date time	SEAPATH.PSXN.Heading	SEAPATH.PSXN.Heave	SEAPATH.PSXN.Pitch	SEAPATH.PSXN.Roll
	spot	spot	spot	spot
	°	m	°	°
2020/01/31 00:00:00.0	268.290	-0.100	-0.360	0.670
2020/01/31 00:00:00.1	268.290	-0.110	-0.370	0.670
2020/01/31 00:00:00.2	268.290	-0.120	-0.380	0.680
2020/01/31 00:00:00.3	268.280	-0.130	-0.390	0.690
2020/01/31 00:00:00.4	268.280	-0.130	-0.400	0.690
2020/01/31 00:00:00.5	268.270	-0.140	-0.410	0.700
2020/01/31 00:00:00.6	268.260	-0.140	-0.420	0.710
2020/01/31 00:00:00.7	268.260	-0.140	-0.430	0.720
2020/01/31 00:00:00.8	268.250	-0.140	-0.440	0.730
2020/01/31 00:00:00.9	268.240	-0.140	-0.450	0.740
2020/01/31 00:00:01.0	268.230	-0.140	-0.460	0.760
2020/01/31 00:00:01.1	268.220	-0.140	-0.470	0.770
2020/01/31 00:00:01.2	268.210	-0.140	-0.480	0.780
2020/01/31 00:00:01.3	268.190	-0.130	-0.480	0.800
2020/01/31 00:00:01.4	268.180	-0.130	-0.490	0.810
2020/01/31 00:00:01.5	268.160	-0.130	-0.490	0.830
2020/01/31 00:00:01.6	268.150	-0.120	-0.490	0.840
2020/01/31 00:00:01.7	268.130	-0.120	-0.490	0.860
2020/01/31 00:00:01.8	268.120	-0.110	-0.490	0.880
2020/01/31 00:00:01.9	268.100	-0.110	-0.480	0.900
2020/01/31 00:00:02.0	268.080	-0.100	-0.470	0.920
2020/01/31 00:00:02.1	268.060	-0.090	-0.470	0.940
2020/01/31 00:00:02.2	268.040	-0.090	-0.460	0.970
2020/01/31 00:00:02.3	268.020	-0.080	-0.440	0.990
2020/01/31 00:00:02.4	268.000	-0.080	-0.430	1.010
2020/01/31 00:00:02.5	267.980	-0.070	-0.420	1.040
2020/01/31 00:00:02.6	267.960	-0.070	-0.400	1.060
2020/01/31 00:00:02.7	267.940	-0.060	-0.380	1.080
2020/01/31 00:00:02.8	267.910	-0.060	-0.370	1.100
2020/01/31 00:00:02.9	267.890	-0.050	-0.350	1.120
2020/01/31 00:00:03.0	267.870	-0.050	-0.330	1.150
2020/01/31 00:00:03.1	267.850	-0.050	-0.310	1.160
2020/01/31 00:00:03.2	267.830	-0.040	-0.290	1.180
2020/01/31 00:00:03.3	267.820	-0.040	-0.270	1.200
2020/01/31 00:00:03.4	267.800	-0.040	-0.250	1.220
2020/01/31 00:00:03.5	267.780	-0.040	-0.240	1.230
2020/01/31 00:00:03.6	267.760	-0.030	-0.220	1.240
2020/01/31 00:00:03.7	267.740	-0.030	-0.210	1.250
2020/01/31 00:00:03.8	267.730	-0.030	-0.190	1.260
2020/01/31 00:00:03.9	267.710	-0.030	-0.180	1.270
2020/01/31 00:00:04.0	267.700	-0.030	-0.170	1.270
2020/01/31 00:00:04.1	267.690	-0.030	-0.170	1.270
2020/01/31 00:00:04.2	267.680	-0.030	-0.160	1.270
2020/01/31 00:00:04.3	267.660	-0.020	-0.160	1.270
2020/01/31 00:00:04.4	267.650	-0.020	-0.160	1.260
2020/01/31 00:00:04.5	267.640	-0.020	-0.170	1.260
2020/01/31 00:00:04.6	267.630	-0.020	-0.180	1.250
2020/01/31 00:00:04.7	267.620	-0.010	-0.190	1.240
2020/01/31 00:00:04.8	267.610	-0.010	-0.200	1.220
2020/01/31 00:00:04.9	267.610	-0.010	-0.210	1.200
2020/01/31 00:00:05.0	267.610	-0.000	-0.230	1.190
2020/01/31 00:00:05.1	267.610	0.000	-0.250	1.160
2020/01/31 00:00:05.2	267.600	0.010	-0.270	1.140
2020/01/31 00:00:05.3	267.600	0.010	-0.290	1.110
2020/01/31 00:00:05.4	267.600	0.020	-0.310	1.080
2020/01/31 00:00:05.5	267.600	0.030	-0.330	1.050
2020/01/31 00:00:05.6	267.600	0.030	-0.350	1.020
2020/01/31 00:00:05.7	267.610	0.040	-0.370	0.990
2020/01/31 00:00:05.8	267.610	0.050	-0.390	0.960
2020/01/31 00:00:05.9	267.600	0.050	-0.410	0.920
2020/01/31 00:00:06.0	267.600	0.060	-0.430	0.890
2020/01/31 00:00:06.1	267.610	0.070	-0.450	0.850
2020/01/31 00:00:06.2	267.620	0.070	-0.470	0.820
2020/01/31 00:00:06.3	267.620	0.080	-0.480	0.790
2020/01/31 00:00:06.4	267.630	0.080	-0.500	0.760
2020/01/31 00:00:06.5	267.640	0.090	-0.510	0.730
2020/01/31 00:00:06.6	267.640	0.090	-0.520	0.700
2020/01/31 00:00:06.7	267.650	0.090	-0.530	0.670
2020/01/31 00:00:06.8	267.660	0.100	-0.530	0.650
2020/01/31 00:00:06.9	267.670	0.100	-0.530	0.630
2020/01/31 00:00:07.0	267.680	0.100	-0.530	0.610
2020/01/31 00:00:07.1	267.690	0.100	-0.530	0.590
2020/01/31 00:00:07.2	267.700	0.090	-0.530	0.570
2020/01/31 00:00:07.3	267.710	0.090	-0.520	0.560
2020/01/31 00:00:07.4	267.710	0.080	-0.510	0.550
2020/01/31 00:00:07.5	267.720	0.080	-0.500	0.530
2020/01/31 00:00:07.6	267.730	0.070	-0.490	0.520
2020/01/31 00:00:07.7	267.740	0.060	-0.470	0.520
2020/01/31 00:00:07.8	267.750	0.050	-0.460	0.510
2020/01/31 00:00:07.9	267.760	0.030	-0.440	0.500
2020/01/31 00:00:08.0	267.760	0.020	-0.420	0.500
2020/01/31 00:00:08.1	267.770	0.000	-0.400	0.490
2020/01/31 00:00:08.2	267.780	-0.010	-0.380	0.490
2020/01/31 00:00:08.3	267.800	-0.030	-0.360	0.490
2020/01/31 00:00:08.4	267.810	-0.050	-0.340	0.490
2020/01/31 00:00:08.5	267.820	-0.060	-0.320	0.480
2020/01/31 00:00:08.6	267.830	-0.080	-0.310	0.480
2020/01/31 00:00:08.7	267.840	-0.100	-0.290	0.490
2020/01/31 00:00:08.8	267.850	-0.120	-0.270	0.490
2020/01/31 00:00:08.9	267.850	-0.140	-0.250	0.490
2020/01/31 00:00:09.0	267.860	-0.160	-0.230	0.490
2020/01/31 00:00:09.1	267.880	-0.180	-0.220	0.490
2020/01/31 00:00:09.2	267.890	-0.200	-0.200	0.500
2020/01/31 00:00:09.3	267.900	-0.220	-0.190	0.500
2020/01/31 00:00:09.4	267.920	-0.240	-0.180	0.500
2020/01/31 00:00:09.5	267.930	-0.260	-0.170	0.510
2020/01/31 00:00:09.6	267.940	-0.270	-0.160	0.510
2020/01/31 00:00:09.7	267.960	-0.290	-0.160	0.510
2020/01/31 00:00:09.8	267.970	-0.300	-0.150	0.520
2020/01/31 00:00:09.9	267.990	-0.320	-0.140	0.520
2020/01/31 00:00:10.0	268.010	-0.330	-0.140	0.530
2020/01/31 00:00:10.1	268.020	-0.340	-0.140	0.530
2020/01/31 00:00:10.2	268.040	-0.350	-0.150	0.530
2020/01/31 00:00:10.3	268.050	-0.360	-0.150	0.540
2020/01/31 00:00:10.4	268.060	-0.360	-0.160	0.540
2020/01/31 00:00:10.5	268.080	-0.370	-0.160	0.540
2020/01/31 00:00:10.6	268.090	-0.370	-0.170	0.550
2020/01/31 00:00:10.7	268.100	-0.370	-0.180	0.550
2020/01/31 00:00:10.8	268.110	-0.360	-0.190	0.560
2020/01/31 00:00:10.9	268.120	-0.360	-0.210	0.560
2020/01/31 00:00:11.0	268.130	-0.350	-0.230	0.570
2020/01/31 00:00:11.1	268.140	-0.350	-0.250	0.570
2020/01/31 00:00:11.2	268.150	-0.340	-0.260	0.580
2020/01/31 00:00:11.3	268.150	-0.330	-0.280	0.590
2020/01/31 00:00:11.4	268.160	-0.310	-0.300	0.600
2020/01/31 00:00:11.5	268.160	-0.300	-0.310	0.610
2020/01/31 00:00:11.6	268.170	-0.280	-0.330	0.620
2020/01/31 00:00:11.7	268.170	-0.260	-0.350	0.640
2020/01/31 00:00:11.8	268.170	-0.240	-0.360	0.650
2020/01/31 00:00:11.9	268.170	-0.220	-0.380	0.670
2020/01/31 00:00:12.0	268.170	-0.200	-0.390	0.680
2020/01/31 00:00:12.1	268.170	-0.180	-0.400	0.700
2020/01/31 00:00:12.2	268.170	-0.160	-0.410	0.720
2020/01/31 00:00:12.3	268.160	-0.140	-0.420	0.740
2020/01/31 00:00:12.4	268.160	-0.110	-0.430	0.760
2020/01/31 00:00:12.5	268.160	-0.090	-0.440	0.790
2020/01/31 00:00:12.6	268.150	-0.070	-0.440	0.810
2020/01/31 00:00:12.7	268.150	-0.050	-0.450	0.830
2020/01/31 00:00:12.8	268.140	-0.020	-0.450	0.860
2020/01/31 00:00:12.9	268.150	-0.000	-0.450	0.880
2020/01/31 00:00:13.0	268.140	0.020	-0.440	0.910
2020/01/31 00:00:13.1	268.140	0.040	-0.430	0.940
2020/01/31 00:00:13.2	268.130	0.060	-0.420	0.960
2020/01/31 00:00:13.3	268.130	0.080	-0.410	0.990
2020/01/31 00:00:13.4	268.120	0.090	-0.400	1.020
2020/01/31 00:00:13.5	268.120	0.110	-0.380	1.040
2020/01/31 00:00:13.6	268.120	0.120	-0.360	1.070
2020/01/31 00:00:13.7	268.110	0.140	-0.340	1.090
2020/01/31 00:00:13.8	268.110	0.150	-0.320	1.120
2020/01/31 00:00:13.9	268.100	0.160	-0.300	1.140
2020/01/31 00:00:14.0	268.090	0.170	-0.270	1.160
2020/01/31 00:00:14.1	268.090	0.180	-0.250	1.190
2020/01/31 00:00:14.2	268.080	0.190	-0.220	1.210
2020/01/31 00:00:14.3	268.080	0.190	-0.200	1.230
2020/01/31 00:00:14.4	268.070	0.200	-0.170	1.250
2020/01/31 00:00:14.5	268.060	0.210	-0.150	1.260
2020/01/31 00:00:14.6	268.060	0.210	-0.120	1.280
2020/01/31 00:00:14.7	268.050	0.210	-0.100	1.290
2020/01/31 00:00:14.8	268.050	0.220	-0.080	1.300
2020/01/31 00:00:14.9	268.040	0.220	-0.050	1.310
2020/01/31 00:00:15.0	268.030	0.220	-0.030	1.320
2020/01/31 00:00:15.1	268.020	0.230	-0.020	1.330
2020/01/31 00:00:15.2	268.010	0.230	-0.000	1.330
2020/01/31 00:00:15.3	268.000	0.230	0.010	1.330
2020/01/31 00:00:15.4	267.990	0.240	0.020	1.330
2020/01/31 00:00:15.5	267.980	0.240	0.030	1.330
2020/01/31 00:00:15.6	267.970	0.240	0.040	1.330
2020/01/31 00:00:15.7	267.960	0.250	0.040	1.320
2020/01/31 00:00:15.8	267.950	0.250	0.040	1.310
2020/01/31 00:00:15.9	267.930	0.250	0.040	1.300
2020/01/31 00:00:16.0	267.920	0.260	0.040	1.290
2020/01/31 00:00:16.1	267.900	0.260	0.040	1.280
2020/01/31 00:00:16.2	267.890	0.270	0.030	1.260
2020/01/31 00:00:16.3	267.870	0.270	0.020	1.250
2020/01/31 00:00:16.4	267.850	0.280	0.010	1.230
2020/01/31 00:00:16.5	267.840	0.280	-0.000	1.210
2020/01/31 00:00:16.6	267.820	0.290	-0.010	1.180
2020/01/31 00:00:16.7	267.800	0.290	-0.030	1.160
2020/01/31 00:00:16.8	267.780	0.300	-0.040	1.130
2020/01/31 00:00:16.9	267.770	0.300	-0.050	1.110
2020/01/31 00:00:17.0	267.750	0.300	-0.070	1.080
2020/01/31 00:00:17.1	267.740	0.300	-0.090	1.050
2020/01/31 00:00:17.2	267.720	0.310	-0.100	1.020
2020/01/31 00:00:17.3	267.700	0.310	-0.120	0.990
2020/01/31 00:00:17.4	267.690	0.310	-0.140	0.960
2020/01/31 00:00:17.5	267.670	0.310	-0.150	0.930
2020/01/31 00:00:17.6	267.660	0.300	-0.170	0.890
2020/01/31 00:00:17.7	267.640	0.300	-0.190	0.860
2020/01/31 00:00:17.8	267.630	0.300	-0.200	0.820
2020/01/31 00:00:17.9	267.620	0.290	-0.210	0.790
2020/01/31 00:00:18.0	267.600	0.280	-0.230	0.750
2020/01/31 00:00:18.1	267.590	0.280	-0.240	0.720
2020/01/31 00:00:18.2	267.580	0.270	-0.260	0.680
2020/01/31 00:00:18.3	267.570	0.260	-0.270	0.650
2020/01/31 00:00:18.4	267.560	0.250	-0.280	0.610
2020/01/31 00:00:18.5	267.550	0.240	-0.290	0.580
2020/01/31 00:00:18.6	267.550	0.220	-0.300	0.550
2020/01/31 00:00:18.7	267.540	0.210	-0.300	0.520
2020/01/31 00:00:18.8	267.540	0.200	-0.310	0.490
2020/01/31 00:00:18.9	267.540	0.180	-0.320	0.460
2020/01/31 00:00:19.0	267.530	0.160	-0.320	0.430
2020/01/31 00:00:19.1	267.530	0.150	-0.330	0.400
2020/01/31 00:00:19.2	267.530	0.130	-0.340	0.370
2020/01/31 00:00:19.3	267.530	0.110	-0.340	0.350
2020/01/31 00:00:19.4	267.530	0.100	-0.350	0.320
2020/01/31 00:00:19.5	267.530	0.080	-0.360	0.300
2020/01/31 00:00:19.6	267.530	0.060	-0.360	0.280
2020/01/31 00:00:19.7	267.530	0.040	-0.370	0.260
2020/01/31 00:00:19.8	267.530	0.030	-0.380	0.240
2020/01/31 00:00:19.9	267.530	0.010	-0.390	0.220
2020/01/31 00:00:20.0	267.530	-0.010	-0.400	0.210
2020/01/31 00:00:20.1	267.540	-0.020	-0.410	0.200
2020/01/31 00:00:20.2	267.540	-0.040	-0.430	0.190
2020/01/31 00:00:20.3	267.540	-0.050	-0.440	0.180
2020/01/31 00:00:20.4	267.540	-0.070	-0.450	0.180
2020/01/31 00:00:20.5	267.540	-0.080	-0.470	0.170
2020/01/31 00:00:20.6	267.540	-0.090	-0.480	0.170
2020/01/31 00:00:20.7	267.540	-0.100	-0.500	0.180
2020/01/31 00:00:20.8	267.550	-0.110	-0.510	0.180
2020/01/31 00:00:20.9	267.550	-0.120	-0.530	0.190
2020/01/31 00:00:21.0	267.550	-0.120	-0.550	0.200
2020/01/31 00:00:21.1	267.550	-0.130	-0.570	0.210
2020/01/31 00:00:21.2	267.550	-0.130	-0.580	0.220
2020/01/31 00:00:21.3	267.550	-0.140	-0.600	0.230
2020/01/31 00:00:21.4	267.560	-0.140	-0.620	0.250
2020/01/31 00:00:21.5	267.560	-0.140	-0.640	0.270
2020/01/31 00:00:21.6	267.570	-0.140	-0.660	0.280
2020/01/31 00:00:21.7	267.570	-0.140	-0.670	0.300
2020/01/31 00:00:21.8	267.580	-0.140	-0.690	0.320
2020/01/31 00:00:21.9	267.580	-0.140	-0.710	0.340
2020/01/31 00:00:22.0	267.590	-0.130	-0.720	0.350
2020/01/31 00:00:22.1	267.600	-0.130	-0.730	0.370
2020/01/31 00:00:22.2	267.610	-0.130	-0.750	0.390
2020/01/31 00:00:22.3	267.620	-0.120	-0.760	0.410
2020/01/31 00:00:22.4	267.630	-0.120	-0.770	0.420
2020/01/31 00:00:22.5	267.640	-0.110	-0.780	0.440
2020/01/31 00:00:22.6	267.650	-0.110	-0.780	0.450
2020/01/31 00:00:22.7	267.660	-0.110	-0.790	0.470
2020/01/31 00:00:22.8	267.670	-0.100	-0.790	0.480
2020/01/31 00:00:22.9	267.670	-0.100	-0.800	0.500
2020/01/31 00:00:23.0	267.690	-0.090	-0.800	0.510
2020/01/31 00:00:23.1	267.700	-0.090	-0.800	0.520
2020/01/31 00:00:23.2	267.710	-0.080	-0.800	0.530
2020/01/31 00:00:23.3	267.730	-0.080	-0.800	0.550
2020/01/31 00:00:23.4	267.740	-0.080	-0.790	0.560
2020/01/31 00:00:23.5	267.750	-0.080	-0.790	0.570
2020/01/31 00:00:23.6	267.770	-0.070	-0.790	0.580
2020/01/31 00:00:23.7	267.780	-0.070	-0.780	0.590
2020/01/31 00:00:23.8	267.790	-0.070	-0.770	0.600
2020/01/31 00:00:23.9	267.810	-0.070	-0.760	0.620
2020/01/31 00:00:24.0	267.830	-0.070	-0.750	0.630
2020/01/31 00:00:24.1	267.840	-0.060	-0.740	0.640
2020/01/31 00:00:24.2	267.850	-0.060	-0.730	0.650
2020/01/31 00:00:24.3	267.860	-0.060	-0.720	0.670
2020/01/31 00:00:24.4	267.870	-0.060	-0.710	0.680
2020/01/31 00:00:24.5	267.880	-0.060	-0.700	0.690
2020/01/31 00:00:24.6	267.890	-0.060	-0.680	0.700
2020/01/31 00:00:24.7	267.900	-0.060	-0.670	0.710
2020/01/31 00:00:24.8	267.910	-0.070	-0.650	0.730
2020/01/31 00:00:24.9	267.920	-0.070	-0.630	0.740
2020/01/31 00:00:25.0	267.930	-0.070	-0.610	0.750
2020/01/31 00:00:25.1	267.930	-0.070	-0.590	0.760
2020/01/31 00:00:25.2	267.940	-0.070	-0.570	0.770
2020/01/31 00:00:25.3	267.940	-0.070	-0.540	0.780
2020/01/31 00:00:25.4	267.940	-0.080	-0.520	0.790
2020/01/31 00:00:25.5	267.940	-0.080	-0.490	0.800
2020/01/31 00:00:25.6	267.950	-0.080	-0.460	0.810
2020/01/31 00:00:25.7	267.950	-0.080	-0.430	0.820
2020/01/31 00:00:25.8	267.950	-0.090	-0.400	0.830
2020/01/31 00:00:25.9	267.950	-0.090	-0.370	0.840
2020/01/31 00:00:26.0	267.950	-0.100	-0.340	0.850
2020/01/31 00:00:26.1	267.950	-0.100	-0.300	0.860
2020/01/31 00:00:26.2	267.940	-0.110	-0.270	0.860
2020/01/31 00:00:26.3	267.940	-0.110	-0.230	0.870
2020/01/31 00:00:26.4	267.940	-0.120	-0.200	0.870
2020/01/31 00:00:26.5	267.940	-0.120	-0.160	0.870
2020/01/31 00:00:26.6	267.930	-0.130	-0.130	0.870
2020/01/31 00:00:26.7	267.930	-0.140	-0.090	0.870
2020/01/31 00:00:26.8	267.920	-0.140	-0.050	0.870
2020/01/31 00:00:26.9	267.920	-0.150	-0.020	0.870
2020/01/31 00:00:27.0	267.910	-0.160	0.020	0.860
2020/01/31 00:00:27.1	267.910	-0.170	0.050	0.860
2020/01/31 00:00:27.2	267.900	-0.180	0.080	0.850
2020/01/31 00:00:27.3	267.900	-0.190	0.110	0.840
2020/01/31 00:00:27.4	267.890	-0.190	0.140	0.830
2020/01/31 00:00:27.5	267.880	-0.200	0.170	0.820
2020/01/31 00:00:27.6	267.880	-0.210	0.190	0.800
2020/01/31 00:00:27.7	267.870	-0.220	0.210	0.780
2020/01/31 00:00:27.8	267.860	-0.230	0.230	0.770
2020/01/31 00:00:27.9	267.850	-0.240	0.250	0.750
2020/01/31 00:00:28.0	267.850	-0.250	0.270	0.720
2020/01/31 00:00:28.1	267.840	-0.260	0.290	0.700
2020/01/31 00:00:28.2	267.820	-0.270	0.300	0.670
2020/01/31 00:00:28.3	267.810	-0.270	0.310	0.650
2020/01/31 00:00:28.4	267.800	-0.280	0.320	0.620
2020/01/31 00:00:28.5	267.780	-0.290	0.320	0.590
2020/01/31 00:00:28.6	267.770	-0.290	0.330	0.560
2020/01/31 00:00:28.7	267.760	-0.300	0.330	0.540
2020/01/31 00:00:28.8	267.740	-0.300	0.330	0.510
2020/01/31 00:00:28.9	267.730	-0.310	0.330	0.480
2020/01/31 00:00:29.0	267.710	-0.310	0.320	0.450
2020/01/31 00:00:29.1	267.690	-0.310	0.320	0.420
2020/01/31 00:00:29.2	267.680	-0.320	0.310	0.390
2020/01/31 00:00:29.3	267.670	-0.320	0.300	0.360
2020/01/31 00:00:29.4	267.660	-0.320	0.290	0.330
2020/01/31 00:00:29.5	267.650	-0.310	0.280	0.300
2020/01/31 00:00:29.6	267.640	-0.310	0.270	0.280
2020/01/31 00:00:29.7	267.630	-0.310	0.250	0.250
2020/01/31 00:00:29.8	267.620	-0.300	0.230	0.220
2020/01/31 00:00:29.9	267.620	-0.290	0.220	0.190
2020/01/31 00:00:30.0	267.610	-0.290	0.200	0.170
2020/01/31 00:00:30.1	267.610	-0.280	0.180	0.150
2020/01/31 00:00:30.2	267.610	-0.270	0.150	0.130
2020/01/31 00:00:30.3	267.600	-0.260	0.130	0.110
2020/01/31 00:00:30.4	267.600	-0.240	0.100	0.090
2020/01/31 00:00:30.5	267.600	-0.230	0.080	0.080
2020/01/31 00:00:30.6	267.600	-0.220	0.050	0.070
2020/01/31 00:00:30.7	267.600	-0.200	0.020	0.060
2020/01/31 00:00:30.8	267.600	-0.180	-0.010	0.060
2020/01/31 00:00:30.9	267.610	-0.170	-0.040	0.060
2020/01/31 00:00:31.0	267.610	-0.150	-0.070	0.060
2020/01/31 00:00:31.1	267.620	-0.130	-0.100	0.060
2020/01/31 00:00:31.2	267.620	-0.110	-0.130	0.060
2020/01/31 00:00:31.3	267.620	-0.090	-0.170	0.070
2020/01/31 00:00:31.4	267.630	-0.070	-0.200	0.080
2020/01/31 00:00:31.5	267.630	-0.040	-0.230	0.090
2020/01/31 00:00:31.6	267.630	-0.020	-0.260	0.110
2020/01/31 00:00:31.7	267.640	0.000	-0.290	0.120
2020/01/31 00:00:31.8	267.640	0.020	-0.320	0.140
2020/01/31 00:00:31.9	267.640	0.040	-0.350	0.170
2020/01/31 00:00:32.0	267.640	0.070	-0.370	0.190
2020/01/31 00:00:32.1	267.650	0.090	-0.400	0.210
2020/01/31 00:00:32.2	267.650	0.110	-0.430	0.240
2020/01/31 00:00:32.3	267.650	0.130	-0.450	0.270
2020/01/31 00:00:32.4	267.650	0.150	-0.470	0.300
2020/01/31 00:00:32.5	267.650	0.170	-0.490	0.330
2020/01/31 00:00:32.6	267.650	0.180	-0.510	0.360
2020/01/31 00:00:32.7	267.650	0.200	-0.530	0.390
2020/01/31 00:00:32.8	267.650	0.220	-0.550	0.420
2020/01/31 00:00:32.9	267.650	0.230	-0.560	0.450
2020/01/31 00:00:33.0	267.650	0.250	-0.580	0.480
2020/01/31 00:00:33.1	267.640	0.260	-0.590	0.500
2020/01/31 00:00:33.2	267.640	0.270	-0.600	0.530
2020/01/31 00:00:33.3	267.640	0.280	-0.600	0.560
2020/01/31 00:00:33.4	267.630	0.290	-0.610	0.590
2020/01/31 00:00:33.5	267.630	0.290	-0.610	0.620
2020/01/31 00:00:33.6	267.620	0.300	-0.620	0.650
2020/01/31 00:00:33.7	267.620	0.300	-0.620	0.670
2020/01/31 00:00:33.8	267.610	0.310	-0.620	0.700
2020/01/31 00:00:33.9	267.600	0.310	-0.620	0.720
2020/01/31 00:00:34.0	267.600	0.310	-0.620	0.750
2020/01/31 00:00:34.1	267.590	0.310	-0.620	0.770
2020/01/31 00:00:34.2	267.580	0.310	-0.620	0.790
2020/01/31 00:00:34.3	267.570	0.300	-0.620	0.820
2020/01/31 00:00:34.4	267.570	0.300	-0.610	0.840
2020/01/31 00:00:34.5	267.560	0.290	-0.610	0.860
2020/01/31 00:00:34.6	267.550	0.290	-0.610	0.880
2020/01/31 00:00:34.7	267.540	0.280	-0.600	0.900
2020/01/31 00:00:34.8	267.530	0.280	-0.600	0.920
2020/01/31 00:00:34.9	267.530	0.270	-0.590	0.940
2020/01/31 00:00:35.0	267.520	0.260	-0.590	0.960
2020/01/31 00:00:35.1	267.520	0.250	-0.590	0.980
2020/01/31 00:00:35.2	267.510	0.250	-0.580	0.990
2020/01/31 00:00:35.3	267.500	0.240	-0.580	1.010
2020/01/31 00:00:35.4	267.490	0.230	-0.580	1.030
2020/01/31 00:00:35.5	267.480	0.220	-0.580	1.040
2020/01/31 00:00:35.6	267.480	0.220	-0.580	1.060
2020/01/31 00:00:35.7	267.470	0.210	-0.580	1.070
2020/01/31 00:00:35.8	267.460	0.200	-0.580	1.080
2020/01/31 00:00:35.9	267.460	0.200	-0.590	1.090
2020/01/31 00:00:36.0	267.450	0.190	-0.590	1.100
2020/01/31 00:00:36.1	267.440	0.190	-0.590	1.110
2020/01/31 00:00:36.2	267.440	0.180	-0.600	1.120
2020/01/31 00:00:36.3	267.430	0.180	-0.600	1.120
2020/01/31 00:00:36.4	267.430	0.170	-0.600	1.130
2020/01/31 00:00:36.5	267.420	0.170	-0.610	1.130
2020/01/31 00:00:36.6	267.420	0.170	-0.610	1.130
2020/01/31 00:00:36.7	267.410	0.170	-0.620	1.130
2020/01/31 00:00:36.8	267.410	0.170	-0.620	1.120
2020/01/31 00:00:36.9	267.420	0.160	-0.620	1.120
2020/01/31 00:00:37.0	267.410	0.160	-0.620	1.110
2020/01/31 00:00:37.1	267.410	0.160	-0.620	1.100
2020/01/31 00:00:37.2	267.410	0.160	-0.620	1.080
2020/01/31 00:00:37.3	267.410	0.160	-0.620	1.070
2020/01/31 00:00:37.4	267.400	0.160	-0.620	1.050
2020/01/31 00:00:37.5	267.400	0.160	-0.620	1.040
2020/01/31 00:00:37.6	267.400	0.160	-0.620	1.020
2020/01/31 00:00:37.7	267.390	0.160	-0.610	1.000
2020/01/31 00:00:37.8	267.390	0.160	-0.610	0.980
2020/01/31 00:00:37.9	267.370	0.160	-0.600	0.950
2020/01/31 00:00:38.0	267.370	0.160	-0.590	0.930
2020/01/31 00:00:38.1	267.370	0.160	-0.580	0.910
2020/01/31 00:00:38.2	267.370	0.160	-0.570	0.890
2020/01/31 00:00:38.3	267.360	0.160	-0.550	0.870
2020/01/31 00:00:38.4	267.360	0.160	-0.540	0.850
2020/01/31 00:00:38.5	267.350	0.160	-0.520	0.830
2020/01/31 00:00:38.6	267.350	0.150	-0.510	0.810
2020/01/31 00:00:38.7	267.340	0.150	-0.490	0.790
2020/01/31 00:00:38.8	267.340	0.150	-0.470	0.770
2020/01/31 00:00:38.9	267.330	0.150	-0.450	0.760
2020/01/31 00:00:39.0	267.320	0.140	-0.430	0.740
2020/01/31 00:00:39.1	267.320	0.140	-0.410	0.730
2020/01/31 00:00:39.2	267.310	0.130	-0.390	0.720
2020/01/31 00:00:39.3	267.300	0.130	-0.370	0.710
2020/01/31 00:00:39.4	267.300	0.120	-0.350	0.700
2020/01/31 00:00:39.5	267.290	0.110	-0.320	0.690
2020/01/31 00:00:39.6	267.280	0.110	-0.300	0.680
2020/01/31 00:00:39.7	267.280	0.100	-0.280	0.670
2020/01/31 00:00:39.8	267.270	0.090	-0.250	0.670
2020/01/31 00:00:39.9	267.270	0.080	-0.230	0.660
2020/01/31 00:00:40.0	267.270	0.070	-0.200	0.660
2020/01/31 00:00:40.1	267.260	0.060	-0.180	0.660
2020/01/31 00:00:40.2	267.260	0.050	-0.160	0.650
2020/01/31 00:00:40.3	267.250	0.030	-0.140	0.650
2020/01/31 00:00:40.4	267.250	0.020	-0.120	0.650
2020/01/31 00:00:40.5	267.250	0.010	-0.110	0.650
2020/01/31 00:00:40.6	267.250	-0.010	-0.090	0.650
2020/01/31 00:00:40.7	267.250	-0.020	-0.070	0.650
2020/01/31 00:00:40.8	267.240	-0.030	-0.050	0.660
2020/01/31 00:00:40.9	267.240	-0.050	-0.050	0.660
2020/01/31 00:00:41.0	267.240	-0.060	-0.030	0.660
2020/01/31 00:00:41.1	267.240	-0.080	-0.020	0.660
2020/01/31 00:00:41.2	267.240	-0.090	-0.010	0.660
2020/01/31 00:00:41.3	267.240	-0.110	0.010	0.670
2020/01/31 00:00:41.4	267.240	-0.120	0.020	0.670
2020/01/31 00:00:41.5	267.240	-0.130	0.030	0.670
2020/01/31 00:00:41.6	267.240	-0.150	0.040	0.680
2020/01/31 00:00:41.7	267.230	-0.160	0.050	0.680
2020/01/31 00:00:41.8	267.230	-0.170	0.050	0.690
2020/01/31 00:00:41.9	267.230	-0.190	0.060	0.690
2020/01/31 00:00:42.0	267.220	-0.200	0.080	0.700
2020/01/31 00:00:42.1	267.220	-0.210	0.080	0.700
2020/01/31 00:00:42.2	267.210	-0.220	0.090	0.700
2020/01/31 00:00:42.3	267.210	-0.230	0.100	0.710
2020/01/31 00:00:42.4	267.200	-0.240	0.110	0.710
2020/01/31 00:00:42.5	267.200	-0.250	0.120	0.710
2020/01/31 00:00:42.6	267.190	-0.260	0.120	0.710
2020/01/31 00:00:42.7	267.180	-0.270	0.130	0.710
2020/01/31 00:00:42.8	267.170	-0.280	0.140	0.710
2020/01/31 00:00:42.9	267.160	-0.290	0.140	0.710
2020/01/31 00:00:43.0	267.140	-0.290	0.140	0.710
2020/01/31 00:00:43.1	267.130	-0.300	0.150	0.710
2020/01/31 00:00:43.2	267.120	-0.300	0.150	0.710
2020/01/31 00:00:43.3	267.100	-0.310	0.150	0.710
2020/01/31 00:00:43.4	267.090	-0.310	0.150	0.700
2020/01/31 00:00:43.5	267.080	-0.320	0.140	0.700
2020/01/31 00:00:43.6	267.070	-0.320	0.140	0.700
2020/01/31 00:00:43.7	267.060	-0.320	0.130	0.700
2020/01/31 00:00:43.8	267.050	-0.320	0.120	0.700
2020/01/31 00:00:43.9	267.030	-0.320	0.110	0.690
2020/01/31 00:00:44.0	267.020	-0.320	0.100	0.690
2020/01/31 00:00:44.1	267.010	-0.310	0.080	0.690
2020/01/31 00:00:44.2	267.000	-0.310	0.070	0.680
2020/01/31 00:00:44.3	266.990	-0.300	0.050	0.680
2020/01/31 00:00:44.4	266.990	-0.300	0.030	0.680
2020/01/31 00:00:44.5	266.980	-0.290	0.000	0.680
2020/01/31 00:00:44.6	266.980	-0.280	-0.020	0.680
2020/01/31 00:00:44.7	266.980	-0.280	-0.050	0.680
2020/01/31 00:00:44.8	266.980	-0.270	-0.070	0.680
2020/01/31 00:00:44.9	266.980	-0.260	-0.100	0.680
2020/01/31 00:00:45.0	266.980	-0.250	-0.130	0.680
2020/01/31 00:00:45.1	266.980	-0.230	-0.160	0.680
2020/01/31 00:00:45.2	266.990	-0.220	-0.200	0.690
2020/01/31 00:00:45.3	267.000	-0.210	-0.230	0.690
2020/01/31 00:00:45.4	267.000	-0.190	-0.260	0.690
2020/01/31 00:00:45.5	267.010	-0.180	-0.300	0.700
2020/01/31 00:00:45.6	267.020	-0.160	-0.340	0.710
2020/01/31 00:00:45.7	267.030	-0.140	-0.370	0.710
2020/01/31 00:00:45.8	267.040	-0.130	-0.410	0.720
2020/01/31 00:00:45.9	267.040	-0.110	-0.450	0.730
2020/01/31 00:00:46.0	267.060	-0.090	-0.480	0.750
2020/01/31 00:00:46.1	267.070	-0.070	-0.520	0.760
2020/01/31 00:00:46.2	267.080	-0.050	-0.560	0.770
2020/01/31 00:00:46.3	267.090	-0.030	-0.600	0.790
2020/01/31 00:00:46.4	267.090	-0.010	-0.630	0.810
2020/01/31 00:00:46.5	267.100	0.010	-0.670	0.830
2020/01/31 00:00:46.6	267.100	0.030	-0.700	0.850
2020/01/31 00:00:46.7	267.110	0.050	-0.740	0.870
2020/01/31 00:00:46.8	267.110	0.070	-0.770	0.890
2020/01/31 00:00:46.9	267.110	0.090	-0.800	0.920
2020/01/31 00:00:47.0	267.120	0.120	-0.830	0.940
2020/01/31 00:00:47.1	267.120	0.140	-0.860	0.960
2020/01/31 00:00:47.2	267.120	0.160	-0.890	0.990
2020/01/31 00:00:47.3	267.110	0.170	-0.910	1.010
2020/01/31 00:00:47.4	267.110	0.190	-0.930	1.040
2020/01/31 00:00:47.5	267.110	0.210	-0.950	1.060
2020/01/31 00:00:47.6	267.110	0.230	-0.970	1.090
2020/01/31 00:00:47.7	267.110	0.240	-0.980	1.110
2020/01/31 00:00:47.8	267.100	0.250	-0.990	1.140
2020/01/31 00:00:47.9	267.100	0.260	-0.990	1.160
2020/01/31 00:00:48.0	267.100	0.270	-0.990	1.180
2020/01/31 00:00:48.1	267.090	0.280	-0.990	1.210
2020/01/31 00:00:48.2	267.090	0.290	-0.990	1.230
2020/01/31 00:00:48.3	267.090	0.290	-0.980	1.250
2020/01/31 00:00:48.4	267.080	0.290	-0.960	1.270
2020/01/31 00:00:48.5	267.080	0.290	-0.950	1.280
2020/01/31 00:00:48.6	267.080	0.290	-0.930	1.300
2020/01/31 00:00:48.7	267.070	0.290	-0.910	1.320
2020/01/31 00:00:48.8	267.070	0.280	-0.880	1.330
2020/01/31 00:00:48.9	267.070	0.280	-0.860	1.340
2020/01/31 00:00:49.0	267.070	0.270	-0.820	1.360
2020/01/31 00:00:49.1	267.070	0.260	-0.790	1.370
2020/01/31 00:00:49.2	267.070	0.240	-0.760	1.380
2020/01/31 00:00:49.3	267.070	0.230	-0.730	1.380
2020/01/31 00:00:49.4	267.080	0.210	-0.690	1.390
2020/01/31 00:00:49.5	267.080	0.190	-0.650	1.390
2020/01/31 00:00:49.6	267.080	0.180	-0.610	1.400
2020/01/31 00:00:49.7	267.090	0.160	-0.580	1.400
2020/01/31 00:00:49.8	267.090	0.140	-0.540	1.400
2020/01/31 00:00:49.9	267.100	0.120	-0.500	1.400
2020/01/31 00:00:50.0	267.110	0.100	-0.460	1.390
2020/01/31 00:00:50.1	267.120	0.070	-0.420	1.390
2020/01/31 00:00:50.2	267.130	0.050	-0.390	1.380
2020/01/31 00:00:50.3	267.140	0.030	-0.350	1.370
2020/01/31 00:00:50.4	267.150	0.010	-0.310	1.370
2020/01/31 00:00:50.5	267.160	-0.010	-0.280	1.360
2020/01/31 00:00:50.6	267.170	-0.030	-0.250	1.340
2020/01/31 00:00:50.7	267.180	-0.060	-0.220	1.330
2020/01/31 00:00:50.8	267.190	-0.070	-0.190	1.320
2020/01/31 00:00:50.9	267.200	-0.090	-0.160	1.310
2020/01/31 00:00:51.0	267.220	-0.110	-0.140	1.290
2020/01/31 00:00:51.1	267.230	-0.130	-0.120	1.270
2020/01/31 00:00:51.2	267.240	-0.140	-0.090	1.260
2020/01/31 00:00:51.3	267.250	-0.160	-0.070	1.240
2020/01/31 00:00:51.4	267.260	-0.170	-0.060	1.220
2020/01/31 00:00:51.5	267.270	-0.180	-0.040	1.200
2020/01/31 00:00:51.6	267.280	-0.190	-0.030	1.170
2020/01/31 00:00:51.7	267.290	-0.200	-0.010	1.150
2020/01/31 00:00:51.8	267.300	-0.200	-0.000	1.130
2020/01/31 00:00:51.9	267.320	-0.210	0.010	1.100
2020/01/31 00:00:52.0	267.330	-0.210	0.020	1.070
2020/01/31 00:00:52.1	267.330	-0.220	0.030	1.050
2020/01/31 00:00:52.2	267.340	-0.220	0.040	1.020
2020/01/31 00:00:52.3	267.350	-0.220	0.040	0.990
2020/01/31 00:00:52.4	267.360	-0.210	0.050	0.960
2020/01/31 00:00:52.5	267.370	-0.210	0.050	0.930
2020/01/31 00:00:52.6	267.380	-0.210	0.060	0.900
2020/01/31 00:00:52.7	267.380	-0.200	0.060	0.870
2020/01/31 00:00:52.8	267.390	-0.190	0.070	0.850
2020/01/31 00:00:52.9	267.400	-0.190	0.070	0.820
2020/01/31 00:00:53.0	267.410	-0.180	0.080	0.780
2020/01/31 00:00:53.1	267.420	-0.170	0.080	0.750
2020/01/31 00:00:53.2	267.420	-0.160	0.080	0.720
2020/01/31 00:00:53.3	267.430	-0.150	0.080	0.690
2020/01/31 00:00:53.4	267.430	-0.140	0.080	0.660
2020/01/31 00:00:53.5	267.440	-0.130	0.080	0.640
2020/01/31 00:00:53.6	267.450	-0.120	0.080	0.610
2020/01/31 00:00:53.7	267.450	-0.110	0.080	0.580
2020/01/31 00:00:53.8	267.460	-0.100	0.080	0.560
2020/01/31 00:00:53.9	267.460	-0.090	0.070	0.530
2020/01/31 00:00:54.0	267.470	-0.080	0.060	0.510
2020/01/31 00:00:54.1	267.470	-0.070	0.060	0.490
2020/01/31 00:00:54.2	267.470	-0.060	0.050	0.470
2020/01/31 00:00:54.3	267.480	-0.050	0.040	0.450
2020/01/31 00:00:54.4	267.480	-0.040	0.030	0.430
2020/01/31 00:00:54.5	267.480	-0.030	0.020	0.420
2020/01/31 00:00:54.6	267.490	-0.020	0.010	0.410
2020/01/31 00:00:54.7	267.490	-0.010	0.000	0.400
2020/01/31 00:00:54.8	267.490	-0.000	-0.010	0.390
2020/01/31 00:00:54.9	267.500	0.010	-0.020	0.380
2020/01/31 00:00:55.0	267.500	0.010	-0.030	0.380
2020/01/31 00:00:55.1	267.500	0.020	-0.050	0.380
2020/01/31 00:00:55.2	267.510	0.030	-0.060	0.380
2020/01/31 00:00:55.3	267.510	0.040	-0.070	0.390
2020/01/31 00:00:55.4	267.510	0.040	-0.090	0.390
2020/01/31 00:00:55.5	267.510	0.050	-0.100	0.400
2020/01/31 00:00:55.6	267.510	0.060	-0.110	0.410
2020/01/31 00:00:55.7	267.510	0.060	-0.130	0.430
2020/01/31 00:00:55.8	267.510	0.070	-0.140	0.440
2020/01/31 00:00:55.9	267.510	0.070	-0.140	0.460
2020/01/31 00:00:56.0	267.500	0.080	-0.150	0.480
2020/01/31 00:00:56.1	267.500	0.080	-0.160	0.500
2020/01/31 00:00:56.2	267.500	0.090	-0.170	0.520
2020/01/31 00:00:56.3	267.500	0.090	-0.170	0.550
2020/01/31 00:00:56.4	267.490	0.090	-0.170	0.570
2020/01/31 00:00:56.5	267.490	0.100	-0.170	0.590
2020/01/31 00:00:56.6	267.480	0.100	-0.170	0.620
2020/01/31 00:00:56.7	267.480	0.110	-0.170	0.640
2020/01/31 00:00:56.8	267.470	0.110	-0.170	0.660
2020/01/31 00:00:56.9	267.470	0.110	-0.170	0.680
2020/01/31 00:00:57.0	267.460	0.120	-0.160	0.700
2020/01/31 00:00:57.1	267.450	0.120	-0.160	0.720
2020/01/31 00:00:57.2	267.450	0.130	-0.160	0.740
2020/01/31 00:00:57.3	267.440	0.130	-0.160	0.760
2020/01/31 00:00:57.4	267.430	0.130	-0.160	0.770
2020/01/31 00:00:57.5	267.420	0.140	-0.160	0.790
2020/01/31 00:00:57.6	267.420	0.150	-0.160	0.800
2020/01/31 00:00:57.7	267.410	0.150	-0.160	0.810
2020/01/31 00:00:57.8	267.400	0.160	-0.160	0.810
2020/01/31 00:00:57.9	267.380	0.160	-0.170	0.820
2020/01/31 00:00:58.0	267.380	0.170	-0.180	0.830
2020/01/31 00:00:58.1	267.370	0.180	-0.190	0.830
2020/01/31 00:00:58.2	267.360	0.190	-0.210	0.830
2020/01/31 00:00:58.3	267.350	0.200	-0.220	0.830
2020/01/31 00:00:58.4	267.340	0.200	-0.240	0.830
2020/01/31 00:00:58.5	267.320	0.210	-0.270	0.830
2020/01/31 00:00:58.6	267.310	0.220	-0.290	0.830
2020/01/31 00:00:58.7	267.300	0.230	-0.320	0.820
2020/01/31 00:00:58.8	267.290	0.240	-0.350	0.820
2020/01/31 00:00:58.9	267.280	0.250	-0.380	0.810
2020/01/31 00:00:59.0	267.270	0.270	-0.410	0.800
2020/01/31 00:00:59.1	267.260	0.280	-0.450	0.790
2020/01/31 00:00:59.2	267.250	0.290	-0.490	0.780
2020/01/31 00:00:59.3	267.240	0.300	-0.530	0.770
2020/01/31 00:00:59.4	267.230	0.310	-0.570	0.750
2020/01/31 00:00:59.5	267.220	0.310	-0.610	0.740
2020/01/31 00:00:59.6	267.210	0.320	-0.650	0.720
2020/01/31 00:00:59.7	267.210	0.330	-0.690	0.710
2020/01/31 00:00:59.8	267.200	0.340	-0.730	0.690
2020/01/31 00:00:59.9	267.190	0.340	-0.760	0.680
2020/01/31 00:01:00.0	267.190	0.350	-0.800	0.660
2020/01/31 00:01:00.1	267.180	0.350	-0.840	0.650
2020/01/31 00:01:00.2	267.180	0.350	-0.870	0.640
2020/01/31 00:01:00.3	267.170	0.350	-0.900	0.620
2020/01/31 00:01:00.4	267.160	0.350	-0.930	0.610
2020/01/31 00:01:00.5	267.160	0.350	-0.950	0.600
2020/01/31 00:01:00.6	267.150	0.350	-0.980	0.590
2020/01/31 00:01:00.7	267.150	0.340	-1.000	0.580
2020/01/31 00:01:00.8	267.140	0.340	-1.010	0.580
2020/01/31 00:01:00.9	267.140	0.330	-1.020	0.570
2020/01/31 00:01:01.0	267.140	0.320	-1.030	0.570
2020/01/31 00:01:01.1	267.140	0.310	-1.040	0.560
2020/01/31 00:01:01.2	267.130	0.290	-1.040	0.560
2020/01/31 00:01:01.3	267.130	0.280	-1.040	0.550
2020/01/31 00:01:01.4	267.130	0.260	-1.030	0.550
2020/01/31 00:01:01.5	267.130	0.250	-1.020	0.550
2020/01/31 00:01:01.6	267.130	0.230	-1.010	0.550
2020/01/31 00:01:01.7	267.130	0.210	-0.990	0.540
2020/01/31 00:01:01.8	267.130	0.190	-0.970	0.540
2020/01/31 00:01:01.9	267.140	0.160	-0.940	0.540
2020/01/31 00:01:02.0	267.150	0.140	-0.920	0.540
2020/01/31 00:01:02.1	267.150	0.120	-0.890	0.540
2020/01/31 00:01:02.2	267.160	0.090	-0.860	0.530
2020/01/31 00:01:02.3	267.170	0.060	-0.830	0.530
2020/01/31 00:01:02.4	267.180	0.040	-0.790	0.530
2020/01/31 00:01:02.5	267.200	0.010	-0.750	0.520
2020/01/31 00:01:02.6	267.210	-0.020	-0.720	0.520
2020/01/31 00:01:02.7	267.230	-0.050	-0.680	0.520
2020/01/31 00:01:02.8	267.240	-0.070	-0.640	0.510
2020/01/31 00:01:02.9	267.260	-0.100	-0.600	0.510
2020/01/31 00:01:03.0	267.270	-0.130	-0.560	0.500
2020/01/31 00:01:03.1	267.290	-0.160	-0.520	0.500
2020/01/31 00:01:03.2	267.310	-0.180	-0.480	0.500
2020/01/31 00:01:03.3	267.330	-0.210	-0.440	0.490
2020/01/31 00:01:03.4	267.350	-0.230	-0.400	0.490
2020/01/31 00:01:03.5	267.380	-0.260	-0.360	0.480
2020/01/31 00:01:03.6	267.400	-0.280	-0.330	0.480
2020/01/31 00:01:03.7	267.420	-0.300	-0.290	0.480
2020/01/31 00:01:03.8	267.450	-0.320	-0.250	0.480
2020/01/31 00:01:03.9	267.460	-0.340	-0.220	0.480
2020/01/31 00:01:04.0	267.480	-0.360	-0.190	0.480
2020/01/31 00:01:04.1	267.500	-0.370	-0.160	0.480
2020/01/31 00:01:04.2	267.520	-0.390	-0.130	0.480
2020/01/31 00:01:04.3	267.550	-0.400	-0.100	0.480
2020/01/31 00:01:04.4	267.570	-0.410	-0.070	0.480
2020/01/31 00:01:04.5	267.590	-0.420	-0.040	0.490
2020/01/31 00:01:04.6	267.610	-0.430	-0.020	0.490
2020/01/31 00:01:04.7	267.630	-0.440	0.010	0.490
2020/01/31 00:01:04.8	267.650	-0.440	0.030	0.500
2020/01/31 00:01:04.9	267.670	-0.450	0.060	0.510
2020/01/31 00:01:05.0	267.690	-0.450	0.080	0.510
2020/01/31 00:01:05.1	267.710	-0.450	0.110	0.520
2020/01/31 00:01:05.2	267.730	-0.450	0.130	0.520
2020/01/31 00:01:05.3	267.750	-0.450	0.150	0.530
2020/01/31 00:01:05.4	267.770	-0.450	0.170	0.530
2020/01/31 00:01:05.5	267.790	-0.450	0.190	0.540
2020/01/31 00:01:05.6	267.810	-0.440	0.210	0.540
2020/01/31 00:01:05.7	267.830	-0.440	0.230	0.550
2020/01/31 00:01:05.8	267.850	-0.430	0.240	0.550
2020/01/31 00:01:05.9	267.870	-0.420	0.260	0.550
2020/01/31 00:01:06.0	267.900	-0.420	0.270	0.550
2020/01/31 00:01:06.1	267.920	-0.410	0.280	0.550
2020/01/31 00:01:06.2	267.940	-0.400	0.290	0.550
2020/01/31 00:01:06.3	267.960	-0.390	0.300	0.550
2020/01/31 00:01:06.4	267.990	-0.380	0.310	0.550
2020/01/31 00:01:06.5	268.010	-0.370	0.310	0.550
2020/01/31 00:01:06.6	268.030	-0.360	0.310	0.550
2020/01/31 00:01:06.7	268.060	-0.350	0.310	0.550
2020/01/31 00:01:06.8	268.080	-0.340	0.310	0.540
2020/01/31 00:01:06.9	268.100	-0.330	0.310	0.540
2020/01/31 00:01:07.0	268.120	-0.320	0.300	0.530
2020/01/31 00:01:07.1	268.140	-0.310	0.290	0.530
2020/01/31 00:01:07.2	268.160	-0.300	0.280	0.520
2020/01/31 00:01:07.3	268.180	-0.290	0.270	0.520
2020/01/31 00:01:07.4	268.200	-0.280	0.250	0.510
2020/01/31 00:01:07.5	268.220	-0.270	0.230	0.510
2020/01/31 00:01:07.6	268.230	-0.260	0.210	0.500
2020/01/31 00:01:07.7	268.250	-0.250	0.190	0.490
2020/01/31 00:01:07.8	268.260	-0.230	0.170	0.490
2020/01/31 00:01:07.9	268.270	-0.220	0.140	0.480
2020/01/31 00:01:08.0	268.280	-0.210	0.110	0.470
2020/01/31 00:01:08.1	268.290	-0.200	0.080	0.470
2020/01/31 00:01:08.2	268.300	-0.190	0.050	0.460
2020/01/31 00:01:08.3	268.300	-0.180	0.020	0.450
2020/01/31 00:01:08.4	268.310	-0.170	-0.010	0.450
2020/01/31 00:01:08.5	268.320	-0.150	-0.050	0.440
2020/01/31 00:01:08.6	268.320	-0.140	-0.080	0.440
2020/01/31 00:01:08.7	268.330	-0.130	-0.110	0.430
2020/01/31 00:01:08.8	268.330	-0.120	-0.150	0.430
2020/01/31 00:01:08.9	268.330	-0.100	-0.180	0.420
2020/01/31 00:01:09.0	268.340	-0.090	-0.220	0.420
2020/01/31 00:01:09.1	268.340	-0.080	-0.250	0.420
2020/01/31 00:01:09.2	268.340	-0.060	-0.280	0.420
2020/01/31 00:01:09.3	268.340	-0.050	-0.310	0.420
2020/01/31 00:01:09.4	268.340	-0.040	-0.340	0.420
2020/01/31 00:01:09.5	268.340	-0.020	-0.370	0.420
2020/01/31 00:01:09.6	268.340	-0.010	-0.400	0.420
2020/01/31 00:01:09.7	268.340	0.010	-0.430	0.430
2020/01/31 00:01:09.8	268.340	0.020	-0.460	0.430
2020/01/31 00:01:09.9	268.340	0.040	-0.480	0.440
2020/01/31 00:01:10.0	268.340	0.050	-0.510	0.450
2020/01/31 00:01:10.1	268.340	0.070	-0.530	0.460
2020/01/31 00:01:10.2	268.340	0.090	-0.550	0.470
2020/01/31 00:01:10.3	268.340	0.100	-0.570	0.490
2020/01/31 00:01:10.4	268.330	0.120	-0.590	0.500
2020/01/31 00:01:10.5	268.330	0.130	-0.610	0.520
2020/01/31 00:01:10.6	268.330	0.150	-0.620	0.530
2020/01/31 00:01:10.7	268.330	0.160	-0.640	0.550
2020/01/31 00:01:10.8	268.320	0.180	-0.650	0.570
2020/01/31 00:01:10.9	268.320	0.190	-0.660	0.580
2020/01/31 00:01:11.0	268.320	0.200	-0.670	0.600
2020/01/31 00:01:11.1	268.310	0.220	-0.680	0.620
2020/01/31 00:01:11.2	268.300	0.230	-0.690	0.640
2020/01/31 00:01:11.3	268.290	0.240	-0.690	0.660
2020/01/31 00:01:11.4	268.280	0.250	-0.700	0.690
2020/01/31 00:01:11.5	268.270	0.260	-0.700	0.710
2020/01/31 00:01:11.6	268.260	0.270	-0.700	0.730
2020/01/31 00:01:11.7	268.250	0.280	-0.700	0.750
2020/01/31 00:01:11.8	268.240	0.290	-0.700	0.770
2020/01/31 00:01:11.9	268.210	0.300	-0.690	0.800
2020/01/31 00:01:12.0	268.200	0.310	-0.690	0.820
2020/01/31 00:01:12.1	268.180	0.310	-0.690	0.840
2020/01/31 00:01:12.2	268.160	0.320	-0.680	0.850
2020/01/31 00:01:12.3	268.140	0.320	-0.670	0.870
2020/01/31 00:01:12.4	268.120	0.320	-0.670	0.890
2020/01/31 00:01:12.5	268.100	0.330	-0.660	0.900
2020/01/31 00:01:12.6	268.080	0.330	-0.650	0.920
2020/01/31 00:01:12.7	268.060	0.330	-0.640	0.930
2020/01/31 00:01:12.8	268.030	0.330	-0.630	0.940
2020/01/31 00:01:12.9	268.010	0.330	-0.620	0.960
2020/01/31 00:01:13.0	267.980	0.330	-0.600	0.960
2020/01/31 00:01:13.1	267.960	0.320	-0.590	0.970
2020/01/31 00:01:13.2	267.930	0.320	-0.580	0.980
2020/01/31 00:01:13.3	267.900	0.310	-0.570	0.990
2020/01/31 00:01:13.4	267.870	0.310	-0.560	1.000
2020/01/31 00:01:13.5	267.840	0.300	-0.550	1.010
2020/01/31 00:01:13.6	267.810	0.290	-0.540	1.010
2020/01/31 00:01:13.7	267.780	0.280	-0.530	1.020
2020/01/31 00:01:13.8	267.750	0.270	-0.520	1.020
2020/01/31 00:01:13.9	267.720	0.260	-0.510	1.030
2020/01/31 00:01:14.0	267.690	0.250	-0.500	1.030
2020/01/31 00:01:14.1	267.660	0.240	-0.490	1.040
2020/01/31 00:01:14.2	267.630	0.220	-0.480	1.040
2020/01/31 00:01:14.3	267.590	0.210	-0.470	1.040
2020/01/31 00:01:14.4	267.560	0.200	-0.460	1.050
2020/01/31 00:01:14.5	267.530	0.180	-0.450	1.050
2020/01/31 00:01:14.6	267.500	0.170	-0.440	1.040
2020/01/31 00:01:14.7	267.470	0.150	-0.430	1.040
2020/01/31 00:01:14.8	267.450	0.140	-0.430	1.030
2020/01/31 00:01:14.9	267.410	0.120	-0.410	1.030
2020/01/31 00:01:15.0	267.390	0.110	-0.410	1.020
2020/01/31 00:01:15.1	267.370	0.100	-0.400	1.010
2020/01/31 00:01:15.2	267.350	0.080	-0.390	0.990
2020/01/31 00:01:15.3	267.330	0.070	-0.380	0.980
2020/01/31 00:01:15.4	267.310	0.060	-0.380	0.960
2020/01/31 00:01:15.5	267.290	0.050	-0.370	0.940
2020/01/31 00:01:15.6	267.280	0.030	-0.360	0.920
2020/01/31 00:01:15.7	267.270	0.030	-0.360	0.890
2020/01/31 00:01:15.8	267.270	0.020	-0.350	0.870
2020/01/31 00:01:15.9	267.260	0.010	-0.350	0.840
2020/01/31 00:01:16.0	267.260	0.000	-0.340	0.800
2020/01/31 00:01:16.1	267.260	-0.000	-0.330	0.780
2020/01/31 00:01:16.2	267.260	-0.000	-0.330	0.750
2020/01/31 00:01:16.3	267.260	-0.010	-0.320	0.720
2020/01/31 00:01:16.4	267.270	-0.010	-0.320	0.690
2020/01/31 00:01:16.5	267.280	-0.010	-0.320	0.660
2020/01/31 00:01:16.6	267.290	-0.010	-0.310	0.630
2020/01/31 00:01:16.7	267.300	-0.000	-0.300	0.600
2020/01/31 00:01:16.8	267.310	-0.000	-0.300	0.570
2020/01/31 00:01:16.9	267.330	0.000	-0.290	0.540
2020/01/31 00:01:17.0	267.350	0.010	-0.290	0.520
2020/01/31 00:01:17.1	267.370	0.010	-0.280	0.490
2020/01/31 00:01:17.2	267.400	0.020	-0.270	0.460
2020/01/31 00:01:17.3	267.420	0.030	-0.260	0.440
2020/01/31 00:01:17.4	267.450	0.030	-0.250	0.410
2020/01/31 00:01:17.5	267.480	0.040	-0.240	0.390
2020/01/31 00:01:17.6	267.510	0.050	-0.230	0.360
2020/01/31 00:01:17.7	267.540	0.050	-0.220	0.340
2020/01/31 00:01:17.8	267.580	0.060	-0.210	0.320
2020/01/31 00:01:17.9	267.610	0.070	-0.200	0.290
2020/01/31 00:01:18.0	267.650	0.080	-0.180	0.270
2020/01/31 00:01:18.1	267.690	0.080	-0.170	0.260
2020/01/31 00:01:18.2	267.730	0.090	-0.160	0.240
2020/01/31 00:01:18.3	267.780	0.090	-0.140	0.230
2020/01/31 00:01:18.4	267.820	0.100	-0.130	0.220
2020/01/31 00:01:18.5	267.870	0.100	-0.120	0.210
2020/01/31 00:01:18.6	267.920	0.110	-0.100	0.200
2020/01/31 00:01:18.7	267.970	0.110	-0.090	0.190
2020/01/31 00:01:18.8	268.020	0.110	-0.080	0.190
2020/01/31 00:01:18.9	268.070	0.110	-0.070	0.190
2020/01/31 00:01:19.0	268.120	0.110	-0.050	0.190
2020/01/31 00:01:19.1	268.170	0.110	-0.040	0.200
2020/01/31 00:01:19.2	268.220	0.110	-0.030	0.210
2020/01/31 00:01:19.3	268.270	0.110	-0.020	0.220
2020/01/31 00:01:19.4	268.320	0.100	-0.010	0.230
2020/01/31 00:01:19.5	268.360	0.100	-0.000	0.240
2020/01/31 00:01:19.6	268.410	0.090	0.010	0.260
2020/01/31 00:01:19.7	268.460	0.090	0.010	0.280
2020/01/31 00:01:19.8	268.500	0.080	0.020	0.300
2020/01/31 00:01:19.9	268.540	0.070	0.020	0.320
2020/01/31 00:01:20.0	268.570	0.060	0.030	0.350
2020/01/31 00:01:20.1	268.610	0.050	0.030	0.380
2020/01/31 00:01:20.2	268.640	0.040	0.040	0.400
2020/01/31 00:01:20.3	268.670	0.020	0.040	0.430
2020/01/31 00:01:20.4	268.700	0.010	0.040	0.460
2020/01/31 00:01:20.5	268.730	-0.010	0.040	0.490
2020/01/31 00:01:20.6	268.760	-0.020	0.040	0.520
2020/01/31 00:01:20.7	268.780	-0.040	0.030	0.550
2020/01/31 00:01:20.8	268.800	-0.060	0.030	0.580
2020/01/31 00:01:20.9	268.830	-0.080	0.030	0.610
2020/01/31 00:01:21.0	268.840	-0.100	0.030	0.630
2020/01/31 00:01:21.1	268.850	-0.120	0.020	0.660
2020/01/31 00:01:21.2	268.870	-0.140	0.020	0.680
2020/01/31 00:01:21.3	268.870	-0.160	0.020	0.700
2020/01/31 00:01:21.4	268.880	-0.180	0.020	0.720
2020/01/31 00:01:21.5	268.880	-0.200	0.010	0.740
2020/01/31 00:01:21.6	268.880	-0.230	0.010	0.760
2020/01/31 00:01:21.7	268.880	-0.250	0.010	0.780
2020/01/31 00:01:21.8	268.880	-0.270	0.010	0.800
2020/01/31 00:01:21.9	268.870	-0.290	0.000	0.820
2020/01/31 00:01:22.0	268.870	-0.310	-0.000	0.830
2020/01/31 00:01:22.1	268.860	-0.330	-0.000	0.840
2020/01/31 00:01:22.2	268.850	-0.350	-0.010	0.850
2020/01/31 00:01:22.3	268.830	-0.370	-0.010	0.870
2020/01/31 00:01:22.4	268.820	-0.390	-0.020	0.870
2020/01/31 00:01:22.5	268.800	-0.410	-0.020	0.880
2020/01/31 00:01:22.6	268.790	-0.430	-0.030	0.890
2020/01/31 00:01:22.7	268.770	-0.440	-0.040	0.890
2020/01/31 00:01:22.8	268.750	-0.450	-0.050	0.890
2020/01/31 00:01:22.9	268.730	-0.460	-0.070	0.890
2020/01/31 00:01:23.0	268.710	-0.470	-0.080	0.890
2020/01/31 00:01:23.1	268.690	-0.480	-0.100	0.880
2020/01/31 00:01:23.2	268.670	-0.490	-0.120	0.880
2020/01/31 00:01:23.3	268.650	-0.490	-0.140	0.870
2020/01/31 00:01:23.4	268.630	-0.490	-0.160	0.860
2020/01/31 00:01:23.5	268.620	-0.490	-0.190	0.850
2020/01/31 00:01:23.6	268.600	-0.480	-0.220	0.830
2020/01/31 00:01:23.7	268.580	-0.480	-0.250	0.820
2020/01/31 00:01:23.8	268.560	-0.470	-0.280	0.800
2020/01/31 00:01:23.9	268.540	-0.460	-0.320	0.780
2020/01/31 00:01:24.0	268.530	-0.440	-0.360	0.760
2020/01/31 00:01:24.1	268.510	-0.430	-0.400	0.740
2020/01/31 00:01:24.2	268.490	-0.410	-0.440	0.720
2020/01/31 00:01:24.3	268.480	-0.390	-0.480	0.700
2020/01/31 00:01:24.4	268.460	-0.370	-0.520	0.680
2020/01/31 00:01:24.5	268.440	-0.340	-0.560	0.660
2020/01/31 00:01:24.6	268.420	-0.320	-0.600	0.640
2020/01/31 00:01:24.7	268.410	-0.290	-0.640	0.620
2020/01/31 00:01:24.8	268.390	-0.260	-0.680	0.610
2020/01/31 00:01:24.9	268.370	-0.230	-0.720	0.590
2020/01/31 00:01:25.0	268.350	-0.200	-0.760	0.580
2020/01/31 00:01:25.1	268.340	-0.170	-0.800	0.570
2020/01/31 00:01:25.2	268.320	-0.130	-0.830	0.560
2020/01/31 00:01:25.3	268.300	-0.100	-0.860	0.550
2020/01/31 00:01:25.4	268.290	-0.060	-0.890	0.540
2020/01/31 00:01:25.5	268.270	-0.030	-0.920	0.530
2020/01/31 00:01:25.6	268.250	0.010	-0.940	0.520
2020/01/31 00:01:25.7	268.240	0.040	-0.970	0.520
2020/01/31 00:01:25.8	268.220	0.070	-0.980	0.520
2020/01/31 00:01:25.9	268.210	0.110	-1.000	0.520
2020/01/31 00:01:26.0	268.190	0.140	-1.020	0.520
2020/01/31 00:01:26.1	268.180	0.170	-1.020	0.520
2020/01/31 00:01:26.2	268.160	0.200	-1.030	0.520
2020/01/31 00:01:26.3	268.150	0.230	-1.030	0.530
2020/01/31 00:01:26.4	268.130	0.250	-1.030	0.530
2020/01/31 00:01:26.5	268.120	0.280	-1.020	0.540
2020/01/31 00:01:26.6	268.100	0.300	-1.020	0.550
2020/01/31 00:01:26.7	268.080	0.320	-1.010	0.560
2020/01/31 00:01:26.8	268.070	0.340	-0.990	0.580
2020/01/31 00:01:26.9	268.050	0.360	-0.980	0.590
2020/01/31 00:01:27.0	268.030	0.370	-0.950	0.610
2020/01/31 00:01:27.1	268.010	0.380	-0.930	0.630
2020/01/31 00:01:27.2	267.990	0.390	-0.910	0.660
2020/01/31 00:01:27.3	267.970	0.400	-0.880	0.680
2020/01/31 00:01:27.4	267.950	0.410	-0.860	0.700
2020/01/31 00:01:27.5	267.930	0.410	-0.830	0.730
2020/01/31 00:01:27.6	267.910	0.410	-0.800	0.750
2020/01/31 00:01:27.7	267.890	0.410	-0.770	0.780
2020/01/31 00:01:27.8	267.870	0.410	-0.740	0.800
2020/01/31 00:01:27.9	267.860	0.410	-0.710	0.830
2020/01/31 00:01:28.0	267.840	0.400	-0.680	0.850
2020/01/31 00:01:28.1	267.820	0.400	-0.650	0.870
2020/01/31 00:01:28.2	267.800	0.390	-0.620	0.890
2020/01/31 00:01:28.3	267.780	0.380	-0.590	0.900
2020/01/31 00:01:28.4	267.770	0.360	-0.560	0.920
2020/01/31 00:01:28.5	267.750	0.350	-0.540	0.930
2020/01/31 00:01:28.6	267.730	0.340	-0.510	0.940
2020/01/31 00:01:28.7	267.720	0.320	-0.480	0.950
2020/01/31 00:01:28.8	267.710	0.310	-0.460	0.960
2020/01/31 00:01:28.9	267.690	0.290	-0.430	0.970
2020/01/31 00:01:29.0	267.680	0.270	-0.400	0.970
2020/01/31 00:01:29.1	267.670	0.260	-0.380	0.970
2020/01/31 00:01:29.2	267.660	0.240	-0.360	0.970
2020/01/31 00:01:29.3	267.650	0.220	-0.330	0.970
2020/01/31 00:01:29.4	267.640	0.200	-0.310	0.970
2020/01/31 00:01:29.5	267.640	0.180	-0.290	0.960
2020/01/31 00:01:29.6	267.640	0.160	-0.270	0.960
2020/01/31 00:01:29.7	267.630	0.140	-0.240	0.950
2020/01/31 00:01:29.8	267.640	0.120	-0.220	0.930
2020/01/31 00:01:29.9	267.640	0.100	-0.200	0.920
2020/01/31 00:01:30.0	267.640	0.080	-0.180	0.900
2020/01/31 00:01:30.1	267.650	0.060	-0.160	0.880
2020/01/31 00:01:30.2	267.660	0.040	-0.130	0.860
2020/01/31 00:01:30.3	267.670	0.020	-0.110	0.840
2020/01/31 00:01:30.4	267.680	0.000	-0.090	0.810
2020/01/31 00:01:30.5	267.690	-0.010	-0.070	0.780
2020/01/31 00:01:30.6	267.710	-0.030	-0.040	0.750
2020/01/31 00:01:30.7	267.730	-0.050	-0.020	0.720
2020/01/31 00:01:30.8	267.740	-0.060	0.000	0.690
2020/01/31 00:01:30.9	267.760	-0.080	0.030	0.660
2020/01/31 00:01:31.0	267.770	-0.090	0.050	0.630
2020/01/31 00:01:31.1	267.800	-0.110	0.070	0.600
2020/01/31 00:01:31.2	267.820	-0.120	0.100	0.570
2020/01/31 00:01:31.3	267.840	-0.130	0.120	0.550
2020/01/31 00:01:31.4	267.860	-0.140	0.140	0.520
2020/01/31 00:01:31.5	267.890	-0.150	0.170	0.500
2020/01/31 00:01:31.6	267.910	-0.160	0.190	0.480
2020/01/31 00:01:31.7	267.940	-0.160	0.210	0.460
2020/01/31 00:01:31.8	267.960	-0.170	0.230	0.450
2020/01/31 00:01:31.9	267.990	-0.180	0.250	0.430
2020/01/31 00:01:32.0	268.010	-0.180	0.260	0.420
2020/01/31 00:01:32.1	268.040	-0.180	0.280	0.420
2020/01/31 00:01:32.2	268.060	-0.180	0.300	0.420
2020/01/31 00:01:32.3	268.080	-0.180	0.310	0.420
2020/01/31 00:01:32.4	268.100	-0.180	0.320	0.420
2020/01/31 00:01:32.5	268.130	-0.180	0.330	0.430
2020/01/31 00:01:32.6	268.150	-0.180	0.340	0.440
2020/01/31 00:01:32.7	268.170	-0.180	0.350	0.450
2020/01/31 00:01:32.8	268.190	-0.170	0.350	0.470
2020/01/31 00:01:32.9	268.200	-0.170	0.360	0.490
2020/01/31 00:01:33.0	268.220	-0.160	0.360	0.510
2020/01/31 00:01:33.1	268.230	-0.150	0.360	0.530
2020/01/31 00:01:33.2	268.250	-0.150	0.360	0.560
2020/01/31 00:01:33.3	268.270	-0.140	0.360	0.590
2020/01/31 00:01:33.4	268.290	-0.130	0.350	0.620
2020/01/31 00:01:33.5	268.310	-0.120	0.350	0.640
2020/01/31 00:01:33.6	268.320	-0.110	0.340	0.670
2020/01/31 00:01:33.7	268.340	-0.100	0.330	0.700
2020/01/31 00:01:33.8	268.360	-0.090	0.320	0.730
2020/01/31 00:01:33.9	268.380	-0.080	0.300	0.750
2020/01/31 00:01:34.0	268.400	-0.070	0.290	0.780
2020/01/31 00:01:34.1	268.420	-0.060	0.270	0.800
2020/01/31 00:01:34.2	268.430	-0.050	0.250	0.820
2020/01/31 00:01:34.3	268.450	-0.040	0.230	0.840
2020/01/31 00:01:34.4	268.470	-0.030	0.210	0.860
2020/01/31 00:01:34.5	268.490	-0.020	0.180	0.870
2020/01/31 00:01:34.6	268.500	-0.000	0.160	0.890
2020/01/31 00:01:34.7	268.520	0.010	0.130	0.900
2020/01/31 00:01:34.8	268.540	0.020	0.100	0.910
2020/01/31 00:01:34.9	268.550	0.030	0.060	0.920
2020/01/31 00:01:35.0	268.570	0.050	0.020	0.930
2020/01/31 00:01:35.1	268.590	0.060	-0.010	0.930
2020/01/31 00:01:35.2	268.600	0.070	-0.050	0.940
2020/01/31 00:01:35.3	268.620	0.090	-0.090	0.940
2020/01/31 00:01:35.4	268.640	0.100	-0.130	0.940
2020/01/31 00:01:35.5	268.650	0.120	-0.170	0.940
2020/01/31 00:01:35.6	268.670	0.130	-0.210	0.940
2020/01/31 00:01:35.7	268.690	0.140	-0.260	0.940
2020/01/31 00:01:35.8	268.700	0.160	-0.300	0.940
2020/01/31 00:01:35.9	268.710	0.170	-0.340	0.930
2020/01/31 00:01:36.0	268.720	0.180	-0.380	0.930
2020/01/31 00:01:36.1	268.740	0.190	-0.420	0.920
2020/01/31 00:01:36.2	268.750	0.200	-0.460	0.920
2020/01/31 00:01:36.3	268.770	0.220	-0.500	0.910
2020/01/31 00:01:36.4	268.780	0.230	-0.540	0.900
2020/01/31 00:01:36.5	268.800	0.240	-0.580	0.890
2020/01/31 00:01:36.6	268.810	0.250	-0.610	0.880
2020/01/31 00:01:36.7	268.820	0.250	-0.650	0.880
2020/01/31 00:01:36.8	268.830	0.260	-0.680	0.870
2020/01/31 00:01:36.9	268.840	0.270	-0.710	0.860
2020/01/31 00:01:37.0	268.860	0.270	-0.730	0.850
2020/01/31 00:01:37.1	268.870	0.280	-0.760	0.840
2020/01/31 00:01:37.2	268.880	0.280	-0.780	0.830
2020/01/31 00:01:37.3	268.890	0.290	-0.800	0.820
2020/01/31 00:01:37.4	268.890	0.290	-0.820	0.810
2020/01/31 00:01:37.5	268.900	0.290	-0.840	0.800
2020/01/31 00:01:37.6	268.910	0.290	-0.850	0.790
2020/01/31 00:01:37.7	268.910	0.290	-0.860	0.780
2020/01/31 00:01:37.8	268.910	0.280	-0.870	0.770
2020/01/31 00:01:37.9	268.920	0.280	-0.880	0.760
2020/01/31 00:01:38.0	268.920	0.270	-0.880	0.750
2020/01/31 00:01:38.1	268.920	0.270	-0.890	0.740
2020/01/31 00:01:38.2	268.920	0.260	-0.890	0.730
2020/01/31 00:01:38.3	268.920	0.260	-0.880	0.720
2020/01/31 00:01:38.4	268.920	0.250	-0.880	0.710
2020/01/31 00:01:38.5	268.920	0.240	-0.880	0.690
2020/01/31 00:01:38.6	268.910	0.230	-0.870	0.680
2020/01/31 00:01:38.7	268.900	0.220	-0.860	0.670
2020/01/31 00:01:38.8	268.900	0.210	-0.850	0.650
2020/01/31 00:01:38.9	268.890	0.200	-0.840	0.640
2020/01/31 00:01:39.0	268.880	0.180	-0.830	0.620
2020/01/31 00:01:39.1	268.870	0.170	-0.810	0.610
2020/01/31 00:01:39.2	268.860	0.160	-0.800	0.590
2020/01/31 00:01:39.3	268.850	0.140	-0.780	0.570
2020/01/31 00:01:39.4	268.840	0.130	-0.770	0.550
2020/01/31 00:01:39.5	268.820	0.110	-0.750	0.530
2020/01/31 00:01:39.6	268.810	0.100	-0.730	0.510
2020/01/31 00:01:39.7	268.790	0.080	-0.710	0.500
2020/01/31 00:01:39.8	268.780	0.070	-0.690	0.480
2020/01/31 00:01:39.9	268.760	0.050	-0.670	0.460
2020/01/31 00:01:40.0	268.740	0.030	-0.650	0.430
2020/01/31 00:01:40.1	268.720	0.010	-0.630	0.410
2020/01/31 00:01:40.2	268.710	-0.010	-0.610	0.390
2020/01/31 00:01:40.3	268.690	-0.030	-0.590	0.370
2020/01/31 00:01:40.4	268.670	-0.050	-0.570	0.350
2020/01/31 00:01:40.5	268.650	-0.070	-0.560	0.330
2020/01/31 00:01:40.6	268.630	-0.090	-0.540	0.310
2020/01/31 00:01:40.7	268.610	-0.110	-0.520	0.290
2020/01/31 00:01:40.8	268.600	-0.140	-0.500	0.270
2020/01/31 00:01:40.9	268.580	-0.160	-0.490	0.250
2020/01/31 00:01:41.0	268.570	-0.180	-0.470	0.220
2020/01/31 00:01:41.1	268.560	-0.210	-0.460	0.200
2020/01/31 00:01:41.2	268.540	-0.230	-0.440	0.180
2020/01/31 00:01:41.3	268.530	-0.250	-0.430	0.160
2020/01/31 00:01:41.4	268.520	-0.270	-0.420	0.140
2020/01/31 00:01:41.5	268.510	-0.300	-0.400	0.120
2020/01/31 00:01:41.6	268.500	-0.320	-0.390	0.100
2020/01/31 00:01:41.7	268.490	-0.340	-0.380	0.080
2020/01/31 00:01:41.8	268.480	-0.360	-0.380	0.060
2020/01/31 00:01:41.9	268.480	-0.380	-0.370	0.040
2020/01/31 00:01:42.0	268.470	-0.400	-0.360	0.020
2020/01/31 00:01:42.1	268.470	-0.420	-0.360	0.000
2020/01/31 00:01:42.2	268.460	-0.430	-0.350	-0.010
2020/01/31 00:01:42.3	268.460	-0.450	-0.350	-0.030
2020/01/31 00:01:42.4	268.460	-0.460	-0.350	-0.050
2020/01/31 00:01:42.5	268.460	-0.480	-0.340	-0.060
2020/01/31 00:01:42.6	268.460	-0.490	-0.340	-0.070
2020/01/31 00:01:42.7	268.460	-0.500	-0.340	-0.090
2020/01/31 00:01:42.8	268.470	-0.510	-0.330	-0.100
2020/01/31 00:01:42.9	268.470	-0.510	-0.330	-0.100
2020/01/31 00:01:43.0	268.470	-0.520	-0.330	-0.110
2020/01/31 00:01:43.1	268.480	-0.520	-0.320	-0.120
2020/01/31 00:01:43.2	268.480	-0.520	-0.320	-0.120
2020/01/31 00:01:43.3	268.490	-0.520	-0.320	-0.120
2020/01/31 00:01:43.4	268.500	-0.510	-0.310	-0.120
2020/01/31 00:01:43.5	268.510	-0.510	-0.310	-0.120
2020/01/31 00:01:43.6	268.520	-0.500	-0.300	-0.120
2020/01/31 00:01:43.7	268.530	-0.490	-0.300	-0.120
2020/01/31 00:01:43.8	268.540	-0.480	-0.290	-0.110
2020/01/31 00:01:43.9	268.550	-0.470	-0.280	-0.100
2020/01/31 00:01:44.0	268.570	-0.460	-0.270	-0.090
2020/01/31 00:01:44.1	268.580	-0.440	-0.260	-0.070
2020/01/31 00:01:44.2	268.600	-0.420	-0.250	-0.060
2020/01/31 00:01:44.3	268.610	-0.400	-0.240	-0.040
2020/01/31 00:01:44.4	268.620	-0.390	-0.230	-0.010
2020/01/31 00:01:44.5	268.630	-0.360	-0.220	0.010
2020/01/31 00:01:44.6	268.640	-0.340	-0.200	0.040
2020/01/31 00:01:44.7	268.650	-0.320	-0.190	0.070
2020/01/31 00:01:44.8	268.670	-0.300	-0.170	0.100
2020/01/31 00:01:44.9	268.670	-0.270	-0.160	0.130
2020/01/31 00:01:45.0	268.680	-0.250	-0.140	0.170
2020/01/31 00:01:45.1	268.690	-0.220	-0.120	0.210
2020/01/31 00:01:45.2	268.700	-0.200	-0.100	0.250
2020/01/31 00:01:45.3	268.710	-0.170	-0.080	0.300
2020/01/31 00:01:45.4	268.720	-0.150	-0.070	0.340
2020/01/31 00:01:45.5	268.730	-0.120	-0.050	0.390
2020/01/31 00:01:45.6	268.740	-0.100	-0.030	0.440
2020/01/31 00:01:45.7	268.740	-0.070	-0.010	0.490
2020/01/31 00:01:45.8	268.750	-0.050	0.010	0.540
2020/01/31 00:01:45.9	268.750	-0.030	0.030	0.590
2020/01/31 00:01:46.0	268.760	-0.000	0.050	0.650
2020/01/31 00:01:46.1	268.760	0.020	0.060	0.700
2020/01/31 00:01:46.2	268.770	0.040	0.080	0.760
2020/01/31 00:01:46.3	268.770	0.060	0.090	0.810
2020/01/31 00:01:46.4	268.780	0.080	0.100	0.870
2020/01/31 00:01:46.5	268.780	0.100	0.120	0.930
2020/01/31 00:01:46.6	268.780	0.120	0.120	0.980
2020/01/31 00:01:46.7	268.780	0.130	0.130	1.030
2020/01/31 00:01:46.8	268.780	0.150	0.140	1.090
2020/01/31 00:01:46.9	268.780	0.160	0.140	1.140
2020/01/31 00:01:47.0	268.770	0.180	0.140	1.200
2020/01/31 00:01:47.1	268.770	0.190	0.140	1.250
2020/01/31 00:01:47.2	268.770	0.210	0.140	1.290
2020/01/31 00:01:47.3	268.770	0.220	0.130	1.340
2020/01/31 00:01:47.4	268.770	0.230	0.130	1.380
2020/01/31 00:01:47.5	268.760	0.240	0.120	1.430
2020/01/31 00:01:47.6	268.760	0.250	0.110	1.460
2020/01/31 00:01:47.7	268.750	0.260	0.090	1.500
2020/01/31 00:01:47.8	268.750	0.270	0.080	1.530
2020/01/31 00:01:47.9	268.740	0.280	0.060	1.560
2020/01/31 00:01:48.0	268.730	0.290	0.040	1.580
2020/01/31 00:01:48.1	268.720	0.300	0.030	1.600
2020/01/31 00:01:48.2	268.710	0.310	0.000	1.620
2020/01/31 00:01:48.3	268.710	0.320	-0.020	1.640
2020/01/31 00:01:48.4	268.700	0.330	-0.040	1.650
2020/01/31 00:01:48.5	268.690	0.340	-0.060	1.660
2020/01/31 00:01:48.6	268.690	0.350	-0.090	1.660
2020/01/31 00:01:48.7	268.680	0.350	-0.110	1.660
2020/01/31 00:01:48.8	268.680	0.360	-0.130	1.660
2020/01/31 00:01:48.9	268.670	0.370	-0.160	1.660
2020/01/31 00:01:49.0	268.660	0.380	-0.180	1.650
2020/01/31 00:01:49.1	268.660	0.390	-0.210	1.630
2020/01/31 00:01:49.2	268.650	0.400	-0.230	1.620
2020/01/31 00:01:49.3	268.650	0.400	-0.250	1.600
2020/01/31 00:01:49.4	268.650	0.410	-0.280	1.580
2020/01/31 00:01:49.5	268.650	0.420	-0.300	1.550
2020/01/31 00:01:49.6	268.650	0.430	-0.320	1.530
2020/01/31 00:01:49.7	268.640	0.440	-0.340	1.500
2020/01/31 00:01:49.8	268.650	0.440	-0.360	1.470
2020/01/31 00:01:49.9	268.640	0.450	-0.380	1.430
2020/01/31 00:01:50.0	268.640	0.460	-0.390	1.400
2020/01/31 00:01:50.1	268.640	0.460	-0.410	1.360
2020/01/31 00:01:50.2	268.640	0.470	-0.420	1.330
2020/01/31 00:01:50.3	268.650	0.470	-0.430	1.290
2020/01/31 00:01:50.4	268.650	0.480	-0.440	1.250
2020/01/31 00:01:50.5	268.650	0.480	-0.450	1.210
2020/01/31 00:01:50.6	268.650	0.480	-0.460	1.170
2020/01/31 00:01:50.7	268.660	0.480	-0.460	1.130
2020/01/31 00:01:50.8	268.660	0.480	-0.460	1.090
2020/01/31 00:01:50.9	268.660	0.480	-0.470	1.040
2020/01/31 00:01:51.0	268.650	0.470	-0.470	1.010
2020/01/31 00:01:51.1	268.650	0.470	-0.470	0.960
2020/01/31 00:01:51.2	268.660	0.460	-0.470	0.920
2020/01/31 00:01:51.3	268.660	0.460	-0.470	0.880
2020/01/31 00:01:51.4	268.670	0.450	-0.470	0.840
2020/01/31 00:01:51.5	268.670	0.440	-0.470	0.790
2020/01/31 00:01:51.6	268.670	0.420	-0.460	0.750
2020/01/31 00:01:51.7	268.680	0.410	-0.460	0.710
2020/01/31 00:01:51.8	268.680	0.400	-0.460	0.670
2020/01/31 00:01:51.9	268.680	0.380	-0.450	0.630
2020/01/31 00:01:52.0	268.680	0.360	-0.450	0.590
2020/01/31 00:01:52.1	268.680	0.340	-0.450	0.550
2020/01/31 00:01:52.2	268.680	0.320	-0.450	0.520
2020/01/31 00:01:52.3	268.680	0.300	-0.450	0.480
2020/01/31 00:01:52.4	268.680	0.280	-0.450	0.450
2020/01/31 00:01:52.5	268.680	0.260	-0.450	0.420
2020/01/31 00:01:52.6	268.680	0.240	-0.450	0.390
2020/01/31 00:01:52.7	268.680	0.210	-0.450	0.360
2020/01/31 00:01:52.8	268.680	0.190	-0.450	0.340
2020/01/31 00:01:52.9	268.690	0.160	-0.460	0.320
2020/01/31 00:01:53.0	268.690	0.140	-0.460	0.310
2020/01/31 00:01:53.1	268.680	0.110	-0.470	0.290
2020/01/31 00:01:53.2	268.680	0.090	-0.480	0.280
2020/01/31 00:01:53.3	268.680	0.070	-0.480	0.270
2020/01/31 00:01:53.4	268.680	0.040	-0.490	0.260
2020/01/31 00:01:53.5	268.670	0.020	-0.500	0.260
2020/01/31 00:01:53.6	268.670	-0.010	-0.510	0.250
2020/01/31 00:01:53.7	268.670	-0.030	-0.520	0.250
2020/01/31 00:01:53.8	268.660	-0.050	-0.520	0.260
2020/01/31 00:01:53.9	268.670	-0.080	-0.530	0.260
2020/01/31 00:01:54.0	268.660	-0.100	-0.540	0.260
2020/01/31 00:01:54.1	268.660	-0.120	-0.550	0.270
2020/01/31 00:01:54.2	268.660	-0.140	-0.550	0.280
2020/01/31 00:01:54.3	268.660	-0.160	-0.560	0.290
2020/01/31 00:01:54.4	268.660	-0.180	-0.560	0.300
2020/01/31 00:01:54.5	268.660	-0.190	-0.560	0.320
2020/01/31 00:01:54.6	268.660	-0.210	-0.570	0.330
2020/01/31 00:01:54.7	268.660	-0.230	-0.570	0.340
2020/01/31 00:01:54.8	268.660	-0.240	-0.570	0.360
2020/01/31 00:01:54.9	268.660	-0.260	-0.560	0.370
2020/01/31 00:01:55.0	268.680	-0.270	-0.560	0.390
2020/01/31 00:01:55.1	268.680	-0.280	-0.550	0.400
2020/01/31 00:01:55.2	268.690	-0.290	-0.550	0.410
2020/01/31 00:01:55.3	268.690	-0.300	-0.540	0.420
2020/01/31 00:01:55.4	268.690	-0.310	-0.530	0.440
2020/01/31 00:01:55.5	268.700	-0.320	-0.520	0.450
2020/01/31 00:01:55.6	268.700	-0.330	-0.510	0.460
2020/01/31 00:01:55.7	268.700	-0.340	-0.500	0.470
2020/01/31 00:01:55.8	268.700	-0.350	-0.490	0.480
2020/01/31 00:01:55.9	268.710	-0.350	-0.480	0.490
2020/01/31 00:01:56.0	268.720	-0.360	-0.460	0.500
2020/01/31 00:01:56.1	268.720	-0.360	-0.450	0.510
2020/01/31 00:01:56.2	268.720	-0.370	-0.440	0.520
2020/01/31 00:01:56.3	268.720	-0.370	-0.420	0.530
2020/01/31 00:01:56.4	268.710	-0.370	-0.410	0.530
2020/01/31 00:01:56.5	268.710	-0.370	-0.390	0.540
2020/01/31 00:01:56.6	268.710	-0.380	-0.380	0.550
2020/01/31 00:01:56.7	268.700	-0.380	-0.360	0.560
2020/01/31 00:01:56.8	268.700	-0.380	-0.350	0.570
2020/01/31 00:01:56.9	268.690	-0.380	-0.330	0.580
2020/01/31 00:01:57.0	268.690	-0.380	-0.320	0.590
2020/01/31 00:01:57.1	268.680	-0.380	-0.300	0.600
2020/01/31 00:01:57.2	268.670	-0.370	-0.290	0.600
2020/01/31 00:01:57.3	268.660	-0.370	-0.270	0.610
2020/01/31 00:01:57.4	268.650	-0.370	-0.260	0.620
2020/01/31 00:01:57.5	268.640	-0.370	-0.250	0.630
2020/01/31 00:01:57.6	268.620	-0.360	-0.240	0.640
2020/01/31 00:01:57.7	268.610	-0.360	-0.220	0.640
2020/01/31 00:01:57.8	268.600	-0.360	-0.210	0.650
2020/01/31 00:01:57.9	268.580	-0.350	-0.200	0.660
2020/01/31 00:01:58.0	268.570	-0.340	-0.190	0.660
2020/01/31 00:01:58.1	268.560	-0.340	-0.180	0.670
2020/01/31 00:01:58.2	268.540	-0.330	-0.170	0.670
2020/01/31 00:01:58.3	268.530	-0.320	-0.160	0.670
2020/01/31 00:01:58.4	268.510	-0.320	-0.160	0.680
2020/01/31 00:01:58.5	268.500	-0.310	-0.150	0.680
2020/01/31 00:01:58.6	268.480	-0.300	-0.140	0.680
2020/01/31 00:01:58.7	268.470	-0.290	-0.140	0.680
2020/01/31 00:01:58.8	268.460	-0.280	-0.130	0.680
2020/01/31 00:01:58.9	268.440	-0.260	-0.130	0.680
2020/01/31 00:01:59.0	268.430	-0.250	-0.120	0.680
2020/01/31 00:01:59.1	268.420	-0.240	-0.120	0.680
2020/01/31 00:01:59.2	268.410	-0.220	-0.120	0.680
2020/01/31 00:01:59.3	268.400	-0.210	-0.120	0.680
2020/01/31 00:01:59.4	268.390	-0.190	-0.130	0.670
2020/01/31 00:01:59.5	268.380	-0.170	-0.130	0.670
2020/01/31 00:01:59.6	268.370	-0.150	-0.130	0.670
2020/01/31 00:01:59.7	268.370	-0.130	-0.140	0.670
2020/01/31 00:01:59.8	268.360	-0.110	-0.150	0.670
2020/01/31 00:01:59.9	268.350	-0.090	-0.160	0.670
2020/01/31 00:02:00.0	268.340	-0.070	-0.170	0.670
2020/01/31 00:02:00.1	268.340	-0.050	-0.180	0.670
2020/01/31 00:02:00.2	268.340	-0.020	-0.190	0.670
2020/01/31 00:02:00.3	268.340	-0.000	-0.210	0.670
2020/01/31 00:02:00.4	268.340	0.020	-0.220	0.670
2020/01/31 00:02:00.5	268.340	0.050	-0.240	0.670
2020/01/31 00:02:00.6	268.340	0.070	-0.250	0.680
2020/01/31 00:02:00.7	268.340	0.100	-0.270	0.680
2020/01/31 00:02:00.8	268.350	0.120	-0.280	0.680
2020/01/31 00:02:00.9	268.350	0.140	-0.300	0.680
2020/01/31 00:02:01.0	268.350	0.160	-0.320	0.690
2020/01/31 00:02:01.1	268.360	0.190	-0.330	0.690
2020/01/31 00:02:01.2	268.370	0.210	-0.350	0.700
2020/01/31 00:02:01.3	268.370	0.230	-0.360	0.700
2020/01/31 00:02:01.4	268.380	0.250	-0.370	0.710
2020/01/31 00:02:01.5	268.390	0.260	-0.380	0.710
2020/01/31 00:02:01.6	268.390	0.280	-0.390	0.720
2020/01/31 00:02:01.7	268.400	0.290	-0.390	0.720
2020/01/31 00:02:01.8	268.410	0.300	-0.400	0.730
2020/01/31 00:02:01.9	268.420	0.310	-0.400	0.730
2020/01/31 00:02:02.0	268.440	0.320	-0.400	0.730
2020/01/31 00:02:02.1	268.450	0.330	-0.400	0.730
2020/01/31 00:02:02.2	268.450	0.330	-0.390	0.730
2020/01/31 00:02:02.3	268.460	0.330	-0.390	0.730
2020/01/31 00:02:02.4	268.470	0.330	-0.380	0.720
2020/01/31 00:02:02.5	268.480	0.330	-0.370	0.710
2020/01/31 00:02:02.6	268.490	0.320	-0.350	0.710
2020/01/31 00:02:02.7	268.500	0.310	-0.340	0.700
2020/01/31 00:02:02.8	268.510	0.300	-0.330	0.680
2020/01/31 00:02:02.9	268.500	0.290	-0.310	0.670
2020/01/31 00:02:03.0	268.520	0.280	-0.300	0.650
2020/01/31 00:02:03.1	268.530	0.260	-0.280	0.640
2020/01/31 00:02:03.2	268.540	0.240	-0.260	0.620
2020/01/31 00:02:03.3	268.550	0.220	-0.250	0.590
2020/01/31 00:02:03.4	268.570	0.200	-0.230	0.570
2020/01/31 00:02:03.5	268.580	0.180	-0.210	0.540
2020/01/31 00:02:03.6	268.600	0.160	-0.200	0.510
2020/01/31 00:02:03.7	268.620	0.140	-0.190	0.480
2020/01/31 00:02:03.8	268.640	0.110	-0.170	0.450
2020/01/31 00:02:03.9	268.660	0.090	-0.160	0.420
2020/01/31 00:02:04.0	268.680	0.060	-0.150	0.380
2020/01/31 00:02:04.1	268.700	0.040	-0.150	0.340
2020/01/31 00:02:04.2	268.730	0.020	-0.150	0.310
2020/01/31 00:02:04.3	268.750	-0.010	-0.150	0.270
2020/01/31 00:02:04.4	268.770	-0.030	-0.150	0.230
2020/01/31 00:02:04.5	268.800	-0.050	-0.160	0.190
2020/01/31 00:02:04.6	268.830	-0.070	-0.170	0.150
2020/01/31 00:02:04.7	268.850	-0.090	-0.180	0.110
2020/01/31 00:02:04.8	268.880	-0.100	-0.190	0.070
2020/01/31 00:02:04.9	268.910	-0.120	-0.210	0.040
2020/01/31 00:02:05.0	268.930	-0.130	-0.240	0.010
2020/01/31 00:02:05.1	268.960	-0.140	-0.260	-0.020
2020/01/31 00:02:05.2	268.980	-0.150	-0.280	-0.050
2020/01/31 00:02:05.3	269.010	-0.150	-0.310	-0.070
2020/01/31 00:02:05.4	269.040	-0.160	-0.330	-0.090
2020/01/31 00:02:05.5	269.060	-0.160	-0.360	-0.100
2020/01/31 00:02:05.6	269.090	-0.160	-0.390	-0.110
2020/01/31 00:02:05.7	269.110	-0.150	-0.420	-0.120
2020/01/31 00:02:05.8	269.130	-0.150	-0.450	-0.120
2020/01/31 00:02:05.9	269.160	-0.140	-0.480	-0.120
2020/01/31 00:02:06.0	269.180	-0.140	-0.500	-0.110
2020/01/31 00:02:06.1	269.200	-0.130	-0.520	-0.100
2020/01/31 00:02:06.2	269.210	-0.120	-0.550	-0.080
2020/01/31 00:02:06.3	269.230	-0.100	-0.560	-0.060
2020/01/31 00:02:06.4	269.240	-0.090	-0.580	-0.040
2020/01/31 00:02:06.5	269.250	-0.080	-0.590	-0.010
2020/01/31 00:02:06.6	269.260	-0.060	-0.600	0.020
2020/01/31 00:02:06.7	269.270	-0.050	-0.610	0.060
2020/01/31 00:02:06.8	269.270	-0.040	-0.610	0.100
2020/01/31 00:02:06.9	269.260	-0.020	-0.600	0.130
2020/01/31 00:02:07.0	269.260	-0.010	-0.600	0.180
2020/01/31 00:02:07.1	269.250	0.000	-0.590	0.220
2020/01/31 00:02:07.2	269.250	0.010	-0.570	0.260
2020/01/31 00:02:07.3	269.240	0.020	-0.550	0.310
2020/01/31 00:02:07.4	269.230	0.030	-0.530	0.360
2020/01/31 00:02:07.5	269.220	0.040	-0.500	0.400
2020/01/31 00:02:07.6	269.210	0.050	-0.470	0.450
2020/01/31 00:02:07.7	269.190	0.050	-0.440	0.500
2020/01/31 00:02:07.8	269.180	0.060	-0.400	0.560
2020/01/31 00:02:07.9	269.160	0.060	-0.360	0.610
2020/01/31 00:02:08.0	269.130	0.060	-0.320	0.660
2020/01/31 00:02:08.1	269.110	0.060	-0.280	0.710
2020/01/31 00:02:08.2	269.090	0.050	-0.240	0.760
2020/01/31 00:02:08.3	269.060	0.050	-0.190	0.810
2020/01/31 00:02:08.4	269.030	0.050	-0.150	0.860
2020/01/31 00:02:08.5	269.000	0.040	-0.100	0.900
2020/01/31 00:02:08.6	268.970	0.030	-0.060	0.950
2020/01/31 00:02:08.7	268.940	0.030	-0.020	0.990
2020/01/31 00:02:08.8	268.910	0.020	0.030	1.040
2020/01/31 00:02:08.9	268.860	0.010	0.070	1.080
2020/01/31 00:02:09.0	268.830	-0.000	0.110	1.120
2020/01/31 00:02:09.1	268.790	-0.010	0.140	1.150
2020/01/31 00:02:09.2	268.760	-0.020	0.180	1.180
2020/01/31 00:02:09.3	268.720	-0.030	0.210	1.210
2020/01/31 00:02:09.4	268.690	-0.040	0.230	1.230
2020/01/31 00:02:09.5	268.660	-0.050	0.250	1.250
2020/01/31 00:02:09.6	268.620	-0.050	0.270	1.260
2020/01/31 00:02:09.7	268.590	-0.060	0.290	1.270
2020/01/31 00:02:09.8	268.560	-0.060	0.300	1.280
2020/01/31 00:02:09.9	268.540	-0.070	0.300	1.270
2020/01/31 00:02:10.0	268.510	-0.070	0.310	1.270
2020/01/31 00:02:10.1	268.490	-0.070	0.300	1.260
2020/01/31 00:02:10.2	268.460	-0.070	0.300	1.250
2020/01/31 00:02:10.3	268.440	-0.070	0.290	1.240
2020/01/31 00:02:10.4	268.420	-0.070	0.270	1.220
2020/01/31 00:02:10.5	268.400	-0.060	0.250	1.200
2020/01/31 00:02:10.6	268.380	-0.050	0.230	1.180
2020/01/31 00:02:10.7	268.360	-0.040	0.210	1.160
2020/01/31 00:02:10.8	268.340	-0.030	0.180	1.140
2020/01/31 00:02:10.9	268.330	-0.020	0.150	1.120
2020/01/31 00:02:11.0	268.320	0.000	0.110	1.100
2020/01/31 00:02:11.1	268.310	0.020	0.070	1.070
2020/01/31 00:02:11.2	268.300	0.040	0.040	1.040
2020/01/31 00:02:11.3	268.290	0.060	-0.000	1.020
2020/01/31 00:02:11.4	268.280	0.080	-0.050	0.990
2020/01/31 00:02:11.5	268.270	0.110	-0.090	0.960
2020/01/31 00:02:11.6	268.270	0.130	-0.130	0.940
2020/01/31 00:02:11.7	268.260	0.160	-0.170	0.910
2020/01/31 00:02:11.8	268.260	0.180	-0.220	0.880
2020/01/31 00:02:11.9	268.260	0.210	-0.260	0.860
2020/01/31 00:02:12.0	268.270	0.240	-0.300	0.830
2020/01/31 00:02:12.1	268.270	0.270	-0.340	0.800
2020/01/31 00:02:12.2	268.270	0.290	-0.380	0.780
2020/01/31 00:02:12.3	268.270	0.320	-0.410	0.750
2020/01/31 00:02:12.4	268.270	0.340	-0.450	0.730
2020/01/31 00:02:12.5	268.280	0.370	-0.480	0.710
2020/01/31 00:02:12.6	268.290	0.390	-0.510	0.690
2020/01/31 00:02:12.7	268.290	0.410	-0.540	0.660
2020/01/31 00:02:12.8	268.300	0.430	-0.560	0.640
2020/01/31 00:02:12.9	268.320	0.450	-0.580	0.620
2020/01/31 00:02:13.0	268.330	0.470	-0.600	0.600
2020/01/31 00:02:13.1	268.350	0.480	-0.620	0.580
2020/01/31 00:02:13.2	268.360	0.490	-0.630	0.560
2020/01/31 00:02:13.3	268.380	0.500	-0.640	0.540
2020/01/31 00:02:13.4	268.400	0.510	-0.650	0.510
2020/01/31 00:02:13.5	268.420	0.510	-0.660	0.490
2020/01/31 00:02:13.6	268.440	0.510	-0.670	0.470
2020/01/31 00:02:13.7	268.460	0.510	-0.670	0.450
2020/01/31 00:02:13.8	268.480	0.500	-0.680	0.430
2020/01/31 00:02:13.9	268.510	0.490	-0.680	0.420
2020/01/31 00:02:14.0	268.530	0.480	-0.680	0.400
2020/01/31 00:02:14.1	268.560	0.470	-0.680	0.380
2020/01/31 00:02:14.2	268.590	0.460	-0.680	0.370
2020/01/31 00:02:14.3	268.610	0.440	-0.690	0.350
2020/01/31 00:02:14.4	268.640	0.420	-0.690	0.340
2020/01/31 00:02:14.5	268.670	0.400	-0.690	0.320
2020/01/31 00:02:14.6	268.690	0.370	-0.700	0.310
2020/01/31 00:02:14.7	268.720	0.350	-0.700	0.300
2020/01/31 00:02:14.8	268.750	0.320	-0.710	0.290
2020/01/31 00:02:14.9	268.780	0.290	-0.710	0.280
2020/01/31 00:02:15.0	268.810	0.270	-0.730	0.270
2020/01/31 00:02:15.1	268.830	0.240	-0.740	0.260
2020/01/31 00:02:15.2	268.860	0.210	-0.750	0.250
2020/01/31 00:02:15.3	268.890	0.170	-0.760	0.240
2020/01/31 00:02:15.4	268.920	0.140	-0.770	0.230
2020/01/31 00:02:15.5	268.950	0.110	-0.780	0.220
2020/01/31 00:02:15.6	268.980	0.080	-0.800	0.210
2020/01/31 00:02:15.7	269.010	0.050	-0.810	0.210
2020/01/31 00:02:15.8	269.040	0.010	-0.820	0.200
2020/01/31 00:02:15.9	269.070	-0.020	-0.830	0.190
2020/01/31 00:02:16.0	269.100	-0.050	-0.840	0.180
2020/01/31 00:02:16.1	269.130	-0.080	-0.850	0.180
2020/01/31 00:02:16.2	269.160	-0.110	-0.860	0.170
2020/01/31 00:02:16.3	269.180	-0.150	-0.870	0.170
2020/01/31 00:02:16.4	269.210	-0.180	-0.870	0.160
2020/01/31 00:02:16.5	269.240	-0.210	-0.880	0.160
2020/01/31 00:02:16.6	269.270	-0.240	-0.880	0.150
2020/01/31 00:02:16.7	269.290	-0.260	-0.880	0.150
2020/01/31 00:02:16.8	269.320	-0.290	-0.870	0.140
2020/01/31 00:02:16.9	269.340	-0.320	-0.870	0.140
2020/01/31 00:02:17.0	269.370	-0.350	-0.860	0.140
2020/01/31 00:02:17.1	269.390	-0.370	-0.850	0.130
2020/01/31 00:02:17.2	269.420	-0.400	-0.830	0.130
2020/01/31 00:02:17.3	269.450	-0.420	-0.810	0.130
2020/01/31 00:02:17.4	269.470	-0.440	-0.790	0.120
2020/01/31 00:02:17.5	269.490	-0.460	-0.770	0.120
2020/01/31 00:02:17.6	269.520	-0.490	-0.750	0.120
2020/01/31 00:02:17.7	269.540	-0.510	-0.720	0.130
2020/01/31 00:02:17.8	269.560	-0.520	-0.690	0.130
2020/01/31 00:02:17.9	269.580	-0.540	-0.660	0.130
2020/01/31 00:02:18.0	269.600	-0.560	-0.630	0.130
2020/01/31 00:02:18.1	269.610	-0.570	-0.600	0.140
2020/01/31 00:02:18.2	269.630	-0.590	-0.560	0.150
2020/01/31 00:02:18.3	269.640	-0.600	-0.530	0.160
2020/01/31 00:02:18.4	269.650	-0.610	-0.490	0.170
2020/01/31 00:02:18.5	269.660	-0.620	-0.460	0.180
2020/01/31 00:02:18.6	269.670	-0.630	-0.420	0.190
2020/01/31 00:02:18.7	269.680	-0.640	-0.390	0.200
2020/01/31 00:02:18.8	269.680	-0.640	-0.350	0.220
2020/01/31 00:02:18.9	269.680	-0.650	-0.310	0.230
2020/01/31 00:02:19.0	269.680	-0.650	-0.280	0.260
2020/01/31 00:02:19.1	269.680	-0.650	-0.240	0.280
2020/01/31 00:02:19.2	269.670	-0.650	-0.210	0.300
2020/01/31 00:02:19.3	269.670	-0.650	-0.180	0.320
2020/01/31 00:02:19.4	269.670	-0.640	-0.150	0.340
2020/01/31 00:02:19.5	269.660	-0.640	-0.120	0.370
2020/01/31 00:02:19.6	269.650	-0.630	-0.090	0.390
2020/01/31 00:02:19.7	269.640	-0.620	-0.070	0.420
2020/01/31 00:02:19.8	269.630	-0.610	-0.040	0.440
2020/01/31 00:02:19.9	269.610	-0.600	-0.020	0.470
2020/01/31 00:02:20.0	269.600	-0.580	-0.000	0.500
2020/01/31 00:02:20.1	269.580	-0.570	0.020	0.530
2020/01/31 00:02:20.2	269.560	-0.550	0.040	0.560
2020/01/31 00:02:20.3	269.550	-0.530	0.050	0.600
2020/01/31 00:02:20.4	269.530	-0.510	0.070	0.630
2020/01/31 00:02:20.5	269.510	-0.490	0.080	0.670
2020/01/31 00:02:20.6	269.490	-0.460	0.100	0.700
2020/01/31 00:02:20.7	269.460	-0.440	0.110	0.740
2020/01/31 00:02:20.8	269.440	-0.410	0.120	0.770
2020/01/31 00:02:20.9	269.410	-0.380	0.130	0.810
2020/01/31 00:02:21.0	269.380	-0.360	0.140	0.850
2020/01/31 00:02:21.1	269.360	-0.330	0.160	0.880
2020/01/31 00:02:21.2	269.330	-0.300	0.170	0.920
2020/01/31 00:02:21.3	269.300	-0.260	0.180	0.960
2020/01/31 00:02:21.4	269.280	-0.230	0.190	0.990
2020/01/31 00:02:21.5	269.250	-0.200	0.200	1.030
2020/01/31 00:02:21.6	269.220	-0.170	0.210	1.060
2020/01/31 00:02:21.7	269.190	-0.140	0.230	1.090
2020/01/31 00:02:21.8	269.160	-0.100	0.240	1.130
2020/01/31 00:02:21.9	269.130	-0.070	0.250	1.160
2020/01/31 00:02:22.0	269.100	-0.040	0.260	1.190
2020/01/31 00:02:22.1	269.070	-0.010	0.280	1.220
2020/01/31 00:02:22.2	269.040	0.020	0.290	1.240
2020/01/31 00:02:22.3	269.010	0.050	0.300	1.270
2020/01/31 00:02:22.4	268.980	0.080	0.320	1.290
2020/01/31 00:02:22.5	268.940	0.110	0.330	1.310
2020/01/31 00:02:22.6	268.910	0.140	0.340	1.330
2020/01/31 00:02:22.7	268.880	0.170	0.360	1.350
2020/01/31 00:02:22.8	268.840	0.190	0.370	1.360
2020/01/31 00:02:22.9	268.820	0.220	0.390	1.370
2020/01/31 00:02:23.0	268.790	0.240	0.400	1.380
2020/01/31 00:02:23.1	268.760	0.260	0.410	1.390
2020/01/31 00:02:23.2	268.720	0.280	0.420	1.390
2020/01/31 00:02:23.3	268.690	0.300	0.430	1.390
2020/01/31 00:02:23.4	268.660	0.310	0.440	1.380
2020/01/31 00:02:23.5	268.630	0.330	0.450	1.370
2020/01/31 00:02:23.6	268.610	0.340	0.460	1.360
2020/01/31 00:02:23.7	268.580	0.350	0.460	1.350
2020/01/31 00:02:23.8	268.560	0.360	0.460	1.330
2020/01/31 00:02:23.9	268.540	0.370	0.460	1.310
2020/01/31 00:02:24.0	268.520	0.380	0.460	1.280
2020/01/31 00:02:24.1	268.500	0.390	0.450	1.260
2020/01/31 00:02:24.2	268.480	0.400	0.440	1.230
2020/01/31 00:02:24.3	268.470	0.400	0.430	1.200
2020/01/31 00:02:24.4	268.460	0.410	0.410	1.170
2020/01/31 00:02:24.5	268.450	0.410	0.390	1.130
2020/01/31 00:02:24.6	268.440	0.420	0.370	1.090
2020/01/31 00:02:24.7	268.430	0.420	0.340	1.050
2020/01/31 00:02:24.8	268.430	0.420	0.310	1.010
2020/01/31 00:02:24.9	268.430	0.420	0.280	0.960
2020/01/31 00:02:25.0	268.430	0.430	0.240	0.920
2020/01/31 00:02:25.1	268.430	0.430	0.200	0.870
2020/01/31 00:02:25.2	268.430	0.430	0.150	0.810
2020/01/31 00:02:25.3	268.430	0.440	0.100	0.760
2020/01/31 00:02:25.4	268.440	0.440	0.050	0.710
2020/01/31 00:02:25.5	268.450	0.440	-0.010	0.650
2020/01/31 00:02:25.6	268.450	0.450	-0.070	0.590
2020/01/31 00:02:25.7	268.460	0.450	-0.130	0.540
2020/01/31 00:02:25.8	268.470	0.450	-0.190	0.480
2020/01/31 00:02:25.9	268.490	0.460	-0.260	0.420
2020/01/31 00:02:26.0	268.500	0.460	-0.330	0.370
2020/01/31 00:02:26.1	268.520	0.470	-0.400	0.310
2020/01/31 00:02:26.2	268.530	0.470	-0.470	0.260
2020/01/31 00:02:26.3	268.540	0.480	-0.540	0.210
2020/01/31 00:02:26.4	268.560	0.480	-0.600	0.160
2020/01/31 00:02:26.5	268.580	0.490	-0.670	0.110
2020/01/31 00:02:26.6	268.590	0.490	-0.740	0.070
2020/01/31 00:02:26.7	268.610	0.490	-0.800	0.030
2020/01/31 00:02:26.8	268.620	0.500	-0.860	-0.010
2020/01/31 00:02:26.9	268.630	0.500	-0.920	-0.040
2020/01/31 00:02:27.0	268.650	0.500	-0.970	-0.080
2020/01/31 00:02:27.1	268.670	0.500	-1.020	-0.110
2020/01/31 00:02:27.2	268.680	0.500	-1.070	-0.130
2020/01/31 00:02:27.3	268.700	0.490	-1.110	-0.150
2020/01/31 00:02:27.4	268.720	0.490	-1.150	-0.170
2020/01/31 00:02:27.5	268.740	0.480	-1.180	-0.190
2020/01/31 00:02:27.6	268.760	0.470	-1.210	-0.200
2020/01/31 00:02:27.7	268.780	0.460	-1.230	-0.210
2020/01/31 00:02:27.8	268.800	0.450	-1.250	-0.210
2020/01/31 00:02:27.9	268.820	0.440	-1.260	-0.220
2020/01/31 00:02:28.0	268.840	0.430	-1.260	-0.210
2020/01/31 00:02:28.1	268.860	0.410	-1.270	-0.210
2020/01/31 00:02:28.2	268.880	0.390	-1.260	-0.200
2020/01/31 00:02:28.3	268.900	0.380	-1.260	-0.190
2020/01/31 00:02:28.4	268.920	0.360	-1.250	-0.180
2020/01/31 00:02:28.5	268.940	0.330	-1.230	-0.160
2020/01/31 00:02:28.6	268.950	0.310	-1.210	-0.140
2020/01/31 00:02:28.7	268.970	0.290	-1.190	-0.130
2020/01/31 00:02:28.8	268.990	0.260	-1.160	-0.100
2020/01/31 00:02:28.9	269.010	0.240	-1.130	-0.080
2020/01/31 00:02:29.0	269.020	0.210	-1.100	-0.060
2020/01/31 00:02:29.1	269.040	0.180	-1.070	-0.030
2020/01/31 00:02:29.2	269.060	0.160	-1.040	-0.010
2020/01/31 00:02:29.3	269.070	0.130	-1.000	0.020
2020/01/31 00:02:29.4	269.090	0.100	-0.960	0.050
2020/01/31 00:02:29.5	269.100	0.070	-0.930	0.070
2020/01/31 00:02:29.6	269.110	0.050	-0.890	0.100
2020/01/31 00:02:29.7	269.130	0.020	-0.850	0.130
2020/01/31 00:02:29.8	269.140	-0.010	-0.810	0.160
2020/01/31 00:02:29.9	269.150	-0.040	-0.780	0.190
2020/01/31 00:02:30.0	269.160	-0.060	-0.750	0.220
2020/01/31 00:02:30.1	269.170	-0.090	-0.710	0.250
2020/01/31 00:02:30.2	269.180	-0.110	-0.680	0.280
2020/01/31 00:02:30.3	269.190	-0.140	-0.650	0.310
2020/01/31 00:02:30.4	269.200	-0.160	-0.620	0.340
2020/01/31 00:02:30.5	269.210	-0.180	-0.600	0.380
2020/01/31 00:02:30.6	269.220	-0.200	-0.570	0.410
2020/01/31 00:02:30.7	269.230	-0.220	-0.550	0.440
2020/01/31 00:02:30.8	269.240	-0.230	-0.540	0.470
2020/01/31 00:02:30.9	269.270	-0.250	-0.520	0.510
2020/01/31 00:02:31.0	269.270	-0.260	-0.510	0.540
2020/01/31 00:02:31.1	269.280	-0.270	-0.500	0.570
2020/01/31 00:02:31.2	269.290	-0.280	-0.490	0.600
2020/01/31 00:02:31.3	269.300	-0.290	-0.490	0.620
2020/01/31 00:02:31.4	269.300	-0.300	-0.480	0.650
2020/01/31 00:02:31.5	269.310	-0.300	-0.480	0.680
2020/01/31 00:02:31.6	269.310	-0.300	-0.480	0.700
2020/01/31 00:02:31.7	269.320	-0.310	-0.490	0.720
2020/01/31 00:02:31.8	269.320	-0.310	-0.490	0.740
2020/01/31 00:02:31.9	269.310	-0.300	-0.490	0.760
2020/01/31 00:02:32.0	269.320	-0.300	-0.500	0.780
2020/01/31 00:02:32.1	269.320	-0.300	-0.510	0.790
2020/01/31 00:02:32.2	269.320	-0.290	-0.510	0.800
2020/01/31 00:02:32.3	269.320	-0.280	-0.520	0.810
2020/01/31 00:02:32.4	269.320	-0.280	-0.520	0.820
2020/01/31 00:02:32.5	269.320	-0.270	-0.530	0.820
2020/01/31 00:02:32.6	269.320	-0.260	-0.530	0.830
2020/01/31 00:02:32.7	269.320	-0.250	-0.530	0.830
2020/01/31 00:02:32.8	269.320	-0.250	-0.530	0.820
2020/01/31 00:02:32.9	269.320	-0.240	-0.530	0.820
2020/01/31 00:02:33.0	269.320	-0.230	-0.520	0.810
2020/01/31 00:02:33.1	269.310	-0.230	-0.510	0.810
2020/01/31 00:02:33.2	269.310	-0.220	-0.500	0.790
2020/01/31 00:02:33.3	269.310	-0.220	-0.490	0.780
2020/01/31 00:02:33.4	269.310	-0.210	-0.470	0.770
2020/01/31 00:02:33.5	269.300	-0.210	-0.450	0.760
2020/01/31 00:02:33.6	269.300	-0.210	-0.430	0.740
2020/01/31 00:02:33.7	269.290	-0.210	-0.400	0.730
2020/01/31 00:02:33.8	269.290	-0.210	-0.370	0.720
2020/01/31 00:02:33.9	269.270	-0.210	-0.340	0.710
2020/01/31 00:02:34.0	269.260	-0.210	-0.300	0.700
2020/01/31 00:02:34.1	269.250	-0.220	-0.260	0.690
2020/01/31 00:02:34.2	269.250	-0.220	-0.220	0.680
2020/01/31 00:02:34.3	269.230	-0.230	-0.180	0.670
2020/01/31 00:02:34.4	269.220	-0.240	-0.130	0.670
2020/01/31 00:02:34.5	269.210	-0.240	-0.080	0.670
2020/01/31 00:02:34.6	269.190	-0.250	-0.030	0.670
2020/01/31 00:02:34.7	269.180	-0.260	0.020	0.670
2020/01/31 00:02:34.8	269.160	-0.280	0.070	0.670
2020/01/31 00:02:34.9	269.140	-0.290	0.120	0.670
2020/01/31 00:02:35.0	269.130	-0.300	0.180	0.680
2020/01/31 00:02:35.1	269.110	-0.310	0.230	0.680
2020/01/31 00:02:35.2	269.090	-0.330	0.290	0.690
2020/01/31 00:02:35.3	269.070	-0.340	0.340	0.690
2020/01/31 00:02:35.4	269.040	-0.350	0.380	0.700
2020/01/31 00:02:35.5	269.020	-0.370	0.430	0.710
2020/01/31 00:02:35.6	268.990	-0.380	0.470	0.710
2020/01/31 00:02:35.7	268.970	-0.390	0.510	0.720
2020/01/31 00:02:35.8	268.950	-0.400	0.550	0.730
2020/01/31 00:02:35.9	268.920	-0.410	0.580	0.740
2020/01/31 00:02:36.0	268.910	-0.420	0.610	0.740
2020/01/31 00:02:36.1	268.880	-0.430	0.640	0.750
2020/01/31 00:02:36.2	268.860	-0.440	0.660	0.760
2020/01/31 00:02:36.3	268.830	-0.440	0.670	0.760
2020/01/31 00:02:36.4	268.810	-0.440	0.680	0.770
2020/01/31 00:02:36.5	268.780	-0.440	0.690	0.770
2020/01/31 00:02:36.6	268.760	-0.440	0.690	0.770
2020/01/31 00:02:36.7	268.740	-0.430	0.690	0.780
2020/01/31 00:02:36.8	268.720	-0.430	0.680	0.780
2020/01/31 00:02:36.9	268.710	-0.420	0.670	0.780
2020/01/31 00:02:37.0	268.690	-0.410	0.650	0.780
2020/01/31 00:02:37.1	268.670	-0.390	0.630	0.780
2020/01/31 00:02:37.2	268.650	-0.380	0.610	0.780
2020/01/31 00:02:37.3	268.630	-0.360	0.580	0.780
2020/01/31 00:02:37.4	268.620	-0.340	0.550	0.770
2020/01/31 00:02:37.5	268.600	-0.310	0.510	0.770
2020/01/31 00:02:37.6	268.590	-0.290	0.480	0.770
2020/01/31 00:02:37.7	268.580	-0.260	0.440	0.760
2020/01/31 00:02:37.8	268.570	-0.230	0.400	0.760
2020/01/31 00:02:37.9	268.550	-0.200	0.360	0.760
2020/01/31 00:02:38.0	268.540	-0.170	0.310	0.750
2020/01/31 00:02:38.1	268.530	-0.130	0.270	0.750
2020/01/31 00:02:38.2	268.530	-0.100	0.230	0.750
2020/01/31 00:02:38.3	268.520	-0.060	0.180	0.740
2020/01/31 00:02:38.4	268.510	-0.030	0.140	0.740
2020/01/31 00:02:38.5	268.510	0.010	0.100	0.740
2020/01/31 00:02:38.6	268.510	0.050	0.060	0.740
2020/01/31 00:02:38.7	268.500	0.090	0.020	0.740
2020/01/31 00:02:38.8	268.500	0.120	-0.020	0.740
2020/01/31 00:02:38.9	268.500	0.160	-0.060	0.750
2020/01/31 00:02:39.0	268.500	0.190	-0.090	0.750
2020/01/31 00:02:39.1	268.500	0.230	-0.120	0.750
2020/01/31 00:02:39.2	268.500	0.260	-0.160	0.760
2020/01/31 00:02:39.3	268.500	0.300	-0.190	0.760
2020/01/31 00:02:39.4	268.510	0.330	-0.210	0.770
2020/01/31 00:02:39.5	268.510	0.360	-0.240	0.780
2020/01/31 00:02:39.6	268.510	0.390	-0.260	0.790
2020/01/31 00:02:39.7	268.510	0.410	-0.280	0.800
2020/01/31 00:02:39.8	268.510	0.440	-0.300	0.810
2020/01/31 00:02:39.9	268.510	0.460	-0.330	0.820
2020/01/31 00:02:40.0	268.520	0.480	-0.340	0.840
2020/01/31 00:02:40.1	268.520	0.500	-0.360	0.850
2020/01/31 00:02:40.2	268.520	0.520	-0.380	0.860
2020/01/31 00:02:40.3	268.530	0.540	-0.390	0.880
2020/01/31 00:02:40.4	268.530	0.550	-0.410	0.890
2020/01/31 00:02:40.5	268.540	0.560	-0.420	0.900
2020/01/31 00:02:40.6	268.540	0.570	-0.430	0.920
2020/01/31 00:02:40.7	268.540	0.580	-0.450	0.930
2020/01/31 00:02:40.8	268.550	0.580	-0.460	0.950
2020/01/31 00:02:40.9	268.550	0.590	-0.460	0.970
2020/01/31 00:02:41.0	268.560	0.590	-0.480	0.980
2020/01/31 00:02:41.1	268.560	0.590	-0.490	0.990
2020/01/31 00:02:41.2	268.560	0.590	-0.500	1.010
2020/01/31 00:02:41.3	268.570	0.590	-0.520	1.020
2020/01/31 00:02:41.4	268.570	0.590	-0.540	1.040
2020/01/31 00:02:41.5	268.580	0.580	-0.550	1.050
2020/01/31 00:02:41.6	268.580	0.580	-0.570	1.060
2020/01/31 00:02:41.7	268.590	0.570	-0.590	1.070
2020/01/31 00:02:41.8	268.590	0.560	-0.600	1.080
2020/01/31 00:02:41.9	268.600	0.550	-0.630	1.090
2020/01/31 00:02:42.0	268.600	0.540	-0.650	1.100
2020/01/31 00:02:42.1	268.600	0.530	-0.670	1.100
2020/01/31 00:02:42.2	268.610	0.520	-0.690	1.110
2020/01/31 00:02:42.3	268.610	0.510	-0.710	1.110
2020/01/31 00:02:42.4	268.620	0.490	-0.730	1.120
2020/01/31 00:02:42.5	268.620	0.480	-0.750	1.120
2020/01/31 00:02:42.6	268.630	0.470	-0.780	1.120
2020/01/31 00:02:42.7	268.630	0.460	-0.800	1.120
2020/01/31 00:02:42.8	268.640	0.440	-0.820	1.120
2020/01/31 00:02:42.9	268.630	0.430	-0.840	1.120
2020/01/31 00:02:43.0	268.640	0.410	-0.870	1.120
2020/01/31 00:02:43.1	268.640	0.400	-0.890	1.110
2020/01/31 00:02:43.2	268.650	0.380	-0.910	1.110
2020/01/31 00:02:43.3	268.660	0.370	-0.930	1.110
2020/01/31 00:02:43.4	268.660	0.350	-0.950	1.100
2020/01/31 00:02:43.5	268.670	0.340	-0.970	1.090
2020/01/31 00:02:43.6	268.680	0.320	-0.990	1.080
2020/01/31 00:02:43.7	268.690	0.310	-1.010	1.070
2020/01/31 00:02:43.8	268.690	0.290	-1.030	1.060
2020/01/31 00:02:43.9	268.710	0.280	-1.040	1.050
2020/01/31 00:02:44.0	268.720	0.260	-1.060	1.040
2020/01/31 00:02:44.1	268.730	0.250	-1.070	1.020
2020/01/31 00:02:44.2	268.740	0.230	-1.080	1.010
2020/01/31 00:02:44.3	268.750	0.220	-1.090	0.990
2020/01/31 00:02:44.4	268.750	0.200	-1.090	0.970
2020/01/31 00:02:44.5	268.760	0.190	-1.100	0.960
2020/01/31 00:02:44.6	268.770	0.170	-1.100	0.940
2020/01/31 00:02:44.7	268.780	0.150	-1.100	0.930
2020/01/31 00:02:44.8	268.790	0.140	-1.100	0.910
2020/01/31 00:02:44.9	268.800	0.120	-1.090	0.890
2020/01/31 00:02:45.0	268.810	0.100	-1.090	0.880
2020/01/31 00:02:45.1	268.820	0.080	-1.080	0.860
2020/01/31 00:02:45.2	268.820	0.070	-1.060	0.850
2020/01/31 00:02:45.3	268.830	0.050	-1.050	0.830
2020/01/31 00:02:45.4	268.830	0.030	-1.030	0.820
2020/01/31 00:02:45.5	268.840	0.010	-1.010	0.810
2020/01/31 00:02:45.6	268.840	-0.010	-0.990	0.800
2020/01/31 00:02:45.7	268.840	-0.030	-0.970	0.790
2020/01/31 00:02:45.8	268.850	-0.050	-0.940	0.770
2020/01/31 00:02:45.9	268.850	-0.070	-0.910	0.760
2020/01/31 00:02:46.0	268.850	-0.100	-0.880	0.760
2020/01/31 00:02:46.1	268.850	-0.120	-0.850	0.750
2020/01/31 00:02:46.2	268.850	-0.140	-0.810	0.740
2020/01/31 00:02:46.3	268.850	-0.170	-0.770	0.730
2020/01/31 00:02:46.4	268.850	-0.190	-0.730	0.730
2020/01/31 00:02:46.5	268.860	-0.220	-0.690	0.720
2020/01/31 00:02:46.6	268.860	-0.240	-0.650	0.720
2020/01/31 00:02:46.7	268.860	-0.270	-0.610	0.710
2020/01/31 00:02:46.8	268.860	-0.290	-0.560	0.710
2020/01/31 00:02:46.9	268.860	-0.320	-0.520	0.700
2020/01/31 00:02:47.0	268.860	-0.340	-0.470	0.700
2020/01/31 00:02:47.1	268.860	-0.370	-0.430	0.690
2020/01/31 00:02:47.2	268.860	-0.390	-0.380	0.690
2020/01/31 00:02:47.3	268.870	-0.420	-0.330	0.690
2020/01/31 00:02:47.4	268.870	-0.440	-0.290	0.690
2020/01/31 00:02:47.5	268.870	-0.460	-0.240	0.680
2020/01/31 00:02:47.6	268.870	-0.480	-0.190	0.680
2020/01/31 00:02:47.7	268.870	-0.500	-0.150	0.680
2020/01/31 00:02:47.8	268.870	-0.520	-0.100	0.680
2020/01/31 00:02:47.9	268.870	-0.540	-0.060	0.680
2020/01/31 00:02:48.0	268.870	-0.550	-0.020	0.680
2020/01/31 00:02:48.1	268.870	-0.570	0.020	0.680
2020/01/31 00:02:48.2	268.870	-0.580	0.060	0.680
2020/01/31 00:02:48.3	268.860	-0.590	0.100	0.680
2020/01/31 00:02:48.4	268.860	-0.590	0.140	0.680
2020/01/31 00:02:48.5	268.860	-0.600	0.180	0.680
2020/01/31 00:02:48.6	268.860	-0.600	0.210	0.680
2020/01/31 00:02:48.7	268.860	-0.600	0.250	0.680
2020/01/31 00:02:48.8	268.850	-0.600	0.280	0.680
2020/01/31 00:02:48.9	268.850	-0.600	0.310	0.680
2020/01/31 00:02:49.0	268.850	-0.590	0.340	0.670
2020/01/31 00:02:49.1	268.850	-0.580	0.370	0.670
2020/01/31 00:02:49.2	268.850	-0.570	0.390	0.680
2020/01/31 00:02:49.3	268.840	-0.560	0.410	0.680
2020/01/31 00:02:49.4	268.840	-0.540	0.430	0.680
2020/01/31 00:02:49.5	268.840	-0.530	0.440	0.680
2020/01/31 00:02:49.6	268.840	-0.510	0.460	0.680
2020/01/31 00:02:49.7	268.830	-0.490	0.470	0.680
2020/01/31 00:02:49.8	268.830	-0.470	0.470	0.680
2020/01/31 00:02:49.9	268.820	-0.440	0.470	0.690
2020/01/31 00:02:50.0	268.820	-0.420	0.480	0.690
2020/01/31 00:02:50.1	268.820	-0.390	0.470	0.690
2020/01/31 00:02:50.2	268.810	-0.360	0.470	0.700
2020/01/31 00:02:50.3	268.810	-0.330	0.460	0.700
2020/01/31 00:02:50.4	268.810	-0.310	0.450	0.710
2020/01/31 00:02:50.5	268.810	-0.280	0.440	0.720
2020/01/31 00:02:50.6	268.810	-0.250	0.420	0.730
2020/01/31 00:02:50.7	268.810	-0.210	0.410	0.740
2020/01/31 00:02:50.8	268.810	-0.180	0.390	0.750
2020/01/31 00:02:50.9	268.800	-0.150	0.360	0.760
2020/01/31 00:02:51.0	268.800	-0.120	0.340	0.780
2020/01/31 00:02:51.1	268.800	-0.090	0.310	0.790
2020/01/31 00:02:51.2	268.800	-0.060	0.290	0.810
2020/01/31 00:02:51.3	268.800	-0.030	0.260	0.830
2020/01/31 00:02:51.4	268.800	-0.010	0.230	0.850
2020/01/31 00:02:51.5	268.800	0.020	0.210	0.870
2020/01/31 00:02:51.6	268.800	0.050	0.180	0.890
2020/01/31 00:02:51.7	268.800	0.070	0.150	0.910
2020/01/31 00:02:51.8	268.790	0.100	0.120	0.930
2020/01/31 00:02:51.9	268.790	0.120	0.100	0.950
2020/01/31 00:02:52.0	268.790	0.140	0.070	0.980
2020/01/31 00:02:52.1	268.790	0.160	0.050	1.000
2020/01/31 00:02:52.2	268.790	0.180	0.020	1.020
2020/01/31 00:02:52.3	268.790	0.200	0.000	1.050
2020/01/31 00:02:52.4	268.780	0.210	-0.020	1.070
2020/01/31 00:02:52.5	268.780	0.230	-0.030	1.090
2020/01/31 00:02:52.6	268.780	0.240	-0.050	1.110
2020/01/31 00:02:52.7	268.770	0.250	-0.060	1.130
2020/01/31 00:02:52.8	268.770	0.260	-0.080	1.140
2020/01/31 00:02:52.9	268.770	0.270	-0.090	1.150
2020/01/31 00:02:53.0	268.760	0.270	-0.100	1.170
2020/01/31 00:02:53.1	268.760	0.270	-0.100	1.170
2020/01/31 00:02:53.2	268.760	0.280	-0.110	1.180
2020/01/31 00:02:53.3	268.750	0.280	-0.110	1.180
2020/01/31 00:02:53.4	268.740	0.270	-0.110	1.180
2020/01/31 00:02:53.5	268.740	0.270	-0.110	1.180
2020/01/31 00:02:53.6	268.730	0.270	-0.110	1.180
2020/01/31 00:02:53.7	268.730	0.260	-0.110	1.170
2020/01/31 00:02:53.8	268.720	0.260	-0.110	1.150
2020/01/31 00:02:53.9	268.730	0.250	-0.110	1.140
2020/01/31 00:02:54.0	268.730	0.240	-0.110	1.130
2020/01/31 00:02:54.1	268.720	0.240	-0.110	1.110
2020/01/31 00:02:54.2	268.710	0.230	-0.100	1.080
2020/01/31 00:02:54.3	268.710	0.220	-0.100	1.060
2020/01/31 00:02:54.4	268.700	0.210	-0.100	1.030
2020/01/31 00:02:54.5	268.700	0.200	-0.090	1.000
2020/01/31 00:02:54.6	268.690	0.190	-0.090	0.960
2020/01/31 00:02:54.7	268.690	0.180	-0.090	0.930
2020/01/31 00:02:54.8	268.690	0.170	-0.100	0.890
2020/01/31 00:02:54.9	268.680	0.160	-0.100	0.850
2020/01/31 00:02:55.0	268.680	0.150	-0.100	0.810
2020/01/31 00:02:55.1	268.670	0.150	-0.110	0.760
2020/01/31 00:02:55.2	268.670	0.140	-0.120	0.720
2020/01/31 00:02:55.3	268.670	0.130	-0.130	0.670
2020/01/31 00:02:55.4	268.670	0.130	-0.150	0.630
2020/01/31 00:02:55.5	268.680	0.130	-0.170	0.580
2020/01/31 00:02:55.6	268.680	0.120	-0.190	0.530
2020/01/31 00:02:55.7	268.680	0.120	-0.210	0.480
2020/01/31 00:02:55.8	268.680	0.120	-0.240	0.440
2020/01/31 00:02:55.9	268.690	0.120	-0.270	0.390
2020/01/31 00:02:56.0	268.700	0.130	-0.310	0.340
2020/01/31 00:02:56.1	268.710	0.130	-0.340	0.300
2020/01/31 00:02:56.2	268.710	0.140	-0.380	0.260
2020/01/31 00:02:56.3	268.720	0.140	-0.410	0.220
2020/01/31 00:02:56.4	268.720	0.150	-0.460	0.180
2020/01/31 00:02:56.5	268.730	0.160	-0.500	0.150
2020/01/31 00:02:56.6	268.730	0.170	-0.540	0.120
2020/01/31 00:02:56.7	268.740	0.180	-0.590	0.090
2020/01/31 00:02:56.8	268.740	0.190	-0.630	0.060
2020/01/31 00:02:56.9	268.740	0.200	-0.680	0.030
2020/01/31 00:02:57.0	268.740	0.210	-0.720	0.010
2020/01/31 00:02:57.1	268.740	0.220	-0.770	-0.010
2020/01/31 00:02:57.2	268.740	0.230	-0.810	-0.020
2020/01/31 00:02:57.3	268.740	0.240	-0.860	-0.030
2020/01/31 00:02:57.4	268.740	0.250	-0.900	-0.040
2020/01/31 00:02:57.5	268.740	0.260	-0.940	-0.050
2020/01/31 00:02:57.6	268.740	0.270	-0.980	-0.060
2020/01/31 00:02:57.7	268.740	0.280	-1.010	-0.060
2020/01/31 00:02:57.8	268.740	0.290	-1.050	-0.060
2020/01/31 00:02:57.9	268.740	0.300	-1.080	-0.050
2020/01/31 00:02:58.0	268.740	0.300	-1.100	-0.050
2020/01/31 00:02:58.1	268.740	0.300	-1.130	-0.040
2020/01/31 00:02:58.2	268.740	0.310	-1.150	-0.030
2020/01/31 00:02:58.3	268.740	0.310	-1.160	-0.020
2020/01/31 00:02:58.4	268.740	0.300	-1.180	-0.000
2020/01/31 00:02:58.5	268.740	0.300	-1.190	0.020
2020/01/31 00:02:58.6	268.730	0.300	-1.190	0.030
2020/01/31 00:02:58.7	268.730	0.290	-1.200	0.060
2020/01/31 00:02:58.8	268.730	0.280	-1.200	0.080
2020/01/31 00:02:58.9	268.720	0.270	-1.190	0.100
2020/01/31 00:02:59.0	268.720	0.260	-1.190	0.130
2020/01/31 00:02:59.1	268.720	0.240	-1.180	0.150
2020/01/31 00:02:59.2	268.710	0.230	-1.160	0.180
2020/01/31 00:02:59.3	268.710	0.210	-1.150	0.210
2020/01/31 00:02:59.4	268.710	0.190	-1.130	0.240
2020/01/31 00:02:59.5	268.710	0.170	-1.110	0.270
2020/01/31 00:02:59.6	268.700	0.150	-1.080	0.310
2020/01/31 00:02:59.7	268.700	0.130	-1.060	0.340
2020/01/31 00:02:59.8	268.700	0.100	-1.030	0.370
2020/01/31 00:02:59.9	268.690	0.080	-1.000	0.400
2020/01/31 00:03:00.0	268.690	0.050	-0.970	0.440
2020/01/31 00:03:00.1	268.690	0.030	-0.940	0.470
2020/01/31 00:03:00.2	268.680	0.010	-0.910	0.500
2020/01/31 00:03:00.3	268.680	-0.020	-0.880	0.530
2020/01/31 00:03:00.4	268.680	-0.040	-0.840	0.570
2020/01/31 00:03:00.5	268.670	-0.070	-0.810	0.600
2020/01/31 00:03:00.6	268.670	-0.090	-0.770	0.630
2020/01/31 00:03:00.7	268.670	-0.110	-0.740	0.660
2020/01/31 00:03:00.8	268.670	-0.140	-0.710	0.680
2020/01/31 00:03:00.9	268.670	-0.160	-0.670	0.710
2020/01/31 00:03:01.0	268.670	-0.180	-0.630	0.740
2020/01/31 00:03:01.1	268.670	-0.200	-0.600	0.760
2020/01/31 00:03:01.2	268.660	-0.220	-0.560	0.780
2020/01/31 00:03:01.3	268.660	-0.230	-0.530	0.800
2020/01/31 00:03:01.4	268.660	-0.250	-0.490	0.820
2020/01/31 00:03:01.5	268.660	-0.260	-0.460	0.830
2020/01/31 00:03:01.6	268.660	-0.280	-0.420	0.840
2020/01/31 00:03:01.7	268.660	-0.290	-0.390	0.850
2020/01/31 00:03:01.8	268.660	-0.300	-0.350	0.860
2020/01/31 00:03:01.9	268.640	-0.310	-0.320	0.870
2020/01/31 00:03:02.0	268.640	-0.320	-0.290	0.870
2020/01/31 00:03:02.1	268.650	-0.320	-0.260	0.870
2020/01/31 00:03:02.2	268.650	-0.330	-0.230	0.870
2020/01/31 00:03:02.3	268.650	-0.330	-0.200	0.870
2020/01/31 00:03:02.4	268.660	-0.330	-0.170	0.860
2020/01/31 00:03:02.5	268.670	-0.340	-0.140	0.850
2020/01/31 00:03:02.6	268.670	-0.340	-0.110	0.850
2020/01/31 00:03:02.7	268.680	-0.330	-0.090	0.840
2020/01/31 00:03:02.8	268.680	-0.330	-0.060	0.830
2020/01/31 00:03:02.9	268.690	-0.330	-0.040	0.820
2020/01/31 00:03:03.0	268.700	-0.330	-0.010	0.800
2020/01/31 00:03:03.1	268.700	-0.320	0.010	0.790
2020/01/31 00:03:03.2	268.710	-0.310	0.030	0.780
2020/01/31 00:03:03.3	268.720	-0.310	0.050	0.770
2020/01/31 00:03:03.4	268.730	-0.300	0.070	0.770
2020/01/31 00:03:03.5	268.730	-0.290	0.090	0.760
2020/01/31 00:03:03.6	268.740	-0.290	0.100	0.750
2020/01/31 00:03:03.7	268.750	-0.280	0.120	0.740
2020/01/31 00:03:03.8	268.760	-0.270	0.140	0.740
2020/01/31 00:03:03.9	268.780	-0.260	0.150	0.740
2020/01/31 00:03:04.0	268.790	-0.250	0.160	0.740
2020/01/31 00:03:04.1	268.800	-0.250	0.180	0.730
2020/01/31 00:03:04.2	268.810	-0.240	0.190	0.730
2020/01/31 00:03:04.3	268.820	-0.230	0.200	0.730
2020/01/31 00:03:04.4	268.830	-0.230	0.220	0.730
2020/01/31 00:03:04.5	268.840	-0.220	0.230	0.730
2020/01/31 00:03:04.6	268.850	-0.220	0.240	0.740
2020/01/31 00:03:04.7	268.860	-0.210	0.260	0.740
2020/01/31 00:03:04.8	268.870	-0.210	0.270	0.740
2020/01/31 00:03:04.9	268.880	-0.210	0.280	0.750
2020/01/31 00:03:05.0	268.890	-0.200	0.290	0.750
2020/01/31 00:03:05.1	268.900	-0.200	0.310	0.750
2020/01/31 00:03:05.2	268.910	-0.200	0.320	0.760
2020/01/31 00:03:05.3	268.920	-0.200	0.330	0.760
2020/01/31 00:03:05.4	268.930	-0.200	0.340	0.770
2020/01/31 00:03:05.5	268.940	-0.200	0.350	0.770
2020/01/31 00:03:05.6	268.950	-0.210	0.360	0.780
2020/01/31 00:03:05.7	268.960	-0.210	0.370	0.780
2020/01/31 00:03:05.8	268.970	-0.210	0.380	0.780
2020/01/31 00:03:05.9	268.970	-0.210	0.390	0.780
2020/01/31 00:03:06.0	268.980	-0.210	0.400	0.780
2020/01/31 00:03:06.1	268.990	-0.220	0.410	0.770
2020/01/31 00:03:06.2	269.000	-0.220	0.410	0.770
2020/01/31 00:03:06.3	269.010	-0.220	0.410	0.760
2020/01/31 00:03:06.4	269.020	-0.220	0.410	0.750
2020/01/31 00:03:06.5	269.030	-0.220	0.400	0.750
2020/01/31 00:03:06.6	269.030	-0.220	0.400	0.730
2020/01/31 00:03:06.7	269.040	-0.220	0.390	0.720
2020/01/31 00:03:06.8	269.050	-0.220	0.380	0.710
2020/01/31 00:03:06.9	269.050	-0.220	0.370	0.690
2020/01/31 00:03:07.0	269.060	-0.220	0.350	0.680
2020/01/31 00:03:07.1	269.060	-0.210	0.330	0.660
2020/01/31 00:03:07.2	269.070	-0.210	0.310	0.650
2020/01/31 00:03:07.3	269.070	-0.200	0.290	0.630
2020/01/31 00:03:07.4	269.070	-0.190	0.260	0.610
2020/01/31 00:03:07.5	269.070	-0.180	0.240	0.600
2020/01/31 00:03:07.6	269.070	-0.170	0.210	0.580
2020/01/31 00:03:07.7	269.060	-0.160	0.170	0.560
2020/01/31 00:03:07.8	269.060	-0.150	0.140	0.550
2020/01/31 00:03:07.9	269.050	-0.130	0.110	0.540
2020/01/31 00:03:08.0	269.050	-0.120	0.080	0.520
2020/01/31 00:03:08.1	269.040	-0.100	0.040	0.510
2020/01/31 00:03:08.2	269.020	-0.080	0.000	0.500
2020/01/31 00:03:08.3	269.010	-0.060	-0.040	0.500
2020/01/31 00:03:08.4	269.000	-0.040	-0.080	0.490
2020/01/31 00:03:08.5	268.980	-0.020	-0.120	0.490
2020/01/31 00:03:08.6	268.970	-0.000	-0.160	0.490
2020/01/31 00:03:08.7	268.950	0.020	-0.200	0.490
2020/01/31 00:03:08.8	268.930	0.040	-0.240	0.490
2020/01/31 00:03:08.9	268.920	0.060	-0.290	0.500
2020/01/31 00:03:09.0	268.900	0.080	-0.330	0.510
2020/01/31 00:03:09.1	268.880	0.100	-0.370	0.530
2020/01/31 00:03:09.2	268.860	0.130	-0.400	0.540
2020/01/31 00:03:09.3	268.840	0.150	-0.440	0.560
2020/01/31 00:03:09.4	268.810	0.170	-0.470	0.580
2020/01/31 00:03:09.5	268.790	0.190	-0.500	0.600
2020/01/31 00:03:09.6	268.770	0.210	-0.530	0.620
2020/01/31 00:03:09.7	268.740	0.230	-0.560	0.650
2020/01/31 00:03:09.8	268.720	0.250	-0.590	0.670
2020/01/31 00:03:09.9	268.690	0.270	-0.610	0.700
2020/01/31 00:03:10.0	268.660	0.290	-0.630	0.730
2020/01/31 00:03:10.1	268.630	0.310	-0.650	0.760
2020/01/31 00:03:10.2	268.600	0.330	-0.670	0.790
2020/01/31 00:03:10.3	268.580	0.340	-0.690	0.820
2020/01/31 00:03:10.4	268.550	0.360	-0.710	0.860
2020/01/31 00:03:10.5	268.520	0.370	-0.720	0.890
2020/01/31 00:03:10.6	268.490	0.390	-0.740	0.920
2020/01/31 00:03:10.7	268.470	0.400	-0.750	0.960
2020/01/31 00:03:10.8	268.440	0.410	-0.760	0.990
2020/01/31 00:03:10.9	268.410	0.430	-0.770	1.030
2020/01/31 00:03:11.0	268.380	0.440	-0.780	1.060
2020/01/31 00:03:11.1	268.350	0.440	-0.780	1.090
2020/01/31 00:03:11.2	268.320	0.450	-0.790	1.130
2020/01/31 00:03:11.3	268.290	0.460	-0.790	1.160
2020/01/31 00:03:11.4	268.270	0.460	-0.790	1.190
2020/01/31 00:03:11.5	268.240	0.470	-0.800	1.210
2020/01/31 00:03:11.6	268.210	0.470	-0.800	1.240
2020/01/31 00:03:11.7	268.180	0.470	-0.800	1.260
2020/01/31 00:03:11.8	268.150	0.470	-0.790	1.280
2020/01/31 00:03:11.9	268.120	0.470	-0.790	1.300
2020/01/31 00:03:12.0	268.110	0.470	-0.780	1.320
2020/01/31 00:03:12.1	268.080	0.460	-0.780	1.330
2020/01/31 00:03:12.2	268.050	0.460	-0.770	1.340
2020/01/31 00:03:12.3	268.030	0.450	-0.770	1.350
2020/01/31 00:03:12.4	268.000	0.440	-0.760	1.360
2020/01/31 00:03:12.5	267.980	0.430	-0.750	1.360
2020/01/31 00:03:12.6	267.960	0.420	-0.740	1.360
2020/01/31 00:03:12.7	267.940	0.410	-0.730	1.350
2020/01/31 00:03:12.8	267.920	0.400	-0.720	1.350
2020/01/31 00:03:12.9	267.900	0.380	-0.710	1.340
2020/01/31 00:03:13.0	267.890	0.370	-0.700	1.320
2020/01/31 00:03:13.1	267.880	0.350	-0.690	1.300
2020/01/31 00:03:13.2	267.870	0.330	-0.680	1.280
2020/01/31 00:03:13.3	267.860	0.310	-0.670	1.260
2020/01/31 00:03:13.4	267.850	0.290	-0.650	1.240
2020/01/31 00:03:13.5	267.850	0.270	-0.640	1.210
2020/01/31 00:03:13.6	267.840	0.250	-0.630	1.180
2020/01/31 00:03:13.7	267.840	0.230	-0.620	1.150
2020/01/31 00:03:13.8	267.850	0.210	-0.600	1.120
2020/01/31 00:03:13.9	267.850	0.190	-0.590	1.090
2020/01/31 00:03:14.0	267.860	0.170	-0.580	1.060
2020/01/31 00:03:14.1	267.870	0.150	-0.560	1.020
2020/01/31 00:03:14.2	267.880	0.130	-0.550	0.990
2020/01/31 00:03:14.3	267.890	0.110	-0.540	0.960
2020/01/31 00:03:14.4	267.900	0.090	-0.530	0.930
2020/01/31 00:03:14.5	267.910	0.070	-0.510	0.890
2020/01/31 00:03:14.6	267.930	0.050	-0.500	0.860
2020/01/31 00:03:14.7	267.940	0.030	-0.490	0.830
2020/01/31 00:03:14.8	267.960	0.010	-0.480	0.800
2020/01/31 00:03:14.9	267.970	-0.010	-0.470	0.770
2020/01/31 00:03:15.0	268.000	-0.030	-0.460	0.740
2020/01/31 00:03:15.1	268.010	-0.040	-0.450	0.710
2020/01/31 00:03:15.2	268.040	-0.060	-0.440	0.680
2020/01/31 00:03:15.3	268.060	-0.070	-0.430	0.660
2020/01/31 00:03:15.4	268.080	-0.090	-0.430	0.630
2020/01/31 00:03:15.5	268.100	-0.100	-0.420	0.600
2020/01/31 00:03:15.6	268.120	-0.110	-0.410	0.580
2020/01/31 00:03:15.7	268.150	-0.120	-0.410	0.560
2020/01/31 00:03:15.8	268.170	-0.130	-0.400	0.530
2020/01/31 00:03:15.9	268.180	-0.140	-0.390	0.510
2020/01/31 00:03:16.0	268.210	-0.150	-0.390	0.490
2020/01/31 00:03:16.1	268.240	-0.150	-0.380	0.470
2020/01/31 00:03:16.2	268.270	-0.160	-0.380	0.450
2020/01/31 00:03:16.3	268.300	-0.170	-0.380	0.440
2020/01/31 00:03:16.4	268.330	-0.170	-0.370	0.420
2020/01/31 00:03:16.5	268.360	-0.170	-0.370	0.410
2020/01/31 00:03:16.6	268.390	-0.170	-0.360	0.400
2020/01/31 00:03:16.7	268.420	-0.170	-0.350	0.390
2020/01/31 00:03:16.8	268.450	-0.170	-0.350	0.380
2020/01/31 00:03:16.9	268.490	-0.170	-0.340	0.380
2020/01/31 00:03:17.0	268.520	-0.170	-0.330	0.370
2020/01/31 00:03:17.1	268.550	-0.170	-0.320	0.370
2020/01/31 00:03:17.2	268.590	-0.170	-0.310	0.370
2020/01/31 00:03:17.3	268.620	-0.170	-0.300	0.370
2020/01/31 00:03:17.4	268.660	-0.160	-0.280	0.370
2020/01/31 00:03:17.5	268.690	-0.160	-0.270	0.380
2020/01/31 00:03:17.6	268.730	-0.160	-0.250	0.380
2020/01/31 00:03:17.7	268.760	-0.150	-0.240	0.390
2020/01/31 00:03:17.8	268.800	-0.150	-0.220	0.390
2020/01/31 00:03:17.9	268.830	-0.150	-0.200	0.400
2020/01/31 00:03:18.0	268.870	-0.140	-0.180	0.410
2020/01/31 00:03:18.1	268.910	-0.140	-0.160	0.420
2020/01/31 00:03:18.2	268.940	-0.140	-0.140	0.440
2020/01/31 00:03:18.3	268.970	-0.140	-0.110	0.450
2020/01/31 00:03:18.4	269.010	-0.140	-0.090	0.470
2020/01/31 00:03:18.5	269.040	-0.140	-0.070	0.490
2020/01/31 00:03:18.6	269.060	-0.140	-0.050	0.500
2020/01/31 00:03:18.7	269.090	-0.140	-0.030	0.520
2020/01/31 00:03:18.8	269.120	-0.140	-0.010	0.540
2020/01/31 00:03:18.9	269.140	-0.140	0.020	0.560
2020/01/31 00:03:19.0	269.170	-0.140	0.030	0.580
2020/01/31 00:03:19.1	269.190	-0.150	0.050	0.600
2020/01/31 00:03:19.2	269.200	-0.150	0.070	0.620
2020/01/31 00:03:19.3	269.220	-0.160	0.080	0.640
2020/01/31 00:03:19.4	269.240	-0.160	0.100	0.660
2020/01/31 00:03:19.5	269.250	-0.170	0.110	0.680
2020/01/31 00:03:19.6	269.260	-0.180	0.120	0.690
2020/01/31 00:03:19.7	269.270	-0.180	0.130	0.710
2020/01/31 00:03:19.8	269.280	-0.190	0.140	0.720
2020/01/31 00:03:19.9	269.280	-0.200	0.150	0.730
2020/01/31 00:03:20.0	269.290	-0.210	0.150	0.740
2020/01/31 00:03:20.1	269.290	-0.220	0.160	0.750
2020/01/31 00:03:20.2	269.300	-0.230	0.160	0.750
2020/01/31 00:03:20.3	269.300	-0.240	0.150	0.760
2020/01/31 00:03:20.4	269.300	-0.250	0.150	0.760
2020/01/31 00:03:20.5	269.300	-0.260	0.140	0.770
2020/01/31 00:03:20.6	269.300	-0.270	0.130	0.770
2020/01/31 00:03:20.7	269.300	-0.270	0.120	0.770
2020/01/31 00:03:20.8	269.290	-0.280	0.100	0.760
2020/01/31 00:03:20.9	269.290	-0.290	0.080	0.760
2020/01/31 00:03:21.0	269.280	-0.300	0.060	0.760
2020/01/31 00:03:21.1	269.270	-0.300	0.030	0.750
2020/01/31 00:03:21.2	269.270	-0.310	0.010	0.740
2020/01/31 00:03:21.3	269.260	-0.310	-0.020	0.730
2020/01/31 00:03:21.4	269.250	-0.310	-0.050	0.720
2020/01/31 00:03:21.5	269.250	-0.320	-0.090	0.710
2020/01/31 00:03:21.6	269.240	-0.320	-0.120	0.690
2020/01/31 00:03:21.7	269.230	-0.310	-0.160	0.680
2020/01/31 00:03:21.8	269.220	-0.310	-0.190	0.660
2020/01/31 00:03:21.9	269.210	-0.310	-0.230	0.640
2020/01/31 00:03:22.0	269.210	-0.300	-0.270	0.630
2020/01/31 00:03:22.1	269.200	-0.300	-0.310	0.610
2020/01/31 00:03:22.2	269.190	-0.290	-0.350	0.590
2020/01/31 00:03:22.3	269.170	-0.280	-0.390	0.570
2020/01/31 00:03:22.4	269.160	-0.270	-0.420	0.550
2020/01/31 00:03:22.5	269.150	-0.260	-0.460	0.520
2020/01/31 00:03:22.6	269.130	-0.250	-0.490	0.500
2020/01/31 00:03:22.7	269.120	-0.240	-0.530	0.480
2020/01/31 00:03:22.8	269.100	-0.220	-0.560	0.460
2020/01/31 00:03:22.9	269.090	-0.210	-0.580	0.440
2020/01/31 00:03:23.0	269.070	-0.190	-0.610	0.430
2020/01/31 00:03:23.1	269.050	-0.180	-0.630	0.410
2020/01/31 00:03:23.2	269.030	-0.160	-0.650	0.390
2020/01/31 00:03:23.3	269.010	-0.150	-0.670	0.380
2020/01/31 00:03:23.4	268.990	-0.130	-0.680	0.370
2020/01/31 00:03:23.5	268.960	-0.110	-0.700	0.360
2020/01/31 00:03:23.6	268.940	-0.090	-0.700	0.350
2020/01/31 00:03:23.7	268.910	-0.080	-0.710	0.340
2020/01/31 00:03:23.8	268.890	-0.060	-0.710	0.340
2020/01/31 00:03:23.9	268.860	-0.040	-0.710	0.340
2020/01/31 00:03:24.0	268.820	-0.030	-0.710	0.340
2020/01/31 00:03:24.1	268.790	-0.010	-0.700	0.340
2020/01/31 00:03:24.2	268.760	0.010	-0.690	0.350
2020/01/31 00:03:24.3	268.730	0.020	-0.670	0.360
2020/01/31 00:03:24.4	268.700	0.040	-0.660	0.370
2020/01/31 00:03:24.5	268.670	0.050	-0.640	0.390
2020/01/31 00:03:24.6	268.640	0.060	-0.610	0.400
2020/01/31 00:03:24.7	268.600	0.080	-0.590	0.420
2020/01/31 00:03:24.8	268.570	0.090	-0.570	0.440
2020/01/31 00:03:24.9	268.540	0.100	-0.540	0.470
2020/01/31 00:03:25.0	268.510	0.110	-0.510	0.490
2020/01/31 00:03:25.1	268.480	0.120	-0.480	0.520
2020/01/31 00:03:25.2	268.440	0.120	-0.450	0.550
2020/01/31 00:03:25.3	268.410	0.130	-0.420	0.580
2020/01/31 00:03:25.4	268.380	0.140	-0.390	0.610
2020/01/31 00:03:25.5	268.350	0.140	-0.350	0.640
2020/01/31 00:03:25.6	268.320	0.150	-0.320	0.670
2020/01/31 00:03:25.7	268.290	0.150	-0.290	0.700
2020/01/31 00:03:25.8	268.270	0.160	-0.260	0.730
2020/01/31 00:03:25.9	268.240	0.160	-0.230	0.760
2020/01/31 00:03:26.0	268.210	0.160	-0.200	0.790
2020/01/31 00:03:26.1	268.180	0.160	-0.170	0.820
2020/01/31 00:03:26.2	268.160	0.160	-0.140	0.850
2020/01/31 00:03:26.3	268.130	0.170	-0.110	0.880
2020/01/31 00:03:26.4	268.110	0.170	-0.080	0.900
2020/01/31 00:03:26.5	268.090	0.170	-0.060	0.920
2020/01/31 00:03:26.6	268.070	0.170	-0.030	0.940
2020/01/31 00:03:26.7	268.050	0.170	-0.010	0.960
2020/01/31 00:03:26.8	268.030	0.160	0.020	0.980
2020/01/31 00:03:26.9	268.010	0.160	0.040	0.990
2020/01/31 00:03:27.0	268.000	0.160	0.060	1.010
2020/01/31 00:03:27.1	267.990	0.160	0.080	1.020
2020/01/31 00:03:27.2	267.970	0.160	0.100	1.020
2020/01/31 00:03:27.3	267.960	0.160	0.120	1.020
2020/01/31 00:03:27.4	267.950	0.160	0.130	1.020
2020/01/31 00:03:27.5	267.940	0.160	0.140	1.020
2020/01/31 00:03:27.6	267.940	0.150	0.150	1.010
2020/01/31 00:03:27.7	267.930	0.150	0.160	1.000
2020/01/31 00:03:27.8	267.930	0.150	0.170	0.990
2020/01/31 00:03:27.9	267.930	0.150	0.170	0.970
2020/01/31 00:03:28.0	267.930	0.150	0.180	0.960
2020/01/31 00:03:28.1	267.930	0.150	0.170	0.930
2020/01/31 00:03:28.2	267.930	0.150	0.170	0.910
2020/01/31 00:03:28.3	267.930	0.150	0.170	0.880
2020/01/31 00:03:28.4	267.940	0.160	0.160	0.850
2020/01/31 00:03:28.5	267.940	0.160	0.150	0.820
2020/01/31 00:03:28.6	267.950	0.160	0.130	0.790
2020/01/31 00:03:28.7	267.960	0.160	0.120	0.750
2020/01/31 00:03:28.8	267.970	0.160	0.100	0.720
2020/01/31 00:03:28.9	267.980	0.170	0.080	0.680
2020/01/31 00:03:29.0	267.990	0.170	0.060	0.650
2020/01/31 00:03:29.1	268.010	0.170	0.030	0.620
2020/01/31 00:03:29.2	268.020	0.180	0.000	0.580
2020/01/31 00:03:29.3	268.040	0.180	-0.020	0.550
2020/01/31 00:03:29.4	268.060	0.190	-0.060	0.520
2020/01/31 00:03:29.5	268.080	0.190	-0.090	0.490
2020/01/31 00:03:29.6	268.110	0.200	-0.120	0.460
2020/01/31 00:03:29.7	268.130	0.200	-0.160	0.430
2020/01/31 00:03:29.8	268.160	0.210	-0.190	0.400
2020/01/31 00:03:29.9	268.180	0.210	-0.230	0.370
2020/01/31 00:03:30.0	268.210	0.210	-0.270	0.350
2020/01/31 00:03:30.1	268.240	0.220	-0.300	0.320
2020/01/31 00:03:30.2	268.270	0.220	-0.340	0.300
2020/01/31 00:03:30.3	268.300	0.220	-0.380	0.270
2020/01/31 00:03:30.4	268.330	0.230	-0.410	0.250
2020/01/31 00:03:30.5	268.360	0.230	-0.450	0.230
2020/01/31 00:03:30.6	268.400	0.230	-0.480	0.210
2020/01/31 00:03:30.7	268.430	0.230	-0.510	0.190
2020/01/31 00:03:30.8	268.460	0.230	-0.540	0.170
2020/01/31 00:03:30.9	268.500	0.220	-0.570	0.160
2020/01/31 00:03:31.0	268.530	0.220	-0.600	0.150
2020/01/31 00:03:31.1	268.560	0.220	-0.620	0.130
2020/01/31 00:03:31.2	268.600	0.210	-0.640	0.120
2020/01/31 00:03:31.3	268.630	0.200	-0.660	0.120
2020/01/31 00:03:31.4	268.660	0.200	-0.680	0.110
2020/01/31 00:03:31.5	268.690	0.190	-0.700	0.110
2020/01/31 00:03:31.6	268.720	0.180	-0.710	0.110
2020/01/31 00:03:31.7	268.750	0.170	-0.720	0.110
2020/01/31 00:03:31.8	268.780	0.150	-0.730	0.110
2020/01/31 00:03:31.9	268.800	0.140	-0.740	0.120
2020/01/31 00:03:32.0	268.830	0.130	-0.740	0.120
2020/01/31 00:03:32.1	268.850	0.110	-0.740	0.130
2020/01/31 00:03:32.2	268.870	0.090	-0.740	0.140
2020/01/31 00:03:32.3	268.900	0.080	-0.740	0.150
2020/01/31 00:03:32.4	268.920	0.060	-0.730	0.160
2020/01/31 00:03:32.5	268.940	0.040	-0.730	0.180
2020/01/31 00:03:32.6	268.960	0.030	-0.720	0.190
2020/01/31 00:03:32.7	268.980	0.010	-0.710	0.210
2020/01/31 00:03:32.8	269.000	-0.010	-0.700	0.230
2020/01/31 00:03:32.9	269.010	-0.030	-0.690	0.240
2020/01/31 00:03:33.0	269.030	-0.040	-0.680	0.260
2020/01/31 00:03:33.1	269.050	-0.060	-0.670	0.280
2020/01/31 00:03:33.2	269.060	-0.080	-0.660	0.300
2020/01/31 00:03:33.3	269.080	-0.090	-0.640	0.320
2020/01/31 00:03:33.4	269.090	-0.110	-0.630	0.340
2020/01/31 00:03:33.5	269.110	-0.120	-0.630	0.350
2020/01/31 00:03:33.6	269.120	-0.130	-0.620	0.370
2020/01/31 00:03:33.7	269.130	-0.140	-0.610	0.390
2020/01/31 00:03:33.8	269.140	-0.150	-0.600	0.400
2020/01/31 00:03:33.9	269.150	-0.160	-0.600	0.420
2020/01/31 00:03:34.0	269.170	-0.170	-0.600	0.430
2020/01/31 00:03:34.1	269.170	-0.180	-0.600	0.440
2020/01/31 00:03:34.2	269.180	-0.180	-0.600	0.460
2020/01/31 00:03:34.3	269.190	-0.180	-0.600	0.470
2020/01/31 00:03:34.4	269.190	-0.190	-0.610	0.480
2020/01/31 00:03:34.5	269.200	-0.190	-0.620	0.490
2020/01/31 00:03:34.6	269.200	-0.180	-0.630	0.500
2020/01/31 00:03:34.7	269.200	-0.180	-0.640	0.510
2020/01/31 00:03:34.8	269.200	-0.180	-0.650	0.520
2020/01/31 00:03:34.9	269.200	-0.170	-0.660	0.530
2020/01/31 00:03:35.0	269.200	-0.160	-0.680	0.530
2020/01/31 00:03:35.1	269.200	-0.160	-0.690	0.540
2020/01/31 00:03:35.2	269.190	-0.150	-0.700	0.550
2020/01/31 00:03:35.3	269.180	-0.140	-0.720	0.550
2020/01/31 00:03:35.4	269.180	-0.130	-0.730	0.560
2020/01/31 00:03:35.5	269.170	-0.120	-0.740	0.560
2020/01/31 00:03:35.6	269.160	-0.110	-0.760	0.570
2020/01/31 00:03:35.7	269.140	-0.100	-0.770	0.580
2020/01/31 00:03:35.8	269.130	-0.090	-0.770	0.580
2020/01/31 00:03:35.9	269.110	-0.070	-0.780	0.590
2020/01/31 00:03:36.0	269.090	-0.060	-0.780	0.590
2020/01/31 00:03:36.1	269.070	-0.060	-0.780	0.600
2020/01/31 00:03:36.2	269.050	-0.050	-0.780	0.610
2020/01/31 00:03:36.3	269.030	-0.040	-0.770	0.620
2020/01/31 00:03:36.4	269.010	-0.030	-0.760	0.630
2020/01/31 00:03:36.5	268.990	-0.030	-0.750	0.630
2020/01/31 00:03:36.6	268.960	-0.030	-0.740	0.640
2020/01/31 00:03:36.7	268.940	-0.020	-0.720	0.650
2020/01/31 00:03:36.8	268.910	-0.020	-0.690	0.660
2020/01/31 00:03:36.9	268.890	-0.020	-0.670	0.670
2020/01/31 00:03:37.0	268.860	-0.030	-0.640	0.680
2020/01/31 00:03:37.1	268.830	-0.030	-0.600	0.690
2020/01/31 00:03:37.2	268.800	-0.040	-0.570	0.700
2020/01/31 00:03:37.3	268.780	-0.040	-0.530	0.700
2020/01/31 00:03:37.4	268.750	-0.050	-0.490	0.710
2020/01/31 00:03:37.5	268.720	-0.060	-0.450	0.710
2020/01/31 00:03:37.6	268.690	-0.080	-0.410	0.720
2020/01/31 00:03:37.7	268.660	-0.090	-0.360	0.720
2020/01/31 00:03:37.8	268.630	-0.100	-0.320	0.720
2020/01/31 00:03:37.9	268.600	-0.120	-0.270	0.720
2020/01/31 00:03:38.0	268.570	-0.130	-0.220	0.720
2020/01/31 00:03:38.1	268.540	-0.150	-0.170	0.710
2020/01/31 00:03:38.2	268.510	-0.170	-0.120	0.710
2020/01/31 00:03:38.3	268.480	-0.190	-0.070	0.700
2020/01/31 00:03:38.4	268.450	-0.210	-0.020	0.690
2020/01/31 00:03:38.5	268.420	-0.230	0.030	0.680
2020/01/31 00:03:38.6	268.390	-0.250	0.080	0.660
2020/01/31 00:03:38.7	268.350	-0.260	0.130	0.650
2020/01/31 00:03:38.8	268.320	-0.280	0.170	0.630
2020/01/31 00:03:38.9	268.290	-0.300	0.220	0.610
2020/01/31 00:03:39.0	268.260	-0.320	0.260	0.600
2020/01/31 00:03:39.1	268.230	-0.330	0.300	0.580
2020/01/31 00:03:39.2	268.200	-0.350	0.340	0.560
2020/01/31 00:03:39.3	268.170	-0.360	0.380	0.540
2020/01/31 00:03:39.4	268.140	-0.370	0.420	0.510
2020/01/31 00:03:39.5	268.120	-0.390	0.450	0.490
2020/01/31 00:03:39.6	268.090	-0.400	0.480	0.470
2020/01/31 00:03:39.7	268.070	-0.400	0.510	0.450
2020/01/31 00:03:39.8	268.050	-0.410	0.540	0.420
2020/01/31 00:03:39.9	268.030	-0.420	0.560	0.400
2020/01/31 00:03:40.0	268.020	-0.420	0.580	0.370
2020/01/31 00:03:40.1	268.000	-0.420	0.600	0.350
2020/01/31 00:03:40.2	267.990	-0.420	0.620	0.320
2020/01/31 00:03:40.3	267.980	-0.420	0.640	0.300
2020/01/31 00:03:40.4	267.970	-0.420	0.650	0.270
2020/01/31 00:03:40.5	267.960	-0.410	0.650	0.250
2020/01/31 00:03:40.6	267.950	-0.400	0.660	0.220
2020/01/31 00:03:40.7	267.950	-0.390	0.660	0.200
2020/01/31 00:03:40.8	267.940	-0.380	0.660	0.180
2020/01/31 00:03:40.9	267.950	-0.370	0.660	0.160
2020/01/31 00:03:41.0	267.950	-0.360	0.650	0.140
2020/01/31 00:03:41.1	267.960	-0.350	0.640	0.120
2020/01/31 00:03:41.2	267.960	-0.330	0.630	0.100
2020/01/31 00:03:41.3	267.960	-0.320	0.610	0.090
2020/01/31 00:03:41.4	267.970	-0.300	0.600	0.080
2020/01/31 00:03:41.5	267.980	-0.280	0.570	0.070
2020/01/31 00:03:41.6	267.980	-0.260	0.550	0.060
2020/01/31 00:03:41.7	267.990	-0.240	0.520	0.060
2020/01/31 00:03:41.8	268.000	-0.220	0.490	0.050
2020/01/31 00:03:41.9	268.020	-0.200	0.460	0.050
2020/01/31 00:03:42.0	268.030	-0.180	0.420	0.050
2020/01/31 00:03:42.1	268.050	-0.160	0.380	0.060
2020/01/31 00:03:42.2	268.060	-0.140	0.350	0.060
2020/01/31 00:03:42.3	268.080	-0.110	0.300	0.070
2020/01/31 00:03:42.4	268.100	-0.090	0.260	0.080
2020/01/31 00:03:42.5	268.120	-0.070	0.210	0.100
2020/01/31 00:03:42.6	268.140	-0.050	0.170	0.110
2020/01/31 00:03:42.7	268.160	-0.020	0.120	0.130
2020/01/31 00:03:42.8	268.180	-0.000	0.070	0.150
2020/01/31 00:03:42.9	268.190	0.020	0.020	0.160
2020/01/31 00:03:43.0	268.210	0.040	-0.040	0.190
2020/01/31 00:03:43.1	268.240	0.060	-0.090	0.210
2020/01/31 00:03:43.2	268.260	0.090	-0.140	0.230
2020/01/31 00:03:43.3	268.290	0.110	-0.200	0.260
2020/01/31 00:03:43.4	268.320	0.130	-0.250	0.280
2020/01/31 00:03:43.5	268.350	0.150	-0.300	0.310
2020/01/31 00:03:43.6	268.380	0.170	-0.360	0.340
2020/01/31 00:03:43.7	268.410	0.190	-0.410	0.370
2020/01/31 00:03:43.8	268.440	0.210	-0.460	0.400
2020/01/31 00:03:43.9	268.470	0.220	-0.510	0.430
2020/01/31 00:03:44.0	268.500	0.240	-0.560	0.460
2020/01/31 00:03:44.1	268.530	0.260	-0.610	0.490
2020/01/31 00:03:44.2	268.560	0.270	-0.660	0.520
2020/01/31 00:03:44.3	268.590	0.290	-0.710	0.550
2020/01/31 00:03:44.4	268.620	0.300	-0.750	0.590
2020/01/31 00:03:44.5	268.650	0.320	-0.790	0.620
2020/01/31 00:03:44.6	268.690	0.330	-0.830	0.650
2020/01/31 00:03:44.7	268.720	0.340	-0.870	0.680
2020/01/31 00:03:44.8	268.740	0.350	-0.910	0.720
2020/01/31 00:03:44.9	268.770	0.360	-0.940	0.750
2020/01/31 00:03:45.0	268.800	0.370	-0.970	0.780
2020/01/31 00:03:45.1	268.830	0.380	-1.000	0.810
2020/01/31 00:03:45.2	268.860	0.380	-1.030	0.840
2020/01/31 00:03:45.3	268.880	0.390	-1.050	0.870
2020/01/31 00:03:45.4	268.910	0.390	-1.070	0.900
2020/01/31 00:03:45.5	268.930	0.400	-1.090	0.930
2020/01/31 00:03:45.6	268.950	0.400	-1.100	0.960
2020/01/31 00:03:45.7	268.970	0.400	-1.110	0.990
2020/01/31 00:03:45.8	269.000	0.400	-1.120	1.020
2020/01/31 00:03:45.9	269.010	0.400	-1.130	1.050
2020/01/31 00:03:46.0	269.030	0.400	-1.130	1.070
2020/01/31 00:03:46.1	269.040	0.390	-1.130	1.090
2020/01/31 00:03:46.2	269.060	0.390	-1.130	1.110
2020/01/31 00:03:46.3	269.080	0.380	-1.130	1.130
2020/01/31 00:03:46.4	269.090	0.380	-1.130	1.150
2020/01/31 00:03:46.5	269.100	0.370	-1.120	1.170
2020/01/31 00:03:46.6	269.110	0.360	-1.110	1.180
2020/01/31 00:03:46.7	269.120	0.350	-1.110	1.190
2020/01/31 00:03:46.8	269.130	0.340	-1.100	1.200
2020/01/31 00:03:46.9	269.130	0.330	-1.080	1.210
2020/01/31 00:03:47.0	269.130	0.320	-1.070	1.220
2020/01/31 00:03:47.1	269.140	0.310	-1.060	1.230
2020/01/31 00:03:47.2	269.130	0.290	-1.050	1.230
2020/01/31 00:03:47.3	269.130	0.280	-1.030	1.230
2020/01/31 00:03:47.4	269.120	0.260	-1.020	1.230
2020/01/31 00:03:47.5	269.120	0.250	-1.000	1.230
2020/01/31 00:03:47.6	269.100	0.230	-0.990	1.230
2020/01/31 00:03:47.7	269.090	0.210	-0.970	1.230
2020/01/31 00:03:47.8	269.080	0.200	-0.950	1.220
2020/01/31 00:03:47.9	269.060	0.180	-0.940	1.210
2020/01/31 00:03:48.0	269.030	0.160	-0.920	1.200
2020/01/31 00:03:48.1	269.010	0.140	-0.900	1.190
2020/01/31 00:03:48.2	268.990	0.120	-0.880	1.180
2020/01/31 00:03:48.3	268.960	0.100	-0.860	1.160
2020/01/31 00:03:48.4	268.930	0.080	-0.830	1.150
2020/01/31 00:03:48.5	268.910	0.060	-0.810	1.130
2020/01/31 00:03:48.6	268.880	0.040	-0.790	1.120
2020/01/31 00:03:48.7	268.850	0.020	-0.760	1.100
2020/01/31 00:03:48.8	268.810	-0.000	-0.730	1.080
2020/01/31 00:03:48.9	268.780	-0.020	-0.700	1.070
2020/01/31 00:03:49.0	268.750	-0.040	-0.670	1.050
2020/01/31 00:03:49.1	268.710	-0.070	-0.640	1.030
2020/01/31 00:03:49.2	268.670	-0.090	-0.610	1.010
2020/01/31 00:03:49.3	268.640	-0.110	-0.570	0.990
2020/01/31 00:03:49.4	268.600	-0.130	-0.540	0.970
2020/01/31 00:03:49.5	268.560	-0.150	-0.500	0.950
2020/01/31 00:03:49.6	268.520	-0.170	-0.460	0.930
2020/01/31 00:03:49.7	268.480	-0.180	-0.420	0.910
2020/01/31 00:03:49.8	268.450	-0.200	-0.380	0.890
2020/01/31 00:03:49.9	268.410	-0.220	-0.340	0.870
2020/01/31 00:03:50.0	268.370	-0.240	-0.300	0.850
2020/01/31 00:03:50.1	268.330	-0.250	-0.260	0.830
2020/01/31 00:03:50.2	268.290	-0.260	-0.220	0.810
2020/01/31 00:03:50.3	268.260	-0.280	-0.180	0.790
2020/01/31 00:03:50.4	268.220	-0.290	-0.140	0.770
2020/01/31 00:03:50.5	268.190	-0.300	-0.100	0.750
2020/01/31 00:03:50.6	268.160	-0.310	-0.060	0.730
2020/01/31 00:03:50.7	268.130	-0.310	-0.020	0.710
2020/01/31 00:03:50.8	268.100	-0.320	0.020	0.700
2020/01/31 00:03:50.9	268.070	-0.320	0.050	0.680
2020/01/31 00:03:51.0	268.060	-0.320	0.080	0.670
2020/01/31 00:03:51.1	268.030	-0.320	0.120	0.650
2020/01/31 00:03:51.2	268.010	-0.320	0.140	0.640
2020/01/31 00:03:51.3	267.990	-0.310	0.170	0.630
2020/01/31 00:03:51.4	267.970	-0.310	0.200	0.620
2020/01/31 00:03:51.5	267.960	-0.300	0.220	0.610
2020/01/31 00:03:51.6	267.940	-0.290	0.240	0.600
2020/01/31 00:03:51.7	267.930	-0.280	0.260	0.590
2020/01/31 00:03:51.8	267.920	-0.260	0.270	0.580
2020/01/31 00:03:51.9	267.910	-0.250	0.280	0.580
2020/01/31 00:03:52.0	267.900	-0.230	0.290	0.580
2020/01/31 00:03:52.1	267.890	-0.210	0.300	0.570
2020/01/31 00:03:52.2	267.890	-0.190	0.300	0.570
2020/01/31 00:03:52.3	267.890	-0.170	0.310	0.570
2020/01/31 00:03:52.4	267.880	-0.150	0.310	0.570
2020/01/31 00:03:52.5	267.880	-0.130	0.310	0.570
2020/01/31 00:03:52.6	267.890	-0.100	0.310	0.570
2020/01/31 00:03:52.7	267.890	-0.080	0.300	0.570
2020/01/31 00:03:52.8	267.890	-0.060	0.300	0.570
2020/01/31 00:03:52.9	267.900	-0.030	0.290	0.580
2020/01/31 00:03:53.0	267.910	-0.010	0.290	0.580
2020/01/31 00:03:53.1	267.920	0.020	0.280	0.590
2020/01/31 00:03:53.2	267.930	0.040	0.270	0.600
2020/01/31 00:03:53.3	267.940	0.070	0.260	0.610
2020/01/31 00:03:53.4	267.950	0.090	0.250	0.620
2020/01/31 00:03:53.5	267.960	0.110	0.240	0.630
2020/01/31 00:03:53.6	267.980	0.130	0.230	0.640
2020/01/31 00:03:53.7	267.990	0.150	0.210	0.660
2020/01/31 00:03:53.8	268.010	0.170	0.200	0.680
2020/01/31 00:03:53.9	268.020	0.190	0.190	0.690
2020/01/31 00:03:54.0	268.040	0.210	0.180	0.710
2020/01/31 00:03:54.1	268.050	0.220	0.170	0.730
2020/01/31 00:03:54.2	268.070	0.240	0.150	0.750
2020/01/31 00:03:54.3	268.090	0.250	0.140	0.770
2020/01/31 00:03:54.4	268.100	0.260	0.130	0.790
2020/01/31 00:03:54.5	268.120	0.270	0.120	0.810
2020/01/31 00:03:54.6	268.140	0.270	0.110	0.830
2020/01/31 00:03:54.7	268.160	0.280	0.090	0.850
2020/01/31 00:03:54.8	268.180	0.280	0.080	0.870
2020/01/31 00:03:54.9	268.190	0.290	0.070	0.880
2020/01/31 00:03:55.0	268.210	0.290	0.060	0.900
2020/01/31 00:03:55.1	268.230	0.280	0.050	0.920
2020/01/31 00:03:55.2	268.250	0.280	0.040	0.930
2020/01/31 00:03:55.3	268.270	0.280	0.030	0.950
2020/01/31 00:03:55.4	268.290	0.270	0.020	0.960
2020/01/31 00:03:55.5	268.300	0.260	0.010	0.970
2020/01/31 00:03:55.6	268.320	0.250	-0.000	0.970
2020/01/31 00:03:55.7	268.340	0.240	-0.010	0.980
2020/01/31 00:03:55.8	268.360	0.230	-0.030	0.990
2020/01/31 00:03:55.9	268.380	0.220	-0.040	0.990
2020/01/31 00:03:56.0	268.390	0.210	-0.050	0.990
2020/01/31 00:03:56.1	268.410	0.190	-0.060	0.990
2020/01/31 00:03:56.2	268.430	0.180	-0.070	0.990
2020/01/31 00:03:56.3	268.450	0.170	-0.080	0.990
2020/01/31 00:03:56.4	268.470	0.150	-0.090	0.980
2020/01/31 00:03:56.5	268.480	0.140	-0.110	0.980
2020/01/31 00:03:56.6	268.500	0.120	-0.120	0.970
2020/01/31 00:03:56.7	268.520	0.110	-0.140	0.960
2020/01/31 00:03:56.8	268.540	0.090	-0.150	0.950
2020/01/31 00:03:56.9	268.560	0.080	-0.170	0.930
2020/01/31 00:03:57.0	268.580	0.060	-0.190	0.920
2020/01/31 00:03:57.1	268.590	0.050	-0.210	0.900
2020/01/31 00:03:57.2	268.610	0.030	-0.230	0.880
2020/01/31 00:03:57.3	268.630	0.020	-0.260	0.860
2020/01/31 00:03:57.4	268.650	0.010	-0.280	0.840
2020/01/31 00:03:57.5	268.660	-0.000	-0.310	0.810
2020/01/31 00:03:57.6	268.680	-0.010	-0.330	0.790
2020/01/31 00:03:57.7	268.690	-0.020	-0.360	0.760
2020/01/31 00:03:57.8	268.710	-0.030	-0.390	0.730
2020/01/31 00:03:57.9	268.720	-0.040	-0.420	0.700
2020/01/31 00:03:58.0	268.730	-0.050	-0.450	0.670
2020/01/31 00:03:58.1	268.740	-0.060	-0.480	0.640
2020/01/31 00:03:58.2	268.760	-0.060	-0.510	0.610
2020/01/31 00:03:58.3	268.770	-0.070	-0.540	0.580
2020/01/31 00:03:58.4	268.780	-0.070	-0.570	0.550
2020/01/31 00:03:58.5	268.790	-0.070	-0.600	0.520
2020/01/31 00:03:58.6	268.800	-0.080	-0.630	0.500
2020/01/31 00:03:58.7	268.810	-0.080	-0.660	0.470
2020/01/31 00:03:58.8	268.820	-0.080	-0.690	0.450
2020/01/31 00:03:58.9	268.820	-0.080	-0.710	0.430
2020/01/31 00:03:59.0	268.830	-0.080	-0.740	0.410
2020/01/31 00:03:59.1	268.830	-0.080	-0.760	0.390
2020/01/31 00:03:59.2	268.840	-0.080	-0.780	0.370
2020/01/31 00:03:59.3	268.840	-0.080	-0.800	0.350
2020/01/31 00:03:59.4	268.850	-0.080	-0.820	0.330
2020/01/31 00:03:59.5	268.850	-0.080	-0.830	0.320
2020/01/31 00:03:59.6	268.850	-0.090	-0.850	0.310
2020/01/31 00:03:59.7	268.850	-0.090	-0.860	0.290
2020/01/31 00:03:59.8	268.850	-0.090	-0.870	0.290
2020/01/31 00:03:59.9	268.860	-0.090	-0.870	0.280
2020/01/31 00:04:00.0	268.860	-0.090	-0.880	0.270
2020/01/31 00:04:00.1	268.850	-0.090	-0.880	0.270
2020/01/31 00:04:00.2	268.840	-0.090	-0.880	0.260
2020/01/31 00:04:00.3	268.840	-0.100	-0.880	0.260
2020/01/31 00:04:00.4	268.830	-0.100	-0.870	0.270
2020/01/31 00:04:00.5	268.820	-0.100	-0.870	0.270
2020/01/31 00:04:00.6	268.810	-0.110	-0.860	0.280
2020/01/31 00:04:00.7	268.790	-0.110	-0.860	0.280
2020/01/31 00:04:00.8	268.780	-0.120	-0.850	0.290
2020/01/31 00:04:00.9	268.750	-0.120	-0.840	0.310
2020/01/31 00:04:01.0	268.730	-0.130	-0.830	0.320
2020/01/31 00:04:01.1	268.720	-0.130	-0.810	0.330
2020/01/31 00:04:01.2	268.700	-0.140	-0.800	0.350
2020/01/31 00:04:01.3	268.690	-0.150	-0.790	0.370
2020/01/31 00:04:01.4	268.670	-0.160	-0.770	0.380
2020/01/31 00:04:01.5	268.650	-0.170	-0.750	0.400
2020/01/31 00:04:01.6	268.640	-0.170	-0.740	0.420
2020/01/31 00:04:01.7	268.620	-0.180	-0.720	0.450
2020/01/31 00:04:01.8	268.610	-0.190	-0.700	0.470
2020/01/31 00:04:01.9	268.590	-0.200	-0.690	0.490
2020/01/31 00:04:02.0	268.570	-0.210	-0.660	0.520
2020/01/31 00:04:02.1	268.560	-0.220	-0.640	0.550
2020/01/31 00:04:02.2	268.540	-0.230	-0.620	0.570
2020/01/31 00:04:02.3	268.530	-0.230	-0.600	0.600
2020/01/31 00:04:02.4	268.510	-0.240	-0.580	0.630
2020/01/31 00:04:02.5	268.500	-0.250	-0.560	0.650
2020/01/31 00:04:02.6	268.490	-0.260	-0.540	0.680
2020/01/31 00:04:02.7	268.470	-0.260	-0.520	0.710
2020/01/31 00:04:02.8	268.460	-0.270	-0.500	0.730
2020/01/31 00:04:02.9	268.460	-0.280	-0.470	0.770
2020/01/31 00:04:03.0	268.440	-0.280	-0.450	0.790
2020/01/31 00:04:03.1	268.430	-0.280	-0.430	0.820
2020/01/31 00:04:03.2	268.420	-0.290	-0.400	0.840
2020/01/31 00:04:03.3	268.400	-0.290	-0.380	0.860
2020/01/31 00:04:03.4	268.390	-0.290	-0.360	0.880
2020/01/31 00:04:03.5	268.380	-0.290	-0.340	0.900
2020/01/31 00:04:03.6	268.370	-0.290	-0.320	0.920
2020/01/31 00:04:03.7	268.350	-0.290	-0.300	0.930
2020/01/31 00:04:03.8	268.340	-0.290	-0.280	0.940
2020/01/31 00:04:03.9	268.340	-0.290	-0.260	0.960
2020/01/31 00:04:04.0	268.330	-0.280	-0.240	0.970
2020/01/31 00:04:04.1	268.310	-0.280	-0.230	0.980
2020/01/31 00:04:04.2	268.300	-0.270	-0.210	0.980
2020/01/31 00:04:04.3	268.290	-0.270	-0.190	0.990
2020/01/31 00:04:04.4	268.280	-0.260	-0.180	0.990
2020/01/31 00:04:04.5	268.280	-0.250	-0.160	0.990
2020/01/31 00:04:04.6	268.270	-0.240	-0.150	0.990
2020/01/31 00:04:04.7	268.260	-0.230	-0.140	0.990
2020/01/31 00:04:04.8	268.250	-0.220	-0.130	0.980
2020/01/31 00:04:04.9	268.250	-0.200	-0.110	0.970
2020/01/31 00:04:05.0	268.240	-0.190	-0.100	0.960
2020/01/31 00:04:05.1	268.240	-0.170	-0.100	0.950
2020/01/31 00:04:05.2	268.230	-0.160	-0.090	0.940
2020/01/31 00:04:05.3	268.230	-0.140	-0.080	0.930
2020/01/31 00:04:05.4	268.220	-0.130	-0.070	0.920
2020/01/31 00:04:05.5	268.220	-0.110	-0.060	0.900
2020/01/31 00:04:05.6	268.220	-0.090	-0.060	0.890
2020/01/31 00:04:05.7	268.210	-0.070	-0.050	0.880
2020/01/31 00:04:05.8	268.210	-0.050	-0.040	0.870
2020/01/31 00:04:05.9	268.200	-0.030	-0.040	0.860
2020/01/31 00:04:06.0	268.200	-0.010	-0.030	0.840
2020/01/31 00:04:06.1	268.200	0.010	-0.020	0.830
2020/01/31 00:04:06.2	268.190	0.030	-0.010	0.820
2020/01/31 00:04:06.3	268.190	0.050	-0.010	0.810
2020/01/31 00:04:06.4	268.190	0.070	0.000	0.800
2020/01/31 00:04:06.5	268.190	0.090	0.010	0.790
2020/01/31 00:04:06.6	268.190	0.110	0.020	0.780
2020/01/31 00:04:06.7	268.190	0.130	0.020	0.770
2020/01/31 00:04:06.8	268.200	0.150	0.030	0.770
2020/01/31 00:04:06.9	268.200	0.170	0.040	0.760
2020/01/31 00:04:07.0	268.210	0.190	0.050	0.750
2020/01/31 00:04:07.1	268.210	0.210	0.060	0.740
2020/01/31 00:04:07.2	268.210	0.230	0.070	0.740
2020/01/31 00:04:07.3	268.210	0.250	0.070	0.730
2020/01/31 00:04:07.4	268.220	0.260	0.080	0.730
2020/01/31 00:04:07.5	268.220	0.280	0.090	0.720
2020/01/31 00:04:07.6	268.230	0.300	0.090	0.720
2020/01/31 00:04:07.7	268.240	0.310	0.100	0.720
2020/01/31 00:04:07.8	268.240	0.330	0.100	0.720
2020/01/31 00:04:07.9	268.250	0.350	0.100	0.720
2020/01/31 00:04:08.0	268.250	0.360	0.100	0.730
2020/01/31 00:04:08.1	268.260	0.370	0.100	0.730
2020/01/31 00:04:08.2	268.270	0.390	0.100	0.740
2020/01/31 00:04:08.3	268.280	0.400	0.100	0.740
2020/01/31 00:04:08.4	268.280	0.410	0.100	0.750
2020/01/31 00:04:08.5	268.290	0.420	0.090	0.750
2020/01/31 00:04:08.6	268.300	0.430	0.090	0.760
2020/01/31 00:04:08.7	268.310	0.440	0.080	0.770
2020/01/31 00:04:08.8	268.320	0.450	0.070	0.780
2020/01/31 00:04:08.9	268.330	0.460	0.060	0.780
2020/01/31 00:04:09.0	268.340	0.470	0.050	0.790
2020/01/31 00:04:09.1	268.350	0.470	0.040	0.800
2020/01/31 00:04:09.2	268.360	0.480	0.030	0.810
2020/01/31 00:04:09.3	268.370	0.480	0.010	0.820
2020/01/31 00:04:09.4	268.380	0.480	-0.000	0.830
2020/01/31 00:04:09.5	268.390	0.480	-0.020	0.840
2020/01/31 00:04:09.6	268.400	0.480	-0.030	0.850
2020/01/31 00:04:09.7	268.410	0.480	-0.050	0.850
2020/01/31 00:04:09.8	268.420	0.480	-0.070	0.860
2020/01/31 00:04:09.9	268.430	0.480	-0.080	0.870
2020/01/31 00:04:10.0	268.440	0.470	-0.100	0.880
2020/01/31 00:04:10.1	268.440	0.470	-0.120	0.890
2020/01/31 00:04:10.2	268.450	0.460	-0.130	0.890
2020/01/31 00:04:10.3	268.450	0.450	-0.150	0.890
2020/01/31 00:04:10.4	268.460	0.440	-0.170	0.890
2020/01/31 00:04:10.5	268.460	0.430	-0.180	0.890
2020/01/31 00:04:10.6	268.470	0.420	-0.200	0.890
2020/01/31 00:04:10.7	268.470	0.400	-0.210	0.890
2020/01/31 00:04:10.8	268.470	0.390	-0.220	0.880
2020/01/31 00:04:10.9	268.470	0.370	-0.240	0.880
2020/01/31 00:04:11.0	268.480	0.360	-0.250	0.870
2020/01/31 00:04:11.1	268.480	0.340	-0.270	0.850
2020/01/31 00:04:11.2	268.490	0.320	-0.280	0.840
2020/01/31 00:04:11.3	268.490	0.300	-0.290	0.820
2020/01/31 00:04:11.4	268.490	0.280	-0.300	0.800
2020/01/31 00:04:11.5	268.500	0.260	-0.320	0.780
2020/01/31 00:04:11.6	268.510	0.240	-0.330	0.760
2020/01/31 00:04:11.7	268.510	0.220	-0.340	0.730
2020/01/31 00:04:11.8	268.520	0.190	-0.350	0.700
2020/01/31 00:04:11.9	268.520	0.170	-0.360	0.670
2020/01/31 00:04:12.0	268.520	0.150	-0.370	0.640
2020/01/31 00:04:12.1	268.530	0.120	-0.380	0.610
2020/01/31 00:04:12.2	268.530	0.100	-0.400	0.570
2020/01/31 00:04:12.3	268.540	0.080	-0.410	0.540
2020/01/31 00:04:12.4	268.540	0.060	-0.420	0.500
2020/01/31 00:04:12.5	268.550	0.030	-0.430	0.470
2020/01/31 00:04:12.6	268.550	0.010	-0.440	0.440
2020/01/31 00:04:12.7	268.550	-0.010	-0.450	0.400
2020/01/31 00:04:12.8	268.550	-0.030	-0.460	0.370
2020/01/31 00:04:12.9	268.570	-0.050	-0.470	0.340
2020/01/31 00:04:13.0	268.570	-0.070	-0.480	0.310
2020/01/31 00:04:13.1	268.560	-0.090	-0.490	0.280
2020/01/31 00:04:13.2	268.560	-0.110	-0.500	0.260
2020/01/31 00:04:13.3	268.560	-0.130	-0.510	0.230
2020/01/31 00:04:13.4	268.550	-0.140	-0.510	0.210
2020/01/31 00:04:13.5	268.550	-0.160	-0.520	0.190
2020/01/31 00:04:13.6	268.540	-0.170	-0.530	0.180
2020/01/31 00:04:13.7	268.530	-0.190	-0.540	0.160
2020/01/31 00:04:13.8	268.520	-0.200	-0.540	0.150
2020/01/31 00:04:13.9	268.510	-0.210	-0.550	0.140
2020/01/31 00:04:14.0	268.500	-0.220	-0.550	0.130
2020/01/31 00:04:14.1	268.490	-0.230	-0.560	0.120
2020/01/31 00:04:14.2	268.480	-0.240	-0.560	0.120
2020/01/31 00:04:14.3	268.470	-0.250	-0.560	0.120
2020/01/31 00:04:14.4	268.460	-0.260	-0.570	0.120
2020/01/31 00:04:14.5	268.440	-0.260	-0.570	0.130
2020/01/31 00:04:14.6	268.430	-0.270	-0.570	0.140
2020/01/31 00:04:14.7	268.420	-0.270	-0.570	0.150
2020/01/31 00:04:14.8	268.400	-0.270	-0.580	0.160
2020/01/31 00:04:14.9	268.380	-0.280	-0.580	0.170
2020/01/31 00:04:15.0	268.360	-0.280	-0.580	0.190
2020/01/31 00:04:15.1	268.340	-0.280	-0.580	0.210
2020/01/31 00:04:15.2	268.320	-0.270	-0.580	0.230
2020/01/31 00:04:15.3	268.300	-0.270	-0.590	0.260
2020/01/31 00:04:15.4	268.280	-0.270	-0.590	0.280
2020/01/31 00:04:15.5	268.260	-0.270	-0.590	0.310
2020/01/31 00:04:15.6	268.240	-0.260	-0.590	0.340
2020/01/31 00:04:15.7	268.210	-0.260	-0.600	0.370
2020/01/31 00:04:15.8	268.190	-0.250	-0.600	0.400
2020/01/31 00:04:15.9	268.180	-0.240	-0.610	0.430
2020/01/31 00:04:16.0	268.150	-0.240	-0.610	0.470
2020/01/31 00:04:16.1	268.120	-0.230	-0.620	0.500
2020/01/31 00:04:16.2	268.100	-0.220	-0.630	0.530
2020/01/31 00:04:16.3	268.070	-0.210	-0.630	0.560
2020/01/31 00:04:16.4	268.040	-0.210	-0.640	0.600
2020/01/31 00:04:16.5	268.010	-0.200	-0.650	0.630
2020/01/31 00:04:16.6	267.980	-0.190	-0.650	0.660
2020/01/31 00:04:16.7	267.950	-0.180	-0.660	0.690
2020/01/31 00:04:16.8	267.930	-0.170	-0.660	0.720
2020/01/31 00:04:16.9	267.890	-0.170	-0.670	0.750
2020/01/31 00:04:17.0	267.870	-0.160	-0.670	0.770
2020/01/31 00:04:17.1	267.840	-0.150	-0.670	0.800
2020/01/31 00:04:17.2	267.820	-0.140	-0.670	0.820
2020/01/31 00:04:17.3	267.800	-0.140	-0.670	0.850
2020/01/31 00:04:17.4	267.780	-0.130	-0.670	0.870
2020/01/31 00:04:17.5	267.750	-0.130	-0.670	0.890
2020/01/31 00:04:17.6	267.740	-0.120	-0.660	0.910
2020/01/31 00:04:17.7	267.720	-0.120	-0.650	0.930
2020/01/31 00:04:17.8	267.700	-0.110	-0.640	0.940
2020/01/31 00:04:17.9	267.680	-0.110	-0.630	0.960
2020/01/31 00:04:18.0	267.660	-0.100	-0.620	0.970
2020/01/31 00:04:18.1	267.650	-0.100	-0.600	0.980
2020/01/31 00:04:18.2	267.640	-0.100	-0.590	0.990
2020/01/31 00:04:18.3	267.630	-0.090	-0.570	1.000
2020/01/31 00:04:18.4	267.620	-0.090	-0.550	1.000
2020/01/31 00:04:18.5	267.610	-0.090	-0.520	1.010
2020/01/31 00:04:18.6	267.600	-0.090	-0.500	1.010
2020/01/31 00:04:18.7	267.590	-0.090	-0.470	1.010
2020/01/31 00:04:18.8	267.590	-0.090	-0.450	1.020
2020/01/31 00:04:18.9	267.580	-0.080	-0.420	1.020
2020/01/31 00:04:19.0	267.570	-0.080	-0.390	1.020
2020/01/31 00:04:19.1	267.570	-0.080	-0.360	1.020
2020/01/31 00:04:19.2	267.570	-0.080	-0.330	1.010
2020/01/31 00:04:19.3	267.570	-0.080	-0.300	1.010
2020/01/31 00:04:19.4	267.570	-0.080	-0.260	1.010
2020/01/31 00:04:19.5	267.580	-0.080	-0.230	1.000
2020/01/31 00:04:19.6	267.580	-0.090	-0.200	0.990
2020/01/31 00:04:19.7	267.590	-0.090	-0.170	0.990
2020/01/31 00:04:19.8	267.590	-0.090	-0.140	0.980
2020/01/31 00:04:19.9	267.610	-0.090	-0.110	0.970
2020/01/31 00:04:20.0	267.620	-0.090	-0.080	0.960
2020/01/31 00:04:20.1	267.620	-0.090	-0.050	0.950
2020/01/31 00:04:20.2	267.630	-0.100	-0.030	0.940
2020/01/31 00:04:20.3	267.640	-0.100	-0.000	0.930
2020/01/31 00:04:20.4	267.650	-0.100	0.020	0.920
2020/01/31 00:04:20.5	267.660	-0.100	0.040	0.910
2020/01/31 00:04:20.6	267.680	-0.110	0.060	0.900
2020/01/31 00:04:20.7	267.690	-0.110	0.070	0.890
2020/01/31 00:04:20.8	267.700	-0.120	0.090	0.880
2020/01/31 00:04:20.9	267.710	-0.120	0.110	0.870
2020/01/31 00:04:21.0	267.720	-0.120	0.120	0.860
2020/01/31 00:04:21.1	267.730	-0.130	0.120	0.840
2020/01/31 00:04:21.2	267.750	-0.130	0.130	0.830
2020/01/31 00:04:21.3	267.760	-0.140	0.130	0.820
2020/01/31 00:04:21.4	267.770	-0.140	0.130	0.810
2020/01/31 00:04:21.5	267.780	-0.150	0.130	0.800
2020/01/31 00:04:21.6	267.800	-0.150	0.130	0.780
2020/01/31 00:04:21.7	267.810	-0.150	0.130	0.770
2020/01/31 00:04:21.8	267.820	-0.160	0.120	0.760
2020/01/31 00:04:21.9	267.840	-0.160	0.120	0.750
2020/01/31 00:04:22.0	267.850	-0.160	0.100	0.730
2020/01/31 00:04:22.1	267.870	-0.160	0.090	0.720
2020/01/31 00:04:22.2	267.880	-0.160	0.090	0.710
2020/01/31 00:04:22.3	267.900	-0.160	0.070	0.690
2020/01/31 00:04:22.4	267.920	-0.170	0.060	0.680
2020/01/31 00:04:22.5	267.930	-0.170	0.050	0.670
2020/01/31 00:04:22.6	267.950	-0.160	0.040	0.660
2020/01/31 00:04:22.7	267.970	-0.160	0.030	0.640
2020/01/31 00:04:22.8	267.980	-0.160	0.010	0.630
2020/01/31 00:04:22.9	267.990	-0.160	0.000	0.620
2020/01/31 00:04:23.0	268.010	-0.150	-0.010	0.610
2020/01/31 00:04:23.1	268.030	-0.150	-0.020	0.600
2020/01/31 00:04:23.2	268.050	-0.150	-0.030	0.590
2020/01/31 00:04:23.3	268.060	-0.140	-0.050	0.590
2020/01/31 00:04:23.4	268.080	-0.130	-0.060	0.580
2020/01/31 00:04:23.5	268.100	-0.130	-0.070	0.570
2020/01/31 00:04:23.6	268.120	-0.120	-0.080	0.570
2020/01/31 00:04:23.7	268.140	-0.110	-0.090	0.560
2020/01/31 00:04:23.8	268.150	-0.100	-0.100	0.560
2020/01/31 00:04:23.9	268.170	-0.090	-0.110	0.550
2020/01/31 00:04:24.0	268.190	-0.080	-0.120	0.550
2020/01/31 00:04:24.1	268.210	-0.070	-0.130	0.550
2020/01/31 00:04:24.2	268.220	-0.060	-0.140	0.550
2020/01/31 00:04:24.3	268.240	-0.050	-0.150	0.560
2020/01/31 00:04:24.4	268.250	-0.040	-0.160	0.560
2020/01/31 00:04:24.5	268.270	-0.020	-0.170	0.560
2020/01/31 00:04:24.6	268.280	-0.010	-0.190	0.570
2020/01/31 00:04:24.7	268.300	0.000	-0.200	0.580
2020/01/31 00:04:24.8	268.310	0.020	-0.210	0.580
2020/01/31 00:04:24.9	268.320	0.030	-0.220	0.590
2020/01/31 00:04:25.0	268.340	0.050	-0.230	0.590
2020/01/31 00:04:25.1	268.350	0.060	-0.240	0.600
2020/01/31 00:04:25.2	268.360	0.080	-0.260	0.610
2020/01/31 00:04:25.3	268.370	0.100	-0.270	0.620
2020/01/31 00:04:25.4	268.380	0.110	-0.280	0.630
2020/01/31 00:04:25.5	268.390	0.130	-0.300	0.640
2020/01/31 00:04:25.6	268.390	0.150	-0.310	0.650
2020/01/31 00:04:25.7	268.400	0.160	-0.320	0.660
2020/01/31 00:04:25.8	268.410	0.180	-0.330	0.670
2020/01/31 00:04:25.9	268.420	0.200	-0.350	0.680
2020/01/31 00:04:26.0	268.410	0.210	-0.360	0.690
2020/01/31 00:04:26.1	268.410	0.230	-0.380	0.710
2020/01/31 00:04:26.2	268.420	0.240	-0.390	0.720
2020/01/31 00:04:26.3	268.420	0.260	-0.400	0.730
2020/01/31 00:04:26.4	268.420	0.270	-0.410	0.750
2020/01/31 00:04:26.5	268.430	0.280	-0.420	0.760
2020/01/31 00:04:26.6	268.430	0.290	-0.430	0.780
2020/01/31 00:04:26.7	268.430	0.310	-0.440	0.790
2020/01/31 00:04:26.8	268.430	0.320	-0.450	0.810
2020/01/31 00:04:26.9	268.440	0.330	-0.460	0.830
2020/01/31 00:04:27.0	268.440	0.330	-0.470	0.840
2020/01/31 00:04:27.1	268.440	0.340	-0.470	0.860
2020/01/31 00:04:27.2	268.430	0.350	-0.480	0.880
2020/01/31 00:04:27.3	268.430	0.350	-0.490	0.890
2020/01/31 00:04:27.4	268.420	0.350	-0.490	0.910
2020/01/31 00:04:27.5	268.420	0.360	-0.500	0.930
2020/01/31 00:04:27.6	268.410	0.360	-0.500	0.940
2020/01/31 00:04:27.7	268.410	0.360	-0.510	0.960
2020/01/31 00:04:27.8	268.400	0.360	-0.510	0.970
2020/01/31 00:04:27.9	268.390	0.350	-0.510	0.990
2020/01/31 00:04:28.0	268.380	0.350	-0.510	1.000
2020/01/31 00:04:28.1	268.370	0.340	-0.510	1.010
2020/01/31 00:04:28.2	268.360	0.340	-0.510	1.030
2020/01/31 00:04:28.3	268.350	0.330	-0.510	1.040
2020/01/31 00:04:28.4	268.340	0.320	-0.500	1.050
2020/01/31 00:04:28.5	268.330	0.310	-0.500	1.060
2020/01/31 00:04:28.6	268.320	0.300	-0.490	1.070
2020/01/31 00:04:28.7	268.310	0.290	-0.490	1.090
2020/01/31 00:04:28.8	268.300	0.280	-0.480	1.100
2020/01/31 00:04:28.9	268.280	0.270	-0.470	1.110
2020/01/31 00:04:29.0	268.270	0.260	-0.470	1.110
2020/01/31 00:04:29.1	268.250	0.250	-0.460	1.120
2020/01/31 00:04:29.2	268.240	0.240	-0.450	1.130
2020/01/31 00:04:29.3	268.230	0.220	-0.440	1.140
2020/01/31 00:04:29.4	268.210	0.210	-0.430	1.140
2020/01/31 00:04:29.5	268.200	0.200	-0.410	1.140
2020/01/31 00:04:29.6	268.190	0.190	-0.400	1.140
2020/01/31 00:04:29.7	268.170	0.170	-0.390	1.140
2020/01/31 00:04:29.8	268.160	0.160	-0.380	1.140
2020/01/31 00:04:29.9	268.150	0.150	-0.360	1.140
2020/01/31 00:04:30.0	268.130	0.130	-0.350	1.140
2020/01/31 00:04:30.1	268.120	0.120	-0.330	1.130
2020/01/31 00:04:30.2	268.110	0.110	-0.320	1.120
2020/01/31 00:04:30.3	268.100	0.100	-0.310	1.110
2020/01/31 00:04:30.4	268.090	0.080	-0.290	1.100
2020/01/31 00:04:30.5	268.080	0.070	-0.280	1.090
2020/01/31 00:04:30.6	268.070	0.060	-0.270	1.070
2020/01/31 00:04:30.7	268.060	0.050	-0.250	1.060
2020/01/31 00:04:30.8	268.050	0.040	-0.240	1.040
2020/01/31 00:04:30.9	268.060	0.030	-0.230	1.030
2020/01/31 00:04:31.0	268.050	0.030	-0.220	1.010
2020/01/31 00:04:31.1	268.050	0.020	-0.210	0.990
2020/01/31 00:04:31.2	268.040	0.010	-0.200	0.970
2020/01/31 00:04:31.3	268.040	0.000	-0.190	0.950
2020/01/31 00:04:31.4	268.030	-0.000	-0.190	0.920
2020/01/31 00:04:31.5	268.030	-0.010	-0.180	0.900
2020/01/31 00:04:31.6	268.030	-0.010	-0.180	0.880
2020/01/31 00:04:31.7	268.020	-0.020	-0.180	0.860
2020/01/31 00:04:31.8	268.020	-0.020	-0.180	0.840
2020/01/31 00:04:31.9	268.010	-0.020	-0.180	0.820
2020/01/31 00:04:32.0	268.010	-0.020	-0.180	0.800
2020/01/31 00:04:32.1	268.010	-0.030	-0.180	0.780
2020/01/31 00:04:32.2	268.010	-0.030	-0.180	0.770
2020/01/31 00:04:32.3	268.010	-0.030	-0.190	0.750
2020/01/31 00:04:32.4	268.010	-0.030	-0.200	0.730
2020/01/31 00:04:32.5	268.010	-0.030	-0.200	0.720
2020/01/31 00:04:32.6	268.010	-0.030	-0.210	0.700
2020/01/31 00:04:32.7	268.000	-0.030	-0.220	0.690
2020/01/31 00:04:32.8	268.000	-0.030	-0.220	0.680
2020/01/31 00:04:32.9	267.990	-0.030	-0.230	0.670
2020/01/31 00:04:33.0	267.990	-0.030	-0.240	0.660
2020/01/31 00:04:33.1	267.990	-0.030	-0.250	0.650
2020/01/31 00:04:33.2	267.990	-0.030	-0.260	0.640
2020/01/31 00:04:33.3	267.990	-0.030	-0.270	0.640
2020/01/31 00:04:33.4	267.990	-0.030	-0.280	0.630
2020/01/31 00:04:33.5	267.990	-0.030	-0.290	0.630
2020/01/31 00:04:33.6	267.980	-0.030	-0.290	0.630
2020/01/31 00:04:33.7	267.980	-0.030	-0.300	0.630
2020/01/31 00:04:33.8	267.980	-0.030	-0.310	0.630
2020/01/31 00:04:33.9	267.980	-0.030	-0.320	0.630
2020/01/31 00:04:34.0	267.980	-0.030	-0.330	0.630
2020/01/31 00:04:34.1	267.980	-0.040	-0.340	0.640
2020/01/31 00:04:34.2	267.980	-0.040	-0.350	0.650
2020/01/31 00:04:34.3	267.980	-0.040	-0.350	0.650
2020/01/31 00:04:34.4	267.980	-0.040	-0.360	0.660
2020/01/31 00:04:34.5	267.980	-0.050	-0.370	0.670
2020/01/31 00:04:34.6	267.980	-0.050	-0.370	0.670
2020/01/31 00:04:34.7	267.980	-0.060	-0.380	0.680
2020/01/31 00:04:34.8	267.980	-0.060	-0.380	0.690
2020/01/31 00:04:34.9	267.980	-0.070	-0.390	0.700
2020/01/31 00:04:35.0	267.990	-0.070	-0.390	0.710
2020/01/31 00:04:35.1	267.990	-0.080	-0.400	0.720
2020/01/31 00:04:35.2	268.000	-0.090	-0.400	0.720
2020/01/31 00:04:35.3	268.000	-0.090	-0.410	0.730
2020/01/31 00:04:35.4	268.010	-0.100	-0.410	0.740
2020/01/31 00:04:35.5	268.020	-0.110	-0.410	0.750
2020/01/31 00:04:35.6	268.030	-0.120	-0.410	0.750
2020/01/31 00:04:35.7	268.040	-0.120	-0.420	0.750
2020/01/31 00:04:35.8	268.050	-0.130	-0.420	0.760
2020/01/31 00:04:35.9	268.060	-0.140	-0.420	0.760
2020/01/31 00:04:36.0	268.070	-0.150	-0.420	0.760
2020/01/31 00:04:36.1	268.090	-0.160	-0.420	0.760
2020/01/31 00:04:36.2	268.100	-0.170	-0.430	0.760
2020/01/31 00:04:36.3	268.120	-0.170	-0.430	0.760
2020/01/31 00:04:36.4	268.140	-0.180	-0.430	0.760
2020/01/31 00:04:36.5	268.150	-0.190	-0.440	0.750
2020/01/31 00:04:36.6	268.170	-0.200	-0.440	0.750
2020/01/31 00:04:36.7	268.190	-0.200	-0.440	0.740
2020/01/31 00:04:36.8	268.210	-0.210	-0.450	0.730
2020/01/31 00:04:36.9	268.230	-0.210	-0.460	0.720
2020/01/31 00:04:37.0	268.250	-0.220	-0.460	0.710
2020/01/31 00:04:37.1	268.270	-0.220	-0.470	0.700
2020/01/31 00:04:37.2	268.290	-0.220	-0.470	0.690
2020/01/31 00:04:37.3	268.310	-0.230	-0.470	0.670
2020/01/31 00:04:37.4	268.330	-0.230	-0.480	0.660
2020/01/31 00:04:37.5	268.350	-0.230	-0.480	0.640
2020/01/31 00:04:37.6	268.370	-0.230	-0.480	0.630
2020/01/31 00:04:37.7	268.390	-0.230	-0.480	0.610
2020/01/31 00:04:37.8	268.410	-0.230	-0.480	0.590
2020/01/31 00:04:37.9	268.430	-0.230	-0.480	0.570
2020/01/31 00:04:38.0	268.450	-0.230	-0.480	0.550
2020/01/31 00:04:38.1	268.470	-0.230	-0.470	0.530
2020/01/31 00:04:38.2	268.490	-0.230	-0.470	0.510
2020/01/31 00:04:38.3	268.510	-0.230	-0.470	0.490
2020/01/31 00:04:38.4	268.530	-0.220	-0.460	0.460
2020/01/31 00:04:38.5	268.550	-0.220	-0.460	0.440
2020/01/31 00:04:38.6	268.570	-0.220	-0.450	0.420
2020/01/31 00:04:38.7	268.580	-0.220	-0.450	0.400
2020/01/31 00:04:38.8	268.600	-0.220	-0.440	0.380
2020/01/31 00:04:38.9	268.620	-0.220	-0.430	0.370
2020/01/31 00:04:39.0	268.640	-0.220	-0.420	0.350
2020/01/31 00:04:39.1	268.660	-0.220	-0.410	0.340
2020/01/31 00:04:39.2	268.670	-0.220	-0.410	0.330
2020/01/31 00:04:39.3	268.680	-0.220	-0.400	0.320
2020/01/31 00:04:39.4	268.690	-0.220	-0.390	0.310
2020/01/31 00:04:39.5	268.700	-0.220	-0.380	0.300
2020/01/31 00:04:39.6	268.710	-0.220	-0.370	0.290
2020/01/31 00:04:39.7	268.710	-0.220	-0.360	0.290
2020/01/31 00:04:39.8	268.720	-0.220	-0.350	0.290
2020/01/31 00:04:39.9	268.730	-0.220	-0.340	0.300
2020/01/31 00:04:40.0	268.730	-0.220	-0.330	0.300
2020/01/31 00:04:40.1	268.730	-0.220	-0.320	0.310
2020/01/31 00:04:40.2	268.730	-0.220	-0.310	0.320
2020/01/31 00:04:40.3	268.730	-0.220	-0.300	0.330
2020/01/31 00:04:40.4	268.730	-0.220	-0.290	0.350
2020/01/31 00:04:40.5	268.720	-0.220	-0.280	0.370
2020/01/31 00:04:40.6	268.720	-0.220	-0.270	0.390
2020/01/31 00:04:40.7	268.710	-0.210	-0.260	0.410
2020/01/31 00:04:40.8	268.710	-0.210	-0.250	0.440
2020/01/31 00:04:40.9	268.700	-0.210	-0.240	0.470
2020/01/31 00:04:41.0	268.690	-0.210	-0.230	0.500
2020/01/31 00:04:41.1	268.680	-0.200	-0.220	0.530
2020/01/31 00:04:41.2	268.660	-0.200	-0.200	0.560
2020/01/31 00:04:41.3	268.650	-0.200	-0.190	0.590
2020/01/31 00:04:41.4	268.630	-0.190	-0.180	0.630
2020/01/31 00:04:41.5	268.620	-0.190	-0.160	0.660
2020/01/31 00:04:41.6	268.600	-0.180	-0.150	0.700
2020/01/31 00:04:41.7	268.580	-0.180	-0.130	0.730
2020/01/31 00:04:41.8	268.560	-0.170	-0.120	0.760
2020/01/31 00:04:41.9	268.550	-0.160	-0.100	0.800
2020/01/31 00:04:42.0	268.520	-0.160	-0.080	0.830
2020/01/31 00:04:42.1	268.500	-0.150	-0.070	0.860
2020/01/31 00:04:42.2	268.480	-0.140	-0.050	0.890
2020/01/31 00:04:42.3	268.460	-0.130	-0.030	0.920
2020/01/31 00:04:42.4	268.440	-0.120	-0.020	0.940
2020/01/31 00:04:42.5	268.410	-0.120	0.000	0.970
2020/01/31 00:04:42.6	268.390	-0.110	0.020	0.990
2020/01/31 00:04:42.7	268.370	-0.100	0.030	1.010
2020/01/31 00:04:42.8	268.350	-0.090	0.050	1.030
2020/01/31 00:04:42.9	268.310	-0.080	0.060	1.040
2020/01/31 00:04:43.0	268.290	-0.070	0.070	1.060
2020/01/31 00:04:43.1	268.270	-0.050	0.080	1.070
2020/01/31 00:04:43.2	268.250	-0.040	0.090	1.070
2020/01/31 00:04:43.3	268.230	-0.030	0.100	1.080
2020/01/31 00:04:43.4	268.210	-0.020	0.100	1.080
2020/01/31 00:04:43.5	268.190	-0.010	0.110	1.080
2020/01/31 00:04:43.6	268.180	0.000	0.110	1.080
2020/01/31 00:04:43.7	268.160	0.020	0.110	1.070
2020/01/31 00:04:43.8	268.140	0.030	0.110	1.060
2020/01/31 00:04:43.9	268.120	0.040	0.110	1.050
2020/01/31 00:04:44.0	268.120	0.050	0.100	1.040
2020/01/31 00:04:44.1	268.100	0.070	0.090	1.030
2020/01/31 00:04:44.2	268.080	0.080	0.080	1.010
2020/01/31 00:04:44.3	268.070	0.100	0.070	0.990
2020/01/31 00:04:44.4	268.050	0.110	0.060	0.970
2020/01/31 00:04:44.5	268.040	0.130	0.050	0.950
2020/01/31 00:04:44.6	268.020	0.140	0.030	0.930
2020/01/31 00:04:44.7	268.010	0.160	0.020	0.910
2020/01/31 00:04:44.8	267.990	0.170	0.000	0.890
2020/01/31 00:04:44.9	267.980	0.190	-0.020	0.860
2020/01/31 00:04:45.0	267.960	0.210	-0.040	0.840
2020/01/31 00:04:45.1	267.950	0.220	-0.060	0.810
2020/01/31 00:04:45.2	267.940	0.240	-0.080	0.790
2020/01/31 00:04:45.3	267.920	0.250	-0.100	0.760
2020/01/31 00:04:45.4	267.910	0.270	-0.120	0.740
2020/01/31 00:04:45.5	267.900	0.280	-0.140	0.710
2020/01/31 00:04:45.6	267.890	0.300	-0.160	0.690
2020/01/31 00:04:45.7	267.880	0.310	-0.180	0.670
2020/01/31 00:04:45.8	267.870	0.330	-0.200	0.650
2020/01/31 00:04:45.9	267.860	0.340	-0.220	0.620
2020/01/31 00:04:46.0	267.860	0.350	-0.240	0.600
2020/01/31 00:04:46.1	267.850	0.360	-0.260	0.580
2020/01/31 00:04:46.2	267.840	0.370	-0.280	0.560
2020/01/31 00:04:46.3	267.840	0.380	-0.290	0.550
2020/01/31 00:04:46.4	267.830	0.390	-0.310	0.530
2020/01/31 00:04:46.5	267.830	0.400	-0.330	0.520
2020/01/31 00:04:46.6	267.830	0.410	-0.340	0.510
2020/01/31 00:04:46.7	267.820	0.410	-0.360	0.500
2020/01/31 00:04:46.8	267.820	0.420	-0.370	0.490
2020/01/31 00:04:46.9	267.820	0.420	-0.390	0.480
2020/01/31 00:04:47.0	267.820	0.430	-0.400	0.480
2020/01/31 00:04:47.1	267.820	0.430	-0.410	0.470
2020/01/31 00:04:47.2	267.820	0.430	-0.420	0.470
2020/01/31 00:04:47.3	267.820	0.430	-0.430	0.470
2020/01/31 00:04:47.4	267.820	0.430	-0.440	0.470
2020/01/31 00:04:47.5	267.820	0.430	-0.450	0.480
2020/01/31 00:04:47.6	267.830	0.420	-0.460	0.480
2020/01/31 00:04:47.7	267.830	0.420	-0.470	0.480
2020/01/31 00:04:47.8	267.840	0.420	-0.480	0.490
2020/01/31 00:04:47.9	267.850	0.410	-0.490	0.500
2020/01/31 00:04:48.0	267.860	0.400	-0.500	0.510
2020/01/31 00:04:48.1	267.860	0.400	-0.510	0.520
2020/01/31 00:04:48.2	267.870	0.390	-0.520	0.530
2020/01/31 00:04:48.3	267.880	0.380	-0.530	0.540
2020/01/31 00:04:48.4	267.880	0.370	-0.540	0.560
2020/01/31 00:04:48.5	267.890	0.360	-0.560	0.570
2020/01/31 00:04:48.6	267.890	0.350	-0.570	0.590
2020/01/31 00:04:48.7	267.900	0.340	-0.580	0.610
2020/01/31 00:04:48.8	267.900	0.330	-0.600	0.620
2020/01/31 00:04:48.9	267.900	0.320	-0.610	0.640
2020/01/31 00:04:49.0	267.910	0.300	-0.630	0.660
2020/01/31 00:04:49.1	267.920	0.290	-0.640	0.680
2020/01/31 00:04:49.2	267.920	0.280	-0.660	0.710
2020/01/31 00:04:49.3	267.930	0.260	-0.670	0.730
2020/01/31 00:04:49.4	267.930	0.250	-0.690	0.750
2020/01/31 00:04:49.5	267.930	0.230	-0.700	0.770
2020/01/31 00:04:49.6	267.940	0.220	-0.720	0.800
2020/01/31 00:04:49.7	267.940	0.200	-0.730	0.820
2020/01/31 00:04:49.8	267.940	0.180	-0.740	0.840
2020/01/31 00:04:49.9	267.950	0.170	-0.740	0.860
2020/01/31 00:04:50.0	267.950	0.150	-0.750	0.880
2020/01/31 00:04:50.1	267.960	0.130	-0.760	0.890
2020/01/31 00:04:50.2	267.960	0.110	-0.760	0.910
2020/01/31 00:04:50.3	267.970	0.100	-0.770	0.920
2020/01/31 00:04:50.4	267.980	0.080	-0.770	0.930
2020/01/31 00:04:50.5	267.990	0.060	-0.760	0.940
2020/01/31 00:04:50.6	268.000	0.040	-0.760	0.950
2020/01/31 00:04:50.7	268.010	0.020	-0.750	0.950
2020/01/31 00:04:50.8	268.020	-0.000	-0.740	0.950
2020/01/31 00:04:50.9	268.040	-0.020	-0.730	0.960
2020/01/31 00:04:51.0	268.050	-0.040	-0.720	0.950
2020/01/31 00:04:51.1	268.070	-0.060	-0.700	0.950
2020/01/31 00:04:51.2	268.080	-0.080	-0.680	0.940
2020/01/31 00:04:51.3	268.100	-0.100	-0.660	0.930
2020/01/31 00:04:51.4	268.120	-0.120	-0.640	0.920
2020/01/31 00:04:51.5	268.140	-0.150	-0.610	0.910
2020/01/31 00:04:51.6	268.160	-0.170	-0.580	0.890
2020/01/31 00:04:51.7	268.180	-0.190	-0.550	0.870
2020/01/31 00:04:51.8	268.200	-0.210	-0.520	0.850
2020/01/31 00:04:51.9	268.230	-0.230	-0.490	0.830
2020/01/31 00:04:52.0	268.250	-0.250	-0.450	0.800
2020/01/31 00:04:52.1	268.270	-0.270	-0.420	0.780
2020/01/31 00:04:52.2	268.300	-0.290	-0.390	0.750
2020/01/31 00:04:52.3	268.320	-0.310	-0.350	0.710
2020/01/31 00:04:52.4	268.350	-0.330	-0.320	0.680
2020/01/31 00:04:52.5	268.370	-0.350	-0.280	0.650
2020/01/31 00:04:52.6	268.400	-0.370	-0.250	0.610
2020/01/31 00:04:52.7	268.420	-0.390	-0.220	0.580
2020/01/31 00:04:52.8	268.450	-0.400	-0.190	0.550
2020/01/31 00:04:52.9	268.460	-0.420	-0.150	0.510
2020/01/31 00:04:53.0	268.490	-0.440	-0.130	0.480
2020/01/31 00:04:53.1	268.510	-0.450	-0.100	0.450
2020/01/31 00:04:53.2	268.540	-0.460	-0.070	0.420
2020/01/31 00:04:53.3	268.560	-0.470	-0.050	0.380
2020/01/31 00:04:53.4	268.590	-0.480	-0.030	0.360
2020/01/31 00:04:53.5	268.610	-0.490	-0.010	0.330
2020/01/31 00:04:53.6	268.630	-0.500	0.000	0.300
2020/01/31 00:04:53.7	268.650	-0.510	0.020	0.270
2020/01/31 00:04:53.8	268.670	-0.510	0.030	0.250
2020/01/31 00:04:53.9	268.690	-0.510	0.030	0.230
2020/01/31 00:04:54.0	268.710	-0.510	0.040	0.210
2020/01/31 00:04:54.1	268.720	-0.510	0.040	0.190
2020/01/31 00:04:54.2	268.730	-0.510	0.040	0.180
2020/01/31 00:04:54.3	268.750	-0.510	0.040	0.160
2020/01/31 00:04:54.4	268.760	-0.500	0.030	0.150
2020/01/31 00:04:54.5	268.760	-0.490	0.030	0.150
2020/01/31 00:04:54.6	268.770	-0.480	0.010	0.140
2020/01/31 00:04:54.7	268.780	-0.480	0.000	0.140
2020/01/31 00:04:54.8	268.780	-0.460	-0.010	0.140
2020/01/31 00:04:54.9	268.780	-0.450	-0.030	0.150
2020/01/31 00:04:55.0	268.790	-0.440	-0.050	0.160
2020/01/31 00:04:55.1	268.790	-0.420	-0.070	0.170
2020/01/31 00:04:55.2	268.790	-0.410	-0.090	0.190
2020/01/31 00:04:55.3	268.780	-0.390	-0.110	0.210
2020/01/31 00:04:55.4	268.770	-0.370	-0.130	0.230
2020/01/31 00:04:55.5	268.760	-0.350	-0.160	0.260
2020/01/31 00:04:55.6	268.750	-0.340	-0.180	0.290
2020/01/31 00:04:55.7	268.740	-0.320	-0.200	0.320
2020/01/31 00:04:55.8	268.730	-0.300	-0.230	0.350
2020/01/31 00:04:55.9	268.710	-0.280	-0.250	0.380
2020/01/31 00:04:56.0	268.690	-0.250	-0.280	0.420
2020/01/31 00:04:56.1	268.670	-0.230	-0.290	0.460
2020/01/31 00:04:56.2	268.650	-0.210	-0.310	0.490
2020/01/31 00:04:56.3	268.640	-0.190	-0.330	0.530
2020/01/31 00:04:56.4	268.610	-0.170	-0.340	0.570
2020/01/31 00:04:56.5	268.590	-0.150	-0.350	0.600
2020/01/31 00:04:56.6	268.570	-0.130	-0.360	0.640
2020/01/31 00:04:56.7	268.550	-0.110	-0.370	0.680
2020/01/31 00:04:56.8	268.530	-0.090	-0.380	0.720
2020/01/31 00:04:56.9	268.510	-0.070	-0.380	0.750
2020/01/31 00:04:57.0	268.490	-0.050	-0.380	0.790
2020/01/31 00:04:57.1	268.470	-0.030	-0.380	0.820
2020/01/31 00:04:57.2	268.440	-0.010	-0.380	0.850
2020/01/31 00:04:57.3	268.420	0.010	-0.370	0.890
2020/01/31 00:04:57.4	268.400	0.030	-0.370	0.920
2020/01/31 00:04:57.5	268.380	0.050	-0.360	0.940
2020/01/31 00:04:57.6	268.360	0.060	-0.360	0.970
2020/01/31 00:04:57.7	268.350	0.080	-0.350	0.990
2020/01/31 00:04:57.8	268.330	0.090	-0.340	1.010
2020/01/31 00:04:57.9	268.310	0.110	-0.330	1.030
2020/01/31 00:04:58.0	268.290	0.120	-0.320	1.050
2020/01/31 00:04:58.1	268.280	0.140	-0.300	1.060
2020/01/31 00:04:58.2	268.270	0.150	-0.290	1.070
2020/01/31 00:04:58.3	268.260	0.160	-0.280	1.080
2020/01/31 00:04:58.4	268.250	0.170	-0.260	1.080
2020/01/31 00:04:58.5	268.250	0.180	-0.250	1.080
2020/01/31 00:04:58.6	268.240	0.190	-0.240	1.080
2020/01/31 00:04:58.7	268.240	0.200	-0.220	1.080
2020/01/31 00:04:58.8	268.230	0.200	-0.210	1.070
2020/01/31 00:04:58.9	268.230	0.210	-0.200	1.060
2020/01/31 00:04:59.0	268.210	0.210	-0.190	1.040
2020/01/31 00:04:59.1	268.210	0.220	-0.180	1.030
2020/01/31 00:04:59.2	268.210	0.220	-0.170	1.010
2020/01/31 00:04:59.3	268.210	0.220	-0.160	0.990
2020/01/31 00:04:59.4	268.210	0.230	-0.150	0.970
2020/01/31 00:04:59.5	268.210	0.230	-0.150	0.950
2020/01/31 00:04:59.6	268.210	0.230	-0.140	0.930
2020/01/31 00:04:59.7	268.210	0.230	-0.140	0.910
2020/01/31 00:04:59.8	268.210	0.230	-0.140	0.890
2020/01/31 00:04:59.9	268.210	0.230	-0.140	0.870
2020/01/31 00:05:00.0	268.210	0.230	-0.140	0.850
2020/01/31 00:05:00.1	268.220	0.230	-0.140	0.830
2020/01/31 00:05:00.2	268.220	0.220	-0.150	0.810
2020/01/31 00:05:00.3	268.230	0.220	-0.150	0.790
2020/01/31 00:05:00.4	268.230	0.220	-0.160	0.770
2020/01/31 00:05:00.5	268.240	0.210	-0.160	0.750
2020/01/31 00:05:00.6	268.240	0.210	-0.170	0.720
2020/01/31 00:05:00.7	268.250	0.200	-0.180	0.700
2020/01/31 00:05:00.8	268.260	0.200	-0.190	0.680
2020/01/31 00:05:00.9	268.270	0.190	-0.190	0.660
2020/01/31 00:05:01.0	268.280	0.180	-0.200	0.640
2020/01/31 00:05:01.1	268.290	0.170	-0.210	0.620
2020/01/31 00:05:01.2	268.300	0.160	-0.210	0.600
2020/01/31 00:05:01.3	268.310	0.150	-0.220	0.580
2020/01/31 00:05:01.4	268.320	0.140	-0.220	0.560
2020/01/31 00:05:01.5	268.340	0.130	-0.230	0.530
2020/01/31 00:05:01.6	268.350	0.120	-0.230	0.510
2020/01/31 00:05:01.7	268.360	0.110	-0.240	0.490
2020/01/31 00:05:01.8	268.380	0.100	-0.240	0.470
2020/01/31 00:05:01.9	268.380	0.090	-0.240	0.440
2020/01/31 00:05:02.0	268.400	0.070	-0.240	0.420
2020/01/31 00:05:02.1	268.420	0.060	-0.240	0.390
2020/01/31 00:05:02.2	268.440	0.050	-0.230	0.370
2020/01/31 00:05:02.3	268.450	0.030	-0.230	0.350
2020/01/31 00:05:02.4	268.470	0.020	-0.230	0.330
2020/01/31 00:05:02.5	268.490	0.000	-0.230	0.300
2020/01/31 00:05:02.6	268.520	-0.010	-0.220	0.280
2020/01/31 00:05:02.7	268.540	-0.020	-0.220	0.260
2020/01/31 00:05:02.8	268.560	-0.040	-0.210	0.240
2020/01/31 00:05:02.9	268.580	-0.050	-0.210	0.210
2020/01/31 00:05:03.0	268.610	-0.060	-0.210	0.190
2020/01/31 00:05:03.1	268.640	-0.070	-0.200	0.170
2020/01/31 00:05:03.2	268.660	-0.080	-0.200	0.150
2020/01/31 00:05:03.3	268.680	-0.090	-0.190	0.130
2020/01/31 00:05:03.4	268.710	-0.100	-0.190	0.110
2020/01/31 00:05:03.5	268.730	-0.110	-0.190	0.090
2020/01/31 00:05:03.6	268.750	-0.120	-0.190	0.080
2020/01/31 00:05:03.7	268.780	-0.120	-0.190	0.060
2020/01/31 00:05:03.8	268.800	-0.130	-0.190	0.040
2020/01/31 00:05:03.9	268.820	-0.130	-0.190	0.030
2020/01/31 00:05:04.0	268.840	-0.130	-0.190	0.020
2020/01/31 00:05:04.1	268.860	-0.130	-0.200	0.010
2020/01/31 00:05:04.2	268.890	-0.130	-0.200	-0.000
2020/01/31 00:05:04.3	268.910	-0.130	-0.210	-0.010
2020/01/31 00:05:04.4	268.930	-0.120	-0.220	-0.020
2020/01/31 00:05:04.5	268.950	-0.120	-0.230	-0.030
2020/01/31 00:05:04.6	268.970	-0.110	-0.240	-0.030
2020/01/31 00:05:04.7	268.980	-0.100	-0.250	-0.030
2020/01/31 00:05:04.8	269.000	-0.090	-0.260	-0.030
2020/01/31 00:05:04.9	269.020	-0.080	-0.280	-0.030
2020/01/31 00:05:05.0	269.030	-0.070	-0.290	-0.020
2020/01/31 00:05:05.1	269.050	-0.050	-0.310	-0.020
2020/01/31 00:05:05.2	269.060	-0.040	-0.330	-0.010
2020/01/31 00:05:05.3	269.070	-0.020	-0.350	0.010
2020/01/31 00:05:05.4	269.080	-0.000	-0.370	0.020
2020/01/31 00:05:05.5	269.090	0.020	-0.390	0.040
2020/01/31 00:05:05.6	269.090	0.030	-0.410	0.060
2020/01/31 00:05:05.7	269.100	0.050	-0.440	0.090
2020/01/31 00:05:05.8	269.100	0.070	-0.460	0.120
2020/01/31 00:05:05.9	269.100	0.090	-0.490	0.150
2020/01/31 00:05:06.0	269.100	0.110	-0.510	0.180
2020/01/31 00:05:06.1	269.100	0.130	-0.530	0.210
2020/01/31 00:05:06.2	269.100	0.150	-0.560	0.250
2020/01/31 00:05:06.3	269.100	0.170	-0.580	0.280
2020/01/31 00:05:06.4	269.100	0.190	-0.610	0.320
2020/01/31 00:05:06.5	269.090	0.210	-0.630	0.360
2020/01/31 00:05:06.6	269.090	0.220	-0.650	0.400
2020/01/31 00:05:06.7	269.080	0.240	-0.670	0.440
2020/01/31 00:05:06.8	269.080	0.250	-0.690	0.470
2020/01/31 00:05:06.9	269.080	0.260	-0.710	0.520
2020/01/31 00:05:07.0	269.070	0.270	-0.730	0.550
2020/01/31 00:05:07.1	269.070	0.280	-0.740	0.590
2020/01/31 00:05:07.2	269.060	0.290	-0.750	0.630
2020/01/31 00:05:07.3	269.060	0.290	-0.760	0.660
2020/01/31 00:05:07.4	269.050	0.300	-0.770	0.690
2020/01/31 00:05:07.5	269.040	0.300	-0.780	0.730
2020/01/31 00:05:07.6	269.040	0.300	-0.790	0.760
2020/01/31 00:05:07.7	269.030	0.290	-0.790	0.780
2020/01/31 00:05:07.8	269.020	0.290	-0.790	0.810
2020/01/31 00:05:07.9	269.010	0.280	-0.780	0.840
2020/01/31 00:05:08.0	269.010	0.280	-0.780	0.860
2020/01/31 00:05:08.1	269.000	0.270	-0.770	0.880
2020/01/31 00:05:08.2	268.990	0.250	-0.760	0.900
2020/01/31 00:05:08.3	268.980	0.240	-0.750	0.920
2020/01/31 00:05:08.4	268.970	0.230	-0.740	0.930
2020/01/31 00:05:08.5	268.960	0.210	-0.720	0.940
2020/01/31 00:05:08.6	268.940	0.190	-0.700	0.950
2020/01/31 00:05:08.7	268.940	0.170	-0.680	0.950
2020/01/31 00:05:08.8	268.920	0.150	-0.660	0.960
2020/01/31 00:05:08.9	268.920	0.130	-0.640	0.950
2020/01/31 00:05:09.0	268.910	0.110	-0.610	0.950
2020/01/31 00:05:09.1	268.900	0.090	-0.580	0.950
2020/01/31 00:05:09.2	268.890	0.060	-0.560	0.940
2020/01/31 00:05:09.3	268.880	0.040	-0.520	0.920
2020/01/31 00:05:09.4	268.870	0.020	-0.490	0.910
2020/01/31 00:05:09.5	268.870	-0.010	-0.460	0.890
2020/01/31 00:05:09.6	268.860	-0.030	-0.430	0.870
2020/01/31 00:05:09.7	268.850	-0.060	-0.390	0.850
2020/01/31 00:05:09.8	268.850	-0.080	-0.360	0.830
2020/01/31 00:05:09.9	268.840	-0.100	-0.320	0.800
2020/01/31 00:05:10.0	268.840	-0.120	-0.290	0.780
2020/01/31 00:05:10.1	268.830	-0.140	-0.250	0.750
2020/01/31 00:05:10.2	268.830	-0.160	-0.220	0.720
2020/01/31 00:05:10.3	268.820	-0.180	-0.190	0.700
2020/01/31 00:05:10.4	268.820	-0.200	-0.150	0.670
2020/01/31 00:05:10.5	268.810	-0.220	-0.120	0.640
2020/01/31 00:05:10.6	268.810	-0.230	-0.090	0.620
2020/01/31 00:05:10.7	268.810	-0.240	-0.060	0.590
2020/01/31 00:05:10.8	268.800	-0.260	-0.040	0.570
2020/01/31 00:05:10.9	268.810	-0.270	-0.010	0.540
2020/01/31 00:05:11.0	268.810	-0.280	0.010	0.520
2020/01/31 00:05:11.1	268.800	-0.290	0.030	0.500
2020/01/31 00:05:11.2	268.800	-0.290	0.050	0.480
2020/01/31 00:05:11.3	268.800	-0.300	0.070	0.460
2020/01/31 00:05:11.4	268.790	-0.300	0.080	0.440
2020/01/31 00:05:11.5	268.790	-0.310	0.090	0.420
2020/01/31 00:05:11.6	268.790	-0.310	0.110	0.410
2020/01/31 00:05:11.7	268.780	-0.310	0.110	0.390
2020/01/31 00:05:11.8	268.780	-0.310	0.120	0.380
2020/01/31 00:05:11.9	268.780	-0.310	0.120	0.370
2020/01/31 00:05:12.0	268.780	-0.310	0.120	0.360
2020/01/31 00:05:12.1	268.770	-0.310	0.120	0.360
2020/01/31 00:05:12.2	268.770	-0.300	0.120	0.350
2020/01/31 00:05:12.3	268.770	-0.300	0.120	0.350
2020/01/31 00:05:12.4	268.770	-0.290	0.110	0.350
2020/01/31 00:05:12.5	268.760	-0.280	0.110	0.340
2020/01/31 00:05:12.6	268.760	-0.280	0.100	0.340
2020/01/31 00:05:12.7	268.760	-0.270	0.090	0.350
2020/01/31 00:05:12.8	268.760	-0.260	0.080	0.350
2020/01/31 00:05:12.9	268.760	-0.250	0.070	0.350
2020/01/31 00:05:13.0	268.760	-0.240	0.060	0.350
2020/01/31 00:05:13.1	268.760	-0.230	0.040	0.350
2020/01/31 00:05:13.2	268.760	-0.220	0.030	0.360
2020/01/31 00:05:13.3	268.760	-0.200	0.010	0.370
2020/01/31 00:05:13.4	268.770	-0.190	-0.000	0.370
2020/01/31 00:05:13.5	268.770	-0.180	-0.020	0.380
2020/01/31 00:05:13.6	268.770	-0.170	-0.030	0.390
2020/01/31 00:05:13.7	268.770	-0.150	-0.050	0.400
2020/01/31 00:05:13.8	268.770	-0.140	-0.070	0.410
2020/01/31 00:05:13.9	268.770	-0.120	-0.090	0.420
2020/01/31 00:05:14.0	268.770	-0.110	-0.110	0.430
2020/01/31 00:05:14.1	268.770	-0.090	-0.130	0.450
2020/01/31 00:05:14.2	268.780	-0.080	-0.150	0.460
2020/01/31 00:05:14.3	268.780	-0.060	-0.160	0.480
2020/01/31 00:05:14.4	268.780	-0.050	-0.180	0.500
2020/01/31 00:05:14.5	268.790	-0.040	-0.200	0.520
2020/01/31 00:05:14.6	268.790	-0.020	-0.210	0.540
2020/01/31 00:05:14.7	268.790	-0.010	-0.230	0.560
2020/01/31 00:05:14.8	268.800	0.010	-0.250	0.590
2020/01/31 00:05:14.9	268.810	0.020	-0.260	0.610
2020/01/31 00:05:15.0	268.810	0.030	-0.270	0.640
2020/01/31 00:05:15.1	268.810	0.040	-0.280	0.660
2020/01/31 00:05:15.2	268.820	0.060	-0.300	0.690
2020/01/31 00:05:15.3	268.820	0.070	-0.310	0.720
2020/01/31 00:05:15.4	268.820	0.080	-0.320	0.750
2020/01/31 00:05:15.5	268.820	0.090	-0.330	0.780
2020/01/31 00:05:15.6	268.830	0.100	-0.340	0.810
2020/01/31 00:05:15.7	268.830	0.110	-0.350	0.840
2020/01/31 00:05:15.8	268.830	0.120	-0.360	0.870
2020/01/31 00:05:15.9	268.830	0.130	-0.370	0.900
2020/01/31 00:05:16.0	268.830	0.130	-0.380	0.930
2020/01/31 00:05:16.1	268.830	0.140	-0.390	0.960
2020/01/31 00:05:16.2	268.830	0.150	-0.400	0.990
2020/01/31 00:05:16.3	268.830	0.150	-0.400	1.010
2020/01/31 00:05:16.4	268.830	0.160	-0.410	1.040
2020/01/31 00:05:16.5	268.830	0.160	-0.410	1.060
2020/01/31 00:05:16.6	268.820	0.170	-0.410	1.080
2020/01/31 00:05:16.7	268.820	0.170	-0.420	1.100
2020/01/31 00:05:16.8	268.820	0.170	-0.420	1.120
2020/01/31 00:05:16.9	268.820	0.180	-0.410	1.140
2020/01/31 00:05:17.0	268.820	0.180	-0.420	1.150
2020/01/31 00:05:17.1	268.810	0.180	-0.410	1.160
2020/01/31 00:05:17.2	268.810	0.180	-0.410	1.170
2020/01/31 00:05:17.3	268.810	0.180	-0.410	1.170
2020/01/31 00:05:17.4	268.800	0.180	-0.410	1.170
2020/01/31 00:05:17.5	268.800	0.170	-0.400	1.170
2020/01/31 00:05:17.6	268.800	0.170	-0.400	1.170
2020/01/31 00:05:17.7	268.790	0.170	-0.400	1.160
2020/01/31 00:05:17.8	268.790	0.160	-0.390	1.150
2020/01/31 00:05:17.9	268.800	0.160	-0.390	1.140
2020/01/31 00:05:18.0	268.800	0.150	-0.380	1.120
2020/01/31 00:05:18.1	268.800	0.150	-0.380	1.100
2020/01/31 00:05:18.2	268.790	0.140	-0.370	1.080
2020/01/31 00:05:18.3	268.790	0.140	-0.370	1.060
2020/01/31 00:05:18.4	268.790	0.130	-0.370	1.040
2020/01/31 00:05:18.5	268.790	0.120	-0.360	1.010
2020/01/31 00:05:18.6	268.790	0.120	-0.360	0.990
2020/01/31 00:05:18.7	268.790	0.110	-0.360	0.960
2020/01/31 00:05:18.8	268.780	0.100	-0.360	0.940
2020/01/31 00:05:18.9	268.780	0.090	-0.360	0.910
2020/01/31 00:05:19.0	268.780	0.080	-0.360	0.880
2020/01/31 00:05:19.1	268.780	0.080	-0.360	0.860
2020/01/31 00:05:19.2	268.770	0.070	-0.360	0.830
2020/01/31 00:05:19.3	268.770	0.060	-0.370	0.810
2020/01/31 00:05:19.4	268.770	0.050	-0.370	0.780
2020/01/31 00:05:19.5	268.760	0.040	-0.370	0.760
2020/01/31 00:05:19.6	268.760	0.030	-0.370	0.740
2020/01/31 00:05:19.7	268.750	0.030	-0.380	0.710
2020/01/31 00:05:19.8	268.750	0.020	-0.380	0.690
2020/01/31 00:05:19.9	268.750	0.010	-0.390	0.670
2020/01/31 00:05:20.0	268.740	0.010	-0.390	0.650
2020/01/31 00:05:20.1	268.740	-0.000	-0.400	0.630
2020/01/31 00:05:20.2	268.730	-0.010	-0.400	0.620
2020/01/31 00:05:20.3	268.730	-0.010	-0.400	0.600
2020/01/31 00:05:20.4	268.720	-0.020	-0.410	0.590
2020/01/31 00:05:20.5	268.710	-0.020	-0.410	0.570
2020/01/31 00:05:20.6	268.700	-0.020	-0.410	0.560
2020/01/31 00:05:20.7	268.700	-0.030	-0.420	0.560
2020/01/31 00:05:20.8	268.690	-0.030	-0.420	0.550
2020/01/31 00:05:20.9	268.670	-0.030	-0.420	0.540
2020/01/31 00:05:21.0	268.660	-0.030	-0.420	0.540
2020/01/31 00:05:21.1	268.650	-0.030	-0.420	0.540
2020/01/31 00:05:21.2	268.640	-0.030	-0.410	0.540
2020/01/31 00:05:21.3	268.630	-0.040	-0.410	0.540
2020/01/31 00:05:21.4	268.620	-0.040	-0.400	0.540
2020/01/31 00:05:21.5	268.620	-0.040	-0.400	0.550
2020/01/31 00:05:21.6	268.610	-0.040	-0.390	0.550
2020/01/31 00:05:21.7	268.600	-0.040	-0.380	0.560
2020/01/31 00:05:21.8	268.590	-0.040	-0.370	0.570
2020/01/31 00:05:21.9	268.580	-0.040	-0.360	0.580
2020/01/31 00:05:22.0	268.580	-0.040	-0.350	0.580
2020/01/31 00:05:22.1	268.570	-0.040	-0.330	0.590
2020/01/31 00:05:22.2	268.560	-0.040	-0.320	0.600
2020/01/31 00:05:22.3	268.560	-0.040	-0.310	0.620
2020/01/31 00:05:22.4	268.550	-0.040	-0.290	0.630
2020/01/31 00:05:22.5	268.550	-0.040	-0.270	0.640
2020/01/31 00:05:22.6	268.540	-0.040	-0.260	0.650
2020/01/31 00:05:22.7	268.540	-0.050	-0.240	0.670
2020/01/31 00:05:22.8	268.540	-0.050	-0.230	0.680
2020/01/31 00:05:22.9	268.530	-0.050	-0.210	0.690
2020/01/31 00:05:23.0	268.520	-0.050	-0.190	0.710
2020/01/31 00:05:23.1	268.520	-0.050	-0.180	0.720
2020/01/31 00:05:23.2	268.520	-0.060	-0.170	0.740
2020/01/31 00:05:23.3	268.520	-0.060	-0.160	0.760
2020/01/31 00:05:23.4	268.510	-0.060	-0.150	0.770
2020/01/31 00:05:23.5	268.510	-0.060	-0.140	0.790
2020/01/31 00:05:23.6	268.510	-0.060	-0.130	0.810
2020/01/31 00:05:23.7	268.510	-0.060	-0.130	0.820
2020/01/31 00:05:23.8	268.510	-0.060	-0.120	0.840
2020/01/31 00:05:23.9	268.500	-0.060	-0.120	0.860
2020/01/31 00:05:24.0	268.500	-0.060	-0.120	0.880
2020/01/31 00:05:24.1	268.500	-0.060	-0.130	0.890
2020/01/31 00:05:24.2	268.500	-0.060	-0.130	0.910
2020/01/31 00:05:24.3	268.510	-0.060	-0.140	0.930
2020/01/31 00:05:24.4	268.510	-0.060	-0.150	0.940
2020/01/31 00:05:24.5	268.510	-0.050	-0.150	0.960
2020/01/31 00:05:24.6	268.510	-0.050	-0.170	0.980
2020/01/31 00:05:24.7	268.520	-0.050	-0.180	0.990
2020/01/31 00:05:24.8	268.520	-0.040	-0.190	1.010
2020/01/31 00:05:24.9	268.530	-0.030	-0.210	1.020
2020/01/31 00:05:25.0	268.530	-0.030	-0.220	1.040
2020/01/31 00:05:25.1	268.540	-0.020	-0.240	1.050
2020/01/31 00:05:25.2	268.540	-0.010	-0.260	1.060
2020/01/31 00:05:25.3	268.550	-0.000	-0.280	1.080
2020/01/31 00:05:25.4	268.550	0.010	-0.300	1.090
2020/01/31 00:05:25.5	268.560	0.020	-0.320	1.100
2020/01/31 00:05:25.6	268.570	0.030	-0.340	1.100
2020/01/31 00:05:25.7	268.570	0.040	-0.360	1.110
2020/01/31 00:05:25.8	268.580	0.050	-0.380	1.110
2020/01/31 00:05:25.9	268.590	0.060	-0.400	1.120
2020/01/31 00:05:26.0	268.600	0.070	-0.420	1.120
2020/01/31 00:05:26.1	268.610	0.080	-0.440	1.110
2020/01/31 00:05:26.2	268.610	0.100	-0.450	1.110
2020/01/31 00:05:26.3	268.620	0.110	-0.470	1.110
2020/01/31 00:05:26.4	268.630	0.120	-0.490	1.100
2020/01/31 00:05:26.5	268.640	0.130	-0.500	1.100
2020/01/31 00:05:26.6	268.650	0.140	-0.520	1.090
2020/01/31 00:05:26.7	268.650	0.150	-0.530	1.080
2020/01/31 00:05:26.8	268.660	0.170	-0.540	1.070
2020/01/31 00:05:26.9	268.660	0.170	-0.550	1.060
2020/01/31 00:05:27.0	268.670	0.180	-0.560	1.040
2020/01/31 00:05:27.1	268.670	0.190	-0.560	1.030
2020/01/31 00:05:27.2	268.680	0.200	-0.570	1.020
2020/01/31 00:05:27.3	268.680	0.200	-0.570	1.000
2020/01/31 00:05:27.4	268.680	0.210	-0.570	0.980
2020/01/31 00:05:27.5	268.690	0.210	-0.570	0.970
2020/01/31 00:05:27.6	268.690	0.210	-0.560	0.950
2020/01/31 00:05:27.7	268.690	0.210	-0.550	0.930
2020/01/31 00:05:27.8	268.690	0.210	-0.550	0.920
2020/01/31 00:05:27.9	268.690	0.210	-0.530	0.900
2020/01/31 00:05:28.0	268.700	0.210	-0.520	0.880
2020/01/31 00:05:28.1	268.700	0.200	-0.500	0.860
2020/01/31 00:05:28.2	268.700	0.200	-0.490	0.830
2020/01/31 00:05:28.3	268.700	0.190	-0.470	0.810
2020/01/31 00:05:28.4	268.700	0.180	-0.450	0.790
2020/01/31 00:05:28.5	268.700	0.170	-0.430	0.770
2020/01/31 00:05:28.6	268.690	0.160	-0.410	0.740
2020/01/31 00:05:28.7	268.690	0.140	-0.390	0.720
2020/01/31 00:05:28.8	268.690	0.130	-0.370	0.690
2020/01/31 00:05:28.9	268.680	0.110	-0.350	0.670
2020/01/31 00:05:29.0	268.680	0.100	-0.330	0.640
2020/01/31 00:05:29.1	268.680	0.080	-0.310	0.610
2020/01/31 00:05:29.2	268.680	0.060	-0.290	0.580
2020/01/31 00:05:29.3	268.670	0.050	-0.270	0.560
2020/01/31 00:05:29.4	268.670	0.030	-0.250	0.530
2020/01/31 00:05:29.5	268.670	0.010	-0.230	0.500
2020/01/31 00:05:29.6	268.660	-0.000	-0.210	0.470
2020/01/31 00:05:29.7	268.660	-0.020	-0.200	0.440
2020/01/31 00:05:29.8	268.660	-0.040	-0.180	0.410
2020/01/31 00:05:29.9	268.660	-0.050	-0.170	0.380
2020/01/31 00:05:30.0	268.630	-0.070	-0.170	0.350
2020/01/31 00:05:30.1	268.620	-0.080	-0.160	0.320
2020/01/31 00:05:30.2	268.620	-0.090	-0.160	0.290
2020/01/31 00:05:30.3	268.620	-0.110	-0.150	0.270
2020/01/31 00:05:30.4	268.620	-0.120	-0.160	0.240
2020/01/31 00:05:30.5	268.620	-0.130	-0.160	0.220
2020/01/31 00:05:30.6	268.620	-0.130	-0.160	0.190
2020/01/31 00:05:30.7	268.620	-0.140	-0.170	0.170
2020/01/31 00:05:30.8	268.620	-0.150	-0.180	0.160
2020/01/31 00:05:30.9	268.610	-0.150	-0.190	0.140
2020/01/31 00:05:31.0	268.610	-0.150	-0.200	0.120
2020/01/31 00:05:31.1	268.620	-0.160	-0.220	0.110
2020/01/31 00:05:31.2	268.620	-0.160	-0.230	0.100
2020/01/31 00:05:31.3	268.630	-0.150	-0.250	0.090
2020/01/31 00:05:31.4	268.630	-0.150	-0.260	0.080
2020/01/31 00:05:31.5	268.640	-0.150	-0.280	0.080
2020/01/31 00:05:31.6	268.650	-0.150	-0.290	0.070
2020/01/31 00:05:31.7	268.660	-0.140	-0.310	0.070
2020/01/31 00:05:31.8	268.670	-0.140	-0.320	0.070
2020/01/31 00:05:31.9	268.710	-0.130	-0.340	0.070
2020/01/31 00:05:32.0	268.720	-0.120	-0.350	0.080
2020/01/31 00:05:32.1	268.730	-0.120	-0.360	0.080
2020/01/31 00:05:32.2	268.740	-0.110	-0.370	0.090
2020/01/31 00:05:32.3	268.750	-0.100	-0.380	0.100
2020/01/31 00:05:32.4	268.770	-0.100	-0.390	0.120
2020/01/31 00:05:32.5	268.780	-0.090	-0.400	0.130
2020/01/31 00:05:32.6	268.790	-0.080	-0.400	0.150
2020/01/31 00:05:32.7	268.800	-0.070	-0.400	0.170
2020/01/31 00:05:32.8	268.810	-0.070	-0.410	0.200
2020/01/31 00:05:32.9	268.810	-0.060	-0.410	0.220
2020/01/31 00:05:33.0	268.820	-0.050	-0.410	0.250
2020/01/31 00:05:33.1	268.830	-0.050	-0.400	0.280
2020/01/31 00:05:33.2	268.830	-0.040	-0.400	0.310
2020/01/31 00:05:33.3	268.840	-0.040	-0.390	0.340
2020/01/31 00:05:33.4	268.840	-0.030	-0.380	0.370
2020/01/31 00:05:33.5	268.850	-0.030	-0.370	0.400
2020/01/31 00:05:33.6	268.850	-0.020	-0.360	0.430
2020/01/31 00:05:33.7	268.850	-0.020	-0.350	0.460
2020/01/31 00:05:33.8	268.850	-0.020	-0.340	0.490
2020/01/31 00:05:33.9	268.850	-0.020	-0.330	0.520
2020/01/31 00:05:34.0	268.850	-0.020	-0.310	0.550
2020/01/31 00:05:34.1	268.850	-0.020	-0.300	0.580
2020/01/31 00:05:34.2	268.840	-0.020	-0.280	0.610
2020/01/31 00:05:34.3	268.840	-0.020	-0.270	0.640
2020/01/31 00:05:34.4	268.830	-0.020	-0.250	0.660
2020/01/31 00:05:34.5	268.830	-0.020	-0.230	0.690
2020/01/31 00:05:34.6	268.820	-0.020	-0.220	0.710
2020/01/31 00:05:34.7	268.820	-0.020	-0.200	0.730
2020/01/31 00:05:34.8	268.810	-0.030	-0.190	0.750
2020/01/31 00:05:34.9	268.800	-0.030	-0.170	0.770
2020/01/31 00:05:35.0	268.790	-0.030	-0.150	0.780
2020/01/31 00:05:35.1	268.780	-0.040	-0.140	0.800
2020/01/31 00:05:35.2	268.780	-0.040	-0.120	0.810
2020/01/31 00:05:35.3	268.770	-0.040	-0.110	0.820
2020/01/31 00:05:35.4	268.760	-0.050	-0.090	0.830
2020/01/31 00:05:35.5	268.760	-0.050	-0.080	0.840
2020/01/31 00:05:35.6	268.750	-0.060	-0.060	0.850
2020/01/31 00:05:35.7	268.750	-0.060	-0.050	0.850
2020/01/31 00:05:35.8	268.740	-0.060	-0.040	0.850
2020/01/31 00:05:35.9	268.740	-0.070	-0.030	0.850
2020/01/31 00:05:36.0	268.740	-0.070	-0.010	0.850
2020/01/31 00:05:36.1	268.730	-0.070	-0.000	0.840
2020/01/31 00:05:36.2	268.730	-0.080	0.010	0.840
2020/01/31 00:05:36.3	268.730	-0.080	0.030	0.830
2020/01/31 00:05:36.4	268.720	-0.080	0.040	0.820
2020/01/31 00:05:36.5	268.720	-0.090	0.050	0.810
2020/01/31 00:05:36.6	268.720	-0.090	0.060	0.790
2020/01/31 00:05:36.7	268.710	-0.090	0.080	0.780
2020/01/31 00:05:36.8	268.710	-0.090	0.090	0.760
2020/01/31 00:05:36.9	268.710	-0.100	0.100	0.750
2020/01/31 00:05:37.0	268.700	-0.100	0.110	0.730
2020/01/31 00:05:37.1	268.700	-0.100	0.120	0.710
2020/01/31 00:05:37.2	268.700	-0.100	0.130	0.690
2020/01/31 00:05:37.3	268.700	-0.100	0.140	0.670
2020/01/31 00:05:37.4	268.700	-0.100	0.150	0.650
2020/01/31 00:05:37.5	268.690	-0.100	0.150	0.630
2020/01/31 00:05:37.6	268.690	-0.100	0.150	0.610
2020/01/31 00:05:37.7	268.690	-0.100	0.150	0.590
2020/01/31 00:05:37.8	268.690	-0.100	0.150	0.560
2020/01/31 00:05:37.9	268.690	-0.100	0.150	0.540
2020/01/31 00:05:38.0	268.690	-0.100	0.140	0.520
2020/01/31 00:05:38.1	268.690	-0.090	0.140	0.500
2020/01/31 00:05:38.2	268.690	-0.090	0.130	0.480
2020/01/31 00:05:38.3	268.690	-0.080	0.110	0.450
2020/01/31 00:05:38.4	268.680	-0.080	0.100	0.430
2020/01/31 00:05:38.5	268.680	-0.070	0.080	0.410
2020/01/31 00:05:38.6	268.680	-0.070	0.060	0.390
2020/01/31 00:05:38.7	268.680	-0.060	0.040	0.360
2020/01/31 00:05:38.8	268.680	-0.050	0.010	0.340
2020/01/31 00:05:38.9	268.680	-0.050	-0.010	0.320
2020/01/31 00:05:39.0	268.680	-0.040	-0.040	0.300
2020/01/31 00:05:39.1	268.680	-0.030	-0.070	0.280
2020/01/31 00:05:39.2	268.680	-0.020	-0.110	0.260
2020/01/31 00:05:39.3	268.680	-0.010	-0.140	0.240
2020/01/31 00:05:39.4	268.680	0.000	-0.180	0.220
2020/01/31 00:05:39.5	268.680	0.010	-0.220	0.210
2020/01/31 00:05:39.6	268.680	0.020	-0.260	0.190
2020/01/31 00:05:39.7	268.690	0.040	-0.300	0.180
2020/01/31 00:05:39.8	268.690	0.050	-0.340	0.170
2020/01/31 00:05:39.9	268.700	0.060	-0.380	0.160
2020/01/31 00:05:40.0	268.700	0.070	-0.430	0.160
2020/01/31 00:05:40.1	268.700	0.080	-0.470	0.150
2020/01/31 00:05:40.2	268.710	0.090	-0.510	0.150
2020/01/31 00:05:40.3	268.710	0.110	-0.560	0.150
2020/01/31 00:05:40.4	268.710	0.120	-0.600	0.150
2020/01/31 00:05:40.5	268.720	0.130	-0.640	0.150
2020/01/31 00:05:40.6	268.720	0.140	-0.690	0.160
2020/01/31 00:05:40.7	268.720	0.150	-0.730	0.160
2020/01/31 00:05:40.8	268.730	0.160	-0.770	0.170
2020/01/31 00:05:40.9	268.710	0.170	-0.810	0.190
2020/01/31 00:05:41.0	268.720	0.180	-0.850	0.200
2020/01/31 00:05:41.1	268.720	0.180	-0.880	0.220
2020/01/31 00:05:41.2	268.720	0.190	-0.910	0.230
2020/01/31 00:05:41.3	268.720	0.190	-0.950	0.250
2020/01/31 00:05:41.4	268.730	0.200	-0.970	0.280
2020/01/31 00:05:41.5	268.730	0.200	-1.000	0.300
2020/01/31 00:05:41.6	268.730	0.210	-1.020	0.330
2020/01/31 00:05:41.7	268.730	0.210	-1.040	0.360
2020/01/31 00:05:41.8	268.730	0.210	-1.060	0.390
2020/01/31 00:05:41.9	268.720	0.210	-1.070	0.410
2020/01/31 00:05:42.0	268.720	0.210	-1.090	0.450
2020/01/31 00:05:42.1	268.710	0.210	-1.090	0.480
2020/01/31 00:05:42.2	268.710	0.210	-1.100	0.510
2020/01/31 00:05:42.3	268.700	0.200	-1.100	0.540
2020/01/31 00:05:42.4	268.700	0.200	-1.110	0.580
2020/01/31 00:05:42.5	268.690	0.190	-1.100	0.610
2020/01/31 00:05:42.6	268.690	0.190	-1.100	0.640
2020/01/31 00:05:42.7	268.680	0.180	-1.090	0.670
2020/01/31 00:05:42.8	268.680	0.170	-1.080	0.690
2020/01/31 00:05:42.9	268.670	0.160	-1.070	0.720
2020/01/31 00:05:43.0	268.650	0.150	-1.060	0.750
2020/01/31 00:05:43.1	268.650	0.150	-1.040	0.770
2020/01/31 00:05:43.2	268.640	0.140	-1.020	0.790
2020/01/31 00:05:43.3	268.640	0.120	-1.000	0.820
2020/01/31 00:05:43.4	268.630	0.110	-0.980	0.840
2020/01/31 00:05:43.5	268.620	0.100	-0.960	0.850
2020/01/31 00:05:43.6	268.620	0.090	-0.930	0.870
2020/01/31 00:05:43.7	268.610	0.080	-0.900	0.890
2020/01/31 00:05:43.8	268.610	0.070	-0.880	0.900
2020/01/31 00:05:43.9	268.600	0.050	-0.850	0.920
2020/01/31 00:05:44.0	268.600	0.040	-0.820	0.930
2020/01/31 00:05:44.1	268.590	0.030	-0.780	0.940
2020/01/31 00:05:44.2	268.580	0.020	-0.750	0.950
2020/01/31 00:05:44.3	268.580	0.010	-0.720	0.960
2020/01/31 00:05:44.4	268.570	-0.010	-0.680	0.960
2020/01/31 00:05:44.5	268.570	-0.020	-0.650	0.970
2020/01/31 00:05:44.6	268.560	-0.030	-0.610	0.970
2020/01/31 00:05:44.7	268.560	-0.040	-0.570	0.980
2020/01/31 00:05:44.8	268.550	-0.050	-0.540	0.980
2020/01/31 00:05:44.9	268.560	-0.060	-0.500	0.980
2020/01/31 00:05:45.0	268.560	-0.080	-0.460	0.970
2020/01/31 00:05:45.1	268.560	-0.090	-0.420	0.970
2020/01/31 00:05:45.2	268.560	-0.100	-0.380	0.960
2020/01/31 00:05:45.3	268.560	-0.110	-0.340	0.950
2020/01/31 00:05:45.4	268.560	-0.110	-0.300	0.940
2020/01/31 00:05:45.5	268.560	-0.120	-0.260	0.930
2020/01/31 00:05:45.6	268.560	-0.130	-0.220	0.920
2020/01/31 00:05:45.7	268.570	-0.140	-0.180	0.910
2020/01/31 00:05:45.8	268.570	-0.140	-0.140	0.900
2020/01/31 00:05:45.9	268.590	-0.150	-0.090	0.880
2020/01/31 00:05:46.0	268.590	-0.160	-0.050	0.870
2020/01/31 00:05:46.1	268.600	-0.160	-0.010	0.850
2020/01/31 00:05:46.2	268.610	-0.160	0.020	0.840
2020/01/31 00:05:46.3	268.620	-0.170	0.060	0.820
2020/01/31 00:05:46.4	268.630	-0.170	0.100	0.800
2020/01/31 00:05:46.5	268.640	-0.170	0.130	0.790
2020/01/31 00:05:46.6	268.650	-0.180	0.160	0.770
2020/01/31 00:05:46.7	268.650	-0.180	0.200	0.750
2020/01/31 00:05:46.8	268.660	-0.180	0.230	0.730
2020/01/31 00:05:46.9	268.670	-0.180	0.250	0.720
2020/01/31 00:05:47.0	268.680	-0.180	0.280	0.700
2020/01/31 00:05:47.1	268.690	-0.180	0.300	0.680
2020/01/31 00:05:47.2	268.690	-0.180	0.330	0.670
2020/01/31 00:05:47.3	268.690	-0.180	0.350	0.650
2020/01/31 00:05:47.4	268.690	-0.180	0.370	0.640
2020/01/31 00:05:47.5	268.690	-0.180	0.380	0.620
2020/01/31 00:05:47.6	268.690	-0.180	0.400	0.610
2020/01/31 00:05:47.7	268.690	-0.180	0.410	0.590
2020/01/31 00:05:47.8	268.680	-0.170	0.420	0.580
2020/01/31 00:05:47.9	268.680	-0.170	0.430	0.570
2020/01/31 00:05:48.0	268.670	-0.170	0.430	0.560
2020/01/31 00:05:48.1	268.670	-0.170	0.440	0.550
2020/01/31 00:05:48.2	268.660	-0.170	0.450	0.540
2020/01/31 00:05:48.3	268.650	-0.170	0.450	0.540
2020/01/31 00:05:48.4	268.650	-0.170	0.450	0.530
2020/01/31 00:05:48.5	268.640	-0.170	0.450	0.520
2020/01/31 00:05:48.6	268.630	-0.170	0.450	0.510
2020/01/31 00:05:48.7	268.620	-0.170	0.450	0.510
2020/01/31 00:05:48.8	268.620	-0.170	0.450	0.500
2020/01/31 00:05:48.9	268.620	-0.160	0.440	0.490
2020/01/31 00:05:49.0	268.620	-0.160	0.440	0.490
2020/01/31 00:05:49.1	268.610	-0.160	0.430	0.480
2020/01/31 00:05:49.2	268.610	-0.160	0.420	0.480
2020/01/31 00:05:49.3	268.610	-0.160	0.410	0.480
2020/01/31 00:05:49.4	268.600	-0.160	0.400	0.480
2020/01/31 00:05:49.5	268.600	-0.160	0.390	0.490
2020/01/31 00:05:49.6	268.600	-0.160	0.380	0.490
2020/01/31 00:05:49.7	268.600	-0.150	0.370	0.500
2020/01/31 00:05:49.8	268.600	-0.150	0.360	0.510
2020/01/31 00:05:49.9	268.610	-0.150	0.340	0.520
2020/01/31 00:05:50.0	268.610	-0.140	0.330	0.530
2020/01/31 00:05:50.1	268.610	-0.140	0.310	0.540
2020/01/31 00:05:50.2	268.620	-0.130	0.290	0.560
2020/01/31 00:05:50.3	268.620	-0.130	0.270	0.570
2020/01/31 00:05:50.4	268.630	-0.120	0.250	0.590
2020/01/31 00:05:50.5	268.640	-0.110	0.230	0.610
2020/01/31 00:05:50.6	268.640	-0.100	0.210	0.630
2020/01/31 00:05:50.7	268.650	-0.100	0.180	0.650
2020/01/31 00:05:50.8	268.660	-0.080	0.150	0.670
2020/01/31 00:05:50.9	268.670	-0.070	0.120	0.680
2020/01/31 00:05:51.0	268.680	-0.060	0.090	0.710
2020/01/31 00:05:51.1	268.690	-0.050	0.060	0.730
2020/01/31 00:05:51.2	268.700	-0.030	0.020	0.750
2020/01/31 00:05:51.3	268.710	-0.020	-0.010	0.770
2020/01/31 00:05:51.4	268.720	0.000	-0.050	0.790
2020/01/31 00:05:51.5	268.730	0.020	-0.090	0.810
2020/01/31 00:05:51.6	268.740	0.040	-0.130	0.830
2020/01/31 00:05:51.7	268.750	0.060	-0.180	0.850
2020/01/31 00:05:51.8	268.760	0.080	-0.220	0.870
2020/01/31 00:05:51.9	268.770	0.100	-0.260	0.890
2020/01/31 00:05:52.0	268.780	0.120	-0.300	0.900
2020/01/31 00:05:52.1	268.790	0.140	-0.350	0.920
2020/01/31 00:05:52.2	268.800	0.170	-0.390	0.930
2020/01/31 00:05:52.3	268.810	0.190	-0.440	0.940
2020/01/31 00:05:52.4	268.820	0.220	-0.490	0.950
2020/01/31 00:05:52.5	268.830	0.240	-0.530	0.960
2020/01/31 00:05:52.6	268.830	0.260	-0.580	0.970
2020/01/31 00:05:52.7	268.840	0.290	-0.620	0.970
2020/01/31 00:05:52.8	268.850	0.310	-0.660	0.980
2020/01/31 00:05:52.9	268.850	0.330	-0.710	0.980
2020/01/31 00:05:53.0	268.860	0.360	-0.750	0.980
2020/01/31 00:05:53.1	268.870	0.380	-0.790	0.980
2020/01/31 00:05:53.2	268.870	0.400	-0.820	0.980
2020/01/31 00:05:53.3	268.880	0.420	-0.860	0.970
2020/01/31 00:05:53.4	268.880	0.440	-0.890	0.960
2020/01/31 00:05:53.5	268.890	0.450	-0.910	0.960
2020/01/31 00:05:53.6	268.890	0.470	-0.940	0.950
2020/01/31 00:05:53.7	268.900	0.480	-0.960	0.930
2020/01/31 00:05:53.8	268.900	0.490	-0.980	0.920
2020/01/31 00:05:53.9	268.910	0.500	-1.000	0.900
2020/01/31 00:05:54.0	268.920	0.510	-1.010	0.890
2020/01/31 00:05:54.1	268.920	0.510	-1.020	0.870
2020/01/31 00:05:54.2	268.930	0.510	-1.030	0.840
2020/01/31 00:05:54.3	268.930	0.510	-1.040	0.820
2020/01/31 00:05:54.4	268.940	0.510	-1.040	0.800
2020/01/31 00:05:54.5	268.950	0.510	-1.040	0.770
2020/01/31 00:05:54.6	268.950	0.500	-1.040	0.740
2020/01/31 00:05:54.7	268.960	0.490	-1.030	0.710
2020/01/31 00:05:54.8	268.960	0.480	-1.020	0.680
2020/01/31 00:05:54.9	268.970	0.460	-1.010	0.640
2020/01/31 00:05:55.0	268.980	0.440	-1.000	0.610
2020/01/31 00:05:55.1	268.980	0.430	-0.980	0.570
2020/01/31 00:05:55.2	268.990	0.400	-0.970	0.540
2020/01/31 00:05:55.3	268.990	0.380	-0.950	0.500
2020/01/31 00:05:55.4	268.990	0.350	-0.930	0.460
2020/01/31 00:05:55.5	269.000	0.330	-0.900	0.420
2020/01/31 00:05:55.6	269.000	0.300	-0.880	0.380
2020/01/31 00:05:55.7	269.000	0.270	-0.850	0.350
2020/01/31 00:05:55.8	269.010	0.240	-0.830	0.310
2020/01/31 00:05:55.9	269.020	0.200	-0.800	0.270
2020/01/31 00:05:56.0	269.020	0.170	-0.770	0.240
2020/01/31 00:05:56.1	269.020	0.140	-0.740	0.200
2020/01/31 00:05:56.2	269.020	0.100	-0.710	0.170
2020/01/31 00:05:56.3	269.020	0.070	-0.680	0.140
2020/01/31 00:05:56.4	269.020	0.040	-0.660	0.120
2020/01/31 00:05:56.5	269.020	0.000	-0.630	0.090
2020/01/31 00:05:56.6	269.020	-0.030	-0.610	0.070
2020/01/31 00:05:56.7	269.020	-0.060	-0.580	0.050
2020/01/31 00:05:56.8	269.010	-0.090	-0.560	0.030
2020/01/31 00:05:56.9	269.010	-0.120	-0.540	0.020
2020/01/31 00:05:57.0	268.990	-0.150	-0.510	0.010
2020/01/31 00:05:57.1	268.990	-0.170	-0.490	0.000
2020/01/31 00:05:57.2	268.980	-0.200	-0.470	-0.000
2020/01/31 00:05:57.3	268.980	-0.220	-0.460	-0.010
2020/01/31 00:05:57.4	268.970	-0.240	-0.440	-0.010
2020/01/31 00:05:57.5	268.970	-0.260	-0.430	-0.000
2020/01/31 00:05:57.6	268.960	-0.280	-0.420	0.000
2020/01/31 00:05:57.7	268.950	-0.290	-0.410	0.010
2020/01/31 00:05:57.8	268.940	-0.310	-0.410	0.030
2020/01/31 00:05:57.9	268.920	-0.320	-0.400	0.040
2020/01/31 00:05:58.0	268.910	-0.330	-0.400	0.060
2020/01/31 00:05:58.1	268.900	-0.330	-0.400	0.080
2020/01/31 00:05:58.2	268.890	-0.340	-0.400	0.100
2020/01/31 00:05:58.3	268.880	-0.340	-0.400	0.130
2020/01/31 00:05:58.4	268.870	-0.340	-0.410	0.150
2020/01/31 00:05:58.5	268.860	-0.340	-0.410	0.180
2020/01/31 00:05:58.6	268.850	-0.340	-0.420	0.210
2020/01/31 00:05:58.7	268.840	-0.340	-0.420	0.240
2020/01/31 00:05:58.8	268.830	-0.330	-0.430	0.280
2020/01/31 00:05:58.9	268.810	-0.330	-0.440	0.310
2020/01/31 00:05:59.0	268.800	-0.320	-0.440	0.350
2020/01/31 00:05:59.1	268.790	-0.310	-0.450	0.380
2020/01/31 00:05:59.2	268.780	-0.300	-0.460	0.420
2020/01/31 00:05:59.3	268.770	-0.290	-0.460	0.460
2020/01/31 00:05:59.4	268.750	-0.280	-0.470	0.490
2020/01/31 00:05:59.5	268.740	-0.270	-0.470	0.530
2020/01/31 00:05:59.6	268.730	-0.260	-0.480	0.570
2020/01/31 00:05:59.7	268.710	-0.250	-0.480	0.610
2020/01/31 00:05:59.8	268.700	-0.240	-0.480	0.640
2020/01/31 00:05:59.9	268.680	-0.220	-0.480	0.680
2020/01/31 00:06:00.0	268.670	-0.210	-0.480	0.720
2020/01/31 00:06:00.1	268.660	-0.200	-0.470	0.760
2020/01/31 00:06:00.2	268.640	-0.200	-0.460	0.790
2020/01/31 00:06:00.3	268.630	-0.190	-0.450	0.830
2020/01/31 00:06:00.4	268.620	-0.180	-0.430	0.860
2020/01/31 00:06:00.5	268.610	-0.170	-0.410	0.900
2020/01/31 00:06:00.6	268.600	-0.170	-0.390	0.930
2020/01/31 00:06:00.7	268.590	-0.170	-0.360	0.960
2020/01/31 00:06:00.8	268.570	-0.160	-0.330	0.990
2020/01/31 00:06:00.9	268.560	-0.160	-0.300	1.020
2020/01/31 00:06:01.0	268.550	-0.160	-0.260	1.040
2020/01/31 00:06:01.1	268.550	-0.170	-0.220	1.070
2020/01/31 00:06:01.2	268.540	-0.170	-0.180	1.090
2020/01/31 00:06:01.3	268.530	-0.170	-0.130	1.110
2020/01/31 00:06:01.4	268.520	-0.180	-0.080	1.120
2020/01/31 00:06:01.5	268.520	-0.190	-0.030	1.140
2020/01/31 00:06:01.6	268.510	-0.200	0.020	1.140
2020/01/31 00:06:01.7	268.510	-0.200	0.070	1.150
2020/01/31 00:06:01.8	268.510	-0.210	0.120	1.150
2020/01/31 00:06:01.9	268.510	-0.220	0.170	1.150
2020/01/31 00:06:02.0	268.510	-0.230	0.230	1.150
2020/01/31 00:06:02.1	268.510	-0.240	0.280	1.140
2020/01/31 00:06:02.2	268.510	-0.250	0.330	1.120
2020/01/31 00:06:02.3	268.520	-0.260	0.380	1.110
2020/01/31 00:06:02.4	268.530	-0.270	0.430	1.080
2020/01/31 00:06:02.5	268.530	-0.280	0.470	1.060
2020/01/31 00:06:02.6	268.540	-0.290	0.520	1.030
2020/01/31 00:06:02.7	268.550	-0.300	0.560	1.000
2020/01/31 00:06:02.8	268.560	-0.300	0.590	0.960
2020/01/31 00:06:02.9	268.560	-0.310	0.620	0.920
2020/01/31 00:06:03.0	268.580	-0.310	0.650	0.880
2020/01/31 00:06:03.1	268.600	-0.310	0.670	0.840
2020/01/31 00:06:03.2	268.610	-0.310	0.690	0.800
2020/01/31 00:06:03.3	268.630	-0.310	0.700	0.750
2020/01/31 00:06:03.4	268.650	-0.300	0.710	0.700
2020/01/31 00:06:03.5	268.670	-0.300	0.720	0.650
2020/01/31 00:06:03.6	268.700	-0.290	0.720	0.600
2020/01/31 00:06:03.7	268.720	-0.280	0.710	0.550
2020/01/31 00:06:03.8	268.740	-0.260	0.700	0.500
2020/01/31 00:06:03.9	268.780	-0.250	0.690	0.450
2020/01/31 00:06:04.0	268.810	-0.230	0.670	0.400
2020/01/31 00:06:04.1	268.830	-0.210	0.650	0.350
2020/01/31 00:06:04.2	268.860	-0.190	0.620	0.300
2020/01/31 00:06:04.3	268.900	-0.160	0.590	0.260
2020/01/31 00:06:04.4	268.930	-0.140	0.550	0.210
2020/01/31 00:06:04.5	268.960	-0.110	0.520	0.170
2020/01/31 00:06:04.6	268.990	-0.080	0.470	0.130
2020/01/31 00:06:04.7	269.030	-0.060	0.430	0.090
2020/01/31 00:06:04.8	269.060	-0.030	0.380	0.050
2020/01/31 00:06:04.9	269.100	0.000	0.330	0.020
2020/01/31 00:06:05.0	269.130	0.030	0.280	-0.010
2020/01/31 00:06:05.1	269.170	0.060	0.230	-0.030
2020/01/31 00:06:05.2	269.200	0.100	0.170	-0.050
2020/01/31 00:06:05.3	269.230	0.130	0.120	-0.070
2020/01/31 00:06:05.4	269.270	0.160	0.060	-0.080
2020/01/31 00:06:05.5	269.300	0.180	0.000	-0.090
2020/01/31 00:06:05.6	269.330	0.210	-0.060	-0.090
2020/01/31 00:06:05.7	269.360	0.240	-0.120	-0.090
2020/01/31 00:06:05.8	269.380	0.270	-0.180	-0.090
2020/01/31 00:06:05.9	269.420	0.290	-0.230	-0.080
2020/01/31 00:06:06.0	269.440	0.310	-0.300	-0.070
2020/01/31 00:06:06.1	269.470	0.340	-0.350	-0.050
2020/01/31 00:06:06.2	269.490	0.360	-0.410	-0.030
2020/01/31 00:06:06.3	269.500	0.370	-0.470	-0.000
2020/01/31 00:06:06.4	269.520	0.390	-0.530	0.030
2020/01/31 00:06:06.5	269.530	0.400	-0.590	0.060
2020/01/31 00:06:06.6	269.530	0.420	-0.640	0.090
2020/01/31 00:06:06.7	269.540	0.430	-0.700	0.130
2020/01/31 00:06:06.8	269.540	0.430	-0.750	0.170
2020/01/31 00:06:06.9	269.540	0.440	-0.800	0.210
2020/01/31 00:06:07.0	269.540	0.440	-0.850	0.260
2020/01/31 00:06:07.1	269.530	0.450	-0.900	0.300
2020/01/31 00:06:07.2	269.520	0.450	-0.940	0.350
2020/01/31 00:06:07.3	269.500	0.450	-0.990	0.400
2020/01/31 00:06:07.4	269.480	0.440	-1.030	0.450
2020/01/31 00:06:07.5	269.460	0.440	-1.060	0.510
2020/01/31 00:06:07.6	269.430	0.430	-1.100	0.560
2020/01/31 00:06:07.7	269.400	0.420	-1.130	0.620
2020/01/31 00:06:07.8	269.370	0.410	-1.160	0.670
2020/01/31 00:06:07.9	269.330	0.400	-1.190	0.730
2020/01/31 00:06:08.0	269.290	0.390	-1.210	0.780
2020/01/31 00:06:08.1	269.250	0.380	-1.230	0.840
2020/01/31 00:06:08.2	269.210	0.370	-1.240	0.900
2020/01/31 00:06:08.3	269.160	0.350	-1.260	0.960
2020/01/31 00:06:08.4	269.110	0.340	-1.270	1.020
2020/01/31 00:06:08.5	269.060	0.320	-1.270	1.070
2020/01/31 00:06:08.6	269.000	0.310	-1.270	1.130
2020/01/31 00:06:08.7	268.940	0.290	-1.270	1.190
2020/01/31 00:06:08.8	268.880	0.270	-1.270	1.240
2020/01/31 00:06:08.9	268.830	0.260	-1.250	1.300
2020/01/31 00:06:09.0	268.770	0.240	-1.240	1.350
2020/01/31 00:06:09.1	268.710	0.230	-1.230	1.400
2020/01/31 00:06:09.2	268.640	0.210	-1.210	1.450
2020/01/31 00:06:09.3	268.570	0.200	-1.190	1.500
2020/01/31 00:06:09.4	268.510	0.180	-1.160	1.540
2020/01/31 00:06:09.5	268.440	0.170	-1.140	1.580
2020/01/31 00:06:09.6	268.370	0.150	-1.110	1.620
2020/01/31 00:06:09.7	268.310	0.140	-1.080	1.660
2020/01/31 00:06:09.8	268.240	0.130	-1.050	1.690
2020/01/31 00:06:09.9	268.190	0.120	-1.010	1.720
2020/01/31 00:06:10.0	268.120	0.110	-0.980	1.740
2020/01/31 00:06:10.1	268.060	0.100	-0.940	1.760
2020/01/31 00:06:10.2	267.990	0.090	-0.900	1.780
2020/01/31 00:06:10.3	267.930	0.080	-0.860	1.790
2020/01/31 00:06:10.4	267.870	0.070	-0.820	1.810
2020/01/31 00:06:10.5	267.820	0.060	-0.780	1.820
2020/01/31 00:06:10.6	267.760	0.050	-0.740	1.820
2020/01/31 00:06:10.7	267.710	0.050	-0.700	1.830
2020/01/31 00:06:10.8	267.650	0.040	-0.660	1.830
2020/01/31 00:06:10.9	267.620	0.040	-0.620	1.830
2020/01/31 00:06:11.0	267.570	0.030	-0.580	1.830
2020/01/31 00:06:11.1	267.520	0.030	-0.540	1.820
2020/01/31 00:06:11.2	267.480	0.030	-0.500	1.820
2020/01/31 00:06:11.3	267.440	0.020	-0.460	1.810
2020/01/31 00:06:11.4	267.400	0.020	-0.420	1.800
2020/01/31 00:06:11.5	267.370	0.020	-0.380	1.790
2020/01/31 00:06:11.6	267.340	0.020	-0.340	1.780
2020/01/31 00:06:11.7	267.310	0.010	-0.300	1.770
2020/01/31 00:06:11.8	267.280	0.010	-0.260	1.760
2020/01/31 00:06:11.9	267.240	0.010	-0.220	1.740
2020/01/31 00:06:12.0	267.220	0.010	-0.190	1.730
2020/01/31 00:06:12.1	267.200	0.010	-0.150	1.710
2020/01/31 00:06:12.2	267.190	0.000	-0.110	1.690
2020/01/31 00:06:12.3	267.170	0.000	-0.080	1.670
2020/01/31 00:06:12.4	267.160	-0.000	-0.040	1.650
2020/01/31 00:06:12.5	267.160	-0.000	-0.010	1.620
2020/01/31 00:06:12.6	267.150	-0.010	0.020	1.600
2020/01/31 00:06:12.7	267.150	-0.010	0.060	1.570
2020/01/31 00:06:12.8	267.150	-0.020	0.090	1.550
2020/01/31 00:06:12.9	267.170	-0.020	0.120	1.520
2020/01/31 00:06:13.0	267.170	-0.020	0.150	1.490
2020/01/31 00:06:13.1	267.180	-0.030	0.180	1.460
2020/01/31 00:06:13.2	267.200	-0.030	0.210	1.420
2020/01/31 00:06:13.3	267.220	-0.040	0.240	1.390
2020/01/31 00:06:13.4	267.240	-0.050	0.270	1.350
2020/01/31 00:06:13.5	267.260	-0.050	0.300	1.310
2020/01/31 00:06:13.6	267.290	-0.060	0.320	1.270
2020/01/31 00:06:13.7	267.310	-0.070	0.350	1.230
2020/01/31 00:06:13.8	267.350	-0.070	0.370	1.180
2020/01/31 00:06:13.9	267.380	-0.080	0.400	1.140
2020/01/31 00:06:14.0	267.430	-0.080	0.420	1.090
2020/01/31 00:06:14.1	267.470	-0.090	0.450	1.050
2020/01/31 00:06:14.2	267.520	-0.100	0.470	1.000
2020/01/31 00:06:14.3	267.570	-0.100	0.490	0.950
2020/01/31 00:06:14.4	267.620	-0.110	0.500	0.900
2020/01/31 00:06:14.5	267.680	-0.110	0.520	0.850
2020/01/31 00:06:14.6	267.730	-0.120	0.540	0.800
2020/01/31 00:06:14.7	267.800	-0.120	0.550	0.760
2020/01/31 00:06:14.8	267.860	-0.130	0.560	0.710
2020/01/31 00:06:14.9	267.920	-0.130	0.560	0.660
2020/01/31 00:06:15.0	267.990	-0.130	0.570	0.610
2020/01/31 00:06:15.1	268.050	-0.140	0.570	0.570
2020/01/31 00:06:15.2	268.120	-0.140	0.570	0.520
2020/01/31 00:06:15.3	268.200	-0.140	0.570	0.480
2020/01/31 00:06:15.4	268.270	-0.140	0.560	0.440
2020/01/31 00:06:15.5	268.340	-0.140	0.550	0.400
2020/01/31 00:06:15.6	268.420	-0.140	0.540	0.360
2020/01/31 00:06:15.7	268.490	-0.140	0.520	0.330
2020/01/31 00:06:15.8	268.570	-0.140	0.500	0.300
2020/01/31 00:06:15.9	268.630	-0.130	0.470	0.270
2020/01/31 00:06:16.0	268.700	-0.130	0.440	0.240
2020/01/31 00:06:16.1	268.770	-0.120	0.410	0.220
2020/01/31 00:06:16.2	268.840	-0.120	0.370	0.200
2020/01/31 00:06:16.3	268.910	-0.110	0.330	0.180
2020/01/31 00:06:16.4	268.980	-0.110	0.290	0.170
2020/01/31 00:06:16.5	269.050	-0.100	0.240	0.160
2020/01/31 00:06:16.6	269.110	-0.090	0.190	0.150
2020/01/31 00:06:16.7	269.180	-0.080	0.140	0.140
2020/01/31 00:06:16.8	269.240	-0.070	0.080	0.140
2020/01/31 00:06:16.9	269.300	-0.060	0.020	0.140
2020/01/31 00:06:17.0	269.350	-0.060	-0.040	0.140
2020/01/31 00:06:17.1	269.410	-0.050	-0.100	0.150
2020/01/31 00:06:17.2	269.460	-0.040	-0.170	0.150
2020/01/31 00:06:17.3	269.510	-0.030	-0.230	0.170
2020/01/31 00:06:17.4	269.550	-0.020	-0.300	0.190
2020/01/31 00:06:17.5	269.590	-0.010	-0.360	0.210
2020/01/31 00:06:17.6	269.630	-0.000	-0.430	0.230
2020/01/31 00:06:17.7	269.670	0.010	-0.500	0.250
2020/01/31 00:06:17.8	269.700	0.010	-0.560	0.280
2020/01/31 00:06:17.9	269.730	0.020	-0.620	0.310
2020/01/31 00:06:18.0	269.750	0.030	-0.680	0.350
2020/01/31 00:06:18.1	269.780	0.030	-0.740	0.380
2020/01/31 00:06:18.2	269.800	0.040	-0.800	0.420
2020/01/31 00:06:18.3	269.820	0.040	-0.850	0.460
2020/01/31 00:06:18.4	269.830	0.040	-0.900	0.490
2020/01/31 00:06:18.5	269.840	0.040	-0.950	0.530
2020/01/31 00:06:18.6	269.850	0.050	-0.990	0.580
2020/01/31 00:06:18.7	269.860	0.040	-1.040	0.620
2020/01/31 00:06:18.8	269.870	0.040	-1.070	0.660
2020/01/31 00:06:18.9	269.860	0.040	-1.110	0.710
2020/01/31 00:06:19.0	269.860	0.040	-1.140	0.750
2020/01/31 00:06:19.1	269.850	0.030	-1.170	0.800
2020/01/31 00:06:19.2	269.850	0.030	-1.190	0.850
2020/01/31 00:06:19.3	269.840	0.020	-1.210	0.890
2020/01/31 00:06:19.4	269.830	0.010	-1.230	0.940
2020/01/31 00:06:19.5	269.810	0.000	-1.240	0.990
2020/01/31 00:06:19.6	269.800	-0.010	-1.250	1.040
2020/01/31 00:06:19.7	269.780	-0.010	-1.260	1.090
2020/01/31 00:06:19.8	269.750	-0.020	-1.260	1.130
2020/01/31 00:06:19.9	269.730	-0.030	-1.260	1.180
2020/01/31 00:06:20.0	269.700	-0.040	-1.260	1.230
2020/01/31 00:06:20.1	269.670	-0.050	-1.250	1.270
2020/01/31 00:06:20.2	269.640	-0.060	-1.250	1.320
2020/01/31 00:06:20.3	269.610	-0.070	-1.240	1.360
2020/01/31 00:06:20.4	269.570	-0.080	-1.230	1.400
2020/01/31 00:06:20.5	269.530	-0.090	-1.210	1.440
2020/01/31 00:06:20.6	269.490	-0.100	-1.200	1.470
2020/01/31 00:06:20.7	269.450	-0.110	-1.180	1.510
2020/01/31 00:06:20.8	269.400	-0.110	-1.170	1.540
2020/01/31 00:06:20.9	269.350	-0.120	-1.140	1.570
2020/01/31 00:06:21.0	269.290	-0.130	-1.120	1.600
2020/01/31 00:06:21.1	269.240	-0.130	-1.100	1.620
2020/01/31 00:06:21.2	269.190	-0.130	-1.070	1.640
2020/01/31 00:06:21.3	269.140	-0.140	-1.050	1.650
2020/01/31 00:06:21.4	269.090	-0.140	-1.020	1.660
2020/01/31 00:06:21.5	269.040	-0.140	-0.990	1.670
2020/01/31 00:06:21.6	268.980	-0.140	-0.950	1.670
2020/01/31 00:06:21.7	268.930	-0.140	-0.920	1.670
2020/01/31 00:06:21.8	268.880	-0.140	-0.880	1.660
2020/01/31 00:06:21.9	268.830	-0.140	-0.840	1.650
2020/01/31 00:06:22.0	268.780	-0.140	-0.800	1.630
2020/01/31 00:06:22.1	268.730	-0.140	-0.750	1.620
2020/01/31 00:06:22.2	268.680	-0.140	-0.710	1.590
2020/01/31 00:06:22.3	268.640	-0.130	-0.660	1.570
2020/01/31 00:06:22.4	268.600	-0.130	-0.610	1.540
2020/01/31 00:06:22.5	268.560	-0.120	-0.560	1.520
2020/01/31 00:06:22.6	268.520	-0.120	-0.510	1.480
2020/01/31 00:06:22.7	268.480	-0.120	-0.460	1.450
2020/01/31 00:06:22.8	268.450	-0.110	-0.400	1.410
2020/01/31 00:06:22.9	268.420	-0.110	-0.350	1.380
2020/01/31 00:06:23.0	268.390	-0.100	-0.290	1.340
2020/01/31 00:06:23.1	268.370	-0.100	-0.240	1.300
2020/01/31 00:06:23.2	268.350	-0.090	-0.180	1.250
2020/01/31 00:06:23.3	268.330	-0.090	-0.130	1.210
2020/01/31 00:06:23.4	268.310	-0.090	-0.070	1.160
2020/01/31 00:06:23.5	268.300	-0.080	-0.020	1.110
2020/01/31 00:06:23.6	268.290	-0.080	0.030	1.060
2020/01/31 00:06:23.7	268.280	-0.080	0.080	1.010
2020/01/31 00:06:23.8	268.280	-0.080	0.130	0.970
2020/01/31 00:06:23.9	268.280	-0.080	0.180	0.920
2020/01/31 00:06:24.0	268.280	-0.080	0.220	0.860
2020/01/31 00:06:24.1	268.290	-0.080	0.260	0.810
2020/01/31 00:06:24.2	268.290	-0.080	0.300	0.760
2020/01/31 00:06:24.3	268.300	-0.080	0.340	0.720
2020/01/31 00:06:24.4	268.310	-0.080	0.380	0.670
2020/01/31 00:06:24.5	268.320	-0.080	0.410	0.620
2020/01/31 00:06:24.6	268.330	-0.090	0.440	0.580
2020/01/31 00:06:24.7	268.340	-0.090	0.470	0.530
2020/01/31 00:06:24.8	268.360	-0.090	0.490	0.490
2020/01/31 00:06:24.9	268.370	-0.100	0.510	0.460
2020/01/31 00:06:25.0	268.370	-0.100	0.530	0.420
2020/01/31 00:06:25.1	268.390	-0.100	0.540	0.390
2020/01/31 00:06:25.2	268.400	-0.110	0.550	0.350
2020/01/31 00:06:25.3	268.420	-0.110	0.560	0.330
2020/01/31 00:06:25.4	268.440	-0.110	0.570	0.300
2020/01/31 00:06:25.5	268.460	-0.120	0.570	0.270
2020/01/31 00:06:25.6	268.480	-0.120	0.570	0.250
2020/01/31 00:06:25.7	268.500	-0.120	0.570	0.230
2020/01/31 00:06:25.8	268.520	-0.120	0.560	0.220
2020/01/31 00:06:25.9	268.540	-0.120	0.560	0.200
2020/01/31 00:06:26.0	268.560	-0.120	0.550	0.180
2020/01/31 00:06:26.1	268.580	-0.120	0.530	0.170
2020/01/31 00:06:26.2	268.610	-0.120	0.520	0.170
2020/01/31 00:06:26.3	268.630	-0.120	0.500	0.160
2020/01/31 00:06:26.4	268.660	-0.110	0.480	0.160
2020/01/31 00:06:26.5	268.680	-0.110	0.460	0.160
2020/01/31 00:06:26.6	268.710	-0.100	0.440	0.160
2020/01/31 00:06:26.7	268.740	-0.090	0.420	0.160
2020/01/31 00:06:26.8	268.760	-0.080	0.390	0.160
2020/01/31 00:06:26.9	268.790	-0.070	0.360	0.180
2020/01/31 00:06:27.0	268.820	-0.060	0.330	0.190
2020/01/31 00:06:27.1	268.850	-0.040	0.300	0.200
2020/01/31 00:06:27.2	268.870	-0.030	0.280	0.210
2020/01/31 00:06:27.3	268.900	-0.010	0.250	0.220
2020/01/31 00:06:27.4	268.930	0.000	0.220	0.230
2020/01/31 00:06:27.5	268.950	0.020	0.190	0.250
2020/01/31 00:06:27.6	268.980	0.040	0.160	0.260
2020/01/31 00:06:27.7	269.010	0.060	0.130	0.280
2020/01/31 00:06:27.8	269.030	0.080	0.100	0.300
2020/01/31 00:06:27.9	269.060	0.100	0.070	0.320
2020/01/31 00:06:28.0	269.070	0.120	0.040	0.330
2020/01/31 00:06:28.1	269.100	0.150	0.010	0.360
2020/01/31 00:06:28.2	269.120	0.170	-0.020	0.380
2020/01/31 00:06:28.3	269.140	0.190	-0.050	0.400
2020/01/31 00:06:28.4	269.160	0.220	-0.080	0.430
2020/01/31 00:06:28.5	269.180	0.240	-0.110	0.460
2020/01/31 00:06:28.6	269.200	0.270	-0.140	0.480
2020/01/31 00:06:28.7	269.210	0.290	-0.160	0.510
2020/01/31 00:06:28.8	269.230	0.310	-0.190	0.540
2020/01/31 00:06:28.9	269.250	0.340	-0.220	0.570
2020/01/31 00:06:29.0	269.260	0.360	-0.240	0.600
2020/01/31 00:06:29.1	269.270	0.380	-0.260	0.630
2020/01/31 00:06:29.2	269.280	0.410	-0.290	0.660
2020/01/31 00:06:29.3	269.290	0.430	-0.310	0.690
2020/01/31 00:06:29.4	269.300	0.450	-0.330	0.710
2020/01/31 00:06:29.5	269.310	0.470	-0.350	0.740
2020/01/31 00:06:29.6	269.310	0.490	-0.370	0.770
2020/01/31 00:06:29.7	269.320	0.510	-0.390	0.800
2020/01/31 00:06:29.8	269.320	0.530	-0.410	0.820
2020/01/31 00:06:29.9	269.320	0.540	-0.420	0.850
2020/01/31 00:06:30.0	269.320	0.560	-0.440	0.870
2020/01/31 00:06:30.1	269.320	0.570	-0.460	0.900
2020/01/31 00:06:30.2	269.310	0.580	-0.470	0.920
2020/01/31 00:06:30.3	269.310	0.590	-0.490	0.940
2020/01/31 00:06:30.4	269.310	0.600	-0.510	0.960
2020/01/31 00:06:30.5	269.300	0.600	-0.520	0.980
2020/01/31 00:06:30.6	269.300	0.610	-0.540	1.000
2020/01/31 00:06:30.7	269.290	0.610	-0.560	1.010
2020/01/31 00:06:30.8	269.290	0.610	-0.580	1.030
2020/01/31 00:06:30.9	269.270	0.610	-0.600	1.040
2020/01/31 00:06:31.0	269.260	0.610	-0.620	1.050
2020/01/31 00:06:31.1	269.250	0.600	-0.640	1.050
2020/01/31 00:06:31.2	269.240	0.590	-0.660	1.060
2020/01/31 00:06:31.3	269.230	0.580	-0.680	1.060
2020/01/31 00:06:31.4	269.220	0.570	-0.700	1.060
2020/01/31 00:06:31.5	269.210	0.560	-0.720	1.050
2020/01/31 00:06:31.6	269.200	0.540	-0.740	1.050
2020/01/31 00:06:31.7	269.190	0.520	-0.770	1.040
2020/01/31 00:06:31.8	269.170	0.500	-0.790	1.020
2020/01/31 00:06:31.9	269.160	0.480	-0.810	1.010
2020/01/31 00:06:32.0	269.160	0.460	-0.830	0.990
2020/01/31 00:06:32.1	269.140	0.430	-0.850	0.970
2020/01/31 00:06:32.2	269.130	0.400	-0.880	0.950
2020/01/31 00:06:32.3	269.110	0.380	-0.900	0.930
2020/01/31 00:06:32.4	269.090	0.350	-0.920	0.900
2020/01/31 00:06:32.5	269.080	0.320	-0.940	0.880
2020/01/31 00:06:32.6	269.060	0.280	-0.960	0.860
2020/01/31 00:06:32.7	269.040	0.250	-0.980	0.830
2020/01/31 00:06:32.8	269.020	0.220	-1.000	0.810
2020/01/31 00:06:32.9	269.000	0.180	-1.020	0.780
2020/01/31 00:06:33.0	268.980	0.150	-1.030	0.760
2020/01/31 00:06:33.1	268.960	0.120	-1.040	0.740
2020/01/31 00:06:33.2	268.940	0.080	-1.060	0.720
2020/01/31 00:06:33.3	268.920	0.050	-1.060	0.690
2020/01/31 00:06:33.4	268.890	0.010	-1.070	0.670
2020/01/31 00:06:33.5	268.870	-0.020	-1.080	0.660
2020/01/31 00:06:33.6	268.850	-0.060	-1.080	0.640
2020/01/31 00:06:33.7	268.830	-0.090	-1.080	0.620
2020/01/31 00:06:33.8	268.800	-0.120	-1.080	0.610
2020/01/31 00:06:33.9	268.790	-0.150	-1.070	0.600
2020/01/31 00:06:34.0	268.770	-0.180	-1.070	0.590
2020/01/31 00:06:34.1	268.740	-0.210	-1.060	0.570
2020/01/31 00:06:34.2	268.720	-0.240	-1.050	0.570
2020/01/31 00:06:34.3	268.700	-0.270	-1.030	0.560
2020/01/31 00:06:34.4	268.680	-0.300	-1.010	0.550
2020/01/31 00:06:34.5	268.660	-0.320	-0.990	0.550
2020/01/31 00:06:34.6	268.640	-0.350	-0.970	0.540
2020/01/31 00:06:34.7	268.620	-0.370	-0.950	0.540
2020/01/31 00:06:34.8	268.610	-0.390	-0.920	0.540
2020/01/31 00:06:34.9	268.590	-0.410	-0.890	0.540
2020/01/31 00:06:35.0	268.570	-0.430	-0.850	0.540
2020/01/31 00:06:35.1	268.560	-0.450	-0.820	0.540
2020/01/31 00:06:35.2	268.540	-0.460	-0.780	0.540
2020/01/31 00:06:35.3	268.520	-0.480	-0.750	0.550
2020/01/31 00:06:35.4	268.500	-0.490	-0.710	0.560
2020/01/31 00:06:35.5	268.480	-0.500	-0.670	0.560
2020/01/31 00:06:35.6	268.460	-0.510	-0.630	0.570
2020/01/31 00:06:35.7	268.440	-0.520	-0.590	0.580
2020/01/31 00:06:35.8	268.420	-0.530	-0.540	0.590
2020/01/31 00:06:35.9	268.410	-0.540	-0.500	0.600
2020/01/31 00:06:36.0	268.390	-0.540	-0.460	0.610
2020/01/31 00:06:36.1	268.370	-0.550	-0.420	0.620
2020/01/31 00:06:36.2	268.350	-0.550	-0.380	0.630
2020/01/31 00:06:36.3	268.330	-0.550	-0.340	0.640
2020/01/31 00:06:36.4	268.310	-0.550	-0.300	0.650
2020/01/31 00:06:36.5	268.290	-0.550	-0.270	0.670
2020/01/31 00:06:36.6	268.270	-0.550	-0.230	0.680
2020/01/31 00:06:36.7	268.250	-0.550	-0.200	0.690
2020/01/31 00:06:36.8	268.220	-0.550	-0.160	0.700
2020/01/31 00:06:36.9	268.200	-0.540	-0.130	0.710
2020/01/31 00:06:37.0	268.180	-0.540	-0.100	0.730
2020/01/31 00:06:37.1	268.170	-0.530	-0.070	0.740
2020/01/31 00:06:37.2	268.150	-0.530	-0.040	0.750
2020/01/31 00:06:37.3	268.130	-0.520	-0.010	0.760
2020/01/31 00:06:37.4	268.110	-0.510	0.010	0.770
2020/01/31 00:06:37.5	268.090	-0.500	0.040	0.780
2020/01/31 00:06:37.6	268.070	-0.490	0.060	0.790
2020/01/31 00:06:37.7	268.050	-0.480	0.080	0.800
2020/01/31 00:06:37.8	268.030	-0.470	0.100	0.820
2020/01/31 00:06:37.9	268.010	-0.460	0.120	0.830
2020/01/31 00:06:38.0	267.990	-0.450	0.130	0.840
2020/01/31 00:06:38.1	267.970	-0.430	0.150	0.850
2020/01/31 00:06:38.2	267.950	-0.420	0.160	0.860
2020/01/31 00:06:38.3	267.930	-0.410	0.170	0.880
2020/01/31 00:06:38.4	267.910	-0.390	0.190	0.890
2020/01/31 00:06:38.5	267.890	-0.380	0.200	0.900
2020/01/31 00:06:38.6	267.870	-0.360	0.200	0.910
2020/01/31 00:06:38.7	267.850	-0.350	0.210	0.930
2020/01/31 00:06:38.8	267.830	-0.330	0.220	0.940
2020/01/31 00:06:38.9	267.820	-0.320	0.230	0.950
2020/01/31 00:06:39.0	267.810	-0.300	0.230	0.970
2020/01/31 00:06:39.1	267.790	-0.290	0.240	0.980
2020/01/31 00:06:39.2	267.770	-0.270	0.240	1.000
2020/01/31 00:06:39.3	267.760	-0.250	0.250	1.010
2020/01/31 00:06:39.4	267.750	-0.240	0.250	1.020
2020/01/31 00:06:39.5	267.740	-0.220	0.260	1.040
2020/01/31 00:06:39.6	267.730	-0.200	0.260	1.050
2020/01/31 00:06:39.7	267.720	-0.190	0.270	1.060
2020/01/31 00:06:39.8	267.710	-0.170	0.270	1.080
2020/01/31 00:06:39.9	267.700	-0.160	0.280	1.090
2020/01/31 00:06:40.0	267.690	-0.140	0.280	1.110
2020/01/31 00:06:40.1	267.690	-0.120	0.290	1.120
2020/01/31 00:06:40.2	267.690	-0.110	0.290	1.140
2020/01/31 00:06:40.3	267.690	-0.090	0.300	1.150
2020/01/31 00:06:40.4	267.690	-0.080	0.300	1.170
2020/01/31 00:06:40.5	267.690	-0.060	0.310	1.190
2020/01/31 00:06:40.6	267.690	-0.050	0.310	1.200
2020/01/31 00:06:40.7	267.690	-0.040	0.310	1.220
2020/01/31 00:06:40.8	267.690	-0.020	0.320	1.240
2020/01/31 00:06:40.9	267.700	-0.010	0.320	1.250
2020/01/31 00:06:41.0	267.710	0.000	0.320	1.270
2020/01/31 00:06:41.1	267.710	0.020	0.320	1.290
2020/01/31 00:06:41.2	267.720	0.030	0.320	1.300
2020/01/31 00:06:41.3	267.730	0.040	0.310	1.320
2020/01/31 00:06:41.4	267.730	0.060	0.310	1.340
2020/01/31 00:06:41.5	267.740	0.070	0.300	1.350
2020/01/31 00:06:41.6	267.750	0.080	0.290	1.360
2020/01/31 00:06:41.7	267.760	0.100	0.280	1.370
2020/01/31 00:06:41.8	267.770	0.110	0.270	1.380
2020/01/31 00:06:41.9	267.780	0.120	0.260	1.390
2020/01/31 00:06:42.0	267.790	0.130	0.240	1.400
2020/01/31 00:06:42.1	267.800	0.150	0.220	1.400
2020/01/31 00:06:42.2	267.810	0.160	0.200	1.400
2020/01/31 00:06:42.3	267.820	0.170	0.180	1.400
2020/01/31 00:06:42.4	267.830	0.190	0.160	1.400
2020/01/31 00:06:42.5	267.840	0.200	0.130	1.400
2020/01/31 00:06:42.6	267.860	0.210	0.110	1.390
2020/01/31 00:06:42.7	267.870	0.220	0.080	1.380
2020/01/31 00:06:42.8	267.880	0.240	0.050	1.370
2020/01/31 00:06:42.9	267.890	0.250	0.020	1.360
2020/01/31 00:06:43.0	267.910	0.260	-0.020	1.350
2020/01/31 00:06:43.1	267.920	0.270	-0.050	1.330
2020/01/31 00:06:43.2	267.940	0.290	-0.090	1.310
2020/01/31 00:06:43.3	267.950	0.300	-0.130	1.300
2020/01/31 00:06:43.4	267.960	0.310	-0.170	1.280
2020/01/31 00:06:43.5	267.970	0.320	-0.210	1.260
2020/01/31 00:06:43.6	267.990	0.330	-0.260	1.240
2020/01/31 00:06:43.7	268.000	0.350	-0.300	1.210
2020/01/31 00:06:43.8	268.010	0.360	-0.350	1.190
2020/01/31 00:06:43.9	268.020	0.370	-0.390	1.180
2020/01/31 00:06:44.0	268.030	0.380	-0.440	1.160
2020/01/31 00:06:44.1	268.040	0.390	-0.480	1.140
2020/01/31 00:06:44.2	268.040	0.390	-0.530	1.120
2020/01/31 00:06:44.3	268.050	0.400	-0.570	1.110
2020/01/31 00:06:44.4	268.060	0.410	-0.610	1.090
2020/01/31 00:06:44.5	268.060	0.420	-0.650	1.080
2020/01/31 00:06:44.6	268.070	0.420	-0.700	1.070
2020/01/31 00:06:44.7	268.070	0.430	-0.740	1.060
2020/01/31 00:06:44.8	268.070	0.440	-0.770	1.050
2020/01/31 00:06:44.9	268.080	0.440	-0.810	1.040
2020/01/31 00:06:45.0	268.080	0.440	-0.850	1.030
2020/01/31 00:06:45.1	268.080	0.450	-0.880	1.030
2020/01/31 00:06:45.2	268.080	0.450	-0.910	1.020
2020/01/31 00:06:45.3	268.080	0.450	-0.940	1.020
2020/01/31 00:06:45.4	268.080	0.450	-0.960	1.020
2020/01/31 00:06:45.5	268.080	0.450	-0.980	1.010
2020/01/31 00:06:45.6	268.080	0.450	-1.000	1.010
2020/01/31 00:06:45.7	268.070	0.440	-1.020	1.010
2020/01/31 00:06:45.8	268.070	0.440	-1.040	1.010
2020/01/31 00:06:45.9	268.070	0.440	-1.040	1.020
2020/01/31 00:06:46.0	268.060	0.430	-1.050	1.020
2020/01/31 00:06:46.1	268.060	0.420	-1.060	1.020
2020/01/31 00:06:46.2	268.060	0.420	-1.060	1.020
2020/01/31 00:06:46.3	268.050	0.410	-1.060	1.030
2020/01/31 00:06:46.4	268.040	0.400	-1.050	1.030
2020/01/31 00:06:46.5	268.030	0.390	-1.040	1.040
2020/01/31 00:06:46.6	268.030	0.380	-1.030	1.040
2020/01/31 00:06:46.7	268.020	0.360	-1.020	1.050
2020/01/31 00:06:46.8	268.010	0.350	-1.000	1.050
2020/01/31 00:06:46.9	268.000	0.340	-0.980	1.060
2020/01/31 00:06:47.0	267.990	0.320	-0.960	1.070
2020/01/31 00:06:47.1	267.980	0.310	-0.930	1.070
2020/01/31 00:06:47.2	267.970	0.290	-0.900	1.080
2020/01/31 00:06:47.3	267.950	0.270	-0.870	1.080
2020/01/31 00:06:47.4	267.940	0.250	-0.840	1.090
2020/01/31 00:06:47.5	267.930	0.240	-0.800	1.090
2020/01/31 00:06:47.6	267.910	0.220	-0.770	1.100
2020/01/31 00:06:47.7	267.900	0.200	-0.730	1.100
2020/01/31 00:06:47.8	267.890	0.180	-0.690	1.100
2020/01/31 00:06:47.9	267.870	0.160	-0.650	1.110
2020/01/31 00:06:48.0	267.860	0.130	-0.610	1.110
2020/01/31 00:06:48.1	267.850	0.110	-0.570	1.110
2020/01/31 00:06:48.2	267.840	0.090	-0.530	1.110
2020/01/31 00:06:48.3	267.830	0.070	-0.490	1.100
2020/01/31 00:06:48.4	267.820	0.050	-0.450	1.100
2020/01/31 00:06:48.5	267.810	0.030	-0.410	1.090
2020/01/31 00:06:48.6	267.800	0.010	-0.370	1.080
2020/01/31 00:06:48.7	267.790	-0.010	-0.340	1.070
2020/01/31 00:06:48.8	267.780	-0.030	-0.300	1.060
2020/01/31 00:06:48.9	267.770	-0.050	-0.270	1.040
2020/01/31 00:06:49.0	267.770	-0.060	-0.230	1.020
2020/01/31 00:06:49.1	267.760	-0.080	-0.200	1.000
2020/01/31 00:06:49.2	267.760	-0.100	-0.170	0.980
2020/01/31 00:06:49.3	267.750	-0.110	-0.140	0.960
2020/01/31 00:06:49.4	267.750	-0.120	-0.120	0.940
2020/01/31 00:06:49.5	267.750	-0.140	-0.090	0.920
2020/01/31 00:06:49.6	267.750	-0.150	-0.070	0.890
2020/01/31 00:06:49.7	267.740	-0.160	-0.050	0.870
2020/01/31 00:06:49.8	267.740	-0.170	-0.040	0.840
2020/01/31 00:06:49.9	267.730	-0.180	-0.030	0.820
2020/01/31 00:06:50.0	267.730	-0.180	-0.020	0.800
2020/01/31 00:06:50.1	267.730	-0.190	-0.010	0.770
2020/01/31 00:06:50.2	267.730	-0.190	-0.010	0.750
2020/01/31 00:06:50.3	267.730	-0.200	-0.010	0.720
2020/01/31 00:06:50.4	267.730	-0.200	-0.010	0.700
2020/01/31 00:06:50.5	267.730	-0.200	-0.010	0.680
2020/01/31 00:06:50.6	267.730	-0.200	-0.020	0.660
2020/01/31 00:06:50.7	267.730	-0.190	-0.030	0.630
2020/01/31 00:06:50.8	267.740	-0.190	-0.040	0.610
2020/01/31 00:06:50.9	267.740	-0.180	-0.050	0.590
2020/01/31 00:06:51.0	267.740	-0.180	-0.070	0.570
2020/01/31 00:06:51.1	267.750	-0.170	-0.090	0.560
2020/01/31 00:06:51.2	267.750	-0.160	-0.100	0.540
2020/01/31 00:06:51.3	267.760	-0.150	-0.120	0.530
2020/01/31 00:06:51.4	267.760	-0.140	-0.140	0.510
2020/01/31 00:06:51.5	267.770	-0.130	-0.160	0.500
2020/01/31 00:06:51.6	267.780	-0.120	-0.180	0.490
2020/01/31 00:06:51.7	267.790	-0.110	-0.200	0.490
2020/01/31 00:06:51.8	267.790	-0.100	-0.210	0.480
2020/01/31 00:06:51.9	267.800	-0.090	-0.230	0.480
2020/01/31 00:06:52.0	267.810	-0.080	-0.250	0.480
2020/01/31 00:06:52.1	267.820	-0.060	-0.260	0.480
2020/01/31 00:06:52.2	267.820	-0.050	-0.280	0.490
2020/01/31 00:06:52.3	267.830	-0.040	-0.290	0.500
2020/01/31 00:06:52.4	267.840	-0.030	-0.300	0.510
2020/01/31 00:06:52.5	267.850	-0.020	-0.310	0.520
2020/01/31 00:06:52.6	267.850	-0.020	-0.320	0.540
2020/01/31 00:06:52.7	267.850	-0.010	-0.320	0.560
2020/01/31 00:06:52.8	267.860	-0.000	-0.330	0.580
2020/01/31 00:06:52.9	267.860	0.000	-0.340	0.600
2020/01/31 00:06:53.0	267.860	0.010	-0.340	0.630
2020/01/31 00:06:53.1	267.860	0.010	-0.340	0.660
2020/01/31 00:06:53.2	267.860	0.010	-0.340	0.690
2020/01/31 00:06:53.3	267.860	0.010	-0.340	0.720
2020/01/31 00:06:53.4	267.850	0.010	-0.330	0.750
2020/01/31 00:06:53.5	267.850	0.010	-0.330	0.780
2020/01/31 00:06:53.6	267.840	0.010	-0.330	0.810
2020/01/31 00:06:53.7	267.830	0.000	-0.320	0.840
2020/01/31 00:06:53.8	267.820	-0.000	-0.320	0.870
2020/01/31 00:06:53.9	267.810	-0.010	-0.310	0.910
2020/01/31 00:06:54.0	267.800	-0.010	-0.310	0.940
2020/01/31 00:06:54.1	267.780	-0.020	-0.300	0.970
2020/01/31 00:06:54.2	267.770	-0.030	-0.290	1.000
2020/01/31 00:06:54.3	267.760	-0.040	-0.290	1.020
2020/01/31 00:06:54.4	267.750	-0.050	-0.280	1.050
2020/01/31 00:06:54.5	267.730	-0.050	-0.270	1.070
2020/01/31 00:06:54.6	267.720	-0.070	-0.260	1.090
2020/01/31 00:06:54.7	267.700	-0.080	-0.250	1.110
2020/01/31 00:06:54.8	267.690	-0.090	-0.240	1.130
2020/01/31 00:06:54.9	267.670	-0.100	-0.230	1.150
2020/01/31 00:06:55.0	267.660	-0.110	-0.230	1.160
2020/01/31 00:06:55.1	267.640	-0.120	-0.220	1.180
2020/01/31 00:06:55.2	267.630	-0.130	-0.210	1.190
2020/01/31 00:06:55.3	267.610	-0.140	-0.200	1.200
2020/01/31 00:06:55.4	267.590	-0.150	-0.190	1.210
2020/01/31 00:06:55.5	267.570	-0.160	-0.190	1.210
2020/01/31 00:06:55.6	267.560	-0.170	-0.180	1.220
2020/01/31 00:06:55.7	267.540	-0.180	-0.180	1.220
2020/01/31 00:06:55.8	267.520	-0.190	-0.170	1.220
2020/01/31 00:06:55.9	267.500	-0.200	-0.160	1.220
2020/01/31 00:06:56.0	267.480	-0.210	-0.160	1.220
2020/01/31 00:06:56.1	267.460	-0.220	-0.160	1.210
2020/01/31 00:06:56.2	267.450	-0.220	-0.160	1.210
2020/01/31 00:06:56.3	267.430	-0.230	-0.160	1.200
2020/01/31 00:06:56.4	267.420	-0.230	-0.160	1.190
2020/01/31 00:06:56.5	267.400	-0.240	-0.160	1.180
2020/01/31 00:06:56.6	267.380	-0.240	-0.170	1.160
2020/01/31 00:06:56.7	267.370	-0.240	-0.170	1.150
2020/01/31 00:06:56.8	267.350	-0.250	-0.180	1.130
2020/01/31 00:06:56.9	267.350	-0.250	-0.180	1.120
2020/01/31 00:06:57.0	267.330	-0.250	-0.190	1.100
2020/01/31 00:06:57.1	267.320	-0.250	-0.190	1.070
2020/01/31 00:06:57.2	267.310	-0.250	-0.200	1.050
2020/01/31 00:06:57.3	267.300	-0.250	-0.210	1.020
2020/01/31 00:06:57.4	267.290	-0.250	-0.210	1.000
2020/01/31 00:06:57.5	267.280	-0.240	-0.220	0.970
2020/01/31 00:06:57.6	267.270	-0.240	-0.220	0.940
2020/01/31 00:06:57.7	267.260	-0.240	-0.230	0.910
2020/01/31 00:06:57.8	267.250	-0.240	-0.230	0.880
2020/01/31 00:06:57.9	267.250	-0.230	-0.230	0.850
2020/01/31 00:06:58.0	267.250	-0.230	-0.230	0.820
2020/01/31 00:06:58.1	267.240	-0.220	-0.230	0.790
2020/01/31 00:06:58.2	267.240	-0.220	-0.230	0.760
2020/01/31 00:06:58.3	267.240	-0.220	-0.230	0.730
2020/01/31 00:06:58.4	267.230	-0.210	-0.230	0.700
2020/01/31 00:06:58.5	267.230	-0.210	-0.230	0.670
2020/01/31 00:06:58.6	267.230	-0.200	-0.230	0.640
2020/01/31 00:06:58.7	267.240	-0.200	-0.220	0.610
2020/01/31 00:06:58.8	267.240	-0.190	-0.220	0.580
2020/01/31 00:06:58.9	267.240	-0.190	-0.210	0.550
2020/01/31 00:06:59.0	267.240	-0.180	-0.210	0.530
2020/01/31 00:06:59.1	267.250	-0.170	-0.200	0.500
2020/01/31 00:06:59.2	267.250	-0.170	-0.190	0.470
2020/01/31 00:06:59.3	267.260	-0.160	-0.190	0.450
2020/01/31 00:06:59.4	267.270	-0.160	-0.180	0.420
2020/01/31 00:06:59.5	267.280	-0.150	-0.170	0.400
2020/01/31 00:06:59.6	267.290	-0.140	-0.170	0.370
2020/01/31 00:06:59.7	267.300	-0.140	-0.160	0.350
2020/01/31 00:06:59.8	267.310	-0.130	-0.160	0.330
2020/01/31 00:06:59.9	267.340	-0.120	-0.150	0.320
2020/01/31 00:07:00.0	267.350	-0.120	-0.150	0.300
2020/01/31 00:07:00.1	267.360	-0.110	-0.150	0.280
2020/01/31 00:07:00.2	267.380	-0.100	-0.150	0.270
2020/01/31 00:07:00.3	267.390	-0.090	-0.150	0.260
2020/01/31 00:07:00.4	267.410	-0.080	-0.160	0.250
2020/01/31 00:07:00.5	267.430	-0.080	-0.160	0.250
2020/01/31 00:07:00.6	267.440	-0.070	-0.170	0.240
2020/01/31 00:07:00.7	267.460	-0.060	-0.170	0.250
2020/01/31 00:07:00.8	267.480	-0.050	-0.180	0.250
2020/01/31 00:07:00.9	267.500	-0.040	-0.200	0.260
2020/01/31 00:07:01.0	267.520	-0.030	-0.210	0.270
2020/01/31 00:07:01.1	267.540	-0.020	-0.220	0.280
2020/01/31 00:07:01.2	267.560	-0.010	-0.240	0.290
2020/01/31 00:07:01.3	267.580	0.010	-0.250	0.310
2020/01/31 00:07:01.4	267.600	0.020	-0.270	0.330
2020/01/31 00:07:01.5	267.630	0.030	-0.280	0.350
2020/01/31 00:07:01.6	267.650	0.040	-0.300	0.370
2020/01/31 00:07:01.7	267.670	0.050	-0.320	0.400
2020/01/31 00:07:01.8	267.700	0.060	-0.340	0.420
2020/01/31 00:07:01.9	267.730	0.070	-0.350	0.440
2020/01/31 00:07:02.0	267.760	0.080	-0.370	0.470
2020/01/31 00:07:02.1	267.790	0.090	-0.390	0.500
2020/01/31 00:07:02.2	267.810	0.100	-0.400	0.520
2020/01/31 00:07:02.3	267.840	0.110	-0.420	0.550
2020/01/31 00:07:02.4	267.870	0.110	-0.440	0.570
2020/01/31 00:07:02.5	267.890	0.120	-0.450	0.590
2020/01/31 00:07:02.6	267.920	0.130	-0.460	0.620
2020/01/31 00:07:02.7	267.940	0.130	-0.480	0.640
2020/01/31 00:07:02.8	267.970	0.140	-0.490	0.670
2020/01/31 00:07:02.9	267.980	0.150	-0.500	0.690
2020/01/31 00:07:03.0	268.000	0.150	-0.510	0.720
2020/01/31 00:07:03.1	268.010	0.150	-0.520	0.740
2020/01/31 00:07:03.2	268.030	0.160	-0.530	0.770
2020/01/31 00:07:03.3	268.040	0.160	-0.540	0.800
2020/01/31 00:07:03.4	268.060	0.160	-0.550	0.820
2020/01/31 00:07:03.5	268.060	0.160	-0.560	0.850
2020/01/31 00:07:03.6	268.070	0.170	-0.570	0.880
2020/01/31 00:07:03.7	268.080	0.170	-0.580	0.910
2020/01/31 00:07:03.8	268.080	0.170	-0.590	0.930
2020/01/31 00:07:03.9	268.080	0.170	-0.590	0.960
2020/01/31 00:07:04.0	268.080	0.170	-0.600	0.990
2020/01/31 00:07:04.1	268.070	0.170	-0.610	1.020
2020/01/31 00:07:04.2	268.070	0.170	-0.630	1.050
2020/01/31 00:07:04.3	268.060	0.170	-0.640	1.080
2020/01/31 00:07:04.4	268.050	0.170	-0.650	1.100
2020/01/31 00:07:04.5	268.040	0.170	-0.660	1.130
2020/01/31 00:07:04.6	268.020	0.170	-0.670	1.160
2020/01/31 00:07:04.7	268.010	0.170	-0.670	1.190
2020/01/31 00:07:04.8	267.990	0.160	-0.680	1.210
2020/01/31 00:07:04.9	267.970	0.160	-0.690	1.240
2020/01/31 00:07:05.0	267.950	0.160	-0.700	1.260
2020/01/31 00:07:05.1	267.930	0.160	-0.700	1.280
2020/01/31 00:07:05.2	267.900	0.160	-0.710	1.300
2020/01/31 00:07:05.3	267.880	0.150	-0.710	1.330
2020/01/31 00:07:05.4	267.850	0.150	-0.710	1.340
2020/01/31 00:07:05.5	267.820	0.150	-0.710	1.360
2020/01/31 00:07:05.6	267.790	0.140	-0.700	1.380
2020/01/31 00:07:05.7	267.760	0.140	-0.700	1.390
2020/01/31 00:07:05.8	267.730	0.140	-0.690	1.410
2020/01/31 00:07:05.9	267.700	0.130	-0.680	1.420
2020/01/31 00:07:06.0	267.670	0.130	-0.670	1.430
2020/01/31 00:07:06.1	267.630	0.120	-0.660	1.440
2020/01/31 00:07:06.2	267.600	0.120	-0.640	1.440
2020/01/31 00:07:06.3	267.560	0.110	-0.630	1.450
2020/01/31 00:07:06.4	267.530	0.110	-0.610	1.450
2020/01/31 00:07:06.5	267.490	0.100	-0.590	1.450
2020/01/31 00:07:06.6	267.460	0.100	-0.570	1.440
2020/01/31 00:07:06.7	267.420	0.090	-0.550	1.430
2020/01/31 00:07:06.8	267.390	0.090	-0.530	1.420
2020/01/31 00:07:06.9	267.350	0.080	-0.500	1.410
2020/01/31 00:07:07.0	267.320	0.070	-0.480	1.400
2020/01/31 00:07:07.1	267.290	0.070	-0.450	1.380
2020/01/31 00:07:07.2	267.260	0.060	-0.420	1.360
2020/01/31 00:07:07.3	267.230	0.050	-0.400	1.340
2020/01/31 00:07:07.4	267.200	0.050	-0.370	1.320
2020/01/31 00:07:07.5	267.170	0.040	-0.340	1.290
2020/01/31 00:07:07.6	267.140	0.030	-0.310	1.270
2020/01/31 00:07:07.7	267.120	0.030	-0.280	1.240
2020/01/31 00:07:07.8	267.100	0.020	-0.240	1.210
2020/01/31 00:07:07.9	267.070	0.010	-0.210	1.180
2020/01/31 00:07:08.0	267.050	0.010	-0.180	1.150
2020/01/31 00:07:08.1	267.030	0.000	-0.140	1.120
2020/01/31 00:07:08.2	267.010	-0.010	-0.110	1.090
2020/01/31 00:07:08.3	267.000	-0.010	-0.080	1.060
2020/01/31 00:07:08.4	266.980	-0.020	-0.050	1.030
2020/01/31 00:07:08.5	266.970	-0.030	-0.010	0.990
2020/01/31 00:07:08.6	266.960	-0.030	0.020	0.960
2020/01/31 00:07:08.7	266.950	-0.040	0.050	0.920
2020/01/31 00:07:08.8	266.940	-0.040	0.080	0.890
2020/01/31 00:07:08.9	266.930	-0.050	0.110	0.860
2020/01/31 00:07:09.0	266.930	-0.060	0.140	0.820
2020/01/31 00:07:09.1	266.930	-0.060	0.160	0.790
2020/01/31 00:07:09.2	266.930	-0.070	0.190	0.750
2020/01/31 00:07:09.3	266.930	-0.070	0.210	0.710
2020/01/31 00:07:09.4	266.940	-0.080	0.240	0.680
2020/01/31 00:07:09.5	266.950	-0.080	0.260	0.640
2020/01/31 00:07:09.6	266.960	-0.080	0.280	0.610
2020/01/31 00:07:09.7	266.970	-0.090	0.290	0.580
2020/01/31 00:07:09.8	266.980	-0.090	0.300	0.540
2020/01/31 00:07:09.9	266.980	-0.090	0.320	0.510
2020/01/31 00:07:10.0	266.990	-0.090	0.330	0.480
2020/01/31 00:07:10.1	267.010	-0.090	0.330	0.450
2020/01/31 00:07:10.2	267.030	-0.090	0.330	0.420
2020/01/31 00:07:10.3	267.050	-0.090	0.330	0.400
2020/01/31 00:07:10.4	267.070	-0.090	0.330	0.370
2020/01/31 00:07:10.5	267.100	-0.090	0.320	0.350
2020/01/31 00:07:10.6	267.120	-0.090	0.320	0.330
2020/01/31 00:07:10.7	267.140	-0.090	0.300	0.310
2020/01/31 00:07:10.8	267.170	-0.080	0.290	0.290
2020/01/31 00:07:10.9	267.210	-0.080	0.270	0.280
2020/01/31 00:07:11.0	267.240	-0.080	0.250	0.260
2020/01/31 00:07:11.1	267.270	-0.070	0.230	0.240
2020/01/31 00:07:11.2	267.300	-0.070	0.200	0.230
2020/01/31 00:07:11.3	267.330	-0.060	0.180	0.210
2020/01/31 00:07:11.4	267.360	-0.050	0.150	0.200
2020/01/31 00:07:11.5	267.400	-0.050	0.120	0.180
2020/01/31 00:07:11.6	267.430	-0.040	0.090	0.170
2020/01/31 00:07:11.7	267.470	-0.030	0.060	0.160
2020/01/31 00:07:11.8	267.510	-0.020	0.030	0.140
2020/01/31 00:07:11.9	267.540	-0.010	-0.000	0.130
2020/01/31 00:07:12.0	267.590	-0.000	-0.040	0.120
2020/01/31 00:07:12.1	267.630	0.010	-0.070	0.120
2020/01/31 00:07:12.2	267.670	0.020	-0.110	0.110
2020/01/31 00:07:12.3	267.710	0.020	-0.140	0.100
2020/01/31 00:07:12.4	267.750	0.030	-0.170	0.100
2020/01/31 00:07:12.5	267.790	0.040	-0.210	0.100
2020/01/31 00:07:12.6	267.820	0.050	-0.240	0.100
2020/01/31 00:07:12.7	267.860	0.060	-0.270	0.110
2020/01/31 00:07:12.8	267.900	0.070	-0.300	0.110
2020/01/31 00:07:12.9	267.940	0.080	-0.330	0.120
2020/01/31 00:07:13.0	267.970	0.090	-0.360	0.140
2020/01/31 00:07:13.1	268.010	0.100	-0.390	0.150
2020/01/31 00:07:13.2	268.040	0.100	-0.420	0.170
2020/01/31 00:07:13.3	268.070	0.110	-0.440	0.190
2020/01/31 00:07:13.4	268.100	0.120	-0.470	0.210
2020/01/31 00:07:13.5	268.130	0.120	-0.490	0.240
2020/01/31 00:07:13.6	268.150	0.130	-0.510	0.260
2020/01/31 00:07:13.7	268.180	0.130	-0.540	0.290
2020/01/31 00:07:13.8	268.200	0.140	-0.560	0.310
2020/01/31 00:07:13.9	268.210	0.140	-0.580	0.340
2020/01/31 00:07:14.0	268.230	0.140	-0.590	0.370
2020/01/31 00:07:14.1	268.240	0.140	-0.610	0.400
2020/01/31 00:07:14.2	268.260	0.140	-0.630	0.420
2020/01/31 00:07:14.3	268.270	0.140	-0.640	0.450
2020/01/31 00:07:14.4	268.280	0.140	-0.650	0.470
2020/01/31 00:07:14.5	268.290	0.140	-0.660	0.490
2020/01/31 00:07:14.6	268.290	0.130	-0.670	0.520
2020/01/31 00:07:14.7	268.300	0.130	-0.680	0.540
2020/01/31 00:07:14.8	268.300	0.120	-0.690	0.560
2020/01/31 00:07:14.9	268.300	0.110	-0.690	0.570
2020/01/31 00:07:15.0	268.310	0.100	-0.700	0.590
2020/01/31 00:07:15.1	268.310	0.090	-0.700	0.610
2020/01/31 00:07:15.2	268.310	0.080	-0.700	0.620
2020/01/31 00:07:15.3	268.310	0.070	-0.700	0.640
2020/01/31 00:07:15.4	268.310	0.050	-0.710	0.650
2020/01/31 00:07:15.5	268.310	0.040	-0.710	0.660
2020/01/31 00:07:15.6	268.310	0.020	-0.700	0.670
2020/01/31 00:07:15.7	268.310	0.010	-0.700	0.680
2020/01/31 00:07:15.8	268.300	-0.010	-0.700	0.690
2020/01/31 00:07:15.9	268.300	-0.030	-0.690	0.700
2020/01/31 00:07:16.0	268.300	-0.040	-0.690	0.700
2020/01/31 00:07:16.1	268.290	-0.060	-0.690	0.710
2020/01/31 00:07:16.2	268.280	-0.080	-0.680	0.710
2020/01/31 00:07:16.3	268.270	-0.100	-0.670	0.720
2020/01/31 00:07:16.4	268.260	-0.120	-0.670	0.720
2020/01/31 00:07:16.5	268.250	-0.140	-0.660	0.720
2020/01/31 00:07:16.6	268.240	-0.160	-0.650	0.720
2020/01/31 00:07:16.7	268.230	-0.180	-0.640	0.720
2020/01/31 00:07:16.8	268.220	-0.200	-0.630	0.720
2020/01/31 00:07:16.9	268.210	-0.220	-0.620	0.710
2020/01/31 00:07:17.0	268.200	-0.230	-0.610	0.710
2020/01/31 00:07:17.1	268.180	-0.250	-0.600	0.700
2020/01/31 00:07:17.2	268.170	-0.270	-0.590	0.700
2020/01/31 00:07:17.3	268.160	-0.290	-0.580	0.690
2020/01/31 00:07:17.4	268.150	-0.300	-0.570	0.680
2020/01/31 00:07:17.5	268.140	-0.320	-0.550	0.670
2020/01/31 00:07:17.6	268.130	-0.330	-0.540	0.660
2020/01/31 00:07:17.7	268.120	-0.350	-0.530	0.650
2020/01/31 00:07:17.8	268.110	-0.360	-0.510	0.640
2020/01/31 00:07:17.9	268.100	-0.370	-0.500	0.630
2020/01/31 00:07:18.0	268.090	-0.380	-0.490	0.620
2020/01/31 00:07:18.1	268.090	-0.390	-0.470	0.610
2020/01/31 00:07:18.2	268.080	-0.400	-0.460	0.600
2020/01/31 00:07:18.3	268.070	-0.400	-0.450	0.590
2020/01/31 00:07:18.4	268.070	-0.410	-0.430	0.580
2020/01/31 00:07:18.5	268.060	-0.410	-0.420	0.580
2020/01/31 00:07:18.6	268.050	-0.410	-0.400	0.570
2020/01/31 00:07:18.7	268.050	-0.410	-0.390	0.560
2020/01/31 00:07:18.8	268.050	-0.410	-0.370	0.560
2020/01/31 00:07:18.9	268.050	-0.410	-0.350	0.550
2020/01/31 00:07:19.0	268.040	-0.410	-0.340	0.550
2020/01/31 00:07:19.1	268.040	-0.400	-0.320	0.550
2020/01/31 00:07:19.2	268.040	-0.390	-0.310	0.550
2020/01/31 00:07:19.3	268.040	-0.380	-0.290	0.540
2020/01/31 00:07:19.4	268.030	-0.370	-0.270	0.540
2020/01/31 00:07:19.5	268.030	-0.360	-0.260	0.550
2020/01/31 00:07:19.6	268.030	-0.350	-0.240	0.550
2020/01/31 00:07:19.7	268.030	-0.340	-0.230	0.550
2020/01/31 00:07:19.8	268.040	-0.330	-0.210	0.550
2020/01/31 00:07:19.9	268.040	-0.310	-0.200	0.550
2020/01/31 00:07:20.0	268.040	-0.300	-0.180	0.550
2020/01/31 00:07:20.1	268.050	-0.280	-0.170	0.560
2020/01/31 00:07:20.2	268.050	-0.260	-0.150	0.560
2020/01/31 00:07:20.3	268.060	-0.250	-0.140	0.560
2020/01/31 00:07:20.4	268.060	-0.230	-0.130	0.570
2020/01/31 00:07:20.5	268.070	-0.210	-0.110	0.570
2020/01/31 00:07:20.6	268.080	-0.190	-0.100	0.580
2020/01/31 00:07:20.7	268.080	-0.170	-0.090	0.590
2020/01/31 00:07:20.8	268.090	-0.150	-0.080	0.590
2020/01/31 00:07:20.9	268.100	-0.130	-0.070	0.600
2020/01/31 00:07:21.0	268.100	-0.110	-0.070	0.610
2020/01/31 00:07:21.1	268.110	-0.090	-0.060	0.620
2020/01/31 00:07:21.2	268.120	-0.070	-0.050	0.630
2020/01/31 00:07:21.3	268.120	-0.050	-0.050	0.630
2020/01/31 00:07:21.4	268.130	-0.040	-0.050	0.640
2020/01/31 00:07:21.5	268.130	-0.020	-0.050	0.650
2020/01/31 00:07:21.6	268.140	0.000	-0.050	0.660
2020/01/31 00:07:21.7	268.140	0.020	-0.050	0.670
2020/01/31 00:07:21.8	268.150	0.040	-0.050	0.680
2020/01/31 00:07:21.9	268.150	0.050	-0.050	0.700
2020/01/31 00:07:22.0	268.160	0.070	-0.060	0.710
2020/01/31 00:07:22.1	268.160	0.080	-0.060	0.710
2020/01/31 00:07:22.2	268.160	0.100	-0.070	0.720
2020/01/31 00:07:22.3	268.170	0.110	-0.080	0.730
2020/01/31 00:07:22.4	268.170	0.120	-0.080	0.740
2020/01/31 00:07:22.5	268.180	0.140	-0.090	0.750
2020/01/31 00:07:22.6	268.180	0.150	-0.100	0.750
2020/01/31 00:07:22.7	268.180	0.160	-0.110	0.760
2020/01/31 00:07:22.8	268.190	0.170	-0.120	0.760
2020/01/31 00:07:22.9	268.200	0.180	-0.130	0.770
2020/01/31 00:07:23.0	268.200	0.190	-0.130	0.770
2020/01/31 00:07:23.1	268.200	0.200	-0.140	0.770
2020/01/31 00:07:23.2	268.210	0.210	-0.150	0.770
2020/01/31 00:07:23.3	268.210	0.220	-0.160	0.770
2020/01/31 00:07:23.4	268.220	0.220	-0.170	0.770
2020/01/31 00:07:23.5	268.220	0.230	-0.180	0.760
2020/01/31 00:07:23.6	268.230	0.240	-0.190	0.760
2020/01/31 00:07:23.7	268.230	0.240	-0.200	0.760
2020/01/31 00:07:23.8	268.230	0.250	-0.210	0.760
2020/01/31 00:07:23.9	268.240	0.260	-0.220	0.750
2020/01/31 00:07:24.0	268.240	0.260	-0.230	0.750
2020/01/31 00:07:24.1	268.240	0.270	-0.230	0.750
2020/01/31 00:07:24.2	268.240	0.270	-0.240	0.750
2020/01/31 00:07:24.3	268.240	0.280	-0.250	0.750
2020/01/31 00:07:24.4	268.240	0.280	-0.260	0.750
2020/01/31 00:07:24.5	268.240	0.290	-0.270	0.740
2020/01/31 00:07:24.6	268.240	0.290	-0.280	0.740
2020/01/31 00:07:24.7	268.240	0.300	-0.290	0.740
2020/01/31 00:07:24.8	268.240	0.300	-0.300	0.740
2020/01/31 00:07:24.9	268.240	0.310	-0.310	0.730
2020/01/31 00:07:25.0	268.240	0.310	-0.320	0.730
2020/01/31 00:07:25.1	268.240	0.310	-0.330	0.730
2020/01/31 00:07:25.2	268.230	0.320	-0.330	0.720
2020/01/31 00:07:25.3	268.230	0.320	-0.340	0.720
2020/01/31 00:07:25.4	268.230	0.320	-0.350	0.710
2020/01/31 00:07:25.5	268.230	0.320	-0.360	0.710
2020/01/31 00:07:25.6	268.220	0.320	-0.360	0.700
2020/01/31 00:07:25.7	268.220	0.330	-0.370	0.700
2020/01/31 00:07:25.8	268.220	0.330	-0.380	0.690
2020/01/31 00:07:25.9	268.210	0.330	-0.380	0.680
2020/01/31 00:07:26.0	268.200	0.320	-0.390	0.680
2020/01/31 00:07:26.1	268.200	0.320	-0.390	0.670
2020/01/31 00:07:26.2	268.200	0.320	-0.390	0.660
2020/01/31 00:07:26.3	268.190	0.320	-0.390	0.650
2020/01/31 00:07:26.4	268.190	0.310	-0.390	0.640
2020/01/31 00:07:26.5	268.180	0.310	-0.390	0.630
2020/01/31 00:07:26.6	268.180	0.300	-0.380	0.620
2020/01/31 00:07:26.7	268.170	0.290	-0.380	0.610
2020/01/31 00:07:26.8	268.170	0.280	-0.370	0.590
2020/01/31 00:07:26.9	268.170	0.280	-0.360	0.580
2020/01/31 00:07:27.0	268.160	0.270	-0.360	0.560
2020/01/31 00:07:27.1	268.150	0.250	-0.350	0.550
2020/01/31 00:07:27.2	268.150	0.240	-0.340	0.530
2020/01/31 00:07:27.3	268.140	0.230	-0.330	0.510
2020/01/31 00:07:27.4	268.130	0.220	-0.320	0.490
2020/01/31 00:07:27.5	268.130	0.200	-0.310	0.480
2020/01/31 00:07:27.6	268.120	0.190	-0.290	0.460
2020/01/31 00:07:27.7	268.110	0.170	-0.280	0.440
2020/01/31 00:07:27.8	268.100	0.150	-0.270	0.430
2020/01/31 00:07:27.9	268.100	0.140	-0.260	0.410
2020/01/31 00:07:28.0	268.090	0.120	-0.250	0.400
2020/01/31 00:07:28.1	268.080	0.100	-0.230	0.390
2020/01/31 00:07:28.2	268.070	0.080	-0.220	0.380
2020/01/31 00:07:28.3	268.060	0.060	-0.210	0.370
2020/01/31 00:07:28.4	268.050	0.040	-0.200	0.360
2020/01/31 00:07:28.5	268.040	0.020	-0.180	0.350
2020/01/31 00:07:28.6	268.030	-0.000	-0.170	0.340
2020/01/31 00:07:28.7	268.020	-0.020	-0.160	0.340
2020/01/31 00:07:28.8	268.010	-0.040	-0.150	0.330
2020/01/31 00:07:28.9	267.990	-0.060	-0.140	0.330
2020/01/31 00:07:29.0	267.990	-0.080	-0.130	0.330
2020/01/31 00:07:29.1	267.980	-0.100	-0.110	0.320
2020/01/31 00:07:29.2	267.970	-0.120	-0.100	0.320
2020/01/31 00:07:29.3	267.970	-0.140	-0.100	0.320
2020/01/31 00:07:29.4	267.960	-0.160	-0.090	0.320
2020/01/31 00:07:29.5	267.960	-0.180	-0.080	0.320
2020/01/31 00:07:29.6	267.950	-0.200	-0.070	0.320
2020/01/31 00:07:29.7	267.950	-0.210	-0.070	0.330
2020/01/31 00:07:29.8	267.950	-0.230	-0.060	0.330
2020/01/31 00:07:29.9	267.950	-0.240	-0.060	0.330
2020/01/31 00:07:30.0	267.950	-0.260	-0.060	0.340
2020/01/31 00:07:30.1	267.950	-0.270	-0.060	0.340
2020/01/31 00:07:30.2	267.950	-0.280	-0.060	0.350
2020/01/31 00:07:30.3	267.950	-0.290	-0.060	0.350
2020/01/31 00:07:30.4	267.950	-0.290	-0.060	0.360
2020/01/31 00:07:30.5	267.950	-0.300	-0.070	0.370
2020/01/31 00:07:30.6	267.950	-0.300	-0.080	0.380
2020/01/31 00:07:30.7	267.960	-0.300	-0.090	0.380
2020/01/31 00:07:30.8	267.960	-0.300	-0.100	0.390
2020/01/31 00:07:30.9	267.980	-0.300	-0.110	0.410
2020/01/31 00:07:31.0	267.980	-0.300	-0.130	0.420
2020/01/31 00:07:31.1	267.990	-0.290	-0.140	0.430
2020/01/31 00:07:31.2	268.000	-0.290	-0.160	0.440
2020/01/31 00:07:31.3	268.010	-0.280	-0.180	0.450
2020/01/31 00:07:31.4	268.010	-0.270	-0.200	0.460
2020/01/31 00:07:31.5	268.020	-0.250	-0.220	0.470
2020/01/31 00:07:31.6	268.030	-0.240	-0.240	0.480
2020/01/31 00:07:31.7	268.040	-0.230	-0.260	0.500
2020/01/31 00:07:31.8	268.050	-0.210	-0.290	0.510
2020/01/31 00:07:31.9	268.060	-0.190	-0.320	0.520
2020/01/31 00:07:32.0	268.070	-0.180	-0.340	0.530
2020/01/31 00:07:32.1	268.080	-0.160	-0.370	0.540
2020/01/31 00:07:32.2	268.090	-0.140	-0.390	0.550
2020/01/31 00:07:32.3	268.110	-0.120	-0.420	0.570
2020/01/31 00:07:32.4	268.120	-0.100	-0.440	0.580
2020/01/31 00:07:32.5	268.140	-0.080	-0.460	0.590
2020/01/31 00:07:32.6	268.150	-0.060	-0.490	0.610
2020/01/31 00:07:32.7	268.170	-0.040	-0.510	0.620
2020/01/31 00:07:32.8	268.180	-0.020	-0.530	0.640
2020/01/31 00:07:32.9	268.190	-0.000	-0.550	0.660
2020/01/31 00:07:33.0	268.210	0.010	-0.570	0.680
2020/01/31 00:07:33.1	268.230	0.030	-0.590	0.700
2020/01/31 00:07:33.2	268.240	0.050	-0.610	0.720
2020/01/31 00:07:33.3	268.260	0.060	-0.620	0.740
2020/01/31 00:07:33.4	268.270	0.080	-0.640	0.760
2020/01/31 00:07:33.5	268.290	0.090	-0.650	0.790
2020/01/31 00:07:33.6	268.300	0.100	-0.660	0.810
2020/01/31 00:07:33.7	268.320	0.110	-0.670	0.840
2020/01/31 00:07:33.8	268.330	0.120	-0.680	0.870
2020/01/31 00:07:33.9	268.340	0.130	-0.680	0.890
2020/01/31 00:07:34.0	268.350	0.130	-0.680	0.920
2020/01/31 00:07:34.1	268.360	0.140	-0.690	0.950
2020/01/31 00:07:34.2	268.360	0.140	-0.690	0.980
2020/01/31 00:07:34.3	268.370	0.140	-0.680	1.010
2020/01/31 00:07:34.4	268.380	0.140	-0.680	1.050
2020/01/31 00:07:34.5	268.380	0.140	-0.670	1.080
2020/01/31 00:07:34.6	268.390	0.130	-0.670	1.110
2020/01/31 00:07:34.7	268.390	0.130	-0.660	1.140
2020/01/31 00:07:34.8	268.390	0.120	-0.650	1.160
2020/01/31 00:07:34.9	268.400	0.120	-0.640	1.190
2020/01/31 00:07:35.0	268.400	0.110	-0.620	1.220
2020/01/31 00:07:35.1	268.400	0.100	-0.610	1.240
2020/01/31 00:07:35.2	268.390	0.090	-0.600	1.260
2020/01/31 00:07:35.3	268.380	0.080	-0.580	1.290
2020/01/31 00:07:35.4	268.380	0.070	-0.570	1.300
2020/01/31 00:07:35.5	268.360	0.060	-0.550	1.320
2020/01/31 00:07:35.6	268.350	0.050	-0.540	1.340
2020/01/31 00:07:35.7	268.340	0.040	-0.520	1.350
2020/01/31 00:07:35.8	268.330	0.030	-0.500	1.360
2020/01/31 00:07:35.9	268.320	0.020	-0.490	1.370
2020/01/31 00:07:36.0	268.280	0.010	-0.470	1.370
2020/01/31 00:07:36.1	268.270	-0.000	-0.450	1.370
2020/01/31 00:07:36.2	268.250	-0.010	-0.440	1.370
2020/01/31 00:07:36.3	268.240	-0.020	-0.420	1.360
2020/01/31 00:07:36.4	268.220	-0.030	-0.410	1.360
2020/01/31 00:07:36.5	268.210	-0.030	-0.400	1.350
2020/01/31 00:07:36.6	268.190	-0.040	-0.380	1.330
2020/01/31 00:07:36.7	268.180	-0.050	-0.370	1.310
2020/01/31 00:07:36.8	268.170	-0.050	-0.360	1.290
2020/01/31 00:07:36.9	268.160	-0.050	-0.350	1.270
2020/01/31 00:07:37.0	268.150	-0.060	-0.340	1.250
2020/01/31 00:07:37.1	268.140	-0.060	-0.330	1.220
2020/01/31 00:07:37.2	268.130	-0.060	-0.320	1.190
2020/01/31 00:07:37.3	268.120	-0.060	-0.320	1.160
2020/01/31 00:07:37.4	268.110	-0.060	-0.310	1.130
2020/01/31 00:07:37.5	268.090	-0.060	-0.300	1.100
2020/01/31 00:07:37.6	268.080	-0.050	-0.300	1.070
2020/01/31 00:07:37.7	268.080	-0.050	-0.290	1.030
2020/01/31 00:07:37.8	268.070	-0.040	-0.290	1.000
2020/01/31 00:07:37.9	268.060	-0.040	-0.280	0.960
2020/01/31 00:07:38.0	268.060	-0.030	-0.280	0.930
2020/01/31 00:07:38.1	268.050	-0.020	-0.280	0.890
2020/01/31 00:07:38.2	268.040	-0.020	-0.270	0.860
2020/01/31 00:07:38.3	268.030	-0.010	-0.270	0.830
2020/01/31 00:07:38.4	268.020	-0.000	-0.260	0.800
2020/01/31 00:07:38.5	268.020	0.010	-0.260	0.770
2020/01/31 00:07:38.6	268.010	0.010	-0.250	0.740
2020/01/31 00:07:38.7	268.000	0.020	-0.250	0.710
2020/01/31 00:07:38.8	267.990	0.030	-0.240	0.690
2020/01/31 00:07:38.9	267.980	0.040	-0.230	0.670
2020/01/31 00:07:39.0	267.980	0.050	-0.220	0.650
2020/01/31 00:07:39.1	267.970	0.050	-0.210	0.630
2020/01/31 00:07:39.2	267.960	0.060	-0.200	0.610
2020/01/31 00:07:39.3	267.960	0.060	-0.190	0.590
2020/01/31 00:07:39.4	267.950	0.070	-0.180	0.580
2020/01/31 00:07:39.5	267.940	0.070	-0.170	0.570
2020/01/31 00:07:39.6	267.940	0.080	-0.160	0.560
2020/01/31 00:07:39.7	267.930	0.080	-0.150	0.550
2020/01/31 00:07:39.8	267.920	0.080	-0.140	0.540
2020/01/31 00:07:39.9	267.920	0.080	-0.130	0.540
2020/01/31 00:07:40.0	267.910	0.080	-0.120	0.530
2020/01/31 00:07:40.1	267.900	0.070	-0.110	0.530
2020/01/31 00:07:40.2	267.900	0.070	-0.090	0.530
2020/01/31 00:07:40.3	267.890	0.060	-0.080	0.530
2020/01/31 00:07:40.4	267.890	0.060	-0.070	0.540
2020/01/31 00:07:40.5	267.890	0.050	-0.070	0.540
2020/01/31 00:07:40.6	267.880	0.040	-0.060	0.550
2020/01/31 00:07:40.7	267.880	0.030	-0.050	0.550
2020/01/31 00:07:40.8	267.880	0.020	-0.040	0.560
2020/01/31 00:07:40.9	267.880	0.010	-0.040	0.570
2020/01/31 00:07:41.0	267.880	-0.010	-0.030	0.580
2020/01/31 00:07:41.1	267.880	-0.020	-0.030	0.590
2020/01/31 00:07:41.2	267.880	-0.040	-0.020	0.590
2020/01/31 00:07:41.3	267.890	-0.050	-0.020	0.600
2020/01/31 00:07:41.4	267.890	-0.070	-0.020	0.610
2020/01/31 00:07:41.5	267.890	-0.080	-0.020	0.620
2020/01/31 00:07:41.6	267.890	-0.100	-0.020	0.630
2020/01/31 00:07:41.7	267.900	-0.110	-0.020	0.630
2020/01/31 00:07:41.8	267.900	-0.130	-0.030	0.640
2020/01/31 00:07:41.9	267.900	-0.140	-0.030	0.650
2020/01/31 00:07:42.0	267.910	-0.150	-0.030	0.650
2020/01/31 00:07:42.1	267.920	-0.170	-0.040	0.660
2020/01/31 00:07:42.2	267.930	-0.180	-0.040	0.660
2020/01/31 00:07:42.3	267.940	-0.190	-0.050	0.660
2020/01/31 00:07:42.4	267.950	-0.200	-0.050	0.670
2020/01/31 00:07:42.5	267.970	-0.210	-0.060	0.670
2020/01/31 00:07:42.6	267.980	-0.210	-0.060	0.670
2020/01/31 00:07:42.7	268.000	-0.220	-0.070	0.660
2020/01/31 00:07:42.8	268.020	-0.220	-0.080	0.660
2020/01/31 00:07:42.9	268.040	-0.230	-0.090	0.660
2020/01/31 00:07:43.0	268.060	-0.230	-0.090	0.650
2020/01/31 00:07:43.1	268.090	-0.230	-0.100	0.640
2020/01/31 00:07:43.2	268.110	-0.220	-0.110	0.640
2020/01/31 00:07:43.3	268.140	-0.220	-0.110	0.630
2020/01/31 00:07:43.4	268.170	-0.220	-0.120	0.620
2020/01/31 00:07:43.5	268.200	-0.210	-0.130	0.610
2020/01/31 00:07:43.6	268.240	-0.200	-0.140	0.600
2020/01/31 00:07:43.7	268.270	-0.190	-0.140	0.590
2020/01/31 00:07:43.8	268.300	-0.180	-0.150	0.580
2020/01/31 00:07:43.9	268.340	-0.170	-0.160	0.570
2020/01/31 00:07:44.0	268.380	-0.150	-0.170	0.560
2020/01/31 00:07:44.1	268.410	-0.140	-0.180	0.550
2020/01/31 00:07:44.2	268.450	-0.120	-0.180	0.540
2020/01/31 00:07:44.3	268.490	-0.100	-0.190	0.530
2020/01/31 00:07:44.4	268.520	-0.080	-0.200	0.530
2020/01/31 00:07:44.5	268.560	-0.060	-0.210	0.520
2020/01/31 00:07:44.6	268.590	-0.040	-0.220	0.520
2020/01/31 00:07:44.7	268.620	-0.020	-0.230	0.510
2020/01/31 00:07:44.8	268.660	0.010	-0.240	0.510
2020/01/31 00:07:44.9	268.690	0.030	-0.250	0.510
2020/01/31 00:07:45.0	268.720	0.050	-0.260	0.510
2020/01/31 00:07:45.1	268.750	0.080	-0.270	0.500
2020/01/31 00:07:45.2	268.780	0.100	-0.290	0.500
2020/01/31 00:07:45.3	268.810	0.120	-0.300	0.500
2020/01/31 00:07:45.4	268.830	0.140	-0.310	0.510
2020/01/31 00:07:45.5	268.860	0.170	-0.320	0.510
2020/01/31 00:07:45.6	268.880	0.190	-0.330	0.510
2020/01/31 00:07:45.7	268.910	0.210	-0.340	0.510
2020/01/31 00:07:45.8	268.930	0.230	-0.360	0.510
2020/01/31 00:07:45.9	268.950	0.240	-0.370	0.520
2020/01/31 00:07:46.0	268.960	0.260	-0.380	0.520
2020/01/31 00:07:46.1	268.980	0.270	-0.400	0.530
2020/01/31 00:07:46.2	269.000	0.280	-0.410	0.530
2020/01/31 00:07:46.3	269.010	0.300	-0.420	0.540
2020/01/31 00:07:46.4	269.030	0.300	-0.440	0.550
2020/01/31 00:07:46.5	269.040	0.310	-0.450	0.560
2020/01/31 00:07:46.6	269.050	0.320	-0.460	0.570
2020/01/31 00:07:46.7	269.050	0.320	-0.480	0.580
2020/01/31 00:07:46.8	269.060	0.320	-0.490	0.590
2020/01/31 00:07:46.9	269.060	0.320	-0.500	0.600
2020/01/31 00:07:47.0	269.060	0.320	-0.520	0.610
2020/01/31 00:07:47.1	269.050	0.310	-0.530	0.630
2020/01/31 00:07:47.2	269.050	0.310	-0.550	0.640
2020/01/31 00:07:47.3	269.050	0.300	-0.560	0.650
2020/01/31 00:07:47.4	269.040	0.290	-0.570	0.660
2020/01/31 00:07:47.5	269.040	0.280	-0.580	0.680
2020/01/31 00:07:47.6	269.030	0.270	-0.590	0.690
2020/01/31 00:07:47.7	269.020	0.260	-0.600	0.700
2020/01/31 00:07:47.8	269.010	0.240	-0.610	0.710
2020/01/31 00:07:47.9	269.000	0.230	-0.620	0.730
2020/01/31 00:07:48.0	268.980	0.220	-0.620	0.740
2020/01/31 00:07:48.1	268.970	0.200	-0.630	0.750
2020/01/31 00:07:48.2	268.950	0.190	-0.630	0.760
2020/01/31 00:07:48.3	268.940	0.170	-0.640	0.770
2020/01/31 00:07:48.4	268.920	0.150	-0.640	0.780
2020/01/31 00:07:48.5	268.900	0.140	-0.640	0.790
2020/01/31 00:07:48.6	268.880	0.120	-0.630	0.800
2020/01/31 00:07:48.7	268.870	0.110	-0.630	0.810
2020/01/31 00:07:48.8	268.850	0.090	-0.620	0.810
2020/01/31 00:07:48.9	268.830	0.080	-0.610	0.820
2020/01/31 00:07:49.0	268.810	0.060	-0.600	0.820
2020/01/31 00:07:49.1	268.790	0.050	-0.590	0.820
2020/01/31 00:07:49.2	268.770	0.030	-0.580	0.830
2020/01/31 00:07:49.3	268.750	0.020	-0.570	0.830
2020/01/31 00:07:49.4	268.730	0.000	-0.550	0.830
2020/01/31 00:07:49.5	268.710	-0.010	-0.530	0.830
2020/01/31 00:07:49.6	268.690	-0.020	-0.520	0.830
2020/01/31 00:07:49.7	268.660	-0.030	-0.500	0.830
2020/01/31 00:07:49.8	268.640	-0.040	-0.480	0.830
2020/01/31 00:07:49.9	268.630	-0.060	-0.450	0.830
2020/01/31 00:07:50.0	268.610	-0.070	-0.430	0.830
2020/01/31 00:07:50.1	268.590	-0.070	-0.410	0.820
2020/01/31 00:07:50.2	268.570	-0.080	-0.380	0.820
2020/01/31 00:07:50.3	268.550	-0.090	-0.360	0.810
2020/01/31 00:07:50.4	268.530	-0.100	-0.330	0.810
2020/01/31 00:07:50.5	268.510	-0.110	-0.300	0.800
2020/01/31 00:07:50.6	268.500	-0.110	-0.280	0.790
2020/01/31 00:07:50.7	268.480	-0.120	-0.250	0.780
2020/01/31 00:07:50.8	268.470	-0.120	-0.220	0.770
2020/01/31 00:07:50.9	268.460	-0.120	-0.200	0.760
2020/01/31 00:07:51.0	268.450	-0.130	-0.170	0.740
2020/01/31 00:07:51.1	268.440	-0.130	-0.140	0.730
2020/01/31 00:07:51.2	268.420	-0.130	-0.120	0.710
2020/01/31 00:07:51.3	268.410	-0.130	-0.100	0.700
2020/01/31 00:07:51.4	268.400	-0.130	-0.070	0.680
2020/01/31 00:07:51.5	268.400	-0.120	-0.050	0.660
2020/01/31 00:07:51.6	268.390	-0.120	-0.030	0.650
2020/01/31 00:07:51.7	268.380	-0.120	-0.020	0.630
2020/01/31 00:07:51.8	268.370	-0.110	-0.000	0.610
2020/01/31 00:07:51.9	268.360	-0.110	0.010	0.590
2020/01/31 00:07:52.0	268.350	-0.100	0.020	0.580
2020/01/31 00:07:52.1	268.340	-0.090	0.030	0.560
2020/01/31 00:07:52.2	268.340	-0.080	0.030	0.550
2020/01/31 00:07:52.3	268.330	-0.070	0.040	0.530
2020/01/31 00:07:52.4	268.330	-0.060	0.040	0.520
2020/01/31 00:07:52.5	268.320	-0.050	0.040	0.510
2020/01/31 00:07:52.6	268.320	-0.040	0.030	0.500
2020/01/31 00:07:52.7	268.320	-0.030	0.030	0.500
2020/01/31 00:07:52.8	268.310	-0.020	0.020	0.500
2020/01/31 00:07:52.9	268.310	-0.000	0.010	0.490
2020/01/31 00:07:53.0	268.310	0.010	-0.000	0.490
2020/01/31 00:07:53.1	268.310	0.020	-0.010	0.490
2020/01/31 00:07:53.2	268.300	0.030	-0.030	0.490
2020/01/31 00:07:53.3	268.300	0.050	-0.040	0.500
2020/01/31 00:07:53.4	268.300	0.060	-0.060	0.500
2020/01/31 00:07:53.5	268.290	0.070	-0.070	0.500
2020/01/31 00:07:53.6	268.290	0.080	-0.090	0.510
2020/01/31 00:07:53.7	268.290	0.090	-0.110	0.510
2020/01/31 00:07:53.8	268.290	0.100	-0.120	0.520
2020/01/31 00:07:53.9	268.290	0.100	-0.140	0.530
2020/01/31 00:07:54.0	268.280	0.110	-0.160	0.530
2020/01/31 00:07:54.1	268.280	0.120	-0.180	0.540
2020/01/31 00:07:54.2	268.290	0.120	-0.200	0.540
2020/01/31 00:07:54.3	268.290	0.120	-0.210	0.550
2020/01/31 00:07:54.4	268.290	0.120	-0.230	0.560
2020/01/31 00:07:54.5	268.300	0.120	-0.250	0.560
2020/01/31 00:07:54.6	268.300	0.120	-0.270	0.570
2020/01/31 00:07:54.7	268.310	0.120	-0.280	0.570
2020/01/31 00:07:54.8	268.320	0.110	-0.300	0.580
2020/01/31 00:07:54.9	268.320	0.110	-0.310	0.580
2020/01/31 00:07:55.0	268.340	0.100	-0.330	0.580
2020/01/31 00:07:55.1	268.350	0.090	-0.350	0.590
2020/01/31 00:07:55.2	268.360	0.080	-0.360	0.600
2020/01/31 00:07:55.3	268.360	0.070	-0.380	0.600
2020/01/31 00:07:55.4	268.370	0.060	-0.390	0.610
2020/01/31 00:07:55.5	268.380	0.040	-0.410	0.610
2020/01/31 00:07:55.6	268.400	0.030	-0.420	0.620
2020/01/31 00:07:55.7	268.410	0.010	-0.440	0.630
2020/01/31 00:07:55.8	268.420	-0.000	-0.450	0.630
2020/01/31 00:07:55.9	268.420	-0.020	-0.460	0.640
2020/01/31 00:07:56.0	268.440	-0.030	-0.480	0.650
2020/01/31 00:07:56.1	268.450	-0.050	-0.490	0.650
2020/01/31 00:07:56.2	268.460	-0.060	-0.500	0.660
2020/01/31 00:07:56.3	268.480	-0.080	-0.520	0.660
2020/01/31 00:07:56.4	268.490	-0.090	-0.530	0.670
2020/01/31 00:07:56.5	268.510	-0.110	-0.540	0.670
2020/01/31 00:07:56.6	268.520	-0.120	-0.550	0.670
2020/01/31 00:07:56.7	268.540	-0.130	-0.560	0.680
2020/01/31 00:07:56.8	268.560	-0.150	-0.570	0.680
2020/01/31 00:07:56.9	268.580	-0.160	-0.580	0.680
2020/01/31 00:07:57.0	268.590	-0.170	-0.590	0.680
2020/01/31 00:07:57.1	268.610	-0.180	-0.600	0.680
2020/01/31 00:07:57.2	268.630	-0.190	-0.600	0.680
2020/01/31 00:07:57.3	268.650	-0.190	-0.610	0.680
2020/01/31 00:07:57.4	268.680	-0.200	-0.610	0.690
2020/01/31 00:07:57.5	268.700	-0.210	-0.610	0.690
2020/01/31 00:07:57.6	268.720	-0.210	-0.610	0.690
2020/01/31 00:07:57.7	268.750	-0.210	-0.610	0.690
2020/01/31 00:07:57.8	268.780	-0.220	-0.600	0.690
2020/01/31 00:07:57.9	268.800	-0.220	-0.600	0.690
2020/01/31 00:07:58.0	268.820	-0.220	-0.590	0.690
2020/01/31 00:07:58.1	268.850	-0.220	-0.580	0.690
2020/01/31 00:07:58.2	268.880	-0.210	-0.580	0.690
2020/01/31 00:07:58.3	268.910	-0.210	-0.570	0.690
2020/01/31 00:07:58.4	268.930	-0.210	-0.560	0.690
2020/01/31 00:07:58.5	268.960	-0.200	-0.540	0.690
2020/01/31 00:07:58.6	268.990	-0.200	-0.530	0.690
2020/01/31 00:07:58.7	269.020	-0.190	-0.520	0.690
2020/01/31 00:07:58.8	269.050	-0.180	-0.500	0.690
2020/01/31 00:07:58.9	269.070	-0.180	-0.490	0.690
2020/01/31 00:07:59.0	269.100	-0.170	-0.470	0.690
2020/01/31 00:07:59.1	269.130	-0.160	-0.460	0.690
2020/01/31 00:07:59.2	269.160	-0.150	-0.440	0.680
2020/01/31 00:07:59.3	269.190	-0.140	-0.430	0.680
2020/01/31 00:07:59.4	269.220	-0.130	-0.410	0.680
2020/01/31 00:07:59.5	269.240	-0.120	-0.400	0.670
2020/01/31 00:07:59.6	269.270	-0.110	-0.380	0.670
2020/01/31 00:07:59.7	269.290	-0.100	-0.370	0.670
2020/01/31 00:07:59.8	269.320	-0.090	-0.350	0.660
2020/01/31 00:07:59.9	269.350	-0.080	-0.340	0.660
2020/01/31 00:08:00.0	269.370	-0.070	-0.330	0.650
2020/01/31 00:08:00.1	269.390	-0.060	-0.310	0.640
2020/01/31 00:08:00.2	269.410	-0.050	-0.300	0.630
2020/01/31 00:08:00.3	269.430	-0.030	-0.280	0.620
2020/01/31 00:08:00.4	269.450	-0.020	-0.270	0.610
2020/01/31 00:08:00.5	269.460	-0.010	-0.260	0.600
2020/01/31 00:08:00.6	269.480	-0.000	-0.250	0.590
2020/01/31 00:08:00.7	269.500	0.000	-0.230	0.570
2020/01/31 00:08:00.8	269.510	0.010	-0.220	0.560
2020/01/31 00:08:00.9	269.520	0.020	-0.210	0.550
2020/01/31 00:08:01.0	269.530	0.030	-0.190	0.530
2020/01/31 00:08:01.1	269.540	0.040	-0.180	0.520
2020/01/31 00:08:01.2	269.550	0.050	-0.160	0.500
2020/01/31 00:08:01.3	269.550	0.050	-0.150	0.490
2020/01/31 00:08:01.4	269.560	0.060	-0.130	0.480
2020/01/31 00:08:01.5	269.570	0.070	-0.120	0.470
2020/01/31 00:08:01.6	269.570	0.070	-0.110	0.460
2020/01/31 00:08:01.7	269.570	0.080	-0.090	0.450
2020/01/31 00:08:01.8	269.570	0.080	-0.080	0.440
2020/01/31 00:08:01.9	269.590	0.090	-0.070	0.430
2020/01/31 00:08:02.0	269.580	0.090	-0.060	0.430
2020/01/31 00:08:02.1	269.580	0.100	-0.050	0.420
2020/01/31 00:08:02.2	269.570	0.100	-0.040	0.420
2020/01/31 00:08:02.3	269.560	0.110	-0.020	0.420
2020/01/31 00:08:02.4	269.550	0.110	-0.010	0.420
2020/01/31 00:08:02.5	269.530	0.110	0.000	0.420
2020/01/31 00:08:02.6	269.520	0.110	0.010	0.420
2020/01/31 00:08:02.7	269.500	0.120	0.020	0.430
2020/01/31 00:08:02.8	269.480	0.120	0.030	0.430
2020/01/31 00:08:02.9	269.450	0.120	0.040	0.440
2020/01/31 00:08:03.0	269.430	0.120	0.050	0.450
2020/01/31 00:08:03.1	269.400	0.120	0.060	0.460
2020/01/31 00:08:03.2	269.380	0.120	0.070	0.480
2020/01/31 00:08:03.3	269.350	0.120	0.070	0.490
2020/01/31 00:08:03.4	269.320	0.120	0.080	0.510
2020/01/31 00:08:03.5	269.290	0.120	0.080	0.530
2020/01/31 00:08:03.6	269.250	0.120	0.090	0.540
2020/01/31 00:08:03.7	269.220	0.120	0.090	0.560
2020/01/31 00:08:03.8	269.180	0.120	0.100	0.580
2020/01/31 00:08:03.9	269.150	0.120	0.100	0.600
2020/01/31 00:08:04.0	269.100	0.110	0.110	0.630
2020/01/31 00:08:04.1	269.070	0.110	0.110	0.650
2020/01/31 00:08:04.2	269.030	0.110	0.110	0.670
2020/01/31 00:08:04.3	269.000	0.110	0.110	0.680
2020/01/31 00:08:04.4	268.970	0.100	0.110	0.700
2020/01/31 00:08:04.5	268.930	0.100	0.110	0.710
2020/01/31 00:08:04.6	268.900	0.090	0.110	0.730
2020/01/31 00:08:04.7	268.870	0.090	0.100	0.740
2020/01/31 00:08:04.8	268.840	0.090	0.100	0.750
2020/01/31 00:08:04.9	268.800	0.080	0.100	0.750
2020/01/31 00:08:05.0	268.780	0.080	0.090	0.750
2020/01/31 00:08:05.1	268.750	0.070	0.080	0.760
2020/01/31 00:08:05.2	268.730	0.070	0.070	0.760
2020/01/31 00:08:05.3	268.710	0.070	0.060	0.750
2020/01/31 00:08:05.4	268.690	0.070	0.040	0.750
2020/01/31 00:08:05.5	268.670	0.060	0.030	0.740
2020/01/31 00:08:05.6	268.660	0.060	0.010	0.730
2020/01/31 00:08:05.7	268.640	0.060	-0.010	0.710
2020/01/31 00:08:05.8	268.630	0.060	-0.030	0.690
2020/01/31 00:08:05.9	268.620	0.060	-0.050	0.680
2020/01/31 00:08:06.0	268.620	0.060	-0.080	0.650
2020/01/31 00:08:06.1	268.610	0.060	-0.100	0.630
2020/01/31 00:08:06.2	268.610	0.070	-0.130	0.610
2020/01/31 00:08:06.3	268.610	0.070	-0.160	0.580
2020/01/31 00:08:06.4	268.610	0.080	-0.190	0.560
2020/01/31 00:08:06.5	268.610	0.080	-0.220	0.530
2020/01/31 00:08:06.6	268.620	0.090	-0.250	0.500
2020/01/31 00:08:06.7	268.620	0.100	-0.290	0.470
2020/01/31 00:08:06.8	268.630	0.110	-0.320	0.440
2020/01/31 00:08:06.9	268.640	0.120	-0.350	0.410
2020/01/31 00:08:07.0	268.660	0.130	-0.390	0.390
2020/01/31 00:08:07.1	268.670	0.140	-0.420	0.360
2020/01/31 00:08:07.2	268.690	0.150	-0.450	0.330
2020/01/31 00:08:07.3	268.700	0.160	-0.480	0.300
2020/01/31 00:08:07.4	268.720	0.170	-0.510	0.280
2020/01/31 00:08:07.5	268.740	0.190	-0.540	0.250
2020/01/31 00:08:07.6	268.760	0.200	-0.570	0.220
2020/01/31 00:08:07.7	268.780	0.210	-0.600	0.200
2020/01/31 00:08:07.8	268.800	0.220	-0.620	0.170
2020/01/31 00:08:07.9	268.830	0.230	-0.640	0.150
2020/01/31 00:08:08.0	268.850	0.230	-0.670	0.120
2020/01/31 00:08:08.1	268.880	0.240	-0.690	0.100
2020/01/31 00:08:08.2	268.900	0.250	-0.700	0.070
2020/01/31 00:08:08.3	268.930	0.250	-0.720	0.050
2020/01/31 00:08:08.4	268.960	0.250	-0.730	0.020
2020/01/31 00:08:08.5	268.990	0.250	-0.750	-0.000
2020/01/31 00:08:08.6	269.020	0.250	-0.760	-0.020
2020/01/31 00:08:08.7	269.050	0.250	-0.770	-0.050
2020/01/31 00:08:08.8	269.080	0.240	-0.770	-0.070
2020/01/31 00:08:08.9	269.110	0.240	-0.780	-0.090
2020/01/31 00:08:09.0	269.140	0.230	-0.790	-0.110
2020/01/31 00:08:09.1	269.170	0.220	-0.790	-0.130
2020/01/31 00:08:09.2	269.200	0.200	-0.790	-0.150
2020/01/31 00:08:09.3	269.230	0.190	-0.790	-0.160
2020/01/31 00:08:09.4	269.260	0.180	-0.790	-0.170
2020/01/31 00:08:09.5	269.290	0.160	-0.790	-0.190
2020/01/31 00:08:09.6	269.320	0.140	-0.790	-0.200
2020/01/31 00:08:09.7	269.350	0.120	-0.790	-0.210
2020/01/31 00:08:09.8	269.380	0.100	-0.790	-0.220
2020/01/31 00:08:09.9	269.410	0.080	-0.780	-0.220
2020/01/31 00:08:10.0	269.430	0.050	-0.780	-0.220
2020/01/31 00:08:10.1	269.460	0.030	-0.780	-0.220
2020/01/31 00:08:10.2	269.480	0.000	-0.770	-0.220
2020/01/31 00:08:10.3	269.500	-0.020	-0.770	-0.210
2020/01/31 00:08:10.4	269.520	-0.050	-0.770	-0.200
2020/01/31 00:08:10.5	269.540	-0.070	-0.770	-0.190
2020/01/31 00:08:10.6	269.560	-0.100	-0.760	-0.180
2020/01/31 00:08:10.7	269.580	-0.120	-0.760	-0.160
2020/01/31 00:08:10.8	269.590	-0.150	-0.760	-0.140
2020/01/31 00:08:10.9	269.610	-0.170	-0.750	-0.110
2020/01/31 00:08:11.0	269.610	-0.190	-0.750	-0.080
2020/01/31 00:08:11.1	269.620	-0.220	-0.750	-0.050
2020/01/31 00:08:11.2	269.630	-0.240	-0.740	-0.010
2020/01/31 00:08:11.3	269.630	-0.260	-0.740	0.020
2020/01/31 00:08:11.4	269.640	-0.280	-0.730	0.060
2020/01/31 00:08:11.5	269.640	-0.300	-0.720	0.100
2020/01/31 00:08:11.6	269.640	-0.320	-0.720	0.140
2020/01/31 00:08:11.7	269.640	-0.340	-0.710	0.180
2020/01/31 00:08:11.8	269.640	-0.350	-0.700	0.220
2020/01/31 00:08:11.9	269.640	-0.370	-0.690	0.260
2020/01/31 00:08:12.0	269.640	-0.380	-0.670	0.300
2020/01/31 00:08:12.1	269.630	-0.390	-0.660	0.340
2020/01/31 00:08:12.2	269.630	-0.400	-0.650	0.370
2020/01/31 00:08:12.3	269.620	-0.410	-0.630	0.410
2020/01/31 00:08:12.4	269.610	-0.410	-0.620	0.440
2020/01/31 00:08:12.5	269.610	-0.420	-0.600	0.470
2020/01/31 00:08:12.6	269.600	-0.420	-0.580	0.510
2020/01/31 00:08:12.7	269.590	-0.420	-0.570	0.540
2020/01/31 00:08:12.8	269.580	-0.420	-0.550	0.560
2020/01/31 00:08:12.9	269.580	-0.420	-0.520	0.590
2020/01/31 00:08:13.0	269.570	-0.410	-0.500	0.620
2020/01/31 00:08:13.1	269.560	-0.410	-0.480	0.650
2020/01/31 00:08:13.2	269.550	-0.400	-0.460	0.670
2020/01/31 00:08:13.3	269.530	-0.390	-0.430	0.700
2020/01/31 00:08:13.4	269.520	-0.380	-0.410	0.720
2020/01/31 00:08:13.5	269.500	-0.370	-0.390	0.740
2020/01/31 00:08:13.6	269.480	-0.350	-0.360	0.760
2020/01/31 00:08:13.7	269.460	-0.340	-0.340	0.790
2020/01/31 00:08:13.8	269.440	-0.320	-0.310	0.810
2020/01/31 00:08:13.9	269.430	-0.300	-0.290	0.830
2020/01/31 00:08:14.0	269.410	-0.280	-0.260	0.850
2020/01/31 00:08:14.1	269.390	-0.260	-0.240	0.870
2020/01/31 00:08:14.2	269.360	-0.240	-0.210	0.890
2020/01/31 00:08:14.3	269.340	-0.220	-0.190	0.900
2020/01/31 00:08:14.4	269.320	-0.200	-0.160	0.920
2020/01/31 00:08:14.5	269.300	-0.180	-0.140	0.930
2020/01/31 00:08:14.6	269.270	-0.160	-0.110	0.950
2020/01/31 00:08:14.7	269.250	-0.130	-0.090	0.960
2020/01/31 00:08:14.8	269.230	-0.110	-0.060	0.970
2020/01/31 00:08:14.9	269.200	-0.090	-0.040	0.980
2020/01/31 00:08:15.0	269.190	-0.070	-0.020	0.980
2020/01/31 00:08:15.1	269.170	-0.050	0.010	0.990
2020/01/31 00:08:15.2	269.140	-0.030	0.030	0.990
2020/01/31 00:08:15.3	269.120	-0.010	0.060	1.000
2020/01/31 00:08:15.4	269.100	0.010	0.080	1.000
2020/01/31 00:08:15.5	269.080	0.020	0.110	1.000
2020/01/31 00:08:15.6	269.070	0.040	0.130	1.000
2020/01/31 00:08:15.7	269.050	0.060	0.150	0.990
2020/01/31 00:08:15.8	269.030	0.070	0.170	0.990
2020/01/31 00:08:15.9	269.000	0.080	0.190	0.990
2020/01/31 00:08:16.0	268.980	0.100	0.220	0.980
2020/01/31 00:08:16.1	268.960	0.110	0.230	0.970
2020/01/31 00:08:16.2	268.950	0.120	0.250	0.960
2020/01/31 00:08:16.3	268.930	0.130	0.270	0.950
2020/01/31 00:08:16.4	268.910	0.140	0.290	0.940
2020/01/31 00:08:16.5	268.900	0.150	0.300	0.930
2020/01/31 00:08:16.6	268.880	0.160	0.320	0.920
2020/01/31 00:08:16.7	268.870	0.170	0.330	0.900
2020/01/31 00:08:16.8	268.860	0.170	0.340	0.880
2020/01/31 00:08:16.9	268.840	0.180	0.350	0.860
2020/01/31 00:08:17.0	268.830	0.180	0.360	0.850
2020/01/31 00:08:17.1	268.820	0.190	0.370	0.830
2020/01/31 00:08:17.2	268.820	0.190	0.380	0.800
2020/01/31 00:08:17.3	268.810	0.200	0.390	0.780
2020/01/31 00:08:17.4	268.800	0.200	0.400	0.760
2020/01/31 00:08:17.5	268.800	0.210	0.400	0.730
2020/01/31 00:08:17.6	268.800	0.210	0.400	0.700
2020/01/31 00:08:17.7	268.790	0.210	0.400	0.680
2020/01/31 00:08:17.8	268.790	0.220	0.410	0.650
2020/01/31 00:08:17.9	268.800	0.220	0.400	0.620
2020/01/31 00:08:18.0	268.810	0.220	0.400	0.590
2020/01/31 00:08:18.1	268.820	0.230	0.390	0.560
2020/01/31 00:08:18.2	268.820	0.230	0.390	0.520
2020/01/31 00:08:18.3	268.830	0.230	0.380	0.490
2020/01/31 00:08:18.4	268.840	0.230	0.370	0.460
2020/01/31 00:08:18.5	268.850	0.230	0.360	0.420
2020/01/31 00:08:18.6	268.860	0.240	0.350	0.390
2020/01/31 00:08:18.7	268.870	0.240	0.340	0.350
2020/01/31 00:08:18.8	268.880	0.240	0.320	0.320
2020/01/31 00:08:18.9	268.890	0.240	0.300	0.290
2020/01/31 00:08:19.0	268.910	0.240	0.290	0.260
2020/01/31 00:08:19.1	268.920	0.240	0.260	0.220
2020/01/31 00:08:19.2	268.940	0.240	0.240	0.190
2020/01/31 00:08:19.3	268.960	0.240	0.210	0.160
2020/01/31 00:08:19.4	268.980	0.240	0.190	0.140
2020/01/31 00:08:19.5	269.000	0.240	0.160	0.110
2020/01/31 00:08:19.6	269.020	0.240	0.120	0.090
2020/01/31 00:08:19.7	269.040	0.230	0.090	0.060
2020/01/31 00:08:19.8	269.050	0.230	0.050	0.040
2020/01/31 00:08:19.9	269.070	0.230	0.020	0.020
2020/01/31 00:08:20.0	269.090	0.230	-0.020	0.010
2020/01/31 00:08:20.1	269.110	0.220	-0.070	-0.010
2020/01/31 00:08:20.2	269.130	0.220	-0.110	-0.020
2020/01/31 00:08:20.3	269.150	0.210	-0.150	-0.030
2020/01/31 00:08:20.4	269.160	0.210	-0.200	-0.030
2020/01/31 00:08:20.5	269.180	0.200	-0.250	-0.030
2020/01/31 00:08:20.6	269.190	0.200	-0.300	-0.030
2020/01/31 00:08:20.7	269.210	0.190	-0.350	-0.020
2020/01/31 00:08:20.8	269.220	0.180	-0.400	-0.020
2020/01/31 00:08:20.9	269.230	0.170	-0.450	-0.000
2020/01/31 00:08:21.0	269.240	0.160	-0.500	0.010
2020/01/31 00:08:21.1	269.250	0.160	-0.550	0.030
2020/01/31 00:08:21.2	269.250	0.150	-0.600	0.050
2020/01/31 00:08:21.3	269.260	0.140	-0.650	0.080
2020/01/31 00:08:21.4	269.260	0.130	-0.700	0.110
2020/01/31 00:08:21.5	269.270	0.110	-0.750	0.140
2020/01/31 00:08:21.6	269.270	0.100	-0.790	0.180
2020/01/31 00:08:21.7	269.270	0.090	-0.840	0.210
2020/01/31 00:08:21.8	269.260	0.080	-0.880	0.250
2020/01/31 00:08:21.9	269.260	0.070	-0.920	0.290
2020/01/31 00:08:22.0	269.260	0.050	-0.960	0.330
2020/01/31 00:08:22.1	269.250	0.040	-1.000	0.380
2020/01/31 00:08:22.2	269.250	0.030	-1.040	0.420
2020/01/31 00:08:22.3	269.240	0.020	-1.070	0.460
2020/01/31 00:08:22.4	269.230	0.000	-1.100	0.500
2020/01/31 00:08:22.5	269.230	-0.010	-1.130	0.540
2020/01/31 00:08:22.6	269.220	-0.030	-1.150	0.590
2020/01/31 00:08:22.7	269.210	-0.040	-1.180	0.630
2020/01/31 00:08:22.8	269.200	-0.050	-1.200	0.670
2020/01/31 00:08:22.9	269.190	-0.070	-1.210	0.700
2020/01/31 00:08:23.0	269.180	-0.080	-1.230	0.740
2020/01/31 00:08:23.1	269.170	-0.100	-1.240	0.780
2020/01/31 00:08:23.2	269.160	-0.110	-1.250	0.820
2020/01/31 00:08:23.3	269.150	-0.120	-1.250	0.850
2020/01/31 00:08:23.4	269.140	-0.130	-1.260	0.890
2020/01/31 00:08:23.5	269.130	-0.150	-1.260	0.920
2020/01/31 00:08:23.6	269.120	-0.160	-1.260	0.960
2020/01/31 00:08:23.7	269.100	-0.170	-1.260	0.990
2020/01/31 00:08:23.8	269.090	-0.180	-1.250	1.020
2020/01/31 00:08:23.9	269.080	-0.190	-1.240	1.050
2020/01/31 00:08:24.0	269.070	-0.200	-1.230	1.070
2020/01/31 00:08:24.1	269.050	-0.200	-1.220	1.100
2020/01/31 00:08:24.2	269.040	-0.210	-1.200	1.120
2020/01/31 00:08:24.3	269.020	-0.210	-1.180	1.140
2020/01/31 00:08:24.4	269.010	-0.220	-1.160	1.160
2020/01/31 00:08:24.5	269.000	-0.220	-1.140	1.180
2020/01/31 00:08:24.6	268.980	-0.230	-1.110	1.200
2020/01/31 00:08:24.7	268.970	-0.230	-1.080	1.210
2020/01/31 00:08:24.8	268.950	-0.230	-1.050	1.220
2020/01/31 00:08:24.9	268.940	-0.230	-1.010	1.230
2020/01/31 00:08:25.0	268.940	-0.230	-0.980	1.240
2020/01/31 00:08:25.1	268.920	-0.230	-0.940	1.240
2020/01/31 00:08:25.2	268.910	-0.230	-0.900	1.240
2020/01/31 00:08:25.3	268.900	-0.220	-0.850	1.240
2020/01/31 00:08:25.4	268.890	-0.220	-0.810	1.230
2020/01/31 00:08:25.5	268.880	-0.220	-0.760	1.230
2020/01/31 00:08:25.6	268.870	-0.210	-0.710	1.220
2020/01/31 00:08:25.7	268.860	-0.210	-0.660	1.210
2020/01/31 00:08:25.8	268.850	-0.200	-0.610	1.190
2020/01/31 00:08:25.9	268.840	-0.200	-0.560	1.180
2020/01/31 00:08:26.0	268.840	-0.190	-0.510	1.160
2020/01/31 00:08:26.1	268.830	-0.180	-0.460	1.150
2020/01/31 00:08:26.2	268.830	-0.180	-0.410	1.140
2020/01/31 00:08:26.3	268.820	-0.170	-0.360	1.120
2020/01/31 00:08:26.4	268.820	-0.160	-0.310	1.110
2020/01/31 00:08:26.5	268.820	-0.160	-0.260	1.090
2020/01/31 00:08:26.6	268.820	-0.150	-0.210	1.080
2020/01/31 00:08:26.7	268.820	-0.140	-0.170	1.060
2020/01/31 00:08:26.8	268.820	-0.130	-0.120	1.050
2020/01/31 00:08:26.9	268.810	-0.120	-0.090	1.040
2020/01/31 00:08:27.0	268.810	-0.120	-0.050	1.030
2020/01/31 00:08:27.1	268.810	-0.110	-0.010	1.020
2020/01/31 00:08:27.2	268.810	-0.100	0.020	1.000
2020/01/31 00:08:27.3	268.820	-0.090	0.050	0.990
2020/01/31 00:08:27.4	268.820	-0.080	0.080	0.980
2020/01/31 00:08:27.5	268.830	-0.080	0.110	0.970
2020/01/31 00:08:27.6	268.830	-0.070	0.130	0.960
2020/01/31 00:08:27.7	268.840	-0.060	0.150	0.950
2020/01/31 00:08:27.8	268.850	-0.050	0.170	0.940
2020/01/31 00:08:27.9	268.850	-0.040	0.190	0.930
2020/01/31 00:08:28.0	268.860	-0.030	0.210	0.910
2020/01/31 00:08:28.1	268.870	-0.030	0.220	0.900
2020/01/31 00:08:28.2	268.880	-0.020	0.230	0.890
2020/01/31 00:08:28.3	268.880	-0.010	0.230	0.890
2020/01/31 00:08:28.4	268.890	-0.000	0.240	0.880
2020/01/31 00:08:28.5	268.900	0.010	0.240	0.870
2020/01/31 00:08:28.6	268.910	0.020	0.240	0.870
2020/01/31 00:08:28.7	268.910	0.020	0.240	0.870
2020/01/31 00:08:28.8	268.920	0.030	0.240	0.870
2020/01/31 00:08:28.9	268.920	0.040	0.240	0.870
2020/01/31 00:08:29.0	268.920	0.050	0.240	0.870
2020/01/31 00:08:29.1	268.930	0.050	0.230	0.870
2020/01/31 00:08:29.2	268.930	0.060	0.230	0.880
2020/01/31 00:08:29.3	268.940	0.070	0.220	0.880
2020/01/31 00:08:29.4	268.940	0.070	0.220	0.890
2020/01/31 00:08:29.5	268.950	0.080	0.210	0.890
2020/01/31 00:08:29.6	268.950	0.090	0.210	0.900
2020/01/31 00:08:29.7	268.950	0.090	0.210	0.910
2020/01/31 00:08:29.8	268.960	0.100	0.210	0.920
2020/01/31 00:08:29.9	268.950	0.110	0.200	0.930
2020/01/31 00:08:30.0	268.950	0.110	0.200	0.950
2020/01/31 00:08:30.1	268.950	0.120	0.210	0.960
2020/01/31 00:08:30.2	268.950	0.120	0.210	0.970
2020/01/31 00:08:30.3	268.950	0.130	0.210	0.990
2020/01/31 00:08:30.4	268.960	0.130	0.220	1.000
2020/01/31 00:08:30.5	268.960	0.140	0.220	1.020
2020/01/31 00:08:30.6	268.960	0.150	0.230	1.030
2020/01/31 00:08:30.7	268.960	0.150	0.240	1.050
2020/01/31 00:08:30.8	268.960	0.160	0.250	1.060
2020/01/31 00:08:30.9	268.960	0.160	0.260	1.070
2020/01/31 00:08:31.0	268.980	0.160	0.260	1.080
2020/01/31 00:08:31.1	268.980	0.170	0.270	1.090
2020/01/31 00:08:31.2	268.980	0.170	0.280	1.100
2020/01/31 00:08:31.3	268.980	0.180	0.290	1.100
2020/01/31 00:08:31.4	268.980	0.180	0.290	1.100
2020/01/31 00:08:31.5	268.990	0.180	0.300	1.100
2020/01/31 00:08:31.6	268.990	0.190	0.300	1.100
2020/01/31 00:08:31.7	268.990	0.190	0.300	1.100
2020/01/31 00:08:31.8	268.990	0.190	0.290	1.090
2020/01/31 00:08:31.9	268.990	0.190	0.290	1.080
2020/01/31 00:08:32.0	268.990	0.200	0.280	1.080
2020/01/31 00:08:32.1	268.990	0.200	0.260	1.070
2020/01/31 00:08:32.2	268.990	0.200	0.250	1.050
2020/01/31 00:08:32.3	269.000	0.210	0.230	1.040
2020/01/31 00:08:32.4	269.000	0.210	0.210	1.020
2020/01/31 00:08:32.5	269.000	0.210	0.180	1.000
2020/01/31 00:08:32.6	269.000	0.220	0.150	0.970
2020/01/31 00:08:32.7	269.000	0.220	0.120	0.950
2020/01/31 00:08:32.8	269.000	0.230	0.080	0.930
2020/01/31 00:08:32.9	269.000	0.230	0.050	0.890
2020/01/31 00:08:33.0	269.000	0.240	0.010	0.870
2020/01/31 00:08:33.1	269.000	0.240	-0.040	0.840
2020/01/31 00:08:33.2	269.000	0.250	-0.080	0.810
2020/01/31 00:08:33.3	269.000	0.250	-0.130	0.780
2020/01/31 00:08:33.4	269.000	0.260	-0.180	0.750
2020/01/31 00:08:33.5	269.000	0.260	-0.230	0.720
2020/01/31 00:08:33.6	269.000	0.270	-0.290	0.690
2020/01/31 00:08:33.7	269.000	0.280	-0.340	0.660
2020/01/31 00:08:33.8	268.990	0.280	-0.400	0.630
2020/01/31 00:08:33.9	269.000	0.280	-0.460	0.610
2020/01/31 00:08:34.0	269.000	0.290	-0.510	0.580
2020/01/31 00:08:34.1	268.990	0.290	-0.560	0.560
2020/01/31 00:08:34.2	268.990	0.290	-0.610	0.530
2020/01/31 00:08:34.3	268.980	0.290	-0.670	0.510
2020/01/31 00:08:34.4	268.980	0.290	-0.710	0.480
2020/01/31 00:08:34.5	268.970	0.290	-0.760	0.460
2020/01/31 00:08:34.6	268.960	0.290	-0.800	0.440
2020/01/31 00:08:34.7	268.950	0.280	-0.840	0.430
2020/01/31 00:08:34.8	268.940	0.280	-0.880	0.410
2020/01/31 00:08:34.9	268.920	0.270	-0.920	0.400
2020/01/31 00:08:35.0	268.910	0.260	-0.940	0.380
2020/01/31 00:08:35.1	268.900	0.250	-0.970	0.380
2020/01/31 00:08:35.2	268.880	0.240	-1.000	0.370
2020/01/31 00:08:35.3	268.860	0.220	-1.020	0.360
2020/01/31 00:08:35.4	268.840	0.210	-1.030	0.360
2020/01/31 00:08:35.5	268.820	0.190	-1.050	0.360
2020/01/31 00:08:35.6	268.800	0.170	-1.060	0.360
2020/01/31 00:08:35.7	268.780	0.150	-1.060	0.360
2020/01/31 00:08:35.8	268.760	0.120	-1.060	0.360
2020/01/31 00:08:35.9	268.760	0.100	-1.060	0.370
2020/01/31 00:08:36.0	268.730	0.070	-1.060	0.380
2020/01/31 00:08:36.1	268.710	0.050	-1.050	0.390
2020/01/31 00:08:36.2	268.690	0.020	-1.040	0.390
2020/01/31 00:08:36.3	268.670	-0.010	-1.030	0.410
2020/01/31 00:08:36.4	268.640	-0.040	-1.010	0.420
2020/01/31 00:08:36.5	268.620	-0.070	-0.990	0.430
2020/01/31 00:08:36.6	268.600	-0.100	-0.970	0.450
2020/01/31 00:08:36.7	268.580	-0.130	-0.950	0.460
2020/01/31 00:08:36.8	268.560	-0.160	-0.920	0.480
2020/01/31 00:08:36.9	268.530	-0.190	-0.900	0.490
2020/01/31 00:08:37.0	268.510	-0.210	-0.870	0.510
2020/01/31 00:08:37.1	268.490	-0.240	-0.840	0.520
2020/01/31 00:08:37.2	268.470	-0.270	-0.810	0.540
2020/01/31 00:08:37.3	268.460	-0.290	-0.780	0.560
2020/01/31 00:08:37.4	268.440	-0.320	-0.750	0.580
2020/01/31 00:08:37.5	268.420	-0.340	-0.720	0.600
2020/01/31 00:08:37.6	268.410	-0.360	-0.690	0.620
2020/01/31 00:08:37.7	268.400	-0.380	-0.660	0.640
2020/01/31 00:08:37.8	268.390	-0.390	-0.630	0.650
2020/01/31 00:08:37.9	268.380	-0.410	-0.610	0.670
2020/01/31 00:08:38.0	268.380	-0.420	-0.580	0.690
2020/01/31 00:08:38.1	268.370	-0.430	-0.550	0.710
2020/01/31 00:08:38.2	268.360	-0.440	-0.530	0.730
2020/01/31 00:08:38.3	268.350	-0.440	-0.500	0.740
2020/01/31 00:08:38.4	268.350	-0.440	-0.480	0.760
2020/01/31 00:08:38.5	268.340	-0.440	-0.460	0.780
2020/01/31 00:08:38.6	268.340	-0.440	-0.440	0.790
2020/01/31 00:08:38.7	268.330	-0.440	-0.420	0.800
2020/01/31 00:08:38.8	268.330	-0.430	-0.400	0.820
2020/01/31 00:08:38.9	268.320	-0.420	-0.380	0.830
2020/01/31 00:08:39.0	268.320	-0.410	-0.360	0.840
2020/01/31 00:08:39.1	268.320	-0.400	-0.350	0.850
2020/01/31 00:08:39.2	268.320	-0.390	-0.330	0.850
2020/01/31 00:08:39.3	268.320	-0.370	-0.320	0.860
2020/01/31 00:08:39.4	268.320	-0.350	-0.310	0.870
2020/01/31 00:08:39.5	268.320	-0.340	-0.290	0.870
2020/01/31 00:08:39.6	268.330	-0.320	-0.280	0.870
2020/01/31 00:08:39.7	268.330	-0.300	-0.270	0.870
2020/01/31 00:08:39.8	268.340	-0.280	-0.260	0.870
2020/01/31 00:08:39.9	268.340	-0.260	-0.250	0.870
2020/01/31 00:08:40.0	268.340	-0.240	-0.230	0.860
2020/01/31 00:08:40.1	268.350	-0.230	-0.220	0.860
2020/01/31 00:08:40.2	268.360	-0.210	-0.210	0.850
2020/01/31 00:08:40.3	268.370	-0.190	-0.190	0.840
2020/01/31 00:08:40.4	268.380	-0.170	-0.180	0.830
2020/01/31 00:08:40.5	268.390	-0.150	-0.160	0.820
2020/01/31 00:08:40.6	268.400	-0.130	-0.150	0.810
2020/01/31 00:08:40.7	268.420	-0.120	-0.130	0.790
2020/01/31 00:08:40.8	268.430	-0.100	-0.110	0.780
2020/01/31 00:08:40.9	268.450	-0.090	-0.100	0.760
2020/01/31 00:08:41.0	268.470	-0.070	-0.080	0.750
2020/01/31 00:08:41.1	268.490	-0.060	-0.060	0.730
2020/01/31 00:08:41.2	268.510	-0.050	-0.040	0.700
2020/01/31 00:08:41.3	268.530	-0.040	-0.020	0.680
2020/01/31 00:08:41.4	268.550	-0.030	0.000	0.660
2020/01/31 00:08:41.5	268.570	-0.020	0.020	0.640
2020/01/31 00:08:41.6	268.590	-0.010	0.050	0.620
2020/01/31 00:08:41.7	268.620	-0.010	0.070	0.590
2020/01/31 00:08:41.8	268.640	0.000	0.090	0.570
2020/01/31 00:08:41.9	268.670	0.010	0.110	0.550
2020/01/31 00:08:42.0	268.680	0.010	0.130	0.530
2020/01/31 00:08:42.1	268.710	0.010	0.150	0.500
2020/01/31 00:08:42.2	268.740	0.020	0.160	0.480
2020/01/31 00:08:42.3	268.770	0.020	0.180	0.460
2020/01/31 00:08:42.4	268.800	0.020	0.200	0.440
2020/01/31 00:08:42.5	268.830	0.020	0.210	0.410
2020/01/31 00:08:42.6	268.860	0.020	0.220	0.390
2020/01/31 00:08:42.7	268.890	0.020	0.230	0.370
2020/01/31 00:08:42.8	268.920	0.020	0.240	0.350
2020/01/31 00:08:42.9	268.950	0.030	0.250	0.330
2020/01/31 00:08:43.0	268.970	0.030	0.250	0.310
2020/01/31 00:08:43.1	269.000	0.030	0.250	0.300
2020/01/31 00:08:43.2	269.030	0.030	0.250	0.280
2020/01/31 00:08:43.3	269.060	0.030	0.250	0.270
2020/01/31 00:08:43.4	269.090	0.040	0.250	0.250
2020/01/31 00:08:43.5	269.120	0.040	0.240	0.240
2020/01/31 00:08:43.6	269.140	0.050	0.230	0.230
2020/01/31 00:08:43.7	269.170	0.050	0.220	0.220
2020/01/31 00:08:43.8	269.190	0.060	0.200	0.220
2020/01/31 00:08:43.9	269.210	0.070	0.190	0.220
2020/01/31 00:08:44.0	269.230	0.070	0.170	0.220
2020/01/31 00:08:44.1	269.250	0.080	0.150	0.220
2020/01/31 00:08:44.2	269.270	0.090	0.120	0.220
2020/01/31 00:08:44.3	269.290	0.100	0.100	0.220
2020/01/31 00:08:44.4	269.300	0.110	0.070	0.230
2020/01/31 00:08:44.5	269.320	0.120	0.040	0.230
2020/01/31 00:08:44.6	269.330	0.130	0.010	0.240
2020/01/31 00:08:44.7	269.340	0.140	-0.030	0.250
2020/01/31 00:08:44.8	269.350	0.150	-0.060	0.260
2020/01/31 00:08:44.9	269.350	0.160	-0.100	0.270
2020/01/31 00:08:45.0	269.350	0.170	-0.140	0.290
2020/01/31 00:08:45.1	269.350	0.180	-0.170	0.300
2020/01/31 00:08:45.2	269.350	0.190	-0.210	0.320
2020/01/31 00:08:45.3	269.350	0.200	-0.250	0.340
2020/01/31 00:08:45.4	269.350	0.210	-0.280	0.350
2020/01/31 00:08:45.5	269.340	0.220	-0.320	0.370
2020/01/31 00:08:45.6	269.340	0.230	-0.350	0.390
2020/01/31 00:08:45.7	269.330	0.230	-0.390	0.410
2020/01/31 00:08:45.8	269.320	0.240	-0.420	0.430
2020/01/31 00:08:45.9	269.310	0.250	-0.460	0.450
2020/01/31 00:08:46.0	269.290	0.250	-0.480	0.470
2020/01/31 00:08:46.1	269.280	0.260	-0.510	0.490
2020/01/31 00:08:46.2	269.260	0.260	-0.540	0.520
2020/01/31 00:08:46.3	269.240	0.260	-0.570	0.540
2020/01/31 00:08:46.4	269.220	0.260	-0.590	0.560
2020/01/31 00:08:46.5	269.200	0.260	-0.620	0.580
2020/01/31 00:08:46.6	269.180	0.260	-0.640	0.600
2020/01/31 00:08:46.7	269.160	0.260	-0.660	0.630
2020/01/31 00:08:46.8	269.130	0.260	-0.680	0.650
2020/01/31 00:08:46.9	269.110	0.260	-0.700	0.670
2020/01/31 00:08:47.0	269.070	0.250	-0.710	0.700
2020/01/31 00:08:47.1	269.040	0.250	-0.730	0.720
2020/01/31 00:08:47.2	269.010	0.240	-0.740	0.750
2020/01/31 00:08:47.3	268.970	0.230	-0.760	0.770
2020/01/31 00:08:47.4	268.930	0.230	-0.770	0.800
2020/01/31 00:08:47.5	268.890	0.220	-0.780	0.820
2020/01/31 00:08:47.6	268.850	0.210	-0.790	0.850
2020/01/31 00:08:47.7	268.810	0.200	-0.800	0.870
2020/01/31 00:08:47.8	268.760	0.190	-0.800	0.900
2020/01/31 00:08:47.9	268.730	0.180	-0.800	0.920
2020/01/31 00:08:48.0	268.680	0.170	-0.810	0.940
2020/01/31 00:08:48.1	268.640	0.150	-0.810	0.970
2020/01/31 00:08:48.2	268.590	0.140	-0.810	0.990
2020/01/31 00:08:48.3	268.540	0.130	-0.810	1.010
2020/01/31 00:08:48.4	268.490	0.120	-0.800	1.030
2020/01/31 00:08:48.5	268.440	0.100	-0.800	1.050
2020/01/31 00:08:48.6	268.400	0.090	-0.790	1.060
2020/01/31 00:08:48.7	268.350	0.080	-0.780	1.080
2020/01/31 00:08:48.8	268.300	0.070	-0.770	1.090
2020/01/31 00:08:48.9	268.250	0.050	-0.760	1.100
2020/01/31 00:08:49.0	268.210	0.040	-0.750	1.110
2020/01/31 00:08:49.1	268.170	0.020	-0.730	1.120
2020/01/31 00:08:49.2	268.120	0.010	-0.710	1.130
2020/01/31 00:08:49.3	268.070	-0.000	-0.690	1.130
2020/01/31 00:08:49.4	268.030	-0.020	-0.670	1.140
2020/01/31 00:08:49.5	267.980	-0.030	-0.650	1.140
2020/01/31 00:08:49.6	267.940	-0.040	-0.620	1.140
2020/01/31 00:08:49.7	267.890	-0.050	-0.590	1.150
2020/01/31 00:08:49.8	267.850	-0.070	-0.570	1.150
2020/01/31 00:08:49.9	267.820	-0.080	-0.540	1.140
2020/01/31 00:08:50.0	267.780	-0.090	-0.510	1.140
2020/01/31 00:08:50.1	267.740	-0.100	-0.480	1.140
2020/01/31 00:08:50.2	267.700	-0.110	-0.450	1.130
2020/01/31 00:08:50.3	267.670	-0.130	-0.420	1.130
2020/01/31 00:08:50.4	267.640	-0.140	-0.380	1.120
2020/01/31 00:08:50.5	267.610	-0.150	-0.350	1.110
2020/01/31 00:08:50.6	267.580	-0.150	-0.320	1.100
2020/01/31 00:08:50.7	267.560	-0.160	-0.290	1.080
2020/01/31 00:08:50.8	267.530	-0.170	-0.260	1.070
2020/01/31 00:08:50.9	267.510	-0.180	-0.230	1.050
2020/01/31 00:08:51.0	267.490	-0.190	-0.200	1.030
2020/01/31 00:08:51.1	267.480	-0.190	-0.170	1.020
2020/01/31 00:08:51.2	267.460	-0.200	-0.140	1.000
2020/01/31 00:08:51.3	267.450	-0.200	-0.120	0.980
2020/01/31 00:08:51.4	267.440	-0.210	-0.100	0.960
2020/01/31 00:08:51.5	267.440	-0.210	-0.070	0.940
2020/01/31 00:08:51.6	267.430	-0.210	-0.050	0.920
2020/01/31 00:08:51.7	267.430	-0.210	-0.030	0.890
2020/01/31 00:08:51.8	267.430	-0.210	-0.020	0.870
2020/01/31 00:08:51.9	267.440	-0.210	0.000	0.850
2020/01/31 00:08:52.0	267.440	-0.210	0.010	0.820
2020/01/31 00:08:52.1	267.450	-0.210	0.030	0.800
2020/01/31 00:08:52.2	267.460	-0.210	0.040	0.770
2020/01/31 00:08:52.3	267.480	-0.200	0.050	0.740
2020/01/31 00:08:52.4	267.490	-0.200	0.050	0.710
2020/01/31 00:08:52.5	267.510	-0.190	0.060	0.690
2020/01/31 00:08:52.6	267.540	-0.190	0.070	0.660
2020/01/31 00:08:52.7	267.560	-0.180	0.070	0.630
2020/01/31 00:08:52.8	267.590	-0.170	0.070	0.600
2020/01/31 00:08:52.9	267.620	-0.160	0.070	0.570
2020/01/31 00:08:53.0	267.650	-0.150	0.070	0.540
2020/01/31 00:08:53.1	267.690	-0.140	0.070	0.510
2020/01/31 00:08:53.2	267.730	-0.140	0.070	0.490
2020/01/31 00:08:53.3	267.760	-0.130	0.070	0.460
2020/01/31 00:08:53.4	267.800	-0.110	0.060	0.440
2020/01/31 00:08:53.5	267.840	-0.100	0.060	0.410
2020/01/31 00:08:53.6	267.880	-0.090	0.050	0.390
2020/01/31 00:08:53.7	267.930	-0.080	0.050	0.370
2020/01/31 00:08:53.8	267.970	-0.070	0.040	0.350
2020/01/31 00:08:53.9	268.030	-0.060	0.020	0.340
2020/01/31 00:08:54.0	268.070	-0.050	0.020	0.320
2020/01/31 00:08:54.1	268.110	-0.040	0.010	0.310
2020/01/31 00:08:54.2	268.160	-0.030	0.000	0.290
2020/01/31 00:08:54.3	268.200	-0.020	-0.010	0.280
2020/01/31 00:08:54.4	268.250	-0.010	-0.020	0.270
2020/01/31 00:08:54.5	268.300	-0.010	-0.030	0.260
2020/01/31 00:08:54.6	268.340	0.000	-0.040	0.260
2020/01/31 00:08:54.7	268.390	0.010	-0.050	0.250
2020/01/31 00:08:54.8	268.430	0.010	-0.060	0.240
2020/01/31 00:08:54.9	268.480	0.020	-0.070	0.240
2020/01/31 00:08:55.0	268.530	0.020	-0.080	0.240
2020/01/31 00:08:55.1	268.570	0.030	-0.090	0.240
2020/01/31 00:08:55.2	268.620	0.030	-0.100	0.240
2020/01/31 00:08:55.3	268.660	0.030	-0.110	0.240
2020/01/31 00:08:55.4	268.710	0.030	-0.130	0.240
2020/01/31 00:08:55.5	268.750	0.030	-0.140	0.240
2020/01/31 00:08:55.6	268.800	0.030	-0.150	0.240
2020/01/31 00:08:55.7	268.840	0.030	-0.170	0.240
2020/01/31 00:08:55.8	268.880	0.030	-0.180	0.250
2020/01/31 00:08:55.9	268.930	0.030	-0.200	0.250
2020/01/31 00:08:56.0	268.960	0.020	-0.220	0.250
2020/01/31 00:08:56.1	269.000	0.020	-0.230	0.250
2020/01/31 00:08:56.2	269.040	0.020	-0.250	0.260
2020/01/31 00:08:56.3	269.080	0.020	-0.270	0.260
2020/01/31 00:08:56.4	269.120	0.010	-0.280	0.260
2020/01/31 00:08:56.5	269.150	0.010	-0.300	0.270
2020/01/31 00:08:56.6	269.190	0.010	-0.310	0.270
2020/01/31 00:08:56.7	269.230	0.000	-0.330	0.280
2020/01/31 00:08:56.8	269.260	0.000	-0.350	0.290
2020/01/31 00:08:56.9	269.290	-0.000	-0.360	0.290
2020/01/31 00:08:57.0	269.310	-0.000	-0.380	0.300
2020/01/31 00:08:57.1	269.340	-0.000	-0.390	0.310
2020/01/31 00:08:57.2	269.370	-0.010	-0.410	0.320
2020/01/31 00:08:57.3	269.390	-0.010	-0.430	0.330
2020/01/31 00:08:57.4	269.410	-0.010	-0.440	0.340
2020/01/31 00:08:57.5	269.440	-0.010	-0.450	0.360
2020/01/31 00:08:57.6	269.460	-0.000	-0.470	0.370
2020/01/31 00:08:57.7	269.470	-0.000	-0.480	0.390
2020/01/31 00:08:57.8	269.490	0.000	-0.490	0.410
2020/01/31 00:08:57.9	269.500	0.000	-0.500	0.430
2020/01/31 00:08:58.0	269.510	0.010	-0.510	0.450
2020/01/31 00:08:58.1	269.520	0.010	-0.530	0.480
2020/01/31 00:08:58.2	269.530	0.020	-0.530	0.500
2020/01/31 00:08:58.3	269.540	0.020	-0.540	0.530
2020/01/31 00:08:58.4	269.540	0.030	-0.550	0.560
2020/01/31 00:08:58.5	269.540	0.030	-0.560	0.590
2020/01/31 00:08:58.6	269.540	0.040	-0.570	0.620
2020/01/31 00:08:58.7	269.530	0.050	-0.570	0.640
2020/01/31 00:08:58.8	269.530	0.050	-0.580	0.670
2020/01/31 00:08:58.9	269.520	0.060	-0.580	0.700
2020/01/31 00:08:59.0	269.510	0.070	-0.580	0.730
2020/01/31 00:08:59.1	269.500	0.070	-0.580	0.760
2020/01/31 00:08:59.2	269.490	0.080	-0.580	0.790
2020/01/31 00:08:59.3	269.470	0.080	-0.580	0.820
2020/01/31 00:08:59.4	269.450	0.090	-0.580	0.850
2020/01/31 00:08:59.5	269.430	0.090	-0.580	0.870
2020/01/31 00:08:59.6	269.410	0.090	-0.580	0.900
2020/01/31 00:08:59.7	269.380	0.100	-0.570	0.930
2020/01/31 00:08:59.8	269.350	0.100	-0.570	0.950
2020/01/31 00:08:59.9	269.320	0.100	-0.560	0.980
2020/01/31 00:09:00.0	269.280	0.100	-0.560	1.000
2020/01/31 00:09:00.1	269.250	0.100	-0.550	1.020
2020/01/31 00:09:00.2	269.210	0.100	-0.550	1.040
2020/01/31 00:09:00.3	269.180	0.090	-0.540	1.060
2020/01/31 00:09:00.4	269.140	0.090	-0.530	1.080
2020/01/31 00:09:00.5	269.100	0.090	-0.530	1.100
2020/01/31 00:09:00.6	269.050	0.080	-0.520	1.110
2020/01/31 00:09:00.7	269.010	0.070	-0.510	1.120
2020/01/31 00:09:00.8	268.970	0.070	-0.500	1.130
2020/01/31 00:09:00.9	268.920	0.060	-0.490	1.140
2020/01/31 00:09:01.0	268.880	0.050	-0.490	1.140
2020/01/31 00:09:01.1	268.830	0.040	-0.480	1.140
2020/01/31 00:09:01.2	268.790	0.030	-0.470	1.150
2020/01/31 00:09:01.3	268.740	0.020	-0.470	1.140
2020/01/31 00:09:01.4	268.700	0.010	-0.460	1.140
2020/01/31 00:09:01.5	268.650	-0.000	-0.450	1.130
2020/01/31 00:09:01.6	268.610	-0.020	-0.440	1.120
2020/01/31 00:09:01.7	268.570	-0.030	-0.440	1.110
2020/01/31 00:09:01.8	268.530	-0.040	-0.430	1.100
2020/01/31 00:09:01.9	268.490	-0.050	-0.430	1.090
2020/01/31 00:09:02.0	268.450	-0.060	-0.430	1.070
2020/01/31 00:09:02.1	268.410	-0.080	-0.420	1.050
2020/01/31 00:09:02.2	268.380	-0.090	-0.420	1.030
2020/01/31 00:09:02.3	268.340	-0.100	-0.420	1.010
2020/01/31 00:09:02.4	268.310	-0.110	-0.410	0.990
2020/01/31 00:09:02.5	268.280	-0.120	-0.410	0.970
2020/01/31 00:09:02.6	268.250	-0.120	-0.410	0.950
2020/01/31 00:09:02.7	268.220	-0.130	-0.410	0.930
2020/01/31 00:09:02.8	268.190	-0.140	-0.410	0.910
2020/01/31 00:09:02.9	268.170	-0.140	-0.410	0.880
2020/01/31 00:09:03.0	268.170	-0.140	-0.410	0.860
2020/01/31 00:09:03.1	268.150	-0.150	-0.410	0.840
2020/01/31 00:09:03.2	268.130	-0.150	-0.410	0.810
2020/01/31 00:09:03.3	268.110	-0.150	-0.410	0.790
2020/01/31 00:09:03.4	268.090	-0.150	-0.410	0.770
2020/01/31 00:09:03.5	268.080	-0.150	-0.410	0.740
2020/01/31 00:09:03.6	268.060	-0.140	-0.400	0.720
2020/01/31 00:09:03.7	268.050	-0.140	-0.400	0.690
2020/01/31 00:09:03.8	268.040	-0.140	-0.390	0.670
2020/01/31 00:09:03.9	268.040	-0.130	-0.390	0.650
2020/01/31 00:09:04.0	268.030	-0.120	-0.380	0.630
2020/01/31 00:09:04.1	268.020	-0.110	-0.370	0.600
2020/01/31 00:09:04.2	268.020	-0.110	-0.360	0.580
2020/01/31 00:09:04.3	268.020	-0.100	-0.350	0.560
2020/01/31 00:09:04.4	268.010	-0.090	-0.330	0.540
2020/01/31 00:09:04.5	268.010	-0.070	-0.320	0.520
2020/01/31 00:09:04.6	268.010	-0.060	-0.300	0.510
2020/01/31 00:09:04.7	268.010	-0.050	-0.280	0.490
2020/01/31 00:09:04.8	268.010	-0.040	-0.260	0.480
2020/01/31 00:09:04.9	268.010	-0.030	-0.240	0.460
2020/01/31 00:09:05.0	268.020	-0.020	-0.220	0.450
2020/01/31 00:09:05.1	268.020	-0.000	-0.200	0.440
2020/01/31 00:09:05.2	268.020	0.010	-0.180	0.430
2020/01/31 00:09:05.3	268.020	0.020	-0.150	0.430
2020/01/31 00:09:05.4	268.020	0.030	-0.130	0.420
2020/01/31 00:09:05.5	268.020	0.040	-0.110	0.420
2020/01/31 00:09:05.6	268.030	0.050	-0.080	0.420
2020/01/31 00:09:05.7	268.030	0.060	-0.060	0.420
2020/01/31 00:09:05.8	268.040	0.070	-0.040	0.420
2020/01/31 00:09:05.9	268.040	0.080	-0.010	0.420
2020/01/31 00:09:06.0	268.040	0.080	0.000	0.420
2020/01/31 00:09:06.1	268.050	0.090	0.020	0.430
2020/01/31 00:09:06.2	268.050	0.100	0.040	0.430
2020/01/31 00:09:06.3	268.060	0.100	0.060	0.440
2020/01/31 00:09:06.4	268.070	0.100	0.080	0.450
2020/01/31 00:09:06.5	268.070	0.110	0.090	0.460
2020/01/31 00:09:06.6	268.080	0.110	0.100	0.470
2020/01/31 00:09:06.7	268.080	0.110	0.110	0.480
2020/01/31 00:09:06.8	268.090	0.110	0.120	0.490
2020/01/31 00:09:06.9	268.100	0.110	0.130	0.500
2020/01/31 00:09:07.0	268.110	0.110	0.140	0.520
2020/01/31 00:09:07.1	268.110	0.110	0.140	0.530
2020/01/31 00:09:07.2	268.120	0.100	0.140	0.550
2020/01/31 00:09:07.3	268.120	0.100	0.140	0.560
2020/01/31 00:09:07.4	268.130	0.090	0.130	0.580
2020/01/31 00:09:07.5	268.130	0.090	0.120	0.600
2020/01/31 00:09:07.6	268.140	0.080	0.110	0.610
2020/01/31 00:09:07.7	268.140	0.080	0.100	0.630
2020/01/31 00:09:07.8	268.150	0.070	0.090	0.650
2020/01/31 00:09:07.9	268.150	0.060	0.070	0.670
2020/01/31 00:09:08.0	268.160	0.060	0.050	0.690
2020/01/31 00:09:08.1	268.170	0.050	0.030	0.710
2020/01/31 00:09:08.2	268.180	0.040	0.010	0.730
2020/01/31 00:09:08.3	268.180	0.030	-0.010	0.740
2020/01/31 00:09:08.4	268.190	0.030	-0.040	0.760
2020/01/31 00:09:08.5	268.200	0.020	-0.060	0.780
2020/01/31 00:09:08.6	268.210	0.010	-0.090	0.790
2020/01/31 00:09:08.7	268.230	0.000	-0.110	0.810
2020/01/31 00:09:08.8	268.240	-0.000	-0.140	0.820
2020/01/31 00:09:08.9	268.250	-0.010	-0.170	0.830
2020/01/31 00:09:09.0	268.270	-0.020	-0.190	0.840
2020/01/31 00:09:09.1	268.280	-0.020	-0.220	0.850
2020/01/31 00:09:09.2	268.300	-0.030	-0.240	0.860
2020/01/31 00:09:09.3	268.320	-0.040	-0.270	0.870
2020/01/31 00:09:09.4	268.330	-0.040	-0.290	0.880
2020/01/31 00:09:09.5	268.350	-0.050	-0.320	0.880
2020/01/31 00:09:09.6	268.370	-0.060	-0.340	0.890
2020/01/31 00:09:09.7	268.390	-0.060	-0.360	0.890
2020/01/31 00:09:09.8	268.400	-0.070	-0.380	0.890
2020/01/31 00:09:09.9	268.420	-0.070	-0.400	0.890
2020/01/31 00:09:10.0	268.450	-0.070	-0.410	0.890
2020/01/31 00:09:10.1	268.470	-0.080	-0.430	0.890
2020/01/31 00:09:10.2	268.490	-0.080	-0.440	0.890
2020/01/31 00:09:10.3	268.510	-0.090	-0.450	0.880
2020/01/31 00:09:10.4	268.530	-0.090	-0.460	0.870
2020/01/31 00:09:10.5	268.550	-0.090	-0.470	0.860
2020/01/31 00:09:10.6	268.570	-0.090	-0.480	0.850
2020/01/31 00:09:10.7	268.590	-0.100	-0.490	0.840
2020/01/31 00:09:10.8	268.610	-0.100	-0.490	0.830
2020/01/31 00:09:10.9	268.620	-0.100	-0.490	0.820
2020/01/31 00:09:11.0	268.640	-0.100	-0.500	0.810
2020/01/31 00:09:11.1	268.660	-0.100	-0.500	0.790
2020/01/31 00:09:11.2	268.680	-0.100	-0.500	0.780
2020/01/31 00:09:11.3	268.700	-0.100	-0.500	0.770
2020/01/31 00:09:11.4	268.710	-0.090	-0.500	0.760
2020/01/31 00:09:11.5	268.730	-0.090	-0.500	0.740
2020/01/31 00:09:11.6	268.740	-0.090	-0.500	0.730
2020/01/31 00:09:11.7	268.760	-0.080	-0.500	0.720
2020/01/31 00:09:11.8	268.770	-0.080	-0.500	0.710
2020/01/31 00:09:11.9	268.770	-0.070	-0.490	0.690
2020/01/31 00:09:12.0	268.780	-0.070	-0.490	0.680
2020/01/31 00:09:12.1	268.790	-0.060	-0.490	0.670
2020/01/31 00:09:12.2	268.800	-0.050	-0.490	0.660
2020/01/31 00:09:12.3	268.810	-0.050	-0.480	0.650
2020/01/31 00:09:12.4	268.820	-0.040	-0.480	0.640
2020/01/31 00:09:12.5	268.830	-0.030	-0.480	0.630
2020/01/31 00:09:12.6	268.830	-0.020	-0.470	0.620
2020/01/31 00:09:12.7	268.840	-0.010	-0.470	0.610
2020/01/31 00:09:12.8	268.840	-0.000	-0.470	0.590
2020/01/31 00:09:12.9	268.840	0.000	-0.460	0.580
2020/01/31 00:09:13.0	268.850	0.010	-0.450	0.570
2020/01/31 00:09:13.1	268.850	0.020	-0.450	0.560
2020/01/31 00:09:13.2	268.850	0.030	-0.440	0.550
2020/01/31 00:09:13.3	268.850	0.040	-0.430	0.540
2020/01/31 00:09:13.4	268.850	0.040	-0.420	0.530
2020/01/31 00:09:13.5	268.850	0.050	-0.410	0.530
2020/01/31 00:09:13.6	268.850	0.060	-0.400	0.520
2020/01/31 00:09:13.7	268.850	0.060	-0.390	0.510
2020/01/31 00:09:13.8	268.850	0.070	-0.380	0.500
2020/01/31 00:09:13.9	268.840	0.070	-0.370	0.490
2020/01/31 00:09:14.0	268.840	0.080	-0.360	0.490
2020/01/31 00:09:14.1	268.830	0.080	-0.350	0.480
2020/01/31 00:09:14.2	268.830	0.080	-0.340	0.480
2020/01/31 00:09:14.3	268.820	0.080	-0.330	0.470
2020/01/31 00:09:14.4	268.810	0.080	-0.320	0.470
2020/01/31 00:09:14.5	268.800	0.080	-0.310	0.470
2020/01/31 00:09:14.6	268.790	0.080	-0.300	0.470
2020/01/31 00:09:14.7	268.780	0.080	-0.290	0.470
2020/01/31 00:09:14.8	268.770	0.070	-0.280	0.470
2020/01/31 00:09:14.9	268.750	0.070	-0.280	0.470
2020/01/31 00:09:15.0	268.730	0.070	-0.270	0.480
2020/01/31 00:09:15.1	268.720	0.060	-0.270	0.480
2020/01/31 00:09:15.2	268.700	0.060	-0.270	0.480
2020/01/31 00:09:15.3	268.680	0.050	-0.270	0.490
2020/01/31 00:09:15.4	268.660	0.040	-0.270	0.500
2020/01/31 00:09:15.5	268.640	0.040	-0.270	0.500
2020/01/31 00:09:15.6	268.620	0.030	-0.270	0.510
2020/01/31 00:09:15.7	268.590	0.020	-0.270	0.520
2020/01/31 00:09:15.8	268.570	0.020	-0.280	0.530
2020/01/31 00:09:15.9	268.540	0.010	-0.280	0.540
2020/01/31 00:09:16.0	268.510	0.000	-0.290	0.560
2020/01/31 00:09:16.1	268.490	-0.000	-0.300	0.570
2020/01/31 00:09:16.2	268.460	-0.010	-0.310	0.580
2020/01/31 00:09:16.3	268.430	-0.010	-0.310	0.600
2020/01/31 00:09:16.4	268.400	-0.020	-0.320	0.620
2020/01/31 00:09:16.5	268.380	-0.030	-0.330	0.630
2020/01/31 00:09:16.6	268.350	-0.030	-0.340	0.650
2020/01/31 00:09:16.7	268.320	-0.030	-0.350	0.670
2020/01/31 00:09:16.8	268.290	-0.040	-0.360	0.690
2020/01/31 00:09:16.9	268.260	-0.040	-0.370	0.720
2020/01/31 00:09:17.0	268.230	-0.040	-0.380	0.740
2020/01/31 00:09:17.1	268.200	-0.040	-0.390	0.760
2020/01/31 00:09:17.2	268.170	-0.040	-0.390	0.780
2020/01/31 00:09:17.3	268.140	-0.040	-0.400	0.810
2020/01/31 00:09:17.4	268.110	-0.030	-0.410	0.840
2020/01/31 00:09:17.5	268.090	-0.030	-0.420	0.860
2020/01/31 00:09:17.6	268.060	-0.030	-0.430	0.890
2020/01/31 00:09:17.7	268.040	-0.020	-0.440	0.910
2020/01/31 00:09:17.8	268.010	-0.010	-0.440	0.940
2020/01/31 00:09:17.9	267.990	-0.010	-0.450	0.960
2020/01/31 00:09:18.0	267.970	0.000	-0.460	0.990
2020/01/31 00:09:18.1	267.950	0.010	-0.470	1.010
2020/01/31 00:09:18.2	267.930	0.020	-0.470	1.030
2020/01/31 00:09:18.3	267.910	0.030	-0.480	1.050
2020/01/31 00:09:18.4	267.890	0.040	-0.490	1.070
2020/01/31 00:09:18.5	267.870	0.050	-0.490	1.090
2020/01/31 00:09:18.6	267.860	0.060	-0.500	1.110
2020/01/31 00:09:18.7	267.840	0.070	-0.500	1.120
2020/01/31 00:09:18.8	267.830	0.090	-0.510	1.140
2020/01/31 00:09:18.9	267.810	0.100	-0.510	1.150
2020/01/31 00:09:19.0	267.800	0.110	-0.510	1.160
2020/01/31 00:09:19.1	267.780	0.120	-0.520	1.170
2020/01/31 00:09:19.2	267.770	0.120	-0.520	1.180
2020/01/31 00:09:19.3	267.770	0.130	-0.520	1.190
2020/01/31 00:09:19.4	267.760	0.140	-0.520	1.200
2020/01/31 00:09:19.5	267.750	0.150	-0.530	1.210
2020/01/31 00:09:19.6	267.740	0.150	-0.530	1.210
2020/01/31 00:09:19.7	267.740	0.150	-0.530	1.220
2020/01/31 00:09:19.8	267.730	0.160	-0.530	1.230
2020/01/31 00:09:19.9	267.740	0.160	-0.530	1.230
2020/01/31 00:09:20.0	267.730	0.160	-0.530	1.240
2020/01/31 00:09:20.1	267.730	0.150	-0.530	1.240
2020/01/31 00:09:20.2	267.730	0.150	-0.520	1.250
2020/01/31 00:09:20.3	267.720	0.140	-0.520	1.250
2020/01/31 00:09:20.4	267.720	0.130	-0.510	1.260
2020/01/31 00:09:20.5	267.720	0.120	-0.500	1.260
2020/01/31 00:09:20.6	267.720	0.110	-0.490	1.270
2020/01/31 00:09:20.7	267.720	0.100	-0.480	1.280
2020/01/31 00:09:20.8	267.720	0.080	-0.470	1.280
2020/01/31 00:09:20.9	267.720	0.070	-0.450	1.290
2020/01/31 00:09:21.0	267.720	0.050	-0.430	1.300
2020/01/31 00:09:21.1	267.720	0.030	-0.410	1.300
2020/01/31 00:09:21.2	267.720	0.010	-0.390	1.310
2020/01/31 00:09:21.3	267.720	-0.010	-0.370	1.310
2020/01/31 00:09:21.4	267.720	-0.040	-0.340	1.320
2020/01/31 00:09:21.5	267.720	-0.060	-0.310	1.320
2020/01/31 00:09:21.6	267.720	-0.090	-0.290	1.330
2020/01/31 00:09:21.7	267.720	-0.120	-0.260	1.330
2020/01/31 00:09:21.8	267.720	-0.140	-0.230	1.330
2020/01/31 00:09:21.9	267.730	-0.170	-0.190	1.330
2020/01/31 00:09:22.0	267.730	-0.200	-0.160	1.330
2020/01/31 00:09:22.1	267.730	-0.220	-0.130	1.330
2020/01/31 00:09:22.2	267.730	-0.250	-0.100	1.330
2020/01/31 00:09:22.3	267.730	-0.280	-0.070	1.330
2020/01/31 00:09:22.4	267.740	-0.300	-0.040	1.320
2020/01/31 00:09:22.5	267.740	-0.330	-0.010	1.310
2020/01/31 00:09:22.6	267.750	-0.350	0.020	1.300
2020/01/31 00:09:22.7	267.760	-0.380	0.040	1.290
2020/01/31 00:09:22.8	267.760	-0.400	0.070	1.280
2020/01/31 00:09:22.9	267.770	-0.420	0.090	1.260
2020/01/31 00:09:23.0	267.780	-0.440	0.110	1.240
2020/01/31 00:09:23.1	267.790	-0.450	0.130	1.220
2020/01/31 00:09:23.2	267.800	-0.470	0.150	1.200
2020/01/31 00:09:23.3	267.820	-0.480	0.160	1.180
2020/01/31 00:09:23.4	267.830	-0.490	0.170	1.150
2020/01/31 00:09:23.5	267.850	-0.500	0.180	1.120
2020/01/31 00:09:23.6	267.870	-0.510	0.190	1.090
2020/01/31 00:09:23.7	267.890	-0.510	0.190	1.060
2020/01/31 00:09:23.8	267.910	-0.520	0.200	1.030
2020/01/31 00:09:23.9	267.940	-0.510	0.200	0.990
2020/01/31 00:09:24.0	267.960	-0.510	0.200	0.950
2020/01/31 00:09:24.1	267.990	-0.510	0.190	0.920
2020/01/31 00:09:24.2	268.020	-0.500	0.190	0.880
2020/01/31 00:09:24.3	268.050	-0.490	0.180	0.840
2020/01/31 00:09:24.4	268.070	-0.480	0.170	0.800
2020/01/31 00:09:24.5	268.110	-0.470	0.160	0.760
2020/01/31 00:09:24.6	268.140	-0.450	0.150	0.720
2020/01/31 00:09:24.7	268.170	-0.430	0.140	0.680
2020/01/31 00:09:24.8	268.200	-0.410	0.130	0.640
2020/01/31 00:09:24.9	268.220	-0.390	0.120	0.600
2020/01/31 00:09:25.0	268.250	-0.370	0.100	0.560
2020/01/31 00:09:25.1	268.280	-0.340	0.090	0.520
2020/01/31 00:09:25.2	268.320	-0.320	0.070	0.480
2020/01/31 00:09:25.3	268.350	-0.290	0.060	0.440
2020/01/31 00:09:25.4	268.390	-0.260	0.050	0.410
2020/01/31 00:09:25.5	268.420	-0.230	0.030	0.370
2020/01/31 00:09:25.6	268.460	-0.200	0.020	0.340
2020/01/31 00:09:25.7	268.490	-0.170	0.000	0.300
2020/01/31 00:09:25.8	268.520	-0.140	-0.010	0.270
2020/01/31 00:09:25.9	268.570	-0.100	-0.030	0.240
2020/01/31 00:09:26.0	268.600	-0.070	-0.040	0.210
2020/01/31 00:09:26.1	268.640	-0.040	-0.050	0.180
2020/01/31 00:09:26.2	268.670	-0.000	-0.070	0.150
2020/01/31 00:09:26.3	268.700	0.030	-0.080	0.130
2020/01/31 00:09:26.4	268.740	0.060	-0.100	0.100
2020/01/31 00:09:26.5	268.770	0.100	-0.110	0.080
2020/01/31 00:09:26.6	268.800	0.130	-0.130	0.060
2020/01/31 00:09:26.7	268.830	0.160	-0.150	0.050
2020/01/31 00:09:26.8	268.860	0.190	-0.160	0.030
2020/01/31 00:09:26.9	268.890	0.230	-0.180	0.020
2020/01/31 00:09:27.0	268.910	0.260	-0.200	0.010
2020/01/31 00:09:27.1	268.930	0.290	-0.220	0.010
2020/01/31 00:09:27.2	268.960	0.320	-0.240	0.010
2020/01/31 00:09:27.3	268.980	0.340	-0.260	0.010
2020/01/31 00:09:27.4	269.000	0.370	-0.280	0.010
2020/01/31 00:09:27.5	269.020	0.400	-0.310	0.020
2020/01/31 00:09:27.6	269.030	0.420	-0.330	0.030
2020/01/31 00:09:27.7	269.050	0.440	-0.360	0.040
2020/01/31 00:09:27.8	269.060	0.470	-0.390	0.060
2020/01/31 00:09:27.9	269.060	0.490	-0.410	0.070
2020/01/31 00:09:28.0	269.070	0.510	-0.440	0.100
2020/01/31 00:09:28.1	269.080	0.520	-0.470	0.120
2020/01/31 00:09:28.2	269.080	0.540	-0.500	0.150
2020/01/31 00:09:28.3	269.080	0.560	-0.530	0.180
2020/01/31 00:09:28.4	269.080	0.570	-0.560	0.210
2020/01/31 00:09:28.5	269.080	0.580	-0.590	0.240
2020/01/31 00:09:28.6	269.080	0.590	-0.610	0.270
2020/01/31 00:09:28.7	269.080	0.600	-0.640	0.310
2020/01/31 00:09:28.8	269.070	0.610	-0.670	0.340
2020/01/31 00:09:28.9	269.070	0.610	-0.700	0.370
2020/01/31 00:09:29.0	269.060	0.620	-0.720	0.400
2020/01/31 00:09:29.1	269.050	0.620	-0.740	0.430
2020/01/31 00:09:29.2	269.040	0.620	-0.770	0.470
2020/01/31 00:09:29.3	269.030	0.620	-0.790	0.500
2020/01/31 00:09:29.4	269.020	0.610	-0.800	0.530
2020/01/31 00:09:29.5	269.010	0.610	-0.820	0.560
2020/01/31 00:09:29.6	268.990	0.600	-0.830	0.590
2020/01/31 00:09:29.7	268.980	0.590	-0.850	0.620
2020/01/31 00:09:29.8	268.960	0.580	-0.860	0.640
2020/01/31 00:09:29.9	268.940	0.570	-0.870	0.670
2020/01/31 00:09:30.0	268.920	0.560	-0.870	0.690
2020/01/31 00:09:30.1	268.900	0.550	-0.880	0.710
2020/01/31 00:09:30.2	268.880	0.530	-0.880	0.730
2020/01/31 00:09:30.3	268.860	0.510	-0.880	0.750
2020/01/31 00:09:30.4	268.840	0.500	-0.880	0.760
2020/01/31 00:09:30.5	268.810	0.480	-0.870	0.780
2020/01/31 00:09:30.6	268.790	0.460	-0.870	0.790
2020/01/31 00:09:30.7	268.760	0.430	-0.860	0.800
2020/01/31 00:09:30.8	268.730	0.410	-0.850	0.810
2020/01/31 00:09:30.9	268.700	0.390	-0.840	0.810
2020/01/31 00:09:31.0	268.670	0.360	-0.830	0.810
2020/01/31 00:09:31.1	268.640	0.340	-0.820	0.820
2020/01/31 00:09:31.2	268.610	0.310	-0.810	0.820
2020/01/31 00:09:31.3	268.580	0.280	-0.790	0.820
2020/01/31 00:09:31.4	268.540	0.260	-0.780	0.820
2020/01/31 00:09:31.5	268.510	0.230	-0.760	0.810
2020/01/31 00:09:31.6	268.480	0.200	-0.750	0.810
2020/01/31 00:09:31.7	268.440	0.170	-0.730	0.800
2020/01/31 00:09:31.8	268.410	0.140	-0.710	0.790
2020/01/31 00:09:31.9	268.370	0.110	-0.700	0.780
2020/01/31 00:09:32.0	268.340	0.080	-0.680	0.770
2020/01/31 00:09:32.1	268.310	0.050	-0.660	0.760
2020/01/31 00:09:32.2	268.270	0.020	-0.640	0.750
2020/01/31 00:09:32.3	268.240	-0.010	-0.620	0.740
2020/01/31 00:09:32.4	268.210	-0.050	-0.600	0.730
2020/01/31 00:09:32.5	268.170	-0.080	-0.580	0.720
2020/01/31 00:09:32.6	268.140	-0.110	-0.550	0.700
2020/01/31 00:09:32.7	268.110	-0.140	-0.530	0.690
2020/01/31 00:09:32.8	268.080	-0.170	-0.510	0.680
2020/01/31 00:09:32.9	268.050	-0.200	-0.490	0.670
2020/01/31 00:09:33.0	268.020	-0.230	-0.460	0.650
2020/01/31 00:09:33.1	267.990	-0.260	-0.440	0.640
2020/01/31 00:09:33.2	267.970	-0.290	-0.420	0.630
2020/01/31 00:09:33.3	267.940	-0.310	-0.390	0.610
2020/01/31 00:09:33.4	267.910	-0.340	-0.370	0.600
2020/01/31 00:09:33.5	267.890	-0.370	-0.340	0.590
2020/01/31 00:09:33.6	267.870	-0.390	-0.320	0.570
2020/01/31 00:09:33.7	267.850	-0.420	-0.290	0.560
2020/01/31 00:09:33.8	267.830	-0.440	-0.270	0.540
2020/01/31 00:09:33.9	267.810	-0.460	-0.240	0.530
2020/01/31 00:09:34.0	267.790	-0.490	-0.220	0.520
2020/01/31 00:09:34.1	267.780	-0.510	-0.190	0.500
2020/01/31 00:09:34.2	267.760	-0.520	-0.170	0.490
2020/01/31 00:09:34.3	267.750	-0.540	-0.140	0.470
2020/01/31 00:09:34.4	267.740	-0.560	-0.120	0.460
2020/01/31 00:09:34.5	267.730	-0.570	-0.100	0.440
2020/01/31 00:09:34.6	267.730	-0.590	-0.070	0.420
2020/01/31 00:09:34.7	267.720	-0.600	-0.050	0.400
2020/01/31 00:09:34.8	267.720	-0.610	-0.030	0.390
2020/01/31 00:09:34.9	267.720	-0.610	-0.010	0.360
2020/01/31 00:09:35.0	267.720	-0.620	0.010	0.350
2020/01/31 00:09:35.1	267.730	-0.630	0.040	0.330
2020/01/31 00:09:35.2	267.730	-0.630	0.060	0.310
2020/01/31 00:09:35.3	267.740	-0.630	0.080	0.290
2020/01/31 00:09:35.4	267.750	-0.630	0.100	0.270
2020/01/31 00:09:35.5	267.770	-0.630	0.120	0.250
2020/01/31 00:09:35.6	267.780	-0.630	0.140	0.240
2020/01/31 00:09:35.7	267.800	-0.620	0.160	0.220
2020/01/31 00:09:35.8	267.820	-0.620	0.180	0.200
2020/01/31 00:09:35.9	267.850	-0.610	0.190	0.190
2020/01/31 00:09:36.0	267.870	-0.600	0.210	0.170
2020/01/31 00:09:36.1	267.900	-0.600	0.230	0.160
2020/01/31 00:09:36.2	267.920	-0.580	0.240	0.140
2020/01/31 00:09:36.3	267.950	-0.570	0.250	0.130
2020/01/31 00:09:36.4	267.980	-0.560	0.270	0.110
2020/01/31 00:09:36.5	268.010	-0.550	0.280	0.100
2020/01/31 00:09:36.6	268.050	-0.530	0.290	0.090
2020/01/31 00:09:36.7	268.080	-0.510	0.290	0.080
2020/01/31 00:09:36.8	268.120	-0.500	0.300	0.070
2020/01/31 00:09:36.9	268.160	-0.480	0.300	0.060
2020/01/31 00:09:37.0	268.200	-0.460	0.310	0.050
2020/01/31 00:09:37.1	268.240	-0.440	0.310	0.040
2020/01/31 00:09:37.2	268.280	-0.420	0.310	0.040
2020/01/31 00:09:37.3	268.320	-0.400	0.310	0.030
2020/01/31 00:09:37.4	268.360	-0.380	0.300	0.030
2020/01/31 00:09:37.5	268.410	-0.350	0.300	0.030
2020/01/31 00:09:37.6	268.450	-0.330	0.290	0.040
2020/01/31 00:09:37.7	268.500	-0.300	0.280	0.040
2020/01/31 00:09:37.8	268.540	-0.280	0.270	0.050
2020/01/31 00:09:37.9	268.580	-0.250	0.250	0.050
2020/01/31 00:09:38.0	268.630	-0.230	0.230	0.060
2020/01/31 00:09:38.1	268.670	-0.200	0.220	0.080
2020/01/31 00:09:38.2	268.710	-0.180	0.200	0.090
2020/01/31 00:09:38.3	268.760	-0.150	0.170	0.100
2020/01/31 00:09:38.4	268.800	-0.120	0.150	0.120
2020/01/31 00:09:38.5	268.840	-0.090	0.120	0.140
2020/01/31 00:09:38.6	268.880	-0.070	0.090	0.160
2020/01/31 00:09:38.7	268.910	-0.040	0.060	0.180
2020/01/31 00:09:38.8	268.950	-0.010	0.030	0.210
2020/01/31 00:09:38.9	268.990	0.020	0.010	0.240
2020/01/31 00:09:39.0	269.020	0.040	-0.030	0.270
2020/01/31 00:09:39.1	269.050	0.070	-0.060	0.300
2020/01/31 00:09:39.2	269.080	0.100	-0.100	0.330
2020/01/31 00:09:39.3	269.100	0.120	-0.140	0.370
2020/01/31 00:09:39.4	269.130	0.150	-0.180	0.400
2020/01/31 00:09:39.5	269.150	0.170	-0.220	0.440
2020/01/31 00:09:39.6	269.170	0.200	-0.250	0.480
2020/01/31 00:09:39.7	269.190	0.220	-0.290	0.510
2020/01/31 00:09:39.8	269.200	0.240	-0.330	0.550
2020/01/31 00:09:39.9	269.210	0.260	-0.370	0.590
2020/01/31 00:09:40.0	269.230	0.280	-0.410	0.620
2020/01/31 00:09:40.1	269.240	0.300	-0.450	0.660
2020/01/31 00:09:40.2	269.240	0.320	-0.480	0.690
2020/01/31 00:09:40.3	269.240	0.340	-0.520	0.730
2020/01/31 00:09:40.4	269.240	0.350	-0.560	0.760
2020/01/31 00:09:40.5	269.230	0.370	-0.590	0.800
2020/01/31 00:09:40.6	269.230	0.380	-0.630	0.830
2020/01/31 00:09:40.7	269.220	0.390	-0.660	0.870
2020/01/31 00:09:40.8	269.210	0.400	-0.690	0.900
2020/01/31 00:09:40.9	269.200	0.410	-0.720	0.940
2020/01/31 00:09:41.0	269.180	0.420	-0.750	0.970
2020/01/31 00:09:41.1	269.160	0.420	-0.780	1.000
2020/01/31 00:09:41.2	269.140	0.430	-0.800	1.030
2020/01/31 00:09:41.3	269.120	0.430	-0.820	1.070
2020/01/31 00:09:41.4	269.100	0.440	-0.840	1.100
2020/01/31 00:09:41.5	269.070	0.440	-0.850	1.130
2020/01/31 00:09:41.6	269.040	0.440	-0.860	1.160
2020/01/31 00:09:41.7	269.010	0.440	-0.870	1.190
2020/01/31 00:09:41.8	268.980	0.430	-0.880	1.220
2020/01/31 00:09:41.9	268.950	0.430	-0.880	1.250
2020/01/31 00:09:42.0	268.920	0.420	-0.880	1.280
2020/01/31 00:09:42.1	268.880	0.420	-0.880	1.300
2020/01/31 00:09:42.2	268.840	0.410	-0.880	1.330
2020/01/31 00:09:42.3	268.800	0.410	-0.870	1.360
2020/01/31 00:09:42.4	268.760	0.400	-0.870	1.380
2020/01/31 00:09:42.5	268.720	0.390	-0.860	1.400
2020/01/31 00:09:42.6	268.680	0.380	-0.850	1.420
2020/01/31 00:09:42.7	268.640	0.370	-0.830	1.440
2020/01/31 00:09:42.8	268.600	0.360	-0.820	1.460
2020/01/31 00:09:42.9	268.550	0.350	-0.800	1.470
2020/01/31 00:09:43.0	268.500	0.340	-0.780	1.480
2020/01/31 00:09:43.1	268.460	0.320	-0.760	1.490
2020/01/31 00:09:43.2	268.420	0.310	-0.740	1.500
2020/01/31 00:09:43.3	268.380	0.300	-0.720	1.500
2020/01/31 00:09:43.4	268.340	0.290	-0.700	1.500
2020/01/31 00:09:43.5	268.300	0.280	-0.670	1.500
2020/01/31 00:09:43.6	268.260	0.260	-0.640	1.490
2020/01/31 00:09:43.7	268.220	0.250	-0.620	1.480
2020/01/31 00:09:43.8	268.180	0.240	-0.590	1.470
2020/01/31 00:09:43.9	268.150	0.230	-0.560	1.460
2020/01/31 00:09:44.0	268.090	0.220	-0.520	1.440
2020/01/31 00:09:44.1	268.050	0.210	-0.490	1.430
2020/01/31 00:09:44.2	268.020	0.200	-0.460	1.410
2020/01/31 00:09:44.3	267.990	0.190	-0.430	1.390
2020/01/31 00:09:44.4	267.960	0.170	-0.400	1.370
2020/01/31 00:09:44.5	267.930	0.160	-0.370	1.350
2020/01/31 00:09:44.6	267.910	0.150	-0.340	1.320
2020/01/31 00:09:44.7	267.880	0.140	-0.310	1.300
2020/01/31 00:09:44.8	267.860	0.140	-0.280	1.270
2020/01/31 00:09:44.9	267.840	0.130	-0.250	1.240
2020/01/31 00:09:45.0	267.820	0.120	-0.220	1.210
2020/01/31 00:09:45.1	267.800	0.110	-0.190	1.180
2020/01/31 00:09:45.2	267.790	0.100	-0.170	1.150
2020/01/31 00:09:45.3	267.770	0.090	-0.150	1.120
2020/01/31 00:09:45.4	267.760	0.090	-0.120	1.090
2020/01/31 00:09:45.5	267.750	0.080	-0.100	1.060
2020/01/31 00:09:45.6	267.740	0.070	-0.090	1.030
2020/01/31 00:09:45.7	267.730	0.060	-0.070	1.000
2020/01/31 00:09:45.8	267.720	0.060	-0.060	0.980
2020/01/31 00:09:45.9	267.720	0.050	-0.040	0.950
2020/01/31 00:09:46.0	267.720	0.050	-0.030	0.930
2020/01/31 00:09:46.1	267.710	0.040	-0.020	0.900
2020/01/31 00:09:46.2	267.710	0.030	-0.010	0.880
2020/01/31 00:09:46.3	267.710	0.030	-0.010	0.850
2020/01/31 00:09:46.4	267.710	0.020	-0.000	0.830
2020/01/31 00:09:46.5	267.710	0.020	0.000	0.800
2020/01/31 00:09:46.6	267.720	0.010	0.000	0.780
2020/01/31 00:09:46.7	267.720	0.010	0.010	0.760
2020/01/31 00:09:46.8	267.720	0.010	0.010	0.740
2020/01/31 00:09:46.9	267.730	0.000	0.010	0.710
2020/01/31 00:09:47.0	267.740	-0.000	0.010	0.690
2020/01/31 00:09:47.1	267.750	-0.010	0.010	0.670
2020/01/31 00:09:47.2	267.760	-0.010	0.010	0.650
2020/01/31 00:09:47.3	267.770	-0.020	0.010	0.630
2020/01/31 00:09:47.4	267.780	-0.020	0.010	0.610
2020/01/31 00:09:47.5	267.800	-0.030	0.010	0.590
2020/01/31 00:09:47.6	267.820	-0.040	0.010	0.560
2020/01/31 00:09:47.7	267.840	-0.040	0.010	0.540
2020/01/31 00:09:47.8	267.860	-0.050	0.010	0.510
2020/01/31 00:09:47.9	267.880	-0.050	0.020	0.490
2020/01/31 00:09:48.0	267.900	-0.060	0.010	0.460
2020/01/31 00:09:48.1	267.930	-0.070	0.020	0.430
2020/01/31 00:09:48.2	267.960	-0.070	0.020	0.410
2020/01/31 00:09:48.3	267.990	-0.080	0.020	0.380
2020/01/31 00:09:48.4	268.030	-0.090	0.030	0.350
2020/01/31 00:09:48.5	268.060	-0.090	0.030	0.320
2020/01/31 00:09:48.6	268.100	-0.100	0.030	0.280
2020/01/31 00:09:48.7	268.130	-0.110	0.030	0.250
2020/01/31 00:09:48.8	268.170	-0.110	0.030	0.220
2020/01/31 00:09:48.9	268.220	-0.120	0.040	0.190
2020/01/31 00:09:49.0	268.260	-0.130	0.040	0.160
2020/01/31 00:09:49.1	268.300	-0.130	0.040	0.130
2020/01/31 00:09:49.2	268.340	-0.140	0.030	0.100
2020/01/31 00:09:49.3	268.390	-0.140	0.030	0.070
2020/01/31 00:09:49.4	268.430	-0.150	0.020	0.050
2020/01/31 00:09:49.5	268.470	-0.150	0.020	0.020
2020/01/31 00:09:49.6	268.520	-0.150	0.010	-0.010
2020/01/31 00:09:49.7	268.560	-0.150	-0.000	-0.040
2020/01/31 00:09:49.8	268.610	-0.160	-0.010	-0.060
2020/01/31 00:09:49.9	268.660	-0.160	-0.030	-0.080
2020/01/31 00:09:50.0	268.710	-0.160	-0.050	-0.110
2020/01/31 00:09:50.1	268.760	-0.150	-0.060	-0.130
2020/01/31 00:09:50.2	268.800	-0.150	-0.080	-0.150
2020/01/31 00:09:50.3	268.850	-0.150	-0.100	-0.170
2020/01/31 00:09:50.4	268.890	-0.150	-0.120	-0.190
2020/01/31 00:09:50.5	268.940	-0.140	-0.140	-0.210
2020/01/31 00:09:50.6	268.980	-0.140	-0.170	-0.220
2020/01/31 00:09:50.7	269.020	-0.130	-0.190	-0.240
2020/01/31 00:09:50.8	269.060	-0.130	-0.220	-0.250
2020/01/31 00:09:50.9	269.100	-0.120	-0.240	-0.260
2020/01/31 00:09:51.0	269.140	-0.110	-0.260	-0.270
2020/01/31 00:09:51.1	269.170	-0.100	-0.290	-0.270
2020/01/31 00:09:51.2	269.210	-0.100	-0.320	-0.270
2020/01/31 00:09:51.3	269.240	-0.090	-0.350	-0.270
2020/01/31 00:09:51.4	269.270	-0.080	-0.380	-0.260
2020/01/31 00:09:51.5	269.300	-0.070	-0.410	-0.260
2020/01/31 00:09:51.6	269.320	-0.060	-0.450	-0.240
2020/01/31 00:09:51.7	269.350	-0.050	-0.480	-0.230
2020/01/31 00:09:51.8	269.370	-0.040	-0.510	-0.210
2020/01/31 00:09:51.9	269.380	-0.040	-0.550	-0.190
2020/01/31 00:09:52.0	269.390	-0.030	-0.590	-0.160
2020/01/31 00:09:52.1	269.400	-0.020	-0.620	-0.140
2020/01/31 00:09:52.2	269.410	-0.010	-0.650	-0.100
2020/01/31 00:09:52.3	269.420	-0.000	-0.690	-0.070
2020/01/31 00:09:52.4	269.420	0.010	-0.720	-0.030
2020/01/31 00:09:52.5	269.420	0.010	-0.760	0.010
2020/01/31 00:09:52.6	269.410	0.020	-0.790	0.050
2020/01/31 00:09:52.7	269.400	0.020	-0.820	0.100
2020/01/31 00:09:52.8	269.390	0.030	-0.850	0.140
2020/01/31 00:09:52.9	269.380	0.030	-0.880	0.190
2020/01/31 00:09:53.0	269.360	0.040	-0.910	0.240
2020/01/31 00:09:53.1	269.340	0.040	-0.940	0.290
2020/01/31 00:09:53.2	269.320	0.040	-0.960	0.350
2020/01/31 00:09:53.3	269.300	0.050	-0.990	0.400
2020/01/31 00:09:53.4	269.270	0.050	-1.010	0.450
2020/01/31 00:09:53.5	269.240	0.050	-1.030	0.510
2020/01/31 00:09:53.6	269.220	0.050	-1.050	0.560
2020/01/31 00:09:53.7	269.180	0.050	-1.060	0.620
2020/01/31 00:09:53.8	269.150	0.040	-1.070	0.680
2020/01/31 00:09:53.9	269.120	0.040	-1.080	0.730
2020/01/31 00:09:54.0	269.090	0.040	-1.090	0.790
2020/01/31 00:09:54.1	269.050	0.030	-1.090	0.840
2020/01/31 00:09:54.2	269.020	0.030	-1.090	0.900
2020/01/31 00:09:54.3	268.980	0.020	-1.090	0.950
2020/01/31 00:09:54.4	268.940	0.010	-1.080	1.000
2020/01/31 00:09:54.5	268.900	0.000	-1.070	1.050
2020/01/31 00:09:54.6	268.860	-0.000	-1.050	1.090
2020/01/31 00:09:54.7	268.820	-0.010	-1.030	1.140
2020/01/31 00:09:54.8	268.780	-0.020	-1.010	1.180
2020/01/31 00:09:54.9	268.740	-0.030	-0.980	1.220
2020/01/31 00:09:55.0	268.710	-0.040	-0.950	1.250
2020/01/31 00:09:55.1	268.670	-0.060	-0.920	1.290
2020/01/31 00:09:55.2	268.640	-0.070	-0.880	1.310
2020/01/31 00:09:55.3	268.610	-0.080	-0.840	1.340
2020/01/31 00:09:55.4	268.580	-0.090	-0.790	1.360
2020/01/31 00:09:55.5	268.550	-0.110	-0.750	1.380
2020/01/31 00:09:55.6	268.520	-0.120	-0.700	1.390
2020/01/31 00:09:55.7	268.490	-0.130	-0.650	1.400
2020/01/31 00:09:55.8	268.470	-0.150	-0.590	1.400
2020/01/31 00:09:55.9	268.450	-0.160	-0.530	1.400
2020/01/31 00:09:56.0	268.430	-0.180	-0.480	1.400
2020/01/31 00:09:56.1	268.420	-0.190	-0.420	1.390
2020/01/31 00:09:56.2	268.400	-0.200	-0.350	1.380
2020/01/31 00:09:56.3	268.390	-0.220	-0.290	1.370
2020/01/31 00:09:56.4	268.380	-0.230	-0.230	1.360
2020/01/31 00:09:56.5	268.370	-0.240	-0.170	1.340
2020/01/31 00:09:56.6	268.360	-0.250	-0.110	1.320
2020/01/31 00:09:56.7	268.350	-0.260	-0.050	1.300
2020/01/31 00:09:56.8	268.350	-0.270	0.010	1.270
2020/01/31 00:09:56.9	268.340	-0.280	0.060	1.250
2020/01/31 00:09:57.0	268.330	-0.290	0.120	1.220
2020/01/31 00:09:57.1	268.330	-0.300	0.170	1.190
2020/01/31 00:09:57.2	268.330	-0.300	0.220	1.160
2020/01/31 00:09:57.3	268.330	-0.310	0.260	1.130
2020/01/31 00:09:57.4	268.330	-0.310	0.310	1.100
2020/01/31 00:09:57.5	268.330	-0.310	0.340	1.070
2020/01/31 00:09:57.6	268.330	-0.310	0.380	1.030
2020/01/31 00:09:57.7	268.330	-0.300	0.410	1.000
2020/01/31 00:09:57.8	268.330	-0.300	0.440	0.970
2020/01/31 00:09:57.9	268.320	-0.290	0.460	0.930
2020/01/31 00:09:58.0	268.320	-0.290	0.480	0.900
2020/01/31 00:09:58.1	268.330	-0.280	0.490	0.870
2020/01/31 00:09:58.2	268.330	-0.270	0.500	0.840
2020/01/31 00:09:58.3	268.340	-0.250	0.510	0.800
2020/01/31 00:09:58.4	268.340	-0.240	0.520	0.770
2020/01/31 00:09:58.5	268.350	-0.220	0.520	0.740
2020/01/31 00:09:58.6	268.360	-0.210	0.520	0.710
2020/01/31 00:09:58.7	268.360	-0.190	0.520	0.680
2020/01/31 00:09:58.8	268.370	-0.170	0.510	0.650
2020/01/31 00:09:58.9	268.390	-0.150	0.510	0.620
2020/01/31 00:09:59.0	268.400	-0.130	0.500	0.590
2020/01/31 00:09:59.1	268.420	-0.100	0.480	0.560
2020/01/31 00:09:59.2	268.430	-0.080	0.470	0.530
2020/01/31 00:09:59.3	268.450	-0.060	0.460	0.510
2020/01/31 00:09:59.4	268.460	-0.040	0.440	0.480
2020/01/31 00:09:59.5	268.480	-0.010	0.420	0.450
2020/01/31 00:09:59.6	268.500	0.010	0.410	0.430
2020/01/31 00:09:59.7	268.510	0.040	0.390	0.400
2020/01/31 00:09:59.8	268.530	0.060	0.370	0.380
2020/01/31 00:09:59.9	268.540	0.080	0.350	0.360
2020/01/31 00:10:00.0	268.560	0.110	0.330	0.340
2020/01/31 00:10:00.1	268.580	0.130	0.310	0.320
2020/01/31 00:10:00.2	268.610	0.150	0.290	0.300
2020/01/31 00:10:00.3	268.630	0.180	0.270	0.290
2020/01/31 00:10:00.4	268.650	0.200	0.250	0.270
2020/01/31 00:10:00.5	268.670	0.220	0.230	0.260
2020/01/31 00:10:00.6	268.690	0.240	0.200	0.250
2020/01/31 00:10:00.7	268.710	0.260	0.180	0.240
2020/01/31 00:10:00.8	268.740	0.280	0.160	0.240
2020/01/31 00:10:00.9	268.750	0.300	0.150	0.230
2020/01/31 00:10:01.0	268.770	0.320	0.130	0.240
2020/01/31 00:10:01.1	268.790	0.340	0.110	0.240
2020/01/31 00:10:01.2	268.810	0.350	0.090	0.250
2020/01/31 00:10:01.3	268.830	0.370	0.070	0.250
2020/01/31 00:10:01.4	268.850	0.390	0.050	0.270
2020/01/31 00:10:01.5	268.870	0.400	0.020	0.280
2020/01/31 00:10:01.6	268.880	0.420	0.000	0.300
2020/01/31 00:10:01.7	268.900	0.430	-0.020	0.320
2020/01/31 00:10:01.8	268.910	0.440	-0.040	0.340
2020/01/31 00:10:01.9	268.930	0.450	-0.060	0.360
2020/01/31 00:10:02.0	268.940	0.470	-0.090	0.390
2020/01/31 00:10:02.1	268.950	0.480	-0.120	0.420
2020/01/31 00:10:02.2	268.960	0.490	-0.140	0.440
2020/01/31 00:10:02.3	268.980	0.500	-0.170	0.470
2020/01/31 00:10:02.4	268.980	0.500	-0.190	0.500
2020/01/31 00:10:02.5	268.990	0.510	-0.220	0.520
2020/01/31 00:10:02.6	269.000	0.520	-0.240	0.550
2020/01/31 00:10:02.7	269.000	0.520	-0.270	0.570
2020/01/31 00:10:02.8	269.010	0.520	-0.300	0.600
2020/01/31 00:10:02.9	269.000	0.530	-0.330	0.620
2020/01/31 00:10:03.0	269.000	0.530	-0.360	0.640
2020/01/31 00:10:03.1	269.000	0.530	-0.390	0.660
2020/01/31 00:10:03.2	269.000	0.530	-0.420	0.690
2020/01/31 00:10:03.3	268.990	0.520	-0.450	0.710
2020/01/31 00:10:03.4	268.990	0.520	-0.480	0.730
2020/01/31 00:10:03.5	268.980	0.520	-0.510	0.750
2020/01/31 00:10:03.6	268.970	0.510	-0.550	0.760
2020/01/31 00:10:03.7	268.960	0.500	-0.580	0.780
2020/01/31 00:10:03.8	268.950	0.500	-0.610	0.800
2020/01/31 00:10:03.9	268.920	0.490	-0.650	0.820
2020/01/31 00:10:04.0	268.910	0.480	-0.680	0.830
2020/01/31 00:10:04.1	268.890	0.470	-0.720	0.850
2020/01/31 00:10:04.2	268.870	0.460	-0.750	0.860
2020/01/31 00:10:04.3	268.850	0.440	-0.790	0.880
2020/01/31 00:10:04.4	268.830	0.430	-0.820	0.890
2020/01/31 00:10:04.5	268.810	0.420	-0.850	0.910
2020/01/31 00:10:04.6	268.790	0.400	-0.880	0.920
2020/01/31 00:10:04.7	268.770	0.390	-0.910	0.930
2020/01/31 00:10:04.8	268.740	0.370	-0.940	0.950
2020/01/31 00:10:04.9	268.720	0.360	-0.970	0.960
2020/01/31 00:10:05.0	268.710	0.340	-1.000	0.970
2020/01/31 00:10:05.1	268.680	0.320	-1.020	0.980
2020/01/31 00:10:05.2	268.660	0.300	-1.040	0.980
2020/01/31 00:10:05.3	268.630	0.280	-1.060	0.990
2020/01/31 00:10:05.4	268.610	0.260	-1.080	1.000
2020/01/31 00:10:05.5	268.590	0.240	-1.090	1.000
2020/01/31 00:10:05.6	268.560	0.220	-1.100	1.000
2020/01/31 00:10:05.7	268.540	0.200	-1.110	1.000
2020/01/31 00:10:05.8	268.510	0.180	-1.120	1.000
2020/01/31 00:10:05.9	268.500	0.160	-1.120	1.000
2020/01/31 00:10:06.0	268.480	0.130	-1.120	0.990
2020/01/31 00:10:06.1	268.460	0.110	-1.110	0.990
2020/01/31 00:10:06.2	268.440	0.090	-1.100	0.980
2020/01/31 00:10:06.3	268.420	0.060	-1.090	0.970
2020/01/31 00:10:06.4	268.400	0.040	-1.080	0.950
2020/01/31 00:10:06.5	268.390	0.010	-1.060	0.940
2020/01/31 00:10:06.6	268.370	-0.010	-1.040	0.920
2020/01/31 00:10:06.7	268.350	-0.030	-1.020	0.900
2020/01/31 00:10:06.8	268.340	-0.060	-1.000	0.880
2020/01/31 00:10:06.9	268.340	-0.080	-0.970	0.860
2020/01/31 00:10:07.0	268.320	-0.100	-0.940	0.830
2020/01/31 00:10:07.1	268.320	-0.130	-0.910	0.810
2020/01/31 00:10:07.2	268.310	-0.150	-0.880	0.780
2020/01/31 00:10:07.3	268.300	-0.170	-0.840	0.750
2020/01/31 00:10:07.4	268.290	-0.190	-0.810	0.720
2020/01/31 00:10:07.5	268.290	-0.210	-0.770	0.690
2020/01/31 00:10:07.6	268.280	-0.230	-0.740	0.660
2020/01/31 00:10:07.7	268.280	-0.250	-0.700	0.630
2020/01/31 00:10:07.8	268.280	-0.270	-0.670	0.600
2020/01/31 00:10:07.9	268.260	-0.280	-0.630	0.570
2020/01/31 00:10:08.0	268.260	-0.300	-0.600	0.540
2020/01/31 00:10:08.1	268.260	-0.310	-0.560	0.510
2020/01/31 00:10:08.2	268.270	-0.330	-0.530	0.480
2020/01/31 00:10:08.3	268.270	-0.340	-0.500	0.450
2020/01/31 00:10:08.4	268.270	-0.350	-0.470	0.420
2020/01/31 00:10:08.5	268.270	-0.360	-0.440	0.390
2020/01/31 00:10:08.6	268.280	-0.370	-0.410	0.370
2020/01/31 00:10:08.7	268.280	-0.370	-0.390	0.340
2020/01/31 00:10:08.8	268.290	-0.380	-0.360	0.320
2020/01/31 00:10:08.9	268.290	-0.390	-0.330	0.300
2020/01/31 00:10:09.0	268.310	-0.390	-0.310	0.280
2020/01/31 00:10:09.1	268.320	-0.390	-0.290	0.270
2020/01/31 00:10:09.2	268.320	-0.390	-0.270	0.250
2020/01/31 00:10:09.3	268.330	-0.400	-0.240	0.240
2020/01/31 00:10:09.4	268.340	-0.400	-0.220	0.240
2020/01/31 00:10:09.5	268.350	-0.400	-0.200	0.230
2020/01/31 00:10:09.6	268.360	-0.390	-0.180	0.230
2020/01/31 00:10:09.7	268.370	-0.390	-0.160	0.230
2020/01/31 00:10:09.8	268.380	-0.390	-0.140	0.230
2020/01/31 00:10:09.9	268.380	-0.390	-0.130	0.230
2020/01/31 00:10:10.0	268.390	-0.390	-0.110	0.240
2020/01/31 00:10:10.1	268.410	-0.380	-0.090	0.250
2020/01/31 00:10:10.2	268.420	-0.380	-0.060	0.260
2020/01/31 00:10:10.3	268.430	-0.370	-0.040	0.280
2020/01/31 00:10:10.4	268.450	-0.370	-0.020	0.290
2020/01/31 00:10:10.5	268.460	-0.370	0.000	0.310
2020/01/31 00:10:10.6	268.470	-0.360	0.020	0.330
2020/01/31 00:10:10.7	268.490	-0.360	0.040	0.350
2020/01/31 00:10:10.8	268.500	-0.350	0.070	0.380
2020/01/31 00:10:10.9	268.530	-0.350	0.090	0.400
2020/01/31 00:10:11.0	268.540	-0.350	0.110	0.430
2020/01/31 00:10:11.1	268.560	-0.340	0.130	0.460
2020/01/31 00:10:11.2	268.570	-0.340	0.160	0.480
2020/01/31 00:10:11.3	268.580	-0.340	0.180	0.510
2020/01/31 00:10:11.4	268.600	-0.330	0.200	0.540
2020/01/31 00:10:11.5	268.610	-0.330	0.220	0.560
2020/01/31 00:10:11.6	268.620	-0.330	0.240	0.590
2020/01/31 00:10:11.7	268.630	-0.320	0.250	0.610
2020/01/31 00:10:11.8	268.650	-0.320	0.270	0.640
2020/01/31 00:10:11.9	268.660	-0.320	0.290	0.660
2020/01/31 00:10:12.0	268.670	-0.310	0.300	0.680
2020/01/31 00:10:12.1	268.680	-0.310	0.310	0.700
2020/01/31 00:10:12.2	268.690	-0.300	0.320	0.720
2020/01/31 00:10:12.3	268.700	-0.300	0.320	0.730
2020/01/31 00:10:12.4	268.710	-0.290	0.330	0.750
2020/01/31 00:10:12.5	268.720	-0.280	0.330	0.760
2020/01/31 00:10:12.6	268.730	-0.280	0.330	0.780
2020/01/31 00:10:12.7	268.730	-0.270	0.330	0.790
2020/01/31 00:10:12.8	268.740	-0.260	0.320	0.800
2020/01/31 00:10:12.9	268.740	-0.250	0.320	0.810
2020/01/31 00:10:13.0	268.740	-0.240	0.300	0.810
2020/01/31 00:10:13.1	268.750	-0.220	0.290	0.820
2020/01/31 00:10:13.2	268.750	-0.210	0.270	0.820
2020/01/31 00:10:13.3	268.760	-0.190	0.250	0.830
2020/01/31 00:10:13.4	268.760	-0.180	0.230	0.830
2020/01/31 00:10:13.5	268.760	-0.160	0.200	0.830
2020/01/31 00:10:13.6	268.770	-0.140	0.180	0.830
2020/01/31 00:10:13.7	268.770	-0.120	0.150	0.820
2020/01/31 00:10:13.8	268.770	-0.100	0.110	0.820
2020/01/31 00:10:13.9	268.760	-0.080	0.080	0.810
2020/01/31 00:10:14.0	268.750	-0.060	0.040	0.800
2020/01/31 00:10:14.1	268.750	-0.040	0.000	0.790
2020/01/31 00:10:14.2	268.750	-0.010	-0.030	0.780
2020/01/31 00:10:14.3	268.740	0.010	-0.070	0.780
2020/01/31 00:10:14.4	268.740	0.040	-0.110	0.770
2020/01/31 00:10:14.5	268.730	0.060	-0.150	0.750
2020/01/31 00:10:14.6	268.730	0.090	-0.190	0.750
2020/01/31 00:10:14.7	268.720	0.110	-0.220	0.730
2020/01/31 00:10:14.8	268.710	0.130	-0.260	0.730
2020/01/31 00:10:14.9	268.700	0.160	-0.290	0.720
2020/01/31 00:10:15.0	268.690	0.180	-0.320	0.710
2020/01/31 00:10:15.1	268.670	0.200	-0.350	0.700
2020/01/31 00:10:15.2	268.660	0.220	-0.380	0.690
2020/01/31 00:10:15.3	268.650	0.250	-0.410	0.690
2020/01/31 00:10:15.4	268.640	0.260	-0.430	0.680
2020/01/31 00:10:15.5	268.620	0.280	-0.450	0.680
2020/01/31 00:10:15.6	268.610	0.300	-0.470	0.680
2020/01/31 00:10:15.7	268.590	0.310	-0.480	0.670
2020/01/31 00:10:15.8	268.580	0.330	-0.490	0.670
2020/01/31 00:10:15.9	268.560	0.340	-0.510	0.680
2020/01/31 00:10:16.0	268.550	0.350	-0.510	0.680
2020/01/31 00:10:16.1	268.530	0.360	-0.520	0.680
2020/01/31 00:10:16.2	268.510	0.370	-0.520	0.690
2020/01/31 00:10:16.3	268.490	0.370	-0.520	0.690
2020/01/31 00:10:16.4	268.470	0.370	-0.520	0.700
2020/01/31 00:10:16.5	268.450	0.380	-0.520	0.710
2020/01/31 00:10:16.6	268.420	0.380	-0.510	0.730
2020/01/31 00:10:16.7	268.400	0.370	-0.500	0.740
2020/01/31 00:10:16.8	268.380	0.370	-0.500	0.750
2020/01/31 00:10:16.9	268.350	0.370	-0.490	0.770
2020/01/31 00:10:17.0	268.330	0.360	-0.480	0.780
2020/01/31 00:10:17.1	268.300	0.350	-0.470	0.800
2020/01/31 00:10:17.2	268.280	0.350	-0.460	0.820
2020/01/31 00:10:17.3	268.250	0.340	-0.450	0.840
2020/01/31 00:10:17.4	268.230	0.330	-0.440	0.860
2020/01/31 00:10:17.5	268.210	0.320	-0.430	0.880
2020/01/31 00:10:17.6	268.180	0.300	-0.420	0.900
2020/01/31 00:10:17.7	268.160	0.290	-0.400	0.920
2020/01/31 00:10:17.8	268.140	0.280	-0.390	0.940
2020/01/31 00:10:17.9	268.100	0.260	-0.380	0.960
2020/01/31 00:10:18.0	268.080	0.250	-0.370	0.980
2020/01/31 00:10:18.1	268.060	0.240	-0.360	1.000
2020/01/31 00:10:18.2	268.040	0.220	-0.360	1.020
2020/01/31 00:10:18.3	268.020	0.210	-0.350	1.040
2020/01/31 00:10:18.4	268.000	0.200	-0.340	1.050
2020/01/31 00:10:18.5	267.990	0.180	-0.340	1.070
2020/01/31 00:10:18.6	267.970	0.170	-0.330	1.090
2020/01/31 00:10:18.7	267.950	0.160	-0.330	1.100
2020/01/31 00:10:18.8	267.940	0.150	-0.330	1.120
2020/01/31 00:10:18.9	267.930	0.140	-0.330	1.130
2020/01/31 00:10:19.0	267.920	0.130	-0.330	1.150
2020/01/31 00:10:19.1	267.900	0.120	-0.330	1.160
2020/01/31 00:10:19.2	267.890	0.110	-0.330	1.170
2020/01/31 00:10:19.3	267.880	0.110	-0.330	1.180
2020/01/31 00:10:19.4	267.870	0.100	-0.340	1.190
2020/01/31 00:10:19.5	267.870	0.100	-0.340	1.200
2020/01/31 00:10:19.6	267.860	0.090	-0.350	1.210
2020/01/31 00:10:19.7	267.850	0.090	-0.350	1.210
2020/01/31 00:10:19.8	267.850	0.090	-0.360	1.220
2020/01/31 00:10:19.9	267.840	0.090	-0.370	1.220
2020/01/31 00:10:20.0	267.840	0.090	-0.370	1.220
2020/01/31 00:10:20.1	267.830	0.090	-0.380	1.220
2020/01/31 00:10:20.2	267.830	0.090	-0.390	1.220
2020/01/31 00:10:20.3	267.840	0.090	-0.400	1.210
2020/01/31 00:10:20.4	267.840	0.090	-0.410	1.210
2020/01/31 00:10:20.5	267.840	0.090	-0.410	1.200
2020/01/31 00:10:20.6	267.850	0.090	-0.420	1.200
2020/01/31 00:10:20.7	267.850	0.100	-0.430	1.190
2020/01/31 00:10:20.8	267.860	0.100	-0.440	1.180
2020/01/31 00:10:20.9	267.860	0.100	-0.440	1.160
2020/01/31 00:10:21.0	267.870	0.110	-0.450	1.150
2020/01/31 00:10:21.1	267.880	0.110	-0.450	1.140
2020/01/31 00:10:21.2	267.890	0.110	-0.450	1.120
2020/01/31 00:10:21.3	267.910	0.120	-0.460	1.110
2020/01/31 00:10:21.4	267.920	0.120	-0.460	1.090
2020/01/31 00:10:21.5	267.930	0.120	-0.460	1.070
2020/01/31 00:10:21.6	267.950	0.130	-0.460	1.050
2020/01/31 00:10:21.7	267.960	0.130	-0.460	1.040
2020/01/31 00:10:21.8	267.980	0.130	-0.450	1.020
2020/01/31 00:10:21.9	268.000	0.130	-0.450	1.000
2020/01/31 00:10:22.0	268.010	0.140	-0.440	0.990
2020/01/31 00:10:22.1	268.030	0.140	-0.440	0.970
2020/01/31 00:10:22.2	268.050	0.140	-0.430	0.950
2020/01/31 00:10:22.3	268.070	0.140	-0.430	0.930
2020/01/31 00:10:22.4	268.090	0.140	-0.420	0.910
2020/01/31 00:10:22.5	268.110	0.140	-0.410	0.900
2020/01/31 00:10:22.6	268.130	0.140	-0.400	0.880
2020/01/31 00:10:22.7	268.160	0.140	-0.400	0.860
2020/01/31 00:10:22.8	268.180	0.140	-0.390	0.840
2020/01/31 00:10:22.9	268.190	0.140	-0.380	0.820
2020/01/31 00:10:23.0	268.210	0.130	-0.370	0.810
2020/01/31 00:10:23.1	268.240	0.130	-0.370	0.790
2020/01/31 00:10:23.2	268.260	0.120	-0.360	0.780
2020/01/31 00:10:23.3	268.280	0.120	-0.350	0.760
2020/01/31 00:10:23.4	268.310	0.110	-0.350	0.750
2020/01/31 00:10:23.5	268.330	0.110	-0.340	0.730
2020/01/31 00:10:23.6	268.350	0.100	-0.340	0.720
2020/01/31 00:10:23.7	268.380	0.090	-0.340	0.700
2020/01/31 00:10:23.8	268.400	0.080	-0.340	0.690
2020/01/31 00:10:23.9	268.420	0.070	-0.340	0.670
2020/01/31 00:10:24.0	268.440	0.060	-0.330	0.660
2020/01/31 00:10:24.1	268.460	0.050	-0.330	0.640
2020/01/31 00:10:24.2	268.490	0.040	-0.330	0.630
2020/01/31 00:10:24.3	268.510	0.020	-0.330	0.610
2020/01/31 00:10:24.4	268.530	0.010	-0.330	0.600
2020/01/31 00:10:24.5	268.540	-0.010	-0.330	0.580
2020/01/31 00:10:24.6	268.560	-0.020	-0.330	0.560
2020/01/31 00:10:24.7	268.580	-0.040	-0.330	0.550
2020/01/31 00:10:24.8	268.590	-0.050	-0.320	0.530
2020/01/31 00:10:24.9	268.610	-0.070	-0.320	0.510
2020/01/31 00:10:25.0	268.620	-0.080	-0.320	0.500
2020/01/31 00:10:25.1	268.640	-0.100	-0.320	0.480
2020/01/31 00:10:25.2	268.650	-0.120	-0.310	0.470
2020/01/31 00:10:25.3	268.660	-0.130	-0.310	0.450
2020/01/31 00:10:25.4	268.670	-0.150	-0.310	0.430
2020/01/31 00:10:25.5	268.680	-0.170	-0.300	0.420
2020/01/31 00:10:25.6	268.680	-0.180	-0.300	0.400
2020/01/31 00:10:25.7	268.690	-0.200	-0.300	0.390
2020/01/31 00:10:25.8	268.700	-0.210	-0.290	0.370
2020/01/31 00:10:25.9	268.700	-0.230	-0.290	0.350
2020/01/31 00:10:26.0	268.730	-0.240	-0.280	0.340
2020/01/31 00:10:26.1	268.730	-0.250	-0.270	0.320
2020/01/31 00:10:26.2	268.740	-0.260	-0.270	0.310
2020/01/31 00:10:26.3	268.740	-0.270	-0.260	0.290
2020/01/31 00:10:26.4	268.740	-0.280	-0.260	0.280
2020/01/31 00:10:26.5	268.750	-0.290	-0.250	0.270
2020/01/31 00:10:26.6	268.750	-0.300	-0.240	0.250
2020/01/31 00:10:26.7	268.750	-0.300	-0.240	0.240
2020/01/31 00:10:26.8	268.750	-0.310	-0.230	0.230
2020/01/31 00:10:26.9	268.760	-0.310	-0.230	0.230
2020/01/31 00:10:27.0	268.760	-0.310	-0.220	0.220
2020/01/31 00:10:27.1	268.760	-0.310	-0.220	0.210
2020/01/31 00:10:27.2	268.750	-0.310	-0.220	0.210
2020/01/31 00:10:27.3	268.750	-0.310	-0.220	0.210
2020/01/31 00:10:27.4	268.750	-0.310	-0.220	0.210
2020/01/31 00:10:27.5	268.750	-0.300	-0.220	0.210
2020/01/31 00:10:27.6	268.740	-0.290	-0.220	0.220
2020/01/31 00:10:27.7	268.740	-0.290	-0.220	0.220
2020/01/31 00:10:27.8	268.730	-0.280	-0.220	0.230
2020/01/31 00:10:27.9	268.730	-0.270	-0.230	0.240
2020/01/31 00:10:28.0	268.720	-0.250	-0.240	0.260
2020/01/31 00:10:28.1	268.710	-0.240	-0.240	0.280
2020/01/31 00:10:28.2	268.710	-0.230	-0.250	0.300
2020/01/31 00:10:28.3	268.690	-0.210	-0.260	0.320
2020/01/31 00:10:28.4	268.680	-0.190	-0.270	0.350
2020/01/31 00:10:28.5	268.670	-0.180	-0.280	0.380
2020/01/31 00:10:28.6	268.660	-0.160	-0.290	0.410
2020/01/31 00:10:28.7	268.640	-0.140	-0.300	0.440
2020/01/31 00:10:28.8	268.620	-0.120	-0.310	0.480
2020/01/31 00:10:28.9	268.610	-0.100	-0.330	0.510
2020/01/31 00:10:29.0	268.590	-0.080	-0.340	0.550
2020/01/31 00:10:29.1	268.570	-0.060	-0.350	0.590
2020/01/31 00:10:29.2	268.550	-0.050	-0.360	0.640
2020/01/31 00:10:29.3	268.520	-0.030	-0.380	0.680
2020/01/31 00:10:29.4	268.500	-0.010	-0.390	0.730
2020/01/31 00:10:29.5	268.470	0.010	-0.400	0.780
2020/01/31 00:10:29.6	268.450	0.030	-0.410	0.820
2020/01/31 00:10:29.7	268.420	0.050	-0.420	0.870
2020/01/31 00:10:29.8	268.390	0.060	-0.420	0.920
2020/01/31 00:10:29.9	268.350	0.080	-0.440	0.960
2020/01/31 00:10:30.0	268.330	0.090	-0.440	1.000
2020/01/31 00:10:30.1	268.290	0.110	-0.450	1.050
2020/01/31 00:10:30.2	268.260	0.120	-0.450	1.090
2020/01/31 00:10:30.3	268.230	0.130	-0.450	1.120
2020/01/31 00:10:30.4	268.200	0.140	-0.450	1.160
2020/01/31 00:10:30.5	268.170	0.150	-0.460	1.190
2020/01/31 00:10:30.6	268.140	0.150	-0.450	1.220
2020/01/31 00:10:30.7	268.110	0.160	-0.450	1.250
2020/01/31 00:10:30.8	268.080	0.160	-0.450	1.270
2020/01/31 00:10:30.9	268.050	0.170	-0.440	1.290
2020/01/31 00:10:31.0	268.020	0.170	-0.430	1.300
2020/01/31 00:10:31.1	268.000	0.170	-0.430	1.320
2020/01/31 00:10:31.2	267.970	0.170	-0.420	1.320
2020/01/31 00:10:31.3	267.950	0.170	-0.410	1.330
2020/01/31 00:10:31.4	267.920	0.170	-0.390	1.330
2020/01/31 00:10:31.5	267.900	0.160	-0.380	1.330
2020/01/31 00:10:31.6	267.880	0.160	-0.360	1.320
2020/01/31 00:10:31.7	267.860	0.150	-0.350	1.310
2020/01/31 00:10:31.8	267.840	0.150	-0.330	1.300
2020/01/31 00:10:31.9	267.820	0.140	-0.310	1.290
2020/01/31 00:10:32.0	267.810	0.130	-0.290	1.270
2020/01/31 00:10:32.1	267.790	0.120	-0.280	1.250
2020/01/31 00:10:32.2	267.780	0.110	-0.260	1.230
2020/01/31 00:10:32.3	267.770	0.100	-0.240	1.210
2020/01/31 00:10:32.4	267.760	0.090	-0.220	1.190
2020/01/31 00:10:32.5	267.750	0.080	-0.200	1.160
2020/01/31 00:10:32.6	267.740	0.070	-0.180	1.140
2020/01/31 00:10:32.7	267.740	0.060	-0.160	1.110
2020/01/31 00:10:32.8	267.740	0.050	-0.140	1.080
2020/01/31 00:10:32.9	267.730	0.030	-0.120	1.060
2020/01/31 00:10:33.0	267.730	0.020	-0.100	1.030
2020/01/31 00:10:33.1	267.730	0.010	-0.090	1.000
2020/01/31 00:10:33.2	267.730	0.000	-0.070	0.970
2020/01/31 00:10:33.3	267.730	-0.010	-0.060	0.950
2020/01/31 00:10:33.4	267.740	-0.020	-0.050	0.920
2020/01/31 00:10:33.5	267.740	-0.030	-0.040	0.890
2020/01/31 00:10:33.6	267.750	-0.040	-0.030	0.870
2020/01/31 00:10:33.7	267.760	-0.050	-0.030	0.840
2020/01/31 00:10:33.8	267.770	-0.060	-0.020	0.820
2020/01/31 00:10:33.9	267.770	-0.060	-0.020	0.790
2020/01/31 00:10:34.0	267.780	-0.070	-0.030	0.770
2020/01/31 00:10:34.1	267.800	-0.070	-0.030	0.750
2020/01/31 00:10:34.2	267.810	-0.080	-0.030	0.730
2020/01/31 00:10:34.3	267.820	-0.080	-0.040	0.710
2020/01/31 00:10:34.4	267.830	-0.090	-0.050	0.690
2020/01/31 00:10:34.5	267.850	-0.090	-0.060	0.670
2020/01/31 00:10:34.6	267.860	-0.090	-0.070	0.660
2020/01/31 00:10:34.7	267.880	-0.090	-0.080	0.640
2020/01/31 00:10:34.8	267.890	-0.080	-0.100	0.630
2020/01/31 00:10:34.9	267.910	-0.080	-0.110	0.620
2020/01/31 00:10:35.0	267.930	-0.080	-0.120	0.600
2020/01/31 00:10:35.1	267.940	-0.070	-0.140	0.590
2020/01/31 00:10:35.2	267.960	-0.070	-0.150	0.580
2020/01/31 00:10:35.3	267.980	-0.060	-0.170	0.570
2020/01/31 00:10:35.4	267.990	-0.060	-0.180	0.560
2020/01/31 00:10:35.5	268.010	-0.050	-0.200	0.550
2020/01/31 00:10:35.6	268.030	-0.040	-0.210	0.550
2020/01/31 00:10:35.7	268.040	-0.030	-0.220	0.540
2020/01/31 00:10:35.8	268.060	-0.020	-0.230	0.530
2020/01/31 00:10:35.9	268.080	-0.020	-0.240	0.530
2020/01/31 00:10:36.0	268.100	-0.010	-0.250	0.530
2020/01/31 00:10:36.1	268.110	0.000	-0.250	0.520
2020/01/31 00:10:36.2	268.130	0.010	-0.260	0.520
2020/01/31 00:10:36.3	268.150	0.020	-0.260	0.520
2020/01/31 00:10:36.4	268.160	0.020	-0.260	0.520
2020/01/31 00:10:36.5	268.180	0.030	-0.260	0.530
2020/01/31 00:10:36.6	268.200	0.040	-0.260	0.530
2020/01/31 00:10:36.7	268.210	0.040	-0.250	0.530
2020/01/31 00:10:36.8	268.230	0.050	-0.250	0.540
2020/01/31 00:10:36.9	268.240	0.060	-0.250	0.550
2020/01/31 00:10:37.0	268.260	0.060	-0.240	0.560
2020/01/31 00:10:37.1	268.270	0.060	-0.240	0.560
2020/01/31 00:10:37.2	268.290	0.070	-0.230	0.570
2020/01/31 00:10:37.3	268.300	0.070	-0.230	0.580
2020/01/31 00:10:37.4	268.310	0.070	-0.220	0.590
2020/01/31 00:10:37.5	268.330	0.070	-0.220	0.610
2020/01/31 00:10:37.6	268.340	0.070	-0.220	0.620
2020/01/31 00:10:37.7	268.350	0.070	-0.220	0.630
2020/01/31 00:10:37.8	268.370	0.070	-0.220	0.640
2020/01/31 00:10:37.9	268.380	0.070	-0.220	0.660
2020/01/31 00:10:38.0	268.400	0.070	-0.230	0.670
2020/01/31 00:10:38.1	268.410	0.070	-0.230	0.680
2020/01/31 00:10:38.2	268.420	0.060	-0.240	0.690
2020/01/31 00:10:38.3	268.430	0.060	-0.250	0.700
2020/01/31 00:10:38.4	268.450	0.060	-0.260	0.710
2020/01/31 00:10:38.5	268.460	0.050	-0.270	0.720
2020/01/31 00:10:38.6	268.470	0.050	-0.290	0.730
2020/01/31 00:10:38.7	268.480	0.040	-0.310	0.740
2020/01/31 00:10:38.8	268.490	0.040	-0.320	0.750
2020/01/31 00:10:38.9	268.510	0.030	-0.350	0.760
2020/01/31 00:10:39.0	268.520	0.030	-0.370	0.770
2020/01/31 00:10:39.1	268.530	0.020	-0.390	0.780
2020/01/31 00:10:39.2	268.540	0.020	-0.410	0.780
2020/01/31 00:10:39.3	268.550	0.010	-0.440	0.790
2020/01/31 00:10:39.4	268.560	0.010	-0.460	0.800
2020/01/31 00:10:39.5	268.560	0.000	-0.480	0.810
2020/01/31 00:10:39.6	268.570	-0.010	-0.510	0.820
2020/01/31 00:10:39.7	268.570	-0.010	-0.530	0.830
2020/01/31 00:10:39.8	268.580	-0.020	-0.550	0.840
2020/01/31 00:10:39.9	268.570	-0.020	-0.570	0.850
2020/01/31 00:10:40.0	268.570	-0.030	-0.590	0.860
2020/01/31 00:10:40.1	268.570	-0.040	-0.610	0.870
2020/01/31 00:10:40.2	268.570	-0.040	-0.620	0.890
2020/01/31 00:10:40.3	268.570	-0.050	-0.640	0.900
2020/01/31 00:10:40.4	268.570	-0.050	-0.650	0.910
2020/01/31 00:10:40.5	268.560	-0.060	-0.660	0.920
2020/01/31 00:10:40.6	268.560	-0.070	-0.670	0.940
2020/01/31 00:10:40.7	268.550	-0.070	-0.680	0.950
2020/01/31 00:10:40.8	268.550	-0.080	-0.680	0.960
2020/01/31 00:10:40.9	268.530	-0.090	-0.690	0.970
2020/01/31 00:10:41.0	268.530	-0.090	-0.690	0.990
2020/01/31 00:10:41.1	268.520	-0.100	-0.680	1.000
2020/01/31 00:10:41.2	268.520	-0.100	-0.680	1.010
2020/01/31 00:10:41.3	268.510	-0.110	-0.670	1.020
2020/01/31 00:10:41.4	268.500	-0.110	-0.660	1.040
2020/01/31 00:10:41.5	268.500	-0.120	-0.650	1.050
2020/01/31 00:10:41.6	268.490	-0.120	-0.640	1.060
2020/01/31 00:10:41.7	268.480	-0.130	-0.630	1.070
2020/01/31 00:10:41.8	268.480	-0.130	-0.610	1.080
2020/01/31 00:10:41.9	268.460	-0.130	-0.590	1.090
2020/01/31 00:10:42.0	268.450	-0.140	-0.580	1.100
2020/01/31 00:10:42.1	268.450	-0.140	-0.560	1.110
2020/01/31 00:10:42.2	268.440	-0.140	-0.540	1.120
2020/01/31 00:10:42.3	268.430	-0.140	-0.520	1.120
2020/01/31 00:10:42.4	268.420	-0.140	-0.490	1.130
2020/01/31 00:10:42.5	268.410	-0.140	-0.470	1.140
2020/01/31 00:10:42.6	268.410	-0.140	-0.450	1.140
2020/01/31 00:10:42.7	268.400	-0.140	-0.430	1.150
2020/01/31 00:10:42.8	268.390	-0.130	-0.410	1.150
2020/01/31 00:10:42.9	268.380	-0.130	-0.390	1.150
2020/01/31 00:10:43.0	268.370	-0.120	-0.370	1.160
2020/01/31 00:10:43.1	268.360	-0.120	-0.350	1.160
2020/01/31 00:10:43.2	268.350	-0.110	-0.330	1.160
2020/01/31 00:10:43.3	268.340	-0.100	-0.310	1.160
2020/01/31 00:10:43.4	268.330	-0.090	-0.300	1.170
2020/01/31 00:10:43.5	268.320	-0.090	-0.280	1.170
2020/01/31 00:10:43.6	268.320	-0.080	-0.270	1.170
2020/01/31 00:10:43.7	268.310	-0.070	-0.260	1.160
2020/01/31 00:10:43.8	268.300	-0.060	-0.240	1.160
2020/01/31 00:10:43.9	268.280	-0.040	-0.230	1.160
2020/01/31 00:10:44.0	268.270	-0.030	-0.230	1.160
2020/01/31 00:10:44.1	268.260	-0.020	-0.220	1.150
2020/01/31 00:10:44.2	268.250	-0.010	-0.210	1.150
2020/01/31 00:10:44.3	268.240	0.000	-0.200	1.140
2020/01/31 00:10:44.4	268.230	0.020	-0.200	1.130
2020/01/31 00:10:44.5	268.220	0.030	-0.200	1.130
2020/01/31 00:10:44.6	268.210	0.040	-0.190	1.120
2020/01/31 00:10:44.7	268.200	0.050	-0.190	1.110
2020/01/31 00:10:44.8	268.190	0.070	-0.190	1.100
2020/01/31 00:10:44.9	268.180	0.080	-0.190	1.080
2020/01/31 00:10:45.0	268.170	0.090	-0.190	1.070
2020/01/31 00:10:45.1	268.160	0.100	-0.190	1.060
2020/01/31 00:10:45.2	268.150	0.110	-0.190	1.050
2020/01/31 00:10:45.3	268.150	0.120	-0.190	1.040
2020/01/31 00:10:45.4	268.140	0.130	-0.190	1.020
2020/01/31 00:10:45.5	268.130	0.140	-0.200	1.010
2020/01/31 00:10:45.6	268.130	0.150	-0.200	1.000
2020/01/31 00:10:45.7	268.120	0.160	-0.200	0.980
2020/01/31 00:10:45.8	268.120	0.170	-0.200	0.970
2020/01/31 00:10:45.9	268.120	0.180	-0.210	0.960
2020/01/31 00:10:46.0	268.120	0.180	-0.210	0.950
2020/01/31 00:10:46.1	268.110	0.190	-0.210	0.930
2020/01/31 00:10:46.2	268.110	0.190	-0.220	0.920
2020/01/31 00:10:46.3	268.110	0.200	-0.220	0.900
2020/01/31 00:10:46.4	268.110	0.200	-0.220	0.890
2020/01/31 00:10:46.5	268.110	0.200	-0.230	0.880
2020/01/31 00:10:46.6	268.110	0.210	-0.230	0.860
2020/01/31 00:10:46.7	268.110	0.210	-0.230	0.840
2020/01/31 00:10:46.8	268.110	0.210	-0.240	0.830
2020/01/31 00:10:46.9	268.110	0.210	-0.240	0.810
2020/01/31 00:10:47.0	268.110	0.210	-0.240	0.790
2020/01/31 00:10:47.1	268.110	0.200	-0.240	0.770
2020/01/31 00:10:47.2	268.120	0.200	-0.250	0.750
2020/01/31 00:10:47.3	268.130	0.200	-0.250	0.730
2020/01/31 00:10:47.4	268.140	0.190	-0.250	0.700
2020/01/31 00:10:47.5	268.150	0.190	-0.250	0.680
2020/01/31 00:10:47.6	268.160	0.180	-0.260	0.650
2020/01/31 00:10:47.7	268.170	0.180	-0.260	0.620
2020/01/31 00:10:47.8	268.180	0.170	-0.260	0.600
2020/01/31 00:10:47.9	268.210	0.160	-0.260	0.570
2020/01/31 00:10:48.0	268.220	0.150	-0.260	0.540
2020/01/31 00:10:48.1	268.230	0.140	-0.260	0.510
2020/01/31 00:10:48.2	268.250	0.130	-0.260	0.480
2020/01/31 00:10:48.3	268.260	0.130	-0.260	0.450
2020/01/31 00:10:48.4	268.280	0.120	-0.260	0.420
2020/01/31 00:10:48.5	268.300	0.110	-0.260	0.390
2020/01/31 00:10:48.6	268.310	0.090	-0.260	0.360
2020/01/31 00:10:48.7	268.330	0.080	-0.260	0.330
2020/01/31 00:10:48.8	268.350	0.070	-0.260	0.300
2020/01/31 00:10:48.9	268.370	0.060	-0.260	0.270
2020/01/31 00:10:49.0	268.380	0.050	-0.260	0.240
2020/01/31 00:10:49.1	268.400	0.040	-0.250	0.210
2020/01/31 00:10:49.2	268.420	0.020	-0.250	0.180
2020/01/31 00:10:49.3	268.440	0.010	-0.250	0.150
2020/01/31 00:10:49.4	268.460	-0.000	-0.240	0.130
2020/01/31 00:10:49.5	268.480	-0.020	-0.240	0.100
2020/01/31 00:10:49.6	268.500	-0.030	-0.230	0.070
2020/01/31 00:10:49.7	268.510	-0.040	-0.230	0.050
2020/01/31 00:10:49.8	268.530	-0.060	-0.220	0.030
2020/01/31 00:10:49.9	268.550	-0.070	-0.210	0.000
2020/01/31 00:10:50.0	268.580	-0.080	-0.200	-0.020
2020/01/31 00:10:50.1	268.600	-0.100	-0.200	-0.040
2020/01/31 00:10:50.2	268.620	-0.110	-0.190	-0.060
2020/01/31 00:10:50.3	268.640	-0.130	-0.180	-0.080
2020/01/31 00:10:50.4	268.660	-0.140	-0.170	-0.100
2020/01/31 00:10:50.5	268.670	-0.150	-0.170	-0.110
2020/01/31 00:10:50.6	268.690	-0.170	-0.160	-0.130
2020/01/31 00:10:50.7	268.710	-0.180	-0.150	-0.140
2020/01/31 00:10:50.8	268.730	-0.200	-0.140	-0.150
2020/01/31 00:10:50.9	268.750	-0.210	-0.130	-0.170
2020/01/31 00:10:51.0	268.770	-0.230	-0.130	-0.180
2020/01/31 00:10:51.1	268.790	-0.240	-0.120	-0.180
2020/01/31 00:10:51.2	268.820	-0.250	-0.110	-0.190
2020/01/31 00:10:51.3	268.840	-0.270	-0.100	-0.200
2020/01/31 00:10:51.4	268.860	-0.280	-0.090	-0.200
2020/01/31 00:10:51.5	268.880	-0.290	-0.080	-0.210
2020/01/31 00:10:51.6	268.910	-0.300	-0.070	-0.210
2020/01/31 00:10:51.7	268.930	-0.320	-0.070	-0.210
2020/01/31 00:10:51.8	268.960	-0.330	-0.060	-0.210
2020/01/31 00:10:51.9	268.990	-0.340	-0.050	-0.200
2020/01/31 00:10:52.0	269.020	-0.340	-0.050	-0.190
2020/01/31 00:10:52.1	269.040	-0.350	-0.040	-0.190
2020/01/31 00:10:52.2	269.070	-0.360	-0.040	-0.180
2020/01/31 00:10:52.3	269.100	-0.360	-0.040	-0.170
2020/01/31 00:10:52.4	269.120	-0.370	-0.040	-0.160
2020/01/31 00:10:52.5	269.150	-0.370	-0.040	-0.140
2020/01/31 00:10:52.6	269.180	-0.370	-0.040	-0.130
2020/01/31 00:10:52.7	269.210	-0.370	-0.040	-0.110
2020/01/31 00:10:52.8	269.240	-0.370	-0.050	-0.090
2020/01/31 00:10:52.9	269.260	-0.370	-0.050	-0.070
2020/01/31 00:10:53.0	269.270	-0.360	-0.060	-0.060
2020/01/31 00:10:53.1	269.300	-0.350	-0.070	-0.040
2020/01/31 00:10:53.2	269.330	-0.350	-0.080	-0.020
2020/01/31 00:10:53.3	269.350	-0.330	-0.100	0.010
2020/01/31 00:10:53.4	269.380	-0.320	-0.110	0.030
2020/01/31 00:10:53.5	269.400	-0.310	-0.130	0.060
2020/01/31 00:10:53.6	269.430	-0.290	-0.150	0.080
2020/01/31 00:10:53.7	269.450	-0.270	-0.170	0.100
2020/01/31 00:10:53.8	269.470	-0.250	-0.200	0.130
2020/01/31 00:10:53.9	269.490	-0.230	-0.220	0.150
2020/01/31 00:10:54.0	269.500	-0.210	-0.250	0.180
2020/01/31 00:10:54.1	269.510	-0.180	-0.280	0.200
2020/01/31 00:10:54.2	269.530	-0.150	-0.310	0.230
2020/01/31 00:10:54.3	269.540	-0.130	-0.340	0.250
2020/01/31 00:10:54.4	269.550	-0.100	-0.370	0.280
2020/01/31 00:10:54.5	269.560	-0.070	-0.400	0.310
2020/01/31 00:10:54.6	269.560	-0.040	-0.440	0.330
2020/01/31 00:10:54.7	269.570	-0.000	-0.470	0.360
2020/01/31 00:10:54.8	269.570	0.030	-0.500	0.390
2020/01/31 00:10:54.9	269.570	0.060	-0.530	0.410
2020/01/31 00:10:55.0	269.570	0.090	-0.560	0.440
2020/01/31 00:10:55.1	269.570	0.130	-0.590	0.460
2020/01/31 00:10:55.2	269.570	0.160	-0.620	0.490
2020/01/31 00:10:55.3	269.560	0.190	-0.640	0.520
2020/01/31 00:10:55.4	269.550	0.220	-0.660	0.540
2020/01/31 00:10:55.5	269.550	0.250	-0.690	0.570
2020/01/31 00:10:55.6	269.540	0.280	-0.700	0.600
2020/01/31 00:10:55.7	269.520	0.300	-0.720	0.620
2020/01/31 00:10:55.8	269.510	0.330	-0.740	0.650
2020/01/31 00:10:55.9	269.500	0.350	-0.740	0.670
2020/01/31 00:10:56.0	269.490	0.370	-0.750	0.700
2020/01/31 00:10:56.1	269.470	0.380	-0.760	0.720
2020/01/31 00:10:56.2	269.450	0.400	-0.760	0.740
2020/01/31 00:10:56.3	269.430	0.410	-0.760	0.770
2020/01/31 00:10:56.4	269.410	0.420	-0.760	0.790
2020/01/31 00:10:56.5	269.380	0.430	-0.750	0.810
2020/01/31 00:10:56.6	269.350	0.430	-0.740	0.830
2020/01/31 00:10:56.7	269.330	0.430	-0.730	0.850
2020/01/31 00:10:56.8	269.300	0.430	-0.720	0.860
2020/01/31 00:10:56.9	269.270	0.420	-0.700	0.880
2020/01/31 00:10:57.0	269.250	0.410	-0.680	0.900
2020/01/31 00:10:57.1	269.210	0.400	-0.660	0.910
2020/01/31 00:10:57.2	269.180	0.390	-0.640	0.920
2020/01/31 00:10:57.3	269.140	0.370	-0.620	0.930
2020/01/31 00:10:57.4	269.110	0.360	-0.590	0.940
2020/01/31 00:10:57.5	269.070	0.340	-0.570	0.950
2020/01/31 00:10:57.6	269.030	0.310	-0.540	0.950
2020/01/31 00:10:57.7	268.990	0.290	-0.520	0.960
2020/01/31 00:10:57.8	268.950	0.260	-0.490	0.960
2020/01/31 00:10:57.9	268.910	0.240	-0.460	0.960
2020/01/31 00:10:58.0	268.870	0.210	-0.440	0.950
2020/01/31 00:10:58.1	268.830	0.180	-0.410	0.950
2020/01/31 00:10:58.2	268.800	0.150	-0.390	0.940
2020/01/31 00:10:58.3	268.760	0.120	-0.360	0.930
2020/01/31 00:10:58.4	268.720	0.080	-0.340	0.920
2020/01/31 00:10:58.5	268.680	0.050	-0.320	0.900
2020/01/31 00:10:58.6	268.640	0.020	-0.310	0.890
2020/01/31 00:10:58.7	268.610	-0.010	-0.290	0.870
2020/01/31 00:10:58.8	268.570	-0.040	-0.280	0.850
2020/01/31 00:10:58.9	268.520	-0.070	-0.270	0.830
2020/01/31 00:10:59.0	268.480	-0.100	-0.260	0.810
2020/01/31 00:10:59.1	268.450	-0.130	-0.250	0.790
2020/01/31 00:10:59.2	268.420	-0.160	-0.250	0.770
2020/01/31 00:10:59.3	268.380	-0.190	-0.250	0.750
2020/01/31 00:10:59.4	268.350	-0.210	-0.250	0.730
2020/01/31 00:10:59.5	268.320	-0.240	-0.260	0.710
2020/01/31 00:10:59.6	268.290	-0.260	-0.270	0.690
2020/01/31 00:10:59.7	268.260	-0.280	-0.270	0.670
2020/01/31 00:10:59.8	268.240	-0.300	-0.290	0.650
2020/01/31 00:10:59.9	268.210	-0.320	-0.300	0.630
2020/01/31 00:11:00.0	268.190	-0.340	-0.310	0.620
2020/01/31 00:11:00.1	268.170	-0.360	-0.330	0.600
2020/01/31 00:11:00.2	268.150	-0.370	-0.350	0.590
2020/01/31 00:11:00.3	268.140	-0.380	-0.360	0.570
2020/01/31 00:11:00.4	268.120	-0.390	-0.380	0.560
2020/01/31 00:11:00.5	268.110	-0.400	-0.400	0.540
2020/01/31 00:11:00.6	268.100	-0.410	-0.420	0.530
2020/01/31 00:11:00.7	268.090	-0.420	-0.430	0.520
2020/01/31 00:11:00.8	268.090	-0.420	-0.450	0.510
2020/01/31 00:11:00.9	268.080	-0.430	-0.460	0.490
2020/01/31 00:11:01.0	268.080	-0.430	-0.480	0.480
2020/01/31 00:11:01.1	268.080	-0.430	-0.490	0.470
2020/01/31 00:11:01.2	268.090	-0.430	-0.500	0.460
2020/01/31 00:11:01.3	268.090	-0.420	-0.500	0.450
2020/01/31 00:11:01.4	268.100	-0.420	-0.500	0.440
2020/01/31 00:11:01.5	268.110	-0.420	-0.510	0.440
2020/01/31 00:11:01.6	268.130	-0.410	-0.500	0.430
2020/01/31 00:11:01.7	268.150	-0.400	-0.500	0.420
2020/01/31 00:11:01.8	268.160	-0.400	-0.490	0.410
2020/01/31 00:11:01.9	268.200	-0.390	-0.480	0.410
2020/01/31 00:11:02.0	268.220	-0.380	-0.470	0.400
2020/01/31 00:11:02.1	268.250	-0.370	-0.450	0.400
2020/01/31 00:11:02.2	268.270	-0.360	-0.430	0.400
2020/01/31 00:11:02.3	268.300	-0.340	-0.410	0.390
2020/01/31 00:11:02.4	268.340	-0.330	-0.380	0.390
2020/01/31 00:11:02.5	268.370	-0.320	-0.350	0.390
2020/01/31 00:11:02.6	268.410	-0.300	-0.330	0.400
2020/01/31 00:11:02.7	268.450	-0.290	-0.300	0.400
2020/01/31 00:11:02.8	268.490	-0.270	-0.260	0.400
2020/01/31 00:11:02.9	268.540	-0.260	-0.230	0.410
2020/01/31 00:11:03.0	268.590	-0.240	-0.200	0.420
2020/01/31 00:11:03.1	268.630	-0.220	-0.160	0.430
2020/01/31 00:11:03.2	268.680	-0.210	-0.130	0.440
2020/01/31 00:11:03.3	268.730	-0.190	-0.100	0.460
2020/01/31 00:11:03.4	268.780	-0.170	-0.070	0.470
2020/01/31 00:11:03.5	268.820	-0.150	-0.030	0.490
2020/01/31 00:11:03.6	268.870	-0.140	-0.000	0.510
2020/01/31 00:11:03.7	268.920	-0.120	0.030	0.530
2020/01/31 00:11:03.8	268.970	-0.100	0.050	0.550
2020/01/31 00:11:03.9	269.010	-0.080	0.080	0.570
2020/01/31 00:11:04.0	269.060	-0.060	0.100	0.590
2020/01/31 00:11:04.1	269.110	-0.040	0.120	0.620
2020/01/31 00:11:04.2	269.150	-0.020	0.140	0.650
2020/01/31 00:11:04.3	269.190	0.000	0.160	0.670
2020/01/31 00:11:04.4	269.230	0.020	0.180	0.700
2020/01/31 00:11:04.5	269.270	0.040	0.190	0.730
2020/01/31 00:11:04.6	269.310	0.060	0.210	0.760
2020/01/31 00:11:04.7	269.350	0.080	0.220	0.780
2020/01/31 00:11:04.8	269.380	0.100	0.230	0.810
2020/01/31 00:11:04.9	269.420	0.110	0.240	0.830
2020/01/31 00:11:05.0	269.450	0.130	0.240	0.850
2020/01/31 00:11:05.1	269.480	0.150	0.240	0.870
2020/01/31 00:11:05.2	269.500	0.170	0.250	0.890
2020/01/31 00:11:05.3	269.530	0.180	0.250	0.910
2020/01/31 00:11:05.4	269.550	0.200	0.240	0.920
2020/01/31 00:11:05.5	269.570	0.210	0.240	0.930
2020/01/31 00:11:05.6	269.590	0.230	0.230	0.940
2020/01/31 00:11:05.7	269.610	0.240	0.230	0.950
2020/01/31 00:11:05.8	269.630	0.250	0.220	0.950
2020/01/31 00:11:05.9	269.650	0.270	0.210	0.950
2020/01/31 00:11:06.0	269.660	0.280	0.200	0.950
2020/01/31 00:11:06.1	269.670	0.290	0.180	0.950
2020/01/31 00:11:06.2	269.680	0.300	0.170	0.940
2020/01/31 00:11:06.3	269.690	0.300	0.150	0.940
2020/01/31 00:11:06.4	269.700	0.310	0.130	0.930
2020/01/31 00:11:06.5	269.710	0.320	0.110	0.920
2020/01/31 00:11:06.6	269.710	0.320	0.080	0.900
2020/01/31 00:11:06.7	269.710	0.330	0.060	0.890
2020/01/31 00:11:06.8	269.710	0.330	0.040	0.870
2020/01/31 00:11:06.9	269.720	0.340	0.010	0.850
2020/01/31 00:11:07.0	269.720	0.340	-0.020	0.830
2020/01/31 00:11:07.1	269.710	0.340	-0.040	0.810
2020/01/31 00:11:07.2	269.710	0.340	-0.070	0.780
2020/01/31 00:11:07.3	269.700	0.340	-0.100	0.760
2020/01/31 00:11:07.4	269.700	0.340	-0.130	0.740
2020/01/31 00:11:07.5	269.690	0.340	-0.160	0.710
2020/01/31 00:11:07.6	269.690	0.340	-0.190	0.690
2020/01/31 00:11:07.7	269.680	0.340	-0.220	0.660
2020/01/31 00:11:07.8	269.670	0.330	-0.250	0.640
2020/01/31 00:11:07.9	269.670	0.330	-0.280	0.610
2020/01/31 00:11:08.0	269.660	0.330	-0.310	0.590
2020/01/31 00:11:08.1	269.650	0.320	-0.340	0.570
2020/01/31 00:11:08.2	269.650	0.310	-0.370	0.540
2020/01/31 00:11:08.3	269.640	0.310	-0.400	0.520
2020/01/31 00:11:08.4	269.630	0.300	-0.430	0.500
2020/01/31 00:11:08.5	269.610	0.300	-0.460	0.480
2020/01/31 00:11:08.6	269.600	0.290	-0.490	0.460
2020/01/31 00:11:08.7	269.590	0.280	-0.510	0.440
2020/01/31 00:11:08.8	269.580	0.270	-0.540	0.420
2020/01/31 00:11:08.9	269.560	0.270	-0.570	0.410
2020/01/31 00:11:09.0	269.550	0.260	-0.590	0.390
2020/01/31 00:11:09.1	269.540	0.250	-0.620	0.380
2020/01/31 00:11:09.2	269.520	0.240	-0.640	0.370
2020/01/31 00:11:09.3	269.500	0.230	-0.670	0.360
2020/01/31 00:11:09.4	269.490	0.230	-0.690	0.350
2020/01/31 00:11:09.5	269.470	0.220	-0.710	0.350
2020/01/31 00:11:09.6	269.450	0.210	-0.740	0.340
2020/01/31 00:11:09.7	269.440	0.200	-0.760	0.340
2020/01/31 00:11:09.8	269.420	0.190	-0.770	0.340
2020/01/31 00:11:09.9	269.410	0.180	-0.790	0.340
2020/01/31 00:11:10.0	269.390	0.170	-0.810	0.340
2020/01/31 00:11:10.1	269.370	0.170	-0.820	0.340
2020/01/31 00:11:10.2	269.350	0.160	-0.830	0.350
2020/01/31 00:11:10.3	269.330	0.150	-0.840	0.350
2020/01/31 00:11:10.4	269.310	0.140	-0.850	0.360
2020/01/31 00:11:10.5	269.290	0.130	-0.860	0.370
2020/01/31 00:11:10.6	269.270	0.120	-0.870	0.390
2020/01/31 00:11:10.7	269.240	0.110	-0.870	0.400
2020/01/31 00:11:10.8	269.220	0.100	-0.870	0.420
2020/01/31 00:11:10.9	269.190	0.090	-0.870	0.430
2020/01/31 00:11:11.0	269.160	0.070	-0.860	0.450
2020/01/31 00:11:11.1	269.140	0.060	-0.860	0.470
2020/01/31 00:11:11.2	269.120	0.050	-0.850	0.500
2020/01/31 00:11:11.3	269.100	0.030	-0.830	0.520
2020/01/31 00:11:11.4	269.080	0.020	-0.820	0.540
2020/01/31 00:11:11.5	269.060	0.000	-0.800	0.570
2020/01/31 00:11:11.6	269.040	-0.010	-0.780	0.590
2020/01/31 00:11:11.7	269.020	-0.030	-0.760	0.610
2020/01/31 00:11:11.8	269.000	-0.050	-0.740	0.630
2020/01/31 00:11:11.9	268.980	-0.070	-0.710	0.650
2020/01/31 00:11:12.0	268.960	-0.090	-0.690	0.680
2020/01/31 00:11:12.1	268.950	-0.110	-0.660	0.700
2020/01/31 00:11:12.2	268.930	-0.130	-0.630	0.720
2020/01/31 00:11:12.3	268.920	-0.150	-0.600	0.730
2020/01/31 00:11:12.4	268.900	-0.170	-0.570	0.750
2020/01/31 00:11:12.5	268.890	-0.190	-0.540	0.770
2020/01/31 00:11:12.6	268.880	-0.210	-0.510	0.780
2020/01/31 00:11:12.7	268.870	-0.240	-0.480	0.800
2020/01/31 00:11:12.8	268.860	-0.260	-0.440	0.810
2020/01/31 00:11:12.9	268.850	-0.280	-0.410	0.820
2020/01/31 00:11:13.0	268.840	-0.300	-0.380	0.830
2020/01/31 00:11:13.1	268.830	-0.320	-0.350	0.840
2020/01/31 00:11:13.2	268.830	-0.340	-0.320	0.850
2020/01/31 00:11:13.3	268.820	-0.360	-0.290	0.860
2020/01/31 00:11:13.4	268.820	-0.380	-0.260	0.870
2020/01/31 00:11:13.5	268.820	-0.400	-0.240	0.870
2020/01/31 00:11:13.6	268.810	-0.410	-0.210	0.880
2020/01/31 00:11:13.7	268.810	-0.430	-0.190	0.880
2020/01/31 00:11:13.8	268.810	-0.440	-0.160	0.890
2020/01/31 00:11:13.9	268.810	-0.450	-0.140	0.880
2020/01/31 00:11:14.0	268.820	-0.460	-0.120	0.880
2020/01/31 00:11:14.1	268.820	-0.470	-0.110	0.880
2020/01/31 00:11:14.2	268.830	-0.470	-0.090	0.880
2020/01/31 00:11:14.3	268.840	-0.480	-0.080	0.870
2020/01/31 00:11:14.4	268.850	-0.480	-0.060	0.870
2020/01/31 00:11:14.5	268.860	-0.480	-0.050	0.860
2020/01/31 00:11:14.6	268.870	-0.480	-0.040	0.850
2020/01/31 00:11:14.7	268.880	-0.470	-0.030	0.840
2020/01/31 00:11:14.8	268.890	-0.460	-0.030	0.840
2020/01/31 00:11:14.9	268.910	-0.450	-0.020	0.820
2020/01/31 00:11:15.0	268.920	-0.440	-0.020	0.810
2020/01/31 00:11:15.1	268.940	-0.430	-0.020	0.800
2020/01/31 00:11:15.2	268.950	-0.410	-0.010	0.790
2020/01/31 00:11:15.3	268.970	-0.400	-0.010	0.780
2020/01/31 00:11:15.4	268.990	-0.380	-0.010	0.770
2020/01/31 00:11:15.5	269.010	-0.360	-0.010	0.750
2020/01/31 00:11:15.6	269.020	-0.330	-0.010	0.740
2020/01/31 00:11:15.7	269.040	-0.310	-0.010	0.730
2020/01/31 00:11:15.8	269.060	-0.290	-0.010	0.710
2020/01/31 00:11:15.9	269.070	-0.260	-0.010	0.700
2020/01/31 00:11:16.0	269.100	-0.230	-0.020	0.690
2020/01/31 00:11:16.1	269.120	-0.200	-0.020	0.670
2020/01/31 00:11:16.2	269.140	-0.180	-0.030	0.660
2020/01/31 00:11:16.3	269.160	-0.150	-0.040	0.640
2020/01/31 00:11:16.4	269.180	-0.120	-0.050	0.630
2020/01/31 00:11:16.5	269.210	-0.090	-0.050	0.610
2020/01/31 00:11:16.6	269.230	-0.060	-0.060	0.600
2020/01/31 00:11:16.7	269.250	-0.030	-0.070	0.580
2020/01/31 00:11:16.8	269.280	0.000	-0.090	0.570
2020/01/31 00:11:16.9	269.300	0.030	-0.100	0.550
2020/01/31 00:11:17.0	269.330	0.060	-0.110	0.540
2020/01/31 00:11:17.1	269.350	0.090	-0.130	0.530
2020/01/31 00:11:17.2	269.370	0.110	-0.140	0.520
2020/01/31 00:11:17.3	269.390	0.140	-0.160	0.510
2020/01/31 00:11:17.4	269.410	0.170	-0.180	0.490
2020/01/31 00:11:17.5	269.430	0.190	-0.200	0.480
2020/01/31 00:11:17.6	269.450	0.210	-0.210	0.480
2020/01/31 00:11:17.7	269.470	0.240	-0.230	0.470
2020/01/31 00:11:17.8	269.490	0.260	-0.250	0.460
2020/01/31 00:11:17.9	269.500	0.280	-0.270	0.450
2020/01/31 00:11:18.0	269.520	0.300	-0.290	0.440
2020/01/31 00:11:18.1	269.540	0.310	-0.310	0.440
2020/01/31 00:11:18.2	269.550	0.330	-0.330	0.440
2020/01/31 00:11:18.3	269.560	0.340	-0.340	0.430
2020/01/31 00:11:18.4	269.570	0.350	-0.360	0.430
2020/01/31 00:11:18.5	269.580	0.360	-0.380	0.430
2020/01/31 00:11:18.6	269.590	0.370	-0.390	0.430
2020/01/31 00:11:18.7	269.600	0.380	-0.400	0.430
2020/01/31 00:11:18.8	269.610	0.380	-0.410	0.430
2020/01/31 00:11:18.9	269.620	0.380	-0.420	0.430
2020/01/31 00:11:19.0	269.630	0.380	-0.430	0.440
2020/01/31 00:11:19.1	269.630	0.380	-0.440	0.440
2020/01/31 00:11:19.2	269.630	0.380	-0.440	0.450
2020/01/31 00:11:19.3	269.640	0.370	-0.440	0.450
2020/01/31 00:11:19.4	269.640	0.370	-0.450	0.460
2020/01/31 00:11:19.5	269.640	0.360	-0.440	0.470
2020/01/31 00:11:19.6	269.640	0.340	-0.440	0.490
2020/01/31 00:11:19.7	269.640	0.330	-0.440	0.500
2020/01/31 00:11:19.8	269.630	0.320	-0.440	0.510
2020/01/31 00:11:19.9	269.630	0.300	-0.430	0.530
2020/01/31 00:11:20.0	269.630	0.280	-0.430	0.550
2020/01/31 00:11:20.1	269.620	0.260	-0.420	0.570
2020/01/31 00:11:20.2	269.610	0.240	-0.410	0.590
2020/01/31 00:11:20.3	269.600	0.220	-0.410	0.610
2020/01/31 00:11:20.4	269.590	0.200	-0.400	0.640
2020/01/31 00:11:20.5	269.570	0.180	-0.390	0.660
2020/01/31 00:11:20.6	269.550	0.160	-0.390	0.690
2020/01/31 00:11:20.7	269.540	0.140	-0.380	0.710
2020/01/31 00:11:20.8	269.520	0.110	-0.380	0.740
2020/01/31 00:11:20.9	269.500	0.090	-0.370	0.760
2020/01/31 00:11:21.0	269.480	0.070	-0.370	0.790
2020/01/31 00:11:21.1	269.450	0.050	-0.370	0.810
2020/01/31 00:11:21.2	269.430	0.020	-0.360	0.840
2020/01/31 00:11:21.3	269.400	0.000	-0.360	0.860
2020/01/31 00:11:21.4	269.380	-0.020	-0.360	0.880
2020/01/31 00:11:21.5	269.350	-0.040	-0.360	0.910
2020/01/31 00:11:21.6	269.320	-0.060	-0.360	0.930
2020/01/31 00:11:21.7	269.300	-0.080	-0.360	0.950
2020/01/31 00:11:21.8	269.270	-0.090	-0.370	0.970
2020/01/31 00:11:21.9	269.220	-0.110	-0.370	0.980
2020/01/31 00:11:22.0	269.190	-0.120	-0.370	1.000
2020/01/31 00:11:22.1	269.160	-0.140	-0.370	1.010
2020/01/31 00:11:22.2	269.130	-0.150	-0.380	1.020
2020/01/31 00:11:22.3	269.100	-0.160	-0.380	1.030
2020/01/31 00:11:22.4	269.070	-0.180	-0.380	1.040
2020/01/31 00:11:22.5	269.040	-0.190	-0.380	1.050
2020/01/31 00:11:22.6	269.010	-0.190	-0.390	1.060
2020/01/31 00:11:22.7	268.980	-0.200	-0.390	1.070
2020/01/31 00:11:22.8	268.950	-0.210	-0.390	1.080
2020/01/31 00:11:22.9	268.920	-0.220	-0.380	1.080
2020/01/31 00:11:23.0	268.900	-0.220	-0.380	1.080
2020/01/31 00:11:23.1	268.870	-0.220	-0.380	1.090
2020/01/31 00:11:23.2	268.840	-0.230	-0.380	1.090
2020/01/31 00:11:23.3	268.820	-0.230	-0.370	1.090
2020/01/31 00:11:23.4	268.790	-0.230	-0.360	1.090
2020/01/31 00:11:23.5	268.770	-0.230	-0.360	1.090
2020/01/31 00:11:23.6	268.740	-0.230	-0.350	1.090
2020/01/31 00:11:23.7	268.720	-0.230	-0.340	1.090
2020/01/31 00:11:23.8	268.700	-0.230	-0.320	1.090
2020/01/31 00:11:23.9	268.670	-0.230	-0.310	1.090
2020/01/31 00:11:24.0	268.650	-0.230	-0.290	1.090
2020/01/31 00:11:24.1	268.630	-0.220	-0.280	1.080
2020/01/31 00:11:24.2	268.610	-0.220	-0.260	1.080
2020/01/31 00:11:24.3	268.600	-0.220	-0.240	1.070
2020/01/31 00:11:24.4	268.580	-0.210	-0.220	1.060
2020/01/31 00:11:24.5	268.570	-0.210	-0.190	1.060
2020/01/31 00:11:24.6	268.560	-0.200	-0.170	1.050
2020/01/31 00:11:24.7	268.550	-0.200	-0.150	1.030
2020/01/31 00:11:24.8	268.540	-0.190	-0.120	1.020
2020/01/31 00:11:24.9	268.540	-0.180	-0.100	1.010
2020/01/31 00:11:25.0	268.530	-0.180	-0.070	0.990
2020/01/31 00:11:25.1	268.530	-0.170	-0.040	0.980
2020/01/31 00:11:25.2	268.530	-0.160	-0.020	0.960
2020/01/31 00:11:25.3	268.530	-0.150	0.010	0.940
2020/01/31 00:11:25.4	268.540	-0.150	0.030	0.930
2020/01/31 00:11:25.5	268.540	-0.140	0.060	0.910
2020/01/31 00:11:25.6	268.550	-0.130	0.080	0.890
2020/01/31 00:11:25.7	268.560	-0.120	0.100	0.870
2020/01/31 00:11:25.8	268.570	-0.110	0.130	0.850
2020/01/31 00:11:25.9	268.570	-0.100	0.150	0.830
2020/01/31 00:11:26.0	268.590	-0.090	0.170	0.810
2020/01/31 00:11:26.1	268.600	-0.080	0.180	0.790
2020/01/31 00:11:26.2	268.610	-0.070	0.200	0.770
2020/01/31 00:11:26.3	268.630	-0.050	0.210	0.740
2020/01/31 00:11:26.4	268.650	-0.040	0.220	0.720
2020/01/31 00:11:26.5	268.660	-0.030	0.220	0.700
2020/01/31 00:11:26.6	268.680	-0.010	0.230	0.690
2020/01/31 00:11:26.7	268.700	-0.000	0.230	0.670
2020/01/31 00:11:26.8	268.720	0.010	0.230	0.650
2020/01/31 00:11:26.9	268.740	0.030	0.220	0.630
2020/01/31 00:11:27.0	268.760	0.040	0.210	0.620
2020/01/31 00:11:27.1	268.780	0.060	0.200	0.600
2020/01/31 00:11:27.2	268.790	0.080	0.190	0.590
2020/01/31 00:11:27.3	268.810	0.090	0.170	0.580
2020/01/31 00:11:27.4	268.830	0.110	0.160	0.560
2020/01/31 00:11:27.5	268.850	0.130	0.140	0.550
2020/01/31 00:11:27.6	268.870	0.140	0.110	0.540
2020/01/31 00:11:27.7	268.890	0.160	0.090	0.540
2020/01/31 00:11:27.8	268.910	0.180	0.060	0.530
2020/01/31 00:11:27.9	268.920	0.200	0.030	0.530
2020/01/31 00:11:28.0	268.950	0.220	0.000	0.520
2020/01/31 00:11:28.1	268.960	0.240	-0.030	0.520
2020/01/31 00:11:28.2	268.980	0.260	-0.060	0.520
2020/01/31 00:11:28.3	268.990	0.270	-0.100	0.520
2020/01/31 00:11:28.4	269.010	0.290	-0.140	0.530
2020/01/31 00:11:28.5	269.020	0.310	-0.170	0.530
2020/01/31 00:11:28.6	269.040	0.330	-0.210	0.540
2020/01/31 00:11:28.7	269.050	0.350	-0.250	0.550
2020/01/31 00:11:28.8	269.060	0.370	-0.290	0.570
2020/01/31 00:11:28.9	269.070	0.390	-0.330	0.580
2020/01/31 00:11:29.0	269.080	0.400	-0.370	0.600
2020/01/31 00:11:29.1	269.090	0.420	-0.410	0.620
2020/01/31 00:11:29.2	269.090	0.430	-0.450	0.640
2020/01/31 00:11:29.3	269.100	0.450	-0.490	0.670
2020/01/31 00:11:29.4	269.110	0.460	-0.530	0.690
2020/01/31 00:11:29.5	269.110	0.480	-0.560	0.720
2020/01/31 00:11:29.6	269.120	0.490	-0.600	0.750
2020/01/31 00:11:29.7	269.120	0.500	-0.630	0.780
2020/01/31 00:11:29.8	269.130	0.510	-0.670	0.820
2020/01/31 00:11:29.9	269.150	0.520	-0.700	0.850
2020/01/31 00:11:30.0	269.150	0.520	-0.730	0.880
2020/01/31 00:11:30.1	269.150	0.530	-0.760	0.920
2020/01/31 00:11:30.2	269.150	0.530	-0.780	0.950
2020/01/31 00:11:30.3	269.150	0.530	-0.810	0.990
2020/01/31 00:11:30.4	269.150	0.530	-0.830	1.020
2020/01/31 00:11:30.5	269.150	0.530	-0.860	1.050
2020/01/31 00:11:30.6	269.150	0.530	-0.880	1.080
2020/01/31 00:11:30.7	269.140	0.520	-0.900	1.110
2020/01/31 00:11:30.8	269.140	0.520	-0.910	1.140
2020/01/31 00:11:30.9	269.130	0.510	-0.930	1.160
2020/01/31 00:11:31.0	269.120	0.500	-0.950	1.180
2020/01/31 00:11:31.1	269.120	0.490	-0.960	1.210
2020/01/31 00:11:31.2	269.110	0.470	-0.970	1.220
2020/01/31 00:11:31.3	269.110	0.450	-0.970	1.240
2020/01/31 00:11:31.4	269.100	0.430	-0.980	1.250
2020/01/31 00:11:31.5	269.090	0.410	-0.980	1.270
2020/01/31 00:11:31.6	269.080	0.390	-0.990	1.270
2020/01/31 00:11:31.7	269.070	0.370	-0.990	1.280
2020/01/31 00:11:31.8	269.070	0.340	-0.980	1.280
2020/01/31 00:11:31.9	269.060	0.310	-0.970	1.280
2020/01/31 00:11:32.0	269.050	0.280	-0.970	1.280
2020/01/31 00:11:32.1	269.040	0.250	-0.960	1.270
2020/01/31 00:11:32.2	269.030	0.210	-0.950	1.260
2020/01/31 00:11:32.3	269.020	0.180	-0.940	1.250
2020/01/31 00:11:32.4	269.010	0.140	-0.920	1.230
2020/01/31 00:11:32.5	269.000	0.100	-0.910	1.200
2020/01/31 00:11:32.6	268.990	0.070	-0.890	1.180
2020/01/31 00:11:32.7	268.980	0.030	-0.870	1.150
2020/01/31 00:11:32.8	268.980	-0.010	-0.860	1.120
2020/01/31 00:11:32.9	268.970	-0.050	-0.840	1.090
2020/01/31 00:11:33.0	268.960	-0.090	-0.820	1.050
2020/01/31 00:11:33.1	268.950	-0.130	-0.800	1.020
2020/01/31 00:11:33.2	268.940	-0.170	-0.780	0.980
2020/01/31 00:11:33.3	268.930	-0.210	-0.760	0.940
2020/01/31 00:11:33.4	268.930	-0.250	-0.730	0.900
2020/01/31 00:11:33.5	268.920	-0.290	-0.710	0.860
2020/01/31 00:11:33.6	268.910	-0.320	-0.690	0.820
2020/01/31 00:11:33.7	268.900	-0.360	-0.670	0.780
2020/01/31 00:11:33.8	268.900	-0.390	-0.650	0.740
2020/01/31 00:11:33.9	268.900	-0.420	-0.620	0.700
2020/01/31 00:11:34.0	268.890	-0.450	-0.600	0.660
2020/01/31 00:11:34.1	268.890	-0.480	-0.580	0.620
2020/01/31 00:11:34.2	268.880	-0.500	-0.560	0.580
2020/01/31 00:11:34.3	268.880	-0.520	-0.530	0.540
2020/01/31 00:11:34.4	268.870	-0.540	-0.510	0.500
2020/01/31 00:11:34.5	268.870	-0.560	-0.490	0.460
2020/01/31 00:11:34.6	268.870	-0.580	-0.470	0.420
2020/01/31 00:11:34.7	268.870	-0.590	-0.440	0.380
2020/01/31 00:11:34.8	268.870	-0.600	-0.420	0.340
2020/01/31 00:11:34.9	268.870	-0.610	-0.400	0.310
2020/01/31 00:11:35.0	268.870	-0.620	-0.380	0.270
2020/01/31 00:11:35.1	268.870	-0.620	-0.350	0.240
2020/01/31 00:11:35.2	268.880	-0.630	-0.330	0.210
2020/01/31 00:11:35.3	268.880	-0.630	-0.300	0.180
2020/01/31 00:11:35.4	268.880	-0.620	-0.280	0.160
2020/01/31 00:11:35.5	268.890	-0.620	-0.250	0.130
2020/01/31 00:11:35.6	268.900	-0.610	-0.220	0.110
2020/01/31 00:11:35.7	268.900	-0.610	-0.190	0.090
2020/01/31 00:11:35.8	268.910	-0.600	-0.170	0.080
2020/01/31 00:11:35.9	268.920	-0.590	-0.140	0.060
2020/01/31 00:11:36.0	268.930	-0.580	-0.100	0.050
2020/01/31 00:11:36.1	268.930	-0.570	-0.070	0.040
2020/01/31 00:11:36.2	268.940	-0.550	-0.040	0.030
2020/01/31 00:11:36.3	268.950	-0.540	-0.010	0.030
2020/01/31 00:11:36.4	268.960	-0.520	0.030	0.030
2020/01/31 00:11:36.5	268.970	-0.510	0.060	0.030
2020/01/31 00:11:36.6	268.970	-0.490	0.090	0.040
2020/01/31 00:11:36.7	268.980	-0.470	0.130	0.050
2020/01/31 00:11:36.8	268.990	-0.460	0.170	0.070
2020/01/31 00:11:36.9	269.010	-0.440	0.200	0.080
2020/01/31 00:11:37.0	269.010	-0.420	0.240	0.100
2020/01/31 00:11:37.1	269.020	-0.400	0.270	0.120
2020/01/31 00:11:37.2	269.030	-0.380	0.310	0.140
2020/01/31 00:11:37.3	269.040	-0.360	0.340	0.170
2020/01/31 00:11:37.4	269.050	-0.350	0.370	0.190
2020/01/31 00:11:37.5	269.060	-0.330	0.400	0.210
2020/01/31 00:11:37.6	269.060	-0.310	0.440	0.240
2020/01/31 00:11:37.7	269.070	-0.290	0.460	0.270
2020/01/31 00:11:37.8	269.080	-0.270	0.490	0.290
2020/01/31 00:11:37.9	269.080	-0.250	0.520	0.320
2020/01/31 00:11:38.0	269.090	-0.230	0.540	0.350
2020/01/31 00:11:38.1	269.100	-0.210	0.560	0.370
2020/01/31 00:11:38.2	269.100	-0.190	0.580	0.400
2020/01/31 00:11:38.3	269.110	-0.170	0.590	0.420
2020/01/31 00:11:38.4	269.120	-0.150	0.600	0.450
2020/01/31 00:11:38.5	269.120	-0.130	0.610	0.470
2020/01/31 00:11:38.6	269.130	-0.110	0.610	0.500
2020/01/31 00:11:38.7	269.140	-0.090	0.610	0.520
2020/01/31 00:11:38.8	269.140	-0.070	0.610	0.550
2020/01/31 00:11:38.9	269.150	-0.050	0.600	0.570
2020/01/31 00:11:39.0	269.150	-0.030	0.580	0.590
2020/01/31 00:11:39.1	269.160	-0.010	0.570	0.610
2020/01/31 00:11:39.2	269.160	0.010	0.550	0.630
2020/01/31 00:11:39.3	269.170	0.030	0.520	0.660
2020/01/31 00:11:39.4	269.170	0.060	0.490	0.670
2020/01/31 00:11:39.5	269.170	0.080	0.460	0.690
2020/01/31 00:11:39.6	269.180	0.100	0.420	0.710
2020/01/31 00:11:39.7	269.180	0.120	0.380	0.730
2020/01/31 00:11:39.8	269.180	0.150	0.340	0.750
2020/01/31 00:11:39.9	269.160	0.170	0.290	0.760
2020/01/31 00:11:40.0	269.160	0.190	0.240	0.780
2020/01/31 00:11:40.1	269.160	0.210	0.190	0.800
2020/01/31 00:11:40.2	269.160	0.240	0.140	0.810
2020/01/31 00:11:40.3	269.160	0.260	0.080	0.830
2020/01/31 00:11:40.4	269.160	0.280	0.020	0.840
2020/01/31 00:11:40.5	269.160	0.300	-0.030	0.860
2020/01/31 00:11:40.6	269.160	0.330	-0.090	0.870
2020/01/31 00:11:40.7	269.160	0.350	-0.150	0.880
2020/01/31 00:11:40.8	269.150	0.370	-0.210	0.890
2020/01/31 00:11:40.9	269.150	0.390	-0.270	0.900
2020/01/31 00:11:41.0	269.140	0.410	-0.330	0.910
2020/01/31 00:11:41.1	269.130	0.430	-0.390	0.910
2020/01/31 00:11:41.2	269.130	0.440	-0.450	0.910
2020/01/31 00:11:41.3	269.120	0.460	-0.500	0.920
2020/01/31 00:11:41.4	269.110	0.480	-0.550	0.920
2020/01/31 00:11:41.5	269.100	0.490	-0.600	0.910
2020/01/31 00:11:41.6	269.090	0.500	-0.650	0.910
2020/01/31 00:11:41.7	269.080	0.510	-0.690	0.900
2020/01/31 00:11:41.8	269.060	0.520	-0.730	0.900
2020/01/31 00:11:41.9	269.050	0.530	-0.770	0.890
2020/01/31 00:11:42.0	269.020	0.530	-0.800	0.870
2020/01/31 00:11:42.1	269.000	0.540	-0.830	0.860
2020/01/31 00:11:42.2	268.990	0.540	-0.860	0.840
2020/01/31 00:11:42.3	268.970	0.540	-0.880	0.830
2020/01/31 00:11:42.4	268.960	0.540	-0.910	0.810
2020/01/31 00:11:42.5	268.940	0.530	-0.920	0.790
2020/01/31 00:11:42.6	268.920	0.520	-0.940	0.770
2020/01/31 00:11:42.7	268.900	0.520	-0.950	0.750
2020/01/31 00:11:42.8	268.880	0.510	-0.960	0.730
2020/01/31 00:11:42.9	268.870	0.490	-0.960	0.700
2020/01/31 00:11:43.0	268.850	0.480	-0.970	0.680
2020/01/31 00:11:43.1	268.830	0.470	-0.960	0.660
2020/01/31 00:11:43.2	268.810	0.450	-0.960	0.640
2020/01/31 00:11:43.3	268.790	0.430	-0.960	0.620
2020/01/31 00:11:43.4	268.770	0.410	-0.950	0.610
2020/01/31 00:11:43.5	268.750	0.390	-0.940	0.590
2020/01/31 00:11:43.6	268.740	0.370	-0.930	0.570
2020/01/31 00:11:43.7	268.720	0.340	-0.910	0.560
2020/01/31 00:11:43.8	268.700	0.320	-0.900	0.550
2020/01/31 00:11:43.9	268.680	0.290	-0.880	0.530
2020/01/31 00:11:44.0	268.670	0.270	-0.860	0.520
2020/01/31 00:11:44.1	268.650	0.240	-0.840	0.510
2020/01/31 00:11:44.2	268.630	0.210	-0.820	0.500
2020/01/31 00:11:44.3	268.620	0.190	-0.800	0.490
2020/01/31 00:11:44.4	268.610	0.160	-0.770	0.480
2020/01/31 00:11:44.5	268.600	0.130	-0.750	0.470
2020/01/31 00:11:44.6	268.590	0.110	-0.730	0.470
2020/01/31 00:11:44.7	268.580	0.080	-0.700	0.460
2020/01/31 00:11:44.8	268.570	0.050	-0.680	0.450
2020/01/31 00:11:44.9	268.560	0.030	-0.660	0.450
2020/01/31 00:11:45.0	268.560	0.000	-0.640	0.440
2020/01/31 00:11:45.1	268.560	-0.020	-0.610	0.430
2020/01/31 00:11:45.2	268.560	-0.040	-0.590	0.430
2020/01/31 00:11:45.3	268.560	-0.060	-0.570	0.420
2020/01/31 00:11:45.4	268.560	-0.080	-0.550	0.410
2020/01/31 00:11:45.5	268.570	-0.100	-0.530	0.400
2020/01/31 00:11:45.6	268.570	-0.120	-0.510	0.390
2020/01/31 00:11:45.7	268.580	-0.140	-0.490	0.380
2020/01/31 00:11:45.8	268.590	-0.150	-0.470	0.380
2020/01/31 00:11:45.9	268.600	-0.160	-0.450	0.370
2020/01/31 00:11:46.0	268.620	-0.180	-0.440	0.360
2020/01/31 00:11:46.1	268.630	-0.190	-0.420	0.350
2020/01/31 00:11:46.2	268.650	-0.200	-0.400	0.350
2020/01/31 00:11:46.3	268.660	-0.200	-0.390	0.340
2020/01/31 00:11:46.4	268.680	-0.210	-0.370	0.330
2020/01/31 00:11:46.5	268.700	-0.210	-0.360	0.330
2020/01/31 00:11:46.6	268.720	-0.220	-0.350	0.330
2020/01/31 00:11:46.7	268.740	-0.220	-0.330	0.330
2020/01/31 00:11:46.8	268.760	-0.220	-0.320	0.330
2020/01/31 00:11:46.9	268.780	-0.220	-0.310	0.330
2020/01/31 00:11:47.0	268.800	-0.220	-0.300	0.330
2020/01/31 00:11:47.1	268.830	-0.210	-0.290	0.330
2020/01/31 00:11:47.2	268.850	-0.210	-0.280	0.340
2020/01/31 00:11:47.3	268.870	-0.200	-0.270	0.350
2020/01/31 00:11:47.4	268.890	-0.200	-0.260	0.350
2020/01/31 00:11:47.5	268.910	-0.190	-0.250	0.370
2020/01/31 00:11:47.6	268.920	-0.190	-0.250	0.380
2020/01/31 00:11:47.7	268.940	-0.180	-0.240	0.390
2020/01/31 00:11:47.8	268.960	-0.180	-0.230	0.410
2020/01/31 00:11:47.9	268.980	-0.170	-0.220	0.420
2020/01/31 00:11:48.0	268.990	-0.160	-0.210	0.440
2020/01/31 00:11:48.1	269.010	-0.160	-0.200	0.460
2020/01/31 00:11:48.2	269.020	-0.150	-0.190	0.480
2020/01/31 00:11:48.3	269.040	-0.150	-0.190	0.500
2020/01/31 00:11:48.4	269.050	-0.140	-0.180	0.520
2020/01/31 00:11:48.5	269.060	-0.140	-0.170	0.540
2020/01/31 00:11:48.6	269.070	-0.130	-0.160	0.560
2020/01/31 00:11:48.7	269.080	-0.130	-0.150	0.580
2020/01/31 00:11:48.8	269.090	-0.130	-0.140	0.600
2020/01/31 00:11:48.9	269.110	-0.130	-0.130	0.620
2020/01/31 00:11:49.0	269.120	-0.130	-0.110	0.640
2020/01/31 00:11:49.1	269.120	-0.130	-0.100	0.650
2020/01/31 00:11:49.2	269.130	-0.130	-0.090	0.670
2020/01/31 00:11:49.3	269.130	-0.130	-0.080	0.690
2020/01/31 00:11:49.4	269.130	-0.130	-0.070	0.700
2020/01/31 00:11:49.5	269.140	-0.130	-0.060	0.710
2020/01/31 00:11:49.6	269.140	-0.140	-0.050	0.730
2020/01/31 00:11:49.7	269.140	-0.140	-0.030	0.740
2020/01/31 00:11:49.8	269.140	-0.150	-0.020	0.750
2020/01/31 00:11:49.9	269.150	-0.150	-0.010	0.760
2020/01/31 00:11:50.0	269.150	-0.160	0.000	0.770
2020/01/31 00:11:50.1	269.140	-0.170	0.010	0.780
2020/01/31 00:11:50.2	269.140	-0.170	0.020	0.790
2020/01/31 00:11:50.3	269.140	-0.180	0.030	0.790
2020/01/31 00:11:50.4	269.130	-0.190	0.030	0.800
2020/01/31 00:11:50.5	269.130	-0.190	0.040	0.800
2020/01/31 00:11:50.6	269.130	-0.200	0.050	0.810
2020/01/31 00:11:50.7	269.120	-0.200	0.050	0.810
2020/01/31 00:11:50.8	269.120	-0.210	0.050	0.810
2020/01/31 00:11:50.9	269.120	-0.210	0.050	0.810
2020/01/31 00:11:51.0	269.120	-0.220	0.050	0.810
2020/01/31 00:11:51.1	269.110	-0.220	0.040	0.800
2020/01/31 00:11:51.2	269.100	-0.220	0.040	0.800
2020/01/31 00:11:51.3	269.090	-0.220	0.030	0.800
2020/01/31 00:11:51.4	269.090	-0.220	0.020	0.790
2020/01/31 00:11:51.5	269.080	-0.220	0.010	0.780
2020/01/31 00:11:51.6	269.070	-0.210	-0.000	0.780
2020/01/31 00:11:51.7	269.060	-0.210	-0.020	0.770
2020/01/31 00:11:51.8	269.050	-0.200	-0.030	0.760
2020/01/31 00:11:51.9	269.040	-0.200	-0.050	0.750
2020/01/31 00:11:52.0	269.020	-0.190	-0.070	0.740
2020/01/31 00:11:52.1	269.010	-0.180	-0.090	0.730
2020/01/31 00:11:52.2	269.000	-0.160	-0.120	0.710
2020/01/31 00:11:52.3	268.980	-0.150	-0.140	0.700
2020/01/31 00:11:52.4	268.970	-0.140	-0.170	0.680
2020/01/31 00:11:52.5	268.960	-0.120	-0.190	0.670
2020/01/31 00:11:52.6	268.940	-0.110	-0.220	0.650
2020/01/31 00:11:52.7	268.930	-0.090	-0.250	0.640
2020/01/31 00:11:52.8	268.920	-0.070	-0.280	0.620
2020/01/31 00:11:52.9	268.900	-0.050	-0.310	0.600
2020/01/31 00:11:53.0	268.890	-0.030	-0.340	0.590
2020/01/31 00:11:53.1	268.870	-0.020	-0.370	0.570
2020/01/31 00:11:53.2	268.860	0.000	-0.390	0.550
2020/01/31 00:11:53.3	268.850	0.020	-0.420	0.540
2020/01/31 00:11:53.4	268.830	0.040	-0.440	0.520
2020/01/31 00:11:53.5	268.820	0.060	-0.470	0.500
2020/01/31 00:11:53.6	268.810	0.080	-0.490	0.490
2020/01/31 00:11:53.7	268.800	0.100	-0.510	0.480
2020/01/31 00:11:53.8	268.790	0.110	-0.520	0.460
2020/01/31 00:11:53.9	268.770	0.130	-0.540	0.450
2020/01/31 00:11:54.0	268.760	0.140	-0.550	0.440
2020/01/31 00:11:54.1	268.750	0.160	-0.560	0.430
2020/01/31 00:11:54.2	268.740	0.170	-0.570	0.420
2020/01/31 00:11:54.3	268.730	0.180	-0.580	0.420
2020/01/31 00:11:54.4	268.720	0.190	-0.580	0.410
2020/01/31 00:11:54.5	268.710	0.200	-0.590	0.410
2020/01/31 00:11:54.6	268.700	0.200	-0.590	0.400
2020/01/31 00:11:54.7	268.690	0.210	-0.590	0.400
2020/01/31 00:11:54.8	268.680	0.210	-0.580	0.400
2020/01/31 00:11:54.9	268.680	0.210	-0.580	0.400
2020/01/31 00:11:55.0	268.670	0.210	-0.580	0.400
2020/01/31 00:11:55.1	268.660	0.210	-0.570	0.410
2020/01/31 00:11:55.2	268.650	0.210	-0.560	0.410
2020/01/31 00:11:55.3	268.650	0.200	-0.550	0.420
2020/01/31 00:11:55.4	268.640	0.200	-0.540	0.430
2020/01/31 00:11:55.5	268.630	0.190	-0.530	0.430
2020/01/31 00:11:55.6	268.630	0.180	-0.520	0.440
2020/01/31 00:11:55.7	268.620	0.170	-0.510	0.450
2020/01/31 00:11:55.8	268.620	0.160	-0.500	0.470
2020/01/31 00:11:55.9	268.610	0.150	-0.490	0.470
2020/01/31 00:11:56.0	268.610	0.140	-0.480	0.490
2020/01/31 00:11:56.1	268.610	0.130	-0.470	0.500
2020/01/31 00:11:56.2	268.600	0.120	-0.450	0.510
2020/01/31 00:11:56.3	268.600	0.100	-0.440	0.530
2020/01/31 00:11:56.4	268.600	0.090	-0.430	0.540
2020/01/31 00:11:56.5	268.610	0.080	-0.420	0.560
2020/01/31 00:11:56.6	268.610	0.060	-0.400	0.570
2020/01/31 00:11:56.7	268.610	0.050	-0.390	0.590
2020/01/31 00:11:56.8	268.620	0.040	-0.380	0.600
2020/01/31 00:11:56.9	268.610	0.020	-0.370	0.620
2020/01/31 00:11:57.0	268.610	0.010	-0.360	0.640
2020/01/31 00:11:57.1	268.620	-0.000	-0.350	0.660
2020/01/31 00:11:57.2	268.620	-0.010	-0.330	0.680
2020/01/31 00:11:57.3	268.630	-0.030	-0.320	0.700
2020/01/31 00:11:57.4	268.630	-0.040	-0.310	0.720
2020/01/31 00:11:57.5	268.640	-0.040	-0.300	0.740
2020/01/31 00:11:57.6	268.640	-0.050	-0.290	0.760
2020/01/31 00:11:57.7	268.650	-0.060	-0.280	0.780
2020/01/31 00:11:57.8	268.650	-0.070	-0.270	0.800
2020/01/31 00:11:57.9	268.650	-0.070	-0.260	0.820
2020/01/31 00:11:58.0	268.650	-0.080	-0.250	0.850
2020/01/31 00:11:58.1	268.660	-0.080	-0.240	0.870
2020/01/31 00:11:58.2	268.660	-0.090	-0.230	0.890
2020/01/31 00:11:58.3	268.660	-0.090	-0.220	0.920
2020/01/31 00:11:58.4	268.670	-0.090	-0.210	0.940
2020/01/31 00:11:58.5	268.670	-0.090	-0.200	0.960
2020/01/31 00:11:58.6	268.670	-0.090	-0.190	0.990
2020/01/31 00:11:58.7	268.680	-0.080	-0.180	1.010
2020/01/31 00:11:58.8	268.680	-0.080	-0.170	1.040
2020/01/31 00:11:58.9	268.680	-0.080	-0.170	1.060
2020/01/31 00:11:59.0	268.680	-0.070	-0.160	1.080
2020/01/31 00:11:59.1	268.680	-0.070	-0.150	1.100
2020/01/31 00:11:59.2	268.680	-0.060	-0.140	1.120
2020/01/31 00:11:59.3	268.680	-0.050	-0.130	1.140
2020/01/31 00:11:59.4	268.680	-0.040	-0.120	1.160
2020/01/31 00:11:59.5	268.680	-0.030	-0.120	1.180
2020/01/31 00:11:59.6	268.670	-0.020	-0.110	1.190
2020/01/31 00:11:59.7	268.670	-0.010	-0.100	1.210
2020/01/31 00:11:59.8	268.670	-0.000	-0.100	1.220
2020/01/31 00:11:59.9	268.660	0.010	-0.100	1.230
2020/01/31 00:12:00.0	268.650	0.020	-0.090	1.250
2020/01/31 00:12:00.1	268.650	0.040	-0.090	1.250
2020/01/31 00:12:00.2	268.640	0.050	-0.090	1.260
2020/01/31 00:12:00.3	268.630	0.070	-0.100	1.270
2020/01/31 00:12:00.4	268.620	0.080	-0.100	1.270
2020/01/31 00:12:00.5	268.600	0.090	-0.110	1.280
2020/01/31 00:12:00.6	268.590	0.110	-0.110	1.280
2020/01/31 00:12:00.7	268.580	0.120	-0.120	1.280
2020/01/31 00:12:00.8	268.570	0.130	-0.130	1.270
2020/01/31 00:12:00.9	268.550	0.150	-0.140	1.270
2020/01/31 00:12:01.0	268.530	0.160	-0.150	1.270
2020/01/31 00:12:01.1	268.520	0.170	-0.170	1.260
2020/01/31 00:12:01.2	268.500	0.180	-0.180	1.250
2020/01/31 00:12:01.3	268.490	0.200	-0.190	1.240
2020/01/31 00:12:01.4	268.480	0.210	-0.200	1.230
2020/01/31 00:12:01.5	268.460	0.210	-0.220	1.220
2020/01/31 00:12:01.6	268.450	0.220	-0.230	1.200
2020/01/31 00:12:01.7	268.430	0.230	-0.240	1.190
2020/01/31 00:12:01.8	268.420	0.230	-0.250	1.170
2020/01/31 00:12:01.9	268.410	0.240	-0.270	1.150
2020/01/31 00:12:02.0	268.400	0.240	-0.280	1.130
2020/01/31 00:12:02.1	268.390	0.240	-0.290	1.100
2020/01/31 00:12:02.2	268.380	0.240	-0.300	1.080
2020/01/31 00:12:02.3	268.370	0.240	-0.310	1.060
2020/01/31 00:12:02.4	268.360	0.240	-0.320	1.030
2020/01/31 00:12:02.5	268.360	0.240	-0.320	1.000
2020/01/31 00:12:02.6	268.350	0.230	-0.330	0.970
2020/01/31 00:12:02.7	268.350	0.230	-0.330	0.950
2020/01/31 00:12:02.8	268.340	0.220	-0.340	0.910
2020/01/31 00:12:02.9	268.350	0.210	-0.330	0.890
2020/01/31 00:12:03.0	268.350	0.210	-0.330	0.850
2020/01/31 00:12:03.1	268.350	0.200	-0.330	0.820
2020/01/31 00:12:03.2	268.350	0.190	-0.330	0.790
2020/01/31 00:12:03.3	268.360	0.170	-0.330	0.760
2020/01/31 00:12:03.4	268.360	0.160	-0.330	0.720
2020/01/31 00:12:03.5	268.370	0.150	-0.330	0.690
2020/01/31 00:12:03.6	268.380	0.140	-0.330	0.660
2020/01/31 00:12:03.7	268.390	0.120	-0.330	0.620
2020/01/31 00:12:03.8	268.400	0.110	-0.320	0.590
2020/01/31 00:12:03.9	268.410	0.100	-0.320	0.560
2020/01/31 00:12:04.0	268.420	0.080	-0.320	0.520
2020/01/31 00:12:04.1	268.440	0.070	-0.320	0.490
2020/01/31 00:12:04.2	268.450	0.060	-0.320	0.460
2020/01/31 00:12:04.3	268.460	0.050	-0.320	0.430
2020/01/31 00:12:04.4	268.480	0.040	-0.320	0.410
2020/01/31 00:12:04.5	268.500	0.020	-0.320	0.380
2020/01/31 00:12:04.6	268.510	0.010	-0.320	0.360
2020/01/31 00:12:04.7	268.530	0.000	-0.330	0.330
2020/01/31 00:12:04.8	268.550	-0.000	-0.330	0.310
2020/01/31 00:12:04.9	268.580	-0.010	-0.340	0.290
2020/01/31 00:12:05.0	268.600	-0.020	-0.340	0.270
2020/01/31 00:12:05.1	268.620	-0.030	-0.350	0.260
2020/01/31 00:12:05.2	268.640	-0.030	-0.360	0.240
2020/01/31 00:12:05.3	268.660	-0.040	-0.370	0.230
2020/01/31 00:12:05.4	268.690	-0.040	-0.380	0.210
2020/01/31 00:12:05.5	268.710	-0.040	-0.390	0.200
2020/01/31 00:12:05.6	268.730	-0.040	-0.400	0.190
2020/01/31 00:12:05.7	268.750	-0.040	-0.420	0.190
2020/01/31 00:12:05.8	268.780	-0.040	-0.430	0.180
2020/01/31 00:12:05.9	268.800	-0.040	-0.440	0.180
2020/01/31 00:12:06.0	268.830	-0.040	-0.460	0.180
2020/01/31 00:12:06.1	268.850	-0.040	-0.470	0.180
2020/01/31 00:12:06.2	268.870	-0.040	-0.490	0.190
2020/01/31 00:12:06.3	268.890	-0.040	-0.500	0.200
2020/01/31 00:12:06.4	268.910	-0.030	-0.520	0.210
2020/01/31 00:12:06.5	268.930	-0.030	-0.530	0.220
2020/01/31 00:12:06.6	268.950	-0.030	-0.550	0.240
2020/01/31 00:12:06.7	268.960	-0.020	-0.560	0.260
2020/01/31 00:12:06.8	268.980	-0.020	-0.580	0.280
2020/01/31 00:12:06.9	269.000	-0.020	-0.580	0.300
2020/01/31 00:12:07.0	269.010	-0.010	-0.600	0.330
2020/01/31 00:12:07.1	269.020	-0.010	-0.610	0.360
2020/01/31 00:12:07.2	269.020	-0.010	-0.620	0.400
2020/01/31 00:12:07.3	269.030	-0.010	-0.620	0.430
2020/01/31 00:12:07.4	269.030	-0.010	-0.630	0.470
2020/01/31 00:12:07.5	269.030	-0.010	-0.630	0.500
2020/01/31 00:12:07.6	269.030	-0.020	-0.640	0.540
2020/01/31 00:12:07.7	269.020	-0.020	-0.640	0.580
2020/01/31 00:12:07.8	269.020	-0.030	-0.640	0.620
2020/01/31 00:12:07.9	269.010	-0.030	-0.640	0.660
2020/01/31 00:12:08.0	269.000	-0.040	-0.630	0.690
2020/01/31 00:12:08.1	268.990	-0.050	-0.620	0.730
2020/01/31 00:12:08.2	268.980	-0.060	-0.610	0.770
2020/01/31 00:12:08.3	268.970	-0.070	-0.600	0.800
2020/01/31 00:12:08.4	268.960	-0.080	-0.580	0.830
2020/01/31 00:12:08.5	268.950	-0.100	-0.570	0.860
2020/01/31 00:12:08.6	268.930	-0.110	-0.550	0.890
2020/01/31 00:12:08.7	268.920	-0.130	-0.530	0.920
2020/01/31 00:12:08.8	268.910	-0.150	-0.500	0.940
2020/01/31 00:12:08.9	268.890	-0.170	-0.480	0.960
2020/01/31 00:12:09.0	268.870	-0.180	-0.450	0.980
2020/01/31 00:12:09.1	268.860	-0.200	-0.430	1.000
2020/01/31 00:12:09.2	268.840	-0.220	-0.400	1.010
2020/01/31 00:12:09.3	268.830	-0.240	-0.370	1.030
2020/01/31 00:12:09.4	268.810	-0.260	-0.340	1.040
2020/01/31 00:12:09.5	268.790	-0.280	-0.320	1.050
2020/01/31 00:12:09.6	268.780	-0.300	-0.290	1.060
2020/01/31 00:12:09.7	268.760	-0.310	-0.260	1.060
2020/01/31 00:12:09.8	268.740	-0.330	-0.240	1.060
2020/01/31 00:12:09.9	268.710	-0.350	-0.210	1.070
2020/01/31 00:12:10.0	268.690	-0.360	-0.190	1.070
2020/01/31 00:12:10.1	268.680	-0.380	-0.160	1.060
2020/01/31 00:12:10.2	268.660	-0.390	-0.140	1.060
2020/01/31 00:12:10.3	268.640	-0.400	-0.120	1.050
2020/01/31 00:12:10.4	268.620	-0.410	-0.100	1.040
2020/01/31 00:12:10.5	268.600	-0.410	-0.090	1.030
2020/01/31 00:12:10.6	268.580	-0.420	-0.070	1.010
2020/01/31 00:12:10.7	268.560	-0.420	-0.060	1.000
2020/01/31 00:12:10.8	268.540	-0.420	-0.040	0.980
2020/01/31 00:12:10.9	268.520	-0.420	-0.030	0.960
2020/01/31 00:12:11.0	268.500	-0.420	-0.020	0.940
2020/01/31 00:12:11.1	268.480	-0.410	-0.010	0.920
2020/01/31 00:12:11.2	268.470	-0.410	-0.010	0.900
2020/01/31 00:12:11.3	268.450	-0.400	-0.010	0.880
2020/01/31 00:12:11.4	268.430	-0.390	-0.010	0.860
2020/01/31 00:12:11.5	268.420	-0.370	-0.010	0.840
2020/01/31 00:12:11.6	268.400	-0.360	-0.010	0.820
2020/01/31 00:12:11.7	268.390	-0.340	-0.010	0.800
2020/01/31 00:12:11.8	268.380	-0.330	-0.010	0.780
2020/01/31 00:12:11.9	268.370	-0.310	-0.020	0.770
2020/01/31 00:12:12.0	268.360	-0.290	-0.030	0.750
2020/01/31 00:12:12.1	268.350	-0.270	-0.040	0.730
2020/01/31 00:12:12.2	268.340	-0.240	-0.050	0.710
2020/01/31 00:12:12.3	268.340	-0.220	-0.050	0.700
2020/01/31 00:12:12.4	268.330	-0.200	-0.060	0.680
2020/01/31 00:12:12.5	268.330	-0.170	-0.070	0.660
2020/01/31 00:12:12.6	268.330	-0.150	-0.080	0.650
2020/01/31 00:12:12.7	268.320	-0.120	-0.090	0.640
2020/01/31 00:12:12.8	268.320	-0.100	-0.100	0.630
2020/01/31 00:12:12.9	268.320	-0.070	-0.100	0.610
2020/01/31 00:12:13.0	268.310	-0.050	-0.110	0.600
2020/01/31 00:12:13.1	268.310	-0.020	-0.120	0.590
2020/01/31 00:12:13.2	268.310	-0.000	-0.120	0.590
2020/01/31 00:12:13.3	268.310	0.020	-0.130	0.580
2020/01/31 00:12:13.4	268.310	0.050	-0.140	0.580
2020/01/31 00:12:13.5	268.320	0.070	-0.140	0.570
2020/01/31 00:12:13.6	268.320	0.090	-0.150	0.570
2020/01/31 00:12:13.7	268.330	0.110	-0.150	0.570
2020/01/31 00:12:13.8	268.330	0.130	-0.150	0.570
2020/01/31 00:12:13.9	268.350	0.150	-0.160	0.570
2020/01/31 00:12:14.0	268.360	0.170	-0.160	0.570
2020/01/31 00:12:14.1	268.360	0.190	-0.160	0.580
2020/01/31 00:12:14.2	268.370	0.210	-0.160	0.580
2020/01/31 00:12:14.3	268.390	0.220	-0.160	0.590
2020/01/31 00:12:14.4	268.400	0.240	-0.160	0.590
2020/01/31 00:12:14.5	268.410	0.250	-0.160	0.600
2020/01/31 00:12:14.6	268.420	0.270	-0.160	0.610
2020/01/31 00:12:14.7	268.440	0.280	-0.160	0.610
2020/01/31 00:12:14.8	268.450	0.290	-0.160	0.620
2020/01/31 00:12:14.9	268.470	0.310	-0.160	0.630
2020/01/31 00:12:15.0	268.490	0.320	-0.150	0.640
2020/01/31 00:12:15.1	268.510	0.330	-0.150	0.650
2020/01/31 00:12:15.2	268.530	0.340	-0.150	0.660
2020/01/31 00:12:15.3	268.550	0.350	-0.150	0.670
2020/01/31 00:12:15.4	268.570	0.350	-0.150	0.680
2020/01/31 00:12:15.5	268.590	0.360	-0.150	0.690
2020/01/31 00:12:15.6	268.620	0.370	-0.150	0.700
2020/01/31 00:12:15.7	268.640	0.370	-0.150	0.710
2020/01/31 00:12:15.8	268.670	0.380	-0.150	0.720
2020/01/31 00:12:15.9	268.700	0.390	-0.150	0.720
2020/01/31 00:12:16.0	268.720	0.390	-0.160	0.730
2020/01/31 00:12:16.1	268.750	0.390	-0.160	0.740
2020/01/31 00:12:16.2	268.780	0.400	-0.170	0.740
2020/01/31 00:12:16.3	268.800	0.400	-0.180	0.750
2020/01/31 00:12:16.4	268.830	0.410	-0.190	0.750
2020/01/31 00:12:16.5	268.860	0.410	-0.200	0.750
2020/01/31 00:12:16.6	268.880	0.410	-0.220	0.760
2020/01/31 00:12:16.7	268.910	0.410	-0.230	0.760
2020/01/31 00:12:16.8	268.940	0.420	-0.250	0.760
2020/01/31 00:12:16.9	268.980	0.420	-0.270	0.760
2020/01/31 00:12:17.0	269.010	0.420	-0.290	0.760
2020/01/31 00:12:17.1	269.030	0.420	-0.310	0.760
2020/01/31 00:12:17.2	269.060	0.420	-0.340	0.760
2020/01/31 00:12:17.3	269.080	0.430	-0.360	0.770
2020/01/31 00:12:17.4	269.100	0.430	-0.390	0.770
2020/01/31 00:12:17.5	269.120	0.430	-0.420	0.770
2020/01/31 00:12:17.6	269.140	0.430	-0.450	0.770
2020/01/31 00:12:17.7	269.160	0.430	-0.480	0.770
2020/01/31 00:12:17.8	269.180	0.430	-0.520	0.780
2020/01/31 00:12:17.9	269.200	0.430	-0.550	0.780
2020/01/31 00:12:18.0	269.220	0.430	-0.590	0.780
2020/01/31 00:12:18.1	269.230	0.430	-0.620	0.790
2020/01/31 00:12:18.2	269.240	0.430	-0.660	0.790
2020/01/31 00:12:18.3	269.250	0.430	-0.690	0.800
2020/01/31 00:12:18.4	269.250	0.420	-0.730	0.810
2020/01/31 00:12:18.5	269.260	0.420	-0.760	0.810
2020/01/31 00:12:18.6	269.260	0.410	-0.790	0.820
2020/01/31 00:12:18.7	269.260	0.410	-0.820	0.830
2020/01/31 00:12:18.8	269.270	0.400	-0.850	0.840
2020/01/31 00:12:18.9	269.260	0.390	-0.870	0.840
2020/01/31 00:12:19.0	269.250	0.380	-0.890	0.850
2020/01/31 00:12:19.1	269.250	0.370	-0.910	0.860
2020/01/31 00:12:19.2	269.250	0.350	-0.920	0.870
2020/01/31 00:12:19.3	269.240	0.340	-0.930	0.880
2020/01/31 00:12:19.4	269.230	0.320	-0.940	0.890
2020/01/31 00:12:19.5	269.230	0.300	-0.940	0.900
2020/01/31 00:12:19.6	269.220	0.280	-0.940	0.900
2020/01/31 00:12:19.7	269.210	0.260	-0.930	0.910
2020/01/31 00:12:19.8	269.200	0.240	-0.920	0.920
2020/01/31 00:12:19.9	269.200	0.210	-0.900	0.920
2020/01/31 00:12:20.0	269.190	0.180	-0.880	0.930
2020/01/31 00:12:20.1	269.180	0.150	-0.850	0.930
2020/01/31 00:12:20.2	269.170	0.120	-0.830	0.930
2020/01/31 00:12:20.3	269.150	0.090	-0.800	0.930
2020/01/31 00:12:20.4	269.140	0.060	-0.760	0.930
2020/01/31 00:12:20.5	269.130	0.020	-0.720	0.930
2020/01/31 00:12:20.6	269.120	-0.020	-0.680	0.930
2020/01/31 00:12:20.7	269.100	-0.050	-0.640	0.930
2020/01/31 00:12:20.8	269.090	-0.090	-0.590	0.920
2020/01/31 00:12:20.9	269.070	-0.130	-0.540	0.920
2020/01/31 00:12:21.0	269.060	-0.170	-0.480	0.910
2020/01/31 00:12:21.1	269.050	-0.210	-0.430	0.900
2020/01/31 00:12:21.2	269.040	-0.250	-0.380	0.880
2020/01/31 00:12:21.3	269.030	-0.290	-0.320	0.870
2020/01/31 00:12:21.4	269.020	-0.330	-0.260	0.850
2020/01/31 00:12:21.5	269.010	-0.370	-0.210	0.830
2020/01/31 00:12:21.6	269.000	-0.410	-0.150	0.810
2020/01/31 00:12:21.7	268.990	-0.450	-0.090	0.780
2020/01/31 00:12:21.8	268.990	-0.490	-0.040	0.760
2020/01/31 00:12:21.9	268.970	-0.520	0.020	0.720
2020/01/31 00:12:22.0	268.960	-0.560	0.070	0.690
2020/01/31 00:12:22.1	268.960	-0.590	0.120	0.660
2020/01/31 00:12:22.2	268.960	-0.620	0.170	0.620
2020/01/31 00:12:22.3	268.960	-0.650	0.210	0.580
2020/01/31 00:12:22.4	268.960	-0.680	0.250	0.540
2020/01/31 00:12:22.5	268.970	-0.710	0.290	0.500
2020/01/31 00:12:22.6	268.970	-0.730	0.320	0.460
2020/01/31 00:12:22.7	268.980	-0.750	0.350	0.410
2020/01/31 00:12:22.8	268.980	-0.760	0.380	0.370
2020/01/31 00:12:22.9	268.990	-0.780	0.400	0.330
2020/01/31 00:12:23.0	269.000	-0.790	0.420	0.290
2020/01/31 00:12:23.1	269.020	-0.790	0.430	0.250
2020/01/31 00:12:23.2	269.030	-0.800	0.430	0.210
2020/01/31 00:12:23.3	269.040	-0.800	0.440	0.170
2020/01/31 00:12:23.4	269.060	-0.790	0.430	0.140
2020/01/31 00:12:23.5	269.080	-0.780	0.420	0.100
2020/01/31 00:12:23.6	269.100	-0.770	0.410	0.070
2020/01/31 00:12:23.7	269.110	-0.760	0.400	0.040
2020/01/31 00:12:23.8	269.140	-0.740	0.380	0.010
2020/01/31 00:12:23.9	269.150	-0.720	0.350	-0.020
2020/01/31 00:12:24.0	269.170	-0.690	0.320	-0.040
2020/01/31 00:12:24.1	269.200	-0.660	0.290	-0.070
2020/01/31 00:12:24.2	269.220	-0.630	0.260	-0.090
2020/01/31 00:12:24.3	269.240	-0.600	0.220	-0.110
2020/01/31 00:12:24.4	269.270	-0.560	0.180	-0.120
2020/01/31 00:12:24.5	269.290	-0.520	0.150	-0.140
2020/01/31 00:12:24.6	269.320	-0.480	0.100	-0.150
2020/01/31 00:12:24.7	269.350	-0.440	0.060	-0.160
2020/01/31 00:12:24.8	269.370	-0.400	0.020	-0.160
2020/01/31 00:12:24.9	269.410	-0.350	-0.030	-0.170
2020/01/31 00:12:25.0	269.440	-0.300	-0.070	-0.170
2020/01/31 00:12:25.1	269.460	-0.260	-0.120	-0.170
2020/01/31 00:12:25.2	269.490	-0.210	-0.160	-0.170
2020/01/31 00:12:25.3	269.510	-0.160	-0.210	-0.160
2020/01/31 00:12:25.4	269.540	-0.120	-0.250	-0.150
2020/01/31 00:12:25.5	269.560	-0.070	-0.290	-0.140
2020/01/31 00:12:25.6	269.580	-0.030	-0.330	-0.120
2020/01/31 00:12:25.7	269.600	0.020	-0.370	-0.100
2020/01/31 00:12:25.8	269.620	0.060	-0.410	-0.070
2020/01/31 00:12:25.9	269.640	0.100	-0.450	-0.040
2020/01/31 00:12:26.0	269.660	0.140	-0.490	-0.000
2020/01/31 00:12:26.1	269.670	0.180	-0.520	0.030
2020/01/31 00:12:26.2	269.680	0.220	-0.560	0.070
2020/01/31 00:12:26.3	269.680	0.250	-0.590	0.110
2020/01/31 00:12:26.4	269.690	0.290	-0.620	0.160
2020/01/31 00:12:26.5	269.690	0.320	-0.640	0.200
2020/01/31 00:12:26.6	269.690	0.350	-0.670	0.250
2020/01/31 00:12:26.7	269.690	0.370	-0.690	0.300
2020/01/31 00:12:26.8	269.690	0.390	-0.710	0.350
2020/01/31 00:12:26.9	269.680	0.410	-0.730	0.410
2020/01/31 00:12:27.0	269.670	0.430	-0.750	0.460
2020/01/31 00:12:27.1	269.660	0.450	-0.760	0.520
2020/01/31 00:12:27.2	269.650	0.460	-0.770	0.570
2020/01/31 00:12:27.3	269.640	0.470	-0.780	0.630
2020/01/31 00:12:27.4	269.620	0.480	-0.780	0.680
2020/01/31 00:12:27.5	269.610	0.490	-0.790	0.740
2020/01/31 00:12:27.6	269.590	0.490	-0.790	0.790
2020/01/31 00:12:27.7	269.570	0.490	-0.780	0.850
2020/01/31 00:12:27.8	269.550	0.490	-0.780	0.900
2020/01/31 00:12:27.9	269.520	0.490	-0.770	0.950
2020/01/31 00:12:28.0	269.490	0.490	-0.760	1.000
2020/01/31 00:12:28.1	269.470	0.490	-0.750	1.040
2020/01/31 00:12:28.2	269.450	0.480	-0.730	1.090
2020/01/31 00:12:28.3	269.420	0.470	-0.720	1.130
2020/01/31 00:12:28.4	269.400	0.460	-0.700	1.170
2020/01/31 00:12:28.5	269.380	0.450	-0.690	1.200
2020/01/31 00:12:28.6	269.350	0.440	-0.670	1.230
2020/01/31 00:12:28.7	269.330	0.430	-0.650	1.260
2020/01/31 00:12:28.8	269.300	0.420	-0.630	1.280
2020/01/31 00:12:28.9	269.280	0.400	-0.600	1.300
2020/01/31 00:12:29.0	269.260	0.390	-0.580	1.320
2020/01/31 00:12:29.1	269.230	0.370	-0.560	1.330
2020/01/31 00:12:29.2	269.210	0.360	-0.530	1.330
2020/01/31 00:12:29.3	269.190	0.340	-0.510	1.330
2020/01/31 00:12:29.4	269.160	0.330	-0.490	1.330
2020/01/31 00:12:29.5	269.140	0.310	-0.470	1.330
2020/01/31 00:12:29.6	269.120	0.290	-0.450	1.320
2020/01/31 00:12:29.7	269.090	0.280	-0.430	1.300
2020/01/31 00:12:29.8	269.070	0.260	-0.410	1.290
2020/01/31 00:12:29.9	269.050	0.240	-0.390	1.270
2020/01/31 00:12:30.0	269.020	0.230	-0.380	1.250
2020/01/31 00:12:30.1	268.990	0.210	-0.360	1.230
2020/01/31 00:12:30.2	268.970	0.190	-0.350	1.200
2020/01/31 00:12:30.3	268.950	0.180	-0.330	1.180
2020/01/31 00:12:30.4	268.930	0.160	-0.320	1.150
2020/01/31 00:12:30.5	268.910	0.150	-0.310	1.120
2020/01/31 00:12:30.6	268.890	0.130	-0.310	1.090
2020/01/31 00:12:30.7	268.870	0.120	-0.300	1.060
2020/01/31 00:12:30.8	268.850	0.100	-0.300	1.030
2020/01/31 00:12:30.9	268.840	0.090	-0.290	1.000
2020/01/31 00:12:31.0	268.820	0.080	-0.290	0.970
2020/01/31 00:12:31.1	268.800	0.060	-0.290	0.940
2020/01/31 00:12:31.2	268.790	0.050	-0.290	0.910
2020/01/31 00:12:31.3	268.770	0.040	-0.290	0.880
2020/01/31 00:12:31.4	268.760	0.030	-0.300	0.850
2020/01/31 00:12:31.5	268.750	0.020	-0.300	0.820
2020/01/31 00:12:31.6	268.740	0.010	-0.310	0.790
2020/01/31 00:12:31.7	268.730	0.000	-0.310	0.770
2020/01/31 00:12:31.8	268.720	-0.010	-0.320	0.740
2020/01/31 00:12:31.9	268.710	-0.020	-0.320	0.720
2020/01/31 00:12:32.0	268.700	-0.020	-0.330	0.690
2020/01/31 00:12:32.1	268.700	-0.030	-0.340	0.670
2020/01/31 00:12:32.2	268.700	-0.040	-0.350	0.640
2020/01/31 00:12:32.3	268.700	-0.040	-0.350	0.620
2020/01/31 00:12:32.4	268.700	-0.050	-0.360	0.600
2020/01/31 00:12:32.5	268.700	-0.050	-0.360	0.580
2020/01/31 00:12:32.6	268.700	-0.060	-0.370	0.560
2020/01/31 00:12:32.7	268.700	-0.060	-0.370	0.540
2020/01/31 00:12:32.8	268.710	-0.070	-0.370	0.520
2020/01/31 00:12:32.9	268.720	-0.070	-0.370	0.500
2020/01/31 00:12:33.0	268.730	-0.070	-0.370	0.480
2020/01/31 00:12:33.1	268.740	-0.080	-0.370	0.460
2020/01/31 00:12:33.2	268.750	-0.080	-0.370	0.450
2020/01/31 00:12:33.3	268.760	-0.080	-0.360	0.430
2020/01/31 00:12:33.4	268.770	-0.080	-0.350	0.420
2020/01/31 00:12:33.5	268.780	-0.080	-0.340	0.410
2020/01/31 00:12:33.6	268.790	-0.090	-0.330	0.400
2020/01/31 00:12:33.7	268.810	-0.090	-0.320	0.390
2020/01/31 00:12:33.8	268.820	-0.090	-0.310	0.380
2020/01/31 00:12:33.9	268.840	-0.090	-0.290	0.370
2020/01/31 00:12:34.0	268.850	-0.090	-0.270	0.370
2020/01/31 00:12:34.1	268.870	-0.090	-0.250	0.370
2020/01/31 00:12:34.2	268.880	-0.090	-0.230	0.370
2020/01/31 00:12:34.3	268.900	-0.090	-0.210	0.370
2020/01/31 00:12:34.4	268.910	-0.100	-0.180	0.370
2020/01/31 00:12:34.5	268.920	-0.100	-0.160	0.380
2020/01/31 00:12:34.6	268.930	-0.100	-0.130	0.380
2020/01/31 00:12:34.7	268.940	-0.100	-0.100	0.390
2020/01/31 00:12:34.8	268.950	-0.110	-0.070	0.400
2020/01/31 00:12:34.9	268.950	-0.110	-0.040	0.410
2020/01/31 00:12:35.0	268.960	-0.110	-0.010	0.420
2020/01/31 00:12:35.1	268.970	-0.120	0.020	0.430
2020/01/31 00:12:35.2	268.980	-0.120	0.050	0.440
2020/01/31 00:12:35.3	268.980	-0.130	0.080	0.450
2020/01/31 00:12:35.4	268.990	-0.130	0.110	0.460
2020/01/31 00:12:35.5	268.990	-0.140	0.140	0.470
2020/01/31 00:12:35.6	269.000	-0.140	0.170	0.490
2020/01/31 00:12:35.7	269.000	-0.150	0.200	0.500
2020/01/31 00:12:35.8	269.010	-0.160	0.230	0.510
2020/01/31 00:12:35.9	269.010	-0.160	0.250	0.520
2020/01/31 00:12:36.0	269.010	-0.170	0.280	0.530
2020/01/31 00:12:36.1	269.020	-0.180	0.300	0.540
2020/01/31 00:12:36.2	269.020	-0.180	0.320	0.550
2020/01/31 00:12:36.3	269.020	-0.190	0.330	0.570
2020/01/31 00:12:36.4	269.020	-0.190	0.340	0.580
2020/01/31 00:12:36.5	269.020	-0.200	0.350	0.590
2020/01/31 00:12:36.6	269.020	-0.200	0.360	0.590
2020/01/31 00:12:36.7	269.020	-0.210	0.360	0.600
2020/01/31 00:12:36.8	269.020	-0.210	0.360	0.610
2020/01/31 00:12:36.9	269.020	-0.210	0.360	0.620
2020/01/31 00:12:37.0	269.030	-0.220	0.350	0.620
2020/01/31 00:12:37.1	269.030	-0.220	0.340	0.630
2020/01/31 00:12:37.2	269.030	-0.210	0.330	0.630
2020/01/31 00:12:37.3	269.030	-0.210	0.310	0.640
2020/01/31 00:12:37.4	269.030	-0.210	0.290	0.640
2020/01/31 00:12:37.5	269.030	-0.210	0.270	0.640
2020/01/31 00:12:37.6	269.040	-0.200	0.240	0.640
2020/01/31 00:12:37.7	269.040	-0.190	0.210	0.640
2020/01/31 00:12:37.8	269.040	-0.180	0.170	0.640
2020/01/31 00:12:37.9	269.040	-0.170	0.130	0.640
2020/01/31 00:12:38.0	269.050	-0.160	0.090	0.630
2020/01/31 00:12:38.1	269.050	-0.150	0.050	0.630
2020/01/31 00:12:38.2	269.060	-0.140	-0.000	0.630
2020/01/31 00:12:38.3	269.070	-0.120	-0.050	0.620
2020/01/31 00:12:38.4	269.080	-0.100	-0.110	0.620
2020/01/31 00:12:38.5	269.080	-0.090	-0.160	0.620
2020/01/31 00:12:38.6	269.090	-0.070	-0.220	0.610
2020/01/31 00:12:38.7	269.100	-0.050	-0.280	0.610
2020/01/31 00:12:38.8	269.110	-0.030	-0.340	0.610
2020/01/31 00:12:38.9	269.120	-0.010	-0.400	0.600
2020/01/31 00:12:39.0	269.130	0.020	-0.460	0.600
2020/01/31 00:12:39.1	269.140	0.040	-0.520	0.600
2020/01/31 00:12:39.2	269.150	0.060	-0.580	0.590
2020/01/31 00:12:39.3	269.160	0.080	-0.640	0.590
2020/01/31 00:12:39.4	269.170	0.110	-0.700	0.590
2020/01/31 00:12:39.5	269.180	0.130	-0.760	0.590
2020/01/31 00:12:39.6	269.190	0.150	-0.810	0.590
2020/01/31 00:12:39.7	269.200	0.170	-0.860	0.590
2020/01/31 00:12:39.8	269.210	0.190	-0.910	0.600
2020/01/31 00:12:39.9	269.210	0.210	-0.950	0.600
2020/01/31 00:12:40.0	269.220	0.230	-0.990	0.600
2020/01/31 00:12:40.1	269.230	0.250	-1.030	0.610
2020/01/31 00:12:40.2	269.240	0.260	-1.060	0.610
2020/01/31 00:12:40.3	269.260	0.280	-1.090	0.610
2020/01/31 00:12:40.4	269.270	0.290	-1.110	0.620
2020/01/31 00:12:40.5	269.280	0.300	-1.130	0.620
2020/01/31 00:12:40.6	269.290	0.310	-1.140	0.630
2020/01/31 00:12:40.7	269.310	0.320	-1.150	0.630
2020/01/31 00:12:40.8	269.320	0.320	-1.150	0.640
2020/01/31 00:12:40.9	269.320	0.320	-1.140	0.640
2020/01/31 00:12:41.0	269.330	0.320	-1.140	0.640
2020/01/31 00:12:41.1	269.340	0.320	-1.130	0.650
2020/01/31 00:12:41.2	269.350	0.320	-1.110	0.650
2020/01/31 00:12:41.3	269.360	0.310	-1.090	0.660
2020/01/31 00:12:41.4	269.370	0.300	-1.070	0.660
2020/01/31 00:12:41.5	269.380	0.290	-1.040	0.660
2020/01/31 00:12:41.6	269.390	0.280	-1.010	0.670
2020/01/31 00:12:41.7	269.390	0.260	-0.980	0.670
2020/01/31 00:12:41.8	269.400	0.250	-0.940	0.670
2020/01/31 00:12:41.9	269.390	0.230	-0.900	0.680
2020/01/31 00:12:42.0	269.400	0.210	-0.870	0.680
2020/01/31 00:12:42.1	269.400	0.190	-0.830	0.680
2020/01/31 00:12:42.2	269.390	0.170	-0.780	0.680
2020/01/31 00:12:42.3	269.390	0.150	-0.740	0.680
2020/01/31 00:12:42.4	269.390	0.120	-0.700	0.680
2020/01/31 00:12:42.5	269.380	0.100	-0.660	0.680
2020/01/31 00:12:42.6	269.380	0.070	-0.620	0.680
2020/01/31 00:12:42.7	269.370	0.050	-0.580	0.680
2020/01/31 00:12:42.8	269.360	0.020	-0.530	0.680
2020/01/31 00:12:42.9	269.360	-0.010	-0.490	0.670
2020/01/31 00:12:43.0	269.350	-0.030	-0.450	0.660
2020/01/31 00:12:43.1	269.330	-0.060	-0.410	0.660
2020/01/31 00:12:43.2	269.320	-0.080	-0.380	0.650
2020/01/31 00:12:43.3	269.300	-0.100	-0.340	0.640
2020/01/31 00:12:43.4	269.290	-0.130	-0.310	0.630
2020/01/31 00:12:43.5	269.270	-0.150	-0.280	0.620
2020/01/31 00:12:43.6	269.260	-0.170	-0.250	0.610
2020/01/31 00:12:43.7	269.240	-0.190	-0.220	0.590
2020/01/31 00:12:43.8	269.220	-0.210	-0.200	0.580
2020/01/31 00:12:43.9	269.210	-0.230	-0.170	0.560
2020/01/31 00:12:44.0	269.180	-0.240	-0.150	0.540
2020/01/31 00:12:44.1	269.170	-0.260	-0.130	0.520
2020/01/31 00:12:44.2	269.150	-0.270	-0.110	0.510
2020/01/31 00:12:44.3	269.130	-0.280	-0.090	0.490
2020/01/31 00:12:44.4	269.120	-0.290	-0.070	0.470
2020/01/31 00:12:44.5	269.100	-0.290	-0.060	0.450
2020/01/31 00:12:44.6	269.090	-0.300	-0.040	0.430
2020/01/31 00:12:44.7	269.080	-0.300	-0.030	0.410
2020/01/31 00:12:44.8	269.070	-0.300	-0.020	0.390
2020/01/31 00:12:44.9	269.050	-0.300	-0.010	0.370
2020/01/31 00:12:45.0	269.040	-0.300	-0.010	0.350
2020/01/31 00:12:45.1	269.030	-0.300	-0.000	0.330
2020/01/31 00:12:45.2	269.030	-0.290	0.000	0.310
2020/01/31 00:12:45.3	269.020	-0.290	0.010	0.290
2020/01/31 00:12:45.4	269.010	-0.280	0.010	0.270
2020/01/31 00:12:45.5	269.010	-0.270	0.010	0.250
2020/01/31 00:12:45.6	269.010	-0.260	0.010	0.240
2020/01/31 00:12:45.7	269.010	-0.250	0.010	0.220
2020/01/31 00:12:45.8	269.010	-0.230	0.010	0.200
2020/01/31 00:12:45.9	269.020	-0.220	0.010	0.190
2020/01/31 00:12:46.0	269.020	-0.200	0.010	0.170
2020/01/31 00:12:46.1	269.020	-0.190	0.000	0.160
2020/01/31 00:12:46.2	269.020	-0.170	-0.000	0.150
2020/01/31 00:12:46.3	269.020	-0.150	-0.010	0.140
2020/01/31 00:12:46.4	269.020	-0.130	-0.010	0.130
2020/01/31 00:12:46.5	269.030	-0.110	-0.020	0.120
2020/01/31 00:12:46.6	269.030	-0.090	-0.020	0.110
2020/01/31 00:12:46.7	269.030	-0.070	-0.030	0.100
2020/01/31 00:12:46.8	269.040	-0.050	-0.040	0.100
2020/01/31 00:12:46.9	269.040	-0.030	-0.040	0.090
2020/01/31 00:12:47.0	269.040	-0.010	-0.050	0.090
2020/01/31 00:12:47.1	269.050	0.010	-0.060	0.080
2020/01/31 00:12:47.2	269.050	0.020	-0.070	0.080
2020/01/31 00:12:47.3	269.050	0.040	-0.070	0.080
2020/01/31 00:12:47.4	269.060	0.060	-0.080	0.080
2020/01/31 00:12:47.5	269.060	0.080	-0.090	0.080
2020/01/31 00:12:47.6	269.070	0.090	-0.090	0.080
2020/01/31 00:12:47.7	269.070	0.110	-0.100	0.090
2020/01/31 00:12:47.8	269.080	0.120	-0.100	0.090
2020/01/31 00:12:47.9	269.090	0.140	-0.110	0.090
2020/01/31 00:12:48.0	269.100	0.150	-0.120	0.100
2020/01/31 00:12:48.1	269.100	0.160	-0.120	0.110
2020/01/31 00:12:48.2	269.110	0.170	-0.120	0.120
2020/01/31 00:12:48.3	269.110	0.180	-0.130	0.130
2020/01/31 00:12:48.4	269.120	0.190	-0.130	0.140
2020/01/31 00:12:48.5	269.120	0.190	-0.130	0.150
2020/01/31 00:12:48.6	269.130	0.190	-0.140	0.160
2020/01/31 00:12:48.7	269.130	0.200	-0.140	0.180
2020/01/31 00:12:48.8	269.140	0.200	-0.140	0.200
2020/01/31 00:12:48.9	269.160	0.200	-0.140	0.220
2020/01/31 00:12:49.0	269.160	0.200	-0.140	0.240
2020/01/31 00:12:49.1	269.170	0.200	-0.140	0.260
2020/01/31 00:12:49.2	269.180	0.190	-0.140	0.290
2020/01/31 00:12:49.3	269.180	0.190	-0.140	0.310
2020/01/31 00:12:49.4	269.190	0.180	-0.140	0.340
2020/01/31 00:12:49.5	269.200	0.180	-0.140	0.370
2020/01/31 00:12:49.6	269.200	0.170	-0.140	0.390
2020/01/31 00:12:49.7	269.210	0.160	-0.150	0.420
2020/01/31 00:12:49.8	269.210	0.150	-0.150	0.450
2020/01/31 00:12:49.9	269.230	0.140	-0.150	0.480
2020/01/31 00:12:50.0	269.240	0.130	-0.150	0.510
2020/01/31 00:12:50.1	269.240	0.120	-0.150	0.540
2020/01/31 00:12:50.2	269.250	0.110	-0.160	0.570
2020/01/31 00:12:50.3	269.250	0.100	-0.160	0.590
2020/01/31 00:12:50.4	269.260	0.090	-0.170	0.620
2020/01/31 00:12:50.5	269.260	0.080	-0.170	0.640
2020/01/31 00:12:50.6	269.270	0.070	-0.180	0.670
2020/01/31 00:12:50.7	269.270	0.060	-0.190	0.690
2020/01/31 00:12:50.8	269.280	0.050	-0.200	0.710
2020/01/31 00:12:50.9	269.290	0.040	-0.200	0.720
2020/01/31 00:12:51.0	269.290	0.040	-0.220	0.740
2020/01/31 00:12:51.1	269.290	0.030	-0.230	0.750
2020/01/31 00:12:51.2	269.300	0.020	-0.240	0.760
2020/01/31 00:12:51.3	269.310	0.010	-0.250	0.770
2020/01/31 00:12:51.4	269.310	0.010	-0.270	0.770
2020/01/31 00:12:51.5	269.320	0.000	-0.280	0.780
2020/01/31 00:12:51.6	269.320	-0.000	-0.290	0.770
2020/01/31 00:12:51.7	269.330	-0.010	-0.310	0.770
2020/01/31 00:12:51.8	269.340	-0.010	-0.320	0.760
2020/01/31 00:12:51.9	269.340	-0.010	-0.340	0.760
2020/01/31 00:12:52.0	269.350	-0.010	-0.350	0.750
2020/01/31 00:12:52.1	269.350	-0.010	-0.370	0.730
2020/01/31 00:12:52.2	269.360	-0.010	-0.390	0.720
2020/01/31 00:12:52.3	269.360	-0.000	-0.400	0.710
2020/01/31 00:12:52.4	269.370	-0.000	-0.420	0.690
2020/01/31 00:12:52.5	269.370	0.000	-0.440	0.670
2020/01/31 00:12:52.6	269.370	0.010	-0.460	0.660
2020/01/31 00:12:52.7	269.380	0.010	-0.470	0.640
2020/01/31 00:12:52.8	269.380	0.020	-0.490	0.630
2020/01/31 00:12:52.9	269.380	0.020	-0.510	0.610
2020/01/31 00:12:53.0	269.380	0.030	-0.520	0.600
2020/01/31 00:12:53.1	269.380	0.040	-0.540	0.590
2020/01/31 00:12:53.2	269.380	0.050	-0.550	0.580
2020/01/31 00:12:53.3	269.380	0.050	-0.560	0.570
2020/01/31 00:12:53.4	269.390	0.060	-0.570	0.560
2020/01/31 00:12:53.5	269.390	0.060	-0.580	0.550
2020/01/31 00:12:53.6	269.390	0.070	-0.590	0.550
2020/01/31 00:12:53.7	269.390	0.080	-0.590	0.540
2020/01/31 00:12:53.8	269.390	0.080	-0.590	0.540
2020/01/31 00:12:53.9	269.400	0.080	-0.590	0.540
2020/01/31 00:12:54.0	269.400	0.090	-0.590	0.540
2020/01/31 00:12:54.1	269.400	0.090	-0.580	0.540
2020/01/31 00:12:54.2	269.410	0.090	-0.570	0.540
2020/01/31 00:12:54.3	269.410	0.090	-0.560	0.540
2020/01/31 00:12:54.4	269.410	0.080	-0.550	0.550
2020/01/31 00:12:54.5	269.420	0.080	-0.530	0.550
2020/01/31 00:12:54.6	269.420	0.080	-0.520	0.560
2020/01/31 00:12:54.7	269.430	0.070	-0.500	0.560
2020/01/31 00:12:54.8	269.430	0.070	-0.480	0.570
2020/01/31 00:12:54.9	269.440	0.060	-0.460	0.580
2020/01/31 00:12:55.0	269.440	0.050	-0.430	0.590
2020/01/31 00:12:55.1	269.440	0.040	-0.410	0.600
2020/01/31 00:12:55.2	269.450	0.030	-0.390	0.610
2020/01/31 00:12:55.3	269.450	0.020	-0.360	0.610
2020/01/31 00:12:55.4	269.460	0.010	-0.340	0.620
2020/01/31 00:12:55.5	269.460	0.000	-0.320	0.630
2020/01/31 00:12:55.6	269.470	-0.010	-0.290	0.640
2020/01/31 00:12:55.7	269.470	-0.020	-0.270	0.650
2020/01/31 00:12:55.8	269.480	-0.030	-0.250	0.660
2020/01/31 00:12:55.9	269.480	-0.040	-0.230	0.670
2020/01/31 00:12:56.0	269.480	-0.050	-0.210	0.670
2020/01/31 00:12:56.1	269.490	-0.060	-0.190	0.680
2020/01/31 00:12:56.2	269.490	-0.060	-0.170	0.680
2020/01/31 00:12:56.3	269.500	-0.070	-0.160	0.690
2020/01/31 00:12:56.4	269.510	-0.080	-0.150	0.690
2020/01/31 00:12:56.5	269.510	-0.080	-0.140	0.700
2020/01/31 00:12:56.6	269.520	-0.090	-0.130	0.700
2020/01/31 00:12:56.7	269.520	-0.090	-0.120	0.700
2020/01/31 00:12:56.8	269.530	-0.090	-0.120	0.710
2020/01/31 00:12:56.9	269.550	-0.090	-0.120	0.710
2020/01/31 00:12:57.0	269.550	-0.090	-0.120	0.710
2020/01/31 00:12:57.1	269.560	-0.090	-0.120	0.710
2020/01/31 00:12:57.2	269.570	-0.080	-0.130	0.710
2020/01/31 00:12:57.3	269.570	-0.080	-0.130	0.710
2020/01/31 00:12:57.4	269.580	-0.070	-0.140	0.710
2020/01/31 00:12:57.5	269.580	-0.060	-0.150	0.710
2020/01/31 00:12:57.6	269.590	-0.060	-0.170	0.710
2020/01/31 00:12:57.7	269.590	-0.050	-0.180	0.700
2020/01/31 00:12:57.8	269.600	-0.040	-0.200	0.700
2020/01/31 00:12:57.9	269.600	-0.020	-0.220	0.700
2020/01/31 00:12:58.0	269.610	-0.010	-0.240	0.700
2020/01/31 00:12:58.1	269.610	-0.000	-0.260	0.700
2020/01/31 00:12:58.2	269.610	0.010	-0.280	0.700
2020/01/31 00:12:58.3	269.610	0.030	-0.300	0.700
2020/01/31 00:12:58.4	269.600	0.040	-0.330	0.700
2020/01/31 00:12:58.5	269.600	0.050	-0.350	0.700
2020/01/31 00:12:58.6	269.600	0.070	-0.380	0.710
2020/01/31 00:12:58.7	269.590	0.080	-0.410	0.710
2020/01/31 00:12:58.8	269.590	0.090	-0.430	0.710
2020/01/31 00:12:58.9	269.580	0.110	-0.460	0.720
2020/01/31 00:12:59.0	269.570	0.120	-0.490	0.720
2020/01/31 00:12:59.1	269.560	0.130	-0.510	0.730
2020/01/31 00:12:59.2	269.560	0.140	-0.540	0.730
2020/01/31 00:12:59.3	269.550	0.150	-0.560	0.740
2020/01/31 00:12:59.4	269.540	0.160	-0.580	0.750
2020/01/31 00:12:59.5	269.530	0.170	-0.600	0.760
2020/01/31 00:12:59.6	269.520	0.180	-0.620	0.760
2020/01/31 00:12:59.7	269.510	0.180	-0.640	0.770
2020/01/31 00:12:59.8	269.500	0.190	-0.650	0.780
2020/01/31 00:12:59.9	269.480	0.190	-0.670	0.790
2020/01/31 00:13:00.0	269.470	0.190	-0.680	0.790
2020/01/31 00:13:00.1	269.460	0.200	-0.690	0.800
2020/01/31 00:13:00.2	269.450	0.200	-0.690	0.800
2020/01/31 00:13:00.3	269.440	0.190	-0.700	0.810
2020/01/31 00:13:00.4	269.430	0.190	-0.700	0.810
2020/01/31 00:13:00.5	269.420	0.190	-0.700	0.810
2020/01/31 00:13:00.6	269.410	0.180	-0.700	0.810
2020/01/31 00:13:00.7	269.400	0.170	-0.690	0.820
2020/01/31 00:13:00.8	269.380	0.170	-0.690	0.820
2020/01/31 00:13:00.9	269.370	0.160	-0.680	0.820
2020/01/31 00:13:01.0	269.360	0.150	-0.670	0.820
2020/01/31 00:13:01.1	269.350	0.130	-0.650	0.820
2020/01/31 00:13:01.2	269.340	0.120	-0.640	0.820
2020/01/31 00:13:01.3	269.320	0.110	-0.630	0.820
2020/01/31 00:13:01.4	269.310	0.090	-0.610	0.820
2020/01/31 00:13:01.5	269.290	0.080	-0.590	0.820
2020/01/31 00:13:01.6	269.280	0.060	-0.570	0.820
2020/01/31 00:13:01.7	269.260	0.040	-0.550	0.820
2020/01/31 00:13:01.8	269.240	0.020	-0.530	0.820
2020/01/31 00:13:01.9	269.220	0.000	-0.500	0.820
2020/01/31 00:13:02.0	269.200	-0.020	-0.480	0.820
2020/01/31 00:13:02.1	269.180	-0.040	-0.450	0.820
2020/01/31 00:13:02.2	269.160	-0.060	-0.430	0.820
2020/01/31 00:13:02.3	269.150	-0.080	-0.400	0.820
2020/01/31 00:13:02.4	269.130	-0.100	-0.380	0.820
2020/01/31 00:13:02.5	269.110	-0.130	-0.350	0.820
2020/01/31 00:13:02.6	269.090	-0.150	-0.320	0.820
2020/01/31 00:13:02.7	269.070	-0.170	-0.290	0.820
2020/01/31 00:13:02.8	269.050	-0.190	-0.270	0.830
2020/01/31 00:13:02.9	269.030	-0.210	-0.230	0.830
2020/01/31 00:13:03.0	269.010	-0.240	-0.210	0.830
2020/01/31 00:13:03.1	268.990	-0.260	-0.180	0.830
2020/01/31 00:13:03.2	268.970	-0.280	-0.160	0.830
2020/01/31 00:13:03.3	268.950	-0.300	-0.130	0.840
2020/01/31 00:13:03.4	268.930	-0.320	-0.110	0.840
2020/01/31 00:13:03.5	268.920	-0.330	-0.080	0.850
2020/01/31 00:13:03.6	268.900	-0.350	-0.060	0.850
2020/01/31 00:13:03.7	268.880	-0.370	-0.040	0.850
2020/01/31 00:13:03.8	268.870	-0.380	-0.030	0.860
2020/01/31 00:13:03.9	268.850	-0.400	-0.010	0.860
2020/01/31 00:13:04.0	268.840	-0.410	0.000	0.870
2020/01/31 00:13:04.1	268.820	-0.420	0.020	0.870
2020/01/31 00:13:04.2	268.810	-0.430	0.030	0.880
2020/01/31 00:13:04.3	268.800	-0.430	0.040	0.880
2020/01/31 00:13:04.4	268.790	-0.440	0.050	0.890
2020/01/31 00:13:04.5	268.780	-0.440	0.060	0.890
2020/01/31 00:13:04.6	268.770	-0.440	0.070	0.900
2020/01/31 00:13:04.7	268.770	-0.440	0.080	0.900
2020/01/31 00:13:04.8	268.760	-0.440	0.090	0.900
2020/01/31 00:13:04.9	268.760	-0.430	0.090	0.900
2020/01/31 00:13:05.0	268.760	-0.430	0.100	0.910
2020/01/31 00:13:05.1	268.760	-0.420	0.100	0.900
2020/01/31 00:13:05.2	268.760	-0.410	0.110	0.900
2020/01/31 00:13:05.3	268.760	-0.390	0.120	0.900
2020/01/31 00:13:05.4	268.760	-0.380	0.120	0.890
2020/01/31 00:13:05.5	268.770	-0.370	0.120	0.890
2020/01/31 00:13:05.6	268.770	-0.350	0.130	0.880
2020/01/31 00:13:05.7	268.780	-0.330	0.130	0.870
2020/01/31 00:13:05.8	268.790	-0.310	0.130	0.860
2020/01/31 00:13:05.9	268.800	-0.290	0.140	0.850
2020/01/31 00:13:06.0	268.810	-0.270	0.140	0.840
2020/01/31 00:13:06.1	268.820	-0.240	0.140	0.820
2020/01/31 00:13:06.2	268.830	-0.220	0.140	0.810
2020/01/31 00:13:06.3	268.850	-0.190	0.140	0.800
2020/01/31 00:13:06.4	268.860	-0.170	0.140	0.780
2020/01/31 00:13:06.5	268.880	-0.140	0.140	0.770
2020/01/31 00:13:06.6	268.890	-0.110	0.130	0.760
2020/01/31 00:13:06.7	268.910	-0.090	0.130	0.740
2020/01/31 00:13:06.8	268.930	-0.060	0.120	0.730
2020/01/31 00:13:06.9	268.950	-0.030	0.120	0.710
2020/01/31 00:13:07.0	268.970	-0.010	0.110	0.700
2020/01/31 00:13:07.1	268.990	0.020	0.100	0.690
2020/01/31 00:13:07.2	269.010	0.040	0.090	0.680
2020/01/31 00:13:07.3	269.030	0.070	0.080	0.670
2020/01/31 00:13:07.4	269.050	0.090	0.060	0.660
2020/01/31 00:13:07.5	269.060	0.120	0.050	0.650
2020/01/31 00:13:07.6	269.080	0.140	0.030	0.650
2020/01/31 00:13:07.7	269.100	0.160	0.010	0.640
2020/01/31 00:13:07.8	269.120	0.180	-0.010	0.640
2020/01/31 00:13:07.9	269.160	0.200	-0.040	0.640
2020/01/31 00:13:08.0	269.180	0.220	-0.060	0.640
2020/01/31 00:13:08.1	269.200	0.240	-0.080	0.640
2020/01/31 00:13:08.2	269.220	0.260	-0.110	0.640
2020/01/31 00:13:08.3	269.240	0.270	-0.140	0.640
2020/01/31 00:13:08.4	269.260	0.290	-0.170	0.650
2020/01/31 00:13:08.5	269.280	0.300	-0.200	0.660
2020/01/31 00:13:08.6	269.300	0.320	-0.220	0.660
2020/01/31 00:13:08.7	269.320	0.330	-0.250	0.670
2020/01/31 00:13:08.8	269.340	0.340	-0.290	0.680
2020/01/31 00:13:08.9	269.350	0.350	-0.320	0.690
2020/01/31 00:13:09.0	269.370	0.360	-0.350	0.700
2020/01/31 00:13:09.1	269.390	0.370	-0.380	0.720
2020/01/31 00:13:09.2	269.420	0.370	-0.400	0.730
2020/01/31 00:13:09.3	269.440	0.380	-0.430	0.740
2020/01/31 00:13:09.4	269.460	0.380	-0.460	0.760
2020/01/31 00:13:09.5	269.480	0.390	-0.480	0.770
2020/01/31 00:13:09.6	269.490	0.390	-0.510	0.790
2020/01/31 00:13:09.7	269.510	0.390	-0.530	0.810
2020/01/31 00:13:09.8	269.530	0.400	-0.550	0.820
2020/01/31 00:13:09.9	269.550	0.400	-0.570	0.840
2020/01/31 00:13:10.0	269.570	0.400	-0.590	0.860
2020/01/31 00:13:10.1	269.580	0.390	-0.600	0.870
2020/01/31 00:13:10.2	269.600	0.390	-0.620	0.890
2020/01/31 00:13:10.3	269.610	0.390	-0.630	0.910
2020/01/31 00:13:10.4	269.620	0.390	-0.640	0.930
2020/01/31 00:13:10.5	269.630	0.380	-0.640	0.940
2020/01/31 00:13:10.6	269.640	0.380	-0.650	0.960
2020/01/31 00:13:10.7	269.650	0.370	-0.660	0.980
2020/01/31 00:13:10.8	269.650	0.360	-0.660	0.990
2020/01/31 00:13:10.9	269.660	0.360	-0.660	1.010
2020/01/31 00:13:11.0	269.660	0.350	-0.660	1.020
2020/01/31 00:13:11.1	269.660	0.340	-0.660	1.040
2020/01/31 00:13:11.2	269.660	0.330	-0.660	1.050
2020/01/31 00:13:11.3	269.660	0.320	-0.660	1.070
2020/01/31 00:13:11.4	269.650	0.310	-0.650	1.080
2020/01/31 00:13:11.5	269.650	0.300	-0.650	1.090
2020/01/31 00:13:11.6	269.640	0.290	-0.650	1.110
2020/01/31 00:13:11.7	269.630	0.280	-0.640	1.120
2020/01/31 00:13:11.8	269.620	0.270	-0.640	1.130
2020/01/31 00:13:11.9	269.590	0.260	-0.630	1.140
2020/01/31 00:13:12.0	269.570	0.250	-0.630	1.150
2020/01/31 00:13:12.1	269.550	0.240	-0.620	1.160
2020/01/31 00:13:12.2	269.540	0.230	-0.620	1.170
2020/01/31 00:13:12.3	269.510	0.210	-0.620	1.180
2020/01/31 00:13:12.4	269.490	0.200	-0.620	1.180
2020/01/31 00:13:12.5	269.470	0.190	-0.610	1.190
2020/01/31 00:13:12.6	269.440	0.180	-0.610	1.200
2020/01/31 00:13:12.7	269.420	0.170	-0.610	1.200
2020/01/31 00:13:12.8	269.390	0.160	-0.610	1.210
2020/01/31 00:13:12.9	269.350	0.150	-0.610	1.210
2020/01/31 00:13:13.0	269.330	0.140	-0.610	1.210
2020/01/31 00:13:13.1	269.300	0.130	-0.610	1.200
2020/01/31 00:13:13.2	269.270	0.110	-0.600	1.200
2020/01/31 00:13:13.3	269.240	0.100	-0.600	1.200
2020/01/31 00:13:13.4	269.210	0.090	-0.600	1.190
2020/01/31 00:13:13.5	269.190	0.080	-0.600	1.180
2020/01/31 00:13:13.6	269.160	0.070	-0.600	1.170
2020/01/31 00:13:13.7	269.140	0.060	-0.600	1.160
2020/01/31 00:13:13.8	269.110	0.050	-0.600	1.140
2020/01/31 00:13:13.9	269.090	0.040	-0.590	1.120
2020/01/31 00:13:14.0	269.070	0.030	-0.590	1.110
2020/01/31 00:13:14.1	269.040	0.020	-0.590	1.090
2020/01/31 00:13:14.2	269.020	0.010	-0.590	1.070
2020/01/31 00:13:14.3	269.000	0.010	-0.590	1.040
2020/01/31 00:13:14.4	268.980	-0.000	-0.590	1.020
2020/01/31 00:13:14.5	268.960	-0.010	-0.580	1.000
2020/01/31 00:13:14.6	268.950	-0.020	-0.580	0.980
2020/01/31 00:13:14.7	268.930	-0.030	-0.580	0.950
2020/01/31 00:13:14.8	268.910	-0.040	-0.580	0.930
2020/01/31 00:13:14.9	268.890	-0.050	-0.570	0.910
2020/01/31 00:13:15.0	268.880	-0.060	-0.570	0.880
2020/01/31 00:13:15.1	268.870	-0.070	-0.560	0.860
2020/01/31 00:13:15.2	268.860	-0.080	-0.550	0.840
2020/01/31 00:13:15.3	268.850	-0.080	-0.550	0.820
2020/01/31 00:13:15.4	268.840	-0.090	-0.540	0.800
2020/01/31 00:13:15.5	268.830	-0.100	-0.530	0.780
2020/01/31 00:13:15.6	268.830	-0.110	-0.520	0.760
2020/01/31 00:13:15.7	268.820	-0.120	-0.500	0.740
2020/01/31 00:13:15.8	268.820	-0.130	-0.490	0.720
2020/01/31 00:13:15.9	268.820	-0.130	-0.470	0.700
2020/01/31 00:13:16.0	268.820	-0.140	-0.450	0.690
2020/01/31 00:13:16.1	268.820	-0.150	-0.430	0.670
2020/01/31 00:13:16.2	268.820	-0.160	-0.410	0.650
2020/01/31 00:13:16.3	268.830	-0.170	-0.390	0.640
2020/01/31 00:13:16.4	268.830	-0.180	-0.370	0.620
2020/01/31 00:13:16.5	268.840	-0.180	-0.340	0.610
2020/01/31 00:13:16.6	268.850	-0.190	-0.320	0.590
2020/01/31 00:13:16.7	268.860	-0.200	-0.290	0.580
2020/01/31 00:13:16.8	268.870	-0.210	-0.260	0.560
2020/01/31 00:13:16.9	268.890	-0.220	-0.240	0.550
2020/01/31 00:13:17.0	268.900	-0.220	-0.210	0.540
2020/01/31 00:13:17.1	268.920	-0.230	-0.180	0.520
2020/01/31 00:13:17.2	268.930	-0.240	-0.150	0.510
2020/01/31 00:13:17.3	268.950	-0.250	-0.120	0.500
2020/01/31 00:13:17.4	268.970	-0.250	-0.100	0.490
2020/01/31 00:13:17.5	269.000	-0.260	-0.070	0.480
2020/01/31 00:13:17.6	269.020	-0.270	-0.050	0.470
2020/01/31 00:13:17.7	269.040	-0.270	-0.020	0.470
2020/01/31 00:13:17.8	269.070	-0.280	0.000	0.460
2020/01/31 00:13:17.9	269.090	-0.290	0.020	0.450
2020/01/31 00:13:18.0	269.120	-0.290	0.040	0.450
2020/01/31 00:13:18.1	269.140	-0.300	0.060	0.450
2020/01/31 00:13:18.2	269.170	-0.300	0.080	0.450
2020/01/31 00:13:18.3	269.200	-0.300	0.090	0.450
2020/01/31 00:13:18.4	269.230	-0.310	0.110	0.450
2020/01/31 00:13:18.5	269.250	-0.310	0.120	0.450
2020/01/31 00:13:18.6	269.280	-0.310	0.130	0.460
2020/01/31 00:13:18.7	269.310	-0.320	0.140	0.460
2020/01/31 00:13:18.8	269.340	-0.320	0.140	0.470
2020/01/31 00:13:18.9	269.370	-0.320	0.140	0.470
2020/01/31 00:13:19.0	269.390	-0.320	0.140	0.480
2020/01/31 00:13:19.1	269.420	-0.320	0.140	0.490
2020/01/31 00:13:19.2	269.450	-0.320	0.140	0.500
2020/01/31 00:13:19.3	269.470	-0.320	0.140	0.510
2020/01/31 00:13:19.4	269.500	-0.320	0.130	0.530
2020/01/31 00:13:19.5	269.530	-0.320	0.120	0.540
2020/01/31 00:13:19.6	269.550	-0.310	0.110	0.550
2020/01/31 00:13:19.7	269.580	-0.310	0.100	0.560
2020/01/31 00:13:19.8	269.610	-0.310	0.090	0.580
2020/01/31 00:13:19.9	269.630	-0.300	0.080	0.590
2020/01/31 00:13:20.0	269.660	-0.300	0.070	0.610
2020/01/31 00:13:20.1	269.680	-0.290	0.050	0.620
2020/01/31 00:13:20.2	269.710	-0.290	0.040	0.630
2020/01/31 00:13:20.3	269.730	-0.280	0.030	0.650
2020/01/31 00:13:20.4	269.760	-0.270	0.010	0.660
2020/01/31 00:13:20.5	269.780	-0.260	0.000	0.680
2020/01/31 00:13:20.6	269.800	-0.260	-0.010	0.690
2020/01/31 00:13:20.7	269.820	-0.250	-0.030	0.710
2020/01/31 00:13:20.8	269.840	-0.240	-0.040	0.720
2020/01/31 00:13:20.9	269.850	-0.230	-0.050	0.730
2020/01/31 00:13:21.0	269.870	-0.220	-0.060	0.750
2020/01/31 00:13:21.1	269.880	-0.210	-0.080	0.760
2020/01/31 00:13:21.2	269.900	-0.200	-0.090	0.770
2020/01/31 00:13:21.3	269.910	-0.190	-0.100	0.790
2020/01/31 00:13:21.4	269.920	-0.170	-0.110	0.800
2020/01/31 00:13:21.5	269.930	-0.160	-0.120	0.820
2020/01/31 00:13:21.6	269.940	-0.150	-0.130	0.830
2020/01/31 00:13:21.7	269.940	-0.140	-0.130	0.840
2020/01/31 00:13:21.8	269.940	-0.120	-0.140	0.860
2020/01/31 00:13:21.9	269.940	-0.110	-0.150	0.870
2020/01/31 00:13:22.0	269.940	-0.100	-0.150	0.880
2020/01/31 00:13:22.1	269.940	-0.090	-0.160	0.890
2020/01/31 00:13:22.2	269.940	-0.070	-0.170	0.910
2020/01/31 00:13:22.3	269.930	-0.060	-0.170	0.920
2020/01/31 00:13:22.4	269.930	-0.050	-0.180	0.930
2020/01/31 00:13:22.5	269.920	-0.040	-0.180	0.940
2020/01/31 00:13:22.6	269.910	-0.020	-0.180	0.950
2020/01/31 00:13:22.7	269.900	-0.010	-0.190	0.960
2020/01/31 00:13:22.8	269.890	0.000	-0.190	0.970
2020/01/31 00:13:22.9	269.880	0.010	-0.200	0.980
2020/01/31 00:13:23.0	269.870	0.020	-0.200	0.990
2020/01/31 00:13:23.1	269.860	0.030	-0.200	1.000
2020/01/31 00:13:23.2	269.840	0.050	-0.210	1.000
2020/01/31 00:13:23.3	269.820	0.060	-0.220	1.010
2020/01/31 00:13:23.4	269.810	0.070	-0.220	1.020
2020/01/31 00:13:23.5	269.790	0.070	-0.230	1.030
2020/01/31 00:13:23.6	269.770	0.080	-0.240	1.030
2020/01/31 00:13:23.7	269.750	0.090	-0.250	1.040
2020/01/31 00:13:23.8	269.730	0.100	-0.260	1.050
2020/01/31 00:13:23.9	269.700	0.110	-0.270	1.060
2020/01/31 00:13:24.0	269.680	0.120	-0.280	1.060
2020/01/31 00:13:24.1	269.650	0.120	-0.300	1.070
2020/01/31 00:13:24.2	269.630	0.130	-0.310	1.080
2020/01/31 00:13:24.3	269.610	0.130	-0.330	1.080
2020/01/31 00:13:24.4	269.590	0.140	-0.350	1.090
2020/01/31 00:13:24.5	269.570	0.140	-0.370	1.100
2020/01/31 00:13:24.6	269.540	0.150	-0.390	1.100
2020/01/31 00:13:24.7	269.520	0.150	-0.410	1.110
2020/01/31 00:13:24.8	269.500	0.160	-0.430	1.110
2020/01/31 00:13:24.9	269.480	0.160	-0.460	1.120
2020/01/31 00:13:25.0	269.460	0.160	-0.490	1.120
2020/01/31 00:13:25.1	269.440	0.160	-0.510	1.120
2020/01/31 00:13:25.2	269.420	0.170	-0.530	1.120
2020/01/31 00:13:25.3	269.400	0.170	-0.560	1.130
2020/01/31 00:13:25.4	269.390	0.170	-0.580	1.130
2020/01/31 00:13:25.5	269.370	0.170	-0.610	1.130
2020/01/31 00:13:25.6	269.350	0.170	-0.630	1.130
2020/01/31 00:13:25.7	269.330	0.170	-0.660	1.130
2020/01/31 00:13:25.8	269.310	0.170	-0.680	1.130
2020/01/31 00:13:25.9	269.290	0.170	-0.700	1.130
2020/01/31 00:13:26.0	269.270	0.180	-0.720	1.120
2020/01/31 00:13:26.1	269.260	0.180	-0.740	1.120
2020/01/31 00:13:26.2	269.240	0.180	-0.760	1.120
2020/01/31 00:13:26.3	269.220	0.180	-0.780	1.120
2020/01/31 00:13:26.4	269.200	0.180	-0.790	1.120
2020/01/31 00:13:26.5	269.180	0.180	-0.810	1.120
2020/01/31 00:13:26.6	269.160	0.180	-0.820	1.120
2020/01/31 00:13:26.7	269.150	0.190	-0.830	1.120
2020/01/31 00:13:26.8	269.130	0.190	-0.840	1.120
2020/01/31 00:13:26.9	269.120	0.190	-0.840	1.120
2020/01/31 00:13:27.0	269.100	0.190	-0.840	1.110
2020/01/31 00:13:27.1	269.080	0.200	-0.840	1.110
2020/01/31 00:13:27.2	269.070	0.200	-0.840	1.110
2020/01/31 00:13:27.3	269.050	0.200	-0.840	1.110
2020/01/31 00:13:27.4	269.040	0.200	-0.830	1.110
2020/01/31 00:13:27.5	269.030	0.210	-0.820	1.110
2020/01/31 00:13:27.6	269.020	0.210	-0.810	1.100
2020/01/31 00:13:27.7	269.010	0.210	-0.790	1.100
2020/01/31 00:13:27.8	269.000	0.210	-0.780	1.100
2020/01/31 00:13:27.9	268.990	0.210	-0.760	1.100
2020/01/31 00:13:28.0	268.980	0.210	-0.740	1.090
2020/01/31 00:13:28.1	268.980	0.220	-0.710	1.090
2020/01/31 00:13:28.2	268.970	0.220	-0.690	1.080
2020/01/31 00:13:28.3	268.970	0.220	-0.660	1.080
2020/01/31 00:13:28.4	268.960	0.210	-0.630	1.070
2020/01/31 00:13:28.5	268.960	0.210	-0.600	1.060
2020/01/31 00:13:28.6	268.960	0.210	-0.570	1.060
2020/01/31 00:13:28.7	268.960	0.210	-0.540	1.050
2020/01/31 00:13:28.8	268.960	0.200	-0.510	1.040
2020/01/31 00:13:28.9	268.980	0.200	-0.480	1.040
2020/01/31 00:13:29.0	268.980	0.200	-0.450	1.030
2020/01/31 00:13:29.1	268.990	0.190	-0.420	1.020
2020/01/31 00:13:29.2	268.990	0.190	-0.380	1.010
2020/01/31 00:13:29.3	269.000	0.180	-0.350	1.000
2020/01/31 00:13:29.4	269.010	0.180	-0.330	0.990
2020/01/31 00:13:29.5	269.020	0.170	-0.300	0.980
2020/01/31 00:13:29.6	269.030	0.160	-0.270	0.960
2020/01/31 00:13:29.7	269.040	0.160	-0.240	0.950
2020/01/31 00:13:29.8	269.050	0.150	-0.220	0.930
2020/01/31 00:13:29.9	269.080	0.140	-0.190	0.920
2020/01/31 00:13:30.0	269.100	0.130	-0.170	0.900
2020/01/31 00:13:30.1	269.110	0.130	-0.140	0.880
2020/01/31 00:13:30.2	269.130	0.120	-0.120	0.860
2020/01/31 00:13:30.3	269.150	0.110	-0.110	0.840
2020/01/31 00:13:30.4	269.160	0.100	-0.090	0.820
2020/01/31 00:13:30.5	269.180	0.090	-0.070	0.800
2020/01/31 00:13:30.6	269.200	0.090	-0.060	0.770
2020/01/31 00:13:30.7	269.220	0.080	-0.050	0.750
2020/01/31 00:13:30.8	269.230	0.070	-0.040	0.730
2020/01/31 00:13:30.9	269.250	0.060	-0.030	0.700
2020/01/31 00:13:31.0	269.270	0.060	-0.020	0.680
2020/01/31 00:13:31.1	269.280	0.050	-0.010	0.660
2020/01/31 00:13:31.2	269.300	0.040	-0.010	0.640
2020/01/31 00:13:31.3	269.310	0.040	0.000	0.620
2020/01/31 00:13:31.4	269.330	0.030	0.000	0.600
2020/01/31 00:13:31.5	269.340	0.020	0.010	0.590
2020/01/31 00:13:31.6	269.350	0.020	0.010	0.570
2020/01/31 00:13:31.7	269.370	0.010	0.010	0.550
2020/01/31 00:13:31.8	269.380	0.000	0.010	0.540
2020/01/31 00:13:31.9	269.370	-0.000	0.010	0.520
2020/01/31 00:13:32.0	269.380	-0.010	0.010	0.510
2020/01/31 00:13:32.1	269.390	-0.010	0.010	0.500
2020/01/31 00:13:32.2	269.400	-0.020	0.010	0.490
2020/01/31 00:13:32.3	269.410	-0.030	0.000	0.470
2020/01/31 00:13:32.4	269.410	-0.030	-0.000	0.470
2020/01/31 00:13:32.5	269.420	-0.040	-0.000	0.460
2020/01/31 00:13:32.6	269.420	-0.040	-0.010	0.450
2020/01/31 00:13:32.7	269.430	-0.050	-0.020	0.440
2020/01/31 00:13:32.8	269.430	-0.050	-0.020	0.440
2020/01/31 00:13:32.9	269.440	-0.060	-0.030	0.430
2020/01/31 00:13:33.0	269.440	-0.060	-0.040	0.420
2020/01/31 00:13:33.1	269.440	-0.070	-0.040	0.420
2020/01/31 00:13:33.2	269.450	-0.080	-0.050	0.420
2020/01/31 00:13:33.3	269.450	-0.080	-0.060	0.420
2020/01/31 00:13:33.4	269.450	-0.090	-0.070	0.420
2020/01/31 00:13:33.5	269.440	-0.090	-0.080	0.420
2020/01/31 00:13:33.6	269.440	-0.100	-0.090	0.420
2020/01/31 00:13:33.7	269.440	-0.110	-0.100	0.430
2020/01/31 00:13:33.8	269.430	-0.110	-0.110	0.430
2020/01/31 00:13:33.9	269.410	-0.120	-0.120	0.440
2020/01/31 00:13:34.0	269.400	-0.130	-0.130	0.440
2020/01/31 00:13:34.1	269.400	-0.140	-0.140	0.450
2020/01/31 00:13:34.2	269.390	-0.140	-0.150	0.460
2020/01/31 00:13:34.3	269.380	-0.150	-0.160	0.470
2020/01/31 00:13:34.4	269.360	-0.160	-0.170	0.480
2020/01/31 00:13:34.5	269.350	-0.170	-0.180	0.490
2020/01/31 00:13:34.6	269.340	-0.170	-0.190	0.500
2020/01/31 00:13:34.7	269.320	-0.180	-0.200	0.510
2020/01/31 00:13:34.8	269.310	-0.190	-0.210	0.520
2020/01/31 00:13:34.9	269.280	-0.200	-0.210	0.530
2020/01/31 00:13:35.0	269.270	-0.210	-0.220	0.540
2020/01/31 00:13:35.1	269.250	-0.220	-0.230	0.550
2020/01/31 00:13:35.2	269.240	-0.220	-0.240	0.560
2020/01/31 00:13:35.3	269.220	-0.230	-0.250	0.570
2020/01/31 00:13:35.4	269.200	-0.240	-0.250	0.580
2020/01/31 00:13:35.5	269.190	-0.250	-0.260	0.590
2020/01/31 00:13:35.6	269.170	-0.260	-0.270	0.590
2020/01/31 00:13:35.7	269.160	-0.260	-0.280	0.600
2020/01/31 00:13:35.8	269.150	-0.270	-0.280	0.610
2020/01/31 00:13:35.9	269.160	-0.280	-0.290	0.620
2020/01/31 00:13:36.0	269.140	-0.290	-0.300	0.620
2020/01/31 00:13:36.1	269.130	-0.290	-0.310	0.620
2020/01/31 00:13:36.2	269.130	-0.300	-0.310	0.620
2020/01/31 00:13:36.3	269.120	-0.300	-0.320	0.630
2020/01/31 00:13:36.4	269.110	-0.310	-0.330	0.630
2020/01/31 00:13:36.5	269.100	-0.310	-0.330	0.630
2020/01/31 00:13:36.6	269.100	-0.320	-0.340	0.630
2020/01/31 00:13:36.7	269.100	-0.320	-0.340	0.630
2020/01/31 00:13:36.8	269.090	-0.320	-0.340	0.620
2020/01/31 00:13:36.9	269.090	-0.320	-0.350	0.620
2020/01/31 00:13:37.0	269.090	-0.320	-0.350	0.620
2020/01/31 00:13:37.1	269.090	-0.320	-0.360	0.620
2020/01/31 00:13:37.2	269.090	-0.320	-0.360	0.610
2020/01/31 00:13:37.3	269.090	-0.320	-0.360	0.610
2020/01/31 00:13:37.4	269.090	-0.320	-0.360	0.610
2020/01/31 00:13:37.5	269.090	-0.310	-0.370	0.600
2020/01/31 00:13:37.6	269.100	-0.310	-0.370	0.600
2020/01/31 00:13:37.7	269.100	-0.300	-0.370	0.590
2020/01/31 00:13:37.8	269.100	-0.300	-0.370	0.580
2020/01/31 00:13:37.9	269.110	-0.290	-0.370	0.580
2020/01/31 00:13:38.0	269.110	-0.280	-0.370	0.570
2020/01/31 00:13:38.1	269.110	-0.270	-0.370	0.560
2020/01/31 00:13:38.2	269.110	-0.260	-0.370	0.550
2020/01/31 00:13:38.3	269.120	-0.250	-0.370	0.540
2020/01/31 00:13:38.4	269.120	-0.240	-0.370	0.540
2020/01/31 00:13:38.5	269.120	-0.220	-0.370	0.520
2020/01/31 00:13:38.6	269.120	-0.210	-0.370	0.510
2020/01/31 00:13:38.7	269.120	-0.200	-0.380	0.500
2020/01/31 00:13:38.8	269.120	-0.180	-0.380	0.490
2020/01/31 00:13:38.9	269.120	-0.170	-0.380	0.480
2020/01/31 00:13:39.0	269.120	-0.150	-0.380	0.470
2020/01/31 00:13:39.1	269.120	-0.140	-0.380	0.450
2020/01/31 00:13:39.2	269.120	-0.120	-0.390	0.440
2020/01/31 00:13:39.3	269.120	-0.110	-0.390	0.430
2020/01/31 00:13:39.4	269.120	-0.090	-0.390	0.410
2020/01/31 00:13:39.5	269.120	-0.080	-0.390	0.400
2020/01/31 00:13:39.6	269.120	-0.060	-0.390	0.390
2020/01/31 00:13:39.7	269.110	-0.050	-0.390	0.370
2020/01/31 00:13:39.8	269.110	-0.040	-0.400	0.360
2020/01/31 00:13:39.9	269.120	-0.020	-0.400	0.350
2020/01/31 00:13:40.0	269.110	-0.010	-0.400	0.340
2020/01/31 00:13:40.1	269.110	0.000	-0.400	0.330
2020/01/31 00:13:40.2	269.100	0.010	-0.400	0.320
2020/01/31 00:13:40.3	269.100	0.020	-0.400	0.320
2020/01/31 00:13:40.4	269.090	0.030	-0.390	0.320
2020/01/31 00:13:40.5	269.090	0.040	-0.390	0.310
2020/01/31 00:13:40.6	269.090	0.050	-0.390	0.310
2020/01/31 00:13:40.7	269.080	0.060	-0.390	0.310
2020/01/31 00:13:40.8	269.080	0.070	-0.380	0.310
2020/01/31 00:13:40.9	269.070	0.070	-0.380	0.330
2020/01/31 00:13:41.0	269.070	0.080	-0.370	0.330
2020/01/31 00:13:41.1	269.060	0.080	-0.370	0.340
2020/01/31 00:13:41.2	269.060	0.090	-0.370	0.340
2020/01/31 00:13:41.3	269.050	0.090	-0.360	0.350
2020/01/31 00:13:41.4	269.050	0.090	-0.360	0.360
2020/01/31 00:13:41.5	269.040	0.090	-0.350	0.370
2020/01/31 00:13:41.6	269.030	0.090	-0.350	0.380
2020/01/31 00:13:41.7	269.030	0.090	-0.350	0.390
2020/01/31 00:13:41.8	269.020	0.090	-0.350	0.400
2020/01/31 00:13:41.9	269.000	0.090	-0.340	0.400
2020/01/31 00:13:42.0	268.990	0.090	-0.340	0.420
2020/01/31 00:13:42.1	268.980	0.080	-0.340	0.430
2020/01/31 00:13:42.2	268.970	0.080	-0.340	0.440
2020/01/31 00:13:42.3	268.960	0.080	-0.340	0.460
2020/01/31 00:13:42.4	268.950	0.080	-0.350	0.470
2020/01/31 00:13:42.5	268.940	0.070	-0.350	0.480
2020/01/31 00:13:42.6	268.940	0.070	-0.350	0.500
2020/01/31 00:13:42.7	268.930	0.070	-0.360	0.510
2020/01/31 00:13:42.8	268.910	0.060	-0.370	0.530
2020/01/31 00:13:42.9	268.910	0.060	-0.370	0.550
2020/01/31 00:13:43.0	268.900	0.060	-0.380	0.560
2020/01/31 00:13:43.1	268.890	0.050	-0.390	0.580
2020/01/31 00:13:43.2	268.880	0.050	-0.400	0.600
2020/01/31 00:13:43.3	268.860	0.050	-0.420	0.620
2020/01/31 00:13:43.4	268.850	0.050	-0.430	0.630
2020/01/31 00:13:43.5	268.840	0.050	-0.440	0.650
2020/01/31 00:13:43.6	268.830	0.050	-0.450	0.670
2020/01/31 00:13:43.7	268.820	0.050	-0.470	0.690
2020/01/31 00:13:43.8	268.800	0.050	-0.480	0.700
2020/01/31 00:13:43.9	268.800	0.050	-0.490	0.720
2020/01/31 00:13:44.0	268.790	0.050	-0.510	0.740
2020/01/31 00:13:44.1	268.780	0.050	-0.520	0.750
2020/01/31 00:13:44.2	268.770	0.050	-0.530	0.770
2020/01/31 00:13:44.3	268.760	0.050	-0.540	0.780
2020/01/31 00:13:44.4	268.740	0.050	-0.550	0.790
2020/01/31 00:13:44.5	268.730	0.060	-0.560	0.800
2020/01/31 00:13:44.6	268.720	0.060	-0.560	0.820
2020/01/31 00:13:44.7	268.720	0.060	-0.570	0.820
2020/01/31 00:13:44.8	268.710	0.060	-0.570	0.830
2020/01/31 00:13:44.9	268.700	0.070	-0.570	0.840
2020/01/31 00:13:45.0	268.700	0.070	-0.570	0.840
2020/01/31 00:13:45.1	268.690	0.070	-0.560	0.850
2020/01/31 00:13:45.2	268.680	0.070	-0.560	0.850
2020/01/31 00:13:45.3	268.680	0.080	-0.550	0.850
2020/01/31 00:13:45.4	268.680	0.080	-0.540	0.850
2020/01/31 00:13:45.5	268.670	0.080	-0.520	0.850
2020/01/31 00:13:45.6	268.670	0.080	-0.510	0.850
2020/01/31 00:13:45.7	268.670	0.080	-0.500	0.850
2020/01/31 00:13:45.8	268.670	0.080	-0.480	0.840
2020/01/31 00:13:45.9	268.680	0.080	-0.460	0.840
2020/01/31 00:13:46.0	268.690	0.080	-0.440	0.840
2020/01/31 00:13:46.1	268.690	0.080	-0.420	0.830
2020/01/31 00:13:46.2	268.690	0.080	-0.400	0.830
2020/01/31 00:13:46.3	268.700	0.080	-0.380	0.830
2020/01/31 00:13:46.4	268.700	0.080	-0.360	0.830
2020/01/31 00:13:46.5	268.710	0.080	-0.340	0.830
2020/01/31 00:13:46.6	268.720	0.080	-0.320	0.820
2020/01/31 00:13:46.7	268.720	0.080	-0.300	0.820
2020/01/31 00:13:46.8	268.730	0.080	-0.280	0.820
2020/01/31 00:13:46.9	268.730	0.070	-0.250	0.820
2020/01/31 00:13:47.0	268.740	0.070	-0.230	0.820
2020/01/31 00:13:47.1	268.750	0.070	-0.210	0.820
2020/01/31 00:13:47.2	268.760	0.070	-0.190	0.820
2020/01/31 00:13:47.3	268.770	0.070	-0.170	0.820
2020/01/31 00:13:47.4	268.780	0.060	-0.150	0.820
2020/01/31 00:13:47.5	268.800	0.060	-0.130	0.820
2020/01/31 00:13:47.6	268.810	0.060	-0.120	0.820
2020/01/31 00:13:47.7	268.820	0.060	-0.100	0.810
2020/01/31 00:13:47.8	268.830	0.050	-0.080	0.810
2020/01/31 00:13:47.9	268.860	0.050	-0.070	0.810
2020/01/31 00:13:48.0	268.870	0.050	-0.050	0.800
2020/01/31 00:13:48.1	268.890	0.040	-0.040	0.800
2020/01/31 00:13:48.2	268.900	0.040	-0.020	0.790
2020/01/31 00:13:48.3	268.920	0.040	-0.010	0.780
2020/01/31 00:13:48.4	268.930	0.030	0.000	0.780
2020/01/31 00:13:48.5	268.950	0.030	0.020	0.770
2020/01/31 00:13:48.6	268.960	0.030	0.030	0.750
2020/01/31 00:13:48.7	268.980	0.020	0.040	0.740
2020/01/31 00:13:48.8	269.000	0.020	0.060	0.730
2020/01/31 00:13:48.9	269.000	0.020	0.070	0.720
2020/01/31 00:13:49.0	269.020	0.010	0.080	0.710
2020/01/31 00:13:49.1	269.040	0.010	0.090	0.690
2020/01/31 00:13:49.2	269.060	0.000	0.100	0.680
2020/01/31 00:13:49.3	269.070	-0.000	0.110	0.660
2020/01/31 00:13:49.4	269.090	-0.000	0.120	0.640
2020/01/31 00:13:49.5	269.110	-0.010	0.130	0.620
2020/01/31 00:13:49.6	269.120	-0.010	0.140	0.600
2020/01/31 00:13:49.7	269.140	-0.020	0.150	0.590
2020/01/31 00:13:49.8	269.160	-0.020	0.160	0.560
2020/01/31 00:13:49.9	269.160	-0.020	0.160	0.540
2020/01/31 00:13:50.0	269.180	-0.030	0.170	0.520
2020/01/31 00:13:50.1	269.190	-0.030	0.180	0.500
2020/01/31 00:13:50.2	269.210	-0.040	0.180	0.480
2020/01/31 00:13:50.3	269.220	-0.040	0.190	0.450
2020/01/31 00:13:50.4	269.240	-0.040	0.190	0.430
2020/01/31 00:13:50.5	269.250	-0.050	0.190	0.400
2020/01/31 00:13:50.6	269.260	-0.050	0.190	0.370
2020/01/31 00:13:50.7	269.280	-0.050	0.200	0.350
2020/01/31 00:13:50.8	269.290	-0.060	0.200	0.320
2020/01/31 00:13:50.9	269.300	-0.060	0.200	0.290
2020/01/31 00:13:51.0	269.310	-0.060	0.190	0.260
2020/01/31 00:13:51.1	269.320	-0.060	0.190	0.230
2020/01/31 00:13:51.2	269.330	-0.070	0.180	0.200
2020/01/31 00:13:51.3	269.330	-0.070	0.180	0.170
2020/01/31 00:13:51.4	269.340	-0.070	0.170	0.140
2020/01/31 00:13:51.5	269.340	-0.070	0.150	0.110
2020/01/31 00:13:51.6	269.350	-0.080	0.140	0.080
2020/01/31 00:13:51.7	269.350	-0.080	0.120	0.050
2020/01/31 00:13:51.8	269.350	-0.080	0.110	0.030
2020/01/31 00:13:51.9	269.350	-0.080	0.080	0.000
2020/01/31 00:13:52.0	269.350	-0.080	0.060	-0.020
2020/01/31 00:13:52.1	269.350	-0.090	0.040	-0.040
2020/01/31 00:13:52.2	269.350	-0.090	0.010	-0.060
2020/01/31 00:13:52.3	269.340	-0.090	-0.020	-0.080
2020/01/31 00:13:52.4	269.340	-0.090	-0.050	-0.100
2020/01/31 00:13:52.5	269.330	-0.090	-0.090	-0.110
2020/01/31 00:13:52.6	269.330	-0.090	-0.120	-0.130
2020/01/31 00:13:52.7	269.320	-0.090	-0.160	-0.130
2020/01/31 00:13:52.8	269.310	-0.090	-0.200	-0.140
2020/01/31 00:13:52.9	269.300	-0.090	-0.250	-0.150
2020/01/31 00:13:53.0	269.290	-0.090	-0.290	-0.140
2020/01/31 00:13:53.1	269.280	-0.090	-0.340	-0.140
2020/01/31 00:13:53.2	269.260	-0.080	-0.390	-0.130
2020/01/31 00:13:53.3	269.250	-0.080	-0.430	-0.120
2020/01/31 00:13:53.4	269.240	-0.080	-0.480	-0.100
2020/01/31 00:13:53.5	269.220	-0.070	-0.530	-0.080
2020/01/31 00:13:53.6	269.200	-0.060	-0.580	-0.050
2020/01/31 00:13:53.7	269.190	-0.060	-0.630	-0.020
2020/01/31 00:13:53.8	269.170	-0.050	-0.680	0.010
2020/01/31 00:13:53.9	269.150	-0.040	-0.730	0.050
2020/01/31 00:13:54.0	269.130	-0.030	-0.780	0.090
2020/01/31 00:13:54.1	269.110	-0.020	-0.830	0.130
2020/01/31 00:13:54.2	269.090	-0.010	-0.870	0.180
2020/01/31 00:13:54.3	269.070	0.010	-0.910	0.220
2020/01/31 00:13:54.4	269.060	0.020	-0.950	0.270
2020/01/31 00:13:54.5	269.040	0.030	-0.990	0.310
2020/01/31 00:13:54.6	269.020	0.050	-1.030	0.360
2020/01/31 00:13:54.7	269.000	0.060	-1.060	0.410
2020/01/31 00:13:54.8	268.980	0.070	-1.100	0.450
2020/01/31 00:13:54.9	268.960	0.090	-1.120	0.500
2020/01/31 00:13:55.0	268.940	0.100	-1.150	0.550
2020/01/31 00:13:55.1	268.930	0.110	-1.170	0.600
2020/01/31 00:13:55.2	268.910	0.130	-1.180	0.640
2020/01/31 00:13:55.3	268.890	0.140	-1.200	0.690
2020/01/31 00:13:55.4	268.870	0.150	-1.210	0.730
2020/01/31 00:13:55.5	268.850	0.160	-1.210	0.780
2020/01/31 00:13:55.6	268.830	0.170	-1.220	0.820
2020/01/31 00:13:55.7	268.800	0.180	-1.210	0.860
2020/01/31 00:13:55.8	268.780	0.180	-1.210	0.900
2020/01/31 00:13:55.9	268.770	0.190	-1.200	0.940
2020/01/31 00:13:56.0	268.750	0.190	-1.190	0.980
2020/01/31 00:13:56.1	268.730	0.190	-1.170	1.010
2020/01/31 00:13:56.2	268.710	0.190	-1.160	1.040
2020/01/31 00:13:56.3	268.690	0.190	-1.130	1.070
2020/01/31 00:13:56.4	268.670	0.190	-1.110	1.100
2020/01/31 00:13:56.5	268.640	0.180	-1.080	1.130
2020/01/31 00:13:56.6	268.620	0.170	-1.050	1.150
2020/01/31 00:13:56.7	268.600	0.160	-1.010	1.180
2020/01/31 00:13:56.8	268.580	0.150	-0.980	1.190
2020/01/31 00:13:56.9	268.560	0.140	-0.940	1.210
2020/01/31 00:13:57.0	268.540	0.120	-0.900	1.230
2020/01/31 00:13:57.1	268.530	0.100	-0.850	1.240
2020/01/31 00:13:57.2	268.510	0.090	-0.810	1.240
2020/01/31 00:13:57.3	268.490	0.070	-0.770	1.250
2020/01/31 00:13:57.4	268.470	0.050	-0.720	1.250
2020/01/31 00:13:57.5	268.460	0.020	-0.670	1.250
2020/01/31 00:13:57.6	268.450	-0.000	-0.630	1.240
2020/01/31 00:13:57.7	268.430	-0.030	-0.580	1.240
2020/01/31 00:13:57.8	268.420	-0.050	-0.530	1.230
2020/01/31 00:13:57.9	268.410	-0.080	-0.480	1.220
2020/01/31 00:13:58.0	268.410	-0.100	-0.440	1.210
2020/01/31 00:13:58.1	268.400	-0.130	-0.390	1.190
2020/01/31 00:13:58.2	268.400	-0.150	-0.340	1.180
2020/01/31 00:13:58.3	268.390	-0.180	-0.300	1.170
2020/01/31 00:13:58.4	268.390	-0.200	-0.260	1.150
2020/01/31 00:13:58.5	268.390	-0.230	-0.210	1.140
2020/01/31 00:13:58.6	268.390	-0.250	-0.170	1.120
2020/01/31 00:13:58.7	268.400	-0.270	-0.130	1.100
2020/01/31 00:13:58.8	268.400	-0.290	-0.100	1.090
2020/01/31 00:13:58.9	268.400	-0.310	-0.060	1.070
2020/01/31 00:13:59.0	268.400	-0.330	-0.030	1.050
2020/01/31 00:13:59.1	268.410	-0.340	0.000	1.040
2020/01/31 00:13:59.2	268.410	-0.360	0.030	1.020
2020/01/31 00:13:59.3	268.420	-0.370	0.060	1.000
2020/01/31 00:13:59.4	268.420	-0.380	0.090	0.990
2020/01/31 00:13:59.5	268.430	-0.390	0.110	0.970
2020/01/31 00:13:59.6	268.440	-0.390	0.140	0.950
2020/01/31 00:13:59.7	268.450	-0.400	0.160	0.930
2020/01/31 00:13:59.8	268.460	-0.400	0.180	0.920
2020/01/31 00:13:59.9	268.460	-0.400	0.190	0.900
2020/01/31 00:14:00.0	268.470	-0.390	0.210	0.880
2020/01/31 00:14:00.1	268.490	-0.390	0.230	0.860
2020/01/31 00:14:00.2	268.500	-0.380	0.240	0.840
2020/01/31 00:14:00.3	268.510	-0.370	0.250	0.820
2020/01/31 00:14:00.4	268.530	-0.360	0.270	0.800
2020/01/31 00:14:00.5	268.540	-0.350	0.280	0.780
2020/01/31 00:14:00.6	268.560	-0.330	0.290	0.760
2020/01/31 00:14:00.7	268.580	-0.320	0.300	0.740
2020/01/31 00:14:00.8	268.600	-0.300	0.310	0.720
2020/01/31 00:14:00.9	268.610	-0.280	0.320	0.700
2020/01/31 00:14:01.0	268.630	-0.270	0.330	0.680
2020/01/31 00:14:01.1	268.650	-0.250	0.340	0.660
2020/01/31 00:14:01.2	268.680	-0.230	0.350	0.630
2020/01/31 00:14:01.3	268.700	-0.200	0.360	0.610
2020/01/31 00:14:01.4	268.720	-0.180	0.370	0.600
2020/01/31 00:14:01.5	268.740	-0.160	0.370	0.580
2020/01/31 00:14:01.6	268.760	-0.140	0.380	0.560
2020/01/31 00:14:01.7	268.780	-0.120	0.380	0.540
2020/01/31 00:14:01.8	268.800	-0.100	0.390	0.530
2020/01/31 00:14:01.9	268.820	-0.080	0.380	0.510
2020/01/31 00:14:02.0	268.840	-0.060	0.390	0.500
2020/01/31 00:14:02.1	268.860	-0.040	0.390	0.490
2020/01/31 00:14:02.2	268.880	-0.020	0.380	0.480
2020/01/31 00:14:02.3	268.890	-0.000	0.380	0.470
2020/01/31 00:14:02.4	268.910	0.020	0.370	0.460
2020/01/31 00:14:02.5	268.920	0.030	0.370	0.460
2020/01/31 00:14:02.6	268.940	0.050	0.360	0.450
2020/01/31 00:14:02.7	268.950	0.060	0.340	0.450
2020/01/31 00:14:02.8	268.960	0.080	0.330	0.450
2020/01/31 00:14:02.9	268.980	0.090	0.310	0.450
2020/01/31 00:14:03.0	269.000	0.110	0.290	0.450
2020/01/31 00:14:03.1	269.000	0.120	0.270	0.450
2020/01/31 00:14:03.2	269.010	0.130	0.250	0.460
2020/01/31 00:14:03.3	269.020	0.140	0.220	0.460
2020/01/31 00:14:03.4	269.030	0.150	0.190	0.470
2020/01/31 00:14:03.5	269.030	0.160	0.160	0.470
2020/01/31 00:14:03.6	269.040	0.170	0.130	0.480
2020/01/31 00:14:03.7	269.040	0.180	0.090	0.490
2020/01/31 00:14:03.8	269.040	0.190	0.060	0.500
2020/01/31 00:14:03.9	269.050	0.190	0.020	0.510
2020/01/31 00:14:04.0	269.050	0.200	-0.020	0.520
2020/01/31 00:14:04.1	269.050	0.210	-0.060	0.530
2020/01/31 00:14:04.2	269.050	0.210	-0.100	0.550
2020/01/31 00:14:04.3	269.050	0.220	-0.140	0.560
2020/01/31 00:14:04.4	269.050	0.220	-0.180	0.570
2020/01/31 00:14:04.5	269.050	0.230	-0.210	0.580
2020/01/31 00:14:04.6	269.040	0.230	-0.250	0.590
2020/01/31 00:14:04.7	269.040	0.240	-0.290	0.600
2020/01/31 00:14:04.8	269.040	0.240	-0.320	0.610
2020/01/31 00:14:04.9	269.020	0.250	-0.360	0.620
2020/01/31 00:14:05.0	269.010	0.250	-0.400	0.630
2020/01/31 00:14:05.1	269.010	0.260	-0.430	0.640
2020/01/31 00:14:05.2	269.010	0.260	-0.460	0.640
2020/01/31 00:14:05.3	269.000	0.270	-0.490	0.650
2020/01/31 00:14:05.4	269.000	0.270	-0.510	0.660
2020/01/31 00:14:05.5	268.990	0.280	-0.540	0.660
2020/01/31 00:14:05.6	268.990	0.290	-0.560	0.670
2020/01/31 00:14:05.7	268.980	0.290	-0.590	0.670
2020/01/31 00:14:05.8	268.980	0.300	-0.610	0.680
2020/01/31 00:14:05.9	268.980	0.300	-0.630	0.680
2020/01/31 00:14:06.0	268.980	0.310	-0.640	0.690
2020/01/31 00:14:06.1	268.970	0.320	-0.660	0.700
2020/01/31 00:14:06.2	268.960	0.320	-0.670	0.700
2020/01/31 00:14:06.3	268.960	0.330	-0.690	0.710
2020/01/31 00:14:06.4	268.950	0.330	-0.700	0.720
2020/01/31 00:14:06.5	268.940	0.340	-0.710	0.730
2020/01/31 00:14:06.6	268.930	0.340	-0.720	0.740
2020/01/31 00:14:06.7	268.920	0.350	-0.730	0.750
2020/01/31 00:14:06.8	268.910	0.350	-0.730	0.760
2020/01/31 00:14:06.9	268.920	0.350	-0.740	0.780
2020/01/31 00:14:07.0	268.910	0.350	-0.750	0.800
2020/01/31 00:14:07.1	268.890	0.360	-0.750	0.820
2020/01/31 00:14:07.2	268.880	0.360	-0.760	0.840
2020/01/31 00:14:07.3	268.870	0.360	-0.760	0.860
2020/01/31 00:14:07.4	268.850	0.360	-0.760	0.890
2020/01/31 00:14:07.5	268.840	0.360	-0.770	0.920
2020/01/31 00:14:07.6	268.820	0.360	-0.770	0.950
2020/01/31 00:14:07.7	268.800	0.350	-0.770	0.980
2020/01/31 00:14:07.8	268.780	0.350	-0.770	1.010
2020/01/31 00:14:07.9	268.770	0.350	-0.760	1.040
2020/01/31 00:14:08.0	268.750	0.340	-0.760	1.070
2020/01/31 00:14:08.1	268.730	0.340	-0.760	1.110
2020/01/31 00:14:08.2	268.710	0.330	-0.750	1.140
2020/01/31 00:14:08.3	268.690	0.320	-0.750	1.170
2020/01/31 00:14:08.4	268.660	0.310	-0.740	1.200
2020/01/31 00:14:08.5	268.640	0.300	-0.730	1.230
2020/01/31 00:14:08.6	268.620	0.290	-0.730	1.250
2020/01/31 00:14:08.7	268.600	0.280	-0.720	1.280
2020/01/31 00:14:08.8	268.580	0.270	-0.710	1.300
2020/01/31 00:14:08.9	268.560	0.250	-0.700	1.320
2020/01/31 00:14:09.0	268.540	0.240	-0.690	1.330
2020/01/31 00:14:09.1	268.520	0.220	-0.680	1.350
2020/01/31 00:14:09.2	268.500	0.210	-0.670	1.350
2020/01/31 00:14:09.3	268.480	0.190	-0.650	1.360
2020/01/31 00:14:09.4	268.470	0.170	-0.640	1.360
2020/01/31 00:14:09.5	268.450	0.160	-0.620	1.360
2020/01/31 00:14:09.6	268.430	0.140	-0.610	1.350
2020/01/31 00:14:09.7	268.420	0.120	-0.590	1.340
2020/01/31 00:14:09.8	268.400	0.100	-0.580	1.330
2020/01/31 00:14:09.9	268.390	0.080	-0.560	1.310
2020/01/31 00:14:10.0	268.380	0.060	-0.550	1.290
2020/01/31 00:14:10.1	268.370	0.040	-0.530	1.270
2020/01/31 00:14:10.2	268.360	0.020	-0.510	1.250
2020/01/31 00:14:10.3	268.350	-0.000	-0.490	1.230
2020/01/31 00:14:10.4	268.340	-0.030	-0.480	1.200
2020/01/31 00:14:10.5	268.340	-0.050	-0.460	1.170
2020/01/31 00:14:10.6	268.330	-0.070	-0.440	1.140
2020/01/31 00:14:10.7	268.330	-0.090	-0.420	1.100
2020/01/31 00:14:10.8	268.330	-0.100	-0.410	1.060
2020/01/31 00:14:10.9	268.320	-0.120	-0.390	1.030
2020/01/31 00:14:11.0	268.320	-0.140	-0.370	0.990
2020/01/31 00:14:11.1	268.320	-0.160	-0.360	0.950
2020/01/31 00:14:11.2	268.330	-0.180	-0.340	0.900
2020/01/31 00:14:11.3	268.330	-0.190	-0.330	0.860
2020/01/31 00:14:11.4	268.340	-0.210	-0.320	0.820
2020/01/31 00:14:11.5	268.350	-0.230	-0.300	0.770
2020/01/31 00:14:11.6	268.350	-0.240	-0.290	0.730
2020/01/31 00:14:11.7	268.360	-0.250	-0.280	0.690
2020/01/31 00:14:11.8	268.380	-0.270	-0.270	0.640
2020/01/31 00:14:11.9	268.390	-0.280	-0.260	0.600
2020/01/31 00:14:12.0	268.400	-0.290	-0.250	0.560
2020/01/31 00:14:12.1	268.420	-0.300	-0.240	0.520
2020/01/31 00:14:12.2	268.430	-0.300	-0.240	0.490
2020/01/31 00:14:12.3	268.440	-0.310	-0.240	0.450
2020/01/31 00:14:12.4	268.450	-0.320	-0.230	0.420
2020/01/31 00:14:12.5	268.470	-0.320	-0.230	0.390
2020/01/31 00:14:12.6	268.480	-0.320	-0.230	0.360
2020/01/31 00:14:12.7	268.490	-0.320	-0.230	0.330
2020/01/31 00:14:12.8	268.510	-0.330	-0.230	0.310
2020/01/31 00:14:12.9	268.530	-0.330	-0.230	0.300
2020/01/31 00:14:13.0	268.540	-0.320	-0.230	0.280
2020/01/31 00:14:13.1	268.550	-0.320	-0.230	0.270
2020/01/31 00:14:13.2	268.560	-0.320	-0.240	0.260
2020/01/31 00:14:13.3	268.580	-0.320	-0.240	0.260
2020/01/31 00:14:13.4	268.590	-0.310	-0.240	0.260
2020/01/31 00:14:13.5	268.600	-0.300	-0.250	0.260
2020/01/31 00:14:13.6	268.610	-0.300	-0.250	0.260
2020/01/31 00:14:13.7	268.620	-0.290	-0.250	0.270
2020/01/31 00:14:13.8	268.630	-0.280	-0.250	0.280
2020/01/31 00:14:13.9	268.640	-0.280	-0.260	0.300
2020/01/31 00:14:14.0	268.650	-0.270	-0.260	0.320
2020/01/31 00:14:14.1	268.660	-0.260	-0.260	0.340
2020/01/31 00:14:14.2	268.670	-0.250	-0.260	0.360
2020/01/31 00:14:14.3	268.680	-0.240	-0.260	0.380
2020/01/31 00:14:14.4	268.680	-0.230	-0.260	0.410
2020/01/31 00:14:14.5	268.690	-0.230	-0.270	0.440
2020/01/31 00:14:14.6	268.700	-0.220	-0.260	0.460
2020/01/31 00:14:14.7	268.700	-0.210	-0.260	0.490
2020/01/31 00:14:14.8	268.710	-0.200	-0.260	0.520
2020/01/31 00:14:14.9	268.720	-0.190	-0.260	0.550
2020/01/31 00:14:15.0	268.720	-0.190	-0.260	0.570
2020/01/31 00:14:15.1	268.720	-0.180	-0.260	0.600
2020/01/31 00:14:15.2	268.730	-0.170	-0.250	0.630
2020/01/31 00:14:15.3	268.730	-0.170	-0.250	0.650
2020/01/31 00:14:15.4	268.730	-0.160	-0.250	0.680
2020/01/31 00:14:15.5	268.730	-0.160	-0.240	0.700
2020/01/31 00:14:15.6	268.730	-0.150	-0.240	0.720
2020/01/31 00:14:15.7	268.740	-0.150	-0.230	0.750
2020/01/31 00:14:15.8	268.740	-0.150	-0.220	0.770
2020/01/31 00:14:15.9	268.730	-0.140	-0.220	0.790
2020/01/31 00:14:16.0	268.730	-0.140	-0.210	0.810
2020/01/31 00:14:16.1	268.730	-0.140	-0.200	0.830
2020/01/31 00:14:16.2	268.730	-0.140	-0.190	0.850
2020/01/31 00:14:16.3	268.730	-0.140	-0.190	0.860
2020/01/31 00:14:16.4	268.730	-0.140	-0.180	0.880
2020/01/31 00:14:16.5	268.730	-0.140	-0.170	0.900
2020/01/31 00:14:16.6	268.720	-0.140	-0.160	0.910
2020/01/31 00:14:16.7	268.720	-0.140	-0.160	0.920
2020/01/31 00:14:16.8	268.720	-0.140	-0.150	0.940
2020/01/31 00:14:16.9	268.700	-0.140	-0.150	0.950
2020/01/31 00:14:17.0	268.700	-0.140	-0.140	0.960
2020/01/31 00:14:17.1	268.700	-0.140	-0.130	0.960
2020/01/31 00:14:17.2	268.690	-0.140	-0.130	0.970
2020/01/31 00:14:17.3	268.690	-0.140	-0.120	0.980
2020/01/31 00:14:17.4	268.680	-0.140	-0.110	0.980
2020/01/31 00:14:17.5	268.680	-0.140	-0.110	0.980
2020/01/31 00:14:17.6	268.670	-0.140	-0.100	0.980
2020/01/31 00:14:17.7	268.670	-0.130	-0.090	0.980
2020/01/31 00:14:17.8	268.660	-0.130	-0.090	0.980
2020/01/31 00:14:17.9	268.670	-0.130	-0.080	0.970
2020/01/31 00:14:18.0	268.660	-0.130	-0.070	0.960
2020/01/31 00:14:18.1	268.660	-0.130	-0.070	0.950
2020/01/31 00:14:18.2	268.650	-0.120	-0.060	0.940
2020/01/31 00:14:18.3	268.650	-0.120	-0.050	0.930
2020/01/31 00:14:18.4	268.640	-0.120	-0.050	0.910
2020/01/31 00:14:18.5	268.640	-0.110	-0.040	0.900
2020/01/31 00:14:18.6	268.640	-0.110	-0.040	0.880
2020/01/31 00:14:18.7	268.630	-0.100	-0.030	0.860
2020/01/31 00:14:18.8	268.630	-0.100	-0.030	0.850
2020/01/31 00:14:18.9	268.630	-0.090	-0.020	0.830
2020/01/31 00:14:19.0	268.630	-0.080	-0.020	0.810
2020/01/31 00:14:19.1	268.630	-0.070	-0.020	0.790
2020/01/31 00:14:19.2	268.630	-0.070	-0.020	0.780
2020/01/31 00:14:19.3	268.620	-0.060	-0.020	0.760
2020/01/31 00:14:19.4	268.620	-0.050	-0.020	0.740
2020/01/31 00:14:19.5	268.620	-0.040	-0.020	0.720
2020/01/31 00:14:19.6	268.620	-0.030	-0.020	0.700
2020/01/31 00:14:19.7	268.620	-0.020	-0.030	0.690
2020/01/31 00:14:19.8	268.620	-0.010	-0.040	0.670
2020/01/31 00:14:19.9	268.620	0.000	-0.040	0.660
2020/01/31 00:14:20.0	268.620	0.010	-0.050	0.640
2020/01/31 00:14:20.1	268.620	0.020	-0.060	0.620
2020/01/31 00:14:20.2	268.620	0.030	-0.070	0.610
2020/01/31 00:14:20.3	268.620	0.050	-0.090	0.600
2020/01/31 00:14:20.4	268.620	0.060	-0.100	0.580
2020/01/31 00:14:20.5	268.620	0.070	-0.110	0.570
2020/01/31 00:14:20.6	268.630	0.080	-0.130	0.560
2020/01/31 00:14:20.7	268.630	0.090	-0.140	0.540
2020/01/31 00:14:20.8	268.630	0.100	-0.150	0.530
2020/01/31 00:14:20.9	268.630	0.110	-0.170	0.520
2020/01/31 00:14:21.0	268.630	0.120	-0.180	0.510
2020/01/31 00:14:21.1	268.630	0.130	-0.200	0.500
2020/01/31 00:14:21.2	268.630	0.140	-0.210	0.490
2020/01/31 00:14:21.3	268.630	0.150	-0.220	0.480
2020/01/31 00:14:21.4	268.630	0.160	-0.240	0.480
2020/01/31 00:14:21.5	268.630	0.160	-0.250	0.470
2020/01/31 00:14:21.6	268.630	0.170	-0.260	0.460
2020/01/31 00:14:21.7	268.630	0.180	-0.270	0.460
2020/01/31 00:14:21.8	268.630	0.180	-0.280	0.450
2020/01/31 00:14:21.9	268.620	0.190	-0.290	0.450
2020/01/31 00:14:22.0	268.620	0.190	-0.300	0.450
2020/01/31 00:14:22.1	268.620	0.190	-0.310	0.450
2020/01/31 00:14:22.2	268.620	0.200	-0.310	0.440
2020/01/31 00:14:22.3	268.620	0.200	-0.320	0.440
2020/01/31 00:14:22.4	268.620	0.200	-0.330	0.440
2020/01/31 00:14:22.5	268.620	0.200	-0.330	0.440
2020/01/31 00:14:22.6	268.620	0.200	-0.340	0.440
2020/01/31 00:14:22.7	268.610	0.200	-0.350	0.430
2020/01/31 00:14:22.8	268.610	0.200	-0.350	0.430
2020/01/31 00:14:22.9	268.610	0.200	-0.360	0.430
2020/01/31 00:14:23.0	268.600	0.190	-0.360	0.430
2020/01/31 00:14:23.1	268.600	0.190	-0.370	0.430
2020/01/31 00:14:23.2	268.600	0.190	-0.370	0.430
2020/01/31 00:14:23.3	268.600	0.180	-0.380	0.430
2020/01/31 00:14:23.4	268.600	0.180	-0.380	0.420
2020/01/31 00:14:23.5	268.600	0.180	-0.390	0.420
2020/01/31 00:14:23.6	268.600	0.170	-0.390	0.420
2020/01/31 00:14:23.7	268.600	0.170	-0.390	0.410
2020/01/31 00:14:23.8	268.600	0.160	-0.400	0.410
2020/01/31 00:14:23.9	268.590	0.160	-0.410	0.410
2020/01/31 00:14:24.0	268.590	0.160	-0.410	0.400
2020/01/31 00:14:24.1	268.590	0.150	-0.420	0.400
2020/01/31 00:14:24.2	268.590	0.150	-0.430	0.390
2020/01/31 00:14:24.3	268.590	0.150	-0.430	0.390
2020/01/31 00:14:24.4	268.590	0.140	-0.440	0.380
2020/01/31 00:14:24.5	268.600	0.140	-0.440	0.380
2020/01/31 00:14:24.6	268.600	0.140	-0.450	0.380
2020/01/31 00:14:24.7	268.600	0.140	-0.460	0.370
2020/01/31 00:14:24.8	268.600	0.140	-0.460	0.370
2020/01/31 00:14:24.9	268.600	0.140	-0.470	0.360
2020/01/31 00:14:25.0	268.600	0.140	-0.470	0.360
2020/01/31 00:14:25.1	268.600	0.150	-0.480	0.360
2020/01/31 00:14:25.2	268.600	0.150	-0.490	0.370
2020/01/31 00:14:25.3	268.600	0.150	-0.500	0.370
2020/01/31 00:14:25.4	268.600	0.160	-0.500	0.370
2020/01/31 00:14:25.5	268.600	0.160	-0.510	0.380
2020/01/31 00:14:25.6	268.590	0.170	-0.520	0.390
2020/01/31 00:14:25.7	268.590	0.170	-0.530	0.400
2020/01/31 00:14:25.8	268.590	0.180	-0.540	0.410
2020/01/31 00:14:25.9	268.590	0.190	-0.540	0.430
2020/01/31 00:14:26.0	268.590	0.200	-0.550	0.440
2020/01/31 00:14:26.1	268.580	0.200	-0.560	0.460
2020/01/31 00:14:26.2	268.580	0.210	-0.560	0.480
2020/01/31 00:14:26.3	268.570	0.220	-0.570	0.500
2020/01/31 00:14:26.4	268.560	0.220	-0.580	0.520
2020/01/31 00:14:26.5	268.550	0.230	-0.580	0.540
2020/01/31 00:14:26.6	268.540	0.240	-0.590	0.570
2020/01/31 00:14:26.7	268.530	0.240	-0.590	0.590
2020/01/31 00:14:26.8	268.520	0.250	-0.600	0.620
2020/01/31 00:14:26.9	268.500	0.250	-0.600	0.650
2020/01/31 00:14:27.0	268.490	0.260	-0.600	0.680
2020/01/31 00:14:27.1	268.480	0.260	-0.600	0.700
2020/01/31 00:14:27.2	268.460	0.270	-0.600	0.730
2020/01/31 00:14:27.3	268.450	0.270	-0.600	0.750
2020/01/31 00:14:27.4	268.430	0.270	-0.600	0.780
2020/01/31 00:14:27.5	268.420	0.270	-0.600	0.800
2020/01/31 00:14:27.6	268.400	0.270	-0.600	0.820
2020/01/31 00:14:27.7	268.380	0.270	-0.600	0.840
2020/01/31 00:14:27.8	268.360	0.260	-0.590	0.870
2020/01/31 00:14:27.9	268.350	0.260	-0.590	0.880
2020/01/31 00:14:28.0	268.330	0.250	-0.590	0.900
2020/01/31 00:14:28.1	268.310	0.250	-0.580	0.920
2020/01/31 00:14:28.2	268.290	0.240	-0.580	0.940
2020/01/31 00:14:28.3	268.260	0.230	-0.580	0.960
2020/01/31 00:14:28.4	268.240	0.220	-0.570	0.970
2020/01/31 00:14:28.5	268.220	0.210	-0.570	0.990
2020/01/31 00:14:28.6	268.200	0.200	-0.560	1.010
2020/01/31 00:14:28.7	268.170	0.190	-0.560	1.020
2020/01/31 00:14:28.8	268.150	0.170	-0.550	1.030
2020/01/31 00:14:28.9	268.120	0.160	-0.540	1.050
2020/01/31 00:14:29.0	268.100	0.150	-0.540	1.060
2020/01/31 00:14:29.1	268.070	0.130	-0.530	1.070
2020/01/31 00:14:29.2	268.050	0.120	-0.520	1.070
2020/01/31 00:14:29.3	268.020	0.100	-0.510	1.080
2020/01/31 00:14:29.4	268.000	0.090	-0.510	1.080
2020/01/31 00:14:29.5	267.970	0.070	-0.500	1.090
2020/01/31 00:14:29.6	267.950	0.060	-0.490	1.090
2020/01/31 00:14:29.7	267.920	0.040	-0.480	1.090
2020/01/31 00:14:29.8	267.900	0.020	-0.470	1.090
2020/01/31 00:14:29.9	267.860	0.010	-0.450	1.080
2020/01/31 00:14:30.0	267.840	-0.010	-0.440	1.080
2020/01/31 00:14:30.1	267.820	-0.020	-0.430	1.070
2020/01/31 00:14:30.2	267.790	-0.040	-0.420	1.060
2020/01/31 00:14:30.3	267.770	-0.060	-0.410	1.050
2020/01/31 00:14:30.4	267.750	-0.070	-0.390	1.040
2020/01/31 00:14:30.5	267.730	-0.090	-0.380	1.020
2020/01/31 00:14:30.6	267.710	-0.100	-0.360	1.010
2020/01/31 00:14:30.7	267.690	-0.120	-0.350	0.990
2020/01/31 00:14:30.8	267.670	-0.140	-0.340	0.970
2020/01/31 00:14:30.9	267.650	-0.150	-0.330	0.950
2020/01/31 00:14:31.0	267.630	-0.170	-0.310	0.920
2020/01/31 00:14:31.1	267.610	-0.180	-0.300	0.900
2020/01/31 00:14:31.2	267.590	-0.200	-0.280	0.880
2020/01/31 00:14:31.3	267.580	-0.210	-0.270	0.850
2020/01/31 00:14:31.4	267.570	-0.230	-0.250	0.830
2020/01/31 00:14:31.5	267.550	-0.240	-0.240	0.800
2020/01/31 00:14:31.6	267.540	-0.250	-0.220	0.780
2020/01/31 00:14:31.7	267.530	-0.270	-0.210	0.750
2020/01/31 00:14:31.8	267.520	-0.280	-0.190	0.730
2020/01/31 00:14:31.9	267.520	-0.290	-0.170	0.700
2020/01/31 00:14:32.0	267.520	-0.300	-0.160	0.680
2020/01/31 00:14:32.1	267.510	-0.310	-0.140	0.650
2020/01/31 00:14:32.2	267.510	-0.320	-0.130	0.630
2020/01/31 00:14:32.3	267.510	-0.330	-0.110	0.600
2020/01/31 00:14:32.4	267.510	-0.340	-0.100	0.580
2020/01/31 00:14:32.5	267.510	-0.350	-0.090	0.550
2020/01/31 00:14:32.6	267.520	-0.360	-0.070	0.530
2020/01/31 00:14:32.7	267.530	-0.370	-0.060	0.500
2020/01/31 00:14:32.8	267.540	-0.370	-0.050	0.480
2020/01/31 00:14:32.9	267.550	-0.380	-0.040	0.450
2020/01/31 00:14:33.0	267.570	-0.390	-0.020	0.430
2020/01/31 00:14:33.1	267.590	-0.390	-0.010	0.400
2020/01/31 00:14:33.2	267.610	-0.400	-0.000	0.380
2020/01/31 00:14:33.3	267.640	-0.400	0.010	0.350
2020/01/31 00:14:33.4	267.670	-0.400	0.020	0.320
2020/01/31 00:14:33.5	267.700	-0.410	0.030	0.300
2020/01/31 00:14:33.6	267.730	-0.410	0.040	0.270
2020/01/31 00:14:33.7	267.770	-0.410	0.050	0.240
2020/01/31 00:14:33.8	267.810	-0.410	0.060	0.210
2020/01/31 00:14:33.9	267.850	-0.420	0.070	0.180
2020/01/31 00:14:34.0	267.890	-0.420	0.080	0.150
2020/01/31 00:14:34.1	267.940	-0.420	0.090	0.130
2020/01/31 00:14:34.2	267.990	-0.420	0.090	0.100
2020/01/31 00:14:34.3	268.040	-0.420	0.100	0.070
2020/01/31 00:14:34.4	268.090	-0.420	0.110	0.040
2020/01/31 00:14:34.5	268.140	-0.410	0.110	0.020
2020/01/31 00:14:34.6	268.190	-0.410	0.120	-0.010
2020/01/31 00:14:34.7	268.240	-0.410	0.120	-0.030
2020/01/31 00:14:34.8	268.300	-0.410	0.130	-0.050
2020/01/31 00:14:34.9	268.360	-0.400	0.130	-0.070
2020/01/31 00:14:35.0	268.410	-0.400	0.130	-0.080
2020/01/31 00:14:35.1	268.460	-0.390	0.140	-0.100
2020/01/31 00:14:35.2	268.520	-0.390	0.140	-0.110
2020/01/31 00:14:35.3	268.570	-0.380	0.140	-0.110
2020/01/31 00:14:35.4	268.620	-0.380	0.140	-0.120
2020/01/31 00:14:35.5	268.670	-0.370	0.130	-0.120
2020/01/31 00:14:35.6	268.720	-0.360	0.130	-0.120
2020/01/31 00:14:35.7	268.770	-0.360	0.130	-0.110
2020/01/31 00:14:35.8	268.820	-0.350	0.120	-0.100
2020/01/31 00:14:35.9	268.860	-0.340	0.110	-0.090
2020/01/31 00:14:36.0	268.900	-0.330	0.100	-0.070
2020/01/31 00:14:36.1	268.940	-0.320	0.090	-0.050
2020/01/31 00:14:36.2	268.980	-0.310	0.080	-0.020
2020/01/31 00:14:36.3	269.020	-0.300	0.070	0.000
2020/01/31 00:14:36.4	269.050	-0.280	0.060	0.030
2020/01/31 00:14:36.5	269.080	-0.270	0.050	0.070
2020/01/31 00:14:36.6	269.110	-0.260	0.030	0.100
2020/01/31 00:14:36.7	269.130	-0.240	0.020	0.140
2020/01/31 00:14:36.8	269.160	-0.230	0.000	0.180
2020/01/31 00:14:36.9	269.180	-0.210	-0.010	0.220
2020/01/31 00:14:37.0	269.190	-0.200	-0.030	0.260
2020/01/31 00:14:37.1	269.210	-0.180	-0.050	0.300
2020/01/31 00:14:37.2	269.230	-0.160	-0.070	0.330
2020/01/31 00:14:37.3	269.240	-0.150	-0.090	0.370
2020/01/31 00:14:37.4	269.250	-0.130	-0.110	0.410
2020/01/31 00:14:37.5	269.260	-0.110	-0.130	0.440
2020/01/31 00:14:37.6	269.270	-0.090	-0.150	0.480
2020/01/31 00:14:37.7	269.280	-0.070	-0.170	0.510
2020/01/31 00:14:37.8	269.280	-0.050	-0.190	0.550
2020/01/31 00:14:37.9	269.300	-0.020	-0.200	0.580
2020/01/31 00:14:38.0	269.310	-0.000	-0.220	0.610
2020/01/31 00:14:38.1	269.310	0.020	-0.240	0.640
2020/01/31 00:14:38.2	269.310	0.040	-0.260	0.670
2020/01/31 00:14:38.3	269.310	0.070	-0.280	0.690
2020/01/31 00:14:38.4	269.310	0.090	-0.300	0.720
2020/01/31 00:14:38.5	269.310	0.110	-0.320	0.740
2020/01/31 00:14:38.6	269.310	0.140	-0.340	0.760
2020/01/31 00:14:38.7	269.310	0.160	-0.360	0.780
2020/01/31 00:14:38.8	269.310	0.180	-0.380	0.790
2020/01/31 00:14:38.9	269.310	0.210	-0.400	0.800
2020/01/31 00:14:39.0	269.310	0.230	-0.420	0.810
2020/01/31 00:14:39.1	269.310	0.250	-0.440	0.830
2020/01/31 00:14:39.2	269.300	0.280	-0.450	0.840
2020/01/31 00:14:39.3	269.300	0.300	-0.470	0.840
2020/01/31 00:14:39.4	269.300	0.320	-0.490	0.850
2020/01/31 00:14:39.5	269.290	0.340	-0.510	0.860
2020/01/31 00:14:39.6	269.280	0.360	-0.530	0.860
2020/01/31 00:14:39.7	269.280	0.380	-0.550	0.870
2020/01/31 00:14:39.8	269.270	0.400	-0.570	0.870
2020/01/31 00:14:39.9	269.270	0.420	-0.590	0.870
2020/01/31 00:14:40.0	269.250	0.430	-0.610	0.880
2020/01/31 00:14:40.1	269.240	0.450	-0.630	0.880
2020/01/31 00:14:40.2	269.230	0.470	-0.650	0.880
2020/01/31 00:14:40.3	269.210	0.480	-0.660	0.880
2020/01/31 00:14:40.4	269.190	0.490	-0.680	0.880
2020/01/31 00:14:40.5	269.170	0.500	-0.700	0.880
2020/01/31 00:14:40.6	269.150	0.510	-0.720	0.880
2020/01/31 00:14:40.7	269.130	0.520	-0.730	0.890
2020/01/31 00:14:40.8	269.110	0.530	-0.750	0.890
2020/01/31 00:14:40.9	269.070	0.530	-0.760	0.890
2020/01/31 00:14:41.0	269.050	0.540	-0.770	0.890
2020/01/31 00:14:41.1	269.020	0.540	-0.780	0.890
2020/01/31 00:14:41.2	268.990	0.540	-0.790	0.900
2020/01/31 00:14:41.3	268.960	0.540	-0.800	0.900
2020/01/31 00:14:41.4	268.930	0.540	-0.800	0.910
2020/01/31 00:14:41.5	268.900	0.540	-0.800	0.910
2020/01/31 00:14:41.6	268.860	0.530	-0.810	0.920
2020/01/31 00:14:41.7	268.830	0.520	-0.810	0.920
2020/01/31 00:14:41.8	268.790	0.520	-0.800	0.930
2020/01/31 00:14:41.9	268.760	0.510	-0.800	0.930
2020/01/31 00:14:42.0	268.720	0.500	-0.790	0.940
2020/01/31 00:14:42.1	268.690	0.490	-0.790	0.950
2020/01/31 00:14:42.2	268.650	0.480	-0.780	0.960
2020/01/31 00:14:42.3	268.610	0.460	-0.770	0.980
2020/01/31 00:14:42.4	268.570	0.450	-0.760	0.990
2020/01/31 00:14:42.5	268.530	0.430	-0.750	1.000
2020/01/31 00:14:42.6	268.490	0.420	-0.740	1.010
2020/01/31 00:14:42.7	268.460	0.400	-0.720	1.030
2020/01/31 00:14:42.8	268.420	0.390	-0.710	1.040
2020/01/31 00:14:42.9	268.380	0.370	-0.690	1.060
2020/01/31 00:14:43.0	268.340	0.350	-0.680	1.070
2020/01/31 00:14:43.1	268.310	0.330	-0.670	1.080
2020/01/31 00:14:43.2	268.280	0.320	-0.650	1.100
2020/01/31 00:14:43.3	268.240	0.300	-0.640	1.110
2020/01/31 00:14:43.4	268.210	0.280	-0.630	1.120
2020/01/31 00:14:43.5	268.180	0.260	-0.610	1.130
2020/01/31 00:14:43.6	268.160	0.240	-0.600	1.130
2020/01/31 00:14:43.7	268.130	0.220	-0.590	1.140
2020/01/31 00:14:43.8	268.110	0.210	-0.570	1.150
2020/01/31 00:14:43.9	268.090	0.190	-0.560	1.150
2020/01/31 00:14:44.0	268.070	0.170	-0.550	1.150
2020/01/31 00:14:44.1	268.050	0.160	-0.540	1.150
2020/01/31 00:14:44.2	268.030	0.140	-0.530	1.150
2020/01/31 00:14:44.3	268.020	0.120	-0.510	1.150
2020/01/31 00:14:44.4	268.000	0.110	-0.500	1.150
2020/01/31 00:14:44.5	267.990	0.090	-0.480	1.150
2020/01/31 00:14:44.6	267.980	0.080	-0.470	1.150
2020/01/31 00:14:44.7	267.970	0.070	-0.450	1.150
2020/01/31 00:14:44.8	267.960	0.050	-0.440	1.150
2020/01/31 00:14:44.9	267.950	0.040	-0.420	1.140
2020/01/31 00:14:45.0	267.940	0.030	-0.400	1.140
2020/01/31 00:14:45.1	267.940	0.010	-0.380	1.130
2020/01/31 00:14:45.2	267.940	0.000	-0.370	1.120
2020/01/31 00:14:45.3	267.940	-0.010	-0.340	1.110
2020/01/31 00:14:45.4	267.940	-0.020	-0.320	1.100
2020/01/31 00:14:45.5	267.950	-0.030	-0.300	1.090
2020/01/31 00:14:45.6	267.950	-0.050	-0.280	1.080
2020/01/31 00:14:45.7	267.960	-0.060	-0.260	1.060
2020/01/31 00:14:45.8	267.970	-0.070	-0.230	1.050
2020/01/31 00:14:45.9	267.970	-0.090	-0.210	1.020
2020/01/31 00:14:46.0	267.980	-0.100	-0.190	1.000
2020/01/31 00:14:46.1	268.000	-0.110	-0.160	0.980
2020/01/31 00:14:46.2	268.010	-0.130	-0.140	0.960
2020/01/31 00:14:46.3	268.030	-0.140	-0.110	0.930
2020/01/31 00:14:46.4	268.050	-0.160	-0.090	0.910
2020/01/31 00:14:46.5	268.080	-0.170	-0.060	0.880
2020/01/31 00:14:46.6	268.100	-0.190	-0.040	0.860
2020/01/31 00:14:46.7	268.130	-0.200	-0.010	0.830
2020/01/31 00:14:46.8	268.160	-0.220	0.010	0.800
2020/01/31 00:14:46.9	268.190	-0.240	0.040	0.770
2020/01/31 00:14:47.0	268.220	-0.250	0.060	0.740
2020/01/31 00:14:47.1	268.250	-0.270	0.080	0.710
2020/01/31 00:14:47.2	268.290	-0.290	0.100	0.680
2020/01/31 00:14:47.3	268.330	-0.310	0.120	0.650
2020/01/31 00:14:47.4	268.370	-0.320	0.140	0.610
2020/01/31 00:14:47.5	268.410	-0.340	0.160	0.580
2020/01/31 00:14:47.6	268.450	-0.360	0.180	0.550
2020/01/31 00:14:47.7	268.500	-0.370	0.190	0.520
2020/01/31 00:14:47.8	268.550	-0.390	0.210	0.480
2020/01/31 00:14:47.9	268.590	-0.400	0.220	0.450
2020/01/31 00:14:48.0	268.640	-0.420	0.240	0.410
2020/01/31 00:14:48.1	268.690	-0.430	0.250	0.380
2020/01/31 00:14:48.2	268.740	-0.440	0.250	0.340
2020/01/31 00:14:48.3	268.800	-0.450	0.260	0.310
2020/01/31 00:14:48.4	268.860	-0.460	0.270	0.270
2020/01/31 00:14:48.5	268.920	-0.470	0.270	0.230
2020/01/31 00:14:48.6	268.970	-0.480	0.270	0.200
2020/01/31 00:14:48.7	269.030	-0.480	0.270	0.160
2020/01/31 00:14:48.8	269.090	-0.490	0.270	0.120
2020/01/31 00:14:48.9	269.160	-0.490	0.260	0.080
2020/01/31 00:14:49.0	269.220	-0.490	0.260	0.040
2020/01/31 00:14:49.1	269.280	-0.490	0.250	0.010
2020/01/31 00:14:49.2	269.340	-0.490	0.230	-0.030
2020/01/31 00:14:49.3	269.400	-0.480	0.220	-0.060
2020/01/31 00:14:49.4	269.460	-0.480	0.200	-0.090
2020/01/31 00:14:49.5	269.520	-0.470	0.180	-0.120
2020/01/31 00:14:49.6	269.570	-0.460	0.160	-0.150
2020/01/31 00:14:49.7	269.630	-0.440	0.140	-0.170
2020/01/31 00:14:49.8	269.680	-0.430	0.120	-0.190
2020/01/31 00:14:49.9	269.730	-0.410	0.090	-0.210
2020/01/31 00:14:50.0	269.770	-0.400	0.060	-0.220
2020/01/31 00:14:50.1	269.820	-0.380	0.020	-0.230
2020/01/31 00:14:50.2	269.870	-0.360	-0.010	-0.240
2020/01/31 00:14:50.3	269.910	-0.330	-0.040	-0.240
2020/01/31 00:14:50.4	269.950	-0.310	-0.080	-0.230
2020/01/31 00:14:50.5	269.990	-0.280	-0.120	-0.230
2020/01/31 00:14:50.6	270.020	-0.260	-0.150	-0.210
2020/01/31 00:14:50.7	270.060	-0.230	-0.190	-0.200
2020/01/31 00:14:50.8	270.090	-0.200	-0.230	-0.170
2020/01/31 00:14:50.9	270.100	-0.170	-0.270	-0.150
2020/01/31 00:14:51.0	270.120	-0.140	-0.310	-0.120
2020/01/31 00:14:51.1	270.140	-0.110	-0.350	-0.080
2020/01/31 00:14:51.2	270.160	-0.080	-0.390	-0.040
2020/01/31 00:14:51.3	270.170	-0.050	-0.430	0.000
2020/01/31 00:14:51.4	270.180	-0.010	-0.460	0.050
2020/01/31 00:14:51.5	270.190	0.020	-0.500	0.090
2020/01/31 00:14:51.6	270.190	0.040	-0.530	0.150
2020/01/31 00:14:51.7	270.190	0.070	-0.560	0.200
2020/01/31 00:14:51.8	270.190	0.100	-0.590	0.250
2020/01/31 00:14:51.9	270.200	0.130	-0.620	0.310
2020/01/31 00:14:52.0	270.190	0.150	-0.640	0.370
2020/01/31 00:14:52.1	270.170	0.180	-0.660	0.430
2020/01/31 00:14:52.2	270.160	0.200	-0.680	0.490
2020/01/31 00:14:52.3	270.140	0.220	-0.690	0.550
2020/01/31 00:14:52.4	270.110	0.240	-0.700	0.610
2020/01/31 00:14:52.5	270.090	0.250	-0.710	0.670
2020/01/31 00:14:52.6	270.060	0.270	-0.720	0.730
2020/01/31 00:14:52.7	270.030	0.280	-0.720	0.790
2020/01/31 00:14:52.8	270.000	0.290	-0.720	0.840
2020/01/31 00:14:52.9	269.970	0.300	-0.710	0.890
2020/01/31 00:14:53.0	269.930	0.300	-0.710	0.950
2020/01/31 00:14:53.1	269.890	0.310	-0.700	1.000
2020/01/31 00:14:53.2	269.850	0.310	-0.680	1.050
2020/01/31 00:14:53.3	269.800	0.310	-0.670	1.090
2020/01/31 00:14:53.4	269.760	0.310	-0.650	1.140
2020/01/31 00:14:53.5	269.710	0.310	-0.630	1.180
2020/01/31 00:14:53.6	269.660	0.300	-0.610	1.220
2020/01/31 00:14:53.7	269.610	0.290	-0.590	1.250
2020/01/31 00:14:53.8	269.560	0.290	-0.560	1.280
2020/01/31 00:14:53.9	269.500	0.280	-0.540	1.310
2020/01/31 00:14:54.0	269.440	0.260	-0.510	1.340
2020/01/31 00:14:54.1	269.390	0.250	-0.490	1.360
2020/01/31 00:14:54.2	269.330	0.240	-0.460	1.380
2020/01/31 00:14:54.3	269.280	0.230	-0.430	1.390
2020/01/31 00:14:54.4	269.220	0.210	-0.400	1.400
2020/01/31 00:14:54.5	269.170	0.200	-0.380	1.410
2020/01/31 00:14:54.6	269.110	0.180	-0.350	1.410
2020/01/31 00:14:54.7	269.060	0.170	-0.330	1.410
2020/01/31 00:14:54.8	269.010	0.150	-0.300	1.410
2020/01/31 00:14:54.9	268.960	0.140	-0.280	1.400
2020/01/31 00:14:55.0	268.910	0.120	-0.260	1.390
2020/01/31 00:14:55.1	268.860	0.110	-0.240	1.380
2020/01/31 00:14:55.2	268.820	0.100	-0.230	1.370
2020/01/31 00:14:55.3	268.770	0.090	-0.220	1.350
2020/01/31 00:14:55.4	268.730	0.080	-0.210	1.330
2020/01/31 00:14:55.5	268.690	0.070	-0.200	1.310
2020/01/31 00:14:55.6	268.660	0.060	-0.190	1.290
2020/01/31 00:14:55.7	268.620	0.050	-0.190	1.260
2020/01/31 00:14:55.8	268.590	0.040	-0.190	1.240
2020/01/31 00:14:55.9	268.580	0.040	-0.190	1.210
2020/01/31 00:14:56.0	268.550	0.040	-0.200	1.180
2020/01/31 00:14:56.1	268.520	0.030	-0.210	1.150
2020/01/31 00:14:56.2	268.500	0.030	-0.220	1.110
2020/01/31 00:14:56.3	268.480	0.030	-0.230	1.080
2020/01/31 00:14:56.4	268.460	0.030	-0.240	1.050
2020/01/31 00:14:56.5	268.440	0.040	-0.260	1.010
2020/01/31 00:14:56.6	268.430	0.040	-0.270	0.970
2020/01/31 00:14:56.7	268.420	0.050	-0.290	0.940
2020/01/31 00:14:56.8	268.410	0.050	-0.310	0.900
2020/01/31 00:14:56.9	268.390	0.060	-0.330	0.870
2020/01/31 00:14:57.0	268.380	0.070	-0.350	0.830
2020/01/31 00:14:57.1	268.380	0.070	-0.360	0.790
2020/01/31 00:14:57.2	268.380	0.080	-0.380	0.750
2020/01/31 00:14:57.3	268.380	0.090	-0.390	0.720
2020/01/31 00:14:57.4	268.380	0.100	-0.400	0.680
2020/01/31 00:14:57.5	268.390	0.110	-0.410	0.640
2020/01/31 00:14:57.6	268.390	0.120	-0.420	0.610
2020/01/31 00:14:57.7	268.400	0.130	-0.430	0.570
2020/01/31 00:14:57.8	268.410	0.130	-0.430	0.530
2020/01/31 00:14:57.9	268.440	0.140	-0.440	0.490
2020/01/31 00:14:58.0	268.450	0.150	-0.440	0.450
2020/01/31 00:14:58.1	268.470	0.150	-0.430	0.420
2020/01/31 00:14:58.2	268.490	0.160	-0.430	0.380
2020/01/31 00:14:58.3	268.510	0.160	-0.420	0.350
2020/01/31 00:14:58.4	268.530	0.160	-0.410	0.310
2020/01/31 00:14:58.5	268.550	0.170	-0.400	0.280
2020/01/31 00:14:58.6	268.570	0.160	-0.390	0.250
2020/01/31 00:14:58.7	268.600	0.160	-0.370	0.220
2020/01/31 00:14:58.8	268.620	0.160	-0.360	0.180
2020/01/31 00:14:58.9	268.680	0.160	-0.340	0.160
2020/01/31 00:14:59.0	268.700	0.150	-0.320	0.130
2020/01/31 00:14:59.1	268.730	0.140	-0.300	0.100
2020/01/31 00:14:59.2	268.760	0.140	-0.280	0.070
2020/01/31 00:14:59.3	268.790	0.130	-0.260	0.040
2020/01/31 00:14:59.4	268.820	0.120	-0.240	0.010
2020/01/31 00:14:59.5	268.850	0.100	-0.220	-0.010
2020/01/31 00:14:59.6	268.880	0.090	-0.200	-0.040
2020/01/31 00:14:59.7	268.910	0.080	-0.190	-0.060
2020/01/31 00:14:59.8	268.940	0.060	-0.170	-0.080
2020/01/31 00:14:59.9	268.970	0.050	-0.150	-0.100
2020/01/31 00:15:00.0	269.000	0.030	-0.140	-0.120
2020/01/31 00:15:00.1	269.030	0.020	-0.120	-0.140
2020/01/31 00:15:00.2	269.060	0.000	-0.110	-0.160
2020/01/31 00:15:00.3	269.090	-0.010	-0.100	-0.170
2020/01/31 00:15:00.4	269.120	-0.030	-0.090	-0.180
2020/01/31 00:15:00.5	269.150	-0.040	-0.090	-0.200
2020/01/31 00:15:00.6	269.180	-0.060	-0.080	-0.200
2020/01/31 00:15:00.7	269.220	-0.070	-0.080	-0.210
2020/01/31 00:15:00.8	269.250	-0.090	-0.080	-0.220
2020/01/31 00:15:00.9	269.270	-0.100	-0.090	-0.220
2020/01/31 00:15:01.0	269.300	-0.110	-0.100	-0.220
2020/01/31 00:15:01.1	269.330	-0.120	-0.110	-0.220
2020/01/31 00:15:01.2	269.360	-0.130	-0.120	-0.220
2020/01/31 00:15:01.3	269.390	-0.140	-0.140	-0.210
2020/01/31 00:15:01.4	269.420	-0.150	-0.150	-0.200
2020/01/31 00:15:01.5	269.450	-0.160	-0.170	-0.190
2020/01/31 00:15:01.6	269.470	-0.160	-0.190	-0.170
2020/01/31 00:15:01.7	269.500	-0.170	-0.220	-0.160
2020/01/31 00:15:01.8	269.530	-0.170	-0.240	-0.140
2020/01/31 00:15:01.9	269.550	-0.170	-0.270	-0.110
2020/01/31 00:15:02.0	269.580	-0.170	-0.300	-0.090
2020/01/31 00:15:02.1	269.600	-0.170	-0.320	-0.060
2020/01/31 00:15:02.2	269.630	-0.170	-0.350	-0.030
2020/01/31 00:15:02.3	269.650	-0.170	-0.380	0.000
2020/01/31 00:15:02.4	269.670	-0.160	-0.410	0.030
2020/01/31 00:15:02.5	269.690	-0.160	-0.440	0.070
2020/01/31 00:15:02.6	269.720	-0.150	-0.470	0.100
2020/01/31 00:15:02.7	269.740	-0.140	-0.490	0.140
2020/01/31 00:15:02.8	269.760	-0.130	-0.520	0.170
2020/01/31 00:15:02.9	269.770	-0.130	-0.550	0.210
2020/01/31 00:15:03.0	269.790	-0.120	-0.570	0.250
2020/01/31 00:15:03.1	269.810	-0.110	-0.590	0.290
2020/01/31 00:15:03.2	269.820	-0.100	-0.610	0.330
2020/01/31 00:15:03.3	269.830	-0.080	-0.640	0.370
2020/01/31 00:15:03.4	269.850	-0.070	-0.650	0.410
2020/01/31 00:15:03.5	269.860	-0.060	-0.670	0.460
2020/01/31 00:15:03.6	269.870	-0.050	-0.680	0.500
2020/01/31 00:15:03.7	269.870	-0.040	-0.690	0.540
2020/01/31 00:15:03.8	269.880	-0.030	-0.700	0.590
2020/01/31 00:15:03.9	269.890	-0.010	-0.710	0.630
2020/01/31 00:15:04.0	269.890	-0.000	-0.710	0.670
2020/01/31 00:15:04.1	269.890	0.010	-0.710	0.720
2020/01/31 00:15:04.2	269.890	0.020	-0.710	0.760
2020/01/31 00:15:04.3	269.890	0.030	-0.710	0.800
2020/01/31 00:15:04.4	269.890	0.040	-0.700	0.850
2020/01/31 00:15:04.5	269.880	0.050	-0.690	0.890
2020/01/31 00:15:04.6	269.880	0.060	-0.680	0.930
2020/01/31 00:15:04.7	269.870	0.070	-0.660	0.970
2020/01/31 00:15:04.8	269.870	0.070	-0.640	1.010
2020/01/31 00:15:04.9	269.860	0.080	-0.620	1.040
2020/01/31 00:15:05.0	269.850	0.080	-0.600	1.080
2020/01/31 00:15:05.1	269.840	0.090	-0.580	1.110
2020/01/31 00:15:05.2	269.830	0.090	-0.550	1.140
2020/01/31 00:15:05.3	269.820	0.090	-0.520	1.170
2020/01/31 00:15:05.4	269.810	0.100	-0.480	1.190
2020/01/31 00:15:05.5	269.800	0.100	-0.450	1.210
2020/01/31 00:15:05.6	269.780	0.090	-0.410	1.230
2020/01/31 00:15:05.7	269.770	0.090	-0.370	1.250
2020/01/31 00:15:05.8	269.750	0.090	-0.330	1.260
2020/01/31 00:15:05.9	269.750	0.080	-0.290	1.270
2020/01/31 00:15:06.0	269.730	0.080	-0.250	1.280
2020/01/31 00:15:06.1	269.720	0.070	-0.210	1.280
2020/01/31 00:15:06.2	269.700	0.060	-0.170	1.280
2020/01/31 00:15:06.3	269.680	0.050	-0.120	1.280
2020/01/31 00:15:06.4	269.670	0.040	-0.080	1.270
2020/01/31 00:15:06.5	269.650	0.030	-0.040	1.270
2020/01/31 00:15:06.6	269.630	0.020	-0.000	1.260
2020/01/31 00:15:06.7	269.610	0.010	0.030	1.240
2020/01/31 00:15:06.8	269.600	-0.010	0.070	1.230
2020/01/31 00:15:06.9	269.580	-0.020	0.100	1.210
2020/01/31 00:15:07.0	269.560	-0.030	0.130	1.190
2020/01/31 00:15:07.1	269.550	-0.050	0.160	1.170
2020/01/31 00:15:07.2	269.530	-0.060	0.190	1.150
2020/01/31 00:15:07.3	269.510	-0.070	0.210	1.130
2020/01/31 00:15:07.4	269.490	-0.090	0.230	1.110
2020/01/31 00:15:07.5	269.470	-0.100	0.240	1.090
2020/01/31 00:15:07.6	269.450	-0.110	0.250	1.070
2020/01/31 00:15:07.7	269.430	-0.120	0.260	1.040
2020/01/31 00:15:07.8	269.410	-0.140	0.270	1.020
2020/01/31 00:15:07.9	269.380	-0.150	0.270	1.000
2020/01/31 00:15:08.0	269.360	-0.150	0.270	0.980
2020/01/31 00:15:08.1	269.340	-0.160	0.260	0.960
2020/01/31 00:15:08.2	269.310	-0.170	0.250	0.940
2020/01/31 00:15:08.3	269.290	-0.180	0.240	0.920
2020/01/31 00:15:08.4	269.270	-0.180	0.220	0.900
2020/01/31 00:15:08.5	269.240	-0.180	0.210	0.880
2020/01/31 00:15:08.6	269.220	-0.190	0.190	0.860
2020/01/31 00:15:08.7	269.200	-0.190	0.160	0.850
2020/01/31 00:15:08.8	269.170	-0.190	0.140	0.830
2020/01/31 00:15:08.9	269.140	-0.190	0.110	0.810
2020/01/31 00:15:09.0	269.110	-0.190	0.090	0.800
2020/01/31 00:15:09.1	269.090	-0.180	0.060	0.780
2020/01/31 00:15:09.2	269.070	-0.180	0.030	0.770
2020/01/31 00:15:09.3	269.040	-0.170	0.000	0.760
2020/01/31 00:15:09.4	269.020	-0.170	-0.030	0.740
2020/01/31 00:15:09.5	268.990	-0.160	-0.060	0.730
2020/01/31 00:15:09.6	268.970	-0.150	-0.090	0.720
2020/01/31 00:15:09.7	268.940	-0.140	-0.120	0.700
2020/01/31 00:15:09.8	268.920	-0.130	-0.140	0.690
2020/01/31 00:15:09.9	268.890	-0.120	-0.170	0.680
2020/01/31 00:15:10.0	268.860	-0.100	-0.200	0.670
2020/01/31 00:15:10.1	268.840	-0.090	-0.220	0.660
2020/01/31 00:15:10.2	268.820	-0.080	-0.240	0.650
2020/01/31 00:15:10.3	268.790	-0.060	-0.270	0.640
2020/01/31 00:15:10.4	268.770	-0.050	-0.290	0.630
2020/01/31 00:15:10.5	268.750	-0.030	-0.300	0.620
2020/01/31 00:15:10.6	268.720	-0.020	-0.320	0.610
2020/01/31 00:15:10.7	268.700	0.000	-0.330	0.600
2020/01/31 00:15:10.8	268.680	0.020	-0.350	0.590
2020/01/31 00:15:10.9	268.660	0.030	-0.360	0.590
2020/01/31 00:15:11.0	268.640	0.050	-0.370	0.580
2020/01/31 00:15:11.1	268.620	0.070	-0.380	0.570
2020/01/31 00:15:11.2	268.610	0.080	-0.380	0.570
2020/01/31 00:15:11.3	268.590	0.100	-0.390	0.560
2020/01/31 00:15:11.4	268.580	0.110	-0.400	0.550
2020/01/31 00:15:11.5	268.560	0.130	-0.400	0.550
2020/01/31 00:15:11.6	268.550	0.140	-0.400	0.540
2020/01/31 00:15:11.7	268.540	0.160	-0.410	0.540
2020/01/31 00:15:11.8	268.540	0.170	-0.410	0.540
2020/01/31 00:15:11.9	268.540	0.180	-0.410	0.530
2020/01/31 00:15:12.0	268.530	0.200	-0.420	0.530
2020/01/31 00:15:12.1	268.530	0.210	-0.420	0.530
2020/01/31 00:15:12.2	268.530	0.220	-0.420	0.530
2020/01/31 00:15:12.3	268.530	0.230	-0.420	0.530
2020/01/31 00:15:12.4	268.540	0.240	-0.420	0.530
2020/01/31 00:15:12.5	268.540	0.240	-0.420	0.530
2020/01/31 00:15:12.6	268.540	0.250	-0.420	0.530
2020/01/31 00:15:12.7	268.550	0.260	-0.420	0.540
2020/01/31 00:15:12.8	268.560	0.260	-0.420	0.540
2020/01/31 00:15:12.9	268.560	0.260	-0.410	0.540
2020/01/31 00:15:13.0	268.580	0.270	-0.410	0.540
2020/01/31 00:15:13.1	268.590	0.270	-0.410	0.550
2020/01/31 00:15:13.2	268.600	0.270	-0.410	0.550
2020/01/31 00:15:13.3	268.620	0.270	-0.410	0.550
2020/01/31 00:15:13.4	268.630	0.270	-0.410	0.550
2020/01/31 00:15:13.5	268.650	0.270	-0.410	0.550
2020/01/31 00:15:13.6	268.670	0.260	-0.410	0.560
2020/01/31 00:15:13.7	268.690	0.260	-0.410	0.560
2020/01/31 00:15:13.8	268.710	0.250	-0.420	0.560
2020/01/31 00:15:13.9	268.720	0.250	-0.420	0.560
2020/01/31 00:15:14.0	268.750	0.240	-0.420	0.560
2020/01/31 00:15:14.1	268.770	0.230	-0.430	0.560
2020/01/31 00:15:14.2	268.790	0.220	-0.430	0.560
2020/01/31 00:15:14.3	268.820	0.220	-0.440	0.560
2020/01/31 00:15:14.4	268.850	0.210	-0.440	0.560
2020/01/31 00:15:14.5	268.870	0.200	-0.450	0.560
2020/01/31 00:15:14.6	268.900	0.180	-0.450	0.560
2020/01/31 00:15:14.7	268.930	0.170	-0.460	0.560
2020/01/31 00:15:14.8	268.960	0.160	-0.470	0.560
2020/01/31 00:15:14.9	268.990	0.150	-0.480	0.560
2020/01/31 00:15:15.0	269.020	0.140	-0.490	0.560
2020/01/31 00:15:15.1	269.050	0.130	-0.500	0.560
2020/01/31 00:15:15.2	269.090	0.110	-0.510	0.560
2020/01/31 00:15:15.3	269.120	0.100	-0.520	0.560
2020/01/31 00:15:15.4	269.150	0.090	-0.530	0.560
2020/01/31 00:15:15.5	269.180	0.080	-0.540	0.560
2020/01/31 00:15:15.6	269.210	0.070	-0.550	0.560
2020/01/31 00:15:15.7	269.250	0.050	-0.560	0.560
2020/01/31 00:15:15.8	269.280	0.040	-0.570	0.560
2020/01/31 00:15:15.9	269.320	0.030	-0.580	0.560
2020/01/31 00:15:16.0	269.350	0.020	-0.590	0.560
2020/01/31 00:15:16.1	269.390	0.010	-0.600	0.560
2020/01/31 00:15:16.2	269.420	-0.000	-0.620	0.560
2020/01/31 00:15:16.3	269.460	-0.010	-0.630	0.550
2020/01/31 00:15:16.4	269.490	-0.020	-0.640	0.550
2020/01/31 00:15:16.5	269.530	-0.030	-0.650	0.550
2020/01/31 00:15:16.6	269.560	-0.040	-0.660	0.550
2020/01/31 00:15:16.7	269.600	-0.050	-0.670	0.550
2020/01/31 00:15:16.8	269.630	-0.050	-0.680	0.540
2020/01/31 00:15:16.9	269.660	-0.060	-0.690	0.540
2020/01/31 00:15:17.0	269.700	-0.070	-0.690	0.540
2020/01/31 00:15:17.1	269.730	-0.080	-0.700	0.540
2020/01/31 00:15:17.2	269.760	-0.080	-0.710	0.540
2020/01/31 00:15:17.3	269.790	-0.090	-0.710	0.540
2020/01/31 00:15:17.4	269.820	-0.090	-0.710	0.550
2020/01/31 00:15:17.5	269.850	-0.100	-0.710	0.550
2020/01/31 00:15:17.6	269.880	-0.100	-0.710	0.550
2020/01/31 00:15:17.7	269.900	-0.110	-0.710	0.560
2020/01/31 00:15:17.8	269.930	-0.110	-0.710	0.570
2020/01/31 00:15:17.9	269.940	-0.110	-0.710	0.570
2020/01/31 00:15:18.0	269.960	-0.120	-0.700	0.580
2020/01/31 00:15:18.1	269.980	-0.120	-0.690	0.590
2020/01/31 00:15:18.2	270.000	-0.120	-0.680	0.610
2020/01/31 00:15:18.3	270.010	-0.130	-0.670	0.620
2020/01/31 00:15:18.4	270.020	-0.130	-0.660	0.630
2020/01/31 00:15:18.5	270.030	-0.130	-0.650	0.650
2020/01/31 00:15:18.6	270.040	-0.130	-0.630	0.660
2020/01/31 00:15:18.7	270.040	-0.130	-0.610	0.680
2020/01/31 00:15:18.8	270.040	-0.130	-0.590	0.700
2020/01/31 00:15:18.9	270.050	-0.140	-0.570	0.720
2020/01/31 00:15:19.0	270.050	-0.140	-0.540	0.740
2020/01/31 00:15:19.1	270.040	-0.140	-0.520	0.760
2020/01/31 00:15:19.2	270.030	-0.140	-0.490	0.780
2020/01/31 00:15:19.3	270.020	-0.140	-0.470	0.800
2020/01/31 00:15:19.4	270.010	-0.140	-0.440	0.820
2020/01/31 00:15:19.5	269.990	-0.140	-0.410	0.840
2020/01/31 00:15:19.6	269.970	-0.140	-0.380	0.860
2020/01/31 00:15:19.7	269.950	-0.140	-0.350	0.880
2020/01/31 00:15:19.8	269.920	-0.140	-0.320	0.900
2020/01/31 00:15:19.9	269.900	-0.140	-0.290	0.920
2020/01/31 00:15:20.0	269.880	-0.140	-0.260	0.940
2020/01/31 00:15:20.1	269.850	-0.150	-0.230	0.950
2020/01/31 00:15:20.2	269.820	-0.150	-0.190	0.970
2020/01/31 00:15:20.3	269.790	-0.150	-0.160	0.980
2020/01/31 00:15:20.4	269.750	-0.150	-0.130	1.000
2020/01/31 00:15:20.5	269.720	-0.150	-0.100	1.010
2020/01/31 00:15:20.6	269.680	-0.150	-0.070	1.020
2020/01/31 00:15:20.7	269.650	-0.150	-0.040	1.030
2020/01/31 00:15:20.8	269.610	-0.150	-0.010	1.030
2020/01/31 00:15:20.9	269.580	-0.150	0.020	1.030
2020/01/31 00:15:21.0	269.540	-0.150	0.050	1.040
2020/01/31 00:15:21.1	269.500	-0.150	0.080	1.040
2020/01/31 00:15:21.2	269.460	-0.150	0.100	1.040
2020/01/31 00:15:21.3	269.410	-0.150	0.120	1.050
2020/01/31 00:15:21.4	269.370	-0.150	0.150	1.040
2020/01/31 00:15:21.5	269.330	-0.150	0.170	1.040
2020/01/31 00:15:21.6	269.290	-0.150	0.180	1.040
2020/01/31 00:15:21.7	269.250	-0.150	0.200	1.030
2020/01/31 00:15:21.8	269.210	-0.140	0.210	1.030
2020/01/31 00:15:21.9	269.170	-0.140	0.220	1.020
2020/01/31 00:15:22.0	269.130	-0.140	0.230	1.010
2020/01/31 00:15:22.1	269.100	-0.130	0.230	1.000
2020/01/31 00:15:22.2	269.060	-0.130	0.240	0.990
2020/01/31 00:15:22.3	269.030	-0.120	0.240	0.970
2020/01/31 00:15:22.4	269.000	-0.120	0.240	0.950
2020/01/31 00:15:22.5	268.970	-0.110	0.240	0.940
2020/01/31 00:15:22.6	268.940	-0.100	0.240	0.920
2020/01/31 00:15:22.7	268.910	-0.100	0.240	0.900
2020/01/31 00:15:22.8	268.890	-0.090	0.240	0.880
2020/01/31 00:15:22.9	268.870	-0.080	0.230	0.850
2020/01/31 00:15:23.0	268.850	-0.070	0.230	0.820
2020/01/31 00:15:23.1	268.830	-0.060	0.220	0.800
2020/01/31 00:15:23.2	268.820	-0.050	0.210	0.770
2020/01/31 00:15:23.3	268.800	-0.040	0.210	0.740
2020/01/31 00:15:23.4	268.790	-0.030	0.200	0.720
2020/01/31 00:15:23.5	268.780	-0.020	0.190	0.690
2020/01/31 00:15:23.6	268.770	-0.010	0.180	0.660
2020/01/31 00:15:23.7	268.770	0.000	0.180	0.640
2020/01/31 00:15:23.8	268.760	0.010	0.170	0.610
2020/01/31 00:15:23.9	268.750	0.020	0.160	0.580
2020/01/31 00:15:24.0	268.750	0.040	0.150	0.560
2020/01/31 00:15:24.1	268.750	0.050	0.140	0.530
2020/01/31 00:15:24.2	268.750	0.060	0.120	0.510
2020/01/31 00:15:24.3	268.760	0.070	0.110	0.490
2020/01/31 00:15:24.4	268.760	0.080	0.100	0.470
2020/01/31 00:15:24.5	268.770	0.090	0.090	0.450
2020/01/31 00:15:24.6	268.770	0.100	0.080	0.440
2020/01/31 00:15:24.7	268.780	0.110	0.070	0.420
2020/01/31 00:15:24.8	268.790	0.120	0.050	0.410
2020/01/31 00:15:24.9	268.800	0.130	0.040	0.390
2020/01/31 00:15:25.0	268.810	0.140	0.020	0.380
2020/01/31 00:15:25.1	268.830	0.150	0.010	0.370
2020/01/31 00:15:25.2	268.840	0.150	-0.010	0.360
2020/01/31 00:15:25.3	268.850	0.160	-0.020	0.350
2020/01/31 00:15:25.4	268.870	0.170	-0.040	0.350
2020/01/31 00:15:25.5	268.880	0.180	-0.060	0.340
2020/01/31 00:15:25.6	268.900	0.190	-0.080	0.330
2020/01/31 00:15:25.7	268.910	0.190	-0.090	0.330
2020/01/31 00:15:25.8	268.930	0.200	-0.110	0.320
2020/01/31 00:15:25.9	268.950	0.210	-0.130	0.320
2020/01/31 00:15:26.0	268.960	0.210	-0.150	0.320
2020/01/31 00:15:26.1	268.980	0.220	-0.170	0.310
2020/01/31 00:15:26.2	269.000	0.220	-0.190	0.310
2020/01/31 00:15:26.3	269.020	0.230	-0.210	0.310
2020/01/31 00:15:26.4	269.040	0.230	-0.230	0.310
2020/01/31 00:15:26.5	269.060	0.230	-0.250	0.310
2020/01/31 00:15:26.6	269.080	0.240	-0.260	0.320
2020/01/31 00:15:26.7	269.110	0.240	-0.280	0.320
2020/01/31 00:15:26.8	269.130	0.240	-0.300	0.320
2020/01/31 00:15:26.9	269.150	0.240	-0.320	0.330
2020/01/31 00:15:27.0	269.170	0.240	-0.340	0.340
2020/01/31 00:15:27.1	269.200	0.240	-0.360	0.350
2020/01/31 00:15:27.2	269.220	0.240	-0.380	0.350
2020/01/31 00:15:27.3	269.250	0.240	-0.400	0.360
2020/01/31 00:15:27.4	269.270	0.240	-0.420	0.370
2020/01/31 00:15:27.5	269.300	0.240	-0.440	0.390
2020/01/31 00:15:27.6	269.320	0.240	-0.460	0.400
2020/01/31 00:15:27.7	269.350	0.240	-0.480	0.410
2020/01/31 00:15:27.8	269.380	0.230	-0.500	0.430
2020/01/31 00:15:27.9	269.410	0.230	-0.520	0.440
2020/01/31 00:15:28.0	269.440	0.220	-0.540	0.450
2020/01/31 00:15:28.1	269.460	0.220	-0.560	0.470
2020/01/31 00:15:28.2	269.490	0.210	-0.590	0.480
2020/01/31 00:15:28.3	269.520	0.200	-0.610	0.490
2020/01/31 00:15:28.4	269.540	0.200	-0.630	0.510
2020/01/31 00:15:28.5	269.570	0.190	-0.650	0.520
2020/01/31 00:15:28.6	269.600	0.180	-0.670	0.530
2020/01/31 00:15:28.7	269.630	0.170	-0.690	0.550
2020/01/31 00:15:28.8	269.650	0.160	-0.710	0.560
2020/01/31 00:15:28.9	269.670	0.150	-0.730	0.570
2020/01/31 00:15:29.0	269.690	0.140	-0.750	0.580
2020/01/31 00:15:29.1	269.720	0.130	-0.770	0.590
2020/01/31 00:15:29.2	269.740	0.120	-0.790	0.600
2020/01/31 00:15:29.3	269.770	0.100	-0.800	0.610
2020/01/31 00:15:29.4	269.790	0.090	-0.820	0.620
2020/01/31 00:15:29.5	269.810	0.080	-0.830	0.630
2020/01/31 00:15:29.6	269.830	0.060	-0.840	0.630
2020/01/31 00:15:29.7	269.850	0.050	-0.860	0.640
2020/01/31 00:15:29.8	269.870	0.040	-0.860	0.640
2020/01/31 00:15:29.9	269.890	0.020	-0.870	0.650
2020/01/31 00:15:30.0	269.910	0.010	-0.870	0.650
2020/01/31 00:15:30.1	269.920	-0.010	-0.880	0.650
2020/01/31 00:15:30.2	269.940	-0.020	-0.880	0.650
2020/01/31 00:15:30.3	269.950	-0.030	-0.870	0.650
2020/01/31 00:15:30.4	269.960	-0.050	-0.870	0.640
2020/01/31 00:15:30.5	269.980	-0.060	-0.860	0.640
2020/01/31 00:15:30.6	269.980	-0.080	-0.860	0.640
2020/01/31 00:15:30.7	269.990	-0.090	-0.850	0.630
2020/01/31 00:15:30.8	270.000	-0.100	-0.840	0.620
2020/01/31 00:15:30.9	270.000	-0.120	-0.820	0.620
2020/01/31 00:15:31.0	270.000	-0.130	-0.810	0.610
2020/01/31 00:15:31.1	270.010	-0.140	-0.790	0.600
2020/01/31 00:15:31.2	270.010	-0.150	-0.780	0.590
2020/01/31 00:15:31.3	270.010	-0.160	-0.760	0.590
2020/01/31 00:15:31.4	270.000	-0.180	-0.740	0.580
2020/01/31 00:15:31.5	270.000	-0.190	-0.720	0.570
2020/01/31 00:15:31.6	269.990	-0.200	-0.700	0.560
2020/01/31 00:15:31.7	269.990	-0.210	-0.680	0.550
2020/01/31 00:15:31.8	269.980	-0.220	-0.660	0.540
2020/01/31 00:15:31.9	269.970	-0.230	-0.630	0.530
2020/01/31 00:15:32.0	269.960	-0.240	-0.610	0.520
2020/01/31 00:15:32.1	269.950	-0.240	-0.590	0.510
2020/01/31 00:15:32.2	269.940	-0.250	-0.570	0.510
2020/01/31 00:15:32.3	269.920	-0.260	-0.550	0.500
2020/01/31 00:15:32.4	269.900	-0.270	-0.530	0.490
2020/01/31 00:15:32.5	269.890	-0.270	-0.520	0.480
2020/01/31 00:15:32.6	269.870	-0.280	-0.500	0.480
2020/01/31 00:15:32.7	269.850	-0.290	-0.480	0.470
2020/01/31 00:15:32.8	269.830	-0.290	-0.460	0.460
2020/01/31 00:15:32.9	269.820	-0.300	-0.450	0.460
2020/01/31 00:15:33.0	269.800	-0.300	-0.430	0.450
2020/01/31 00:15:33.1	269.780	-0.310	-0.410	0.450
2020/01/31 00:15:33.2	269.760	-0.310	-0.400	0.440
2020/01/31 00:15:33.3	269.740	-0.310	-0.380	0.440
2020/01/31 00:15:33.4	269.720	-0.310	-0.370	0.430
2020/01/31 00:15:33.5	269.700	-0.320	-0.350	0.430
2020/01/31 00:15:33.6	269.680	-0.320	-0.340	0.420
2020/01/31 00:15:33.7	269.670	-0.320	-0.330	0.420
2020/01/31 00:15:33.8	269.650	-0.320	-0.310	0.410
2020/01/31 00:15:33.9	269.640	-0.320	-0.300	0.410
2020/01/31 00:15:34.0	269.620	-0.320	-0.290	0.400
2020/01/31 00:15:34.1	269.610	-0.320	-0.280	0.390
2020/01/31 00:15:34.2	269.600	-0.310	-0.260	0.390
2020/01/31 00:15:34.3	269.590	-0.310	-0.250	0.380
2020/01/31 00:15:34.4	269.580	-0.300	-0.240	0.370
2020/01/31 00:15:34.5	269.570	-0.300	-0.230	0.360
2020/01/31 00:15:34.6	269.560	-0.290	-0.220	0.360
2020/01/31 00:15:34.7	269.550	-0.290	-0.210	0.350
2020/01/31 00:15:34.8	269.540	-0.280	-0.200	0.340
2020/01/31 00:15:34.9	269.530	-0.270	-0.190	0.330
2020/01/31 00:15:35.0	269.530	-0.260	-0.180	0.330
2020/01/31 00:15:35.1	269.520	-0.250	-0.180	0.320
2020/01/31 00:15:35.2	269.510	-0.230	-0.170	0.320
2020/01/31 00:15:35.3	269.510	-0.220	-0.160	0.310
2020/01/31 00:15:35.4	269.500	-0.200	-0.160	0.310
2020/01/31 00:15:35.5	269.490	-0.190	-0.150	0.310
2020/01/31 00:15:35.6	269.490	-0.170	-0.150	0.310
2020/01/31 00:15:35.7	269.480	-0.150	-0.140	0.310
2020/01/31 00:15:35.8	269.480	-0.140	-0.140	0.310
2020/01/31 00:15:35.9	269.470	-0.120	-0.140	0.310
2020/01/31 00:15:36.0	269.460	-0.100	-0.130	0.310
2020/01/31 00:15:36.1	269.450	-0.070	-0.130	0.320
2020/01/31 00:15:36.2	269.450	-0.050	-0.120	0.320
2020/01/31 00:15:36.3	269.440	-0.030	-0.120	0.330
2020/01/31 00:15:36.4	269.430	-0.010	-0.110	0.340
2020/01/31 00:15:36.5	269.420	0.010	-0.110	0.350
2020/01/31 00:15:36.6	269.420	0.040	-0.100	0.360
2020/01/31 00:15:36.7	269.410	0.060	-0.090	0.370
2020/01/31 00:15:36.8	269.400	0.080	-0.080	0.380
2020/01/31 00:15:36.9	269.390	0.100	-0.080	0.390
2020/01/31 00:15:37.0	269.380	0.120	-0.070	0.400
2020/01/31 00:15:37.1	269.380	0.150	-0.050	0.420
2020/01/31 00:15:37.2	269.370	0.170	-0.040	0.430
2020/01/31 00:15:37.3	269.360	0.180	-0.030	0.450
2020/01/31 00:15:37.4	269.360	0.200	-0.020	0.460
2020/01/31 00:15:37.5	269.350	0.220	-0.000	0.480
2020/01/31 00:15:37.6	269.350	0.230	0.020	0.500
2020/01/31 00:15:37.7	269.350	0.250	0.030	0.510
2020/01/31 00:15:37.8	269.340	0.260	0.050	0.530
2020/01/31 00:15:37.9	269.350	0.270	0.060	0.550
2020/01/31 00:15:38.0	269.340	0.280	0.080	0.560
2020/01/31 00:15:38.1	269.340	0.290	0.100	0.570
2020/01/31 00:15:38.2	269.340	0.300	0.120	0.590
2020/01/31 00:15:38.3	269.340	0.300	0.140	0.600
2020/01/31 00:15:38.4	269.340	0.310	0.150	0.610
2020/01/31 00:15:38.5	269.340	0.310	0.170	0.620
2020/01/31 00:15:38.6	269.350	0.310	0.190	0.620
2020/01/31 00:15:38.7	269.350	0.310	0.210	0.630
2020/01/31 00:15:38.8	269.350	0.310	0.220	0.640
2020/01/31 00:15:38.9	269.350	0.300	0.240	0.640
2020/01/31 00:15:39.0	269.360	0.300	0.250	0.640
2020/01/31 00:15:39.1	269.360	0.290	0.260	0.640
2020/01/31 00:15:39.2	269.360	0.290	0.280	0.640
2020/01/31 00:15:39.3	269.360	0.280	0.290	0.640
2020/01/31 00:15:39.4	269.360	0.270	0.300	0.630
2020/01/31 00:15:39.5	269.370	0.260	0.310	0.630
2020/01/31 00:15:39.6	269.370	0.250	0.310	0.630
2020/01/31 00:15:39.7	269.370	0.240	0.320	0.620
2020/01/31 00:15:39.8	269.370	0.230	0.320	0.620
2020/01/31 00:15:39.9	269.370	0.220	0.310	0.610
2020/01/31 00:15:40.0	269.370	0.210	0.310	0.610
2020/01/31 00:15:40.1	269.370	0.200	0.300	0.600
2020/01/31 00:15:40.2	269.370	0.190	0.300	0.590
2020/01/31 00:15:40.3	269.370	0.180	0.280	0.580
2020/01/31 00:15:40.4	269.360	0.170	0.270	0.580
2020/01/31 00:15:40.5	269.360	0.160	0.250	0.570
2020/01/31 00:15:40.6	269.360	0.150	0.230	0.560
2020/01/31 00:15:40.7	269.360	0.140	0.210	0.550
2020/01/31 00:15:40.8	269.350	0.130	0.180	0.540
2020/01/31 00:15:40.9	269.350	0.120	0.150	0.530
2020/01/31 00:15:41.0	269.350	0.110	0.120	0.520
2020/01/31 00:15:41.1	269.350	0.110	0.090	0.500
2020/01/31 00:15:41.2	269.340	0.100	0.050	0.490
2020/01/31 00:15:41.3	269.340	0.100	0.010	0.480
2020/01/31 00:15:41.4	269.340	0.090	-0.030	0.460
2020/01/31 00:15:41.5	269.330	0.090	-0.080	0.450
2020/01/31 00:15:41.6	269.330	0.090	-0.130	0.440
2020/01/31 00:15:41.7	269.330	0.090	-0.170	0.430
2020/01/31 00:15:41.8	269.330	0.080	-0.220	0.410
2020/01/31 00:15:41.9	269.330	0.080	-0.270	0.400
2020/01/31 00:15:42.0	269.330	0.090	-0.320	0.390
2020/01/31 00:15:42.1	269.330	0.090	-0.370	0.380
2020/01/31 00:15:42.2	269.330	0.090	-0.420	0.370
2020/01/31 00:15:42.3	269.330	0.090	-0.470	0.360
2020/01/31 00:15:42.4	269.320	0.090	-0.520	0.350
2020/01/31 00:15:42.5	269.320	0.100	-0.570	0.350
2020/01/31 00:15:42.6	269.320	0.100	-0.620	0.340
2020/01/31 00:15:42.7	269.320	0.100	-0.660	0.340
2020/01/31 00:15:42.8	269.320	0.100	-0.700	0.340
2020/01/31 00:15:42.9	269.310	0.110	-0.740	0.340
2020/01/31 00:15:43.0	269.310	0.110	-0.780	0.340
2020/01/31 00:15:43.1	269.300	0.110	-0.810	0.350
2020/01/31 00:15:43.2	269.300	0.110	-0.840	0.350
2020/01/31 00:15:43.3	269.290	0.110	-0.870	0.360
2020/01/31 00:15:43.4	269.280	0.110	-0.890	0.370
2020/01/31 00:15:43.5	269.270	0.100	-0.910	0.380
2020/01/31 00:15:43.6	269.260	0.100	-0.930	0.390
2020/01/31 00:15:43.7	269.250	0.090	-0.940	0.400
2020/01/31 00:15:43.8	269.240	0.090	-0.950	0.420
2020/01/31 00:15:43.9	269.230	0.080	-0.960	0.430
2020/01/31 00:15:44.0	269.220	0.070	-0.960	0.450
2020/01/31 00:15:44.1	269.210	0.060	-0.960	0.460
2020/01/31 00:15:44.2	269.190	0.050	-0.960	0.470
2020/01/31 00:15:44.3	269.170	0.040	-0.960	0.490
2020/01/31 00:15:44.4	269.150	0.020	-0.950	0.500
2020/01/31 00:15:44.5	269.140	0.010	-0.940	0.510
2020/01/31 00:15:44.6	269.120	-0.010	-0.930	0.530
2020/01/31 00:15:44.7	269.100	-0.020	-0.920	0.540
2020/01/31 00:15:44.8	269.080	-0.040	-0.900	0.550
2020/01/31 00:15:44.9	269.070	-0.050	-0.890	0.550
2020/01/31 00:15:45.0	269.050	-0.070	-0.870	0.560
2020/01/31 00:15:45.1	269.030	-0.090	-0.850	0.570
2020/01/31 00:15:45.2	269.010	-0.110	-0.840	0.570
2020/01/31 00:15:45.3	268.990	-0.130	-0.820	0.580
2020/01/31 00:15:45.4	268.970	-0.150	-0.800	0.580
2020/01/31 00:15:45.5	268.950	-0.170	-0.780	0.580
2020/01/31 00:15:45.6	268.940	-0.180	-0.760	0.580
2020/01/31 00:15:45.7	268.920	-0.200	-0.750	0.570
2020/01/31 00:15:45.8	268.900	-0.220	-0.730	0.570
2020/01/31 00:15:45.9	268.890	-0.240	-0.710	0.570
2020/01/31 00:15:46.0	268.870	-0.260	-0.700	0.570
2020/01/31 00:15:46.1	268.850	-0.270	-0.680	0.560
2020/01/31 00:15:46.2	268.840	-0.290	-0.670	0.550
2020/01/31 00:15:46.3	268.820	-0.310	-0.650	0.550
2020/01/31 00:15:46.4	268.800	-0.320	-0.640	0.540
2020/01/31 00:15:46.5	268.790	-0.330	-0.630	0.540
2020/01/31 00:15:46.6	268.770	-0.350	-0.620	0.530
2020/01/31 00:15:46.7	268.750	-0.360	-0.610	0.530
2020/01/31 00:15:46.8	268.730	-0.370	-0.600	0.530
2020/01/31 00:15:46.9	268.720	-0.380	-0.590	0.520
2020/01/31 00:15:47.0	268.700	-0.390	-0.580	0.520
2020/01/31 00:15:47.1	268.680	-0.390	-0.580	0.520
2020/01/31 00:15:47.2	268.660	-0.400	-0.570	0.520
2020/01/31 00:15:47.3	268.640	-0.400	-0.570	0.520
2020/01/31 00:15:47.4	268.620	-0.400	-0.560	0.520
2020/01/31 00:15:47.5	268.610	-0.400	-0.560	0.530
2020/01/31 00:15:47.6	268.590	-0.400	-0.560	0.530
2020/01/31 00:15:47.7	268.570	-0.400	-0.550	0.540
2020/01/31 00:15:47.8	268.550	-0.400	-0.550	0.540
2020/01/31 00:15:47.9	268.530	-0.400	-0.540	0.550
2020/01/31 00:15:48.0	268.510	-0.390	-0.540	0.560
2020/01/31 00:15:48.1	268.500	-0.390	-0.530	0.560
2020/01/31 00:15:48.2	268.480	-0.380	-0.530	0.570
2020/01/31 00:15:48.3	268.470	-0.370	-0.520	0.580
2020/01/31 00:15:48.4	268.450	-0.360	-0.510	0.590
2020/01/31 00:15:48.5	268.430	-0.350	-0.500	0.600
2020/01/31 00:15:48.6	268.420	-0.340	-0.490	0.610
2020/01/31 00:15:48.7	268.400	-0.330	-0.480	0.610
2020/01/31 00:15:48.8	268.390	-0.320	-0.470	0.620
2020/01/31 00:15:48.9	268.380	-0.300	-0.450	0.630
2020/01/31 00:15:49.0	268.370	-0.290	-0.440	0.640
2020/01/31 00:15:49.1	268.350	-0.270	-0.420	0.660
2020/01/31 00:15:49.2	268.340	-0.260	-0.400	0.670
2020/01/31 00:15:49.3	268.320	-0.240	-0.380	0.680
2020/01/31 00:15:49.4	268.310	-0.230	-0.360	0.700
2020/01/31 00:15:49.5	268.290	-0.210	-0.340	0.710
2020/01/31 00:15:49.6	268.280	-0.190	-0.320	0.730
2020/01/31 00:15:49.7	268.260	-0.180	-0.300	0.740
2020/01/31 00:15:49.8	268.240	-0.160	-0.270	0.760
2020/01/31 00:15:49.9	268.230	-0.140	-0.250	0.780
2020/01/31 00:15:50.0	268.210	-0.120	-0.220	0.800
2020/01/31 00:15:50.1	268.200	-0.110	-0.190	0.810
2020/01/31 00:15:50.2	268.180	-0.090	-0.170	0.830
2020/01/31 00:15:50.3	268.170	-0.070	-0.140	0.850
2020/01/31 00:15:50.4	268.160	-0.060	-0.120	0.870
2020/01/31 00:15:50.5	268.150	-0.040	-0.090	0.890
2020/01/31 00:15:50.6	268.140	-0.020	-0.060	0.910
2020/01/31 00:15:50.7	268.130	-0.000	-0.040	0.930
2020/01/31 00:15:50.8	268.120	0.010	-0.010	0.960
2020/01/31 00:15:50.9	268.100	0.030	0.010	0.980
2020/01/31 00:15:51.0	268.100	0.040	0.030	1.000
2020/01/31 00:15:51.1	268.090	0.060	0.060	1.020
2020/01/31 00:15:51.2	268.090	0.080	0.080	1.040
2020/01/31 00:15:51.3	268.090	0.090	0.100	1.060
2020/01/31 00:15:51.4	268.080	0.100	0.120	1.080
2020/01/31 00:15:51.5	268.080	0.120	0.140	1.100
2020/01/31 00:15:51.6	268.080	0.130	0.160	1.120
2020/01/31 00:15:51.7	268.080	0.150	0.170	1.140
2020/01/31 00:15:51.8	268.080	0.160	0.190	1.160
2020/01/31 00:15:51.9	268.070	0.170	0.200	1.180
2020/01/31 00:15:52.0	268.070	0.180	0.220	1.200
2020/01/31 00:15:52.1	268.070	0.190	0.230	1.210
2020/01/31 00:15:52.2	268.080	0.200	0.240	1.230
2020/01/31 00:15:52.3	268.080	0.210	0.260	1.240
2020/01/31 00:15:52.4	268.090	0.220	0.270	1.250
2020/01/31 00:15:52.5	268.090	0.230	0.280	1.260
2020/01/31 00:15:52.6	268.100	0.230	0.290	1.270
2020/01/31 00:15:52.7	268.110	0.240	0.300	1.280
2020/01/31 00:15:52.8	268.110	0.250	0.310	1.280
2020/01/31 00:15:52.9	268.110	0.250	0.320	1.280
2020/01/31 00:15:53.0	268.120	0.260	0.320	1.280
2020/01/31 00:15:53.1	268.130	0.260	0.330	1.270
2020/01/31 00:15:53.2	268.140	0.260	0.330	1.270
2020/01/31 00:15:53.3	268.150	0.270	0.330	1.260
2020/01/31 00:15:53.4	268.160	0.270	0.330	1.240
2020/01/31 00:15:53.5	268.170	0.270	0.330	1.220
2020/01/31 00:15:53.6	268.180	0.270	0.330	1.200
2020/01/31 00:15:53.7	268.200	0.270	0.320	1.180
2020/01/31 00:15:53.8	268.210	0.270	0.320	1.150
2020/01/31 00:15:53.9	268.230	0.270	0.310	1.120
2020/01/31 00:15:54.0	268.240	0.270	0.300	1.080
2020/01/31 00:15:54.1	268.260	0.270	0.280	1.040
2020/01/31 00:15:54.2	268.280	0.270	0.270	1.000
2020/01/31 00:15:54.3	268.300	0.260	0.260	0.960
2020/01/31 00:15:54.4	268.320	0.260	0.240	0.910
2020/01/31 00:15:54.5	268.340	0.260	0.220	0.870
2020/01/31 00:15:54.6	268.360	0.260	0.200	0.820
2020/01/31 00:15:54.7	268.390	0.250	0.180	0.770
2020/01/31 00:15:54.8	268.410	0.250	0.150	0.720
2020/01/31 00:15:54.9	268.440	0.250	0.130	0.680
2020/01/31 00:15:55.0	268.460	0.240	0.100	0.630
2020/01/31 00:15:55.1	268.490	0.240	0.070	0.580
2020/01/31 00:15:55.2	268.520	0.240	0.040	0.540
2020/01/31 00:15:55.3	268.550	0.240	0.010	0.490
2020/01/31 00:15:55.4	268.580	0.230	-0.020	0.450
2020/01/31 00:15:55.5	268.610	0.230	-0.050	0.410
2020/01/31 00:15:55.6	268.640	0.230	-0.080	0.370
2020/01/31 00:15:55.7	268.680	0.230	-0.120	0.330
2020/01/31 00:15:55.8	268.710	0.220	-0.150	0.290
2020/01/31 00:15:55.9	268.740	0.220	-0.190	0.260
2020/01/31 00:15:56.0	268.780	0.220	-0.230	0.220
2020/01/31 00:15:56.1	268.810	0.210	-0.260	0.190
2020/01/31 00:15:56.2	268.850	0.210	-0.300	0.170
2020/01/31 00:15:56.3	268.880	0.210	-0.330	0.140
2020/01/31 00:15:56.4	268.920	0.210	-0.370	0.120
2020/01/31 00:15:56.5	268.960	0.200	-0.400	0.100
2020/01/31 00:15:56.6	268.990	0.200	-0.430	0.090
2020/01/31 00:15:56.7	269.030	0.200	-0.460	0.070
2020/01/31 00:15:56.8	269.060	0.190	-0.500	0.070
2020/01/31 00:15:56.9	269.100	0.190	-0.530	0.060
2020/01/31 00:15:57.0	269.130	0.190	-0.560	0.060
2020/01/31 00:15:57.1	269.170	0.180	-0.580	0.060
2020/01/31 00:15:57.2	269.200	0.180	-0.610	0.070
2020/01/31 00:15:57.3	269.230	0.180	-0.630	0.080
2020/01/31 00:15:57.4	269.260	0.170	-0.660	0.090
2020/01/31 00:15:57.5	269.290	0.170	-0.680	0.110
2020/01/31 00:15:57.6	269.320	0.170	-0.700	0.130
2020/01/31 00:15:57.7	269.340	0.160	-0.710	0.150
2020/01/31 00:15:57.8	269.370	0.160	-0.730	0.180
2020/01/31 00:15:57.9	269.390	0.150	-0.740	0.200
2020/01/31 00:15:58.0	269.410	0.150	-0.750	0.230
2020/01/31 00:15:58.1	269.430	0.140	-0.760	0.260
2020/01/31 00:15:58.2	269.440	0.140	-0.770	0.290
2020/01/31 00:15:58.3	269.460	0.130	-0.780	0.320
2020/01/31 00:15:58.4	269.470	0.130	-0.780	0.340
2020/01/31 00:15:58.5	269.480	0.120	-0.780	0.370
2020/01/31 00:15:58.6	269.490	0.110	-0.780	0.400
2020/01/31 00:15:58.7	269.490	0.100	-0.780	0.430
2020/01/31 00:15:58.8	269.490	0.100	-0.780	0.460
2020/01/31 00:15:58.9	269.510	0.090	-0.780	0.490
2020/01/31 00:15:59.0	269.500	0.080	-0.770	0.510
2020/01/31 00:15:59.1	269.500	0.070	-0.760	0.540
2020/01/31 00:15:59.2	269.490	0.060	-0.760	0.570
2020/01/31 00:15:59.3	269.490	0.040	-0.750	0.600
2020/01/31 00:15:59.4	269.470	0.030	-0.740	0.630
2020/01/31 00:15:59.5	269.460	0.020	-0.730	0.660
2020/01/31 00:15:59.6	269.440	0.010	-0.730	0.690
2020/01/31 00:15:59.7	269.420	-0.010	-0.720	0.710
2020/01/31 00:15:59.8	269.400	-0.020	-0.710	0.740
2020/01/31 00:15:59.9	269.380	-0.030	-0.700	0.770
2020/01/31 00:16:00.0	269.350	-0.050	-0.690	0.800
2020/01/31 00:16:00.1	269.320	-0.060	-0.690	0.830
2020/01/31 00:16:00.2	269.290	-0.070	-0.680	0.860
2020/01/31 00:16:00.3	269.260	-0.090	-0.680	0.880
2020/01/31 00:16:00.4	269.230	-0.100	-0.680	0.910
2020/01/31 00:16:00.5	269.190	-0.120	-0.670	0.930
2020/01/31 00:16:00.6	269.160	-0.130	-0.670	0.960
2020/01/31 00:16:00.7	269.120	-0.140	-0.670	0.980
2020/01/31 00:16:00.8	269.080	-0.150	-0.670	1.010
2020/01/31 00:16:00.9	269.050	-0.170	-0.680	1.030
2020/01/31 00:16:01.0	269.010	-0.180	-0.680	1.050
2020/01/31 00:16:01.1	268.970	-0.190	-0.680	1.060
2020/01/31 00:16:01.2	268.930	-0.200	-0.680	1.080
2020/01/31 00:16:01.3	268.890	-0.210	-0.680	1.100
2020/01/31 00:16:01.4	268.850	-0.220	-0.680	1.110
2020/01/31 00:16:01.5	268.810	-0.230	-0.680	1.120
2020/01/31 00:16:01.6	268.770	-0.240	-0.680	1.130
2020/01/31 00:16:01.7	268.730	-0.250	-0.680	1.130
2020/01/31 00:16:01.8	268.690	-0.260	-0.670	1.130
2020/01/31 00:16:01.9	268.660	-0.270	-0.660	1.130
2020/01/31 00:16:02.0	268.630	-0.270	-0.660	1.130
2020/01/31 00:16:02.1	268.590	-0.280	-0.650	1.120
2020/01/31 00:16:02.2	268.560	-0.290	-0.640	1.110
2020/01/31 00:16:02.3	268.530	-0.290	-0.620	1.090
2020/01/31 00:16:02.4	268.510	-0.290	-0.610	1.070
2020/01/31 00:16:02.5	268.480	-0.300	-0.590	1.050
2020/01/31 00:16:02.6	268.450	-0.300	-0.570	1.030
2020/01/31 00:16:02.7	268.430	-0.300	-0.540	1.010
2020/01/31 00:16:02.8	268.410	-0.300	-0.520	0.990
2020/01/31 00:16:02.9	268.380	-0.300	-0.500	0.960
2020/01/31 00:16:03.0	268.360	-0.300	-0.470	0.930
2020/01/31 00:16:03.1	268.340	-0.300	-0.440	0.910
2020/01/31 00:16:03.2	268.320	-0.300	-0.410	0.880
2020/01/31 00:16:03.3	268.310	-0.300	-0.380	0.850
2020/01/31 00:16:03.4	268.290	-0.290	-0.350	0.820
2020/01/31 00:16:03.5	268.280	-0.290	-0.320	0.800
2020/01/31 00:16:03.6	268.260	-0.280	-0.290	0.770
2020/01/31 00:16:03.7	268.250	-0.270	-0.260	0.750
2020/01/31 00:16:03.8	268.240	-0.270	-0.240	0.720
2020/01/31 00:16:03.9	268.230	-0.260	-0.200	0.700
2020/01/31 00:16:04.0	268.220	-0.250	-0.180	0.670
2020/01/31 00:16:04.1	268.220	-0.240	-0.150	0.650
2020/01/31 00:16:04.2	268.210	-0.230	-0.130	0.630
2020/01/31 00:16:04.3	268.210	-0.220	-0.100	0.600
2020/01/31 00:16:04.4	268.210	-0.210	-0.080	0.580
2020/01/31 00:16:04.5	268.210	-0.200	-0.060	0.560
2020/01/31 00:16:04.6	268.210	-0.190	-0.040	0.540
2020/01/31 00:16:04.7	268.210	-0.180	-0.030	0.520
2020/01/31 00:16:04.8	268.210	-0.170	-0.010	0.500
2020/01/31 00:16:04.9	268.220	-0.160	-0.000	0.480
2020/01/31 00:16:05.0	268.230	-0.150	0.010	0.460
2020/01/31 00:16:05.1	268.230	-0.140	0.020	0.440
2020/01/31 00:16:05.2	268.240	-0.130	0.030	0.420
2020/01/31 00:16:05.3	268.250	-0.120	0.040	0.400
2020/01/31 00:16:05.4	268.270	-0.110	0.040	0.380
2020/01/31 00:16:05.5	268.280	-0.100	0.050	0.370
2020/01/31 00:16:05.6	268.290	-0.090	0.050	0.360
2020/01/31 00:16:05.7	268.310	-0.080	0.050	0.340
2020/01/31 00:16:05.8	268.320	-0.070	0.050	0.330
2020/01/31 00:16:05.9	268.330	-0.060	0.040	0.320
2020/01/31 00:16:06.0	268.350	-0.050	0.040	0.310
2020/01/31 00:16:06.1	268.370	-0.040	0.040	0.300
2020/01/31 00:16:06.2	268.390	-0.030	0.040	0.300
2020/01/31 00:16:06.3	268.410	-0.020	0.030	0.300
2020/01/31 00:16:06.4	268.420	-0.010	0.030	0.290
2020/01/31 00:16:06.5	268.440	-0.010	0.020	0.290
2020/01/31 00:16:06.6	268.460	0.000	0.010	0.300
2020/01/31 00:16:06.7	268.480	0.010	0.000	0.300
2020/01/31 00:16:06.8	268.500	0.010	-0.000	0.310
2020/01/31 00:16:06.9	268.520	0.020	-0.010	0.320
2020/01/31 00:16:07.0	268.540	0.030	-0.020	0.330
2020/01/31 00:16:07.1	268.560	0.030	-0.030	0.340
2020/01/31 00:16:07.2	268.580	0.040	-0.040	0.350
2020/01/31 00:16:07.3	268.600	0.040	-0.050	0.370
2020/01/31 00:16:07.4	268.620	0.050	-0.060	0.380
2020/01/31 00:16:07.5	268.640	0.050	-0.070	0.400
2020/01/31 00:16:07.6	268.660	0.060	-0.080	0.420
2020/01/31 00:16:07.7	268.680	0.060	-0.090	0.440
2020/01/31 00:16:07.8	268.700	0.060	-0.090	0.460
2020/01/31 00:16:07.9	268.720	0.070	-0.110	0.480
2020/01/31 00:16:08.0	268.740	0.070	-0.110	0.510
2020/01/31 00:16:08.1	268.760	0.070	-0.120	0.530
2020/01/31 00:16:08.2	268.780	0.070	-0.130	0.560
2020/01/31 00:16:08.3	268.800	0.070	-0.140	0.580
2020/01/31 00:16:08.4	268.820	0.080	-0.140	0.610
2020/01/31 00:16:08.5	268.840	0.080	-0.150	0.630
2020/01/31 00:16:08.6	268.860	0.080	-0.150	0.660
2020/01/31 00:16:08.7	268.880	0.080	-0.150	0.680
2020/01/31 00:16:08.8	268.900	0.080	-0.150	0.710
2020/01/31 00:16:08.9	268.930	0.080	-0.150	0.740
2020/01/31 00:16:09.0	268.950	0.080	-0.150	0.760
2020/01/31 00:16:09.1	268.960	0.080	-0.150	0.790
2020/01/31 00:16:09.2	268.980	0.080	-0.150	0.810
2020/01/31 00:16:09.3	268.990	0.070	-0.140	0.830
2020/01/31 00:16:09.4	269.010	0.070	-0.140	0.850
2020/01/31 00:16:09.5	269.020	0.070	-0.130	0.870
2020/01/31 00:16:09.6	269.030	0.070	-0.130	0.890
2020/01/31 00:16:09.7	269.040	0.070	-0.120	0.910
2020/01/31 00:16:09.8	269.060	0.060	-0.110	0.930
2020/01/31 00:16:09.9	269.070	0.060	-0.100	0.940
2020/01/31 00:16:10.0	269.080	0.060	-0.100	0.950
2020/01/31 00:16:10.1	269.090	0.050	-0.090	0.960
2020/01/31 00:16:10.2	269.100	0.050	-0.080	0.970
2020/01/31 00:16:10.3	269.110	0.050	-0.070	0.970
2020/01/31 00:16:10.4	269.110	0.050	-0.060	0.970
2020/01/31 00:16:10.5	269.120	0.040	-0.060	0.970
2020/01/31 00:16:10.6	269.120	0.040	-0.050	0.970
2020/01/31 00:16:10.7	269.130	0.040	-0.040	0.960
2020/01/31 00:16:10.8	269.130	0.040	-0.040	0.950
2020/01/31 00:16:10.9	269.130	0.040	-0.040	0.940
2020/01/31 00:16:11.0	269.130	0.030	-0.030	0.930
2020/01/31 00:16:11.1	269.130	0.030	-0.030	0.910
2020/01/31 00:16:11.2	269.130	0.030	-0.030	0.900
2020/01/31 00:16:11.3	269.130	0.030	-0.030	0.880
2020/01/31 00:16:11.4	269.130	0.030	-0.030	0.860
2020/01/31 00:16:11.5	269.120	0.030	-0.030	0.840
2020/01/31 00:16:11.6	269.120	0.030	-0.030	0.820
2020/01/31 00:16:11.7	269.120	0.030	-0.040	0.800
2020/01/31 00:16:11.8	269.110	0.030	-0.040	0.780
2020/01/31 00:16:11.9	269.110	0.040	-0.050	0.760
2020/01/31 00:16:12.0	269.100	0.040	-0.050	0.740
2020/01/31 00:16:12.1	269.100	0.040	-0.060	0.720
2020/01/31 00:16:12.2	269.090	0.040	-0.080	0.710
2020/01/31 00:16:12.3	269.080	0.050	-0.090	0.690
2020/01/31 00:16:12.4	269.070	0.050	-0.100	0.670
2020/01/31 00:16:12.5	269.070	0.060	-0.120	0.660
2020/01/31 00:16:12.6	269.060	0.060	-0.140	0.640
2020/01/31 00:16:12.7	269.050	0.070	-0.160	0.630
2020/01/31 00:16:12.8	269.040	0.070	-0.180	0.620
2020/01/31 00:16:12.9	269.010	0.080	-0.210	0.610
2020/01/31 00:16:13.0	269.000	0.090	-0.230	0.600
2020/01/31 00:16:13.1	268.990	0.090	-0.260	0.590
2020/01/31 00:16:13.2	268.980	0.100	-0.290	0.590
2020/01/31 00:16:13.3	268.970	0.110	-0.320	0.580
2020/01/31 00:16:13.4	268.950	0.120	-0.350	0.580
2020/01/31 00:16:13.5	268.940	0.130	-0.390	0.580
2020/01/31 00:16:13.6	268.930	0.140	-0.420	0.580
2020/01/31 00:16:13.7	268.910	0.150	-0.460	0.590
2020/01/31 00:16:13.8	268.890	0.160	-0.490	0.590
2020/01/31 00:16:13.9	268.880	0.170	-0.530	0.600
2020/01/31 00:16:14.0	268.870	0.180	-0.570	0.610
2020/01/31 00:16:14.1	268.850	0.190	-0.600	0.620
2020/01/31 00:16:14.2	268.830	0.200	-0.640	0.630
2020/01/31 00:16:14.3	268.810	0.210	-0.670	0.650
2020/01/31 00:16:14.4	268.790	0.210	-0.710	0.670
2020/01/31 00:16:14.5	268.770	0.220	-0.740	0.680
2020/01/31 00:16:14.6	268.750	0.230	-0.770	0.700
2020/01/31 00:16:14.7	268.730	0.230	-0.800	0.730
2020/01/31 00:16:14.8	268.700	0.240	-0.820	0.750
2020/01/31 00:16:14.9	268.680	0.240	-0.850	0.770
2020/01/31 00:16:15.0	268.650	0.240	-0.870	0.800
2020/01/31 00:16:15.1	268.630	0.250	-0.880	0.820
2020/01/31 00:16:15.2	268.600	0.240	-0.900	0.850
2020/01/31 00:16:15.3	268.580	0.240	-0.910	0.870
2020/01/31 00:16:15.4	268.550	0.240	-0.910	0.900
2020/01/31 00:16:15.5	268.520	0.240	-0.920	0.920
2020/01/31 00:16:15.6	268.500	0.230	-0.920	0.950
2020/01/31 00:16:15.7	268.470	0.220	-0.920	0.980
2020/01/31 00:16:15.8	268.440	0.210	-0.910	1.000
2020/01/31 00:16:15.9	268.410	0.200	-0.910	1.020
2020/01/31 00:16:16.0	268.390	0.190	-0.900	1.050
2020/01/31 00:16:16.1	268.360	0.180	-0.890	1.070
2020/01/31 00:16:16.2	268.330	0.160	-0.870	1.090
2020/01/31 00:16:16.3	268.300	0.150	-0.860	1.110
2020/01/31 00:16:16.4	268.280	0.130	-0.840	1.130
2020/01/31 00:16:16.5	268.250	0.110	-0.820	1.150
2020/01/31 00:16:16.6	268.220	0.100	-0.800	1.170
2020/01/31 00:16:16.7	268.190	0.080	-0.780	1.180
2020/01/31 00:16:16.8	268.170	0.060	-0.760	1.200
2020/01/31 00:16:16.9	268.140	0.040	-0.740	1.210
2020/01/31 00:16:17.0	268.120	0.020	-0.720	1.220
2020/01/31 00:16:17.1	268.100	-0.000	-0.690	1.230
2020/01/31 00:16:17.2	268.080	-0.020	-0.670	1.240
2020/01/31 00:16:17.3	268.060	-0.040	-0.650	1.240
2020/01/31 00:16:17.4	268.040	-0.060	-0.630	1.240
2020/01/31 00:16:17.5	268.030	-0.080	-0.600	1.240
2020/01/31 00:16:17.6	268.010	-0.090	-0.580	1.240
2020/01/31 00:16:17.7	268.000	-0.110	-0.560	1.230
2020/01/31 00:16:17.8	267.990	-0.130	-0.540	1.220
2020/01/31 00:16:17.9	267.990	-0.140	-0.520	1.210
2020/01/31 00:16:18.0	267.980	-0.150	-0.500	1.200
2020/01/31 00:16:18.1	267.980	-0.170	-0.480	1.180
2020/01/31 00:16:18.2	267.980	-0.180	-0.460	1.170
2020/01/31 00:16:18.3	267.970	-0.190	-0.440	1.150
2020/01/31 00:16:18.4	267.970	-0.190	-0.420	1.130
2020/01/31 00:16:18.5	267.970	-0.200	-0.390	1.110
2020/01/31 00:16:18.6	267.970	-0.210	-0.370	1.090
2020/01/31 00:16:18.7	267.970	-0.210	-0.350	1.070
2020/01/31 00:16:18.8	267.980	-0.210	-0.330	1.050
2020/01/31 00:16:18.9	267.980	-0.210	-0.310	1.030
2020/01/31 00:16:19.0	267.990	-0.210	-0.280	1.000
2020/01/31 00:16:19.1	267.990	-0.210	-0.260	0.980
2020/01/31 00:16:19.2	268.000	-0.210	-0.230	0.950
2020/01/31 00:16:19.3	268.000	-0.200	-0.210	0.920
2020/01/31 00:16:19.4	268.010	-0.200	-0.180	0.890
2020/01/31 00:16:19.5	268.020	-0.190	-0.160	0.860
2020/01/31 00:16:19.6	268.030	-0.190	-0.130	0.830
2020/01/31 00:16:19.7	268.030	-0.180	-0.110	0.810
2020/01/31 00:16:19.8	268.040	-0.170	-0.080	0.780
2020/01/31 00:16:19.9	268.030	-0.160	-0.060	0.740
2020/01/31 00:16:20.0	268.040	-0.160	-0.040	0.710
2020/01/31 00:16:20.1	268.050	-0.150	-0.020	0.680
2020/01/31 00:16:20.2	268.060	-0.140	0.010	0.650
2020/01/31 00:16:20.3	268.080	-0.130	0.030	0.630
2020/01/31 00:16:20.4	268.090	-0.130	0.050	0.600
2020/01/31 00:16:20.5	268.100	-0.120	0.060	0.570
2020/01/31 00:16:20.6	268.120	-0.110	0.080	0.550
2020/01/31 00:16:20.7	268.130	-0.110	0.100	0.520
2020/01/31 00:16:20.8	268.140	-0.100	0.110	0.500
2020/01/31 00:16:20.9	268.150	-0.090	0.130	0.480
2020/01/31 00:16:21.0	268.170	-0.090	0.140	0.460
2020/01/31 00:16:21.1	268.180	-0.090	0.150	0.440
2020/01/31 00:16:21.2	268.200	-0.080	0.160	0.420
2020/01/31 00:16:21.3	268.220	-0.080	0.170	0.410
2020/01/31 00:16:21.4	268.240	-0.080	0.180	0.400
2020/01/31 00:16:21.5	268.250	-0.080	0.180	0.390
2020/01/31 00:16:21.6	268.270	-0.080	0.190	0.390
2020/01/31 00:16:21.7	268.290	-0.080	0.190	0.380
2020/01/31 00:16:21.8	268.310	-0.090	0.190	0.380
2020/01/31 00:16:21.9	268.320	-0.090	0.190	0.380
2020/01/31 00:16:22.0	268.340	-0.090	0.190	0.390
2020/01/31 00:16:22.1	268.360	-0.100	0.190	0.390
2020/01/31 00:16:22.2	268.380	-0.100	0.190	0.400
2020/01/31 00:16:22.3	268.400	-0.110	0.190	0.410
2020/01/31 00:16:22.4	268.420	-0.110	0.190	0.430
2020/01/31 00:16:22.5	268.440	-0.120	0.180	0.450
2020/01/31 00:16:22.6	268.460	-0.120	0.180	0.470
2020/01/31 00:16:22.7	268.470	-0.130	0.170	0.490
2020/01/31 00:16:22.8	268.490	-0.130	0.160	0.510
2020/01/31 00:16:22.9	268.530	-0.140	0.150	0.530
2020/01/31 00:16:23.0	268.550	-0.150	0.140	0.560
2020/01/31 00:16:23.1	268.560	-0.150	0.120	0.590
2020/01/31 00:16:23.2	268.580	-0.160	0.110	0.620
2020/01/31 00:16:23.3	268.600	-0.160	0.090	0.650
2020/01/31 00:16:23.4	268.620	-0.160	0.080	0.680
2020/01/31 00:16:23.5	268.630	-0.170	0.060	0.710
2020/01/31 00:16:23.6	268.650	-0.170	0.040	0.740
2020/01/31 00:16:23.7	268.670	-0.170	0.010	0.770
2020/01/31 00:16:23.8	268.690	-0.170	-0.010	0.800
2020/01/31 00:16:23.9	268.700	-0.160	-0.040	0.840
2020/01/31 00:16:24.0	268.720	-0.160	-0.070	0.870
2020/01/31 00:16:24.1	268.740	-0.160	-0.090	0.900
2020/01/31 00:16:24.2	268.750	-0.150	-0.120	0.930
2020/01/31 00:16:24.3	268.770	-0.140	-0.150	0.960
2020/01/31 00:16:24.4	268.790	-0.140	-0.180	0.980
2020/01/31 00:16:24.5	268.800	-0.130	-0.220	1.010
2020/01/31 00:16:24.6	268.820	-0.120	-0.250	1.030
2020/01/31 00:16:24.7	268.830	-0.100	-0.280	1.050
2020/01/31 00:16:24.8	268.850	-0.090	-0.310	1.070
2020/01/31 00:16:24.9	268.860	-0.080	-0.340	1.080
2020/01/31 00:16:25.0	268.880	-0.060	-0.370	1.100
2020/01/31 00:16:25.1	268.890	-0.050	-0.400	1.120
2020/01/31 00:16:25.2	268.900	-0.030	-0.430	1.130
2020/01/31 00:16:25.3	268.920	-0.020	-0.450	1.140
2020/01/31 00:16:25.4	268.930	0.000	-0.470	1.150
2020/01/31 00:16:25.5	268.940	0.020	-0.500	1.150
2020/01/31 00:16:25.6	268.950	0.030	-0.520	1.160
2020/01/31 00:16:25.7	268.950	0.050	-0.530	1.160
2020/01/31 00:16:25.8	268.960	0.070	-0.550	1.160
2020/01/31 00:16:25.9	268.970	0.080	-0.560	1.150
2020/01/31 00:16:26.0	268.970	0.090	-0.570	1.150
2020/01/31 00:16:26.1	268.970	0.110	-0.580	1.140
2020/01/31 00:16:26.2	268.980	0.120	-0.590	1.130
2020/01/31 00:16:26.3	268.980	0.130	-0.590	1.120
2020/01/31 00:16:26.4	268.980	0.140	-0.590	1.110
2020/01/31 00:16:26.5	268.970	0.150	-0.590	1.090
2020/01/31 00:16:26.6	268.970	0.160	-0.590	1.080
2020/01/31 00:16:26.7	268.960	0.170	-0.580	1.060
2020/01/31 00:16:26.8	268.960	0.170	-0.570	1.050
2020/01/31 00:16:26.9	268.960	0.170	-0.560	1.030
2020/01/31 00:16:27.0	268.950	0.170	-0.550	1.010
2020/01/31 00:16:27.1	268.940	0.170	-0.540	0.990
2020/01/31 00:16:27.2	268.920	0.170	-0.520	0.980
2020/01/31 00:16:27.3	268.910	0.170	-0.510	0.960
2020/01/31 00:16:27.4	268.900	0.160	-0.490	0.950
2020/01/31 00:16:27.5	268.880	0.160	-0.480	0.940
2020/01/31 00:16:27.6	268.870	0.150	-0.460	0.920
2020/01/31 00:16:27.7	268.850	0.140	-0.450	0.910
2020/01/31 00:16:27.8	268.830	0.130	-0.430	0.900
2020/01/31 00:16:27.9	268.810	0.110	-0.420	0.890
2020/01/31 00:16:28.0	268.800	0.100	-0.410	0.880
2020/01/31 00:16:28.1	268.780	0.090	-0.400	0.870
2020/01/31 00:16:28.2	268.760	0.070	-0.390	0.860
2020/01/31 00:16:28.3	268.750	0.060	-0.380	0.850
2020/01/31 00:16:28.4	268.730	0.040	-0.380	0.840
2020/01/31 00:16:28.5	268.710	0.030	-0.370	0.830
2020/01/31 00:16:28.6	268.700	0.010	-0.370	0.820
2020/01/31 00:16:28.7	268.680	-0.000	-0.370	0.810
2020/01/31 00:16:28.8	268.670	-0.020	-0.370	0.790
2020/01/31 00:16:28.9	268.660	-0.030	-0.370	0.780
2020/01/31 00:16:29.0	268.640	-0.050	-0.370	0.760
2020/01/31 00:16:29.1	268.630	-0.060	-0.380	0.750
2020/01/31 00:16:29.2	268.620	-0.070	-0.390	0.740
2020/01/31 00:16:29.3	268.610	-0.080	-0.400	0.720
2020/01/31 00:16:29.4	268.590	-0.090	-0.410	0.710
2020/01/31 00:16:29.5	268.580	-0.100	-0.420	0.690
2020/01/31 00:16:29.6	268.570	-0.110	-0.430	0.680
2020/01/31 00:16:29.7	268.560	-0.120	-0.440	0.670
2020/01/31 00:16:29.8	268.560	-0.120	-0.460	0.650
2020/01/31 00:16:29.9	268.540	-0.120	-0.470	0.640
2020/01/31 00:16:30.0	268.530	-0.130	-0.490	0.630
2020/01/31 00:16:30.1	268.520	-0.130	-0.500	0.620
2020/01/31 00:16:30.2	268.520	-0.130	-0.520	0.600
2020/01/31 00:16:30.3	268.510	-0.120	-0.530	0.590
2020/01/31 00:16:30.4	268.500	-0.120	-0.540	0.580
2020/01/31 00:16:30.5	268.490	-0.110	-0.550	0.560
2020/01/31 00:16:30.6	268.480	-0.110	-0.550	0.550
2020/01/31 00:16:30.7	268.480	-0.100	-0.560	0.540
2020/01/31 00:16:30.8	268.470	-0.090	-0.560	0.530
2020/01/31 00:16:30.9	268.450	-0.080	-0.570	0.520
2020/01/31 00:16:31.0	268.450	-0.070	-0.570	0.510
2020/01/31 00:16:31.1	268.440	-0.060	-0.560	0.500
2020/01/31 00:16:31.2	268.440	-0.050	-0.560	0.490
2020/01/31 00:16:31.3	268.430	-0.030	-0.550	0.480
2020/01/31 00:16:31.4	268.420	-0.020	-0.540	0.470
2020/01/31 00:16:31.5	268.420	-0.010	-0.530	0.470
2020/01/31 00:16:31.6	268.410	0.010	-0.520	0.460
2020/01/31 00:16:31.7	268.410	0.020	-0.500	0.450
2020/01/31 00:16:31.8	268.410	0.030	-0.490	0.450
2020/01/31 00:16:31.9	268.390	0.040	-0.470	0.450
2020/01/31 00:16:32.0	268.390	0.060	-0.450	0.440
2020/01/31 00:16:32.1	268.390	0.070	-0.430	0.440
2020/01/31 00:16:32.2	268.380	0.080	-0.400	0.450
2020/01/31 00:16:32.3	268.380	0.090	-0.380	0.450
2020/01/31 00:16:32.4	268.370	0.100	-0.360	0.450
2020/01/31 00:16:32.5	268.370	0.110	-0.330	0.460
2020/01/31 00:16:32.6	268.370	0.110	-0.300	0.460
2020/01/31 00:16:32.7	268.370	0.120	-0.280	0.470
2020/01/31 00:16:32.8	268.360	0.130	-0.250	0.480
2020/01/31 00:16:32.9	268.370	0.130	-0.220	0.490
2020/01/31 00:16:33.0	268.370	0.140	-0.190	0.500
2020/01/31 00:16:33.1	268.360	0.140	-0.170	0.510
2020/01/31 00:16:33.2	268.360	0.140	-0.140	0.530
2020/01/31 00:16:33.3	268.360	0.140	-0.120	0.540
2020/01/31 00:16:33.4	268.350	0.140	-0.100	0.560
2020/01/31 00:16:33.5	268.350	0.140	-0.080	0.570
2020/01/31 00:16:33.6	268.350	0.140	-0.060	0.590
2020/01/31 00:16:33.7	268.340	0.130	-0.040	0.600
2020/01/31 00:16:33.8	268.340	0.130	-0.020	0.620
2020/01/31 00:16:33.9	268.320	0.120	-0.010	0.640
2020/01/31 00:16:34.0	268.310	0.120	0.000	0.650
2020/01/31 00:16:34.1	268.310	0.110	0.010	0.670
2020/01/31 00:16:34.2	268.310	0.100	0.020	0.690
2020/01/31 00:16:34.3	268.300	0.100	0.030	0.700
2020/01/31 00:16:34.4	268.300	0.090	0.040	0.720
2020/01/31 00:16:34.5	268.300	0.080	0.040	0.730
2020/01/31 00:16:34.6	268.290	0.070	0.040	0.750
2020/01/31 00:16:34.7	268.290	0.060	0.040	0.770
2020/01/31 00:16:34.8	268.280	0.050	0.040	0.780
2020/01/31 00:16:34.9	268.290	0.040	0.030	0.790
2020/01/31 00:16:35.0	268.280	0.040	0.030	0.810
2020/01/31 00:16:35.1	268.280	0.030	0.020	0.820
2020/01/31 00:16:35.2	268.280	0.020	0.010	0.830
2020/01/31 00:16:35.3	268.270	0.010	0.000	0.850
2020/01/31 00:16:35.4	268.270	0.000	-0.010	0.860
2020/01/31 00:16:35.5	268.270	-0.000	-0.020	0.870
2020/01/31 00:16:35.6	268.270	-0.010	-0.040	0.880
2020/01/31 00:16:35.7	268.270	-0.010	-0.050	0.890
2020/01/31 00:16:35.8	268.260	-0.020	-0.070	0.900
2020/01/31 00:16:35.9	268.260	-0.020	-0.090	0.910
2020/01/31 00:16:36.0	268.260	-0.030	-0.110	0.920
2020/01/31 00:16:36.1	268.260	-0.030	-0.130	0.920
2020/01/31 00:16:36.2	268.270	-0.030	-0.140	0.930
2020/01/31 00:16:36.3	268.270	-0.040	-0.160	0.930
2020/01/31 00:16:36.4	268.270	-0.040	-0.180	0.930
2020/01/31 00:16:36.5	268.270	-0.040	-0.200	0.930
2020/01/31 00:16:36.6	268.280	-0.040	-0.220	0.940
2020/01/31 00:16:36.7	268.280	-0.040	-0.240	0.940
2020/01/31 00:16:36.8	268.290	-0.040	-0.260	0.940
2020/01/31 00:16:36.9	268.310	-0.040	-0.270	0.930
2020/01/31 00:16:37.0	268.320	-0.030	-0.290	0.930
2020/01/31 00:16:37.1	268.330	-0.030	-0.300	0.930
2020/01/31 00:16:37.2	268.340	-0.030	-0.310	0.930
2020/01/31 00:16:37.3	268.350	-0.030	-0.330	0.920
2020/01/31 00:16:37.4	268.370	-0.020	-0.340	0.920
2020/01/31 00:16:37.5	268.390	-0.020	-0.340	0.910
2020/01/31 00:16:37.6	268.410	-0.020	-0.350	0.900
2020/01/31 00:16:37.7	268.430	-0.010	-0.350	0.890
2020/01/31 00:16:37.8	268.450	-0.010	-0.360	0.880
2020/01/31 00:16:37.9	268.480	-0.000	-0.360	0.870
2020/01/31 00:16:38.0	268.500	0.000	-0.360	0.860
2020/01/31 00:16:38.1	268.530	0.000	-0.360	0.850
2020/01/31 00:16:38.2	268.560	0.010	-0.360	0.830
2020/01/31 00:16:38.3	268.590	0.010	-0.360	0.810
2020/01/31 00:16:38.4	268.620	0.010	-0.350	0.790
2020/01/31 00:16:38.5	268.650	0.020	-0.350	0.780
2020/01/31 00:16:38.6	268.690	0.020	-0.340	0.760
2020/01/31 00:16:38.7	268.720	0.020	-0.340	0.740
2020/01/31 00:16:38.8	268.760	0.020	-0.330	0.720
2020/01/31 00:16:38.9	268.800	0.030	-0.330	0.700
2020/01/31 00:16:39.0	268.840	0.030	-0.320	0.680
2020/01/31 00:16:39.1	268.880	0.030	-0.320	0.660
2020/01/31 00:16:39.2	268.910	0.030	-0.310	0.630
2020/01/31 00:16:39.3	268.950	0.030	-0.310	0.610
2020/01/31 00:16:39.4	268.990	0.030	-0.310	0.590
2020/01/31 00:16:39.5	269.030	0.030	-0.310	0.570
2020/01/31 00:16:39.6	269.070	0.020	-0.300	0.550
2020/01/31 00:16:39.7	269.100	0.020	-0.300	0.540
2020/01/31 00:16:39.8	269.140	0.020	-0.300	0.520
2020/01/31 00:16:39.9	269.190	0.020	-0.300	0.510
2020/01/31 00:16:40.0	269.220	0.010	-0.310	0.490
2020/01/31 00:16:40.1	269.260	0.010	-0.310	0.480
2020/01/31 00:16:40.2	269.300	0.010	-0.310	0.470
2020/01/31 00:16:40.3	269.330	0.000	-0.310	0.460
2020/01/31 00:16:40.4	269.370	-0.000	-0.320	0.450
2020/01/31 00:16:40.5	269.400	-0.010	-0.320	0.440
2020/01/31 00:16:40.6	269.430	-0.010	-0.320	0.440
2020/01/31 00:16:40.7	269.460	-0.020	-0.330	0.430
2020/01/31 00:16:40.8	269.500	-0.030	-0.330	0.430
2020/01/31 00:16:40.9	269.530	-0.030	-0.340	0.430
2020/01/31 00:16:41.0	269.560	-0.040	-0.340	0.430
2020/01/31 00:16:41.1	269.580	-0.040	-0.350	0.430
2020/01/31 00:16:41.2	269.610	-0.050	-0.350	0.430
2020/01/31 00:16:41.3	269.630	-0.060	-0.350	0.440
2020/01/31 00:16:41.4	269.650	-0.070	-0.360	0.440
2020/01/31 00:16:41.5	269.670	-0.070	-0.360	0.440
2020/01/31 00:16:41.6	269.680	-0.080	-0.370	0.450
2020/01/31 00:16:41.7	269.700	-0.090	-0.370	0.460
2020/01/31 00:16:41.8	269.710	-0.090	-0.380	0.470
2020/01/31 00:16:41.9	269.710	-0.100	-0.380	0.480
2020/01/31 00:16:42.0	269.720	-0.100	-0.390	0.490
2020/01/31 00:16:42.1	269.720	-0.110	-0.400	0.500
2020/01/31 00:16:42.2	269.720	-0.110	-0.400	0.520
2020/01/31 00:16:42.3	269.720	-0.110	-0.410	0.530
2020/01/31 00:16:42.4	269.710	-0.120	-0.420	0.550
2020/01/31 00:16:42.5	269.700	-0.120	-0.430	0.570
2020/01/31 00:16:42.6	269.690	-0.120	-0.440	0.590
2020/01/31 00:16:42.7	269.680	-0.120	-0.460	0.610
2020/01/31 00:16:42.8	269.660	-0.120	-0.470	0.630
2020/01/31 00:16:42.9	269.650	-0.120	-0.480	0.660
2020/01/31 00:16:43.0	269.630	-0.120	-0.500	0.680
2020/01/31 00:16:43.1	269.610	-0.110	-0.510	0.710
2020/01/31 00:16:43.2	269.580	-0.110	-0.530	0.740
2020/01/31 00:16:43.3	269.560	-0.110	-0.540	0.760
2020/01/31 00:16:43.4	269.530	-0.100	-0.550	0.790
2020/01/31 00:16:43.5	269.500	-0.100	-0.570	0.820
2020/01/31 00:16:43.6	269.470	-0.100	-0.580	0.850
2020/01/31 00:16:43.7	269.430	-0.090	-0.600	0.880
2020/01/31 00:16:43.8	269.400	-0.080	-0.610	0.910
2020/01/31 00:16:43.9	269.360	-0.080	-0.620	0.930
2020/01/31 00:16:44.0	269.320	-0.070	-0.630	0.960
2020/01/31 00:16:44.1	269.280	-0.070	-0.640	0.980
2020/01/31 00:16:44.2	269.250	-0.060	-0.650	1.000
2020/01/31 00:16:44.3	269.210	-0.050	-0.650	1.020
2020/01/31 00:16:44.4	269.170	-0.050	-0.650	1.040
2020/01/31 00:16:44.5	269.130	-0.040	-0.660	1.060
2020/01/31 00:16:44.6	269.090	-0.030	-0.650	1.070
2020/01/31 00:16:44.7	269.060	-0.030	-0.650	1.090
2020/01/31 00:16:44.8	269.020	-0.020	-0.640	1.100
2020/01/31 00:16:44.9	268.980	-0.020	-0.640	1.110
2020/01/31 00:16:45.0	268.940	-0.010	-0.630	1.110
2020/01/31 00:16:45.1	268.900	-0.000	-0.620	1.120
2020/01/31 00:16:45.2	268.870	0.000	-0.600	1.120
2020/01/31 00:16:45.3	268.830	0.010	-0.580	1.120
2020/01/31 00:16:45.4	268.800	0.010	-0.560	1.120
2020/01/31 00:16:45.5	268.760	0.020	-0.530	1.110
2020/01/31 00:16:45.6	268.730	0.020	-0.510	1.110
2020/01/31 00:16:45.7	268.700	0.030	-0.480	1.100
2020/01/31 00:16:45.8	268.670	0.030	-0.450	1.090
2020/01/31 00:16:45.9	268.630	0.030	-0.420	1.070
2020/01/31 00:16:46.0	268.600	0.040	-0.380	1.060
2020/01/31 00:16:46.1	268.570	0.040	-0.350	1.040
2020/01/31 00:16:46.2	268.550	0.050	-0.320	1.020
2020/01/31 00:16:46.3	268.520	0.050	-0.290	1.000
2020/01/31 00:16:46.4	268.500	0.050	-0.250	0.980
2020/01/31 00:16:46.5	268.480	0.060	-0.220	0.960
2020/01/31 00:16:46.6	268.460	0.060	-0.190	0.940
2020/01/31 00:16:46.7	268.440	0.070	-0.160	0.920
2020/01/31 00:16:46.8	268.420	0.070	-0.120	0.890
2020/01/31 00:16:46.9	268.410	0.080	-0.100	0.870
2020/01/31 00:16:47.0	268.400	0.080	-0.070	0.850
2020/01/31 00:16:47.1	268.390	0.090	-0.040	0.830
2020/01/31 00:16:47.2	268.380	0.090	-0.010	0.810
2020/01/31 00:16:47.3	268.380	0.100	0.010	0.780
2020/01/31 00:16:47.4	268.380	0.100	0.030	0.760
2020/01/31 00:16:47.5	268.380	0.110	0.060	0.740
2020/01/31 00:16:47.6	268.380	0.120	0.080	0.710
2020/01/31 00:16:47.7	268.390	0.120	0.100	0.690
2020/01/31 00:16:47.8	268.400	0.130	0.110	0.670
2020/01/31 00:16:47.9	268.410	0.140	0.130	0.640
2020/01/31 00:16:48.0	268.420	0.140	0.150	0.620
2020/01/31 00:16:48.1	268.440	0.150	0.160	0.590
2020/01/31 00:16:48.2	268.450	0.160	0.170	0.560
2020/01/31 00:16:48.3	268.470	0.160	0.180	0.540
2020/01/31 00:16:48.4	268.490	0.170	0.190	0.510
2020/01/31 00:16:48.5	268.520	0.170	0.200	0.490
2020/01/31 00:16:48.6	268.540	0.180	0.200	0.460
2020/01/31 00:16:48.7	268.570	0.180	0.210	0.440
2020/01/31 00:16:48.8	268.600	0.190	0.210	0.410
2020/01/31 00:16:48.9	268.610	0.190	0.210	0.390
2020/01/31 00:16:49.0	268.640	0.190	0.210	0.370
2020/01/31 00:16:49.1	268.680	0.190	0.210	0.340
2020/01/31 00:16:49.2	268.710	0.190	0.210	0.320
2020/01/31 00:16:49.3	268.740	0.190	0.200	0.300
2020/01/31 00:16:49.4	268.770	0.180	0.200	0.280
2020/01/31 00:16:49.5	268.800	0.180	0.190	0.260
2020/01/31 00:16:49.6	268.840	0.170	0.180	0.250
2020/01/31 00:16:49.7	268.870	0.170	0.180	0.230
2020/01/31 00:16:49.8	268.900	0.160	0.160	0.220
2020/01/31 00:16:49.9	268.940	0.150	0.160	0.200
2020/01/31 00:16:50.0	268.970	0.140	0.140	0.190
2020/01/31 00:16:50.1	269.000	0.130	0.130	0.180
2020/01/31 00:16:50.2	269.030	0.120	0.110	0.170
2020/01/31 00:16:50.3	269.060	0.110	0.100	0.170
2020/01/31 00:16:50.4	269.080	0.090	0.080	0.170
2020/01/31 00:16:50.5	269.110	0.080	0.060	0.160
2020/01/31 00:16:50.6	269.130	0.070	0.040	0.160
2020/01/31 00:16:50.7	269.150	0.050	0.010	0.170
2020/01/31 00:16:50.8	269.180	0.040	-0.010	0.170
2020/01/31 00:16:50.9	269.200	0.020	-0.040	0.180
2020/01/31 00:16:51.0	269.220	0.010	-0.070	0.190
2020/01/31 00:16:51.1	269.240	-0.010	-0.090	0.190
2020/01/31 00:16:51.2	269.260	-0.030	-0.120	0.200
2020/01/31 00:16:51.3	269.280	-0.040	-0.150	0.210
2020/01/31 00:16:51.4	269.300	-0.060	-0.180	0.220
2020/01/31 00:16:51.5	269.320	-0.070	-0.210	0.230
2020/01/31 00:16:51.6	269.340	-0.090	-0.240	0.240
2020/01/31 00:16:51.7	269.360	-0.100	-0.280	0.260
2020/01/31 00:16:51.8	269.380	-0.120	-0.310	0.270
2020/01/31 00:16:51.9	269.390	-0.130	-0.340	0.280
2020/01/31 00:16:52.0	269.410	-0.140	-0.380	0.300
2020/01/31 00:16:52.1	269.420	-0.160	-0.410	0.320
2020/01/31 00:16:52.2	269.440	-0.170	-0.450	0.340
2020/01/31 00:16:52.3	269.460	-0.180	-0.490	0.360
2020/01/31 00:16:52.4	269.480	-0.190	-0.520	0.380
2020/01/31 00:16:52.5	269.500	-0.190	-0.560	0.400
2020/01/31 00:16:52.6	269.510	-0.200	-0.600	0.430
2020/01/31 00:16:52.7	269.530	-0.210	-0.640	0.460
2020/01/31 00:16:52.8	269.540	-0.210	-0.680	0.480
2020/01/31 00:16:52.9	269.570	-0.210	-0.710	0.510
2020/01/31 00:16:53.0	269.580	-0.220	-0.750	0.540
2020/01/31 00:16:53.1	269.590	-0.220	-0.780	0.570
2020/01/31 00:16:53.2	269.600	-0.220	-0.820	0.600
2020/01/31 00:16:53.3	269.610	-0.210	-0.850	0.630
2020/01/31 00:16:53.4	269.610	-0.210	-0.880	0.660
2020/01/31 00:16:53.5	269.620	-0.210	-0.910	0.690
2020/01/31 00:16:53.6	269.620	-0.200	-0.930	0.710
2020/01/31 00:16:53.7	269.620	-0.200	-0.950	0.740
2020/01/31 00:16:53.8	269.620	-0.190	-0.970	0.770
2020/01/31 00:16:53.9	269.620	-0.180	-0.990	0.790
2020/01/31 00:16:54.0	269.610	-0.170	-1.000	0.820
2020/01/31 00:16:54.1	269.610	-0.160	-1.010	0.840
2020/01/31 00:16:54.2	269.600	-0.160	-1.020	0.860
2020/01/31 00:16:54.3	269.590	-0.150	-1.020	0.880
2020/01/31 00:16:54.4	269.580	-0.140	-1.030	0.910
2020/01/31 00:16:54.5	269.560	-0.130	-1.020	0.930
2020/01/31 00:16:54.6	269.550	-0.120	-1.020	0.950
2020/01/31 00:16:54.7	269.530	-0.110	-1.010	0.970
2020/01/31 00:16:54.8	269.520	-0.100	-0.990	0.990
2020/01/31 00:16:54.9	269.500	-0.090	-0.980	1.010
2020/01/31 00:16:55.0	269.480	-0.080	-0.960	1.020
2020/01/31 00:16:55.1	269.460	-0.070	-0.940	1.040
2020/01/31 00:16:55.2	269.440	-0.070	-0.920	1.060
2020/01/31 00:16:55.3	269.410	-0.060	-0.890	1.080
2020/01/31 00:16:55.4	269.390	-0.060	-0.870	1.100
2020/01/31 00:16:55.5	269.360	-0.050	-0.840	1.120
2020/01/31 00:16:55.6	269.340	-0.050	-0.810	1.140
2020/01/31 00:16:55.7	269.310	-0.050	-0.770	1.160
2020/01/31 00:16:55.8	269.280	-0.050	-0.740	1.170
2020/01/31 00:16:55.9	269.250	-0.050	-0.710	1.190
2020/01/31 00:16:56.0	269.220	-0.050	-0.670	1.210
2020/01/31 00:16:56.1	269.190	-0.050	-0.630	1.230
2020/01/31 00:16:56.2	269.150	-0.050	-0.600	1.240
2020/01/31 00:16:56.3	269.120	-0.050	-0.560	1.260
2020/01/31 00:16:56.4	269.080	-0.050	-0.530	1.280
2020/01/31 00:16:56.5	269.050	-0.060	-0.490	1.290
2020/01/31 00:16:56.6	269.010	-0.060	-0.460	1.310
2020/01/31 00:16:56.7	268.970	-0.070	-0.420	1.320
2020/01/31 00:16:56.8	268.930	-0.070	-0.390	1.330
2020/01/31 00:16:56.9	268.890	-0.080	-0.360	1.340
2020/01/31 00:16:57.0	268.850	-0.080	-0.330	1.350
2020/01/31 00:16:57.1	268.820	-0.080	-0.300	1.360
2020/01/31 00:16:57.2	268.780	-0.090	-0.270	1.360
2020/01/31 00:16:57.3	268.740	-0.090	-0.240	1.370
2020/01/31 00:16:57.4	268.700	-0.100	-0.220	1.370
2020/01/31 00:16:57.5	268.670	-0.100	-0.190	1.370
2020/01/31 00:16:57.6	268.630	-0.100	-0.170	1.360
2020/01/31 00:16:57.7	268.600	-0.100	-0.150	1.360
2020/01/31 00:16:57.8	268.560	-0.100	-0.130	1.350
2020/01/31 00:16:57.9	268.530	-0.100	-0.120	1.340
2020/01/31 00:16:58.0	268.500	-0.100	-0.100	1.330
2020/01/31 00:16:58.1	268.470	-0.100	-0.090	1.320
2020/01/31 00:16:58.2	268.440	-0.090	-0.070	1.310
2020/01/31 00:16:58.3	268.410	-0.090	-0.060	1.290
2020/01/31 00:16:58.4	268.380	-0.080	-0.050	1.280
2020/01/31 00:16:58.5	268.360	-0.070	-0.040	1.260
2020/01/31 00:16:58.6	268.330	-0.060	-0.040	1.240
2020/01/31 00:16:58.7	268.310	-0.050	-0.030	1.220
2020/01/31 00:16:58.8	268.280	-0.040	-0.020	1.200
2020/01/31 00:16:58.9	268.260	-0.030	-0.020	1.180
2020/01/31 00:16:59.0	268.240	-0.010	-0.010	1.160
2020/01/31 00:16:59.1	268.220	-0.000	-0.000	1.140
2020/01/31 00:16:59.2	268.200	0.010	0.000	1.120
2020/01/31 00:16:59.3	268.180	0.030	0.010	1.090
2020/01/31 00:16:59.4	268.170	0.040	0.020	1.070
2020/01/31 00:16:59.5	268.160	0.060	0.020	1.050
2020/01/31 00:16:59.6	268.150	0.080	0.030	1.030
2020/01/31 00:16:59.7	268.140	0.090	0.040	1.000
2020/01/31 00:16:59.8	268.130	0.110	0.050	0.980
2020/01/31 00:16:59.9	268.130	0.120	0.060	0.960
2020/01/31 00:17:00.0	268.130	0.140	0.070	0.930
2020/01/31 00:17:00.1	268.130	0.150	0.080	0.910
2020/01/31 00:17:00.2	268.130	0.170	0.090	0.890
2020/01/31 00:17:00.3	268.130	0.180	0.100	0.870
2020/01/31 00:17:00.4	268.140	0.190	0.110	0.840
2020/01/31 00:17:00.5	268.150	0.200	0.120	0.820
2020/01/31 00:17:00.6	268.160	0.210	0.130	0.800
2020/01/31 00:17:00.7	268.170	0.220	0.140	0.780
2020/01/31 00:17:00.8	268.180	0.230	0.160	0.760
2020/01/31 00:17:00.9	268.210	0.240	0.170	0.740
2020/01/31 00:17:01.0	268.220	0.250	0.180	0.720
2020/01/31 00:17:01.1	268.240	0.260	0.200	0.700
2020/01/31 00:17:01.2	268.260	0.260	0.210	0.680
2020/01/31 00:17:01.3	268.280	0.260	0.220	0.660
2020/01/31 00:17:01.4	268.300	0.270	0.230	0.640
2020/01/31 00:17:01.5	268.320	0.270	0.240	0.620
2020/01/31 00:17:01.6	268.350	0.270	0.250	0.600
2020/01/31 00:17:01.7	268.370	0.270	0.260	0.580
2020/01/31 00:17:01.8	268.400	0.270	0.270	0.560
2020/01/31 00:17:01.9	268.410	0.270	0.280	0.540
2020/01/31 00:17:02.0	268.440	0.260	0.280	0.520
2020/01/31 00:17:02.1	268.470	0.260	0.290	0.500
2020/01/31 00:17:02.2	268.510	0.250	0.290	0.480
2020/01/31 00:17:02.3	268.540	0.250	0.290	0.460
2020/01/31 00:17:02.4	268.570	0.240	0.290	0.440
2020/01/31 00:17:02.5	268.610	0.230	0.280	0.410
2020/01/31 00:17:02.6	268.650	0.230	0.280	0.390
2020/01/31 00:17:02.7	268.690	0.220	0.270	0.370
2020/01/31 00:17:02.8	268.730	0.210	0.260	0.350
2020/01/31 00:17:02.9	268.770	0.200	0.240	0.320
2020/01/31 00:17:03.0	268.810	0.190	0.220	0.300
2020/01/31 00:17:03.1	268.850	0.180	0.200	0.280
2020/01/31 00:17:03.2	268.890	0.170	0.180	0.260
2020/01/31 00:17:03.3	268.930	0.160	0.150	0.250
2020/01/31 00:17:03.4	268.970	0.150	0.130	0.230
2020/01/31 00:17:03.5	269.010	0.140	0.100	0.210
2020/01/31 00:17:03.6	269.050	0.130	0.060	0.200
2020/01/31 00:17:03.7	269.090	0.120	0.030	0.190
2020/01/31 00:17:03.8	269.130	0.110	-0.010	0.170
2020/01/31 00:17:03.9	269.160	0.100	-0.050	0.170
2020/01/31 00:17:04.0	269.190	0.090	-0.090	0.160
2020/01/31 00:17:04.1	269.230	0.080	-0.140	0.160
2020/01/31 00:17:04.2	269.260	0.070	-0.180	0.150
2020/01/31 00:17:04.3	269.300	0.070	-0.230	0.150
2020/01/31 00:17:04.4	269.330	0.060	-0.280	0.150
2020/01/31 00:17:04.5	269.360	0.050	-0.320	0.150
2020/01/31 00:17:04.6	269.390	0.040	-0.370	0.150
2020/01/31 00:17:04.7	269.410	0.040	-0.420	0.160
2020/01/31 00:17:04.8	269.440	0.030	-0.470	0.170
2020/01/31 00:17:04.9	269.470	0.020	-0.530	0.180
2020/01/31 00:17:05.0	269.490	0.020	-0.580	0.190
2020/01/31 00:17:05.1	269.510	0.010	-0.630	0.210
2020/01/31 00:17:05.2	269.520	0.010	-0.680	0.220
2020/01/31 00:17:05.3	269.540	-0.000	-0.730	0.240
2020/01/31 00:17:05.4	269.550	-0.010	-0.780	0.260
2020/01/31 00:17:05.5	269.560	-0.010	-0.820	0.290
2020/01/31 00:17:05.6	269.570	-0.020	-0.870	0.310
2020/01/31 00:17:05.7	269.580	-0.020	-0.910	0.340
2020/01/31 00:17:05.8	269.580	-0.030	-0.950	0.370
2020/01/31 00:17:05.9	269.580	-0.030	-0.990	0.400
2020/01/31 00:17:06.0	269.580	-0.040	-1.030	0.430
2020/01/31 00:17:06.1	269.590	-0.050	-1.060	0.460
2020/01/31 00:17:06.2	269.590	-0.050	-1.080	0.500
2020/01/31 00:17:06.3	269.590	-0.060	-1.110	0.530
2020/01/31 00:17:06.4	269.590	-0.070	-1.130	0.560
2020/01/31 00:17:06.5	269.590	-0.080	-1.140	0.590
2020/01/31 00:17:06.6	269.590	-0.090	-1.150	0.630
2020/01/31 00:17:06.7	269.580	-0.090	-1.160	0.660
2020/01/31 00:17:06.8	269.580	-0.100	-1.160	0.690
2020/01/31 00:17:06.9	269.580	-0.110	-1.150	0.710
2020/01/31 00:17:07.0	269.580	-0.130	-1.140	0.740
2020/01/31 00:17:07.1	269.580	-0.140	-1.130	0.770
2020/01/31 00:17:07.2	269.580	-0.150	-1.120	0.790
2020/01/31 00:17:07.3	269.570	-0.160	-1.100	0.820
2020/01/31 00:17:07.4	269.570	-0.170	-1.080	0.840
2020/01/31 00:17:07.5	269.570	-0.180	-1.050	0.860
2020/01/31 00:17:07.6	269.570	-0.190	-1.030	0.880
2020/01/31 00:17:07.7	269.570	-0.200	-1.000	0.900
2020/01/31 00:17:07.8	269.570	-0.210	-0.960	0.920
2020/01/31 00:17:07.9	269.550	-0.220	-0.930	0.930
2020/01/31 00:17:08.0	269.550	-0.230	-0.900	0.940
2020/01/31 00:17:08.1	269.550	-0.240	-0.860	0.950
2020/01/31 00:17:08.2	269.560	-0.250	-0.820	0.960
2020/01/31 00:17:08.3	269.560	-0.250	-0.790	0.970
2020/01/31 00:17:08.4	269.560	-0.260	-0.750	0.970
2020/01/31 00:17:08.5	269.560	-0.260	-0.710	0.970
2020/01/31 00:17:08.6	269.560	-0.260	-0.680	0.970
2020/01/31 00:17:08.7	269.560	-0.260	-0.640	0.970
2020/01/31 00:17:08.8	269.560	-0.260	-0.600	0.960
2020/01/31 00:17:08.9	269.570	-0.260	-0.570	0.940
2020/01/31 00:17:09.0	269.580	-0.250	-0.530	0.930
2020/01/31 00:17:09.1	269.580	-0.250	-0.500	0.910
2020/01/31 00:17:09.2	269.580	-0.240	-0.470	0.890
2020/01/31 00:17:09.3	269.580	-0.230	-0.440	0.870
2020/01/31 00:17:09.4	269.580	-0.220	-0.420	0.850
2020/01/31 00:17:09.5	269.590	-0.200	-0.390	0.830
2020/01/31 00:17:09.6	269.590	-0.190	-0.370	0.800
2020/01/31 00:17:09.7	269.590	-0.170	-0.350	0.780
2020/01/31 00:17:09.8	269.590	-0.150	-0.330	0.750
2020/01/31 00:17:09.9	269.600	-0.130	-0.320	0.730
2020/01/31 00:17:10.0	269.600	-0.110	-0.310	0.710
2020/01/31 00:17:10.1	269.600	-0.090	-0.300	0.680
2020/01/31 00:17:10.2	269.600	-0.070	-0.290	0.660
2020/01/31 00:17:10.3	269.590	-0.050	-0.280	0.630
2020/01/31 00:17:10.4	269.590	-0.030	-0.280	0.610
2020/01/31 00:17:10.5	269.590	-0.010	-0.270	0.590
2020/01/31 00:17:10.6	269.590	0.010	-0.270	0.570
2020/01/31 00:17:10.7	269.580	0.030	-0.270	0.550
2020/01/31 00:17:10.8	269.580	0.040	-0.270	0.530
2020/01/31 00:17:10.9	269.560	0.060	-0.260	0.500
2020/01/31 00:17:11.0	269.550	0.080	-0.260	0.490
2020/01/31 00:17:11.1	269.550	0.090	-0.260	0.470
2020/01/31 00:17:11.2	269.540	0.100	-0.260	0.460
2020/01/31 00:17:11.3	269.530	0.110	-0.260	0.450
2020/01/31 00:17:11.4	269.520	0.120	-0.260	0.440
2020/01/31 00:17:11.5	269.510	0.120	-0.260	0.430
2020/01/31 00:17:11.6	269.500	0.130	-0.260	0.430
2020/01/31 00:17:11.7	269.490	0.130	-0.260	0.430
2020/01/31 00:17:11.8	269.470	0.130	-0.250	0.430
2020/01/31 00:17:11.9	269.460	0.120	-0.250	0.430
2020/01/31 00:17:12.0	269.450	0.120	-0.250	0.430
2020/01/31 00:17:12.1	269.430	0.110	-0.240	0.440
2020/01/31 00:17:12.2	269.410	0.100	-0.230	0.440
2020/01/31 00:17:12.3	269.400	0.090	-0.220	0.450
2020/01/31 00:17:12.4	269.380	0.070	-0.210	0.460
2020/01/31 00:17:12.5	269.360	0.060	-0.200	0.470
2020/01/31 00:17:12.6	269.350	0.040	-0.180	0.480
2020/01/31 00:17:12.7	269.330	0.020	-0.170	0.490
2020/01/31 00:17:12.8	269.310	0.000	-0.160	0.500
2020/01/31 00:17:12.9	269.300	-0.020	-0.140	0.510
2020/01/31 00:17:13.0	269.280	-0.040	-0.120	0.520
2020/01/31 00:17:13.1	269.260	-0.060	-0.100	0.530
2020/01/31 00:17:13.2	269.250	-0.080	-0.090	0.530
2020/01/31 00:17:13.3	269.230	-0.100	-0.070	0.540
2020/01/31 00:17:13.4	269.210	-0.120	-0.050	0.540
2020/01/31 00:17:13.5	269.200	-0.140	-0.030	0.550
2020/01/31 00:17:13.6	269.190	-0.160	-0.010	0.550
2020/01/31 00:17:13.7	269.170	-0.180	0.000	0.550
2020/01/31 00:17:13.8	269.160	-0.200	0.020	0.550
2020/01/31 00:17:13.9	269.160	-0.220	0.040	0.540
2020/01/31 00:17:14.0	269.140	-0.230	0.050	0.540
2020/01/31 00:17:14.1	269.130	-0.250	0.070	0.540
2020/01/31 00:17:14.2	269.120	-0.260	0.080	0.530
2020/01/31 00:17:14.3	269.110	-0.270	0.100	0.530
2020/01/31 00:17:14.4	269.100	-0.280	0.110	0.520
2020/01/31 00:17:14.5	269.090	-0.280	0.120	0.510
2020/01/31 00:17:14.6	269.080	-0.290	0.130	0.510
2020/01/31 00:17:14.7	269.080	-0.290	0.140	0.500
2020/01/31 00:17:14.8	269.070	-0.290	0.150	0.490
2020/01/31 00:17:14.9	269.040	-0.290	0.160	0.490
2020/01/31 00:17:15.0	269.040	-0.280	0.160	0.480
2020/01/31 00:17:15.1	269.030	-0.280	0.170	0.480
2020/01/31 00:17:15.2	269.020	-0.270	0.170	0.470
2020/01/31 00:17:15.3	269.020	-0.260	0.180	0.470
2020/01/31 00:17:15.4	269.010	-0.240	0.180	0.470
2020/01/31 00:17:15.5	269.010	-0.230	0.180	0.470
2020/01/31 00:17:15.6	269.010	-0.210	0.180	0.470
2020/01/31 00:17:15.7	269.000	-0.200	0.180	0.470
2020/01/31 00:17:15.8	269.000	-0.180	0.170	0.470
2020/01/31 00:17:15.9	268.990	-0.160	0.160	0.470
2020/01/31 00:17:16.0	268.990	-0.140	0.160	0.480
2020/01/31 00:17:16.1	268.980	-0.120	0.150	0.490
2020/01/31 00:17:16.2	268.980	-0.090	0.150	0.500
2020/01/31 00:17:16.3	268.970	-0.070	0.140	0.510
2020/01/31 00:17:16.4	268.970	-0.050	0.130	0.530
2020/01/31 00:17:16.5	268.970	-0.020	0.120	0.550
2020/01/31 00:17:16.6	268.960	-0.000	0.100	0.570
2020/01/31 00:17:16.7	268.960	0.020	0.090	0.590
2020/01/31 00:17:16.8	268.950	0.040	0.080	0.610
2020/01/31 00:17:16.9	268.950	0.060	0.070	0.640
2020/01/31 00:17:17.0	268.950	0.090	0.050	0.670
2020/01/31 00:17:17.1	268.950	0.100	0.040	0.690
2020/01/31 00:17:17.2	268.950	0.120	0.030	0.720
2020/01/31 00:17:17.3	268.950	0.140	0.020	0.750
2020/01/31 00:17:17.4	268.950	0.160	0.000	0.780
2020/01/31 00:17:17.5	268.940	0.170	-0.010	0.810
2020/01/31 00:17:17.6	268.940	0.190	-0.020	0.840
2020/01/31 00:17:17.7	268.940	0.200	-0.030	0.870
2020/01/31 00:17:17.8	268.940	0.210	-0.040	0.900
2020/01/31 00:17:17.9	268.950	0.220	-0.050	0.930
2020/01/31 00:17:18.0	268.950	0.230	-0.060	0.960
2020/01/31 00:17:18.1	268.950	0.230	-0.070	0.990
2020/01/31 00:17:18.2	268.950	0.240	-0.080	1.020
2020/01/31 00:17:18.3	268.950	0.240	-0.080	1.050
2020/01/31 00:17:18.4	268.960	0.240	-0.090	1.070
2020/01/31 00:17:18.5	268.960	0.240	-0.100	1.100
2020/01/31 00:17:18.6	268.960	0.240	-0.100	1.120
2020/01/31 00:17:18.7	268.970	0.240	-0.110	1.140
2020/01/31 00:17:18.8	268.970	0.240	-0.110	1.160
2020/01/31 00:17:18.9	268.970	0.230	-0.120	1.180
2020/01/31 00:17:19.0	268.980	0.230	-0.120	1.190
2020/01/31 00:17:19.1	268.980	0.230	-0.130	1.200
2020/01/31 00:17:19.2	268.990	0.220	-0.130	1.210
2020/01/31 00:17:19.3	269.000	0.210	-0.140	1.220
2020/01/31 00:17:19.4	269.010	0.210	-0.150	1.220
2020/01/31 00:17:19.5	269.010	0.200	-0.160	1.220
2020/01/31 00:17:19.6	269.030	0.200	-0.160	1.220
2020/01/31 00:17:19.7	269.040	0.190	-0.170	1.210
2020/01/31 00:17:19.8	269.050	0.180	-0.190	1.200
2020/01/31 00:17:19.9	269.060	0.180	-0.200	1.180
2020/01/31 00:17:20.0	269.080	0.170	-0.210	1.160
2020/01/31 00:17:20.1	269.090	0.170	-0.230	1.140
2020/01/31 00:17:20.2	269.100	0.160	-0.250	1.120
2020/01/31 00:17:20.3	269.120	0.160	-0.270	1.090
2020/01/31 00:17:20.4	269.140	0.160	-0.300	1.070
2020/01/31 00:17:20.5	269.150	0.160	-0.320	1.040
2020/01/31 00:17:20.6	269.170	0.160	-0.350	1.000
2020/01/31 00:17:20.7	269.190	0.160	-0.380	0.970
2020/01/31 00:17:20.8	269.200	0.160	-0.420	0.930
2020/01/31 00:17:20.9	269.230	0.160	-0.460	0.900
2020/01/31 00:17:21.0	269.250	0.170	-0.490	0.860
2020/01/31 00:17:21.1	269.260	0.170	-0.530	0.820
2020/01/31 00:17:21.2	269.280	0.180	-0.570	0.780
2020/01/31 00:17:21.3	269.300	0.180	-0.610	0.740
2020/01/31 00:17:21.4	269.320	0.190	-0.650	0.700
2020/01/31 00:17:21.5	269.340	0.200	-0.700	0.660
2020/01/31 00:17:21.6	269.350	0.210	-0.740	0.630
2020/01/31 00:17:21.7	269.370	0.220	-0.780	0.590
2020/01/31 00:17:21.8	269.380	0.230	-0.820	0.550
2020/01/31 00:17:21.9	269.410	0.240	-0.860	0.510
2020/01/31 00:17:22.0	269.420	0.250	-0.900	0.480
2020/01/31 00:17:22.1	269.440	0.260	-0.930	0.440
2020/01/31 00:17:22.2	269.450	0.260	-0.970	0.410
2020/01/31 00:17:22.3	269.460	0.270	-1.000	0.380
2020/01/31 00:17:22.4	269.470	0.280	-1.030	0.350
2020/01/31 00:17:22.5	269.480	0.290	-1.050	0.330
2020/01/31 00:17:22.6	269.490	0.290	-1.070	0.300
2020/01/31 00:17:22.7	269.500	0.300	-1.090	0.280
2020/01/31 00:17:22.8	269.510	0.300	-1.110	0.270
2020/01/31 00:17:22.9	269.530	0.310	-1.120	0.250
2020/01/31 00:17:23.0	269.540	0.310	-1.130	0.240
2020/01/31 00:17:23.1	269.540	0.300	-1.130	0.230
2020/01/31 00:17:23.2	269.550	0.300	-1.140	0.230
2020/01/31 00:17:23.3	269.550	0.300	-1.130	0.230
2020/01/31 00:17:23.4	269.560	0.290	-1.130	0.230
2020/01/31 00:17:23.5	269.560	0.280	-1.120	0.240
2020/01/31 00:17:23.6	269.560	0.270	-1.110	0.250
2020/01/31 00:17:23.7	269.560	0.260	-1.100	0.260
2020/01/31 00:17:23.8	269.560	0.250	-1.080	0.280
2020/01/31 00:17:23.9	269.560	0.230	-1.060	0.300
2020/01/31 00:17:24.0	269.560	0.210	-1.040	0.320
2020/01/31 00:17:24.1	269.550	0.200	-1.010	0.350
2020/01/31 00:17:24.2	269.550	0.180	-0.990	0.390
2020/01/31 00:17:24.3	269.540	0.160	-0.960	0.420
2020/01/31 00:17:24.4	269.530	0.130	-0.930	0.460
2020/01/31 00:17:24.5	269.520	0.110	-0.900	0.500
2020/01/31 00:17:24.6	269.510	0.090	-0.870	0.540
2020/01/31 00:17:24.7	269.500	0.060	-0.840	0.590
2020/01/31 00:17:24.8	269.480	0.040	-0.810	0.630
2020/01/31 00:17:24.9	269.470	0.010	-0.770	0.680
2020/01/31 00:17:25.0	269.450	-0.010	-0.740	0.720
2020/01/31 00:17:25.1	269.430	-0.040	-0.700	0.770
2020/01/31 00:17:25.2	269.400	-0.070	-0.670	0.820
2020/01/31 00:17:25.3	269.380	-0.090	-0.630	0.860
2020/01/31 00:17:25.4	269.350	-0.120	-0.600	0.910
2020/01/31 00:17:25.5	269.330	-0.140	-0.560	0.950
2020/01/31 00:17:25.6	269.300	-0.160	-0.520	0.990
2020/01/31 00:17:25.7	269.270	-0.190	-0.490	1.030
2020/01/31 00:17:25.8	269.240	-0.210	-0.450	1.070
2020/01/31 00:17:25.9	269.210	-0.230	-0.420	1.100
2020/01/31 00:17:26.0	269.180	-0.250	-0.390	1.130
2020/01/31 00:17:26.1	269.140	-0.260	-0.350	1.160
2020/01/31 00:17:26.2	269.110	-0.280	-0.320	1.190
2020/01/31 00:17:26.3	269.080	-0.300	-0.290	1.220
2020/01/31 00:17:26.4	269.050	-0.310	-0.260	1.240
2020/01/31 00:17:26.5	269.020	-0.320	-0.230	1.260
2020/01/31 00:17:26.6	268.980	-0.330	-0.200	1.270
2020/01/31 00:17:26.7	268.950	-0.340	-0.170	1.280
2020/01/31 00:17:26.8	268.920	-0.350	-0.150	1.290
2020/01/31 00:17:26.9	268.880	-0.350	-0.120	1.300
2020/01/31 00:17:27.0	268.860	-0.350	-0.100	1.300
2020/01/31 00:17:27.1	268.830	-0.360	-0.070	1.300
2020/01/31 00:17:27.2	268.800	-0.360	-0.050	1.300
2020/01/31 00:17:27.3	268.780	-0.350	-0.030	1.290
2020/01/31 00:17:27.4	268.760	-0.350	-0.010	1.280
2020/01/31 00:17:27.5	268.730	-0.350	0.000	1.270
2020/01/31 00:17:27.6	268.710	-0.340	0.020	1.260
2020/01/31 00:17:27.7	268.700	-0.330	0.040	1.240
2020/01/31 00:17:27.8	268.680	-0.330	0.050	1.230
2020/01/31 00:17:27.9	268.650	-0.320	0.060	1.210
2020/01/31 00:17:28.0	268.640	-0.310	0.080	1.190
2020/01/31 00:17:28.1	268.630	-0.300	0.090	1.170
2020/01/31 00:17:28.2	268.620	-0.280	0.100	1.150
2020/01/31 00:17:28.3	268.610	-0.270	0.110	1.130
2020/01/31 00:17:28.4	268.600	-0.260	0.130	1.100
2020/01/31 00:17:28.5	268.590	-0.250	0.140	1.080
2020/01/31 00:17:28.6	268.580	-0.230	0.150	1.050
2020/01/31 00:17:28.7	268.570	-0.220	0.160	1.030
2020/01/31 00:17:28.8	268.570	-0.210	0.180	1.000
2020/01/31 00:17:28.9	268.570	-0.190	0.190	0.980
2020/01/31 00:17:29.0	268.570	-0.180	0.200	0.950
2020/01/31 00:17:29.1	268.570	-0.170	0.210	0.930
2020/01/31 00:17:29.2	268.570	-0.150	0.220	0.900
2020/01/31 00:17:29.3	268.570	-0.140	0.240	0.880
2020/01/31 00:17:29.4	268.570	-0.130	0.250	0.850
2020/01/31 00:17:29.5	268.570	-0.120	0.260	0.830
2020/01/31 00:17:29.6	268.570	-0.110	0.270	0.810
2020/01/31 00:17:29.7	268.580	-0.090	0.280	0.780
2020/01/31 00:17:29.8	268.580	-0.080	0.290	0.760
2020/01/31 00:17:29.9	268.590	-0.070	0.290	0.740
2020/01/31 00:17:30.0	268.600	-0.060	0.300	0.720
2020/01/31 00:17:30.1	268.600	-0.060	0.310	0.700
2020/01/31 00:17:30.2	268.610	-0.050	0.310	0.690
2020/01/31 00:17:30.3	268.620	-0.040	0.320	0.670
2020/01/31 00:17:30.4	268.620	-0.030	0.320	0.650
2020/01/31 00:17:30.5	268.630	-0.020	0.320	0.640
2020/01/31 00:17:30.6	268.640	-0.020	0.330	0.620
2020/01/31 00:17:30.7	268.650	-0.010	0.330	0.600
2020/01/31 00:17:30.8	268.660	-0.000	0.330	0.590
2020/01/31 00:17:30.9	268.660	0.000	0.320	0.570
2020/01/31 00:17:31.0	268.680	0.010	0.320	0.560
2020/01/31 00:17:31.1	268.690	0.020	0.320	0.540
2020/01/31 00:17:31.2	268.710	0.020	0.310	0.530
2020/01/31 00:17:31.3	268.730	0.030	0.300	0.510
2020/01/31 00:17:31.4	268.740	0.030	0.300	0.500
2020/01/31 00:17:31.5	268.760	0.040	0.290	0.490
2020/01/31 00:17:31.6	268.780	0.040	0.280	0.470
2020/01/31 00:17:31.7	268.800	0.050	0.260	0.460
2020/01/31 00:17:31.8	268.830	0.050	0.250	0.450
2020/01/31 00:17:31.9	268.840	0.060	0.230	0.430
2020/01/31 00:17:32.0	268.860	0.070	0.210	0.420
2020/01/31 00:17:32.1	268.890	0.070	0.190	0.410
2020/01/31 00:17:32.2	268.910	0.080	0.170	0.400
2020/01/31 00:17:32.3	268.940	0.090	0.150	0.390
2020/01/31 00:17:32.4	268.960	0.090	0.130	0.390
2020/01/31 00:17:32.5	268.990	0.100	0.100	0.380
2020/01/31 00:17:32.6	269.010	0.110	0.070	0.380
2020/01/31 00:17:32.7	269.040	0.120	0.040	0.370
2020/01/31 00:17:32.8	269.060	0.120	0.010	0.370
2020/01/31 00:17:32.9	269.090	0.130	-0.020	0.370
2020/01/31 00:17:33.0	269.110	0.140	-0.050	0.370
2020/01/31 00:17:33.1	269.140	0.150	-0.080	0.380
2020/01/31 00:17:33.2	269.160	0.160	-0.120	0.380
2020/01/31 00:17:33.3	269.180	0.160	-0.160	0.390
2020/01/31 00:17:33.4	269.210	0.170	-0.190	0.400
2020/01/31 00:17:33.5	269.230	0.180	-0.230	0.410
2020/01/31 00:17:33.6	269.250	0.190	-0.270	0.420
2020/01/31 00:17:33.7	269.270	0.190	-0.310	0.430
2020/01/31 00:17:33.8	269.290	0.200	-0.350	0.440
2020/01/31 00:17:33.9	269.310	0.210	-0.400	0.460
2020/01/31 00:17:34.0	269.330	0.210	-0.440	0.480
2020/01/31 00:17:34.1	269.350	0.220	-0.480	0.500
2020/01/31 00:17:34.2	269.370	0.220	-0.520	0.520
2020/01/31 00:17:34.3	269.390	0.230	-0.560	0.540
2020/01/31 00:17:34.4	269.400	0.230	-0.600	0.560
2020/01/31 00:17:34.5	269.420	0.230	-0.650	0.580
2020/01/31 00:17:34.6	269.440	0.230	-0.680	0.610
2020/01/31 00:17:34.7	269.450	0.240	-0.720	0.630
2020/01/31 00:17:34.8	269.460	0.240	-0.760	0.650
2020/01/31 00:17:34.9	269.490	0.240	-0.790	0.680
2020/01/31 00:17:35.0	269.500	0.240	-0.830	0.700
2020/01/31 00:17:35.1	269.510	0.240	-0.860	0.730
2020/01/31 00:17:35.2	269.520	0.240	-0.900	0.750
2020/01/31 00:17:35.3	269.530	0.230	-0.930	0.770
2020/01/31 00:17:35.4	269.540	0.230	-0.960	0.790
2020/01/31 00:17:35.5	269.540	0.230	-0.980	0.810
2020/01/31 00:17:35.6	269.550	0.230	-1.010	0.830
2020/01/31 00:17:35.7	269.550	0.220	-1.030	0.850
2020/01/31 00:17:35.8	269.550	0.220	-1.050	0.860
2020/01/31 00:17:35.9	269.560	0.210	-1.060	0.880
2020/01/31 00:17:36.0	269.560	0.210	-1.080	0.900
2020/01/31 00:17:36.1	269.560	0.200	-1.090	0.910
2020/01/31 00:17:36.2	269.560	0.190	-1.100	0.920
2020/01/31 00:17:36.3	269.560	0.190	-1.100	0.930
2020/01/31 00:17:36.4	269.550	0.180	-1.100	0.940
2020/01/31 00:17:36.5	269.550	0.170	-1.100	0.940
2020/01/31 00:17:36.6	269.540	0.160	-1.100	0.950
2020/01/31 00:17:36.7	269.540	0.150	-1.090	0.950
2020/01/31 00:17:36.8	269.530	0.140	-1.080	0.960
2020/01/31 00:17:36.9	269.530	0.130	-1.060	0.950
2020/01/31 00:17:37.0	269.520	0.120	-1.050	0.960
2020/01/31 00:17:37.1	269.510	0.110	-1.030	0.960
2020/01/31 00:17:37.2	269.500	0.100	-1.010	0.960
2020/01/31 00:17:37.3	269.490	0.090	-0.990	0.950
2020/01/31 00:17:37.4	269.480	0.080	-0.960	0.950
2020/01/31 00:17:37.5	269.470	0.070	-0.930	0.950
2020/01/31 00:17:37.6	269.460	0.060	-0.910	0.940
2020/01/31 00:17:37.7	269.450	0.040	-0.880	0.940
2020/01/31 00:17:37.8	269.430	0.030	-0.850	0.930
2020/01/31 00:17:37.9	269.420	0.020	-0.810	0.930
2020/01/31 00:17:38.0	269.400	0.010	-0.780	0.920
2020/01/31 00:17:38.1	269.390	-0.000	-0.750	0.910
2020/01/31 00:17:38.2	269.370	-0.020	-0.710	0.900
2020/01/31 00:17:38.3	269.360	-0.030	-0.680	0.890
2020/01/31 00:17:38.4	269.340	-0.040	-0.640	0.870
2020/01/31 00:17:38.5	269.320	-0.050	-0.600	0.860
2020/01/31 00:17:38.6	269.310	-0.070	-0.570	0.840
2020/01/31 00:17:38.7	269.290	-0.080	-0.530	0.830
2020/01/31 00:17:38.8	269.270	-0.090	-0.500	0.810
2020/01/31 00:17:38.9	269.260	-0.100	-0.460	0.790
2020/01/31 00:17:39.0	269.240	-0.110	-0.420	0.770
2020/01/31 00:17:39.1	269.220	-0.130	-0.390	0.750
2020/01/31 00:17:39.2	269.210	-0.140	-0.350	0.740
2020/01/31 00:17:39.3	269.190	-0.150	-0.320	0.720
2020/01/31 00:17:39.4	269.170	-0.160	-0.290	0.700
2020/01/31 00:17:39.5	269.160	-0.170	-0.260	0.680
2020/01/31 00:17:39.6	269.140	-0.180	-0.230	0.660
2020/01/31 00:17:39.7	269.130	-0.180	-0.200	0.640
2020/01/31 00:17:39.8	269.110	-0.190	-0.170	0.610
2020/01/31 00:17:39.9	269.100	-0.200	-0.140	0.590
2020/01/31 00:17:40.0	269.090	-0.200	-0.120	0.570
2020/01/31 00:17:40.1	269.080	-0.210	-0.100	0.550
2020/01/31 00:17:40.2	269.060	-0.210	-0.070	0.530
2020/01/31 00:17:40.3	269.050	-0.220	-0.050	0.500
2020/01/31 00:17:40.4	269.050	-0.220	-0.040	0.480
2020/01/31 00:17:40.5	269.040	-0.220	-0.020	0.460
2020/01/31 00:17:40.6	269.030	-0.220	-0.000	0.440
2020/01/31 00:17:40.7	269.020	-0.220	0.010	0.410
2020/01/31 00:17:40.8	269.020	-0.220	0.030	0.390
2020/01/31 00:17:40.9	269.000	-0.220	0.040	0.370
2020/01/31 00:17:41.0	269.000	-0.220	0.050	0.340
2020/01/31 00:17:41.1	269.000	-0.220	0.060	0.320
2020/01/31 00:17:41.2	269.000	-0.210	0.070	0.300
2020/01/31 00:17:41.3	269.000	-0.210	0.080	0.280
2020/01/31 00:17:41.4	269.000	-0.200	0.080	0.250
2020/01/31 00:17:41.5	269.000	-0.190	0.090	0.230
2020/01/31 00:17:41.6	269.010	-0.180	0.100	0.210
2020/01/31 00:17:41.7	269.010	-0.180	0.100	0.190
2020/01/31 00:17:41.8	269.020	-0.170	0.110	0.180
2020/01/31 00:17:41.9	269.030	-0.160	0.110	0.160
2020/01/31 00:17:42.0	269.040	-0.150	0.120	0.140
2020/01/31 00:17:42.1	269.050	-0.140	0.120	0.120
2020/01/31 00:17:42.2	269.060	-0.130	0.120	0.110
2020/01/31 00:17:42.3	269.070	-0.120	0.120	0.100
2020/01/31 00:17:42.4	269.080	-0.100	0.130	0.080
2020/01/31 00:17:42.5	269.090	-0.090	0.130	0.070
2020/01/31 00:17:42.6	269.110	-0.080	0.130	0.070
2020/01/31 00:17:42.7	269.120	-0.070	0.130	0.060
2020/01/31 00:17:42.8	269.130	-0.060	0.130	0.050
2020/01/31 00:17:42.9	269.160	-0.050	0.120	0.060
2020/01/31 00:17:43.0	269.180	-0.040	0.120	0.050
2020/01/31 00:17:43.1	269.190	-0.020	0.110	0.060
2020/01/31 00:17:43.2	269.200	-0.010	0.110	0.060
2020/01/31 00:17:43.3	269.210	-0.000	0.100	0.070
2020/01/31 00:17:43.4	269.230	0.010	0.090	0.090
2020/01/31 00:17:43.5	269.240	0.020	0.080	0.100
2020/01/31 00:17:43.6	269.250	0.030	0.060	0.120
2020/01/31 00:17:43.7	269.260	0.040	0.050	0.140
2020/01/31 00:17:43.8	269.270	0.050	0.030	0.160
2020/01/31 00:17:43.9	269.280	0.060	0.010	0.190
2020/01/31 00:17:44.0	269.290	0.070	-0.010	0.220
2020/01/31 00:17:44.1	269.300	0.080	-0.030	0.250
2020/01/31 00:17:44.2	269.310	0.090	-0.060	0.290
2020/01/31 00:17:44.3	269.310	0.100	-0.080	0.320
2020/01/31 00:17:44.4	269.320	0.110	-0.110	0.360
2020/01/31 00:17:44.5	269.320	0.120	-0.130	0.400
2020/01/31 00:17:44.6	269.330	0.130	-0.160	0.440
2020/01/31 00:17:44.7	269.330	0.140	-0.190	0.480
2020/01/31 00:17:44.8	269.330	0.150	-0.220	0.520
2020/01/31 00:17:44.9	269.330	0.160	-0.240	0.560
2020/01/31 00:17:45.0	269.330	0.170	-0.270	0.600
2020/01/31 00:17:45.1	269.330	0.180	-0.300	0.640
2020/01/31 00:17:45.2	269.330	0.190	-0.320	0.680
2020/01/31 00:17:45.3	269.330	0.190	-0.350	0.720
2020/01/31 00:17:45.4	269.330	0.200	-0.370	0.760
2020/01/31 00:17:45.5	269.320	0.210	-0.390	0.800
2020/01/31 00:17:45.6	269.320	0.220	-0.410	0.830
2020/01/31 00:17:45.7	269.310	0.220	-0.430	0.870
2020/01/31 00:17:45.8	269.300	0.230	-0.450	0.900
2020/01/31 00:17:45.9	269.300	0.230	-0.460	0.940
2020/01/31 00:17:46.0	269.290	0.230	-0.470	0.970
2020/01/31 00:17:46.1	269.280	0.240	-0.480	1.000
2020/01/31 00:17:46.2	269.270	0.240	-0.480	1.030
2020/01/31 00:17:46.3	269.260	0.240	-0.490	1.050
2020/01/31 00:17:46.4	269.250	0.240	-0.490	1.080
2020/01/31 00:17:46.5	269.230	0.240	-0.490	1.100
2020/01/31 00:17:46.6	269.220	0.240	-0.480	1.120
2020/01/31 00:17:46.7	269.200	0.240	-0.480	1.140
2020/01/31 00:17:46.8	269.190	0.230	-0.480	1.160
2020/01/31 00:17:46.9	269.160	0.230	-0.470	1.180
2020/01/31 00:17:47.0	269.140	0.220	-0.460	1.200
2020/01/31 00:17:47.1	269.130	0.220	-0.450	1.210
2020/01/31 00:17:47.2	269.100	0.210	-0.440	1.220
2020/01/31 00:17:47.3	269.080	0.200	-0.430	1.230
2020/01/31 00:17:47.4	269.060	0.200	-0.420	1.240
2020/01/31 00:17:47.5	269.040	0.190	-0.410	1.240
2020/01/31 00:17:47.6	269.010	0.180	-0.400	1.240
2020/01/31 00:17:47.7	268.980	0.170	-0.390	1.250
2020/01/31 00:17:47.8	268.960	0.160	-0.380	1.250
2020/01/31 00:17:47.9	268.930	0.140	-0.370	1.240
2020/01/31 00:17:48.0	268.900	0.130	-0.360	1.240
2020/01/31 00:17:48.1	268.870	0.120	-0.350	1.240
2020/01/31 00:17:48.2	268.840	0.110	-0.340	1.230
2020/01/31 00:17:48.3	268.810	0.100	-0.330	1.220
2020/01/31 00:17:48.4	268.770	0.080	-0.330	1.220
2020/01/31 00:17:48.5	268.740	0.070	-0.320	1.210
2020/01/31 00:17:48.6	268.710	0.060	-0.310	1.200
2020/01/31 00:17:48.7	268.670	0.050	-0.310	1.190
2020/01/31 00:17:48.8	268.640	0.030	-0.310	1.180
2020/01/31 00:17:48.9	268.600	0.020	-0.300	1.170
2020/01/31 00:17:49.0	268.570	0.010	-0.300	1.150
2020/01/31 00:17:49.1	268.540	-0.000	-0.290	1.140
2020/01/31 00:17:49.2	268.500	-0.020	-0.290	1.120
2020/01/31 00:17:49.3	268.470	-0.030	-0.290	1.100
2020/01/31 00:17:49.4	268.440	-0.040	-0.290	1.090
2020/01/31 00:17:49.5	268.410	-0.050	-0.290	1.070
2020/01/31 00:17:49.6	268.380	-0.060	-0.290	1.050
2020/01/31 00:17:49.7	268.360	-0.070	-0.290	1.020
2020/01/31 00:17:49.8	268.330	-0.080	-0.290	1.000
2020/01/31 00:17:49.9	268.300	-0.090	-0.290	0.980
2020/01/31 00:17:50.0	268.280	-0.100	-0.290	0.960
2020/01/31 00:17:50.1	268.260	-0.110	-0.290	0.940
2020/01/31 00:17:50.2	268.250	-0.110	-0.290	0.920
2020/01/31 00:17:50.3	268.230	-0.120	-0.300	0.890
2020/01/31 00:17:50.4	268.220	-0.130	-0.300	0.870
2020/01/31 00:17:50.5	268.210	-0.130	-0.300	0.850
2020/01/31 00:17:50.6	268.200	-0.140	-0.300	0.830
2020/01/31 00:17:50.7	268.190	-0.140	-0.310	0.810
2020/01/31 00:17:50.8	268.180	-0.150	-0.310	0.780
2020/01/31 00:17:50.9	268.170	-0.150	-0.320	0.760
2020/01/31 00:17:51.0	268.170	-0.160	-0.320	0.740
2020/01/31 00:17:51.1	268.170	-0.160	-0.320	0.720
2020/01/31 00:17:51.2	268.170	-0.160	-0.330	0.700
2020/01/31 00:17:51.3	268.180	-0.160	-0.330	0.680
2020/01/31 00:17:51.4	268.180	-0.160	-0.330	0.660
2020/01/31 00:17:51.5	268.190	-0.170	-0.340	0.640
2020/01/31 00:17:51.6	268.200	-0.170	-0.340	0.620
2020/01/31 00:17:51.7	268.210	-0.170	-0.350	0.600
2020/01/31 00:17:51.8	268.230	-0.170	-0.350	0.580
2020/01/31 00:17:51.9	268.240	-0.170	-0.350	0.560
2020/01/31 00:17:52.0	268.250	-0.170	-0.360	0.540
2020/01/31 00:17:52.1	268.270	-0.170	-0.360	0.530
2020/01/31 00:17:52.2	268.290	-0.170	-0.360	0.510
2020/01/31 00:17:52.3	268.310	-0.170	-0.360	0.500
2020/01/31 00:17:52.4	268.330	-0.170	-0.370	0.490
2020/01/31 00:17:52.5	268.360	-0.160	-0.370	0.470
2020/01/31 00:17:52.6	268.380	-0.160	-0.370	0.460
2020/01/31 00:17:52.7	268.410	-0.160	-0.370	0.460
2020/01/31 00:17:52.8	268.430	-0.160	-0.370	0.450
2020/01/31 00:17:52.9	268.450	-0.150	-0.380	0.440
2020/01/31 00:17:53.0	268.470	-0.150	-0.380	0.440
2020/01/31 00:17:53.1	268.500	-0.150	-0.380	0.430
2020/01/31 00:17:53.2	268.530	-0.150	-0.380	0.430
2020/01/31 00:17:53.3	268.560	-0.140	-0.380	0.430
2020/01/31 00:17:53.4	268.590	-0.140	-0.380	0.420
2020/01/31 00:17:53.5	268.620	-0.130	-0.370	0.420
2020/01/31 00:17:53.6	268.650	-0.130	-0.370	0.420
2020/01/31 00:17:53.7	268.680	-0.120	-0.370	0.420
2020/01/31 00:17:53.8	268.710	-0.120	-0.370	0.430
2020/01/31 00:17:53.9	268.740	-0.120	-0.370	0.430
2020/01/31 00:17:54.0	268.770	-0.110	-0.370	0.430
2020/01/31 00:17:54.1	268.800	-0.110	-0.370	0.430
2020/01/31 00:17:54.2	268.830	-0.100	-0.370	0.440
2020/01/31 00:17:54.3	268.850	-0.100	-0.360	0.450
2020/01/31 00:17:54.4	268.880	-0.090	-0.360	0.450
2020/01/31 00:17:54.5	268.900	-0.090	-0.360	0.460
2020/01/31 00:17:54.6	268.930	-0.080	-0.360	0.470
2020/01/31 00:17:54.7	268.950	-0.080	-0.360	0.480
2020/01/31 00:17:54.8	268.980	-0.070	-0.360	0.500
2020/01/31 00:17:54.9	269.010	-0.060	-0.360	0.510
2020/01/31 00:17:55.0	269.030	-0.060	-0.360	0.530
2020/01/31 00:17:55.1	269.050	-0.050	-0.370	0.540
2020/01/31 00:17:55.2	269.080	-0.050	-0.370	0.560
2020/01/31 00:17:55.3	269.100	-0.040	-0.380	0.570
2020/01/31 00:17:55.4	269.120	-0.040	-0.380	0.590
2020/01/31 00:17:55.5	269.130	-0.030	-0.390	0.610
2020/01/31 00:17:55.6	269.150	-0.030	-0.390	0.630
2020/01/31 00:17:55.7	269.170	-0.020	-0.400	0.650
2020/01/31 00:17:55.8	269.190	-0.010	-0.400	0.680
2020/01/31 00:17:55.9	269.220	-0.010	-0.410	0.700
2020/01/31 00:17:56.0	269.230	-0.000	-0.420	0.720
2020/01/31 00:17:56.1	269.250	0.000	-0.420	0.750
2020/01/31 00:17:56.2	269.260	0.010	-0.430	0.770
2020/01/31 00:17:56.3	269.270	0.020	-0.430	0.790
2020/01/31 00:17:56.4	269.290	0.020	-0.440	0.810
2020/01/31 00:17:56.5	269.300	0.030	-0.440	0.830
2020/01/31 00:17:56.6	269.310	0.030	-0.450	0.840
2020/01/31 00:17:56.7	269.320	0.040	-0.450	0.860
2020/01/31 00:17:56.8	269.330	0.040	-0.450	0.870
2020/01/31 00:17:56.9	269.340	0.050	-0.450	0.880
2020/01/31 00:17:57.0	269.350	0.060	-0.450	0.890
2020/01/31 00:17:57.1	269.350	0.060	-0.450	0.890
2020/01/31 00:17:57.2	269.360	0.070	-0.450	0.900
2020/01/31 00:17:57.3	269.360	0.070	-0.440	0.900
2020/01/31 00:17:57.4	269.360	0.080	-0.440	0.900
2020/01/31 00:17:57.5	269.370	0.080	-0.440	0.890
2020/01/31 00:17:57.6	269.370	0.090	-0.440	0.890
2020/01/31 00:17:57.7	269.370	0.090	-0.430	0.890
2020/01/31 00:17:57.8	269.360	0.090	-0.430	0.880
2020/01/31 00:17:57.9	269.370	0.100	-0.430	0.870
2020/01/31 00:17:58.0	269.360	0.100	-0.420	0.860
2020/01/31 00:17:58.1	269.360	0.110	-0.420	0.860
2020/01/31 00:17:58.2	269.350	0.110	-0.420	0.850
2020/01/31 00:17:58.3	269.340	0.110	-0.420	0.840
2020/01/31 00:17:58.4	269.330	0.110	-0.420	0.830
2020/01/31 00:17:58.5	269.320	0.120	-0.410	0.820
2020/01/31 00:17:58.6	269.300	0.120	-0.410	0.810
2020/01/31 00:17:58.7	269.290	0.120	-0.410	0.800
2020/01/31 00:17:58.8	269.270	0.120	-0.410	0.790
2020/01/31 00:17:58.9	269.250	0.120	-0.410	0.780
2020/01/31 00:17:59.0	269.230	0.120	-0.410	0.780
2020/01/31 00:17:59.1	269.210	0.120	-0.410	0.770
2020/01/31 00:17:59.2	269.190	0.120	-0.410	0.760
2020/01/31 00:17:59.3	269.170	0.120	-0.400	0.750
2020/01/31 00:17:59.4	269.140	0.110	-0.400	0.740
2020/01/31 00:17:59.5	269.120	0.110	-0.400	0.740
2020/01/31 00:17:59.6	269.090	0.100	-0.390	0.730
2020/01/31 00:17:59.7	269.060	0.090	-0.390	0.720
2020/01/31 00:17:59.8	269.030	0.090	-0.380	0.710
2020/01/31 00:17:59.9	268.990	0.080	-0.370	0.710
2020/01/31 00:18:00.0	268.960	0.070	-0.360	0.700
2020/01/31 00:18:00.1	268.930	0.060	-0.350	0.690
2020/01/31 00:18:00.2	268.890	0.050	-0.340	0.690
2020/01/31 00:18:00.3	268.860	0.030	-0.330	0.680
2020/01/31 00:18:00.4	268.820	0.020	-0.310	0.670
2020/01/31 00:18:00.5	268.790	0.010	-0.300	0.670
2020/01/31 00:18:00.6	268.750	-0.010	-0.280	0.660
2020/01/31 00:18:00.7	268.720	-0.020	-0.260	0.660
2020/01/31 00:18:00.8	268.680	-0.040	-0.240	0.650
2020/01/31 00:18:00.9	268.650	-0.050	-0.220	0.640
2020/01/31 00:18:01.0	268.620	-0.070	-0.200	0.630
2020/01/31 00:18:01.1	268.580	-0.090	-0.180	0.630
2020/01/31 00:18:01.2	268.540	-0.100	-0.160	0.620
2020/01/31 00:18:01.3	268.510	-0.120	-0.130	0.620
2020/01/31 00:18:01.4	268.470	-0.130	-0.110	0.610
2020/01/31 00:18:01.5	268.440	-0.150	-0.090	0.610
2020/01/31 00:18:01.6	268.400	-0.170	-0.070	0.600
2020/01/31 00:18:01.7	268.370	-0.180	-0.040	0.590
2020/01/31 00:18:01.8	268.330	-0.200	-0.020	0.590
2020/01/31 00:18:01.9	268.300	-0.210	-0.000	0.580
2020/01/31 00:18:02.0	268.270	-0.220	0.020	0.570
2020/01/31 00:18:02.1	268.240	-0.230	0.040	0.570
2020/01/31 00:18:02.2	268.210	-0.250	0.060	0.560
2020/01/31 00:18:02.3	268.180	-0.260	0.080	0.550
2020/01/31 00:18:02.4	268.150	-0.260	0.100	0.540
2020/01/31 00:18:02.5	268.130	-0.270	0.120	0.540
2020/01/31 00:18:02.6	268.110	-0.280	0.140	0.530
2020/01/31 00:18:02.7	268.090	-0.280	0.150	0.520
2020/01/31 00:18:02.8	268.070	-0.290	0.170	0.510
2020/01/31 00:18:02.9	268.060	-0.290	0.180	0.500
2020/01/31 00:18:03.0	268.050	-0.290	0.200	0.490
2020/01/31 00:18:03.1	268.040	-0.290	0.210	0.480
2020/01/31 00:18:03.2	268.030	-0.290	0.220	0.460
2020/01/31 00:18:03.3	268.030	-0.280	0.230	0.450
2020/01/31 00:18:03.4	268.030	-0.280	0.240	0.440
2020/01/31 00:18:03.5	268.030	-0.270	0.250	0.430
2020/01/31 00:18:03.6	268.030	-0.260	0.260	0.410
2020/01/31 00:18:03.7	268.040	-0.250	0.260	0.400
2020/01/31 00:18:03.8	268.050	-0.240	0.270	0.380
2020/01/31 00:18:03.9	268.070	-0.230	0.270	0.370
2020/01/31 00:18:04.0	268.080	-0.210	0.270	0.350
2020/01/31 00:18:04.1	268.100	-0.200	0.270	0.340
2020/01/31 00:18:04.2	268.120	-0.180	0.270	0.320
2020/01/31 00:18:04.3	268.140	-0.160	0.270	0.300
2020/01/31 00:18:04.4	268.160	-0.140	0.270	0.280
2020/01/31 00:18:04.5	268.180	-0.120	0.270	0.270
2020/01/31 00:18:04.6	268.210	-0.100	0.260	0.250
2020/01/31 00:18:04.7	268.240	-0.070	0.250	0.230
2020/01/31 00:18:04.8	268.270	-0.050	0.240	0.220
2020/01/31 00:18:04.9	268.290	-0.020	0.230	0.200
2020/01/31 00:18:05.0	268.320	0.010	0.220	0.180
2020/01/31 00:18:05.1	268.360	0.030	0.200	0.170
2020/01/31 00:18:05.2	268.390	0.060	0.180	0.150
2020/01/31 00:18:05.3	268.420	0.090	0.160	0.140
2020/01/31 00:18:05.4	268.460	0.120	0.140	0.120
2020/01/31 00:18:05.5	268.490	0.150	0.110	0.110
2020/01/31 00:18:05.6	268.530	0.180	0.080	0.090
2020/01/31 00:18:05.7	268.570	0.210	0.050	0.080
2020/01/31 00:18:05.8	268.600	0.240	0.020	0.070
2020/01/31 00:18:05.9	268.640	0.270	-0.020	0.060
2020/01/31 00:18:06.0	268.680	0.300	-0.050	0.040
2020/01/31 00:18:06.1	268.720	0.330	-0.090	0.030
2020/01/31 00:18:06.2	268.760	0.350	-0.130	0.030
2020/01/31 00:18:06.3	268.800	0.380	-0.180	0.020
2020/01/31 00:18:06.4	268.840	0.410	-0.220	0.010
2020/01/31 00:18:06.5	268.880	0.430	-0.260	0.010
2020/01/31 00:18:06.6	268.920	0.460	-0.310	0.000
2020/01/31 00:18:06.7	268.960	0.480	-0.350	-0.000
2020/01/31 00:18:06.8	269.000	0.500	-0.390	-0.010
2020/01/31 00:18:06.9	269.050	0.520	-0.440	-0.010
2020/01/31 00:18:07.0	269.090	0.540	-0.480	-0.010
2020/01/31 00:18:07.1	269.130	0.560	-0.530	-0.010
2020/01/31 00:18:07.2	269.170	0.570	-0.570	-0.000
2020/01/31 00:18:07.3	269.220	0.590	-0.610	0.000
2020/01/31 00:18:07.4	269.260	0.600	-0.650	0.010
2020/01/31 00:18:07.5	269.300	0.610	-0.690	0.020
2020/01/31 00:18:07.6	269.350	0.610	-0.730	0.030
2020/01/31 00:18:07.7	269.390	0.620	-0.760	0.040
2020/01/31 00:18:07.8	269.430	0.620	-0.800	0.050
2020/01/31 00:18:07.9	269.470	0.620	-0.830	0.070
2020/01/31 00:18:08.0	269.510	0.620	-0.860	0.080
2020/01/31 00:18:08.1	269.550	0.610	-0.890	0.100
2020/01/31 00:18:08.2	269.590	0.600	-0.910	0.120
2020/01/31 00:18:08.3	269.620	0.590	-0.930	0.140
2020/01/31 00:18:08.4	269.650	0.580	-0.950	0.170
2020/01/31 00:18:08.5	269.680	0.560	-0.970	0.190
2020/01/31 00:18:08.6	269.710	0.550	-0.980	0.220
2020/01/31 00:18:08.7	269.740	0.530	-0.990	0.250
2020/01/31 00:18:08.8	269.760	0.500	-1.000	0.280
2020/01/31 00:18:08.9	269.790	0.480	-1.010	0.310
2020/01/31 00:18:09.0	269.810	0.450	-1.010	0.340
2020/01/31 00:18:09.1	269.820	0.420	-1.010	0.370
2020/01/31 00:18:09.2	269.840	0.390	-1.010	0.400
2020/01/31 00:18:09.3	269.850	0.350	-1.010	0.420
2020/01/31 00:18:09.4	269.860	0.320	-1.000	0.450
2020/01/31 00:18:09.5	269.870	0.280	-1.000	0.480
2020/01/31 00:18:09.6	269.880	0.240	-0.990	0.510
2020/01/31 00:18:09.7	269.880	0.200	-0.980	0.530
2020/01/31 00:18:09.8	269.880	0.150	-0.970	0.560
2020/01/31 00:18:09.9	269.880	0.110	-0.960	0.580
2020/01/31 00:18:10.0	269.880	0.070	-0.950	0.610
2020/01/31 00:18:10.1	269.870	0.020	-0.940	0.630
2020/01/31 00:18:10.2	269.860	-0.020	-0.920	0.650
2020/01/31 00:18:10.3	269.850	-0.070	-0.910	0.670
2020/01/31 00:18:10.4	269.840	-0.120	-0.890	0.680
2020/01/31 00:18:10.5	269.830	-0.160	-0.880	0.700
2020/01/31 00:18:10.6	269.810	-0.210	-0.870	0.710
2020/01/31 00:18:10.7	269.790	-0.250	-0.850	0.730
2020/01/31 00:18:10.8	269.780	-0.300	-0.840	0.740
2020/01/31 00:18:10.9	269.770	-0.340	-0.830	0.740
2020/01/31 00:18:11.0	269.750	-0.380	-0.810	0.750
2020/01/31 00:18:11.1	269.730	-0.420	-0.800	0.760
2020/01/31 00:18:11.2	269.710	-0.460	-0.790	0.760
2020/01/31 00:18:11.3	269.680	-0.500	-0.770	0.760
2020/01/31 00:18:11.4	269.660	-0.530	-0.760	0.770
2020/01/31 00:18:11.5	269.630	-0.560	-0.750	0.770
2020/01/31 00:18:11.6	269.610	-0.590	-0.740	0.770
2020/01/31 00:18:11.7	269.580	-0.620	-0.720	0.760
2020/01/31 00:18:11.8	269.550	-0.650	-0.710	0.760
2020/01/31 00:18:11.9	269.510	-0.670	-0.700	0.760
2020/01/31 00:18:12.0	269.490	-0.690	-0.680	0.760
2020/01/31 00:18:12.1	269.460	-0.710	-0.670	0.750
2020/01/31 00:18:12.2	269.430	-0.730	-0.660	0.750
2020/01/31 00:18:12.3	269.390	-0.740	-0.650	0.740
2020/01/31 00:18:12.4	269.360	-0.750	-0.630	0.740
2020/01/31 00:18:12.5	269.330	-0.760	-0.620	0.730
2020/01/31 00:18:12.6	269.300	-0.770	-0.600	0.730
2020/01/31 00:18:12.7	269.270	-0.770	-0.590	0.720
2020/01/31 00:18:12.8	269.230	-0.770	-0.570	0.720
2020/01/31 00:18:12.9	269.190	-0.770	-0.550	0.710
2020/01/31 00:18:13.0	269.160	-0.760	-0.530	0.700
2020/01/31 00:18:13.1	269.130	-0.760	-0.510	0.700
2020/01/31 00:18:13.2	269.090	-0.750	-0.490	0.690
2020/01/31 00:18:13.3	269.060	-0.740	-0.470	0.690
2020/01/31 00:18:13.4	269.030	-0.730	-0.450	0.680
2020/01/31 00:18:13.5	269.010	-0.710	-0.420	0.680
2020/01/31 00:18:13.6	268.980	-0.700	-0.390	0.680
2020/01/31 00:18:13.7	268.950	-0.680	-0.360	0.670
2020/01/31 00:18:13.8	268.920	-0.660	-0.330	0.670
2020/01/31 00:18:13.9	268.890	-0.640	-0.300	0.670
2020/01/31 00:18:14.0	268.860	-0.620	-0.270	0.670
2020/01/31 00:18:14.1	268.840	-0.600	-0.240	0.670
2020/01/31 00:18:14.2	268.810	-0.570	-0.200	0.670
2020/01/31 00:18:14.3	268.790	-0.550	-0.170	0.670
2020/01/31 00:18:14.4	268.770	-0.530	-0.130	0.670
2020/01/31 00:18:14.5	268.740	-0.500	-0.090	0.680
2020/01/31 00:18:14.6	268.720	-0.470	-0.050	0.680
2020/01/31 00:18:14.7	268.700	-0.450	-0.010	0.680
2020/01/31 00:18:14.8	268.680	-0.420	0.030	0.690
2020/01/31 00:18:14.9	268.660	-0.390	0.070	0.680
2020/01/31 00:18:15.0	268.640	-0.370	0.110	0.690
2020/01/31 00:18:15.1	268.630	-0.340	0.150	0.690
2020/01/31 00:18:15.2	268.610	-0.310	0.200	0.700
2020/01/31 00:18:15.3	268.590	-0.290	0.240	0.700
2020/01/31 00:18:15.4	268.570	-0.260	0.280	0.710
2020/01/31 00:18:15.5	268.560	-0.240	0.320	0.710
2020/01/31 00:18:15.6	268.540	-0.210	0.360	0.720
2020/01/31 00:18:15.7	268.530	-0.180	0.400	0.720
2020/01/31 00:18:15.8	268.520	-0.160	0.430	0.730
2020/01/31 00:18:15.9	268.500	-0.140	0.470	0.740
2020/01/31 00:18:16.0	268.490	-0.110	0.500	0.740
2020/01/31 00:18:16.1	268.480	-0.090	0.530	0.750
2020/01/31 00:18:16.2	268.470	-0.070	0.560	0.750
2020/01/31 00:18:16.3	268.470	-0.040	0.590	0.760
2020/01/31 00:18:16.4	268.460	-0.020	0.620	0.760
2020/01/31 00:18:16.5	268.450	-0.000	0.640	0.760
2020/01/31 00:18:16.6	268.450	0.020	0.660	0.760
2020/01/31 00:18:16.7	268.440	0.040	0.670	0.760
2020/01/31 00:18:16.8	268.440	0.060	0.690	0.760
2020/01/31 00:18:16.9	268.440	0.080	0.700	0.760
2020/01/31 00:18:17.0	268.440	0.090	0.710	0.760
2020/01/31 00:18:17.1	268.440	0.110	0.710	0.760
2020/01/31 00:18:17.2	268.440	0.130	0.710	0.750
2020/01/31 00:18:17.3	268.440	0.150	0.710	0.750
2020/01/31 00:18:17.4	268.440	0.160	0.700	0.740
2020/01/31 00:18:17.5	268.440	0.180	0.690	0.740
2020/01/31 00:18:17.6	268.450	0.200	0.670	0.730
2020/01/31 00:18:17.7	268.450	0.210	0.650	0.720
2020/01/31 00:18:17.8	268.460	0.230	0.630	0.710
2020/01/31 00:18:17.9	268.460	0.250	0.600	0.700
2020/01/31 00:18:18.0	268.470	0.260	0.570	0.690
2020/01/31 00:18:18.1	268.470	0.280	0.540	0.680
2020/01/31 00:18:18.2	268.480	0.290	0.510	0.670
2020/01/31 00:18:18.3	268.490	0.310	0.470	0.650
2020/01/31 00:18:18.4	268.500	0.330	0.420	0.640
2020/01/31 00:18:18.5	268.510	0.340	0.380	0.620
2020/01/31 00:18:18.6	268.530	0.360	0.330	0.610
2020/01/31 00:18:18.7	268.540	0.380	0.280	0.590
2020/01/31 00:18:18.8	268.550	0.390	0.230	0.570
2020/01/31 00:18:18.9	268.570	0.410	0.180	0.550
2020/01/31 00:18:19.0	268.590	0.430	0.120	0.530
2020/01/31 00:18:19.1	268.600	0.440	0.060	0.510
2020/01/31 00:18:19.2	268.620	0.460	0.000	0.490
2020/01/31 00:18:19.3	268.640	0.470	-0.060	0.470
2020/01/31 00:18:19.4	268.660	0.490	-0.120	0.460
2020/01/31 00:18:19.5	268.680	0.500	-0.180	0.440
2020/01/31 00:18:19.6	268.700	0.520	-0.240	0.420
2020/01/31 00:18:19.7	268.720	0.530	-0.300	0.410
2020/01/31 00:18:19.8	268.730	0.540	-0.360	0.390
2020/01/31 00:18:19.9	268.760	0.550	-0.420	0.380
2020/01/31 00:18:20.0	268.780	0.570	-0.480	0.370
2020/01/31 00:18:20.1	268.790	0.580	-0.530	0.360
2020/01/31 00:18:20.2	268.810	0.580	-0.590	0.360
2020/01/31 00:18:20.3	268.830	0.590	-0.640	0.350
2020/01/31 00:18:20.4	268.840	0.600	-0.690	0.350
2020/01/31 00:18:20.5	268.860	0.600	-0.730	0.350
2020/01/31 00:18:20.6	268.870	0.610	-0.780	0.350
2020/01/31 00:18:20.7	268.880	0.610	-0.820	0.360
2020/01/31 00:18:20.8	268.890	0.610	-0.850	0.370
2020/01/31 00:18:20.9	268.900	0.610	-0.880	0.380
2020/01/31 00:18:21.0	268.910	0.600	-0.910	0.390
2020/01/31 00:18:21.1	268.910	0.600	-0.940	0.400
2020/01/31 00:18:21.2	268.920	0.590	-0.960	0.420
2020/01/31 00:18:21.3	268.920	0.580	-0.970	0.440
2020/01/31 00:18:21.4	268.930	0.570	-0.980	0.460
2020/01/31 00:18:21.5	268.930	0.560	-0.990	0.490
2020/01/31 00:18:21.6	268.930	0.540	-1.000	0.520
2020/01/31 00:18:21.7	268.930	0.520	-1.000	0.540
2020/01/31 00:18:21.8	268.930	0.510	-0.990	0.570
2020/01/31 00:18:21.9	268.930	0.480	-0.990	0.610
2020/01/31 00:18:22.0	268.930	0.460	-0.980	0.640
2020/01/31 00:18:22.1	268.920	0.440	-0.960	0.670
2020/01/31 00:18:22.2	268.920	0.410	-0.940	0.700
2020/01/31 00:18:22.3	268.920	0.390	-0.920	0.740
2020/01/31 00:18:22.4	268.910	0.360	-0.900	0.770
2020/01/31 00:18:22.5	268.910	0.330	-0.870	0.800
2020/01/31 00:18:22.6	268.910	0.300	-0.850	0.840
2020/01/31 00:18:22.7	268.900	0.270	-0.820	0.860
2020/01/31 00:18:22.8	268.900	0.230	-0.790	0.890
2020/01/31 00:18:22.9	268.900	0.200	-0.750	0.920
2020/01/31 00:18:23.0	268.890	0.170	-0.720	0.940
2020/01/31 00:18:23.1	268.890	0.130	-0.690	0.960
2020/01/31 00:18:23.2	268.890	0.100	-0.660	0.970
2020/01/31 00:18:23.3	268.890	0.060	-0.630	0.990
2020/01/31 00:18:23.4	268.890	0.030	-0.600	1.000
2020/01/31 00:18:23.5	268.890	-0.000	-0.580	1.000
2020/01/31 00:18:23.6	268.900	-0.040	-0.550	1.000
2020/01/31 00:18:23.7	268.900	-0.070	-0.530	1.000
2020/01/31 00:18:23.8	268.900	-0.100	-0.510	0.990
2020/01/31 00:18:23.9	268.920	-0.130	-0.490	0.990
2020/01/31 00:18:24.0	268.920	-0.150	-0.470	0.970
2020/01/31 00:18:24.1	268.930	-0.180	-0.460	0.960
2020/01/31 00:18:24.2	268.930	-0.200	-0.450	0.930
2020/01/31 00:18:24.3	268.940	-0.230	-0.440	0.910
2020/01/31 00:18:24.4	268.940	-0.250	-0.440	0.890
2020/01/31 00:18:24.5	268.950	-0.260	-0.430	0.860
2020/01/31 00:18:24.6	268.960	-0.280	-0.440	0.830
2020/01/31 00:18:24.7	268.960	-0.290	-0.440	0.800
2020/01/31 00:18:24.8	268.970	-0.300	-0.450	0.770
2020/01/31 00:18:24.9	268.970	-0.310	-0.450	0.730
2020/01/31 00:18:25.0	268.980	-0.320	-0.470	0.700
2020/01/31 00:18:25.1	268.980	-0.320	-0.480	0.670
2020/01/31 00:18:25.2	268.990	-0.330	-0.500	0.640
2020/01/31 00:18:25.3	268.990	-0.320	-0.510	0.610
2020/01/31 00:18:25.4	269.000	-0.320	-0.530	0.580
2020/01/31 00:18:25.5	269.000	-0.320	-0.550	0.560
2020/01/31 00:18:25.6	269.000	-0.310	-0.570	0.540
2020/01/31 00:18:25.7	269.010	-0.300	-0.590	0.510
2020/01/31 00:18:25.8	269.010	-0.290	-0.610	0.500
2020/01/31 00:18:25.9	269.010	-0.280	-0.630	0.480
2020/01/31 00:18:26.0	269.020	-0.270	-0.650	0.460
2020/01/31 00:18:26.1	269.020	-0.250	-0.660	0.450
2020/01/31 00:18:26.2	269.020	-0.240	-0.680	0.440
2020/01/31 00:18:26.3	269.020	-0.230	-0.690	0.430
2020/01/31 00:18:26.4	269.020	-0.210	-0.700	0.430
2020/01/31 00:18:26.5	269.020	-0.200	-0.710	0.430
2020/01/31 00:18:26.6	269.020	-0.180	-0.710	0.430
2020/01/31 00:18:26.7	269.020	-0.160	-0.720	0.430
2020/01/31 00:18:26.8	269.020	-0.150	-0.720	0.430
2020/01/31 00:18:26.9	269.010	-0.140	-0.710	0.430
2020/01/31 00:18:27.0	269.010	-0.120	-0.710	0.440
2020/01/31 00:18:27.1	269.010	-0.110	-0.700	0.450
2020/01/31 00:18:27.2	269.010	-0.100	-0.690	0.460
2020/01/31 00:18:27.3	269.010	-0.090	-0.680	0.470
2020/01/31 00:18:27.4	269.010	-0.080	-0.660	0.490
2020/01/31 00:18:27.5	269.010	-0.070	-0.640	0.500
2020/01/31 00:18:27.6	269.010	-0.060	-0.620	0.510
2020/01/31 00:18:27.7	269.000	-0.060	-0.600	0.520
2020/01/31 00:18:27.8	269.000	-0.060	-0.580	0.540
2020/01/31 00:18:27.9	269.000	-0.050	-0.550	0.550
2020/01/31 00:18:28.0	269.000	-0.050	-0.520	0.560
2020/01/31 00:18:28.1	268.990	-0.050	-0.490	0.570
2020/01/31 00:18:28.2	268.990	-0.050	-0.460	0.580
2020/01/31 00:18:28.3	268.980	-0.060	-0.430	0.590
2020/01/31 00:18:28.4	268.980	-0.060	-0.400	0.590
2020/01/31 00:18:28.5	268.970	-0.070	-0.360	0.600
2020/01/31 00:18:28.6	268.970	-0.080	-0.330	0.600
2020/01/31 00:18:28.7	268.960	-0.080	-0.300	0.600
2020/01/31 00:18:28.8	268.960	-0.090	-0.260	0.600
2020/01/31 00:18:28.9	268.940	-0.100	-0.230	0.600
2020/01/31 00:18:29.0	268.930	-0.110	-0.190	0.590
2020/01/31 00:18:29.1	268.930	-0.120	-0.160	0.590
2020/01/31 00:18:29.2	268.920	-0.140	-0.130	0.580
2020/01/31 00:18:29.3	268.910	-0.150	-0.100	0.570
2020/01/31 00:18:29.4	268.900	-0.160	-0.070	0.560
2020/01/31 00:18:29.5	268.900	-0.170	-0.040	0.540
2020/01/31 00:18:29.6	268.890	-0.180	-0.010	0.530
2020/01/31 00:18:29.7	268.880	-0.190	0.010	0.510
2020/01/31 00:18:29.8	268.870	-0.210	0.040	0.500
2020/01/31 00:18:29.9	268.860	-0.220	0.060	0.480
2020/01/31 00:18:30.0	268.850	-0.230	0.080	0.460
2020/01/31 00:18:30.1	268.840	-0.240	0.100	0.440
2020/01/31 00:18:30.2	268.830	-0.240	0.120	0.420
2020/01/31 00:18:30.3	268.820	-0.250	0.130	0.410
2020/01/31 00:18:30.4	268.810	-0.260	0.150	0.390
2020/01/31 00:18:30.5	268.800	-0.260	0.160	0.370
2020/01/31 00:18:30.6	268.790	-0.270	0.170	0.350
2020/01/31 00:18:30.7	268.780	-0.270	0.170	0.330
2020/01/31 00:18:30.8	268.770	-0.270	0.180	0.310
2020/01/31 00:18:30.9	268.740	-0.280	0.180	0.290
2020/01/31 00:18:31.0	268.730	-0.280	0.180	0.270
2020/01/31 00:18:31.1	268.720	-0.280	0.180	0.260
2020/01/31 00:18:31.2	268.710	-0.270	0.180	0.240
2020/01/31 00:18:31.3	268.710	-0.270	0.180	0.230
2020/01/31 00:18:31.4	268.700	-0.270	0.170	0.210
2020/01/31 00:18:31.5	268.690	-0.260	0.170	0.200
2020/01/31 00:18:31.6	268.680	-0.250	0.160	0.190
2020/01/31 00:18:31.7	268.670	-0.250	0.150	0.180
2020/01/31 00:18:31.8	268.660	-0.240	0.150	0.170
2020/01/31 00:18:31.9	268.670	-0.230	0.130	0.170
2020/01/31 00:18:32.0	268.660	-0.220	0.120	0.160
2020/01/31 00:18:32.1	268.650	-0.210	0.110	0.160
2020/01/31 00:18:32.2	268.640	-0.200	0.100	0.150
2020/01/31 00:18:32.3	268.630	-0.190	0.090	0.160
2020/01/31 00:18:32.4	268.620	-0.180	0.070	0.160
2020/01/31 00:18:32.5	268.610	-0.170	0.060	0.160
2020/01/31 00:18:32.6	268.600	-0.160	0.050	0.170
2020/01/31 00:18:32.7	268.590	-0.140	0.030	0.180
2020/01/31 00:18:32.8	268.580	-0.130	0.020	0.190
2020/01/31 00:18:32.9	268.570	-0.120	0.010	0.210
2020/01/31 00:18:33.0	268.560	-0.110	0.000	0.230
2020/01/31 00:18:33.1	268.550	-0.100	-0.010	0.250
2020/01/31 00:18:33.2	268.540	-0.080	-0.020	0.260
2020/01/31 00:18:33.3	268.530	-0.070	-0.030	0.290
2020/01/31 00:18:33.4	268.510	-0.060	-0.030	0.310
2020/01/31 00:18:33.5	268.500	-0.050	-0.040	0.330
2020/01/31 00:18:33.6	268.490	-0.030	-0.040	0.360
2020/01/31 00:18:33.7	268.490	-0.020	-0.050	0.380
2020/01/31 00:18:33.8	268.480	-0.010	-0.050	0.410
2020/01/31 00:18:33.9	268.480	0.000	-0.050	0.440
2020/01/31 00:18:34.0	268.470	0.010	-0.050	0.460
2020/01/31 00:18:34.1	268.460	0.020	-0.050	0.490
2020/01/31 00:18:34.2	268.460	0.040	-0.050	0.520
2020/01/31 00:18:34.3	268.460	0.050	-0.050	0.550
2020/01/31 00:18:34.4	268.450	0.060	-0.050	0.570
2020/01/31 00:18:34.5	268.450	0.070	-0.050	0.600
2020/01/31 00:18:34.6	268.450	0.080	-0.040	0.620
2020/01/31 00:18:34.7	268.450	0.090	-0.040	0.650
2020/01/31 00:18:34.8	268.450	0.100	-0.040	0.670
2020/01/31 00:18:34.9	268.450	0.110	-0.040	0.700
2020/01/31 00:18:35.0	268.450	0.120	-0.040	0.720
2020/01/31 00:18:35.1	268.450	0.130	-0.030	0.740
2020/01/31 00:18:35.2	268.460	0.140	-0.040	0.760
2020/01/31 00:18:35.3	268.460	0.150	-0.040	0.780
2020/01/31 00:18:35.4	268.460	0.160	-0.040	0.800
2020/01/31 00:18:35.5	268.470	0.170	-0.040	0.820
2020/01/31 00:18:35.6	268.470	0.180	-0.050	0.830
2020/01/31 00:18:35.7	268.470	0.180	-0.050	0.850
2020/01/31 00:18:35.8	268.480	0.190	-0.060	0.860
2020/01/31 00:18:35.9	268.480	0.200	-0.070	0.870
2020/01/31 00:18:36.0	268.490	0.210	-0.080	0.880
2020/01/31 00:18:36.1	268.490	0.220	-0.090	0.880
2020/01/31 00:18:36.2	268.500	0.220	-0.110	0.880
2020/01/31 00:18:36.3	268.500	0.230	-0.120	0.890
2020/01/31 00:18:36.4	268.510	0.240	-0.140	0.880
2020/01/31 00:18:36.5	268.520	0.240	-0.150	0.880
2020/01/31 00:18:36.6	268.530	0.250	-0.170	0.870
2020/01/31 00:18:36.7	268.540	0.250	-0.190	0.860
2020/01/31 00:18:36.8	268.550	0.260	-0.210	0.850
2020/01/31 00:18:36.9	268.560	0.260	-0.230	0.830
2020/01/31 00:18:37.0	268.580	0.270	-0.250	0.810
2020/01/31 00:18:37.1	268.590	0.270	-0.280	0.790
2020/01/31 00:18:37.2	268.610	0.280	-0.300	0.770
2020/01/31 00:18:37.3	268.620	0.280	-0.320	0.740
2020/01/31 00:18:37.4	268.640	0.280	-0.350	0.720
2020/01/31 00:18:37.5	268.660	0.290	-0.370	0.690
2020/01/31 00:18:37.6	268.680	0.290	-0.400	0.660
2020/01/31 00:18:37.7	268.700	0.290	-0.430	0.630
2020/01/31 00:18:37.8	268.720	0.300	-0.450	0.600
2020/01/31 00:18:37.9	268.730	0.300	-0.480	0.580
2020/01/31 00:18:38.0	268.750	0.300	-0.510	0.550
2020/01/31 00:18:38.1	268.770	0.300	-0.540	0.520
2020/01/31 00:18:38.2	268.790	0.300	-0.570	0.500
2020/01/31 00:18:38.3	268.810	0.300	-0.590	0.470
2020/01/31 00:18:38.4	268.840	0.310	-0.620	0.440
2020/01/31 00:18:38.5	268.860	0.310	-0.650	0.420
2020/01/31 00:18:38.6	268.880	0.310	-0.670	0.400
2020/01/31 00:18:38.7	268.910	0.310	-0.700	0.380
2020/01/31 00:18:38.8	268.930	0.310	-0.720	0.350
2020/01/31 00:18:38.9	268.940	0.310	-0.740	0.340
2020/01/31 00:18:39.0	268.970	0.310	-0.760	0.320
2020/01/31 00:18:39.1	268.990	0.300	-0.780	0.300
2020/01/31 00:18:39.2	269.010	0.300	-0.790	0.290
2020/01/31 00:18:39.3	269.030	0.300	-0.810	0.270
2020/01/31 00:18:39.4	269.050	0.290	-0.830	0.260
2020/01/31 00:18:39.5	269.080	0.290	-0.840	0.250
2020/01/31 00:18:39.6	269.100	0.280	-0.850	0.250
2020/01/31 00:18:39.7	269.120	0.280	-0.860	0.240
2020/01/31 00:18:39.8	269.140	0.270	-0.870	0.230
2020/01/31 00:18:39.9	269.160	0.260	-0.870	0.230
2020/01/31 00:18:40.0	269.180	0.250	-0.880	0.230
2020/01/31 00:18:40.1	269.200	0.240	-0.880	0.230
2020/01/31 00:18:40.2	269.220	0.230	-0.880	0.230
2020/01/31 00:18:40.3	269.240	0.220	-0.880	0.230
2020/01/31 00:18:40.4	269.250	0.210	-0.880	0.240
2020/01/31 00:18:40.5	269.270	0.200	-0.870	0.250
2020/01/31 00:18:40.6	269.280	0.180	-0.870	0.250
2020/01/31 00:18:40.7	269.290	0.170	-0.860	0.260
2020/01/31 00:18:40.8	269.300	0.150	-0.850	0.270
2020/01/31 00:18:40.9	269.330	0.140	-0.840	0.280
2020/01/31 00:18:41.0	269.340	0.120	-0.830	0.300
2020/01/31 00:18:41.1	269.350	0.110	-0.820	0.310
2020/01/31 00:18:41.2	269.360	0.090	-0.800	0.320
2020/01/31 00:18:41.3	269.360	0.070	-0.790	0.340
2020/01/31 00:18:41.4	269.370	0.050	-0.780	0.360
2020/01/31 00:18:41.5	269.370	0.030	-0.770	0.370
2020/01/31 00:18:41.6	269.370	0.020	-0.750	0.390
2020/01/31 00:18:41.7	269.370	-0.000	-0.740	0.410
2020/01/31 00:18:41.8	269.370	-0.020	-0.720	0.430
2020/01/31 00:18:41.9	269.370	-0.040	-0.710	0.450
2020/01/31 00:18:42.0	269.360	-0.050	-0.700	0.470
2020/01/31 00:18:42.1	269.360	-0.070	-0.690	0.490
2020/01/31 00:18:42.2	269.350	-0.090	-0.670	0.510
2020/01/31 00:18:42.3	269.350	-0.110	-0.660	0.530
2020/01/31 00:18:42.4	269.340	-0.120	-0.650	0.550
2020/01/31 00:18:42.5	269.330	-0.140	-0.640	0.580
2020/01/31 00:18:42.6	269.320	-0.150	-0.630	0.600
2020/01/31 00:18:42.7	269.310	-0.160	-0.620	0.620
2020/01/31 00:18:42.8	269.300	-0.180	-0.610	0.640
2020/01/31 00:18:42.9	269.280	-0.190	-0.610	0.650
2020/01/31 00:18:43.0	269.270	-0.200	-0.600	0.680
2020/01/31 00:18:43.1	269.250	-0.210	-0.590	0.700
2020/01/31 00:18:43.2	269.240	-0.220	-0.590	0.720
2020/01/31 00:18:43.3	269.220	-0.230	-0.580	0.740
2020/01/31 00:18:43.4	269.210	-0.230	-0.570	0.760
2020/01/31 00:18:43.5	269.190	-0.240	-0.570	0.780
2020/01/31 00:18:43.6	269.170	-0.240	-0.560	0.800
2020/01/31 00:18:43.7	269.150	-0.250	-0.550	0.820
2020/01/31 00:18:43.8	269.130	-0.250	-0.550	0.840
2020/01/31 00:18:43.9	269.110	-0.250	-0.540	0.860
2020/01/31 00:18:44.0	269.080	-0.250	-0.530	0.890
2020/01/31 00:18:44.1	269.060	-0.260	-0.520	0.910
2020/01/31 00:18:44.2	269.040	-0.260	-0.510	0.930
2020/01/31 00:18:44.3	269.020	-0.260	-0.490	0.950
2020/01/31 00:18:44.4	268.990	-0.260	-0.480	0.970
2020/01/31 00:18:44.5	268.970	-0.260	-0.460	0.990
2020/01/31 00:18:44.6	268.950	-0.260	-0.440	1.010
2020/01/31 00:18:44.7	268.920	-0.260	-0.420	1.030
2020/01/31 00:18:44.8	268.900	-0.260	-0.400	1.050
2020/01/31 00:18:44.9	268.870	-0.260	-0.370	1.060
2020/01/31 00:18:45.0	268.850	-0.260	-0.340	1.080
2020/01/31 00:18:45.1	268.820	-0.260	-0.300	1.100
2020/01/31 00:18:45.2	268.800	-0.260	-0.270	1.110
2020/01/31 00:18:45.3	268.770	-0.260	-0.230	1.130
2020/01/31 00:18:45.4	268.740	-0.260	-0.190	1.140
2020/01/31 00:18:45.5	268.710	-0.260	-0.140	1.150
2020/01/31 00:18:45.6	268.690	-0.270	-0.100	1.160
2020/01/31 00:18:45.7	268.660	-0.270	-0.050	1.170
2020/01/31 00:18:45.8	268.630	-0.270	-0.000	1.180
2020/01/31 00:18:45.9	268.590	-0.280	0.050	1.190
2020/01/31 00:18:46.0	268.560	-0.280	0.100	1.190
2020/01/31 00:18:46.1	268.530	-0.290	0.150	1.190
2020/01/31 00:18:46.2	268.500	-0.290	0.210	1.190
2020/01/31 00:18:46.3	268.470	-0.290	0.260	1.180
2020/01/31 00:18:46.4	268.440	-0.300	0.310	1.180
2020/01/31 00:18:46.5	268.410	-0.300	0.360	1.170
2020/01/31 00:18:46.6	268.380	-0.310	0.410	1.160
2020/01/31 00:18:46.7	268.350	-0.310	0.460	1.140
2020/01/31 00:18:46.8	268.330	-0.310	0.500	1.130
2020/01/31 00:18:46.9	268.310	-0.320	0.540	1.110
2020/01/31 00:18:47.0	268.280	-0.320	0.580	1.090
2020/01/31 00:18:47.1	268.260	-0.320	0.620	1.070
2020/01/31 00:18:47.2	268.240	-0.320	0.650	1.040
2020/01/31 00:18:47.3	268.220	-0.320	0.680	1.020
2020/01/31 00:18:47.4	268.200	-0.320	0.700	0.990
2020/01/31 00:18:47.5	268.190	-0.310	0.730	0.960
2020/01/31 00:18:47.6	268.180	-0.310	0.740	0.930
2020/01/31 00:18:47.7	268.160	-0.300	0.760	0.900
2020/01/31 00:18:47.8	268.160	-0.290	0.760	0.860
2020/01/31 00:18:47.9	268.160	-0.280	0.770	0.830
2020/01/31 00:18:48.0	268.160	-0.270	0.770	0.800
2020/01/31 00:18:48.1	268.160	-0.260	0.770	0.760
2020/01/31 00:18:48.2	268.160	-0.250	0.760	0.720
2020/01/31 00:18:48.3	268.160	-0.230	0.750	0.690
2020/01/31 00:18:48.4	268.170	-0.210	0.730	0.650
2020/01/31 00:18:48.5	268.180	-0.200	0.720	0.610
2020/01/31 00:18:48.6	268.190	-0.180	0.700	0.570
2020/01/31 00:18:48.7	268.200	-0.160	0.670	0.530
2020/01/31 00:18:48.8	268.220	-0.140	0.650	0.490
2020/01/31 00:18:48.9	268.240	-0.120	0.610	0.450
2020/01/31 00:18:49.0	268.260	-0.090	0.580	0.400
2020/01/31 00:18:49.1	268.280	-0.070	0.550	0.360
2020/01/31 00:18:49.2	268.300	-0.050	0.510	0.320
2020/01/31 00:18:49.3	268.330	-0.020	0.470	0.280
2020/01/31 00:18:49.4	268.360	0.000	0.430	0.240
2020/01/31 00:18:49.5	268.390	0.030	0.390	0.200
2020/01/31 00:18:49.6	268.420	0.050	0.340	0.170
2020/01/31 00:18:49.7	268.450	0.080	0.290	0.130
2020/01/31 00:18:49.8	268.480	0.110	0.240	0.090
2020/01/31 00:18:49.9	268.530	0.130	0.200	0.060
2020/01/31 00:18:50.0	268.560	0.160	0.140	0.030
2020/01/31 00:18:50.1	268.600	0.180	0.090	-0.000
2020/01/31 00:18:50.2	268.640	0.210	0.040	-0.030
2020/01/31 00:18:50.3	268.680	0.230	-0.020	-0.060
2020/01/31 00:18:50.4	268.720	0.260	-0.070	-0.080
2020/01/31 00:18:50.5	268.760	0.280	-0.130	-0.100
2020/01/31 00:18:50.6	268.800	0.300	-0.190	-0.120
2020/01/31 00:18:50.7	268.840	0.330	-0.250	-0.140
2020/01/31 00:18:50.8	268.880	0.350	-0.300	-0.150
2020/01/31 00:18:50.9	268.910	0.370	-0.360	-0.150
2020/01/31 00:18:51.0	268.960	0.390	-0.420	-0.160
2020/01/31 00:18:51.1	269.000	0.410	-0.480	-0.160
2020/01/31 00:18:51.2	269.040	0.420	-0.540	-0.160
2020/01/31 00:18:51.3	269.080	0.440	-0.590	-0.160
2020/01/31 00:18:51.4	269.120	0.460	-0.650	-0.150
2020/01/31 00:18:51.5	269.150	0.470	-0.700	-0.140
2020/01/31 00:18:51.6	269.190	0.480	-0.750	-0.120
2020/01/31 00:18:51.7	269.230	0.490	-0.800	-0.100
2020/01/31 00:18:51.8	269.260	0.500	-0.850	-0.080
2020/01/31 00:18:51.9	269.290	0.510	-0.890	-0.060
2020/01/31 00:18:52.0	269.330	0.520	-0.940	-0.030
2020/01/31 00:18:52.1	269.360	0.520	-0.980	-0.000
2020/01/31 00:18:52.2	269.390	0.530	-1.010	0.030
2020/01/31 00:18:52.3	269.420	0.530	-1.050	0.060
2020/01/31 00:18:52.4	269.450	0.530	-1.080	0.100
2020/01/31 00:18:52.5	269.480	0.530	-1.100	0.130
2020/01/31 00:18:52.6	269.510	0.530	-1.130	0.170
2020/01/31 00:18:52.7	269.540	0.520	-1.150	0.210
2020/01/31 00:18:52.8	269.560	0.520	-1.160	0.240
2020/01/31 00:18:52.9	269.590	0.510	-1.170	0.290
2020/01/31 00:18:53.0	269.620	0.500	-1.180	0.320
2020/01/31 00:18:53.1	269.640	0.490	-1.190	0.360
2020/01/31 00:18:53.2	269.660	0.480	-1.190	0.400
2020/01/31 00:18:53.3	269.680	0.470	-1.190	0.440
2020/01/31 00:18:53.4	269.690	0.460	-1.190	0.480
2020/01/31 00:18:53.5	269.710	0.440	-1.180	0.520
2020/01/31 00:18:53.6	269.720	0.420	-1.170	0.560
2020/01/31 00:18:53.7	269.730	0.400	-1.160	0.600
2020/01/31 00:18:53.8	269.730	0.380	-1.150	0.640
2020/01/31 00:18:53.9	269.740	0.360	-1.130	0.680
2020/01/31 00:18:54.0	269.740	0.340	-1.110	0.720
2020/01/31 00:18:54.1	269.740	0.320	-1.100	0.760
2020/01/31 00:18:54.2	269.730	0.290	-1.080	0.800
2020/01/31 00:18:54.3	269.730	0.270	-1.060	0.840
2020/01/31 00:18:54.4	269.720	0.240	-1.040	0.880
2020/01/31 00:18:54.5	269.710	0.210	-1.020	0.910
2020/01/31 00:18:54.6	269.700	0.180	-1.000	0.950
2020/01/31 00:18:54.7	269.680	0.160	-0.980	0.990
2020/01/31 00:18:54.8	269.660	0.130	-0.960	1.020
2020/01/31 00:18:54.9	269.640	0.100	-0.940	1.050
2020/01/31 00:18:55.0	269.620	0.070	-0.920	1.080
2020/01/31 00:18:55.1	269.590	0.040	-0.900	1.110
2020/01/31 00:18:55.2	269.560	0.010	-0.880	1.140
2020/01/31 00:18:55.3	269.540	-0.020	-0.860	1.160
2020/01/31 00:18:55.4	269.510	-0.050	-0.840	1.180
2020/01/31 00:18:55.5	269.470	-0.080	-0.820	1.200
2020/01/31 00:18:55.6	269.440	-0.110	-0.800	1.210
2020/01/31 00:18:55.7	269.410	-0.140	-0.770	1.230
2020/01/31 00:18:55.8	269.370	-0.170	-0.750	1.240
2020/01/31 00:18:55.9	269.330	-0.190	-0.730	1.240
2020/01/31 00:18:56.0	269.300	-0.220	-0.710	1.240
2020/01/31 00:18:56.1	269.260	-0.240	-0.690	1.240
2020/01/31 00:18:56.2	269.220	-0.270	-0.670	1.240
2020/01/31 00:18:56.3	269.190	-0.290	-0.640	1.240
2020/01/31 00:18:56.4	269.150	-0.310	-0.620	1.230
2020/01/31 00:18:56.5	269.110	-0.330	-0.600	1.220
2020/01/31 00:18:56.6	269.080	-0.350	-0.580	1.210
2020/01/31 00:18:56.7	269.040	-0.360	-0.550	1.190
2020/01/31 00:18:56.8	269.000	-0.380	-0.530	1.180
2020/01/31 00:18:56.9	268.950	-0.390	-0.510	1.160
2020/01/31 00:18:57.0	268.910	-0.400	-0.490	1.140
2020/01/31 00:18:57.1	268.880	-0.410	-0.470	1.120
2020/01/31 00:18:57.2	268.840	-0.420	-0.440	1.100
2020/01/31 00:18:57.3	268.800	-0.420	-0.420	1.090
2020/01/31 00:18:57.4	268.770	-0.430	-0.400	1.070
2020/01/31 00:18:57.5	268.740	-0.430	-0.380	1.050
2020/01/31 00:18:57.6	268.700	-0.430	-0.360	1.030
2020/01/31 00:18:57.7	268.670	-0.430	-0.340	1.010
2020/01/31 00:18:57.8	268.640	-0.430	-0.320	0.990
2020/01/31 00:18:57.9	268.600	-0.420	-0.300	0.970
2020/01/31 00:18:58.0	268.570	-0.420	-0.270	0.950
2020/01/31 00:18:58.1	268.540	-0.410	-0.250	0.930
2020/01/31 00:18:58.2	268.520	-0.400	-0.230	0.910
2020/01/31 00:18:58.3	268.490	-0.390	-0.210	0.890
2020/01/31 00:18:58.4	268.460	-0.380	-0.190	0.870
2020/01/31 00:18:58.5	268.430	-0.370	-0.170	0.850
2020/01/31 00:18:58.6	268.410	-0.360	-0.150	0.830
2020/01/31 00:18:58.7	268.380	-0.350	-0.120	0.810
2020/01/31 00:18:58.8	268.360	-0.330	-0.100	0.790
2020/01/31 00:18:58.9	268.330	-0.320	-0.080	0.770
2020/01/31 00:18:59.0	268.300	-0.300	-0.050	0.760
2020/01/31 00:18:59.1	268.280	-0.280	-0.030	0.740
2020/01/31 00:18:59.2	268.260	-0.270	-0.000	0.730
2020/01/31 00:18:59.3	268.250	-0.250	0.020	0.720
2020/01/31 00:18:59.4	268.230	-0.230	0.050	0.710
2020/01/31 00:18:59.5	268.210	-0.220	0.070	0.700
2020/01/31 00:18:59.6	268.200	-0.200	0.100	0.690
2020/01/31 00:18:59.7	268.190	-0.180	0.130	0.680
2020/01/31 00:18:59.8	268.170	-0.160	0.150	0.680
2020/01/31 00:18:59.9	268.180	-0.150	0.180	0.670
2020/01/31 00:19:00.0	268.170	-0.130	0.210	0.670
2020/01/31 00:19:00.1	268.160	-0.110	0.240	0.670
2020/01/31 00:19:00.2	268.160	-0.100	0.270	0.670
2020/01/31 00:19:00.3	268.150	-0.090	0.290	0.670
2020/01/31 00:19:00.4	268.150	-0.070	0.320	0.670
2020/01/31 00:19:00.5	268.140	-0.060	0.350	0.670
2020/01/31 00:19:00.6	268.140	-0.050	0.380	0.670
2020/01/31 00:19:00.7	268.140	-0.030	0.400	0.680
2020/01/31 00:19:00.8	268.150	-0.020	0.430	0.680
2020/01/31 00:19:00.9	268.150	-0.010	0.460	0.690
2020/01/31 00:19:01.0	268.160	-0.010	0.480	0.700
2020/01/31 00:19:01.1	268.160	0.000	0.500	0.710
2020/01/31 00:19:01.2	268.170	0.010	0.520	0.720
2020/01/31 00:19:01.3	268.180	0.010	0.540	0.730
2020/01/31 00:19:01.4	268.190	0.020	0.560	0.740
2020/01/31 00:19:01.5	268.200	0.020	0.570	0.750
2020/01/31 00:19:01.6	268.210	0.030	0.590	0.760
2020/01/31 00:19:01.7	268.220	0.030	0.600	0.770
2020/01/31 00:19:01.8	268.230	0.030	0.600	0.790
2020/01/31 00:19:01.9	268.250	0.030	0.600	0.800
2020/01/31 00:19:02.0	268.260	0.030	0.600	0.810
2020/01/31 00:19:02.1	268.280	0.030	0.600	0.830
2020/01/31 00:19:02.2	268.290	0.030	0.590	0.840
2020/01/31 00:19:02.3	268.310	0.030	0.580	0.860
2020/01/31 00:19:02.4	268.330	0.030	0.570	0.870
2020/01/31 00:19:02.5	268.350	0.030	0.550	0.890
2020/01/31 00:19:02.6	268.370	0.030	0.530	0.900
2020/01/31 00:19:02.7	268.390	0.040	0.510	0.920
2020/01/31 00:19:02.8	268.410	0.040	0.480	0.930
2020/01/31 00:19:02.9	268.440	0.040	0.440	0.950
2020/01/31 00:19:03.0	268.460	0.040	0.410	0.960
2020/01/31 00:19:03.1	268.480	0.040	0.360	0.970
2020/01/31 00:19:03.2	268.510	0.050	0.320	0.980
2020/01/31 00:19:03.3	268.530	0.050	0.270	1.000
2020/01/31 00:19:03.4	268.560	0.060	0.220	1.000
2020/01/31 00:19:03.5	268.590	0.060	0.170	1.010
2020/01/31 00:19:03.6	268.610	0.070	0.110	1.020
2020/01/31 00:19:03.7	268.640	0.080	0.050	1.030
2020/01/31 00:19:03.8	268.670	0.080	-0.010	1.040
2020/01/31 00:19:03.9	268.710	0.090	-0.080	1.040
2020/01/31 00:19:04.0	268.740	0.100	-0.140	1.050
2020/01/31 00:19:04.1	268.770	0.120	-0.210	1.050
2020/01/31 00:19:04.2	268.800	0.130	-0.270	1.050
2020/01/31 00:19:04.3	268.840	0.140	-0.340	1.060
2020/01/31 00:19:04.4	268.870	0.150	-0.410	1.060
2020/01/31 00:19:04.5	268.900	0.170	-0.470	1.060
2020/01/31 00:19:04.6	268.930	0.180	-0.530	1.060
2020/01/31 00:19:04.7	268.970	0.200	-0.590	1.070
2020/01/31 00:19:04.8	269.000	0.210	-0.650	1.070
2020/01/31 00:19:04.9	269.020	0.230	-0.720	1.070
2020/01/31 00:19:05.0	269.050	0.240	-0.770	1.070
2020/01/31 00:19:05.1	269.080	0.260	-0.830	1.080
2020/01/31 00:19:05.2	269.110	0.270	-0.870	1.080
2020/01/31 00:19:05.3	269.140	0.290	-0.920	1.090
2020/01/31 00:19:05.4	269.160	0.300	-0.960	1.090
2020/01/31 00:19:05.5	269.190	0.320	-1.000	1.100
2020/01/31 00:19:05.6	269.210	0.330	-1.030	1.100
2020/01/31 00:19:05.7	269.230	0.340	-1.060	1.110
2020/01/31 00:19:05.8	269.250	0.350	-1.080	1.120
2020/01/31 00:19:05.9	269.260	0.360	-1.090	1.130
2020/01/31 00:19:06.0	269.270	0.370	-1.110	1.130
2020/01/31 00:19:06.1	269.290	0.380	-1.120	1.140
2020/01/31 00:19:06.2	269.290	0.380	-1.130	1.150
2020/01/31 00:19:06.3	269.300	0.390	-1.130	1.160
2020/01/31 00:19:06.4	269.310	0.390	-1.130	1.170
2020/01/31 00:19:06.5	269.310	0.390	-1.130	1.170
2020/01/31 00:19:06.6	269.310	0.390	-1.120	1.180
2020/01/31 00:19:06.7	269.310	0.390	-1.110	1.180
2020/01/31 00:19:06.8	269.300	0.380	-1.090	1.190
2020/01/31 00:19:06.9	269.300	0.370	-1.070	1.190
2020/01/31 00:19:07.0	269.290	0.370	-1.050	1.190
2020/01/31 00:19:07.1	269.280	0.360	-1.030	1.190
2020/01/31 00:19:07.2	269.270	0.340	-1.000	1.190
2020/01/31 00:19:07.3	269.260	0.330	-0.970	1.190
2020/01/31 00:19:07.4	269.250	0.310	-0.950	1.190
2020/01/31 00:19:07.5	269.230	0.300	-0.910	1.180
2020/01/31 00:19:07.6	269.220	0.280	-0.880	1.180
2020/01/31 00:19:07.7	269.200	0.260	-0.850	1.170
2020/01/31 00:19:07.8	269.180	0.240	-0.820	1.160
2020/01/31 00:19:07.9	269.160	0.210	-0.780	1.160
2020/01/31 00:19:08.0	269.140	0.190	-0.750	1.140
2020/01/31 00:19:08.1	269.120	0.170	-0.710	1.130
2020/01/31 00:19:08.2	269.100	0.140	-0.680	1.110
2020/01/31 00:19:08.3	269.080	0.120	-0.640	1.100
2020/01/31 00:19:08.4	269.060	0.090	-0.610	1.080
2020/01/31 00:19:08.5	269.040	0.060	-0.580	1.060
2020/01/31 00:19:08.6	269.020	0.040	-0.550	1.030
2020/01/31 00:19:08.7	269.000	0.010	-0.520	1.010
2020/01/31 00:19:08.8	268.980	-0.010	-0.490	0.980
2020/01/31 00:19:08.9	268.980	-0.040	-0.460	0.950
2020/01/31 00:19:09.0	268.960	-0.060	-0.430	0.920
2020/01/31 00:19:09.1	268.940	-0.090	-0.410	0.890
2020/01/31 00:19:09.2	268.930	-0.110	-0.390	0.860
2020/01/31 00:19:09.3	268.920	-0.130	-0.370	0.830
2020/01/31 00:19:09.4	268.900	-0.150	-0.350	0.790
2020/01/31 00:19:09.5	268.890	-0.170	-0.330	0.760
2020/01/31 00:19:09.6	268.880	-0.190	-0.310	0.730
2020/01/31 00:19:09.7	268.870	-0.210	-0.300	0.700
2020/01/31 00:19:09.8	268.860	-0.230	-0.290	0.660
2020/01/31 00:19:09.9	268.840	-0.240	-0.270	0.630
2020/01/31 00:19:10.0	268.830	-0.250	-0.260	0.600
2020/01/31 00:19:10.1	268.820	-0.260	-0.250	0.570
2020/01/31 00:19:10.2	268.810	-0.270	-0.240	0.540
2020/01/31 00:19:10.3	268.810	-0.280	-0.230	0.520
2020/01/31 00:19:10.4	268.800	-0.280	-0.230	0.490
2020/01/31 00:19:10.5	268.790	-0.290	-0.220	0.460
2020/01/31 00:19:10.6	268.780	-0.290	-0.210	0.440
2020/01/31 00:19:10.7	268.780	-0.290	-0.210	0.410
2020/01/31 00:19:10.8	268.770	-0.290	-0.200	0.390
2020/01/31 00:19:10.9	268.760	-0.290	-0.190	0.370
2020/01/31 00:19:11.0	268.760	-0.280	-0.190	0.350
2020/01/31 00:19:11.1	268.750	-0.280	-0.180	0.330
2020/01/31 00:19:11.2	268.750	-0.270	-0.170	0.310
2020/01/31 00:19:11.3	268.750	-0.270	-0.160	0.290
2020/01/31 00:19:11.4	268.750	-0.260	-0.160	0.280
2020/01/31 00:19:11.5	268.750	-0.250	-0.150	0.260
2020/01/31 00:19:11.6	268.750	-0.240	-0.140	0.250
2020/01/31 00:19:11.7	268.750	-0.230	-0.130	0.240
2020/01/31 00:19:11.8	268.750	-0.220	-0.120	0.230
2020/01/31 00:19:11.9	268.750	-0.210	-0.110	0.220
2020/01/31 00:19:12.0	268.760	-0.200	-0.090	0.210
2020/01/31 00:19:12.1	268.760	-0.190	-0.080	0.200
2020/01/31 00:19:12.2	268.760	-0.170	-0.070	0.200
2020/01/31 00:19:12.3	268.770	-0.160	-0.060	0.190
2020/01/31 00:19:12.4	268.770	-0.150	-0.040	0.190
2020/01/31 00:19:12.5	268.780	-0.140	-0.030	0.190
2020/01/31 00:19:12.6	268.790	-0.130	-0.020	0.190
2020/01/31 00:19:12.7	268.790	-0.110	-0.000	0.200
2020/01/31 00:19:12.8	268.800	-0.100	0.010	0.200
2020/01/31 00:19:12.9	268.800	-0.090	0.030	0.220
2020/01/31 00:19:13.0	268.810	-0.080	0.040	0.230
2020/01/31 00:19:13.1	268.810	-0.070	0.050	0.240
2020/01/31 00:19:13.2	268.820	-0.060	0.060	0.250
2020/01/31 00:19:13.3	268.830	-0.050	0.070	0.270
2020/01/31 00:19:13.4	268.830	-0.040	0.080	0.290
2020/01/31 00:19:13.5	268.840	-0.040	0.090	0.310
2020/01/31 00:19:13.6	268.840	-0.030	0.090	0.330
2020/01/31 00:19:13.7	268.850	-0.020	0.100	0.360
2020/01/31 00:19:13.8	268.850	-0.010	0.100	0.390
2020/01/31 00:19:13.9	268.840	-0.010	0.100	0.410
2020/01/31 00:19:14.0	268.840	-0.000	0.090	0.440
2020/01/31 00:19:14.1	268.840	0.000	0.090	0.480
2020/01/31 00:19:14.2	268.840	0.010	0.080	0.510
2020/01/31 00:19:14.3	268.840	0.010	0.070	0.540
2020/01/31 00:19:14.4	268.840	0.020	0.060	0.580
2020/01/31 00:19:14.5	268.830	0.020	0.050	0.610
2020/01/31 00:19:14.6	268.830	0.020	0.030	0.640
2020/01/31 00:19:14.7	268.820	0.020	0.010	0.680
2020/01/31 00:19:14.8	268.810	0.030	-0.000	0.710
2020/01/31 00:19:14.9	268.800	0.030	-0.020	0.740
2020/01/31 00:19:15.0	268.790	0.030	-0.050	0.780
2020/01/31 00:19:15.1	268.780	0.030	-0.070	0.810
2020/01/31 00:19:15.2	268.760	0.030	-0.100	0.840
2020/01/31 00:19:15.3	268.750	0.040	-0.130	0.870
2020/01/31 00:19:15.4	268.730	0.040	-0.160	0.890
2020/01/31 00:19:15.5	268.710	0.040	-0.190	0.920
2020/01/31 00:19:15.6	268.700	0.040	-0.220	0.950
2020/01/31 00:19:15.7	268.680	0.040	-0.250	0.970
2020/01/31 00:19:15.8	268.660	0.050	-0.280	1.000
2020/01/31 00:19:15.9	268.640	0.050	-0.320	1.020
2020/01/31 00:19:16.0	268.620	0.050	-0.350	1.040
2020/01/31 00:19:16.1	268.600	0.060	-0.390	1.060
2020/01/31 00:19:16.2	268.580	0.060	-0.420	1.070
2020/01/31 00:19:16.3	268.560	0.070	-0.450	1.080
2020/01/31 00:19:16.4	268.540	0.070	-0.480	1.100
2020/01/31 00:19:16.5	268.520	0.080	-0.510	1.100
2020/01/31 00:19:16.6	268.500	0.080	-0.540	1.110
2020/01/31 00:19:16.7	268.490	0.090	-0.570	1.110
2020/01/31 00:19:16.8	268.470	0.100	-0.590	1.120
2020/01/31 00:19:16.9	268.460	0.100	-0.620	1.120
2020/01/31 00:19:17.0	268.450	0.110	-0.640	1.110
2020/01/31 00:19:17.1	268.440	0.120	-0.660	1.110
2020/01/31 00:19:17.2	268.430	0.130	-0.680	1.100
2020/01/31 00:19:17.3	268.420	0.130	-0.690	1.090
2020/01/31 00:19:17.4	268.420	0.140	-0.700	1.080
2020/01/31 00:19:17.5	268.410	0.150	-0.710	1.070
2020/01/31 00:19:17.6	268.410	0.160	-0.720	1.060
2020/01/31 00:19:17.7	268.400	0.160	-0.720	1.040
2020/01/31 00:19:17.8	268.400	0.170	-0.720	1.030
2020/01/31 00:19:17.9	268.400	0.170	-0.720	1.020
2020/01/31 00:19:18.0	268.400	0.180	-0.710	1.010
2020/01/31 00:19:18.1	268.400	0.180	-0.710	0.990
2020/01/31 00:19:18.2	268.410	0.180	-0.690	0.980
2020/01/31 00:19:18.3	268.410	0.180	-0.680	0.960
2020/01/31 00:19:18.4	268.410	0.190	-0.660	0.950
2020/01/31 00:19:18.5	268.420	0.180	-0.640	0.940
2020/01/31 00:19:18.6	268.420	0.180	-0.620	0.920
2020/01/31 00:19:18.7	268.430	0.180	-0.590	0.910
2020/01/31 00:19:18.8	268.430	0.180	-0.560	0.900
2020/01/31 00:19:18.9	268.460	0.170	-0.530	0.880
2020/01/31 00:19:19.0	268.470	0.160	-0.500	0.870
2020/01/31 00:19:19.1	268.470	0.160	-0.470	0.860
2020/01/31 00:19:19.2	268.480	0.150	-0.430	0.840
2020/01/31 00:19:19.3	268.490	0.130	-0.390	0.830
2020/01/31 00:19:19.4	268.500	0.120	-0.360	0.820
2020/01/31 00:19:19.5	268.510	0.110	-0.320	0.810
2020/01/31 00:19:19.6	268.520	0.090	-0.280	0.790
2020/01/31 00:19:19.7	268.530	0.080	-0.240	0.780
2020/01/31 00:19:19.8	268.540	0.060	-0.200	0.770
2020/01/31 00:19:19.9	268.530	0.040	-0.160	0.760
2020/01/31 00:19:20.0	268.540	0.020	-0.120	0.750
2020/01/31 00:19:20.1	268.550	0.000	-0.080	0.740
2020/01/31 00:19:20.2	268.560	-0.020	-0.040	0.720
2020/01/31 00:19:20.3	268.560	-0.040	-0.000	0.710
2020/01/31 00:19:20.4	268.570	-0.060	0.030	0.690
2020/01/31 00:19:20.5	268.580	-0.080	0.070	0.680
2020/01/31 00:19:20.6	268.580	-0.100	0.100	0.660
2020/01/31 00:19:20.7	268.590	-0.120	0.130	0.650
2020/01/31 00:19:20.8	268.600	-0.140	0.150	0.630
2020/01/31 00:19:20.9	268.620	-0.160	0.180	0.610
2020/01/31 00:19:21.0	268.620	-0.180	0.200	0.590
2020/01/31 00:19:21.1	268.630	-0.200	0.210	0.570
2020/01/31 00:19:21.2	268.640	-0.220	0.230	0.540
2020/01/31 00:19:21.3	268.650	-0.240	0.240	0.520
2020/01/31 00:19:21.4	268.660	-0.260	0.240	0.500
2020/01/31 00:19:21.5	268.670	-0.270	0.250	0.470
2020/01/31 00:19:21.6	268.680	-0.290	0.240	0.450
2020/01/31 00:19:21.7	268.690	-0.300	0.240	0.420
2020/01/31 00:19:21.8	268.700	-0.310	0.230	0.390
2020/01/31 00:19:21.9	268.720	-0.330	0.220	0.370
2020/01/31 00:19:22.0	268.730	-0.330	0.200	0.340
2020/01/31 00:19:22.1	268.750	-0.340	0.180	0.320
2020/01/31 00:19:22.2	268.760	-0.350	0.160	0.290
2020/01/31 00:19:22.3	268.780	-0.350	0.130	0.270
2020/01/31 00:19:22.4	268.790	-0.350	0.110	0.240
2020/01/31 00:19:22.5	268.810	-0.350	0.080	0.220
2020/01/31 00:19:22.6	268.820	-0.350	0.040	0.200
2020/01/31 00:19:22.7	268.840	-0.350	0.010	0.180
2020/01/31 00:19:22.8	268.850	-0.350	-0.030	0.160
2020/01/31 00:19:22.9	268.860	-0.340	-0.060	0.140
2020/01/31 00:19:23.0	268.880	-0.330	-0.100	0.130
2020/01/31 00:19:23.1	268.890	-0.320	-0.130	0.110
2020/01/31 00:19:23.2	268.900	-0.310	-0.170	0.100
2020/01/31 00:19:23.3	268.920	-0.300	-0.210	0.090
2020/01/31 00:19:23.4	268.930	-0.290	-0.250	0.080
2020/01/31 00:19:23.5	268.940	-0.270	-0.290	0.080
2020/01/31 00:19:23.6	268.960	-0.250	-0.330	0.080
2020/01/31 00:19:23.7	268.970	-0.240	-0.360	0.070
2020/01/31 00:19:23.8	268.980	-0.220	-0.400	0.070
2020/01/31 00:19:23.9	268.980	-0.200	-0.440	0.080
2020/01/31 00:19:24.0	268.990	-0.180	-0.470	0.080
2020/01/31 00:19:24.1	269.000	-0.160	-0.510	0.090
2020/01/31 00:19:24.2	269.010	-0.130	-0.540	0.100
2020/01/31 00:19:24.3	269.020	-0.110	-0.570	0.110
2020/01/31 00:19:24.4	269.030	-0.090	-0.600	0.130
2020/01/31 00:19:24.5	269.040	-0.060	-0.630	0.140
2020/01/31 00:19:24.6	269.050	-0.040	-0.650	0.160
2020/01/31 00:19:24.7	269.060	-0.020	-0.680	0.190
2020/01/31 00:19:24.8	269.060	0.010	-0.700	0.210
2020/01/31 00:19:24.9	269.070	0.030	-0.720	0.240
2020/01/31 00:19:25.0	269.080	0.060	-0.740	0.270
2020/01/31 00:19:25.1	269.080	0.080	-0.750	0.300
2020/01/31 00:19:25.2	269.090	0.110	-0.770	0.340
2020/01/31 00:19:25.3	269.090	0.130	-0.780	0.370
2020/01/31 00:19:25.4	269.100	0.150	-0.790	0.410
2020/01/31 00:19:25.5	269.100	0.170	-0.790	0.450
2020/01/31 00:19:25.6	269.110	0.200	-0.800	0.490
2020/01/31 00:19:25.7	269.110	0.220	-0.800	0.530
2020/01/31 00:19:25.8	269.120	0.240	-0.800	0.570
2020/01/31 00:19:25.9	269.120	0.260	-0.800	0.620
2020/01/31 00:19:26.0	269.130	0.280	-0.800	0.660
2020/01/31 00:19:26.1	269.130	0.300	-0.790	0.710
2020/01/31 00:19:26.2	269.140	0.310	-0.790	0.750
2020/01/31 00:19:26.3	269.140	0.330	-0.780	0.790
2020/01/31 00:19:26.4	269.140	0.340	-0.770	0.840
2020/01/31 00:19:26.5	269.140	0.360	-0.760	0.880
2020/01/31 00:19:26.6	269.140	0.370	-0.750	0.930
2020/01/31 00:19:26.7	269.150	0.380	-0.740	0.970
2020/01/31 00:19:26.8	269.140	0.390	-0.730	1.010
2020/01/31 00:19:26.9	269.140	0.400	-0.720	1.050
2020/01/31 00:19:27.0	269.140	0.410	-0.700	1.090
2020/01/31 00:19:27.1	269.140	0.410	-0.680	1.130
2020/01/31 00:19:27.2	269.130	0.420	-0.670	1.170
2020/01/31 00:19:27.3	269.130	0.420	-0.650	1.200
2020/01/31 00:19:27.4	269.120	0.420	-0.630	1.230
2020/01/31 00:19:27.5	269.120	0.420	-0.610	1.260
2020/01/31 00:19:27.6	269.110	0.420	-0.590	1.290
2020/01/31 00:19:27.7	269.100	0.420	-0.570	1.310
2020/01/31 00:19:27.8	269.090	0.410	-0.540	1.330
2020/01/31 00:19:27.9	269.080	0.410	-0.520	1.350
2020/01/31 00:19:28.0	269.070	0.400	-0.490	1.370
2020/01/31 00:19:28.1	269.060	0.390	-0.470	1.380
2020/01/31 00:19:28.2	269.040	0.380	-0.440	1.390
2020/01/31 00:19:28.3	269.030	0.360	-0.420	1.400
2020/01/31 00:19:28.4	269.010	0.350	-0.390	1.400
2020/01/31 00:19:28.5	268.990	0.330	-0.370	1.400
2020/01/31 00:19:28.6	268.970	0.310	-0.350	1.390
2020/01/31 00:19:28.7	268.950	0.300	-0.320	1.380
2020/01/31 00:19:28.8	268.930	0.280	-0.300	1.370
2020/01/31 00:19:28.9	268.900	0.250	-0.280	1.360
2020/01/31 00:19:29.0	268.880	0.230	-0.260	1.340
2020/01/31 00:19:29.1	268.860	0.210	-0.240	1.320
2020/01/31 00:19:29.2	268.830	0.180	-0.230	1.300
2020/01/31 00:19:29.3	268.810	0.160	-0.210	1.280
2020/01/31 00:19:29.4	268.790	0.130	-0.190	1.250
2020/01/31 00:19:29.5	268.760	0.110	-0.180	1.220
2020/01/31 00:19:29.6	268.740	0.080	-0.170	1.190
2020/01/31 00:19:29.7	268.720	0.050	-0.160	1.160
2020/01/31 00:19:29.8	268.700	0.030	-0.150	1.120
2020/01/31 00:19:29.9	268.690	-0.000	-0.140	1.080
2020/01/31 00:19:30.0	268.670	-0.030	-0.130	1.040
2020/01/31 00:19:30.1	268.650	-0.060	-0.120	1.000
2020/01/31 00:19:30.2	268.630	-0.080	-0.120	0.960
2020/01/31 00:19:30.3	268.610	-0.110	-0.110	0.920
2020/01/31 00:19:30.4	268.600	-0.140	-0.110	0.870
2020/01/31 00:19:30.5	268.580	-0.160	-0.100	0.830
2020/01/31 00:19:30.6	268.570	-0.190	-0.100	0.780
2020/01/31 00:19:30.7	268.560	-0.210	-0.090	0.740
2020/01/31 00:19:30.8	268.550	-0.240	-0.090	0.690
2020/01/31 00:19:30.9	268.540	-0.260	-0.090	0.640
2020/01/31 00:19:31.0	268.530	-0.280	-0.090	0.600
2020/01/31 00:19:31.1	268.530	-0.310	-0.090	0.550
2020/01/31 00:19:31.2	268.520	-0.330	-0.080	0.500
2020/01/31 00:19:31.3	268.520	-0.350	-0.080	0.450
2020/01/31 00:19:31.4	268.520	-0.370	-0.080	0.410
2020/01/31 00:19:31.5	268.520	-0.380	-0.080	0.360
2020/01/31 00:19:31.6	268.520	-0.400	-0.080	0.310
2020/01/31 00:19:31.7	268.520	-0.420	-0.080	0.270
2020/01/31 00:19:31.8	268.530	-0.430	-0.080	0.230
2020/01/31 00:19:31.9	268.540	-0.440	-0.080	0.180
2020/01/31 00:19:32.0	268.540	-0.450	-0.080	0.140
2020/01/31 00:19:32.1	268.550	-0.460	-0.080	0.100
2020/01/31 00:19:32.2	268.560	-0.470	-0.080	0.060
2020/01/31 00:19:32.3	268.570	-0.480	-0.080	0.030
2020/01/31 00:19:32.4	268.580	-0.490	-0.080	-0.010
2020/01/31 00:19:32.5	268.590	-0.490	-0.080	-0.040
2020/01/31 00:19:32.6	268.610	-0.500	-0.080	-0.070
2020/01/31 00:19:32.7	268.620	-0.500	-0.080	-0.100
2020/01/31 00:19:32.8	268.640	-0.500	-0.080	-0.130
2020/01/31 00:19:32.9	268.650	-0.500	-0.090	-0.150
2020/01/31 00:19:33.0	268.670	-0.500	-0.080	-0.170
2020/01/31 00:19:33.1	268.690	-0.500	-0.080	-0.190
2020/01/31 00:19:33.2	268.700	-0.490	-0.080	-0.200
2020/01/31 00:19:33.3	268.730	-0.490	-0.070	-0.210
2020/01/31 00:19:33.4	268.750	-0.480	-0.070	-0.220
2020/01/31 00:19:33.5	268.770	-0.480	-0.060	-0.230
2020/01/31 00:19:33.6	268.790	-0.470	-0.060	-0.230
2020/01/31 00:19:33.7	268.810	-0.460	-0.050	-0.230
2020/01/31 00:19:33.8	268.840	-0.450	-0.050	-0.220
2020/01/31 00:19:33.9	268.850	-0.440	-0.040	-0.210
2020/01/31 00:19:34.0	268.870	-0.420	-0.040	-0.200
2020/01/31 00:19:34.1	268.900	-0.410	-0.030	-0.190
2020/01/31 00:19:34.2	268.920	-0.390	-0.030	-0.170
2020/01/31 00:19:34.3	268.940	-0.380	-0.030	-0.150
2020/01/31 00:19:34.4	268.970	-0.360	-0.020	-0.120
2020/01/31 00:19:34.5	268.990	-0.340	-0.020	-0.090
2020/01/31 00:19:34.6	269.020	-0.320	-0.020	-0.060
2020/01/31 00:19:34.7	269.040	-0.300	-0.020	-0.030
2020/01/31 00:19:34.8	269.070	-0.280	-0.030	0.000
2020/01/31 00:19:34.9	269.100	-0.260	-0.030	0.040
2020/01/31 00:19:35.0	269.120	-0.240	-0.040	0.080
2020/01/31 00:19:35.1	269.150	-0.210	-0.050	0.120
2020/01/31 00:19:35.2	269.170	-0.190	-0.060	0.160
2020/01/31 00:19:35.3	269.190	-0.160	-0.070	0.200
2020/01/31 00:19:35.4	269.220	-0.140	-0.080	0.250
2020/01/31 00:19:35.5	269.240	-0.110	-0.090	0.290
2020/01/31 00:19:35.6	269.260	-0.080	-0.100	0.340
2020/01/31 00:19:35.7	269.280	-0.050	-0.120	0.380
2020/01/31 00:19:35.8	269.300	-0.020	-0.140	0.430
2020/01/31 00:19:35.9	269.320	0.010	-0.160	0.480
2020/01/31 00:19:36.0	269.340	0.030	-0.170	0.520
2020/01/31 00:19:36.1	269.360	0.060	-0.190	0.570
2020/01/31 00:19:36.2	269.380	0.090	-0.210	0.610
2020/01/31 00:19:36.3	269.400	0.120	-0.240	0.660
2020/01/31 00:19:36.4	269.420	0.150	-0.260	0.700
2020/01/31 00:19:36.5	269.440	0.180	-0.280	0.740
2020/01/31 00:19:36.6	269.460	0.210	-0.300	0.780
2020/01/31 00:19:36.7	269.470	0.240	-0.320	0.820
2020/01/31 00:19:36.8	269.490	0.270	-0.340	0.850
2020/01/31 00:19:36.9	269.510	0.290	-0.360	0.890
2020/01/31 00:19:37.0	269.530	0.320	-0.370	0.920
2020/01/31 00:19:37.1	269.550	0.340	-0.390	0.940
2020/01/31 00:19:37.2	269.560	0.360	-0.400	0.960
2020/01/31 00:19:37.3	269.580	0.380	-0.410	0.980
2020/01/31 00:19:37.4	269.590	0.400	-0.420	1.000
2020/01/31 00:19:37.5	269.610	0.420	-0.430	1.010
2020/01/31 00:19:37.6	269.620	0.430	-0.430	1.020
2020/01/31 00:19:37.7	269.640	0.440	-0.440	1.030
2020/01/31 00:19:37.8	269.650	0.450	-0.440	1.030
2020/01/31 00:19:37.9	269.660	0.460	-0.440	1.030
2020/01/31 00:19:38.0	269.680	0.470	-0.440	1.030
2020/01/31 00:19:38.1	269.690	0.470	-0.440	1.020
2020/01/31 00:19:38.2	269.710	0.480	-0.440	1.010
2020/01/31 00:19:38.3	269.720	0.480	-0.440	1.000
2020/01/31 00:19:38.4	269.730	0.480	-0.430	0.990
2020/01/31 00:19:38.5	269.750	0.480	-0.430	0.970
2020/01/31 00:19:38.6	269.760	0.470	-0.420	0.950
2020/01/31 00:19:38.7	269.780	0.470	-0.420	0.940
2020/01/31 00:19:38.8	269.790	0.460	-0.410	0.910
2020/01/31 00:19:38.9	269.810	0.450	-0.410	0.890
2020/01/31 00:19:39.0	269.820	0.440	-0.410	0.860
2020/01/31 00:19:39.1	269.840	0.430	-0.410	0.840
2020/01/31 00:19:39.2	269.850	0.420	-0.400	0.810
2020/01/31 00:19:39.3	269.870	0.410	-0.400	0.780
2020/01/31 00:19:39.4	269.880	0.400	-0.400	0.760
2020/01/31 00:19:39.5	269.890	0.390	-0.410	0.730
2020/01/31 00:19:39.6	269.900	0.370	-0.410	0.700
2020/01/31 00:19:39.7	269.920	0.360	-0.420	0.670
2020/01/31 00:19:39.8	269.930	0.350	-0.420	0.640
2020/01/31 00:19:39.9	269.930	0.330	-0.430	0.620
2020/01/31 00:19:40.0	269.940	0.320	-0.440	0.600
2020/01/31 00:19:40.1	269.940	0.310	-0.450	0.570
2020/01/31 00:19:40.2	269.950	0.290	-0.470	0.550
2020/01/31 00:19:40.3	269.950	0.280	-0.480	0.540
2020/01/31 00:19:40.4	269.950	0.260	-0.500	0.520
2020/01/31 00:19:40.5	269.950	0.250	-0.520	0.510
2020/01/31 00:19:40.6	269.940	0.240	-0.540	0.500
2020/01/31 00:19:40.7	269.930	0.220	-0.560	0.490
2020/01/31 00:19:40.8	269.930	0.210	-0.580	0.480
2020/01/31 00:19:40.9	269.920	0.200	-0.600	0.470
2020/01/31 00:19:41.0	269.910	0.180	-0.630	0.470
2020/01/31 00:19:41.1	269.890	0.170	-0.650	0.480
2020/01/31 00:19:41.2	269.870	0.150	-0.670	0.480
2020/01/31 00:19:41.3	269.850	0.140	-0.690	0.490
2020/01/31 00:19:41.4	269.830	0.130	-0.710	0.500
2020/01/31 00:19:41.5	269.800	0.110	-0.730	0.510
2020/01/31 00:19:41.6	269.770	0.100	-0.750	0.530
2020/01/31 00:19:41.7	269.740	0.080	-0.760	0.540
2020/01/31 00:19:41.8	269.710	0.060	-0.780	0.560
2020/01/31 00:19:41.9	269.690	0.050	-0.790	0.590
2020/01/31 00:19:42.0	269.650	0.030	-0.800	0.610
2020/01/31 00:19:42.1	269.620	0.010	-0.810	0.630
2020/01/31 00:19:42.2	269.580	-0.010	-0.810	0.650
2020/01/31 00:19:42.3	269.540	-0.030	-0.810	0.670
2020/01/31 00:19:42.4	269.500	-0.050	-0.810	0.690
2020/01/31 00:19:42.5	269.460	-0.070	-0.810	0.700
2020/01/31 00:19:42.6	269.420	-0.090	-0.810	0.720
2020/01/31 00:19:42.7	269.370	-0.110	-0.800	0.740
2020/01/31 00:19:42.8	269.330	-0.130	-0.790	0.750
2020/01/31 00:19:42.9	269.280	-0.150	-0.770	0.760
2020/01/31 00:19:43.0	269.240	-0.170	-0.760	0.780
2020/01/31 00:19:43.1	269.200	-0.200	-0.740	0.780
2020/01/31 00:19:43.2	269.160	-0.220	-0.720	0.790
2020/01/31 00:19:43.3	269.120	-0.240	-0.690	0.790
2020/01/31 00:19:43.4	269.090	-0.260	-0.670	0.800
2020/01/31 00:19:43.5	269.050	-0.280	-0.640	0.800
2020/01/31 00:19:43.6	269.020	-0.300	-0.610	0.790
2020/01/31 00:19:43.7	268.990	-0.320	-0.580	0.790
2020/01/31 00:19:43.8	268.960	-0.340	-0.550	0.780
2020/01/31 00:19:43.9	268.910	-0.360	-0.510	0.770
2020/01/31 00:19:44.0	268.890	-0.380	-0.480	0.750
2020/01/31 00:19:44.1	268.860	-0.400	-0.440	0.740
2020/01/31 00:19:44.2	268.840	-0.410	-0.400	0.720
2020/01/31 00:19:44.3	268.820	-0.420	-0.370	0.700
2020/01/31 00:19:44.4	268.800	-0.430	-0.330	0.680
2020/01/31 00:19:44.5	268.790	-0.440	-0.290	0.650
2020/01/31 00:19:44.6	268.780	-0.450	-0.250	0.630
2020/01/31 00:19:44.7	268.770	-0.460	-0.220	0.600
2020/01/31 00:19:44.8	268.760	-0.460	-0.180	0.570
2020/01/31 00:19:44.9	268.750	-0.460	-0.140	0.540
2020/01/31 00:19:45.0	268.750	-0.460	-0.110	0.510
2020/01/31 00:19:45.1	268.760	-0.460	-0.080	0.470
2020/01/31 00:19:45.2	268.760	-0.460	-0.040	0.440
2020/01/31 00:19:45.3	268.770	-0.450	-0.010	0.410
2020/01/31 00:19:45.4	268.780	-0.440	0.020	0.370
2020/01/31 00:19:45.5	268.790	-0.430	0.040	0.340
2020/01/31 00:19:45.6	268.810	-0.410	0.070	0.310
2020/01/31 00:19:45.7	268.830	-0.400	0.090	0.270
2020/01/31 00:19:45.8	268.850	-0.380	0.110	0.240
2020/01/31 00:19:45.9	268.870	-0.360	0.130	0.210
2020/01/31 00:19:46.0	268.890	-0.340	0.140	0.180
2020/01/31 00:19:46.1	268.920	-0.320	0.160	0.150
2020/01/31 00:19:46.2	268.940	-0.290	0.170	0.130
2020/01/31 00:19:46.3	268.970	-0.270	0.170	0.110
2020/01/31 00:19:46.4	268.990	-0.240	0.180	0.080
2020/01/31 00:19:46.5	269.020	-0.210	0.180	0.070
2020/01/31 00:19:46.6	269.050	-0.180	0.180	0.050
2020/01/31 00:19:46.7	269.080	-0.160	0.180	0.040
2020/01/31 00:19:46.8	269.110	-0.130	0.180	0.030
2020/01/31 00:19:46.9	269.140	-0.100	0.170	0.020
2020/01/31 00:19:47.0	269.170	-0.070	0.170	0.020
2020/01/31 00:19:47.1	269.210	-0.040	0.160	0.020
2020/01/31 00:19:47.2	269.240	-0.020	0.160	0.020
2020/01/31 00:19:47.3	269.270	0.010	0.150	0.020
2020/01/31 00:19:47.4	269.300	0.030	0.140	0.020
2020/01/31 00:19:47.5	269.330	0.060	0.140	0.030
2020/01/31 00:19:47.6	269.360	0.080	0.130	0.040
2020/01/31 00:19:47.7	269.400	0.100	0.120	0.050
2020/01/31 00:19:47.8	269.430	0.120	0.120	0.070
2020/01/31 00:19:47.9	269.460	0.130	0.110	0.080
2020/01/31 00:19:48.0	269.490	0.150	0.110	0.100
2020/01/31 00:19:48.1	269.520	0.160	0.100	0.120
2020/01/31 00:19:48.2	269.550	0.170	0.100	0.140
2020/01/31 00:19:48.3	269.570	0.180	0.090	0.170
2020/01/31 00:19:48.4	269.600	0.180	0.090	0.190
2020/01/31 00:19:48.5	269.630	0.190	0.090	0.220
2020/01/31 00:19:48.6	269.650	0.190	0.090	0.240
2020/01/31 00:19:48.7	269.680	0.190	0.080	0.270
2020/01/31 00:19:48.8	269.700	0.180	0.080	0.300
2020/01/31 00:19:48.9	269.720	0.180	0.080	0.330
2020/01/31 00:19:49.0	269.740	0.170	0.080	0.360
2020/01/31 00:19:49.1	269.760	0.160	0.080	0.390
2020/01/31 00:19:49.2	269.780	0.150	0.070	0.410
2020/01/31 00:19:49.3	269.790	0.140	0.070	0.440
2020/01/31 00:19:49.4	269.800	0.130	0.070	0.470
2020/01/31 00:19:49.5	269.810	0.120	0.070	0.500
2020/01/31 00:19:49.6	269.820	0.110	0.060	0.520
2020/01/31 00:19:49.7	269.820	0.090	0.060	0.550
2020/01/31 00:19:49.8	269.830	0.080	0.050	0.570
2020/01/31 00:19:49.9	269.840	0.070	0.040	0.590
2020/01/31 00:19:50.0	269.840	0.050	0.030	0.610
2020/01/31 00:19:50.1	269.840	0.040	0.020	0.630
2020/01/31 00:19:50.2	269.830	0.030	0.010	0.640
2020/01/31 00:19:50.3	269.820	0.020	0.000	0.660
2020/01/31 00:19:50.4	269.810	0.000	-0.010	0.670
2020/01/31 00:19:50.5	269.800	-0.010	-0.030	0.680
2020/01/31 00:19:50.6	269.790	-0.020	-0.040	0.690
2020/01/31 00:19:50.7	269.780	-0.020	-0.060	0.700
2020/01/31 00:19:50.8	269.760	-0.030	-0.080	0.710
2020/01/31 00:19:50.9	269.750	-0.040	-0.100	0.710
2020/01/31 00:19:51.0	269.730	-0.040	-0.130	0.710
2020/01/31 00:19:51.1	269.710	-0.050	-0.150	0.710
2020/01/31 00:19:51.2	269.690	-0.050	-0.180	0.710
2020/01/31 00:19:51.3	269.670	-0.060	-0.200	0.710
2020/01/31 00:19:51.4	269.650	-0.060	-0.230	0.700
2020/01/31 00:19:51.5	269.630	-0.060	-0.260	0.700
2020/01/31 00:19:51.6	269.610	-0.050	-0.290	0.690
2020/01/31 00:19:51.7	269.590	-0.050	-0.330	0.680
2020/01/31 00:19:51.8	269.570	-0.050	-0.360	0.670
2020/01/31 00:19:51.9	269.550	-0.040	-0.400	0.650
2020/01/31 00:19:52.0	269.520	-0.040	-0.430	0.640
2020/01/31 00:19:52.1	269.500	-0.030	-0.470	0.620
2020/01/31 00:19:52.2	269.480	-0.030	-0.510	0.610
2020/01/31 00:19:52.3	269.460	-0.020	-0.540	0.590
2020/01/31 00:19:52.4	269.440	-0.010	-0.580	0.570
2020/01/31 00:19:52.5	269.420	-0.000	-0.620	0.560
2020/01/31 00:19:52.6	269.400	0.010	-0.660	0.540
2020/01/31 00:19:52.7	269.380	0.020	-0.690	0.520
2020/01/31 00:19:52.8	269.360	0.030	-0.730	0.510
2020/01/31 00:19:52.9	269.350	0.040	-0.760	0.500
2020/01/31 00:19:53.0	269.330	0.050	-0.800	0.480
2020/01/31 00:19:53.1	269.320	0.060	-0.830	0.470
2020/01/31 00:19:53.2	269.300	0.070	-0.860	0.460
2020/01/31 00:19:53.3	269.280	0.080	-0.890	0.450
2020/01/31 00:19:53.4	269.270	0.090	-0.910	0.450
2020/01/31 00:19:53.5	269.260	0.100	-0.940	0.440
2020/01/31 00:19:53.6	269.240	0.110	-0.960	0.440
2020/01/31 00:19:53.7	269.230	0.120	-0.970	0.440
2020/01/31 00:19:53.8	269.220	0.130	-0.990	0.440
2020/01/31 00:19:53.9	269.200	0.140	-1.000	0.440
2020/01/31 00:19:54.0	269.190	0.150	-1.010	0.450
2020/01/31 00:19:54.1	269.180	0.160	-1.020	0.450
2020/01/31 00:19:54.2	269.180	0.160	-1.020	0.460
2020/01/31 00:19:54.3	269.170	0.170	-1.020	0.470
2020/01/31 00:19:54.4	269.160	0.170	-1.020	0.490
2020/01/31 00:19:54.5	269.150	0.180	-1.010	0.500
2020/01/31 00:19:54.6	269.140	0.180	-1.010	0.520
2020/01/31 00:19:54.7	269.130	0.190	-0.990	0.540
2020/01/31 00:19:54.8	269.120	0.190	-0.980	0.560
2020/01/31 00:19:54.9	269.100	0.190	-0.960	0.590
2020/01/31 00:19:55.0	269.090	0.190	-0.940	0.610
2020/01/31 00:19:55.1	269.080	0.190	-0.920	0.640
2020/01/31 00:19:55.2	269.070	0.190	-0.900	0.670
2020/01/31 00:19:55.3	269.060	0.190	-0.870	0.700
2020/01/31 00:19:55.4	269.050	0.190	-0.840	0.730
2020/01/31 00:19:55.5	269.040	0.180	-0.820	0.760
2020/01/31 00:19:55.6	269.030	0.180	-0.780	0.800
2020/01/31 00:19:55.7	269.020	0.180	-0.750	0.830
2020/01/31 00:19:55.8	269.010	0.170	-0.720	0.860
2020/01/31 00:19:55.9	268.990	0.160	-0.680	0.890
2020/01/31 00:19:56.0	268.980	0.160	-0.650	0.930
2020/01/31 00:19:56.1	268.970	0.150	-0.610	0.960
2020/01/31 00:19:56.2	268.960	0.140	-0.570	0.990
2020/01/31 00:19:56.3	268.950	0.130	-0.530	1.010
2020/01/31 00:19:56.4	268.940	0.120	-0.490	1.040
2020/01/31 00:19:56.5	268.930	0.110	-0.450	1.060
2020/01/31 00:19:56.6	268.920	0.100	-0.420	1.080
2020/01/31 00:19:56.7	268.910	0.090	-0.380	1.100
2020/01/31 00:19:56.8	268.900	0.080	-0.340	1.120
2020/01/31 00:19:56.9	268.890	0.060	-0.300	1.140
2020/01/31 00:19:57.0	268.890	0.050	-0.260	1.150
2020/01/31 00:19:57.1	268.880	0.030	-0.220	1.160
2020/01/31 00:19:57.2	268.880	0.020	-0.180	1.160
2020/01/31 00:19:57.3	268.870	0.010	-0.150	1.170
2020/01/31 00:19:57.4	268.870	-0.010	-0.110	1.170
2020/01/31 00:19:57.5	268.870	-0.020	-0.080	1.170
2020/01/31 00:19:57.6	268.860	-0.040	-0.050	1.170
2020/01/31 00:19:57.7	268.860	-0.060	-0.020	1.160
2020/01/31 00:19:57.8	268.860	-0.070	0.010	1.150
2020/01/31 00:19:57.9	268.870	-0.090	0.040	1.130
2020/01/31 00:19:58.0	268.870	-0.100	0.070	1.120
2020/01/31 00:19:58.1	268.880	-0.110	0.090	1.100
2020/01/31 00:19:58.2	268.890	-0.130	0.110	1.070
2020/01/31 00:19:58.3	268.890	-0.140	0.140	1.050
2020/01/31 00:19:58.4	268.900	-0.150	0.160	1.020
2020/01/31 00:19:58.5	268.910	-0.170	0.170	0.990
2020/01/31 00:19:58.6	268.920	-0.180	0.190	0.960
2020/01/31 00:19:58.7	268.930	-0.190	0.200	0.920
2020/01/31 00:19:58.8	268.950	-0.200	0.210	0.880
2020/01/31 00:19:58.9	268.970	-0.200	0.220	0.850
2020/01/31 00:19:59.0	268.980	-0.210	0.230	0.810
2020/01/31 00:19:59.1	269.000	-0.210	0.230	0.770
2020/01/31 00:19:59.2	269.020	-0.220	0.230	0.720
2020/01/31 00:19:59.3	269.040	-0.220	0.230	0.680
2020/01/31 00:19:59.4	269.060	-0.220	0.230	0.640
2020/01/31 00:19:59.5	269.080	-0.220	0.220	0.600
2020/01/31 00:19:59.6	269.100	-0.220	0.210	0.550
2020/01/31 00:19:59.7	269.120	-0.210	0.200	0.510
2020/01/31 00:19:59.8	269.150	-0.210	0.190	0.470
2020/01/31 00:19:59.9	269.160	-0.200	0.170	0.430
2020/01/31 00:20:00.0	269.190	-0.190	0.150	0.400
2020/01/31 00:20:00.1	269.210	-0.180	0.130	0.360
2020/01/31 00:20:00.2	269.230	-0.170	0.110	0.330
2020/01/31 00:20:00.3	269.250	-0.160	0.090	0.300
2020/01/31 00:20:00.4	269.270	-0.140	0.070	0.270
2020/01/31 00:20:00.5	269.290	-0.130	0.040	0.240
2020/01/31 00:20:00.6	269.300	-0.110	0.020	0.210
2020/01/31 00:20:00.7	269.320	-0.090	-0.010	0.190
2020/01/31 00:20:00.8	269.340	-0.080	-0.030	0.170
2020/01/31 00:20:00.9	269.350	-0.060	-0.060	0.160
2020/01/31 00:20:01.0	269.370	-0.040	-0.090	0.140
2020/01/31 00:20:01.1	269.380	-0.020	-0.110	0.130
2020/01/31 00:20:01.2	269.390	-0.000	-0.140	0.120
2020/01/31 00:20:01.3	269.410	0.010	-0.160	0.120
2020/01/31 00:20:01.4	269.420	0.030	-0.180	0.110
2020/01/31 00:20:01.5	269.430	0.050	-0.210	0.110
2020/01/31 00:20:01.6	269.440	0.060	-0.230	0.110
2020/01/31 00:20:01.7	269.450	0.080	-0.250	0.120
2020/01/31 00:20:01.8	269.450	0.090	-0.270	0.130
2020/01/31 00:20:01.9	269.460	0.100	-0.290	0.140
2020/01/31 00:20:02.0	269.470	0.120	-0.300	0.150
2020/01/31 00:20:02.1	269.470	0.130	-0.320	0.170
2020/01/31 00:20:02.2	269.480	0.140	-0.330	0.190
2020/01/31 00:20:02.3	269.480	0.140	-0.350	0.210
2020/01/31 00:20:02.4	269.480	0.150	-0.360	0.230
2020/01/31 00:20:02.5	269.480	0.160	-0.370	0.250
2020/01/31 00:20:02.6	269.480	0.160	-0.380	0.280
2020/01/31 00:20:02.7	269.480	0.160	-0.390	0.300
2020/01/31 00:20:02.8	269.480	0.160	-0.400	0.330
2020/01/31 00:20:02.9	269.480	0.160	-0.410	0.350
2020/01/31 00:20:03.0	269.480	0.160	-0.420	0.380
2020/01/31 00:20:03.1	269.480	0.160	-0.430	0.410
2020/01/31 00:20:03.2	269.470	0.150	-0.440	0.430
2020/01/31 00:20:03.3	269.460	0.150	-0.450	0.460
2020/01/31 00:20:03.4	269.460	0.140	-0.460	0.490
2020/01/31 00:20:03.5	269.450	0.140	-0.460	0.510
2020/01/31 00:20:03.6	269.440	0.130	-0.470	0.540
2020/01/31 00:20:03.7	269.430	0.120	-0.480	0.560
2020/01/31 00:20:03.8	269.420	0.110	-0.500	0.580
2020/01/31 00:20:03.9	269.400	0.100	-0.510	0.610
2020/01/31 00:20:04.0	269.390	0.100	-0.520	0.630
2020/01/31 00:20:04.1	269.380	0.090	-0.530	0.650
2020/01/31 00:20:04.2	269.370	0.080	-0.540	0.670
2020/01/31 00:20:04.3	269.360	0.070	-0.550	0.680
2020/01/31 00:20:04.4	269.340	0.060	-0.570	0.700
2020/01/31 00:20:04.5	269.330	0.050	-0.580	0.720
2020/01/31 00:20:04.6	269.320	0.050	-0.590	0.730
2020/01/31 00:20:04.7	269.300	0.040	-0.600	0.740
2020/01/31 00:20:04.8	269.290	0.030	-0.610	0.750
2020/01/31 00:20:04.9	269.260	0.020	-0.620	0.760
2020/01/31 00:20:05.0	269.250	0.020	-0.620	0.760
2020/01/31 00:20:05.1	269.240	0.010	-0.630	0.770
2020/01/31 00:20:05.2	269.230	0.010	-0.630	0.780
2020/01/31 00:20:05.3	269.210	0.000	-0.630	0.780
2020/01/31 00:20:05.4	269.200	-0.000	-0.630	0.790
2020/01/31 00:20:05.5	269.190	-0.010	-0.630	0.790
2020/01/31 00:20:05.6	269.180	-0.010	-0.620	0.790
2020/01/31 00:20:05.7	269.170	-0.010	-0.620	0.800
2020/01/31 00:20:05.8	269.160	-0.020	-0.610	0.800
2020/01/31 00:20:05.9	269.150	-0.020	-0.590	0.800
2020/01/31 00:20:06.0	269.140	-0.020	-0.580	0.800
2020/01/31 00:20:06.1	269.130	-0.030	-0.560	0.800
2020/01/31 00:20:06.2	269.120	-0.030	-0.540	0.790
2020/01/31 00:20:06.3	269.110	-0.030	-0.520	0.790
2020/01/31 00:20:06.4	269.110	-0.030	-0.490	0.780
2020/01/31 00:20:06.5	269.100	-0.040	-0.470	0.780
2020/01/31 00:20:06.6	269.100	-0.040	-0.440	0.770
2020/01/31 00:20:06.7	269.090	-0.040	-0.410	0.760
2020/01/31 00:20:06.8	269.090	-0.040	-0.380	0.750
2020/01/31 00:20:06.9	269.090	-0.050	-0.340	0.750
2020/01/31 00:20:07.0	269.090	-0.050	-0.310	0.730
2020/01/31 00:20:07.1	269.090	-0.050	-0.280	0.720
2020/01/31 00:20:07.2	269.080	-0.060	-0.240	0.710
2020/01/31 00:20:07.3	269.080	-0.060	-0.210	0.690
2020/01/31 00:20:07.4	269.080	-0.070	-0.170	0.680
2020/01/31 00:20:07.5	269.080	-0.070	-0.140	0.660
2020/01/31 00:20:07.6	269.090	-0.070	-0.110	0.650
2020/01/31 00:20:07.7	269.090	-0.080	-0.070	0.630
2020/01/31 00:20:07.8	269.090	-0.080	-0.040	0.610
2020/01/31 00:20:07.9	269.090	-0.090	-0.010	0.590
2020/01/31 00:20:08.0	269.100	-0.090	0.010	0.580
2020/01/31 00:20:08.1	269.100	-0.090	0.040	0.560
2020/01/31 00:20:08.2	269.110	-0.100	0.070	0.540
2020/01/31 00:20:08.3	269.120	-0.100	0.090	0.520
2020/01/31 00:20:08.4	269.130	-0.100	0.110	0.510
2020/01/31 00:20:08.5	269.140	-0.110	0.130	0.490
2020/01/31 00:20:08.6	269.160	-0.110	0.140	0.470
2020/01/31 00:20:08.7	269.170	-0.110	0.150	0.450
2020/01/31 00:20:08.8	269.190	-0.110	0.160	0.430
2020/01/31 00:20:08.9	269.210	-0.110	0.170	0.420
2020/01/31 00:20:09.0	269.220	-0.110	0.180	0.400
2020/01/31 00:20:09.1	269.240	-0.100	0.180	0.380
2020/01/31 00:20:09.2	269.260	-0.100	0.180	0.360
2020/01/31 00:20:09.3	269.280	-0.090	0.170	0.340
2020/01/31 00:20:09.4	269.300	-0.090	0.170	0.320
2020/01/31 00:20:09.5	269.310	-0.080	0.160	0.310
2020/01/31 00:20:09.6	269.330	-0.070	0.140	0.290
2020/01/31 00:20:09.7	269.360	-0.060	0.130	0.270
2020/01/31 00:20:09.8	269.380	-0.050	0.110	0.260
2020/01/31 00:20:09.9	269.410	-0.030	0.090	0.240
2020/01/31 00:20:10.0	269.430	-0.020	0.070	0.230
2020/01/31 00:20:10.1	269.450	-0.000	0.050	0.210
2020/01/31 00:20:10.2	269.470	0.020	0.020	0.200
2020/01/31 00:20:10.3	269.490	0.040	-0.000	0.190
2020/01/31 00:20:10.4	269.510	0.050	-0.030	0.180
2020/01/31 00:20:10.5	269.540	0.080	-0.060	0.170
2020/01/31 00:20:10.6	269.560	0.100	-0.080	0.160
2020/01/31 00:20:10.7	269.580	0.120	-0.110	0.150
2020/01/31 00:20:10.8	269.600	0.140	-0.140	0.140
2020/01/31 00:20:10.9	269.620	0.160	-0.170	0.150
2020/01/31 00:20:11.0	269.640	0.180	-0.190	0.140
2020/01/31 00:20:11.1	269.660	0.210	-0.220	0.140
2020/01/31 00:20:11.2	269.680	0.230	-0.250	0.140
2020/01/31 00:20:11.3	269.690	0.250	-0.270	0.140
2020/01/31 00:20:11.4	269.710	0.270	-0.300	0.140
2020/01/31 00:20:11.5	269.730	0.290	-0.320	0.140
2020/01/31 00:20:11.6	269.740	0.310	-0.350	0.150
2020/01/31 00:20:11.7	269.750	0.330	-0.370	0.150
2020/01/31 00:20:11.8	269.760	0.340	-0.390	0.160
2020/01/31 00:20:11.9	269.780	0.360	-0.420	0.170
2020/01/31 00:20:12.0	269.790	0.370	-0.440	0.180
2020/01/31 00:20:12.1	269.800	0.380	-0.460	0.190
2020/01/31 00:20:12.2	269.800	0.390	-0.480	0.210
2020/01/31 00:20:12.3	269.810	0.400	-0.500	0.220
2020/01/31 00:20:12.4	269.810	0.410	-0.510	0.240
2020/01/31 00:20:12.5	269.820	0.410	-0.530	0.260
2020/01/31 00:20:12.6	269.820	0.420	-0.540	0.290
2020/01/31 00:20:12.7	269.820	0.420	-0.560	0.310
2020/01/31 00:20:12.8	269.820	0.410	-0.570	0.330
2020/01/31 00:20:12.9	269.820	0.410	-0.580	0.360
2020/01/31 00:20:13.0	269.810	0.400	-0.590	0.380
2020/01/31 00:20:13.1	269.810	0.400	-0.600	0.410
2020/01/31 00:20:13.2	269.810	0.390	-0.610	0.430
2020/01/31 00:20:13.3	269.800	0.370	-0.620	0.460
2020/01/31 00:20:13.4	269.790	0.360	-0.630	0.490
2020/01/31 00:20:13.5	269.780	0.340	-0.640	0.510
2020/01/31 00:20:13.6	269.770	0.330	-0.640	0.540
2020/01/31 00:20:13.7	269.760	0.310	-0.650	0.560
2020/01/31 00:20:13.8	269.750	0.290	-0.660	0.580
2020/01/31 00:20:13.9	269.730	0.270	-0.670	0.600
2020/01/31 00:20:14.0	269.710	0.240	-0.670	0.620
2020/01/31 00:20:14.1	269.700	0.220	-0.680	0.640
2020/01/31 00:20:14.2	269.680	0.190	-0.690	0.660
2020/01/31 00:20:14.3	269.660	0.170	-0.690	0.680
2020/01/31 00:20:14.4	269.640	0.140	-0.700	0.690
2020/01/31 00:20:14.5	269.620	0.110	-0.710	0.710
2020/01/31 00:20:14.6	269.600	0.090	-0.710	0.720
2020/01/31 00:20:14.7	269.570	0.060	-0.720	0.730
2020/01/31 00:20:14.8	269.550	0.030	-0.730	0.740
2020/01/31 00:20:14.9	269.520	0.010	-0.730	0.740
2020/01/31 00:20:15.0	269.500	-0.020	-0.730	0.750
2020/01/31 00:20:15.1	269.470	-0.050	-0.740	0.750
2020/01/31 00:20:15.2	269.450	-0.070	-0.750	0.760
2020/01/31 00:20:15.3	269.420	-0.100	-0.750	0.760
2020/01/31 00:20:15.4	269.400	-0.120	-0.750	0.760
2020/01/31 00:20:15.5	269.370	-0.150	-0.750	0.760
2020/01/31 00:20:15.6	269.350	-0.170	-0.760	0.760
2020/01/31 00:20:15.7	269.330	-0.190	-0.750	0.760
2020/01/31 00:20:15.8	269.300	-0.210	-0.750	0.750
2020/01/31 00:20:15.9	269.270	-0.230	-0.750	0.750
2020/01/31 00:20:16.0	269.250	-0.250	-0.750	0.740
2020/01/31 00:20:16.1	269.230	-0.270	-0.740	0.730
2020/01/31 00:20:16.2	269.210	-0.290	-0.730	0.730
2020/01/31 00:20:16.3	269.190	-0.300	-0.720	0.720
2020/01/31 00:20:16.4	269.170	-0.310	-0.710	0.710
2020/01/31 00:20:16.5	269.150	-0.330	-0.690	0.700
2020/01/31 00:20:16.6	269.130	-0.340	-0.680	0.690
2020/01/31 00:20:16.7	269.120	-0.350	-0.660	0.680
2020/01/31 00:20:16.8	269.100	-0.360	-0.640	0.660
2020/01/31 00:20:16.9	269.100	-0.370	-0.620	0.650
2020/01/31 00:20:17.0	269.090	-0.380	-0.600	0.640
2020/01/31 00:20:17.1	269.080	-0.380	-0.580	0.630
2020/01/31 00:20:17.2	269.070	-0.390	-0.550	0.610
2020/01/31 00:20:17.3	269.060	-0.400	-0.530	0.600
2020/01/31 00:20:17.4	269.050	-0.400	-0.510	0.590
2020/01/31 00:20:17.5	269.040	-0.400	-0.480	0.580
2020/01/31 00:20:17.6	269.030	-0.400	-0.460	0.560
2020/01/31 00:20:17.7	269.030	-0.410	-0.430	0.550
2020/01/31 00:20:17.8	269.020	-0.410	-0.410	0.540
2020/01/31 00:20:17.9	269.010	-0.410	-0.380	0.530
2020/01/31 00:20:18.0	269.010	-0.400	-0.360	0.520
2020/01/31 00:20:18.1	269.000	-0.400	-0.330	0.510
2020/01/31 00:20:18.2	268.990	-0.400	-0.310	0.500
2020/01/31 00:20:18.3	268.990	-0.400	-0.280	0.490
2020/01/31 00:20:18.4	268.980	-0.390	-0.260	0.480
2020/01/31 00:20:18.5	268.980	-0.390	-0.230	0.470
2020/01/31 00:20:18.6	268.970	-0.380	-0.210	0.470
2020/01/31 00:20:18.7	268.970	-0.380	-0.180	0.460
2020/01/31 00:20:18.8	268.970	-0.370	-0.160	0.450
2020/01/31 00:20:18.9	268.960	-0.370	-0.130	0.450
2020/01/31 00:20:19.0	268.960	-0.360	-0.110	0.440
2020/01/31 00:20:19.1	268.960	-0.350	-0.090	0.440
2020/01/31 00:20:19.2	268.960	-0.350	-0.070	0.440
2020/01/31 00:20:19.3	268.950	-0.340	-0.040	0.430
2020/01/31 00:20:19.4	268.950	-0.330	-0.020	0.430
2020/01/31 00:20:19.5	268.950	-0.320	-0.000	0.430
2020/01/31 00:20:19.6	268.950	-0.310	0.020	0.430
2020/01/31 00:20:19.7	268.950	-0.300	0.040	0.430
2020/01/31 00:20:19.8	268.950	-0.290	0.060	0.440
2020/01/31 00:20:19.9	268.950	-0.280	0.080	0.440
2020/01/31 00:20:20.0	268.950	-0.270	0.100	0.450
2020/01/31 00:20:20.1	268.960	-0.260	0.120	0.450
2020/01/31 00:20:20.2	268.960	-0.250	0.140	0.460
2020/01/31 00:20:20.3	268.960	-0.240	0.160	0.470
2020/01/31 00:20:20.4	268.960	-0.230	0.180	0.480
2020/01/31 00:20:20.5	268.970	-0.210	0.200	0.490
2020/01/31 00:20:20.6	268.970	-0.200	0.210	0.510
2020/01/31 00:20:20.7	268.980	-0.190	0.230	0.520
2020/01/31 00:20:20.8	268.990	-0.180	0.250	0.540
2020/01/31 00:20:20.9	269.000	-0.160	0.270	0.550
2020/01/31 00:20:21.0	269.010	-0.150	0.290	0.570
2020/01/31 00:20:21.1	269.020	-0.130	0.300	0.590
2020/01/31 00:20:21.2	269.030	-0.120	0.320	0.610
2020/01/31 00:20:21.3	269.040	-0.110	0.340	0.630
2020/01/31 00:20:21.4	269.050	-0.090	0.350	0.650
2020/01/31 00:20:21.5	269.070	-0.070	0.360	0.670
2020/01/31 00:20:21.6	269.080	-0.060	0.370	0.690
2020/01/31 00:20:21.7	269.100	-0.040	0.390	0.710
2020/01/31 00:20:21.8	269.110	-0.030	0.390	0.730
2020/01/31 00:20:21.9	269.120	-0.010	0.400	0.750
2020/01/31 00:20:22.0	269.130	0.010	0.410	0.770
2020/01/31 00:20:22.1	269.150	0.030	0.410	0.800
2020/01/31 00:20:22.2	269.160	0.040	0.410	0.820
2020/01/31 00:20:22.3	269.180	0.060	0.410	0.840
2020/01/31 00:20:22.4	269.190	0.080	0.410	0.870
2020/01/31 00:20:22.5	269.200	0.100	0.400	0.890
2020/01/31 00:20:22.6	269.210	0.120	0.400	0.910
2020/01/31 00:20:22.7	269.230	0.140	0.390	0.940
2020/01/31 00:20:22.8	269.240	0.160	0.370	0.960
2020/01/31 00:20:22.9	269.250	0.180	0.350	0.980
2020/01/31 00:20:23.0	269.260	0.200	0.340	1.000
2020/01/31 00:20:23.1	269.260	0.220	0.320	1.020
2020/01/31 00:20:23.2	269.270	0.240	0.290	1.040
2020/01/31 00:20:23.3	269.280	0.260	0.270	1.060
2020/01/31 00:20:23.4	269.280	0.270	0.240	1.070
2020/01/31 00:20:23.5	269.280	0.290	0.210	1.090
2020/01/31 00:20:23.6	269.280	0.310	0.180	1.100
2020/01/31 00:20:23.7	269.280	0.330	0.140	1.110
2020/01/31 00:20:23.8	269.280	0.350	0.110	1.120
2020/01/31 00:20:23.9	269.290	0.360	0.070	1.140
2020/01/31 00:20:24.0	269.290	0.380	0.030	1.140
2020/01/31 00:20:24.1	269.280	0.400	-0.010	1.150
2020/01/31 00:20:24.2	269.280	0.410	-0.050	1.160
2020/01/31 00:20:24.3	269.270	0.430	-0.100	1.160
2020/01/31 00:20:24.4	269.270	0.440	-0.140	1.160
2020/01/31 00:20:24.5	269.260	0.450	-0.190	1.160
2020/01/31 00:20:24.6	269.250	0.470	-0.240	1.160
2020/01/31 00:20:24.7	269.250	0.480	-0.280	1.160
2020/01/31 00:20:24.8	269.240	0.490	-0.330	1.160
2020/01/31 00:20:24.9	269.210	0.500	-0.380	1.150
2020/01/31 00:20:25.0	269.200	0.510	-0.420	1.140
2020/01/31 00:20:25.1	269.190	0.510	-0.470	1.130
2020/01/31 00:20:25.2	269.180	0.520	-0.520	1.130
2020/01/31 00:20:25.3	269.170	0.520	-0.560	1.120
2020/01/31 00:20:25.4	269.160	0.530	-0.600	1.110
2020/01/31 00:20:25.5	269.150	0.530	-0.640	1.100
2020/01/31 00:20:25.6	269.140	0.530	-0.680	1.080
2020/01/31 00:20:25.7	269.130	0.530	-0.720	1.070
2020/01/31 00:20:25.8	269.110	0.530	-0.760	1.060
2020/01/31 00:20:25.9	269.110	0.530	-0.790	1.040
2020/01/31 00:20:26.0	269.090	0.520	-0.820	1.030
2020/01/31 00:20:26.1	269.080	0.520	-0.850	1.020
2020/01/31 00:20:26.2	269.070	0.510	-0.880	1.000
2020/01/31 00:20:26.3	269.060	0.500	-0.910	0.980
2020/01/31 00:20:26.4	269.040	0.490	-0.930	0.970
2020/01/31 00:20:26.5	269.030	0.480	-0.950	0.950
2020/01/31 00:20:26.6	269.010	0.470	-0.970	0.930
2020/01/31 00:20:26.7	269.000	0.460	-0.990	0.910
2020/01/31 00:20:26.8	268.990	0.440	-1.000	0.900
2020/01/31 00:20:26.9	268.960	0.430	-1.010	0.880
2020/01/31 00:20:27.0	268.950	0.410	-1.020	0.860
2020/01/31 00:20:27.1	268.930	0.390	-1.020	0.840
2020/01/31 00:20:27.2	268.920	0.370	-1.030	0.820
2020/01/31 00:20:27.3	268.900	0.350	-1.030	0.800
2020/01/31 00:20:27.4	268.890	0.330	-1.030	0.770
2020/01/31 00:20:27.5	268.880	0.310	-1.020	0.750
2020/01/31 00:20:27.6	268.860	0.290	-1.020	0.730
2020/01/31 00:20:27.7	268.850	0.260	-1.010	0.700
2020/01/31 00:20:27.8	268.840	0.240	-1.000	0.680
2020/01/31 00:20:27.9	268.840	0.220	-0.990	0.650
2020/01/31 00:20:28.0	268.830	0.190	-0.980	0.620
2020/01/31 00:20:28.1	268.820	0.170	-0.960	0.600
2020/01/31 00:20:28.2	268.820	0.140	-0.950	0.570
2020/01/31 00:20:28.3	268.810	0.120	-0.930	0.550
2020/01/31 00:20:28.4	268.800	0.090	-0.910	0.520
2020/01/31 00:20:28.5	268.800	0.070	-0.890	0.490
2020/01/31 00:20:28.6	268.790	0.040	-0.870	0.470
2020/01/31 00:20:28.7	268.790	0.020	-0.850	0.440
2020/01/31 00:20:28.8	268.790	-0.010	-0.830	0.420
2020/01/31 00:20:28.9	268.780	-0.030	-0.810	0.400
2020/01/31 00:20:29.0	268.780	-0.060	-0.780	0.380
2020/01/31 00:20:29.1	268.780	-0.080	-0.760	0.360
2020/01/31 00:20:29.2	268.780	-0.110	-0.740	0.340
2020/01/31 00:20:29.3	268.780	-0.130	-0.720	0.330
2020/01/31 00:20:29.4	268.780	-0.150	-0.700	0.310
2020/01/31 00:20:29.5	268.780	-0.170	-0.670	0.310
2020/01/31 00:20:29.6	268.780	-0.190	-0.650	0.300
2020/01/31 00:20:29.7	268.780	-0.220	-0.630	0.290
2020/01/31 00:20:29.8	268.780	-0.240	-0.620	0.290
2020/01/31 00:20:29.9	268.780	-0.250	-0.600	0.290
2020/01/31 00:20:30.0	268.780	-0.270	-0.580	0.290
2020/01/31 00:20:30.1	268.780	-0.290	-0.570	0.300
2020/01/31 00:20:30.2	268.790	-0.310	-0.550	0.310
2020/01/31 00:20:30.3	268.790	-0.320	-0.530	0.320
2020/01/31 00:20:30.4	268.790	-0.340	-0.520	0.330
2020/01/31 00:20:30.5	268.800	-0.350	-0.510	0.350
2020/01/31 00:20:30.6	268.800	-0.360	-0.490	0.360
2020/01/31 00:20:30.7	268.810	-0.380	-0.480	0.380
2020/01/31 00:20:30.8	268.810	-0.390	-0.470	0.400
2020/01/31 00:20:30.9	268.810	-0.400	-0.460	0.430
2020/01/31 00:20:31.0	268.820	-0.400	-0.440	0.450
2020/01/31 00:20:31.1	268.820	-0.410	-0.430	0.480
2020/01/31 00:20:31.2	268.830	-0.420	-0.420	0.500
2020/01/31 00:20:31.3	268.840	-0.420	-0.410	0.530
2020/01/31 00:20:31.4	268.850	-0.420	-0.400	0.560
2020/01/31 00:20:31.5	268.860	-0.430	-0.390	0.580
2020/01/31 00:20:31.6	268.880	-0.430	-0.380	0.610
2020/01/31 00:20:31.7	268.890	-0.430	-0.360	0.630
2020/01/31 00:20:31.8	268.900	-0.430	-0.350	0.660
2020/01/31 00:20:31.9	268.930	-0.420	-0.330	0.680
2020/01/31 00:20:32.0	268.940	-0.420	-0.320	0.700
2020/01/31 00:20:32.1	268.960	-0.420	-0.300	0.720
2020/01/31 00:20:32.2	268.980	-0.410	-0.290	0.730
2020/01/31 00:20:32.3	269.000	-0.400	-0.270	0.750
2020/01/31 00:20:32.4	269.020	-0.400	-0.250	0.760
2020/01/31 00:20:32.5	269.040	-0.390	-0.230	0.770
2020/01/31 00:20:32.6	269.060	-0.380	-0.210	0.780
2020/01/31 00:20:32.7	269.080	-0.370	-0.190	0.780
2020/01/31 00:20:32.8	269.110	-0.360	-0.170	0.790
2020/01/31 00:20:32.9	269.130	-0.350	-0.150	0.790
2020/01/31 00:20:33.0	269.160	-0.340	-0.130	0.800
2020/01/31 00:20:33.1	269.180	-0.330	-0.100	0.800
2020/01/31 00:20:33.2	269.200	-0.310	-0.080	0.800
2020/01/31 00:20:33.3	269.220	-0.300	-0.060	0.800
2020/01/31 00:20:33.4	269.250	-0.290	-0.040	0.800
2020/01/31 00:20:33.5	269.270	-0.270	-0.010	0.800
2020/01/31 00:20:33.6	269.290	-0.260	0.010	0.800
2020/01/31 00:20:33.7	269.310	-0.250	0.030	0.810
2020/01/31 00:20:33.8	269.330	-0.230	0.050	0.810
2020/01/31 00:20:33.9	269.360	-0.220	0.080	0.810
2020/01/31 00:20:34.0	269.370	-0.210	0.100	0.820
2020/01/31 00:20:34.1	269.390	-0.200	0.120	0.820
2020/01/31 00:20:34.2	269.400	-0.180	0.140	0.820
2020/01/31 00:20:34.3	269.410	-0.170	0.160	0.830
2020/01/31 00:20:34.4	269.420	-0.160	0.170	0.830
2020/01/31 00:20:34.5	269.430	-0.150	0.190	0.840
2020/01/31 00:20:34.6	269.440	-0.140	0.210	0.840
2020/01/31 00:20:34.7	269.450	-0.130	0.220	0.850
2020/01/31 00:20:34.8	269.450	-0.120	0.240	0.860
2020/01/31 00:20:34.9	269.450	-0.110	0.260	0.870
2020/01/31 00:20:35.0	269.460	-0.110	0.270	0.870
2020/01/31 00:20:35.1	269.450	-0.100	0.280	0.880
2020/01/31 00:20:35.2	269.450	-0.090	0.300	0.890
2020/01/31 00:20:35.3	269.450	-0.090	0.310	0.890
2020/01/31 00:20:35.4	269.440	-0.080	0.320	0.900
2020/01/31 00:20:35.5	269.440	-0.080	0.330	0.910
2020/01/31 00:20:35.6	269.430	-0.070	0.330	0.910
2020/01/31 00:20:35.7	269.420	-0.070	0.340	0.910
2020/01/31 00:20:35.8	269.410	-0.060	0.350	0.920
2020/01/31 00:20:35.9	269.390	-0.060	0.350	0.920
2020/01/31 00:20:36.0	269.370	-0.060	0.350	0.920
2020/01/31 00:20:36.1	269.360	-0.050	0.350	0.920
2020/01/31 00:20:36.2	269.340	-0.050	0.350	0.910
2020/01/31 00:20:36.3	269.330	-0.050	0.350	0.900
2020/01/31 00:20:36.4	269.310	-0.040	0.340	0.890
2020/01/31 00:20:36.5	269.290	-0.040	0.330	0.880
2020/01/31 00:20:36.6	269.270	-0.040	0.320	0.870
2020/01/31 00:20:36.7	269.250	-0.030	0.310	0.850
2020/01/31 00:20:36.8	269.230	-0.030	0.300	0.830
2020/01/31 00:20:36.9	269.210	-0.030	0.280	0.800
2020/01/31 00:20:37.0	269.190	-0.020	0.260	0.780
2020/01/31 00:20:37.1	269.160	-0.010	0.240	0.750
2020/01/31 00:20:37.2	269.140	-0.010	0.210	0.720
2020/01/31 00:20:37.3	269.120	-0.000	0.190	0.690
2020/01/31 00:20:37.4	269.100	0.010	0.160	0.660
2020/01/31 00:20:37.5	269.080	0.010	0.130	0.630
2020/01/31 00:20:37.6	269.060	0.020	0.090	0.600
2020/01/31 00:20:37.7	269.030	0.030	0.050	0.570
2020/01/31 00:20:37.8	269.010	0.040	0.020	0.540
2020/01/31 00:20:37.9	268.980	0.050	-0.020	0.510
2020/01/31 00:20:38.0	268.960	0.070	-0.060	0.480
2020/01/31 00:20:38.1	268.940	0.080	-0.100	0.450
2020/01/31 00:20:38.2	268.920	0.090	-0.150	0.420
2020/01/31 00:20:38.3	268.900	0.100	-0.190	0.390
2020/01/31 00:20:38.4	268.880	0.120	-0.230	0.360
2020/01/31 00:20:38.5	268.860	0.130	-0.270	0.330
2020/01/31 00:20:38.6	268.830	0.150	-0.320	0.300
2020/01/31 00:20:38.7	268.810	0.160	-0.360	0.280
2020/01/31 00:20:38.8	268.790	0.180	-0.400	0.260
2020/01/31 00:20:38.9	268.770	0.190	-0.440	0.230
2020/01/31 00:20:39.0	268.750	0.210	-0.480	0.210
2020/01/31 00:20:39.1	268.740	0.220	-0.510	0.190
2020/01/31 00:20:39.2	268.720	0.230	-0.550	0.180
2020/01/31 00:20:39.3	268.700	0.250	-0.580	0.170
2020/01/31 00:20:39.4	268.680	0.260	-0.610	0.160
2020/01/31 00:20:39.5	268.660	0.280	-0.640	0.160
2020/01/31 00:20:39.6	268.650	0.290	-0.660	0.150
2020/01/31 00:20:39.7	268.630	0.300	-0.690	0.160
2020/01/31 00:20:39.8	268.610	0.310	-0.710	0.160
2020/01/31 00:20:39.9	268.580	0.320	-0.730	0.170
2020/01/31 00:20:40.0	268.570	0.330	-0.750	0.180
2020/01/31 00:20:40.1	268.550	0.340	-0.760	0.190
2020/01/31 00:20:40.2	268.540	0.350	-0.770	0.200
2020/01/31 00:20:40.3	268.520	0.360	-0.780	0.220
2020/01/31 00:20:40.4	268.510	0.360	-0.790	0.240
2020/01/31 00:20:40.5	268.500	0.370	-0.800	0.260
2020/01/31 00:20:40.6	268.490	0.370	-0.800	0.280
2020/01/31 00:20:40.7	268.480	0.370	-0.800	0.300
2020/01/31 00:20:40.8	268.470	0.370	-0.800	0.320
2020/01/31 00:20:40.9	268.470	0.370	-0.800	0.340
2020/01/31 00:20:41.0	268.460	0.370	-0.790	0.370
2020/01/31 00:20:41.1	268.460	0.360	-0.790	0.390
2020/01/31 00:20:41.2	268.450	0.350	-0.780	0.410
2020/01/31 00:20:41.3	268.450	0.350	-0.770	0.440
2020/01/31 00:20:41.4	268.450	0.340	-0.760	0.460
2020/01/31 00:20:41.5	268.450	0.320	-0.750	0.480
2020/01/31 00:20:41.6	268.450	0.310	-0.730	0.500
2020/01/31 00:20:41.7	268.450	0.300	-0.720	0.520
2020/01/31 00:20:41.8	268.460	0.280	-0.700	0.540
2020/01/31 00:20:41.9	268.450	0.270	-0.680	0.560
2020/01/31 00:20:42.0	268.460	0.250	-0.660	0.570
2020/01/31 00:20:42.1	268.460	0.230	-0.640	0.580
2020/01/31 00:20:42.2	268.470	0.210	-0.620	0.600
2020/01/31 00:20:42.3	268.480	0.190	-0.600	0.610
2020/01/31 00:20:42.4	268.490	0.170	-0.580	0.610
2020/01/31 00:20:42.5	268.510	0.140	-0.560	0.620
2020/01/31 00:20:42.6	268.520	0.120	-0.540	0.620
2020/01/31 00:20:42.7	268.530	0.100	-0.520	0.620
2020/01/31 00:20:42.8	268.550	0.070	-0.490	0.620
2020/01/31 00:20:42.9	268.570	0.050	-0.470	0.620
2020/01/31 00:20:43.0	268.590	0.020	-0.450	0.610
2020/01/31 00:20:43.1	268.610	-0.000	-0.430	0.610
2020/01/31 00:20:43.2	268.630	-0.030	-0.410	0.600
2020/01/31 00:20:43.3	268.650	-0.050	-0.390	0.590
2020/01/31 00:20:43.4	268.670	-0.070	-0.370	0.570
2020/01/31 00:20:43.5	268.700	-0.100	-0.350	0.560
2020/01/31 00:20:43.6	268.730	-0.120	-0.330	0.540
2020/01/31 00:20:43.7	268.750	-0.140	-0.320	0.520
2020/01/31 00:20:43.8	268.780	-0.160	-0.300	0.500
2020/01/31 00:20:43.9	268.820	-0.190	-0.280	0.480
2020/01/31 00:20:44.0	268.850	-0.210	-0.270	0.450
2020/01/31 00:20:44.1	268.890	-0.220	-0.260	0.430
2020/01/31 00:20:44.2	268.920	-0.240	-0.250	0.400
2020/01/31 00:20:44.3	268.950	-0.260	-0.240	0.380
2020/01/31 00:20:44.4	268.990	-0.270	-0.230	0.360
2020/01/31 00:20:44.5	269.020	-0.290	-0.220	0.330
2020/01/31 00:20:44.6	269.060	-0.300	-0.210	0.310
2020/01/31 00:20:44.7	269.090	-0.310	-0.210	0.280
2020/01/31 00:20:44.8	269.130	-0.320	-0.210	0.260
2020/01/31 00:20:44.9	269.160	-0.320	-0.210	0.240
2020/01/31 00:20:45.0	269.190	-0.330	-0.210	0.220
2020/01/31 00:20:45.1	269.230	-0.330	-0.210	0.210
2020/01/31 00:20:45.2	269.260	-0.330	-0.210	0.190
2020/01/31 00:20:45.3	269.300	-0.330	-0.210	0.170
2020/01/31 00:20:45.4	269.330	-0.330	-0.220	0.160
2020/01/31 00:20:45.5	269.370	-0.320	-0.220	0.150
2020/01/31 00:20:45.6	269.400	-0.320	-0.230	0.140
2020/01/31 00:20:45.7	269.430	-0.310	-0.240	0.140
2020/01/31 00:20:45.8	269.470	-0.300	-0.250	0.130
2020/01/31 00:20:45.9	269.500	-0.290	-0.260	0.120
2020/01/31 00:20:46.0	269.530	-0.270	-0.270	0.130
2020/01/31 00:20:46.1	269.560	-0.260	-0.280	0.130
2020/01/31 00:20:46.2	269.590	-0.240	-0.290	0.140
2020/01/31 00:20:46.3	269.620	-0.230	-0.300	0.150
2020/01/31 00:20:46.4	269.650	-0.210	-0.310	0.160
2020/01/31 00:20:46.5	269.670	-0.190	-0.320	0.180
2020/01/31 00:20:46.6	269.700	-0.170	-0.340	0.190
2020/01/31 00:20:46.7	269.720	-0.140	-0.350	0.220
2020/01/31 00:20:46.8	269.740	-0.120	-0.360	0.240
2020/01/31 00:20:46.9	269.770	-0.100	-0.380	0.270
2020/01/31 00:20:47.0	269.780	-0.070	-0.390	0.300
2020/01/31 00:20:47.1	269.800	-0.050	-0.410	0.330
2020/01/31 00:20:47.2	269.810	-0.020	-0.420	0.370
2020/01/31 00:20:47.3	269.820	0.000	-0.430	0.410
2020/01/31 00:20:47.4	269.830	0.030	-0.450	0.440
2020/01/31 00:20:47.5	269.840	0.060	-0.460	0.480
2020/01/31 00:20:47.6	269.840	0.080	-0.470	0.520
2020/01/31 00:20:47.7	269.840	0.110	-0.480	0.560
2020/01/31 00:20:47.8	269.840	0.130	-0.490	0.600
2020/01/31 00:20:47.9	269.840	0.160	-0.490	0.630
2020/01/31 00:20:48.0	269.830	0.180	-0.490	0.670
2020/01/31 00:20:48.1	269.820	0.200	-0.500	0.710
2020/01/31 00:20:48.2	269.810	0.230	-0.500	0.750
2020/01/31 00:20:48.3	269.790	0.250	-0.500	0.780
2020/01/31 00:20:48.4	269.770	0.270	-0.490	0.820
2020/01/31 00:20:48.5	269.760	0.280	-0.490	0.850
2020/01/31 00:20:48.6	269.730	0.300	-0.480	0.880
2020/01/31 00:20:48.7	269.710	0.310	-0.470	0.920
2020/01/31 00:20:48.8	269.680	0.320	-0.460	0.950
2020/01/31 00:20:48.9	269.650	0.330	-0.450	0.980
2020/01/31 00:20:49.0	269.620	0.340	-0.430	1.000
2020/01/31 00:20:49.1	269.590	0.340	-0.410	1.030
2020/01/31 00:20:49.2	269.560	0.340	-0.390	1.050
2020/01/31 00:20:49.3	269.530	0.340	-0.370	1.080
2020/01/31 00:20:49.4	269.490	0.340	-0.350	1.100
2020/01/31 00:20:49.5	269.460	0.330	-0.330	1.110
2020/01/31 00:20:49.6	269.420	0.330	-0.310	1.130
2020/01/31 00:20:49.7	269.380	0.320	-0.280	1.140
2020/01/31 00:20:49.8	269.340	0.300	-0.260	1.160
2020/01/31 00:20:49.9	269.320	0.290	-0.230	1.160
2020/01/31 00:20:50.0	269.280	0.270	-0.210	1.170
2020/01/31 00:20:50.1	269.230	0.260	-0.190	1.170
2020/01/31 00:20:50.2	269.190	0.240	-0.170	1.180
2020/01/31 00:20:50.3	269.150	0.220	-0.150	1.180
2020/01/31 00:20:50.4	269.110	0.190	-0.130	1.180
2020/01/31 00:20:50.5	269.070	0.170	-0.110	1.170
2020/01/31 00:20:50.6	269.020	0.150	-0.090	1.160
2020/01/31 00:20:50.7	268.980	0.120	-0.080	1.150
2020/01/31 00:20:50.8	268.940	0.100	-0.070	1.140
2020/01/31 00:20:50.9	268.910	0.070	-0.060	1.130
2020/01/31 00:20:51.0	268.870	0.050	-0.050	1.110
2020/01/31 00:20:51.1	268.830	0.020	-0.040	1.100
2020/01/31 00:20:51.2	268.790	-0.010	-0.040	1.080
2020/01/31 00:20:51.3	268.760	-0.030	-0.030	1.060
2020/01/31 00:20:51.4	268.730	-0.050	-0.030	1.040
2020/01/31 00:20:51.5	268.690	-0.080	-0.030	1.020
2020/01/31 00:20:51.6	268.660	-0.100	-0.040	1.000
2020/01/31 00:20:51.7	268.640	-0.120	-0.040	0.980
2020/01/31 00:20:51.8	268.610	-0.140	-0.050	0.960
2020/01/31 00:20:51.9	268.590	-0.160	-0.060	0.930
2020/01/31 00:20:52.0	268.560	-0.180	-0.070	0.910
2020/01/31 00:20:52.1	268.540	-0.190	-0.080	0.890
2020/01/31 00:20:52.2	268.520	-0.210	-0.100	0.870
2020/01/31 00:20:52.3	268.490	-0.220	-0.110	0.850
2020/01/31 00:20:52.4	268.470	-0.230	-0.130	0.840
2020/01/31 00:20:52.5	268.450	-0.230	-0.140	0.820
2020/01/31 00:20:52.6	268.440	-0.240	-0.160	0.810
2020/01/31 00:20:52.7	268.420	-0.240	-0.170	0.790
2020/01/31 00:20:52.8	268.400	-0.240	-0.190	0.780
2020/01/31 00:20:52.9	268.380	-0.240	-0.210	0.780
2020/01/31 00:20:53.0	268.360	-0.240	-0.220	0.770
2020/01/31 00:20:53.1	268.350	-0.240	-0.240	0.760
2020/01/31 00:20:53.2	268.330	-0.230	-0.250	0.750
2020/01/31 00:20:53.3	268.320	-0.220	-0.260	0.750
2020/01/31 00:20:53.4	268.310	-0.220	-0.270	0.750
2020/01/31 00:20:53.5	268.300	-0.210	-0.280	0.740
2020/01/31 00:20:53.6	268.280	-0.200	-0.290	0.740
2020/01/31 00:20:53.7	268.270	-0.180	-0.300	0.740
2020/01/31 00:20:53.8	268.270	-0.170	-0.300	0.740
2020/01/31 00:20:53.9	268.270	-0.160	-0.310	0.740
2020/01/31 00:20:54.0	268.260	-0.150	-0.310	0.740
2020/01/31 00:20:54.1	268.250	-0.130	-0.310	0.740
2020/01/31 00:20:54.2	268.250	-0.120	-0.310	0.750
2020/01/31 00:20:54.3	268.250	-0.110	-0.310	0.750
2020/01/31 00:20:54.4	268.240	-0.090	-0.300	0.750
2020/01/31 00:20:54.5	268.240	-0.080	-0.300	0.750
2020/01/31 00:20:54.6	268.240	-0.070	-0.290	0.760
2020/01/31 00:20:54.7	268.250	-0.060	-0.280	0.760
2020/01/31 00:20:54.8	268.250	-0.050	-0.270	0.760
2020/01/31 00:20:54.9	268.230	-0.040	-0.260	0.770
2020/01/31 00:20:55.0	268.240	-0.030	-0.250	0.770
2020/01/31 00:20:55.1	268.250	-0.020	-0.230	0.780
2020/01/31 00:20:55.2	268.260	-0.020	-0.210	0.780
2020/01/31 00:20:55.3	268.270	-0.010	-0.200	0.780
2020/01/31 00:20:55.4	268.290	-0.010	-0.180	0.780
2020/01/31 00:20:55.5	268.310	-0.010	-0.160	0.790
2020/01/31 00:20:55.6	268.320	-0.010	-0.150	0.790
2020/01/31 00:20:55.7	268.350	-0.010	-0.130	0.790
2020/01/31 00:20:55.8	268.370	-0.010	-0.110	0.790
2020/01/31 00:20:55.9	268.390	-0.020	-0.090	0.780
2020/01/31 00:20:56.0	268.420	-0.020	-0.070	0.780
2020/01/31 00:20:56.1	268.450	-0.030	-0.060	0.780
2020/01/31 00:20:56.2	268.480	-0.030	-0.040	0.770
2020/01/31 00:20:56.3	268.510	-0.040	-0.030	0.770
2020/01/31 00:20:56.4	268.550	-0.050	-0.020	0.760
2020/01/31 00:20:56.5	268.580	-0.050	-0.010	0.750
2020/01/31 00:20:56.6	268.620	-0.060	0.000	0.740
2020/01/31 00:20:56.7	268.660	-0.070	0.010	0.730
2020/01/31 00:20:56.8	268.700	-0.080	0.010	0.720
2020/01/31 00:20:56.9	268.740	-0.080	0.020	0.710
2020/01/31 00:20:57.0	268.790	-0.090	0.020	0.690
2020/01/31 00:20:57.1	268.830	-0.090	0.010	0.670
2020/01/31 00:20:57.2	268.870	-0.100	0.010	0.650
2020/01/31 00:20:57.3	268.910	-0.100	0.000	0.630
2020/01/31 00:20:57.4	268.960	-0.110	-0.010	0.610
2020/01/31 00:20:57.5	269.000	-0.110	-0.020	0.590
2020/01/31 00:20:57.6	269.040	-0.110	-0.030	0.570
2020/01/31 00:20:57.7	269.080	-0.110	-0.050	0.540
2020/01/31 00:20:57.8	269.130	-0.110	-0.070	0.520
2020/01/31 00:20:57.9	269.170	-0.110	-0.090	0.490
2020/01/31 00:20:58.0	269.210	-0.100	-0.120	0.470
2020/01/31 00:20:58.1	269.250	-0.100	-0.150	0.440
2020/01/31 00:20:58.2	269.290	-0.100	-0.180	0.410
2020/01/31 00:20:58.3	269.330	-0.090	-0.210	0.390
2020/01/31 00:20:58.4	269.360	-0.080	-0.250	0.360
2020/01/31 00:20:58.5	269.400	-0.080	-0.280	0.330
2020/01/31 00:20:58.6	269.440	-0.070	-0.320	0.310
2020/01/31 00:20:58.7	269.470	-0.060	-0.360	0.290
2020/01/31 00:20:58.8	269.500	-0.050	-0.400	0.260
2020/01/31 00:20:58.9	269.520	-0.040	-0.440	0.250
2020/01/31 00:20:59.0	269.550	-0.030	-0.480	0.230
2020/01/31 00:20:59.1	269.580	-0.020	-0.520	0.210
2020/01/31 00:20:59.2	269.610	-0.010	-0.560	0.200
2020/01/31 00:20:59.3	269.630	0.000	-0.600	0.190
2020/01/31 00:20:59.4	269.650	0.010	-0.640	0.190
2020/01/31 00:20:59.5	269.670	0.020	-0.680	0.180
2020/01/31 00:20:59.6	269.680	0.030	-0.710	0.180
2020/01/31 00:20:59.7	269.700	0.040	-0.740	0.190
2020/01/31 00:20:59.8	269.710	0.050	-0.770	0.200
2020/01/31 00:20:59.9	269.720	0.060	-0.800	0.200
2020/01/31 00:21:00.0	269.730	0.070	-0.830	0.220
2020/01/31 00:21:00.1	269.730	0.070	-0.850	0.240
2020/01/31 00:21:00.2	269.730	0.080	-0.870	0.260
2020/01/31 00:21:00.3	269.730	0.080	-0.880	0.290
2020/01/31 00:21:00.4	269.720	0.090	-0.890	0.320
2020/01/31 00:21:00.5	269.720	0.090	-0.900	0.350
2020/01/31 00:21:00.6	269.710	0.100	-0.910	0.390
2020/01/31 00:21:00.7	269.690	0.100	-0.910	0.430
2020/01/31 00:21:00.8	269.680	0.100	-0.910	0.470
2020/01/31 00:21:00.9	269.650	0.110	-0.910	0.520
2020/01/31 00:21:01.0	269.630	0.110	-0.910	0.560
2020/01/31 00:21:01.1	269.600	0.110	-0.900	0.610
2020/01/31 00:21:01.2	269.580	0.110	-0.890	0.660
2020/01/31 00:21:01.3	269.550	0.110	-0.880	0.710
2020/01/31 00:21:01.4	269.520	0.110	-0.860	0.760
2020/01/31 00:21:01.5	269.490	0.110	-0.850	0.810
2020/01/31 00:21:01.6	269.460	0.100	-0.830	0.850
2020/01/31 00:21:01.7	269.420	0.100	-0.820	0.900
2020/01/31 00:21:01.8	269.390	0.100	-0.800	0.950
2020/01/31 00:21:01.9	269.340	0.100	-0.780	1.000
2020/01/31 00:21:02.0	269.310	0.100	-0.760	1.050
2020/01/31 00:21:02.1	269.260	0.090	-0.740	1.090
2020/01/31 00:21:02.2	269.220	0.090	-0.720	1.140
2020/01/31 00:21:02.3	269.180	0.090	-0.700	1.180
2020/01/31 00:21:02.4	269.140	0.090	-0.680	1.230
2020/01/31 00:21:02.5	269.090	0.090	-0.670	1.270
2020/01/31 00:21:02.6	269.050	0.090	-0.650	1.310
2020/01/31 00:21:02.7	269.000	0.090	-0.630	1.350
2020/01/31 00:21:02.8	268.950	0.080	-0.610	1.380
2020/01/31 00:21:02.9	268.910	0.080	-0.600	1.420
2020/01/31 00:21:03.0	268.860	0.080	-0.580	1.450
2020/01/31 00:21:03.1	268.800	0.080	-0.560	1.480
2020/01/31 00:21:03.2	268.750	0.090	-0.550	1.510
2020/01/31 00:21:03.3	268.700	0.090	-0.530	1.540
2020/01/31 00:21:03.4	268.650	0.090	-0.520	1.560
2020/01/31 00:21:03.5	268.600	0.090	-0.500	1.580
2020/01/31 00:21:03.6	268.550	0.090	-0.490	1.600
2020/01/31 00:21:03.7	268.490	0.090	-0.470	1.610
2020/01/31 00:21:03.8	268.440	0.100	-0.460	1.620
2020/01/31 00:21:03.9	268.390	0.100	-0.440	1.630
2020/01/31 00:21:04.0	268.340	0.100	-0.420	1.640
2020/01/31 00:21:04.1	268.290	0.100	-0.400	1.640
2020/01/31 00:21:04.2	268.250	0.110	-0.380	1.640
2020/01/31 00:21:04.3	268.200	0.110	-0.360	1.640
2020/01/31 00:21:04.4	268.150	0.110	-0.340	1.630
2020/01/31 00:21:04.5	268.110	0.110	-0.320	1.620
2020/01/31 00:21:04.6	268.070	0.110	-0.300	1.610
2020/01/31 00:21:04.7	268.030	0.110	-0.280	1.600
2020/01/31 00:21:04.8	267.990	0.110	-0.250	1.580
2020/01/31 00:21:04.9	267.950	0.110	-0.230	1.560
2020/01/31 00:21:05.0	267.920	0.110	-0.200	1.540
2020/01/31 00:21:05.1	267.890	0.100	-0.170	1.520
2020/01/31 00:21:05.2	267.860	0.100	-0.150	1.490
2020/01/31 00:21:05.3	267.840	0.090	-0.120	1.470
2020/01/31 00:21:05.4	267.820	0.090	-0.090	1.440
2020/01/31 00:21:05.5	267.800	0.080	-0.060	1.410
2020/01/31 00:21:05.6	267.780	0.070	-0.030	1.370
2020/01/31 00:21:05.7	267.770	0.070	-0.010	1.340
2020/01/31 00:21:05.8	267.760	0.060	0.020	1.300
2020/01/31 00:21:05.9	267.750	0.050	0.050	1.270
2020/01/31 00:21:06.0	267.750	0.040	0.080	1.230
2020/01/31 00:21:06.1	267.750	0.030	0.110	1.190
2020/01/31 00:21:06.2	267.750	0.020	0.130	1.150
2020/01/31 00:21:06.3	267.760	0.010	0.160	1.110
2020/01/31 00:21:06.4	267.770	-0.000	0.180	1.060
2020/01/31 00:21:06.5	267.780	-0.020	0.210	1.020
2020/01/31 00:21:06.6	267.800	-0.030	0.230	0.970
2020/01/31 00:21:06.7	267.820	-0.040	0.250	0.930
2020/01/31 00:21:06.8	267.840	-0.050	0.270	0.890
2020/01/31 00:21:06.9	267.870	-0.060	0.280	0.840
2020/01/31 00:21:07.0	267.900	-0.070	0.300	0.800
2020/01/31 00:21:07.1	267.930	-0.080	0.320	0.760
2020/01/31 00:21:07.2	267.960	-0.080	0.330	0.710
2020/01/31 00:21:07.3	268.000	-0.090	0.340	0.670
2020/01/31 00:21:07.4	268.030	-0.100	0.350	0.640
2020/01/31 00:21:07.5	268.070	-0.100	0.360	0.600
2020/01/31 00:21:07.6	268.110	-0.100	0.370	0.560
2020/01/31 00:21:07.7	268.150	-0.110	0.380	0.530
2020/01/31 00:21:07.8	268.190	-0.110	0.380	0.500
2020/01/31 00:21:07.9	268.250	-0.110	0.380	0.470
2020/01/31 00:21:08.0	268.290	-0.110	0.380	0.450
2020/01/31 00:21:08.1	268.340	-0.100	0.380	0.420
2020/01/31 00:21:08.2	268.380	-0.100	0.380	0.400
2020/01/31 00:21:08.3	268.430	-0.090	0.380	0.380
2020/01/31 00:21:08.4	268.470	-0.090	0.370	0.360
2020/01/31 00:21:08.5	268.520	-0.080	0.370	0.350
2020/01/31 00:21:08.6	268.570	-0.070	0.360	0.340
2020/01/31 00:21:08.7	268.620	-0.060	0.350	0.330
2020/01/31 00:21:08.8	268.660	-0.050	0.340	0.320
2020/01/31 00:21:08.9	268.700	-0.040	0.320	0.320
2020/01/31 00:21:09.0	268.750	-0.030	0.310	0.310
2020/01/31 00:21:09.1	268.800	-0.020	0.290	0.310
2020/01/31 00:21:09.2	268.840	-0.010	0.270	0.310
2020/01/31 00:21:09.3	268.890	0.000	0.250	0.320
2020/01/31 00:21:09.4	268.930	0.010	0.230	0.320
2020/01/31 00:21:09.5	268.970	0.030	0.200	0.330
2020/01/31 00:21:09.6	269.010	0.040	0.180	0.340
2020/01/31 00:21:09.7	269.050	0.050	0.150	0.350
2020/01/31 00:21:09.8	269.090	0.060	0.120	0.360
2020/01/31 00:21:09.9	269.140	0.070	0.080	0.370
2020/01/31 00:21:10.0	269.170	0.080	0.040	0.380
2020/01/31 00:21:10.1	269.210	0.090	0.010	0.390
2020/01/31 00:21:10.2	269.240	0.100	-0.030	0.410
2020/01/31 00:21:10.3	269.280	0.100	-0.070	0.420
2020/01/31 00:21:10.4	269.310	0.110	-0.110	0.440
2020/01/31 00:21:10.5	269.340	0.120	-0.150	0.450
2020/01/31 00:21:10.6	269.360	0.120	-0.190	0.470
2020/01/31 00:21:10.7	269.390	0.130	-0.240	0.480
2020/01/31 00:21:10.8	269.420	0.130	-0.280	0.490
2020/01/31 00:21:10.9	269.440	0.140	-0.320	0.510
2020/01/31 00:21:11.0	269.470	0.140	-0.370	0.520
2020/01/31 00:21:11.1	269.480	0.140	-0.410	0.540
2020/01/31 00:21:11.2	269.500	0.140	-0.450	0.550
2020/01/31 00:21:11.3	269.520	0.140	-0.500	0.560
2020/01/31 00:21:11.4	269.530	0.140	-0.540	0.580
2020/01/31 00:21:11.5	269.550	0.140	-0.580	0.590
2020/01/31 00:21:11.6	269.560	0.140	-0.620	0.600
2020/01/31 00:21:11.7	269.570	0.140	-0.660	0.610
2020/01/31 00:21:11.8	269.580	0.130	-0.690	0.620
2020/01/31 00:21:11.9	269.590	0.130	-0.720	0.630
2020/01/31 00:21:12.0	269.590	0.120	-0.760	0.640
2020/01/31 00:21:12.1	269.600	0.120	-0.790	0.650
2020/01/31 00:21:12.2	269.610	0.110	-0.810	0.650
2020/01/31 00:21:12.3	269.610	0.110	-0.840	0.660
2020/01/31 00:21:12.4	269.610	0.100	-0.860	0.660
2020/01/31 00:21:12.5	269.610	0.090	-0.880	0.660
2020/01/31 00:21:12.6	269.620	0.080	-0.900	0.660
2020/01/31 00:21:12.7	269.620	0.070	-0.910	0.660
2020/01/31 00:21:12.8	269.620	0.060	-0.930	0.660
2020/01/31 00:21:12.9	269.610	0.050	-0.940	0.660
2020/01/31 00:21:13.0	269.610	0.040	-0.950	0.650
2020/01/31 00:21:13.1	269.600	0.030	-0.950	0.640
2020/01/31 00:21:13.2	269.600	0.020	-0.960	0.640
2020/01/31 00:21:13.3	269.600	0.010	-0.960	0.630
2020/01/31 00:21:13.4	269.590	-0.000	-0.970	0.620
2020/01/31 00:21:13.5	269.590	-0.020	-0.970	0.610
2020/01/31 00:21:13.6	269.580	-0.030	-0.970	0.600
2020/01/31 00:21:13.7	269.580	-0.040	-0.970	0.590
2020/01/31 00:21:13.8	269.570	-0.050	-0.970	0.580
2020/01/31 00:21:13.9	269.560	-0.060	-0.970	0.570
2020/01/31 00:21:14.0	269.550	-0.070	-0.970	0.560
2020/01/31 00:21:14.1	269.540	-0.090	-0.970	0.550
2020/01/31 00:21:14.2	269.530	-0.100	-0.960	0.540
2020/01/31 00:21:14.3	269.510	-0.110	-0.960	0.530
2020/01/31 00:21:14.4	269.500	-0.120	-0.960	0.510
2020/01/31 00:21:14.5	269.490	-0.130	-0.960	0.500
2020/01/31 00:21:14.6	269.480	-0.140	-0.950	0.490
2020/01/31 00:21:14.7	269.460	-0.150	-0.950	0.480
2020/01/31 00:21:14.8	269.450	-0.160	-0.940	0.460
2020/01/31 00:21:14.9	269.430	-0.170	-0.940	0.450
2020/01/31 00:21:15.0	269.410	-0.180	-0.930	0.440
2020/01/31 00:21:15.1	269.400	-0.190	-0.920	0.430
2020/01/31 00:21:15.2	269.380	-0.200	-0.920	0.420
2020/01/31 00:21:15.3	269.360	-0.210	-0.910	0.410
2020/01/31 00:21:15.4	269.340	-0.220	-0.900	0.400
2020/01/31 00:21:15.5	269.330	-0.230	-0.890	0.390
2020/01/31 00:21:15.6	269.310	-0.240	-0.870	0.380
2020/01/31 00:21:15.7	269.290	-0.250	-0.860	0.370
2020/01/31 00:21:15.8	269.270	-0.260	-0.850	0.360
2020/01/31 00:21:15.9	269.250	-0.270	-0.830	0.360
2020/01/31 00:21:16.0	269.230	-0.270	-0.810	0.350
2020/01/31 00:21:16.1	269.210	-0.280	-0.790	0.350
2020/01/31 00:21:16.2	269.190	-0.290	-0.770	0.340
2020/01/31 00:21:16.3	269.170	-0.300	-0.750	0.340
2020/01/31 00:21:16.4	269.150	-0.300	-0.730	0.330
2020/01/31 00:21:16.5	269.130	-0.310	-0.700	0.330
2020/01/31 00:21:16.6	269.110	-0.310	-0.670	0.320
2020/01/31 00:21:16.7	269.090	-0.320	-0.640	0.320
2020/01/31 00:21:16.8	269.070	-0.320	-0.610	0.310
2020/01/31 00:21:16.9	269.060	-0.330	-0.580	0.310
2020/01/31 00:21:17.0	269.040	-0.330	-0.540	0.310
2020/01/31 00:21:17.1	269.030	-0.330	-0.510	0.310
2020/01/31 00:21:17.2	269.010	-0.330	-0.470	0.310
2020/01/31 00:21:17.3	269.000	-0.340	-0.430	0.310
2020/01/31 00:21:17.4	268.980	-0.340	-0.390	0.310
2020/01/31 00:21:17.5	268.970	-0.340	-0.350	0.310
2020/01/31 00:21:17.6	268.960	-0.330	-0.310	0.310
2020/01/31 00:21:17.7	268.950	-0.330	-0.260	0.310
2020/01/31 00:21:17.8	268.940	-0.330	-0.220	0.310
2020/01/31 00:21:17.9	268.930	-0.330	-0.180	0.320
2020/01/31 00:21:18.0	268.930	-0.320	-0.140	0.330
2020/01/31 00:21:18.1	268.920	-0.320	-0.100	0.330
2020/01/31 00:21:18.2	268.920	-0.320	-0.060	0.340
2020/01/31 00:21:18.3	268.910	-0.310	-0.020	0.350
2020/01/31 00:21:18.4	268.910	-0.300	0.020	0.350
2020/01/31 00:21:18.5	268.910	-0.300	0.060	0.360
2020/01/31 00:21:18.6	268.910	-0.290	0.090	0.370
2020/01/31 00:21:18.7	268.910	-0.280	0.120	0.380
2020/01/31 00:21:18.8	268.910	-0.270	0.150	0.390
2020/01/31 00:21:18.9	268.910	-0.260	0.180	0.400
2020/01/31 00:21:19.0	268.910	-0.250	0.200	0.410
2020/01/31 00:21:19.1	268.910	-0.240	0.220	0.420
2020/01/31 00:21:19.2	268.920	-0.230	0.230	0.440
2020/01/31 00:21:19.3	268.920	-0.220	0.250	0.450
2020/01/31 00:21:19.4	268.930	-0.200	0.260	0.460
2020/01/31 00:21:19.5	268.930	-0.190	0.270	0.480
2020/01/31 00:21:19.6	268.940	-0.180	0.270	0.490
2020/01/31 00:21:19.7	268.950	-0.160	0.270	0.500
2020/01/31 00:21:19.8	268.960	-0.150	0.270	0.520
2020/01/31 00:21:19.9	268.960	-0.130	0.270	0.530
2020/01/31 00:21:20.0	268.970	-0.120	0.260	0.550
2020/01/31 00:21:20.1	268.980	-0.100	0.250	0.570
2020/01/31 00:21:20.2	268.990	-0.090	0.240	0.580
2020/01/31 00:21:20.3	269.010	-0.070	0.230	0.600
2020/01/31 00:21:20.4	269.020	-0.060	0.220	0.620
2020/01/31 00:21:20.5	269.030	-0.040	0.210	0.640
2020/01/31 00:21:20.6	269.040	-0.020	0.200	0.660
2020/01/31 00:21:20.7	269.050	-0.010	0.190	0.680
2020/01/31 00:21:20.8	269.060	0.010	0.170	0.700
2020/01/31 00:21:20.9	269.060	0.020	0.160	0.720
2020/01/31 00:21:21.0	269.070	0.040	0.150	0.750
2020/01/31 00:21:21.1	269.080	0.050	0.140	0.770
2020/01/31 00:21:21.2	269.090	0.070	0.130	0.800
2020/01/31 00:21:21.3	269.100	0.080	0.120	0.820
2020/01/31 00:21:21.4	269.110	0.100	0.120	0.850
2020/01/31 00:21:21.5	269.120	0.110	0.110	0.880
2020/01/31 00:21:21.6	269.120	0.120	0.110	0.900
2020/01/31 00:21:21.7	269.130	0.130	0.110	0.930
2020/01/31 00:21:21.8	269.130	0.150	0.110	0.960
2020/01/31 00:21:21.9	269.140	0.160	0.100	0.990
2020/01/31 00:21:22.0	269.140	0.170	0.100	1.020
2020/01/31 00:21:22.1	269.150	0.180	0.110	1.040
2020/01/31 00:21:22.2	269.150	0.180	0.110	1.070
2020/01/31 00:21:22.3	269.150	0.190	0.120	1.100
2020/01/31 00:21:22.4	269.150	0.200	0.120	1.120
2020/01/31 00:21:22.5	269.160	0.210	0.130	1.150
2020/01/31 00:21:22.6	269.160	0.210	0.140	1.170
2020/01/31 00:21:22.7	269.160	0.220	0.140	1.190
2020/01/31 00:21:22.8	269.160	0.220	0.150	1.210
2020/01/31 00:21:22.9	269.170	0.220	0.160	1.230
2020/01/31 00:21:23.0	269.170	0.220	0.170	1.240
2020/01/31 00:21:23.1	269.170	0.230	0.180	1.260
2020/01/31 00:21:23.2	269.170	0.230	0.180	1.270
2020/01/31 00:21:23.3	269.180	0.230	0.190	1.280
2020/01/31 00:21:23.4	269.180	0.230	0.190	1.280
2020/01/31 00:21:23.5	269.180	0.230	0.190	1.290
2020/01/31 00:21:23.6	269.180	0.230	0.200	1.290
2020/01/31 00:21:23.7	269.180	0.220	0.200	1.280
2020/01/31 00:21:23.8	269.190	0.220	0.190	1.280
2020/01/31 00:21:23.9	269.190	0.220	0.180	1.270
2020/01/31 00:21:24.0	269.200	0.220	0.180	1.260
2020/01/31 00:21:24.1	269.200	0.220	0.170	1.250
2020/01/31 00:21:24.2	269.210	0.220	0.160	1.230
2020/01/31 00:21:24.3	269.210	0.220	0.140	1.210
2020/01/31 00:21:24.4	269.210	0.220	0.130	1.190
2020/01/31 00:21:24.5	269.220	0.210	0.110	1.170
2020/01/31 00:21:24.6	269.220	0.210	0.080	1.150
2020/01/31 00:21:24.7	269.230	0.210	0.060	1.120
2020/01/31 00:21:24.8	269.230	0.210	0.030	1.100
2020/01/31 00:21:24.9	269.240	0.220	-0.000	1.070
2020/01/31 00:21:25.0	269.250	0.220	-0.040	1.040
2020/01/31 00:21:25.1	269.250	0.220	-0.070	1.010
2020/01/31 00:21:25.2	269.240	0.220	-0.110	0.980
2020/01/31 00:21:25.3	269.240	0.230	-0.140	0.960
2020/01/31 00:21:25.4	269.240	0.230	-0.180	0.930
2020/01/31 00:21:25.5	269.240	0.240	-0.230	0.900
2020/01/31 00:21:25.6	269.230	0.240	-0.270	0.870
2020/01/31 00:21:25.7	269.230	0.250	-0.310	0.840
2020/01/31 00:21:25.8	269.220	0.250	-0.360	0.810
2020/01/31 00:21:25.9	269.200	0.260	-0.400	0.780
2020/01/31 00:21:26.0	269.190	0.270	-0.440	0.760
2020/01/31 00:21:26.1	269.190	0.270	-0.490	0.730
2020/01/31 00:21:26.2	269.180	0.280	-0.530	0.700
2020/01/31 00:21:26.3	269.170	0.290	-0.580	0.680
2020/01/31 00:21:26.4	269.160	0.300	-0.620	0.660
2020/01/31 00:21:26.5	269.150	0.300	-0.660	0.640
2020/01/31 00:21:26.6	269.140	0.310	-0.700	0.620
2020/01/31 00:21:26.7	269.130	0.320	-0.740	0.600
2020/01/31 00:21:26.8	269.110	0.320	-0.780	0.590
2020/01/31 00:21:26.9	269.090	0.330	-0.820	0.570
2020/01/31 00:21:27.0	269.080	0.340	-0.850	0.560
2020/01/31 00:21:27.1	269.070	0.340	-0.880	0.550
2020/01/31 00:21:27.2	269.060	0.340	-0.910	0.540
2020/01/31 00:21:27.3	269.050	0.350	-0.930	0.530
2020/01/31 00:21:27.4	269.040	0.350	-0.950	0.520
2020/01/31 00:21:27.5	269.030	0.350	-0.970	0.520
2020/01/31 00:21:27.6	269.020	0.350	-0.990	0.510
2020/01/31 00:21:27.7	269.010	0.340	-1.000	0.510
2020/01/31 00:21:27.8	269.000	0.340	-1.010	0.510
2020/01/31 00:21:27.9	268.990	0.340	-1.020	0.510
2020/01/31 00:21:28.0	268.990	0.330	-1.020	0.510
2020/01/31 00:21:28.1	268.980	0.320	-1.020	0.520
2020/01/31 00:21:28.2	268.970	0.310	-1.010	0.520
2020/01/31 00:21:28.3	268.960	0.300	-1.010	0.530
2020/01/31 00:21:28.4	268.960	0.290	-1.000	0.540
2020/01/31 00:21:28.5	268.950	0.270	-0.990	0.550
2020/01/31 00:21:28.6	268.940	0.260	-0.970	0.560
2020/01/31 00:21:28.7	268.940	0.240	-0.960	0.570
2020/01/31 00:21:28.8	268.940	0.220	-0.940	0.580
2020/01/31 00:21:28.9	268.930	0.210	-0.910	0.600
2020/01/31 00:21:29.0	268.930	0.190	-0.890	0.610
2020/01/31 00:21:29.1	268.920	0.170	-0.860	0.630
2020/01/31 00:21:29.2	268.920	0.150	-0.840	0.640
2020/01/31 00:21:29.3	268.920	0.120	-0.810	0.660
2020/01/31 00:21:29.4	268.920	0.100	-0.780	0.680
2020/01/31 00:21:29.5	268.920	0.080	-0.760	0.700
2020/01/31 00:21:29.6	268.920	0.060	-0.730	0.720
2020/01/31 00:21:29.7	268.920	0.040	-0.700	0.740
2020/01/31 00:21:29.8	268.930	0.020	-0.670	0.760
2020/01/31 00:21:29.9	268.930	-0.010	-0.640	0.780
2020/01/31 00:21:30.0	268.930	-0.030	-0.620	0.800
2020/01/31 00:21:30.1	268.940	-0.040	-0.590	0.820
2020/01/31 00:21:30.2	268.940	-0.060	-0.560	0.840
2020/01/31 00:21:30.3	268.950	-0.080	-0.540	0.860
2020/01/31 00:21:30.4	268.950	-0.100	-0.520	0.880
2020/01/31 00:21:30.5	268.960	-0.110	-0.500	0.890
2020/01/31 00:21:30.6	268.960	-0.130	-0.480	0.910
2020/01/31 00:21:30.7	268.970	-0.140	-0.470	0.920
2020/01/31 00:21:30.8	268.980	-0.150	-0.450	0.930
2020/01/31 00:21:30.9	268.980	-0.160	-0.440	0.950
2020/01/31 00:21:31.0	268.990	-0.170	-0.430	0.950
2020/01/31 00:21:31.1	269.000	-0.180	-0.420	0.960
2020/01/31 00:21:31.2	269.010	-0.190	-0.420	0.960
2020/01/31 00:21:31.3	269.020	-0.190	-0.420	0.970
2020/01/31 00:21:31.4	269.030	-0.190	-0.420	0.970
2020/01/31 00:21:31.5	269.040	-0.200	-0.420	0.970
2020/01/31 00:21:31.6	269.050	-0.200	-0.430	0.970
2020/01/31 00:21:31.7	269.060	-0.200	-0.440	0.960
2020/01/31 00:21:31.8	269.070	-0.200	-0.450	0.960
2020/01/31 00:21:31.9	269.080	-0.200	-0.460	0.950
2020/01/31 00:21:32.0	269.090	-0.190	-0.470	0.940
2020/01/31 00:21:32.1	269.100	-0.190	-0.480	0.930
2020/01/31 00:21:32.2	269.110	-0.190	-0.500	0.920
2020/01/31 00:21:32.3	269.120	-0.180	-0.510	0.900
2020/01/31 00:21:32.4	269.130	-0.180	-0.530	0.890
2020/01/31 00:21:32.5	269.140	-0.170	-0.550	0.870
2020/01/31 00:21:32.6	269.150	-0.170	-0.560	0.860
2020/01/31 00:21:32.7	269.160	-0.160	-0.580	0.840
2020/01/31 00:21:32.8	269.170	-0.160	-0.590	0.820
2020/01/31 00:21:32.9	269.200	-0.160	-0.600	0.800
2020/01/31 00:21:33.0	269.200	-0.150	-0.620	0.780
2020/01/31 00:21:33.1	269.210	-0.150	-0.630	0.770
2020/01/31 00:21:33.2	269.210	-0.150	-0.630	0.750
2020/01/31 00:21:33.3	269.220	-0.150	-0.640	0.730
2020/01/31 00:21:33.4	269.220	-0.150	-0.640	0.710
2020/01/31 00:21:33.5	269.220	-0.160	-0.650	0.700
2020/01/31 00:21:33.6	269.220	-0.160	-0.650	0.690
2020/01/31 00:21:33.7	269.220	-0.170	-0.640	0.670
2020/01/31 00:21:33.8	269.220	-0.180	-0.640	0.660
2020/01/31 00:21:33.9	269.200	-0.190	-0.630	0.650
2020/01/31 00:21:34.0	269.200	-0.200	-0.610	0.650
2020/01/31 00:21:34.1	269.190	-0.210	-0.600	0.640
2020/01/31 00:21:34.2	269.180	-0.220	-0.580	0.640
2020/01/31 00:21:34.3	269.170	-0.240	-0.560	0.640
2020/01/31 00:21:34.4	269.160	-0.260	-0.530	0.640
2020/01/31 00:21:34.5	269.140	-0.280	-0.510	0.640
2020/01/31 00:21:34.6	269.130	-0.300	-0.480	0.640
2020/01/31 00:21:34.7	269.110	-0.320	-0.450	0.640
2020/01/31 00:21:34.8	269.100	-0.340	-0.410	0.640
2020/01/31 00:21:34.9	269.070	-0.370	-0.380	0.650
2020/01/31 00:21:35.0	269.050	-0.390	-0.340	0.650
2020/01/31 00:21:35.1	269.030	-0.420	-0.300	0.660
2020/01/31 00:21:35.2	269.010	-0.440	-0.260	0.670
2020/01/31 00:21:35.3	268.990	-0.470	-0.220	0.670
2020/01/31 00:21:35.4	268.970	-0.500	-0.180	0.680
2020/01/31 00:21:35.5	268.950	-0.520	-0.140	0.680
2020/01/31 00:21:35.6	268.920	-0.550	-0.090	0.690
2020/01/31 00:21:35.7	268.900	-0.570	-0.050	0.700
2020/01/31 00:21:35.8	268.880	-0.600	-0.000	0.700
2020/01/31 00:21:35.9	268.850	-0.620	0.040	0.710
2020/01/31 00:21:36.0	268.830	-0.640	0.080	0.710
2020/01/31 00:21:36.1	268.810	-0.660	0.130	0.720
2020/01/31 00:21:36.2	268.790	-0.680	0.170	0.720
2020/01/31 00:21:36.3	268.770	-0.690	0.210	0.720
2020/01/31 00:21:36.4	268.750	-0.710	0.250	0.720
2020/01/31 00:21:36.5	268.730	-0.720	0.290	0.720
2020/01/31 00:21:36.6	268.710	-0.730	0.330	0.720
2020/01/31 00:21:36.7	268.700	-0.730	0.370	0.720
2020/01/31 00:21:36.8	268.680	-0.740	0.410	0.720
2020/01/31 00:21:36.9	268.670	-0.740	0.440	0.720
2020/01/31 00:21:37.0	268.660	-0.740	0.480	0.710
2020/01/31 00:21:37.1	268.650	-0.730	0.510	0.710
2020/01/31 00:21:37.2	268.640	-0.720	0.540	0.700
2020/01/31 00:21:37.3	268.630	-0.710	0.570	0.690
2020/01/31 00:21:37.4	268.620	-0.700	0.590	0.680
2020/01/31 00:21:37.5	268.620	-0.680	0.620	0.670
2020/01/31 00:21:37.6	268.610	-0.660	0.640	0.660
2020/01/31 00:21:37.7	268.610	-0.640	0.660	0.650
2020/01/31 00:21:37.8	268.610	-0.620	0.670	0.630
2020/01/31 00:21:37.9	268.600	-0.590	0.690	0.620
2020/01/31 00:21:38.0	268.600	-0.560	0.700	0.610
2020/01/31 00:21:38.1	268.600	-0.540	0.710	0.590
2020/01/31 00:21:38.2	268.600	-0.500	0.710	0.570
2020/01/31 00:21:38.3	268.610	-0.470	0.710	0.560
2020/01/31 00:21:38.4	268.610	-0.440	0.710	0.540
2020/01/31 00:21:38.5	268.620	-0.400	0.710	0.520
2020/01/31 00:21:38.6	268.620	-0.360	0.700	0.500
2020/01/31 00:21:38.7	268.630	-0.330	0.690	0.480
2020/01/31 00:21:38.8	268.640	-0.290	0.680	0.460
2020/01/31 00:21:38.9	268.650	-0.250	0.660	0.440
2020/01/31 00:21:39.0	268.660	-0.210	0.640	0.420
2020/01/31 00:21:39.1	268.670	-0.170	0.620	0.410
2020/01/31 00:21:39.2	268.680	-0.130	0.600	0.390
2020/01/31 00:21:39.3	268.690	-0.090	0.570	0.370
2020/01/31 00:21:39.4	268.710	-0.060	0.550	0.350
2020/01/31 00:21:39.5	268.720	-0.020	0.520	0.330
2020/01/31 00:21:39.6	268.730	0.020	0.490	0.310
2020/01/31 00:21:39.7	268.750	0.060	0.450	0.300
2020/01/31 00:21:39.8	268.760	0.090	0.420	0.290
2020/01/31 00:21:39.9	268.780	0.130	0.380	0.270
2020/01/31 00:21:40.0	268.800	0.160	0.350	0.260
2020/01/31 00:21:40.1	268.810	0.200	0.310	0.250
2020/01/31 00:21:40.2	268.830	0.230	0.270	0.250
2020/01/31 00:21:40.3	268.850	0.260	0.230	0.250
2020/01/31 00:21:40.4	268.870	0.290	0.190	0.240
2020/01/31 00:21:40.5	268.880	0.320	0.150	0.250
2020/01/31 00:21:40.6	268.900	0.350	0.110	0.250
2020/01/31 00:21:40.7	268.920	0.380	0.070	0.250
2020/01/31 00:21:40.8	268.940	0.410	0.030	0.260
2020/01/31 00:21:40.9	268.960	0.430	-0.020	0.270
2020/01/31 00:21:41.0	268.980	0.460	-0.060	0.280
2020/01/31 00:21:41.1	268.990	0.480	-0.100	0.300
2020/01/31 00:21:41.2	269.010	0.510	-0.140	0.310
2020/01/31 00:21:41.3	269.030	0.530	-0.190	0.330
2020/01/31 00:21:41.4	269.050	0.550	-0.230	0.340
2020/01/31 00:21:41.5	269.080	0.570	-0.270	0.360
2020/01/31 00:21:41.6	269.100	0.590	-0.310	0.380
2020/01/31 00:21:41.7	269.120	0.610	-0.350	0.410
2020/01/31 00:21:41.8	269.140	0.630	-0.390	0.430
2020/01/31 00:21:41.9	269.160	0.650	-0.430	0.450
2020/01/31 00:21:42.0	269.190	0.670	-0.470	0.480
2020/01/31 00:21:42.1	269.200	0.690	-0.510	0.510
2020/01/31 00:21:42.2	269.220	0.710	-0.560	0.540
2020/01/31 00:21:42.3	269.240	0.720	-0.600	0.570
2020/01/31 00:21:42.4	269.260	0.740	-0.640	0.600
2020/01/31 00:21:42.5	269.280	0.760	-0.680	0.630
2020/01/31 00:21:42.6	269.300	0.770	-0.720	0.670
2020/01/31 00:21:42.7	269.310	0.790	-0.760	0.700
2020/01/31 00:21:42.8	269.330	0.800	-0.790	0.730
2020/01/31 00:21:42.9	269.330	0.810	-0.830	0.770
2020/01/31 00:21:43.0	269.350	0.820	-0.870	0.800
2020/01/31 00:21:43.1	269.360	0.840	-0.900	0.830
2020/01/31 00:21:43.2	269.370	0.850	-0.940	0.870
2020/01/31 00:21:43.3	269.380	0.860	-0.970	0.900
2020/01/31 00:21:43.4	269.380	0.860	-1.000	0.930
2020/01/31 00:21:43.5	269.390	0.870	-1.030	0.960
2020/01/31 00:21:43.6	269.390	0.880	-1.060	0.990
2020/01/31 00:21:43.7	269.390	0.880	-1.090	1.020
2020/01/31 00:21:43.8	269.390	0.880	-1.110	1.050
2020/01/31 00:21:43.9	269.380	0.880	-1.130	1.080
2020/01/31 00:21:44.0	269.380	0.880	-1.150	1.110
2020/01/31 00:21:44.1	269.370	0.880	-1.170	1.140
2020/01/31 00:21:44.2	269.360	0.870	-1.190	1.170
2020/01/31 00:21:44.3	269.350	0.860	-1.200	1.190
2020/01/31 00:21:44.4	269.340	0.850	-1.220	1.220
2020/01/31 00:21:44.5	269.330	0.840	-1.230	1.240
2020/01/31 00:21:44.6	269.320	0.830	-1.240	1.260
2020/01/31 00:21:44.7	269.300	0.810	-1.240	1.290
2020/01/31 00:21:44.8	269.280	0.790	-1.250	1.310
2020/01/31 00:21:44.9	269.270	0.770	-1.250	1.320
2020/01/31 00:21:45.0	269.250	0.750	-1.250	1.340
2020/01/31 00:21:45.1	269.230	0.720	-1.250	1.360
2020/01/31 00:21:45.2	269.210	0.700	-1.240	1.370
2020/01/31 00:21:45.3	269.190	0.670	-1.240	1.390
2020/01/31 00:21:45.4	269.160	0.630	-1.230	1.400
2020/01/31 00:21:45.5	269.140	0.600	-1.220	1.410
2020/01/31 00:21:45.6	269.110	0.570	-1.210	1.410
2020/01/31 00:21:45.7	269.090	0.530	-1.200	1.420
2020/01/31 00:21:45.8	269.060	0.490	-1.190	1.420
2020/01/31 00:21:45.9	269.020	0.450	-1.170	1.420
2020/01/31 00:21:46.0	268.990	0.410	-1.160	1.420
2020/01/31 00:21:46.1	268.970	0.370	-1.140	1.420
2020/01/31 00:21:46.2	268.940	0.320	-1.120	1.410
2020/01/31 00:21:46.3	268.910	0.280	-1.100	1.400
2020/01/31 00:21:46.4	268.890	0.240	-1.080	1.390
2020/01/31 00:21:46.5	268.860	0.190	-1.060	1.370
2020/01/31 00:21:46.6	268.840	0.150	-1.040	1.350
2020/01/31 00:21:46.7	268.810	0.100	-1.010	1.340
2020/01/31 00:21:46.8	268.790	0.060	-0.990	1.320
2020/01/31 00:21:46.9	268.770	0.020	-0.960	1.290
2020/01/31 00:21:47.0	268.740	-0.030	-0.930	1.270
2020/01/31 00:21:47.1	268.720	-0.070	-0.900	1.250
2020/01/31 00:21:47.2	268.700	-0.110	-0.880	1.220
2020/01/31 00:21:47.3	268.680	-0.150	-0.850	1.200
2020/01/31 00:21:47.4	268.660	-0.190	-0.820	1.170
2020/01/31 00:21:47.5	268.640	-0.230	-0.790	1.140
2020/01/31 00:21:47.6	268.620	-0.260	-0.750	1.120
2020/01/31 00:21:47.7	268.610	-0.300	-0.720	1.090
2020/01/31 00:21:47.8	268.590	-0.330	-0.690	1.060
2020/01/31 00:21:47.9	268.590	-0.370	-0.650	1.030
2020/01/31 00:21:48.0	268.580	-0.400	-0.610	1.000
2020/01/31 00:21:48.1	268.570	-0.430	-0.580	0.970
2020/01/31 00:21:48.2	268.560	-0.450	-0.540	0.940
2020/01/31 00:21:48.3	268.560	-0.480	-0.500	0.910
2020/01/31 00:21:48.4	268.560	-0.510	-0.460	0.880
2020/01/31 00:21:48.5	268.550	-0.530	-0.420	0.850
2020/01/31 00:21:48.6	268.560	-0.560	-0.380	0.820
2020/01/31 00:21:48.7	268.560	-0.580	-0.340	0.780
2020/01/31 00:21:48.8	268.560	-0.600	-0.300	0.750
2020/01/31 00:21:48.9	268.570	-0.620	-0.250	0.720
2020/01/31 00:21:49.0	268.570	-0.640	-0.210	0.690
2020/01/31 00:21:49.1	268.580	-0.650	-0.170	0.660
2020/01/31 00:21:49.2	268.590	-0.670	-0.120	0.630
2020/01/31 00:21:49.3	268.600	-0.690	-0.080	0.600
2020/01/31 00:21:49.4	268.610	-0.700	-0.040	0.570
2020/01/31 00:21:49.5	268.620	-0.710	0.010	0.550
2020/01/31 00:21:49.6	268.640	-0.730	0.050	0.520
2020/01/31 00:21:49.7	268.650	-0.740	0.090	0.490
2020/01/31 00:21:49.8	268.660	-0.750	0.130	0.470
2020/01/31 00:21:49.9	268.690	-0.750	0.160	0.450
2020/01/31 00:21:50.0	268.700	-0.760	0.200	0.420
2020/01/31 00:21:50.1	268.720	-0.770	0.230	0.400
2020/01/31 00:21:50.2	268.740	-0.770	0.270	0.390
2020/01/31 00:21:50.3	268.750	-0.780	0.300	0.370
2020/01/31 00:21:50.4	268.770	-0.780	0.330	0.350
2020/01/31 00:21:50.5	268.790	-0.780	0.360	0.340
2020/01/31 00:21:50.6	268.810	-0.780	0.380	0.320
2020/01/31 00:21:50.7	268.820	-0.780	0.410	0.310
2020/01/31 00:21:50.8	268.840	-0.770	0.430	0.300
2020/01/31 00:21:50.9	268.870	-0.770	0.450	0.300
2020/01/31 00:21:51.0	268.890	-0.760	0.470	0.290
2020/01/31 00:21:51.1	268.910	-0.750	0.480	0.280
2020/01/31 00:21:51.2	268.930	-0.740	0.500	0.280
2020/01/31 00:21:51.3	268.950	-0.730	0.510	0.280
2020/01/31 00:21:51.4	268.970	-0.720	0.520	0.270
2020/01/31 00:21:51.5	269.000	-0.710	0.530	0.270
2020/01/31 00:21:51.6	269.020	-0.690	0.540	0.280
2020/01/31 00:21:51.7	269.040	-0.680	0.540	0.280
2020/01/31 00:21:51.8	269.070	-0.660	0.550	0.290
2020/01/31 00:21:51.9	269.080	-0.640	0.540	0.300
2020/01/31 00:21:52.0	269.110	-0.620	0.540	0.300
2020/01/31 00:21:52.1	269.130	-0.600	0.540	0.320
2020/01/31 00:21:52.2	269.150	-0.580	0.540	0.330
2020/01/31 00:21:52.3	269.170	-0.550	0.530	0.350
2020/01/31 00:21:52.4	269.200	-0.530	0.520	0.360
2020/01/31 00:21:52.5	269.220	-0.510	0.510	0.380
2020/01/31 00:21:52.6	269.240	-0.480	0.500	0.400
2020/01/31 00:21:52.7	269.260	-0.460	0.490	0.420
2020/01/31 00:21:52.8	269.280	-0.430	0.470	0.450
2020/01/31 00:21:52.9	269.310	-0.400	0.460	0.470
2020/01/31 00:21:53.0	269.330	-0.380	0.440	0.500
2020/01/31 00:21:53.1	269.350	-0.350	0.420	0.520
2020/01/31 00:21:53.2	269.370	-0.320	0.400	0.550
2020/01/31 00:21:53.3	269.390	-0.300	0.380	0.570
2020/01/31 00:21:53.4	269.400	-0.270	0.360	0.600
2020/01/31 00:21:53.5	269.420	-0.240	0.340	0.620
2020/01/31 00:21:53.6	269.430	-0.220	0.320	0.650
2020/01/31 00:21:53.7	269.450	-0.190	0.290	0.670
2020/01/31 00:21:53.8	269.460	-0.170	0.270	0.700
2020/01/31 00:21:53.9	269.480	-0.140	0.240	0.720
2020/01/31 00:21:54.0	269.490	-0.110	0.210	0.740
2020/01/31 00:21:54.1	269.500	-0.090	0.190	0.760
2020/01/31 00:21:54.2	269.510	-0.070	0.160	0.780
2020/01/31 00:21:54.3	269.510	-0.040	0.130	0.800
2020/01/31 00:21:54.4	269.520	-0.020	0.100	0.820
2020/01/31 00:21:54.5	269.520	0.000	0.070	0.830
2020/01/31 00:21:54.6	269.520	0.030	0.030	0.850
2020/01/31 00:21:54.7	269.520	0.050	0.000	0.860
2020/01/31 00:21:54.8	269.520	0.070	-0.030	0.870
2020/01/31 00:21:54.9	269.520	0.090	-0.070	0.890
2020/01/31 00:21:55.0	269.510	0.110	-0.100	0.900
2020/01/31 00:21:55.1	269.510	0.130	-0.130	0.900
2020/01/31 00:21:55.2	269.500	0.150	-0.170	0.910
2020/01/31 00:21:55.3	269.490	0.170	-0.200	0.910
2020/01/31 00:21:55.4	269.480	0.190	-0.230	0.920
2020/01/31 00:21:55.5	269.470	0.210	-0.260	0.920
2020/01/31 00:21:55.6	269.460	0.220	-0.290	0.910
2020/01/31 00:21:55.7	269.450	0.240	-0.320	0.910
2020/01/31 00:21:55.8	269.440	0.260	-0.350	0.900
2020/01/31 00:21:55.9	269.430	0.270	-0.370	0.890
2020/01/31 00:21:56.0	269.410	0.290	-0.400	0.880
2020/01/31 00:21:56.1	269.400	0.300	-0.420	0.870
2020/01/31 00:21:56.2	269.390	0.310	-0.440	0.860
2020/01/31 00:21:56.3	269.380	0.330	-0.460	0.840
2020/01/31 00:21:56.4	269.360	0.340	-0.480	0.820
2020/01/31 00:21:56.5	269.350	0.350	-0.490	0.800
2020/01/31 00:21:56.6	269.340	0.360	-0.510	0.780
2020/01/31 00:21:56.7	269.330	0.370	-0.520	0.760
2020/01/31 00:21:56.8	269.320	0.380	-0.530	0.740
2020/01/31 00:21:56.9	269.300	0.390	-0.540	0.710
2020/01/31 00:21:57.0	269.290	0.400	-0.550	0.690
2020/01/31 00:21:57.1	269.280	0.410	-0.560	0.670
2020/01/31 00:21:57.2	269.260	0.420	-0.560	0.650
2020/01/31 00:21:57.3	269.250	0.420	-0.570	0.620
2020/01/31 00:21:57.4	269.240	0.430	-0.570	0.600
2020/01/31 00:21:57.5	269.230	0.440	-0.580	0.580
2020/01/31 00:21:57.6	269.220	0.440	-0.580	0.560
2020/01/31 00:21:57.7	269.210	0.450	-0.580	0.540
2020/01/31 00:21:57.8	269.200	0.450	-0.580	0.520
2020/01/31 00:21:57.9	269.190	0.460	-0.590	0.500
2020/01/31 00:21:58.0	269.170	0.460	-0.590	0.480
2020/01/31 00:21:58.1	269.160	0.460	-0.590	0.470
2020/01/31 00:21:58.2	269.150	0.460	-0.600	0.450
2020/01/31 00:21:58.3	269.140	0.470	-0.600	0.440
2020/01/31 00:21:58.4	269.120	0.470	-0.600	0.430
2020/01/31 00:21:58.5	269.110	0.470	-0.610	0.420
2020/01/31 00:21:58.6	269.100	0.470	-0.610	0.420
2020/01/31 00:21:58.7	269.080	0.470	-0.620	0.410
2020/01/31 00:21:58.8	269.070	0.470	-0.620	0.410
2020/01/31 00:21:58.9	269.060	0.470	-0.630	0.420
2020/01/31 00:21:59.0	269.050	0.460	-0.640	0.420
2020/01/31 00:21:59.1	269.030	0.460	-0.640	0.430
2020/01/31 00:21:59.2	269.020	0.460	-0.650	0.430
2020/01/31 00:21:59.3	269.000	0.460	-0.660	0.450
2020/01/31 00:21:59.4	268.990	0.450	-0.670	0.460
2020/01/31 00:21:59.5	268.970	0.450	-0.670	0.480
2020/01/31 00:21:59.6	268.960	0.450	-0.680	0.500
2020/01/31 00:21:59.7	268.940	0.440	-0.690	0.520
2020/01/31 00:21:59.8	268.920	0.440	-0.700	0.540
2020/01/31 00:21:59.9	268.890	0.430	-0.710	0.570
2020/01/31 00:22:00.0	268.870	0.430	-0.720	0.600
2020/01/31 00:22:00.1	268.850	0.420	-0.730	0.630
2020/01/31 00:22:00.2	268.830	0.420	-0.740	0.670
2020/01/31 00:22:00.3	268.810	0.410	-0.740	0.700
2020/01/31 00:22:00.4	268.790	0.400	-0.750	0.740
2020/01/31 00:22:00.5	268.770	0.390	-0.760	0.780
2020/01/31 00:22:00.6	268.760	0.390	-0.760	0.820
2020/01/31 00:22:00.7	268.740	0.380	-0.770	0.860
2020/01/31 00:22:00.8	268.720	0.370	-0.770	0.900
2020/01/31 00:22:00.9	268.700	0.360	-0.770	0.930
2020/01/31 00:22:01.0	268.680	0.350	-0.780	0.970
2020/01/31 00:22:01.1	268.670	0.340	-0.770	1.000
2020/01/31 00:22:01.2	268.650	0.330	-0.770	1.030
2020/01/31 00:22:01.3	268.640	0.320	-0.770	1.060
2020/01/31 00:22:01.4	268.620	0.310	-0.760	1.090
2020/01/31 00:22:01.5	268.610	0.290	-0.760	1.120
2020/01/31 00:22:01.6	268.600	0.280	-0.750	1.140
2020/01/31 00:22:01.7	268.590	0.270	-0.740	1.160
2020/01/31 00:22:01.8	268.590	0.250	-0.720	1.180
2020/01/31 00:22:01.9	268.590	0.240	-0.710	1.200
2020/01/31 00:22:02.0	268.590	0.230	-0.690	1.210
2020/01/31 00:22:02.1	268.580	0.210	-0.680	1.230
2020/01/31 00:22:02.2	268.580	0.200	-0.660	1.230
2020/01/31 00:22:02.3	268.580	0.180	-0.640	1.240
2020/01/31 00:22:02.4	268.580	0.170	-0.620	1.240
2020/01/31 00:22:02.5	268.580	0.150	-0.600	1.240
2020/01/31 00:22:02.6	268.590	0.140	-0.580	1.240
2020/01/31 00:22:02.7	268.590	0.120	-0.550	1.230
2020/01/31 00:22:02.8	268.600	0.110	-0.530	1.230
2020/01/31 00:22:02.9	268.610	0.090	-0.500	1.220
2020/01/31 00:22:03.0	268.620	0.080	-0.480	1.210
2020/01/31 00:22:03.1	268.630	0.060	-0.460	1.190
2020/01/31 00:22:03.2	268.640	0.050	-0.430	1.180
2020/01/31 00:22:03.3	268.650	0.030	-0.410	1.170
2020/01/31 00:22:03.4	268.660	0.020	-0.380	1.150
2020/01/31 00:22:03.5	268.670	0.000	-0.360	1.130
2020/01/31 00:22:03.6	268.690	-0.010	-0.340	1.110
2020/01/31 00:22:03.7	268.700	-0.030	-0.320	1.090
2020/01/31 00:22:03.8	268.710	-0.040	-0.290	1.080
2020/01/31 00:22:03.9	268.720	-0.050	-0.270	1.050
2020/01/31 00:22:04.0	268.740	-0.070	-0.250	1.030
2020/01/31 00:22:04.1	268.750	-0.080	-0.230	1.010
2020/01/31 00:22:04.2	268.770	-0.090	-0.220	0.990
2020/01/31 00:22:04.3	268.790	-0.100	-0.200	0.970
2020/01/31 00:22:04.4	268.810	-0.120	-0.180	0.940
2020/01/31 00:22:04.5	268.830	-0.130	-0.170	0.920
2020/01/31 00:22:04.6	268.850	-0.140	-0.150	0.890
2020/01/31 00:22:04.7	268.870	-0.150	-0.140	0.860
2020/01/31 00:22:04.8	268.900	-0.160	-0.120	0.840
2020/01/31 00:22:04.9	268.930	-0.170	-0.110	0.810
2020/01/31 00:22:05.0	268.960	-0.180	-0.100	0.780
2020/01/31 00:22:05.1	268.980	-0.190	-0.090	0.750
2020/01/31 00:22:05.2	269.010	-0.200	-0.080	0.720
2020/01/31 00:22:05.3	269.040	-0.200	-0.070	0.690
2020/01/31 00:22:05.4	269.070	-0.210	-0.060	0.650
2020/01/31 00:22:05.5	269.100	-0.220	-0.050	0.620
2020/01/31 00:22:05.6	269.130	-0.220	-0.040	0.590
2020/01/31 00:22:05.7	269.170	-0.230	-0.040	0.560
2020/01/31 00:22:05.8	269.200	-0.230	-0.030	0.530
2020/01/31 00:22:05.9	269.230	-0.240	-0.020	0.500
2020/01/31 00:22:06.0	269.260	-0.240	-0.020	0.470
2020/01/31 00:22:06.1	269.290	-0.240	-0.010	0.440
2020/01/31 00:22:06.2	269.320	-0.250	-0.010	0.420
2020/01/31 00:22:06.3	269.350	-0.250	-0.000	0.390
2020/01/31 00:22:06.4	269.380	-0.250	-0.000	0.370
2020/01/31 00:22:06.5	269.410	-0.250	0.000	0.350
2020/01/31 00:22:06.6	269.430	-0.250	0.000	0.330
2020/01/31 00:22:06.7	269.460	-0.260	0.000	0.310
2020/01/31 00:22:06.8	269.490	-0.260	0.010	0.290
2020/01/31 00:22:06.9	269.510	-0.260	0.000	0.280
2020/01/31 00:22:07.0	269.530	-0.260	0.000	0.260
2020/01/31 00:22:07.1	269.550	-0.260	0.000	0.250
2020/01/31 00:22:07.2	269.570	-0.260	0.000	0.240
2020/01/31 00:22:07.3	269.590	-0.260	0.000	0.230
2020/01/31 00:22:07.4	269.610	-0.250	-0.000	0.220
2020/01/31 00:22:07.5	269.630	-0.250	-0.000	0.220
2020/01/31 00:22:07.6	269.640	-0.250	-0.000	0.220
2020/01/31 00:22:07.7	269.650	-0.250	-0.010	0.220
2020/01/31 00:22:07.8	269.660	-0.250	-0.010	0.230
2020/01/31 00:22:07.9	269.680	-0.250	-0.010	0.230
2020/01/31 00:22:08.0	269.690	-0.250	-0.020	0.240
2020/01/31 00:22:08.1	269.690	-0.250	-0.020	0.250
2020/01/31 00:22:08.2	269.700	-0.250	-0.020	0.260
2020/01/31 00:22:08.3	269.700	-0.250	-0.030	0.270
2020/01/31 00:22:08.4	269.690	-0.250	-0.030	0.290
2020/01/31 00:22:08.5	269.690	-0.250	-0.040	0.310
2020/01/31 00:22:08.6	269.680	-0.250	-0.040	0.330
2020/01/31 00:22:08.7	269.670	-0.250	-0.050	0.350
2020/01/31 00:22:08.8	269.660	-0.250	-0.050	0.370
2020/01/31 00:22:08.9	269.650	-0.240	-0.060	0.400
2020/01/31 00:22:09.0	269.630	-0.240	-0.070	0.420
2020/01/31 00:22:09.1	269.610	-0.240	-0.070	0.450
2020/01/31 00:22:09.2	269.590	-0.240	-0.080	0.480
2020/01/31 00:22:09.3	269.570	-0.230	-0.090	0.500
2020/01/31 00:22:09.4	269.550	-0.230	-0.090	0.530
2020/01/31 00:22:09.5	269.520	-0.230	-0.100	0.560
2020/01/31 00:22:09.6	269.500	-0.220	-0.110	0.590
2020/01/31 00:22:09.7	269.470	-0.220	-0.120	0.620
2020/01/31 00:22:09.8	269.440	-0.220	-0.130	0.650
2020/01/31 00:22:09.9	269.410	-0.210	-0.140	0.680
2020/01/31 00:22:10.0	269.370	-0.200	-0.150	0.710
2020/01/31 00:22:10.1	269.340	-0.200	-0.160	0.740
2020/01/31 00:22:10.2	269.310	-0.190	-0.170	0.770
2020/01/31 00:22:10.3	269.280	-0.180	-0.180	0.800
2020/01/31 00:22:10.4	269.250	-0.180	-0.200	0.820
2020/01/31 00:22:10.5	269.210	-0.170	-0.210	0.850
2020/01/31 00:22:10.6	269.180	-0.160	-0.230	0.880
2020/01/31 00:22:10.7	269.150	-0.150	-0.240	0.900
2020/01/31 00:22:10.8	269.120	-0.140	-0.260	0.930
2020/01/31 00:22:10.9	269.080	-0.130	-0.270	0.950
2020/01/31 00:22:11.0	269.050	-0.120	-0.290	0.970
2020/01/31 00:22:11.1	269.020	-0.110	-0.300	0.990
2020/01/31 00:22:11.2	268.990	-0.100	-0.310	1.010
2020/01/31 00:22:11.3	268.960	-0.080	-0.320	1.030
2020/01/31 00:22:11.4	268.930	-0.070	-0.330	1.040
2020/01/31 00:22:11.5	268.910	-0.060	-0.350	1.060
2020/01/31 00:22:11.6	268.880	-0.050	-0.350	1.080
2020/01/31 00:22:11.7	268.850	-0.040	-0.360	1.090
2020/01/31 00:22:11.8	268.830	-0.030	-0.370	1.100
2020/01/31 00:22:11.9	268.800	-0.010	-0.380	1.110
2020/01/31 00:22:12.0	268.780	-0.000	-0.380	1.130
2020/01/31 00:22:12.1	268.750	0.010	-0.390	1.130
2020/01/31 00:22:12.2	268.730	0.020	-0.390	1.140
2020/01/31 00:22:12.3	268.710	0.030	-0.390	1.150
2020/01/31 00:22:12.4	268.690	0.040	-0.390	1.160
2020/01/31 00:22:12.5	268.670	0.050	-0.390	1.160
2020/01/31 00:22:12.6	268.650	0.060	-0.380	1.170
2020/01/31 00:22:12.7	268.630	0.070	-0.380	1.170
2020/01/31 00:22:12.8	268.620	0.080	-0.370	1.170
2020/01/31 00:22:12.9	268.610	0.090	-0.360	1.170
2020/01/31 00:22:13.0	268.600	0.100	-0.350	1.170
2020/01/31 00:22:13.1	268.580	0.110	-0.350	1.170
2020/01/31 00:22:13.2	268.570	0.120	-0.340	1.160
2020/01/31 00:22:13.3	268.560	0.130	-0.320	1.150
2020/01/31 00:22:13.4	268.550	0.140	-0.310	1.140
2020/01/31 00:22:13.5	268.550	0.150	-0.300	1.130
2020/01/31 00:22:13.6	268.540	0.150	-0.290	1.120
2020/01/31 00:22:13.7	268.540	0.160	-0.280	1.100
2020/01/31 00:22:13.8	268.540	0.170	-0.270	1.090
2020/01/31 00:22:13.9	268.540	0.170	-0.250	1.070
2020/01/31 00:22:14.0	268.540	0.180	-0.240	1.050
2020/01/31 00:22:14.1	268.550	0.190	-0.230	1.030
2020/01/31 00:22:14.2	268.550	0.190	-0.220	1.000
2020/01/31 00:22:14.3	268.560	0.200	-0.210	0.970
2020/01/31 00:22:14.4	268.570	0.200	-0.200	0.940
2020/01/31 00:22:14.5	268.580	0.210	-0.200	0.910
2020/01/31 00:22:14.6	268.600	0.210	-0.190	0.880
2020/01/31 00:22:14.7	268.610	0.210	-0.190	0.850
2020/01/31 00:22:14.8	268.630	0.220	-0.180	0.820
2020/01/31 00:22:14.9	268.650	0.220	-0.190	0.790
2020/01/31 00:22:15.0	268.670	0.220	-0.190	0.750
2020/01/31 00:22:15.1	268.690	0.220	-0.190	0.720
2020/01/31 00:22:15.2	268.720	0.220	-0.190	0.680
2020/01/31 00:22:15.3	268.740	0.230	-0.200	0.650
2020/01/31 00:22:15.4	268.770	0.230	-0.210	0.620
2020/01/31 00:22:15.5	268.800	0.230	-0.220	0.590
2020/01/31 00:22:15.6	268.830	0.230	-0.230	0.550
2020/01/31 00:22:15.7	268.860	0.230	-0.240	0.520
2020/01/31 00:22:15.8	268.890	0.230	-0.260	0.490
2020/01/31 00:22:15.9	268.920	0.230	-0.280	0.460
2020/01/31 00:22:16.0	268.950	0.230	-0.300	0.430
2020/01/31 00:22:16.1	268.990	0.230	-0.320	0.400
2020/01/31 00:22:16.2	269.020	0.230	-0.340	0.370
2020/01/31 00:22:16.3	269.060	0.230	-0.360	0.340
2020/01/31 00:22:16.4	269.100	0.230	-0.380	0.310
2020/01/31 00:22:16.5	269.130	0.230	-0.410	0.280
2020/01/31 00:22:16.6	269.170	0.230	-0.430	0.260
2020/01/31 00:22:16.7	269.210	0.230	-0.460	0.230
2020/01/31 00:22:16.8	269.250	0.220	-0.480	0.210
2020/01/31 00:22:16.9	269.290	0.220	-0.500	0.180
2020/01/31 00:22:17.0	269.330	0.220	-0.530	0.160
2020/01/31 00:22:17.1	269.370	0.220	-0.550	0.140
2020/01/31 00:22:17.2	269.410	0.220	-0.570	0.120
2020/01/31 00:22:17.3	269.450	0.220	-0.590	0.100
2020/01/31 00:22:17.4	269.490	0.210	-0.610	0.090
2020/01/31 00:22:17.5	269.530	0.210	-0.620	0.080
2020/01/31 00:22:17.6	269.560	0.210	-0.640	0.070
2020/01/31 00:22:17.7	269.600	0.210	-0.650	0.060
2020/01/31 00:22:17.8	269.630	0.200	-0.660	0.060
2020/01/31 00:22:17.9	269.660	0.200	-0.660	0.060
2020/01/31 00:22:18.0	269.690	0.190	-0.670	0.060
2020/01/31 00:22:18.1	269.720	0.190	-0.670	0.070
2020/01/31 00:22:18.2	269.750	0.180	-0.670	0.070
2020/01/31 00:22:18.3	269.770	0.180	-0.670	0.080
2020/01/31 00:22:18.4	269.790	0.170	-0.670	0.100
2020/01/31 00:22:18.5	269.810	0.170	-0.660	0.110
2020/01/31 00:22:18.6	269.830	0.160	-0.650	0.130
2020/01/31 00:22:18.7	269.850	0.150	-0.640	0.150
2020/01/31 00:22:18.8	269.860	0.140	-0.630	0.180
2020/01/31 00:22:18.9	269.870	0.140	-0.620	0.200
2020/01/31 00:22:19.0	269.880	0.130	-0.610	0.230
2020/01/31 00:22:19.1	269.890	0.120	-0.590	0.260
2020/01/31 00:22:19.2	269.890	0.110	-0.580	0.290
2020/01/31 00:22:19.3	269.890	0.100	-0.560	0.320
2020/01/31 00:22:19.4	269.890	0.090	-0.550	0.360
2020/01/31 00:22:19.5	269.890	0.080	-0.530	0.390
2020/01/31 00:22:19.6	269.890	0.060	-0.510	0.420
2020/01/31 00:22:19.7	269.880	0.050	-0.500	0.450
2020/01/31 00:22:19.8	269.880	0.040	-0.480	0.480
2020/01/31 00:22:19.9	269.870	0.030	-0.470	0.520
2020/01/31 00:22:20.0	269.860	0.010	-0.450	0.540
2020/01/31 00:22:20.1	269.850	-0.000	-0.440	0.570
2020/01/31 00:22:20.2	269.830	-0.010	-0.430	0.600
2020/01/31 00:22:20.3	269.820	-0.030	-0.410	0.630
2020/01/31 00:22:20.4	269.800	-0.040	-0.400	0.650
2020/01/31 00:22:20.5	269.790	-0.060	-0.390	0.670
2020/01/31 00:22:20.6	269.770	-0.070	-0.380	0.690
2020/01/31 00:22:20.7	269.750	-0.090	-0.360	0.710
2020/01/31 00:22:20.8	269.730	-0.100	-0.350	0.720
2020/01/31 00:22:20.9	269.710	-0.110	-0.340	0.740
2020/01/31 00:22:21.0	269.690	-0.130	-0.330	0.750
2020/01/31 00:22:21.1	269.670	-0.140	-0.320	0.750
2020/01/31 00:22:21.2	269.650	-0.160	-0.310	0.760
2020/01/31 00:22:21.3	269.620	-0.170	-0.300	0.760
2020/01/31 00:22:21.4	269.600	-0.180	-0.290	0.760
2020/01/31 00:22:21.5	269.580	-0.190	-0.270	0.760
2020/01/31 00:22:21.6	269.550	-0.210	-0.260	0.750
2020/01/31 00:22:21.7	269.530	-0.220	-0.250	0.740
2020/01/31 00:22:21.8	269.500	-0.230	-0.240	0.730
2020/01/31 00:22:21.9	269.480	-0.240	-0.230	0.720
2020/01/31 00:22:22.0	269.450	-0.250	-0.220	0.710
2020/01/31 00:22:22.1	269.420	-0.260	-0.200	0.700
2020/01/31 00:22:22.2	269.400	-0.270	-0.190	0.680
2020/01/31 00:22:22.3	269.370	-0.280	-0.180	0.670
2020/01/31 00:22:22.4	269.340	-0.280	-0.160	0.650
2020/01/31 00:22:22.5	269.320	-0.290	-0.150	0.640
2020/01/31 00:22:22.6	269.290	-0.300	-0.130	0.620
2020/01/31 00:22:22.7	269.260	-0.300	-0.120	0.610
2020/01/31 00:22:22.8	269.240	-0.300	-0.100	0.590
2020/01/31 00:22:22.9	269.210	-0.310	-0.090	0.570
2020/01/31 00:22:23.0	269.190	-0.310	-0.080	0.560
2020/01/31 00:22:23.1	269.160	-0.310	-0.070	0.540
2020/01/31 00:22:23.2	269.140	-0.310	-0.050	0.530
2020/01/31 00:22:23.3	269.120	-0.310	-0.040	0.510
2020/01/31 00:22:23.4	269.100	-0.310	-0.030	0.500
2020/01/31 00:22:23.5	269.080	-0.310	-0.020	0.480
2020/01/31 00:22:23.6	269.060	-0.310	-0.010	0.470
2020/01/31 00:22:23.7	269.040	-0.300	-0.000	0.460
2020/01/31 00:22:23.8	269.030	-0.300	0.010	0.440
2020/01/31 00:22:23.9	269.010	-0.290	0.010	0.430
2020/01/31 00:22:24.0	269.000	-0.290	0.010	0.420
2020/01/31 00:22:24.1	268.980	-0.280	0.020	0.410
2020/01/31 00:22:24.2	268.970	-0.270	0.020	0.400
2020/01/31 00:22:24.3	268.960	-0.260	0.020	0.390
2020/01/31 00:22:24.4	268.950	-0.250	0.010	0.390
2020/01/31 00:22:24.5	268.950	-0.240	0.010	0.390
2020/01/31 00:22:24.6	268.940	-0.230	0.000	0.380
2020/01/31 00:22:24.7	268.930	-0.220	-0.010	0.390
2020/01/31 00:22:24.8	268.930	-0.210	-0.010	0.390
2020/01/31 00:22:24.9	268.920	-0.190	-0.030	0.400
2020/01/31 00:22:25.0	268.920	-0.180	-0.040	0.410
2020/01/31 00:22:25.1	268.920	-0.160	-0.050	0.420
2020/01/31 00:22:25.2	268.910	-0.150	-0.070	0.430
2020/01/31 00:22:25.3	268.910	-0.130	-0.080	0.440
2020/01/31 00:22:25.4	268.910	-0.110	-0.100	0.460
2020/01/31 00:22:25.5	268.910	-0.090	-0.120	0.480
2020/01/31 00:22:25.6	268.910	-0.070	-0.130	0.500
2020/01/31 00:22:25.7	268.910	-0.050	-0.150	0.530
2020/01/31 00:22:25.8	268.920	-0.030	-0.170	0.550
2020/01/31 00:22:25.9	268.920	-0.010	-0.190	0.580
2020/01/31 00:22:26.0	268.920	0.010	-0.200	0.610
2020/01/31 00:22:26.1	268.930	0.030	-0.220	0.640
2020/01/31 00:22:26.2	268.930	0.050	-0.230	0.670
2020/01/31 00:22:26.3	268.930	0.070	-0.250	0.700
2020/01/31 00:22:26.4	268.940	0.090	-0.270	0.740
2020/01/31 00:22:26.5	268.950	0.110	-0.280	0.770
2020/01/31 00:22:26.6	268.950	0.130	-0.300	0.810
2020/01/31 00:22:26.7	268.960	0.150	-0.310	0.850
2020/01/31 00:22:26.8	268.960	0.160	-0.320	0.880
2020/01/31 00:22:26.9	268.960	0.180	-0.340	0.920
2020/01/31 00:22:27.0	268.970	0.200	-0.350	0.960
2020/01/31 00:22:27.1	268.970	0.210	-0.360	1.000
2020/01/31 00:22:27.2	268.980	0.230	-0.370	1.030
2020/01/31 00:22:27.3	268.980	0.240	-0.380	1.070
2020/01/31 00:22:27.4	268.980	0.250	-0.390	1.100
2020/01/31 00:22:27.5	268.990	0.270	-0.400	1.140
2020/01/31 00:22:27.6	268.990	0.280	-0.410	1.170
2020/01/31 00:22:27.7	268.990	0.280	-0.410	1.210
2020/01/31 00:22:27.8	269.000	0.290	-0.420	1.240
2020/01/31 00:22:27.9	269.000	0.300	-0.420	1.270
2020/01/31 00:22:28.0	269.000	0.300	-0.420	1.290
2020/01/31 00:22:28.1	269.000	0.310	-0.420	1.320
2020/01/31 00:22:28.2	269.010	0.310	-0.420	1.340
2020/01/31 00:22:28.3	269.010	0.310	-0.420	1.360
2020/01/31 00:22:28.4	269.020	0.310	-0.420	1.370
2020/01/31 00:22:28.5	269.020	0.300	-0.410	1.390
2020/01/31 00:22:28.6	269.030	0.300	-0.410	1.400
2020/01/31 00:22:28.7	269.030	0.290	-0.400	1.400
2020/01/31 00:22:28.8	269.040	0.290	-0.400	1.410
2020/01/31 00:22:28.9	269.050	0.280	-0.390	1.410
2020/01/31 00:22:29.0	269.060	0.270	-0.380	1.400
2020/01/31 00:22:29.1	269.060	0.260	-0.370	1.400
2020/01/31 00:22:29.2	269.070	0.250	-0.360	1.390
2020/01/31 00:22:29.3	269.080	0.240	-0.350	1.370
2020/01/31 00:22:29.4	269.080	0.230	-0.340	1.360
2020/01/31 00:22:29.5	269.090	0.220	-0.330	1.340
2020/01/31 00:22:29.6	269.090	0.200	-0.320	1.320
2020/01/31 00:22:29.7	269.090	0.190	-0.310	1.300
2020/01/31 00:22:29.8	269.100	0.170	-0.290	1.270
2020/01/31 00:22:29.9	269.090	0.160	-0.280	1.250
2020/01/31 00:22:30.0	269.090	0.140	-0.270	1.230
2020/01/31 00:22:30.1	269.090	0.130	-0.260	1.200
2020/01/31 00:22:30.2	269.100	0.110	-0.250	1.170
2020/01/31 00:22:30.3	269.100	0.100	-0.230	1.150
2020/01/31 00:22:30.4	269.100	0.080	-0.220	1.120
2020/01/31 00:22:30.5	269.100	0.060	-0.210	1.090
2020/01/31 00:22:30.6	269.090	0.040	-0.200	1.060
2020/01/31 00:22:30.7	269.090	0.030	-0.200	1.040
2020/01/31 00:22:30.8	269.090	0.010	-0.190	1.010
2020/01/31 00:22:30.9	269.090	-0.000	-0.180	0.980
2020/01/31 00:22:31.0	269.090	-0.020	-0.180	0.950
2020/01/31 00:22:31.1	269.080	-0.040	-0.170	0.920
2020/01/31 00:22:31.2	269.080	-0.050	-0.170	0.890
2020/01/31 00:22:31.3	269.070	-0.070	-0.160	0.870
2020/01/31 00:22:31.4	269.070	-0.080	-0.160	0.840
2020/01/31 00:22:31.5	269.060	-0.100	-0.160	0.820
2020/01/31 00:22:31.6	269.060	-0.110	-0.160	0.790
2020/01/31 00:22:31.7	269.060	-0.120	-0.160	0.770
2020/01/31 00:22:31.8	269.050	-0.140	-0.170	0.750
2020/01/31 00:22:31.9	269.050	-0.150	-0.170	0.720
2020/01/31 00:22:32.0	269.050	-0.160	-0.180	0.700
2020/01/31 00:22:32.1	269.050	-0.170	-0.180	0.680
2020/01/31 00:22:32.2	269.040	-0.180	-0.190	0.660
2020/01/31 00:22:32.3	269.040	-0.190	-0.200	0.650
2020/01/31 00:22:32.4	269.040	-0.190	-0.210	0.630
2020/01/31 00:22:32.5	269.040	-0.200	-0.220	0.620
2020/01/31 00:22:32.6	269.040	-0.200	-0.230	0.600
2020/01/31 00:22:32.7	269.040	-0.210	-0.240	0.590
2020/01/31 00:22:32.8	269.050	-0.210	-0.250	0.580
2020/01/31 00:22:32.9	269.060	-0.210	-0.260	0.570
2020/01/31 00:22:33.0	269.060	-0.220	-0.270	0.550
2020/01/31 00:22:33.1	269.070	-0.220	-0.280	0.540
2020/01/31 00:22:33.2	269.080	-0.220	-0.290	0.530
2020/01/31 00:22:33.3	269.090	-0.210	-0.300	0.530
2020/01/31 00:22:33.4	269.100	-0.210	-0.310	0.520
2020/01/31 00:22:33.5	269.110	-0.210	-0.320	0.510
2020/01/31 00:22:33.6	269.120	-0.200	-0.320	0.510
2020/01/31 00:22:33.7	269.130	-0.200	-0.330	0.500
2020/01/31 00:22:33.8	269.140	-0.190	-0.340	0.500
2020/01/31 00:22:33.9	269.150	-0.180	-0.340	0.500
2020/01/31 00:22:34.0	269.170	-0.180	-0.340	0.500
2020/01/31 00:22:34.1	269.180	-0.170	-0.350	0.500
2020/01/31 00:22:34.2	269.190	-0.160	-0.350	0.510
2020/01/31 00:22:34.3	269.210	-0.150	-0.350	0.510
2020/01/31 00:22:34.4	269.220	-0.130	-0.350	0.520
2020/01/31 00:22:34.5	269.230	-0.120	-0.350	0.530
2020/01/31 00:22:34.6	269.240	-0.110	-0.350	0.550
2020/01/31 00:22:34.7	269.250	-0.090	-0.350	0.560
2020/01/31 00:22:34.8	269.260	-0.080	-0.350	0.580
2020/01/31 00:22:34.9	269.280	-0.060	-0.350	0.600
2020/01/31 00:22:35.0	269.290	-0.050	-0.350	0.630
2020/01/31 00:22:35.1	269.290	-0.030	-0.350	0.650
2020/01/31 00:22:35.2	269.300	-0.020	-0.350	0.680
2020/01/31 00:22:35.3	269.300	0.000	-0.350	0.700
2020/01/31 00:22:35.4	269.310	0.020	-0.350	0.730
2020/01/31 00:22:35.5	269.310	0.040	-0.350	0.760
2020/01/31 00:22:35.6	269.310	0.050	-0.350	0.790
2020/01/31 00:22:35.7	269.310	0.070	-0.350	0.820
2020/01/31 00:22:35.8	269.310	0.090	-0.350	0.850
2020/01/31 00:22:35.9	269.310	0.100	-0.350	0.880
2020/01/31 00:22:36.0	269.310	0.120	-0.350	0.900
2020/01/31 00:22:36.1	269.310	0.140	-0.350	0.930
2020/01/31 00:22:36.2	269.310	0.150	-0.350	0.950
2020/01/31 00:22:36.3	269.300	0.160	-0.350	0.970
2020/01/31 00:22:36.4	269.300	0.180	-0.360	0.990
2020/01/31 00:22:36.5	269.300	0.190	-0.360	1.010
2020/01/31 00:22:36.6	269.290	0.200	-0.360	1.030
2020/01/31 00:22:36.7	269.280	0.210	-0.370	1.040
2020/01/31 00:22:36.8	269.280	0.220	-0.370	1.050
2020/01/31 00:22:36.9	269.260	0.230	-0.380	1.070
2020/01/31 00:22:37.0	269.250	0.240	-0.380	1.070
2020/01/31 00:22:37.1	269.240	0.250	-0.390	1.080
2020/01/31 00:22:37.2	269.230	0.250	-0.390	1.090
2020/01/31 00:22:37.3	269.220	0.260	-0.400	1.090
2020/01/31 00:22:37.4	269.210	0.260	-0.410	1.100
2020/01/31 00:22:37.5	269.200	0.260	-0.410	1.100
2020/01/31 00:22:37.6	269.190	0.260	-0.420	1.100
2020/01/31 00:22:37.7	269.170	0.260	-0.430	1.100
2020/01/31 00:22:37.8	269.160	0.260	-0.440	1.090
2020/01/31 00:22:37.9	269.150	0.250	-0.450	1.090
2020/01/31 00:22:38.0	269.130	0.250	-0.450	1.080
2020/01/31 00:22:38.1	269.120	0.250	-0.460	1.070
2020/01/31 00:22:38.2	269.110	0.240	-0.470	1.060
2020/01/31 00:22:38.3	269.090	0.230	-0.480	1.050
2020/01/31 00:22:38.4	269.080	0.220	-0.490	1.040
2020/01/31 00:22:38.5	269.070	0.220	-0.500	1.020
2020/01/31 00:22:38.6	269.050	0.210	-0.510	1.010
2020/01/31 00:22:38.7	269.040	0.200	-0.520	0.990
2020/01/31 00:22:38.8	269.030	0.190	-0.520	0.980
2020/01/31 00:22:38.9	269.020	0.170	-0.530	0.970
2020/01/31 00:22:39.0	269.010	0.160	-0.540	0.950
2020/01/31 00:22:39.1	268.990	0.150	-0.540	0.940
2020/01/31 00:22:39.2	268.980	0.140	-0.550	0.920
2020/01/31 00:22:39.3	268.970	0.120	-0.550	0.910
2020/01/31 00:22:39.4	268.960	0.110	-0.550	0.890
2020/01/31 00:22:39.5	268.950	0.090	-0.560	0.880
2020/01/31 00:22:39.6	268.940	0.080	-0.560	0.870
2020/01/31 00:22:39.7	268.930	0.060	-0.560	0.860
2020/01/31 00:22:39.8	268.920	0.050	-0.560	0.840
2020/01/31 00:22:39.9	268.920	0.030	-0.560	0.830
2020/01/31 00:22:40.0	268.910	0.010	-0.550	0.820
2020/01/31 00:22:40.1	268.890	-0.000	-0.550	0.810
2020/01/31 00:22:40.2	268.880	-0.020	-0.550	0.800
2020/01/31 00:22:40.3	268.870	-0.040	-0.540	0.790
2020/01/31 00:22:40.4	268.860	-0.050	-0.540	0.780
2020/01/31 00:22:40.5	268.850	-0.070	-0.530	0.770
2020/01/31 00:22:40.6	268.840	-0.090	-0.530	0.760
2020/01/31 00:22:40.7	268.820	-0.100	-0.520	0.750
2020/01/31 00:22:40.8	268.810	-0.120	-0.510	0.750
2020/01/31 00:22:40.9	268.800	-0.140	-0.500	0.740
2020/01/31 00:22:41.0	268.790	-0.150	-0.490	0.730
2020/01/31 00:22:41.1	268.780	-0.170	-0.480	0.720
2020/01/31 00:22:41.2	268.770	-0.190	-0.480	0.710
2020/01/31 00:22:41.3	268.760	-0.200	-0.470	0.710
2020/01/31 00:22:41.4	268.750	-0.220	-0.460	0.700
2020/01/31 00:22:41.5	268.740	-0.230	-0.450	0.690
2020/01/31 00:22:41.6	268.740	-0.240	-0.440	0.690
2020/01/31 00:22:41.7	268.730	-0.260	-0.430	0.680
2020/01/31 00:22:41.8	268.720	-0.270	-0.420	0.680
2020/01/31 00:22:41.9	268.720	-0.280	-0.410	0.680
2020/01/31 00:22:42.0	268.710	-0.290	-0.400	0.670
2020/01/31 00:22:42.1	268.710	-0.300	-0.390	0.670
2020/01/31 00:22:42.2	268.710	-0.310	-0.380	0.670
2020/01/31 00:22:42.3	268.700	-0.320	-0.370	0.670
2020/01/31 00:22:42.4	268.700	-0.330	-0.360	0.670
2020/01/31 00:22:42.5	268.700	-0.340	-0.340	0.670
2020/01/31 00:22:42.6	268.700	-0.340	-0.330	0.670
2020/01/31 00:22:42.7	268.700	-0.350	-0.320	0.670
2020/01/31 00:22:42.8	268.700	-0.350	-0.310	0.680
2020/01/31 00:22:42.9	268.700	-0.360	-0.290	0.680
2020/01/31 00:22:43.0	268.700	-0.360	-0.280	0.680
2020/01/31 00:22:43.1	268.700	-0.370	-0.260	0.690
2020/01/31 00:22:43.2	268.710	-0.370	-0.250	0.700
2020/01/31 00:22:43.3	268.710	-0.370	-0.230	0.700
2020/01/31 00:22:43.4	268.720	-0.370	-0.210	0.710
2020/01/31 00:22:43.5	268.720	-0.380	-0.190	0.720
2020/01/31 00:22:43.6	268.730	-0.380	-0.170	0.730
2020/01/31 00:22:43.7	268.740	-0.380	-0.150	0.740
2020/01/31 00:22:43.8	268.740	-0.380	-0.120	0.750
2020/01/31 00:22:43.9	268.740	-0.380	-0.100	0.770
2020/01/31 00:22:44.0	268.750	-0.370	-0.080	0.780
2020/01/31 00:22:44.1	268.750	-0.370	-0.050	0.800
2020/01/31 00:22:44.2	268.760	-0.370	-0.020	0.810
2020/01/31 00:22:44.3	268.770	-0.370	0.000	0.830
2020/01/31 00:22:44.4	268.780	-0.360	0.030	0.850
2020/01/31 00:22:44.5	268.780	-0.360	0.050	0.870
2020/01/31 00:22:44.6	268.790	-0.350	0.080	0.890
2020/01/31 00:22:44.7	268.800	-0.350	0.110	0.910
2020/01/31 00:22:44.8	268.810	-0.340	0.130	0.930
2020/01/31 00:22:44.9	268.820	-0.330	0.150	0.950
2020/01/31 00:22:45.0	268.830	-0.320	0.180	0.970
2020/01/31 00:22:45.1	268.840	-0.310	0.200	0.990
2020/01/31 00:22:45.2	268.850	-0.300	0.220	1.010
2020/01/31 00:22:45.3	268.860	-0.290	0.230	1.030
2020/01/31 00:22:45.4	268.870	-0.270	0.250	1.050
2020/01/31 00:22:45.5	268.880	-0.260	0.260	1.060
2020/01/31 00:22:45.6	268.900	-0.240	0.280	1.080
2020/01/31 00:22:45.7	268.910	-0.230	0.290	1.090
2020/01/31 00:22:45.8	268.930	-0.210	0.300	1.100
2020/01/31 00:22:45.9	268.940	-0.190	0.300	1.110
2020/01/31 00:22:46.0	268.960	-0.170	0.310	1.120
2020/01/31 00:22:46.1	268.980	-0.150	0.310	1.130
2020/01/31 00:22:46.2	269.000	-0.120	0.310	1.130
2020/01/31 00:22:46.3	269.020	-0.100	0.310	1.130
2020/01/31 00:22:46.4	269.040	-0.080	0.310	1.130
2020/01/31 00:22:46.5	269.070	-0.050	0.300	1.130
2020/01/31 00:22:46.6	269.090	-0.030	0.290	1.120
2020/01/31 00:22:46.7	269.120	0.000	0.280	1.120
2020/01/31 00:22:46.8	269.140	0.030	0.270	1.110
2020/01/31 00:22:46.9	269.170	0.060	0.260	1.100
2020/01/31 00:22:47.0	269.200	0.090	0.240	1.090
2020/01/31 00:22:47.1	269.220	0.120	0.220	1.080
2020/01/31 00:22:47.2	269.250	0.150	0.200	1.070
2020/01/31 00:22:47.3	269.280	0.180	0.180	1.060
2020/01/31 00:22:47.4	269.310	0.210	0.160	1.050
2020/01/31 00:22:47.5	269.330	0.240	0.130	1.040
2020/01/31 00:22:47.6	269.360	0.270	0.100	1.030
2020/01/31 00:22:47.7	269.390	0.300	0.070	1.010
2020/01/31 00:22:47.8	269.410	0.340	0.040	1.000
2020/01/31 00:22:47.9	269.440	0.370	0.010	0.990
2020/01/31 00:22:48.0	269.470	0.400	-0.030	0.980
2020/01/31 00:22:48.1	269.490	0.430	-0.060	0.970
2020/01/31 00:22:48.2	269.510	0.460	-0.100	0.970
2020/01/31 00:22:48.3	269.530	0.490	-0.140	0.960
2020/01/31 00:22:48.4	269.550	0.520	-0.180	0.950
2020/01/31 00:22:48.5	269.560	0.550	-0.220	0.950
2020/01/31 00:22:48.6	269.580	0.570	-0.260	0.950
2020/01/31 00:22:48.7	269.590	0.600	-0.290	0.950
2020/01/31 00:22:48.8	269.600	0.620	-0.330	0.950
2020/01/31 00:22:48.9	269.600	0.640	-0.370	0.950
2020/01/31 00:22:49.0	269.610	0.660	-0.400	0.950
2020/01/31 00:22:49.1	269.610	0.680	-0.440	0.950
2020/01/31 00:22:49.2	269.620	0.690	-0.470	0.960
2020/01/31 00:22:49.3	269.620	0.710	-0.500	0.960
2020/01/31 00:22:49.4	269.620	0.720	-0.530	0.970
2020/01/31 00:22:49.5	269.610	0.720	-0.560	0.980
2020/01/31 00:22:49.6	269.610	0.730	-0.580	0.980
2020/01/31 00:22:49.7	269.600	0.730	-0.600	0.990
2020/01/31 00:22:49.8	269.590	0.730	-0.620	0.990
2020/01/31 00:22:49.9	269.580	0.730	-0.630	1.000
2020/01/31 00:22:50.0	269.570	0.720	-0.650	1.000
2020/01/31 00:22:50.1	269.550	0.710	-0.660	1.010
2020/01/31 00:22:50.2	269.540	0.700	-0.660	1.010
2020/01/31 00:22:50.3	269.520	0.680	-0.670	1.020
2020/01/31 00:22:50.4	269.500	0.670	-0.670	1.020
2020/01/31 00:22:50.5	269.480	0.650	-0.670	1.020
2020/01/31 00:22:50.6	269.460	0.630	-0.670	1.020
2020/01/31 00:22:50.7	269.440	0.600	-0.670	1.030
2020/01/31 00:22:50.8	269.420	0.580	-0.670	1.030
2020/01/31 00:22:50.9	269.390	0.550	-0.670	1.020
2020/01/31 00:22:51.0	269.360	0.520	-0.660	1.020
2020/01/31 00:22:51.1	269.340	0.490	-0.660	1.020
2020/01/31 00:22:51.2	269.310	0.460	-0.650	1.020
2020/01/31 00:22:51.3	269.280	0.420	-0.640	1.010
2020/01/31 00:22:51.4	269.260	0.390	-0.640	1.000
2020/01/31 00:22:51.5	269.230	0.350	-0.630	0.990
2020/01/31 00:22:51.6	269.210	0.320	-0.620	0.980
2020/01/31 00:22:51.7	269.180	0.280	-0.620	0.970
2020/01/31 00:22:51.8	269.150	0.240	-0.610	0.950
2020/01/31 00:22:51.9	269.130	0.200	-0.610	0.940
2020/01/31 00:22:52.0	269.100	0.160	-0.610	0.920
2020/01/31 00:22:52.1	269.080	0.130	-0.600	0.900
2020/01/31 00:22:52.2	269.060	0.090	-0.600	0.880
2020/01/31 00:22:52.3	269.030	0.050	-0.600	0.850
2020/01/31 00:22:52.4	269.010	0.010	-0.600	0.830
2020/01/31 00:22:52.5	268.990	-0.030	-0.600	0.810
2020/01/31 00:22:52.6	268.970	-0.070	-0.600	0.780
2020/01/31 00:22:52.7	268.950	-0.100	-0.600	0.760
2020/01/31 00:22:52.8	268.930	-0.140	-0.610	0.730
2020/01/31 00:22:52.9	268.920	-0.180	-0.610	0.710
2020/01/31 00:22:53.0	268.900	-0.210	-0.620	0.680
2020/01/31 00:22:53.1	268.890	-0.240	-0.620	0.650
2020/01/31 00:22:53.2	268.870	-0.280	-0.630	0.630
2020/01/31 00:22:53.3	268.860	-0.310	-0.640	0.600
2020/01/31 00:22:53.4	268.840	-0.340	-0.650	0.580
2020/01/31 00:22:53.5	268.830	-0.370	-0.660	0.550
2020/01/31 00:22:53.6	268.820	-0.390	-0.670	0.530
2020/01/31 00:22:53.7	268.810	-0.420	-0.680	0.500
2020/01/31 00:22:53.8	268.800	-0.450	-0.700	0.480
2020/01/31 00:22:53.9	268.800	-0.470	-0.710	0.460
2020/01/31 00:22:54.0	268.790	-0.490	-0.720	0.440
2020/01/31 00:22:54.1	268.780	-0.510	-0.730	0.420
2020/01/31 00:22:54.2	268.780	-0.530	-0.740	0.410
2020/01/31 00:22:54.3	268.770	-0.550	-0.750	0.390
2020/01/31 00:22:54.4	268.770	-0.560	-0.760	0.380
2020/01/31 00:22:54.5	268.770	-0.580	-0.770	0.370
2020/01/31 00:22:54.6	268.760	-0.590	-0.780	0.360
2020/01/31 00:22:54.7	268.760	-0.600	-0.780	0.350
2020/01/31 00:22:54.8	268.760	-0.610	-0.790	0.350
2020/01/31 00:22:54.9	268.780	-0.610	-0.790	0.350
2020/01/31 00:22:55.0	268.780	-0.620	-0.790	0.350
2020/01/31 00:22:55.1	268.790	-0.620	-0.790	0.350
2020/01/31 00:22:55.2	268.790	-0.630	-0.790	0.360
2020/01/31 00:22:55.3	268.800	-0.630	-0.780	0.360
2020/01/31 00:22:55.4	268.800	-0.630	-0.780	0.370
2020/01/31 00:22:55.5	268.810	-0.620	-0.770	0.390
2020/01/31 00:22:55.6	268.820	-0.620	-0.760	0.400
2020/01/31 00:22:55.7	268.830	-0.610	-0.740	0.420
2020/01/31 00:22:55.8	268.840	-0.610	-0.730	0.440
2020/01/31 00:22:55.9	268.850	-0.600	-0.720	0.460
2020/01/31 00:22:56.0	268.870	-0.590	-0.700	0.480
2020/01/31 00:22:56.1	268.880	-0.580	-0.680	0.510
2020/01/31 00:22:56.2	268.890	-0.570	-0.660	0.540
2020/01/31 00:22:56.3	268.910	-0.560	-0.630	0.570
2020/01/31 00:22:56.4	268.920	-0.540	-0.610	0.610
2020/01/31 00:22:56.5	268.940	-0.530	-0.580	0.650
2020/01/31 00:22:56.6	268.950	-0.510	-0.550	0.680
2020/01/31 00:22:56.7	268.970	-0.490	-0.520	0.720
2020/01/31 00:22:56.8	268.980	-0.480	-0.490	0.770
2020/01/31 00:22:56.9	269.000	-0.460	-0.450	0.810
2020/01/31 00:22:57.0	269.020	-0.440	-0.410	0.850
2020/01/31 00:22:57.1	269.030	-0.420	-0.380	0.890
2020/01/31 00:22:57.2	269.050	-0.400	-0.340	0.930
2020/01/31 00:22:57.3	269.060	-0.380	-0.310	0.970
2020/01/31 00:22:57.4	269.080	-0.360	-0.270	1.000
2020/01/31 00:22:57.5	269.090	-0.340	-0.230	1.040
2020/01/31 00:22:57.6	269.100	-0.320	-0.190	1.080
2020/01/31 00:22:57.7	269.120	-0.290	-0.150	1.110
2020/01/31 00:22:57.8	269.130	-0.270	-0.120	1.140
2020/01/31 00:22:57.9	269.140	-0.250	-0.080	1.170
2020/01/31 00:22:58.0	269.150	-0.230	-0.040	1.200
2020/01/31 00:22:58.1	269.170	-0.200	-0.010	1.230
2020/01/31 00:22:58.2	269.180	-0.180	0.030	1.250
2020/01/31 00:22:58.3	269.190	-0.160	0.070	1.270
2020/01/31 00:22:58.4	269.200	-0.140	0.100	1.290
2020/01/31 00:22:58.5	269.220	-0.120	0.140	1.310
2020/01/31 00:22:58.6	269.230	-0.100	0.170	1.320
2020/01/31 00:22:58.7	269.240	-0.080	0.200	1.330
2020/01/31 00:22:58.8	269.250	-0.060	0.230	1.340
2020/01/31 00:22:58.9	269.270	-0.040	0.260	1.340
2020/01/31 00:22:59.0	269.280	-0.020	0.290	1.340
2020/01/31 00:22:59.1	269.290	-0.010	0.310	1.340
2020/01/31 00:22:59.2	269.310	0.010	0.340	1.340
2020/01/31 00:22:59.3	269.320	0.030	0.360	1.330
2020/01/31 00:22:59.4	269.330	0.040	0.380	1.320
2020/01/31 00:22:59.5	269.350	0.060	0.390	1.300
2020/01/31 00:22:59.6	269.360	0.070	0.410	1.290
2020/01/31 00:22:59.7	269.370	0.090	0.420	1.270
2020/01/31 00:22:59.8	269.390	0.100	0.430	1.250
2020/01/31 00:22:59.9	269.400	0.110	0.430	1.230
2020/01/31 00:23:00.0	269.410	0.120	0.430	1.200
2020/01/31 00:23:00.1	269.420	0.140	0.430	1.180
2020/01/31 00:23:00.2	269.430	0.150	0.430	1.160
2020/01/31 00:23:00.3	269.440	0.160	0.420	1.130
2020/01/31 00:23:00.4	269.450	0.170	0.410	1.110
2020/01/31 00:23:00.5	269.460	0.180	0.400	1.080
2020/01/31 00:23:00.6	269.470	0.190	0.390	1.050
2020/01/31 00:23:00.7	269.470	0.200	0.370	1.030
2020/01/31 00:23:00.8	269.480	0.210	0.360	1.000
2020/01/31 00:23:00.9	269.480	0.220	0.330	0.970
2020/01/31 00:23:01.0	269.480	0.220	0.310	0.940
2020/01/31 00:23:01.1	269.490	0.230	0.290	0.920
2020/01/31 00:23:01.2	269.490	0.240	0.270	0.890
2020/01/31 00:23:01.3	269.500	0.250	0.240	0.860
2020/01/31 00:23:01.4	269.500	0.250	0.220	0.830
2020/01/31 00:23:01.5	269.500	0.260	0.190	0.800
2020/01/31 00:23:01.6	269.500	0.270	0.160	0.770
2020/01/31 00:23:01.7	269.510	0.270	0.140	0.740
2020/01/31 00:23:01.8	269.510	0.280	0.110	0.710
2020/01/31 00:23:01.9	269.510	0.280	0.080	0.680
2020/01/31 00:23:02.0	269.510	0.280	0.060	0.650
2020/01/31 00:23:02.1	269.510	0.290	0.030	0.620
2020/01/31 00:23:02.2	269.510	0.290	0.010	0.590
2020/01/31 00:23:02.3	269.510	0.290	-0.010	0.560
2020/01/31 00:23:02.4	269.500	0.290	-0.040	0.530
2020/01/31 00:23:02.5	269.500	0.290	-0.060	0.500
2020/01/31 00:23:02.6	269.500	0.290	-0.080	0.480
2020/01/31 00:23:02.7	269.500	0.290	-0.100	0.450
2020/01/31 00:23:02.8	269.490	0.290	-0.120	0.420
2020/01/31 00:23:02.9	269.470	0.290	-0.140	0.400
2020/01/31 00:23:03.0	269.460	0.280	-0.160	0.380
2020/01/31 00:23:03.1	269.460	0.280	-0.180	0.360
2020/01/31 00:23:03.2	269.450	0.280	-0.190	0.340
2020/01/31 00:23:03.3	269.440	0.270	-0.210	0.320
2020/01/31 00:23:03.4	269.430	0.270	-0.230	0.310
2020/01/31 00:23:03.5	269.420	0.260	-0.250	0.290
2020/01/31 00:23:03.6	269.410	0.260	-0.260	0.280
2020/01/31 00:23:03.7	269.400	0.250	-0.280	0.280
2020/01/31 00:23:03.8	269.390	0.250	-0.300	0.270
2020/01/31 00:23:03.9	269.370	0.240	-0.310	0.270
2020/01/31 00:23:04.0	269.350	0.240	-0.330	0.270
2020/01/31 00:23:04.1	269.340	0.230	-0.350	0.280
2020/01/31 00:23:04.2	269.320	0.230	-0.370	0.280
2020/01/31 00:23:04.3	269.300	0.220	-0.390	0.290
2020/01/31 00:23:04.4	269.280	0.220	-0.410	0.310
2020/01/31 00:23:04.5	269.260	0.220	-0.430	0.320
2020/01/31 00:23:04.6	269.240	0.220	-0.450	0.350
2020/01/31 00:23:04.7	269.220	0.210	-0.470	0.370
2020/01/31 00:23:04.8	269.200	0.210	-0.490	0.400
2020/01/31 00:23:04.9	269.180	0.210	-0.520	0.430
2020/01/31 00:23:05.0	269.150	0.210	-0.540	0.460
2020/01/31 00:23:05.1	269.120	0.210	-0.560	0.490
2020/01/31 00:23:05.2	269.100	0.210	-0.580	0.530
2020/01/31 00:23:05.3	269.070	0.210	-0.600	0.560
2020/01/31 00:23:05.4	269.040	0.210	-0.620	0.600
2020/01/31 00:23:05.5	269.020	0.210	-0.640	0.640
2020/01/31 00:23:05.6	268.990	0.210	-0.650	0.680
2020/01/31 00:23:05.7	268.970	0.210	-0.670	0.710
2020/01/31 00:23:05.8	268.940	0.210	-0.680	0.750
2020/01/31 00:23:05.9	268.910	0.210	-0.700	0.780
2020/01/31 00:23:06.0	268.890	0.210	-0.710	0.820
2020/01/31 00:23:06.1	268.860	0.210	-0.710	0.850
2020/01/31 00:23:06.2	268.840	0.210	-0.720	0.880
2020/01/31 00:23:06.3	268.810	0.200	-0.720	0.910
2020/01/31 00:23:06.4	268.790	0.200	-0.720	0.940
2020/01/31 00:23:06.5	268.770	0.190	-0.720	0.960
2020/01/31 00:23:06.6	268.750	0.190	-0.720	0.980
2020/01/31 00:23:06.7	268.730	0.180	-0.710	1.000
2020/01/31 00:23:06.8	268.710	0.170	-0.700	1.010
2020/01/31 00:23:06.9	268.700	0.160	-0.690	1.030
2020/01/31 00:23:07.0	268.680	0.150	-0.680	1.040
2020/01/31 00:23:07.1	268.660	0.140	-0.670	1.040
2020/01/31 00:23:07.2	268.650	0.130	-0.650	1.050
2020/01/31 00:23:07.3	268.630	0.120	-0.630	1.050
2020/01/31 00:23:07.4	268.620	0.100	-0.620	1.040
2020/01/31 00:23:07.5	268.610	0.090	-0.600	1.040
2020/01/31 00:23:07.6	268.600	0.070	-0.580	1.030
2020/01/31 00:23:07.7	268.590	0.060	-0.550	1.020
2020/01/31 00:23:07.8	268.580	0.040	-0.530	1.010
2020/01/31 00:23:07.9	268.570	0.030	-0.510	0.990
2020/01/31 00:23:08.0	268.570	0.010	-0.490	0.980
2020/01/31 00:23:08.1	268.560	-0.000	-0.470	0.960
2020/01/31 00:23:08.2	268.560	-0.010	-0.450	0.940
2020/01/31 00:23:08.3	268.560	-0.030	-0.440	0.920
2020/01/31 00:23:08.4	268.560	-0.040	-0.420	0.910
2020/01/31 00:23:08.5	268.560	-0.060	-0.400	0.890
2020/01/31 00:23:08.6	268.560	-0.070	-0.390	0.870
2020/01/31 00:23:08.7	268.560	-0.080	-0.380	0.850
2020/01/31 00:23:08.8	268.570	-0.090	-0.370	0.840
2020/01/31 00:23:08.9	268.580	-0.100	-0.360	0.820
2020/01/31 00:23:09.0	268.580	-0.110	-0.350	0.810
2020/01/31 00:23:09.1	268.590	-0.110	-0.350	0.790
2020/01/31 00:23:09.2	268.600	-0.120	-0.340	0.780
2020/01/31 00:23:09.3	268.610	-0.130	-0.340	0.770
2020/01/31 00:23:09.4	268.620	-0.130	-0.340	0.750
2020/01/31 00:23:09.5	268.630	-0.130	-0.350	0.740
2020/01/31 00:23:09.6	268.640	-0.130	-0.350	0.730
2020/01/31 00:23:09.7	268.650	-0.130	-0.360	0.720
2020/01/31 00:23:09.8	268.670	-0.130	-0.370	0.710
2020/01/31 00:23:09.9	268.690	-0.130	-0.380	0.710
2020/01/31 00:23:10.0	268.700	-0.130	-0.390	0.700
2020/01/31 00:23:10.1	268.720	-0.130	-0.400	0.690
2020/01/31 00:23:10.2	268.740	-0.130	-0.410	0.690
2020/01/31 00:23:10.3	268.760	-0.120	-0.420	0.680
2020/01/31 00:23:10.4	268.780	-0.120	-0.430	0.680
2020/01/31 00:23:10.5	268.800	-0.110	-0.440	0.670
2020/01/31 00:23:10.6	268.820	-0.110	-0.460	0.670
2020/01/31 00:23:10.7	268.840	-0.110	-0.470	0.670
2020/01/31 00:23:10.8	268.860	-0.100	-0.480	0.670
2020/01/31 00:23:10.9	268.890	-0.100	-0.490	0.670
2020/01/31 00:23:11.0	268.910	-0.090	-0.500	0.680
2020/01/31 00:23:11.1	268.940	-0.090	-0.510	0.680
2020/01/31 00:23:11.2	268.960	-0.090	-0.520	0.690
2020/01/31 00:23:11.3	268.990	-0.080	-0.530	0.700
2020/01/31 00:23:11.4	269.010	-0.080	-0.540	0.710
2020/01/31 00:23:11.5	269.040	-0.080	-0.550	0.720
2020/01/31 00:23:11.6	269.060	-0.080	-0.560	0.730
2020/01/31 00:23:11.7	269.090	-0.080	-0.560	0.750
2020/01/31 00:23:11.8	269.110	-0.080	-0.570	0.770
2020/01/31 00:23:11.9	269.140	-0.080	-0.570	0.780
2020/01/31 00:23:12.0	269.160	-0.080	-0.580	0.800
2020/01/31 00:23:12.1	269.190	-0.080	-0.580	0.820
2020/01/31 00:23:12.2	269.210	-0.090	-0.580	0.840
2020/01/31 00:23:12.3	269.240	-0.090	-0.580	0.870
2020/01/31 00:23:12.4	269.260	-0.090	-0.580	0.890
2020/01/31 00:23:12.5	269.290	-0.100	-0.570	0.910
2020/01/31 00:23:12.6	269.310	-0.100	-0.570	0.930
2020/01/31 00:23:12.7	269.330	-0.110	-0.570	0.960
2020/01/31 00:23:12.8	269.360	-0.110	-0.560	0.980
2020/01/31 00:23:12.9	269.370	-0.120	-0.550	1.010
2020/01/31 00:23:13.0	269.390	-0.120	-0.540	1.030
2020/01/31 00:23:13.1	269.410	-0.130	-0.540	1.050
2020/01/31 00:23:13.2	269.430	-0.130	-0.530	1.070
2020/01/31 00:23:13.3	269.440	-0.140	-0.520	1.100
2020/01/31 00:23:13.4	269.460	-0.140	-0.510	1.120
2020/01/31 00:23:13.5	269.470	-0.150	-0.490	1.140
2020/01/31 00:23:13.6	269.480	-0.150	-0.480	1.160
2020/01/31 00:23:13.7	269.490	-0.160	-0.470	1.180
2020/01/31 00:23:13.8	269.490	-0.160	-0.460	1.200
2020/01/31 00:23:13.9	269.520	-0.170	-0.440	1.220
2020/01/31 00:23:14.0	269.520	-0.170	-0.430	1.240
2020/01/31 00:23:14.1	269.520	-0.170	-0.410	1.260
2020/01/31 00:23:14.2	269.510	-0.180	-0.400	1.280
2020/01/31 00:23:14.3	269.510	-0.180	-0.380	1.300
2020/01/31 00:23:14.4	269.500	-0.180	-0.360	1.320
2020/01/31 00:23:14.5	269.480	-0.190	-0.340	1.340
2020/01/31 00:23:14.6	269.470	-0.190	-0.330	1.360
2020/01/31 00:23:14.7	269.460	-0.190	-0.310	1.380
2020/01/31 00:23:14.8	269.440	-0.190	-0.290	1.400
2020/01/31 00:23:14.9	269.410	-0.190	-0.270	1.410
2020/01/31 00:23:15.0	269.390	-0.200	-0.250	1.430
2020/01/31 00:23:15.1	269.370	-0.200	-0.230	1.450
2020/01/31 00:23:15.2	269.340	-0.200	-0.210	1.460
2020/01/31 00:23:15.3	269.310	-0.200	-0.190	1.480
2020/01/31 00:23:15.4	269.290	-0.200	-0.160	1.490
2020/01/31 00:23:15.5	269.260	-0.200	-0.140	1.500
2020/01/31 00:23:15.6	269.230	-0.200	-0.120	1.510
2020/01/31 00:23:15.7	269.190	-0.200	-0.090	1.520
2020/01/31 00:23:15.8	269.160	-0.200	-0.070	1.530
2020/01/31 00:23:15.9	269.150	-0.200	-0.050	1.530
2020/01/31 00:23:16.0	269.110	-0.200	-0.020	1.540
2020/01/31 00:23:16.1	269.080	-0.190	-0.000	1.540
2020/01/31 00:23:16.2	269.040	-0.190	0.020	1.540
2020/01/31 00:23:16.3	269.000	-0.190	0.040	1.540
2020/01/31 00:23:16.4	268.970	-0.190	0.060	1.530
2020/01/31 00:23:16.5	268.930	-0.190	0.070	1.520
2020/01/31 00:23:16.6	268.890	-0.180	0.090	1.520
2020/01/31 00:23:16.7	268.850	-0.180	0.110	1.500
2020/01/31 00:23:16.8	268.820	-0.180	0.120	1.490
2020/01/31 00:23:16.9	268.770	-0.170	0.130	1.470
2020/01/31 00:23:17.0	268.730	-0.170	0.140	1.450
2020/01/31 00:23:17.1	268.700	-0.160	0.150	1.430
2020/01/31 00:23:17.2	268.660	-0.160	0.160	1.410
2020/01/31 00:23:17.3	268.630	-0.150	0.170	1.380
2020/01/31 00:23:17.4	268.590	-0.150	0.180	1.360
2020/01/31 00:23:17.5	268.560	-0.140	0.180	1.330
2020/01/31 00:23:17.6	268.530	-0.140	0.190	1.300
2020/01/31 00:23:17.7	268.500	-0.130	0.190	1.270
2020/01/31 00:23:17.8	268.470	-0.120	0.200	1.230
2020/01/31 00:23:17.9	268.420	-0.120	0.200	1.200
2020/01/31 00:23:18.0	268.400	-0.110	0.200	1.160
2020/01/31 00:23:18.1	268.380	-0.100	0.200	1.130
2020/01/31 00:23:18.2	268.350	-0.090	0.200	1.090
2020/01/31 00:23:18.3	268.330	-0.080	0.200	1.050
2020/01/31 00:23:18.4	268.320	-0.070	0.200	1.020
2020/01/31 00:23:18.5	268.300	-0.060	0.190	0.980
2020/01/31 00:23:18.6	268.290	-0.050	0.190	0.940
2020/01/31 00:23:18.7	268.280	-0.040	0.190	0.910
2020/01/31 00:23:18.8	268.280	-0.030	0.180	0.870
2020/01/31 00:23:18.9	268.260	-0.010	0.180	0.830
2020/01/31 00:23:19.0	268.260	-0.000	0.170	0.790
2020/01/31 00:23:19.1	268.260	0.010	0.170	0.760
2020/01/31 00:23:19.2	268.260	0.030	0.160	0.720
2020/01/31 00:23:19.3	268.270	0.040	0.150	0.690
2020/01/31 00:23:19.4	268.270	0.050	0.150	0.660
2020/01/31 00:23:19.5	268.280	0.070	0.140	0.630
2020/01/31 00:23:19.6	268.300	0.080	0.130	0.600
2020/01/31 00:23:19.7	268.310	0.100	0.120	0.570
2020/01/31 00:23:19.8	268.330	0.110	0.110	0.550
2020/01/31 00:23:19.9	268.340	0.130	0.100	0.520
2020/01/31 00:23:20.0	268.360	0.140	0.080	0.500
2020/01/31 00:23:20.1	268.380	0.160	0.070	0.480
2020/01/31 00:23:20.2	268.400	0.170	0.060	0.460
2020/01/31 00:23:20.3	268.420	0.190	0.040	0.440
2020/01/31 00:23:20.4	268.450	0.200	0.020	0.420
2020/01/31 00:23:20.5	268.470	0.220	0.000	0.410
2020/01/31 00:23:20.6	268.500	0.230	-0.020	0.400
2020/01/31 00:23:20.7	268.520	0.250	-0.040	0.390
2020/01/31 00:23:20.8	268.550	0.260	-0.060	0.380
2020/01/31 00:23:20.9	268.570	0.280	-0.080	0.380
2020/01/31 00:23:21.0	268.600	0.290	-0.110	0.370
2020/01/31 00:23:21.1	268.630	0.300	-0.130	0.370
2020/01/31 00:23:21.2	268.650	0.320	-0.160	0.370
2020/01/31 00:23:21.3	268.680	0.330	-0.190	0.380
2020/01/31 00:23:21.4	268.710	0.340	-0.220	0.380
2020/01/31 00:23:21.5	268.730	0.350	-0.250	0.390
2020/01/31 00:23:21.6	268.760	0.360	-0.280	0.390
2020/01/31 00:23:21.7	268.790	0.370	-0.310	0.410
2020/01/31 00:23:21.8	268.810	0.380	-0.340	0.420
2020/01/31 00:23:21.9	268.840	0.390	-0.370	0.430
2020/01/31 00:23:22.0	268.860	0.390	-0.400	0.450
2020/01/31 00:23:22.1	268.880	0.400	-0.430	0.470
2020/01/31 00:23:22.2	268.900	0.400	-0.460	0.490
2020/01/31 00:23:22.3	268.930	0.410	-0.490	0.510
2020/01/31 00:23:22.4	268.940	0.410	-0.520	0.530
2020/01/31 00:23:22.5	268.960	0.410	-0.550	0.550
2020/01/31 00:23:22.6	268.980	0.410	-0.580	0.570
2020/01/31 00:23:22.7	269.000	0.410	-0.600	0.590
2020/01/31 00:23:22.8	269.010	0.400	-0.630	0.620
2020/01/31 00:23:22.9	269.020	0.400	-0.650	0.640
2020/01/31 00:23:23.0	269.040	0.390	-0.680	0.660
2020/01/31 00:23:23.1	269.050	0.380	-0.700	0.680
2020/01/31 00:23:23.2	269.060	0.370	-0.710	0.710
2020/01/31 00:23:23.3	269.060	0.360	-0.730	0.730
2020/01/31 00:23:23.4	269.070	0.350	-0.740	0.750
2020/01/31 00:23:23.5	269.080	0.330	-0.760	0.770
2020/01/31 00:23:23.6	269.080	0.320	-0.770	0.790
2020/01/31 00:23:23.7	269.090	0.300	-0.770	0.810
2020/01/31 00:23:23.8	269.090	0.290	-0.780	0.830
2020/01/31 00:23:23.9	269.090	0.270	-0.790	0.850
2020/01/31 00:23:24.0	269.090	0.250	-0.790	0.860
2020/01/31 00:23:24.1	269.090	0.230	-0.790	0.870
2020/01/31 00:23:24.2	269.090	0.200	-0.790	0.880
2020/01/31 00:23:24.3	269.090	0.180	-0.790	0.890
2020/01/31 00:23:24.4	269.090	0.160	-0.780	0.900
2020/01/31 00:23:24.5	269.090	0.140	-0.780	0.900
2020/01/31 00:23:24.6	269.090	0.110	-0.770	0.900
2020/01/31 00:23:24.7	269.090	0.090	-0.760	0.900
2020/01/31 00:23:24.8	269.080	0.070	-0.760	0.900
2020/01/31 00:23:24.9	269.100	0.050	-0.750	0.900
2020/01/31 00:23:25.0	269.090	0.020	-0.740	0.890
2020/01/31 00:23:25.1	269.090	0.000	-0.730	0.890
2020/01/31 00:23:25.2	269.080	-0.020	-0.720	0.880
2020/01/31 00:23:25.3	269.070	-0.040	-0.710	0.870
2020/01/31 00:23:25.4	269.070	-0.060	-0.700	0.860
2020/01/31 00:23:25.5	269.060	-0.080	-0.690	0.850
2020/01/31 00:23:25.6	269.050	-0.090	-0.680	0.840
2020/01/31 00:23:25.7	269.050	-0.110	-0.670	0.830
2020/01/31 00:23:25.8	269.040	-0.120	-0.660	0.820
2020/01/31 00:23:25.9	269.020	-0.130	-0.650	0.820
2020/01/31 00:23:26.0	269.020	-0.150	-0.650	0.810
2020/01/31 00:23:26.1	269.010	-0.160	-0.640	0.800
2020/01/31 00:23:26.2	269.010	-0.160	-0.630	0.790
2020/01/31 00:23:26.3	269.000	-0.170	-0.620	0.780
2020/01/31 00:23:26.4	269.000	-0.180	-0.610	0.770
2020/01/31 00:23:26.5	269.000	-0.180	-0.610	0.760
2020/01/31 00:23:26.6	268.990	-0.180	-0.600	0.750
2020/01/31 00:23:26.7	268.990	-0.180	-0.590	0.740
2020/01/31 00:23:26.8	268.980	-0.180	-0.590	0.730
2020/01/31 00:23:26.9	268.980	-0.180	-0.570	0.720
2020/01/31 00:23:27.0	268.980	-0.180	-0.570	0.720
2020/01/31 00:23:27.1	268.970	-0.170	-0.560	0.710
2020/01/31 00:23:27.2	268.970	-0.170	-0.550	0.710
2020/01/31 00:23:27.3	268.960	-0.160	-0.550	0.700
2020/01/31 00:23:27.4	268.960	-0.160	-0.540	0.700
2020/01/31 00:23:27.5	268.950	-0.150	-0.540	0.700
2020/01/31 00:23:27.6	268.950	-0.140	-0.530	0.700
2020/01/31 00:23:27.7	268.940	-0.140	-0.520	0.700
2020/01/31 00:23:27.8	268.930	-0.130	-0.520	0.700
2020/01/31 00:23:27.9	268.930	-0.120	-0.520	0.710
2020/01/31 00:23:28.0	268.920	-0.110	-0.510	0.710
2020/01/31 00:23:28.1	268.910	-0.100	-0.500	0.720
2020/01/31 00:23:28.2	268.900	-0.100	-0.500	0.730
2020/01/31 00:23:28.3	268.890	-0.090	-0.490	0.740
2020/01/31 00:23:28.4	268.880	-0.080	-0.480	0.750
2020/01/31 00:23:28.5	268.860	-0.070	-0.470	0.760
2020/01/31 00:23:28.6	268.850	-0.070	-0.470	0.780
2020/01/31 00:23:28.7	268.840	-0.060	-0.450	0.790
2020/01/31 00:23:28.8	268.830	-0.060	-0.440	0.810
2020/01/31 00:23:28.9	268.820	-0.050	-0.430	0.820
2020/01/31 00:23:29.0	268.810	-0.050	-0.420	0.840
2020/01/31 00:23:29.1	268.800	-0.050	-0.400	0.860
2020/01/31 00:23:29.2	268.790	-0.050	-0.390	0.880
2020/01/31 00:23:29.3	268.780	-0.040	-0.370	0.900
2020/01/31 00:23:29.4	268.770	-0.050	-0.350	0.920
2020/01/31 00:23:29.5	268.770	-0.050	-0.330	0.950
2020/01/31 00:23:29.6	268.760	-0.050	-0.310	0.970
2020/01/31 00:23:29.7	268.750	-0.050	-0.290	0.990
2020/01/31 00:23:29.8	268.750	-0.060	-0.270	1.010
2020/01/31 00:23:29.9	268.740	-0.060	-0.240	1.030
2020/01/31 00:23:30.0	268.730	-0.070	-0.210	1.050
2020/01/31 00:23:30.1	268.730	-0.070	-0.190	1.070
2020/01/31 00:23:30.2	268.730	-0.080	-0.160	1.090
2020/01/31 00:23:30.3	268.730	-0.090	-0.140	1.110
2020/01/31 00:23:30.4	268.720	-0.100	-0.110	1.130
2020/01/31 00:23:30.5	268.720	-0.110	-0.090	1.150
2020/01/31 00:23:30.6	268.720	-0.120	-0.060	1.160
2020/01/31 00:23:30.7	268.720	-0.130	-0.040	1.170
2020/01/31 00:23:30.8	268.720	-0.140	-0.010	1.180
2020/01/31 00:23:30.9	268.730	-0.150	0.010	1.190
2020/01/31 00:23:31.0	268.730	-0.160	0.030	1.200
2020/01/31 00:23:31.1	268.740	-0.170	0.050	1.200
2020/01/31 00:23:31.2	268.740	-0.180	0.070	1.200
2020/01/31 00:23:31.3	268.740	-0.190	0.080	1.200
2020/01/31 00:23:31.4	268.750	-0.200	0.100	1.200
2020/01/31 00:23:31.5	268.750	-0.210	0.110	1.190
2020/01/31 00:23:31.6	268.750	-0.220	0.120	1.180
2020/01/31 00:23:31.7	268.760	-0.230	0.130	1.170
2020/01/31 00:23:31.8	268.760	-0.230	0.140	1.160
2020/01/31 00:23:31.9	268.780	-0.240	0.140	1.150
2020/01/31 00:23:32.0	268.790	-0.240	0.150	1.140
2020/01/31 00:23:32.1	268.790	-0.250	0.150	1.120
2020/01/31 00:23:32.2	268.790	-0.250	0.150	1.100
2020/01/31 00:23:32.3	268.800	-0.250	0.140	1.080
2020/01/31 00:23:32.4	268.800	-0.250	0.140	1.060
2020/01/31 00:23:32.5	268.800	-0.250	0.130	1.040
2020/01/31 00:23:32.6	268.810	-0.250	0.120	1.020
2020/01/31 00:23:32.7	268.810	-0.250	0.120	0.990
2020/01/31 00:23:32.8	268.810	-0.240	0.110	0.970
2020/01/31 00:23:32.9	268.810	-0.240	0.090	0.940
2020/01/31 00:23:33.0	268.810	-0.230	0.080	0.920
2020/01/31 00:23:33.1	268.810	-0.230	0.070	0.900
2020/01/31 00:23:33.2	268.810	-0.220	0.050	0.870
2020/01/31 00:23:33.3	268.810	-0.210	0.040	0.850
2020/01/31 00:23:33.4	268.810	-0.210	0.030	0.820
2020/01/31 00:23:33.5	268.810	-0.200	0.010	0.800
2020/01/31 00:23:33.6	268.810	-0.190	0.000	0.780
2020/01/31 00:23:33.7	268.810	-0.180	-0.010	0.760
2020/01/31 00:23:33.8	268.800	-0.180	-0.020	0.740
2020/01/31 00:23:33.9	268.800	-0.170	-0.040	0.720
2020/01/31 00:23:34.0	268.790	-0.160	-0.050	0.710
2020/01/31 00:23:34.1	268.790	-0.150	-0.060	0.690
2020/01/31 00:23:34.2	268.790	-0.150	-0.070	0.680
2020/01/31 00:23:34.3	268.780	-0.140	-0.080	0.670
2020/01/31 00:23:34.4	268.780	-0.130	-0.090	0.660
2020/01/31 00:23:34.5	268.780	-0.130	-0.100	0.650
2020/01/31 00:23:34.6	268.770	-0.120	-0.110	0.650
2020/01/31 00:23:34.7	268.770	-0.110	-0.110	0.640
2020/01/31 00:23:34.8	268.760	-0.110	-0.120	0.640
2020/01/31 00:23:34.9	268.750	-0.100	-0.120	0.640
2020/01/31 00:23:35.0	268.740	-0.100	-0.130	0.640
2020/01/31 00:23:35.1	268.740	-0.090	-0.140	0.650
2020/01/31 00:23:35.2	268.730	-0.090	-0.140	0.650
2020/01/31 00:23:35.3	268.730	-0.090	-0.140	0.660
2020/01/31 00:23:35.4	268.720	-0.080	-0.150	0.660
2020/01/31 00:23:35.5	268.720	-0.080	-0.150	0.670
2020/01/31 00:23:35.6	268.710	-0.080	-0.160	0.680
2020/01/31 00:23:35.7	268.710	-0.070	-0.160	0.690
2020/01/31 00:23:35.8	268.710	-0.070	-0.170	0.700
2020/01/31 00:23:35.9	268.700	-0.070	-0.180	0.710
2020/01/31 00:23:36.0	268.700	-0.070	-0.180	0.720
2020/01/31 00:23:36.1	268.690	-0.060	-0.190	0.740
2020/01/31 00:23:36.2	268.690	-0.060	-0.200	0.750
2020/01/31 00:23:36.3	268.690	-0.060	-0.200	0.760
2020/01/31 00:23:36.4	268.690	-0.050	-0.210	0.780
2020/01/31 00:23:36.5	268.690	-0.050	-0.220	0.790
2020/01/31 00:23:36.6	268.690	-0.040	-0.230	0.810
2020/01/31 00:23:36.7	268.700	-0.040	-0.230	0.820
2020/01/31 00:23:36.8	268.700	-0.040	-0.240	0.840
2020/01/31 00:23:36.9	268.710	-0.030	-0.250	0.850
2020/01/31 00:23:37.0	268.710	-0.020	-0.260	0.860
2020/01/31 00:23:37.1	268.710	-0.020	-0.270	0.880
2020/01/31 00:23:37.2	268.720	-0.010	-0.280	0.890
2020/01/31 00:23:37.3	268.720	-0.000	-0.290	0.910
2020/01/31 00:23:37.4	268.730	0.000	-0.300	0.920
2020/01/31 00:23:37.5	268.730	0.010	-0.310	0.940
2020/01/31 00:23:37.6	268.730	0.020	-0.320	0.950
2020/01/31 00:23:37.7	268.740	0.030	-0.340	0.970
2020/01/31 00:23:37.8	268.740	0.040	-0.350	0.980
2020/01/31 00:23:37.9	268.750	0.050	-0.360	1.000
2020/01/31 00:23:38.0	268.760	0.050	-0.370	1.020
2020/01/31 00:23:38.1	268.760	0.060	-0.390	1.030
2020/01/31 00:23:38.2	268.760	0.070	-0.400	1.040
2020/01/31 00:23:38.3	268.770	0.080	-0.410	1.060
2020/01/31 00:23:38.4	268.770	0.090	-0.420	1.070
2020/01/31 00:23:38.5	268.770	0.100	-0.430	1.090
2020/01/31 00:23:38.6	268.770	0.110	-0.440	1.100
2020/01/31 00:23:38.7	268.770	0.120	-0.450	1.120
2020/01/31 00:23:38.8	268.780	0.130	-0.460	1.130
2020/01/31 00:23:38.9	268.770	0.140	-0.470	1.150
2020/01/31 00:23:39.0	268.770	0.150	-0.480	1.160
2020/01/31 00:23:39.1	268.770	0.160	-0.490	1.180
2020/01/31 00:23:39.2	268.770	0.170	-0.500	1.200
2020/01/31 00:23:39.3	268.780	0.170	-0.510	1.220
2020/01/31 00:23:39.4	268.780	0.180	-0.520	1.230
2020/01/31 00:23:39.5	268.780	0.190	-0.530	1.250
2020/01/31 00:23:39.6	268.780	0.190	-0.540	1.270
2020/01/31 00:23:39.7	268.780	0.200	-0.550	1.290
2020/01/31 00:23:39.8	268.790	0.200	-0.560	1.310
2020/01/31 00:23:39.9	268.790	0.210	-0.570	1.330
2020/01/31 00:23:40.0	268.790	0.210	-0.580	1.340
2020/01/31 00:23:40.1	268.790	0.210	-0.590	1.360
2020/01/31 00:23:40.2	268.790	0.210	-0.600	1.380
2020/01/31 00:23:40.3	268.790	0.210	-0.610	1.400
2020/01/31 00:23:40.4	268.800	0.210	-0.620	1.410
2020/01/31 00:23:40.5	268.800	0.210	-0.630	1.430
2020/01/31 00:23:40.6	268.800	0.210	-0.640	1.440
2020/01/31 00:23:40.7	268.800	0.210	-0.640	1.460
2020/01/31 00:23:40.8	268.800	0.210	-0.650	1.470
2020/01/31 00:23:40.9	268.810	0.210	-0.660	1.490
2020/01/31 00:23:41.0	268.810	0.210	-0.670	1.500
2020/01/31 00:23:41.1	268.800	0.210	-0.680	1.510
2020/01/31 00:23:41.2	268.800	0.210	-0.690	1.520
2020/01/31 00:23:41.3	268.800	0.200	-0.700	1.530
2020/01/31 00:23:41.4	268.790	0.200	-0.700	1.540
2020/01/31 00:23:41.5	268.790	0.200	-0.710	1.550
2020/01/31 00:23:41.6	268.780	0.200	-0.710	1.550
2020/01/31 00:23:41.7	268.770	0.190	-0.720	1.560
2020/01/31 00:23:41.8	268.760	0.190	-0.720	1.560
2020/01/31 00:23:41.9	268.750	0.190	-0.720	1.570
2020/01/31 00:23:42.0	268.730	0.190	-0.720	1.570
2020/01/31 00:23:42.1	268.720	0.190	-0.710	1.570
2020/01/31 00:23:42.2	268.710	0.180	-0.710	1.570
2020/01/31 00:23:42.3	268.690	0.180	-0.700	1.570
2020/01/31 00:23:42.4	268.680	0.180	-0.690	1.560
2020/01/31 00:23:42.5	268.660	0.180	-0.670	1.560
2020/01/31 00:23:42.6	268.640	0.180	-0.660	1.550
2020/01/31 00:23:42.7	268.630	0.170	-0.640	1.540
2020/01/31 00:23:42.8	268.610	0.170	-0.620	1.530
2020/01/31 00:23:42.9	268.580	0.170	-0.600	1.520
2020/01/31 00:23:43.0	268.560	0.170	-0.580	1.510
2020/01/31 00:23:43.1	268.540	0.160	-0.550	1.500
2020/01/31 00:23:43.2	268.530	0.160	-0.520	1.490
2020/01/31 00:23:43.3	268.510	0.160	-0.490	1.480
2020/01/31 00:23:43.4	268.500	0.150	-0.460	1.460
2020/01/31 00:23:43.5	268.490	0.150	-0.430	1.450
2020/01/31 00:23:43.6	268.470	0.140	-0.390	1.430
2020/01/31 00:23:43.7	268.460	0.140	-0.360	1.410
2020/01/31 00:23:43.8	268.450	0.130	-0.320	1.390
2020/01/31 00:23:43.9	268.440	0.120	-0.300	1.370
2020/01/31 00:23:44.0	268.440	0.110	-0.260	1.340
2020/01/31 00:23:44.1	268.430	0.100	-0.230	1.320
2020/01/31 00:23:44.2	268.420	0.090	-0.190	1.290
2020/01/31 00:23:44.3	268.420	0.080	-0.160	1.270
2020/01/31 00:23:44.4	268.410	0.070	-0.120	1.240
2020/01/31 00:23:44.5	268.410	0.060	-0.090	1.210
2020/01/31 00:23:44.6	268.410	0.050	-0.060	1.180
2020/01/31 00:23:44.7	268.410	0.030	-0.030	1.150
2020/01/31 00:23:44.8	268.410	0.020	-0.000	1.120
2020/01/31 00:23:44.9	268.410	0.000	0.030	1.080
2020/01/31 00:23:45.0	268.410	-0.010	0.060	1.050
2020/01/31 00:23:45.1	268.410	-0.030	0.080	1.010
2020/01/31 00:23:45.2	268.410	-0.040	0.100	0.980
2020/01/31 00:23:45.3	268.420	-0.060	0.110	0.940
2020/01/31 00:23:45.4	268.420	-0.070	0.120	0.900
2020/01/31 00:23:45.5	268.430	-0.090	0.130	0.860
2020/01/31 00:23:45.6	268.430	-0.100	0.140	0.820
2020/01/31 00:23:45.7	268.440	-0.120	0.150	0.780
2020/01/31 00:23:45.8	268.450	-0.130	0.150	0.740
2020/01/31 00:23:45.9	268.440	-0.140	0.150	0.710
2020/01/31 00:23:46.0	268.450	-0.160	0.140	0.670
2020/01/31 00:23:46.1	268.460	-0.170	0.140	0.630
2020/01/31 00:23:46.2	268.480	-0.180	0.130	0.590
2020/01/31 00:23:46.3	268.490	-0.190	0.120	0.560
2020/01/31 00:23:46.4	268.500	-0.200	0.110	0.520
2020/01/31 00:23:46.5	268.510	-0.200	0.100	0.490
2020/01/31 00:23:46.6	268.520	-0.210	0.080	0.460
2020/01/31 00:23:46.7	268.530	-0.210	0.060	0.430
2020/01/31 00:23:46.8	268.550	-0.220	0.040	0.400
2020/01/31 00:23:46.9	268.550	-0.220	0.030	0.370
2020/01/31 00:23:47.0	268.570	-0.220	0.000	0.350
2020/01/31 00:23:47.1	268.580	-0.220	-0.020	0.320
2020/01/31 00:23:47.2	268.590	-0.220	-0.040	0.310
2020/01/31 00:23:47.3	268.600	-0.220	-0.060	0.290
2020/01/31 00:23:47.4	268.620	-0.220	-0.090	0.280
2020/01/31 00:23:47.5	268.630	-0.210	-0.110	0.270
2020/01/31 00:23:47.6	268.640	-0.210	-0.140	0.260
2020/01/31 00:23:47.7	268.650	-0.200	-0.160	0.250
2020/01/31 00:23:47.8	268.660	-0.190	-0.180	0.250
2020/01/31 00:23:47.9	268.680	-0.180	-0.210	0.260
2020/01/31 00:23:48.0	268.690	-0.180	-0.230	0.260
2020/01/31 00:23:48.1	268.700	-0.170	-0.250	0.270
2020/01/31 00:23:48.2	268.710	-0.160	-0.270	0.280
2020/01/31 00:23:48.3	268.720	-0.150	-0.280	0.300
2020/01/31 00:23:48.4	268.740	-0.140	-0.300	0.310
2020/01/31 00:23:48.5	268.750	-0.130	-0.320	0.340
2020/01/31 00:23:48.6	268.750	-0.120	-0.330	0.360
2020/01/31 00:23:48.7	268.760	-0.110	-0.340	0.380
2020/01/31 00:23:48.8	268.770	-0.100	-0.360	0.410
2020/01/31 00:23:48.9	268.780	-0.090	-0.360	0.440
2020/01/31 00:23:49.0	268.780	-0.080	-0.370	0.460
2020/01/31 00:23:49.1	268.790	-0.070	-0.380	0.490
2020/01/31 00:23:49.2	268.800	-0.060	-0.380	0.520
2020/01/31 00:23:49.3	268.800	-0.060	-0.390	0.540
2020/01/31 00:23:49.4	268.810	-0.050	-0.390	0.570
2020/01/31 00:23:49.5	268.810	-0.040	-0.390	0.590
2020/01/31 00:23:49.6	268.820	-0.040	-0.390	0.620
2020/01/31 00:23:49.7	268.830	-0.030	-0.380	0.640
2020/01/31 00:23:49.8	268.830	-0.030	-0.380	0.660
2020/01/31 00:23:49.9	268.830	-0.020	-0.380	0.680
2020/01/31 00:23:50.0	268.840	-0.020	-0.370	0.690
2020/01/31 00:23:50.1	268.840	-0.020	-0.370	0.710
2020/01/31 00:23:50.2	268.850	-0.020	-0.360	0.720
2020/01/31 00:23:50.3	268.860	-0.020	-0.350	0.730
2020/01/31 00:23:50.4	268.860	-0.020	-0.340	0.740
2020/01/31 00:23:50.5	268.870	-0.020	-0.330	0.740
2020/01/31 00:23:50.6	268.880	-0.020	-0.320	0.750
2020/01/31 00:23:50.7	268.890	-0.020	-0.310	0.750
2020/01/31 00:23:50.8	268.900	-0.020	-0.300	0.740
2020/01/31 00:23:50.9	268.920	-0.030	-0.290	0.740
2020/01/31 00:23:51.0	268.930	-0.030	-0.280	0.730
2020/01/31 00:23:51.1	268.940	-0.030	-0.270	0.720
2020/01/31 00:23:51.2	268.950	-0.040	-0.260	0.710
2020/01/31 00:23:51.3	268.960	-0.040	-0.250	0.700
2020/01/31 00:23:51.4	268.970	-0.050	-0.240	0.690
2020/01/31 00:23:51.5	268.980	-0.060	-0.230	0.680
2020/01/31 00:23:51.6	269.000	-0.060	-0.220	0.660
2020/01/31 00:23:51.7	269.010	-0.070	-0.210	0.650
2020/01/31 00:23:51.8	269.020	-0.070	-0.210	0.630
2020/01/31 00:23:51.9	269.030	-0.080	-0.210	0.620
2020/01/31 00:23:52.0	269.050	-0.080	-0.200	0.610
2020/01/31 00:23:52.1	269.060	-0.080	-0.200	0.600
2020/01/31 00:23:52.2	269.070	-0.090	-0.200	0.590
2020/01/31 00:23:52.3	269.080	-0.090	-0.200	0.580
2020/01/31 00:23:52.4	269.090	-0.090	-0.200	0.570
2020/01/31 00:23:52.5	269.100	-0.090	-0.210	0.560
2020/01/31 00:23:52.6	269.100	-0.100	-0.220	0.560
2020/01/31 00:23:52.7	269.110	-0.100	-0.220	0.550
2020/01/31 00:23:52.8	269.120	-0.090	-0.230	0.550
2020/01/31 00:23:52.9	269.110	-0.090	-0.250	0.560
2020/01/31 00:23:53.0	269.110	-0.090	-0.260	0.560
2020/01/31 00:23:53.1	269.110	-0.090	-0.280	0.570
2020/01/31 00:23:53.2	269.110	-0.080	-0.300	0.580
2020/01/31 00:23:53.3	269.110	-0.080	-0.310	0.600
2020/01/31 00:23:53.4	269.110	-0.070	-0.330	0.610
2020/01/31 00:23:53.5	269.100	-0.070	-0.360	0.630
2020/01/31 00:23:53.6	269.100	-0.060	-0.380	0.650
2020/01/31 00:23:53.7	269.090	-0.050	-0.400	0.680
2020/01/31 00:23:53.8	269.080	-0.040	-0.420	0.700
2020/01/31 00:23:53.9	269.080	-0.030	-0.450	0.730
2020/01/31 00:23:54.0	269.070	-0.020	-0.470	0.770
2020/01/31 00:23:54.1	269.050	-0.010	-0.500	0.800
2020/01/31 00:23:54.2	269.030	-0.000	-0.520	0.830
2020/01/31 00:23:54.3	269.020	0.010	-0.540	0.870
2020/01/31 00:23:54.4	269.000	0.020	-0.560	0.910
2020/01/31 00:23:54.5	268.980	0.030	-0.580	0.940
2020/01/31 00:23:54.6	268.960	0.040	-0.600	0.980
2020/01/31 00:23:54.7	268.940	0.050	-0.620	1.020
2020/01/31 00:23:54.8	268.910	0.060	-0.640	1.060
2020/01/31 00:23:54.9	268.900	0.070	-0.650	1.090
2020/01/31 00:23:55.0	268.880	0.080	-0.670	1.130
2020/01/31 00:23:55.1	268.850	0.090	-0.680	1.160
2020/01/31 00:23:55.2	268.830	0.100	-0.680	1.190
2020/01/31 00:23:55.3	268.800	0.100	-0.690	1.230
2020/01/31 00:23:55.4	268.780	0.110	-0.690	1.250
2020/01/31 00:23:55.5	268.750	0.120	-0.690	1.280
2020/01/31 00:23:55.6	268.720	0.120	-0.690	1.310
2020/01/31 00:23:55.7	268.700	0.120	-0.690	1.330
2020/01/31 00:23:55.8	268.670	0.130	-0.680	1.350
2020/01/31 00:23:55.9	268.650	0.130	-0.670	1.370
2020/01/31 00:23:56.0	268.620	0.130	-0.660	1.380
2020/01/31 00:23:56.1	268.600	0.130	-0.650	1.400
2020/01/31 00:23:56.2	268.580	0.130	-0.630	1.410
2020/01/31 00:23:56.3	268.550	0.130	-0.620	1.420
2020/01/31 00:23:56.4	268.530	0.120	-0.600	1.420
2020/01/31 00:23:56.5	268.510	0.120	-0.580	1.430
2020/01/31 00:23:56.6	268.480	0.120	-0.560	1.420
2020/01/31 00:23:56.7	268.460	0.110	-0.530	1.420
2020/01/31 00:23:56.8	268.440	0.100	-0.510	1.420
2020/01/31 00:23:56.9	268.420	0.100	-0.480	1.410
2020/01/31 00:23:57.0	268.400	0.090	-0.460	1.390
2020/01/31 00:23:57.1	268.380	0.080	-0.430	1.380
2020/01/31 00:23:57.2	268.370	0.070	-0.400	1.360
2020/01/31 00:23:57.3	268.350	0.060	-0.370	1.340
2020/01/31 00:23:57.4	268.340	0.050	-0.340	1.320
2020/01/31 00:23:57.5	268.330	0.040	-0.310	1.300
2020/01/31 00:23:57.6	268.320	0.030	-0.280	1.280
2020/01/31 00:23:57.7	268.310	0.020	-0.260	1.250
2020/01/31 00:23:57.8	268.300	0.010	-0.230	1.230
2020/01/31 00:23:57.9	268.290	0.000	-0.200	1.200
2020/01/31 00:23:58.0	268.280	-0.010	-0.170	1.170
2020/01/31 00:23:58.1	268.280	-0.020	-0.140	1.140
2020/01/31 00:23:58.2	268.280	-0.030	-0.120	1.120
2020/01/31 00:23:58.3	268.280	-0.040	-0.090	1.090
2020/01/31 00:23:58.4	268.280	-0.050	-0.060	1.060
2020/01/31 00:23:58.5	268.290	-0.060	-0.040	1.030
2020/01/31 00:23:58.6	268.290	-0.070	-0.020	1.000
2020/01/31 00:23:58.7	268.300	-0.080	0.010	0.970
2020/01/31 00:23:58.8	268.310	-0.090	0.030	0.940
2020/01/31 00:23:58.9	268.310	-0.100	0.050	0.910
2020/01/31 00:23:59.0	268.330	-0.110	0.070	0.880
2020/01/31 00:23:59.1	268.340	-0.120	0.080	0.850
2020/01/31 00:23:59.2	268.350	-0.130	0.100	0.820
2020/01/31 00:23:59.3	268.370	-0.140	0.110	0.790
2020/01/31 00:23:59.4	268.390	-0.140	0.120	0.770
2020/01/31 00:23:59.5	268.410	-0.150	0.130	0.740
2020/01/31 00:23:59.6	268.430	-0.150	0.140	0.710
2020/01/31 00:23:59.7	268.450	-0.160	0.150	0.680
2020/01/31 00:23:59.8	268.470	-0.160	0.150	0.650
2020/01/31 00:23:59.9	268.490	-0.160	0.150	0.630
2020/01/31 00:24:00.0	268.510	-0.170	0.150	0.600
2020/01/31 00:24:00.1	268.540	-0.170	0.150	0.580
2020/01/31 00:24:00.2	268.570	-0.170	0.140	0.550
2020/01/31 00:24:00.3	268.600	-0.170	0.140	0.530
2020/01/31 00:24:00.4	268.630	-0.170	0.130	0.510
2020/01/31 00:24:00.5	268.660	-0.160	0.110	0.490
2020/01/31 00:24:00.6	268.690	-0.160	0.100	0.470
2020/01/31 00:24:00.7	268.730	-0.150	0.090	0.460
2020/01/31 00:24:00.8	268.760	-0.150	0.070	0.440
2020/01/31 00:24:00.9	268.800	-0.140	0.050	0.430
2020/01/31 00:24:01.0	268.830	-0.130	0.030	0.420
2020/01/31 00:24:01.1	268.870	-0.130	0.010	0.410
2020/01/31 00:24:01.2	268.900	-0.120	-0.010	0.400
2020/01/31 00:24:01.3	268.930	-0.110	-0.040	0.400
2020/01/31 00:24:01.4	268.970	-0.100	-0.060	0.400
2020/01/31 00:24:01.5	269.000	-0.080	-0.090	0.390
2020/01/31 00:24:01.6	269.040	-0.070	-0.110	0.400
2020/01/31 00:24:01.7	269.070	-0.060	-0.140	0.400
2020/01/31 00:24:01.8	269.100	-0.050	-0.160	0.400
2020/01/31 00:24:01.9	269.140	-0.030	-0.190	0.410
2020/01/31 00:24:02.0	269.170	-0.020	-0.220	0.420
2020/01/31 00:24:02.1	269.200	-0.010	-0.240	0.430
2020/01/31 00:24:02.2	269.230	0.010	-0.260	0.450
2020/01/31 00:24:02.3	269.260	0.020	-0.290	0.460
2020/01/31 00:24:02.4	269.290	0.040	-0.310	0.480
2020/01/31 00:24:02.5	269.320	0.050	-0.330	0.500
2020/01/31 00:24:02.6	269.350	0.070	-0.350	0.520
2020/01/31 00:24:02.7	269.370	0.080	-0.370	0.550
2020/01/31 00:24:02.8	269.400	0.090	-0.380	0.580
2020/01/31 00:24:02.9	269.420	0.110	-0.400	0.600
2020/01/31 00:24:03.0	269.440	0.120	-0.410	0.630
2020/01/31 00:24:03.1	269.460	0.130	-0.430	0.660
2020/01/31 00:24:03.2	269.480	0.140	-0.440	0.690
2020/01/31 00:24:03.3	269.500	0.150	-0.450	0.720
2020/01/31 00:24:03.4	269.520	0.160	-0.460	0.760
2020/01/31 00:24:03.5	269.540	0.170	-0.460	0.790
2020/01/31 00:24:03.6	269.550	0.180	-0.470	0.820
2020/01/31 00:24:03.7	269.560	0.190	-0.470	0.850
2020/01/31 00:24:03.8	269.580	0.200	-0.480	0.870
2020/01/31 00:24:03.9	269.600	0.200	-0.480	0.910
2020/01/31 00:24:04.0	269.610	0.210	-0.490	0.930
2020/01/31 00:24:04.1	269.620	0.210	-0.490	0.960
2020/01/31 00:24:04.2	269.620	0.220	-0.490	0.980
2020/01/31 00:24:04.3	269.630	0.220	-0.490	1.010
2020/01/31 00:24:04.4	269.640	0.230	-0.490	1.030
2020/01/31 00:24:04.5	269.640	0.230	-0.490	1.050
2020/01/31 00:24:04.6	269.640	0.230	-0.490	1.070
2020/01/31 00:24:04.7	269.640	0.230	-0.490	1.090
2020/01/31 00:24:04.8	269.640	0.230	-0.490	1.100
2020/01/31 00:24:04.9	269.640	0.230	-0.490	1.120
2020/01/31 00:24:05.0	269.640	0.230	-0.490	1.130
2020/01/31 00:24:05.1	269.640	0.230	-0.490	1.140
2020/01/31 00:24:05.2	269.630	0.230	-0.490	1.150
2020/01/31 00:24:05.3	269.630	0.230	-0.490	1.160
2020/01/31 00:24:05.4	269.630	0.220	-0.490	1.160
2020/01/31 00:24:05.5	269.620	0.220	-0.490	1.170
2020/01/31 00:24:05.6	269.610	0.220	-0.490	1.180
2020/01/31 00:24:05.7	269.600	0.220	-0.490	1.180
2020/01/31 00:24:05.8	269.590	0.210	-0.490	1.180
2020/01/31 00:24:05.9	269.580	0.210	-0.490	1.180
2020/01/31 00:24:06.0	269.570	0.200	-0.490	1.180
2020/01/31 00:24:06.1	269.550	0.200	-0.490	1.180
2020/01/31 00:24:06.2	269.540	0.200	-0.490	1.180
2020/01/31 00:24:06.3	269.520	0.190	-0.490	1.180
2020/01/31 00:24:06.4	269.500	0.190	-0.480	1.180
2020/01/31 00:24:06.5	269.480	0.180	-0.480	1.170
2020/01/31 00:24:06.6	269.460	0.180	-0.480	1.170
2020/01/31 00:24:06.7	269.430	0.170	-0.480	1.170
2020/01/31 00:24:06.8	269.410	0.160	-0.480	1.170
2020/01/31 00:24:06.9	269.380	0.160	-0.480	1.160
2020/01/31 00:24:07.0	269.350	0.150	-0.470	1.160
2020/01/31 00:24:07.1	269.320	0.140	-0.470	1.150
2020/01/31 00:24:07.2	269.290	0.140	-0.470	1.150
2020/01/31 00:24:07.3	269.260	0.130	-0.470	1.150
2020/01/31 00:24:07.4	269.230	0.120	-0.470	1.140
2020/01/31 00:24:07.5	269.190	0.110	-0.460	1.140
2020/01/31 00:24:07.6	269.160	0.100	-0.460	1.130
2020/01/31 00:24:07.7	269.120	0.090	-0.460	1.130
2020/01/31 00:24:07.8	269.090	0.090	-0.460	1.120
2020/01/31 00:24:07.9	269.070	0.080	-0.450	1.120
2020/01/31 00:24:08.0	269.030	0.070	-0.450	1.110
2020/01/31 00:24:08.1	269.000	0.060	-0.450	1.100
2020/01/31 00:24:08.2	268.970	0.050	-0.440	1.090
2020/01/31 00:24:08.3	268.930	0.040	-0.440	1.080
2020/01/31 00:24:08.4	268.900	0.030	-0.440	1.070
2020/01/31 00:24:08.5	268.870	0.020	-0.440	1.050
2020/01/31 00:24:08.6	268.840	0.010	-0.440	1.040
2020/01/31 00:24:08.7	268.810	0.000	-0.430	1.020
2020/01/31 00:24:08.8	268.790	-0.010	-0.430	1.010
2020/01/31 00:24:08.9	268.750	-0.020	-0.430	0.990
2020/01/31 00:24:09.0	268.720	-0.030	-0.430	0.980
2020/01/31 00:24:09.1	268.700	-0.030	-0.420	0.960
2020/01/31 00:24:09.2	268.680	-0.040	-0.420	0.940
2020/01/31 00:24:09.3	268.660	-0.050	-0.410	0.920
2020/01/31 00:24:09.4	268.650	-0.060	-0.410	0.910
2020/01/31 00:24:09.5	268.630	-0.070	-0.400	0.890
2020/01/31 00:24:09.6	268.620	-0.070	-0.400	0.880
2020/01/31 00:24:09.7	268.600	-0.080	-0.390	0.860
2020/01/31 00:24:09.8	268.590	-0.090	-0.380	0.850
2020/01/31 00:24:09.9	268.590	-0.100	-0.370	0.830
2020/01/31 00:24:10.0	268.580	-0.100	-0.360	0.820
2020/01/31 00:24:10.1	268.580	-0.110	-0.350	0.810
2020/01/31 00:24:10.2	268.570	-0.120	-0.340	0.800
2020/01/31 00:24:10.3	268.570	-0.120	-0.330	0.790
2020/01/31 00:24:10.4	268.570	-0.130	-0.320	0.780
2020/01/31 00:24:10.5	268.570	-0.140	-0.310	0.770
2020/01/31 00:24:10.6	268.570	-0.140	-0.300	0.770
2020/01/31 00:24:10.7	268.570	-0.150	-0.280	0.760
2020/01/31 00:24:10.8	268.580	-0.160	-0.270	0.750
2020/01/31 00:24:10.9	268.570	-0.160	-0.260	0.750
2020/01/31 00:24:11.0	268.580	-0.170	-0.250	0.750
2020/01/31 00:24:11.1	268.580	-0.180	-0.240	0.750
2020/01/31 00:24:11.2	268.590	-0.190	-0.230	0.740
2020/01/31 00:24:11.3	268.600	-0.190	-0.210	0.740
2020/01/31 00:24:11.4	268.610	-0.200	-0.200	0.740
2020/01/31 00:24:11.5	268.630	-0.210	-0.190	0.740
2020/01/31 00:24:11.6	268.640	-0.220	-0.180	0.730
2020/01/31 00:24:11.7	268.650	-0.230	-0.160	0.730
2020/01/31 00:24:11.8	268.670	-0.230	-0.150	0.730
2020/01/31 00:24:11.9	268.690	-0.240	-0.140	0.720
2020/01/31 00:24:12.0	268.700	-0.250	-0.130	0.720
2020/01/31 00:24:12.1	268.720	-0.260	-0.110	0.710
2020/01/31 00:24:12.2	268.740	-0.270	-0.100	0.710
2020/01/31 00:24:12.3	268.760	-0.270	-0.090	0.710
2020/01/31 00:24:12.4	268.780	-0.280	-0.080	0.700
2020/01/31 00:24:12.5	268.800	-0.290	-0.070	0.700
2020/01/31 00:24:12.6	268.830	-0.290	-0.070	0.690
2020/01/31 00:24:12.7	268.850	-0.300	-0.060	0.690
2020/01/31 00:24:12.8	268.870	-0.300	-0.050	0.680
2020/01/31 00:24:12.9	268.890	-0.310	-0.050	0.680
2020/01/31 00:24:13.0	268.910	-0.310	-0.040	0.670
2020/01/31 00:24:13.1	268.940	-0.320	-0.040	0.670
2020/01/31 00:24:13.2	268.960	-0.320	-0.030	0.660
2020/01/31 00:24:13.3	268.990	-0.320	-0.030	0.650
2020/01/31 00:24:13.4	269.020	-0.320	-0.030	0.650
2020/01/31 00:24:13.5	269.040	-0.320	-0.030	0.640
2020/01/31 00:24:13.6	269.070	-0.320	-0.030	0.630
2020/01/31 00:24:13.7	269.090	-0.310	-0.030	0.620
2020/01/31 00:24:13.8	269.120	-0.310	-0.040	0.610
2020/01/31 00:24:13.9	269.150	-0.300	-0.040	0.590
2020/01/31 00:24:14.0	269.170	-0.300	-0.040	0.580
2020/01/31 00:24:14.1	269.200	-0.290	-0.050	0.570
2020/01/31 00:24:14.2	269.230	-0.280	-0.050	0.560
2020/01/31 00:24:14.3	269.260	-0.270	-0.060	0.550
2020/01/31 00:24:14.4	269.280	-0.260	-0.060	0.540
2020/01/31 00:24:14.5	269.310	-0.250	-0.070	0.530
2020/01/31 00:24:14.6	269.340	-0.240	-0.080	0.520
2020/01/31 00:24:14.7	269.360	-0.220	-0.090	0.510
2020/01/31 00:24:14.8	269.390	-0.210	-0.090	0.500
2020/01/31 00:24:14.9	269.410	-0.190	-0.110	0.500
2020/01/31 00:24:15.0	269.440	-0.180	-0.120	0.490
2020/01/31 00:24:15.1	269.460	-0.160	-0.130	0.480
2020/01/31 00:24:15.2	269.490	-0.140	-0.140	0.480
2020/01/31 00:24:15.3	269.510	-0.130	-0.150	0.480
2020/01/31 00:24:15.4	269.530	-0.110	-0.160	0.470
2020/01/31 00:24:15.5	269.550	-0.090	-0.170	0.470
2020/01/31 00:24:15.6	269.570	-0.080	-0.180	0.480
2020/01/31 00:24:15.7	269.590	-0.060	-0.200	0.480
2020/01/31 00:24:15.8	269.610	-0.040	-0.210	0.490
2020/01/31 00:24:15.9	269.620	-0.020	-0.220	0.490
2020/01/31 00:24:16.0	269.640	-0.010	-0.230	0.510
2020/01/31 00:24:16.1	269.660	0.010	-0.240	0.520
2020/01/31 00:24:16.2	269.670	0.020	-0.250	0.530
2020/01/31 00:24:16.3	269.690	0.040	-0.260	0.550
2020/01/31 00:24:16.4	269.700	0.050	-0.270	0.570
2020/01/31 00:24:16.5	269.710	0.060	-0.280	0.590
2020/01/31 00:24:16.6	269.720	0.070	-0.290	0.620
2020/01/31 00:24:16.7	269.730	0.090	-0.300	0.650
2020/01/31 00:24:16.8	269.740	0.090	-0.300	0.680
2020/01/31 00:24:16.9	269.740	0.100	-0.310	0.710
2020/01/31 00:24:17.0	269.750	0.110	-0.310	0.740
2020/01/31 00:24:17.1	269.760	0.120	-0.320	0.780
2020/01/31 00:24:17.2	269.760	0.120	-0.320	0.810
2020/01/31 00:24:17.3	269.760	0.130	-0.330	0.850
2020/01/31 00:24:17.4	269.770	0.130	-0.330	0.890
2020/01/31 00:24:17.5	269.770	0.130	-0.330	0.930
2020/01/31 00:24:17.6	269.770	0.140	-0.330	0.970
2020/01/31 00:24:17.7	269.770	0.140	-0.330	1.010
2020/01/31 00:24:17.8	269.770	0.140	-0.330	1.050
2020/01/31 00:24:17.9	269.780	0.140	-0.330	1.080
2020/01/31 00:24:18.0	269.780	0.140	-0.330	1.120
2020/01/31 00:24:18.1	269.780	0.130	-0.330	1.150
2020/01/31 00:24:18.2	269.770	0.130	-0.320	1.180
2020/01/31 00:24:18.3	269.770	0.130	-0.320	1.210
2020/01/31 00:24:18.4	269.760	0.130	-0.320	1.240
2020/01/31 00:24:18.5	269.760	0.120	-0.320	1.270
2020/01/31 00:24:18.6	269.750	0.120	-0.320	1.290
2020/01/31 00:24:18.7	269.740	0.120	-0.310	1.310
2020/01/31 00:24:18.8	269.740	0.120	-0.310	1.330
2020/01/31 00:24:18.9	269.730	0.120	-0.310	1.350
2020/01/31 00:24:19.0	269.720	0.110	-0.310	1.360
2020/01/31 00:24:19.1	269.710	0.110	-0.310	1.370
2020/01/31 00:24:19.2	269.710	0.110	-0.310	1.370
2020/01/31 00:24:19.3	269.700	0.110	-0.320	1.380
2020/01/31 00:24:19.4	269.690	0.110	-0.320	1.380
2020/01/31 00:24:19.5	269.690	0.120	-0.320	1.380
2020/01/31 00:24:19.6	269.690	0.120	-0.330	1.370
2020/01/31 00:24:19.7	269.680	0.120	-0.330	1.360
2020/01/31 00:24:19.8	269.680	0.130	-0.340	1.350
2020/01/31 00:24:19.9	269.680	0.130	-0.350	1.340
2020/01/31 00:24:20.0	269.670	0.140	-0.360	1.320
2020/01/31 00:24:20.1	269.670	0.150	-0.370	1.310
2020/01/31 00:24:20.2	269.670	0.160	-0.380	1.290
2020/01/31 00:24:20.3	269.670	0.170	-0.390	1.270
2020/01/31 00:24:20.4	269.670	0.180	-0.410	1.250
2020/01/31 00:24:20.5	269.670	0.190	-0.420	1.230
2020/01/31 00:24:20.6	269.660	0.200	-0.440	1.210
2020/01/31 00:24:20.7	269.660	0.210	-0.450	1.190
2020/01/31 00:24:20.8	269.660	0.230	-0.470	1.170
2020/01/31 00:24:20.9	269.660	0.240	-0.480	1.140
2020/01/31 00:24:21.0	269.660	0.260	-0.500	1.120
2020/01/31 00:24:21.1	269.660	0.270	-0.520	1.100
2020/01/31 00:24:21.2	269.660	0.280	-0.530	1.080
2020/01/31 00:24:21.3	269.660	0.300	-0.550	1.060
2020/01/31 00:24:21.4	269.660	0.310	-0.560	1.040
2020/01/31 00:24:21.5	269.660	0.330	-0.580	1.020
2020/01/31 00:24:21.6	269.650	0.340	-0.590	1.000
2020/01/31 00:24:21.7	269.650	0.350	-0.600	0.980
2020/01/31 00:24:21.8	269.650	0.360	-0.610	0.960
2020/01/31 00:24:21.9	269.640	0.370	-0.620	0.950
2020/01/31 00:24:22.0	269.640	0.380	-0.630	0.930
2020/01/31 00:24:22.1	269.640	0.390	-0.640	0.920
2020/01/31 00:24:22.2	269.630	0.400	-0.640	0.910
2020/01/31 00:24:22.3	269.630	0.400	-0.640	0.900
2020/01/31 00:24:22.4	269.620	0.410	-0.640	0.880
2020/01/31 00:24:22.5	269.620	0.410	-0.640	0.870
2020/01/31 00:24:22.6	269.610	0.410	-0.640	0.860
2020/01/31 00:24:22.7	269.600	0.410	-0.630	0.850
2020/01/31 00:24:22.8	269.600	0.400	-0.620	0.840
2020/01/31 00:24:22.9	269.590	0.400	-0.610	0.830
2020/01/31 00:24:23.0	269.580	0.390	-0.600	0.820
2020/01/31 00:24:23.1	269.570	0.380	-0.590	0.810
2020/01/31 00:24:23.2	269.560	0.370	-0.570	0.810
2020/01/31 00:24:23.3	269.550	0.350	-0.550	0.800
2020/01/31 00:24:23.4	269.540	0.330	-0.530	0.790
2020/01/31 00:24:23.5	269.530	0.310	-0.510	0.780
2020/01/31 00:24:23.6	269.520	0.290	-0.490	0.770
2020/01/31 00:24:23.7	269.500	0.270	-0.460	0.760
2020/01/31 00:24:23.8	269.490	0.240	-0.430	0.760
2020/01/31 00:24:23.9	269.480	0.220	-0.400	0.750
2020/01/31 00:24:24.0	269.470	0.190	-0.370	0.740
2020/01/31 00:24:24.1	269.460	0.160	-0.340	0.730
2020/01/31 00:24:24.2	269.450	0.120	-0.310	0.720
2020/01/31 00:24:24.3	269.440	0.090	-0.280	0.710
2020/01/31 00:24:24.4	269.420	0.050	-0.250	0.700
2020/01/31 00:24:24.5	269.410	0.020	-0.220	0.690
2020/01/31 00:24:24.6	269.400	-0.020	-0.190	0.680
2020/01/31 00:24:24.7	269.390	-0.060	-0.160	0.670
2020/01/31 00:24:24.8	269.390	-0.090	-0.130	0.660
2020/01/31 00:24:24.9	269.370	-0.130	-0.100	0.650
2020/01/31 00:24:25.0	269.360	-0.170	-0.070	0.640
2020/01/31 00:24:25.1	269.360	-0.200	-0.040	0.630
2020/01/31 00:24:25.2	269.350	-0.240	-0.020	0.620
2020/01/31 00:24:25.3	269.340	-0.280	0.010	0.610
2020/01/31 00:24:25.4	269.340	-0.310	0.030	0.600
2020/01/31 00:24:25.5	269.340	-0.340	0.050	0.590
2020/01/31 00:24:25.6	269.330	-0.370	0.060	0.570
2020/01/31 00:24:25.7	269.330	-0.400	0.080	0.560
2020/01/31 00:24:25.8	269.330	-0.420	0.090	0.550
2020/01/31 00:24:25.9	269.310	-0.450	0.100	0.540
2020/01/31 00:24:26.0	269.310	-0.470	0.110	0.530
2020/01/31 00:24:26.1	269.310	-0.490	0.110	0.520
2020/01/31 00:24:26.2	269.310	-0.500	0.110	0.510
2020/01/31 00:24:26.3	269.310	-0.520	0.100	0.500
2020/01/31 00:24:26.4	269.320	-0.530	0.100	0.490
2020/01/31 00:24:26.5	269.320	-0.530	0.090	0.480
2020/01/31 00:24:26.6	269.330	-0.540	0.080	0.470
2020/01/31 00:24:26.7	269.330	-0.540	0.060	0.470
2020/01/31 00:24:26.8	269.340	-0.540	0.040	0.460
2020/01/31 00:24:26.9	269.350	-0.530	0.020	0.460
2020/01/31 00:24:27.0	269.360	-0.530	-0.000	0.460
2020/01/31 00:24:27.1	269.370	-0.520	-0.030	0.450
2020/01/31 00:24:27.2	269.380	-0.500	-0.050	0.450
2020/01/31 00:24:27.3	269.390	-0.490	-0.080	0.450
2020/01/31 00:24:27.4	269.400	-0.470	-0.110	0.450
2020/01/31 00:24:27.5	269.410	-0.450	-0.140	0.450
2020/01/31 00:24:27.6	269.430	-0.430	-0.170	0.450
2020/01/31 00:24:27.7	269.440	-0.400	-0.200	0.460
2020/01/31 00:24:27.8	269.450	-0.380	-0.240	0.470
2020/01/31 00:24:27.9	269.480	-0.350	-0.270	0.480
2020/01/31 00:24:28.0	269.490	-0.320	-0.300	0.490
2020/01/31 00:24:28.1	269.510	-0.290	-0.330	0.500
2020/01/31 00:24:28.2	269.520	-0.260	-0.360	0.520
2020/01/31 00:24:28.3	269.540	-0.230	-0.390	0.540
2020/01/31 00:24:28.4	269.550	-0.200	-0.420	0.560
2020/01/31 00:24:28.5	269.570	-0.170	-0.450	0.580
2020/01/31 00:24:28.6	269.580	-0.140	-0.470	0.610
2020/01/31 00:24:28.7	269.600	-0.110	-0.500	0.630
2020/01/31 00:24:28.8	269.610	-0.080	-0.520	0.660
2020/01/31 00:24:28.9	269.640	-0.050	-0.540	0.690
2020/01/31 00:24:29.0	269.660	-0.020	-0.560	0.720
2020/01/31 00:24:29.1	269.670	0.010	-0.580	0.750
2020/01/31 00:24:29.2	269.690	0.030	-0.590	0.780
2020/01/31 00:24:29.3	269.710	0.060	-0.600	0.800
2020/01/31 00:24:29.4	269.720	0.080	-0.610	0.830
2020/01/31 00:24:29.5	269.740	0.100	-0.620	0.850
2020/01/31 00:24:29.6	269.750	0.120	-0.620	0.880
2020/01/31 00:24:29.7	269.770	0.140	-0.620	0.900
2020/01/31 00:24:29.8	269.790	0.150	-0.620	0.930
2020/01/31 00:24:29.9	269.810	0.170	-0.620	0.950
2020/01/31 00:24:30.0	269.820	0.180	-0.620	0.970
2020/01/31 00:24:30.1	269.840	0.190	-0.610	0.990
2020/01/31 00:24:30.2	269.860	0.200	-0.600	1.010
2020/01/31 00:24:30.3	269.870	0.200	-0.590	1.020
2020/01/31 00:24:30.4	269.890	0.200	-0.580	1.040
2020/01/31 00:24:30.5	269.900	0.200	-0.560	1.050
2020/01/31 00:24:30.6	269.920	0.200	-0.540	1.060
2020/01/31 00:24:30.7	269.930	0.200	-0.520	1.070
2020/01/31 00:24:30.8	269.950	0.190	-0.500	1.080
2020/01/31 00:24:30.9	269.950	0.190	-0.480	1.090
2020/01/31 00:24:31.0	269.970	0.180	-0.460	1.090
2020/01/31 00:24:31.1	269.980	0.170	-0.430	1.090
2020/01/31 00:24:31.2	270.000	0.150	-0.410	1.090
2020/01/31 00:24:31.3	270.010	0.140	-0.380	1.080
2020/01/31 00:24:31.4	270.030	0.120	-0.350	1.070
2020/01/31 00:24:31.5	270.040	0.110	-0.330	1.060
2020/01/31 00:24:31.6	270.060	0.090	-0.300	1.050
2020/01/31 00:24:31.7	270.080	0.070	-0.270	1.030
2020/01/31 00:24:31.8	270.090	0.050	-0.250	1.010
2020/01/31 00:24:31.9	270.110	0.030	-0.220	0.980
2020/01/31 00:24:32.0	270.130	0.010	-0.200	0.950
2020/01/31 00:24:32.1	270.140	-0.010	-0.180	0.920
2020/01/31 00:24:32.2	270.160	-0.030	-0.150	0.890
2020/01/31 00:24:32.3	270.170	-0.060	-0.130	0.860
2020/01/31 00:24:32.4	270.180	-0.080	-0.110	0.820
2020/01/31 00:24:32.5	270.200	-0.100	-0.100	0.790
2020/01/31 00:24:32.6	270.210	-0.120	-0.080	0.750
2020/01/31 00:24:32.7	270.220	-0.140	-0.060	0.720
2020/01/31 00:24:32.8	270.230	-0.160	-0.050	0.680
2020/01/31 00:24:32.9	270.250	-0.180	-0.040	0.650
2020/01/31 00:24:33.0	270.260	-0.200	-0.030	0.610
2020/01/31 00:24:33.1	270.260	-0.210	-0.020	0.580
2020/01/31 00:24:33.2	270.270	-0.230	-0.010	0.550
2020/01/31 00:24:33.3	270.280	-0.240	-0.010	0.520
2020/01/31 00:24:33.4	270.290	-0.260	-0.010	0.480
2020/01/31 00:24:33.5	270.290	-0.270	-0.010	0.450
2020/01/31 00:24:33.6	270.300	-0.280	-0.010	0.430
2020/01/31 00:24:33.7	270.300	-0.290	-0.010	0.400
2020/01/31 00:24:33.8	270.300	-0.300	-0.020	0.380
2020/01/31 00:24:33.9	270.290	-0.300	-0.030	0.360
2020/01/31 00:24:34.0	270.290	-0.300	-0.030	0.340
2020/01/31 00:24:34.1	270.290	-0.310	-0.040	0.320
2020/01/31 00:24:34.2	270.290	-0.310	-0.050	0.310
2020/01/31 00:24:34.3	270.290	-0.300	-0.070	0.300
2020/01/31 00:24:34.4	270.280	-0.300	-0.080	0.290
2020/01/31 00:24:34.5	270.280	-0.300	-0.100	0.290
2020/01/31 00:24:34.6	270.270	-0.290	-0.110	0.290
2020/01/31 00:24:34.7	270.260	-0.280	-0.130	0.300
2020/01/31 00:24:34.8	270.250	-0.270	-0.150	0.310
2020/01/31 00:24:34.9	270.220	-0.260	-0.170	0.320
2020/01/31 00:24:35.0	270.210	-0.240	-0.190	0.340
2020/01/31 00:24:35.1	270.200	-0.230	-0.200	0.360
2020/01/31 00:24:35.2	270.180	-0.210	-0.220	0.380
2020/01/31 00:24:35.3	270.160	-0.190	-0.240	0.410
2020/01/31 00:24:35.4	270.140	-0.170	-0.260	0.450
2020/01/31 00:24:35.5	270.130	-0.150	-0.280	0.480
2020/01/31 00:24:35.6	270.110	-0.130	-0.290	0.520
2020/01/31 00:24:35.7	270.080	-0.110	-0.310	0.550
2020/01/31 00:24:35.8	270.060	-0.080	-0.330	0.590
2020/01/31 00:24:35.9	270.030	-0.060	-0.340	0.630
2020/01/31 00:24:36.0	270.000	-0.040	-0.350	0.670
2020/01/31 00:24:36.1	269.980	-0.010	-0.370	0.710
2020/01/31 00:24:36.2	269.950	0.010	-0.380	0.750
2020/01/31 00:24:36.3	269.930	0.040	-0.390	0.790
2020/01/31 00:24:36.4	269.900	0.060	-0.400	0.830
2020/01/31 00:24:36.5	269.870	0.090	-0.400	0.870
2020/01/31 00:24:36.6	269.840	0.110	-0.410	0.900
2020/01/31 00:24:36.7	269.810	0.140	-0.420	0.940
2020/01/31 00:24:36.8	269.780	0.160	-0.420	0.970
2020/01/31 00:24:36.9	269.770	0.180	-0.420	1.010
2020/01/31 00:24:37.0	269.750	0.200	-0.420	1.040
2020/01/31 00:24:37.1	269.720	0.220	-0.420	1.070
2020/01/31 00:24:37.2	269.690	0.240	-0.420	1.100
2020/01/31 00:24:37.3	269.660	0.260	-0.420	1.120
2020/01/31 00:24:37.4	269.630	0.280	-0.410	1.140
2020/01/31 00:24:37.5	269.610	0.290	-0.410	1.160
2020/01/31 00:24:37.6	269.580	0.310	-0.410	1.180
2020/01/31 00:24:37.7	269.560	0.320	-0.400	1.190
2020/01/31 00:24:37.8	269.540	0.330	-0.390	1.200
2020/01/31 00:24:37.9	269.510	0.340	-0.390	1.200
2020/01/31 00:24:38.0	269.490	0.350	-0.380	1.200
2020/01/31 00:24:38.1	269.470	0.360	-0.370	1.200
2020/01/31 00:24:38.2	269.460	0.360	-0.370	1.200
2020/01/31 00:24:38.3	269.440	0.370	-0.360	1.190
2020/01/31 00:24:38.4	269.430	0.370	-0.360	1.170
2020/01/31 00:24:38.5	269.410	0.370	-0.350	1.160
2020/01/31 00:24:38.6	269.400	0.370	-0.340	1.150
2020/01/31 00:24:38.7	269.390	0.370	-0.340	1.130
2020/01/31 00:24:38.8	269.380	0.370	-0.330	1.110
2020/01/31 00:24:38.9	269.380	0.360	-0.330	1.090
2020/01/31 00:24:39.0	269.380	0.360	-0.330	1.070
2020/01/31 00:24:39.1	269.370	0.350	-0.320	1.050
2020/01/31 00:24:39.2	269.370	0.340	-0.320	1.030
2020/01/31 00:24:39.3	269.370	0.340	-0.320	1.000
2020/01/31 00:24:39.4	269.370	0.330	-0.310	0.980
2020/01/31 00:24:39.5	269.370	0.320	-0.310	0.960
2020/01/31 00:24:39.6	269.370	0.310	-0.310	0.930
2020/01/31 00:24:39.7	269.370	0.300	-0.300	0.910
2020/01/31 00:24:39.8	269.380	0.290	-0.300	0.890
2020/01/31 00:24:39.9	269.380	0.270	-0.300	0.860
2020/01/31 00:24:40.0	269.380	0.260	-0.300	0.840
2020/01/31 00:24:40.1	269.390	0.250	-0.300	0.820
2020/01/31 00:24:40.2	269.390	0.240	-0.290	0.790
2020/01/31 00:24:40.3	269.400	0.220	-0.290	0.770
2020/01/31 00:24:40.4	269.410	0.210	-0.290	0.750
2020/01/31 00:24:40.5	269.420	0.200	-0.290	0.720
2020/01/31 00:24:40.6	269.430	0.190	-0.290	0.700
2020/01/31 00:24:40.7	269.440	0.180	-0.290	0.680
2020/01/31 00:24:40.8	269.450	0.160	-0.290	0.660
2020/01/31 00:24:40.9	269.450	0.150	-0.290	0.640
2020/01/31 00:24:41.0	269.460	0.140	-0.280	0.620
2020/01/31 00:24:41.1	269.480	0.130	-0.280	0.610
2020/01/31 00:24:41.2	269.490	0.120	-0.280	0.590
2020/01/31 00:24:41.3	269.500	0.110	-0.280	0.570
2020/01/31 00:24:41.4	269.510	0.100	-0.280	0.560
2020/01/31 00:24:41.5	269.520	0.090	-0.280	0.550
2020/01/31 00:24:41.6	269.530	0.080	-0.280	0.530
2020/01/31 00:24:41.7	269.550	0.070	-0.270	0.520
2020/01/31 00:24:41.8	269.560	0.060	-0.270	0.510
2020/01/31 00:24:41.9	269.560	0.060	-0.280	0.500
2020/01/31 00:24:42.0	269.570	0.050	-0.270	0.490
2020/01/31 00:24:42.1	269.590	0.040	-0.270	0.480
2020/01/31 00:24:42.2	269.600	0.040	-0.270	0.480
2020/01/31 00:24:42.3	269.610	0.030	-0.270	0.470
2020/01/31 00:24:42.4	269.630	0.020	-0.270	0.470
2020/01/31 00:24:42.5	269.640	0.020	-0.270	0.470
2020/01/31 00:24:42.6	269.650	0.010	-0.270	0.460
2020/01/31 00:24:42.7	269.670	0.010	-0.260	0.460
2020/01/31 00:24:42.8	269.680	0.000	-0.260	0.460
2020/01/31 00:24:42.9	269.700	-0.000	-0.260	0.470
2020/01/31 00:24:43.0	269.710	-0.000	-0.260	0.470
2020/01/31 00:24:43.1	269.720	-0.010	-0.260	0.480
2020/01/31 00:24:43.2	269.730	-0.010	-0.250	0.490
2020/01/31 00:24:43.3	269.740	-0.020	-0.250	0.500
2020/01/31 00:24:43.4	269.750	-0.020	-0.250	0.510
2020/01/31 00:24:43.5	269.760	-0.020	-0.250	0.530
2020/01/31 00:24:43.6	269.770	-0.030	-0.250	0.540
2020/01/31 00:24:43.7	269.770	-0.030	-0.250	0.560
2020/01/31 00:24:43.8	269.780	-0.030	-0.250	0.580
2020/01/31 00:24:43.9	269.790	-0.040	-0.260	0.610
2020/01/31 00:24:44.0	269.790	-0.040	-0.260	0.630
2020/01/31 00:24:44.1	269.790	-0.040	-0.270	0.660
2020/01/31 00:24:44.2	269.780	-0.040	-0.270	0.690
2020/01/31 00:24:44.3	269.780	-0.050	-0.280	0.730
2020/01/31 00:24:44.4	269.780	-0.050	-0.280	0.760
2020/01/31 00:24:44.5	269.770	-0.050	-0.290	0.790
2020/01/31 00:24:44.6	269.770	-0.050	-0.300	0.830
2020/01/31 00:24:44.7	269.760	-0.050	-0.310	0.860
2020/01/31 00:24:44.8	269.750	-0.050	-0.320	0.900
2020/01/31 00:24:44.9	269.760	-0.050	-0.330	0.930
2020/01/31 00:24:45.0	269.750	-0.050	-0.340	0.970
2020/01/31 00:24:45.1	269.740	-0.050	-0.350	1.000
2020/01/31 00:24:45.2	269.730	-0.060	-0.360	1.030
2020/01/31 00:24:45.3	269.720	-0.060	-0.380	1.060
2020/01/31 00:24:45.4	269.700	-0.060	-0.390	1.090
2020/01/31 00:24:45.5	269.690	-0.060	-0.400	1.120
2020/01/31 00:24:45.6	269.680	-0.060	-0.410	1.140
2020/01/31 00:24:45.7	269.670	-0.060	-0.430	1.170
2020/01/31 00:24:45.8	269.650	-0.060	-0.440	1.190
2020/01/31 00:24:45.9	269.660	-0.060	-0.450	1.210
2020/01/31 00:24:46.0	269.640	-0.060	-0.460	1.220
2020/01/31 00:24:46.1	269.630	-0.060	-0.470	1.240
2020/01/31 00:24:46.2	269.610	-0.070	-0.480	1.250
2020/01/31 00:24:46.3	269.600	-0.070	-0.490	1.250
2020/01/31 00:24:46.4	269.580	-0.070	-0.500	1.260
2020/01/31 00:24:46.5	269.560	-0.070	-0.510	1.260
2020/01/31 00:24:46.6	269.550	-0.070	-0.510	1.260
2020/01/31 00:24:46.7	269.530	-0.070	-0.510	1.260
2020/01/31 00:24:46.8	269.520	-0.080	-0.520	1.250
2020/01/31 00:24:46.9	269.490	-0.080	-0.520	1.240
2020/01/31 00:24:47.0	269.480	-0.080	-0.510	1.230
2020/01/31 00:24:47.1	269.460	-0.090	-0.510	1.210
2020/01/31 00:24:47.2	269.450	-0.090	-0.500	1.190
2020/01/31 00:24:47.3	269.430	-0.090	-0.500	1.180
2020/01/31 00:24:47.4	269.420	-0.090	-0.490	1.160
2020/01/31 00:24:47.5	269.410	-0.100	-0.480	1.140
2020/01/31 00:24:47.6	269.400	-0.100	-0.460	1.120
2020/01/31 00:24:47.7	269.390	-0.110	-0.450	1.090
2020/01/31 00:24:47.8	269.380	-0.110	-0.430	1.070
2020/01/31 00:24:47.9	269.360	-0.110	-0.410	1.050
2020/01/31 00:24:48.0	269.350	-0.120	-0.400	1.030
2020/01/31 00:24:48.1	269.340	-0.120	-0.380	1.010
2020/01/31 00:24:48.2	269.330	-0.130	-0.350	0.990
2020/01/31 00:24:48.3	269.320	-0.130	-0.330	0.970
2020/01/31 00:24:48.4	269.310	-0.140	-0.310	0.950
2020/01/31 00:24:48.5	269.310	-0.140	-0.290	0.930
2020/01/31 00:24:48.6	269.300	-0.150	-0.260	0.910
2020/01/31 00:24:48.7	269.290	-0.150	-0.240	0.900
2020/01/31 00:24:48.8	269.280	-0.160	-0.220	0.880
2020/01/31 00:24:48.9	269.280	-0.160	-0.190	0.870
2020/01/31 00:24:49.0	269.270	-0.170	-0.170	0.850
2020/01/31 00:24:49.1	269.270	-0.170	-0.140	0.840
2020/01/31 00:24:49.2	269.260	-0.180	-0.120	0.820
2020/01/31 00:24:49.3	269.250	-0.180	-0.100	0.810
2020/01/31 00:24:49.4	269.250	-0.190	-0.080	0.790
2020/01/31 00:24:49.5	269.240	-0.190	-0.060	0.780
2020/01/31 00:24:49.6	269.240	-0.200	-0.040	0.770
2020/01/31 00:24:49.7	269.230	-0.200	-0.020	0.750
2020/01/31 00:24:49.8	269.230	-0.210	-0.010	0.740
2020/01/31 00:24:49.9	269.230	-0.210	-0.000	0.730
2020/01/31 00:24:50.0	269.220	-0.210	0.010	0.710
2020/01/31 00:24:50.1	269.220	-0.220	0.020	0.700
2020/01/31 00:24:50.2	269.210	-0.220	0.020	0.690
2020/01/31 00:24:50.3	269.210	-0.220	0.030	0.680
2020/01/31 00:24:50.4	269.210	-0.220	0.030	0.660
2020/01/31 00:24:50.5	269.200	-0.220	0.020	0.650
2020/01/31 00:24:50.6	269.200	-0.220	0.020	0.640
2020/01/31 00:24:50.7	269.200	-0.220	0.010	0.630
2020/01/31 00:24:50.8	269.190	-0.220	0.010	0.610
2020/01/31 00:24:50.9	269.180	-0.220	-0.000	0.600
2020/01/31 00:24:51.0	269.170	-0.220	-0.020	0.590
2020/01/31 00:24:51.1	269.170	-0.210	-0.030	0.580
2020/01/31 00:24:51.2	269.170	-0.210	-0.040	0.580
2020/01/31 00:24:51.3	269.160	-0.210	-0.060	0.570
2020/01/31 00:24:51.4	269.160	-0.200	-0.080	0.560
2020/01/31 00:24:51.5	269.160	-0.200	-0.100	0.550
2020/01/31 00:24:51.6	269.160	-0.190	-0.120	0.550
2020/01/31 00:24:51.7	269.150	-0.180	-0.140	0.540
2020/01/31 00:24:51.8	269.150	-0.180	-0.160	0.540
2020/01/31 00:24:51.9	269.150	-0.170	-0.190	0.540
2020/01/31 00:24:52.0	269.150	-0.160	-0.210	0.540
2020/01/31 00:24:52.1	269.150	-0.150	-0.230	0.540
2020/01/31 00:24:52.2	269.140	-0.150	-0.260	0.540
2020/01/31 00:24:52.3	269.140	-0.140	-0.280	0.540
2020/01/31 00:24:52.4	269.140	-0.130	-0.300	0.550
2020/01/31 00:24:52.5	269.140	-0.120	-0.330	0.550
2020/01/31 00:24:52.6	269.140	-0.110	-0.350	0.560
2020/01/31 00:24:52.7	269.140	-0.100	-0.370	0.570
2020/01/31 00:24:52.8	269.140	-0.090	-0.390	0.580
2020/01/31 00:24:52.9	269.130	-0.080	-0.410	0.600
2020/01/31 00:24:53.0	269.130	-0.070	-0.430	0.610
2020/01/31 00:24:53.1	269.130	-0.060	-0.450	0.630
2020/01/31 00:24:53.2	269.130	-0.040	-0.470	0.650
2020/01/31 00:24:53.3	269.120	-0.030	-0.480	0.670
2020/01/31 00:24:53.4	269.120	-0.020	-0.500	0.690
2020/01/31 00:24:53.5	269.120	-0.010	-0.510	0.710
2020/01/31 00:24:53.6	269.120	0.000	-0.520	0.740
2020/01/31 00:24:53.7	269.120	0.020	-0.530	0.760
2020/01/31 00:24:53.8	269.120	0.030	-0.540	0.790
2020/01/31 00:24:53.9	269.120	0.040	-0.550	0.820
2020/01/31 00:24:54.0	269.110	0.050	-0.560	0.850
2020/01/31 00:24:54.1	269.110	0.070	-0.570	0.870
2020/01/31 00:24:54.2	269.110	0.080	-0.580	0.910
2020/01/31 00:24:54.3	269.110	0.090	-0.580	0.940
2020/01/31 00:24:54.4	269.100	0.100	-0.590	0.970
2020/01/31 00:24:54.5	269.100	0.120	-0.590	1.000
2020/01/31 00:24:54.6	269.100	0.130	-0.600	1.030
2020/01/31 00:24:54.7	269.100	0.140	-0.600	1.060
2020/01/31 00:24:54.8	269.100	0.150	-0.600	1.080
2020/01/31 00:24:54.9	269.100	0.160	-0.600	1.120
2020/01/31 00:24:55.0	269.090	0.170	-0.600	1.140
2020/01/31 00:24:55.1	269.090	0.180	-0.600	1.170
2020/01/31 00:24:55.2	269.090	0.190	-0.600	1.200
2020/01/31 00:24:55.3	269.080	0.200	-0.600	1.230
2020/01/31 00:24:55.4	269.080	0.210	-0.590	1.260
2020/01/31 00:24:55.5	269.070	0.220	-0.590	1.280
2020/01/31 00:24:55.6	269.070	0.230	-0.590	1.310
2020/01/31 00:24:55.7	269.060	0.230	-0.580	1.340
2020/01/31 00:24:55.8	269.060	0.240	-0.570	1.360
2020/01/31 00:24:55.9	269.050	0.250	-0.570	1.390
2020/01/31 00:24:56.0	269.040	0.250	-0.560	1.410
2020/01/31 00:24:56.1	269.040	0.260	-0.550	1.430
2020/01/31 00:24:56.2	269.030	0.260	-0.540	1.460
2020/01/31 00:24:56.3	269.020	0.270	-0.530	1.480
2020/01/31 00:24:56.4	269.010	0.270	-0.520	1.500
2020/01/31 00:24:56.5	269.000	0.280	-0.510	1.520
2020/01/31 00:24:56.6	268.980	0.280	-0.490	1.530
2020/01/31 00:24:56.7	268.970	0.280	-0.480	1.550
2020/01/31 00:24:56.8	268.960	0.280	-0.460	1.560
2020/01/31 00:24:56.9	268.950	0.290	-0.450	1.570
2020/01/31 00:24:57.0	268.940	0.290	-0.430	1.580
2020/01/31 00:24:57.1	268.920	0.290	-0.410	1.590
2020/01/31 00:24:57.2	268.910	0.290	-0.390	1.590
2020/01/31 00:24:57.3	268.890	0.290	-0.370	1.590
2020/01/31 00:24:57.4	268.880	0.290	-0.360	1.590
2020/01/31 00:24:57.5	268.860	0.290	-0.330	1.580
2020/01/31 00:24:57.6	268.840	0.280	-0.310	1.570
2020/01/31 00:24:57.7	268.830	0.280	-0.290	1.560
2020/01/31 00:24:57.8	268.810	0.280	-0.270	1.550
2020/01/31 00:24:57.9	268.800	0.280	-0.250	1.530
2020/01/31 00:24:58.0	268.780	0.270	-0.230	1.510
2020/01/31 00:24:58.1	268.760	0.270	-0.210	1.490
2020/01/31 00:24:58.2	268.750	0.270	-0.190	1.470
2020/01/31 00:24:58.3	268.730	0.260	-0.160	1.450
2020/01/31 00:24:58.4	268.710	0.260	-0.140	1.430
2020/01/31 00:24:58.5	268.700	0.250	-0.120	1.410
2020/01/31 00:24:58.6	268.680	0.250	-0.100	1.390
2020/01/31 00:24:58.7	268.670	0.240	-0.080	1.360
2020/01/31 00:24:58.8	268.650	0.240	-0.070	1.340
2020/01/31 00:24:58.9	268.630	0.230	-0.050	1.320
2020/01/31 00:24:59.0	268.610	0.230	-0.040	1.300
2020/01/31 00:24:59.1	268.600	0.220	-0.020	1.280
2020/01/31 00:24:59.2	268.590	0.210	-0.010	1.260
2020/01/31 00:24:59.3	268.580	0.200	0.010	1.240
2020/01/31 00:24:59.4	268.570	0.200	0.020	1.220
2020/01/31 00:24:59.5	268.550	0.190	0.030	1.200
2020/01/31 00:24:59.6	268.540	0.180	0.040	1.170
2020/01/31 00:24:59.7	268.530	0.170	0.050	1.150
2020/01/31 00:24:59.8	268.520	0.160	0.060	1.130
2020/01/31 00:24:59.9	268.510	0.150	0.070	1.110
2020/01/31 00:25:00.0	268.500	0.140	0.080	1.090
2020/01/31 00:25:00.1	268.500	0.130	0.090	1.070
2020/01/31 00:25:00.2	268.490	0.120	0.100	1.050
2020/01/31 00:25:00.3	268.490	0.100	0.100	1.020
2020/01/31 00:25:00.4	268.480	0.090	0.110	1.000
2020/01/31 00:25:00.5	268.480	0.080	0.110	0.980
2020/01/31 00:25:00.6	268.480	0.060	0.120	0.950
2020/01/31 00:25:00.7	268.480	0.050	0.120	0.930
2020/01/31 00:25:00.8	268.480	0.030	0.130	0.900
2020/01/31 00:25:00.9	268.490	0.020	0.130	0.880
2020/01/31 00:25:01.0	268.490	0.000	0.130	0.850
2020/01/31 00:25:01.1	268.490	-0.010	0.140	0.830
2020/01/31 00:25:01.2	268.500	-0.030	0.140	0.800
2020/01/31 00:25:01.3	268.500	-0.040	0.140	0.780
2020/01/31 00:25:01.4	268.510	-0.060	0.140	0.750
2020/01/31 00:25:01.5	268.510	-0.080	0.140	0.730
2020/01/31 00:25:01.6	268.520	-0.090	0.140	0.700
2020/01/31 00:25:01.7	268.530	-0.110	0.140	0.680
2020/01/31 00:25:01.8	268.530	-0.120	0.130	0.650
2020/01/31 00:25:01.9	268.550	-0.140	0.130	0.630
2020/01/31 00:25:02.0	268.560	-0.150	0.120	0.610
2020/01/31 00:25:02.1	268.570	-0.170	0.110	0.590
2020/01/31 00:25:02.2	268.580	-0.180	0.100	0.560
2020/01/31 00:25:02.3	268.590	-0.200	0.090	0.540
2020/01/31 00:25:02.4	268.600	-0.210	0.070	0.520
2020/01/31 00:25:02.5	268.610	-0.220	0.060	0.500
2020/01/31 00:25:02.6	268.620	-0.230	0.040	0.480
2020/01/31 00:25:02.7	268.630	-0.250	0.020	0.460
2020/01/31 00:25:02.8	268.640	-0.260	-0.000	0.440
2020/01/31 00:25:02.9	268.640	-0.270	-0.030	0.420
2020/01/31 00:25:03.0	268.660	-0.280	-0.050	0.400
2020/01/31 00:25:03.1	268.670	-0.280	-0.080	0.380
2020/01/31 00:25:03.2	268.690	-0.290	-0.110	0.360
2020/01/31 00:25:03.3	268.700	-0.300	-0.140	0.350
2020/01/31 00:25:03.4	268.710	-0.300	-0.170	0.330
2020/01/31 00:25:03.5	268.730	-0.310	-0.200	0.320
2020/01/31 00:25:03.6	268.750	-0.310	-0.230	0.300
2020/01/31 00:25:03.7	268.760	-0.320	-0.260	0.290
2020/01/31 00:25:03.8	268.780	-0.320	-0.300	0.280
2020/01/31 00:25:03.9	268.790	-0.320	-0.330	0.270
2020/01/31 00:25:04.0	268.800	-0.320	-0.370	0.270
2020/01/31 00:25:04.1	268.820	-0.320	-0.400	0.260
2020/01/31 00:25:04.2	268.840	-0.310	-0.440	0.260
2020/01/31 00:25:04.3	268.860	-0.310	-0.470	0.250
2020/01/31 00:25:04.4	268.880	-0.310	-0.510	0.250
2020/01/31 00:25:04.5	268.890	-0.300	-0.540	0.250
2020/01/31 00:25:04.6	268.910	-0.290	-0.570	0.260
2020/01/31 00:25:04.7	268.930	-0.290	-0.600	0.260
2020/01/31 00:25:04.8	268.950	-0.280	-0.640	0.270
2020/01/31 00:25:04.9	268.960	-0.270	-0.660	0.280
2020/01/31 00:25:05.0	268.970	-0.250	-0.690	0.290
2020/01/31 00:25:05.1	268.990	-0.240	-0.720	0.310
2020/01/31 00:25:05.2	269.010	-0.230	-0.740	0.330
2020/01/31 00:25:05.3	269.020	-0.210	-0.770	0.350
2020/01/31 00:25:05.4	269.040	-0.190	-0.790	0.370
2020/01/31 00:25:05.5	269.050	-0.170	-0.810	0.400
2020/01/31 00:25:05.6	269.060	-0.160	-0.830	0.430
2020/01/31 00:25:05.7	269.070	-0.140	-0.840	0.460
2020/01/31 00:25:05.8	269.090	-0.110	-0.850	0.500
2020/01/31 00:25:05.9	269.090	-0.090	-0.870	0.530
2020/01/31 00:25:06.0	269.100	-0.070	-0.880	0.570
2020/01/31 00:25:06.1	269.110	-0.050	-0.880	0.610
2020/01/31 00:25:06.2	269.110	-0.030	-0.890	0.650
2020/01/31 00:25:06.3	269.120	-0.000	-0.890	0.680
2020/01/31 00:25:06.4	269.130	0.020	-0.900	0.720
2020/01/31 00:25:06.5	269.130	0.040	-0.890	0.760
2020/01/31 00:25:06.6	269.130	0.070	-0.890	0.800
2020/01/31 00:25:06.7	269.140	0.090	-0.890	0.840
2020/01/31 00:25:06.8	269.140	0.110	-0.880	0.880
2020/01/31 00:25:06.9	269.140	0.130	-0.880	0.910
2020/01/31 00:25:07.0	269.140	0.150	-0.870	0.940
2020/01/31 00:25:07.1	269.140	0.170	-0.860	0.970
2020/01/31 00:25:07.2	269.140	0.190	-0.850	1.000
2020/01/31 00:25:07.3	269.150	0.210	-0.840	1.030
2020/01/31 00:25:07.4	269.150	0.230	-0.820	1.050
2020/01/31 00:25:07.5	269.150	0.240	-0.810	1.080
2020/01/31 00:25:07.6	269.150	0.250	-0.790	1.100
2020/01/31 00:25:07.7	269.160	0.270	-0.780	1.110
2020/01/31 00:25:07.8	269.160	0.280	-0.760	1.130
2020/01/31 00:25:07.9	269.180	0.290	-0.740	1.150
2020/01/31 00:25:08.0	269.180	0.300	-0.720	1.160
2020/01/31 00:25:08.1	269.180	0.310	-0.700	1.160
2020/01/31 00:25:08.2	269.180	0.310	-0.680	1.170
2020/01/31 00:25:08.3	269.190	0.320	-0.650	1.170
2020/01/31 00:25:08.4	269.190	0.320	-0.630	1.170
2020/01/31 00:25:08.5	269.190	0.320	-0.610	1.170
2020/01/31 00:25:08.6	269.190	0.320	-0.580	1.160
2020/01/31 00:25:08.7	269.190	0.320	-0.560	1.160
2020/01/31 00:25:08.8	269.190	0.320	-0.540	1.150
2020/01/31 00:25:08.9	269.200	0.320	-0.510	1.140
2020/01/31 00:25:09.0	269.200	0.320	-0.480	1.130
2020/01/31 00:25:09.1	269.200	0.310	-0.460	1.130
2020/01/31 00:25:09.2	269.200	0.310	-0.430	1.120
2020/01/31 00:25:09.3	269.200	0.300	-0.410	1.110
2020/01/31 00:25:09.4	269.200	0.290	-0.380	1.100
2020/01/31 00:25:09.5	269.200	0.280	-0.350	1.100
2020/01/31 00:25:09.6	269.200	0.270	-0.330	1.090
2020/01/31 00:25:09.7	269.190	0.260	-0.300	1.090
2020/01/31 00:25:09.8	269.190	0.250	-0.280	1.080
2020/01/31 00:25:09.9	269.200	0.230	-0.250	1.080
2020/01/31 00:25:10.0	269.190	0.220	-0.230	1.080
2020/01/31 00:25:10.1	269.190	0.210	-0.210	1.080
2020/01/31 00:25:10.2	269.190	0.190	-0.180	1.070
2020/01/31 00:25:10.3	269.180	0.180	-0.160	1.070
2020/01/31 00:25:10.4	269.170	0.160	-0.140	1.070
2020/01/31 00:25:10.5	269.170	0.140	-0.120	1.070
2020/01/31 00:25:10.6	269.160	0.120	-0.100	1.080
2020/01/31 00:25:10.7	269.150	0.110	-0.080	1.080
2020/01/31 00:25:10.8	269.140	0.090	-0.060	1.080
2020/01/31 00:25:10.9	269.140	0.070	-0.040	1.080
2020/01/31 00:25:11.0	269.130	0.050	-0.030	1.080
2020/01/31 00:25:11.1	269.120	0.030	-0.010	1.090
2020/01/31 00:25:11.2	269.100	0.010	0.000	1.090
2020/01/31 00:25:11.3	269.090	-0.000	0.020	1.090
2020/01/31 00:25:11.4	269.080	-0.020	0.030	1.100
2020/01/31 00:25:11.5	269.060	-0.040	0.040	1.100
2020/01/31 00:25:11.6	269.040	-0.060	0.050	1.100
2020/01/31 00:25:11.7	269.020	-0.080	0.060	1.110
2020/01/31 00:25:11.8	269.010	-0.090	0.060	1.110
2020/01/31 00:25:11.9	269.000	-0.110	0.070	1.110
2020/01/31 00:25:12.0	268.980	-0.130	0.070	1.110
2020/01/31 00:25:12.1	268.960	-0.140	0.080	1.110
2020/01/31 00:25:12.2	268.940	-0.160	0.080	1.110
2020/01/31 00:25:12.3	268.920	-0.170	0.080	1.120
2020/01/31 00:25:12.4	268.900	-0.180	0.080	1.120
2020/01/31 00:25:12.5	268.880	-0.200	0.080	1.120
2020/01/31 00:25:12.6	268.860	-0.210	0.080	1.110
2020/01/31 00:25:12.7	268.830	-0.220	0.070	1.110
2020/01/31 00:25:12.8	268.810	-0.230	0.070	1.110
2020/01/31 00:25:12.9	268.800	-0.240	0.060	1.110
2020/01/31 00:25:13.0	268.780	-0.250	0.060	1.110
2020/01/31 00:25:13.1	268.760	-0.260	0.050	1.100
2020/01/31 00:25:13.2	268.740	-0.260	0.040	1.100
2020/01/31 00:25:13.3	268.730	-0.270	0.030	1.090
2020/01/31 00:25:13.4	268.710	-0.270	0.030	1.090
2020/01/31 00:25:13.5	268.690	-0.280	0.020	1.080
2020/01/31 00:25:13.6	268.680	-0.280	0.010	1.070
2020/01/31 00:25:13.7	268.660	-0.280	-0.010	1.060
2020/01/31 00:25:13.8	268.650	-0.280	-0.020	1.060
2020/01/31 00:25:13.9	268.640	-0.280	-0.030	1.040
2020/01/31 00:25:14.0	268.630	-0.280	-0.040	1.030
2020/01/31 00:25:14.1	268.620	-0.280	-0.050	1.030
2020/01/31 00:25:14.2	268.610	-0.280	-0.070	1.020
2020/01/31 00:25:14.3	268.600	-0.270	-0.080	1.000
2020/01/31 00:25:14.4	268.590	-0.270	-0.090	0.990
2020/01/31 00:25:14.5	268.590	-0.270	-0.100	0.980
2020/01/31 00:25:14.6	268.590	-0.260	-0.120	0.970
2020/01/31 00:25:14.7	268.580	-0.260	-0.130	0.960
2020/01/31 00:25:14.8	268.580	-0.250	-0.140	0.950
2020/01/31 00:25:14.9	268.590	-0.240	-0.160	0.930
2020/01/31 00:25:15.0	268.590	-0.230	-0.170	0.920
2020/01/31 00:25:15.1	268.590	-0.230	-0.180	0.910
2020/01/31 00:25:15.2	268.590	-0.220	-0.190	0.900
2020/01/31 00:25:15.3	268.590	-0.210	-0.200	0.880
2020/01/31 00:25:15.4	268.600	-0.200	-0.210	0.870
2020/01/31 00:25:15.5	268.600	-0.190	-0.220	0.860
2020/01/31 00:25:15.6	268.610	-0.180	-0.230	0.850
2020/01/31 00:25:15.7	268.610	-0.170	-0.240	0.840
2020/01/31 00:25:15.8	268.610	-0.160	-0.240	0.830
2020/01/31 00:25:15.9	268.620	-0.150	-0.250	0.820
2020/01/31 00:25:16.0	268.620	-0.140	-0.250	0.810
2020/01/31 00:25:16.1	268.620	-0.130	-0.250	0.810
2020/01/31 00:25:16.2	268.630	-0.120	-0.260	0.800
2020/01/31 00:25:16.3	268.630	-0.120	-0.250	0.800
2020/01/31 00:25:16.4	268.630	-0.110	-0.250	0.790
2020/01/31 00:25:16.5	268.630	-0.100	-0.250	0.790
2020/01/31 00:25:16.6	268.630	-0.090	-0.250	0.780
2020/01/31 00:25:16.7	268.630	-0.080	-0.240	0.780
2020/01/31 00:25:16.8	268.630	-0.070	-0.240	0.780
2020/01/31 00:25:16.9	268.640	-0.060	-0.230	0.780
2020/01/31 00:25:17.0	268.640	-0.050	-0.220	0.780
2020/01/31 00:25:17.1	268.640	-0.050	-0.220	0.770
2020/01/31 00:25:17.2	268.640	-0.040	-0.210	0.770
2020/01/31 00:25:17.3	268.640	-0.030	-0.200	0.770
2020/01/31 00:25:17.4	268.640	-0.030	-0.190	0.770
2020/01/31 00:25:17.5	268.640	-0.020	-0.180	0.760
2020/01/31 00:25:17.6	268.640	-0.020	-0.180	0.760
2020/01/31 00:25:17.7	268.640	-0.010	-0.170	0.760
2020/01/31 00:25:17.8	268.640	-0.010	-0.160	0.750
2020/01/31 00:25:17.9	268.640	-0.000	-0.160	0.740
2020/01/31 00:25:18.0	268.650	0.000	-0.150	0.740
2020/01/31 00:25:18.1	268.650	0.010	-0.150	0.730
2020/01/31 00:25:18.2	268.650	0.010	-0.150	0.730
2020/01/31 00:25:18.3	268.660	0.010	-0.140	0.720
2020/01/31 00:25:18.4	268.670	0.020	-0.140	0.710
2020/01/31 00:25:18.5	268.670	0.020	-0.140	0.700
2020/01/31 00:25:18.6	268.680	0.030	-0.140	0.690
2020/01/31 00:25:18.7	268.690	0.030	-0.150	0.680
2020/01/31 00:25:18.8	268.700	0.030	-0.150	0.670
2020/01/31 00:25:18.9	268.700	0.040	-0.160	0.660
2020/01/31 00:25:19.0	268.710	0.040	-0.170	0.650
2020/01/31 00:25:19.1	268.720	0.050	-0.180	0.640
2020/01/31 00:25:19.2	268.740	0.060	-0.190	0.630
2020/01/31 00:25:19.3	268.750	0.060	-0.200	0.620
2020/01/31 00:25:19.4	268.770	0.070	-0.210	0.610
2020/01/31 00:25:19.5	268.780	0.080	-0.230	0.600
2020/01/31 00:25:19.6	268.800	0.090	-0.240	0.590
2020/01/31 00:25:19.7	268.820	0.090	-0.260	0.580
2020/01/31 00:25:19.8	268.840	0.100	-0.280	0.570
2020/01/31 00:25:19.9	268.860	0.120	-0.300	0.550
2020/01/31 00:25:20.0	268.880	0.130	-0.320	0.540
2020/01/31 00:25:20.1	268.900	0.140	-0.340	0.540
2020/01/31 00:25:20.2	268.920	0.150	-0.360	0.530
2020/01/31 00:25:20.3	268.940	0.160	-0.380	0.520
2020/01/31 00:25:20.4	268.960	0.180	-0.400	0.510
2020/01/31 00:25:20.5	268.980	0.190	-0.420	0.510
2020/01/31 00:25:20.6	269.000	0.200	-0.440	0.500
2020/01/31 00:25:20.7	269.030	0.220	-0.460	0.500
2020/01/31 00:25:20.8	269.050	0.230	-0.480	0.500
2020/01/31 00:25:20.9	269.080	0.240	-0.490	0.500
2020/01/31 00:25:21.0	269.100	0.260	-0.510	0.500
2020/01/31 00:25:21.1	269.120	0.270	-0.520	0.500
2020/01/31 00:25:21.2	269.140	0.290	-0.530	0.500
2020/01/31 00:25:21.3	269.160	0.300	-0.550	0.500
2020/01/31 00:25:21.4	269.180	0.310	-0.560	0.510
2020/01/31 00:25:21.5	269.200	0.320	-0.560	0.510
2020/01/31 00:25:21.6	269.210	0.340	-0.570	0.520
2020/01/31 00:25:21.7	269.230	0.350	-0.580	0.520
2020/01/31 00:25:21.8	269.250	0.360	-0.580	0.530
2020/01/31 00:25:21.9	269.260	0.360	-0.590	0.540
2020/01/31 00:25:22.0	269.270	0.370	-0.590	0.550
2020/01/31 00:25:22.1	269.280	0.380	-0.590	0.560
2020/01/31 00:25:22.2	269.290	0.380	-0.580	0.570
2020/01/31 00:25:22.3	269.300	0.390	-0.580	0.590
2020/01/31 00:25:22.4	269.300	0.390	-0.580	0.610
2020/01/31 00:25:22.5	269.310	0.390	-0.570	0.620
2020/01/31 00:25:22.6	269.310	0.390	-0.570	0.650
2020/01/31 00:25:22.7	269.310	0.390	-0.560	0.670
2020/01/31 00:25:22.8	269.310	0.390	-0.550	0.690
2020/01/31 00:25:22.9	269.300	0.380	-0.540	0.720
2020/01/31 00:25:23.0	269.290	0.380	-0.540	0.750
2020/01/31 00:25:23.1	269.280	0.370	-0.530	0.780
2020/01/31 00:25:23.2	269.260	0.360	-0.520	0.820
2020/01/31 00:25:23.3	269.250	0.350	-0.510	0.850
2020/01/31 00:25:23.4	269.230	0.340	-0.510	0.890
2020/01/31 00:25:23.5	269.210	0.330	-0.500	0.920
2020/01/31 00:25:23.6	269.190	0.320	-0.500	0.960
2020/01/31 00:25:23.7	269.170	0.300	-0.490	1.000
2020/01/31 00:25:23.8	269.140	0.290	-0.480	1.040
2020/01/31 00:25:23.9	269.130	0.270	-0.480	1.080
2020/01/31 00:25:24.0	269.100	0.250	-0.470	1.120
2020/01/31 00:25:24.1	269.070	0.230	-0.470	1.160
2020/01/31 00:25:24.2	269.040	0.210	-0.470	1.190
2020/01/31 00:25:24.3	269.010	0.190	-0.470	1.230
2020/01/31 00:25:24.4	268.980	0.170	-0.460	1.270
2020/01/31 00:25:24.5	268.950	0.150	-0.460	1.300
2020/01/31 00:25:24.6	268.920	0.130	-0.460	1.330
2020/01/31 00:25:24.7	268.890	0.110	-0.460	1.360
2020/01/31 00:25:24.8	268.860	0.080	-0.460	1.380
2020/01/31 00:25:24.9	268.830	0.060	-0.460	1.410
2020/01/31 00:25:25.0	268.800	0.040	-0.460	1.430
2020/01/31 00:25:25.1	268.770	0.020	-0.460	1.450
2020/01/31 00:25:25.2	268.740	-0.000	-0.460	1.460
2020/01/31 00:25:25.3	268.720	-0.020	-0.460	1.480
2020/01/31 00:25:25.4	268.690	-0.050	-0.460	1.480
2020/01/31 00:25:25.5	268.660	-0.070	-0.460	1.490
2020/01/31 00:25:25.6	268.640	-0.080	-0.460	1.490
2020/01/31 00:25:25.7	268.610	-0.100	-0.460	1.490
2020/01/31 00:25:25.8	268.590	-0.120	-0.460	1.490
2020/01/31 00:25:25.9	268.550	-0.140	-0.460	1.480
2020/01/31 00:25:26.0	268.530	-0.150	-0.460	1.470
2020/01/31 00:25:26.1	268.510	-0.170	-0.470	1.460
2020/01/31 00:25:26.2	268.480	-0.180	-0.470	1.440
2020/01/31 00:25:26.3	268.460	-0.190	-0.470	1.420
2020/01/31 00:25:26.4	268.440	-0.200	-0.470	1.410
2020/01/31 00:25:26.5	268.420	-0.210	-0.470	1.390
2020/01/31 00:25:26.6	268.400	-0.220	-0.470	1.360
2020/01/31 00:25:26.7	268.380	-0.230	-0.470	1.340
2020/01/31 00:25:26.8	268.360	-0.240	-0.470	1.320
2020/01/31 00:25:26.9	268.340	-0.250	-0.470	1.300
2020/01/31 00:25:27.0	268.320	-0.250	-0.470	1.270
2020/01/31 00:25:27.1	268.310	-0.260	-0.460	1.250
2020/01/31 00:25:27.2	268.300	-0.260	-0.460	1.220
2020/01/31 00:25:27.3	268.290	-0.270	-0.460	1.190
2020/01/31 00:25:27.4	268.280	-0.270	-0.450	1.170
2020/01/31 00:25:27.5	268.270	-0.270	-0.450	1.140
2020/01/31 00:25:27.6	268.260	-0.280	-0.440	1.110
2020/01/31 00:25:27.7	268.250	-0.280	-0.430	1.090
2020/01/31 00:25:27.8	268.250	-0.280	-0.420	1.060
2020/01/31 00:25:27.9	268.230	-0.280	-0.410	1.030
2020/01/31 00:25:28.0	268.230	-0.290	-0.400	1.000
2020/01/31 00:25:28.1	268.230	-0.290	-0.380	0.970
2020/01/31 00:25:28.2	268.230	-0.290	-0.370	0.950
2020/01/31 00:25:28.3	268.230	-0.300	-0.350	0.920
2020/01/31 00:25:28.4	268.230	-0.300	-0.340	0.900
2020/01/31 00:25:28.5	268.240	-0.300	-0.320	0.880
2020/01/31 00:25:28.6	268.240	-0.310	-0.300	0.860
2020/01/31 00:25:28.7	268.240	-0.310	-0.280	0.840
2020/01/31 00:25:28.8	268.250	-0.320	-0.260	0.820
2020/01/31 00:25:28.9	268.260	-0.320	-0.240	0.800
2020/01/31 00:25:29.0	268.260	-0.330	-0.220	0.790
2020/01/31 00:25:29.1	268.270	-0.340	-0.200	0.770
2020/01/31 00:25:29.2	268.280	-0.340	-0.170	0.760
2020/01/31 00:25:29.3	268.290	-0.350	-0.150	0.750
2020/01/31 00:25:29.4	268.300	-0.360	-0.120	0.740
2020/01/31 00:25:29.5	268.300	-0.360	-0.100	0.730
2020/01/31 00:25:29.6	268.320	-0.370	-0.070	0.730
2020/01/31 00:25:29.7	268.330	-0.380	-0.050	0.720
2020/01/31 00:25:29.8	268.340	-0.390	-0.020	0.720
2020/01/31 00:25:29.9	268.340	-0.390	0.000	0.710
2020/01/31 00:25:30.0	268.360	-0.400	0.030	0.710
2020/01/31 00:25:30.1	268.370	-0.410	0.050	0.700
2020/01/31 00:25:30.2	268.390	-0.410	0.080	0.700
2020/01/31 00:25:30.3	268.400	-0.420	0.100	0.700
2020/01/31 00:25:30.4	268.420	-0.420	0.120	0.700
2020/01/31 00:25:30.5	268.430	-0.420	0.140	0.700
2020/01/31 00:25:30.6	268.450	-0.420	0.160	0.690
2020/01/31 00:25:30.7	268.470	-0.420	0.180	0.690
2020/01/31 00:25:30.8	268.490	-0.420	0.190	0.690
2020/01/31 00:25:30.9	268.520	-0.420	0.210	0.700
2020/01/31 00:25:31.0	268.540	-0.420	0.220	0.700
2020/01/31 00:25:31.1	268.560	-0.410	0.230	0.700
2020/01/31 00:25:31.2	268.580	-0.400	0.230	0.700
2020/01/31 00:25:31.3	268.610	-0.390	0.240	0.700
2020/01/31 00:25:31.4	268.630	-0.380	0.240	0.700
2020/01/31 00:25:31.5	268.660	-0.370	0.240	0.700
2020/01/31 00:25:31.6	268.680	-0.360	0.230	0.700
2020/01/31 00:25:31.7	268.710	-0.340	0.230	0.700
2020/01/31 00:25:31.8	268.740	-0.320	0.220	0.700
2020/01/31 00:25:31.9	268.790	-0.300	0.210	0.700
2020/01/31 00:25:32.0	268.810	-0.280	0.200	0.710
2020/01/31 00:25:32.1	268.840	-0.260	0.190	0.710
2020/01/31 00:25:32.2	268.870	-0.230	0.170	0.720
2020/01/31 00:25:32.3	268.900	-0.200	0.160	0.720
2020/01/31 00:25:32.4	268.930	-0.180	0.140	0.730
2020/01/31 00:25:32.5	268.950	-0.150	0.120	0.740
2020/01/31 00:25:32.6	268.980	-0.120	0.110	0.750
2020/01/31 00:25:32.7	269.010	-0.090	0.090	0.760
2020/01/31 00:25:32.8	269.040	-0.060	0.070	0.770
2020/01/31 00:25:32.9	269.060	-0.030	0.050	0.790
2020/01/31 00:25:33.0	269.080	0.010	0.030	0.800
2020/01/31 00:25:33.1	269.110	0.040	0.010	0.810
2020/01/31 00:25:33.2	269.130	0.070	-0.010	0.830
2020/01/31 00:25:33.3	269.160	0.110	-0.030	0.840
2020/01/31 00:25:33.4	269.180	0.140	-0.050	0.860
2020/01/31 00:25:33.5	269.200	0.170	-0.070	0.870
2020/01/31 00:25:33.6	269.220	0.200	-0.090	0.890
2020/01/31 00:25:33.7	269.230	0.230	-0.110	0.910
2020/01/31 00:25:33.8	269.250	0.260	-0.130	0.930
2020/01/31 00:25:33.9	269.250	0.290	-0.140	0.950
2020/01/31 00:25:34.0	269.270	0.320	-0.160	0.970
2020/01/31 00:25:34.1	269.270	0.350	-0.180	0.990
2020/01/31 00:25:34.2	269.280	0.380	-0.200	1.010
2020/01/31 00:25:34.3	269.290	0.410	-0.220	1.030
2020/01/31 00:25:34.4	269.290	0.430	-0.240	1.060
2020/01/31 00:25:34.5	269.290	0.450	-0.260	1.080
2020/01/31 00:25:34.6	269.290	0.480	-0.280	1.100
2020/01/31 00:25:34.7	269.290	0.500	-0.290	1.120
2020/01/31 00:25:34.8	269.280	0.520	-0.310	1.140
2020/01/31 00:25:34.9	269.280	0.540	-0.330	1.160
2020/01/31 00:25:35.0	269.270	0.550	-0.350	1.180
2020/01/31 00:25:35.1	269.260	0.570	-0.360	1.200
2020/01/31 00:25:35.2	269.240	0.580	-0.380	1.210
2020/01/31 00:25:35.3	269.230	0.600	-0.400	1.230
2020/01/31 00:25:35.4	269.210	0.610	-0.420	1.250
2020/01/31 00:25:35.5	269.190	0.620	-0.430	1.260
2020/01/31 00:25:35.6	269.160	0.630	-0.450	1.280
2020/01/31 00:25:35.7	269.140	0.630	-0.470	1.290
2020/01/31 00:25:35.8	269.110	0.640	-0.480	1.310
2020/01/31 00:25:35.9	269.090	0.640	-0.500	1.320
2020/01/31 00:25:36.0	269.060	0.640	-0.510	1.330
2020/01/31 00:25:36.1	269.030	0.650	-0.530	1.340
2020/01/31 00:25:36.2	268.990	0.640	-0.540	1.350
2020/01/31 00:25:36.3	268.960	0.640	-0.560	1.360
2020/01/31 00:25:36.4	268.920	0.640	-0.570	1.370
2020/01/31 00:25:36.5	268.880	0.630	-0.580	1.370
2020/01/31 00:25:36.6	268.850	0.620	-0.600	1.370
2020/01/31 00:25:36.7	268.810	0.610	-0.610	1.370
2020/01/31 00:25:36.8	268.770	0.600	-0.620	1.370
2020/01/31 00:25:36.9	268.730	0.590	-0.630	1.370
2020/01/31 00:25:37.0	268.690	0.580	-0.640	1.370
2020/01/31 00:25:37.1	268.650	0.560	-0.650	1.360
2020/01/31 00:25:37.2	268.610	0.540	-0.660	1.350
2020/01/31 00:25:37.3	268.570	0.520	-0.670	1.340
2020/01/31 00:25:37.4	268.540	0.500	-0.680	1.330
2020/01/31 00:25:37.5	268.500	0.480	-0.680	1.310
2020/01/31 00:25:37.6	268.460	0.460	-0.690	1.300
2020/01/31 00:25:37.7	268.430	0.430	-0.690	1.280
2020/01/31 00:25:37.8	268.390	0.400	-0.700	1.260
2020/01/31 00:25:37.9	268.360	0.380	-0.700	1.230
2020/01/31 00:25:38.0	268.330	0.350	-0.700	1.210
2020/01/31 00:25:38.1	268.290	0.320	-0.700	1.190
2020/01/31 00:25:38.2	268.260	0.290	-0.700	1.160
2020/01/31 00:25:38.3	268.240	0.260	-0.700	1.140
2020/01/31 00:25:38.4	268.210	0.220	-0.700	1.110
2020/01/31 00:25:38.5	268.180	0.190	-0.700	1.080
2020/01/31 00:25:38.6	268.160	0.160	-0.700	1.060
2020/01/31 00:25:38.7	268.140	0.120	-0.690	1.030
2020/01/31 00:25:38.8	268.110	0.090	-0.690	1.000
2020/01/31 00:25:38.9	268.100	0.050	-0.680	0.970
2020/01/31 00:25:39.0	268.090	0.020	-0.670	0.940
2020/01/31 00:25:39.1	268.070	-0.020	-0.670	0.910
2020/01/31 00:25:39.2	268.050	-0.050	-0.660	0.890
2020/01/31 00:25:39.3	268.040	-0.090	-0.650	0.860
2020/01/31 00:25:39.4	268.030	-0.120	-0.640	0.830
2020/01/31 00:25:39.5	268.020	-0.150	-0.630	0.800
2020/01/31 00:25:39.6	268.020	-0.190	-0.620	0.770
2020/01/31 00:25:39.7	268.010	-0.220	-0.610	0.740
2020/01/31 00:25:39.8	268.010	-0.260	-0.600	0.720
2020/01/31 00:25:39.9	268.000	-0.290	-0.600	0.690
2020/01/31 00:25:40.0	268.000	-0.320	-0.590	0.660
2020/01/31 00:25:40.1	268.000	-0.350	-0.570	0.640
2020/01/31 00:25:40.2	268.010	-0.380	-0.560	0.610
2020/01/31 00:25:40.3	268.020	-0.410	-0.550	0.590
2020/01/31 00:25:40.4	268.030	-0.430	-0.540	0.560
2020/01/31 00:25:40.5	268.040	-0.460	-0.520	0.540
2020/01/31 00:25:40.6	268.050	-0.490	-0.510	0.520
2020/01/31 00:25:40.7	268.070	-0.510	-0.490	0.490
2020/01/31 00:25:40.8	268.080	-0.530	-0.480	0.470
2020/01/31 00:25:40.9	268.090	-0.550	-0.460	0.450
2020/01/31 00:25:41.0	268.110	-0.570	-0.440	0.430
2020/01/31 00:25:41.1	268.130	-0.590	-0.430	0.420
2020/01/31 00:25:41.2	268.150	-0.600	-0.410	0.400
2020/01/31 00:25:41.3	268.170	-0.620	-0.390	0.390
2020/01/31 00:25:41.4	268.200	-0.630	-0.370	0.370
2020/01/31 00:25:41.5	268.230	-0.640	-0.350	0.360
2020/01/31 00:25:41.6	268.250	-0.650	-0.330	0.350
2020/01/31 00:25:41.7	268.280	-0.650	-0.310	0.340
2020/01/31 00:25:41.8	268.310	-0.660	-0.280	0.330
2020/01/31 00:25:41.9	268.360	-0.660	-0.260	0.330
2020/01/31 00:25:42.0	268.390	-0.660	-0.240	0.320
2020/01/31 00:25:42.1	268.430	-0.660	-0.210	0.320
2020/01/31 00:25:42.2	268.460	-0.650	-0.190	0.320
2020/01/31 00:25:42.3	268.490	-0.650	-0.160	0.320
2020/01/31 00:25:42.4	268.530	-0.640	-0.140	0.320
2020/01/31 00:25:42.5	268.560	-0.630	-0.110	0.320
2020/01/31 00:25:42.6	268.600	-0.620	-0.090	0.330
2020/01/31 00:25:42.7	268.630	-0.610	-0.070	0.330
2020/01/31 00:25:42.8	268.670	-0.600	-0.040	0.350
2020/01/31 00:25:42.9	268.700	-0.580	-0.020	0.370
2020/01/31 00:25:43.0	268.730	-0.570	-0.000	0.380
2020/01/31 00:25:43.1	268.760	-0.550	0.010	0.400
2020/01/31 00:25:43.2	268.800	-0.530	0.030	0.430
2020/01/31 00:25:43.3	268.830	-0.510	0.050	0.460
2020/01/31 00:25:43.4	268.850	-0.490	0.060	0.490
2020/01/31 00:25:43.5	268.880	-0.470	0.070	0.520
2020/01/31 00:25:43.6	268.910	-0.440	0.080	0.560
2020/01/31 00:25:43.7	268.930	-0.420	0.080	0.600
2020/01/31 00:25:43.8	268.960	-0.390	0.090	0.640
2020/01/31 00:25:43.9	268.970	-0.360	0.090	0.680
2020/01/31 00:25:44.0	268.990	-0.340	0.090	0.730
2020/01/31 00:25:44.1	269.010	-0.310	0.080	0.780
2020/01/31 00:25:44.2	269.030	-0.280	0.070	0.820
2020/01/31 00:25:44.3	269.040	-0.250	0.070	0.870
2020/01/31 00:25:44.4	269.060	-0.220	0.050	0.920
2020/01/31 00:25:44.5	269.070	-0.190	0.040	0.970
2020/01/31 00:25:44.6	269.080	-0.160	0.020	1.020
2020/01/31 00:25:44.7	269.090	-0.130	0.010	1.080
2020/01/31 00:25:44.8	269.100	-0.100	-0.010	1.130
2020/01/31 00:25:44.9	269.110	-0.070	-0.030	1.180
2020/01/31 00:25:45.0	269.120	-0.030	-0.050	1.220
2020/01/31 00:25:45.1	269.120	-0.000	-0.080	1.270
2020/01/31 00:25:45.2	269.120	0.030	-0.100	1.320
2020/01/31 00:25:45.3	269.130	0.060	-0.120	1.360
2020/01/31 00:25:45.4	269.120	0.090	-0.150	1.400
2020/01/31 00:25:45.5	269.120	0.120	-0.170	1.440
2020/01/31 00:25:45.6	269.120	0.150	-0.190	1.480
2020/01/31 00:25:45.7	269.110	0.180	-0.210	1.520
2020/01/31 00:25:45.8	269.110	0.210	-0.230	1.550
2020/01/31 00:25:45.9	269.100	0.230	-0.250	1.580
2020/01/31 00:25:46.0	269.090	0.260	-0.260	1.610
2020/01/31 00:25:46.1	269.080	0.290	-0.270	1.630
2020/01/31 00:25:46.2	269.070	0.310	-0.290	1.650
2020/01/31 00:25:46.3	269.050	0.340	-0.300	1.670
2020/01/31 00:25:46.4	269.040	0.360	-0.300	1.680
2020/01/31 00:25:46.5	269.020	0.380	-0.310	1.690
2020/01/31 00:25:46.6	269.010	0.400	-0.310	1.700
2020/01/31 00:25:46.7	268.990	0.420	-0.310	1.700
2020/01/31 00:25:46.8	268.970	0.440	-0.300	1.700
2020/01/31 00:25:46.9	268.960	0.460	-0.300	1.700
2020/01/31 00:25:47.0	268.940	0.470	-0.290	1.700
2020/01/31 00:25:47.1	268.910	0.490	-0.290	1.690
2020/01/31 00:25:47.2	268.890	0.500	-0.280	1.680
2020/01/31 00:25:47.3	268.870	0.510	-0.270	1.670
2020/01/31 00:25:47.4	268.850	0.520	-0.260	1.660
2020/01/31 00:25:47.5	268.820	0.530	-0.240	1.640
2020/01/31 00:25:47.6	268.800	0.530	-0.230	1.630
2020/01/31 00:25:47.7	268.780	0.540	-0.220	1.610
2020/01/31 00:25:47.8	268.750	0.540	-0.210	1.580
2020/01/31 00:25:47.9	268.720	0.540	-0.200	1.560
2020/01/31 00:25:48.0	268.690	0.540	-0.190	1.530
2020/01/31 00:25:48.1	268.670	0.540	-0.180	1.510
2020/01/31 00:25:48.2	268.640	0.530	-0.170	1.480
2020/01/31 00:25:48.3	268.620	0.530	-0.170	1.450
2020/01/31 00:25:48.4	268.600	0.520	-0.160	1.410
2020/01/31 00:25:48.5	268.570	0.520	-0.150	1.380
2020/01/31 00:25:48.6	268.550	0.510	-0.150	1.340
2020/01/31 00:25:48.7	268.520	0.500	-0.150	1.300
2020/01/31 00:25:48.8	268.500	0.480	-0.150	1.270
2020/01/31 00:25:48.9	268.470	0.470	-0.150	1.220
2020/01/31 00:25:49.0	268.450	0.460	-0.160	1.180
2020/01/31 00:25:49.1	268.430	0.440	-0.160	1.140
2020/01/31 00:25:49.2	268.410	0.420	-0.170	1.100
2020/01/31 00:25:49.3	268.390	0.410	-0.180	1.060
2020/01/31 00:25:49.4	268.370	0.390	-0.190	1.020
2020/01/31 00:25:49.5	268.350	0.370	-0.200	0.980
2020/01/31 00:25:49.6	268.320	0.350	-0.210	0.940
2020/01/31 00:25:49.7	268.310	0.320	-0.230	0.910
2020/01/31 00:25:49.8	268.290	0.300	-0.240	0.870
2020/01/31 00:25:49.9	268.260	0.280	-0.260	0.830
2020/01/31 00:25:50.0	268.240	0.250	-0.280	0.800
2020/01/31 00:25:50.1	268.230	0.230	-0.290	0.770
2020/01/31 00:25:50.2	268.210	0.200	-0.310	0.730
2020/01/31 00:25:50.3	268.200	0.180	-0.320	0.700
2020/01/31 00:25:50.4	268.180	0.150	-0.340	0.680
2020/01/31 00:25:50.5	268.170	0.130	-0.350	0.650
2020/01/31 00:25:50.6	268.150	0.100	-0.370	0.630
2020/01/31 00:25:50.7	268.140	0.080	-0.380	0.610
2020/01/31 00:25:50.8	268.130	0.050	-0.390	0.590
2020/01/31 00:25:50.9	268.120	0.020	-0.410	0.570
2020/01/31 00:25:51.0	268.110	-0.000	-0.420	0.560
2020/01/31 00:25:51.1	268.100	-0.030	-0.430	0.550
2020/01/31 00:25:51.2	268.090	-0.050	-0.430	0.540
2020/01/31 00:25:51.3	268.080	-0.070	-0.440	0.530
2020/01/31 00:25:51.4	268.070	-0.100	-0.440	0.530
2020/01/31 00:25:51.5	268.060	-0.120	-0.450	0.520
2020/01/31 00:25:51.6	268.050	-0.140	-0.450	0.520
2020/01/31 00:25:51.7	268.040	-0.160	-0.450	0.520
2020/01/31 00:25:51.8	268.030	-0.180	-0.440	0.530
2020/01/31 00:25:51.9	268.010	-0.200	-0.440	0.540
2020/01/31 00:25:52.0	268.010	-0.210	-0.440	0.540
2020/01/31 00:25:52.1	268.000	-0.230	-0.430	0.550
2020/01/31 00:25:52.2	268.000	-0.250	-0.420	0.560
2020/01/31 00:25:52.3	267.990	-0.260	-0.410	0.570
2020/01/31 00:25:52.4	267.990	-0.270	-0.400	0.580
2020/01/31 00:25:52.5	267.990	-0.280	-0.390	0.590
2020/01/31 00:25:52.6	267.990	-0.290	-0.370	0.610
2020/01/31 00:25:52.7	267.990	-0.300	-0.360	0.620
2020/01/31 00:25:52.8	268.000	-0.300	-0.340	0.630
2020/01/31 00:25:52.9	268.000	-0.310	-0.330	0.640
2020/01/31 00:25:53.0	268.000	-0.310	-0.310	0.660
2020/01/31 00:25:53.1	268.010	-0.310	-0.300	0.660
2020/01/31 00:25:53.2	268.020	-0.310	-0.280	0.670
2020/01/31 00:25:53.3	268.030	-0.310	-0.270	0.680
2020/01/31 00:25:53.4	268.040	-0.310	-0.260	0.690
2020/01/31 00:25:53.5	268.050	-0.300	-0.250	0.700
2020/01/31 00:25:53.6	268.060	-0.290	-0.240	0.700
2020/01/31 00:25:53.7	268.080	-0.290	-0.230	0.710
2020/01/31 00:25:53.8	268.100	-0.280	-0.220	0.710
2020/01/31 00:25:53.9	268.120	-0.260	-0.220	0.720
2020/01/31 00:25:54.0	268.130	-0.250	-0.220	0.720
2020/01/31 00:25:54.1	268.150	-0.240	-0.220	0.730
2020/01/31 00:25:54.2	268.170	-0.220	-0.220	0.730
2020/01/31 00:25:54.3	268.190	-0.210	-0.220	0.730
2020/01/31 00:25:54.4	268.210	-0.190	-0.230	0.730
2020/01/31 00:25:54.5	268.230	-0.170	-0.230	0.740
2020/01/31 00:25:54.6	268.250	-0.150	-0.240	0.740
2020/01/31 00:25:54.7	268.270	-0.130	-0.250	0.740
2020/01/31 00:25:54.8	268.290	-0.110	-0.260	0.740
2020/01/31 00:25:54.9	268.320	-0.090	-0.270	0.750
2020/01/31 00:25:55.0	268.340	-0.070	-0.280	0.750
2020/01/31 00:25:55.1	268.360	-0.050	-0.300	0.760
2020/01/31 00:25:55.2	268.380	-0.030	-0.310	0.760
2020/01/31 00:25:55.3	268.400	-0.010	-0.330	0.770
2020/01/31 00:25:55.4	268.420	0.010	-0.340	0.770
2020/01/31 00:25:55.5	268.430	0.030	-0.360	0.780
2020/01/31 00:25:55.6	268.450	0.050	-0.380	0.790
2020/01/31 00:25:55.7	268.470	0.070	-0.390	0.800
2020/01/31 00:25:55.8	268.480	0.090	-0.410	0.810
2020/01/31 00:25:55.9	268.510	0.110	-0.430	0.820
2020/01/31 00:25:56.0	268.520	0.120	-0.450	0.840
2020/01/31 00:25:56.1	268.530	0.140	-0.460	0.850
2020/01/31 00:25:56.2	268.540	0.150	-0.480	0.870
2020/01/31 00:25:56.3	268.550	0.160	-0.490	0.890
2020/01/31 00:25:56.4	268.560	0.170	-0.510	0.910
2020/01/31 00:25:56.5	268.570	0.180	-0.520	0.920
2020/01/31 00:25:56.6	268.570	0.190	-0.530	0.940
2020/01/31 00:25:56.7	268.580	0.200	-0.540	0.970
2020/01/31 00:25:56.8	268.580	0.200	-0.550	0.990
2020/01/31 00:25:56.9	268.570	0.200	-0.550	1.010
2020/01/31 00:25:57.0	268.570	0.200	-0.560	1.030
2020/01/31 00:25:57.1	268.580	0.200	-0.560	1.050
2020/01/31 00:25:57.2	268.570	0.200	-0.560	1.070
2020/01/31 00:25:57.3	268.570	0.200	-0.560	1.100
2020/01/31 00:25:57.4	268.570	0.190	-0.560	1.120
2020/01/31 00:25:57.5	268.570	0.190	-0.560	1.130
2020/01/31 00:25:57.6	268.570	0.180	-0.550	1.150
2020/01/31 00:25:57.7	268.560	0.170	-0.550	1.170
2020/01/31 00:25:57.8	268.560	0.160	-0.540	1.190
2020/01/31 00:25:57.9	268.550	0.140	-0.530	1.190
2020/01/31 00:25:58.0	268.540	0.130	-0.520	1.210
2020/01/31 00:25:58.1	268.540	0.110	-0.510	1.220
2020/01/31 00:25:58.2	268.540	0.100	-0.500	1.230
2020/01/31 00:25:58.3	268.530	0.080	-0.490	1.240
2020/01/31 00:25:58.4	268.530	0.060	-0.470	1.250
2020/01/31 00:25:58.5	268.520	0.040	-0.460	1.250
2020/01/31 00:25:58.6	268.520	0.020	-0.440	1.260
2020/01/31 00:25:58.7	268.510	0.010	-0.430	1.260
2020/01/31 00:25:58.8	268.510	-0.010	-0.420	1.250
2020/01/31 00:25:58.9	268.500	-0.030	-0.400	1.250
2020/01/31 00:25:59.0	268.490	-0.050	-0.380	1.250
2020/01/31 00:25:59.1	268.490	-0.070	-0.370	1.240
2020/01/31 00:25:59.2	268.490	-0.090	-0.360	1.220
2020/01/31 00:25:59.3	268.480	-0.110	-0.350	1.210
2020/01/31 00:25:59.4	268.480	-0.130	-0.330	1.190
2020/01/31 00:25:59.5	268.470	-0.140	-0.330	1.170
2020/01/31 00:25:59.6	268.470	-0.160	-0.320	1.150
2020/01/31 00:25:59.7	268.460	-0.170	-0.310	1.120
2020/01/31 00:25:59.8	268.460	-0.190	-0.300	1.100
2020/01/31 00:25:59.9	268.450	-0.200	-0.300	1.070
2020/01/31 00:26:00.0	268.450	-0.210	-0.290	1.040
2020/01/31 00:26:00.1	268.450	-0.220	-0.290	1.020
2020/01/31 00:26:00.2	268.440	-0.230	-0.290	0.990
2020/01/31 00:26:00.3	268.440	-0.240	-0.290	0.960
2020/01/31 00:26:00.4	268.430	-0.240	-0.290	0.940
2020/01/31 00:26:00.5	268.430	-0.250	-0.290	0.910
2020/01/31 00:26:00.6	268.420	-0.250	-0.290	0.890
2020/01/31 00:26:00.7	268.420	-0.250	-0.290	0.870
2020/01/31 00:26:00.8	268.410	-0.250	-0.290	0.850
2020/01/31 00:26:00.9	268.410	-0.250	-0.300	0.820
2020/01/31 00:26:01.0	268.400	-0.250	-0.300	0.810
2020/01/31 00:26:01.1	268.400	-0.240	-0.300	0.790
2020/01/31 00:26:01.2	268.390	-0.240	-0.300	0.780
2020/01/31 00:26:01.3	268.390	-0.230	-0.300	0.760
2020/01/31 00:26:01.4	268.380	-0.220	-0.300	0.750
2020/01/31 00:26:01.5	268.370	-0.210	-0.300	0.750
2020/01/31 00:26:01.6	268.370	-0.200	-0.300	0.740
2020/01/31 00:26:01.7	268.360	-0.190	-0.300	0.740
2020/01/31 00:26:01.8	268.360	-0.180	-0.300	0.740
2020/01/31 00:26:01.9	268.350	-0.170	-0.300	0.740
2020/01/31 00:26:02.0	268.340	-0.150	-0.300	0.750
2020/01/31 00:26:02.1	268.340	-0.140	-0.290	0.760
2020/01/31 00:26:02.2	268.330	-0.120	-0.280	0.760
2020/01/31 00:26:02.3	268.320	-0.110	-0.270	0.780
2020/01/31 00:26:02.4	268.310	-0.090	-0.270	0.790
2020/01/31 00:26:02.5	268.300	-0.070	-0.260	0.810
2020/01/31 00:26:02.6	268.300	-0.060	-0.240	0.830
2020/01/31 00:26:02.7	268.290	-0.040	-0.230	0.850
2020/01/31 00:26:02.8	268.280	-0.020	-0.220	0.870
2020/01/31 00:26:02.9	268.270	-0.010	-0.200	0.890
2020/01/31 00:26:03.0	268.260	0.010	-0.190	0.920
2020/01/31 00:26:03.1	268.250	0.020	-0.170	0.940
2020/01/31 00:26:03.2	268.240	0.040	-0.150	0.960
2020/01/31 00:26:03.3	268.230	0.050	-0.140	0.980
2020/01/31 00:26:03.4	268.210	0.070	-0.120	1.010
2020/01/31 00:26:03.5	268.200	0.080	-0.110	1.030
2020/01/31 00:26:03.6	268.190	0.090	-0.090	1.050
2020/01/31 00:26:03.7	268.180	0.100	-0.070	1.060
2020/01/31 00:26:03.8	268.160	0.110	-0.050	1.080
2020/01/31 00:26:03.9	268.150	0.120	-0.030	1.100
2020/01/31 00:26:04.0	268.130	0.130	-0.020	1.110
2020/01/31 00:26:04.1	268.120	0.140	0.000	1.120
2020/01/31 00:26:04.2	268.110	0.150	0.020	1.130
2020/01/31 00:26:04.3	268.090	0.150	0.040	1.140
2020/01/31 00:26:04.4	268.080	0.160	0.050	1.150
2020/01/31 00:26:04.5	268.060	0.160	0.070	1.150
2020/01/31 00:26:04.6	268.050	0.160	0.080	1.150
2020/01/31 00:26:04.7	268.030	0.160	0.100	1.160
2020/01/31 00:26:04.8	268.020	0.170	0.110	1.150
2020/01/31 00:26:04.9	268.000	0.160	0.120	1.150
2020/01/31 00:26:05.0	267.980	0.160	0.130	1.150
2020/01/31 00:26:05.1	267.970	0.160	0.140	1.140
2020/01/31 00:26:05.2	267.950	0.150	0.140	1.130
2020/01/31 00:26:05.3	267.930	0.150	0.150	1.120
2020/01/31 00:26:05.4	267.920	0.140	0.150	1.100
2020/01/31 00:26:05.5	267.900	0.130	0.150	1.090
2020/01/31 00:26:05.6	267.890	0.130	0.140	1.070
2020/01/31 00:26:05.7	267.870	0.120	0.140	1.050
2020/01/31 00:26:05.8	267.860	0.110	0.130	1.020
2020/01/31 00:26:05.9	267.840	0.100	0.120	1.000
2020/01/31 00:26:06.0	267.820	0.080	0.110	0.970
2020/01/31 00:26:06.1	267.810	0.070	0.100	0.940
2020/01/31 00:26:06.2	267.800	0.060	0.080	0.920
2020/01/31 00:26:06.3	267.780	0.050	0.060	0.890
2020/01/31 00:26:06.4	267.770	0.040	0.050	0.860
2020/01/31 00:26:06.5	267.760	0.020	0.030	0.830
2020/01/31 00:26:06.6	267.750	0.010	0.000	0.800
2020/01/31 00:26:06.7	267.740	0.000	-0.020	0.770
2020/01/31 00:26:06.8	267.730	-0.010	-0.040	0.740
2020/01/31 00:26:06.9	267.730	-0.020	-0.070	0.710
2020/01/31 00:26:07.0	267.730	-0.030	-0.090	0.690
2020/01/31 00:26:07.1	267.720	-0.040	-0.120	0.660
2020/01/31 00:26:07.2	267.720	-0.050	-0.140	0.630
2020/01/31 00:26:07.3	267.720	-0.050	-0.170	0.610
2020/01/31 00:26:07.4	267.720	-0.060	-0.190	0.590
2020/01/31 00:26:07.5	267.720	-0.070	-0.220	0.560
2020/01/31 00:26:07.6	267.720	-0.070	-0.250	0.540
2020/01/31 00:26:07.7	267.730	-0.070	-0.270	0.520
2020/01/31 00:26:07.8	267.730	-0.070	-0.300	0.500
2020/01/31 00:26:07.9	267.740	-0.070	-0.330	0.490
2020/01/31 00:26:08.0	267.750	-0.070	-0.350	0.480
2020/01/31 00:26:08.1	267.760	-0.070	-0.380	0.460
2020/01/31 00:26:08.2	267.770	-0.070	-0.410	0.450
2020/01/31 00:26:08.3	267.780	-0.060	-0.430	0.440
2020/01/31 00:26:08.4	267.790	-0.050	-0.460	0.440
2020/01/31 00:26:08.5	267.810	-0.050	-0.480	0.430
2020/01/31 00:26:08.6	267.820	-0.040	-0.500	0.430
2020/01/31 00:26:08.7	267.840	-0.030	-0.520	0.430
2020/01/31 00:26:08.8	267.860	-0.020	-0.540	0.430
2020/01/31 00:26:08.9	267.870	-0.000	-0.560	0.430
2020/01/31 00:26:09.0	267.890	0.010	-0.580	0.430
2020/01/31 00:26:09.1	267.910	0.020	-0.600	0.440
2020/01/31 00:26:09.2	267.940	0.030	-0.610	0.450
2020/01/31 00:26:09.3	267.960	0.050	-0.630	0.460
2020/01/31 00:26:09.4	267.990	0.060	-0.640	0.480
2020/01/31 00:26:09.5	268.020	0.080	-0.650	0.490
2020/01/31 00:26:09.6	268.050	0.090	-0.650	0.510
2020/01/31 00:26:09.7	268.080	0.100	-0.660	0.530
2020/01/31 00:26:09.8	268.110	0.120	-0.670	0.560
2020/01/31 00:26:09.9	268.160	0.130	-0.670	0.580
2020/01/31 00:26:10.0	268.190	0.140	-0.670	0.610
2020/01/31 00:26:10.1	268.220	0.160	-0.670	0.640
2020/01/31 00:26:10.2	268.260	0.170	-0.670	0.670
2020/01/31 00:26:10.3	268.290	0.180	-0.670	0.710
2020/01/31 00:26:10.4	268.320	0.190	-0.670	0.740
2020/01/31 00:26:10.5	268.350	0.200	-0.660	0.780
2020/01/31 00:26:10.6	268.380	0.210	-0.660	0.820
2020/01/31 00:26:10.7	268.410	0.210	-0.650	0.860
2020/01/31 00:26:10.8	268.440	0.220	-0.640	0.900
2020/01/31 00:26:10.9	268.470	0.230	-0.640	0.940
2020/01/31 00:26:11.0	268.500	0.230	-0.630	0.990
2020/01/31 00:26:11.1	268.520	0.230	-0.620	1.030
2020/01/31 00:26:11.2	268.550	0.240	-0.610	1.070
2020/01/31 00:26:11.3	268.570	0.240	-0.600	1.110
2020/01/31 00:26:11.4	268.600	0.240	-0.590	1.160
2020/01/31 00:26:11.5	268.620	0.240	-0.580	1.200
2020/01/31 00:26:11.6	268.640	0.240	-0.570	1.240
2020/01/31 00:26:11.7	268.660	0.240	-0.560	1.270
2020/01/31 00:26:11.8	268.680	0.240	-0.550	1.310
2020/01/31 00:26:11.9	268.690	0.240	-0.540	1.340
2020/01/31 00:26:12.0	268.710	0.240	-0.520	1.370
2020/01/31 00:26:12.1	268.730	0.230	-0.510	1.400
2020/01/31 00:26:12.2	268.740	0.230	-0.500	1.430
2020/01/31 00:26:12.3	268.750	0.230	-0.490	1.450
2020/01/31 00:26:12.4	268.770	0.230	-0.480	1.470
2020/01/31 00:26:12.5	268.780	0.220	-0.480	1.490
2020/01/31 00:26:12.6	268.790	0.220	-0.470	1.500
2020/01/31 00:26:12.7	268.800	0.220	-0.460	1.510
2020/01/31 00:26:12.8	268.810	0.220	-0.450	1.520
2020/01/31 00:26:12.9	268.810	0.210	-0.450	1.520
2020/01/31 00:26:13.0	268.820	0.210	-0.440	1.520
2020/01/31 00:26:13.1	268.830	0.210	-0.430	1.520
2020/01/31 00:26:13.2	268.830	0.210	-0.430	1.520
2020/01/31 00:26:13.3	268.840	0.210	-0.430	1.510
2020/01/31 00:26:13.4	268.840	0.210	-0.420	1.500
2020/01/31 00:26:13.5	268.840	0.210	-0.420	1.490
2020/01/31 00:26:13.6	268.850	0.210	-0.410	1.480
2020/01/31 00:26:13.7	268.850	0.210	-0.410	1.460
2020/01/31 00:26:13.8	268.850	0.210	-0.410	1.440
2020/01/31 00:26:13.9	268.850	0.210	-0.410	1.420
2020/01/31 00:26:14.0	268.850	0.210	-0.410	1.400
2020/01/31 00:26:14.1	268.850	0.210	-0.410	1.380
2020/01/31 00:26:14.2	268.850	0.210	-0.400	1.360
2020/01/31 00:26:14.3	268.850	0.210	-0.400	1.340
2020/01/31 00:26:14.4	268.840	0.210	-0.400	1.320
2020/01/31 00:26:14.5	268.840	0.210	-0.400	1.290
2020/01/31 00:26:14.6	268.830	0.210	-0.400	1.270
2020/01/31 00:26:14.7	268.820	0.200	-0.400	1.240
2020/01/31 00:26:14.8	268.810	0.200	-0.400	1.220
2020/01/31 00:26:14.9	268.800	0.200	-0.390	1.200
2020/01/31 00:26:15.0	268.790	0.190	-0.390	1.170
2020/01/31 00:26:15.1	268.770	0.180	-0.390	1.150
2020/01/31 00:26:15.2	268.750	0.170	-0.390	1.120
2020/01/31 00:26:15.3	268.740	0.160	-0.390	1.090
2020/01/31 00:26:15.4	268.720	0.150	-0.380	1.070
2020/01/31 00:26:15.5	268.690	0.140	-0.380	1.040
2020/01/31 00:26:15.6	268.670	0.120	-0.380	1.010
2020/01/31 00:26:15.7	268.640	0.110	-0.370	0.980
2020/01/31 00:26:15.8	268.620	0.090	-0.370	0.960
2020/01/31 00:26:15.9	268.570	0.070	-0.360	0.930
2020/01/31 00:26:16.0	268.540	0.050	-0.360	0.900
2020/01/31 00:26:16.1	268.510	0.020	-0.350	0.880
2020/01/31 00:26:16.2	268.480	-0.000	-0.340	0.850
2020/01/31 00:26:16.3	268.450	-0.030	-0.340	0.830
2020/01/31 00:26:16.4	268.420	-0.060	-0.330	0.810
2020/01/31 00:26:16.5	268.380	-0.090	-0.320	0.780
2020/01/31 00:26:16.6	268.350	-0.120	-0.310	0.760
2020/01/31 00:26:16.7	268.320	-0.150	-0.290	0.740
2020/01/31 00:26:16.8	268.290	-0.180	-0.280	0.720
2020/01/31 00:26:16.9	268.260	-0.210	-0.270	0.690
2020/01/31 00:26:17.0	268.230	-0.250	-0.250	0.680
2020/01/31 00:26:17.1	268.200	-0.280	-0.240	0.660
2020/01/31 00:26:17.2	268.170	-0.310	-0.230	0.640
2020/01/31 00:26:17.3	268.140	-0.350	-0.210	0.630
2020/01/31 00:26:17.4	268.120	-0.380	-0.190	0.610
2020/01/31 00:26:17.5	268.090	-0.410	-0.180	0.600
2020/01/31 00:26:17.6	268.070	-0.440	-0.160	0.590
2020/01/31 00:26:17.7	268.050	-0.470	-0.150	0.570
2020/01/31 00:26:17.8	268.030	-0.490	-0.130	0.560
2020/01/31 00:26:17.9	267.990	-0.520	-0.120	0.550
2020/01/31 00:26:18.0	267.970	-0.540	-0.110	0.550
2020/01/31 00:26:18.1	267.960	-0.570	-0.090	0.540
2020/01/31 00:26:18.2	267.940	-0.590	-0.080	0.530
2020/01/31 00:26:18.3	267.930	-0.600	-0.070	0.520
2020/01/31 00:26:18.4	267.920	-0.620	-0.050	0.520
2020/01/31 00:26:18.5	267.910	-0.630	-0.040	0.510
2020/01/31 00:26:18.6	267.900	-0.640	-0.030	0.510
2020/01/31 00:26:18.7	267.890	-0.650	-0.020	0.510
2020/01/31 00:26:18.8	267.880	-0.650	-0.010	0.500
2020/01/31 00:26:18.9	267.880	-0.660	-0.000	0.500
2020/01/31 00:26:19.0	267.880	-0.660	0.010	0.500
2020/01/31 00:26:19.1	267.880	-0.650	0.010	0.500
2020/01/31 00:26:19.2	267.880	-0.650	0.020	0.510
2020/01/31 00:26:19.3	267.880	-0.640	0.020	0.510
2020/01/31 00:26:19.4	267.880	-0.630	0.030	0.520
2020/01/31 00:26:19.5	267.880	-0.620	0.030	0.520
2020/01/31 00:26:19.6	267.890	-0.600	0.030	0.530
2020/01/31 00:26:19.7	267.900	-0.590	0.030	0.540
2020/01/31 00:26:19.8	267.900	-0.570	0.030	0.550
2020/01/31 00:26:19.9	267.910	-0.540	0.030	0.570
2020/01/31 00:26:20.0	267.920	-0.520	0.030	0.590
2020/01/31 00:26:20.1	267.930	-0.500	0.030	0.600
2020/01/31 00:26:20.2	267.950	-0.470	0.020	0.620
2020/01/31 00:26:20.3	267.960	-0.440	0.020	0.640
2020/01/31 00:26:20.4	267.970	-0.410	0.010	0.660
2020/01/31 00:26:20.5	267.990	-0.380	0.010	0.680
2020/01/31 00:26:20.6	268.010	-0.350	0.000	0.700
2020/01/31 00:26:20.7	268.020	-0.320	-0.000	0.720
2020/01/31 00:26:20.8	268.040	-0.280	-0.010	0.740
2020/01/31 00:26:20.9	268.080	-0.250	-0.020	0.770
2020/01/31 00:26:21.0	268.100	-0.210	-0.030	0.790
2020/01/31 00:26:21.1	268.130	-0.180	-0.040	0.810
2020/01/31 00:26:21.2	268.150	-0.140	-0.050	0.840
2020/01/31 00:26:21.3	268.180	-0.110	-0.060	0.870
2020/01/31 00:26:21.4	268.210	-0.070	-0.070	0.890
2020/01/31 00:26:21.5	268.250	-0.040	-0.080	0.920
2020/01/31 00:26:21.6	268.280	-0.010	-0.090	0.940
2020/01/31 00:26:21.7	268.310	0.030	-0.100	0.970
2020/01/31 00:26:21.8	268.350	0.060	-0.120	1.000
2020/01/31 00:26:21.9	268.380	0.090	-0.130	1.030
2020/01/31 00:26:22.0	268.420	0.120	-0.140	1.050
2020/01/31 00:26:22.1	268.460	0.150	-0.150	1.080
2020/01/31 00:26:22.2	268.500	0.180	-0.170	1.110
2020/01/31 00:26:22.3	268.540	0.210	-0.180	1.140
2020/01/31 00:26:22.4	268.580	0.240	-0.190	1.160
2020/01/31 00:26:22.5	268.620	0.260	-0.200	1.190
2020/01/31 00:26:22.6	268.660	0.290	-0.220	1.220
2020/01/31 00:26:22.7	268.700	0.310	-0.230	1.250
2020/01/31 00:26:22.8	268.740	0.330	-0.240	1.280
2020/01/31 00:26:22.9	268.780	0.350	-0.250	1.300
2020/01/31 00:26:23.0	268.810	0.370	-0.260	1.330
2020/01/31 00:26:23.1	268.850	0.390	-0.270	1.360
2020/01/31 00:26:23.2	268.880	0.410	-0.280	1.380
2020/01/31 00:26:23.3	268.920	0.420	-0.290	1.410
2020/01/31 00:26:23.4	268.950	0.430	-0.290	1.430
2020/01/31 00:26:23.5	268.980	0.440	-0.300	1.460
2020/01/31 00:26:23.6	269.010	0.450	-0.300	1.480
2020/01/31 00:26:23.7	269.040	0.460	-0.300	1.500
2020/01/31 00:26:23.8	269.070	0.460	-0.310	1.510
2020/01/31 00:26:23.9	269.090	0.470	-0.310	1.520
2020/01/31 00:26:24.0	269.120	0.470	-0.310	1.540
2020/01/31 00:26:24.1	269.140	0.470	-0.310	1.550
2020/01/31 00:26:24.2	269.160	0.470	-0.310	1.560
2020/01/31 00:26:24.3	269.180	0.470	-0.300	1.560
2020/01/31 00:26:24.4	269.200	0.460	-0.300	1.560
2020/01/31 00:26:24.5	269.220	0.460	-0.300	1.560
2020/01/31 00:26:24.6	269.240	0.450	-0.300	1.560
2020/01/31 00:26:24.7	269.250	0.440	-0.290	1.560
2020/01/31 00:26:24.8	269.270	0.430	-0.290	1.550
2020/01/31 00:26:24.9	269.270	0.420	-0.290	1.550
2020/01/31 00:26:25.0	269.290	0.410	-0.290	1.530
2020/01/31 00:26:25.1	269.300	0.400	-0.280	1.520
2020/01/31 00:26:25.2	269.310	0.380	-0.280	1.500
2020/01/31 00:26:25.3	269.310	0.370	-0.280	1.480
2020/01/31 00:26:25.4	269.320	0.360	-0.280	1.460
2020/01/31 00:26:25.5	269.330	0.340	-0.280	1.430
2020/01/31 00:26:25.6	269.330	0.330	-0.290	1.400
2020/01/31 00:26:25.7	269.330	0.310	-0.290	1.370
2020/01/31 00:26:25.8	269.340	0.300	-0.300	1.340
2020/01/31 00:26:25.9	269.340	0.280	-0.300	1.310
2020/01/31 00:26:26.0	269.340	0.270	-0.310	1.270
2020/01/31 00:26:26.1	269.340	0.250	-0.320	1.240
2020/01/31 00:26:26.2	269.340	0.240	-0.330	1.200
2020/01/31 00:26:26.3	269.330	0.220	-0.350	1.160
2020/01/31 00:26:26.4	269.330	0.210	-0.360	1.130
2020/01/31 00:26:26.5	269.330	0.200	-0.380	1.090
2020/01/31 00:26:26.6	269.320	0.180	-0.400	1.050
2020/01/31 00:26:26.7	269.310	0.170	-0.420	1.010
2020/01/31 00:26:26.8	269.310	0.160	-0.440	0.970
2020/01/31 00:26:26.9	269.310	0.150	-0.470	0.930
2020/01/31 00:26:27.0	269.300	0.140	-0.500	0.890
2020/01/31 00:26:27.1	269.290	0.130	-0.520	0.860
2020/01/31 00:26:27.2	269.270	0.120	-0.550	0.820
2020/01/31 00:26:27.3	269.260	0.110	-0.580	0.780
2020/01/31 00:26:27.4	269.240	0.110	-0.600	0.750
2020/01/31 00:26:27.5	269.220	0.100	-0.630	0.710
2020/01/31 00:26:27.6	269.200	0.090	-0.660	0.680
2020/01/31 00:26:27.7	269.180	0.090	-0.690	0.650
2020/01/31 00:26:27.8	269.160	0.080	-0.710	0.630
2020/01/31 00:26:27.9	269.150	0.080	-0.740	0.600
2020/01/31 00:26:28.0	269.120	0.070	-0.770	0.580
2020/01/31 00:26:28.1	269.100	0.070	-0.790	0.560
2020/01/31 00:26:28.2	269.070	0.060	-0.810	0.540
2020/01/31 00:26:28.3	269.040	0.060	-0.830	0.530
2020/01/31 00:26:28.4	269.010	0.050	-0.850	0.510
2020/01/31 00:26:28.5	268.980	0.050	-0.860	0.510
2020/01/31 00:26:28.6	268.950	0.050	-0.870	0.500
2020/01/31 00:26:28.7	268.920	0.040	-0.880	0.500
2020/01/31 00:26:28.8	268.880	0.030	-0.890	0.510
2020/01/31 00:26:28.9	268.840	0.030	-0.890	0.510
2020/01/31 00:26:29.0	268.800	0.020	-0.900	0.520
2020/01/31 00:26:29.1	268.770	0.020	-0.900	0.530
2020/01/31 00:26:29.2	268.730	0.010	-0.890	0.550
2020/01/31 00:26:29.3	268.690	0.000	-0.890	0.570
2020/01/31 00:26:29.4	268.660	-0.010	-0.880	0.590
2020/01/31 00:26:29.5	268.620	-0.010	-0.870	0.610
2020/01/31 00:26:29.6	268.580	-0.020	-0.860	0.640
2020/01/31 00:26:29.7	268.550	-0.030	-0.840	0.670
2020/01/31 00:26:29.8	268.510	-0.040	-0.820	0.700
2020/01/31 00:26:29.9	268.480	-0.050	-0.800	0.730
2020/01/31 00:26:30.0	268.440	-0.060	-0.780	0.760
2020/01/31 00:26:30.1	268.410	-0.070	-0.750	0.790
2020/01/31 00:26:30.2	268.380	-0.080	-0.730	0.810
2020/01/31 00:26:30.3	268.340	-0.080	-0.700	0.840
2020/01/31 00:26:30.4	268.310	-0.090	-0.670	0.870
2020/01/31 00:26:30.5	268.290	-0.100	-0.630	0.890
2020/01/31 00:26:30.6	268.260	-0.110	-0.600	0.920
2020/01/31 00:26:30.7	268.230	-0.120	-0.570	0.940
2020/01/31 00:26:30.8	268.210	-0.130	-0.530	0.960
2020/01/31 00:26:30.9	268.200	-0.140	-0.490	0.980
2020/01/31 00:26:31.0	268.170	-0.150	-0.450	1.000
2020/01/31 00:26:31.1	268.160	-0.160	-0.410	1.020
2020/01/31 00:26:31.2	268.140	-0.170	-0.370	1.030
2020/01/31 00:26:31.3	268.120	-0.170	-0.330	1.040
2020/01/31 00:26:31.4	268.110	-0.180	-0.300	1.050
2020/01/31 00:26:31.5	268.100	-0.190	-0.260	1.060
2020/01/31 00:26:31.6	268.090	-0.190	-0.220	1.060
2020/01/31 00:26:31.7	268.080	-0.200	-0.180	1.070
2020/01/31 00:26:31.8	268.070	-0.200	-0.140	1.070
2020/01/31 00:26:31.9	268.070	-0.210	-0.110	1.070
2020/01/31 00:26:32.0	268.070	-0.210	-0.070	1.060
2020/01/31 00:26:32.1	268.070	-0.210	-0.040	1.050
2020/01/31 00:26:32.2	268.080	-0.220	-0.010	1.040
2020/01/31 00:26:32.3	268.090	-0.220	0.020	1.030
2020/01/31 00:26:32.4	268.090	-0.220	0.050	1.010
2020/01/31 00:26:32.5	268.110	-0.220	0.080	0.990
2020/01/31 00:26:32.6	268.120	-0.220	0.110	0.970
2020/01/31 00:26:32.7	268.130	-0.220	0.130	0.950
2020/01/31 00:26:32.8	268.150	-0.220	0.160	0.930
2020/01/31 00:26:32.9	268.170	-0.220	0.180	0.910
2020/01/31 00:26:33.0	268.190	-0.220	0.200	0.880
2020/01/31 00:26:33.1	268.220	-0.210	0.210	0.850
2020/01/31 00:26:33.2	268.240	-0.210	0.230	0.830
2020/01/31 00:26:33.3	268.270	-0.200	0.240	0.800
2020/01/31 00:26:33.4	268.300	-0.200	0.250	0.770
2020/01/31 00:26:33.5	268.330	-0.190	0.260	0.740
2020/01/31 00:26:33.6	268.360	-0.190	0.270	0.710
2020/01/31 00:26:33.7	268.390	-0.180	0.280	0.680
2020/01/31 00:26:33.8	268.430	-0.170	0.280	0.660
2020/01/31 00:26:33.9	268.450	-0.160	0.280	0.630
2020/01/31 00:26:34.0	268.490	-0.150	0.280	0.600
2020/01/31 00:26:34.1	268.530	-0.140	0.280	0.580
2020/01/31 00:26:34.2	268.570	-0.130	0.270	0.550
2020/01/31 00:26:34.3	268.610	-0.120	0.270	0.530
2020/01/31 00:26:34.4	268.650	-0.110	0.260	0.500
2020/01/31 00:26:34.5	268.690	-0.100	0.250	0.480
2020/01/31 00:26:34.6	268.740	-0.090	0.240	0.460
2020/01/31 00:26:34.7	268.780	-0.080	0.230	0.440
2020/01/31 00:26:34.8	268.820	-0.070	0.220	0.420
2020/01/31 00:26:34.9	268.870	-0.060	0.210	0.410
2020/01/31 00:26:35.0	268.910	-0.050	0.190	0.390
2020/01/31 00:26:35.1	268.960	-0.040	0.180	0.380
2020/01/31 00:26:35.2	269.000	-0.030	0.170	0.370
2020/01/31 00:26:35.3	269.040	-0.020	0.150	0.360
2020/01/31 00:26:35.4	269.080	-0.010	0.130	0.350
2020/01/31 00:26:35.5	269.130	0.000	0.120	0.350
2020/01/31 00:26:35.6	269.170	0.010	0.100	0.340
2020/01/31 00:26:35.7	269.210	0.020	0.090	0.340
2020/01/31 00:26:35.8	269.250	0.030	0.070	0.340
2020/01/31 00:26:35.9	269.300	0.040	0.060	0.350
2020/01/31 00:26:36.0	269.330	0.050	0.040	0.350
2020/01/31 00:26:36.1	269.370	0.050	0.020	0.360
2020/01/31 00:26:36.2	269.400	0.060	0.010	0.360
2020/01/31 00:26:36.3	269.440	0.070	-0.010	0.370
2020/01/31 00:26:36.4	269.470	0.070	-0.030	0.380
2020/01/31 00:26:36.5	269.500	0.080	-0.040	0.390
2020/01/31 00:26:36.6	269.530	0.080	-0.060	0.410
2020/01/31 00:26:36.7	269.550	0.090	-0.080	0.420
2020/01/31 00:26:36.8	269.580	0.090	-0.100	0.440
2020/01/31 00:26:36.9	269.570	0.090	-0.120	0.460
2020/01/31 00:26:37.0	269.590	0.090	-0.130	0.480
2020/01/31 00:26:37.1	269.610	0.090	-0.150	0.500
2020/01/31 00:26:37.2	269.630	0.090	-0.170	0.520
2020/01/31 00:26:37.3	269.650	0.090	-0.190	0.550
2020/01/31 00:26:37.4	269.660	0.090	-0.200	0.580
2020/01/31 00:26:37.5	269.670	0.090	-0.220	0.600
2020/01/31 00:26:37.6	269.680	0.090	-0.230	0.630
2020/01/31 00:26:37.7	269.690	0.080	-0.250	0.660
2020/01/31 00:26:37.8	269.700	0.080	-0.270	0.680
2020/01/31 00:26:37.9	269.710	0.070	-0.280	0.710
2020/01/31 00:26:38.0	269.710	0.070	-0.300	0.730
2020/01/31 00:26:38.1	269.710	0.060	-0.310	0.760
2020/01/31 00:26:38.2	269.710	0.060	-0.330	0.790
2020/01/31 00:26:38.3	269.710	0.050	-0.340	0.810
2020/01/31 00:26:38.4	269.710	0.050	-0.360	0.840
2020/01/31 00:26:38.5	269.710	0.040	-0.370	0.860
2020/01/31 00:26:38.6	269.700	0.030	-0.380	0.890
2020/01/31 00:26:38.7	269.700	0.030	-0.400	0.910
2020/01/31 00:26:38.8	269.690	0.020	-0.410	0.930
2020/01/31 00:26:38.9	269.690	0.010	-0.430	0.960
2020/01/31 00:26:39.0	269.680	0.000	-0.440	0.980
2020/01/31 00:26:39.1	269.670	-0.000	-0.460	1.000
2020/01/31 00:26:39.2	269.650	-0.010	-0.470	1.020
2020/01/31 00:26:39.3	269.640	-0.010	-0.490	1.040
2020/01/31 00:26:39.4	269.620	-0.020	-0.500	1.060
2020/01/31 00:26:39.5	269.610	-0.020	-0.520	1.080
2020/01/31 00:26:39.6	269.590	-0.030	-0.540	1.100
2020/01/31 00:26:39.7	269.570	-0.030	-0.550	1.120
2020/01/31 00:26:39.8	269.550	-0.040	-0.570	1.130
2020/01/31 00:26:39.9	269.540	-0.040	-0.590	1.140
2020/01/31 00:26:40.0	269.510	-0.040	-0.600	1.160
2020/01/31 00:26:40.1	269.490	-0.040	-0.620	1.170
2020/01/31 00:26:40.2	269.470	-0.040	-0.640	1.190
2020/01/31 00:26:40.3	269.440	-0.050	-0.660	1.200
2020/01/31 00:26:40.4	269.420	-0.050	-0.680	1.210
2020/01/31 00:26:40.5	269.400	-0.050	-0.690	1.220
2020/01/31 00:26:40.6	269.370	-0.040	-0.710	1.230
2020/01/31 00:26:40.7	269.340	-0.040	-0.730	1.240
2020/01/31 00:26:40.8	269.320	-0.040	-0.740	1.250
2020/01/31 00:26:40.9	269.290	-0.040	-0.760	1.260
2020/01/31 00:26:41.0	269.270	-0.040	-0.770	1.260
2020/01/31 00:26:41.1	269.240	-0.040	-0.790	1.270
2020/01/31 00:26:41.2	269.220	-0.030	-0.800	1.270
2020/01/31 00:26:41.3	269.190	-0.030	-0.810	1.270
2020/01/31 00:26:41.4	269.160	-0.030	-0.820	1.270
2020/01/31 00:26:41.5	269.140	-0.020	-0.830	1.260
2020/01/31 00:26:41.6	269.110	-0.020	-0.830	1.260
2020/01/31 00:26:41.7	269.090	-0.020	-0.840	1.250
2020/01/31 00:26:41.8	269.060	-0.010	-0.840	1.240
2020/01/31 00:26:41.9	269.030	-0.010	-0.840	1.230
2020/01/31 00:26:42.0	269.000	-0.010	-0.840	1.220
2020/01/31 00:26:42.1	268.980	-0.010	-0.840	1.210
2020/01/31 00:26:42.2	268.950	-0.010	-0.830	1.200
2020/01/31 00:26:42.3	268.930	-0.010	-0.830	1.190
2020/01/31 00:26:42.4	268.900	-0.010	-0.820	1.170
2020/01/31 00:26:42.5	268.880	-0.000	-0.810	1.160
2020/01/31 00:26:42.6	268.850	-0.010	-0.800	1.150
2020/01/31 00:26:42.7	268.830	-0.010	-0.790	1.130
2020/01/31 00:26:42.8	268.800	-0.010	-0.770	1.120
2020/01/31 00:26:42.9	268.790	-0.010	-0.750	1.100
2020/01/31 00:26:43.0	268.770	-0.010	-0.730	1.090
2020/01/31 00:26:43.1	268.740	-0.010	-0.710	1.070
2020/01/31 00:26:43.2	268.720	-0.020	-0.690	1.060
2020/01/31 00:26:43.3	268.690	-0.020	-0.670	1.040
2020/01/31 00:26:43.4	268.670	-0.020	-0.650	1.030
2020/01/31 00:26:43.5	268.650	-0.030	-0.630	1.020
2020/01/31 00:26:43.6	268.620	-0.030	-0.610	1.000
2020/01/31 00:26:43.7	268.600	-0.030	-0.580	0.990
2020/01/31 00:26:43.8	268.580	-0.040	-0.560	0.980
2020/01/31 00:26:43.9	268.560	-0.040	-0.540	0.960
2020/01/31 00:26:44.0	268.540	-0.040	-0.520	0.950
2020/01/31 00:26:44.1	268.520	-0.040	-0.490	0.940
2020/01/31 00:26:44.2	268.500	-0.050	-0.470	0.930
2020/01/31 00:26:44.3	268.480	-0.050	-0.450	0.920
2020/01/31 00:26:44.4	268.470	-0.050	-0.430	0.900
2020/01/31 00:26:44.5	268.450	-0.050	-0.410	0.890
2020/01/31 00:26:44.6	268.440	-0.050	-0.390	0.880
2020/01/31 00:26:44.7	268.430	-0.060	-0.370	0.870
2020/01/31 00:26:44.8	268.420	-0.060	-0.350	0.860
2020/01/31 00:26:44.9	268.410	-0.060	-0.340	0.850
2020/01/31 00:26:45.0	268.410	-0.060	-0.320	0.840
2020/01/31 00:26:45.1	268.400	-0.050	-0.300	0.820
2020/01/31 00:26:45.2	268.400	-0.050	-0.290	0.810
2020/01/31 00:26:45.3	268.400	-0.050	-0.270	0.790
2020/01/31 00:26:45.4	268.410	-0.050	-0.250	0.780
2020/01/31 00:26:45.5	268.420	-0.050	-0.230	0.760
2020/01/31 00:26:45.6	268.430	-0.050	-0.220	0.740
2020/01/31 00:26:45.7	268.440	-0.050	-0.200	0.720
2020/01/31 00:26:45.8	268.450	-0.040	-0.180	0.700
2020/01/31 00:26:45.9	268.460	-0.040	-0.160	0.680
2020/01/31 00:26:46.0	268.480	-0.040	-0.140	0.660
2020/01/31 00:26:46.1	268.500	-0.040	-0.130	0.640
2020/01/31 00:26:46.2	268.520	-0.040	-0.110	0.620
2020/01/31 00:26:46.3	268.550	-0.040	-0.090	0.590
2020/01/31 00:26:46.4	268.570	-0.040	-0.070	0.570
2020/01/31 00:26:46.5	268.600	-0.040	-0.050	0.550
2020/01/31 00:26:46.6	268.630	-0.040	-0.040	0.530
2020/01/31 00:26:46.7	268.650	-0.040	-0.020	0.510
2020/01/31 00:26:46.8	268.680	-0.040	-0.000	0.490
2020/01/31 00:26:46.9	268.710	-0.040	0.010	0.470
2020/01/31 00:26:47.0	268.740	-0.040	0.030	0.450
2020/01/31 00:26:47.1	268.770	-0.040	0.040	0.440
2020/01/31 00:26:47.2	268.800	-0.040	0.060	0.420
2020/01/31 00:26:47.3	268.830	-0.050	0.080	0.410
2020/01/31 00:26:47.4	268.860	-0.050	0.090	0.400
2020/01/31 00:26:47.5	268.890	-0.050	0.110	0.390
2020/01/31 00:26:47.6	268.920	-0.060	0.120	0.390
2020/01/31 00:26:47.7	268.950	-0.060	0.140	0.390
2020/01/31 00:26:47.8	268.980	-0.070	0.150	0.390
2020/01/31 00:26:47.9	269.010	-0.070	0.160	0.390
2020/01/31 00:26:48.0	269.040	-0.080	0.180	0.390
2020/01/31 00:26:48.1	269.070	-0.090	0.190	0.400
2020/01/31 00:26:48.2	269.100	-0.090	0.210	0.400
2020/01/31 00:26:48.3	269.130	-0.100	0.220	0.410
2020/01/31 00:26:48.4	269.150	-0.110	0.230	0.420
2020/01/31 00:26:48.5	269.180	-0.110	0.240	0.430
2020/01/31 00:26:48.6	269.210	-0.120	0.250	0.440
2020/01/31 00:26:48.7	269.240	-0.130	0.260	0.460
2020/01/31 00:26:48.8	269.270	-0.140	0.270	0.470
2020/01/31 00:26:48.9	269.310	-0.140	0.270	0.490
2020/01/31 00:26:49.0	269.340	-0.150	0.280	0.510
2020/01/31 00:26:49.1	269.370	-0.150	0.290	0.530
2020/01/31 00:26:49.2	269.400	-0.160	0.290	0.550
2020/01/31 00:26:49.3	269.420	-0.160	0.290	0.570
2020/01/31 00:26:49.4	269.450	-0.160	0.290	0.590
2020/01/31 00:26:49.5	269.480	-0.160	0.290	0.610
2020/01/31 00:26:49.6	269.510	-0.160	0.290	0.640
2020/01/31 00:26:49.7	269.530	-0.160	0.280	0.660
2020/01/31 00:26:49.8	269.560	-0.160	0.270	0.690
2020/01/31 00:26:49.9	269.580	-0.160	0.260	0.720
2020/01/31 00:26:50.0	269.610	-0.150	0.250	0.740
2020/01/31 00:26:50.1	269.630	-0.140	0.240	0.770
2020/01/31 00:26:50.2	269.660	-0.140	0.220	0.790
2020/01/31 00:26:50.3	269.680	-0.130	0.210	0.810
2020/01/31 00:26:50.4	269.700	-0.110	0.190	0.830
2020/01/31 00:26:50.5	269.720	-0.100	0.170	0.850
2020/01/31 00:26:50.6	269.740	-0.090	0.150	0.870
2020/01/31 00:26:50.7	269.760	-0.070	0.130	0.890
2020/01/31 00:26:50.8	269.780	-0.060	0.100	0.910
2020/01/31 00:26:50.9	269.800	-0.040	0.080	0.920
2020/01/31 00:26:51.0	269.810	-0.030	0.050	0.930
2020/01/31 00:26:51.1	269.830	-0.010	0.020	0.940
2020/01/31 00:26:51.2	269.840	0.010	-0.010	0.960
2020/01/31 00:26:51.3	269.850	0.030	-0.040	0.970
2020/01/31 00:26:51.4	269.870	0.050	-0.070	0.980
2020/01/31 00:26:51.5	269.870	0.070	-0.110	0.990
2020/01/31 00:26:51.6	269.880	0.090	-0.140	1.000
2020/01/31 00:26:51.7	269.890	0.110	-0.170	1.010
2020/01/31 00:26:51.8	269.890	0.130	-0.210	1.010
2020/01/31 00:26:51.9	269.880	0.150	-0.250	1.030
2020/01/31 00:26:52.0	269.880	0.170	-0.280	1.040
2020/01/31 00:26:52.1	269.880	0.180	-0.310	1.040
2020/01/31 00:26:52.2	269.880	0.200	-0.340	1.050
2020/01/31 00:26:52.3	269.880	0.220	-0.380	1.050
2020/01/31 00:26:52.4	269.870	0.230	-0.410	1.050
2020/01/31 00:26:52.5	269.870	0.250	-0.430	1.060
2020/01/31 00:26:52.6	269.870	0.260	-0.460	1.060
2020/01/31 00:26:52.7	269.860	0.270	-0.490	1.060
2020/01/31 00:26:52.8	269.850	0.280	-0.510	1.050
2020/01/31 00:26:52.9	269.850	0.290	-0.530	1.050
2020/01/31 00:26:53.0	269.840	0.300	-0.550	1.040
2020/01/31 00:26:53.1	269.840	0.300	-0.570	1.040
2020/01/31 00:26:53.2	269.830	0.310	-0.590	1.030
2020/01/31 00:26:53.3	269.820	0.310	-0.600	1.020
2020/01/31 00:26:53.4	269.810	0.310	-0.610	1.010
2020/01/31 00:26:53.5	269.810	0.310	-0.620	0.990
2020/01/31 00:26:53.6	269.800	0.310	-0.630	0.980
2020/01/31 00:26:53.7	269.790	0.310	-0.630	0.960
2020/01/31 00:26:53.8	269.780	0.310	-0.630	0.940
2020/01/31 00:26:53.9	269.770	0.300	-0.630	0.930
2020/01/31 00:26:54.0	269.760	0.300	-0.640	0.910
2020/01/31 00:26:54.1	269.750	0.290	-0.640	0.890
2020/01/31 00:26:54.2	269.740	0.280	-0.640	0.870
2020/01/31 00:26:54.3	269.730	0.270	-0.630	0.850
2020/01/31 00:26:54.4	269.720	0.260	-0.630	0.830
2020/01/31 00:26:54.5	269.710	0.260	-0.630	0.810
2020/01/31 00:26:54.6	269.700	0.250	-0.630	0.790
2020/01/31 00:26:54.7	269.690	0.240	-0.630	0.770
2020/01/31 00:26:54.8	269.670	0.220	-0.630	0.750
2020/01/31 00:26:54.9	269.660	0.210	-0.630	0.730
2020/01/31 00:26:55.0	269.650	0.200	-0.630	0.720
2020/01/31 00:26:55.1	269.630	0.190	-0.630	0.710
2020/01/31 00:26:55.2	269.610	0.180	-0.640	0.690
2020/01/31 00:26:55.3	269.590	0.170	-0.640	0.680
2020/01/31 00:26:55.4	269.570	0.160	-0.650	0.680
2020/01/31 00:26:55.5	269.550	0.140	-0.650	0.670
2020/01/31 00:26:55.6	269.530	0.130	-0.660	0.660
2020/01/31 00:26:55.7	269.510	0.120	-0.660	0.660
2020/01/31 00:26:55.8	269.480	0.110	-0.670	0.660
2020/01/31 00:26:55.9	269.460	0.100	-0.680	0.660
2020/01/31 00:26:56.0	269.430	0.090	-0.690	0.660
2020/01/31 00:26:56.1	269.410	0.070	-0.700	0.660
2020/01/31 00:26:56.2	269.380	0.060	-0.700	0.670
2020/01/31 00:26:56.3	269.350	0.050	-0.710	0.670
2020/01/31 00:26:56.4	269.330	0.040	-0.720	0.670
2020/01/31 00:26:56.5	269.300	0.020	-0.720	0.680
2020/01/31 00:26:56.6	269.270	0.010	-0.730	0.690
2020/01/31 00:26:56.7	269.250	-0.000	-0.730	0.690
2020/01/31 00:26:56.8	269.220	-0.010	-0.740	0.700
2020/01/31 00:26:56.9	269.200	-0.030	-0.740	0.710
2020/01/31 00:26:57.0	269.170	-0.040	-0.740	0.710
2020/01/31 00:26:57.1	269.150	-0.050	-0.750	0.720
2020/01/31 00:26:57.2	269.130	-0.060	-0.750	0.730
2020/01/31 00:26:57.3	269.110	-0.080	-0.740	0.730
2020/01/31 00:26:57.4	269.090	-0.090	-0.740	0.740
2020/01/31 00:26:57.5	269.070	-0.100	-0.740	0.750
2020/01/31 00:26:57.6	269.050	-0.110	-0.740	0.750
2020/01/31 00:26:57.7	269.030	-0.120	-0.730	0.760
2020/01/31 00:26:57.8	269.010	-0.130	-0.730	0.770
2020/01/31 00:26:57.9	269.000	-0.140	-0.720	0.770
2020/01/31 00:26:58.0	268.990	-0.150	-0.710	0.780
2020/01/31 00:26:58.1	268.970	-0.160	-0.710	0.780
2020/01/31 00:26:58.2	268.960	-0.170	-0.700	0.790
2020/01/31 00:26:58.3	268.950	-0.180	-0.690	0.790
2020/01/31 00:26:58.4	268.940	-0.180	-0.680	0.790
2020/01/31 00:26:58.5	268.930	-0.190	-0.670	0.800
2020/01/31 00:26:58.6	268.920	-0.190	-0.670	0.800
2020/01/31 00:26:58.7	268.910	-0.200	-0.660	0.800
2020/01/31 00:26:58.8	268.900	-0.200	-0.650	0.810
2020/01/31 00:26:58.9	268.890	-0.200	-0.640	0.810
2020/01/31 00:26:59.0	268.880	-0.210	-0.630	0.810
2020/01/31 00:26:59.1	268.880	-0.210	-0.620	0.820
2020/01/31 00:26:59.2	268.870	-0.210	-0.610	0.830
2020/01/31 00:26:59.3	268.860	-0.210	-0.600	0.830
2020/01/31 00:26:59.4	268.860	-0.200	-0.590	0.840
2020/01/31 00:26:59.5	268.850	-0.200	-0.580	0.840
2020/01/31 00:26:59.6	268.850	-0.200	-0.560	0.850
2020/01/31 00:26:59.7	268.850	-0.200	-0.550	0.860
2020/01/31 00:26:59.8	268.850	-0.190	-0.530	0.870
2020/01/31 00:26:59.9	268.840	-0.190	-0.510	0.880
2020/01/31 00:27:00.0	268.840	-0.190	-0.490	0.890
2020/01/31 00:27:00.1	268.850	-0.180	-0.470	0.900
2020/01/31 00:27:00.2	268.850	-0.180	-0.450	0.910
2020/01/31 00:27:00.3	268.850	-0.180	-0.430	0.920
2020/01/31 00:27:00.4	268.850	-0.170	-0.400	0.930
2020/01/31 00:27:00.5	268.850	-0.170	-0.370	0.940
2020/01/31 00:27:00.6	268.860	-0.170	-0.340	0.950
2020/01/31 00:27:00.7	268.860	-0.170	-0.310	0.960
2020/01/31 00:27:00.8	268.870	-0.170	-0.280	0.970
2020/01/31 00:27:00.9	268.880	-0.170	-0.250	0.990
2020/01/31 00:27:01.0	268.880	-0.170	-0.210	1.000
2020/01/31 00:27:01.1	268.890	-0.180	-0.170	1.010
2020/01/31 00:27:01.2	268.890	-0.180	-0.140	1.030
2020/01/31 00:27:01.3	268.900	-0.180	-0.100	1.040
2020/01/31 00:27:01.4	268.910	-0.190	-0.060	1.050
2020/01/31 00:27:01.5	268.920	-0.190	-0.020	1.060
2020/01/31 00:27:01.6	268.920	-0.200	0.020	1.080
2020/01/31 00:27:01.7	268.930	-0.210	0.060	1.090
2020/01/31 00:27:01.8	268.940	-0.220	0.100	1.100
2020/01/31 00:27:01.9	268.940	-0.220	0.140	1.110
2020/01/31 00:27:02.0	268.950	-0.230	0.180	1.120
2020/01/31 00:27:02.1	268.960	-0.240	0.210	1.130
2020/01/31 00:27:02.2	268.980	-0.250	0.250	1.140
2020/01/31 00:27:02.3	268.990	-0.260	0.290	1.150
2020/01/31 00:27:02.4	269.000	-0.270	0.320	1.160
2020/01/31 00:27:02.5	269.010	-0.280	0.350	1.160
2020/01/31 00:27:02.6	269.030	-0.280	0.380	1.170
2020/01/31 00:27:02.7	269.040	-0.290	0.410	1.170
2020/01/31 00:27:02.8	269.050	-0.300	0.440	1.170
2020/01/31 00:27:02.9	269.070	-0.300	0.460	1.170
2020/01/31 00:27:03.0	269.090	-0.310	0.480	1.170
2020/01/31 00:27:03.1	269.100	-0.310	0.500	1.170
2020/01/31 00:27:03.2	269.120	-0.310	0.520	1.170
2020/01/31 00:27:03.3	269.140	-0.320	0.530	1.160
2020/01/31 00:27:03.4	269.160	-0.320	0.550	1.160
2020/01/31 00:27:03.5	269.170	-0.320	0.550	1.150
2020/01/31 00:27:03.6	269.190	-0.310	0.560	1.140
2020/01/31 00:27:03.7	269.210	-0.310	0.560	1.130
2020/01/31 00:27:03.8	269.230	-0.300	0.560	1.120
2020/01/31 00:27:03.9	269.260	-0.290	0.550	1.110
2020/01/31 00:27:04.0	269.280	-0.290	0.540	1.090
2020/01/31 00:27:04.1	269.300	-0.270	0.530	1.080
2020/01/31 00:27:04.2	269.320	-0.260	0.520	1.060
2020/01/31 00:27:04.3	269.340	-0.250	0.510	1.040
2020/01/31 00:27:04.4	269.370	-0.230	0.490	1.010
2020/01/31 00:27:04.5	269.390	-0.210	0.470	0.990
2020/01/31 00:27:04.6	269.410	-0.200	0.450	0.960
2020/01/31 00:27:04.7	269.430	-0.180	0.420	0.930
2020/01/31 00:27:04.8	269.460	-0.150	0.390	0.900
2020/01/31 00:27:04.9	269.470	-0.130	0.360	0.870
2020/01/31 00:27:05.0	269.490	-0.110	0.330	0.840
2020/01/31 00:27:05.1	269.520	-0.080	0.300	0.800
2020/01/31 00:27:05.2	269.540	-0.060	0.270	0.770
2020/01/31 00:27:05.3	269.560	-0.030	0.240	0.740
2020/01/31 00:27:05.4	269.590	-0.000	0.200	0.700
2020/01/31 00:27:05.5	269.610	0.020	0.170	0.670
2020/01/31 00:27:05.6	269.630	0.050	0.130	0.640
2020/01/31 00:27:05.7	269.650	0.080	0.100	0.610
2020/01/31 00:27:05.8	269.680	0.110	0.060	0.580
2020/01/31 00:27:05.9	269.680	0.130	0.020	0.550
2020/01/31 00:27:06.0	269.700	0.160	-0.020	0.520
2020/01/31 00:27:06.1	269.720	0.190	-0.060	0.500
2020/01/31 00:27:06.2	269.740	0.220	-0.090	0.480
2020/01/31 00:27:06.3	269.750	0.240	-0.130	0.460
2020/01/31 00:27:06.4	269.770	0.270	-0.170	0.440
2020/01/31 00:27:06.5	269.780	0.290	-0.210	0.420
2020/01/31 00:27:06.6	269.800	0.310	-0.240	0.410
2020/01/31 00:27:06.7	269.810	0.340	-0.280	0.400
2020/01/31 00:27:06.8	269.810	0.360	-0.310	0.400
2020/01/31 00:27:06.9	269.820	0.380	-0.350	0.400
2020/01/31 00:27:07.0	269.830	0.400	-0.380	0.400
2020/01/31 00:27:07.1	269.830	0.410	-0.410	0.400
2020/01/31 00:27:07.2	269.830	0.430	-0.440	0.410
2020/01/31 00:27:07.3	269.830	0.440	-0.470	0.420
2020/01/31 00:27:07.4	269.830	0.450	-0.500	0.430
2020/01/31 00:27:07.5	269.820	0.460	-0.530	0.440
2020/01/31 00:27:07.6	269.820	0.470	-0.560	0.460
2020/01/31 00:27:07.7	269.810	0.480	-0.580	0.480
2020/01/31 00:27:07.8	269.800	0.480	-0.610	0.510
2020/01/31 00:27:07.9	269.800	0.490	-0.630	0.530
2020/01/31 00:27:08.0	269.780	0.490	-0.650	0.560
2020/01/31 00:27:08.1	269.770	0.490	-0.680	0.590
2020/01/31 00:27:08.2	269.750	0.490	-0.700	0.620
2020/01/31 00:27:08.3	269.740	0.490	-0.710	0.650
2020/01/31 00:27:08.4	269.720	0.480	-0.730	0.690
2020/01/31 00:27:08.5	269.700	0.480	-0.750	0.720
2020/01/31 00:27:08.6	269.670	0.470	-0.760	0.750
2020/01/31 00:27:08.7	269.650	0.460	-0.780	0.780
2020/01/31 00:27:08.8	269.630	0.450	-0.790	0.810
2020/01/31 00:27:08.9	269.600	0.440	-0.810	0.850
2020/01/31 00:27:09.0	269.570	0.430	-0.820	0.880
2020/01/31 00:27:09.1	269.540	0.420	-0.840	0.910
2020/01/31 00:27:09.2	269.520	0.400	-0.850	0.940
2020/01/31 00:27:09.3	269.480	0.390	-0.860	0.970
2020/01/31 00:27:09.4	269.450	0.370	-0.870	1.000
2020/01/31 00:27:09.5	269.420	0.360	-0.880	1.020
2020/01/31 00:27:09.6	269.390	0.340	-0.890	1.050
2020/01/31 00:27:09.7	269.350	0.330	-0.900	1.070
2020/01/31 00:27:09.8	269.320	0.310	-0.910	1.090
2020/01/31 00:27:09.9	269.290	0.300	-0.910	1.100
2020/01/31 00:27:10.0	269.260	0.280	-0.920	1.120
2020/01/31 00:27:10.1	269.220	0.260	-0.920	1.130
2020/01/31 00:27:10.2	269.190	0.250	-0.930	1.150
2020/01/31 00:27:10.3	269.160	0.230	-0.940	1.160
2020/01/31 00:27:10.4	269.130	0.220	-0.940	1.160
2020/01/31 00:27:10.5	269.100	0.200	-0.950	1.170
2020/01/31 00:27:10.6	269.070	0.190	-0.950	1.170
2020/01/31 00:27:10.7	269.040	0.180	-0.950	1.170
2020/01/31 00:27:10.8	269.010	0.160	-0.960	1.170
2020/01/31 00:27:10.9	268.980	0.150	-0.960	1.170
2020/01/31 00:27:11.0	268.960	0.140	-0.970	1.160
2020/01/31 00:27:11.1	268.930	0.130	-0.970	1.160
2020/01/31 00:27:11.2	268.910	0.120	-0.970	1.150
2020/01/31 00:27:11.3	268.890	0.110	-0.970	1.140
2020/01/31 00:27:11.4	268.860	0.100	-0.970	1.130
2020/01/31 00:27:11.5	268.840	0.090	-0.960	1.120
2020/01/31 00:27:11.6	268.820	0.080	-0.960	1.120
2020/01/31 00:27:11.7	268.800	0.070	-0.960	1.110
2020/01/31 00:27:11.8	268.780	0.060	-0.950	1.100
2020/01/31 00:27:11.9	268.760	0.050	-0.950	1.090
2020/01/31 00:27:12.0	268.740	0.040	-0.940	1.080
2020/01/31 00:27:12.1	268.720	0.030	-0.930	1.070
2020/01/31 00:27:12.2	268.700	0.020	-0.920	1.070
2020/01/31 00:27:12.3	268.680	0.010	-0.910	1.060
2020/01/31 00:27:12.4	268.660	0.000	-0.900	1.050
2020/01/31 00:27:12.5	268.640	-0.010	-0.880	1.050
2020/01/31 00:27:12.6	268.630	-0.020	-0.870	1.040
2020/01/31 00:27:12.7	268.610	-0.030	-0.850	1.040
2020/01/31 00:27:12.8	268.590	-0.040	-0.830	1.030
2020/01/31 00:27:12.9	268.570	-0.050	-0.800	1.030
2020/01/31 00:27:13.0	268.560	-0.070	-0.780	1.020
2020/01/31 00:27:13.1	268.540	-0.080	-0.750	1.020
2020/01/31 00:27:13.2	268.530	-0.090	-0.720	1.010
2020/01/31 00:27:13.3	268.520	-0.110	-0.690	1.010
2020/01/31 00:27:13.4	268.500	-0.120	-0.650	1.000
2020/01/31 00:27:13.5	268.490	-0.140	-0.620	0.990
2020/01/31 00:27:13.6	268.490	-0.150	-0.580	0.990
2020/01/31 00:27:13.7	268.480	-0.170	-0.530	0.980
2020/01/31 00:27:13.8	268.470	-0.190	-0.490	0.970
2020/01/31 00:27:13.9	268.480	-0.210	-0.440	0.970
2020/01/31 00:27:14.0	268.470	-0.220	-0.400	0.960
2020/01/31 00:27:14.1	268.470	-0.240	-0.350	0.950
2020/01/31 00:27:14.2	268.470	-0.260	-0.290	0.940
2020/01/31 00:27:14.3	268.470	-0.280	-0.240	0.930
2020/01/31 00:27:14.4	268.480	-0.300	-0.190	0.920
2020/01/31 00:27:14.5	268.480	-0.320	-0.130	0.910
2020/01/31 00:27:14.6	268.490	-0.340	-0.080	0.900
2020/01/31 00:27:14.7	268.500	-0.360	-0.020	0.880
2020/01/31 00:27:14.8	268.510	-0.380	0.040	0.870
2020/01/31 00:27:14.9	268.520	-0.400	0.090	0.850
2020/01/31 00:27:15.0	268.540	-0.420	0.150	0.830
2020/01/31 00:27:15.1	268.550	-0.440	0.200	0.820
2020/01/31 00:27:15.2	268.570	-0.460	0.260	0.800
2020/01/31 00:27:15.3	268.590	-0.480	0.310	0.780
2020/01/31 00:27:15.4	268.620	-0.490	0.370	0.750
2020/01/31 00:27:15.5	268.640	-0.510	0.420	0.730
2020/01/31 00:27:15.6	268.670	-0.530	0.460	0.710
2020/01/31 00:27:15.7	268.700	-0.540	0.510	0.690
2020/01/31 00:27:15.8	268.730	-0.550	0.550	0.660
2020/01/31 00:27:15.9	268.750	-0.570	0.590	0.640
2020/01/31 00:27:16.0	268.790	-0.580	0.630	0.620
2020/01/31 00:27:16.1	268.820	-0.580	0.660	0.590
2020/01/31 00:27:16.2	268.860	-0.590	0.700	0.570
2020/01/31 00:27:16.3	268.900	-0.600	0.720	0.550
2020/01/31 00:27:16.4	268.930	-0.600	0.740	0.530
2020/01/31 00:27:16.5	268.970	-0.600	0.760	0.510
2020/01/31 00:27:16.6	269.010	-0.600	0.780	0.490
2020/01/31 00:27:16.7	269.050	-0.600	0.790	0.480
2020/01/31 00:27:16.8	269.100	-0.590	0.800	0.460
2020/01/31 00:27:16.9	269.150	-0.590	0.800	0.450
2020/01/31 00:27:17.0	269.190	-0.580	0.800	0.440
2020/01/31 00:27:17.1	269.230	-0.560	0.790	0.430
2020/01/31 00:27:17.2	269.270	-0.550	0.780	0.430
2020/01/31 00:27:17.3	269.310	-0.530	0.770	0.420
2020/01/31 00:27:17.4	269.350	-0.520	0.760	0.420
2020/01/31 00:27:17.5	269.390	-0.500	0.740	0.420
2020/01/31 00:27:17.6	269.430	-0.470	0.710	0.420
2020/01/31 00:27:17.7	269.460	-0.450	0.690	0.430
2020/01/31 00:27:17.8	269.500	-0.420	0.660	0.430
2020/01/31 00:27:17.9	269.520	-0.390	0.630	0.440
2020/01/31 00:27:18.0	269.560	-0.360	0.590	0.450
2020/01/31 00:27:18.1	269.580	-0.330	0.560	0.470
2020/01/31 00:27:18.2	269.610	-0.300	0.520	0.480
2020/01/31 00:27:18.3	269.640	-0.270	0.480	0.490
2020/01/31 00:27:18.4	269.660	-0.230	0.430	0.510
2020/01/31 00:27:18.5	269.680	-0.200	0.390	0.520
2020/01/31 00:27:18.6	269.700	-0.160	0.340	0.540
2020/01/31 00:27:18.7	269.720	-0.120	0.290	0.560
2020/01/31 00:27:18.8	269.730	-0.080	0.240	0.570
2020/01/31 00:27:18.9	269.750	-0.040	0.180	0.590
2020/01/31 00:27:19.0	269.760	-0.000	0.130	0.610
2020/01/31 00:27:19.1	269.770	0.030	0.080	0.630
2020/01/31 00:27:19.2	269.780	0.070	0.030	0.650
2020/01/31 00:27:19.3	269.790	0.110	-0.030	0.670
2020/01/31 00:27:19.4	269.800	0.150	-0.080	0.690
2020/01/31 00:27:19.5	269.800	0.190	-0.140	0.710
2020/01/31 00:27:19.6	269.810	0.220	-0.190	0.730
2020/01/31 00:27:19.7	269.810	0.260	-0.240	0.740
2020/01/31 00:27:19.8	269.810	0.300	-0.300	0.760
2020/01/31 00:27:19.9	269.830	0.330	-0.350	0.770
2020/01/31 00:27:20.0	269.830	0.360	-0.400	0.790
2020/01/31 00:27:20.1	269.830	0.390	-0.450	0.800
2020/01/31 00:27:20.2	269.830	0.420	-0.500	0.810
2020/01/31 00:27:20.3	269.830	0.450	-0.550	0.820
2020/01/31 00:27:20.4	269.830	0.470	-0.590	0.830
2020/01/31 00:27:20.5	269.830	0.500	-0.640	0.840
2020/01/31 00:27:20.6	269.830	0.520	-0.680	0.850
2020/01/31 00:27:20.7	269.830	0.540	-0.720	0.860
2020/01/31 00:27:20.8	269.830	0.550	-0.760	0.860
2020/01/31 00:27:20.9	269.830	0.570	-0.810	0.870
2020/01/31 00:27:21.0	269.830	0.580	-0.840	0.870
2020/01/31 00:27:21.1	269.830	0.590	-0.870	0.870
2020/01/31 00:27:21.2	269.830	0.590	-0.910	0.870
2020/01/31 00:27:21.3	269.830	0.600	-0.930	0.870
2020/01/31 00:27:21.4	269.830	0.600	-0.960	0.870
2020/01/31 00:27:21.5	269.830	0.600	-0.990	0.870
2020/01/31 00:27:21.6	269.830	0.600	-1.010	0.860
2020/01/31 00:27:21.7	269.830	0.590	-1.030	0.860
2020/01/31 00:27:21.8	269.830	0.580	-1.050	0.850
2020/01/31 00:27:21.9	269.820	0.570	-1.060	0.840
2020/01/31 00:27:22.0	269.820	0.560	-1.070	0.830
2020/01/31 00:27:22.1	269.820	0.550	-1.080	0.830
2020/01/31 00:27:22.2	269.820	0.530	-1.100	0.820
2020/01/31 00:27:22.3	269.820	0.520	-1.100	0.810
2020/01/31 00:27:22.4	269.820	0.500	-1.110	0.800
2020/01/31 00:27:22.5	269.820	0.480	-1.110	0.790
2020/01/31 00:27:22.6	269.810	0.460	-1.120	0.780
2020/01/31 00:27:22.7	269.800	0.430	-1.120	0.770
2020/01/31 00:27:22.8	269.800	0.410	-1.120	0.770
2020/01/31 00:27:22.9	269.790	0.390	-1.120	0.760
2020/01/31 00:27:23.0	269.770	0.360	-1.110	0.750
2020/01/31 00:27:23.1	269.760	0.340	-1.110	0.750
2020/01/31 00:27:23.2	269.740	0.310	-1.100	0.740
2020/01/31 00:27:23.3	269.720	0.290	-1.100	0.740
2020/01/31 00:27:23.4	269.700	0.260	-1.090	0.740
2020/01/31 00:27:23.5	269.680	0.240	-1.080	0.740
2020/01/31 00:27:23.6	269.650	0.210	-1.070	0.740
2020/01/31 00:27:23.7	269.620	0.190	-1.050	0.740
2020/01/31 00:27:23.8	269.590	0.170	-1.040	0.740
2020/01/31 00:27:23.9	269.560	0.140	-1.020	0.740
2020/01/31 00:27:24.0	269.520	0.120	-1.000	0.750
2020/01/31 00:27:24.1	269.480	0.100	-0.980	0.750
2020/01/31 00:27:24.2	269.440	0.080	-0.960	0.750
2020/01/31 00:27:24.3	269.400	0.050	-0.930	0.760
2020/01/31 00:27:24.4	269.360	0.030	-0.900	0.760
2020/01/31 00:27:24.5	269.310	0.010	-0.870	0.760
2020/01/31 00:27:24.6	269.270	-0.010	-0.840	0.770
2020/01/31 00:27:24.7	269.220	-0.030	-0.800	0.770
2020/01/31 00:27:24.8	269.180	-0.050	-0.760	0.770
2020/01/31 00:27:24.9	269.130	-0.070	-0.720	0.770
2020/01/31 00:27:25.0	269.080	-0.090	-0.680	0.780
2020/01/31 00:27:25.1	269.040	-0.110	-0.640	0.780
2020/01/31 00:27:25.2	268.990	-0.130	-0.590	0.780
2020/01/31 00:27:25.3	268.950	-0.150	-0.550	0.780
2020/01/31 00:27:25.4	268.900	-0.170	-0.500	0.780
2020/01/31 00:27:25.5	268.860	-0.180	-0.450	0.780
2020/01/31 00:27:25.6	268.820	-0.200	-0.400	0.780
2020/01/31 00:27:25.7	268.780	-0.220	-0.360	0.780
2020/01/31 00:27:25.8	268.740	-0.240	-0.310	0.780
2020/01/31 00:27:25.9	268.700	-0.250	-0.260	0.770
2020/01/31 00:27:26.0	268.660	-0.270	-0.210	0.770
2020/01/31 00:27:26.1	268.620	-0.290	-0.170	0.780
2020/01/31 00:27:26.2	268.590	-0.300	-0.120	0.780
2020/01/31 00:27:26.3	268.560	-0.320	-0.080	0.780
2020/01/31 00:27:26.4	268.530	-0.330	-0.040	0.780
2020/01/31 00:27:26.5	268.500	-0.340	0.000	0.780
2020/01/31 00:27:26.6	268.470	-0.350	0.040	0.790
2020/01/31 00:27:26.7	268.440	-0.360	0.070	0.790
2020/01/31 00:27:26.8	268.420	-0.370	0.110	0.800
2020/01/31 00:27:26.9	268.400	-0.380	0.140	0.800
2020/01/31 00:27:27.0	268.380	-0.390	0.170	0.800
2020/01/31 00:27:27.1	268.360	-0.400	0.190	0.810
2020/01/31 00:27:27.2	268.340	-0.400	0.220	0.810
2020/01/31 00:27:27.3	268.330	-0.400	0.240	0.820
2020/01/31 00:27:27.4	268.310	-0.410	0.260	0.820
2020/01/31 00:27:27.5	268.300	-0.410	0.270	0.820
2020/01/31 00:27:27.6	268.290	-0.400	0.290	0.830
2020/01/31 00:27:27.7	268.280	-0.400	0.300	0.830
2020/01/31 00:27:27.8	268.270	-0.400	0.310	0.830
2020/01/31 00:27:27.9	268.260	-0.390	0.320	0.830
2020/01/31 00:27:28.0	268.260	-0.380	0.320	0.830
2020/01/31 00:27:28.1	268.260	-0.370	0.320	0.830
2020/01/31 00:27:28.2	268.260	-0.360	0.330	0.830
2020/01/31 00:27:28.3	268.260	-0.350	0.330	0.830
2020/01/31 00:27:28.4	268.270	-0.330	0.320	0.830
2020/01/31 00:27:28.5	268.270	-0.320	0.320	0.830
2020/01/31 00:27:28.6	268.280	-0.300	0.310	0.830
2020/01/31 00:27:28.7	268.290	-0.280	0.300	0.820
2020/01/31 00:27:28.8	268.300	-0.260	0.290	0.820
2020/01/31 00:27:28.9	268.320	-0.240	0.280	0.820
2020/01/31 00:27:29.0	268.330	-0.220	0.270	0.810
2020/01/31 00:27:29.1	268.350	-0.200	0.250	0.810
2020/01/31 00:27:29.2	268.360	-0.170	0.240	0.810
2020/01/31 00:27:29.3	268.380	-0.150	0.220	0.800
2020/01/31 00:27:29.4	268.400	-0.120	0.210	0.800
2020/01/31 00:27:29.5	268.410	-0.100	0.190	0.800
2020/01/31 00:27:29.6	268.430	-0.070	0.170	0.790
2020/01/31 00:27:29.7	268.450	-0.050	0.150	0.790
2020/01/31 00:27:29.8	268.480	-0.020	0.140	0.790
2020/01/31 00:27:29.9	268.490	0.000	0.120	0.790
2020/01/31 00:27:30.0	268.510	0.030	0.100	0.780
2020/01/31 00:27:30.1	268.540	0.050	0.080	0.780
2020/01/31 00:27:30.2	268.560	0.080	0.060	0.780
2020/01/31 00:27:30.3	268.580	0.100	0.040	0.780
2020/01/31 00:27:30.4	268.600	0.130	0.010	0.780
2020/01/31 00:27:30.5	268.630	0.150	-0.010	0.780
2020/01/31 00:27:30.6	268.650	0.170	-0.030	0.780
2020/01/31 00:27:30.7	268.670	0.190	-0.050	0.780
2020/01/31 00:27:30.8	268.690	0.210	-0.070	0.780
2020/01/31 00:27:30.9	268.720	0.230	-0.090	0.780
2020/01/31 00:27:31.0	268.740	0.250	-0.120	0.780
2020/01/31 00:27:31.1	268.760	0.270	-0.140	0.790
2020/01/31 00:27:31.2	268.790	0.290	-0.160	0.790
2020/01/31 00:27:31.3	268.810	0.300	-0.180	0.790
2020/01/31 00:27:31.4	268.830	0.310	-0.200	0.790
2020/01/31 00:27:31.5	268.850	0.320	-0.220	0.790
2020/01/31 00:27:31.6	268.870	0.330	-0.240	0.790
2020/01/31 00:27:31.7	268.890	0.340	-0.250	0.790
2020/01/31 00:27:31.8	268.920	0.350	-0.270	0.780
2020/01/31 00:27:31.9	268.940	0.350	-0.290	0.780
2020/01/31 00:27:32.0	268.960	0.350	-0.300	0.780
2020/01/31 00:27:32.1	268.980	0.350	-0.320	0.770
2020/01/31 00:27:32.2	269.000	0.350	-0.330	0.760
2020/01/31 00:27:32.3	269.020	0.350	-0.340	0.750
2020/01/31 00:27:32.4	269.040	0.340	-0.350	0.740
2020/01/31 00:27:32.5	269.060	0.340	-0.360	0.730
2020/01/31 00:27:32.6	269.080	0.330	-0.370	0.710
2020/01/31 00:27:32.7	269.100	0.320	-0.380	0.700
2020/01/31 00:27:32.8	269.120	0.310	-0.380	0.680
2020/01/31 00:27:32.9	269.130	0.300	-0.390	0.660
2020/01/31 00:27:33.0	269.150	0.280	-0.390	0.630
2020/01/31 00:27:33.1	269.170	0.270	-0.390	0.610
2020/01/31 00:27:33.2	269.190	0.250	-0.390	0.590
2020/01/31 00:27:33.3	269.210	0.240	-0.390	0.560
2020/01/31 00:27:33.4	269.230	0.220	-0.390	0.540
2020/01/31 00:27:33.5	269.250	0.200	-0.390	0.510
2020/01/31 00:27:33.6	269.270	0.180	-0.390	0.480
2020/01/31 00:27:33.7	269.290	0.170	-0.380	0.460
2020/01/31 00:27:33.8	269.300	0.150	-0.380	0.430
2020/01/31 00:27:33.9	269.320	0.130	-0.380	0.410
2020/01/31 00:27:34.0	269.340	0.110	-0.370	0.380
2020/01/31 00:27:34.1	269.350	0.090	-0.370	0.360
2020/01/31 00:27:34.2	269.360	0.070	-0.370	0.340
2020/01/31 00:27:34.3	269.380	0.050	-0.370	0.320
2020/01/31 00:27:34.4	269.390	0.030	-0.370	0.300
2020/01/31 00:27:34.5	269.400	0.020	-0.370	0.280
2020/01/31 00:27:34.6	269.410	-0.000	-0.370	0.270
2020/01/31 00:27:34.7	269.420	-0.020	-0.370	0.250
2020/01/31 00:27:34.8	269.430	-0.030	-0.370	0.240
2020/01/31 00:27:34.9	269.430	-0.050	-0.370	0.240
2020/01/31 00:27:35.0	269.440	-0.060	-0.380	0.230
2020/01/31 00:27:35.1	269.440	-0.070	-0.380	0.230
2020/01/31 00:27:35.2	269.450	-0.090	-0.390	0.220
2020/01/31 00:27:35.3	269.450	-0.100	-0.400	0.230
2020/01/31 00:27:35.4	269.450	-0.110	-0.410	0.230
2020/01/31 00:27:35.5	269.450	-0.120	-0.420	0.240
2020/01/31 00:27:35.6	269.450	-0.120	-0.430	0.250
2020/01/31 00:27:35.7	269.440	-0.130	-0.440	0.260
2020/01/31 00:27:35.8	269.440	-0.140	-0.460	0.270
2020/01/31 00:27:35.9	269.430	-0.140	-0.470	0.290
2020/01/31 00:27:36.0	269.420	-0.140	-0.480	0.310
2020/01/31 00:27:36.1	269.410	-0.150	-0.500	0.330
2020/01/31 00:27:36.2	269.400	-0.150	-0.510	0.360
2020/01/31 00:27:36.3	269.380	-0.150	-0.530	0.390
2020/01/31 00:27:36.4	269.360	-0.150	-0.540	0.420
2020/01/31 00:27:36.5	269.340	-0.150	-0.550	0.450
2020/01/31 00:27:36.6	269.320	-0.140	-0.560	0.480
2020/01/31 00:27:36.7	269.300	-0.140	-0.570	0.520
2020/01/31 00:27:36.8	269.270	-0.140	-0.580	0.550
2020/01/31 00:27:36.9	269.240	-0.130	-0.590	0.590
2020/01/31 00:27:37.0	269.210	-0.130	-0.600	0.630
2020/01/31 00:27:37.1	269.180	-0.120	-0.600	0.670
2020/01/31 00:27:37.2	269.140	-0.120	-0.610	0.710
2020/01/31 00:27:37.3	269.110	-0.110	-0.610	0.750
2020/01/31 00:27:37.4	269.080	-0.110	-0.610	0.790
2020/01/31 00:27:37.5	269.040	-0.100	-0.610	0.820
2020/01/31 00:27:37.6	269.000	-0.100	-0.610	0.860
2020/01/31 00:27:37.7	268.970	-0.090	-0.600	0.900
2020/01/31 00:27:37.8	268.930	-0.080	-0.600	0.930
2020/01/31 00:27:37.9	268.880	-0.080	-0.590	0.970
2020/01/31 00:27:38.0	268.850	-0.070	-0.590	1.000
2020/01/31 00:27:38.1	268.810	-0.070	-0.580	1.030
2020/01/31 00:27:38.2	268.770	-0.060	-0.570	1.060
2020/01/31 00:27:38.3	268.730	-0.060	-0.560	1.090
2020/01/31 00:27:38.4	268.690	-0.060	-0.550	1.120
2020/01/31 00:27:38.5	268.650	-0.050	-0.540	1.150
2020/01/31 00:27:38.6	268.610	-0.050	-0.520	1.180
2020/01/31 00:27:38.7	268.570	-0.050	-0.510	1.210
2020/01/31 00:27:38.8	268.530	-0.040	-0.500	1.230
2020/01/31 00:27:38.9	268.510	-0.040	-0.480	1.250
2020/01/31 00:27:39.0	268.470	-0.040	-0.470	1.280
2020/01/31 00:27:39.1	268.430	-0.040	-0.450	1.290
2020/01/31 00:27:39.2	268.400	-0.040	-0.440	1.310
2020/01/31 00:27:39.3	268.360	-0.030	-0.420	1.330
2020/01/31 00:27:39.4	268.320	-0.030	-0.410	1.340
2020/01/31 00:27:39.5	268.290	-0.030	-0.400	1.350
2020/01/31 00:27:39.6	268.250	-0.030	-0.380	1.360
2020/01/31 00:27:39.7	268.220	-0.030	-0.370	1.370
2020/01/31 00:27:39.8	268.180	-0.030	-0.360	1.370
2020/01/31 00:27:39.9	268.150	-0.020	-0.340	1.370
2020/01/31 00:27:40.0	268.120	-0.020	-0.330	1.370
2020/01/31 00:27:40.1	268.090	-0.020	-0.320	1.370
2020/01/31 00:27:40.2	268.060	-0.020	-0.320	1.370
2020/01/31 00:27:40.3	268.030	-0.010	-0.310	1.370
2020/01/31 00:27:40.4	268.000	-0.010	-0.300	1.370
2020/01/31 00:27:40.5	267.980	-0.010	-0.290	1.360
2020/01/31 00:27:40.6	267.950	-0.000	-0.290	1.350
2020/01/31 00:27:40.7	267.920	0.000	-0.290	1.350
2020/01/31 00:27:40.8	267.900	0.010	-0.280	1.340
2020/01/31 00:27:40.9	267.880	0.010	-0.280	1.330
2020/01/31 00:27:41.0	267.860	0.010	-0.280	1.320
2020/01/31 00:27:41.1	267.840	0.020	-0.280	1.310
2020/01/31 00:27:41.2	267.830	0.020	-0.280	1.300
2020/01/31 00:27:41.3	267.820	0.030	-0.290	1.280
2020/01/31 00:27:41.4	267.800	0.030	-0.290	1.270
2020/01/31 00:27:41.5	267.800	0.040	-0.290	1.250
2020/01/31 00:27:41.6	267.790	0.040	-0.300	1.240
2020/01/31 00:27:41.7	267.780	0.040	-0.300	1.220
2020/01/31 00:27:41.8	267.780	0.050	-0.300	1.200
2020/01/31 00:27:41.9	267.780	0.050	-0.310	1.180
2020/01/31 00:27:42.0	267.780	0.050	-0.310	1.170
2020/01/31 00:27:42.1	267.780	0.050	-0.320	1.150
2020/01/31 00:27:42.2	267.780	0.050	-0.320	1.130
2020/01/31 00:27:42.3	267.780	0.050	-0.320	1.110
2020/01/31 00:27:42.4	267.780	0.050	-0.320	1.100
2020/01/31 00:27:42.5	267.790	0.050	-0.320	1.080
2020/01/31 00:27:42.6	267.790	0.050	-0.320	1.070
2020/01/31 00:27:42.7	267.800	0.050	-0.320	1.050
2020/01/31 00:27:42.8	267.800	0.040	-0.310	1.040
2020/01/31 00:27:42.9	267.830	0.040	-0.300	1.030
2020/01/31 00:27:43.0	267.830	0.030	-0.290	1.020
2020/01/31 00:27:43.1	267.850	0.020	-0.280	1.010
2020/01/31 00:27:43.2	267.860	0.020	-0.270	1.000
2020/01/31 00:27:43.3	267.870	0.010	-0.260	0.990
2020/01/31 00:27:43.4	267.880	0.000	-0.240	0.980
2020/01/31 00:27:43.5	267.900	-0.010	-0.220	0.980
2020/01/31 00:27:43.6	267.910	-0.020	-0.210	0.980
2020/01/31 00:27:43.7	267.930	-0.030	-0.190	0.970
2020/01/31 00:27:43.8	267.940	-0.040	-0.170	0.970
2020/01/31 00:27:43.9	267.960	-0.050	-0.150	0.970
2020/01/31 00:27:44.0	267.980	-0.060	-0.130	0.980
2020/01/31 00:27:44.1	268.000	-0.070	-0.100	0.980
2020/01/31 00:27:44.2	268.020	-0.080	-0.080	0.980
2020/01/31 00:27:44.3	268.040	-0.090	-0.060	0.980
2020/01/31 00:27:44.4	268.070	-0.100	-0.040	0.990
2020/01/31 00:27:44.5	268.090	-0.110	-0.020	0.990
2020/01/31 00:27:44.6	268.110	-0.120	-0.000	1.000
2020/01/31 00:27:44.7	268.130	-0.130	0.020	1.000
2020/01/31 00:27:44.8	268.160	-0.140	0.030	1.010
2020/01/31 00:27:44.9	268.190	-0.150	0.050	1.010
2020/01/31 00:27:45.0	268.220	-0.160	0.060	1.020
2020/01/31 00:27:45.1	268.240	-0.160	0.070	1.030
2020/01/31 00:27:45.2	268.270	-0.160	0.070	1.040
2020/01/31 00:27:45.3	268.290	-0.170	0.080	1.050
2020/01/31 00:27:45.4	268.320	-0.170	0.080	1.060
2020/01/31 00:27:45.5	268.350	-0.170	0.080	1.060
2020/01/31 00:27:45.6	268.380	-0.170	0.080	1.070
2020/01/31 00:27:45.7	268.400	-0.170	0.080	1.080
2020/01/31 00:27:45.8	268.430	-0.160	0.070	1.090
2020/01/31 00:27:45.9	268.450	-0.160	0.060	1.100
2020/01/31 00:27:46.0	268.480	-0.150	0.050	1.110
2020/01/31 00:27:46.1	268.510	-0.140	0.040	1.110
2020/01/31 00:27:46.2	268.540	-0.130	0.030	1.120
2020/01/31 00:27:46.3	268.570	-0.120	0.010	1.130
2020/01/31 00:27:46.4	268.600	-0.110	-0.000	1.130
2020/01/31 00:27:46.5	268.630	-0.100	-0.020	1.140
2020/01/31 00:27:46.6	268.660	-0.080	-0.030	1.150
2020/01/31 00:27:46.7	268.690	-0.070	-0.050	1.150
2020/01/31 00:27:46.8	268.720	-0.050	-0.070	1.160
2020/01/31 00:27:46.9	268.760	-0.030	-0.090	1.160
2020/01/31 00:27:47.0	268.790	-0.010	-0.110	1.170
2020/01/31 00:27:47.1	268.820	0.010	-0.130	1.170
2020/01/31 00:27:47.2	268.860	0.030	-0.140	1.180
2020/01/31 00:27:47.3	268.890	0.050	-0.160	1.190
2020/01/31 00:27:47.4	268.920	0.070	-0.180	1.190
2020/01/31 00:27:47.5	268.950	0.090	-0.200	1.200
2020/01/31 00:27:47.6	268.980	0.110	-0.220	1.200
2020/01/31 00:27:47.7	269.010	0.130	-0.240	1.210
2020/01/31 00:27:47.8	269.040	0.160	-0.250	1.220
2020/01/31 00:27:47.9	269.070	0.180	-0.270	1.230
2020/01/31 00:27:48.0	269.090	0.200	-0.290	1.240
2020/01/31 00:27:48.1	269.120	0.220	-0.300	1.250
2020/01/31 00:27:48.2	269.140	0.240	-0.310	1.260
2020/01/31 00:27:48.3	269.160	0.260	-0.320	1.270
2020/01/31 00:27:48.4	269.180	0.280	-0.330	1.280
2020/01/31 00:27:48.5	269.190	0.300	-0.340	1.290
2020/01/31 00:27:48.6	269.210	0.320	-0.350	1.310
2020/01/31 00:27:48.7	269.220	0.330	-0.360	1.320
2020/01/31 00:27:48.8	269.230	0.350	-0.360	1.330
2020/01/31 00:27:48.9	269.220	0.360	-0.360	1.340
2020/01/31 00:27:49.0	269.220	0.380	-0.370	1.360
2020/01/31 00:27:49.1	269.220	0.390	-0.370	1.380
2020/01/31 00:27:49.2	269.220	0.400	-0.370	1.390
2020/01/31 00:27:49.3	269.220	0.410	-0.370	1.410
2020/01/31 00:27:49.4	269.220	0.410	-0.370	1.420
2020/01/31 00:27:49.5	269.220	0.420	-0.370	1.440
2020/01/31 00:27:49.6	269.210	0.420	-0.370	1.450
2020/01/31 00:27:49.7	269.200	0.420	-0.360	1.470
2020/01/31 00:27:49.8	269.190	0.420	-0.360	1.480
2020/01/31 00:27:49.9	269.170	0.420	-0.360	1.480
2020/01/31 00:27:50.0	269.160	0.420	-0.350	1.490
2020/01/31 00:27:50.1	269.150	0.410	-0.350	1.490
2020/01/31 00:27:50.2	269.130	0.410	-0.340	1.500
2020/01/31 00:27:50.3	269.120	0.400	-0.340	1.500
2020/01/31 00:27:50.4	269.100	0.390	-0.330	1.490
2020/01/31 00:27:50.5	269.080	0.380	-0.330	1.490
2020/01/31 00:27:50.6	269.070	0.360	-0.330	1.480
2020/01/31 00:27:50.7	269.050	0.350	-0.320	1.470
2020/01/31 00:27:50.8	269.030	0.330	-0.320	1.460
2020/01/31 00:27:50.9	269.020	0.310	-0.320	1.450
2020/01/31 00:27:51.0	268.990	0.300	-0.320	1.430
2020/01/31 00:27:51.1	268.970	0.280	-0.310	1.410
2020/01/31 00:27:51.2	268.950	0.260	-0.320	1.390
2020/01/31 00:27:51.3	268.920	0.240	-0.320	1.370
2020/01/31 00:27:51.4	268.900	0.220	-0.320	1.350
2020/01/31 00:27:51.5	268.870	0.200	-0.330	1.320
2020/01/31 00:27:51.6	268.840	0.180	-0.330	1.290
2020/01/31 00:27:51.7	268.810	0.160	-0.340	1.270
2020/01/31 00:27:51.8	268.790	0.140	-0.350	1.240
2020/01/31 00:27:51.9	268.750	0.120	-0.360	1.210
2020/01/31 00:27:52.0	268.720	0.100	-0.370	1.180
2020/01/31 00:27:52.1	268.700	0.080	-0.380	1.150
2020/01/31 00:27:52.2	268.670	0.060	-0.390	1.120
2020/01/31 00:27:52.3	268.640	0.040	-0.410	1.090
2020/01/31 00:27:52.4	268.610	0.020	-0.420	1.050
2020/01/31 00:27:52.5	268.580	-0.000	-0.430	1.020
2020/01/31 00:27:52.6	268.550	-0.020	-0.450	0.990
2020/01/31 00:27:52.7	268.530	-0.040	-0.460	0.960
2020/01/31 00:27:52.8	268.500	-0.060	-0.470	0.930
2020/01/31 00:27:52.9	268.470	-0.070	-0.480	0.910
2020/01/31 00:27:53.0	268.440	-0.090	-0.500	0.880
2020/01/31 00:27:53.1	268.420	-0.110	-0.510	0.850
2020/01/31 00:27:53.2	268.390	-0.120	-0.520	0.820
2020/01/31 00:27:53.3	268.360	-0.140	-0.530	0.800
2020/01/31 00:27:53.4	268.340	-0.150	-0.540	0.770
2020/01/31 00:27:53.5	268.310	-0.170	-0.550	0.750
2020/01/31 00:27:53.6	268.290	-0.180	-0.550	0.720
2020/01/31 00:27:53.7	268.260	-0.200	-0.560	0.700
2020/01/31 00:27:53.8	268.240	-0.210	-0.570	0.680
2020/01/31 00:27:53.9	268.210	-0.230	-0.570	0.650
2020/01/31 00:27:54.0	268.180	-0.240	-0.570	0.630
2020/01/31 00:27:54.1	268.160	-0.250	-0.580	0.620
2020/01/31 00:27:54.2	268.140	-0.270	-0.580	0.600
2020/01/31 00:27:54.3	268.110	-0.280	-0.580	0.580
2020/01/31 00:27:54.4	268.090	-0.290	-0.580	0.560
2020/01/31 00:27:54.5	268.070	-0.300	-0.570	0.550
2020/01/31 00:27:54.6	268.040	-0.310	-0.570	0.540
2020/01/31 00:27:54.7	268.020	-0.320	-0.560	0.520
2020/01/31 00:27:54.8	268.000	-0.330	-0.560	0.510
2020/01/31 00:27:54.9	267.980	-0.340	-0.550	0.500
2020/01/31 00:27:55.0	267.970	-0.350	-0.550	0.490
2020/01/31 00:27:55.1	267.950	-0.360	-0.540	0.480
2020/01/31 00:27:55.2	267.930	-0.360	-0.530	0.470
2020/01/31 00:27:55.3	267.920	-0.370	-0.520	0.460
2020/01/31 00:27:55.4	267.910	-0.370	-0.510	0.450
2020/01/31 00:27:55.5	267.900	-0.380	-0.500	0.450
2020/01/31 00:27:55.6	267.890	-0.380	-0.490	0.440
2020/01/31 00:27:55.7	267.890	-0.380	-0.480	0.430
2020/01/31 00:27:55.8	267.880	-0.380	-0.470	0.420
2020/01/31 00:27:55.9	267.900	-0.380	-0.460	0.420
2020/01/31 00:27:56.0	267.900	-0.380	-0.450	0.410
2020/01/31 00:27:56.1	267.900	-0.370	-0.430	0.410
2020/01/31 00:27:56.2	267.900	-0.370	-0.420	0.400
2020/01/31 00:27:56.3	267.910	-0.360	-0.410	0.400
2020/01/31 00:27:56.4	267.910	-0.360	-0.400	0.400
2020/01/31 00:27:56.5	267.920	-0.350	-0.390	0.400
2020/01/31 00:27:56.6	267.930	-0.340	-0.380	0.400
2020/01/31 00:27:56.7	267.940	-0.330	-0.370	0.400
2020/01/31 00:27:56.8	267.950	-0.320	-0.360	0.400
2020/01/31 00:27:56.9	267.980	-0.310	-0.350	0.410
2020/01/31 00:27:57.0	267.990	-0.290	-0.350	0.420
2020/01/31 00:27:57.1	268.010	-0.280	-0.340	0.440
2020/01/31 00:27:57.2	268.020	-0.260	-0.330	0.450
2020/01/31 00:27:57.3	268.040	-0.250	-0.320	0.470
2020/01/31 00:27:57.4	268.060	-0.230	-0.310	0.490
2020/01/31 00:27:57.5	268.080	-0.210	-0.310	0.510
2020/01/31 00:27:57.6	268.100	-0.190	-0.300	0.530
2020/01/31 00:27:57.7	268.110	-0.170	-0.290	0.560
2020/01/31 00:27:57.8	268.130	-0.150	-0.290	0.590
2020/01/31 00:27:57.9	268.160	-0.130	-0.280	0.620
2020/01/31 00:27:58.0	268.180	-0.110	-0.270	0.660
2020/01/31 00:27:58.1	268.200	-0.090	-0.270	0.690
2020/01/31 00:27:58.2	268.220	-0.070	-0.260	0.730
2020/01/31 00:27:58.3	268.240	-0.050	-0.260	0.760
2020/01/31 00:27:58.4	268.270	-0.020	-0.250	0.800
2020/01/31 00:27:58.5	268.290	-0.000	-0.240	0.840
2020/01/31 00:27:58.6	268.320	0.020	-0.240	0.870
2020/01/31 00:27:58.7	268.340	0.030	-0.230	0.910
2020/01/31 00:27:58.8	268.360	0.050	-0.220	0.950
2020/01/31 00:27:58.9	268.390	0.070	-0.210	0.980
2020/01/31 00:27:59.0	268.410	0.090	-0.200	1.020
2020/01/31 00:27:59.1	268.440	0.100	-0.190	1.060
2020/01/31 00:27:59.2	268.460	0.120	-0.180	1.090
2020/01/31 00:27:59.3	268.490	0.130	-0.170	1.130
2020/01/31 00:27:59.4	268.510	0.140	-0.160	1.160
2020/01/31 00:27:59.5	268.540	0.150	-0.140	1.200
2020/01/31 00:27:59.6	268.560	0.160	-0.130	1.230
2020/01/31 00:27:59.7	268.590	0.170	-0.120	1.270
2020/01/31 00:27:59.8	268.610	0.170	-0.100	1.300
2020/01/31 00:27:59.9	268.620	0.180	-0.090	1.330
2020/01/31 00:28:00.0	268.640	0.180	-0.070	1.360
2020/01/31 00:28:00.1	268.660	0.190	-0.060	1.390
2020/01/31 00:28:00.2	268.680	0.190	-0.040	1.420
2020/01/31 00:28:00.3	268.700	0.190	-0.030	1.440
2020/01/31 00:28:00.4	268.720	0.190	-0.010	1.470
2020/01/31 00:28:00.5	268.730	0.180	0.000	1.490
2020/01/31 00:28:00.6	268.740	0.180	0.020	1.510
2020/01/31 00:28:00.7	268.750	0.180	0.030	1.530
2020/01/31 00:28:00.8	268.760	0.170	0.040	1.540
2020/01/31 00:28:00.9	268.750	0.170	0.050	1.550
2020/01/31 00:28:01.0	268.760	0.160	0.060	1.560
2020/01/31 00:28:01.1	268.760	0.150	0.070	1.570
2020/01/31 00:28:01.2	268.760	0.150	0.080	1.570
2020/01/31 00:28:01.3	268.750	0.140	0.090	1.570
2020/01/31 00:28:01.4	268.750	0.130	0.090	1.560
2020/01/31 00:28:01.5	268.740	0.120	0.090	1.560
2020/01/31 00:28:01.6	268.740	0.110	0.090	1.550
2020/01/31 00:28:01.7	268.730	0.110	0.090	1.540
2020/01/31 00:28:01.8	268.720	0.100	0.090	1.520
2020/01/31 00:28:01.9	268.720	0.090	0.080	1.500
2020/01/31 00:28:02.0	268.700	0.080	0.080	1.480
2020/01/31 00:28:02.1	268.690	0.080	0.070	1.460
2020/01/31 00:28:02.2	268.680	0.070	0.060	1.430
2020/01/31 00:28:02.3	268.660	0.060	0.040	1.400
2020/01/31 00:28:02.4	268.650	0.060	0.030	1.380
2020/01/31 00:28:02.5	268.630	0.050	0.010	1.350
2020/01/31 00:28:02.6	268.610	0.050	-0.010	1.320
2020/01/31 00:28:02.7	268.590	0.050	-0.030	1.290
2020/01/31 00:28:02.8	268.570	0.040	-0.050	1.250
2020/01/31 00:28:02.9	268.560	0.040	-0.080	1.220
2020/01/31 00:28:03.0	268.540	0.040	-0.100	1.190
2020/01/31 00:28:03.1	268.510	0.040	-0.130	1.160
2020/01/31 00:28:03.2	268.490	0.040	-0.160	1.120
2020/01/31 00:28:03.3	268.460	0.040	-0.180	1.090
2020/01/31 00:28:03.4	268.440	0.040	-0.210	1.060
2020/01/31 00:28:03.5	268.410	0.040	-0.240	1.030
2020/01/31 00:28:03.6	268.380	0.040	-0.260	1.000
2020/01/31 00:28:03.7	268.350	0.040	-0.290	0.970
2020/01/31 00:28:03.8	268.320	0.040	-0.320	0.940
2020/01/31 00:28:03.9	268.290	0.040	-0.340	0.910
2020/01/31 00:28:04.0	268.260	0.040	-0.360	0.880
2020/01/31 00:28:04.1	268.230	0.040	-0.380	0.860
2020/01/31 00:28:04.2	268.200	0.040	-0.400	0.830
2020/01/31 00:28:04.3	268.170	0.040	-0.420	0.800
2020/01/31 00:28:04.4	268.140	0.040	-0.440	0.780
2020/01/31 00:28:04.5	268.110	0.040	-0.450	0.760
2020/01/31 00:28:04.6	268.080	0.030	-0.460	0.740
2020/01/31 00:28:04.7	268.050	0.030	-0.480	0.720
2020/01/31 00:28:04.8	268.020	0.020	-0.490	0.700
2020/01/31 00:28:04.9	268.000	0.020	-0.500	0.680
2020/01/31 00:28:05.0	267.970	0.010	-0.510	0.670
2020/01/31 00:28:05.1	267.940	0.010	-0.510	0.660
2020/01/31 00:28:05.2	267.910	-0.000	-0.510	0.650
2020/01/31 00:28:05.3	267.880	-0.010	-0.520	0.650
2020/01/31 00:28:05.4	267.850	-0.020	-0.520	0.650
2020/01/31 00:28:05.5	267.820	-0.020	-0.520	0.650
2020/01/31 00:28:05.6	267.790	-0.030	-0.520	0.650
2020/01/31 00:28:05.7	267.760	-0.040	-0.510	0.660
2020/01/31 00:28:05.8	267.730	-0.050	-0.510	0.670
2020/01/31 00:28:05.9	267.690	-0.050	-0.500	0.680
2020/01/31 00:28:06.0	267.660	-0.060	-0.500	0.700
2020/01/31 00:28:06.1	267.640	-0.070	-0.490	0.710
2020/01/31 00:28:06.2	267.620	-0.070	-0.490	0.730
2020/01/31 00:28:06.3	267.590	-0.080	-0.480	0.750
2020/01/31 00:28:06.4	267.570	-0.080	-0.480	0.780
2020/01/31 00:28:06.5	267.550	-0.080	-0.470	0.800
2020/01/31 00:28:06.6	267.530	-0.090	-0.470	0.830
2020/01/31 00:28:06.7	267.520	-0.090	-0.460	0.850
2020/01/31 00:28:06.8	267.500	-0.090	-0.450	0.880
2020/01/31 00:28:06.9	267.490	-0.080	-0.450	0.910
2020/01/31 00:28:07.0	267.480	-0.080	-0.450	0.940
2020/01/31 00:28:07.1	267.470	-0.080	-0.450	0.970
2020/01/31 00:28:07.2	267.460	-0.070	-0.440	1.000
2020/01/31 00:28:07.3	267.450	-0.060	-0.440	1.030
2020/01/31 00:28:07.4	267.440	-0.050	-0.440	1.050
2020/01/31 00:28:07.5	267.430	-0.040	-0.440	1.080
2020/01/31 00:28:07.6	267.430	-0.030	-0.440	1.110
2020/01/31 00:28:07.7	267.430	-0.020	-0.440	1.130
2020/01/31 00:28:07.8	267.430	-0.000	-0.440	1.150
2020/01/31 00:28:07.9	267.430	0.010	-0.440	1.180
2020/01/31 00:28:08.0	267.430	0.030	-0.450	1.200
2020/01/31 00:28:08.1	267.430	0.050	-0.450	1.210
2020/01/31 00:28:08.2	267.440	0.070	-0.460	1.230
2020/01/31 00:28:08.3	267.440	0.090	-0.460	1.250
2020/01/31 00:28:08.4	267.450	0.110	-0.460	1.260
2020/01/31 00:28:08.5	267.460	0.130	-0.470	1.270
2020/01/31 00:28:08.6	267.470	0.150	-0.470	1.290
2020/01/31 00:28:08.7	267.480	0.160	-0.480	1.290
2020/01/31 00:28:08.8	267.490	0.180	-0.480	1.300
2020/01/31 00:28:08.9	267.520	0.200	-0.490	1.310
2020/01/31 00:28:09.0	267.530	0.220	-0.490	1.310
2020/01/31 00:28:09.1	267.550	0.240	-0.490	1.310
2020/01/31 00:28:09.2	267.560	0.260	-0.490	1.310
2020/01/31 00:28:09.3	267.580	0.270	-0.500	1.310
2020/01/31 00:28:09.4	267.590	0.280	-0.500	1.310
2020/01/31 00:28:09.5	267.610	0.300	-0.490	1.300
2020/01/31 00:28:09.6	267.620	0.310	-0.490	1.300
2020/01/31 00:28:09.7	267.640	0.320	-0.490	1.290
2020/01/31 00:28:09.8	267.660	0.320	-0.480	1.280
2020/01/31 00:28:09.9	267.680	0.330	-0.480	1.270
2020/01/31 00:28:10.0	267.690	0.330	-0.470	1.250
2020/01/31 00:28:10.1	267.710	0.330	-0.460	1.240
2020/01/31 00:28:10.2	267.730	0.330	-0.450	1.230
2020/01/31 00:28:10.3	267.750	0.320	-0.440	1.220
2020/01/31 00:28:10.4	267.770	0.320	-0.420	1.210
2020/01/31 00:28:10.5	267.780	0.310	-0.410	1.200
2020/01/31 00:28:10.6	267.800	0.300	-0.390	1.190
2020/01/31 00:28:10.7	267.820	0.280	-0.380	1.180
2020/01/31 00:28:10.8	267.840	0.270	-0.360	1.170
2020/01/31 00:28:10.9	267.850	0.250	-0.340	1.160
2020/01/31 00:28:11.0	267.870	0.230	-0.320	1.150
2020/01/31 00:28:11.1	267.890	0.200	-0.300	1.150
2020/01/31 00:28:11.2	267.900	0.180	-0.280	1.140
2020/01/31 00:28:11.3	267.920	0.150	-0.260	1.130
2020/01/31 00:28:11.4	267.940	0.120	-0.240	1.120
2020/01/31 00:28:11.5	267.960	0.090	-0.220	1.120
2020/01/31 00:28:11.6	267.970	0.060	-0.190	1.110
2020/01/31 00:28:11.7	267.990	0.030	-0.170	1.100
2020/01/31 00:28:11.8	268.010	-0.000	-0.150	1.090
2020/01/31 00:28:11.9	268.020	-0.030	-0.130	1.080
2020/01/31 00:28:12.0	268.040	-0.070	-0.110	1.070
2020/01/31 00:28:12.1	268.050	-0.100	-0.090	1.060
2020/01/31 00:28:12.2	268.070	-0.130	-0.080	1.040
2020/01/31 00:28:12.3	268.080	-0.160	-0.060	1.030
2020/01/31 00:28:12.4	268.100	-0.200	-0.040	1.010
2020/01/31 00:28:12.5	268.110	-0.230	-0.030	1.000
2020/01/31 00:28:12.6	268.120	-0.260	-0.020	0.980
2020/01/31 00:28:12.7	268.130	-0.290	-0.010	0.960
2020/01/31 00:28:12.8	268.140	-0.310	0.000	0.940
2020/01/31 00:28:12.9	268.140	-0.340	0.010	0.930
2020/01/31 00:28:13.0	268.150	-0.360	0.020	0.910
2020/01/31 00:28:13.1	268.160	-0.380	0.020	0.890
2020/01/31 00:28:13.2	268.170	-0.400	0.020	0.870
2020/01/31 00:28:13.3	268.170	-0.420	0.020	0.850
2020/01/31 00:28:13.4	268.180	-0.430	0.020	0.840
2020/01/31 00:28:13.5	268.190	-0.440	0.020	0.820
2020/01/31 00:28:13.6	268.190	-0.450	0.010	0.800
2020/01/31 00:28:13.7	268.200	-0.460	0.010	0.790
2020/01/31 00:28:13.8	268.200	-0.460	-0.000	0.780
2020/01/31 00:28:13.9	268.210	-0.460	-0.010	0.760
2020/01/31 00:28:14.0	268.210	-0.460	-0.030	0.750
2020/01/31 00:28:14.1	268.210	-0.460	-0.040	0.740
2020/01/31 00:28:14.2	268.220	-0.450	-0.050	0.730
2020/01/31 00:28:14.3	268.220	-0.440	-0.070	0.720
2020/01/31 00:28:14.4	268.220	-0.430	-0.090	0.710
2020/01/31 00:28:14.5	268.230	-0.420	-0.110	0.710
2020/01/31 00:28:14.6	268.230	-0.410	-0.130	0.700
2020/01/31 00:28:14.7	268.230	-0.390	-0.150	0.700
2020/01/31 00:28:14.8	268.240	-0.370	-0.170	0.690
2020/01/31 00:28:14.9	268.250	-0.350	-0.190	0.690
2020/01/31 00:28:15.0	268.250	-0.330	-0.210	0.690
2020/01/31 00:28:15.1	268.250	-0.310	-0.230	0.690
2020/01/31 00:28:15.2	268.260	-0.290	-0.260	0.690
2020/01/31 00:28:15.3	268.260	-0.260	-0.280	0.690
2020/01/31 00:28:15.4	268.260	-0.240	-0.300	0.690
2020/01/31 00:28:15.5	268.270	-0.210	-0.330	0.690
2020/01/31 00:28:15.6	268.270	-0.190	-0.350	0.690
2020/01/31 00:28:15.7	268.280	-0.160	-0.370	0.690
2020/01/31 00:28:15.8	268.280	-0.140	-0.390	0.700
2020/01/31 00:28:15.9	268.310	-0.110	-0.410	0.700
2020/01/31 00:28:16.0	268.310	-0.080	-0.430	0.700
2020/01/31 00:28:16.1	268.320	-0.060	-0.440	0.710
2020/01/31 00:28:16.2	268.320	-0.030	-0.460	0.710
2020/01/31 00:28:16.3	268.330	-0.000	-0.470	0.720
2020/01/31 00:28:16.4	268.330	0.020	-0.490	0.720
2020/01/31 00:28:16.5	268.340	0.050	-0.500	0.730
2020/01/31 00:28:16.6	268.340	0.070	-0.500	0.740
2020/01/31 00:28:16.7	268.350	0.090	-0.510	0.750
2020/01/31 00:28:16.8	268.350	0.120	-0.510	0.760
2020/01/31 00:28:16.9	268.350	0.140	-0.520	0.770
2020/01/31 00:28:17.0	268.350	0.160	-0.520	0.790
2020/01/31 00:28:17.1	268.350	0.180	-0.520	0.800
2020/01/31 00:28:17.2	268.360	0.200	-0.510	0.810
2020/01/31 00:28:17.3	268.360	0.210	-0.510	0.830
2020/01/31 00:28:17.4	268.360	0.230	-0.500	0.850
2020/01/31 00:28:17.5	268.360	0.240	-0.490	0.860
2020/01/31 00:28:17.6	268.360	0.260	-0.480	0.880
2020/01/31 00:28:17.7	268.360	0.270	-0.470	0.900
2020/01/31 00:28:17.8	268.360	0.280	-0.460	0.920
2020/01/31 00:28:17.9	268.360	0.290	-0.440	0.930
2020/01/31 00:28:18.0	268.360	0.290	-0.430	0.950
2020/01/31 00:28:18.1	268.360	0.300	-0.410	0.970
2020/01/31 00:28:18.2	268.360	0.300	-0.390	0.990
2020/01/31 00:28:18.3	268.360	0.300	-0.370	1.010
2020/01/31 00:28:18.4	268.360	0.310	-0.350	1.030
2020/01/31 00:28:18.5	268.360	0.300	-0.330	1.050
2020/01/31 00:28:18.6	268.360	0.300	-0.310	1.070
2020/01/31 00:28:18.7	268.360	0.300	-0.290	1.090
2020/01/31 00:28:18.8	268.360	0.300	-0.270	1.110
2020/01/31 00:28:18.9	268.360	0.290	-0.250	1.130
2020/01/31 00:28:19.0	268.360	0.280	-0.230	1.140
2020/01/31 00:28:19.1	268.360	0.280	-0.210	1.160
2020/01/31 00:28:19.2	268.360	0.270	-0.190	1.170
2020/01/31 00:28:19.3	268.360	0.260	-0.180	1.190
2020/01/31 00:28:19.4	268.370	0.250	-0.160	1.200
2020/01/31 00:28:19.5	268.370	0.240	-0.150	1.210
2020/01/31 00:28:19.6	268.370	0.230	-0.140	1.230
2020/01/31 00:28:19.7	268.370	0.220	-0.130	1.240
2020/01/31 00:28:19.8	268.370	0.210	-0.120	1.250
2020/01/31 00:28:19.9	268.380	0.200	-0.110	1.260
2020/01/31 00:28:20.0	268.380	0.190	-0.110	1.270
2020/01/31 00:28:20.1	268.380	0.180	-0.110	1.280
2020/01/31 00:28:20.2	268.380	0.160	-0.110	1.280
2020/01/31 00:28:20.3	268.380	0.150	-0.120	1.290
2020/01/31 00:28:20.4	268.380	0.140	-0.120	1.290
2020/01/31 00:28:20.5	268.380	0.130	-0.130	1.290
2020/01/31 00:28:20.6	268.380	0.120	-0.140	1.300
2020/01/31 00:28:20.7	268.370	0.110	-0.160	1.300
2020/01/31 00:28:20.8	268.370	0.100	-0.170	1.300
2020/01/31 00:28:20.9	268.370	0.100	-0.200	1.300
2020/01/31 00:28:21.0	268.370	0.090	-0.210	1.300
2020/01/31 00:28:21.1	268.370	0.080	-0.230	1.290
2020/01/31 00:28:21.2	268.360	0.070	-0.250	1.290
2020/01/31 00:28:21.3	268.360	0.060	-0.270	1.280
2020/01/31 00:28:21.4	268.360	0.060	-0.290	1.280
2020/01/31 00:28:21.5	268.350	0.050	-0.310	1.270
2020/01/31 00:28:21.6	268.340	0.040	-0.330	1.260
2020/01/31 00:28:21.7	268.340	0.030	-0.350	1.260
2020/01/31 00:28:21.8	268.330	0.030	-0.360	1.250
2020/01/31 00:28:21.9	268.320	0.020	-0.370	1.230
2020/01/31 00:28:22.0	268.320	0.010	-0.390	1.220
2020/01/31 00:28:22.1	268.310	0.000	-0.400	1.210
2020/01/31 00:28:22.2	268.300	-0.010	-0.410	1.190
2020/01/31 00:28:22.3	268.300	-0.010	-0.420	1.180
2020/01/31 00:28:22.4	268.290	-0.020	-0.430	1.160
2020/01/31 00:28:22.5	268.280	-0.030	-0.440	1.150
2020/01/31 00:28:22.6	268.280	-0.040	-0.450	1.130
2020/01/31 00:28:22.7	268.270	-0.060	-0.460	1.110
2020/01/31 00:28:22.8	268.260	-0.070	-0.460	1.090
2020/01/31 00:28:22.9	268.260	-0.080	-0.470	1.070
2020/01/31 00:28:23.0	268.250	-0.090	-0.470	1.040
2020/01/31 00:28:23.1	268.240	-0.100	-0.470	1.020
2020/01/31 00:28:23.2	268.230	-0.110	-0.470	1.000
2020/01/31 00:28:23.3	268.220	-0.130	-0.470	0.980
2020/01/31 00:28:23.4	268.220	-0.140	-0.470	0.950
2020/01/31 00:28:23.5	268.210	-0.150	-0.470	0.930
2020/01/31 00:28:23.6	268.200	-0.170	-0.460	0.900
2020/01/31 00:28:23.7	268.190	-0.180	-0.460	0.880
2020/01/31 00:28:23.8	268.180	-0.190	-0.450	0.850
2020/01/31 00:28:23.9	268.180	-0.200	-0.450	0.820
2020/01/31 00:28:24.0	268.170	-0.210	-0.440	0.800
2020/01/31 00:28:24.1	268.160	-0.230	-0.440	0.770
2020/01/31 00:28:24.2	268.160	-0.240	-0.430	0.740
2020/01/31 00:28:24.3	268.150	-0.250	-0.430	0.710
2020/01/31 00:28:24.4	268.140	-0.260	-0.430	0.680
2020/01/31 00:28:24.5	268.140	-0.260	-0.420	0.650
2020/01/31 00:28:24.6	268.130	-0.270	-0.420	0.620
2020/01/31 00:28:24.7	268.130	-0.280	-0.420	0.600
2020/01/31 00:28:24.8	268.120	-0.280	-0.420	0.570
2020/01/31 00:28:24.9	268.120	-0.290	-0.420	0.540
2020/01/31 00:28:25.0	268.110	-0.290	-0.420	0.510
2020/01/31 00:28:25.1	268.110	-0.290	-0.420	0.490
2020/01/31 00:28:25.2	268.110	-0.290	-0.420	0.460
2020/01/31 00:28:25.3	268.110	-0.290	-0.420	0.440
2020/01/31 00:28:25.4	268.110	-0.290	-0.430	0.420
2020/01/31 00:28:25.5	268.110	-0.280	-0.430	0.390
2020/01/31 00:28:25.6	268.110	-0.280	-0.430	0.370
2020/01/31 00:28:25.7	268.110	-0.270	-0.430	0.360
2020/01/31 00:28:25.8	268.120	-0.270	-0.430	0.340
2020/01/31 00:28:25.9	268.120	-0.260	-0.440	0.320
2020/01/31 00:28:26.0	268.120	-0.250	-0.440	0.310
2020/01/31 00:28:26.1	268.130	-0.240	-0.440	0.300
2020/01/31 00:28:26.2	268.130	-0.230	-0.440	0.290
2020/01/31 00:28:26.3	268.140	-0.220	-0.440	0.290
2020/01/31 00:28:26.4	268.140	-0.210	-0.440	0.280
2020/01/31 00:28:26.5	268.150	-0.190	-0.440	0.280
2020/01/31 00:28:26.6	268.160	-0.180	-0.430	0.280
2020/01/31 00:28:26.7	268.170	-0.170	-0.430	0.290
2020/01/31 00:28:26.8	268.170	-0.150	-0.420	0.300
2020/01/31 00:28:26.9	268.180	-0.140	-0.420	0.310
2020/01/31 00:28:27.0	268.180	-0.130	-0.410	0.320
2020/01/31 00:28:27.1	268.190	-0.120	-0.400	0.340
2020/01/31 00:28:27.2	268.200	-0.100	-0.390	0.360
2020/01/31 00:28:27.3	268.210	-0.090	-0.380	0.380
2020/01/31 00:28:27.4	268.210	-0.080	-0.370	0.410
2020/01/31 00:28:27.5	268.220	-0.070	-0.350	0.440
2020/01/31 00:28:27.6	268.220	-0.060	-0.330	0.470
2020/01/31 00:28:27.7	268.230	-0.050	-0.320	0.510
2020/01/31 00:28:27.8	268.230	-0.040	-0.300	0.550
2020/01/31 00:28:27.9	268.240	-0.030	-0.280	0.590
2020/01/31 00:28:28.0	268.240	-0.020	-0.260	0.630
2020/01/31 00:28:28.1	268.240	-0.010	-0.240	0.670
2020/01/31 00:28:28.2	268.240	-0.000	-0.220	0.710
2020/01/31 00:28:28.3	268.250	0.010	-0.200	0.750
2020/01/31 00:28:28.4	268.250	0.010	-0.180	0.790
2020/01/31 00:28:28.5	268.250	0.020	-0.160	0.830
2020/01/31 00:28:28.6	268.250	0.030	-0.140	0.870
2020/01/31 00:28:28.7	268.250	0.030	-0.120	0.900
2020/01/31 00:28:28.8	268.240	0.040	-0.100	0.940
2020/01/31 00:28:28.9	268.250	0.040	-0.080	0.970
2020/01/31 00:28:29.0	268.250	0.050	-0.060	1.010
2020/01/31 00:28:29.1	268.250	0.050	-0.040	1.040
2020/01/31 00:28:29.2	268.250	0.060	-0.020	1.060
2020/01/31 00:28:29.3	268.240	0.060	-0.010	1.090
2020/01/31 00:28:29.4	268.240	0.070	0.010	1.110
2020/01/31 00:28:29.5	268.240	0.070	0.020	1.140
2020/01/31 00:28:29.6	268.230	0.080	0.040	1.160
2020/01/31 00:28:29.7	268.230	0.080	0.050	1.170
2020/01/31 00:28:29.8	268.230	0.090	0.060	1.190
2020/01/31 00:28:29.9	268.210	0.100	0.070	1.200
2020/01/31 00:28:30.0	268.210	0.100	0.070	1.210
2020/01/31 00:28:30.1	268.210	0.110	0.080	1.210
2020/01/31 00:28:30.2	268.200	0.120	0.080	1.220
2020/01/31 00:28:30.3	268.200	0.120	0.080	1.220
2020/01/31 00:28:30.4	268.200	0.130	0.080	1.210
2020/01/31 00:28:30.5	268.190	0.140	0.080	1.210
2020/01/31 00:28:30.6	268.190	0.150	0.070	1.200
2020/01/31 00:28:30.7	268.190	0.160	0.060	1.190
2020/01/31 00:28:30.8	268.190	0.160	0.050	1.180
2020/01/31 00:28:30.9	268.180	0.170	0.040	1.160
2020/01/31 00:28:31.0	268.180	0.180	0.030	1.150
2020/01/31 00:28:31.1	268.180	0.190	0.010	1.130
2020/01/31 00:28:31.2	268.180	0.200	-0.010	1.110
2020/01/31 00:28:31.3	268.170	0.210	-0.020	1.100
2020/01/31 00:28:31.4	268.170	0.210	-0.040	1.080
2020/01/31 00:28:31.5	268.170	0.220	-0.060	1.060
2020/01/31 00:28:31.6	268.160	0.230	-0.090	1.040
2020/01/31 00:28:31.7	268.160	0.240	-0.110	1.030
2020/01/31 00:28:31.8	268.160	0.250	-0.130	1.010
2020/01/31 00:28:31.9	268.150	0.250	-0.160	0.990
2020/01/31 00:28:32.0	268.150	0.260	-0.180	0.970
2020/01/31 00:28:32.1	268.140	0.260	-0.200	0.960
2020/01/31 00:28:32.2	268.140	0.270	-0.220	0.940
2020/01/31 00:28:32.3	268.130	0.270	-0.250	0.930
2020/01/31 00:28:32.4	268.120	0.280	-0.270	0.910
2020/01/31 00:28:32.5	268.120	0.280	-0.290	0.900
2020/01/31 00:28:32.6	268.110	0.280	-0.300	0.890
2020/01/31 00:28:32.7	268.100	0.280	-0.320	0.880
2020/01/31 00:28:32.8	268.090	0.280	-0.340	0.860
2020/01/31 00:28:32.9	268.100	0.280	-0.350	0.850
2020/01/31 00:28:33.0	268.090	0.280	-0.360	0.840
2020/01/31 00:28:33.1	268.090	0.270	-0.380	0.830
2020/01/31 00:28:33.2	268.080	0.270	-0.390	0.830
2020/01/31 00:28:33.3	268.070	0.260	-0.400	0.820
2020/01/31 00:28:33.4	268.070	0.260	-0.400	0.820
2020/01/31 00:28:33.5	268.060	0.250	-0.410	0.820
2020/01/31 00:28:33.6	268.050	0.240	-0.410	0.810
2020/01/31 00:28:33.7	268.050	0.230	-0.410	0.810
2020/01/31 00:28:33.8	268.050	0.220	-0.410	0.810
2020/01/31 00:28:33.9	268.050	0.210	-0.420	0.820
2020/01/31 00:28:34.0	268.050	0.200	-0.420	0.820
2020/01/31 00:28:34.1	268.050	0.190	-0.410	0.820
2020/01/31 00:28:34.2	268.050	0.170	-0.410	0.820
2020/01/31 00:28:34.3	268.050	0.160	-0.410	0.820
2020/01/31 00:28:34.4	268.060	0.140	-0.400	0.830
2020/01/31 00:28:34.5	268.060	0.130	-0.400	0.830
2020/01/31 00:28:34.6	268.060	0.120	-0.390	0.840
2020/01/31 00:28:34.7	268.070	0.100	-0.390	0.840
2020/01/31 00:28:34.8	268.070	0.090	-0.390	0.850
2020/01/31 00:28:34.9	268.070	0.070	-0.380	0.860
2020/01/31 00:28:35.0	268.080	0.060	-0.380	0.870
2020/01/31 00:28:35.1	268.090	0.040	-0.370	0.880
2020/01/31 00:28:35.2	268.090	0.030	-0.370	0.890
2020/01/31 00:28:35.3	268.100	0.020	-0.370	0.900
2020/01/31 00:28:35.4	268.110	0.000	-0.370	0.920
2020/01/31 00:28:35.5	268.110	-0.010	-0.370	0.930
2020/01/31 00:28:35.6	268.120	-0.020	-0.380	0.950
2020/01/31 00:28:35.7	268.130	-0.030	-0.380	0.960
2020/01/31 00:28:35.8	268.130	-0.040	-0.380	0.980
2020/01/31 00:28:35.9	268.130	-0.050	-0.390	0.990
2020/01/31 00:28:36.0	268.140	-0.060	-0.390	1.010
2020/01/31 00:28:36.1	268.150	-0.070	-0.400	1.030
2020/01/31 00:28:36.2	268.150	-0.080	-0.410	1.050
2020/01/31 00:28:36.3	268.160	-0.090	-0.420	1.070
2020/01/31 00:28:36.4	268.160	-0.090	-0.430	1.080
2020/01/31 00:28:36.5	268.170	-0.100	-0.440	1.100
2020/01/31 00:28:36.6	268.170	-0.110	-0.450	1.120
2020/01/31 00:28:36.7	268.170	-0.110	-0.460	1.140
2020/01/31 00:28:36.8	268.180	-0.120	-0.470	1.160
2020/01/31 00:28:36.9	268.190	-0.120	-0.480	1.180
2020/01/31 00:28:37.0	268.190	-0.130	-0.490	1.200
2020/01/31 00:28:37.1	268.190	-0.130	-0.500	1.220
2020/01/31 00:28:37.2	268.190	-0.130	-0.520	1.240
2020/01/31 00:28:37.3	268.190	-0.140	-0.530	1.260
2020/01/31 00:28:37.4	268.190	-0.140	-0.540	1.280
2020/01/31 00:28:37.5	268.180	-0.140	-0.550	1.300
2020/01/31 00:28:37.6	268.180	-0.150	-0.560	1.320
2020/01/31 00:28:37.7	268.170	-0.150	-0.570	1.340
2020/01/31 00:28:37.8	268.170	-0.150	-0.580	1.360
2020/01/31 00:28:37.9	268.150	-0.150	-0.590	1.390
2020/01/31 00:28:38.0	268.150	-0.160	-0.600	1.400
2020/01/31 00:28:38.1	268.140	-0.160	-0.610	1.420
2020/01/31 00:28:38.2	268.140	-0.160	-0.620	1.440
2020/01/31 00:28:38.3	268.130	-0.160	-0.620	1.450
2020/01/31 00:28:38.4	268.130	-0.170	-0.630	1.470
2020/01/31 00:28:38.5	268.120	-0.170	-0.630	1.480
2020/01/31 00:28:38.6	268.120	-0.170	-0.630	1.490
2020/01/31 00:28:38.7	268.110	-0.170	-0.640	1.500
2020/01/31 00:28:38.8	268.110	-0.170	-0.640	1.510
2020/01/31 00:28:38.9	268.120	-0.180	-0.640	1.510
2020/01/31 00:28:39.0	268.110	-0.180	-0.640	1.520
2020/01/31 00:28:39.1	268.110	-0.180	-0.630	1.520
2020/01/31 00:28:39.2	268.110	-0.180	-0.630	1.520
2020/01/31 00:28:39.3	268.100	-0.180	-0.630	1.520
2020/01/31 00:28:39.4	268.100	-0.180	-0.620	1.520
2020/01/31 00:28:39.5	268.100	-0.180	-0.620	1.520
2020/01/31 00:28:39.6	268.090	-0.180	-0.610	1.520
2020/01/31 00:28:39.7	268.090	-0.170	-0.610	1.520
2020/01/31 00:28:39.8	268.090	-0.170	-0.600	1.510
2020/01/31 00:28:39.9	268.090	-0.170	-0.580	1.510
2020/01/31 00:28:40.0	268.090	-0.160	-0.570	1.500
2020/01/31 00:28:40.1	268.090	-0.160	-0.560	1.490
2020/01/31 00:28:40.2	268.080	-0.160	-0.550	1.480
2020/01/31 00:28:40.3	268.080	-0.150	-0.530	1.470
2020/01/31 00:28:40.4	268.080	-0.150	-0.520	1.450
2020/01/31 00:28:40.5	268.090	-0.140	-0.500	1.440
2020/01/31 00:28:40.6	268.090	-0.130	-0.480	1.420
2020/01/31 00:28:40.7	268.090	-0.130	-0.470	1.400
2020/01/31 00:28:40.8	268.090	-0.120	-0.440	1.390
2020/01/31 00:28:40.9	268.080	-0.110	-0.420	1.370
2020/01/31 00:28:41.0	268.090	-0.110	-0.400	1.350
2020/01/31 00:28:41.1	268.090	-0.100	-0.380	1.330
2020/01/31 00:28:41.2	268.100	-0.100	-0.350	1.300
2020/01/31 00:28:41.3	268.110	-0.090	-0.330	1.280
2020/01/31 00:28:41.4	268.120	-0.090	-0.300	1.260
2020/01/31 00:28:41.5	268.130	-0.080	-0.270	1.230
2020/01/31 00:28:41.6	268.140	-0.080	-0.240	1.210
2020/01/31 00:28:41.7	268.160	-0.080	-0.210	1.180
2020/01/31 00:28:41.8	268.170	-0.070	-0.180	1.160
2020/01/31 00:28:41.9	268.170	-0.070	-0.160	1.130
2020/01/31 00:28:42.0	268.190	-0.070	-0.130	1.100
2020/01/31 00:28:42.1	268.210	-0.070	-0.100	1.070
2020/01/31 00:28:42.2	268.230	-0.070	-0.070	1.040
2020/01/31 00:28:42.3	268.250	-0.070	-0.040	1.010
2020/01/31 00:28:42.4	268.270	-0.070	-0.010	0.980
2020/01/31 00:28:42.5	268.290	-0.080	0.020	0.940
2020/01/31 00:28:42.6	268.320	-0.080	0.040	0.910
2020/01/31 00:28:42.7	268.350	-0.080	0.070	0.880
2020/01/31 00:28:42.8	268.370	-0.090	0.090	0.840
2020/01/31 00:28:42.9	268.400	-0.090	0.110	0.810
2020/01/31 00:28:43.0	268.420	-0.100	0.130	0.770
2020/01/31 00:28:43.1	268.450	-0.100	0.150	0.730
2020/01/31 00:28:43.2	268.480	-0.110	0.170	0.700
2020/01/31 00:28:43.3	268.510	-0.110	0.180	0.660
2020/01/31 00:28:43.4	268.550	-0.120	0.200	0.630
2020/01/31 00:28:43.5	268.580	-0.120	0.210	0.590
2020/01/31 00:28:43.6	268.610	-0.130	0.220	0.550
2020/01/31 00:28:43.7	268.650	-0.130	0.220	0.520
2020/01/31 00:28:43.8	268.680	-0.140	0.230	0.480
2020/01/31 00:28:43.9	268.710	-0.140	0.230	0.460
2020/01/31 00:28:44.0	268.750	-0.140	0.230	0.420
2020/01/31 00:28:44.1	268.780	-0.150	0.220	0.390
2020/01/31 00:28:44.2	268.820	-0.150	0.220	0.360
2020/01/31 00:28:44.3	268.860	-0.150	0.210	0.330
2020/01/31 00:28:44.4	268.890	-0.140	0.200	0.300
2020/01/31 00:28:44.5	268.930	-0.140	0.190	0.270
2020/01/31 00:28:44.6	268.970	-0.140	0.180	0.250
2020/01/31 00:28:44.7	269.010	-0.130	0.160	0.220
2020/01/31 00:28:44.8	269.040	-0.130	0.150	0.200
2020/01/31 00:28:44.9	269.090	-0.120	0.130	0.180
2020/01/31 00:28:45.0	269.130	-0.110	0.110	0.160
2020/01/31 00:28:45.1	269.170	-0.100	0.090	0.140
2020/01/31 00:28:45.2	269.200	-0.080	0.070	0.130
2020/01/31 00:28:45.3	269.240	-0.070	0.050	0.120
2020/01/31 00:28:45.4	269.270	-0.050	0.020	0.110
2020/01/31 00:28:45.5	269.310	-0.040	-0.000	0.110
2020/01/31 00:28:45.6	269.340	-0.020	-0.030	0.110
2020/01/31 00:28:45.7	269.370	-0.000	-0.060	0.110
2020/01/31 00:28:45.8	269.400	0.020	-0.080	0.120
2020/01/31 00:28:45.9	269.410	0.040	-0.110	0.130
2020/01/31 00:28:46.0	269.440	0.060	-0.140	0.140
2020/01/31 00:28:46.1	269.460	0.080	-0.170	0.160
2020/01/31 00:28:46.2	269.480	0.110	-0.200	0.190
2020/01/31 00:28:46.3	269.500	0.130	-0.230	0.210
2020/01/31 00:28:46.4	269.520	0.150	-0.260	0.240
2020/01/31 00:28:46.5	269.530	0.180	-0.290	0.280
2020/01/31 00:28:46.6	269.540	0.200	-0.320	0.320
2020/01/31 00:28:46.7	269.550	0.220	-0.350	0.360
2020/01/31 00:28:46.8	269.560	0.250	-0.370	0.400
2020/01/31 00:28:46.9	269.550	0.270	-0.400	0.440
2020/01/31 00:28:47.0	269.560	0.290	-0.430	0.490
2020/01/31 00:28:47.1	269.560	0.310	-0.450	0.530
2020/01/31 00:28:47.2	269.560	0.330	-0.470	0.580
2020/01/31 00:28:47.3	269.550	0.340	-0.490	0.630
2020/01/31 00:28:47.4	269.550	0.360	-0.510	0.680
2020/01/31 00:28:47.5	269.540	0.370	-0.530	0.730
2020/01/31 00:28:47.6	269.530	0.380	-0.550	0.780
2020/01/31 00:28:47.7	269.520	0.390	-0.560	0.830
2020/01/31 00:28:47.8	269.510	0.400	-0.570	0.880
2020/01/31 00:28:47.9	269.500	0.410	-0.580	0.930
2020/01/31 00:28:48.0	269.480	0.410	-0.590	0.980
2020/01/31 00:28:48.1	269.470	0.410	-0.600	1.030
2020/01/31 00:28:48.2	269.450	0.410	-0.610	1.080
2020/01/31 00:28:48.3	269.420	0.410	-0.610	1.120
2020/01/31 00:28:48.4	269.400	0.400	-0.610	1.160
2020/01/31 00:28:48.5	269.370	0.390	-0.610	1.210
2020/01/31 00:28:48.6	269.350	0.380	-0.610	1.250
2020/01/31 00:28:48.7	269.320	0.370	-0.610	1.290
2020/01/31 00:28:48.8	269.290	0.360	-0.610	1.320
2020/01/31 00:28:48.9	269.250	0.350	-0.600	1.360
2020/01/31 00:28:49.0	269.220	0.330	-0.600	1.390
2020/01/31 00:28:49.1	269.190	0.310	-0.590	1.420
2020/01/31 00:28:49.2	269.150	0.300	-0.590	1.440
2020/01/31 00:28:49.3	269.120	0.280	-0.580	1.460
2020/01/31 00:28:49.4	269.080	0.260	-0.570	1.480
2020/01/31 00:28:49.5	269.050	0.240	-0.560	1.490
2020/01/31 00:28:49.6	269.020	0.220	-0.550	1.500
2020/01/31 00:28:49.7	268.990	0.190	-0.540	1.510
2020/01/31 00:28:49.8	268.950	0.170	-0.520	1.510
2020/01/31 00:28:49.9	268.930	0.150	-0.510	1.510
2020/01/31 00:28:50.0	268.910	0.130	-0.500	1.500
2020/01/31 00:28:50.1	268.880	0.100	-0.490	1.490
2020/01/31 00:28:50.2	268.850	0.080	-0.470	1.480
2020/01/31 00:28:50.3	268.830	0.060	-0.460	1.460
2020/01/31 00:28:50.4	268.810	0.040	-0.440	1.440
2020/01/31 00:28:50.5	268.790	0.020	-0.430	1.420
2020/01/31 00:28:50.6	268.770	0.000	-0.420	1.400
2020/01/31 00:28:50.7	268.760	-0.020	-0.400	1.370
2020/01/31 00:28:50.8	268.750	-0.030	-0.390	1.340
2020/01/31 00:28:50.9	268.740	-0.050	-0.380	1.300
2020/01/31 00:28:51.0	268.730	-0.060	-0.370	1.270
2020/01/31 00:28:51.1	268.720	-0.080	-0.350	1.230
2020/01/31 00:28:51.2	268.710	-0.090	-0.350	1.200
2020/01/31 00:28:51.3	268.710	-0.100	-0.340	1.160
2020/01/31 00:28:51.4	268.700	-0.110	-0.330	1.110
2020/01/31 00:28:51.5	268.700	-0.120	-0.320	1.070
2020/01/31 00:28:51.6	268.700	-0.120	-0.320	1.030
2020/01/31 00:28:51.7	268.700	-0.130	-0.320	0.980
2020/01/31 00:28:51.8	268.700	-0.130	-0.310	0.940
2020/01/31 00:28:51.9	268.700	-0.140	-0.310	0.890
2020/01/31 00:28:52.0	268.700	-0.140	-0.310	0.840
2020/01/31 00:28:52.1	268.710	-0.140	-0.320	0.800
2020/01/31 00:28:52.2	268.710	-0.140	-0.320	0.750
2020/01/31 00:28:52.3	268.720	-0.140	-0.320	0.700
2020/01/31 00:28:52.4	268.720	-0.130	-0.320	0.660
2020/01/31 00:28:52.5	268.730	-0.130	-0.330	0.610
2020/01/31 00:28:52.6	268.740	-0.130	-0.330	0.560
2020/01/31 00:28:52.7	268.750	-0.120	-0.340	0.520
2020/01/31 00:28:52.8	268.760	-0.120	-0.340	0.480
2020/01/31 00:28:52.9	268.790	-0.110	-0.350	0.430
2020/01/31 00:28:53.0	268.800	-0.110	-0.350	0.390
2020/01/31 00:28:53.1	268.810	-0.100	-0.360	0.350
2020/01/31 00:28:53.2	268.830	-0.090	-0.360	0.310
2020/01/31 00:28:53.3	268.850	-0.090	-0.360	0.270
2020/01/31 00:28:53.4	268.860	-0.080	-0.370	0.240
2020/01/31 00:28:53.5	268.880	-0.080	-0.370	0.200
2020/01/31 00:28:53.6	268.900	-0.070	-0.370	0.160
2020/01/31 00:28:53.7	268.920	-0.070	-0.370	0.130
2020/01/31 00:28:53.8	268.940	-0.070	-0.370	0.100
2020/01/31 00:28:53.9	268.960	-0.060	-0.370	0.070
2020/01/31 00:28:54.0	268.990	-0.060	-0.370	0.040
2020/01/31 00:28:54.1	269.010	-0.060	-0.370	0.020
2020/01/31 00:28:54.2	269.030	-0.060	-0.360	-0.010
2020/01/31 00:28:54.3	269.050	-0.060	-0.360	-0.030
2020/01/31 00:28:54.4	269.070	-0.060	-0.350	-0.050
2020/01/31 00:28:54.5	269.100	-0.070	-0.340	-0.060
2020/01/31 00:28:54.6	269.120	-0.070	-0.330	-0.080
2020/01/31 00:28:54.7	269.140	-0.080	-0.320	-0.090
2020/01/31 00:28:54.8	269.170	-0.080	-0.300	-0.090
2020/01/31 00:28:54.9	269.200	-0.090	-0.290	-0.100
2020/01/31 00:28:55.0	269.230	-0.100	-0.270	-0.110
2020/01/31 00:28:55.1	269.250	-0.110	-0.250	-0.110
2020/01/31 00:28:55.2	269.270	-0.120	-0.240	-0.110
2020/01/31 00:28:55.3	269.300	-0.130	-0.220	-0.100
2020/01/31 00:28:55.4	269.320	-0.150	-0.210	-0.100
2020/01/31 00:28:55.5	269.340	-0.160	-0.190	-0.090
2020/01/31 00:28:55.6	269.360	-0.180	-0.170	-0.090
2020/01/31 00:28:55.7	269.380	-0.190	-0.160	-0.080
2020/01/31 00:28:55.8	269.410	-0.210	-0.140	-0.070
2020/01/31 00:28:55.9	269.410	-0.220	-0.120	-0.050
2020/01/31 00:28:56.0	269.430	-0.240	-0.110	-0.040
2020/01/31 00:28:56.1	269.450	-0.260	-0.090	-0.030
2020/01/31 00:28:56.2	269.470	-0.270	-0.080	-0.010
2020/01/31 00:28:56.3	269.490	-0.290	-0.070	0.010
2020/01/31 00:28:56.4	269.500	-0.300	-0.060	0.020
2020/01/31 00:28:56.5	269.520	-0.320	-0.050	0.040
2020/01/31 00:28:56.6	269.540	-0.330	-0.040	0.060
2020/01/31 00:28:56.7	269.550	-0.350	-0.030	0.080
2020/01/31 00:28:56.8	269.570	-0.360	-0.030	0.100
2020/01/31 00:28:56.9	269.580	-0.370	-0.020	0.120
2020/01/31 00:28:57.0	269.590	-0.380	-0.030	0.150
2020/01/31 00:28:57.1	269.600	-0.390	-0.030	0.170
2020/01/31 00:28:57.2	269.610	-0.390	-0.030	0.200
2020/01/31 00:28:57.3	269.620	-0.400	-0.040	0.230
2020/01/31 00:28:57.4	269.630	-0.400	-0.050	0.260
2020/01/31 00:28:57.5	269.640	-0.400	-0.060	0.290
2020/01/31 00:28:57.6	269.650	-0.400	-0.080	0.320
2020/01/31 00:28:57.7	269.650	-0.390	-0.090	0.350
2020/01/31 00:28:57.8	269.660	-0.390	-0.110	0.380
2020/01/31 00:28:57.9	269.670	-0.380	-0.140	0.420
2020/01/31 00:28:58.0	269.670	-0.370	-0.160	0.450
2020/01/31 00:28:58.1	269.680	-0.350	-0.190	0.480
2020/01/31 00:28:58.2	269.680	-0.340	-0.210	0.520
2020/01/31 00:28:58.3	269.680	-0.320	-0.240	0.550
2020/01/31 00:28:58.4	269.680	-0.300	-0.270	0.580
2020/01/31 00:28:58.5	269.680	-0.280	-0.310	0.620
2020/01/31 00:28:58.6	269.680	-0.250	-0.340	0.650
2020/01/31 00:28:58.7	269.670	-0.230	-0.370	0.680
2020/01/31 00:28:58.8	269.670	-0.200	-0.410	0.710
2020/01/31 00:28:58.9	269.670	-0.170	-0.440	0.740
2020/01/31 00:28:59.0	269.660	-0.140	-0.480	0.770
2020/01/31 00:28:59.1	269.650	-0.110	-0.510	0.810
2020/01/31 00:28:59.2	269.650	-0.080	-0.550	0.840
2020/01/31 00:28:59.3	269.640	-0.050	-0.580	0.870
2020/01/31 00:28:59.4	269.630	-0.020	-0.610	0.900
2020/01/31 00:28:59.5	269.620	0.020	-0.640	0.930
2020/01/31 00:28:59.6	269.610	0.050	-0.660	0.960
2020/01/31 00:28:59.7	269.600	0.080	-0.690	1.000
2020/01/31 00:28:59.8	269.590	0.120	-0.710	1.030
2020/01/31 00:28:59.9	269.570	0.150	-0.730	1.060
2020/01/31 00:29:00.0	269.560	0.180	-0.740	1.090
2020/01/31 00:29:00.1	269.550	0.210	-0.750	1.120
2020/01/31 00:29:00.2	269.530	0.240	-0.750	1.160
2020/01/31 00:29:00.3	269.520	0.270	-0.760	1.190
2020/01/31 00:29:00.4	269.500	0.290	-0.750	1.220
2020/01/31 00:29:00.5	269.480	0.310	-0.750	1.250
2020/01/31 00:29:00.6	269.470	0.330	-0.740	1.280
2020/01/31 00:29:00.7	269.450	0.350	-0.720	1.310
2020/01/31 00:29:00.8	269.430	0.370	-0.700	1.340
2020/01/31 00:29:00.9	269.400	0.380	-0.680	1.360
2020/01/31 00:29:01.0	269.390	0.390	-0.650	1.390
2020/01/31 00:29:01.1	269.370	0.400	-0.620	1.410
2020/01/31 00:29:01.2	269.350	0.400	-0.580	1.430
2020/01/31 00:29:01.3	269.330	0.400	-0.540	1.450
2020/01/31 00:29:01.4	269.310	0.400	-0.500	1.470
2020/01/31 00:29:01.5	269.300	0.390	-0.460	1.490
2020/01/31 00:29:01.6	269.280	0.380	-0.410	1.500
2020/01/31 00:29:01.7	269.260	0.370	-0.360	1.510
2020/01/31 00:29:01.8	269.250	0.360	-0.320	1.520
2020/01/31 00:29:01.9	269.240	0.340	-0.270	1.530
2020/01/31 00:29:02.0	269.220	0.320	-0.220	1.530
2020/01/31 00:29:02.1	269.210	0.300	-0.170	1.530
2020/01/31 00:29:02.2	269.200	0.280	-0.120	1.520
2020/01/31 00:29:02.3	269.190	0.250	-0.070	1.510
2020/01/31 00:29:02.4	269.180	0.230	-0.020	1.500
2020/01/31 00:29:02.5	269.180	0.200	0.020	1.480
2020/01/31 00:29:02.6	269.170	0.170	0.070	1.460
2020/01/31 00:29:02.7	269.170	0.140	0.110	1.430
2020/01/31 00:29:02.8	269.160	0.110	0.140	1.410
2020/01/31 00:29:02.9	269.170	0.090	0.180	1.380
2020/01/31 00:29:03.0	269.170	0.060	0.210	1.340
2020/01/31 00:29:03.1	269.170	0.030	0.230	1.310
2020/01/31 00:29:03.2	269.170	0.000	0.250	1.270
2020/01/31 00:29:03.3	269.170	-0.020	0.270	1.220
2020/01/31 00:29:03.4	269.170	-0.050	0.280	1.180
2020/01/31 00:29:03.5	269.180	-0.070	0.290	1.130
2020/01/31 00:29:03.6	269.180	-0.090	0.290	1.090
2020/01/31 00:29:03.7	269.190	-0.110	0.290	1.040
2020/01/31 00:29:03.8	269.190	-0.130	0.280	0.980
2020/01/31 00:29:03.9	269.200	-0.140	0.270	0.930
2020/01/31 00:29:04.0	269.200	-0.150	0.250	0.880
2020/01/31 00:29:04.1	269.210	-0.160	0.230	0.830
2020/01/31 00:29:04.2	269.220	-0.170	0.210	0.770
2020/01/31 00:29:04.3	269.230	-0.170	0.180	0.720
2020/01/31 00:29:04.4	269.240	-0.180	0.150	0.660
2020/01/31 00:29:04.5	269.260	-0.180	0.110	0.610
2020/01/31 00:29:04.6	269.270	-0.170	0.070	0.550
2020/01/31 00:29:04.7	269.280	-0.170	0.030	0.500
2020/01/31 00:29:04.8	269.290	-0.160	-0.010	0.450
2020/01/31 00:29:04.9	269.310	-0.150	-0.050	0.400
2020/01/31 00:29:05.0	269.320	-0.140	-0.100	0.360
2020/01/31 00:29:05.1	269.340	-0.130	-0.140	0.320
2020/01/31 00:29:05.2	269.350	-0.120	-0.190	0.280
2020/01/31 00:29:05.3	269.360	-0.100	-0.230	0.250
2020/01/31 00:29:05.4	269.370	-0.090	-0.280	0.220
2020/01/31 00:29:05.5	269.380	-0.070	-0.320	0.190
2020/01/31 00:29:05.6	269.390	-0.050	-0.360	0.170
2020/01/31 00:29:05.7	269.400	-0.030	-0.400	0.150
2020/01/31 00:29:05.8	269.400	-0.010	-0.440	0.140
2020/01/31 00:29:05.9	269.410	0.000	-0.480	0.140
2020/01/31 00:29:06.0	269.410	0.020	-0.510	0.130
2020/01/31 00:29:06.1	269.410	0.040	-0.540	0.140
2020/01/31 00:29:06.2	269.410	0.060	-0.560	0.140
2020/01/31 00:29:06.3	269.410	0.070	-0.590	0.150
2020/01/31 00:29:06.4	269.410	0.090	-0.610	0.160
2020/01/31 00:29:06.5	269.400	0.100	-0.620	0.180
2020/01/31 00:29:06.6	269.400	0.110	-0.630	0.200
2020/01/31 00:29:06.7	269.390	0.130	-0.640	0.220
2020/01/31 00:29:06.8	269.380	0.130	-0.650	0.250
2020/01/31 00:29:06.9	269.380	0.140	-0.650	0.270
2020/01/31 00:29:07.0	269.370	0.150	-0.650	0.300
2020/01/31 00:29:07.1	269.360	0.150	-0.650	0.330
2020/01/31 00:29:07.2	269.340	0.160	-0.650	0.360
2020/01/31 00:29:07.3	269.330	0.160	-0.640	0.390
2020/01/31 00:29:07.4	269.320	0.160	-0.630	0.430
2020/01/31 00:29:07.5	269.300	0.160	-0.620	0.460
2020/01/31 00:29:07.6	269.290	0.150	-0.610	0.500
2020/01/31 00:29:07.7	269.270	0.150	-0.590	0.530
2020/01/31 00:29:07.8	269.260	0.140	-0.580	0.570
2020/01/31 00:29:07.9	269.240	0.140	-0.560	0.610
2020/01/31 00:29:08.0	269.230	0.130	-0.540	0.650
2020/01/31 00:29:08.1	269.210	0.120	-0.520	0.690
2020/01/31 00:29:08.2	269.190	0.110	-0.500	0.730
2020/01/31 00:29:08.3	269.180	0.100	-0.480	0.770
2020/01/31 00:29:08.4	269.160	0.090	-0.470	0.800
2020/01/31 00:29:08.5	269.150	0.080	-0.440	0.840
2020/01/31 00:29:08.6	269.130	0.070	-0.430	0.880
2020/01/31 00:29:08.7	269.110	0.060	-0.410	0.910
2020/01/31 00:29:08.8	269.100	0.050	-0.390	0.950
2020/01/31 00:29:08.9	269.070	0.040	-0.370	0.980
2020/01/31 00:29:09.0	269.050	0.030	-0.350	1.010
2020/01/31 00:29:09.1	269.040	0.020	-0.340	1.040
2020/01/31 00:29:09.2	269.020	0.010	-0.320	1.070
2020/01/31 00:29:09.3	269.010	0.000	-0.310	1.090
2020/01/31 00:29:09.4	268.990	-0.000	-0.290	1.110
2020/01/31 00:29:09.5	268.980	-0.010	-0.280	1.130
2020/01/31 00:29:09.6	268.970	-0.010	-0.270	1.150
2020/01/31 00:29:09.7	268.950	-0.020	-0.270	1.160
2020/01/31 00:29:09.8	268.940	-0.020	-0.260	1.170
2020/01/31 00:29:09.9	268.920	-0.020	-0.260	1.170
2020/01/31 00:29:10.0	268.910	-0.020	-0.260	1.180
2020/01/31 00:29:10.1	268.900	-0.020	-0.260	1.180
2020/01/31 00:29:10.2	268.890	-0.010	-0.260	1.170
2020/01/31 00:29:10.3	268.890	-0.010	-0.270	1.170
2020/01/31 00:29:10.4	268.880	-0.010	-0.280	1.160
2020/01/31 00:29:10.5	268.870	-0.000	-0.290	1.150
2020/01/31 00:29:10.6	268.870	0.010	-0.300	1.140
2020/01/31 00:29:10.7	268.870	0.010	-0.310	1.120
2020/01/31 00:29:10.8	268.860	0.020	-0.330	1.110
2020/01/31 00:29:10.9	268.870	0.030	-0.350	1.090
2020/01/31 00:29:11.0	268.860	0.040	-0.360	1.070
2020/01/31 00:29:11.1	268.870	0.050	-0.380	1.050
2020/01/31 00:29:11.2	268.870	0.060	-0.410	1.030
2020/01/31 00:29:11.3	268.870	0.070	-0.430	1.010
2020/01/31 00:29:11.4	268.880	0.080	-0.450	0.990
2020/01/31 00:29:11.5	268.880	0.090	-0.470	0.970
2020/01/31 00:29:11.6	268.890	0.100	-0.490	0.940
2020/01/31 00:29:11.7	268.900	0.100	-0.500	0.920
2020/01/31 00:29:11.8	268.910	0.110	-0.520	0.890
2020/01/31 00:29:11.9	268.920	0.120	-0.540	0.870
2020/01/31 00:29:12.0	268.930	0.120	-0.550	0.850
2020/01/31 00:29:12.1	268.950	0.120	-0.550	0.820
2020/01/31 00:29:12.2	268.960	0.120	-0.560	0.800
2020/01/31 00:29:12.3	268.980	0.120	-0.560	0.770
2020/01/31 00:29:12.4	269.000	0.120	-0.560	0.750
2020/01/31 00:29:12.5	269.020	0.120	-0.560	0.730
2020/01/31 00:29:12.6	269.040	0.110	-0.550	0.700
2020/01/31 00:29:12.7	269.060	0.110	-0.540	0.680
2020/01/31 00:29:12.8	269.090	0.100	-0.520	0.660
2020/01/31 00:29:12.9	269.120	0.090	-0.500	0.630
2020/01/31 00:29:13.0	269.150	0.070	-0.480	0.610
2020/01/31 00:29:13.1	269.180	0.060	-0.450	0.590
2020/01/31 00:29:13.2	269.210	0.040	-0.430	0.570
2020/01/31 00:29:13.3	269.240	0.020	-0.400	0.550
2020/01/31 00:29:13.4	269.270	0.010	-0.360	0.530
2020/01/31 00:29:13.5	269.300	-0.010	-0.330	0.520
2020/01/31 00:29:13.6	269.330	-0.040	-0.290	0.500
2020/01/31 00:29:13.7	269.360	-0.060	-0.260	0.490
2020/01/31 00:29:13.8	269.390	-0.080	-0.220	0.470
2020/01/31 00:29:13.9	269.420	-0.110	-0.190	0.460
2020/01/31 00:29:14.0	269.450	-0.130	-0.160	0.450
2020/01/31 00:29:14.1	269.480	-0.150	-0.120	0.440
2020/01/31 00:29:14.2	269.510	-0.180	-0.090	0.440
2020/01/31 00:29:14.3	269.540	-0.200	-0.060	0.430
2020/01/31 00:29:14.4	269.570	-0.230	-0.030	0.430
2020/01/31 00:29:14.5	269.590	-0.250	-0.000	0.430
2020/01/31 00:29:14.6	269.620	-0.270	0.020	0.430
2020/01/31 00:29:14.7	269.640	-0.290	0.040	0.430
2020/01/31 00:29:14.8	269.660	-0.310	0.060	0.440
2020/01/31 00:29:14.9	269.690	-0.330	0.070	0.440
2020/01/31 00:29:15.0	269.710	-0.350	0.080	0.450
2020/01/31 00:29:15.1	269.730	-0.360	0.090	0.460
2020/01/31 00:29:15.2	269.750	-0.370	0.090	0.480
2020/01/31 00:29:15.3	269.770	-0.380	0.090	0.490
2020/01/31 00:29:15.4	269.790	-0.390	0.090	0.510
2020/01/31 00:29:15.5	269.800	-0.400	0.080	0.520
2020/01/31 00:29:15.6	269.820	-0.400	0.070	0.540
2020/01/31 00:29:15.7	269.830	-0.400	0.060	0.570
2020/01/31 00:29:15.8	269.840	-0.400	0.040	0.590
2020/01/31 00:29:15.9	269.860	-0.390	0.020	0.610
2020/01/31 00:29:16.0	269.870	-0.390	-0.000	0.640
2020/01/31 00:29:16.1	269.880	-0.380	-0.020	0.660
2020/01/31 00:29:16.2	269.890	-0.370	-0.050	0.690
2020/01/31 00:29:16.3	269.890	-0.350	-0.080	0.710
2020/01/31 00:29:16.4	269.900	-0.340	-0.110	0.740
2020/01/31 00:29:16.5	269.900	-0.320	-0.130	0.760
2020/01/31 00:29:16.6	269.900	-0.300	-0.160	0.780
2020/01/31 00:29:16.7	269.900	-0.280	-0.200	0.810
2020/01/31 00:29:16.8	269.900	-0.250	-0.230	0.830
2020/01/31 00:29:16.9	269.900	-0.230	-0.260	0.850
2020/01/31 00:29:17.0	269.900	-0.210	-0.280	0.870
2020/01/31 00:29:17.1	269.890	-0.180	-0.310	0.880
2020/01/31 00:29:17.2	269.880	-0.150	-0.340	0.900
2020/01/31 00:29:17.3	269.880	-0.130	-0.370	0.920
2020/01/31 00:29:17.4	269.870	-0.100	-0.390	0.940
2020/01/31 00:29:17.5	269.860	-0.070	-0.410	0.950
2020/01/31 00:29:17.6	269.850	-0.050	-0.430	0.970
2020/01/31 00:29:17.7	269.830	-0.020	-0.450	0.990
2020/01/31 00:29:17.8	269.820	0.010	-0.470	1.000
2020/01/31 00:29:17.9	269.800	0.030	-0.480	1.020
2020/01/31 00:29:18.0	269.780	0.060	-0.490	1.030
2020/01/31 00:29:18.1	269.770	0.080	-0.500	1.050
2020/01/31 00:29:18.2	269.750	0.100	-0.500	1.060
2020/01/31 00:29:18.3	269.730	0.120	-0.510	1.080
2020/01/31 00:29:18.4	269.700	0.140	-0.510	1.090
2020/01/31 00:29:18.5	269.680	0.150	-0.510	1.110
2020/01/31 00:29:18.6	269.650	0.170	-0.510	1.130
2020/01/31 00:29:18.7	269.630	0.180	-0.500	1.140
2020/01/31 00:29:18.8	269.600	0.190	-0.500	1.160
2020/01/31 00:29:18.9	269.570	0.200	-0.490	1.180
2020/01/31 00:29:19.0	269.540	0.210	-0.480	1.200
2020/01/31 00:29:19.1	269.510	0.220	-0.470	1.210
2020/01/31 00:29:19.2	269.480	0.220	-0.460	1.230
2020/01/31 00:29:19.3	269.450	0.220	-0.450	1.250
2020/01/31 00:29:19.4	269.420	0.220	-0.440	1.270
2020/01/31 00:29:19.5	269.390	0.220	-0.430	1.280
2020/01/31 00:29:19.6	269.360	0.220	-0.410	1.300
2020/01/31 00:29:19.7	269.330	0.220	-0.400	1.320
2020/01/31 00:29:19.8	269.300	0.210	-0.390	1.330
2020/01/31 00:29:19.9	269.270	0.210	-0.370	1.350
2020/01/31 00:29:20.0	269.240	0.200	-0.360	1.360
2020/01/31 00:29:20.1	269.220	0.190	-0.340	1.370
2020/01/31 00:29:20.2	269.190	0.190	-0.330	1.390
2020/01/31 00:29:20.3	269.160	0.180	-0.320	1.400
2020/01/31 00:29:20.4	269.130	0.170	-0.300	1.410
2020/01/31 00:29:20.5	269.110	0.160	-0.290	1.410
2020/01/31 00:29:20.6	269.080	0.150	-0.270	1.420
2020/01/31 00:29:20.7	269.050	0.140	-0.260	1.430
2020/01/31 00:29:20.8	269.030	0.130	-0.250	1.430
2020/01/31 00:29:20.9	269.000	0.120	-0.240	1.440
2020/01/31 00:29:21.0	268.980	0.110	-0.230	1.440
2020/01/31 00:29:21.1	268.960	0.100	-0.220	1.440
2020/01/31 00:29:21.2	268.940	0.100	-0.210	1.450
2020/01/31 00:29:21.3	268.920	0.090	-0.200	1.450
2020/01/31 00:29:21.4	268.900	0.080	-0.190	1.450
2020/01/31 00:29:21.5	268.880	0.080	-0.180	1.450
2020/01/31 00:29:21.6	268.870	0.070	-0.180	1.450
2020/01/31 00:29:21.7	268.850	0.070	-0.180	1.440
2020/01/31 00:29:21.8	268.840	0.070	-0.170	1.440
2020/01/31 00:29:21.9	268.820	0.070	-0.170	1.430
2020/01/31 00:29:22.0	268.810	0.070	-0.170	1.420
2020/01/31 00:29:22.1	268.800	0.070	-0.170	1.410
2020/01/31 00:29:22.2	268.790	0.070	-0.170	1.400
2020/01/31 00:29:22.3	268.780	0.080	-0.180	1.390
2020/01/31 00:29:22.4	268.780	0.080	-0.180	1.370
2020/01/31 00:29:22.5	268.770	0.090	-0.190	1.350
2020/01/31 00:29:22.6	268.770	0.100	-0.190	1.330
2020/01/31 00:29:22.7	268.770	0.110	-0.200	1.310
2020/01/31 00:29:22.8	268.770	0.120	-0.210	1.290
2020/01/31 00:29:22.9	268.780	0.130	-0.210	1.270
2020/01/31 00:29:23.0	268.780	0.140	-0.220	1.240
2020/01/31 00:29:23.1	268.790	0.150	-0.230	1.220
2020/01/31 00:29:23.2	268.800	0.160	-0.240	1.190
2020/01/31 00:29:23.3	268.810	0.180	-0.250	1.160
2020/01/31 00:29:23.4	268.820	0.190	-0.260	1.140
2020/01/31 00:29:23.5	268.830	0.200	-0.270	1.110
2020/01/31 00:29:23.6	268.850	0.220	-0.280	1.080
2020/01/31 00:29:23.7	268.860	0.230	-0.280	1.050
2020/01/31 00:29:23.8	268.880	0.240	-0.290	1.020
2020/01/31 00:29:23.9	268.910	0.250	-0.300	0.990
2020/01/31 00:29:24.0	268.930	0.260	-0.310	0.960
2020/01/31 00:29:24.1	268.950	0.270	-0.310	0.940
2020/01/31 00:29:24.2	268.970	0.280	-0.320	0.910
2020/01/31 00:29:24.3	268.990	0.290	-0.320	0.880
2020/01/31 00:29:24.4	269.020	0.300	-0.320	0.850
2020/01/31 00:29:24.5	269.040	0.300	-0.320	0.820
2020/01/31 00:29:24.6	269.070	0.300	-0.320	0.800
2020/01/31 00:29:24.7	269.090	0.310	-0.320	0.770
2020/01/31 00:29:24.8	269.120	0.300	-0.320	0.750
2020/01/31 00:29:24.9	269.150	0.300	-0.310	0.720
2020/01/31 00:29:25.0	269.180	0.300	-0.310	0.700
2020/01/31 00:29:25.1	269.210	0.290	-0.310	0.680
2020/01/31 00:29:25.2	269.240	0.280	-0.300	0.660
2020/01/31 00:29:25.3	269.270	0.270	-0.300	0.640
2020/01/31 00:29:25.4	269.290	0.260	-0.290	0.630
2020/01/31 00:29:25.5	269.320	0.240	-0.280	0.610
2020/01/31 00:29:25.6	269.350	0.220	-0.280	0.600
2020/01/31 00:29:25.7	269.380	0.200	-0.270	0.590
2020/01/31 00:29:25.8	269.400	0.180	-0.260	0.570
2020/01/31 00:29:25.9	269.430	0.160	-0.250	0.570
2020/01/31 00:29:26.0	269.460	0.140	-0.250	0.560
2020/01/31 00:29:26.1	269.480	0.110	-0.240	0.550
2020/01/31 00:29:26.2	269.500	0.090	-0.230	0.550
2020/01/31 00:29:26.3	269.530	0.060	-0.220	0.550
2020/01/31 00:29:26.4	269.550	0.030	-0.210	0.540
2020/01/31 00:29:26.5	269.570	0.000	-0.200	0.540
2020/01/31 00:29:26.6	269.590	-0.020	-0.190	0.540
2020/01/31 00:29:26.7	269.610	-0.050	-0.180	0.540
2020/01/31 00:29:26.8	269.630	-0.080	-0.170	0.540
2020/01/31 00:29:26.9	269.650	-0.110	-0.160	0.540
2020/01/31 00:29:27.0	269.670	-0.140	-0.160	0.540
2020/01/31 00:29:27.1	269.680	-0.170	-0.150	0.540
2020/01/31 00:29:27.2	269.700	-0.190	-0.140	0.550
2020/01/31 00:29:27.3	269.710	-0.220	-0.140	0.550
2020/01/31 00:29:27.4	269.730	-0.250	-0.130	0.550
2020/01/31 00:29:27.5	269.740	-0.270	-0.130	0.550
2020/01/31 00:29:27.6	269.750	-0.290	-0.130	0.560
2020/01/31 00:29:27.7	269.770	-0.310	-0.130	0.560
2020/01/31 00:29:27.8	269.780	-0.330	-0.130	0.570
2020/01/31 00:29:27.9	269.800	-0.350	-0.130	0.570
2020/01/31 00:29:28.0	269.810	-0.360	-0.130	0.570
2020/01/31 00:29:28.1	269.820	-0.370	-0.140	0.580
2020/01/31 00:29:28.2	269.820	-0.380	-0.150	0.580
2020/01/31 00:29:28.3	269.830	-0.390	-0.160	0.590
2020/01/31 00:29:28.4	269.840	-0.390	-0.170	0.590
2020/01/31 00:29:28.5	269.840	-0.390	-0.180	0.590
2020/01/31 00:29:28.6	269.850	-0.390	-0.190	0.600
2020/01/31 00:29:28.7	269.850	-0.390	-0.210	0.600
2020/01/31 00:29:28.8	269.850	-0.380	-0.230	0.610
2020/01/31 00:29:28.9	269.850	-0.370	-0.250	0.610
2020/01/31 00:29:29.0	269.850	-0.360	-0.270	0.620
2020/01/31 00:29:29.1	269.850	-0.340	-0.290	0.620
2020/01/31 00:29:29.2	269.840	-0.330	-0.310	0.630
2020/01/31 00:29:29.3	269.840	-0.310	-0.330	0.630
2020/01/31 00:29:29.4	269.830	-0.290	-0.360	0.640
2020/01/31 00:29:29.5	269.830	-0.260	-0.380	0.640
2020/01/31 00:29:29.6	269.820	-0.240	-0.410	0.650
2020/01/31 00:29:29.7	269.810	-0.210	-0.440	0.660
2020/01/31 00:29:29.8	269.800	-0.180	-0.470	0.670
2020/01/31 00:29:29.9	269.800	-0.150	-0.500	0.680
2020/01/31 00:29:30.0	269.790	-0.120	-0.530	0.690
2020/01/31 00:29:30.1	269.770	-0.090	-0.560	0.700
2020/01/31 00:29:30.2	269.760	-0.050	-0.590	0.710
2020/01/31 00:29:30.3	269.750	-0.020	-0.620	0.720
2020/01/31 00:29:30.4	269.730	0.020	-0.650	0.740
2020/01/31 00:29:30.5	269.720	0.050	-0.680	0.750
2020/01/31 00:29:30.6	269.700	0.080	-0.710	0.770
2020/01/31 00:29:30.7	269.690	0.120	-0.740	0.780
2020/01/31 00:29:30.8	269.670	0.150	-0.770	0.800
2020/01/31 00:29:30.9	269.650	0.180	-0.800	0.820
2020/01/31 00:29:31.0	269.630	0.210	-0.820	0.840
2020/01/31 00:29:31.1	269.610	0.240	-0.850	0.860
2020/01/31 00:29:31.2	269.590	0.270	-0.870	0.880
2020/01/31 00:29:31.3	269.570	0.290	-0.890	0.900
2020/01/31 00:29:31.4	269.550	0.320	-0.900	0.920
2020/01/31 00:29:31.5	269.530	0.340	-0.920	0.940
2020/01/31 00:29:31.6	269.510	0.360	-0.930	0.970
2020/01/31 00:29:31.7	269.490	0.380	-0.940	0.990
2020/01/31 00:29:31.8	269.460	0.400	-0.940	1.020
2020/01/31 00:29:31.9	269.440	0.410	-0.940	1.040
2020/01/31 00:29:32.0	269.420	0.420	-0.940	1.060
2020/01/31 00:29:32.1	269.400	0.430	-0.930	1.080
2020/01/31 00:29:32.2	269.380	0.440	-0.930	1.110
2020/01/31 00:29:32.3	269.360	0.440	-0.910	1.130
2020/01/31 00:29:32.4	269.330	0.440	-0.890	1.150
2020/01/31 00:29:32.5	269.310	0.440	-0.870	1.170
2020/01/31 00:29:32.6	269.290	0.430	-0.850	1.200
2020/01/31 00:29:32.7	269.270	0.430	-0.820	1.210
2020/01/31 00:29:32.8	269.250	0.420	-0.780	1.230
2020/01/31 00:29:32.9	269.240	0.400	-0.750	1.250
2020/01/31 00:29:33.0	269.220	0.390	-0.710	1.270
2020/01/31 00:29:33.1	269.200	0.370	-0.670	1.280
2020/01/31 00:29:33.2	269.180	0.350	-0.620	1.290
2020/01/31 00:29:33.3	269.170	0.330	-0.570	1.300
2020/01/31 00:29:33.4	269.150	0.300	-0.520	1.310
2020/01/31 00:29:33.5	269.140	0.270	-0.470	1.320
2020/01/31 00:29:33.6	269.130	0.240	-0.410	1.320
2020/01/31 00:29:33.7	269.120	0.210	-0.350	1.320
2020/01/31 00:29:33.8	269.110	0.180	-0.290	1.330
2020/01/31 00:29:33.9	269.100	0.140	-0.230	1.320
2020/01/31 00:29:34.0	269.100	0.110	-0.170	1.320
2020/01/31 00:29:34.1	269.090	0.070	-0.110	1.320
2020/01/31 00:29:34.2	269.090	0.030	-0.050	1.310
2020/01/31 00:29:34.3	269.080	-0.010	0.010	1.310
2020/01/31 00:29:34.4	269.080	-0.050	0.070	1.300
2020/01/31 00:29:34.5	269.070	-0.090	0.120	1.290
2020/01/31 00:29:34.6	269.070	-0.120	0.170	1.290
2020/01/31 00:29:34.7	269.070	-0.160	0.220	1.280
2020/01/31 00:29:34.8	269.070	-0.200	0.270	1.260
2020/01/31 00:29:34.9	269.060	-0.240	0.310	1.250
2020/01/31 00:29:35.0	269.060	-0.280	0.350	1.240
2020/01/31 00:29:35.1	269.060	-0.310	0.390	1.230
2020/01/31 00:29:35.2	269.060	-0.350	0.420	1.210
2020/01/31 00:29:35.3	269.070	-0.380	0.450	1.190
2020/01/31 00:29:35.4	269.070	-0.410	0.470	1.170
2020/01/31 00:29:35.5	269.070	-0.440	0.490	1.150
2020/01/31 00:29:35.6	269.070	-0.460	0.510	1.130
2020/01/31 00:29:35.7	269.080	-0.490	0.520	1.110
2020/01/31 00:29:35.8	269.080	-0.510	0.520	1.080
2020/01/31 00:29:35.9	269.100	-0.530	0.520	1.050
2020/01/31 00:29:36.0	269.100	-0.540	0.520	1.030
2020/01/31 00:29:36.1	269.110	-0.550	0.510	1.000
2020/01/31 00:29:36.2	269.120	-0.560	0.490	0.970
2020/01/31 00:29:36.3	269.130	-0.570	0.480	0.940
2020/01/31 00:29:36.4	269.140	-0.570	0.460	0.910
2020/01/31 00:29:36.5	269.150	-0.570	0.430	0.880
2020/01/31 00:29:36.6	269.160	-0.560	0.410	0.860
2020/01/31 00:29:36.7	269.170	-0.560	0.380	0.830
2020/01/31 00:29:36.8	269.190	-0.550	0.350	0.800
2020/01/31 00:29:36.9	269.200	-0.530	0.310	0.770
2020/01/31 00:29:37.0	269.210	-0.520	0.280	0.740
2020/01/31 00:29:37.1	269.230	-0.500	0.240	0.720
2020/01/31 00:29:37.2	269.240	-0.480	0.200	0.690
2020/01/31 00:29:37.3	269.260	-0.450	0.160	0.670
2020/01/31 00:29:37.4	269.280	-0.430	0.120	0.640
2020/01/31 00:29:37.5	269.290	-0.400	0.080	0.620
2020/01/31 00:29:37.6	269.310	-0.370	0.040	0.600
2020/01/31 00:29:37.7	269.330	-0.340	0.000	0.580
2020/01/31 00:29:37.8	269.350	-0.300	-0.040	0.570
2020/01/31 00:29:37.9	269.360	-0.270	-0.080	0.550
2020/01/31 00:29:38.0	269.380	-0.230	-0.120	0.540
2020/01/31 00:29:38.1	269.400	-0.200	-0.150	0.520
2020/01/31 00:29:38.2	269.420	-0.160	-0.190	0.510
2020/01/31 00:29:38.3	269.440	-0.130	-0.220	0.510
2020/01/31 00:29:38.4	269.460	-0.090	-0.250	0.500
2020/01/31 00:29:38.5	269.490	-0.060	-0.270	0.500
2020/01/31 00:29:38.6	269.510	-0.020	-0.300	0.500
2020/01/31 00:29:38.7	269.530	0.010	-0.320	0.500
2020/01/31 00:29:38.8	269.550	0.050	-0.350	0.510
2020/01/31 00:29:38.9	269.570	0.080	-0.360	0.510
2020/01/31 00:29:39.0	269.590	0.110	-0.380	0.520
2020/01/31 00:29:39.1	269.610	0.140	-0.400	0.530
2020/01/31 00:29:39.2	269.630	0.160	-0.410	0.550
2020/01/31 00:29:39.3	269.640	0.190	-0.420	0.570
2020/01/31 00:29:39.4	269.660	0.210	-0.440	0.590
2020/01/31 00:29:39.5	269.680	0.230	-0.450	0.620
2020/01/31 00:29:39.6	269.690	0.250	-0.450	0.640
2020/01/31 00:29:39.7	269.700	0.270	-0.460	0.670
2020/01/31 00:29:39.8	269.720	0.280	-0.470	0.700
2020/01/31 00:29:39.9	269.730	0.290	-0.470	0.740
2020/01/31 00:29:40.0	269.740	0.310	-0.480	0.770
2020/01/31 00:29:40.1	269.750	0.310	-0.480	0.800
2020/01/31 00:29:40.2	269.750	0.320	-0.480	0.830
2020/01/31 00:29:40.3	269.760	0.330	-0.490	0.870
2020/01/31 00:29:40.4	269.760	0.330	-0.490	0.900
2020/01/31 00:29:40.5	269.760	0.330	-0.490	0.930
2020/01/31 00:29:40.6	269.760	0.330	-0.490	0.970
2020/01/31 00:29:40.7	269.760	0.330	-0.490	1.000
2020/01/31 00:29:40.8	269.760	0.330	-0.490	1.030
2020/01/31 00:29:40.9	269.760	0.320	-0.490	1.070
2020/01/31 00:29:41.0	269.750	0.320	-0.490	1.100
2020/01/31 00:29:41.1	269.740	0.310	-0.480	1.130
2020/01/31 00:29:41.2	269.730	0.310	-0.480	1.150
2020/01/31 00:29:41.3	269.720	0.300	-0.480	1.180
2020/01/31 00:29:41.4	269.710	0.290	-0.480	1.210
2020/01/31 00:29:41.5	269.690	0.280	-0.480	1.230
2020/01/31 00:29:41.6	269.680	0.280	-0.480	1.250
2020/01/31 00:29:41.7	269.660	0.270	-0.480	1.270
2020/01/31 00:29:41.8	269.640	0.260	-0.480	1.290
2020/01/31 00:29:41.9	269.620	0.250	-0.470	1.300
2020/01/31 00:29:42.0	269.600	0.240	-0.470	1.310
2020/01/31 00:29:42.1	269.580	0.240	-0.480	1.330
2020/01/31 00:29:42.2	269.560	0.230	-0.480	1.340
2020/01/31 00:29:42.3	269.530	0.220	-0.480	1.340
2020/01/31 00:29:42.4	269.510	0.220	-0.490	1.350
2020/01/31 00:29:42.5	269.490	0.210	-0.490	1.350
2020/01/31 00:29:42.6	269.460	0.210	-0.500	1.350
2020/01/31 00:29:42.7	269.440	0.210	-0.500	1.350
2020/01/31 00:29:42.8	269.410	0.210	-0.510	1.350
2020/01/31 00:29:42.9	269.390	0.200	-0.520	1.350
2020/01/31 00:29:43.0	269.360	0.200	-0.530	1.340
2020/01/31 00:29:43.1	269.330	0.200	-0.550	1.340
2020/01/31 00:29:43.2	269.300	0.200	-0.560	1.330
2020/01/31 00:29:43.3	269.280	0.210	-0.570	1.320
2020/01/31 00:29:43.4	269.250	0.210	-0.580	1.310
2020/01/31 00:29:43.5	269.220	0.210	-0.600	1.300
2020/01/31 00:29:43.6	269.190	0.220	-0.610	1.290
2020/01/31 00:29:43.7	269.170	0.220	-0.630	1.280
2020/01/31 00:29:43.8	269.140	0.230	-0.640	1.270
2020/01/31 00:29:43.9	269.100	0.230	-0.660	1.260
2020/01/31 00:29:44.0	269.080	0.240	-0.670	1.250
2020/01/31 00:29:44.1	269.050	0.240	-0.690	1.240
2020/01/31 00:29:44.2	269.020	0.250	-0.700	1.230
2020/01/31 00:29:44.3	269.000	0.250	-0.720	1.220
2020/01/31 00:29:44.4	268.970	0.260	-0.730	1.210
2020/01/31 00:29:44.5	268.940	0.270	-0.750	1.200
2020/01/31 00:29:44.6	268.920	0.270	-0.760	1.190
2020/01/31 00:29:44.7	268.890	0.280	-0.770	1.180
2020/01/31 00:29:44.8	268.870	0.280	-0.780	1.170
2020/01/31 00:29:44.9	268.840	0.290	-0.780	1.150
2020/01/31 00:29:45.0	268.820	0.290	-0.790	1.150
2020/01/31 00:29:45.1	268.790	0.300	-0.790	1.140
2020/01/31 00:29:45.2	268.770	0.300	-0.790	1.130
2020/01/31 00:29:45.3	268.740	0.300	-0.790	1.120
2020/01/31 00:29:45.4	268.720	0.300	-0.790	1.110
2020/01/31 00:29:45.5	268.700	0.310	-0.780	1.110
2020/01/31 00:29:45.6	268.670	0.310	-0.770	1.100
2020/01/31 00:29:45.7	268.650	0.310	-0.760	1.090
2020/01/31 00:29:45.8	268.630	0.300	-0.750	1.090
2020/01/31 00:29:45.9	268.630	0.300	-0.730	1.090
2020/01/31 00:29:46.0	268.610	0.300	-0.710	1.090
2020/01/31 00:29:46.1	268.580	0.290	-0.690	1.090
2020/01/31 00:29:46.2	268.560	0.290	-0.670	1.090
2020/01/31 00:29:46.3	268.540	0.280	-0.640	1.090
2020/01/31 00:29:46.4	268.520	0.270	-0.610	1.090
2020/01/31 00:29:46.5	268.510	0.260	-0.580	1.090
2020/01/31 00:29:46.6	268.490	0.250	-0.540	1.100
2020/01/31 00:29:46.7	268.470	0.240	-0.510	1.100
2020/01/31 00:29:46.8	268.450	0.230	-0.470	1.110
2020/01/31 00:29:46.9	268.450	0.210	-0.430	1.120
2020/01/31 00:29:47.0	268.430	0.200	-0.390	1.120
2020/01/31 00:29:47.1	268.420	0.180	-0.350	1.130
2020/01/31 00:29:47.2	268.410	0.160	-0.300	1.140
2020/01/31 00:29:47.3	268.400	0.140	-0.260	1.140
2020/01/31 00:29:47.4	268.390	0.120	-0.220	1.150
2020/01/31 00:29:47.5	268.380	0.100	-0.170	1.160
2020/01/31 00:29:47.6	268.370	0.070	-0.130	1.160
2020/01/31 00:29:47.7	268.370	0.050	-0.090	1.160
2020/01/31 00:29:47.8	268.360	0.020	-0.050	1.160
2020/01/31 00:29:47.9	268.370	-0.010	-0.010	1.160
2020/01/31 00:29:48.0	268.370	-0.040	0.030	1.160
2020/01/31 00:29:48.1	268.370	-0.070	0.060	1.160
2020/01/31 00:29:48.2	268.370	-0.100	0.100	1.150
2020/01/31 00:29:48.3	268.380	-0.130	0.130	1.140
2020/01/31 00:29:48.4	268.390	-0.160	0.160	1.130
2020/01/31 00:29:48.5	268.400	-0.190	0.190	1.120
2020/01/31 00:29:48.6	268.410	-0.230	0.210	1.100
2020/01/31 00:29:48.7	268.420	-0.260	0.230	1.080
2020/01/31 00:29:48.8	268.440	-0.290	0.250	1.060
2020/01/31 00:29:48.9	268.470	-0.320	0.270	1.040
2020/01/31 00:29:49.0	268.490	-0.360	0.280	1.020
2020/01/31 00:29:49.1	268.510	-0.390	0.290	0.990
2020/01/31 00:29:49.2	268.540	-0.420	0.300	0.970
2020/01/31 00:29:49.3	268.560	-0.450	0.310	0.940
2020/01/31 00:29:49.4	268.590	-0.480	0.310	0.900
2020/01/31 00:29:49.5	268.620	-0.510	0.310	0.870
2020/01/31 00:29:49.6	268.650	-0.530	0.310	0.840
2020/01/31 00:29:49.7	268.680	-0.560	0.310	0.800
2020/01/31 00:29:49.8	268.710	-0.580	0.310	0.770
2020/01/31 00:29:49.9	268.750	-0.600	0.300	0.740
2020/01/31 00:29:50.0	268.780	-0.620	0.290	0.700
2020/01/31 00:29:50.1	268.820	-0.640	0.290	0.670
2020/01/31 00:29:50.2	268.850	-0.660	0.280	0.630
2020/01/31 00:29:50.3	268.890	-0.670	0.270	0.600
2020/01/31 00:29:50.4	268.930	-0.680	0.260	0.560
2020/01/31 00:29:50.5	268.960	-0.690	0.240	0.530
2020/01/31 00:29:50.6	269.000	-0.700	0.230	0.500
2020/01/31 00:29:50.7	269.040	-0.710	0.220	0.470
2020/01/31 00:29:50.8	269.080	-0.710	0.210	0.440
2020/01/31 00:29:50.9	269.120	-0.710	0.190	0.410
2020/01/31 00:29:51.0	269.160	-0.710	0.180	0.390
2020/01/31 00:29:51.1	269.200	-0.700	0.160	0.360
2020/01/31 00:29:51.2	269.240	-0.700	0.150	0.340
2020/01/31 00:29:51.3	269.280	-0.690	0.130	0.320
2020/01/31 00:29:51.4	269.320	-0.680	0.120	0.300
2020/01/31 00:29:51.5	269.360	-0.670	0.100	0.280
2020/01/31 00:29:51.6	269.400	-0.650	0.090	0.270
2020/01/31 00:29:51.7	269.440	-0.630	0.070	0.250
2020/01/31 00:29:51.8	269.480	-0.620	0.060	0.250
2020/01/31 00:29:51.9	269.510	-0.590	0.040	0.240
2020/01/31 00:29:52.0	269.540	-0.570	0.020	0.240
2020/01/31 00:29:52.1	269.580	-0.550	0.010	0.240
2020/01/31 00:29:52.2	269.610	-0.520	-0.010	0.250
2020/01/31 00:29:52.3	269.640	-0.490	-0.030	0.260
2020/01/31 00:29:52.4	269.670	-0.470	-0.050	0.280
2020/01/31 00:29:52.5	269.700	-0.440	-0.070	0.300
2020/01/31 00:29:52.6	269.720	-0.400	-0.090	0.320
2020/01/31 00:29:52.7	269.750	-0.370	-0.120	0.360
2020/01/31 00:29:52.8	269.770	-0.340	-0.140	0.390
2020/01/31 00:29:52.9	269.790	-0.310	-0.160	0.430
2020/01/31 00:29:53.0	269.800	-0.270	-0.190	0.480
2020/01/31 00:29:53.1	269.810	-0.240	-0.210	0.520
2020/01/31 00:29:53.2	269.820	-0.200	-0.240	0.570
2020/01/31 00:29:53.3	269.830	-0.170	-0.270	0.620
2020/01/31 00:29:53.4	269.830	-0.130	-0.290	0.680
2020/01/31 00:29:53.5	269.830	-0.100	-0.320	0.730
2020/01/31 00:29:53.6	269.820	-0.070	-0.350	0.790
2020/01/31 00:29:53.7	269.820	-0.030	-0.380	0.850
2020/01/31 00:29:53.8	269.810	-0.000	-0.400	0.900
2020/01/31 00:29:53.9	269.780	0.030	-0.430	0.960
2020/01/31 00:29:54.0	269.770	0.060	-0.460	1.020
2020/01/31 00:29:54.1	269.750	0.090	-0.480	1.080
2020/01/31 00:29:54.2	269.720	0.120	-0.510	1.150
2020/01/31 00:29:54.3	269.700	0.150	-0.540	1.210
2020/01/31 00:29:54.4	269.670	0.180	-0.560	1.270
2020/01/31 00:29:54.5	269.640	0.200	-0.580	1.330
2020/01/31 00:29:54.6	269.610	0.230	-0.610	1.390
2020/01/31 00:29:54.7	269.570	0.260	-0.630	1.450
2020/01/31 00:29:54.8	269.530	0.280	-0.650	1.510
2020/01/31 00:29:54.9	269.490	0.300	-0.670	1.570
2020/01/31 00:29:55.0	269.450	0.320	-0.680	1.630
2020/01/31 00:29:55.1	269.400	0.340	-0.700	1.680
2020/01/31 00:29:55.2	269.360	0.370	-0.710	1.730
2020/01/31 00:29:55.3	269.310	0.380	-0.720	1.780
2020/01/31 00:29:55.4	269.260	0.400	-0.730	1.830
2020/01/31 00:29:55.5	269.210	0.420	-0.740	1.870
2020/01/31 00:29:55.6	269.160	0.440	-0.750	1.920
2020/01/31 00:29:55.7	269.110	0.450	-0.760	1.960
2020/01/31 00:29:55.8	269.050	0.470	-0.760	1.990
2020/01/31 00:29:55.9	269.000	0.480	-0.770	2.020
2020/01/31 00:29:56.0	268.940	0.500	-0.770	2.050
2020/01/31 00:29:56.1	268.890	0.510	-0.770	2.080
2020/01/31 00:29:56.2	268.830	0.530	-0.780	2.100
2020/01/31 00:29:56.3	268.770	0.540	-0.780	2.130
2020/01/31 00:29:56.4	268.710	0.550	-0.780	2.140
2020/01/31 00:29:56.5	268.650	0.560	-0.780	2.160
2020/01/31 00:29:56.6	268.590	0.570	-0.780	2.170
2020/01/31 00:29:56.7	268.530	0.580	-0.790	2.180
2020/01/31 00:29:56.8	268.470	0.590	-0.790	2.180
2020/01/31 00:29:56.9	268.410	0.600	-0.780	2.180
2020/01/31 00:29:57.0	268.350	0.610	-0.790	2.180
2020/01/31 00:29:57.1	268.300	0.610	-0.780	2.180
2020/01/31 00:29:57.2	268.240	0.620	-0.780	2.170
2020/01/31 00:29:57.3	268.180	0.620	-0.780	2.160
2020/01/31 00:29:57.4	268.130	0.630	-0.780	2.150
2020/01/31 00:29:57.5	268.080	0.630	-0.780	2.140
2020/01/31 00:29:57.6	268.030	0.630	-0.780	2.120
2020/01/31 00:29:57.7	267.980	0.630	-0.780	2.100
2020/01/31 00:29:57.8	267.940	0.630	-0.770	2.080
2020/01/31 00:29:57.9	267.900	0.630	-0.770	2.060
2020/01/31 00:29:58.0	267.860	0.630	-0.760	2.040
2020/01/31 00:29:58.1	267.820	0.630	-0.750	2.010
2020/01/31 00:29:58.2	267.790	0.620	-0.750	1.990
2020/01/31 00:29:58.3	267.750	0.610	-0.740	1.960
2020/01/31 00:29:58.4	267.720	0.600	-0.730	1.930
2020/01/31 00:29:58.5	267.700	0.590	-0.720	1.900
2020/01/31 00:29:58.6	267.670	0.580	-0.710	1.860
2020/01/31 00:29:58.7	267.650	0.570	-0.690	1.830
2020/01/31 00:29:58.8	267.630	0.550	-0.680	1.800
2020/01/31 00:29:58.9	267.610	0.530	-0.660	1.760
2020/01/31 00:29:59.0	267.600	0.510	-0.640	1.730
2020/01/31 00:29:59.1	267.590	0.490	-0.620	1.690
2020/01/31 00:29:59.2	267.580	0.470	-0.600	1.650
2020/01/31 00:29:59.3	267.580	0.450	-0.570	1.610
2020/01/31 00:29:59.4	267.570	0.420	-0.550	1.570
2020/01/31 00:29:59.5	267.570	0.390	-0.520	1.530
2020/01/31 00:29:59.6	267.570	0.360	-0.500	1.490
2020/01/31 00:29:59.7	267.580	0.330	-0.470	1.450
2020/01/31 00:29:59.8	267.590	0.300	-0.440	1.400
2020/01/31 00:29:59.9	267.610	0.270	-0.420	1.360
2020/01/31 00:30:00.0	267.620	0.240	-0.390	1.320
2020/01/31 00:30:00.1	267.630	0.200	-0.360	1.270
2020/01/31 00:30:00.2	267.640	0.170	-0.330	1.230
2020/01/31 00:30:00.3	267.660	0.130	-0.300	1.190
2020/01/31 00:30:00.4	267.680	0.100	-0.260	1.150
2020/01/31 00:30:00.5	267.700	0.060	-0.230	1.100
2020/01/31 00:30:00.6	267.720	0.020	-0.200	1.060
2020/01/31 00:30:00.7	267.750	-0.010	-0.170	1.020
2020/01/31 00:30:00.8	267.770	-0.050	-0.130	0.990
2020/01/31 00:30:00.9	267.800	-0.080	-0.100	0.950
2020/01/31 00:30:01.0	267.830	-0.120	-0.070	0.910
2020/01/31 00:30:01.1	267.860	-0.150	-0.030	0.880
2020/01/31 00:30:01.2	267.890	-0.180	-0.000	0.840
2020/01/31 00:30:01.3	267.920	-0.220	0.030	0.810
2020/01/31 00:30:01.4	267.960	-0.250	0.060	0.780
2020/01/31 00:30:01.5	268.000	-0.280	0.090	0.750
2020/01/31 00:30:01.6	268.030	-0.300	0.120	0.720
2020/01/31 00:30:01.7	268.070	-0.330	0.150	0.690
2020/01/31 00:30:01.8	268.120	-0.360	0.180	0.660
2020/01/31 00:30:01.9	268.170	-0.380	0.200	0.630
2020/01/31 00:30:02.0	268.210	-0.410	0.230	0.610
2020/01/31 00:30:02.1	268.260	-0.430	0.250	0.580
2020/01/31 00:30:02.2	268.300	-0.450	0.270	0.550
2020/01/31 00:30:02.3	268.350	-0.470	0.290	0.530
2020/01/31 00:30:02.4	268.400	-0.480	0.300	0.500
2020/01/31 00:30:02.5	268.460	-0.500	0.310	0.480
2020/01/31 00:30:02.6	268.510	-0.520	0.320	0.460
2020/01/31 00:30:02.7	268.560	-0.530	0.330	0.430
2020/01/31 00:30:02.8	268.620	-0.540	0.330	0.410
2020/01/31 00:30:02.9	268.670	-0.550	0.330	0.390
2020/01/31 00:30:03.0	268.730	-0.560	0.330	0.370
2020/01/31 00:30:03.1	268.780	-0.570	0.330	0.360
2020/01/31 00:30:03.2	268.840	-0.570	0.320	0.340
2020/01/31 00:30:03.3	268.890	-0.580	0.310	0.330
2020/01/31 00:30:03.4	268.950	-0.580	0.310	0.320
2020/01/31 00:30:03.5	269.000	-0.580	0.290	0.310
2020/01/31 00:30:03.6	269.050	-0.580	0.280	0.300
2020/01/31 00:30:03.7	269.110	-0.580	0.270	0.290
2020/01/31 00:30:03.8	269.160	-0.580	0.250	0.290
2020/01/31 00:30:03.9	269.210	-0.580	0.240	0.290
2020/01/31 00:30:04.0	269.260	-0.570	0.220	0.280
2020/01/31 00:30:04.1	269.310	-0.570	0.200	0.280
2020/01/31 00:30:04.2	269.360	-0.560	0.180	0.280
2020/01/31 00:30:04.3	269.410	-0.550	0.160	0.280
2020/01/31 00:30:04.4	269.450	-0.540	0.130	0.290
2020/01/31 00:30:04.5	269.500	-0.530	0.110	0.290
2020/01/31 00:30:04.6	269.550	-0.520	0.080	0.300
2020/01/31 00:30:04.7	269.590	-0.510	0.060	0.300
2020/01/31 00:30:04.8	269.630	-0.500	0.030	0.310
2020/01/31 00:30:04.9	269.660	-0.480	-0.000	0.320
2020/01/31 00:30:05.0	269.700	-0.470	-0.030	0.330
2020/01/31 00:30:05.1	269.740	-0.450	-0.060	0.340
2020/01/31 00:30:05.2	269.770	-0.430	-0.090	0.360
2020/01/31 00:30:05.3	269.810	-0.410	-0.120	0.370
2020/01/31 00:30:05.4	269.840	-0.390	-0.150	0.390
2020/01/31 00:30:05.5	269.870	-0.370	-0.180	0.400
2020/01/31 00:30:05.6	269.900	-0.350	-0.220	0.420
2020/01/31 00:30:05.7	269.930	-0.330	-0.250	0.440
2020/01/31 00:30:05.8	269.960	-0.310	-0.280	0.460
2020/01/31 00:30:05.9	269.980	-0.290	-0.310	0.480
2020/01/31 00:30:06.0	270.010	-0.260	-0.340	0.500
2020/01/31 00:30:06.1	270.030	-0.240	-0.370	0.530
2020/01/31 00:30:06.2	270.050	-0.220	-0.400	0.550
2020/01/31 00:30:06.3	270.070	-0.190	-0.430	0.580
2020/01/31 00:30:06.4	270.090	-0.170	-0.460	0.600
2020/01/31 00:30:06.5	270.110	-0.140	-0.490	0.630
2020/01/31 00:30:06.6	270.130	-0.120	-0.510	0.660
2020/01/31 00:30:06.7	270.140	-0.090	-0.540	0.690
2020/01/31 00:30:06.8	270.150	-0.070	-0.560	0.720
2020/01/31 00:30:06.9	270.150	-0.040	-0.580	0.760
2020/01/31 00:30:07.0	270.160	-0.020	-0.600	0.790
2020/01/31 00:30:07.1	270.170	0.000	-0.620	0.820
2020/01/31 00:30:07.2	270.170	0.030	-0.630	0.860
2020/01/31 00:30:07.3	270.170	0.050	-0.640	0.890
2020/01/31 00:30:07.4	270.170	0.070	-0.660	0.930
2020/01/31 00:30:07.5	270.170	0.090	-0.660	0.960
2020/01/31 00:30:07.6	270.160	0.110	-0.670	1.000
2020/01/31 00:30:07.7	270.160	0.130	-0.670	1.030
2020/01/31 00:30:07.8	270.150	0.150	-0.670	1.060
2020/01/31 00:30:07.9	270.140	0.160	-0.680	1.100
2020/01/31 00:30:08.0	270.120	0.180	-0.670	1.130
2020/01/31 00:30:08.1	270.110	0.190	-0.670	1.160
2020/01/31 00:30:08.2	270.090	0.210	-0.660	1.200
2020/01/31 00:30:08.3	270.070	0.220	-0.660	1.230
2020/01/31 00:30:08.4	270.050	0.230	-0.650	1.260
2020/01/31 00:30:08.5	270.030	0.240	-0.640	1.280
2020/01/31 00:30:08.6	270.000	0.250	-0.630	1.310
2020/01/31 00:30:08.7	269.970	0.260	-0.620	1.340
2020/01/31 00:30:08.8	269.940	0.260	-0.600	1.360
2020/01/31 00:30:08.9	269.900	0.270	-0.590	1.380
2020/01/31 00:30:09.0	269.870	0.270	-0.580	1.400
2020/01/31 00:30:09.1	269.840	0.280	-0.560	1.410
2020/01/31 00:30:09.2	269.800	0.280	-0.550	1.430
2020/01/31 00:30:09.3	269.760	0.280	-0.530	1.440
2020/01/31 00:30:09.4	269.730	0.280	-0.510	1.440
2020/01/31 00:30:09.5	269.690	0.280	-0.500	1.450
2020/01/31 00:30:09.6	269.640	0.280	-0.480	1.450
2020/01/31 00:30:09.7	269.600	0.280	-0.470	1.450
2020/01/31 00:30:09.8	269.560	0.280	-0.460	1.450
2020/01/31 00:30:09.9	269.510	0.270	-0.440	1.440
2020/01/31 00:30:10.0	269.460	0.270	-0.430	1.440
2020/01/31 00:30:10.1	269.420	0.270	-0.420	1.430
2020/01/31 00:30:10.2	269.370	0.260	-0.410	1.420
2020/01/31 00:30:10.3	269.330	0.260	-0.400	1.400
2020/01/31 00:30:10.4	269.280	0.260	-0.400	1.390
2020/01/31 00:30:10.5	269.240	0.250	-0.390	1.370
2020/01/31 00:30:10.6	269.190	0.250	-0.390	1.350
2020/01/31 00:30:10.7	269.150	0.240	-0.380	1.330
2020/01/31 00:30:10.8	269.100	0.240	-0.380	1.310
2020/01/31 00:30:10.9	269.050	0.240	-0.380	1.290
2020/01/31 00:30:11.0	269.010	0.230	-0.380	1.260
2020/01/31 00:30:11.1	268.960	0.230	-0.380	1.240
2020/01/31 00:30:11.2	268.920	0.230	-0.380	1.210
2020/01/31 00:30:11.3	268.880	0.230	-0.380	1.190
2020/01/31 00:30:11.4	268.840	0.230	-0.380	1.160
2020/01/31 00:30:11.5	268.800	0.230	-0.390	1.140
2020/01/31 00:30:11.6	268.760	0.220	-0.390	1.110
2020/01/31 00:30:11.7	268.720	0.220	-0.400	1.090
2020/01/31 00:30:11.8	268.690	0.230	-0.400	1.060
2020/01/31 00:30:11.9	268.650	0.230	-0.400	1.040
2020/01/31 00:30:12.0	268.610	0.230	-0.410	1.010
2020/01/31 00:30:12.1	268.580	0.230	-0.410	0.990
2020/01/31 00:30:12.2	268.550	0.230	-0.420	0.960
2020/01/31 00:30:12.3	268.520	0.240	-0.420	0.940
2020/01/31 00:30:12.4	268.500	0.240	-0.420	0.910
2020/01/31 00:30:12.5	268.470	0.240	-0.420	0.890
2020/01/31 00:30:12.6	268.450	0.240	-0.430	0.860
2020/01/31 00:30:12.7	268.430	0.250	-0.430	0.840
2020/01/31 00:30:12.8	268.410	0.250	-0.420	0.810
2020/01/31 00:30:12.9	268.400	0.250	-0.420	0.790
2020/01/31 00:30:13.0	268.390	0.250	-0.420	0.770
2020/01/31 00:30:13.1	268.370	0.250	-0.410	0.740
2020/01/31 00:30:13.2	268.360	0.250	-0.410	0.720
2020/01/31 00:30:13.3	268.360	0.250	-0.400	0.700
2020/01/31 00:30:13.4	268.350	0.250	-0.390	0.670
2020/01/31 00:30:13.5	268.340	0.250	-0.380	0.650
2020/01/31 00:30:13.6	268.340	0.240	-0.370	0.630
2020/01/31 00:30:13.7	268.340	0.240	-0.360	0.610
2020/01/31 00:30:13.8	268.340	0.230	-0.340	0.590
2020/01/31 00:30:13.9	268.350	0.230	-0.330	0.560
2020/01/31 00:30:14.0	268.350	0.220	-0.320	0.550
2020/01/31 00:30:14.1	268.360	0.210	-0.300	0.530
2020/01/31 00:30:14.2	268.360	0.200	-0.290	0.510
2020/01/31 00:30:14.3	268.370	0.190	-0.270	0.500
2020/01/31 00:30:14.4	268.380	0.180	-0.260	0.480
2020/01/31 00:30:14.5	268.390	0.170	-0.240	0.470
2020/01/31 00:30:14.6	268.400	0.150	-0.220	0.450
2020/01/31 00:30:14.7	268.420	0.140	-0.210	0.440
2020/01/31 00:30:14.8	268.430	0.120	-0.190	0.430
2020/01/31 00:30:14.9	268.460	0.110	-0.180	0.420
2020/01/31 00:30:15.0	268.480	0.090	-0.160	0.410
2020/01/31 00:30:15.1	268.510	0.070	-0.140	0.400
2020/01/31 00:30:15.2	268.530	0.050	-0.130	0.400
2020/01/31 00:30:15.3	268.560	0.040	-0.110	0.390
2020/01/31 00:30:15.4	268.600	0.020	-0.100	0.380
2020/01/31 00:30:15.5	268.630	-0.000	-0.090	0.380
2020/01/31 00:30:15.6	268.670	-0.020	-0.070	0.370
2020/01/31 00:30:15.7	268.710	-0.040	-0.060	0.370
2020/01/31 00:30:15.8	268.750	-0.060	-0.050	0.360
2020/01/31 00:30:15.9	268.780	-0.080	-0.040	0.360
2020/01/31 00:30:16.0	268.820	-0.100	-0.030	0.350
2020/01/31 00:30:16.1	268.870	-0.120	-0.020	0.350
2020/01/31 00:30:16.2	268.920	-0.140	-0.020	0.340
2020/01/31 00:30:16.3	268.960	-0.160	-0.010	0.340
2020/01/31 00:30:16.4	269.010	-0.170	-0.010	0.340
2020/01/31 00:30:16.5	269.060	-0.190	-0.010	0.340
2020/01/31 00:30:16.6	269.120	-0.210	-0.000	0.340
2020/01/31 00:30:16.7	269.170	-0.220	-0.000	0.340
2020/01/31 00:30:16.8	269.220	-0.240	-0.000	0.350
2020/01/31 00:30:16.9	269.280	-0.250	-0.010	0.350
2020/01/31 00:30:17.0	269.340	-0.270	-0.010	0.360
2020/01/31 00:30:17.1	269.390	-0.280	-0.010	0.370
2020/01/31 00:30:17.2	269.440	-0.290	-0.020	0.380
2020/01/31 00:30:17.3	269.490	-0.300	-0.020	0.390
2020/01/31 00:30:17.4	269.540	-0.310	-0.030	0.400
2020/01/31 00:30:17.5	269.590	-0.320	-0.040	0.420
2020/01/31 00:30:17.6	269.630	-0.330	-0.050	0.430
2020/01/31 00:30:17.7	269.680	-0.330	-0.070	0.450
2020/01/31 00:30:17.8	269.720	-0.340	-0.080	0.470
2020/01/31 00:30:17.9	269.750	-0.340	-0.100	0.490
2020/01/31 00:30:18.0	269.790	-0.350	-0.120	0.520
2020/01/31 00:30:18.1	269.820	-0.350	-0.130	0.540
2020/01/31 00:30:18.2	269.850	-0.350	-0.160	0.560
2020/01/31 00:30:18.3	269.880	-0.350	-0.180	0.590
2020/01/31 00:30:18.4	269.910	-0.350	-0.200	0.610
2020/01/31 00:30:18.5	269.940	-0.350	-0.220	0.640
2020/01/31 00:30:18.6	269.960	-0.340	-0.250	0.670
2020/01/31 00:30:18.7	269.980	-0.340	-0.270	0.690
2020/01/31 00:30:18.8	270.000	-0.330	-0.300	0.720
2020/01/31 00:30:18.9	270.020	-0.330	-0.320	0.750
2020/01/31 00:30:19.0	270.040	-0.320	-0.350	0.770
2020/01/31 00:30:19.1	270.050	-0.310	-0.380	0.800
2020/01/31 00:30:19.2	270.060	-0.300	-0.400	0.820
2020/01/31 00:30:19.3	270.060	-0.290	-0.420	0.850
2020/01/31 00:30:19.4	270.060	-0.280	-0.450	0.870
2020/01/31 00:30:19.5	270.070	-0.270	-0.470	0.900
2020/01/31 00:30:19.6	270.060	-0.260	-0.490	0.920
2020/01/31 00:30:19.7	270.060	-0.250	-0.510	0.940
2020/01/31 00:30:19.8	270.050	-0.240	-0.530	0.960
2020/01/31 00:30:19.9	270.050	-0.220	-0.540	0.980
2020/01/31 00:30:20.0	270.040	-0.210	-0.560	1.000
2020/01/31 00:30:20.1	270.030	-0.200	-0.570	1.020
2020/01/31 00:30:20.2	270.010	-0.180	-0.580	1.040
2020/01/31 00:30:20.3	270.000	-0.170	-0.580	1.060
2020/01/31 00:30:20.4	269.980	-0.160	-0.580	1.080
2020/01/31 00:30:20.5	269.950	-0.140	-0.580	1.100
2020/01/31 00:30:20.6	269.930	-0.130	-0.580	1.110
2020/01/31 00:30:20.7	269.900	-0.120	-0.570	1.130
2020/01/31 00:30:20.8	269.880	-0.110	-0.570	1.140
2020/01/31 00:30:20.9	269.850	-0.100	-0.550	1.150
2020/01/31 00:30:21.0	269.820	-0.090	-0.540	1.160
2020/01/31 00:30:21.1	269.780	-0.080	-0.520	1.170
2020/01/31 00:30:21.2	269.750	-0.070	-0.500	1.180
2020/01/31 00:30:21.3	269.720	-0.060	-0.480	1.180
2020/01/31 00:30:21.4	269.680	-0.060	-0.450	1.180
2020/01/31 00:30:21.5	269.640	-0.050	-0.430	1.180
2020/01/31 00:30:21.6	269.600	-0.050	-0.400	1.180
2020/01/31 00:30:21.7	269.560	-0.050	-0.360	1.170
2020/01/31 00:30:21.8	269.520	-0.050	-0.330	1.170
2020/01/31 00:30:21.9	269.470	-0.050	-0.300	1.150
2020/01/31 00:30:22.0	269.420	-0.050	-0.260	1.150
2020/01/31 00:30:22.1	269.380	-0.050	-0.230	1.140
2020/01/31 00:30:22.2	269.330	-0.050	-0.190	1.120
2020/01/31 00:30:22.3	269.280	-0.060	-0.160	1.110
2020/01/31 00:30:22.4	269.230	-0.060	-0.130	1.100
2020/01/31 00:30:22.5	269.180	-0.060	-0.090	1.090
2020/01/31 00:30:22.6	269.130	-0.070	-0.060	1.070
2020/01/31 00:30:22.7	269.080	-0.070	-0.030	1.060
2020/01/31 00:30:22.8	269.030	-0.080	-0.000	1.050
2020/01/31 00:30:22.9	268.990	-0.080	0.020	1.030
2020/01/31 00:30:23.0	268.940	-0.090	0.040	1.020
2020/01/31 00:30:23.1	268.880	-0.090	0.060	1.000
2020/01/31 00:30:23.2	268.830	-0.090	0.080	0.990
2020/01/31 00:30:23.3	268.780	-0.100	0.090	0.980
2020/01/31 00:30:23.4	268.730	-0.100	0.100	0.970
2020/01/31 00:30:23.5	268.690	-0.100	0.110	0.950
2020/01/31 00:30:23.6	268.640	-0.100	0.110	0.940
2020/01/31 00:30:23.7	268.590	-0.100	0.110	0.930
2020/01/31 00:30:23.8	268.550	-0.100	0.100	0.920
2020/01/31 00:30:23.9	268.490	-0.090	0.100	0.920
2020/01/31 00:30:24.0	268.450	-0.090	0.080	0.910
2020/01/31 00:30:24.1	268.420	-0.080	0.070	0.910
2020/01/31 00:30:24.2	268.380	-0.070	0.050	0.900
2020/01/31 00:30:24.3	268.340	-0.060	0.030	0.900
2020/01/31 00:30:24.4	268.310	-0.050	0.000	0.900
2020/01/31 00:30:24.5	268.280	-0.040	-0.020	0.900
2020/01/31 00:30:24.6	268.250	-0.030	-0.050	0.900
2020/01/31 00:30:24.7	268.220	-0.010	-0.090	0.910
2020/01/31 00:30:24.8	268.190	0.000	-0.120	0.920
2020/01/31 00:30:24.9	268.190	0.020	-0.160	0.920
2020/01/31 00:30:25.0	268.170	0.040	-0.200	0.930
2020/01/31 00:30:25.1	268.150	0.060	-0.230	0.940
2020/01/31 00:30:25.2	268.130	0.080	-0.270	0.950
2020/01/31 00:30:25.3	268.110	0.100	-0.310	0.960
2020/01/31 00:30:25.4	268.090	0.130	-0.350	0.980
2020/01/31 00:30:25.5	268.080	0.150	-0.390	0.990
2020/01/31 00:30:25.6	268.070	0.170	-0.420	1.010
2020/01/31 00:30:25.7	268.060	0.190	-0.460	1.030
2020/01/31 00:30:25.8	268.050	0.220	-0.490	1.040
2020/01/31 00:30:25.9	268.030	0.240	-0.520	1.060
2020/01/31 00:30:26.0	268.030	0.260	-0.550	1.080
2020/01/31 00:30:26.1	268.030	0.280	-0.580	1.100
2020/01/31 00:30:26.2	268.020	0.310	-0.600	1.120
2020/01/31 00:30:26.3	268.020	0.330	-0.620	1.140
2020/01/31 00:30:26.4	268.020	0.340	-0.640	1.160
2020/01/31 00:30:26.5	268.030	0.360	-0.660	1.190
2020/01/31 00:30:26.6	268.030	0.380	-0.670	1.210
2020/01/31 00:30:26.7	268.040	0.390	-0.680	1.230
2020/01/31 00:30:26.8	268.040	0.400	-0.690	1.250
2020/01/31 00:30:26.9	268.050	0.420	-0.690	1.270
2020/01/31 00:30:27.0	268.060	0.420	-0.690	1.300
2020/01/31 00:30:27.1	268.070	0.430	-0.690	1.320
2020/01/31 00:30:27.2	268.080	0.440	-0.680	1.340
2020/01/31 00:30:27.3	268.090	0.440	-0.680	1.360
2020/01/31 00:30:27.4	268.100	0.440	-0.660	1.390
2020/01/31 00:30:27.5	268.110	0.440	-0.650	1.410
2020/01/31 00:30:27.6	268.120	0.440	-0.630	1.430
2020/01/31 00:30:27.7	268.130	0.430	-0.620	1.450
2020/01/31 00:30:27.8	268.140	0.430	-0.600	1.480
2020/01/31 00:30:27.9	268.150	0.420	-0.570	1.500
2020/01/31 00:30:28.0	268.160	0.410	-0.550	1.520
2020/01/31 00:30:28.1	268.170	0.400	-0.530	1.540
2020/01/31 00:30:28.2	268.180	0.380	-0.500	1.570
2020/01/31 00:30:28.3	268.190	0.370	-0.480	1.590
2020/01/31 00:30:28.4	268.200	0.350	-0.450	1.610
2020/01/31 00:30:28.5	268.210	0.340	-0.430	1.640
2020/01/31 00:30:28.6	268.220	0.320	-0.400	1.660
2020/01/31 00:30:28.7	268.220	0.300	-0.370	1.680
2020/01/31 00:30:28.8	268.230	0.280	-0.350	1.710
2020/01/31 00:30:28.9	268.240	0.260	-0.330	1.730
2020/01/31 00:30:29.0	268.250	0.240	-0.300	1.750
2020/01/31 00:30:29.1	268.250	0.220	-0.280	1.770
2020/01/31 00:30:29.2	268.260	0.200	-0.250	1.790
2020/01/31 00:30:29.3	268.260	0.170	-0.230	1.810
2020/01/31 00:30:29.4	268.270	0.150	-0.210	1.830
2020/01/31 00:30:29.5	268.270	0.130	-0.190	1.840
2020/01/31 00:30:29.6	268.280	0.110	-0.170	1.860
2020/01/31 00:30:29.7	268.280	0.090	-0.160	1.870
2020/01/31 00:30:29.8	268.280	0.070	-0.150	1.890
2020/01/31 00:30:29.9	268.280	0.050	-0.130	1.900
2020/01/31 00:30:30.0	268.280	0.030	-0.130	1.900
2020/01/31 00:30:30.1	268.280	0.020	-0.120	1.910
2020/01/31 00:30:30.2	268.280	-0.000	-0.110	1.910
2020/01/31 00:30:30.3	268.280	-0.020	-0.110	1.910
2020/01/31 00:30:30.4	268.280	-0.030	-0.110	1.910
2020/01/31 00:30:30.5	268.290	-0.050	-0.110	1.900
2020/01/31 00:30:30.6	268.290	-0.060	-0.120	1.890
2020/01/31 00:30:30.7	268.290	-0.070	-0.130	1.880
2020/01/31 00:30:30.8	268.290	-0.080	-0.130	1.860
2020/01/31 00:30:30.9	268.300	-0.090	-0.150	1.840
2020/01/31 00:30:31.0	268.310	-0.100	-0.160	1.820
2020/01/31 00:30:31.1	268.310	-0.100	-0.170	1.790
2020/01/31 00:30:31.2	268.310	-0.110	-0.190	1.750
2020/01/31 00:30:31.3	268.320	-0.110	-0.210	1.720
2020/01/31 00:30:31.4	268.320	-0.110	-0.230	1.680
2020/01/31 00:30:31.5	268.330	-0.110	-0.240	1.640
2020/01/31 00:30:31.6	268.330	-0.110	-0.260	1.600
2020/01/31 00:30:31.7	268.340	-0.110	-0.280	1.550
2020/01/31 00:30:31.8	268.340	-0.110	-0.300	1.510
2020/01/31 00:30:31.9	268.360	-0.110	-0.320	1.460
2020/01/31 00:30:32.0	268.370	-0.100	-0.330	1.410
2020/01/31 00:30:32.1	268.370	-0.100	-0.350	1.360
2020/01/31 00:30:32.2	268.380	-0.090	-0.360	1.310
2020/01/31 00:30:32.3	268.380	-0.080	-0.380	1.260
2020/01/31 00:30:32.4	268.390	-0.080	-0.390	1.210
2020/01/31 00:30:32.5	268.390	-0.070	-0.400	1.170
2020/01/31 00:30:32.6	268.400	-0.060	-0.400	1.120
2020/01/31 00:30:32.7	268.400	-0.060	-0.410	1.080
2020/01/31 00:30:32.8	268.410	-0.050	-0.410	1.030
2020/01/31 00:30:32.9	268.410	-0.040	-0.420	0.990
2020/01/31 00:30:33.0	268.420	-0.040	-0.420	0.950
2020/01/31 00:30:33.1	268.420	-0.030	-0.410	0.920
2020/01/31 00:30:33.2	268.420	-0.030	-0.410	0.880
2020/01/31 00:30:33.3	268.430	-0.020	-0.400	0.850
2020/01/31 00:30:33.4	268.430	-0.020	-0.400	0.820
2020/01/31 00:30:33.5	268.430	-0.020	-0.390	0.790
2020/01/31 00:30:33.6	268.430	-0.020	-0.380	0.760
2020/01/31 00:30:33.7	268.440	-0.020	-0.370	0.740
2020/01/31 00:30:33.8	268.440	-0.020	-0.360	0.710
2020/01/31 00:30:33.9	268.440	-0.020	-0.350	0.690
2020/01/31 00:30:34.0	268.440	-0.020	-0.330	0.670
2020/01/31 00:30:34.1	268.440	-0.030	-0.320	0.650
2020/01/31 00:30:34.2	268.450	-0.030	-0.300	0.640
2020/01/31 00:30:34.3	268.450	-0.040	-0.290	0.620
2020/01/31 00:30:34.4	268.460	-0.040	-0.280	0.610
2020/01/31 00:30:34.5	268.460	-0.050	-0.260	0.600
2020/01/31 00:30:34.6	268.470	-0.060	-0.250	0.590
2020/01/31 00:30:34.7	268.470	-0.070	-0.240	0.580
2020/01/31 00:30:34.8	268.480	-0.080	-0.220	0.570
2020/01/31 00:30:34.9	268.490	-0.090	-0.210	0.560
2020/01/31 00:30:35.0	268.500	-0.100	-0.200	0.550
2020/01/31 00:30:35.1	268.510	-0.110	-0.190	0.540
2020/01/31 00:30:35.2	268.510	-0.120	-0.180	0.530
2020/01/31 00:30:35.3	268.520	-0.130	-0.180	0.530
2020/01/31 00:30:35.4	268.530	-0.140	-0.170	0.520
2020/01/31 00:30:35.5	268.530	-0.160	-0.160	0.510
2020/01/31 00:30:35.6	268.540	-0.170	-0.160	0.510
2020/01/31 00:30:35.7	268.550	-0.180	-0.160	0.500
2020/01/31 00:30:35.8	268.550	-0.190	-0.160	0.490
2020/01/31 00:30:35.9	268.550	-0.200	-0.160	0.490
2020/01/31 00:30:36.0	268.560	-0.210	-0.160	0.490
2020/01/31 00:30:36.1	268.570	-0.220	-0.160	0.480
2020/01/31 00:30:36.2	268.570	-0.230	-0.170	0.480
2020/01/31 00:30:36.3	268.580	-0.230	-0.170	0.480
2020/01/31 00:30:36.4	268.590	-0.240	-0.180	0.480
2020/01/31 00:30:36.5	268.590	-0.250	-0.180	0.480
2020/01/31 00:30:36.6	268.600	-0.250	-0.190	0.480
2020/01/31 00:30:36.7	268.600	-0.260	-0.190	0.480
2020/01/31 00:30:36.8	268.600	-0.270	-0.200	0.480
2020/01/31 00:30:36.9	268.610	-0.270	-0.210	0.490
2020/01/31 00:30:37.0	268.610	-0.280	-0.210	0.490
2020/01/31 00:30:37.1	268.620	-0.280	-0.220	0.500
2020/01/31 00:30:37.2	268.620	-0.280	-0.230	0.500
2020/01/31 00:30:37.3	268.620	-0.280	-0.240	0.510
2020/01/31 00:30:37.4	268.620	-0.290	-0.250	0.520
2020/01/31 00:30:37.5	268.620	-0.290	-0.260	0.530
2020/01/31 00:30:37.6	268.620	-0.290	-0.270	0.540
2020/01/31 00:30:37.7	268.620	-0.290	-0.280	0.550
2020/01/31 00:30:37.8	268.620	-0.290	-0.290	0.570
2020/01/31 00:30:37.9	268.620	-0.290	-0.310	0.580
2020/01/31 00:30:38.0	268.620	-0.290	-0.320	0.600
2020/01/31 00:30:38.1	268.620	-0.280	-0.330	0.620
2020/01/31 00:30:38.2	268.610	-0.280	-0.340	0.640
2020/01/31 00:30:38.3	268.610	-0.270	-0.350	0.660
2020/01/31 00:30:38.4	268.600	-0.270	-0.360	0.680
2020/01/31 00:30:38.5	268.590	-0.260	-0.370	0.700
2020/01/31 00:30:38.6	268.590	-0.260	-0.380	0.730
2020/01/31 00:30:38.7	268.580	-0.250	-0.390	0.750
2020/01/31 00:30:38.8	268.570	-0.240	-0.400	0.780
2020/01/31 00:30:38.9	268.560	-0.230	-0.400	0.810
2020/01/31 00:30:39.0	268.550	-0.220	-0.410	0.840
2020/01/31 00:30:39.1	268.530	-0.200	-0.410	0.870
2020/01/31 00:30:39.2	268.520	-0.190	-0.420	0.900
2020/01/31 00:30:39.3	268.510	-0.180	-0.420	0.940
2020/01/31 00:30:39.4	268.490	-0.160	-0.430	0.970
2020/01/31 00:30:39.5	268.480	-0.150	-0.430	1.000
2020/01/31 00:30:39.6	268.460	-0.130	-0.430	1.030
2020/01/31 00:30:39.7	268.440	-0.110	-0.430	1.070
2020/01/31 00:30:39.8	268.430	-0.100	-0.430	1.100
2020/01/31 00:30:39.9	268.390	-0.080	-0.430	1.130
2020/01/31 00:30:40.0	268.370	-0.060	-0.420	1.160
2020/01/31 00:30:40.1	268.350	-0.040	-0.420	1.190
2020/01/31 00:30:40.2	268.330	-0.020	-0.410	1.220
2020/01/31 00:30:40.3	268.310	-0.000	-0.410	1.250
2020/01/31 00:30:40.4	268.280	0.020	-0.400	1.270
2020/01/31 00:30:40.5	268.260	0.040	-0.390	1.300
2020/01/31 00:30:40.6	268.230	0.060	-0.380	1.320
2020/01/31 00:30:40.7	268.200	0.080	-0.370	1.340
2020/01/31 00:30:40.8	268.170	0.100	-0.350	1.360
2020/01/31 00:30:40.9	268.140	0.120	-0.340	1.380
2020/01/31 00:30:41.0	268.110	0.140	-0.320	1.390
2020/01/31 00:30:41.1	268.080	0.160	-0.310	1.400
2020/01/31 00:30:41.2	268.050	0.180	-0.300	1.410
2020/01/31 00:30:41.3	268.030	0.190	-0.280	1.420
2020/01/31 00:30:41.4	268.000	0.210	-0.270	1.430
2020/01/31 00:30:41.5	267.970	0.230	-0.250	1.430
2020/01/31 00:30:41.6	267.950	0.240	-0.240	1.440
2020/01/31 00:30:41.7	267.920	0.260	-0.220	1.440
2020/01/31 00:30:41.8	267.900	0.270	-0.210	1.440
2020/01/31 00:30:41.9	267.880	0.280	-0.190	1.440
2020/01/31 00:30:42.0	267.860	0.290	-0.180	1.430
2020/01/31 00:30:42.1	267.840	0.300	-0.160	1.430
2020/01/31 00:30:42.2	267.830	0.310	-0.150	1.420
2020/01/31 00:30:42.3	267.810	0.320	-0.140	1.400
2020/01/31 00:30:42.4	267.800	0.330	-0.130	1.390
2020/01/31 00:30:42.5	267.790	0.330	-0.110	1.380
2020/01/31 00:30:42.6	267.780	0.340	-0.100	1.360
2020/01/31 00:30:42.7	267.780	0.340	-0.090	1.340
2020/01/31 00:30:42.8	267.780	0.350	-0.080	1.320
2020/01/31 00:30:42.9	267.780	0.350	-0.080	1.300
2020/01/31 00:30:43.0	267.780	0.350	-0.070	1.280
2020/01/31 00:30:43.1	267.780	0.350	-0.060	1.250
2020/01/31 00:30:43.2	267.790	0.350	-0.060	1.220
2020/01/31 00:30:43.3	267.790	0.350	-0.060	1.190
2020/01/31 00:30:43.4	267.800	0.350	-0.060	1.160
2020/01/31 00:30:43.5	267.810	0.350	-0.060	1.130
2020/01/31 00:30:43.6	267.820	0.340	-0.060	1.100
2020/01/31 00:30:43.7	267.830	0.340	-0.060	1.070
2020/01/31 00:30:43.8	267.840	0.340	-0.070	1.030
2020/01/31 00:30:43.9	267.870	0.330	-0.080	1.000
2020/01/31 00:30:44.0	267.880	0.330	-0.090	0.960
2020/01/31 00:30:44.1	267.900	0.320	-0.100	0.930
2020/01/31 00:30:44.2	267.920	0.310	-0.110	0.890
2020/01/31 00:30:44.3	267.940	0.310	-0.120	0.850
2020/01/31 00:30:44.4	267.960	0.300	-0.140	0.810
2020/01/31 00:30:44.5	267.980	0.290	-0.160	0.770
2020/01/31 00:30:44.6	268.000	0.280	-0.170	0.730
2020/01/31 00:30:44.7	268.020	0.270	-0.190	0.690
2020/01/31 00:30:44.8	268.050	0.260	-0.210	0.650
2020/01/31 00:30:44.9	268.070	0.250	-0.230	0.610
2020/01/31 00:30:45.0	268.090	0.240	-0.250	0.570
2020/01/31 00:30:45.1	268.120	0.220	-0.270	0.530
2020/01/31 00:30:45.2	268.140	0.210	-0.290	0.490
2020/01/31 00:30:45.3	268.170	0.200	-0.310	0.460
2020/01/31 00:30:45.4	268.200	0.180	-0.330	0.420
2020/01/31 00:30:45.5	268.230	0.170	-0.350	0.390
2020/01/31 00:30:45.6	268.250	0.150	-0.370	0.350
2020/01/31 00:30:45.7	268.280	0.130	-0.380	0.320
2020/01/31 00:30:45.8	268.300	0.120	-0.400	0.290
2020/01/31 00:30:45.9	268.320	0.100	-0.430	0.270
2020/01/31 00:30:46.0	268.350	0.080	-0.440	0.240
2020/01/31 00:30:46.1	268.370	0.060	-0.460	0.220
2020/01/31 00:30:46.2	268.400	0.040	-0.470	0.200
2020/01/31 00:30:46.3	268.420	0.020	-0.490	0.180
2020/01/31 00:30:46.4	268.450	0.000	-0.500	0.170
2020/01/31 00:30:46.5	268.470	-0.020	-0.510	0.150
2020/01/31 00:30:46.6	268.490	-0.040	-0.520	0.140
2020/01/31 00:30:46.7	268.520	-0.060	-0.530	0.130
2020/01/31 00:30:46.8	268.540	-0.080	-0.530	0.130
2020/01/31 00:30:46.9	268.560	-0.100	-0.530	0.130
2020/01/31 00:30:47.0	268.580	-0.130	-0.540	0.120
2020/01/31 00:30:47.1	268.600	-0.150	-0.540	0.130
2020/01/31 00:30:47.2	268.620	-0.170	-0.540	0.130
2020/01/31 00:30:47.3	268.640	-0.190	-0.530	0.140
2020/01/31 00:30:47.4	268.660	-0.210	-0.530	0.140
2020/01/31 00:30:47.5	268.680	-0.230	-0.520	0.160
2020/01/31 00:30:47.6	268.700	-0.250	-0.520	0.170
2020/01/31 00:30:47.7	268.720	-0.270	-0.510	0.190
2020/01/31 00:30:47.8	268.730	-0.290	-0.500	0.210
2020/01/31 00:30:47.9	268.750	-0.310	-0.490	0.230
2020/01/31 00:30:48.0	268.760	-0.330	-0.480	0.250
2020/01/31 00:30:48.1	268.780	-0.340	-0.460	0.280
2020/01/31 00:30:48.2	268.790	-0.360	-0.450	0.300
2020/01/31 00:30:48.3	268.800	-0.370	-0.440	0.330
2020/01/31 00:30:48.4	268.810	-0.390	-0.420	0.350
2020/01/31 00:30:48.5	268.810	-0.400	-0.410	0.380
2020/01/31 00:30:48.6	268.820	-0.410	-0.400	0.410
2020/01/31 00:30:48.7	268.820	-0.420	-0.390	0.440
2020/01/31 00:30:48.8	268.820	-0.430	-0.370	0.470
2020/01/31 00:30:48.9	268.810	-0.440	-0.360	0.500
2020/01/31 00:30:49.0	268.810	-0.450	-0.350	0.530
2020/01/31 00:30:49.1	268.800	-0.450	-0.340	0.550
2020/01/31 00:30:49.2	268.800	-0.460	-0.330	0.580
2020/01/31 00:30:49.3	268.790	-0.460	-0.320	0.610
2020/01/31 00:30:49.4	268.780	-0.460	-0.310	0.640
2020/01/31 00:30:49.5	268.770	-0.450	-0.310	0.670
2020/01/31 00:30:49.6	268.750	-0.450	-0.300	0.700
2020/01/31 00:30:49.7	268.740	-0.440	-0.300	0.730
2020/01/31 00:30:49.8	268.720	-0.440	-0.290	0.760
2020/01/31 00:30:49.9	268.700	-0.430	-0.290	0.790
2020/01/31 00:30:50.0	268.690	-0.420	-0.290	0.820
2020/01/31 00:30:50.1	268.670	-0.400	-0.290	0.850
2020/01/31 00:30:50.2	268.640	-0.390	-0.290	0.880
2020/01/31 00:30:50.3	268.620	-0.370	-0.290	0.910
2020/01/31 00:30:50.4	268.600	-0.350	-0.290	0.940
2020/01/31 00:30:50.5	268.570	-0.330	-0.290	0.970
2020/01/31 00:30:50.6	268.550	-0.310	-0.290	1.000
2020/01/31 00:30:50.7	268.520	-0.290	-0.290	1.030
2020/01/31 00:30:50.8	268.500	-0.270	-0.300	1.050
2020/01/31 00:30:50.9	268.480	-0.250	-0.300	1.080
2020/01/31 00:30:51.0	268.450	-0.220	-0.300	1.110
2020/01/31 00:30:51.1	268.420	-0.200	-0.310	1.140
2020/01/31 00:30:51.2	268.400	-0.170	-0.310	1.170
2020/01/31 00:30:51.3	268.370	-0.150	-0.310	1.190
2020/01/31 00:30:51.4	268.350	-0.120	-0.310	1.220
2020/01/31 00:30:51.5	268.320	-0.100	-0.310	1.250
2020/01/31 00:30:51.6	268.300	-0.070	-0.310	1.270
2020/01/31 00:30:51.7	268.270	-0.050	-0.310	1.300
2020/01/31 00:30:51.8	268.250	-0.030	-0.300	1.320
2020/01/31 00:30:51.9	268.230	-0.000	-0.300	1.340
2020/01/31 00:30:52.0	268.200	0.020	-0.290	1.360
2020/01/31 00:30:52.1	268.180	0.040	-0.290	1.390
2020/01/31 00:30:52.2	268.160	0.060	-0.280	1.410
2020/01/31 00:30:52.3	268.140	0.080	-0.270	1.420
2020/01/31 00:30:52.4	268.110	0.100	-0.270	1.440
2020/01/31 00:30:52.5	268.090	0.120	-0.260	1.460
2020/01/31 00:30:52.6	268.070	0.130	-0.250	1.480
2020/01/31 00:30:52.7	268.050	0.150	-0.240	1.490
2020/01/31 00:30:52.8	268.020	0.160	-0.230	1.500
2020/01/31 00:30:52.9	268.010	0.170	-0.220	1.510
2020/01/31 00:30:53.0	267.980	0.180	-0.210	1.520
2020/01/31 00:30:53.1	267.960	0.190	-0.190	1.530
2020/01/31 00:30:53.2	267.940	0.190	-0.180	1.540
2020/01/31 00:30:53.3	267.920	0.200	-0.170	1.540
2020/01/31 00:30:53.4	267.900	0.200	-0.160	1.540
2020/01/31 00:30:53.5	267.880	0.210	-0.150	1.540
2020/01/31 00:30:53.6	267.860	0.210	-0.140	1.530
2020/01/31 00:30:53.7	267.840	0.210	-0.130	1.520
2020/01/31 00:30:53.8	267.820	0.210	-0.120	1.510
2020/01/31 00:30:53.9	267.820	0.200	-0.110	1.500
2020/01/31 00:30:54.0	267.810	0.200	-0.100	1.480
2020/01/31 00:30:54.1	267.790	0.200	-0.090	1.470
2020/01/31 00:30:54.2	267.780	0.190	-0.080	1.450
2020/01/31 00:30:54.3	267.760	0.190	-0.080	1.430
2020/01/31 00:30:54.4	267.750	0.180	-0.070	1.400
2020/01/31 00:30:54.5	267.740	0.170	-0.070	1.380
2020/01/31 00:30:54.6	267.730	0.170	-0.070	1.350
2020/01/31 00:30:54.7	267.720	0.160	-0.060	1.320
2020/01/31 00:30:54.8	267.720	0.150	-0.060	1.300
2020/01/31 00:30:54.9	267.710	0.150	-0.070	1.270
2020/01/31 00:30:55.0	267.710	0.140	-0.070	1.240
2020/01/31 00:30:55.1	267.710	0.130	-0.070	1.200
2020/01/31 00:30:55.2	267.700	0.130	-0.080	1.170
2020/01/31 00:30:55.3	267.710	0.120	-0.080	1.140
2020/01/31 00:30:55.4	267.710	0.120	-0.090	1.100
2020/01/31 00:30:55.5	267.710	0.120	-0.100	1.060
2020/01/31 00:30:55.6	267.720	0.110	-0.110	1.030
2020/01/31 00:30:55.7	267.730	0.110	-0.120	0.990
2020/01/31 00:30:55.8	267.740	0.110	-0.130	0.950
2020/01/31 00:30:55.9	267.750	0.110	-0.150	0.910
2020/01/31 00:30:56.0	267.760	0.110	-0.160	0.870
2020/01/31 00:30:56.1	267.780	0.110	-0.180	0.830
2020/01/31 00:30:56.2	267.810	0.110	-0.200	0.790
2020/01/31 00:30:56.3	267.830	0.110	-0.210	0.740
2020/01/31 00:30:56.4	267.860	0.110	-0.230	0.700
2020/01/31 00:30:56.5	267.890	0.120	-0.250	0.660
2020/01/31 00:30:56.6	267.920	0.120	-0.270	0.610
2020/01/31 00:30:56.7	267.960	0.120	-0.290	0.570
2020/01/31 00:30:56.8	268.000	0.130	-0.310	0.530
2020/01/31 00:30:56.9	268.050	0.130	-0.340	0.480
2020/01/31 00:30:57.0	268.090	0.130	-0.360	0.440
2020/01/31 00:30:57.1	268.140	0.140	-0.380	0.400
2020/01/31 00:30:57.2	268.180	0.140	-0.400	0.360
2020/01/31 00:30:57.3	268.230	0.150	-0.420	0.320
2020/01/31 00:30:57.4	268.280	0.150	-0.440	0.290
2020/01/31 00:30:57.5	268.330	0.150	-0.460	0.250
2020/01/31 00:30:57.6	268.380	0.160	-0.480	0.220
2020/01/31 00:30:57.7	268.430	0.160	-0.500	0.200
2020/01/31 00:30:57.8	268.470	0.160	-0.520	0.170
2020/01/31 00:30:57.9	268.500	0.160	-0.540	0.150
2020/01/31 00:30:58.0	268.550	0.160	-0.550	0.130
2020/01/31 00:30:58.1	268.600	0.160	-0.570	0.120
2020/01/31 00:30:58.2	268.650	0.160	-0.580	0.110
2020/01/31 00:30:58.3	268.690	0.160	-0.590	0.100
2020/01/31 00:30:58.4	268.730	0.160	-0.600	0.100
2020/01/31 00:30:58.5	268.780	0.160	-0.610	0.100
2020/01/31 00:30:58.6	268.820	0.150	-0.610	0.110
2020/01/31 00:30:58.7	268.860	0.150	-0.620	0.120
2020/01/31 00:30:58.8	268.890	0.140	-0.620	0.130
2020/01/31 00:30:58.9	268.920	0.130	-0.620	0.150
2020/01/31 00:30:59.0	268.950	0.130	-0.630	0.170
2020/01/31 00:30:59.1	268.980	0.120	-0.620	0.190
2020/01/31 00:30:59.2	269.010	0.110	-0.620	0.210
2020/01/31 00:30:59.3	269.030	0.090	-0.620	0.230
2020/01/31 00:30:59.4	269.060	0.080	-0.610	0.260
2020/01/31 00:30:59.5	269.080	0.070	-0.610	0.280
2020/01/31 00:30:59.6	269.090	0.060	-0.600	0.310
2020/01/31 00:30:59.7	269.110	0.040	-0.590	0.340
2020/01/31 00:30:59.8	269.120	0.020	-0.580	0.370
2020/01/31 00:30:59.9	269.110	0.010	-0.570	0.400
2020/01/31 00:31:00.0	269.120	-0.010	-0.560	0.430
2020/01/31 00:31:00.1	269.120	-0.020	-0.550	0.460
2020/01/31 00:31:00.2	269.120	-0.040	-0.530	0.500
2020/01/31 00:31:00.3	269.120	-0.060	-0.520	0.530
2020/01/31 00:31:00.4	269.120	-0.080	-0.510	0.570
2020/01/31 00:31:00.5	269.110	-0.100	-0.490	0.600
2020/01/31 00:31:00.6	269.110	-0.120	-0.480	0.640
2020/01/31 00:31:00.7	269.100	-0.130	-0.460	0.680
2020/01/31 00:31:00.8	269.090	-0.150	-0.450	0.720
2020/01/31 00:31:00.9	269.070	-0.170	-0.430	0.760
2020/01/31 00:31:01.0	269.060	-0.190	-0.420	0.800
2020/01/31 00:31:01.1	269.040	-0.210	-0.400	0.840
2020/01/31 00:31:01.2	269.020	-0.230	-0.390	0.880
2020/01/31 00:31:01.3	269.000	-0.240	-0.370	0.920
2020/01/31 00:31:01.4	268.970	-0.260	-0.360	0.960
2020/01/31 00:31:01.5	268.950	-0.270	-0.350	1.000
2020/01/31 00:31:01.6	268.920	-0.290	-0.330	1.040
2020/01/31 00:31:01.7	268.890	-0.300	-0.320	1.080
2020/01/31 00:31:01.8	268.860	-0.320	-0.310	1.110
2020/01/31 00:31:01.9	268.830	-0.330	-0.300	1.160
2020/01/31 00:31:02.0	268.790	-0.340	-0.290	1.190
2020/01/31 00:31:02.1	268.760	-0.350	-0.270	1.230
2020/01/31 00:31:02.2	268.720	-0.360	-0.260	1.260
2020/01/31 00:31:02.3	268.680	-0.360	-0.240	1.290
2020/01/31 00:31:02.4	268.650	-0.370	-0.230	1.330
2020/01/31 00:31:02.5	268.610	-0.380	-0.210	1.360
2020/01/31 00:31:02.6	268.570	-0.380	-0.200	1.380
2020/01/31 00:31:02.7	268.530	-0.380	-0.180	1.410
2020/01/31 00:31:02.8	268.490	-0.380	-0.160	1.440
2020/01/31 00:31:02.9	268.450	-0.380	-0.150	1.460
2020/01/31 00:31:03.0	268.410	-0.380	-0.130	1.480
2020/01/31 00:31:03.1	268.370	-0.380	-0.110	1.500
2020/01/31 00:31:03.2	268.330	-0.370	-0.080	1.520
2020/01/31 00:31:03.3	268.290	-0.370	-0.060	1.530
2020/01/31 00:31:03.4	268.250	-0.360	-0.040	1.550
2020/01/31 00:31:03.5	268.210	-0.350	-0.020	1.560
2020/01/31 00:31:03.6	268.180	-0.340	0.010	1.560
2020/01/31 00:31:03.7	268.140	-0.330	0.030	1.570
2020/01/31 00:31:03.8	268.110	-0.320	0.050	1.570
2020/01/31 00:31:03.9	268.080	-0.310	0.070	1.570
2020/01/31 00:31:04.0	268.050	-0.300	0.090	1.570
2020/01/31 00:31:04.1	268.020	-0.280	0.110	1.560
2020/01/31 00:31:04.2	267.990	-0.260	0.130	1.550
2020/01/31 00:31:04.3	267.960	-0.240	0.150	1.540
2020/01/31 00:31:04.4	267.940	-0.230	0.170	1.530
2020/01/31 00:31:04.5	267.910	-0.210	0.180	1.510
2020/01/31 00:31:04.6	267.890	-0.180	0.200	1.500
2020/01/31 00:31:04.7	267.870	-0.160	0.210	1.480
2020/01/31 00:31:04.8	267.850	-0.140	0.220	1.460
2020/01/31 00:31:04.9	267.830	-0.110	0.230	1.440
2020/01/31 00:31:05.0	267.810	-0.090	0.230	1.420
2020/01/31 00:31:05.1	267.800	-0.060	0.230	1.400
2020/01/31 00:31:05.2	267.790	-0.040	0.230	1.380
2020/01/31 00:31:05.3	267.780	-0.010	0.230	1.350
2020/01/31 00:31:05.4	267.770	0.020	0.220	1.330
2020/01/31 00:31:05.5	267.760	0.040	0.220	1.300
2020/01/31 00:31:05.6	267.760	0.070	0.210	1.270
2020/01/31 00:31:05.7	267.750	0.100	0.190	1.250
2020/01/31 00:31:05.8	267.750	0.120	0.180	1.220
2020/01/31 00:31:05.9	267.760	0.150	0.160	1.190
2020/01/31 00:31:06.0	267.760	0.180	0.140	1.160
2020/01/31 00:31:06.1	267.760	0.200	0.120	1.140
2020/01/31 00:31:06.2	267.770	0.230	0.090	1.110
2020/01/31 00:31:06.3	267.770	0.250	0.070	1.080
2020/01/31 00:31:06.4	267.780	0.280	0.040	1.050
2020/01/31 00:31:06.5	267.790	0.300	0.010	1.030
2020/01/31 00:31:06.6	267.810	0.320	-0.020	1.000
2020/01/31 00:31:06.7	267.820	0.340	-0.050	0.970
2020/01/31 00:31:06.8	267.830	0.360	-0.090	0.950
2020/01/31 00:31:06.9	267.840	0.380	-0.120	0.920
2020/01/31 00:31:07.0	267.860	0.400	-0.160	0.900
2020/01/31 00:31:07.1	267.870	0.410	-0.190	0.880
2020/01/31 00:31:07.2	267.890	0.430	-0.230	0.860
2020/01/31 00:31:07.3	267.910	0.440	-0.260	0.840
2020/01/31 00:31:07.4	267.930	0.450	-0.300	0.820
2020/01/31 00:31:07.5	267.950	0.450	-0.330	0.800
2020/01/31 00:31:07.6	267.970	0.460	-0.360	0.780
2020/01/31 00:31:07.7	267.990	0.460	-0.390	0.770
2020/01/31 00:31:07.8	268.010	0.460	-0.420	0.750
2020/01/31 00:31:07.9	268.040	0.460	-0.460	0.740
2020/01/31 00:31:08.0	268.060	0.460	-0.490	0.730
2020/01/31 00:31:08.1	268.090	0.450	-0.520	0.720
2020/01/31 00:31:08.2	268.110	0.440	-0.540	0.710
2020/01/31 00:31:08.3	268.140	0.430	-0.570	0.700
2020/01/31 00:31:08.4	268.160	0.420	-0.590	0.690
2020/01/31 00:31:08.5	268.190	0.410	-0.610	0.690
2020/01/31 00:31:08.6	268.220	0.390	-0.630	0.680
2020/01/31 00:31:08.7	268.240	0.370	-0.650	0.670
2020/01/31 00:31:08.8	268.270	0.350	-0.660	0.670
2020/01/31 00:31:08.9	268.300	0.330	-0.680	0.660
2020/01/31 00:31:09.0	268.330	0.310	-0.690	0.650
2020/01/31 00:31:09.1	268.360	0.290	-0.700	0.650
2020/01/31 00:31:09.2	268.390	0.260	-0.710	0.640
2020/01/31 00:31:09.3	268.430	0.240	-0.710	0.630
2020/01/31 00:31:09.4	268.460	0.210	-0.720	0.630
2020/01/31 00:31:09.5	268.500	0.180	-0.720	0.620
2020/01/31 00:31:09.6	268.540	0.160	-0.730	0.620
2020/01/31 00:31:09.7	268.570	0.130	-0.730	0.610
2020/01/31 00:31:09.8	268.610	0.100	-0.730	0.610
2020/01/31 00:31:09.9	268.660	0.070	-0.730	0.610
2020/01/31 00:31:10.0	268.700	0.050	-0.730	0.600
2020/01/31 00:31:10.1	268.740	0.020	-0.730	0.600
2020/01/31 00:31:10.2	268.770	-0.010	-0.730	0.600
2020/01/31 00:31:10.3	268.810	-0.030	-0.730	0.600
2020/01/31 00:31:10.4	268.850	-0.050	-0.720	0.590
2020/01/31 00:31:10.5	268.890	-0.080	-0.720	0.590
2020/01/31 00:31:10.6	268.920	-0.100	-0.720	0.590
2020/01/31 00:31:10.7	268.960	-0.120	-0.710	0.590
2020/01/31 00:31:10.8	269.000	-0.140	-0.710	0.600
2020/01/31 00:31:10.9	269.030	-0.160	-0.710	0.600
2020/01/31 00:31:11.0	269.070	-0.170	-0.700	0.600
2020/01/31 00:31:11.1	269.100	-0.180	-0.700	0.600
2020/01/31 00:31:11.2	269.130	-0.200	-0.700	0.610
2020/01/31 00:31:11.3	269.170	-0.210	-0.690	0.610
2020/01/31 00:31:11.4	269.200	-0.210	-0.690	0.610
2020/01/31 00:31:11.5	269.220	-0.220	-0.690	0.620
2020/01/31 00:31:11.6	269.250	-0.220	-0.680	0.620
2020/01/31 00:31:11.7	269.280	-0.230	-0.680	0.630
2020/01/31 00:31:11.8	269.300	-0.230	-0.680	0.640
2020/01/31 00:31:11.9	269.320	-0.220	-0.680	0.640
2020/01/31 00:31:12.0	269.340	-0.220	-0.680	0.650
2020/01/31 00:31:12.1	269.360	-0.210	-0.670	0.660
2020/01/31 00:31:12.2	269.370	-0.210	-0.670	0.670
2020/01/31 00:31:12.3	269.380	-0.200	-0.670	0.690
2020/01/31 00:31:12.4	269.390	-0.190	-0.670	0.700
2020/01/31 00:31:12.5	269.400	-0.180	-0.660	0.720
2020/01/31 00:31:12.6	269.410	-0.170	-0.660	0.730
2020/01/31 00:31:12.7	269.410	-0.150	-0.650	0.750
2020/01/31 00:31:12.8	269.410	-0.140	-0.650	0.770
2020/01/31 00:31:12.9	269.390	-0.130	-0.640	0.790
2020/01/31 00:31:13.0	269.390	-0.110	-0.630	0.810
2020/01/31 00:31:13.1	269.380	-0.100	-0.620	0.840
2020/01/31 00:31:13.2	269.360	-0.080	-0.610	0.860
2020/01/31 00:31:13.3	269.350	-0.070	-0.590	0.880
2020/01/31 00:31:13.4	269.330	-0.060	-0.580	0.900
2020/01/31 00:31:13.5	269.310	-0.050	-0.560	0.920
2020/01/31 00:31:13.6	269.290	-0.030	-0.540	0.950
2020/01/31 00:31:13.7	269.270	-0.020	-0.520	0.970
2020/01/31 00:31:13.8	269.240	-0.010	-0.490	0.990
2020/01/31 00:31:13.9	269.210	-0.000	-0.470	1.010
2020/01/31 00:31:14.0	269.180	0.000	-0.440	1.030
2020/01/31 00:31:14.1	269.150	0.010	-0.410	1.050
2020/01/31 00:31:14.2	269.120	0.010	-0.380	1.070
2020/01/31 00:31:14.3	269.090	0.020	-0.350	1.080
2020/01/31 00:31:14.4	269.050	0.020	-0.320	1.100
2020/01/31 00:31:14.5	269.020	0.020	-0.290	1.110
2020/01/31 00:31:14.6	268.990	0.020	-0.260	1.120
2020/01/31 00:31:14.7	268.950	0.020	-0.220	1.130
2020/01/31 00:31:14.8	268.920	0.020	-0.190	1.140
2020/01/31 00:31:14.9	268.880	0.020	-0.160	1.150
2020/01/31 00:31:15.0	268.840	0.010	-0.120	1.160
2020/01/31 00:31:15.1	268.810	0.010	-0.090	1.160
2020/01/31 00:31:15.2	268.770	-0.000	-0.060	1.160
2020/01/31 00:31:15.3	268.740	-0.010	-0.030	1.170
2020/01/31 00:31:15.4	268.700	-0.010	-0.000	1.170
2020/01/31 00:31:15.5	268.670	-0.020	0.020	1.160
2020/01/31 00:31:15.6	268.640	-0.030	0.050	1.160
2020/01/31 00:31:15.7	268.600	-0.040	0.070	1.160
2020/01/31 00:31:15.8	268.570	-0.050	0.100	1.150
2020/01/31 00:31:15.9	268.540	-0.060	0.120	1.140
2020/01/31 00:31:16.0	268.510	-0.060	0.130	1.130
2020/01/31 00:31:16.1	268.480	-0.070	0.150	1.120
2020/01/31 00:31:16.2	268.450	-0.080	0.170	1.110
2020/01/31 00:31:16.3	268.430	-0.090	0.180	1.090
2020/01/31 00:31:16.4	268.400	-0.100	0.190	1.080
2020/01/31 00:31:16.5	268.380	-0.100	0.200	1.060
2020/01/31 00:31:16.6	268.350	-0.110	0.210	1.040
2020/01/31 00:31:16.7	268.330	-0.120	0.220	1.020
2020/01/31 00:31:16.8	268.310	-0.120	0.220	1.000
2020/01/31 00:31:16.9	268.300	-0.130	0.230	0.980
2020/01/31 00:31:17.0	268.280	-0.130	0.230	0.950
2020/01/31 00:31:17.1	268.260	-0.130	0.230	0.930
2020/01/31 00:31:17.2	268.250	-0.140	0.230	0.910
2020/01/31 00:31:17.3	268.230	-0.140	0.230	0.890
2020/01/31 00:31:17.4	268.220	-0.140	0.230	0.860
2020/01/31 00:31:17.5	268.210	-0.140	0.230	0.840
2020/01/31 00:31:17.6	268.200	-0.140	0.220	0.810
2020/01/31 00:31:17.7	268.200	-0.140	0.220	0.790
2020/01/31 00:31:17.8	268.190	-0.130	0.210	0.770
2020/01/31 00:31:17.9	268.190	-0.130	0.200	0.750
2020/01/31 00:31:18.0	268.190	-0.130	0.200	0.730
2020/01/31 00:31:18.1	268.190	-0.130	0.190	0.710
2020/01/31 00:31:18.2	268.190	-0.120	0.180	0.690
2020/01/31 00:31:18.3	268.190	-0.120	0.170	0.670
2020/01/31 00:31:18.4	268.190	-0.110	0.160	0.650
2020/01/31 00:31:18.5	268.200	-0.110	0.150	0.630
2020/01/31 00:31:18.6	268.210	-0.100	0.140	0.620
2020/01/31 00:31:18.7	268.210	-0.090	0.130	0.610
2020/01/31 00:31:18.8	268.220	-0.090	0.120	0.590
2020/01/31 00:31:18.9	268.220	-0.080	0.110	0.580
2020/01/31 00:31:19.0	268.230	-0.070	0.100	0.570
2020/01/31 00:31:19.1	268.250	-0.070	0.090	0.560
2020/01/31 00:31:19.2	268.260	-0.060	0.080	0.550
2020/01/31 00:31:19.3	268.280	-0.050	0.070	0.550
2020/01/31 00:31:19.4	268.290	-0.040	0.050	0.540
2020/01/31 00:31:19.5	268.310	-0.030	0.040	0.530
2020/01/31 00:31:19.6	268.330	-0.030	0.030	0.530
2020/01/31 00:31:19.7	268.350	-0.020	0.010	0.520
2020/01/31 00:31:19.8	268.370	-0.010	-0.000	0.520
2020/01/31 00:31:19.9	268.400	0.000	-0.020	0.520
2020/01/31 00:31:20.0	268.420	0.010	-0.030	0.520
2020/01/31 00:31:20.1	268.450	0.020	-0.050	0.520
2020/01/31 00:31:20.2	268.470	0.030	-0.060	0.510
2020/01/31 00:31:20.3	268.500	0.040	-0.080	0.520
2020/01/31 00:31:20.4	268.530	0.050	-0.100	0.520
2020/01/31 00:31:20.5	268.560	0.060	-0.120	0.520
2020/01/31 00:31:20.6	268.590	0.070	-0.130	0.520
2020/01/31 00:31:20.7	268.620	0.080	-0.150	0.530
2020/01/31 00:31:20.8	268.650	0.090	-0.170	0.530
2020/01/31 00:31:20.9	268.680	0.100	-0.190	0.540
2020/01/31 00:31:21.0	268.710	0.110	-0.210	0.550
2020/01/31 00:31:21.1	268.740	0.120	-0.230	0.550
2020/01/31 00:31:21.2	268.780	0.130	-0.250	0.560
2020/01/31 00:31:21.3	268.810	0.140	-0.270	0.570
2020/01/31 00:31:21.4	268.850	0.160	-0.290	0.580
2020/01/31 00:31:21.5	268.880	0.170	-0.320	0.590
2020/01/31 00:31:21.6	268.910	0.180	-0.340	0.600
2020/01/31 00:31:21.7	268.950	0.190	-0.360	0.610
2020/01/31 00:31:21.8	268.980	0.200	-0.390	0.630
2020/01/31 00:31:21.9	269.010	0.210	-0.410	0.640
2020/01/31 00:31:22.0	269.040	0.220	-0.430	0.660
2020/01/31 00:31:22.1	269.080	0.230	-0.460	0.670
2020/01/31 00:31:22.2	269.110	0.240	-0.480	0.690
2020/01/31 00:31:22.3	269.140	0.250	-0.510	0.710
2020/01/31 00:31:22.4	269.170	0.260	-0.530	0.730
2020/01/31 00:31:22.5	269.190	0.270	-0.550	0.750
2020/01/31 00:31:22.6	269.220	0.280	-0.580	0.770
2020/01/31 00:31:22.7	269.250	0.280	-0.600	0.800
2020/01/31 00:31:22.8	269.270	0.290	-0.630	0.820
2020/01/31 00:31:22.9	269.290	0.300	-0.650	0.850
2020/01/31 00:31:23.0	269.310	0.310	-0.670	0.880
2020/01/31 00:31:23.1	269.330	0.310	-0.700	0.900
2020/01/31 00:31:23.2	269.340	0.320	-0.720	0.930
2020/01/31 00:31:23.3	269.360	0.320	-0.740	0.960
2020/01/31 00:31:23.4	269.370	0.330	-0.760	0.990
2020/01/31 00:31:23.5	269.380	0.330	-0.790	1.020
2020/01/31 00:31:23.6	269.390	0.330	-0.810	1.040
2020/01/31 00:31:23.7	269.400	0.330	-0.830	1.070
2020/01/31 00:31:23.8	269.410	0.330	-0.840	1.090
2020/01/31 00:31:23.9	269.420	0.330	-0.860	1.120
2020/01/31 00:31:24.0	269.430	0.330	-0.880	1.140
2020/01/31 00:31:24.1	269.430	0.330	-0.890	1.160
2020/01/31 00:31:24.2	269.430	0.320	-0.900	1.180
2020/01/31 00:31:24.3	269.440	0.320	-0.920	1.200
2020/01/31 00:31:24.4	269.440	0.310	-0.920	1.210
2020/01/31 00:31:24.5	269.430	0.300	-0.930	1.230
2020/01/31 00:31:24.6	269.430	0.290	-0.940	1.240
2020/01/31 00:31:24.7	269.430	0.280	-0.940	1.250
2020/01/31 00:31:24.8	269.420	0.270	-0.940	1.260
2020/01/31 00:31:24.9	269.420	0.250	-0.940	1.270
2020/01/31 00:31:25.0	269.410	0.240	-0.930	1.280
2020/01/31 00:31:25.1	269.400	0.220	-0.920	1.290
2020/01/31 00:31:25.2	269.390	0.200	-0.910	1.300
2020/01/31 00:31:25.3	269.380	0.190	-0.900	1.300
2020/01/31 00:31:25.4	269.360	0.160	-0.890	1.310
2020/01/31 00:31:25.5	269.350	0.140	-0.870	1.310
2020/01/31 00:31:25.6	269.330	0.120	-0.860	1.310
2020/01/31 00:31:25.7	269.310	0.090	-0.840	1.310
2020/01/31 00:31:25.8	269.290	0.070	-0.820	1.320
2020/01/31 00:31:25.9	269.270	0.040	-0.790	1.320
2020/01/31 00:31:26.0	269.250	0.010	-0.770	1.320
2020/01/31 00:31:26.1	269.220	-0.010	-0.740	1.310
2020/01/31 00:31:26.2	269.200	-0.040	-0.720	1.310
2020/01/31 00:31:26.3	269.170	-0.070	-0.690	1.300
2020/01/31 00:31:26.4	269.140	-0.100	-0.660	1.300
2020/01/31 00:31:26.5	269.110	-0.130	-0.630	1.290
2020/01/31 00:31:26.6	269.080	-0.170	-0.600	1.280
2020/01/31 00:31:26.7	269.050	-0.200	-0.580	1.270
2020/01/31 00:31:26.8	269.020	-0.230	-0.540	1.250
2020/01/31 00:31:26.9	268.990	-0.260	-0.520	1.240
2020/01/31 00:31:27.0	268.950	-0.290	-0.490	1.220
2020/01/31 00:31:27.1	268.920	-0.320	-0.460	1.200
2020/01/31 00:31:27.2	268.890	-0.340	-0.430	1.180
2020/01/31 00:31:27.3	268.850	-0.370	-0.400	1.160
2020/01/31 00:31:27.4	268.820	-0.400	-0.370	1.140
2020/01/31 00:31:27.5	268.780	-0.420	-0.340	1.120
2020/01/31 00:31:27.6	268.740	-0.440	-0.310	1.100
2020/01/31 00:31:27.7	268.710	-0.470	-0.280	1.080
2020/01/31 00:31:27.8	268.670	-0.480	-0.250	1.050
2020/01/31 00:31:27.9	268.650	-0.500	-0.230	1.030
2020/01/31 00:31:28.0	268.620	-0.520	-0.200	1.000
2020/01/31 00:31:28.1	268.580	-0.530	-0.170	0.980
2020/01/31 00:31:28.2	268.550	-0.540	-0.150	0.960
2020/01/31 00:31:28.3	268.520	-0.550	-0.130	0.930
2020/01/31 00:31:28.4	268.490	-0.560	-0.100	0.910
2020/01/31 00:31:28.5	268.460	-0.570	-0.080	0.890
2020/01/31 00:31:28.6	268.440	-0.570	-0.060	0.870
2020/01/31 00:31:28.7	268.410	-0.570	-0.040	0.850
2020/01/31 00:31:28.8	268.390	-0.570	-0.020	0.830
2020/01/31 00:31:28.9	268.370	-0.560	-0.010	0.810
2020/01/31 00:31:29.0	268.350	-0.560	0.010	0.800
2020/01/31 00:31:29.1	268.330	-0.550	0.030	0.780
2020/01/31 00:31:29.2	268.320	-0.540	0.040	0.760
2020/01/31 00:31:29.3	268.300	-0.520	0.050	0.750
2020/01/31 00:31:29.4	268.290	-0.510	0.060	0.740
2020/01/31 00:31:29.5	268.280	-0.490	0.070	0.730
2020/01/31 00:31:29.6	268.270	-0.480	0.080	0.720
2020/01/31 00:31:29.7	268.260	-0.460	0.090	0.710
2020/01/31 00:31:29.8	268.250	-0.430	0.090	0.700
2020/01/31 00:31:29.9	268.250	-0.410	0.100	0.700
2020/01/31 00:31:30.0	268.250	-0.390	0.100	0.690
2020/01/31 00:31:30.1	268.250	-0.360	0.100	0.690
2020/01/31 00:31:30.2	268.250	-0.330	0.110	0.690
2020/01/31 00:31:30.3	268.250	-0.310	0.100	0.690
2020/01/31 00:31:30.4	268.250	-0.280	0.100	0.690
2020/01/31 00:31:30.5	268.260	-0.250	0.100	0.690
2020/01/31 00:31:30.6	268.260	-0.220	0.100	0.690
2020/01/31 00:31:30.7	268.270	-0.190	0.100	0.700
2020/01/31 00:31:30.8	268.280	-0.160	0.100	0.700
2020/01/31 00:31:30.9	268.300	-0.120	0.090	0.710
2020/01/31 00:31:31.0	268.310	-0.090	0.090	0.720
2020/01/31 00:31:31.1	268.330	-0.060	0.080	0.730
2020/01/31 00:31:31.2	268.340	-0.030	0.080	0.740
2020/01/31 00:31:31.3	268.360	0.000	0.080	0.760
2020/01/31 00:31:31.4	268.380	0.030	0.070	0.770
2020/01/31 00:31:31.5	268.410	0.070	0.070	0.790
2020/01/31 00:31:31.6	268.430	0.100	0.060	0.800
2020/01/31 00:31:31.7	268.450	0.130	0.060	0.820
2020/01/31 00:31:31.8	268.480	0.160	0.060	0.840
2020/01/31 00:31:31.9	268.510	0.190	0.050	0.860
2020/01/31 00:31:32.0	268.540	0.220	0.050	0.880
2020/01/31 00:31:32.1	268.570	0.240	0.050	0.900
2020/01/31 00:31:32.2	268.590	0.270	0.040	0.920
2020/01/31 00:31:32.3	268.620	0.300	0.040	0.940
2020/01/31 00:31:32.4	268.650	0.320	0.040	0.960
2020/01/31 00:31:32.5	268.680	0.350	0.040	0.980
2020/01/31 00:31:32.6	268.710	0.370	0.030	1.000
2020/01/31 00:31:32.7	268.750	0.390	0.030	1.020
2020/01/31 00:31:32.8	268.780	0.410	0.030	1.040
2020/01/31 00:31:32.9	268.810	0.430	0.020	1.070
2020/01/31 00:31:33.0	268.840	0.450	0.020	1.090
2020/01/31 00:31:33.1	268.870	0.460	0.020	1.100
2020/01/31 00:31:33.2	268.900	0.480	0.010	1.120
2020/01/31 00:31:33.3	268.930	0.490	0.010	1.140
2020/01/31 00:31:33.4	268.960	0.500	0.010	1.160
2020/01/31 00:31:33.5	268.990	0.510	0.000	1.180
2020/01/31 00:31:33.6	269.020	0.520	-0.000	1.190
2020/01/31 00:31:33.7	269.040	0.530	-0.010	1.210
2020/01/31 00:31:33.8	269.070	0.530	-0.010	1.220
2020/01/31 00:31:33.9	269.100	0.530	-0.020	1.230
2020/01/31 00:31:34.0	269.130	0.530	-0.030	1.240
2020/01/31 00:31:34.1	269.150	0.530	-0.040	1.250
2020/01/31 00:31:34.2	269.170	0.530	-0.050	1.260
2020/01/31 00:31:34.3	269.190	0.530	-0.060	1.270
2020/01/31 00:31:34.4	269.210	0.520	-0.070	1.270
2020/01/31 00:31:34.5	269.230	0.510	-0.080	1.280
2020/01/31 00:31:34.6	269.250	0.500	-0.100	1.280
2020/01/31 00:31:34.7	269.260	0.490	-0.110	1.280
2020/01/31 00:31:34.8	269.280	0.480	-0.130	1.280
2020/01/31 00:31:34.9	269.280	0.470	-0.150	1.270
2020/01/31 00:31:35.0	269.290	0.450	-0.170	1.270
2020/01/31 00:31:35.1	269.300	0.440	-0.190	1.260
2020/01/31 00:31:35.2	269.310	0.420	-0.210	1.250
2020/01/31 00:31:35.3	269.310	0.400	-0.230	1.240
2020/01/31 00:31:35.4	269.310	0.380	-0.250	1.230
2020/01/31 00:31:35.5	269.320	0.360	-0.280	1.210
2020/01/31 00:31:35.6	269.310	0.340	-0.300	1.200
2020/01/31 00:31:35.7	269.310	0.320	-0.330	1.180
2020/01/31 00:31:35.8	269.310	0.300	-0.350	1.160
2020/01/31 00:31:35.9	269.300	0.280	-0.380	1.140
2020/01/31 00:31:36.0	269.290	0.260	-0.410	1.110
2020/01/31 00:31:36.1	269.280	0.230	-0.430	1.090
2020/01/31 00:31:36.2	269.280	0.210	-0.460	1.060
2020/01/31 00:31:36.3	269.270	0.190	-0.490	1.040
2020/01/31 00:31:36.4	269.260	0.170	-0.510	1.010
2020/01/31 00:31:36.5	269.250	0.150	-0.540	0.980
2020/01/31 00:31:36.6	269.240	0.130	-0.570	0.950
2020/01/31 00:31:36.7	269.230	0.110	-0.590	0.920
2020/01/31 00:31:36.8	269.220	0.090	-0.620	0.890
2020/01/31 00:31:36.9	269.210	0.070	-0.640	0.860
2020/01/31 00:31:37.0	269.200	0.050	-0.670	0.830
2020/01/31 00:31:37.1	269.190	0.040	-0.690	0.800
2020/01/31 00:31:37.2	269.180	0.020	-0.710	0.770
2020/01/31 00:31:37.3	269.160	0.010	-0.730	0.750
2020/01/31 00:31:37.4	269.150	-0.010	-0.740	0.720
2020/01/31 00:31:37.5	269.140	-0.020	-0.760	0.690
2020/01/31 00:31:37.6	269.130	-0.030	-0.770	0.670
2020/01/31 00:31:37.7	269.110	-0.040	-0.780	0.640
2020/01/31 00:31:37.8	269.100	-0.050	-0.790	0.620
2020/01/31 00:31:37.9	269.080	-0.060	-0.800	0.600
2020/01/31 00:31:38.0	269.060	-0.070	-0.800	0.580
2020/01/31 00:31:38.1	269.050	-0.070	-0.810	0.560
2020/01/31 00:31:38.2	269.040	-0.080	-0.800	0.540
2020/01/31 00:31:38.3	269.030	-0.090	-0.800	0.530
2020/01/31 00:31:38.4	269.020	-0.090	-0.800	0.510
2020/01/31 00:31:38.5	269.000	-0.100	-0.790	0.500
2020/01/31 00:31:38.6	268.990	-0.100	-0.780	0.490
2020/01/31 00:31:38.7	268.980	-0.100	-0.760	0.480
2020/01/31 00:31:38.8	268.970	-0.110	-0.750	0.470
2020/01/31 00:31:38.9	268.950	-0.110	-0.730	0.470
2020/01/31 00:31:39.0	268.950	-0.110	-0.710	0.460
2020/01/31 00:31:39.1	268.940	-0.120	-0.690	0.460
2020/01/31 00:31:39.2	268.930	-0.120	-0.670	0.460
2020/01/31 00:31:39.3	268.930	-0.130	-0.650	0.460
2020/01/31 00:31:39.4	268.920	-0.130	-0.620	0.460
2020/01/31 00:31:39.5	268.920	-0.130	-0.590	0.470
2020/01/31 00:31:39.6	268.910	-0.140	-0.570	0.470
2020/01/31 00:31:39.7	268.910	-0.140	-0.540	0.480
2020/01/31 00:31:39.8	268.910	-0.150	-0.510	0.490
2020/01/31 00:31:39.9	268.920	-0.160	-0.480	0.510
2020/01/31 00:31:40.0	268.920	-0.160	-0.450	0.520
2020/01/31 00:31:40.1	268.920	-0.170	-0.430	0.530
2020/01/31 00:31:40.2	268.920	-0.170	-0.400	0.550
2020/01/31 00:31:40.3	268.930	-0.180	-0.370	0.570
2020/01/31 00:31:40.4	268.930	-0.190	-0.350	0.580
2020/01/31 00:31:40.5	268.930	-0.190	-0.320	0.610
2020/01/31 00:31:40.6	268.940	-0.200	-0.300	0.630
2020/01/31 00:31:40.7	268.940	-0.200	-0.280	0.650
2020/01/31 00:31:40.8	268.950	-0.210	-0.260	0.680
2020/01/31 00:31:40.9	268.950	-0.210	-0.250	0.700
2020/01/31 00:31:41.0	268.960	-0.220	-0.230	0.730
2020/01/31 00:31:41.1	268.960	-0.220	-0.220	0.760
2020/01/31 00:31:41.2	268.970	-0.230	-0.210	0.790
2020/01/31 00:31:41.3	268.980	-0.230	-0.200	0.810
2020/01/31 00:31:41.4	268.990	-0.230	-0.200	0.840
2020/01/31 00:31:41.5	268.990	-0.230	-0.190	0.870
2020/01/31 00:31:41.6	269.000	-0.240	-0.190	0.900
2020/01/31 00:31:41.7	269.010	-0.240	-0.190	0.920
2020/01/31 00:31:41.8	269.020	-0.240	-0.190	0.950
2020/01/31 00:31:41.9	269.030	-0.240	-0.200	0.970
2020/01/31 00:31:42.0	269.040	-0.230	-0.200	0.990
2020/01/31 00:31:42.1	269.050	-0.230	-0.210	1.010
2020/01/31 00:31:42.2	269.060	-0.230	-0.210	1.030
2020/01/31 00:31:42.3	269.060	-0.230	-0.220	1.050
2020/01/31 00:31:42.4	269.070	-0.220	-0.230	1.070
2020/01/31 00:31:42.5	269.080	-0.220	-0.240	1.090
2020/01/31 00:31:42.6	269.080	-0.210	-0.240	1.100
2020/01/31 00:31:42.7	269.090	-0.210	-0.250	1.120
2020/01/31 00:31:42.8	269.090	-0.200	-0.260	1.130
2020/01/31 00:31:42.9	269.100	-0.190	-0.270	1.140
2020/01/31 00:31:43.0	269.100	-0.190	-0.270	1.150
2020/01/31 00:31:43.1	269.100	-0.180	-0.280	1.160
2020/01/31 00:31:43.2	269.100	-0.170	-0.280	1.170
2020/01/31 00:31:43.3	269.100	-0.160	-0.290	1.180
2020/01/31 00:31:43.4	269.100	-0.160	-0.290	1.180
2020/01/31 00:31:43.5	269.100	-0.150	-0.300	1.180
2020/01/31 00:31:43.6	269.100	-0.140	-0.300	1.180
2020/01/31 00:31:43.7	269.100	-0.130	-0.300	1.170
2020/01/31 00:31:43.8	269.100	-0.120	-0.300	1.170
2020/01/31 00:31:43.9	269.100	-0.120	-0.290	1.160
2020/01/31 00:31:44.0	269.100	-0.110	-0.290	1.160
2020/01/31 00:31:44.1	269.100	-0.100	-0.290	1.140
2020/01/31 00:31:44.2	269.100	-0.090	-0.280	1.130
2020/01/31 00:31:44.3	269.090	-0.090	-0.280	1.120
2020/01/31 00:31:44.4	269.090	-0.080	-0.270	1.100
2020/01/31 00:31:44.5	269.090	-0.080	-0.270	1.090
2020/01/31 00:31:44.6	269.090	-0.070	-0.260	1.070
2020/01/31 00:31:44.7	269.090	-0.070	-0.250	1.050
2020/01/31 00:31:44.8	269.090	-0.060	-0.240	1.040
2020/01/31 00:31:44.9	269.070	-0.060	-0.240	1.020
2020/01/31 00:31:45.0	269.070	-0.050	-0.230	1.000
2020/01/31 00:31:45.1	269.070	-0.050	-0.220	0.980
2020/01/31 00:31:45.2	269.070	-0.050	-0.220	0.960
2020/01/31 00:31:45.3	269.060	-0.050	-0.210	0.930
2020/01/31 00:31:45.4	269.060	-0.050	-0.210	0.910
2020/01/31 00:31:45.5	269.060	-0.050	-0.200	0.890
2020/01/31 00:31:45.6	269.060	-0.050	-0.200	0.870
2020/01/31 00:31:45.7	269.070	-0.050	-0.200	0.840
2020/01/31 00:31:45.8	269.070	-0.050	-0.190	0.810
2020/01/31 00:31:45.9	269.060	-0.050	-0.200	0.790
2020/01/31 00:31:46.0	269.060	-0.050	-0.200	0.760
2020/01/31 00:31:46.1	269.070	-0.050	-0.200	0.730
2020/01/31 00:31:46.2	269.070	-0.050	-0.200	0.700
2020/01/31 00:31:46.3	269.080	-0.050	-0.210	0.670
2020/01/31 00:31:46.4	269.080	-0.050	-0.210	0.640
2020/01/31 00:31:46.5	269.080	-0.060	-0.220	0.610
2020/01/31 00:31:46.6	269.090	-0.060	-0.230	0.580
2020/01/31 00:31:46.7	269.100	-0.060	-0.240	0.540
2020/01/31 00:31:46.8	269.100	-0.060	-0.250	0.510
2020/01/31 00:31:46.9	269.110	-0.060	-0.260	0.480
2020/01/31 00:31:47.0	269.120	-0.060	-0.270	0.450
2020/01/31 00:31:47.1	269.130	-0.060	-0.280	0.410
2020/01/31 00:31:47.2	269.140	-0.060	-0.300	0.380
2020/01/31 00:31:47.3	269.150	-0.060	-0.310	0.350
2020/01/31 00:31:47.4	269.150	-0.060	-0.320	0.320
2020/01/31 00:31:47.5	269.160	-0.050	-0.340	0.290
2020/01/31 00:31:47.6	269.170	-0.050	-0.350	0.260
2020/01/31 00:31:47.7	269.180	-0.050	-0.360	0.230
2020/01/31 00:31:47.8	269.190	-0.050	-0.370	0.210
2020/01/31 00:31:47.9	269.200	-0.040	-0.380	0.180
2020/01/31 00:31:48.0	269.210	-0.040	-0.390	0.160
2020/01/31 00:31:48.1	269.220	-0.040	-0.400	0.140
2020/01/31 00:31:48.2	269.230	-0.030	-0.400	0.120
2020/01/31 00:31:48.3	269.240	-0.030	-0.400	0.110
2020/01/31 00:31:48.4	269.250	-0.020	-0.400	0.090
2020/01/31 00:31:48.5	269.250	-0.020	-0.400	0.080
2020/01/31 00:31:48.6	269.260	-0.020	-0.400	0.070
2020/01/31 00:31:48.7	269.260	-0.010	-0.400	0.070
2020/01/31 00:31:48.8	269.270	-0.010	-0.390	0.070
2020/01/31 00:31:48.9	269.290	-0.000	-0.380	0.070
2020/01/31 00:31:49.0	269.290	0.000	-0.370	0.070
2020/01/31 00:31:49.1	269.290	0.000	-0.360	0.080
2020/01/31 00:31:49.2	269.290	0.010	-0.350	0.090
2020/01/31 00:31:49.3	269.300	0.010	-0.340	0.100
2020/01/31 00:31:49.4	269.300	0.010	-0.320	0.120
2020/01/31 00:31:49.5	269.290	0.010	-0.310	0.140
2020/01/31 00:31:49.6	269.290	0.020	-0.290	0.160
2020/01/31 00:31:49.7	269.290	0.020	-0.280	0.180
2020/01/31 00:31:49.8	269.290	0.020	-0.260	0.210
2020/01/31 00:31:49.9	269.280	0.020	-0.250	0.240
2020/01/31 00:31:50.0	269.270	0.010	-0.230	0.280
2020/01/31 00:31:50.1	269.260	0.010	-0.210	0.310
2020/01/31 00:31:50.2	269.250	0.010	-0.190	0.350
2020/01/31 00:31:50.3	269.240	0.010	-0.170	0.390
2020/01/31 00:31:50.4	269.230	0.000	-0.150	0.440
2020/01/31 00:31:50.5	269.220	-0.000	-0.130	0.480
2020/01/31 00:31:50.6	269.200	-0.010	-0.110	0.520
2020/01/31 00:31:50.7	269.190	-0.010	-0.080	0.570
2020/01/31 00:31:50.8	269.170	-0.020	-0.060	0.610
2020/01/31 00:31:50.9	269.150	-0.030	-0.040	0.660
2020/01/31 00:31:51.0	269.130	-0.030	-0.020	0.700
2020/01/31 00:31:51.1	269.110	-0.040	0.000	0.740
2020/01/31 00:31:51.2	269.090	-0.050	0.030	0.790
2020/01/31 00:31:51.3	269.070	-0.060	0.050	0.830
2020/01/31 00:31:51.4	269.040	-0.060	0.070	0.870
2020/01/31 00:31:51.5	269.020	-0.070	0.090	0.900
2020/01/31 00:31:51.6	268.990	-0.080	0.100	0.940
2020/01/31 00:31:51.7	268.970	-0.090	0.120	0.970
2020/01/31 00:31:51.8	268.940	-0.090	0.130	1.000
2020/01/31 00:31:51.9	268.920	-0.100	0.150	1.030
2020/01/31 00:31:52.0	268.890	-0.100	0.160	1.060
2020/01/31 00:31:52.1	268.870	-0.110	0.170	1.080
2020/01/31 00:31:52.2	268.850	-0.110	0.180	1.100
2020/01/31 00:31:52.3	268.820	-0.110	0.180	1.120
2020/01/31 00:31:52.4	268.800	-0.110	0.180	1.130
2020/01/31 00:31:52.5	268.780	-0.110	0.180	1.150
2020/01/31 00:31:52.6	268.760	-0.110	0.180	1.150
2020/01/31 00:31:52.7	268.740	-0.110	0.180	1.160
2020/01/31 00:31:52.8	268.730	-0.100	0.170	1.160
2020/01/31 00:31:52.9	268.700	-0.100	0.160	1.160
2020/01/31 00:31:53.0	268.690	-0.090	0.150	1.160
2020/01/31 00:31:53.1	268.670	-0.090	0.130	1.160
2020/01/31 00:31:53.2	268.660	-0.080	0.110	1.150
2020/01/31 00:31:53.3	268.640	-0.070	0.090	1.140
2020/01/31 00:31:53.4	268.630	-0.050	0.070	1.140
2020/01/31 00:31:53.5	268.610	-0.040	0.040	1.130
2020/01/31 00:31:53.6	268.600	-0.030	0.020	1.120
2020/01/31 00:31:53.7	268.590	-0.010	-0.010	1.110
2020/01/31 00:31:53.8	268.570	0.000	-0.040	1.110
2020/01/31 00:31:53.9	268.580	0.020	-0.080	1.100
2020/01/31 00:31:54.0	268.570	0.040	-0.110	1.090
2020/01/31 00:31:54.1	268.560	0.060	-0.150	1.090
2020/01/31 00:31:54.2	268.540	0.080	-0.180	1.080
2020/01/31 00:31:54.3	268.530	0.100	-0.220	1.080
2020/01/31 00:31:54.4	268.520	0.120	-0.260	1.070
2020/01/31 00:31:54.5	268.510	0.140	-0.300	1.070
2020/01/31 00:31:54.6	268.490	0.170	-0.340	1.070
2020/01/31 00:31:54.7	268.480	0.190	-0.380	1.070
2020/01/31 00:31:54.8	268.470	0.210	-0.410	1.070
2020/01/31 00:31:54.9	268.440	0.240	-0.450	1.070
2020/01/31 00:31:55.0	268.430	0.260	-0.490	1.080
2020/01/31 00:31:55.1	268.420	0.280	-0.520	1.090
2020/01/31 00:31:55.2	268.410	0.300	-0.560	1.090
2020/01/31 00:31:55.3	268.400	0.330	-0.590	1.100
2020/01/31 00:31:55.4	268.380	0.350	-0.630	1.110
2020/01/31 00:31:55.5	268.370	0.370	-0.660	1.120
2020/01/31 00:31:55.6	268.360	0.390	-0.690	1.140
2020/01/31 00:31:55.7	268.350	0.410	-0.710	1.150
2020/01/31 00:31:55.8	268.330	0.430	-0.740	1.170
2020/01/31 00:31:55.9	268.310	0.440	-0.760	1.190
2020/01/31 00:31:56.0	268.300	0.460	-0.780	1.210
2020/01/31 00:31:56.1	268.280	0.470	-0.800	1.230
2020/01/31 00:31:56.2	268.270	0.490	-0.810	1.250
2020/01/31 00:31:56.3	268.250	0.500	-0.820	1.280
2020/01/31 00:31:56.4	268.240	0.510	-0.830	1.300
2020/01/31 00:31:56.5	268.220	0.520	-0.840	1.320
2020/01/31 00:31:56.6	268.210	0.530	-0.840	1.350
2020/01/31 00:31:56.7	268.190	0.530	-0.840	1.370
2020/01/31 00:31:56.8	268.180	0.540	-0.840	1.400
2020/01/31 00:31:56.9	268.160	0.540	-0.830	1.420
2020/01/31 00:31:57.0	268.140	0.540	-0.830	1.450
2020/01/31 00:31:57.1	268.130	0.540	-0.820	1.470
2020/01/31 00:31:57.2	268.120	0.540	-0.810	1.490
2020/01/31 00:31:57.3	268.110	0.540	-0.800	1.510
2020/01/31 00:31:57.4	268.100	0.530	-0.790	1.520
2020/01/31 00:31:57.5	268.090	0.520	-0.770	1.540
2020/01/31 00:31:57.6	268.080	0.510	-0.760	1.550
2020/01/31 00:31:57.7	268.080	0.500	-0.740	1.560
2020/01/31 00:31:57.8	268.070	0.490	-0.720	1.570
2020/01/31 00:31:57.9	268.050	0.470	-0.700	1.570
2020/01/31 00:31:58.0	268.050	0.460	-0.680	1.570
2020/01/31 00:31:58.1	268.050	0.440	-0.660	1.570
2020/01/31 00:31:58.2	268.050	0.420	-0.640	1.570
2020/01/31 00:31:58.3	268.050	0.400	-0.620	1.560
2020/01/31 00:31:58.4	268.050	0.380	-0.590	1.550
2020/01/31 00:31:58.5	268.050	0.350	-0.570	1.540
2020/01/31 00:31:58.6	268.050	0.330	-0.550	1.520
2020/01/31 00:31:58.7	268.060	0.300	-0.520	1.510
2020/01/31 00:31:58.8	268.060	0.270	-0.500	1.480
2020/01/31 00:31:58.9	268.070	0.250	-0.470	1.460
2020/01/31 00:31:59.0	268.070	0.220	-0.450	1.430
2020/01/31 00:31:59.1	268.080	0.190	-0.430	1.400
2020/01/31 00:31:59.2	268.090	0.160	-0.410	1.360
2020/01/31 00:31:59.3	268.100	0.130	-0.390	1.320
2020/01/31 00:31:59.4	268.110	0.090	-0.370	1.280
2020/01/31 00:31:59.5	268.130	0.060	-0.350	1.240
2020/01/31 00:31:59.6	268.140	0.030	-0.330	1.200
2020/01/31 00:31:59.7	268.160	-0.000	-0.310	1.150
2020/01/31 00:31:59.8	268.170	-0.030	-0.290	1.100
2020/01/31 00:31:59.9	268.200	-0.060	-0.280	1.050
2020/01/31 00:32:00.0	268.220	-0.100	-0.260	1.000
2020/01/31 00:32:00.1	268.240	-0.130	-0.250	0.950
2020/01/31 00:32:00.2	268.260	-0.160	-0.240	0.900
2020/01/31 00:32:00.3	268.280	-0.190	-0.220	0.850
2020/01/31 00:32:00.4	268.300	-0.220	-0.220	0.800
2020/01/31 00:32:00.5	268.320	-0.240	-0.210	0.750
2020/01/31 00:32:00.6	268.340	-0.270	-0.200	0.700
2020/01/31 00:32:00.7	268.370	-0.300	-0.190	0.650
2020/01/31 00:32:00.8	268.390	-0.320	-0.190	0.610
2020/01/31 00:32:00.9	268.430	-0.340	-0.190	0.560
2020/01/31 00:32:01.0	268.460	-0.370	-0.190	0.520
2020/01/31 00:32:01.1	268.490	-0.390	-0.190	0.470
2020/01/31 00:32:01.2	268.510	-0.410	-0.190	0.430
2020/01/31 00:32:01.3	268.540	-0.420	-0.200	0.390
2020/01/31 00:32:01.4	268.570	-0.440	-0.200	0.350
2020/01/31 00:32:01.5	268.600	-0.450	-0.210	0.310
2020/01/31 00:32:01.6	268.640	-0.470	-0.220	0.280
2020/01/31 00:32:01.7	268.670	-0.480	-0.220	0.250
2020/01/31 00:32:01.8	268.700	-0.490	-0.230	0.220
2020/01/31 00:32:01.9	268.730	-0.500	-0.240	0.200
2020/01/31 00:32:02.0	268.760	-0.510	-0.250	0.180
2020/01/31 00:32:02.1	268.790	-0.520	-0.270	0.160
2020/01/31 00:32:02.2	268.830	-0.520	-0.280	0.140
2020/01/31 00:32:02.3	268.860	-0.530	-0.290	0.130
2020/01/31 00:32:02.4	268.890	-0.530	-0.300	0.130
2020/01/31 00:32:02.5	268.920	-0.530	-0.310	0.130
2020/01/31 00:32:02.6	268.950	-0.530	-0.320	0.130
2020/01/31 00:32:02.7	268.980	-0.540	-0.340	0.130
2020/01/31 00:32:02.8	269.010	-0.540	-0.350	0.140
2020/01/31 00:32:02.9	269.050	-0.540	-0.360	0.160
2020/01/31 00:32:03.0	269.070	-0.540	-0.370	0.170
2020/01/31 00:32:03.1	269.100	-0.540	-0.370	0.190
2020/01/31 00:32:03.2	269.130	-0.540	-0.380	0.220
2020/01/31 00:32:03.3	269.150	-0.530	-0.380	0.240
2020/01/31 00:32:03.4	269.170	-0.530	-0.380	0.270
2020/01/31 00:32:03.5	269.200	-0.530	-0.380	0.290
2020/01/31 00:32:03.6	269.220	-0.530	-0.380	0.320
2020/01/31 00:32:03.7	269.240	-0.530	-0.380	0.350
2020/01/31 00:32:03.8	269.250	-0.520	-0.380	0.380
2020/01/31 00:32:03.9	269.280	-0.520	-0.370	0.420
2020/01/31 00:32:04.0	269.290	-0.510	-0.360	0.450
2020/01/31 00:32:04.1	269.300	-0.510	-0.350	0.480
2020/01/31 00:32:04.2	269.310	-0.510	-0.340	0.510
2020/01/31 00:32:04.3	269.320	-0.500	-0.330	0.550
2020/01/31 00:32:04.4	269.330	-0.490	-0.320	0.580
2020/01/31 00:32:04.5	269.330	-0.490	-0.310	0.620
2020/01/31 00:32:04.6	269.340	-0.480	-0.300	0.650
2020/01/31 00:32:04.7	269.340	-0.470	-0.280	0.680
2020/01/31 00:32:04.8	269.340	-0.460	-0.270	0.720
2020/01/31 00:32:04.9	269.330	-0.450	-0.260	0.750
2020/01/31 00:32:05.0	269.330	-0.440	-0.240	0.780
2020/01/31 00:32:05.1	269.330	-0.430	-0.230	0.820
2020/01/31 00:32:05.2	269.320	-0.420	-0.210	0.850
2020/01/31 00:32:05.3	269.310	-0.400	-0.200	0.880
2020/01/31 00:32:05.4	269.310	-0.390	-0.190	0.910
2020/01/31 00:32:05.5	269.300	-0.370	-0.180	0.940
2020/01/31 00:32:05.6	269.290	-0.350	-0.170	0.970
2020/01/31 00:32:05.7	269.280	-0.330	-0.160	0.990
2020/01/31 00:32:05.8	269.270	-0.310	-0.150	1.020
2020/01/31 00:32:05.9	269.240	-0.290	-0.140	1.040
2020/01/31 00:32:06.0	269.230	-0.270	-0.130	1.060
2020/01/31 00:32:06.1	269.220	-0.250	-0.120	1.080
2020/01/31 00:32:06.2	269.200	-0.230	-0.120	1.100
2020/01/31 00:32:06.3	269.190	-0.200	-0.110	1.120
2020/01/31 00:32:06.4	269.180	-0.180	-0.110	1.140
2020/01/31 00:32:06.5	269.170	-0.160	-0.110	1.150
2020/01/31 00:32:06.6	269.150	-0.130	-0.110	1.160
2020/01/31 00:32:06.7	269.140	-0.100	-0.100	1.170
2020/01/31 00:32:06.8	269.130	-0.080	-0.100	1.180
2020/01/31 00:32:06.9	269.120	-0.050	-0.110	1.180
2020/01/31 00:32:07.0	269.110	-0.030	-0.110	1.190
2020/01/31 00:32:07.1	269.100	-0.000	-0.110	1.190
2020/01/31 00:32:07.2	269.080	0.020	-0.110	1.190
2020/01/31 00:32:07.3	269.070	0.050	-0.120	1.180
2020/01/31 00:32:07.4	269.060	0.070	-0.120	1.180
2020/01/31 00:32:07.5	269.050	0.100	-0.120	1.170
2020/01/31 00:32:07.6	269.040	0.120	-0.120	1.160
2020/01/31 00:32:07.7	269.030	0.140	-0.120	1.150
2020/01/31 00:32:07.8	269.020	0.160	-0.120	1.140
2020/01/31 00:32:07.9	269.010	0.190	-0.130	1.130
2020/01/31 00:32:08.0	269.000	0.210	-0.130	1.120
2020/01/31 00:32:08.1	269.000	0.230	-0.120	1.100
2020/01/31 00:32:08.2	268.990	0.240	-0.120	1.090
2020/01/31 00:32:08.3	268.980	0.260	-0.120	1.080
2020/01/31 00:32:08.4	268.970	0.280	-0.110	1.070
2020/01/31 00:32:08.5	268.960	0.290	-0.110	1.050
2020/01/31 00:32:08.6	268.950	0.300	-0.100	1.040
2020/01/31 00:32:08.7	268.940	0.320	-0.100	1.030
2020/01/31 00:32:08.8	268.930	0.330	-0.090	1.020
2020/01/31 00:32:08.9	268.940	0.340	-0.080	1.010
2020/01/31 00:32:09.0	268.930	0.340	-0.070	1.000
2020/01/31 00:32:09.1	268.930	0.350	-0.060	0.990
2020/01/31 00:32:09.2	268.920	0.350	-0.040	0.980
2020/01/31 00:32:09.3	268.910	0.360	-0.030	0.970
2020/01/31 00:32:09.4	268.900	0.360	-0.020	0.960
2020/01/31 00:32:09.5	268.890	0.360	-0.000	0.950
2020/01/31 00:32:09.6	268.880	0.360	0.020	0.940
2020/01/31 00:32:09.7	268.880	0.350	0.030	0.930
2020/01/31 00:32:09.8	268.870	0.350	0.050	0.920
2020/01/31 00:32:09.9	268.870	0.350	0.060	0.920
2020/01/31 00:32:10.0	268.860	0.340	0.080	0.910
2020/01/31 00:32:10.1	268.860	0.330	0.100	0.900
2020/01/31 00:32:10.2	268.850	0.330	0.110	0.900
2020/01/31 00:32:10.3	268.840	0.320	0.120	0.890
2020/01/31 00:32:10.4	268.830	0.310	0.140	0.880
2020/01/31 00:32:10.5	268.820	0.300	0.150	0.880
2020/01/31 00:32:10.6	268.820	0.290	0.150	0.870
2020/01/31 00:32:10.7	268.810	0.280	0.160	0.870
2020/01/31 00:32:10.8	268.800	0.270	0.160	0.860
2020/01/31 00:32:10.9	268.790	0.260	0.160	0.850
2020/01/31 00:32:11.0	268.780	0.250	0.160	0.850
2020/01/31 00:32:11.1	268.770	0.240	0.160	0.840
2020/01/31 00:32:11.2	268.760	0.230	0.150	0.840
2020/01/31 00:32:11.3	268.760	0.230	0.140	0.830
2020/01/31 00:32:11.4	268.750	0.220	0.120	0.830
2020/01/31 00:32:11.5	268.740	0.210	0.100	0.820
2020/01/31 00:32:11.6	268.740	0.210	0.080	0.820
2020/01/31 00:32:11.7	268.730	0.210	0.060	0.820
2020/01/31 00:32:11.8	268.730	0.200	0.030	0.810
2020/01/31 00:32:11.9	268.730	0.200	0.000	0.810
2020/01/31 00:32:12.0	268.720	0.210	-0.030	0.810
2020/01/31 00:32:12.1	268.720	0.210	-0.070	0.810
2020/01/31 00:32:12.2	268.720	0.210	-0.110	0.800
2020/01/31 00:32:12.3	268.730	0.220	-0.150	0.800
2020/01/31 00:32:12.4	268.730	0.230	-0.190	0.800
2020/01/31 00:32:12.5	268.740	0.240	-0.240	0.790
2020/01/31 00:32:12.6	268.740	0.250	-0.290	0.790
2020/01/31 00:32:12.7	268.750	0.260	-0.340	0.790
2020/01/31 00:32:12.8	268.760	0.270	-0.380	0.780
2020/01/31 00:32:12.9	268.770	0.290	-0.430	0.780
2020/01/31 00:32:13.0	268.780	0.300	-0.480	0.770
2020/01/31 00:32:13.1	268.800	0.320	-0.530	0.770
2020/01/31 00:32:13.2	268.810	0.340	-0.580	0.770
2020/01/31 00:32:13.3	268.820	0.350	-0.630	0.770
2020/01/31 00:32:13.4	268.840	0.370	-0.670	0.770
2020/01/31 00:32:13.5	268.850	0.390	-0.720	0.770
2020/01/31 00:32:13.6	268.870	0.410	-0.760	0.770
2020/01/31 00:32:13.7	268.880	0.430	-0.800	0.780
2020/01/31 00:32:13.8	268.900	0.440	-0.830	0.780
2020/01/31 00:32:13.9	268.900	0.460	-0.870	0.790
2020/01/31 00:32:14.0	268.910	0.480	-0.900	0.790
2020/01/31 00:32:14.1	268.920	0.490	-0.930	0.800
2020/01/31 00:32:14.2	268.930	0.510	-0.950	0.810
2020/01/31 00:32:14.3	268.940	0.520	-0.970	0.820
2020/01/31 00:32:14.4	268.940	0.530	-0.990	0.830
2020/01/31 00:32:14.5	268.950	0.540	-1.000	0.840
2020/01/31 00:32:14.6	268.950	0.550	-1.010	0.850
2020/01/31 00:32:14.7	268.960	0.550	-1.020	0.860
2020/01/31 00:32:14.8	268.960	0.560	-1.020	0.870
2020/01/31 00:32:14.9	268.970	0.560	-1.010	0.880
2020/01/31 00:32:15.0	268.970	0.560	-1.010	0.890
2020/01/31 00:32:15.1	268.970	0.550	-1.000	0.900
2020/01/31 00:32:15.2	268.970	0.550	-0.980	0.910
2020/01/31 00:32:15.3	268.970	0.540	-0.970	0.930
2020/01/31 00:32:15.4	268.970	0.530	-0.950	0.940
2020/01/31 00:32:15.5	268.970	0.510	-0.920	0.950
2020/01/31 00:32:15.6	268.960	0.500	-0.900	0.960
2020/01/31 00:32:15.7	268.960	0.480	-0.870	0.980
2020/01/31 00:32:15.8	268.960	0.460	-0.840	0.990
2020/01/31 00:32:15.9	268.960	0.430	-0.810	1.000
2020/01/31 00:32:16.0	268.960	0.410	-0.780	1.010
2020/01/31 00:32:16.1	268.960	0.380	-0.750	1.020
2020/01/31 00:32:16.2	268.960	0.350	-0.710	1.030
2020/01/31 00:32:16.3	268.960	0.320	-0.680	1.040
2020/01/31 00:32:16.4	268.950	0.290	-0.650	1.050
2020/01/31 00:32:16.5	268.950	0.250	-0.610	1.060
2020/01/31 00:32:16.6	268.950	0.220	-0.580	1.070
2020/01/31 00:32:16.7	268.950	0.180	-0.550	1.070
2020/01/31 00:32:16.8	268.950	0.140	-0.520	1.080
2020/01/31 00:32:16.9	268.950	0.100	-0.500	1.080
2020/01/31 00:32:17.0	268.950	0.070	-0.470	1.090
2020/01/31 00:32:17.1	268.950	0.030	-0.450	1.090
2020/01/31 00:32:17.2	268.950	-0.010	-0.430	1.090
2020/01/31 00:32:17.3	268.940	-0.050	-0.410	1.090
2020/01/31 00:32:17.4	268.940	-0.090	-0.390	1.090
2020/01/31 00:32:17.5	268.940	-0.130	-0.370	1.090
2020/01/31 00:32:17.6	268.940	-0.170	-0.360	1.090
2020/01/31 00:32:17.7	268.940	-0.200	-0.350	1.090
2020/01/31 00:32:17.8	268.940	-0.240	-0.340	1.080
2020/01/31 00:32:17.9	268.950	-0.270	-0.330	1.070
2020/01/31 00:32:18.0	268.940	-0.310	-0.330	1.070
2020/01/31 00:32:18.1	268.940	-0.340	-0.320	1.060
2020/01/31 00:32:18.2	268.940	-0.370	-0.320	1.050
2020/01/31 00:32:18.3	268.940	-0.400	-0.320	1.050
2020/01/31 00:32:18.4	268.930	-0.420	-0.330	1.040
2020/01/31 00:32:18.5	268.930	-0.450	-0.330	1.030
2020/01/31 00:32:18.6	268.930	-0.470	-0.340	1.020
2020/01/31 00:32:18.7	268.920	-0.490	-0.340	1.010
2020/01/31 00:32:18.8	268.920	-0.510	-0.350	1.000
2020/01/31 00:32:18.9	268.920	-0.530	-0.360	0.980
2020/01/31 00:32:19.0	268.910	-0.550	-0.370	0.970
2020/01/31 00:32:19.1	268.910	-0.560	-0.380	0.950
2020/01/31 00:32:19.2	268.910	-0.580	-0.390	0.940
2020/01/31 00:32:19.3	268.910	-0.590	-0.400	0.920
2020/01/31 00:32:19.4	268.900	-0.600	-0.410	0.910
2020/01/31 00:32:19.5	268.900	-0.610	-0.410	0.890
2020/01/31 00:32:19.6	268.900	-0.610	-0.420	0.870
2020/01/31 00:32:19.7	268.900	-0.620	-0.420	0.850
2020/01/31 00:32:19.8	268.900	-0.620	-0.430	0.830
2020/01/31 00:32:19.9	268.890	-0.630	-0.430	0.810
2020/01/31 00:32:20.0	268.890	-0.630	-0.430	0.790
2020/01/31 00:32:20.1	268.890	-0.630	-0.430	0.770
2020/01/31 00:32:20.2	268.890	-0.630	-0.420	0.750
2020/01/31 00:32:20.3	268.880	-0.630	-0.420	0.730
2020/01/31 00:32:20.4	268.880	-0.630	-0.410	0.710
2020/01/31 00:32:20.5	268.880	-0.620	-0.400	0.690
2020/01/31 00:32:20.6	268.880	-0.620	-0.390	0.670
2020/01/31 00:32:20.7	268.880	-0.620	-0.370	0.650
2020/01/31 00:32:20.8	268.880	-0.620	-0.350	0.640
2020/01/31 00:32:20.9	268.890	-0.610	-0.330	0.620
2020/01/31 00:32:21.0	268.900	-0.610	-0.310	0.610
2020/01/31 00:32:21.1	268.900	-0.600	-0.290	0.590
2020/01/31 00:32:21.2	268.900	-0.600	-0.260	0.570
2020/01/31 00:32:21.3	268.910	-0.590	-0.240	0.560
2020/01/31 00:32:21.4	268.910	-0.590	-0.210	0.550
2020/01/31 00:32:21.5	268.920	-0.580	-0.180	0.530
2020/01/31 00:32:21.6	268.930	-0.580	-0.150	0.520
2020/01/31 00:32:21.7	268.940	-0.570	-0.120	0.510
2020/01/31 00:32:21.8	268.950	-0.560	-0.090	0.500
2020/01/31 00:32:21.9	268.950	-0.560	-0.060	0.480
2020/01/31 00:32:22.0	268.960	-0.550	-0.030	0.470
2020/01/31 00:32:22.1	268.970	-0.540	0.000	0.460
2020/01/31 00:32:22.2	268.980	-0.530	0.030	0.450
2020/01/31 00:32:22.3	269.000	-0.530	0.060	0.440
2020/01/31 00:32:22.4	269.010	-0.520	0.090	0.430
2020/01/31 00:32:22.5	269.030	-0.510	0.110	0.430
2020/01/31 00:32:22.6	269.050	-0.500	0.130	0.420
2020/01/31 00:32:22.7	269.070	-0.480	0.160	0.410
2020/01/31 00:32:22.8	269.080	-0.470	0.170	0.410
2020/01/31 00:32:22.9	269.100	-0.460	0.190	0.400
2020/01/31 00:32:23.0	269.120	-0.440	0.210	0.400
2020/01/31 00:32:23.1	269.140	-0.430	0.220	0.400
2020/01/31 00:32:23.2	269.150	-0.410	0.230	0.400
2020/01/31 00:32:23.3	269.170	-0.400	0.240	0.400
2020/01/31 00:32:23.4	269.190	-0.380	0.240	0.410
2020/01/31 00:32:23.5	269.200	-0.360	0.240	0.410
2020/01/31 00:32:23.6	269.210	-0.340	0.240	0.420
2020/01/31 00:32:23.7	269.230	-0.310	0.240	0.430
2020/01/31 00:32:23.8	269.240	-0.290	0.240	0.440
2020/01/31 00:32:23.9	269.240	-0.270	0.230	0.460
2020/01/31 00:32:24.0	269.250	-0.240	0.220	0.470
2020/01/31 00:32:24.1	269.260	-0.210	0.220	0.490
2020/01/31 00:32:24.2	269.260	-0.190	0.200	0.510
2020/01/31 00:32:24.3	269.270	-0.160	0.190	0.540
2020/01/31 00:32:24.4	269.270	-0.130	0.180	0.560
2020/01/31 00:32:24.5	269.270	-0.100	0.160	0.590
2020/01/31 00:32:24.6	269.270	-0.070	0.140	0.610
2020/01/31 00:32:24.7	269.270	-0.040	0.130	0.640
2020/01/31 00:32:24.8	269.260	-0.010	0.110	0.670
2020/01/31 00:32:24.9	269.270	0.030	0.090	0.700
2020/01/31 00:32:25.0	269.260	0.060	0.070	0.740
2020/01/31 00:32:25.1	269.260	0.090	0.050	0.770
2020/01/31 00:32:25.2	269.250	0.120	0.040	0.800
2020/01/31 00:32:25.3	269.240	0.150	0.020	0.830
2020/01/31 00:32:25.4	269.230	0.180	0.000	0.870
2020/01/31 00:32:25.5	269.220	0.210	-0.010	0.900
2020/01/31 00:32:25.6	269.210	0.230	-0.030	0.930
2020/01/31 00:32:25.7	269.200	0.260	-0.040	0.960
2020/01/31 00:32:25.8	269.190	0.280	-0.060	1.000
2020/01/31 00:32:25.9	269.190	0.310	-0.070	1.030
2020/01/31 00:32:26.0	269.180	0.330	-0.080	1.060
2020/01/31 00:32:26.1	269.170	0.350	-0.100	1.090
2020/01/31 00:32:26.2	269.160	0.370	-0.110	1.120
2020/01/31 00:32:26.3	269.150	0.380	-0.130	1.140
2020/01/31 00:32:26.4	269.140	0.400	-0.140	1.170
2020/01/31 00:32:26.5	269.130	0.410	-0.150	1.190
2020/01/31 00:32:26.6	269.120	0.430	-0.170	1.220
2020/01/31 00:32:26.7	269.110	0.440	-0.180	1.240
2020/01/31 00:32:26.8	269.100	0.450	-0.200	1.260
2020/01/31 00:32:26.9	269.080	0.450	-0.220	1.280
2020/01/31 00:32:27.0	269.070	0.460	-0.230	1.290
2020/01/31 00:32:27.1	269.060	0.460	-0.250	1.310
2020/01/31 00:32:27.2	269.050	0.470	-0.270	1.320
2020/01/31 00:32:27.3	269.040	0.470	-0.290	1.340
2020/01/31 00:32:27.4	269.030	0.470	-0.310	1.350
2020/01/31 00:32:27.5	269.020	0.470	-0.330	1.350
2020/01/31 00:32:27.6	269.000	0.470	-0.350	1.360
2020/01/31 00:32:27.7	268.990	0.470	-0.370	1.360
2020/01/31 00:32:27.8	268.980	0.470	-0.390	1.360
2020/01/31 00:32:27.9	268.940	0.470	-0.410	1.360
2020/01/31 00:32:28.0	268.930	0.460	-0.440	1.360
2020/01/31 00:32:28.1	268.920	0.460	-0.460	1.360
2020/01/31 00:32:28.2	268.910	0.460	-0.480	1.350
2020/01/31 00:32:28.3	268.900	0.450	-0.500	1.340
2020/01/31 00:32:28.4	268.890	0.450	-0.520	1.330
2020/01/31 00:32:28.5	268.870	0.450	-0.550	1.320
2020/01/31 00:32:28.6	268.860	0.440	-0.570	1.300
2020/01/31 00:32:28.7	268.850	0.440	-0.590	1.290
2020/01/31 00:32:28.8	268.840	0.440	-0.610	1.270
2020/01/31 00:32:28.9	268.820	0.430	-0.620	1.250
2020/01/31 00:32:29.0	268.810	0.430	-0.640	1.240
2020/01/31 00:32:29.1	268.800	0.430	-0.660	1.220
2020/01/31 00:32:29.2	268.790	0.430	-0.670	1.200
2020/01/31 00:32:29.3	268.780	0.430	-0.690	1.180
2020/01/31 00:32:29.4	268.770	0.430	-0.700	1.160
2020/01/31 00:32:29.5	268.760	0.430	-0.710	1.140
2020/01/31 00:32:29.6	268.750	0.430	-0.720	1.130
2020/01/31 00:32:29.7	268.740	0.430	-0.730	1.110
2020/01/31 00:32:29.8	268.730	0.430	-0.740	1.090
2020/01/31 00:32:29.9	268.700	0.430	-0.740	1.080
2020/01/31 00:32:30.0	268.690	0.430	-0.750	1.060
2020/01/31 00:32:30.1	268.690	0.430	-0.750	1.040
2020/01/31 00:32:30.2	268.680	0.430	-0.750	1.030
2020/01/31 00:32:30.3	268.670	0.430	-0.750	1.010
2020/01/31 00:32:30.4	268.660	0.430	-0.750	1.000
2020/01/31 00:32:30.5	268.650	0.430	-0.740	0.980
2020/01/31 00:32:30.6	268.650	0.430	-0.730	0.970
2020/01/31 00:32:30.7	268.640	0.430	-0.730	0.960
2020/01/31 00:32:30.8	268.630	0.430	-0.720	0.940
2020/01/31 00:32:30.9	268.620	0.420	-0.710	0.930
2020/01/31 00:32:31.0	268.620	0.420	-0.690	0.910
2020/01/31 00:32:31.1	268.610	0.410	-0.680	0.900
2020/01/31 00:32:31.2	268.610	0.410	-0.660	0.880
2020/01/31 00:32:31.3	268.600	0.400	-0.640	0.870
2020/01/31 00:32:31.4	268.600	0.390	-0.620	0.860
2020/01/31 00:32:31.5	268.600	0.380	-0.600	0.840
2020/01/31 00:32:31.6	268.590	0.360	-0.580	0.830
2020/01/31 00:32:31.7	268.590	0.350	-0.560	0.820
2020/01/31 00:32:31.8	268.590	0.330	-0.530	0.800
2020/01/31 00:32:31.9	268.590	0.320	-0.510	0.790
2020/01/31 00:32:32.0	268.590	0.300	-0.490	0.780
2020/01/31 00:32:32.1	268.590	0.280	-0.460	0.770
2020/01/31 00:32:32.2	268.600	0.250	-0.440	0.760
2020/01/31 00:32:32.3	268.600	0.230	-0.410	0.750
2020/01/31 00:32:32.4	268.610	0.210	-0.390	0.740
2020/01/31 00:32:32.5	268.610	0.180	-0.370	0.730
2020/01/31 00:32:32.6	268.620	0.150	-0.350	0.720
2020/01/31 00:32:32.7	268.630	0.120	-0.320	0.710
2020/01/31 00:32:32.8	268.640	0.100	-0.310	0.700
2020/01/31 00:32:32.9	268.650	0.070	-0.290	0.690
2020/01/31 00:32:33.0	268.660	0.040	-0.270	0.680
2020/01/31 00:32:33.1	268.680	0.010	-0.260	0.670
2020/01/31 00:32:33.2	268.690	-0.020	-0.250	0.660
2020/01/31 00:32:33.3	268.710	-0.050	-0.240	0.640
2020/01/31 00:32:33.4	268.730	-0.080	-0.230	0.630
2020/01/31 00:32:33.5	268.750	-0.110	-0.220	0.610
2020/01/31 00:32:33.6	268.780	-0.140	-0.220	0.590
2020/01/31 00:32:33.7	268.800	-0.160	-0.220	0.570
2020/01/31 00:32:33.8	268.830	-0.190	-0.220	0.560
2020/01/31 00:32:33.9	268.860	-0.210	-0.230	0.540
2020/01/31 00:32:34.0	268.890	-0.240	-0.230	0.520
2020/01/31 00:32:34.1	268.920	-0.260	-0.240	0.500
2020/01/31 00:32:34.2	268.950	-0.280	-0.250	0.470
2020/01/31 00:32:34.3	268.990	-0.300	-0.270	0.450
2020/01/31 00:32:34.4	269.020	-0.320	-0.280	0.430
2020/01/31 00:32:34.5	269.050	-0.330	-0.300	0.400
2020/01/31 00:32:34.6	269.090	-0.350	-0.310	0.380
2020/01/31 00:32:34.7	269.120	-0.360	-0.330	0.350
2020/01/31 00:32:34.8	269.160	-0.370	-0.350	0.320
2020/01/31 00:32:34.9	269.200	-0.380	-0.370	0.300
2020/01/31 00:32:35.0	269.240	-0.390	-0.380	0.270
2020/01/31 00:32:35.1	269.270	-0.400	-0.400	0.250
2020/01/31 00:32:35.2	269.310	-0.400	-0.410	0.220
2020/01/31 00:32:35.3	269.350	-0.410	-0.430	0.200
2020/01/31 00:32:35.4	269.390	-0.410	-0.440	0.170
2020/01/31 00:32:35.5	269.430	-0.410	-0.440	0.150
2020/01/31 00:32:35.6	269.460	-0.420	-0.450	0.130
2020/01/31 00:32:35.7	269.500	-0.420	-0.450	0.110
2020/01/31 00:32:35.8	269.540	-0.420	-0.450	0.090
2020/01/31 00:32:35.9	269.580	-0.420	-0.450	0.080
2020/01/31 00:32:36.0	269.610	-0.420	-0.440	0.060
2020/01/31 00:32:36.1	269.650	-0.420	-0.430	0.050
2020/01/31 00:32:36.2	269.680	-0.420	-0.420	0.030
2020/01/31 00:32:36.3	269.710	-0.420	-0.400	0.020
2020/01/31 00:32:36.4	269.740	-0.420	-0.380	0.010
2020/01/31 00:32:36.5	269.770	-0.420	-0.350	0.010
2020/01/31 00:32:36.6	269.800	-0.420	-0.330	0.010
2020/01/31 00:32:36.7	269.830	-0.420	-0.300	0.000
2020/01/31 00:32:36.8	269.860	-0.420	-0.270	0.010
2020/01/31 00:32:36.9	269.880	-0.430	-0.240	0.010
2020/01/31 00:32:37.0	269.910	-0.430	-0.200	0.020
2020/01/31 00:32:37.1	269.930	-0.430	-0.170	0.020
2020/01/31 00:32:37.2	269.940	-0.430	-0.140	0.040
2020/01/31 00:32:37.3	269.960	-0.440	-0.100	0.050
2020/01/31 00:32:37.4	269.970	-0.440	-0.070	0.070
2020/01/31 00:32:37.5	269.990	-0.440	-0.030	0.090
2020/01/31 00:32:37.6	270.000	-0.440	-0.000	0.120
2020/01/31 00:32:37.7	270.010	-0.440	0.030	0.140
2020/01/31 00:32:37.8	270.010	-0.450	0.060	0.170
2020/01/31 00:32:37.9	270.020	-0.450	0.080	0.200
2020/01/31 00:32:38.0	270.020	-0.450	0.100	0.240
2020/01/31 00:32:38.1	270.020	-0.440	0.120	0.270
2020/01/31 00:32:38.2	270.020	-0.440	0.140	0.310
2020/01/31 00:32:38.3	270.020	-0.440	0.150	0.350
2020/01/31 00:32:38.4	270.010	-0.430	0.160	0.390
2020/01/31 00:32:38.5	270.010	-0.430	0.170	0.430
2020/01/31 00:32:38.6	270.000	-0.420	0.170	0.470
2020/01/31 00:32:38.7	269.990	-0.420	0.170	0.520
2020/01/31 00:32:38.8	269.980	-0.410	0.170	0.560
2020/01/31 00:32:38.9	269.970	-0.400	0.160	0.600
2020/01/31 00:32:39.0	269.960	-0.380	0.150	0.640
2020/01/31 00:32:39.1	269.950	-0.370	0.140	0.680
2020/01/31 00:32:39.2	269.930	-0.360	0.120	0.720
2020/01/31 00:32:39.3	269.910	-0.340	0.100	0.760
2020/01/31 00:32:39.4	269.890	-0.320	0.080	0.800
2020/01/31 00:32:39.5	269.870	-0.310	0.060	0.840
2020/01/31 00:32:39.6	269.850	-0.290	0.030	0.880
2020/01/31 00:32:39.7	269.820	-0.260	0.000	0.920
2020/01/31 00:32:39.8	269.800	-0.240	-0.030	0.960
2020/01/31 00:32:39.9	269.760	-0.220	-0.070	1.000
2020/01/31 00:32:40.0	269.730	-0.200	-0.100	1.040
2020/01/31 00:32:40.1	269.700	-0.170	-0.130	1.080
2020/01/31 00:32:40.2	269.670	-0.150	-0.170	1.120
2020/01/31 00:32:40.3	269.640	-0.120	-0.200	1.160
2020/01/31 00:32:40.4	269.600	-0.090	-0.240	1.190
2020/01/31 00:32:40.5	269.570	-0.070	-0.270	1.230
2020/01/31 00:32:40.6	269.530	-0.040	-0.310	1.260
2020/01/31 00:32:40.7	269.500	-0.010	-0.340	1.300
2020/01/31 00:32:40.8	269.460	0.020	-0.370	1.330
2020/01/31 00:32:40.9	269.420	0.050	-0.400	1.370
2020/01/31 00:32:41.0	269.380	0.070	-0.430	1.400
2020/01/31 00:32:41.1	269.340	0.100	-0.460	1.430
2020/01/31 00:32:41.2	269.300	0.130	-0.480	1.460
2020/01/31 00:32:41.3	269.250	0.160	-0.500	1.490
2020/01/31 00:32:41.4	269.210	0.180	-0.520	1.520
2020/01/31 00:32:41.5	269.170	0.210	-0.540	1.540
2020/01/31 00:32:41.6	269.130	0.230	-0.550	1.570
2020/01/31 00:32:41.7	269.080	0.250	-0.570	1.600
2020/01/31 00:32:41.8	269.040	0.280	-0.580	1.620
2020/01/31 00:32:41.9	269.010	0.300	-0.580	1.640
2020/01/31 00:32:42.0	268.970	0.320	-0.590	1.660
2020/01/31 00:32:42.1	268.920	0.330	-0.590	1.680
2020/01/31 00:32:42.2	268.880	0.350	-0.590	1.700
2020/01/31 00:32:42.3	268.840	0.370	-0.590	1.710
2020/01/31 00:32:42.4	268.800	0.380	-0.580	1.720
2020/01/31 00:32:42.5	268.760	0.390	-0.580	1.730
2020/01/31 00:32:42.6	268.720	0.400	-0.570	1.740
2020/01/31 00:32:42.7	268.690	0.410	-0.560	1.740
2020/01/31 00:32:42.8	268.650	0.420	-0.550	1.750
2020/01/31 00:32:42.9	268.620	0.430	-0.540	1.750
2020/01/31 00:32:43.0	268.580	0.430	-0.530	1.740
2020/01/31 00:32:43.1	268.550	0.440	-0.510	1.740
2020/01/31 00:32:43.2	268.520	0.440	-0.500	1.730
2020/01/31 00:32:43.3	268.490	0.440	-0.480	1.720
2020/01/31 00:32:43.4	268.460	0.440	-0.470	1.710
2020/01/31 00:32:43.5	268.440	0.440	-0.450	1.690
2020/01/31 00:32:43.6	268.410	0.430	-0.440	1.670
2020/01/31 00:32:43.7	268.390	0.430	-0.420	1.660
2020/01/31 00:32:43.8	268.370	0.420	-0.410	1.630
2020/01/31 00:32:43.9	268.360	0.420	-0.390	1.610
2020/01/31 00:32:44.0	268.350	0.410	-0.380	1.580
2020/01/31 00:32:44.1	268.330	0.400	-0.360	1.560
2020/01/31 00:32:44.2	268.320	0.390	-0.350	1.530
2020/01/31 00:32:44.3	268.310	0.380	-0.340	1.500
2020/01/31 00:32:44.4	268.300	0.370	-0.330	1.470
2020/01/31 00:32:44.5	268.300	0.360	-0.320	1.440
2020/01/31 00:32:44.6	268.300	0.350	-0.310	1.410
2020/01/31 00:32:44.7	268.300	0.340	-0.300	1.370
2020/01/31 00:32:44.8	268.300	0.320	-0.290	1.340
2020/01/31 00:32:44.9	268.310	0.310	-0.280	1.310
2020/01/31 00:32:45.0	268.310	0.300	-0.280	1.270
2020/01/31 00:32:45.1	268.320	0.290	-0.270	1.230
2020/01/31 00:32:45.2	268.330	0.270	-0.260	1.190
2020/01/31 00:32:45.3	268.340	0.260	-0.260	1.150
2020/01/31 00:32:45.4	268.360	0.250	-0.260	1.110
2020/01/31 00:32:45.5	268.380	0.240	-0.250	1.060
2020/01/31 00:32:45.6	268.390	0.220	-0.250	1.020
2020/01/31 00:32:45.7	268.410	0.210	-0.250	0.980
2020/01/31 00:32:45.8	268.430	0.200	-0.240	0.930
2020/01/31 00:32:45.9	268.470	0.190	-0.240	0.880
2020/01/31 00:32:46.0	268.500	0.180	-0.240	0.830
2020/01/31 00:32:46.1	268.520	0.170	-0.240	0.790
2020/01/31 00:32:46.2	268.550	0.160	-0.240	0.740
2020/01/31 00:32:46.3	268.580	0.150	-0.240	0.690
2020/01/31 00:32:46.4	268.600	0.140	-0.240	0.650
2020/01/31 00:32:46.5	268.630	0.130	-0.240	0.600
2020/01/31 00:32:46.6	268.660	0.120	-0.240	0.560
2020/01/31 00:32:46.7	268.690	0.120	-0.250	0.520
2020/01/31 00:32:46.8	268.730	0.110	-0.250	0.480
2020/01/31 00:32:46.9	268.750	0.100	-0.250	0.440
2020/01/31 00:32:47.0	268.780	0.090	-0.250	0.400
2020/01/31 00:32:47.1	268.820	0.080	-0.260	0.360
2020/01/31 00:32:47.2	268.850	0.080	-0.260	0.320
2020/01/31 00:32:47.3	268.880	0.070	-0.260	0.290
2020/01/31 00:32:47.4	268.920	0.060	-0.260	0.260
2020/01/31 00:32:47.5	268.950	0.050	-0.260	0.220
2020/01/31 00:32:47.6	268.980	0.040	-0.270	0.190
2020/01/31 00:32:47.7	269.020	0.030	-0.270	0.170
2020/01/31 00:32:47.8	269.060	0.020	-0.260	0.140
2020/01/31 00:32:47.9	269.100	0.010	-0.260	0.120
2020/01/31 00:32:48.0	269.140	-0.000	-0.260	0.100
2020/01/31 00:32:48.1	269.170	-0.010	-0.260	0.080
2020/01/31 00:32:48.2	269.210	-0.030	-0.260	0.060
2020/01/31 00:32:48.3	269.250	-0.040	-0.260	0.050
2020/01/31 00:32:48.4	269.280	-0.050	-0.250	0.040
2020/01/31 00:32:48.5	269.320	-0.070	-0.250	0.030
2020/01/31 00:32:48.6	269.350	-0.080	-0.250	0.020
2020/01/31 00:32:48.7	269.390	-0.100	-0.240	0.020
2020/01/31 00:32:48.8	269.420	-0.110	-0.240	0.020
2020/01/31 00:32:48.9	269.460	-0.130	-0.240	0.020
2020/01/31 00:32:49.0	269.490	-0.150	-0.240	0.030
2020/01/31 00:32:49.1	269.530	-0.170	-0.240	0.040
2020/01/31 00:32:49.2	269.550	-0.180	-0.240	0.050
2020/01/31 00:32:49.3	269.580	-0.200	-0.240	0.060
2020/01/31 00:32:49.4	269.610	-0.220	-0.240	0.080
2020/01/31 00:32:49.5	269.640	-0.240	-0.240	0.100
2020/01/31 00:32:49.6	269.660	-0.260	-0.240	0.120
2020/01/31 00:32:49.7	269.680	-0.270	-0.250	0.140
2020/01/31 00:32:49.8	269.700	-0.290	-0.250	0.170
2020/01/31 00:32:49.9	269.720	-0.310	-0.260	0.190
2020/01/31 00:32:50.0	269.740	-0.320	-0.270	0.220
2020/01/31 00:32:50.1	269.760	-0.340	-0.270	0.250
2020/01/31 00:32:50.2	269.770	-0.350	-0.280	0.280
2020/01/31 00:32:50.3	269.790	-0.370	-0.290	0.310
2020/01/31 00:32:50.4	269.800	-0.380	-0.300	0.350
2020/01/31 00:32:50.5	269.800	-0.390	-0.310	0.380
2020/01/31 00:32:50.6	269.810	-0.400	-0.320	0.420
2020/01/31 00:32:50.7	269.820	-0.410	-0.330	0.450
2020/01/31 00:32:50.8	269.820	-0.410	-0.340	0.490
2020/01/31 00:32:50.9	269.810	-0.420	-0.350	0.530
2020/01/31 00:32:51.0	269.810	-0.420	-0.360	0.560
2020/01/31 00:32:51.1	269.810	-0.420	-0.370	0.600
2020/01/31 00:32:51.2	269.800	-0.420	-0.380	0.640
2020/01/31 00:32:51.3	269.800	-0.420	-0.390	0.680
2020/01/31 00:32:51.4	269.790	-0.410	-0.400	0.720
2020/01/31 00:32:51.5	269.790	-0.410	-0.410	0.760
2020/01/31 00:32:51.6	269.780	-0.400	-0.410	0.810
2020/01/31 00:32:51.7	269.770	-0.390	-0.420	0.850
2020/01/31 00:32:51.8	269.760	-0.380	-0.420	0.890
2020/01/31 00:32:51.9	269.750	-0.360	-0.430	0.930
2020/01/31 00:32:52.0	269.740	-0.350	-0.430	0.980
2020/01/31 00:32:52.1	269.730	-0.330	-0.430	1.020
2020/01/31 00:32:52.2	269.710	-0.320	-0.430	1.060
2020/01/31 00:32:52.3	269.690	-0.300	-0.430	1.100
2020/01/31 00:32:52.4	269.680	-0.280	-0.430	1.150
2020/01/31 00:32:52.5	269.660	-0.250	-0.430	1.190
2020/01/31 00:32:52.6	269.640	-0.230	-0.430	1.230
2020/01/31 00:32:52.7	269.620	-0.210	-0.420	1.270
2020/01/31 00:32:52.8	269.590	-0.180	-0.420	1.300
2020/01/31 00:32:52.9	269.570	-0.160	-0.410	1.340
2020/01/31 00:32:53.0	269.550	-0.130	-0.410	1.370
2020/01/31 00:32:53.1	269.520	-0.100	-0.410	1.400
2020/01/31 00:32:53.2	269.500	-0.070	-0.400	1.430
2020/01/31 00:32:53.3	269.470	-0.040	-0.400	1.460
2020/01/31 00:32:53.4	269.440	-0.010	-0.390	1.480
2020/01/31 00:32:53.5	269.420	0.020	-0.390	1.510
2020/01/31 00:32:53.6	269.390	0.050	-0.380	1.530
2020/01/31 00:32:53.7	269.360	0.080	-0.380	1.540
2020/01/31 00:32:53.8	269.340	0.110	-0.370	1.550
2020/01/31 00:32:53.9	269.310	0.140	-0.380	1.570
2020/01/31 00:32:54.0	269.290	0.160	-0.370	1.570
2020/01/31 00:32:54.1	269.260	0.190	-0.370	1.570
2020/01/31 00:32:54.2	269.240	0.220	-0.360	1.570
2020/01/31 00:32:54.3	269.210	0.250	-0.360	1.560
2020/01/31 00:32:54.4	269.190	0.270	-0.350	1.560
2020/01/31 00:32:54.5	269.170	0.300	-0.350	1.550
2020/01/31 00:32:54.6	269.150	0.320	-0.350	1.540
2020/01/31 00:32:54.7	269.130	0.340	-0.340	1.520
2020/01/31 00:32:54.8	269.110	0.360	-0.340	1.510
2020/01/31 00:32:54.9	269.080	0.380	-0.330	1.490
2020/01/31 00:32:55.0	269.060	0.400	-0.330	1.470
2020/01/31 00:32:55.1	269.040	0.410	-0.320	1.460
2020/01/31 00:32:55.2	269.020	0.430	-0.320	1.440
2020/01/31 00:32:55.3	269.010	0.440	-0.310	1.420
2020/01/31 00:32:55.4	268.990	0.450	-0.300	1.410
2020/01/31 00:32:55.5	268.970	0.460	-0.300	1.390
2020/01/31 00:32:55.6	268.960	0.460	-0.290	1.370
2020/01/31 00:32:55.7	268.940	0.460	-0.280	1.350
2020/01/31 00:32:55.8	268.930	0.460	-0.280	1.330
2020/01/31 00:32:55.9	268.920	0.460	-0.270	1.320
2020/01/31 00:32:56.0	268.900	0.460	-0.260	1.300
2020/01/31 00:32:56.1	268.890	0.450	-0.250	1.280
2020/01/31 00:32:56.2	268.870	0.440	-0.240	1.260
2020/01/31 00:32:56.3	268.860	0.430	-0.220	1.240
2020/01/31 00:32:56.4	268.850	0.420	-0.210	1.220
2020/01/31 00:32:56.5	268.830	0.410	-0.200	1.200
2020/01/31 00:32:56.6	268.820	0.390	-0.180	1.180
2020/01/31 00:32:56.7	268.810	0.370	-0.170	1.170
2020/01/31 00:32:56.8	268.800	0.360	-0.160	1.150
2020/01/31 00:32:56.9	268.780	0.340	-0.140	1.120
2020/01/31 00:32:57.0	268.770	0.310	-0.130	1.100
2020/01/31 00:32:57.1	268.760	0.290	-0.110	1.080
2020/01/31 00:32:57.2	268.750	0.270	-0.100	1.060
2020/01/31 00:32:57.3	268.730	0.240	-0.080	1.040
2020/01/31 00:32:57.4	268.720	0.220	-0.070	1.010
2020/01/31 00:32:57.5	268.710	0.190	-0.060	0.990
2020/01/31 00:32:57.6	268.700	0.170	-0.050	0.970
2020/01/31 00:32:57.7	268.680	0.140	-0.040	0.940
2020/01/31 00:32:57.8	268.670	0.120	-0.030	0.920
2020/01/31 00:32:57.9	268.650	0.090	-0.020	0.900
2020/01/31 00:32:58.0	268.640	0.060	-0.010	0.870
2020/01/31 00:32:58.1	268.630	0.040	-0.010	0.840
2020/01/31 00:32:58.2	268.620	0.020	-0.010	0.820
2020/01/31 00:32:58.3	268.610	-0.010	-0.010	0.790
2020/01/31 00:32:58.4	268.600	-0.030	-0.010	0.770
2020/01/31 00:32:58.5	268.590	-0.050	-0.010	0.740
2020/01/31 00:32:58.6	268.580	-0.070	-0.010	0.720
2020/01/31 00:32:58.7	268.570	-0.090	-0.020	0.690
2020/01/31 00:32:58.8	268.570	-0.110	-0.030	0.670
2020/01/31 00:32:58.9	268.560	-0.130	-0.040	0.640
2020/01/31 00:32:59.0	268.550	-0.140	-0.060	0.610
2020/01/31 00:32:59.1	268.550	-0.160	-0.070	0.590
2020/01/31 00:32:59.2	268.540	-0.170	-0.090	0.560
2020/01/31 00:32:59.3	268.540	-0.180	-0.110	0.540
2020/01/31 00:32:59.4	268.540	-0.190	-0.130	0.510
2020/01/31 00:32:59.5	268.540	-0.200	-0.160	0.490
2020/01/31 00:32:59.6	268.540	-0.200	-0.180	0.470
2020/01/31 00:32:59.7	268.540	-0.210	-0.210	0.440
2020/01/31 00:32:59.8	268.540	-0.210	-0.240	0.420
2020/01/31 00:32:59.9	268.540	-0.210	-0.270	0.400
2020/01/31 00:33:00.0	268.550	-0.210	-0.300	0.380
2020/01/31 00:33:00.1	268.560	-0.210	-0.330	0.360
2020/01/31 00:33:00.2	268.570	-0.210	-0.360	0.340
2020/01/31 00:33:00.3	268.580	-0.210	-0.390	0.320
2020/01/31 00:33:00.4	268.590	-0.210	-0.430	0.310
2020/01/31 00:33:00.5	268.600	-0.200	-0.460	0.290
2020/01/31 00:33:00.6	268.620	-0.200	-0.490	0.280
2020/01/31 00:33:00.7	268.630	-0.190	-0.520	0.270
2020/01/31 00:33:00.8	268.650	-0.180	-0.540	0.260
2020/01/31 00:33:00.9	268.670	-0.180	-0.570	0.250
2020/01/31 00:33:01.0	268.690	-0.170	-0.590	0.240
2020/01/31 00:33:01.1	268.710	-0.160	-0.620	0.240
2020/01/31 00:33:01.2	268.730	-0.150	-0.640	0.240
2020/01/31 00:33:01.3	268.760	-0.150	-0.650	0.240
2020/01/31 00:33:01.4	268.780	-0.140	-0.670	0.240
2020/01/31 00:33:01.5	268.810	-0.130	-0.680	0.250
2020/01/31 00:33:01.6	268.830	-0.130	-0.700	0.260
2020/01/31 00:33:01.7	268.860	-0.120	-0.700	0.270
2020/01/31 00:33:01.8	268.890	-0.110	-0.710	0.280
2020/01/31 00:33:01.9	268.910	-0.110	-0.720	0.300
2020/01/31 00:33:02.0	268.940	-0.100	-0.720	0.320
2020/01/31 00:33:02.1	268.970	-0.100	-0.720	0.340
2020/01/31 00:33:02.2	269.000	-0.090	-0.710	0.360
2020/01/31 00:33:02.3	269.030	-0.090	-0.710	0.390
2020/01/31 00:33:02.4	269.060	-0.090	-0.700	0.420
2020/01/31 00:33:02.5	269.090	-0.090	-0.690	0.450
2020/01/31 00:33:02.6	269.120	-0.080	-0.680	0.490
2020/01/31 00:33:02.7	269.150	-0.080	-0.670	0.530
2020/01/31 00:33:02.8	269.180	-0.080	-0.650	0.570
2020/01/31 00:33:02.9	269.210	-0.080	-0.640	0.610
2020/01/31 00:33:03.0	269.240	-0.080	-0.620	0.650
2020/01/31 00:33:03.1	269.260	-0.080	-0.600	0.700
2020/01/31 00:33:03.2	269.290	-0.090	-0.580	0.740
2020/01/31 00:33:03.3	269.320	-0.090	-0.560	0.790
2020/01/31 00:33:03.4	269.340	-0.090	-0.540	0.830
2020/01/31 00:33:03.5	269.370	-0.090	-0.520	0.880
2020/01/31 00:33:03.6	269.390	-0.090	-0.500	0.920
2020/01/31 00:33:03.7	269.410	-0.090	-0.480	0.960
2020/01/31 00:33:03.8	269.430	-0.100	-0.460	1.000
2020/01/31 00:33:03.9	269.450	-0.100	-0.450	1.050
2020/01/31 00:33:04.0	269.470	-0.100	-0.430	1.090
2020/01/31 00:33:04.1	269.480	-0.100	-0.410	1.130
2020/01/31 00:33:04.2	269.500	-0.100	-0.390	1.160
2020/01/31 00:33:04.3	269.510	-0.110	-0.370	1.200
2020/01/31 00:33:04.4	269.520	-0.110	-0.360	1.230
2020/01/31 00:33:04.5	269.530	-0.110	-0.340	1.270
2020/01/31 00:33:04.6	269.540	-0.110	-0.320	1.300
2020/01/31 00:33:04.7	269.550	-0.110	-0.310	1.330
2020/01/31 00:33:04.8	269.560	-0.110	-0.290	1.350
2020/01/31 00:33:04.9	269.560	-0.110	-0.280	1.380
2020/01/31 00:33:05.0	269.560	-0.110	-0.260	1.400
2020/01/31 00:33:05.1	269.570	-0.110	-0.250	1.420
2020/01/31 00:33:05.2	269.570	-0.110	-0.240	1.450
2020/01/31 00:33:05.3	269.570	-0.110	-0.230	1.460
2020/01/31 00:33:05.4	269.570	-0.110	-0.220	1.480
2020/01/31 00:33:05.5	269.560	-0.100	-0.200	1.500
2020/01/31 00:33:05.6	269.560	-0.100	-0.190	1.510
2020/01/31 00:33:05.7	269.550	-0.100	-0.190	1.520
2020/01/31 00:33:05.8	269.540	-0.100	-0.180	1.520
2020/01/31 00:33:05.9	269.540	-0.100	-0.170	1.530
2020/01/31 00:33:06.0	269.530	-0.100	-0.160	1.530
2020/01/31 00:33:06.1	269.520	-0.100	-0.150	1.530
2020/01/31 00:33:06.2	269.510	-0.100	-0.140	1.520
2020/01/31 00:33:06.3	269.490	-0.100	-0.130	1.520
2020/01/31 00:33:06.4	269.480	-0.100	-0.130	1.510
2020/01/31 00:33:06.5	269.460	-0.100	-0.120	1.500
2020/01/31 00:33:06.6	269.450	-0.100	-0.110	1.480
2020/01/31 00:33:06.7	269.430	-0.100	-0.100	1.470
2020/01/31 00:33:06.8	269.410	-0.100	-0.090	1.450
2020/01/31 00:33:06.9	269.390	-0.090	-0.080	1.430
2020/01/31 00:33:07.0	269.380	-0.090	-0.070	1.410
2020/01/31 00:33:07.1	269.360	-0.090	-0.070	1.390
2020/01/31 00:33:07.2	269.340	-0.090	-0.060	1.360
2020/01/31 00:33:07.3	269.320	-0.090	-0.050	1.340
2020/01/31 00:33:07.4	269.310	-0.090	-0.050	1.310
2020/01/31 00:33:07.5	269.290	-0.080	-0.040	1.280
2020/01/31 00:33:07.6	269.270	-0.080	-0.040	1.250
2020/01/31 00:33:07.7	269.250	-0.080	-0.040	1.230
2020/01/31 00:33:07.8	269.230	-0.070	-0.030	1.200
2020/01/31 00:33:07.9	269.220	-0.070	-0.040	1.160
2020/01/31 00:33:08.0	269.200	-0.060	-0.040	1.130
2020/01/31 00:33:08.1	269.180	-0.050	-0.040	1.110
2020/01/31 00:33:08.2	269.160	-0.040	-0.040	1.080
2020/01/31 00:33:08.3	269.140	-0.030	-0.050	1.050
2020/01/31 00:33:08.4	269.120	-0.020	-0.060	1.030
2020/01/31 00:33:08.5	269.110	-0.010	-0.060	1.000
2020/01/31 00:33:08.6	269.090	-0.000	-0.070	0.980
2020/01/31 00:33:08.7	269.070	0.010	-0.080	0.960
2020/01/31 00:33:08.8	269.050	0.020	-0.100	0.940
2020/01/31 00:33:08.9	269.030	0.040	-0.110	0.920
2020/01/31 00:33:09.0	269.020	0.050	-0.120	0.900
2020/01/31 00:33:09.1	269.000	0.070	-0.130	0.880
2020/01/31 00:33:09.2	268.980	0.080	-0.150	0.860
2020/01/31 00:33:09.3	268.970	0.100	-0.160	0.850
2020/01/31 00:33:09.4	268.950	0.120	-0.170	0.830
2020/01/31 00:33:09.5	268.940	0.130	-0.180	0.820
2020/01/31 00:33:09.6	268.920	0.150	-0.200	0.800
2020/01/31 00:33:09.7	268.910	0.170	-0.210	0.790
2020/01/31 00:33:09.8	268.890	0.180	-0.220	0.780
2020/01/31 00:33:09.9	268.890	0.200	-0.240	0.770
2020/01/31 00:33:10.0	268.870	0.220	-0.250	0.760
2020/01/31 00:33:10.1	268.860	0.230	-0.260	0.760
2020/01/31 00:33:10.2	268.850	0.250	-0.270	0.750
2020/01/31 00:33:10.3	268.830	0.260	-0.280	0.740
2020/01/31 00:33:10.4	268.820	0.280	-0.290	0.740
2020/01/31 00:33:10.5	268.800	0.290	-0.290	0.740
2020/01/31 00:33:10.6	268.790	0.310	-0.300	0.740
2020/01/31 00:33:10.7	268.770	0.320	-0.300	0.740
2020/01/31 00:33:10.8	268.760	0.330	-0.310	0.740
2020/01/31 00:33:10.9	268.760	0.340	-0.310	0.750
2020/01/31 00:33:11.0	268.740	0.350	-0.310	0.760
2020/01/31 00:33:11.1	268.720	0.360	-0.310	0.760
2020/01/31 00:33:11.2	268.700	0.370	-0.300	0.770
2020/01/31 00:33:11.3	268.680	0.380	-0.300	0.780
2020/01/31 00:33:11.4	268.660	0.380	-0.290	0.790
2020/01/31 00:33:11.5	268.640	0.380	-0.290	0.800
2020/01/31 00:33:11.6	268.620	0.390	-0.280	0.820
2020/01/31 00:33:11.7	268.600	0.390	-0.270	0.830
2020/01/31 00:33:11.8	268.580	0.380	-0.260	0.850
2020/01/31 00:33:11.9	268.560	0.380	-0.250	0.860
2020/01/31 00:33:12.0	268.540	0.380	-0.230	0.880
2020/01/31 00:33:12.1	268.520	0.370	-0.220	0.900
2020/01/31 00:33:12.2	268.500	0.360	-0.210	0.910
2020/01/31 00:33:12.3	268.480	0.350	-0.200	0.930
2020/01/31 00:33:12.4	268.460	0.340	-0.190	0.950
2020/01/31 00:33:12.5	268.440	0.330	-0.180	0.970
2020/01/31 00:33:12.6	268.430	0.320	-0.170	0.980
2020/01/31 00:33:12.7	268.410	0.300	-0.160	1.000
2020/01/31 00:33:12.8	268.400	0.290	-0.150	1.010
2020/01/31 00:33:12.9	268.390	0.270	-0.140	1.020
2020/01/31 00:33:13.0	268.380	0.250	-0.140	1.030
2020/01/31 00:33:13.1	268.370	0.240	-0.130	1.030
2020/01/31 00:33:13.2	268.370	0.220	-0.130	1.030
2020/01/31 00:33:13.3	268.360	0.200	-0.130	1.030
2020/01/31 00:33:13.4	268.360	0.180	-0.130	1.030
2020/01/31 00:33:13.5	268.360	0.160	-0.140	1.020
2020/01/31 00:33:13.6	268.360	0.140	-0.140	1.010
2020/01/31 00:33:13.7	268.370	0.120	-0.150	1.000
2020/01/31 00:33:13.8	268.380	0.100	-0.160	0.990
2020/01/31 00:33:13.9	268.390	0.080	-0.170	0.970
2020/01/31 00:33:14.0	268.400	0.060	-0.190	0.950
2020/01/31 00:33:14.1	268.420	0.040	-0.200	0.930
2020/01/31 00:33:14.2	268.430	0.020	-0.220	0.900
2020/01/31 00:33:14.3	268.450	0.000	-0.230	0.870
2020/01/31 00:33:14.4	268.470	-0.020	-0.250	0.840
2020/01/31 00:33:14.5	268.490	-0.030	-0.270	0.810
2020/01/31 00:33:14.6	268.510	-0.050	-0.290	0.770
2020/01/31 00:33:14.7	268.540	-0.060	-0.320	0.730
2020/01/31 00:33:14.8	268.560	-0.080	-0.340	0.700
2020/01/31 00:33:14.9	268.600	-0.090	-0.360	0.650
2020/01/31 00:33:15.0	268.630	-0.100	-0.380	0.610
2020/01/31 00:33:15.1	268.660	-0.110	-0.410	0.570
2020/01/31 00:33:15.2	268.690	-0.120	-0.430	0.530
2020/01/31 00:33:15.3	268.720	-0.130	-0.460	0.500
2020/01/31 00:33:15.4	268.750	-0.140	-0.480	0.460
2020/01/31 00:33:15.5	268.780	-0.150	-0.510	0.420
2020/01/31 00:33:15.6	268.810	-0.150	-0.530	0.390
2020/01/31 00:33:15.7	268.850	-0.160	-0.560	0.350
2020/01/31 00:33:15.8	268.880	-0.160	-0.590	0.320
2020/01/31 00:33:15.9	268.900	-0.160	-0.620	0.290
2020/01/31 00:33:16.0	268.930	-0.170	-0.640	0.270
2020/01/31 00:33:16.1	268.960	-0.170	-0.670	0.240
2020/01/31 00:33:16.2	268.990	-0.170	-0.690	0.220
2020/01/31 00:33:16.3	269.020	-0.170	-0.720	0.200
2020/01/31 00:33:16.4	269.050	-0.170	-0.740	0.190
2020/01/31 00:33:16.5	269.070	-0.170	-0.770	0.170
2020/01/31 00:33:16.6	269.100	-0.170	-0.790	0.170
2020/01/31 00:33:16.7	269.120	-0.170	-0.810	0.160
2020/01/31 00:33:16.8	269.140	-0.170	-0.830	0.160
2020/01/31 00:33:16.9	269.140	-0.170	-0.850	0.160
2020/01/31 00:33:17.0	269.160	-0.170	-0.870	0.170
2020/01/31 00:33:17.1	269.180	-0.170	-0.880	0.180
2020/01/31 00:33:17.2	269.190	-0.170	-0.900	0.200
2020/01/31 00:33:17.3	269.200	-0.170	-0.910	0.220
2020/01/31 00:33:17.4	269.210	-0.170	-0.920	0.240
2020/01/31 00:33:17.5	269.220	-0.180	-0.920	0.270
2020/01/31 00:33:17.6	269.230	-0.180	-0.930	0.290
2020/01/31 00:33:17.7	269.240	-0.180	-0.930	0.330
2020/01/31 00:33:17.8	269.240	-0.190	-0.930	0.360
2020/01/31 00:33:17.9	269.240	-0.190	-0.920	0.390
2020/01/31 00:33:18.0	269.240	-0.200	-0.920	0.430
2020/01/31 00:33:18.1	269.250	-0.210	-0.900	0.470
2020/01/31 00:33:18.2	269.250	-0.220	-0.890	0.500
2020/01/31 00:33:18.3	269.250	-0.220	-0.870	0.540
2020/01/31 00:33:18.4	269.250	-0.230	-0.850	0.580
2020/01/31 00:33:18.5	269.250	-0.240	-0.830	0.620
2020/01/31 00:33:18.6	269.240	-0.250	-0.800	0.660
2020/01/31 00:33:18.7	269.240	-0.260	-0.780	0.700
2020/01/31 00:33:18.8	269.240	-0.270	-0.740	0.740
2020/01/31 00:33:18.9	269.240	-0.280	-0.710	0.770
2020/01/31 00:33:19.0	269.230	-0.290	-0.680	0.810
2020/01/31 00:33:19.1	269.230	-0.300	-0.640	0.850
2020/01/31 00:33:19.2	269.220	-0.310	-0.600	0.880
2020/01/31 00:33:19.3	269.210	-0.320	-0.560	0.920
2020/01/31 00:33:19.4	269.200	-0.330	-0.520	0.950
2020/01/31 00:33:19.5	269.190	-0.340	-0.470	0.980
2020/01/31 00:33:19.6	269.180	-0.350	-0.430	1.020
2020/01/31 00:33:19.7	269.170	-0.350	-0.380	1.050
2020/01/31 00:33:19.8	269.160	-0.360	-0.340	1.070
2020/01/31 00:33:19.9	269.150	-0.360	-0.290	1.100
2020/01/31 00:33:20.0	269.140	-0.370	-0.250	1.130
2020/01/31 00:33:20.1	269.130	-0.370	-0.200	1.150
2020/01/31 00:33:20.2	269.120	-0.370	-0.160	1.170
2020/01/31 00:33:20.3	269.110	-0.370	-0.110	1.190
2020/01/31 00:33:20.4	269.100	-0.370	-0.070	1.210
2020/01/31 00:33:20.5	269.090	-0.360	-0.030	1.220
2020/01/31 00:33:20.6	269.080	-0.360	0.010	1.230
2020/01/31 00:33:20.7	269.070	-0.350	0.050	1.240
2020/01/31 00:33:20.8	269.060	-0.340	0.080	1.250
2020/01/31 00:33:20.9	269.050	-0.330	0.120	1.260
2020/01/31 00:33:21.0	269.050	-0.320	0.150	1.260
2020/01/31 00:33:21.1	269.040	-0.300	0.180	1.260
2020/01/31 00:33:21.2	269.030	-0.290	0.200	1.260
2020/01/31 00:33:21.3	269.020	-0.270	0.220	1.260
2020/01/31 00:33:21.4	269.010	-0.250	0.240	1.260
2020/01/31 00:33:21.5	269.010	-0.230	0.260	1.260
2020/01/31 00:33:21.6	269.000	-0.210	0.270	1.260
2020/01/31 00:33:21.7	268.990	-0.190	0.280	1.250
2020/01/31 00:33:21.8	268.990	-0.160	0.280	1.250
2020/01/31 00:33:21.9	268.980	-0.140	0.280	1.250
2020/01/31 00:33:22.0	268.970	-0.110	0.280	1.240
2020/01/31 00:33:22.1	268.970	-0.090	0.280	1.230
2020/01/31 00:33:22.2	268.960	-0.060	0.270	1.220
2020/01/31 00:33:22.3	268.960	-0.030	0.260	1.210
2020/01/31 00:33:22.4	268.950	-0.010	0.250	1.200
2020/01/31 00:33:22.5	268.950	0.020	0.240	1.190
2020/01/31 00:33:22.6	268.950	0.050	0.220	1.180
2020/01/31 00:33:22.7	268.940	0.070	0.210	1.170
2020/01/31 00:33:22.8	268.940	0.100	0.190	1.150
2020/01/31 00:33:22.9	268.940	0.130	0.170	1.130
2020/01/31 00:33:23.0	268.940	0.150	0.150	1.110
2020/01/31 00:33:23.1	268.940	0.170	0.130	1.100
2020/01/31 00:33:23.2	268.940	0.200	0.110	1.070
2020/01/31 00:33:23.3	268.940	0.220	0.090	1.050
2020/01/31 00:33:23.4	268.940	0.240	0.080	1.030
2020/01/31 00:33:23.5	268.940	0.250	0.060	1.010
2020/01/31 00:33:23.6	268.950	0.270	0.040	0.980
2020/01/31 00:33:23.7	268.950	0.290	0.020	0.960
2020/01/31 00:33:23.8	268.950	0.300	0.010	0.940
2020/01/31 00:33:23.9	268.960	0.310	-0.010	0.920
2020/01/31 00:33:24.0	268.960	0.320	-0.020	0.900
2020/01/31 00:33:24.1	268.950	0.330	-0.030	0.880
2020/01/31 00:33:24.2	268.950	0.330	-0.040	0.860
2020/01/31 00:33:24.3	268.950	0.340	-0.050	0.840
2020/01/31 00:33:24.4	268.950	0.340	-0.050	0.820
2020/01/31 00:33:24.5	268.940	0.340	-0.060	0.810
2020/01/31 00:33:24.6	268.940	0.340	-0.060	0.790
2020/01/31 00:33:24.7	268.930	0.340	-0.060	0.780
2020/01/31 00:33:24.8	268.930	0.330	-0.060	0.770
2020/01/31 00:33:24.9	268.920	0.330	-0.070	0.760
2020/01/31 00:33:25.0	268.920	0.320	-0.060	0.750
2020/01/31 00:33:25.1	268.910	0.310	-0.060	0.740
2020/01/31 00:33:25.2	268.900	0.300	-0.060	0.740
2020/01/31 00:33:25.3	268.890	0.290	-0.060	0.730
2020/01/31 00:33:25.4	268.880	0.280	-0.050	0.730
2020/01/31 00:33:25.5	268.870	0.270	-0.050	0.720
2020/01/31 00:33:25.6	268.870	0.250	-0.050	0.720
2020/01/31 00:33:25.7	268.860	0.240	-0.040	0.720
2020/01/31 00:33:25.8	268.850	0.230	-0.040	0.720
2020/01/31 00:33:25.9	268.850	0.210	-0.040	0.730
2020/01/31 00:33:26.0	268.850	0.200	-0.040	0.730
2020/01/31 00:33:26.1	268.840	0.190	-0.040	0.730
2020/01/31 00:33:26.2	268.840	0.180	-0.040	0.730
2020/01/31 00:33:26.3	268.830	0.160	-0.050	0.740
2020/01/31 00:33:26.4	268.830	0.150	-0.050	0.740
2020/01/31 00:33:26.5	268.830	0.140	-0.060	0.750
2020/01/31 00:33:26.6	268.820	0.130	-0.070	0.750
2020/01/31 00:33:26.7	268.820	0.120	-0.080	0.760
2020/01/31 00:33:26.8	268.820	0.120	-0.090	0.760
2020/01/31 00:33:26.9	268.800	0.110	-0.110	0.770
2020/01/31 00:33:27.0	268.800	0.100	-0.120	0.780
2020/01/31 00:33:27.1	268.800	0.100	-0.140	0.780
2020/01/31 00:33:27.2	268.800	0.100	-0.160	0.790
2020/01/31 00:33:27.3	268.800	0.100	-0.180	0.800
2020/01/31 00:33:27.4	268.800	0.100	-0.210	0.800
2020/01/31 00:33:27.5	268.800	0.100	-0.230	0.810
2020/01/31 00:33:27.6	268.800	0.100	-0.260	0.810
2020/01/31 00:33:27.7	268.810	0.100	-0.290	0.810
2020/01/31 00:33:27.8	268.810	0.110	-0.320	0.820
2020/01/31 00:33:27.9	268.800	0.110	-0.350	0.820
2020/01/31 00:33:28.0	268.800	0.120	-0.380	0.820
2020/01/31 00:33:28.1	268.810	0.130	-0.420	0.820
2020/01/31 00:33:28.2	268.810	0.140	-0.450	0.810
2020/01/31 00:33:28.3	268.810	0.150	-0.490	0.810
2020/01/31 00:33:28.4	268.810	0.160	-0.520	0.810
2020/01/31 00:33:28.5	268.810	0.170	-0.560	0.800
2020/01/31 00:33:28.6	268.820	0.180	-0.590	0.800
2020/01/31 00:33:28.7	268.820	0.190	-0.620	0.790
2020/01/31 00:33:28.8	268.820	0.190	-0.660	0.780
2020/01/31 00:33:28.9	268.810	0.200	-0.690	0.780
2020/01/31 00:33:29.0	268.810	0.210	-0.720	0.770
2020/01/31 00:33:29.1	268.820	0.220	-0.760	0.760
2020/01/31 00:33:29.2	268.820	0.230	-0.780	0.750
2020/01/31 00:33:29.3	268.820	0.230	-0.810	0.730
2020/01/31 00:33:29.4	268.820	0.240	-0.840	0.720
2020/01/31 00:33:29.5	268.830	0.240	-0.860	0.710
2020/01/31 00:33:29.6	268.830	0.240	-0.880	0.700
2020/01/31 00:33:29.7	268.830	0.240	-0.900	0.690
2020/01/31 00:33:29.8	268.830	0.240	-0.920	0.680
2020/01/31 00:33:29.9	268.850	0.240	-0.940	0.670
2020/01/31 00:33:30.0	268.850	0.240	-0.950	0.660
2020/01/31 00:33:30.1	268.850	0.230	-0.960	0.650
2020/01/31 00:33:30.2	268.860	0.230	-0.970	0.650
2020/01/31 00:33:30.3	268.860	0.220	-0.970	0.650
2020/01/31 00:33:30.4	268.860	0.210	-0.980	0.640
2020/01/31 00:33:30.5	268.870	0.190	-0.980	0.640
2020/01/31 00:33:30.6	268.870	0.180	-0.970	0.640
2020/01/31 00:33:30.7	268.870	0.170	-0.970	0.640
2020/01/31 00:33:30.8	268.880	0.150	-0.960	0.650
2020/01/31 00:33:30.9	268.890	0.130	-0.950	0.660
2020/01/31 00:33:31.0	268.890	0.110	-0.940	0.660
2020/01/31 00:33:31.1	268.900	0.090	-0.930	0.670
2020/01/31 00:33:31.2	268.900	0.070	-0.910	0.680
2020/01/31 00:33:31.3	268.910	0.050	-0.890	0.690
2020/01/31 00:33:31.4	268.910	0.030	-0.880	0.710
2020/01/31 00:33:31.5	268.920	0.010	-0.860	0.720
2020/01/31 00:33:31.6	268.920	-0.020	-0.840	0.740
2020/01/31 00:33:31.7	268.930	-0.040	-0.820	0.750
2020/01/31 00:33:31.8	268.930	-0.060	-0.800	0.770
2020/01/31 00:33:31.9	268.930	-0.090	-0.770	0.790
2020/01/31 00:33:32.0	268.940	-0.110	-0.750	0.810
2020/01/31 00:33:32.1	268.940	-0.130	-0.730	0.820
2020/01/31 00:33:32.2	268.950	-0.150	-0.710	0.840
2020/01/31 00:33:32.3	268.950	-0.170	-0.690	0.860
2020/01/31 00:33:32.4	268.960	-0.190	-0.660	0.880
2020/01/31 00:33:32.5	268.960	-0.210	-0.640	0.900
2020/01/31 00:33:32.6	268.970	-0.230	-0.620	0.920
2020/01/31 00:33:32.7	268.970	-0.250	-0.600	0.940
2020/01/31 00:33:32.8	268.980	-0.260	-0.580	0.960
2020/01/31 00:33:32.9	268.970	-0.280	-0.560	0.980
2020/01/31 00:33:33.0	268.980	-0.290	-0.540	1.000
2020/01/31 00:33:33.1	268.980	-0.300	-0.520	1.020
2020/01/31 00:33:33.2	268.980	-0.310	-0.510	1.040
2020/01/31 00:33:33.3	268.980	-0.320	-0.490	1.060
2020/01/31 00:33:33.4	268.990	-0.330	-0.470	1.070
2020/01/31 00:33:33.5	268.990	-0.340	-0.450	1.090
2020/01/31 00:33:33.6	268.990	-0.340	-0.440	1.110
2020/01/31 00:33:33.7	268.990	-0.350	-0.420	1.120
2020/01/31 00:33:33.8	268.990	-0.350	-0.400	1.140
2020/01/31 00:33:33.9	268.990	-0.350	-0.390	1.160
2020/01/31 00:33:34.0	268.990	-0.350	-0.370	1.170
2020/01/31 00:33:34.1	268.980	-0.350	-0.350	1.180
2020/01/31 00:33:34.2	268.980	-0.350	-0.340	1.200
2020/01/31 00:33:34.3	268.980	-0.350	-0.320	1.210
2020/01/31 00:33:34.4	268.980	-0.350	-0.300	1.220
2020/01/31 00:33:34.5	268.980	-0.350	-0.290	1.230
2020/01/31 00:33:34.6	268.980	-0.350	-0.270	1.240
2020/01/31 00:33:34.7	268.980	-0.340	-0.260	1.250
2020/01/31 00:33:34.8	268.970	-0.340	-0.240	1.260
2020/01/31 00:33:34.9	268.990	-0.340	-0.230	1.260
2020/01/31 00:33:35.0	268.990	-0.330	-0.210	1.270
2020/01/31 00:33:35.1	268.990	-0.330	-0.200	1.270
2020/01/31 00:33:35.2	268.990	-0.330	-0.180	1.280
2020/01/31 00:33:35.3	268.990	-0.320	-0.170	1.280
2020/01/31 00:33:35.4	268.990	-0.320	-0.150	1.280
2020/01/31 00:33:35.5	268.990	-0.320	-0.130	1.280
2020/01/31 00:33:35.6	268.990	-0.310	-0.120	1.280
2020/01/31 00:33:35.7	268.990	-0.310	-0.100	1.280
2020/01/31 00:33:35.8	269.000	-0.300	-0.090	1.270
2020/01/31 00:33:35.9	269.000	-0.300	-0.070	1.270
2020/01/31 00:33:36.0	269.000	-0.300	-0.060	1.260
2020/01/31 00:33:36.1	269.000	-0.290	-0.040	1.260
2020/01/31 00:33:36.2	269.010	-0.290	-0.030	1.250
2020/01/31 00:33:36.3	269.010	-0.290	-0.010	1.250
2020/01/31 00:33:36.4	269.010	-0.280	0.010	1.240
2020/01/31 00:33:36.5	269.020	-0.280	0.020	1.230
2020/01/31 00:33:36.6	269.020	-0.270	0.040	1.230
2020/01/31 00:33:36.7	269.020	-0.270	0.060	1.220
2020/01/31 00:33:36.8	269.020	-0.270	0.080	1.220
2020/01/31 00:33:36.9	269.020	-0.270	0.100	1.210
2020/01/31 00:33:37.0	269.020	-0.260	0.120	1.200
2020/01/31 00:33:37.1	269.020	-0.260	0.140	1.200
2020/01/31 00:33:37.2	269.020	-0.260	0.160	1.190
2020/01/31 00:33:37.3	269.020	-0.250	0.180	1.180
2020/01/31 00:33:37.4	269.020	-0.250	0.200	1.180
2020/01/31 00:33:37.5	269.010	-0.250	0.230	1.170
2020/01/31 00:33:37.6	269.010	-0.240	0.250	1.160
2020/01/31 00:33:37.7	269.000	-0.240	0.280	1.150
2020/01/31 00:33:37.8	269.000	-0.240	0.300	1.140
2020/01/31 00:33:37.9	268.990	-0.230	0.320	1.130
2020/01/31 00:33:38.0	268.980	-0.230	0.350	1.120
2020/01/31 00:33:38.1	268.980	-0.220	0.370	1.110
2020/01/31 00:33:38.2	268.970	-0.220	0.390	1.100
2020/01/31 00:33:38.3	268.970	-0.210	0.410	1.090
2020/01/31 00:33:38.4	268.960	-0.200	0.430	1.080
2020/01/31 00:33:38.5	268.950	-0.200	0.450	1.060
2020/01/31 00:33:38.6	268.940	-0.190	0.470	1.050
2020/01/31 00:33:38.7	268.940	-0.180	0.480	1.030
2020/01/31 00:33:38.8	268.930	-0.170	0.500	1.010
2020/01/31 00:33:38.9	268.920	-0.160	0.500	1.000
2020/01/31 00:33:39.0	268.910	-0.150	0.510	0.980
2020/01/31 00:33:39.1	268.900	-0.130	0.520	0.970
2020/01/31 00:33:39.2	268.890	-0.120	0.520	0.950
2020/01/31 00:33:39.3	268.890	-0.110	0.520	0.930
2020/01/31 00:33:39.4	268.880	-0.090	0.510	0.920
2020/01/31 00:33:39.5	268.870	-0.070	0.510	0.900
2020/01/31 00:33:39.6	268.860	-0.050	0.500	0.880
2020/01/31 00:33:39.7	268.850	-0.030	0.480	0.870
2020/01/31 00:33:39.8	268.840	-0.010	0.460	0.860
2020/01/31 00:33:39.9	268.840	0.010	0.440	0.840
2020/01/31 00:33:40.0	268.830	0.030	0.420	0.830
2020/01/31 00:33:40.1	268.820	0.050	0.390	0.810
2020/01/31 00:33:40.2	268.810	0.080	0.350	0.800
2020/01/31 00:33:40.3	268.800	0.100	0.320	0.790
2020/01/31 00:33:40.4	268.800	0.130	0.280	0.780
2020/01/31 00:33:40.5	268.790	0.160	0.240	0.770
2020/01/31 00:33:40.6	268.780	0.180	0.190	0.760
2020/01/31 00:33:40.7	268.770	0.210	0.140	0.750
2020/01/31 00:33:40.8	268.760	0.240	0.090	0.740
2020/01/31 00:33:40.9	268.760	0.270	0.040	0.740
2020/01/31 00:33:41.0	268.750	0.300	-0.010	0.730
2020/01/31 00:33:41.1	268.740	0.330	-0.070	0.730
2020/01/31 00:33:41.2	268.740	0.360	-0.120	0.720
2020/01/31 00:33:41.3	268.730	0.390	-0.180	0.720
2020/01/31 00:33:41.4	268.720	0.410	-0.240	0.710
2020/01/31 00:33:41.5	268.710	0.440	-0.290	0.710
2020/01/31 00:33:41.6	268.710	0.470	-0.350	0.710
2020/01/31 00:33:41.7	268.700	0.500	-0.410	0.710
2020/01/31 00:33:41.8	268.690	0.520	-0.460	0.710
2020/01/31 00:33:41.9	268.670	0.540	-0.510	0.700
2020/01/31 00:33:42.0	268.660	0.570	-0.560	0.710
2020/01/31 00:33:42.1	268.650	0.590	-0.610	0.710
2020/01/31 00:33:42.2	268.640	0.610	-0.660	0.710
2020/01/31 00:33:42.3	268.620	0.620	-0.700	0.720
2020/01/31 00:33:42.4	268.610	0.640	-0.740	0.720
2020/01/31 00:33:42.5	268.590	0.650	-0.780	0.730
2020/01/31 00:33:42.6	268.570	0.660	-0.810	0.740
2020/01/31 00:33:42.7	268.560	0.670	-0.840	0.750
2020/01/31 00:33:42.8	268.540	0.680	-0.870	0.750
2020/01/31 00:33:42.9	268.510	0.680	-0.890	0.770
2020/01/31 00:33:43.0	268.490	0.680	-0.910	0.780
2020/01/31 00:33:43.1	268.480	0.680	-0.930	0.790
2020/01/31 00:33:43.2	268.460	0.670	-0.940	0.800
2020/01/31 00:33:43.3	268.440	0.670	-0.950	0.810
2020/01/31 00:33:43.4	268.420	0.660	-0.960	0.820
2020/01/31 00:33:43.5	268.400	0.650	-0.960	0.830
2020/01/31 00:33:43.6	268.390	0.630	-0.960	0.840
2020/01/31 00:33:43.7	268.370	0.620	-0.960	0.850
2020/01/31 00:33:43.8	268.350	0.600	-0.950	0.860
2020/01/31 00:33:43.9	268.350	0.580	-0.940	0.880
2020/01/31 00:33:44.0	268.330	0.560	-0.930	0.890
2020/01/31 00:33:44.1	268.320	0.540	-0.920	0.900
2020/01/31 00:33:44.2	268.300	0.510	-0.910	0.920
2020/01/31 00:33:44.3	268.280	0.480	-0.900	0.930
2020/01/31 00:33:44.4	268.270	0.460	-0.890	0.950
2020/01/31 00:33:44.5	268.250	0.430	-0.870	0.960
2020/01/31 00:33:44.6	268.240	0.400	-0.860	0.970
2020/01/31 00:33:44.7	268.220	0.370	-0.850	0.990
2020/01/31 00:33:44.8	268.210	0.340	-0.840	1.000
2020/01/31 00:33:44.9	268.180	0.310	-0.830	1.010
2020/01/31 00:33:45.0	268.170	0.270	-0.820	1.030
2020/01/31 00:33:45.1	268.160	0.240	-0.820	1.040
2020/01/31 00:33:45.2	268.140	0.210	-0.810	1.050
2020/01/31 00:33:45.3	268.130	0.180	-0.810	1.050
2020/01/31 00:33:45.4	268.120	0.150	-0.810	1.060
2020/01/31 00:33:45.5	268.110	0.120	-0.800	1.070
2020/01/31 00:33:45.6	268.100	0.090	-0.800	1.070
2020/01/31 00:33:45.7	268.090	0.060	-0.800	1.070
2020/01/31 00:33:45.8	268.080	0.030	-0.810	1.070
2020/01/31 00:33:45.9	268.050	0.010	-0.810	1.070
2020/01/31 00:33:46.0	268.050	-0.020	-0.810	1.060
2020/01/31 00:33:46.1	268.040	-0.040	-0.810	1.060
2020/01/31 00:33:46.2	268.040	-0.070	-0.820	1.050
2020/01/31 00:33:46.3	268.040	-0.090	-0.820	1.040
2020/01/31 00:33:46.4	268.030	-0.110	-0.820	1.030
2020/01/31 00:33:46.5	268.030	-0.140	-0.830	1.020
2020/01/31 00:33:46.6	268.030	-0.160	-0.830	1.010
2020/01/31 00:33:46.7	268.040	-0.180	-0.830	1.000
2020/01/31 00:33:46.8	268.040	-0.190	-0.830	0.990
2020/01/31 00:33:46.9	268.050	-0.210	-0.830	0.980
2020/01/31 00:33:47.0	268.050	-0.230	-0.820	0.960
2020/01/31 00:33:47.1	268.060	-0.240	-0.820	0.950
2020/01/31 00:33:47.2	268.070	-0.260	-0.810	0.940
2020/01/31 00:33:47.3	268.080	-0.270	-0.800	0.930
2020/01/31 00:33:47.4	268.090	-0.280	-0.790	0.920
2020/01/31 00:33:47.5	268.100	-0.300	-0.780	0.900
2020/01/31 00:33:47.6	268.110	-0.310	-0.770	0.890
2020/01/31 00:33:47.7	268.120	-0.320	-0.750	0.880
2020/01/31 00:33:47.8	268.130	-0.330	-0.740	0.870
2020/01/31 00:33:47.9	268.140	-0.340	-0.720	0.860
2020/01/31 00:33:48.0	268.160	-0.350	-0.700	0.850
2020/01/31 00:33:48.1	268.170	-0.350	-0.670	0.840
2020/01/31 00:33:48.2	268.190	-0.360	-0.650	0.830
2020/01/31 00:33:48.3	268.200	-0.370	-0.620	0.820
2020/01/31 00:33:48.4	268.220	-0.380	-0.590	0.810
2020/01/31 00:33:48.5	268.230	-0.380	-0.560	0.800
2020/01/31 00:33:48.6	268.250	-0.390	-0.530	0.800
2020/01/31 00:33:48.7	268.260	-0.400	-0.500	0.790
2020/01/31 00:33:48.8	268.280	-0.400	-0.470	0.780
2020/01/31 00:33:48.9	268.310	-0.410	-0.440	0.780
2020/01/31 00:33:49.0	268.330	-0.410	-0.400	0.770
2020/01/31 00:33:49.1	268.350	-0.420	-0.370	0.770
2020/01/31 00:33:49.2	268.360	-0.420	-0.330	0.770
2020/01/31 00:33:49.3	268.380	-0.420	-0.290	0.770
2020/01/31 00:33:49.4	268.400	-0.430	-0.250	0.770
2020/01/31 00:33:49.5	268.420	-0.430	-0.210	0.770
2020/01/31 00:33:49.6	268.430	-0.430	-0.170	0.770
2020/01/31 00:33:49.7	268.450	-0.430	-0.130	0.780
2020/01/31 00:33:49.8	268.470	-0.440	-0.090	0.780
2020/01/31 00:33:49.9	268.490	-0.440	-0.060	0.790
2020/01/31 00:33:50.0	268.510	-0.440	-0.020	0.790
2020/01/31 00:33:50.1	268.530	-0.440	0.020	0.800
2020/01/31 00:33:50.2	268.550	-0.440	0.060	0.810
2020/01/31 00:33:50.3	268.570	-0.440	0.100	0.810
2020/01/31 00:33:50.4	268.600	-0.430	0.140	0.820
2020/01/31 00:33:50.5	268.620	-0.430	0.180	0.830
2020/01/31 00:33:50.6	268.650	-0.430	0.220	0.840
2020/01/31 00:33:50.7	268.670	-0.430	0.260	0.840
2020/01/31 00:33:50.8	268.700	-0.430	0.290	0.850
2020/01/31 00:33:50.9	268.740	-0.420	0.320	0.860
2020/01/31 00:33:51.0	268.760	-0.420	0.360	0.870
2020/01/31 00:33:51.1	268.790	-0.410	0.390	0.880
2020/01/31 00:33:51.2	268.820	-0.410	0.410	0.890
2020/01/31 00:33:51.3	268.850	-0.400	0.440	0.900
2020/01/31 00:33:51.4	268.870	-0.390	0.460	0.910
2020/01/31 00:33:51.5	268.900	-0.390	0.480	0.930
2020/01/31 00:33:51.6	268.930	-0.380	0.500	0.940
2020/01/31 00:33:51.7	268.950	-0.370	0.510	0.950
2020/01/31 00:33:51.8	268.980	-0.360	0.520	0.970
2020/01/31 00:33:51.9	269.000	-0.350	0.520	0.980
2020/01/31 00:33:52.0	269.020	-0.340	0.530	1.000
2020/01/31 00:33:52.1	269.040	-0.330	0.530	1.010
2020/01/31 00:33:52.2	269.070	-0.310	0.530	1.030
2020/01/31 00:33:52.3	269.090	-0.300	0.520	1.040
2020/01/31 00:33:52.4	269.100	-0.280	0.510	1.060
2020/01/31 00:33:52.5	269.120	-0.270	0.500	1.080
2020/01/31 00:33:52.6	269.140	-0.250	0.480	1.090
2020/01/31 00:33:52.7	269.150	-0.230	0.460	1.110
2020/01/31 00:33:52.8	269.160	-0.210	0.440	1.130
2020/01/31 00:33:52.9	269.180	-0.190	0.410	1.140
2020/01/31 00:33:53.0	269.190	-0.170	0.380	1.160
2020/01/31 00:33:53.1	269.190	-0.150	0.350	1.170
2020/01/31 00:33:53.2	269.200	-0.130	0.320	1.190
2020/01/31 00:33:53.3	269.200	-0.100	0.280	1.210
2020/01/31 00:33:53.4	269.200	-0.080	0.250	1.220
2020/01/31 00:33:53.5	269.200	-0.060	0.210	1.240
2020/01/31 00:33:53.6	269.200	-0.030	0.170	1.250
2020/01/31 00:33:53.7	269.200	-0.010	0.130	1.270
2020/01/31 00:33:53.8	269.200	0.020	0.090	1.280
2020/01/31 00:33:53.9	269.200	0.050	0.050	1.300
2020/01/31 00:33:54.0	269.190	0.070	0.010	1.320
2020/01/31 00:33:54.1	269.180	0.100	-0.030	1.330
2020/01/31 00:33:54.2	269.170	0.130	-0.070	1.350
2020/01/31 00:33:54.3	269.160	0.150	-0.110	1.360
2020/01/31 00:33:54.4	269.140	0.180	-0.140	1.370
2020/01/31 00:33:54.5	269.130	0.200	-0.180	1.390
2020/01/31 00:33:54.6	269.110	0.230	-0.220	1.400
2020/01/31 00:33:54.7	269.090	0.250	-0.250	1.410
2020/01/31 00:33:54.8	269.070	0.270	-0.280	1.420
2020/01/31 00:33:54.9	269.030	0.290	-0.320	1.430
2020/01/31 00:33:55.0	269.010	0.310	-0.340	1.440
2020/01/31 00:33:55.1	268.980	0.330	-0.370	1.450
2020/01/31 00:33:55.2	268.950	0.350	-0.390	1.460
2020/01/31 00:33:55.3	268.920	0.360	-0.410	1.470
2020/01/31 00:33:55.4	268.890	0.380	-0.430	1.480
2020/01/31 00:33:55.5	268.850	0.390	-0.450	1.490
2020/01/31 00:33:55.6	268.820	0.400	-0.460	1.490
2020/01/31 00:33:55.7	268.780	0.400	-0.480	1.500
2020/01/31 00:33:55.8	268.740	0.410	-0.480	1.500
2020/01/31 00:33:55.9	268.690	0.410	-0.490	1.500
2020/01/31 00:33:56.0	268.640	0.410	-0.490	1.500
2020/01/31 00:33:56.1	268.600	0.410	-0.500	1.500
2020/01/31 00:33:56.2	268.560	0.410	-0.500	1.500
2020/01/31 00:33:56.3	268.510	0.400	-0.500	1.500
2020/01/31 00:33:56.4	268.460	0.400	-0.500	1.500
2020/01/31 00:33:56.5	268.420	0.390	-0.490	1.490
2020/01/31 00:33:56.6	268.370	0.370	-0.490	1.480
2020/01/31 00:33:56.7	268.320	0.360	-0.480	1.470
2020/01/31 00:33:56.8	268.280	0.350	-0.480	1.460
2020/01/31 00:33:56.9	268.230	0.330	-0.470	1.450
2020/01/31 00:33:57.0	268.180	0.310	-0.470	1.440
2020/01/31 00:33:57.1	268.140	0.290	-0.460	1.420
2020/01/31 00:33:57.2	268.090	0.270	-0.450	1.400
2020/01/31 00:33:57.3	268.040	0.250	-0.440	1.380
2020/01/31 00:33:57.4	268.000	0.230	-0.430	1.360
2020/01/31 00:33:57.5	267.950	0.210	-0.430	1.340
2020/01/31 00:33:57.6	267.910	0.180	-0.420	1.320
2020/01/31 00:33:57.7	267.870	0.160	-0.410	1.290
2020/01/31 00:33:57.8	267.830	0.140	-0.400	1.270
2020/01/31 00:33:57.9	267.780	0.120	-0.400	1.240
2020/01/31 00:33:58.0	267.740	0.100	-0.390	1.210
2020/01/31 00:33:58.1	267.710	0.080	-0.380	1.180
2020/01/31 00:33:58.2	267.670	0.060	-0.380	1.150
2020/01/31 00:33:58.3	267.640	0.040	-0.370	1.130
2020/01/31 00:33:58.4	267.610	0.020	-0.370	1.100
2020/01/31 00:33:58.5	267.580	0.010	-0.360	1.070
2020/01/31 00:33:58.6	267.560	-0.010	-0.360	1.040
2020/01/31 00:33:58.7	267.530	-0.020	-0.360	1.010
2020/01/31 00:33:58.8	267.510	-0.030	-0.360	0.980
2020/01/31 00:33:58.9	267.490	-0.030	-0.360	0.950
2020/01/31 00:33:59.0	267.470	-0.040	-0.370	0.920
2020/01/31 00:33:59.1	267.460	-0.040	-0.370	0.890
2020/01/31 00:33:59.2	267.450	-0.040	-0.380	0.860
2020/01/31 00:33:59.3	267.440	-0.040	-0.380	0.830
2020/01/31 00:33:59.4	267.430	-0.040	-0.390	0.790
2020/01/31 00:33:59.5	267.430	-0.040	-0.400	0.760
2020/01/31 00:33:59.6	267.430	-0.030	-0.410	0.730
2020/01/31 00:33:59.7	267.440	-0.020	-0.420	0.700
2020/01/31 00:33:59.8	267.440	-0.010	-0.440	0.670
2020/01/31 00:33:59.9	267.470	0.000	-0.450	0.630
2020/01/31 00:34:00.0	267.480	0.020	-0.470	0.600
2020/01/31 00:34:00.1	267.500	0.030	-0.480	0.570
2020/01/31 00:34:00.2	267.510	0.050	-0.500	0.540
2020/01/31 00:34:00.3	267.540	0.070	-0.520	0.510
2020/01/31 00:34:00.4	267.560	0.090	-0.540	0.480
2020/01/31 00:34:00.5	267.590	0.110	-0.550	0.450
2020/01/31 00:34:00.6	267.620	0.130	-0.570	0.430
2020/01/31 00:34:00.7	267.650	0.150	-0.590	0.400
2020/01/31 00:34:00.8	267.690	0.170	-0.610	0.380
2020/01/31 00:34:00.9	267.730	0.190	-0.630	0.360
2020/01/31 00:34:01.0	267.770	0.210	-0.650	0.340
2020/01/31 00:34:01.1	267.820	0.230	-0.670	0.320
2020/01/31 00:34:01.2	267.860	0.250	-0.680	0.310
2020/01/31 00:34:01.3	267.910	0.270	-0.700	0.300
2020/01/31 00:34:01.4	267.960	0.290	-0.720	0.290
2020/01/31 00:34:01.5	268.010	0.310	-0.740	0.280
2020/01/31 00:34:01.6	268.060	0.320	-0.750	0.280
2020/01/31 00:34:01.7	268.110	0.340	-0.760	0.270
2020/01/31 00:34:01.8	268.170	0.350	-0.770	0.270
2020/01/31 00:34:01.9	268.210	0.360	-0.780	0.280
2020/01/31 00:34:02.0	268.270	0.370	-0.790	0.290
2020/01/31 00:34:02.1	268.320	0.380	-0.800	0.300
2020/01/31 00:34:02.2	268.370	0.380	-0.800	0.320
2020/01/31 00:34:02.3	268.430	0.380	-0.800	0.330
2020/01/31 00:34:02.4	268.480	0.380	-0.800	0.350
2020/01/31 00:34:02.5	268.530	0.380	-0.800	0.380
2020/01/31 00:34:02.6	268.580	0.380	-0.790	0.410
2020/01/31 00:34:02.7	268.630	0.370	-0.780	0.430
2020/01/31 00:34:02.8	268.680	0.360	-0.770	0.460
2020/01/31 00:34:02.9	268.720	0.350	-0.760	0.500
2020/01/31 00:34:03.0	268.770	0.340	-0.750	0.530
2020/01/31 00:34:03.1	268.810	0.320	-0.730	0.560
2020/01/31 00:34:03.2	268.850	0.300	-0.710	0.600
2020/01/31 00:34:03.3	268.890	0.280	-0.690	0.630
2020/01/31 00:34:03.4	268.920	0.260	-0.670	0.660
2020/01/31 00:34:03.5	268.960	0.240	-0.640	0.700
2020/01/31 00:34:03.6	268.990	0.210	-0.620	0.730
2020/01/31 00:34:03.7	269.020	0.180	-0.590	0.760
2020/01/31 00:34:03.8	269.050	0.150	-0.560	0.790
2020/01/31 00:34:03.9	269.070	0.120	-0.540	0.820
2020/01/31 00:34:04.0	269.100	0.090	-0.510	0.850
2020/01/31 00:34:04.1	269.120	0.060	-0.480	0.880
2020/01/31 00:34:04.2	269.140	0.030	-0.450	0.900
2020/01/31 00:34:04.3	269.160	-0.010	-0.420	0.930
2020/01/31 00:34:04.4	269.170	-0.040	-0.390	0.950
2020/01/31 00:34:04.5	269.190	-0.080	-0.360	0.970
2020/01/31 00:34:04.6	269.200	-0.110	-0.340	0.990
2020/01/31 00:34:04.7	269.210	-0.150	-0.310	1.010
2020/01/31 00:34:04.8	269.220	-0.180	-0.290	1.030
2020/01/31 00:34:04.9	269.250	-0.220	-0.260	1.040
2020/01/31 00:34:05.0	269.250	-0.250	-0.240	1.060
2020/01/31 00:34:05.1	269.250	-0.280	-0.220	1.070
2020/01/31 00:34:05.2	269.250	-0.320	-0.200	1.080
2020/01/31 00:34:05.3	269.250	-0.350	-0.180	1.090
2020/01/31 00:34:05.4	269.250	-0.380	-0.160	1.100
2020/01/31 00:34:05.5	269.250	-0.410	-0.150	1.110
2020/01/31 00:34:05.6	269.240	-0.440	-0.140	1.110
2020/01/31 00:34:05.7	269.230	-0.470	-0.130	1.110
2020/01/31 00:34:05.8	269.220	-0.490	-0.120	1.110
2020/01/31 00:34:05.9	269.220	-0.520	-0.110	1.110
2020/01/31 00:34:06.0	269.210	-0.540	-0.100	1.110
2020/01/31 00:34:06.1	269.200	-0.560	-0.100	1.100
2020/01/31 00:34:06.2	269.180	-0.580	-0.100	1.090
2020/01/31 00:34:06.3	269.170	-0.600	-0.090	1.080
2020/01/31 00:34:06.4	269.160	-0.610	-0.090	1.070
2020/01/31 00:34:06.5	269.140	-0.630	-0.090	1.060
2020/01/31 00:34:06.6	269.130	-0.640	-0.090	1.050
2020/01/31 00:34:06.7	269.110	-0.650	-0.090	1.040
2020/01/31 00:34:06.8	269.100	-0.660	-0.090	1.020
2020/01/31 00:34:06.9	269.090	-0.660	-0.090	1.010
2020/01/31 00:34:07.0	269.070	-0.670	-0.090	1.000
2020/01/31 00:34:07.1	269.060	-0.670	-0.090	0.980
2020/01/31 00:34:07.2	269.040	-0.670	-0.080	0.970
2020/01/31 00:34:07.3	269.030	-0.660	-0.080	0.960
2020/01/31 00:34:07.4	269.010	-0.660	-0.080	0.950
2020/01/31 00:34:07.5	269.000	-0.650	-0.070	0.940
2020/01/31 00:34:07.6	268.990	-0.640	-0.060	0.930
2020/01/31 00:34:07.7	268.970	-0.630	-0.060	0.920
2020/01/31 00:34:07.8	268.960	-0.620	-0.050	0.910
2020/01/31 00:34:07.9	268.960	-0.600	-0.040	0.900
2020/01/31 00:34:08.0	268.950	-0.580	-0.030	0.890
2020/01/31 00:34:08.1	268.930	-0.560	-0.020	0.880
2020/01/31 00:34:08.2	268.920	-0.540	-0.010	0.870
2020/01/31 00:34:08.3	268.910	-0.520	0.010	0.860
2020/01/31 00:34:08.4	268.900	-0.490	0.020	0.850
2020/01/31 00:34:08.5	268.890	-0.470	0.040	0.840
2020/01/31 00:34:08.6	268.890	-0.440	0.050	0.830
2020/01/31 00:34:08.7	268.880	-0.410	0.070	0.820
2020/01/31 00:34:08.8	268.870	-0.380	0.080	0.820
2020/01/31 00:34:08.9	268.860	-0.350	0.100	0.810
2020/01/31 00:34:09.0	268.850	-0.320	0.120	0.790
2020/01/31 00:34:09.1	268.840	-0.290	0.130	0.780
2020/01/31 00:34:09.2	268.840	-0.260	0.150	0.770
2020/01/31 00:34:09.3	268.830	-0.220	0.160	0.760
2020/01/31 00:34:09.4	268.820	-0.190	0.170	0.750
2020/01/31 00:34:09.5	268.820	-0.160	0.190	0.740
2020/01/31 00:34:09.6	268.810	-0.130	0.200	0.730
2020/01/31 00:34:09.7	268.800	-0.090	0.210	0.720
2020/01/31 00:34:09.8	268.790	-0.060	0.210	0.710
2020/01/31 00:34:09.9	268.790	-0.030	0.220	0.710
2020/01/31 00:34:10.0	268.790	0.000	0.220	0.700
2020/01/31 00:34:10.1	268.780	0.030	0.230	0.690
2020/01/31 00:34:10.2	268.770	0.060	0.230	0.690
2020/01/31 00:34:10.3	268.760	0.090	0.230	0.680
2020/01/31 00:34:10.4	268.750	0.120	0.230	0.680
2020/01/31 00:34:10.5	268.740	0.140	0.230	0.680
2020/01/31 00:34:10.6	268.730	0.170	0.220	0.670
2020/01/31 00:34:10.7	268.720	0.190	0.220	0.670
2020/01/31 00:34:10.8	268.710	0.220	0.210	0.670
2020/01/31 00:34:10.9	268.700	0.240	0.210	0.670
2020/01/31 00:34:11.0	268.690	0.260	0.200	0.680
2020/01/31 00:34:11.1	268.680	0.280	0.190	0.680
2020/01/31 00:34:11.2	268.670	0.290	0.170	0.680
2020/01/31 00:34:11.3	268.660	0.310	0.160	0.680
2020/01/31 00:34:11.4	268.660	0.320	0.150	0.690
2020/01/31 00:34:11.5	268.650	0.330	0.130	0.690
2020/01/31 00:34:11.6	268.640	0.340	0.110	0.690
2020/01/31 00:34:11.7	268.640	0.350	0.090	0.700
2020/01/31 00:34:11.8	268.630	0.360	0.070	0.700
2020/01/31 00:34:11.9	268.630	0.370	0.050	0.700
2020/01/31 00:34:12.0	268.620	0.370	0.030	0.700
2020/01/31 00:34:12.1	268.620	0.380	0.000	0.710
2020/01/31 00:34:12.2	268.620	0.380	-0.020	0.710
2020/01/31 00:34:12.3	268.620	0.390	-0.050	0.710
2020/01/31 00:34:12.4	268.620	0.390	-0.080	0.710
2020/01/31 00:34:12.5	268.620	0.390	-0.110	0.710
2020/01/31 00:34:12.6	268.620	0.390	-0.140	0.720
2020/01/31 00:34:12.7	268.630	0.390	-0.170	0.720
2020/01/31 00:34:12.8	268.630	0.390	-0.200	0.720
2020/01/31 00:34:12.9	268.620	0.390	-0.230	0.720
2020/01/31 00:34:13.0	268.630	0.390	-0.260	0.720
2020/01/31 00:34:13.1	268.630	0.390	-0.290	0.720
2020/01/31 00:34:13.2	268.640	0.390	-0.330	0.720
2020/01/31 00:34:13.3	268.650	0.380	-0.360	0.730
2020/01/31 00:34:13.4	268.660	0.380	-0.390	0.730
2020/01/31 00:34:13.5	268.660	0.380	-0.420	0.730
2020/01/31 00:34:13.6	268.670	0.380	-0.450	0.740
2020/01/31 00:34:13.7	268.680	0.380	-0.490	0.740
2020/01/31 00:34:13.8	268.690	0.380	-0.520	0.750
2020/01/31 00:34:13.9	268.690	0.370	-0.550	0.760
2020/01/31 00:34:14.0	268.700	0.370	-0.580	0.770
2020/01/31 00:34:14.1	268.700	0.370	-0.610	0.780
2020/01/31 00:34:14.2	268.710	0.370	-0.630	0.780
2020/01/31 00:34:14.3	268.720	0.370	-0.660	0.800
2020/01/31 00:34:14.4	268.720	0.370	-0.690	0.810
2020/01/31 00:34:14.5	268.730	0.370	-0.710	0.820
2020/01/31 00:34:14.6	268.730	0.370	-0.740	0.830
2020/01/31 00:34:14.7	268.730	0.360	-0.760	0.850
2020/01/31 00:34:14.8	268.740	0.360	-0.790	0.860
2020/01/31 00:34:14.9	268.740	0.360	-0.810	0.880
2020/01/31 00:34:15.0	268.740	0.360	-0.830	0.900
2020/01/31 00:34:15.1	268.740	0.360	-0.850	0.910
2020/01/31 00:34:15.2	268.740	0.360	-0.870	0.930
2020/01/31 00:34:15.3	268.730	0.360	-0.890	0.950
2020/01/31 00:34:15.4	268.730	0.360	-0.910	0.970
2020/01/31 00:34:15.5	268.730	0.350	-0.930	0.990
2020/01/31 00:34:15.6	268.730	0.350	-0.940	1.010
2020/01/31 00:34:15.7	268.720	0.350	-0.960	1.030
2020/01/31 00:34:15.8	268.720	0.340	-0.970	1.050
2020/01/31 00:34:15.9	268.720	0.340	-0.980	1.070
2020/01/31 00:34:16.0	268.720	0.330	-0.990	1.100
2020/01/31 00:34:16.1	268.710	0.330	-1.000	1.120
2020/01/31 00:34:16.2	268.710	0.320	-1.000	1.140
2020/01/31 00:34:16.3	268.700	0.310	-1.010	1.160
2020/01/31 00:34:16.4	268.700	0.300	-1.010	1.180
2020/01/31 00:34:16.5	268.690	0.290	-1.010	1.200
2020/01/31 00:34:16.6	268.690	0.270	-1.000	1.220
2020/01/31 00:34:16.7	268.690	0.260	-1.000	1.240
2020/01/31 00:34:16.8	268.690	0.250	-0.990	1.260
2020/01/31 00:34:16.9	268.670	0.230	-0.970	1.270
2020/01/31 00:34:17.0	268.670	0.210	-0.960	1.290
2020/01/31 00:34:17.1	268.670	0.200	-0.940	1.300
2020/01/31 00:34:17.2	268.670	0.180	-0.920	1.310
2020/01/31 00:34:17.3	268.670	0.160	-0.900	1.330
2020/01/31 00:34:17.4	268.660	0.140	-0.880	1.340
2020/01/31 00:34:17.5	268.660	0.110	-0.850	1.350
2020/01/31 00:34:17.6	268.660	0.090	-0.820	1.350
2020/01/31 00:34:17.7	268.660	0.070	-0.790	1.360
2020/01/31 00:34:17.8	268.660	0.050	-0.760	1.360
2020/01/31 00:34:17.9	268.670	0.020	-0.730	1.360
2020/01/31 00:34:18.0	268.670	-0.000	-0.700	1.370
2020/01/31 00:34:18.1	268.670	-0.030	-0.660	1.370
2020/01/31 00:34:18.2	268.670	-0.050	-0.620	1.370
2020/01/31 00:34:18.3	268.670	-0.070	-0.590	1.360
2020/01/31 00:34:18.4	268.670	-0.100	-0.550	1.360
2020/01/31 00:34:18.5	268.670	-0.120	-0.510	1.350
2020/01/31 00:34:18.6	268.670	-0.140	-0.480	1.340
2020/01/31 00:34:18.7	268.670	-0.160	-0.440	1.330
2020/01/31 00:34:18.8	268.670	-0.190	-0.400	1.320
2020/01/31 00:34:18.9	268.680	-0.210	-0.370	1.300
2020/01/31 00:34:19.0	268.680	-0.220	-0.330	1.280
2020/01/31 00:34:19.1	268.680	-0.240	-0.300	1.260
2020/01/31 00:34:19.2	268.680	-0.260	-0.270	1.240
2020/01/31 00:34:19.3	268.690	-0.280	-0.230	1.220
2020/01/31 00:34:19.4	268.690	-0.290	-0.200	1.190
2020/01/31 00:34:19.5	268.690	-0.300	-0.180	1.160
2020/01/31 00:34:19.6	268.700	-0.320	-0.150	1.130
2020/01/31 00:34:19.7	268.700	-0.330	-0.120	1.100
2020/01/31 00:34:19.8	268.710	-0.340	-0.100	1.060
2020/01/31 00:34:19.9	268.720	-0.340	-0.070	1.030
2020/01/31 00:34:20.0	268.730	-0.350	-0.050	0.990
2020/01/31 00:34:20.1	268.730	-0.360	-0.030	0.960
2020/01/31 00:34:20.2	268.740	-0.360	-0.020	0.930
2020/01/31 00:34:20.3	268.750	-0.370	-0.000	0.900
2020/01/31 00:34:20.4	268.760	-0.370	0.010	0.870
2020/01/31 00:34:20.5	268.770	-0.370	0.020	0.840
2020/01/31 00:34:20.6	268.780	-0.370	0.030	0.810
2020/01/31 00:34:20.7	268.800	-0.370	0.040	0.780
2020/01/31 00:34:20.8	268.810	-0.370	0.050	0.750
2020/01/31 00:34:20.9	268.820	-0.370	0.050	0.730
2020/01/31 00:34:21.0	268.830	-0.370	0.060	0.700
2020/01/31 00:34:21.1	268.840	-0.360	0.060	0.680
2020/01/31 00:34:21.2	268.860	-0.360	0.060	0.660
2020/01/31 00:34:21.3	268.870	-0.350	0.060	0.640
2020/01/31 00:34:21.4	268.890	-0.350	0.060	0.620
2020/01/31 00:34:21.5	268.900	-0.340	0.060	0.600
2020/01/31 00:34:21.6	268.910	-0.340	0.060	0.590
2020/01/31 00:34:21.7	268.930	-0.330	0.050	0.580
2020/01/31 00:34:21.8	268.940	-0.330	0.050	0.570
2020/01/31 00:34:21.9	268.960	-0.320	0.040	0.560
2020/01/31 00:34:22.0	268.980	-0.320	0.040	0.550
2020/01/31 00:34:22.1	268.990	-0.310	0.030	0.550
2020/01/31 00:34:22.2	269.000	-0.310	0.030	0.550
2020/01/31 00:34:22.3	269.020	-0.300	0.030	0.550
2020/01/31 00:34:22.4	269.030	-0.300	0.020	0.560
2020/01/31 00:34:22.5	269.040	-0.290	0.020	0.560
2020/01/31 00:34:22.6	269.050	-0.280	0.020	0.570
2020/01/31 00:34:22.7	269.060	-0.280	0.010	0.580
2020/01/31 00:34:22.8	269.070	-0.270	0.010	0.590
2020/01/31 00:34:22.9	269.070	-0.270	0.010	0.610
2020/01/31 00:34:23.0	269.080	-0.260	0.010	0.620
2020/01/31 00:34:23.1	269.080	-0.250	0.010	0.640
2020/01/31 00:34:23.2	269.090	-0.250	0.010	0.660
2020/01/31 00:34:23.3	269.090	-0.240	0.010	0.680
2020/01/31 00:34:23.4	269.100	-0.230	0.010	0.710
2020/01/31 00:34:23.5	269.100	-0.230	0.010	0.730
2020/01/31 00:34:23.6	269.110	-0.220	0.010	0.760
2020/01/31 00:34:23.7	269.110	-0.210	0.020	0.790
2020/01/31 00:34:23.8	269.110	-0.200	0.020	0.810
2020/01/31 00:34:23.9	269.110	-0.190	0.020	0.840
2020/01/31 00:34:24.0	269.110	-0.180	0.030	0.870
2020/01/31 00:34:24.1	269.110	-0.170	0.030	0.890
2020/01/31 00:34:24.2	269.110	-0.160	0.040	0.920
2020/01/31 00:34:24.3	269.100	-0.150	0.040	0.940
2020/01/31 00:34:24.4	269.100	-0.140	0.050	0.970
2020/01/31 00:34:24.5	269.100	-0.120	0.050	0.990
2020/01/31 00:34:24.6	269.090	-0.110	0.050	1.010
2020/01/31 00:34:24.7	269.090	-0.100	0.050	1.030
2020/01/31 00:34:24.8	269.080	-0.080	0.050	1.050
2020/01/31 00:34:24.9	269.070	-0.060	0.050	1.060
2020/01/31 00:34:25.0	269.070	-0.050	0.050	1.080
2020/01/31 00:34:25.1	269.060	-0.030	0.050	1.090
2020/01/31 00:34:25.2	269.050	-0.010	0.040	1.100
2020/01/31 00:34:25.3	269.040	0.010	0.040	1.100
2020/01/31 00:34:25.4	269.030	0.030	0.030	1.110
2020/01/31 00:34:25.5	269.020	0.050	0.020	1.110
2020/01/31 00:34:25.6	269.010	0.070	0.010	1.110
2020/01/31 00:34:25.7	269.000	0.090	0.000	1.110
2020/01/31 00:34:25.8	268.990	0.110	-0.010	1.100
2020/01/31 00:34:25.9	268.980	0.130	-0.030	1.100
2020/01/31 00:34:26.0	268.960	0.150	-0.050	1.090
2020/01/31 00:34:26.1	268.950	0.160	-0.070	1.080
2020/01/31 00:34:26.2	268.940	0.180	-0.090	1.070
2020/01/31 00:34:26.3	268.940	0.200	-0.110	1.060
2020/01/31 00:34:26.4	268.930	0.220	-0.130	1.040
2020/01/31 00:34:26.5	268.920	0.240	-0.150	1.030
2020/01/31 00:34:26.6	268.910	0.250	-0.180	1.010
2020/01/31 00:34:26.7	268.900	0.270	-0.210	1.000
2020/01/31 00:34:26.8	268.900	0.280	-0.230	0.980
2020/01/31 00:34:26.9	268.890	0.300	-0.270	0.960
2020/01/31 00:34:27.0	268.890	0.310	-0.290	0.940
2020/01/31 00:34:27.1	268.880	0.320	-0.320	0.920
2020/01/31 00:34:27.2	268.870	0.330	-0.350	0.910
2020/01/31 00:34:27.3	268.870	0.340	-0.380	0.890
2020/01/31 00:34:27.4	268.860	0.340	-0.410	0.870
2020/01/31 00:34:27.5	268.860	0.350	-0.440	0.850
2020/01/31 00:34:27.6	268.850	0.350	-0.470	0.840
2020/01/31 00:34:27.7	268.850	0.350	-0.490	0.820
2020/01/31 00:34:27.8	268.840	0.350	-0.520	0.810
2020/01/31 00:34:27.9	268.840	0.350	-0.540	0.800
2020/01/31 00:34:28.0	268.840	0.350	-0.560	0.780
2020/01/31 00:34:28.1	268.830	0.350	-0.580	0.770
2020/01/31 00:34:28.2	268.830	0.350	-0.600	0.760
2020/01/31 00:34:28.3	268.830	0.340	-0.620	0.740
2020/01/31 00:34:28.4	268.830	0.330	-0.630	0.730
2020/01/31 00:34:28.5	268.830	0.330	-0.640	0.720
2020/01/31 00:34:28.6	268.830	0.320	-0.650	0.710
2020/01/31 00:34:28.7	268.830	0.310	-0.660	0.700
2020/01/31 00:34:28.8	268.830	0.300	-0.660	0.690
2020/01/31 00:34:28.9	268.840	0.290	-0.670	0.670
2020/01/31 00:34:29.0	268.840	0.280	-0.670	0.660
2020/01/31 00:34:29.1	268.840	0.270	-0.670	0.650
2020/01/31 00:34:29.2	268.850	0.260	-0.670	0.640
2020/01/31 00:34:29.3	268.850	0.250	-0.670	0.630
2020/01/31 00:34:29.4	268.860	0.240	-0.660	0.620
2020/01/31 00:34:29.5	268.860	0.230	-0.660	0.610
2020/01/31 00:34:29.6	268.870	0.220	-0.650	0.600
2020/01/31 00:34:29.7	268.870	0.210	-0.640	0.580
2020/01/31 00:34:29.8	268.880	0.200	-0.630	0.570
2020/01/31 00:34:29.9	268.870	0.190	-0.620	0.560
2020/01/31 00:34:30.0	268.870	0.180	-0.610	0.550
2020/01/31 00:34:30.1	268.880	0.180	-0.610	0.540
2020/01/31 00:34:30.2	268.880	0.170	-0.600	0.530
2020/01/31 00:34:30.3	268.880	0.170	-0.590	0.520
2020/01/31 00:34:30.4	268.880	0.160	-0.580	0.510
2020/01/31 00:34:30.5	268.890	0.160	-0.580	0.500
2020/01/31 00:34:30.6	268.890	0.150	-0.570	0.500
2020/01/31 00:34:30.7	268.890	0.150	-0.570	0.490
2020/01/31 00:34:30.8	268.890	0.150	-0.560	0.480
2020/01/31 00:34:30.9	268.880	0.140	-0.560	0.480
2020/01/31 00:34:31.0	268.880	0.140	-0.560	0.470
2020/01/31 00:34:31.1	268.870	0.140	-0.560	0.470
2020/01/31 00:34:31.2	268.870	0.140	-0.550	0.470
2020/01/31 00:34:31.3	268.860	0.130	-0.550	0.470
2020/01/31 00:34:31.4	268.860	0.130	-0.550	0.470
2020/01/31 00:34:31.5	268.850	0.130	-0.550	0.480
2020/01/31 00:34:31.6	268.850	0.130	-0.540	0.480
2020/01/31 00:34:31.7	268.840	0.120	-0.540	0.490
2020/01/31 00:34:31.8	268.830	0.120	-0.540	0.490
2020/01/31 00:34:31.9	268.830	0.110	-0.540	0.500
2020/01/31 00:34:32.0	268.820	0.110	-0.530	0.510
2020/01/31 00:34:32.1	268.810	0.100	-0.530	0.520
2020/01/31 00:34:32.2	268.800	0.090	-0.520	0.530
2020/01/31 00:34:32.3	268.800	0.080	-0.520	0.540
2020/01/31 00:34:32.4	268.790	0.070	-0.510	0.550
2020/01/31 00:34:32.5	268.780	0.060	-0.510	0.560
2020/01/31 00:34:32.6	268.780	0.050	-0.500	0.570
2020/01/31 00:34:32.7	268.770	0.040	-0.490	0.590
2020/01/31 00:34:32.8	268.760	0.030	-0.480	0.600
2020/01/31 00:34:32.9	268.760	0.010	-0.480	0.610
2020/01/31 00:34:33.0	268.750	0.000	-0.470	0.630
2020/01/31 00:34:33.1	268.750	-0.020	-0.460	0.640
2020/01/31 00:34:33.2	268.740	-0.030	-0.440	0.660
2020/01/31 00:34:33.3	268.740	-0.050	-0.430	0.670
2020/01/31 00:34:33.4	268.730	-0.060	-0.420	0.690
2020/01/31 00:34:33.5	268.730	-0.080	-0.410	0.700
2020/01/31 00:34:33.6	268.730	-0.100	-0.390	0.720
2020/01/31 00:34:33.7	268.720	-0.120	-0.380	0.740
2020/01/31 00:34:33.8	268.720	-0.140	-0.360	0.750
2020/01/31 00:34:33.9	268.720	-0.150	-0.350	0.770
2020/01/31 00:34:34.0	268.710	-0.170	-0.330	0.790
2020/01/31 00:34:34.1	268.710	-0.190	-0.320	0.800
2020/01/31 00:34:34.2	268.710	-0.210	-0.300	0.820
2020/01/31 00:34:34.3	268.710	-0.220	-0.290	0.840
2020/01/31 00:34:34.4	268.710	-0.240	-0.270	0.860
2020/01/31 00:34:34.5	268.710	-0.250	-0.260	0.870
2020/01/31 00:34:34.6	268.710	-0.270	-0.240	0.890
2020/01/31 00:34:34.7	268.710	-0.280	-0.220	0.910
2020/01/31 00:34:34.8	268.710	-0.290	-0.210	0.920
2020/01/31 00:34:34.9	268.720	-0.300	-0.190	0.940
2020/01/31 00:34:35.0	268.730	-0.310	-0.170	0.960
2020/01/31 00:34:35.1	268.730	-0.320	-0.160	0.970
2020/01/31 00:34:35.2	268.730	-0.330	-0.140	0.980
2020/01/31 00:34:35.3	268.740	-0.340	-0.130	0.990
2020/01/31 00:34:35.4	268.750	-0.340	-0.110	1.010
2020/01/31 00:34:35.5	268.750	-0.340	-0.100	1.020
2020/01/31 00:34:35.6	268.760	-0.340	-0.090	1.030
2020/01/31 00:34:35.7	268.770	-0.340	-0.070	1.030
2020/01/31 00:34:35.8	268.780	-0.340	-0.060	1.040
2020/01/31 00:34:35.9	268.800	-0.340	-0.050	1.050
2020/01/31 00:34:36.0	268.810	-0.330	-0.040	1.050
2020/01/31 00:34:36.1	268.820	-0.330	-0.030	1.050
2020/01/31 00:34:36.2	268.830	-0.320	-0.020	1.060
2020/01/31 00:34:36.3	268.840	-0.310	-0.010	1.060
2020/01/31 00:34:36.4	268.850	-0.300	0.000	1.060
2020/01/31 00:34:36.5	268.860	-0.290	0.010	1.070
2020/01/31 00:34:36.6	268.870	-0.280	0.010	1.070
2020/01/31 00:34:36.7	268.880	-0.260	0.020	1.070
2020/01/31 00:34:36.8	268.890	-0.250	0.030	1.070
2020/01/31 00:34:36.9	268.890	-0.230	0.030	1.070
2020/01/31 00:34:37.0	268.900	-0.220	0.030	1.070
2020/01/31 00:34:37.1	268.910	-0.200	0.040	1.070
2020/01/31 00:34:37.2	268.920	-0.190	0.040	1.070
2020/01/31 00:34:37.3	268.920	-0.170	0.050	1.070
2020/01/31 00:34:37.4	268.930	-0.150	0.050	1.070
2020/01/31 00:34:37.5	268.940	-0.140	0.050	1.070
2020/01/31 00:34:37.6	268.940	-0.120	0.050	1.060
2020/01/31 00:34:37.7	268.950	-0.110	0.050	1.060
2020/01/31 00:34:37.8	268.950	-0.090	0.060	1.060
2020/01/31 00:34:37.9	268.950	-0.080	0.050	1.050
2020/01/31 00:34:38.0	268.960	-0.070	0.060	1.040
2020/01/31 00:34:38.1	268.960	-0.060	0.060	1.040
2020/01/31 00:34:38.2	268.960	-0.050	0.060	1.030
2020/01/31 00:34:38.3	268.970	-0.040	0.060	1.020
2020/01/31 00:34:38.4	268.970	-0.030	0.060	1.010
2020/01/31 00:34:38.5	268.980	-0.020	0.060	1.010
2020/01/31 00:34:38.6	268.980	-0.010	0.050	0.990
2020/01/31 00:34:38.7	268.990	-0.010	0.050	0.980
2020/01/31 00:34:38.8	268.990	-0.000	0.050	0.970
2020/01/31 00:34:38.9	268.990	-0.000	0.050	0.960
2020/01/31 00:34:39.0	269.000	0.000	0.050	0.940
2020/01/31 00:34:39.1	269.010	0.000	0.040	0.930
2020/01/31 00:34:39.2	269.010	0.010	0.040	0.910
2020/01/31 00:34:39.3	269.020	0.010	0.040	0.900
2020/01/31 00:34:39.4	269.030	0.010	0.030	0.880
2020/01/31 00:34:39.5	269.030	0.010	0.030	0.860
2020/01/31 00:34:39.6	269.040	0.010	0.020	0.840
2020/01/31 00:34:39.7	269.050	0.010	0.020	0.820
2020/01/31 00:34:39.8	269.060	0.010	0.010	0.800
2020/01/31 00:34:39.9	269.070	0.010	-0.000	0.780
2020/01/31 00:34:40.0	269.080	0.010	-0.010	0.770
2020/01/31 00:34:40.1	269.090	0.020	-0.020	0.750
2020/01/31 00:34:40.2	269.100	0.020	-0.040	0.730
2020/01/31 00:34:40.3	269.110	0.020	-0.050	0.710
2020/01/31 00:34:40.4	269.120	0.030	-0.070	0.690
2020/01/31 00:34:40.5	269.130	0.030	-0.080	0.680
2020/01/31 00:34:40.6	269.150	0.040	-0.100	0.670
2020/01/31 00:34:40.7	269.160	0.050	-0.120	0.650
2020/01/31 00:34:40.8	269.170	0.060	-0.140	0.640
2020/01/31 00:34:40.9	269.160	0.070	-0.170	0.630
2020/01/31 00:34:41.0	269.170	0.080	-0.190	0.630
2020/01/31 00:34:41.1	269.180	0.100	-0.220	0.620
2020/01/31 00:34:41.2	269.180	0.110	-0.250	0.620
2020/01/31 00:34:41.3	269.190	0.130	-0.280	0.620
2020/01/31 00:34:41.4	269.190	0.140	-0.310	0.630
2020/01/31 00:34:41.5	269.200	0.160	-0.350	0.640
2020/01/31 00:34:41.6	269.200	0.180	-0.380	0.650
2020/01/31 00:34:41.7	269.200	0.200	-0.420	0.660
2020/01/31 00:34:41.8	269.190	0.220	-0.450	0.680
2020/01/31 00:34:41.9	269.190	0.240	-0.490	0.700
2020/01/31 00:34:42.0	269.180	0.260	-0.530	0.720
2020/01/31 00:34:42.1	269.180	0.280	-0.560	0.740
2020/01/31 00:34:42.2	269.170	0.300	-0.600	0.770
2020/01/31 00:34:42.3	269.160	0.320	-0.630	0.800
2020/01/31 00:34:42.4	269.150	0.340	-0.660	0.820
2020/01/31 00:34:42.5	269.140	0.360	-0.700	0.850
2020/01/31 00:34:42.6	269.120	0.380	-0.730	0.880
2020/01/31 00:34:42.7	269.110	0.390	-0.760	0.910
2020/01/31 00:34:42.8	269.090	0.410	-0.780	0.940
2020/01/31 00:34:42.9	269.060	0.420	-0.810	0.970
2020/01/31 00:34:43.0	269.040	0.430	-0.830	1.000
2020/01/31 00:34:43.1	269.020	0.440	-0.850	1.030
2020/01/31 00:34:43.2	269.000	0.450	-0.860	1.050
2020/01/31 00:34:43.3	268.980	0.450	-0.880	1.080
2020/01/31 00:34:43.4	268.960	0.450	-0.890	1.100
2020/01/31 00:34:43.5	268.940	0.450	-0.900	1.120
2020/01/31 00:34:43.6	268.910	0.450	-0.900	1.140
2020/01/31 00:34:43.7	268.890	0.440	-0.910	1.160
2020/01/31 00:34:43.8	268.870	0.430	-0.910	1.180
2020/01/31 00:34:43.9	268.840	0.420	-0.900	1.190
2020/01/31 00:34:44.0	268.810	0.410	-0.900	1.200
2020/01/31 00:34:44.1	268.790	0.390	-0.890	1.210
2020/01/31 00:34:44.2	268.760	0.370	-0.890	1.220
2020/01/31 00:34:44.3	268.740	0.350	-0.880	1.220
2020/01/31 00:34:44.4	268.710	0.330	-0.860	1.220
2020/01/31 00:34:44.5	268.690	0.300	-0.850	1.220
2020/01/31 00:34:44.6	268.660	0.280	-0.830	1.210
2020/01/31 00:34:44.7	268.640	0.250	-0.820	1.200
2020/01/31 00:34:44.8	268.620	0.220	-0.800	1.190
2020/01/31 00:34:44.9	268.590	0.180	-0.780	1.180
2020/01/31 00:34:45.0	268.570	0.150	-0.760	1.160
2020/01/31 00:34:45.1	268.550	0.120	-0.740	1.140
2020/01/31 00:34:45.2	268.530	0.080	-0.720	1.110
2020/01/31 00:34:45.3	268.510	0.040	-0.690	1.090
2020/01/31 00:34:45.4	268.490	0.010	-0.670	1.060
2020/01/31 00:34:45.5	268.470	-0.030	-0.650	1.030
2020/01/31 00:34:45.6	268.450	-0.060	-0.620	1.000
2020/01/31 00:34:45.7	268.440	-0.100	-0.600	0.970
2020/01/31 00:34:45.8	268.420	-0.130	-0.570	0.940
2020/01/31 00:34:45.9	268.410	-0.170	-0.550	0.910
2020/01/31 00:34:46.0	268.400	-0.200	-0.520	0.880
2020/01/31 00:34:46.1	268.390	-0.240	-0.490	0.840
2020/01/31 00:34:46.2	268.380	-0.270	-0.470	0.810
2020/01/31 00:34:46.3	268.380	-0.300	-0.440	0.770
2020/01/31 00:34:46.4	268.370	-0.320	-0.420	0.740
2020/01/31 00:34:46.5	268.370	-0.350	-0.390	0.700
2020/01/31 00:34:46.6	268.370	-0.380	-0.370	0.670
2020/01/31 00:34:46.7	268.370	-0.400	-0.340	0.630
2020/01/31 00:34:46.8	268.370	-0.420	-0.320	0.600
2020/01/31 00:34:46.9	268.380	-0.440	-0.300	0.560
2020/01/31 00:34:47.0	268.380	-0.460	-0.270	0.530
2020/01/31 00:34:47.1	268.390	-0.470	-0.250	0.490
2020/01/31 00:34:47.2	268.400	-0.480	-0.230	0.460
2020/01/31 00:34:47.3	268.400	-0.500	-0.210	0.430
2020/01/31 00:34:47.4	268.410	-0.500	-0.190	0.400
2020/01/31 00:34:47.5	268.430	-0.510	-0.170	0.370
2020/01/31 00:34:47.6	268.440	-0.520	-0.150	0.340
2020/01/31 00:34:47.7	268.450	-0.520	-0.130	0.320
2020/01/31 00:34:47.8	268.460	-0.520	-0.120	0.300
2020/01/31 00:34:47.9	268.480	-0.520	-0.100	0.280
2020/01/31 00:34:48.0	268.490	-0.520	-0.080	0.260
2020/01/31 00:34:48.1	268.510	-0.520	-0.070	0.240
2020/01/31 00:34:48.2	268.530	-0.510	-0.060	0.230
2020/01/31 00:34:48.3	268.540	-0.510	-0.040	0.220
2020/01/31 00:34:48.4	268.560	-0.500	-0.030	0.220
2020/01/31 00:34:48.5	268.580	-0.490	-0.020	0.210
2020/01/31 00:34:48.6	268.600	-0.480	-0.010	0.210
2020/01/31 00:34:48.7	268.620	-0.470	0.000	0.220
2020/01/31 00:34:48.8	268.640	-0.460	0.010	0.220
2020/01/31 00:34:48.9	268.670	-0.450	0.020	0.240
2020/01/31 00:34:49.0	268.690	-0.430	0.030	0.250
2020/01/31 00:34:49.1	268.710	-0.420	0.040	0.270
2020/01/31 00:34:49.2	268.740	-0.400	0.050	0.290
2020/01/31 00:34:49.3	268.760	-0.390	0.060	0.310
2020/01/31 00:34:49.4	268.780	-0.370	0.060	0.330
2020/01/31 00:34:49.5	268.800	-0.350	0.070	0.360
2020/01/31 00:34:49.6	268.830	-0.340	0.080	0.390
2020/01/31 00:34:49.7	268.850	-0.320	0.090	0.420
2020/01/31 00:34:49.8	268.870	-0.300	0.100	0.460
2020/01/31 00:34:49.9	268.900	-0.290	0.100	0.490
2020/01/31 00:34:50.0	268.920	-0.270	0.110	0.520
2020/01/31 00:34:50.1	268.940	-0.250	0.120	0.560
2020/01/31 00:34:50.2	268.970	-0.230	0.120	0.600
2020/01/31 00:34:50.3	268.990	-0.220	0.130	0.640
2020/01/31 00:34:50.4	269.010	-0.200	0.140	0.670
2020/01/31 00:34:50.5	269.030	-0.180	0.140	0.710
2020/01/31 00:34:50.6	269.060	-0.160	0.150	0.750
2020/01/31 00:34:50.7	269.080	-0.150	0.150	0.790
2020/01/31 00:34:50.8	269.100	-0.130	0.150	0.830
2020/01/31 00:34:50.9	269.120	-0.110	0.160	0.870
2020/01/31 00:34:51.0	269.130	-0.090	0.160	0.910
2020/01/31 00:34:51.1	269.150	-0.070	0.160	0.950
2020/01/31 00:34:51.2	269.170	-0.050	0.160	0.990
2020/01/31 00:34:51.3	269.190	-0.030	0.150	1.040
2020/01/31 00:34:51.4	269.210	-0.010	0.150	1.080
2020/01/31 00:34:51.5	269.230	0.010	0.150	1.110
2020/01/31 00:34:51.6	269.240	0.030	0.140	1.150
2020/01/31 00:34:51.7	269.260	0.050	0.130	1.190
2020/01/31 00:34:51.8	269.270	0.070	0.120	1.220
2020/01/31 00:34:51.9	269.310	0.090	0.110	1.260
2020/01/31 00:34:52.0	269.320	0.110	0.100	1.290
2020/01/31 00:34:52.1	269.340	0.140	0.080	1.320
2020/01/31 00:34:52.2	269.350	0.160	0.070	1.350
2020/01/31 00:34:52.3	269.360	0.180	0.050	1.380
2020/01/31 00:34:52.4	269.380	0.200	0.030	1.410
2020/01/31 00:34:52.5	269.390	0.220	0.010	1.430
2020/01/31 00:34:52.6	269.400	0.250	-0.010	1.460
2020/01/31 00:34:52.7	269.410	0.270	-0.030	1.480
2020/01/31 00:34:52.8	269.420	0.290	-0.050	1.500
2020/01/31 00:34:52.9	269.440	0.310	-0.080	1.520
2020/01/31 00:34:53.0	269.440	0.330	-0.110	1.530
2020/01/31 00:34:53.1	269.450	0.350	-0.140	1.550
2020/01/31 00:34:53.2	269.460	0.370	-0.170	1.560
2020/01/31 00:34:53.3	269.460	0.390	-0.200	1.570
2020/01/31 00:34:53.4	269.470	0.400	-0.230	1.580
2020/01/31 00:34:53.5	269.470	0.420	-0.260	1.580
2020/01/31 00:34:53.6	269.480	0.430	-0.290	1.590
2020/01/31 00:34:53.7	269.480	0.450	-0.320	1.590
2020/01/31 00:34:53.8	269.480	0.460	-0.350	1.590
2020/01/31 00:34:53.9	269.460	0.470	-0.390	1.590
2020/01/31 00:34:54.0	269.460	0.480	-0.420	1.590
2020/01/31 00:34:54.1	269.450	0.490	-0.450	1.590
2020/01/31 00:34:54.2	269.450	0.500	-0.480	1.590
2020/01/31 00:34:54.3	269.440	0.500	-0.510	1.590
2020/01/31 00:34:54.4	269.430	0.500	-0.540	1.590
2020/01/31 00:34:54.5	269.410	0.500	-0.570	1.590
2020/01/31 00:34:54.6	269.400	0.500	-0.600	1.600
2020/01/31 00:34:54.7	269.380	0.500	-0.630	1.600
2020/01/31 00:34:54.8	269.370	0.500	-0.660	1.600
2020/01/31 00:34:54.9	269.340	0.500	-0.680	1.600
2020/01/31 00:34:55.0	269.320	0.490	-0.700	1.600
2020/01/31 00:34:55.1	269.300	0.480	-0.720	1.600
2020/01/31 00:34:55.2	269.280	0.470	-0.740	1.600
2020/01/31 00:34:55.3	269.250	0.460	-0.760	1.600
2020/01/31 00:34:55.4	269.230	0.450	-0.770	1.600
2020/01/31 00:34:55.5	269.200	0.430	-0.780	1.590
2020/01/31 00:34:55.6	269.180	0.420	-0.790	1.590
2020/01/31 00:34:55.7	269.150	0.400	-0.790	1.590
2020/01/31 00:34:55.8	269.120	0.380	-0.800	1.580
2020/01/31 00:34:55.9	269.110	0.360	-0.800	1.570
2020/01/31 00:34:56.0	269.080	0.340	-0.800	1.560
2020/01/31 00:34:56.1	269.050	0.320	-0.790	1.550
2020/01/31 00:34:56.2	269.030	0.300	-0.780	1.540
2020/01/31 00:34:56.3	269.000	0.280	-0.770	1.520
2020/01/31 00:34:56.4	268.970	0.250	-0.760	1.510
2020/01/31 00:34:56.5	268.940	0.230	-0.740	1.490
2020/01/31 00:34:56.6	268.920	0.210	-0.720	1.470
2020/01/31 00:34:56.7	268.890	0.180	-0.700	1.440
2020/01/31 00:34:56.8	268.860	0.160	-0.680	1.420
2020/01/31 00:34:56.9	268.830	0.140	-0.660	1.390
2020/01/31 00:34:57.0	268.800	0.120	-0.630	1.360
2020/01/31 00:34:57.1	268.770	0.090	-0.610	1.330
2020/01/31 00:34:57.2	268.740	0.070	-0.580	1.290
2020/01/31 00:34:57.3	268.720	0.050	-0.550	1.260
2020/01/31 00:34:57.4	268.690	0.030	-0.530	1.220
2020/01/31 00:34:57.5	268.660	0.010	-0.500	1.180
2020/01/31 00:34:57.6	268.630	-0.010	-0.470	1.140
2020/01/31 00:34:57.7	268.610	-0.030	-0.450	1.100
2020/01/31 00:34:57.8	268.580	-0.040	-0.420	1.060
2020/01/31 00:34:57.9	268.560	-0.060	-0.390	1.020
2020/01/31 00:34:58.0	268.540	-0.070	-0.370	0.970
2020/01/31 00:34:58.1	268.510	-0.090	-0.350	0.930
2020/01/31 00:34:58.2	268.490	-0.100	-0.330	0.880
2020/01/31 00:34:58.3	268.470	-0.110	-0.310	0.840
2020/01/31 00:34:58.4	268.450	-0.120	-0.290	0.790
2020/01/31 00:34:58.5	268.430	-0.130	-0.280	0.750
2020/01/31 00:34:58.6	268.410	-0.140	-0.260	0.700
2020/01/31 00:34:58.7	268.390	-0.150	-0.250	0.660
2020/01/31 00:34:58.8	268.370	-0.150	-0.240	0.620
2020/01/31 00:34:58.9	268.350	-0.160	-0.230	0.580
2020/01/31 00:34:59.0	268.340	-0.170	-0.220	0.540
2020/01/31 00:34:59.1	268.320	-0.170	-0.220	0.500
2020/01/31 00:34:59.2	268.300	-0.180	-0.220	0.470
2020/01/31 00:34:59.3	268.290	-0.180	-0.210	0.430
2020/01/31 00:34:59.4	268.270	-0.180	-0.210	0.400
2020/01/31 00:34:59.5	268.260	-0.190	-0.210	0.370
2020/01/31 00:34:59.6	268.250	-0.190	-0.210	0.350
2020/01/31 00:34:59.7	268.230	-0.190	-0.220	0.320
2020/01/31 00:34:59.8	268.220	-0.200	-0.220	0.300
2020/01/31 00:34:59.9	268.210	-0.200	-0.220	0.280
2020/01/31 00:35:00.0	268.200	-0.200	-0.220	0.270
2020/01/31 00:35:00.1	268.190	-0.210	-0.230	0.260
2020/01/31 00:35:00.2	268.180	-0.210	-0.230	0.250
2020/01/31 00:35:00.3	268.160	-0.210	-0.240	0.240
2020/01/31 00:35:00.4	268.160	-0.220	-0.240	0.240
2020/01/31 00:35:00.5	268.140	-0.220	-0.240	0.240
2020/01/31 00:35:00.6	268.140	-0.230	-0.250	0.240
2020/01/31 00:35:00.7	268.130	-0.230	-0.250	0.250
2020/01/31 00:35:00.8	268.120	-0.240	-0.260	0.250
2020/01/31 00:35:00.9	268.100	-0.240	-0.260	0.270
2020/01/31 00:35:01.0	268.100	-0.250	-0.270	0.280
2020/01/31 00:35:01.1	268.100	-0.260	-0.270	0.290
2020/01/31 00:35:01.2	268.100	-0.260	-0.270	0.300
2020/01/31 00:35:01.3	268.100	-0.270	-0.270	0.320
2020/01/31 00:35:01.4	268.100	-0.270	-0.270	0.340
2020/01/31 00:35:01.5	268.100	-0.280	-0.270	0.350
2020/01/31 00:35:01.6	268.110	-0.290	-0.270	0.370
2020/01/31 00:35:01.7	268.110	-0.290	-0.270	0.390
2020/01/31 00:35:01.8	268.120	-0.300	-0.270	0.410
2020/01/31 00:35:01.9	268.130	-0.300	-0.270	0.430
2020/01/31 00:35:02.0	268.150	-0.300	-0.270	0.450
2020/01/31 00:35:02.1	268.160	-0.310	-0.270	0.460
2020/01/31 00:35:02.2	268.180	-0.310	-0.270	0.480
2020/01/31 00:35:02.3	268.200	-0.310	-0.270	0.500
2020/01/31 00:35:02.4	268.220	-0.310	-0.270	0.520
2020/01/31 00:35:02.5	268.250	-0.310	-0.270	0.540
2020/01/31 00:35:02.6	268.270	-0.310	-0.260	0.570
2020/01/31 00:35:02.7	268.300	-0.300	-0.260	0.590
2020/01/31 00:35:02.8	268.330	-0.300	-0.260	0.610
2020/01/31 00:35:02.9	268.360	-0.290	-0.270	0.630
2020/01/31 00:35:03.0	268.390	-0.280	-0.270	0.660
2020/01/31 00:35:03.1	268.420	-0.270	-0.270	0.680
2020/01/31 00:35:03.2	268.450	-0.260	-0.270	0.700
2020/01/31 00:35:03.3	268.490	-0.250	-0.270	0.730
2020/01/31 00:35:03.4	268.520	-0.240	-0.270	0.750
2020/01/31 00:35:03.5	268.550	-0.230	-0.270	0.780
2020/01/31 00:35:03.6	268.590	-0.210	-0.270	0.800
2020/01/31 00:35:03.7	268.620	-0.190	-0.280	0.830
2020/01/31 00:35:03.8	268.660	-0.180	-0.280	0.850
2020/01/31 00:35:03.9	268.700	-0.160	-0.270	0.880
2020/01/31 00:35:04.0	268.730	-0.140	-0.280	0.910
2020/01/31 00:35:04.1	268.760	-0.120	-0.280	0.940
2020/01/31 00:35:04.2	268.800	-0.100	-0.280	0.970
2020/01/31 00:35:04.3	268.830	-0.080	-0.280	1.000
2020/01/31 00:35:04.4	268.860	-0.060	-0.280	1.030
2020/01/31 00:35:04.5	268.890	-0.030	-0.290	1.060
2020/01/31 00:35:04.6	268.920	-0.010	-0.290	1.100
2020/01/31 00:35:04.7	268.950	0.010	-0.290	1.130
2020/01/31 00:35:04.8	268.980	0.030	-0.290	1.160
2020/01/31 00:35:04.9	269.020	0.050	-0.290	1.190
2020/01/31 00:35:05.0	269.040	0.070	-0.290	1.230
2020/01/31 00:35:05.1	269.070	0.090	-0.290	1.270
2020/01/31 00:35:05.2	269.090	0.110	-0.290	1.300
2020/01/31 00:35:05.3	269.110	0.120	-0.290	1.340
2020/01/31 00:35:05.4	269.130	0.140	-0.280	1.380
2020/01/31 00:35:05.5	269.140	0.150	-0.280	1.420
2020/01/31 00:35:05.6	269.160	0.160	-0.280	1.470
2020/01/31 00:35:05.7	269.170	0.170	-0.280	1.510
2020/01/31 00:35:05.8	269.180	0.180	-0.270	1.550
2020/01/31 00:35:05.9	269.190	0.190	-0.270	1.590
2020/01/31 00:35:06.0	269.200	0.200	-0.270	1.640
2020/01/31 00:35:06.1	269.200	0.200	-0.270	1.680
2020/01/31 00:35:06.2	269.200	0.200	-0.260	1.720
2020/01/31 00:35:06.3	269.200	0.200	-0.260	1.760
2020/01/31 00:35:06.4	269.190	0.200	-0.260	1.800
2020/01/31 00:35:06.5	269.180	0.190	-0.260	1.840
2020/01/31 00:35:06.6	269.170	0.190	-0.260	1.870
2020/01/31 00:35:06.7	269.160	0.180	-0.260	1.910
2020/01/31 00:35:06.8	269.140	0.170	-0.250	1.940
2020/01/31 00:35:06.9	269.130	0.160	-0.250	1.970
2020/01/31 00:35:07.0	269.110	0.150	-0.250	1.990
2020/01/31 00:35:07.1	269.080	0.130	-0.250	2.020
2020/01/31 00:35:07.2	269.060	0.120	-0.250	2.040
2020/01/31 00:35:07.3	269.030	0.110	-0.260	2.060
2020/01/31 00:35:07.4	269.000	0.090	-0.260	2.070
2020/01/31 00:35:07.5	268.970	0.070	-0.260	2.090
2020/01/31 00:35:07.6	268.940	0.060	-0.260	2.100
2020/01/31 00:35:07.7	268.900	0.040	-0.260	2.100
2020/01/31 00:35:07.8	268.870	0.030	-0.270	2.110
2020/01/31 00:35:07.9	268.820	0.010	-0.270	2.110
2020/01/31 00:35:08.0	268.780	-0.010	-0.280	2.110
2020/01/31 00:35:08.1	268.740	-0.020	-0.280	2.100
2020/01/31 00:35:08.2	268.700	-0.040	-0.290	2.090
2020/01/31 00:35:08.3	268.670	-0.050	-0.290	2.080
2020/01/31 00:35:08.4	268.630	-0.060	-0.300	2.070
2020/01/31 00:35:08.5	268.590	-0.070	-0.300	2.050
2020/01/31 00:35:08.6	268.550	-0.080	-0.310	2.030
2020/01/31 00:35:08.7	268.510	-0.090	-0.320	2.010
2020/01/31 00:35:08.8	268.470	-0.100	-0.320	1.990
2020/01/31 00:35:08.9	268.430	-0.110	-0.330	1.960
2020/01/31 00:35:09.0	268.390	-0.110	-0.340	1.940
2020/01/31 00:35:09.1	268.360	-0.120	-0.340	1.910
2020/01/31 00:35:09.2	268.320	-0.120	-0.350	1.880
2020/01/31 00:35:09.3	268.290	-0.120	-0.350	1.850
2020/01/31 00:35:09.4	268.250	-0.120	-0.360	1.820
2020/01/31 00:35:09.5	268.220	-0.110	-0.370	1.780
2020/01/31 00:35:09.6	268.190	-0.110	-0.370	1.750
2020/01/31 00:35:09.7	268.160	-0.100	-0.380	1.710
2020/01/31 00:35:09.8	268.140	-0.100	-0.380	1.680
2020/01/31 00:35:09.9	268.100	-0.090	-0.390	1.640
2020/01/31 00:35:10.0	268.080	-0.080	-0.390	1.600
2020/01/31 00:35:10.1	268.060	-0.070	-0.390	1.570
2020/01/31 00:35:10.2	268.040	-0.060	-0.390	1.530
2020/01/31 00:35:10.3	268.020	-0.050	-0.380	1.490
2020/01/31 00:35:10.4	268.010	-0.040	-0.380	1.450
2020/01/31 00:35:10.5	268.000	-0.030	-0.370	1.410
2020/01/31 00:35:10.6	267.980	-0.010	-0.370	1.370
2020/01/31 00:35:10.7	267.970	-0.000	-0.360	1.330
2020/01/31 00:35:10.8	267.970	0.010	-0.350	1.280
2020/01/31 00:35:10.9	267.950	0.020	-0.330	1.240
2020/01/31 00:35:11.0	267.950	0.040	-0.320	1.200
2020/01/31 00:35:11.1	267.940	0.050	-0.300	1.160
2020/01/31 00:35:11.2	267.940	0.060	-0.290	1.110
2020/01/31 00:35:11.3	267.940	0.070	-0.270	1.070
2020/01/31 00:35:11.4	267.950	0.080	-0.250	1.030
2020/01/31 00:35:11.5	267.950	0.090	-0.230	0.990
2020/01/31 00:35:11.6	267.960	0.100	-0.210	0.950
2020/01/31 00:35:11.7	267.960	0.110	-0.190	0.910
2020/01/31 00:35:11.8	267.970	0.120	-0.170	0.860
2020/01/31 00:35:11.9	267.980	0.120	-0.140	0.830
2020/01/31 00:35:12.0	267.990	0.130	-0.120	0.790
2020/01/31 00:35:12.1	268.000	0.130	-0.100	0.750
2020/01/31 00:35:12.2	268.020	0.140	-0.070	0.710
2020/01/31 00:35:12.3	268.030	0.140	-0.050	0.670
2020/01/31 00:35:12.4	268.050	0.150	-0.030	0.630
2020/01/31 00:35:12.5	268.070	0.150	-0.010	0.600
2020/01/31 00:35:12.6	268.080	0.150	0.010	0.570
2020/01/31 00:35:12.7	268.100	0.150	0.030	0.540
2020/01/31 00:35:12.8	268.120	0.150	0.050	0.510
2020/01/31 00:35:12.9	268.120	0.150	0.060	0.480
2020/01/31 00:35:13.0	268.140	0.150	0.070	0.460
2020/01/31 00:35:13.1	268.160	0.150	0.080	0.430
2020/01/31 00:35:13.2	268.180	0.150	0.090	0.410
2020/01/31 00:35:13.3	268.200	0.150	0.100	0.400
2020/01/31 00:35:13.4	268.220	0.140	0.100	0.380
2020/01/31 00:35:13.5	268.240	0.140	0.100	0.370
2020/01/31 00:35:13.6	268.250	0.140	0.100	0.360
2020/01/31 00:35:13.7	268.270	0.140	0.090	0.360
2020/01/31 00:35:13.8	268.290	0.140	0.090	0.350
2020/01/31 00:35:13.9	268.300	0.140	0.080	0.350
2020/01/31 00:35:14.0	268.320	0.140	0.060	0.360
2020/01/31 00:35:14.1	268.340	0.140	0.040	0.360
2020/01/31 00:35:14.2	268.350	0.140	0.020	0.370
2020/01/31 00:35:14.3	268.370	0.150	0.000	0.380
2020/01/31 00:35:14.4	268.390	0.150	-0.030	0.400
2020/01/31 00:35:14.5	268.400	0.160	-0.050	0.410
2020/01/31 00:35:14.6	268.420	0.160	-0.090	0.430
2020/01/31 00:35:14.7	268.430	0.170	-0.120	0.450
2020/01/31 00:35:14.8	268.440	0.170	-0.150	0.470
2020/01/31 00:35:14.9	268.460	0.180	-0.190	0.500
2020/01/31 00:35:15.0	268.470	0.190	-0.230	0.520
2020/01/31 00:35:15.1	268.480	0.200	-0.270	0.550
2020/01/31 00:35:15.2	268.490	0.210	-0.310	0.580
2020/01/31 00:35:15.3	268.510	0.220	-0.350	0.610
2020/01/31 00:35:15.4	268.520	0.230	-0.390	0.640
2020/01/31 00:35:15.5	268.520	0.240	-0.430	0.670
2020/01/31 00:35:15.6	268.530	0.250	-0.460	0.700
2020/01/31 00:35:15.7	268.540	0.260	-0.500	0.730
2020/01/31 00:35:15.8	268.550	0.270	-0.540	0.770
2020/01/31 00:35:15.9	268.550	0.280	-0.580	0.800
2020/01/31 00:35:16.0	268.560	0.290	-0.610	0.840
2020/01/31 00:35:16.1	268.560	0.300	-0.640	0.870
2020/01/31 00:35:16.2	268.560	0.300	-0.670	0.910
2020/01/31 00:35:16.3	268.570	0.310	-0.700	0.950
2020/01/31 00:35:16.4	268.570	0.320	-0.730	0.980
2020/01/31 00:35:16.5	268.570	0.320	-0.760	1.020
2020/01/31 00:35:16.6	268.570	0.330	-0.780	1.060
2020/01/31 00:35:16.7	268.570	0.330	-0.800	1.100
2020/01/31 00:35:16.8	268.570	0.330	-0.820	1.130
2020/01/31 00:35:16.9	268.580	0.330	-0.840	1.170
2020/01/31 00:35:17.0	268.580	0.330	-0.850	1.210
2020/01/31 00:35:17.1	268.570	0.330	-0.860	1.240
2020/01/31 00:35:17.2	268.570	0.320	-0.860	1.280
2020/01/31 00:35:17.3	268.570	0.320	-0.870	1.310
2020/01/31 00:35:17.4	268.570	0.310	-0.870	1.340
2020/01/31 00:35:17.5	268.570	0.300	-0.870	1.370
2020/01/31 00:35:17.6	268.560	0.290	-0.860	1.390
2020/01/31 00:35:17.7	268.560	0.280	-0.860	1.410
2020/01/31 00:35:17.8	268.560	0.260	-0.850	1.430
2020/01/31 00:35:17.9	268.560	0.250	-0.830	1.450
2020/01/31 00:35:18.0	268.560	0.230	-0.820	1.460
2020/01/31 00:35:18.1	268.550	0.210	-0.800	1.470
2020/01/31 00:35:18.2	268.550	0.190	-0.780	1.480
2020/01/31 00:35:18.3	268.550	0.170	-0.770	1.480
2020/01/31 00:35:18.4	268.550	0.140	-0.740	1.480
2020/01/31 00:35:18.5	268.550	0.120	-0.720	1.480
2020/01/31 00:35:18.6	268.550	0.100	-0.700	1.470
2020/01/31 00:35:18.7	268.550	0.070	-0.670	1.470
2020/01/31 00:35:18.8	268.550	0.040	-0.650	1.460
2020/01/31 00:35:18.9	268.560	0.020	-0.620	1.440
2020/01/31 00:35:19.0	268.560	-0.010	-0.600	1.430
2020/01/31 00:35:19.1	268.570	-0.040	-0.570	1.410
2020/01/31 00:35:19.2	268.570	-0.070	-0.550	1.390
2020/01/31 00:35:19.3	268.570	-0.100	-0.520	1.370
2020/01/31 00:35:19.4	268.570	-0.120	-0.490	1.350
2020/01/31 00:35:19.5	268.570	-0.150	-0.470	1.330
2020/01/31 00:35:19.6	268.570	-0.180	-0.440	1.310
2020/01/31 00:35:19.7	268.570	-0.210	-0.410	1.280
2020/01/31 00:35:19.8	268.570	-0.240	-0.390	1.260
2020/01/31 00:35:19.9	268.570	-0.260	-0.360	1.240
2020/01/31 00:35:20.0	268.570	-0.290	-0.340	1.210
2020/01/31 00:35:20.1	268.580	-0.310	-0.310	1.190
2020/01/31 00:35:20.2	268.580	-0.340	-0.290	1.170
2020/01/31 00:35:20.3	268.590	-0.360	-0.260	1.140
2020/01/31 00:35:20.4	268.600	-0.380	-0.240	1.120
2020/01/31 00:35:20.5	268.610	-0.400	-0.220	1.090
2020/01/31 00:35:20.6	268.620	-0.420	-0.200	1.070
2020/01/31 00:35:20.7	268.630	-0.440	-0.180	1.050
2020/01/31 00:35:20.8	268.640	-0.450	-0.160	1.020
2020/01/31 00:35:20.9	268.650	-0.470	-0.140	0.990
2020/01/31 00:35:21.0	268.670	-0.480	-0.120	0.970
2020/01/31 00:35:21.1	268.680	-0.490	-0.110	0.950
2020/01/31 00:35:21.2	268.700	-0.500	-0.090	0.920
2020/01/31 00:35:21.3	268.710	-0.510	-0.070	0.900
2020/01/31 00:35:21.4	268.730	-0.510	-0.060	0.880
2020/01/31 00:35:21.5	268.750	-0.520	-0.050	0.860
2020/01/31 00:35:21.6	268.770	-0.520	-0.030	0.830
2020/01/31 00:35:21.7	268.790	-0.520	-0.020	0.810
2020/01/31 00:35:21.8	268.810	-0.520	-0.010	0.790
2020/01/31 00:35:21.9	268.840	-0.520	-0.000	0.780
2020/01/31 00:35:22.0	268.860	-0.510	0.010	0.760
2020/01/31 00:35:22.1	268.880	-0.510	0.010	0.740
2020/01/31 00:35:22.2	268.900	-0.500	0.020	0.720
2020/01/31 00:35:22.3	268.920	-0.490	0.030	0.710
2020/01/31 00:35:22.4	268.950	-0.480	0.040	0.690
2020/01/31 00:35:22.5	268.970	-0.470	0.040	0.680
2020/01/31 00:35:22.6	268.990	-0.460	0.050	0.660
2020/01/31 00:35:22.7	269.010	-0.440	0.050	0.650
2020/01/31 00:35:22.8	269.030	-0.430	0.050	0.640
2020/01/31 00:35:22.9	269.040	-0.410	0.060	0.630
2020/01/31 00:35:23.0	269.060	-0.400	0.060	0.620
2020/01/31 00:35:23.1	269.080	-0.380	0.060	0.620
2020/01/31 00:35:23.2	269.100	-0.360	0.050	0.610
2020/01/31 00:35:23.3	269.120	-0.340	0.050	0.610
2020/01/31 00:35:23.4	269.140	-0.320	0.050	0.600
2020/01/31 00:35:23.5	269.150	-0.300	0.040	0.600
2020/01/31 00:35:23.6	269.170	-0.280	0.040	0.600
2020/01/31 00:35:23.7	269.190	-0.260	0.030	0.600
2020/01/31 00:35:23.8	269.210	-0.240	0.030	0.600
2020/01/31 00:35:23.9	269.220	-0.220	0.020	0.600
2020/01/31 00:35:24.0	269.240	-0.200	0.010	0.610
2020/01/31 00:35:24.1	269.260	-0.180	0.000	0.610
2020/01/31 00:35:24.2	269.270	-0.160	-0.010	0.610
2020/01/31 00:35:24.3	269.290	-0.140	-0.020	0.620
2020/01/31 00:35:24.4	269.300	-0.120	-0.030	0.630
2020/01/31 00:35:24.5	269.310	-0.100	-0.040	0.630
2020/01/31 00:35:24.6	269.320	-0.080	-0.060	0.640
2020/01/31 00:35:24.7	269.330	-0.060	-0.070	0.650
2020/01/31 00:35:24.8	269.340	-0.040	-0.090	0.660
2020/01/31 00:35:24.9	269.360	-0.020	-0.100	0.670
2020/01/31 00:35:25.0	269.360	-0.000	-0.120	0.690
2020/01/31 00:35:25.1	269.370	0.010	-0.140	0.700
2020/01/31 00:35:25.2	269.370	0.030	-0.160	0.720
2020/01/31 00:35:25.3	269.370	0.040	-0.180	0.740
2020/01/31 00:35:25.4	269.360	0.060	-0.210	0.750
2020/01/31 00:35:25.5	269.360	0.070	-0.230	0.770
2020/01/31 00:35:25.6	269.350	0.080	-0.260	0.790
2020/01/31 00:35:25.7	269.340	0.100	-0.280	0.810
2020/01/31 00:35:25.8	269.330	0.110	-0.310	0.840
2020/01/31 00:35:25.9	269.310	0.120	-0.340	0.860
2020/01/31 00:35:26.0	269.300	0.130	-0.370	0.880
2020/01/31 00:35:26.1	269.280	0.140	-0.390	0.910
2020/01/31 00:35:26.2	269.270	0.140	-0.420	0.930
2020/01/31 00:35:26.3	269.240	0.150	-0.450	0.960
2020/01/31 00:35:26.4	269.220	0.160	-0.470	0.980
2020/01/31 00:35:26.5	269.200	0.160	-0.500	1.010
2020/01/31 00:35:26.6	269.170	0.170	-0.520	1.030
2020/01/31 00:35:26.7	269.140	0.170	-0.550	1.060
2020/01/31 00:35:26.8	269.110	0.170	-0.570	1.080
2020/01/31 00:35:26.9	269.080	0.170	-0.590	1.110
2020/01/31 00:35:27.0	269.050	0.170	-0.620	1.130
2020/01/31 00:35:27.1	269.010	0.170	-0.630	1.160
2020/01/31 00:35:27.2	268.980	0.170	-0.650	1.180
2020/01/31 00:35:27.3	268.940	0.170	-0.670	1.200
2020/01/31 00:35:27.4	268.900	0.170	-0.680	1.230
2020/01/31 00:35:27.5	268.860	0.170	-0.690	1.250
2020/01/31 00:35:27.6	268.810	0.160	-0.700	1.270
2020/01/31 00:35:27.7	268.770	0.160	-0.710	1.290
2020/01/31 00:35:27.8	268.720	0.150	-0.710	1.310
2020/01/31 00:35:27.9	268.660	0.140	-0.710	1.330
2020/01/31 00:35:28.0	268.610	0.140	-0.710	1.340
2020/01/31 00:35:28.1	268.570	0.130	-0.700	1.360
2020/01/31 00:35:28.2	268.520	0.120	-0.700	1.370
2020/01/31 00:35:28.3	268.470	0.110	-0.690	1.390
2020/01/31 00:35:28.4	268.420	0.100	-0.670	1.400
2020/01/31 00:35:28.5	268.360	0.090	-0.660	1.410
2020/01/31 00:35:28.6	268.310	0.080	-0.640	1.420
2020/01/31 00:35:28.7	268.260	0.060	-0.620	1.430
2020/01/31 00:35:28.8	268.210	0.050	-0.600	1.440
2020/01/31 00:35:28.9	268.150	0.040	-0.570	1.440
2020/01/31 00:35:29.0	268.100	0.030	-0.550	1.440
2020/01/31 00:35:29.1	268.050	0.010	-0.520	1.450
2020/01/31 00:35:29.2	268.000	-0.000	-0.490	1.450
2020/01/31 00:35:29.3	267.940	-0.010	-0.460	1.450
2020/01/31 00:35:29.4	267.890	-0.030	-0.430	1.450
2020/01/31 00:35:29.5	267.850	-0.040	-0.400	1.450
2020/01/31 00:35:29.6	267.800	-0.050	-0.360	1.440
2020/01/31 00:35:29.7	267.750	-0.060	-0.330	1.440
2020/01/31 00:35:29.8	267.710	-0.070	-0.300	1.430
2020/01/31 00:35:29.9	267.680	-0.080	-0.270	1.430
2020/01/31 00:35:30.0	267.640	-0.090	-0.240	1.420
2020/01/31 00:35:30.1	267.610	-0.100	-0.200	1.410
2020/01/31 00:35:30.2	267.570	-0.110	-0.170	1.400
2020/01/31 00:35:30.3	267.550	-0.110	-0.140	1.390
2020/01/31 00:35:30.4	267.520	-0.120	-0.120	1.380
2020/01/31 00:35:30.5	267.500	-0.120	-0.090	1.370
2020/01/31 00:35:30.6	267.480	-0.130	-0.060	1.350
2020/01/31 00:35:30.7	267.460	-0.130	-0.040	1.340
2020/01/31 00:35:30.8	267.450	-0.130	-0.020	1.330
2020/01/31 00:35:30.9	267.420	-0.130	0.010	1.310
2020/01/31 00:35:31.0	267.420	-0.120	0.030	1.300
2020/01/31 00:35:31.1	267.410	-0.120	0.040	1.280
2020/01/31 00:35:31.2	267.410	-0.110	0.060	1.270
2020/01/31 00:35:31.3	267.410	-0.110	0.070	1.250
2020/01/31 00:35:31.4	267.410	-0.100	0.080	1.230
2020/01/31 00:35:31.5	267.420	-0.090	0.090	1.210
2020/01/31 00:35:31.6	267.430	-0.080	0.100	1.200
2020/01/31 00:35:31.7	267.440	-0.060	0.100	1.180
2020/01/31 00:35:31.8	267.460	-0.050	0.110	1.160
2020/01/31 00:35:31.9	267.490	-0.040	0.110	1.140
2020/01/31 00:35:32.0	267.520	-0.020	0.110	1.120
2020/01/31 00:35:32.1	267.540	-0.010	0.110	1.100
2020/01/31 00:35:32.2	267.570	0.010	0.110	1.080
2020/01/31 00:35:32.3	267.600	0.030	0.110	1.060
2020/01/31 00:35:32.4	267.640	0.040	0.110	1.030
2020/01/31 00:35:32.5	267.680	0.060	0.110	1.010
2020/01/31 00:35:32.6	267.720	0.080	0.110	0.990
2020/01/31 00:35:32.7	267.770	0.100	0.100	0.960
2020/01/31 00:35:32.8	267.820	0.110	0.100	0.940
2020/01/31 00:35:32.9	267.870	0.130	0.090	0.920
2020/01/31 00:35:33.0	267.930	0.150	0.090	0.900
2020/01/31 00:35:33.1	267.980	0.160	0.090	0.870
2020/01/31 00:35:33.2	268.040	0.180	0.080	0.850
2020/01/31 00:35:33.3	268.100	0.200	0.080	0.830
2020/01/31 00:35:33.4	268.160	0.210	0.080	0.810
2020/01/31 00:35:33.5	268.220	0.220	0.080	0.780
2020/01/31 00:35:33.6	268.280	0.240	0.070	0.760
2020/01/31 00:35:33.7	268.340	0.250	0.070	0.740
2020/01/31 00:35:33.8	268.400	0.260	0.060	0.720
2020/01/31 00:35:33.9	268.460	0.270	0.060	0.700
2020/01/31 00:35:34.0	268.520	0.280	0.050	0.680
2020/01/31 00:35:34.1	268.580	0.280	0.040	0.670
2020/01/31 00:35:34.2	268.640	0.290	0.030	0.650
2020/01/31 00:35:34.3	268.700	0.300	0.020	0.640
2020/01/31 00:35:34.4	268.760	0.300	0.010	0.620
2020/01/31 00:35:34.5	268.820	0.300	-0.000	0.610
2020/01/31 00:35:34.6	268.870	0.310	-0.020	0.600
2020/01/31 00:35:34.7	268.920	0.310	-0.030	0.590
2020/01/31 00:35:34.8	268.980	0.310	-0.050	0.580
2020/01/31 00:35:34.9	269.040	0.310	-0.080	0.570
2020/01/31 00:35:35.0	269.090	0.300	-0.100	0.560
2020/01/31 00:35:35.1	269.130	0.300	-0.120	0.550
2020/01/31 00:35:35.2	269.180	0.300	-0.150	0.550
2020/01/31 00:35:35.3	269.220	0.290	-0.180	0.540
2020/01/31 00:35:35.4	269.270	0.290	-0.210	0.540
2020/01/31 00:35:35.5	269.310	0.280	-0.240	0.540
2020/01/31 00:35:35.6	269.350	0.280	-0.280	0.540
2020/01/31 00:35:35.7	269.390	0.270	-0.310	0.540
2020/01/31 00:35:35.8	269.420	0.260	-0.350	0.540
2020/01/31 00:35:35.9	269.450	0.260	-0.390	0.540
2020/01/31 00:35:36.0	269.490	0.250	-0.430	0.550
2020/01/31 00:35:36.1	269.520	0.240	-0.470	0.560
2020/01/31 00:35:36.2	269.550	0.240	-0.510	0.560
2020/01/31 00:35:36.3	269.580	0.230	-0.550	0.570
2020/01/31 00:35:36.4	269.610	0.220	-0.590	0.590
2020/01/31 00:35:36.5	269.640	0.220	-0.640	0.600
2020/01/31 00:35:36.6	269.670	0.210	-0.680	0.620
2020/01/31 00:35:36.7	269.690	0.200	-0.720	0.640
2020/01/31 00:35:36.8	269.710	0.190	-0.760	0.660
2020/01/31 00:35:36.9	269.720	0.190	-0.800	0.680
2020/01/31 00:35:37.0	269.740	0.180	-0.840	0.700
2020/01/31 00:35:37.1	269.760	0.180	-0.880	0.730
2020/01/31 00:35:37.2	269.770	0.170	-0.910	0.760
2020/01/31 00:35:37.3	269.790	0.170	-0.950	0.790
2020/01/31 00:35:37.4	269.800	0.160	-0.980	0.820
2020/01/31 00:35:37.5	269.810	0.150	-1.010	0.860
2020/01/31 00:35:37.6	269.820	0.150	-1.040	0.890
2020/01/31 00:35:37.7	269.830	0.140	-1.070	0.930
2020/01/31 00:35:37.8	269.830	0.140	-1.100	0.960
2020/01/31 00:35:37.9	269.840	0.130	-1.120	0.990
2020/01/31 00:35:38.0	269.840	0.130	-1.140	1.030
2020/01/31 00:35:38.1	269.830	0.120	-1.160	1.060
2020/01/31 00:35:38.2	269.820	0.120	-1.180	1.100
2020/01/31 00:35:38.3	269.810	0.110	-1.190	1.130
2020/01/31 00:35:38.4	269.800	0.100	-1.200	1.170
2020/01/31 00:35:38.5	269.780	0.100	-1.210	1.200
2020/01/31 00:35:38.6	269.760	0.090	-1.210	1.240
2020/01/31 00:35:38.7	269.740	0.080	-1.210	1.270
2020/01/31 00:35:38.8	269.710	0.070	-1.210	1.300
2020/01/31 00:35:38.9	269.680	0.060	-1.200	1.330
2020/01/31 00:35:39.0	269.650	0.050	-1.190	1.360
2020/01/31 00:35:39.1	269.620	0.040	-1.180	1.390
2020/01/31 00:35:39.2	269.580	0.030	-1.160	1.420
2020/01/31 00:35:39.3	269.550	0.010	-1.140	1.440
2020/01/31 00:35:39.4	269.510	0.000	-1.120	1.470
2020/01/31 00:35:39.5	269.470	-0.010	-1.090	1.490
2020/01/31 00:35:39.6	269.430	-0.030	-1.060	1.510
2020/01/31 00:35:39.7	269.380	-0.050	-1.030	1.530
2020/01/31 00:35:39.8	269.340	-0.070	-0.990	1.550
2020/01/31 00:35:39.9	269.280	-0.090	-0.960	1.560
2020/01/31 00:35:40.0	269.240	-0.110	-0.910	1.580
2020/01/31 00:35:40.1	269.190	-0.130	-0.870	1.590
2020/01/31 00:35:40.2	269.150	-0.160	-0.820	1.590
2020/01/31 00:35:40.3	269.100	-0.180	-0.770	1.600
2020/01/31 00:35:40.4	269.050	-0.210	-0.720	1.600
2020/01/31 00:35:40.5	269.000	-0.240	-0.670	1.600
2020/01/31 00:35:40.6	268.960	-0.260	-0.610	1.600
2020/01/31 00:35:40.7	268.910	-0.290	-0.560	1.590
2020/01/31 00:35:40.8	268.860	-0.320	-0.500	1.590
2020/01/31 00:35:40.9	268.820	-0.350	-0.440	1.580
2020/01/31 00:35:41.0	268.770	-0.380	-0.380	1.570
2020/01/31 00:35:41.1	268.720	-0.410	-0.320	1.560
2020/01/31 00:35:41.2	268.670	-0.440	-0.260	1.540
2020/01/31 00:35:41.3	268.630	-0.470	-0.200	1.530
2020/01/31 00:35:41.4	268.580	-0.500	-0.140	1.520
2020/01/31 00:35:41.5	268.530	-0.530	-0.090	1.510
2020/01/31 00:35:41.6	268.490	-0.560	-0.030	1.490
2020/01/31 00:35:41.7	268.440	-0.580	0.020	1.480
2020/01/31 00:35:41.8	268.400	-0.610	0.080	1.470
2020/01/31 00:35:41.9	268.350	-0.630	0.130	1.460
2020/01/31 00:35:42.0	268.310	-0.660	0.180	1.450
2020/01/31 00:35:42.1	268.270	-0.680	0.230	1.430
2020/01/31 00:35:42.2	268.230	-0.700	0.270	1.420
2020/01/31 00:35:42.3	268.190	-0.720	0.310	1.400
2020/01/31 00:35:42.4	268.150	-0.730	0.350	1.380
2020/01/31 00:35:42.5	268.120	-0.740	0.390	1.360
2020/01/31 00:35:42.6	268.090	-0.750	0.420	1.340
2020/01/31 00:35:42.7	268.060	-0.760	0.460	1.320
2020/01/31 00:35:42.8	268.030	-0.770	0.490	1.300
2020/01/31 00:35:42.9	268.010	-0.770	0.510	1.280
2020/01/31 00:35:43.0	267.990	-0.770	0.540	1.260
2020/01/31 00:35:43.1	267.970	-0.770	0.560	1.230
2020/01/31 00:35:43.2	267.950	-0.760	0.580	1.200
2020/01/31 00:35:43.3	267.940	-0.760	0.600	1.180
2020/01/31 00:35:43.4	267.920	-0.750	0.610	1.150
2020/01/31 00:35:43.5	267.920	-0.730	0.630	1.120
2020/01/31 00:35:43.6	267.910	-0.720	0.640	1.080
2020/01/31 00:35:43.7	267.910	-0.700	0.650	1.050
2020/01/31 00:35:43.8	267.910	-0.680	0.660	1.020
2020/01/31 00:35:43.9	267.920	-0.660	0.660	0.980
2020/01/31 00:35:44.0	267.930	-0.640	0.660	0.950
2020/01/31 00:35:44.1	267.940	-0.610	0.660	0.910
2020/01/31 00:35:44.2	267.950	-0.590	0.670	0.870
2020/01/31 00:35:44.3	267.970	-0.560	0.660	0.840
2020/01/31 00:35:44.4	267.990	-0.530	0.660	0.800
2020/01/31 00:35:44.5	268.010	-0.500	0.660	0.770
2020/01/31 00:35:44.6	268.030	-0.460	0.650	0.730
2020/01/31 00:35:44.7	268.060	-0.430	0.640	0.700
2020/01/31 00:35:44.8	268.090	-0.400	0.630	0.660
2020/01/31 00:35:44.9	268.110	-0.360	0.610	0.630
2020/01/31 00:35:45.0	268.140	-0.320	0.600	0.600
2020/01/31 00:35:45.1	268.170	-0.280	0.580	0.570
2020/01/31 00:35:45.2	268.210	-0.250	0.560	0.540
2020/01/31 00:35:45.3	268.250	-0.210	0.540	0.510
2020/01/31 00:35:45.4	268.290	-0.170	0.510	0.490
2020/01/31 00:35:45.5	268.330	-0.130	0.480	0.470
2020/01/31 00:35:45.6	268.380	-0.090	0.450	0.440
2020/01/31 00:35:45.7	268.430	-0.050	0.420	0.420
2020/01/31 00:35:45.8	268.470	-0.010	0.390	0.400
2020/01/31 00:35:45.9	268.520	0.030	0.350	0.390
2020/01/31 00:35:46.0	268.570	0.070	0.310	0.370
2020/01/31 00:35:46.1	268.620	0.100	0.270	0.360
2020/01/31 00:35:46.2	268.670	0.140	0.230	0.340
2020/01/31 00:35:46.3	268.720	0.180	0.190	0.330
2020/01/31 00:35:46.4	268.780	0.210	0.150	0.320
2020/01/31 00:35:46.5	268.830	0.250	0.110	0.310
2020/01/31 00:35:46.6	268.880	0.280	0.070	0.300
2020/01/31 00:35:46.7	268.930	0.310	0.020	0.290
2020/01/31 00:35:46.8	268.980	0.340	-0.020	0.280
2020/01/31 00:35:46.9	269.030	0.370	-0.060	0.280
2020/01/31 00:35:47.0	269.080	0.400	-0.100	0.270
2020/01/31 00:35:47.1	269.130	0.430	-0.150	0.270
2020/01/31 00:35:47.2	269.180	0.450	-0.190	0.280
2020/01/31 00:35:47.3	269.230	0.470	-0.230	0.280
2020/01/31 00:35:47.4	269.280	0.490	-0.270	0.290
2020/01/31 00:35:47.5	269.320	0.510	-0.310	0.300
2020/01/31 00:35:47.6	269.370	0.530	-0.350	0.310
2020/01/31 00:35:47.7	269.410	0.550	-0.390	0.320
2020/01/31 00:35:47.8	269.450	0.560	-0.430	0.340
2020/01/31 00:35:47.9	269.500	0.570	-0.470	0.360
2020/01/31 00:35:48.0	269.540	0.580	-0.500	0.380
2020/01/31 00:35:48.1	269.580	0.590	-0.540	0.410
2020/01/31 00:35:48.2	269.620	0.600	-0.570	0.430
2020/01/31 00:35:48.3	269.660	0.600	-0.600	0.460
2020/01/31 00:35:48.4	269.690	0.610	-0.630	0.490
2020/01/31 00:35:48.5	269.720	0.610	-0.660	0.520
2020/01/31 00:35:48.6	269.760	0.610	-0.690	0.550
2020/01/31 00:35:48.7	269.790	0.610	-0.720	0.580
2020/01/31 00:35:48.8	269.820	0.610	-0.740	0.610
2020/01/31 00:35:48.9	269.850	0.610	-0.770	0.650
2020/01/31 00:35:49.0	269.870	0.610	-0.790	0.680
2020/01/31 00:35:49.1	269.890	0.600	-0.820	0.720
2020/01/31 00:35:49.2	269.910	0.600	-0.840	0.750
2020/01/31 00:35:49.3	269.930	0.590	-0.870	0.790
2020/01/31 00:35:49.4	269.950	0.590	-0.890	0.830
2020/01/31 00:35:49.5	269.960	0.580	-0.920	0.870
2020/01/31 00:35:49.6	269.970	0.570	-0.940	0.910
2020/01/31 00:35:49.7	269.980	0.570	-0.970	0.960
2020/01/31 00:35:49.8	269.990	0.560	-0.990	1.000
2020/01/31 00:35:49.9	269.980	0.550	-1.020	1.040
2020/01/31 00:35:50.0	269.990	0.550	-1.040	1.080
2020/01/31 00:35:50.1	269.980	0.540	-1.070	1.130
2020/01/31 00:35:50.2	269.980	0.530	-1.090	1.170
2020/01/31 00:35:50.3	269.980	0.530	-1.120	1.210
2020/01/31 00:35:50.4	269.970	0.520	-1.140	1.250
2020/01/31 00:35:50.5	269.960	0.510	-1.170	1.300
2020/01/31 00:35:50.6	269.950	0.500	-1.190	1.340
2020/01/31 00:35:50.7	269.930	0.500	-1.210	1.380
2020/01/31 00:35:50.8	269.920	0.490	-1.230	1.420
2020/01/31 00:35:50.9	269.900	0.480	-1.250	1.460
2020/01/31 00:35:51.0	269.880	0.470	-1.270	1.500
2020/01/31 00:35:51.1	269.860	0.460	-1.280	1.530
2020/01/31 00:35:51.2	269.830	0.450	-1.290	1.570
2020/01/31 00:35:51.3	269.810	0.440	-1.300	1.610
2020/01/31 00:35:51.4	269.780	0.430	-1.310	1.640
2020/01/31 00:35:51.5	269.740	0.420	-1.310	1.670
2020/01/31 00:35:51.6	269.710	0.410	-1.310	1.700
2020/01/31 00:35:51.7	269.670	0.390	-1.310	1.730
2020/01/31 00:35:51.8	269.630	0.380	-1.310	1.750
2020/01/31 00:35:51.9	269.590	0.360	-1.290	1.780
2020/01/31 00:35:52.0	269.550	0.350	-1.280	1.800
2020/01/31 00:35:52.1	269.500	0.330	-1.260	1.820
2020/01/31 00:35:52.2	269.460	0.310	-1.240	1.830
2020/01/31 00:35:52.3	269.410	0.280	-1.210	1.840
2020/01/31 00:35:52.4	269.370	0.260	-1.190	1.850
2020/01/31 00:35:52.5	269.320	0.240	-1.150	1.860
2020/01/31 00:35:52.6	269.270	0.210	-1.120	1.860
2020/01/31 00:35:52.7	269.220	0.180	-1.080	1.870
2020/01/31 00:35:52.8	269.170	0.150	-1.030	1.870
2020/01/31 00:35:52.9	269.120	0.120	-0.990	1.860
2020/01/31 00:35:53.0	269.070	0.090	-0.940	1.850
2020/01/31 00:35:53.1	269.020	0.060	-0.890	1.850
2020/01/31 00:35:53.2	268.970	0.030	-0.830	1.840
2020/01/31 00:35:53.3	268.920	-0.010	-0.780	1.830
2020/01/31 00:35:53.4	268.870	-0.040	-0.720	1.820
2020/01/31 00:35:53.5	268.830	-0.080	-0.660	1.810
2020/01/31 00:35:53.6	268.780	-0.110	-0.600	1.800
2020/01/31 00:35:53.7	268.740	-0.150	-0.540	1.790
2020/01/31 00:35:53.8	268.700	-0.190	-0.480	1.770
2020/01/31 00:35:53.9	268.660	-0.220	-0.420	1.760
2020/01/31 00:35:54.0	268.620	-0.260	-0.350	1.740
2020/01/31 00:35:54.1	268.580	-0.290	-0.290	1.720
2020/01/31 00:35:54.2	268.550	-0.330	-0.230	1.700
2020/01/31 00:35:54.3	268.520	-0.360	-0.170	1.680
2020/01/31 00:35:54.4	268.490	-0.390	-0.110	1.660
2020/01/31 00:35:54.5	268.460	-0.420	-0.050	1.640
2020/01/31 00:35:54.6	268.440	-0.450	0.010	1.620
2020/01/31 00:35:54.7	268.420	-0.480	0.070	1.590
2020/01/31 00:35:54.8	268.400	-0.500	0.120	1.570
2020/01/31 00:35:54.9	268.370	-0.530	0.170	1.540
2020/01/31 00:35:55.0	268.360	-0.550	0.220	1.510
2020/01/31 00:35:55.1	268.350	-0.570	0.270	1.490
2020/01/31 00:35:55.2	268.340	-0.590	0.310	1.460
2020/01/31 00:35:55.3	268.330	-0.600	0.360	1.430
2020/01/31 00:35:55.4	268.330	-0.620	0.400	1.400
2020/01/31 00:35:55.5	268.330	-0.630	0.440	1.370
2020/01/31 00:35:55.6	268.330	-0.640	0.470	1.340
2020/01/31 00:35:55.7	268.330	-0.640	0.500	1.310
2020/01/31 00:35:55.8	268.340	-0.640	0.530	1.280
2020/01/31 00:35:55.9	268.360	-0.640	0.550	1.250
2020/01/31 00:35:56.0	268.370	-0.640	0.580	1.220
2020/01/31 00:35:56.1	268.380	-0.640	0.590	1.190
2020/01/31 00:35:56.2	268.390	-0.630	0.610	1.150
2020/01/31 00:35:56.3	268.410	-0.620	0.620	1.130
2020/01/31 00:35:56.4	268.420	-0.610	0.630	1.100
2020/01/31 00:35:56.5	268.440	-0.600	0.640	1.070
2020/01/31 00:35:56.6	268.460	-0.590	0.650	1.040
2020/01/31 00:35:56.7	268.480	-0.570	0.650	1.020
2020/01/31 00:35:56.8	268.510	-0.550	0.650	0.990
2020/01/31 00:35:56.9	268.540	-0.540	0.650	0.970
2020/01/31 00:35:57.0	268.560	-0.520	0.640	0.950
2020/01/31 00:35:57.1	268.590	-0.500	0.630	0.930
2020/01/31 00:35:57.2	268.620	-0.470	0.620	0.920
2020/01/31 00:35:57.3	268.650	-0.450	0.610	0.910
2020/01/31 00:35:57.4	268.680	-0.430	0.600	0.900
2020/01/31 00:35:57.5	268.710	-0.400	0.580	0.890
2020/01/31 00:35:57.6	268.750	-0.380	0.570	0.880
2020/01/31 00:35:57.7	268.780	-0.360	0.550	0.880
2020/01/31 00:35:57.8	268.820	-0.330	0.530	0.880
2020/01/31 00:35:57.9	268.850	-0.310	0.510	0.880
2020/01/31 00:35:58.0	268.890	-0.290	0.490	0.890
2020/01/31 00:35:58.1	268.930	-0.260	0.470	0.900
2020/01/31 00:35:58.2	268.960	-0.240	0.440	0.910
2020/01/31 00:35:58.3	269.000	-0.220	0.420	0.920
2020/01/31 00:35:58.4	269.040	-0.200	0.400	0.930
2020/01/31 00:35:58.5	269.080	-0.180	0.380	0.940
2020/01/31 00:35:58.6	269.120	-0.160	0.350	0.960
2020/01/31 00:35:58.7	269.160	-0.140	0.330	0.970
2020/01/31 00:35:58.8	269.200	-0.120	0.310	0.990
2020/01/31 00:35:58.9	269.250	-0.110	0.280	1.010
2020/01/31 00:35:59.0	269.290	-0.090	0.260	1.030
2020/01/31 00:35:59.1	269.330	-0.080	0.230	1.050
2020/01/31 00:35:59.2	269.370	-0.060	0.210	1.070
2020/01/31 00:35:59.3	269.410	-0.050	0.180	1.080
2020/01/31 00:35:59.4	269.450	-0.030	0.150	1.100
2020/01/31 00:35:59.5	269.490	-0.020	0.120	1.120
2020/01/31 00:35:59.6	269.520	-0.010	0.090	1.130
2020/01/31 00:35:59.7	269.560	0.010	0.060	1.140
2020/01/31 00:35:59.8	269.600	0.020	0.030	1.160
2020/01/31 00:35:59.9	269.620	0.030	-0.010	1.160
2020/01/31 00:36:00.0	269.660	0.050	-0.050	1.170
2020/01/31 00:36:00.1	269.690	0.060	-0.090	1.180
2020/01/31 00:36:00.2	269.720	0.080	-0.120	1.190
2020/01/31 00:36:00.3	269.750	0.090	-0.170	1.190
2020/01/31 00:36:00.4	269.780	0.110	-0.210	1.190
2020/01/31 00:36:00.5	269.800	0.120	-0.250	1.190
2020/01/31 00:36:00.6	269.830	0.140	-0.300	1.190
2020/01/31 00:36:00.7	269.850	0.150	-0.350	1.190
2020/01/31 00:36:00.8	269.870	0.170	-0.390	1.190
2020/01/31 00:36:00.9	269.890	0.190	-0.450	1.190
2020/01/31 00:36:01.0	269.910	0.210	-0.500	1.180
2020/01/31 00:36:01.1	269.920	0.230	-0.550	1.180
2020/01/31 00:36:01.2	269.940	0.250	-0.600	1.180
2020/01/31 00:36:01.3	269.950	0.270	-0.650	1.170
2020/01/31 00:36:01.4	269.960	0.290	-0.700	1.170
2020/01/31 00:36:01.5	269.960	0.310	-0.750	1.160
2020/01/31 00:36:01.6	269.970	0.330	-0.800	1.160
2020/01/31 00:36:01.7	269.970	0.350	-0.850	1.150
2020/01/31 00:36:01.8	269.980	0.370	-0.900	1.140
2020/01/31 00:36:01.9	269.960	0.380	-0.950	1.140
2020/01/31 00:36:02.0	269.950	0.400	-1.000	1.140
2020/01/31 00:36:02.1	269.950	0.420	-1.040	1.130
2020/01/31 00:36:02.2	269.950	0.440	-1.080	1.130
2020/01/31 00:36:02.3	269.940	0.460	-1.120	1.120
2020/01/31 00:36:02.4	269.930	0.470	-1.160	1.120
2020/01/31 00:36:02.5	269.920	0.480	-1.190	1.120
2020/01/31 00:36:02.6	269.900	0.500	-1.220	1.110
2020/01/31 00:36:02.7	269.890	0.510	-1.240	1.110
2020/01/31 00:36:02.8	269.870	0.520	-1.260	1.110
2020/01/31 00:36:02.9	269.840	0.520	-1.280	1.100
2020/01/31 00:36:03.0	269.820	0.530	-1.290	1.100
2020/01/31 00:36:03.1	269.800	0.530	-1.300	1.090
2020/01/31 00:36:03.2	269.780	0.530	-1.300	1.090
2020/01/31 00:36:03.3	269.760	0.530	-1.300	1.080
2020/01/31 00:36:03.4	269.740	0.530	-1.300	1.080
2020/01/31 00:36:03.5	269.720	0.520	-1.290	1.070
2020/01/31 00:36:03.6	269.690	0.510	-1.270	1.060
2020/01/31 00:36:03.7	269.670	0.500	-1.250	1.050
2020/01/31 00:36:03.8	269.650	0.490	-1.230	1.040
2020/01/31 00:36:03.9	269.620	0.470	-1.200	1.040
2020/01/31 00:36:04.0	269.600	0.450	-1.160	1.020
2020/01/31 00:36:04.1	269.580	0.430	-1.120	1.010
2020/01/31 00:36:04.2	269.550	0.410	-1.080	1.000
2020/01/31 00:36:04.3	269.530	0.380	-1.040	0.980
2020/01/31 00:36:04.4	269.500	0.350	-0.990	0.960
2020/01/31 00:36:04.5	269.480	0.320	-0.940	0.940
2020/01/31 00:36:04.6	269.460	0.290	-0.890	0.920
2020/01/31 00:36:04.7	269.440	0.260	-0.830	0.900
2020/01/31 00:36:04.8	269.410	0.220	-0.780	0.880
2020/01/31 00:36:04.9	269.410	0.190	-0.720	0.860
2020/01/31 00:36:05.0	269.390	0.150	-0.660	0.830
2020/01/31 00:36:05.1	269.370	0.120	-0.600	0.800
2020/01/31 00:36:05.2	269.350	0.080	-0.540	0.780
2020/01/31 00:36:05.3	269.340	0.040	-0.490	0.750
2020/01/31 00:36:05.4	269.320	0.000	-0.430	0.720
2020/01/31 00:36:05.5	269.310	-0.030	-0.370	0.690
2020/01/31 00:36:05.6	269.290	-0.070	-0.320	0.650
2020/01/31 00:36:05.7	269.280	-0.110	-0.270	0.620
2020/01/31 00:36:05.8	269.270	-0.140	-0.220	0.590
2020/01/31 00:36:05.9	269.270	-0.180	-0.170	0.560
2020/01/31 00:36:06.0	269.270	-0.210	-0.130	0.530
2020/01/31 00:36:06.1	269.260	-0.240	-0.090	0.500
2020/01/31 00:36:06.2	269.260	-0.270	-0.050	0.460
2020/01/31 00:36:06.3	269.250	-0.300	-0.020	0.430
2020/01/31 00:36:06.4	269.250	-0.320	0.010	0.400
2020/01/31 00:36:06.5	269.250	-0.350	0.040	0.370
2020/01/31 00:36:06.6	269.250	-0.370	0.060	0.340
2020/01/31 00:36:06.7	269.260	-0.390	0.080	0.320
2020/01/31 00:36:06.8	269.260	-0.400	0.100	0.290
2020/01/31 00:36:06.9	269.260	-0.420	0.110	0.270
2020/01/31 00:36:07.0	269.270	-0.430	0.120	0.240
2020/01/31 00:36:07.1	269.270	-0.430	0.130	0.230
2020/01/31 00:36:07.2	269.280	-0.440	0.130	0.210
2020/01/31 00:36:07.3	269.290	-0.440	0.130	0.200
2020/01/31 00:36:07.4	269.300	-0.440	0.130	0.190
2020/01/31 00:36:07.5	269.310	-0.440	0.130	0.180
2020/01/31 00:36:07.6	269.320	-0.430	0.120	0.170
2020/01/31 00:36:07.7	269.340	-0.430	0.120	0.170
2020/01/31 00:36:07.8	269.350	-0.420	0.110	0.170
2020/01/31 00:36:07.9	269.360	-0.410	0.100	0.170
2020/01/31 00:36:08.0	269.370	-0.390	0.090	0.180
2020/01/31 00:36:08.1	269.390	-0.380	0.080	0.190
2020/01/31 00:36:08.2	269.400	-0.360	0.070	0.200
2020/01/31 00:36:08.3	269.420	-0.350	0.060	0.210
2020/01/31 00:36:08.4	269.430	-0.330	0.040	0.230
2020/01/31 00:36:08.5	269.450	-0.310	0.030	0.240
2020/01/31 00:36:08.6	269.460	-0.290	0.020	0.260
2020/01/31 00:36:08.7	269.480	-0.270	0.010	0.290
2020/01/31 00:36:08.8	269.490	-0.250	-0.000	0.310
2020/01/31 00:36:08.9	269.500	-0.230	-0.020	0.330
2020/01/31 00:36:09.0	269.520	-0.210	-0.030	0.360
2020/01/31 00:36:09.1	269.530	-0.180	-0.040	0.380
2020/01/31 00:36:09.2	269.540	-0.160	-0.050	0.410
2020/01/31 00:36:09.3	269.550	-0.140	-0.050	0.440
2020/01/31 00:36:09.4	269.560	-0.120	-0.060	0.470
2020/01/31 00:36:09.5	269.570	-0.100	-0.070	0.490
2020/01/31 00:36:09.6	269.580	-0.080	-0.070	0.520
2020/01/31 00:36:09.7	269.590	-0.060	-0.070	0.550
2020/01/31 00:36:09.8	269.590	-0.040	-0.070	0.580
2020/01/31 00:36:09.9	269.600	-0.030	-0.080	0.600
2020/01/31 00:36:10.0	269.610	-0.010	-0.070	0.630
2020/01/31 00:36:10.1	269.620	0.010	-0.070	0.650
2020/01/31 00:36:10.2	269.630	0.020	-0.070	0.670
2020/01/31 00:36:10.3	269.630	0.030	-0.060	0.700
2020/01/31 00:36:10.4	269.640	0.050	-0.060	0.720
2020/01/31 00:36:10.5	269.650	0.060	-0.050	0.740
2020/01/31 00:36:10.6	269.660	0.070	-0.040	0.760
2020/01/31 00:36:10.7	269.660	0.080	-0.030	0.780
2020/01/31 00:36:10.8	269.670	0.090	-0.020	0.790
2020/01/31 00:36:10.9	269.670	0.100	-0.010	0.810
2020/01/31 00:36:11.0	269.680	0.100	-0.000	0.830
2020/01/31 00:36:11.1	269.680	0.110	0.010	0.840
2020/01/31 00:36:11.2	269.690	0.110	0.020	0.850
2020/01/31 00:36:11.3	269.690	0.120	0.030	0.870
2020/01/31 00:36:11.4	269.700	0.120	0.040	0.880
2020/01/31 00:36:11.5	269.700	0.120	0.050	0.890
2020/01/31 00:36:11.6	269.700	0.120	0.060	0.890
2020/01/31 00:36:11.7	269.700	0.130	0.060	0.900
2020/01/31 00:36:11.8	269.700	0.130	0.070	0.910
2020/01/31 00:36:11.9	269.720	0.130	0.070	0.910
2020/01/31 00:36:12.0	269.720	0.130	0.070	0.910
2020/01/31 00:36:12.1	269.720	0.130	0.070	0.920
2020/01/31 00:36:12.2	269.720	0.120	0.070	0.920
2020/01/31 00:36:12.3	269.710	0.120	0.060	0.920
2020/01/31 00:36:12.4	269.710	0.120	0.060	0.920
2020/01/31 00:36:12.5	269.700	0.120	0.050	0.920
2020/01/31 00:36:12.6	269.700	0.120	0.030	0.920
2020/01/31 00:36:12.7	269.690	0.120	0.020	0.920
2020/01/31 00:36:12.8	269.680	0.120	0.000	0.920
2020/01/31 00:36:12.9	269.650	0.120	-0.020	0.920
2020/01/31 00:36:13.0	269.630	0.120	-0.050	0.920
2020/01/31 00:36:13.1	269.620	0.120	-0.070	0.920
2020/01/31 00:36:13.2	269.600	0.120	-0.100	0.920
2020/01/31 00:36:13.3	269.580	0.120	-0.130	0.920
2020/01/31 00:36:13.4	269.560	0.120	-0.160	0.920
2020/01/31 00:36:13.5	269.530	0.120	-0.190	0.920
2020/01/31 00:36:13.6	269.510	0.120	-0.220	0.920
2020/01/31 00:36:13.7	269.480	0.130	-0.260	0.920
2020/01/31 00:36:13.8	269.450	0.130	-0.290	0.920
2020/01/31 00:36:13.9	269.430	0.130	-0.330	0.920
2020/01/31 00:36:14.0	269.400	0.140	-0.360	0.920
2020/01/31 00:36:14.1	269.360	0.140	-0.400	0.910
2020/01/31 00:36:14.2	269.330	0.150	-0.430	0.910
2020/01/31 00:36:14.3	269.300	0.150	-0.470	0.910
2020/01/31 00:36:14.4	269.260	0.160	-0.500	0.910
2020/01/31 00:36:14.5	269.230	0.170	-0.530	0.910
2020/01/31 00:36:14.6	269.190	0.170	-0.570	0.910
2020/01/31 00:36:14.7	269.150	0.180	-0.600	0.910
2020/01/31 00:36:14.8	269.120	0.190	-0.620	0.910
2020/01/31 00:36:14.9	269.090	0.200	-0.650	0.910
2020/01/31 00:36:15.0	269.050	0.210	-0.670	0.910
2020/01/31 00:36:15.1	269.010	0.220	-0.690	0.910
2020/01/31 00:36:15.2	268.970	0.220	-0.710	0.910
2020/01/31 00:36:15.3	268.930	0.230	-0.730	0.910
2020/01/31 00:36:15.4	268.900	0.240	-0.740	0.910
2020/01/31 00:36:15.5	268.860	0.240	-0.750	0.910
2020/01/31 00:36:15.6	268.830	0.250	-0.750	0.910
2020/01/31 00:36:15.7	268.790	0.250	-0.760	0.910
2020/01/31 00:36:15.8	268.760	0.260	-0.760	0.910
2020/01/31 00:36:15.9	268.730	0.260	-0.760	0.910
2020/01/31 00:36:16.0	268.700	0.260	-0.760	0.910
2020/01/31 00:36:16.1	268.660	0.260	-0.750	0.910
2020/01/31 00:36:16.2	268.630	0.260	-0.740	0.910
2020/01/31 00:36:16.3	268.600	0.260	-0.730	0.910
2020/01/31 00:36:16.4	268.570	0.250	-0.710	0.910
2020/01/31 00:36:16.5	268.540	0.250	-0.700	0.910
2020/01/31 00:36:16.6	268.510	0.240	-0.680	0.910
2020/01/31 00:36:16.7	268.480	0.230	-0.660	0.910
2020/01/31 00:36:16.8	268.450	0.220	-0.640	0.910
2020/01/31 00:36:16.9	268.410	0.210	-0.620	0.900
2020/01/31 00:36:17.0	268.380	0.200	-0.590	0.900
2020/01/31 00:36:17.1	268.360	0.190	-0.570	0.900
2020/01/31 00:36:17.2	268.330	0.170	-0.550	0.900
2020/01/31 00:36:17.3	268.310	0.160	-0.520	0.890
2020/01/31 00:36:17.4	268.280	0.140	-0.500	0.890
2020/01/31 00:36:17.5	268.260	0.120	-0.480	0.880
2020/01/31 00:36:17.6	268.240	0.100	-0.450	0.880
2020/01/31 00:36:17.7	268.220	0.080	-0.430	0.870
2020/01/31 00:36:17.8	268.200	0.070	-0.410	0.860
2020/01/31 00:36:17.9	268.170	0.050	-0.390	0.860
2020/01/31 00:36:18.0	268.150	0.030	-0.370	0.850
2020/01/31 00:36:18.1	268.130	0.010	-0.360	0.840
2020/01/31 00:36:18.2	268.120	-0.010	-0.340	0.830
2020/01/31 00:36:18.3	268.100	-0.030	-0.330	0.820
2020/01/31 00:36:18.4	268.080	-0.050	-0.310	0.800
2020/01/31 00:36:18.5	268.060	-0.060	-0.300	0.790
2020/01/31 00:36:18.6	268.040	-0.080	-0.300	0.770
2020/01/31 00:36:18.7	268.020	-0.090	-0.290	0.760
2020/01/31 00:36:18.8	268.000	-0.110	-0.290	0.740
2020/01/31 00:36:18.9	267.990	-0.120	-0.280	0.730
2020/01/31 00:36:19.0	267.970	-0.130	-0.280	0.710
2020/01/31 00:36:19.1	267.950	-0.140	-0.290	0.700
2020/01/31 00:36:19.2	267.930	-0.150	-0.290	0.680
2020/01/31 00:36:19.3	267.910	-0.160	-0.300	0.660
2020/01/31 00:36:19.4	267.900	-0.160	-0.310	0.650
2020/01/31 00:36:19.5	267.880	-0.170	-0.320	0.630
2020/01/31 00:36:19.6	267.860	-0.170	-0.330	0.620
2020/01/31 00:36:19.7	267.840	-0.170	-0.340	0.600
2020/01/31 00:36:19.8	267.830	-0.170	-0.350	0.590
2020/01/31 00:36:19.9	267.810	-0.170	-0.370	0.580
2020/01/31 00:36:20.0	267.800	-0.170	-0.380	0.560
2020/01/31 00:36:20.1	267.780	-0.160	-0.400	0.550
2020/01/31 00:36:20.2	267.760	-0.160	-0.410	0.540
2020/01/31 00:36:20.3	267.750	-0.150	-0.420	0.530
2020/01/31 00:36:20.4	267.730	-0.140	-0.440	0.520
2020/01/31 00:36:20.5	267.710	-0.130	-0.450	0.510
2020/01/31 00:36:20.6	267.700	-0.130	-0.460	0.500
2020/01/31 00:36:20.7	267.680	-0.120	-0.470	0.500
2020/01/31 00:36:20.8	267.660	-0.110	-0.480	0.500
2020/01/31 00:36:20.9	267.660	-0.100	-0.490	0.500
2020/01/31 00:36:21.0	267.640	-0.090	-0.500	0.500
2020/01/31 00:36:21.1	267.630	-0.080	-0.500	0.500
2020/01/31 00:36:21.2	267.610	-0.070	-0.500	0.510
2020/01/31 00:36:21.3	267.590	-0.060	-0.500	0.520
2020/01/31 00:36:21.4	267.580	-0.050	-0.500	0.530
2020/01/31 00:36:21.5	267.560	-0.050	-0.490	0.540
2020/01/31 00:36:21.6	267.550	-0.040	-0.480	0.560
2020/01/31 00:36:21.7	267.530	-0.040	-0.470	0.580
2020/01/31 00:36:21.8	267.520	-0.030	-0.460	0.600
2020/01/31 00:36:21.9	267.500	-0.030	-0.440	0.630
2020/01/31 00:36:22.0	267.490	-0.030	-0.420	0.650
2020/01/31 00:36:22.1	267.470	-0.030	-0.400	0.680
2020/01/31 00:36:22.2	267.460	-0.030	-0.380	0.710
2020/01/31 00:36:22.3	267.440	-0.030	-0.350	0.740
2020/01/31 00:36:22.4	267.430	-0.040	-0.320	0.770
2020/01/31 00:36:22.5	267.420	-0.050	-0.290	0.810
2020/01/31 00:36:22.6	267.410	-0.050	-0.260	0.840
2020/01/31 00:36:22.7	267.390	-0.060	-0.230	0.870
2020/01/31 00:36:22.8	267.380	-0.080	-0.190	0.910
2020/01/31 00:36:22.9	267.360	-0.090	-0.160	0.940
2020/01/31 00:36:23.0	267.350	-0.100	-0.120	0.970
2020/01/31 00:36:23.1	267.340	-0.120	-0.090	1.000
2020/01/31 00:36:23.2	267.330	-0.130	-0.050	1.040
2020/01/31 00:36:23.3	267.310	-0.150	-0.020	1.070
2020/01/31 00:36:23.4	267.300	-0.160	0.010	1.090
2020/01/31 00:36:23.5	267.280	-0.180	0.050	1.120
2020/01/31 00:36:23.6	267.270	-0.200	0.080	1.150
2020/01/31 00:36:23.7	267.250	-0.220	0.110	1.170
2020/01/31 00:36:23.8	267.240	-0.230	0.130	1.190
2020/01/31 00:36:23.9	267.220	-0.250	0.150	1.220
2020/01/31 00:36:24.0	267.210	-0.260	0.180	1.240
2020/01/31 00:36:24.1	267.190	-0.280	0.200	1.250
2020/01/31 00:36:24.2	267.170	-0.290	0.210	1.270
2020/01/31 00:36:24.3	267.150	-0.310	0.230	1.280
2020/01/31 00:36:24.4	267.130	-0.320	0.240	1.290
2020/01/31 00:36:24.5	267.110	-0.330	0.250	1.300
2020/01/31 00:36:24.6	267.090	-0.340	0.260	1.310
2020/01/31 00:36:24.7	267.070	-0.340	0.260	1.320
2020/01/31 00:36:24.8	267.050	-0.350	0.260	1.320
2020/01/31 00:36:24.9	267.040	-0.350	0.260	1.320
2020/01/31 00:36:25.0	267.020	-0.350	0.260	1.320
2020/01/31 00:36:25.1	267.000	-0.350	0.250	1.320
2020/01/31 00:36:25.2	266.970	-0.350	0.240	1.310
2020/01/31 00:36:25.3	266.950	-0.350	0.230	1.310
2020/01/31 00:36:25.4	266.930	-0.340	0.210	1.300
2020/01/31 00:36:25.5	266.900	-0.330	0.200	1.290
2020/01/31 00:36:25.6	266.880	-0.320	0.180	1.280
2020/01/31 00:36:25.7	266.850	-0.310	0.160	1.270
2020/01/31 00:36:25.8	266.830	-0.300	0.130	1.270
2020/01/31 00:36:25.9	266.820	-0.280	0.100	1.260
2020/01/31 00:36:26.0	266.800	-0.270	0.070	1.250
2020/01/31 00:36:26.1	266.770	-0.250	0.050	1.240
2020/01/31 00:36:26.2	266.740	-0.230	0.020	1.230
2020/01/31 00:36:26.3	266.720	-0.210	-0.010	1.220
2020/01/31 00:36:26.4	266.690	-0.190	-0.040	1.220
2020/01/31 00:36:26.5	266.660	-0.170	-0.070	1.210
2020/01/31 00:36:26.6	266.630	-0.140	-0.100	1.210
2020/01/31 00:36:26.7	266.600	-0.120	-0.130	1.210
2020/01/31 00:36:26.8	266.570	-0.090	-0.170	1.210
2020/01/31 00:36:26.9	266.530	-0.070	-0.190	1.210
2020/01/31 00:36:27.0	266.500	-0.040	-0.220	1.210
2020/01/31 00:36:27.1	266.460	-0.020	-0.250	1.220
2020/01/31 00:36:27.2	266.430	0.010	-0.280	1.220
2020/01/31 00:36:27.3	266.390	0.040	-0.310	1.230
2020/01/31 00:36:27.4	266.360	0.060	-0.330	1.240
2020/01/31 00:36:27.5	266.320	0.090	-0.350	1.250
2020/01/31 00:36:27.6	266.280	0.110	-0.370	1.260
2020/01/31 00:36:27.7	266.240	0.140	-0.390	1.280
2020/01/31 00:36:27.8	266.200	0.160	-0.410	1.290
2020/01/31 00:36:27.9	266.140	0.190	-0.430	1.310
2020/01/31 00:36:28.0	266.100	0.210	-0.450	1.330
2020/01/31 00:36:28.1	266.060	0.240	-0.460	1.350
2020/01/31 00:36:28.2	266.010	0.260	-0.470	1.370
2020/01/31 00:36:28.3	265.960	0.280	-0.480	1.390
2020/01/31 00:36:28.4	265.910	0.300	-0.490	1.410
2020/01/31 00:36:28.5	265.860	0.320	-0.490	1.440
2020/01/31 00:36:28.6	265.810	0.340	-0.500	1.460
2020/01/31 00:36:28.7	265.760	0.360	-0.500	1.490
2020/01/31 00:36:28.8	265.710	0.380	-0.500	1.510
2020/01/31 00:36:28.9	265.630	0.390	-0.500	1.540
2020/01/31 00:36:29.0	265.580	0.410	-0.500	1.570
2020/01/31 00:36:29.1	265.520	0.430	-0.500	1.590
2020/01/31 00:36:29.2	265.460	0.440	-0.500	1.620
2020/01/31 00:36:29.3	265.400	0.450	-0.490	1.640
2020/01/31 00:36:29.4	265.350	0.460	-0.490	1.670
2020/01/31 00:36:29.5	265.290	0.480	-0.480	1.690
2020/01/31 00:36:29.6	265.230	0.490	-0.480	1.720
2020/01/31 00:36:29.7	265.170	0.490	-0.470	1.740
2020/01/31 00:36:29.8	265.110	0.500	-0.470	1.770
2020/01/31 00:36:29.9	265.050	0.510	-0.460	1.780
2020/01/31 00:36:30.0	264.990	0.520	-0.460	1.810
2020/01/31 00:36:30.1	264.930	0.520	-0.450	1.830
2020/01/31 00:36:30.2	264.870	0.530	-0.440	1.850
2020/01/31 00:36:30.3	264.810	0.530	-0.440	1.870
2020/01/31 00:36:30.4	264.750	0.530	-0.430	1.890
2020/01/31 00:36:30.5	264.700	0.530	-0.430	1.910
2020/01/31 00:36:30.6	264.640	0.530	-0.430	1.930
2020/01/31 00:36:30.7	264.580	0.530	-0.420	1.940
2020/01/31 00:36:30.8	264.530	0.530	-0.420	1.960
2020/01/31 00:36:30.9	264.480	0.530	-0.420	1.980
2020/01/31 00:36:31.0	264.430	0.530	-0.430	1.990
2020/01/31 00:36:31.1	264.380	0.530	-0.430	2.010
2020/01/31 00:36:31.2	264.330	0.520	-0.430	2.020
2020/01/31 00:36:31.3	264.270	0.520	-0.440	2.030
2020/01/31 00:36:31.4	264.220	0.510	-0.440	2.050
2020/01/31 00:36:31.5	264.170	0.510	-0.450	2.060
2020/01/31 00:36:31.6	264.120	0.500	-0.460	2.070
2020/01/31 00:36:31.7	264.070	0.500	-0.470	2.070
2020/01/31 00:36:31.8	264.020	0.490	-0.480	2.080
2020/01/31 00:36:31.9	263.980	0.480	-0.490	2.090
2020/01/31 00:36:32.0	263.940	0.480	-0.500	2.090
2020/01/31 00:36:32.1	263.890	0.470	-0.520	2.100
2020/01/31 00:36:32.2	263.840	0.460	-0.530	2.100
2020/01/31 00:36:32.3	263.800	0.450	-0.540	2.100
2020/01/31 00:36:32.4	263.750	0.440	-0.550	2.100
2020/01/31 00:36:32.5	263.710	0.430	-0.560	2.100
2020/01/31 00:36:32.6	263.660	0.420	-0.570	2.100
2020/01/31 00:36:32.7	263.620	0.410	-0.580	2.100
2020/01/31 00:36:32.8	263.580	0.400	-0.590	2.090
2020/01/31 00:36:32.9	263.550	0.390	-0.600	2.090
2020/01/31 00:36:33.0	263.510	0.380	-0.600	2.080
2020/01/31 00:36:33.1	263.470	0.360	-0.600	2.070
2020/01/31 00:36:33.2	263.430	0.350	-0.610	2.060
2020/01/31 00:36:33.3	263.390	0.340	-0.600	2.050
2020/01/31 00:36:33.4	263.350	0.320	-0.600	2.030
2020/01/31 00:36:33.5	263.320	0.310	-0.600	2.020
2020/01/31 00:36:33.6	263.280	0.290	-0.590	2.000
2020/01/31 00:36:33.7	263.250	0.270	-0.590	1.990
2020/01/31 00:36:33.8	263.210	0.260	-0.580	1.970
2020/01/31 00:36:33.9	263.190	0.240	-0.570	1.940
2020/01/31 00:36:34.0	263.160	0.220	-0.550	1.920
2020/01/31 00:36:34.1	263.130	0.200	-0.540	1.900
2020/01/31 00:36:34.2	263.100	0.180	-0.530	1.870
2020/01/31 00:36:34.3	263.070	0.160	-0.510	1.850
2020/01/31 00:36:34.4	263.050	0.130	-0.490	1.820
2020/01/31 00:36:34.5	263.020	0.110	-0.480	1.790
2020/01/31 00:36:34.6	263.000	0.080	-0.460	1.760
2020/01/31 00:36:34.7	262.970	0.060	-0.440	1.730
2020/01/31 00:36:34.8	262.950	0.030	-0.420	1.700
2020/01/31 00:36:34.9	262.940	0.010	-0.400	1.670
2020/01/31 00:36:35.0	262.920	-0.020	-0.380	1.650
2020/01/31 00:36:35.1	262.900	-0.050	-0.360	1.620
2020/01/31 00:36:35.2	262.880	-0.080	-0.340	1.590
2020/01/31 00:36:35.3	262.870	-0.110	-0.320	1.560
2020/01/31 00:36:35.4	262.860	-0.140	-0.300	1.540
2020/01/31 00:36:35.5	262.840	-0.170	-0.280	1.520
2020/01/31 00:36:35.6	262.830	-0.200	-0.270	1.500
2020/01/31 00:36:35.7	262.820	-0.220	-0.250	1.480
2020/01/31 00:36:35.8	262.800	-0.250	-0.230	1.460
2020/01/31 00:36:35.9	262.800	-0.280	-0.220	1.440
2020/01/31 00:36:36.0	262.790	-0.310	-0.210	1.430
2020/01/31 00:36:36.1	262.780	-0.340	-0.200	1.420
2020/01/31 00:36:36.2	262.770	-0.360	-0.190	1.410
2020/01/31 00:36:36.3	262.760	-0.390	-0.180	1.400
2020/01/31 00:36:36.4	262.750	-0.410	-0.170	1.390
2020/01/31 00:36:36.5	262.740	-0.440	-0.160	1.390
2020/01/31 00:36:36.6	262.730	-0.460	-0.160	1.390
2020/01/31 00:36:36.7	262.730	-0.480	-0.160	1.390
2020/01/31 00:36:36.8	262.720	-0.500	-0.150	1.390
2020/01/31 00:36:36.9	262.700	-0.520	-0.160	1.390
2020/01/31 00:36:37.0	262.700	-0.540	-0.160	1.390
2020/01/31 00:36:37.1	262.690	-0.560	-0.160	1.400
2020/01/31 00:36:37.2	262.680	-0.570	-0.160	1.410
2020/01/31 00:36:37.3	262.670	-0.590	-0.170	1.420
2020/01/31 00:36:37.4	262.650	-0.600	-0.170	1.440
2020/01/31 00:36:37.5	262.640	-0.610	-0.180	1.450
2020/01/31 00:36:37.6	262.630	-0.620	-0.180	1.470
2020/01/31 00:36:37.7	262.610	-0.630	-0.190	1.490
2020/01/31 00:36:37.8	262.600	-0.640	-0.190	1.500
2020/01/31 00:36:37.9	262.580	-0.640	-0.200	1.530
2020/01/31 00:36:38.0	262.560	-0.650	-0.200	1.550
2020/01/31 00:36:38.1	262.540	-0.650	-0.210	1.570
2020/01/31 00:36:38.2	262.520	-0.650	-0.210	1.600
2020/01/31 00:36:38.3	262.500	-0.650	-0.210	1.620
2020/01/31 00:36:38.4	262.470	-0.650	-0.220	1.650
2020/01/31 00:36:38.5	262.450	-0.650	-0.220	1.680
2020/01/31 00:36:38.6	262.420	-0.650	-0.220	1.710
2020/01/31 00:36:38.7	262.390	-0.650	-0.220	1.740
2020/01/31 00:36:38.8	262.360	-0.640	-0.210	1.760
2020/01/31 00:36:38.9	262.330	-0.640	-0.210	1.790
2020/01/31 00:36:39.0	262.290	-0.630	-0.210	1.820
2020/01/31 00:36:39.1	262.260	-0.620	-0.210	1.850
2020/01/31 00:36:39.2	262.220	-0.620	-0.200	1.870
2020/01/31 00:36:39.3	262.190	-0.610	-0.200	1.900
2020/01/31 00:36:39.4	262.150	-0.600	-0.190	1.920
2020/01/31 00:36:39.5	262.110	-0.590	-0.180	1.950
2020/01/31 00:36:39.6	262.070	-0.580	-0.170	1.970
2020/01/31 00:36:39.7	262.020	-0.570	-0.170	1.990
2020/01/31 00:36:39.8	261.980	-0.550	-0.160	2.010
2020/01/31 00:36:39.9	261.920	-0.540	-0.160	2.030
2020/01/31 00:36:40.0	261.870	-0.520	-0.150	2.040
2020/01/31 00:36:40.1	261.820	-0.510	-0.140	2.060
2020/01/31 00:36:40.2	261.770	-0.490	-0.140	2.070
2020/01/31 00:36:40.3	261.720	-0.480	-0.130	2.080
2020/01/31 00:36:40.4	261.670	-0.460	-0.130	2.080
2020/01/31 00:36:40.5	261.620	-0.440	-0.120	2.090
2020/01/31 00:36:40.6	261.570	-0.420	-0.120	2.090
2020/01/31 00:36:40.7	261.520	-0.400	-0.120	2.090
2020/01/31 00:36:40.8	261.460	-0.370	-0.110	2.090
2020/01/31 00:36:40.9	261.390	-0.350	-0.110	2.080
2020/01/31 00:36:41.0	261.330	-0.330	-0.110	2.080
2020/01/31 00:36:41.1	261.270	-0.300	-0.110	2.070
2020/01/31 00:36:41.2	261.210	-0.280	-0.110	2.060
2020/01/31 00:36:41.3	261.160	-0.250	-0.110	2.050
2020/01/31 00:36:41.4	261.100	-0.220	-0.110	2.040
2020/01/31 00:36:41.5	261.040	-0.190	-0.110	2.020
2020/01/31 00:36:41.6	260.980	-0.160	-0.110	2.010
2020/01/31 00:36:41.7	260.910	-0.130	-0.110	1.990
2020/01/31 00:36:41.8	260.850	-0.100	-0.120	1.970
2020/01/31 00:36:41.9	260.790	-0.070	-0.120	1.960
2020/01/31 00:36:42.0	260.730	-0.040	-0.120	1.940
2020/01/31 00:36:42.1	260.660	-0.010	-0.120	1.920
2020/01/31 00:36:42.2	260.600	0.020	-0.110	1.900
2020/01/31 00:36:42.3	260.530	0.050	-0.110	1.880
2020/01/31 00:36:42.4	260.460	0.080	-0.110	1.870
2020/01/31 00:36:42.5	260.400	0.110	-0.110	1.850
2020/01/31 00:36:42.6	260.330	0.140	-0.110	1.830
2020/01/31 00:36:42.7	260.260	0.170	-0.100	1.820
2020/01/31 00:36:42.8	260.190	0.200	-0.100	1.800
2020/01/31 00:36:42.9	260.120	0.230	-0.090	1.790
2020/01/31 00:36:43.0	260.050	0.260	-0.090	1.780
2020/01/31 00:36:43.1	259.980	0.280	-0.080	1.770
2020/01/31 00:36:43.2	259.910	0.310	-0.070	1.760
2020/01/31 00:36:43.3	259.830	0.330	-0.070	1.750
2020/01/31 00:36:43.4	259.760	0.360	-0.060	1.750
2020/01/31 00:36:43.5	259.690	0.380	-0.050	1.750
2020/01/31 00:36:43.6	259.620	0.400	-0.040	1.750
2020/01/31 00:36:43.7	259.550	0.420	-0.040	1.750
2020/01/31 00:36:43.8	259.470	0.440	-0.030	1.750
2020/01/31 00:36:43.9	259.400	0.450	-0.020	1.760
2020/01/31 00:36:44.0	259.330	0.470	-0.020	1.770
2020/01/31 00:36:44.1	259.260	0.480	-0.010	1.780
2020/01/31 00:36:44.2	259.180	0.500	-0.010	1.790
2020/01/31 00:36:44.3	259.110	0.510	-0.010	1.810
2020/01/31 00:36:44.4	259.040	0.520	-0.010	1.820
2020/01/31 00:36:44.5	258.960	0.530	-0.010	1.840
2020/01/31 00:36:44.6	258.890	0.530	-0.010	1.860
2020/01/31 00:36:44.7	258.820	0.540	-0.010	1.880
2020/01/31 00:36:44.8	258.750	0.540	-0.010	1.900
2020/01/31 00:36:44.9	258.680	0.550	-0.020	1.920
2020/01/31 00:36:45.0	258.610	0.550	-0.030	1.940
2020/01/31 00:36:45.1	258.530	0.550	-0.040	1.970
2020/01/31 00:36:45.2	258.460	0.550	-0.050	1.990
2020/01/31 00:36:45.3	258.390	0.550	-0.060	2.020
2020/01/31 00:36:45.4	258.320	0.550	-0.070	2.050
2020/01/31 00:36:45.5	258.250	0.550	-0.080	2.070
2020/01/31 00:36:45.6	258.190	0.550	-0.100	2.100
2020/01/31 00:36:45.7	258.120	0.550	-0.110	2.130
2020/01/31 00:36:45.8	258.050	0.550	-0.130	2.150
2020/01/31 00:36:45.9	257.970	0.540	-0.140	2.180
2020/01/31 00:36:46.0	257.900	0.540	-0.160	2.210
2020/01/31 00:36:46.1	257.840	0.540	-0.180	2.230
2020/01/31 00:36:46.2	257.770	0.530	-0.200	2.260
2020/01/31 00:36:46.3	257.700	0.530	-0.220	2.280
2020/01/31 00:36:46.4	257.640	0.520	-0.240	2.300
2020/01/31 00:36:46.5	257.570	0.520	-0.260	2.330
2020/01/31 00:36:46.6	257.510	0.510	-0.280	2.350
2020/01/31 00:36:46.7	257.440	0.510	-0.300	2.370
2020/01/31 00:36:46.8	257.380	0.500	-0.320	2.380
2020/01/31 00:36:46.9	257.330	0.500	-0.350	2.400
2020/01/31 00:36:47.0	257.270	0.490	-0.370	2.420
2020/01/31 00:36:47.1	257.210	0.490	-0.390	2.430
2020/01/31 00:36:47.2	257.150	0.480	-0.410	2.440
2020/01/31 00:36:47.3	257.090	0.480	-0.430	2.460
2020/01/31 00:36:47.4	257.030	0.470	-0.450	2.470
2020/01/31 00:36:47.5	256.970	0.460	-0.470	2.480
2020/01/31 00:36:47.6	256.920	0.460	-0.490	2.490
2020/01/31 00:36:47.7	256.860	0.450	-0.510	2.490
2020/01/31 00:36:47.8	256.810	0.440	-0.530	2.500
2020/01/31 00:36:47.9	256.770	0.440	-0.550	2.510
2020/01/31 00:36:48.0	256.720	0.430	-0.570	2.510
2020/01/31 00:36:48.1	256.680	0.420	-0.590	2.510
2020/01/31 00:36:48.2	256.630	0.410	-0.610	2.510
2020/01/31 00:36:48.3	256.580	0.400	-0.630	2.510
2020/01/31 00:36:48.4	256.540	0.390	-0.650	2.500
2020/01/31 00:36:48.5	256.500	0.380	-0.670	2.500
2020/01/31 00:36:48.6	256.460	0.370	-0.690	2.490
2020/01/31 00:36:48.7	256.420	0.360	-0.710	2.480
2020/01/31 00:36:48.8	256.380	0.350	-0.730	2.470
2020/01/31 00:36:48.9	256.360	0.340	-0.750	2.450
2020/01/31 00:36:49.0	256.320	0.330	-0.760	2.440
2020/01/31 00:36:49.1	256.290	0.320	-0.780	2.430
2020/01/31 00:36:49.2	256.260	0.300	-0.790	2.410
2020/01/31 00:36:49.3	256.220	0.290	-0.810	2.400
2020/01/31 00:36:49.4	256.190	0.270	-0.820	2.380
2020/01/31 00:36:49.5	256.170	0.260	-0.830	2.370
2020/01/31 00:36:49.6	256.140	0.240	-0.840	2.350
2020/01/31 00:36:49.7	256.110	0.230	-0.850	2.330
2020/01/31 00:36:49.8	256.090	0.210	-0.850	2.310
2020/01/31 00:36:49.9	256.090	0.190	-0.850	2.290
2020/01/31 00:36:50.0	256.070	0.170	-0.860	2.280
2020/01/31 00:36:50.1	256.050	0.150	-0.860	2.260
2020/01/31 00:36:50.2	256.030	0.130	-0.860	2.240
2020/01/31 00:36:50.3	256.010	0.110	-0.860	2.220
2020/01/31 00:36:50.4	256.000	0.090	-0.850	2.200
2020/01/31 00:36:50.5	255.990	0.070	-0.840	2.190
2020/01/31 00:36:50.6	255.980	0.050	-0.840	2.170
2020/01/31 00:36:50.7	255.970	0.030	-0.830	2.150
2020/01/31 00:36:50.8	255.960	0.000	-0.810	2.140
2020/01/31 00:36:50.9	255.950	-0.020	-0.800	2.120
2020/01/31 00:36:51.0	255.940	-0.040	-0.790	2.110
2020/01/31 00:36:51.1	255.930	-0.070	-0.770	2.100
2020/01/31 00:36:51.2	255.920	-0.090	-0.750	2.090
2020/01/31 00:36:51.3	255.910	-0.110	-0.730	2.090
2020/01/31 00:36:51.4	255.900	-0.140	-0.710	2.080
2020/01/31 00:36:51.5	255.890	-0.160	-0.690	2.080
2020/01/31 00:36:51.6	255.880	-0.180	-0.660	2.080
2020/01/31 00:36:51.7	255.860	-0.200	-0.640	2.090
2020/01/31 00:36:51.8	255.850	-0.230	-0.610	2.090
2020/01/31 00:36:51.9	255.850	-0.250	-0.590	2.100
2020/01/31 00:36:52.0	255.830	-0.270	-0.560	2.110
2020/01/31 00:36:52.1	255.820	-0.290	-0.540	2.130
2020/01/31 00:36:52.2	255.800	-0.310	-0.510	2.140
2020/01/31 00:36:52.3	255.780	-0.330	-0.480	2.160
2020/01/31 00:36:52.4	255.760	-0.350	-0.460	2.180
2020/01/31 00:36:52.5	255.740	-0.370	-0.430	2.200
2020/01/31 00:36:52.6	255.720	-0.390	-0.400	2.230
2020/01/31 00:36:52.7	255.700	-0.410	-0.370	2.250
2020/01/31 00:36:52.8	255.670	-0.430	-0.340	2.280
2020/01/31 00:36:52.9	255.640	-0.450	-0.310	2.300
2020/01/31 00:36:53.0	255.620	-0.470	-0.290	2.330
2020/01/31 00:36:53.1	255.590	-0.480	-0.260	2.360
2020/01/31 00:36:53.2	255.560	-0.500	-0.230	2.390
2020/01/31 00:36:53.3	255.530	-0.510	-0.200	2.420
2020/01/31 00:36:53.4	255.500	-0.530	-0.170	2.440
2020/01/31 00:36:53.5	255.470	-0.540	-0.140	2.470
2020/01/31 00:36:53.6	255.440	-0.550	-0.110	2.500
2020/01/31 00:36:53.7	255.410	-0.570	-0.080	2.530
2020/01/31 00:36:53.8	255.380	-0.580	-0.060	2.550
2020/01/31 00:36:53.9	255.340	-0.590	-0.030	2.580
2020/01/31 00:36:54.0	255.320	-0.600	0.000	2.600
2020/01/31 00:36:54.1	255.290	-0.610	0.030	2.620
2020/01/31 00:36:54.2	255.260	-0.620	0.060	2.640
2020/01/31 00:36:54.3	255.230	-0.620	0.080	2.660
2020/01/31 00:36:54.4	255.210	-0.630	0.110	2.670
2020/01/31 00:36:54.5	255.180	-0.630	0.140	2.680
2020/01/31 00:36:54.6	255.160	-0.640	0.160	2.690
2020/01/31 00:36:54.7	255.140	-0.640	0.190	2.700
2020/01/31 00:36:54.8	255.120	-0.640	0.210	2.700
2020/01/31 00:36:54.9	255.090	-0.640	0.230	2.700
2020/01/31 00:36:55.0	255.070	-0.640	0.250	2.700
2020/01/31 00:36:55.1	255.060	-0.640	0.270	2.690
2020/01/31 00:36:55.2	255.040	-0.640	0.280	2.690
2020/01/31 00:36:55.3	255.030	-0.630	0.300	2.670
2020/01/31 00:36:55.4	255.010	-0.620	0.310	2.660
2020/01/31 00:36:55.5	255.000	-0.620	0.320	2.640
2020/01/31 00:36:55.6	254.990	-0.610	0.320	2.630
2020/01/31 00:36:55.7	254.980	-0.590	0.330	2.610
2020/01/31 00:36:55.8	254.970	-0.580	0.330	2.580
2020/01/31 00:36:55.9	254.940	-0.560	0.320	2.560
2020/01/31 00:36:56.0	254.930	-0.550	0.320	2.530
2020/01/31 00:36:56.1	254.920	-0.530	0.310	2.500
2020/01/31 00:36:56.2	254.910	-0.510	0.300	2.470
2020/01/31 00:36:56.3	254.900	-0.480	0.290	2.440
2020/01/31 00:36:56.4	254.900	-0.460	0.270	2.400
2020/01/31 00:36:56.5	254.890	-0.430	0.250	2.370
2020/01/31 00:36:56.6	254.880	-0.410	0.230	2.330
2020/01/31 00:36:56.7	254.870	-0.380	0.210	2.290
2020/01/31 00:36:56.8	254.860	-0.350	0.180	2.260
2020/01/31 00:36:56.9	254.850	-0.320	0.150	2.220
2020/01/31 00:36:57.0	254.840	-0.290	0.120	2.190
2020/01/31 00:36:57.1	254.830	-0.250	0.090	2.150
2020/01/31 00:36:57.2	254.820	-0.220	0.060	2.110
2020/01/31 00:36:57.3	254.820	-0.190	0.030	2.080
2020/01/31 00:36:57.4	254.810	-0.150	-0.000	2.050
2020/01/31 00:36:57.5	254.810	-0.120	-0.040	2.010
2020/01/31 00:36:57.6	254.800	-0.090	-0.070	1.980
2020/01/31 00:36:57.7	254.800	-0.050	-0.100	1.950
2020/01/31 00:36:57.8	254.790	-0.020	-0.140	1.930
2020/01/31 00:36:57.9	254.800	0.010	-0.180	1.900
2020/01/31 00:36:58.0	254.790	0.040	-0.210	1.880
2020/01/31 00:36:58.1	254.790	0.080	-0.250	1.860
2020/01/31 00:36:58.2	254.790	0.100	-0.280	1.840
2020/01/31 00:36:58.3	254.780	0.130	-0.310	1.830
2020/01/31 00:36:58.4	254.780	0.160	-0.340	1.820
2020/01/31 00:36:58.5	254.780	0.190	-0.380	1.810
2020/01/31 00:36:58.6	254.770	0.210	-0.410	1.810
2020/01/31 00:36:58.7	254.770	0.230	-0.430	1.810
2020/01/31 00:36:58.8	254.760	0.250	-0.460	1.810
2020/01/31 00:36:58.9	254.750	0.270	-0.490	1.810
2020/01/31 00:36:59.0	254.740	0.290	-0.520	1.820
2020/01/31 00:36:59.1	254.730	0.310	-0.540	1.820
2020/01/31 00:36:59.2	254.720	0.320	-0.560	1.840
2020/01/31 00:36:59.3	254.710	0.330	-0.580	1.850
2020/01/31 00:36:59.4	254.700	0.340	-0.600	1.870
2020/01/31 00:36:59.5	254.680	0.350	-0.620	1.890
2020/01/31 00:36:59.6	254.660	0.360	-0.630	1.910
2020/01/31 00:36:59.7	254.640	0.370	-0.640	1.930
2020/01/31 00:36:59.8	254.620	0.370	-0.650	1.950
2020/01/31 00:36:59.9	254.610	0.370	-0.660	1.980
2020/01/31 00:37:00.0	254.590	0.370	-0.670	2.010
2020/01/31 00:37:00.1	254.560	0.370	-0.670	2.040
2020/01/31 00:37:00.2	254.540	0.370	-0.670	2.060
2020/01/31 00:37:00.3	254.510	0.370	-0.670	2.090
2020/01/31 00:37:00.4	254.480	0.370	-0.660	2.120
2020/01/31 00:37:00.5	254.460	0.360	-0.660	2.150
2020/01/31 00:37:00.6	254.430	0.360	-0.650	2.170
2020/01/31 00:37:00.7	254.390	0.350	-0.630	2.200
2020/01/31 00:37:00.8	254.360	0.340	-0.620	2.220
2020/01/31 00:37:00.9	254.350	0.330	-0.600	2.240
2020/01/31 00:37:01.0	254.320	0.320	-0.580	2.260
2020/01/31 00:37:01.1	254.290	0.310	-0.560	2.270
2020/01/31 00:37:01.2	254.250	0.300	-0.530	2.290
2020/01/31 00:37:01.3	254.220	0.290	-0.510	2.300
2020/01/31 00:37:01.4	254.190	0.270	-0.480	2.310
2020/01/31 00:37:01.5	254.160	0.260	-0.450	2.310
2020/01/31 00:37:01.6	254.130	0.240	-0.420	2.310
2020/01/31 00:37:01.7	254.100	0.230	-0.390	2.310
2020/01/31 00:37:01.8	254.070	0.210	-0.350	2.310
2020/01/31 00:37:01.9	254.030	0.190	-0.320	2.310
2020/01/31 00:37:02.0	254.000	0.180	-0.290	2.300
2020/01/31 00:37:02.1	253.980	0.160	-0.250	2.280
2020/01/31 00:37:02.2	253.950	0.140	-0.220	2.270
2020/01/31 00:37:02.3	253.930	0.120	-0.190	2.250
2020/01/31 00:37:02.4	253.900	0.100	-0.160	2.230
2020/01/31 00:37:02.5	253.880	0.080	-0.120	2.200
2020/01/31 00:37:02.6	253.860	0.060	-0.100	2.170
2020/01/31 00:37:02.7	253.840	0.040	-0.070	2.140
2020/01/31 00:37:02.8	253.830	0.020	-0.040	2.110
2020/01/31 00:37:02.9	253.810	-0.000	-0.010	2.070
2020/01/31 00:37:03.0	253.790	-0.020	0.010	2.030
2020/01/31 00:37:03.1	253.780	-0.050	0.030	1.990
2020/01/31 00:37:03.2	253.770	-0.070	0.040	1.950
2020/01/31 00:37:03.3	253.760	-0.090	0.060	1.910
2020/01/31 00:37:03.4	253.750	-0.100	0.070	1.870
2020/01/31 00:37:03.5	253.750	-0.120	0.080	1.820
2020/01/31 00:37:03.6	253.740	-0.140	0.080	1.780
2020/01/31 00:37:03.7	253.740	-0.160	0.090	1.730
2020/01/31 00:37:03.8	253.740	-0.170	0.080	1.680
2020/01/31 00:37:03.9	253.740	-0.190	0.080	1.640
2020/01/31 00:37:04.0	253.740	-0.200	0.070	1.590
2020/01/31 00:37:04.1	253.740	-0.210	0.060	1.540
2020/01/31 00:37:04.2	253.740	-0.220	0.040	1.500
2020/01/31 00:37:04.3	253.740	-0.230	0.030	1.450
2020/01/31 00:37:04.4	253.740	-0.230	0.000	1.410
2020/01/31 00:37:04.5	253.740	-0.230	-0.020	1.370
2020/01/31 00:37:04.6	253.750	-0.240	-0.050	1.330
2020/01/31 00:37:04.7	253.750	-0.230	-0.080	1.290
2020/01/31 00:37:04.8	253.750	-0.230	-0.110	1.260
2020/01/31 00:37:04.9	253.760	-0.220	-0.150	1.230
2020/01/31 00:37:05.0	253.760	-0.220	-0.180	1.190
2020/01/31 00:37:05.1	253.770	-0.210	-0.220	1.160
2020/01/31 00:37:05.2	253.770	-0.190	-0.260	1.130
2020/01/31 00:37:05.3	253.770	-0.180	-0.300	1.100
2020/01/31 00:37:05.4	253.770	-0.160	-0.330	1.080
2020/01/31 00:37:05.5	253.770	-0.140	-0.370	1.050
2020/01/31 00:37:05.6	253.780	-0.120	-0.410	1.030
2020/01/31 00:37:05.7	253.780	-0.100	-0.450	1.010
2020/01/31 00:37:05.8	253.780	-0.080	-0.480	1.000
2020/01/31 00:37:05.9	253.790	-0.060	-0.510	0.980
2020/01/31 00:37:06.0	253.790	-0.030	-0.540	0.970
2020/01/31 00:37:06.1	253.790	-0.010	-0.570	0.960
2020/01/31 00:37:06.2	253.790	0.020	-0.600	0.950
2020/01/31 00:37:06.3	253.800	0.040	-0.620	0.950
2020/01/31 00:37:06.4	253.800	0.070	-0.640	0.950
2020/01/31 00:37:06.5	253.800	0.100	-0.650	0.960
2020/01/31 00:37:06.6	253.800	0.120	-0.670	0.970
2020/01/31 00:37:06.7	253.810	0.140	-0.680	0.980
2020/01/31 00:37:06.8	253.810	0.170	-0.690	1.000
2020/01/31 00:37:06.9	253.810	0.190	-0.690	1.020
2020/01/31 00:37:07.0	253.810	0.210	-0.690	1.040
2020/01/31 00:37:07.1	253.810	0.230	-0.690	1.060
2020/01/31 00:37:07.2	253.810	0.250	-0.680	1.090
2020/01/31 00:37:07.3	253.800	0.270	-0.680	1.120
2020/01/31 00:37:07.4	253.800	0.280	-0.670	1.150
2020/01/31 00:37:07.5	253.800	0.290	-0.660	1.180
2020/01/31 00:37:07.6	253.790	0.300	-0.650	1.220
2020/01/31 00:37:07.7	253.790	0.310	-0.630	1.250
2020/01/31 00:37:07.8	253.780	0.310	-0.620	1.280
2020/01/31 00:37:07.9	253.780	0.320	-0.600	1.320
2020/01/31 00:37:08.0	253.770	0.320	-0.580	1.350
2020/01/31 00:37:08.1	253.770	0.320	-0.570	1.390
2020/01/31 00:37:08.2	253.760	0.310	-0.550	1.420
2020/01/31 00:37:08.3	253.760	0.310	-0.530	1.460
2020/01/31 00:37:08.4	253.750	0.300	-0.520	1.490
2020/01/31 00:37:08.5	253.740	0.290	-0.500	1.530
2020/01/31 00:37:08.6	253.730	0.280	-0.490	1.560
2020/01/31 00:37:08.7	253.720	0.270	-0.470	1.590
2020/01/31 00:37:08.8	253.710	0.260	-0.460	1.620
2020/01/31 00:37:08.9	253.690	0.240	-0.450	1.640
2020/01/31 00:37:09.0	253.680	0.230	-0.440	1.670
2020/01/31 00:37:09.1	253.670	0.210	-0.430	1.690
2020/01/31 00:37:09.2	253.650	0.190	-0.420	1.710
2020/01/31 00:37:09.3	253.640	0.180	-0.410	1.730
2020/01/31 00:37:09.4	253.620	0.160	-0.410	1.750
2020/01/31 00:37:09.5	253.600	0.140	-0.400	1.770
2020/01/31 00:37:09.6	253.580	0.120	-0.400	1.780
2020/01/31 00:37:09.7	253.560	0.100	-0.400	1.800
2020/01/31 00:37:09.8	253.540	0.080	-0.400	1.810
2020/01/31 00:37:09.9	253.510	0.050	-0.400	1.810
2020/01/31 00:37:10.0	253.490	0.030	-0.400	1.820
2020/01/31 00:37:10.1	253.470	0.010	-0.400	1.820
2020/01/31 00:37:10.2	253.440	-0.010	-0.400	1.820
2020/01/31 00:37:10.3	253.420	-0.030	-0.400	1.820
2020/01/31 00:37:10.4	253.390	-0.050	-0.400	1.810
2020/01/31 00:37:10.5	253.370	-0.080	-0.390	1.810
2020/01/31 00:37:10.6	253.350	-0.100	-0.390	1.800
2020/01/31 00:37:10.7	253.320	-0.120	-0.390	1.780
2020/01/31 00:37:10.8	253.300	-0.140	-0.390	1.770
2020/01/31 00:37:10.9	253.280	-0.160	-0.380	1.750
2020/01/31 00:37:11.0	253.270	-0.180	-0.370	1.720
2020/01/31 00:37:11.1	253.250	-0.210	-0.370	1.700
2020/01/31 00:37:11.2	253.240	-0.230	-0.360	1.680
2020/01/31 00:37:11.3	253.230	-0.250	-0.340	1.650
2020/01/31 00:37:11.4	253.220	-0.270	-0.330	1.620
2020/01/31 00:37:11.5	253.220	-0.280	-0.320	1.590
2020/01/31 00:37:11.6	253.220	-0.300	-0.300	1.560
2020/01/31 00:37:11.7	253.220	-0.320	-0.280	1.530
2020/01/31 00:37:11.8	253.220	-0.340	-0.270	1.500
2020/01/31 00:37:11.9	253.230	-0.360	-0.250	1.460
2020/01/31 00:37:12.0	253.230	-0.370	-0.230	1.430
2020/01/31 00:37:12.1	253.250	-0.390	-0.210	1.400
2020/01/31 00:37:12.2	253.260	-0.400	-0.190	1.370
2020/01/31 00:37:12.3	253.270	-0.420	-0.170	1.330
2020/01/31 00:37:12.4	253.290	-0.430	-0.150	1.310
2020/01/31 00:37:12.5	253.300	-0.440	-0.140	1.280
2020/01/31 00:37:12.6	253.320	-0.450	-0.120	1.250
2020/01/31 00:37:12.7	253.340	-0.460	-0.110	1.230
2020/01/31 00:37:12.8	253.350	-0.470	-0.100	1.210
2020/01/31 00:37:12.9	253.370	-0.480	-0.080	1.190
2020/01/31 00:37:13.0	253.390	-0.490	-0.080	1.170
2020/01/31 00:37:13.1	253.410	-0.490	-0.070	1.150
2020/01/31 00:37:13.2	253.420	-0.500	-0.070	1.140
2020/01/31 00:37:13.3	253.440	-0.500	-0.070	1.130
2020/01/31 00:37:13.4	253.450	-0.510	-0.070	1.120
2020/01/31 00:37:13.5	253.470	-0.510	-0.070	1.110
2020/01/31 00:37:13.6	253.490	-0.510	-0.070	1.100
2020/01/31 00:37:13.7	253.500	-0.510	-0.070	1.090
2020/01/31 00:37:13.8	253.510	-0.510	-0.080	1.090
2020/01/31 00:37:13.9	253.530	-0.510	-0.090	1.090
2020/01/31 00:37:14.0	253.540	-0.510	-0.100	1.080
2020/01/31 00:37:14.1	253.560	-0.510	-0.110	1.080
2020/01/31 00:37:14.2	253.570	-0.510	-0.120	1.080
2020/01/31 00:37:14.3	253.580	-0.500	-0.120	1.080
2020/01/31 00:37:14.4	253.590	-0.500	-0.130	1.090
2020/01/31 00:37:14.5	253.590	-0.490	-0.140	1.090
2020/01/31 00:37:14.6	253.600	-0.480	-0.150	1.100
2020/01/31 00:37:14.7	253.610	-0.470	-0.150	1.100
2020/01/31 00:37:14.8	253.620	-0.460	-0.160	1.110
2020/01/31 00:37:14.9	253.620	-0.450	-0.160	1.120
2020/01/31 00:37:15.0	253.620	-0.440	-0.160	1.130
2020/01/31 00:37:15.1	253.630	-0.430	-0.160	1.140
2020/01/31 00:37:15.2	253.630	-0.420	-0.160	1.150
2020/01/31 00:37:15.3	253.640	-0.400	-0.160	1.160
2020/01/31 00:37:15.4	253.640	-0.390	-0.150	1.170
2020/01/31 00:37:15.5	253.650	-0.370	-0.140	1.190
2020/01/31 00:37:15.6	253.650	-0.360	-0.130	1.200
2020/01/31 00:37:15.7	253.660	-0.340	-0.120	1.220
2020/01/31 00:37:15.8	253.660	-0.330	-0.110	1.240
2020/01/31 00:37:15.9	253.670	-0.310	-0.100	1.250
2020/01/31 00:37:16.0	253.680	-0.290	-0.080	1.270
2020/01/31 00:37:16.1	253.680	-0.280	-0.070	1.290
2020/01/31 00:37:16.2	253.690	-0.260	-0.050	1.310
2020/01/31 00:37:16.3	253.700	-0.240	-0.040	1.330
2020/01/31 00:37:16.4	253.710	-0.220	-0.030	1.350
2020/01/31 00:37:16.5	253.720	-0.200	-0.020	1.380
2020/01/31 00:37:16.6	253.730	-0.180	-0.010	1.400
2020/01/31 00:37:16.7	253.730	-0.160	0.000	1.430
2020/01/31 00:37:16.8	253.740	-0.140	0.010	1.450
2020/01/31 00:37:16.9	253.750	-0.120	0.010	1.470
2020/01/31 00:37:17.0	253.760	-0.100	0.010	1.500
2020/01/31 00:37:17.1	253.760	-0.080	0.010	1.520
2020/01/31 00:37:17.2	253.770	-0.060	0.010	1.550
2020/01/31 00:37:17.3	253.770	-0.040	-0.000	1.580
2020/01/31 00:37:17.4	253.780	-0.020	-0.010	1.600
2020/01/31 00:37:17.5	253.780	0.000	-0.020	1.630
2020/01/31 00:37:17.6	253.780	0.020	-0.040	1.650
2020/01/31 00:37:17.7	253.780	0.050	-0.060	1.680
2020/01/31 00:37:17.8	253.780	0.070	-0.080	1.700
2020/01/31 00:37:17.9	253.770	0.090	-0.100	1.730
2020/01/31 00:37:18.0	253.770	0.120	-0.130	1.750
2020/01/31 00:37:18.1	253.770	0.140	-0.150	1.770
2020/01/31 00:37:18.2	253.760	0.160	-0.180	1.790
2020/01/31 00:37:18.3	253.760	0.180	-0.200	1.810
2020/01/31 00:37:18.4	253.750	0.210	-0.230	1.830
2020/01/31 00:37:18.5	253.740	0.230	-0.260	1.840
2020/01/31 00:37:18.6	253.730	0.250	-0.290	1.860
2020/01/31 00:37:18.7	253.720	0.270	-0.320	1.870
2020/01/31 00:37:18.8	253.710	0.300	-0.350	1.880
2020/01/31 00:37:18.9	253.690	0.320	-0.380	1.880
2020/01/31 00:37:19.0	253.680	0.340	-0.400	1.880
2020/01/31 00:37:19.1	253.660	0.360	-0.430	1.880
2020/01/31 00:37:19.2	253.640	0.370	-0.450	1.880
2020/01/31 00:37:19.3	253.630	0.390	-0.470	1.880
2020/01/31 00:37:19.4	253.610	0.410	-0.500	1.870
2020/01/31 00:37:19.5	253.590	0.420	-0.510	1.860
2020/01/31 00:37:19.6	253.560	0.430	-0.530	1.850
2020/01/31 00:37:19.7	253.540	0.440	-0.550	1.840
2020/01/31 00:37:19.8	253.510	0.450	-0.560	1.820
2020/01/31 00:37:19.9	253.480	0.460	-0.570	1.810
2020/01/31 00:37:20.0	253.460	0.470	-0.580	1.790
2020/01/31 00:37:20.1	253.430	0.470	-0.580	1.770
2020/01/31 00:37:20.2	253.400	0.470	-0.590	1.750
2020/01/31 00:37:20.3	253.370	0.480	-0.590	1.720
2020/01/31 00:37:20.4	253.340	0.480	-0.590	1.700
2020/01/31 00:37:20.5	253.310	0.470	-0.590	1.680
2020/01/31 00:37:20.6	253.280	0.470	-0.580	1.650
2020/01/31 00:37:20.7	253.250	0.460	-0.580	1.620
2020/01/31 00:37:20.8	253.220	0.460	-0.570	1.590
2020/01/31 00:37:20.9	253.190	0.450	-0.560	1.560
2020/01/31 00:37:21.0	253.160	0.440	-0.550	1.530
2020/01/31 00:37:21.1	253.130	0.430	-0.540	1.510
2020/01/31 00:37:21.2	253.100	0.420	-0.530	1.470
2020/01/31 00:37:21.3	253.070	0.400	-0.520	1.440
2020/01/31 00:37:21.4	253.050	0.390	-0.510	1.410
2020/01/31 00:37:21.5	253.020	0.380	-0.500	1.380
2020/01/31 00:37:21.6	253.000	0.360	-0.490	1.350
2020/01/31 00:37:21.7	252.980	0.340	-0.470	1.330
2020/01/31 00:37:21.8	252.960	0.330	-0.460	1.300
2020/01/31 00:37:21.9	252.930	0.310	-0.450	1.270
2020/01/31 00:37:22.0	252.910	0.290	-0.440	1.240
2020/01/31 00:37:22.1	252.900	0.270	-0.430	1.210
2020/01/31 00:37:22.2	252.880	0.250	-0.420	1.190
2020/01/31 00:37:22.3	252.870	0.230	-0.410	1.160
2020/01/31 00:37:22.4	252.860	0.210	-0.400	1.140
2020/01/31 00:37:22.5	252.840	0.190	-0.400	1.110
2020/01/31 00:37:22.6	252.830	0.170	-0.390	1.090
2020/01/31 00:37:22.7	252.830	0.150	-0.380	1.070
2020/01/31 00:37:22.8	252.820	0.130	-0.380	1.050
2020/01/31 00:37:22.9	252.800	0.110	-0.380	1.030
2020/01/31 00:37:23.0	252.800	0.090	-0.380	1.000
2020/01/31 00:37:23.1	252.800	0.070	-0.370	0.980
2020/01/31 00:37:23.2	252.790	0.050	-0.370	0.960
2020/01/31 00:37:23.3	252.790	0.030	-0.370	0.940
2020/01/31 00:37:23.4	252.800	0.010	-0.370	0.920
2020/01/31 00:37:23.5	252.800	-0.010	-0.370	0.900
2020/01/31 00:37:23.6	252.800	-0.020	-0.370	0.880
2020/01/31 00:37:23.7	252.810	-0.040	-0.370	0.850
2020/01/31 00:37:23.8	252.820	-0.060	-0.370	0.830
2020/01/31 00:37:23.9	252.830	-0.080	-0.370	0.810
2020/01/31 00:37:24.0	252.840	-0.090	-0.370	0.790
2020/01/31 00:37:24.1	252.850	-0.110	-0.370	0.770
2020/01/31 00:37:24.2	252.870	-0.120	-0.370	0.750
2020/01/31 00:37:24.3	252.880	-0.140	-0.370	0.730
2020/01/31 00:37:24.4	252.900	-0.150	-0.370	0.720
2020/01/31 00:37:24.5	252.910	-0.160	-0.370	0.700
2020/01/31 00:37:24.6	252.930	-0.170	-0.370	0.690
2020/01/31 00:37:24.7	252.950	-0.180	-0.370	0.670
2020/01/31 00:37:24.8	252.970	-0.190	-0.370	0.660
2020/01/31 00:37:24.9	252.990	-0.200	-0.380	0.650
2020/01/31 00:37:25.0	253.010	-0.210	-0.380	0.640
2020/01/31 00:37:25.1	253.030	-0.220	-0.380	0.630
2020/01/31 00:37:25.2	253.050	-0.230	-0.380	0.630
2020/01/31 00:37:25.3	253.060	-0.240	-0.380	0.630
2020/01/31 00:37:25.4	253.080	-0.240	-0.380	0.630
2020/01/31 00:37:25.5	253.100	-0.250	-0.380	0.630
2020/01/31 00:37:25.6	253.120	-0.260	-0.380	0.630
2020/01/31 00:37:25.7	253.140	-0.260	-0.380	0.630
2020/01/31 00:37:25.8	253.160	-0.270	-0.380	0.640
2020/01/31 00:37:25.9	253.170	-0.280	-0.390	0.650
2020/01/31 00:37:26.0	253.190	-0.280	-0.390	0.660
2020/01/31 00:37:26.1	253.210	-0.290	-0.390	0.670
2020/01/31 00:37:26.2	253.230	-0.300	-0.390	0.680
2020/01/31 00:37:26.3	253.250	-0.300	-0.390	0.700
2020/01/31 00:37:26.4	253.260	-0.310	-0.380	0.710
2020/01/31 00:37:26.5	253.280	-0.310	-0.380	0.730
2020/01/31 00:37:26.6	253.300	-0.320	-0.380	0.750
2020/01/31 00:37:26.7	253.310	-0.320	-0.370	0.760
2020/01/31 00:37:26.8	253.330	-0.330	-0.370	0.780
2020/01/31 00:37:26.9	253.350	-0.330	-0.350	0.800
2020/01/31 00:37:27.0	253.360	-0.340	-0.350	0.830
2020/01/31 00:37:27.1	253.370	-0.340	-0.340	0.850
2020/01/31 00:37:27.2	253.390	-0.340	-0.320	0.870
2020/01/31 00:37:27.3	253.400	-0.340	-0.310	0.890
2020/01/31 00:37:27.4	253.410	-0.350	-0.300	0.910
2020/01/31 00:37:27.5	253.420	-0.350	-0.280	0.930
2020/01/31 00:37:27.6	253.430	-0.350	-0.260	0.950
2020/01/31 00:37:27.7	253.440	-0.350	-0.250	0.970
2020/01/31 00:37:27.8	253.450	-0.340	-0.230	0.990
2020/01/31 00:37:27.9	253.460	-0.340	-0.200	1.010
2020/01/31 00:37:28.0	253.460	-0.340	-0.180	1.030
2020/01/31 00:37:28.1	253.470	-0.330	-0.160	1.050
2020/01/31 00:37:28.2	253.470	-0.320	-0.140	1.060
2020/01/31 00:37:28.3	253.480	-0.310	-0.120	1.070
2020/01/31 00:37:28.4	253.480	-0.310	-0.100	1.090
2020/01/31 00:37:28.5	253.480	-0.290	-0.080	1.100
2020/01/31 00:37:28.6	253.480	-0.280	-0.060	1.110
2020/01/31 00:37:28.7	253.480	-0.270	-0.040	1.120
2020/01/31 00:37:28.8	253.480	-0.260	-0.020	1.130
2020/01/31 00:37:28.9	253.480	-0.240	0.000	1.140
2020/01/31 00:37:29.0	253.480	-0.220	0.020	1.150
2020/01/31 00:37:29.1	253.470	-0.210	0.030	1.160
2020/01/31 00:37:29.2	253.470	-0.190	0.040	1.170
2020/01/31 00:37:29.3	253.460	-0.170	0.060	1.180
2020/01/31 00:37:29.4	253.450	-0.150	0.070	1.190
2020/01/31 00:37:29.5	253.440	-0.130	0.070	1.200
2020/01/31 00:37:29.6	253.430	-0.110	0.080	1.210
2020/01/31 00:37:29.7	253.420	-0.090	0.080	1.220
2020/01/31 00:37:29.8	253.400	-0.070	0.080	1.230
2020/01/31 00:37:29.9	253.390	-0.040	0.080	1.230
2020/01/31 00:37:30.0	253.380	-0.020	0.080	1.240
2020/01/31 00:37:30.1	253.360	-0.000	0.070	1.250
2020/01/31 00:37:30.2	253.340	0.020	0.070	1.260
2020/01/31 00:37:30.3	253.330	0.040	0.060	1.270
2020/01/31 00:37:30.4	253.310	0.060	0.050	1.270
2020/01/31 00:37:30.5	253.290	0.080	0.030	1.280
2020/01/31 00:37:30.6	253.270	0.110	0.010	1.290
2020/01/31 00:37:30.7	253.250	0.120	-0.000	1.300
2020/01/31 00:37:30.8	253.230	0.140	-0.020	1.300
2020/01/31 00:37:30.9	253.200	0.160	-0.050	1.310
2020/01/31 00:37:31.0	253.180	0.180	-0.070	1.310
2020/01/31 00:37:31.1	253.160	0.200	-0.100	1.320
2020/01/31 00:37:31.2	253.140	0.210	-0.130	1.320
2020/01/31 00:37:31.3	253.120	0.230	-0.160	1.330
2020/01/31 00:37:31.4	253.090	0.240	-0.190	1.330
2020/01/31 00:37:31.5	253.070	0.250	-0.220	1.330
2020/01/31 00:37:31.6	253.050	0.260	-0.250	1.340
2020/01/31 00:37:31.7	253.030	0.270	-0.290	1.340
2020/01/31 00:37:31.8	253.000	0.280	-0.320	1.340
2020/01/31 00:37:31.9	252.970	0.290	-0.360	1.340
2020/01/31 00:37:32.0	252.950	0.300	-0.390	1.340
2020/01/31 00:37:32.1	252.930	0.300	-0.420	1.340
2020/01/31 00:37:32.2	252.900	0.300	-0.440	1.330
2020/01/31 00:37:32.3	252.880	0.310	-0.470	1.330
2020/01/31 00:37:32.4	252.860	0.310	-0.490	1.330
2020/01/31 00:37:32.5	252.850	0.310	-0.510	1.320
2020/01/31 00:37:32.6	252.830	0.300	-0.530	1.320
2020/01/31 00:37:32.7	252.810	0.300	-0.540	1.310
2020/01/31 00:37:32.8	252.790	0.300	-0.550	1.300
2020/01/31 00:37:32.9	252.780	0.290	-0.560	1.290
2020/01/31 00:37:33.0	252.770	0.280	-0.560	1.280
2020/01/31 00:37:33.1	252.750	0.270	-0.560	1.270
2020/01/31 00:37:33.2	252.740	0.260	-0.550	1.260
2020/01/31 00:37:33.3	252.730	0.250	-0.540	1.250
2020/01/31 00:37:33.4	252.710	0.240	-0.530	1.240
2020/01/31 00:37:33.5	252.700	0.220	-0.520	1.220
2020/01/31 00:37:33.6	252.690	0.210	-0.500	1.210
2020/01/31 00:37:33.7	252.680	0.190	-0.480	1.190
2020/01/31 00:37:33.8	252.670	0.180	-0.460	1.170
2020/01/31 00:37:33.9	252.670	0.160	-0.440	1.160
2020/01/31 00:37:34.0	252.660	0.140	-0.420	1.140
2020/01/31 00:37:34.1	252.650	0.120	-0.390	1.120
2020/01/31 00:37:34.2	252.640	0.110	-0.370	1.100
2020/01/31 00:37:34.3	252.630	0.090	-0.350	1.080
2020/01/31 00:37:34.4	252.620	0.070	-0.320	1.060
2020/01/31 00:37:34.5	252.610	0.060	-0.300	1.040
2020/01/31 00:37:34.6	252.600	0.040	-0.280	1.030
2020/01/31 00:37:34.7	252.590	0.020	-0.260	1.010
2020/01/31 00:37:34.8	252.580	0.010	-0.240	0.990
2020/01/31 00:37:34.9	252.570	-0.000	-0.230	0.980
2020/01/31 00:37:35.0	252.560	-0.020	-0.210	0.960
2020/01/31 00:37:35.1	252.550	-0.030	-0.200	0.950
2020/01/31 00:37:35.2	252.540	-0.040	-0.190	0.930
2020/01/31 00:37:35.3	252.530	-0.050	-0.190	0.920
2020/01/31 00:37:35.4	252.520	-0.060	-0.180	0.910
2020/01/31 00:37:35.5	252.510	-0.060	-0.180	0.900
2020/01/31 00:37:35.6	252.510	-0.070	-0.180	0.890
2020/01/31 00:37:35.7	252.500	-0.070	-0.180	0.880
2020/01/31 00:37:35.8	252.490	-0.080	-0.190	0.880
2020/01/31 00:37:35.9	252.480	-0.080	-0.200	0.870
2020/01/31 00:37:36.0	252.480	-0.080	-0.200	0.860
2020/01/31 00:37:36.1	252.470	-0.080	-0.210	0.860
2020/01/31 00:37:36.2	252.470	-0.080	-0.220	0.850
2020/01/31 00:37:36.3	252.470	-0.070	-0.230	0.850
2020/01/31 00:37:36.4	252.470	-0.070	-0.250	0.850
2020/01/31 00:37:36.5	252.470	-0.060	-0.260	0.850
2020/01/31 00:37:36.6	252.480	-0.060	-0.270	0.850
2020/01/31 00:37:36.7	252.480	-0.050	-0.290	0.850
2020/01/31 00:37:36.8	252.490	-0.040	-0.300	0.850
2020/01/31 00:37:36.9	252.490	-0.030	-0.320	0.850
2020/01/31 00:37:37.0	252.500	-0.020	-0.330	0.860
2020/01/31 00:37:37.1	252.510	-0.010	-0.350	0.860
2020/01/31 00:37:37.2	252.520	0.000	-0.360	0.870
2020/01/31 00:37:37.3	252.530	0.020	-0.380	0.870
2020/01/31 00:37:37.4	252.540	0.030	-0.400	0.880
2020/01/31 00:37:37.5	252.560	0.040	-0.410	0.890
2020/01/31 00:37:37.6	252.570	0.060	-0.430	0.900
2020/01/31 00:37:37.7	252.580	0.070	-0.440	0.910
2020/01/31 00:37:37.8	252.600	0.090	-0.460	0.920
2020/01/31 00:37:37.9	252.620	0.100	-0.480	0.930
2020/01/31 00:37:38.0	252.630	0.120	-0.490	0.950
2020/01/31 00:37:38.1	252.650	0.130	-0.510	0.960
2020/01/31 00:37:38.2	252.660	0.150	-0.530	0.980
2020/01/31 00:37:38.3	252.680	0.160	-0.550	0.990
2020/01/31 00:37:38.4	252.690	0.170	-0.560	1.010
2020/01/31 00:37:38.5	252.700	0.190	-0.580	1.030
2020/01/31 00:37:38.6	252.720	0.200	-0.590	1.050
2020/01/31 00:37:38.7	252.730	0.210	-0.610	1.070
2020/01/31 00:37:38.8	252.740	0.220	-0.620	1.090
2020/01/31 00:37:38.9	252.750	0.230	-0.630	1.100
2020/01/31 00:37:39.0	252.770	0.240	-0.640	1.120
2020/01/31 00:37:39.1	252.780	0.240	-0.650	1.150
2020/01/31 00:37:39.2	252.800	0.250	-0.660	1.170
2020/01/31 00:37:39.3	252.810	0.250	-0.670	1.190
2020/01/31 00:37:39.4	252.820	0.250	-0.670	1.210
2020/01/31 00:37:39.5	252.840	0.250	-0.670	1.230
2020/01/31 00:37:39.6	252.850	0.240	-0.670	1.250
2020/01/31 00:37:39.7	252.870	0.240	-0.670	1.270
2020/01/31 00:37:39.8	252.880	0.230	-0.660	1.290
2020/01/31 00:37:39.9	252.900	0.220	-0.660	1.310
2020/01/31 00:37:40.0	252.910	0.210	-0.650	1.330
2020/01/31 00:37:40.1	252.930	0.200	-0.640	1.350
2020/01/31 00:37:40.2	252.940	0.180	-0.620	1.370
2020/01/31 00:37:40.3	252.950	0.160	-0.610	1.390
2020/01/31 00:37:40.4	252.970	0.140	-0.590	1.410
2020/01/31 00:37:40.5	252.980	0.120	-0.570	1.440
2020/01/31 00:37:40.6	252.990	0.100	-0.550	1.460
2020/01/31 00:37:40.7	253.000	0.070	-0.530	1.480
2020/01/31 00:37:40.8	253.010	0.050	-0.510	1.500
2020/01/31 00:37:40.9	253.020	0.020	-0.490	1.530
2020/01/31 00:37:41.0	253.030	-0.000	-0.470	1.550
2020/01/31 00:37:41.1	253.030	-0.030	-0.450	1.580
2020/01/31 00:37:41.2	253.030	-0.060	-0.420	1.600
2020/01/31 00:37:41.3	253.040	-0.090	-0.400	1.620
2020/01/31 00:37:41.4	253.040	-0.110	-0.370	1.650
2020/01/31 00:37:41.5	253.040	-0.140	-0.350	1.670
2020/01/31 00:37:41.6	253.040	-0.170	-0.320	1.690
2020/01/31 00:37:41.7	253.040	-0.190	-0.300	1.700
2020/01/31 00:37:41.8	253.030	-0.220	-0.270	1.720
2020/01/31 00:37:41.9	253.040	-0.240	-0.240	1.730
2020/01/31 00:37:42.0	253.040	-0.260	-0.220	1.740
2020/01/31 00:37:42.1	253.030	-0.280	-0.190	1.750
2020/01/31 00:37:42.2	253.030	-0.300	-0.170	1.760
2020/01/31 00:37:42.3	253.030	-0.320	-0.140	1.760
2020/01/31 00:37:42.4	253.020	-0.340	-0.110	1.750
2020/01/31 00:37:42.5	253.020	-0.350	-0.090	1.750
2020/01/31 00:37:42.6	253.020	-0.360	-0.060	1.740
2020/01/31 00:37:42.7	253.010	-0.370	-0.040	1.720
2020/01/31 00:37:42.8	253.010	-0.380	-0.020	1.700
2020/01/31 00:37:42.9	253.020	-0.380	0.010	1.680
2020/01/31 00:37:43.0	253.020	-0.380	0.030	1.650
2020/01/31 00:37:43.1	253.020	-0.380	0.050	1.610
2020/01/31 00:37:43.2	253.030	-0.380	0.080	1.580
2020/01/31 00:37:43.3	253.030	-0.380	0.100	1.540
2020/01/31 00:37:43.4	253.040	-0.370	0.120	1.490
2020/01/31 00:37:43.5	253.040	-0.360	0.140	1.440
2020/01/31 00:37:43.6	253.050	-0.350	0.160	1.400
2020/01/31 00:37:43.7	253.060	-0.340	0.180	1.340
2020/01/31 00:37:43.8	253.070	-0.330	0.200	1.290
2020/01/31 00:37:43.9	253.080	-0.310	0.220	1.240
2020/01/31 00:37:44.0	253.100	-0.300	0.240	1.180
2020/01/31 00:37:44.1	253.110	-0.280	0.250	1.120
2020/01/31 00:37:44.2	253.130	-0.260	0.270	1.070
2020/01/31 00:37:44.3	253.150	-0.240	0.280	1.010
2020/01/31 00:37:44.4	253.160	-0.220	0.290	0.960
2020/01/31 00:37:44.5	253.180	-0.200	0.300	0.900
2020/01/31 00:37:44.6	253.200	-0.180	0.310	0.850
2020/01/31 00:37:44.7	253.220	-0.160	0.320	0.790
2020/01/31 00:37:44.8	253.230	-0.140	0.320	0.740
2020/01/31 00:37:44.9	253.250	-0.110	0.320	0.690
2020/01/31 00:37:45.0	253.260	-0.090	0.320	0.650
2020/01/31 00:37:45.1	253.280	-0.070	0.310	0.610
2020/01/31 00:37:45.2	253.300	-0.050	0.310	0.570
2020/01/31 00:37:45.3	253.310	-0.030	0.300	0.530
2020/01/31 00:37:45.4	253.330	-0.010	0.280	0.500
2020/01/31 00:37:45.5	253.340	0.010	0.270	0.470
2020/01/31 00:37:45.6	253.350	0.030	0.250	0.450
2020/01/31 00:37:45.7	253.360	0.050	0.230	0.430
2020/01/31 00:37:45.8	253.370	0.070	0.200	0.410
2020/01/31 00:37:45.9	253.370	0.090	0.180	0.400
2020/01/31 00:37:46.0	253.380	0.100	0.150	0.390
2020/01/31 00:37:46.1	253.390	0.120	0.120	0.390
2020/01/31 00:37:46.2	253.390	0.130	0.080	0.400
2020/01/31 00:37:46.3	253.390	0.140	0.050	0.410
2020/01/31 00:37:46.4	253.390	0.150	0.010	0.420
2020/01/31 00:37:46.5	253.390	0.170	-0.030	0.440
2020/01/31 00:37:46.6	253.380	0.180	-0.070	0.460
2020/01/31 00:37:46.7	253.370	0.190	-0.110	0.480
2020/01/31 00:37:46.8	253.370	0.200	-0.160	0.510
2020/01/31 00:37:46.9	253.360	0.200	-0.200	0.530
2020/01/31 00:37:47.0	253.350	0.210	-0.250	0.570
2020/01/31 00:37:47.1	253.340	0.220	-0.290	0.600
2020/01/31 00:37:47.2	253.320	0.230	-0.340	0.630
2020/01/31 00:37:47.3	253.300	0.230	-0.380	0.670
2020/01/31 00:37:47.4	253.280	0.240	-0.430	0.710
2020/01/31 00:37:47.5	253.260	0.240	-0.470	0.750
2020/01/31 00:37:47.6	253.240	0.250	-0.520	0.790
2020/01/31 00:37:47.7	253.220	0.250	-0.560	0.830
2020/01/31 00:37:47.8	253.190	0.260	-0.600	0.870
2020/01/31 00:37:47.9	253.170	0.260	-0.640	0.910
2020/01/31 00:37:48.0	253.150	0.270	-0.680	0.950
2020/01/31 00:37:48.1	253.120	0.270	-0.720	0.990
2020/01/31 00:37:48.2	253.100	0.280	-0.750	1.030
2020/01/31 00:37:48.3	253.070	0.280	-0.780	1.070
2020/01/31 00:37:48.4	253.050	0.280	-0.810	1.110
2020/01/31 00:37:48.5	253.020	0.290	-0.830	1.150
2020/01/31 00:37:48.6	253.000	0.290	-0.860	1.190
2020/01/31 00:37:48.7	252.980	0.290	-0.880	1.220
2020/01/31 00:37:48.8	252.950	0.290	-0.900	1.260
2020/01/31 00:37:48.9	252.930	0.300	-0.910	1.290
2020/01/31 00:37:49.0	252.900	0.300	-0.930	1.320
2020/01/31 00:37:49.1	252.880	0.300	-0.940	1.350
2020/01/31 00:37:49.2	252.860	0.300	-0.950	1.380
2020/01/31 00:37:49.3	252.830	0.300	-0.950	1.410
2020/01/31 00:37:49.4	252.810	0.300	-0.950	1.430
2020/01/31 00:37:49.5	252.790	0.300	-0.960	1.460
2020/01/31 00:37:49.6	252.760	0.300	-0.950	1.480
2020/01/31 00:37:49.7	252.740	0.290	-0.950	1.500
2020/01/31 00:37:49.8	252.720	0.290	-0.950	1.520
2020/01/31 00:37:49.9	252.700	0.290	-0.940	1.530
2020/01/31 00:37:50.0	252.670	0.290	-0.930	1.550
2020/01/31 00:37:50.1	252.650	0.280	-0.920	1.560
2020/01/31 00:37:50.2	252.620	0.280	-0.910	1.570
2020/01/31 00:37:50.3	252.600	0.270	-0.900	1.580
2020/01/31 00:37:50.4	252.580	0.270	-0.880	1.590
2020/01/31 00:37:50.5	252.550	0.260	-0.870	1.590
2020/01/31 00:37:50.6	252.530	0.250	-0.850	1.590
2020/01/31 00:37:50.7	252.510	0.250	-0.830	1.590
2020/01/31 00:37:50.8	252.490	0.240	-0.820	1.590
2020/01/31 00:37:50.9	252.480	0.230	-0.790	1.580
2020/01/31 00:37:51.0	252.460	0.220	-0.770	1.570
2020/01/31 00:37:51.1	252.450	0.210	-0.750	1.560
2020/01/31 00:37:51.2	252.440	0.200	-0.730	1.550
2020/01/31 00:37:51.3	252.430	0.190	-0.710	1.530
2020/01/31 00:37:51.4	252.420	0.170	-0.680	1.520
2020/01/31 00:37:51.5	252.420	0.160	-0.660	1.500
2020/01/31 00:37:51.6	252.420	0.150	-0.630	1.480
2020/01/31 00:37:51.7	252.420	0.130	-0.610	1.460
2020/01/31 00:37:51.8	252.420	0.120	-0.580	1.440
2020/01/31 00:37:51.9	252.410	0.100	-0.550	1.410
2020/01/31 00:37:52.0	252.420	0.090	-0.520	1.390
2020/01/31 00:37:52.1	252.440	0.070	-0.490	1.360
2020/01/31 00:37:52.2	252.450	0.050	-0.460	1.330
2020/01/31 00:37:52.3	252.470	0.040	-0.430	1.300
2020/01/31 00:37:52.4	252.490	0.020	-0.400	1.270
2020/01/31 00:37:52.5	252.510	0.000	-0.360	1.230
2020/01/31 00:37:52.6	252.540	-0.010	-0.330	1.200
2020/01/31 00:37:52.7	252.570	-0.030	-0.290	1.160
2020/01/31 00:37:52.8	252.600	-0.050	-0.260	1.120
2020/01/31 00:37:52.9	252.640	-0.070	-0.210	1.080
2020/01/31 00:37:53.0	252.670	-0.080	-0.180	1.030
2020/01/31 00:37:53.1	252.710	-0.100	-0.140	0.990
2020/01/31 00:37:53.2	252.760	-0.120	-0.100	0.950
2020/01/31 00:37:53.3	252.800	-0.130	-0.060	0.900
2020/01/31 00:37:53.4	252.850	-0.150	-0.020	0.860
2020/01/31 00:37:53.5	252.900	-0.160	0.020	0.810
2020/01/31 00:37:53.6	252.950	-0.180	0.060	0.760
2020/01/31 00:37:53.7	253.000	-0.190	0.090	0.720
2020/01/31 00:37:53.8	253.060	-0.210	0.130	0.670
2020/01/31 00:37:53.9	253.110	-0.220	0.160	0.630
2020/01/31 00:37:54.0	253.160	-0.230	0.190	0.590
2020/01/31 00:37:54.1	253.220	-0.250	0.230	0.540
2020/01/31 00:37:54.2	253.270	-0.260	0.250	0.500
2020/01/31 00:37:54.3	253.330	-0.270	0.280	0.470
2020/01/31 00:37:54.4	253.380	-0.280	0.300	0.430
2020/01/31 00:37:54.5	253.440	-0.290	0.330	0.400
2020/01/31 00:37:54.6	253.490	-0.290	0.340	0.370
2020/01/31 00:37:54.7	253.540	-0.300	0.360	0.340
2020/01/31 00:37:54.8	253.600	-0.310	0.370	0.320
2020/01/31 00:37:54.9	253.640	-0.310	0.380	0.300
2020/01/31 00:37:55.0	253.690	-0.320	0.380	0.290
2020/01/31 00:37:55.1	253.740	-0.320	0.390	0.280
2020/01/31 00:37:55.2	253.790	-0.320	0.380	0.270
2020/01/31 00:37:55.3	253.840	-0.320	0.380	0.270
2020/01/31 00:37:55.4	253.890	-0.320	0.370	0.280
2020/01/31 00:37:55.5	253.940	-0.320	0.360	0.290
2020/01/31 00:37:55.6	253.980	-0.320	0.350	0.300
2020/01/31 00:37:55.7	254.030	-0.320	0.330	0.320
2020/01/31 00:37:55.8	254.070	-0.310	0.310	0.340
2020/01/31 00:37:55.9	254.100	-0.310	0.280	0.370
2020/01/31 00:37:56.0	254.140	-0.300	0.260	0.400
2020/01/31 00:37:56.1	254.180	-0.290	0.230	0.430
2020/01/31 00:37:56.2	254.220	-0.280	0.200	0.460
2020/01/31 00:37:56.3	254.250	-0.270	0.170	0.490
2020/01/31 00:37:56.4	254.280	-0.260	0.140	0.530
2020/01/31 00:37:56.5	254.310	-0.250	0.110	0.560
2020/01/31 00:37:56.6	254.340	-0.240	0.080	0.600
2020/01/31 00:37:56.7	254.370	-0.230	0.050	0.640
2020/01/31 00:37:56.8	254.390	-0.210	0.010	0.670
2020/01/31 00:37:56.9	254.420	-0.200	-0.020	0.710
2020/01/31 00:37:57.0	254.440	-0.180	-0.060	0.740
2020/01/31 00:37:57.1	254.460	-0.170	-0.090	0.780
2020/01/31 00:37:57.2	254.480	-0.150	-0.120	0.810
2020/01/31 00:37:57.3	254.500	-0.140	-0.150	0.850
2020/01/31 00:37:57.4	254.520	-0.120	-0.180	0.890
2020/01/31 00:37:57.5	254.530	-0.110	-0.210	0.920
2020/01/31 00:37:57.6	254.550	-0.090	-0.240	0.950
2020/01/31 00:37:57.7	254.560	-0.070	-0.260	0.990
2020/01/31 00:37:57.8	254.570	-0.060	-0.290	1.020
2020/01/31 00:37:57.9	254.590	-0.040	-0.310	1.050
2020/01/31 00:37:58.0	254.600	-0.020	-0.330	1.090
2020/01/31 00:37:58.1	254.600	-0.010	-0.350	1.120
2020/01/31 00:37:58.2	254.610	0.010	-0.370	1.150
2020/01/31 00:37:58.3	254.610	0.020	-0.390	1.180
2020/01/31 00:37:58.4	254.610	0.040	-0.410	1.210
2020/01/31 00:37:58.5	254.610	0.050	-0.420	1.240
2020/01/31 00:37:58.6	254.600	0.070	-0.440	1.270
2020/01/31 00:37:58.7	254.600	0.080	-0.450	1.300
2020/01/31 00:37:58.8	254.590	0.100	-0.460	1.330
2020/01/31 00:37:58.9	254.590	0.110	-0.480	1.350
2020/01/31 00:37:59.0	254.580	0.120	-0.490	1.380
2020/01/31 00:37:59.1	254.570	0.130	-0.500	1.400
2020/01/31 00:37:59.2	254.560	0.140	-0.510	1.420
2020/01/31 00:37:59.3	254.550	0.160	-0.530	1.440
2020/01/31 00:37:59.4	254.530	0.170	-0.540	1.460
2020/01/31 00:37:59.5	254.510	0.170	-0.550	1.480
2020/01/31 00:37:59.6	254.490	0.180	-0.560	1.490
2020/01/31 00:37:59.7	254.470	0.190	-0.580	1.510
2020/01/31 00:37:59.8	254.450	0.200	-0.590	1.520
2020/01/31 00:37:59.9	254.420	0.200	-0.610	1.530
2020/01/31 00:38:00.0	254.400	0.210	-0.630	1.540
2020/01/31 00:38:00.1	254.370	0.220	-0.650	1.560
2020/01/31 00:38:00.2	254.330	0.220	-0.670	1.570
2020/01/31 00:38:00.3	254.300	0.230	-0.690	1.580
2020/01/31 00:38:00.4	254.260	0.230	-0.710	1.580
2020/01/31 00:38:00.5	254.220	0.240	-0.730	1.590
2020/01/31 00:38:00.6	254.180	0.240	-0.760	1.600
2020/01/31 00:38:00.7	254.140	0.240	-0.780	1.610
2020/01/31 00:38:00.8	254.090	0.250	-0.810	1.610
2020/01/31 00:38:00.9	254.050	0.250	-0.830	1.620
2020/01/31 00:38:01.0	254.000	0.250	-0.850	1.620
2020/01/31 00:38:01.1	253.950	0.260	-0.870	1.620
2020/01/31 00:38:01.2	253.900	0.260	-0.900	1.620
2020/01/31 00:38:01.3	253.850	0.260	-0.920	1.620
2020/01/31 00:38:01.4	253.800	0.260	-0.930	1.620
2020/01/31 00:38:01.5	253.750	0.260	-0.950	1.620
2020/01/31 00:38:01.6	253.710	0.260	-0.960	1.610
2020/01/31 00:38:01.7	253.660	0.260	-0.970	1.600
2020/01/31 00:38:01.8	253.610	0.260	-0.980	1.590
2020/01/31 00:38:01.9	253.570	0.250	-0.980	1.580
2020/01/31 00:38:02.0	253.520	0.250	-0.980	1.570
2020/01/31 00:38:02.1	253.480	0.240	-0.970	1.550
2020/01/31 00:38:02.2	253.450	0.240	-0.960	1.530
2020/01/31 00:38:02.3	253.410	0.230	-0.940	1.520
2020/01/31 00:38:02.4	253.380	0.220	-0.920	1.500
2020/01/31 00:38:02.5	253.350	0.210	-0.890	1.470
2020/01/31 00:38:02.6	253.330	0.190	-0.860	1.450
2020/01/31 00:38:02.7	253.300	0.180	-0.830	1.430
2020/01/31 00:38:02.8	253.290	0.170	-0.790	1.400
2020/01/31 00:38:02.9	253.270	0.150	-0.750	1.370
2020/01/31 00:38:03.0	253.260	0.140	-0.700	1.350
2020/01/31 00:38:03.1	253.260	0.120	-0.650	1.320
2020/01/31 00:38:03.2	253.250	0.100	-0.600	1.290
2020/01/31 00:38:03.3	253.260	0.080	-0.550	1.260
2020/01/31 00:38:03.4	253.260	0.060	-0.490	1.230
2020/01/31 00:38:03.5	253.270	0.040	-0.430	1.190
2020/01/31 00:38:03.6	253.290	0.020	-0.370	1.160
2020/01/31 00:38:03.7	253.310	0.000	-0.310	1.120
2020/01/31 00:38:03.8	253.340	-0.020	-0.250	1.080
2020/01/31 00:38:03.9	253.360	-0.040	-0.190	1.030
2020/01/31 00:38:04.0	253.400	-0.050	-0.120	0.990
2020/01/31 00:38:04.1	253.440	-0.070	-0.060	0.940
2020/01/31 00:38:04.2	253.480	-0.090	0.000	0.890
2020/01/31 00:38:04.3	253.530	-0.110	0.060	0.840
2020/01/31 00:38:04.4	253.590	-0.130	0.120	0.790
2020/01/31 00:38:04.5	253.650	-0.140	0.170	0.730
2020/01/31 00:38:04.6	253.710	-0.160	0.230	0.670
2020/01/31 00:38:04.7	253.780	-0.170	0.280	0.610
2020/01/31 00:38:04.8	253.850	-0.180	0.320	0.560
2020/01/31 00:38:04.9	253.920	-0.190	0.360	0.490
2020/01/31 00:38:05.0	254.000	-0.200	0.400	0.440
2020/01/31 00:38:05.1	254.080	-0.210	0.430	0.380
2020/01/31 00:38:05.2	254.160	-0.220	0.460	0.320
2020/01/31 00:38:05.3	254.240	-0.220	0.480	0.270
2020/01/31 00:38:05.4	254.320	-0.230	0.500	0.220
2020/01/31 00:38:05.5	254.410	-0.230	0.510	0.180
2020/01/31 00:38:05.6	254.490	-0.230	0.510	0.130
2020/01/31 00:38:05.7	254.580	-0.220	0.510	0.090
2020/01/31 00:38:05.8	254.660	-0.220	0.510	0.060
2020/01/31 00:38:05.9	254.740	-0.220	0.490	0.030
2020/01/31 00:38:06.0	254.820	-0.210	0.470	0.000
2020/01/31 00:38:06.1	254.900	-0.200	0.450	-0.010
2020/01/31 00:38:06.2	254.980	-0.190	0.420	-0.030
2020/01/31 00:38:06.3	255.060	-0.180	0.390	-0.030
2020/01/31 00:38:06.4	255.140	-0.170	0.360	-0.040
2020/01/31 00:38:06.5	255.210	-0.150	0.320	-0.030
2020/01/31 00:38:06.6	255.280	-0.140	0.280	-0.020
2020/01/31 00:38:06.7	255.350	-0.130	0.240	-0.000
2020/01/31 00:38:06.8	255.410	-0.110	0.200	0.020
2020/01/31 00:38:06.9	255.470	-0.100	0.160	0.040
2020/01/31 00:38:07.0	255.530	-0.080	0.110	0.070
2020/01/31 00:38:07.1	255.590	-0.070	0.060	0.100
2020/01/31 00:38:07.2	255.640	-0.050	0.020	0.140
2020/01/31 00:38:07.3	255.700	-0.040	-0.030	0.180
2020/01/31 00:38:07.4	255.740	-0.030	-0.080	0.220
2020/01/31 00:38:07.5	255.790	-0.010	-0.130	0.270
2020/01/31 00:38:07.6	255.830	-0.000	-0.170	0.320
2020/01/31 00:38:07.7	255.860	0.010	-0.210	0.370
2020/01/31 00:38:07.8	255.890	0.020	-0.260	0.430
2020/01/31 00:38:07.9	255.940	0.030	-0.300	0.480
2020/01/31 00:38:08.0	255.970	0.040	-0.340	0.540
2020/01/31 00:38:08.1	255.990	0.040	-0.380	0.600
2020/01/31 00:38:08.2	256.000	0.050	-0.410	0.670
2020/01/31 00:38:08.3	256.020	0.060	-0.440	0.730
2020/01/31 00:38:08.4	256.030	0.060	-0.470	0.800
2020/01/31 00:38:08.5	256.030	0.060	-0.500	0.870
2020/01/31 00:38:08.6	256.030	0.060	-0.530	0.940
2020/01/31 00:38:08.7	256.030	0.070	-0.550	1.010
2020/01/31 00:38:08.8	256.020	0.070	-0.570	1.080
2020/01/31 00:38:08.9	256.010	0.060	-0.590	1.160
2020/01/31 00:38:09.0	256.000	0.060	-0.600	1.230
2020/01/31 00:38:09.1	255.980	0.060	-0.620	1.300
2020/01/31 00:38:09.2	255.960	0.060	-0.630	1.370
2020/01/31 00:38:09.3	255.930	0.060	-0.640	1.440
2020/01/31 00:38:09.4	255.910	0.050	-0.650	1.510
2020/01/31 00:38:09.5	255.880	0.050	-0.650	1.580
2020/01/31 00:38:09.6	255.840	0.050	-0.660	1.640
2020/01/31 00:38:09.7	255.810	0.050	-0.660	1.710
2020/01/31 00:38:09.8	255.770	0.040	-0.660	1.760
2020/01/31 00:38:09.9	255.730	0.040	-0.660	1.820
2020/01/31 00:38:10.0	255.690	0.040	-0.660	1.870
2020/01/31 00:38:10.1	255.650	0.040	-0.660	1.910
2020/01/31 00:38:10.2	255.610	0.040	-0.650	1.950
2020/01/31 00:38:10.3	255.560	0.040	-0.650	1.990
2020/01/31 00:38:10.4	255.520	0.040	-0.640	2.020
2020/01/31 00:38:10.5	255.470	0.040	-0.640	2.040
2020/01/31 00:38:10.6	255.430	0.040	-0.630	2.060
2020/01/31 00:38:10.7	255.380	0.040	-0.620	2.080
2020/01/31 00:38:10.8	255.330	0.040	-0.610	2.090
2020/01/31 00:38:10.9	255.300	0.050	-0.600	2.090
2020/01/31 00:38:11.0	255.250	0.050	-0.590	2.090
2020/01/31 00:38:11.1	255.210	0.060	-0.590	2.090
2020/01/31 00:38:11.2	255.160	0.060	-0.580	2.090
2020/01/31 00:38:11.3	255.120	0.070	-0.570	2.080
2020/01/31 00:38:11.4	255.070	0.080	-0.560	2.070
2020/01/31 00:38:11.5	255.030	0.080	-0.560	2.050
2020/01/31 00:38:11.6	254.990	0.090	-0.550	2.030
2020/01/31 00:38:11.7	254.950	0.100	-0.540	2.010
2020/01/31 00:38:11.8	254.910	0.110	-0.540	1.990
2020/01/31 00:38:11.9	254.880	0.120	-0.530	1.960
2020/01/31 00:38:12.0	254.850	0.120	-0.530	1.930
2020/01/31 00:38:12.1	254.810	0.130	-0.520	1.900
2020/01/31 00:38:12.2	254.780	0.140	-0.510	1.870
2020/01/31 00:38:12.3	254.750	0.150	-0.510	1.840
2020/01/31 00:38:12.4	254.720	0.160	-0.500	1.810
2020/01/31 00:38:12.5	254.700	0.170	-0.500	1.770
2020/01/31 00:38:12.6	254.670	0.170	-0.490	1.730
2020/01/31 00:38:12.7	254.650	0.180	-0.480	1.700
2020/01/31 00:38:12.8	254.630	0.190	-0.470	1.660
2020/01/31 00:38:12.9	254.620	0.190	-0.450	1.620
2020/01/31 00:38:13.0	254.600	0.200	-0.440	1.580
2020/01/31 00:38:13.1	254.590	0.200	-0.430	1.540
2020/01/31 00:38:13.2	254.580	0.200	-0.410	1.490
2020/01/31 00:38:13.3	254.570	0.200	-0.390	1.450
2020/01/31 00:38:13.4	254.570	0.200	-0.380	1.410
2020/01/31 00:38:13.5	254.570	0.200	-0.350	1.370
2020/01/31 00:38:13.6	254.570	0.190	-0.330	1.320
2020/01/31 00:38:13.7	254.570	0.190	-0.310	1.280
2020/01/31 00:38:13.8	254.580	0.180	-0.280	1.230
2020/01/31 00:38:13.9	254.590	0.170	-0.250	1.190
2020/01/31 00:38:14.0	254.600	0.160	-0.220	1.140
2020/01/31 00:38:14.1	254.620	0.150	-0.190	1.090
2020/01/31 00:38:14.2	254.640	0.140	-0.160	1.050
2020/01/31 00:38:14.3	254.660	0.130	-0.130	1.000
2020/01/31 00:38:14.4	254.690	0.110	-0.090	0.950
2020/01/31 00:38:14.5	254.720	0.090	-0.060	0.900
2020/01/31 00:38:14.6	254.750	0.080	-0.030	0.860
2020/01/31 00:38:14.7	254.780	0.060	0.010	0.810
2020/01/31 00:38:14.8	254.810	0.040	0.040	0.760
2020/01/31 00:38:14.9	254.850	0.020	0.070	0.720
2020/01/31 00:38:15.0	254.890	0.000	0.100	0.670
2020/01/31 00:38:15.1	254.930	-0.020	0.130	0.630
2020/01/31 00:38:15.2	254.980	-0.040	0.160	0.590
2020/01/31 00:38:15.3	255.020	-0.060	0.180	0.540
2020/01/31 00:38:15.4	255.070	-0.070	0.200	0.500
2020/01/31 00:38:15.5	255.120	-0.090	0.220	0.470
2020/01/31 00:38:15.6	255.160	-0.110	0.240	0.430
2020/01/31 00:38:15.7	255.210	-0.130	0.250	0.400
2020/01/31 00:38:15.8	255.270	-0.140	0.260	0.360
2020/01/31 00:38:15.9	255.310	-0.150	0.260	0.330
2020/01/31 00:38:16.0	255.360	-0.170	0.260	0.310
2020/01/31 00:38:16.1	255.410	-0.180	0.260	0.280
2020/01/31 00:38:16.2	255.470	-0.190	0.260	0.260
2020/01/31 00:38:16.3	255.520	-0.200	0.250	0.250
2020/01/31 00:38:16.4	255.580	-0.200	0.240	0.230
2020/01/31 00:38:16.5	255.630	-0.210	0.220	0.230
2020/01/31 00:38:16.6	255.690	-0.210	0.200	0.220
2020/01/31 00:38:16.7	255.740	-0.210	0.180	0.230
2020/01/31 00:38:16.8	255.790	-0.210	0.150	0.230
2020/01/31 00:38:16.9	255.840	-0.210	0.120	0.240
2020/01/31 00:38:17.0	255.900	-0.210	0.090	0.250
2020/01/31 00:38:17.1	255.950	-0.200	0.060	0.270
2020/01/31 00:38:17.2	256.000	-0.200	0.020	0.300
2020/01/31 00:38:17.3	256.050	-0.190	-0.010	0.320
2020/01/31 00:38:17.4	256.100	-0.180	-0.050	0.350
2020/01/31 00:38:17.5	256.150	-0.170	-0.090	0.380
2020/01/31 00:38:17.6	256.200	-0.160	-0.130	0.420
2020/01/31 00:38:17.7	256.250	-0.150	-0.170	0.450
2020/01/31 00:38:17.8	256.290	-0.140	-0.210	0.490
2020/01/31 00:38:17.9	256.340	-0.130	-0.250	0.530
2020/01/31 00:38:18.0	256.390	-0.110	-0.290	0.560
2020/01/31 00:38:18.1	256.430	-0.100	-0.330	0.600
2020/01/31 00:38:18.2	256.470	-0.090	-0.370	0.640
2020/01/31 00:38:18.3	256.510	-0.080	-0.410	0.680
2020/01/31 00:38:18.4	256.550	-0.060	-0.450	0.720
2020/01/31 00:38:18.5	256.590	-0.050	-0.490	0.750
2020/01/31 00:38:18.6	256.630	-0.040	-0.530	0.790
2020/01/31 00:38:18.7	256.660	-0.030	-0.560	0.830
2020/01/31 00:38:18.8	256.700	-0.010	-0.600	0.860
2020/01/31 00:38:18.9	256.720	-0.000	-0.630	0.890
2020/01/31 00:38:19.0	256.750	0.010	-0.660	0.930
2020/01/31 00:38:19.1	256.780	0.020	-0.690	0.950
2020/01/31 00:38:19.2	256.810	0.030	-0.710	0.980
2020/01/31 00:38:19.3	256.840	0.040	-0.740	1.010
2020/01/31 00:38:19.4	256.860	0.050	-0.760	1.030
2020/01/31 00:38:19.5	256.880	0.060	-0.780	1.050
2020/01/31 00:38:19.6	256.900	0.070	-0.800	1.060
2020/01/31 00:38:19.7	256.920	0.070	-0.820	1.070
2020/01/31 00:38:19.8	256.930	0.080	-0.830	1.080
2020/01/31 00:38:19.9	256.950	0.090	-0.850	1.080
2020/01/31 00:38:20.0	256.960	0.090	-0.860	1.090
2020/01/31 00:38:20.1	256.970	0.100	-0.870	1.090
2020/01/31 00:38:20.2	256.980	0.100	-0.870	1.090
2020/01/31 00:38:20.3	257.000	0.110	-0.880	1.090
2020/01/31 00:38:20.4	257.000	0.110	-0.880	1.080
2020/01/31 00:38:20.5	257.010	0.120	-0.890	1.070
2020/01/31 00:38:20.6	257.020	0.120	-0.890	1.070
2020/01/31 00:38:20.7	257.020	0.120	-0.890	1.060
2020/01/31 00:38:20.8	257.030	0.120	-0.890	1.050
2020/01/31 00:38:20.9	257.020	0.130	-0.890	1.040
2020/01/31 00:38:21.0	257.020	0.130	-0.890	1.030
2020/01/31 00:38:21.1	257.020	0.130	-0.880	1.020
2020/01/31 00:38:21.2	257.020	0.130	-0.880	1.010
2020/01/31 00:38:21.3	257.020	0.130	-0.870	1.010
2020/01/31 00:38:21.4	257.020	0.130	-0.860	1.000
2020/01/31 00:38:21.5	257.020	0.120	-0.850	0.990
2020/01/31 00:38:21.6	257.010	0.120	-0.830	0.990
2020/01/31 00:38:21.7	257.010	0.120	-0.820	0.980
2020/01/31 00:38:21.8	257.000	0.110	-0.800	0.970
2020/01/31 00:38:21.9	256.990	0.110	-0.780	0.970
2020/01/31 00:38:22.0	256.990	0.100	-0.760	0.960
2020/01/31 00:38:22.1	256.980	0.100	-0.730	0.960
2020/01/31 00:38:22.2	256.980	0.090	-0.710	0.950
2020/01/31 00:38:22.3	256.970	0.080	-0.680	0.950
2020/01/31 00:38:22.4	256.970	0.070	-0.650	0.940
2020/01/31 00:38:22.5	256.960	0.060	-0.620	0.930
2020/01/31 00:38:22.6	256.960	0.050	-0.580	0.920
2020/01/31 00:38:22.7	256.960	0.040	-0.550	0.910
2020/01/31 00:38:22.8	256.960	0.030	-0.510	0.900
2020/01/31 00:38:22.9	256.960	0.020	-0.480	0.890
2020/01/31 00:38:23.0	256.960	0.000	-0.440	0.880
2020/01/31 00:38:23.1	256.960	-0.010	-0.400	0.860
2020/01/31 00:38:23.2	256.960	-0.020	-0.360	0.850
2020/01/31 00:38:23.3	256.970	-0.040	-0.320	0.830
2020/01/31 00:38:23.4	256.970	-0.050	-0.280	0.820
2020/01/31 00:38:23.5	256.980	-0.070	-0.240	0.800
2020/01/31 00:38:23.6	256.990	-0.080	-0.200	0.780
2020/01/31 00:38:23.7	256.990	-0.090	-0.160	0.770
2020/01/31 00:38:23.8	257.000	-0.110	-0.120	0.750
2020/01/31 00:38:23.9	257.010	-0.120	-0.090	0.730
2020/01/31 00:38:24.0	257.030	-0.130	-0.050	0.710
2020/01/31 00:38:24.1	257.040	-0.140	-0.020	0.700
2020/01/31 00:38:24.2	257.050	-0.150	0.010	0.680
2020/01/31 00:38:24.3	257.060	-0.160	0.040	0.660
2020/01/31 00:38:24.4	257.080	-0.170	0.070	0.640
2020/01/31 00:38:24.5	257.090	-0.180	0.100	0.620
2020/01/31 00:38:24.6	257.110	-0.190	0.120	0.600
2020/01/31 00:38:24.7	257.120	-0.190	0.150	0.580
2020/01/31 00:38:24.8	257.140	-0.200	0.160	0.560
2020/01/31 00:38:24.9	257.150	-0.200	0.180	0.550
2020/01/31 00:38:25.0	257.170	-0.200	0.200	0.530
2020/01/31 00:38:25.1	257.190	-0.200	0.210	0.510
2020/01/31 00:38:25.2	257.200	-0.200	0.220	0.490
2020/01/31 00:38:25.3	257.220	-0.200	0.220	0.480
2020/01/31 00:38:25.4	257.240	-0.200	0.220	0.460
2020/01/31 00:38:25.5	257.250	-0.200	0.230	0.450
2020/01/31 00:38:25.6	257.270	-0.190	0.220	0.430
2020/01/31 00:38:25.7	257.290	-0.190	0.220	0.420
2020/01/31 00:38:25.8	257.310	-0.180	0.220	0.400
2020/01/31 00:38:25.9	257.340	-0.170	0.210	0.390
2020/01/31 00:38:26.0	257.360	-0.160	0.200	0.380
2020/01/31 00:38:26.1	257.380	-0.150	0.190	0.370
2020/01/31 00:38:26.2	257.410	-0.140	0.180	0.360
2020/01/31 00:38:26.3	257.430	-0.130	0.170	0.350
2020/01/31 00:38:26.4	257.460	-0.120	0.160	0.340
2020/01/31 00:38:26.5	257.480	-0.110	0.150	0.330
2020/01/31 00:38:26.6	257.510	-0.100	0.140	0.320
2020/01/31 00:38:26.7	257.540	-0.080	0.130	0.310
2020/01/31 00:38:26.8	257.570	-0.070	0.120	0.300
2020/01/31 00:38:26.9	257.600	-0.060	0.110	0.290
2020/01/31 00:38:27.0	257.630	-0.040	0.090	0.290
2020/01/31 00:38:27.1	257.660	-0.030	0.080	0.280
2020/01/31 00:38:27.2	257.700	-0.010	0.070	0.270
2020/01/31 00:38:27.3	257.730	0.000	0.060	0.270
2020/01/31 00:38:27.4	257.770	0.020	0.050	0.260
2020/01/31 00:38:27.5	257.810	0.030	0.040	0.260
2020/01/31 00:38:27.6	257.840	0.050	0.040	0.260
2020/01/31 00:38:27.7	257.880	0.060	0.030	0.250
2020/01/31 00:38:27.8	257.910	0.080	0.020	0.250
2020/01/31 00:38:27.9	257.950	0.090	0.010	0.250
2020/01/31 00:38:28.0	257.980	0.110	-0.000	0.250
2020/01/31 00:38:28.1	258.020	0.120	-0.010	0.250
2020/01/31 00:38:28.2	258.050	0.130	-0.020	0.250
2020/01/31 00:38:28.3	258.080	0.150	-0.030	0.260
2020/01/31 00:38:28.4	258.110	0.160	-0.040	0.260
2020/01/31 00:38:28.5	258.140	0.170	-0.050	0.270
2020/01/31 00:38:28.6	258.160	0.190	-0.060	0.270
2020/01/31 00:38:28.7	258.190	0.200	-0.080	0.280
2020/01/31 00:38:28.8	258.210	0.210	-0.090	0.290
2020/01/31 00:38:28.9	258.230	0.220	-0.100	0.300
2020/01/31 00:38:29.0	258.250	0.230	-0.120	0.320
2020/01/31 00:38:29.1	258.270	0.240	-0.130	0.330
2020/01/31 00:38:29.2	258.280	0.240	-0.150	0.350
2020/01/31 00:38:29.3	258.300	0.250	-0.160	0.360
2020/01/31 00:38:29.4	258.310	0.260	-0.180	0.380
2020/01/31 00:38:29.5	258.320	0.260	-0.200	0.400
2020/01/31 00:38:29.6	258.330	0.270	-0.220	0.420
2020/01/31 00:38:29.7	258.340	0.270	-0.240	0.440
2020/01/31 00:38:29.8	258.350	0.270	-0.260	0.460
2020/01/31 00:38:29.9	258.350	0.270	-0.280	0.470
2020/01/31 00:38:30.0	258.360	0.270	-0.290	0.490
2020/01/31 00:38:30.1	258.370	0.260	-0.310	0.510
2020/01/31 00:38:30.2	258.380	0.260	-0.330	0.530
2020/01/31 00:38:30.3	258.390	0.260	-0.350	0.540
2020/01/31 00:38:30.4	258.400	0.250	-0.370	0.560
2020/01/31 00:38:30.5	258.410	0.240	-0.390	0.570
2020/01/31 00:38:30.6	258.420	0.230	-0.410	0.590
2020/01/31 00:38:30.7	258.430	0.220	-0.430	0.600
2020/01/31 00:38:30.8	258.440	0.210	-0.450	0.610
2020/01/31 00:38:30.9	258.450	0.200	-0.470	0.620
2020/01/31 00:38:31.0	258.460	0.190	-0.490	0.630
2020/01/31 00:38:31.1	258.470	0.180	-0.510	0.640
2020/01/31 00:38:31.2	258.490	0.160	-0.520	0.650
2020/01/31 00:38:31.3	258.500	0.150	-0.540	0.660
2020/01/31 00:38:31.4	258.520	0.140	-0.550	0.670
2020/01/31 00:38:31.5	258.530	0.120	-0.570	0.670
2020/01/31 00:38:31.6	258.550	0.110	-0.580	0.680
2020/01/31 00:38:31.7	258.570	0.090	-0.590	0.680
2020/01/31 00:38:31.8	258.580	0.080	-0.600	0.680
2020/01/31 00:38:31.9	258.600	0.070	-0.610	0.680
2020/01/31 00:38:32.0	258.620	0.050	-0.620	0.680
2020/01/31 00:38:32.1	258.630	0.040	-0.630	0.680
2020/01/31 00:38:32.2	258.650	0.030	-0.630	0.680
2020/01/31 00:38:32.3	258.670	0.020	-0.640	0.680
2020/01/31 00:38:32.4	258.680	0.000	-0.640	0.670
2020/01/31 00:38:32.5	258.700	-0.010	-0.650	0.670
2020/01/31 00:38:32.6	258.720	-0.010	-0.650	0.660
2020/01/31 00:38:32.7	258.730	-0.020	-0.650	0.660
2020/01/31 00:38:32.8	258.750	-0.030	-0.650	0.650
2020/01/31 00:38:32.9	258.770	-0.040	-0.650	0.640
2020/01/31 00:38:33.0	258.780	-0.040	-0.650	0.630
2020/01/31 00:38:33.1	258.800	-0.040	-0.650	0.610
2020/01/31 00:38:33.2	258.810	-0.050	-0.650	0.600
2020/01/31 00:38:33.3	258.830	-0.050	-0.650	0.590
2020/01/31 00:38:33.4	258.840	-0.050	-0.650	0.570
2020/01/31 00:38:33.5	258.850	-0.050	-0.650	0.550
2020/01/31 00:38:33.6	258.860	-0.050	-0.640	0.530
2020/01/31 00:38:33.7	258.880	-0.050	-0.640	0.510
2020/01/31 00:38:33.8	258.890	-0.040	-0.640	0.490
2020/01/31 00:38:33.9	258.900	-0.040	-0.640	0.470
2020/01/31 00:38:34.0	258.910	-0.040	-0.640	0.450
2020/01/31 00:38:34.1	258.920	-0.030	-0.640	0.430
2020/01/31 00:38:34.2	258.920	-0.030	-0.630	0.410
2020/01/31 00:38:34.3	258.930	-0.020	-0.630	0.390
2020/01/31 00:38:34.4	258.930	-0.010	-0.630	0.370
2020/01/31 00:38:34.5	258.940	-0.010	-0.630	0.340
2020/01/31 00:38:34.6	258.940	-0.000	-0.630	0.320
2020/01/31 00:38:34.7	258.940	0.000	-0.630	0.300
2020/01/31 00:38:34.8	258.940	0.010	-0.630	0.280
2020/01/31 00:38:34.9	258.940	0.010	-0.620	0.270
2020/01/31 00:38:35.0	258.940	0.020	-0.620	0.250
2020/01/31 00:38:35.1	258.940	0.020	-0.620	0.230
2020/01/31 00:38:35.2	258.930	0.020	-0.620	0.220
2020/01/31 00:38:35.3	258.930	0.030	-0.620	0.200
2020/01/31 00:38:35.4	258.930	0.030	-0.610	0.190
2020/01/31 00:38:35.5	258.920	0.030	-0.610	0.180
2020/01/31 00:38:35.6	258.920	0.030	-0.610	0.170
2020/01/31 00:38:35.7	258.910	0.030	-0.600	0.170
2020/01/31 00:38:35.8	258.900	0.030	-0.590	0.160
2020/01/31 00:38:35.9	258.890	0.030	-0.590	0.160
2020/01/31 00:38:36.0	258.890	0.020	-0.580	0.150
2020/01/31 00:38:36.1	258.880	0.020	-0.570	0.150
2020/01/31 00:38:36.2	258.870	0.010	-0.560	0.150
2020/01/31 00:38:36.3	258.860	0.000	-0.550	0.150
2020/01/31 00:38:36.4	258.850	-0.000	-0.540	0.160
2020/01/31 00:38:36.5	258.840	-0.010	-0.530	0.160
2020/01/31 00:38:36.6	258.830	-0.020	-0.520	0.170
2020/01/31 00:38:36.7	258.820	-0.030	-0.500	0.170
2020/01/31 00:38:36.8	258.810	-0.050	-0.490	0.180
2020/01/31 00:38:36.9	258.800	-0.060	-0.470	0.190
2020/01/31 00:38:37.0	258.790	-0.070	-0.460	0.200
2020/01/31 00:38:37.1	258.780	-0.090	-0.440	0.210
2020/01/31 00:38:37.2	258.760	-0.100	-0.430	0.230
2020/01/31 00:38:37.3	258.750	-0.110	-0.410	0.240
2020/01/31 00:38:37.4	258.740	-0.130	-0.390	0.250
2020/01/31 00:38:37.5	258.730	-0.150	-0.380	0.270
2020/01/31 00:38:37.6	258.720	-0.160	-0.360	0.280
2020/01/31 00:38:37.7	258.710	-0.180	-0.350	0.290
2020/01/31 00:38:37.8	258.700	-0.200	-0.330	0.310
2020/01/31 00:38:37.9	258.700	-0.210	-0.320	0.320
2020/01/31 00:38:38.0	258.690	-0.230	-0.300	0.330
2020/01/31 00:38:38.1	258.680	-0.240	-0.290	0.340
2020/01/31 00:38:38.2	258.680	-0.260	-0.270	0.350
2020/01/31 00:38:38.3	258.670	-0.270	-0.260	0.360
2020/01/31 00:38:38.4	258.670	-0.290	-0.250	0.370
2020/01/31 00:38:38.5	258.670	-0.300	-0.240	0.380
2020/01/31 00:38:38.6	258.670	-0.320	-0.220	0.390
2020/01/31 00:38:38.7	258.670	-0.330	-0.210	0.390
2020/01/31 00:38:38.8	258.670	-0.340	-0.200	0.400
2020/01/31 00:38:38.9	258.670	-0.350	-0.200	0.400
2020/01/31 00:38:39.0	258.670	-0.360	-0.190	0.410
2020/01/31 00:38:39.1	258.670	-0.370	-0.180	0.410
2020/01/31 00:38:39.2	258.680	-0.370	-0.170	0.410
2020/01/31 00:38:39.3	258.690	-0.380	-0.170	0.420
2020/01/31 00:38:39.4	258.700	-0.380	-0.160	0.420
2020/01/31 00:38:39.5	258.700	-0.390	-0.150	0.420
2020/01/31 00:38:39.6	258.720	-0.390	-0.150	0.420
2020/01/31 00:38:39.7	258.730	-0.390	-0.140	0.430
2020/01/31 00:38:39.8	258.740	-0.390	-0.140	0.430
2020/01/31 00:38:39.9	258.770	-0.390	-0.130	0.430
2020/01/31 00:38:40.0	258.780	-0.380	-0.120	0.430
2020/01/31 00:38:40.1	258.800	-0.380	-0.110	0.440
2020/01/31 00:38:40.2	258.820	-0.370	-0.110	0.440
2020/01/31 00:38:40.3	258.840	-0.370	-0.100	0.440
2020/01/31 00:38:40.4	258.870	-0.360	-0.090	0.450
2020/01/31 00:38:40.5	258.890	-0.350	-0.080	0.460
2020/01/31 00:38:40.6	258.920	-0.340	-0.070	0.460
2020/01/31 00:38:40.7	258.940	-0.330	-0.060	0.470
2020/01/31 00:38:40.8	258.970	-0.320	-0.050	0.480
2020/01/31 00:38:40.9	259.000	-0.310	-0.040	0.490
2020/01/31 00:38:41.0	259.030	-0.290	-0.030	0.500
2020/01/31 00:38:41.1	259.050	-0.280	-0.020	0.510
2020/01/31 00:38:41.2	259.080	-0.270	-0.010	0.520
2020/01/31 00:38:41.3	259.110	-0.250	0.010	0.540
2020/01/31 00:38:41.4	259.140	-0.240	0.020	0.550
2020/01/31 00:38:41.5	259.170	-0.220	0.030	0.570
2020/01/31 00:38:41.6	259.190	-0.210	0.050	0.590
2020/01/31 00:38:41.7	259.220	-0.190	0.060	0.610
2020/01/31 00:38:41.8	259.250	-0.180	0.070	0.630
2020/01/31 00:38:41.9	259.260	-0.160	0.080	0.650
2020/01/31 00:38:42.0	259.290	-0.150	0.100	0.670
2020/01/31 00:38:42.1	259.310	-0.130	0.110	0.690
2020/01/31 00:38:42.2	259.330	-0.120	0.120	0.710
2020/01/31 00:38:42.3	259.360	-0.100	0.130	0.730
2020/01/31 00:38:42.4	259.380	-0.090	0.150	0.760
2020/01/31 00:38:42.5	259.400	-0.070	0.160	0.780
2020/01/31 00:38:42.6	259.420	-0.060	0.170	0.800
2020/01/31 00:38:42.7	259.440	-0.040	0.180	0.820
2020/01/31 00:38:42.8	259.460	-0.030	0.190	0.850
2020/01/31 00:38:42.9	259.480	-0.020	0.190	0.860
2020/01/31 00:38:43.0	259.490	-0.000	0.200	0.880
2020/01/31 00:38:43.1	259.510	0.010	0.210	0.900
2020/01/31 00:38:43.2	259.520	0.020	0.210	0.920
2020/01/31 00:38:43.3	259.540	0.030	0.220	0.940
2020/01/31 00:38:43.4	259.550	0.050	0.220	0.960
2020/01/31 00:38:43.5	259.560	0.060	0.220	0.980
2020/01/31 00:38:43.6	259.570	0.070	0.220	1.000
2020/01/31 00:38:43.7	259.580	0.080	0.220	1.010
2020/01/31 00:38:43.8	259.580	0.090	0.220	1.030
2020/01/31 00:38:43.9	259.570	0.100	0.210	1.050
2020/01/31 00:38:44.0	259.580	0.100	0.200	1.070
2020/01/31 00:38:44.1	259.580	0.110	0.190	1.080
2020/01/31 00:38:44.2	259.580	0.120	0.180	1.100
2020/01/31 00:38:44.3	259.580	0.130	0.170	1.110
2020/01/31 00:38:44.4	259.580	0.140	0.150	1.130
2020/01/31 00:38:44.5	259.580	0.150	0.130	1.140
2020/01/31 00:38:44.6	259.570	0.160	0.110	1.160
2020/01/31 00:38:44.7	259.570	0.170	0.090	1.170
2020/01/31 00:38:44.8	259.560	0.180	0.060	1.180
2020/01/31 00:38:44.9	259.550	0.190	0.030	1.190
2020/01/31 00:38:45.0	259.540	0.200	-0.000	1.200
2020/01/31 00:38:45.1	259.530	0.210	-0.030	1.210
2020/01/31 00:38:45.2	259.520	0.220	-0.070	1.230
2020/01/31 00:38:45.3	259.510	0.230	-0.110	1.240
2020/01/31 00:38:45.4	259.500	0.240	-0.150	1.250
2020/01/31 00:38:45.5	259.480	0.250	-0.190	1.260
2020/01/31 00:38:45.6	259.470	0.270	-0.230	1.270
2020/01/31 00:38:45.7	259.450	0.280	-0.270	1.280
2020/01/31 00:38:45.8	259.440	0.290	-0.320	1.290
2020/01/31 00:38:45.9	259.420	0.310	-0.360	1.300
2020/01/31 00:38:46.0	259.400	0.320	-0.400	1.310
2020/01/31 00:38:46.1	259.380	0.330	-0.450	1.320
2020/01/31 00:38:46.2	259.360	0.350	-0.490	1.330
2020/01/31 00:38:46.3	259.350	0.360	-0.530	1.330
2020/01/31 00:38:46.4	259.330	0.370	-0.570	1.340
2020/01/31 00:38:46.5	259.310	0.390	-0.610	1.340
2020/01/31 00:38:46.6	259.290	0.400	-0.650	1.350
2020/01/31 00:38:46.7	259.270	0.410	-0.690	1.350
2020/01/31 00:38:46.8	259.250	0.420	-0.720	1.360
2020/01/31 00:38:46.9	259.240	0.430	-0.750	1.350
2020/01/31 00:38:47.0	259.210	0.440	-0.790	1.350
2020/01/31 00:38:47.1	259.190	0.450	-0.810	1.350
2020/01/31 00:38:47.2	259.170	0.460	-0.840	1.350
2020/01/31 00:38:47.3	259.150	0.460	-0.870	1.350
2020/01/31 00:38:47.4	259.130	0.470	-0.890	1.350
2020/01/31 00:38:47.5	259.110	0.470	-0.910	1.340
2020/01/31 00:38:47.6	259.090	0.470	-0.920	1.340
2020/01/31 00:38:47.7	259.070	0.470	-0.940	1.330
2020/01/31 00:38:47.8	259.050	0.470	-0.950	1.330
2020/01/31 00:38:47.9	259.030	0.470	-0.960	1.320
2020/01/31 00:38:48.0	259.000	0.470	-0.960	1.310
2020/01/31 00:38:48.1	258.980	0.460	-0.970	1.300
2020/01/31 00:38:48.2	258.960	0.460	-0.970	1.290
2020/01/31 00:38:48.3	258.940	0.450	-0.960	1.280
2020/01/31 00:38:48.4	258.920	0.440	-0.950	1.260
2020/01/31 00:38:48.5	258.900	0.430	-0.940	1.250
2020/01/31 00:38:48.6	258.880	0.420	-0.930	1.240
2020/01/31 00:38:48.7	258.860	0.400	-0.910	1.220
2020/01/31 00:38:48.8	258.840	0.390	-0.890	1.200
2020/01/31 00:38:48.9	258.820	0.370	-0.870	1.180
2020/01/31 00:38:49.0	258.810	0.360	-0.840	1.160
2020/01/31 00:38:49.1	258.790	0.340	-0.820	1.130
2020/01/31 00:38:49.2	258.780	0.320	-0.790	1.110
2020/01/31 00:38:49.3	258.760	0.300	-0.760	1.080
2020/01/31 00:38:49.4	258.750	0.280	-0.720	1.050
2020/01/31 00:38:49.5	258.740	0.260	-0.690	1.020
2020/01/31 00:38:49.6	258.730	0.240	-0.660	0.980
2020/01/31 00:38:49.7	258.730	0.220	-0.620	0.950
2020/01/31 00:38:49.8	258.720	0.200	-0.580	0.910
2020/01/31 00:38:49.9	258.730	0.170	-0.550	0.870
2020/01/31 00:38:50.0	258.730	0.150	-0.510	0.830
2020/01/31 00:38:50.1	258.730	0.130	-0.480	0.790
2020/01/31 00:38:50.2	258.730	0.110	-0.440	0.750
2020/01/31 00:38:50.3	258.730	0.080	-0.410	0.710
2020/01/31 00:38:50.4	258.730	0.060	-0.370	0.670
2020/01/31 00:38:50.5	258.740	0.040	-0.340	0.630
2020/01/31 00:38:50.6	258.740	0.020	-0.310	0.590
2020/01/31 00:38:50.7	258.750	0.000	-0.280	0.550
2020/01/31 00:38:50.8	258.750	-0.020	-0.250	0.510
2020/01/31 00:38:50.9	258.770	-0.040	-0.220	0.470
2020/01/31 00:38:51.0	258.780	-0.060	-0.190	0.430
2020/01/31 00:38:51.1	258.790	-0.070	-0.170	0.390
2020/01/31 00:38:51.2	258.810	-0.090	-0.140	0.350
2020/01/31 00:38:51.3	258.820	-0.100	-0.120	0.310
2020/01/31 00:38:51.4	258.830	-0.120	-0.100	0.270
2020/01/31 00:38:51.5	258.850	-0.130	-0.080	0.230
2020/01/31 00:38:51.6	258.860	-0.140	-0.070	0.200
2020/01/31 00:38:51.7	258.880	-0.160	-0.050	0.160
2020/01/31 00:38:51.8	258.900	-0.170	-0.040	0.130
2020/01/31 00:38:51.9	258.930	-0.180	-0.030	0.090
2020/01/31 00:38:52.0	258.950	-0.180	-0.020	0.060
2020/01/31 00:38:52.1	258.970	-0.190	-0.010	0.030
2020/01/31 00:38:52.2	259.000	-0.200	-0.010	-0.000
2020/01/31 00:38:52.3	259.020	-0.210	-0.000	-0.030
2020/01/31 00:38:52.4	259.050	-0.210	0.000	-0.060
2020/01/31 00:38:52.5	259.080	-0.210	0.000	-0.080
2020/01/31 00:38:52.6	259.110	-0.220	-0.000	-0.110
2020/01/31 00:38:52.7	259.140	-0.220	-0.010	-0.130
2020/01/31 00:38:52.8	259.170	-0.220	-0.010	-0.150
2020/01/31 00:38:52.9	259.200	-0.220	-0.020	-0.170
2020/01/31 00:38:53.0	259.230	-0.220	-0.030	-0.180
2020/01/31 00:38:53.1	259.260	-0.220	-0.040	-0.190
2020/01/31 00:38:53.2	259.290	-0.220	-0.050	-0.200
2020/01/31 00:38:53.3	259.330	-0.220	-0.070	-0.210
2020/01/31 00:38:53.4	259.360	-0.220	-0.080	-0.210
2020/01/31 00:38:53.5	259.400	-0.210	-0.100	-0.210
2020/01/31 00:38:53.6	259.430	-0.210	-0.110	-0.210
2020/01/31 00:38:53.7	259.470	-0.210	-0.130	-0.200
2020/01/31 00:38:53.8	259.500	-0.210	-0.150	-0.200
2020/01/31 00:38:53.9	259.540	-0.200	-0.170	-0.180
2020/01/31 00:38:54.0	259.570	-0.200	-0.190	-0.170
2020/01/31 00:38:54.1	259.600	-0.200	-0.210	-0.150
2020/01/31 00:38:54.2	259.640	-0.200	-0.230	-0.130
2020/01/31 00:38:54.3	259.670	-0.190	-0.250	-0.100
2020/01/31 00:38:54.4	259.700	-0.190	-0.270	-0.070
2020/01/31 00:38:54.5	259.730	-0.190	-0.290	-0.040
2020/01/31 00:38:54.6	259.760	-0.190	-0.310	-0.010
2020/01/31 00:38:54.7	259.780	-0.190	-0.330	0.030
2020/01/31 00:38:54.8	259.810	-0.190	-0.350	0.060
2020/01/31 00:38:54.9	259.830	-0.190	-0.370	0.100
2020/01/31 00:38:55.0	259.860	-0.190	-0.390	0.140
2020/01/31 00:38:55.1	259.880	-0.200	-0.410	0.180
2020/01/31 00:38:55.2	259.900	-0.200	-0.420	0.220
2020/01/31 00:38:55.3	259.920	-0.200	-0.440	0.260
2020/01/31 00:38:55.4	259.940	-0.210	-0.450	0.300
2020/01/31 00:38:55.5	259.960	-0.210	-0.470	0.340
2020/01/31 00:38:55.6	259.970	-0.220	-0.480	0.380
2020/01/31 00:38:55.7	259.990	-0.230	-0.490	0.420
2020/01/31 00:38:55.8	260.010	-0.230	-0.490	0.460
2020/01/31 00:38:55.9	260.020	-0.240	-0.500	0.490
2020/01/31 00:38:56.0	260.040	-0.250	-0.500	0.530
2020/01/31 00:38:56.1	260.050	-0.250	-0.500	0.560
2020/01/31 00:38:56.2	260.070	-0.260	-0.500	0.590
2020/01/31 00:38:56.3	260.080	-0.270	-0.500	0.620
2020/01/31 00:38:56.4	260.100	-0.280	-0.500	0.650
2020/01/31 00:38:56.5	260.110	-0.280	-0.490	0.670
2020/01/31 00:38:56.6	260.120	-0.290	-0.480	0.700
2020/01/31 00:38:56.7	260.140	-0.300	-0.470	0.720
2020/01/31 00:38:56.8	260.150	-0.300	-0.460	0.740
2020/01/31 00:38:56.9	260.150	-0.310	-0.450	0.760
2020/01/31 00:38:57.0	260.160	-0.310	-0.440	0.780
2020/01/31 00:38:57.1	260.170	-0.320	-0.430	0.800
2020/01/31 00:38:57.2	260.180	-0.320	-0.410	0.810
2020/01/31 00:38:57.3	260.190	-0.320	-0.400	0.830
2020/01/31 00:38:57.4	260.200	-0.320	-0.390	0.850
2020/01/31 00:38:57.5	260.200	-0.320	-0.380	0.860
2020/01/31 00:38:57.6	260.210	-0.320	-0.370	0.880
2020/01/31 00:38:57.7	260.210	-0.310	-0.350	0.890
2020/01/31 00:38:57.8	260.210	-0.310	-0.340	0.910
2020/01/31 00:38:57.9	260.210	-0.300	-0.340	0.920
2020/01/31 00:38:58.0	260.200	-0.290	-0.330	0.940
2020/01/31 00:38:58.1	260.200	-0.280	-0.320	0.950
2020/01/31 00:38:58.2	260.200	-0.270	-0.310	0.970
2020/01/31 00:38:58.3	260.190	-0.260	-0.300	0.980
2020/01/31 00:38:58.4	260.180	-0.250	-0.290	1.000
2020/01/31 00:38:58.5	260.170	-0.240	-0.280	1.010
2020/01/31 00:38:58.6	260.160	-0.220	-0.280	1.030
2020/01/31 00:38:58.7	260.150	-0.210	-0.270	1.040
2020/01/31 00:38:58.8	260.130	-0.190	-0.260	1.060
2020/01/31 00:38:58.9	260.120	-0.170	-0.260	1.070
2020/01/31 00:38:59.0	260.100	-0.160	-0.250	1.080
2020/01/31 00:38:59.1	260.080	-0.140	-0.250	1.100
2020/01/31 00:38:59.2	260.060	-0.120	-0.240	1.110
2020/01/31 00:38:59.3	260.030	-0.110	-0.230	1.120
2020/01/31 00:38:59.4	260.010	-0.090	-0.230	1.130
2020/01/31 00:38:59.5	259.980	-0.070	-0.220	1.140
2020/01/31 00:38:59.6	259.950	-0.060	-0.220	1.140
2020/01/31 00:38:59.7	259.920	-0.040	-0.210	1.150
2020/01/31 00:38:59.8	259.890	-0.030	-0.200	1.150
2020/01/31 00:38:59.9	259.850	-0.010	-0.190	1.150
2020/01/31 00:39:00.0	259.820	0.000	-0.180	1.150
2020/01/31 00:39:00.1	259.790	0.020	-0.170	1.150
2020/01/31 00:39:00.2	259.760	0.030	-0.160	1.140
2020/01/31 00:39:00.3	259.720	0.040	-0.150	1.140
2020/01/31 00:39:00.4	259.690	0.050	-0.140	1.130
2020/01/31 00:39:00.5	259.650	0.060	-0.130	1.120
2020/01/31 00:39:00.6	259.620	0.070	-0.110	1.110
2020/01/31 00:39:00.7	259.580	0.080	-0.100	1.090
2020/01/31 00:39:00.8	259.550	0.080	-0.090	1.080
2020/01/31 00:39:00.9	259.510	0.090	-0.070	1.060
2020/01/31 00:39:01.0	259.480	0.090	-0.060	1.040
2020/01/31 00:39:01.1	259.450	0.100	-0.040	1.020
2020/01/31 00:39:01.2	259.410	0.100	-0.030	1.000
2020/01/31 00:39:01.3	259.380	0.100	-0.010	0.970
2020/01/31 00:39:01.4	259.360	0.110	0.000	0.950
2020/01/31 00:39:01.5	259.330	0.110	0.020	0.920
2020/01/31 00:39:01.6	259.300	0.110	0.030	0.900
2020/01/31 00:39:01.7	259.280	0.110	0.040	0.870
2020/01/31 00:39:01.8	259.250	0.110	0.060	0.850
2020/01/31 00:39:01.9	259.230	0.110	0.070	0.820
2020/01/31 00:39:02.0	259.200	0.110	0.080	0.790
2020/01/31 00:39:02.1	259.180	0.110	0.090	0.770
2020/01/31 00:39:02.2	259.170	0.110	0.100	0.740
2020/01/31 00:39:02.3	259.150	0.110	0.110	0.720
2020/01/31 00:39:02.4	259.130	0.100	0.110	0.700
2020/01/31 00:39:02.5	259.110	0.100	0.120	0.680
2020/01/31 00:39:02.6	259.100	0.100	0.120	0.660
2020/01/31 00:39:02.7	259.090	0.110	0.120	0.640
2020/01/31 00:39:02.8	259.070	0.110	0.120	0.620
2020/01/31 00:39:02.9	259.070	0.110	0.120	0.610
2020/01/31 00:39:03.0	259.060	0.110	0.110	0.590
2020/01/31 00:39:03.1	259.060	0.110	0.110	0.580
2020/01/31 00:39:03.2	259.050	0.120	0.100	0.570
2020/01/31 00:39:03.3	259.040	0.120	0.080	0.560
2020/01/31 00:39:03.4	259.040	0.120	0.070	0.550
2020/01/31 00:39:03.5	259.040	0.130	0.050	0.540
2020/01/31 00:39:03.6	259.040	0.140	0.040	0.530
2020/01/31 00:39:03.7	259.040	0.140	0.020	0.520
2020/01/31 00:39:03.8	259.040	0.150	-0.000	0.520
2020/01/31 00:39:03.9	259.040	0.160	-0.030	0.510
2020/01/31 00:39:04.0	259.050	0.160	-0.050	0.510
2020/01/31 00:39:04.1	259.060	0.170	-0.080	0.510
2020/01/31 00:39:04.2	259.070	0.180	-0.100	0.510
2020/01/31 00:39:04.3	259.080	0.190	-0.130	0.520
2020/01/31 00:39:04.4	259.090	0.200	-0.150	0.520
2020/01/31 00:39:04.5	259.110	0.210	-0.180	0.530
2020/01/31 00:39:04.6	259.120	0.220	-0.210	0.540
2020/01/31 00:39:04.7	259.140	0.230	-0.240	0.550
2020/01/31 00:39:04.8	259.160	0.240	-0.270	0.560
2020/01/31 00:39:04.9	259.180	0.250	-0.300	0.570
2020/01/31 00:39:05.0	259.200	0.260	-0.320	0.590
2020/01/31 00:39:05.1	259.220	0.270	-0.350	0.610
2020/01/31 00:39:05.2	259.250	0.270	-0.380	0.630
2020/01/31 00:39:05.3	259.270	0.280	-0.400	0.650
2020/01/31 00:39:05.4	259.290	0.290	-0.420	0.670
2020/01/31 00:39:05.5	259.320	0.300	-0.440	0.690
2020/01/31 00:39:05.6	259.350	0.310	-0.460	0.720
2020/01/31 00:39:05.7	259.380	0.310	-0.480	0.740
2020/01/31 00:39:05.8	259.400	0.320	-0.500	0.770
2020/01/31 00:39:05.9	259.420	0.330	-0.520	0.800
2020/01/31 00:39:06.0	259.450	0.330	-0.530	0.820
2020/01/31 00:39:06.1	259.480	0.340	-0.540	0.850
2020/01/31 00:39:06.2	259.510	0.340	-0.550	0.870
2020/01/31 00:39:06.3	259.530	0.340	-0.560	0.900
2020/01/31 00:39:06.4	259.560	0.350	-0.570	0.920
2020/01/31 00:39:06.5	259.590	0.350	-0.570	0.950
2020/01/31 00:39:06.6	259.620	0.350	-0.570	0.970
2020/01/31 00:39:06.7	259.650	0.350	-0.580	0.990
2020/01/31 00:39:06.8	259.670	0.350	-0.580	1.010
2020/01/31 00:39:06.9	259.700	0.350	-0.580	1.030
2020/01/31 00:39:07.0	259.720	0.350	-0.570	1.040
2020/01/31 00:39:07.1	259.750	0.340	-0.570	1.060
2020/01/31 00:39:07.2	259.770	0.340	-0.570	1.070
2020/01/31 00:39:07.3	259.790	0.340	-0.570	1.090
2020/01/31 00:39:07.4	259.810	0.330	-0.570	1.100
2020/01/31 00:39:07.5	259.830	0.330	-0.560	1.110
2020/01/31 00:39:07.6	259.850	0.320	-0.560	1.130
2020/01/31 00:39:07.7	259.870	0.310	-0.560	1.140
2020/01/31 00:39:07.8	259.880	0.310	-0.560	1.150
2020/01/31 00:39:07.9	259.900	0.300	-0.550	1.150
2020/01/31 00:39:08.0	259.900	0.290	-0.550	1.160
2020/01/31 00:39:08.1	259.910	0.280	-0.550	1.170
2020/01/31 00:39:08.2	259.920	0.270	-0.550	1.180
2020/01/31 00:39:08.3	259.920	0.260	-0.550	1.180
2020/01/31 00:39:08.4	259.930	0.250	-0.540	1.190
2020/01/31 00:39:08.5	259.930	0.240	-0.540	1.200
2020/01/31 00:39:08.6	259.930	0.230	-0.540	1.200
2020/01/31 00:39:08.7	259.930	0.210	-0.540	1.210
2020/01/31 00:39:08.8	259.930	0.200	-0.540	1.210
2020/01/31 00:39:08.9	259.910	0.180	-0.530	1.210
2020/01/31 00:39:09.0	259.910	0.170	-0.530	1.210
2020/01/31 00:39:09.1	259.900	0.150	-0.530	1.210
2020/01/31 00:39:09.2	259.900	0.130	-0.520	1.210
2020/01/31 00:39:09.3	259.890	0.110	-0.520	1.210
2020/01/31 00:39:09.4	259.890	0.100	-0.520	1.210
2020/01/31 00:39:09.5	259.880	0.080	-0.510	1.200
2020/01/31 00:39:09.6	259.870	0.060	-0.500	1.200
2020/01/31 00:39:09.7	259.860	0.040	-0.500	1.190
2020/01/31 00:39:09.8	259.850	0.020	-0.490	1.190
2020/01/31 00:39:09.9	259.850	-0.000	-0.490	1.170
2020/01/31 00:39:10.0	259.840	-0.020	-0.480	1.170
2020/01/31 00:39:10.1	259.830	-0.040	-0.470	1.160
2020/01/31 00:39:10.2	259.820	-0.060	-0.470	1.150
2020/01/31 00:39:10.3	259.800	-0.080	-0.460	1.130
2020/01/31 00:39:10.4	259.790	-0.100	-0.450	1.120
2020/01/31 00:39:10.5	259.780	-0.120	-0.440	1.110
2020/01/31 00:39:10.6	259.770	-0.130	-0.440	1.100
2020/01/31 00:39:10.7	259.750	-0.150	-0.430	1.080
2020/01/31 00:39:10.8	259.740	-0.170	-0.420	1.070
2020/01/31 00:39:10.9	259.740	-0.180	-0.410	1.060
2020/01/31 00:39:11.0	259.720	-0.200	-0.400	1.040
2020/01/31 00:39:11.1	259.710	-0.210	-0.380	1.030
2020/01/31 00:39:11.2	259.700	-0.220	-0.370	1.020
2020/01/31 00:39:11.3	259.680	-0.230	-0.360	1.000
2020/01/31 00:39:11.4	259.670	-0.240	-0.340	0.990
2020/01/31 00:39:11.5	259.660	-0.250	-0.330	0.970
2020/01/31 00:39:11.6	259.650	-0.250	-0.310	0.960
2020/01/31 00:39:11.7	259.640	-0.260	-0.300	0.940
2020/01/31 00:39:11.8	259.630	-0.260	-0.280	0.930
2020/01/31 00:39:11.9	259.610	-0.270	-0.260	0.910
2020/01/31 00:39:12.0	259.610	-0.270	-0.250	0.890
2020/01/31 00:39:12.1	259.600	-0.270	-0.230	0.870
2020/01/31 00:39:12.2	259.600	-0.270	-0.210	0.860
2020/01/31 00:39:12.3	259.600	-0.270	-0.190	0.840
2020/01/31 00:39:12.4	259.600	-0.260	-0.180	0.820
2020/01/31 00:39:12.5	259.600	-0.260	-0.160	0.800
2020/01/31 00:39:12.6	259.600	-0.260	-0.150	0.780
2020/01/31 00:39:12.7	259.600	-0.250	-0.130	0.760
2020/01/31 00:39:12.8	259.610	-0.250	-0.120	0.740
2020/01/31 00:39:12.9	259.610	-0.240	-0.110	0.720
2020/01/31 00:39:13.0	259.620	-0.230	-0.090	0.700
2020/01/31 00:39:13.1	259.620	-0.230	-0.090	0.680
2020/01/31 00:39:13.2	259.630	-0.220	-0.080	0.650
2020/01/31 00:39:13.3	259.630	-0.210	-0.070	0.630
2020/01/31 00:39:13.4	259.640	-0.210	-0.070	0.610
2020/01/31 00:39:13.5	259.640	-0.200	-0.070	0.590
2020/01/31 00:39:13.6	259.640	-0.190	-0.060	0.570
2020/01/31 00:39:13.7	259.650	-0.190	-0.070	0.560
2020/01/31 00:39:13.8	259.650	-0.180	-0.070	0.540
2020/01/31 00:39:13.9	259.670	-0.180	-0.080	0.520
2020/01/31 00:39:14.0	259.670	-0.170	-0.080	0.500
2020/01/31 00:39:14.1	259.670	-0.170	-0.090	0.490
2020/01/31 00:39:14.2	259.670	-0.160	-0.100	0.480
2020/01/31 00:39:14.3	259.660	-0.160	-0.120	0.470
2020/01/31 00:39:14.4	259.660	-0.160	-0.130	0.470
2020/01/31 00:39:14.5	259.660	-0.150	-0.150	0.460
2020/01/31 00:39:14.6	259.650	-0.150	-0.160	0.460
2020/01/31 00:39:14.7	259.650	-0.150	-0.180	0.450
2020/01/31 00:39:14.8	259.640	-0.150	-0.200	0.450
2020/01/31 00:39:14.9	259.640	-0.150	-0.220	0.460
2020/01/31 00:39:15.0	259.640	-0.160	-0.230	0.460
2020/01/31 00:39:15.1	259.630	-0.160	-0.250	0.460
2020/01/31 00:39:15.2	259.630	-0.160	-0.270	0.460
2020/01/31 00:39:15.3	259.620	-0.160	-0.280	0.470
2020/01/31 00:39:15.4	259.610	-0.170	-0.300	0.470
2020/01/31 00:39:15.5	259.610	-0.170	-0.310	0.480
2020/01/31 00:39:15.6	259.600	-0.180	-0.330	0.480
2020/01/31 00:39:15.7	259.590	-0.180	-0.340	0.490
2020/01/31 00:39:15.8	259.590	-0.190	-0.350	0.500
2020/01/31 00:39:15.9	259.600	-0.190	-0.360	0.510
2020/01/31 00:39:16.0	259.590	-0.200	-0.370	0.520
2020/01/31 00:39:16.1	259.580	-0.210	-0.370	0.540
2020/01/31 00:39:16.2	259.570	-0.210	-0.380	0.550
2020/01/31 00:39:16.3	259.560	-0.220	-0.380	0.570
2020/01/31 00:39:16.4	259.550	-0.220	-0.380	0.580
2020/01/31 00:39:16.5	259.530	-0.230	-0.380	0.600
2020/01/31 00:39:16.6	259.520	-0.240	-0.380	0.620
2020/01/31 00:39:16.7	259.510	-0.240	-0.370	0.640
2020/01/31 00:39:16.8	259.490	-0.250	-0.370	0.660
2020/01/31 00:39:16.9	259.480	-0.250	-0.360	0.680
2020/01/31 00:39:17.0	259.470	-0.260	-0.350	0.700
2020/01/31 00:39:17.1	259.450	-0.260	-0.350	0.720
2020/01/31 00:39:17.2	259.440	-0.260	-0.340	0.740
2020/01/31 00:39:17.3	259.420	-0.270	-0.330	0.770
2020/01/31 00:39:17.4	259.400	-0.270	-0.320	0.790
2020/01/31 00:39:17.5	259.390	-0.270	-0.300	0.810
2020/01/31 00:39:17.6	259.370	-0.270	-0.290	0.840
2020/01/31 00:39:17.7	259.360	-0.270	-0.280	0.860
2020/01/31 00:39:17.8	259.340	-0.280	-0.270	0.890
2020/01/31 00:39:17.9	259.310	-0.280	-0.260	0.910
2020/01/31 00:39:18.0	259.300	-0.270	-0.240	0.930
2020/01/31 00:39:18.1	259.280	-0.270	-0.230	0.960
2020/01/31 00:39:18.2	259.270	-0.270	-0.220	0.980
2020/01/31 00:39:18.3	259.260	-0.270	-0.200	1.010
2020/01/31 00:39:18.4	259.240	-0.270	-0.190	1.040
2020/01/31 00:39:18.5	259.230	-0.260	-0.180	1.060
2020/01/31 00:39:18.6	259.220	-0.260	-0.160	1.090
2020/01/31 00:39:18.7	259.200	-0.250	-0.150	1.110
2020/01/31 00:39:18.8	259.190	-0.240	-0.140	1.140
2020/01/31 00:39:18.9	259.180	-0.240	-0.130	1.160
2020/01/31 00:39:19.0	259.170	-0.230	-0.120	1.180
2020/01/31 00:39:19.1	259.160	-0.220	-0.110	1.210
2020/01/31 00:39:19.2	259.150	-0.210	-0.100	1.230
2020/01/31 00:39:19.3	259.140	-0.200	-0.090	1.250
2020/01/31 00:39:19.4	259.140	-0.190	-0.090	1.270
2020/01/31 00:39:19.5	259.130	-0.170	-0.080	1.300
2020/01/31 00:39:19.6	259.130	-0.160	-0.070	1.320
2020/01/31 00:39:19.7	259.120	-0.150	-0.070	1.330
2020/01/31 00:39:19.8	259.120	-0.130	-0.060	1.350
2020/01/31 00:39:19.9	259.110	-0.120	-0.060	1.370
2020/01/31 00:39:20.0	259.100	-0.100	-0.060	1.380
2020/01/31 00:39:20.1	259.100	-0.080	-0.060	1.400
2020/01/31 00:39:20.2	259.100	-0.060	-0.050	1.410
2020/01/31 00:39:20.3	259.100	-0.040	-0.050	1.420
2020/01/31 00:39:20.4	259.100	-0.020	-0.050	1.430
2020/01/31 00:39:20.5	259.100	-0.000	-0.050	1.430
2020/01/31 00:39:20.6	259.100	0.020	-0.050	1.440
2020/01/31 00:39:20.7	259.100	0.040	-0.050	1.440
2020/01/31 00:39:20.8	259.100	0.060	-0.050	1.440
2020/01/31 00:39:20.9	259.080	0.080	-0.050	1.440
2020/01/31 00:39:21.0	259.090	0.100	-0.050	1.440
2020/01/31 00:39:21.1	259.090	0.120	-0.050	1.440
2020/01/31 00:39:21.2	259.090	0.150	-0.050	1.440
2020/01/31 00:39:21.3	259.090	0.170	-0.060	1.430
2020/01/31 00:39:21.4	259.090	0.190	-0.060	1.430
2020/01/31 00:39:21.5	259.090	0.210	-0.060	1.420
2020/01/31 00:39:21.6	259.090	0.230	-0.060	1.410
2020/01/31 00:39:21.7	259.100	0.250	-0.070	1.400
2020/01/31 00:39:21.8	259.100	0.270	-0.070	1.390
2020/01/31 00:39:21.9	259.100	0.290	-0.070	1.370
2020/01/31 00:39:22.0	259.100	0.310	-0.070	1.350
2020/01/31 00:39:22.1	259.110	0.330	-0.070	1.340
2020/01/31 00:39:22.2	259.110	0.350	-0.080	1.320
2020/01/31 00:39:22.3	259.110	0.360	-0.080	1.300
2020/01/31 00:39:22.4	259.120	0.380	-0.080	1.280
2020/01/31 00:39:22.5	259.120	0.390	-0.080	1.260
2020/01/31 00:39:22.6	259.130	0.410	-0.080	1.230
2020/01/31 00:39:22.7	259.130	0.420	-0.080	1.210
2020/01/31 00:39:22.8	259.140	0.430	-0.090	1.190
2020/01/31 00:39:22.9	259.140	0.440	-0.090	1.160
2020/01/31 00:39:23.0	259.140	0.450	-0.090	1.140
2020/01/31 00:39:23.1	259.150	0.460	-0.100	1.120
2020/01/31 00:39:23.2	259.150	0.470	-0.100	1.090
2020/01/31 00:39:23.3	259.160	0.480	-0.110	1.070
2020/01/31 00:39:23.4	259.160	0.480	-0.110	1.050
2020/01/31 00:39:23.5	259.160	0.490	-0.120	1.020
2020/01/31 00:39:23.6	259.170	0.490	-0.120	1.000
2020/01/31 00:39:23.7	259.170	0.500	-0.130	0.980
2020/01/31 00:39:23.8	259.170	0.500	-0.140	0.960
2020/01/31 00:39:23.9	259.170	0.500	-0.150	0.940
2020/01/31 00:39:24.0	259.170	0.500	-0.150	0.920
2020/01/31 00:39:24.1	259.170	0.500	-0.170	0.910
2020/01/31 00:39:24.2	259.170	0.500	-0.180	0.890
2020/01/31 00:39:24.3	259.170	0.500	-0.190	0.870
2020/01/31 00:39:24.4	259.170	0.500	-0.200	0.860
2020/01/31 00:39:24.5	259.170	0.500	-0.220	0.840
2020/01/31 00:39:24.6	259.170	0.490	-0.240	0.830
2020/01/31 00:39:24.7	259.170	0.490	-0.250	0.820
2020/01/31 00:39:24.8	259.170	0.480	-0.270	0.810
2020/01/31 00:39:24.9	259.180	0.480	-0.290	0.800
2020/01/31 00:39:25.0	259.180	0.470	-0.310	0.790
2020/01/31 00:39:25.1	259.180	0.470	-0.330	0.780
2020/01/31 00:39:25.2	259.180	0.460	-0.360	0.770
2020/01/31 00:39:25.3	259.180	0.450	-0.380	0.760
2020/01/31 00:39:25.4	259.180	0.440	-0.400	0.760
2020/01/31 00:39:25.5	259.180	0.430	-0.430	0.750
2020/01/31 00:39:25.6	259.180	0.430	-0.450	0.750
2020/01/31 00:39:25.7	259.190	0.420	-0.480	0.740
2020/01/31 00:39:25.8	259.190	0.410	-0.500	0.740
2020/01/31 00:39:25.9	259.180	0.400	-0.530	0.740
2020/01/31 00:39:26.0	259.180	0.390	-0.550	0.740
2020/01/31 00:39:26.1	259.180	0.380	-0.580	0.740
2020/01/31 00:39:26.2	259.180	0.360	-0.600	0.740
2020/01/31 00:39:26.3	259.180	0.350	-0.620	0.750
2020/01/31 00:39:26.4	259.180	0.340	-0.640	0.750
2020/01/31 00:39:26.5	259.180	0.330	-0.660	0.750
2020/01/31 00:39:26.6	259.180	0.320	-0.680	0.760
2020/01/31 00:39:26.7	259.180	0.310	-0.700	0.760
2020/01/31 00:39:26.8	259.180	0.290	-0.710	0.770
2020/01/31 00:39:26.9	259.190	0.280	-0.720	0.770
2020/01/31 00:39:27.0	259.190	0.270	-0.740	0.780
2020/01/31 00:39:27.1	259.180	0.250	-0.750	0.790
2020/01/31 00:39:27.2	259.180	0.240	-0.750	0.810
2020/01/31 00:39:27.3	259.180	0.230	-0.760	0.820
2020/01/31 00:39:27.4	259.180	0.210	-0.770	0.830
2020/01/31 00:39:27.5	259.170	0.200	-0.770	0.850
2020/01/31 00:39:27.6	259.170	0.180	-0.770	0.870
2020/01/31 00:39:27.7	259.160	0.170	-0.770	0.890
2020/01/31 00:39:27.8	259.150	0.150	-0.770	0.910
2020/01/31 00:39:27.9	259.150	0.130	-0.780	0.940
2020/01/31 00:39:28.0	259.140	0.110	-0.770	0.960
2020/01/31 00:39:28.1	259.130	0.100	-0.770	0.990
2020/01/31 00:39:28.2	259.120	0.080	-0.760	1.010
2020/01/31 00:39:28.3	259.110	0.060	-0.760	1.040
2020/01/31 00:39:28.4	259.100	0.040	-0.750	1.070
2020/01/31 00:39:28.5	259.090	0.020	-0.740	1.100
2020/01/31 00:39:28.6	259.080	0.000	-0.730	1.120
2020/01/31 00:39:28.7	259.060	-0.020	-0.720	1.150
2020/01/31 00:39:28.8	259.050	-0.040	-0.710	1.180
2020/01/31 00:39:28.9	259.040	-0.060	-0.690	1.200
2020/01/31 00:39:29.0	259.030	-0.080	-0.680	1.220
2020/01/31 00:39:29.1	259.010	-0.110	-0.660	1.250
2020/01/31 00:39:29.2	258.990	-0.130	-0.640	1.270
2020/01/31 00:39:29.3	258.970	-0.150	-0.630	1.290
2020/01/31 00:39:29.4	258.950	-0.180	-0.610	1.310
2020/01/31 00:39:29.5	258.930	-0.200	-0.590	1.330
2020/01/31 00:39:29.6	258.910	-0.230	-0.570	1.340
2020/01/31 00:39:29.7	258.880	-0.250	-0.550	1.360
2020/01/31 00:39:29.8	258.860	-0.280	-0.530	1.370
2020/01/31 00:39:29.9	258.830	-0.300	-0.510	1.390
2020/01/31 00:39:30.0	258.810	-0.330	-0.490	1.400
2020/01/31 00:39:30.1	258.780	-0.350	-0.470	1.410
2020/01/31 00:39:30.2	258.750	-0.370	-0.440	1.410
2020/01/31 00:39:30.3	258.720	-0.400	-0.420	1.420
2020/01/31 00:39:30.4	258.690	-0.420	-0.390	1.420
2020/01/31 00:39:30.5	258.660	-0.450	-0.370	1.420
2020/01/31 00:39:30.6	258.630	-0.470	-0.340	1.420
2020/01/31 00:39:30.7	258.600	-0.490	-0.310	1.420
2020/01/31 00:39:30.8	258.560	-0.520	-0.280	1.420
2020/01/31 00:39:30.9	258.530	-0.540	-0.260	1.410
2020/01/31 00:39:31.0	258.500	-0.560	-0.230	1.400
2020/01/31 00:39:31.1	258.470	-0.580	-0.200	1.390
2020/01/31 00:39:31.2	258.440	-0.590	-0.170	1.380
2020/01/31 00:39:31.3	258.410	-0.610	-0.140	1.360
2020/01/31 00:39:31.4	258.380	-0.630	-0.110	1.340
2020/01/31 00:39:31.5	258.350	-0.640	-0.070	1.320
2020/01/31 00:39:31.6	258.330	-0.650	-0.040	1.300
2020/01/31 00:39:31.7	258.310	-0.660	-0.010	1.270
2020/01/31 00:39:31.8	258.280	-0.670	0.020	1.250
2020/01/31 00:39:31.9	258.260	-0.680	0.050	1.220
2020/01/31 00:39:32.0	258.250	-0.690	0.080	1.190
2020/01/31 00:39:32.1	258.230	-0.690	0.110	1.160
2020/01/31 00:39:32.2	258.220	-0.700	0.140	1.120
2020/01/31 00:39:32.3	258.210	-0.700	0.160	1.090
2020/01/31 00:39:32.4	258.200	-0.700	0.190	1.060
2020/01/31 00:39:32.5	258.190	-0.700	0.210	1.030
2020/01/31 00:39:32.6	258.190	-0.690	0.230	1.000
2020/01/31 00:39:32.7	258.190	-0.690	0.250	0.960
2020/01/31 00:39:32.8	258.190	-0.680	0.270	0.930
2020/01/31 00:39:32.9	258.210	-0.670	0.280	0.900
2020/01/31 00:39:33.0	258.210	-0.660	0.290	0.870
2020/01/31 00:39:33.1	258.220	-0.650	0.300	0.840
2020/01/31 00:39:33.2	258.230	-0.630	0.310	0.810
2020/01/31 00:39:33.3	258.240	-0.620	0.320	0.790
2020/01/31 00:39:33.4	258.260	-0.600	0.320	0.760
2020/01/31 00:39:33.5	258.270	-0.580	0.320	0.740
2020/01/31 00:39:33.6	258.290	-0.560	0.320	0.710
2020/01/31 00:39:33.7	258.300	-0.540	0.310	0.690
2020/01/31 00:39:33.8	258.320	-0.510	0.310	0.670
2020/01/31 00:39:33.9	258.340	-0.480	0.300	0.660
2020/01/31 00:39:34.0	258.360	-0.460	0.290	0.640
2020/01/31 00:39:34.1	258.390	-0.430	0.270	0.630
2020/01/31 00:39:34.2	258.410	-0.400	0.260	0.620
2020/01/31 00:39:34.3	258.430	-0.370	0.240	0.610
2020/01/31 00:39:34.4	258.450	-0.340	0.220	0.600
2020/01/31 00:39:34.5	258.480	-0.300	0.200	0.590
2020/01/31 00:39:34.6	258.500	-0.270	0.170	0.590
2020/01/31 00:39:34.7	258.530	-0.230	0.150	0.580
2020/01/31 00:39:34.8	258.550	-0.200	0.120	0.580
2020/01/31 00:39:34.9	258.580	-0.160	0.090	0.580
2020/01/31 00:39:35.0	258.610	-0.130	0.060	0.580
2020/01/31 00:39:35.1	258.630	-0.090	0.030	0.590
2020/01/31 00:39:35.2	258.660	-0.060	0.000	0.600
2020/01/31 00:39:35.3	258.690	-0.020	-0.030	0.600
2020/01/31 00:39:35.4	258.710	0.010	-0.060	0.620
2020/01/31 00:39:35.5	258.740	0.050	-0.090	0.630
2020/01/31 00:39:35.6	258.770	0.080	-0.120	0.640
2020/01/31 00:39:35.7	258.790	0.120	-0.140	0.660
2020/01/31 00:39:35.8	258.820	0.150	-0.170	0.680
2020/01/31 00:39:35.9	258.830	0.180	-0.200	0.700
2020/01/31 00:39:36.0	258.850	0.210	-0.230	0.720
2020/01/31 00:39:36.1	258.880	0.240	-0.250	0.750
2020/01/31 00:39:36.2	258.900	0.270	-0.270	0.780
2020/01/31 00:39:36.3	258.920	0.290	-0.290	0.810
2020/01/31 00:39:36.4	258.950	0.320	-0.310	0.840
2020/01/31 00:39:36.5	258.970	0.340	-0.330	0.870
2020/01/31 00:39:36.6	258.990	0.360	-0.350	0.900
2020/01/31 00:39:36.7	259.010	0.380	-0.370	0.930
2020/01/31 00:39:36.8	259.020	0.400	-0.380	0.970
2020/01/31 00:39:36.9	259.050	0.410	-0.390	1.000
2020/01/31 00:39:37.0	259.060	0.430	-0.400	1.030
2020/01/31 00:39:37.1	259.080	0.440	-0.410	1.070
2020/01/31 00:39:37.2	259.090	0.450	-0.420	1.100
2020/01/31 00:39:37.3	259.100	0.460	-0.430	1.130
2020/01/31 00:39:37.4	259.110	0.460	-0.440	1.170
2020/01/31 00:39:37.5	259.120	0.470	-0.440	1.200
2020/01/31 00:39:37.6	259.130	0.470	-0.440	1.230
2020/01/31 00:39:37.7	259.140	0.470	-0.450	1.260
2020/01/31 00:39:37.8	259.150	0.470	-0.450	1.290
2020/01/31 00:39:37.9	259.150	0.470	-0.450	1.320
2020/01/31 00:39:38.0	259.150	0.470	-0.450	1.350
2020/01/31 00:39:38.1	259.160	0.460	-0.450	1.370
2020/01/31 00:39:38.2	259.160	0.460	-0.450	1.400
2020/01/31 00:39:38.3	259.160	0.450	-0.450	1.420
2020/01/31 00:39:38.4	259.160	0.440	-0.450	1.440
2020/01/31 00:39:38.5	259.160	0.430	-0.450	1.460
2020/01/31 00:39:38.6	259.160	0.420	-0.450	1.480
2020/01/31 00:39:38.7	259.150	0.410	-0.440	1.490
2020/01/31 00:39:38.8	259.150	0.400	-0.440	1.500
2020/01/31 00:39:38.9	259.150	0.390	-0.430	1.510
2020/01/31 00:39:39.0	259.150	0.370	-0.430	1.520
2020/01/31 00:39:39.1	259.140	0.360	-0.430	1.520
2020/01/31 00:39:39.2	259.130	0.350	-0.420	1.520
2020/01/31 00:39:39.3	259.120	0.330	-0.420	1.520
2020/01/31 00:39:39.4	259.110	0.320	-0.420	1.510
2020/01/31 00:39:39.5	259.100	0.300	-0.420	1.500
2020/01/31 00:39:39.6	259.090	0.290	-0.420	1.490
2020/01/31 00:39:39.7	259.070	0.270	-0.420	1.470
2020/01/31 00:39:39.8	259.060	0.250	-0.420	1.450
2020/01/31 00:39:39.9	259.040	0.240	-0.420	1.430
2020/01/31 00:39:40.0	259.020	0.220	-0.420	1.410
2020/01/31 00:39:40.1	259.000	0.210	-0.420	1.390
2020/01/31 00:39:40.2	258.980	0.190	-0.420	1.360
2020/01/31 00:39:40.3	258.960	0.180	-0.420	1.330
2020/01/31 00:39:40.4	258.940	0.160	-0.430	1.310
2020/01/31 00:39:40.5	258.910	0.150	-0.430	1.280
2020/01/31 00:39:40.6	258.890	0.130	-0.430	1.250
2020/01/31 00:39:40.7	258.860	0.120	-0.440	1.220
2020/01/31 00:39:40.8	258.830	0.110	-0.440	1.200
2020/01/31 00:39:40.9	258.820	0.100	-0.450	1.170
2020/01/31 00:39:41.0	258.790	0.090	-0.460	1.140
2020/01/31 00:39:41.1	258.760	0.070	-0.460	1.110
2020/01/31 00:39:41.2	258.730	0.060	-0.470	1.090
2020/01/31 00:39:41.3	258.700	0.050	-0.480	1.060
2020/01/31 00:39:41.4	258.670	0.040	-0.490	1.040
2020/01/31 00:39:41.5	258.630	0.040	-0.500	1.010
2020/01/31 00:39:41.6	258.600	0.030	-0.510	0.990
2020/01/31 00:39:41.7	258.570	0.020	-0.510	0.970
2020/01/31 00:39:41.8	258.540	0.010	-0.520	0.950
2020/01/31 00:39:41.9	258.510	0.010	-0.540	0.930
2020/01/31 00:39:42.0	258.480	-0.000	-0.540	0.920
2020/01/31 00:39:42.1	258.440	-0.010	-0.550	0.910
2020/01/31 00:39:42.2	258.410	-0.010	-0.550	0.890
2020/01/31 00:39:42.3	258.380	-0.020	-0.560	0.880
2020/01/31 00:39:42.4	258.350	-0.020	-0.560	0.880
2020/01/31 00:39:42.5	258.320	-0.030	-0.560	0.870
2020/01/31 00:39:42.6	258.290	-0.030	-0.560	0.870
2020/01/31 00:39:42.7	258.260	-0.040	-0.560	0.870
2020/01/31 00:39:42.8	258.230	-0.040	-0.560	0.870
2020/01/31 00:39:42.9	258.200	-0.040	-0.550	0.880
2020/01/31 00:39:43.0	258.180	-0.050	-0.550	0.880
2020/01/31 00:39:43.1	258.150	-0.050	-0.540	0.890
2020/01/31 00:39:43.2	258.120	-0.060	-0.530	0.910
2020/01/31 00:39:43.3	258.100	-0.060	-0.520	0.920
2020/01/31 00:39:43.4	258.070	-0.060	-0.500	0.930
2020/01/31 00:39:43.5	258.050	-0.070	-0.490	0.950
2020/01/31 00:39:43.6	258.030	-0.070	-0.470	0.970
2020/01/31 00:39:43.7	258.010	-0.070	-0.450	0.990
2020/01/31 00:39:43.8	257.990	-0.080	-0.420	1.010
2020/01/31 00:39:43.9	258.000	-0.080	-0.400	1.030
2020/01/31 00:39:44.0	257.980	-0.080	-0.370	1.060
2020/01/31 00:39:44.1	257.970	-0.090	-0.340	1.080
2020/01/31 00:39:44.2	257.960	-0.090	-0.310	1.100
2020/01/31 00:39:44.3	257.950	-0.090	-0.270	1.130
2020/01/31 00:39:44.4	257.940	-0.100	-0.240	1.150
2020/01/31 00:39:44.5	257.930	-0.100	-0.200	1.180
2020/01/31 00:39:44.6	257.930	-0.110	-0.160	1.200
2020/01/31 00:39:44.7	257.920	-0.110	-0.120	1.220
2020/01/31 00:39:44.8	257.920	-0.110	-0.080	1.240
2020/01/31 00:39:44.9	257.930	-0.120	-0.040	1.260
2020/01/31 00:39:45.0	257.930	-0.120	0.000	1.280
2020/01/31 00:39:45.1	257.930	-0.130	0.040	1.300
2020/01/31 00:39:45.2	257.940	-0.130	0.090	1.320
2020/01/31 00:39:45.3	257.950	-0.130	0.130	1.330
2020/01/31 00:39:45.4	257.960	-0.140	0.170	1.340
2020/01/31 00:39:45.5	257.970	-0.140	0.210	1.350
2020/01/31 00:39:45.6	257.980	-0.140	0.240	1.360
2020/01/31 00:39:45.7	257.990	-0.140	0.280	1.370
2020/01/31 00:39:45.8	258.010	-0.150	0.310	1.370
2020/01/31 00:39:45.9	258.030	-0.150	0.340	1.380
2020/01/31 00:39:46.0	258.050	-0.150	0.360	1.380
2020/01/31 00:39:46.1	258.070	-0.150	0.380	1.380
2020/01/31 00:39:46.2	258.090	-0.150	0.400	1.370
2020/01/31 00:39:46.3	258.120	-0.150	0.420	1.370
2020/01/31 00:39:46.4	258.140	-0.150	0.430	1.360
2020/01/31 00:39:46.5	258.170	-0.140	0.430	1.340
2020/01/31 00:39:46.6	258.200	-0.140	0.430	1.330
2020/01/31 00:39:46.7	258.220	-0.140	0.430	1.310
2020/01/31 00:39:46.8	258.250	-0.130	0.420	1.290
2020/01/31 00:39:46.9	258.280	-0.130	0.420	1.270
2020/01/31 00:39:47.0	258.320	-0.120	0.400	1.240
2020/01/31 00:39:47.1	258.350	-0.110	0.380	1.210
2020/01/31 00:39:47.2	258.380	-0.110	0.360	1.180
2020/01/31 00:39:47.3	258.410	-0.100	0.340	1.150
2020/01/31 00:39:47.4	258.450	-0.090	0.310	1.120
2020/01/31 00:39:47.5	258.490	-0.080	0.280	1.080
2020/01/31 00:39:47.6	258.520	-0.070	0.250	1.040
2020/01/31 00:39:47.7	258.560	-0.060	0.210	1.000
2020/01/31 00:39:47.8	258.600	-0.050	0.170	0.960
2020/01/31 00:39:47.9	258.630	-0.040	0.130	0.920
2020/01/31 00:39:48.0	258.670	-0.030	0.090	0.880
2020/01/31 00:39:48.1	258.710	-0.020	0.050	0.840
2020/01/31 00:39:48.2	258.760	-0.010	0.010	0.790
2020/01/31 00:39:48.3	258.800	0.000	-0.030	0.750
2020/01/31 00:39:48.4	258.840	0.020	-0.070	0.700
2020/01/31 00:39:48.5	258.890	0.030	-0.110	0.660
2020/01/31 00:39:48.6	258.930	0.040	-0.150	0.620
2020/01/31 00:39:48.7	258.970	0.050	-0.190	0.570
2020/01/31 00:39:48.8	259.020	0.060	-0.230	0.530
2020/01/31 00:39:48.9	259.060	0.060	-0.270	0.490
2020/01/31 00:39:49.0	259.100	0.070	-0.310	0.450
2020/01/31 00:39:49.1	259.140	0.080	-0.350	0.420
2020/01/31 00:39:49.2	259.180	0.090	-0.390	0.380
2020/01/31 00:39:49.3	259.220	0.100	-0.430	0.350
2020/01/31 00:39:49.4	259.250	0.100	-0.470	0.320
2020/01/31 00:39:49.5	259.290	0.110	-0.500	0.300
2020/01/31 00:39:49.6	259.320	0.110	-0.540	0.270
2020/01/31 00:39:49.7	259.350	0.120	-0.580	0.250
2020/01/31 00:39:49.8	259.370	0.120	-0.610	0.240
2020/01/31 00:39:49.9	259.390	0.120	-0.650	0.220
2020/01/31 00:39:50.0	259.410	0.130	-0.680	0.210
2020/01/31 00:39:50.1	259.430	0.130	-0.720	0.210
2020/01/31 00:39:50.2	259.450	0.130	-0.750	0.210
2020/01/31 00:39:50.3	259.460	0.130	-0.780	0.210
2020/01/31 00:39:50.4	259.470	0.130	-0.810	0.210
2020/01/31 00:39:50.5	259.480	0.130	-0.840	0.220
2020/01/31 00:39:50.6	259.480	0.130	-0.870	0.230
2020/01/31 00:39:50.7	259.480	0.120	-0.890	0.240
2020/01/31 00:39:50.8	259.480	0.120	-0.920	0.260
2020/01/31 00:39:50.9	259.480	0.120	-0.940	0.280
2020/01/31 00:39:51.0	259.470	0.110	-0.960	0.300
2020/01/31 00:39:51.1	259.460	0.100	-0.980	0.330
2020/01/31 00:39:51.2	259.450	0.100	-1.000	0.360
2020/01/31 00:39:51.3	259.430	0.090	-1.020	0.390
2020/01/31 00:39:51.4	259.410	0.080	-1.030	0.420
2020/01/31 00:39:51.5	259.390	0.080	-1.040	0.460
2020/01/31 00:39:51.6	259.370	0.070	-1.050	0.490
2020/01/31 00:39:51.7	259.340	0.060	-1.050	0.530
2020/01/31 00:39:51.8	259.310	0.050	-1.050	0.570
2020/01/31 00:39:51.9	259.290	0.040	-1.050	0.610
2020/01/31 00:39:52.0	259.260	0.020	-1.050	0.660
2020/01/31 00:39:52.1	259.220	0.010	-1.040	0.700
2020/01/31 00:39:52.2	259.190	-0.000	-1.030	0.750
2020/01/31 00:39:52.3	259.150	-0.020	-1.010	0.790
2020/01/31 00:39:52.4	259.120	-0.030	-1.000	0.840
2020/01/31 00:39:52.5	259.080	-0.040	-0.980	0.880
2020/01/31 00:39:52.6	259.040	-0.060	-0.950	0.930
2020/01/31 00:39:52.7	259.010	-0.070	-0.920	0.970
2020/01/31 00:39:52.8	258.970	-0.090	-0.900	1.020
2020/01/31 00:39:52.9	258.930	-0.110	-0.870	1.060
2020/01/31 00:39:53.0	258.900	-0.120	-0.830	1.110
2020/01/31 00:39:53.1	258.860	-0.140	-0.790	1.150
2020/01/31 00:39:53.2	258.820	-0.160	-0.750	1.190
2020/01/31 00:39:53.3	258.790	-0.170	-0.710	1.240
2020/01/31 00:39:53.4	258.750	-0.190	-0.670	1.270
2020/01/31 00:39:53.5	258.710	-0.210	-0.620	1.310
2020/01/31 00:39:53.6	258.680	-0.230	-0.580	1.350
2020/01/31 00:39:53.7	258.640	-0.240	-0.530	1.380
2020/01/31 00:39:53.8	258.610	-0.260	-0.480	1.420
2020/01/31 00:39:53.9	258.570	-0.270	-0.430	1.450
2020/01/31 00:39:54.0	258.540	-0.290	-0.380	1.480
2020/01/31 00:39:54.1	258.510	-0.300	-0.320	1.500
2020/01/31 00:39:54.2	258.480	-0.320	-0.270	1.530
2020/01/31 00:39:54.3	258.450	-0.330	-0.220	1.550
2020/01/31 00:39:54.4	258.420	-0.350	-0.170	1.570
2020/01/31 00:39:54.5	258.390	-0.360	-0.120	1.590
2020/01/31 00:39:54.6	258.360	-0.370	-0.070	1.600
2020/01/31 00:39:54.7	258.340	-0.380	-0.020	1.610
2020/01/31 00:39:54.8	258.310	-0.390	0.030	1.620
2020/01/31 00:39:54.9	258.290	-0.400	0.080	1.630
2020/01/31 00:39:55.0	258.270	-0.400	0.120	1.630
2020/01/31 00:39:55.1	258.250	-0.410	0.170	1.630
2020/01/31 00:39:55.2	258.230	-0.410	0.210	1.620
2020/01/31 00:39:55.3	258.220	-0.420	0.260	1.620
2020/01/31 00:39:55.4	258.210	-0.420	0.300	1.610
2020/01/31 00:39:55.5	258.200	-0.420	0.340	1.590
2020/01/31 00:39:55.6	258.190	-0.420	0.380	1.580
2020/01/31 00:39:55.7	258.190	-0.420	0.410	1.560
2020/01/31 00:39:55.8	258.190	-0.420	0.450	1.540
2020/01/31 00:39:55.9	258.190	-0.410	0.480	1.520
2020/01/31 00:39:56.0	258.190	-0.410	0.510	1.490
2020/01/31 00:39:56.1	258.200	-0.400	0.540	1.470
2020/01/31 00:39:56.2	258.210	-0.390	0.560	1.440
2020/01/31 00:39:56.3	258.220	-0.380	0.590	1.410
2020/01/31 00:39:56.4	258.240	-0.370	0.610	1.370
2020/01/31 00:39:56.5	258.250	-0.360	0.630	1.340
2020/01/31 00:39:56.6	258.270	-0.350	0.640	1.300
2020/01/31 00:39:56.7	258.290	-0.330	0.660	1.260
2020/01/31 00:39:56.8	258.320	-0.320	0.670	1.220
2020/01/31 00:39:56.9	258.340	-0.300	0.670	1.180
2020/01/31 00:39:57.0	258.370	-0.280	0.670	1.140
2020/01/31 00:39:57.1	258.400	-0.260	0.670	1.100
2020/01/31 00:39:57.2	258.430	-0.250	0.670	1.070
2020/01/31 00:39:57.3	258.460	-0.230	0.670	1.030
2020/01/31 00:39:57.4	258.490	-0.200	0.660	0.990
2020/01/31 00:39:57.5	258.520	-0.180	0.650	0.960
2020/01/31 00:39:57.6	258.560	-0.160	0.630	0.920
2020/01/31 00:39:57.7	258.590	-0.140	0.610	0.890
2020/01/31 00:39:57.8	258.630	-0.110	0.590	0.860
2020/01/31 00:39:57.9	258.670	-0.090	0.570	0.830
2020/01/31 00:39:58.0	258.700	-0.060	0.540	0.810
2020/01/31 00:39:58.1	258.740	-0.040	0.510	0.790
2020/01/31 00:39:58.2	258.770	-0.010	0.480	0.770
2020/01/31 00:39:58.3	258.800	0.010	0.450	0.750
2020/01/31 00:39:58.4	258.830	0.040	0.410	0.740
2020/01/31 00:39:58.5	258.870	0.070	0.380	0.730
2020/01/31 00:39:58.6	258.890	0.090	0.330	0.730
2020/01/31 00:39:58.7	258.920	0.120	0.290	0.720
2020/01/31 00:39:58.8	258.950	0.140	0.250	0.730
2020/01/31 00:39:58.9	258.960	0.170	0.200	0.730
2020/01/31 00:39:59.0	258.980	0.190	0.160	0.740
2020/01/31 00:39:59.1	259.000	0.220	0.110	0.760
2020/01/31 00:39:59.2	259.020	0.240	0.060	0.770
2020/01/31 00:39:59.3	259.040	0.260	0.010	0.790
2020/01/31 00:39:59.4	259.050	0.290	-0.040	0.820
2020/01/31 00:39:59.5	259.070	0.310	-0.090	0.840
2020/01/31 00:39:59.6	259.080	0.330	-0.140	0.870
2020/01/31 00:39:59.7	259.090	0.350	-0.200	0.900
2020/01/31 00:39:59.8	259.090	0.370	-0.250	0.930
2020/01/31 00:39:59.9	259.100	0.390	-0.300	0.970
2020/01/31 00:40:00.0	259.110	0.410	-0.350	1.000
2020/01/31 00:40:00.1	259.110	0.420	-0.410	1.030
2020/01/31 00:40:00.2	259.110	0.440	-0.460	1.070
2020/01/31 00:40:00.3	259.110	0.450	-0.510	1.100
2020/01/31 00:40:00.4	259.110	0.460	-0.560	1.140
2020/01/31 00:40:00.5	259.110	0.470	-0.600	1.170
2020/01/31 00:40:00.6	259.100	0.480	-0.650	1.200
2020/01/31 00:40:00.7	259.100	0.490	-0.700	1.230
2020/01/31 00:40:00.8	259.090	0.490	-0.740	1.260
2020/01/31 00:40:00.9	259.090	0.490	-0.790	1.290
2020/01/31 00:40:01.0	259.080	0.500	-0.830	1.310
2020/01/31 00:40:01.1	259.070	0.500	-0.870	1.340
2020/01/31 00:40:01.2	259.060	0.500	-0.900	1.360
2020/01/31 00:40:01.3	259.050	0.490	-0.940	1.380
2020/01/31 00:40:01.4	259.050	0.490	-0.970	1.400
2020/01/31 00:40:01.5	259.040	0.480	-1.000	1.420
2020/01/31 00:40:01.6	259.030	0.480	-1.030	1.430
2020/01/31 00:40:01.7	259.020	0.470	-1.060	1.450
2020/01/31 00:40:01.8	259.010	0.460	-1.080	1.460
2020/01/31 00:40:01.9	259.000	0.450	-1.100	1.460
2020/01/31 00:40:02.0	258.990	0.440	-1.120	1.470
2020/01/31 00:40:02.1	258.980	0.420	-1.140	1.470
2020/01/31 00:40:02.2	258.970	0.410	-1.160	1.470
2020/01/31 00:40:02.3	258.960	0.400	-1.170	1.470
2020/01/31 00:40:02.4	258.950	0.380	-1.180	1.470
2020/01/31 00:40:02.5	258.940	0.360	-1.190	1.460
2020/01/31 00:40:02.6	258.920	0.350	-1.190	1.460
2020/01/31 00:40:02.7	258.910	0.330	-1.200	1.450
2020/01/31 00:40:02.8	258.900	0.310	-1.200	1.440
2020/01/31 00:40:02.9	258.890	0.290	-1.190	1.430
2020/01/31 00:40:03.0	258.870	0.280	-1.190	1.420
2020/01/31 00:40:03.1	258.860	0.260	-1.180	1.410
2020/01/31 00:40:03.2	258.840	0.240	-1.170	1.400
2020/01/31 00:40:03.3	258.820	0.220	-1.150	1.390
2020/01/31 00:40:03.4	258.810	0.200	-1.140	1.380
2020/01/31 00:40:03.5	258.790	0.180	-1.120	1.370
2020/01/31 00:40:03.6	258.770	0.160	-1.100	1.350
2020/01/31 00:40:03.7	258.750	0.150	-1.070	1.340
2020/01/31 00:40:03.8	258.730	0.130	-1.040	1.330
2020/01/31 00:40:03.9	258.710	0.110	-1.010	1.320
2020/01/31 00:40:04.0	258.690	0.090	-0.980	1.310
2020/01/31 00:40:04.1	258.680	0.080	-0.940	1.290
2020/01/31 00:40:04.2	258.660	0.060	-0.900	1.280
2020/01/31 00:40:04.3	258.640	0.040	-0.850	1.270
2020/01/31 00:40:04.4	258.620	0.030	-0.810	1.250
2020/01/31 00:40:04.5	258.600	0.010	-0.760	1.240
2020/01/31 00:40:04.6	258.590	-0.000	-0.700	1.220
2020/01/31 00:40:04.7	258.570	-0.020	-0.650	1.200
2020/01/31 00:40:04.8	258.560	-0.030	-0.590	1.190
2020/01/31 00:40:04.9	258.550	-0.040	-0.530	1.170
2020/01/31 00:40:05.0	258.540	-0.060	-0.470	1.150
2020/01/31 00:40:05.1	258.530	-0.070	-0.410	1.130
2020/01/31 00:40:05.2	258.520	-0.080	-0.350	1.110
2020/01/31 00:40:05.3	258.510	-0.100	-0.280	1.080
2020/01/31 00:40:05.4	258.510	-0.110	-0.220	1.060
2020/01/31 00:40:05.5	258.510	-0.120	-0.150	1.040
2020/01/31 00:40:05.6	258.500	-0.130	-0.090	1.010
2020/01/31 00:40:05.7	258.510	-0.140	-0.030	0.990
2020/01/31 00:40:05.8	258.510	-0.150	0.040	0.960
2020/01/31 00:40:05.9	258.510	-0.160	0.100	0.940
2020/01/31 00:40:06.0	258.510	-0.160	0.160	0.910
2020/01/31 00:40:06.1	258.520	-0.170	0.220	0.890
2020/01/31 00:40:06.2	258.530	-0.180	0.270	0.860
2020/01/31 00:40:06.3	258.540	-0.180	0.320	0.840
2020/01/31 00:40:06.4	258.560	-0.190	0.380	0.810
2020/01/31 00:40:06.5	258.570	-0.200	0.420	0.790
2020/01/31 00:40:06.6	258.590	-0.200	0.470	0.760
2020/01/31 00:40:06.7	258.610	-0.200	0.510	0.740
2020/01/31 00:40:06.8	258.630	-0.210	0.550	0.710
2020/01/31 00:40:06.9	258.660	-0.210	0.580	0.690
2020/01/31 00:40:07.0	258.680	-0.210	0.610	0.670
2020/01/31 00:40:07.1	258.700	-0.220	0.630	0.640
2020/01/31 00:40:07.2	258.720	-0.220	0.650	0.620
2020/01/31 00:40:07.3	258.750	-0.220	0.670	0.600
2020/01/31 00:40:07.4	258.770	-0.220	0.680	0.580
2020/01/31 00:40:07.5	258.800	-0.220	0.690	0.560
2020/01/31 00:40:07.6	258.830	-0.210	0.690	0.540
2020/01/31 00:40:07.7	258.850	-0.210	0.690	0.520
2020/01/31 00:40:07.8	258.880	-0.210	0.680	0.500
2020/01/31 00:40:07.9	258.920	-0.210	0.670	0.480
2020/01/31 00:40:08.0	258.950	-0.200	0.660	0.460
2020/01/31 00:40:08.1	258.980	-0.200	0.640	0.440
2020/01/31 00:40:08.2	259.010	-0.190	0.610	0.430
2020/01/31 00:40:08.3	259.040	-0.180	0.590	0.410
2020/01/31 00:40:08.4	259.060	-0.180	0.560	0.400
2020/01/31 00:40:08.5	259.090	-0.170	0.520	0.380
2020/01/31 00:40:08.6	259.120	-0.160	0.480	0.370
2020/01/31 00:40:08.7	259.140	-0.150	0.440	0.360
2020/01/31 00:40:08.8	259.170	-0.140	0.400	0.350
2020/01/31 00:40:08.9	259.190	-0.130	0.350	0.350
2020/01/31 00:40:09.0	259.210	-0.120	0.310	0.340
2020/01/31 00:40:09.1	259.230	-0.110	0.260	0.340
2020/01/31 00:40:09.2	259.260	-0.100	0.210	0.340
2020/01/31 00:40:09.3	259.270	-0.090	0.160	0.350
2020/01/31 00:40:09.4	259.290	-0.080	0.110	0.350
2020/01/31 00:40:09.5	259.310	-0.070	0.060	0.360
2020/01/31 00:40:09.6	259.320	-0.060	0.010	0.370
2020/01/31 00:40:09.7	259.340	-0.050	-0.040	0.390
2020/01/31 00:40:09.8	259.350	-0.040	-0.090	0.400
2020/01/31 00:40:09.9	259.340	-0.040	-0.140	0.420
2020/01/31 00:40:10.0	259.350	-0.030	-0.180	0.450
2020/01/31 00:40:10.1	259.360	-0.020	-0.230	0.480
2020/01/31 00:40:10.2	259.360	-0.020	-0.270	0.510
2020/01/31 00:40:10.3	259.360	-0.020	-0.310	0.540
2020/01/31 00:40:10.4	259.360	-0.010	-0.350	0.580
2020/01/31 00:40:10.5	259.360	-0.010	-0.390	0.620
2020/01/31 00:40:10.6	259.350	-0.010	-0.430	0.660
2020/01/31 00:40:10.7	259.340	-0.020	-0.460	0.710
2020/01/31 00:40:10.8	259.330	-0.020	-0.490	0.750
2020/01/31 00:40:10.9	259.330	-0.020	-0.520	0.800
2020/01/31 00:40:11.0	259.310	-0.030	-0.550	0.850
2020/01/31 00:40:11.1	259.300	-0.040	-0.580	0.900
2020/01/31 00:40:11.2	259.280	-0.040	-0.600	0.960
2020/01/31 00:40:11.3	259.260	-0.050	-0.620	1.010
2020/01/31 00:40:11.4	259.240	-0.060	-0.640	1.060
2020/01/31 00:40:11.5	259.220	-0.080	-0.660	1.120
2020/01/31 00:40:11.6	259.200	-0.090	-0.670	1.170
2020/01/31 00:40:11.7	259.180	-0.100	-0.680	1.220
2020/01/31 00:40:11.8	259.160	-0.120	-0.690	1.270
2020/01/31 00:40:11.9	259.130	-0.130	-0.700	1.320
2020/01/31 00:40:12.0	259.110	-0.150	-0.710	1.370
2020/01/31 00:40:12.1	259.080	-0.160	-0.710	1.420
2020/01/31 00:40:12.2	259.060	-0.180	-0.710	1.460
2020/01/31 00:40:12.3	259.030	-0.190	-0.710	1.510
2020/01/31 00:40:12.4	259.000	-0.210	-0.710	1.550
2020/01/31 00:40:12.5	258.980	-0.220	-0.700	1.580
2020/01/31 00:40:12.6	258.950	-0.240	-0.700	1.620
2020/01/31 00:40:12.7	258.930	-0.250	-0.690	1.650
2020/01/31 00:40:12.8	258.900	-0.270	-0.680	1.680
2020/01/31 00:40:12.9	258.870	-0.280	-0.670	1.700
2020/01/31 00:40:13.0	258.840	-0.290	-0.670	1.720
2020/01/31 00:40:13.1	258.820	-0.300	-0.660	1.740
2020/01/31 00:40:13.2	258.800	-0.310	-0.640	1.750
2020/01/31 00:40:13.3	258.780	-0.320	-0.630	1.760
2020/01/31 00:40:13.4	258.760	-0.320	-0.620	1.760
2020/01/31 00:40:13.5	258.740	-0.330	-0.610	1.760
2020/01/31 00:40:13.6	258.720	-0.330	-0.600	1.760
2020/01/31 00:40:13.7	258.710	-0.330	-0.590	1.750
2020/01/31 00:40:13.8	258.690	-0.330	-0.570	1.740
2020/01/31 00:40:13.9	258.680	-0.330	-0.560	1.720
2020/01/31 00:40:14.0	258.670	-0.320	-0.550	1.700
2020/01/31 00:40:14.1	258.660	-0.310	-0.540	1.680
2020/01/31 00:40:14.2	258.660	-0.300	-0.530	1.660
2020/01/31 00:40:14.3	258.650	-0.290	-0.520	1.630
2020/01/31 00:40:14.4	258.650	-0.280	-0.510	1.600
2020/01/31 00:40:14.5	258.650	-0.270	-0.500	1.570
2020/01/31 00:40:14.6	258.650	-0.250	-0.490	1.540
2020/01/31 00:40:14.7	258.650	-0.230	-0.490	1.510
2020/01/31 00:40:14.8	258.650	-0.210	-0.480	1.470
2020/01/31 00:40:14.9	258.650	-0.190	-0.470	1.440
2020/01/31 00:40:15.0	258.660	-0.170	-0.470	1.400
2020/01/31 00:40:15.1	258.660	-0.140	-0.470	1.370
2020/01/31 00:40:15.2	258.670	-0.120	-0.460	1.330
2020/01/31 00:40:15.3	258.670	-0.090	-0.460	1.300
2020/01/31 00:40:15.4	258.680	-0.060	-0.460	1.270
2020/01/31 00:40:15.5	258.680	-0.040	-0.460	1.240
2020/01/31 00:40:15.6	258.690	-0.010	-0.460	1.210
2020/01/31 00:40:15.7	258.700	0.020	-0.460	1.180
2020/01/31 00:40:15.8	258.700	0.050	-0.460	1.150
2020/01/31 00:40:15.9	258.710	0.080	-0.460	1.120
2020/01/31 00:40:16.0	258.720	0.110	-0.460	1.100
2020/01/31 00:40:16.1	258.720	0.130	-0.460	1.070
2020/01/31 00:40:16.2	258.730	0.160	-0.460	1.050
2020/01/31 00:40:16.3	258.730	0.190	-0.460	1.030
2020/01/31 00:40:16.4	258.740	0.210	-0.450	1.020
2020/01/31 00:40:16.5	258.740	0.230	-0.450	1.000
2020/01/31 00:40:16.6	258.740	0.250	-0.440	0.990
2020/01/31 00:40:16.7	258.750	0.280	-0.430	0.980
2020/01/31 00:40:16.8	258.750	0.290	-0.420	0.970
2020/01/31 00:40:16.9	258.750	0.310	-0.410	0.960
2020/01/31 00:40:17.0	258.750	0.330	-0.400	0.960
2020/01/31 00:40:17.1	258.760	0.340	-0.380	0.960
2020/01/31 00:40:17.2	258.760	0.350	-0.370	0.960
2020/01/31 00:40:17.3	258.760	0.360	-0.350	0.960
2020/01/31 00:40:17.4	258.770	0.360	-0.330	0.970
2020/01/31 00:40:17.5	258.770	0.370	-0.300	0.980
2020/01/31 00:40:17.6	258.770	0.370	-0.280	0.990
2020/01/31 00:40:17.7	258.780	0.370	-0.250	1.000
2020/01/31 00:40:17.8	258.780	0.370	-0.220	1.020
2020/01/31 00:40:17.9	258.790	0.370	-0.190	1.030
2020/01/31 00:40:18.0	258.800	0.360	-0.160	1.050
2020/01/31 00:40:18.1	258.810	0.360	-0.120	1.070
2020/01/31 00:40:18.2	258.820	0.350	-0.090	1.090
2020/01/31 00:40:18.3	258.830	0.340	-0.050	1.110
2020/01/31 00:40:18.4	258.840	0.330	-0.020	1.130
2020/01/31 00:40:18.5	258.850	0.320	0.020	1.150
2020/01/31 00:40:18.6	258.860	0.300	0.060	1.180
2020/01/31 00:40:18.7	258.880	0.290	0.090	1.200
2020/01/31 00:40:18.8	258.890	0.270	0.130	1.220
2020/01/31 00:40:18.9	258.910	0.260	0.170	1.240
2020/01/31 00:40:19.0	258.930	0.240	0.200	1.260
2020/01/31 00:40:19.1	258.950	0.230	0.240	1.270
2020/01/31 00:40:19.2	258.970	0.210	0.270	1.290
2020/01/31 00:40:19.3	259.000	0.200	0.300	1.310
2020/01/31 00:40:19.4	259.020	0.180	0.340	1.330
2020/01/31 00:40:19.5	259.050	0.160	0.360	1.340
2020/01/31 00:40:19.6	259.070	0.150	0.390	1.360
2020/01/31 00:40:19.7	259.100	0.140	0.410	1.370
2020/01/31 00:40:19.8	259.130	0.120	0.430	1.380
2020/01/31 00:40:19.9	259.160	0.110	0.450	1.390
2020/01/31 00:40:20.0	259.190	0.100	0.460	1.400
2020/01/31 00:40:20.1	259.220	0.090	0.470	1.410
2020/01/31 00:40:20.2	259.250	0.080	0.480	1.410
2020/01/31 00:40:20.3	259.280	0.080	0.480	1.420
2020/01/31 00:40:20.4	259.310	0.070	0.480	1.420
2020/01/31 00:40:20.5	259.350	0.070	0.480	1.420
2020/01/31 00:40:20.6	259.380	0.070	0.470	1.420
2020/01/31 00:40:20.7	259.420	0.070	0.460	1.410
2020/01/31 00:40:20.8	259.450	0.070	0.450	1.410
2020/01/31 00:40:20.9	259.490	0.070	0.430	1.400
2020/01/31 00:40:21.0	259.530	0.070	0.400	1.390
2020/01/31 00:40:21.1	259.570	0.080	0.380	1.380
2020/01/31 00:40:21.2	259.620	0.090	0.360	1.360
2020/01/31 00:40:21.3	259.660	0.090	0.330	1.340
2020/01/31 00:40:21.4	259.700	0.100	0.300	1.320
2020/01/31 00:40:21.5	259.750	0.110	0.270	1.290
2020/01/31 00:40:21.6	259.800	0.120	0.230	1.270
2020/01/31 00:40:21.7	259.840	0.130	0.200	1.240
2020/01/31 00:40:21.8	259.890	0.140	0.160	1.210
2020/01/31 00:40:21.9	259.950	0.150	0.120	1.180
2020/01/31 00:40:22.0	260.000	0.170	0.090	1.150
2020/01/31 00:40:22.1	260.060	0.180	0.050	1.120
2020/01/31 00:40:22.2	260.110	0.190	0.010	1.090
2020/01/31 00:40:22.3	260.160	0.200	-0.030	1.060
2020/01/31 00:40:22.4	260.220	0.210	-0.070	1.040
2020/01/31 00:40:22.5	260.270	0.210	-0.110	1.010
2020/01/31 00:40:22.6	260.320	0.220	-0.150	0.980
2020/01/31 00:40:22.7	260.380	0.230	-0.190	0.950
2020/01/31 00:40:22.8	260.440	0.230	-0.220	0.930
2020/01/31 00:40:22.9	260.500	0.240	-0.260	0.900
2020/01/31 00:40:23.0	260.560	0.240	-0.300	0.880
2020/01/31 00:40:23.1	260.620	0.240	-0.330	0.850
2020/01/31 00:40:23.2	260.670	0.240	-0.360	0.830
2020/01/31 00:40:23.3	260.730	0.240	-0.400	0.800
2020/01/31 00:40:23.4	260.790	0.240	-0.430	0.780
2020/01/31 00:40:23.5	260.840	0.240	-0.460	0.760
2020/01/31 00:40:23.6	260.900	0.230	-0.490	0.740
2020/01/31 00:40:23.7	260.960	0.230	-0.510	0.710
2020/01/31 00:40:23.8	261.020	0.220	-0.540	0.700
2020/01/31 00:40:23.9	261.070	0.210	-0.570	0.680
2020/01/31 00:40:24.0	261.130	0.200	-0.590	0.660
2020/01/31 00:40:24.1	261.180	0.190	-0.620	0.650
2020/01/31 00:40:24.2	261.240	0.180	-0.640	0.630
2020/01/31 00:40:24.3	261.290	0.170	-0.660	0.620
2020/01/31 00:40:24.4	261.350	0.160	-0.680	0.620
2020/01/31 00:40:24.5	261.400	0.140	-0.700	0.610
2020/01/31 00:40:24.6	261.450	0.130	-0.720	0.610
2020/01/31 00:40:24.7	261.500	0.110	-0.740	0.600
2020/01/31 00:40:24.8	261.550	0.100	-0.760	0.600
2020/01/31 00:40:24.9	261.600	0.080	-0.780	0.600
2020/01/31 00:40:25.0	261.650	0.070	-0.800	0.610
2020/01/31 00:40:25.1	261.700	0.050	-0.810	0.610
2020/01/31 00:40:25.2	261.740	0.040	-0.830	0.620
2020/01/31 00:40:25.3	261.790	0.020	-0.850	0.630
2020/01/31 00:40:25.4	261.830	0.010	-0.860	0.640
2020/01/31 00:40:25.5	261.870	-0.010	-0.880	0.660
2020/01/31 00:40:25.6	261.920	-0.020	-0.890	0.670
2020/01/31 00:40:25.7	261.960	-0.030	-0.900	0.690
2020/01/31 00:40:25.8	262.000	-0.050	-0.920	0.710
2020/01/31 00:40:25.9	262.030	-0.060	-0.930	0.730
2020/01/31 00:40:26.0	262.070	-0.070	-0.940	0.750
2020/01/31 00:40:26.1	262.110	-0.080	-0.950	0.770
2020/01/31 00:40:26.2	262.140	-0.100	-0.950	0.800
2020/01/31 00:40:26.3	262.180	-0.110	-0.960	0.820
2020/01/31 00:40:26.4	262.220	-0.120	-0.960	0.840
2020/01/31 00:40:26.5	262.260	-0.130	-0.970	0.870
2020/01/31 00:40:26.6	262.300	-0.140	-0.970	0.890
2020/01/31 00:40:26.7	262.340	-0.150	-0.960	0.910
2020/01/31 00:40:26.8	262.380	-0.160	-0.960	0.930
2020/01/31 00:40:26.9	262.420	-0.170	-0.950	0.950
2020/01/31 00:40:27.0	262.460	-0.180	-0.940	0.970
2020/01/31 00:40:27.1	262.500	-0.180	-0.930	0.980
2020/01/31 00:40:27.2	262.550	-0.190	-0.910	1.000
2020/01/31 00:40:27.3	262.590	-0.200	-0.890	1.010
2020/01/31 00:40:27.4	262.640	-0.210	-0.860	1.020
2020/01/31 00:40:27.5	262.680	-0.220	-0.840	1.030
2020/01/31 00:40:27.6	262.730	-0.230	-0.810	1.030
2020/01/31 00:40:27.7	262.780	-0.240	-0.770	1.030
2020/01/31 00:40:27.8	262.830	-0.240	-0.740	1.030
2020/01/31 00:40:27.9	262.860	-0.250	-0.700	1.030
2020/01/31 00:40:28.0	262.920	-0.260	-0.660	1.020
2020/01/31 00:40:28.1	262.970	-0.270	-0.620	1.010
2020/01/31 00:40:28.2	263.030	-0.280	-0.570	1.000
2020/01/31 00:40:28.3	263.080	-0.290	-0.530	0.980
2020/01/31 00:40:28.4	263.140	-0.300	-0.480	0.960
2020/01/31 00:40:28.5	263.200	-0.310	-0.430	0.940
2020/01/31 00:40:28.6	263.270	-0.310	-0.380	0.910
2020/01/31 00:40:28.7	263.330	-0.320	-0.330	0.880
2020/01/31 00:40:28.8	263.390	-0.330	-0.280	0.840
2020/01/31 00:40:28.9	263.450	-0.340	-0.240	0.810
2020/01/31 00:40:29.0	263.510	-0.350	-0.190	0.770
2020/01/31 00:40:29.1	263.580	-0.360	-0.140	0.730
2020/01/31 00:40:29.2	263.650	-0.370	-0.090	0.690
2020/01/31 00:40:29.3	263.720	-0.380	-0.040	0.650
2020/01/31 00:40:29.4	263.790	-0.380	0.010	0.600
2020/01/31 00:40:29.5	263.860	-0.390	0.060	0.550
2020/01/31 00:40:29.6	263.940	-0.400	0.100	0.500
2020/01/31 00:40:29.7	264.010	-0.410	0.140	0.450
2020/01/31 00:40:29.8	264.090	-0.410	0.180	0.400
2020/01/31 00:40:29.9	264.150	-0.420	0.230	0.340
2020/01/31 00:40:30.0	264.220	-0.430	0.260	0.290
2020/01/31 00:40:30.1	264.300	-0.430	0.300	0.230
2020/01/31 00:40:30.2	264.370	-0.440	0.330	0.170
2020/01/31 00:40:30.3	264.450	-0.440	0.360	0.120
2020/01/31 00:40:30.4	264.520	-0.440	0.380	0.060
2020/01/31 00:40:30.5	264.600	-0.450	0.410	-0.000
2020/01/31 00:40:30.6	264.670	-0.450	0.430	-0.060
2020/01/31 00:40:30.7	264.750	-0.450	0.440	-0.120
2020/01/31 00:40:30.8	264.820	-0.450	0.450	-0.180
2020/01/31 00:40:30.9	264.900	-0.450	0.460	-0.240
2020/01/31 00:40:31.0	264.970	-0.450	0.470	-0.300
2020/01/31 00:40:31.1	265.050	-0.450	0.470	-0.360
2020/01/31 00:40:31.2	265.120	-0.450	0.470	-0.420
2020/01/31 00:40:31.3	265.190	-0.450	0.470	-0.480
2020/01/31 00:40:31.4	265.260	-0.440	0.460	-0.540
2020/01/31 00:40:31.5	265.330	-0.440	0.450	-0.600
2020/01/31 00:40:31.6	265.390	-0.430	0.440	-0.660
2020/01/31 00:40:31.7	265.460	-0.430	0.430	-0.710
2020/01/31 00:40:31.8	265.520	-0.420	0.410	-0.760
2020/01/31 00:40:31.9	265.600	-0.410	0.390	-0.810
2020/01/31 00:40:32.0	265.660	-0.400	0.370	-0.860
2020/01/31 00:40:32.1	265.710	-0.380	0.350	-0.900
2020/01/31 00:40:32.2	265.770	-0.370	0.330	-0.940
2020/01/31 00:40:32.3	265.830	-0.360	0.310	-0.980
2020/01/31 00:40:32.4	265.880	-0.340	0.280	-1.020
2020/01/31 00:40:32.5	265.930	-0.330	0.260	-1.050
2020/01/31 00:40:32.6	265.980	-0.310	0.230	-1.070
2020/01/31 00:40:32.7	266.020	-0.290	0.210	-1.090
2020/01/31 00:40:32.8	266.060	-0.270	0.180	-1.110
2020/01/31 00:40:32.9	266.090	-0.250	0.160	-1.120
2020/01/31 00:40:33.0	266.130	-0.230	0.140	-1.130
2020/01/31 00:40:33.1	266.170	-0.210	0.110	-1.140
2020/01/31 00:40:33.2	266.200	-0.190	0.090	-1.130
2020/01/31 00:40:33.3	266.230	-0.160	0.070	-1.130
2020/01/31 00:40:33.4	266.260	-0.140	0.040	-1.120
2020/01/31 00:40:33.5	266.290	-0.110	0.020	-1.110
2020/01/31 00:40:33.6	266.310	-0.090	0.000	-1.090
2020/01/31 00:40:33.7	266.330	-0.060	-0.020	-1.070
2020/01/31 00:40:33.8	266.350	-0.040	-0.040	-1.040
2020/01/31 00:40:33.9	266.380	-0.010	-0.060	-1.020
2020/01/31 00:40:34.0	266.400	0.020	-0.080	-0.990
2020/01/31 00:40:34.1	266.410	0.040	-0.100	-0.960
2020/01/31 00:40:34.2	266.430	0.070	-0.110	-0.920
2020/01/31 00:40:34.3	266.440	0.100	-0.130	-0.890
2020/01/31 00:40:34.4	266.460	0.130	-0.150	-0.850
2020/01/31 00:40:34.5	266.470	0.150	-0.160	-0.810
2020/01/31 00:40:34.6	266.480	0.180	-0.180	-0.770
2020/01/31 00:40:34.7	266.500	0.210	-0.190	-0.720
2020/01/31 00:40:34.8	266.510	0.230	-0.210	-0.680
2020/01/31 00:40:34.9	266.520	0.260	-0.230	-0.630
2020/01/31 00:40:35.0	266.530	0.280	-0.240	-0.580
2020/01/31 00:40:35.1	266.540	0.310	-0.260	-0.530
2020/01/31 00:40:35.2	266.540	0.330	-0.270	-0.470
2020/01/31 00:40:35.3	266.550	0.350	-0.280	-0.420
2020/01/31 00:40:35.4	266.560	0.370	-0.300	-0.360
2020/01/31 00:40:35.5	266.560	0.400	-0.310	-0.310
2020/01/31 00:40:35.6	266.570	0.420	-0.330	-0.250
2020/01/31 00:40:35.7	266.570	0.430	-0.340	-0.190
2020/01/31 00:40:35.8	266.570	0.450	-0.360	-0.130
2020/01/31 00:40:35.9	266.580	0.470	-0.380	-0.060
2020/01/31 00:40:36.0	266.570	0.490	-0.390	0.000
2020/01/31 00:40:36.1	266.570	0.500	-0.410	0.070
2020/01/31 00:40:36.2	266.570	0.510	-0.420	0.130
2020/01/31 00:40:36.3	266.560	0.530	-0.440	0.200
2020/01/31 00:40:36.4	266.560	0.540	-0.450	0.260
2020/01/31 00:40:36.5	266.550	0.550	-0.470	0.330
2020/01/31 00:40:36.6	266.540	0.560	-0.480	0.390
2020/01/31 00:40:36.7	266.530	0.560	-0.490	0.450
2020/01/31 00:40:36.8	266.520	0.570	-0.510	0.510
2020/01/31 00:40:36.9	266.490	0.570	-0.520	0.570
2020/01/31 00:40:37.0	266.480	0.580	-0.530	0.630
2020/01/31 00:40:37.1	266.460	0.580	-0.550	0.690
2020/01/31 00:40:37.2	266.440	0.580	-0.560	0.740
2020/01/31 00:40:37.3	266.420	0.580	-0.570	0.790
2020/01/31 00:40:37.4	266.400	0.580	-0.580	0.840
2020/01/31 00:40:37.5	266.380	0.580	-0.590	0.890
2020/01/31 00:40:37.6	266.360	0.570	-0.600	0.930
2020/01/31 00:40:37.7	266.340	0.560	-0.600	0.970
2020/01/31 00:40:37.8	266.310	0.560	-0.610	1.000
2020/01/31 00:40:37.9	266.280	0.550	-0.620	1.040
2020/01/31 00:40:38.0	266.250	0.540	-0.620	1.070
2020/01/31 00:40:38.1	266.230	0.530	-0.630	1.090
2020/01/31 00:40:38.2	266.200	0.510	-0.630	1.110
2020/01/31 00:40:38.3	266.180	0.500	-0.630	1.130
2020/01/31 00:40:38.4	266.150	0.480	-0.630	1.140
2020/01/31 00:40:38.5	266.130	0.460	-0.630	1.150
2020/01/31 00:40:38.6	266.100	0.450	-0.630	1.160
2020/01/31 00:40:38.7	266.080	0.430	-0.620	1.160
2020/01/31 00:40:38.8	266.060	0.400	-0.620	1.160
2020/01/31 00:40:38.9	266.050	0.380	-0.610	1.160
2020/01/31 00:40:39.0	266.040	0.360	-0.600	1.150
2020/01/31 00:40:39.1	266.020	0.330	-0.590	1.140
2020/01/31 00:40:39.2	266.000	0.310	-0.580	1.130
2020/01/31 00:40:39.3	265.990	0.280	-0.570	1.110
2020/01/31 00:40:39.4	265.970	0.250	-0.550	1.090
2020/01/31 00:40:39.5	265.960	0.220	-0.540	1.070
2020/01/31 00:40:39.6	265.950	0.190	-0.520	1.040
2020/01/31 00:40:39.7	265.940	0.160	-0.510	1.010
2020/01/31 00:40:39.8	265.940	0.130	-0.490	0.970
2020/01/31 00:40:39.9	265.930	0.100	-0.470	0.930
2020/01/31 00:40:40.0	265.930	0.070	-0.450	0.890
2020/01/31 00:40:40.1	265.930	0.040	-0.430	0.850
2020/01/31 00:40:40.2	265.930	0.010	-0.410	0.800
2020/01/31 00:40:40.3	265.930	-0.030	-0.390	0.750
2020/01/31 00:40:40.4	265.940	-0.060	-0.370	0.700
2020/01/31 00:40:40.5	265.950	-0.090	-0.350	0.640
2020/01/31 00:40:40.6	265.960	-0.120	-0.330	0.580
2020/01/31 00:40:40.7	265.970	-0.150	-0.310	0.520
2020/01/31 00:40:40.8	265.990	-0.170	-0.290	0.460
2020/01/31 00:40:40.9	266.020	-0.200	-0.260	0.400
2020/01/31 00:40:41.0	266.040	-0.230	-0.240	0.330
2020/01/31 00:40:41.1	266.060	-0.250	-0.220	0.270
2020/01/31 00:40:41.2	266.090	-0.270	-0.200	0.200
2020/01/31 00:40:41.3	266.110	-0.300	-0.180	0.130
2020/01/31 00:40:41.4	266.140	-0.320	-0.160	0.060
2020/01/31 00:40:41.5	266.170	-0.330	-0.140	-0.010
2020/01/31 00:40:41.6	266.200	-0.350	-0.120	-0.080
2020/01/31 00:40:41.7	266.230	-0.360	-0.110	-0.140
2020/01/31 00:40:41.8	266.270	-0.380	-0.090	-0.210
2020/01/31 00:40:41.9	266.290	-0.390	-0.080	-0.280
2020/01/31 00:40:42.0	266.330	-0.400	-0.060	-0.340
2020/01/31 00:40:42.1	266.360	-0.400	-0.050	-0.400
2020/01/31 00:40:42.2	266.400	-0.410	-0.040	-0.460
2020/01/31 00:40:42.3	266.440	-0.410	-0.030	-0.520
2020/01/31 00:40:42.4	266.480	-0.410	-0.020	-0.570
2020/01/31 00:40:42.5	266.520	-0.410	-0.020	-0.630
2020/01/31 00:40:42.6	266.560	-0.410	-0.010	-0.680
2020/01/31 00:40:42.7	266.600	-0.410	-0.010	-0.720
2020/01/31 00:40:42.8	266.650	-0.400	-0.010	-0.770
2020/01/31 00:40:42.9	266.690	-0.400	-0.010	-0.810
2020/01/31 00:40:43.0	266.730	-0.390	-0.010	-0.850
2020/01/31 00:40:43.1	266.780	-0.380	-0.020	-0.880
2020/01/31 00:40:43.2	266.820	-0.370	-0.020	-0.910
2020/01/31 00:40:43.3	266.870	-0.360	-0.030	-0.940
2020/01/31 00:40:43.4	266.910	-0.340	-0.040	-0.960
2020/01/31 00:40:43.5	266.960	-0.330	-0.050	-0.970
2020/01/31 00:40:43.6	267.000	-0.310	-0.060	-0.990
2020/01/31 00:40:43.7	267.040	-0.300	-0.070	-0.990
2020/01/31 00:40:43.8	267.090	-0.280	-0.080	-0.990
2020/01/31 00:40:43.9	267.120	-0.260	-0.100	-0.990
2020/01/31 00:40:44.0	267.160	-0.250	-0.120	-0.980
2020/01/31 00:40:44.1	267.200	-0.230	-0.130	-0.970
2020/01/31 00:40:44.2	267.240	-0.210	-0.150	-0.950
2020/01/31 00:40:44.3	267.280	-0.190	-0.160	-0.930
2020/01/31 00:40:44.4	267.310	-0.180	-0.180	-0.900
2020/01/31 00:40:44.5	267.340	-0.160	-0.200	-0.870
2020/01/31 00:40:44.6	267.370	-0.140	-0.210	-0.830
2020/01/31 00:40:44.7	267.400	-0.130	-0.230	-0.790
2020/01/31 00:40:44.8	267.420	-0.110	-0.250	-0.740
2020/01/31 00:40:44.9	267.440	-0.100	-0.270	-0.690
2020/01/31 00:40:45.0	267.460	-0.080	-0.280	-0.640
2020/01/31 00:40:45.1	267.480	-0.070	-0.300	-0.570
2020/01/31 00:40:45.2	267.490	-0.060	-0.310	-0.510
2020/01/31 00:40:45.3	267.500	-0.050	-0.330	-0.440
2020/01/31 00:40:45.4	267.510	-0.040	-0.340	-0.360
2020/01/31 00:40:45.5	267.510	-0.030	-0.360	-0.280
2020/01/31 00:40:45.6	267.510	-0.020	-0.370	-0.200
2020/01/31 00:40:45.7	267.510	-0.010	-0.380	-0.110
2020/01/31 00:40:45.8	267.510	-0.010	-0.390	-0.020
2020/01/31 00:40:45.9	267.500	-0.000	-0.400	0.070
2020/01/31 00:40:46.0	267.490	-0.000	-0.400	0.170
2020/01/31 00:40:46.1	267.480	0.000	-0.400	0.260
2020/01/31 00:40:46.2	267.460	0.000	-0.400	0.360
2020/01/31 00:40:46.3	267.440	0.000	-0.400	0.460
2020/01/31 00:40:46.4	267.420	-0.000	-0.400	0.560
2020/01/31 00:40:46.5	267.400	-0.000	-0.390	0.660
2020/01/31 00:40:46.6	267.380	-0.010	-0.390	0.750
2020/01/31 00:40:46.7	267.350	-0.010	-0.380	0.850
2020/01/31 00:40:46.8	267.320	-0.020	-0.360	0.950
2020/01/31 00:40:46.9	267.280	-0.020	-0.350	1.040
2020/01/31 00:40:47.0	267.240	-0.030	-0.330	1.130
2020/01/31 00:40:47.1	267.210	-0.040	-0.310	1.230
2020/01/31 00:40:47.2	267.170	-0.040	-0.290	1.310
2020/01/31 00:40:47.3	267.130	-0.050	-0.270	1.400
2020/01/31 00:40:47.4	267.090	-0.060	-0.250	1.490
2020/01/31 00:40:47.5	267.050	-0.070	-0.230	1.570
2020/01/31 00:40:47.6	267.010	-0.070	-0.200	1.640
2020/01/31 00:40:47.7	266.960	-0.080	-0.180	1.720
2020/01/31 00:40:47.8	266.920	-0.090	-0.150	1.790
2020/01/31 00:40:47.9	266.870	-0.090	-0.130	1.850
2020/01/31 00:40:48.0	266.820	-0.100	-0.110	1.910
2020/01/31 00:40:48.1	266.770	-0.110	-0.080	1.960
2020/01/31 00:40:48.2	266.720	-0.110	-0.060	2.020
2020/01/31 00:40:48.3	266.680	-0.120	-0.040	2.060
2020/01/31 00:40:48.4	266.630	-0.120	-0.020	2.100
2020/01/31 00:40:48.5	266.580	-0.120	0.000	2.140
2020/01/31 00:40:48.6	266.530	-0.130	0.020	2.180
2020/01/31 00:40:48.7	266.480	-0.130	0.040	2.210
2020/01/31 00:40:48.8	266.430	-0.130	0.050	2.230
2020/01/31 00:40:48.9	266.380	-0.130	0.070	2.250
2020/01/31 00:40:49.0	266.340	-0.130	0.080	2.270
2020/01/31 00:40:49.1	266.290	-0.120	0.090	2.290
2020/01/31 00:40:49.2	266.240	-0.120	0.100	2.300
2020/01/31 00:40:49.3	266.190	-0.120	0.100	2.300
2020/01/31 00:40:49.4	266.140	-0.110	0.110	2.310
2020/01/31 00:40:49.5	266.100	-0.100	0.110	2.310
2020/01/31 00:40:49.6	266.050	-0.100	0.110	2.310
2020/01/31 00:40:49.7	266.010	-0.090	0.110	2.300
2020/01/31 00:40:49.8	265.970	-0.080	0.110	2.290
2020/01/31 00:40:49.9	265.920	-0.070	0.110	2.280
2020/01/31 00:40:50.0	265.880	-0.060	0.100	2.260
2020/01/31 00:40:50.1	265.840	-0.050	0.100	2.240
2020/01/31 00:40:50.2	265.810	-0.030	0.090	2.220
2020/01/31 00:40:50.3	265.770	-0.020	0.090	2.190
2020/01/31 00:40:50.4	265.740	-0.000	0.080	2.160
2020/01/31 00:40:50.5	265.710	0.010	0.070	2.130
2020/01/31 00:40:50.6	265.680	0.030	0.050	2.090
2020/01/31 00:40:50.7	265.660	0.040	0.040	2.060
2020/01/31 00:40:50.8	265.640	0.060	0.030	2.010
2020/01/31 00:40:50.9	265.620	0.080	0.010	1.970
2020/01/31 00:40:51.0	265.610	0.100	-0.010	1.920
2020/01/31 00:40:51.1	265.590	0.120	-0.030	1.870
2020/01/31 00:40:51.2	265.590	0.130	-0.050	1.810
2020/01/31 00:40:51.3	265.580	0.150	-0.070	1.750
2020/01/31 00:40:51.4	265.580	0.170	-0.090	1.690
2020/01/31 00:40:51.5	265.590	0.190	-0.110	1.620
2020/01/31 00:40:51.6	265.600	0.210	-0.140	1.560
2020/01/31 00:40:51.7	265.610	0.240	-0.170	1.480
2020/01/31 00:40:51.8	265.620	0.260	-0.200	1.410
2020/01/31 00:40:51.9	265.640	0.280	-0.230	1.330
2020/01/31 00:40:52.0	265.660	0.300	-0.260	1.250
2020/01/31 00:40:52.1	265.690	0.320	-0.290	1.170
2020/01/31 00:40:52.2	265.720	0.340	-0.330	1.090
2020/01/31 00:40:52.3	265.750	0.360	-0.360	1.000
2020/01/31 00:40:52.4	265.790	0.380	-0.400	0.910
2020/01/31 00:40:52.5	265.830	0.400	-0.430	0.830
2020/01/31 00:40:52.6	265.880	0.420	-0.470	0.740
2020/01/31 00:40:52.7	265.920	0.440	-0.500	0.650
2020/01/31 00:40:52.8	265.970	0.460	-0.530	0.560
2020/01/31 00:40:52.9	266.030	0.470	-0.570	0.470
2020/01/31 00:40:53.0	266.090	0.490	-0.600	0.390
2020/01/31 00:40:53.1	266.140	0.500	-0.630	0.300
2020/01/31 00:40:53.2	266.200	0.520	-0.660	0.210
2020/01/31 00:40:53.3	266.260	0.530	-0.680	0.130
2020/01/31 00:40:53.4	266.320	0.540	-0.710	0.050
2020/01/31 00:40:53.5	266.380	0.550	-0.730	-0.030
2020/01/31 00:40:53.6	266.440	0.550	-0.740	-0.110
2020/01/31 00:40:53.7	266.510	0.560	-0.760	-0.190
2020/01/31 00:40:53.8	266.570	0.560	-0.770	-0.260
2020/01/31 00:40:53.9	266.650	0.570	-0.780	-0.330
2020/01/31 00:40:54.0	266.710	0.560	-0.780	-0.390
2020/01/31 00:40:54.1	266.780	0.560	-0.780	-0.450
2020/01/31 00:40:54.2	266.840	0.560	-0.770	-0.510
2020/01/31 00:40:54.3	266.910	0.550	-0.760	-0.560
2020/01/31 00:40:54.4	266.970	0.540	-0.750	-0.610
2020/01/31 00:40:54.5	267.030	0.530	-0.730	-0.650
2020/01/31 00:40:54.6	267.090	0.510	-0.720	-0.680
2020/01/31 00:40:54.7	267.160	0.500	-0.690	-0.710
2020/01/31 00:40:54.8	267.210	0.480	-0.670	-0.740
2020/01/31 00:40:54.9	267.280	0.450	-0.640	-0.760
2020/01/31 00:40:55.0	267.340	0.430	-0.620	-0.770
2020/01/31 00:40:55.1	267.390	0.400	-0.590	-0.780
2020/01/31 00:40:55.2	267.440	0.380	-0.550	-0.780
2020/01/31 00:40:55.3	267.490	0.350	-0.520	-0.780
2020/01/31 00:40:55.4	267.540	0.310	-0.490	-0.780
2020/01/31 00:40:55.5	267.580	0.280	-0.460	-0.760
2020/01/31 00:40:55.6	267.630	0.250	-0.430	-0.750
2020/01/31 00:40:55.7	267.670	0.210	-0.390	-0.730
2020/01/31 00:40:55.8	267.700	0.170	-0.360	-0.700
2020/01/31 00:40:55.9	267.740	0.130	-0.330	-0.680
2020/01/31 00:40:56.0	267.770	0.090	-0.300	-0.650
2020/01/31 00:40:56.1	267.800	0.050	-0.280	-0.610
2020/01/31 00:40:56.2	267.830	0.010	-0.250	-0.570
2020/01/31 00:40:56.3	267.850	-0.030	-0.220	-0.530
2020/01/31 00:40:56.4	267.870	-0.070	-0.200	-0.480
2020/01/31 00:40:56.5	267.890	-0.110	-0.180	-0.430
2020/01/31 00:40:56.6	267.900	-0.150	-0.160	-0.380
2020/01/31 00:40:56.7	267.910	-0.190	-0.140	-0.330
2020/01/31 00:40:56.8	267.920	-0.230	-0.130	-0.280
2020/01/31 00:40:56.9	267.920	-0.260	-0.120	-0.220
2020/01/31 00:40:57.0	267.930	-0.300	-0.110	-0.160
2020/01/31 00:40:57.1	267.930	-0.330	-0.100	-0.100
2020/01/31 00:40:57.2	267.930	-0.370	-0.100	-0.040
2020/01/31 00:40:57.3	267.920	-0.400	-0.090	0.020
2020/01/31 00:40:57.4	267.920	-0.420	-0.090	0.080
2020/01/31 00:40:57.5	267.910	-0.450	-0.090	0.140
2020/01/31 00:40:57.6	267.900	-0.470	-0.090	0.210
2020/01/31 00:40:57.7	267.880	-0.490	-0.090	0.270
2020/01/31 00:40:57.8	267.870	-0.510	-0.100	0.340
2020/01/31 00:40:57.9	267.830	-0.530	-0.100	0.400
2020/01/31 00:40:58.0	267.810	-0.540	-0.110	0.470
2020/01/31 00:40:58.1	267.790	-0.550	-0.110	0.530
2020/01/31 00:40:58.2	267.770	-0.550	-0.120	0.600
2020/01/31 00:40:58.3	267.740	-0.550	-0.130	0.670
2020/01/31 00:40:58.4	267.710	-0.550	-0.130	0.730
2020/01/31 00:40:58.5	267.680	-0.550	-0.140	0.800
2020/01/31 00:40:58.6	267.650	-0.540	-0.150	0.870
2020/01/31 00:40:58.7	267.620	-0.530	-0.150	0.930
2020/01/31 00:40:58.8	267.590	-0.520	-0.160	0.990
2020/01/31 00:40:58.9	267.560	-0.500	-0.170	1.060
2020/01/31 00:40:59.0	267.520	-0.490	-0.170	1.120
2020/01/31 00:40:59.1	267.490	-0.460	-0.170	1.180
2020/01/31 00:40:59.2	267.450	-0.440	-0.170	1.240
2020/01/31 00:40:59.3	267.420	-0.420	-0.170	1.300
2020/01/31 00:40:59.4	267.380	-0.390	-0.170	1.360
2020/01/31 00:40:59.5	267.340	-0.360	-0.160	1.410
2020/01/31 00:40:59.6	267.310	-0.330	-0.150	1.470
2020/01/31 00:40:59.7	267.270	-0.290	-0.140	1.520
2020/01/31 00:40:59.8	267.230	-0.260	-0.130	1.570
2020/01/31 00:40:59.9	267.210	-0.230	-0.120	1.620
2020/01/31 00:41:00.0	267.170	-0.190	-0.110	1.670
2020/01/31 00:41:00.1	267.140	-0.160	-0.090	1.710
2020/01/31 00:41:00.2	267.100	-0.120	-0.080	1.760
2020/01/31 00:41:00.3	267.060	-0.090	-0.060	1.800
2020/01/31 00:41:00.4	267.030	-0.050	-0.040	1.830
2020/01/31 00:41:00.5	267.000	-0.020	-0.020	1.870
2020/01/31 00:41:00.6	266.970	0.020	-0.000	1.900
2020/01/31 00:41:00.7	266.940	0.050	0.020	1.930
2020/01/31 00:41:00.8	266.910	0.080	0.040	1.950
2020/01/31 00:41:00.9	266.880	0.110	0.060	1.970
2020/01/31 00:41:01.0	266.850	0.140	0.080	1.990
2020/01/31 00:41:01.1	266.830	0.170	0.100	2.010
2020/01/31 00:41:01.2	266.800	0.190	0.120	2.020
2020/01/31 00:41:01.3	266.780	0.220	0.140	2.040
2020/01/31 00:41:01.4	266.760	0.240	0.160	2.050
2020/01/31 00:41:01.5	266.740	0.260	0.180	2.050
2020/01/31 00:41:01.6	266.720	0.280	0.190	2.060
2020/01/31 00:41:01.7	266.700	0.290	0.210	2.060
2020/01/31 00:41:01.8	266.690	0.310	0.220	2.050
2020/01/31 00:41:01.9	266.680	0.320	0.220	2.050
2020/01/31 00:41:02.0	266.670	0.330	0.230	2.040
2020/01/31 00:41:02.1	266.660	0.340	0.240	2.020
2020/01/31 00:41:02.2	266.650	0.340	0.240	2.010
2020/01/31 00:41:02.3	266.650	0.350	0.240	1.990
2020/01/31 00:41:02.4	266.650	0.350	0.240	1.960
2020/01/31 00:41:02.5	266.650	0.360	0.230	1.940
2020/01/31 00:41:02.6	266.650	0.360	0.220	1.910
2020/01/31 00:41:02.7	266.650	0.360	0.210	1.870
2020/01/31 00:41:02.8	266.660	0.360	0.200	1.830
2020/01/31 00:41:02.9	266.670	0.350	0.180	1.790
2020/01/31 00:41:03.0	266.680	0.350	0.160	1.750
2020/01/31 00:41:03.1	266.690	0.350	0.140	1.700
2020/01/31 00:41:03.2	266.710	0.340	0.120	1.650
2020/01/31 00:41:03.3	266.720	0.340	0.090	1.590
2020/01/31 00:41:03.4	266.740	0.330	0.060	1.530
2020/01/31 00:41:03.5	266.760	0.320	0.030	1.480
2020/01/31 00:41:03.6	266.780	0.320	0.000	1.410
2020/01/31 00:41:03.7	266.800	0.310	-0.030	1.350
2020/01/31 00:41:03.8	266.830	0.300	-0.060	1.280
2020/01/31 00:41:03.9	266.860	0.300	-0.100	1.210
2020/01/31 00:41:04.0	266.880	0.290	-0.140	1.140
2020/01/31 00:41:04.1	266.910	0.280	-0.170	1.060
2020/01/31 00:41:04.2	266.950	0.280	-0.210	0.990
2020/01/31 00:41:04.3	266.980	0.270	-0.250	0.910
2020/01/31 00:41:04.4	267.010	0.260	-0.290	0.830
2020/01/31 00:41:04.5	267.050	0.250	-0.330	0.750
2020/01/31 00:41:04.6	267.090	0.250	-0.370	0.670
2020/01/31 00:41:04.7	267.130	0.240	-0.410	0.590
2020/01/31 00:41:04.8	267.160	0.230	-0.450	0.510
2020/01/31 00:41:04.9	267.210	0.220	-0.490	0.430
2020/01/31 00:41:05.0	267.250	0.220	-0.520	0.350
2020/01/31 00:41:05.1	267.290	0.210	-0.560	0.270
2020/01/31 00:41:05.2	267.340	0.200	-0.590	0.190
2020/01/31 00:41:05.3	267.380	0.190	-0.620	0.120
2020/01/31 00:41:05.4	267.420	0.180	-0.650	0.040
2020/01/31 00:41:05.5	267.470	0.180	-0.690	-0.030
2020/01/31 00:41:05.6	267.510	0.170	-0.710	-0.090
2020/01/31 00:41:05.7	267.550	0.160	-0.740	-0.160
2020/01/31 00:41:05.8	267.600	0.150	-0.760	-0.220
2020/01/31 00:41:05.9	267.640	0.140	-0.780	-0.280
2020/01/31 00:41:06.0	267.680	0.130	-0.800	-0.330
2020/01/31 00:41:06.1	267.720	0.130	-0.820	-0.380
2020/01/31 00:41:06.2	267.760	0.120	-0.840	-0.420
2020/01/31 00:41:06.3	267.790	0.110	-0.850	-0.460
2020/01/31 00:41:06.4	267.830	0.100	-0.870	-0.490
2020/01/31 00:41:06.5	267.860	0.080	-0.880	-0.520
2020/01/31 00:41:06.6	267.890	0.070	-0.890	-0.540
2020/01/31 00:41:06.7	267.920	0.060	-0.890	-0.560
2020/01/31 00:41:06.8	267.950	0.050	-0.900	-0.570
2020/01/31 00:41:06.9	267.970	0.030	-0.900	-0.570
2020/01/31 00:41:07.0	267.990	0.020	-0.900	-0.570
2020/01/31 00:41:07.1	268.010	0.000	-0.900	-0.570
2020/01/31 00:41:07.2	268.030	-0.010	-0.900	-0.560
2020/01/31 00:41:07.3	268.050	-0.030	-0.890	-0.550
2020/01/31 00:41:07.4	268.060	-0.050	-0.880	-0.530
2020/01/31 00:41:07.5	268.080	-0.060	-0.870	-0.510
2020/01/31 00:41:07.6	268.090	-0.080	-0.850	-0.490
2020/01/31 00:41:07.7	268.100	-0.100	-0.830	-0.460
2020/01/31 00:41:07.8	268.120	-0.120	-0.820	-0.430
2020/01/31 00:41:07.9	268.120	-0.140	-0.790	-0.400
2020/01/31 00:41:08.0	268.130	-0.160	-0.770	-0.360
2020/01/31 00:41:08.1	268.140	-0.180	-0.740	-0.330
2020/01/31 00:41:08.2	268.150	-0.210	-0.710	-0.290
2020/01/31 00:41:08.3	268.160	-0.230	-0.680	-0.240
2020/01/31 00:41:08.4	268.160	-0.250	-0.650	-0.200
2020/01/31 00:41:08.5	268.170	-0.270	-0.620	-0.160
2020/01/31 00:41:08.6	268.180	-0.290	-0.580	-0.110
2020/01/31 00:41:08.7	268.180	-0.310	-0.550	-0.060
2020/01/31 00:41:08.8	268.190	-0.330	-0.510	-0.020
2020/01/31 00:41:08.9	268.180	-0.350	-0.470	0.030
2020/01/31 00:41:09.0	268.190	-0.370	-0.430	0.080
2020/01/31 00:41:09.1	268.200	-0.390	-0.390	0.130
2020/01/31 00:41:09.2	268.210	-0.410	-0.350	0.180
2020/01/31 00:41:09.3	268.210	-0.430	-0.300	0.220
2020/01/31 00:41:09.4	268.220	-0.440	-0.260	0.270
2020/01/31 00:41:09.5	268.230	-0.460	-0.220	0.320
2020/01/31 00:41:09.6	268.240	-0.470	-0.180	0.360
2020/01/31 00:41:09.7	268.250	-0.480	-0.140	0.410
2020/01/31 00:41:09.8	268.260	-0.490	-0.100	0.450
2020/01/31 00:41:09.9	268.270	-0.500	-0.060	0.490
2020/01/31 00:41:10.0	268.280	-0.500	-0.030	0.530
2020/01/31 00:41:10.1	268.300	-0.510	0.010	0.570
2020/01/31 00:41:10.2	268.310	-0.510	0.040	0.600
2020/01/31 00:41:10.3	268.320	-0.510	0.070	0.640
2020/01/31 00:41:10.4	268.340	-0.500	0.100	0.670
2020/01/31 00:41:10.5	268.350	-0.500	0.130	0.700
2020/01/31 00:41:10.6	268.360	-0.490	0.150	0.730
2020/01/31 00:41:10.7	268.380	-0.480	0.170	0.760
2020/01/31 00:41:10.8	268.390	-0.470	0.190	0.790
2020/01/31 00:41:10.9	268.410	-0.450	0.200	0.820
2020/01/31 00:41:11.0	268.430	-0.430	0.210	0.850
2020/01/31 00:41:11.1	268.440	-0.410	0.220	0.870
2020/01/31 00:41:11.2	268.450	-0.390	0.230	0.890
2020/01/31 00:41:11.3	268.470	-0.370	0.230	0.910
2020/01/31 00:41:11.4	268.480	-0.340	0.230	0.930
2020/01/31 00:41:11.5	268.500	-0.310	0.230	0.950
2020/01/31 00:41:11.6	268.510	-0.280	0.220	0.970
2020/01/31 00:41:11.7	268.530	-0.250	0.220	0.990
2020/01/31 00:41:11.8	268.540	-0.220	0.210	1.000
2020/01/31 00:41:11.9	268.560	-0.190	0.200	1.020
2020/01/31 00:41:12.0	268.570	-0.150	0.190	1.030
2020/01/31 00:41:12.1	268.580	-0.120	0.180	1.040
2020/01/31 00:41:12.2	268.590	-0.080	0.170	1.060
2020/01/31 00:41:12.3	268.610	-0.050	0.160	1.070
2020/01/31 00:41:12.4	268.620	-0.010	0.150	1.080
2020/01/31 00:41:12.5	268.630	0.020	0.140	1.090
2020/01/31 00:41:12.6	268.640	0.060	0.130	1.110
2020/01/31 00:41:12.7	268.650	0.090	0.120	1.120
2020/01/31 00:41:12.8	268.650	0.120	0.110	1.120
2020/01/31 00:41:12.9	268.660	0.150	0.100	1.140
2020/01/31 00:41:13.0	268.670	0.190	0.100	1.150
2020/01/31 00:41:13.1	268.680	0.220	0.090	1.150
2020/01/31 00:41:13.2	268.680	0.240	0.080	1.160
2020/01/31 00:41:13.3	268.690	0.270	0.080	1.170
2020/01/31 00:41:13.4	268.690	0.290	0.070	1.180
2020/01/31 00:41:13.5	268.690	0.320	0.070	1.180
2020/01/31 00:41:13.6	268.700	0.340	0.070	1.190
2020/01/31 00:41:13.7	268.700	0.360	0.060	1.200
2020/01/31 00:41:13.8	268.700	0.380	0.060	1.200
2020/01/31 00:41:13.9	268.700	0.390	0.050	1.210
2020/01/31 00:41:14.0	268.700	0.400	0.050	1.210
2020/01/31 00:41:14.1	268.700	0.420	0.040	1.220
2020/01/31 00:41:14.2	268.700	0.430	0.040	1.220
2020/01/31 00:41:14.3	268.700	0.430	0.040	1.220
2020/01/31 00:41:14.4	268.700	0.440	0.030	1.220
2020/01/31 00:41:14.5	268.700	0.440	0.030	1.220
2020/01/31 00:41:14.6	268.690	0.450	0.020	1.210
2020/01/31 00:41:14.7	268.690	0.450	0.010	1.210
2020/01/31 00:41:14.8	268.690	0.450	0.010	1.200
2020/01/31 00:41:14.9	268.710	0.450	-0.000	1.190
2020/01/31 00:41:15.0	268.710	0.450	-0.010	1.180
2020/01/31 00:41:15.1	268.710	0.450	-0.020	1.170
2020/01/31 00:41:15.2	268.710	0.440	-0.030	1.160
2020/01/31 00:41:15.3	268.710	0.440	-0.040	1.150
2020/01/31 00:41:15.4	268.720	0.430	-0.060	1.140
2020/01/31 00:41:15.5	268.720	0.430	-0.070	1.120
2020/01/31 00:41:15.6	268.720	0.420	-0.080	1.100
2020/01/31 00:41:15.7	268.730	0.410	-0.100	1.080
2020/01/31 00:41:15.8	268.730	0.410	-0.110	1.070
2020/01/31 00:41:15.9	268.740	0.400	-0.130	1.050
2020/01/31 00:41:16.0	268.740	0.390	-0.140	1.020
2020/01/31 00:41:16.1	268.750	0.390	-0.160	1.000
2020/01/31 00:41:16.2	268.750	0.380	-0.170	0.980
2020/01/31 00:41:16.3	268.760	0.370	-0.190	0.950
2020/01/31 00:41:16.4	268.770	0.360	-0.200	0.930
2020/01/31 00:41:16.5	268.780	0.350	-0.210	0.900
2020/01/31 00:41:16.6	268.780	0.340	-0.230	0.870
2020/01/31 00:41:16.7	268.790	0.330	-0.240	0.850
2020/01/31 00:41:16.8	268.800	0.330	-0.250	0.820
2020/01/31 00:41:16.9	268.820	0.320	-0.270	0.790
2020/01/31 00:41:17.0	268.830	0.310	-0.280	0.760
2020/01/31 00:41:17.1	268.840	0.300	-0.290	0.730
2020/01/31 00:41:17.2	268.850	0.290	-0.300	0.700
2020/01/31 00:41:17.3	268.860	0.280	-0.320	0.670
2020/01/31 00:41:17.4	268.880	0.270	-0.330	0.640
2020/01/31 00:41:17.5	268.890	0.250	-0.340	0.610
2020/01/31 00:41:17.6	268.900	0.240	-0.350	0.580
2020/01/31 00:41:17.7	268.920	0.230	-0.360	0.550
2020/01/31 00:41:17.8	268.930	0.220	-0.370	0.520
2020/01/31 00:41:17.9	268.950	0.210	-0.390	0.490
2020/01/31 00:41:18.0	268.970	0.200	-0.400	0.470
2020/01/31 00:41:18.1	268.990	0.180	-0.410	0.440
2020/01/31 00:41:18.2	269.000	0.170	-0.420	0.410
2020/01/31 00:41:18.3	269.020	0.160	-0.430	0.380
2020/01/31 00:41:18.4	269.040	0.150	-0.440	0.360
2020/01/31 00:41:18.5	269.060	0.130	-0.450	0.330
2020/01/31 00:41:18.6	269.080	0.120	-0.460	0.300
2020/01/31 00:41:18.7	269.100	0.110	-0.470	0.280
2020/01/31 00:41:18.8	269.120	0.090	-0.480	0.250
2020/01/31 00:41:18.9	269.140	0.080	-0.490	0.220
2020/01/31 00:41:19.0	269.160	0.070	-0.500	0.200
2020/01/31 00:41:19.1	269.180	0.050	-0.510	0.170
2020/01/31 00:41:19.2	269.210	0.040	-0.520	0.150
2020/01/31 00:41:19.3	269.230	0.030	-0.530	0.120
2020/01/31 00:41:19.4	269.260	0.010	-0.540	0.100
2020/01/31 00:41:19.5	269.280	0.000	-0.540	0.070
2020/01/31 00:41:19.6	269.310	-0.010	-0.550	0.050
2020/01/31 00:41:19.7	269.340	-0.020	-0.560	0.020
2020/01/31 00:41:19.8	269.370	-0.040	-0.570	-0.000
2020/01/31 00:41:19.9	269.380	-0.050	-0.580	-0.030
2020/01/31 00:41:20.0	269.410	-0.060	-0.590	-0.050
2020/01/31 00:41:20.1	269.440	-0.070	-0.590	-0.070
2020/01/31 00:41:20.2	269.470	-0.080	-0.600	-0.090
2020/01/31 00:41:20.3	269.500	-0.090	-0.600	-0.110
2020/01/31 00:41:20.4	269.540	-0.100	-0.610	-0.130
2020/01/31 00:41:20.5	269.570	-0.110	-0.610	-0.150
2020/01/31 00:41:20.6	269.600	-0.120	-0.610	-0.160
2020/01/31 00:41:20.7	269.640	-0.130	-0.610	-0.180
2020/01/31 00:41:20.8	269.670	-0.130	-0.610	-0.190
2020/01/31 00:41:20.9	269.690	-0.140	-0.610	-0.200
2020/01/31 00:41:21.0	269.720	-0.150	-0.610	-0.210
2020/01/31 00:41:21.1	269.760	-0.160	-0.600	-0.210
2020/01/31 00:41:21.2	269.790	-0.160	-0.600	-0.220
2020/01/31 00:41:21.3	269.830	-0.170	-0.590	-0.220
2020/01/31 00:41:21.4	269.860	-0.180	-0.590	-0.220
2020/01/31 00:41:21.5	269.890	-0.180	-0.580	-0.220
2020/01/31 00:41:21.6	269.930	-0.190	-0.570	-0.210
2020/01/31 00:41:21.7	269.960	-0.190	-0.560	-0.210
2020/01/31 00:41:21.8	269.990	-0.190	-0.550	-0.200
2020/01/31 00:41:21.9	270.010	-0.200	-0.540	-0.190
2020/01/31 00:41:22.0	270.040	-0.200	-0.530	-0.180
2020/01/31 00:41:22.1	270.070	-0.200	-0.520	-0.170
2020/01/31 00:41:22.2	270.100	-0.210	-0.500	-0.150
2020/01/31 00:41:22.3	270.130	-0.210	-0.490	-0.130
2020/01/31 00:41:22.4	270.160	-0.210	-0.480	-0.120
2020/01/31 00:41:22.5	270.180	-0.210	-0.460	-0.100
2020/01/31 00:41:22.6	270.210	-0.210	-0.450	-0.070
2020/01/31 00:41:22.7	270.230	-0.210	-0.440	-0.050
2020/01/31 00:41:22.8	270.260	-0.210	-0.420	-0.020
2020/01/31 00:41:22.9	270.280	-0.210	-0.410	0.010
2020/01/31 00:41:23.0	270.300	-0.210	-0.390	0.040
2020/01/31 00:41:23.1	270.320	-0.210	-0.380	0.070
2020/01/31 00:41:23.2	270.330	-0.210	-0.360	0.100
2020/01/31 00:41:23.3	270.350	-0.210	-0.350	0.130
2020/01/31 00:41:23.4	270.360	-0.210	-0.330	0.170
2020/01/31 00:41:23.5	270.380	-0.210	-0.320	0.210
2020/01/31 00:41:23.6	270.390	-0.210	-0.300	0.240
2020/01/31 00:41:23.7	270.390	-0.210	-0.290	0.280
2020/01/31 00:41:23.8	270.400	-0.210	-0.270	0.320
2020/01/31 00:41:23.9	270.410	-0.210	-0.260	0.360
2020/01/31 00:41:24.0	270.410	-0.210	-0.240	0.400
2020/01/31 00:41:24.1	270.410	-0.210	-0.230	0.440
2020/01/31 00:41:24.2	270.410	-0.210	-0.210	0.470
2020/01/31 00:41:24.3	270.410	-0.210	-0.200	0.510
2020/01/31 00:41:24.4	270.410	-0.210	-0.180	0.550
2020/01/31 00:41:24.5	270.400	-0.210	-0.170	0.590
2020/01/31 00:41:24.6	270.400	-0.210	-0.160	0.620
2020/01/31 00:41:24.7	270.390	-0.210	-0.140	0.660
2020/01/31 00:41:24.8	270.380	-0.210	-0.130	0.700
2020/01/31 00:41:24.9	270.370	-0.210	-0.120	0.730
2020/01/31 00:41:25.0	270.360	-0.210	-0.110	0.760
2020/01/31 00:41:25.1	270.350	-0.210	-0.100	0.800
2020/01/31 00:41:25.2	270.330	-0.210	-0.090	0.830
2020/01/31 00:41:25.3	270.320	-0.210	-0.080	0.860
2020/01/31 00:41:25.4	270.300	-0.210	-0.070	0.890
2020/01/31 00:41:25.5	270.290	-0.210	-0.060	0.920
2020/01/31 00:41:25.6	270.270	-0.210	-0.050	0.950
2020/01/31 00:41:25.7	270.260	-0.210	-0.040	0.980
2020/01/31 00:41:25.8	270.240	-0.200	-0.030	1.010
2020/01/31 00:41:25.9	270.230	-0.200	-0.020	1.030
2020/01/31 00:41:26.0	270.210	-0.200	-0.010	1.060
2020/01/31 00:41:26.1	270.190	-0.200	0.000	1.080
2020/01/31 00:41:26.2	270.170	-0.200	0.020	1.110
2020/01/31 00:41:26.3	270.160	-0.200	0.030	1.130
2020/01/31 00:41:26.4	270.140	-0.200	0.040	1.140
2020/01/31 00:41:26.5	270.120	-0.190	0.050	1.160
2020/01/31 00:41:26.6	270.100	-0.190	0.070	1.180
2020/01/31 00:41:26.7	270.090	-0.190	0.090	1.190
2020/01/31 00:41:26.8	270.070	-0.190	0.100	1.200
2020/01/31 00:41:26.9	270.060	-0.180	0.120	1.210
2020/01/31 00:41:27.0	270.050	-0.180	0.130	1.220
2020/01/31 00:41:27.1	270.030	-0.180	0.150	1.220
2020/01/31 00:41:27.2	270.020	-0.180	0.170	1.220
2020/01/31 00:41:27.3	270.010	-0.170	0.190	1.220
2020/01/31 00:41:27.4	270.000	-0.170	0.210	1.220
2020/01/31 00:41:27.5	269.990	-0.170	0.230	1.220
2020/01/31 00:41:27.6	269.980	-0.160	0.250	1.210
2020/01/31 00:41:27.7	269.970	-0.160	0.270	1.210
2020/01/31 00:41:27.8	269.970	-0.160	0.290	1.200
2020/01/31 00:41:27.9	269.970	-0.150	0.300	1.190
2020/01/31 00:41:28.0	269.970	-0.150	0.320	1.180
2020/01/31 00:41:28.1	269.960	-0.140	0.340	1.160
2020/01/31 00:41:28.2	269.960	-0.140	0.350	1.150
2020/01/31 00:41:28.3	269.960	-0.130	0.360	1.130
2020/01/31 00:41:28.4	269.960	-0.120	0.370	1.110
2020/01/31 00:41:28.5	269.960	-0.120	0.380	1.090
2020/01/31 00:41:28.6	269.960	-0.110	0.380	1.070
2020/01/31 00:41:28.7	269.960	-0.100	0.380	1.050
2020/01/31 00:41:28.8	269.970	-0.090	0.380	1.020
2020/01/31 00:41:28.9	269.980	-0.090	0.380	1.000
2020/01/31 00:41:29.0	269.990	-0.080	0.370	0.970
2020/01/31 00:41:29.1	269.990	-0.070	0.360	0.940
2020/01/31 00:41:29.2	270.000	-0.060	0.340	0.900
2020/01/31 00:41:29.3	270.010	-0.050	0.320	0.870
2020/01/31 00:41:29.4	270.030	-0.040	0.300	0.830
2020/01/31 00:41:29.5	270.040	-0.020	0.280	0.800
2020/01/31 00:41:29.6	270.050	-0.010	0.250	0.760
2020/01/31 00:41:29.7	270.070	0.000	0.220	0.720
2020/01/31 00:41:29.8	270.090	0.010	0.190	0.690
2020/01/31 00:41:29.9	270.100	0.030	0.150	0.640
2020/01/31 00:41:30.0	270.110	0.040	0.110	0.600
2020/01/31 00:41:30.1	270.140	0.050	0.070	0.560
2020/01/31 00:41:30.2	270.160	0.070	0.030	0.520
2020/01/31 00:41:30.3	270.180	0.080	-0.010	0.480
2020/01/31 00:41:30.4	270.210	0.100	-0.050	0.440
2020/01/31 00:41:30.5	270.230	0.110	-0.100	0.400
2020/01/31 00:41:30.6	270.260	0.130	-0.140	0.360
2020/01/31 00:41:30.7	270.290	0.140	-0.190	0.320
2020/01/31 00:41:30.8	270.320	0.160	-0.230	0.280
2020/01/31 00:41:30.9	270.350	0.170	-0.280	0.240
2020/01/31 00:41:31.0	270.380	0.190	-0.320	0.200
2020/01/31 00:41:31.1	270.410	0.200	-0.360	0.170
2020/01/31 00:41:31.2	270.450	0.210	-0.400	0.130
2020/01/31 00:41:31.3	270.480	0.230	-0.450	0.100
2020/01/31 00:41:31.4	270.510	0.240	-0.480	0.070
2020/01/31 00:41:31.5	270.550	0.250	-0.520	0.030
2020/01/31 00:41:31.6	270.580	0.270	-0.560	0.010
2020/01/31 00:41:31.7	270.610	0.280	-0.590	-0.020
2020/01/31 00:41:31.8	270.650	0.290	-0.630	-0.050
2020/01/31 00:41:31.9	270.680	0.300	-0.660	-0.070
2020/01/31 00:41:32.0	270.710	0.310	-0.690	-0.090
2020/01/31 00:41:32.1	270.740	0.330	-0.720	-0.110
2020/01/31 00:41:32.2	270.780	0.330	-0.740	-0.120
2020/01/31 00:41:32.3	270.810	0.340	-0.770	-0.130
2020/01/31 00:41:32.4	270.840	0.350	-0.790	-0.140
2020/01/31 00:41:32.5	270.870	0.360	-0.810	-0.150
2020/01/31 00:41:32.6	270.900	0.370	-0.820	-0.150
2020/01/31 00:41:32.7	270.920	0.370	-0.840	-0.150
2020/01/31 00:41:32.8	270.950	0.380	-0.850	-0.140
2020/01/31 00:41:32.9	270.970	0.380	-0.860	-0.140
2020/01/31 00:41:33.0	271.000	0.380	-0.870	-0.120
2020/01/31 00:41:33.1	271.020	0.390	-0.880	-0.110
2020/01/31 00:41:33.2	271.040	0.390	-0.880	-0.090
2020/01/31 00:41:33.3	271.060	0.390	-0.880	-0.070
2020/01/31 00:41:33.4	271.080	0.390	-0.880	-0.050
2020/01/31 00:41:33.5	271.100	0.390	-0.890	-0.020
2020/01/31 00:41:33.6	271.120	0.380	-0.880	0.000
2020/01/31 00:41:33.7	271.130	0.380	-0.880	0.030
2020/01/31 00:41:33.8	271.140	0.370	-0.870	0.060
2020/01/31 00:41:33.9	271.160	0.370	-0.870	0.090
2020/01/31 00:41:34.0	271.170	0.360	-0.860	0.130
2020/01/31 00:41:34.1	271.180	0.350	-0.850	0.160
2020/01/31 00:41:34.2	271.180	0.350	-0.840	0.200
2020/01/31 00:41:34.3	271.190	0.340	-0.830	0.230
2020/01/31 00:41:34.4	271.190	0.330	-0.820	0.270
2020/01/31 00:41:34.5	271.190	0.320	-0.810	0.310
2020/01/31 00:41:34.6	271.190	0.300	-0.790	0.350
2020/01/31 00:41:34.7	271.190	0.290	-0.780	0.390
2020/01/31 00:41:34.8	271.180	0.280	-0.760	0.430
2020/01/31 00:41:34.9	271.190	0.260	-0.740	0.470
2020/01/31 00:41:35.0	271.180	0.250	-0.720	0.510
2020/01/31 00:41:35.1	271.170	0.230	-0.710	0.550
2020/01/31 00:41:35.2	271.160	0.220	-0.690	0.590
2020/01/31 00:41:35.3	271.150	0.200	-0.670	0.630
2020/01/31 00:41:35.4	271.130	0.180	-0.650	0.670
2020/01/31 00:41:35.5	271.120	0.170	-0.620	0.710
2020/01/31 00:41:35.6	271.100	0.150	-0.600	0.750
2020/01/31 00:41:35.7	271.080	0.130	-0.580	0.800
2020/01/31 00:41:35.8	271.060	0.110	-0.550	0.840
2020/01/31 00:41:35.9	271.050	0.090	-0.530	0.870
2020/01/31 00:41:36.0	271.030	0.070	-0.510	0.910
2020/01/31 00:41:36.1	271.010	0.050	-0.480	0.950
2020/01/31 00:41:36.2	270.980	0.030	-0.460	0.990
2020/01/31 00:41:36.3	270.950	0.010	-0.430	1.030
2020/01/31 00:41:36.4	270.930	-0.000	-0.410	1.070
2020/01/31 00:41:36.5	270.900	-0.020	-0.380	1.110
2020/01/31 00:41:36.6	270.870	-0.040	-0.350	1.150
2020/01/31 00:41:36.7	270.840	-0.060	-0.320	1.180
2020/01/31 00:41:36.8	270.820	-0.080	-0.300	1.220
2020/01/31 00:41:36.9	270.780	-0.100	-0.270	1.250
2020/01/31 00:41:37.0	270.760	-0.120	-0.240	1.290
2020/01/31 00:41:37.1	270.730	-0.140	-0.210	1.320
2020/01/31 00:41:37.2	270.700	-0.160	-0.180	1.350
2020/01/31 00:41:37.3	270.670	-0.180	-0.150	1.370
2020/01/31 00:41:37.4	270.640	-0.200	-0.120	1.400
2020/01/31 00:41:37.5	270.620	-0.210	-0.090	1.420
2020/01/31 00:41:37.6	270.590	-0.230	-0.060	1.440
2020/01/31 00:41:37.7	270.570	-0.250	-0.030	1.460
2020/01/31 00:41:37.8	270.540	-0.260	0.000	1.470
2020/01/31 00:41:37.9	270.520	-0.280	0.040	1.480
2020/01/31 00:41:38.0	270.500	-0.300	0.070	1.490
2020/01/31 00:41:38.1	270.480	-0.310	0.100	1.500
2020/01/31 00:41:38.2	270.460	-0.320	0.130	1.500
2020/01/31 00:41:38.3	270.450	-0.340	0.160	1.500
2020/01/31 00:41:38.4	270.430	-0.350	0.190	1.500
2020/01/31 00:41:38.5	270.420	-0.360	0.220	1.490
2020/01/31 00:41:38.6	270.410	-0.370	0.250	1.480
2020/01/31 00:41:38.7	270.400	-0.380	0.280	1.470
2020/01/31 00:41:38.8	270.390	-0.380	0.300	1.460
2020/01/31 00:41:38.9	270.390	-0.390	0.330	1.440
2020/01/31 00:41:39.0	270.390	-0.400	0.350	1.420
2020/01/31 00:41:39.1	270.390	-0.400	0.370	1.400
2020/01/31 00:41:39.2	270.390	-0.400	0.400	1.370
2020/01/31 00:41:39.3	270.390	-0.400	0.420	1.350
2020/01/31 00:41:39.4	270.390	-0.400	0.430	1.320
2020/01/31 00:41:39.5	270.390	-0.400	0.450	1.290
2020/01/31 00:41:39.6	270.400	-0.400	0.460	1.260
2020/01/31 00:41:39.7	270.410	-0.400	0.470	1.230
2020/01/31 00:41:39.8	270.410	-0.390	0.480	1.200
2020/01/31 00:41:39.9	270.420	-0.380	0.480	1.160
2020/01/31 00:41:40.0	270.430	-0.380	0.480	1.130
2020/01/31 00:41:40.1	270.440	-0.370	0.480	1.090
2020/01/31 00:41:40.2	270.460	-0.360	0.480	1.050
2020/01/31 00:41:40.3	270.470	-0.350	0.470	1.010
2020/01/31 00:41:40.4	270.490	-0.330	0.460	0.970
2020/01/31 00:41:40.5	270.510	-0.320	0.450	0.930
2020/01/31 00:41:40.6	270.530	-0.310	0.430	0.880
2020/01/31 00:41:40.7	270.550	-0.290	0.420	0.840
2020/01/31 00:41:40.8	270.570	-0.280	0.400	0.790
2020/01/31 00:41:40.9	270.580	-0.260	0.370	0.740
2020/01/31 00:41:41.0	270.600	-0.240	0.340	0.690
2020/01/31 00:41:41.1	270.630	-0.220	0.320	0.640
2020/01/31 00:41:41.2	270.650	-0.210	0.290	0.590
2020/01/31 00:41:41.3	270.680	-0.190	0.260	0.540
2020/01/31 00:41:41.4	270.710	-0.170	0.230	0.490
2020/01/31 00:41:41.5	270.730	-0.150	0.200	0.450
2020/01/31 00:41:41.6	270.760	-0.140	0.160	0.400
2020/01/31 00:41:41.7	270.790	-0.120	0.130	0.350
2020/01/31 00:41:41.8	270.820	-0.100	0.100	0.300
2020/01/31 00:41:41.9	270.850	-0.080	0.070	0.260
2020/01/31 00:41:42.0	270.870	-0.070	0.030	0.210
2020/01/31 00:41:42.1	270.900	-0.050	0.000	0.170
2020/01/31 00:41:42.2	270.930	-0.040	-0.030	0.120
2020/01/31 00:41:42.3	270.960	-0.020	-0.060	0.080
2020/01/31 00:41:42.4	270.990	-0.010	-0.090	0.040
2020/01/31 00:41:42.5	271.020	0.000	-0.120	0.000
2020/01/31 00:41:42.6	271.040	0.020	-0.150	-0.030
2020/01/31 00:41:42.7	271.070	0.030	-0.180	-0.070
2020/01/31 00:41:42.8	271.100	0.040	-0.200	-0.100
2020/01/31 00:41:42.9	271.130	0.050	-0.240	-0.130
2020/01/31 00:41:43.0	271.160	0.060	-0.260	-0.160
2020/01/31 00:41:43.1	271.180	0.070	-0.290	-0.190
2020/01/31 00:41:43.2	271.200	0.080	-0.310	-0.210
2020/01/31 00:41:43.3	271.230	0.080	-0.340	-0.230
2020/01/31 00:41:43.4	271.250	0.090	-0.360	-0.250
2020/01/31 00:41:43.5	271.270	0.090	-0.390	-0.260
2020/01/31 00:41:43.6	271.290	0.100	-0.410	-0.280
2020/01/31 00:41:43.7	271.310	0.100	-0.440	-0.280
2020/01/31 00:41:43.8	271.330	0.110	-0.460	-0.290
2020/01/31 00:41:43.9	271.360	0.110	-0.480	-0.290
2020/01/31 00:41:44.0	271.380	0.110	-0.510	-0.290
2020/01/31 00:41:44.1	271.390	0.110	-0.530	-0.280
2020/01/31 00:41:44.2	271.410	0.120	-0.560	-0.270
2020/01/31 00:41:44.3	271.420	0.120	-0.580	-0.250
2020/01/31 00:41:44.4	271.430	0.120	-0.600	-0.240
2020/01/31 00:41:44.5	271.440	0.120	-0.630	-0.210
2020/01/31 00:41:44.6	271.450	0.110	-0.650	-0.190
2020/01/31 00:41:44.7	271.460	0.110	-0.670	-0.160
2020/01/31 00:41:44.8	271.470	0.110	-0.690	-0.120
2020/01/31 00:41:44.9	271.460	0.110	-0.720	-0.090
2020/01/31 00:41:45.0	271.460	0.110	-0.740	-0.040
2020/01/31 00:41:45.1	271.460	0.100	-0.760	-0.000
2020/01/31 00:41:45.2	271.460	0.100	-0.770	0.050
2020/01/31 00:41:45.3	271.460	0.100	-0.790	0.100
2020/01/31 00:41:45.4	271.450	0.090	-0.810	0.150
2020/01/31 00:41:45.5	271.450	0.090	-0.820	0.210
2020/01/31 00:41:45.6	271.440	0.080	-0.840	0.270
2020/01/31 00:41:45.7	271.420	0.080	-0.850	0.340
2020/01/31 00:41:45.8	271.410	0.070	-0.860	0.400
2020/01/31 00:41:45.9	271.390	0.060	-0.870	0.470
2020/01/31 00:41:46.0	271.370	0.060	-0.870	0.540
2020/01/31 00:41:46.1	271.350	0.050	-0.880	0.610
2020/01/31 00:41:46.2	271.330	0.040	-0.880	0.680
2020/01/31 00:41:46.3	271.310	0.030	-0.880	0.750
2020/01/31 00:41:46.4	271.290	0.030	-0.880	0.820
2020/01/31 00:41:46.5	271.270	0.020	-0.870	0.890
2020/01/31 00:41:46.6	271.250	0.010	-0.860	0.960
2020/01/31 00:41:46.7	271.220	-0.000	-0.850	1.030
2020/01/31 00:41:46.8	271.200	-0.010	-0.840	1.090
2020/01/31 00:41:46.9	271.190	-0.020	-0.830	1.160
2020/01/31 00:41:47.0	271.160	-0.030	-0.810	1.220
2020/01/31 00:41:47.1	271.140	-0.040	-0.800	1.280
2020/01/31 00:41:47.2	271.120	-0.050	-0.780	1.340
2020/01/31 00:41:47.3	271.100	-0.060	-0.760	1.400
2020/01/31 00:41:47.4	271.080	-0.070	-0.740	1.450
2020/01/31 00:41:47.5	271.060	-0.080	-0.720	1.500
2020/01/31 00:41:47.6	271.040	-0.090	-0.690	1.550
2020/01/31 00:41:47.7	271.030	-0.100	-0.670	1.590
2020/01/31 00:41:47.8	271.010	-0.110	-0.640	1.630
2020/01/31 00:41:47.9	271.020	-0.120	-0.620	1.670
2020/01/31 00:41:48.0	271.010	-0.120	-0.590	1.700
2020/01/31 00:41:48.1	271.000	-0.130	-0.570	1.730
2020/01/31 00:41:48.2	270.990	-0.140	-0.540	1.760
2020/01/31 00:41:48.3	270.980	-0.140	-0.510	1.780
2020/01/31 00:41:48.4	270.980	-0.150	-0.480	1.790
2020/01/31 00:41:48.5	270.970	-0.150	-0.450	1.800
2020/01/31 00:41:48.6	270.970	-0.160	-0.430	1.810
2020/01/31 00:41:48.7	270.970	-0.160	-0.400	1.820
2020/01/31 00:41:48.8	270.970	-0.160	-0.370	1.820
2020/01/31 00:41:48.9	270.980	-0.160	-0.340	1.820
2020/01/31 00:41:49.0	270.980	-0.160	-0.310	1.810
2020/01/31 00:41:49.1	270.990	-0.160	-0.280	1.800
2020/01/31 00:41:49.2	270.990	-0.160	-0.250	1.790
2020/01/31 00:41:49.3	271.000	-0.160	-0.220	1.780
2020/01/31 00:41:49.4	271.000	-0.150	-0.190	1.760
2020/01/31 00:41:49.5	271.010	-0.150	-0.160	1.740
2020/01/31 00:41:49.6	271.020	-0.140	-0.130	1.720
2020/01/31 00:41:49.7	271.040	-0.140	-0.100	1.700
2020/01/31 00:41:49.8	271.050	-0.130	-0.070	1.670
2020/01/31 00:41:49.9	271.060	-0.130	-0.030	1.640
2020/01/31 00:41:50.0	271.080	-0.120	0.000	1.610
2020/01/31 00:41:50.1	271.090	-0.110	0.030	1.580
2020/01/31 00:41:50.2	271.110	-0.100	0.070	1.550
2020/01/31 00:41:50.3	271.130	-0.090	0.100	1.510
2020/01/31 00:41:50.4	271.150	-0.080	0.130	1.480
2020/01/31 00:41:50.5	271.170	-0.070	0.160	1.440
2020/01/31 00:41:50.6	271.200	-0.060	0.190	1.400
2020/01/31 00:41:50.7	271.220	-0.050	0.220	1.360
2020/01/31 00:41:50.8	271.240	-0.040	0.250	1.320
2020/01/31 00:41:50.9	271.280	-0.040	0.280	1.280
2020/01/31 00:41:51.0	271.300	-0.030	0.300	1.240
2020/01/31 00:41:51.1	271.330	-0.020	0.330	1.200
2020/01/31 00:41:51.2	271.350	-0.010	0.350	1.160
2020/01/31 00:41:51.3	271.380	0.000	0.370	1.120
2020/01/31 00:41:51.4	271.410	0.010	0.390	1.080
2020/01/31 00:41:51.5	271.430	0.020	0.400	1.040
2020/01/31 00:41:51.6	271.460	0.030	0.420	1.000
2020/01/31 00:41:51.7	271.490	0.040	0.430	0.960
2020/01/31 00:41:51.8	271.520	0.050	0.440	0.920
2020/01/31 00:41:51.9	271.540	0.060	0.450	0.880
2020/01/31 00:41:52.0	271.560	0.060	0.450	0.850
2020/01/31 00:41:52.1	271.590	0.070	0.450	0.810
2020/01/31 00:41:52.2	271.620	0.080	0.460	0.770
2020/01/31 00:41:52.3	271.650	0.090	0.450	0.730
2020/01/31 00:41:52.4	271.670	0.100	0.450	0.690
2020/01/31 00:41:52.5	271.700	0.110	0.450	0.660
2020/01/31 00:41:52.6	271.730	0.120	0.440	0.620
2020/01/31 00:41:52.7	271.750	0.130	0.430	0.580
2020/01/31 00:41:52.8	271.780	0.140	0.420	0.550
2020/01/31 00:41:52.9	271.800	0.150	0.400	0.510
2020/01/31 00:41:53.0	271.820	0.160	0.390	0.480
2020/01/31 00:41:53.1	271.840	0.170	0.370	0.440
2020/01/31 00:41:53.2	271.870	0.180	0.350	0.410
2020/01/31 00:41:53.3	271.890	0.200	0.330	0.380
2020/01/31 00:41:53.4	271.910	0.210	0.300	0.350
2020/01/31 00:41:53.5	271.920	0.220	0.280	0.320
2020/01/31 00:41:53.6	271.940	0.240	0.250	0.300
2020/01/31 00:41:53.7	271.960	0.250	0.220	0.270
2020/01/31 00:41:53.8	271.970	0.270	0.190	0.250
2020/01/31 00:41:53.9	271.970	0.280	0.150	0.220
2020/01/31 00:41:54.0	271.980	0.300	0.120	0.200
2020/01/31 00:41:54.1	271.990	0.310	0.080	0.180
2020/01/31 00:41:54.2	272.000	0.330	0.040	0.170
2020/01/31 00:41:54.3	272.010	0.340	-0.000	0.150
2020/01/31 00:41:54.4	272.010	0.360	-0.040	0.140
2020/01/31 00:41:54.5	272.020	0.370	-0.090	0.130
2020/01/31 00:41:54.6	272.020	0.380	-0.130	0.120
2020/01/31 00:41:54.7	272.020	0.400	-0.170	0.120
2020/01/31 00:41:54.8	272.020	0.410	-0.220	0.120
2020/01/31 00:41:54.9	272.020	0.420	-0.270	0.120
2020/01/31 00:41:55.0	272.010	0.430	-0.310	0.120
2020/01/31 00:41:55.1	272.010	0.430	-0.350	0.130
2020/01/31 00:41:55.2	272.000	0.440	-0.390	0.150
2020/01/31 00:41:55.3	271.990	0.440	-0.440	0.160
2020/01/31 00:41:55.4	271.980	0.450	-0.480	0.180
2020/01/31 00:41:55.5	271.970	0.450	-0.510	0.200
2020/01/31 00:41:55.6	271.950	0.440	-0.550	0.230
2020/01/31 00:41:55.7	271.940	0.440	-0.580	0.250
2020/01/31 00:41:55.8	271.920	0.430	-0.620	0.280
2020/01/31 00:41:55.9	271.900	0.430	-0.650	0.320
2020/01/31 00:41:56.0	271.880	0.420	-0.670	0.350
2020/01/31 00:41:56.1	271.860	0.400	-0.700	0.390
2020/01/31 00:41:56.2	271.840	0.390	-0.720	0.420
2020/01/31 00:41:56.3	271.810	0.370	-0.740	0.460
2020/01/31 00:41:56.4	271.790	0.360	-0.760	0.500
2020/01/31 00:41:56.5	271.770	0.340	-0.770	0.540
2020/01/31 00:41:56.6	271.740	0.310	-0.790	0.580
2020/01/31 00:41:56.7	271.720	0.290	-0.800	0.630
2020/01/31 00:41:56.8	271.700	0.260	-0.800	0.670
2020/01/31 00:41:56.9	271.670	0.230	-0.810	0.710
2020/01/31 00:41:57.0	271.650	0.210	-0.810	0.750
2020/01/31 00:41:57.1	271.630	0.170	-0.810	0.790
2020/01/31 00:41:57.2	271.600	0.140	-0.810	0.830
2020/01/31 00:41:57.3	271.590	0.110	-0.800	0.870
2020/01/31 00:41:57.4	271.570	0.080	-0.790	0.900
2020/01/31 00:41:57.5	271.550	0.040	-0.780	0.940
2020/01/31 00:41:57.6	271.540	0.010	-0.770	0.970
2020/01/31 00:41:57.7	271.520	-0.030	-0.750	1.000
2020/01/31 00:41:57.8	271.510	-0.060	-0.740	1.020
2020/01/31 00:41:57.9	271.500	-0.100	-0.720	1.050
2020/01/31 00:41:58.0	271.490	-0.130	-0.700	1.070
2020/01/31 00:41:58.1	271.490	-0.170	-0.680	1.080
2020/01/31 00:41:58.2	271.480	-0.200	-0.660	1.100
2020/01/31 00:41:58.3	271.480	-0.240	-0.630	1.110
2020/01/31 00:41:58.4	271.490	-0.270	-0.610	1.110
2020/01/31 00:41:58.5	271.490	-0.300	-0.590	1.120
2020/01/31 00:41:58.6	271.500	-0.330	-0.560	1.120
2020/01/31 00:41:58.7	271.510	-0.360	-0.540	1.110
2020/01/31 00:41:58.8	271.520	-0.390	-0.510	1.100
2020/01/31 00:41:58.9	271.540	-0.410	-0.480	1.090
2020/01/31 00:41:59.0	271.560	-0.440	-0.460	1.070
2020/01/31 00:41:59.1	271.580	-0.460	-0.430	1.050
2020/01/31 00:41:59.2	271.610	-0.480	-0.410	1.030
2020/01/31 00:41:59.3	271.640	-0.500	-0.390	1.000
2020/01/31 00:41:59.4	271.670	-0.510	-0.360	0.970
2020/01/31 00:41:59.5	271.700	-0.530	-0.340	0.930
2020/01/31 00:41:59.6	271.740	-0.540	-0.320	0.890
2020/01/31 00:41:59.7	271.770	-0.550	-0.300	0.850
2020/01/31 00:41:59.8	271.810	-0.560	-0.280	0.810
2020/01/31 00:41:59.9	271.850	-0.570	-0.260	0.770
2020/01/31 00:42:00.0	271.900	-0.580	-0.240	0.720
2020/01/31 00:42:00.1	271.950	-0.580	-0.220	0.670
2020/01/31 00:42:00.2	271.990	-0.590	-0.210	0.620
2020/01/31 00:42:00.3	272.040	-0.590	-0.190	0.570
2020/01/31 00:42:00.4	272.090	-0.590	-0.180	0.530
2020/01/31 00:42:00.5	272.150	-0.580	-0.160	0.480
2020/01/31 00:42:00.6	272.200	-0.580	-0.150	0.430
2020/01/31 00:42:00.7	272.250	-0.570	-0.140	0.380
2020/01/31 00:42:00.8	272.310	-0.570	-0.130	0.330
2020/01/31 00:42:00.9	272.360	-0.560	-0.130	0.290
2020/01/31 00:42:01.0	272.420	-0.550	-0.120	0.250
2020/01/31 00:42:01.1	272.470	-0.540	-0.120	0.210
2020/01/31 00:42:01.2	272.530	-0.530	-0.110	0.170
2020/01/31 00:42:01.3	272.580	-0.520	-0.110	0.130
2020/01/31 00:42:01.4	272.640	-0.500	-0.110	0.100
2020/01/31 00:42:01.5	272.690	-0.490	-0.110	0.070
2020/01/31 00:42:01.6	272.750	-0.470	-0.110	0.040
2020/01/31 00:42:01.7	272.800	-0.460	-0.110	0.020
2020/01/31 00:42:01.8	272.860	-0.440	-0.110	0.000
2020/01/31 00:42:01.9	272.910	-0.420	-0.120	-0.010
2020/01/31 00:42:02.0	272.960	-0.400	-0.120	-0.030
2020/01/31 00:42:02.1	273.020	-0.380	-0.120	-0.040
2020/01/31 00:42:02.2	273.070	-0.370	-0.130	-0.040
2020/01/31 00:42:02.3	273.120	-0.350	-0.130	-0.040
2020/01/31 00:42:02.4	273.170	-0.330	-0.140	-0.040
2020/01/31 00:42:02.5	273.230	-0.310	-0.140	-0.040
2020/01/31 00:42:02.6	273.280	-0.290	-0.150	-0.030
2020/01/31 00:42:02.7	273.330	-0.260	-0.150	-0.020
2020/01/31 00:42:02.8	273.380	-0.240	-0.160	0.000
2020/01/31 00:42:02.9	273.430	-0.220	-0.160	0.020
2020/01/31 00:42:03.0	273.480	-0.200	-0.170	0.040
2020/01/31 00:42:03.1	273.530	-0.180	-0.170	0.070
2020/01/31 00:42:03.2	273.580	-0.160	-0.180	0.100
2020/01/31 00:42:03.3	273.620	-0.140	-0.190	0.140
2020/01/31 00:42:03.4	273.670	-0.120	-0.190	0.180
2020/01/31 00:42:03.5	273.710	-0.090	-0.200	0.220
2020/01/31 00:42:03.6	273.750	-0.070	-0.200	0.270
2020/01/31 00:42:03.7	273.790	-0.050	-0.210	0.320
2020/01/31 00:42:03.8	273.830	-0.030	-0.210	0.380
2020/01/31 00:42:03.9	273.870	-0.010	-0.220	0.430
2020/01/31 00:42:04.0	273.900	0.010	-0.220	0.490
2020/01/31 00:42:04.1	273.930	0.030	-0.220	0.560
2020/01/31 00:42:04.2	273.960	0.050	-0.220	0.630
2020/01/31 00:42:04.3	273.990	0.070	-0.230	0.700
2020/01/31 00:42:04.4	274.010	0.090	-0.230	0.770
2020/01/31 00:42:04.5	274.040	0.110	-0.230	0.840
2020/01/31 00:42:04.6	274.060	0.130	-0.220	0.920
2020/01/31 00:42:04.7	274.080	0.140	-0.220	1.000
2020/01/31 00:42:04.8	274.090	0.160	-0.220	1.070
2020/01/31 00:42:04.9	274.110	0.180	-0.210	1.150
2020/01/31 00:42:05.0	274.120	0.190	-0.210	1.230
2020/01/31 00:42:05.1	274.130	0.210	-0.200	1.310
2020/01/31 00:42:05.2	274.150	0.220	-0.200	1.390
2020/01/31 00:42:05.3	274.160	0.230	-0.190	1.470
2020/01/31 00:42:05.4	274.170	0.250	-0.180	1.540
2020/01/31 00:42:05.5	274.180	0.260	-0.170	1.620
2020/01/31 00:42:05.6	274.190	0.270	-0.160	1.690
2020/01/31 00:42:05.7	274.190	0.280	-0.150	1.760
2020/01/31 00:42:05.8	274.200	0.290	-0.140	1.830
2020/01/31 00:42:05.9	274.210	0.290	-0.130	1.900
2020/01/31 00:42:06.0	274.220	0.300	-0.120	1.970
2020/01/31 00:42:06.1	274.220	0.310	-0.110	2.030
2020/01/31 00:42:06.2	274.230	0.310	-0.100	2.090
2020/01/31 00:42:06.3	274.240	0.310	-0.080	2.150
2020/01/31 00:42:06.4	274.240	0.320	-0.070	2.200
2020/01/31 00:42:06.5	274.250	0.320	-0.060	2.250
2020/01/31 00:42:06.6	274.260	0.320	-0.050	2.290
2020/01/31 00:42:06.7	274.270	0.320	-0.030	2.330
2020/01/31 00:42:06.8	274.280	0.320	-0.020	2.370
2020/01/31 00:42:06.9	274.310	0.310	-0.010	2.400
2020/01/31 00:42:07.0	274.320	0.310	-0.000	2.430
2020/01/31 00:42:07.1	274.340	0.310	0.010	2.450
2020/01/31 00:42:07.2	274.350	0.300	0.020	2.470
2020/01/31 00:42:07.3	274.370	0.300	0.030	2.480
2020/01/31 00:42:07.4	274.390	0.290	0.030	2.480
2020/01/31 00:42:07.5	274.420	0.290	0.040	2.490
2020/01/31 00:42:07.6	274.440	0.280	0.040	2.480
2020/01/31 00:42:07.7	274.470	0.280	0.050	2.480
2020/01/31 00:42:07.8	274.500	0.270	0.050	2.460
2020/01/31 00:42:07.9	274.530	0.260	0.040	2.440
2020/01/31 00:42:08.0	274.570	0.260	0.040	2.420
2020/01/31 00:42:08.1	274.610	0.250	0.040	2.390
2020/01/31 00:42:08.2	274.660	0.250	0.030	2.360
2020/01/31 00:42:08.3	274.710	0.240	0.020	2.320
2020/01/31 00:42:08.4	274.770	0.240	0.020	2.280
2020/01/31 00:42:08.5	274.820	0.240	0.000	2.240
2020/01/31 00:42:08.6	274.890	0.230	-0.010	2.190
2020/01/31 00:42:08.7	274.960	0.230	-0.020	2.130
2020/01/31 00:42:08.8	275.030	0.230	-0.040	2.070
2020/01/31 00:42:08.9	275.110	0.230	-0.060	2.010
2020/01/31 00:42:09.0	275.190	0.230	-0.070	1.940
2020/01/31 00:42:09.1	275.280	0.230	-0.090	1.880
2020/01/31 00:42:09.2	275.370	0.230	-0.110	1.800
2020/01/31 00:42:09.3	275.470	0.230	-0.130	1.730
2020/01/31 00:42:09.4	275.570	0.230	-0.150	1.650
2020/01/31 00:42:09.5	275.670	0.230	-0.170	1.570
2020/01/31 00:42:09.6	275.780	0.240	-0.190	1.490
2020/01/31 00:42:09.7	275.890	0.240	-0.210	1.410
2020/01/31 00:42:09.8	276.010	0.240	-0.240	1.320
2020/01/31 00:42:09.9	276.120	0.250	-0.260	1.240
2020/01/31 00:42:10.0	276.240	0.250	-0.280	1.160
2020/01/31 00:42:10.1	276.370	0.250	-0.300	1.070
2020/01/31 00:42:10.2	276.490	0.260	-0.320	0.990
2020/01/31 00:42:10.3	276.630	0.260	-0.340	0.910
2020/01/31 00:42:10.4	276.760	0.260	-0.360	0.820
2020/01/31 00:42:10.5	276.890	0.260	-0.390	0.740
2020/01/31 00:42:10.6	277.030	0.260	-0.410	0.660
2020/01/31 00:42:10.7	277.170	0.260	-0.420	0.580
2020/01/31 00:42:10.8	277.310	0.260	-0.440	0.510
2020/01/31 00:42:10.9	277.450	0.260	-0.460	0.420
2020/01/31 00:42:11.0	277.590	0.260	-0.480	0.350
2020/01/31 00:42:11.1	277.730	0.260	-0.490	0.280
2020/01/31 00:42:11.2	277.880	0.260	-0.510	0.210
2020/01/31 00:42:11.3	278.030	0.250	-0.520	0.150
2020/01/31 00:42:11.4	278.170	0.250	-0.530	0.090
2020/01/31 00:42:11.5	278.320	0.240	-0.540	0.030
2020/01/31 00:42:11.6	278.460	0.240	-0.540	-0.020
2020/01/31 00:42:11.7	278.610	0.230	-0.550	-0.080
2020/01/31 00:42:11.8	278.750	0.220	-0.550	-0.120
2020/01/31 00:42:11.9	278.880	0.210	-0.560	-0.170
2020/01/31 00:42:12.0	279.020	0.200	-0.560	-0.210
2020/01/31 00:42:12.1	279.160	0.190	-0.560	-0.250
2020/01/31 00:42:12.2	279.310	0.180	-0.560	-0.280
2020/01/31 00:42:12.3	279.450	0.160	-0.550	-0.320
2020/01/31 00:42:12.4	279.590	0.150	-0.550	-0.340
2020/01/31 00:42:12.5	279.730	0.130	-0.540	-0.370
2020/01/31 00:42:12.6	279.870	0.120	-0.530	-0.400
2020/01/31 00:42:12.7	280.000	0.100	-0.520	-0.420
2020/01/31 00:42:12.8	280.140	0.080	-0.520	-0.440
2020/01/31 00:42:12.9	280.260	0.060	-0.510	-0.460
2020/01/31 00:42:13.0	280.400	0.050	-0.500	-0.480
2020/01/31 00:42:13.1	280.540	0.030	-0.480	-0.490
2020/01/31 00:42:13.2	280.670	0.010	-0.470	-0.510
2020/01/31 00:42:13.3	280.800	-0.020	-0.460	-0.520
2020/01/31 00:42:13.4	280.940	-0.040	-0.450	-0.530
2020/01/31 00:42:13.5	281.070	-0.060	-0.430	-0.550
2020/01/31 00:42:13.6	281.200	-0.080	-0.420	-0.560
2020/01/31 00:42:13.7	281.330	-0.100	-0.410	-0.560
2020/01/31 00:42:13.8	281.460	-0.130	-0.390	-0.570
2020/01/31 00:42:13.9	281.590	-0.150	-0.380	-0.580
2020/01/31 00:42:14.0	281.720	-0.170	-0.370	-0.580
2020/01/31 00:42:14.1	281.840	-0.200	-0.350	-0.590
2020/01/31 00:42:14.2	281.970	-0.220	-0.340	-0.590
2020/01/31 00:42:14.3	282.090	-0.240	-0.330	-0.590
2020/01/31 00:42:14.4	282.210	-0.260	-0.310	-0.590
2020/01/31 00:42:14.5	282.330	-0.290	-0.300	-0.590
2020/01/31 00:42:14.6	282.450	-0.310	-0.280	-0.590
2020/01/31 00:42:14.7	282.570	-0.330	-0.270	-0.590
2020/01/31 00:42:14.8	282.690	-0.350	-0.260	-0.580
2020/01/31 00:42:14.9	282.790	-0.370	-0.250	-0.580
2020/01/31 00:42:15.0	282.900	-0.390	-0.230	-0.570
2020/01/31 00:42:15.1	283.020	-0.410	-0.220	-0.570
2020/01/31 00:42:15.2	283.130	-0.420	-0.200	-0.560
2020/01/31 00:42:15.3	283.240	-0.440	-0.190	-0.550
2020/01/31 00:42:15.4	283.360	-0.460	-0.170	-0.540
2020/01/31 00:42:15.5	283.470	-0.470	-0.150	-0.530
2020/01/31 00:42:15.6	283.580	-0.480	-0.140	-0.520
2020/01/31 00:42:15.7	283.690	-0.500	-0.120	-0.510
2020/01/31 00:42:15.8	283.800	-0.510	-0.100	-0.500
2020/01/31 00:42:15.9	283.920	-0.520	-0.080	-0.490
2020/01/31 00:42:16.0	284.030	-0.530	-0.060	-0.480
2020/01/31 00:42:16.1	284.140	-0.530	-0.040	-0.470
2020/01/31 00:42:16.2	284.250	-0.540	-0.020	-0.460
2020/01/31 00:42:16.3	284.350	-0.550	-0.000	-0.440
2020/01/31 00:42:16.4	284.460	-0.550	0.020	-0.430
2020/01/31 00:42:16.5	284.570	-0.550	0.040	-0.420
2020/01/31 00:42:16.6	284.680	-0.550	0.060	-0.400
2020/01/31 00:42:16.7	284.790	-0.550	0.080	-0.390
2020/01/31 00:42:16.8	284.900	-0.550	0.100	-0.380
2020/01/31 00:42:16.9	285.010	-0.550	0.120	-0.360
2020/01/31 00:42:17.0	285.120	-0.540	0.140	-0.350
2020/01/31 00:42:17.1	285.230	-0.540	0.160	-0.330
2020/01/31 00:42:17.2	285.340	-0.530	0.180	-0.320
2020/01/31 00:42:17.3	285.450	-0.520	0.210	-0.310
2020/01/31 00:42:17.4	285.570	-0.510	0.230	-0.300
2020/01/31 00:42:17.5	285.680	-0.500	0.250	-0.290
2020/01/31 00:42:17.6	285.800	-0.490	0.260	-0.280
2020/01/31 00:42:17.7	285.920	-0.480	0.280	-0.270
2020/01/31 00:42:17.8	286.040	-0.460	0.300	-0.270
2020/01/31 00:42:17.9	286.150	-0.450	0.310	-0.260
2020/01/31 00:42:18.0	286.270	-0.430	0.320	-0.260
2020/01/31 00:42:18.1	286.390	-0.410	0.330	-0.250
2020/01/31 00:42:18.2	286.520	-0.390	0.330	-0.250
2020/01/31 00:42:18.3	286.650	-0.370	0.340	-0.250
2020/01/31 00:42:18.4	286.780	-0.340	0.340	-0.250
2020/01/31 00:42:18.5	286.910	-0.320	0.330	-0.250
2020/01/31 00:42:18.6	287.050	-0.290	0.330	-0.250
2020/01/31 00:42:18.7	287.180	-0.260	0.320	-0.250
2020/01/31 00:42:18.8	287.320	-0.240	0.300	-0.250
2020/01/31 00:42:18.9	287.470	-0.210	0.280	-0.260
2020/01/31 00:42:19.0	287.610	-0.180	0.260	-0.270
2020/01/31 00:42:19.1	287.760	-0.150	0.240	-0.270
2020/01/31 00:42:19.2	287.900	-0.120	0.210	-0.280
2020/01/31 00:42:19.3	288.050	-0.080	0.170	-0.290
2020/01/31 00:42:19.4	288.200	-0.050	0.140	-0.300
2020/01/31 00:42:19.5	288.350	-0.020	0.100	-0.310
2020/01/31 00:42:19.6	288.510	0.010	0.060	-0.320
2020/01/31 00:42:19.7	288.660	0.050	0.010	-0.340
2020/01/31 00:42:19.8	288.820	0.080	-0.040	-0.350
2020/01/31 00:42:19.9	288.980	0.110	-0.090	-0.370
2020/01/31 00:42:20.0	289.140	0.150	-0.140	-0.390
2020/01/31 00:42:20.1	289.300	0.180	-0.190	-0.410
2020/01/31 00:42:20.2	289.470	0.210	-0.240	-0.430
2020/01/31 00:42:20.3	289.630	0.240	-0.300	-0.450
2020/01/31 00:42:20.4	289.800	0.270	-0.350	-0.470
2020/01/31 00:42:20.5	289.970	0.300	-0.400	-0.490
2020/01/31 00:42:20.6	290.130	0.320	-0.450	-0.520
2020/01/31 00:42:20.7	290.300	0.350	-0.500	-0.540
2020/01/31 00:42:20.8	290.470	0.370	-0.550	-0.560
2020/01/31 00:42:20.9	290.620	0.390	-0.590	-0.590
2020/01/31 00:42:21.0	290.780	0.410	-0.630	-0.610
2020/01/31 00:42:21.1	290.950	0.430	-0.670	-0.630
2020/01/31 00:42:21.2	291.110	0.440	-0.710	-0.650
2020/01/31 00:42:21.3	291.280	0.450	-0.740	-0.670
2020/01/31 00:42:21.4	291.440	0.460	-0.760	-0.690
2020/01/31 00:42:21.5	291.600	0.470	-0.780	-0.710
2020/01/31 00:42:21.6	291.760	0.470	-0.800	-0.730
2020/01/31 00:42:21.7	291.920	0.480	-0.810	-0.740
2020/01/31 00:42:21.8	292.080	0.470	-0.820	-0.750
2020/01/31 00:42:21.9	292.240	0.470	-0.820	-0.770
2020/01/31 00:42:22.0	292.400	0.460	-0.820	-0.780
2020/01/31 00:42:22.1	292.550	0.450	-0.810	-0.790
2020/01/31 00:42:22.2	292.710	0.440	-0.800	-0.800
2020/01/31 00:42:22.3	292.860	0.430	-0.780	-0.810
2020/01/31 00:42:22.4	293.010	0.410	-0.760	-0.820
2020/01/31 00:42:22.5	293.160	0.390	-0.730	-0.820
2020/01/31 00:42:22.6	293.310	0.370	-0.700	-0.830
2020/01/31 00:42:22.7	293.460	0.340	-0.670	-0.830
2020/01/31 00:42:22.8	293.610	0.320	-0.640	-0.830
2020/01/31 00:42:22.9	293.760	0.290	-0.600	-0.830
2020/01/31 00:42:23.0	293.900	0.260	-0.560	-0.830
2020/01/31 00:42:23.1	294.050	0.230	-0.520	-0.830
2020/01/31 00:42:23.2	294.190	0.200	-0.480	-0.830
2020/01/31 00:42:23.3	294.330	0.170	-0.430	-0.830
2020/01/31 00:42:23.4	294.470	0.130	-0.390	-0.830
2020/01/31 00:42:23.5	294.610	0.100	-0.350	-0.830
2020/01/31 00:42:23.6	294.750	0.060	-0.310	-0.830
2020/01/31 00:42:23.7	294.890	0.030	-0.270	-0.830
2020/01/31 00:42:23.8	295.030	-0.000	-0.230	-0.830
2020/01/31 00:42:23.9	295.160	-0.040	-0.190	-0.830
2020/01/31 00:42:24.0	295.290	-0.070	-0.160	-0.830
2020/01/31 00:42:24.1	295.430	-0.100	-0.130	-0.830
2020/01/31 00:42:24.2	295.570	-0.130	-0.100	-0.840
2020/01/31 00:42:24.3	295.700	-0.160	-0.070	-0.840
2020/01/31 00:42:24.4	295.840	-0.180	-0.050	-0.840
2020/01/31 00:42:24.5	295.980	-0.210	-0.030	-0.850
2020/01/31 00:42:24.6	296.110	-0.230	-0.010	-0.860
2020/01/31 00:42:24.7	296.250	-0.260	0.000	-0.860
2020/01/31 00:42:24.8	296.390	-0.280	0.010	-0.880
2020/01/31 00:42:24.9	296.500	-0.290	0.020	-0.890
2020/01/31 00:42:25.0	296.640	-0.310	0.030	-0.900
2020/01/31 00:42:25.1	296.780	-0.320	0.030	-0.920
2020/01/31 00:42:25.2	296.920	-0.340	0.030	-0.930
2020/01/31 00:42:25.3	297.060	-0.350	0.020	-0.950
2020/01/31 00:42:25.4	297.200	-0.350	0.020	-0.970
2020/01/31 00:42:25.5	297.340	-0.360	0.010	-0.990
2020/01/31 00:42:25.6	297.490	-0.360	0.000	-1.010
2020/01/31 00:42:25.7	297.630	-0.360	-0.010	-1.040
2020/01/31 00:42:25.8	297.770	-0.360	-0.020	-1.060
2020/01/31 00:42:25.9	297.900	-0.360	-0.040	-1.090
2020/01/31 00:42:26.0	298.050	-0.360	-0.050	-1.110
2020/01/31 00:42:26.1	298.190	-0.350	-0.070	-1.140
2020/01/31 00:42:26.2	298.340	-0.350	-0.090	-1.160
2020/01/31 00:42:26.3	298.480	-0.340	-0.100	-1.180
2020/01/31 00:42:26.4	298.630	-0.330	-0.120	-1.200
2020/01/31 00:42:26.5	298.770	-0.320	-0.140	-1.230
2020/01/31 00:42:26.6	298.920	-0.310	-0.150	-1.250
2020/01/31 00:42:26.7	299.060	-0.300	-0.170	-1.270
2020/01/31 00:42:26.8	299.210	-0.280	-0.180	-1.290
2020/01/31 00:42:26.9	299.350	-0.270	-0.190	-1.300
2020/01/31 00:42:27.0	299.500	-0.260	-0.200	-1.320
2020/01/31 00:42:27.1	299.650	-0.240	-0.210	-1.340
2020/01/31 00:42:27.2	299.790	-0.230	-0.220	-1.360
2020/01/31 00:42:27.3	299.940	-0.220	-0.220	-1.370
2020/01/31 00:42:27.4	300.090	-0.200	-0.220	-1.390
2020/01/31 00:42:27.5	300.230	-0.190	-0.220	-1.410
2020/01/31 00:42:27.6	300.380	-0.170	-0.220	-1.420
2020/01/31 00:42:27.7	300.520	-0.160	-0.220	-1.430
2020/01/31 00:42:27.8	300.670	-0.150	-0.210	-1.450
2020/01/31 00:42:27.9	300.810	-0.140	-0.200	-1.460
2020/01/31 00:42:28.0	300.950	-0.120	-0.180	-1.470
2020/01/31 00:42:28.1	301.100	-0.110	-0.170	-1.480
2020/01/31 00:42:28.2	301.240	-0.100	-0.150	-1.490
2020/01/31 00:42:28.3	301.390	-0.090	-0.130	-1.500
2020/01/31 00:42:28.4	301.530	-0.080	-0.110	-1.510
2020/01/31 00:42:28.5	301.670	-0.070	-0.090	-1.510
2020/01/31 00:42:28.6	301.820	-0.060	-0.060	-1.520
2020/01/31 00:42:28.7	301.960	-0.050	-0.040	-1.530
2020/01/31 00:42:28.8	302.110	-0.040	-0.010	-1.530
2020/01/31 00:42:28.9	302.240	-0.030	0.020	-1.540
2020/01/31 00:42:29.0	302.380	-0.020	0.040	-1.550
2020/01/31 00:42:29.1	302.530	-0.010	0.070	-1.550
2020/01/31 00:42:29.2	302.680	-0.000	0.100	-1.560
2020/01/31 00:42:29.3	302.830	0.010	0.130	-1.560
2020/01/31 00:42:29.4	302.980	0.020	0.160	-1.560
2020/01/31 00:42:29.5	303.130	0.030	0.190	-1.570
2020/01/31 00:42:29.6	303.290	0.040	0.220	-1.570
2020/01/31 00:42:29.7	303.440	0.050	0.240	-1.570
2020/01/31 00:42:29.8	303.600	0.060	0.270	-1.570
2020/01/31 00:42:29.9	303.720	0.070	0.290	-1.570
2020/01/31 00:42:30.0	303.880	0.080	0.310	-1.570
2020/01/31 00:42:30.1	304.030	0.100	0.330	-1.560
2020/01/31 00:42:30.2	304.190	0.110	0.350	-1.560
2020/01/31 00:42:30.3	304.350	0.120	0.370	-1.550
2020/01/31 00:42:30.4	304.510	0.140	0.390	-1.540
2020/01/31 00:42:30.5	304.660	0.150	0.400	-1.530
2020/01/31 00:42:30.6	304.820	0.160	0.410	-1.510
2020/01/31 00:42:30.7	304.980	0.180	0.420	-1.490
2020/01/31 00:42:30.8	305.140	0.190	0.420	-1.470
2020/01/31 00:42:30.9	305.290	0.210	0.420	-1.460
2020/01/31 00:42:31.0	305.440	0.220	0.420	-1.430
2020/01/31 00:42:31.1	305.600	0.230	0.420	-1.400
2020/01/31 00:42:31.2	305.750	0.250	0.420	-1.370
2020/01/31 00:42:31.3	305.900	0.260	0.410	-1.340
2020/01/31 00:42:31.4	306.050	0.270	0.400	-1.310
2020/01/31 00:42:31.5	306.210	0.290	0.390	-1.270
2020/01/31 00:42:31.6	306.350	0.300	0.370	-1.240
2020/01/31 00:42:31.7	306.500	0.310	0.350	-1.200
2020/01/31 00:42:31.8	306.650	0.320	0.330	-1.160
2020/01/31 00:42:31.9	306.790	0.320	0.310	-1.110
2020/01/31 00:42:32.0	306.940	0.330	0.280	-1.070
2020/01/31 00:42:32.1	307.080	0.340	0.260	-1.040
2020/01/31 00:42:32.2	307.220	0.340	0.230	-1.000
2020/01/31 00:42:32.3	307.360	0.350	0.200	-0.960
2020/01/31 00:42:32.4	307.500	0.350	0.170	-0.920
2020/01/31 00:42:32.5	307.630	0.350	0.140	-0.880
2020/01/31 00:42:32.6	307.770	0.350	0.100	-0.850
2020/01/31 00:42:32.7	307.910	0.350	0.070	-0.820
2020/01/31 00:42:32.8	308.040	0.350	0.030	-0.790
2020/01/31 00:42:32.9	308.180	0.340	-0.000	-0.760
2020/01/31 00:42:33.0	308.320	0.340	-0.040	-0.740
2020/01/31 00:42:33.1	308.450	0.330	-0.080	-0.710
2020/01/31 00:42:33.2	308.580	0.320	-0.120	-0.690
2020/01/31 00:42:33.3	308.710	0.310	-0.150	-0.670
2020/01/31 00:42:33.4	308.840	0.300	-0.190	-0.660
2020/01/31 00:42:33.5	308.970	0.290	-0.230	-0.640
2020/01/31 00:42:33.6	309.100	0.280	-0.270	-0.630
2020/01/31 00:42:33.7	309.230	0.270	-0.310	-0.620
2020/01/31 00:42:33.8	309.360	0.260	-0.350	-0.620
2020/01/31 00:42:33.9	309.500	0.240	-0.390	-0.620
2020/01/31 00:42:34.0	309.630	0.230	-0.420	-0.620
2020/01/31 00:42:34.1	309.760	0.220	-0.460	-0.620
2020/01/31 00:42:34.2	309.890	0.200	-0.500	-0.620
2020/01/31 00:42:34.3	310.020	0.180	-0.530	-0.630
2020/01/31 00:42:34.4	310.150	0.170	-0.560	-0.640
2020/01/31 00:42:34.5	310.280	0.150	-0.600	-0.650
2020/01/31 00:42:34.6	310.410	0.130	-0.630	-0.660
2020/01/31 00:42:34.7	310.540	0.110	-0.660	-0.680
2020/01/31 00:42:34.8	310.670	0.100	-0.690	-0.690
2020/01/31 00:42:34.9	310.790	0.080	-0.720	-0.720
2020/01/31 00:42:35.0	310.920	0.060	-0.740	-0.740
2020/01/31 00:42:35.1	311.060	0.040	-0.760	-0.760
2020/01/31 00:42:35.2	311.190	0.020	-0.790	-0.790
2020/01/31 00:42:35.3	311.320	-0.000	-0.810	-0.820
2020/01/31 00:42:35.4	311.460	-0.020	-0.820	-0.850
2020/01/31 00:42:35.5	311.600	-0.040	-0.840	-0.880
2020/01/31 00:42:35.6	311.730	-0.060	-0.850	-0.910
2020/01/31 00:42:35.7	311.870	-0.080	-0.860	-0.950
2020/01/31 00:42:35.8	312.010	-0.100	-0.870	-0.990
2020/01/31 00:42:35.9	312.160	-0.120	-0.880	-1.030
2020/01/31 00:42:36.0	312.300	-0.140	-0.890	-1.070
2020/01/31 00:42:36.1	312.450	-0.160	-0.890	-1.110
2020/01/31 00:42:36.2	312.600	-0.180	-0.890	-1.150
2020/01/31 00:42:36.3	312.740	-0.200	-0.880	-1.190
2020/01/31 00:42:36.4	312.890	-0.210	-0.880	-1.240
2020/01/31 00:42:36.5	313.040	-0.230	-0.870	-1.280
2020/01/31 00:42:36.6	313.190	-0.250	-0.860	-1.330
2020/01/31 00:42:36.7	313.340	-0.270	-0.850	-1.370
2020/01/31 00:42:36.8	313.500	-0.290	-0.830	-1.410
2020/01/31 00:42:36.9	313.650	-0.310	-0.810	-1.460
2020/01/31 00:42:37.0	313.810	-0.330	-0.790	-1.500
2020/01/31 00:42:37.1	313.960	-0.340	-0.770	-1.540
2020/01/31 00:42:37.2	314.110	-0.360	-0.740	-1.580
2020/01/31 00:42:37.3	314.270	-0.380	-0.720	-1.620
2020/01/31 00:42:37.4	314.420	-0.400	-0.690	-1.660
2020/01/31 00:42:37.5	314.570	-0.410	-0.660	-1.700
2020/01/31 00:42:37.6	314.730	-0.430	-0.630	-1.730
2020/01/31 00:42:37.7	314.880	-0.440	-0.590	-1.760
2020/01/31 00:42:37.8	315.040	-0.460	-0.550	-1.800
2020/01/31 00:42:37.9	315.200	-0.470	-0.520	-1.830
2020/01/31 00:42:38.0	315.360	-0.490	-0.480	-1.860
2020/01/31 00:42:38.1	315.510	-0.500	-0.440	-1.880
2020/01/31 00:42:38.2	315.660	-0.510	-0.400	-1.900
2020/01/31 00:42:38.3	315.810	-0.520	-0.350	-1.920
2020/01/31 00:42:38.4	315.970	-0.540	-0.310	-1.940
2020/01/31 00:42:38.5	316.120	-0.550	-0.260	-1.960
2020/01/31 00:42:38.6	316.270	-0.550	-0.220	-1.970
2020/01/31 00:42:38.7	316.420	-0.560	-0.170	-1.980
2020/01/31 00:42:38.8	316.560	-0.570	-0.130	-1.990
2020/01/31 00:42:38.9	316.700	-0.580	-0.080	-1.990
2020/01/31 00:42:39.0	316.850	-0.580	-0.030	-1.990
2020/01/31 00:42:39.1	316.990	-0.590	0.010	-1.990
2020/01/31 00:42:39.2	317.140	-0.590	0.060	-1.990
2020/01/31 00:42:39.3	317.280	-0.590	0.110	-1.980
2020/01/31 00:42:39.4	317.420	-0.590	0.150	-1.970
2020/01/31 00:42:39.5	317.550	-0.590	0.190	-1.960
2020/01/31 00:42:39.6	317.690	-0.580	0.240	-1.940
2020/01/31 00:42:39.7	317.820	-0.580	0.280	-1.930
2020/01/31 00:42:39.8	317.960	-0.570	0.320	-1.910
2020/01/31 00:42:39.9	318.110	-0.560	0.360	-1.890
2020/01/31 00:42:40.0	318.230	-0.550	0.390	-1.860
2020/01/31 00:42:40.1	318.360	-0.540	0.430	-1.840
2020/01/31 00:42:40.2	318.490	-0.530	0.460	-1.810
2020/01/31 00:42:40.3	318.610	-0.510	0.490	-1.780
2020/01/31 00:42:40.4	318.730	-0.490	0.520	-1.740
2020/01/31 00:42:40.5	318.850	-0.470	0.540	-1.710
2020/01/31 00:42:40.6	318.970	-0.450	0.570	-1.670
2020/01/31 00:42:40.7	319.090	-0.420	0.590	-1.620
2020/01/31 00:42:40.8	319.210	-0.400	0.610	-1.580
2020/01/31 00:42:40.9	319.310	-0.370	0.630	-1.540
2020/01/31 00:42:41.0	319.420	-0.330	0.640	-1.490
2020/01/31 00:42:41.1	319.530	-0.300	0.660	-1.430
2020/01/31 00:42:41.2	319.640	-0.260	0.660	-1.380
2020/01/31 00:42:41.3	319.750	-0.230	0.670	-1.320
2020/01/31 00:42:41.4	319.850	-0.190	0.680	-1.270
2020/01/31 00:42:41.5	319.950	-0.140	0.680	-1.210
2020/01/31 00:42:41.6	320.060	-0.100	0.670	-1.140
2020/01/31 00:42:41.7	320.160	-0.060	0.670	-1.080
2020/01/31 00:42:41.8	320.260	-0.010	0.660	-1.020
2020/01/31 00:42:41.9	320.360	0.040	0.650	-0.950
2020/01/31 00:42:42.0	320.460	0.080	0.630	-0.890
2020/01/31 00:42:42.1	320.560	0.130	0.610	-0.820
2020/01/31 00:42:42.2	320.660	0.180	0.590	-0.750
2020/01/31 00:42:42.3	320.750	0.230	0.560	-0.690
2020/01/31 00:42:42.4	320.850	0.280	0.530	-0.620
2020/01/31 00:42:42.5	320.950	0.330	0.500	-0.560
2020/01/31 00:42:42.6	321.050	0.380	0.460	-0.490
2020/01/31 00:42:42.7	321.150	0.430	0.410	-0.430
2020/01/31 00:42:42.8	321.250	0.470	0.370	-0.370
2020/01/31 00:42:42.9	321.350	0.520	0.310	-0.320
2020/01/31 00:42:43.0	321.450	0.570	0.260	-0.260
2020/01/31 00:42:43.1	321.560	0.610	0.200	-0.210
2020/01/31 00:42:43.2	321.670	0.650	0.150	-0.170
2020/01/31 00:42:43.3	321.780	0.690	0.080	-0.130
2020/01/31 00:42:43.4	321.900	0.730	0.020	-0.090
2020/01/31 00:42:43.5	322.010	0.760	-0.050	-0.060
2020/01/31 00:42:43.6	322.140	0.790	-0.120	-0.030
2020/01/31 00:42:43.7	322.260	0.820	-0.190	-0.010
2020/01/31 00:42:43.8	322.390	0.850	-0.260	0.000
2020/01/31 00:42:43.9	322.560	0.870	-0.330	0.010
2020/01/31 00:42:44.0	322.690	0.890	-0.400	0.010
2020/01/31 00:42:44.1	322.830	0.910	-0.470	0.010
2020/01/31 00:42:44.2	322.980	0.920	-0.540	-0.000
2020/01/31 00:42:44.3	323.130	0.930	-0.600	-0.010
2020/01/31 00:42:44.4	323.280	0.930	-0.670	-0.030
2020/01/31 00:42:44.5	323.430	0.930	-0.730	-0.060
2020/01/31 00:42:44.6	323.590	0.930	-0.780	-0.090
2020/01/31 00:42:44.7	323.760	0.930	-0.830	-0.120
2020/01/31 00:42:44.8	323.920	0.920	-0.880	-0.160
2020/01/31 00:42:44.9	324.090	0.910	-0.930	-0.200
2020/01/31 00:42:45.0	324.260	0.890	-0.960	-0.250
2020/01/31 00:42:45.1	324.430	0.870	-0.990	-0.290
2020/01/31 00:42:45.2	324.600	0.850	-1.020	-0.340
2020/01/31 00:42:45.3	324.770	0.820	-1.040	-0.390
2020/01/31 00:42:45.4	324.930	0.800	-1.050	-0.440
2020/01/31 00:42:45.5	325.100	0.770	-1.050	-0.490
2020/01/31 00:42:45.6	325.270	0.730	-1.050	-0.540
2020/01/31 00:42:45.7	325.430	0.700	-1.040	-0.600
2020/01/31 00:42:45.8	325.590	0.660	-1.020	-0.650
2020/01/31 00:42:45.9	325.730	0.620	-1.000	-0.700
2020/01/31 00:42:46.0	325.890	0.580	-0.970	-0.750
2020/01/31 00:42:46.1	326.040	0.540	-0.940	-0.790
2020/01/31 00:42:46.2	326.190	0.500	-0.900	-0.840
2020/01/31 00:42:46.3	326.340	0.450	-0.850	-0.880
2020/01/31 00:42:46.4	326.480	0.410	-0.800	-0.920
2020/01/31 00:42:46.5	326.620	0.370	-0.740	-0.950
2020/01/31 00:42:46.6	326.750	0.320	-0.680	-0.990
2020/01/31 00:42:46.7	326.880	0.280	-0.620	-1.020
2020/01/31 00:42:46.8	327.010	0.240	-0.550	-1.050
2020/01/31 00:42:46.9	327.130	0.190	-0.490	-1.080
2020/01/31 00:42:47.0	327.250	0.150	-0.420	-1.100
2020/01/31 00:42:47.1	327.370	0.110	-0.350	-1.120
2020/01/31 00:42:47.2	327.490	0.070	-0.280	-1.140
2020/01/31 00:42:47.3	327.600	0.040	-0.210	-1.150
2020/01/31 00:42:47.4	327.710	0.000	-0.140	-1.160
2020/01/31 00:42:47.5	327.820	-0.030	-0.070	-1.170
2020/01/31 00:42:47.6	327.930	-0.060	-0.000	-1.180
2020/01/31 00:42:47.7	328.030	-0.090	0.060	-1.180
2020/01/31 00:42:47.8	328.140	-0.120	0.110	-1.180
2020/01/31 00:42:47.9	328.230	-0.140	0.170	-1.180
2020/01/31 00:42:48.0	328.330	-0.170	0.220	-1.180
2020/01/31 00:42:48.1	328.430	-0.190	0.260	-1.180
2020/01/31 00:42:48.2	328.530	-0.200	0.300	-1.180
2020/01/31 00:42:48.3	328.620	-0.220	0.330	-1.180
2020/01/31 00:42:48.4	328.720	-0.230	0.360	-1.170
2020/01/31 00:42:48.5	328.820	-0.240	0.390	-1.170
2020/01/31 00:42:48.6	328.910	-0.250	0.400	-1.170
2020/01/31 00:42:48.7	329.010	-0.250	0.420	-1.160
2020/01/31 00:42:48.8	329.110	-0.260	0.420	-1.160
2020/01/31 00:42:48.9	329.210	-0.260	0.420	-1.170
2020/01/31 00:42:49.0	329.310	-0.260	0.420	-1.170
2020/01/31 00:42:49.1	329.410	-0.250	0.410	-1.170
2020/01/31 00:42:49.2	329.510	-0.250	0.400	-1.170
2020/01/31 00:42:49.3	329.620	-0.240	0.380	-1.180
2020/01/31 00:42:49.4	329.720	-0.240	0.370	-1.180
2020/01/31 00:42:49.5	329.820	-0.230	0.340	-1.190
2020/01/31 00:42:49.6	329.930	-0.230	0.320	-1.200
2020/01/31 00:42:49.7	330.040	-0.220	0.290	-1.210
2020/01/31 00:42:49.8	330.140	-0.210	0.260	-1.220
2020/01/31 00:42:49.9	330.270	-0.200	0.230	-1.230
2020/01/31 00:42:50.0	330.390	-0.200	0.200	-1.240
2020/01/31 00:42:50.1	330.500	-0.190	0.170	-1.260
2020/01/31 00:42:50.2	330.610	-0.190	0.140	-1.270
2020/01/31 00:42:50.3	330.720	-0.180	0.110	-1.290
2020/01/31 00:42:50.4	330.840	-0.180	0.080	-1.300
2020/01/31 00:42:50.5	330.950	-0.180	0.050	-1.320
2020/01/31 00:42:50.6	331.070	-0.180	0.020	-1.340
2020/01/31 00:42:50.7	331.190	-0.180	-0.000	-1.360
2020/01/31 00:42:50.8	331.310	-0.180	-0.020	-1.370
2020/01/31 00:42:50.9	331.420	-0.180	-0.040	-1.400
2020/01/31 00:42:51.0	331.540	-0.190	-0.060	-1.410
2020/01/31 00:42:51.1	331.660	-0.190	-0.080	-1.430
2020/01/31 00:42:51.2	331.780	-0.200	-0.090	-1.440
2020/01/31 00:42:51.3	331.900	-0.210	-0.100	-1.460
2020/01/31 00:42:51.4	332.020	-0.220	-0.100	-1.470
2020/01/31 00:42:51.5	332.140	-0.230	-0.100	-1.480
2020/01/31 00:42:51.6	332.260	-0.250	-0.100	-1.490
2020/01/31 00:42:51.7	332.380	-0.260	-0.100	-1.500
2020/01/31 00:42:51.8	332.500	-0.280	-0.090	-1.500
2020/01/31 00:42:51.9	332.620	-0.290	-0.090	-1.500
2020/01/31 00:42:52.0	332.740	-0.310	-0.080	-1.500
2020/01/31 00:42:52.1	332.860	-0.320	-0.070	-1.500
2020/01/31 00:42:52.2	332.970	-0.340	-0.050	-1.500
2020/01/31 00:42:52.3	333.090	-0.350	-0.040	-1.490
2020/01/31 00:42:52.4	333.210	-0.370	-0.020	-1.480
2020/01/31 00:42:52.5	333.320	-0.380	-0.000	-1.460
2020/01/31 00:42:52.6	333.440	-0.400	0.010	-1.450
2020/01/31 00:42:52.7	333.550	-0.410	0.030	-1.430
2020/01/31 00:42:52.8	333.670	-0.420	0.050	-1.410
2020/01/31 00:42:52.9	333.760	-0.430	0.070	-1.390
2020/01/31 00:42:53.0	333.880	-0.430	0.080	-1.370
2020/01/31 00:42:53.1	333.990	-0.440	0.100	-1.340
2020/01/31 00:42:53.2	334.110	-0.440	0.110	-1.320
2020/01/31 00:42:53.3	334.220	-0.440	0.120	-1.290
2020/01/31 00:42:53.4	334.340	-0.440	0.130	-1.260
2020/01/31 00:42:53.5	334.460	-0.430	0.130	-1.230
2020/01/31 00:42:53.6	334.570	-0.420	0.140	-1.190
2020/01/31 00:42:53.7	334.690	-0.410	0.140	-1.160
2020/01/31 00:42:53.8	334.810	-0.400	0.130	-1.120
2020/01/31 00:42:53.9	334.920	-0.380	0.120	-1.090
2020/01/31 00:42:54.0	335.040	-0.360	0.110	-1.050
2020/01/31 00:42:54.1	335.160	-0.340	0.100	-1.010
2020/01/31 00:42:54.2	335.270	-0.310	0.080	-0.970
2020/01/31 00:42:54.3	335.390	-0.280	0.060	-0.930
2020/01/31 00:42:54.4	335.510	-0.250	0.040	-0.890
2020/01/31 00:42:54.5	335.630	-0.220	0.020	-0.850
2020/01/31 00:42:54.6	335.750	-0.180	-0.010	-0.800
2020/01/31 00:42:54.7	335.870	-0.150	-0.040	-0.760
2020/01/31 00:42:54.8	335.990	-0.110	-0.070	-0.720
2020/01/31 00:42:54.9	336.060	-0.070	-0.100	-0.680
2020/01/31 00:42:55.0	336.180	-0.030	-0.130	-0.630
2020/01/31 00:42:55.1	336.300	0.020	-0.170	-0.590
2020/01/31 00:42:55.2	336.420	0.060	-0.200	-0.550
2020/01/31 00:42:55.3	336.540	0.100	-0.240	-0.510
2020/01/31 00:42:55.4	336.660	0.150	-0.280	-0.470
2020/01/31 00:42:55.5	336.780	0.190	-0.310	-0.430
2020/01/31 00:42:55.6	336.900	0.230	-0.350	-0.390
2020/01/31 00:42:55.7	337.020	0.270	-0.390	-0.350
2020/01/31 00:42:55.8	337.140	0.320	-0.420	-0.310
2020/01/31 00:42:55.9	337.220	0.360	-0.460	-0.280
2020/01/31 00:42:56.0	337.340	0.390	-0.490	-0.240
2020/01/31 00:42:56.1	337.460	0.430	-0.530	-0.210
2020/01/31 00:42:56.2	337.580	0.470	-0.560	-0.170
2020/01/31 00:42:56.3	337.700	0.500	-0.590	-0.140
2020/01/31 00:42:56.4	337.820	0.530	-0.610	-0.110
2020/01/31 00:42:56.5	337.940	0.550	-0.640	-0.090
2020/01/31 00:42:56.6	338.060	0.580	-0.660	-0.060
2020/01/31 00:42:56.7	338.180	0.600	-0.680	-0.040
2020/01/31 00:42:56.8	338.300	0.620	-0.690	-0.020
2020/01/31 00:42:56.9	338.410	0.630	-0.700	-0.010
2020/01/31 00:42:57.0	338.540	0.640	-0.710	-0.000
2020/01/31 00:42:57.1	338.660	0.650	-0.720	0.000
2020/01/31 00:42:57.2	338.790	0.650	-0.720	0.010
2020/01/31 00:42:57.3	338.910	0.650	-0.720	0.010
2020/01/31 00:42:57.4	339.040	0.650	-0.720	0.000
2020/01/31 00:42:57.5	339.160	0.640	-0.710	-0.010
2020/01/31 00:42:57.6	339.290	0.630	-0.700	-0.020
2020/01/31 00:42:57.7	339.420	0.620	-0.680	-0.040
2020/01/31 00:42:57.8	339.550	0.600	-0.670	-0.060
2020/01/31 00:42:57.9	339.670	0.580	-0.650	-0.080
2020/01/31 00:42:58.0	339.800	0.560	-0.630	-0.110
2020/01/31 00:42:58.1	339.930	0.530	-0.600	-0.140
2020/01/31 00:42:58.2	340.050	0.510	-0.570	-0.160
2020/01/31 00:42:58.3	340.180	0.480	-0.540	-0.200
2020/01/31 00:42:58.4	340.310	0.440	-0.510	-0.230
2020/01/31 00:42:58.5	340.430	0.410	-0.480	-0.260
2020/01/31 00:42:58.6	340.560	0.380	-0.440	-0.290
2020/01/31 00:42:58.7	340.680	0.340	-0.410	-0.330
2020/01/31 00:42:58.8	340.810	0.300	-0.370	-0.360
2020/01/31 00:42:58.9	340.920	0.260	-0.330	-0.400
2020/01/31 00:42:59.0	341.040	0.230	-0.290	-0.430
2020/01/31 00:42:59.1	341.160	0.190	-0.250	-0.460
2020/01/31 00:42:59.2	341.280	0.150	-0.210	-0.490
2020/01/31 00:42:59.3	341.400	0.110	-0.160	-0.520
2020/01/31 00:42:59.4	341.520	0.070	-0.120	-0.550
2020/01/31 00:42:59.5	341.640	0.030	-0.070	-0.580
2020/01/31 00:42:59.6	341.750	-0.010	-0.030	-0.610
2020/01/31 00:42:59.7	341.870	-0.040	0.010	-0.630
2020/01/31 00:42:59.8	341.990	-0.080	0.050	-0.660
2020/01/31 00:42:59.9	342.120	-0.110	0.100	-0.680
2020/01/31 00:43:00.0	342.230	-0.140	0.140	-0.700
2020/01/31 00:43:00.1	342.340	-0.170	0.180	-0.720
2020/01/31 00:43:00.2	342.450	-0.200	0.220	-0.740
2020/01/31 00:43:00.3	342.560	-0.230	0.250	-0.760
2020/01/31 00:43:00.4	342.670	-0.250	0.290	-0.780
2020/01/31 00:43:00.5	342.770	-0.270	0.320	-0.800
2020/01/31 00:43:00.6	342.870	-0.290	0.350	-0.810
2020/01/31 00:43:00.7	342.970	-0.310	0.380	-0.830
2020/01/31 00:43:00.8	343.080	-0.320	0.400	-0.840
2020/01/31 00:43:00.9	343.180	-0.330	0.420	-0.860
2020/01/31 00:43:01.0	343.280	-0.340	0.430	-0.870
2020/01/31 00:43:01.1	343.380	-0.340	0.450	-0.880
2020/01/31 00:43:01.2	343.480	-0.340	0.450	-0.890
2020/01/31 00:43:01.3	343.570	-0.340	0.460	-0.900
2020/01/31 00:43:01.4	343.670	-0.330	0.460	-0.910
2020/01/31 00:43:01.5	343.770	-0.320	0.460	-0.910
2020/01/31 00:43:01.6	343.870	-0.300	0.450	-0.920
2020/01/31 00:43:01.7	343.960	-0.290	0.430	-0.920
2020/01/31 00:43:01.8	344.060	-0.270	0.420	-0.920
2020/01/31 00:43:01.9	344.150	-0.240	0.390	-0.920
2020/01/31 00:43:02.0	344.250	-0.220	0.370	-0.920
2020/01/31 00:43:02.1	344.360	-0.190	0.340	-0.920
2020/01/31 00:43:02.2	344.460	-0.160	0.300	-0.910
2020/01/31 00:43:02.3	344.570	-0.120	0.270	-0.910
2020/01/31 00:43:02.4	344.670	-0.090	0.230	-0.900
2020/01/31 00:43:02.5	344.780	-0.050	0.180	-0.900
2020/01/31 00:43:02.6	344.900	-0.010	0.140	-0.890
2020/01/31 00:43:02.7	345.010	0.030	0.090	-0.880
2020/01/31 00:43:02.8	345.130	0.070	0.040	-0.870
2020/01/31 00:43:02.9	345.250	0.110	-0.010	-0.870
2020/01/31 00:43:03.0	345.370	0.150	-0.060	-0.860
2020/01/31 00:43:03.1	345.490	0.190	-0.110	-0.850
2020/01/31 00:43:03.2	345.620	0.230	-0.160	-0.840
2020/01/31 00:43:03.3	345.750	0.270	-0.210	-0.830
2020/01/31 00:43:03.4	345.870	0.310	-0.260	-0.810
2020/01/31 00:43:03.5	346.000	0.350	-0.300	-0.800
2020/01/31 00:43:03.6	346.130	0.380	-0.340	-0.780
2020/01/31 00:43:03.7	346.250	0.410	-0.380	-0.760
2020/01/31 00:43:03.8	346.380	0.440	-0.420	-0.740
2020/01/31 00:43:03.9	346.500	0.470	-0.450	-0.720
2020/01/31 00:43:04.0	346.620	0.490	-0.480	-0.700
2020/01/31 00:43:04.1	346.740	0.510	-0.500	-0.680
2020/01/31 00:43:04.2	346.860	0.520	-0.520	-0.650
2020/01/31 00:43:04.3	346.980	0.540	-0.530	-0.630
2020/01/31 00:43:04.4	347.100	0.540	-0.540	-0.600
2020/01/31 00:43:04.5	347.220	0.550	-0.550	-0.570
2020/01/31 00:43:04.6	347.340	0.550	-0.550	-0.550
2020/01/31 00:43:04.7	347.460	0.550	-0.540	-0.520
2020/01/31 00:43:04.8	347.570	0.540	-0.530	-0.500
2020/01/31 00:43:04.9	347.680	0.530	-0.520	-0.470
2020/01/31 00:43:05.0	347.800	0.520	-0.510	-0.440
2020/01/31 00:43:05.1	347.910	0.500	-0.490	-0.420
2020/01/31 00:43:05.2	348.020	0.490	-0.460	-0.400
2020/01/31 00:43:05.3	348.140	0.460	-0.440	-0.370
2020/01/31 00:43:05.4	348.250	0.440	-0.410	-0.350
2020/01/31 00:43:05.5	348.360	0.410	-0.370	-0.330
2020/01/31 00:43:05.6	348.480	0.380	-0.340	-0.320
2020/01/31 00:43:05.7	348.590	0.350	-0.300	-0.300
2020/01/31 00:43:05.8	348.700	0.320	-0.260	-0.290
2020/01/31 00:43:05.9	348.800	0.280	-0.220	-0.280
2020/01/31 00:43:06.0	348.910	0.250	-0.180	-0.270
2020/01/31 00:43:06.1	349.020	0.210	-0.140	-0.270
2020/01/31 00:43:06.2	349.130	0.170	-0.100	-0.260
2020/01/31 00:43:06.3	349.240	0.130	-0.050	-0.260
2020/01/31 00:43:06.4	349.350	0.100	-0.010	-0.260
2020/01/31 00:43:06.5	349.450	0.060	0.040	-0.260
2020/01/31 00:43:06.6	349.560	0.020	0.080	-0.270
2020/01/31 00:43:06.7	349.660	-0.020	0.120	-0.280
2020/01/31 00:43:06.8	349.770	-0.050	0.160	-0.280
2020/01/31 00:43:06.9	349.880	-0.090	0.200	-0.300
2020/01/31 00:43:07.0	349.980	-0.120	0.240	-0.310
2020/01/31 00:43:07.1	350.080	-0.150	0.270	-0.320
2020/01/31 00:43:07.2	350.180	-0.180	0.300	-0.340
2020/01/31 00:43:07.3	350.280	-0.210	0.330	-0.360
2020/01/31 00:43:07.4	350.380	-0.240	0.360	-0.370
2020/01/31 00:43:07.5	350.480	-0.270	0.380	-0.390
2020/01/31 00:43:07.6	350.570	-0.290	0.400	-0.410
2020/01/31 00:43:07.7	350.670	-0.310	0.420	-0.430
2020/01/31 00:43:07.8	350.770	-0.330	0.430	-0.450
2020/01/31 00:43:07.9	350.880	-0.340	0.440	-0.480
2020/01/31 00:43:08.0	350.980	-0.350	0.440	-0.500
2020/01/31 00:43:08.1	351.080	-0.370	0.440	-0.530
2020/01/31 00:43:08.2	351.180	-0.370	0.440	-0.550
2020/01/31 00:43:08.3	351.280	-0.380	0.430	-0.580
2020/01/31 00:43:08.4	351.380	-0.380	0.420	-0.600
2020/01/31 00:43:08.5	351.490	-0.390	0.400	-0.630
2020/01/31 00:43:08.6	351.590	-0.390	0.380	-0.660
2020/01/31 00:43:08.7	351.690	-0.380	0.350	-0.680
2020/01/31 00:43:08.8	351.800	-0.380	0.320	-0.710
2020/01/31 00:43:08.9	351.920	-0.370	0.300	-0.740
2020/01/31 00:43:09.0	352.030	-0.370	0.260	-0.760
2020/01/31 00:43:09.1	352.140	-0.360	0.230	-0.790
2020/01/31 00:43:09.2	352.240	-0.350	0.190	-0.810
2020/01/31 00:43:09.3	352.350	-0.340	0.150	-0.830
2020/01/31 00:43:09.4	352.460	-0.330	0.110	-0.850
2020/01/31 00:43:09.5	352.560	-0.310	0.070	-0.870
2020/01/31 00:43:09.6	352.670	-0.300	0.030	-0.880
2020/01/31 00:43:09.7	352.780	-0.290	-0.010	-0.900
2020/01/31 00:43:09.8	352.880	-0.270	-0.050	-0.910
2020/01/31 00:43:09.9	353.000	-0.260	-0.090	-0.920
2020/01/31 00:43:10.0	353.110	-0.250	-0.120	-0.930
2020/01/31 00:43:10.1	353.210	-0.240	-0.160	-0.940
2020/01/31 00:43:10.2	353.320	-0.220	-0.190	-0.950
2020/01/31 00:43:10.3	353.420	-0.210	-0.220	-0.960
2020/01/31 00:43:10.4	353.520	-0.200	-0.240	-0.960
2020/01/31 00:43:10.5	353.630	-0.190	-0.270	-0.970
2020/01/31 00:43:10.6	353.730	-0.180	-0.290	-0.970
2020/01/31 00:43:10.7	353.840	-0.170	-0.310	-0.970
2020/01/31 00:43:10.8	353.950	-0.160	-0.320	-0.970
2020/01/31 00:43:10.9	354.060	-0.150	-0.340	-0.970
2020/01/31 00:43:11.0	354.180	-0.140	-0.350	-0.970
2020/01/31 00:43:11.1	354.290	-0.130	-0.360	-0.970
2020/01/31 00:43:11.2	354.400	-0.120	-0.370	-0.970
2020/01/31 00:43:11.3	354.520	-0.110	-0.380	-0.980
2020/01/31 00:43:11.4	354.640	-0.100	-0.390	-0.980
2020/01/31 00:43:11.5	354.760	-0.090	-0.390	-0.980
2020/01/31 00:43:11.6	354.880	-0.080	-0.400	-0.980
2020/01/31 00:43:11.7	355.010	-0.060	-0.410	-0.990
2020/01/31 00:43:11.8	355.140	-0.050	-0.410	-0.990
2020/01/31 00:43:11.9	355.280	-0.040	-0.420	-1.000
2020/01/31 00:43:12.0	355.410	-0.030	-0.430	-1.000
2020/01/31 00:43:12.1	355.540	-0.010	-0.430	-1.000
2020/01/31 00:43:12.2	355.670	0.000	-0.440	-1.000
2020/01/31 00:43:12.3	355.800	0.020	-0.450	-1.000
2020/01/31 00:43:12.4	355.940	0.040	-0.450	-1.000
2020/01/31 00:43:12.5	356.070	0.050	-0.460	-0.990
2020/01/31 00:43:12.6	356.200	0.070	-0.460	-0.990
2020/01/31 00:43:12.7	356.330	0.080	-0.470	-0.980
2020/01/31 00:43:12.8	356.460	0.100	-0.470	-0.970
2020/01/31 00:43:12.9	356.600	0.120	-0.480	-0.960
2020/01/31 00:43:13.0	356.720	0.130	-0.480	-0.950
2020/01/31 00:43:13.1	356.850	0.150	-0.480	-0.930
2020/01/31 00:43:13.2	356.970	0.160	-0.480	-0.920
2020/01/31 00:43:13.3	357.090	0.170	-0.480	-0.900
2020/01/31 00:43:13.4	357.210	0.190	-0.480	-0.880
2020/01/31 00:43:13.5	357.330	0.200	-0.480	-0.870
2020/01/31 00:43:13.6	357.450	0.210	-0.470	-0.840
2020/01/31 00:43:13.7	357.560	0.220	-0.470	-0.820
2020/01/31 00:43:13.8	357.670	0.230	-0.460	-0.800
2020/01/31 00:43:13.9	357.780	0.230	-0.460	-0.780
2020/01/31 00:43:14.0	357.890	0.240	-0.450	-0.760
2020/01/31 00:43:14.1	357.990	0.240	-0.440	-0.730
2020/01/31 00:43:14.2	358.090	0.240	-0.430	-0.710
2020/01/31 00:43:14.3	358.190	0.240	-0.410	-0.680
2020/01/31 00:43:14.4	358.290	0.240	-0.400	-0.660
2020/01/31 00:43:14.5	358.390	0.230	-0.380	-0.630
2020/01/31 00:43:14.6	358.480	0.230	-0.370	-0.610
2020/01/31 00:43:14.7	358.580	0.220	-0.350	-0.580
2020/01/31 00:43:14.8	358.670	0.210	-0.330	-0.550
2020/01/31 00:43:14.9	358.760	0.200	-0.320	-0.520
2020/01/31 00:43:15.0	358.850	0.190	-0.300	-0.500
2020/01/31 00:43:15.1	358.940	0.170	-0.280	-0.470
2020/01/31 00:43:15.2	359.030	0.160	-0.260	-0.440
2020/01/31 00:43:15.3	359.120	0.140	-0.240	-0.420
2020/01/31 00:43:15.4	359.210	0.130	-0.220	-0.390
2020/01/31 00:43:15.5	359.300	0.110	-0.200	-0.370
2020/01/31 00:43:15.6	359.390	0.100	-0.180	-0.340
2020/01/31 00:43:15.7	359.480	0.080	-0.160	-0.320
2020/01/31 00:43:15.8	359.570	0.070	-0.150	-0.290
2020/01/31 00:43:15.9	359.640	0.050	-0.130	-0.270
2020/01/31 00:43:16.0	359.730	0.040	-0.110	-0.250
2020/01/31 00:43:16.1	359.830	0.020	-0.100	-0.230
2020/01/31 00:43:16.2	359.920	0.010	-0.080	-0.210
2020/01/31 00:43:16.3	0.010	-0.000	-0.070	-0.200
2020/01/31 00:43:16.4	0.110	-0.010	-0.060	-0.180
2020/01/31 00:43:16.5	0.200	-0.020	-0.040	-0.170
2020/01/31 00:43:16.6	0.300	-0.030	-0.030	-0.150
2020/01/31 00:43:16.7	0.400	-0.040	-0.020	-0.140
2020/01/31 00:43:16.8	0.500	-0.040	-0.010	-0.140
2020/01/31 00:43:16.9	0.590	-0.040	-0.000	-0.130
2020/01/31 00:43:17.0	0.700	-0.040	0.010	-0.130
2020/01/31 00:43:17.1	0.800	-0.040	0.010	-0.130
2020/01/31 00:43:17.2	0.900	-0.040	0.020	-0.130
2020/01/31 00:43:17.3	1.010	-0.030	0.030	-0.130
2020/01/31 00:43:17.4	1.110	-0.020	0.030	-0.140
2020/01/31 00:43:17.5	1.220	-0.010	0.030	-0.140
2020/01/31 00:43:17.6	1.330	-0.000	0.040	-0.150
2020/01/31 00:43:17.7	1.440	0.010	0.040	-0.160
2020/01/31 00:43:17.8	1.560	0.030	0.040	-0.180
2020/01/31 00:43:17.9	1.670	0.040	0.030	-0.190
2020/01/31 00:43:18.0	1.780	0.060	0.030	-0.210
2020/01/31 00:43:18.1	1.900	0.080	0.020	-0.220
2020/01/31 00:43:18.2	2.020	0.100	0.020	-0.240
2020/01/31 00:43:18.3	2.140	0.120	0.010	-0.260
2020/01/31 00:43:18.4	2.260	0.150	0.010	-0.280
2020/01/31 00:43:18.5	2.380	0.170	-0.000	-0.300
2020/01/31 00:43:18.6	2.500	0.200	-0.010	-0.320
2020/01/31 00:43:18.7	2.630	0.220	-0.020	-0.340
2020/01/31 00:43:18.8	2.750	0.250	-0.030	-0.360
2020/01/31 00:43:18.9	2.850	0.270	-0.040	-0.380
2020/01/31 00:43:19.0	2.970	0.290	-0.040	-0.390
2020/01/31 00:43:19.1	3.090	0.320	-0.050	-0.400
2020/01/31 00:43:19.2	3.210	0.340	-0.060	-0.410
2020/01/31 00:43:19.3	3.330	0.360	-0.060	-0.420
2020/01/31 00:43:19.4	3.440	0.380	-0.070	-0.430
2020/01/31 00:43:19.5	3.550	0.390	-0.070	-0.430
2020/01/31 00:43:19.6	3.660	0.410	-0.070	-0.430
2020/01/31 00:43:19.7	3.770	0.420	-0.070	-0.430
2020/01/31 00:43:19.8	3.870	0.430	-0.060	-0.430
2020/01/31 00:43:19.9	3.960	0.440	-0.060	-0.430
2020/01/31 00:43:20.0	4.060	0.450	-0.050	-0.430
2020/01/31 00:43:20.1	4.160	0.450	-0.040	-0.420
2020/01/31 00:43:20.2	4.250	0.450	-0.030	-0.420
2020/01/31 00:43:20.3	4.350	0.450	-0.020	-0.410
2020/01/31 00:43:20.4	4.440	0.450	-0.000	-0.400
2020/01/31 00:43:20.5	4.530	0.450	0.010	-0.390
2020/01/31 00:43:20.6	4.610	0.440	0.030	-0.380
2020/01/31 00:43:20.7	4.690	0.430	0.050	-0.360
2020/01/31 00:43:20.8	4.780	0.420	0.070	-0.350
2020/01/31 00:43:20.9	4.840	0.410	0.090	-0.330
2020/01/31 00:43:21.0	4.920	0.400	0.110	-0.310
2020/01/31 00:43:21.1	5.000	0.380	0.130	-0.300
2020/01/31 00:43:21.2	5.080	0.370	0.150	-0.280
2020/01/31 00:43:21.3	5.150	0.350	0.170	-0.250
2020/01/31 00:43:21.4	5.230	0.330	0.190	-0.230
2020/01/31 00:43:21.5	5.300	0.310	0.210	-0.210
2020/01/31 00:43:21.6	5.380	0.290	0.220	-0.190
2020/01/31 00:43:21.7	5.450	0.270	0.240	-0.170
2020/01/31 00:43:21.8	5.530	0.250	0.250	-0.150
2020/01/31 00:43:21.9	5.600	0.220	0.260	-0.130
2020/01/31 00:43:22.0	5.680	0.200	0.270	-0.110
2020/01/31 00:43:22.1	5.750	0.170	0.280	-0.090
2020/01/31 00:43:22.2	5.840	0.150	0.280	-0.080
2020/01/31 00:43:22.3	5.920	0.120	0.280	-0.070
2020/01/31 00:43:22.4	6.000	0.090	0.280	-0.060
2020/01/31 00:43:22.5	6.090	0.060	0.270	-0.050
2020/01/31 00:43:22.6	6.180	0.040	0.260	-0.050
2020/01/31 00:43:22.7	6.280	0.010	0.250	-0.050
2020/01/31 00:43:22.8	6.370	-0.020	0.230	-0.060
2020/01/31 00:43:22.9	6.470	-0.050	0.210	-0.060
2020/01/31 00:43:23.0	6.580	-0.080	0.180	-0.080
2020/01/31 00:43:23.1	6.690	-0.110	0.160	-0.100
2020/01/31 00:43:23.2	6.800	-0.140	0.130	-0.120
2020/01/31 00:43:23.3	6.910	-0.170	0.090	-0.150
2020/01/31 00:43:23.4	7.030	-0.200	0.060	-0.180
2020/01/31 00:43:23.5	7.150	-0.220	0.020	-0.220
2020/01/31 00:43:23.6	7.270	-0.250	-0.010	-0.260
2020/01/31 00:43:23.7	7.400	-0.280	-0.050	-0.300
2020/01/31 00:43:23.8	7.520	-0.310	-0.090	-0.350
2020/01/31 00:43:23.9	7.630	-0.330	-0.130	-0.400
2020/01/31 00:43:24.0	7.770	-0.360	-0.170	-0.460
2020/01/31 00:43:24.1	7.900	-0.390	-0.210	-0.510
2020/01/31 00:43:24.2	8.030	-0.410	-0.250	-0.560
2020/01/31 00:43:24.3	8.160	-0.430	-0.280	-0.620
2020/01/31 00:43:24.4	8.300	-0.460	-0.320	-0.680
2020/01/31 00:43:24.5	8.430	-0.480	-0.350	-0.730
2020/01/31 00:43:24.6	8.560	-0.500	-0.380	-0.790
2020/01/31 00:43:24.7	8.700	-0.520	-0.400	-0.840
2020/01/31 00:43:24.8	8.830	-0.540	-0.420	-0.890
2020/01/31 00:43:24.9	8.940	-0.550	-0.440	-0.950
2020/01/31 00:43:25.0	9.070	-0.570	-0.450	-1.000
2020/01/31 00:43:25.1	9.200	-0.580	-0.460	-1.040
2020/01/31 00:43:25.2	9.320	-0.590	-0.470	-1.090
2020/01/31 00:43:25.3	9.440	-0.600	-0.470	-1.130
2020/01/31 00:43:25.4	9.560	-0.610	-0.470	-1.170
2020/01/31 00:43:25.5	9.680	-0.620	-0.460	-1.200
2020/01/31 00:43:25.6	9.790	-0.620	-0.450	-1.240
2020/01/31 00:43:25.7	9.900	-0.630	-0.440	-1.260
2020/01/31 00:43:25.8	10.010	-0.630	-0.420	-1.290
2020/01/31 00:43:25.9	10.130	-0.620	-0.410	-1.310
2020/01/31 00:43:26.0	10.230	-0.620	-0.390	-1.330
2020/01/31 00:43:26.1	10.330	-0.610	-0.360	-1.340
2020/01/31 00:43:26.2	10.430	-0.600	-0.340	-1.350
2020/01/31 00:43:26.3	10.530	-0.590	-0.320	-1.360
2020/01/31 00:43:26.4	10.630	-0.570	-0.290	-1.370
2020/01/31 00:43:26.5	10.720	-0.550	-0.260	-1.370
2020/01/31 00:43:26.6	10.820	-0.530	-0.240	-1.370
2020/01/31 00:43:26.7	10.910	-0.510	-0.210	-1.360
2020/01/31 00:43:26.8	11.000	-0.480	-0.190	-1.360
2020/01/31 00:43:26.9	11.110	-0.450	-0.170	-1.340
2020/01/31 00:43:27.0	11.200	-0.420	-0.150	-1.330
2020/01/31 00:43:27.1	11.300	-0.390	-0.140	-1.320
2020/01/31 00:43:27.2	11.390	-0.350	-0.120	-1.300
2020/01/31 00:43:27.3	11.480	-0.320	-0.110	-1.280
2020/01/31 00:43:27.4	11.570	-0.280	-0.100	-1.250
2020/01/31 00:43:27.5	11.670	-0.240	-0.100	-1.230
2020/01/31 00:43:27.6	11.760	-0.190	-0.100	-1.200
2020/01/31 00:43:27.7	11.850	-0.150	-0.100	-1.160
2020/01/31 00:43:27.8	11.940	-0.110	-0.100	-1.120
2020/01/31 00:43:27.9	12.040	-0.070	-0.110	-1.080
2020/01/31 00:43:28.0	12.120	-0.020	-0.110	-1.040
2020/01/31 00:43:28.1	12.210	0.020	-0.120	-0.990
2020/01/31 00:43:28.2	12.290	0.060	-0.130	-0.940
2020/01/31 00:43:28.3	12.370	0.100	-0.140	-0.880
2020/01/31 00:43:28.4	12.450	0.140	-0.150	-0.820
2020/01/31 00:43:28.5	12.530	0.170	-0.160	-0.770
2020/01/31 00:43:28.6	12.610	0.210	-0.170	-0.710
2020/01/31 00:43:28.7	12.680	0.240	-0.180	-0.650
2020/01/31 00:43:28.8	12.760	0.260	-0.190	-0.590
2020/01/31 00:43:28.9	12.850	0.290	-0.200	-0.520
2020/01/31 00:43:29.0	12.930	0.310	-0.210	-0.460
2020/01/31 00:43:29.1	13.000	0.330	-0.210	-0.410
2020/01/31 00:43:29.2	13.070	0.340	-0.220	-0.350
2020/01/31 00:43:29.3	13.140	0.360	-0.220	-0.290
2020/01/31 00:43:29.4	13.220	0.370	-0.220	-0.240
2020/01/31 00:43:29.5	13.290	0.370	-0.220	-0.190
2020/01/31 00:43:29.6	13.370	0.370	-0.210	-0.140
2020/01/31 00:43:29.7	13.450	0.370	-0.210	-0.090
2020/01/31 00:43:29.8	13.530	0.370	-0.210	-0.050
2020/01/31 00:43:29.9	13.620	0.360	-0.200	-0.010
2020/01/31 00:43:30.0	13.710	0.350	-0.200	0.030
2020/01/31 00:43:30.1	13.790	0.340	-0.190	0.060
2020/01/31 00:43:30.2	13.880	0.330	-0.180	0.090
2020/01/31 00:43:30.3	13.980	0.320	-0.180	0.120
2020/01/31 00:43:30.4	14.070	0.300	-0.170	0.140
2020/01/31 00:43:30.5	14.170	0.290	-0.160	0.160
2020/01/31 00:43:30.6	14.280	0.270	-0.160	0.170
2020/01/31 00:43:30.7	14.380	0.260	-0.150	0.180
2020/01/31 00:43:30.8	14.490	0.240	-0.150	0.180
2020/01/31 00:43:30.9	14.610	0.230	-0.140	0.180
2020/01/31 00:43:31.0	14.730	0.210	-0.140	0.180
2020/01/31 00:43:31.1	14.850	0.200	-0.130	0.180
2020/01/31 00:43:31.2	14.960	0.180	-0.130	0.180
2020/01/31 00:43:31.3	15.080	0.170	-0.130	0.170
2020/01/31 00:43:31.4	15.210	0.160	-0.130	0.160
2020/01/31 00:43:31.5	15.330	0.150	-0.130	0.150
2020/01/31 00:43:31.6	15.460	0.140	-0.130	0.140
2020/01/31 00:43:31.7	15.580	0.130	-0.130	0.130
2020/01/31 00:43:31.8	15.710	0.130	-0.130	0.110
2020/01/31 00:43:31.9	15.840	0.120	-0.130	0.090
2020/01/31 00:43:32.0	15.960	0.120	-0.140	0.080
2020/01/31 00:43:32.1	16.090	0.120	-0.140	0.060
2020/01/31 00:43:32.2	16.220	0.120	-0.140	0.050
2020/01/31 00:43:32.3	16.350	0.120	-0.140	0.040
2020/01/31 00:43:32.4	16.470	0.130	-0.150	0.020
2020/01/31 00:43:32.5	16.600	0.130	-0.150	0.010
2020/01/31 00:43:32.6	16.720	0.140	-0.150	-0.010
2020/01/31 00:43:32.7	16.850	0.140	-0.160	-0.020
2020/01/31 00:43:32.8	16.970	0.150	-0.160	-0.030
2020/01/31 00:43:32.9	17.100	0.150	-0.170	-0.040
2020/01/31 00:43:33.0	17.220	0.160	-0.170	-0.050
2020/01/31 00:43:33.1	17.340	0.170	-0.170	-0.060
2020/01/31 00:43:33.2	17.460	0.170	-0.180	-0.070
2020/01/31 00:43:33.3	17.580	0.180	-0.180	-0.080
2020/01/31 00:43:33.4	17.700	0.190	-0.180	-0.090
2020/01/31 00:43:33.5	17.810	0.190	-0.180	-0.090
2020/01/31 00:43:33.6	17.920	0.200	-0.170	-0.090
2020/01/31 00:43:33.7	18.030	0.200	-0.170	-0.100
2020/01/31 00:43:33.8	18.130	0.200	-0.170	-0.100
2020/01/31 00:43:33.9	18.230	0.200	-0.160	-0.110
2020/01/31 00:43:34.0	18.330	0.200	-0.150	-0.110
2020/01/31 00:43:34.1	18.420	0.200	-0.140	-0.100
2020/01/31 00:43:34.2	18.510	0.200	-0.130	-0.100
2020/01/31 00:43:34.3	18.600	0.200	-0.120	-0.100
2020/01/31 00:43:34.4	18.680	0.190	-0.100	-0.100
2020/01/31 00:43:34.5	18.760	0.180	-0.090	-0.090
2020/01/31 00:43:34.6	18.840	0.180	-0.080	-0.090
2020/01/31 00:43:34.7	18.910	0.170	-0.060	-0.090
2020/01/31 00:43:34.8	18.980	0.160	-0.040	-0.080
2020/01/31 00:43:34.9	19.040	0.150	-0.030	-0.080
2020/01/31 00:43:35.0	19.100	0.140	-0.020	-0.080
2020/01/31 00:43:35.1	19.170	0.120	-0.000	-0.070
2020/01/31 00:43:35.2	19.230	0.110	0.010	-0.070
2020/01/31 00:43:35.3	19.290	0.100	0.020	-0.070
2020/01/31 00:43:35.4	19.360	0.090	0.030	-0.070
2020/01/31 00:43:35.5	19.420	0.080	0.040	-0.070
2020/01/31 00:43:35.6	19.480	0.070	0.050	-0.070
2020/01/31 00:43:35.7	19.540	0.060	0.060	-0.070
2020/01/31 00:43:35.8	19.600	0.050	0.060	-0.070
2020/01/31 00:43:35.9	19.670	0.050	0.060	-0.080
2020/01/31 00:43:36.0	19.740	0.040	0.060	-0.080
2020/01/31 00:43:36.1	19.800	0.030	0.050	-0.090
2020/01/31 00:43:36.2	19.880	0.030	0.040	-0.100
2020/01/31 00:43:36.3	19.950	0.030	0.030	-0.100
2020/01/31 00:43:36.4	20.020	0.030	0.020	-0.110
2020/01/31 00:43:36.5	20.100	0.030	0.010	-0.120
2020/01/31 00:43:36.6	20.190	0.030	-0.010	-0.140
2020/01/31 00:43:36.7	20.270	0.030	-0.030	-0.150
2020/01/31 00:43:36.8	20.360	0.030	-0.050	-0.170
2020/01/31 00:43:36.9	20.450	0.030	-0.070	-0.180
2020/01/31 00:43:37.0	20.540	0.040	-0.100	-0.200
2020/01/31 00:43:37.1	20.640	0.040	-0.120	-0.220
2020/01/31 00:43:37.2	20.740	0.050	-0.140	-0.240
2020/01/31 00:43:37.3	20.850	0.050	-0.160	-0.270
2020/01/31 00:43:37.4	20.960	0.050	-0.180	-0.290
2020/01/31 00:43:37.5	21.070	0.060	-0.200	-0.320
2020/01/31 00:43:37.6	21.180	0.060	-0.210	-0.340
2020/01/31 00:43:37.7	21.290	0.060	-0.230	-0.370
2020/01/31 00:43:37.8	21.410	0.060	-0.240	-0.400
2020/01/31 00:43:37.9	21.530	0.060	-0.250	-0.430
2020/01/31 00:43:38.0	21.660	0.060	-0.250	-0.460
2020/01/31 00:43:38.1	21.780	0.060	-0.250	-0.500
2020/01/31 00:43:38.2	21.900	0.050	-0.250	-0.530
2020/01/31 00:43:38.3	22.030	0.040	-0.240	-0.560
2020/01/31 00:43:38.4	22.150	0.040	-0.230	-0.590
2020/01/31 00:43:38.5	22.280	0.020	-0.220	-0.620
2020/01/31 00:43:38.6	22.400	0.010	-0.210	-0.650
2020/01/31 00:43:38.7	22.520	-0.000	-0.190	-0.670
2020/01/31 00:43:38.8	22.640	-0.020	-0.160	-0.690
2020/01/31 00:43:38.9	22.730	-0.040	-0.140	-0.720
2020/01/31 00:43:39.0	22.840	-0.060	-0.110	-0.730
2020/01/31 00:43:39.1	22.950	-0.080	-0.080	-0.740
2020/01/31 00:43:39.2	23.060	-0.100	-0.050	-0.750
2020/01/31 00:43:39.3	23.160	-0.120	-0.010	-0.760
2020/01/31 00:43:39.4	23.260	-0.150	0.020	-0.760
2020/01/31 00:43:39.5	23.360	-0.180	0.060	-0.760
2020/01/31 00:43:39.6	23.450	-0.200	0.090	-0.760
2020/01/31 00:43:39.7	23.540	-0.230	0.130	-0.750
2020/01/31 00:43:39.8	23.630	-0.250	0.160	-0.740
2020/01/31 00:43:39.9	23.710	-0.280	0.200	-0.730
2020/01/31 00:43:40.0	23.790	-0.310	0.230	-0.720
2020/01/31 00:43:40.1	23.880	-0.330	0.260	-0.700
2020/01/31 00:43:40.2	23.960	-0.360	0.280	-0.690
2020/01/31 00:43:40.3	24.040	-0.380	0.300	-0.670
2020/01/31 00:43:40.4	24.120	-0.400	0.320	-0.650
2020/01/31 00:43:40.5	24.190	-0.420	0.340	-0.630
2020/01/31 00:43:40.6	24.270	-0.440	0.350	-0.610
2020/01/31 00:43:40.7	24.350	-0.460	0.360	-0.600
2020/01/31 00:43:40.8	24.430	-0.470	0.360	-0.580
2020/01/31 00:43:40.9	24.490	-0.480	0.360	-0.560
2020/01/31 00:43:41.0	24.570	-0.490	0.350	-0.550
2020/01/31 00:43:41.1	24.660	-0.500	0.340	-0.530
2020/01/31 00:43:41.2	24.740	-0.500	0.330	-0.520
2020/01/31 00:43:41.3	24.830	-0.500	0.310	-0.510
2020/01/31 00:43:41.4	24.920	-0.500	0.290	-0.500
2020/01/31 00:43:41.5	25.010	-0.490	0.260	-0.490
2020/01/31 00:43:41.6	25.100	-0.480	0.230	-0.490
2020/01/31 00:43:41.7	25.200	-0.470	0.200	-0.480
2020/01/31 00:43:41.8	25.300	-0.460	0.160	-0.480
2020/01/31 00:43:41.9	25.370	-0.440	0.130	-0.480
2020/01/31 00:43:42.0	25.480	-0.420	0.090	-0.480
2020/01/31 00:43:42.1	25.580	-0.400	0.050	-0.480
2020/01/31 00:43:42.2	25.690	-0.380	0.000	-0.480
2020/01/31 00:43:42.3	25.800	-0.350	-0.040	-0.470
2020/01/31 00:43:42.4	25.900	-0.320	-0.080	-0.470
2020/01/31 00:43:42.5	26.010	-0.300	-0.130	-0.470
2020/01/31 00:43:42.6	26.120	-0.270	-0.170	-0.460
2020/01/31 00:43:42.7	26.230	-0.240	-0.210	-0.450
2020/01/31 00:43:42.8	26.340	-0.210	-0.250	-0.440
2020/01/31 00:43:42.9	26.440	-0.170	-0.290	-0.430
2020/01/31 00:43:43.0	26.540	-0.140	-0.330	-0.410
2020/01/31 00:43:43.1	26.650	-0.110	-0.360	-0.390
2020/01/31 00:43:43.2	26.750	-0.080	-0.390	-0.370
2020/01/31 00:43:43.3	26.850	-0.050	-0.420	-0.350
2020/01/31 00:43:43.4	26.950	-0.020	-0.440	-0.320
2020/01/31 00:43:43.5	27.050	0.000	-0.460	-0.280
2020/01/31 00:43:43.6	27.140	0.030	-0.480	-0.250
2020/01/31 00:43:43.7	27.230	0.050	-0.500	-0.220
2020/01/31 00:43:43.8	27.320	0.080	-0.510	-0.180
2020/01/31 00:43:43.9	27.410	0.100	-0.510	-0.140
2020/01/31 00:43:44.0	27.500	0.110	-0.510	-0.100
2020/01/31 00:43:44.1	27.580	0.130	-0.520	-0.060
2020/01/31 00:43:44.2	27.660	0.140	-0.510	-0.020
2020/01/31 00:43:44.3	27.740	0.160	-0.510	0.020
2020/01/31 00:43:44.4	27.820	0.170	-0.500	0.060
2020/01/31 00:43:44.5	27.890	0.170	-0.490	0.100
2020/01/31 00:43:44.6	27.970	0.180	-0.480	0.140
2020/01/31 00:43:44.7	28.040	0.180	-0.470	0.170
2020/01/31 00:43:44.8	28.110	0.190	-0.450	0.210
2020/01/31 00:43:44.9	28.170	0.190	-0.440	0.250
2020/01/31 00:43:45.0	28.240	0.190	-0.420	0.280
2020/01/31 00:43:45.1	28.310	0.180	-0.400	0.310
2020/01/31 00:43:45.2	28.380	0.180	-0.380	0.340
2020/01/31 00:43:45.3	28.450	0.180	-0.360	0.370
2020/01/31 00:43:45.4	28.510	0.170	-0.350	0.390
2020/01/31 00:43:45.5	28.580	0.170	-0.330	0.410
2020/01/31 00:43:45.6	28.650	0.160	-0.310	0.430
2020/01/31 00:43:45.7	28.720	0.160	-0.290	0.450
2020/01/31 00:43:45.8	28.790	0.160	-0.280	0.460
2020/01/31 00:43:45.9	28.880	0.150	-0.270	0.470
2020/01/31 00:43:46.0	28.950	0.150	-0.250	0.480
2020/01/31 00:43:46.1	29.030	0.150	-0.240	0.490
2020/01/31 00:43:46.2	29.100	0.150	-0.230	0.490
2020/01/31 00:43:46.3	29.180	0.150	-0.220	0.490
2020/01/31 00:43:46.4	29.260	0.150	-0.220	0.490
2020/01/31 00:43:46.5	29.340	0.160	-0.210	0.480
2020/01/31 00:43:46.6	29.430	0.160	-0.210	0.480
2020/01/31 00:43:46.7	29.520	0.170	-0.210	0.470
2020/01/31 00:43:46.8	29.610	0.180	-0.210	0.460
2020/01/31 00:43:46.9	29.710	0.190	-0.210	0.440
2020/01/31 00:43:47.0	29.800	0.200	-0.220	0.420
2020/01/31 00:43:47.1	29.900	0.210	-0.220	0.400
2020/01/31 00:43:47.2	30.000	0.230	-0.230	0.380
2020/01/31 00:43:47.3	30.110	0.240	-0.230	0.360
2020/01/31 00:43:47.4	30.210	0.260	-0.240	0.340
2020/01/31 00:43:47.5	30.320	0.270	-0.250	0.310
2020/01/31 00:43:47.6	30.440	0.290	-0.250	0.280
2020/01/31 00:43:47.7	30.550	0.310	-0.260	0.250
2020/01/31 00:43:47.8	30.670	0.320	-0.260	0.220
2020/01/31 00:43:47.9	30.800	0.340	-0.270	0.180
2020/01/31 00:43:48.0	30.920	0.350	-0.270	0.150
2020/01/31 00:43:48.1	31.050	0.370	-0.270	0.110
2020/01/31 00:43:48.2	31.170	0.380	-0.270	0.070
2020/01/31 00:43:48.3	31.300	0.390	-0.270	0.030
2020/01/31 00:43:48.4	31.420	0.400	-0.270	-0.000
2020/01/31 00:43:48.5	31.550	0.410	-0.260	-0.040
2020/01/31 00:43:48.6	31.670	0.410	-0.250	-0.080
2020/01/31 00:43:48.7	31.800	0.410	-0.240	-0.120
2020/01/31 00:43:48.8	31.930	0.410	-0.220	-0.160
2020/01/31 00:43:48.9	32.070	0.410	-0.210	-0.200
2020/01/31 00:43:49.0	32.190	0.410	-0.180	-0.240
2020/01/31 00:43:49.1	32.310	0.400	-0.160	-0.270
2020/01/31 00:43:49.2	32.430	0.390	-0.130	-0.300
2020/01/31 00:43:49.3	32.540	0.370	-0.100	-0.320
2020/01/31 00:43:49.4	32.660	0.350	-0.070	-0.350
2020/01/31 00:43:49.5	32.770	0.330	-0.040	-0.370
2020/01/31 00:43:49.6	32.880	0.310	-0.010	-0.380
2020/01/31 00:43:49.7	32.980	0.280	0.030	-0.400
2020/01/31 00:43:49.8	33.080	0.250	0.070	-0.410
2020/01/31 00:43:49.9	33.200	0.220	0.100	-0.410
2020/01/31 00:43:50.0	33.290	0.190	0.140	-0.410
2020/01/31 00:43:50.1	33.390	0.150	0.180	-0.410
2020/01/31 00:43:50.2	33.480	0.110	0.210	-0.410
2020/01/31 00:43:50.3	33.560	0.070	0.240	-0.400
2020/01/31 00:43:50.4	33.650	0.030	0.280	-0.390
2020/01/31 00:43:50.5	33.730	-0.010	0.310	-0.380
2020/01/31 00:43:50.6	33.810	-0.050	0.340	-0.360
2020/01/31 00:43:50.7	33.880	-0.090	0.360	-0.350
2020/01/31 00:43:50.8	33.960	-0.140	0.380	-0.330
2020/01/31 00:43:50.9	34.050	-0.180	0.400	-0.320
2020/01/31 00:43:51.0	34.120	-0.220	0.410	-0.300
2020/01/31 00:43:51.1	34.190	-0.260	0.420	-0.280
2020/01/31 00:43:51.2	34.260	-0.300	0.420	-0.270
2020/01/31 00:43:51.3	34.330	-0.340	0.430	-0.250
2020/01/31 00:43:51.4	34.400	-0.380	0.420	-0.240
2020/01/31 00:43:51.5	34.460	-0.420	0.410	-0.220
2020/01/31 00:43:51.6	34.530	-0.450	0.400	-0.210
2020/01/31 00:43:51.7	34.600	-0.480	0.380	-0.200
2020/01/31 00:43:51.8	34.670	-0.510	0.360	-0.200
2020/01/31 00:43:51.9	34.740	-0.530	0.340	-0.200
2020/01/31 00:43:52.0	34.810	-0.560	0.310	-0.190
2020/01/31 00:43:52.1	34.880	-0.580	0.280	-0.190
2020/01/31 00:43:52.2	34.950	-0.600	0.240	-0.200
2020/01/31 00:43:52.3	35.020	-0.610	0.210	-0.200
2020/01/31 00:43:52.4	35.090	-0.620	0.170	-0.210
2020/01/31 00:43:52.5	35.170	-0.630	0.130	-0.220
2020/01/31 00:43:52.6	35.240	-0.630	0.090	-0.240
2020/01/31 00:43:52.7	35.320	-0.630	0.040	-0.250
2020/01/31 00:43:52.8	35.400	-0.630	0.000	-0.270
2020/01/31 00:43:52.9	35.480	-0.620	-0.040	-0.290
2020/01/31 00:43:53.0	35.570	-0.620	-0.090	-0.310
2020/01/31 00:43:53.1	35.650	-0.600	-0.130	-0.330
2020/01/31 00:43:53.2	35.740	-0.590	-0.180	-0.350
2020/01/31 00:43:53.3	35.830	-0.570	-0.220	-0.370
2020/01/31 00:43:53.4	35.920	-0.550	-0.260	-0.390
2020/01/31 00:43:53.5	36.010	-0.520	-0.300	-0.410
2020/01/31 00:43:53.6	36.100	-0.500	-0.330	-0.430
2020/01/31 00:43:53.7	36.200	-0.470	-0.370	-0.440
2020/01/31 00:43:53.8	36.290	-0.440	-0.400	-0.460
2020/01/31 00:43:53.9	36.400	-0.400	-0.430	-0.480
2020/01/31 00:43:54.0	36.490	-0.370	-0.450	-0.490
2020/01/31 00:43:54.1	36.590	-0.330	-0.470	-0.490
2020/01/31 00:43:54.2	36.690	-0.290	-0.490	-0.500
2020/01/31 00:43:54.3	36.790	-0.250	-0.510	-0.500
2020/01/31 00:43:54.4	36.890	-0.210	-0.520	-0.510
2020/01/31 00:43:54.5	36.990	-0.170	-0.530	-0.500
2020/01/31 00:43:54.6	37.090	-0.120	-0.540	-0.500
2020/01/31 00:43:54.7	37.190	-0.080	-0.540	-0.490
2020/01/31 00:43:54.8	37.290	-0.030	-0.540	-0.480
2020/01/31 00:43:54.9	37.400	0.010	-0.530	-0.460
2020/01/31 00:43:55.0	37.500	0.050	-0.530	-0.450
2020/01/31 00:43:55.1	37.610	0.100	-0.520	-0.430
2020/01/31 00:43:55.2	37.710	0.140	-0.510	-0.410
2020/01/31 00:43:55.3	37.820	0.190	-0.490	-0.380
2020/01/31 00:43:55.4	37.920	0.230	-0.480	-0.350
2020/01/31 00:43:55.5	38.030	0.270	-0.460	-0.320
2020/01/31 00:43:55.6	38.130	0.310	-0.440	-0.290
2020/01/31 00:43:55.7	38.240	0.350	-0.420	-0.260
2020/01/31 00:43:55.8	38.340	0.390	-0.400	-0.220
2020/01/31 00:43:55.9	38.440	0.420	-0.380	-0.190
2020/01/31 00:43:56.0	38.550	0.450	-0.360	-0.150
2020/01/31 00:43:56.1	38.660	0.480	-0.330	-0.100
2020/01/31 00:43:56.2	38.760	0.510	-0.310	-0.060
2020/01/31 00:43:56.3	38.870	0.530	-0.280	-0.010
2020/01/31 00:43:56.4	38.970	0.550	-0.250	0.030
2020/01/31 00:43:56.5	39.080	0.570	-0.230	0.080
2020/01/31 00:43:56.6	39.180	0.580	-0.200	0.130
2020/01/31 00:43:56.7	39.280	0.590	-0.170	0.180
2020/01/31 00:43:56.8	39.380	0.590	-0.140	0.230
2020/01/31 00:43:56.9	39.480	0.590	-0.110	0.280
2020/01/31 00:43:57.0	39.580	0.590	-0.090	0.330
2020/01/31 00:43:57.1	39.670	0.580	-0.060	0.380
2020/01/31 00:43:57.2	39.770	0.560	-0.030	0.430
2020/01/31 00:43:57.3	39.860	0.550	-0.000	0.480
2020/01/31 00:43:57.4	39.950	0.520	0.030	0.530
2020/01/31 00:43:57.5	40.030	0.500	0.060	0.570
2020/01/31 00:43:57.6	40.120	0.470	0.080	0.620
2020/01/31 00:43:57.7	40.200	0.430	0.110	0.660
2020/01/31 00:43:57.8	40.280	0.400	0.140	0.700
2020/01/31 00:43:57.9	40.340	0.350	0.160	0.740
2020/01/31 00:43:58.0	40.420	0.310	0.190	0.770
2020/01/31 00:43:58.1	40.490	0.260	0.220	0.800
2020/01/31 00:43:58.2	40.560	0.210	0.240	0.820
2020/01/31 00:43:58.3	40.630	0.160	0.260	0.850
2020/01/31 00:43:58.4	40.710	0.110	0.290	0.860
2020/01/31 00:43:58.5	40.780	0.060	0.310	0.880
2020/01/31 00:43:58.6	40.850	0.000	0.330	0.880
2020/01/31 00:43:58.7	40.920	-0.050	0.340	0.890
2020/01/31 00:43:58.8	40.990	-0.110	0.360	0.880
2020/01/31 00:43:58.9	41.040	-0.160	0.370	0.880
2020/01/31 00:43:59.0	41.110	-0.220	0.380	0.860
2020/01/31 00:43:59.1	41.190	-0.270	0.390	0.850
2020/01/31 00:43:59.2	41.260	-0.320	0.390	0.820
2020/01/31 00:43:59.3	41.340	-0.360	0.390	0.790
2020/01/31 00:43:59.4	41.430	-0.410	0.380	0.760
2020/01/31 00:43:59.5	41.510	-0.450	0.370	0.720
2020/01/31 00:43:59.6	41.600	-0.490	0.360	0.680
2020/01/31 00:43:59.7	41.690	-0.520	0.340	0.630
2020/01/31 00:43:59.8	41.780	-0.550	0.320	0.570
2020/01/31 00:43:59.9	41.870	-0.580	0.290	0.510
2020/01/31 00:44:00.0	41.970	-0.600	0.270	0.440
2020/01/31 00:44:00.1	42.080	-0.620	0.230	0.380
2020/01/31 00:44:00.2	42.190	-0.630	0.190	0.300
2020/01/31 00:44:00.3	42.300	-0.640	0.150	0.230
2020/01/31 00:44:00.4	42.410	-0.640	0.110	0.150
2020/01/31 00:44:00.5	42.520	-0.640	0.060	0.080
2020/01/31 00:44:00.6	42.640	-0.640	0.010	-0.000
2020/01/31 00:44:00.7	42.760	-0.630	-0.050	-0.080
2020/01/31 00:44:00.8	42.880	-0.610	-0.100	-0.160
2020/01/31 00:44:00.9	43.000	-0.590	-0.160	-0.230
2020/01/31 00:44:01.0	43.120	-0.570	-0.210	-0.310
2020/01/31 00:44:01.1	43.230	-0.550	-0.270	-0.380
2020/01/31 00:44:01.2	43.350	-0.520	-0.330	-0.450
2020/01/31 00:44:01.3	43.470	-0.490	-0.380	-0.520
2020/01/31 00:44:01.4	43.580	-0.460	-0.430	-0.590
2020/01/31 00:44:01.5	43.690	-0.420	-0.490	-0.650
2020/01/31 00:44:01.6	43.800	-0.380	-0.530	-0.710
2020/01/31 00:44:01.7	43.910	-0.350	-0.580	-0.760
2020/01/31 00:44:01.8	44.010	-0.310	-0.620	-0.810
2020/01/31 00:44:01.9	44.120	-0.270	-0.650	-0.860
2020/01/31 00:44:02.0	44.220	-0.230	-0.690	-0.890
2020/01/31 00:44:02.1	44.320	-0.190	-0.710	-0.930
2020/01/31 00:44:02.2	44.410	-0.150	-0.730	-0.950
2020/01/31 00:44:02.3	44.500	-0.110	-0.750	-0.980
2020/01/31 00:44:02.4	44.590	-0.070	-0.760	-0.990
2020/01/31 00:44:02.5	44.680	-0.040	-0.770	-1.000
2020/01/31 00:44:02.6	44.760	-0.000	-0.760	-1.000
2020/01/31 00:44:02.7	44.840	0.030	-0.760	-1.000
2020/01/31 00:44:02.8	44.920	0.060	-0.750	-0.990
2020/01/31 00:44:02.9	45.000	0.100	-0.730	-0.970
2020/01/31 00:44:03.0	45.070	0.120	-0.710	-0.950
2020/01/31 00:44:03.1	45.140	0.150	-0.680	-0.920
2020/01/31 00:44:03.2	45.200	0.180	-0.650	-0.880
2020/01/31 00:44:03.3	45.270	0.200	-0.610	-0.840
2020/01/31 00:44:03.4	45.330	0.220	-0.570	-0.800
2020/01/31 00:44:03.5	45.390	0.240	-0.530	-0.750
2020/01/31 00:44:03.6	45.450	0.260	-0.480	-0.690
2020/01/31 00:44:03.7	45.500	0.270	-0.430	-0.630
2020/01/31 00:44:03.8	45.560	0.290	-0.380	-0.570
2020/01/31 00:44:03.9	45.620	0.300	-0.330	-0.510
2020/01/31 00:44:04.0	45.670	0.310	-0.280	-0.440
2020/01/31 00:44:04.1	45.720	0.320	-0.230	-0.370
2020/01/31 00:44:04.2	45.780	0.330	-0.180	-0.300
2020/01/31 00:44:04.3	45.830	0.330	-0.130	-0.230
2020/01/31 00:44:04.4	45.890	0.340	-0.090	-0.160
2020/01/31 00:44:04.5	45.950	0.340	-0.040	-0.090
2020/01/31 00:44:04.6	46.010	0.350	-0.000	-0.030
2020/01/31 00:44:04.7	46.070	0.350	0.040	0.040
2020/01/31 00:44:04.8	46.140	0.350	0.070	0.100
2020/01/31 00:44:04.9	46.210	0.350	0.100	0.160
2020/01/31 00:44:05.0	46.280	0.350	0.130	0.220
2020/01/31 00:44:05.1	46.360	0.350	0.150	0.270
2020/01/31 00:44:05.2	46.440	0.350	0.170	0.320
2020/01/31 00:44:05.3	46.520	0.350	0.180	0.360
2020/01/31 00:44:05.4	46.610	0.350	0.190	0.400
2020/01/31 00:44:05.5	46.700	0.340	0.200	0.440
2020/01/31 00:44:05.6	46.800	0.340	0.200	0.470
2020/01/31 00:44:05.7	46.900	0.340	0.200	0.490
2020/01/31 00:44:05.8	47.000	0.330	0.190	0.520
2020/01/31 00:44:05.9	47.110	0.330	0.180	0.540
2020/01/31 00:44:06.0	47.220	0.320	0.170	0.550
2020/01/31 00:44:06.1	47.330	0.320	0.150	0.560
2020/01/31 00:44:06.2	47.440	0.310	0.140	0.570
2020/01/31 00:44:06.3	47.560	0.300	0.120	0.580
2020/01/31 00:44:06.4	47.670	0.300	0.100	0.580
2020/01/31 00:44:06.5	47.790	0.290	0.080	0.580
2020/01/31 00:44:06.6	47.910	0.280	0.060	0.580
2020/01/31 00:44:06.7	48.030	0.270	0.040	0.580
2020/01/31 00:44:06.8	48.140	0.250	0.020	0.580
2020/01/31 00:44:06.9	48.240	0.240	0.000	0.570
2020/01/31 00:44:07.0	48.360	0.230	-0.020	0.560
2020/01/31 00:44:07.1	48.480	0.220	-0.030	0.550
2020/01/31 00:44:07.2	48.600	0.200	-0.050	0.550
2020/01/31 00:44:07.3	48.710	0.190	-0.060	0.540
2020/01/31 00:44:07.4	48.830	0.170	-0.080	0.520
2020/01/31 00:44:07.5	48.940	0.160	-0.090	0.510
2020/01/31 00:44:07.6	49.060	0.140	-0.100	0.500
2020/01/31 00:44:07.7	49.170	0.120	-0.110	0.490
2020/01/31 00:44:07.8	49.280	0.110	-0.120	0.470
2020/01/31 00:44:07.9	49.380	0.090	-0.120	0.460
2020/01/31 00:44:08.0	49.490	0.080	-0.130	0.450
2020/01/31 00:44:08.1	49.600	0.060	-0.130	0.440
2020/01/31 00:44:08.2	49.700	0.040	-0.130	0.420
2020/01/31 00:44:08.3	49.810	0.030	-0.130	0.410
2020/01/31 00:44:08.4	49.910	0.020	-0.130	0.400
2020/01/31 00:44:08.5	50.010	0.000	-0.130	0.400
2020/01/31 00:44:08.6	50.110	-0.010	-0.130	0.390
2020/01/31 00:44:08.7	50.210	-0.020	-0.130	0.380
2020/01/31 00:44:08.8	50.300	-0.030	-0.130	0.380
2020/01/31 00:44:08.9	50.380	-0.040	-0.140	0.370
2020/01/31 00:44:09.0	50.470	-0.050	-0.130	0.370
2020/01/31 00:44:09.1	50.560	-0.060	-0.130	0.370
2020/01/31 00:44:09.2	50.650	-0.070	-0.130	0.370
2020/01/31 00:44:09.3	50.730	-0.070	-0.130	0.370
2020/01/31 00:44:09.4	50.810	-0.080	-0.130	0.380
2020/01/31 00:44:09.5	50.900	-0.080	-0.130	0.380
2020/01/31 00:44:09.6	50.970	-0.090	-0.130	0.390
2020/01/31 00:44:09.7	51.050	-0.090	-0.130	0.400
2020/01/31 00:44:09.8	51.130	-0.090	-0.120	0.420
2020/01/31 00:44:09.9	51.200	-0.100	-0.130	0.430
2020/01/31 00:44:10.0	51.270	-0.100	-0.120	0.450
2020/01/31 00:44:10.1	51.340	-0.100	-0.110	0.470
2020/01/31 00:44:10.2	51.400	-0.110	-0.110	0.490
2020/01/31 00:44:10.3	51.470	-0.110	-0.100	0.500
2020/01/31 00:44:10.4	51.530	-0.110	-0.090	0.520
2020/01/31 00:44:10.5	51.600	-0.120	-0.080	0.540
2020/01/31 00:44:10.6	51.660	-0.120	-0.060	0.560
2020/01/31 00:44:10.7	51.720	-0.130	-0.050	0.580
2020/01/31 00:44:10.8	51.780	-0.130	-0.030	0.590
2020/01/31 00:44:10.9	51.830	-0.140	-0.020	0.600
2020/01/31 00:44:11.0	51.900	-0.150	-0.000	0.620
2020/01/31 00:44:11.1	51.960	-0.150	0.020	0.630
2020/01/31 00:44:11.2	52.030	-0.160	0.030	0.640
2020/01/31 00:44:11.3	52.090	-0.170	0.050	0.640
2020/01/31 00:44:11.4	52.160	-0.180	0.070	0.640
2020/01/31 00:44:11.5	52.230	-0.190	0.090	0.640
2020/01/31 00:44:11.6	52.310	-0.200	0.110	0.630
2020/01/31 00:44:11.7	52.390	-0.210	0.120	0.620
2020/01/31 00:44:11.8	52.470	-0.220	0.140	0.610
2020/01/31 00:44:11.9	52.550	-0.230	0.150	0.590
2020/01/31 00:44:12.0	52.640	-0.230	0.160	0.560
2020/01/31 00:44:12.1	52.730	-0.240	0.170	0.540
2020/01/31 00:44:12.2	52.830	-0.250	0.180	0.510
2020/01/31 00:44:12.3	52.920	-0.250	0.190	0.470
2020/01/31 00:44:12.4	53.020	-0.260	0.190	0.430
2020/01/31 00:44:12.5	53.120	-0.260	0.190	0.400
2020/01/31 00:44:12.6	53.220	-0.270	0.190	0.360
2020/01/31 00:44:12.7	53.330	-0.270	0.190	0.320
2020/01/31 00:44:12.8	53.430	-0.270	0.190	0.280
2020/01/31 00:44:12.9	53.540	-0.270	0.180	0.240
2020/01/31 00:44:13.0	53.650	-0.280	0.180	0.200
2020/01/31 00:44:13.1	53.750	-0.280	0.170	0.160
2020/01/31 00:44:13.2	53.850	-0.270	0.160	0.130
2020/01/31 00:44:13.3	53.950	-0.270	0.150	0.100
2020/01/31 00:44:13.4	54.050	-0.270	0.130	0.070
2020/01/31 00:44:13.5	54.140	-0.270	0.120	0.040
2020/01/31 00:44:13.6	54.240	-0.260	0.100	0.010
2020/01/31 00:44:13.7	54.330	-0.260	0.090	-0.010
2020/01/31 00:44:13.8	54.430	-0.250	0.070	-0.030
2020/01/31 00:44:13.9	54.520	-0.250	0.050	-0.040
2020/01/31 00:44:14.0	54.610	-0.240	0.030	-0.050
2020/01/31 00:44:14.1	54.700	-0.240	0.010	-0.070
2020/01/31 00:44:14.2	54.790	-0.230	-0.020	-0.070
2020/01/31 00:44:14.3	54.880	-0.220	-0.040	-0.080
2020/01/31 00:44:14.4	54.970	-0.210	-0.070	-0.080
2020/01/31 00:44:14.5	55.050	-0.200	-0.090	-0.090
2020/01/31 00:44:14.6	55.140	-0.190	-0.120	-0.090
2020/01/31 00:44:14.7	55.230	-0.180	-0.140	-0.080
2020/01/31 00:44:14.8	55.310	-0.170	-0.170	-0.080
2020/01/31 00:44:14.9	55.420	-0.160	-0.200	-0.070
2020/01/31 00:44:15.0	55.510	-0.150	-0.230	-0.070
2020/01/31 00:44:15.1	55.590	-0.140	-0.260	-0.060
2020/01/31 00:44:15.2	55.680	-0.130	-0.290	-0.060
2020/01/31 00:44:15.3	55.770	-0.110	-0.320	-0.050
2020/01/31 00:44:15.4	55.870	-0.100	-0.350	-0.040
2020/01/31 00:44:15.5	55.960	-0.090	-0.380	-0.040
2020/01/31 00:44:15.6	56.050	-0.070	-0.400	-0.030
2020/01/31 00:44:15.7	56.140	-0.060	-0.430	-0.020
2020/01/31 00:44:15.8	56.230	-0.040	-0.460	-0.010
2020/01/31 00:44:15.9	56.340	-0.030	-0.490	-0.000
2020/01/31 00:44:16.0	56.430	-0.010	-0.510	0.000
2020/01/31 00:44:16.1	56.520	0.000	-0.540	0.010
2020/01/31 00:44:16.2	56.620	0.020	-0.560	0.020
2020/01/31 00:44:16.3	56.710	0.030	-0.580	0.030
2020/01/31 00:44:16.4	56.810	0.040	-0.600	0.040
2020/01/31 00:44:16.5	56.900	0.060	-0.620	0.040
2020/01/31 00:44:16.6	56.990	0.070	-0.630	0.050
2020/01/31 00:44:16.7	57.090	0.090	-0.650	0.060
2020/01/31 00:44:16.8	57.180	0.100	-0.650	0.060
2020/01/31 00:44:16.9	57.270	0.110	-0.660	0.070
2020/01/31 00:44:17.0	57.370	0.120	-0.660	0.080
2020/01/31 00:44:17.1	57.460	0.130	-0.660	0.090
2020/01/31 00:44:17.2	57.550	0.140	-0.660	0.100
2020/01/31 00:44:17.3	57.650	0.150	-0.650	0.110
2020/01/31 00:44:17.4	57.740	0.160	-0.640	0.120
2020/01/31 00:44:17.5	57.830	0.170	-0.620	0.130
2020/01/31 00:44:17.6	57.920	0.170	-0.600	0.140
2020/01/31 00:44:17.7	58.010	0.170	-0.570	0.160
2020/01/31 00:44:17.8	58.100	0.180	-0.540	0.180
2020/01/31 00:44:17.9	58.180	0.180	-0.510	0.190
2020/01/31 00:44:18.0	58.270	0.180	-0.470	0.200
2020/01/31 00:44:18.1	58.360	0.170	-0.430	0.220
2020/01/31 00:44:18.2	58.440	0.170	-0.390	0.250
2020/01/31 00:44:18.3	58.520	0.160	-0.340	0.270
2020/01/31 00:44:18.4	58.610	0.160	-0.290	0.290
2020/01/31 00:44:18.5	58.690	0.150	-0.240	0.320
2020/01/31 00:44:18.6	58.770	0.140	-0.180	0.350
2020/01/31 00:44:18.7	58.840	0.130	-0.130	0.370
2020/01/31 00:44:18.8	58.920	0.110	-0.070	0.400
2020/01/31 00:44:18.9	58.990	0.100	-0.010	0.430
2020/01/31 00:44:19.0	59.060	0.080	0.050	0.460
2020/01/31 00:44:19.1	59.130	0.070	0.110	0.490
2020/01/31 00:44:19.2	59.200	0.050	0.170	0.520
2020/01/31 00:44:19.3	59.270	0.030	0.230	0.540
2020/01/31 00:44:19.4	59.340	0.010	0.280	0.570
2020/01/31 00:44:19.5	59.410	-0.010	0.340	0.590
2020/01/31 00:44:19.6	59.480	-0.030	0.390	0.620
2020/01/31 00:44:19.7	59.550	-0.050	0.440	0.640
2020/01/31 00:44:19.8	59.620	-0.070	0.480	0.660
2020/01/31 00:44:19.9	59.670	-0.080	0.520	0.670
2020/01/31 00:44:20.0	59.740	-0.100	0.550	0.690
2020/01/31 00:44:20.1	59.810	-0.120	0.580	0.700
2020/01/31 00:44:20.2	59.880	-0.140	0.600	0.710
2020/01/31 00:44:20.3	59.950	-0.150	0.620	0.720
2020/01/31 00:44:20.4	60.030	-0.160	0.630	0.720
2020/01/31 00:44:20.5	60.100	-0.170	0.630	0.730
2020/01/31 00:44:20.6	60.180	-0.180	0.630	0.720
2020/01/31 00:44:20.7	60.260	-0.190	0.620	0.720
2020/01/31 00:44:20.8	60.340	-0.190	0.600	0.710
2020/01/31 00:44:20.9	60.420	-0.200	0.580	0.700
2020/01/31 00:44:21.0	60.500	-0.190	0.550	0.680
2020/01/31 00:44:21.1	60.590	-0.190	0.510	0.660
2020/01/31 00:44:21.2	60.680	-0.180	0.460	0.630
2020/01/31 00:44:21.3	60.770	-0.180	0.410	0.600
2020/01/31 00:44:21.4	60.870	-0.160	0.350	0.570
2020/01/31 00:44:21.5	60.970	-0.150	0.290	0.540
2020/01/31 00:44:21.6	61.060	-0.130	0.230	0.500
2020/01/31 00:44:21.7	61.170	-0.110	0.160	0.460
2020/01/31 00:44:21.8	61.270	-0.090	0.080	0.410
2020/01/31 00:44:21.9	61.360	-0.060	0.000	0.370
2020/01/31 00:44:22.0	61.460	-0.040	-0.070	0.320
2020/01/31 00:44:22.1	61.570	-0.010	-0.150	0.280
2020/01/31 00:44:22.2	61.670	0.030	-0.230	0.230
2020/01/31 00:44:22.3	61.780	0.060	-0.310	0.180
2020/01/31 00:44:22.4	61.890	0.090	-0.390	0.130
2020/01/31 00:44:22.5	62.000	0.130	-0.470	0.090
2020/01/31 00:44:22.6	62.100	0.160	-0.540	0.040
2020/01/31 00:44:22.7	62.210	0.200	-0.610	-0.000
2020/01/31 00:44:22.8	62.320	0.240	-0.680	-0.050
2020/01/31 00:44:22.9	62.400	0.270	-0.740	-0.090
2020/01/31 00:44:23.0	62.510	0.310	-0.800	-0.130
2020/01/31 00:44:23.1	62.610	0.350	-0.850	-0.160
2020/01/31 00:44:23.2	62.720	0.380	-0.890	-0.200
2020/01/31 00:44:23.3	62.820	0.410	-0.930	-0.220
2020/01/31 00:44:23.4	62.920	0.440	-0.960	-0.250
2020/01/31 00:44:23.5	63.020	0.470	-0.990	-0.270
2020/01/31 00:44:23.6	63.110	0.500	-1.000	-0.280
2020/01/31 00:44:23.7	63.210	0.530	-1.010	-0.290
2020/01/31 00:44:23.8	63.300	0.550	-1.020	-0.300
2020/01/31 00:44:23.9	63.390	0.570	-1.010	-0.290
2020/01/31 00:44:24.0	63.480	0.580	-0.990	-0.290
2020/01/31 00:44:24.1	63.570	0.590	-0.970	-0.280
2020/01/31 00:44:24.2	63.650	0.600	-0.950	-0.270
2020/01/31 00:44:24.3	63.740	0.600	-0.910	-0.250
2020/01/31 00:44:24.4	63.820	0.610	-0.870	-0.230
2020/01/31 00:44:24.5	63.910	0.600	-0.830	-0.200
2020/01/31 00:44:24.6	63.990	0.600	-0.770	-0.170
2020/01/31 00:44:24.7	64.070	0.580	-0.720	-0.130
2020/01/31 00:44:24.8	64.150	0.570	-0.660	-0.100
2020/01/31 00:44:24.9	64.240	0.550	-0.590	-0.050
2020/01/31 00:44:25.0	64.310	0.530	-0.520	-0.010
2020/01/31 00:44:25.1	64.390	0.510	-0.450	0.030
2020/01/31 00:44:25.2	64.470	0.480	-0.380	0.080
2020/01/31 00:44:25.3	64.550	0.440	-0.300	0.130
2020/01/31 00:44:25.4	64.620	0.410	-0.230	0.180
2020/01/31 00:44:25.5	64.700	0.370	-0.150	0.230
2020/01/31 00:44:25.6	64.780	0.330	-0.070	0.280
2020/01/31 00:44:25.7	64.860	0.290	0.000	0.330
2020/01/31 00:44:25.8	64.940	0.250	0.080	0.380
2020/01/31 00:44:25.9	65.030	0.200	0.150	0.430
2020/01/31 00:44:26.0	65.110	0.150	0.220	0.480
2020/01/31 00:44:26.1	65.200	0.100	0.290	0.530
2020/01/31 00:44:26.2	65.280	0.050	0.360	0.580
2020/01/31 00:44:26.3	65.360	0.000	0.420	0.620
2020/01/31 00:44:26.4	65.450	-0.050	0.480	0.660
2020/01/31 00:44:26.5	65.530	-0.100	0.530	0.700
2020/01/31 00:44:26.6	65.620	-0.150	0.580	0.740
2020/01/31 00:44:26.7	65.700	-0.200	0.630	0.780
2020/01/31 00:44:26.8	65.790	-0.250	0.670	0.810
2020/01/31 00:44:26.9	65.890	-0.290	0.710	0.840
2020/01/31 00:44:27.0	65.980	-0.340	0.740	0.870
2020/01/31 00:44:27.1	66.060	-0.390	0.770	0.900
2020/01/31 00:44:27.2	66.150	-0.430	0.790	0.920
2020/01/31 00:44:27.3	66.240	-0.470	0.810	0.930
2020/01/31 00:44:27.4	66.330	-0.510	0.830	0.950
2020/01/31 00:44:27.5	66.420	-0.550	0.840	0.960
2020/01/31 00:44:27.6	66.510	-0.580	0.850	0.970
2020/01/31 00:44:27.7	66.600	-0.610	0.850	0.970
2020/01/31 00:44:27.8	66.690	-0.640	0.850	0.980
2020/01/31 00:44:27.9	66.790	-0.670	0.840	0.970
2020/01/31 00:44:28.0	66.880	-0.690	0.830	0.960
2020/01/31 00:44:28.1	66.970	-0.710	0.820	0.960
2020/01/31 00:44:28.2	67.060	-0.730	0.800	0.950
2020/01/31 00:44:28.3	67.150	-0.750	0.780	0.940
2020/01/31 00:44:28.4	67.240	-0.760	0.750	0.920
2020/01/31 00:44:28.5	67.320	-0.770	0.720	0.910
2020/01/31 00:44:28.6	67.410	-0.780	0.680	0.890
2020/01/31 00:44:28.7	67.500	-0.780	0.650	0.870
2020/01/31 00:44:28.8	67.580	-0.780	0.610	0.850
2020/01/31 00:44:28.9	67.680	-0.780	0.560	0.840
2020/01/31 00:44:29.0	67.770	-0.780	0.510	0.820
2020/01/31 00:44:29.1	67.850	-0.770	0.470	0.800
2020/01/31 00:44:29.2	67.940	-0.760	0.410	0.780
2020/01/31 00:44:29.3	68.020	-0.750	0.360	0.760
2020/01/31 00:44:29.4	68.110	-0.740	0.300	0.740
2020/01/31 00:44:29.5	68.190	-0.720	0.240	0.720
2020/01/31 00:44:29.6	68.270	-0.700	0.180	0.700
2020/01/31 00:44:29.7	68.360	-0.680	0.120	0.680
2020/01/31 00:44:29.8	68.440	-0.660	0.060	0.660
2020/01/31 00:44:29.9	68.540	-0.630	-0.010	0.630
2020/01/31 00:44:30.0	68.630	-0.610	-0.080	0.610
2020/01/31 00:44:30.1	68.720	-0.580	-0.150	0.590
2020/01/31 00:44:30.2	68.810	-0.550	-0.220	0.570
2020/01/31 00:44:30.3	68.900	-0.510	-0.280	0.550
2020/01/31 00:44:30.4	68.990	-0.480	-0.350	0.520
2020/01/31 00:44:30.5	69.090	-0.440	-0.420	0.500
2020/01/31 00:44:30.6	69.180	-0.400	-0.490	0.470
2020/01/31 00:44:30.7	69.280	-0.360	-0.560	0.440
2020/01/31 00:44:30.8	69.380	-0.320	-0.620	0.420
2020/01/31 00:44:30.9	69.480	-0.280	-0.690	0.390
2020/01/31 00:44:31.0	69.580	-0.230	-0.750	0.350
2020/01/31 00:44:31.1	69.690	-0.190	-0.810	0.320
2020/01/31 00:44:31.2	69.800	-0.140	-0.870	0.290
2020/01/31 00:44:31.3	69.900	-0.090	-0.920	0.250
2020/01/31 00:44:31.4	70.010	-0.050	-0.970	0.220
2020/01/31 00:44:31.5	70.120	0.000	-1.020	0.180
2020/01/31 00:44:31.6	70.230	0.050	-1.060	0.150
2020/01/31 00:44:31.7	70.340	0.090	-1.090	0.110
2020/01/31 00:44:31.8	70.450	0.140	-1.120	0.080
2020/01/31 00:44:31.9	70.560	0.190	-1.140	0.050
2020/01/31 00:44:32.0	70.660	0.230	-1.160	0.020
2020/01/31 00:44:32.1	70.760	0.270	-1.170	-0.010
2020/01/31 00:44:32.2	70.860	0.310	-1.170	-0.030
2020/01/31 00:44:32.3	70.960	0.350	-1.160	-0.050
2020/01/31 00:44:32.4	71.050	0.390	-1.150	-0.060
2020/01/31 00:44:32.5	71.140	0.420	-1.130	-0.070
2020/01/31 00:44:32.6	71.230	0.450	-1.100	-0.080
2020/01/31 00:44:32.7	71.310	0.480	-1.070	-0.080
2020/01/31 00:44:32.8	71.390	0.500	-1.030	-0.080
2020/01/31 00:44:32.9	71.470	0.520	-0.980	-0.070
2020/01/31 00:44:33.0	71.550	0.540	-0.930	-0.070
2020/01/31 00:44:33.1	71.610	0.550	-0.870	-0.060
2020/01/31 00:44:33.2	71.680	0.560	-0.810	-0.040
2020/01/31 00:44:33.3	71.740	0.570	-0.750	-0.030
2020/01/31 00:44:33.4	71.800	0.570	-0.670	-0.010
2020/01/31 00:44:33.5	71.850	0.570	-0.600	0.010
2020/01/31 00:44:33.6	71.910	0.560	-0.520	0.040
2020/01/31 00:44:33.7	71.960	0.550	-0.440	0.060
2020/01/31 00:44:33.8	72.000	0.540	-0.360	0.080
2020/01/31 00:44:33.9	72.060	0.520	-0.280	0.110
2020/01/31 00:44:34.0	72.110	0.500	-0.190	0.130
2020/01/31 00:44:34.1	72.150	0.470	-0.110	0.150
2020/01/31 00:44:34.2	72.190	0.440	-0.030	0.180
2020/01/31 00:44:34.3	72.230	0.410	0.050	0.200
2020/01/31 00:44:34.4	72.270	0.380	0.130	0.210
2020/01/31 00:44:34.5	72.310	0.350	0.200	0.230
2020/01/31 00:44:34.6	72.340	0.310	0.270	0.250
2020/01/31 00:44:34.7	72.380	0.270	0.340	0.260
2020/01/31 00:44:34.8	72.420	0.230	0.400	0.270
2020/01/31 00:44:34.9	72.450	0.190	0.460	0.270
2020/01/31 00:44:35.0	72.480	0.150	0.510	0.280
2020/01/31 00:44:35.1	72.520	0.110	0.550	0.280
2020/01/31 00:44:35.2	72.560	0.070	0.580	0.280
2020/01/31 00:44:35.3	72.600	0.040	0.610	0.270
2020/01/31 00:44:35.4	72.640	0.000	0.640	0.270
2020/01/31 00:44:35.5	72.680	-0.030	0.650	0.260
2020/01/31 00:44:35.6	72.720	-0.060	0.660	0.250
2020/01/31 00:44:35.7	72.770	-0.090	0.660	0.240
2020/01/31 00:44:35.8	72.810	-0.120	0.650	0.220
2020/01/31 00:44:35.9	72.850	-0.140	0.640	0.200
2020/01/31 00:44:36.0	72.900	-0.160	0.610	0.180
2020/01/31 00:44:36.1	72.950	-0.180	0.590	0.160
2020/01/31 00:44:36.2	73.000	-0.190	0.550	0.140
2020/01/31 00:44:36.3	73.050	-0.200	0.510	0.120
2020/01/31 00:44:36.4	73.110	-0.200	0.460	0.100
2020/01/31 00:44:36.5	73.160	-0.200	0.410	0.070
2020/01/31 00:44:36.6	73.220	-0.200	0.360	0.040
2020/01/31 00:44:36.7	73.290	-0.190	0.300	0.010
2020/01/31 00:44:36.8	73.350	-0.180	0.240	-0.020
2020/01/31 00:44:36.9	73.410	-0.170	0.180	-0.050
2020/01/31 00:44:37.0	73.480	-0.150	0.110	-0.090
2020/01/31 00:44:37.1	73.550	-0.130	0.040	-0.120
2020/01/31 00:44:37.2	73.620	-0.100	-0.020	-0.160
2020/01/31 00:44:37.3	73.700	-0.070	-0.090	-0.200
2020/01/31 00:44:37.4	73.780	-0.050	-0.150	-0.240
2020/01/31 00:44:37.5	73.860	-0.010	-0.220	-0.280
2020/01/31 00:44:37.6	73.940	0.020	-0.280	-0.320
2020/01/31 00:44:37.7	74.020	0.050	-0.340	-0.360
2020/01/31 00:44:37.8	74.110	0.090	-0.400	-0.400
2020/01/31 00:44:37.9	74.210	0.120	-0.460	-0.450
2020/01/31 00:44:38.0	74.300	0.160	-0.510	-0.490
2020/01/31 00:44:38.1	74.390	0.190	-0.550	-0.540
2020/01/31 00:44:38.2	74.480	0.230	-0.590	-0.580
2020/01/31 00:44:38.3	74.570	0.260	-0.630	-0.630
2020/01/31 00:44:38.4	74.660	0.290	-0.660	-0.670
2020/01/31 00:44:38.5	74.760	0.320	-0.690	-0.710
2020/01/31 00:44:38.6	74.850	0.350	-0.710	-0.750
2020/01/31 00:44:38.7	74.940	0.370	-0.730	-0.790
2020/01/31 00:44:38.8	75.040	0.390	-0.740	-0.830
2020/01/31 00:44:38.9	75.130	0.410	-0.740	-0.860
2020/01/31 00:44:39.0	75.220	0.420	-0.740	-0.890
2020/01/31 00:44:39.1	75.310	0.430	-0.730	-0.920
2020/01/31 00:44:39.2	75.400	0.440	-0.720	-0.940
2020/01/31 00:44:39.3	75.480	0.440	-0.700	-0.960
2020/01/31 00:44:39.4	75.560	0.440	-0.680	-0.980
2020/01/31 00:44:39.5	75.640	0.430	-0.650	-0.990
2020/01/31 00:44:39.6	75.720	0.420	-0.620	-0.990
2020/01/31 00:44:39.7	75.790	0.410	-0.580	-0.990
2020/01/31 00:44:39.8	75.870	0.390	-0.530	-0.990
2020/01/31 00:44:39.9	75.960	0.360	-0.480	-0.980
2020/01/31 00:44:40.0	76.030	0.330	-0.420	-0.960
2020/01/31 00:44:40.1	76.090	0.300	-0.360	-0.940
2020/01/31 00:44:40.2	76.140	0.260	-0.300	-0.920
2020/01/31 00:44:40.3	76.190	0.220	-0.230	-0.880
2020/01/31 00:44:40.4	76.240	0.180	-0.160	-0.850
2020/01/31 00:44:40.5	76.290	0.130	-0.080	-0.810
2020/01/31 00:44:40.6	76.330	0.080	-0.000	-0.760
2020/01/31 00:44:40.7	76.360	0.030	0.080	-0.710
2020/01/31 00:44:40.8	76.390	-0.030	0.160	-0.660
2020/01/31 00:44:40.9	76.410	-0.080	0.240	-0.600
2020/01/31 00:44:41.0	76.430	-0.140	0.320	-0.540
2020/01/31 00:44:41.1	76.450	-0.200	0.400	-0.470
2020/01/31 00:44:41.2	76.470	-0.260	0.490	-0.410
2020/01/31 00:44:41.3	76.480	-0.320	0.570	-0.350
2020/01/31 00:44:41.4	76.490	-0.380	0.640	-0.280
2020/01/31 00:44:41.5	76.500	-0.440	0.720	-0.210
2020/01/31 00:44:41.6	76.510	-0.500	0.790	-0.150
2020/01/31 00:44:41.7	76.510	-0.560	0.850	-0.080
2020/01/31 00:44:41.8	76.510	-0.610	0.910	-0.020
2020/01/31 00:44:41.9	76.490	-0.660	0.970	0.040
2020/01/31 00:44:42.0	76.490	-0.710	1.010	0.100
2020/01/31 00:44:42.1	76.490	-0.750	1.050	0.160
2020/01/31 00:44:42.2	76.490	-0.790	1.080	0.220
2020/01/31 00:44:42.3	76.500	-0.830	1.100	0.270
2020/01/31 00:44:42.4	76.500	-0.860	1.120	0.320
2020/01/31 00:44:42.5	76.500	-0.880	1.120	0.360
2020/01/31 00:44:42.6	76.510	-0.900	1.110	0.400
2020/01/31 00:44:42.7	76.520	-0.920	1.090	0.440
2020/01/31 00:44:42.8	76.530	-0.930	1.060	0.470
2020/01/31 00:44:42.9	76.530	-0.930	1.020	0.500
2020/01/31 00:44:43.0	76.550	-0.920	0.970	0.520
2020/01/31 00:44:43.1	76.570	-0.910	0.910	0.540
2020/01/31 00:44:43.2	76.590	-0.900	0.840	0.560
2020/01/31 00:44:43.3	76.610	-0.870	0.760	0.570
2020/01/31 00:44:43.4	76.630	-0.850	0.660	0.580
2020/01/31 00:44:43.5	76.660	-0.810	0.570	0.580
2020/01/31 00:44:43.6	76.690	-0.770	0.460	0.580
2020/01/31 00:44:43.7	76.730	-0.730	0.340	0.570
2020/01/31 00:44:43.8	76.760	-0.680	0.220	0.570
2020/01/31 00:44:43.9	76.790	-0.620	0.090	0.560
2020/01/31 00:44:44.0	76.830	-0.570	-0.040	0.550
2020/01/31 00:44:44.1	76.880	-0.510	-0.170	0.530
2020/01/31 00:44:44.2	76.920	-0.440	-0.300	0.520
2020/01/31 00:44:44.3	76.970	-0.380	-0.430	0.500
2020/01/31 00:44:44.4	77.020	-0.310	-0.560	0.490
2020/01/31 00:44:44.5	77.060	-0.240	-0.690	0.470
2020/01/31 00:44:44.6	77.110	-0.170	-0.810	0.450
2020/01/31 00:44:44.7	77.160	-0.100	-0.930	0.440
2020/01/31 00:44:44.8	77.210	-0.030	-1.050	0.420
2020/01/31 00:44:44.9	77.240	0.030	-1.150	0.410
2020/01/31 00:44:45.0	77.280	0.100	-1.250	0.400
2020/01/31 00:44:45.1	77.320	0.170	-1.340	0.390
2020/01/31 00:44:45.2	77.360	0.230	-1.420	0.380
2020/01/31 00:44:45.3	77.400	0.290	-1.500	0.370
2020/01/31 00:44:45.4	77.440	0.350	-1.560	0.370
2020/01/31 00:44:45.5	77.470	0.400	-1.600	0.360
2020/01/31 00:44:45.6	77.500	0.450	-1.640	0.360
2020/01/31 00:44:45.7	77.520	0.500	-1.670	0.360
2020/01/31 00:44:45.8	77.550	0.540	-1.680	0.350
2020/01/31 00:44:45.9	77.580	0.580	-1.690	0.360
2020/01/31 00:44:46.0	77.600	0.610	-1.680	0.360
2020/01/31 00:44:46.1	77.620	0.640	-1.660	0.360
2020/01/31 00:44:46.2	77.630	0.660	-1.630	0.370
2020/01/31 00:44:46.3	77.640	0.680	-1.580	0.370
2020/01/31 00:44:46.4	77.640	0.700	-1.530	0.370
2020/01/31 00:44:46.5	77.650	0.710	-1.470	0.370
2020/01/31 00:44:46.6	77.650	0.710	-1.400	0.380
2020/01/31 00:44:46.7	77.650	0.710	-1.320	0.380
2020/01/31 00:44:46.8	77.650	0.710	-1.240	0.380
2020/01/31 00:44:46.9	77.640	0.700	-1.150	0.370
2020/01/31 00:44:47.0	77.630	0.690	-1.050	0.380
2020/01/31 00:44:47.1	77.630	0.680	-0.950	0.380
2020/01/31 00:44:47.2	77.620	0.660	-0.840	0.370
2020/01/31 00:44:47.3	77.620	0.640	-0.730	0.370
2020/01/31 00:44:47.4	77.610	0.610	-0.620	0.370
2020/01/31 00:44:47.5	77.610	0.580	-0.510	0.360
2020/01/31 00:44:47.6	77.600	0.550	-0.400	0.350
2020/01/31 00:44:47.7	77.600	0.520	-0.280	0.340
2020/01/31 00:44:47.8	77.600	0.490	-0.170	0.330
2020/01/31 00:44:47.9	77.590	0.450	-0.060	0.320
2020/01/31 00:44:48.0	77.590	0.420	0.050	0.300
2020/01/31 00:44:48.1	77.590	0.380	0.150	0.280
2020/01/31 00:44:48.2	77.600	0.340	0.250	0.260
2020/01/31 00:44:48.3	77.600	0.300	0.340	0.230
2020/01/31 00:44:48.4	77.600	0.260	0.430	0.200
2020/01/31 00:44:48.5	77.610	0.230	0.520	0.170
2020/01/31 00:44:48.6	77.620	0.190	0.590	0.140
2020/01/31 00:44:48.7	77.620	0.150	0.670	0.110
2020/01/31 00:44:48.8	77.630	0.120	0.730	0.070
2020/01/31 00:44:48.9	77.650	0.080	0.790	0.040
2020/01/31 00:44:49.0	77.660	0.050	0.840	0.000
2020/01/31 00:44:49.1	77.670	0.020	0.880	-0.040
2020/01/31 00:44:49.2	77.680	-0.010	0.920	-0.070
2020/01/31 00:44:49.3	77.690	-0.040	0.950	-0.110
2020/01/31 00:44:49.4	77.700	-0.060	0.970	-0.140
2020/01/31 00:44:49.5	77.720	-0.090	0.990	-0.180
2020/01/31 00:44:49.6	77.730	-0.110	1.000	-0.210
2020/01/31 00:44:49.7	77.740	-0.130	1.000	-0.250
2020/01/31 00:44:49.8	77.760	-0.150	0.990	-0.280
2020/01/31 00:44:49.9	77.770	-0.160	0.980	-0.310
2020/01/31 00:44:50.0	77.790	-0.180	0.960	-0.340
2020/01/31 00:44:50.1	77.800	-0.190	0.940	-0.370
2020/01/31 00:44:50.2	77.820	-0.200	0.910	-0.400
2020/01/31 00:44:50.3	77.840	-0.210	0.870	-0.430
2020/01/31 00:44:50.4	77.860	-0.210	0.830	-0.450
2020/01/31 00:44:50.5	77.870	-0.220	0.780	-0.480
2020/01/31 00:44:50.6	77.900	-0.220	0.730	-0.510
2020/01/31 00:44:50.7	77.920	-0.220	0.670	-0.530
2020/01/31 00:44:50.8	77.940	-0.220	0.610	-0.560
2020/01/31 00:44:50.9	77.990	-0.210	0.540	-0.580
2020/01/31 00:44:51.0	78.010	-0.210	0.470	-0.600
2020/01/31 00:44:51.1	78.040	-0.200	0.390	-0.630
2020/01/31 00:44:51.2	78.070	-0.190	0.320	-0.650
2020/01/31 00:44:51.3	78.100	-0.180	0.240	-0.670
2020/01/31 00:44:51.4	78.130	-0.170	0.160	-0.690
2020/01/31 00:44:51.5	78.160	-0.160	0.070	-0.710
2020/01/31 00:44:51.6	78.190	-0.150	-0.010	-0.720
2020/01/31 00:44:51.7	78.220	-0.130	-0.100	-0.740
2020/01/31 00:44:51.8	78.260	-0.120	-0.180	-0.760
2020/01/31 00:44:51.9	78.280	-0.100	-0.270	-0.770
2020/01/31 00:44:52.0	78.310	-0.090	-0.350	-0.780
2020/01/31 00:44:52.1	78.350	-0.070	-0.430	-0.790
2020/01/31 00:44:52.2	78.380	-0.060	-0.500	-0.790
2020/01/31 00:44:52.3	78.420	-0.040	-0.570	-0.790
2020/01/31 00:44:52.4	78.450	-0.020	-0.640	-0.790
2020/01/31 00:44:52.5	78.490	-0.010	-0.700	-0.790
2020/01/31 00:44:52.6	78.520	0.010	-0.750	-0.780
2020/01/31 00:44:52.7	78.550	0.020	-0.800	-0.760
2020/01/31 00:44:52.8	78.580	0.030	-0.840	-0.750
2020/01/31 00:44:52.9	78.610	0.040	-0.880	-0.720
2020/01/31 00:44:53.0	78.640	0.050	-0.900	-0.690
2020/01/31 00:44:53.1	78.660	0.060	-0.920	-0.660
2020/01/31 00:44:53.2	78.690	0.060	-0.930	-0.620
2020/01/31 00:44:53.3	78.710	0.070	-0.930	-0.580
2020/01/31 00:44:53.4	78.730	0.070	-0.920	-0.540
2020/01/31 00:44:53.5	78.750	0.070	-0.900	-0.490
2020/01/31 00:44:53.6	78.760	0.060	-0.880	-0.430
2020/01/31 00:44:53.7	78.780	0.060	-0.840	-0.380
2020/01/31 00:44:53.8	78.790	0.050	-0.800	-0.320
2020/01/31 00:44:53.9	78.820	0.040	-0.760	-0.250
2020/01/31 00:44:54.0	78.820	0.030	-0.700	-0.180
2020/01/31 00:44:54.1	78.830	0.010	-0.640	-0.110
2020/01/31 00:44:54.2	78.840	-0.000	-0.580	-0.040
2020/01/31 00:44:54.3	78.840	-0.020	-0.510	0.030
2020/01/31 00:44:54.4	78.850	-0.040	-0.440	0.110
2020/01/31 00:44:54.5	78.850	-0.060	-0.370	0.180
2020/01/31 00:44:54.6	78.850	-0.080	-0.300	0.260
2020/01/31 00:44:54.7	78.850	-0.100	-0.220	0.330
2020/01/31 00:44:54.8	78.850	-0.120	-0.150	0.410
2020/01/31 00:44:54.9	78.840	-0.140	-0.080	0.480
2020/01/31 00:44:55.0	78.840	-0.160	-0.020	0.550
2020/01/31 00:44:55.1	78.840	-0.180	0.050	0.620
2020/01/31 00:44:55.2	78.840	-0.200	0.100	0.680
2020/01/31 00:44:55.3	78.850	-0.220	0.160	0.740
2020/01/31 00:44:55.4	78.850	-0.230	0.200	0.800
2020/01/31 00:44:55.5	78.860	-0.250	0.240	0.850
2020/01/31 00:44:55.6	78.870	-0.260	0.280	0.900
2020/01/31 00:44:55.7	78.870	-0.270	0.310	0.940
2020/01/31 00:44:55.8	78.880	-0.280	0.330	0.980
2020/01/31 00:44:55.9	78.900	-0.280	0.340	1.010
2020/01/31 00:44:56.0	78.920	-0.280	0.350	1.040
2020/01/31 00:44:56.1	78.930	-0.280	0.340	1.060
2020/01/31 00:44:56.2	78.940	-0.270	0.340	1.090
2020/01/31 00:44:56.3	78.950	-0.270	0.320	1.100
2020/01/31 00:44:56.4	78.950	-0.260	0.300	1.120
2020/01/31 00:44:56.5	78.960	-0.240	0.270	1.130
2020/01/31 00:44:56.6	78.970	-0.230	0.240	1.140
2020/01/31 00:44:56.7	78.970	-0.210	0.210	1.150
2020/01/31 00:44:56.8	78.970	-0.190	0.170	1.160
2020/01/31 00:44:56.9	78.970	-0.170	0.130	1.170
2020/01/31 00:44:57.0	78.970	-0.140	0.080	1.170
2020/01/31 00:44:57.1	78.960	-0.120	0.040	1.180
2020/01/31 00:44:57.2	78.950	-0.090	-0.000	1.190
2020/01/31 00:44:57.3	78.930	-0.060	-0.050	1.190
2020/01/31 00:44:57.4	78.910	-0.040	-0.090	1.190
2020/01/31 00:44:57.5	78.890	-0.010	-0.140	1.200
2020/01/31 00:44:57.6	78.870	0.020	-0.180	1.200
2020/01/31 00:44:57.7	78.840	0.050	-0.220	1.200
2020/01/31 00:44:57.8	78.810	0.080	-0.260	1.200
2020/01/31 00:44:57.9	78.780	0.110	-0.290	1.200
2020/01/31 00:44:58.0	78.740	0.140	-0.320	1.190
2020/01/31 00:44:58.1	78.710	0.160	-0.340	1.190
2020/01/31 00:44:58.2	78.680	0.190	-0.370	1.180
2020/01/31 00:44:58.3	78.650	0.210	-0.380	1.170
2020/01/31 00:44:58.4	78.610	0.230	-0.400	1.160
2020/01/31 00:44:58.5	78.580	0.250	-0.410	1.140
2020/01/31 00:44:58.6	78.550	0.270	-0.420	1.120
2020/01/31 00:44:58.7	78.530	0.290	-0.420	1.100
2020/01/31 00:44:58.8	78.500	0.300	-0.420	1.080
2020/01/31 00:44:58.9	78.480	0.310	-0.420	1.040
2020/01/31 00:44:59.0	78.460	0.320	-0.410	1.010
2020/01/31 00:44:59.1	78.440	0.330	-0.400	0.980
2020/01/31 00:44:59.2	78.430	0.330	-0.390	0.940
2020/01/31 00:44:59.3	78.420	0.330	-0.380	0.900
2020/01/31 00:44:59.4	78.420	0.330	-0.360	0.860
2020/01/31 00:44:59.5	78.420	0.330	-0.350	0.810
2020/01/31 00:44:59.6	78.420	0.330	-0.330	0.770
2020/01/31 00:44:59.7	78.430	0.320	-0.310	0.710
2020/01/31 00:44:59.8	78.440	0.320	-0.300	0.660
2020/01/31 00:44:59.9	78.480	0.310	-0.280	0.600
2020/01/31 00:45:00.0	78.500	0.300	-0.260	0.540
2020/01/31 00:45:00.1	78.530	0.300	-0.250	0.470
2020/01/31 00:45:00.2	78.560	0.290	-0.240	0.400
2020/01/31 00:45:00.3	78.590	0.280	-0.230	0.330
2020/01/31 00:45:00.4	78.630	0.270	-0.220	0.260
2020/01/31 00:45:00.5	78.670	0.260	-0.210	0.190
2020/01/31 00:45:00.6	78.720	0.250	-0.210	0.110
2020/01/31 00:45:00.7	78.760	0.250	-0.210	0.030
2020/01/31 00:45:00.8	78.810	0.240	-0.210	-0.040
2020/01/31 00:45:00.9	78.870	0.230	-0.220	-0.130
2020/01/31 00:45:01.0	78.920	0.230	-0.230	-0.200
2020/01/31 00:45:01.1	78.980	0.230	-0.240	-0.280
2020/01/31 00:45:01.2	79.030	0.220	-0.250	-0.350
2020/01/31 00:45:01.3	79.090	0.220	-0.260	-0.420
2020/01/31 00:45:01.4	79.140	0.220	-0.270	-0.490
2020/01/31 00:45:01.5	79.200	0.220	-0.280	-0.550
2020/01/31 00:45:01.6	79.250	0.210	-0.290	-0.610
2020/01/31 00:45:01.7	79.300	0.210	-0.300	-0.660
2020/01/31 00:45:01.8	79.350	0.210	-0.310	-0.710
2020/01/31 00:45:01.9	79.400	0.210	-0.320	-0.750
2020/01/31 00:45:02.0	79.440	0.210	-0.320	-0.790
2020/01/31 00:45:02.1	79.470	0.210	-0.320	-0.820
2020/01/31 00:45:02.2	79.510	0.200	-0.320	-0.840
2020/01/31 00:45:02.3	79.530	0.200	-0.310	-0.860
2020/01/31 00:45:02.4	79.560	0.190	-0.300	-0.870
2020/01/31 00:45:02.5	79.580	0.180	-0.280	-0.870
2020/01/31 00:45:02.6	79.590	0.170	-0.260	-0.860
2020/01/31 00:45:02.7	79.600	0.160	-0.230	-0.850
2020/01/31 00:45:02.8	79.600	0.140	-0.200	-0.840
2020/01/31 00:45:02.9	79.610	0.130	-0.170	-0.810
2020/01/31 00:45:03.0	79.600	0.110	-0.130	-0.790
2020/01/31 00:45:03.1	79.590	0.080	-0.090	-0.750
2020/01/31 00:45:03.2	79.580	0.060	-0.040	-0.710
2020/01/31 00:45:03.3	79.560	0.030	0.010	-0.670
2020/01/31 00:45:03.4	79.540	0.000	0.070	-0.620
2020/01/31 00:45:03.5	79.520	-0.030	0.120	-0.570
2020/01/31 00:45:03.6	79.490	-0.060	0.180	-0.510
2020/01/31 00:45:03.7	79.460	-0.090	0.230	-0.450
2020/01/31 00:45:03.8	79.430	-0.130	0.290	-0.390
2020/01/31 00:45:03.9	79.390	-0.170	0.340	-0.330
2020/01/31 00:45:04.0	79.360	-0.210	0.390	-0.270
2020/01/31 00:45:04.1	79.320	-0.250	0.440	-0.200
2020/01/31 00:45:04.2	79.280	-0.280	0.490	-0.140
2020/01/31 00:45:04.3	79.250	-0.320	0.530	-0.070
2020/01/31 00:45:04.4	79.210	-0.360	0.560	-0.010
2020/01/31 00:45:04.5	79.170	-0.400	0.590	0.050
2020/01/31 00:45:04.6	79.140	-0.430	0.610	0.110
2020/01/31 00:45:04.7	79.100	-0.470	0.630	0.170
2020/01/31 00:45:04.8	79.070	-0.500	0.640	0.230
2020/01/31 00:45:04.9	79.040	-0.520	0.640	0.280
2020/01/31 00:45:05.0	79.010	-0.550	0.640	0.340
2020/01/31 00:45:05.1	78.980	-0.570	0.620	0.390
2020/01/31 00:45:05.2	78.950	-0.580	0.590	0.440
2020/01/31 00:45:05.3	78.930	-0.600	0.560	0.490
2020/01/31 00:45:05.4	78.900	-0.600	0.520	0.540
2020/01/31 00:45:05.5	78.880	-0.610	0.470	0.580
2020/01/31 00:45:05.6	78.860	-0.600	0.410	0.620
2020/01/31 00:45:05.7	78.840	-0.600	0.340	0.660
2020/01/31 00:45:05.8	78.830	-0.580	0.270	0.700
2020/01/31 00:45:05.9	78.830	-0.570	0.190	0.740
2020/01/31 00:45:06.0	78.820	-0.540	0.100	0.780
2020/01/31 00:45:06.1	78.820	-0.520	0.020	0.810
2020/01/31 00:45:06.2	78.810	-0.480	-0.080	0.830
2020/01/31 00:45:06.3	78.810	-0.450	-0.170	0.860
2020/01/31 00:45:06.4	78.820	-0.410	-0.260	0.880
2020/01/31 00:45:06.5	78.820	-0.360	-0.360	0.900
2020/01/31 00:45:06.6	78.830	-0.320	-0.450	0.910
2020/01/31 00:45:06.7	78.830	-0.270	-0.540	0.930
2020/01/31 00:45:06.8	78.840	-0.210	-0.620	0.940
2020/01/31 00:45:06.9	78.860	-0.160	-0.710	0.940
2020/01/31 00:45:07.0	78.870	-0.110	-0.790	0.940
2020/01/31 00:45:07.1	78.890	-0.050	-0.860	0.950
2020/01/31 00:45:07.2	78.900	0.010	-0.930	0.940
2020/01/31 00:45:07.3	78.920	0.060	-0.990	0.940
2020/01/31 00:45:07.4	78.930	0.120	-1.040	0.930
2020/01/31 00:45:07.5	78.950	0.170	-1.080	0.920
2020/01/31 00:45:07.6	78.970	0.230	-1.120	0.900
2020/01/31 00:45:07.7	78.980	0.280	-1.140	0.880
2020/01/31 00:45:07.8	79.000	0.330	-1.160	0.860
2020/01/31 00:45:07.9	79.010	0.370	-1.170	0.840
2020/01/31 00:45:08.0	79.020	0.410	-1.170	0.820
2020/01/31 00:45:08.1	79.040	0.450	-1.160	0.790
2020/01/31 00:45:08.2	79.050	0.490	-1.140	0.760
2020/01/31 00:45:08.3	79.070	0.520	-1.110	0.730
2020/01/31 00:45:08.4	79.080	0.540	-1.070	0.700
2020/01/31 00:45:08.5	79.090	0.570	-1.020	0.670
2020/01/31 00:45:08.6	79.100	0.580	-0.970	0.630
2020/01/31 00:45:08.7	79.110	0.600	-0.900	0.600
2020/01/31 00:45:08.8	79.120	0.600	-0.830	0.570
2020/01/31 00:45:08.9	79.130	0.610	-0.760	0.540
2020/01/31 00:45:09.0	79.140	0.610	-0.680	0.510
2020/01/31 00:45:09.1	79.150	0.600	-0.590	0.480
2020/01/31 00:45:09.2	79.160	0.590	-0.500	0.450
2020/01/31 00:45:09.3	79.170	0.580	-0.410	0.430
2020/01/31 00:45:09.4	79.180	0.560	-0.310	0.400
2020/01/31 00:45:09.5	79.190	0.540	-0.220	0.380
2020/01/31 00:45:09.6	79.190	0.510	-0.120	0.370
2020/01/31 00:45:09.7	79.200	0.480	-0.030	0.350
2020/01/31 00:45:09.8	79.210	0.450	0.070	0.340
2020/01/31 00:45:09.9	79.220	0.420	0.160	0.330
2020/01/31 00:45:10.0	79.220	0.380	0.250	0.320
2020/01/31 00:45:10.1	79.230	0.350	0.330	0.320
2020/01/31 00:45:10.2	79.230	0.310	0.410	0.320
2020/01/31 00:45:10.3	79.240	0.270	0.480	0.330
2020/01/31 00:45:10.4	79.240	0.230	0.550	0.330
2020/01/31 00:45:10.5	79.250	0.190	0.610	0.340
2020/01/31 00:45:10.6	79.250	0.160	0.660	0.360
2020/01/31 00:45:10.7	79.250	0.120	0.700	0.370
2020/01/31 00:45:10.8	79.250	0.080	0.740	0.390
2020/01/31 00:45:10.9	79.270	0.050	0.770	0.410
2020/01/31 00:45:11.0	79.260	0.010	0.790	0.430
2020/01/31 00:45:11.1	79.260	-0.020	0.800	0.450
2020/01/31 00:45:11.2	79.260	-0.050	0.810	0.480
2020/01/31 00:45:11.3	79.250	-0.080	0.810	0.500
2020/01/31 00:45:11.4	79.250	-0.110	0.790	0.520
2020/01/31 00:45:11.5	79.240	-0.130	0.780	0.550
2020/01/31 00:45:11.6	79.230	-0.150	0.750	0.570
2020/01/31 00:45:11.7	79.230	-0.170	0.720	0.590
2020/01/31 00:45:11.8	79.220	-0.190	0.680	0.600
2020/01/31 00:45:11.9	79.220	-0.200	0.630	0.620
2020/01/31 00:45:12.0	79.210	-0.220	0.580	0.630
2020/01/31 00:45:12.1	79.200	-0.220	0.520	0.640
2020/01/31 00:45:12.2	79.190	-0.230	0.460	0.650
2020/01/31 00:45:12.3	79.180	-0.230	0.400	0.660
2020/01/31 00:45:12.4	79.170	-0.230	0.330	0.660
2020/01/31 00:45:12.5	79.160	-0.230	0.250	0.660
2020/01/31 00:45:12.6	79.150	-0.220	0.180	0.650
2020/01/31 00:45:12.7	79.140	-0.210	0.100	0.650
2020/01/31 00:45:12.8	79.140	-0.200	0.020	0.640
2020/01/31 00:45:12.9	79.130	-0.190	-0.070	0.630
2020/01/31 00:45:13.0	79.120	-0.170	-0.150	0.620
2020/01/31 00:45:13.1	79.110	-0.160	-0.230	0.600
2020/01/31 00:45:13.2	79.110	-0.140	-0.320	0.590
2020/01/31 00:45:13.3	79.100	-0.120	-0.400	0.580
2020/01/31 00:45:13.4	79.100	-0.100	-0.480	0.570
2020/01/31 00:45:13.5	79.100	-0.070	-0.560	0.550
2020/01/31 00:45:13.6	79.090	-0.050	-0.630	0.540
2020/01/31 00:45:13.7	79.090	-0.020	-0.700	0.530
2020/01/31 00:45:13.8	79.090	0.000	-0.770	0.520
2020/01/31 00:45:13.9	79.070	0.030	-0.830	0.500
2020/01/31 00:45:14.0	79.080	0.050	-0.890	0.490
2020/01/31 00:45:14.1	79.080	0.080	-0.950	0.490
2020/01/31 00:45:14.2	79.080	0.100	-0.990	0.480
2020/01/31 00:45:14.3	79.090	0.120	-1.030	0.480
2020/01/31 00:45:14.4	79.100	0.150	-1.070	0.470
2020/01/31 00:45:14.5	79.110	0.170	-1.100	0.470
2020/01/31 00:45:14.6	79.120	0.190	-1.120	0.470
2020/01/31 00:45:14.7	79.130	0.200	-1.130	0.470
2020/01/31 00:45:14.8	79.140	0.220	-1.140	0.470
2020/01/31 00:45:14.9	79.170	0.230	-1.130	0.470
2020/01/31 00:45:15.0	79.180	0.250	-1.120	0.480
2020/01/31 00:45:15.1	79.200	0.260	-1.110	0.480
2020/01/31 00:45:15.2	79.210	0.260	-1.080	0.490
2020/01/31 00:45:15.3	79.230	0.270	-1.050	0.500
2020/01/31 00:45:15.4	79.250	0.270	-1.010	0.500
2020/01/31 00:45:15.5	79.270	0.270	-0.970	0.510
2020/01/31 00:45:15.6	79.280	0.270	-0.910	0.520
2020/01/31 00:45:15.7	79.300	0.260	-0.850	0.530
2020/01/31 00:45:15.8	79.320	0.250	-0.790	0.540
2020/01/31 00:45:15.9	79.330	0.240	-0.720	0.550
2020/01/31 00:45:16.0	79.350	0.230	-0.640	0.560
2020/01/31 00:45:16.1	79.360	0.210	-0.560	0.570
2020/01/31 00:45:16.2	79.380	0.200	-0.480	0.580
2020/01/31 00:45:16.3	79.390	0.180	-0.390	0.590
2020/01/31 00:45:16.4	79.400	0.160	-0.300	0.600
2020/01/31 00:45:16.5	79.410	0.140	-0.210	0.610
2020/01/31 00:45:16.6	79.420	0.110	-0.120	0.620
2020/01/31 00:45:16.7	79.420	0.090	-0.020	0.630
2020/01/31 00:45:16.8	79.430	0.060	0.070	0.630
2020/01/31 00:45:16.9	79.430	0.040	0.160	0.640
2020/01/31 00:45:17.0	79.440	0.010	0.250	0.640
2020/01/31 00:45:17.1	79.440	-0.020	0.330	0.650
2020/01/31 00:45:17.2	79.440	-0.040	0.410	0.650
2020/01/31 00:45:17.3	79.440	-0.070	0.490	0.650
2020/01/31 00:45:17.4	79.450	-0.090	0.560	0.650
2020/01/31 00:45:17.5	79.450	-0.120	0.630	0.640
2020/01/31 00:45:17.6	79.450	-0.140	0.680	0.640
2020/01/31 00:45:17.7	79.460	-0.160	0.730	0.630
2020/01/31 00:45:17.8	79.460	-0.180	0.780	0.620
2020/01/31 00:45:17.9	79.480	-0.200	0.810	0.600
2020/01/31 00:45:18.0	79.490	-0.220	0.830	0.590
2020/01/31 00:45:18.1	79.500	-0.230	0.850	0.570
2020/01/31 00:45:18.2	79.510	-0.250	0.860	0.550
2020/01/31 00:45:18.3	79.520	-0.260	0.860	0.530
2020/01/31 00:45:18.4	79.540	-0.260	0.850	0.510
2020/01/31 00:45:18.5	79.560	-0.270	0.840	0.480
2020/01/31 00:45:18.6	79.580	-0.270	0.810	0.460
2020/01/31 00:45:18.7	79.600	-0.270	0.780	0.430
2020/01/31 00:45:18.8	79.630	-0.260	0.730	0.410
2020/01/31 00:45:18.9	79.660	-0.260	0.680	0.380
2020/01/31 00:45:19.0	79.690	-0.250	0.630	0.350
2020/01/31 00:45:19.1	79.720	-0.240	0.570	0.330
2020/01/31 00:45:19.2	79.750	-0.230	0.500	0.300
2020/01/31 00:45:19.3	79.780	-0.210	0.430	0.270
2020/01/31 00:45:19.4	79.810	-0.190	0.350	0.250
2020/01/31 00:45:19.5	79.850	-0.170	0.270	0.220
2020/01/31 00:45:19.6	79.880	-0.150	0.190	0.200
2020/01/31 00:45:19.7	79.910	-0.130	0.110	0.180
2020/01/31 00:45:19.8	79.940	-0.110	0.030	0.160
2020/01/31 00:45:19.9	79.970	-0.090	-0.060	0.140
2020/01/31 00:45:20.0	80.000	-0.070	-0.140	0.130
2020/01/31 00:45:20.1	80.030	-0.040	-0.210	0.110
2020/01/31 00:45:20.2	80.050	-0.020	-0.290	0.100
2020/01/31 00:45:20.3	80.080	0.000	-0.360	0.100
2020/01/31 00:45:20.4	80.090	0.020	-0.430	0.090
2020/01/31 00:45:20.5	80.110	0.040	-0.490	0.090
2020/01/31 00:45:20.6	80.120	0.060	-0.550	0.090
2020/01/31 00:45:20.7	80.130	0.080	-0.600	0.090
2020/01/31 00:45:20.8	80.140	0.100	-0.650	0.100
2020/01/31 00:45:20.9	80.130	0.110	-0.690	0.110
2020/01/31 00:45:21.0	80.130	0.130	-0.720	0.120
2020/01/31 00:45:21.1	80.130	0.140	-0.750	0.140
2020/01/31 00:45:21.2	80.130	0.150	-0.770	0.160
2020/01/31 00:45:21.3	80.120	0.150	-0.780	0.180
2020/01/31 00:45:21.4	80.110	0.160	-0.780	0.200
2020/01/31 00:45:21.5	80.100	0.160	-0.780	0.230
2020/01/31 00:45:21.6	80.090	0.160	-0.780	0.250
2020/01/31 00:45:21.7	80.080	0.160	-0.770	0.280
2020/01/31 00:45:21.8	80.070	0.150	-0.750	0.310
2020/01/31 00:45:21.9	80.050	0.150	-0.720	0.340
2020/01/31 00:45:22.0	80.040	0.140	-0.700	0.360
2020/01/31 00:45:22.1	80.030	0.130	-0.670	0.390
2020/01/31 00:45:22.2	80.020	0.120	-0.630	0.420
2020/01/31 00:45:22.3	80.020	0.110	-0.590	0.450
2020/01/31 00:45:22.4	80.010	0.090	-0.560	0.480
2020/01/31 00:45:22.5	80.010	0.080	-0.520	0.500
2020/01/31 00:45:22.6	80.010	0.060	-0.470	0.530
2020/01/31 00:45:22.7	80.010	0.050	-0.430	0.550
2020/01/31 00:45:22.8	80.010	0.030	-0.390	0.570
2020/01/31 00:45:22.9	80.020	0.010	-0.340	0.590
2020/01/31 00:45:23.0	80.020	-0.000	-0.300	0.610
2020/01/31 00:45:23.1	80.020	-0.020	-0.260	0.630
2020/01/31 00:45:23.2	80.030	-0.030	-0.220	0.650
2020/01/31 00:45:23.3	80.040	-0.050	-0.180	0.660
2020/01/31 00:45:23.4	80.040	-0.060	-0.140	0.670
2020/01/31 00:45:23.5	80.050	-0.080	-0.110	0.680
2020/01/31 00:45:23.6	80.060	-0.090	-0.070	0.690
2020/01/31 00:45:23.7	80.070	-0.100	-0.040	0.700
2020/01/31 00:45:23.8	80.080	-0.110	-0.010	0.710
2020/01/31 00:45:23.9	80.110	-0.120	0.010	0.710
2020/01/31 00:45:24.0	80.120	-0.120	0.030	0.720
2020/01/31 00:45:24.1	80.130	-0.130	0.050	0.720
2020/01/31 00:45:24.2	80.140	-0.130	0.070	0.720
2020/01/31 00:45:24.3	80.150	-0.140	0.080	0.720
2020/01/31 00:45:24.4	80.170	-0.140	0.090	0.720
2020/01/31 00:45:24.5	80.180	-0.140	0.100	0.720
2020/01/31 00:45:24.6	80.190	-0.140	0.110	0.710
2020/01/31 00:45:24.7	80.210	-0.130	0.110	0.710
2020/01/31 00:45:24.8	80.220	-0.130	0.110	0.700
2020/01/31 00:45:24.9	80.250	-0.130	0.110	0.690
2020/01/31 00:45:25.0	80.270	-0.120	0.100	0.690
2020/01/31 00:45:25.1	80.280	-0.120	0.090	0.680
2020/01/31 00:45:25.2	80.300	-0.110	0.090	0.660
2020/01/31 00:45:25.3	80.310	-0.110	0.080	0.650
2020/01/31 00:45:25.4	80.330	-0.100	0.060	0.640
2020/01/31 00:45:25.5	80.350	-0.090	0.050	0.620
2020/01/31 00:45:25.6	80.370	-0.080	0.040	0.610
2020/01/31 00:45:25.7	80.390	-0.080	0.020	0.590
2020/01/31 00:45:25.8	80.410	-0.070	0.000	0.570
2020/01/31 00:45:25.9	80.430	-0.060	-0.010	0.550
2020/01/31 00:45:26.0	80.450	-0.050	-0.030	0.530
2020/01/31 00:45:26.1	80.470	-0.040	-0.050	0.510
2020/01/31 00:45:26.2	80.490	-0.030	-0.070	0.490
2020/01/31 00:45:26.3	80.510	-0.020	-0.080	0.470
2020/01/31 00:45:26.4	80.530	-0.010	-0.100	0.450
2020/01/31 00:45:26.5	80.560	0.000	-0.120	0.430
2020/01/31 00:45:26.6	80.580	0.010	-0.130	0.410
2020/01/31 00:45:26.7	80.600	0.020	-0.150	0.390
2020/01/31 00:45:26.8	80.620	0.030	-0.160	0.370
2020/01/31 00:45:26.9	80.630	0.050	-0.170	0.350
2020/01/31 00:45:27.0	80.650	0.060	-0.190	0.330
2020/01/31 00:45:27.1	80.660	0.070	-0.200	0.320
2020/01/31 00:45:27.2	80.680	0.080	-0.210	0.310
2020/01/31 00:45:27.3	80.700	0.090	-0.220	0.300
2020/01/31 00:45:27.4	80.710	0.100	-0.230	0.290
2020/01/31 00:45:27.5	80.720	0.120	-0.230	0.280
2020/01/31 00:45:27.6	80.740	0.130	-0.240	0.280
2020/01/31 00:45:27.7	80.750	0.140	-0.250	0.280
2020/01/31 00:45:27.8	80.760	0.150	-0.260	0.280
2020/01/31 00:45:27.9	80.770	0.170	-0.270	0.280
2020/01/31 00:45:28.0	80.780	0.180	-0.270	0.280
2020/01/31 00:45:28.1	80.790	0.190	-0.280	0.280
2020/01/31 00:45:28.2	80.800	0.200	-0.290	0.280
2020/01/31 00:45:28.3	80.810	0.210	-0.300	0.290
2020/01/31 00:45:28.4	80.820	0.220	-0.310	0.290
2020/01/31 00:45:28.5	80.840	0.240	-0.320	0.290
2020/01/31 00:45:28.6	80.850	0.250	-0.330	0.300
2020/01/31 00:45:28.7	80.860	0.260	-0.340	0.300
2020/01/31 00:45:28.8	80.880	0.270	-0.350	0.300
2020/01/31 00:45:28.9	80.890	0.280	-0.360	0.310
2020/01/31 00:45:29.0	80.910	0.280	-0.370	0.310
2020/01/31 00:45:29.1	80.930	0.290	-0.390	0.310
2020/01/31 00:45:29.2	80.950	0.300	-0.400	0.310
2020/01/31 00:45:29.3	80.960	0.300	-0.410	0.310
2020/01/31 00:45:29.4	80.980	0.310	-0.420	0.310
2020/01/31 00:45:29.5	81.000	0.310	-0.430	0.310
2020/01/31 00:45:29.6	81.020	0.310	-0.430	0.310
2020/01/31 00:45:29.7	81.040	0.310	-0.440	0.320
2020/01/31 00:45:29.8	81.060	0.310	-0.440	0.320
2020/01/31 00:45:29.9	81.080	0.310	-0.440	0.320
2020/01/31 00:45:30.0	81.100	0.300	-0.440	0.320
2020/01/31 00:45:30.1	81.120	0.300	-0.440	0.320
2020/01/31 00:45:30.2	81.140	0.290	-0.430	0.330
2020/01/31 00:45:30.3	81.150	0.280	-0.420	0.330
2020/01/31 00:45:30.4	81.170	0.270	-0.400	0.330
2020/01/31 00:45:30.5	81.190	0.250	-0.390	0.340
2020/01/31 00:45:30.6	81.200	0.240	-0.370	0.340
2020/01/31 00:45:30.7	81.220	0.220	-0.340	0.340
2020/01/31 00:45:30.8	81.230	0.200	-0.310	0.350
2020/01/31 00:45:30.9	81.240	0.190	-0.290	0.350
2020/01/31 00:45:31.0	81.250	0.170	-0.260	0.350
2020/01/31 00:45:31.1	81.260	0.140	-0.220	0.360
2020/01/31 00:45:31.2	81.270	0.120	-0.190	0.360
2020/01/31 00:45:31.3	81.280	0.100	-0.150	0.360
2020/01/31 00:45:31.4	81.290	0.080	-0.110	0.370
2020/01/31 00:45:31.5	81.300	0.060	-0.070	0.370
2020/01/31 00:45:31.6	81.310	0.030	-0.030	0.370
2020/01/31 00:45:31.7	81.320	0.010	0.010	0.370
2020/01/31 00:45:31.8	81.330	-0.010	0.040	0.370
2020/01/31 00:45:31.9	81.360	-0.030	0.080	0.370
2020/01/31 00:45:32.0	81.370	-0.050	0.110	0.370
2020/01/31 00:45:32.1	81.390	-0.070	0.150	0.370
2020/01/31 00:45:32.2	81.400	-0.090	0.180	0.370
2020/01/31 00:45:32.3	81.410	-0.100	0.200	0.380
2020/01/31 00:45:32.4	81.430	-0.120	0.230	0.380
2020/01/31 00:45:32.5	81.450	-0.130	0.250	0.380
2020/01/31 00:45:32.6	81.460	-0.150	0.260	0.380
2020/01/31 00:45:32.7	81.480	-0.160	0.280	0.390
2020/01/31 00:45:32.8	81.500	-0.170	0.290	0.390
2020/01/31 00:45:32.9	81.520	-0.180	0.290	0.400
2020/01/31 00:45:33.0	81.540	-0.190	0.290	0.400
2020/01/31 00:45:33.1	81.560	-0.190	0.290	0.410
2020/01/31 00:45:33.2	81.580	-0.200	0.280	0.420
2020/01/31 00:45:33.3	81.600	-0.200	0.280	0.440
2020/01/31 00:45:33.4	81.620	-0.210	0.260	0.450
2020/01/31 00:45:33.5	81.650	-0.210	0.250	0.470
2020/01/31 00:45:33.6	81.670	-0.220	0.230	0.490
2020/01/31 00:45:33.7	81.690	-0.220	0.210	0.510
2020/01/31 00:45:33.8	81.710	-0.220	0.190	0.530
2020/01/31 00:45:33.9	81.740	-0.220	0.170	0.550
2020/01/31 00:45:34.0	81.760	-0.230	0.140	0.580
2020/01/31 00:45:34.1	81.780	-0.230	0.120	0.600
2020/01/31 00:45:34.2	81.800	-0.230	0.090	0.630
2020/01/31 00:45:34.3	81.820	-0.240	0.070	0.650
2020/01/31 00:45:34.4	81.840	-0.240	0.040	0.680
2020/01/31 00:45:34.5	81.850	-0.240	0.020	0.700
2020/01/31 00:45:34.6	81.870	-0.250	-0.010	0.720
2020/01/31 00:45:34.7	81.880	-0.250	-0.040	0.740
2020/01/31 00:45:34.8	81.900	-0.260	-0.060	0.760
2020/01/31 00:45:34.9	81.910	-0.260	-0.090	0.770
2020/01/31 00:45:35.0	81.930	-0.270	-0.110	0.780
2020/01/31 00:45:35.1	81.940	-0.270	-0.130	0.790
2020/01/31 00:45:35.2	81.960	-0.280	-0.150	0.800
2020/01/31 00:45:35.3	81.980	-0.280	-0.170	0.800
2020/01/31 00:45:35.4	82.000	-0.290	-0.190	0.800
2020/01/31 00:45:35.5	82.020	-0.290	-0.200	0.790
2020/01/31 00:45:35.6	82.040	-0.300	-0.220	0.790
2020/01/31 00:45:35.7	82.060	-0.300	-0.230	0.780
2020/01/31 00:45:35.8	82.080	-0.310	-0.240	0.770
2020/01/31 00:45:35.9	82.100	-0.310	-0.240	0.750
2020/01/31 00:45:36.0	82.120	-0.320	-0.250	0.740
2020/01/31 00:45:36.1	82.150	-0.320	-0.250	0.720
2020/01/31 00:45:36.2	82.170	-0.320	-0.250	0.710
2020/01/31 00:45:36.3	82.200	-0.320	-0.250	0.690
2020/01/31 00:45:36.4	82.220	-0.330	-0.250	0.670
2020/01/31 00:45:36.5	82.250	-0.330	-0.240	0.660
2020/01/31 00:45:36.6	82.270	-0.330	-0.230	0.640
2020/01/31 00:45:36.7	82.290	-0.320	-0.220	0.630
2020/01/31 00:45:36.8	82.310	-0.320	-0.210	0.620
2020/01/31 00:45:36.9	82.330	-0.320	-0.200	0.610
2020/01/31 00:45:37.0	82.340	-0.320	-0.180	0.610
2020/01/31 00:45:37.1	82.360	-0.310	-0.160	0.600
2020/01/31 00:45:37.2	82.370	-0.310	-0.140	0.600
2020/01/31 00:45:37.3	82.390	-0.300	-0.120	0.600
2020/01/31 00:45:37.4	82.400	-0.290	-0.100	0.600
2020/01/31 00:45:37.5	82.410	-0.280	-0.080	0.600
2020/01/31 00:45:37.6	82.420	-0.270	-0.060	0.600
2020/01/31 00:45:37.7	82.430	-0.260	-0.050	0.610
2020/01/31 00:45:37.8	82.440	-0.250	-0.030	0.620
2020/01/31 00:45:37.9	82.440	-0.240	-0.020	0.630
2020/01/31 00:45:38.0	82.450	-0.220	-0.010	0.630
2020/01/31 00:45:38.1	82.460	-0.200	-0.000	0.640
2020/01/31 00:45:38.2	82.470	-0.180	-0.000	0.640
2020/01/31 00:45:38.3	82.480	-0.160	-0.010	0.640
2020/01/31 00:45:38.4	82.500	-0.140	-0.010	0.640
2020/01/31 00:45:38.5	82.510	-0.120	-0.030	0.640
2020/01/31 00:45:38.6	82.530	-0.100	-0.050	0.640
2020/01/31 00:45:38.7	82.550	-0.070	-0.070	0.630
2020/01/31 00:45:38.8	82.570	-0.040	-0.100	0.620
2020/01/31 00:45:38.9	82.590	-0.010	-0.130	0.600
2020/01/31 00:45:39.0	82.620	0.020	-0.160	0.580
2020/01/31 00:45:39.1	82.640	0.040	-0.200	0.570
2020/01/31 00:45:39.2	82.670	0.080	-0.250	0.550
2020/01/31 00:45:39.3	82.700	0.110	-0.290	0.520
2020/01/31 00:45:39.4	82.730	0.140	-0.340	0.500
2020/01/31 00:45:39.5	82.750	0.170	-0.390	0.480
2020/01/31 00:45:39.6	82.780	0.200	-0.440	0.450
2020/01/31 00:45:39.7	82.810	0.230	-0.490	0.430
2020/01/31 00:45:39.8	82.830	0.250	-0.540	0.400
2020/01/31 00:45:39.9	82.860	0.280	-0.590	0.380
2020/01/31 00:45:40.0	82.880	0.310	-0.640	0.350
2020/01/31 00:45:40.1	82.900	0.330	-0.680	0.330
2020/01/31 00:45:40.2	82.920	0.350	-0.710	0.310
2020/01/31 00:45:40.3	82.930	0.370	-0.740	0.280
2020/01/31 00:45:40.4	82.940	0.390	-0.770	0.260
2020/01/31 00:45:40.5	82.960	0.400	-0.790	0.240
2020/01/31 00:45:40.6	82.960	0.410	-0.800	0.220
2020/01/31 00:45:40.7	82.970	0.420	-0.800	0.200
2020/01/31 00:45:40.8	82.970	0.430	-0.800	0.190
2020/01/31 00:45:40.9	82.980	0.430	-0.790	0.170
2020/01/31 00:45:41.0	82.980	0.430	-0.770	0.160
2020/01/31 00:45:41.1	82.980	0.430	-0.750	0.150
2020/01/31 00:45:41.2	82.970	0.420	-0.710	0.150
2020/01/31 00:45:41.3	82.970	0.420	-0.670	0.140
2020/01/31 00:45:41.4	82.960	0.400	-0.630	0.140
2020/01/31 00:45:41.5	82.950	0.390	-0.570	0.140
2020/01/31 00:45:41.6	82.950	0.380	-0.510	0.140
2020/01/31 00:45:41.7	82.940	0.360	-0.450	0.140
2020/01/31 00:45:41.8	82.930	0.340	-0.390	0.150
2020/01/31 00:45:41.9	82.930	0.320	-0.310	0.150
2020/01/31 00:45:42.0	82.920	0.300	-0.240	0.160
2020/01/31 00:45:42.1	82.920	0.280	-0.170	0.160
2020/01/31 00:45:42.2	82.920	0.250	-0.100	0.170
2020/01/31 00:45:42.3	82.920	0.230	-0.030	0.170
2020/01/31 00:45:42.4	82.920	0.210	0.040	0.180
2020/01/31 00:45:42.5	82.920	0.180	0.100	0.180
2020/01/31 00:45:42.6	82.920	0.160	0.160	0.190
2020/01/31 00:45:42.7	82.930	0.140	0.220	0.190
2020/01/31 00:45:42.8	82.940	0.120	0.270	0.190
2020/01/31 00:45:42.9	82.940	0.100	0.310	0.190
2020/01/31 00:45:43.0	82.950	0.080	0.350	0.190
2020/01/31 00:45:43.1	82.970	0.070	0.370	0.190
2020/01/31 00:45:43.2	82.980	0.060	0.390	0.190
2020/01/31 00:45:43.3	83.010	0.050	0.400	0.190
2020/01/31 00:45:43.4	83.030	0.040	0.410	0.180
2020/01/31 00:45:43.5	83.060	0.030	0.400	0.180
2020/01/31 00:45:43.6	83.080	0.030	0.390	0.170
2020/01/31 00:45:43.7	83.120	0.030	0.370	0.160
2020/01/31 00:45:43.8	83.150	0.030	0.340	0.150
2020/01/31 00:45:43.9	83.170	0.040	0.300	0.140
2020/01/31 00:45:44.0	83.210	0.040	0.260	0.130
2020/01/31 00:45:44.1	83.250	0.050	0.210	0.110
2020/01/31 00:45:44.2	83.300	0.060	0.150	0.100
2020/01/31 00:45:44.3	83.340	0.070	0.100	0.090
2020/01/31 00:45:44.4	83.390	0.080	0.030	0.080
2020/01/31 00:45:44.5	83.430	0.090	-0.030	0.070
2020/01/31 00:45:44.6	83.480	0.110	-0.090	0.060
2020/01/31 00:45:44.7	83.530	0.120	-0.160	0.050
2020/01/31 00:45:44.8	83.570	0.130	-0.220	0.040
2020/01/31 00:45:44.9	83.620	0.140	-0.280	0.030
2020/01/31 00:45:45.0	83.660	0.150	-0.340	0.030
2020/01/31 00:45:45.1	83.700	0.160	-0.400	0.030
2020/01/31 00:45:45.2	83.740	0.170	-0.440	0.030
2020/01/31 00:45:45.3	83.780	0.180	-0.490	0.030
2020/01/31 00:45:45.4	83.820	0.180	-0.520	0.040
2020/01/31 00:45:45.5	83.860	0.180	-0.550	0.040
2020/01/31 00:45:45.6	83.890	0.170	-0.570	0.050
2020/01/31 00:45:45.7	83.920	0.170	-0.590	0.060
2020/01/31 00:45:45.8	83.950	0.160	-0.590	0.070
2020/01/31 00:45:45.9	83.970	0.140	-0.590	0.090
2020/01/31 00:45:46.0	84.000	0.130	-0.570	0.110
2020/01/31 00:45:46.1	84.020	0.110	-0.550	0.120
2020/01/31 00:45:46.2	84.040	0.080	-0.510	0.140
2020/01/31 00:45:46.3	84.060	0.050	-0.470	0.170
2020/01/31 00:45:46.4	84.080	0.020	-0.410	0.190
2020/01/31 00:45:46.5	84.090	-0.010	-0.350	0.220
2020/01/31 00:45:46.6	84.110	-0.050	-0.290	0.250
2020/01/31 00:45:46.7	84.120	-0.090	-0.210	0.280
2020/01/31 00:45:46.8	84.130	-0.140	-0.130	0.320
2020/01/31 00:45:46.9	84.150	-0.180	-0.040	0.360
2020/01/31 00:45:47.0	84.160	-0.230	0.040	0.400
2020/01/31 00:45:47.1	84.170	-0.280	0.140	0.440
2020/01/31 00:45:47.2	84.170	-0.330	0.230	0.480
2020/01/31 00:45:47.3	84.170	-0.380	0.320	0.530
2020/01/31 00:45:47.4	84.180	-0.430	0.410	0.580
2020/01/31 00:45:47.5	84.180	-0.480	0.500	0.630
2020/01/31 00:45:47.6	84.180	-0.530	0.580	0.680
2020/01/31 00:45:47.7	84.180	-0.580	0.660	0.730
2020/01/31 00:45:47.8	84.180	-0.620	0.740	0.790
2020/01/31 00:45:47.9	84.180	-0.660	0.800	0.840
2020/01/31 00:45:48.0	84.180	-0.700	0.860	0.890
2020/01/31 00:45:48.1	84.180	-0.740	0.910	0.950
2020/01/31 00:45:48.2	84.180	-0.770	0.960	1.000
2020/01/31 00:45:48.3	84.170	-0.800	0.990	1.060
2020/01/31 00:45:48.4	84.170	-0.820	1.010	1.110
2020/01/31 00:45:48.5	84.170	-0.840	1.010	1.160
2020/01/31 00:45:48.6	84.170	-0.860	1.010	1.210
2020/01/31 00:45:48.7	84.170	-0.860	1.000	1.250
2020/01/31 00:45:48.8	84.170	-0.860	0.970	1.290
2020/01/31 00:45:48.9	84.150	-0.860	0.930	1.320
2020/01/31 00:45:49.0	84.150	-0.850	0.870	1.350
2020/01/31 00:45:49.1	84.160	-0.830	0.810	1.370
2020/01/31 00:45:49.2	84.170	-0.810	0.730	1.390
2020/01/31 00:45:49.3	84.180	-0.780	0.650	1.400
2020/01/31 00:45:49.4	84.190	-0.740	0.550	1.410
2020/01/31 00:45:49.5	84.200	-0.700	0.450	1.410
2020/01/31 00:45:49.6	84.220	-0.660	0.330	1.400
2020/01/31 00:45:49.7	84.240	-0.600	0.210	1.390
2020/01/31 00:45:49.8	84.260	-0.550	0.090	1.370
2020/01/31 00:45:49.9	84.290	-0.490	-0.050	1.350
2020/01/31 00:45:50.0	84.310	-0.420	-0.180	1.330
2020/01/31 00:45:50.1	84.340	-0.360	-0.320	1.300
2020/01/31 00:45:50.2	84.370	-0.290	-0.450	1.270
2020/01/31 00:45:50.3	84.400	-0.220	-0.590	1.230
2020/01/31 00:45:50.4	84.420	-0.150	-0.720	1.200
2020/01/31 00:45:50.5	84.450	-0.070	-0.850	1.160
2020/01/31 00:45:50.6	84.480	-0.000	-0.970	1.130
2020/01/31 00:45:50.7	84.510	0.070	-1.090	1.090
2020/01/31 00:45:50.8	84.540	0.140	-1.200	1.050
2020/01/31 00:45:50.9	84.590	0.210	-1.310	1.010
2020/01/31 00:45:51.0	84.620	0.280	-1.400	0.970
2020/01/31 00:45:51.1	84.650	0.340	-1.480	0.930
2020/01/31 00:45:51.2	84.680	0.400	-1.550	0.900
2020/01/31 00:45:51.3	84.710	0.460	-1.610	0.860
2020/01/31 00:45:51.4	84.740	0.510	-1.650	0.820
2020/01/31 00:45:51.5	84.770	0.550	-1.680	0.790
2020/01/31 00:45:51.6	84.790	0.600	-1.700	0.750
2020/01/31 00:45:51.7	84.820	0.630	-1.710	0.720
2020/01/31 00:45:51.8	84.850	0.660	-1.700	0.690
2020/01/31 00:45:51.9	84.880	0.690	-1.680	0.660
2020/01/31 00:45:52.0	84.910	0.710	-1.650	0.630
2020/01/31 00:45:52.1	84.940	0.720	-1.600	0.600
2020/01/31 00:45:52.2	84.960	0.730	-1.550	0.580
2020/01/31 00:45:52.3	84.980	0.730	-1.480	0.560
2020/01/31 00:45:52.4	85.000	0.730	-1.400	0.540
2020/01/31 00:45:52.5	85.020	0.720	-1.310	0.520
2020/01/31 00:45:52.6	85.040	0.710	-1.220	0.500
2020/01/31 00:45:52.7	85.060	0.690	-1.110	0.490
2020/01/31 00:45:52.8	85.070	0.670	-1.000	0.480
2020/01/31 00:45:52.9	85.080	0.650	-0.890	0.470
2020/01/31 00:45:53.0	85.090	0.620	-0.770	0.460
2020/01/31 00:45:53.1	85.100	0.580	-0.640	0.450
2020/01/31 00:45:53.2	85.110	0.550	-0.510	0.450
2020/01/31 00:45:53.3	85.110	0.510	-0.380	0.450
2020/01/31 00:45:53.4	85.110	0.460	-0.250	0.450
2020/01/31 00:45:53.5	85.110	0.420	-0.120	0.450
2020/01/31 00:45:53.6	85.110	0.380	0.000	0.450
2020/01/31 00:45:53.7	85.100	0.330	0.130	0.450
2020/01/31 00:45:53.8	85.100	0.280	0.250	0.460
2020/01/31 00:45:53.9	85.110	0.230	0.370	0.460
2020/01/31 00:45:54.0	85.110	0.190	0.480	0.460
2020/01/31 00:45:54.1	85.100	0.140	0.580	0.460
2020/01/31 00:45:54.2	85.090	0.090	0.680	0.460
2020/01/31 00:45:54.3	85.090	0.050	0.760	0.460
2020/01/31 00:45:54.4	85.080	0.010	0.840	0.460
2020/01/31 00:45:54.5	85.080	-0.040	0.910	0.450
2020/01/31 00:45:54.6	85.080	-0.080	0.960	0.450
2020/01/31 00:45:54.7	85.070	-0.110	1.010	0.440
2020/01/31 00:45:54.8	85.070	-0.150	1.040	0.430
2020/01/31 00:45:54.9	85.060	-0.180	1.060	0.420
2020/01/31 00:45:55.0	85.060	-0.210	1.080	0.410
2020/01/31 00:45:55.1	85.070	-0.240	1.080	0.390
2020/01/31 00:45:55.2	85.070	-0.260	1.070	0.380
2020/01/31 00:45:55.3	85.080	-0.280	1.050	0.370
2020/01/31 00:45:55.4	85.090	-0.300	1.020	0.360
2020/01/31 00:45:55.5	85.100	-0.310	0.990	0.350
2020/01/31 00:45:55.6	85.110	-0.320	0.940	0.330
2020/01/31 00:45:55.7	85.120	-0.330	0.880	0.320
2020/01/31 00:45:55.8	85.140	-0.340	0.820	0.310
2020/01/31 00:45:55.9	85.160	-0.340	0.750	0.290
2020/01/31 00:45:56.0	85.170	-0.340	0.670	0.270
2020/01/31 00:45:56.1	85.190	-0.330	0.590	0.260
2020/01/31 00:45:56.2	85.210	-0.330	0.500	0.240
2020/01/31 00:45:56.3	85.240	-0.320	0.410	0.230
2020/01/31 00:45:56.4	85.260	-0.310	0.310	0.210
2020/01/31 00:45:56.5	85.290	-0.300	0.210	0.190
2020/01/31 00:45:56.6	85.320	-0.290	0.110	0.170
2020/01/31 00:45:56.7	85.350	-0.270	0.010	0.150
2020/01/31 00:45:56.8	85.380	-0.250	-0.090	0.130
2020/01/31 00:45:56.9	85.420	-0.240	-0.190	0.110
2020/01/31 00:45:57.0	85.460	-0.220	-0.280	0.090
2020/01/31 00:45:57.1	85.490	-0.200	-0.380	0.060
2020/01/31 00:45:57.2	85.530	-0.180	-0.470	0.040
2020/01/31 00:45:57.3	85.570	-0.150	-0.550	0.020
2020/01/31 00:45:57.4	85.610	-0.130	-0.630	-0.000
2020/01/31 00:45:57.5	85.650	-0.110	-0.700	-0.020
2020/01/31 00:45:57.6	85.700	-0.090	-0.770	-0.040
2020/01/31 00:45:57.7	85.740	-0.070	-0.820	-0.060
2020/01/31 00:45:57.8	85.790	-0.050	-0.870	-0.080
2020/01/31 00:45:57.9	85.830	-0.020	-0.910	-0.090
2020/01/31 00:45:58.0	85.870	-0.000	-0.940	-0.100
2020/01/31 00:45:58.1	85.920	0.020	-0.960	-0.110
2020/01/31 00:45:58.2	85.960	0.030	-0.980	-0.120
2020/01/31 00:45:58.3	86.000	0.050	-0.980	-0.130
2020/01/31 00:45:58.4	86.050	0.070	-0.970	-0.130
2020/01/31 00:45:58.5	86.090	0.080	-0.960	-0.130
2020/01/31 00:45:58.6	86.130	0.100	-0.930	-0.120
2020/01/31 00:45:58.7	86.170	0.110	-0.900	-0.120
2020/01/31 00:45:58.8	86.210	0.120	-0.860	-0.110
2020/01/31 00:45:58.9	86.240	0.130	-0.810	-0.090
2020/01/31 00:45:59.0	86.270	0.130	-0.750	-0.080
2020/01/31 00:45:59.1	86.310	0.140	-0.690	-0.060
2020/01/31 00:45:59.2	86.330	0.140	-0.630	-0.040
2020/01/31 00:45:59.3	86.360	0.140	-0.550	-0.010
2020/01/31 00:45:59.4	86.390	0.140	-0.480	0.020
2020/01/31 00:45:59.5	86.410	0.130	-0.400	0.050
2020/01/31 00:45:59.6	86.430	0.130	-0.320	0.090
2020/01/31 00:45:59.7	86.440	0.120	-0.240	0.120
2020/01/31 00:45:59.8	86.460	0.110	-0.160	0.160
2020/01/31 00:45:59.9	86.480	0.100	-0.080	0.200
2020/01/31 00:46:00.0	86.500	0.090	0.000	0.240
2020/01/31 00:46:00.1	86.510	0.080	0.080	0.290
2020/01/31 00:46:00.2	86.510	0.070	0.150	0.330
2020/01/31 00:46:00.3	86.520	0.050	0.220	0.370
2020/01/31 00:46:00.4	86.530	0.040	0.290	0.420
2020/01/31 00:46:00.5	86.530	0.020	0.350	0.460
2020/01/31 00:46:00.6	86.530	0.010	0.400	0.500
2020/01/31 00:46:00.7	86.540	-0.010	0.450	0.550
2020/01/31 00:46:00.8	86.540	-0.020	0.500	0.590
2020/01/31 00:46:00.9	86.530	-0.030	0.530	0.630
2020/01/31 00:46:01.0	86.530	-0.050	0.560	0.670
2020/01/31 00:46:01.1	86.530	-0.060	0.590	0.710
2020/01/31 00:46:01.2	86.530	-0.080	0.600	0.740
2020/01/31 00:46:01.3	86.530	-0.090	0.610	0.780
2020/01/31 00:46:01.4	86.530	-0.100	0.610	0.810
2020/01/31 00:46:01.5	86.530	-0.110	0.610	0.840
2020/01/31 00:46:01.6	86.530	-0.120	0.590	0.870
2020/01/31 00:46:01.7	86.530	-0.120	0.570	0.890
2020/01/31 00:46:01.8	86.530	-0.130	0.550	0.920
2020/01/31 00:46:01.9	86.550	-0.130	0.510	0.940
2020/01/31 00:46:02.0	86.550	-0.140	0.470	0.960
2020/01/31 00:46:02.1	86.550	-0.140	0.420	0.980
2020/01/31 00:46:02.2	86.560	-0.140	0.370	0.990
2020/01/31 00:46:02.3	86.570	-0.130	0.310	1.010
2020/01/31 00:46:02.4	86.570	-0.130	0.250	1.020
2020/01/31 00:46:02.5	86.580	-0.120	0.180	1.030
2020/01/31 00:46:02.6	86.590	-0.110	0.110	1.050
2020/01/31 00:46:02.7	86.600	-0.110	0.040	1.050
2020/01/31 00:46:02.8	86.610	-0.090	-0.040	1.060
2020/01/31 00:46:02.9	86.620	-0.080	-0.120	1.070
2020/01/31 00:46:03.0	86.630	-0.070	-0.200	1.070
2020/01/31 00:46:03.1	86.650	-0.050	-0.280	1.070
2020/01/31 00:46:03.2	86.670	-0.040	-0.360	1.080
2020/01/31 00:46:03.3	86.680	-0.020	-0.430	1.080
2020/01/31 00:46:03.4	86.700	-0.010	-0.510	1.070
2020/01/31 00:46:03.5	86.720	0.010	-0.580	1.070
2020/01/31 00:46:03.6	86.740	0.030	-0.650	1.070
2020/01/31 00:46:03.7	86.760	0.040	-0.710	1.060
2020/01/31 00:46:03.8	86.780	0.060	-0.770	1.050
2020/01/31 00:46:03.9	86.800	0.080	-0.820	1.050
2020/01/31 00:46:04.0	86.820	0.090	-0.870	1.040
2020/01/31 00:46:04.1	86.840	0.110	-0.910	1.030
2020/01/31 00:46:04.2	86.870	0.120	-0.950	1.010
2020/01/31 00:46:04.3	86.890	0.130	-0.970	1.000
2020/01/31 00:46:04.4	86.910	0.140	-1.000	0.990
2020/01/31 00:46:04.5	86.930	0.150	-1.010	0.980
2020/01/31 00:46:04.6	86.960	0.160	-1.020	0.960
2020/01/31 00:46:04.7	86.980	0.160	-1.020	0.950
2020/01/31 00:46:04.8	87.010	0.170	-1.020	0.940
2020/01/31 00:46:04.9	87.020	0.170	-1.010	0.920
2020/01/31 00:46:05.0	87.040	0.170	-0.990	0.910
2020/01/31 00:46:05.1	87.070	0.170	-0.970	0.890
2020/01/31 00:46:05.2	87.090	0.170	-0.940	0.880
2020/01/31 00:46:05.3	87.120	0.170	-0.910	0.870
2020/01/31 00:46:05.4	87.140	0.160	-0.870	0.860
2020/01/31 00:46:05.5	87.170	0.160	-0.830	0.850
2020/01/31 00:46:05.6	87.200	0.150	-0.780	0.850
2020/01/31 00:46:05.7	87.220	0.140	-0.730	0.840
2020/01/31 00:46:05.8	87.250	0.140	-0.670	0.840
2020/01/31 00:46:05.9	87.290	0.130	-0.610	0.840
2020/01/31 00:46:06.0	87.310	0.120	-0.560	0.840
2020/01/31 00:46:06.1	87.340	0.110	-0.500	0.840
2020/01/31 00:46:06.2	87.370	0.090	-0.440	0.840
2020/01/31 00:46:06.3	87.400	0.080	-0.380	0.840
2020/01/31 00:46:06.4	87.430	0.070	-0.320	0.850
2020/01/31 00:46:06.5	87.460	0.060	-0.260	0.850
2020/01/31 00:46:06.6	87.490	0.050	-0.200	0.860
2020/01/31 00:46:06.7	87.510	0.040	-0.140	0.860
2020/01/31 00:46:06.8	87.540	0.020	-0.080	0.860
2020/01/31 00:46:06.9	87.570	0.010	-0.030	0.870
2020/01/31 00:46:07.0	87.600	0.000	0.020	0.870
2020/01/31 00:46:07.1	87.620	-0.010	0.070	0.880
2020/01/31 00:46:07.2	87.650	-0.020	0.120	0.880
2020/01/31 00:46:07.3	87.680	-0.030	0.170	0.890
2020/01/31 00:46:07.4	87.710	-0.040	0.210	0.890
2020/01/31 00:46:07.5	87.740	-0.050	0.260	0.890
2020/01/31 00:46:07.6	87.770	-0.060	0.300	0.890
2020/01/31 00:46:07.7	87.790	-0.070	0.330	0.890
2020/01/31 00:46:07.8	87.820	-0.080	0.360	0.890
2020/01/31 00:46:07.9	87.840	-0.090	0.390	0.890
2020/01/31 00:46:08.0	87.870	-0.100	0.420	0.890
2020/01/31 00:46:08.1	87.890	-0.100	0.450	0.880
2020/01/31 00:46:08.2	87.910	-0.110	0.470	0.880
2020/01/31 00:46:08.3	87.930	-0.120	0.480	0.870
2020/01/31 00:46:08.4	87.950	-0.130	0.500	0.860
2020/01/31 00:46:08.5	87.970	-0.140	0.510	0.850
2020/01/31 00:46:08.6	87.990	-0.150	0.520	0.840
2020/01/31 00:46:08.7	88.010	-0.150	0.520	0.830
2020/01/31 00:46:08.8	88.020	-0.160	0.520	0.810
2020/01/31 00:46:08.9	88.040	-0.170	0.520	0.800
2020/01/31 00:46:09.0	88.050	-0.170	0.520	0.780
2020/01/31 00:46:09.1	88.060	-0.180	0.510	0.760
2020/01/31 00:46:09.2	88.070	-0.190	0.490	0.740
2020/01/31 00:46:09.3	88.080	-0.190	0.480	0.720
2020/01/31 00:46:09.4	88.090	-0.200	0.460	0.700
2020/01/31 00:46:09.5	88.100	-0.210	0.430	0.670
2020/01/31 00:46:09.6	88.110	-0.210	0.410	0.650
2020/01/31 00:46:09.7	88.120	-0.210	0.380	0.620
2020/01/31 00:46:09.8	88.130	-0.220	0.350	0.590
2020/01/31 00:46:09.9	88.140	-0.220	0.310	0.560
2020/01/31 00:46:10.0	88.140	-0.220	0.270	0.530
2020/01/31 00:46:10.1	88.150	-0.230	0.240	0.500
2020/01/31 00:46:10.2	88.160	-0.230	0.200	0.470
2020/01/31 00:46:10.3	88.170	-0.230	0.160	0.430
2020/01/31 00:46:10.4	88.180	-0.230	0.120	0.400
2020/01/31 00:46:10.5	88.190	-0.230	0.080	0.360
2020/01/31 00:46:10.6	88.200	-0.220	0.040	0.320
2020/01/31 00:46:10.7	88.210	-0.220	-0.010	0.290
2020/01/31 00:46:10.8	88.230	-0.210	-0.050	0.240
2020/01/31 00:46:10.9	88.240	-0.210	-0.090	0.200
2020/01/31 00:46:11.0	88.260	-0.200	-0.130	0.160
2020/01/31 00:46:11.1	88.270	-0.190	-0.170	0.120
2020/01/31 00:46:11.2	88.290	-0.180	-0.210	0.070
2020/01/31 00:46:11.3	88.300	-0.170	-0.250	0.030
2020/01/31 00:46:11.4	88.320	-0.150	-0.290	-0.020
2020/01/31 00:46:11.5	88.340	-0.140	-0.330	-0.060
2020/01/31 00:46:11.6	88.360	-0.120	-0.370	-0.110
2020/01/31 00:46:11.7	88.380	-0.100	-0.400	-0.150
2020/01/31 00:46:11.8	88.400	-0.080	-0.440	-0.190
2020/01/31 00:46:11.9	88.410	-0.060	-0.480	-0.230
2020/01/31 00:46:12.0	88.430	-0.030	-0.510	-0.270
2020/01/31 00:46:12.1	88.450	-0.010	-0.550	-0.300
2020/01/31 00:46:12.2	88.470	0.020	-0.580	-0.340
2020/01/31 00:46:12.3	88.490	0.050	-0.610	-0.370
2020/01/31 00:46:12.4	88.510	0.080	-0.640	-0.390
2020/01/31 00:46:12.5	88.520	0.100	-0.670	-0.420
2020/01/31 00:46:12.6	88.540	0.130	-0.700	-0.440
2020/01/31 00:46:12.7	88.560	0.160	-0.730	-0.450
2020/01/31 00:46:12.8	88.580	0.190	-0.750	-0.470
2020/01/31 00:46:12.9	88.600	0.220	-0.770	-0.470
2020/01/31 00:46:13.0	88.620	0.250	-0.790	-0.480
2020/01/31 00:46:13.1	88.640	0.270	-0.810	-0.490
2020/01/31 00:46:13.2	88.660	0.300	-0.820	-0.490
2020/01/31 00:46:13.3	88.680	0.320	-0.840	-0.490
2020/01/31 00:46:13.4	88.710	0.340	-0.840	-0.490
2020/01/31 00:46:13.5	88.730	0.360	-0.850	-0.490
2020/01/31 00:46:13.6	88.750	0.380	-0.850	-0.480
2020/01/31 00:46:13.7	88.780	0.390	-0.850	-0.470
2020/01/31 00:46:13.8	88.810	0.400	-0.840	-0.460
2020/01/31 00:46:13.9	88.830	0.410	-0.830	-0.440
2020/01/31 00:46:14.0	88.860	0.410	-0.810	-0.420
2020/01/31 00:46:14.1	88.890	0.420	-0.800	-0.400
2020/01/31 00:46:14.2	88.910	0.420	-0.770	-0.370
2020/01/31 00:46:14.3	88.940	0.410	-0.750	-0.340
2020/01/31 00:46:14.4	88.970	0.400	-0.720	-0.310
2020/01/31 00:46:14.5	88.990	0.390	-0.680	-0.270
2020/01/31 00:46:14.6	89.020	0.380	-0.640	-0.230
2020/01/31 00:46:14.7	89.040	0.360	-0.600	-0.190
2020/01/31 00:46:14.8	89.070	0.340	-0.550	-0.140
2020/01/31 00:46:14.9	89.090	0.320	-0.500	-0.090
2020/01/31 00:46:15.0	89.110	0.290	-0.450	-0.040
2020/01/31 00:46:15.1	89.130	0.260	-0.390	0.010
2020/01/31 00:46:15.2	89.150	0.230	-0.330	0.070
2020/01/31 00:46:15.3	89.170	0.190	-0.260	0.130
2020/01/31 00:46:15.4	89.190	0.160	-0.200	0.190
2020/01/31 00:46:15.5	89.200	0.120	-0.130	0.250
2020/01/31 00:46:15.6	89.220	0.070	-0.060	0.320
2020/01/31 00:46:15.7	89.240	0.030	0.020	0.380
2020/01/31 00:46:15.8	89.250	-0.010	0.090	0.450
2020/01/31 00:46:15.9	89.260	-0.060	0.170	0.510
2020/01/31 00:46:16.0	89.270	-0.100	0.240	0.580
2020/01/31 00:46:16.1	89.290	-0.150	0.320	0.640
2020/01/31 00:46:16.2	89.300	-0.190	0.390	0.700
2020/01/31 00:46:16.3	89.310	-0.230	0.460	0.760
2020/01/31 00:46:16.4	89.320	-0.280	0.520	0.820
2020/01/31 00:46:16.5	89.340	-0.320	0.590	0.880
2020/01/31 00:46:16.6	89.350	-0.350	0.650	0.930
2020/01/31 00:46:16.7	89.360	-0.390	0.700	0.980
2020/01/31 00:46:16.8	89.370	-0.420	0.750	1.030
2020/01/31 00:46:16.9	89.390	-0.450	0.790	1.080
2020/01/31 00:46:17.0	89.400	-0.480	0.830	1.120
2020/01/31 00:46:17.1	89.410	-0.510	0.860	1.160
2020/01/31 00:46:17.2	89.420	-0.530	0.880	1.200
2020/01/31 00:46:17.3	89.440	-0.540	0.890	1.230
2020/01/31 00:46:17.4	89.450	-0.550	0.890	1.270
2020/01/31 00:46:17.5	89.460	-0.560	0.890	1.300
2020/01/31 00:46:17.6	89.470	-0.560	0.880	1.330
2020/01/31 00:46:17.7	89.480	-0.560	0.850	1.360
2020/01/31 00:46:17.8	89.490	-0.560	0.830	1.380
2020/01/31 00:46:17.9	89.490	-0.550	0.790	1.410
2020/01/31 00:46:18.0	89.490	-0.540	0.740	1.430
2020/01/31 00:46:18.1	89.500	-0.520	0.690	1.450
2020/01/31 00:46:18.2	89.510	-0.500	0.630	1.470
2020/01/31 00:46:18.3	89.520	-0.470	0.570	1.490
2020/01/31 00:46:18.4	89.520	-0.450	0.500	1.510
2020/01/31 00:46:18.5	89.530	-0.410	0.420	1.520
2020/01/31 00:46:18.6	89.530	-0.380	0.340	1.530
2020/01/31 00:46:18.7	89.530	-0.340	0.260	1.540
2020/01/31 00:46:18.8	89.540	-0.300	0.170	1.550
2020/01/31 00:46:18.9	89.530	-0.260	0.080	1.560
2020/01/31 00:46:19.0	89.530	-0.220	-0.010	1.560
2020/01/31 00:46:19.1	89.530	-0.170	-0.100	1.560
2020/01/31 00:46:19.2	89.540	-0.130	-0.200	1.560
2020/01/31 00:46:19.3	89.540	-0.080	-0.290	1.550
2020/01/31 00:46:19.4	89.550	-0.030	-0.380	1.530
2020/01/31 00:46:19.5	89.560	0.010	-0.470	1.510
2020/01/31 00:46:19.6	89.570	0.060	-0.560	1.490
2020/01/31 00:46:19.7	89.580	0.110	-0.640	1.460
2020/01/31 00:46:19.8	89.590	0.150	-0.720	1.430
2020/01/31 00:46:19.9	89.600	0.190	-0.790	1.390
2020/01/31 00:46:20.0	89.620	0.230	-0.860	1.350
2020/01/31 00:46:20.1	89.640	0.270	-0.920	1.310
2020/01/31 00:46:20.2	89.660	0.310	-0.980	1.260
2020/01/31 00:46:20.3	89.680	0.350	-1.020	1.220
2020/01/31 00:46:20.4	89.710	0.380	-1.060	1.160
2020/01/31 00:46:20.5	89.730	0.410	-1.100	1.110
2020/01/31 00:46:20.6	89.760	0.430	-1.120	1.060
2020/01/31 00:46:20.7	89.790	0.460	-1.140	1.000
2020/01/31 00:46:20.8	89.820	0.480	-1.150	0.950
2020/01/31 00:46:20.9	89.850	0.490	-1.150	0.890
2020/01/31 00:46:21.0	89.880	0.510	-1.150	0.840
2020/01/31 00:46:21.1	89.910	0.520	-1.140	0.790
2020/01/31 00:46:21.2	89.940	0.530	-1.120	0.730
2020/01/31 00:46:21.3	89.970	0.530	-1.090	0.690
2020/01/31 00:46:21.4	89.990	0.540	-1.060	0.640
2020/01/31 00:46:21.5	90.020	0.540	-1.020	0.590
2020/01/31 00:46:21.6	90.040	0.530	-0.980	0.550
2020/01/31 00:46:21.7	90.070	0.530	-0.930	0.510
2020/01/31 00:46:21.8	90.090	0.520	-0.880	0.470
2020/01/31 00:46:21.9	90.120	0.510	-0.820	0.440
2020/01/31 00:46:22.0	90.140	0.500	-0.760	0.410
2020/01/31 00:46:22.1	90.160	0.490	-0.700	0.380
2020/01/31 00:46:22.2	90.180	0.470	-0.630	0.350
2020/01/31 00:46:22.3	90.200	0.450	-0.570	0.320
2020/01/31 00:46:22.4	90.210	0.440	-0.500	0.290
2020/01/31 00:46:22.5	90.230	0.410	-0.430	0.270
2020/01/31 00:46:22.6	90.240	0.390	-0.370	0.250
2020/01/31 00:46:22.7	90.260	0.370	-0.300	0.230
2020/01/31 00:46:22.8	90.270	0.350	-0.240	0.210
2020/01/31 00:46:22.9	90.290	0.320	-0.170	0.190
2020/01/31 00:46:23.0	90.300	0.300	-0.110	0.180
2020/01/31 00:46:23.1	90.310	0.270	-0.050	0.170
2020/01/31 00:46:23.2	90.310	0.250	-0.000	0.160
2020/01/31 00:46:23.3	90.320	0.220	0.050	0.150
2020/01/31 00:46:23.4	90.320	0.190	0.100	0.140
2020/01/31 00:46:23.5	90.320	0.160	0.140	0.140
2020/01/31 00:46:23.6	90.320	0.140	0.180	0.130
2020/01/31 00:46:23.7	90.320	0.110	0.210	0.130
2020/01/31 00:46:23.8	90.320	0.080	0.240	0.140
2020/01/31 00:46:23.9	90.310	0.050	0.270	0.140
2020/01/31 00:46:24.0	90.310	0.020	0.290	0.150
2020/01/31 00:46:24.1	90.300	-0.000	0.310	0.160
2020/01/31 00:46:24.2	90.290	-0.030	0.320	0.170
2020/01/31 00:46:24.3	90.280	-0.060	0.330	0.180
2020/01/31 00:46:24.4	90.270	-0.090	0.340	0.190
2020/01/31 00:46:24.5	90.250	-0.120	0.350	0.210
2020/01/31 00:46:24.6	90.240	-0.150	0.350	0.220
2020/01/31 00:46:24.7	90.230	-0.170	0.350	0.240
2020/01/31 00:46:24.8	90.220	-0.200	0.350	0.250
2020/01/31 00:46:24.9	90.190	-0.230	0.340	0.270
2020/01/31 00:46:25.0	90.180	-0.260	0.330	0.290
2020/01/31 00:46:25.1	90.170	-0.290	0.320	0.310
2020/01/31 00:46:25.2	90.160	-0.320	0.320	0.330
2020/01/31 00:46:25.3	90.140	-0.350	0.310	0.340
2020/01/31 00:46:25.4	90.130	-0.370	0.290	0.360
2020/01/31 00:46:25.5	90.120	-0.400	0.280	0.380
2020/01/31 00:46:25.6	90.120	-0.430	0.270	0.390
2020/01/31 00:46:25.7	90.110	-0.450	0.260	0.410
2020/01/31 00:46:25.8	90.100	-0.480	0.240	0.420
2020/01/31 00:46:25.9	90.100	-0.500	0.220	0.430
2020/01/31 00:46:26.0	90.090	-0.520	0.210	0.440
2020/01/31 00:46:26.1	90.090	-0.540	0.190	0.450
2020/01/31 00:46:26.2	90.090	-0.560	0.180	0.460
2020/01/31 00:46:26.3	90.100	-0.570	0.160	0.460
2020/01/31 00:46:26.4	90.100	-0.580	0.140	0.460
2020/01/31 00:46:26.5	90.110	-0.590	0.130	0.460
2020/01/31 00:46:26.6	90.120	-0.600	0.110	0.460
2020/01/31 00:46:26.7	90.130	-0.610	0.090	0.460
2020/01/31 00:46:26.8	90.140	-0.610	0.070	0.460
2020/01/31 00:46:26.9	90.150	-0.610	0.060	0.450
2020/01/31 00:46:27.0	90.160	-0.610	0.040	0.450
2020/01/31 00:46:27.1	90.180	-0.600	0.020	0.440
2020/01/31 00:46:27.2	90.200	-0.600	0.010	0.440
2020/01/31 00:46:27.3	90.230	-0.580	-0.010	0.430
2020/01/31 00:46:27.4	90.250	-0.570	-0.030	0.430
2020/01/31 00:46:27.5	90.270	-0.550	-0.050	0.420
2020/01/31 00:46:27.6	90.300	-0.530	-0.080	0.420
2020/01/31 00:46:27.7	90.330	-0.510	-0.100	0.410
2020/01/31 00:46:27.8	90.350	-0.480	-0.120	0.410
2020/01/31 00:46:27.9	90.390	-0.460	-0.150	0.410
2020/01/31 00:46:28.0	90.410	-0.420	-0.170	0.410
2020/01/31 00:46:28.1	90.440	-0.390	-0.200	0.410
2020/01/31 00:46:28.2	90.460	-0.360	-0.230	0.410
2020/01/31 00:46:28.3	90.490	-0.320	-0.260	0.420
2020/01/31 00:46:28.4	90.510	-0.280	-0.290	0.420
2020/01/31 00:46:28.5	90.530	-0.240	-0.320	0.430
2020/01/31 00:46:28.6	90.550	-0.200	-0.350	0.430
2020/01/31 00:46:28.7	90.580	-0.160	-0.380	0.440
2020/01/31 00:46:28.8	90.600	-0.110	-0.410	0.440
2020/01/31 00:46:28.9	90.620	-0.070	-0.440	0.450
2020/01/31 00:46:29.0	90.640	-0.030	-0.470	0.460
2020/01/31 00:46:29.1	90.660	0.010	-0.500	0.460
2020/01/31 00:46:29.2	90.680	0.050	-0.530	0.470
2020/01/31 00:46:29.3	90.700	0.090	-0.560	0.470
2020/01/31 00:46:29.4	90.720	0.130	-0.580	0.480
2020/01/31 00:46:29.5	90.730	0.170	-0.600	0.480
2020/01/31 00:46:29.6	90.750	0.200	-0.620	0.480
2020/01/31 00:46:29.7	90.760	0.240	-0.630	0.490
2020/01/31 00:46:29.8	90.780	0.270	-0.640	0.490
2020/01/31 00:46:29.9	90.810	0.300	-0.650	0.490
2020/01/31 00:46:30.0	90.820	0.320	-0.650	0.490
2020/01/31 00:46:30.1	90.830	0.340	-0.650	0.500
2020/01/31 00:46:30.2	90.830	0.360	-0.640	0.500
2020/01/31 00:46:30.3	90.840	0.380	-0.630	0.510
2020/01/31 00:46:30.4	90.840	0.390	-0.620	0.510
2020/01/31 00:46:30.5	90.850	0.400	-0.600	0.520
2020/01/31 00:46:30.6	90.850	0.410	-0.580	0.530
2020/01/31 00:46:30.7	90.850	0.410	-0.550	0.530
2020/01/31 00:46:30.8	90.840	0.410	-0.520	0.550
2020/01/31 00:46:30.9	90.840	0.410	-0.490	0.560
2020/01/31 00:46:31.0	90.840	0.410	-0.450	0.570
2020/01/31 00:46:31.1	90.830	0.400	-0.410	0.590
2020/01/31 00:46:31.2	90.820	0.390	-0.370	0.610
2020/01/31 00:46:31.3	90.800	0.380	-0.320	0.630
2020/01/31 00:46:31.4	90.790	0.370	-0.280	0.650
2020/01/31 00:46:31.5	90.780	0.360	-0.230	0.680
2020/01/31 00:46:31.6	90.760	0.340	-0.190	0.700
2020/01/31 00:46:31.7	90.740	0.330	-0.140	0.730
2020/01/31 00:46:31.8	90.720	0.310	-0.090	0.760
2020/01/31 00:46:31.9	90.710	0.300	-0.050	0.790
2020/01/31 00:46:32.0	90.680	0.280	-0.000	0.830
2020/01/31 00:46:32.1	90.660	0.260	0.040	0.860
2020/01/31 00:46:32.2	90.640	0.250	0.070	0.890
2020/01/31 00:46:32.3	90.610	0.230	0.110	0.920
2020/01/31 00:46:32.4	90.580	0.220	0.140	0.960
2020/01/31 00:46:32.5	90.560	0.210	0.160	0.990
2020/01/31 00:46:32.6	90.540	0.190	0.190	1.020
2020/01/31 00:46:32.7	90.510	0.180	0.200	1.040
2020/01/31 00:46:32.8	90.490	0.170	0.210	1.070
2020/01/31 00:46:32.9	90.470	0.160	0.220	1.090
2020/01/31 00:46:33.0	90.450	0.150	0.230	1.110
2020/01/31 00:46:33.1	90.430	0.140	0.220	1.120
2020/01/31 00:46:33.2	90.420	0.140	0.220	1.140
2020/01/31 00:46:33.3	90.400	0.130	0.210	1.150
2020/01/31 00:46:33.4	90.390	0.120	0.200	1.150
2020/01/31 00:46:33.5	90.390	0.120	0.180	1.160
2020/01/31 00:46:33.6	90.380	0.110	0.160	1.160
2020/01/31 00:46:33.7	90.380	0.110	0.140	1.150
2020/01/31 00:46:33.8	90.370	0.110	0.120	1.140
2020/01/31 00:46:33.9	90.360	0.100	0.090	1.130
2020/01/31 00:46:34.0	90.370	0.100	0.070	1.120
2020/01/31 00:46:34.1	90.370	0.090	0.050	1.100
2020/01/31 00:46:34.2	90.380	0.090	0.020	1.090
2020/01/31 00:46:34.3	90.380	0.080	0.000	1.070
2020/01/31 00:46:34.4	90.390	0.080	-0.020	1.050
2020/01/31 00:46:34.5	90.400	0.070	-0.040	1.020
2020/01/31 00:46:34.6	90.410	0.060	-0.060	1.000
2020/01/31 00:46:34.7	90.420	0.060	-0.070	0.970
2020/01/31 00:46:34.8	90.440	0.050	-0.090	0.940
2020/01/31 00:46:34.9	90.450	0.040	-0.100	0.920
2020/01/31 00:46:35.0	90.460	0.030	-0.110	0.890
2020/01/31 00:46:35.1	90.480	0.020	-0.130	0.850
2020/01/31 00:46:35.2	90.490	0.010	-0.140	0.820
2020/01/31 00:46:35.3	90.510	-0.000	-0.150	0.790
2020/01/31 00:46:35.4	90.530	-0.010	-0.160	0.760
2020/01/31 00:46:35.5	90.540	-0.030	-0.170	0.730
2020/01/31 00:46:35.6	90.560	-0.040	-0.180	0.700
2020/01/31 00:46:35.7	90.580	-0.050	-0.190	0.670
2020/01/31 00:46:35.8	90.600	-0.060	-0.200	0.650
2020/01/31 00:46:35.9	90.620	-0.060	-0.220	0.620
2020/01/31 00:46:36.0	90.640	-0.070	-0.230	0.600
2020/01/31 00:46:36.1	90.660	-0.080	-0.240	0.570
2020/01/31 00:46:36.2	90.680	-0.080	-0.250	0.550
2020/01/31 00:46:36.3	90.700	-0.090	-0.260	0.540
2020/01/31 00:46:36.4	90.720	-0.090	-0.270	0.520
2020/01/31 00:46:36.5	90.740	-0.090	-0.280	0.510
2020/01/31 00:46:36.6	90.760	-0.090	-0.300	0.500
2020/01/31 00:46:36.7	90.770	-0.090	-0.310	0.490
2020/01/31 00:46:36.8	90.790	-0.090	-0.320	0.480
2020/01/31 00:46:36.9	90.810	-0.080	-0.330	0.480
2020/01/31 00:46:37.0	90.830	-0.080	-0.350	0.470
2020/01/31 00:46:37.1	90.840	-0.070	-0.360	0.470
2020/01/31 00:46:37.2	90.860	-0.070	-0.370	0.470
2020/01/31 00:46:37.3	90.870	-0.060	-0.380	0.480
2020/01/31 00:46:37.4	90.880	-0.050	-0.390	0.480
2020/01/31 00:46:37.5	90.890	-0.040	-0.390	0.490
2020/01/31 00:46:37.6	90.900	-0.030	-0.400	0.490
2020/01/31 00:46:37.7	90.900	-0.020	-0.400	0.500
2020/01/31 00:46:37.8	90.910	-0.020	-0.410	0.510
2020/01/31 00:46:37.9	90.920	-0.010	-0.400	0.530
2020/01/31 00:46:38.0	90.920	0.000	-0.400	0.540
2020/01/31 00:46:38.1	90.910	0.010	-0.400	0.550
2020/01/31 00:46:38.2	90.910	0.010	-0.390	0.560
2020/01/31 00:46:38.3	90.900	0.020	-0.380	0.570
2020/01/31 00:46:38.4	90.900	0.020	-0.370	0.590
2020/01/31 00:46:38.5	90.890	0.030	-0.350	0.600
2020/01/31 00:46:38.6	90.870	0.030	-0.340	0.610
2020/01/31 00:46:38.7	90.860	0.030	-0.320	0.620
2020/01/31 00:46:38.8	90.850	0.030	-0.290	0.630
2020/01/31 00:46:38.9	90.830	0.030	-0.270	0.640
2020/01/31 00:46:39.0	90.810	0.030	-0.250	0.650
2020/01/31 00:46:39.1	90.800	0.020	-0.220	0.660
2020/01/31 00:46:39.2	90.780	0.020	-0.200	0.670
2020/01/31 00:46:39.3	90.760	0.020	-0.170	0.680
2020/01/31 00:46:39.4	90.740	0.010	-0.140	0.690
2020/01/31 00:46:39.5	90.730	0.000	-0.120	0.690
2020/01/31 00:46:39.6	90.710	-0.000	-0.090	0.700
2020/01/31 00:46:39.7	90.700	-0.010	-0.070	0.710
2020/01/31 00:46:39.8	90.690	-0.020	-0.050	0.710
2020/01/31 00:46:39.9	90.680	-0.020	-0.030	0.720
2020/01/31 00:46:40.0	90.670	-0.030	-0.010	0.720
2020/01/31 00:46:40.1	90.660	-0.040	0.010	0.720
2020/01/31 00:46:40.2	90.660	-0.050	0.020	0.730
2020/01/31 00:46:40.3	90.650	-0.060	0.040	0.730
2020/01/31 00:46:40.4	90.650	-0.060	0.050	0.730
2020/01/31 00:46:40.5	90.640	-0.070	0.050	0.740
2020/01/31 00:46:40.6	90.640	-0.080	0.060	0.740
2020/01/31 00:46:40.7	90.640	-0.090	0.060	0.750
2020/01/31 00:46:40.8	90.640	-0.100	0.060	0.750
2020/01/31 00:46:40.9	90.630	-0.110	0.050	0.750
2020/01/31 00:46:41.0	90.630	-0.110	0.050	0.750
2020/01/31 00:46:41.1	90.630	-0.120	0.040	0.760
2020/01/31 00:46:41.2	90.630	-0.130	0.030	0.770
2020/01/31 00:46:41.3	90.630	-0.140	0.020	0.770
2020/01/31 00:46:41.4	90.640	-0.140	0.010	0.780
2020/01/31 00:46:41.5	90.640	-0.150	-0.010	0.780
2020/01/31 00:46:41.6	90.640	-0.160	-0.020	0.790
2020/01/31 00:46:41.7	90.650	-0.160	-0.040	0.790
2020/01/31 00:46:41.8	90.650	-0.170	-0.060	0.800
2020/01/31 00:46:41.9	90.640	-0.170	-0.080	0.800
2020/01/31 00:46:42.0	90.640	-0.180	-0.100	0.800
2020/01/31 00:46:42.1	90.650	-0.180	-0.120	0.800
2020/01/31 00:46:42.2	90.650	-0.190	-0.130	0.800
2020/01/31 00:46:42.3	90.660	-0.190	-0.150	0.800
2020/01/31 00:46:42.4	90.670	-0.200	-0.160	0.800
2020/01/31 00:46:42.5	90.670	-0.200	-0.180	0.800
2020/01/31 00:46:42.6	90.680	-0.210	-0.190	0.790
2020/01/31 00:46:42.7	90.680	-0.210	-0.200	0.790
2020/01/31 00:46:42.8	90.690	-0.210	-0.210	0.780
2020/01/31 00:46:42.9	90.690	-0.220	-0.220	0.780
2020/01/31 00:46:43.0	90.690	-0.220	-0.220	0.770
2020/01/31 00:46:43.1	90.700	-0.220	-0.220	0.760
2020/01/31 00:46:43.2	90.700	-0.220	-0.230	0.760
2020/01/31 00:46:43.3	90.700	-0.230	-0.230	0.750
2020/01/31 00:46:43.4	90.710	-0.230	-0.220	0.740
2020/01/31 00:46:43.5	90.710	-0.230	-0.220	0.740
2020/01/31 00:46:43.6	90.710	-0.230	-0.210	0.730
2020/01/31 00:46:43.7	90.710	-0.230	-0.210	0.730
2020/01/31 00:46:43.8	90.710	-0.220	-0.200	0.730
2020/01/31 00:46:43.9	90.710	-0.220	-0.190	0.730
2020/01/31 00:46:44.0	90.710	-0.220	-0.180	0.730
2020/01/31 00:46:44.1	90.710	-0.210	-0.180	0.730
2020/01/31 00:46:44.2	90.700	-0.210	-0.170	0.730
2020/01/31 00:46:44.3	90.700	-0.200	-0.160	0.730
2020/01/31 00:46:44.4	90.690	-0.200	-0.150	0.740
2020/01/31 00:46:44.5	90.680	-0.190	-0.140	0.750
2020/01/31 00:46:44.6	90.670	-0.180	-0.140	0.760
2020/01/31 00:46:44.7	90.660	-0.170	-0.130	0.770
2020/01/31 00:46:44.8	90.650	-0.160	-0.130	0.780
2020/01/31 00:46:44.9	90.650	-0.150	-0.130	0.790
2020/01/31 00:46:45.0	90.640	-0.140	-0.130	0.800
2020/01/31 00:46:45.1	90.620	-0.130	-0.130	0.810
2020/01/31 00:46:45.2	90.610	-0.120	-0.130	0.830
2020/01/31 00:46:45.3	90.600	-0.100	-0.140	0.840
2020/01/31 00:46:45.4	90.590	-0.090	-0.140	0.860
2020/01/31 00:46:45.5	90.580	-0.070	-0.150	0.870
2020/01/31 00:46:45.6	90.560	-0.060	-0.160	0.880
2020/01/31 00:46:45.7	90.560	-0.040	-0.170	0.890
2020/01/31 00:46:45.8	90.550	-0.020	-0.180	0.900
2020/01/31 00:46:45.9	90.560	-0.010	-0.190	0.910
2020/01/31 00:46:46.0	90.550	0.010	-0.200	0.910
2020/01/31 00:46:46.1	90.550	0.030	-0.210	0.910
2020/01/31 00:46:46.2	90.550	0.050	-0.220	0.910
2020/01/31 00:46:46.3	90.550	0.060	-0.240	0.910
2020/01/31 00:46:46.4	90.550	0.080	-0.250	0.900
2020/01/31 00:46:46.5	90.550	0.100	-0.260	0.890
2020/01/31 00:46:46.6	90.550	0.120	-0.270	0.870
2020/01/31 00:46:46.7	90.550	0.130	-0.290	0.860
2020/01/31 00:46:46.8	90.550	0.150	-0.300	0.830
2020/01/31 00:46:46.9	90.550	0.160	-0.310	0.810
2020/01/31 00:46:47.0	90.550	0.180	-0.320	0.780
2020/01/31 00:46:47.1	90.550	0.200	-0.330	0.750
2020/01/31 00:46:47.2	90.560	0.210	-0.330	0.720
2020/01/31 00:46:47.3	90.560	0.220	-0.340	0.690
2020/01/31 00:46:47.4	90.560	0.240	-0.340	0.650
2020/01/31 00:46:47.5	90.560	0.250	-0.340	0.610
2020/01/31 00:46:47.6	90.560	0.260	-0.340	0.580
2020/01/31 00:46:47.7	90.560	0.270	-0.330	0.540
2020/01/31 00:46:47.8	90.560	0.280	-0.320	0.500
2020/01/31 00:46:47.9	90.570	0.290	-0.310	0.470
2020/01/31 00:46:48.0	90.570	0.300	-0.290	0.430
2020/01/31 00:46:48.1	90.560	0.310	-0.270	0.400
2020/01/31 00:46:48.2	90.560	0.320	-0.250	0.360
2020/01/31 00:46:48.3	90.550	0.320	-0.230	0.330
2020/01/31 00:46:48.4	90.540	0.330	-0.200	0.300
2020/01/31 00:46:48.5	90.530	0.330	-0.180	0.280
2020/01/31 00:46:48.6	90.520	0.340	-0.150	0.250
2020/01/31 00:46:48.7	90.510	0.340	-0.120	0.230
2020/01/31 00:46:48.8	90.500	0.340	-0.090	0.210
2020/01/31 00:46:48.9	90.500	0.340	-0.060	0.200
2020/01/31 00:46:49.0	90.490	0.340	-0.030	0.180
2020/01/31 00:46:49.1	90.470	0.340	-0.000	0.170
2020/01/31 00:46:49.2	90.470	0.340	0.020	0.150
2020/01/31 00:46:49.3	90.460	0.330	0.040	0.140
2020/01/31 00:46:49.4	90.450	0.330	0.060	0.130
2020/01/31 00:46:49.5	90.440	0.330	0.080	0.120
2020/01/31 00:46:49.6	90.440	0.330	0.090	0.120
2020/01/31 00:46:49.7	90.440	0.320	0.090	0.110
2020/01/31 00:46:49.8	90.440	0.320	0.100	0.100
2020/01/31 00:46:49.9	90.430	0.310	0.090	0.090
2020/01/31 00:46:50.0	90.430	0.310	0.090	0.080
2020/01/31 00:46:50.1	90.440	0.300	0.080	0.070
2020/01/31 00:46:50.2	90.440	0.300	0.060	0.060
2020/01/31 00:46:50.3	90.450	0.290	0.040	0.050
2020/01/31 00:46:50.4	90.460	0.290	0.020	0.050
2020/01/31 00:46:50.5	90.470	0.280	-0.010	0.040
2020/01/31 00:46:50.6	90.480	0.270	-0.040	0.030
2020/01/31 00:46:50.7	90.490	0.260	-0.070	0.030
2020/01/31 00:46:50.8	90.500	0.250	-0.100	0.020
2020/01/31 00:46:50.9	90.520	0.240	-0.130	0.020
2020/01/31 00:46:51.0	90.530	0.230	-0.170	0.020
2020/01/31 00:46:51.1	90.540	0.220	-0.200	0.020
2020/01/31 00:46:51.2	90.550	0.200	-0.240	0.020
2020/01/31 00:46:51.3	90.560	0.190	-0.270	0.030
2020/01/31 00:46:51.4	90.570	0.170	-0.300	0.040
2020/01/31 00:46:51.5	90.580	0.150	-0.330	0.050
2020/01/31 00:46:51.6	90.590	0.130	-0.350	0.060
2020/01/31 00:46:51.7	90.590	0.110	-0.380	0.080
2020/01/31 00:46:51.8	90.600	0.090	-0.390	0.100
2020/01/31 00:46:51.9	90.600	0.070	-0.410	0.130
2020/01/31 00:46:52.0	90.610	0.040	-0.420	0.150
2020/01/31 00:46:52.1	90.610	0.020	-0.430	0.190
2020/01/31 00:46:52.2	90.610	-0.010	-0.430	0.220
2020/01/31 00:46:52.3	90.600	-0.040	-0.420	0.260
2020/01/31 00:46:52.4	90.600	-0.070	-0.420	0.300
2020/01/31 00:46:52.5	90.590	-0.100	-0.400	0.350
2020/01/31 00:46:52.6	90.590	-0.130	-0.380	0.390
2020/01/31 00:46:52.7	90.580	-0.160	-0.360	0.440
2020/01/31 00:46:52.8	90.570	-0.190	-0.340	0.500
2020/01/31 00:46:52.9	90.560	-0.220	-0.310	0.550
2020/01/31 00:46:53.0	90.540	-0.250	-0.270	0.600
2020/01/31 00:46:53.1	90.530	-0.280	-0.240	0.660
2020/01/31 00:46:53.2	90.520	-0.310	-0.200	0.720
2020/01/31 00:46:53.3	90.500	-0.340	-0.160	0.770
2020/01/31 00:46:53.4	90.480	-0.370	-0.120	0.830
2020/01/31 00:46:53.5	90.460	-0.400	-0.080	0.890
2020/01/31 00:46:53.6	90.440	-0.430	-0.030	0.940
2020/01/31 00:46:53.7	90.420	-0.450	0.010	1.000
2020/01/31 00:46:53.8	90.400	-0.480	0.050	1.050
2020/01/31 00:46:53.9	90.370	-0.500	0.090	1.100
2020/01/31 00:46:54.0	90.350	-0.520	0.130	1.150
2020/01/31 00:46:54.1	90.330	-0.540	0.170	1.210
2020/01/31 00:46:54.2	90.300	-0.550	0.200	1.250
2020/01/31 00:46:54.3	90.270	-0.570	0.230	1.300
2020/01/31 00:46:54.4	90.250	-0.580	0.260	1.350
2020/01/31 00:46:54.5	90.220	-0.580	0.280	1.390
2020/01/31 00:46:54.6	90.190	-0.590	0.300	1.430
2020/01/31 00:46:54.7	90.170	-0.590	0.310	1.470
2020/01/31 00:46:54.8	90.140	-0.580	0.320	1.510
2020/01/31 00:46:54.9	90.100	-0.580	0.320	1.540
2020/01/31 00:46:55.0	90.070	-0.570	0.320	1.570
2020/01/31 00:46:55.1	90.040	-0.560	0.310	1.600
2020/01/31 00:46:55.2	90.020	-0.540	0.290	1.630
2020/01/31 00:46:55.3	89.990	-0.520	0.270	1.660
2020/01/31 00:46:55.4	89.970	-0.500	0.240	1.680
2020/01/31 00:46:55.5	89.950	-0.470	0.210	1.700
2020/01/31 00:46:55.6	89.930	-0.440	0.170	1.720
2020/01/31 00:46:55.7	89.910	-0.410	0.120	1.740
2020/01/31 00:46:55.8	89.900	-0.370	0.070	1.750
2020/01/31 00:46:55.9	89.880	-0.330	0.020	1.770
2020/01/31 00:46:56.0	89.870	-0.290	-0.040	1.780
2020/01/31 00:46:56.1	89.860	-0.250	-0.110	1.780
2020/01/31 00:46:56.2	89.860	-0.210	-0.170	1.780
2020/01/31 00:46:56.3	89.860	-0.170	-0.240	1.780
2020/01/31 00:46:56.4	89.860	-0.120	-0.310	1.780
2020/01/31 00:46:56.5	89.860	-0.080	-0.370	1.770
2020/01/31 00:46:56.6	89.870	-0.030	-0.440	1.760
2020/01/31 00:46:56.7	89.870	0.010	-0.510	1.740
2020/01/31 00:46:56.8	89.880	0.050	-0.570	1.720
2020/01/31 00:46:56.9	89.880	0.100	-0.630	1.700
2020/01/31 00:46:57.0	89.900	0.130	-0.690	1.670
2020/01/31 00:46:57.1	89.910	0.170	-0.750	1.640
2020/01/31 00:46:57.2	89.930	0.210	-0.790	1.600
2020/01/31 00:46:57.3	89.940	0.240	-0.840	1.560
2020/01/31 00:46:57.4	89.960	0.270	-0.870	1.510
2020/01/31 00:46:57.5	89.980	0.290	-0.900	1.460
2020/01/31 00:46:57.6	89.990	0.320	-0.920	1.410
2020/01/31 00:46:57.7	90.010	0.340	-0.940	1.350
2020/01/31 00:46:57.8	90.020	0.350	-0.950	1.290
2020/01/31 00:46:57.9	90.020	0.360	-0.940	1.230
2020/01/31 00:46:58.0	90.030	0.370	-0.930	1.160
2020/01/31 00:46:58.1	90.040	0.380	-0.920	1.090
2020/01/31 00:46:58.2	90.040	0.380	-0.890	1.020
2020/01/31 00:46:58.3	90.050	0.380	-0.860	0.950
2020/01/31 00:46:58.4	90.050	0.370	-0.820	0.880
2020/01/31 00:46:58.5	90.050	0.360	-0.770	0.810
2020/01/31 00:46:58.6	90.040	0.350	-0.720	0.740
2020/01/31 00:46:58.7	90.040	0.340	-0.660	0.670
2020/01/31 00:46:58.8	90.020	0.320	-0.600	0.600
2020/01/31 00:46:58.9	90.010	0.310	-0.520	0.540
2020/01/31 00:46:59.0	89.990	0.290	-0.450	0.470
2020/01/31 00:46:59.1	89.970	0.270	-0.370	0.410
2020/01/31 00:46:59.2	89.950	0.240	-0.290	0.350
2020/01/31 00:46:59.3	89.930	0.220	-0.210	0.300
2020/01/31 00:46:59.4	89.900	0.200	-0.130	0.240
2020/01/31 00:46:59.5	89.870	0.170	-0.040	0.190
2020/01/31 00:46:59.6	89.840	0.150	0.040	0.150
2020/01/31 00:46:59.7	89.810	0.120	0.120	0.100
2020/01/31 00:46:59.8	89.780	0.090	0.200	0.060
2020/01/31 00:46:59.9	89.740	0.070	0.280	0.030
2020/01/31 00:47:00.0	89.700	0.040	0.350	-0.010
2020/01/31 00:47:00.1	89.670	0.020	0.420	-0.040
2020/01/31 00:47:00.2	89.630	-0.000	0.480	-0.060
2020/01/31 00:47:00.3	89.590	-0.030	0.540	-0.090
2020/01/31 00:47:00.4	89.560	-0.050	0.590	-0.110
2020/01/31 00:47:00.5	89.520	-0.070	0.630	-0.130
2020/01/31 00:47:00.6	89.480	-0.080	0.670	-0.140
2020/01/31 00:47:00.7	89.450	-0.100	0.690	-0.160
2020/01/31 00:47:00.8	89.420	-0.120	0.710	-0.170
2020/01/31 00:47:00.9	89.400	-0.130	0.730	-0.180
2020/01/31 00:47:01.0	89.370	-0.140	0.730	-0.190
2020/01/31 00:47:01.1	89.340	-0.150	0.720	-0.200
2020/01/31 00:47:01.2	89.320	-0.150	0.700	-0.210
2020/01/31 00:47:01.3	89.290	-0.160	0.680	-0.220
2020/01/31 00:47:01.4	89.270	-0.160	0.640	-0.230
2020/01/31 00:47:01.5	89.260	-0.160	0.600	-0.240
2020/01/31 00:47:01.6	89.240	-0.150	0.550	-0.260
2020/01/31 00:47:01.7	89.230	-0.150	0.490	-0.270
2020/01/31 00:47:01.8	89.220	-0.140	0.420	-0.280
2020/01/31 00:47:01.9	89.230	-0.130	0.350	-0.300
2020/01/31 00:47:02.0	89.230	-0.120	0.280	-0.310
2020/01/31 00:47:02.1	89.220	-0.110	0.200	-0.330
2020/01/31 00:47:02.2	89.220	-0.100	0.110	-0.350
2020/01/31 00:47:02.3	89.220	-0.090	0.030	-0.370
2020/01/31 00:47:02.4	89.230	-0.080	-0.060	-0.380
2020/01/31 00:47:02.5	89.230	-0.060	-0.140	-0.400
2020/01/31 00:47:02.6	89.240	-0.050	-0.230	-0.420
2020/01/31 00:47:02.7	89.240	-0.040	-0.310	-0.440
2020/01/31 00:47:02.8	89.250	-0.020	-0.400	-0.460
2020/01/31 00:47:02.9	89.270	-0.010	-0.480	-0.470
2020/01/31 00:47:03.0	89.280	0.000	-0.550	-0.480
2020/01/31 00:47:03.1	89.290	0.020	-0.620	-0.490
2020/01/31 00:47:03.2	89.300	0.030	-0.680	-0.490
2020/01/31 00:47:03.3	89.310	0.040	-0.740	-0.500
2020/01/31 00:47:03.4	89.320	0.050	-0.790	-0.500
2020/01/31 00:47:03.5	89.330	0.060	-0.830	-0.490
2020/01/31 00:47:03.6	89.340	0.070	-0.860	-0.480
2020/01/31 00:47:03.7	89.340	0.080	-0.890	-0.470
2020/01/31 00:47:03.8	89.350	0.090	-0.910	-0.450
2020/01/31 00:47:03.9	89.390	0.090	-0.920	-0.420
2020/01/31 00:47:04.0	89.390	0.100	-0.920	-0.400
2020/01/31 00:47:04.1	89.400	0.100	-0.920	-0.360
2020/01/31 00:47:04.2	89.400	0.110	-0.910	-0.330
2020/01/31 00:47:04.3	89.410	0.110	-0.890	-0.280
2020/01/31 00:47:04.4	89.410	0.110	-0.860	-0.230
2020/01/31 00:47:04.5	89.410	0.110	-0.830	-0.180
2020/01/31 00:47:04.6	89.410	0.110	-0.790	-0.120
2020/01/31 00:47:04.7	89.400	0.100	-0.750	-0.060
2020/01/31 00:47:04.8	89.390	0.100	-0.700	0.010
2020/01/31 00:47:04.9	89.410	0.100	-0.650	0.090
2020/01/31 00:47:05.0	89.400	0.090	-0.590	0.160
2020/01/31 00:47:05.1	89.390	0.080	-0.530	0.240
2020/01/31 00:47:05.2	89.370	0.070	-0.460	0.330
2020/01/31 00:47:05.3	89.360	0.060	-0.400	0.420
2020/01/31 00:47:05.4	89.340	0.050	-0.330	0.510
2020/01/31 00:47:05.5	89.310	0.040	-0.270	0.600
2020/01/31 00:47:05.6	89.290	0.030	-0.200	0.690
2020/01/31 00:47:05.7	89.270	0.020	-0.130	0.790
2020/01/31 00:47:05.8	89.240	0.010	-0.070	0.880
2020/01/31 00:47:05.9	89.190	-0.010	-0.010	0.980
2020/01/31 00:47:06.0	89.160	-0.020	0.050	1.080
2020/01/31 00:47:06.1	89.140	-0.030	0.110	1.170
2020/01/31 00:47:06.2	89.110	-0.050	0.160	1.260
2020/01/31 00:47:06.3	89.080	-0.060	0.210	1.350
2020/01/31 00:47:06.4	89.060	-0.070	0.250	1.440
2020/01/31 00:47:06.5	89.030	-0.080	0.280	1.520
2020/01/31 00:47:06.6	89.010	-0.090	0.310	1.600
2020/01/31 00:47:06.7	88.990	-0.100	0.340	1.680
2020/01/31 00:47:06.8	88.970	-0.110	0.360	1.740
2020/01/31 00:47:06.9	88.930	-0.120	0.370	1.800
2020/01/31 00:47:07.0	88.920	-0.120	0.370	1.860
2020/01/31 00:47:07.1	88.910	-0.130	0.370	1.910
2020/01/31 00:47:07.2	88.900	-0.130	0.370	1.950
2020/01/31 00:47:07.3	88.890	-0.130	0.350	1.990
2020/01/31 00:47:07.4	88.890	-0.130	0.330	2.020
2020/01/31 00:47:07.5	88.890	-0.130	0.310	2.050
2020/01/31 00:47:07.6	88.890	-0.130	0.280	2.070
2020/01/31 00:47:07.7	88.890	-0.130	0.250	2.080
2020/01/31 00:47:07.8	88.900	-0.130	0.220	2.090
2020/01/31 00:47:07.9				
2020/01/31 00:47:08.0	88.890	-0.120	0.180	2.090
2020/01/31 00:47:08.1	88.910	-0.110	0.110	2.090
2020/01/31 00:47:08.2	88.920	-0.100	0.070	2.080
2020/01/31 00:47:08.3	88.930	-0.100	0.030	2.070
2020/01/31 00:47:08.4	88.940	-0.090	-0.010	2.050
2020/01/31 00:47:08.5	88.950	-0.080	-0.050	2.040
2020/01/31 00:47:08.6	88.960	-0.070	-0.080	2.020
2020/01/31 00:47:08.7	88.970	-0.070	-0.110	2.000
2020/01/31 00:47:08.8	88.980	-0.060	-0.140	1.970
2020/01/31 00:47:08.9	88.990	-0.060	-0.170	1.950
2020/01/31 00:47:09.0	89.000	-0.050	-0.190	1.920
2020/01/31 00:47:09.1	89.010	-0.050	-0.210	1.890
2020/01/31 00:47:09.2	89.010	-0.040	-0.220	1.860
2020/01/31 00:47:09.3	89.020	-0.040	-0.230	1.820
2020/01/31 00:47:09.4	89.020	-0.040	-0.240	1.780
2020/01/31 00:47:09.5	89.020	-0.040	-0.240	1.750
2020/01/31 00:47:09.6	89.020	-0.040	-0.230	1.700
2020/01/31 00:47:09.7	89.010	-0.040	-0.230	1.660
2020/01/31 00:47:09.8	89.010	-0.040	-0.220	1.620
2020/01/31 00:47:09.9	89.000	-0.040	-0.200	1.570
2020/01/31 00:47:10.0				
2020/01/31 00:47:10.1	88.990	-0.050	-0.190	1.520
2020/01/31 00:47:10.2	88.970	-0.050	-0.150	1.420
2020/01/31 00:47:10.3	88.960	-0.060	-0.130	1.370
2020/01/31 00:47:10.4	88.950	-0.060	-0.110	1.320
2020/01/31 00:47:10.5	88.930	-0.060	-0.090	1.270
2020/01/31 00:47:10.6	88.920	-0.070	-0.070	1.220
2020/01/31 00:47:10.7	88.900	-0.070	-0.050	1.160
2020/01/31 00:47:10.8	88.880	-0.070	-0.030	1.110
2020/01/31 00:47:10.9	88.850	-0.070	-0.020	1.060
2020/01/31 00:47:11.0	88.830	-0.070	-0.010	1.000
2020/01/31 00:47:11.1	88.810	-0.070	0.000	0.950
2020/01/31 00:47:11.2	88.790	-0.070	0.010	0.900
2020/01/31 00:47:11.3	88.760	-0.060	0.010	0.850
2020/01/31 00:47:11.4	88.740	-0.060	0.000	0.800
2020/01/31 00:47:11.5	88.710	-0.050	-0.010	0.750
2020/01/31 00:47:11.6	88.690	-0.040	-0.020	0.700
2020/01/31 00:47:11.7	88.660	-0.030	-0.030	0.650
2020/01/31 00:47:11.8	88.640	-0.030	-0.060	0.600
2020/01/31 00:47:11.9	88.620	-0.010	-0.080	0.550
2020/01/31 00:47:12.0	88.590	-0.000	-0.110	0.500
2020/01/31 00:47:12.1				
2020/01/31 00:47:12.2	88.570	0.010	-0.140	0.450
2020/01/31 00:47:12.3	88.530	0.040	-0.210	0.360
2020/01/31 00:47:12.4	88.510	0.050	-0.250	0.320
2020/01/31 00:47:12.5	88.490	0.060	-0.290	0.270
2020/01/31 00:47:12.6	88.470	0.080	-0.340	0.230
2020/01/31 00:47:12.7	88.460	0.090	-0.380	0.190
2020/01/31 00:47:12.8	88.450	0.110	-0.420	0.150
2020/01/31 00:47:12.9	88.440	0.120	-0.460	0.110
2020/01/31 00:47:13.0	88.430	0.130	-0.510	0.070
2020/01/31 00:47:13.1	88.420	0.150	-0.550	0.030
2020/01/31 00:47:13.2	88.410	0.160	-0.590	-0.000
2020/01/31 00:47:13.3	88.410	0.170	-0.630	-0.030
2020/01/31 00:47:13.4	88.400	0.180	-0.660	-0.070
2020/01/31 00:47:13.5	88.400	0.190	-0.690	-0.100
2020/01/31 00:47:13.6	88.390	0.190	-0.720	-0.130
2020/01/31 00:47:13.7	88.390	0.200	-0.750	-0.150
2020/01/31 00:47:13.8	88.390	0.210	-0.770	-0.180
2020/01/31 00:47:13.9	88.410	0.210	-0.790	-0.200
2020/01/31 00:47:14.0	88.410	0.210	-0.800	-0.220
2020/01/31 00:47:14.1	88.410	0.210	-0.810	-0.240
2020/01/31 00:47:14.2				
2020/01/31 00:47:14.3	88.410	0.220	-0.820	-0.250
2020/01/31 00:47:14.4	88.420	0.210	-0.810	-0.280
2020/01/31 00:47:14.5	88.430	0.210	-0.800	-0.290
2020/01/31 00:47:14.6	88.440	0.210	-0.790	-0.290
2020/01/31 00:47:14.7	88.440	0.200	-0.770	-0.300
2020/01/31 00:47:14.8	88.450	0.190	-0.750	-0.300
2020/01/31 00:47:14.9	88.480	0.190	-0.720	-0.290
2020/01/31 00:47:15.0	88.490	0.180	-0.690	-0.290
2020/01/31 00:47:15.1	88.500	0.170	-0.650	-0.290
2020/01/31 00:47:15.2	88.500	0.160	-0.620	-0.280
2020/01/31 00:47:15.3	88.510	0.160	-0.580	-0.280
2020/01/31 00:47:15.4	88.520	0.150	-0.540	-0.260
2020/01/31 00:47:15.5	88.530	0.140	-0.490	-0.250
2020/01/31 00:47:15.6	88.540	0.130	-0.450	-0.230
2020/01/31 00:47:15.7	88.540	0.120	-0.400	-0.220
2020/01/31 00:47:15.8	88.550	0.110	-0.360	-0.190
2020/01/31 00:47:15.9	88.550	0.100	-0.300	-0.170
2020/01/31 00:47:16.0	88.550	0.090	-0.260	-0.150
2020/01/31 00:47:16.1	88.550	0.080	-0.210	-0.120
2020/01/31 00:47:16.2	88.550	0.070	-0.160	-0.090
2020/01/31 00:47:16.3	88.550	0.060	-0.110	-0.050
2020/01/31 00:47:16.4	88.550	0.050	-0.060	-0.020
2020/01/31 00:47:16.5	88.540	0.050	-0.010	0.010
2020/01/31 00:47:16.6	88.540	0.040	0.030	0.050
2020/01/31 00:47:16.7	88.530	0.030	0.080	0.090
2020/01/31 00:47:16.8	88.520	0.020	0.120	0.130
2020/01/31 00:47:16.9	88.530	0.010	0.170	0.170
2020/01/31 00:47:17.0	88.520	-0.000	0.210	0.210
2020/01/31 00:47:17.1	88.520	-0.010	0.250	0.250
2020/01/31 00:47:17.2	88.510	-0.020	0.290	0.290
2020/01/31 00:47:17.3	88.500	-0.040	0.320	0.330
2020/01/31 00:47:17.4	88.490	-0.050	0.360	0.370
2020/01/31 00:47:17.5	88.480	-0.060	0.390	0.420
2020/01/31 00:47:17.6	88.470	-0.070	0.420	0.460
2020/01/31 00:47:17.7	88.450	-0.080	0.450	0.500
2020/01/31 00:47:17.8	88.440	-0.100	0.470	0.550
2020/01/31 00:47:17.9	88.420	-0.110	0.490	0.590
2020/01/31 00:47:18.0	88.410	-0.120	0.510	0.630
2020/01/31 00:47:18.1	88.400	-0.140	0.530	0.680
2020/01/31 00:47:18.2	88.380	-0.150	0.550	0.730
2020/01/31 00:47:18.3	88.370	-0.160	0.560	0.770
2020/01/31 00:47:18.4	88.360	-0.180	0.570	0.820
2020/01/31 00:47:18.5	88.350	-0.190	0.570	0.870
2020/01/31 00:47:18.6	88.340	-0.200	0.580	0.920
2020/01/31 00:47:18.7	88.320	-0.210	0.580	0.960
2020/01/31 00:47:18.8	88.310	-0.220	0.580	1.010
2020/01/31 00:47:18.9	88.300	-0.230	0.570	1.060
2020/01/31 00:47:19.0	88.290	-0.240	0.570	1.100
2020/01/31 00:47:19.1	88.290	-0.250	0.560	1.140
2020/01/31 00:47:19.2	88.280	-0.250	0.550	1.180
2020/01/31 00:47:19.3	88.280	-0.260	0.530	1.220
2020/01/31 00:47:19.4	88.270	-0.260	0.510	1.250
2020/01/31 00:47:19.5	88.270	-0.270	0.500	1.290
2020/01/31 00:47:19.6	88.270	-0.270	0.470	1.320
2020/01/31 00:47:19.7	88.280	-0.270	0.450	1.340
2020/01/31 00:47:19.8	88.280	-0.270	0.420	1.360
2020/01/31 00:47:19.9	88.280	-0.260	0.390	1.380
2020/01/31 00:47:20.0	88.290	-0.260	0.360	1.400
2020/01/31 00:47:20.1	88.300	-0.260	0.330	1.410
2020/01/31 00:47:20.2	88.310	-0.250	0.290	1.420
2020/01/31 00:47:20.3	88.320	-0.240	0.260	1.430
2020/01/31 00:47:20.4	88.340	-0.230	0.220	1.430
2020/01/31 00:47:20.5	88.350	-0.220	0.180	1.440
2020/01/31 00:47:20.6	88.360	-0.210	0.140	1.440
2020/01/31 00:47:20.7	88.380	-0.200	0.090	1.430
2020/01/31 00:47:20.8	88.390	-0.190	0.050	1.430
2020/01/31 00:47:20.9	88.410	-0.170	0.000	1.430
2020/01/31 00:47:21.0	88.430	-0.160	-0.040	1.420
2020/01/31 00:47:21.1	88.440	-0.150	-0.090	1.420
2020/01/31 00:47:21.2	88.450	-0.130	-0.140	1.410
2020/01/31 00:47:21.3	88.460	-0.120	-0.180	1.400
2020/01/31 00:47:21.4	88.470	-0.100	-0.230	1.400
2020/01/31 00:47:21.5	88.480	-0.090	-0.270	1.390
2020/01/31 00:47:21.6	88.490	-0.070	-0.320	1.380
2020/01/31 00:47:21.7	88.490	-0.060	-0.360	1.380
2020/01/31 00:47:21.8	88.500	-0.050	-0.400	1.370
2020/01/31 00:47:21.9	88.490	-0.030	-0.450	1.370
2020/01/31 00:47:22.0	88.500	-0.020	-0.490	1.360
2020/01/31 00:47:22.1	88.500	-0.010	-0.530	1.360
2020/01/31 00:47:22.2	88.500	0.000	-0.570	1.360
2020/01/31 00:47:22.3	88.500	0.010	-0.610	1.360
2020/01/31 00:47:22.4	88.500	0.020	-0.640	1.360
2020/01/31 00:47:22.5	88.500	0.030	-0.680	1.370
2020/01/31 00:47:22.6	88.500	0.040	-0.710	1.370
2020/01/31 00:47:22.7	88.500	0.050	-0.750	1.370
2020/01/31 00:47:22.8	88.500	0.060	-0.780	1.380
2020/01/31 00:47:22.9	88.500	0.070	-0.810	1.390
2020/01/31 00:47:23.0	88.500	0.080	-0.840	1.390
2020/01/31 00:47:23.1	88.500	0.080	-0.870	1.390
2020/01/31 00:47:23.2	88.500	0.090	-0.900	1.400
2020/01/31 00:47:23.3	88.500	0.100	-0.930	1.400
2020/01/31 00:47:23.4	88.500	0.110	-0.950	1.400
2020/01/31 00:47:23.5	88.500	0.120	-0.980	1.400
2020/01/31 00:47:23.6	88.510	0.130	-1.000	1.400
2020/01/31 00:47:23.7	88.510	0.140	-1.020	1.400
2020/01/31 00:47:23.8	88.510	0.140	-1.040	1.400
2020/01/31 00:47:23.9	88.530	0.150	-1.060	1.390
2020/01/31 00:47:24.0	88.530	0.160	-1.070	1.390
2020/01/31 00:47:24.1	88.540	0.170	-1.080	1.380
2020/01/31 00:47:24.2	88.540	0.180	-1.080	1.370
2020/01/31 00:47:24.3	88.550	0.190	-1.080	1.360
2020/01/31 00:47:24.4	88.560	0.200	-1.070	1.350
2020/01/31 00:47:24.5	88.560	0.210	-1.060	1.330
2020/01/31 00:47:24.6	88.570	0.220	-1.040	1.320
2020/01/31 00:47:24.7	88.570	0.220	-1.010	1.300
2020/01/31 00:47:24.8	88.580	0.230	-0.980	1.280
2020/01/31 00:47:24.9	88.580	0.230	-0.940	1.270
2020/01/31 00:47:25.0	88.590	0.240	-0.890	1.250
2020/01/31 00:47:25.1	88.590	0.240	-0.840	1.230
2020/01/31 00:47:25.2	88.600	0.240	-0.780	1.200
2020/01/31 00:47:25.3	88.600	0.250	-0.720	1.180
2020/01/31 00:47:25.4	88.600	0.250	-0.650	1.160
2020/01/31 00:47:25.5	88.610	0.240	-0.570	1.140
2020/01/31 00:47:25.6	88.610	0.240	-0.490	1.120
2020/01/31 00:47:25.7	88.610	0.240	-0.410	1.100
2020/01/31 00:47:25.8	88.610	0.230	-0.320	1.080
2020/01/31 00:47:25.9	88.600	0.220	-0.230	1.060
2020/01/31 00:47:26.0	88.600	0.210	-0.140	1.040
2020/01/31 00:47:26.1	88.600	0.200	-0.040	1.020
2020/01/31 00:47:26.2	88.590	0.190	0.050	1.010
2020/01/31 00:47:26.3	88.580	0.180	0.140	0.990
2020/01/31 00:47:26.4	88.580	0.170	0.230	0.980
2020/01/31 00:47:26.5	88.570	0.150	0.320	0.960
2020/01/31 00:47:26.6	88.560	0.140	0.410	0.950
2020/01/31 00:47:26.7	88.550	0.120	0.490	0.940
2020/01/31 00:47:26.8	88.540	0.100	0.560	0.930
2020/01/31 00:47:26.9	88.530	0.080	0.630	0.910
2020/01/31 00:47:27.0	88.520	0.070	0.700	0.900
2020/01/31 00:47:27.1	88.510	0.050	0.750	0.880
2020/01/31 00:47:27.2	88.500	0.030	0.800	0.870
2020/01/31 00:47:27.3	88.490	0.010	0.840	0.850
2020/01/31 00:47:27.4	88.480	-0.010	0.870	0.820
2020/01/31 00:47:27.5	88.470	-0.030	0.900	0.800
2020/01/31 00:47:27.6	88.460	-0.040	0.910	0.770
2020/01/31 00:47:27.7	88.450	-0.060	0.920	0.740
2020/01/31 00:47:27.8	88.440	-0.080	0.910	0.710
2020/01/31 00:47:27.9	88.440	-0.090	0.900	0.670
2020/01/31 00:47:28.0	88.440	-0.110	0.880	0.630
2020/01/31 00:47:28.1	88.430	-0.120	0.860	0.580
2020/01/31 00:47:28.2	88.430	-0.130	0.820	0.530
2020/01/31 00:47:28.3	88.430	-0.140	0.780	0.480
2020/01/31 00:47:28.4	88.430	-0.150	0.740	0.430
2020/01/31 00:47:28.5	88.440	-0.160	0.690	0.370
2020/01/31 00:47:28.6	88.440	-0.170	0.630	0.310
2020/01/31 00:47:28.7	88.450	-0.170	0.570	0.250
2020/01/31 00:47:28.8	88.460	-0.180	0.500	0.190
2020/01/31 00:47:28.9	88.470	-0.180	0.430	0.120
2020/01/31 00:47:29.0	88.480	-0.180	0.360	0.060
2020/01/31 00:47:29.1	88.500	-0.180	0.290	-0.000
2020/01/31 00:47:29.2	88.510	-0.180	0.210	-0.070
2020/01/31 00:47:29.3	88.530	-0.180	0.140	-0.130
2020/01/31 00:47:29.4	88.550	-0.170	0.060	-0.200
2020/01/31 00:47:29.5	88.570	-0.160	-0.020	-0.260
2020/01/31 00:47:29.6	88.590	-0.160	-0.100	-0.320
2020/01/31 00:47:29.7	88.620	-0.150	-0.170	-0.370
2020/01/31 00:47:29.8	88.640	-0.130	-0.250	-0.420
2020/01/31 00:47:29.9	88.660	-0.120	-0.330	-0.480
2020/01/31 00:47:30.0	88.680	-0.110	-0.400	-0.520
2020/01/31 00:47:30.1	88.710	-0.090	-0.470	-0.570
2020/01/31 00:47:30.2	88.740	-0.080	-0.540	-0.600
2020/01/31 00:47:30.3	88.770	-0.060	-0.600	-0.630
2020/01/31 00:47:30.4	88.800	-0.040	-0.660	-0.660
2020/01/31 00:47:30.5	88.830	-0.020	-0.720	-0.680
2020/01/31 00:47:30.6	88.850	-0.000	-0.770	-0.700
2020/01/31 00:47:30.7	88.880	0.020	-0.820	-0.710
2020/01/31 00:47:30.8	88.910	0.040	-0.860	-0.720
2020/01/31 00:47:30.9	88.930	0.060	-0.900	-0.710
2020/01/31 00:47:31.0				
2020/01/31 00:47:31.1	88.950	0.080	-0.930	-0.710
2020/01/31 00:47:31.2	88.990	0.110	-0.980	-0.680
2020/01/31 00:47:31.3	89.010	0.130	-0.990	-0.660
2020/01/31 00:47:31.4	89.030	0.140	-1.000	-0.630
2020/01/31 00:47:31.5	89.040	0.160	-1.000	-0.600
2020/01/31 00:47:31.6	89.060	0.170	-1.000	-0.570
2020/01/31 00:47:31.7	89.070	0.180	-0.980	-0.540
2020/01/31 00:47:31.8	89.080	0.180	-0.970	-0.500
2020/01/31 00:47:31.9	89.090	0.190	-0.940	-0.450
2020/01/31 00:47:32.0	89.090	0.190	-0.910	-0.400
2020/01/31 00:47:32.1	89.100	0.190	-0.870	-0.360
2020/01/31 00:47:32.2	89.100	0.190	-0.820	-0.310
2020/01/31 00:47:32.3	89.100	0.180	-0.770	-0.260
2020/01/31 00:47:32.4	89.100	0.170	-0.720	-0.200
2020/01/31 00:47:32.5	89.090	0.160	-0.650	-0.150
2020/01/31 00:47:32.6	89.090	0.140	-0.590	-0.090
2020/01/31 00:47:32.7	89.090	0.120	-0.520	-0.030
2020/01/31 00:47:32.8	89.080	0.100	-0.440	0.030
2020/01/31 00:47:32.9	89.090	0.080	-0.370	0.100
2020/01/31 00:47:33.0	89.080	0.060	-0.290	0.160
2020/01/31 00:47:33.1				
2020/01/31 00:47:33.2	89.080	0.030	-0.210	0.230
2020/01/31 00:47:33.3	89.060	-0.030	-0.040	0.360
2020/01/31 00:47:33.4	89.060	-0.060	0.040	0.430
2020/01/31 00:47:33.5	89.060	-0.090	0.120	0.500
2020/01/31 00:47:33.6	89.050	-0.120	0.200	0.570
2020/01/31 00:47:33.7	89.050	-0.160	0.270	0.650
2020/01/31 00:47:33.8	89.050	-0.190	0.340	0.720
2020/01/31 00:47:33.9	89.020	-0.220	0.410	0.790
2020/01/31 00:47:34.0	89.020	-0.250	0.480	0.860
2020/01/31 00:47:34.1	89.010	-0.280	0.530	0.930
2020/01/31 00:47:34.2	89.010	-0.310	0.580	1.000
2020/01/31 00:47:34.3	89.010	-0.340	0.620	1.080
2020/01/31 00:47:34.4	89.010	-0.360	0.660	1.150
2020/01/31 00:47:34.5	89.010	-0.390	0.690	1.220
2020/01/31 00:47:34.6	89.000	-0.410	0.710	1.290
2020/01/31 00:47:34.7	89.000	-0.420	0.720	1.360
2020/01/31 00:47:34.8	89.000	-0.440	0.720	1.420
2020/01/31 00:47:34.9	89.000	-0.450	0.720	1.490
2020/01/31 00:47:35.0	88.990	-0.450	0.700	1.550
2020/01/31 00:47:35.1	88.990	-0.460	0.680	1.620
2020/01/31 00:47:35.2				
2020/01/31 00:47:35.3	88.990	-0.460	0.650	1.680
2020/01/31 00:47:35.4	88.990	-0.440	0.570	1.780
2020/01/31 00:47:35.5	89.000	-0.430	0.520	1.830
2020/01/31 00:47:35.6	89.000	-0.420	0.470	1.880
2020/01/31 00:47:35.7	89.000	-0.400	0.400	1.930
2020/01/31 00:47:35.8	89.010	-0.380	0.340	1.960
2020/01/31 00:47:35.9	89.010	-0.360	0.260	2.000
2020/01/31 00:47:36.0	89.020	-0.330	0.190	2.030
2020/01/31 00:47:36.1	89.030	-0.300	0.120	2.060
2020/01/31 00:47:36.2	89.040	-0.270	0.040	2.090
2020/01/31 00:47:36.3	89.050	-0.230	-0.040	2.110
2020/01/31 00:47:36.4	89.060	-0.200	-0.120	2.120
2020/01/31 00:47:36.5	89.080	-0.160	-0.200	2.140
2020/01/31 00:47:36.6	89.090	-0.120	-0.270	2.140
2020/01/31 00:47:36.7	89.100	-0.080	-0.350	2.150
2020/01/31 00:47:36.8	89.120	-0.040	-0.420	2.150
2020/01/31 00:47:36.9	89.120	-0.000	-0.490	2.150
2020/01/31 00:47:37.0	89.130	0.040	-0.550	2.140
2020/01/31 00:47:37.1	89.150	0.080	-0.610	2.130
2020/01/31 00:47:37.2	89.160	0.110	-0.670	2.120
2020/01/31 00:47:37.3				
2020/01/31 00:47:37.4	89.180	0.150	-0.720	2.100
2020/01/31 00:47:37.5	89.200	0.220	-0.800	2.070
2020/01/31 00:47:37.6	89.210	0.250	-0.830	2.040
2020/01/31 00:47:37.7	89.230	0.280	-0.860	2.010
2020/01/31 00:47:37.8	89.240	0.310	-0.880	1.990
2020/01/31 00:47:37.9	89.220	0.340	-0.890	1.950
2020/01/31 00:47:38.0	89.230	0.360	-0.900	1.920
2020/01/31 00:47:38.1	89.240	0.380	-0.900	1.880
2020/01/31 00:47:38.2	89.250	0.400	-0.900	1.850
2020/01/31 00:47:38.3	89.260	0.420	-0.890	1.810
2020/01/31 00:47:38.4	89.270	0.430	-0.880	1.770
2020/01/31 00:47:38.5	89.270	0.440	-0.860	1.730
2020/01/31 00:47:38.6	89.280	0.450	-0.840	1.680
2020/01/31 00:47:38.7	89.290	0.460	-0.810	1.640
2020/01/31 00:47:38.8	89.290	0.460	-0.780	1.600
2020/01/31 00:47:38.9	89.290	0.470	-0.740	1.550
2020/01/31 00:47:39.0	89.290	0.470	-0.710	1.500
2020/01/31 00:47:39.1	89.300	0.460	-0.670	1.460
2020/01/31 00:47:39.2	89.310	0.460	-0.620	1.410
2020/01/31 00:47:39.3	89.310	0.450	-0.580	1.370
2020/01/31 00:47:39.4				
2020/01/31 00:47:39.5	89.320	0.450	-0.530	1.330
2020/01/31 00:47:39.6	89.330	0.430	-0.430	1.240
2020/01/31 00:47:39.7	89.330	0.410	-0.380	1.200
2020/01/31 00:47:39.8	89.340	0.400	-0.320	1.170
2020/01/31 00:47:39.9	89.340	0.380	-0.270	1.130
2020/01/31 00:47:40.0	89.340	0.370	-0.220	1.100
2020/01/31 00:47:40.1	89.340	0.350	-0.170	1.070
2020/01/31 00:47:40.2	89.340	0.330	-0.120	1.040
2020/01/31 00:47:40.3	89.340	0.310	-0.070	1.010
2020/01/31 00:47:40.4	89.340	0.290	-0.030	0.980
2020/01/31 00:47:40.5	89.340	0.270	0.020	0.950
2020/01/31 00:47:40.6	89.330	0.250	0.060	0.930
2020/01/31 00:47:40.7	89.330	0.220	0.100	0.900
2020/01/31 00:47:40.8	89.320	0.200	0.140	0.880
2020/01/31 00:47:40.9	89.310	0.180	0.170	0.850
2020/01/31 00:47:41.0	89.300	0.150	0.200	0.830
2020/01/31 00:47:41.1	89.300	0.130	0.230	0.810
2020/01/31 00:47:41.2	89.290	0.110	0.250	0.780
2020/01/31 00:47:41.3	89.280	0.080	0.270	0.760
2020/01/31 00:47:41.4	89.270	0.060	0.290	0.730
2020/01/31 00:47:41.5				
2020/01/31 00:47:41.6	89.260	0.030	0.300	0.700
2020/01/31 00:47:41.7	89.250	-0.020	0.320	0.640
2020/01/31 00:47:41.8	89.240	-0.040	0.320	0.610
2020/01/31 00:47:41.9	89.260	-0.060	0.320	0.570
2020/01/31 00:47:42.0	89.250	-0.090	0.320	0.530
2020/01/31 00:47:42.1	89.250	-0.110	0.310	0.490
2020/01/31 00:47:42.2	89.250	-0.130	0.310	0.450
2020/01/31 00:47:42.3	89.250	-0.160	0.300	0.400
2020/01/31 00:47:42.4	89.260	-0.180	0.280	0.360
2020/01/31 00:47:42.5	89.260	-0.200	0.270	0.310
2020/01/31 00:47:42.6	89.270	-0.220	0.250	0.260
2020/01/31 00:47:42.7	89.280	-0.240	0.240	0.200
2020/01/31 00:47:42.8	89.300	-0.260	0.220	0.150
2020/01/31 00:47:42.9	89.320	-0.280	0.190	0.090
2020/01/31 00:47:43.0	89.330	-0.290	0.170	0.040
2020/01/31 00:47:43.1	89.350	-0.310	0.150	-0.010
2020/01/31 00:47:43.2	89.370	-0.320	0.130	-0.070
2020/01/31 00:47:43.3	89.400	-0.330	0.100	-0.120
2020/01/31 00:47:43.4	89.420	-0.350	0.080	-0.170
2020/01/31 00:47:43.5	89.450	-0.360	0.050	-0.220
2020/01/31 00:47:43.6				
2020/01/31 00:47:43.7	89.470	-0.360	0.030	-0.270
2020/01/31 00:47:43.8	89.530	-0.370	-0.030	-0.360
2020/01/31 00:47:43.9	89.560	-0.380	-0.050	-0.400
2020/01/31 00:47:44.0	89.590	-0.380	-0.080	-0.430
2020/01/31 00:47:44.1	89.620	-0.380	-0.110	-0.470
2020/01/31 00:47:44.2	89.660	-0.370	-0.140	-0.490
2020/01/31 00:47:44.3	89.690	-0.370	-0.160	-0.520
2020/01/31 00:47:44.4	89.730	-0.360	-0.190	-0.540
2020/01/31 00:47:44.5	89.760	-0.350	-0.220	-0.560
2020/01/31 00:47:44.6	89.800	-0.340	-0.250	-0.570
2020/01/31 00:47:44.7	89.830	-0.330	-0.270	-0.580
2020/01/31 00:47:44.8	89.860	-0.310	-0.300	-0.580
2020/01/31 00:47:44.9	89.910	-0.300	-0.320	-0.580
2020/01/31 00:47:45.0	89.940	-0.280	-0.350	-0.580
2020/01/31 00:47:45.1	89.970	-0.260	-0.370	-0.570
2020/01/31 00:47:45.2	90.000	-0.240	-0.390	-0.550
2020/01/31 00:47:45.3	90.020	-0.220	-0.410	-0.530
2020/01/31 00:47:45.4	90.050	-0.200	-0.430	-0.510
2020/01/31 00:47:45.5	90.070	-0.170	-0.450	-0.480
2020/01/31 00:47:45.6	90.090	-0.150	-0.460	-0.440
2020/01/31 00:47:45.7				
2020/01/31 00:47:45.8	90.110	-0.130	-0.470	-0.410
2020/01/31 00:47:45.9	90.140	-0.080	-0.490	-0.320
2020/01/31 00:47:46.0	90.150	-0.050	-0.500	-0.270
2020/01/31 00:47:46.1	90.160	-0.030	-0.500	-0.220
2020/01/31 00:47:46.2	90.170	-0.010	-0.500	-0.160
2020/01/31 00:47:46.3	90.170	0.020	-0.490	-0.100
2020/01/31 00:47:46.4	90.170	0.040	-0.490	-0.040
2020/01/31 00:47:46.5	90.170	0.060	-0.480	0.020
2020/01/31 00:47:46.6	90.170	0.080	-0.470	0.080
2020/01/31 00:47:46.7	90.170	0.090	-0.450	0.150
2020/01/31 00:47:46.8	90.160	0.110	-0.430	0.220
2020/01/31 00:47:46.9	90.150	0.130	-0.410	0.290
2020/01/31 00:47:47.0	90.140	0.140	-0.390	0.360
2020/01/31 00:47:47.1	90.130	0.150	-0.360	0.430
2020/01/31 00:47:47.2	90.120	0.160	-0.330	0.500
2020/01/31 00:47:47.3	90.100	0.170	-0.300	0.570
2020/01/31 00:47:47.4	90.090	0.170	-0.260	0.640
2020/01/31 00:47:47.5	90.070	0.180	-0.220	0.710
2020/01/31 00:47:47.6	90.050	0.180	-0.190	0.790
2020/01/31 00:47:47.7	90.030	0.180	-0.150	0.860
2020/01/31 00:47:47.8				
2020/01/31 00:47:47.9	90.020	0.180	-0.110	0.930
2020/01/31 00:47:48.0	89.970	0.170	-0.030	1.060
2020/01/31 00:47:48.1	89.950	0.170	0.010	1.130
2020/01/31 00:47:48.2	89.930	0.160	0.050	1.200
2020/01/31 00:47:48.3	89.910	0.160	0.090	1.270
2020/01/31 00:47:48.4	89.890	0.150	0.130	1.330
2020/01/31 00:47:48.5	89.870	0.140	0.160	1.390
2020/01/31 00:47:48.6	89.850	0.130	0.190	1.450
2020/01/31 00:47:48.7	89.830	0.120	0.220	1.510
2020/01/31 00:47:48.8	89.820	0.110	0.240	1.560
2020/01/31 00:47:48.9	89.790	0.100	0.260	1.620
2020/01/31 00:47:49.0	89.780	0.090	0.280	1.660
2020/01/31 00:47:49.1	89.770	0.070	0.290	1.710
2020/01/31 00:47:49.2	89.760	0.060	0.300	1.740
2020/01/31 00:47:49.3	89.750	0.050	0.310	1.780
2020/01/31 00:47:49.4	89.740	0.040	0.320	1.810
2020/01/31 00:47:49.5	89.740	0.030	0.320	1.830
2020/01/31 00:47:49.6	89.740	0.020	0.310	1.850
2020/01/31 00:47:49.7	89.740	0.010	0.310	1.860
2020/01/31 00:47:49.8	89.740	0.000	0.300	1.870
2020/01/31 00:47:49.9				
2020/01/31 00:47:50.0	89.760	-0.010	0.290	1.870
2020/01/31 00:47:50.1	89.780	-0.020	0.250	1.860
2020/01/31 00:47:50.2	89.790	-0.020	0.230	1.850
2020/01/31 00:47:50.3	89.810	-0.030	0.200	1.840
2020/01/31 00:47:50.4	89.820	-0.030	0.180	1.810
2020/01/31 00:47:50.5	89.840	-0.030	0.140	1.790
2020/01/31 00:47:50.6	89.860	-0.030	0.110	1.760
2020/01/31 00:47:50.7	89.890	-0.020	0.070	1.720
2020/01/31 00:47:50.8	89.910	-0.020	0.030	1.690
2020/01/31 00:47:50.9	89.920	-0.010	-0.010	1.640
2020/01/31 00:47:51.0	89.950	-0.000	-0.060	1.600
2020/01/31 00:47:51.1	89.980	0.010	-0.100	1.550
2020/01/31 00:47:51.2	90.020	0.020	-0.150	1.500
2020/01/31 00:47:51.3	90.050	0.030	-0.200	1.450
2020/01/31 00:47:51.4	90.090	0.050	-0.250	1.390
2020/01/31 00:47:51.5	90.130	0.060	-0.310	1.340
2020/01/31 00:47:51.6	90.170	0.080	-0.360	1.280
2020/01/31 00:47:51.7	90.210	0.100	-0.420	1.230
2020/01/31 00:47:51.8	90.250	0.120	-0.470	1.170
2020/01/31 00:47:51.9	90.300	0.140	-0.520	1.110
2020/01/31 00:47:52.0				
2020/01/31 00:47:52.1	90.340	0.160	-0.580	1.060
2020/01/31 00:47:52.2	90.420	0.200	-0.680	0.960
2020/01/31 00:47:52.3	90.470	0.220	-0.720	0.910
2020/01/31 00:47:52.4	90.510	0.250	-0.770	0.870
2020/01/31 00:47:52.5	90.550	0.260	-0.810	0.830
2020/01/31 00:47:52.6	90.590	0.280	-0.840	0.800
2020/01/31 00:47:52.7	90.620	0.300	-0.870	0.760
2020/01/31 00:47:52.8	90.660	0.320	-0.900	0.730
2020/01/31 00:47:52.9	90.690	0.330	-0.920	0.700
2020/01/31 00:47:53.0	90.730	0.340	-0.940	0.680
2020/01/31 00:47:53.1	90.760	0.350	-0.950	0.660
2020/01/31 00:47:53.2	90.790	0.360	-0.950	0.650
2020/01/31 00:47:53.3	90.820	0.370	-0.950	0.640
2020/01/31 00:47:53.4	90.850	0.370	-0.940	0.630
2020/01/31 00:47:53.5	90.870	0.370	-0.920	0.630
2020/01/31 00:47:53.6	90.900	0.360	-0.900	0.630
2020/01/31 00:47:53.7	90.920	0.360	-0.870	0.630
2020/01/31 00:47:53.8	90.940	0.350	-0.830	0.640
2020/01/31 00:47:53.9	90.940	0.340	-0.790	0.650
2020/01/31 00:47:54.0	90.950	0.320	-0.750	0.660
2020/01/31 00:47:54.1				
2020/01/31 00:47:54.2	90.960	0.300	-0.690	0.680
2020/01/31 00:47:54.3	90.980	0.260	-0.570	0.720
2020/01/31 00:47:54.4	90.980	0.230	-0.510	0.740
2020/01/31 00:47:54.5	90.980	0.200	-0.440	0.760
2020/01/31 00:47:54.6	90.980	0.170	-0.360	0.790
2020/01/31 00:47:54.7	90.970	0.130	-0.290	0.820
2020/01/31 00:47:54.8	90.960	0.100	-0.210	0.850
2020/01/31 00:47:54.9	90.960	0.060	-0.120	0.890
2020/01/31 00:47:55.0	90.950	0.020	-0.040	0.920
2020/01/31 00:47:55.1	90.940	-0.030	0.040	0.950
2020/01/31 00:47:55.2	90.920	-0.070	0.120	0.980
2020/01/31 00:47:55.3	90.900	-0.120	0.200	1.010
2020/01/31 00:47:55.4	90.890	-0.160	0.280	1.040
2020/01/31 00:47:55.5	90.870	-0.210	0.360	1.060
2020/01/31 00:47:55.6	90.850	-0.250	0.440	1.090
2020/01/31 00:47:55.7	90.830	-0.300	0.510	1.110
2020/01/31 00:47:55.8	90.810	-0.340	0.570	1.130
2020/01/31 00:47:55.9	90.780	-0.390	0.640	1.140
2020/01/31 00:47:56.0	90.760	-0.430	0.690	1.150
2020/01/31 00:47:56.1	90.740	-0.470	0.750	1.160
2020/01/31 00:47:56.2				
2020/01/31 00:47:56.3	90.720	-0.510	0.790	1.170
2020/01/31 00:47:56.4	90.690	-0.580	0.870	1.160
2020/01/31 00:47:56.5	90.680	-0.610	0.900	1.150
2020/01/31 00:47:56.6	90.660	-0.640	0.920	1.130
2020/01/31 00:47:56.7	90.660	-0.670	0.930	1.120
2020/01/31 00:47:56.8	90.650	-0.690	0.930	1.090
2020/01/31 00:47:56.9	90.650	-0.700	0.930	1.070
2020/01/31 00:47:57.0	90.650	-0.710	0.920	1.030
2020/01/31 00:47:57.1	90.650	-0.720	0.900	1.000
2020/01/31 00:47:57.2	90.650	-0.720	0.880	0.960
2020/01/31 00:47:57.3	90.650	-0.720	0.850	0.910
2020/01/31 00:47:57.4	90.660	-0.710	0.810	0.870
2020/01/31 00:47:57.5	90.670	-0.700	0.760	0.820
2020/01/31 00:47:57.6	90.680	-0.680	0.710	0.770
2020/01/31 00:47:57.7	90.690	-0.660	0.650	0.720
2020/01/31 00:47:57.8	90.710	-0.630	0.580	0.660
2020/01/31 00:47:57.9	90.720	-0.600	0.510	0.610
2020/01/31 00:47:58.0	90.740	-0.570	0.440	0.550
2020/01/31 00:47:58.1	90.760	-0.530	0.360	0.500
2020/01/31 00:47:58.2	90.780	-0.490	0.280	0.440
2020/01/31 00:47:58.3				
2020/01/31 00:47:58.4	90.800	-0.440	0.190	0.380
2020/01/31 00:47:58.5	90.840	-0.340	0.020	0.270
2020/01/31 00:47:58.6	90.860	-0.290	-0.070	0.220
2020/01/31 00:47:58.7	90.890	-0.230	-0.170	0.170
2020/01/31 00:47:58.8	90.910	-0.180	-0.260	0.110
2020/01/31 00:47:58.9	90.920	-0.120	-0.350	0.060
2020/01/31 00:47:59.0	90.940	-0.060	-0.430	0.010
2020/01/31 00:47:59.1	90.960	-0.000	-0.520	-0.040
2020/01/31 00:47:59.2	90.990	0.050	-0.600	-0.090
2020/01/31 00:47:59.3	91.010	0.110	-0.680	-0.130
2020/01/31 00:47:59.4	91.030	0.170	-0.750	-0.180
2020/01/31 00:47:59.5	91.060	0.220	-0.820	-0.220
2020/01/31 00:47:59.6	91.080	0.270	-0.880	-0.260
2020/01/31 00:47:59.7	91.110	0.320	-0.940	-0.300
2020/01/31 00:47:59.8	91.130	0.370	-0.990	-0.340
2020/01/31 00:47:59.9	91.170	0.420	-1.040	-0.380
2020/01/31 00:48:00.0	91.190	0.460	-1.080	-0.420
2020/01/31 00:48:00.1	91.220	0.500	-1.110	-0.450
2020/01/31 00:48:00.2	91.250	0.530	-1.140	-0.480
2020/01/31 00:48:00.3	91.280	0.560	-1.160	-0.510
2020/01/31 00:48:00.4				
2020/01/31 00:48:00.5	91.310	0.590	-1.170	-0.530
2020/01/31 00:48:00.6	91.370	0.620	-1.170	-0.570
2020/01/31 00:48:00.7	91.400	0.640	-1.170	-0.590
2020/01/31 00:48:00.8	91.430	0.650	-1.150	-0.600
2020/01/31 00:48:00.9	91.460	0.650	-1.130	-0.600
2020/01/31 00:48:01.0	91.490	0.650	-1.100	-0.600
2020/01/31 00:48:01.1	91.520	0.650	-1.070	-0.600
2020/01/31 00:48:01.2	91.550	0.640	-1.040	-0.590
2020/01/31 00:48:01.3	91.580	0.630	-0.990	-0.570
2020/01/31 00:48:01.4	91.600	0.620	-0.950	-0.550
2020/01/31 00:48:01.5	91.630	0.600	-0.900	-0.530
2020/01/31 00:48:01.6	91.650	0.580	-0.850	-0.500
2020/01/31 00:48:01.7	91.670	0.550	-0.790	-0.460
2020/01/31 00:48:01.8	91.690	0.520	-0.730	-0.410
2020/01/31 00:48:01.9	91.730	0.490	-0.670	-0.360
2020/01/31 00:48:02.0	91.740	0.460	-0.610	-0.310
2020/01/31 00:48:02.1	91.760	0.420	-0.550	-0.250
2020/01/31 00:48:02.2	91.770	0.380	-0.480	-0.180
2020/01/31 00:48:02.3	91.780	0.350	-0.410	-0.110
2020/01/31 00:48:02.4	91.790	0.300	-0.340	-0.040
2020/01/31 00:48:02.5				
2020/01/31 00:48:02.6	91.790	0.260	-0.270	0.040
2020/01/31 00:48:02.7	91.800	0.180	-0.120	0.200
2020/01/31 00:48:02.8	91.800	0.130	-0.050	0.280
2020/01/31 00:48:02.9	91.790	0.090	0.020	0.370
2020/01/31 00:48:03.0	91.790	0.050	0.100	0.450
2020/01/31 00:48:03.1	91.790	0.000	0.170	0.540
2020/01/31 00:48:03.2	91.790	-0.040	0.230	0.620
2020/01/31 00:48:03.3	91.780	-0.080	0.300	0.710
2020/01/31 00:48:03.4	91.780	-0.120	0.370	0.790
2020/01/31 00:48:03.5	91.770	-0.160	0.430	0.880
2020/01/31 00:48:03.6	91.760	-0.190	0.480	0.960
2020/01/31 00:48:03.7	91.760	-0.230	0.540	1.030
2020/01/31 00:48:03.8	91.750	-0.260	0.580	1.110
2020/01/31 00:48:03.9	91.730	-0.290	0.630	1.180
2020/01/31 00:48:04.0	91.730	-0.320	0.670	1.250
2020/01/31 00:48:04.1	91.720	-0.340	0.700	1.320
2020/01/31 00:48:04.2	91.710	-0.360	0.730	1.380
2020/01/31 00:48:04.3	91.710	-0.380	0.750	1.440
2020/01/31 00:48:04.4	91.700	-0.400	0.770	1.490
2020/01/31 00:48:04.5	91.700	-0.410	0.780	1.540
2020/01/31 00:48:04.6				
2020/01/31 00:48:04.7	91.700	-0.420	0.790	1.590
2020/01/31 00:48:04.8	91.690	-0.430	0.790	1.670
2020/01/31 00:48:04.9	91.690	-0.430	0.770	1.700
2020/01/31 00:48:05.0	91.690	-0.430	0.760	1.730
2020/01/31 00:48:05.1	91.690	-0.430	0.740	1.760
2020/01/31 00:48:05.2				
2020/01/31 00:48:05.3	91.700	-0.420	0.710	1.780
2020/01/31 00:48:05.4	91.710	-0.400	0.640	1.810
2020/01/31 00:48:05.5	91.720	-0.390	0.600	1.830
2020/01/31 00:48:05.6	91.740	-0.380	0.550	1.830
2020/01/31 00:48:05.7	91.750	-0.360	0.500	1.840
2020/01/31 00:48:05.8	91.760	-0.340	0.450	1.840
2020/01/31 00:48:05.9	91.790	-0.330	0.390	1.840
2020/01/31 00:48:06.0	91.800	-0.310	0.330	1.840
2020/01/31 00:48:06.1	91.820	-0.290	0.270	1.830
2020/01/31 00:48:06.2				
2020/01/31 00:48:06.3	91.840	-0.260	0.200	1.820
2020/01/31 00:48:06.4	91.890	-0.220	0.060	1.800
2020/01/31 00:48:06.5	91.910	-0.200	-0.010	1.790
2020/01/31 00:48:06.6				
2020/01/31 00:48:06.7	91.930	-0.180	-0.080	1.780
2020/01/31 00:48:06.8	91.960	-0.150	-0.150	1.760
2020/01/31 00:48:06.9				
2020/01/31 00:48:07.0	92.000	-0.110	-0.300	1.740
2020/01/31 00:48:07.1	92.050	-0.060	-0.440	1.710
2020/01/31 00:48:07.2	92.070	-0.040	-0.510	1.690
2020/01/31 00:48:07.3	92.090	-0.020	-0.580	1.680
2020/01/31 00:48:07.4	92.110	0.010	-0.640	1.670
2020/01/31 00:48:07.5	92.130	0.030	-0.700	1.650
2020/01/31 00:48:07.6				
2020/01/31 00:48:07.7	92.140	0.050	-0.760	1.640
2020/01/31 00:48:07.8				
2020/01/31 00:48:07.9	92.180	0.100	-0.870	1.610
2020/01/31 00:48:08.0	92.210	0.140	-0.960	1.580
2020/01/31 00:48:08.1	92.230	0.160	-0.990	1.550
2020/01/31 00:48:08.2	92.250	0.190	-1.030	1.530
2020/01/31 00:48:08.3	92.270	0.210	-1.050	1.510
2020/01/31 00:48:08.4	92.290	0.230	-1.070	1.490
2020/01/31 00:48:08.5	92.310	0.250	-1.090	1.460
2020/01/31 00:48:08.6	92.330	0.270	-1.090	1.430
2020/01/31 00:48:08.7	92.350	0.280	-1.090	1.400
2020/01/31 00:48:08.8				
2020/01/31 00:48:08.9	92.370	0.300	-1.090	1.370
2020/01/31 00:48:09.0	92.410	0.330	-1.050	1.300
2020/01/31 00:48:09.1	92.430	0.350	-1.020	1.270
2020/01/31 00:48:09.2	92.450	0.360	-0.990	1.240
2020/01/31 00:48:09.3				
2020/01/31 00:48:09.4	92.470	0.370	-0.950	1.200
2020/01/31 00:48:09.5	92.480	0.380	-0.900	1.170
2020/01/31 00:48:09.6	92.500	0.390	-0.850	1.130
2020/01/31 00:48:09.7	92.530	0.400	-0.730	1.060
2020/01/31 00:48:09.8	92.540	0.400	-0.660	1.020
2020/01/31 00:48:09.9	92.570	0.400	-0.590	0.990
2020/01/31 00:48:10.0				
2020/01/31 00:48:10.1	92.580	0.400	-0.520	0.950
2020/01/31 00:48:10.2	92.590	0.390	-0.360	0.880
2020/01/31 00:48:10.3	92.600	0.380	-0.280	0.850
2020/01/31 00:48:10.4	92.600	0.370	-0.190	0.820
2020/01/31 00:48:10.5	92.600	0.360	-0.110	0.780
2020/01/31 00:48:10.6	92.610	0.350	-0.030	0.750
2020/01/31 00:48:10.7	92.600	0.340	0.060	0.720
2020/01/31 00:48:10.8	92.600	0.320	0.140	0.690
2020/01/31 00:48:10.9				
2020/01/31 00:48:11.0	92.590	0.300	0.220	0.660
2020/01/31 00:48:11.1	92.570	0.270	0.360	0.600
2020/01/31 00:48:11.2	92.570	0.250	0.420	0.580
2020/01/31 00:48:11.3	92.560	0.220	0.480	0.550
2020/01/31 00:48:11.4	92.550	0.200	0.540	0.530
2020/01/31 00:48:11.5	92.540	0.180	0.590	0.500
2020/01/31 00:48:11.6				
2020/01/31 00:48:11.7	92.530	0.160	0.630	0.480
2020/01/31 00:48:11.8				
2020/01/31 00:48:11.9	92.520	0.110	0.690	0.430
2020/01/31 00:48:12.0	92.500	0.070	0.720	0.380
2020/01/31 00:48:12.1	92.490	0.050	0.720	0.360
2020/01/31 00:48:12.2	92.490	0.030	0.720	0.330
2020/01/31 00:48:12.3				
2020/01/31 00:48:12.4	92.490	0.010	0.710	0.310
2020/01/31 00:48:12.5	92.490	-0.010	0.690	0.280
2020/01/31 00:48:12.6	92.490	-0.020	0.660	0.260
2020/01/31 00:48:12.7	92.500	-0.040	0.630	0.230
2020/01/31 00:48:12.8	92.510	-0.070	0.560	0.180
2020/01/31 00:48:12.9	92.520	-0.090	0.510	0.160
2020/01/31 00:48:13.0				
2020/01/31 00:48:13.1	92.540	-0.100	0.460	0.140
2020/01/31 00:48:13.2	92.550	-0.110	0.410	0.110
2020/01/31 00:48:13.3	92.570	-0.120	0.350	0.090
2020/01/31 00:48:13.4	92.580	-0.130	0.290	0.070
2020/01/31 00:48:13.5	92.600	-0.140	0.230	0.050
2020/01/31 00:48:13.6	92.630	-0.150	0.170	0.030
2020/01/31 00:48:13.7	92.670	-0.160	0.050	-0.010
2020/01/31 00:48:13.8	92.700	-0.170	-0.010	-0.030
2020/01/31 00:48:13.9				
2020/01/31 00:48:14.0	92.730	-0.170	-0.070	-0.050
2020/01/31 00:48:14.1	92.790	-0.180	-0.180	-0.080
2020/01/31 00:48:14.2	92.830	-0.190	-0.230	-0.090
2020/01/31 00:48:14.3				
2020/01/31 00:48:14.4	92.860	-0.190	-0.280	-0.110
2020/01/31 00:48:14.5	92.900	-0.190	-0.320	-0.120
2020/01/31 00:48:14.6	92.930	-0.200	-0.360	-0.130
2020/01/31 00:48:14.7	93.010	-0.200	-0.440	-0.150
2020/01/31 00:48:14.8	93.050	-0.200	-0.470	-0.150
2020/01/31 00:48:14.9	93.080	-0.210	-0.500	-0.160
2020/01/31 00:48:15.0	93.120	-0.210	-0.520	-0.160
2020/01/31 00:48:15.1				
2020/01/31 00:48:15.2	93.160	-0.210	-0.540	-0.160
2020/01/31 00:48:15.3	93.200	-0.210	-0.550	-0.150
2020/01/31 00:48:15.4	93.240	-0.220	-0.560	-0.150
2020/01/31 00:48:15.5	93.270	-0.220	-0.570	-0.140
2020/01/31 00:48:15.6	93.310	-0.220	-0.580	-0.120
2020/01/31 00:48:15.7	93.380	-0.220	-0.580	-0.090
2020/01/31 00:48:15.8	93.410	-0.230	-0.580	-0.070
2020/01/31 00:48:15.9	93.430	-0.230	-0.570	-0.050
2020/01/31 00:48:16.0				
2020/01/31 00:48:16.1	93.460	-0.230	-0.560	-0.020
2020/01/31 00:48:16.2	93.490	-0.230	-0.550	0.010
2020/01/31 00:48:16.3	93.510	-0.230	-0.540	0.040
2020/01/31 00:48:16.4	93.540	-0.230	-0.530	0.080
2020/01/31 00:48:16.5	93.560	-0.230	-0.520	0.120
2020/01/31 00:48:16.6				
2020/01/31 00:48:16.7	93.600	-0.220	-0.490	0.200
2020/01/31 00:48:16.8	93.630	-0.220	-0.460	0.300
2020/01/31 00:48:16.9	93.650	-0.220	-0.440	0.350
2020/01/31 00:48:17.0	93.660	-0.210	-0.420	0.400
2020/01/31 00:48:17.1	93.670	-0.210	-0.410	0.460
2020/01/31 00:48:17.2				
2020/01/31 00:48:17.3	93.680	-0.200	-0.390	0.520
2020/01/31 00:48:17.4				
2020/01/31 00:48:17.5	93.700	-0.190	-0.360	0.640
2020/01/31 00:48:17.6	93.710	-0.180	-0.350	0.700
2020/01/31 00:48:17.7	93.710	-0.170	-0.330	0.760
2020/01/31 00:48:17.8	93.720	-0.160	-0.320	0.830
2020/01/31 00:48:17.9				
2020/01/31 00:48:18.0	93.730	-0.140	-0.290	0.970
2020/01/31 00:48:18.1	93.730	-0.130	-0.280	1.040
2020/01/31 00:48:18.2	93.730	-0.120	-0.260	1.100
2020/01/31 00:48:18.3	93.740	-0.110	-0.250	1.170
2020/01/31 00:48:18.4	93.740	-0.100	-0.230	1.240
2020/01/31 00:48:18.5				
2020/01/31 00:48:18.6	93.740	-0.080	-0.200	1.380
2020/01/31 00:48:18.7	93.740	-0.070	-0.190	1.450
2020/01/31 00:48:18.8				
2020/01/31 00:48:18.9	93.740	-0.050	-0.160	1.580
2020/01/31 00:48:19.0	93.770	-0.040	-0.120	1.710
2020/01/31 00:48:19.1	93.760	-0.030	-0.100	1.780
2020/01/31 00:48:19.2	93.760	-0.020	-0.080	1.830
2020/01/31 00:48:19.3				
2020/01/31 00:48:19.4	93.750	-0.020	-0.060	1.890
2020/01/31 00:48:19.5	93.750	-0.010	-0.020	1.990
2020/01/31 00:48:19.6	93.740	-0.000	-0.000	2.040
2020/01/31 00:48:19.7	93.740	-0.000	0.020	2.080
2020/01/31 00:48:19.8	93.740	0.000	0.040	2.120
2020/01/31 00:48:19.9	93.760	0.000	0.060	2.150
2020/01/31 00:48:20.0	93.760	0.010	0.080	2.180
2020/01/31 00:48:20.1	93.770	0.010	0.100	2.200
2020/01/31 00:48:20.2				
2020/01/31 00:48:20.3	93.770	0.010	0.120	2.220
2020/01/31 00:48:20.4	93.780	0.010	0.130	2.240
2020/01/31 00:48:20.5	93.790	0.010	0.150	2.250
2020/01/31 00:48:20.6	93.800	0.020	0.160	2.250
2020/01/31 00:48:20.7	93.810	0.020	0.170	2.250
2020/01/31 00:48:20.8	93.830	0.020	0.180	2.240
2020/01/31 00:48:20.9				
2020/01/31 00:48:21.0	93.880	0.030	0.190	2.210
2020/01/31 00:48:21.1	93.900	0.040	0.190	2.190
2020/01/31 00:48:21.2				
2020/01/31 00:48:21.3	93.950	0.050	0.180	2.130
2020/01/31 00:48:21.4				
2020/01/31 00:48:21.5	94.000	0.070	0.150	2.050
2020/01/31 00:48:21.6	94.030	0.080	0.140	2.000
2020/01/31 00:48:21.7	94.060	0.090	0.110	1.950
2020/01/31 00:48:21.8	94.090	0.100	0.090	1.890
2020/01/31 00:48:21.9	94.120	0.120	0.060	1.830
2020/01/31 00:48:22.0	94.150	0.150	-0.010	1.700
2020/01/31 00:48:22.1	94.180	0.170	-0.040	1.630
2020/01/31 00:48:22.2				
2020/01/31 00:48:22.3	94.210	0.190	-0.080	1.560
2020/01/31 00:48:22.4	94.240	0.210	-0.110	1.490
2020/01/31 00:48:22.5	94.260	0.230	-0.150	1.410
2020/01/31 00:48:22.6	94.290	0.250	-0.190	1.340
2020/01/31 00:48:22.7	94.330	0.290	-0.260	1.190
2020/01/31 00:48:22.8	94.350	0.310	-0.300	1.110
2020/01/31 00:48:22.9	94.380	0.330	-0.330	1.030
2020/01/31 00:48:23.0				
2020/01/31 00:48:23.1	94.400	0.350	-0.360	0.950
2020/01/31 00:48:23.2	94.410	0.370	-0.390	0.880
2020/01/31 00:48:23.3	94.430	0.390	-0.410	0.800
2020/01/31 00:48:23.4	94.440	0.400	-0.430	0.730
2020/01/31 00:48:23.5	94.450	0.420	-0.450	0.650
2020/01/31 00:48:23.6	94.460	0.430	-0.460	0.580
2020/01/31 00:48:23.7	94.470	0.450	-0.470	0.510
2020/01/31 00:48:23.8	94.480	0.460	-0.480	0.440
2020/01/31 00:48:23.9	94.490	0.470	-0.480	0.370
2020/01/31 00:48:24.0	94.490	0.470	-0.480	0.310
2020/01/31 00:48:24.1	94.500	0.480	-0.470	0.250
2020/01/31 00:48:24.2	94.510	0.480	-0.460	0.190
2020/01/31 00:48:24.3	94.520	0.480	-0.450	0.130
2020/01/31 00:48:24.4	94.540	0.470	-0.420	0.020
2020/01/31 00:48:24.5	94.560	0.470	-0.400	-0.030
2020/01/31 00:48:24.6				
2020/01/31 00:48:24.7	94.570	0.460	-0.370	-0.080
2020/01/31 00:48:24.8	94.590	0.440	-0.350	-0.130
2020/01/31 00:48:24.9	94.600	0.430	-0.320	-0.170
2020/01/31 00:48:25.0	94.630	0.390	-0.260	-0.250
2020/01/31 00:48:25.1	94.650	0.370	-0.230	-0.280
2020/01/31 00:48:25.2	94.670	0.350	-0.190	-0.310
2020/01/31 00:48:25.3	94.690	0.320	-0.160	-0.330
2020/01/31 00:48:25.4	94.700	0.290	-0.120	-0.350
2020/01/31 00:48:25.5				
2020/01/31 00:48:25.6	94.720	0.260	-0.090	-0.370
2020/01/31 00:48:25.7	94.740	0.230	-0.060	-0.380
2020/01/31 00:48:25.8	94.760	0.200	-0.030	-0.380
2020/01/31 00:48:25.9				
2020/01/31 00:48:26.0	94.780	0.120	0.030	-0.380
2020/01/31 00:48:26.1	94.790	0.090	0.060	-0.380
2020/01/31 00:48:26.2	94.810	0.050	0.090	-0.370
2020/01/31 00:48:26.3	94.820	0.010	0.110	-0.360
2020/01/31 00:48:26.4	94.840	-0.030	0.140	-0.350
2020/01/31 00:48:26.5	94.860	-0.060	0.160	-0.330
2020/01/31 00:48:26.6	94.870	-0.100	0.180	-0.310
2020/01/31 00:48:26.7	94.890	-0.140	0.200	-0.290
2020/01/31 00:48:26.8	94.900	-0.180	0.210	-0.270
2020/01/31 00:48:26.9	94.920	-0.210	0.220	-0.250
2020/01/31 00:48:27.0	94.910	-0.250	0.240	-0.230
2020/01/31 00:48:27.1	94.950	-0.310	0.250	-0.180
2020/01/31 00:48:27.2	94.960	-0.340	0.260	-0.150
2020/01/31 00:48:27.3				
2020/01/31 00:48:27.4	94.980	-0.370	0.260	-0.120
2020/01/31 00:48:27.5	95.000	-0.400	0.260	-0.100
2020/01/31 00:48:27.6	95.020	-0.420	0.250	-0.070
2020/01/31 00:48:27.7	95.030	-0.440	0.240	-0.040
2020/01/31 00:48:27.8	95.050	-0.460	0.230	-0.010
2020/01/31 00:48:27.9	95.070	-0.470	0.220	0.010
2020/01/31 00:48:28.0	95.130	-0.490	0.180	0.070
2020/01/31 00:48:28.1	95.150	-0.490	0.160	0.100
2020/01/31 00:48:28.2	95.180	-0.500	0.130	0.120
2020/01/31 00:48:28.3				
2020/01/31 00:48:28.4	95.200	-0.490	0.100	0.150
2020/01/31 00:48:28.5	95.220	-0.490	0.060	0.180
2020/01/31 00:48:28.6	95.240	-0.480	0.030	0.210
2020/01/31 00:48:28.7	95.290	-0.450	-0.050	0.280
2020/01/31 00:48:28.8	95.310	-0.430	-0.100	0.310
2020/01/31 00:48:28.9	95.330	-0.410	-0.140	0.350
2020/01/31 00:48:29.0	95.350	-0.390	-0.190	0.390
2020/01/31 00:48:29.1	95.370	-0.360	-0.240	0.430
2020/01/31 00:48:29.2	95.390	-0.340	-0.290	0.470
2020/01/31 00:48:29.3				
2020/01/31 00:48:29.4	95.410	-0.310	-0.330	0.520
2020/01/31 00:48:29.5	95.430	-0.280	-0.380	0.570
2020/01/31 00:48:29.6	95.450	-0.250	-0.430	0.610
2020/01/31 00:48:29.7	95.460	-0.220	-0.470	0.670
2020/01/31 00:48:29.8	95.480	-0.190	-0.520	0.720
2020/01/31 00:48:29.9	95.490	-0.150	-0.560	0.770
2020/01/31 00:48:30.0				
2020/01/31 00:48:30.1	95.520	-0.090	-0.630	0.880
2020/01/31 00:48:30.2	95.540	-0.060	-0.660	0.940
2020/01/31 00:48:30.3	95.550	-0.030	-0.690	1.000
2020/01/31 00:48:30.4	95.570	-0.000	-0.710	1.050
2020/01/31 00:48:30.5				
2020/01/31 00:48:30.6	95.590	0.050	-0.750	1.170
2020/01/31 00:48:30.7	95.600	0.070	-0.760	1.230
2020/01/31 00:48:30.8	95.620	0.090	-0.770	1.280
2020/01/31 00:48:30.9	95.630	0.110	-0.770	1.340
2020/01/31 00:48:31.0				
2020/01/31 00:48:31.1	95.670	0.140	-0.760	1.450
2020/01/31 00:48:31.2	95.680	0.160	-0.750	1.500
2020/01/31 00:48:31.3	95.710	0.170	-0.710	1.600
2020/01/31 00:48:31.4				
2020/01/31 00:48:31.5	95.730	0.180	-0.690	1.640
2020/01/31 00:48:31.6	95.740	0.180	-0.660	1.690
2020/01/31 00:48:31.7	95.760	0.180	-0.630	1.730
2020/01/31 00:48:31.8	95.780	0.180	-0.590	1.770
2020/01/31 00:48:31.9	95.790	0.170	-0.550	1.800
2020/01/31 00:48:32.0	95.820	0.160	-0.510	1.840
2020/01/31 00:48:32.1				
2020/01/31 00:48:32.2	95.850	0.140	-0.410	1.900
2020/01/31 00:48:32.3	95.860	0.130	-0.360	1.930
2020/01/31 00:48:32.4	95.880	0.110	-0.310	1.950
2020/01/31 00:48:32.5	95.890	0.100	-0.250	1.970
2020/01/31 00:48:32.6	95.920	0.060	-0.140	2.010
2020/01/31 00:48:32.7	95.940	0.050	-0.090	2.020
2020/01/31 00:48:32.8				
2020/01/31 00:48:32.9	95.950	0.030	-0.030	2.030
2020/01/31 00:48:33.0	95.960	0.010	0.030	2.040
2020/01/31 00:48:33.1	95.980	-0.030	0.140	2.040
2020/01/31 00:48:33.2	96.000	-0.050	0.190	2.030
2020/01/31 00:48:33.3	96.010	-0.070	0.240	2.020
2020/01/31 00:48:33.4				
2020/01/31 00:48:33.5	96.020	-0.090	0.280	2.010
2020/01/31 00:48:33.6	96.030	-0.110	0.330	1.990
2020/01/31 00:48:33.7	96.040	-0.130	0.370	1.960
2020/01/31 00:48:33.8	96.050	-0.140	0.400	1.940
2020/01/31 00:48:33.9	96.060	-0.160	0.440	1.910
2020/01/31 00:48:34.0				
2020/01/31 00:48:34.1	96.080	-0.190	0.490	1.830
2020/01/31 00:48:34.2	96.090	-0.200	0.510	1.780
2020/01/31 00:48:34.3	96.100	-0.210	0.530	1.740
2020/01/31 00:48:34.4	96.110	-0.220	0.550	1.680
2020/01/31 00:48:34.5	96.120	-0.230	0.560	1.630
2020/01/31 00:48:34.6	96.130	-0.240	0.560	1.570
2020/01/31 00:48:34.7	96.150	-0.240	0.560	1.500
2020/01/31 00:48:34.8	96.160	-0.250	0.560	1.430
2020/01/31 00:48:34.9	96.180	-0.250	0.560	1.360
2020/01/31 00:48:35.0	96.210	-0.250	0.540	1.210
2020/01/31 00:48:35.1				
2020/01/31 00:48:35.2	96.220	-0.250	0.520	1.140
2020/01/31 00:48:35.3	96.240	-0.250	0.510	1.060
2020/01/31 00:48:35.4	96.260	-0.240	0.490	0.980
2020/01/31 00:48:35.5	96.280	-0.240	0.460	0.900
2020/01/31 00:48:35.6	96.300	-0.230	0.440	0.820
2020/01/31 00:48:35.7	96.320	-0.220	0.410	0.740
2020/01/31 00:48:35.8	96.340	-0.210	0.380	0.660
2020/01/31 00:48:35.9	96.360	-0.200	0.340	0.580
2020/01/31 00:48:36.0	96.380	-0.190	0.310	0.500
2020/01/31 00:48:36.1	96.410	-0.180	0.270	0.420
2020/01/31 00:48:36.2	96.430	-0.160	0.230	0.350
2020/01/31 00:48:36.3	96.480	-0.130	0.140	0.210
2020/01/31 00:48:36.4				
2020/01/31 00:48:36.5	96.500	-0.120	0.090	0.140
2020/01/31 00:48:36.6	96.520	-0.100	0.050	0.070
2020/01/31 00:48:36.7	96.550	-0.080	-0.000	0.010
2020/01/31 00:48:36.8	96.570	-0.060	-0.060	-0.050
2020/01/31 00:48:36.9	96.600	-0.040	-0.110	-0.100
2020/01/31 00:48:37.0	96.650	0.000	-0.220	-0.200
2020/01/31 00:48:37.1	96.680	0.020	-0.280	-0.250
2020/01/31 00:48:37.2	96.710	0.050	-0.340	-0.290
2020/01/31 00:48:37.3	96.730	0.070	-0.390	-0.320
2020/01/31 00:48:37.4	96.760	0.090	-0.450	-0.360
2020/01/31 00:48:37.5	96.780	0.120	-0.510	-0.390
2020/01/31 00:48:37.6				
2020/01/31 00:48:37.7	96.810	0.140	-0.580	-0.410
2020/01/31 00:48:37.8	96.830	0.160	-0.640	-0.440
2020/01/31 00:48:37.9	96.860	0.190	-0.690	-0.450
2020/01/31 00:48:38.0	96.880	0.210	-0.750	-0.470
2020/01/31 00:48:38.1	96.910	0.230	-0.810	-0.490
2020/01/31 00:48:38.2	96.940	0.250	-0.860	-0.500
2020/01/31 00:48:38.3	96.960	0.280	-0.910	-0.500
2020/01/31 00:48:38.4	96.990	0.300	-0.960	-0.510
2020/01/31 00:48:38.5	97.020	0.320	-1.000	-0.510
2020/01/31 00:48:38.6				
2020/01/31 00:48:38.7	97.070	0.360	-1.080	-0.510
2020/01/31 00:48:38.8	97.100	0.380	-1.110	-0.510
2020/01/31 00:48:38.9	97.130	0.390	-1.130	-0.500
2020/01/31 00:48:39.0	97.170	0.410	-1.150	-0.490
2020/01/31 00:48:39.1	97.230	0.440	-1.170	-0.460
2020/01/31 00:48:39.2	97.260	0.450	-1.160	-0.450
2020/01/31 00:48:39.3				
2020/01/31 00:48:39.4	97.280	0.460	-1.150	-0.430
2020/01/31 00:48:39.5	97.310	0.470	-1.140	-0.420
2020/01/31 00:48:39.6	97.340	0.470	-1.110	-0.390
2020/01/31 00:48:39.7	97.360	0.470	-1.080	-0.370
2020/01/31 00:48:39.8	97.380	0.470	-1.040	-0.350
2020/01/31 00:48:39.9	97.410	0.470	-0.990	-0.320
2020/01/31 00:48:40.0	97.430	0.460	-0.940	-0.290
2020/01/31 00:48:40.1	97.450	0.460	-0.880	-0.260
2020/01/31 00:48:40.2	97.470	0.440	-0.810	-0.220
2020/01/31 00:48:40.3	97.480	0.430	-0.740	-0.190
2020/01/31 00:48:40.4	97.490	0.410	-0.660	-0.150
2020/01/31 00:48:40.5	97.500	0.390	-0.580	-0.110
2020/01/31 00:48:40.6	97.510	0.370	-0.490	-0.060
2020/01/31 00:48:40.7	97.520	0.350	-0.400	-0.020
2020/01/31 00:48:40.8	97.530	0.320	-0.310	0.030
2020/01/31 00:48:40.9	97.530	0.290	-0.210	0.080
2020/01/31 00:48:41.0	97.530	0.260	-0.110	0.130
2020/01/31 00:48:41.1				
2020/01/31 00:48:41.2	97.530	0.180	0.090	0.230
2020/01/31 00:48:41.3	97.540	0.150	0.190	0.290
2020/01/31 00:48:41.4	97.530	0.110	0.280	0.340
2020/01/31 00:48:41.5	97.530	0.070	0.380	0.400
2020/01/31 00:48:41.6	97.530	0.020	0.470	0.460
2020/01/31 00:48:41.7	97.530	-0.020	0.560	0.520
2020/01/31 00:48:41.8	97.530	-0.060	0.640	0.580
2020/01/31 00:48:41.9	97.540	-0.100	0.720	0.640
2020/01/31 00:48:42.0	97.550	-0.140	0.800	0.710
2020/01/31 00:48:42.1	97.560	-0.180	0.870	0.770
2020/01/31 00:48:42.2	97.560	-0.220	0.930	0.830
2020/01/31 00:48:42.3	97.560	-0.260	0.990	0.900
2020/01/31 00:48:42.4	97.570	-0.290	1.030	0.960
2020/01/31 00:48:42.5	97.580	-0.330	1.070	1.020
2020/01/31 00:48:42.6				
2020/01/31 00:48:42.7	97.590	-0.380	1.120	1.140
2020/01/31 00:48:42.8	97.600	-0.410	1.130	1.200
2020/01/31 00:48:42.9	97.610	-0.430	1.130	1.250
2020/01/31 00:48:43.0	97.620	-0.440	1.120	1.310
2020/01/31 00:48:43.1	97.630	-0.460	1.100	1.360
2020/01/31 00:48:43.2	97.650	-0.470	1.070	1.410
2020/01/31 00:48:43.3	97.660	-0.470	1.030	1.460
2020/01/31 00:48:43.4	97.680	-0.470	0.980	1.510
2020/01/31 00:48:43.5	97.690	-0.470	0.930	1.560
2020/01/31 00:48:43.6	97.710	-0.460	0.860	1.600
2020/01/31 00:48:43.7	97.730	-0.450	0.780	1.640
2020/01/31 00:48:43.8	97.750	-0.440	0.690	1.680
2020/01/31 00:48:43.9	97.770	-0.420	0.600	1.720
2020/01/31 00:48:44.0	97.800	-0.400	0.500	1.750
2020/01/31 00:48:44.1	97.820	-0.370	0.400	1.780
2020/01/31 00:48:44.2	97.840	-0.350	0.290	1.810
2020/01/31 00:48:44.3	97.860	-0.320	0.170	1.840
2020/01/31 00:48:44.4	97.880	-0.280	0.060	1.870
2020/01/31 00:48:44.5	97.900	-0.250	-0.060	1.890
2020/01/31 00:48:44.6	97.920	-0.210	-0.180	1.910
2020/01/31 00:48:44.7	97.950	-0.180	-0.300	1.930
2020/01/31 00:48:44.8	97.970	-0.140	-0.410	1.950
2020/01/31 00:48:44.9	97.990	-0.100	-0.530	1.960
2020/01/31 00:48:45.0	98.010	-0.060	-0.640	1.970
2020/01/31 00:48:45.1	98.030	-0.030	-0.750	1.990
2020/01/31 00:48:45.2	98.050	0.010	-0.850	1.990
2020/01/31 00:48:45.3	98.080	0.050	-0.940	2.000
2020/01/31 00:48:45.4	98.100	0.080	-1.030	2.010
2020/01/31 00:48:45.5	98.130	0.110	-1.110	2.010
2020/01/31 00:48:45.6	98.160	0.140	-1.180	2.010
2020/01/31 00:48:45.7	98.180	0.170	-1.240	2.010
2020/01/31 00:48:45.8	98.210	0.200	-1.290	2.010
2020/01/31 00:48:45.9	98.240	0.220	-1.330	2.010
2020/01/31 00:48:46.0	98.260	0.240	-1.360	2.000
2020/01/31 00:48:46.1	98.280	0.260	-1.380	2.000
2020/01/31 00:48:46.2	98.310	0.270	-1.390	1.990
2020/01/31 00:48:46.3	98.340	0.280	-1.390	1.970
2020/01/31 00:48:46.4	98.370	0.290	-1.380	1.960
2020/01/31 00:48:46.5	98.400	0.300	-1.360	1.940
2020/01/31 00:48:46.6	98.430	0.300	-1.330	1.930
2020/01/31 00:48:46.7	98.460	0.300	-1.290	1.910
2020/01/31 00:48:46.8	98.490	0.290	-1.240	1.880
2020/01/31 00:48:46.9	98.520	0.280	-1.180	1.860
2020/01/31 00:48:47.0	98.530	0.270	-1.120	1.820
2020/01/31 00:48:47.1	98.560	0.260	-1.050	1.790
2020/01/31 00:48:47.2	98.590	0.250	-0.970	1.760
2020/01/31 00:48:47.3	98.620	0.230	-0.890	1.730
2020/01/31 00:48:47.4	98.640	0.210	-0.800	1.700
2020/01/31 00:48:47.5	98.670	0.190	-0.720	1.660
2020/01/31 00:48:47.6				
2020/01/31 00:48:47.7	98.720	0.150	-0.530	1.590
2020/01/31 00:48:47.8	98.740	0.120	-0.430	1.550
2020/01/31 00:48:47.9	98.770	0.100	-0.340	1.510
2020/01/31 00:48:48.0	98.780	0.080	-0.240	1.470
2020/01/31 00:48:48.1	98.800	0.050	-0.140	1.440
2020/01/31 00:48:48.2	98.820	0.030	-0.050	1.400
2020/01/31 00:48:48.3	98.840	0.010	0.040	1.360
2020/01/31 00:48:48.4	98.860	-0.010	0.130	1.320
2020/01/31 00:48:48.5	98.870	-0.030	0.220	1.280
2020/01/31 00:48:48.6	98.890	-0.050	0.300	1.240
2020/01/31 00:48:48.7	98.900	-0.070	0.370	1.210
2020/01/31 00:48:48.8	98.920	-0.080	0.440	1.170
2020/01/31 00:48:48.9	98.930	-0.090	0.500	1.140
2020/01/31 00:48:49.0	98.950	-0.110	0.560	1.100
2020/01/31 00:48:49.1	98.960	-0.120	0.610	1.070
2020/01/31 00:48:49.2	98.970	-0.120	0.660	1.040
2020/01/31 00:48:49.3	98.970	-0.130	0.690	1.010
2020/01/31 00:48:49.4	98.980	-0.130	0.720	0.980
2020/01/31 00:48:49.5	98.980	-0.130	0.740	0.950
2020/01/31 00:48:49.6	98.990	-0.140	0.760	0.930
2020/01/31 00:48:49.7	98.990	-0.130	0.770	0.900
2020/01/31 00:48:49.8	98.990	-0.130	0.760	0.870
2020/01/31 00:48:49.9	98.990	-0.130	0.760	0.850
2020/01/31 00:48:50.0	98.980	-0.120	0.740	0.820
2020/01/31 00:48:50.1	98.980	-0.110	0.720	0.790
2020/01/31 00:48:50.2	98.980	-0.110	0.700	0.770
2020/01/31 00:48:50.3	98.980	-0.100	0.670	0.740
2020/01/31 00:48:50.4	98.980	-0.090	0.630	0.710
2020/01/31 00:48:50.5	98.970	-0.080	0.590	0.680
2020/01/31 00:48:50.6	98.970	-0.070	0.550	0.650
2020/01/31 00:48:50.7	98.970	-0.060	0.500	0.620
2020/01/31 00:48:50.8	98.970	-0.050	0.450	0.590
2020/01/31 00:48:50.9	98.970	-0.040	0.400	0.560
2020/01/31 00:48:51.0	98.970	-0.030	0.340	0.520
2020/01/31 00:48:51.1	98.980	-0.020	0.290	0.490
2020/01/31 00:48:51.2	98.980	-0.010	0.230	0.450
2020/01/31 00:48:51.3	98.990	-0.000	0.170	0.420
2020/01/31 00:48:51.4	98.990	0.000	0.120	0.380
2020/01/31 00:48:51.5	99.000	0.010	0.060	0.340
2020/01/31 00:48:51.6	99.010	0.020	0.010	0.310
2020/01/31 00:48:51.7	99.020	0.020	-0.050	0.270
2020/01/31 00:48:51.8	99.040	0.020	-0.100	0.230
2020/01/31 00:48:51.9	99.050	0.020	-0.150	0.200
2020/01/31 00:48:52.0	99.070	0.020	-0.200	0.160
2020/01/31 00:48:52.1	99.090	0.020	-0.240	0.120
2020/01/31 00:48:52.2	99.110	0.020	-0.290	0.090
2020/01/31 00:48:52.3	99.130	0.020	-0.330	0.060
2020/01/31 00:48:52.4	99.150	0.020	-0.370	0.020
2020/01/31 00:48:52.5	99.180	0.010	-0.400	-0.010
2020/01/31 00:48:52.6	99.200	0.010	-0.440	-0.040
2020/01/31 00:48:52.7	99.230	0.010	-0.470	-0.070
2020/01/31 00:48:52.8	99.260	-0.000	-0.500	-0.100
2020/01/31 00:48:52.9	99.280	-0.010	-0.520	-0.120
2020/01/31 00:48:53.0	99.310	-0.010	-0.550	-0.140
2020/01/31 00:48:53.1	99.350	-0.020	-0.570	-0.170
2020/01/31 00:48:53.2	99.380	-0.030	-0.590	-0.190
2020/01/31 00:48:53.3	99.410	-0.030	-0.600	-0.210
2020/01/31 00:48:53.4	99.450	-0.040	-0.610	-0.230
2020/01/31 00:48:53.5	99.480	-0.050	-0.620	-0.250
2020/01/31 00:48:53.6	99.520	-0.050	-0.630	-0.260
2020/01/31 00:48:53.7	99.550	-0.060	-0.630	-0.280
2020/01/31 00:48:53.8	99.590	-0.060	-0.630	-0.290
2020/01/31 00:48:53.9	99.620	-0.070	-0.630	-0.290
2020/01/31 00:48:54.0	99.660	-0.070	-0.620	-0.300
2020/01/31 00:48:54.1	99.690	-0.080	-0.620	-0.300
2020/01/31 00:48:54.2	99.730	-0.080	-0.610	-0.300
2020/01/31 00:48:54.3	99.760	-0.080	-0.590	-0.300
2020/01/31 00:48:54.4	99.800	-0.090	-0.580	-0.290
2020/01/31 00:48:54.5	99.830	-0.090	-0.560	-0.280
2020/01/31 00:48:54.6	99.860	-0.090	-0.540	-0.260
2020/01/31 00:48:54.7	99.880	-0.090	-0.520	-0.240
2020/01/31 00:48:54.8	99.910	-0.080	-0.500	-0.210
2020/01/31 00:48:54.9	99.930	-0.080	-0.480	-0.190
2020/01/31 00:48:55.0	99.960	-0.080	-0.460	-0.150
2020/01/31 00:48:55.1	99.980	-0.080	-0.430	-0.110
2020/01/31 00:48:55.2	100.000	-0.070	-0.400	-0.070
2020/01/31 00:48:55.3	100.010	-0.070	-0.370	-0.030
2020/01/31 00:48:55.4	100.020	-0.060	-0.340	0.020
2020/01/31 00:48:55.5	100.030	-0.060	-0.310	0.080
2020/01/31 00:48:55.6	100.040	-0.050	-0.280	0.130
2020/01/31 00:48:55.7	100.040	-0.040	-0.250	0.190
2020/01/31 00:48:55.8	100.050	-0.040	-0.220	0.260
2020/01/31 00:48:55.9	100.050	-0.030	-0.190	0.320
2020/01/31 00:48:56.0	100.040	-0.020	-0.150	0.390
2020/01/31 00:48:56.1	100.040	-0.010	-0.120	0.470
2020/01/31 00:48:56.2	100.040	-0.000	-0.090	0.540
2020/01/31 00:48:56.3	100.030	0.000	-0.070	0.620
2020/01/31 00:48:56.4	100.030	0.010	-0.040	0.690
2020/01/31 00:48:56.5	100.020	0.020	-0.020	0.770
2020/01/31 00:48:56.6	100.020	0.030	0.000	0.850
2020/01/31 00:48:56.7	100.010	0.040	0.020	0.930
2020/01/31 00:48:56.8	100.000	0.050	0.040	1.010
2020/01/31 00:48:56.9	100.000	0.060	0.050	1.090
2020/01/31 00:48:57.0	100.000	0.070	0.050	1.170
2020/01/31 00:48:57.1	100.000	0.080	0.060	1.250
2020/01/31 00:48:57.2	100.000	0.090	0.070	1.320
2020/01/31 00:48:57.3	99.990	0.100	0.070	1.400
2020/01/31 00:48:57.4	99.990	0.110	0.060	1.470
2020/01/31 00:48:57.5	99.990	0.120	0.060	1.540
2020/01/31 00:48:57.6	100.000	0.130	0.050	1.600
2020/01/31 00:48:57.7	100.000	0.140	0.040	1.660
2020/01/31 00:48:57.8	100.010	0.150	0.030	1.720
2020/01/31 00:48:57.9	100.010	0.160	0.010	1.770
2020/01/31 00:48:58.0	100.010	0.170	-0.000	1.820
2020/01/31 00:48:58.1	100.020	0.180	-0.020	1.860
2020/01/31 00:48:58.2	100.040	0.180	-0.040	1.900
2020/01/31 00:48:58.3	100.050	0.190	-0.060	1.930
2020/01/31 00:48:58.4	100.060	0.200	-0.080	1.960
2020/01/31 00:48:58.5	100.080	0.210	-0.100	1.980
2020/01/31 00:48:58.6	100.100	0.210	-0.120	2.000
2020/01/31 00:48:58.7	100.110	0.220	-0.140	2.010
2020/01/31 00:48:58.8	100.130	0.220	-0.150	2.020
2020/01/31 00:48:58.9	100.150	0.230	-0.170	2.020
2020/01/31 00:48:59.0	100.170	0.230	-0.180	2.010
2020/01/31 00:48:59.1	100.190	0.230	-0.200	2.000
2020/01/31 00:48:59.2	100.210	0.230	-0.210	1.990
2020/01/31 00:48:59.3	100.240	0.230	-0.220	1.970
2020/01/31 00:48:59.4	100.260	0.230	-0.220	1.940
2020/01/31 00:48:59.5	100.290	0.230	-0.230	1.910
2020/01/31 00:48:59.6	100.310	0.220	-0.230	1.880
2020/01/31 00:48:59.7	100.340	0.220	-0.230	1.840
2020/01/31 00:48:59.8	100.360	0.220	-0.230	1.800
2020/01/31 00:48:59.9	100.390	0.210	-0.220	1.760
2020/01/31 00:49:00.0	100.420	0.210	-0.220	1.720
2020/01/31 00:49:00.1	100.450	0.200	-0.210	1.670
2020/01/31 00:49:00.2	100.470	0.190	-0.210	1.620
2020/01/31 00:49:00.3	100.500	0.180	-0.200	1.570
2020/01/31 00:49:00.4	100.530	0.180	-0.190	1.520
2020/01/31 00:49:00.5	100.550	0.170	-0.180	1.460
2020/01/31 00:49:00.6	100.580	0.160	-0.170	1.410
2020/01/31 00:49:00.7	100.600	0.150	-0.160	1.360
2020/01/31 00:49:00.8	100.630	0.140	-0.160	1.310
2020/01/31 00:49:00.9	100.650	0.130	-0.150	1.270
2020/01/31 00:49:01.0	100.680	0.120	-0.140	1.220
2020/01/31 00:49:01.1	100.700	0.120	-0.130	1.170
2020/01/31 00:49:01.2	100.720	0.110	-0.130	1.130
2020/01/31 00:49:01.3	100.740	0.100	-0.130	1.090
2020/01/31 00:49:01.4	100.750	0.090	-0.120	1.050
2020/01/31 00:49:01.5	100.770	0.080	-0.120	1.020
2020/01/31 00:49:01.6	100.780	0.070	-0.120	0.990
2020/01/31 00:49:01.7	100.790	0.070	-0.110	0.960
2020/01/31 00:49:01.8	100.810	0.060	-0.110	0.930
2020/01/31 00:49:01.9	100.820	0.050	-0.110	0.900
2020/01/31 00:49:02.0	100.830	0.040	-0.120	0.880
2020/01/31 00:49:02.1	100.840	0.040	-0.120	0.850
2020/01/31 00:49:02.2	100.850	0.030	-0.120	0.830
2020/01/31 00:49:02.3	100.860	0.020	-0.110	0.810
2020/01/31 00:49:02.4	100.870	0.010	-0.110	0.800
2020/01/31 00:49:02.5	100.870	0.000	-0.110	0.780
2020/01/31 00:49:02.6	100.880	-0.000	-0.110	0.770
2020/01/31 00:49:02.7	100.890	-0.010	-0.110	0.750
2020/01/31 00:49:02.8	100.890	-0.020	-0.110	0.740
2020/01/31 00:49:02.9	100.900	-0.030	-0.100	0.730
2020/01/31 00:49:03.0	100.920	-0.040	-0.100	0.720
2020/01/31 00:49:03.1	100.930	-0.050	-0.090	0.710
2020/01/31 00:49:03.2	100.930	-0.060	-0.090	0.700
2020/01/31 00:49:03.3	100.940	-0.070	-0.080	0.700
2020/01/31 00:49:03.4	100.940	-0.090	-0.070	0.690
2020/01/31 00:49:03.5	100.950	-0.100	-0.070	0.680
2020/01/31 00:49:03.6	100.950	-0.110	-0.060	0.680
2020/01/31 00:49:03.7	100.960	-0.130	-0.050	0.670
2020/01/31 00:49:03.8	100.970	-0.140	-0.040	0.660
2020/01/31 00:49:03.9	100.970	-0.160	-0.030	0.650
2020/01/31 00:49:04.0	100.980	-0.170	-0.010	0.650
2020/01/31 00:49:04.1	100.990	-0.190	0.000	0.640
2020/01/31 00:49:04.2	101.000	-0.210	0.010	0.640
2020/01/31 00:49:04.3	101.010	-0.220	0.030	0.630
2020/01/31 00:49:04.4	101.020	-0.240	0.040	0.620
2020/01/31 00:49:04.5	101.030	-0.260	0.050	0.610
2020/01/31 00:49:04.6	101.040	-0.280	0.070	0.600
2020/01/31 00:49:04.7	101.060	-0.290	0.080	0.590
2020/01/31 00:49:04.8	101.070	-0.310	0.090	0.580
2020/01/31 00:49:04.9	101.090	-0.330	0.100	0.570
2020/01/31 00:49:05.0	101.100	-0.350	0.110	0.560
2020/01/31 00:49:05.1	101.120	-0.360	0.120	0.550
2020/01/31 00:49:05.2	101.140	-0.380	0.130	0.550
2020/01/31 00:49:05.3	101.160	-0.390	0.130	0.540
2020/01/31 00:49:05.4	101.170	-0.410	0.140	0.540
2020/01/31 00:49:05.5	101.190	-0.420	0.140	0.540
2020/01/31 00:49:05.6	101.210	-0.430	0.140	0.540
2020/01/31 00:49:05.7	101.230	-0.440	0.140	0.540
2020/01/31 00:49:05.8	101.250	-0.450	0.130	0.550
2020/01/31 00:49:05.9	101.260	-0.450	0.120	0.550
2020/01/31 00:49:06.0	101.280	-0.460	0.110	0.560
2020/01/31 00:49:06.1	101.290	-0.460	0.100	0.560
2020/01/31 00:49:06.2	101.310	-0.460	0.080	0.570
2020/01/31 00:49:06.3	101.330	-0.450	0.060	0.580
2020/01/31 00:49:06.4	101.340	-0.450	0.040	0.590
2020/01/31 00:49:06.5	101.350	-0.440	0.020	0.600
2020/01/31 00:49:06.6	101.360	-0.430	-0.010	0.620
2020/01/31 00:49:06.7	101.370	-0.420	-0.030	0.630
2020/01/31 00:49:06.8	101.380	-0.400	-0.060	0.640
2020/01/31 00:49:06.9	101.390	-0.380	-0.090	0.650
2020/01/31 00:49:07.0	101.410	-0.360	-0.120	0.660
2020/01/31 00:49:07.1	101.410	-0.340	-0.150	0.670
2020/01/31 00:49:07.2	101.420	-0.310	-0.190	0.680
2020/01/31 00:49:07.3	101.430	-0.290	-0.220	0.690
2020/01/31 00:49:07.4	101.430	-0.260	-0.250	0.690
2020/01/31 00:49:07.5	101.440	-0.230	-0.290	0.700
2020/01/31 00:49:07.6	101.440	-0.200	-0.320	0.700
2020/01/31 00:49:07.7	101.450	-0.160	-0.350	0.700
2020/01/31 00:49:07.8	101.450	-0.130	-0.380	0.700
2020/01/31 00:49:07.9	101.460	-0.100	-0.410	0.710
2020/01/31 00:49:08.0	101.450	-0.060	-0.440	0.700
2020/01/31 00:49:08.1	101.460	-0.030	-0.460	0.700
2020/01/31 00:49:08.2	101.460	0.010	-0.490	0.700
2020/01/31 00:49:08.3	101.470	0.040	-0.510	0.700
2020/01/31 00:49:08.4	101.470	0.070	-0.520	0.700
2020/01/31 00:49:08.5	101.470	0.100	-0.540	0.700
2020/01/31 00:49:08.6	101.470	0.130	-0.550	0.700
2020/01/31 00:49:08.7	101.480	0.160	-0.560	0.700
2020/01/31 00:49:08.8	101.480	0.190	-0.560	0.710
2020/01/31 00:49:08.9	101.480	0.220	-0.570	0.710
2020/01/31 00:49:09.0	101.500	0.240	-0.560	0.710
2020/01/31 00:49:09.1	101.500	0.260	-0.560	0.710
2020/01/31 00:49:09.2	101.500	0.280	-0.550	0.720
2020/01/31 00:49:09.3	101.510	0.300	-0.540	0.730
2020/01/31 00:49:09.4	101.510	0.310	-0.530	0.730
2020/01/31 00:49:09.5	101.510	0.320	-0.510	0.740
2020/01/31 00:49:09.6	101.520	0.330	-0.490	0.750
2020/01/31 00:49:09.7	101.520	0.340	-0.470	0.750
2020/01/31 00:49:09.8	101.530	0.340	-0.450	0.760
2020/01/31 00:49:09.9	101.530	0.350	-0.420	0.770
2020/01/31 00:49:10.0	101.540	0.350	-0.400	0.770
2020/01/31 00:49:10.1	101.550	0.350	-0.370	0.780
2020/01/31 00:49:10.2	101.560	0.340	-0.350	0.780
2020/01/31 00:49:10.3	101.560	0.340	-0.320	0.790
2020/01/31 00:49:10.4	101.570	0.330	-0.290	0.790
2020/01/31 00:49:10.5	101.580	0.320	-0.260	0.790
2020/01/31 00:49:10.6	101.590	0.320	-0.230	0.790
2020/01/31 00:49:10.7	101.600	0.310	-0.200	0.790
2020/01/31 00:49:10.8	101.610	0.300	-0.170	0.790
2020/01/31 00:49:10.9	101.620	0.280	-0.150	0.780
2020/01/31 00:49:11.0	101.640	0.270	-0.120	0.780
2020/01/31 00:49:11.1	101.650	0.260	-0.090	0.770
2020/01/31 00:49:11.2	101.660	0.250	-0.070	0.770
2020/01/31 00:49:11.3	101.670	0.240	-0.050	0.760
2020/01/31 00:49:11.4	101.680	0.230	-0.030	0.750
2020/01/31 00:49:11.5	101.690	0.220	-0.020	0.750
2020/01/31 00:49:11.6	101.700	0.210	-0.010	0.740
2020/01/31 00:49:11.7	101.710	0.200	0.000	0.730
2020/01/31 00:49:11.8	101.710	0.200	0.010	0.730
2020/01/31 00:49:11.9	101.720	0.190	0.020	0.720
2020/01/31 00:49:12.0	101.730	0.190	0.020	0.710
2020/01/31 00:49:12.1	101.740	0.180	0.020	0.710
2020/01/31 00:49:12.2	101.740	0.180	0.020	0.700
2020/01/31 00:49:12.3	101.750	0.180	0.010	0.700
2020/01/31 00:49:12.4	101.750	0.180	0.010	0.700
2020/01/31 00:49:12.5	101.750	0.180	-0.000	0.690
2020/01/31 00:49:12.6	101.760	0.180	-0.010	0.690
2020/01/31 00:49:12.7	101.760	0.180	-0.030	0.690
2020/01/31 00:49:12.8	101.760	0.180	-0.040	0.690
2020/01/31 00:49:12.9	101.770	0.190	-0.050	0.690
2020/01/31 00:49:13.0	101.780	0.190	-0.070	0.680
2020/01/31 00:49:13.1	101.790	0.190	-0.090	0.680
2020/01/31 00:49:13.2	101.790	0.200	-0.100	0.680
2020/01/31 00:49:13.3	101.800	0.200	-0.110	0.680
2020/01/31 00:49:13.4	101.810	0.210	-0.130	0.690
2020/01/31 00:49:13.5	101.820	0.210	-0.140	0.690
2020/01/31 00:49:13.6	101.830	0.220	-0.150	0.690
2020/01/31 00:49:13.7	101.840	0.220	-0.160	0.690
2020/01/31 00:49:13.8	101.860	0.220	-0.170	0.690
2020/01/31 00:49:13.9	101.870	0.230	-0.180	0.690
2020/01/31 00:49:14.0	101.880	0.230	-0.180	0.700
2020/01/31 00:49:14.1	101.900	0.230	-0.190	0.700
2020/01/31 00:49:14.2	101.910	0.230	-0.190	0.710
2020/01/31 00:49:14.3	101.930	0.220	-0.190	0.710
2020/01/31 00:49:14.4	101.950	0.220	-0.190	0.720
2020/01/31 00:49:14.5	101.960	0.220	-0.190	0.730
2020/01/31 00:49:14.6	101.980	0.210	-0.180	0.730
2020/01/31 00:49:14.7	102.000	0.200	-0.180	0.740
2020/01/31 00:49:14.8	102.010	0.190	-0.170	0.760
2020/01/31 00:49:14.9	102.030	0.180	-0.160	0.770
2020/01/31 00:49:15.0	102.030	0.170	-0.150	0.780
2020/01/31 00:49:15.1	102.040	0.150	-0.140	0.800
2020/01/31 00:49:15.2	102.060	0.140	-0.130	0.810
2020/01/31 00:49:15.3	102.070	0.120	-0.110	0.830
2020/01/31 00:49:15.4	102.080	0.100	-0.100	0.850
2020/01/31 00:49:15.5	102.090	0.080	-0.080	0.870
2020/01/31 00:49:15.6	102.110	0.060	-0.060	0.890
2020/01/31 00:49:15.7	102.120	0.030	-0.050	0.920
2020/01/31 00:49:15.8	102.130	0.010	-0.030	0.940
2020/01/31 00:49:15.9	102.140	-0.010	-0.020	0.960
2020/01/31 00:49:16.0	102.150	-0.040	0.000	0.990
2020/01/31 00:49:16.1	102.160	-0.060	0.020	1.010
2020/01/31 00:49:16.2	102.160	-0.090	0.030	1.030
2020/01/31 00:49:16.3	102.170	-0.110	0.040	1.060
2020/01/31 00:49:16.4	102.180	-0.140	0.050	1.080
2020/01/31 00:49:16.5	102.180	-0.160	0.060	1.100
2020/01/31 00:49:16.6	102.190	-0.190	0.070	1.110
2020/01/31 00:49:16.7	102.200	-0.210	0.070	1.130
2020/01/31 00:49:16.8	102.200	-0.240	0.080	1.150
2020/01/31 00:49:16.9	102.210	-0.260	0.080	1.160
2020/01/31 00:49:17.0	102.220	-0.280	0.080	1.170
2020/01/31 00:49:17.1	102.220	-0.300	0.080	1.180
2020/01/31 00:49:17.2	102.230	-0.320	0.080	1.190
2020/01/31 00:49:17.3	102.230	-0.340	0.070	1.200
2020/01/31 00:49:17.4	102.240	-0.360	0.070	1.210
2020/01/31 00:49:17.5	102.240	-0.370	0.060	1.220
2020/01/31 00:49:17.6	102.250	-0.390	0.060	1.230
2020/01/31 00:49:17.7	102.260	-0.400	0.050	1.230
2020/01/31 00:49:17.8	102.260	-0.410	0.040	1.240
2020/01/31 00:49:17.9	102.270	-0.430	0.040	1.240
2020/01/31 00:49:18.0	102.280	-0.440	0.030	1.250
2020/01/31 00:49:18.1	102.290	-0.440	0.020	1.250
2020/01/31 00:49:18.2	102.300	-0.450	0.010	1.260
2020/01/31 00:49:18.3	102.300	-0.460	-0.000	1.260
2020/01/31 00:49:18.4	102.310	-0.460	-0.010	1.260
2020/01/31 00:49:18.5	102.320	-0.460	-0.020	1.270
2020/01/31 00:49:18.6	102.330	-0.460	-0.030	1.270
2020/01/31 00:49:18.7	102.340	-0.460	-0.040	1.280
2020/01/31 00:49:18.8	102.350	-0.460	-0.050	1.290
2020/01/31 00:49:18.9	102.360	-0.460	-0.060	1.290
2020/01/31 00:49:19.0	102.370	-0.460	-0.070	1.300
2020/01/31 00:49:19.1	102.380	-0.450	-0.070	1.300
2020/01/31 00:49:19.2	102.390	-0.440	-0.080	1.310
2020/01/31 00:49:19.3	102.400	-0.440	-0.090	1.320
2020/01/31 00:49:19.4	102.410	-0.430	-0.100	1.330
2020/01/31 00:49:19.5	102.420	-0.420	-0.100	1.340
2020/01/31 00:49:19.6	102.430	-0.400	-0.110	1.350
2020/01/31 00:49:19.7	102.430	-0.390	-0.110	1.370
2020/01/31 00:49:19.8	102.440	-0.380	-0.120	1.380
2020/01/31 00:49:19.9	102.450	-0.360	-0.120	1.390
2020/01/31 00:49:20.0	102.440	-0.350	-0.120	1.400
2020/01/31 00:49:20.1	102.450	-0.330	-0.130	1.410
2020/01/31 00:49:20.2	102.450	-0.320	-0.130	1.420
2020/01/31 00:49:20.3	102.460	-0.300	-0.130	1.430
2020/01/31 00:49:20.4	102.470	-0.280	-0.140	1.430
2020/01/31 00:49:20.5	102.470	-0.270	-0.140	1.440
2020/01/31 00:49:20.6	102.470	-0.250	-0.140	1.440
2020/01/31 00:49:20.7	102.480	-0.230	-0.150	1.450
2020/01/31 00:49:20.8	102.480	-0.210	-0.150	1.450
2020/01/31 00:49:20.9	102.480	-0.200	-0.150	1.450
2020/01/31 00:49:21.0	102.470	-0.180	-0.160	1.440
2020/01/31 00:49:21.1	102.480	-0.160	-0.160	1.440
2020/01/31 00:49:21.2	102.480	-0.140	-0.170	1.430
2020/01/31 00:49:21.3	102.480	-0.120	-0.170	1.420
2020/01/31 00:49:21.4	102.480	-0.110	-0.180	1.400
2020/01/31 00:49:21.5	102.480	-0.090	-0.180	1.380
2020/01/31 00:49:21.6	102.470	-0.070	-0.190	1.360
2020/01/31 00:49:21.7	102.470	-0.060	-0.200	1.340
2020/01/31 00:49:21.8	102.470	-0.040	-0.210	1.310
2020/01/31 00:49:21.9	102.470	-0.020	-0.220	1.280
2020/01/31 00:49:22.0	102.470	-0.010	-0.220	1.250
2020/01/31 00:49:22.1	102.470	0.010	-0.230	1.210
2020/01/31 00:49:22.2	102.470	0.020	-0.240	1.170
2020/01/31 00:49:22.3	102.470	0.040	-0.250	1.120
2020/01/31 00:49:22.4	102.480	0.050	-0.260	1.070
2020/01/31 00:49:22.5	102.480	0.060	-0.270	1.020
2020/01/31 00:49:22.6	102.480	0.080	-0.290	0.970
2020/01/31 00:49:22.7	102.480	0.090	-0.300	0.910
2020/01/31 00:49:22.8	102.480	0.110	-0.310	0.860
2020/01/31 00:49:22.9	102.490	0.120	-0.320	0.800
2020/01/31 00:49:23.0	102.490	0.140	-0.340	0.730
2020/01/31 00:49:23.1	102.490	0.150	-0.350	0.670
2020/01/31 00:49:23.2	102.490	0.170	-0.360	0.610
2020/01/31 00:49:23.3	102.490	0.180	-0.380	0.550
2020/01/31 00:49:23.4	102.490	0.190	-0.390	0.500
2020/01/31 00:49:23.5	102.500	0.210	-0.400	0.440
2020/01/31 00:49:23.6	102.500	0.220	-0.410	0.380
2020/01/31 00:49:23.7	102.500	0.240	-0.420	0.330
2020/01/31 00:49:23.8	102.500	0.250	-0.430	0.270
2020/01/31 00:49:23.9	102.500	0.270	-0.440	0.220
2020/01/31 00:49:24.0	102.510	0.280	-0.450	0.180
2020/01/31 00:49:24.1	102.510	0.290	-0.460	0.130
2020/01/31 00:49:24.2	102.510	0.310	-0.470	0.090
2020/01/31 00:49:24.3	102.510	0.320	-0.470	0.050
2020/01/31 00:49:24.4	102.510	0.330	-0.480	0.010
2020/01/31 00:49:24.5	102.520	0.350	-0.490	-0.020
2020/01/31 00:49:24.6	102.520	0.360	-0.500	-0.050
2020/01/31 00:49:24.7	102.520	0.370	-0.500	-0.070
2020/01/31 00:49:24.8	102.530	0.380	-0.510	-0.090
2020/01/31 00:49:24.9	102.530	0.390	-0.510	-0.110
2020/01/31 00:49:25.0	102.560	0.400	-0.520	-0.130
2020/01/31 00:49:25.1	102.560	0.410	-0.520	-0.140
2020/01/31 00:49:25.2	102.570	0.410	-0.520	-0.150
2020/01/31 00:49:25.3	102.570	0.420	-0.510	-0.150
2020/01/31 00:49:25.4	102.580	0.420	-0.510	-0.150
2020/01/31 00:49:25.5	102.590	0.420	-0.510	-0.150
2020/01/31 00:49:25.6	102.600	0.420	-0.500	-0.150
2020/01/31 00:49:25.7	102.610	0.420	-0.490	-0.140
2020/01/31 00:49:25.8	102.620	0.420	-0.480	-0.130
2020/01/31 00:49:25.9	102.630	0.410	-0.460	-0.120
2020/01/31 00:49:26.0	102.650	0.410	-0.440	-0.110
2020/01/31 00:49:26.1	102.670	0.400	-0.430	-0.100
2020/01/31 00:49:26.2	102.680	0.390	-0.410	-0.080
2020/01/31 00:49:26.3	102.690	0.370	-0.380	-0.060
2020/01/31 00:49:26.4	102.710	0.360	-0.360	-0.050
2020/01/31 00:49:26.5	102.720	0.340	-0.330	-0.030
2020/01/31 00:49:26.6	102.740	0.320	-0.300	-0.010
2020/01/31 00:49:26.7	102.750	0.300	-0.270	0.020
2020/01/31 00:49:26.8	102.770	0.280	-0.240	0.040
2020/01/31 00:49:26.9	102.780	0.260	-0.200	0.060
2020/01/31 00:49:27.0	102.780	0.230	-0.170	0.080
2020/01/31 00:49:27.1	102.800	0.200	-0.130	0.110
2020/01/31 00:49:27.2	102.820	0.170	-0.090	0.140
2020/01/31 00:49:27.3	102.830	0.150	-0.050	0.170
2020/01/31 00:49:27.4	102.840	0.110	-0.000	0.200
2020/01/31 00:49:27.5	102.860	0.080	0.040	0.230
2020/01/31 00:49:27.6	102.870	0.050	0.080	0.270
2020/01/31 00:49:27.7	102.890	0.020	0.130	0.300
2020/01/31 00:49:27.8	102.900	-0.010	0.170	0.340
2020/01/31 00:49:27.9	102.910	-0.040	0.220	0.370
2020/01/31 00:49:28.0	102.900	-0.070	0.260	0.410
2020/01/31 00:49:28.1	102.910	-0.110	0.300	0.450
2020/01/31 00:49:28.2	102.920	-0.140	0.340	0.500
2020/01/31 00:49:28.3	102.930	-0.160	0.380	0.540
2020/01/31 00:49:28.4	102.940	-0.190	0.420	0.580
2020/01/31 00:49:28.5	102.950	-0.220	0.450	0.630
2020/01/31 00:49:28.6	102.950	-0.240	0.480	0.670
2020/01/31 00:49:28.7	102.960	-0.270	0.510	0.720
2020/01/31 00:49:28.8	102.970	-0.290	0.530	0.770
2020/01/31 00:49:28.9	102.970	-0.310	0.550	0.820
2020/01/31 00:49:29.0	102.970	-0.330	0.570	0.870
2020/01/31 00:49:29.1	102.980	-0.340	0.580	0.910
2020/01/31 00:49:29.2	102.980	-0.360	0.590	0.960
2020/01/31 00:49:29.3	102.990	-0.370	0.590	1.010
2020/01/31 00:49:29.4	102.990	-0.380	0.590	1.070
2020/01/31 00:49:29.5	103.000	-0.390	0.590	1.120
2020/01/31 00:49:29.6	103.000	-0.390	0.580	1.170
2020/01/31 00:49:29.7	103.000	-0.390	0.570	1.220
2020/01/31 00:49:29.8	103.010	-0.390	0.550	1.270
2020/01/31 00:49:29.9	103.010	-0.390	0.530	1.320
2020/01/31 00:49:30.0	103.020	-0.390	0.510	1.370
2020/01/31 00:49:30.1	103.020	-0.380	0.480	1.420
2020/01/31 00:49:30.2	103.020	-0.380	0.450	1.470
2020/01/31 00:49:30.3	103.020	-0.370	0.420	1.520
2020/01/31 00:49:30.4	103.010	-0.350	0.380	1.560
2020/01/31 00:49:30.5	103.010	-0.340	0.340	1.610
2020/01/31 00:49:30.6	103.010	-0.330	0.300	1.650
2020/01/31 00:49:30.7	103.010	-0.310	0.250	1.690
2020/01/31 00:49:30.8	103.000	-0.290	0.200	1.730
2020/01/31 00:49:30.9	103.000	-0.270	0.150	1.760
2020/01/31 00:49:31.0	102.990	-0.250	0.100	1.790
2020/01/31 00:49:31.1	102.990	-0.230	0.050	1.820
2020/01/31 00:49:31.2	102.990	-0.200	-0.010	1.850
2020/01/31 00:49:31.3	102.990	-0.180	-0.060	1.870
2020/01/31 00:49:31.4	102.980	-0.160	-0.120	1.890
2020/01/31 00:49:31.5	102.980	-0.130	-0.170	1.900
2020/01/31 00:49:31.6	102.990	-0.110	-0.230	1.910
2020/01/31 00:49:31.7	102.990	-0.080	-0.280	1.920
2020/01/31 00:49:31.8	102.990	-0.050	-0.340	1.920
2020/01/31 00:49:31.9	102.990	-0.030	-0.390	1.920
2020/01/31 00:49:32.0	103.000	-0.000	-0.440	1.920
2020/01/31 00:49:32.1	103.010	0.030	-0.490	1.910
2020/01/31 00:49:32.2	103.010	0.050	-0.540	1.910
2020/01/31 00:49:32.3	103.020	0.080	-0.580	1.890
2020/01/31 00:49:32.4	103.030	0.100	-0.620	1.880
2020/01/31 00:49:32.5	103.040	0.120	-0.660	1.860
2020/01/31 00:49:32.6	103.050	0.150	-0.700	1.840
2020/01/31 00:49:32.7	103.060	0.170	-0.730	1.820
2020/01/31 00:49:32.8	103.070	0.190	-0.760	1.800
2020/01/31 00:49:32.9	103.090	0.210	-0.790	1.770
2020/01/31 00:49:33.0	103.080	0.220	-0.810	1.740
2020/01/31 00:49:33.1	103.100	0.240	-0.830	1.720
2020/01/31 00:49:33.2	103.110	0.260	-0.850	1.690
2020/01/31 00:49:33.3	103.130	0.270	-0.860	1.670
2020/01/31 00:49:33.4	103.140	0.280	-0.860	1.640
2020/01/31 00:49:33.5	103.150	0.290	-0.870	1.610
2020/01/31 00:49:33.6	103.170	0.300	-0.860	1.590
2020/01/31 00:49:33.7	103.180	0.310	-0.860	1.560
2020/01/31 00:49:33.8	103.200	0.310	-0.850	1.530
2020/01/31 00:49:33.9	103.210	0.320	-0.840	1.510
2020/01/31 00:49:34.0	103.230	0.320	-0.820	1.480
2020/01/31 00:49:34.1	103.240	0.320	-0.800	1.460
2020/01/31 00:49:34.2	103.250	0.320	-0.780	1.430
2020/01/31 00:49:34.3	103.260	0.320	-0.750	1.410
2020/01/31 00:49:34.4	103.280	0.320	-0.720	1.380
2020/01/31 00:49:34.5	103.290	0.310	-0.690	1.350
2020/01/31 00:49:34.6	103.290	0.300	-0.650	1.330
2020/01/31 00:49:34.7	103.300	0.300	-0.620	1.300
2020/01/31 00:49:34.8	103.310	0.290	-0.580	1.280
2020/01/31 00:49:34.9	103.320	0.270	-0.540	1.250
2020/01/31 00:49:35.0	103.310	0.260	-0.500	1.220
2020/01/31 00:49:35.1	103.320	0.250	-0.450	1.200
2020/01/31 00:49:35.2	103.320	0.230	-0.410	1.170
2020/01/31 00:49:35.3	103.320	0.220	-0.370	1.150
2020/01/31 00:49:35.4	103.320	0.200	-0.330	1.120
2020/01/31 00:49:35.5	103.320	0.180	-0.280	1.090
2020/01/31 00:49:35.6	103.320	0.160	-0.240	1.070
2020/01/31 00:49:35.7	103.320	0.140	-0.200	1.040
2020/01/31 00:49:35.8	103.310	0.120	-0.160	1.010
2020/01/31 00:49:35.9	103.310	0.100	-0.120	0.990
2020/01/31 00:49:36.0	103.310	0.080	-0.070	0.960
2020/01/31 00:49:36.1	103.300	0.060	-0.040	0.930
2020/01/31 00:49:36.2	103.300	0.040	-0.000	0.900
2020/01/31 00:49:36.3	103.300	0.010	0.030	0.870
2020/01/31 00:49:36.4	103.300	-0.010	0.070	0.850
2020/01/31 00:49:36.5	103.290	-0.030	0.100	0.820
2020/01/31 00:49:36.6	103.290	-0.050	0.130	0.790
2020/01/31 00:49:36.7	103.290	-0.070	0.160	0.770
2020/01/31 00:49:36.8	103.290	-0.090	0.180	0.740
2020/01/31 00:49:36.9	103.290	-0.110	0.210	0.710
2020/01/31 00:49:37.0	103.300	-0.130	0.230	0.690
2020/01/31 00:49:37.1	103.300	-0.140	0.250	0.670
2020/01/31 00:49:37.2	103.300	-0.160	0.270	0.650
2020/01/31 00:49:37.3	103.300	-0.180	0.280	0.630
2020/01/31 00:49:37.4	103.300	-0.190	0.290	0.610
2020/01/31 00:49:37.5	103.300	-0.200	0.310	0.590
2020/01/31 00:49:37.6	103.300	-0.220	0.310	0.580
2020/01/31 00:49:37.7	103.300	-0.230	0.320	0.570
2020/01/31 00:49:37.8	103.300	-0.230	0.320	0.560
2020/01/31 00:49:37.9	103.300	-0.240	0.330	0.550
2020/01/31 00:49:38.0	103.300	-0.250	0.330	0.540
2020/01/31 00:49:38.1	103.290	-0.250	0.320	0.530
2020/01/31 00:49:38.2	103.290	-0.260	0.320	0.530
2020/01/31 00:49:38.3	103.290	-0.260	0.310	0.520
2020/01/31 00:49:38.4	103.300	-0.260	0.310	0.520
2020/01/31 00:49:38.5	103.300	-0.260	0.300	0.520
2020/01/31 00:49:38.6	103.300	-0.260	0.290	0.520
2020/01/31 00:49:38.7	103.300	-0.260	0.270	0.520
2020/01/31 00:49:38.8	103.310	-0.260	0.260	0.520
2020/01/31 00:49:38.9	103.310	-0.260	0.250	0.520
2020/01/31 00:49:39.0	103.330	-0.260	0.230	0.520
2020/01/31 00:49:39.1	103.340	-0.260	0.210	0.520
2020/01/31 00:49:39.2	103.350	-0.250	0.200	0.520
2020/01/31 00:49:39.3	103.360	-0.250	0.180	0.510
2020/01/31 00:49:39.4	103.370	-0.250	0.160	0.510
2020/01/31 00:49:39.5	103.380	-0.240	0.140	0.510
2020/01/31 00:49:39.6	103.400	-0.240	0.120	0.510
2020/01/31 00:49:39.7	103.410	-0.240	0.100	0.500
2020/01/31 00:49:39.8	103.430	-0.230	0.080	0.500
2020/01/31 00:49:39.9	103.450	-0.230	0.060	0.500
2020/01/31 00:49:40.0	103.460	-0.230	0.040	0.490
2020/01/31 00:49:40.1	103.470	-0.220	0.020	0.490
2020/01/31 00:49:40.2	103.490	-0.220	-0.000	0.480
2020/01/31 00:49:40.3	103.510	-0.220	-0.030	0.480
2020/01/31 00:49:40.4	103.520	-0.210	-0.050	0.470
2020/01/31 00:49:40.5	103.540	-0.210	-0.070	0.470
2020/01/31 00:49:40.6	103.550	-0.200	-0.100	0.460
2020/01/31 00:49:40.7	103.570	-0.200	-0.120	0.460
2020/01/31 00:49:40.8	103.580	-0.190	-0.140	0.450
2020/01/31 00:49:40.9	103.590	-0.190	-0.170	0.450
2020/01/31 00:49:41.0	103.620	-0.180	-0.190	0.440
2020/01/31 00:49:41.1	103.630	-0.180	-0.220	0.440
2020/01/31 00:49:41.2	103.640	-0.170	-0.240	0.440
2020/01/31 00:49:41.3	103.650	-0.160	-0.270	0.430
2020/01/31 00:49:41.4	103.660	-0.150	-0.290	0.430
2020/01/31 00:49:41.5	103.660	-0.140	-0.320	0.430
2020/01/31 00:49:41.6	103.670	-0.130	-0.350	0.430
2020/01/31 00:49:41.7	103.670	-0.120	-0.370	0.440
2020/01/31 00:49:41.8	103.680	-0.110	-0.390	0.440
2020/01/31 00:49:41.9	103.680	-0.090	-0.420	0.450
2020/01/31 00:49:42.0	103.680	-0.080	-0.440	0.450
2020/01/31 00:49:42.1	103.680	-0.060	-0.470	0.470
2020/01/31 00:49:42.2	103.680	-0.040	-0.490	0.480
2020/01/31 00:49:42.3	103.680	-0.020	-0.510	0.490
2020/01/31 00:49:42.4	103.670	-0.000	-0.530	0.510
2020/01/31 00:49:42.5	103.670	0.020	-0.550	0.530
2020/01/31 00:49:42.6	103.670	0.040	-0.570	0.550
2020/01/31 00:49:42.7	103.660	0.060	-0.580	0.570
2020/01/31 00:49:42.8	103.660	0.080	-0.600	0.590
2020/01/31 00:49:42.9	103.660	0.100	-0.610	0.620
2020/01/31 00:49:43.0	103.670	0.130	-0.620	0.650
2020/01/31 00:49:43.1	103.670	0.150	-0.620	0.670
2020/01/31 00:49:43.2	103.670	0.170	-0.630	0.690
2020/01/31 00:49:43.3	103.670	0.190	-0.630	0.720
2020/01/31 00:49:43.4	103.670	0.210	-0.620	0.740
2020/01/31 00:49:43.5	103.670	0.230	-0.620	0.770
2020/01/31 00:49:43.6	103.680	0.250	-0.610	0.790
2020/01/31 00:49:43.7	103.690	0.260	-0.590	0.810
2020/01/31 00:49:43.8	103.690	0.280	-0.570	0.840
2020/01/31 00:49:43.9	103.700	0.290	-0.550	0.860
2020/01/31 00:49:44.0	103.720	0.300	-0.530	0.880
2020/01/31 00:49:44.1	103.730	0.310	-0.500	0.910
2020/01/31 00:49:44.2	103.740	0.320	-0.470	0.930
2020/01/31 00:49:44.3	103.750	0.330	-0.430	0.950
2020/01/31 00:49:44.4	103.760	0.330	-0.390	0.980
2020/01/31 00:49:44.5	103.770	0.330	-0.350	1.000
2020/01/31 00:49:44.6	103.790	0.330	-0.310	1.020
2020/01/31 00:49:44.7	103.800	0.330	-0.260	1.040
2020/01/31 00:49:44.8	103.810	0.330	-0.220	1.060
2020/01/31 00:49:44.9	103.820	0.320	-0.170	1.080
2020/01/31 00:49:45.0	103.810	0.310	-0.120	1.100
2020/01/31 00:49:45.1	103.820	0.310	-0.070	1.120
2020/01/31 00:49:45.2	103.820	0.290	-0.020	1.140
2020/01/31 00:49:45.3	103.830	0.280	0.030	1.150
2020/01/31 00:49:45.4	103.840	0.270	0.070	1.170
2020/01/31 00:49:45.5	103.850	0.250	0.120	1.180
2020/01/31 00:49:45.6	103.850	0.240	0.160	1.200
2020/01/31 00:49:45.7	103.860	0.220	0.210	1.210
2020/01/31 00:49:45.8	103.860	0.200	0.240	1.220
2020/01/31 00:49:45.9	103.870	0.180	0.280	1.220
2020/01/31 00:49:46.0	103.870	0.160	0.320	1.220
2020/01/31 00:49:46.1	103.880	0.140	0.350	1.230
2020/01/31 00:49:46.2	103.880	0.120	0.370	1.230
2020/01/31 00:49:46.3	103.890	0.100	0.400	1.230
2020/01/31 00:49:46.4	103.890	0.080	0.410	1.230
2020/01/31 00:49:46.5	103.900	0.060	0.430	1.230
2020/01/31 00:49:46.6	103.900	0.040	0.440	1.220
2020/01/31 00:49:46.7	103.910	0.020	0.440	1.210
2020/01/31 00:49:46.8	103.910	0.010	0.440	1.200
2020/01/31 00:49:46.9	103.910	-0.010	0.440	1.190
2020/01/31 00:49:47.0	103.900	-0.030	0.420	1.180
2020/01/31 00:49:47.1	103.900	-0.040	0.410	1.170
2020/01/31 00:49:47.2	103.910	-0.050	0.390	1.150
2020/01/31 00:49:47.3	103.910	-0.060	0.370	1.140
2020/01/31 00:49:47.4	103.920	-0.070	0.340	1.120
2020/01/31 00:49:47.5	103.920	-0.080	0.310	1.100
2020/01/31 00:49:47.6	103.930	-0.080	0.280	1.080
2020/01/31 00:49:47.7	103.930	-0.090	0.240	1.060
2020/01/31 00:49:47.8	103.930	-0.090	0.200	1.040
2020/01/31 00:49:47.9	103.940	-0.090	0.160	1.020
2020/01/31 00:49:48.0	103.940	-0.090	0.120	0.990
2020/01/31 00:49:48.1	103.940	-0.090	0.070	0.970
2020/01/31 00:49:48.2	103.940	-0.080	0.020	0.950
2020/01/31 00:49:48.3	103.950	-0.080	-0.030	0.930
2020/01/31 00:49:48.4	103.950	-0.070	-0.080	0.910
2020/01/31 00:49:48.5	103.950	-0.060	-0.140	0.890
2020/01/31 00:49:48.6	103.950	-0.050	-0.190	0.870
2020/01/31 00:49:48.7	103.950	-0.040	-0.240	0.850
2020/01/31 00:49:48.8	103.950	-0.030	-0.290	0.830
2020/01/31 00:49:48.9	103.950	-0.020	-0.340	0.820
2020/01/31 00:49:49.0	103.950	-0.010	-0.400	0.810
2020/01/31 00:49:49.1	103.940	0.000	-0.440	0.790
2020/01/31 00:49:49.2	103.940	0.020	-0.490	0.780
2020/01/31 00:49:49.3	103.940	0.030	-0.530	0.770
2020/01/31 00:49:49.4	103.930	0.040	-0.570	0.760
2020/01/31 00:49:49.5	103.930	0.050	-0.610	0.760
2020/01/31 00:49:49.6	103.920	0.050	-0.650	0.750
2020/01/31 00:49:49.7	103.920	0.060	-0.680	0.750
2020/01/31 00:49:49.8	103.910	0.070	-0.700	0.750
2020/01/31 00:49:49.9	103.910	0.070	-0.720	0.750
2020/01/31 00:49:50.0	103.910	0.070	-0.740	0.750
2020/01/31 00:49:50.1	103.900	0.070	-0.750	0.750
2020/01/31 00:49:50.2	103.890	0.070	-0.760	0.750
2020/01/31 00:49:50.3	103.880	0.070	-0.760	0.760
2020/01/31 00:49:50.4	103.880	0.060	-0.750	0.770
2020/01/31 00:49:50.5	103.870	0.060	-0.740	0.780
2020/01/31 00:49:50.6	103.860	0.050	-0.730	0.790
2020/01/31 00:49:50.7	103.850	0.040	-0.710	0.800
2020/01/31 00:49:50.8	103.840	0.030	-0.680	0.810
2020/01/31 00:49:50.9	103.840	0.010	-0.650	0.820
2020/01/31 00:49:51.0	103.830	-0.000	-0.610	0.830
2020/01/31 00:49:51.1	103.830	-0.020	-0.580	0.850
2020/01/31 00:49:51.2	103.820	-0.040	-0.540	0.860
2020/01/31 00:49:51.3	103.810	-0.060	-0.490	0.870
2020/01/31 00:49:51.4	103.810	-0.080	-0.450	0.880
2020/01/31 00:49:51.5	103.810	-0.100	-0.400	0.890
2020/01/31 00:49:51.6	103.800	-0.120	-0.350	0.900
2020/01/31 00:49:51.7	103.800	-0.140	-0.290	0.900
2020/01/31 00:49:51.8	103.800	-0.160	-0.240	0.910
2020/01/31 00:49:51.9	103.810	-0.170	-0.190	0.910
2020/01/31 00:49:52.0	103.810	-0.190	-0.130	0.900
2020/01/31 00:49:52.1	103.820	-0.210	-0.080	0.900
2020/01/31 00:49:52.2	103.830	-0.230	-0.020	0.890
2020/01/31 00:49:52.3	103.840	-0.240	0.030	0.880
2020/01/31 00:49:52.4	103.850	-0.260	0.080	0.860
2020/01/31 00:49:52.5	103.860	-0.270	0.130	0.840
2020/01/31 00:49:52.6	103.870	-0.280	0.180	0.820
2020/01/31 00:49:52.7	103.890	-0.280	0.220	0.790
2020/01/31 00:49:52.8	103.900	-0.290	0.260	0.770
2020/01/31 00:49:52.9	103.920	-0.290	0.300	0.740
2020/01/31 00:49:53.0	103.920	-0.290	0.330	0.710
2020/01/31 00:49:53.1	103.940	-0.280	0.350	0.670
2020/01/31 00:49:53.2	103.950	-0.280	0.380	0.640
2020/01/31 00:49:53.3	103.970	-0.270	0.390	0.610
2020/01/31 00:49:53.4	103.980	-0.260	0.400	0.570
2020/01/31 00:49:53.5	103.990	-0.240	0.410	0.540
2020/01/31 00:49:53.6	104.000	-0.230	0.410	0.500
2020/01/31 00:49:53.7	104.010	-0.210	0.410	0.470
2020/01/31 00:49:53.8	104.020	-0.180	0.400	0.440
2020/01/31 00:49:53.9	104.030	-0.160	0.390	0.410
2020/01/31 00:49:54.0	104.040	-0.130	0.370	0.370
2020/01/31 00:49:54.1	104.040	-0.110	0.340	0.340
2020/01/31 00:49:54.2	104.050	-0.080	0.320	0.320
2020/01/31 00:49:54.3	104.050	-0.050	0.280	0.290
2020/01/31 00:49:54.4	104.050	-0.020	0.250	0.270
2020/01/31 00:49:54.5	104.050	0.010	0.210	0.250
2020/01/31 00:49:54.6	104.050	0.040	0.170	0.230
2020/01/31 00:49:54.7	104.050	0.070	0.130	0.210
2020/01/31 00:49:54.8	104.040	0.100	0.090	0.190
2020/01/31 00:49:54.9	104.040	0.130	0.050	0.180
2020/01/31 00:49:55.0	104.050	0.160	-0.000	0.170
2020/01/31 00:49:55.1	104.040	0.180	-0.040	0.150
2020/01/31 00:49:55.2	104.040	0.210	-0.080	0.140
2020/01/31 00:49:55.3	104.040	0.230	-0.130	0.130
2020/01/31 00:49:55.4	104.030	0.250	-0.160	0.130
2020/01/31 00:49:55.5	104.030	0.260	-0.200	0.120
2020/01/31 00:49:55.6	104.020	0.280	-0.240	0.120
2020/01/31 00:49:55.7	104.020	0.290	-0.270	0.120
2020/01/31 00:49:55.8	104.010	0.300	-0.290	0.120
2020/01/31 00:49:55.9	104.010	0.300	-0.320	0.120
2020/01/31 00:49:56.0	104.000	0.300	-0.340	0.120
2020/01/31 00:49:56.1	104.000	0.300	-0.360	0.130
2020/01/31 00:49:56.2	103.990	0.290	-0.370	0.150
2020/01/31 00:49:56.3	103.990	0.290	-0.380	0.160
2020/01/31 00:49:56.4	103.980	0.280	-0.390	0.180
2020/01/31 00:49:56.5	103.970	0.260	-0.400	0.200
2020/01/31 00:49:56.6	103.970	0.250	-0.400	0.220
2020/01/31 00:49:56.7	103.960	0.230	-0.390	0.250
2020/01/31 00:49:56.8	103.950	0.210	-0.390	0.280
2020/01/31 00:49:56.9	103.940	0.180	-0.380	0.310
2020/01/31 00:49:57.0	103.920	0.160	-0.370	0.340
2020/01/31 00:49:57.1	103.910	0.130	-0.360	0.380
2020/01/31 00:49:57.2	103.900	0.100	-0.340	0.410
2020/01/31 00:49:57.3	103.890	0.080	-0.330	0.450
2020/01/31 00:49:57.4	103.880	0.050	-0.310	0.490
2020/01/31 00:49:57.5	103.870	0.020	-0.290	0.540
2020/01/31 00:49:57.6	103.860	-0.010	-0.270	0.580
2020/01/31 00:49:57.7	103.850	-0.040	-0.250	0.630
2020/01/31 00:49:57.8	103.840	-0.070	-0.230	0.670
2020/01/31 00:49:57.9	103.830	-0.100	-0.210	0.720
2020/01/31 00:49:58.0	103.810	-0.120	-0.190	0.760
2020/01/31 00:49:58.1	103.800	-0.150	-0.180	0.810
2020/01/31 00:49:58.2	103.790	-0.170	-0.160	0.850
2020/01/31 00:49:58.3	103.780	-0.190	-0.150	0.890
2020/01/31 00:49:58.4	103.770	-0.210	-0.140	0.940
2020/01/31 00:49:58.5	103.750	-0.220	-0.120	0.980
2020/01/31 00:49:58.6	103.740	-0.240	-0.120	1.020
2020/01/31 00:49:58.7	103.730	-0.250	-0.110	1.060
2020/01/31 00:49:58.8	103.720	-0.260	-0.100	1.100
2020/01/31 00:49:58.9	103.710	-0.260	-0.100	1.140
2020/01/31 00:49:59.0	103.690	-0.270	-0.100	1.170
2020/01/31 00:49:59.1	103.680	-0.270	-0.100	1.200
2020/01/31 00:49:59.2	103.670	-0.270	-0.100	1.230
2020/01/31 00:49:59.3	103.660	-0.270	-0.110	1.270
2020/01/31 00:49:59.4	103.650	-0.260	-0.120	1.290
2020/01/31 00:49:59.5	103.640	-0.250	-0.130	1.320
2020/01/31 00:49:59.6	103.630	-0.250	-0.140	1.350
2020/01/31 00:49:59.7	103.630	-0.240	-0.150	1.380
2020/01/31 00:49:59.8	103.620	-0.230	-0.160	1.400
2020/01/31 00:49:59.9	103.610	-0.210	-0.170	1.430
2020/01/31 00:50:00.0	103.590	-0.200	-0.190	1.450
2020/01/31 00:50:00.1	103.590	-0.190	-0.200	1.470
2020/01/31 00:50:00.2	103.590	-0.170	-0.210	1.490
2020/01/31 00:50:00.3	103.580	-0.160	-0.220	1.510
2020/01/31 00:50:00.4	103.580	-0.140	-0.230	1.540
2020/01/31 00:50:00.5	103.580	-0.130	-0.240	1.560
2020/01/31 00:50:00.6	103.580	-0.110	-0.250	1.580
2020/01/31 00:50:00.7	103.590	-0.100	-0.260	1.590
2020/01/31 00:50:00.8	103.590	-0.090	-0.270	1.610
2020/01/31 00:50:00.9	103.590	-0.070	-0.280	1.630
2020/01/31 00:50:01.0	103.600	-0.060	-0.280	1.640
2020/01/31 00:50:01.1	103.600	-0.050	-0.290	1.660
2020/01/31 00:50:01.2	103.600	-0.030	-0.290	1.680
2020/01/31 00:50:01.3	103.610	-0.020	-0.300	1.690
2020/01/31 00:50:01.4	103.610	-0.010	-0.300	1.700
2020/01/31 00:50:01.5	103.610	-0.000	-0.300	1.720
2020/01/31 00:50:01.6	103.620	0.000	-0.310	1.730
2020/01/31 00:50:01.7	103.620	0.010	-0.310	1.740
2020/01/31 00:50:01.8	103.630	0.020	-0.310	1.740
2020/01/31 00:50:01.9	103.630	0.030	-0.300	1.750
2020/01/31 00:50:02.0	103.650	0.030	-0.300	1.750
2020/01/31 00:50:02.1	103.660	0.040	-0.300	1.750
2020/01/31 00:50:02.2	103.660	0.040	-0.290	1.750
2020/01/31 00:50:02.3	103.660	0.050	-0.290	1.740
2020/01/31 00:50:02.4	103.660	0.050	-0.280	1.730
2020/01/31 00:50:02.5	103.670	0.050	-0.280	1.720
2020/01/31 00:50:02.6	103.670	0.050	-0.270	1.710
2020/01/31 00:50:02.7	103.670	0.060	-0.260	1.690
2020/01/31 00:50:02.8	103.670	0.060	-0.250	1.670
2020/01/31 00:50:02.9	103.680	0.060	-0.230	1.650
2020/01/31 00:50:03.0	103.670	0.060	-0.220	1.620
2020/01/31 00:50:03.1	103.670	0.060	-0.210	1.600
2020/01/31 00:50:03.2	103.670	0.070	-0.190	1.560
2020/01/31 00:50:03.3	103.680	0.070	-0.170	1.530
2020/01/31 00:50:03.4	103.680	0.070	-0.160	1.490
2020/01/31 00:50:03.5	103.680	0.070	-0.140	1.450
2020/01/31 00:50:03.6	103.690	0.070	-0.120	1.410
2020/01/31 00:50:03.7	103.690	0.080	-0.090	1.370
2020/01/31 00:50:03.8	103.700	0.080	-0.070	1.330
2020/01/31 00:50:03.9	103.700	0.080	-0.050	1.280
2020/01/31 00:50:04.0	103.710	0.080	-0.020	1.230
2020/01/31 00:50:04.1	103.710	0.090	0.000	1.180
2020/01/31 00:50:04.2	103.720	0.090	0.030	1.130
2020/01/31 00:50:04.3	103.720	0.090	0.050	1.090
2020/01/31 00:50:04.4	103.730	0.090	0.070	1.040
2020/01/31 00:50:04.5	103.730	0.100	0.100	0.990
2020/01/31 00:50:04.6	103.740	0.100	0.120	0.950
2020/01/31 00:50:04.7	103.740	0.100	0.140	0.900
2020/01/31 00:50:04.8	103.740	0.100	0.160	0.860
2020/01/31 00:50:04.9	103.750	0.110	0.170	0.820
2020/01/31 00:50:05.0	103.750	0.110	0.190	0.780
2020/01/31 00:50:05.1	103.750	0.110	0.200	0.740
2020/01/31 00:50:05.2	103.750	0.110	0.210	0.710
2020/01/31 00:50:05.3	103.750	0.110	0.220	0.680
2020/01/31 00:50:05.4	103.750	0.110	0.230	0.650
2020/01/31 00:50:05.5	103.750	0.110	0.230	0.620
2020/01/31 00:50:05.6	103.750	0.120	0.230	0.590
2020/01/31 00:50:05.7	103.740	0.120	0.220	0.570
2020/01/31 00:50:05.8	103.740	0.120	0.220	0.540
2020/01/31 00:50:05.9	103.740	0.120	0.210	0.520
2020/01/31 00:50:06.0	103.740	0.120	0.190	0.500
2020/01/31 00:50:06.1	103.740	0.120	0.180	0.470
2020/01/31 00:50:06.2	103.740	0.120	0.160	0.450
2020/01/31 00:50:06.3	103.740	0.120	0.140	0.430
2020/01/31 00:50:06.4	103.740	0.120	0.120	0.410
2020/01/31 00:50:06.5	103.730	0.120	0.090	0.390
2020/01/31 00:50:06.6	103.730	0.120	0.060	0.370
2020/01/31 00:50:06.7	103.730	0.120	0.030	0.350
2020/01/31 00:50:06.8	103.740	0.120	0.000	0.330
2020/01/31 00:50:06.9	103.740	0.130	-0.030	0.310
2020/01/31 00:50:07.0	103.730	0.130	-0.060	0.290
2020/01/31 00:50:07.1	103.730	0.130	-0.100	0.260
2020/01/31 00:50:07.2	103.730	0.130	-0.140	0.240
2020/01/31 00:50:07.3	103.730	0.130	-0.170	0.210
2020/01/31 00:50:07.4	103.730	0.130	-0.210	0.190
2020/01/31 00:50:07.5	103.730	0.130	-0.250	0.170
2020/01/31 00:50:07.6	103.730	0.140	-0.280	0.140
2020/01/31 00:50:07.7	103.730	0.140	-0.320	0.120
2020/01/31 00:50:07.8	103.720	0.140	-0.360	0.100
2020/01/31 00:50:07.9	103.720	0.140	-0.390	0.080
2020/01/31 00:50:08.0	103.730	0.140	-0.420	0.060
2020/01/31 00:50:08.1	103.720	0.140	-0.450	0.040
2020/01/31 00:50:08.2	103.720	0.140	-0.480	0.020
2020/01/31 00:50:08.3	103.710	0.140	-0.510	0.010
2020/01/31 00:50:08.4	103.700	0.140	-0.530	-0.000
2020/01/31 00:50:08.5	103.700	0.140	-0.550	-0.010
2020/01/31 00:50:08.6	103.690	0.140	-0.570	-0.020
2020/01/31 00:50:08.7	103.680	0.140	-0.580	-0.020
2020/01/31 00:50:08.8	103.680	0.130	-0.590	-0.020
2020/01/31 00:50:08.9	103.670	0.130	-0.590	-0.020
2020/01/31 00:50:09.0	103.670	0.120	-0.590	-0.010
2020/01/31 00:50:09.1	103.660	0.110	-0.590	-0.000
2020/01/31 00:50:09.2	103.660	0.110	-0.580	0.010
2020/01/31 00:50:09.3	103.650	0.100	-0.570	0.030
2020/01/31 00:50:09.4	103.640	0.090	-0.560	0.050
2020/01/31 00:50:09.5	103.640	0.070	-0.540	0.080
2020/01/31 00:50:09.6	103.630	0.060	-0.520	0.110
2020/01/31 00:50:09.7	103.630	0.050	-0.490	0.140
2020/01/31 00:50:09.8	103.620	0.030	-0.470	0.180
2020/01/31 00:50:09.9	103.620	0.010	-0.440	0.230
2020/01/31 00:50:10.0	103.620	-0.000	-0.400	0.270
2020/01/31 00:50:10.1	103.610	-0.020	-0.370	0.330
2020/01/31 00:50:10.2	103.610	-0.040	-0.340	0.380
2020/01/31 00:50:10.3	103.600	-0.060	-0.300	0.440
2020/01/31 00:50:10.4	103.600	-0.080	-0.270	0.490
2020/01/31 00:50:10.5	103.590	-0.100	-0.230	0.560
2020/01/31 00:50:10.6	103.590	-0.120	-0.190	0.620
2020/01/31 00:50:10.7	103.590	-0.140	-0.160	0.680
2020/01/31 00:50:10.8	103.580	-0.150	-0.130	0.750
2020/01/31 00:50:10.9	103.580	-0.170	-0.090	0.810
2020/01/31 00:50:11.0	103.570	-0.190	-0.060	0.880
2020/01/31 00:50:11.1	103.570	-0.200	-0.030	0.940
2020/01/31 00:50:11.2	103.570	-0.220	-0.000	1.010
2020/01/31 00:50:11.3	103.570	-0.230	0.020	1.070
2020/01/31 00:50:11.4	103.580	-0.250	0.050	1.130
2020/01/31 00:50:11.5	103.580	-0.260	0.070	1.190
2020/01/31 00:50:11.6	103.590	-0.270	0.090	1.250
2020/01/31 00:50:11.7	103.590	-0.270	0.110	1.300
2020/01/31 00:50:11.8	103.600	-0.280	0.120	1.360
2020/01/31 00:50:11.9	103.610	-0.280	0.130	1.410
2020/01/31 00:50:12.0	103.600	-0.290	0.140	1.450
2020/01/31 00:50:12.1	103.610	-0.280	0.150	1.490
2020/01/31 00:50:12.2	103.620	-0.280	0.150	1.530
2020/01/31 00:50:12.3	103.630	-0.280	0.160	1.570
2020/01/31 00:50:12.4	103.640	-0.270	0.150	1.600
2020/01/31 00:50:12.5	103.660	-0.260	0.150	1.630
2020/01/31 00:50:12.6	103.670	-0.250	0.150	1.650
2020/01/31 00:50:12.7	103.680	-0.240	0.140	1.670
2020/01/31 00:50:12.8	103.690	-0.230	0.130	1.680
2020/01/31 00:50:12.9	103.700	-0.210	0.120	1.700
2020/01/31 00:50:13.0	103.730	-0.190	0.100	1.700
2020/01/31 00:50:13.1	103.740	-0.170	0.090	1.710
2020/01/31 00:50:13.2	103.750	-0.150	0.070	1.710
2020/01/31 00:50:13.3	103.770	-0.130	0.050	1.710
2020/01/31 00:50:13.4	103.780	-0.110	0.040	1.700
2020/01/31 00:50:13.5	103.790	-0.090	0.020	1.700
2020/01/31 00:50:13.6	103.810	-0.070	-0.000	1.690
2020/01/31 00:50:13.7	103.820	-0.050	-0.020	1.680
2020/01/31 00:50:13.8	103.830	-0.020	-0.040	1.670
2020/01/31 00:50:13.9	103.850	-0.000	-0.060	1.660
2020/01/31 00:50:14.0	103.850	0.020	-0.080	1.640
2020/01/31 00:50:14.1	103.860	0.040	-0.090	1.630
2020/01/31 00:50:14.2	103.870	0.060	-0.110	1.620
2020/01/31 00:50:14.3	103.880	0.070	-0.130	1.600
2020/01/31 00:50:14.4	103.890	0.090	-0.140	1.590
2020/01/31 00:50:14.5	103.900	0.100	-0.150	1.580
2020/01/31 00:50:14.6	103.910	0.120	-0.170	1.560
2020/01/31 00:50:14.7	103.920	0.130	-0.180	1.550
2020/01/31 00:50:14.8	103.930	0.140	-0.190	1.540
2020/01/31 00:50:14.9	103.940	0.150	-0.190	1.530
2020/01/31 00:50:15.0	103.950	0.150	-0.200	1.520
2020/01/31 00:50:15.1	103.950	0.160	-0.210	1.520
2020/01/31 00:50:15.2	103.950	0.160	-0.210	1.510
2020/01/31 00:50:15.3	103.950	0.160	-0.210	1.500
2020/01/31 00:50:15.4	103.960	0.160	-0.220	1.500
2020/01/31 00:50:15.5	103.950	0.160	-0.220	1.500
2020/01/31 00:50:15.6	103.950	0.160	-0.220	1.490
2020/01/31 00:50:15.7	103.950	0.150	-0.220	1.490
2020/01/31 00:50:15.8	103.940	0.150	-0.220	1.490
2020/01/31 00:50:15.9	103.940	0.140	-0.220	1.490
2020/01/31 00:50:16.0	103.910	0.130	-0.220	1.480
2020/01/31 00:50:16.1	103.910	0.120	-0.210	1.480
2020/01/31 00:50:16.2	103.900	0.110	-0.210	1.480
2020/01/31 00:50:16.3	103.880	0.100	-0.210	1.470
2020/01/31 00:50:16.4	103.870	0.090	-0.210	1.470
2020/01/31 00:50:16.5	103.860	0.080	-0.210	1.460
2020/01/31 00:50:16.6	103.840	0.070	-0.200	1.450
2020/01/31 00:50:16.7	103.830	0.060	-0.200	1.440
2020/01/31 00:50:16.8	103.810	0.050	-0.200	1.420
2020/01/31 00:50:16.9	103.800	0.040	-0.200	1.410
2020/01/31 00:50:17.0	103.760	0.030	-0.200	1.390
2020/01/31 00:50:17.1	103.750	0.020	-0.200	1.370
2020/01/31 00:50:17.2	103.730	0.020	-0.200	1.340
2020/01/31 00:50:17.3	103.720	0.010	-0.200	1.310
2020/01/31 00:50:17.4	103.700	0.000	-0.200	1.280
2020/01/31 00:50:17.5	103.690	-0.000	-0.210	1.250
2020/01/31 00:50:17.6	103.680	-0.010	-0.210	1.210
2020/01/31 00:50:17.7	103.660	-0.010	-0.210	1.170
2020/01/31 00:50:17.8	103.650	-0.010	-0.210	1.130
2020/01/31 00:50:17.9	103.650	-0.010	-0.210	1.080
2020/01/31 00:50:18.0	103.650	-0.010	-0.210	1.030
2020/01/31 00:50:18.1	103.640	-0.010	-0.210	0.980
2020/01/31 00:50:18.2	103.640	-0.010	-0.210	0.930
2020/01/31 00:50:18.3	103.640	-0.010	-0.210	0.870
2020/01/31 00:50:18.4	103.630	-0.010	-0.210	0.820
2020/01/31 00:50:18.5	103.630	-0.010	-0.210	0.760
2020/01/31 00:50:18.6	103.630	-0.010	-0.210	0.700
2020/01/31 00:50:18.7	103.640	-0.010	-0.210	0.640
2020/01/31 00:50:18.8	103.640	-0.000	-0.200	0.580
2020/01/31 00:50:18.9	103.640	-0.000	-0.200	0.520
2020/01/31 00:50:19.0	103.640	0.000	-0.200	0.460
2020/01/31 00:50:19.1	103.640	0.000	-0.200	0.400
2020/01/31 00:50:19.2	103.650	0.010	-0.200	0.350
2020/01/31 00:50:19.3	103.660	0.010	-0.190	0.290
2020/01/31 00:50:19.4	103.660	0.010	-0.190	0.240
2020/01/31 00:50:19.5	103.670	0.010	-0.190	0.190
2020/01/31 00:50:19.6	103.670	0.010	-0.190	0.150
2020/01/31 00:50:19.7	103.680	0.010	-0.180	0.100
2020/01/31 00:50:19.8	103.680	0.010	-0.180	0.060
2020/01/31 00:50:19.9	103.690	0.000	-0.170	0.020
2020/01/31 00:50:20.0	103.710	-0.000	-0.170	-0.010
2020/01/31 00:50:20.1	103.720	-0.010	-0.170	-0.040
2020/01/31 00:50:20.2	103.730	-0.010	-0.160	-0.070
2020/01/31 00:50:20.3	103.730	-0.020	-0.160	-0.090
2020/01/31 00:50:20.4	103.740	-0.020	-0.150	-0.110
2020/01/31 00:50:20.5	103.740	-0.030	-0.140	-0.130
2020/01/31 00:50:20.6	103.750	-0.040	-0.130	-0.150
2020/01/31 00:50:20.7	103.750	-0.050	-0.130	-0.160
2020/01/31 00:50:20.8	103.760	-0.060	-0.120	-0.170
2020/01/31 00:50:20.9	103.760	-0.070	-0.110	-0.180
2020/01/31 00:50:21.0	103.790	-0.080	-0.090	-0.190
2020/01/31 00:50:21.1	103.790	-0.100	-0.080	-0.190
2020/01/31 00:50:21.2	103.800	-0.110	-0.070	-0.190
2020/01/31 00:50:21.3	103.810	-0.120	-0.060	-0.190
2020/01/31 00:50:21.4	103.810	-0.130	-0.050	-0.180
2020/01/31 00:50:21.5	103.820	-0.150	-0.030	-0.180
2020/01/31 00:50:21.6	103.830	-0.160	-0.020	-0.170
2020/01/31 00:50:21.7	103.830	-0.170	-0.010	-0.160
2020/01/31 00:50:21.8	103.840	-0.180	-0.000	-0.150
2020/01/31 00:50:21.9	103.850	-0.190	0.010	-0.140
2020/01/31 00:50:22.0	103.860	-0.200	0.010	-0.120
2020/01/31 00:50:22.1	103.870	-0.210	0.020	-0.110
2020/01/31 00:50:22.2	103.880	-0.220	0.020	-0.090
2020/01/31 00:50:22.3	103.890	-0.230	0.030	-0.070
2020/01/31 00:50:22.4	103.900	-0.230	0.030	-0.050
2020/01/31 00:50:22.5	103.910	-0.240	0.020	-0.030
2020/01/31 00:50:22.6	103.920	-0.240	0.020	-0.010
2020/01/31 00:50:22.7	103.920	-0.240	0.010	0.010
2020/01/31 00:50:22.8	103.930	-0.240	0.010	0.040
2020/01/31 00:50:22.9	103.940	-0.230	-0.010	0.060
2020/01/31 00:50:23.0	103.940	-0.230	-0.020	0.090
2020/01/31 00:50:23.1	103.950	-0.220	-0.040	0.120
2020/01/31 00:50:23.2	103.950	-0.210	-0.050	0.160
2020/01/31 00:50:23.3	103.950	-0.200	-0.070	0.190
2020/01/31 00:50:23.4	103.960	-0.190	-0.100	0.230
2020/01/31 00:50:23.5	103.960	-0.180	-0.120	0.270
2020/01/31 00:50:23.6	103.960	-0.160	-0.140	0.310
2020/01/31 00:50:23.7	103.960	-0.150	-0.170	0.360
2020/01/31 00:50:23.8	103.960	-0.130	-0.190	0.400
2020/01/31 00:50:23.9	103.960	-0.110	-0.220	0.450
2020/01/31 00:50:24.0	103.960	-0.090	-0.250	0.500
2020/01/31 00:50:24.1	103.960	-0.070	-0.270	0.550
2020/01/31 00:50:24.2	103.950	-0.040	-0.300	0.610
2020/01/31 00:50:24.3	103.940	-0.020	-0.320	0.660
2020/01/31 00:50:24.4	103.930	0.000	-0.350	0.720
2020/01/31 00:50:24.5	103.910	0.030	-0.370	0.780
2020/01/31 00:50:24.6	103.900	0.050	-0.390	0.840
2020/01/31 00:50:24.7	103.880	0.080	-0.410	0.910
2020/01/31 00:50:24.8	103.870	0.100	-0.430	0.970
2020/01/31 00:50:24.9	103.850	0.130	-0.440	1.030
2020/01/31 00:50:25.0	103.820	0.150	-0.460	1.090
2020/01/31 00:50:25.1	103.800	0.180	-0.470	1.150
2020/01/31 00:50:25.2	103.780	0.200	-0.480	1.220
2020/01/31 00:50:25.3	103.760	0.220	-0.480	1.270
2020/01/31 00:50:25.4	103.740	0.240	-0.490	1.330
2020/01/31 00:50:25.5	103.720	0.260	-0.490	1.390
2020/01/31 00:50:25.6	103.700	0.280	-0.490	1.440
2020/01/31 00:50:25.7	103.680	0.300	-0.480	1.480
2020/01/31 00:50:25.8	103.660	0.310	-0.480	1.530
2020/01/31 00:50:25.9	103.640	0.330	-0.470	1.570
2020/01/31 00:50:26.0	103.620	0.340	-0.450	1.610
2020/01/31 00:50:26.1	103.610	0.350	-0.440	1.640
2020/01/31 00:50:26.2	103.590	0.360	-0.420	1.670
2020/01/31 00:50:26.3	103.580	0.360	-0.400	1.690
2020/01/31 00:50:26.4	103.570	0.370	-0.380	1.710
2020/01/31 00:50:26.5	103.560	0.370	-0.360	1.730
2020/01/31 00:50:26.6	103.560	0.370	-0.330	1.740
2020/01/31 00:50:26.7	103.550	0.370	-0.300	1.750
2020/01/31 00:50:26.8	103.550	0.360	-0.270	1.750
2020/01/31 00:50:26.9	103.550	0.360	-0.240	1.750
2020/01/31 00:50:27.0	103.550	0.350	-0.210	1.740
2020/01/31 00:50:27.1	103.550	0.340	-0.170	1.730
2020/01/31 00:50:27.2	103.550	0.330	-0.140	1.730
2020/01/31 00:50:27.3	103.560	0.310	-0.100	1.710
2020/01/31 00:50:27.4	103.570	0.300	-0.070	1.700
2020/01/31 00:50:27.5	103.570	0.280	-0.040	1.680
2020/01/31 00:50:27.6	103.580	0.270	0.000	1.660
2020/01/31 00:50:27.7	103.590	0.250	0.040	1.640
2020/01/31 00:50:27.8	103.600	0.230	0.070	1.620
2020/01/31 00:50:27.9	103.610	0.210	0.100	1.600
2020/01/31 00:50:28.0	103.620	0.190	0.130	1.580
2020/01/31 00:50:28.1	103.630	0.170	0.160	1.560
2020/01/31 00:50:28.2	103.640	0.150	0.190	1.530
2020/01/31 00:50:28.3	103.650	0.130	0.220	1.500
2020/01/31 00:50:28.4	103.670	0.110	0.240	1.480
2020/01/31 00:50:28.5	103.680	0.090	0.260	1.450
2020/01/31 00:50:28.6	103.700	0.060	0.280	1.420
2020/01/31 00:50:28.7	103.710	0.040	0.300	1.400
2020/01/31 00:50:28.8	103.730	0.020	0.310	1.370
2020/01/31 00:50:28.9	103.740	0.000	0.320	1.340
2020/01/31 00:50:29.0	103.750	-0.020	0.330	1.310
2020/01/31 00:50:29.1	103.770	-0.040	0.340	1.280
2020/01/31 00:50:29.2	103.790	-0.060	0.340	1.250
2020/01/31 00:50:29.3	103.800	-0.080	0.340	1.220
2020/01/31 00:50:29.4	103.820	-0.100	0.330	1.200
2020/01/31 00:50:29.5	103.830	-0.120	0.330	1.170
2020/01/31 00:50:29.6	103.850	-0.140	0.310	1.140
2020/01/31 00:50:29.7	103.870	-0.150	0.300	1.120
2020/01/31 00:50:29.8	103.880	-0.170	0.280	1.090
2020/01/31 00:50:29.9	103.900	-0.180	0.260	1.070
2020/01/31 00:50:30.0	103.910	-0.200	0.240	1.040
2020/01/31 00:50:30.1	103.920	-0.210	0.210	1.020
2020/01/31 00:50:30.2	103.930	-0.220	0.180	1.000
2020/01/31 00:50:30.3	103.940	-0.240	0.150	0.980
2020/01/31 00:50:30.4	103.950	-0.240	0.110	0.950
2020/01/31 00:50:30.5	103.960	-0.250	0.080	0.940
2020/01/31 00:50:30.6	103.960	-0.260	0.040	0.920
2020/01/31 00:50:30.7	103.970	-0.270	-0.010	0.900
2020/01/31 00:50:30.8	103.970	-0.270	-0.050	0.880
2020/01/31 00:50:30.9	103.970	-0.270	-0.090	0.870
2020/01/31 00:50:31.0	103.970	-0.270	-0.140	0.850
2020/01/31 00:50:31.1	103.970	-0.270	-0.190	0.840
2020/01/31 00:50:31.2	103.960	-0.270	-0.230	0.830
2020/01/31 00:50:31.3	103.960	-0.270	-0.280	0.820
2020/01/31 00:50:31.4	103.950	-0.260	-0.320	0.810
2020/01/31 00:50:31.5	103.930	-0.250	-0.370	0.800
2020/01/31 00:50:31.6	103.920	-0.250	-0.410	0.790
2020/01/31 00:50:31.7	103.910	-0.240	-0.450	0.780
2020/01/31 00:50:31.8	103.890	-0.230	-0.480	0.770
2020/01/31 00:50:31.9	103.870	-0.220	-0.520	0.770
2020/01/31 00:50:32.0	103.840	-0.210	-0.550	0.760
2020/01/31 00:50:32.1	103.820	-0.200	-0.580	0.750
2020/01/31 00:50:32.2	103.800	-0.180	-0.600	0.750
2020/01/31 00:50:32.3	103.780	-0.170	-0.620	0.750
2020/01/31 00:50:32.4	103.760	-0.160	-0.630	0.750
2020/01/31 00:50:32.5	103.730	-0.140	-0.640	0.760
2020/01/31 00:50:32.6	103.710	-0.130	-0.650	0.760
2020/01/31 00:50:32.7	103.690	-0.120	-0.650	0.770
2020/01/31 00:50:32.8	103.660	-0.100	-0.650	0.770
2020/01/31 00:50:32.9	103.640	-0.090	-0.640	0.780
2020/01/31 00:50:33.0	103.620	-0.080	-0.630	0.790
2020/01/31 00:50:33.1	103.600	-0.060	-0.620	0.800
2020/01/31 00:50:33.2	103.570	-0.050	-0.600	0.810
2020/01/31 00:50:33.3	103.550	-0.040	-0.580	0.820
2020/01/31 00:50:33.4	103.530	-0.020	-0.560	0.820
2020/01/31 00:50:33.5	103.510	-0.010	-0.530	0.830
2020/01/31 00:50:33.6	103.490	-0.000	-0.500	0.840
2020/01/31 00:50:33.7	103.480	0.010	-0.480	0.850
2020/01/31 00:50:33.8	103.460	0.020	-0.450	0.850
2020/01/31 00:50:33.9	103.450	0.030	-0.420	0.860
2020/01/31 00:50:34.0	103.430	0.040	-0.390	0.860
2020/01/31 00:50:34.1	103.420	0.050	-0.360	0.860
2020/01/31 00:50:34.2	103.420	0.060	-0.330	0.860
2020/01/31 00:50:34.3	103.410	0.070	-0.300	0.860
2020/01/31 00:50:34.4	103.400	0.070	-0.270	0.850
2020/01/31 00:50:34.5	103.400	0.080	-0.240	0.850
2020/01/31 00:50:34.6	103.400	0.090	-0.210	0.840
2020/01/31 00:50:34.7	103.400	0.090	-0.190	0.830
2020/01/31 00:50:34.8	103.400	0.100	-0.160	0.820
2020/01/31 00:50:34.9	103.410	0.100	-0.130	0.800
2020/01/31 00:50:35.0	103.410	0.100	-0.110	0.790
2020/01/31 00:50:35.1	103.420	0.110	-0.080	0.770
2020/01/31 00:50:35.2	103.420	0.110	-0.060	0.750
2020/01/31 00:50:35.3	103.440	0.110	-0.040	0.730
2020/01/31 00:50:35.4	103.450	0.110	-0.020	0.710
2020/01/31 00:50:35.5	103.460	0.110	0.000	0.690
2020/01/31 00:50:35.6	103.480	0.110	0.020	0.660
2020/01/31 00:50:35.7	103.490	0.110	0.040	0.640
2020/01/31 00:50:35.8	103.510	0.100	0.060	0.620
2020/01/31 00:50:35.9	103.520	0.100	0.070	0.590
2020/01/31 00:50:36.0	103.550	0.100	0.090	0.570
2020/01/31 00:50:36.1	103.560	0.090	0.100	0.550
2020/01/31 00:50:36.2	103.580	0.090	0.120	0.520
2020/01/31 00:50:36.3	103.600	0.080	0.130	0.500
2020/01/31 00:50:36.4	103.620	0.080	0.140	0.480
2020/01/31 00:50:36.5	103.630	0.070	0.150	0.460
2020/01/31 00:50:36.6	103.650	0.060	0.150	0.440
2020/01/31 00:50:36.7	103.670	0.050	0.160	0.420
2020/01/31 00:50:36.8	103.680	0.050	0.170	0.410
2020/01/31 00:50:36.9	103.700	0.040	0.170	0.390
2020/01/31 00:50:37.0	103.710	0.030	0.170	0.380
2020/01/31 00:50:37.1	103.730	0.020	0.170	0.360
2020/01/31 00:50:37.2	103.750	0.010	0.170	0.350
2020/01/31 00:50:37.3	103.760	-0.000	0.160	0.330
2020/01/31 00:50:37.4	103.770	-0.010	0.160	0.320
2020/01/31 00:50:37.5	103.790	-0.020	0.150	0.310
2020/01/31 00:50:37.6	103.800	-0.040	0.150	0.300
2020/01/31 00:50:37.7	103.810	-0.050	0.140	0.290
2020/01/31 00:50:37.8	103.820	-0.060	0.130	0.280
2020/01/31 00:50:37.9	103.830	-0.070	0.120	0.270
2020/01/31 00:50:38.0	103.850	-0.080	0.110	0.260
2020/01/31 00:50:38.1	103.860	-0.100	0.100	0.260
2020/01/31 00:50:38.2	103.860	-0.110	0.090	0.260
2020/01/31 00:50:38.3	103.870	-0.120	0.080	0.260
2020/01/31 00:50:38.4	103.870	-0.130	0.070	0.260
2020/01/31 00:50:38.5	103.870	-0.140	0.050	0.260
2020/01/31 00:50:38.6	103.870	-0.150	0.040	0.270
2020/01/31 00:50:38.7	103.870	-0.160	0.020	0.280
2020/01/31 00:50:38.8	103.870	-0.170	0.010	0.290
2020/01/31 00:50:38.9	103.860	-0.180	-0.000	0.300
2020/01/31 00:50:39.0	103.850	-0.190	-0.020	0.320
2020/01/31 00:50:39.1	103.850	-0.200	-0.030	0.340
2020/01/31 00:50:39.2	103.840	-0.200	-0.050	0.360
2020/01/31 00:50:39.3	103.820	-0.200	-0.070	0.380
2020/01/31 00:50:39.4	103.810	-0.210	-0.080	0.410
2020/01/31 00:50:39.5	103.800	-0.210	-0.100	0.440
2020/01/31 00:50:39.6	103.780	-0.210	-0.120	0.470
2020/01/31 00:50:39.7	103.770	-0.210	-0.140	0.500
2020/01/31 00:50:39.8	103.750	-0.200	-0.170	0.540
2020/01/31 00:50:39.9	103.730	-0.200	-0.190	0.580
2020/01/31 00:50:40.0	103.720	-0.190	-0.210	0.620
2020/01/31 00:50:40.1	103.700	-0.180	-0.240	0.660
2020/01/31 00:50:40.2	103.680	-0.170	-0.260	0.710
2020/01/31 00:50:40.3	103.660	-0.160	-0.290	0.750
2020/01/31 00:50:40.4	103.640	-0.140	-0.320	0.800
2020/01/31 00:50:40.5	103.620	-0.130	-0.350	0.840
2020/01/31 00:50:40.6	103.600	-0.110	-0.380	0.890
2020/01/31 00:50:40.7	103.580	-0.090	-0.400	0.940
2020/01/31 00:50:40.8	103.550	-0.070	-0.430	0.990
2020/01/31 00:50:40.9	103.530	-0.050	-0.460	1.040
2020/01/31 00:50:41.0	103.500	-0.020	-0.490	1.080
2020/01/31 00:50:41.1	103.480	0.000	-0.520	1.130
2020/01/31 00:50:41.2	103.460	0.030	-0.550	1.180
2020/01/31 00:50:41.3	103.440	0.050	-0.570	1.220
2020/01/31 00:50:41.4	103.420	0.080	-0.600	1.270
2020/01/31 00:50:41.5	103.410	0.100	-0.620	1.310
2020/01/31 00:50:41.6	103.390	0.130	-0.640	1.360
2020/01/31 00:50:41.7	103.380	0.150	-0.660	1.400
2020/01/31 00:50:41.8	103.370	0.170	-0.670	1.440
2020/01/31 00:50:41.9	103.360	0.200	-0.680	1.470
2020/01/31 00:50:42.0	103.340	0.220	-0.690	1.510
2020/01/31 00:50:42.1	103.330	0.240	-0.700	1.540
2020/01/31 00:50:42.2	103.330	0.260	-0.700	1.570
2020/01/31 00:50:42.3	103.330	0.280	-0.690	1.590
2020/01/31 00:50:42.4	103.330	0.290	-0.680	1.610
2020/01/31 00:50:42.5	103.330	0.300	-0.670	1.630
2020/01/31 00:50:42.6	103.330	0.310	-0.650	1.650
2020/01/31 00:50:42.7	103.330	0.320	-0.630	1.660
2020/01/31 00:50:42.8	103.340	0.320	-0.600	1.670
2020/01/31 00:50:42.9	103.350	0.330	-0.570	1.670
2020/01/31 00:50:43.0	103.360	0.330	-0.540	1.670
2020/01/31 00:50:43.1	103.370	0.320	-0.500	1.670
2020/01/31 00:50:43.2	103.390	0.320	-0.450	1.660
2020/01/31 00:50:43.3	103.410	0.310	-0.410	1.650
2020/01/31 00:50:43.4	103.420	0.300	-0.360	1.640
2020/01/31 00:50:43.5	103.440	0.280	-0.310	1.620
2020/01/31 00:50:43.6	103.470	0.270	-0.250	1.600
2020/01/31 00:50:43.7	103.490	0.250	-0.190	1.580
2020/01/31 00:50:43.8	103.510	0.230	-0.140	1.550
2020/01/31 00:50:43.9	103.540	0.210	-0.080	1.530
2020/01/31 00:50:44.0	103.550	0.180	-0.020	1.500
2020/01/31 00:50:44.1	103.570	0.160	0.040	1.460
2020/01/31 00:50:44.2	103.600	0.130	0.100	1.430
2020/01/31 00:50:44.3	103.620	0.110	0.160	1.390
2020/01/31 00:50:44.4	103.650	0.080	0.220	1.360
2020/01/31 00:50:44.5	103.680	0.060	0.280	1.320
2020/01/31 00:50:44.6	103.700	0.030	0.330	1.280
2020/01/31 00:50:44.7	103.730	0.000	0.380	1.240
2020/01/31 00:50:44.8	103.750	-0.020	0.430	1.210
2020/01/31 00:50:44.9	103.770	-0.040	0.470	1.170
2020/01/31 00:50:45.0	103.800	-0.070	0.510	1.130
2020/01/31 00:50:45.1	103.820	-0.090	0.550	1.090
2020/01/31 00:50:45.2	103.840	-0.110	0.580	1.060
2020/01/31 00:50:45.3	103.860	-0.120	0.600	1.030
2020/01/31 00:50:45.4	103.870	-0.140	0.620	0.990
2020/01/31 00:50:45.5	103.890	-0.150	0.640	0.960
2020/01/31 00:50:45.6	103.900	-0.160	0.640	0.930
2020/01/31 00:50:45.7	103.910	-0.160	0.650	0.900
2020/01/31 00:50:45.8	103.920	-0.170	0.640	0.870
2020/01/31 00:50:45.9	103.930	-0.170	0.630	0.850
2020/01/31 00:50:46.0	103.930	-0.170	0.610	0.820
2020/01/31 00:50:46.1	103.930	-0.160	0.590	0.790
2020/01/31 00:50:46.2	103.930	-0.150	0.560	0.770
2020/01/31 00:50:46.3	103.940	-0.140	0.530	0.740
2020/01/31 00:50:46.4	103.940	-0.130	0.490	0.720
2020/01/31 00:50:46.5	103.940	-0.120	0.450	0.690
2020/01/31 00:50:46.6	103.940	-0.100	0.400	0.670
2020/01/31 00:50:46.7	103.940	-0.080	0.350	0.640
2020/01/31 00:50:46.8	103.930	-0.060	0.290	0.620
2020/01/31 00:50:46.9	103.930	-0.030	0.230	0.590
2020/01/31 00:50:47.0	103.910	-0.010	0.170	0.570
2020/01/31 00:50:47.1	103.910	0.020	0.100	0.540
2020/01/31 00:50:47.2	103.900	0.040	0.030	0.520
2020/01/31 00:50:47.3	103.890	0.070	-0.040	0.500
2020/01/31 00:50:47.4	103.880	0.100	-0.110	0.480
2020/01/31 00:50:47.5	103.870	0.130	-0.180	0.470
2020/01/31 00:50:47.6	103.860	0.150	-0.250	0.450
2020/01/31 00:50:47.7	103.850	0.180	-0.320	0.430
2020/01/31 00:50:47.8	103.830	0.200	-0.400	0.420
2020/01/31 00:50:47.9	103.820	0.230	-0.460	0.410
2020/01/31 00:50:48.0	103.820	0.250	-0.540	0.400
2020/01/31 00:50:48.1	103.800	0.280	-0.600	0.390
2020/01/31 00:50:48.2	103.780	0.300	-0.660	0.380
2020/01/31 00:50:48.3	103.770	0.310	-0.720	0.380
2020/01/31 00:50:48.4	103.750	0.330	-0.780	0.380
2020/01/31 00:50:48.5	103.730	0.350	-0.830	0.380
2020/01/31 00:50:48.6	103.710	0.360	-0.870	0.380
2020/01/31 00:50:48.7	103.690	0.370	-0.910	0.380
2020/01/31 00:50:48.8	103.670	0.380	-0.950	0.390
2020/01/31 00:50:48.9	103.650	0.380	-0.980	0.400
2020/01/31 00:50:49.0	103.630	0.380	-1.000	0.400
2020/01/31 00:50:49.1	103.610	0.380	-1.020	0.410
2020/01/31 00:50:49.2	103.590	0.380	-1.040	0.420
2020/01/31 00:50:49.3	103.570	0.370	-1.040	0.430
2020/01/31 00:50:49.4	103.560	0.370	-1.040	0.440
2020/01/31 00:50:49.5	103.550	0.350	-1.040	0.450
2020/01/31 00:50:49.6	103.540	0.340	-1.030	0.460
2020/01/31 00:50:49.7	103.530	0.320	-1.010	0.470
2020/01/31 00:50:49.8	103.520	0.300	-0.980	0.480
2020/01/31 00:50:49.9	103.510	0.280	-0.950	0.490
2020/01/31 00:50:50.0	103.500	0.260	-0.910	0.500
2020/01/31 00:50:50.1	103.500	0.230	-0.870	0.520
2020/01/31 00:50:50.2	103.500	0.200	-0.820	0.530
2020/01/31 00:50:50.3	103.500	0.170	-0.760	0.550
2020/01/31 00:50:50.4	103.500	0.140	-0.700	0.560
2020/01/31 00:50:50.5	103.510	0.100	-0.640	0.580
2020/01/31 00:50:50.6	103.520	0.060	-0.570	0.590
2020/01/31 00:50:50.7	103.530	0.030	-0.500	0.610
2020/01/31 00:50:50.8	103.540	-0.010	-0.430	0.630
2020/01/31 00:50:50.9	103.560	-0.050	-0.350	0.640
2020/01/31 00:50:51.0	103.580	-0.090	-0.270	0.660
2020/01/31 00:50:51.1	103.600	-0.130	-0.190	0.680
2020/01/31 00:50:51.2	103.610	-0.170	-0.110	0.700
2020/01/31 00:50:51.3	103.630	-0.210	-0.030	0.710
2020/01/31 00:50:51.4	103.650	-0.250	0.050	0.730
2020/01/31 00:50:51.5	103.670	-0.290	0.120	0.750
2020/01/31 00:50:51.6	103.690	-0.330	0.190	0.770
2020/01/31 00:50:51.7	103.720	-0.360	0.260	0.790
2020/01/31 00:50:51.8	103.740	-0.400	0.330	0.810
2020/01/31 00:50:51.9	103.760	-0.430	0.390	0.830
2020/01/31 00:50:52.0	103.780	-0.460	0.450	0.860
2020/01/31 00:50:52.1	103.800	-0.490	0.510	0.880
2020/01/31 00:50:52.2	103.820	-0.520	0.560	0.900
2020/01/31 00:50:52.3	103.830	-0.550	0.600	0.920
2020/01/31 00:50:52.4	103.850	-0.570	0.640	0.950
2020/01/31 00:50:52.5	103.860	-0.590	0.670	0.970
2020/01/31 00:50:52.6	103.880	-0.610	0.700	0.990
2020/01/31 00:50:52.7	103.890	-0.630	0.720	1.010
2020/01/31 00:50:52.8	103.900	-0.640	0.740	1.040
2020/01/31 00:50:52.9	103.910	-0.650	0.750	1.060
2020/01/31 00:50:53.0	103.910	-0.660	0.760	1.080
2020/01/31 00:50:53.1	103.910	-0.670	0.760	1.110
2020/01/31 00:50:53.2	103.920	-0.670	0.750	1.130
2020/01/31 00:50:53.3	103.920	-0.670	0.740	1.160
2020/01/31 00:50:53.4	103.930	-0.660	0.730	1.180
2020/01/31 00:50:53.5	103.930	-0.660	0.710	1.210
2020/01/31 00:50:53.6	103.930	-0.650	0.680	1.230
2020/01/31 00:50:53.7	103.920	-0.640	0.660	1.260
2020/01/31 00:50:53.8	103.920	-0.620	0.620	1.280
2020/01/31 00:50:53.9	103.920	-0.600	0.590	1.300
2020/01/31 00:50:54.0	103.900	-0.590	0.550	1.330
2020/01/31 00:50:54.1	103.900	-0.570	0.510	1.350
2020/01/31 00:50:54.2	103.900	-0.540	0.460	1.360
2020/01/31 00:50:54.3	103.890	-0.520	0.420	1.380
2020/01/31 00:50:54.4	103.890	-0.490	0.370	1.390
2020/01/31 00:50:54.5	103.880	-0.460	0.310	1.410
2020/01/31 00:50:54.6	103.880	-0.440	0.260	1.420
2020/01/31 00:50:54.7	103.880	-0.400	0.210	1.420
2020/01/31 00:50:54.8	103.880	-0.370	0.150	1.430
2020/01/31 00:50:54.9	103.870	-0.340	0.090	1.430
2020/01/31 00:50:55.0	103.870	-0.310	0.030	1.430
2020/01/31 00:50:55.1	103.870	-0.270	-0.030	1.420
2020/01/31 00:50:55.2	103.870	-0.240	-0.090	1.420
2020/01/31 00:50:55.3	103.870	-0.210	-0.150	1.410
2020/01/31 00:50:55.4	103.880	-0.170	-0.200	1.400
2020/01/31 00:50:55.5	103.880	-0.140	-0.260	1.390
2020/01/31 00:50:55.6	103.880	-0.100	-0.320	1.380
2020/01/31 00:50:55.7	103.890	-0.070	-0.380	1.360
2020/01/31 00:50:55.8	103.890	-0.030	-0.430	1.350
2020/01/31 00:50:55.9	103.900	0.010	-0.490	1.330
2020/01/31 00:50:56.0	103.900	0.040	-0.540	1.310
2020/01/31 00:50:56.1	103.910	0.080	-0.590	1.290
2020/01/31 00:50:56.2	103.910	0.110	-0.640	1.270
2020/01/31 00:50:56.3	103.920	0.150	-0.690	1.240
2020/01/31 00:50:56.4	103.920	0.180	-0.740	1.220
2020/01/31 00:50:56.5	103.930	0.220	-0.780	1.200
2020/01/31 00:50:56.6	103.940	0.250	-0.830	1.180
2020/01/31 00:50:56.7	103.940	0.280	-0.870	1.160
2020/01/31 00:50:56.8	103.950	0.320	-0.900	1.130
2020/01/31 00:50:56.9	103.960	0.350	-0.940	1.110
2020/01/31 00:50:57.0	103.970	0.380	-0.970	1.090
2020/01/31 00:50:57.1	103.980	0.420	-1.000	1.070
2020/01/31 00:50:57.2	103.990	0.450	-1.020	1.050
2020/01/31 00:50:57.3	104.000	0.480	-1.050	1.030
2020/01/31 00:50:57.4	104.010	0.510	-1.060	1.010
2020/01/31 00:50:57.5	104.030	0.540	-1.080	0.990
2020/01/31 00:50:57.6	104.040	0.560	-1.090	0.970
2020/01/31 00:50:57.7	104.060	0.590	-1.100	0.950
2020/01/31 00:50:57.8	104.070	0.620	-1.100	0.930
2020/01/31 00:50:57.9	104.090	0.640	-1.100	0.910
2020/01/31 00:50:58.0	104.100	0.660	-1.090	0.900
2020/01/31 00:50:58.1	104.110	0.680	-1.080	0.880
2020/01/31 00:50:58.2	104.130	0.700	-1.070	0.870
2020/01/31 00:50:58.3	104.140	0.720	-1.050	0.850
2020/01/31 00:50:58.4	104.150	0.730	-1.030	0.840
2020/01/31 00:50:58.5	104.170	0.740	-1.000	0.830
2020/01/31 00:50:58.6	104.180	0.750	-0.970	0.810
2020/01/31 00:50:58.7	104.190	0.760	-0.930	0.800
2020/01/31 00:50:58.8	104.190	0.760	-0.890	0.790
2020/01/31 00:50:58.9	104.200	0.760	-0.840	0.780
2020/01/31 00:50:59.0	104.200	0.760	-0.790	0.770
2020/01/31 00:50:59.1	104.200	0.750	-0.730	0.760
2020/01/31 00:50:59.2	104.200	0.740	-0.670	0.750
2020/01/31 00:50:59.3	104.200	0.730	-0.610	0.740
2020/01/31 00:50:59.4	104.200	0.710	-0.540	0.730
2020/01/31 00:50:59.5	104.200	0.690	-0.470	0.730
2020/01/31 00:50:59.6	104.190	0.670	-0.400	0.720
2020/01/31 00:50:59.7	104.190	0.640	-0.330	0.710
2020/01/31 00:50:59.8	104.180	0.610	-0.250	0.710
2020/01/31 00:50:59.9	104.170	0.580	-0.170	0.700
2020/01/31 00:51:00.0	104.180	0.540	-0.090	0.700
2020/01/31 00:51:00.1	104.160	0.500	-0.010	0.700
2020/01/31 00:51:00.2	104.150	0.460	0.070	0.690
2020/01/31 00:51:00.3	104.140	0.420	0.150	0.690
2020/01/31 00:51:00.4	104.130	0.370	0.230	0.690
2020/01/31 00:51:00.5	104.110	0.320	0.310	0.690
2020/01/31 00:51:00.6	104.100	0.270	0.390	0.690
2020/01/31 00:51:00.7	104.080	0.220	0.460	0.690
2020/01/31 00:51:00.8	104.070	0.170	0.540	0.690
2020/01/31 00:51:00.9	104.060	0.110	0.610	0.690
2020/01/31 00:51:01.0	104.040	0.050	0.680	0.700
2020/01/31 00:51:01.1	104.030	-0.000	0.750	0.700
2020/01/31 00:51:01.2	104.020	-0.060	0.810	0.710
2020/01/31 00:51:01.3	104.010	-0.110	0.860	0.710
2020/01/31 00:51:01.4	104.000	-0.170	0.910	0.720
2020/01/31 00:51:01.5	103.990	-0.220	0.960	0.720
2020/01/31 00:51:01.6	103.990	-0.270	1.000	0.730
2020/01/31 00:51:01.7	103.980	-0.330	1.030	0.740
2020/01/31 00:51:01.8	103.980	-0.370	1.060	0.740
2020/01/31 00:51:01.9	103.970	-0.420	1.080	0.750
2020/01/31 00:51:02.0	103.960	-0.460	1.090	0.760
2020/01/31 00:51:02.1	103.960	-0.500	1.100	0.770
2020/01/31 00:51:02.2	103.960	-0.540	1.090	0.780
2020/01/31 00:51:02.3	103.960	-0.570	1.080	0.790
2020/01/31 00:51:02.4	103.960	-0.600	1.060	0.800
2020/01/31 00:51:02.5	103.960	-0.630	1.040	0.800
2020/01/31 00:51:02.6	103.970	-0.650	1.000	0.810
2020/01/31 00:51:02.7	103.980	-0.660	0.960	0.820
2020/01/31 00:51:02.8	103.980	-0.670	0.910	0.830
2020/01/31 00:51:02.9	103.990	-0.680	0.850	0.840
2020/01/31 00:51:03.0	104.020	-0.680	0.790	0.850
2020/01/31 00:51:03.1	104.030	-0.680	0.720	0.850
2020/01/31 00:51:03.2	104.040	-0.680	0.640	0.860
2020/01/31 00:51:03.3	104.050	-0.670	0.560	0.870
2020/01/31 00:51:03.4	104.060	-0.650	0.470	0.870
2020/01/31 00:51:03.5	104.070	-0.630	0.380	0.880
2020/01/31 00:51:03.6	104.080	-0.610	0.290	0.880
2020/01/31 00:51:03.7	104.090	-0.590	0.190	0.890
2020/01/31 00:51:03.8	104.110	-0.560	0.100	0.890
2020/01/31 00:51:03.9	104.120	-0.530	-0.000	0.900
2020/01/31 00:51:04.0	104.130	-0.490	-0.110	0.900
2020/01/31 00:51:04.1	104.140	-0.450	-0.200	0.910
2020/01/31 00:51:04.2	104.150	-0.410	-0.300	0.910
2020/01/31 00:51:04.3	104.170	-0.370	-0.390	0.910
2020/01/31 00:51:04.4	104.180	-0.330	-0.490	0.920
2020/01/31 00:51:04.5	104.190	-0.280	-0.570	0.920
2020/01/31 00:51:04.6	104.210	-0.240	-0.660	0.920
2020/01/31 00:51:04.7	104.220	-0.190	-0.730	0.930
2020/01/31 00:51:04.8	104.230	-0.150	-0.810	0.930
2020/01/31 00:51:04.9	104.250	-0.100	-0.880	0.940
2020/01/31 00:51:05.0	104.260	-0.050	-0.940	0.940
2020/01/31 00:51:05.1	104.270	-0.010	-0.990	0.950
2020/01/31 00:51:05.2	104.290	0.040	-1.040	0.950
2020/01/31 00:51:05.3	104.300	0.080	-1.080	0.960
2020/01/31 00:51:05.4	104.310	0.120	-1.120	0.960
2020/01/31 00:51:05.5	104.330	0.160	-1.150	0.970
2020/01/31 00:51:05.6	104.340	0.200	-1.170	0.980
2020/01/31 00:51:05.7	104.350	0.230	-1.190	0.990
2020/01/31 00:51:05.8	104.360	0.270	-1.200	1.000
2020/01/31 00:51:05.9	104.380	0.300	-1.200	1.010
2020/01/31 00:51:06.0	104.390	0.320	-1.200	1.020
2020/01/31 00:51:06.1	104.400	0.350	-1.190	1.030
2020/01/31 00:51:06.2	104.420	0.370	-1.170	1.040
2020/01/31 00:51:06.3	104.430	0.380	-1.150	1.050
2020/01/31 00:51:06.4	104.450	0.400	-1.120	1.060
2020/01/31 00:51:06.5	104.460	0.410	-1.100	1.070
2020/01/31 00:51:06.6	104.470	0.420	-1.060	1.080
2020/01/31 00:51:06.7	104.490	0.420	-1.020	1.100
2020/01/31 00:51:06.8	104.500	0.420	-0.980	1.110
2020/01/31 00:51:06.9	104.520	0.420	-0.940	1.120
2020/01/31 00:51:07.0	104.530	0.420	-0.900	1.130
2020/01/31 00:51:07.1	104.540	0.410	-0.850	1.140
2020/01/31 00:51:07.2	104.560	0.400	-0.800	1.150
2020/01/31 00:51:07.3	104.570	0.390	-0.750	1.170
2020/01/31 00:51:07.4	104.580	0.370	-0.700	1.180
2020/01/31 00:51:07.5	104.600	0.360	-0.650	1.190
2020/01/31 00:51:07.6	104.610	0.340	-0.590	1.210
2020/01/31 00:51:07.7	104.620	0.320	-0.540	1.220
2020/01/31 00:51:07.8	104.630	0.300	-0.490	1.230
2020/01/31 00:51:07.9	104.640	0.280	-0.430	1.240
2020/01/31 00:51:08.0	104.630	0.250	-0.380	1.260
2020/01/31 00:51:08.1	104.640	0.230	-0.330	1.270
2020/01/31 00:51:08.2	104.650	0.210	-0.270	1.280
2020/01/31 00:51:08.3	104.660	0.180	-0.220	1.290
2020/01/31 00:51:08.4	104.670	0.160	-0.160	1.300
2020/01/31 00:51:08.5	104.680	0.130	-0.110	1.310
2020/01/31 00:51:08.6	104.680	0.100	-0.060	1.320
2020/01/31 00:51:08.7	104.690	0.080	-0.000	1.330
2020/01/31 00:51:08.8	104.700	0.050	0.050	1.330
2020/01/31 00:51:08.9	104.700	0.030	0.100	1.340
2020/01/31 00:51:09.0	104.710	0.000	0.160	1.340
2020/01/31 00:51:09.1	104.720	-0.020	0.210	1.350
2020/01/31 00:51:09.2	104.720	-0.050	0.260	1.350
2020/01/31 00:51:09.3	104.720	-0.070	0.310	1.350
2020/01/31 00:51:09.4	104.720	-0.100	0.360	1.350
2020/01/31 00:51:09.5	104.720	-0.120	0.410	1.360
2020/01/31 00:51:09.6	104.720	-0.140	0.450	1.360
2020/01/31 00:51:09.7	104.720	-0.160	0.490	1.360
2020/01/31 00:51:09.8	104.710	-0.180	0.540	1.360
2020/01/31 00:51:09.9	104.710	-0.200	0.570	1.360
2020/01/31 00:51:10.0	104.700	-0.220	0.610	1.360
2020/01/31 00:51:10.1	104.690	-0.240	0.640	1.360
2020/01/31 00:51:10.2	104.680	-0.260	0.670	1.360
2020/01/31 00:51:10.3	104.670	-0.270	0.690	1.360
2020/01/31 00:51:10.4	104.660	-0.290	0.710	1.350
2020/01/31 00:51:10.5	104.640	-0.300	0.730	1.350
2020/01/31 00:51:10.6	104.630	-0.310	0.740	1.350
2020/01/31 00:51:10.7	104.610	-0.320	0.750	1.340
2020/01/31 00:51:10.8	104.590	-0.330	0.750	1.340
2020/01/31 00:51:10.9	104.570	-0.340	0.750	1.330
2020/01/31 00:51:11.0	104.560	-0.350	0.750	1.320
2020/01/31 00:51:11.1	104.540	-0.360	0.740	1.310
2020/01/31 00:51:11.2	104.520	-0.360	0.720	1.300
2020/01/31 00:51:11.3	104.500	-0.360	0.700	1.290
2020/01/31 00:51:11.4	104.480	-0.360	0.670	1.270
2020/01/31 00:51:11.5	104.460	-0.360	0.640	1.250
2020/01/31 00:51:11.6	104.440	-0.360	0.600	1.240
2020/01/31 00:51:11.7	104.420	-0.360	0.560	1.210
2020/01/31 00:51:11.8	104.410	-0.350	0.520	1.190
2020/01/31 00:51:11.9	104.400	-0.340	0.470	1.160
2020/01/31 00:51:12.0	104.390	-0.340	0.410	1.130
2020/01/31 00:51:12.1	104.380	-0.320	0.350	1.100
2020/01/31 00:51:12.2	104.380	-0.310	0.290	1.060
2020/01/31 00:51:12.3	104.380	-0.300	0.230	1.030
2020/01/31 00:51:12.4	104.380	-0.290	0.160	0.990
2020/01/31 00:51:12.5	104.390	-0.270	0.090	0.950
2020/01/31 00:51:12.6	104.390	-0.250	0.010	0.900
2020/01/31 00:51:12.7	104.410	-0.230	-0.060	0.860
2020/01/31 00:51:12.8	104.420	-0.210	-0.140	0.820
2020/01/31 00:51:12.9	104.440	-0.190	-0.210	0.770
2020/01/31 00:51:13.0	104.460	-0.170	-0.290	0.720
2020/01/31 00:51:13.1	104.480	-0.150	-0.370	0.670
2020/01/31 00:51:13.2	104.510	-0.120	-0.440	0.620
2020/01/31 00:51:13.3	104.530	-0.100	-0.520	0.570
2020/01/31 00:51:13.4	104.560	-0.070	-0.590	0.530
2020/01/31 00:51:13.5	104.590	-0.050	-0.660	0.480
2020/01/31 00:51:13.6	104.630	-0.020	-0.720	0.440
2020/01/31 00:51:13.7	104.660	0.000	-0.780	0.390
2020/01/31 00:51:13.8	104.700	0.030	-0.840	0.350
2020/01/31 00:51:13.9	104.730	0.050	-0.890	0.310
2020/01/31 00:51:14.0	104.770	0.080	-0.930	0.270
2020/01/31 00:51:14.1	104.810	0.100	-0.980	0.240
2020/01/31 00:51:14.2	104.840	0.130	-1.010	0.210
2020/01/31 00:51:14.3	104.880	0.150	-1.040	0.180
2020/01/31 00:51:14.4	104.910	0.170	-1.070	0.150
2020/01/31 00:51:14.5	104.940	0.200	-1.080	0.130
2020/01/31 00:51:14.6	104.970	0.220	-1.100	0.110
2020/01/31 00:51:14.7	105.000	0.240	-1.100	0.100
2020/01/31 00:51:14.8	105.030	0.260	-1.110	0.090
2020/01/31 00:51:14.9	105.050	0.280	-1.100	0.080
2020/01/31 00:51:15.0	105.070	0.290	-1.090	0.070
2020/01/31 00:51:15.1	105.090	0.310	-1.080	0.070
2020/01/31 00:51:15.2	105.110	0.330	-1.060	0.080
2020/01/31 00:51:15.3	105.130	0.340	-1.030	0.090
2020/01/31 00:51:15.4	105.140	0.350	-1.010	0.100
2020/01/31 00:51:15.5	105.160	0.370	-0.970	0.110
2020/01/31 00:51:15.6	105.170	0.380	-0.940	0.130
2020/01/31 00:51:15.7	105.190	0.380	-0.900	0.140
2020/01/31 00:51:15.8	105.200	0.390	-0.850	0.170
2020/01/31 00:51:15.9	105.210	0.400	-0.810	0.190
2020/01/31 00:51:16.0	105.230	0.400	-0.760	0.220
2020/01/31 00:51:16.1	105.240	0.410	-0.700	0.240
2020/01/31 00:51:16.2	105.240	0.410	-0.650	0.270
2020/01/31 00:51:16.3	105.250	0.410	-0.600	0.310
2020/01/31 00:51:16.4	105.260	0.410	-0.540	0.340
2020/01/31 00:51:16.5	105.270	0.400	-0.480	0.370
2020/01/31 00:51:16.6	105.270	0.400	-0.430	0.410
2020/01/31 00:51:16.7	105.280	0.390	-0.370	0.450
2020/01/31 00:51:16.8	105.280	0.380	-0.310	0.490
2020/01/31 00:51:16.9	105.280	0.370	-0.250	0.530
2020/01/31 00:51:17.0	105.310	0.360	-0.190	0.570
2020/01/31 00:51:17.1	105.300	0.350	-0.130	0.610
2020/01/31 00:51:17.2	105.300	0.330	-0.070	0.660
2020/01/31 00:51:17.3	105.300	0.320	-0.010	0.710
2020/01/31 00:51:17.4	105.300	0.300	0.050	0.750
2020/01/31 00:51:17.5	105.290	0.280	0.110	0.800
2020/01/31 00:51:17.6	105.280	0.260	0.170	0.850
2020/01/31 00:51:17.7	105.280	0.240	0.230	0.900
2020/01/31 00:51:17.8	105.270	0.220	0.280	0.950
2020/01/31 00:51:17.9	105.260	0.190	0.340	1.000
2020/01/31 00:51:18.0	105.240	0.170	0.390	1.050
2020/01/31 00:51:18.1	105.230	0.140	0.440	1.100
2020/01/31 00:51:18.2	105.220	0.110	0.490	1.150
2020/01/31 00:51:18.3	105.210	0.090	0.530	1.200
2020/01/31 00:51:18.4	105.200	0.060	0.580	1.240
2020/01/31 00:51:18.5	105.180	0.030	0.620	1.290
2020/01/31 00:51:18.6	105.170	0.000	0.660	1.330
2020/01/31 00:51:18.7	105.160	-0.030	0.690	1.370
2020/01/31 00:51:18.8	105.150	-0.060	0.720	1.410
2020/01/31 00:51:18.9	105.130	-0.080	0.740	1.450
2020/01/31 00:51:19.0	105.110	-0.110	0.760	1.480
2020/01/31 00:51:19.1	105.100	-0.140	0.780	1.510
2020/01/31 00:51:19.2	105.090	-0.170	0.790	1.540
2020/01/31 00:51:19.3	105.080	-0.190	0.790	1.570
2020/01/31 00:51:19.4	105.060	-0.210	0.790	1.600
2020/01/31 00:51:19.5	105.050	-0.240	0.780	1.620
2020/01/31 00:51:19.6	105.040	-0.260	0.760	1.640
2020/01/31 00:51:19.7	105.030	-0.280	0.740	1.660
2020/01/31 00:51:19.8	105.020	-0.290	0.720	1.670
2020/01/31 00:51:19.9	105.010	-0.310	0.690	1.680
2020/01/31 00:51:20.0	105.000	-0.320	0.650	1.690
2020/01/31 00:51:20.1	104.990	-0.330	0.610	1.700
2020/01/31 00:51:20.2	104.980	-0.330	0.560	1.700
2020/01/31 00:51:20.3	104.970	-0.340	0.510	1.700
2020/01/31 00:51:20.4	104.970	-0.340	0.460	1.700
2020/01/31 00:51:20.5	104.960	-0.340	0.400	1.690
2020/01/31 00:51:20.6	104.960	-0.340	0.340	1.680
2020/01/31 00:51:20.7	104.960	-0.330	0.280	1.670
2020/01/31 00:51:20.8	104.960	-0.330	0.220	1.650
2020/01/31 00:51:20.9	104.960	-0.320	0.160	1.630
2020/01/31 00:51:21.0	104.960	-0.310	0.090	1.600
2020/01/31 00:51:21.1	104.960	-0.290	0.030	1.580
2020/01/31 00:51:21.2	104.970	-0.280	-0.040	1.550
2020/01/31 00:51:21.3	104.980	-0.260	-0.100	1.520
2020/01/31 00:51:21.4	104.990	-0.240	-0.170	1.480
2020/01/31 00:51:21.5	105.000	-0.220	-0.230	1.450
2020/01/31 00:51:21.6	105.010	-0.200	-0.290	1.410
2020/01/31 00:51:21.7	105.030	-0.180	-0.350	1.370
2020/01/31 00:51:21.8	105.050	-0.160	-0.410	1.330
2020/01/31 00:51:21.9	105.070	-0.130	-0.470	1.280
2020/01/31 00:51:22.0	105.080	-0.110	-0.520	1.240
2020/01/31 00:51:22.1	105.110	-0.090	-0.580	1.190
2020/01/31 00:51:22.2	105.130	-0.060	-0.630	1.150
2020/01/31 00:51:22.3	105.150	-0.040	-0.670	1.100
2020/01/31 00:51:22.4	105.180	-0.010	-0.720	1.050
2020/01/31 00:51:22.5	105.200	0.010	-0.760	1.010
2020/01/31 00:51:22.6	105.230	0.030	-0.800	0.960
2020/01/31 00:51:22.7	105.260	0.060	-0.830	0.910
2020/01/31 00:51:22.8	105.290	0.080	-0.870	0.870
2020/01/31 00:51:22.9	105.320	0.100	-0.900	0.830
2020/01/31 00:51:23.0	105.340	0.120	-0.920	0.790
2020/01/31 00:51:23.1	105.370	0.140	-0.940	0.750
2020/01/31 00:51:23.2	105.400	0.150	-0.960	0.710
2020/01/31 00:51:23.3	105.440	0.170	-0.980	0.670
2020/01/31 00:51:23.4	105.470	0.180	-1.000	0.640
2020/01/31 00:51:23.5	105.500	0.200	-1.010	0.600
2020/01/31 00:51:23.6	105.530	0.210	-1.020	0.580
2020/01/31 00:51:23.7	105.560	0.220	-1.020	0.550
2020/01/31 00:51:23.8	105.590	0.220	-1.020	0.520
2020/01/31 00:51:23.9	105.620	0.230	-1.020	0.500
2020/01/31 00:51:24.0	105.650	0.230	-1.020	0.480
2020/01/31 00:51:24.1	105.680	0.240	-1.010	0.470
2020/01/31 00:51:24.2	105.710	0.240	-1.000	0.450
2020/01/31 00:51:24.3	105.730	0.240	-0.980	0.440
2020/01/31 00:51:24.4	105.760	0.240	-0.960	0.440
2020/01/31 00:51:24.5	105.780	0.230	-0.940	0.430
2020/01/31 00:51:24.6	105.810	0.230	-0.910	0.430
2020/01/31 00:51:24.7	105.830	0.220	-0.880	0.430
2020/01/31 00:51:24.8	105.850	0.210	-0.850	0.430
2020/01/31 00:51:24.9	105.870	0.200	-0.810	0.440
2020/01/31 00:51:25.0	105.890	0.190	-0.760	0.450
2020/01/31 00:51:25.1	105.900	0.180	-0.720	0.460
2020/01/31 00:51:25.2	105.920	0.160	-0.670	0.470
2020/01/31 00:51:25.3	105.930	0.150	-0.620	0.480
2020/01/31 00:51:25.4	105.940	0.130	-0.570	0.500
2020/01/31 00:51:25.5	105.950	0.110	-0.510	0.520
2020/01/31 00:51:25.6	105.950	0.090	-0.450	0.540
2020/01/31 00:51:25.7	105.960	0.070	-0.390	0.570
2020/01/31 00:51:25.8	105.960	0.050	-0.330	0.590
2020/01/31 00:51:25.9	105.960	0.030	-0.270	0.620
2020/01/31 00:51:26.0	105.960	0.010	-0.200	0.650
2020/01/31 00:51:26.1	105.950	-0.010	-0.130	0.690
2020/01/31 00:51:26.2	105.950	-0.030	-0.070	0.720
2020/01/31 00:51:26.3	105.940	-0.060	0.000	0.750
2020/01/31 00:51:26.4	105.920	-0.080	0.070	0.790
2020/01/31 00:51:26.5	105.910	-0.100	0.140	0.830
2020/01/31 00:51:26.6	105.890	-0.130	0.210	0.870
2020/01/31 00:51:26.7	105.880	-0.150	0.280	0.910
2020/01/31 00:51:26.8	105.860	-0.180	0.340	0.950
2020/01/31 00:51:26.9	105.830	-0.200	0.410	0.990
2020/01/31 00:51:27.0	105.800	-0.230	0.480	1.030
2020/01/31 00:51:27.1	105.780	-0.250	0.540	1.080
2020/01/31 00:51:27.2	105.750	-0.280	0.610	1.120
2020/01/31 00:51:27.3	105.730	-0.300	0.660	1.160
2020/01/31 00:51:27.4	105.700	-0.320	0.720	1.200
2020/01/31 00:51:27.5	105.680	-0.340	0.770	1.240
2020/01/31 00:51:27.6	105.650	-0.360	0.820	1.270
2020/01/31 00:51:27.7	105.630	-0.380	0.870	1.310
2020/01/31 00:51:27.8	105.600	-0.400	0.910	1.340
2020/01/31 00:51:27.9	105.580	-0.420	0.940	1.370
2020/01/31 00:51:28.0	105.550	-0.430	0.970	1.400
2020/01/31 00:51:28.1	105.530	-0.450	0.990	1.420
2020/01/31 00:51:28.2	105.510	-0.460	1.010	1.440
2020/01/31 00:51:28.3	105.490	-0.470	1.020	1.460
2020/01/31 00:51:28.4	105.480	-0.480	1.030	1.470
2020/01/31 00:51:28.5	105.470	-0.480	1.020	1.480
2020/01/31 00:51:28.6	105.460	-0.480	1.010	1.490
2020/01/31 00:51:28.7	105.450	-0.480	0.990	1.490
2020/01/31 00:51:28.8	105.440	-0.480	0.970	1.480
2020/01/31 00:51:28.9	105.440	-0.470	0.930	1.470
2020/01/31 00:51:29.0	105.440	-0.460	0.890	1.460
2020/01/31 00:51:29.1	105.440	-0.450	0.840	1.440
2020/01/31 00:51:29.2	105.450	-0.430	0.790	1.420
2020/01/31 00:51:29.3	105.450	-0.410	0.720	1.400
2020/01/31 00:51:29.4	105.460	-0.390	0.650	1.370
2020/01/31 00:51:29.5	105.470	-0.370	0.580	1.330
2020/01/31 00:51:29.6	105.480	-0.340	0.500	1.300
2020/01/31 00:51:29.7	105.490	-0.310	0.410	1.260
2020/01/31 00:51:29.8	105.510	-0.280	0.320	1.220
2020/01/31 00:51:29.9	105.520	-0.250	0.230	1.170
2020/01/31 00:51:30.0	105.530	-0.210	0.130	1.120
2020/01/31 00:51:30.1	105.550	-0.180	0.030	1.070
2020/01/31 00:51:30.2	105.570	-0.140	-0.070	1.020
2020/01/31 00:51:30.3	105.590	-0.100	-0.180	0.970
2020/01/31 00:51:30.4	105.620	-0.060	-0.280	0.910
2020/01/31 00:51:30.5	105.640	-0.020	-0.380	0.860
2020/01/31 00:51:30.6	105.670	0.030	-0.480	0.800
2020/01/31 00:51:30.7	105.690	0.070	-0.580	0.740
2020/01/31 00:51:30.8	105.720	0.110	-0.670	0.680
2020/01/31 00:51:30.9	105.750	0.150	-0.760	0.630
2020/01/31 00:51:31.0	105.790	0.200	-0.850	0.570
2020/01/31 00:51:31.1	105.820	0.240	-0.930	0.510
2020/01/31 00:51:31.2	105.850	0.280	-1.000	0.450
2020/01/31 00:51:31.3	105.870	0.310	-1.070	0.400
2020/01/31 00:51:31.4	105.900	0.350	-1.140	0.350
2020/01/31 00:51:31.5	105.930	0.390	-1.190	0.300
2020/01/31 00:51:31.6	105.950	0.420	-1.240	0.250
2020/01/31 00:51:31.7	105.980	0.450	-1.270	0.200
2020/01/31 00:51:31.8	106.010	0.480	-1.300	0.160
2020/01/31 00:51:31.9	106.030	0.510	-1.330	0.120
2020/01/31 00:51:32.0	106.050	0.530	-1.340	0.080
2020/01/31 00:51:32.1	106.070	0.550	-1.350	0.050
2020/01/31 00:51:32.2	106.090	0.570	-1.340	0.020
2020/01/31 00:51:32.3	106.110	0.590	-1.330	-0.010
2020/01/31 00:51:32.4	106.130	0.600	-1.310	-0.030
2020/01/31 00:51:32.5	106.140	0.610	-1.290	-0.060
2020/01/31 00:51:32.6	106.160	0.620	-1.250	-0.070
2020/01/31 00:51:32.7	106.170	0.630	-1.210	-0.090
2020/01/31 00:51:32.8	106.180	0.630	-1.170	-0.100
2020/01/31 00:51:32.9	106.190	0.630	-1.120	-0.110
2020/01/31 00:51:33.0	106.190	0.630	-1.050	-0.110
2020/01/31 00:51:33.1	106.200	0.620	-0.990	-0.110
2020/01/31 00:51:33.2	106.210	0.620	-0.920	-0.110
2020/01/31 00:51:33.3	106.210	0.610	-0.860	-0.110
2020/01/31 00:51:33.4	106.220	0.600	-0.780	-0.100
2020/01/31 00:51:33.5	106.220	0.580	-0.710	-0.090
2020/01/31 00:51:33.6	106.230	0.570	-0.630	-0.080
2020/01/31 00:51:33.7	106.230	0.550	-0.560	-0.070
2020/01/31 00:51:33.8	106.230	0.530	-0.480	-0.060
2020/01/31 00:51:33.9	106.240	0.510	-0.400	-0.040
2020/01/31 00:51:34.0	106.240	0.490	-0.330	-0.030
2020/01/31 00:51:34.1	106.240	0.460	-0.250	-0.010
2020/01/31 00:51:34.2	106.250	0.440	-0.180	0.010
2020/01/31 00:51:34.3	106.250	0.410	-0.110	0.030
2020/01/31 00:51:34.4	106.250	0.390	-0.040	0.060
2020/01/31 00:51:34.5	106.250	0.360	0.030	0.080
2020/01/31 00:51:34.6	106.260	0.330	0.090	0.110
2020/01/31 00:51:34.7	106.260	0.300	0.150	0.140
2020/01/31 00:51:34.8	106.260	0.270	0.200	0.170
2020/01/31 00:51:34.9	106.260	0.240	0.250	0.200
2020/01/31 00:51:35.0	106.250	0.210	0.300	0.240
2020/01/31 00:51:35.1	106.250	0.180	0.340	0.270
2020/01/31 00:51:35.2	106.250	0.140	0.370	0.310
2020/01/31 00:51:35.3	106.250	0.110	0.400	0.360
2020/01/31 00:51:35.4	106.250	0.080	0.430	0.400
2020/01/31 00:51:35.5	106.250	0.050	0.460	0.450
2020/01/31 00:51:35.6	106.240	0.010	0.480	0.500
2020/01/31 00:51:35.7	106.240	-0.020	0.490	0.550
2020/01/31 00:51:35.8	106.240	-0.050	0.510	0.600
2020/01/31 00:51:35.9	106.240	-0.080	0.510	0.660
2020/01/31 00:51:36.0	106.230	-0.120	0.520	0.710
2020/01/31 00:51:36.1	106.230	-0.150	0.520	0.770
2020/01/31 00:51:36.2	106.230	-0.180	0.520	0.830
2020/01/31 00:51:36.3	106.230	-0.220	0.520	0.890
2020/01/31 00:51:36.4	106.230	-0.250	0.520	0.950
2020/01/31 00:51:36.5	106.240	-0.280	0.510	1.010
2020/01/31 00:51:36.6	106.240	-0.310	0.500	1.070
2020/01/31 00:51:36.7	106.250	-0.340	0.490	1.140
2020/01/31 00:51:36.8	106.260	-0.370	0.480	1.200
2020/01/31 00:51:36.9	106.270	-0.400	0.470	1.260
2020/01/31 00:51:37.0	106.270	-0.420	0.460	1.320
2020/01/31 00:51:37.1	106.280	-0.450	0.440	1.380
2020/01/31 00:51:37.2	106.300	-0.480	0.430	1.440
2020/01/31 00:51:37.3	106.310	-0.500	0.410	1.510
2020/01/31 00:51:37.4	106.320	-0.520	0.390	1.570
2020/01/31 00:51:37.5	106.340	-0.540	0.370	1.620
2020/01/31 00:51:37.6	106.360	-0.560	0.350	1.680
2020/01/31 00:51:37.7	106.370	-0.580	0.330	1.740
2020/01/31 00:51:37.8	106.390	-0.590	0.310	1.790
2020/01/31 00:51:37.9	106.410	-0.610	0.290	1.840
2020/01/31 00:51:38.0	106.420	-0.620	0.260	1.900
2020/01/31 00:51:38.1	106.440	-0.630	0.240	1.940
2020/01/31 00:51:38.2	106.460	-0.630	0.210	1.990
2020/01/31 00:51:38.3	106.480	-0.640	0.180	2.030
2020/01/31 00:51:38.4	106.500	-0.640	0.150	2.070
2020/01/31 00:51:38.5	106.520	-0.640	0.110	2.110
2020/01/31 00:51:38.6	106.540	-0.630	0.080	2.140
2020/01/31 00:51:38.7	106.560	-0.630	0.040	2.170
2020/01/31 00:51:38.8	106.580	-0.620	0.000	2.200
2020/01/31 00:51:38.9	106.590	-0.600	-0.040	2.230
2020/01/31 00:51:39.0	106.600	-0.590	-0.090	2.250
2020/01/31 00:51:39.1	106.620	-0.570	-0.140	2.270
2020/01/31 00:51:39.2	106.630	-0.550	-0.180	2.290
2020/01/31 00:51:39.3	106.640	-0.530	-0.230	2.310
2020/01/31 00:51:39.4	106.640	-0.510	-0.290	2.320
2020/01/31 00:51:39.5	106.650	-0.480	-0.340	2.340
2020/01/31 00:51:39.6	106.650	-0.450	-0.390	2.350
2020/01/31 00:51:39.7	106.650	-0.420	-0.450	2.360
2020/01/31 00:51:39.8	106.650	-0.380	-0.500	2.370
2020/01/31 00:51:39.9	106.650	-0.350	-0.560	2.370
2020/01/31 00:51:40.0	106.650	-0.310	-0.610	2.380
2020/01/31 00:51:40.1	106.650	-0.270	-0.660	2.380
2020/01/31 00:51:40.2	106.640	-0.230	-0.710	2.380
2020/01/31 00:51:40.3	106.630	-0.190	-0.760	2.370
2020/01/31 00:51:40.4	106.630	-0.150	-0.800	2.370
2020/01/31 00:51:40.5	106.620	-0.110	-0.840	2.360
2020/01/31 00:51:40.6	106.620	-0.070	-0.870	2.350
2020/01/31 00:51:40.7	106.610	-0.030	-0.900	2.340
2020/01/31 00:51:40.8	106.600	0.010	-0.920	2.320
2020/01/31 00:51:40.9	106.600	0.050	-0.940	2.300
2020/01/31 00:51:41.0	106.580	0.090	-0.950	2.280
2020/01/31 00:51:41.1	106.580	0.130	-0.950	2.260
2020/01/31 00:51:41.2	106.580	0.160	-0.950	2.230
2020/01/31 00:51:41.3	106.570	0.200	-0.940	2.210
2020/01/31 00:51:41.4	106.570	0.230	-0.920	2.180
2020/01/31 00:51:41.5	106.570	0.260	-0.890	2.150
2020/01/31 00:51:41.6	106.560	0.290	-0.860	2.130
2020/01/31 00:51:41.7	106.560	0.310	-0.820	2.090
2020/01/31 00:51:41.8	106.560	0.330	-0.780	2.060
2020/01/31 00:51:41.9	106.560	0.350	-0.730	2.030
2020/01/31 00:51:42.0	106.580	0.370	-0.670	1.990
2020/01/31 00:51:42.1	106.580	0.380	-0.600	1.960
2020/01/31 00:51:42.2	106.580	0.400	-0.540	1.920
2020/01/31 00:51:42.3	106.580	0.400	-0.470	1.880
2020/01/31 00:51:42.4	106.580	0.410	-0.400	1.840
2020/01/31 00:51:42.5	106.580	0.410	-0.330	1.800
2020/01/31 00:51:42.6	106.590	0.410	-0.250	1.750
2020/01/31 00:51:42.7	106.590	0.410	-0.170	1.710
2020/01/31 00:51:42.8	106.590	0.410	-0.100	1.660
2020/01/31 00:51:42.9	106.600	0.400	-0.020	1.610
2020/01/31 00:51:43.0	106.600	0.400	0.050	1.560
2020/01/31 00:51:43.1	106.600	0.390	0.120	1.510
2020/01/31 00:51:43.2	106.610	0.380	0.190	1.460
2020/01/31 00:51:43.3	106.620	0.360	0.260	1.400
2020/01/31 00:51:43.4	106.630	0.350	0.320	1.350
2020/01/31 00:51:43.5	106.640	0.340	0.380	1.290
2020/01/31 00:51:43.6	106.640	0.320	0.440	1.230
2020/01/31 00:51:43.7	106.650	0.310	0.490	1.170
2020/01/31 00:51:43.8	106.660	0.290	0.530	1.110
2020/01/31 00:51:43.9	106.670	0.280	0.570	1.040
2020/01/31 00:51:44.0	106.680	0.260	0.600	0.970
2020/01/31 00:51:44.1	106.690	0.240	0.630	0.910
2020/01/31 00:51:44.2	106.700	0.230	0.650	0.840
2020/01/31 00:51:44.3	106.710	0.220	0.660	0.770
2020/01/31 00:51:44.4	106.720	0.200	0.660	0.700
2020/01/31 00:51:44.5	106.730	0.190	0.660	0.630
2020/01/31 00:51:44.6	106.740	0.180	0.650	0.560
2020/01/31 00:51:44.7	106.750	0.170	0.630	0.490
2020/01/31 00:51:44.8	106.760	0.160	0.610	0.420
2020/01/31 00:51:44.9	106.770	0.150	0.580	0.350
2020/01/31 00:51:45.0	106.780	0.150	0.540	0.280
2020/01/31 00:51:45.1	106.790	0.140	0.490	0.210
2020/01/31 00:51:45.2	106.800	0.140	0.450	0.140
2020/01/31 00:51:45.3	106.810	0.140	0.390	0.080
2020/01/31 00:51:45.4	106.810	0.140	0.340	0.020
2020/01/31 00:51:45.5	106.820	0.140	0.270	-0.040
2020/01/31 00:51:45.6	106.820	0.140	0.210	-0.090
2020/01/31 00:51:45.7	106.830	0.140	0.140	-0.140
2020/01/31 00:51:45.8	106.830	0.140	0.070	-0.190
2020/01/31 00:51:45.9	106.840	0.150	0.000	-0.230
2020/01/31 00:51:46.0	106.850	0.150	-0.060	-0.270
2020/01/31 00:51:46.1	106.850	0.150	-0.140	-0.300
2020/01/31 00:51:46.2	106.850	0.160	-0.210	-0.320
2020/01/31 00:51:46.3	106.860	0.160	-0.280	-0.340
2020/01/31 00:51:46.4	106.860	0.170	-0.340	-0.360
2020/01/31 00:51:46.5	106.860	0.170	-0.410	-0.370
2020/01/31 00:51:46.6	106.860	0.170	-0.470	-0.370
2020/01/31 00:51:46.7	106.860	0.180	-0.530	-0.370
2020/01/31 00:51:46.8	106.870	0.180	-0.590	-0.360
2020/01/31 00:51:46.9	106.870	0.180	-0.640	-0.340
2020/01/31 00:51:47.0	106.880	0.180	-0.690	-0.320
2020/01/31 00:51:47.1	106.880	0.180	-0.740	-0.290
2020/01/31 00:51:47.2	106.880	0.180	-0.770	-0.260
2020/01/31 00:51:47.3	106.880	0.170	-0.810	-0.220
2020/01/31 00:51:47.4	106.890	0.170	-0.840	-0.180
2020/01/31 00:51:47.5	106.890	0.170	-0.860	-0.130
2020/01/31 00:51:47.6	106.890	0.160	-0.880	-0.070
2020/01/31 00:51:47.7	106.900	0.150	-0.900	-0.010
2020/01/31 00:51:47.8	106.900	0.140	-0.900	0.050
2020/01/31 00:51:47.9	106.900	0.130	-0.910	0.120
2020/01/31 00:51:48.0	106.920	0.120	-0.900	0.200
2020/01/31 00:51:48.1	106.920	0.110	-0.890	0.280
2020/01/31 00:51:48.2	106.920	0.090	-0.880	0.370
2020/01/31 00:51:48.3	106.920	0.080	-0.860	0.460
2020/01/31 00:51:48.4	106.920	0.060	-0.840	0.550
2020/01/31 00:51:48.5	106.920	0.040	-0.810	0.650
2020/01/31 00:51:48.6	106.920	0.020	-0.780	0.750
2020/01/31 00:51:48.7	106.920	0.000	-0.750	0.850
2020/01/31 00:51:48.8	106.920	-0.020	-0.710	0.960
2020/01/31 00:51:48.9	106.920	-0.040	-0.670	1.070
2020/01/31 00:51:49.0	106.930	-0.060	-0.630	1.180
2020/01/31 00:51:49.1	106.920	-0.080	-0.580	1.300
2020/01/31 00:51:49.2	106.920	-0.100	-0.530	1.410
2020/01/31 00:51:49.3	106.920	-0.130	-0.480	1.530
2020/01/31 00:51:49.4	106.920	-0.150	-0.430	1.640
2020/01/31 00:51:49.5	106.920	-0.170	-0.370	1.760
2020/01/31 00:51:49.6	106.910	-0.190	-0.320	1.880
2020/01/31 00:51:49.7	106.910	-0.210	-0.270	1.990
2020/01/31 00:51:49.8	106.910	-0.230	-0.220	2.100
2020/01/31 00:51:49.9	106.910	-0.250	-0.160	2.220
2020/01/31 00:51:50.0	106.900	-0.270	-0.110	2.320
2020/01/31 00:51:50.1	106.900	-0.280	-0.060	2.430
2020/01/31 00:51:50.2	106.900	-0.300	-0.010	2.530
2020/01/31 00:51:50.3	106.900	-0.310	0.040	2.630
2020/01/31 00:51:50.4	106.900	-0.320	0.080	2.730
2020/01/31 00:51:50.5	106.900	-0.330	0.130	2.820
2020/01/31 00:51:50.6	106.890	-0.340	0.170	2.910
2020/01/31 00:51:50.7	106.890	-0.340	0.210	3.000
2020/01/31 00:51:50.8	106.890	-0.340	0.250	3.080
2020/01/31 00:51:50.9	106.890	-0.350	0.280	3.160
2020/01/31 00:51:51.0	106.880	-0.340	0.310	3.230
2020/01/31 00:51:51.1	106.870	-0.340	0.340	3.300
2020/01/31 00:51:51.2	106.870	-0.340	0.360	3.370
2020/01/31 00:51:51.3	106.860	-0.330	0.380	3.430
2020/01/31 00:51:51.4	106.850	-0.320	0.400	3.480
2020/01/31 00:51:51.5	106.840	-0.310	0.420	3.530
2020/01/31 00:51:51.6	106.840	-0.300	0.430	3.580
2020/01/31 00:51:51.7	106.830	-0.280	0.440	3.620
2020/01/31 00:51:51.8	106.820	-0.260	0.450	3.650
2020/01/31 00:51:51.9	106.810	-0.250	0.450	3.680
2020/01/31 00:51:52.0	106.790	-0.230	0.450	3.700
2020/01/31 00:51:52.1	106.790	-0.210	0.450	3.720
2020/01/31 00:51:52.2	106.780	-0.190	0.450	3.730
2020/01/31 00:51:52.3	106.770	-0.170	0.440	3.730
2020/01/31 00:51:52.4	106.770	-0.140	0.430	3.730
2020/01/31 00:51:52.5	106.770	-0.120	0.420	3.720
2020/01/31 00:51:52.6	106.770	-0.100	0.410	3.700
2020/01/31 00:51:52.7	106.770	-0.070	0.400	3.680
2020/01/31 00:51:52.8	106.770	-0.050	0.380	3.650
2020/01/31 00:51:52.9	106.780	-0.030	0.360	3.620
2020/01/31 00:51:53.0	106.780	-0.000	0.340	3.570
2020/01/31 00:51:53.1	106.790	0.020	0.320	3.530
2020/01/31 00:51:53.2	106.800	0.040	0.290	3.470
2020/01/31 00:51:53.3	106.810	0.060	0.260	3.420
2020/01/31 00:51:53.4	106.820	0.090	0.240	3.350
2020/01/31 00:51:53.5	106.830	0.110	0.210	3.290
2020/01/31 00:51:53.6	106.850	0.130	0.180	3.220
2020/01/31 00:51:53.7	106.860	0.150	0.140	3.140
2020/01/31 00:51:53.8	106.880	0.170	0.110	3.060
2020/01/31 00:51:53.9	106.890	0.180	0.070	2.980
2020/01/31 00:51:54.0	106.900	0.200	0.030	2.900
2020/01/31 00:51:54.1	106.910	0.220	-0.010	2.810
2020/01/31 00:51:54.2	106.920	0.230	-0.050	2.730
2020/01/31 00:51:54.3	106.930	0.250	-0.090	2.640
2020/01/31 00:51:54.4	106.940	0.260	-0.130	2.560
2020/01/31 00:51:54.5	106.940	0.280	-0.170	2.470
2020/01/31 00:51:54.6	106.950	0.290	-0.220	2.390
2020/01/31 00:51:54.7	106.950	0.300	-0.260	2.300
2020/01/31 00:51:54.8	106.950	0.320	-0.310	2.220
2020/01/31 00:51:54.9	106.940	0.330	-0.350	2.140
2020/01/31 00:51:55.0	106.940	0.340	-0.400	2.060
2020/01/31 00:51:55.1	106.930	0.350	-0.440	1.980
2020/01/31 00:51:55.2	106.920	0.360	-0.490	1.910
2020/01/31 00:51:55.3	106.910	0.370	-0.530	1.830
2020/01/31 00:51:55.4	106.900	0.380	-0.570	1.760
2020/01/31 00:51:55.5	106.880	0.390	-0.610	1.690
2020/01/31 00:51:55.6	106.870	0.400	-0.650	1.620
2020/01/31 00:51:55.7	106.850	0.400	-0.680	1.550
2020/01/31 00:51:55.8	106.840	0.410	-0.710	1.480
2020/01/31 00:51:55.9	106.820	0.410	-0.740	1.410
2020/01/31 00:51:56.0	106.810	0.420	-0.770	1.350
2020/01/31 00:51:56.1	106.790	0.420	-0.790	1.290
2020/01/31 00:51:56.2	106.770	0.420	-0.810	1.220
2020/01/31 00:51:56.3	106.750	0.420	-0.820	1.160
2020/01/31 00:51:56.4	106.730	0.410	-0.830	1.110
2020/01/31 00:51:56.5	106.710	0.410	-0.830	1.050
2020/01/31 00:51:56.6	106.700	0.400	-0.830	0.990
2020/01/31 00:51:56.7	106.680	0.390	-0.820	0.940
2020/01/31 00:51:56.8	106.660	0.380	-0.810	0.890
2020/01/31 00:51:56.9	106.650	0.370	-0.790	0.830
2020/01/31 00:51:57.0	106.620	0.350	-0.770	0.780
2020/01/31 00:51:57.1	106.610	0.330	-0.740	0.730
2020/01/31 00:51:57.2	106.600	0.310	-0.710	0.680
2020/01/31 00:51:57.3	106.590	0.290	-0.670	0.640
2020/01/31 00:51:57.4	106.580	0.270	-0.630	0.590
2020/01/31 00:51:57.5	106.570	0.240	-0.590	0.550
2020/01/31 00:51:57.6	106.560	0.210	-0.540	0.510
2020/01/31 00:51:57.7	106.550	0.180	-0.490	0.470
2020/01/31 00:51:57.8	106.550	0.150	-0.440	0.440
2020/01/31 00:51:57.9	106.540	0.120	-0.380	0.400
2020/01/31 00:51:58.0	106.530	0.090	-0.330	0.380
2020/01/31 00:51:58.1	106.530	0.050	-0.270	0.350
2020/01/31 00:51:58.2	106.520	0.020	-0.220	0.330
2020/01/31 00:51:58.3	106.520	-0.020	-0.160	0.300
2020/01/31 00:51:58.4	106.510	-0.060	-0.100	0.290
2020/01/31 00:51:58.5	106.500	-0.100	-0.050	0.270
2020/01/31 00:51:58.6	106.500	-0.130	0.010	0.260
2020/01/31 00:51:58.7	106.490	-0.170	0.060	0.260
2020/01/31 00:51:58.8	106.480	-0.210	0.110	0.260
2020/01/31 00:51:58.9	106.470	-0.240	0.160	0.260
2020/01/31 00:51:59.0	106.470	-0.280	0.200	0.270
2020/01/31 00:51:59.1	106.460	-0.320	0.240	0.280
2020/01/31 00:51:59.2	106.450	-0.350	0.280	0.300
2020/01/31 00:51:59.3	106.440	-0.380	0.320	0.320
2020/01/31 00:51:59.4	106.430	-0.410	0.350	0.340
2020/01/31 00:51:59.5	106.420	-0.440	0.370	0.370
2020/01/31 00:51:59.6	106.410	-0.470	0.390	0.400
2020/01/31 00:51:59.7	106.390	-0.500	0.410	0.430
2020/01/31 00:51:59.8	106.380	-0.520	0.420	0.470
2020/01/31 00:51:59.9	106.370	-0.550	0.430	0.510
2020/01/31 00:52:00.0	106.360	-0.570	0.430	0.550
2020/01/31 00:52:00.1	106.340	-0.580	0.430	0.590
2020/01/31 00:52:00.2	106.330	-0.600	0.420	0.640
2020/01/31 00:52:00.3	106.310	-0.610	0.410	0.680
2020/01/31 00:52:00.4	106.300	-0.620	0.390	0.730
2020/01/31 00:52:00.5	106.280	-0.630	0.370	0.770
2020/01/31 00:52:00.6	106.270	-0.630	0.340	0.820
2020/01/31 00:52:00.7	106.260	-0.630	0.310	0.860
2020/01/31 00:52:00.8	106.240	-0.630	0.280	0.900
2020/01/31 00:52:00.9	106.230	-0.620	0.240	0.950
2020/01/31 00:52:01.0	106.220	-0.610	0.200	0.990
2020/01/31 00:52:01.1	106.210	-0.600	0.160	1.030
2020/01/31 00:52:01.2	106.200	-0.590	0.110	1.070
2020/01/31 00:52:01.3	106.190	-0.570	0.070	1.100
2020/01/31 00:52:01.4	106.190	-0.550	0.030	1.140
2020/01/31 00:52:01.5	106.180	-0.530	-0.020	1.170
2020/01/31 00:52:01.6	106.180	-0.510	-0.060	1.200
2020/01/31 00:52:01.7	106.180	-0.480	-0.100	1.230
2020/01/31 00:52:01.8	106.180	-0.450	-0.150	1.250
2020/01/31 00:52:01.9	106.180	-0.420	-0.190	1.280
2020/01/31 00:52:02.0	106.190	-0.390	-0.220	1.300
2020/01/31 00:52:02.1	106.190	-0.360	-0.260	1.320
2020/01/31 00:52:02.2	106.200	-0.320	-0.290	1.330
2020/01/31 00:52:02.3	106.200	-0.290	-0.320	1.350
2020/01/31 00:52:02.4	106.210	-0.250	-0.340	1.360
2020/01/31 00:52:02.5	106.220	-0.220	-0.360	1.380
2020/01/31 00:52:02.6	106.220	-0.180	-0.380	1.390
2020/01/31 00:52:02.7	106.230	-0.150	-0.390	1.400
2020/01/31 00:52:02.8	106.240	-0.110	-0.400	1.410
2020/01/31 00:52:02.9	106.250	-0.080	-0.410	1.410
2020/01/31 00:52:03.0	106.240	-0.040	-0.410	1.420
2020/01/31 00:52:03.1	106.250	-0.010	-0.410	1.430
2020/01/31 00:52:03.2	106.260	0.020	-0.400	1.430
2020/01/31 00:52:03.3	106.260	0.060	-0.400	1.440
2020/01/31 00:52:03.4	106.270	0.090	-0.380	1.440
2020/01/31 00:52:03.5	106.280	0.120	-0.370	1.450
2020/01/31 00:52:03.6	106.280	0.150	-0.360	1.450
2020/01/31 00:52:03.7	106.280	0.170	-0.340	1.450
2020/01/31 00:52:03.8	106.290	0.200	-0.320	1.450
2020/01/31 00:52:03.9	106.290	0.220	-0.300	1.460
2020/01/31 00:52:04.0	106.280	0.250	-0.270	1.460
2020/01/31 00:52:04.1	106.280	0.270	-0.250	1.460
2020/01/31 00:52:04.2	106.280	0.290	-0.230	1.460
2020/01/31 00:52:04.3	106.280	0.310	-0.200	1.450
2020/01/31 00:52:04.4	106.280	0.330	-0.180	1.450
2020/01/31 00:52:04.5	106.280	0.340	-0.160	1.450
2020/01/31 00:52:04.6	106.280	0.360	-0.140	1.440
2020/01/31 00:52:04.7	106.270	0.370	-0.120	1.430
2020/01/31 00:52:04.8	106.270	0.380	-0.100	1.430
2020/01/31 00:52:04.9	106.260	0.400	-0.080	1.410
2020/01/31 00:52:05.0	106.260	0.400	-0.070	1.400
2020/01/31 00:52:05.1	106.250	0.410	-0.050	1.380
2020/01/31 00:52:05.2	106.250	0.420	-0.040	1.370
2020/01/31 00:52:05.3	106.240	0.420	-0.030	1.350
2020/01/31 00:52:05.4	106.240	0.430	-0.020	1.330
2020/01/31 00:52:05.5	106.230	0.430	-0.020	1.300
2020/01/31 00:52:05.6	106.230	0.430	-0.010	1.270
2020/01/31 00:52:05.7	106.220	0.430	-0.010	1.250
2020/01/31 00:52:05.8	106.220	0.430	-0.010	1.220
2020/01/31 00:52:05.9	106.210	0.430	-0.010	1.180
2020/01/31 00:52:06.0	106.220	0.430	-0.010	1.150
2020/01/31 00:52:06.1	106.210	0.420	-0.020	1.110
2020/01/31 00:52:06.2	106.210	0.420	-0.030	1.080
2020/01/31 00:52:06.3	106.200	0.410	-0.040	1.040
2020/01/31 00:52:06.4	106.190	0.400	-0.050	1.000
2020/01/31 00:52:06.5	106.190	0.390	-0.060	0.970
2020/01/31 00:52:06.6	106.180	0.390	-0.070	0.930
2020/01/31 00:52:06.7	106.170	0.380	-0.090	0.900
2020/01/31 00:52:06.8	106.160	0.370	-0.100	0.860
2020/01/31 00:52:06.9	106.150	0.360	-0.120	0.830
2020/01/31 00:52:07.0	106.140	0.350	-0.140	0.800
2020/01/31 00:52:07.1	106.130	0.340	-0.160	0.770
2020/01/31 00:52:07.2	106.110	0.330	-0.180	0.750
2020/01/31 00:52:07.3	106.100	0.320	-0.200	0.730
2020/01/31 00:52:07.4	106.090	0.310	-0.230	0.710
2020/01/31 00:52:07.5	106.070	0.300	-0.250	0.690
2020/01/31 00:52:07.6	106.060	0.290	-0.270	0.670
2020/01/31 00:52:07.7	106.040	0.280	-0.300	0.660
2020/01/31 00:52:07.8	106.030	0.280	-0.320	0.640
2020/01/31 00:52:07.9	106.010	0.270	-0.350	0.630
2020/01/31 00:52:08.0	105.990	0.260	-0.370	0.620
2020/01/31 00:52:08.1	105.980	0.250	-0.390	0.610
2020/01/31 00:52:08.2	105.970	0.240	-0.410	0.600
2020/01/31 00:52:08.3	105.960	0.240	-0.430	0.600
2020/01/31 00:52:08.4	105.950	0.230	-0.450	0.590
2020/01/31 00:52:08.5	105.940	0.220	-0.470	0.580
2020/01/31 00:52:08.6	105.940	0.210	-0.480	0.580
2020/01/31 00:52:08.7	105.940	0.200	-0.490	0.570
2020/01/31 00:52:08.8	105.940	0.190	-0.500	0.570
2020/01/31 00:52:08.9	105.940	0.180	-0.510	0.560
2020/01/31 00:52:09.0	105.940	0.170	-0.520	0.560
2020/01/31 00:52:09.1	105.940	0.160	-0.520	0.560
2020/01/31 00:52:09.2	105.950	0.140	-0.510	0.560
2020/01/31 00:52:09.3	105.960	0.130	-0.500	0.560
2020/01/31 00:52:09.4	105.970	0.110	-0.490	0.560
2020/01/31 00:52:09.5	105.980	0.100	-0.480	0.570
2020/01/31 00:52:09.6	105.990	0.080	-0.460	0.580
2020/01/31 00:52:09.7	106.000	0.060	-0.440	0.580
2020/01/31 00:52:09.8	106.010	0.040	-0.410	0.590
2020/01/31 00:52:09.9	106.030	0.020	-0.380	0.610
2020/01/31 00:52:10.0	106.040	-0.000	-0.340	0.620
2020/01/31 00:52:10.1	106.060	-0.020	-0.310	0.630
2020/01/31 00:52:10.2	106.070	-0.050	-0.270	0.650
2020/01/31 00:52:10.3	106.090	-0.070	-0.230	0.670
2020/01/31 00:52:10.4	106.100	-0.100	-0.190	0.690
2020/01/31 00:52:10.5	106.110	-0.130	-0.150	0.710
2020/01/31 00:52:10.6	106.130	-0.150	-0.100	0.730
2020/01/31 00:52:10.7	106.140	-0.180	-0.060	0.750
2020/01/31 00:52:10.8	106.150	-0.210	-0.010	0.770
2020/01/31 00:52:10.9	106.160	-0.240	0.030	0.800
2020/01/31 00:52:11.0	106.180	-0.270	0.080	0.830
2020/01/31 00:52:11.1	106.190	-0.290	0.120	0.850
2020/01/31 00:52:11.2	106.200	-0.320	0.160	0.880
2020/01/31 00:52:11.3	106.210	-0.350	0.200	0.900
2020/01/31 00:52:11.4	106.220	-0.380	0.240	0.930
2020/01/31 00:52:11.5	106.220	-0.400	0.270	0.960
2020/01/31 00:52:11.6	106.230	-0.430	0.300	0.980
2020/01/31 00:52:11.7	106.240	-0.450	0.330	1.010
2020/01/31 00:52:11.8	106.240	-0.470	0.360	1.030
2020/01/31 00:52:11.9	106.250	-0.490	0.380	1.060
2020/01/31 00:52:12.0	106.250	-0.510	0.400	1.080
2020/01/31 00:52:12.1	106.250	-0.530	0.410	1.110
2020/01/31 00:52:12.2	106.260	-0.550	0.420	1.130
2020/01/31 00:52:12.3	106.260	-0.560	0.430	1.150
2020/01/31 00:52:12.4	106.260	-0.570	0.430	1.170
2020/01/31 00:52:12.5	106.260	-0.580	0.430	1.190
2020/01/31 00:52:12.6	106.260	-0.590	0.420	1.210
2020/01/31 00:52:12.7	106.260	-0.600	0.410	1.230
2020/01/31 00:52:12.8	106.260	-0.600	0.390	1.250
2020/01/31 00:52:12.9	106.260	-0.600	0.380	1.260
2020/01/31 00:52:13.0	106.270	-0.600	0.350	1.280
2020/01/31 00:52:13.1	106.270	-0.600	0.330	1.290
2020/01/31 00:52:13.2	106.270	-0.590	0.300	1.310
2020/01/31 00:52:13.3	106.270	-0.580	0.270	1.320
2020/01/31 00:52:13.4	106.270	-0.580	0.240	1.340
2020/01/31 00:52:13.5	106.270	-0.560	0.200	1.350
2020/01/31 00:52:13.6	106.270	-0.550	0.160	1.370
2020/01/31 00:52:13.7	106.270	-0.530	0.130	1.380
2020/01/31 00:52:13.8	106.270	-0.520	0.090	1.390
2020/01/31 00:52:13.9	106.270	-0.500	0.040	1.400
2020/01/31 00:52:14.0	106.270	-0.480	0.000	1.410
2020/01/31 00:52:14.1	106.280	-0.450	-0.040	1.420
2020/01/31 00:52:14.2	106.280	-0.430	-0.090	1.420
2020/01/31 00:52:14.3	106.280	-0.400	-0.130	1.430
2020/01/31 00:52:14.4	106.280	-0.380	-0.180	1.440
2020/01/31 00:52:14.5	106.280	-0.350	-0.220	1.440
2020/01/31 00:52:14.6	106.280	-0.320	-0.260	1.440
2020/01/31 00:52:14.7	106.280	-0.290	-0.300	1.440
2020/01/31 00:52:14.8	106.280	-0.260	-0.350	1.440
2020/01/31 00:52:14.9	106.290	-0.230	-0.380	1.440
2020/01/31 00:52:15.0	106.290	-0.200	-0.430	1.430
2020/01/31 00:52:15.1	106.290	-0.170	-0.460	1.420
2020/01/31 00:52:15.2	106.290	-0.140	-0.500	1.410
2020/01/31 00:52:15.3	106.300	-0.110	-0.530	1.400
2020/01/31 00:52:15.4	106.300	-0.080	-0.560	1.390
2020/01/31 00:52:15.5	106.310	-0.050	-0.580	1.370
2020/01/31 00:52:15.6	106.320	-0.020	-0.600	1.350
2020/01/31 00:52:15.7	106.320	0.010	-0.620	1.330
2020/01/31 00:52:15.8	106.330	0.040	-0.640	1.310
2020/01/31 00:52:15.9	106.340	0.060	-0.650	1.290
2020/01/31 00:52:16.0	106.350	0.090	-0.650	1.260
2020/01/31 00:52:16.1	106.360	0.110	-0.660	1.240
2020/01/31 00:52:16.2	106.370	0.140	-0.660	1.220
2020/01/31 00:52:16.3	106.380	0.160	-0.660	1.200
2020/01/31 00:52:16.4	106.390	0.180	-0.650	1.180
2020/01/31 00:52:16.5	106.400	0.210	-0.650	1.160
2020/01/31 00:52:16.6	106.410	0.230	-0.630	1.140
2020/01/31 00:52:16.7	106.410	0.240	-0.620	1.120
2020/01/31 00:52:16.8	106.420	0.260	-0.600	1.100
2020/01/31 00:52:16.9	106.430	0.280	-0.580	1.080
2020/01/31 00:52:17.0	106.430	0.290	-0.560	1.060
2020/01/31 00:52:17.1	106.440	0.310	-0.540	1.040
2020/01/31 00:52:17.2	106.440	0.320	-0.510	1.030
2020/01/31 00:52:17.3	106.450	0.330	-0.480	1.010
2020/01/31 00:52:17.4	106.450	0.340	-0.450	0.990
2020/01/31 00:52:17.5	106.450	0.350	-0.410	0.980
2020/01/31 00:52:17.6	106.440	0.360	-0.380	0.970
2020/01/31 00:52:17.7	106.440	0.370	-0.350	0.950
2020/01/31 00:52:17.8	106.430	0.380	-0.310	0.940
2020/01/31 00:52:17.9	106.420	0.380	-0.270	0.920
2020/01/31 00:52:18.0	106.420	0.390	-0.230	0.910
2020/01/31 00:52:18.1	106.400	0.390	-0.200	0.900
2020/01/31 00:52:18.2	106.390	0.390	-0.160	0.890
2020/01/31 00:52:18.3	106.380	0.390	-0.130	0.870
2020/01/31 00:52:18.4	106.360	0.390	-0.090	0.850
2020/01/31 00:52:18.5	106.340	0.390	-0.060	0.840
2020/01/31 00:52:18.6	106.330	0.380	-0.030	0.820
2020/01/31 00:52:18.7	106.310	0.380	-0.000	0.800
2020/01/31 00:52:18.8	106.290	0.370	0.030	0.770
2020/01/31 00:52:18.9	106.280	0.360	0.050	0.750
2020/01/31 00:52:19.0	106.270	0.350	0.070	0.720
2020/01/31 00:52:19.1	106.250	0.340	0.090	0.690
2020/01/31 00:52:19.2	106.240	0.330	0.110	0.670
2020/01/31 00:52:19.3	106.220	0.320	0.120	0.640
2020/01/31 00:52:19.4	106.210	0.310	0.140	0.620
2020/01/31 00:52:19.5	106.190	0.300	0.150	0.590
2020/01/31 00:52:19.6	106.180	0.280	0.150	0.560
2020/01/31 00:52:19.7	106.170	0.260	0.160	0.530
2020/01/31 00:52:19.8	106.160	0.250	0.160	0.510
2020/01/31 00:52:19.9	106.150	0.230	0.160	0.490
2020/01/31 00:52:20.0	106.150	0.210	0.170	0.470
2020/01/31 00:52:20.1	106.140	0.190	0.170	0.440
2020/01/31 00:52:20.2	106.130	0.180	0.160	0.430
2020/01/31 00:52:20.3	106.130	0.160	0.160	0.410
2020/01/31 00:52:20.4	106.120	0.140	0.150	0.400
2020/01/31 00:52:20.5	106.120	0.120	0.140	0.390
2020/01/31 00:52:20.6	106.120	0.100	0.130	0.380
2020/01/31 00:52:20.7	106.120	0.080	0.120	0.370
2020/01/31 00:52:20.8	106.120	0.050	0.110	0.370
2020/01/31 00:52:20.9	106.120	0.030	0.100	0.370
2020/01/31 00:52:21.0	106.110	0.010	0.080	0.370
2020/01/31 00:52:21.1	106.110	-0.010	0.070	0.370
2020/01/31 00:52:21.2	106.120	-0.020	0.060	0.380
2020/01/31 00:52:21.3	106.120	-0.040	0.040	0.390
2020/01/31 00:52:21.4	106.130	-0.060	0.030	0.400
2020/01/31 00:52:21.5	106.140	-0.080	0.010	0.410
2020/01/31 00:52:21.6	106.140	-0.100	-0.000	0.430
2020/01/31 00:52:21.7	106.150	-0.110	-0.020	0.440
2020/01/31 00:52:21.8	106.170	-0.130	-0.040	0.460
2020/01/31 00:52:21.9	106.180	-0.140	-0.050	0.480
2020/01/31 00:52:22.0	106.190	-0.150	-0.070	0.500
2020/01/31 00:52:22.1	106.210	-0.160	-0.090	0.520
2020/01/31 00:52:22.2	106.220	-0.170	-0.100	0.540
2020/01/31 00:52:22.3	106.230	-0.180	-0.120	0.560
2020/01/31 00:52:22.4	106.250	-0.180	-0.140	0.580
2020/01/31 00:52:22.5	106.260	-0.190	-0.160	0.610
2020/01/31 00:52:22.6	106.270	-0.190	-0.180	0.630
2020/01/31 00:52:22.7	106.280	-0.190	-0.200	0.660
2020/01/31 00:52:22.8	106.290	-0.180	-0.220	0.680
2020/01/31 00:52:22.9	106.300	-0.180	-0.250	0.710
2020/01/31 00:52:23.0	106.310	-0.170	-0.270	0.730
2020/01/31 00:52:23.1	106.320	-0.160	-0.290	0.760
2020/01/31 00:52:23.2	106.320	-0.150	-0.320	0.790
2020/01/31 00:52:23.3	106.320	-0.140	-0.340	0.820
2020/01/31 00:52:23.4	106.330	-0.130	-0.370	0.840
2020/01/31 00:52:23.5	106.320	-0.110	-0.400	0.870
2020/01/31 00:52:23.6	106.320	-0.090	-0.420	0.900
2020/01/31 00:52:23.7	106.320	-0.070	-0.450	0.920
2020/01/31 00:52:23.8	106.320	-0.050	-0.470	0.950
2020/01/31 00:52:23.9	106.310	-0.030	-0.490	0.970
2020/01/31 00:52:24.0	106.310	-0.010	-0.520	0.990
2020/01/31 00:52:24.1	106.300	0.010	-0.540	1.010
2020/01/31 00:52:24.2	106.290	0.030	-0.560	1.030
2020/01/31 00:52:24.3	106.280	0.050	-0.570	1.050
2020/01/31 00:52:24.4	106.280	0.080	-0.580	1.070
2020/01/31 00:52:24.5	106.270	0.100	-0.590	1.080
2020/01/31 00:52:24.6	106.260	0.120	-0.600	1.100
2020/01/31 00:52:24.7	106.250	0.140	-0.600	1.110
2020/01/31 00:52:24.8	106.250	0.150	-0.600	1.120
2020/01/31 00:52:24.9	106.240	0.170	-0.590	1.130
2020/01/31 00:52:25.0	106.240	0.180	-0.580	1.140
2020/01/31 00:52:25.1	106.230	0.190	-0.560	1.150
2020/01/31 00:52:25.2	106.230	0.200	-0.540	1.160
2020/01/31 00:52:25.3	106.230	0.210	-0.510	1.170
2020/01/31 00:52:25.4	106.220	0.220	-0.480	1.170
2020/01/31 00:52:25.5	106.220	0.220	-0.450	1.180
2020/01/31 00:52:25.6	106.220	0.220	-0.410	1.190
2020/01/31 00:52:25.7	106.220	0.220	-0.360	1.200
2020/01/31 00:52:25.8	106.230	0.210	-0.310	1.210
2020/01/31 00:52:25.9	106.230	0.210	-0.260	1.220
2020/01/31 00:52:26.0	106.230	0.200	-0.210	1.230
2020/01/31 00:52:26.1	106.230	0.180	-0.160	1.240
2020/01/31 00:52:26.2	106.230	0.170	-0.100	1.250
2020/01/31 00:52:26.3	106.230	0.160	-0.040	1.270
2020/01/31 00:52:26.4	106.230	0.140	0.010	1.280
2020/01/31 00:52:26.5	106.240	0.120	0.070	1.290
2020/01/31 00:52:26.6	106.240	0.100	0.120	1.300
2020/01/31 00:52:26.7	106.240	0.080	0.180	1.320
2020/01/31 00:52:26.8	106.240	0.060	0.230	1.330
2020/01/31 00:52:26.9	106.240	0.040	0.280	1.340
2020/01/31 00:52:27.0	106.230	0.020	0.320	1.350
2020/01/31 00:52:27.1	106.230	-0.000	0.370	1.360
2020/01/31 00:52:27.2	106.230	-0.020	0.400	1.370
2020/01/31 00:52:27.3	106.230	-0.040	0.430	1.370
2020/01/31 00:52:27.4	106.230	-0.060	0.460	1.370
2020/01/31 00:52:27.5	106.230	-0.080	0.470	1.370
2020/01/31 00:52:27.6	106.240	-0.100	0.490	1.370
2020/01/31 00:52:27.7	106.240	-0.120	0.490	1.370
2020/01/31 00:52:27.8	106.240	-0.130	0.490	1.360
2020/01/31 00:52:27.9	106.240	-0.140	0.490	1.340
2020/01/31 00:52:28.0	106.240	-0.150	0.480	1.320
2020/01/31 00:52:28.1	106.240	-0.160	0.460	1.300
2020/01/31 00:52:28.2	106.250	-0.170	0.440	1.280
2020/01/31 00:52:28.3	106.260	-0.180	0.410	1.260
2020/01/31 00:52:28.4	106.260	-0.180	0.370	1.230
2020/01/31 00:52:28.5	106.270	-0.190	0.330	1.200
2020/01/31 00:52:28.6	106.280	-0.190	0.290	1.160
2020/01/31 00:52:28.7	106.290	-0.190	0.240	1.130
2020/01/31 00:52:28.8	106.300	-0.190	0.190	1.090
2020/01/31 00:52:28.9	106.320	-0.190	0.140	1.050
2020/01/31 00:52:29.0	106.340	-0.180	0.080	1.010
2020/01/31 00:52:29.1	106.350	-0.180	0.020	0.970
2020/01/31 00:52:29.2	106.360	-0.170	-0.040	0.930
2020/01/31 00:52:29.3	106.380	-0.160	-0.100	0.890
2020/01/31 00:52:29.4	106.400	-0.160	-0.160	0.850
2020/01/31 00:52:29.5	106.410	-0.150	-0.220	0.810
2020/01/31 00:52:29.6	106.430	-0.140	-0.280	0.770
2020/01/31 00:52:29.7	106.450	-0.130	-0.340	0.730
2020/01/31 00:52:29.8	106.460	-0.120	-0.390	0.700
2020/01/31 00:52:29.9	106.480	-0.120	-0.440	0.660
2020/01/31 00:52:30.0	106.500	-0.110	-0.500	0.620
2020/01/31 00:52:30.1	106.510	-0.100	-0.550	0.590
2020/01/31 00:52:30.2	106.530	-0.090	-0.590	0.570
2020/01/31 00:52:30.3	106.540	-0.090	-0.630	0.550
2020/01/31 00:52:30.4	106.550	-0.080	-0.670	0.530
2020/01/31 00:52:30.5	106.570	-0.080	-0.700	0.520
2020/01/31 00:52:30.6	106.580	-0.070	-0.720	0.510
2020/01/31 00:52:30.7	106.590	-0.070	-0.740	0.500
2020/01/31 00:52:30.8	106.600	-0.070	-0.760	0.500
2020/01/31 00:52:30.9	106.610	-0.070	-0.770	0.500
2020/01/31 00:52:31.0	106.610	-0.070	-0.770	0.500
2020/01/31 00:52:31.1	106.620	-0.080	-0.770	0.510
2020/01/31 00:52:31.2	106.620	-0.080	-0.760	0.520
2020/01/31 00:52:31.3	106.630	-0.090	-0.740	0.530
2020/01/31 00:52:31.4	106.630	-0.100	-0.720	0.550
2020/01/31 00:52:31.5	106.630	-0.110	-0.700	0.570
2020/01/31 00:52:31.6	106.630	-0.120	-0.670	0.590
2020/01/31 00:52:31.7	106.630	-0.130	-0.630	0.620
2020/01/31 00:52:31.8	106.630	-0.140	-0.590	0.640
2020/01/31 00:52:31.9	106.620	-0.150	-0.550	0.670
2020/01/31 00:52:32.0	106.620	-0.160	-0.500	0.700
2020/01/31 00:52:32.1	106.610	-0.180	-0.450	0.740
2020/01/31 00:52:32.2	106.600	-0.190	-0.390	0.770
2020/01/31 00:52:32.3	106.590	-0.200	-0.340	0.800
2020/01/31 00:52:32.4	106.580	-0.220	-0.280	0.830
2020/01/31 00:52:32.5	106.560	-0.230	-0.220	0.870
2020/01/31 00:52:32.6	106.540	-0.240	-0.170	0.900
2020/01/31 00:52:32.7	106.520	-0.250	-0.110	0.930
2020/01/31 00:52:32.8	106.500	-0.260	-0.060	0.970
2020/01/31 00:52:32.9	106.470	-0.270	-0.000	1.000
2020/01/31 00:52:33.0	106.440	-0.270	0.050	1.030
2020/01/31 00:52:33.1	106.410	-0.280	0.100	1.050
2020/01/31 00:52:33.2	106.390	-0.280	0.150	1.080
2020/01/31 00:52:33.3	106.360	-0.280	0.190	1.110
2020/01/31 00:52:33.4	106.330	-0.270	0.220	1.130
2020/01/31 00:52:33.5	106.310	-0.270	0.250	1.150
2020/01/31 00:52:33.6	106.280	-0.260	0.280	1.170
2020/01/31 00:52:33.7	106.260	-0.250	0.300	1.180
2020/01/31 00:52:33.8	106.230	-0.240	0.320	1.190
2020/01/31 00:52:33.9	106.210	-0.230	0.330	1.190
2020/01/31 00:52:34.0	106.200	-0.210	0.340	1.190
2020/01/31 00:52:34.1	106.180	-0.190	0.340	1.180
2020/01/31 00:52:34.2	106.170	-0.170	0.340	1.170
2020/01/31 00:52:34.3	106.160	-0.150	0.330	1.160
2020/01/31 00:52:34.4	106.150	-0.130	0.320	1.140
2020/01/31 00:52:34.5	106.150	-0.100	0.310	1.110
2020/01/31 00:52:34.6	106.150	-0.080	0.290	1.080
2020/01/31 00:52:34.7	106.150	-0.050	0.270	1.050
2020/01/31 00:52:34.8	106.150	-0.020	0.240	1.020
2020/01/31 00:52:34.9	106.160	0.010	0.210	0.980
2020/01/31 00:52:35.0	106.180	0.040	0.180	0.940
2020/01/31 00:52:35.1	106.190	0.070	0.150	0.900
2020/01/31 00:52:35.2	106.210	0.100	0.110	0.860
2020/01/31 00:52:35.3	106.230	0.130	0.080	0.820
2020/01/31 00:52:35.4	106.250	0.150	0.040	0.780
2020/01/31 00:52:35.5	106.270	0.180	0.010	0.740
2020/01/31 00:52:35.6	106.290	0.210	-0.030	0.700
2020/01/31 00:52:35.7	106.320	0.230	-0.060	0.660
2020/01/31 00:52:35.8	106.340	0.250	-0.100	0.620
2020/01/31 00:52:35.9	106.370	0.270	-0.130	0.580
2020/01/31 00:52:36.0	106.390	0.290	-0.160	0.540
2020/01/31 00:52:36.1	106.420	0.310	-0.190	0.500
2020/01/31 00:52:36.2	106.450	0.330	-0.220	0.470
2020/01/31 00:52:36.3	106.480	0.340	-0.250	0.440
2020/01/31 00:52:36.4	106.500	0.350	-0.280	0.410
2020/01/31 00:52:36.5	106.530	0.360	-0.300	0.380
2020/01/31 00:52:36.6	106.550	0.370	-0.320	0.360
2020/01/31 00:52:36.7	106.580	0.380	-0.340	0.340
2020/01/31 00:52:36.8	106.600	0.380	-0.360	0.320
2020/01/31 00:52:36.9	106.620	0.380	-0.380	0.300
2020/01/31 00:52:37.0	106.630	0.380	-0.390	0.290
2020/01/31 00:52:37.1	106.650	0.380	-0.410	0.280
2020/01/31 00:52:37.2	106.660	0.380	-0.420	0.270
2020/01/31 00:52:37.3	106.670	0.370	-0.430	0.260
2020/01/31 00:52:37.4	106.680	0.370	-0.440	0.250
2020/01/31 00:52:37.5	106.680	0.360	-0.440	0.250
2020/01/31 00:52:37.6	106.680	0.350	-0.450	0.250
2020/01/31 00:52:37.7	106.690	0.340	-0.450	0.240
2020/01/31 00:52:37.8	106.680	0.330	-0.450	0.250
2020/01/31 00:52:37.9	106.680	0.320	-0.460	0.250
2020/01/31 00:52:38.0	106.680	0.310	-0.450	0.250
2020/01/31 00:52:38.1	106.670	0.300	-0.450	0.260
2020/01/31 00:52:38.2	106.660	0.290	-0.450	0.260
2020/01/31 00:52:38.3	106.650	0.270	-0.450	0.270
2020/01/31 00:52:38.4	106.640	0.260	-0.440	0.280
2020/01/31 00:52:38.5	106.630	0.240	-0.440	0.290
2020/01/31 00:52:38.6	106.610	0.230	-0.430	0.300
2020/01/31 00:52:38.7	106.600	0.210	-0.420	0.310
2020/01/31 00:52:38.8	106.580	0.200	-0.410	0.330
2020/01/31 00:52:38.9	106.560	0.180	-0.410	0.340
2020/01/31 00:52:39.0	106.540	0.170	-0.390	0.360
2020/01/31 00:52:39.1	106.510	0.150	-0.380	0.380
2020/01/31 00:52:39.2	106.490	0.140	-0.370	0.400
2020/01/31 00:52:39.3	106.470	0.120	-0.360	0.430
2020/01/31 00:52:39.4	106.450	0.110	-0.340	0.450
2020/01/31 00:52:39.5	106.420	0.100	-0.330	0.480
2020/01/31 00:52:39.6	106.400	0.080	-0.310	0.510
2020/01/31 00:52:39.7	106.370	0.070	-0.300	0.550
2020/01/31 00:52:39.8	106.340	0.050	-0.280	0.590
2020/01/31 00:52:39.9	106.310	0.040	-0.260	0.620
2020/01/31 00:52:40.0	106.300	0.030	-0.240	0.660
2020/01/31 00:52:40.1	106.270	0.010	-0.220	0.710
2020/01/31 00:52:40.2	106.240	0.000	-0.210	0.760
2020/01/31 00:52:40.3	106.210	-0.010	-0.190	0.800
2020/01/31 00:52:40.4	106.190	-0.020	-0.170	0.860
2020/01/31 00:52:40.5	106.160	-0.030	-0.140	0.910
2020/01/31 00:52:40.6	106.130	-0.040	-0.120	0.960
2020/01/31 00:52:40.7	106.110	-0.050	-0.100	1.020
2020/01/31 00:52:40.8	106.090	-0.060	-0.080	1.070
2020/01/31 00:52:40.9	106.060	-0.070	-0.060	1.130
2020/01/31 00:52:41.0	106.040	-0.080	-0.030	1.180
2020/01/31 00:52:41.1	106.020	-0.090	-0.010	1.240
2020/01/31 00:52:41.2	106.010	-0.100	0.010	1.290
2020/01/31 00:52:41.3	105.990	-0.110	0.030	1.340
2020/01/31 00:52:41.4	105.980	-0.120	0.060	1.390
2020/01/31 00:52:41.5	105.980	-0.130	0.080	1.440
2020/01/31 00:52:41.6	105.970	-0.140	0.100	1.490
2020/01/31 00:52:41.7	105.970	-0.150	0.120	1.530
2020/01/31 00:52:41.8	105.970	-0.150	0.140	1.570
2020/01/31 00:52:41.9	105.970	-0.160	0.160	1.600
2020/01/31 00:52:42.0	105.970	-0.170	0.180	1.630
2020/01/31 00:52:42.1	105.970	-0.180	0.200	1.660
2020/01/31 00:52:42.2	105.980	-0.190	0.220	1.680
2020/01/31 00:52:42.3	105.990	-0.200	0.230	1.700
2020/01/31 00:52:42.4	106.000	-0.200	0.250	1.720
2020/01/31 00:52:42.5	106.010	-0.210	0.260	1.730
2020/01/31 00:52:42.6	106.030	-0.220	0.270	1.730
2020/01/31 00:52:42.7	106.040	-0.230	0.280	1.740
2020/01/31 00:52:42.8	106.060	-0.230	0.280	1.730
2020/01/31 00:52:42.9	106.080	-0.240	0.290	1.730
2020/01/31 00:52:43.0	106.080	-0.240	0.290	1.710
2020/01/31 00:52:43.1	106.100	-0.250	0.290	1.700
2020/01/31 00:52:43.2	106.130	-0.250	0.280	1.680
2020/01/31 00:52:43.3	106.150	-0.260	0.280	1.650
2020/01/31 00:52:43.4	106.170	-0.260	0.270	1.630
2020/01/31 00:52:43.5	106.190	-0.260	0.260	1.600
2020/01/31 00:52:43.6	106.220	-0.260	0.240	1.560
2020/01/31 00:52:43.7	106.240	-0.260	0.230	1.530
2020/01/31 00:52:43.8	106.270	-0.260	0.210	1.490
2020/01/31 00:52:43.9	106.290	-0.260	0.180	1.450
2020/01/31 00:52:44.0	106.320	-0.250	0.160	1.410
2020/01/31 00:52:44.1	106.350	-0.250	0.130	1.360
2020/01/31 00:52:44.2	106.370	-0.240	0.100	1.320
2020/01/31 00:52:44.3	106.400	-0.230	0.070	1.270
2020/01/31 00:52:44.4	106.420	-0.220	0.030	1.230
2020/01/31 00:52:44.5	106.440	-0.210	-0.010	1.180
2020/01/31 00:52:44.6	106.460	-0.190	-0.050	1.140
2020/01/31 00:52:44.7	106.480	-0.180	-0.090	1.090
2020/01/31 00:52:44.8	106.490	-0.160	-0.130	1.050
2020/01/31 00:52:44.9	106.510	-0.140	-0.180	1.010
2020/01/31 00:52:45.0	106.520	-0.120	-0.230	0.970
2020/01/31 00:52:45.1	106.530	-0.100	-0.270	0.940
2020/01/31 00:52:45.2	106.530	-0.070	-0.320	0.910
2020/01/31 00:52:45.3	106.540	-0.050	-0.370	0.880
2020/01/31 00:52:45.4	106.540	-0.020	-0.410	0.850
2020/01/31 00:52:45.5	106.540	0.000	-0.460	0.830
2020/01/31 00:52:45.6	106.540	0.030	-0.510	0.810
2020/01/31 00:52:45.7	106.530	0.050	-0.550	0.790
2020/01/31 00:52:45.8	106.530	0.080	-0.590	0.780
2020/01/31 00:52:45.9	106.520	0.100	-0.630	0.770
2020/01/31 00:52:46.0	106.510	0.130	-0.670	0.760
2020/01/31 00:52:46.1	106.500	0.150	-0.710	0.760
2020/01/31 00:52:46.2	106.480	0.180	-0.740	0.760
2020/01/31 00:52:46.3	106.460	0.200	-0.770	0.760
2020/01/31 00:52:46.4	106.440	0.220	-0.800	0.770
2020/01/31 00:52:46.5	106.420	0.240	-0.830	0.780
2020/01/31 00:52:46.6	106.390	0.260	-0.850	0.790
2020/01/31 00:52:46.7	106.370	0.270	-0.870	0.800
2020/01/31 00:52:46.8	106.340	0.290	-0.880	0.820
2020/01/31 00:52:46.9	106.310	0.300	-0.890	0.840
2020/01/31 00:52:47.0	106.280	0.310	-0.890	0.860
2020/01/31 00:52:47.1	106.250	0.310	-0.890	0.880
2020/01/31 00:52:47.2	106.220	0.320	-0.890	0.900
2020/01/31 00:52:47.3	106.190	0.320	-0.880	0.920
2020/01/31 00:52:47.4	106.160	0.320	-0.860	0.940
2020/01/31 00:52:47.5	106.130	0.310	-0.840	0.960
2020/01/31 00:52:47.6	106.100	0.300	-0.820	0.990
2020/01/31 00:52:47.7	106.070	0.290	-0.790	1.000
2020/01/31 00:52:47.8	106.040	0.280	-0.750	1.020
2020/01/31 00:52:47.9	106.020	0.260	-0.710	1.040
2020/01/31 00:52:48.0	105.990	0.240	-0.660	1.050
2020/01/31 00:52:48.1	105.970	0.220	-0.610	1.060
2020/01/31 00:52:48.2	105.950	0.200	-0.560	1.070
2020/01/31 00:52:48.3	105.930	0.170	-0.500	1.080
2020/01/31 00:52:48.4	105.920	0.140	-0.440	1.080
2020/01/31 00:52:48.5	105.900	0.110	-0.370	1.080
2020/01/31 00:52:48.6	105.890	0.070	-0.300	1.070
2020/01/31 00:52:48.7	105.880	0.040	-0.220	1.060
2020/01/31 00:52:48.8	105.870	-0.000	-0.150	1.050
2020/01/31 00:52:48.9	105.870	-0.040	-0.070	1.030
2020/01/31 00:52:49.0	105.860	-0.080	0.020	1.010
2020/01/31 00:52:49.1	105.860	-0.110	0.100	0.980
2020/01/31 00:52:49.2	105.870	-0.150	0.180	0.960
2020/01/31 00:52:49.3	105.870	-0.190	0.260	0.930
2020/01/31 00:52:49.4	105.880	-0.230	0.340	0.900
2020/01/31 00:52:49.5	105.890	-0.270	0.420	0.860
2020/01/31 00:52:49.6	105.900	-0.300	0.490	0.830
2020/01/31 00:52:49.7	105.910	-0.340	0.570	0.790
2020/01/31 00:52:49.8	105.920	-0.370	0.640	0.750
2020/01/31 00:52:49.9	105.940	-0.400	0.700	0.710
2020/01/31 00:52:50.0	105.960	-0.430	0.770	0.680
2020/01/31 00:52:50.1	105.980	-0.460	0.820	0.640
2020/01/31 00:52:50.2	105.990	-0.480	0.870	0.600
2020/01/31 00:52:50.3	106.010	-0.500	0.920	0.560
2020/01/31 00:52:50.4	106.030	-0.520	0.960	0.530
2020/01/31 00:52:50.5	106.040	-0.530	0.990	0.490
2020/01/31 00:52:50.6	106.060	-0.540	1.010	0.460
2020/01/31 00:52:50.7	106.070	-0.550	1.030	0.420
2020/01/31 00:52:50.8	106.080	-0.550	1.040	0.390
2020/01/31 00:52:50.9	106.090	-0.550	1.040	0.360
2020/01/31 00:52:51.0	106.110	-0.550	1.030	0.330
2020/01/31 00:52:51.1	106.110	-0.540	1.010	0.300
2020/01/31 00:52:51.2	106.120	-0.530	0.990	0.280
2020/01/31 00:52:51.3	106.130	-0.520	0.950	0.260
2020/01/31 00:52:51.4	106.130	-0.500	0.910	0.240
2020/01/31 00:52:51.5	106.130	-0.480	0.870	0.220
2020/01/31 00:52:51.6	106.130	-0.450	0.810	0.200
2020/01/31 00:52:51.7	106.130	-0.430	0.750	0.180
2020/01/31 00:52:51.8	106.130	-0.400	0.680	0.170
2020/01/31 00:52:51.9	106.130	-0.360	0.600	0.160
2020/01/31 00:52:52.0	106.140	-0.330	0.520	0.140
2020/01/31 00:52:52.1	106.130	-0.290	0.430	0.130
2020/01/31 00:52:52.2	106.130	-0.250	0.340	0.120
2020/01/31 00:52:52.3	106.120	-0.210	0.250	0.120
2020/01/31 00:52:52.4	106.120	-0.170	0.150	0.110
2020/01/31 00:52:52.5	106.110	-0.130	0.040	0.100
2020/01/31 00:52:52.6	106.110	-0.080	-0.060	0.100
2020/01/31 00:52:52.7	106.100	-0.040	-0.170	0.100
2020/01/31 00:52:52.8	106.090	0.010	-0.280	0.090
2020/01/31 00:52:52.9	106.090	0.050	-0.390	0.090
2020/01/31 00:52:53.0	106.090	0.100	-0.510	0.090
2020/01/31 00:52:53.1	106.080	0.150	-0.620	0.090
2020/01/31 00:52:53.2	106.080	0.190	-0.720	0.090
2020/01/31 00:52:53.3	106.070	0.230	-0.830	0.090
2020/01/31 00:52:53.4	106.070	0.280	-0.930	0.090
2020/01/31 00:52:53.5	106.070	0.320	-1.030	0.090
2020/01/31 00:52:53.6	106.070	0.360	-1.130	0.090
2020/01/31 00:52:53.7	106.070	0.400	-1.220	0.100
2020/01/31 00:52:53.8	106.070	0.440	-1.300	0.100
2020/01/31 00:52:53.9	106.070	0.480	-1.380	0.110
2020/01/31 00:52:54.0	106.080	0.510	-1.450	0.120
2020/01/31 00:52:54.1	106.080	0.540	-1.510	0.120
2020/01/31 00:52:54.2	106.090	0.570	-1.560	0.130
2020/01/31 00:52:54.3	106.090	0.590	-1.600	0.150
2020/01/31 00:52:54.4	106.100	0.620	-1.640	0.160
2020/01/31 00:52:54.5	106.100	0.640	-1.660	0.170
2020/01/31 00:52:54.6	106.110	0.650	-1.670	0.190
2020/01/31 00:52:54.7	106.120	0.670	-1.670	0.210
2020/01/31 00:52:54.8	106.130	0.680	-1.660	0.220
2020/01/31 00:52:54.9	106.140	0.680	-1.640	0.240
2020/01/31 00:52:55.0	106.140	0.680	-1.610	0.270
2020/01/31 00:52:55.1	106.150	0.680	-1.570	0.290
2020/01/31 00:52:55.2	106.160	0.680	-1.510	0.310
2020/01/31 00:52:55.3	106.180	0.670	-1.450	0.340
2020/01/31 00:52:55.4	106.190	0.650	-1.380	0.370
2020/01/31 00:52:55.5	106.200	0.640	-1.300	0.400
2020/01/31 00:52:55.6	106.210	0.620	-1.220	0.430
2020/01/31 00:52:55.7	106.230	0.600	-1.130	0.470
2020/01/31 00:52:55.8	106.240	0.570	-1.030	0.510
2020/01/31 00:52:55.9	106.250	0.540	-0.920	0.540
2020/01/31 00:52:56.0	106.260	0.510	-0.810	0.580
2020/01/31 00:52:56.1	106.280	0.480	-0.700	0.620
2020/01/31 00:52:56.2	106.290	0.440	-0.580	0.670
2020/01/31 00:52:56.3	106.300	0.410	-0.470	0.720
2020/01/31 00:52:56.4	106.300	0.370	-0.350	0.760
2020/01/31 00:52:56.5	106.310	0.330	-0.240	0.810
2020/01/31 00:52:56.6	106.320	0.290	-0.120	0.860
2020/01/31 00:52:56.7	106.320	0.240	-0.010	0.910
2020/01/31 00:52:56.8	106.330	0.200	0.100	0.960
2020/01/31 00:52:56.9	106.330	0.160	0.200	1.010
2020/01/31 00:52:57.0	106.330	0.120	0.310	1.060
2020/01/31 00:52:57.1	106.330	0.080	0.400	1.110
2020/01/31 00:52:57.2	106.330	0.040	0.490	1.160
2020/01/31 00:52:57.3	106.320	-0.000	0.570	1.200
2020/01/31 00:52:57.4	106.320	-0.040	0.650	1.240
2020/01/31 00:52:57.5	106.310	-0.080	0.720	1.290
2020/01/31 00:52:57.6	106.310	-0.120	0.780	1.320
2020/01/31 00:52:57.7	106.300	-0.150	0.840	1.360
2020/01/31 00:52:57.8	106.290	-0.180	0.890	1.390
2020/01/31 00:52:57.9	106.290	-0.210	0.930	1.420
2020/01/31 00:52:58.0	106.280	-0.240	0.960	1.440
2020/01/31 00:52:58.1	106.270	-0.270	0.990	1.470
2020/01/31 00:52:58.2	106.270	-0.290	1.010	1.490
2020/01/31 00:52:58.3	106.260	-0.310	1.030	1.510
2020/01/31 00:52:58.4	106.250	-0.330	1.030	1.520
2020/01/31 00:52:58.5	106.240	-0.350	1.030	1.540
2020/01/31 00:52:58.6	106.230	-0.370	1.030	1.550
2020/01/31 00:52:58.7	106.220	-0.380	1.020	1.570
2020/01/31 00:52:58.8	106.200	-0.390	1.000	1.580
2020/01/31 00:52:58.9	106.190	-0.400	0.970	1.590
2020/01/31 00:52:59.0	106.180	-0.410	0.950	1.600
2020/01/31 00:52:59.1	106.170	-0.420	0.910	1.610
2020/01/31 00:52:59.2	106.160	-0.420	0.870	1.620
2020/01/31 00:52:59.3	106.150	-0.420	0.830	1.630
2020/01/31 00:52:59.4	106.130	-0.420	0.780	1.640
2020/01/31 00:52:59.5	106.120	-0.420	0.730	1.650
2020/01/31 00:52:59.6	106.110	-0.420	0.680	1.660
2020/01/31 00:52:59.7	106.100	-0.420	0.620	1.670
2020/01/31 00:52:59.8	106.080	-0.410	0.570	1.680
2020/01/31 00:52:59.9	106.070	-0.410	0.500	1.690
2020/01/31 00:53:00.0	106.070	-0.400	0.440	1.690
2020/01/31 00:53:00.1	106.060	-0.390	0.370	1.700
2020/01/31 00:53:00.2	106.050	-0.380	0.310	1.710
2020/01/31 00:53:00.3	106.050	-0.370	0.240	1.720
2020/01/31 00:53:00.4	106.040	-0.360	0.180	1.730
2020/01/31 00:53:00.5	106.040	-0.350	0.110	1.740
2020/01/31 00:53:00.6	106.040	-0.340	0.040	1.740
2020/01/31 00:53:00.7	106.040	-0.330	-0.020	1.750
2020/01/31 00:53:00.8	106.040	-0.320	-0.080	1.750
2020/01/31 00:53:00.9	106.040	-0.300	-0.150	1.750
2020/01/31 00:53:01.0	106.030	-0.290	-0.210	1.740
2020/01/31 00:53:01.1	106.040	-0.270	-0.270	1.740
2020/01/31 00:53:01.2	106.050	-0.260	-0.320	1.730
2020/01/31 00:53:01.3	106.050	-0.240	-0.380	1.710
2020/01/31 00:53:01.4	106.060	-0.230	-0.420	1.700
2020/01/31 00:53:01.5	106.070	-0.210	-0.470	1.680
2020/01/31 00:53:01.6	106.080	-0.200	-0.510	1.660
2020/01/31 00:53:01.7	106.090	-0.180	-0.540	1.630
2020/01/31 00:53:01.8	106.100	-0.170	-0.580	1.600
2020/01/31 00:53:01.9	106.120	-0.150	-0.610	1.570
2020/01/31 00:53:02.0	106.100	-0.140	-0.630	1.530
2020/01/31 00:53:02.1	106.120	-0.120	-0.650	1.490
2020/01/31 00:53:02.2	106.130	-0.100	-0.660	1.450
2020/01/31 00:53:02.3	106.140	-0.090	-0.670	1.410
2020/01/31 00:53:02.4	106.150	-0.070	-0.680	1.360
2020/01/31 00:53:02.5	106.160	-0.050	-0.680	1.310
2020/01/31 00:53:02.6	106.170	-0.040	-0.680	1.260
2020/01/31 00:53:02.7	106.180	-0.020	-0.670	1.210
2020/01/31 00:53:02.8	106.190	-0.010	-0.660	1.160
2020/01/31 00:53:02.9	106.190	0.010	-0.650	1.110
2020/01/31 00:53:03.0	106.200	0.020	-0.630	1.050
2020/01/31 00:53:03.1	106.210	0.040	-0.610	1.000
2020/01/31 00:53:03.2	106.220	0.050	-0.590	0.950
2020/01/31 00:53:03.3	106.230	0.070	-0.560	0.890
2020/01/31 00:53:03.4	106.230	0.080	-0.540	0.840
2020/01/31 00:53:03.5	106.240	0.100	-0.510	0.790
2020/01/31 00:53:03.6	106.240	0.110	-0.490	0.740
2020/01/31 00:53:03.7	106.250	0.120	-0.460	0.680
2020/01/31 00:53:03.8	106.260	0.130	-0.430	0.630
2020/01/31 00:53:03.9	106.260	0.140	-0.410	0.580
2020/01/31 00:53:04.0	106.280	0.160	-0.390	0.540
2020/01/31 00:53:04.1	106.290	0.170	-0.370	0.490
2020/01/31 00:53:04.2	106.290	0.180	-0.340	0.450
2020/01/31 00:53:04.3	106.300	0.190	-0.330	0.400
2020/01/31 00:53:04.4	106.300	0.200	-0.310	0.360
2020/01/31 00:53:04.5	106.300	0.200	-0.300	0.320
2020/01/31 00:53:04.6	106.300	0.210	-0.290	0.290
2020/01/31 00:53:04.7	106.300	0.220	-0.280	0.260
2020/01/31 00:53:04.8	106.300	0.230	-0.280	0.220
2020/01/31 00:53:04.9	106.290	0.240	-0.280	0.200
2020/01/31 00:53:05.0	106.280	0.240	-0.280	0.170
2020/01/31 00:53:05.1	106.270	0.250	-0.290	0.150
2020/01/31 00:53:05.2	106.260	0.260	-0.300	0.130
2020/01/31 00:53:05.3	106.240	0.260	-0.310	0.110
2020/01/31 00:53:05.4	106.230	0.270	-0.320	0.090
2020/01/31 00:53:05.5	106.210	0.270	-0.340	0.080
2020/01/31 00:53:05.6	106.190	0.280	-0.360	0.070
2020/01/31 00:53:05.7	106.170	0.280	-0.380	0.060
2020/01/31 00:53:05.8	106.150	0.280	-0.400	0.050
2020/01/31 00:53:05.9	106.130	0.290	-0.420	0.040
2020/01/31 00:53:06.0	106.100	0.290	-0.440	0.040
2020/01/31 00:53:06.1	106.080	0.290	-0.460	0.040
2020/01/31 00:53:06.2	106.060	0.280	-0.480	0.040
2020/01/31 00:53:06.3	106.040	0.280	-0.500	0.040
2020/01/31 00:53:06.4	106.020	0.280	-0.520	0.040
2020/01/31 00:53:06.5	106.000	0.270	-0.530	0.050
2020/01/31 00:53:06.6	105.990	0.270	-0.540	0.050
2020/01/31 00:53:06.7	105.980	0.260	-0.550	0.060
2020/01/31 00:53:06.8	105.960	0.250	-0.560	0.080
2020/01/31 00:53:06.9	105.950	0.240	-0.560	0.090
2020/01/31 00:53:07.0	105.940	0.230	-0.560	0.100
2020/01/31 00:53:07.1	105.940	0.210	-0.560	0.120
2020/01/31 00:53:07.2	105.930	0.200	-0.550	0.140
2020/01/31 00:53:07.3	105.930	0.180	-0.540	0.160
2020/01/31 00:53:07.4	105.930	0.170	-0.530	0.190
2020/01/31 00:53:07.5	105.930	0.150	-0.510	0.210
2020/01/31 00:53:07.6	105.930	0.130	-0.490	0.240
2020/01/31 00:53:07.7	105.940	0.110	-0.470	0.270
2020/01/31 00:53:07.8	105.940	0.100	-0.440	0.300
2020/01/31 00:53:07.9	105.950	0.080	-0.410	0.320
2020/01/31 00:53:08.0	105.950	0.060	-0.380	0.360
2020/01/31 00:53:08.1	105.960	0.040	-0.340	0.390
2020/01/31 00:53:08.2	105.970	0.020	-0.300	0.420
2020/01/31 00:53:08.3	105.980	0.000	-0.260	0.450
2020/01/31 00:53:08.4	105.990	-0.020	-0.220	0.470
2020/01/31 00:53:08.5	106.010	-0.030	-0.170	0.500
2020/01/31 00:53:08.6	106.020	-0.050	-0.120	0.530
2020/01/31 00:53:08.7	106.030	-0.070	-0.070	0.550
2020/01/31 00:53:08.8	106.050	-0.090	-0.020	0.580
2020/01/31 00:53:08.9	106.070	-0.100	0.030	0.600
2020/01/31 00:53:09.0	106.080	-0.120	0.080	0.620
2020/01/31 00:53:09.1	106.100	-0.130	0.130	0.640
2020/01/31 00:53:09.2	106.120	-0.140	0.180	0.660
2020/01/31 00:53:09.3	106.130	-0.150	0.230	0.670
2020/01/31 00:53:09.4	106.160	-0.160	0.280	0.690
2020/01/31 00:53:09.5	106.180	-0.170	0.330	0.700
2020/01/31 00:53:09.6	106.200	-0.180	0.380	0.710
2020/01/31 00:53:09.7	106.220	-0.190	0.420	0.720
2020/01/31 00:53:09.8	106.240	-0.190	0.460	0.730
2020/01/31 00:53:09.9	106.260	-0.200	0.500	0.740
2020/01/31 00:53:10.0	106.280	-0.200	0.540	0.740
2020/01/31 00:53:10.1	106.290	-0.210	0.570	0.740
2020/01/31 00:53:10.2	106.310	-0.210	0.600	0.750
2020/01/31 00:53:10.3	106.330	-0.210	0.630	0.760
2020/01/31 00:53:10.4	106.350	-0.210	0.650	0.770
2020/01/31 00:53:10.5	106.360	-0.210	0.670	0.780
2020/01/31 00:53:10.6	106.380	-0.200	0.680	0.790
2020/01/31 00:53:10.7	106.390	-0.200	0.690	0.800
2020/01/31 00:53:10.8	106.400	-0.200	0.690	0.820
2020/01/31 00:53:10.9	106.400	-0.190	0.690	0.840
2020/01/31 00:53:11.0	106.400	-0.180	0.680	0.860
2020/01/31 00:53:11.1	106.400	-0.180	0.670	0.880
2020/01/31 00:53:11.2	106.400	-0.170	0.650	0.900
2020/01/31 00:53:11.3	106.400	-0.160	0.630	0.930
2020/01/31 00:53:11.4	106.390	-0.150	0.600	0.960
2020/01/31 00:53:11.5	106.390	-0.140	0.570	1.000
2020/01/31 00:53:11.6	106.380	-0.130	0.540	1.030
2020/01/31 00:53:11.7	106.370	-0.120	0.500	1.070
2020/01/31 00:53:11.8	106.360	-0.110	0.450	1.110
2020/01/31 00:53:11.9	106.340	-0.090	0.410	1.150
2020/01/31 00:53:12.0	106.320	-0.080	0.360	1.190
2020/01/31 00:53:12.1	106.310	-0.070	0.300	1.230
2020/01/31 00:53:12.2	106.290	-0.050	0.250	1.280
2020/01/31 00:53:12.3	106.270	-0.040	0.190	1.320
2020/01/31 00:53:12.4	106.250	-0.030	0.130	1.360
2020/01/31 00:53:12.5	106.230	-0.010	0.070	1.400
2020/01/31 00:53:12.6	106.210	0.000	0.010	1.450
2020/01/31 00:53:12.7	106.190	0.020	-0.060	1.480
2020/01/31 00:53:12.8	106.160	0.030	-0.120	1.520
2020/01/31 00:53:12.9	106.140	0.050	-0.180	1.560
2020/01/31 00:53:13.0	106.120	0.060	-0.240	1.590
2020/01/31 00:53:13.1	106.100	0.080	-0.310	1.620
2020/01/31 00:53:13.2	106.080	0.090	-0.370	1.640
2020/01/31 00:53:13.3	106.060	0.110	-0.420	1.660
2020/01/31 00:53:13.4	106.050	0.130	-0.480	1.680
2020/01/31 00:53:13.5	106.030	0.140	-0.540	1.700
2020/01/31 00:53:13.6	106.020	0.160	-0.590	1.710
2020/01/31 00:53:13.7	106.000	0.170	-0.640	1.710
2020/01/31 00:53:13.8	105.990	0.190	-0.690	1.710
2020/01/31 00:53:13.9	105.980	0.200	-0.730	1.710
2020/01/31 00:53:14.0	105.970	0.220	-0.780	1.700
2020/01/31 00:53:14.1	105.970	0.230	-0.820	1.690
2020/01/31 00:53:14.2	105.960	0.250	-0.850	1.670
2020/01/31 00:53:14.3	105.950	0.260	-0.880	1.650
2020/01/31 00:53:14.4	105.950	0.270	-0.910	1.630
2020/01/31 00:53:14.5	105.950	0.280	-0.930	1.600
2020/01/31 00:53:14.6	105.950	0.290	-0.950	1.570
2020/01/31 00:53:14.7	105.950	0.300	-0.960	1.540
2020/01/31 00:53:14.8	105.950	0.310	-0.970	1.500
2020/01/31 00:53:14.9	105.960	0.310	-0.980	1.470
2020/01/31 00:53:15.0	105.970	0.320	-0.980	1.430
2020/01/31 00:53:15.1	105.980	0.320	-0.970	1.390
2020/01/31 00:53:15.2	105.990	0.310	-0.960	1.350
2020/01/31 00:53:15.3	106.000	0.310	-0.940	1.310
2020/01/31 00:53:15.4	106.010	0.310	-0.920	1.270
2020/01/31 00:53:15.5	106.020	0.300	-0.900	1.220
2020/01/31 00:53:15.6	106.030	0.290	-0.870	1.180
2020/01/31 00:53:15.7	106.040	0.270	-0.830	1.150
2020/01/31 00:53:15.8	106.060	0.260	-0.790	1.110
2020/01/31 00:53:15.9	106.070	0.240	-0.750	1.070
2020/01/31 00:53:16.0	106.090	0.220	-0.700	1.040
2020/01/31 00:53:16.1	106.110	0.200	-0.650	1.010
2020/01/31 00:53:16.2	106.120	0.170	-0.600	0.980
2020/01/31 00:53:16.3	106.140	0.150	-0.540	0.960
2020/01/31 00:53:16.4	106.150	0.120	-0.480	0.930
2020/01/31 00:53:16.5	106.170	0.090	-0.420	0.910
2020/01/31 00:53:16.6	106.190	0.060	-0.350	0.900
2020/01/31 00:53:16.7	106.200	0.030	-0.290	0.880
2020/01/31 00:53:16.8	106.220	-0.000	-0.220	0.870
2020/01/31 00:53:16.9	106.240	-0.040	-0.150	0.870
2020/01/31 00:53:17.0	106.270	-0.070	-0.090	0.870
2020/01/31 00:53:17.1	106.280	-0.100	-0.020	0.860
2020/01/31 00:53:17.2	106.300	-0.140	0.050	0.860
2020/01/31 00:53:17.3	106.320	-0.170	0.110	0.870
2020/01/31 00:53:17.4	106.330	-0.200	0.170	0.870
2020/01/31 00:53:17.5	106.350	-0.230	0.230	0.870
2020/01/31 00:53:17.6	106.360	-0.260	0.280	0.880
2020/01/31 00:53:17.7	106.380	-0.290	0.330	0.890
2020/01/31 00:53:17.8	106.390	-0.320	0.380	0.890
2020/01/31 00:53:17.9	106.410	-0.340	0.420	0.900
2020/01/31 00:53:18.0	106.420	-0.370	0.460	0.900
2020/01/31 00:53:18.1	106.430	-0.390	0.490	0.910
2020/01/31 00:53:18.2	106.450	-0.410	0.520	0.920
2020/01/31 00:53:18.3	106.460	-0.420	0.540	0.920
2020/01/31 00:53:18.4	106.470	-0.440	0.550	0.920
2020/01/31 00:53:18.5	106.480	-0.450	0.560	0.920
2020/01/31 00:53:18.6	106.490	-0.460	0.560	0.920
2020/01/31 00:53:18.7	106.500	-0.460	0.560	0.920
2020/01/31 00:53:18.8	106.510	-0.470	0.550	0.910
2020/01/31 00:53:18.9	106.520	-0.470	0.530	0.910
2020/01/31 00:53:19.0	106.530	-0.460	0.510	0.900
2020/01/31 00:53:19.1	106.540	-0.460	0.490	0.890
2020/01/31 00:53:19.2	106.540	-0.450	0.450	0.880
2020/01/31 00:53:19.3	106.540	-0.440	0.420	0.880
2020/01/31 00:53:19.4	106.540	-0.420	0.380	0.860
2020/01/31 00:53:19.5	106.540	-0.400	0.330	0.850
2020/01/31 00:53:19.6	106.540	-0.390	0.280	0.840
2020/01/31 00:53:19.7	106.540	-0.360	0.230	0.830
2020/01/31 00:53:19.8	106.530	-0.340	0.180	0.820
2020/01/31 00:53:19.9	106.520	-0.320	0.120	0.810
2020/01/31 00:53:20.0	106.520	-0.290	0.060	0.800
2020/01/31 00:53:20.1	106.510	-0.260	0.010	0.800
2020/01/31 00:53:20.2	106.490	-0.230	-0.050	0.790
2020/01/31 00:53:20.3	106.480	-0.200	-0.110	0.780
2020/01/31 00:53:20.4	106.470	-0.170	-0.160	0.770
2020/01/31 00:53:20.5	106.450	-0.140	-0.220	0.770
2020/01/31 00:53:20.6	106.440	-0.100	-0.270	0.760
2020/01/31 00:53:20.7	106.420	-0.070	-0.320	0.760
2020/01/31 00:53:20.8	106.400	-0.040	-0.360	0.760
2020/01/31 00:53:20.9	106.380	-0.010	-0.400	0.760
2020/01/31 00:53:21.0	106.370	0.020	-0.440	0.750
2020/01/31 00:53:21.1	106.350	0.050	-0.480	0.750
2020/01/31 00:53:21.2	106.330	0.080	-0.500	0.760
2020/01/31 00:53:21.3	106.320	0.100	-0.530	0.760
2020/01/31 00:53:21.4	106.300	0.130	-0.540	0.760
2020/01/31 00:53:21.5	106.280	0.150	-0.560	0.770
2020/01/31 00:53:21.6	106.260	0.170	-0.560	0.770
2020/01/31 00:53:21.7	106.240	0.190	-0.570	0.780
2020/01/31 00:53:21.8	106.220	0.210	-0.560	0.780
2020/01/31 00:53:21.9	106.200	0.230	-0.560	0.790
2020/01/31 00:53:22.0	106.180	0.240	-0.540	0.800
2020/01/31 00:53:22.1	106.160	0.250	-0.530	0.800
2020/01/31 00:53:22.2	106.150	0.260	-0.510	0.810
2020/01/31 00:53:22.3	106.130	0.260	-0.480	0.810
2020/01/31 00:53:22.4	106.120	0.270	-0.460	0.820
2020/01/31 00:53:22.5	106.110	0.270	-0.430	0.820
2020/01/31 00:53:22.6	106.100	0.270	-0.400	0.830
2020/01/31 00:53:22.7	106.090	0.270	-0.360	0.830
2020/01/31 00:53:22.8	106.090	0.270	-0.320	0.830
2020/01/31 00:53:22.9	106.080	0.260	-0.290	0.830
2020/01/31 00:53:23.0	106.070	0.260	-0.250	0.820
2020/01/31 00:53:23.1	106.070	0.250	-0.210	0.820
2020/01/31 00:53:23.2	106.070	0.240	-0.170	0.810
2020/01/31 00:53:23.3	106.070	0.230	-0.140	0.810
2020/01/31 00:53:23.4	106.080	0.220	-0.100	0.800
2020/01/31 00:53:23.5	106.080	0.220	-0.070	0.780
2020/01/31 00:53:23.6	106.090	0.210	-0.030	0.770
2020/01/31 00:53:23.7	106.100	0.200	-0.000	0.750
2020/01/31 00:53:23.8	106.110	0.190	0.020	0.740
2020/01/31 00:53:23.9	106.120	0.180	0.050	0.720
2020/01/31 00:53:24.0	106.130	0.170	0.070	0.700
2020/01/31 00:53:24.1	106.140	0.160	0.090	0.680
2020/01/31 00:53:24.2	106.160	0.150	0.110	0.660
2020/01/31 00:53:24.3	106.170	0.150	0.120	0.640
2020/01/31 00:53:24.4	106.180	0.140	0.130	0.610
2020/01/31 00:53:24.5	106.190	0.140	0.130	0.590
2020/01/31 00:53:24.6	106.200	0.130	0.140	0.560
2020/01/31 00:53:24.7	106.210	0.130	0.140	0.540
2020/01/31 00:53:24.8	106.220	0.130	0.130	0.520
2020/01/31 00:53:24.9	106.230	0.120	0.130	0.500
2020/01/31 00:53:25.0	106.250	0.120	0.120	0.470
2020/01/31 00:53:25.1	106.260	0.120	0.100	0.450
2020/01/31 00:53:25.2	106.270	0.120	0.090	0.430
2020/01/31 00:53:25.3	106.270	0.120	0.070	0.420
2020/01/31 00:53:25.4	106.280	0.120	0.050	0.400
2020/01/31 00:53:25.5	106.290	0.120	0.030	0.390
2020/01/31 00:53:25.6	106.290	0.130	0.010	0.380
2020/01/31 00:53:25.7	106.300	0.130	-0.010	0.380
2020/01/31 00:53:25.8	106.300	0.130	-0.040	0.380
2020/01/31 00:53:25.9	106.310	0.130	-0.070	0.380
2020/01/31 00:53:26.0	106.310	0.130	-0.090	0.390
2020/01/31 00:53:26.1	106.320	0.130	-0.120	0.400
2020/01/31 00:53:26.2	106.320	0.130	-0.150	0.410
2020/01/31 00:53:26.3	106.320	0.130	-0.180	0.430
2020/01/31 00:53:26.4	106.320	0.130	-0.210	0.450
2020/01/31 00:53:26.5	106.310	0.130	-0.240	0.480
2020/01/31 00:53:26.6	106.310	0.130	-0.270	0.510
2020/01/31 00:53:26.7	106.310	0.130	-0.300	0.550
2020/01/31 00:53:26.8	106.300	0.120	-0.330	0.590
2020/01/31 00:53:26.9	106.290	0.120	-0.360	0.630
2020/01/31 00:53:27.0	106.280	0.120	-0.400	0.680
2020/01/31 00:53:27.1	106.270	0.110	-0.420	0.730
2020/01/31 00:53:27.2	106.260	0.110	-0.450	0.790
2020/01/31 00:53:27.3	106.250	0.100	-0.470	0.840
2020/01/31 00:53:27.4	106.240	0.090	-0.500	0.900
2020/01/31 00:53:27.5	106.230	0.090	-0.520	0.960
2020/01/31 00:53:27.6	106.220	0.080	-0.540	1.020
2020/01/31 00:53:27.7	106.210	0.070	-0.550	1.080
2020/01/31 00:53:27.8	106.190	0.060	-0.570	1.140
2020/01/31 00:53:27.9	106.180	0.050	-0.580	1.200
2020/01/31 00:53:28.0	106.180	0.040	-0.580	1.260
2020/01/31 00:53:28.1	106.170	0.020	-0.580	1.310
2020/01/31 00:53:28.2	106.160	0.010	-0.580	1.370
2020/01/31 00:53:28.3	106.150	-0.000	-0.580	1.420
2020/01/31 00:53:28.4	106.140	-0.020	-0.570	1.480
2020/01/31 00:53:28.5	106.140	-0.040	-0.560	1.530
2020/01/31 00:53:28.6	106.130	-0.050	-0.540	1.580
2020/01/31 00:53:28.7	106.130	-0.070	-0.520	1.620
2020/01/31 00:53:28.8	106.130	-0.090	-0.490	1.670
2020/01/31 00:53:28.9	106.130	-0.110	-0.460	1.710
2020/01/31 00:53:29.0	106.130	-0.130	-0.430	1.740
2020/01/31 00:53:29.1	106.130	-0.150	-0.400	1.780
2020/01/31 00:53:29.2	106.140	-0.170	-0.360	1.820
2020/01/31 00:53:29.3	106.150	-0.190	-0.320	1.850
2020/01/31 00:53:29.4	106.150	-0.210	-0.270	1.870
2020/01/31 00:53:29.5	106.170	-0.230	-0.230	1.900
2020/01/31 00:53:29.6	106.180	-0.250	-0.180	1.930
2020/01/31 00:53:29.7	106.190	-0.270	-0.130	1.950
2020/01/31 00:53:29.8	106.200	-0.290	-0.080	1.970
2020/01/31 00:53:29.9	106.220	-0.310	-0.030	1.980
2020/01/31 00:53:30.0	106.220	-0.320	0.020	2.000
2020/01/31 00:53:30.1	106.230	-0.340	0.070	2.010
2020/01/31 00:53:30.2	106.240	-0.350	0.110	2.020
2020/01/31 00:53:30.3	106.260	-0.370	0.160	2.030
2020/01/31 00:53:30.4	106.270	-0.380	0.200	2.040
2020/01/31 00:53:30.5	106.280	-0.390	0.240	2.050
2020/01/31 00:53:30.6	106.290	-0.390	0.280	2.050
2020/01/31 00:53:30.7	106.300	-0.400	0.310	2.060
2020/01/31 00:53:30.8	106.310	-0.400	0.340	2.070
2020/01/31 00:53:30.9	106.310	-0.400	0.370	2.070
2020/01/31 00:53:31.0	106.320	-0.400	0.390	2.070
2020/01/31 00:53:31.1	106.320	-0.400	0.410	2.080
2020/01/31 00:53:31.2	106.320	-0.390	0.420	2.080
2020/01/31 00:53:31.3	106.320	-0.380	0.430	2.090
2020/01/31 00:53:31.4	106.310	-0.370	0.430	2.090
2020/01/31 00:53:31.5	106.300	-0.360	0.430	2.100
2020/01/31 00:53:31.6	106.290	-0.340	0.420	2.100
2020/01/31 00:53:31.7	106.280	-0.320	0.410	2.100
2020/01/31 00:53:31.8	106.260	-0.300	0.390	2.100
2020/01/31 00:53:31.9	106.240	-0.280	0.370	2.100
2020/01/31 00:53:32.0	106.220	-0.260	0.340	2.100
2020/01/31 00:53:32.1	106.200	-0.230	0.310	2.100
2020/01/31 00:53:32.2	106.180	-0.210	0.270	2.090
2020/01/31 00:53:32.3	106.150	-0.180	0.230	2.080
2020/01/31 00:53:32.4	106.130	-0.150	0.190	2.070
2020/01/31 00:53:32.5	106.110	-0.120	0.150	2.050
2020/01/31 00:53:32.6	106.080	-0.090	0.100	2.030
2020/01/31 00:53:32.7	106.060	-0.070	0.060	2.010
2020/01/31 00:53:32.8	106.040	-0.040	0.010	1.980
2020/01/31 00:53:32.9	106.020	-0.010	-0.040	1.950
2020/01/31 00:53:33.0	106.000	0.020	-0.090	1.910
2020/01/31 00:53:33.1	105.980	0.050	-0.140	1.870
2020/01/31 00:53:33.2	105.960	0.080	-0.190	1.830
2020/01/31 00:53:33.3	105.940	0.100	-0.230	1.780
2020/01/31 00:53:33.4	105.930	0.130	-0.280	1.730
2020/01/31 00:53:33.5	105.910	0.150	-0.320	1.670
2020/01/31 00:53:33.6	105.900	0.170	-0.360	1.620
2020/01/31 00:53:33.7	105.890	0.190	-0.390	1.550
2020/01/31 00:53:33.8	105.880	0.210	-0.420	1.490
2020/01/31 00:53:33.9	105.870	0.230	-0.450	1.420
2020/01/31 00:53:34.0	105.840	0.240	-0.480	1.360
2020/01/31 00:53:34.1	105.830	0.250	-0.500	1.290
2020/01/31 00:53:34.2	105.830	0.260	-0.520	1.220
2020/01/31 00:53:34.3	105.830	0.270	-0.530	1.150
2020/01/31 00:53:34.4	105.820	0.280	-0.540	1.080
2020/01/31 00:53:34.5	105.820	0.290	-0.550	1.010
2020/01/31 00:53:34.6	105.820	0.300	-0.550	0.940
2020/01/31 00:53:34.7	105.820	0.300	-0.550	0.870
2020/01/31 00:53:34.8	105.820	0.300	-0.540	0.800
2020/01/31 00:53:34.9	105.820	0.300	-0.530	0.740
2020/01/31 00:53:35.0	105.830	0.300	-0.520	0.670
2020/01/31 00:53:35.1	105.840	0.310	-0.500	0.610
2020/01/31 00:53:35.2	105.840	0.300	-0.490	0.550
2020/01/31 00:53:35.3	105.840	0.300	-0.470	0.490
2020/01/31 00:53:35.4	105.840	0.300	-0.450	0.440
2020/01/31 00:53:35.5	105.850	0.300	-0.430	0.390
2020/01/31 00:53:35.6	105.850	0.300	-0.400	0.340
2020/01/31 00:53:35.7	105.860	0.300	-0.380	0.290
2020/01/31 00:53:35.8	105.860	0.290	-0.360	0.240
2020/01/31 00:53:35.9	105.860	0.290	-0.330	0.200
2020/01/31 00:53:36.0	105.860	0.290	-0.310	0.160
2020/01/31 00:53:36.1	105.860	0.290	-0.290	0.120
2020/01/31 00:53:36.2	105.870	0.290	-0.270	0.090
2020/01/31 00:53:36.3	105.870	0.290	-0.250	0.050
2020/01/31 00:53:36.4	105.880	0.280	-0.230	0.020
2020/01/31 00:53:36.5	105.880	0.280	-0.210	-0.010
2020/01/31 00:53:36.6	105.890	0.280	-0.190	-0.040
2020/01/31 00:53:36.7	105.890	0.280	-0.170	-0.060
2020/01/31 00:53:36.8	105.890	0.280	-0.160	-0.090
2020/01/31 00:53:36.9	105.900	0.270	-0.140	-0.110
2020/01/31 00:53:37.0	105.920	0.270	-0.130	-0.130
2020/01/31 00:53:37.1	105.920	0.270	-0.110	-0.150
2020/01/31 00:53:37.2	105.930	0.260	-0.100	-0.170
2020/01/31 00:53:37.3	105.940	0.260	-0.090	-0.190
2020/01/31 00:53:37.4	105.940	0.250	-0.080	-0.200
2020/01/31 00:53:37.5	105.950	0.240	-0.070	-0.210
2020/01/31 00:53:37.6	105.960	0.230	-0.060	-0.220
2020/01/31 00:53:37.7	105.960	0.220	-0.050	-0.220
2020/01/31 00:53:37.8	105.970	0.210	-0.040	-0.230
2020/01/31 00:53:37.9	105.980	0.200	-0.030	-0.230
2020/01/31 00:53:38.0	105.990	0.190	-0.020	-0.220
2020/01/31 00:53:38.1	106.000	0.180	-0.010	-0.210
2020/01/31 00:53:38.2	106.000	0.160	0.000	-0.200
2020/01/31 00:53:38.3	106.010	0.150	0.010	-0.190
2020/01/31 00:53:38.4	106.010	0.130	0.020	-0.170
2020/01/31 00:53:38.5	106.020	0.110	0.030	-0.150
2020/01/31 00:53:38.6	106.020	0.090	0.040	-0.120
2020/01/31 00:53:38.7	106.030	0.070	0.050	-0.100
2020/01/31 00:53:38.8	106.030	0.050	0.060	-0.060
2020/01/31 00:53:38.9	106.030	0.030	0.060	-0.030
2020/01/31 00:53:39.0	106.040	0.010	0.070	0.020
2020/01/31 00:53:39.1	106.030	-0.010	0.070	0.060
2020/01/31 00:53:39.2	106.030	-0.030	0.080	0.110
2020/01/31 00:53:39.3	106.030	-0.050	0.080	0.170
2020/01/31 00:53:39.4	106.020	-0.070	0.080	0.230
2020/01/31 00:53:39.5	106.010	-0.100	0.080	0.290
2020/01/31 00:53:39.6	106.000	-0.120	0.080	0.360
2020/01/31 00:53:39.7	105.990	-0.130	0.070	0.430
2020/01/31 00:53:39.8	105.980	-0.150	0.070	0.510
2020/01/31 00:53:39.9	105.960	-0.170	0.060	0.590
2020/01/31 00:53:40.0	105.950	-0.190	0.050	0.670
2020/01/31 00:53:40.1	105.930	-0.200	0.040	0.750
2020/01/31 00:53:40.2	105.910	-0.220	0.020	0.840
2020/01/31 00:53:40.3	105.890	-0.230	0.000	0.930
2020/01/31 00:53:40.4	105.870	-0.240	-0.020	1.020
2020/01/31 00:53:40.5	105.850	-0.250	-0.040	1.110
2020/01/31 00:53:40.6	105.830	-0.260	-0.060	1.200
2020/01/31 00:53:40.7	105.820	-0.270	-0.080	1.290
2020/01/31 00:53:40.8	105.800	-0.270	-0.110	1.390
2020/01/31 00:53:40.9	105.780	-0.280	-0.130	1.480
2020/01/31 00:53:41.0	105.770	-0.280	-0.160	1.570
2020/01/31 00:53:41.1	105.760	-0.280	-0.190	1.660
2020/01/31 00:53:41.2	105.740	-0.290	-0.220	1.740
2020/01/31 00:53:41.3	105.740	-0.290	-0.240	1.830
2020/01/31 00:53:41.4	105.730	-0.290	-0.270	1.910
2020/01/31 00:53:41.5	105.720	-0.290	-0.290	1.990
2020/01/31 00:53:41.6	105.720	-0.280	-0.320	2.070
2020/01/31 00:53:41.7	105.720	-0.280	-0.340	2.150
2020/01/31 00:53:41.8	105.720	-0.280	-0.360	2.220
2020/01/31 00:53:41.9	105.720	-0.280	-0.380	2.300
2020/01/31 00:53:42.0	105.710	-0.270	-0.390	2.370
2020/01/31 00:53:42.1	105.710	-0.270	-0.410	2.430
2020/01/31 00:53:42.2	105.720	-0.260	-0.420	2.500
2020/01/31 00:53:42.3	105.720	-0.260	-0.430	2.560
2020/01/31 00:53:42.4	105.720	-0.250	-0.440	2.620
2020/01/31 00:53:42.5	105.730	-0.250	-0.450	2.670
2020/01/31 00:53:42.6	105.730	-0.240	-0.450	2.720
2020/01/31 00:53:42.7	105.730	-0.240	-0.450	2.770
2020/01/31 00:53:42.8	105.740	-0.230	-0.450	2.820
2020/01/31 00:53:42.9	105.740	-0.220	-0.450	2.860
2020/01/31 00:53:43.0	105.730	-0.220	-0.440	2.890
2020/01/31 00:53:43.1	105.730	-0.210	-0.430	2.920
2020/01/31 00:53:43.2	105.720	-0.200	-0.420	2.950
2020/01/31 00:53:43.3	105.720	-0.200	-0.410	2.970
2020/01/31 00:53:43.4	105.710	-0.190	-0.390	2.990
2020/01/31 00:53:43.5	105.700	-0.180	-0.380	3.010
2020/01/31 00:53:43.6	105.690	-0.170	-0.360	3.020
2020/01/31 00:53:43.7	105.680	-0.160	-0.340	3.030
2020/01/31 00:53:43.8	105.660	-0.150	-0.320	3.030
2020/01/31 00:53:43.9	105.640	-0.140	-0.300	3.030
2020/01/31 00:53:44.0	105.620	-0.130	-0.280	3.020
2020/01/31 00:53:44.1	105.600	-0.120	-0.250	3.010
2020/01/31 00:53:44.2	105.580	-0.110	-0.230	3.000
2020/01/31 00:53:44.3	105.550	-0.100	-0.210	2.980
2020/01/31 00:53:44.4	105.530	-0.090	-0.180	2.950
2020/01/31 00:53:44.5	105.500	-0.080	-0.160	2.930
2020/01/31 00:53:44.6	105.470	-0.060	-0.140	2.890
2020/01/31 00:53:44.7	105.440	-0.050	-0.110	2.860
2020/01/31 00:53:44.8	105.420	-0.040	-0.090	2.820
2020/01/31 00:53:44.9	105.390	-0.030	-0.060	2.770
2020/01/31 00:53:45.0	105.350	-0.020	-0.040	2.720
2020/01/31 00:53:45.1	105.320	-0.010	-0.020	2.660
2020/01/31 00:53:45.2	105.300	-0.010	0.010	2.600
2020/01/31 00:53:45.3	105.280	0.000	0.030	2.540
2020/01/31 00:53:45.4	105.260	0.010	0.050	2.470
2020/01/31 00:53:45.5	105.240	0.020	0.070	2.400
2020/01/31 00:53:45.6	105.220	0.020	0.100	2.320
2020/01/31 00:53:45.7	105.200	0.030	0.120	2.240
2020/01/31 00:53:45.8	105.190	0.030	0.130	2.160
2020/01/31 00:53:45.9	105.180	0.030	0.150	2.070
2020/01/31 00:53:46.0	105.180	0.030	0.170	1.980
2020/01/31 00:53:46.1	105.180	0.030	0.180	1.880
2020/01/31 00:53:46.2	105.170	0.030	0.200	1.780
2020/01/31 00:53:46.3	105.170	0.030	0.210	1.680
2020/01/31 00:53:46.4	105.180	0.030	0.220	1.570
2020/01/31 00:53:46.5	105.180	0.030	0.230	1.460
2020/01/31 00:53:46.6	105.190	0.030	0.230	1.360
2020/01/31 00:53:46.7	105.200	0.020	0.230	1.240
2020/01/31 00:53:46.8	105.200	0.020	0.230	1.130
2020/01/31 00:53:46.9	105.220	0.010	0.230	1.020
2020/01/31 00:53:47.0	105.230	0.010	0.220	0.910
2020/01/31 00:53:47.1	105.240	0.010	0.210	0.800
2020/01/31 00:53:47.2	105.260	0.000	0.200	0.680
2020/01/31 00:53:47.3	105.270	-0.000	0.190	0.570
2020/01/31 00:53:47.4	105.280	-0.010	0.170	0.470
2020/01/31 00:53:47.5	105.300	-0.010	0.150	0.360
2020/01/31 00:53:47.6	105.310	-0.010	0.120	0.260
2020/01/31 00:53:47.7	105.330	-0.010	0.100	0.160
2020/01/31 00:53:47.8	105.340	-0.020	0.070	0.060
2020/01/31 00:53:47.9	105.350	-0.020	0.040	-0.040
2020/01/31 00:53:48.0	105.380	-0.020	0.000	-0.130
2020/01/31 00:53:48.1	105.400	-0.010	-0.030	-0.210
2020/01/31 00:53:48.2	105.410	-0.010	-0.070	-0.300
2020/01/31 00:53:48.3	105.420	-0.010	-0.110	-0.370
2020/01/31 00:53:48.4	105.430	-0.010	-0.150	-0.450
2020/01/31 00:53:48.5	105.430	-0.000	-0.190	-0.510
2020/01/31 00:53:48.6	105.440	0.010	-0.230	-0.580
2020/01/31 00:53:48.7	105.450	0.010	-0.280	-0.630
2020/01/31 00:53:48.8	105.450	0.020	-0.320	-0.690
2020/01/31 00:53:48.9	105.460	0.030	-0.360	-0.730
2020/01/31 00:53:49.0	105.470	0.040	-0.400	-0.780
2020/01/31 00:53:49.1	105.470	0.050	-0.440	-0.820
2020/01/31 00:53:49.2	105.470	0.060	-0.480	-0.850
2020/01/31 00:53:49.3	105.470	0.070	-0.510	-0.870
2020/01/31 00:53:49.4	105.470	0.080	-0.540	-0.900
2020/01/31 00:53:49.5	105.460	0.090	-0.570	-0.910
2020/01/31 00:53:49.6	105.460	0.100	-0.600	-0.920
2020/01/31 00:53:49.7	105.450	0.110	-0.620	-0.920
2020/01/31 00:53:49.8	105.440	0.120	-0.640	-0.920
2020/01/31 00:53:49.9	105.430	0.130	-0.660	-0.910
2020/01/31 00:53:50.0	105.420	0.140	-0.670	-0.900
2020/01/31 00:53:50.1	105.410	0.140	-0.680	-0.880
2020/01/31 00:53:50.2	105.390	0.150	-0.680	-0.850
2020/01/31 00:53:50.3	105.380	0.160	-0.680	-0.830
2020/01/31 00:53:50.4	105.360	0.160	-0.680	-0.790
2020/01/31 00:53:50.5	105.340	0.170	-0.670	-0.750
2020/01/31 00:53:50.6	105.320	0.170	-0.660	-0.710
2020/01/31 00:53:50.7	105.300	0.180	-0.650	-0.660
2020/01/31 00:53:50.8	105.270	0.180	-0.630	-0.610
2020/01/31 00:53:50.9	105.250	0.180	-0.610	-0.550
2020/01/31 00:53:51.0	105.240	0.180	-0.580	-0.490
2020/01/31 00:53:51.1	105.220	0.180	-0.560	-0.430
2020/01/31 00:53:51.2	105.200	0.170	-0.530	-0.360
2020/01/31 00:53:51.3	105.170	0.170	-0.490	-0.290
2020/01/31 00:53:51.4	105.150	0.160	-0.460	-0.210
2020/01/31 00:53:51.5	105.120	0.160	-0.420	-0.140
2020/01/31 00:53:51.6	105.100	0.150	-0.380	-0.060
2020/01/31 00:53:51.7	105.070	0.150	-0.330	0.020
2020/01/31 00:53:51.8	105.050	0.140	-0.290	0.100
2020/01/31 00:53:51.9	105.030	0.130	-0.240	0.190
2020/01/31 00:53:52.0	105.010	0.120	-0.200	0.270
2020/01/31 00:53:52.1	104.980	0.110	-0.150	0.360
2020/01/31 00:53:52.2	104.960	0.100	-0.100	0.450
2020/01/31 00:53:52.3	104.940	0.090	-0.060	0.540
2020/01/31 00:53:52.4	104.920	0.080	-0.010	0.630
2020/01/31 00:53:52.5	104.890	0.070	0.040	0.710
2020/01/31 00:53:52.6	104.870	0.060	0.080	0.800
2020/01/31 00:53:52.7	104.850	0.050	0.120	0.890
2020/01/31 00:53:52.8	104.830	0.040	0.160	0.980
2020/01/31 00:53:52.9	104.810	0.040	0.200	1.070
2020/01/31 00:53:53.0	104.780	0.030	0.230	1.160
2020/01/31 00:53:53.1	104.770	0.020	0.260	1.240
2020/01/31 00:53:53.2	104.750	0.010	0.290	1.320
2020/01/31 00:53:53.3	104.730	0.010	0.320	1.410
2020/01/31 00:53:53.4	104.720	0.000	0.340	1.490
2020/01/31 00:53:53.5	104.700	0.000	0.360	1.570
2020/01/31 00:53:53.6	104.690	-0.000	0.380	1.640
2020/01/31 00:53:53.7	104.670	-0.000	0.390	1.720
2020/01/31 00:53:53.8	104.660	-0.000	0.390	1.790
2020/01/31 00:53:53.9	104.650	-0.000	0.390	1.860
2020/01/31 00:53:54.0	104.620	-0.000	0.390	1.920
2020/01/31 00:53:54.1	104.610	-0.000	0.390	1.980
2020/01/31 00:53:54.2	104.600	0.000	0.380	2.050
2020/01/31 00:53:54.3	104.590	0.010	0.360	2.100
2020/01/31 00:53:54.4	104.590	0.010	0.340	2.160
2020/01/31 00:53:54.5	104.580	0.020	0.320	2.200
2020/01/31 00:53:54.6	104.570	0.030	0.290	2.250
2020/01/31 00:53:54.7	104.570	0.040	0.260	2.290
2020/01/31 00:53:54.8	104.570	0.050	0.230	2.330
2020/01/31 00:53:54.9	104.560	0.060	0.190	2.370
2020/01/31 00:53:55.0	104.570	0.070	0.150	2.400
2020/01/31 00:53:55.1	104.570	0.080	0.110	2.420
2020/01/31 00:53:55.2	104.570	0.090	0.070	2.450
2020/01/31 00:53:55.3	104.570	0.100	0.020	2.470
2020/01/31 00:53:55.4	104.570	0.120	-0.020	2.480
2020/01/31 00:53:55.5	104.570	0.130	-0.070	2.490
2020/01/31 00:53:55.6	104.570	0.140	-0.120	2.500
2020/01/31 00:53:55.7	104.580	0.150	-0.170	2.510
2020/01/31 00:53:55.8	104.580	0.170	-0.210	2.510
2020/01/31 00:53:55.9	104.580	0.180	-0.260	2.510
2020/01/31 00:53:56.0	104.590	0.190	-0.310	2.500
2020/01/31 00:53:56.1	104.590	0.200	-0.350	2.490
2020/01/31 00:53:56.2	104.600	0.210	-0.390	2.480
2020/01/31 00:53:56.3	104.600	0.220	-0.430	2.470
2020/01/31 00:53:56.4	104.610	0.230	-0.470	2.450
2020/01/31 00:53:56.5	104.610	0.230	-0.500	2.430
2020/01/31 00:53:56.6	104.620	0.240	-0.530	2.410
2020/01/31 00:53:56.7	104.620	0.240	-0.550	2.390
2020/01/31 00:53:56.8	104.620	0.240	-0.570	2.360
2020/01/31 00:53:56.9	104.630	0.240	-0.590	2.340
2020/01/31 00:53:57.0	104.620	0.230	-0.600	2.310
2020/01/31 00:53:57.1	104.620	0.230	-0.610	2.290
2020/01/31 00:53:57.2	104.630	0.220	-0.610	2.260
2020/01/31 00:53:57.3	104.630	0.210	-0.610	2.230
2020/01/31 00:53:57.4	104.620	0.200	-0.600	2.200
2020/01/31 00:53:57.5	104.620	0.180	-0.590	2.180
2020/01/31 00:53:57.6	104.620	0.170	-0.570	2.150
2020/01/31 00:53:57.7	104.620	0.150	-0.550	2.120
2020/01/31 00:53:57.8	104.610	0.130	-0.520	2.100
2020/01/31 00:53:57.9	104.610	0.100	-0.490	2.070
2020/01/31 00:53:58.0	104.590	0.070	-0.460	2.040
2020/01/31 00:53:58.1	104.590	0.050	-0.420	2.020
2020/01/31 00:53:58.2	104.580	0.010	-0.380	2.000
2020/01/31 00:53:58.3	104.570	-0.020	-0.340	1.980
2020/01/31 00:53:58.4	104.560	-0.050	-0.300	1.960
2020/01/31 00:53:58.5	104.550	-0.090	-0.250	1.940
2020/01/31 00:53:58.6	104.540	-0.120	-0.200	1.920
2020/01/31 00:53:58.7	104.530	-0.160	-0.150	1.910
2020/01/31 00:53:58.8	104.510	-0.200	-0.100	1.890
2020/01/31 00:53:58.9	104.500	-0.240	-0.050	1.880
2020/01/31 00:53:59.0	104.490	-0.280	-0.000	1.860
2020/01/31 00:53:59.1	104.480	-0.320	0.040	1.850
2020/01/31 00:53:59.2	104.470	-0.360	0.090	1.840
2020/01/31 00:53:59.3	104.450	-0.400	0.140	1.830
2020/01/31 00:53:59.4	104.440	-0.440	0.180	1.810
2020/01/31 00:53:59.5	104.420	-0.480	0.220	1.800
2020/01/31 00:53:59.6	104.410	-0.520	0.260	1.780
2020/01/31 00:53:59.7	104.390	-0.550	0.300	1.770
2020/01/31 00:53:59.8	104.380	-0.580	0.330	1.750
2020/01/31 00:53:59.9	104.360	-0.620	0.350	1.730
2020/01/31 00:54:00.0	104.360	-0.640	0.380	1.710
2020/01/31 00:54:00.1	104.340	-0.670	0.400	1.690
2020/01/31 00:54:00.2	104.330	-0.690	0.410	1.670
2020/01/31 00:54:00.3	104.310	-0.710	0.420	1.640
2020/01/31 00:54:00.4	104.300	-0.730	0.420	1.620
2020/01/31 00:54:00.5	104.280	-0.740	0.410	1.590
2020/01/31 00:54:00.6	104.270	-0.750	0.400	1.560
2020/01/31 00:54:00.7	104.260	-0.760	0.390	1.530
2020/01/31 00:54:00.8	104.240	-0.760	0.370	1.490
2020/01/31 00:54:00.9	104.230	-0.750	0.340	1.460
2020/01/31 00:54:01.0	104.210	-0.750	0.300	1.420
2020/01/31 00:54:01.1	104.190	-0.730	0.260	1.380
2020/01/31 00:54:01.2	104.180	-0.720	0.220	1.340
2020/01/31 00:54:01.3	104.160	-0.700	0.170	1.300
2020/01/31 00:54:01.4	104.140	-0.670	0.120	1.260
2020/01/31 00:54:01.5	104.130	-0.640	0.060	1.220
2020/01/31 00:54:01.6	104.110	-0.610	-0.000	1.180
2020/01/31 00:54:01.7	104.090	-0.570	-0.070	1.130
2020/01/31 00:54:01.8	104.070	-0.530	-0.140	1.090
2020/01/31 00:54:01.9	104.050	-0.490	-0.200	1.040
2020/01/31 00:54:02.0	104.050	-0.440	-0.280	1.000
2020/01/31 00:54:02.1	104.030	-0.390	-0.350	0.950
2020/01/31 00:54:02.2	104.010	-0.340	-0.420	0.900
2020/01/31 00:54:02.3	104.000	-0.290	-0.480	0.850
2020/01/31 00:54:02.4	103.980	-0.240	-0.550	0.800
2020/01/31 00:54:02.5	103.960	-0.180	-0.610	0.750
2020/01/31 00:54:02.6	103.950	-0.130	-0.670	0.700
2020/01/31 00:54:02.7	103.930	-0.070	-0.730	0.650
2020/01/31 00:54:02.8	103.920	-0.010	-0.780	0.600
2020/01/31 00:54:02.9	103.910	0.040	-0.830	0.540
2020/01/31 00:54:03.0	103.890	0.100	-0.870	0.490
2020/01/31 00:54:03.1	103.880	0.150	-0.910	0.440
2020/01/31 00:54:03.2	103.870	0.200	-0.940	0.380
2020/01/31 00:54:03.3	103.860	0.250	-0.960	0.330
2020/01/31 00:54:03.4	103.850	0.300	-0.980	0.280
2020/01/31 00:54:03.5	103.840	0.340	-0.990	0.230
2020/01/31 00:54:03.6	103.830	0.380	-0.990	0.180
2020/01/31 00:54:03.7	103.830	0.420	-0.990	0.130
2020/01/31 00:54:03.8	103.820	0.460	-0.980	0.080
2020/01/31 00:54:03.9	103.820	0.490	-0.960	0.030
2020/01/31 00:54:04.0	103.810	0.520	-0.930	-0.020
2020/01/31 00:54:04.1	103.800	0.540	-0.900	-0.060
2020/01/31 00:54:04.2	103.800	0.560	-0.860	-0.100
2020/01/31 00:54:04.3	103.790	0.580	-0.820	-0.140
2020/01/31 00:54:04.4	103.790	0.590	-0.770	-0.180
2020/01/31 00:54:04.5	103.790	0.600	-0.720	-0.220
2020/01/31 00:54:04.6	103.780	0.610	-0.660	-0.250
2020/01/31 00:54:04.7	103.780	0.610	-0.600	-0.280
2020/01/31 00:54:04.8	103.780	0.610	-0.540	-0.310
2020/01/31 00:54:04.9	103.770	0.600	-0.470	-0.330
2020/01/31 00:54:05.0	103.770	0.600	-0.410	-0.350
2020/01/31 00:54:05.1	103.770	0.590	-0.340	-0.370
2020/01/31 00:54:05.2	103.760	0.570	-0.270	-0.390
2020/01/31 00:54:05.3	103.760	0.560	-0.200	-0.400
2020/01/31 00:54:05.4	103.750	0.540	-0.130	-0.410
2020/01/31 00:54:05.5	103.750	0.520	-0.060	-0.420
2020/01/31 00:54:05.6	103.740	0.500	0.010	-0.420
2020/01/31 00:54:05.7	103.740	0.470	0.080	-0.430
2020/01/31 00:54:05.8	103.740	0.450	0.140	-0.430
2020/01/31 00:54:05.9	103.740	0.420	0.210	-0.420
2020/01/31 00:54:06.0	103.740	0.400	0.270	-0.420
2020/01/31 00:54:06.1	103.740	0.370	0.320	-0.410
2020/01/31 00:54:06.2	103.740	0.340	0.380	-0.400
2020/01/31 00:54:06.3	103.750	0.310	0.430	-0.390
2020/01/31 00:54:06.4	103.750	0.280	0.480	-0.370
2020/01/31 00:54:06.5	103.750	0.250	0.520	-0.360
2020/01/31 00:54:06.6	103.760	0.220	0.560	-0.340
2020/01/31 00:54:06.7	103.770	0.190	0.590	-0.310
2020/01/31 00:54:06.8	103.770	0.160	0.630	-0.290
2020/01/31 00:54:06.9	103.780	0.130	0.650	-0.260
2020/01/31 00:54:07.0	103.800	0.100	0.670	-0.230
2020/01/31 00:54:07.1	103.800	0.070	0.690	-0.190
2020/01/31 00:54:07.2	103.810	0.050	0.710	-0.140
2020/01/31 00:54:07.3	103.820	0.020	0.720	-0.100
2020/01/31 00:54:07.4	103.820	-0.010	0.720	-0.050
2020/01/31 00:54:07.5	103.820	-0.030	0.720	0.010
2020/01/31 00:54:07.6	103.830	-0.050	0.720	0.070
2020/01/31 00:54:07.7	103.830	-0.080	0.710	0.130
2020/01/31 00:54:07.8	103.820	-0.100	0.700	0.200
2020/01/31 00:54:07.9	103.820	-0.120	0.680	0.270
2020/01/31 00:54:08.0	103.810	-0.140	0.670	0.350
2020/01/31 00:54:08.1	103.810	-0.160	0.640	0.420
2020/01/31 00:54:08.2	103.800	-0.170	0.610	0.510
2020/01/31 00:54:08.3	103.780	-0.190	0.580	0.590
2020/01/31 00:54:08.4	103.770	-0.200	0.540	0.680
2020/01/31 00:54:08.5	103.750	-0.220	0.500	0.770
2020/01/31 00:54:08.6	103.730	-0.230	0.460	0.870
2020/01/31 00:54:08.7	103.710	-0.230	0.410	0.960
2020/01/31 00:54:08.8	103.690	-0.240	0.360	1.060
2020/01/31 00:54:08.9	103.660	-0.250	0.310	1.160
2020/01/31 00:54:09.0	103.640	-0.250	0.250	1.250
2020/01/31 00:54:09.1	103.610	-0.260	0.190	1.350
2020/01/31 00:54:09.2	103.580	-0.260	0.130	1.440
2020/01/31 00:54:09.3	103.560	-0.260	0.070	1.540
2020/01/31 00:54:09.4	103.530	-0.250	0.010	1.640
2020/01/31 00:54:09.5	103.500	-0.250	-0.060	1.730
2020/01/31 00:54:09.6	103.480	-0.250	-0.120	1.820
2020/01/31 00:54:09.7	103.450	-0.240	-0.190	1.910
2020/01/31 00:54:09.8	103.430	-0.240	-0.250	2.000
2020/01/31 00:54:09.9	103.410	-0.230	-0.320	2.080
2020/01/31 00:54:10.0	103.380	-0.220	-0.390	2.160
2020/01/31 00:54:10.1	103.360	-0.210	-0.450	2.240
2020/01/31 00:54:10.2	103.350	-0.200	-0.510	2.310
2020/01/31 00:54:10.3	103.330	-0.190	-0.570	2.380
2020/01/31 00:54:10.4	103.320	-0.170	-0.620	2.450
2020/01/31 00:54:10.5	103.310	-0.160	-0.680	2.510
2020/01/31 00:54:10.6	103.300	-0.150	-0.730	2.570
2020/01/31 00:54:10.7	103.290	-0.130	-0.780	2.620
2020/01/31 00:54:10.8	103.290	-0.120	-0.820	2.670
2020/01/31 00:54:10.9	103.280	-0.100	-0.860	2.720
2020/01/31 00:54:11.0	103.270	-0.090	-0.900	2.760
2020/01/31 00:54:11.1	103.270	-0.070	-0.930	2.790
2020/01/31 00:54:11.2	103.270	-0.060	-0.960	2.830
2020/01/31 00:54:11.3	103.270	-0.040	-0.990	2.860
2020/01/31 00:54:11.4	103.280	-0.030	-1.010	2.880
2020/01/31 00:54:11.5	103.280	-0.010	-1.030	2.900
2020/01/31 00:54:11.6	103.290	0.010	-1.040	2.920
2020/01/31 00:54:11.7	103.290	0.020	-1.050	2.930
2020/01/31 00:54:11.8	103.300	0.040	-1.050	2.940
2020/01/31 00:54:11.9	103.300	0.060	-1.050	2.950
2020/01/31 00:54:12.0	103.300	0.070	-1.050	2.950
2020/01/31 00:54:12.1	103.310	0.090	-1.040	2.950
2020/01/31 00:54:12.2	103.310	0.100	-1.020	2.940
2020/01/31 00:54:12.3	103.320	0.120	-1.010	2.930
2020/01/31 00:54:12.4	103.330	0.130	-0.980	2.920
2020/01/31 00:54:12.5	103.340	0.150	-0.950	2.900
2020/01/31 00:54:12.6	103.340	0.160	-0.920	2.880
2020/01/31 00:54:12.7	103.350	0.170	-0.890	2.860
2020/01/31 00:54:12.8	103.360	0.190	-0.840	2.830
2020/01/31 00:54:12.9	103.370	0.200	-0.800	2.800
2020/01/31 00:54:13.0	103.390	0.210	-0.760	2.760
2020/01/31 00:54:13.1	103.390	0.220	-0.700	2.720
2020/01/31 00:54:13.2	103.400	0.220	-0.650	2.680
2020/01/31 00:54:13.3	103.410	0.230	-0.590	2.640
2020/01/31 00:54:13.4	103.420	0.240	-0.530	2.590
2020/01/31 00:54:13.5	103.420	0.240	-0.470	2.540
2020/01/31 00:54:13.6	103.430	0.240	-0.410	2.490
2020/01/31 00:54:13.7	103.430	0.240	-0.340	2.430
2020/01/31 00:54:13.8	103.440	0.240	-0.280	2.380
2020/01/31 00:54:13.9	103.440	0.240	-0.210	2.320
2020/01/31 00:54:14.0	103.450	0.240	-0.150	2.260
2020/01/31 00:54:14.1	103.450	0.240	-0.080	2.190
2020/01/31 00:54:14.2	103.450	0.230	-0.020	2.130
2020/01/31 00:54:14.3	103.440	0.220	0.040	2.060
2020/01/31 00:54:14.4	103.440	0.220	0.100	1.990
2020/01/31 00:54:14.5	103.440	0.210	0.160	1.930
2020/01/31 00:54:14.6	103.430	0.200	0.210	1.860
2020/01/31 00:54:14.7	103.420	0.190	0.270	1.790
2020/01/31 00:54:14.8	103.410	0.170	0.310	1.720
2020/01/31 00:54:14.9	103.390	0.160	0.360	1.650
2020/01/31 00:54:15.0	103.370	0.140	0.400	1.580
2020/01/31 00:54:15.1	103.350	0.130	0.440	1.510
2020/01/31 00:54:15.2	103.330	0.110	0.470	1.440
2020/01/31 00:54:15.3	103.310	0.090	0.500	1.370
2020/01/31 00:54:15.4	103.290	0.080	0.530	1.300
2020/01/31 00:54:15.5	103.260	0.060	0.550	1.230
2020/01/31 00:54:15.6	103.240	0.040	0.570	1.160
2020/01/31 00:54:15.7	103.210	0.020	0.590	1.090
2020/01/31 00:54:15.8	103.190	-0.000	0.600	1.020
2020/01/31 00:54:15.9	103.160	-0.020	0.610	0.950
2020/01/31 00:54:16.0	103.150	-0.040	0.610	0.870
2020/01/31 00:54:16.1	103.120	-0.060	0.610	0.800
2020/01/31 00:54:16.2	103.100	-0.080	0.610	0.720
2020/01/31 00:54:16.3	103.080	-0.100	0.610	0.650
2020/01/31 00:54:16.4	103.060	-0.120	0.600	0.570
2020/01/31 00:54:16.5	103.040	-0.140	0.590	0.500
2020/01/31 00:54:16.6	103.020	-0.160	0.570	0.420
2020/01/31 00:54:16.7	103.010	-0.180	0.550	0.340
2020/01/31 00:54:16.8	103.000	-0.200	0.530	0.260
2020/01/31 00:54:16.9	102.990	-0.220	0.510	0.180
2020/01/31 00:54:17.0	102.980	-0.230	0.480	0.100
2020/01/31 00:54:17.1	102.970	-0.250	0.460	0.020
2020/01/31 00:54:17.2	102.960	-0.260	0.430	-0.060
2020/01/31 00:54:17.3	102.960	-0.280	0.390	-0.140
2020/01/31 00:54:17.4	102.960	-0.290	0.360	-0.210
2020/01/31 00:54:17.5	102.960	-0.300	0.320	-0.280
2020/01/31 00:54:17.6	102.960	-0.300	0.290	-0.350
2020/01/31 00:54:17.7	102.960	-0.310	0.250	-0.420
2020/01/31 00:54:17.8	102.960	-0.320	0.200	-0.490
2020/01/31 00:54:17.9	102.960	-0.320	0.160	-0.550
2020/01/31 00:54:18.0	102.970	-0.320	0.120	-0.610
2020/01/31 00:54:18.1	102.970	-0.320	0.070	-0.660
2020/01/31 00:54:18.2	102.970	-0.320	0.030	-0.710
2020/01/31 00:54:18.3	102.980	-0.320	-0.020	-0.750
2020/01/31 00:54:18.4	102.980	-0.310	-0.070	-0.790
2020/01/31 00:54:18.5	102.990	-0.310	-0.110	-0.820
2020/01/31 00:54:18.6	102.990	-0.300	-0.160	-0.850
2020/01/31 00:54:18.7	103.000	-0.300	-0.200	-0.880
2020/01/31 00:54:18.8	103.000	-0.290	-0.250	-0.900
2020/01/31 00:54:18.9	103.010	-0.280	-0.290	-0.920
2020/01/31 00:54:19.0	103.010	-0.270	-0.330	-0.930
2020/01/31 00:54:19.1	103.010	-0.260	-0.370	-0.940
2020/01/31 00:54:19.2	103.020	-0.250	-0.410	-0.940
2020/01/31 00:54:19.3	103.030	-0.240	-0.450	-0.940
2020/01/31 00:54:19.4	103.030	-0.230	-0.480	-0.940
2020/01/31 00:54:19.5	103.040	-0.220	-0.510	-0.930
2020/01/31 00:54:19.6	103.050	-0.210	-0.540	-0.920
2020/01/31 00:54:19.7	103.060	-0.200	-0.570	-0.900
2020/01/31 00:54:19.8	103.070	-0.190	-0.590	-0.880
2020/01/31 00:54:19.9	103.070	-0.180	-0.610	-0.860
2020/01/31 00:54:20.0	103.080	-0.170	-0.630	-0.840
2020/01/31 00:54:20.1	103.090	-0.160	-0.640	-0.810
2020/01/31 00:54:20.2	103.100	-0.160	-0.650	-0.780
2020/01/31 00:54:20.3	103.110	-0.150	-0.660	-0.750
2020/01/31 00:54:20.4	103.120	-0.150	-0.660	-0.710
2020/01/31 00:54:20.5	103.130	-0.140	-0.670	-0.680
2020/01/31 00:54:20.6	103.140	-0.140	-0.660	-0.630
2020/01/31 00:54:20.7	103.160	-0.140	-0.660	-0.590
2020/01/31 00:54:20.8	103.170	-0.130	-0.650	-0.550
2020/01/31 00:54:20.9	103.180	-0.130	-0.640	-0.500
2020/01/31 00:54:21.0	103.180	-0.130	-0.630	-0.450
2020/01/31 00:54:21.1	103.190	-0.130	-0.610	-0.390
2020/01/31 00:54:21.2	103.200	-0.130	-0.590	-0.340
2020/01/31 00:54:21.3	103.210	-0.130	-0.570	-0.280
2020/01/31 00:54:21.4	103.210	-0.130	-0.550	-0.210
2020/01/31 00:54:21.5	103.220	-0.130	-0.520	-0.150
2020/01/31 00:54:21.6	103.220	-0.130	-0.500	-0.080
2020/01/31 00:54:21.7	103.220	-0.130	-0.470	-0.000
2020/01/31 00:54:21.8	103.220	-0.130	-0.440	0.070
2020/01/31 00:54:21.9	103.220	-0.130	-0.420	0.150
2020/01/31 00:54:22.0	103.210	-0.120	-0.390	0.240
2020/01/31 00:54:22.1	103.200	-0.120	-0.360	0.330
2020/01/31 00:54:22.2	103.190	-0.110	-0.330	0.420
2020/01/31 00:54:22.3	103.180	-0.100	-0.310	0.510
2020/01/31 00:54:22.4	103.170	-0.090	-0.280	0.600
2020/01/31 00:54:22.5	103.150	-0.080	-0.260	0.700
2020/01/31 00:54:22.6	103.130	-0.070	-0.230	0.800
2020/01/31 00:54:22.7	103.110	-0.060	-0.210	0.910
2020/01/31 00:54:22.8	103.080	-0.040	-0.200	1.010
2020/01/31 00:54:22.9	103.060	-0.020	-0.180	1.120
2020/01/31 00:54:23.0	103.030	0.000	-0.160	1.220
2020/01/31 00:54:23.1	103.000	0.020	-0.150	1.330
2020/01/31 00:54:23.2	102.970	0.050	-0.140	1.440
2020/01/31 00:54:23.3	102.940	0.080	-0.140	1.540
2020/01/31 00:54:23.4	102.910	0.110	-0.140	1.650
2020/01/31 00:54:23.5	102.880	0.140	-0.140	1.750
2020/01/31 00:54:23.6	102.840	0.170	-0.140	1.850
2020/01/31 00:54:23.7	102.810	0.200	-0.140	1.950
2020/01/31 00:54:23.8	102.780	0.240	-0.150	2.040
2020/01/31 00:54:23.9	102.750	0.280	-0.160	2.130
2020/01/31 00:54:24.0	102.710	0.310	-0.170	2.230
2020/01/31 00:54:24.1	102.680	0.350	-0.180	2.310
2020/01/31 00:54:24.2	102.650	0.390	-0.200	2.390
2020/01/31 00:54:24.3	102.620	0.420	-0.210	2.460
2020/01/31 00:54:24.4	102.600	0.460	-0.230	2.520
2020/01/31 00:54:24.5	102.570	0.490	-0.240	2.590
2020/01/31 00:54:24.6	102.550	0.530	-0.250	2.640
2020/01/31 00:54:24.7	102.530	0.560	-0.270	2.690
2020/01/31 00:54:24.8	102.510	0.590	-0.280	2.730
2020/01/31 00:54:24.9	102.500	0.620	-0.290	2.760
2020/01/31 00:54:25.0	102.480	0.640	-0.300	2.780
2020/01/31 00:54:25.1	102.470	0.660	-0.310	2.800
2020/01/31 00:54:25.2	102.470	0.680	-0.310	2.810
2020/01/31 00:54:25.3	102.470	0.700	-0.310	2.810
2020/01/31 00:54:25.4	102.470	0.710	-0.310	2.800
2020/01/31 00:54:25.5	102.470	0.720	-0.300	2.790
2020/01/31 00:54:25.6	102.480	0.720	-0.290	2.770
2020/01/31 00:54:25.7	102.490	0.720	-0.280	2.740
2020/01/31 00:54:25.8	102.500	0.710	-0.260	2.710
2020/01/31 00:54:25.9	102.520	0.700	-0.240	2.670
2020/01/31 00:54:26.0	102.530	0.690	-0.210	2.630
2020/01/31 00:54:26.1	102.550	0.670	-0.190	2.580
2020/01/31 00:54:26.2	102.570	0.650	-0.160	2.520
2020/01/31 00:54:26.3	102.590	0.620	-0.120	2.460
2020/01/31 00:54:26.4	102.620	0.590	-0.080	2.400
2020/01/31 00:54:26.5	102.650	0.560	-0.040	2.340
2020/01/31 00:54:26.6	102.670	0.520	-0.000	2.270
2020/01/31 00:54:26.7	102.700	0.480	0.040	2.200
2020/01/31 00:54:26.8	102.730	0.430	0.080	2.130
2020/01/31 00:54:26.9	102.760	0.390	0.130	2.060
2020/01/31 00:54:27.0	102.790	0.340	0.170	1.990
2020/01/31 00:54:27.1	102.820	0.290	0.220	1.910
2020/01/31 00:54:27.2	102.850	0.240	0.260	1.840
2020/01/31 00:54:27.3	102.880	0.180	0.300	1.770
2020/01/31 00:54:27.4	102.900	0.130	0.340	1.700
2020/01/31 00:54:27.5	102.930	0.080	0.380	1.630
2020/01/31 00:54:27.6	102.960	0.020	0.410	1.560
2020/01/31 00:54:27.7	102.980	-0.030	0.440	1.490
2020/01/31 00:54:27.8	103.000	-0.080	0.470	1.420
2020/01/31 00:54:27.9	103.020	-0.130	0.490	1.350
2020/01/31 00:54:28.0	103.040	-0.180	0.510	1.290
2020/01/31 00:54:28.1	103.060	-0.230	0.520	1.220
2020/01/31 00:54:28.2	103.080	-0.270	0.520	1.160
2020/01/31 00:54:28.3	103.090	-0.310	0.520	1.100
2020/01/31 00:54:28.4	103.100	-0.350	0.510	1.040
2020/01/31 00:54:28.5	103.110	-0.380	0.500	0.990
2020/01/31 00:54:28.6	103.120	-0.410	0.480	0.930
2020/01/31 00:54:28.7	103.130	-0.430	0.450	0.880
2020/01/31 00:54:28.8	103.130	-0.460	0.420	0.830
2020/01/31 00:54:28.9	103.130	-0.470	0.380	0.790
2020/01/31 00:54:29.0	103.150	-0.490	0.330	0.740
2020/01/31 00:54:29.1	103.150	-0.500	0.280	0.690
2020/01/31 00:54:29.2	103.150	-0.510	0.230	0.650
2020/01/31 00:54:29.3	103.140	-0.510	0.170	0.610
2020/01/31 00:54:29.4	103.140	-0.510	0.110	0.570
2020/01/31 00:54:29.5	103.140	-0.500	0.050	0.530
2020/01/31 00:54:29.6	103.140	-0.500	-0.010	0.490
2020/01/31 00:54:29.7	103.140	-0.490	-0.080	0.450
2020/01/31 00:54:29.8	103.140	-0.480	-0.140	0.420
2020/01/31 00:54:29.9	103.140	-0.470	-0.210	0.380
2020/01/31 00:54:30.0	103.140	-0.450	-0.270	0.350
2020/01/31 00:54:30.1	103.150	-0.440	-0.330	0.320
2020/01/31 00:54:30.2	103.150	-0.420	-0.390	0.290
2020/01/31 00:54:30.3	103.150	-0.400	-0.440	0.270
2020/01/31 00:54:30.4	103.150	-0.380	-0.490	0.240
2020/01/31 00:54:30.5	103.160	-0.370	-0.530	0.220
2020/01/31 00:54:30.6	103.160	-0.350	-0.570	0.210
2020/01/31 00:54:30.7	103.160	-0.330	-0.600	0.190
2020/01/31 00:54:30.8	103.160	-0.320	-0.630	0.180
2020/01/31 00:54:30.9	103.170	-0.300	-0.650	0.170
2020/01/31 00:54:31.0	103.160	-0.290	-0.670	0.160
2020/01/31 00:54:31.1	103.170	-0.270	-0.680	0.160
2020/01/31 00:54:31.2	103.170	-0.260	-0.680	0.160
2020/01/31 00:54:31.3	103.170	-0.250	-0.680	0.160
2020/01/31 00:54:31.4	103.160	-0.240	-0.670	0.170
2020/01/31 00:54:31.5	103.160	-0.230	-0.650	0.170
2020/01/31 00:54:31.6	103.160	-0.230	-0.630	0.190
2020/01/31 00:54:31.7	103.160	-0.220	-0.610	0.200
2020/01/31 00:54:31.8	103.150	-0.220	-0.580	0.220
2020/01/31 00:54:31.9	103.150	-0.210	-0.540	0.230
2020/01/31 00:54:32.0	103.150	-0.210	-0.500	0.250
2020/01/31 00:54:32.1	103.140	-0.210	-0.460	0.270
2020/01/31 00:54:32.2	103.140	-0.200	-0.420	0.290
2020/01/31 00:54:32.3	103.130	-0.200	-0.380	0.310
2020/01/31 00:54:32.4	103.120	-0.200	-0.330	0.330
2020/01/31 00:54:32.5	103.120	-0.200	-0.280	0.350
2020/01/31 00:54:32.6	103.110	-0.200	-0.240	0.370
2020/01/31 00:54:32.7	103.100	-0.200	-0.190	0.390
2020/01/31 00:54:32.8	103.100	-0.190	-0.150	0.410
2020/01/31 00:54:32.9	103.090	-0.190	-0.110	0.430
2020/01/31 00:54:33.0	103.090	-0.190	-0.070	0.450
2020/01/31 00:54:33.1	103.080	-0.180	-0.030	0.460
2020/01/31 00:54:33.2	103.070	-0.180	0.000	0.470
2020/01/31 00:54:33.3	103.070	-0.170	0.030	0.490
2020/01/31 00:54:33.4	103.060	-0.160	0.050	0.500
2020/01/31 00:54:33.5	103.060	-0.150	0.070	0.500
2020/01/31 00:54:33.6	103.060	-0.140	0.080	0.510
2020/01/31 00:54:33.7	103.060	-0.120	0.090	0.520
2020/01/31 00:54:33.8	103.050	-0.110	0.100	0.520
2020/01/31 00:54:33.9	103.050	-0.090	0.090	0.520
2020/01/31 00:54:34.0	103.050	-0.070	0.090	0.520
2020/01/31 00:54:34.1	103.050	-0.050	0.080	0.520
2020/01/31 00:54:34.2	103.050	-0.030	0.060	0.520
2020/01/31 00:54:34.3	103.050	-0.010	0.040	0.520
2020/01/31 00:54:34.4	103.050	0.020	0.010	0.520
2020/01/31 00:54:34.5	103.060	0.040	-0.010	0.520
2020/01/31 00:54:34.6	103.060	0.070	-0.040	0.520
2020/01/31 00:54:34.7	103.060	0.100	-0.080	0.520
2020/01/31 00:54:34.8	103.060	0.120	-0.110	0.520
2020/01/31 00:54:34.9	103.060	0.150	-0.150	0.530
2020/01/31 00:54:35.0	103.070	0.180	-0.190	0.530
2020/01/31 00:54:35.1	103.070	0.200	-0.220	0.530
2020/01/31 00:54:35.2	103.070	0.230	-0.260	0.540
2020/01/31 00:54:35.3	103.070	0.260	-0.290	0.540
2020/01/31 00:54:35.4	103.060	0.280	-0.330	0.550
2020/01/31 00:54:35.5	103.060	0.310	-0.360	0.560
2020/01/31 00:54:35.6	103.050	0.330	-0.390	0.570
2020/01/31 00:54:35.7	103.050	0.350	-0.420	0.580
2020/01/31 00:54:35.8	103.040	0.370	-0.440	0.590
2020/01/31 00:54:35.9	103.030	0.390	-0.470	0.610
2020/01/31 00:54:36.0	103.020	0.400	-0.490	0.630
2020/01/31 00:54:36.1	103.010	0.420	-0.500	0.650
2020/01/31 00:54:36.2	103.000	0.430	-0.510	0.670
2020/01/31 00:54:36.3	102.990	0.440	-0.520	0.690
2020/01/31 00:54:36.4	102.980	0.450	-0.530	0.710
2020/01/31 00:54:36.5	102.960	0.450	-0.530	0.730
2020/01/31 00:54:36.6	102.950	0.450	-0.530	0.760
2020/01/31 00:54:36.7	102.940	0.450	-0.530	0.790
2020/01/31 00:54:36.8	102.930	0.450	-0.520	0.810
2020/01/31 00:54:36.9	102.920	0.440	-0.510	0.840
2020/01/31 00:54:37.0	102.900	0.440	-0.500	0.860
2020/01/31 00:54:37.1	102.890	0.430	-0.490	0.890
2020/01/31 00:54:37.2	102.880	0.420	-0.470	0.920
2020/01/31 00:54:37.3	102.880	0.400	-0.450	0.940
2020/01/31 00:54:37.4	102.870	0.390	-0.440	0.970
2020/01/31 00:54:37.5	102.870	0.370	-0.420	1.000
2020/01/31 00:54:37.6	102.860	0.360	-0.390	1.020
2020/01/31 00:54:37.7	102.860	0.340	-0.370	1.050
2020/01/31 00:54:37.8	102.860	0.320	-0.350	1.070
2020/01/31 00:54:37.9	102.860	0.300	-0.320	1.100
2020/01/31 00:54:38.0	102.860	0.280	-0.300	1.120
2020/01/31 00:54:38.1	102.860	0.260	-0.270	1.150
2020/01/31 00:54:38.2	102.870	0.240	-0.240	1.170
2020/01/31 00:54:38.3	102.870	0.220	-0.220	1.190
2020/01/31 00:54:38.4	102.880	0.200	-0.190	1.210
2020/01/31 00:54:38.5	102.890	0.180	-0.160	1.230
2020/01/31 00:54:38.6	102.900	0.170	-0.130	1.240
2020/01/31 00:54:38.7	102.910	0.150	-0.100	1.260
2020/01/31 00:54:38.8	102.920	0.130	-0.070	1.280
2020/01/31 00:54:38.9	102.930	0.120	-0.050	1.290
2020/01/31 00:54:39.0	102.940	0.100	-0.020	1.300
2020/01/31 00:54:39.1	102.950	0.090	0.010	1.320
2020/01/31 00:54:39.2	102.970	0.070	0.040	1.330
2020/01/31 00:54:39.3	102.980	0.060	0.060	1.340
2020/01/31 00:54:39.4	103.000	0.050	0.090	1.350
2020/01/31 00:54:39.5	103.010	0.030	0.120	1.360
2020/01/31 00:54:39.6	103.030	0.020	0.140	1.370
2020/01/31 00:54:39.7	103.050	0.010	0.170	1.370
2020/01/31 00:54:39.8	103.070	-0.000	0.190	1.380
2020/01/31 00:54:39.9	103.090	-0.010	0.220	1.390
2020/01/31 00:54:40.0	103.110	-0.020	0.240	1.390
2020/01/31 00:54:40.1	103.130	-0.030	0.260	1.400
2020/01/31 00:54:40.2	103.150	-0.050	0.280	1.400
2020/01/31 00:54:40.3	103.170	-0.060	0.300	1.410
2020/01/31 00:54:40.4	103.190	-0.070	0.320	1.420
2020/01/31 00:54:40.5	103.210	-0.080	0.330	1.430
2020/01/31 00:54:40.6	103.230	-0.090	0.350	1.430
2020/01/31 00:54:40.7	103.250	-0.100	0.360	1.440
2020/01/31 00:54:40.8	103.260	-0.120	0.370	1.450
2020/01/31 00:54:40.9	103.280	-0.130	0.390	1.460
2020/01/31 00:54:41.0	103.310	-0.140	0.390	1.470
2020/01/31 00:54:41.1	103.330	-0.160	0.400	1.480
2020/01/31 00:54:41.2	103.340	-0.170	0.410	1.490
2020/01/31 00:54:41.3	103.350	-0.190	0.410	1.500
2020/01/31 00:54:41.4	103.370	-0.200	0.410	1.510
2020/01/31 00:54:41.5	103.380	-0.220	0.410	1.520
2020/01/31 00:54:41.6	103.390	-0.230	0.400	1.530
2020/01/31 00:54:41.7	103.400	-0.250	0.400	1.540
2020/01/31 00:54:41.8	103.410	-0.260	0.390	1.540
2020/01/31 00:54:41.9	103.410	-0.280	0.370	1.550
2020/01/31 00:54:42.0	103.420	-0.290	0.360	1.560
2020/01/31 00:54:42.1	103.420	-0.310	0.340	1.570
2020/01/31 00:54:42.2	103.420	-0.320	0.320	1.580
2020/01/31 00:54:42.3	103.420	-0.340	0.300	1.580
2020/01/31 00:54:42.4	103.420	-0.350	0.270	1.590
2020/01/31 00:54:42.5	103.420	-0.360	0.240	1.590
2020/01/31 00:54:42.6	103.410	-0.370	0.210	1.590
2020/01/31 00:54:42.7	103.410	-0.380	0.180	1.600
2020/01/31 00:54:42.8	103.400	-0.390	0.150	1.600
2020/01/31 00:54:42.9	103.390	-0.390	0.110	1.600
2020/01/31 00:54:43.0	103.380	-0.400	0.070	1.590
2020/01/31 00:54:43.1	103.370	-0.400	0.030	1.590
2020/01/31 00:54:43.2	103.350	-0.400	-0.010	1.590
2020/01/31 00:54:43.3	103.340	-0.400	-0.050	1.590
2020/01/31 00:54:43.4	103.320	-0.400	-0.090	1.580
2020/01/31 00:54:43.5	103.310	-0.390	-0.140	1.580
2020/01/31 00:54:43.6	103.290	-0.380	-0.180	1.570
2020/01/31 00:54:43.7	103.270	-0.370	-0.230	1.560
2020/01/31 00:54:43.8	103.250	-0.360	-0.280	1.560
2020/01/31 00:54:43.9	103.230	-0.350	-0.320	1.540
2020/01/31 00:54:44.0	103.190	-0.330	-0.370	1.530
2020/01/31 00:54:44.1	103.180	-0.310	-0.420	1.520
2020/01/31 00:54:44.2	103.160	-0.290	-0.460	1.500
2020/01/31 00:54:44.3	103.140	-0.270	-0.510	1.490
2020/01/31 00:54:44.4	103.120	-0.240	-0.550	1.470
2020/01/31 00:54:44.5	103.110	-0.220	-0.600	1.450
2020/01/31 00:54:44.6	103.100	-0.190	-0.640	1.430
2020/01/31 00:54:44.7	103.080	-0.160	-0.680	1.400
2020/01/31 00:54:44.8	103.070	-0.130	-0.720	1.380
2020/01/31 00:54:44.9	103.060	-0.100	-0.750	1.350
2020/01/31 00:54:45.0	103.050	-0.070	-0.780	1.320
2020/01/31 00:54:45.1	103.040	-0.040	-0.810	1.290
2020/01/31 00:54:45.2	103.030	-0.010	-0.840	1.260
2020/01/31 00:54:45.3	103.030	0.020	-0.870	1.220
2020/01/31 00:54:45.4	103.020	0.050	-0.890	1.190
2020/01/31 00:54:45.5	103.020	0.080	-0.900	1.160
2020/01/31 00:54:45.6	103.020	0.110	-0.910	1.120
2020/01/31 00:54:45.7	103.020	0.130	-0.920	1.090
2020/01/31 00:54:45.8	103.020	0.160	-0.930	1.050
2020/01/31 00:54:45.9	103.020	0.180	-0.930	1.010
2020/01/31 00:54:46.0	103.020	0.200	-0.920	0.970
2020/01/31 00:54:46.1	103.020	0.220	-0.910	0.940
2020/01/31 00:54:46.2	103.020	0.240	-0.900	0.900
2020/01/31 00:54:46.3	103.020	0.250	-0.880	0.860
2020/01/31 00:54:46.4	103.030	0.270	-0.860	0.820
2020/01/31 00:54:46.5	103.030	0.280	-0.830	0.780
2020/01/31 00:54:46.6	103.030	0.290	-0.800	0.740
2020/01/31 00:54:46.7	103.030	0.290	-0.770	0.700
2020/01/31 00:54:46.8	103.040	0.300	-0.730	0.650
2020/01/31 00:54:46.9	103.040	0.300	-0.680	0.610
2020/01/31 00:54:47.0	103.040	0.300	-0.630	0.570
2020/01/31 00:54:47.1	103.040	0.300	-0.580	0.530
2020/01/31 00:54:47.2	103.040	0.300	-0.530	0.490
2020/01/31 00:54:47.3	103.040	0.290	-0.470	0.440
2020/01/31 00:54:47.4	103.040	0.290	-0.420	0.400
2020/01/31 00:54:47.5	103.040	0.280	-0.360	0.360
2020/01/31 00:54:47.6	103.040	0.270	-0.300	0.320
2020/01/31 00:54:47.7	103.040	0.260	-0.240	0.280
2020/01/31 00:54:47.8	103.040	0.250	-0.170	0.240
2020/01/31 00:54:47.9	103.030	0.240	-0.110	0.200
2020/01/31 00:54:48.0	103.040	0.230	-0.050	0.160
2020/01/31 00:54:48.1	103.030	0.220	0.010	0.130
2020/01/31 00:54:48.2	103.030	0.210	0.060	0.100
2020/01/31 00:54:48.3	103.020	0.200	0.120	0.060
2020/01/31 00:54:48.4	103.010	0.190	0.170	0.040
2020/01/31 00:54:48.5	103.010	0.180	0.210	0.010
2020/01/31 00:54:48.6	103.000	0.180	0.260	-0.020
2020/01/31 00:54:48.7	102.990	0.170	0.290	-0.040
2020/01/31 00:54:48.8	102.980	0.160	0.330	-0.060
2020/01/31 00:54:48.9	102.980	0.160	0.360	-0.080
2020/01/31 00:54:49.0	102.970	0.160	0.380	-0.100
2020/01/31 00:54:49.1	102.960	0.150	0.400	-0.120
2020/01/31 00:54:49.2	102.960	0.150	0.410	-0.130
2020/01/31 00:54:49.3	102.950	0.150	0.410	-0.140
2020/01/31 00:54:49.4	102.950	0.160	0.410	-0.150
2020/01/31 00:54:49.5	102.940	0.160	0.410	-0.170
2020/01/31 00:54:49.6	102.940	0.160	0.400	-0.170
2020/01/31 00:54:49.7	102.940	0.170	0.380	-0.180
2020/01/31 00:54:49.8	102.940	0.180	0.370	-0.190
2020/01/31 00:54:49.9	102.950	0.180	0.340	-0.200
2020/01/31 00:54:50.0	102.950	0.190	0.310	-0.200
2020/01/31 00:54:50.1	102.960	0.200	0.280	-0.210
2020/01/31 00:54:50.2	102.960	0.210	0.250	-0.210
2020/01/31 00:54:50.3	102.970	0.220	0.220	-0.210
2020/01/31 00:54:50.4	102.980	0.230	0.180	-0.210
2020/01/31 00:54:50.5	102.990	0.230	0.140	-0.210
2020/01/31 00:54:50.6	103.000	0.240	0.100	-0.210
2020/01/31 00:54:50.7	103.020	0.250	0.070	-0.210
2020/01/31 00:54:50.8	103.030	0.250	0.030	-0.200
2020/01/31 00:54:50.9	103.050	0.260	-0.010	-0.190
2020/01/31 00:54:51.0	103.050	0.260	-0.040	-0.180
2020/01/31 00:54:51.1	103.070	0.260	-0.080	-0.160
2020/01/31 00:54:51.2	103.080	0.260	-0.110	-0.140
2020/01/31 00:54:51.3	103.100	0.260	-0.130	-0.120
2020/01/31 00:54:51.4	103.110	0.250	-0.160	-0.100
2020/01/31 00:54:51.5	103.130	0.240	-0.170	-0.070
2020/01/31 00:54:51.6	103.140	0.230	-0.190	-0.040
2020/01/31 00:54:51.7	103.160	0.220	-0.200	-0.010
2020/01/31 00:54:51.8	103.170	0.200	-0.210	0.030
2020/01/31 00:54:51.9	103.190	0.180	-0.210	0.070
2020/01/31 00:54:52.0	103.200	0.160	-0.200	0.110
2020/01/31 00:54:52.1	103.210	0.140	-0.190	0.150
2020/01/31 00:54:52.2	103.220	0.110	-0.180	0.200
2020/01/31 00:54:52.3	103.240	0.090	-0.160	0.240
2020/01/31 00:54:52.4	103.250	0.060	-0.130	0.290
2020/01/31 00:54:52.5	103.270	0.020	-0.110	0.340
2020/01/31 00:54:52.6	103.280	-0.010	-0.070	0.400
2020/01/31 00:54:52.7	103.300	-0.050	-0.040	0.450
2020/01/31 00:54:52.8	103.310	-0.080	0.000	0.500
2020/01/31 00:54:52.9	103.330	-0.120	0.040	0.560
2020/01/31 00:54:53.0	103.340	-0.160	0.090	0.610
2020/01/31 00:54:53.1	103.350	-0.200	0.130	0.670
2020/01/31 00:54:53.2	103.370	-0.240	0.180	0.720
2020/01/31 00:54:53.3	103.380	-0.280	0.220	0.780
2020/01/31 00:54:53.4	103.390	-0.320	0.260	0.840
2020/01/31 00:54:53.5	103.400	-0.350	0.300	0.900
2020/01/31 00:54:53.6	103.420	-0.390	0.340	0.960
2020/01/31 00:54:53.7	103.430	-0.420	0.370	1.020
2020/01/31 00:54:53.8	103.440	-0.460	0.400	1.080
2020/01/31 00:54:53.9	103.440	-0.480	0.420	1.130
2020/01/31 00:54:54.0	103.450	-0.510	0.430	1.190
2020/01/31 00:54:54.1	103.450	-0.530	0.440	1.250
2020/01/31 00:54:54.2	103.460	-0.550	0.440	1.320
2020/01/31 00:54:54.3	103.460	-0.570	0.440	1.380
2020/01/31 00:54:54.4	103.460	-0.580	0.420	1.440
2020/01/31 00:54:54.5	103.460	-0.590	0.400	1.500
2020/01/31 00:54:54.6	103.450	-0.590	0.370	1.560
2020/01/31 00:54:54.7	103.450	-0.590	0.330	1.620
2020/01/31 00:54:54.8	103.440	-0.590	0.280	1.690
2020/01/31 00:54:54.9	103.430	-0.580	0.220	1.750
2020/01/31 00:54:55.0	103.420	-0.570	0.160	1.820
2020/01/31 00:54:55.1	103.400	-0.550	0.090	1.880
2020/01/31 00:54:55.2	103.390	-0.530	0.010	1.940
2020/01/31 00:54:55.3	103.370	-0.500	-0.070	2.010
2020/01/31 00:54:55.4	103.360	-0.470	-0.160	2.070
2020/01/31 00:54:55.5	103.340	-0.440	-0.250	2.140
2020/01/31 00:54:55.6	103.320	-0.410	-0.340	2.200
2020/01/31 00:54:55.7	103.300	-0.370	-0.430	2.260
2020/01/31 00:54:55.8	103.280	-0.330	-0.520	2.320
2020/01/31 00:54:55.9	103.250	-0.290	-0.620	2.380
2020/01/31 00:54:56.0	103.220	-0.250	-0.710	2.430
2020/01/31 00:54:56.1	103.190	-0.210	-0.790	2.490
2020/01/31 00:54:56.2	103.170	-0.170	-0.880	2.540
2020/01/31 00:54:56.3	103.150	-0.120	-0.950	2.590
2020/01/31 00:54:56.4	103.130	-0.080	-1.020	2.630
2020/01/31 00:54:56.5	103.110	-0.040	-1.090	2.680
2020/01/31 00:54:56.6	103.090	0.000	-1.140	2.710
2020/01/31 00:54:56.7	103.070	0.040	-1.190	2.750
2020/01/31 00:54:56.8	103.050	0.080	-1.230	2.780
2020/01/31 00:54:56.9	103.030	0.110	-1.250	2.800
2020/01/31 00:54:57.0	103.010	0.150	-1.280	2.820
2020/01/31 00:54:57.1	102.990	0.180	-1.280	2.840
2020/01/31 00:54:57.2	102.980	0.210	-1.280	2.850
2020/01/31 00:54:57.3	102.960	0.240	-1.270	2.860
2020/01/31 00:54:57.4	102.950	0.260	-1.250	2.860
2020/01/31 00:54:57.5	102.940	0.280	-1.220	2.860
2020/01/31 00:54:57.6	102.930	0.300	-1.180	2.860
2020/01/31 00:54:57.7	102.920	0.310	-1.140	2.840
2020/01/31 00:54:57.8	102.920	0.330	-1.080	2.830
2020/01/31 00:54:57.9	102.910	0.330	-1.020	2.810
2020/01/31 00:54:58.0	102.910	0.340	-0.950	2.780
2020/01/31 00:54:58.1	102.910	0.340	-0.870	2.750
2020/01/31 00:54:58.2	102.910	0.350	-0.790	2.710
2020/01/31 00:54:58.3	102.920	0.340	-0.710	2.670
2020/01/31 00:54:58.4	102.920	0.340	-0.620	2.620
2020/01/31 00:54:58.5	102.930	0.330	-0.530	2.560
2020/01/31 00:54:58.6	102.940	0.330	-0.440	2.500
2020/01/31 00:54:58.7	102.950	0.320	-0.350	2.440
2020/01/31 00:54:58.8	102.970	0.300	-0.250	2.370
2020/01/31 00:54:58.9	102.980	0.290	-0.160	2.290
2020/01/31 00:54:59.0	103.000	0.270	-0.070	2.210
2020/01/31 00:54:59.1	103.020	0.260	0.020	2.130
2020/01/31 00:54:59.2	103.040	0.240	0.100	2.040
2020/01/31 00:54:59.3	103.050	0.220	0.180	1.950
2020/01/31 00:54:59.4	103.070	0.210	0.260	1.860
2020/01/31 00:54:59.5	103.090	0.190	0.330	1.760
2020/01/31 00:54:59.6	103.110	0.170	0.390	1.660
2020/01/31 00:54:59.7	103.130	0.150	0.450	1.560
2020/01/31 00:54:59.8	103.140	0.130	0.510	1.460
2020/01/31 00:54:59.9	103.160	0.110	0.560	1.360
2020/01/31 00:55:00.0	103.170	0.100	0.600	1.250
2020/01/31 00:55:00.1	103.180	0.080	0.630	1.150
2020/01/31 00:55:00.2	103.190	0.060	0.660	1.050
2020/01/31 00:55:00.3	103.200	0.050	0.680	0.950
2020/01/31 00:55:00.4	103.200	0.030	0.700	0.850
2020/01/31 00:55:00.5	103.200	0.020	0.710	0.750
2020/01/31 00:55:00.6	103.200	0.010	0.720	0.660
2020/01/31 00:55:00.7	103.200	-0.000	0.720	0.560
2020/01/31 00:55:00.8	103.190	-0.010	0.710	0.470
2020/01/31 00:55:00.9	103.180	-0.020	0.700	0.370
2020/01/31 00:55:01.0	103.170	-0.030	0.680	0.280
2020/01/31 00:55:01.1	103.160	-0.040	0.660	0.190
2020/01/31 00:55:01.2	103.150	-0.040	0.640	0.110
2020/01/31 00:55:01.3	103.140	-0.040	0.610	0.030
2020/01/31 00:55:01.4	103.120	-0.050	0.580	-0.060
2020/01/31 00:55:01.5	103.110	-0.050	0.540	-0.140
2020/01/31 00:55:01.6	103.100	-0.050	0.500	-0.210
2020/01/31 00:55:01.7	103.080	-0.050	0.460	-0.290
2020/01/31 00:55:01.8	103.070	-0.050	0.420	-0.360
2020/01/31 00:55:01.9	103.050	-0.050	0.380	-0.430
2020/01/31 00:55:02.0	103.030	-0.050	0.330	-0.500
2020/01/31 00:55:02.1	103.020	-0.050	0.290	-0.570
2020/01/31 00:55:02.2	103.010	-0.050	0.240	-0.630
2020/01/31 00:55:02.3	102.990	-0.050	0.190	-0.690
2020/01/31 00:55:02.4	102.990	-0.050	0.150	-0.740
2020/01/31 00:55:02.5	102.980	-0.040	0.100	-0.800
2020/01/31 00:55:02.6	102.970	-0.040	0.050	-0.850
2020/01/31 00:55:02.7	102.960	-0.040	0.000	-0.890
2020/01/31 00:55:02.8	102.960	-0.030	-0.040	-0.930
2020/01/31 00:55:02.9	102.950	-0.030	-0.090	-0.970
2020/01/31 00:55:03.0	102.960	-0.030	-0.140	-1.010
2020/01/31 00:55:03.1	102.960	-0.030	-0.180	-1.030
2020/01/31 00:55:03.2	102.960	-0.020	-0.220	-1.060
2020/01/31 00:55:03.3	102.960	-0.020	-0.260	-1.080
2020/01/31 00:55:03.4	102.960	-0.020	-0.300	-1.090
2020/01/31 00:55:03.5	102.960	-0.020	-0.340	-1.100
2020/01/31 00:55:03.6	102.960	-0.020	-0.370	-1.100
2020/01/31 00:55:03.7	102.960	-0.020	-0.410	-1.100
2020/01/31 00:55:03.8	102.960	-0.010	-0.440	-1.090
2020/01/31 00:55:03.9	102.960	-0.010	-0.470	-1.080
2020/01/31 00:55:04.0	102.950	-0.010	-0.500	-1.060
2020/01/31 00:55:04.1	102.950	-0.010	-0.530	-1.040
2020/01/31 00:55:04.2	102.950	-0.010	-0.550	-1.010
2020/01/31 00:55:04.3	102.950	-0.010	-0.570	-0.970
2020/01/31 00:55:04.4	102.940	-0.000	-0.600	-0.930
2020/01/31 00:55:04.5	102.940	-0.000	-0.610	-0.880
2020/01/31 00:55:04.6	102.940	0.000	-0.630	-0.830
2020/01/31 00:55:04.7	102.930	0.000	-0.650	-0.770
2020/01/31 00:55:04.8	102.930	0.000	-0.660	-0.710
2020/01/31 00:55:04.9	102.930	0.010	-0.670	-0.650
2020/01/31 00:55:05.0	102.920	0.010	-0.680	-0.590
2020/01/31 00:55:05.1	102.920	0.010	-0.690	-0.520
2020/01/31 00:55:05.2	102.920	0.010	-0.700	-0.450
2020/01/31 00:55:05.3	102.920	0.020	-0.700	-0.370
2020/01/31 00:55:05.4	102.920	0.020	-0.700	-0.300
2020/01/31 00:55:05.5	102.920	0.020	-0.700	-0.230
2020/01/31 00:55:05.6	102.920	0.020	-0.700	-0.150
2020/01/31 00:55:05.7	102.920	0.020	-0.690	-0.070
2020/01/31 00:55:05.8	102.930	0.020	-0.690	0.000
2020/01/31 00:55:05.9	102.930	0.020	-0.680	0.080
2020/01/31 00:55:06.0	102.940	0.020	-0.660	0.160
2020/01/31 00:55:06.1	102.940	0.020	-0.650	0.240
2020/01/31 00:55:06.2	102.950	0.020	-0.630	0.310
2020/01/31 00:55:06.3	102.960	0.020	-0.610	0.390
2020/01/31 00:55:06.4	102.960	0.020	-0.590	0.470
2020/01/31 00:55:06.5	102.970	0.010	-0.570	0.550
2020/01/31 00:55:06.6	102.980	0.010	-0.550	0.630
2020/01/31 00:55:06.7	102.990	0.010	-0.520	0.710
2020/01/31 00:55:06.8	102.990	0.000	-0.490	0.800
2020/01/31 00:55:06.9	103.000	-0.000	-0.460	0.880
2020/01/31 00:55:07.0	103.000	-0.010	-0.430	0.960
2020/01/31 00:55:07.1	103.010	-0.010	-0.400	1.050
2020/01/31 00:55:07.2	103.010	-0.020	-0.360	1.130
2020/01/31 00:55:07.3	103.010	-0.030	-0.330	1.220
2020/01/31 00:55:07.4	103.020	-0.030	-0.290	1.300
2020/01/31 00:55:07.5	103.020	-0.040	-0.250	1.390
2020/01/31 00:55:07.6	103.020	-0.050	-0.210	1.470
2020/01/31 00:55:07.7	103.020	-0.060	-0.170	1.560
2020/01/31 00:55:07.8	103.020	-0.060	-0.130	1.640
2020/01/31 00:55:07.9	103.020	-0.070	-0.090	1.730
2020/01/31 00:55:08.0	103.020	-0.080	-0.050	1.810
2020/01/31 00:55:08.1	103.020	-0.080	-0.010	1.890
2020/01/31 00:55:08.2	103.020	-0.090	0.030	1.970
2020/01/31 00:55:08.3	103.010	-0.100	0.070	2.050
2020/01/31 00:55:08.4	103.010	-0.100	0.110	2.130
2020/01/31 00:55:08.5	103.010	-0.110	0.140	2.200
2020/01/31 00:55:08.6	103.000	-0.110	0.180	2.270
2020/01/31 00:55:08.7	103.000	-0.110	0.210	2.340
2020/01/31 00:55:08.8	103.000	-0.110	0.240	2.410
2020/01/31 00:55:08.9	102.990	-0.110	0.270	2.470
2020/01/31 00:55:09.0	102.990	-0.110	0.290	2.520
2020/01/31 00:55:09.1	102.980	-0.110	0.310	2.580
2020/01/31 00:55:09.2	102.980	-0.110	0.330	2.630
2020/01/31 00:55:09.3	102.980	-0.110	0.350	2.670
2020/01/31 00:55:09.4	102.980	-0.110	0.360	2.720
2020/01/31 00:55:09.5	102.970	-0.100	0.370	2.750
2020/01/31 00:55:09.6	102.970	-0.100	0.380	2.790
2020/01/31 00:55:09.7	102.960	-0.090	0.380	2.810
2020/01/31 00:55:09.8	102.960	-0.090	0.380	2.840
2020/01/31 00:55:09.9	102.960	-0.080	0.370	2.860
2020/01/31 00:55:10.0	102.940	-0.070	0.370	2.870
2020/01/31 00:55:10.1	102.930	-0.060	0.360	2.880
2020/01/31 00:55:10.2	102.930	-0.060	0.350	2.890
2020/01/31 00:55:10.3	102.920	-0.050	0.330	2.890
2020/01/31 00:55:10.4	102.910	-0.040	0.320	2.890
2020/01/31 00:55:10.5	102.910	-0.030	0.300	2.880
2020/01/31 00:55:10.6	102.900	-0.010	0.270	2.870
2020/01/31 00:55:10.7	102.890	-0.000	0.250	2.860
2020/01/31 00:55:10.8	102.880	0.010	0.220	2.840
2020/01/31 00:55:10.9	102.870	0.020	0.190	2.810
2020/01/31 00:55:11.0	102.870	0.030	0.160	2.780
2020/01/31 00:55:11.1	102.860	0.040	0.130	2.740
2020/01/31 00:55:11.2	102.850	0.050	0.100	2.710
2020/01/31 00:55:11.3	102.840	0.070	0.060	2.660
2020/01/31 00:55:11.4	102.830	0.080	0.030	2.620
2020/01/31 00:55:11.5	102.820	0.090	-0.000	2.570
2020/01/31 00:55:11.6	102.820	0.100	-0.040	2.520
2020/01/31 00:55:11.7	102.810	0.110	-0.070	2.460
2020/01/31 00:55:11.8	102.800	0.120	-0.100	2.400
2020/01/31 00:55:11.9	102.800	0.130	-0.130	2.340
2020/01/31 00:55:12.0	102.810	0.140	-0.160	2.280
2020/01/31 00:55:12.1	102.800	0.150	-0.190	2.210
2020/01/31 00:55:12.2	102.800	0.150	-0.220	2.140
2020/01/31 00:55:12.3	102.800	0.160	-0.250	2.070
2020/01/31 00:55:12.4	102.800	0.170	-0.270	2.000
2020/01/31 00:55:12.5	102.800	0.170	-0.300	1.930
2020/01/31 00:55:12.6	102.800	0.180	-0.320	1.860
2020/01/31 00:55:12.7	102.810	0.180	-0.340	1.780
2020/01/31 00:55:12.8	102.810	0.180	-0.360	1.710
2020/01/31 00:55:12.9	102.810	0.180	-0.380	1.630
2020/01/31 00:55:13.0	102.820	0.180	-0.400	1.560
2020/01/31 00:55:13.1	102.820	0.180	-0.410	1.480
2020/01/31 00:55:13.2	102.830	0.180	-0.420	1.410
2020/01/31 00:55:13.3	102.840	0.180	-0.430	1.330
2020/01/31 00:55:13.4	102.850	0.180	-0.440	1.250
2020/01/31 00:55:13.5	102.860	0.170	-0.450	1.180
2020/01/31 00:55:13.6	102.870	0.170	-0.450	1.100
2020/01/31 00:55:13.7	102.880	0.160	-0.460	1.030
2020/01/31 00:55:13.8	102.900	0.160	-0.460	0.950
2020/01/31 00:55:13.9	102.910	0.150	-0.460	0.880
2020/01/31 00:55:14.0	102.930	0.150	-0.460	0.800
2020/01/31 00:55:14.1	102.940	0.140	-0.460	0.720
2020/01/31 00:55:14.2	102.960	0.130	-0.460	0.650
2020/01/31 00:55:14.3	102.980	0.130	-0.450	0.570
2020/01/31 00:55:14.4	102.990	0.120	-0.450	0.500
2020/01/31 00:55:14.5	103.010	0.110	-0.440	0.430
2020/01/31 00:55:14.6	103.030	0.100	-0.440	0.350
2020/01/31 00:55:14.7	103.050	0.100	-0.430	0.280
2020/01/31 00:55:14.8	103.070	0.090	-0.430	0.210
2020/01/31 00:55:14.9	103.090	0.080	-0.420	0.140
2020/01/31 00:55:15.0	103.120	0.070	-0.410	0.070
2020/01/31 00:55:15.1	103.140	0.060	-0.410	0.000
2020/01/31 00:55:15.2	103.160	0.060	-0.400	-0.060
2020/01/31 00:55:15.3	103.180	0.050	-0.390	-0.120
2020/01/31 00:55:15.4	103.200	0.040	-0.390	-0.180
2020/01/31 00:55:15.5	103.210	0.030	-0.380	-0.240
2020/01/31 00:55:15.6	103.230	0.030	-0.370	-0.290
2020/01/31 00:55:15.7	103.250	0.020	-0.360	-0.340
2020/01/31 00:55:15.8	103.260	0.010	-0.360	-0.380
2020/01/31 00:55:15.9	103.270	-0.000	-0.350	-0.420
2020/01/31 00:55:16.0	103.300	-0.010	-0.340	-0.460
2020/01/31 00:55:16.1	103.310	-0.020	-0.320	-0.490
2020/01/31 00:55:16.2	103.320	-0.030	-0.310	-0.510
2020/01/31 00:55:16.3	103.330	-0.040	-0.300	-0.530
2020/01/31 00:55:16.4	103.330	-0.050	-0.280	-0.540
2020/01/31 00:55:16.5	103.330	-0.060	-0.270	-0.540
2020/01/31 00:55:16.6	103.330	-0.070	-0.250	-0.540
2020/01/31 00:55:16.7	103.330	-0.080	-0.230	-0.540
2020/01/31 00:55:16.8	103.320	-0.090	-0.210	-0.520
2020/01/31 00:55:16.9	103.320	-0.110	-0.190	-0.500
2020/01/31 00:55:17.0	103.310	-0.120	-0.160	-0.470
2020/01/31 00:55:17.1	103.300	-0.130	-0.140	-0.440
2020/01/31 00:55:17.2	103.290	-0.140	-0.120	-0.400
2020/01/31 00:55:17.3	103.270	-0.160	-0.100	-0.360
2020/01/31 00:55:17.4	103.260	-0.170	-0.070	-0.310
2020/01/31 00:55:17.5	103.240	-0.180	-0.050	-0.250
2020/01/31 00:55:17.6	103.220	-0.190	-0.030	-0.190
2020/01/31 00:55:17.7	103.200	-0.200	-0.000	-0.130
2020/01/31 00:55:17.8	103.180	-0.220	0.020	-0.060
2020/01/31 00:55:17.9	103.160	-0.230	0.040	0.010
2020/01/31 00:55:18.0	103.120	-0.240	0.060	0.090
2020/01/31 00:55:18.1	103.100	-0.250	0.070	0.160
2020/01/31 00:55:18.2	103.080	-0.250	0.090	0.240
2020/01/31 00:55:18.3	103.050	-0.260	0.100	0.320
2020/01/31 00:55:18.4	103.030	-0.270	0.120	0.410
2020/01/31 00:55:18.5	103.010	-0.280	0.130	0.490
2020/01/31 00:55:18.6	102.980	-0.280	0.140	0.570
2020/01/31 00:55:18.7	102.960	-0.280	0.140	0.660
2020/01/31 00:55:18.8	102.940	-0.290	0.150	0.740
2020/01/31 00:55:18.9	102.920	-0.290	0.150	0.820
2020/01/31 00:55:19.0	102.900	-0.290	0.150	0.900
2020/01/31 00:55:19.1	102.880	-0.290	0.150	0.980
2020/01/31 00:55:19.2	102.860	-0.290	0.150	1.060
2020/01/31 00:55:19.3	102.850	-0.290	0.150	1.140
2020/01/31 00:55:19.4	102.830	-0.290	0.140	1.210
2020/01/31 00:55:19.5	102.820	-0.280	0.130	1.280
2020/01/31 00:55:19.6	102.800	-0.280	0.120	1.350
2020/01/31 00:55:19.7	102.790	-0.270	0.110	1.410
2020/01/31 00:55:19.8	102.780	-0.260	0.100	1.470
2020/01/31 00:55:19.9	102.770	-0.250	0.090	1.530
2020/01/31 00:55:20.0	102.760	-0.240	0.070	1.590
2020/01/31 00:55:20.1	102.760	-0.230	0.060	1.640
2020/01/31 00:55:20.2	102.750	-0.220	0.040	1.700
2020/01/31 00:55:20.3	102.750	-0.200	0.020	1.740
2020/01/31 00:55:20.4	102.750	-0.190	0.010	1.790
2020/01/31 00:55:20.5	102.750	-0.170	-0.010	1.830
2020/01/31 00:55:20.6	102.760	-0.160	-0.030	1.860
2020/01/31 00:55:20.7	102.760	-0.140	-0.050	1.890
2020/01/31 00:55:20.8	102.770	-0.120	-0.070	1.920
2020/01/31 00:55:20.9	102.780	-0.100	-0.090	1.950
2020/01/31 00:55:21.0	102.790	-0.080	-0.100	1.970
2020/01/31 00:55:21.1	102.800	-0.060	-0.120	1.980
2020/01/31 00:55:21.2	102.820	-0.030	-0.140	2.000
2020/01/31 00:55:21.3	102.830	-0.010	-0.160	2.010
2020/01/31 00:55:21.4	102.850	0.020	-0.180	2.010
2020/01/31 00:55:21.5	102.870	0.040	-0.200	2.010
2020/01/31 00:55:21.6	102.900	0.070	-0.220	2.010
2020/01/31 00:55:21.7	102.920	0.090	-0.240	2.010
2020/01/31 00:55:21.8	102.940	0.120	-0.260	2.000
2020/01/31 00:55:21.9	102.960	0.140	-0.270	1.990
2020/01/31 00:55:22.0	102.990	0.170	-0.300	1.980
2020/01/31 00:55:22.1	103.010	0.200	-0.310	1.960
2020/01/31 00:55:22.2	103.040	0.220	-0.330	1.950
2020/01/31 00:55:22.3	103.060	0.250	-0.350	1.930
2020/01/31 00:55:22.4	103.090	0.280	-0.360	1.910
2020/01/31 00:55:22.5	103.110	0.300	-0.380	1.890
2020/01/31 00:55:22.6	103.140	0.330	-0.390	1.870
2020/01/31 00:55:22.7	103.160	0.350	-0.410	1.840
2020/01/31 00:55:22.8	103.180	0.370	-0.420	1.820
2020/01/31 00:55:22.9	103.210	0.400	-0.420	1.790
2020/01/31 00:55:23.0	103.240	0.420	-0.430	1.770
2020/01/31 00:55:23.1	103.260	0.440	-0.440	1.740
2020/01/31 00:55:23.2	103.280	0.450	-0.440	1.720
2020/01/31 00:55:23.3	103.310	0.470	-0.440	1.690
2020/01/31 00:55:23.4	103.330	0.480	-0.440	1.660
2020/01/31 00:55:23.5	103.350	0.490	-0.430	1.630
2020/01/31 00:55:23.6	103.370	0.500	-0.420	1.610
2020/01/31 00:55:23.7	103.390	0.510	-0.410	1.580
2020/01/31 00:55:23.8	103.410	0.510	-0.400	1.550
2020/01/31 00:55:23.9	103.430	0.520	-0.380	1.530
2020/01/31 00:55:24.0	103.440	0.520	-0.360	1.500
2020/01/31 00:55:24.1	103.460	0.510	-0.340	1.480
2020/01/31 00:55:24.2	103.480	0.510	-0.320	1.460
2020/01/31 00:55:24.3	103.490	0.500	-0.300	1.440
2020/01/31 00:55:24.4	103.500	0.490	-0.270	1.420
2020/01/31 00:55:24.5	103.510	0.480	-0.240	1.410
2020/01/31 00:55:24.6	103.520	0.460	-0.220	1.400
2020/01/31 00:55:24.7	103.530	0.440	-0.190	1.390
2020/01/31 00:55:24.8	103.540	0.420	-0.160	1.380
2020/01/31 00:55:24.9	103.540	0.400	-0.130	1.380
2020/01/31 00:55:25.0	103.540	0.370	-0.100	1.370
2020/01/31 00:55:25.1	103.540	0.350	-0.070	1.370
2020/01/31 00:55:25.2	103.530	0.320	-0.040	1.370
2020/01/31 00:55:25.3	103.530	0.290	-0.010	1.370
2020/01/31 00:55:25.4	103.520	0.260	0.010	1.380
2020/01/31 00:55:25.5	103.520	0.230	0.040	1.380
2020/01/31 00:55:25.6	103.510	0.190	0.060	1.380
2020/01/31 00:55:25.7	103.500	0.160	0.080	1.390
2020/01/31 00:55:25.8	103.490	0.120	0.110	1.400
2020/01/31 00:55:25.9	103.470	0.090	0.120	1.400
2020/01/31 00:55:26.0	103.460	0.050	0.140	1.400
2020/01/31 00:55:26.1	103.450	0.020	0.150	1.410
2020/01/31 00:55:26.2	103.430	-0.020	0.160	1.410
2020/01/31 00:55:26.3	103.420	-0.050	0.170	1.410
2020/01/31 00:55:26.4	103.400	-0.090	0.180	1.410
2020/01/31 00:55:26.5	103.390	-0.120	0.180	1.410
2020/01/31 00:55:26.6	103.370	-0.150	0.180	1.410
2020/01/31 00:55:26.7	103.350	-0.180	0.180	1.410
2020/01/31 00:55:26.8	103.340	-0.210	0.170	1.410
2020/01/31 00:55:26.9	103.320	-0.240	0.170	1.400
2020/01/31 00:55:27.0	103.300	-0.270	0.160	1.390
2020/01/31 00:55:27.1	103.280	-0.290	0.140	1.390
2020/01/31 00:55:27.2	103.270	-0.310	0.130	1.390
2020/01/31 00:55:27.3	103.250	-0.330	0.110	1.380
2020/01/31 00:55:27.4	103.230	-0.350	0.090	1.380
2020/01/31 00:55:27.5	103.210	-0.360	0.070	1.370
2020/01/31 00:55:27.6	103.190	-0.380	0.050	1.370
2020/01/31 00:55:27.7	103.180	-0.390	0.030	1.360
2020/01/31 00:55:27.8	103.160	-0.390	0.010	1.360
2020/01/31 00:55:27.9	103.140	-0.400	-0.020	1.360
2020/01/31 00:55:28.0	103.100	-0.400	-0.040	1.360
2020/01/31 00:55:28.1	103.080	-0.410	-0.060	1.350
2020/01/31 00:55:28.2	103.060	-0.410	-0.090	1.350
2020/01/31 00:55:28.3	103.040	-0.410	-0.110	1.350
2020/01/31 00:55:28.4	103.020	-0.400	-0.130	1.350
2020/01/31 00:55:28.5	103.000	-0.400	-0.150	1.350
2020/01/31 00:55:28.6	102.980	-0.390	-0.170	1.350
2020/01/31 00:55:28.7	102.960	-0.390	-0.190	1.350
2020/01/31 00:55:28.8	102.940	-0.380	-0.210	1.340
2020/01/31 00:55:28.9	102.930	-0.370	-0.230	1.340
2020/01/31 00:55:29.0	102.920	-0.360	-0.250	1.340
2020/01/31 00:55:29.1	102.910	-0.350	-0.260	1.330
2020/01/31 00:55:29.2	102.890	-0.340	-0.270	1.330
2020/01/31 00:55:29.3	102.880	-0.330	-0.290	1.330
2020/01/31 00:55:29.4	102.870	-0.310	-0.300	1.320
2020/01/31 00:55:29.5	102.860	-0.300	-0.310	1.320
2020/01/31 00:55:29.6	102.850	-0.290	-0.320	1.310
2020/01/31 00:55:29.7	102.850	-0.280	-0.330	1.300
2020/01/31 00:55:29.8	102.840	-0.260	-0.340	1.290
2020/01/31 00:55:29.9	102.840	-0.250	-0.340	1.280
2020/01/31 00:55:30.0	102.840	-0.240	-0.350	1.280
2020/01/31 00:55:30.1	102.840	-0.220	-0.360	1.270
2020/01/31 00:55:30.2	102.850	-0.210	-0.370	1.250
2020/01/31 00:55:30.3	102.850	-0.190	-0.380	1.240
2020/01/31 00:55:30.4	102.860	-0.180	-0.390	1.220
2020/01/31 00:55:30.5	102.860	-0.160	-0.390	1.210
2020/01/31 00:55:30.6	102.870	-0.150	-0.400	1.190
2020/01/31 00:55:30.7	102.880	-0.130	-0.420	1.170
2020/01/31 00:55:30.8	102.900	-0.120	-0.430	1.150
2020/01/31 00:55:30.9	102.910	-0.100	-0.440	1.120
2020/01/31 00:55:31.0	102.910	-0.080	-0.450	1.090
2020/01/31 00:55:31.1	102.930	-0.060	-0.460	1.070
2020/01/31 00:55:31.2	102.940	-0.050	-0.480	1.040
2020/01/31 00:55:31.3	102.960	-0.030	-0.490	1.020
2020/01/31 00:55:31.4	102.980	-0.010	-0.500	0.990
2020/01/31 00:55:31.5	102.990	0.010	-0.520	0.960
2020/01/31 00:55:31.6	103.010	0.030	-0.530	0.920
2020/01/31 00:55:31.7	103.030	0.050	-0.540	0.890
2020/01/31 00:55:31.8	103.050	0.070	-0.550	0.860
2020/01/31 00:55:31.9	103.070	0.090	-0.560	0.820
2020/01/31 00:55:32.0	103.090	0.110	-0.570	0.780
2020/01/31 00:55:32.1	103.120	0.130	-0.580	0.740
2020/01/31 00:55:32.2	103.140	0.150	-0.580	0.700
2020/01/31 00:55:32.3	103.170	0.160	-0.580	0.670
2020/01/31 00:55:32.4	103.190	0.180	-0.580	0.630
2020/01/31 00:55:32.5	103.220	0.190	-0.570	0.590
2020/01/31 00:55:32.6	103.250	0.210	-0.560	0.560
2020/01/31 00:55:32.7	103.280	0.220	-0.540	0.520
2020/01/31 00:55:32.8	103.310	0.230	-0.520	0.490
2020/01/31 00:55:32.9	103.340	0.240	-0.500	0.460
2020/01/31 00:55:33.0	103.370	0.250	-0.470	0.440
2020/01/31 00:55:33.1	103.400	0.260	-0.440	0.420
2020/01/31 00:55:33.2	103.430	0.260	-0.400	0.400
2020/01/31 00:55:33.3	103.460	0.260	-0.360	0.380
2020/01/31 00:55:33.4	103.490	0.260	-0.320	0.370
2020/01/31 00:55:33.5	103.510	0.260	-0.280	0.370
2020/01/31 00:55:33.6	103.540	0.260	-0.230	0.370
2020/01/31 00:55:33.7	103.560	0.260	-0.180	0.370
2020/01/31 00:55:33.8	103.580	0.250	-0.120	0.370
2020/01/31 00:55:33.9	103.600	0.250	-0.070	0.380
2020/01/31 00:55:34.0	103.610	0.240	-0.010	0.400
2020/01/31 00:55:34.1	103.630	0.230	0.050	0.420
2020/01/31 00:55:34.2	103.640	0.220	0.100	0.450
2020/01/31 00:55:34.3	103.640	0.210	0.160	0.470
2020/01/31 00:55:34.4	103.650	0.200	0.210	0.500
2020/01/31 00:55:34.5	103.650	0.190	0.260	0.540
2020/01/31 00:55:34.6	103.650	0.170	0.320	0.570
2020/01/31 00:55:34.7	103.640	0.160	0.370	0.610
2020/01/31 00:55:34.8	103.640	0.140	0.410	0.660
2020/01/31 00:55:34.9	103.630	0.130	0.460	0.700
2020/01/31 00:55:35.0	103.620	0.120	0.500	0.750
2020/01/31 00:55:35.1	103.610	0.100	0.540	0.790
2020/01/31 00:55:35.2	103.590	0.090	0.570	0.840
2020/01/31 00:55:35.3	103.580	0.070	0.600	0.890
2020/01/31 00:55:35.4	103.560	0.060	0.620	0.940
2020/01/31 00:55:35.5	103.540	0.040	0.640	0.980
2020/01/31 00:55:35.6	103.520	0.030	0.660	1.030
2020/01/31 00:55:35.7	103.500	0.020	0.670	1.080
2020/01/31 00:55:35.8	103.480	0.010	0.680	1.130
2020/01/31 00:55:35.9	103.450	-0.010	0.680	1.180
2020/01/31 00:55:36.0	103.420	-0.020	0.680	1.220
2020/01/31 00:55:36.1	103.400	-0.030	0.670	1.270
2020/01/31 00:55:36.2	103.370	-0.040	0.660	1.310
2020/01/31 00:55:36.3	103.350	-0.050	0.650	1.350
2020/01/31 00:55:36.4	103.330	-0.060	0.630	1.390
2020/01/31 00:55:36.5	103.310	-0.070	0.610	1.430
2020/01/31 00:55:36.6	103.290	-0.070	0.580	1.470
2020/01/31 00:55:36.7	103.270	-0.080	0.550	1.500
2020/01/31 00:55:36.8	103.250	-0.090	0.520	1.530
2020/01/31 00:55:36.9	103.230	-0.090	0.480	1.560
2020/01/31 00:55:37.0	103.210	-0.100	0.440	1.580
2020/01/31 00:55:37.1	103.200	-0.100	0.400	1.610
2020/01/31 00:55:37.2	103.190	-0.110	0.350	1.630
2020/01/31 00:55:37.3	103.180	-0.110	0.310	1.650
2020/01/31 00:55:37.4	103.170	-0.110	0.250	1.660
2020/01/31 00:55:37.5	103.170	-0.110	0.200	1.680
2020/01/31 00:55:37.6	103.170	-0.110	0.150	1.690
2020/01/31 00:55:37.7	103.170	-0.120	0.090	1.700
2020/01/31 00:55:37.8	103.180	-0.120	0.030	1.710
2020/01/31 00:55:37.9	103.180	-0.110	-0.030	1.710
2020/01/31 00:55:38.0	103.190	-0.110	-0.090	1.710
2020/01/31 00:55:38.1	103.200	-0.110	-0.150	1.710
2020/01/31 00:55:38.2	103.210	-0.110	-0.210	1.710
2020/01/31 00:55:38.3	103.230	-0.110	-0.270	1.710
2020/01/31 00:55:38.4	103.240	-0.100	-0.330	1.720
2020/01/31 00:55:38.5	103.260	-0.100	-0.390	1.720
2020/01/31 00:55:38.6	103.270	-0.090	-0.450	1.720
2020/01/31 00:55:38.7	103.290	-0.090	-0.510	1.720
2020/01/31 00:55:38.8	103.300	-0.080	-0.570	1.720
2020/01/31 00:55:38.9	103.320	-0.080	-0.630	1.720
2020/01/31 00:55:39.0	103.330	-0.070	-0.690	1.730
2020/01/31 00:55:39.1	103.350	-0.070	-0.740	1.730
2020/01/31 00:55:39.2	103.360	-0.060	-0.790	1.740
2020/01/31 00:55:39.3	103.370	-0.050	-0.840	1.750
2020/01/31 00:55:39.4	103.380	-0.050	-0.890	1.760
2020/01/31 00:55:39.5	103.390	-0.040	-0.940	1.760
2020/01/31 00:55:39.6	103.400	-0.030	-0.980	1.770
2020/01/31 00:55:39.7	103.410	-0.020	-1.020	1.780
2020/01/31 00:55:39.8	103.410	-0.010	-1.050	1.800
2020/01/31 00:55:39.9	103.420	-0.010	-1.080	1.810
2020/01/31 00:55:40.0	103.420	0.000	-1.110	1.810
2020/01/31 00:55:40.1	103.420	0.010	-1.140	1.820
2020/01/31 00:55:40.2	103.420	0.020	-1.160	1.840
2020/01/31 00:55:40.3	103.420	0.030	-1.170	1.850
2020/01/31 00:55:40.4	103.420	0.030	-1.180	1.860
2020/01/31 00:55:40.5	103.420	0.040	-1.180	1.870
2020/01/31 00:55:40.6	103.410	0.050	-1.180	1.880
2020/01/31 00:55:40.7	103.410	0.050	-1.170	1.890
2020/01/31 00:55:40.8	103.400	0.060	-1.160	1.900
2020/01/31 00:55:40.9	103.390	0.060	-1.140	1.910
2020/01/31 00:55:41.0	103.390	0.060	-1.120	1.920
2020/01/31 00:55:41.1	103.380	0.070	-1.090	1.930
2020/01/31 00:55:41.2	103.370	0.070	-1.060	1.930
2020/01/31 00:55:41.3	103.360	0.070	-1.020	1.940
2020/01/31 00:55:41.4	103.350	0.070	-0.970	1.950
2020/01/31 00:55:41.5	103.340	0.060	-0.920	1.950
2020/01/31 00:55:41.6	103.340	0.060	-0.870	1.950
2020/01/31 00:55:41.7	103.330	0.050	-0.810	1.960
2020/01/31 00:55:41.8	103.320	0.050	-0.750	1.960
2020/01/31 00:55:41.9	103.310	0.040	-0.690	1.960
2020/01/31 00:55:42.0	103.310	0.030	-0.620	1.960
2020/01/31 00:55:42.1	103.310	0.020	-0.540	1.960
2020/01/31 00:55:42.2	103.300	0.010	-0.470	1.950
2020/01/31 00:55:42.3	103.290	-0.010	-0.390	1.950
2020/01/31 00:55:42.4	103.290	-0.020	-0.310	1.950
2020/01/31 00:55:42.5	103.280	-0.040	-0.230	1.940
2020/01/31 00:55:42.6	103.270	-0.050	-0.150	1.930
2020/01/31 00:55:42.7	103.270	-0.070	-0.060	1.930
2020/01/31 00:55:42.8	103.260	-0.090	0.020	1.920
2020/01/31 00:55:42.9	103.260	-0.110	0.100	1.910
2020/01/31 00:55:43.0	103.260	-0.120	0.180	1.900
2020/01/31 00:55:43.1	103.250	-0.140	0.260	1.880
2020/01/31 00:55:43.2	103.250	-0.160	0.340	1.870
2020/01/31 00:55:43.3	103.240	-0.180	0.410	1.850
2020/01/31 00:55:43.4	103.240	-0.200	0.480	1.840
2020/01/31 00:55:43.5	103.240	-0.220	0.550	1.820
2020/01/31 00:55:43.6	103.230	-0.230	0.610	1.800
2020/01/31 00:55:43.7	103.230	-0.250	0.660	1.770
2020/01/31 00:55:43.8	103.230	-0.260	0.720	1.750
2020/01/31 00:55:43.9	103.230	-0.280	0.760	1.720
2020/01/31 00:55:44.0	103.230	-0.290	0.800	1.690
2020/01/31 00:55:44.1	103.240	-0.300	0.840	1.650
2020/01/31 00:55:44.2	103.240	-0.310	0.870	1.620
2020/01/31 00:55:44.3	103.250	-0.320	0.890	1.570
2020/01/31 00:55:44.4	103.260	-0.320	0.910	1.530
2020/01/31 00:55:44.5	103.270	-0.320	0.920	1.480
2020/01/31 00:55:44.6	103.290	-0.330	0.920	1.430
2020/01/31 00:55:44.7	103.300	-0.330	0.920	1.380
2020/01/31 00:55:44.8	103.320	-0.320	0.910	1.320
2020/01/31 00:55:44.9	103.340	-0.320	0.900	1.260
2020/01/31 00:55:45.0	103.350	-0.310	0.870	1.190
2020/01/31 00:55:45.1	103.380	-0.300	0.850	1.120
2020/01/31 00:55:45.2	103.400	-0.290	0.810	1.050
2020/01/31 00:55:45.3	103.420	-0.280	0.770	0.980
2020/01/31 00:55:45.4	103.450	-0.260	0.730	0.910
2020/01/31 00:55:45.5	103.470	-0.240	0.680	0.840
2020/01/31 00:55:45.6	103.490	-0.220	0.630	0.760
2020/01/31 00:55:45.7	103.520	-0.200	0.570	0.690
2020/01/31 00:55:45.8	103.540	-0.180	0.510	0.620
2020/01/31 00:55:45.9	103.560	-0.150	0.450	0.540
2020/01/31 00:55:46.0	103.580	-0.130	0.380	0.470
2020/01/31 00:55:46.1	103.590	-0.100	0.310	0.400
2020/01/31 00:55:46.2	103.610	-0.070	0.240	0.330
2020/01/31 00:55:46.3	103.630	-0.040	0.170	0.260
2020/01/31 00:55:46.4	103.640	-0.010	0.100	0.200
2020/01/31 00:55:46.5	103.650	0.020	0.020	0.140
2020/01/31 00:55:46.6	103.660	0.050	-0.050	0.080
2020/01/31 00:55:46.7	103.670	0.080	-0.120	0.020
2020/01/31 00:55:46.8	103.680	0.110	-0.190	-0.030
2020/01/31 00:55:46.9	103.690	0.140	-0.260	-0.080
2020/01/31 00:55:47.0	103.680	0.170	-0.330	-0.130
2020/01/31 00:55:47.1	103.690	0.200	-0.390	-0.170
2020/01/31 00:55:47.2	103.690	0.230	-0.450	-0.210
2020/01/31 00:55:47.3	103.690	0.250	-0.510	-0.240
2020/01/31 00:55:47.4	103.690	0.280	-0.570	-0.270
2020/01/31 00:55:47.5	103.700	0.300	-0.620	-0.300
2020/01/31 00:55:47.6	103.700	0.320	-0.670	-0.320
2020/01/31 00:55:47.7	103.700	0.340	-0.710	-0.340
2020/01/31 00:55:47.8	103.700	0.360	-0.750	-0.350
2020/01/31 00:55:47.9	103.700	0.380	-0.790	-0.360
2020/01/31 00:55:48.0	103.700	0.390	-0.820	-0.360
2020/01/31 00:55:48.1	103.700	0.400	-0.840	-0.350
2020/01/31 00:55:48.2	103.700	0.410	-0.860	-0.350
2020/01/31 00:55:48.3	103.700	0.420	-0.880	-0.340
2020/01/31 00:55:48.4	103.700	0.420	-0.890	-0.320
2020/01/31 00:55:48.5	103.700	0.420	-0.890	-0.300
2020/01/31 00:55:48.6	103.700	0.420	-0.890	-0.280
2020/01/31 00:55:48.7	103.690	0.420	-0.890	-0.250
2020/01/31 00:55:48.8	103.690	0.410	-0.870	-0.210
2020/01/31 00:55:48.9	103.690	0.400	-0.860	-0.180
2020/01/31 00:55:49.0	103.700	0.390	-0.840	-0.130
2020/01/31 00:55:49.1	103.700	0.380	-0.810	-0.080
2020/01/31 00:55:49.2	103.700	0.360	-0.780	-0.030
2020/01/31 00:55:49.3	103.700	0.340	-0.750	0.020
2020/01/31 00:55:49.4	103.690	0.320	-0.710	0.080
2020/01/31 00:55:49.5	103.690	0.290	-0.670	0.150
2020/01/31 00:55:49.6	103.690	0.270	-0.630	0.220
2020/01/31 00:55:49.7	103.690	0.240	-0.580	0.290
2020/01/31 00:55:49.8	103.690	0.210	-0.540	0.360
2020/01/31 00:55:49.9	103.690	0.180	-0.490	0.440
2020/01/31 00:55:50.0	103.690	0.140	-0.440	0.520
2020/01/31 00:55:50.1	103.680	0.110	-0.390	0.600
2020/01/31 00:55:50.2	103.680	0.080	-0.340	0.680
2020/01/31 00:55:50.3	103.680	0.040	-0.280	0.770
2020/01/31 00:55:50.4	103.680	0.010	-0.230	0.850
2020/01/31 00:55:50.5	103.680	-0.030	-0.180	0.940
2020/01/31 00:55:50.6	103.670	-0.070	-0.130	1.030
2020/01/31 00:55:50.7	103.670	-0.100	-0.090	1.110
2020/01/31 00:55:50.8	103.670	-0.140	-0.040	1.200
2020/01/31 00:55:50.9	103.670	-0.170	0.010	1.280
2020/01/31 00:55:51.0	103.670	-0.200	0.050	1.360
2020/01/31 00:55:51.1	103.660	-0.230	0.090	1.450
2020/01/31 00:55:51.2	103.660	-0.260	0.120	1.530
2020/01/31 00:55:51.3	103.660	-0.290	0.160	1.600
2020/01/31 00:55:51.4	103.660	-0.320	0.190	1.680
2020/01/31 00:55:51.5	103.660	-0.340	0.210	1.750
2020/01/31 00:55:51.6	103.660	-0.360	0.230	1.820
2020/01/31 00:55:51.7	103.650	-0.380	0.250	1.890
2020/01/31 00:55:51.8	103.650	-0.400	0.260	1.950
2020/01/31 00:55:51.9	103.650	-0.410	0.270	2.010
2020/01/31 00:55:52.0	103.640	-0.420	0.280	2.080
2020/01/31 00:55:52.1	103.630	-0.430	0.280	2.130
2020/01/31 00:55:52.2	103.630	-0.440	0.270	2.180
2020/01/31 00:55:52.3	103.620	-0.440	0.260	2.240
2020/01/31 00:55:52.4	103.620	-0.440	0.250	2.280
2020/01/31 00:55:52.5	103.610	-0.430	0.230	2.330
2020/01/31 00:55:52.6	103.600	-0.430	0.210	2.370
2020/01/31 00:55:52.7	103.600	-0.420	0.190	2.410
2020/01/31 00:55:52.8	103.590	-0.410	0.160	2.440
2020/01/31 00:55:52.9	103.580	-0.390	0.130	2.470
2020/01/31 00:55:53.0	103.560	-0.370	0.100	2.500
2020/01/31 00:55:53.1	103.550	-0.350	0.060	2.520
2020/01/31 00:55:53.2	103.550	-0.330	0.020	2.550
2020/01/31 00:55:53.3	103.540	-0.310	-0.020	2.570
2020/01/31 00:55:53.4	103.530	-0.280	-0.060	2.580
2020/01/31 00:55:53.5	103.530	-0.250	-0.100	2.600
2020/01/31 00:55:53.6	103.520	-0.230	-0.150	2.610
2020/01/31 00:55:53.7	103.520	-0.200	-0.190	2.620
2020/01/31 00:55:53.8	103.520	-0.170	-0.230	2.630
2020/01/31 00:55:53.9	103.520	-0.140	-0.280	2.640
2020/01/31 00:55:54.0	103.530	-0.110	-0.320	2.640
2020/01/31 00:55:54.1	103.530	-0.080	-0.360	2.640
2020/01/31 00:55:54.2	103.530	-0.050	-0.390	2.640
2020/01/31 00:55:54.3	103.540	-0.020	-0.430	2.640
2020/01/31 00:55:54.4	103.540	0.010	-0.460	2.630
2020/01/31 00:55:54.5	103.550	0.040	-0.490	2.630
2020/01/31 00:55:54.6	103.560	0.070	-0.510	2.620
2020/01/31 00:55:54.7	103.560	0.090	-0.530	2.610
2020/01/31 00:55:54.8	103.570	0.120	-0.550	2.590
2020/01/31 00:55:54.9	103.590	0.140	-0.560	2.580
2020/01/31 00:55:55.0	103.610	0.160	-0.570	2.560
2020/01/31 00:55:55.1	103.620	0.180	-0.580	2.540
2020/01/31 00:55:55.2	103.630	0.200	-0.580	2.510
2020/01/31 00:55:55.3	103.650	0.220	-0.570	2.480
2020/01/31 00:55:55.4	103.660	0.230	-0.560	2.450
2020/01/31 00:55:55.5	103.670	0.240	-0.550	2.420
2020/01/31 00:55:55.6	103.690	0.250	-0.530	2.380
2020/01/31 00:55:55.7	103.700	0.260	-0.510	2.340
2020/01/31 00:55:55.8	103.720	0.260	-0.490	2.290
2020/01/31 00:55:55.9	103.730	0.270	-0.460	2.250
2020/01/31 00:55:56.0	103.750	0.270	-0.430	2.190
2020/01/31 00:55:56.1	103.770	0.270	-0.390	2.140
2020/01/31 00:55:56.2	103.780	0.270	-0.360	2.080
2020/01/31 00:55:56.3	103.790	0.270	-0.320	2.020
2020/01/31 00:55:56.4	103.810	0.260	-0.270	1.950
2020/01/31 00:55:56.5	103.820	0.260	-0.230	1.890
2020/01/31 00:55:56.6	103.830	0.250	-0.190	1.810
2020/01/31 00:55:56.7	103.840	0.250	-0.140	1.740
2020/01/31 00:55:56.8	103.850	0.240	-0.100	1.660
2020/01/31 00:55:56.9	103.860	0.230	-0.050	1.580
2020/01/31 00:55:57.0	103.860	0.220	-0.010	1.490
2020/01/31 00:55:57.1	103.860	0.210	0.030	1.410
2020/01/31 00:55:57.2	103.870	0.200	0.070	1.330
2020/01/31 00:55:57.3	103.880	0.190	0.110	1.240
2020/01/31 00:55:57.4	103.880	0.180	0.150	1.160
2020/01/31 00:55:57.5	103.880	0.170	0.180	1.070
2020/01/31 00:55:57.6	103.890	0.160	0.210	0.980
2020/01/31 00:55:57.7	103.890	0.150	0.240	0.900
2020/01/31 00:55:57.8	103.890	0.140	0.270	0.810
2020/01/31 00:55:57.9	103.890	0.130	0.290	0.720
2020/01/31 00:55:58.0	103.890	0.120	0.310	0.640
2020/01/31 00:55:58.1	103.890	0.120	0.320	0.560
2020/01/31 00:55:58.2	103.890	0.110	0.330	0.480
2020/01/31 00:55:58.3	103.880	0.100	0.340	0.400
2020/01/31 00:55:58.4	103.880	0.090	0.350	0.320
2020/01/31 00:55:58.5	103.870	0.080	0.350	0.250
2020/01/31 00:55:58.6	103.870	0.070	0.340	0.180
2020/01/31 00:55:58.7	103.860	0.060	0.340	0.110
2020/01/31 00:55:58.8	103.860	0.060	0.330	0.050
2020/01/31 00:55:58.9	103.850	0.050	0.320	-0.010
2020/01/31 00:55:59.0	103.840	0.040	0.300	-0.070
2020/01/31 00:55:59.1	103.840	0.030	0.290	-0.120
2020/01/31 00:55:59.2	103.830	0.030	0.270	-0.170
2020/01/31 00:55:59.3	103.830	0.020	0.240	-0.220
2020/01/31 00:55:59.4	103.820	0.010	0.220	-0.260
2020/01/31 00:55:59.5	103.820	0.000	0.190	-0.290
2020/01/31 00:55:59.6	103.820	-0.010	0.160	-0.330
2020/01/31 00:55:59.7	103.820	-0.010	0.130	-0.350
2020/01/31 00:55:59.8	103.820	-0.020	0.100	-0.380
2020/01/31 00:55:59.9	103.820	-0.030	0.070	-0.400
2020/01/31 00:56:00.0	103.820	-0.040	0.040	-0.410
2020/01/31 00:56:00.1	103.820	-0.050	0.000	-0.420
2020/01/31 00:56:00.2	103.830	-0.060	-0.030	-0.430
2020/01/31 00:56:00.3	103.830	-0.070	-0.060	-0.430
2020/01/31 00:56:00.4	103.830	-0.080	-0.100	-0.430
2020/01/31 00:56:00.5	103.840	-0.090	-0.130	-0.420
2020/01/31 00:56:00.6	103.850	-0.100	-0.160	-0.410
2020/01/31 00:56:00.7	103.850	-0.120	-0.190	-0.400
2020/01/31 00:56:00.8	103.860	-0.130	-0.220	-0.380
2020/01/31 00:56:00.9	103.870	-0.140	-0.250	-0.360
2020/01/31 00:56:01.0	103.880	-0.160	-0.270	-0.340
2020/01/31 00:56:01.1	103.890	-0.170	-0.300	-0.310
2020/01/31 00:56:01.2	103.900	-0.190	-0.320	-0.280
2020/01/31 00:56:01.3	103.910	-0.200	-0.350	-0.240
2020/01/31 00:56:01.4	103.910	-0.220	-0.370	-0.200
2020/01/31 00:56:01.5	103.920	-0.230	-0.390	-0.160
2020/01/31 00:56:01.6	103.930	-0.250	-0.410	-0.110
2020/01/31 00:56:01.7	103.930	-0.260	-0.420	-0.060
2020/01/31 00:56:01.8	103.940	-0.280	-0.440	-0.010
2020/01/31 00:56:01.9	103.940	-0.290	-0.450	0.050
2020/01/31 00:56:02.0	103.950	-0.310	-0.460	0.110
2020/01/31 00:56:02.1	103.950	-0.320	-0.470	0.180
2020/01/31 00:56:02.2	103.950	-0.340	-0.480	0.240
2020/01/31 00:56:02.3	103.940	-0.350	-0.490	0.310
2020/01/31 00:56:02.4	103.940	-0.360	-0.500	0.380
2020/01/31 00:56:02.5	103.930	-0.370	-0.510	0.450
2020/01/31 00:56:02.6	103.920	-0.380	-0.510	0.530
2020/01/31 00:56:02.7	103.910	-0.390	-0.510	0.600
2020/01/31 00:56:02.8	103.900	-0.390	-0.520	0.680
2020/01/31 00:56:02.9	103.880	-0.400	-0.520	0.760
2020/01/31 00:56:03.0	103.860	-0.400	-0.520	0.830
2020/01/31 00:56:03.1	103.840	-0.410	-0.520	0.910
2020/01/31 00:56:03.2	103.830	-0.410	-0.520	0.990
2020/01/31 00:56:03.3	103.810	-0.410	-0.520	1.070
2020/01/31 00:56:03.4	103.790	-0.400	-0.520	1.140
2020/01/31 00:56:03.5	103.770	-0.400	-0.510	1.220
2020/01/31 00:56:03.6	103.750	-0.400	-0.510	1.290
2020/01/31 00:56:03.7	103.740	-0.390	-0.500	1.370
2020/01/31 00:56:03.8	103.720	-0.380	-0.500	1.440
2020/01/31 00:56:03.9	103.700	-0.370	-0.480	1.500
2020/01/31 00:56:04.0	103.690	-0.360	-0.470	1.570
2020/01/31 00:56:04.1	103.680	-0.340	-0.460	1.630
2020/01/31 00:56:04.2	103.660	-0.330	-0.440	1.690
2020/01/31 00:56:04.3	103.650	-0.310	-0.420	1.750
2020/01/31 00:56:04.4	103.630	-0.300	-0.410	1.810
2020/01/31 00:56:04.5	103.620	-0.280	-0.390	1.860
2020/01/31 00:56:04.6	103.610	-0.260	-0.370	1.910
2020/01/31 00:56:04.7	103.600	-0.240	-0.340	1.950
2020/01/31 00:56:04.8	103.600	-0.210	-0.320	1.990
2020/01/31 00:56:04.9	103.590	-0.190	-0.290	2.030
2020/01/31 00:56:05.0	103.570	-0.170	-0.270	2.070
2020/01/31 00:56:05.1	103.570	-0.140	-0.240	2.100
2020/01/31 00:56:05.2	103.570	-0.110	-0.210	2.130
2020/01/31 00:56:05.3	103.570	-0.090	-0.180	2.150
2020/01/31 00:56:05.4	103.570	-0.060	-0.150	2.170
2020/01/31 00:56:05.5	103.570	-0.030	-0.120	2.190
2020/01/31 00:56:05.6	103.570	-0.000	-0.090	2.200
2020/01/31 00:56:05.7	103.580	0.030	-0.060	2.210
2020/01/31 00:56:05.8	103.580	0.050	-0.030	2.220
2020/01/31 00:56:05.9	103.580	0.080	-0.000	2.220
2020/01/31 00:56:06.0	103.590	0.110	0.020	2.220
2020/01/31 00:56:06.1	103.590	0.140	0.050	2.210
2020/01/31 00:56:06.2	103.600	0.170	0.070	2.210
2020/01/31 00:56:06.3	103.610	0.200	0.090	2.200
2020/01/31 00:56:06.4	103.610	0.230	0.110	2.190
2020/01/31 00:56:06.5	103.620	0.260	0.130	2.170
2020/01/31 00:56:06.6	103.630	0.290	0.150	2.150
2020/01/31 00:56:06.7	103.640	0.310	0.160	2.130
2020/01/31 00:56:06.8	103.650	0.340	0.170	2.110
2020/01/31 00:56:06.9	103.660	0.360	0.170	2.080
2020/01/31 00:56:07.0	103.660	0.390	0.180	2.050
2020/01/31 00:56:07.1	103.670	0.410	0.180	2.020
2020/01/31 00:56:07.2	103.680	0.440	0.180	1.980
2020/01/31 00:56:07.3	103.690	0.460	0.170	1.950
2020/01/31 00:56:07.4	103.710	0.480	0.160	1.910
2020/01/31 00:56:07.5	103.720	0.490	0.150	1.880
2020/01/31 00:56:07.6	103.740	0.510	0.140	1.840
2020/01/31 00:56:07.7	103.750	0.530	0.130	1.800
2020/01/31 00:56:07.8	103.770	0.540	0.110	1.760
2020/01/31 00:56:07.9	103.780	0.550	0.090	1.710
2020/01/31 00:56:08.0	103.810	0.560	0.070	1.670
2020/01/31 00:56:08.1	103.830	0.560	0.050	1.620
2020/01/31 00:56:08.2	103.850	0.570	0.030	1.570
2020/01/31 00:56:08.3	103.860	0.570	0.010	1.530
2020/01/31 00:56:08.4	103.880	0.570	-0.010	1.480
2020/01/31 00:56:08.5	103.900	0.570	-0.030	1.430
2020/01/31 00:56:08.6	103.920	0.570	-0.050	1.380
2020/01/31 00:56:08.7	103.930	0.560	-0.070	1.330
2020/01/31 00:56:08.8	103.950	0.550	-0.090	1.270
2020/01/31 00:56:08.9	103.960	0.540	-0.110	1.220
2020/01/31 00:56:09.0	103.980	0.530	-0.130	1.170
2020/01/31 00:56:09.1	103.990	0.520	-0.150	1.120
2020/01/31 00:56:09.2	104.000	0.500	-0.170	1.070
2020/01/31 00:56:09.3	104.000	0.490	-0.190	1.020
2020/01/31 00:56:09.4	104.010	0.470	-0.210	0.980
2020/01/31 00:56:09.5	104.010	0.450	-0.220	0.930
2020/01/31 00:56:09.6	104.020	0.430	-0.240	0.890
2020/01/31 00:56:09.7	104.020	0.410	-0.250	0.840
2020/01/31 00:56:09.8	104.010	0.380	-0.270	0.800
2020/01/31 00:56:09.9	104.010	0.360	-0.280	0.770
2020/01/31 00:56:10.0	103.990	0.340	-0.290	0.730
2020/01/31 00:56:10.1	103.980	0.310	-0.300	0.700
2020/01/31 00:56:10.2	103.960	0.280	-0.310	0.670
2020/01/31 00:56:10.3	103.950	0.260	-0.320	0.640
2020/01/31 00:56:10.4	103.930	0.230	-0.320	0.620
2020/01/31 00:56:10.5	103.920	0.200	-0.330	0.600
2020/01/31 00:56:10.6	103.900	0.180	-0.330	0.580
2020/01/31 00:56:10.7	103.880	0.150	-0.330	0.570
2020/01/31 00:56:10.8	103.860	0.120	-0.330	0.560
2020/01/31 00:56:10.9	103.830	0.090	-0.330	0.550
2020/01/31 00:56:11.0	103.810	0.060	-0.320	0.540
2020/01/31 00:56:11.1	103.790	0.030	-0.320	0.540
2020/01/31 00:56:11.2	103.770	0.000	-0.310	0.550
2020/01/31 00:56:11.3	103.740	-0.030	-0.300	0.560
2020/01/31 00:56:11.4	103.720	-0.060	-0.290	0.570
2020/01/31 00:56:11.5	103.700	-0.090	-0.280	0.580
2020/01/31 00:56:11.6	103.670	-0.120	-0.260	0.600
2020/01/31 00:56:11.7	103.650	-0.150	-0.250	0.620
2020/01/31 00:56:11.8	103.630	-0.170	-0.230	0.650
2020/01/31 00:56:11.9	103.610	-0.200	-0.210	0.680
2020/01/31 00:56:12.0	103.580	-0.230	-0.190	0.710
2020/01/31 00:56:12.1	103.560	-0.260	-0.170	0.740
2020/01/31 00:56:12.2	103.540	-0.290	-0.150	0.770
2020/01/31 00:56:12.3	103.530	-0.310	-0.130	0.810
2020/01/31 00:56:12.4	103.510	-0.340	-0.100	0.850
2020/01/31 00:56:12.5	103.500	-0.370	-0.080	0.880
2020/01/31 00:56:12.6	103.490	-0.390	-0.050	0.920
2020/01/31 00:56:12.7	103.480	-0.420	-0.030	0.960
2020/01/31 00:56:12.8	103.470	-0.440	0.000	1.000
2020/01/31 00:56:12.9	103.460	-0.460	0.030	1.030
2020/01/31 00:56:13.0	103.460	-0.480	0.050	1.070
2020/01/31 00:56:13.1	103.450	-0.500	0.080	1.100
2020/01/31 00:56:13.2	103.450	-0.520	0.100	1.130
2020/01/31 00:56:13.3	103.450	-0.540	0.130	1.160
2020/01/31 00:56:13.4	103.450	-0.550	0.150	1.190
2020/01/31 00:56:13.5	103.450	-0.570	0.170	1.220
2020/01/31 00:56:13.6	103.450	-0.580	0.190	1.250
2020/01/31 00:56:13.7	103.460	-0.580	0.210	1.270
2020/01/31 00:56:13.8	103.460	-0.590	0.220	1.290
2020/01/31 00:56:13.9	103.470	-0.600	0.230	1.310
2020/01/31 00:56:14.0	103.480	-0.600	0.240	1.320
2020/01/31 00:56:14.1	103.480	-0.600	0.250	1.330
2020/01/31 00:56:14.2	103.500	-0.590	0.250	1.340
2020/01/31 00:56:14.3	103.510	-0.590	0.240	1.350
2020/01/31 00:56:14.4	103.520	-0.580	0.240	1.350
2020/01/31 00:56:14.5	103.530	-0.570	0.230	1.340
2020/01/31 00:56:14.6	103.550	-0.550	0.210	1.340
2020/01/31 00:56:14.7	103.560	-0.530	0.190	1.330
2020/01/31 00:56:14.8	103.580	-0.510	0.170	1.320
2020/01/31 00:56:14.9	103.590	-0.490	0.150	1.300
2020/01/31 00:56:15.0	103.610	-0.470	0.110	1.280
2020/01/31 00:56:15.1	103.630	-0.440	0.080	1.260
2020/01/31 00:56:15.2	103.650	-0.410	0.040	1.240
2020/01/31 00:56:15.3	103.660	-0.380	0.000	1.210
2020/01/31 00:56:15.4	103.680	-0.350	-0.040	1.180
2020/01/31 00:56:15.5	103.700	-0.320	-0.090	1.150
2020/01/31 00:56:15.6	103.720	-0.280	-0.130	1.120
2020/01/31 00:56:15.7	103.740	-0.250	-0.180	1.090
2020/01/31 00:56:15.8	103.750	-0.210	-0.230	1.060
2020/01/31 00:56:15.9	103.770	-0.180	-0.280	1.030
2020/01/31 00:56:16.0	103.790	-0.140	-0.340	1.000
2020/01/31 00:56:16.1	103.810	-0.100	-0.390	0.970
2020/01/31 00:56:16.2	103.820	-0.060	-0.440	0.950
2020/01/31 00:56:16.3	103.840	-0.020	-0.490	0.920
2020/01/31 00:56:16.4	103.850	0.010	-0.540	0.900
2020/01/31 00:56:16.5	103.870	0.050	-0.590	0.880
2020/01/31 00:56:16.6	103.880	0.090	-0.630	0.860
2020/01/31 00:56:16.7	103.890	0.120	-0.680	0.850
2020/01/31 00:56:16.8	103.900	0.150	-0.720	0.840
2020/01/31 00:56:16.9	103.910	0.190	-0.750	0.840
2020/01/31 00:56:17.0	103.910	0.220	-0.790	0.840
2020/01/31 00:56:17.1	103.920	0.250	-0.820	0.840
2020/01/31 00:56:17.2	103.920	0.280	-0.840	0.850
2020/01/31 00:56:17.3	103.920	0.300	-0.860	0.860
2020/01/31 00:56:17.4	103.930	0.330	-0.870	0.870
2020/01/31 00:56:17.5	103.930	0.350	-0.880	0.890
2020/01/31 00:56:17.6	103.930	0.370	-0.880	0.910
2020/01/31 00:56:17.7	103.930	0.390	-0.880	0.930
2020/01/31 00:56:17.8	103.930	0.410	-0.870	0.960
2020/01/31 00:56:17.9	103.920	0.420	-0.850	0.990
2020/01/31 00:56:18.0	103.920	0.430	-0.830	1.020
2020/01/31 00:56:18.1	103.910	0.440	-0.800	1.050
2020/01/31 00:56:18.2	103.910	0.440	-0.760	1.080
2020/01/31 00:56:18.3	103.900	0.450	-0.730	1.120
2020/01/31 00:56:18.4	103.890	0.450	-0.680	1.160
2020/01/31 00:56:18.5	103.880	0.450	-0.640	1.190
2020/01/31 00:56:18.6	103.870	0.440	-0.580	1.230
2020/01/31 00:56:18.7	103.860	0.430	-0.530	1.270
2020/01/31 00:56:18.8	103.840	0.420	-0.470	1.300
2020/01/31 00:56:18.9	103.830	0.410	-0.410	1.340
2020/01/31 00:56:19.0	103.820	0.400	-0.350	1.370
2020/01/31 00:56:19.1	103.800	0.380	-0.290	1.410
2020/01/31 00:56:19.2	103.780	0.360	-0.220	1.440
2020/01/31 00:56:19.3	103.760	0.340	-0.160	1.470
2020/01/31 00:56:19.4	103.740	0.320	-0.090	1.500
2020/01/31 00:56:19.5	103.720	0.300	-0.030	1.520
2020/01/31 00:56:19.6	103.690	0.270	0.030	1.550
2020/01/31 00:56:19.7	103.670	0.250	0.090	1.570
2020/01/31 00:56:19.8	103.640	0.220	0.150	1.590
2020/01/31 00:56:19.9	103.620	0.190	0.200	1.600
2020/01/31 00:56:20.0	103.590	0.160	0.260	1.610
2020/01/31 00:56:20.1	103.560	0.140	0.310	1.620
2020/01/31 00:56:20.2	103.540	0.110	0.350	1.630
2020/01/31 00:56:20.3	103.510	0.080	0.390	1.630
2020/01/31 00:56:20.4	103.490	0.050	0.430	1.630
2020/01/31 00:56:20.5	103.470	0.020	0.460	1.620
2020/01/31 00:56:20.6	103.450	-0.010	0.490	1.620
2020/01/31 00:56:20.7	103.430	-0.040	0.510	1.600
2020/01/31 00:56:20.8	103.410	-0.070	0.530	1.590
2020/01/31 00:56:20.9	103.400	-0.100	0.550	1.570
2020/01/31 00:56:21.0	103.380	-0.120	0.560	1.550
2020/01/31 00:56:21.1	103.370	-0.150	0.570	1.530
2020/01/31 00:56:21.2	103.360	-0.170	0.570	1.500
2020/01/31 00:56:21.3	103.350	-0.200	0.570	1.470
2020/01/31 00:56:21.4	103.350	-0.220	0.570	1.440
2020/01/31 00:56:21.5	103.350	-0.240	0.560	1.410
2020/01/31 00:56:21.6	103.350	-0.260	0.560	1.380
2020/01/31 00:56:21.7	103.350	-0.280	0.540	1.340
2020/01/31 00:56:21.8	103.360	-0.290	0.530	1.310
2020/01/31 00:56:21.9	103.360	-0.310	0.510	1.270
2020/01/31 00:56:22.0	103.370	-0.320	0.490	1.240
2020/01/31 00:56:22.1	103.380	-0.330	0.470	1.200
2020/01/31 00:56:22.2	103.390	-0.330	0.440	1.170
2020/01/31 00:56:22.3	103.400	-0.340	0.410	1.130
2020/01/31 00:56:22.4	103.420	-0.350	0.390	1.100
2020/01/31 00:56:22.5	103.430	-0.350	0.360	1.070
2020/01/31 00:56:22.6	103.450	-0.350	0.330	1.040
2020/01/31 00:56:22.7	103.460	-0.350	0.290	1.010
2020/01/31 00:56:22.8	103.480	-0.340	0.260	0.980
2020/01/31 00:56:22.9	103.500	-0.340	0.220	0.960
2020/01/31 00:56:23.0	103.520	-0.330	0.190	0.930
2020/01/31 00:56:23.1	103.530	-0.320	0.150	0.910
2020/01/31 00:56:23.2	103.550	-0.310	0.110	0.890
2020/01/31 00:56:23.3	103.560	-0.300	0.080	0.870
2020/01/31 00:56:23.4	103.580	-0.280	0.040	0.850
2020/01/31 00:56:23.5	103.600	-0.260	-0.010	0.830
2020/01/31 00:56:23.6	103.610	-0.250	-0.050	0.810
2020/01/31 00:56:23.7	103.630	-0.230	-0.090	0.790
2020/01/31 00:56:23.8	103.640	-0.200	-0.130	0.770
2020/01/31 00:56:23.9	103.660	-0.180	-0.180	0.760
2020/01/31 00:56:24.0	103.670	-0.160	-0.220	0.740
2020/01/31 00:56:24.1	103.690	-0.130	-0.270	0.720
2020/01/31 00:56:24.2	103.700	-0.110	-0.310	0.710
2020/01/31 00:56:24.3	103.720	-0.080	-0.360	0.690
2020/01/31 00:56:24.4	103.740	-0.050	-0.400	0.680
2020/01/31 00:56:24.5	103.760	-0.030	-0.450	0.660
2020/01/31 00:56:24.6	103.770	0.000	-0.500	0.640
2020/01/31 00:56:24.7	103.790	0.030	-0.550	0.630
2020/01/31 00:56:24.8	103.810	0.060	-0.590	0.610
2020/01/31 00:56:24.9	103.830	0.090	-0.640	0.590
2020/01/31 00:56:25.0	103.840	0.120	-0.680	0.570
2020/01/31 00:56:25.1	103.860	0.150	-0.720	0.560
2020/01/31 00:56:25.2	103.880	0.180	-0.770	0.540
2020/01/31 00:56:25.3	103.890	0.210	-0.810	0.520
2020/01/31 00:56:25.4	103.910	0.240	-0.850	0.510
2020/01/31 00:56:25.5	103.930	0.270	-0.890	0.500
2020/01/31 00:56:25.6	103.940	0.300	-0.920	0.490
2020/01/31 00:56:25.7	103.960	0.330	-0.950	0.480
2020/01/31 00:56:25.8	103.970	0.350	-0.980	0.470
2020/01/31 00:56:25.9	103.980	0.380	-1.010	0.470
2020/01/31 00:56:26.0	104.000	0.400	-1.030	0.470
2020/01/31 00:56:26.1	104.010	0.420	-1.050	0.470
2020/01/31 00:56:26.2	104.020	0.440	-1.060	0.480
2020/01/31 00:56:26.3	104.020	0.460	-1.070	0.490
2020/01/31 00:56:26.4	104.030	0.470	-1.070	0.500
2020/01/31 00:56:26.5	104.030	0.480	-1.070	0.520
2020/01/31 00:56:26.6	104.030	0.500	-1.060	0.540
2020/01/31 00:56:26.7	104.030	0.500	-1.050	0.570
2020/01/31 00:56:26.8	104.020	0.510	-1.030	0.590
2020/01/31 00:56:26.9	104.020	0.510	-1.000	0.630
2020/01/31 00:56:27.0	103.990	0.510	-0.970	0.660
2020/01/31 00:56:27.1	103.980	0.510	-0.940	0.700
2020/01/31 00:56:27.2	103.970	0.510	-0.900	0.740
2020/01/31 00:56:27.3	103.950	0.500	-0.860	0.790
2020/01/31 00:56:27.4	103.940	0.490	-0.810	0.840
2020/01/31 00:56:27.5	103.930	0.480	-0.760	0.890
2020/01/31 00:56:27.6	103.910	0.460	-0.700	0.950
2020/01/31 00:56:27.7	103.890	0.440	-0.640	1.010
2020/01/31 00:56:27.8	103.870	0.420	-0.570	1.070
2020/01/31 00:56:27.9	103.850	0.400	-0.500	1.130
2020/01/31 00:56:28.0	103.830	0.380	-0.430	1.180
2020/01/31 00:56:28.1	103.810	0.350	-0.350	1.250
2020/01/31 00:56:28.2	103.790	0.320	-0.280	1.310
2020/01/31 00:56:28.3	103.770	0.290	-0.200	1.370
2020/01/31 00:56:28.4	103.750	0.260	-0.120	1.430
2020/01/31 00:56:28.5	103.730	0.230	-0.030	1.490
2020/01/31 00:56:28.6	103.710	0.200	0.050	1.540
2020/01/31 00:56:28.7	103.690	0.160	0.130	1.600
2020/01/31 00:56:28.8	103.670	0.120	0.210	1.650
2020/01/31 00:56:28.9	103.650	0.090	0.290	1.700
2020/01/31 00:56:29.0	103.630	0.050	0.370	1.750
2020/01/31 00:56:29.1	103.620	0.010	0.450	1.790
2020/01/31 00:56:29.2	103.600	-0.030	0.530	1.830
2020/01/31 00:56:29.3	103.590	-0.070	0.600	1.860
2020/01/31 00:56:29.4	103.580	-0.100	0.670	1.890
2020/01/31 00:56:29.5	103.570	-0.140	0.740	1.920
2020/01/31 00:56:29.6	103.560	-0.180	0.800	1.950
2020/01/31 00:56:29.7	103.560	-0.220	0.860	1.970
2020/01/31 00:56:29.8	103.550	-0.250	0.910	1.980
2020/01/31 00:56:29.9	103.540	-0.290	0.960	2.000
2020/01/31 00:56:30.0	103.550	-0.320	1.000	2.000
2020/01/31 00:56:30.1	103.550	-0.350	1.040	2.010
2020/01/31 00:56:30.2	103.550	-0.380	1.070	2.010
2020/01/31 00:56:30.3	103.540	-0.410	1.100	2.010
2020/01/31 00:56:30.4	103.540	-0.440	1.110	2.010
2020/01/31 00:56:30.5	103.540	-0.470	1.130	2.010
2020/01/31 00:56:30.6	103.540	-0.490	1.130	2.000
2020/01/31 00:56:30.7	103.540	-0.510	1.130	1.990
2020/01/31 00:56:30.8	103.540	-0.530	1.120	1.980
2020/01/31 00:56:30.9	103.540	-0.550	1.100	1.960
2020/01/31 00:56:31.0	103.550	-0.560	1.070	1.950
2020/01/31 00:56:31.1	103.550	-0.580	1.040	1.930
2020/01/31 00:56:31.2	103.550	-0.590	1.000	1.910
2020/01/31 00:56:31.3	103.560	-0.590	0.960	1.890
2020/01/31 00:56:31.4	103.560	-0.600	0.910	1.870
2020/01/31 00:56:31.5	103.570	-0.600	0.850	1.840
2020/01/31 00:56:31.6	103.580	-0.600	0.780	1.810
2020/01/31 00:56:31.7	103.580	-0.590	0.710	1.780
2020/01/31 00:56:31.8	103.590	-0.590	0.640	1.750
2020/01/31 00:56:31.9	103.610	-0.580	0.560	1.720
2020/01/31 00:56:32.0	103.630	-0.570	0.470	1.670
2020/01/31 00:56:32.1	103.640	-0.550	0.380	1.640
2020/01/31 00:56:32.2	103.660	-0.540	0.290	1.600
2020/01/31 00:56:32.3	103.670	-0.520	0.190	1.550
2020/01/31 00:56:32.4	103.690	-0.500	0.090	1.510
2020/01/31 00:56:32.5	103.710	-0.470	-0.010	1.460
2020/01/31 00:56:32.6	103.730	-0.450	-0.110	1.420
2020/01/31 00:56:32.7	103.760	-0.420	-0.220	1.370
2020/01/31 00:56:32.8	103.780	-0.390	-0.320	1.320
2020/01/31 00:56:32.9	103.800	-0.360	-0.420	1.260
2020/01/31 00:56:33.0	103.840	-0.330	-0.520	1.210
2020/01/31 00:56:33.1	103.860	-0.300	-0.620	1.160
2020/01/31 00:56:33.2	103.890	-0.270	-0.720	1.100
2020/01/31 00:56:33.3	103.920	-0.230	-0.820	1.050
2020/01/31 00:56:33.4	103.940	-0.190	-0.910	1.000
2020/01/31 00:56:33.5	103.970	-0.160	-1.000	0.950
2020/01/31 00:56:33.6	104.000	-0.120	-1.080	0.890
2020/01/31 00:56:33.7	104.020	-0.080	-1.160	0.840
2020/01/31 00:56:33.8	104.050	-0.040	-1.240	0.800
2020/01/31 00:56:33.9	104.070	-0.000	-1.300	0.750
2020/01/31 00:56:34.0	104.090	0.030	-1.370	0.710
2020/01/31 00:56:34.1	104.110	0.070	-1.430	0.670
2020/01/31 00:56:34.2	104.130	0.110	-1.480	0.630
2020/01/31 00:56:34.3	104.140	0.150	-1.520	0.600
2020/01/31 00:56:34.4	104.160	0.190	-1.560	0.570
2020/01/31 00:56:34.5	104.170	0.220	-1.580	0.540
2020/01/31 00:56:34.6	104.180	0.260	-1.610	0.520
2020/01/31 00:56:34.7	104.190	0.290	-1.620	0.500
2020/01/31 00:56:34.8	104.190	0.330	-1.630	0.490
2020/01/31 00:56:34.9	104.200	0.360	-1.630	0.480
2020/01/31 00:56:35.0	104.190	0.390	-1.620	0.480
2020/01/31 00:56:35.1	104.190	0.420	-1.600	0.480
2020/01/31 00:56:35.2	104.190	0.440	-1.570	0.480
2020/01/31 00:56:35.3	104.190	0.470	-1.540	0.480
2020/01/31 00:56:35.4	104.180	0.490	-1.500	0.490
2020/01/31 00:56:35.5	104.180	0.510	-1.450	0.510
2020/01/31 00:56:35.6	104.170	0.520	-1.400	0.520
2020/01/31 00:56:35.7	104.160	0.540	-1.340	0.540
2020/01/31 00:56:35.8	104.160	0.550	-1.270	0.560
2020/01/31 00:56:35.9	104.150	0.560	-1.200	0.580
2020/01/31 00:56:36.0	104.130	0.560	-1.120	0.600
2020/01/31 00:56:36.1	104.120	0.560	-1.030	0.630
2020/01/31 00:56:36.2	104.110	0.560	-0.940	0.660
2020/01/31 00:56:36.3	104.100	0.560	-0.850	0.680
2020/01/31 00:56:36.4	104.090	0.550	-0.750	0.710
2020/01/31 00:56:36.5	104.080	0.540	-0.650	0.740
2020/01/31 00:56:36.6	104.080	0.530	-0.550	0.760
2020/01/31 00:56:36.7	104.070	0.510	-0.440	0.790
2020/01/31 00:56:36.8	104.060	0.500	-0.330	0.820
2020/01/31 00:56:36.9	104.050	0.480	-0.230	0.840
2020/01/31 00:56:37.0	104.040	0.450	-0.110	0.860
2020/01/31 00:56:37.1	104.030	0.430	-0.000	0.890
2020/01/31 00:56:37.2	104.020	0.400	0.100	0.910
2020/01/31 00:56:37.3	104.020	0.370	0.210	0.930
2020/01/31 00:56:37.4	104.010	0.340	0.310	0.950
2020/01/31 00:56:37.5	104.000	0.310	0.420	0.970
2020/01/31 00:56:37.6	103.990	0.280	0.510	0.980
2020/01/31 00:56:37.7	103.980	0.250	0.610	1.000
2020/01/31 00:56:37.8	103.980	0.210	0.700	1.010
2020/01/31 00:56:37.9	103.970	0.180	0.790	1.030
2020/01/31 00:56:38.0	103.970	0.150	0.870	1.040
2020/01/31 00:56:38.1	103.960	0.110	0.940	1.050
2020/01/31 00:56:38.2	103.950	0.080	1.010	1.050
2020/01/31 00:56:38.3	103.950	0.050	1.070	1.060
2020/01/31 00:56:38.4	103.940	0.020	1.120	1.060
2020/01/31 00:56:38.5	103.930	-0.010	1.170	1.060
2020/01/31 00:56:38.6	103.930	-0.040	1.210	1.060
2020/01/31 00:56:38.7	103.920	-0.070	1.250	1.060
2020/01/31 00:56:38.8	103.920	-0.090	1.270	1.060
2020/01/31 00:56:38.9	103.910	-0.120	1.290	1.050
2020/01/31 00:56:39.0	103.920	-0.140	1.300	1.050
2020/01/31 00:56:39.1	103.920	-0.160	1.300	1.040
2020/01/31 00:56:39.2	103.920	-0.170	1.300	1.030
2020/01/31 00:56:39.3	103.920	-0.190	1.280	1.020
2020/01/31 00:56:39.4	103.920	-0.200	1.260	1.000
2020/01/31 00:56:39.5	103.920	-0.210	1.240	0.990
2020/01/31 00:56:39.6	103.920	-0.220	1.200	0.980
2020/01/31 00:56:39.7	103.930	-0.230	1.160	0.960
2020/01/31 00:56:39.8	103.930	-0.240	1.120	0.940
2020/01/31 00:56:39.9	103.940	-0.240	1.060	0.930
2020/01/31 00:56:40.0	103.940	-0.240	1.000	0.910
2020/01/31 00:56:40.1	103.950	-0.240	0.940	0.890
2020/01/31 00:56:40.2	103.960	-0.240	0.870	0.870
2020/01/31 00:56:40.3	103.970	-0.230	0.800	0.860
2020/01/31 00:56:40.4	103.980	-0.230	0.720	0.850
2020/01/31 00:56:40.5	104.000	-0.220	0.640	0.830
2020/01/31 00:56:40.6	104.010	-0.210	0.560	0.820
2020/01/31 00:56:40.7	104.020	-0.200	0.470	0.810
2020/01/31 00:56:40.8	104.040	-0.190	0.380	0.800
2020/01/31 00:56:40.9	104.050	-0.180	0.280	0.800
2020/01/31 00:56:41.0	104.060	-0.170	0.190	0.790
2020/01/31 00:56:41.1	104.080	-0.150	0.090	0.790
2020/01/31 00:56:41.2	104.090	-0.140	-0.000	0.790
2020/01/31 00:56:41.3	104.100	-0.120	-0.100	0.790
2020/01/31 00:56:41.4	104.120	-0.110	-0.200	0.800
2020/01/31 00:56:41.5	104.130	-0.090	-0.300	0.810
2020/01/31 00:56:41.6	104.140	-0.070	-0.400	0.820
2020/01/31 00:56:41.7	104.150	-0.050	-0.490	0.830
2020/01/31 00:56:41.8	104.160	-0.030	-0.590	0.840
2020/01/31 00:56:41.9	104.170	-0.020	-0.680	0.860
2020/01/31 00:56:42.0	104.170	0.000	-0.770	0.880
2020/01/31 00:56:42.1	104.180	0.020	-0.860	0.900
2020/01/31 00:56:42.2	104.190	0.040	-0.940	0.920
2020/01/31 00:56:42.3	104.200	0.060	-1.020	0.940
2020/01/31 00:56:42.4	104.210	0.070	-1.090	0.960
2020/01/31 00:56:42.5	104.210	0.090	-1.160	0.990
2020/01/31 00:56:42.6	104.220	0.100	-1.220	1.010
2020/01/31 00:56:42.7	104.230	0.120	-1.280	1.040
2020/01/31 00:56:42.8	104.230	0.130	-1.330	1.060
2020/01/31 00:56:42.9	104.240	0.140	-1.370	1.090
2020/01/31 00:56:43.0	104.240	0.150	-1.400	1.120
2020/01/31 00:56:43.1	104.250	0.160	-1.430	1.150
2020/01/31 00:56:43.2	104.250	0.170	-1.450	1.180
2020/01/31 00:56:43.3	104.260	0.180	-1.460	1.210
2020/01/31 00:56:43.4	104.260	0.180	-1.460	1.240
2020/01/31 00:56:43.5	104.270	0.180	-1.460	1.270
2020/01/31 00:56:43.6	104.270	0.180	-1.450	1.300
2020/01/31 00:56:43.7	104.280	0.180	-1.430	1.340
2020/01/31 00:56:43.8	104.290	0.180	-1.400	1.370
2020/01/31 00:56:43.9	104.290	0.170	-1.370	1.400
2020/01/31 00:56:44.0	104.300	0.170	-1.320	1.440
2020/01/31 00:56:44.1	104.300	0.160	-1.270	1.470
2020/01/31 00:56:44.2	104.310	0.150	-1.220	1.510
2020/01/31 00:56:44.3	104.320	0.130	-1.160	1.540
2020/01/31 00:56:44.4	104.320	0.120	-1.090	1.580
2020/01/31 00:56:44.5	104.330	0.110	-1.020	1.610
2020/01/31 00:56:44.6	104.330	0.090	-0.950	1.650
2020/01/31 00:56:44.7	104.340	0.070	-0.870	1.680
2020/01/31 00:56:44.8	104.340	0.050	-0.800	1.720
2020/01/31 00:56:44.9	104.350	0.030	-0.710	1.750
2020/01/31 00:56:45.0	104.350	0.010	-0.630	1.780
2020/01/31 00:56:45.1	104.360	-0.010	-0.540	1.810
2020/01/31 00:56:45.2	104.370	-0.030	-0.460	1.840
2020/01/31 00:56:45.3	104.370	-0.050	-0.370	1.870
2020/01/31 00:56:45.4	104.380	-0.070	-0.290	1.890
2020/01/31 00:56:45.5	104.380	-0.100	-0.200	1.920
2020/01/31 00:56:45.6	104.390	-0.120	-0.120	1.940
2020/01/31 00:56:45.7	104.390	-0.140	-0.040	1.960
2020/01/31 00:56:45.8	104.400	-0.160	0.040	1.970
2020/01/31 00:56:45.9	104.400	-0.190	0.110	1.990
2020/01/31 00:56:46.0	104.400	-0.210	0.190	2.000
2020/01/31 00:56:46.1	104.400	-0.230	0.260	2.010
2020/01/31 00:56:46.2	104.400	-0.250	0.320	2.020
2020/01/31 00:56:46.3	104.410	-0.260	0.380	2.020
2020/01/31 00:56:46.4	104.410	-0.280	0.440	2.030
2020/01/31 00:56:46.5	104.410	-0.300	0.500	2.030
2020/01/31 00:56:46.6	104.410	-0.310	0.540	2.020
2020/01/31 00:56:46.7	104.410	-0.320	0.590	2.020
2020/01/31 00:56:46.8	104.400	-0.340	0.630	2.010
2020/01/31 00:56:46.9	104.400	-0.340	0.670	2.000
2020/01/31 00:56:47.0	104.400	-0.350	0.700	1.990
2020/01/31 00:56:47.1	104.390	-0.360	0.720	1.980
2020/01/31 00:56:47.2	104.390	-0.360	0.740	1.960
2020/01/31 00:56:47.3	104.380	-0.360	0.760	1.940
2020/01/31 00:56:47.4	104.370	-0.360	0.770	1.920
2020/01/31 00:56:47.5	104.360	-0.360	0.780	1.890
2020/01/31 00:56:47.6	104.350	-0.350	0.780	1.860
2020/01/31 00:56:47.7	104.340	-0.340	0.780	1.840
2020/01/31 00:56:47.8	104.330	-0.340	0.780	1.800
2020/01/31 00:56:47.9	104.310	-0.320	0.770	1.770
2020/01/31 00:56:48.0	104.310	-0.310	0.750	1.730
2020/01/31 00:56:48.1	104.300	-0.290	0.730	1.700
2020/01/31 00:56:48.2	104.280	-0.280	0.710	1.660
2020/01/31 00:56:48.3	104.270	-0.260	0.690	1.620
2020/01/31 00:56:48.4	104.250	-0.240	0.650	1.570
2020/01/31 00:56:48.5	104.240	-0.210	0.620	1.530
2020/01/31 00:56:48.6	104.230	-0.190	0.580	1.490
2020/01/31 00:56:48.7	104.210	-0.160	0.540	1.440
2020/01/31 00:56:48.8	104.200	-0.130	0.500	1.390
2020/01/31 00:56:48.9	104.180	-0.100	0.450	1.340
2020/01/31 00:56:49.0	104.170	-0.070	0.400	1.290
2020/01/31 00:56:49.1	104.160	-0.040	0.350	1.230
2020/01/31 00:56:49.2	104.150	-0.010	0.300	1.180
2020/01/31 00:56:49.3	104.140	0.020	0.240	1.120
2020/01/31 00:56:49.4	104.130	0.060	0.190	1.070
2020/01/31 00:56:49.5	104.120	0.090	0.130	1.010
2020/01/31 00:56:49.6	104.110	0.130	0.070	0.950
2020/01/31 00:56:49.7	104.110	0.160	0.010	0.890
2020/01/31 00:56:49.8	104.100	0.200	-0.050	0.830
2020/01/31 00:56:49.9	104.100	0.240	-0.110	0.770
2020/01/31 00:56:50.0	104.110	0.270	-0.180	0.710
2020/01/31 00:56:50.1	104.110	0.310	-0.240	0.650
2020/01/31 00:56:50.2	104.110	0.340	-0.300	0.580
2020/01/31 00:56:50.3	104.120	0.380	-0.360	0.520
2020/01/31 00:56:50.4	104.120	0.410	-0.420	0.460
2020/01/31 00:56:50.5	104.130	0.440	-0.480	0.390
2020/01/31 00:56:50.6	104.150	0.480	-0.530	0.330
2020/01/31 00:56:50.7	104.160	0.510	-0.590	0.270
2020/01/31 00:56:50.8	104.170	0.540	-0.640	0.200
2020/01/31 00:56:50.9	104.190	0.570	-0.690	0.140
2020/01/31 00:56:51.0	104.210	0.590	-0.740	0.070
2020/01/31 00:56:51.1	104.230	0.620	-0.790	0.010
2020/01/31 00:56:51.2	104.250	0.640	-0.840	-0.040
2020/01/31 00:56:51.3	104.270	0.670	-0.880	-0.100
2020/01/31 00:56:51.4	104.290	0.690	-0.920	-0.150
2020/01/31 00:56:51.5	104.320	0.710	-0.950	-0.200
2020/01/31 00:56:51.6	104.340	0.720	-0.990	-0.250
2020/01/31 00:56:51.7	104.360	0.740	-1.020	-0.290
2020/01/31 00:56:51.8	104.380	0.750	-1.040	-0.330
2020/01/31 00:56:51.9	104.400	0.760	-1.060	-0.370
2020/01/31 00:56:52.0	104.430	0.770	-1.080	-0.400
2020/01/31 00:56:52.1	104.450	0.770	-1.090	-0.420
2020/01/31 00:56:52.2	104.470	0.770	-1.100	-0.440
2020/01/31 00:56:52.3	104.490	0.770	-1.100	-0.460
2020/01/31 00:56:52.4	104.500	0.760	-1.090	-0.470
2020/01/31 00:56:52.5	104.520	0.750	-1.080	-0.470
2020/01/31 00:56:52.6	104.530	0.740	-1.060	-0.470
2020/01/31 00:56:52.7	104.550	0.720	-1.040	-0.460
2020/01/31 00:56:52.8	104.560	0.700	-1.010	-0.440
2020/01/31 00:56:52.9	104.560	0.680	-0.980	-0.420
2020/01/31 00:56:53.0	104.580	0.650	-0.930	-0.400
2020/01/31 00:56:53.1	104.580	0.620	-0.880	-0.360
2020/01/31 00:56:53.2	104.590	0.590	-0.830	-0.320
2020/01/31 00:56:53.3	104.590	0.550	-0.770	-0.280
2020/01/31 00:56:53.4	104.590	0.510	-0.710	-0.220
2020/01/31 00:56:53.5	104.580	0.470	-0.640	-0.160
2020/01/31 00:56:53.6	104.580	0.420	-0.560	-0.100
2020/01/31 00:56:53.7	104.570	0.370	-0.490	-0.030
2020/01/31 00:56:53.8	104.570	0.310	-0.400	0.050
2020/01/31 00:56:53.9	104.560	0.250	-0.320	0.130
2020/01/31 00:56:54.0	104.550	0.200	-0.220	0.220
2020/01/31 00:56:54.1	104.540	0.130	-0.130	0.310
2020/01/31 00:56:54.2	104.530	0.070	-0.040	0.400
2020/01/31 00:56:54.3	104.520	0.000	0.060	0.500
2020/01/31 00:56:54.4	104.510	-0.060	0.160	0.610
2020/01/31 00:56:54.5	104.500	-0.130	0.250	0.710
2020/01/31 00:56:54.6	104.490	-0.200	0.350	0.820
2020/01/31 00:56:54.7	104.480	-0.260	0.440	0.930
2020/01/31 00:56:54.8	104.470	-0.330	0.530	1.040
2020/01/31 00:56:54.9	104.460	-0.400	0.620	1.150
2020/01/31 00:56:55.0	104.450	-0.460	0.710	1.260
2020/01/31 00:56:55.1	104.450	-0.530	0.790	1.370
2020/01/31 00:56:55.2	104.440	-0.590	0.860	1.480
2020/01/31 00:56:55.3	104.440	-0.650	0.930	1.590
2020/01/31 00:56:55.4	104.440	-0.710	0.990	1.700
2020/01/31 00:56:55.5	104.440	-0.760	1.040	1.800
2020/01/31 00:56:55.6	104.440	-0.810	1.090	1.910
2020/01/31 00:56:55.7	104.440	-0.860	1.130	2.010
2020/01/31 00:56:55.8	104.440	-0.910	1.160	2.110
2020/01/31 00:56:55.9	104.450	-0.950	1.180	2.200
2020/01/31 00:56:56.0	104.450	-0.980	1.190	2.290
2020/01/31 00:56:56.1	104.450	-1.010	1.190	2.380
2020/01/31 00:56:56.2	104.460	-1.040	1.180	2.470
2020/01/31 00:56:56.3	104.470	-1.060	1.170	2.550
2020/01/31 00:56:56.4	104.470	-1.070	1.140	2.630
2020/01/31 00:56:56.5	104.480	-1.080	1.100	2.700
2020/01/31 00:56:56.6	104.490	-1.090	1.060	2.770
2020/01/31 00:56:56.7	104.500	-1.090	1.000	2.830
2020/01/31 00:56:56.8	104.510	-1.080	0.940	2.890
2020/01/31 00:56:56.9	104.510	-1.080	0.870	2.950
2020/01/31 00:56:57.0	104.520	-1.060	0.790	3.000
2020/01/31 00:56:57.1	104.530	-1.040	0.710	3.050
2020/01/31 00:56:57.2	104.530	-1.020	0.610	3.090
2020/01/31 00:56:57.3	104.540	-0.990	0.520	3.130
2020/01/31 00:56:57.4	104.550	-0.950	0.410	3.160
2020/01/31 00:56:57.5	104.550	-0.920	0.310	3.200
2020/01/31 00:56:57.6	104.560	-0.880	0.200	3.220
2020/01/31 00:56:57.7	104.570	-0.830	0.080	3.240
2020/01/31 00:56:57.8	104.570	-0.780	-0.030	3.260
2020/01/31 00:56:57.9	104.570	-0.730	-0.150	3.280
2020/01/31 00:56:58.0	104.560	-0.680	-0.260	3.290
2020/01/31 00:56:58.1	104.570	-0.620	-0.380	3.300
2020/01/31 00:56:58.2	104.570	-0.560	-0.490	3.300
2020/01/31 00:56:58.3	104.570	-0.500	-0.600	3.300
2020/01/31 00:56:58.4	104.570	-0.430	-0.710	3.300
2020/01/31 00:56:58.5	104.570	-0.370	-0.820	3.300
2020/01/31 00:56:58.6	104.570	-0.300	-0.910	3.290
2020/01/31 00:56:58.7	104.570	-0.240	-1.010	3.280
2020/01/31 00:56:58.8	104.570	-0.170	-1.090	3.260
2020/01/31 00:56:58.9	104.560	-0.100	-1.170	3.250
2020/01/31 00:56:59.0	104.570	-0.040	-1.250	3.230
2020/01/31 00:56:59.1	104.560	0.030	-1.310	3.200
2020/01/31 00:56:59.2	104.560	0.090	-1.370	3.180
2020/01/31 00:56:59.3	104.560	0.160	-1.420	3.150
2020/01/31 00:56:59.4	104.550	0.220	-1.450	3.120
2020/01/31 00:56:59.5	104.550	0.280	-1.480	3.090
2020/01/31 00:56:59.6	104.540	0.330	-1.500	3.050
2020/01/31 00:56:59.7	104.540	0.390	-1.510	3.010
2020/01/31 00:56:59.8	104.530	0.440	-1.510	2.970
2020/01/31 00:56:59.9	104.530	0.490	-1.500	2.920
2020/01/31 00:57:00.0	104.530	0.530	-1.480	2.870
2020/01/31 00:57:00.1	104.520	0.580	-1.450	2.820
2020/01/31 00:57:00.2	104.520	0.620	-1.420	2.760
2020/01/31 00:57:00.3	104.510	0.650	-1.380	2.710
2020/01/31 00:57:00.4	104.510	0.690	-1.330	2.640
2020/01/31 00:57:00.5	104.500	0.710	-1.270	2.580
2020/01/31 00:57:00.6	104.500	0.740	-1.210	2.510
2020/01/31 00:57:00.7	104.500	0.760	-1.140	2.440
2020/01/31 00:57:00.8	104.490	0.780	-1.070	2.360
2020/01/31 00:57:00.9	104.490	0.800	-0.990	2.280
2020/01/31 00:57:01.0	104.490	0.810	-0.910	2.190
2020/01/31 00:57:01.1	104.480	0.820	-0.830	2.110
2020/01/31 00:57:01.2	104.480	0.830	-0.740	2.020
2020/01/31 00:57:01.3	104.480	0.830	-0.660	1.920
2020/01/31 00:57:01.4	104.470	0.830	-0.570	1.830
2020/01/31 00:57:01.5	104.470	0.830	-0.480	1.730
2020/01/31 00:57:01.6	104.460	0.820	-0.390	1.630
2020/01/31 00:57:01.7	104.460	0.820	-0.300	1.520
2020/01/31 00:57:01.8	104.450	0.810	-0.210	1.420
2020/01/31 00:57:01.9	104.450	0.790	-0.130	1.310
2020/01/31 00:57:02.0	104.440	0.780	-0.040	1.200
2020/01/31 00:57:02.1	104.440	0.760	0.040	1.080
2020/01/31 00:57:02.2	104.440	0.740	0.130	0.970
2020/01/31 00:57:02.3	104.430	0.720	0.200	0.850
2020/01/31 00:57:02.4	104.430	0.700	0.280	0.730
2020/01/31 00:57:02.5	104.430	0.670	0.350	0.620
2020/01/31 00:57:02.6	104.430	0.640	0.420	0.500
2020/01/31 00:57:02.7	104.430	0.620	0.490	0.380
2020/01/31 00:57:02.8	104.430	0.590	0.550	0.260
2020/01/31 00:57:02.9	104.430	0.560	0.610	0.150
2020/01/31 00:57:03.0	104.440	0.520	0.660	0.030
2020/01/31 00:57:03.1	104.440	0.490	0.710	-0.080
2020/01/31 00:57:03.2	104.440	0.460	0.750	-0.190
2020/01/31 00:57:03.3	104.450	0.420	0.790	-0.290
2020/01/31 00:57:03.4	104.450	0.390	0.820	-0.390
2020/01/31 00:57:03.5	104.450	0.350	0.850	-0.490
2020/01/31 00:57:03.6	104.450	0.320	0.870	-0.580
2020/01/31 00:57:03.7	104.450	0.290	0.880	-0.660
2020/01/31 00:57:03.8	104.450	0.250	0.890	-0.750
2020/01/31 00:57:03.9	104.450	0.220	0.890	-0.820
2020/01/31 00:57:04.0	104.450	0.190	0.880	-0.890
2020/01/31 00:57:04.1	104.450	0.160	0.870	-0.960
2020/01/31 00:57:04.2	104.440	0.130	0.850	-1.020
2020/01/31 00:57:04.3	104.440	0.100	0.820	-1.070
2020/01/31 00:57:04.4	104.430	0.070	0.790	-1.120
2020/01/31 00:57:04.5	104.430	0.040	0.750	-1.160
2020/01/31 00:57:04.6	104.420	0.020	0.710	-1.200
2020/01/31 00:57:04.7	104.410	-0.010	0.660	-1.230
2020/01/31 00:57:04.8	104.400	-0.030	0.600	-1.250
2020/01/31 00:57:04.9	104.390	-0.050	0.540	-1.270
2020/01/31 00:57:05.0	104.400	-0.070	0.480	-1.280
2020/01/31 00:57:05.1	104.390	-0.090	0.410	-1.290
2020/01/31 00:57:05.2	104.370	-0.100	0.340	-1.280
2020/01/31 00:57:05.3	104.360	-0.120	0.260	-1.270
2020/01/31 00:57:05.4	104.350	-0.130	0.180	-1.250
2020/01/31 00:57:05.5	104.340	-0.150	0.100	-1.230
2020/01/31 00:57:05.6	104.320	-0.160	0.020	-1.200
2020/01/31 00:57:05.7	104.310	-0.170	-0.060	-1.160
2020/01/31 00:57:05.8	104.300	-0.180	-0.140	-1.120
2020/01/31 00:57:05.9	104.290	-0.200	-0.220	-1.080
2020/01/31 00:57:06.0	104.280	-0.210	-0.300	-1.020
2020/01/31 00:57:06.1	104.270	-0.220	-0.380	-0.960
2020/01/31 00:57:06.2	104.270	-0.230	-0.450	-0.900
2020/01/31 00:57:06.3	104.260	-0.240	-0.520	-0.830
2020/01/31 00:57:06.4	104.250	-0.250	-0.580	-0.760
2020/01/31 00:57:06.5	104.250	-0.260	-0.640	-0.690
2020/01/31 00:57:06.6	104.250	-0.270	-0.690	-0.610
2020/01/31 00:57:06.7	104.240	-0.280	-0.740	-0.530
2020/01/31 00:57:06.8	104.250	-0.300	-0.780	-0.440
2020/01/31 00:57:06.9	104.250	-0.310	-0.820	-0.360
2020/01/31 00:57:07.0	104.250	-0.320	-0.840	-0.270
2020/01/31 00:57:07.1	104.250	-0.340	-0.870	-0.180
2020/01/31 00:57:07.2	104.260	-0.350	-0.880	-0.090
2020/01/31 00:57:07.3	104.270	-0.360	-0.890	0.000
2020/01/31 00:57:07.4	104.280	-0.380	-0.900	0.100
2020/01/31 00:57:07.5	104.300	-0.390	-0.900	0.200
2020/01/31 00:57:07.6	104.310	-0.410	-0.890	0.300
2020/01/31 00:57:07.7	104.330	-0.420	-0.880	0.400
2020/01/31 00:57:07.8	104.340	-0.440	-0.860	0.500
2020/01/31 00:57:07.9	104.360	-0.450	-0.840	0.600
2020/01/31 00:57:08.0	104.390	-0.470	-0.810	0.710
2020/01/31 00:57:08.1	104.410	-0.480	-0.780	0.820
2020/01/31 00:57:08.2	104.430	-0.500	-0.750	0.920
2020/01/31 00:57:08.3	104.460	-0.510	-0.710	1.030
2020/01/31 00:57:08.4	104.480	-0.520	-0.670	1.130
2020/01/31 00:57:08.5	104.510	-0.530	-0.620	1.240
2020/01/31 00:57:08.6	104.530	-0.540	-0.580	1.340
2020/01/31 00:57:08.7	104.560	-0.550	-0.530	1.450
2020/01/31 00:57:08.8	104.590	-0.560	-0.480	1.550
2020/01/31 00:57:08.9	104.620	-0.570	-0.430	1.660
2020/01/31 00:57:09.0	104.630	-0.570	-0.380	1.760
2020/01/31 00:57:09.1	104.660	-0.570	-0.330	1.860
2020/01/31 00:57:09.2	104.690	-0.570	-0.280	1.960
2020/01/31 00:57:09.3	104.720	-0.570	-0.230	2.050
2020/01/31 00:57:09.4	104.750	-0.570	-0.180	2.150
2020/01/31 00:57:09.5	104.770	-0.560	-0.130	2.240
2020/01/31 00:57:09.6	104.800	-0.560	-0.080	2.330
2020/01/31 00:57:09.7	104.820	-0.550	-0.040	2.420
2020/01/31 00:57:09.8	104.850	-0.530	0.000	2.500
2020/01/31 00:57:09.9	104.870	-0.520	0.040	2.580
2020/01/31 00:57:10.0	104.890	-0.500	0.080	2.660
2020/01/31 00:57:10.1	104.910	-0.480	0.110	2.730
2020/01/31 00:57:10.2	104.930	-0.460	0.140	2.800
2020/01/31 00:57:10.3	104.940	-0.430	0.170	2.870
2020/01/31 00:57:10.4	104.950	-0.410	0.190	2.930
2020/01/31 00:57:10.5	104.960	-0.380	0.210	2.990
2020/01/31 00:57:10.6	104.970	-0.340	0.230	3.050
2020/01/31 00:57:10.7	104.980	-0.310	0.240	3.100
2020/01/31 00:57:10.8	104.980	-0.280	0.250	3.140
2020/01/31 00:57:10.9	104.980	-0.240	0.260	3.190
2020/01/31 00:57:11.0	104.970	-0.200	0.260	3.230
2020/01/31 00:57:11.1	104.970	-0.160	0.260	3.260
2020/01/31 00:57:11.2	104.960	-0.120	0.250	3.290
2020/01/31 00:57:11.3	104.950	-0.080	0.250	3.310
2020/01/31 00:57:11.4	104.930	-0.040	0.240	3.330
2020/01/31 00:57:11.5	104.920	0.010	0.230	3.350
2020/01/31 00:57:11.6	104.900	0.050	0.210	3.360
2020/01/31 00:57:11.7	104.880	0.090	0.200	3.360
2020/01/31 00:57:11.8	104.860	0.140	0.180	3.360
2020/01/31 00:57:11.9	104.830	0.180	0.160	3.360
2020/01/31 00:57:12.0	104.810	0.220	0.140	3.340
2020/01/31 00:57:12.1	104.790	0.260	0.120	3.330
2020/01/31 00:57:12.2	104.760	0.300	0.090	3.310
2020/01/31 00:57:12.3	104.730	0.340	0.070	3.280
2020/01/31 00:57:12.4	104.710	0.380	0.040	3.250
2020/01/31 00:57:12.5	104.680	0.410	0.020	3.220
2020/01/31 00:57:12.6	104.650	0.450	-0.010	3.180
2020/01/31 00:57:12.7	104.630	0.480	-0.040	3.130
2020/01/31 00:57:12.8	104.600	0.510	-0.060	3.080
2020/01/31 00:57:12.9	104.580	0.530	-0.090	3.030
2020/01/31 00:57:13.0	104.550	0.560	-0.120	2.960
2020/01/31 00:57:13.1	104.530	0.580	-0.140	2.900
2020/01/31 00:57:13.2	104.510	0.600	-0.170	2.830
2020/01/31 00:57:13.3	104.490	0.620	-0.200	2.760
2020/01/31 00:57:13.4	104.470	0.630	-0.220	2.680
2020/01/31 00:57:13.5	104.460	0.640	-0.250	2.610
2020/01/31 00:57:13.6	104.440	0.650	-0.280	2.530
2020/01/31 00:57:13.7	104.430	0.660	-0.300	2.440
2020/01/31 00:57:13.8	104.430	0.670	-0.330	2.360
2020/01/31 00:57:13.9	104.420	0.670	-0.350	2.270
2020/01/31 00:57:14.0	104.410	0.670	-0.380	2.180
2020/01/31 00:57:14.1	104.410	0.670	-0.400	2.090
2020/01/31 00:57:14.2	104.410	0.660	-0.420	1.990
2020/01/31 00:57:14.3	104.410	0.650	-0.440	1.890
2020/01/31 00:57:14.4	104.410	0.650	-0.460	1.800
2020/01/31 00:57:14.5	104.420	0.640	-0.480	1.700
2020/01/31 00:57:14.6	104.430	0.620	-0.490	1.600
2020/01/31 00:57:14.7	104.440	0.610	-0.500	1.500
2020/01/31 00:57:14.8	104.450	0.590	-0.510	1.400
2020/01/31 00:57:14.9	104.470	0.580	-0.520	1.300
2020/01/31 00:57:15.0	104.490	0.560	-0.520	1.190
2020/01/31 00:57:15.1	104.510	0.540	-0.520	1.090
2020/01/31 00:57:15.2	104.530	0.520	-0.520	0.990
2020/01/31 00:57:15.3	104.550	0.500	-0.520	0.890
2020/01/31 00:57:15.4	104.570	0.470	-0.510	0.790
2020/01/31 00:57:15.5	104.590	0.450	-0.510	0.690
2020/01/31 00:57:15.6	104.610	0.420	-0.490	0.600
2020/01/31 00:57:15.7	104.640	0.400	-0.480	0.500
2020/01/31 00:57:15.8	104.660	0.370	-0.460	0.410
2020/01/31 00:57:15.9	104.690	0.340	-0.440	0.310
2020/01/31 00:57:16.0	104.710	0.310	-0.420	0.220
2020/01/31 00:57:16.1	104.730	0.280	-0.400	0.140
2020/01/31 00:57:16.2	104.760	0.250	-0.370	0.050
2020/01/31 00:57:16.3	104.790	0.220	-0.350	-0.030
2020/01/31 00:57:16.4	104.810	0.190	-0.320	-0.110
2020/01/31 00:57:16.5	104.840	0.160	-0.290	-0.190
2020/01/31 00:57:16.6	104.860	0.120	-0.260	-0.270
2020/01/31 00:57:16.7	104.890	0.090	-0.220	-0.340
2020/01/31 00:57:16.8	104.910	0.060	-0.190	-0.410
2020/01/31 00:57:16.9	104.930	0.030	-0.160	-0.470
2020/01/31 00:57:17.0	104.970	-0.010	-0.120	-0.530
2020/01/31 00:57:17.1	104.990	-0.040	-0.090	-0.590
2020/01/31 00:57:17.2	105.010	-0.070	-0.060	-0.640
2020/01/31 00:57:17.3	105.030	-0.100	-0.030	-0.690
2020/01/31 00:57:17.4	105.050	-0.130	0.000	-0.730
2020/01/31 00:57:17.5	105.070	-0.160	0.030	-0.770
2020/01/31 00:57:17.6	105.090	-0.190	0.060	-0.800
2020/01/31 00:57:17.7	105.110	-0.220	0.080	-0.820
2020/01/31 00:57:17.8	105.120	-0.250	0.110	-0.840
2020/01/31 00:57:17.9	105.140	-0.280	0.130	-0.850
2020/01/31 00:57:18.0	105.160	-0.300	0.150	-0.860
2020/01/31 00:57:18.1	105.170	-0.330	0.160	-0.860
2020/01/31 00:57:18.2	105.180	-0.350	0.180	-0.850
2020/01/31 00:57:18.3	105.190	-0.370	0.190	-0.830
2020/01/31 00:57:18.4	105.200	-0.390	0.200	-0.810
2020/01/31 00:57:18.5	105.210	-0.410	0.210	-0.780
2020/01/31 00:57:18.6	105.220	-0.430	0.210	-0.750
2020/01/31 00:57:18.7	105.230	-0.440	0.210	-0.700
2020/01/31 00:57:18.8	105.230	-0.460	0.210	-0.650
2020/01/31 00:57:18.9	105.230	-0.470	0.210	-0.590
2020/01/31 00:57:19.0	105.250	-0.480	0.210	-0.530
2020/01/31 00:57:19.1	105.250	-0.480	0.210	-0.460
2020/01/31 00:57:19.2	105.240	-0.490	0.200	-0.380
2020/01/31 00:57:19.3	105.230	-0.500	0.190	-0.300
2020/01/31 00:57:19.4	105.220	-0.500	0.180	-0.210
2020/01/31 00:57:19.5	105.210	-0.500	0.170	-0.120
2020/01/31 00:57:19.6	105.190	-0.500	0.160	-0.020
2020/01/31 00:57:19.7	105.170	-0.500	0.150	0.080
2020/01/31 00:57:19.8	105.160	-0.490	0.140	0.180
2020/01/31 00:57:19.9	105.140	-0.490	0.120	0.280
2020/01/31 00:57:20.0	105.130	-0.480	0.110	0.400
2020/01/31 00:57:20.1	105.110	-0.480	0.100	0.500
2020/01/31 00:57:20.2	105.090	-0.470	0.080	0.610
2020/01/31 00:57:20.3	105.070	-0.460	0.070	0.710
2020/01/31 00:57:20.4	105.050	-0.450	0.060	0.820
2020/01/31 00:57:20.5	105.030	-0.440	0.050	0.920
2020/01/31 00:57:20.6	105.010	-0.430	0.030	1.020
2020/01/31 00:57:20.7	105.000	-0.420	0.020	1.120
2020/01/31 00:57:20.8	104.980	-0.400	0.010	1.220
2020/01/31 00:57:20.9	104.970	-0.390	-0.000	1.310
2020/01/31 00:57:21.0	104.940	-0.380	-0.010	1.400
2020/01/31 00:57:21.1	104.930	-0.360	-0.030	1.490
2020/01/31 00:57:21.2	104.930	-0.350	-0.040	1.570
2020/01/31 00:57:21.3	104.920	-0.330	-0.050	1.650
2020/01/31 00:57:21.4	104.920	-0.310	-0.070	1.730
2020/01/31 00:57:21.5	104.910	-0.290	-0.080	1.800
2020/01/31 00:57:21.6	104.910	-0.270	-0.100	1.870
2020/01/31 00:57:21.7	104.910	-0.250	-0.120	1.930
2020/01/31 00:57:21.8	104.910	-0.230	-0.130	1.990
2020/01/31 00:57:21.9	104.920	-0.210	-0.150	2.050
2020/01/31 00:57:22.0	104.910	-0.190	-0.180	2.110
2020/01/31 00:57:22.1	104.920	-0.160	-0.200	2.160
2020/01/31 00:57:22.2	104.920	-0.140	-0.220	2.210
2020/01/31 00:57:22.3	104.930	-0.110	-0.250	2.250
2020/01/31 00:57:22.4	104.930	-0.080	-0.270	2.290
2020/01/31 00:57:22.5	104.940	-0.050	-0.300	2.330
2020/01/31 00:57:22.6	104.950	-0.020	-0.330	2.370
2020/01/31 00:57:22.7	104.960	0.010	-0.360	2.400
2020/01/31 00:57:22.8	104.970	0.040	-0.400	2.430
2020/01/31 00:57:22.9	104.990	0.070	-0.430	2.460
2020/01/31 00:57:23.0	105.010	0.100	-0.460	2.480
2020/01/31 00:57:23.1	105.020	0.130	-0.490	2.500
2020/01/31 00:57:23.2	105.040	0.170	-0.520	2.520
2020/01/31 00:57:23.3	105.050	0.200	-0.560	2.540
2020/01/31 00:57:23.4	105.070	0.230	-0.590	2.550
2020/01/31 00:57:23.5	105.090	0.270	-0.610	2.560
2020/01/31 00:57:23.6	105.110	0.300	-0.640	2.570
2020/01/31 00:57:23.7	105.130	0.330	-0.670	2.580
2020/01/31 00:57:23.8	105.150	0.360	-0.690	2.580
2020/01/31 00:57:23.9	105.170	0.390	-0.710	2.580
2020/01/31 00:57:24.0	105.190	0.410	-0.720	2.590
2020/01/31 00:57:24.1	105.220	0.440	-0.740	2.580
2020/01/31 00:57:24.2	105.240	0.470	-0.750	2.580
2020/01/31 00:57:24.3	105.260	0.490	-0.750	2.570
2020/01/31 00:57:24.4	105.290	0.510	-0.760	2.570
2020/01/31 00:57:24.5	105.310	0.530	-0.760	2.560
2020/01/31 00:57:24.6	105.330	0.540	-0.750	2.550
2020/01/31 00:57:24.7	105.360	0.560	-0.740	2.540
2020/01/31 00:57:24.8	105.380	0.570	-0.730	2.530
2020/01/31 00:57:24.9	105.400	0.580	-0.710	2.520
2020/01/31 00:57:25.0	105.410	0.590	-0.690	2.500
2020/01/31 00:57:25.1	105.430	0.590	-0.670	2.490
2020/01/31 00:57:25.2	105.450	0.590	-0.640	2.480
2020/01/31 00:57:25.3	105.460	0.590	-0.610	2.470
2020/01/31 00:57:25.4	105.480	0.590	-0.570	2.450
2020/01/31 00:57:25.5	105.490	0.580	-0.530	2.440
2020/01/31 00:57:25.6	105.500	0.570	-0.480	2.430
2020/01/31 00:57:25.7	105.510	0.560	-0.440	2.410
2020/01/31 00:57:25.8	105.520	0.540	-0.390	2.390
2020/01/31 00:57:25.9	105.520	0.530	-0.340	2.380
2020/01/31 00:57:26.0	105.520	0.510	-0.280	2.360
2020/01/31 00:57:26.1	105.520	0.490	-0.220	2.340
2020/01/31 00:57:26.2	105.520	0.460	-0.160	2.320
2020/01/31 00:57:26.3	105.520	0.440	-0.100	2.300
2020/01/31 00:57:26.4	105.520	0.410	-0.040	2.280
2020/01/31 00:57:26.5	105.510	0.380	0.030	2.250
2020/01/31 00:57:26.6	105.510	0.350	0.090	2.230
2020/01/31 00:57:26.7	105.500	0.310	0.150	2.200
2020/01/31 00:57:26.8	105.490	0.280	0.210	2.170
2020/01/31 00:57:26.9	105.480	0.240	0.280	2.140
2020/01/31 00:57:27.0	105.460	0.210	0.340	2.100
2020/01/31 00:57:27.1	105.450	0.170	0.390	2.060
2020/01/31 00:57:27.2	105.440	0.130	0.450	2.020
2020/01/31 00:57:27.3	105.420	0.090	0.500	1.980
2020/01/31 00:57:27.4	105.410	0.050	0.550	1.930
2020/01/31 00:57:27.5	105.390	0.010	0.590	1.880
2020/01/31 00:57:27.6	105.380	-0.030	0.630	1.830
2020/01/31 00:57:27.7	105.360	-0.060	0.660	1.780
2020/01/31 00:57:27.8	105.350	-0.100	0.690	1.730
2020/01/31 00:57:27.9	105.330	-0.140	0.710	1.670
2020/01/31 00:57:28.0	105.310	-0.170	0.720	1.620
2020/01/31 00:57:28.1	105.290	-0.210	0.730	1.560
2020/01/31 00:57:28.2	105.270	-0.240	0.740	1.500
2020/01/31 00:57:28.3	105.260	-0.270	0.740	1.440
2020/01/31 00:57:28.4	105.240	-0.300	0.730	1.380
2020/01/31 00:57:28.5	105.220	-0.330	0.710	1.320
2020/01/31 00:57:28.6	105.200	-0.360	0.690	1.260
2020/01/31 00:57:28.7	105.190	-0.380	0.660	1.200
2020/01/31 00:57:28.8	105.170	-0.400	0.630	1.130
2020/01/31 00:57:28.9	105.150	-0.420	0.590	1.070
2020/01/31 00:57:29.0	105.150	-0.430	0.540	1.000
2020/01/31 00:57:29.1	105.140	-0.450	0.490	0.940
2020/01/31 00:57:29.2	105.120	-0.460	0.440	0.880
2020/01/31 00:57:29.3	105.110	-0.470	0.380	0.830
2020/01/31 00:57:29.4	105.100	-0.470	0.310	0.770
2020/01/31 00:57:29.5	105.090	-0.480	0.240	0.710
2020/01/31 00:57:29.6	105.080	-0.480	0.170	0.660
2020/01/31 00:57:29.7	105.070	-0.480	0.100	0.600
2020/01/31 00:57:29.8	105.060	-0.470	0.020	0.550
2020/01/31 00:57:29.9	105.060	-0.470	-0.060	0.500
2020/01/31 00:57:30.0	105.060	-0.460	-0.140	0.460
2020/01/31 00:57:30.1	105.060	-0.450	-0.210	0.410
2020/01/31 00:57:30.2	105.060	-0.440	-0.290	0.360
2020/01/31 00:57:30.3	105.070	-0.420	-0.370	0.320
2020/01/31 00:57:30.4	105.070	-0.410	-0.440	0.280
2020/01/31 00:57:30.5	105.080	-0.390	-0.520	0.240
2020/01/31 00:57:30.6	105.090	-0.380	-0.590	0.210
2020/01/31 00:57:30.7	105.100	-0.360	-0.660	0.170
2020/01/31 00:57:30.8	105.120	-0.340	-0.720	0.140
2020/01/31 00:57:30.9	105.130	-0.320	-0.780	0.120
2020/01/31 00:57:31.0	105.150	-0.300	-0.840	0.090
2020/01/31 00:57:31.1	105.170	-0.270	-0.880	0.070
2020/01/31 00:57:31.2	105.190	-0.250	-0.930	0.050
2020/01/31 00:57:31.3	105.200	-0.230	-0.970	0.040
2020/01/31 00:57:31.4	105.230	-0.210	-1.000	0.030
2020/01/31 00:57:31.5	105.250	-0.190	-1.020	0.020
2020/01/31 00:57:31.6	105.270	-0.170	-1.040	0.010
2020/01/31 00:57:31.7	105.290	-0.150	-1.060	0.010
2020/01/31 00:57:31.8	105.310	-0.130	-1.060	0.010
2020/01/31 00:57:31.9	105.330	-0.110	-1.060	0.010
2020/01/31 00:57:32.0	105.360	-0.090	-1.050	0.020
2020/01/31 00:57:32.1	105.380	-0.070	-1.040	0.030
2020/01/31 00:57:32.2	105.400	-0.050	-1.020	0.040
2020/01/31 00:57:32.3	105.420	-0.040	-0.990	0.050
2020/01/31 00:57:32.4	105.440	-0.020	-0.960	0.060
2020/01/31 00:57:32.5	105.460	-0.010	-0.920	0.070
2020/01/31 00:57:32.6	105.470	0.000	-0.880	0.090
2020/01/31 00:57:32.7	105.490	0.010	-0.830	0.100
2020/01/31 00:57:32.8	105.500	0.020	-0.780	0.120
2020/01/31 00:57:32.9	105.520	0.030	-0.720	0.140
2020/01/31 00:57:33.0	105.530	0.040	-0.650	0.160
2020/01/31 00:57:33.1	105.540	0.050	-0.590	0.190
2020/01/31 00:57:33.2	105.550	0.050	-0.520	0.210
2020/01/31 00:57:33.3	105.550	0.060	-0.460	0.230
2020/01/31 00:57:33.4	105.560	0.060	-0.390	0.260
2020/01/31 00:57:33.5	105.570	0.070	-0.320	0.290
2020/01/31 00:57:33.6	105.570	0.070	-0.250	0.320
2020/01/31 00:57:33.7	105.570	0.080	-0.180	0.350
2020/01/31 00:57:33.8	105.570	0.080	-0.120	0.390
2020/01/31 00:57:33.9	105.560	0.080	-0.050	0.430
2020/01/31 00:57:34.0	105.550	0.090	0.010	0.470
2020/01/31 00:57:34.1	105.540	0.090	0.070	0.510
2020/01/31 00:57:34.2	105.530	0.090	0.130	0.550
2020/01/31 00:57:34.3	105.520	0.100	0.180	0.600
2020/01/31 00:57:34.4	105.510	0.100	0.230	0.640
2020/01/31 00:57:34.5	105.490	0.110	0.270	0.690
2020/01/31 00:57:34.6	105.480	0.110	0.320	0.740
2020/01/31 00:57:34.7	105.460	0.120	0.350	0.790
2020/01/31 00:57:34.8	105.440	0.130	0.390	0.840
2020/01/31 00:57:34.9	105.420	0.130	0.410	0.890
2020/01/31 00:57:35.0	105.400	0.140	0.440	0.940
2020/01/31 00:57:35.1	105.380	0.150	0.460	0.990
2020/01/31 00:57:35.2	105.350	0.150	0.470	1.050
2020/01/31 00:57:35.3	105.330	0.160	0.480	1.100
2020/01/31 00:57:35.4	105.310	0.170	0.490	1.150
2020/01/31 00:57:35.5	105.280	0.180	0.490	1.200
2020/01/31 00:57:35.6	105.260	0.190	0.490	1.250
2020/01/31 00:57:35.7	105.240	0.200	0.480	1.300
2020/01/31 00:57:35.8	105.210	0.200	0.480	1.340
2020/01/31 00:57:35.9	105.190	0.210	0.460	1.390
2020/01/31 00:57:36.0	105.170	0.220	0.440	1.440
2020/01/31 00:57:36.1	105.150	0.230	0.420	1.480
2020/01/31 00:57:36.2	105.130	0.240	0.400	1.530
2020/01/31 00:57:36.3	105.120	0.240	0.370	1.570
2020/01/31 00:57:36.4	105.100	0.250	0.340	1.610
2020/01/31 00:57:36.5	105.090	0.260	0.310	1.650
2020/01/31 00:57:36.6	105.070	0.260	0.270	1.690
2020/01/31 00:57:36.7	105.060	0.270	0.230	1.720
2020/01/31 00:57:36.8	105.050	0.270	0.200	1.760
2020/01/31 00:57:36.9	105.040	0.270	0.160	1.790
2020/01/31 00:57:37.0	105.030	0.270	0.110	1.820
2020/01/31 00:57:37.1	105.030	0.280	0.070	1.850
2020/01/31 00:57:37.2	105.020	0.280	0.030	1.870
2020/01/31 00:57:37.3	105.020	0.270	-0.010	1.900
2020/01/31 00:57:37.4	105.020	0.270	-0.050	1.920
2020/01/31 00:57:37.5	105.020	0.270	-0.090	1.950
2020/01/31 00:57:37.6	105.020	0.260	-0.130	1.970
2020/01/31 00:57:37.7	105.020	0.260	-0.170	1.980
2020/01/31 00:57:37.8	105.030	0.250	-0.210	2.000
2020/01/31 00:57:37.9	105.030	0.240	-0.240	2.010
2020/01/31 00:57:38.0	105.030	0.230	-0.270	2.030
2020/01/31 00:57:38.1	105.030	0.220	-0.300	2.040
2020/01/31 00:57:38.2	105.040	0.210	-0.330	2.050
2020/01/31 00:57:38.3	105.050	0.190	-0.360	2.050
2020/01/31 00:57:38.4	105.060	0.180	-0.380	2.060
2020/01/31 00:57:38.5	105.070	0.160	-0.400	2.060
2020/01/31 00:57:38.6	105.080	0.140	-0.420	2.060
2020/01/31 00:57:38.7	105.090	0.130	-0.430	2.060
2020/01/31 00:57:38.8	105.100	0.110	-0.440	2.060
2020/01/31 00:57:38.9	105.120	0.090	-0.450	2.060
2020/01/31 00:57:39.0	105.120	0.070	-0.460	2.050
2020/01/31 00:57:39.1	105.130	0.050	-0.470	2.050
2020/01/31 00:57:39.2	105.140	0.020	-0.470	2.040
2020/01/31 00:57:39.3	105.160	0.000	-0.470	2.040
2020/01/31 00:57:39.4	105.170	-0.020	-0.470	2.030
2020/01/31 00:57:39.5	105.190	-0.040	-0.470	2.030
2020/01/31 00:57:39.6	105.200	-0.060	-0.460	2.020
2020/01/31 00:57:39.7	105.220	-0.080	-0.460	2.010
2020/01/31 00:57:39.8	105.230	-0.100	-0.450	2.010
2020/01/31 00:57:39.9	105.250	-0.120	-0.440	2.000
2020/01/31 00:57:40.0	105.260	-0.140	-0.430	2.000
2020/01/31 00:57:40.1	105.270	-0.160	-0.420	1.990
2020/01/31 00:57:40.2	105.280	-0.180	-0.410	1.980
2020/01/31 00:57:40.3	105.300	-0.190	-0.400	1.980
2020/01/31 00:57:40.4	105.310	-0.210	-0.400	1.970
2020/01/31 00:57:40.5	105.320	-0.220	-0.390	1.960
2020/01/31 00:57:40.6	105.340	-0.240	-0.380	1.960
2020/01/31 00:57:40.7	105.350	-0.250	-0.370	1.950
2020/01/31 00:57:40.8	105.360	-0.260	-0.370	1.950
2020/01/31 00:57:40.9	105.370	-0.270	-0.360	1.940
2020/01/31 00:57:41.0	105.400	-0.270	-0.360	1.930
2020/01/31 00:57:41.1	105.410	-0.280	-0.350	1.930
2020/01/31 00:57:41.2	105.420	-0.290	-0.350	1.920
2020/01/31 00:57:41.3	105.430	-0.290	-0.340	1.920
2020/01/31 00:57:41.4	105.440	-0.290	-0.340	1.910
2020/01/31 00:57:41.5	105.450	-0.290	-0.330	1.910
2020/01/31 00:57:41.6	105.460	-0.300	-0.330	1.900
2020/01/31 00:57:41.7	105.470	-0.290	-0.330	1.900
2020/01/31 00:57:41.8	105.470	-0.290	-0.320	1.900
2020/01/31 00:57:41.9	105.480	-0.290	-0.310	1.900
2020/01/31 00:57:42.0	105.480	-0.290	-0.310	1.900
2020/01/31 00:57:42.1	105.480	-0.280	-0.300	1.900
2020/01/31 00:57:42.2	105.480	-0.280	-0.290	1.900
2020/01/31 00:57:42.3	105.480	-0.280	-0.280	1.910
2020/01/31 00:57:42.4	105.480	-0.270	-0.270	1.920
2020/01/31 00:57:42.5	105.480	-0.260	-0.260	1.920
2020/01/31 00:57:42.6	105.480	-0.260	-0.250	1.930
2020/01/31 00:57:42.7	105.470	-0.250	-0.240	1.940
2020/01/31 00:57:42.8	105.470	-0.250	-0.220	1.950
2020/01/31 00:57:42.9	105.460	-0.240	-0.200	1.960
2020/01/31 00:57:43.0	105.440	-0.230	-0.180	1.970
2020/01/31 00:57:43.1	105.430	-0.220	-0.160	1.980
2020/01/31 00:57:43.2	105.420	-0.220	-0.140	1.990
2020/01/31 00:57:43.3	105.400	-0.210	-0.120	2.000
2020/01/31 00:57:43.4	105.380	-0.200	-0.090	2.010
2020/01/31 00:57:43.5	105.360	-0.190	-0.070	2.010
2020/01/31 00:57:43.6	105.340	-0.180	-0.040	2.020
2020/01/31 00:57:43.7	105.310	-0.180	-0.010	2.020
2020/01/31 00:57:43.8	105.290	-0.170	0.020	2.020
2020/01/31 00:57:43.9	105.260	-0.160	0.050	2.020
2020/01/31 00:57:44.0	105.230	-0.150	0.080	2.010
2020/01/31 00:57:44.1	105.200	-0.140	0.110	2.010
2020/01/31 00:57:44.2	105.160	-0.140	0.140	1.990
2020/01/31 00:57:44.3	105.130	-0.130	0.170	1.980
2020/01/31 00:57:44.4	105.090	-0.120	0.200	1.960
2020/01/31 00:57:44.5	105.060	-0.110	0.230	1.940
2020/01/31 00:57:44.6	105.020	-0.100	0.250	1.910
2020/01/31 00:57:44.7	104.980	-0.090	0.280	1.880
2020/01/31 00:57:44.8	104.950	-0.080	0.300	1.840
2020/01/31 00:57:44.9	104.910	-0.070	0.320	1.800
2020/01/31 00:57:45.0	104.870	-0.060	0.330	1.740
2020/01/31 00:57:45.1	104.840	-0.050	0.350	1.690
2020/01/31 00:57:45.2	104.810	-0.040	0.360	1.640
2020/01/31 00:57:45.3	104.780	-0.030	0.370	1.580
2020/01/31 00:57:45.4	104.750	-0.020	0.370	1.510
2020/01/31 00:57:45.5	104.720	-0.010	0.370	1.440
2020/01/31 00:57:45.6	104.700	-0.000	0.370	1.370
2020/01/31 00:57:45.7	104.680	0.010	0.360	1.290
2020/01/31 00:57:45.8	104.660	0.020	0.350	1.210
2020/01/31 00:57:45.9	104.640	0.030	0.330	1.130
2020/01/31 00:57:46.0	104.630	0.050	0.310	1.040
2020/01/31 00:57:46.1	104.620	0.060	0.290	0.950
2020/01/31 00:57:46.2	104.610	0.070	0.260	0.860
2020/01/31 00:57:46.3	104.610	0.090	0.230	0.770
2020/01/31 00:57:46.4	104.610	0.100	0.200	0.670
2020/01/31 00:57:46.5	104.610	0.110	0.160	0.570
2020/01/31 00:57:46.6	104.610	0.130	0.120	0.480
2020/01/31 00:57:46.7	104.620	0.140	0.070	0.380
2020/01/31 00:57:46.8	104.630	0.160	0.020	0.290
2020/01/31 00:57:46.9	104.650	0.170	-0.030	0.190
2020/01/31 00:57:47.0	104.690	0.190	-0.080	0.090
2020/01/31 00:57:47.1	104.700	0.200	-0.130	0.000
2020/01/31 00:57:47.2	104.730	0.220	-0.190	-0.090
2020/01/31 00:57:47.3	104.750	0.230	-0.240	-0.180
2020/01/31 00:57:47.4	104.770	0.250	-0.300	-0.260
2020/01/31 00:57:47.5	104.800	0.260	-0.350	-0.340
2020/01/31 00:57:47.6	104.820	0.270	-0.410	-0.410
2020/01/31 00:57:47.7	104.850	0.290	-0.460	-0.480
2020/01/31 00:57:47.8	104.880	0.300	-0.510	-0.540
2020/01/31 00:57:47.9	104.910	0.310	-0.560	-0.600
2020/01/31 00:57:48.0	104.950	0.320	-0.610	-0.650
2020/01/31 00:57:48.1	104.980	0.330	-0.650	-0.690
2020/01/31 00:57:48.2	105.010	0.340	-0.700	-0.730
2020/01/31 00:57:48.3	105.040	0.350	-0.740	-0.760
2020/01/31 00:57:48.4	105.070	0.350	-0.770	-0.790
2020/01/31 00:57:48.5	105.090	0.360	-0.800	-0.800
2020/01/31 00:57:48.6	105.120	0.360	-0.830	-0.810
2020/01/31 00:57:48.7	105.150	0.370	-0.860	-0.810
2020/01/31 00:57:48.8	105.170	0.370	-0.880	-0.810
2020/01/31 00:57:48.9	105.190	0.370	-0.900	-0.800
2020/01/31 00:57:49.0	105.220	0.370	-0.910	-0.770
2020/01/31 00:57:49.1	105.240	0.370	-0.920	-0.750
2020/01/31 00:57:49.2	105.250	0.370	-0.920	-0.720
2020/01/31 00:57:49.3	105.270	0.360	-0.920	-0.680
2020/01/31 00:57:49.4	105.280	0.350	-0.910	-0.630
2020/01/31 00:57:49.5	105.300	0.350	-0.900	-0.580
2020/01/31 00:57:49.6	105.310	0.340	-0.890	-0.520
2020/01/31 00:57:49.7	105.320	0.330	-0.870	-0.450
2020/01/31 00:57:49.8	105.320	0.310	-0.850	-0.380
2020/01/31 00:57:49.9	105.330	0.300	-0.820	-0.300
2020/01/31 00:57:50.0	105.330	0.280	-0.790	-0.220
2020/01/31 00:57:50.1	105.330	0.270	-0.750	-0.130
2020/01/31 00:57:50.2	105.330	0.250	-0.710	-0.040
2020/01/31 00:57:50.3	105.330	0.230	-0.670	0.060
2020/01/31 00:57:50.4	105.320	0.200	-0.620	0.160
2020/01/31 00:57:50.5	105.320	0.180	-0.570	0.270
2020/01/31 00:57:50.6	105.310	0.160	-0.520	0.380
2020/01/31 00:57:50.7	105.300	0.130	-0.460	0.490
2020/01/31 00:57:50.8	105.290	0.100	-0.400	0.610
2020/01/31 00:57:50.9	105.280	0.070	-0.330	0.730
2020/01/31 00:57:51.0	105.260	0.040	-0.270	0.860
2020/01/31 00:57:51.1	105.250	0.010	-0.200	0.980
2020/01/31 00:57:51.2	105.230	-0.030	-0.130	1.110
2020/01/31 00:57:51.3	105.210	-0.060	-0.050	1.240
2020/01/31 00:57:51.4	105.200	-0.090	0.020	1.370
2020/01/31 00:57:51.5	105.180	-0.130	0.100	1.510
2020/01/31 00:57:51.6	105.150	-0.170	0.170	1.640
2020/01/31 00:57:51.7	105.130	-0.200	0.250	1.770
2020/01/31 00:57:51.8	105.110	-0.240	0.320	1.900
2020/01/31 00:57:51.9	105.080	-0.270	0.390	2.030
2020/01/31 00:57:52.0	105.060	-0.310	0.470	2.150
2020/01/31 00:57:52.1	105.030	-0.340	0.540	2.280
2020/01/31 00:57:52.2	105.000	-0.370	0.610	2.400
2020/01/31 00:57:52.3	104.980	-0.400	0.670	2.520
2020/01/31 00:57:52.4	104.950	-0.430	0.730	2.630
2020/01/31 00:57:52.5	104.920	-0.460	0.780	2.740
2020/01/31 00:57:52.6	104.890	-0.480	0.830	2.850
2020/01/31 00:57:52.7	104.860	-0.500	0.870	2.950
2020/01/31 00:57:52.8	104.830	-0.520	0.900	3.040
2020/01/31 00:57:52.9	104.800	-0.540	0.930	3.130
2020/01/31 00:57:53.0	104.760	-0.550	0.950	3.210
2020/01/31 00:57:53.1	104.730	-0.560	0.960	3.290
2020/01/31 00:57:53.2	104.700	-0.570	0.960	3.360
2020/01/31 00:57:53.3	104.680	-0.570	0.960	3.420
2020/01/31 00:57:53.4	104.650	-0.570	0.940	3.470
2020/01/31 00:57:53.5	104.620	-0.570	0.920	3.520
2020/01/31 00:57:53.6	104.590	-0.560	0.890	3.560
2020/01/31 00:57:53.7	104.570	-0.550	0.850	3.590
2020/01/31 00:57:53.8	104.540	-0.530	0.800	3.620
2020/01/31 00:57:53.9	104.520	-0.510	0.750	3.640
2020/01/31 00:57:54.0	104.500	-0.490	0.680	3.640
2020/01/31 00:57:54.1	104.490	-0.460	0.620	3.650
2020/01/31 00:57:54.2	104.470	-0.430	0.540	3.640
2020/01/31 00:57:54.3	104.460	-0.400	0.460	3.630
2020/01/31 00:57:54.4	104.450	-0.370	0.370	3.610
2020/01/31 00:57:54.5	104.440	-0.330	0.280	3.580
2020/01/31 00:57:54.6	104.440	-0.290	0.180	3.550
2020/01/31 00:57:54.7	104.430	-0.250	0.080	3.510
2020/01/31 00:57:54.8	104.430	-0.200	-0.020	3.460
2020/01/31 00:57:54.9	104.440	-0.160	-0.120	3.410
2020/01/31 00:57:55.0	104.440	-0.110	-0.230	3.350
2020/01/31 00:57:55.1	104.450	-0.070	-0.330	3.280
2020/01/31 00:57:55.2	104.460	-0.020	-0.430	3.220
2020/01/31 00:57:55.3	104.470	0.020	-0.530	3.140
2020/01/31 00:57:55.4	104.490	0.070	-0.620	3.070
2020/01/31 00:57:55.5	104.510	0.110	-0.710	2.990
2020/01/31 00:57:55.6	104.520	0.150	-0.800	2.900
2020/01/31 00:57:55.7	104.550	0.200	-0.880	2.820
2020/01/31 00:57:55.8	104.570	0.230	-0.950	2.730
2020/01/31 00:57:55.9	104.590	0.270	-1.020	2.640
2020/01/31 00:57:56.0	104.620	0.300	-1.080	2.540
2020/01/31 00:57:56.1	104.640	0.330	-1.130	2.440
2020/01/31 00:57:56.2	104.670	0.360	-1.180	2.350
2020/01/31 00:57:56.3	104.690	0.390	-1.210	2.250
2020/01/31 00:57:56.4	104.720	0.410	-1.240	2.150
2020/01/31 00:57:56.5	104.740	0.430	-1.250	2.050
2020/01/31 00:57:56.6	104.770	0.440	-1.260	1.950
2020/01/31 00:57:56.7	104.790	0.450	-1.260	1.850
2020/01/31 00:57:56.8	104.820	0.460	-1.240	1.750
2020/01/31 00:57:56.9	104.840	0.460	-1.220	1.650
2020/01/31 00:57:57.0	104.860	0.460	-1.190	1.550
2020/01/31 00:57:57.1	104.880	0.450	-1.160	1.450
2020/01/31 00:57:57.2	104.900	0.440	-1.110	1.360
2020/01/31 00:57:57.3	104.920	0.430	-1.060	1.260
2020/01/31 00:57:57.4	104.930	0.420	-1.000	1.170
2020/01/31 00:57:57.5	104.940	0.400	-0.940	1.070
2020/01/31 00:57:57.6	104.950	0.380	-0.870	0.980
2020/01/31 00:57:57.7	104.960	0.360	-0.800	0.900
2020/01/31 00:57:57.8	104.970	0.330	-0.720	0.810
2020/01/31 00:57:57.9	104.980	0.310	-0.640	0.730
2020/01/31 00:57:58.0	104.980	0.280	-0.560	0.640
2020/01/31 00:57:58.1	104.980	0.250	-0.480	0.570
2020/01/31 00:57:58.2	104.980	0.220	-0.390	0.490
2020/01/31 00:57:58.3	104.980	0.180	-0.310	0.420
2020/01/31 00:57:58.4	104.970	0.150	-0.230	0.360
2020/01/31 00:57:58.5	104.970	0.120	-0.150	0.300
2020/01/31 00:57:58.6	104.960	0.090	-0.070	0.240
2020/01/31 00:57:58.7	104.940	0.050	0.010	0.190
2020/01/31 00:57:58.8	104.930	0.020	0.080	0.140
2020/01/31 00:57:58.9	104.910	-0.010	0.150	0.100
2020/01/31 00:57:59.0	104.900	-0.040	0.220	0.070
2020/01/31 00:57:59.1	104.880	-0.070	0.280	0.030
2020/01/31 00:57:59.2	104.860	-0.100	0.330	0.010
2020/01/31 00:57:59.3	104.840	-0.130	0.380	-0.010
2020/01/31 00:57:59.4	104.810	-0.150	0.430	-0.030
2020/01/31 00:57:59.5	104.780	-0.170	0.460	-0.040
2020/01/31 00:57:59.6	104.750	-0.190	0.490	-0.050
2020/01/31 00:57:59.7	104.720	-0.210	0.520	-0.050
2020/01/31 00:57:59.8	104.690	-0.220	0.540	-0.040
2020/01/31 00:57:59.9	104.660	-0.230	0.550	-0.030
2020/01/31 00:58:00.0	104.630	-0.240	0.550	-0.020
2020/01/31 00:58:00.1	104.590	-0.250	0.550	0.000
2020/01/31 00:58:00.2	104.560	-0.250	0.550	0.030
2020/01/31 00:58:00.3	104.520	-0.250	0.530	0.060
2020/01/31 00:58:00.4	104.480	-0.250	0.510	0.090
2020/01/31 00:58:00.5	104.440	-0.250	0.480	0.130
2020/01/31 00:58:00.6	104.400	-0.240	0.450	0.170
2020/01/31 00:58:00.7	104.370	-0.230	0.420	0.210
2020/01/31 00:58:00.8	104.330	-0.220	0.380	0.250
2020/01/31 00:58:00.9	104.290	-0.210	0.330	0.300
2020/01/31 00:58:01.0	104.260	-0.190	0.280	0.350
2020/01/31 00:58:01.1	104.230	-0.180	0.230	0.390
2020/01/31 00:58:01.2	104.200	-0.160	0.180	0.440
2020/01/31 00:58:01.3	104.170	-0.140	0.120	0.480
2020/01/31 00:58:01.4	104.140	-0.130	0.070	0.530
2020/01/31 00:58:01.5	104.120	-0.110	0.010	0.570
2020/01/31 00:58:01.6	104.100	-0.090	-0.040	0.610
2020/01/31 00:58:01.7	104.090	-0.070	-0.090	0.650
2020/01/31 00:58:01.8	104.070	-0.050	-0.150	0.680
2020/01/31 00:58:01.9	104.060	-0.030	-0.200	0.710
2020/01/31 00:58:02.0	104.060	-0.020	-0.240	0.740
2020/01/31 00:58:02.1	104.060	-0.000	-0.290	0.770
2020/01/31 00:58:02.2	104.060	0.010	-0.330	0.800
2020/01/31 00:58:02.3	104.060	0.030	-0.370	0.820
2020/01/31 00:58:02.4	104.070	0.040	-0.400	0.840
2020/01/31 00:58:02.5	104.080	0.050	-0.430	0.850
2020/01/31 00:58:02.6	104.090	0.060	-0.460	0.870
2020/01/31 00:58:02.7	104.100	0.070	-0.480	0.880
2020/01/31 00:58:02.8	104.120	0.070	-0.500	0.890
2020/01/31 00:58:02.9	104.130	0.080	-0.510	0.900
2020/01/31 00:58:03.0	104.140	0.080	-0.520	0.910
2020/01/31 00:58:03.1	104.160	0.080	-0.520	0.910
2020/01/31 00:58:03.2	104.180	0.080	-0.520	0.920
2020/01/31 00:58:03.3	104.210	0.080	-0.510	0.920
2020/01/31 00:58:03.4	104.230	0.080	-0.500	0.930
2020/01/31 00:58:03.5	104.260	0.070	-0.490	0.930
2020/01/31 00:58:03.6	104.280	0.070	-0.470	0.940
2020/01/31 00:58:03.7	104.310	0.060	-0.450	0.940
2020/01/31 00:58:03.8	104.330	0.050	-0.420	0.940
2020/01/31 00:58:03.9	104.350	0.050	-0.400	0.950
2020/01/31 00:58:04.0	104.360	0.040	-0.370	0.950
2020/01/31 00:58:04.1	104.390	0.030	-0.330	0.960
2020/01/31 00:58:04.2	104.410	0.020	-0.300	0.970
2020/01/31 00:58:04.3	104.430	0.010	-0.270	0.980
2020/01/31 00:58:04.4	104.450	-0.000	-0.240	0.990
2020/01/31 00:58:04.5	104.460	-0.010	-0.200	1.000
2020/01/31 00:58:04.6	104.480	-0.020	-0.170	1.020
2020/01/31 00:58:04.7	104.490	-0.030	-0.130	1.040
2020/01/31 00:58:04.8	104.510	-0.040	-0.100	1.060
2020/01/31 00:58:04.9	104.520	-0.050	-0.070	1.080
2020/01/31 00:58:05.0	104.520	-0.060	-0.030	1.100
2020/01/31 00:58:05.1	104.530	-0.070	-0.000	1.130
2020/01/31 00:58:05.2	104.530	-0.080	0.030	1.150
2020/01/31 00:58:05.3	104.540	-0.080	0.060	1.180
2020/01/31 00:58:05.4	104.540	-0.090	0.080	1.220
2020/01/31 00:58:05.5	104.530	-0.100	0.100	1.250
2020/01/31 00:58:05.6	104.530	-0.100	0.120	1.280
2020/01/31 00:58:05.7	104.520	-0.110	0.140	1.320
2020/01/31 00:58:05.8	104.510	-0.110	0.160	1.360
2020/01/31 00:58:05.9	104.500	-0.110	0.170	1.410
2020/01/31 00:58:06.0	104.490	-0.120	0.180	1.450
2020/01/31 00:58:06.1	104.470	-0.120	0.180	1.490
2020/01/31 00:58:06.2	104.450	-0.120	0.180	1.540
2020/01/31 00:58:06.3	104.440	-0.120	0.180	1.590
2020/01/31 00:58:06.4	104.410	-0.110	0.170	1.640
2020/01/31 00:58:06.5	104.390	-0.110	0.170	1.690
2020/01/31 00:58:06.6	104.370	-0.110	0.150	1.740
2020/01/31 00:58:06.7	104.350	-0.100	0.140	1.790
2020/01/31 00:58:06.8	104.320	-0.090	0.120	1.830
2020/01/31 00:58:06.9	104.300	-0.090	0.090	1.880
2020/01/31 00:58:07.0	104.270	-0.080	0.070	1.930
2020/01/31 00:58:07.1	104.240	-0.070	0.040	1.970
2020/01/31 00:58:07.2	104.220	-0.060	0.010	2.010
2020/01/31 00:58:07.3	104.190	-0.050	-0.020	2.050
2020/01/31 00:58:07.4	104.170	-0.040	-0.060	2.090
2020/01/31 00:58:07.5	104.150	-0.030	-0.100	2.120
2020/01/31 00:58:07.6	104.120	-0.020	-0.140	2.160
2020/01/31 00:58:07.7	104.100	-0.010	-0.180	2.190
2020/01/31 00:58:07.8	104.080	0.000	-0.220	2.210
2020/01/31 00:58:07.9	104.060	0.020	-0.260	2.240
2020/01/31 00:58:08.0	104.050	0.030	-0.300	2.260
2020/01/31 00:58:08.1	104.040	0.040	-0.340	2.270
2020/01/31 00:58:08.2	104.020	0.050	-0.380	2.290
2020/01/31 00:58:08.3	104.010	0.060	-0.420	2.310
2020/01/31 00:58:08.4	103.990	0.060	-0.450	2.320
2020/01/31 00:58:08.5	103.980	0.070	-0.480	2.330
2020/01/31 00:58:08.6	103.980	0.080	-0.520	2.340
2020/01/31 00:58:08.7	103.970	0.080	-0.540	2.340
2020/01/31 00:58:08.8	103.960	0.080	-0.570	2.340
2020/01/31 00:58:08.9	103.960	0.090	-0.590	2.350
2020/01/31 00:58:09.0	103.940	0.090	-0.610	2.340
2020/01/31 00:58:09.1	103.940	0.080	-0.620	2.340
2020/01/31 00:58:09.2	103.940	0.080	-0.630	2.340
2020/01/31 00:58:09.3	103.940	0.080	-0.640	2.330
2020/01/31 00:58:09.4	103.940	0.070	-0.640	2.320
2020/01/31 00:58:09.5	103.940	0.060	-0.630	2.310
2020/01/31 00:58:09.6	103.950	0.050	-0.630	2.300
2020/01/31 00:58:09.7	103.950	0.040	-0.620	2.280
2020/01/31 00:58:09.8	103.960	0.030	-0.600	2.270
2020/01/31 00:58:09.9	103.960	0.020	-0.580	2.250
2020/01/31 00:58:10.0	103.970	0.000	-0.560	2.240
2020/01/31 00:58:10.1	103.970	-0.010	-0.530	2.220
2020/01/31 00:58:10.2	103.980	-0.030	-0.500	2.200
2020/01/31 00:58:10.3	103.980	-0.050	-0.470	2.180
2020/01/31 00:58:10.4	103.990	-0.060	-0.440	2.150
2020/01/31 00:58:10.5	103.990	-0.080	-0.400	2.130
2020/01/31 00:58:10.6	104.000	-0.100	-0.360	2.110
2020/01/31 00:58:10.7	104.000	-0.120	-0.310	2.080
2020/01/31 00:58:10.8	104.000	-0.140	-0.270	2.060
2020/01/31 00:58:10.9	104.010	-0.160	-0.220	2.030
2020/01/31 00:58:11.0	104.010	-0.170	-0.170	1.990
2020/01/31 00:58:11.1	104.010	-0.190	-0.120	1.960
2020/01/31 00:58:11.2	104.020	-0.210	-0.070	1.930
2020/01/31 00:58:11.3	104.020	-0.220	-0.030	1.890
2020/01/31 00:58:11.4	104.030	-0.240	0.020	1.850
2020/01/31 00:58:11.5	104.030	-0.250	0.070	1.810
2020/01/31 00:58:11.6	104.040	-0.260	0.110	1.760
2020/01/31 00:58:11.7	104.040	-0.270	0.160	1.720
2020/01/31 00:58:11.8	104.050	-0.280	0.200	1.670
2020/01/31 00:58:11.9	104.060	-0.280	0.240	1.610
2020/01/31 00:58:12.0	104.060	-0.280	0.270	1.560
2020/01/31 00:58:12.1	104.070	-0.290	0.300	1.500
2020/01/31 00:58:12.2	104.070	-0.290	0.330	1.440
2020/01/31 00:58:12.3	104.080	-0.280	0.360	1.380
2020/01/31 00:58:12.4	104.090	-0.280	0.380	1.310
2020/01/31 00:58:12.5	104.090	-0.270	0.390	1.250
2020/01/31 00:58:12.6	104.100	-0.260	0.410	1.180
2020/01/31 00:58:12.7	104.100	-0.250	0.420	1.120
2020/01/31 00:58:12.8	104.100	-0.230	0.420	1.050
2020/01/31 00:58:12.9	104.100	-0.220	0.420	0.990
2020/01/31 00:58:13.0	104.100	-0.200	0.420	0.920
2020/01/31 00:58:13.1	104.100	-0.180	0.410	0.860
2020/01/31 00:58:13.2	104.100	-0.160	0.390	0.800
2020/01/31 00:58:13.3	104.090	-0.130	0.370	0.740
2020/01/31 00:58:13.4	104.090	-0.110	0.350	0.680
2020/01/31 00:58:13.5	104.080	-0.080	0.330	0.620
2020/01/31 00:58:13.6	104.070	-0.050	0.300	0.570
2020/01/31 00:58:13.7	104.060	-0.020	0.270	0.520
2020/01/31 00:58:13.8	104.040	0.010	0.230	0.470
2020/01/31 00:58:13.9	104.030	0.040	0.190	0.430
2020/01/31 00:58:14.0	104.020	0.080	0.150	0.390
2020/01/31 00:58:14.1	104.010	0.110	0.110	0.340
2020/01/31 00:58:14.2	103.990	0.140	0.070	0.310
2020/01/31 00:58:14.3	103.980	0.170	0.030	0.270
2020/01/31 00:58:14.4	103.960	0.210	-0.010	0.230
2020/01/31 00:58:14.5	103.940	0.240	-0.060	0.200
2020/01/31 00:58:14.6	103.920	0.270	-0.100	0.170
2020/01/31 00:58:14.7	103.900	0.300	-0.140	0.140
2020/01/31 00:58:14.8	103.880	0.330	-0.190	0.120
2020/01/31 00:58:14.9	103.870	0.360	-0.230	0.090
2020/01/31 00:58:15.0	103.860	0.390	-0.270	0.060
2020/01/31 00:58:15.1	103.840	0.410	-0.310	0.040
2020/01/31 00:58:15.2	103.820	0.430	-0.340	0.020
2020/01/31 00:58:15.3	103.800	0.460	-0.380	0.010
2020/01/31 00:58:15.4	103.780	0.470	-0.410	-0.010
2020/01/31 00:58:15.5	103.760	0.490	-0.450	-0.020
2020/01/31 00:58:15.6	103.750	0.510	-0.480	-0.040
2020/01/31 00:58:15.7	103.730	0.520	-0.500	-0.050
2020/01/31 00:58:15.8	103.720	0.530	-0.530	-0.060
2020/01/31 00:58:15.9	103.700	0.540	-0.550	-0.060
2020/01/31 00:58:16.0	103.700	0.540	-0.570	-0.070
2020/01/31 00:58:16.1	103.680	0.540	-0.580	-0.070
2020/01/31 00:58:16.2	103.670	0.540	-0.600	-0.070
2020/01/31 00:58:16.3	103.670	0.540	-0.610	-0.070
2020/01/31 00:58:16.4	103.660	0.540	-0.620	-0.070
2020/01/31 00:58:16.5	103.650	0.530	-0.620	-0.070
2020/01/31 00:58:16.6	103.650	0.520	-0.630	-0.060
2020/01/31 00:58:16.7	103.650	0.500	-0.630	-0.060
2020/01/31 00:58:16.8	103.650	0.490	-0.630	-0.050
2020/01/31 00:58:16.9	103.650	0.470	-0.630	-0.040
2020/01/31 00:58:17.0	103.660	0.450	-0.620	-0.020
2020/01/31 00:58:17.1	103.660	0.430	-0.610	-0.010
2020/01/31 00:58:17.2	103.670	0.410	-0.600	0.010
2020/01/31 00:58:17.3	103.680	0.380	-0.590	0.030
2020/01/31 00:58:17.4	103.690	0.350	-0.580	0.060
2020/01/31 00:58:17.5	103.700	0.320	-0.570	0.080
2020/01/31 00:58:17.6	103.720	0.290	-0.550	0.110
2020/01/31 00:58:17.7	103.730	0.260	-0.530	0.140
2020/01/31 00:58:17.8	103.750	0.230	-0.510	0.180
2020/01/31 00:58:17.9	103.760	0.200	-0.490	0.220
2020/01/31 00:58:18.0	103.790	0.160	-0.470	0.260
2020/01/31 00:58:18.1	103.810	0.130	-0.450	0.300
2020/01/31 00:58:18.2	103.820	0.090	-0.420	0.350
2020/01/31 00:58:18.3	103.840	0.060	-0.400	0.400
2020/01/31 00:58:18.4	103.850	0.020	-0.370	0.450
2020/01/31 00:58:18.5	103.870	-0.020	-0.340	0.510
2020/01/31 00:58:18.6	103.880	-0.050	-0.320	0.570
2020/01/31 00:58:18.7	103.890	-0.090	-0.280	0.630
2020/01/31 00:58:18.8	103.910	-0.130	-0.250	0.690
2020/01/31 00:58:18.9	103.920	-0.160	-0.220	0.760
2020/01/31 00:58:19.0	103.920	-0.200	-0.190	0.830
2020/01/31 00:58:19.1	103.930	-0.230	-0.150	0.900
2020/01/31 00:58:19.2	103.940	-0.270	-0.110	0.970
2020/01/31 00:58:19.3	103.950	-0.300	-0.080	1.040
2020/01/31 00:58:19.4	103.960	-0.340	-0.040	1.110
2020/01/31 00:58:19.5	103.970	-0.370	-0.000	1.190
2020/01/31 00:58:19.6	103.980	-0.400	0.030	1.260
2020/01/31 00:58:19.7	103.990	-0.440	0.070	1.340
2020/01/31 00:58:19.8	103.990	-0.470	0.100	1.410
2020/01/31 00:58:19.9	104.000	-0.500	0.140	1.490
2020/01/31 00:58:20.0	104.020	-0.530	0.170	1.560
2020/01/31 00:58:20.1	104.030	-0.550	0.210	1.640
2020/01/31 00:58:20.2	104.030	-0.580	0.240	1.710
2020/01/31 00:58:20.3	104.030	-0.600	0.260	1.790
2020/01/31 00:58:20.4	104.030	-0.620	0.290	1.860
2020/01/31 00:58:20.5	104.030	-0.650	0.310	1.940
2020/01/31 00:58:20.6	104.030	-0.660	0.330	2.010
2020/01/31 00:58:20.7	104.030	-0.680	0.350	2.090
2020/01/31 00:58:20.8	104.020	-0.700	0.360	2.160
2020/01/31 00:58:20.9	104.020	-0.710	0.370	2.240
2020/01/31 00:58:21.0	104.010	-0.720	0.380	2.310
2020/01/31 00:58:21.1	104.000	-0.720	0.380	2.380
2020/01/31 00:58:21.2	103.990	-0.730	0.380	2.450
2020/01/31 00:58:21.3	103.980	-0.730	0.380	2.520
2020/01/31 00:58:21.4	103.970	-0.730	0.370	2.580
2020/01/31 00:58:21.5	103.960	-0.730	0.360	2.650
2020/01/31 00:58:21.6	103.950	-0.720	0.350	2.710
2020/01/31 00:58:21.7	103.940	-0.710	0.330	2.770
2020/01/31 00:58:21.8	103.930	-0.700	0.310	2.830
2020/01/31 00:58:21.9	103.910	-0.690	0.290	2.880
2020/01/31 00:58:22.0	103.890	-0.670	0.270	2.930
2020/01/31 00:58:22.1	103.880	-0.650	0.240	2.970
2020/01/31 00:58:22.2	103.870	-0.630	0.220	3.010
2020/01/31 00:58:22.3	103.850	-0.610	0.190	3.050
2020/01/31 00:58:22.4	103.840	-0.580	0.160	3.090
2020/01/31 00:58:22.5	103.830	-0.550	0.130	3.110
2020/01/31 00:58:22.6	103.820	-0.520	0.100	3.140
2020/01/31 00:58:22.7	103.800	-0.480	0.070	3.160
2020/01/31 00:58:22.8	103.790	-0.450	0.030	3.170
2020/01/31 00:58:22.9	103.780	-0.410	0.000	3.180
2020/01/31 00:58:23.0	103.770	-0.370	-0.030	3.180
2020/01/31 00:58:23.1	103.760	-0.330	-0.060	3.180
2020/01/31 00:58:23.2	103.750	-0.290	-0.100	3.170
2020/01/31 00:58:23.3	103.740	-0.240	-0.130	3.160
2020/01/31 00:58:23.4	103.730	-0.200	-0.160	3.140
2020/01/31 00:58:23.5	103.720	-0.150	-0.190	3.120
2020/01/31 00:58:23.6	103.720	-0.110	-0.220	3.090
2020/01/31 00:58:23.7	103.710	-0.060	-0.240	3.050
2020/01/31 00:58:23.8	103.700	-0.020	-0.270	3.010
2020/01/31 00:58:23.9	103.700	0.030	-0.290	2.970
2020/01/31 00:58:24.0	103.680	0.070	-0.320	2.920
2020/01/31 00:58:24.1	103.670	0.120	-0.340	2.860
2020/01/31 00:58:24.2	103.670	0.160	-0.350	2.800
2020/01/31 00:58:24.3	103.670	0.200	-0.370	2.730
2020/01/31 00:58:24.4	103.670	0.240	-0.380	2.660
2020/01/31 00:58:24.5	103.680	0.280	-0.400	2.590
2020/01/31 00:58:24.6	103.680	0.320	-0.410	2.510
2020/01/31 00:58:24.7	103.680	0.360	-0.420	2.430
2020/01/31 00:58:24.8	103.690	0.390	-0.420	2.340
2020/01/31 00:58:24.9	103.690	0.420	-0.430	2.250
2020/01/31 00:58:25.0	103.680	0.450	-0.440	2.150
2020/01/31 00:58:25.1	103.690	0.480	-0.440	2.060
2020/01/31 00:58:25.2	103.690	0.510	-0.440	1.960
2020/01/31 00:58:25.3	103.700	0.530	-0.440	1.860
2020/01/31 00:58:25.4	103.700	0.550	-0.440	1.760
2020/01/31 00:58:25.5	103.710	0.570	-0.450	1.660
2020/01/31 00:58:25.6	103.710	0.590	-0.450	1.560
2020/01/31 00:58:25.7	103.720	0.600	-0.450	1.460
2020/01/31 00:58:25.8	103.720	0.620	-0.450	1.360
2020/01/31 00:58:25.9	103.720	0.630	-0.450	1.260
2020/01/31 00:58:26.0	103.710	0.640	-0.450	1.150
2020/01/31 00:58:26.1	103.710	0.640	-0.450	1.050
2020/01/31 00:58:26.2	103.710	0.650	-0.460	0.950
2020/01/31 00:58:26.3	103.700	0.650	-0.460	0.850
2020/01/31 00:58:26.4	103.700	0.650	-0.460	0.760
2020/01/31 00:58:26.5	103.700	0.650	-0.460	0.660
2020/01/31 00:58:26.6	103.690	0.640	-0.470	0.570
2020/01/31 00:58:26.7	103.690	0.640	-0.470	0.480
2020/01/31 00:58:26.8	103.680	0.630	-0.470	0.390
2020/01/31 00:58:26.9	103.670	0.630	-0.480	0.310
2020/01/31 00:58:27.0	103.670	0.620	-0.480	0.230
2020/01/31 00:58:27.1	103.660	0.610	-0.480	0.150
2020/01/31 00:58:27.2	103.640	0.600	-0.490	0.080
2020/01/31 00:58:27.3	103.630	0.590	-0.490	0.010
2020/01/31 00:58:27.4	103.620	0.570	-0.490	-0.050
2020/01/31 00:58:27.5	103.600	0.560	-0.490	-0.110
2020/01/31 00:58:27.6	103.580	0.550	-0.490	-0.170
2020/01/31 00:58:27.7	103.570	0.530	-0.490	-0.220
2020/01/31 00:58:27.8	103.550	0.520	-0.490	-0.260
2020/01/31 00:58:27.9	103.540	0.500	-0.480	-0.310
2020/01/31 00:58:28.0	103.540	0.480	-0.480	-0.340
2020/01/31 00:58:28.1	103.530	0.460	-0.470	-0.380
2020/01/31 00:58:28.2	103.510	0.450	-0.460	-0.410
2020/01/31 00:58:28.3	103.500	0.430	-0.440	-0.440
2020/01/31 00:58:28.4	103.490	0.410	-0.430	-0.460
2020/01/31 00:58:28.5	103.490	0.380	-0.410	-0.480
2020/01/31 00:58:28.6	103.480	0.360	-0.380	-0.500
2020/01/31 00:58:28.7	103.480	0.340	-0.360	-0.510
2020/01/31 00:58:28.8	103.480	0.310	-0.330	-0.520
2020/01/31 00:58:28.9	103.480	0.280	-0.300	-0.520
2020/01/31 00:58:29.0	103.490	0.260	-0.260	-0.530
2020/01/31 00:58:29.1	103.500	0.230	-0.220	-0.520
2020/01/31 00:58:29.2	103.500	0.200	-0.180	-0.520
2020/01/31 00:58:29.3	103.510	0.160	-0.130	-0.500
2020/01/31 00:58:29.4	103.530	0.130	-0.080	-0.490
2020/01/31 00:58:29.5	103.540	0.100	-0.040	-0.470
2020/01/31 00:58:29.6	103.560	0.060	0.010	-0.440
2020/01/31 00:58:29.7	103.570	0.020	0.070	-0.410
2020/01/31 00:58:29.8	103.590	-0.010	0.120	-0.380
2020/01/31 00:58:29.9	103.610	-0.050	0.170	-0.340
2020/01/31 00:58:30.0	103.640	-0.090	0.220	-0.290
2020/01/31 00:58:30.1	103.660	-0.130	0.270	-0.240
2020/01/31 00:58:30.2	103.680	-0.170	0.320	-0.190
2020/01/31 00:58:30.3	103.700	-0.210	0.370	-0.140
2020/01/31 00:58:30.4	103.720	-0.250	0.420	-0.080
2020/01/31 00:58:30.5	103.750	-0.280	0.460	-0.020
2020/01/31 00:58:30.6	103.770	-0.320	0.500	0.050
2020/01/31 00:58:30.7	103.790	-0.360	0.530	0.110
2020/01/31 00:58:30.8	103.810	-0.390	0.560	0.180
2020/01/31 00:58:30.9	103.830	-0.430	0.590	0.250
2020/01/31 00:58:31.0	103.860	-0.460	0.610	0.320
2020/01/31 00:58:31.1	103.880	-0.490	0.620	0.390
2020/01/31 00:58:31.2	103.890	-0.520	0.630	0.470
2020/01/31 00:58:31.3	103.910	-0.540	0.640	0.540
2020/01/31 00:58:31.4	103.920	-0.560	0.630	0.620
2020/01/31 00:58:31.5	103.930	-0.580	0.630	0.690
2020/01/31 00:58:31.6	103.940	-0.600	0.610	0.770
2020/01/31 00:58:31.7	103.950	-0.610	0.590	0.850
2020/01/31 00:58:31.8	103.950	-0.620	0.570	0.920
2020/01/31 00:58:31.9	103.960	-0.630	0.540	1.000
2020/01/31 00:58:32.0	103.970	-0.630	0.500	1.070
2020/01/31 00:58:32.1	103.970	-0.630	0.460	1.150
2020/01/31 00:58:32.2	103.960	-0.630	0.420	1.220
2020/01/31 00:58:32.3	103.960	-0.620	0.370	1.290
2020/01/31 00:58:32.4	103.960	-0.610	0.320	1.360
2020/01/31 00:58:32.5	103.950	-0.600	0.260	1.430
2020/01/31 00:58:32.6	103.940	-0.590	0.210	1.500
2020/01/31 00:58:32.7	103.930	-0.570	0.150	1.560
2020/01/31 00:58:32.8	103.920	-0.550	0.090	1.630
2020/01/31 00:58:32.9	103.910	-0.520	0.030	1.690
2020/01/31 00:58:33.0	103.880	-0.500	-0.040	1.750
2020/01/31 00:58:33.1	103.870	-0.470	-0.100	1.810
2020/01/31 00:58:33.2	103.860	-0.440	-0.160	1.870
2020/01/31 00:58:33.3	103.840	-0.410	-0.220	1.930
2020/01/31 00:58:33.4	103.830	-0.380	-0.280	1.990
2020/01/31 00:58:33.5	103.810	-0.350	-0.340	2.050
2020/01/31 00:58:33.6	103.800	-0.320	-0.400	2.100
2020/01/31 00:58:33.7	103.780	-0.280	-0.450	2.160
2020/01/31 00:58:33.8	103.770	-0.250	-0.500	2.210
2020/01/31 00:58:33.9	103.750	-0.210	-0.550	2.270
2020/01/31 00:58:34.0	103.730	-0.180	-0.590	2.320
2020/01/31 00:58:34.1	103.720	-0.140	-0.630	2.370
2020/01/31 00:58:34.2	103.700	-0.110	-0.670	2.420
2020/01/31 00:58:34.3	103.690	-0.070	-0.700	2.470
2020/01/31 00:58:34.4	103.680	-0.040	-0.730	2.520
2020/01/31 00:58:34.5	103.670	-0.010	-0.750	2.560
2020/01/31 00:58:34.6	103.660	0.020	-0.770	2.610
2020/01/31 00:58:34.7	103.650	0.050	-0.790	2.650
2020/01/31 00:58:34.8	103.640	0.080	-0.800	2.690
2020/01/31 00:58:34.9	103.630	0.110	-0.810	2.720
2020/01/31 00:58:35.0	103.610	0.140	-0.820	2.760
2020/01/31 00:58:35.1	103.610	0.160	-0.820	2.790
2020/01/31 00:58:35.2	103.600	0.180	-0.810	2.820
2020/01/31 00:58:35.3	103.600	0.200	-0.810	2.840
2020/01/31 00:58:35.4	103.600	0.220	-0.790	2.870
2020/01/31 00:58:35.5	103.600	0.240	-0.780	2.890
2020/01/31 00:58:35.6	103.600	0.250	-0.760	2.900
2020/01/31 00:58:35.7	103.600	0.260	-0.740	2.920
2020/01/31 00:58:35.8	103.600	0.270	-0.720	2.930
2020/01/31 00:58:35.9	103.600	0.280	-0.690	2.940
2020/01/31 00:58:36.0	103.600	0.290	-0.670	2.940
2020/01/31 00:58:36.1	103.600	0.290	-0.640	2.940
2020/01/31 00:58:36.2	103.600	0.290	-0.600	2.930
2020/01/31 00:58:36.3	103.600	0.290	-0.570	2.930
2020/01/31 00:58:36.4	103.600	0.290	-0.530	2.910
2020/01/31 00:58:36.5	103.600	0.290	-0.490	2.900
2020/01/31 00:58:36.6	103.600	0.280	-0.460	2.880
2020/01/31 00:58:36.7	103.600	0.270	-0.410	2.850
2020/01/31 00:58:36.8	103.600	0.260	-0.370	2.820
2020/01/31 00:58:36.9	103.600	0.250	-0.330	2.780
2020/01/31 00:58:37.0	103.590	0.240	-0.290	2.740
2020/01/31 00:58:37.1	103.590	0.230	-0.240	2.690
2020/01/31 00:58:37.2	103.590	0.210	-0.200	2.630
2020/01/31 00:58:37.3	103.600	0.200	-0.160	2.580
2020/01/31 00:58:37.4	103.600	0.180	-0.110	2.510
2020/01/31 00:58:37.5	103.610	0.170	-0.070	2.440
2020/01/31 00:58:37.6	103.610	0.150	-0.030	2.360
2020/01/31 00:58:37.7	103.620	0.130	0.010	2.280
2020/01/31 00:58:37.8	103.630	0.110	0.060	2.200
2020/01/31 00:58:37.9	103.640	0.090	0.100	2.110
2020/01/31 00:58:38.0	103.660	0.070	0.140	2.010
2020/01/31 00:58:38.1	103.670	0.060	0.170	1.910
2020/01/31 00:58:38.2	103.690	0.040	0.210	1.810
2020/01/31 00:58:38.3	103.710	0.020	0.240	1.700
2020/01/31 00:58:38.4	103.720	0.000	0.270	1.590
2020/01/31 00:58:38.5	103.740	-0.010	0.300	1.490
2020/01/31 00:58:38.6	103.760	-0.030	0.320	1.380
2020/01/31 00:58:38.7	103.790	-0.050	0.340	1.270
2020/01/31 00:58:38.8	103.810	-0.060	0.360	1.150
2020/01/31 00:58:38.9	103.830	-0.070	0.380	1.050
2020/01/31 00:58:39.0	103.860	-0.080	0.380	0.940
2020/01/31 00:58:39.1	103.880	-0.100	0.390	0.830
2020/01/31 00:58:39.2	103.900	-0.100	0.390	0.730
2020/01/31 00:58:39.3	103.920	-0.110	0.390	0.630
2020/01/31 00:58:39.4	103.940	-0.120	0.380	0.540
2020/01/31 00:58:39.5	103.960	-0.120	0.370	0.450
2020/01/31 00:58:39.6	103.970	-0.120	0.360	0.360
2020/01/31 00:58:39.7	103.980	-0.130	0.340	0.280
2020/01/31 00:58:39.8	104.000	-0.130	0.320	0.210
2020/01/31 00:58:39.9	104.010	-0.120	0.300	0.140
2020/01/31 00:58:40.0	104.030	-0.120	0.270	0.080
2020/01/31 00:58:40.1	104.030	-0.110	0.240	0.030
2020/01/31 00:58:40.2	104.040	-0.110	0.200	-0.020
2020/01/31 00:58:40.3	104.040	-0.100	0.160	-0.070
2020/01/31 00:58:40.4	104.030	-0.090	0.120	-0.110
2020/01/31 00:58:40.5	104.030	-0.080	0.080	-0.140
2020/01/31 00:58:40.6	104.020	-0.070	0.040	-0.170
2020/01/31 00:58:40.7	104.020	-0.060	-0.010	-0.190
2020/01/31 00:58:40.8	104.010	-0.040	-0.050	-0.210
2020/01/31 00:58:40.9	104.000	-0.030	-0.100	-0.220
2020/01/31 00:58:41.0	103.990	-0.020	-0.150	-0.230
2020/01/31 00:58:41.1	103.970	-0.000	-0.190	-0.240
2020/01/31 00:58:41.2	103.960	0.010	-0.240	-0.240
2020/01/31 00:58:41.3	103.940	0.030	-0.290	-0.240
2020/01/31 00:58:41.4	103.930	0.050	-0.330	-0.230
2020/01/31 00:58:41.5	103.910	0.060	-0.370	-0.230
2020/01/31 00:58:41.6	103.890	0.080	-0.410	-0.220
2020/01/31 00:58:41.7	103.880	0.090	-0.450	-0.210
2020/01/31 00:58:41.8	103.860	0.110	-0.480	-0.200
2020/01/31 00:58:41.9	103.840	0.120	-0.510	-0.180
2020/01/31 00:58:42.0	103.840	0.140	-0.540	-0.170
2020/01/31 00:58:42.1	103.820	0.150	-0.560	-0.150
2020/01/31 00:58:42.2	103.800	0.160	-0.580	-0.140
2020/01/31 00:58:42.3	103.790	0.180	-0.600	-0.120
2020/01/31 00:58:42.4	103.770	0.190	-0.610	-0.100
2020/01/31 00:58:42.5	103.760	0.200	-0.620	-0.080
2020/01/31 00:58:42.6	103.740	0.210	-0.620	-0.060
2020/01/31 00:58:42.7	103.730	0.220	-0.630	-0.040
2020/01/31 00:58:42.8	103.710	0.230	-0.620	-0.020
2020/01/31 00:58:42.9	103.700	0.230	-0.620	0.000
2020/01/31 00:58:43.0	103.690	0.240	-0.610	0.020
2020/01/31 00:58:43.1	103.680	0.250	-0.600	0.050
2020/01/31 00:58:43.2	103.670	0.250	-0.590	0.070
2020/01/31 00:58:43.3	103.660	0.260	-0.570	0.100
2020/01/31 00:58:43.4	103.650	0.260	-0.550	0.130
2020/01/31 00:58:43.5	103.640	0.260	-0.530	0.160
2020/01/31 00:58:43.6	103.630	0.260	-0.500	0.190
2020/01/31 00:58:43.7	103.630	0.260	-0.480	0.220
2020/01/31 00:58:43.8	103.620	0.260	-0.450	0.250
2020/01/31 00:58:43.9	103.620	0.260	-0.420	0.280
2020/01/31 00:58:44.0	103.620	0.260	-0.390	0.320
2020/01/31 00:58:44.1	103.620	0.250	-0.360	0.350
2020/01/31 00:58:44.2	103.620	0.250	-0.320	0.390
2020/01/31 00:58:44.3	103.620	0.240	-0.290	0.430
2020/01/31 00:58:44.4	103.630	0.230	-0.250	0.470
2020/01/31 00:58:44.5	103.630	0.220	-0.220	0.510
2020/01/31 00:58:44.6	103.640	0.210	-0.190	0.550
2020/01/31 00:58:44.7	103.650	0.200	-0.150	0.590
2020/01/31 00:58:44.8	103.660	0.190	-0.120	0.630
2020/01/31 00:58:44.9	103.670	0.180	-0.090	0.680
2020/01/31 00:58:45.0	103.680	0.160	-0.060	0.720
2020/01/31 00:58:45.1	103.690	0.150	-0.030	0.760
2020/01/31 00:58:45.2	103.710	0.130	-0.000	0.810
2020/01/31 00:58:45.3	103.720	0.110	0.020	0.850
2020/01/31 00:58:45.4	103.740	0.100	0.050	0.900
2020/01/31 00:58:45.5	103.760	0.080	0.070	0.940
2020/01/31 00:58:45.6	103.780	0.060	0.090	0.990
2020/01/31 00:58:45.7	103.800	0.050	0.100	1.040
2020/01/31 00:58:45.8	103.820	0.030	0.120	1.090
2020/01/31 00:58:45.9	103.830	0.010	0.130	1.130
2020/01/31 00:58:46.0	103.860	-0.010	0.140	1.180
2020/01/31 00:58:46.1	103.870	-0.020	0.150	1.230
2020/01/31 00:58:46.2	103.890	-0.040	0.150	1.280
2020/01/31 00:58:46.3	103.910	-0.060	0.160	1.330
2020/01/31 00:58:46.4	103.930	-0.070	0.160	1.370
2020/01/31 00:58:46.5	103.940	-0.090	0.160	1.420
2020/01/31 00:58:46.6	103.960	-0.100	0.160	1.470
2020/01/31 00:58:46.7	103.970	-0.120	0.150	1.510
2020/01/31 00:58:46.8	103.990	-0.130	0.150	1.560
2020/01/31 00:58:46.9	104.000	-0.140	0.140	1.600
2020/01/31 00:58:47.0	104.010	-0.150	0.140	1.640
2020/01/31 00:58:47.1	104.020	-0.160	0.130	1.690
2020/01/31 00:58:47.2	104.020	-0.170	0.120	1.730
2020/01/31 00:58:47.3	104.030	-0.180	0.110	1.770
2020/01/31 00:58:47.4	104.040	-0.180	0.100	1.810
2020/01/31 00:58:47.5	104.040	-0.190	0.090	1.850
2020/01/31 00:58:47.6	104.040	-0.190	0.080	1.890
2020/01/31 00:58:47.7	104.040	-0.200	0.070	1.930
2020/01/31 00:58:47.8	104.040	-0.200	0.060	1.970
2020/01/31 00:58:47.9	104.040	-0.200	0.050	2.000
2020/01/31 00:58:48.0	104.030	-0.200	0.040	2.040
2020/01/31 00:58:48.1	104.030	-0.200	0.030	2.070
2020/01/31 00:58:48.2	104.020	-0.200	0.020	2.110
2020/01/31 00:58:48.3	104.020	-0.200	0.010	2.150
2020/01/31 00:58:48.4	104.010	-0.200	-0.000	2.180
2020/01/31 00:58:48.5	104.010	-0.200	-0.010	2.220
2020/01/31 00:58:48.6	104.000	-0.200	-0.020	2.250
2020/01/31 00:58:48.7	104.000	-0.190	-0.030	2.280
2020/01/31 00:58:48.8	103.990	-0.190	-0.040	2.320
2020/01/31 00:58:48.9	103.990	-0.190	-0.050	2.350
2020/01/31 00:58:49.0	103.990	-0.190	-0.050	2.390
2020/01/31 00:58:49.1	103.990	-0.190	-0.060	2.420
2020/01/31 00:58:49.2	103.980	-0.180	-0.060	2.450
2020/01/31 00:58:49.3	103.980	-0.180	-0.070	2.480
2020/01/31 00:58:49.4	103.980	-0.180	-0.080	2.510
2020/01/31 00:58:49.5	103.980	-0.180	-0.080	2.540
2020/01/31 00:58:49.6	103.980	-0.180	-0.080	2.560
2020/01/31 00:58:49.7	103.980	-0.180	-0.090	2.580
2020/01/31 00:58:49.8	103.980	-0.180	-0.090	2.610
2020/01/31 00:58:49.9	103.990	-0.180	-0.100	2.630
2020/01/31 00:58:50.0	103.980	-0.180	-0.100	2.650
2020/01/31 00:58:50.1	103.990	-0.190	-0.110	2.660
2020/01/31 00:58:50.2	104.000	-0.190	-0.110	2.670
2020/01/31 00:58:50.3	104.000	-0.190	-0.110	2.680
2020/01/31 00:58:50.4	104.010	-0.190	-0.120	2.680
2020/01/31 00:58:50.5	104.020	-0.190	-0.120	2.690
2020/01/31 00:58:50.6	104.030	-0.200	-0.130	2.680
2020/01/31 00:58:50.7	104.040	-0.200	-0.130	2.680
2020/01/31 00:58:50.8	104.050	-0.200	-0.140	2.670
2020/01/31 00:58:50.9	104.060	-0.200	-0.140	2.660
2020/01/31 00:58:51.0	104.080	-0.200	-0.140	2.640
2020/01/31 00:58:51.1	104.090	-0.200	-0.150	2.620
2020/01/31 00:58:51.2	104.100	-0.200	-0.160	2.590
2020/01/31 00:58:51.3	104.110	-0.200	-0.160	2.560
2020/01/31 00:58:51.4	104.120	-0.200	-0.170	2.530
2020/01/31 00:58:51.5	104.130	-0.190	-0.180	2.490
2020/01/31 00:58:51.6	104.140	-0.190	-0.190	2.450
2020/01/31 00:58:51.7	104.150	-0.180	-0.200	2.410
2020/01/31 00:58:51.8	104.160	-0.170	-0.210	2.360
2020/01/31 00:58:51.9	104.160	-0.160	-0.220	2.310
2020/01/31 00:58:52.0	104.180	-0.150	-0.230	2.250
2020/01/31 00:58:52.1	104.180	-0.140	-0.250	2.190
2020/01/31 00:58:52.2	104.180	-0.130	-0.260	2.130
2020/01/31 00:58:52.3	104.190	-0.120	-0.280	2.060
2020/01/31 00:58:52.4	104.190	-0.100	-0.300	1.990
2020/01/31 00:58:52.5	104.190	-0.090	-0.310	1.920
2020/01/31 00:58:52.6	104.190	-0.070	-0.330	1.850
2020/01/31 00:58:52.7	104.190	-0.050	-0.350	1.780
2020/01/31 00:58:52.8	104.190	-0.040	-0.370	1.700
2020/01/31 00:58:52.9	104.190	-0.020	-0.390	1.630
2020/01/31 00:58:53.0	104.170	-0.000	-0.400	1.550
2020/01/31 00:58:53.1	104.160	0.020	-0.420	1.470
2020/01/31 00:58:53.2	104.160	0.030	-0.440	1.390
2020/01/31 00:58:53.3	104.150	0.050	-0.450	1.320
2020/01/31 00:58:53.4	104.140	0.070	-0.470	1.240
2020/01/31 00:58:53.5	104.130	0.090	-0.480	1.170
2020/01/31 00:58:53.6	104.120	0.100	-0.500	1.090
2020/01/31 00:58:53.7	104.110	0.120	-0.510	1.020
2020/01/31 00:58:53.8	104.100	0.140	-0.520	0.960
2020/01/31 00:58:53.9	104.090	0.150	-0.530	0.890
2020/01/31 00:58:54.0	104.050	0.170	-0.540	0.830
2020/01/31 00:58:54.1	104.040	0.180	-0.540	0.770
2020/01/31 00:58:54.2	104.020	0.190	-0.550	0.710
2020/01/31 00:58:54.3	104.000	0.210	-0.550	0.650
2020/01/31 00:58:54.4	103.980	0.220	-0.550	0.600
2020/01/31 00:58:54.5	103.960	0.230	-0.550	0.550
2020/01/31 00:58:54.6	103.940	0.240	-0.550	0.510
2020/01/31 00:58:54.7	103.920	0.250	-0.550	0.470
2020/01/31 00:58:54.8	103.900	0.260	-0.540	0.430
2020/01/31 00:58:54.9	103.880	0.270	-0.530	0.390
2020/01/31 00:58:55.0	103.850	0.280	-0.530	0.350
2020/01/31 00:58:55.1	103.840	0.280	-0.520	0.310
2020/01/31 00:58:55.2	103.820	0.290	-0.500	0.280
2020/01/31 00:58:55.3	103.800	0.290	-0.490	0.250
2020/01/31 00:58:55.4	103.780	0.300	-0.480	0.220
2020/01/31 00:58:55.5	103.770	0.300	-0.460	0.190
2020/01/31 00:58:55.6	103.750	0.310	-0.440	0.160
2020/01/31 00:58:55.7	103.740	0.310	-0.430	0.140
2020/01/31 00:58:55.8	103.730	0.310	-0.410	0.110
2020/01/31 00:58:55.9	103.720	0.310	-0.390	0.080
2020/01/31 00:58:56.0	103.730	0.310	-0.360	0.060
2020/01/31 00:58:56.1	103.720	0.310	-0.340	0.040
2020/01/31 00:58:56.2	103.720	0.310	-0.320	0.010
2020/01/31 00:58:56.3	103.720	0.310	-0.300	-0.010
2020/01/31 00:58:56.4	103.730	0.310	-0.280	-0.040
2020/01/31 00:58:56.5	103.730	0.310	-0.250	-0.070
2020/01/31 00:58:56.6	103.740	0.300	-0.230	-0.090
2020/01/31 00:58:56.7	103.750	0.300	-0.200	-0.120
2020/01/31 00:58:56.8	103.760	0.290	-0.180	-0.140
2020/01/31 00:58:56.9	103.770	0.280	-0.150	-0.160
2020/01/31 00:58:57.0	103.800	0.270	-0.120	-0.180
2020/01/31 00:58:57.1	103.810	0.260	-0.090	-0.200
2020/01/31 00:58:57.2	103.830	0.250	-0.060	-0.220
2020/01/31 00:58:57.3	103.840	0.240	-0.030	-0.230
2020/01/31 00:58:57.4	103.860	0.230	-0.000	-0.240
2020/01/31 00:58:57.5	103.880	0.210	0.030	-0.250
2020/01/31 00:58:57.6	103.890	0.200	0.060	-0.250
2020/01/31 00:58:57.7	103.910	0.180	0.090	-0.260
2020/01/31 00:58:57.8	103.920	0.160	0.130	-0.250
2020/01/31 00:58:57.9	103.930	0.140	0.160	-0.250
2020/01/31 00:58:58.0	103.970	0.120	0.200	-0.230
2020/01/31 00:58:58.1	103.980	0.100	0.230	-0.220
2020/01/31 00:58:58.2	103.990	0.070	0.270	-0.200
2020/01/31 00:58:58.3	104.000	0.050	0.300	-0.180
2020/01/31 00:58:58.4	104.010	0.030	0.340	-0.150
2020/01/31 00:58:58.5	104.020	0.000	0.370	-0.120
2020/01/31 00:58:58.6	104.020	-0.030	0.410	-0.090
2020/01/31 00:58:58.7	104.030	-0.050	0.440	-0.050
2020/01/31 00:58:58.8	104.030	-0.080	0.470	-0.010
2020/01/31 00:58:58.9	104.030	-0.110	0.500	0.040
2020/01/31 00:58:59.0	104.040	-0.130	0.530	0.080
2020/01/31 00:58:59.1	104.040	-0.160	0.550	0.130
2020/01/31 00:58:59.2	104.040	-0.190	0.580	0.180
2020/01/31 00:58:59.3	104.040	-0.220	0.600	0.240
2020/01/31 00:58:59.4	104.040	-0.240	0.620	0.300
2020/01/31 00:58:59.5	104.040	-0.270	0.630	0.360
2020/01/31 00:58:59.6	104.040	-0.290	0.650	0.420
2020/01/31 00:58:59.7	104.040	-0.320	0.660	0.480
2020/01/31 00:58:59.8	104.050	-0.340	0.660	0.550
2020/01/31 00:58:59.9	104.050	-0.360	0.660	0.610
2020/01/31 00:59:00.0	104.050	-0.380	0.660	0.680
2020/01/31 00:59:00.1	104.060	-0.400	0.660	0.740
2020/01/31 00:59:00.2	104.060	-0.410	0.650	0.810
2020/01/31 00:59:00.3	104.070	-0.430	0.630	0.880
2020/01/31 00:59:00.4	104.070	-0.440	0.610	0.940
2020/01/31 00:59:00.5	104.080	-0.450	0.580	1.000
2020/01/31 00:59:00.6	104.090	-0.460	0.550	1.070
2020/01/31 00:59:00.7	104.100	-0.460	0.520	1.130
2020/01/31 00:59:00.8	104.110	-0.460	0.480	1.190
2020/01/31 00:59:00.9	104.120	-0.460	0.430	1.240
2020/01/31 00:59:01.0	104.130	-0.450	0.380	1.300
2020/01/31 00:59:01.1	104.150	-0.440	0.330	1.350
2020/01/31 00:59:01.2	104.160	-0.430	0.270	1.400
2020/01/31 00:59:01.3	104.180	-0.420	0.200	1.450
2020/01/31 00:59:01.4	104.190	-0.400	0.140	1.500
2020/01/31 00:59:01.5	104.210	-0.380	0.060	1.550
2020/01/31 00:59:01.6	104.220	-0.350	-0.010	1.600
2020/01/31 00:59:01.7	104.230	-0.320	-0.090	1.640
2020/01/31 00:59:01.8	104.250	-0.290	-0.180	1.690
2020/01/31 00:59:01.9	104.260	-0.260	-0.270	1.730
2020/01/31 00:59:02.0	104.250	-0.220	-0.360	1.780
2020/01/31 00:59:02.1	104.260	-0.180	-0.450	1.820
2020/01/31 00:59:02.2	104.270	-0.140	-0.540	1.870
2020/01/31 00:59:02.3	104.280	-0.100	-0.630	1.920
2020/01/31 00:59:02.4	104.290	-0.050	-0.730	1.970
2020/01/31 00:59:02.5	104.290	-0.010	-0.820	2.020
2020/01/31 00:59:02.6	104.300	0.040	-0.910	2.070
2020/01/31 00:59:02.7	104.300	0.090	-0.990	2.120
2020/01/31 00:59:02.8	104.300	0.140	-1.080	2.180
2020/01/31 00:59:02.9	104.300	0.190	-1.150	2.230
2020/01/31 00:59:03.0	104.280	0.230	-1.230	2.290
2020/01/31 00:59:03.1	104.270	0.280	-1.290	2.350
2020/01/31 00:59:03.2	104.270	0.330	-1.350	2.410
2020/01/31 00:59:03.3	104.260	0.370	-1.410	2.470
2020/01/31 00:59:03.4	104.260	0.410	-1.450	2.530
2020/01/31 00:59:03.5	104.250	0.450	-1.480	2.590
2020/01/31 00:59:03.6	104.240	0.480	-1.510	2.650
2020/01/31 00:59:03.7	104.230	0.520	-1.520	2.710
2020/01/31 00:59:03.8	104.220	0.540	-1.530	2.770
2020/01/31 00:59:03.9	104.200	0.570	-1.520	2.830
2020/01/31 00:59:04.0	104.200	0.590	-1.500	2.890
2020/01/31 00:59:04.1	104.190	0.600	-1.470	2.950
2020/01/31 00:59:04.2	104.180	0.610	-1.420	3.000
2020/01/31 00:59:04.3	104.160	0.620	-1.370	3.050
2020/01/31 00:59:04.4	104.150	0.620	-1.310	3.100
2020/01/31 00:59:04.5	104.140	0.610	-1.240	3.140
2020/01/31 00:59:04.6	104.120	0.600	-1.160	3.180
2020/01/31 00:59:04.7	104.110	0.580	-1.070	3.220
2020/01/31 00:59:04.8	104.100	0.560	-0.970	3.250
2020/01/31 00:59:04.9	104.080	0.540	-0.860	3.270
2020/01/31 00:59:05.0	104.080	0.510	-0.750	3.290
2020/01/31 00:59:05.1	104.060	0.470	-0.640	3.300
2020/01/31 00:59:05.2	104.050	0.430	-0.520	3.300
2020/01/31 00:59:05.3	104.030	0.390	-0.400	3.300
2020/01/31 00:59:05.4	104.020	0.340	-0.270	3.290
2020/01/31 00:59:05.5	104.000	0.300	-0.150	3.270
2020/01/31 00:59:05.6	103.990	0.240	-0.020	3.250
2020/01/31 00:59:05.7	103.970	0.190	0.100	3.220
2020/01/31 00:59:05.8	103.960	0.140	0.220	3.180
2020/01/31 00:59:05.9	103.940	0.080	0.330	3.130
2020/01/31 00:59:06.0	103.940	0.020	0.450	3.080
2020/01/31 00:59:06.1	103.920	-0.030	0.550	3.020
2020/01/31 00:59:06.2	103.900	-0.090	0.650	2.950
2020/01/31 00:59:06.3	103.890	-0.140	0.740	2.870
2020/01/31 00:59:06.4	103.870	-0.200	0.820	2.790
2020/01/31 00:59:06.5	103.850	-0.250	0.900	2.700
2020/01/31 00:59:06.6	103.830	-0.300	0.960	2.600
2020/01/31 00:59:06.7	103.810	-0.340	1.010	2.500
2020/01/31 00:59:06.8	103.790	-0.390	1.060	2.400
2020/01/31 00:59:06.9	103.770	-0.420	1.090	2.290
2020/01/31 00:59:07.0	103.770	-0.460	1.110	2.170
2020/01/31 00:59:07.1	103.750	-0.490	1.130	2.060
2020/01/31 00:59:07.2	103.730	-0.520	1.130	1.940
2020/01/31 00:59:07.3	103.700	-0.540	1.120	1.820
2020/01/31 00:59:07.4	103.680	-0.550	1.100	1.700
2020/01/31 00:59:07.5	103.660	-0.570	1.070	1.580
2020/01/31 00:59:07.6	103.640	-0.570	1.030	1.450
2020/01/31 00:59:07.7	103.620	-0.570	0.990	1.330
2020/01/31 00:59:07.8	103.610	-0.570	0.930	1.210
2020/01/31 00:59:07.9	103.590	-0.560	0.870	1.090
2020/01/31 00:59:08.0	103.580	-0.550	0.800	0.970
2020/01/31 00:59:08.1	103.570	-0.540	0.730	0.850
2020/01/31 00:59:08.2	103.550	-0.520	0.650	0.730
2020/01/31 00:59:08.3	103.540	-0.490	0.570	0.610
2020/01/31 00:59:08.4	103.540	-0.460	0.490	0.500
2020/01/31 00:59:08.5	103.530	-0.430	0.400	0.390
2020/01/31 00:59:08.6	103.530	-0.400	0.320	0.280
2020/01/31 00:59:08.7	103.530	-0.370	0.230	0.170
2020/01/31 00:59:08.8	103.530	-0.330	0.140	0.060
2020/01/31 00:59:08.9	103.540	-0.290	0.050	-0.050
2020/01/31 00:59:09.0	103.550	-0.250	-0.030	-0.150
2020/01/31 00:59:09.1	103.560	-0.210	-0.120	-0.250
2020/01/31 00:59:09.2	103.580	-0.170	-0.200	-0.350
2020/01/31 00:59:09.3	103.590	-0.130	-0.270	-0.440
2020/01/31 00:59:09.4	103.610	-0.090	-0.350	-0.540
2020/01/31 00:59:09.5	103.630	-0.050	-0.420	-0.630
2020/01/31 00:59:09.6	103.660	-0.020	-0.480	-0.710
2020/01/31 00:59:09.7	103.680	0.020	-0.540	-0.790
2020/01/31 00:59:09.8	103.710	0.050	-0.600	-0.870
2020/01/31 00:59:09.9	103.730	0.090	-0.650	-0.940
2020/01/31 00:59:10.0	103.770	0.110	-0.700	-1.010
2020/01/31 00:59:10.1	103.800	0.140	-0.740	-1.080
2020/01/31 00:59:10.2	103.830	0.170	-0.780	-1.140
2020/01/31 00:59:10.3	103.860	0.190	-0.810	-1.200
2020/01/31 00:59:10.4	103.880	0.210	-0.840	-1.250
2020/01/31 00:59:10.5	103.910	0.220	-0.870	-1.290
2020/01/31 00:59:10.6	103.930	0.240	-0.890	-1.340
2020/01/31 00:59:10.7	103.960	0.250	-0.900	-1.370
2020/01/31 00:59:10.8	103.980	0.250	-0.910	-1.410
2020/01/31 00:59:10.9	104.000	0.260	-0.920	-1.430
2020/01/31 00:59:11.0	104.030	0.260	-0.920	-1.460
2020/01/31 00:59:11.1	104.050	0.260	-0.920	-1.470
2020/01/31 00:59:11.2	104.070	0.260	-0.920	-1.490
2020/01/31 00:59:11.3	104.090	0.250	-0.910	-1.500
2020/01/31 00:59:11.4	104.100	0.240	-0.900	-1.500
2020/01/31 00:59:11.5	104.110	0.230	-0.880	-1.500
2020/01/31 00:59:11.6	104.120	0.220	-0.860	-1.490
2020/01/31 00:59:11.7	104.130	0.210	-0.840	-1.480
2020/01/31 00:59:11.8	104.140	0.200	-0.820	-1.460
2020/01/31 00:59:11.9	104.140	0.180	-0.790	-1.440
2020/01/31 00:59:12.0	104.160	0.170	-0.760	-1.400
2020/01/31 00:59:12.1	104.160	0.150	-0.720	-1.360
2020/01/31 00:59:12.2	104.160	0.130	-0.690	-1.320
2020/01/31 00:59:12.3	104.160	0.120	-0.660	-1.270
2020/01/31 00:59:12.4	104.150	0.100	-0.620	-1.200
2020/01/31 00:59:12.5	104.150	0.080	-0.580	-1.140
2020/01/31 00:59:12.6	104.140	0.070	-0.540	-1.060
2020/01/31 00:59:12.7	104.130	0.050	-0.500	-0.980
2020/01/31 00:59:12.8	104.120	0.040	-0.460	-0.900
2020/01/31 00:59:12.9	104.110	0.030	-0.420	-0.800
2020/01/31 00:59:13.0	104.090	0.010	-0.370	-0.710
2020/01/31 00:59:13.1	104.080	0.000	-0.330	-0.600
2020/01/31 00:59:13.2	104.070	-0.010	-0.290	-0.490
2020/01/31 00:59:13.3	104.050	-0.020	-0.240	-0.380
2020/01/31 00:59:13.4	104.030	-0.030	-0.200	-0.270
2020/01/31 00:59:13.5	104.020	-0.030	-0.150	-0.150
2020/01/31 00:59:13.6	104.000	-0.040	-0.110	-0.020
2020/01/31 00:59:13.7	103.980	-0.050	-0.070	0.100
2020/01/31 00:59:13.8	103.960	-0.050	-0.020	0.230
2020/01/31 00:59:13.9	103.950	-0.060	0.020	0.360
2020/01/31 00:59:14.0	103.920	-0.060	0.060	0.490
2020/01/31 00:59:14.1	103.900	-0.060	0.100	0.620
2020/01/31 00:59:14.2	103.890	-0.060	0.130	0.750
2020/01/31 00:59:14.3	103.870	-0.070	0.170	0.880
2020/01/31 00:59:14.4	103.860	-0.070	0.200	1.010
2020/01/31 00:59:14.5	103.840	-0.070	0.240	1.140
2020/01/31 00:59:14.6	103.830	-0.070	0.270	1.270
2020/01/31 00:59:14.7	103.810	-0.070	0.300	1.400
2020/01/31 00:59:14.8	103.800	-0.080	0.320	1.530
2020/01/31 00:59:14.9	103.790	-0.080	0.350	1.660
2020/01/31 00:59:15.0	103.760	-0.080	0.370	1.780
2020/01/31 00:59:15.1	103.750	-0.090	0.400	1.900
2020/01/31 00:59:15.2	103.740	-0.090	0.420	2.020
2020/01/31 00:59:15.3	103.740	-0.100	0.430	2.140
2020/01/31 00:59:15.4	103.730	-0.100	0.450	2.250
2020/01/31 00:59:15.5	103.720	-0.110	0.470	2.360
2020/01/31 00:59:15.6	103.720	-0.110	0.480	2.470
2020/01/31 00:59:15.7	103.710	-0.120	0.490	2.570
2020/01/31 00:59:15.8	103.710	-0.130	0.500	2.670
2020/01/31 00:59:15.9	103.710	-0.130	0.510	2.760
2020/01/31 00:59:16.0	103.730	-0.140	0.510	2.850
2020/01/31 00:59:16.1	103.730	-0.150	0.510	2.940
2020/01/31 00:59:16.2	103.730	-0.160	0.510	3.020
2020/01/31 00:59:16.3	103.730	-0.160	0.510	3.090
2020/01/31 00:59:16.4	103.730	-0.170	0.510	3.160
2020/01/31 00:59:16.5	103.740	-0.170	0.500	3.230
2020/01/31 00:59:16.6	103.740	-0.180	0.490	3.290
2020/01/31 00:59:16.7	103.750	-0.180	0.470	3.340
2020/01/31 00:59:16.8	103.760	-0.180	0.460	3.390
2020/01/31 00:59:16.9	103.760	-0.180	0.440	3.440
2020/01/31 00:59:17.0	103.770	-0.180	0.410	3.480
2020/01/31 00:59:17.1	103.780	-0.180	0.380	3.510
2020/01/31 00:59:17.2	103.790	-0.170	0.350	3.540
2020/01/31 00:59:17.3	103.800	-0.160	0.310	3.560
2020/01/31 00:59:17.4	103.810	-0.150	0.270	3.580
2020/01/31 00:59:17.5	103.810	-0.140	0.230	3.590
2020/01/31 00:59:17.6	103.820	-0.120	0.180	3.590
2020/01/31 00:59:17.7	103.830	-0.100	0.130	3.590
2020/01/31 00:59:17.8	103.840	-0.080	0.070	3.580
2020/01/31 00:59:17.9	103.850	-0.060	0.010	3.570
2020/01/31 00:59:18.0	103.860	-0.030	-0.050	3.540
2020/01/31 00:59:18.1	103.870	0.000	-0.110	3.510
2020/01/31 00:59:18.2	103.880	0.030	-0.180	3.480
2020/01/31 00:59:18.3	103.890	0.060	-0.250	3.450
2020/01/31 00:59:18.4	103.900	0.100	-0.320	3.400
2020/01/31 00:59:18.5	103.910	0.140	-0.390	3.360
2020/01/31 00:59:18.6	103.910	0.170	-0.460	3.310
2020/01/31 00:59:18.7	103.920	0.210	-0.530	3.250
2020/01/31 00:59:18.8	103.930	0.250	-0.600	3.190
2020/01/31 00:59:18.9	103.930	0.290	-0.670	3.130
2020/01/31 00:59:19.0	103.940	0.330	-0.730	3.070
2020/01/31 00:59:19.1	103.940	0.360	-0.800	3.010
2020/01/31 00:59:19.2	103.940	0.400	-0.860	2.940
2020/01/31 00:59:19.3	103.940	0.430	-0.910	2.880
2020/01/31 00:59:19.4	103.940	0.470	-0.960	2.810
2020/01/31 00:59:19.5	103.940	0.500	-1.010	2.740
2020/01/31 00:59:19.6	103.940	0.530	-1.040	2.680
2020/01/31 00:59:19.7	103.930	0.550	-1.080	2.610
2020/01/31 00:59:19.8	103.930	0.570	-1.100	2.550
2020/01/31 00:59:19.9	103.920	0.590	-1.120	2.480
2020/01/31 00:59:20.0	103.890	0.610	-1.140	2.410
2020/01/31 00:59:20.1	103.880	0.620	-1.140	2.350
2020/01/31 00:59:20.2	103.880	0.620	-1.140	2.280
2020/01/31 00:59:20.3	103.870	0.630	-1.130	2.220
2020/01/31 00:59:20.4	103.860	0.630	-1.120	2.160
2020/01/31 00:59:20.5	103.850	0.620	-1.090	2.090
2020/01/31 00:59:20.6	103.840	0.610	-1.060	2.030
2020/01/31 00:59:20.7	103.840	0.600	-1.030	1.970
2020/01/31 00:59:20.8	103.830	0.580	-0.980	1.910
2020/01/31 00:59:20.9	103.820	0.560	-0.930	1.850
2020/01/31 00:59:21.0	103.810	0.530	-0.870	1.780
2020/01/31 00:59:21.1	103.810	0.500	-0.810	1.720
2020/01/31 00:59:21.2	103.810	0.470	-0.740	1.660
2020/01/31 00:59:21.3	103.810	0.430	-0.670	1.600
2020/01/31 00:59:21.4	103.810	0.390	-0.600	1.530
2020/01/31 00:59:21.5	103.810	0.350	-0.520	1.470
2020/01/31 00:59:21.6	103.810	0.300	-0.440	1.400
2020/01/31 00:59:21.7	103.810	0.260	-0.360	1.340
2020/01/31 00:59:21.8	103.820	0.210	-0.270	1.270
2020/01/31 00:59:21.9	103.820	0.160	-0.190	1.200
2020/01/31 00:59:22.0	103.830	0.110	-0.110	1.130
2020/01/31 00:59:22.1	103.830	0.060	-0.030	1.060
2020/01/31 00:59:22.2	103.840	0.010	0.050	0.990
2020/01/31 00:59:22.3	103.850	-0.040	0.130	0.920
2020/01/31 00:59:22.4	103.860	-0.090	0.210	0.850
2020/01/31 00:59:22.5	103.870	-0.130	0.280	0.780
2020/01/31 00:59:22.6	103.870	-0.180	0.350	0.700
2020/01/31 00:59:22.7	103.880	-0.220	0.410	0.630
2020/01/31 00:59:22.8	103.890	-0.270	0.470	0.560
2020/01/31 00:59:22.9	103.900	-0.310	0.520	0.490
2020/01/31 00:59:23.0	103.900	-0.350	0.570	0.420
2020/01/31 00:59:23.1	103.910	-0.380	0.610	0.350
2020/01/31 00:59:23.2	103.910	-0.420	0.640	0.280
2020/01/31 00:59:23.3	103.920	-0.450	0.670	0.220
2020/01/31 00:59:23.4	103.920	-0.480	0.700	0.160
2020/01/31 00:59:23.5	103.920	-0.500	0.720	0.100
2020/01/31 00:59:23.6	103.930	-0.520	0.730	0.040
2020/01/31 00:59:23.7	103.930	-0.540	0.740	-0.010
2020/01/31 00:59:23.8	103.930	-0.560	0.740	-0.060
2020/01/31 00:59:23.9	103.930	-0.570	0.740	-0.100
2020/01/31 00:59:24.0	103.930	-0.580	0.730	-0.140
2020/01/31 00:59:24.1	103.930	-0.590	0.720	-0.180
2020/01/31 00:59:24.2	103.930	-0.600	0.700	-0.210
2020/01/31 00:59:24.3	103.930	-0.600	0.680	-0.250
2020/01/31 00:59:24.4	103.930	-0.600	0.660	-0.270
2020/01/31 00:59:24.5	103.930	-0.600	0.630	-0.300
2020/01/31 00:59:24.6	103.920	-0.590	0.600	-0.320
2020/01/31 00:59:24.7	103.920	-0.580	0.560	-0.340
2020/01/31 00:59:24.8	103.920	-0.570	0.530	-0.350
2020/01/31 00:59:24.9	103.910	-0.560	0.490	-0.360
2020/01/31 00:59:25.0	103.920	-0.550	0.440	-0.370
2020/01/31 00:59:25.1	103.910	-0.530	0.400	-0.370
2020/01/31 00:59:25.2	103.900	-0.510	0.350	-0.370
2020/01/31 00:59:25.3	103.900	-0.490	0.300	-0.370
2020/01/31 00:59:25.4	103.890	-0.470	0.250	-0.360
2020/01/31 00:59:25.5	103.880	-0.450	0.200	-0.350
2020/01/31 00:59:25.6	103.870	-0.420	0.140	-0.340
2020/01/31 00:59:25.7	103.860	-0.400	0.090	-0.330
2020/01/31 00:59:25.8	103.850	-0.370	0.030	-0.310
2020/01/31 00:59:25.9	103.830	-0.340	-0.020	-0.290
2020/01/31 00:59:26.0	103.810	-0.310	-0.080	-0.270
2020/01/31 00:59:26.1	103.800	-0.280	-0.130	-0.250
2020/01/31 00:59:26.2	103.780	-0.250	-0.190	-0.220
2020/01/31 00:59:26.3	103.770	-0.220	-0.250	-0.200
2020/01/31 00:59:26.4	103.760	-0.190	-0.300	-0.170
2020/01/31 00:59:26.5	103.750	-0.150	-0.360	-0.140
2020/01/31 00:59:26.6	103.730	-0.120	-0.410	-0.110
2020/01/31 00:59:26.7	103.720	-0.080	-0.470	-0.090
2020/01/31 00:59:26.8	103.710	-0.050	-0.520	-0.060
2020/01/31 00:59:26.9	103.700	-0.020	-0.570	-0.020
2020/01/31 00:59:27.0	103.680	0.020	-0.620	0.010
2020/01/31 00:59:27.1	103.670	0.050	-0.670	0.040
2020/01/31 00:59:27.2	103.660	0.090	-0.710	0.080
2020/01/31 00:59:27.3	103.650	0.120	-0.760	0.110
2020/01/31 00:59:27.4	103.650	0.150	-0.800	0.150
2020/01/31 00:59:27.5	103.640	0.190	-0.840	0.180
2020/01/31 00:59:27.6	103.640	0.220	-0.870	0.220
2020/01/31 00:59:27.7	103.630	0.250	-0.900	0.260
2020/01/31 00:59:27.8	103.630	0.280	-0.930	0.300
2020/01/31 00:59:27.9	103.630	0.310	-0.960	0.350
2020/01/31 00:59:28.0	103.610	0.340	-0.980	0.380
2020/01/31 00:59:28.1	103.610	0.370	-0.990	0.430
2020/01/31 00:59:28.2	103.610	0.390	-1.010	0.470
2020/01/31 00:59:28.3	103.610	0.420	-1.020	0.520
2020/01/31 00:59:28.4	103.620	0.440	-1.020	0.560
2020/01/31 00:59:28.5	103.620	0.460	-1.020	0.610
2020/01/31 00:59:28.6	103.630	0.480	-1.020	0.660
2020/01/31 00:59:28.7	103.630	0.500	-1.010	0.700
2020/01/31 00:59:28.8	103.640	0.520	-1.000	0.750
2020/01/31 00:59:28.9	103.640	0.530	-0.980	0.800
2020/01/31 00:59:29.0	103.640	0.550	-0.960	0.850
2020/01/31 00:59:29.1	103.650	0.560	-0.930	0.900
2020/01/31 00:59:29.2	103.650	0.560	-0.900	0.950
2020/01/31 00:59:29.3	103.660	0.570	-0.870	0.990
2020/01/31 00:59:29.4	103.670	0.580	-0.830	1.040
2020/01/31 00:59:29.5	103.670	0.580	-0.790	1.090
2020/01/31 00:59:29.6	103.680	0.580	-0.740	1.130
2020/01/31 00:59:29.7	103.680	0.580	-0.700	1.180
2020/01/31 00:59:29.8	103.690	0.570	-0.640	1.230
2020/01/31 00:59:29.9	103.690	0.560	-0.590	1.270
2020/01/31 00:59:30.0	103.700	0.560	-0.530	1.310
2020/01/31 00:59:30.1	103.700	0.540	-0.470	1.360
2020/01/31 00:59:30.2	103.700	0.530	-0.410	1.400
2020/01/31 00:59:30.3	103.700	0.520	-0.350	1.440
2020/01/31 00:59:30.4	103.710	0.500	-0.280	1.480
2020/01/31 00:59:30.5	103.710	0.480	-0.220	1.520
2020/01/31 00:59:30.6	103.710	0.450	-0.150	1.560
2020/01/31 00:59:30.7	103.710	0.430	-0.080	1.600
2020/01/31 00:59:30.8	103.710	0.400	-0.010	1.640
2020/01/31 00:59:30.9	103.710	0.380	0.060	1.680
2020/01/31 00:59:31.0	103.700	0.350	0.130	1.710
2020/01/31 00:59:31.1	103.700	0.310	0.190	1.750
2020/01/31 00:59:31.2	103.700	0.280	0.260	1.780
2020/01/31 00:59:31.3	103.700	0.250	0.320	1.820
2020/01/31 00:59:31.4	103.700	0.210	0.380	1.850
2020/01/31 00:59:31.5	103.690	0.170	0.440	1.880
2020/01/31 00:59:31.6	103.690	0.130	0.490	1.910
2020/01/31 00:59:31.7	103.680	0.100	0.550	1.950
2020/01/31 00:59:31.8	103.680	0.060	0.590	1.980
2020/01/31 00:59:31.9	103.670	0.020	0.640	2.010
2020/01/31 00:59:32.0	103.670	-0.020	0.680	2.050
2020/01/31 00:59:32.1	103.660	-0.060	0.710	2.080
2020/01/31 00:59:32.2	103.650	-0.100	0.750	2.110
2020/01/31 00:59:32.3	103.640	-0.140	0.770	2.140
2020/01/31 00:59:32.4	103.630	-0.180	0.790	2.170
2020/01/31 00:59:32.5	103.620	-0.220	0.810	2.200
2020/01/31 00:59:32.6	103.600	-0.260	0.820	2.230
2020/01/31 00:59:32.7	103.590	-0.290	0.830	2.260
2020/01/31 00:59:32.8	103.570	-0.330	0.830	2.280
2020/01/31 00:59:32.9	103.560	-0.360	0.820	2.310
2020/01/31 00:59:33.0	103.550	-0.390	0.810	2.330
2020/01/31 00:59:33.1	103.530	-0.420	0.800	2.350
2020/01/31 00:59:33.2	103.520	-0.450	0.780	2.380
2020/01/31 00:59:33.3	103.500	-0.470	0.760	2.400
2020/01/31 00:59:33.4	103.490	-0.490	0.730	2.420
2020/01/31 00:59:33.5	103.480	-0.520	0.700	2.430
2020/01/31 00:59:33.6	103.470	-0.530	0.670	2.450
2020/01/31 00:59:33.7	103.460	-0.550	0.630	2.460
2020/01/31 00:59:33.8	103.450	-0.560	0.590	2.470
2020/01/31 00:59:33.9	103.440	-0.570	0.550	2.470
2020/01/31 00:59:34.0	103.450	-0.580	0.500	2.470
2020/01/31 00:59:34.1	103.450	-0.590	0.450	2.470
2020/01/31 00:59:34.2	103.440	-0.590	0.400	2.470
2020/01/31 00:59:34.3	103.440	-0.590	0.350	2.460
2020/01/31 00:59:34.4	103.440	-0.590	0.300	2.450
2020/01/31 00:59:34.5	103.440	-0.590	0.250	2.440
2020/01/31 00:59:34.6	103.430	-0.580	0.200	2.430
2020/01/31 00:59:34.7	103.430	-0.570	0.150	2.410
2020/01/31 00:59:34.8	103.440	-0.560	0.090	2.390
2020/01/31 00:59:34.9	103.440	-0.550	0.040	2.360
2020/01/31 00:59:35.0	103.440	-0.530	-0.010	2.330
2020/01/31 00:59:35.1	103.440	-0.520	-0.070	2.300
2020/01/31 00:59:35.2	103.450	-0.500	-0.120	2.270
2020/01/31 00:59:35.3	103.450	-0.480	-0.170	2.230
2020/01/31 00:59:35.4	103.450	-0.450	-0.230	2.190
2020/01/31 00:59:35.5	103.450	-0.430	-0.280	2.150
2020/01/31 00:59:35.6	103.460	-0.400	-0.330	2.110
2020/01/31 00:59:35.7	103.460	-0.370	-0.380	2.060
2020/01/31 00:59:35.8	103.460	-0.350	-0.430	2.020
2020/01/31 00:59:35.9	103.460	-0.320	-0.480	1.970
2020/01/31 00:59:36.0	103.440	-0.290	-0.530	1.910
2020/01/31 00:59:36.1	103.440	-0.260	-0.580	1.860
2020/01/31 00:59:36.2	103.440	-0.220	-0.630	1.810
2020/01/31 00:59:36.3	103.440	-0.190	-0.670	1.760
2020/01/31 00:59:36.4	103.440	-0.160	-0.710	1.710
2020/01/31 00:59:36.5	103.430	-0.130	-0.760	1.650
2020/01/31 00:59:36.6	103.430	-0.100	-0.800	1.600
2020/01/31 00:59:36.7	103.420	-0.060	-0.830	1.550
2020/01/31 00:59:36.8	103.410	-0.030	-0.870	1.490
2020/01/31 00:59:36.9	103.410	0.000	-0.900	1.440
2020/01/31 00:59:37.0	103.390	0.030	-0.940	1.390
2020/01/31 00:59:37.1	103.380	0.060	-0.970	1.330
2020/01/31 00:59:37.2	103.370	0.100	-0.990	1.280
2020/01/31 00:59:37.3	103.360	0.130	-1.020	1.230
2020/01/31 00:59:37.4	103.350	0.150	-1.040	1.180
2020/01/31 00:59:37.5	103.340	0.180	-1.050	1.130
2020/01/31 00:59:37.6	103.330	0.210	-1.070	1.080
2020/01/31 00:59:37.7	103.320	0.230	-1.080	1.030
2020/01/31 00:59:37.8	103.310	0.260	-1.080	0.990
2020/01/31 00:59:37.9	103.300	0.280	-1.080	0.940
2020/01/31 00:59:38.0	103.270	0.300	-1.070	0.890
2020/01/31 00:59:38.1	103.260	0.320	-1.070	0.850
2020/01/31 00:59:38.2	103.250	0.340	-1.050	0.810
2020/01/31 00:59:38.3	103.240	0.360	-1.040	0.760
2020/01/31 00:59:38.4	103.220	0.370	-1.020	0.720
2020/01/31 00:59:38.5	103.210	0.390	-0.990	0.680
2020/01/31 00:59:38.6	103.200	0.400	-0.960	0.640
2020/01/31 00:59:38.7	103.190	0.410	-0.920	0.600
2020/01/31 00:59:38.8	103.180	0.420	-0.880	0.570
2020/01/31 00:59:38.9	103.160	0.420	-0.840	0.530
2020/01/31 00:59:39.0	103.170	0.430	-0.790	0.500
2020/01/31 00:59:39.1	103.160	0.430	-0.740	0.470
2020/01/31 00:59:39.2	103.150	0.430	-0.680	0.440
2020/01/31 00:59:39.3	103.140	0.430	-0.620	0.410
2020/01/31 00:59:39.4	103.120	0.430	-0.560	0.380
2020/01/31 00:59:39.5	103.110	0.430	-0.490	0.360
2020/01/31 00:59:39.6	103.100	0.420	-0.420	0.330
2020/01/31 00:59:39.7	103.090	0.410	-0.350	0.310
2020/01/31 00:59:39.8	103.070	0.410	-0.280	0.290
2020/01/31 00:59:39.9	103.060	0.400	-0.200	0.270
2020/01/31 00:59:40.0	103.040	0.390	-0.120	0.250
2020/01/31 00:59:40.1	103.020	0.380	-0.050	0.230
2020/01/31 00:59:40.2	103.010	0.360	0.020	0.210
2020/01/31 00:59:40.3	102.990	0.350	0.090	0.200
2020/01/31 00:59:40.4	102.980	0.340	0.160	0.180
2020/01/31 00:59:40.5	102.960	0.320	0.230	0.170
2020/01/31 00:59:40.6	102.950	0.310	0.290	0.150
2020/01/31 00:59:40.7	102.930	0.290	0.350	0.140
2020/01/31 00:59:40.8	102.920	0.280	0.410	0.120
2020/01/31 00:59:40.9	102.900	0.260	0.460	0.110
2020/01/31 00:59:41.0	102.900	0.240	0.500	0.090
2020/01/31 00:59:41.1	102.890	0.230	0.550	0.070
2020/01/31 00:59:41.2	102.880	0.210	0.580	0.060
2020/01/31 00:59:41.3	102.870	0.200	0.610	0.040
2020/01/31 00:59:41.4	102.850	0.180	0.640	0.030
2020/01/31 00:59:41.5	102.840	0.160	0.660	0.010
2020/01/31 00:59:41.6	102.840	0.150	0.670	-0.000
2020/01/31 00:59:41.7	102.830	0.130	0.680	-0.020
2020/01/31 00:59:41.8	102.820	0.120	0.680	-0.030
2020/01/31 00:59:41.9	102.810	0.100	0.680	-0.040
2020/01/31 00:59:42.0	102.800	0.090	0.670	-0.040
2020/01/31 00:59:42.1	102.790	0.070	0.660	-0.050
2020/01/31 00:59:42.2	102.780	0.060	0.640	-0.050
2020/01/31 00:59:42.3	102.770	0.050	0.620	-0.050
2020/01/31 00:59:42.4	102.760	0.030	0.590	-0.040
2020/01/31 00:59:42.5	102.750	0.020	0.560	-0.030
2020/01/31 00:59:42.6	102.740	0.010	0.530	-0.010
2020/01/31 00:59:42.7	102.730	-0.000	0.490	0.010
2020/01/31 00:59:42.8	102.720	-0.020	0.450	0.030
2020/01/31 00:59:42.9	102.710	-0.030	0.400	0.060
2020/01/31 00:59:43.0	102.710	-0.040	0.360	0.090
2020/01/31 00:59:43.1	102.700	-0.050	0.310	0.130
2020/01/31 00:59:43.2	102.690	-0.060	0.260	0.170
2020/01/31 00:59:43.3	102.680	-0.070	0.210	0.210
2020/01/31 00:59:43.4	102.670	-0.080	0.160	0.260
2020/01/31 00:59:43.5	102.670	-0.090	0.110	0.310
2020/01/31 00:59:43.6	102.660	-0.100	0.060	0.370
2020/01/31 00:59:43.7	102.660	-0.110	0.010	0.430
2020/01/31 00:59:43.8	102.650	-0.120	-0.040	0.490
2020/01/31 00:59:43.9	102.650	-0.130	-0.090	0.550
2020/01/31 00:59:44.0	102.660	-0.140	-0.140	0.610
2020/01/31 00:59:44.1	102.660	-0.150	-0.190	0.680
2020/01/31 00:59:44.2	102.660	-0.160	-0.230	0.740
2020/01/31 00:59:44.3	102.660	-0.170	-0.280	0.800
2020/01/31 00:59:44.4	102.670	-0.180	-0.320	0.870
2020/01/31 00:59:44.5	102.670	-0.190	-0.360	0.940
2020/01/31 00:59:44.6	102.680	-0.190	-0.400	1.000
2020/01/31 00:59:44.7	102.690	-0.200	-0.430	1.060
2020/01/31 00:59:44.8	102.700	-0.210	-0.470	1.130
2020/01/31 00:59:44.9	102.700	-0.220	-0.500	1.190
2020/01/31 00:59:45.0	102.700	-0.220	-0.530	1.250
2020/01/31 00:59:45.1	102.710	-0.230	-0.550	1.310
2020/01/31 00:59:45.2	102.730	-0.230	-0.570	1.370
2020/01/31 00:59:45.3	102.740	-0.240	-0.590	1.420
2020/01/31 00:59:45.4	102.750	-0.240	-0.600	1.480
2020/01/31 00:59:45.5	102.760	-0.240	-0.620	1.530
2020/01/31 00:59:45.6	102.770	-0.240	-0.630	1.590
2020/01/31 00:59:45.7	102.790	-0.240	-0.630	1.640
2020/01/31 00:59:45.8	102.800	-0.240	-0.640	1.690
2020/01/31 00:59:45.9	102.810	-0.240	-0.640	1.740
2020/01/31 00:59:46.0	102.810	-0.230	-0.640	1.780
2020/01/31 00:59:46.1	102.820	-0.230	-0.630	1.830
2020/01/31 00:59:46.2	102.830	-0.220	-0.630	1.880
2020/01/31 00:59:46.3	102.840	-0.210	-0.620	1.920
2020/01/31 00:59:46.4	102.850	-0.200	-0.610	1.960
2020/01/31 00:59:46.5	102.860	-0.190	-0.600	2.010
2020/01/31 00:59:46.6	102.860	-0.170	-0.580	2.050
2020/01/31 00:59:46.7	102.860	-0.160	-0.570	2.090
2020/01/31 00:59:46.8	102.870	-0.140	-0.550	2.140
2020/01/31 00:59:46.9	102.870	-0.120	-0.530	2.180
2020/01/31 00:59:47.0	102.870	-0.100	-0.510	2.220
2020/01/31 00:59:47.1	102.860	-0.080	-0.480	2.260
2020/01/31 00:59:47.2	102.860	-0.060	-0.460	2.300
2020/01/31 00:59:47.3	102.850	-0.040	-0.430	2.340
2020/01/31 00:59:47.4	102.850	-0.020	-0.400	2.380
2020/01/31 00:59:47.5	102.830	-0.000	-0.370	2.420
2020/01/31 00:59:47.6	102.820	0.020	-0.340	2.450
2020/01/31 00:59:47.7	102.810	0.040	-0.310	2.490
2020/01/31 00:59:47.8	102.790	0.060	-0.280	2.530
2020/01/31 00:59:47.9	102.770	0.080	-0.240	2.560
2020/01/31 00:59:48.0	102.760	0.100	-0.210	2.590
2020/01/31 00:59:48.1	102.740	0.110	-0.170	2.630
2020/01/31 00:59:48.2	102.710	0.130	-0.130	2.650
2020/01/31 00:59:48.3	102.690	0.140	-0.100	2.680
2020/01/31 00:59:48.4	102.660	0.160	-0.060	2.710
2020/01/31 00:59:48.5	102.630	0.170	-0.030	2.730
2020/01/31 00:59:48.6	102.600	0.180	0.010	2.750
2020/01/31 00:59:48.7	102.570	0.180	0.040	2.760
2020/01/31 00:59:48.8	102.540	0.190	0.070	2.780
2020/01/31 00:59:48.9	102.510	0.190	0.100	2.790
2020/01/31 00:59:49.0	102.500	0.190	0.130	2.790
2020/01/31 00:59:49.1	102.470	0.190	0.160	2.790
2020/01/31 00:59:49.2	102.440	0.190	0.190	2.790
2020/01/31 00:59:49.3	102.410	0.180	0.210	2.780
2020/01/31 00:59:49.4	102.390	0.180	0.240	2.770
2020/01/31 00:59:49.5	102.360	0.170	0.260	2.750
2020/01/31 00:59:49.6	102.340	0.150	0.270	2.730
2020/01/31 00:59:49.7	102.320	0.140	0.290	2.700
2020/01/31 00:59:49.8	102.300	0.130	0.300	2.660
2020/01/31 00:59:49.9	102.280	0.110	0.310	2.630
2020/01/31 00:59:50.0	102.270	0.090	0.320	2.580
2020/01/31 00:59:50.1	102.260	0.070	0.320	2.530
2020/01/31 00:59:50.2	102.250	0.050	0.320	2.480
2020/01/31 00:59:50.3	102.230	0.030	0.320	2.420
2020/01/31 00:59:50.4	102.230	0.010	0.320	2.350
2020/01/31 00:59:50.5	102.220	-0.010	0.310	2.280
2020/01/31 00:59:50.6	102.210	-0.030	0.300	2.200
2020/01/31 00:59:50.7	102.210	-0.050	0.290	2.120
2020/01/31 00:59:50.8	102.200	-0.070	0.270	2.040
2020/01/31 00:59:50.9	102.200	-0.090	0.250	1.950
2020/01/31 00:59:51.0	102.190	-0.110	0.230	1.850
2020/01/31 00:59:51.1	102.190	-0.130	0.210	1.760
2020/01/31 00:59:51.2	102.190	-0.150	0.190	1.660
2020/01/31 00:59:51.3	102.190	-0.170	0.160	1.560
2020/01/31 00:59:51.4	102.200	-0.180	0.130	1.450
2020/01/31 00:59:51.5	102.200	-0.200	0.110	1.350
2020/01/31 00:59:51.6	102.210	-0.210	0.080	1.240
2020/01/31 00:59:51.7	102.220	-0.220	0.050	1.140
2020/01/31 00:59:51.8	102.220	-0.230	0.020	1.030
2020/01/31 00:59:51.9	102.230	-0.240	-0.010	0.930
2020/01/31 00:59:52.0	102.240	-0.240	-0.050	0.820
2020/01/31 00:59:52.1	102.250	-0.250	-0.080	0.710
2020/01/31 00:59:52.2	102.260	-0.250	-0.110	0.610
2020/01/31 00:59:52.3	102.280	-0.250	-0.140	0.510
2020/01/31 00:59:52.4	102.290	-0.250	-0.170	0.410
2020/01/31 00:59:52.5	102.300	-0.240	-0.200	0.320
2020/01/31 00:59:52.6	102.310	-0.240	-0.230	0.220
2020/01/31 00:59:52.7	102.320	-0.230	-0.260	0.130
2020/01/31 00:59:52.8	102.330	-0.220	-0.290	0.040
2020/01/31 00:59:52.9	102.340	-0.210	-0.320	-0.040
2020/01/31 00:59:53.0	102.360	-0.200	-0.350	-0.120
2020/01/31 00:59:53.1	102.370	-0.180	-0.370	-0.200
2020/01/31 00:59:53.2	102.380	-0.170	-0.400	-0.270
2020/01/31 00:59:53.3	102.390	-0.150	-0.420	-0.340
2020/01/31 00:59:53.4	102.390	-0.140	-0.450	-0.400
2020/01/31 00:59:53.5	102.400	-0.120	-0.470	-0.460
2020/01/31 00:59:53.6	102.410	-0.100	-0.490	-0.520
2020/01/31 00:59:53.7	102.410	-0.080	-0.510	-0.560
2020/01/31 00:59:53.8	102.420	-0.060	-0.530	-0.610
2020/01/31 00:59:53.9	102.420	-0.040	-0.550	-0.640
2020/01/31 00:59:54.0	102.410	-0.010	-0.570	-0.680
2020/01/31 00:59:54.1	102.410	0.010	-0.580	-0.710
2020/01/31 00:59:54.2	102.410	0.030	-0.600	-0.730
2020/01/31 00:59:54.3	102.400	0.050	-0.610	-0.740
2020/01/31 00:59:54.4	102.400	0.070	-0.620	-0.750
2020/01/31 00:59:54.5	102.390	0.090	-0.630	-0.750
2020/01/31 00:59:54.6	102.380	0.120	-0.640	-0.750
2020/01/31 00:59:54.7	102.370	0.140	-0.650	-0.740
2020/01/31 00:59:54.8	102.360	0.160	-0.650	-0.730
2020/01/31 00:59:54.9	102.350	0.170	-0.660	-0.710
2020/01/31 00:59:55.0	102.330	0.190	-0.660	-0.690
2020/01/31 00:59:55.1	102.320	0.210	-0.660	-0.660
2020/01/31 00:59:55.2	102.300	0.220	-0.660	-0.630
2020/01/31 00:59:55.3	102.280	0.240	-0.650	-0.590
2020/01/31 00:59:55.4	102.270	0.250	-0.650	-0.550
2020/01/31 00:59:55.5	102.250	0.260	-0.640	-0.510
2020/01/31 00:59:55.6	102.230	0.270	-0.630	-0.470
2020/01/31 00:59:55.7	102.210	0.280	-0.610	-0.410
2020/01/31 00:59:55.8	102.190	0.280	-0.600	-0.360
2020/01/31 00:59:55.9	102.170	0.280	-0.580	-0.310
2020/01/31 00:59:56.0	102.150	0.280	-0.560	-0.250
2020/01/31 00:59:56.1	102.130	0.280	-0.530	-0.180
2020/01/31 00:59:56.2	102.110	0.280	-0.510	-0.120
2020/01/31 00:59:56.3	102.090	0.280	-0.480	-0.050
2020/01/31 00:59:56.4	102.070	0.270	-0.450	0.020
2020/01/31 00:59:56.5	102.040	0.260	-0.420	0.090
2020/01/31 00:59:56.6	102.020	0.250	-0.380	0.170
2020/01/31 00:59:56.7	102.000	0.240	-0.350	0.250
2020/01/31 00:59:56.8	101.980	0.220	-0.310	0.330
2020/01/31 00:59:56.9	101.960	0.210	-0.270	0.410
2020/01/31 00:59:57.0	101.930	0.190	-0.230	0.490
2020/01/31 00:59:57.1	101.910	0.170	-0.190	0.570
2020/01/31 00:59:57.2	101.880	0.150	-0.140	0.660
2020/01/31 00:59:57.3	101.860	0.130	-0.100	0.740
2020/01/31 00:59:57.4	101.840	0.110	-0.050	0.830
2020/01/31 00:59:57.5	101.820	0.080	-0.010	0.910
2020/01/31 00:59:57.6	101.800	0.060	0.030	1.000
2020/01/31 00:59:57.7	101.770	0.030	0.080	1.090
2020/01/31 00:59:57.8	101.750	0.010	0.120	1.170
2020/01/31 00:59:57.9	101.730	-0.020	0.170	1.250
2020/01/31 00:59:58.0	101.720	-0.050	0.210	1.340
2020/01/31 00:59:58.1	101.700	-0.070	0.250	1.420
2020/01/31 00:59:58.2	101.680	-0.100	0.290	1.500
2020/01/31 00:59:58.3	101.660	-0.130	0.330	1.580
2020/01/31 00:59:58.4	101.640	-0.150	0.370	1.650
2020/01/31 00:59:58.5	101.630	-0.180	0.400	1.720
2020/01/31 00:59:58.6	101.610	-0.200	0.430	1.790
2020/01/31 00:59:58.7	101.600	-0.220	0.460	1.860
2020/01/31 00:59:58.8	101.590	-0.250	0.490	1.920
2020/01/31 00:59:58.9	101.580	-0.270	0.520	1.980
2020/01/31 00:59:59.0	101.590	-0.290	0.540	2.040
2020/01/31 00:59:59.1	101.590	-0.300	0.560	2.090
2020/01/31 00:59:59.2	101.580	-0.320	0.570	2.130
2020/01/31 00:59:59.3	101.580	-0.330	0.580	2.170
2020/01/31 00:59:59.4	101.580	-0.340	0.590	2.210
2020/01/31 00:59:59.5	101.580	-0.350	0.590	2.240
2020/01/31 00:59:59.6	101.580	-0.360	0.580	2.270
2020/01/31 00:59:59.7	101.590	-0.360	0.580	2.300
2020/01/31 00:59:59.8	101.600	-0.360	0.560	2.320
2020/01/31 00:59:59.9	101.600	-0.360	0.550	2.330
2020/01/31 01:00:00.0	101.610	-0.360	0.520	2.340
2020/01/31 01:00:00.1	101.620	-0.350	0.500	2.350
2020/01/31 01:00:00.2	101.630	-0.340	0.470	2.350
2020/01/31 01:00:00.3	101.640	-0.330	0.430	2.360
2020/01/31 01:00:00.4	101.650	-0.310	0.390	2.350
2020/01/31 01:00:00.5	101.660	-0.300	0.350	2.350
2020/01/31 01:00:00.6	101.670	-0.280	0.300	2.340
2020/01/31 01:00:00.7	101.680	-0.250	0.240	2.330
2020/01/31 01:00:00.8	101.690	-0.230	0.180	2.320
2020/01/31 01:00:00.9	101.700	-0.200	0.120	2.300
2020/01/31 01:00:01.0	101.710	-0.170	0.060	2.280
2020/01/31 01:00:01.1	101.720	-0.140	-0.010	2.260
2020/01/31 01:00:01.2	101.730	-0.110	-0.080	2.240
2020/01/31 01:00:01.3	101.740	-0.070	-0.150	2.220
2020/01/31 01:00:01.4	101.740	-0.040	-0.230	2.190
2020/01/31 01:00:01.5	101.750	0.000	-0.300	2.170
2020/01/31 01:00:01.6	101.750	0.040	-0.370	2.140
2020/01/31 01:00:01.7	101.750	0.080	-0.450	2.120
2020/01/31 01:00:01.8	101.760	0.110	-0.520	2.090
2020/01/31 01:00:01.9	101.760	0.150	-0.590	2.060
2020/01/31 01:00:02.0	101.770	0.190	-0.660	2.030
2020/01/31 01:00:02.1	101.770	0.220	-0.720	2.000
2020/01/31 01:00:02.2	101.770	0.250	-0.780	1.970
2020/01/31 01:00:02.3	101.770	0.290	-0.840	1.940
2020/01/31 01:00:02.4	101.770	0.320	-0.890	1.910
2020/01/31 01:00:02.5	101.760	0.340	-0.930	1.880
2020/01/31 01:00:02.6	101.760	0.370	-0.970	1.850
2020/01/31 01:00:02.7	101.760	0.390	-1.000	1.820
2020/01/31 01:00:02.8	101.760	0.410	-1.030	1.790
2020/01/31 01:00:02.9	101.760	0.430	-1.040	1.760
2020/01/31 01:00:03.0	101.750	0.440	-1.050	1.730
2020/01/31 01:00:03.1	101.750	0.450	-1.060	1.710
2020/01/31 01:00:03.2	101.750	0.460	-1.050	1.680
2020/01/31 01:00:03.3	101.750	0.470	-1.040	1.650
2020/01/31 01:00:03.4	101.750	0.470	-1.030	1.630
2020/01/31 01:00:03.5	101.740	0.460	-1.000	1.600
2020/01/31 01:00:03.6	101.740	0.460	-0.970	1.580
2020/01/31 01:00:03.7	101.740	0.450	-0.930	1.560
2020/01/31 01:00:03.8	101.740	0.430	-0.880	1.540
2020/01/31 01:00:03.9	101.740	0.420	-0.830	1.520
2020/01/31 01:00:04.0	101.730	0.400	-0.780	1.490
2020/01/31 01:00:04.1	101.730	0.380	-0.720	1.470
2020/01/31 01:00:04.2	101.730	0.360	-0.650	1.460
2020/01/31 01:00:04.3	101.720	0.330	-0.580	1.440
2020/01/31 01:00:04.4	101.720	0.300	-0.510	1.420
2020/01/31 01:00:04.5	101.710	0.270	-0.440	1.410
2020/01/31 01:00:04.6	101.700	0.240	-0.360	1.400
2020/01/31 01:00:04.7	101.690	0.210	-0.280	1.380
2020/01/31 01:00:04.8	101.680	0.180	-0.210	1.370
2020/01/31 01:00:04.9	101.670	0.140	-0.130	1.360
2020/01/31 01:00:05.0	101.650	0.110	-0.050	1.340
2020/01/31 01:00:05.1	101.640	0.070	0.020	1.330
2020/01/31 01:00:05.2	101.620	0.040	0.100	1.320
2020/01/31 01:00:05.3	101.610	0.000	0.170	1.310
2020/01/31 01:00:05.4	101.590	-0.030	0.240	1.300
2020/01/31 01:00:05.5	101.570	-0.060	0.300	1.290
2020/01/31 01:00:05.6	101.540	-0.090	0.360	1.280
2020/01/31 01:00:05.7	101.520	-0.130	0.420	1.260
2020/01/31 01:00:05.8	101.490	-0.150	0.470	1.250
2020/01/31 01:00:05.9	101.470	-0.180	0.520	1.230
2020/01/31 01:00:06.0	101.440	-0.210	0.570	1.220
2020/01/31 01:00:06.1	101.410	-0.230	0.610	1.200
2020/01/31 01:00:06.2	101.390	-0.260	0.640	1.180
2020/01/31 01:00:06.3	101.360	-0.280	0.670	1.160
2020/01/31 01:00:06.4	101.330	-0.300	0.700	1.140
2020/01/31 01:00:06.5	101.300	-0.320	0.720	1.120
2020/01/31 01:00:06.6	101.270	-0.330	0.730	1.090
2020/01/31 01:00:06.7	101.240	-0.340	0.740	1.070
2020/01/31 01:00:06.8	101.220	-0.360	0.740	1.040
2020/01/31 01:00:06.9	101.190	-0.370	0.740	1.010
2020/01/31 01:00:07.0	101.160	-0.370	0.740	0.980
2020/01/31 01:00:07.1	101.140	-0.380	0.720	0.940
2020/01/31 01:00:07.2	101.110	-0.380	0.710	0.910
2020/01/31 01:00:07.3	101.090	-0.390	0.680	0.870
2020/01/31 01:00:07.4	101.070	-0.390	0.660	0.840
2020/01/31 01:00:07.5	101.060	-0.380	0.630	0.800
2020/01/31 01:00:07.6	101.040	-0.380	0.590	0.760
2020/01/31 01:00:07.7	101.020	-0.380	0.550	0.730
2020/01/31 01:00:07.8	101.010	-0.370	0.510	0.690
2020/01/31 01:00:07.9	101.000	-0.360	0.460	0.650
2020/01/31 01:00:08.0	100.970	-0.350	0.410	0.610
2020/01/31 01:00:08.1	100.960	-0.340	0.350	0.580
2020/01/31 01:00:08.2	100.950	-0.330	0.300	0.540
2020/01/31 01:00:08.3	100.950	-0.310	0.240	0.510
2020/01/31 01:00:08.4	100.940	-0.300	0.170	0.470
2020/01/31 01:00:08.5	100.940	-0.280	0.110	0.440
2020/01/31 01:00:08.6	100.940	-0.260	0.040	0.410
2020/01/31 01:00:08.7	100.940	-0.240	-0.030	0.370
2020/01/31 01:00:08.8	100.940	-0.220	-0.100	0.340
2020/01/31 01:00:08.9	100.940	-0.200	-0.170	0.320
2020/01/31 01:00:09.0	100.940	-0.180	-0.240	0.290
2020/01/31 01:00:09.1	100.950	-0.160	-0.310	0.260
2020/01/31 01:00:09.2	100.950	-0.130	-0.390	0.230
2020/01/31 01:00:09.3	100.960	-0.110	-0.460	0.210
2020/01/31 01:00:09.4	100.970	-0.090	-0.530	0.190
2020/01/31 01:00:09.5	100.980	-0.060	-0.600	0.170
2020/01/31 01:00:09.6	100.990	-0.040	-0.670	0.150
2020/01/31 01:00:09.7	101.000	-0.010	-0.740	0.140
2020/01/31 01:00:09.8	101.010	0.010	-0.810	0.120
2020/01/31 01:00:09.9	101.020	0.040	-0.870	0.110
2020/01/31 01:00:10.0	101.060	0.060	-0.930	0.100
2020/01/31 01:00:10.1	101.070	0.080	-0.990	0.100
2020/01/31 01:00:10.2	101.080	0.110	-1.040	0.090
2020/01/31 01:00:10.3	101.100	0.130	-1.090	0.090
2020/01/31 01:00:10.4	101.110	0.150	-1.130	0.090
2020/01/31 01:00:10.5	101.130	0.170	-1.170	0.100
2020/01/31 01:00:10.6	101.140	0.190	-1.210	0.100
2020/01/31 01:00:10.7	101.160	0.210	-1.230	0.110
2020/01/31 01:00:10.8	101.170	0.230	-1.250	0.130
2020/01/31 01:00:10.9	101.190	0.240	-1.270	0.140
2020/01/31 01:00:11.0	101.200	0.260	-1.280	0.160
2020/01/31 01:00:11.1	101.210	0.270	-1.280	0.180
2020/01/31 01:00:11.2	101.220	0.280	-1.280	0.200
2020/01/31 01:00:11.3	101.230	0.290	-1.260	0.230
2020/01/31 01:00:11.4	101.240	0.300	-1.240	0.260
2020/01/31 01:00:11.5	101.250	0.300	-1.220	0.300
2020/01/31 01:00:11.6	101.260	0.300	-1.180	0.330
2020/01/31 01:00:11.7	101.270	0.300	-1.140	0.380
2020/01/31 01:00:11.8	101.270	0.300	-1.090	0.420
2020/01/31 01:00:11.9	101.270	0.290	-1.030	0.470
2020/01/31 01:00:12.0	101.280	0.290	-0.970	0.520
2020/01/31 01:00:12.1	101.280	0.280	-0.900	0.570
2020/01/31 01:00:12.2	101.280	0.260	-0.820	0.630
2020/01/31 01:00:12.3	101.270	0.250	-0.740	0.690
2020/01/31 01:00:12.4	101.260	0.230	-0.650	0.750
2020/01/31 01:00:12.5	101.260	0.210	-0.560	0.810
2020/01/31 01:00:12.6	101.250	0.190	-0.470	0.880
2020/01/31 01:00:12.7	101.230	0.170	-0.370	0.940
2020/01/31 01:00:12.8	101.220	0.140	-0.270	1.010
2020/01/31 01:00:12.9	101.200	0.110	-0.160	1.090
2020/01/31 01:00:13.0	101.190	0.080	-0.060	1.160
2020/01/31 01:00:13.1	101.170	0.050	0.050	1.230
2020/01/31 01:00:13.2	101.150	0.020	0.150	1.300
2020/01/31 01:00:13.3	101.130	-0.010	0.250	1.380
2020/01/31 01:00:13.4	101.100	-0.050	0.360	1.450
2020/01/31 01:00:13.5	101.080	-0.080	0.450	1.520
2020/01/31 01:00:13.6	101.050	-0.110	0.550	1.590
2020/01/31 01:00:13.7	101.030	-0.150	0.640	1.650
2020/01/31 01:00:13.8	101.000	-0.180	0.720	1.720
2020/01/31 01:00:13.9	100.980	-0.210	0.800	1.780
2020/01/31 01:00:14.0	100.940	-0.240	0.870	1.840
2020/01/31 01:00:14.1	100.910	-0.270	0.940	1.890
2020/01/31 01:00:14.2	100.890	-0.300	0.990	1.940
2020/01/31 01:00:14.3	100.860	-0.320	1.040	1.990
2020/01/31 01:00:14.4	100.840	-0.350	1.080	2.030
2020/01/31 01:00:14.5	100.810	-0.370	1.110	2.070
2020/01/31 01:00:14.6	100.790	-0.390	1.130	2.100
2020/01/31 01:00:14.7	100.770	-0.400	1.140	2.130
2020/01/31 01:00:14.8	100.740	-0.410	1.140	2.160
2020/01/31 01:00:14.9	100.720	-0.420	1.140	2.180
2020/01/31 01:00:15.0	100.710	-0.430	1.120	2.190
2020/01/31 01:00:15.1	100.690	-0.430	1.100	2.200
2020/01/31 01:00:15.2	100.670	-0.430	1.070	2.210
2020/01/31 01:00:15.3	100.660	-0.420	1.030	2.220
2020/01/31 01:00:15.4	100.640	-0.420	0.980	2.210
2020/01/31 01:00:15.5	100.630	-0.400	0.920	2.210
2020/01/31 01:00:15.6	100.620	-0.390	0.860	2.200
2020/01/31 01:00:15.7	100.610	-0.370	0.790	2.190
2020/01/31 01:00:15.8	100.600	-0.350	0.720	2.170
2020/01/31 01:00:15.9	100.590	-0.330	0.640	2.150
2020/01/31 01:00:16.0	100.600	-0.300	0.560	2.130
2020/01/31 01:00:16.1	100.600	-0.270	0.470	2.100
2020/01/31 01:00:16.2	100.590	-0.240	0.380	2.070
2020/01/31 01:00:16.3	100.590	-0.210	0.290	2.030
2020/01/31 01:00:16.4	100.590	-0.170	0.200	1.990
2020/01/31 01:00:16.5	100.600	-0.140	0.100	1.950
2020/01/31 01:00:16.6	100.600	-0.100	0.010	1.910
2020/01/31 01:00:16.7	100.600	-0.060	-0.090	1.870
2020/01/31 01:00:16.8	100.610	-0.020	-0.180	1.820
2020/01/31 01:00:16.9	100.610	0.020	-0.270	1.770
2020/01/31 01:00:17.0	100.600	0.060	-0.360	1.720
2020/01/31 01:00:17.1	100.610	0.100	-0.450	1.660
2020/01/31 01:00:17.2	100.610	0.140	-0.540	1.610
2020/01/31 01:00:17.3	100.620	0.180	-0.620	1.550
2020/01/31 01:00:17.4	100.630	0.210	-0.700	1.500
2020/01/31 01:00:17.5	100.640	0.250	-0.770	1.440
2020/01/31 01:00:17.6	100.650	0.280	-0.840	1.380
2020/01/31 01:00:17.7	100.660	0.310	-0.900	1.330
2020/01/31 01:00:17.8	100.670	0.340	-0.950	1.270
2020/01/31 01:00:17.9	100.680	0.370	-1.000	1.210
2020/01/31 01:00:18.0	100.700	0.400	-1.050	1.150
2020/01/31 01:00:18.1	100.710	0.420	-1.080	1.090
2020/01/31 01:00:18.2	100.720	0.440	-1.120	1.030
2020/01/31 01:00:18.3	100.730	0.460	-1.140	0.980
2020/01/31 01:00:18.4	100.740	0.470	-1.160	0.920
2020/01/31 01:00:18.5	100.750	0.480	-1.170	0.870
2020/01/31 01:00:18.6	100.770	0.490	-1.170	0.820
2020/01/31 01:00:18.7	100.780	0.500	-1.170	0.760
2020/01/31 01:00:18.8	100.790	0.500	-1.160	0.710
2020/01/31 01:00:18.9	100.800	0.500	-1.150	0.660
2020/01/31 01:00:19.0	100.830	0.500	-1.130	0.620
2020/01/31 01:00:19.1	100.840	0.490	-1.100	0.570
2020/01/31 01:00:19.2	100.860	0.480	-1.070	0.530
2020/01/31 01:00:19.3	100.870	0.470	-1.030	0.490
2020/01/31 01:00:19.4	100.880	0.460	-0.990	0.450
2020/01/31 01:00:19.5	100.890	0.440	-0.940	0.410
2020/01/31 01:00:19.6	100.890	0.420	-0.890	0.380
2020/01/31 01:00:19.7	100.900	0.400	-0.840	0.350
2020/01/31 01:00:19.8	100.910	0.380	-0.780	0.320
2020/01/31 01:00:19.9	100.910	0.350	-0.720	0.290
2020/01/31 01:00:20.0	100.900	0.330	-0.660	0.270
2020/01/31 01:00:20.1	100.910	0.300	-0.590	0.250
2020/01/31 01:00:20.2	100.910	0.270	-0.530	0.230
2020/01/31 01:00:20.3	100.910	0.240	-0.460	0.220
2020/01/31 01:00:20.4	100.910	0.210	-0.390	0.220
2020/01/31 01:00:20.5	100.910	0.180	-0.320	0.210
2020/01/31 01:00:20.6	100.900	0.150	-0.260	0.220
2020/01/31 01:00:20.7	100.900	0.110	-0.190	0.220
2020/01/31 01:00:20.8	100.890	0.080	-0.120	0.240
2020/01/31 01:00:20.9	100.880	0.050	-0.060	0.250
2020/01/31 01:00:21.0	100.860	0.020	0.010	0.270
2020/01/31 01:00:21.1	100.840	-0.020	0.070	0.300
2020/01/31 01:00:21.2	100.830	-0.050	0.130	0.330
2020/01/31 01:00:21.3	100.820	-0.080	0.190	0.370
2020/01/31 01:00:21.4	100.800	-0.110	0.240	0.410
2020/01/31 01:00:21.5	100.780	-0.140	0.300	0.460
2020/01/31 01:00:21.6	100.760	-0.170	0.340	0.500
2020/01/31 01:00:21.7	100.740	-0.200	0.390	0.560
2020/01/31 01:00:21.8	100.720	-0.230	0.430	0.610
2020/01/31 01:00:21.9	100.700	-0.250	0.460	0.670
2020/01/31 01:00:22.0	100.670	-0.270	0.490	0.740
2020/01/31 01:00:22.1	100.640	-0.300	0.520	0.800
2020/01/31 01:00:22.2	100.620	-0.320	0.540	0.870
2020/01/31 01:00:22.3	100.590	-0.340	0.550	0.930
2020/01/31 01:00:22.4	100.560	-0.350	0.570	1.000
2020/01/31 01:00:22.5	100.540	-0.370	0.570	1.070
2020/01/31 01:00:22.6	100.510	-0.380	0.580	1.130
2020/01/31 01:00:22.7	100.480	-0.390	0.580	1.200
2020/01/31 01:00:22.8	100.460	-0.400	0.570	1.270
2020/01/31 01:00:22.9	100.430	-0.410	0.560	1.330
2020/01/31 01:00:23.0	100.400	-0.410	0.540	1.390
2020/01/31 01:00:23.1	100.380	-0.420	0.530	1.450
2020/01/31 01:00:23.2	100.360	-0.420	0.500	1.500
2020/01/31 01:00:23.3	100.330	-0.420	0.480	1.550
2020/01/31 01:00:23.4	100.310	-0.410	0.450	1.600
2020/01/31 01:00:23.5	100.300	-0.410	0.410	1.650
2020/01/31 01:00:23.6	100.280	-0.400	0.370	1.690
2020/01/31 01:00:23.7	100.260	-0.390	0.330	1.730
2020/01/31 01:00:23.8	100.250	-0.380	0.290	1.760
2020/01/31 01:00:23.9	100.240	-0.370	0.240	1.780
2020/01/31 01:00:24.0	100.220	-0.350	0.190	1.800
2020/01/31 01:00:24.1	100.210	-0.340	0.140	1.820
2020/01/31 01:00:24.2	100.210	-0.320	0.090	1.830
2020/01/31 01:00:24.3	100.200	-0.300	0.030	1.840
2020/01/31 01:00:24.4	100.200	-0.280	-0.030	1.840
2020/01/31 01:00:24.5	100.200	-0.260	-0.080	1.840
2020/01/31 01:00:24.6	100.200	-0.230	-0.140	1.840
2020/01/31 01:00:24.7	100.210	-0.210	-0.200	1.830
2020/01/31 01:00:24.8	100.210	-0.180	-0.260	1.820
2020/01/31 01:00:24.9	100.210	-0.150	-0.320	1.810
2020/01/31 01:00:25.0	100.230	-0.130	-0.370	1.790
2020/01/31 01:00:25.1	100.230	-0.100	-0.430	1.770
2020/01/31 01:00:25.2	100.240	-0.070	-0.480	1.750
2020/01/31 01:00:25.3	100.250	-0.040	-0.530	1.730
2020/01/31 01:00:25.4	100.260	-0.010	-0.570	1.700
2020/01/31 01:00:25.5	100.270	0.010	-0.610	1.680
2020/01/31 01:00:25.6	100.280	0.040	-0.650	1.650
2020/01/31 01:00:25.7	100.290	0.070	-0.680	1.620
2020/01/31 01:00:25.8	100.300	0.090	-0.710	1.590
2020/01/31 01:00:25.9	100.320	0.120	-0.730	1.560
2020/01/31 01:00:26.0	100.340	0.140	-0.750	1.530
2020/01/31 01:00:26.1	100.350	0.160	-0.760	1.490
2020/01/31 01:00:26.2	100.370	0.190	-0.770	1.460
2020/01/31 01:00:26.3	100.380	0.200	-0.770	1.430
2020/01/31 01:00:26.4	100.400	0.220	-0.760	1.400
2020/01/31 01:00:26.5	100.410	0.240	-0.750	1.360
2020/01/31 01:00:26.6	100.430	0.250	-0.730	1.330
2020/01/31 01:00:26.7	100.440	0.260	-0.710	1.300
2020/01/31 01:00:26.8	100.450	0.270	-0.680	1.270
2020/01/31 01:00:26.9	100.470	0.270	-0.650	1.240
2020/01/31 01:00:27.0	100.470	0.280	-0.610	1.210
2020/01/31 01:00:27.1	100.480	0.280	-0.570	1.180
2020/01/31 01:00:27.2	100.490	0.280	-0.520	1.150
2020/01/31 01:00:27.3	100.500	0.280	-0.480	1.120
2020/01/31 01:00:27.4	100.510	0.270	-0.420	1.100
2020/01/31 01:00:27.5	100.520	0.260	-0.370	1.070
2020/01/31 01:00:27.6	100.530	0.250	-0.320	1.050
2020/01/31 01:00:27.7	100.540	0.240	-0.260	1.030
2020/01/31 01:00:27.8	100.540	0.230	-0.200	1.010
2020/01/31 01:00:27.9	100.540	0.210	-0.140	1.000
2020/01/31 01:00:28.0	100.540	0.190	-0.080	0.980
2020/01/31 01:00:28.1	100.540	0.180	-0.030	0.970
2020/01/31 01:00:28.2	100.540	0.160	0.030	0.960
2020/01/31 01:00:28.3	100.530	0.140	0.090	0.940
2020/01/31 01:00:28.4	100.530	0.120	0.140	0.940
2020/01/31 01:00:28.5	100.520	0.090	0.190	0.930
2020/01/31 01:00:28.6	100.510	0.070	0.240	0.920
2020/01/31 01:00:28.7	100.510	0.050	0.280	0.920
2020/01/31 01:00:28.8	100.490	0.030	0.320	0.920
2020/01/31 01:00:28.9	100.480	0.000	0.360	0.920
2020/01/31 01:00:29.0	100.460	-0.020	0.400	0.920
2020/01/31 01:00:29.1	100.450	-0.040	0.430	0.920
2020/01/31 01:00:29.2	100.430	-0.060	0.450	0.920
2020/01/31 01:00:29.3	100.420	-0.080	0.470	0.930
2020/01/31 01:00:29.4	100.400	-0.100	0.490	0.930
2020/01/31 01:00:29.5	100.380	-0.120	0.500	0.940
2020/01/31 01:00:29.6	100.360	-0.140	0.510	0.940
2020/01/31 01:00:29.7	100.340	-0.150	0.510	0.950
2020/01/31 01:00:29.8	100.320	-0.170	0.510	0.960
2020/01/31 01:00:29.9	100.300	-0.180	0.500	0.970
2020/01/31 01:00:30.0	100.280	-0.190	0.490	0.970
2020/01/31 01:00:30.1	100.260	-0.200	0.470	0.980
2020/01/31 01:00:30.2	100.230	-0.200	0.450	0.990
2020/01/31 01:00:30.3	100.210	-0.210	0.420	1.000
2020/01/31 01:00:30.4	100.190	-0.210	0.390	1.010
2020/01/31 01:00:30.5	100.170	-0.210	0.350	1.030
2020/01/31 01:00:30.6	100.150	-0.200	0.310	1.040
2020/01/31 01:00:30.7	100.130	-0.200	0.260	1.050
2020/01/31 01:00:30.8	100.110	-0.190	0.210	1.060
2020/01/31 01:00:30.9	100.090	-0.180	0.150	1.070
2020/01/31 01:00:31.0	100.060	-0.160	0.100	1.080
2020/01/31 01:00:31.1	100.040	-0.150	0.040	1.090
2020/01/31 01:00:31.2	100.020	-0.130	-0.030	1.100
2020/01/31 01:00:31.3	100.000	-0.110	-0.100	1.100
2020/01/31 01:00:31.4	99.980	-0.090	-0.170	1.110
2020/01/31 01:00:31.5	99.970	-0.070	-0.240	1.120
2020/01/31 01:00:31.6	99.950	-0.040	-0.310	1.130
2020/01/31 01:00:31.7	99.930	-0.020	-0.380	1.130
2020/01/31 01:00:31.8	99.920	0.010	-0.450	1.140
2020/01/31 01:00:31.9	99.910	0.040	-0.520	1.140
2020/01/31 01:00:32.0	99.890	0.060	-0.580	1.150
2020/01/31 01:00:32.1	99.880	0.090	-0.650	1.150
2020/01/31 01:00:32.2	99.870	0.120	-0.710	1.160
2020/01/31 01:00:32.3	99.860	0.150	-0.770	1.160
2020/01/31 01:00:32.4	99.850	0.180	-0.830	1.160
2020/01/31 01:00:32.5	99.840	0.210	-0.880	1.170
2020/01/31 01:00:32.6	99.830	0.230	-0.930	1.170
2020/01/31 01:00:32.7	99.820	0.260	-0.970	1.170
2020/01/31 01:00:32.8	99.820	0.280	-1.010	1.180
2020/01/31 01:00:32.9	99.810	0.300	-1.040	1.180
2020/01/31 01:00:33.0	99.810	0.330	-1.060	1.180
2020/01/31 01:00:33.1	99.810	0.340	-1.080	1.180
2020/01/31 01:00:33.2	99.800	0.360	-1.100	1.190
2020/01/31 01:00:33.3	99.790	0.370	-1.100	1.200
2020/01/31 01:00:33.4	99.780	0.380	-1.100	1.200
2020/01/31 01:00:33.5	99.780	0.390	-1.100	1.210
2020/01/31 01:00:33.6	99.770	0.400	-1.080	1.210
2020/01/31 01:00:33.7	99.770	0.400	-1.070	1.220
2020/01/31 01:00:33.8	99.760	0.400	-1.040	1.220
2020/01/31 01:00:33.9	99.750	0.400	-1.010	1.230
2020/01/31 01:00:34.0	99.760	0.390	-0.960	1.240
2020/01/31 01:00:34.1	99.760	0.380	-0.920	1.240
2020/01/31 01:00:34.2	99.750	0.370	-0.870	1.240
2020/01/31 01:00:34.3	99.750	0.350	-0.820	1.240
2020/01/31 01:00:34.4	99.750	0.330	-0.760	1.240
2020/01/31 01:00:34.5	99.750	0.310	-0.690	1.230
2020/01/31 01:00:34.6	99.750	0.290	-0.620	1.230
2020/01/31 01:00:34.7	99.750	0.260	-0.550	1.220
2020/01/31 01:00:34.8	99.750	0.230	-0.480	1.220
2020/01/31 01:00:34.9	99.750	0.200	-0.400	1.210
2020/01/31 01:00:35.0	99.750	0.170	-0.320	1.200
2020/01/31 01:00:35.1	99.750	0.140	-0.240	1.190
2020/01/31 01:00:35.2	99.750	0.110	-0.160	1.180
2020/01/31 01:00:35.3	99.760	0.070	-0.080	1.180
2020/01/31 01:00:35.4	99.760	0.040	-0.000	1.170
2020/01/31 01:00:35.5	99.760	0.000	0.070	1.160
2020/01/31 01:00:35.6	99.760	-0.030	0.150	1.150
2020/01/31 01:00:35.7	99.770	-0.070	0.220	1.140
2020/01/31 01:00:35.8	99.770	-0.100	0.290	1.130
2020/01/31 01:00:35.9	99.770	-0.130	0.360	1.120
2020/01/31 01:00:36.0	99.780	-0.160	0.420	1.110
2020/01/31 01:00:36.1	99.780	-0.190	0.480	1.110
2020/01/31 01:00:36.2	99.780	-0.220	0.530	1.100
2020/01/31 01:00:36.3	99.780	-0.250	0.580	1.100
2020/01/31 01:00:36.4	99.780	-0.280	0.620	1.090
2020/01/31 01:00:36.5	99.780	-0.300	0.660	1.090
2020/01/31 01:00:36.6	99.780	-0.320	0.690	1.090
2020/01/31 01:00:36.7	99.780	-0.340	0.720	1.090
2020/01/31 01:00:36.8	99.770	-0.360	0.740	1.090
2020/01/31 01:00:36.9	99.770	-0.370	0.750	1.090
2020/01/31 01:00:37.0	99.760	-0.380	0.760	1.090
2020/01/31 01:00:37.1	99.750	-0.390	0.770	1.100
2020/01/31 01:00:37.2	99.750	-0.400	0.760	1.100
2020/01/31 01:00:37.3	99.750	-0.400	0.760	1.100
2020/01/31 01:00:37.4	99.740	-0.410	0.750	1.100
2020/01/31 01:00:37.5	99.740	-0.410	0.730	1.110
2020/01/31 01:00:37.6	99.740	-0.400	0.710	1.110
2020/01/31 01:00:37.7	99.730	-0.400	0.690	1.110
2020/01/31 01:00:37.8	99.730	-0.390	0.660	1.110
2020/01/31 01:00:37.9	99.730	-0.380	0.630	1.120
2020/01/31 01:00:38.0	99.710	-0.370	0.590	1.110
2020/01/31 01:00:38.1	99.710	-0.360	0.550	1.110
2020/01/31 01:00:38.2	99.710	-0.340	0.510	1.110
2020/01/31 01:00:38.3	99.700	-0.330	0.470	1.110
2020/01/31 01:00:38.4	99.700	-0.310	0.430	1.110
2020/01/31 01:00:38.5	99.690	-0.290	0.380	1.110
2020/01/31 01:00:38.6	99.690	-0.270	0.340	1.110
2020/01/31 01:00:38.7	99.680	-0.250	0.290	1.110
2020/01/31 01:00:38.8	99.670	-0.230	0.240	1.110
2020/01/31 01:00:38.9	99.670	-0.210	0.190	1.100
2020/01/31 01:00:39.0	99.650	-0.190	0.140	1.110
2020/01/31 01:00:39.1	99.640	-0.170	0.090	1.100
2020/01/31 01:00:39.2	99.640	-0.150	0.040	1.100
2020/01/31 01:00:39.3	99.630	-0.130	-0.010	1.100
2020/01/31 01:00:39.4	99.620	-0.110	-0.060	1.100
2020/01/31 01:00:39.5	99.610	-0.090	-0.110	1.100
2020/01/31 01:00:39.6	99.600	-0.060	-0.160	1.100
2020/01/31 01:00:39.7	99.590	-0.040	-0.210	1.100
2020/01/31 01:00:39.8	99.580	-0.020	-0.250	1.110
2020/01/31 01:00:39.9	99.570	-0.010	-0.300	1.110
2020/01/31 01:00:40.0	99.550	0.010	-0.350	1.110
2020/01/31 01:00:40.1	99.540	0.030	-0.390	1.110
2020/01/31 01:00:40.2	99.530	0.050	-0.430	1.120
2020/01/31 01:00:40.3	99.520	0.070	-0.470	1.120
2020/01/31 01:00:40.4	99.510	0.080	-0.510	1.130
2020/01/31 01:00:40.5	99.500	0.100	-0.550	1.140
2020/01/31 01:00:40.6	99.490	0.110	-0.580	1.140
2020/01/31 01:00:40.7	99.480	0.120	-0.610	1.150
2020/01/31 01:00:40.8	99.480	0.140	-0.640	1.150
2020/01/31 01:00:40.9	99.470	0.150	-0.670	1.150
2020/01/31 01:00:41.0	99.460	0.160	-0.690	1.160
2020/01/31 01:00:41.1	99.460	0.170	-0.710	1.160
2020/01/31 01:00:41.2	99.460	0.180	-0.740	1.160
2020/01/31 01:00:41.3	99.460	0.190	-0.750	1.160
2020/01/31 01:00:41.4	99.450	0.200	-0.770	1.160
2020/01/31 01:00:41.5	99.450	0.210	-0.780	1.150
2020/01/31 01:00:41.6	99.450	0.220	-0.790	1.150
2020/01/31 01:00:41.7	99.460	0.230	-0.800	1.140
2020/01/31 01:00:41.8	99.460	0.240	-0.810	1.140
2020/01/31 01:00:41.9	99.460	0.240	-0.810	1.130
2020/01/31 01:00:42.0	99.470	0.250	-0.810	1.120
2020/01/31 01:00:42.1	99.470	0.250	-0.810	1.110
2020/01/31 01:00:42.2	99.470	0.260	-0.810	1.110
2020/01/31 01:00:42.3	99.480	0.260	-0.800	1.100
2020/01/31 01:00:42.4	99.480	0.270	-0.790	1.090
2020/01/31 01:00:42.5	99.480	0.270	-0.770	1.080
2020/01/31 01:00:42.6	99.480	0.270	-0.760	1.080
2020/01/31 01:00:42.7	99.490	0.270	-0.740	1.070
2020/01/31 01:00:42.8	99.490	0.270	-0.710	1.060
2020/01/31 01:00:42.9	99.490	0.260	-0.690	1.060
2020/01/31 01:00:43.0	99.500	0.260	-0.660	1.060
2020/01/31 01:00:43.1	99.500	0.250	-0.630	1.060
2020/01/31 01:00:43.2	99.500	0.250	-0.590	1.060
2020/01/31 01:00:43.3	99.500	0.240	-0.550	1.060
2020/01/31 01:00:43.4	99.500	0.230	-0.510	1.060
2020/01/31 01:00:43.5	99.500	0.210	-0.470	1.070
2020/01/31 01:00:43.6	99.490	0.200	-0.420	1.080
2020/01/31 01:00:43.7	99.490	0.190	-0.370	1.090
2020/01/31 01:00:43.8	99.480	0.170	-0.320	1.100
2020/01/31 01:00:43.9	99.470	0.150	-0.270	1.110
2020/01/31 01:00:44.0	99.460	0.130	-0.210	1.130
2020/01/31 01:00:44.1	99.460	0.110	-0.160	1.140
2020/01/31 01:00:44.2	99.450	0.090	-0.100	1.160
2020/01/31 01:00:44.3	99.440	0.060	-0.050	1.170
2020/01/31 01:00:44.4	99.430	0.040	0.010	1.190
2020/01/31 01:00:44.5	99.410	0.010	0.060	1.210
2020/01/31 01:00:44.6	99.400	-0.020	0.110	1.220
2020/01/31 01:00:44.7	99.390	-0.040	0.170	1.240
2020/01/31 01:00:44.8	99.380	-0.070	0.220	1.260
2020/01/31 01:00:44.9	99.360	-0.100	0.260	1.280
2020/01/31 01:00:45.0	99.350	-0.130	0.310	1.290
2020/01/31 01:00:45.1	99.330	-0.160	0.350	1.310
2020/01/31 01:00:45.2	99.320	-0.190	0.390	1.330
2020/01/31 01:00:45.3	99.310	-0.220	0.430	1.340
2020/01/31 01:00:45.4	99.290	-0.250	0.460	1.360
2020/01/31 01:00:45.5	99.280	-0.270	0.490	1.380
2020/01/31 01:00:45.6	99.270	-0.300	0.510	1.400
2020/01/31 01:00:45.7	99.250	-0.320	0.530	1.410
2020/01/31 01:00:45.8	99.240	-0.350	0.550	1.430
2020/01/31 01:00:45.9	99.230	-0.370	0.560	1.450
2020/01/31 01:00:46.0	99.210	-0.390	0.560	1.470
2020/01/31 01:00:46.1	99.200	-0.410	0.560	1.490
2020/01/31 01:00:46.2	99.190	-0.430	0.560	1.500
2020/01/31 01:00:46.3	99.170	-0.440	0.550	1.520
2020/01/31 01:00:46.4	99.160	-0.450	0.530	1.530
2020/01/31 01:00:46.5	99.140	-0.460	0.510	1.550
2020/01/31 01:00:46.6	99.130	-0.470	0.480	1.560
2020/01/31 01:00:46.7	99.120	-0.470	0.450	1.580
2020/01/31 01:00:46.8	99.110	-0.470	0.410	1.590
2020/01/31 01:00:46.9	99.090	-0.470	0.370	1.600
2020/01/31 01:00:47.0	99.090	-0.460	0.330	1.600
2020/01/31 01:00:47.1	99.080	-0.450	0.280	1.610
2020/01/31 01:00:47.2	99.070	-0.440	0.220	1.610
2020/01/31 01:00:47.3	99.060	-0.420	0.170	1.610
2020/01/31 01:00:47.4	99.050	-0.410	0.110	1.610
2020/01/31 01:00:47.5	99.040	-0.390	0.050	1.610
2020/01/31 01:00:47.6	99.030	-0.360	-0.010	1.610
2020/01/31 01:00:47.7	99.020	-0.330	-0.070	1.600
2020/01/31 01:00:47.8	99.020	-0.310	-0.130	1.590
2020/01/31 01:00:47.9	99.010	-0.270	-0.190	1.580
2020/01/31 01:00:48.0	99.020	-0.240	-0.260	1.560
2020/01/31 01:00:48.1	99.020	-0.200	-0.320	1.550
2020/01/31 01:00:48.2	99.010	-0.170	-0.370	1.520
2020/01/31 01:00:48.3	99.010	-0.130	-0.430	1.500
2020/01/31 01:00:48.4	99.020	-0.090	-0.480	1.470
2020/01/31 01:00:48.5	99.020	-0.050	-0.540	1.440
2020/01/31 01:00:48.6	99.020	-0.010	-0.580	1.410
2020/01/31 01:00:48.7	99.030	0.030	-0.630	1.370
2020/01/31 01:00:48.8	99.040	0.070	-0.670	1.330
2020/01/31 01:00:48.9	99.040	0.110	-0.710	1.290
2020/01/31 01:00:49.0	99.050	0.150	-0.740	1.240
2020/01/31 01:00:49.1	99.060	0.190	-0.760	1.200
2020/01/31 01:00:49.2	99.070	0.230	-0.790	1.150
2020/01/31 01:00:49.3	99.090	0.260	-0.800	1.110
2020/01/31 01:00:49.4	99.100	0.300	-0.810	1.060
2020/01/31 01:00:49.5	99.120	0.330	-0.820	1.010
2020/01/31 01:00:49.6	99.140	0.360	-0.820	0.960
2020/01/31 01:00:49.7	99.160	0.390	-0.820	0.920
2020/01/31 01:00:49.8	99.180	0.410	-0.810	0.870
2020/01/31 01:00:49.9	99.200	0.430	-0.800	0.830
2020/01/31 01:00:50.0	99.220	0.450	-0.780	0.790
2020/01/31 01:00:50.1	99.240	0.470	-0.760	0.740
2020/01/31 01:00:50.2	99.260	0.480	-0.740	0.710
2020/01/31 01:00:50.3	99.270	0.500	-0.710	0.670
2020/01/31 01:00:50.4	99.290	0.500	-0.680	0.640
2020/01/31 01:00:50.5	99.310	0.510	-0.650	0.610
2020/01/31 01:00:50.6	99.320	0.510	-0.610	0.580
2020/01/31 01:00:50.7	99.340	0.520	-0.580	0.560
2020/01/31 01:00:50.8	99.350	0.520	-0.540	0.550
2020/01/31 01:00:50.9	99.360	0.510	-0.500	0.530
2020/01/31 01:00:51.0	99.370	0.510	-0.460	0.520
2020/01/31 01:00:51.1	99.380	0.500	-0.410	0.520
2020/01/31 01:00:51.2	99.380	0.490	-0.370	0.510
2020/01/31 01:00:51.3	99.390	0.480	-0.330	0.520
2020/01/31 01:00:51.4	99.390	0.460	-0.290	0.530
2020/01/31 01:00:51.5	99.400	0.450	-0.250	0.540
2020/01/31 01:00:51.6	99.400	0.430	-0.210	0.550
2020/01/31 01:00:51.7	99.400	0.410	-0.170	0.580
2020/01/31 01:00:51.8	99.400	0.390	-0.130	0.600
2020/01/31 01:00:51.9	99.390	0.370	-0.100	0.620
2020/01/31 01:00:52.0	99.390	0.340	-0.060	0.650
2020/01/31 01:00:52.1	99.380	0.320	-0.020	0.680
2020/01/31 01:00:52.2	99.370	0.290	0.010	0.720
2020/01/31 01:00:52.3	99.360	0.270	0.040	0.750
2020/01/31 01:00:52.4	99.350	0.240	0.070	0.790
2020/01/31 01:00:52.5	99.340	0.210	0.100	0.830
2020/01/31 01:00:52.6	99.330	0.180	0.130	0.860
2020/01/31 01:00:52.7	99.310	0.150	0.160	0.900
2020/01/31 01:00:52.8	99.300	0.120	0.180	0.940
2020/01/31 01:00:52.9	99.280	0.090	0.200	0.980
2020/01/31 01:00:53.0	99.250	0.060	0.230	1.010
2020/01/31 01:00:53.1	99.230	0.030	0.250	1.050
2020/01/31 01:00:53.2	99.210	-0.000	0.270	1.080
2020/01/31 01:00:53.3	99.190	-0.030	0.280	1.110
2020/01/31 01:00:53.4	99.160	-0.070	0.300	1.150
2020/01/31 01:00:53.5	99.140	-0.100	0.310	1.180
2020/01/31 01:00:53.6	99.120	-0.130	0.330	1.210
2020/01/31 01:00:53.7	99.100	-0.160	0.340	1.230
2020/01/31 01:00:53.8	99.070	-0.200	0.350	1.260
2020/01/31 01:00:53.9	99.050	-0.230	0.360	1.280
2020/01/31 01:00:54.0	99.030	-0.260	0.370	1.300
2020/01/31 01:00:54.1	99.000	-0.290	0.380	1.330
2020/01/31 01:00:54.2	98.980	-0.320	0.390	1.350
2020/01/31 01:00:54.3	98.960	-0.350	0.390	1.370
2020/01/31 01:00:54.4	98.940	-0.380	0.400	1.380
2020/01/31 01:00:54.5	98.930	-0.410	0.400	1.400
2020/01/31 01:00:54.6	98.910	-0.430	0.410	1.420
2020/01/31 01:00:54.7	98.890	-0.460	0.410	1.430
2020/01/31 01:00:54.8	98.880	-0.480	0.410	1.450
2020/01/31 01:00:54.9	98.860	-0.500	0.410	1.460
2020/01/31 01:00:55.0	98.830	-0.520	0.400	1.480
2020/01/31 01:00:55.1	98.820	-0.540	0.400	1.490
2020/01/31 01:00:55.2	98.810	-0.560	0.390	1.500
2020/01/31 01:00:55.3	98.800	-0.570	0.380	1.520
2020/01/31 01:00:55.4	98.790	-0.590	0.370	1.530
2020/01/31 01:00:55.5	98.780	-0.600	0.360	1.550
2020/01/31 01:00:55.6	98.770	-0.600	0.350	1.560
2020/01/31 01:00:55.7	98.760	-0.610	0.330	1.570
2020/01/31 01:00:55.8	98.760	-0.610	0.310	1.590
2020/01/31 01:00:55.9	98.750	-0.610	0.290	1.600
2020/01/31 01:00:56.0	98.760	-0.610	0.260	1.610
2020/01/31 01:00:56.1	98.760	-0.600	0.230	1.620
2020/01/31 01:00:56.2	98.760	-0.590	0.200	1.630
2020/01/31 01:00:56.3	98.760	-0.580	0.170	1.640
2020/01/31 01:00:56.4	98.760	-0.570	0.130	1.650
2020/01/31 01:00:56.5	98.770	-0.550	0.090	1.660
2020/01/31 01:00:56.6	98.770	-0.530	0.050	1.660
2020/01/31 01:00:56.7	98.790	-0.510	0.010	1.660
2020/01/31 01:00:56.8	98.800	-0.490	-0.040	1.660
2020/01/31 01:00:56.9	98.810	-0.460	-0.090	1.660
2020/01/31 01:00:57.0	98.820	-0.430	-0.140	1.650
2020/01/31 01:00:57.1	98.840	-0.400	-0.190	1.640
2020/01/31 01:00:57.2	98.860	-0.370	-0.250	1.620
2020/01/31 01:00:57.3	98.880	-0.330	-0.300	1.610
2020/01/31 01:00:57.4	98.910	-0.290	-0.360	1.590
2020/01/31 01:00:57.5	98.940	-0.250	-0.420	1.560
2020/01/31 01:00:57.6	98.970	-0.210	-0.470	1.540
2020/01/31 01:00:57.7	99.000	-0.170	-0.530	1.510
2020/01/31 01:00:57.8	99.040	-0.120	-0.590	1.480
2020/01/31 01:00:57.9	99.070	-0.080	-0.640	1.450
2020/01/31 01:00:58.0	99.120	-0.030	-0.700	1.420
2020/01/31 01:00:58.1	99.150	0.020	-0.750	1.380
2020/01/31 01:00:58.2	99.180	0.070	-0.800	1.350
2020/01/31 01:00:58.3	99.220	0.120	-0.840	1.310
2020/01/31 01:00:58.4	99.250	0.160	-0.890	1.280
2020/01/31 01:00:58.5	99.280	0.210	-0.930	1.250
2020/01/31 01:00:58.6	99.300	0.260	-0.960	1.210
2020/01/31 01:00:58.7	99.330	0.310	-0.990	1.180
2020/01/31 01:00:58.8	99.350	0.350	-1.020	1.160
2020/01/31 01:00:58.9	99.370	0.400	-1.040	1.130
2020/01/31 01:00:59.0	99.390	0.440	-1.060	1.100
2020/01/31 01:00:59.1	99.410	0.480	-1.070	1.080
2020/01/31 01:00:59.2	99.420	0.520	-1.080	1.060
2020/01/31 01:00:59.3	99.430	0.560	-1.080	1.040
2020/01/31 01:00:59.4	99.430	0.600	-1.070	1.020
2020/01/31 01:00:59.5	99.430	0.630	-1.060	1.000
2020/01/31 01:00:59.6	99.430	0.660	-1.050	0.990
2020/01/31 01:00:59.7	99.430	0.680	-1.030	0.970
2020/01/31 01:00:59.8	99.420	0.710	-1.000	0.960
2020/01/31 01:00:59.9	99.410	0.730	-0.970	0.950
2020/01/31 01:01:00.0	99.400	0.740	-0.930	0.940
2020/01/31 01:01:00.1	99.390	0.750	-0.890	0.930
2020/01/31 01:01:00.2	99.370	0.760	-0.850	0.920
2020/01/31 01:01:00.3	99.350	0.760	-0.800	0.920
2020/01/31 01:01:00.4	99.330	0.760	-0.750	0.920
2020/01/31 01:01:00.5	99.300	0.760	-0.690	0.910
2020/01/31 01:01:00.6	99.270	0.750	-0.630	0.910
2020/01/31 01:01:00.7	99.250	0.740	-0.570	0.920
2020/01/31 01:01:00.8	99.210	0.730	-0.500	0.920
2020/01/31 01:01:00.9	99.180	0.710	-0.430	0.920
2020/01/31 01:01:01.0	99.130	0.680	-0.350	0.930
2020/01/31 01:01:01.1	99.100	0.660	-0.280	0.940
2020/01/31 01:01:01.2	99.060	0.630	-0.210	0.950
2020/01/31 01:01:01.3	99.030	0.590	-0.130	0.960
2020/01/31 01:01:01.4	98.990	0.550	-0.050	0.970
2020/01/31 01:01:01.5	98.950	0.510	0.020	0.990
2020/01/31 01:01:01.6	98.910	0.470	0.100	1.000
2020/01/31 01:01:01.7	98.880	0.430	0.180	1.020
2020/01/31 01:01:01.8	98.840	0.380	0.250	1.040
2020/01/31 01:01:01.9	98.810	0.330	0.320	1.060
2020/01/31 01:01:02.0	98.770	0.280	0.400	1.070
2020/01/31 01:01:02.1	98.730	0.230	0.470	1.090
2020/01/31 01:01:02.2	98.700	0.170	0.530	1.110
2020/01/31 01:01:02.3	98.670	0.120	0.590	1.130
2020/01/31 01:01:02.4	98.650	0.060	0.650	1.150
2020/01/31 01:01:02.5	98.620	0.010	0.710	1.170
2020/01/31 01:01:02.6	98.600	-0.050	0.760	1.190
2020/01/31 01:01:02.7	98.580	-0.100	0.800	1.200
2020/01/31 01:01:02.8	98.560	-0.150	0.840	1.220
2020/01/31 01:01:02.9	98.540	-0.210	0.870	1.230
2020/01/31 01:01:03.0	98.540	-0.260	0.900	1.240
2020/01/31 01:01:03.1	98.530	-0.310	0.920	1.260
2020/01/31 01:01:03.2	98.520	-0.350	0.940	1.260
2020/01/31 01:01:03.3	98.520	-0.400	0.940	1.270
2020/01/31 01:01:03.4	98.510	-0.440	0.940	1.280
2020/01/31 01:01:03.5	98.510	-0.470	0.930	1.280
2020/01/31 01:01:03.6	98.510	-0.510	0.920	1.280
2020/01/31 01:01:03.7	98.510	-0.540	0.890	1.280
2020/01/31 01:01:03.8	98.520	-0.570	0.860	1.280
2020/01/31 01:01:03.9	98.520	-0.590	0.830	1.270
2020/01/31 01:01:04.0	98.520	-0.610	0.780	1.260
2020/01/31 01:01:04.1	98.530	-0.620	0.730	1.260
2020/01/31 01:01:04.2	98.540	-0.640	0.670	1.250
2020/01/31 01:01:04.3	98.550	-0.640	0.610	1.230
2020/01/31 01:01:04.4	98.560	-0.640	0.540	1.220
2020/01/31 01:01:04.5	98.580	-0.640	0.470	1.200
2020/01/31 01:01:04.6	98.600	-0.630	0.390	1.190
2020/01/31 01:01:04.7	98.620	-0.620	0.310	1.170
2020/01/31 01:01:04.8	98.640	-0.600	0.220	1.150
2020/01/31 01:01:04.9	98.660	-0.580	0.130	1.130
2020/01/31 01:01:05.0	98.690	-0.560	0.050	1.100
2020/01/31 01:01:05.1	98.720	-0.530	-0.040	1.080
2020/01/31 01:01:05.2	98.740	-0.500	-0.140	1.060
2020/01/31 01:01:05.3	98.770	-0.470	-0.230	1.030
2020/01/31 01:01:05.4	98.800	-0.430	-0.320	1.010
2020/01/31 01:01:05.5	98.830	-0.390	-0.410	0.980
2020/01/31 01:01:05.6	98.860	-0.350	-0.500	0.950
2020/01/31 01:01:05.7	98.890	-0.310	-0.590	0.930
2020/01/31 01:01:05.8	98.920	-0.260	-0.670	0.910
2020/01/31 01:01:05.9	98.950	-0.220	-0.750	0.880
2020/01/31 01:01:06.0	99.000	-0.170	-0.830	0.860
2020/01/31 01:01:06.1	99.030	-0.130	-0.900	0.840
2020/01/31 01:01:06.2	99.060	-0.080	-0.970	0.820
2020/01/31 01:01:06.3	99.090	-0.040	-1.030	0.810
2020/01/31 01:01:06.4	99.120	0.010	-1.090	0.800
2020/01/31 01:01:06.5	99.140	0.050	-1.140	0.790
2020/01/31 01:01:06.6	99.170	0.090	-1.180	0.780
2020/01/31 01:01:06.7	99.190	0.130	-1.210	0.780
2020/01/31 01:01:06.8	99.200	0.170	-1.240	0.790
2020/01/31 01:01:06.9	99.220	0.200	-1.260	0.790
2020/01/31 01:01:07.0	99.240	0.240	-1.270	0.810
2020/01/31 01:01:07.1	99.250	0.260	-1.280	0.830
2020/01/31 01:01:07.2	99.250	0.290	-1.270	0.850
2020/01/31 01:01:07.3	99.250	0.310	-1.260	0.870
2020/01/31 01:01:07.4	99.260	0.330	-1.240	0.900
2020/01/31 01:01:07.5	99.250	0.340	-1.210	0.930
2020/01/31 01:01:07.6	99.250	0.350	-1.170	0.970
2020/01/31 01:01:07.7	99.240	0.350	-1.120	1.010
2020/01/31 01:01:07.8	99.230	0.350	-1.070	1.050
2020/01/31 01:01:07.9	99.220	0.350	-1.010	1.100
2020/01/31 01:01:08.0	99.200	0.340	-0.940	1.140
2020/01/31 01:01:08.1	99.190	0.330	-0.860	1.190
2020/01/31 01:01:08.2	99.170	0.310	-0.790	1.250
2020/01/31 01:01:08.3	99.160	0.290	-0.700	1.300
2020/01/31 01:01:08.4	99.140	0.270	-0.610	1.360
2020/01/31 01:01:08.5	99.120	0.240	-0.510	1.410
2020/01/31 01:01:08.6	99.100	0.210	-0.420	1.470
2020/01/31 01:01:08.7	99.070	0.180	-0.320	1.520
2020/01/31 01:01:08.8	99.050	0.150	-0.220	1.580
2020/01/31 01:01:08.9	99.030	0.110	-0.120	1.630
2020/01/31 01:01:09.0	98.990	0.080	-0.010	1.680
2020/01/31 01:01:09.1	98.960	0.040	0.090	1.730
2020/01/31 01:01:09.2	98.940	-0.000	0.190	1.780
2020/01/31 01:01:09.3	98.910	-0.040	0.280	1.820
2020/01/31 01:01:09.4	98.890	-0.080	0.380	1.870
2020/01/31 01:01:09.5	98.860	-0.120	0.470	1.900
2020/01/31 01:01:09.6	98.840	-0.160	0.550	1.940
2020/01/31 01:01:09.7	98.810	-0.190	0.630	1.970
2020/01/31 01:01:09.8	98.790	-0.230	0.700	2.000
2020/01/31 01:01:09.9	98.770	-0.260	0.770	2.020
2020/01/31 01:01:10.0	98.730	-0.300	0.830	2.030
2020/01/31 01:01:10.1	98.710	-0.330	0.890	2.040
2020/01/31 01:01:10.2	98.690	-0.350	0.930	2.050
2020/01/31 01:01:10.3	98.670	-0.380	0.970	2.060
2020/01/31 01:01:10.4	98.650	-0.400	1.000	2.050
2020/01/31 01:01:10.5	98.630	-0.420	1.030	2.050
2020/01/31 01:01:10.6	98.610	-0.430	1.040	2.040
2020/01/31 01:01:10.7	98.590	-0.450	1.050	2.020
2020/01/31 01:01:10.8	98.580	-0.450	1.050	2.000
2020/01/31 01:01:10.9	98.560	-0.460	1.040	1.970
2020/01/31 01:01:11.0	98.520	-0.460	1.020	1.940
2020/01/31 01:01:11.1	98.510	-0.460	0.990	1.910
2020/01/31 01:01:11.2	98.500	-0.460	0.960	1.870
2020/01/31 01:01:11.3	98.490	-0.450	0.920	1.820
2020/01/31 01:01:11.4	98.480	-0.430	0.870	1.780
2020/01/31 01:01:11.5	98.470	-0.420	0.810	1.720
2020/01/31 01:01:11.6	98.470	-0.400	0.750	1.670
2020/01/31 01:01:11.7	98.460	-0.380	0.680	1.610
2020/01/31 01:01:11.8	98.460	-0.360	0.600	1.550
2020/01/31 01:01:11.9	98.460	-0.330	0.520	1.480
2020/01/31 01:01:12.0	98.450	-0.300	0.440	1.410
2020/01/31 01:01:12.1	98.450	-0.270	0.340	1.340
2020/01/31 01:01:12.2	98.450	-0.240	0.250	1.270
2020/01/31 01:01:12.3	98.460	-0.200	0.150	1.200
2020/01/31 01:01:12.4	98.460	-0.160	0.050	1.130
2020/01/31 01:01:12.5	98.460	-0.130	-0.050	1.060
2020/01/31 01:01:12.6	98.470	-0.090	-0.150	0.980
2020/01/31 01:01:12.7	98.480	-0.050	-0.250	0.910
2020/01/31 01:01:12.8	98.490	-0.010	-0.360	0.840
2020/01/31 01:01:12.9	98.500	0.030	-0.460	0.760
2020/01/31 01:01:13.0	98.500	0.070	-0.560	0.700
2020/01/31 01:01:13.1	98.510	0.110	-0.660	0.620
2020/01/31 01:01:13.2	98.530	0.150	-0.750	0.550
2020/01/31 01:01:13.3	98.540	0.190	-0.840	0.480
2020/01/31 01:01:13.4	98.560	0.220	-0.930	0.420
2020/01/31 01:01:13.5	98.580	0.260	-1.010	0.350
2020/01/31 01:01:13.6	98.600	0.290	-1.080	0.290
2020/01/31 01:01:13.7	98.620	0.320	-1.150	0.230
2020/01/31 01:01:13.8	98.640	0.350	-1.210	0.170
2020/01/31 01:01:13.9	98.670	0.380	-1.260	0.120
2020/01/31 01:01:14.0	98.710	0.400	-1.310	0.070
2020/01/31 01:01:14.1	98.730	0.420	-1.340	0.020
2020/01/31 01:01:14.2	98.750	0.440	-1.370	-0.030
2020/01/31 01:01:14.3	98.780	0.450	-1.400	-0.070
2020/01/31 01:01:14.4	98.800	0.460	-1.410	-0.100
2020/01/31 01:01:14.5	98.820	0.470	-1.410	-0.130
2020/01/31 01:01:14.6	98.840	0.480	-1.410	-0.160
2020/01/31 01:01:14.7	98.860	0.480	-1.400	-0.180
2020/01/31 01:01:14.8	98.870	0.480	-1.380	-0.190
2020/01/31 01:01:14.9	98.890	0.480	-1.350	-0.200
2020/01/31 01:01:15.0	98.910	0.480	-1.320	-0.210
2020/01/31 01:01:15.1	98.920	0.470	-1.280	-0.210
2020/01/31 01:01:15.2	98.930	0.460	-1.230	-0.200
2020/01/31 01:01:15.3	98.940	0.450	-1.170	-0.200
2020/01/31 01:01:15.4	98.940	0.440	-1.110	-0.180
2020/01/31 01:01:15.5	98.940	0.430	-1.050	-0.170
2020/01/31 01:01:15.6	98.940	0.410	-0.980	-0.140
2020/01/31 01:01:15.7	98.940	0.390	-0.900	-0.120
2020/01/31 01:01:15.8	98.940	0.380	-0.820	-0.090
2020/01/31 01:01:15.9	98.930	0.360	-0.740	-0.060
2020/01/31 01:01:16.0	98.940	0.340	-0.650	-0.030
2020/01/31 01:01:16.1	98.930	0.320	-0.560	0.000
2020/01/31 01:01:16.2	98.920	0.300	-0.470	0.040
2020/01/31 01:01:16.3	98.910	0.280	-0.370	0.080
2020/01/31 01:01:16.4	98.890	0.260	-0.280	0.120
2020/01/31 01:01:16.5	98.880	0.250	-0.180	0.160
2020/01/31 01:01:16.6	98.860	0.230	-0.090	0.200
2020/01/31 01:01:16.7	98.840	0.210	0.000	0.250
2020/01/31 01:01:16.8	98.820	0.190	0.100	0.290
2020/01/31 01:01:16.9	98.800	0.170	0.190	0.340
2020/01/31 01:01:17.0	98.780	0.150	0.280	0.390
2020/01/31 01:01:17.1	98.760	0.140	0.360	0.430
2020/01/31 01:01:17.2	98.730	0.120	0.450	0.480
2020/01/31 01:01:17.3	98.710	0.100	0.530	0.530
2020/01/31 01:01:17.4	98.680	0.090	0.600	0.580
2020/01/31 01:01:17.5	98.650	0.070	0.670	0.620
2020/01/31 01:01:17.6	98.630	0.060	0.740	0.670
2020/01/31 01:01:17.7	98.600	0.040	0.800	0.720
2020/01/31 01:01:17.8	98.580	0.030	0.860	0.770
2020/01/31 01:01:17.9	98.550	0.020	0.910	0.810
2020/01/31 01:01:18.0	98.530	0.000	0.950	0.860
2020/01/31 01:01:18.1	98.510	-0.010	0.990	0.910
2020/01/31 01:01:18.2	98.490	-0.020	1.020	0.950
2020/01/31 01:01:18.3	98.460	-0.030	1.040	1.000
2020/01/31 01:01:18.4	98.440	-0.040	1.060	1.040
2020/01/31 01:01:18.5	98.420	-0.050	1.070	1.090
2020/01/31 01:01:18.6	98.410	-0.060	1.070	1.130
2020/01/31 01:01:18.7	98.390	-0.070	1.060	1.180
2020/01/31 01:01:18.8	98.380	-0.080	1.050	1.220
2020/01/31 01:01:18.9	98.360	-0.090	1.030	1.260
2020/01/31 01:01:19.0	98.360	-0.100	1.000	1.300
2020/01/31 01:01:19.1	98.350	-0.110	0.970	1.340
2020/01/31 01:01:19.2	98.350	-0.120	0.930	1.380
2020/01/31 01:01:19.3	98.350	-0.130	0.880	1.420
2020/01/31 01:01:19.4	98.350	-0.130	0.820	1.450
2020/01/31 01:01:19.5	98.350	-0.140	0.760	1.490
2020/01/31 01:01:19.6	98.360	-0.150	0.700	1.520
2020/01/31 01:01:19.7	98.370	-0.150	0.630	1.550
2020/01/31 01:01:19.8	98.380	-0.160	0.550	1.580
2020/01/31 01:01:19.9	98.390	-0.160	0.470	1.610
2020/01/31 01:01:20.0	98.390	-0.170	0.380	1.640
2020/01/31 01:01:20.1	98.400	-0.170	0.300	1.660
2020/01/31 01:01:20.2	98.420	-0.180	0.210	1.690
2020/01/31 01:01:20.3	98.440	-0.180	0.120	1.710
2020/01/31 01:01:20.4	98.470	-0.180	0.020	1.730
2020/01/31 01:01:20.5	98.490	-0.190	-0.070	1.740
2020/01/31 01:01:20.6	98.510	-0.190	-0.160	1.760
2020/01/31 01:01:20.7	98.530	-0.190	-0.260	1.770
2020/01/31 01:01:20.8	98.560	-0.190	-0.350	1.790
2020/01/31 01:01:20.9	98.580	-0.190	-0.440	1.800
2020/01/31 01:01:21.0	98.600	-0.190	-0.520	1.800
2020/01/31 01:01:21.1	98.620	-0.190	-0.610	1.810
2020/01/31 01:01:21.2	98.640	-0.190	-0.690	1.810
2020/01/31 01:01:21.3	98.660	-0.180	-0.770	1.810
2020/01/31 01:01:21.4	98.680	-0.180	-0.840	1.810
2020/01/31 01:01:21.5	98.700	-0.180	-0.910	1.810
2020/01/31 01:01:21.6	98.720	-0.170	-0.970	1.810
2020/01/31 01:01:21.7	98.740	-0.170	-1.020	1.810
2020/01/31 01:01:21.8	98.760	-0.160	-1.070	1.800
2020/01/31 01:01:21.9	98.770	-0.150	-1.120	1.800
2020/01/31 01:01:22.0	98.790	-0.140	-1.150	1.790
2020/01/31 01:01:22.1	98.810	-0.130	-1.180	1.780
2020/01/31 01:01:22.2	98.820	-0.120	-1.200	1.780
2020/01/31 01:01:22.3	98.830	-0.110	-1.220	1.770
2020/01/31 01:01:22.4	98.840	-0.100	-1.230	1.760
2020/01/31 01:01:22.5	98.850	-0.090	-1.230	1.760
2020/01/31 01:01:22.6	98.850	-0.080	-1.230	1.750
2020/01/31 01:01:22.7	98.860	-0.060	-1.220	1.750
2020/01/31 01:01:22.8	98.860	-0.050	-1.200	1.750
2020/01/31 01:01:22.9	98.860	-0.040	-1.180	1.740
2020/01/31 01:01:23.0	98.860	-0.020	-1.150	1.740
2020/01/31 01:01:23.1	98.860	-0.010	-1.110	1.740
2020/01/31 01:01:23.2	98.860	0.000	-1.070	1.740
2020/01/31 01:01:23.3	98.860	0.010	-1.030	1.740
2020/01/31 01:01:23.4	98.860	0.030	-0.990	1.740
2020/01/31 01:01:23.5	98.860	0.040	-0.940	1.740
2020/01/31 01:01:23.6	98.850	0.050	-0.890	1.740
2020/01/31 01:01:23.7	98.850	0.060	-0.830	1.750
2020/01/31 01:01:23.8	98.840	0.070	-0.770	1.750
2020/01/31 01:01:23.9	98.840	0.080	-0.720	1.750
2020/01/31 01:01:24.0	98.830	0.090	-0.660	1.760
2020/01/31 01:01:24.1	98.820	0.090	-0.600	1.770
2020/01/31 01:01:24.2	98.810	0.100	-0.540	1.770
2020/01/31 01:01:24.3	98.800	0.110	-0.480	1.780
2020/01/31 01:01:24.4	98.790	0.110	-0.410	1.790
2020/01/31 01:01:24.5	98.780	0.110	-0.350	1.790
2020/01/31 01:01:24.6	98.770	0.120	-0.290	1.800
2020/01/31 01:01:24.7	98.760	0.120	-0.230	1.810
2020/01/31 01:01:24.8	98.750	0.110	-0.170	1.820
2020/01/31 01:01:24.9	98.730	0.110	-0.120	1.820
2020/01/31 01:01:25.0	98.710	0.110	-0.060	1.820
2020/01/31 01:01:25.1	98.690	0.100	0.000	1.830
2020/01/31 01:01:25.2	98.680	0.100	0.060	1.830
2020/01/31 01:01:25.3	98.670	0.090	0.110	1.840
2020/01/31 01:01:25.4	98.650	0.080	0.170	1.840
2020/01/31 01:01:25.5	98.640	0.070	0.220	1.830
2020/01/31 01:01:25.6	98.620	0.050	0.270	1.830
2020/01/31 01:01:25.7	98.610	0.040	0.320	1.830
2020/01/31 01:01:25.8	98.600	0.020	0.370	1.820
2020/01/31 01:01:25.9	98.590	0.010	0.410	1.810
2020/01/31 01:01:26.0	98.570	-0.010	0.460	1.790
2020/01/31 01:01:26.1	98.560	-0.030	0.500	1.770
2020/01/31 01:01:26.2	98.550	-0.050	0.540	1.750
2020/01/31 01:01:26.3	98.540	-0.080	0.570	1.730
2020/01/31 01:01:26.4	98.530	-0.100	0.610	1.700
2020/01/31 01:01:26.5	98.530	-0.120	0.630	1.670
2020/01/31 01:01:26.6	98.520	-0.150	0.660	1.640
2020/01/31 01:01:26.7	98.520	-0.170	0.680	1.600
2020/01/31 01:01:26.8	98.510	-0.190	0.700	1.560
2020/01/31 01:01:26.9	98.510	-0.220	0.710	1.520
2020/01/31 01:01:27.0	98.500	-0.240	0.720	1.470
2020/01/31 01:01:27.1	98.500	-0.260	0.720	1.430
2020/01/31 01:01:27.2	98.490	-0.280	0.720	1.380
2020/01/31 01:01:27.3	98.490	-0.300	0.720	1.330
2020/01/31 01:01:27.4	98.490	-0.320	0.710	1.280
2020/01/31 01:01:27.5	98.480	-0.340	0.690	1.220
2020/01/31 01:01:27.6	98.480	-0.360	0.670	1.170
2020/01/31 01:01:27.7	98.470	-0.370	0.650	1.120
2020/01/31 01:01:27.8	98.470	-0.380	0.620	1.060
2020/01/31 01:01:27.9	98.460	-0.390	0.580	1.010
2020/01/31 01:01:28.0	98.450	-0.400	0.540	0.950
2020/01/31 01:01:28.1	98.440	-0.400	0.500	0.890
2020/01/31 01:01:28.2	98.430	-0.400	0.450	0.840
2020/01/31 01:01:28.3	98.430	-0.400	0.400	0.780
2020/01/31 01:01:28.4	98.420	-0.390	0.340	0.730
2020/01/31 01:01:28.5	98.410	-0.380	0.280	0.670
2020/01/31 01:01:28.6	98.410	-0.370	0.220	0.620
2020/01/31 01:01:28.7	98.400	-0.360	0.160	0.560
2020/01/31 01:01:28.8	98.390	-0.340	0.100	0.510
2020/01/31 01:01:28.9	98.390	-0.320	0.030	0.450
2020/01/31 01:01:29.0	98.390	-0.300	-0.030	0.390
2020/01/31 01:01:29.1	98.380	-0.280	-0.100	0.340
2020/01/31 01:01:29.2	98.380	-0.260	-0.160	0.280
2020/01/31 01:01:29.3	98.380	-0.230	-0.220	0.230
2020/01/31 01:01:29.4	98.380	-0.200	-0.280	0.170
2020/01/31 01:01:29.5	98.380	-0.180	-0.340	0.120
2020/01/31 01:01:29.6	98.390	-0.150	-0.400	0.060
2020/01/31 01:01:29.7	98.390	-0.120	-0.460	0.010
2020/01/31 01:01:29.8	98.400	-0.090	-0.510	-0.040
2020/01/31 01:01:29.9	98.400	-0.060	-0.550	-0.100
2020/01/31 01:01:30.0	98.420	-0.030	-0.600	-0.150
2020/01/31 01:01:30.1	98.430	0.000	-0.640	-0.190
2020/01/31 01:01:30.2	98.440	0.030	-0.680	-0.240
2020/01/31 01:01:30.3	98.460	0.060	-0.710	-0.280
2020/01/31 01:01:30.4	98.470	0.090	-0.730	-0.320
2020/01/31 01:01:30.5	98.490	0.120	-0.750	-0.360
2020/01/31 01:01:30.6	98.510	0.150	-0.770	-0.400
2020/01/31 01:01:30.7	98.530	0.170	-0.780	-0.430
2020/01/31 01:01:30.8	98.550	0.200	-0.790	-0.460
2020/01/31 01:01:30.9	98.570	0.220	-0.790	-0.480
2020/01/31 01:01:31.0	98.590	0.240	-0.790	-0.500
2020/01/31 01:01:31.1	98.610	0.260	-0.790	-0.510
2020/01/31 01:01:31.2	98.640	0.280	-0.780	-0.530
2020/01/31 01:01:31.3	98.660	0.300	-0.770	-0.530
2020/01/31 01:01:31.4	98.690	0.320	-0.760	-0.530
2020/01/31 01:01:31.5	98.710	0.330	-0.750	-0.530
2020/01/31 01:01:31.6	98.740	0.350	-0.730	-0.510
2020/01/31 01:01:31.7	98.760	0.360	-0.710	-0.500
2020/01/31 01:01:31.8	98.790	0.380	-0.690	-0.480
2020/01/31 01:01:31.9	98.810	0.390	-0.670	-0.450
2020/01/31 01:01:32.0	98.850	0.400	-0.650	-0.410
2020/01/31 01:01:32.1	98.870	0.410	-0.630	-0.370
2020/01/31 01:01:32.2	98.890	0.420	-0.610	-0.330
2020/01/31 01:01:32.3	98.900	0.420	-0.590	-0.280
2020/01/31 01:01:32.4	98.920	0.430	-0.570	-0.220
2020/01/31 01:01:32.5	98.940	0.440	-0.550	-0.160
2020/01/31 01:01:32.6	98.950	0.440	-0.530	-0.100
2020/01/31 01:01:32.7	98.960	0.450	-0.510	-0.030
2020/01/31 01:01:32.8	98.970	0.450	-0.500	0.040
2020/01/31 01:01:32.9	98.970	0.450	-0.480	0.110
2020/01/31 01:01:33.0	98.970	0.460	-0.460	0.190
2020/01/31 01:01:33.1	98.970	0.460	-0.440	0.270
2020/01/31 01:01:33.2	98.960	0.460	-0.430	0.350
2020/01/31 01:01:33.3	98.960	0.450	-0.410	0.430
2020/01/31 01:01:33.4	98.950	0.450	-0.390	0.510
2020/01/31 01:01:33.5	98.940	0.450	-0.360	0.600
2020/01/31 01:01:33.6	98.930	0.440	-0.340	0.690
2020/01/31 01:01:33.7	98.920	0.440	-0.320	0.780
2020/01/31 01:01:33.8	98.900	0.430	-0.290	0.860
2020/01/31 01:01:33.9	98.880	0.420	-0.270	0.950
2020/01/31 01:01:34.0	98.850	0.410	-0.240	1.040
2020/01/31 01:01:34.1	98.830	0.400	-0.210	1.130
2020/01/31 01:01:34.2	98.810	0.380	-0.170	1.220
2020/01/31 01:01:34.3	98.780	0.370	-0.140	1.300
2020/01/31 01:01:34.4	98.760	0.350	-0.100	1.390
2020/01/31 01:01:34.5	98.730	0.330	-0.060	1.470
2020/01/31 01:01:34.6	98.700	0.310	-0.030	1.550
2020/01/31 01:01:34.7	98.670	0.290	0.020	1.630
2020/01/31 01:01:34.8	98.650	0.270	0.060	1.700
2020/01/31 01:01:34.9	98.620	0.240	0.100	1.780
2020/01/31 01:01:35.0	98.580	0.220	0.140	1.840
2020/01/31 01:01:35.1	98.550	0.190	0.180	1.910
2020/01/31 01:01:35.2	98.520	0.160	0.220	1.970
2020/01/31 01:01:35.3	98.500	0.130	0.250	2.040
2020/01/31 01:01:35.4	98.470	0.110	0.290	2.090
2020/01/31 01:01:35.5	98.450	0.080	0.330	2.150
2020/01/31 01:01:35.6	98.420	0.050	0.360	2.200
2020/01/31 01:01:35.7	98.400	0.020	0.390	2.250
2020/01/31 01:01:35.8	98.380	-0.010	0.410	2.290
2020/01/31 01:01:35.9	98.360	-0.040	0.440	2.340
2020/01/31 01:01:36.0	98.330	-0.070	0.460	2.380
2020/01/31 01:01:36.1	98.310	-0.090	0.480	2.410
2020/01/31 01:01:36.2	98.300	-0.120	0.490	2.440
2020/01/31 01:01:36.3	98.280	-0.140	0.500	2.470
2020/01/31 01:01:36.4	98.270	-0.170	0.500	2.490
2020/01/31 01:01:36.5	98.260	-0.190	0.500	2.510
2020/01/31 01:01:36.6	98.250	-0.210	0.490	2.530
2020/01/31 01:01:36.7	98.240	-0.230	0.480	2.540
2020/01/31 01:01:36.8	98.230	-0.250	0.470	2.550
2020/01/31 01:01:36.9	98.230	-0.260	0.450	2.560
2020/01/31 01:01:37.0	98.230	-0.270	0.420	2.560
2020/01/31 01:01:37.1	98.220	-0.290	0.400	2.560
2020/01/31 01:01:37.2	98.220	-0.300	0.370	2.560
2020/01/31 01:01:37.3	98.220	-0.300	0.340	2.550
2020/01/31 01:01:37.4	98.230	-0.310	0.300	2.540
2020/01/31 01:01:37.5	98.230	-0.310	0.270	2.530
2020/01/31 01:01:37.6	98.240	-0.320	0.230	2.520
2020/01/31 01:01:37.7	98.240	-0.320	0.180	2.500
2020/01/31 01:01:37.8	98.250	-0.310	0.140	2.490
2020/01/31 01:01:37.9	98.260	-0.310	0.100	2.460
2020/01/31 01:01:38.0	98.290	-0.310	0.050	2.440
2020/01/31 01:01:38.1	98.300	-0.300	0.010	2.410
2020/01/31 01:01:38.2	98.320	-0.300	-0.040	2.390
2020/01/31 01:01:38.3	98.330	-0.290	-0.080	2.350
2020/01/31 01:01:38.4	98.350	-0.280	-0.130	2.320
2020/01/31 01:01:38.5	98.370	-0.270	-0.170	2.280
2020/01/31 01:01:38.6	98.390	-0.260	-0.210	2.240
2020/01/31 01:01:38.7	98.420	-0.250	-0.260	2.190
2020/01/31 01:01:38.8	98.440	-0.240	-0.300	2.150
2020/01/31 01:01:38.9	98.470	-0.230	-0.330	2.100
2020/01/31 01:01:39.0	98.480	-0.220	-0.370	2.040
2020/01/31 01:01:39.1	98.510	-0.210	-0.410	1.990
2020/01/31 01:01:39.2	98.530	-0.200	-0.440	1.930
2020/01/31 01:01:39.3	98.560	-0.190	-0.470	1.870
2020/01/31 01:01:39.4	98.590	-0.180	-0.490	1.800
2020/01/31 01:01:39.5	98.620	-0.170	-0.520	1.740
2020/01/31 01:01:39.6	98.640	-0.160	-0.540	1.670
2020/01/31 01:01:39.7	98.670	-0.150	-0.560	1.600
2020/01/31 01:01:39.8	98.690	-0.140	-0.570	1.530
2020/01/31 01:01:39.9	98.720	-0.130	-0.590	1.460
2020/01/31 01:01:40.0	98.740	-0.120	-0.600	1.390
2020/01/31 01:01:40.1	98.760	-0.110	-0.600	1.320
2020/01/31 01:01:40.2	98.780	-0.110	-0.610	1.250
2020/01/31 01:01:40.3	98.800	-0.100	-0.610	1.180
2020/01/31 01:01:40.4	98.820	-0.090	-0.610	1.110
2020/01/31 01:01:40.5	98.830	-0.090	-0.600	1.040
2020/01/31 01:01:40.6	98.840	-0.080	-0.600	0.970
2020/01/31 01:01:40.7	98.850	-0.070	-0.590	0.910
2020/01/31 01:01:40.8	98.860	-0.070	-0.580	0.850
2020/01/31 01:01:40.9	98.870	-0.060	-0.570	0.790
2020/01/31 01:01:41.0	98.880	-0.060	-0.560	0.730
2020/01/31 01:01:41.1	98.880	-0.060	-0.540	0.680
2020/01/31 01:01:41.2	98.880	-0.050	-0.520	0.630
2020/01/31 01:01:41.3	98.880	-0.050	-0.510	0.580
2020/01/31 01:01:41.4	98.870	-0.040	-0.490	0.540
2020/01/31 01:01:41.5	98.870	-0.040	-0.470	0.500
2020/01/31 01:01:41.6	98.860	-0.040	-0.450	0.460
2020/01/31 01:01:41.7	98.850	-0.030	-0.430	0.430
2020/01/31 01:01:41.8	98.840	-0.030	-0.410	0.400
2020/01/31 01:01:41.9	98.830	-0.030	-0.390	0.380
2020/01/31 01:01:42.0	98.820	-0.030	-0.360	0.360
2020/01/31 01:01:42.1	98.810	-0.020	-0.340	0.340
2020/01/31 01:01:42.2	98.790	-0.020	-0.320	0.330
2020/01/31 01:01:42.3	98.780	-0.020	-0.300	0.320
2020/01/31 01:01:42.4	98.760	-0.020	-0.280	0.310
2020/01/31 01:01:42.5	98.740	-0.020	-0.260	0.310
2020/01/31 01:01:42.6	98.730	-0.020	-0.230	0.310
2020/01/31 01:01:42.7	98.710	-0.020	-0.210	0.310
2020/01/31 01:01:42.8	98.700	-0.020	-0.190	0.310
2020/01/31 01:01:42.9	98.680	-0.020	-0.170	0.320
2020/01/31 01:01:43.0	98.670	-0.020	-0.150	0.320
2020/01/31 01:01:43.1	98.660	-0.020	-0.130	0.330
2020/01/31 01:01:43.2	98.640	-0.020	-0.100	0.340
2020/01/31 01:01:43.3	98.630	-0.030	-0.080	0.350
2020/01/31 01:01:43.4	98.620	-0.030	-0.060	0.360
2020/01/31 01:01:43.5	98.600	-0.030	-0.040	0.370
2020/01/31 01:01:43.6	98.590	-0.040	-0.020	0.390
2020/01/31 01:01:43.7	98.580	-0.040	0.000	0.400
2020/01/31 01:01:43.8	98.570	-0.050	0.030	0.410
2020/01/31 01:01:43.9	98.560	-0.050	0.050	0.420
2020/01/31 01:01:44.0	98.570	-0.060	0.070	0.440
2020/01/31 01:01:44.1	98.560	-0.070	0.090	0.450
2020/01/31 01:01:44.2	98.550	-0.070	0.110	0.460
2020/01/31 01:01:44.3	98.550	-0.080	0.120	0.470
2020/01/31 01:01:44.4	98.540	-0.090	0.140	0.480
2020/01/31 01:01:44.5	98.540	-0.090	0.160	0.490
2020/01/31 01:01:44.6	98.540	-0.100	0.170	0.500
2020/01/31 01:01:44.7	98.530	-0.110	0.180	0.510
2020/01/31 01:01:44.8	98.530	-0.120	0.190	0.520
2020/01/31 01:01:44.9	98.530	-0.120	0.200	0.530
2020/01/31 01:01:45.0	98.530	-0.130	0.210	0.540
2020/01/31 01:01:45.1	98.530	-0.140	0.210	0.540
2020/01/31 01:01:45.2	98.530	-0.140	0.220	0.550
2020/01/31 01:01:45.3	98.520	-0.150	0.220	0.560
2020/01/31 01:01:45.4	98.520	-0.150	0.220	0.560
2020/01/31 01:01:45.5	98.520	-0.160	0.220	0.570
2020/01/31 01:01:45.6	98.510	-0.160	0.220	0.570
2020/01/31 01:01:45.7	98.500	-0.170	0.220	0.580
2020/01/31 01:01:45.8	98.500	-0.170	0.220	0.580
2020/01/31 01:01:45.9	98.490	-0.170	0.210	0.590
2020/01/31 01:01:46.0	98.480	-0.170	0.210	0.600
2020/01/31 01:01:46.1	98.470	-0.170	0.200	0.610
2020/01/31 01:01:46.2	98.460	-0.170	0.190	0.610
2020/01/31 01:01:46.3	98.460	-0.170	0.180	0.620
2020/01/31 01:01:46.4	98.450	-0.170	0.170	0.630
2020/01/31 01:01:46.5	98.440	-0.170	0.160	0.640
2020/01/31 01:01:46.6	98.430	-0.170	0.150	0.650
2020/01/31 01:01:46.7	98.420	-0.160	0.130	0.650
2020/01/31 01:01:46.8	98.410	-0.160	0.120	0.660
2020/01/31 01:01:46.9	98.400	-0.150	0.100	0.670
2020/01/31 01:01:47.0	98.390	-0.140	0.080	0.680
2020/01/31 01:01:47.1	98.380	-0.140	0.060	0.690
2020/01/31 01:01:47.2	98.370	-0.130	0.040	0.700
2020/01/31 01:01:47.3	98.360	-0.110	0.010	0.710
2020/01/31 01:01:47.4	98.350	-0.100	-0.010	0.720
2020/01/31 01:01:47.5	98.350	-0.090	-0.040	0.730
2020/01/31 01:01:47.6	98.340	-0.080	-0.070	0.740
2020/01/31 01:01:47.7	98.340	-0.060	-0.100	0.750
2020/01/31 01:01:47.8	98.330	-0.040	-0.130	0.760
2020/01/31 01:01:47.9	98.330	-0.030	-0.160	0.770
2020/01/31 01:01:48.0	98.320	-0.010	-0.200	0.790
2020/01/31 01:01:48.1	98.320	0.010	-0.230	0.800
2020/01/31 01:01:48.2	98.320	0.030	-0.270	0.800
2020/01/31 01:01:48.3	98.320	0.050	-0.300	0.810
2020/01/31 01:01:48.4	98.330	0.070	-0.340	0.820
2020/01/31 01:01:48.5	98.330	0.100	-0.380	0.830
2020/01/31 01:01:48.6	98.340	0.120	-0.420	0.840
2020/01/31 01:01:48.7	98.350	0.140	-0.450	0.850
2020/01/31 01:01:48.8	98.360	0.170	-0.490	0.860
2020/01/31 01:01:48.9	98.380	0.190	-0.530	0.870
2020/01/31 01:01:49.0	98.380	0.220	-0.560	0.880
2020/01/31 01:01:49.1	98.400	0.240	-0.590	0.890
2020/01/31 01:01:49.2	98.410	0.260	-0.630	0.910
2020/01/31 01:01:49.3	98.430	0.290	-0.660	0.920
2020/01/31 01:01:49.4	98.450	0.310	-0.690	0.930
2020/01/31 01:01:49.5	98.460	0.340	-0.720	0.950
2020/01/31 01:01:49.6	98.480	0.360	-0.740	0.970
2020/01/31 01:01:49.7	98.500	0.380	-0.760	0.980
2020/01/31 01:01:49.8	98.510	0.400	-0.780	1.000
2020/01/31 01:01:49.9	98.530	0.420	-0.800	1.020
2020/01/31 01:01:50.0	98.550	0.440	-0.820	1.040
2020/01/31 01:01:50.1	98.560	0.450	-0.830	1.060
2020/01/31 01:01:50.2	98.580	0.470	-0.840	1.080
2020/01/31 01:01:50.3	98.600	0.480	-0.840	1.110
2020/01/31 01:01:50.4	98.610	0.490	-0.840	1.130
2020/01/31 01:01:50.5	98.620	0.500	-0.830	1.160
2020/01/31 01:01:50.6	98.640	0.500	-0.830	1.180
2020/01/31 01:01:50.7	98.650	0.510	-0.810	1.210
2020/01/31 01:01:50.8	98.660	0.510	-0.790	1.240
2020/01/31 01:01:50.9	98.670	0.510	-0.770	1.270
2020/01/31 01:01:51.0	98.680	0.500	-0.740	1.300
2020/01/31 01:01:51.1	98.690	0.500	-0.710	1.340
2020/01/31 01:01:51.2	98.700	0.490	-0.670	1.370
2020/01/31 01:01:51.3	98.710	0.470	-0.620	1.400
2020/01/31 01:01:51.4	98.710	0.460	-0.570	1.430
2020/01/31 01:01:51.5	98.720	0.440	-0.520	1.460
2020/01/31 01:01:51.6	98.730	0.420	-0.460	1.500
2020/01/31 01:01:51.7	98.730	0.390	-0.400	1.530
2020/01/31 01:01:51.8	98.730	0.370	-0.330	1.560
2020/01/31 01:01:51.9	98.740	0.340	-0.260	1.590
2020/01/31 01:01:52.0	98.720	0.310	-0.180	1.620
2020/01/31 01:01:52.1	98.720	0.270	-0.110	1.650
2020/01/31 01:01:52.2	98.720	0.240	-0.030	1.680
2020/01/31 01:01:52.3	98.720	0.200	0.050	1.710
2020/01/31 01:01:52.4	98.720	0.160	0.130	1.740
2020/01/31 01:01:52.5	98.710	0.120	0.210	1.760
2020/01/31 01:01:52.6	98.710	0.080	0.290	1.790
2020/01/31 01:01:52.7	98.700	0.030	0.370	1.810
2020/01/31 01:01:52.8	98.690	-0.010	0.440	1.830
2020/01/31 01:01:52.9	98.680	-0.050	0.520	1.850
2020/01/31 01:01:53.0	98.670	-0.100	0.590	1.860
2020/01/31 01:01:53.1	98.660	-0.140	0.650	1.880
2020/01/31 01:01:53.2	98.640	-0.190	0.710	1.890
2020/01/31 01:01:53.3	98.630	-0.230	0.770	1.890
2020/01/31 01:01:53.4	98.620	-0.270	0.820	1.900
2020/01/31 01:01:53.5	98.600	-0.310	0.870	1.900
2020/01/31 01:01:53.6	98.590	-0.350	0.910	1.900
2020/01/31 01:01:53.7	98.570	-0.380	0.940	1.890
2020/01/31 01:01:53.8	98.550	-0.420	0.960	1.880
2020/01/31 01:01:53.9	98.540	-0.450	0.970	1.870
2020/01/31 01:01:54.0	98.520	-0.470	0.980	1.860
2020/01/31 01:01:54.1	98.500	-0.500	0.980	1.840
2020/01/31 01:01:54.2	98.480	-0.520	0.970	1.820
2020/01/31 01:01:54.3	98.470	-0.530	0.950	1.800
2020/01/31 01:01:54.4	98.450	-0.550	0.920	1.770
2020/01/31 01:01:54.5	98.440	-0.550	0.890	1.740
2020/01/31 01:01:54.6	98.430	-0.560	0.840	1.710
2020/01/31 01:01:54.7	98.420	-0.560	0.790	1.680
2020/01/31 01:01:54.8	98.410	-0.560	0.730	1.640
2020/01/31 01:01:54.9	98.400	-0.550	0.660	1.600
2020/01/31 01:01:55.0	98.390	-0.540	0.580	1.570
2020/01/31 01:01:55.1	98.380	-0.520	0.500	1.520
2020/01/31 01:01:55.2	98.380	-0.500	0.420	1.480
2020/01/31 01:01:55.3	98.370	-0.480	0.320	1.440
2020/01/31 01:01:55.4	98.370	-0.450	0.230	1.390
2020/01/31 01:01:55.5	98.370	-0.420	0.130	1.350
2020/01/31 01:01:55.6	98.380	-0.390	0.030	1.300
2020/01/31 01:01:55.7	98.380	-0.350	-0.080	1.260
2020/01/31 01:01:55.8	98.390	-0.320	-0.180	1.210
2020/01/31 01:01:55.9	98.390	-0.280	-0.290	1.160
2020/01/31 01:01:56.0	98.410	-0.230	-0.400	1.120
2020/01/31 01:01:56.1	98.420	-0.190	-0.510	1.070
2020/01/31 01:01:56.2	98.430	-0.140	-0.610	1.030
2020/01/31 01:01:56.3	98.440	-0.100	-0.710	0.980
2020/01/31 01:01:56.4	98.450	-0.050	-0.810	0.940
2020/01/31 01:01:56.5	98.460	-0.000	-0.900	0.900
2020/01/31 01:01:56.6	98.470	0.040	-0.990	0.860
2020/01/31 01:01:56.7	98.490	0.090	-1.070	0.820
2020/01/31 01:01:56.8	98.500	0.140	-1.150	0.780
2020/01/31 01:01:56.9	98.510	0.180	-1.220	0.750
2020/01/31 01:01:57.0	98.540	0.220	-1.290	0.710
2020/01/31 01:01:57.1	98.550	0.260	-1.340	0.680
2020/01/31 01:01:57.2	98.560	0.300	-1.390	0.650
2020/01/31 01:01:57.3	98.570	0.340	-1.430	0.630
2020/01/31 01:01:57.4	98.580	0.380	-1.460	0.600
2020/01/31 01:01:57.5	98.590	0.410	-1.480	0.580
2020/01/31 01:01:57.6	98.600	0.440	-1.480	0.550
2020/01/31 01:01:57.7	98.610	0.460	-1.480	0.530
2020/01/31 01:01:57.8	98.610	0.480	-1.470	0.510
2020/01/31 01:01:57.9	98.620	0.500	-1.450	0.490
2020/01/31 01:01:58.0	98.640	0.510	-1.410	0.480
2020/01/31 01:01:58.1	98.640	0.520	-1.370	0.460
2020/01/31 01:01:58.2	98.650	0.530	-1.320	0.440
2020/01/31 01:01:58.3	98.650	0.530	-1.250	0.430
2020/01/31 01:01:58.4	98.650	0.520	-1.180	0.410
2020/01/31 01:01:58.5	98.640	0.520	-1.100	0.400
2020/01/31 01:01:58.6	98.640	0.500	-1.010	0.390
2020/01/31 01:01:58.7	98.640	0.490	-0.910	0.380
2020/01/31 01:01:58.8	98.640	0.460	-0.800	0.360
2020/01/31 01:01:58.9	98.630	0.440	-0.690	0.350
2020/01/31 01:01:59.0	98.630	0.410	-0.570	0.340
2020/01/31 01:01:59.1	98.620	0.370	-0.450	0.340
2020/01/31 01:01:59.2	98.610	0.330	-0.320	0.330
2020/01/31 01:01:59.3	98.600	0.290	-0.190	0.320
2020/01/31 01:01:59.4	98.590	0.250	-0.060	0.320
2020/01/31 01:01:59.5	98.580	0.200	0.070	0.320
2020/01/31 01:01:59.6	98.560	0.150	0.200	0.310
2020/01/31 01:01:59.7	98.550	0.100	0.330	0.310
2020/01/31 01:01:59.8	98.530	0.040	0.460	0.320
2020/01/31 01:01:59.9	98.510	-0.010	0.580	0.320
2020/01/31 01:02:00.0	98.490	-0.070	0.700	0.330
2020/01/31 01:02:00.1	98.470	-0.130	0.810	0.340
2020/01/31 01:02:00.2	98.450	-0.190	0.910	0.350
2020/01/31 01:02:00.3	98.430	-0.250	1.010	0.370
2020/01/31 01:02:00.4	98.410	-0.300	1.100	0.390
2020/01/31 01:02:00.5	98.390	-0.360	1.170	0.410
2020/01/31 01:02:00.6	98.370	-0.420	1.240	0.430
2020/01/31 01:02:00.7	98.350	-0.470	1.300	0.460
2020/01/31 01:02:00.8	98.320	-0.520	1.340	0.480
2020/01/31 01:02:00.9	98.300	-0.570	1.380	0.510
2020/01/31 01:02:01.0	98.260	-0.610	1.400	0.550
2020/01/31 01:02:01.1	98.240	-0.660	1.410	0.580
2020/01/31 01:02:01.2	98.220	-0.690	1.410	0.620
2020/01/31 01:02:01.3	98.200	-0.730	1.400	0.650
2020/01/31 01:02:01.4	98.190	-0.760	1.370	0.690
2020/01/31 01:02:01.5	98.170	-0.790	1.340	0.730
2020/01/31 01:02:01.6	98.160	-0.810	1.290	0.770
2020/01/31 01:02:01.7	98.140	-0.820	1.230	0.810
2020/01/31 01:02:01.8	98.130	-0.840	1.170	0.840
2020/01/31 01:02:01.9	98.130	-0.840	1.090	0.880
2020/01/31 01:02:02.0	98.110	-0.850	1.010	0.910
2020/01/31 01:02:02.1	98.110	-0.840	0.910	0.950
2020/01/31 01:02:02.2	98.110	-0.830	0.810	0.980
2020/01/31 01:02:02.3	98.110	-0.820	0.700	1.010
2020/01/31 01:02:02.4	98.120	-0.800	0.590	1.040
2020/01/31 01:02:02.5	98.130	-0.780	0.470	1.060
2020/01/31 01:02:02.6	98.140	-0.750	0.350	1.090
2020/01/31 01:02:02.7	98.160	-0.720	0.220	1.110
2020/01/31 01:02:02.8	98.170	-0.680	0.090	1.130
2020/01/31 01:02:02.9	98.190	-0.640	-0.040	1.150
2020/01/31 01:02:03.0	98.210	-0.600	-0.170	1.170
2020/01/31 01:02:03.1	98.240	-0.550	-0.300	1.190
2020/01/31 01:02:03.2	98.260	-0.500	-0.430	1.200
2020/01/31 01:02:03.3	98.290	-0.450	-0.560	1.220
2020/01/31 01:02:03.4	98.310	-0.390	-0.680	1.230
2020/01/31 01:02:03.5	98.340	-0.330	-0.810	1.250
2020/01/31 01:02:03.6	98.370	-0.270	-0.920	1.260
2020/01/31 01:02:03.7	98.390	-0.210	-1.040	1.280
2020/01/31 01:02:03.8	98.420	-0.150	-1.140	1.290
2020/01/31 01:02:03.9	98.450	-0.090	-1.240	1.310
2020/01/31 01:02:04.0	98.480	-0.030	-1.330	1.330
2020/01/31 01:02:04.1	98.510	0.030	-1.420	1.350
2020/01/31 01:02:04.2	98.530	0.090	-1.490	1.360
2020/01/31 01:02:04.3	98.550	0.150	-1.560	1.380
2020/01/31 01:02:04.4	98.570	0.210	-1.610	1.400
2020/01/31 01:02:04.5	98.590	0.260	-1.660	1.410
2020/01/31 01:02:04.6	98.610	0.320	-1.690	1.430
2020/01/31 01:02:04.7	98.620	0.370	-1.720	1.450
2020/01/31 01:02:04.8	98.640	0.410	-1.730	1.470
2020/01/31 01:02:04.9	98.650	0.460	-1.730	1.490
2020/01/31 01:02:05.0	98.660	0.500	-1.730	1.510
2020/01/31 01:02:05.1	98.660	0.530	-1.710	1.530
2020/01/31 01:02:05.2	98.670	0.570	-1.680	1.560
2020/01/31 01:02:05.3	98.670	0.600	-1.640	1.580
2020/01/31 01:02:05.4	98.670	0.620	-1.600	1.600
2020/01/31 01:02:05.5	98.660	0.640	-1.540	1.620
2020/01/31 01:02:05.6	98.650	0.660	-1.470	1.630
2020/01/31 01:02:05.7	98.640	0.680	-1.400	1.650
2020/01/31 01:02:05.8	98.630	0.690	-1.320	1.670
2020/01/31 01:02:05.9	98.620	0.690	-1.240	1.690
2020/01/31 01:02:06.0	98.600	0.700	-1.140	1.700
2020/01/31 01:02:06.1	98.580	0.700	-1.050	1.720
2020/01/31 01:02:06.2	98.550	0.690	-0.950	1.730
2020/01/31 01:02:06.3	98.530	0.690	-0.850	1.740
2020/01/31 01:02:06.4	98.500	0.680	-0.740	1.750
2020/01/31 01:02:06.5	98.480	0.670	-0.640	1.760
2020/01/31 01:02:06.6	98.440	0.650	-0.530	1.770
2020/01/31 01:02:06.7	98.410	0.640	-0.420	1.770
2020/01/31 01:02:06.8	98.380	0.620	-0.320	1.780
2020/01/31 01:02:06.9	98.340	0.600	-0.210	1.780
2020/01/31 01:02:07.0	98.300	0.580	-0.100	1.780
2020/01/31 01:02:07.1	98.260	0.560	-0.000	1.780
2020/01/31 01:02:07.2	98.220	0.530	0.100	1.780
2020/01/31 01:02:07.3	98.180	0.510	0.200	1.770
2020/01/31 01:02:07.4	98.150	0.480	0.290	1.770
2020/01/31 01:02:07.5	98.110	0.460	0.380	1.760
2020/01/31 01:02:07.6	98.070	0.430	0.460	1.750
2020/01/31 01:02:07.7	98.030	0.400	0.540	1.730
2020/01/31 01:02:07.8	97.990	0.370	0.620	1.720
2020/01/31 01:02:07.9	97.950	0.340	0.690	1.700
2020/01/31 01:02:08.0	97.900	0.320	0.750	1.680
2020/01/31 01:02:08.1	97.860	0.290	0.810	1.660
2020/01/31 01:02:08.2	97.820	0.260	0.860	1.640
2020/01/31 01:02:08.3	97.780	0.230	0.900	1.610
2020/01/31 01:02:08.4	97.750	0.200	0.940	1.580
2020/01/31 01:02:08.5	97.710	0.180	0.980	1.550
2020/01/31 01:02:08.6	97.680	0.150	1.000	1.520
2020/01/31 01:02:08.7	97.650	0.120	1.020	1.490
2020/01/31 01:02:08.8	97.620	0.100	1.030	1.450
2020/01/31 01:02:08.9	97.590	0.070	1.040	1.410
2020/01/31 01:02:09.0	97.570	0.050	1.040	1.370
2020/01/31 01:02:09.1	97.550	0.030	1.030	1.320
2020/01/31 01:02:09.2	97.530	0.000	1.020	1.270
2020/01/31 01:02:09.3	97.510	-0.020	1.010	1.220
2020/01/31 01:02:09.4	97.490	-0.040	0.980	1.170
2020/01/31 01:02:09.5	97.480	-0.060	0.960	1.110
2020/01/31 01:02:09.6	97.470	-0.080	0.920	1.060
2020/01/31 01:02:09.7	97.460	-0.090	0.880	0.990
2020/01/31 01:02:09.8	97.460	-0.110	0.840	0.930
2020/01/31 01:02:09.9	97.460	-0.130	0.800	0.860
2020/01/31 01:02:10.0	97.480	-0.140	0.740	0.790
2020/01/31 01:02:10.1	97.480	-0.160	0.690	0.720
2020/01/31 01:02:10.2	97.490	-0.170	0.630	0.650
2020/01/31 01:02:10.3	97.510	-0.180	0.570	0.570
2020/01/31 01:02:10.4	97.530	-0.190	0.510	0.500
2020/01/31 01:02:10.5	97.550	-0.200	0.440	0.420
2020/01/31 01:02:10.6	97.570	-0.210	0.380	0.340
2020/01/31 01:02:10.7	97.600	-0.210	0.310	0.260
2020/01/31 01:02:10.8	97.630	-0.220	0.240	0.180
2020/01/31 01:02:10.9	97.660	-0.220	0.170	0.100
2020/01/31 01:02:11.0	97.680	-0.230	0.090	0.020
2020/01/31 01:02:11.1	97.710	-0.230	0.020	-0.050
2020/01/31 01:02:11.2	97.750	-0.230	-0.050	-0.120
2020/01/31 01:02:11.3	97.790	-0.230	-0.130	-0.200
2020/01/31 01:02:11.4	97.830	-0.230	-0.200	-0.260
2020/01/31 01:02:11.5	97.870	-0.220	-0.270	-0.330
2020/01/31 01:02:11.6	97.910	-0.220	-0.340	-0.390
2020/01/31 01:02:11.7	97.940	-0.210	-0.410	-0.450
2020/01/31 01:02:11.8	97.980	-0.210	-0.480	-0.500
2020/01/31 01:02:11.9	98.020	-0.200	-0.550	-0.540
2020/01/31 01:02:12.0	98.090	-0.190	-0.620	-0.580
2020/01/31 01:02:12.1	98.130	-0.180	-0.680	-0.610
2020/01/31 01:02:12.2	98.160	-0.170	-0.740	-0.640
2020/01/31 01:02:12.3	98.200	-0.160	-0.790	-0.660
2020/01/31 01:02:12.4	98.230	-0.150	-0.840	-0.670
2020/01/31 01:02:12.5	98.270	-0.140	-0.890	-0.680
2020/01/31 01:02:12.6	98.300	-0.130	-0.930	-0.680
2020/01/31 01:02:12.7	98.320	-0.110	-0.970	-0.670
2020/01/31 01:02:12.8	98.350	-0.100	-1.000	-0.660
2020/01/31 01:02:12.9	98.370	-0.090	-1.030	-0.640
2020/01/31 01:02:13.0	98.400	-0.070	-1.040	-0.610
2020/01/31 01:02:13.1	98.420	-0.060	-1.060	-0.570
2020/01/31 01:02:13.2	98.430	-0.050	-1.070	-0.530
2020/01/31 01:02:13.3	98.450	-0.040	-1.070	-0.480
2020/01/31 01:02:13.4	98.460	-0.030	-1.070	-0.420
2020/01/31 01:02:13.5	98.460	-0.020	-1.060	-0.360
2020/01/31 01:02:13.6	98.470	-0.010	-1.040	-0.290
2020/01/31 01:02:13.7	98.470	0.000	-1.020	-0.210
2020/01/31 01:02:13.8	98.460	0.010	-0.990	-0.130
2020/01/31 01:02:13.9	98.460	0.020	-0.950	-0.050
2020/01/31 01:02:14.0	98.450	0.020	-0.910	0.050
2020/01/31 01:02:14.1	98.430	0.030	-0.860	0.140
2020/01/31 01:02:14.2	98.420	0.030	-0.810	0.240
2020/01/31 01:02:14.3	98.400	0.030	-0.750	0.340
2020/01/31 01:02:14.4	98.380	0.030	-0.690	0.450
2020/01/31 01:02:14.5	98.350	0.030	-0.630	0.550
2020/01/31 01:02:14.6	98.320	0.020	-0.560	0.660
2020/01/31 01:02:14.7	98.290	0.020	-0.490	0.770
2020/01/31 01:02:14.8	98.260	0.010	-0.420	0.880
2020/01/31 01:02:14.9	98.230	0.000	-0.350	0.990
2020/01/31 01:02:15.0	98.190	-0.000	-0.270	1.090
2020/01/31 01:02:15.1	98.160	-0.010	-0.190	1.200
2020/01/31 01:02:15.2	98.120	-0.030	-0.120	1.300
2020/01/31 01:02:15.3	98.080	-0.040	-0.050	1.410
2020/01/31 01:02:15.4	98.030	-0.050	0.020	1.510
2020/01/31 01:02:15.5	97.990	-0.070	0.090	1.610
2020/01/31 01:02:15.6	97.950	-0.080	0.160	1.700
2020/01/31 01:02:15.7	97.910	-0.100	0.230	1.790
2020/01/31 01:02:15.8	97.870	-0.110	0.290	1.880
2020/01/31 01:02:15.9	97.830	-0.130	0.340	1.960
2020/01/31 01:02:16.0	97.770	-0.140	0.400	2.050
2020/01/31 01:02:16.1	97.730	-0.160	0.440	2.120
2020/01/31 01:02:16.2	97.700	-0.170	0.480	2.190
2020/01/31 01:02:16.3	97.660	-0.190	0.520	2.250
2020/01/31 01:02:16.4	97.630	-0.200	0.550	2.310
2020/01/31 01:02:16.5	97.600	-0.210	0.570	2.360
2020/01/31 01:02:16.6	97.570	-0.230	0.590	2.410
2020/01/31 01:02:16.7	97.540	-0.240	0.600	2.450
2020/01/31 01:02:16.8	97.520	-0.250	0.610	2.490
2020/01/31 01:02:16.9	97.500	-0.250	0.600	2.520
2020/01/31 01:02:17.0	97.490	-0.260	0.590	2.540
2020/01/31 01:02:17.1	97.470	-0.270	0.580	2.560
2020/01/31 01:02:17.2	97.460	-0.270	0.560	2.580
2020/01/31 01:02:17.3	97.450	-0.270	0.530	2.590
2020/01/31 01:02:17.4	97.450	-0.270	0.500	2.600
2020/01/31 01:02:17.5	97.440	-0.270	0.460	2.600
2020/01/31 01:02:17.6	97.440	-0.270	0.420	2.600
2020/01/31 01:02:17.7	97.440	-0.260	0.370	2.600
2020/01/31 01:02:17.8	97.450	-0.260	0.320	2.590
2020/01/31 01:02:17.9	97.450	-0.250	0.260	2.580
2020/01/31 01:02:18.0	97.450	-0.240	0.210	2.560
2020/01/31 01:02:18.1	97.460	-0.230	0.150	2.550
2020/01/31 01:02:18.2	97.470	-0.210	0.090	2.520
2020/01/31 01:02:18.3	97.480	-0.200	0.020	2.500
2020/01/31 01:02:18.4	97.500	-0.180	-0.040	2.470
2020/01/31 01:02:18.5	97.510	-0.170	-0.100	2.440
2020/01/31 01:02:18.6	97.530	-0.150	-0.160	2.410
2020/01/31 01:02:18.7	97.540	-0.130	-0.230	2.380
2020/01/31 01:02:18.8	97.560	-0.110	-0.290	2.340
2020/01/31 01:02:18.9	97.580	-0.090	-0.340	2.300
2020/01/31 01:02:19.0	97.580	-0.070	-0.400	2.250
2020/01/31 01:02:19.1	97.610	-0.060	-0.460	2.200
2020/01/31 01:02:19.2	97.630	-0.040	-0.510	2.150
2020/01/31 01:02:19.3	97.650	-0.020	-0.560	2.100
2020/01/31 01:02:19.4	97.670	0.000	-0.600	2.040
2020/01/31 01:02:19.5	97.690	0.020	-0.640	1.980
2020/01/31 01:02:19.6	97.720	0.040	-0.680	1.920
2020/01/31 01:02:19.7	97.740	0.050	-0.710	1.860
2020/01/31 01:02:19.8	97.760	0.070	-0.740	1.790
2020/01/31 01:02:19.9	97.780	0.080	-0.760	1.720
2020/01/31 01:02:20.0	97.810	0.100	-0.780	1.650
2020/01/31 01:02:20.1	97.840	0.110	-0.800	1.570
2020/01/31 01:02:20.2	97.860	0.120	-0.810	1.500
2020/01/31 01:02:20.3	97.880	0.140	-0.810	1.430
2020/01/31 01:02:20.4	97.900	0.150	-0.810	1.350
2020/01/31 01:02:20.5	97.920	0.150	-0.810	1.280
2020/01/31 01:02:20.6	97.930	0.160	-0.800	1.210
2020/01/31 01:02:20.7	97.950	0.170	-0.790	1.130
2020/01/31 01:02:20.8	97.960	0.170	-0.780	1.060
2020/01/31 01:02:20.9	97.980	0.180	-0.760	0.990
2020/01/31 01:02:21.0	98.000	0.180	-0.730	0.920
2020/01/31 01:02:21.1	98.000	0.180	-0.710	0.860
2020/01/31 01:02:21.2	98.010	0.190	-0.680	0.790
2020/01/31 01:02:21.3	98.010	0.190	-0.640	0.730
2020/01/31 01:02:21.4	98.010	0.190	-0.600	0.680
2020/01/31 01:02:21.5	98.010	0.180	-0.560	0.630
2020/01/31 01:02:21.6	98.000	0.180	-0.520	0.580
2020/01/31 01:02:21.7	97.990	0.180	-0.470	0.540
2020/01/31 01:02:21.8	97.980	0.180	-0.420	0.500
2020/01/31 01:02:21.9	97.970	0.170	-0.370	0.460
2020/01/31 01:02:22.0	97.940	0.170	-0.320	0.430
2020/01/31 01:02:22.1	97.920	0.160	-0.270	0.410
2020/01/31 01:02:22.2	97.900	0.160	-0.220	0.380
2020/01/31 01:02:22.3	97.880	0.150	-0.170	0.360
2020/01/31 01:02:22.4	97.850	0.150	-0.110	0.350
2020/01/31 01:02:22.5	97.820	0.140	-0.060	0.330
2020/01/31 01:02:22.6	97.790	0.140	-0.010	0.320
2020/01/31 01:02:22.7	97.760	0.130	0.050	0.320
2020/01/31 01:02:22.8	97.730	0.120	0.100	0.310
2020/01/31 01:02:22.9	97.700	0.120	0.150	0.310
2020/01/31 01:02:23.0	97.670	0.110	0.200	0.300
2020/01/31 01:02:23.1	97.640	0.110	0.240	0.300
2020/01/31 01:02:23.2	97.610	0.100	0.280	0.300
2020/01/31 01:02:23.3	97.580	0.100	0.320	0.300
2020/01/31 01:02:23.4	97.550	0.100	0.360	0.300
2020/01/31 01:02:23.5	97.520	0.090	0.390	0.310
2020/01/31 01:02:23.6	97.490	0.090	0.420	0.310
2020/01/31 01:02:23.7	97.460	0.090	0.450	0.310
2020/01/31 01:02:23.8	97.440	0.080	0.470	0.310
2020/01/31 01:02:23.9	97.420	0.080	0.480	0.320
2020/01/31 01:02:24.0	97.380	0.080	0.490	0.310
2020/01/31 01:02:24.1	97.360	0.080	0.500	0.320
2020/01/31 01:02:24.2	97.350	0.080	0.510	0.320
2020/01/31 01:02:24.3	97.330	0.080	0.510	0.320
2020/01/31 01:02:24.4	97.310	0.080	0.500	0.320
2020/01/31 01:02:24.5	97.300	0.080	0.490	0.310
2020/01/31 01:02:24.6	97.290	0.080	0.470	0.310
2020/01/31 01:02:24.7	97.290	0.090	0.460	0.310
2020/01/31 01:02:24.8	97.280	0.090	0.430	0.300
2020/01/31 01:02:24.9	97.280	0.090	0.400	0.300
2020/01/31 01:02:25.0	97.270	0.100	0.370	0.290
2020/01/31 01:02:25.1	97.270	0.100	0.340	0.280
2020/01/31 01:02:25.2	97.270	0.110	0.300	0.270
2020/01/31 01:02:25.3	97.280	0.110	0.250	0.250
2020/01/31 01:02:25.4	97.290	0.120	0.200	0.240
2020/01/31 01:02:25.5	97.300	0.130	0.150	0.220
2020/01/31 01:02:25.6	97.320	0.130	0.100	0.200
2020/01/31 01:02:25.7	97.330	0.140	0.040	0.180
2020/01/31 01:02:25.8	97.350	0.150	-0.010	0.160
2020/01/31 01:02:25.9	97.370	0.160	-0.070	0.140
2020/01/31 01:02:26.0	97.400	0.170	-0.140	0.120
2020/01/31 01:02:26.1	97.430	0.180	-0.200	0.100
2020/01/31 01:02:26.2	97.450	0.190	-0.260	0.080
2020/01/31 01:02:26.3	97.470	0.200	-0.320	0.060
2020/01/31 01:02:26.4	97.500	0.210	-0.380	0.050
2020/01/31 01:02:26.5	97.520	0.230	-0.440	0.030
2020/01/31 01:02:26.6	97.540	0.240	-0.500	0.020
2020/01/31 01:02:26.7	97.560	0.250	-0.560	0.020
2020/01/31 01:02:26.8	97.580	0.260	-0.620	0.020
2020/01/31 01:02:26.9	97.600	0.270	-0.670	0.020
2020/01/31 01:02:27.0	97.620	0.290	-0.720	0.030
2020/01/31 01:02:27.1	97.640	0.300	-0.770	0.050
2020/01/31 01:02:27.2	97.650	0.310	-0.820	0.060
2020/01/31 01:02:27.3	97.660	0.320	-0.850	0.090
2020/01/31 01:02:27.4	97.670	0.330	-0.890	0.110
2020/01/31 01:02:27.5	97.680	0.330	-0.920	0.140
2020/01/31 01:02:27.6	97.690	0.340	-0.940	0.180
2020/01/31 01:02:27.7	97.700	0.340	-0.960	0.220
2020/01/31 01:02:27.8	97.700	0.350	-0.970	0.260
2020/01/31 01:02:27.9	97.710	0.350	-0.980	0.300
2020/01/31 01:02:28.0	97.730	0.350	-0.980	0.350
2020/01/31 01:02:28.1	97.730	0.340	-0.970	0.400
2020/01/31 01:02:28.2	97.740	0.340	-0.960	0.460
2020/01/31 01:02:28.3	97.740	0.330	-0.940	0.520
2020/01/31 01:02:28.4	97.750	0.320	-0.910	0.580
2020/01/31 01:02:28.5	97.750	0.300	-0.880	0.640
2020/01/31 01:02:28.6	97.750	0.290	-0.840	0.700
2020/01/31 01:02:28.7	97.760	0.270	-0.800	0.770
2020/01/31 01:02:28.8	97.760	0.250	-0.750	0.840
2020/01/31 01:02:28.9	97.770	0.230	-0.690	0.910
2020/01/31 01:02:29.0	97.770	0.210	-0.630	0.980
2020/01/31 01:02:29.1	97.770	0.180	-0.560	1.050
2020/01/31 01:02:29.2	97.780	0.150	-0.490	1.120
2020/01/31 01:02:29.3	97.780	0.120	-0.420	1.200
2020/01/31 01:02:29.4	97.780	0.090	-0.350	1.270
2020/01/31 01:02:29.5	97.780	0.060	-0.270	1.340
2020/01/31 01:02:29.6	97.790	0.030	-0.190	1.420
2020/01/31 01:02:29.7	97.790	-0.010	-0.110	1.490
2020/01/31 01:02:29.8	97.780	-0.040	-0.030	1.570
2020/01/31 01:02:29.9	97.780	-0.080	0.050	1.640
2020/01/31 01:02:30.0	97.780	-0.110	0.130	1.710
2020/01/31 01:02:30.1	97.780	-0.140	0.210	1.780
2020/01/31 01:02:30.2	97.770	-0.180	0.290	1.850
2020/01/31 01:02:30.3	97.770	-0.210	0.370	1.920
2020/01/31 01:02:30.4	97.760	-0.240	0.450	1.990
2020/01/31 01:02:30.5	97.760	-0.270	0.520	2.060
2020/01/31 01:02:30.6	97.750	-0.300	0.580	2.120
2020/01/31 01:02:30.7	97.750	-0.330	0.650	2.190
2020/01/31 01:02:30.8	97.740	-0.360	0.710	2.250
2020/01/31 01:02:30.9	97.730	-0.380	0.760	2.310
2020/01/31 01:02:31.0	97.720	-0.400	0.810	2.360
2020/01/31 01:02:31.1	97.710	-0.420	0.860	2.420
2020/01/31 01:02:31.2	97.710	-0.440	0.890	2.460
2020/01/31 01:02:31.3	97.700	-0.450	0.920	2.510
2020/01/31 01:02:31.4	97.690	-0.470	0.950	2.550
2020/01/31 01:02:31.5	97.690	-0.480	0.960	2.590
2020/01/31 01:02:31.6	97.680	-0.480	0.970	2.620
2020/01/31 01:02:31.7	97.670	-0.490	0.970	2.650
2020/01/31 01:02:31.8	97.670	-0.490	0.970	2.670
2020/01/31 01:02:31.9	97.660	-0.480	0.950	2.690
2020/01/31 01:02:32.0	97.650	-0.480	0.930	2.700
2020/01/31 01:02:32.1	97.640	-0.470	0.900	2.710
2020/01/31 01:02:32.2	97.640	-0.460	0.860	2.720
2020/01/31 01:02:32.3	97.630	-0.450	0.820	2.720
2020/01/31 01:02:32.4	97.630	-0.430	0.770	2.710
2020/01/31 01:02:32.5	97.620	-0.410	0.710	2.700
2020/01/31 01:02:32.6	97.620	-0.390	0.650	2.690
2020/01/31 01:02:32.7	97.610	-0.370	0.580	2.670
2020/01/31 01:02:32.8	97.610	-0.350	0.510	2.650
2020/01/31 01:02:32.9	97.610	-0.320	0.430	2.620
2020/01/31 01:02:33.0	97.610	-0.300	0.340	2.590
2020/01/31 01:02:33.1	97.610	-0.270	0.260	2.550
2020/01/31 01:02:33.2	97.600	-0.240	0.170	2.510
2020/01/31 01:02:33.3	97.600	-0.210	0.070	2.470
2020/01/31 01:02:33.4	97.600	-0.180	-0.020	2.420
2020/01/31 01:02:33.5	97.600	-0.150	-0.120	2.370
2020/01/31 01:02:33.6	97.600	-0.120	-0.210	2.310
2020/01/31 01:02:33.7	97.600	-0.090	-0.310	2.250
2020/01/31 01:02:33.8	97.600	-0.060	-0.400	2.180
2020/01/31 01:02:33.9	97.610	-0.030	-0.500	2.120
2020/01/31 01:02:34.0	97.610	0.000	-0.590	2.040
2020/01/31 01:02:34.1	97.620	0.030	-0.680	1.970
2020/01/31 01:02:34.2	97.620	0.050	-0.760	1.900
2020/01/31 01:02:34.3	97.630	0.080	-0.840	1.820
2020/01/31 01:02:34.4	97.640	0.100	-0.910	1.740
2020/01/31 01:02:34.5	97.640	0.120	-0.980	1.660
2020/01/31 01:02:34.6	97.650	0.140	-1.040	1.570
2020/01/31 01:02:34.7	97.660	0.150	-1.100	1.490
2020/01/31 01:02:34.8	97.670	0.160	-1.150	1.410
2020/01/31 01:02:34.9	97.680	0.170	-1.190	1.320
2020/01/31 01:02:35.0	97.700	0.180	-1.220	1.240
2020/01/31 01:02:35.1	97.720	0.190	-1.240	1.160
2020/01/31 01:02:35.2	97.730	0.190	-1.260	1.080
2020/01/31 01:02:35.3	97.740	0.190	-1.270	1.000
2020/01/31 01:02:35.4	97.760	0.190	-1.270	0.920
2020/01/31 01:02:35.5	97.770	0.190	-1.260	0.840
2020/01/31 01:02:35.6	97.790	0.180	-1.240	0.770
2020/01/31 01:02:35.7	97.800	0.180	-1.220	0.690
2020/01/31 01:02:35.8	97.820	0.170	-1.190	0.620
2020/01/31 01:02:35.9	97.830	0.160	-1.160	0.550
2020/01/31 01:02:36.0	97.860	0.150	-1.110	0.490
2020/01/31 01:02:36.1	97.880	0.140	-1.060	0.420
2020/01/31 01:02:36.2	97.890	0.120	-1.010	0.360
2020/01/31 01:02:36.3	97.900	0.110	-0.950	0.310
2020/01/31 01:02:36.4	97.910	0.100	-0.890	0.250
2020/01/31 01:02:36.5	97.930	0.080	-0.820	0.200
2020/01/31 01:02:36.6	97.940	0.070	-0.750	0.160
2020/01/31 01:02:36.7	97.940	0.060	-0.680	0.110
2020/01/31 01:02:36.8	97.950	0.040	-0.610	0.070
2020/01/31 01:02:36.9	97.960	0.030	-0.530	0.040
2020/01/31 01:02:37.0	97.950	0.020	-0.460	0.010
2020/01/31 01:02:37.1	97.950	0.010	-0.380	-0.020
2020/01/31 01:02:37.2	97.950	-0.000	-0.310	-0.040
2020/01/31 01:02:37.3	97.950	-0.010	-0.230	-0.070
2020/01/31 01:02:37.4	97.950	-0.020	-0.160	-0.080
2020/01/31 01:02:37.5	97.940	-0.030	-0.090	-0.100
2020/01/31 01:02:37.6	97.930	-0.040	-0.030	-0.110
2020/01/31 01:02:37.7	97.920	-0.040	0.040	-0.120
2020/01/31 01:02:37.8	97.920	-0.050	0.100	-0.120
2020/01/31 01:02:37.9	97.900	-0.050	0.160	-0.130
2020/01/31 01:02:38.0	97.900	-0.050	0.210	-0.130
2020/01/31 01:02:38.1	97.890	-0.060	0.260	-0.130
2020/01/31 01:02:38.2	97.880	-0.060	0.300	-0.120
2020/01/31 01:02:38.3	97.870	-0.060	0.340	-0.120
2020/01/31 01:02:38.4	97.860	-0.060	0.370	-0.110
2020/01/31 01:02:38.5	97.850	-0.060	0.400	-0.100
2020/01/31 01:02:38.6	97.840	-0.060	0.430	-0.090
2020/01/31 01:02:38.7	97.830	-0.050	0.450	-0.080
2020/01/31 01:02:38.8	97.830	-0.050	0.460	-0.060
2020/01/31 01:02:38.9	97.830	-0.050	0.470	-0.050
2020/01/31 01:02:39.0	97.830	-0.050	0.470	-0.030
2020/01/31 01:02:39.1	97.830	-0.040	0.470	-0.010
2020/01/31 01:02:39.2	97.830	-0.040	0.470	0.010
2020/01/31 01:02:39.3	97.830	-0.040	0.460	0.030
2020/01/31 01:02:39.4	97.840	-0.030	0.450	0.050
2020/01/31 01:02:39.5	97.840	-0.030	0.430	0.070
2020/01/31 01:02:39.6	97.840	-0.020	0.410	0.090
2020/01/31 01:02:39.7	97.850	-0.020	0.390	0.120
2020/01/31 01:02:39.8	97.850	-0.020	0.360	0.140
2020/01/31 01:02:39.9	97.860	-0.010	0.330	0.170
2020/01/31 01:02:40.0	97.870	-0.010	0.300	0.190
2020/01/31 01:02:40.1	97.870	-0.010	0.270	0.220
2020/01/31 01:02:40.2	97.880	-0.010	0.240	0.250
2020/01/31 01:02:40.3	97.880	-0.000	0.210	0.270
2020/01/31 01:02:40.4	97.890	0.000	0.180	0.300
2020/01/31 01:02:40.5	97.900	0.000	0.150	0.330
2020/01/31 01:02:40.6	97.900	0.010	0.120	0.360
2020/01/31 01:02:40.7	97.900	0.010	0.090	0.390
2020/01/31 01:02:40.8	97.910	0.010	0.060	0.410
2020/01/31 01:02:40.9	97.910	0.010	0.030	0.440
2020/01/31 01:02:41.0	97.920	0.020	0.010	0.470
2020/01/31 01:02:41.1	97.920	0.020	-0.020	0.500
2020/01/31 01:02:41.2	97.920	0.020	-0.040	0.530
2020/01/31 01:02:41.3	97.930	0.030	-0.060	0.560
2020/01/31 01:02:41.4	97.930	0.030	-0.080	0.590
2020/01/31 01:02:41.5	97.930	0.040	-0.100	0.620
2020/01/31 01:02:41.6	97.930	0.040	-0.110	0.650
2020/01/31 01:02:41.7	97.930	0.050	-0.130	0.680
2020/01/31 01:02:41.8	97.930	0.060	-0.140	0.710
2020/01/31 01:02:41.9	97.930	0.060	-0.150	0.740
2020/01/31 01:02:42.0	97.920	0.070	-0.160	0.770
2020/01/31 01:02:42.1	97.920	0.080	-0.170	0.800
2020/01/31 01:02:42.2	97.920	0.090	-0.180	0.830
2020/01/31 01:02:42.3	97.910	0.100	-0.190	0.870
2020/01/31 01:02:42.4	97.910	0.110	-0.200	0.900
2020/01/31 01:02:42.5	97.910	0.120	-0.210	0.930
2020/01/31 01:02:42.6	97.900	0.130	-0.220	0.970
2020/01/31 01:02:42.7	97.900	0.140	-0.220	1.000
2020/01/31 01:02:42.8	97.890	0.150	-0.230	1.040
2020/01/31 01:02:42.9	97.890	0.160	-0.240	1.070
2020/01/31 01:02:43.0	97.880	0.180	-0.260	1.100
2020/01/31 01:02:43.1	97.880	0.190	-0.270	1.130
2020/01/31 01:02:43.2	97.870	0.200	-0.280	1.170
2020/01/31 01:02:43.3	97.870	0.210	-0.300	1.200
2020/01/31 01:02:43.4	97.870	0.230	-0.320	1.230
2020/01/31 01:02:43.5	97.870	0.240	-0.330	1.260
2020/01/31 01:02:43.6	97.870	0.250	-0.350	1.290
2020/01/31 01:02:43.7	97.860	0.260	-0.370	1.320
2020/01/31 01:02:43.8	97.860	0.280	-0.400	1.350
2020/01/31 01:02:43.9	97.860	0.290	-0.420	1.380
2020/01/31 01:02:44.0	97.860	0.300	-0.440	1.410
2020/01/31 01:02:44.1	97.860	0.310	-0.470	1.440
2020/01/31 01:02:44.2	97.860	0.320	-0.490	1.470
2020/01/31 01:02:44.3	97.860	0.330	-0.520	1.490
2020/01/31 01:02:44.4	97.860	0.340	-0.550	1.520
2020/01/31 01:02:44.5	97.860	0.350	-0.570	1.540
2020/01/31 01:02:44.6	97.870	0.360	-0.590	1.570
2020/01/31 01:02:44.7	97.870	0.360	-0.620	1.590
2020/01/31 01:02:44.8	97.870	0.370	-0.640	1.610
2020/01/31 01:02:44.9	97.880	0.370	-0.660	1.640
2020/01/31 01:02:45.0	97.880	0.380	-0.670	1.660
2020/01/31 01:02:45.1	97.890	0.380	-0.690	1.680
2020/01/31 01:02:45.2	97.890	0.380	-0.700	1.700
2020/01/31 01:02:45.3	97.900	0.380	-0.710	1.710
2020/01/31 01:02:45.4	97.910	0.380	-0.710	1.730
2020/01/31 01:02:45.5	97.920	0.370	-0.710	1.740
2020/01/31 01:02:45.6	97.930	0.370	-0.710	1.760
2020/01/31 01:02:45.7	97.940	0.360	-0.700	1.770
2020/01/31 01:02:45.8	97.950	0.350	-0.690	1.780
2020/01/31 01:02:45.9	97.970	0.340	-0.670	1.790
2020/01/31 01:02:46.0	97.980	0.330	-0.650	1.800
2020/01/31 01:02:46.1	98.000	0.310	-0.630	1.800
2020/01/31 01:02:46.2	98.010	0.300	-0.600	1.810
2020/01/31 01:02:46.3	98.030	0.280	-0.560	1.810
2020/01/31 01:02:46.4	98.050	0.260	-0.520	1.810
2020/01/31 01:02:46.5	98.060	0.240	-0.480	1.810
2020/01/31 01:02:46.6	98.080	0.220	-0.430	1.810
2020/01/31 01:02:46.7	98.100	0.200	-0.380	1.810
2020/01/31 01:02:46.8	98.110	0.170	-0.320	1.810
2020/01/31 01:02:46.9	98.130	0.150	-0.260	1.810
2020/01/31 01:02:47.0	98.150	0.120	-0.200	1.800
2020/01/31 01:02:47.1	98.160	0.090	-0.130	1.800
2020/01/31 01:02:47.2	98.180	0.070	-0.070	1.790
2020/01/31 01:02:47.3	98.190	0.040	0.000	1.790
2020/01/31 01:02:47.4	98.210	0.010	0.070	1.780
2020/01/31 01:02:47.5	98.220	-0.020	0.140	1.770
2020/01/31 01:02:47.6	98.230	-0.050	0.210	1.760
2020/01/31 01:02:47.7	98.240	-0.080	0.280	1.760
2020/01/31 01:02:47.8	98.250	-0.110	0.350	1.750
2020/01/31 01:02:47.9	98.260	-0.140	0.420	1.740
2020/01/31 01:02:48.0	98.250	-0.170	0.480	1.720
2020/01/31 01:02:48.1	98.250	-0.200	0.540	1.710
2020/01/31 01:02:48.2	98.260	-0.230	0.600	1.700
2020/01/31 01:02:48.3	98.260	-0.260	0.660	1.680
2020/01/31 01:02:48.4	98.260	-0.280	0.710	1.670
2020/01/31 01:02:48.5	98.260	-0.310	0.760	1.650
2020/01/31 01:02:48.6	98.260	-0.340	0.810	1.630
2020/01/31 01:02:48.7	98.260	-0.360	0.850	1.610
2020/01/31 01:02:48.8	98.260	-0.390	0.880	1.580
2020/01/31 01:02:48.9	98.250	-0.410	0.910	1.560
2020/01/31 01:02:49.0	98.250	-0.430	0.930	1.530
2020/01/31 01:02:49.1	98.250	-0.450	0.950	1.500
2020/01/31 01:02:49.2	98.240	-0.470	0.960	1.470
2020/01/31 01:02:49.3	98.240	-0.490	0.970	1.430
2020/01/31 01:02:49.4	98.240	-0.510	0.970	1.400
2020/01/31 01:02:49.5	98.230	-0.530	0.960	1.360
2020/01/31 01:02:49.6	98.230	-0.540	0.950	1.320
2020/01/31 01:02:49.7	98.230	-0.550	0.930	1.280
2020/01/31 01:02:49.8	98.230	-0.560	0.910	1.240
2020/01/31 01:02:49.9	98.220	-0.570	0.870	1.200
2020/01/31 01:02:50.0	98.240	-0.580	0.830	1.150
2020/01/31 01:02:50.1	98.240	-0.590	0.790	1.110
2020/01/31 01:02:50.2	98.240	-0.590	0.730	1.060
2020/01/31 01:02:50.3	98.240	-0.590	0.680	1.020
2020/01/31 01:02:50.4	98.240	-0.590	0.610	0.970
2020/01/31 01:02:50.5	98.240	-0.590	0.540	0.920
2020/01/31 01:02:50.6	98.240	-0.580	0.470	0.880
2020/01/31 01:02:50.7	98.240	-0.580	0.390	0.840
2020/01/31 01:02:50.8	98.240	-0.570	0.300	0.790
2020/01/31 01:02:50.9	98.240	-0.560	0.210	0.750
2020/01/31 01:02:51.0	98.240	-0.540	0.120	0.720
2020/01/31 01:02:51.1	98.230	-0.530	0.030	0.680
2020/01/31 01:02:51.2	98.230	-0.510	-0.070	0.640
2020/01/31 01:02:51.3	98.230	-0.490	-0.170	0.610
2020/01/31 01:02:51.4	98.230	-0.470	-0.270	0.580
2020/01/31 01:02:51.5	98.230	-0.450	-0.370	0.550
2020/01/31 01:02:51.6	98.230	-0.420	-0.470	0.520
2020/01/31 01:02:51.7	98.230	-0.400	-0.570	0.490
2020/01/31 01:02:51.8	98.230	-0.370	-0.670	0.470
2020/01/31 01:02:51.9	98.230	-0.340	-0.770	0.440
2020/01/31 01:02:52.0	98.240	-0.310	-0.860	0.420
2020/01/31 01:02:52.1	98.250	-0.280	-0.950	0.400
2020/01/31 01:02:52.2	98.250	-0.250	-1.040	0.370
2020/01/31 01:02:52.3	98.250	-0.220	-1.120	0.350
2020/01/31 01:02:52.4	98.250	-0.180	-1.190	0.340
2020/01/31 01:02:52.5	98.250	-0.150	-1.260	0.320
2020/01/31 01:02:52.6	98.250	-0.120	-1.320	0.300
2020/01/31 01:02:52.7	98.250	-0.090	-1.380	0.280
2020/01/31 01:02:52.8	98.260	-0.060	-1.430	0.270
2020/01/31 01:02:52.9	98.260	-0.020	-1.470	0.250
2020/01/31 01:02:53.0	98.270	0.010	-1.500	0.240
2020/01/31 01:02:53.1	98.270	0.030	-1.520	0.230
2020/01/31 01:02:53.2	98.270	0.060	-1.540	0.220
2020/01/31 01:02:53.3	98.270	0.090	-1.540	0.210
2020/01/31 01:02:53.4	98.280	0.120	-1.540	0.200
2020/01/31 01:02:53.5	98.280	0.140	-1.530	0.190
2020/01/31 01:02:53.6	98.280	0.160	-1.510	0.180
2020/01/31 01:02:53.7	98.280	0.180	-1.490	0.180
2020/01/31 01:02:53.8	98.280	0.200	-1.450	0.180
2020/01/31 01:02:53.9	98.280	0.220	-1.410	0.180
2020/01/31 01:02:54.0	98.280	0.240	-1.360	0.180
2020/01/31 01:02:54.1	98.280	0.250	-1.300	0.180
2020/01/31 01:02:54.2	98.280	0.260	-1.240	0.190
2020/01/31 01:02:54.3	98.280	0.270	-1.170	0.200
2020/01/31 01:02:54.4	98.280	0.280	-1.100	0.210
2020/01/31 01:02:54.5	98.270	0.290	-1.030	0.220
2020/01/31 01:02:54.6	98.270	0.290	-0.950	0.240
2020/01/31 01:02:54.7	98.270	0.300	-0.870	0.250
2020/01/31 01:02:54.8	98.260	0.300	-0.780	0.270
2020/01/31 01:02:54.9	98.260	0.300	-0.700	0.300
2020/01/31 01:02:55.0	98.250	0.300	-0.610	0.330
2020/01/31 01:02:55.1	98.240	0.300	-0.520	0.350
2020/01/31 01:02:55.2	98.230	0.290	-0.430	0.380
2020/01/31 01:02:55.3	98.220	0.290	-0.340	0.420
2020/01/31 01:02:55.4	98.210	0.280	-0.250	0.450
2020/01/31 01:02:55.5	98.200	0.270	-0.160	0.490
2020/01/31 01:02:55.6	98.190	0.260	-0.080	0.530
2020/01/31 01:02:55.7	98.180	0.250	0.010	0.560
2020/01/31 01:02:55.8	98.170	0.240	0.090	0.600
2020/01/31 01:02:55.9	98.150	0.230	0.160	0.640
2020/01/31 01:02:56.0	98.130	0.220	0.240	0.680
2020/01/31 01:02:56.1	98.120	0.210	0.310	0.720
2020/01/31 01:02:56.2	98.110	0.190	0.380	0.760
2020/01/31 01:02:56.3	98.090	0.180	0.450	0.800
2020/01/31 01:02:56.4	98.080	0.170	0.510	0.830
2020/01/31 01:02:56.5	98.070	0.150	0.570	0.870
2020/01/31 01:02:56.6	98.060	0.140	0.620	0.900
2020/01/31 01:02:56.7	98.050	0.130	0.670	0.930
2020/01/31 01:02:56.8	98.050	0.110	0.720	0.950
2020/01/31 01:02:56.9	98.040	0.100	0.760	0.980
2020/01/31 01:02:57.0	98.040	0.090	0.790	1.000
2020/01/31 01:02:57.1	98.040	0.080	0.820	1.020
2020/01/31 01:02:57.2	98.030	0.070	0.850	1.030
2020/01/31 01:02:57.3	98.030	0.060	0.870	1.040
2020/01/31 01:02:57.4	98.030	0.050	0.880	1.050
2020/01/31 01:02:57.5	98.040	0.040	0.890	1.060
2020/01/31 01:02:57.6	98.040	0.040	0.900	1.070
2020/01/31 01:02:57.7	98.040	0.030	0.900	1.070
2020/01/31 01:02:57.8	98.050	0.030	0.890	1.070
2020/01/31 01:02:57.9	98.050	0.020	0.880	1.070
2020/01/31 01:02:58.0	98.060	0.020	0.860	1.060
2020/01/31 01:02:58.1	98.060	0.020	0.840	1.060
2020/01/31 01:02:58.2	98.070	0.020	0.810	1.050
2020/01/31 01:02:58.3	98.080	0.020	0.780	1.040
2020/01/31 01:02:58.4	98.080	0.030	0.750	1.030
2020/01/31 01:02:58.5	98.090	0.030	0.710	1.020
2020/01/31 01:02:58.6	98.100	0.030	0.660	1.000
2020/01/31 01:02:58.7	98.100	0.040	0.620	0.990
2020/01/31 01:02:58.8	98.110	0.040	0.570	0.980
2020/01/31 01:02:58.9	98.120	0.050	0.510	0.970
2020/01/31 01:02:59.0	98.120	0.060	0.460	0.960
2020/01/31 01:02:59.1	98.120	0.060	0.400	0.940
2020/01/31 01:02:59.2	98.130	0.070	0.340	0.930
2020/01/31 01:02:59.3	98.130	0.080	0.280	0.920
2020/01/31 01:02:59.4	98.130	0.090	0.220	0.920
2020/01/31 01:02:59.5	98.130	0.090	0.160	0.910
2020/01/31 01:02:59.6	98.130	0.100	0.090	0.900
2020/01/31 01:02:59.7	98.130	0.110	0.030	0.900
2020/01/31 01:02:59.8	98.130	0.120	-0.030	0.890
2020/01/31 01:02:59.9	98.130	0.120	-0.090	0.890
2020/01/31 01:03:00.0	98.120	0.130	-0.160	0.890
2020/01/31 01:03:00.1	98.120	0.140	-0.220	0.890
2020/01/31 01:03:00.2	98.120	0.140	-0.270	0.890
2020/01/31 01:03:00.3	98.110	0.150	-0.330	0.890
2020/01/31 01:03:00.4	98.110	0.150	-0.390	0.900
2020/01/31 01:03:00.5	98.100	0.150	-0.440	0.900
2020/01/31 01:03:00.6	98.100	0.160	-0.490	0.910
2020/01/31 01:03:00.7	98.100	0.160	-0.540	0.910
2020/01/31 01:03:00.8	98.090	0.160	-0.590	0.920
2020/01/31 01:03:00.9	98.090	0.160	-0.630	0.930
2020/01/31 01:03:01.0	98.080	0.160	-0.680	0.940
2020/01/31 01:03:01.1	98.080	0.160	-0.720	0.950
2020/01/31 01:03:01.2	98.080	0.160	-0.760	0.960
2020/01/31 01:03:01.3	98.080	0.160	-0.790	0.970
2020/01/31 01:03:01.4	98.080	0.160	-0.830	0.980
2020/01/31 01:03:01.5	98.080	0.160	-0.860	1.000
2020/01/31 01:03:01.6	98.080	0.150	-0.890	1.010
2020/01/31 01:03:01.7	98.090	0.150	-0.910	1.030
2020/01/31 01:03:01.8	98.090	0.150	-0.940	1.040
2020/01/31 01:03:01.9	98.100	0.150	-0.950	1.060
2020/01/31 01:03:02.0	98.120	0.150	-0.970	1.070
2020/01/31 01:03:02.1	98.130	0.140	-0.980	1.090
2020/01/31 01:03:02.2	98.140	0.140	-0.990	1.110
2020/01/31 01:03:02.3	98.150	0.140	-0.990	1.120
2020/01/31 01:03:02.4	98.150	0.130	-0.990	1.140
2020/01/31 01:03:02.5	98.160	0.130	-0.990	1.170
2020/01/31 01:03:02.6	98.170	0.120	-0.980	1.190
2020/01/31 01:03:02.7	98.180	0.120	-0.960	1.210
2020/01/31 01:03:02.8	98.190	0.110	-0.940	1.230
2020/01/31 01:03:02.9	98.210	0.110	-0.920	1.250
2020/01/31 01:03:03.0	98.210	0.100	-0.890	1.280
2020/01/31 01:03:03.1	98.220	0.090	-0.850	1.300
2020/01/31 01:03:03.2	98.240	0.080	-0.810	1.320
2020/01/31 01:03:03.3	98.250	0.070	-0.770	1.340
2020/01/31 01:03:03.4	98.260	0.060	-0.720	1.370
2020/01/31 01:03:03.5	98.270	0.050	-0.660	1.390
2020/01/31 01:03:03.6	98.290	0.030	-0.600	1.410
2020/01/31 01:03:03.7	98.300	0.020	-0.540	1.430
2020/01/31 01:03:03.8	98.310	0.000	-0.470	1.450
2020/01/31 01:03:03.9	98.310	-0.010	-0.400	1.480
2020/01/31 01:03:04.0	98.320	-0.030	-0.330	1.500
2020/01/31 01:03:04.1	98.330	-0.050	-0.250	1.520
2020/01/31 01:03:04.2	98.330	-0.070	-0.170	1.540
2020/01/31 01:03:04.3	98.330	-0.090	-0.100	1.560
2020/01/31 01:03:04.4	98.330	-0.120	-0.020	1.580
2020/01/31 01:03:04.5	98.330	-0.140	0.060	1.600
2020/01/31 01:03:04.6	98.330	-0.160	0.140	1.610
2020/01/31 01:03:04.7	98.320	-0.190	0.220	1.630
2020/01/31 01:03:04.8	98.320	-0.210	0.300	1.650
2020/01/31 01:03:04.9	98.310	-0.240	0.370	1.660
2020/01/31 01:03:05.0	98.300	-0.260	0.450	1.670
2020/01/31 01:03:05.1	98.290	-0.280	0.510	1.680
2020/01/31 01:03:05.2	98.270	-0.310	0.580	1.690
2020/01/31 01:03:05.3	98.260	-0.330	0.640	1.690
2020/01/31 01:03:05.4	98.240	-0.350	0.690	1.690
2020/01/31 01:03:05.5	98.220	-0.370	0.740	1.690
2020/01/31 01:03:05.6	98.200	-0.390	0.790	1.690
2020/01/31 01:03:05.7	98.180	-0.410	0.830	1.680
2020/01/31 01:03:05.8	98.160	-0.420	0.860	1.680
2020/01/31 01:03:05.9	98.140	-0.440	0.880	1.660
2020/01/31 01:03:06.0	98.110	-0.450	0.900	1.650
2020/01/31 01:03:06.1	98.090	-0.460	0.910	1.630
2020/01/31 01:03:06.2	98.060	-0.460	0.910	1.610
2020/01/31 01:03:06.3	98.040	-0.470	0.900	1.580
2020/01/31 01:03:06.4	98.020	-0.470	0.890	1.550
2020/01/31 01:03:06.5	98.000	-0.470	0.870	1.520
2020/01/31 01:03:06.6	97.980	-0.460	0.850	1.490
2020/01/31 01:03:06.7	97.960	-0.460	0.810	1.450
2020/01/31 01:03:06.8	97.940	-0.450	0.770	1.410
2020/01/31 01:03:06.9	97.920	-0.430	0.730	1.370
2020/01/31 01:03:07.0	97.900	-0.420	0.680	1.320
2020/01/31 01:03:07.1	97.880	-0.400	0.620	1.270
2020/01/31 01:03:07.2	97.860	-0.380	0.550	1.220
2020/01/31 01:03:07.3	97.850	-0.360	0.480	1.170
2020/01/31 01:03:07.4	97.840	-0.330	0.410	1.120
2020/01/31 01:03:07.5	97.820	-0.310	0.330	1.060
2020/01/31 01:03:07.6	97.810	-0.280	0.250	1.000
2020/01/31 01:03:07.7	97.800	-0.250	0.160	0.950
2020/01/31 01:03:07.8	97.790	-0.210	0.070	0.890
2020/01/31 01:03:07.9	97.780	-0.180	-0.020	0.830
2020/01/31 01:03:08.0	97.770	-0.140	-0.110	0.770
2020/01/31 01:03:08.1	97.770	-0.110	-0.210	0.710
2020/01/31 01:03:08.2	97.760	-0.070	-0.300	0.650
2020/01/31 01:03:08.3	97.760	-0.030	-0.400	0.600
2020/01/31 01:03:08.4	97.760	0.000	-0.490	0.540
2020/01/31 01:03:08.5	97.760	0.040	-0.580	0.480
2020/01/31 01:03:08.6	97.760	0.080	-0.670	0.420
2020/01/31 01:03:08.7	97.770	0.120	-0.760	0.370
2020/01/31 01:03:08.8	97.770	0.150	-0.850	0.310
2020/01/31 01:03:08.9	97.780	0.190	-0.920	0.260
2020/01/31 01:03:09.0	97.790	0.220	-1.000	0.210
2020/01/31 01:03:09.1	97.800	0.250	-1.070	0.160
2020/01/31 01:03:09.2	97.820	0.280	-1.130	0.110
2020/01/31 01:03:09.3	97.840	0.310	-1.190	0.060
2020/01/31 01:03:09.4	97.860	0.330	-1.240	0.020
2020/01/31 01:03:09.5	97.880	0.350	-1.280	-0.020
2020/01/31 01:03:09.6	97.900	0.370	-1.310	-0.060
2020/01/31 01:03:09.7	97.920	0.390	-1.340	-0.090
2020/01/31 01:03:09.8	97.950	0.400	-1.360	-0.130
2020/01/31 01:03:09.9	97.970	0.410	-1.360	-0.150
2020/01/31 01:03:10.0	98.020	0.420	-1.360	-0.180
2020/01/31 01:03:10.1	98.050	0.420	-1.360	-0.200
2020/01/31 01:03:10.2	98.080	0.420	-1.340	-0.220
2020/01/31 01:03:10.3	98.100	0.410	-1.310	-0.230
2020/01/31 01:03:10.4	98.130	0.410	-1.280	-0.240
2020/01/31 01:03:10.5	98.160	0.400	-1.240	-0.250
2020/01/31 01:03:10.6	98.180	0.380	-1.190	-0.260
2020/01/31 01:03:10.7	98.210	0.370	-1.130	-0.260
2020/01/31 01:03:10.8	98.240	0.350	-1.070	-0.260
2020/01/31 01:03:10.9	98.260	0.320	-1.000	-0.250
2020/01/31 01:03:11.0	98.290	0.300	-0.920	-0.240
2020/01/31 01:03:11.1	98.310	0.270	-0.840	-0.230
2020/01/31 01:03:11.2	98.330	0.250	-0.750	-0.210
2020/01/31 01:03:11.3	98.350	0.220	-0.660	-0.200
2020/01/31 01:03:11.4	98.370	0.180	-0.560	-0.180
2020/01/31 01:03:11.5	98.390	0.150	-0.470	-0.160
2020/01/31 01:03:11.6	98.400	0.120	-0.370	-0.130
2020/01/31 01:03:11.7	98.410	0.080	-0.270	-0.100
2020/01/31 01:03:11.8	98.420	0.050	-0.170	-0.070
2020/01/31 01:03:11.9	98.420	0.010	-0.070	-0.040
2020/01/31 01:03:12.0	98.430	-0.020	0.030	-0.010
2020/01/31 01:03:12.1	98.430	-0.060	0.130	0.030
2020/01/31 01:03:12.2	98.430	-0.090	0.230	0.070
2020/01/31 01:03:12.3	98.420	-0.130	0.320	0.120
2020/01/31 01:03:12.4	98.420	-0.160	0.410	0.160
2020/01/31 01:03:12.5	98.410	-0.190	0.490	0.210
2020/01/31 01:03:12.6	98.390	-0.220	0.570	0.270
2020/01/31 01:03:12.7	98.380	-0.250	0.640	0.320
2020/01/31 01:03:12.8	98.360	-0.280	0.710	0.380
2020/01/31 01:03:12.9	98.340	-0.300	0.770	0.440
2020/01/31 01:03:13.0	98.310	-0.320	0.820	0.500
2020/01/31 01:03:13.1	98.280	-0.340	0.870	0.570
2020/01/31 01:03:13.2	98.260	-0.360	0.900	0.630
2020/01/31 01:03:13.3	98.230	-0.380	0.930	0.700
2020/01/31 01:03:13.4	98.210	-0.390	0.950	0.770
2020/01/31 01:03:13.5	98.180	-0.400	0.970	0.840
2020/01/31 01:03:13.6	98.150	-0.410	0.970	0.910
2020/01/31 01:03:13.7	98.120	-0.410	0.970	0.980
2020/01/31 01:03:13.8	98.090	-0.410	0.960	1.050
2020/01/31 01:03:13.9	98.060	-0.410	0.940	1.130
2020/01/31 01:03:14.0	98.030	-0.400	0.920	1.200
2020/01/31 01:03:14.1	98.000	-0.400	0.890	1.270
2020/01/31 01:03:14.2	97.970	-0.390	0.850	1.340
2020/01/31 01:03:14.3	97.940	-0.370	0.800	1.400
2020/01/31 01:03:14.4	97.910	-0.360	0.750	1.470
2020/01/31 01:03:14.5	97.880	-0.340	0.700	1.540
2020/01/31 01:03:14.6	97.850	-0.320	0.640	1.600
2020/01/31 01:03:14.7	97.830	-0.300	0.570	1.670
2020/01/31 01:03:14.8	97.800	-0.280	0.500	1.730
2020/01/31 01:03:14.9	97.770	-0.260	0.430	1.780
2020/01/31 01:03:15.0	97.760	-0.230	0.350	1.840
2020/01/31 01:03:15.1	97.740	-0.210	0.280	1.890
2020/01/31 01:03:15.2	97.720	-0.180	0.200	1.940
2020/01/31 01:03:15.3	97.700	-0.150	0.130	1.990
2020/01/31 01:03:15.4	97.680	-0.120	0.050	2.030
2020/01/31 01:03:15.5	97.670	-0.100	-0.030	2.060
2020/01/31 01:03:15.6	97.660	-0.070	-0.100	2.100
2020/01/31 01:03:15.7	97.650	-0.040	-0.170	2.130
2020/01/31 01:03:15.8	97.650	-0.020	-0.240	2.150
2020/01/31 01:03:15.9	97.640	0.010	-0.310	2.170
2020/01/31 01:03:16.0	97.650	0.030	-0.370	2.180
2020/01/31 01:03:16.1	97.650	0.050	-0.440	2.190
2020/01/31 01:03:16.2	97.660	0.070	-0.490	2.200
2020/01/31 01:03:16.3	97.670	0.100	-0.550	2.200
2020/01/31 01:03:16.4	97.680	0.120	-0.600	2.190
2020/01/31 01:03:16.5	97.690	0.130	-0.640	2.180
2020/01/31 01:03:16.6	97.700	0.150	-0.680	2.170
2020/01/31 01:03:16.7	97.720	0.170	-0.720	2.150
2020/01/31 01:03:16.8	97.730	0.190	-0.750	2.130
2020/01/31 01:03:16.9	97.750	0.200	-0.780	2.110
2020/01/31 01:03:17.0	97.770	0.210	-0.800	2.080
2020/01/31 01:03:17.1	97.790	0.230	-0.820	2.040
2020/01/31 01:03:17.2	97.820	0.240	-0.840	2.010
2020/01/31 01:03:17.3	97.840	0.250	-0.850	1.970
2020/01/31 01:03:17.4	97.860	0.260	-0.860	1.930
2020/01/31 01:03:17.5	97.890	0.280	-0.860	1.890
2020/01/31 01:03:17.6	97.920	0.290	-0.860	1.850
2020/01/31 01:03:17.7	97.940	0.300	-0.860	1.800
2020/01/31 01:03:17.8	97.970	0.310	-0.860	1.750
2020/01/31 01:03:17.9	98.000	0.320	-0.850	1.710
2020/01/31 01:03:18.0	98.020	0.330	-0.840	1.660
2020/01/31 01:03:18.1	98.050	0.340	-0.830	1.610
2020/01/31 01:03:18.2	98.080	0.350	-0.810	1.560
2020/01/31 01:03:18.3	98.100	0.360	-0.800	1.510
2020/01/31 01:03:18.4	98.130	0.370	-0.780	1.460
2020/01/31 01:03:18.5	98.160	0.390	-0.760	1.410
2020/01/31 01:03:18.6	98.180	0.400	-0.740	1.360
2020/01/31 01:03:18.7	98.210	0.410	-0.710	1.310
2020/01/31 01:03:18.8	98.230	0.420	-0.690	1.260
2020/01/31 01:03:18.9	98.260	0.420	-0.660	1.220
2020/01/31 01:03:19.0	98.280	0.430	-0.630	1.180
2020/01/31 01:03:19.1	98.300	0.440	-0.600	1.130
2020/01/31 01:03:19.2	98.310	0.450	-0.570	1.090
2020/01/31 01:03:19.3	98.330	0.450	-0.540	1.060
2020/01/31 01:03:19.4	98.350	0.460	-0.510	1.020
2020/01/31 01:03:19.5	98.360	0.460	-0.470	0.990
2020/01/31 01:03:19.6	98.370	0.460	-0.440	0.960
2020/01/31 01:03:19.7	98.380	0.460	-0.400	0.930
2020/01/31 01:03:19.8	98.380	0.460	-0.360	0.900
2020/01/31 01:03:19.9	98.380	0.450	-0.320	0.880
2020/01/31 01:03:20.0	98.380	0.450	-0.280	0.850
2020/01/31 01:03:20.1	98.380	0.440	-0.240	0.840
2020/01/31 01:03:20.2	98.370	0.420	-0.200	0.820
2020/01/31 01:03:20.3	98.370	0.410	-0.160	0.800
2020/01/31 01:03:20.4	98.360	0.400	-0.120	0.790
2020/01/31 01:03:20.5	98.340	0.380	-0.070	0.780
2020/01/31 01:03:20.6	98.330	0.360	-0.030	0.770
2020/01/31 01:03:20.7	98.320	0.330	0.010	0.770
2020/01/31 01:03:20.8	98.300	0.310	0.050	0.760
2020/01/31 01:03:20.9	98.280	0.280	0.090	0.760
2020/01/31 01:03:21.0	98.260	0.250	0.130	0.760
2020/01/31 01:03:21.1	98.240	0.220	0.160	0.760
2020/01/31 01:03:21.2	98.220	0.190	0.200	0.760
2020/01/31 01:03:21.3	98.200	0.160	0.230	0.770
2020/01/31 01:03:21.4	98.180	0.120	0.270	0.770
2020/01/31 01:03:21.5	98.160	0.080	0.300	0.780
2020/01/31 01:03:21.6	98.140	0.050	0.330	0.790
2020/01/31 01:03:21.7	98.110	0.010	0.350	0.800
2020/01/31 01:03:21.8	98.090	-0.030	0.380	0.820
2020/01/31 01:03:21.9	98.070	-0.070	0.400	0.830
2020/01/31 01:03:22.0	98.050	-0.110	0.420	0.850
2020/01/31 01:03:22.1	98.030	-0.150	0.440	0.860
2020/01/31 01:03:22.2	98.000	-0.180	0.450	0.880
2020/01/31 01:03:22.3	97.980	-0.220	0.460	0.900
2020/01/31 01:03:22.4	97.960	-0.260	0.470	0.920
2020/01/31 01:03:22.5	97.940	-0.290	0.470	0.940
2020/01/31 01:03:22.6	97.920	-0.320	0.480	0.960
2020/01/31 01:03:22.7	97.900	-0.360	0.470	0.990
2020/01/31 01:03:22.8	97.890	-0.390	0.470	1.010
2020/01/31 01:03:22.9	97.870	-0.410	0.470	1.030
2020/01/31 01:03:23.0	97.860	-0.440	0.460	1.040
2020/01/31 01:03:23.1	97.840	-0.460	0.450	1.060
2020/01/31 01:03:23.2	97.830	-0.480	0.430	1.080
2020/01/31 01:03:23.3	97.820	-0.500	0.420	1.100
2020/01/31 01:03:23.4	97.800	-0.520	0.400	1.120
2020/01/31 01:03:23.5	97.790	-0.530	0.380	1.130
2020/01/31 01:03:23.6	97.780	-0.540	0.360	1.140
2020/01/31 01:03:23.7	97.780	-0.540	0.330	1.150
2020/01/31 01:03:23.8	97.770	-0.550	0.300	1.160
2020/01/31 01:03:23.9	97.770	-0.550	0.270	1.170
2020/01/31 01:03:24.0	97.760	-0.550	0.240	1.180
2020/01/31 01:03:24.1	97.760	-0.550	0.210	1.180
2020/01/31 01:03:24.2	97.770	-0.540	0.170	1.180
2020/01/31 01:03:24.3	97.770	-0.530	0.130	1.180
2020/01/31 01:03:24.4	97.770	-0.520	0.090	1.180
2020/01/31 01:03:24.5	97.780	-0.500	0.050	1.170
2020/01/31 01:03:24.6	97.790	-0.490	0.010	1.170
2020/01/31 01:03:24.7	97.800	-0.470	-0.040	1.160
2020/01/31 01:03:24.8	97.810	-0.450	-0.080	1.150
2020/01/31 01:03:24.9	97.820	-0.430	-0.130	1.140
2020/01/31 01:03:25.0	97.830	-0.400	-0.170	1.130
2020/01/31 01:03:25.1	97.850	-0.380	-0.220	1.120
2020/01/31 01:03:25.2	97.860	-0.350	-0.270	1.110
2020/01/31 01:03:25.3	97.870	-0.320	-0.330	1.100
2020/01/31 01:03:25.4	97.890	-0.290	-0.380	1.090
2020/01/31 01:03:25.5	97.900	-0.260	-0.430	1.090
2020/01/31 01:03:25.6	97.920	-0.230	-0.480	1.080
2020/01/31 01:03:25.7	97.930	-0.200	-0.530	1.070
2020/01/31 01:03:25.8	97.950	-0.170	-0.580	1.060
2020/01/31 01:03:25.9	97.960	-0.140	-0.620	1.060
2020/01/31 01:03:26.0	97.970	-0.110	-0.670	1.050
2020/01/31 01:03:26.1	97.980	-0.080	-0.720	1.050
2020/01/31 01:03:26.2	98.000	-0.050	-0.760	1.040
2020/01/31 01:03:26.3	98.010	-0.020	-0.790	1.030
2020/01/31 01:03:26.4	98.020	0.010	-0.830	1.030
2020/01/31 01:03:26.5	98.030	0.040	-0.860	1.020
2020/01/31 01:03:26.6	98.040	0.070	-0.880	1.020
2020/01/31 01:03:26.7	98.050	0.090	-0.900	1.010
2020/01/31 01:03:26.8	98.070	0.120	-0.920	1.010
2020/01/31 01:03:26.9	98.080	0.140	-0.930	1.000
2020/01/31 01:03:27.0	98.100	0.160	-0.930	0.990
2020/01/31 01:03:27.1	98.110	0.180	-0.930	0.990
2020/01/31 01:03:27.2	98.120	0.190	-0.920	0.980
2020/01/31 01:03:27.3	98.120	0.200	-0.910	0.980
2020/01/31 01:03:27.4	98.130	0.220	-0.890	0.970
2020/01/31 01:03:27.5	98.140	0.220	-0.870	0.970
2020/01/31 01:03:27.6	98.150	0.230	-0.830	0.960
2020/01/31 01:03:27.7	98.160	0.230	-0.790	0.960
2020/01/31 01:03:27.8	98.160	0.240	-0.750	0.960
2020/01/31 01:03:27.9	98.170	0.230	-0.700	0.950
2020/01/31 01:03:28.0	98.190	0.230	-0.640	0.950
2020/01/31 01:03:28.1	98.190	0.220	-0.580	0.960
2020/01/31 01:03:28.2	98.190	0.220	-0.520	0.960
2020/01/31 01:03:28.3	98.190	0.210	-0.440	0.960
2020/01/31 01:03:28.4	98.190	0.190	-0.370	0.970
2020/01/31 01:03:28.5	98.180	0.180	-0.290	0.980
2020/01/31 01:03:28.6	98.180	0.160	-0.210	0.990
2020/01/31 01:03:28.7	98.170	0.140	-0.130	1.000
2020/01/31 01:03:28.8	98.160	0.120	-0.040	1.010
2020/01/31 01:03:28.9	98.150	0.100	0.050	1.030
2020/01/31 01:03:29.0	98.130	0.080	0.140	1.040
2020/01/31 01:03:29.1	98.110	0.060	0.220	1.060
2020/01/31 01:03:29.2	98.090	0.040	0.310	1.070
2020/01/31 01:03:29.3	98.080	0.010	0.390	1.090
2020/01/31 01:03:29.4	98.060	-0.010	0.470	1.110
2020/01/31 01:03:29.5	98.040	-0.040	0.540	1.130
2020/01/31 01:03:29.6	98.020	-0.060	0.610	1.140
2020/01/31 01:03:29.7	97.990	-0.080	0.680	1.160
2020/01/31 01:03:29.8	97.970	-0.100	0.740	1.170
2020/01/31 01:03:29.9	97.950	-0.130	0.790	1.190
2020/01/31 01:03:30.0	97.940	-0.150	0.840	1.200
2020/01/31 01:03:30.1	97.920	-0.160	0.880	1.210
2020/01/31 01:03:30.2	97.900	-0.180	0.910	1.210
2020/01/31 01:03:30.3	97.880	-0.200	0.930	1.220
2020/01/31 01:03:30.4	97.870	-0.210	0.940	1.220
2020/01/31 01:03:30.5	97.850	-0.220	0.950	1.220
2020/01/31 01:03:30.6	97.830	-0.230	0.950	1.220
2020/01/31 01:03:30.7	97.820	-0.240	0.930	1.210
2020/01/31 01:03:30.8	97.810	-0.240	0.910	1.210
2020/01/31 01:03:30.9	97.800	-0.240	0.880	1.200
2020/01/31 01:03:31.0	97.780	-0.240	0.840	1.180
2020/01/31 01:03:31.1	97.770	-0.240	0.790	1.170
2020/01/31 01:03:31.2	97.760	-0.230	0.730	1.150
2020/01/31 01:03:31.3	97.760	-0.220	0.670	1.130
2020/01/31 01:03:31.4	97.750	-0.210	0.590	1.110
2020/01/31 01:03:31.5	97.750	-0.190	0.510	1.090
2020/01/31 01:03:31.6	97.750	-0.170	0.420	1.060
2020/01/31 01:03:31.7	97.750	-0.150	0.330	1.040
2020/01/31 01:03:31.8	97.750	-0.130	0.220	1.010
2020/01/31 01:03:31.9	97.750	-0.110	0.120	0.980
2020/01/31 01:03:32.0	97.750	-0.080	0.010	0.950
2020/01/31 01:03:32.1	97.760	-0.050	-0.110	0.920
2020/01/31 01:03:32.2	97.760	-0.020	-0.220	0.890
2020/01/31 01:03:32.3	97.770	0.010	-0.340	0.850
2020/01/31 01:03:32.4	97.770	0.050	-0.460	0.820
2020/01/31 01:03:32.5	97.780	0.080	-0.580	0.790
2020/01/31 01:03:32.6	97.780	0.120	-0.690	0.760
2020/01/31 01:03:32.7	97.790	0.160	-0.810	0.720
2020/01/31 01:03:32.8	97.790	0.190	-0.920	0.690
2020/01/31 01:03:32.9	97.800	0.230	-1.020	0.660
2020/01/31 01:03:33.0	97.800	0.260	-1.130	0.640
2020/01/31 01:03:33.1	97.800	0.300	-1.220	0.610
2020/01/31 01:03:33.2	97.810	0.330	-1.310	0.590
2020/01/31 01:03:33.3	97.820	0.370	-1.390	0.570
2020/01/31 01:03:33.4	97.820	0.400	-1.460	0.550
2020/01/31 01:03:33.5	97.830	0.430	-1.520	0.540
2020/01/31 01:03:33.6	97.840	0.450	-1.580	0.520
2020/01/31 01:03:33.7	97.850	0.480	-1.620	0.510
2020/01/31 01:03:33.8	97.860	0.500	-1.650	0.510
2020/01/31 01:03:33.9	97.860	0.520	-1.670	0.510
2020/01/31 01:03:34.0	97.890	0.530	-1.680	0.500
2020/01/31 01:03:34.1	97.900	0.540	-1.670	0.510
2020/01/31 01:03:34.2	97.910	0.550	-1.660	0.520
2020/01/31 01:03:34.3	97.920	0.560	-1.630	0.530
2020/01/31 01:03:34.4	97.930	0.560	-1.600	0.550
2020/01/31 01:03:34.5	97.940	0.560	-1.550	0.570
2020/01/31 01:03:34.6	97.950	0.550	-1.490	0.600
2020/01/31 01:03:34.7	97.970	0.540	-1.420	0.620
2020/01/31 01:03:34.8	97.970	0.530	-1.340	0.660
2020/01/31 01:03:34.9	97.980	0.510	-1.260	0.690
2020/01/31 01:03:35.0	97.990	0.490	-1.150	0.730
2020/01/31 01:03:35.1	97.990	0.470	-1.050	0.770
2020/01/31 01:03:35.2	98.000	0.440	-0.940	0.820
2020/01/31 01:03:35.3	98.010	0.410	-0.820	0.870
2020/01/31 01:03:35.4	98.010	0.380	-0.700	0.910
2020/01/31 01:03:35.5	98.020	0.340	-0.580	0.970
2020/01/31 01:03:35.6	98.020	0.300	-0.450	1.020
2020/01/31 01:03:35.7	98.020	0.260	-0.320	1.070
2020/01/31 01:03:35.8	98.020	0.220	-0.190	1.120
2020/01/31 01:03:35.9	98.020	0.180	-0.060	1.170
2020/01/31 01:03:36.0	98.010	0.130	0.070	1.220
2020/01/31 01:03:36.1	98.010	0.090	0.200	1.270
2020/01/31 01:03:36.2	98.000	0.040	0.320	1.320
2020/01/31 01:03:36.3	98.000	-0.000	0.440	1.360
2020/01/31 01:03:36.4	97.990	-0.050	0.550	1.400
2020/01/31 01:03:36.5	97.980	-0.090	0.660	1.440
2020/01/31 01:03:36.6	97.980	-0.140	0.760	1.480
2020/01/31 01:03:36.7	97.970	-0.180	0.860	1.510
2020/01/31 01:03:36.8	97.960	-0.220	0.950	1.540
2020/01/31 01:03:36.9	97.950	-0.260	1.030	1.560
2020/01/31 01:03:37.0	97.950	-0.300	1.100	1.580
2020/01/31 01:03:37.1	97.940	-0.340	1.160	1.590
2020/01/31 01:03:37.2	97.930	-0.370	1.220	1.610
2020/01/31 01:03:37.3	97.930	-0.400	1.260	1.610
2020/01/31 01:03:37.4	97.920	-0.430	1.300	1.620
2020/01/31 01:03:37.5	97.910	-0.460	1.330	1.620
2020/01/31 01:03:37.6	97.910	-0.480	1.350	1.620
2020/01/31 01:03:37.7	97.900	-0.500	1.360	1.610
2020/01/31 01:03:37.8	97.900	-0.510	1.360	1.600
2020/01/31 01:03:37.9	97.890	-0.520	1.350	1.590
2020/01/31 01:03:38.0	97.880	-0.530	1.340	1.580
2020/01/31 01:03:38.1	97.880	-0.540	1.320	1.570
2020/01/31 01:03:38.2	97.880	-0.540	1.280	1.550
2020/01/31 01:03:38.3	97.870	-0.540	1.240	1.530
2020/01/31 01:03:38.4	97.870	-0.530	1.190	1.510
2020/01/31 01:03:38.5	97.860	-0.520	1.140	1.490
2020/01/31 01:03:38.6	97.860	-0.500	1.070	1.470
2020/01/31 01:03:38.7	97.860	-0.490	1.000	1.450
2020/01/31 01:03:38.8	97.860	-0.470	0.930	1.420
2020/01/31 01:03:38.9	97.850	-0.440	0.840	1.400
2020/01/31 01:03:39.0	97.840	-0.420	0.750	1.370
2020/01/31 01:03:39.1	97.840	-0.390	0.660	1.350
2020/01/31 01:03:39.2	97.840	-0.360	0.560	1.320
2020/01/31 01:03:39.3	97.840	-0.320	0.460	1.300
2020/01/31 01:03:39.4	97.840	-0.290	0.350	1.270
2020/01/31 01:03:39.5	97.840	-0.250	0.240	1.240
2020/01/31 01:03:39.6	97.840	-0.210	0.130	1.220
2020/01/31 01:03:39.7	97.840	-0.170	0.020	1.190
2020/01/31 01:03:39.8	97.840	-0.130	-0.090	1.160
2020/01/31 01:03:39.9	97.840	-0.090	-0.200	1.140
2020/01/31 01:03:40.0	97.850	-0.050	-0.320	1.110
2020/01/31 01:03:40.1	97.860	-0.010	-0.430	1.080
2020/01/31 01:03:40.2	97.860	0.040	-0.530	1.050
2020/01/31 01:03:40.3	97.860	0.080	-0.640	1.020
2020/01/31 01:03:40.4	97.870	0.120	-0.730	1.000
2020/01/31 01:03:40.5	97.870	0.160	-0.830	0.970
2020/01/31 01:03:40.6	97.880	0.190	-0.920	0.940
2020/01/31 01:03:40.7	97.890	0.230	-1.000	0.920
2020/01/31 01:03:40.8	97.900	0.260	-1.070	0.890
2020/01/31 01:03:40.9	97.900	0.290	-1.140	0.860
2020/01/31 01:03:41.0	97.910	0.320	-1.200	0.840
2020/01/31 01:03:41.1	97.920	0.350	-1.240	0.810
2020/01/31 01:03:41.2	97.930	0.370	-1.280	0.780
2020/01/31 01:03:41.3	97.940	0.390	-1.310	0.760
2020/01/31 01:03:41.4	97.950	0.410	-1.330	0.730
2020/01/31 01:03:41.5	97.970	0.430	-1.340	0.700
2020/01/31 01:03:41.6	97.980	0.440	-1.350	0.680
2020/01/31 01:03:41.7	97.990	0.440	-1.340	0.650
2020/01/31 01:03:41.8	98.000	0.450	-1.320	0.630
2020/01/31 01:03:41.9	98.020	0.450	-1.300	0.610
2020/01/31 01:03:42.0	98.040	0.450	-1.260	0.580
2020/01/31 01:03:42.1	98.050	0.440	-1.220	0.560
2020/01/31 01:03:42.2	98.070	0.430	-1.170	0.550
2020/01/31 01:03:42.3	98.080	0.420	-1.120	0.530
2020/01/31 01:03:42.4	98.090	0.410	-1.050	0.510
2020/01/31 01:03:42.5	98.100	0.390	-0.990	0.500
2020/01/31 01:03:42.6	98.120	0.360	-0.920	0.490
2020/01/31 01:03:42.7	98.130	0.340	-0.840	0.480
2020/01/31 01:03:42.8	98.140	0.310	-0.760	0.470
2020/01/31 01:03:42.9	98.150	0.280	-0.680	0.470
2020/01/31 01:03:43.0	98.160	0.250	-0.600	0.470
2020/01/31 01:03:43.1	98.170	0.220	-0.510	0.470
2020/01/31 01:03:43.2	98.170	0.180	-0.430	0.480
2020/01/31 01:03:43.3	98.180	0.150	-0.350	0.480
2020/01/31 01:03:43.4	98.180	0.110	-0.270	0.500
2020/01/31 01:03:43.5	98.190	0.070	-0.190	0.510
2020/01/31 01:03:43.6	98.190	0.030	-0.110	0.530
2020/01/31 01:03:43.7	98.190	-0.010	-0.040	0.550
2020/01/31 01:03:43.8	98.190	-0.050	0.030	0.580
2020/01/31 01:03:43.9	98.180	-0.090	0.090	0.610
2020/01/31 01:03:44.0	98.170	-0.130	0.150	0.640
2020/01/31 01:03:44.1	98.170	-0.170	0.210	0.680
2020/01/31 01:03:44.2	98.160	-0.200	0.250	0.720
2020/01/31 01:03:44.3	98.160	-0.240	0.290	0.760
2020/01/31 01:03:44.4	98.150	-0.270	0.320	0.800
2020/01/31 01:03:44.5	98.140	-0.310	0.350	0.850
2020/01/31 01:03:44.6	98.130	-0.340	0.370	0.890
2020/01/31 01:03:44.7	98.120	-0.360	0.380	0.940
2020/01/31 01:03:44.8	98.110	-0.390	0.390	0.990
2020/01/31 01:03:44.9	98.100	-0.410	0.390	1.040
2020/01/31 01:03:45.0	98.090	-0.430	0.380	1.090
2020/01/31 01:03:45.1	98.080	-0.450	0.370	1.140
2020/01/31 01:03:45.2	98.080	-0.460	0.350	1.190
2020/01/31 01:03:45.3	98.070	-0.480	0.330	1.240
2020/01/31 01:03:45.4	98.060	-0.480	0.300	1.290
2020/01/31 01:03:45.5	98.060	-0.490	0.270	1.330
2020/01/31 01:03:45.6	98.050	-0.490	0.230	1.380
2020/01/31 01:03:45.7	98.050	-0.490	0.200	1.420
2020/01/31 01:03:45.8	98.050	-0.490	0.160	1.470
2020/01/31 01:03:45.9	98.040	-0.480	0.120	1.510
2020/01/31 01:03:46.0	98.030	-0.470	0.070	1.540
2020/01/31 01:03:46.1	98.030	-0.460	0.030	1.580
2020/01/31 01:03:46.2	98.030	-0.440	-0.010	1.610
2020/01/31 01:03:46.3	98.040	-0.430	-0.050	1.640
2020/01/31 01:03:46.4	98.040	-0.410	-0.080	1.660
2020/01/31 01:03:46.5	98.040	-0.390	-0.120	1.680
2020/01/31 01:03:46.6	98.050	-0.360	-0.150	1.700
2020/01/31 01:03:46.7	98.060	-0.340	-0.180	1.710
2020/01/31 01:03:46.8	98.070	-0.310	-0.200	1.720
2020/01/31 01:03:46.9	98.080	-0.290	-0.220	1.730
2020/01/31 01:03:47.0	98.080	-0.260	-0.240	1.740
2020/01/31 01:03:47.1	98.090	-0.240	-0.250	1.740
2020/01/31 01:03:47.2	98.100	-0.210	-0.260	1.740
2020/01/31 01:03:47.3	98.110	-0.180	-0.270	1.740
2020/01/31 01:03:47.4	98.120	-0.160	-0.270	1.730
2020/01/31 01:03:47.5	98.140	-0.130	-0.260	1.730
2020/01/31 01:03:47.6	98.150	-0.100	-0.250	1.720
2020/01/31 01:03:47.7	98.160	-0.080	-0.240	1.700
2020/01/31 01:03:47.8	98.170	-0.060	-0.220	1.690
2020/01/31 01:03:47.9	98.190	-0.030	-0.200	1.670
2020/01/31 01:03:48.0	98.200	-0.010	-0.180	1.660
2020/01/31 01:03:48.1	98.210	0.010	-0.160	1.630
2020/01/31 01:03:48.2	98.220	0.030	-0.130	1.610
2020/01/31 01:03:48.3	98.230	0.040	-0.100	1.590
2020/01/31 01:03:48.4	98.230	0.060	-0.070	1.560
2020/01/31 01:03:48.5	98.240	0.070	-0.040	1.530
2020/01/31 01:03:48.6	98.250	0.090	-0.020	1.500
2020/01/31 01:03:48.7	98.250	0.100	0.010	1.460
2020/01/31 01:03:48.8	98.250	0.110	0.040	1.430
2020/01/31 01:03:48.9	98.250	0.120	0.070	1.390
2020/01/31 01:03:49.0	98.260	0.130	0.090	1.350
2020/01/31 01:03:49.1	98.260	0.140	0.120	1.310
2020/01/31 01:03:49.2	98.260	0.150	0.140	1.270
2020/01/31 01:03:49.3	98.250	0.160	0.150	1.230
2020/01/31 01:03:49.4	98.250	0.170	0.170	1.180
2020/01/31 01:03:49.5	98.240	0.170	0.180	1.140
2020/01/31 01:03:49.6	98.240	0.180	0.190	1.090
2020/01/31 01:03:49.7	98.230	0.190	0.190	1.050
2020/01/31 01:03:49.8	98.220	0.200	0.190	1.000
2020/01/31 01:03:49.9	98.210	0.210	0.190	0.950
2020/01/31 01:03:50.0	98.190	0.220	0.180	0.900
2020/01/31 01:03:50.1	98.180	0.230	0.170	0.850
2020/01/31 01:03:50.2	98.160	0.240	0.160	0.810
2020/01/31 01:03:50.3	98.150	0.250	0.140	0.760
2020/01/31 01:03:50.4	98.130	0.270	0.110	0.720
2020/01/31 01:03:50.5	98.110	0.280	0.090	0.680
2020/01/31 01:03:50.6	98.090	0.300	0.060	0.640
2020/01/31 01:03:50.7	98.070	0.310	0.020	0.600
2020/01/31 01:03:50.8	98.050	0.330	-0.020	0.560
2020/01/31 01:03:50.9	98.020	0.350	-0.060	0.520
2020/01/31 01:03:51.0	98.000	0.370	-0.100	0.490
2020/01/31 01:03:51.1	97.980	0.380	-0.150	0.460
2020/01/31 01:03:51.2	97.950	0.400	-0.190	0.430
2020/01/31 01:03:51.3	97.930	0.420	-0.240	0.400
2020/01/31 01:03:51.4	97.910	0.440	-0.290	0.370
2020/01/31 01:03:51.5	97.900	0.460	-0.340	0.340
2020/01/31 01:03:51.6	97.880	0.480	-0.390	0.310
2020/01/31 01:03:51.7	97.870	0.500	-0.440	0.290
2020/01/31 01:03:51.8	97.850	0.510	-0.490	0.260
2020/01/31 01:03:51.9	97.850	0.530	-0.540	0.230
2020/01/31 01:03:52.0	97.840	0.540	-0.590	0.210
2020/01/31 01:03:52.1	97.840	0.560	-0.630	0.180
2020/01/31 01:03:52.2	97.830	0.570	-0.670	0.160
2020/01/31 01:03:52.3	97.840	0.580	-0.710	0.130
2020/01/31 01:03:52.4	97.850	0.590	-0.740	0.110
2020/01/31 01:03:52.5	97.850	0.590	-0.770	0.080
2020/01/31 01:03:52.6	97.870	0.600	-0.800	0.060
2020/01/31 01:03:52.7	97.880	0.600	-0.820	0.040
2020/01/31 01:03:52.8	97.900	0.600	-0.840	0.020
2020/01/31 01:03:52.9	97.920	0.590	-0.850	-0.000
2020/01/31 01:03:53.0	97.950	0.590	-0.860	-0.020
2020/01/31 01:03:53.1	97.980	0.580	-0.860	-0.040
2020/01/31 01:03:53.2	98.000	0.560	-0.860	-0.050
2020/01/31 01:03:53.3	98.030	0.550	-0.850	-0.060
2020/01/31 01:03:53.4	98.060	0.530	-0.840	-0.070
2020/01/31 01:03:53.5	98.090	0.510	-0.820	-0.070
2020/01/31 01:03:53.6	98.120	0.480	-0.790	-0.070
2020/01/31 01:03:53.7	98.150	0.450	-0.760	-0.070
2020/01/31 01:03:53.8	98.180	0.420	-0.730	-0.060
2020/01/31 01:03:53.9	98.210	0.390	-0.690	-0.050
2020/01/31 01:03:54.0	98.240	0.350	-0.640	-0.030
2020/01/31 01:03:54.1	98.260	0.310	-0.590	-0.010
2020/01/31 01:03:54.2	98.290	0.270	-0.540	0.010
2020/01/31 01:03:54.3	98.320	0.220	-0.480	0.040
2020/01/31 01:03:54.4	98.350	0.170	-0.410	0.070
2020/01/31 01:03:54.5	98.380	0.120	-0.340	0.110
2020/01/31 01:03:54.6	98.400	0.070	-0.270	0.150
2020/01/31 01:03:54.7	98.430	0.020	-0.200	0.200
2020/01/31 01:03:54.8	98.450	-0.040	-0.120	0.250
2020/01/31 01:03:54.9	98.470	-0.100	-0.050	0.300
2020/01/31 01:03:55.0	98.500	-0.150	0.040	0.360
2020/01/31 01:03:55.1	98.520	-0.210	0.120	0.420
2020/01/31 01:03:55.2	98.530	-0.270	0.190	0.490
2020/01/31 01:03:55.3	98.550	-0.330	0.270	0.550
2020/01/31 01:03:55.4	98.570	-0.390	0.350	0.620
2020/01/31 01:03:55.5	98.580	-0.440	0.420	0.690
2020/01/31 01:03:55.6	98.590	-0.500	0.490	0.770
2020/01/31 01:03:55.7	98.600	-0.550	0.550	0.850
2020/01/31 01:03:55.8	98.610	-0.610	0.620	0.920
2020/01/31 01:03:55.9	98.620	-0.660	0.670	1.000
2020/01/31 01:03:56.0	98.630	-0.700	0.720	1.090
2020/01/31 01:03:56.1	98.630	-0.750	0.760	1.170
2020/01/31 01:03:56.2	98.630	-0.790	0.800	1.250
2020/01/31 01:03:56.3	98.630	-0.820	0.830	1.330
2020/01/31 01:03:56.4	98.630	-0.860	0.860	1.410
2020/01/31 01:03:56.5	98.630	-0.890	0.880	1.490
2020/01/31 01:03:56.6	98.620	-0.910	0.890	1.570
2020/01/31 01:03:56.7	98.620	-0.930	0.890	1.640
2020/01/31 01:03:56.8	98.610	-0.950	0.880	1.720
2020/01/31 01:03:56.9	98.600	-0.960	0.870	1.790
2020/01/31 01:03:57.0	98.570	-0.970	0.860	1.860
2020/01/31 01:03:57.1	98.560	-0.970	0.830	1.920
2020/01/31 01:03:57.2	98.540	-0.960	0.800	1.980
2020/01/31 01:03:57.3	98.520	-0.960	0.760	2.040
2020/01/31 01:03:57.4	98.510	-0.940	0.720	2.100
2020/01/31 01:03:57.5	98.490	-0.930	0.670	2.150
2020/01/31 01:03:57.6	98.470	-0.900	0.610	2.200
2020/01/31 01:03:57.7	98.450	-0.880	0.550	2.240
2020/01/31 01:03:57.8	98.430	-0.850	0.490	2.280
2020/01/31 01:03:57.9	98.410	-0.810	0.430	2.320
2020/01/31 01:03:58.0	98.400	-0.770	0.350	2.350
2020/01/31 01:03:58.1	98.380	-0.730	0.280	2.380
2020/01/31 01:03:58.2	98.350	-0.690	0.210	2.410
2020/01/31 01:03:58.3	98.330	-0.640	0.130	2.430
2020/01/31 01:03:58.4	98.310	-0.590	0.050	2.450
2020/01/31 01:03:58.5	98.290	-0.540	-0.030	2.460
2020/01/31 01:03:58.6	98.270	-0.490	-0.100	2.470
2020/01/31 01:03:58.7	98.260	-0.430	-0.180	2.480
2020/01/31 01:03:58.8	98.240	-0.370	-0.260	2.490
2020/01/31 01:03:58.9	98.220	-0.320	-0.340	2.490
2020/01/31 01:03:59.0	98.200	-0.260	-0.410	2.480
2020/01/31 01:03:59.1	98.190	-0.200	-0.490	2.480
2020/01/31 01:03:59.2	98.180	-0.140	-0.560	2.470
2020/01/31 01:03:59.3	98.170	-0.080	-0.630	2.450
2020/01/31 01:03:59.4	98.160	-0.030	-0.690	2.440
2020/01/31 01:03:59.5	98.150	0.030	-0.750	2.420
2020/01/31 01:03:59.6	98.150	0.080	-0.810	2.390
2020/01/31 01:03:59.7	98.140	0.140	-0.870	2.370
2020/01/31 01:03:59.8	98.140	0.190	-0.910	2.340
2020/01/31 01:03:59.9	98.140	0.240	-0.960	2.300
2020/01/31 01:04:00.0	98.150	0.280	-1.000	2.260
2020/01/31 01:04:00.1	98.150	0.330	-1.030	2.220
2020/01/31 01:04:00.2	98.160	0.370	-1.060	2.180
2020/01/31 01:04:00.3	98.170	0.410	-1.080	2.140
2020/01/31 01:04:00.4	98.170	0.440	-1.090	2.090
2020/01/31 01:04:00.5	98.180	0.470	-1.100	2.040
2020/01/31 01:04:00.6	98.190	0.500	-1.100	1.990
2020/01/31 01:04:00.7	98.200	0.530	-1.100	1.930
2020/01/31 01:04:00.8	98.210	0.550	-1.090	1.870
2020/01/31 01:04:00.9	98.230	0.570	-1.080	1.810
2020/01/31 01:04:01.0	98.240	0.590	-1.060	1.750
2020/01/31 01:04:01.1	98.260	0.600	-1.030	1.690
2020/01/31 01:04:01.2	98.270	0.610	-1.000	1.620
2020/01/31 01:04:01.3	98.280	0.620	-0.970	1.550
2020/01/31 01:04:01.4	98.300	0.620	-0.930	1.480
2020/01/31 01:04:01.5	98.310	0.620	-0.890	1.410
2020/01/31 01:04:01.6	98.330	0.620	-0.850	1.340
2020/01/31 01:04:01.7	98.340	0.610	-0.800	1.270
2020/01/31 01:04:01.8	98.350	0.610	-0.750	1.190
2020/01/31 01:04:01.9	98.370	0.600	-0.700	1.120
2020/01/31 01:04:02.0	98.380	0.590	-0.640	1.040
2020/01/31 01:04:02.1	98.390	0.570	-0.590	0.960
2020/01/31 01:04:02.2	98.400	0.560	-0.540	0.890
2020/01/31 01:04:02.3	98.410	0.540	-0.480	0.820
2020/01/31 01:04:02.4	98.420	0.520	-0.420	0.740
2020/01/31 01:04:02.5	98.430	0.500	-0.370	0.670
2020/01/31 01:04:02.6	98.440	0.480	-0.310	0.600
2020/01/31 01:04:02.7	98.450	0.460	-0.260	0.530
2020/01/31 01:04:02.8	98.450	0.440	-0.200	0.460
2020/01/31 01:04:02.9	98.450	0.420	-0.150	0.400
2020/01/31 01:04:03.0	98.460	0.400	-0.090	0.330
2020/01/31 01:04:03.1	98.460	0.380	-0.040	0.270
2020/01/31 01:04:03.2	98.460	0.360	0.010	0.220
2020/01/31 01:04:03.3	98.460	0.330	0.060	0.160
2020/01/31 01:04:03.4	98.460	0.310	0.100	0.110
2020/01/31 01:04:03.5	98.450	0.290	0.150	0.060
2020/01/31 01:04:03.6	98.450	0.270	0.190	0.010
2020/01/31 01:04:03.7	98.440	0.250	0.230	-0.030
2020/01/31 01:04:03.8	98.430	0.220	0.270	-0.070
2020/01/31 01:04:03.9	98.420	0.200	0.310	-0.100
2020/01/31 01:04:04.0	98.410	0.180	0.350	-0.140
2020/01/31 01:04:04.1	98.400	0.160	0.380	-0.170
2020/01/31 01:04:04.2	98.390	0.140	0.410	-0.200
2020/01/31 01:04:04.3	98.380	0.120	0.430	-0.220
2020/01/31 01:04:04.4	98.360	0.090	0.460	-0.240
2020/01/31 01:04:04.5	98.340	0.070	0.480	-0.250
2020/01/31 01:04:04.6	98.330	0.050	0.500	-0.260
2020/01/31 01:04:04.7	98.310	0.030	0.510	-0.270
2020/01/31 01:04:04.8	98.290	0.010	0.520	-0.280
2020/01/31 01:04:04.9	98.270	-0.010	0.530	-0.280
2020/01/31 01:04:05.0	98.250	-0.030	0.540	-0.270
2020/01/31 01:04:05.1	98.230	-0.060	0.540	-0.270
2020/01/31 01:04:05.2	98.210	-0.080	0.550	-0.260
2020/01/31 01:04:05.3	98.190	-0.100	0.550	-0.250
2020/01/31 01:04:05.4	98.180	-0.120	0.540	-0.230
2020/01/31 01:04:05.5	98.160	-0.140	0.540	-0.220
2020/01/31 01:04:05.6	98.150	-0.160	0.530	-0.190
2020/01/31 01:04:05.7	98.130	-0.180	0.520	-0.170
2020/01/31 01:04:05.8	98.120	-0.190	0.510	-0.150
2020/01/31 01:04:05.9	98.110	-0.210	0.490	-0.120
2020/01/31 01:04:06.0	98.110	-0.230	0.480	-0.090
2020/01/31 01:04:06.1	98.110	-0.240	0.460	-0.060
2020/01/31 01:04:06.2	98.110	-0.260	0.440	-0.030
2020/01/31 01:04:06.3	98.110	-0.270	0.420	0.000
2020/01/31 01:04:06.4	98.110	-0.280	0.390	0.040
2020/01/31 01:04:06.5	98.110	-0.290	0.360	0.070
2020/01/31 01:04:06.6	98.120	-0.300	0.330	0.110
2020/01/31 01:04:06.7	98.120	-0.310	0.300	0.150
2020/01/31 01:04:06.8	98.130	-0.310	0.270	0.180
2020/01/31 01:04:06.9	98.140	-0.320	0.230	0.220
2020/01/31 01:04:07.0	98.150	-0.320	0.190	0.260
2020/01/31 01:04:07.1	98.170	-0.320	0.150	0.300
2020/01/31 01:04:07.2	98.180	-0.310	0.110	0.340
2020/01/31 01:04:07.3	98.200	-0.310	0.070	0.370
2020/01/31 01:04:07.4	98.220	-0.300	0.020	0.410
2020/01/31 01:04:07.5	98.240	-0.290	-0.020	0.450
2020/01/31 01:04:07.6	98.260	-0.280	-0.070	0.490
2020/01/31 01:04:07.7	98.280	-0.270	-0.110	0.530
2020/01/31 01:04:07.8	98.300	-0.250	-0.160	0.570
2020/01/31 01:04:07.9	98.330	-0.240	-0.210	0.610
2020/01/31 01:04:08.0	98.340	-0.220	-0.260	0.650
2020/01/31 01:04:08.1	98.360	-0.200	-0.310	0.690
2020/01/31 01:04:08.2	98.380	-0.180	-0.360	0.720
2020/01/31 01:04:08.3	98.400	-0.160	-0.400	0.760
2020/01/31 01:04:08.4	98.420	-0.140	-0.450	0.800
2020/01/31 01:04:08.5	98.450	-0.110	-0.490	0.840
2020/01/31 01:04:08.6	98.470	-0.090	-0.540	0.870
2020/01/31 01:04:08.7	98.480	-0.060	-0.580	0.910
2020/01/31 01:04:08.8	98.500	-0.040	-0.620	0.950
2020/01/31 01:04:08.9	98.520	-0.010	-0.660	0.990
2020/01/31 01:04:09.0	98.530	0.010	-0.690	1.030
2020/01/31 01:04:09.1	98.540	0.040	-0.730	1.070
2020/01/31 01:04:09.2	98.560	0.070	-0.760	1.110
2020/01/31 01:04:09.3	98.570	0.090	-0.790	1.160
2020/01/31 01:04:09.4	98.580	0.120	-0.810	1.200
2020/01/31 01:04:09.5	98.580	0.140	-0.830	1.250
2020/01/31 01:04:09.6	98.590	0.170	-0.850	1.290
2020/01/31 01:04:09.7	98.590	0.190	-0.870	1.340
2020/01/31 01:04:09.8	98.600	0.210	-0.880	1.390
2020/01/31 01:04:09.9	98.600	0.230	-0.890	1.440
2020/01/31 01:04:10.0	98.610	0.250	-0.900	1.500
2020/01/31 01:04:10.1	98.610	0.270	-0.900	1.550
2020/01/31 01:04:10.2	98.600	0.280	-0.900	1.600
2020/01/31 01:04:10.3	98.600	0.300	-0.890	1.660
2020/01/31 01:04:10.4	98.590	0.310	-0.880	1.720
2020/01/31 01:04:10.5	98.580	0.320	-0.870	1.780
2020/01/31 01:04:10.6	98.570	0.320	-0.850	1.840
2020/01/31 01:04:10.7	98.550	0.330	-0.820	1.900
2020/01/31 01:04:10.8	98.540	0.330	-0.790	1.960
2020/01/31 01:04:10.9	98.520	0.330	-0.760	2.020
2020/01/31 01:04:11.0	98.500	0.330	-0.720	2.080
2020/01/31 01:04:11.1	98.480	0.320	-0.680	2.150
2020/01/31 01:04:11.2	98.460	0.310	-0.640	2.210
2020/01/31 01:04:11.3	98.430	0.300	-0.590	2.270
2020/01/31 01:04:11.4	98.410	0.280	-0.550	2.330
2020/01/31 01:04:11.5	98.380	0.270	-0.490	2.390
2020/01/31 01:04:11.6	98.350	0.250	-0.440	2.440
2020/01/31 01:04:11.7	98.330	0.220	-0.390	2.500
2020/01/31 01:04:11.8	98.300	0.200	-0.330	2.550
2020/01/31 01:04:11.9	98.270	0.170	-0.270	2.590
2020/01/31 01:04:12.0	98.240	0.150	-0.220	2.630
2020/01/31 01:04:12.1	98.220	0.120	-0.160	2.670
2020/01/31 01:04:12.2	98.190	0.090	-0.100	2.710
2020/01/31 01:04:12.3	98.170	0.050	-0.040	2.740
2020/01/31 01:04:12.4	98.150	0.020	0.010	2.760
2020/01/31 01:04:12.5	98.130	-0.010	0.070	2.780
2020/01/31 01:04:12.6	98.110	-0.050	0.120	2.790
2020/01/31 01:04:12.7	98.090	-0.080	0.180	2.790
2020/01/31 01:04:12.8	98.080	-0.110	0.220	2.790
2020/01/31 01:04:12.9	98.060	-0.150	0.270	2.790
2020/01/31 01:04:13.0	98.080	-0.180	0.320	2.770
2020/01/31 01:04:13.1	98.070	-0.210	0.360	2.750
2020/01/31 01:04:13.2	98.070	-0.240	0.390	2.730
2020/01/31 01:04:13.3	98.060	-0.260	0.420	2.700
2020/01/31 01:04:13.4	98.060	-0.290	0.450	2.660
2020/01/31 01:04:13.5	98.060	-0.310	0.470	2.620
2020/01/31 01:04:13.6	98.070	-0.330	0.490	2.580
2020/01/31 01:04:13.7	98.070	-0.350	0.510	2.530
2020/01/31 01:04:13.8	98.080	-0.360	0.510	2.470
2020/01/31 01:04:13.9	98.090	-0.380	0.520	2.410
2020/01/31 01:04:14.0	98.090	-0.380	0.510	2.350
2020/01/31 01:04:14.1	98.100	-0.390	0.510	2.280
2020/01/31 01:04:14.2	98.110	-0.390	0.490	2.210
2020/01/31 01:04:14.3	98.130	-0.390	0.480	2.140
2020/01/31 01:04:14.4	98.140	-0.380	0.460	2.060
2020/01/31 01:04:14.5	98.160	-0.380	0.430	1.980
2020/01/31 01:04:14.6	98.180	-0.370	0.410	1.900
2020/01/31 01:04:14.7	98.200	-0.350	0.370	1.810
2020/01/31 01:04:14.8	98.220	-0.340	0.340	1.730
2020/01/31 01:04:14.9	98.240	-0.320	0.300	1.640
2020/01/31 01:04:15.0	98.240	-0.300	0.260	1.540
2020/01/31 01:04:15.1	98.260	-0.280	0.220	1.450
2020/01/31 01:04:15.2	98.280	-0.250	0.180	1.350
2020/01/31 01:04:15.3	98.300	-0.230	0.130	1.260
2020/01/31 01:04:15.4	98.330	-0.200	0.080	1.160
2020/01/31 01:04:15.5	98.350	-0.170	0.040	1.070
2020/01/31 01:04:15.6	98.370	-0.140	-0.010	0.970
2020/01/31 01:04:15.7	98.390	-0.110	-0.060	0.880
2020/01/31 01:04:15.8	98.410	-0.080	-0.100	0.780
2020/01/31 01:04:15.9	98.430	-0.050	-0.150	0.680
2020/01/31 01:04:16.0	98.450	-0.020	-0.200	0.590
2020/01/31 01:04:16.1	98.470	0.010	-0.240	0.490
2020/01/31 01:04:16.2	98.480	0.030	-0.280	0.400
2020/01/31 01:04:16.3	98.500	0.060	-0.320	0.310
2020/01/31 01:04:16.4	98.520	0.090	-0.350	0.230
2020/01/31 01:04:16.5	98.530	0.110	-0.390	0.140
2020/01/31 01:04:16.6	98.550	0.130	-0.420	0.060
2020/01/31 01:04:16.7	98.560	0.150	-0.440	-0.020
2020/01/31 01:04:16.8	98.570	0.170	-0.470	-0.090
2020/01/31 01:04:16.9	98.580	0.190	-0.490	-0.160
2020/01/31 01:04:17.0	98.590	0.210	-0.500	-0.230
2020/01/31 01:04:17.1	98.600	0.220	-0.520	-0.290
2020/01/31 01:04:17.2	98.610	0.230	-0.530	-0.350
2020/01/31 01:04:17.3	98.610	0.240	-0.530	-0.410
2020/01/31 01:04:17.4	98.620	0.250	-0.540	-0.450
2020/01/31 01:04:17.5	98.620	0.250	-0.530	-0.500
2020/01/31 01:04:17.6	98.620	0.250	-0.530	-0.540
2020/01/31 01:04:17.7	98.630	0.250	-0.520	-0.570
2020/01/31 01:04:17.8	98.630	0.250	-0.510	-0.600
2020/01/31 01:04:17.9	98.630	0.250	-0.500	-0.630
2020/01/31 01:04:18.0	98.630	0.240	-0.480	-0.650
2020/01/31 01:04:18.1	98.630	0.240	-0.460	-0.670
2020/01/31 01:04:18.2	98.620	0.230	-0.440	-0.680
2020/01/31 01:04:18.3	98.620	0.220	-0.420	-0.680
2020/01/31 01:04:18.4	98.620	0.210	-0.390	-0.680
2020/01/31 01:04:18.5	98.620	0.200	-0.360	-0.680
2020/01/31 01:04:18.6	98.610	0.190	-0.340	-0.670
2020/01/31 01:04:18.7	98.610	0.180	-0.310	-0.650
2020/01/31 01:04:18.8	98.600	0.170	-0.270	-0.640
2020/01/31 01:04:18.9	98.600	0.160	-0.240	-0.620
2020/01/31 01:04:19.0	98.590	0.140	-0.210	-0.590
2020/01/31 01:04:19.1	98.590	0.130	-0.180	-0.560
2020/01/31 01:04:19.2	98.580	0.120	-0.150	-0.530
2020/01/31 01:04:19.3	98.570	0.110	-0.110	-0.490
2020/01/31 01:04:19.4	98.570	0.100	-0.080	-0.450
2020/01/31 01:04:19.5	98.560	0.080	-0.050	-0.410
2020/01/31 01:04:19.6	98.550	0.070	-0.030	-0.370
2020/01/31 01:04:19.7	98.550	0.060	0.000	-0.320
2020/01/31 01:04:19.8	98.540	0.050	0.030	-0.270
2020/01/31 01:04:19.9	98.530	0.040	0.050	-0.220
2020/01/31 01:04:20.0	98.520	0.030	0.070	-0.160
2020/01/31 01:04:20.1	98.520	0.030	0.090	-0.100
2020/01/31 01:04:20.2	98.510	0.020	0.110	-0.040
2020/01/31 01:04:20.3	98.500	0.010	0.130	0.020
2020/01/31 01:04:20.4	98.500	0.000	0.140	0.080
2020/01/31 01:04:20.5	98.490	-0.000	0.150	0.140
2020/01/31 01:04:20.6	98.480	-0.010	0.160	0.210
2020/01/31 01:04:20.7	98.480	-0.020	0.170	0.270
2020/01/31 01:04:20.8	98.470	-0.020	0.170	0.340
2020/01/31 01:04:20.9	98.470	-0.030	0.180	0.410
2020/01/31 01:04:21.0	98.470	-0.040	0.180	0.480
2020/01/31 01:04:21.1	98.460	-0.040	0.180	0.540
2020/01/31 01:04:21.2	98.460	-0.050	0.180	0.610
2020/01/31 01:04:21.3	98.450	-0.060	0.170	0.680
2020/01/31 01:04:21.4	98.440	-0.060	0.170	0.750
2020/01/31 01:04:21.5	98.440	-0.070	0.160	0.820
2020/01/31 01:04:21.6	98.430	-0.080	0.150	0.880
2020/01/31 01:04:21.7	98.430	-0.080	0.140	0.950
2020/01/31 01:04:21.8	98.420	-0.090	0.130	1.020
2020/01/31 01:04:21.9	98.420	-0.100	0.110	1.080
2020/01/31 01:04:22.0	98.420	-0.100	0.090	1.150
2020/01/31 01:04:22.1	98.410	-0.110	0.080	1.210
2020/01/31 01:04:22.2	98.400	-0.120	0.060	1.280
2020/01/31 01:04:22.3	98.400	-0.120	0.040	1.340
2020/01/31 01:04:22.4	98.390	-0.130	0.020	1.400
2020/01/31 01:04:22.5	98.390	-0.130	-0.010	1.460
2020/01/31 01:04:22.6	98.380	-0.140	-0.030	1.520
2020/01/31 01:04:22.7	98.380	-0.140	-0.060	1.580
2020/01/31 01:04:22.8	98.380	-0.140	-0.080	1.640
2020/01/31 01:04:22.9	98.370	-0.150	-0.110	1.690
2020/01/31 01:04:23.0	98.370	-0.150	-0.140	1.750
2020/01/31 01:04:23.1	98.370	-0.150	-0.170	1.800
2020/01/31 01:04:23.2	98.360	-0.150	-0.200	1.850
2020/01/31 01:04:23.3	98.360	-0.140	-0.230	1.910
2020/01/31 01:04:23.4	98.360	-0.140	-0.260	1.950
2020/01/31 01:04:23.5	98.360	-0.130	-0.290	2.000
2020/01/31 01:04:23.6	98.370	-0.130	-0.320	2.050
2020/01/31 01:04:23.7	98.370	-0.120	-0.350	2.100
2020/01/31 01:04:23.8	98.370	-0.110	-0.380	2.140
2020/01/31 01:04:23.9	98.380	-0.100	-0.410	2.180
2020/01/31 01:04:24.0	98.390	-0.090	-0.450	2.220
2020/01/31 01:04:24.1	98.400	-0.070	-0.480	2.260
2020/01/31 01:04:24.2	98.410	-0.060	-0.510	2.300
2020/01/31 01:04:24.3	98.420	-0.040	-0.540	2.330
2020/01/31 01:04:24.4	98.430	-0.030	-0.560	2.360
2020/01/31 01:04:24.5	98.450	-0.010	-0.590	2.390
2020/01/31 01:04:24.6	98.460	0.010	-0.610	2.410
2020/01/31 01:04:24.7	98.480	0.030	-0.640	2.440
2020/01/31 01:04:24.8	98.500	0.050	-0.650	2.460
2020/01/31 01:04:24.9	98.510	0.070	-0.670	2.480
2020/01/31 01:04:25.0	98.530	0.090	-0.680	2.490
2020/01/31 01:04:25.1	98.550	0.110	-0.700	2.500
2020/01/31 01:04:25.2	98.570	0.130	-0.700	2.510
2020/01/31 01:04:25.3	98.590	0.150	-0.710	2.520
2020/01/31 01:04:25.4	98.610	0.160	-0.710	2.530
2020/01/31 01:04:25.5	98.630	0.180	-0.710	2.530
2020/01/31 01:04:25.6	98.650	0.200	-0.710	2.530
2020/01/31 01:04:25.7	98.670	0.210	-0.700	2.530
2020/01/31 01:04:25.8	98.690	0.230	-0.690	2.530
2020/01/31 01:04:25.9	98.710	0.240	-0.680	2.520
2020/01/31 01:04:26.0	98.740	0.250	-0.660	2.520
2020/01/31 01:04:26.1	98.760	0.260	-0.640	2.510
2020/01/31 01:04:26.2	98.770	0.270	-0.620	2.490
2020/01/31 01:04:26.3	98.780	0.280	-0.600	2.480
2020/01/31 01:04:26.4	98.790	0.290	-0.570	2.460
2020/01/31 01:04:26.5	98.810	0.290	-0.540	2.440
2020/01/31 01:04:26.6	98.810	0.300	-0.510	2.420
2020/01/31 01:04:26.7	98.820	0.300	-0.470	2.400
2020/01/31 01:04:26.8	98.830	0.300	-0.440	2.380
2020/01/31 01:04:26.9	98.830	0.290	-0.400	2.350
2020/01/31 01:04:27.0	98.830	0.290	-0.360	2.320
2020/01/31 01:04:27.1	98.830	0.280	-0.320	2.280
2020/01/31 01:04:27.2	98.830	0.280	-0.280	2.250
2020/01/31 01:04:27.3	98.830	0.270	-0.230	2.210
2020/01/31 01:04:27.4	98.840	0.260	-0.190	2.170
2020/01/31 01:04:27.5	98.840	0.240	-0.150	2.120
2020/01/31 01:04:27.6	98.840	0.230	-0.100	2.080
2020/01/31 01:04:27.7	98.840	0.210	-0.050	2.030
2020/01/31 01:04:27.8	98.840	0.190	-0.000	1.980
2020/01/31 01:04:27.9	98.830	0.170	0.040	1.930
2020/01/31 01:04:28.0	98.840	0.150	0.090	1.870
2020/01/31 01:04:28.1	98.840	0.120	0.140	1.810
2020/01/31 01:04:28.2	98.840	0.100	0.190	1.750
2020/01/31 01:04:28.3	98.840	0.070	0.240	1.690
2020/01/31 01:04:28.4	98.840	0.040	0.290	1.630
2020/01/31 01:04:28.5	98.840	0.010	0.340	1.570
2020/01/31 01:04:28.6	98.830	-0.020	0.390	1.500
2020/01/31 01:04:28.7	98.830	-0.050	0.430	1.430
2020/01/31 01:04:28.8	98.830	-0.080	0.480	1.370
2020/01/31 01:04:28.9	98.830	-0.110	0.520	1.300
2020/01/31 01:04:29.0	98.840	-0.150	0.560	1.230
2020/01/31 01:04:29.1	98.840	-0.180	0.600	1.160
2020/01/31 01:04:29.2	98.850	-0.210	0.640	1.080
2020/01/31 01:04:29.3	98.850	-0.240	0.670	1.010
2020/01/31 01:04:29.4	98.850	-0.270	0.700	0.940
2020/01/31 01:04:29.5	98.850	-0.300	0.730	0.870
2020/01/31 01:04:29.6	98.850	-0.320	0.750	0.790
2020/01/31 01:04:29.7	98.850	-0.350	0.760	0.720
2020/01/31 01:04:29.8	98.860	-0.370	0.770	0.650
2020/01/31 01:04:29.9	98.860	-0.390	0.780	0.580
2020/01/31 01:04:30.0	98.860	-0.410	0.780	0.510
2020/01/31 01:04:30.1	98.860	-0.430	0.780	0.450
2020/01/31 01:04:30.2	98.850	-0.440	0.770	0.380
2020/01/31 01:04:30.3	98.850	-0.450	0.750	0.320
2020/01/31 01:04:30.4	98.850	-0.460	0.730	0.260
2020/01/31 01:04:30.5	98.840	-0.470	0.700	0.200
2020/01/31 01:04:30.6	98.840	-0.470	0.670	0.140
2020/01/31 01:04:30.7	98.830	-0.470	0.630	0.090
2020/01/31 01:04:30.8	98.830	-0.470	0.590	0.040
2020/01/31 01:04:30.9	98.820	-0.470	0.540	-0.010
2020/01/31 01:04:31.0	98.790	-0.460	0.480	-0.070
2020/01/31 01:04:31.1	98.780	-0.450	0.430	-0.110
2020/01/31 01:04:31.2	98.770	-0.430	0.360	-0.150
2020/01/31 01:04:31.3	98.760	-0.420	0.290	-0.180
2020/01/31 01:04:31.4	98.740	-0.400	0.220	-0.220
2020/01/31 01:04:31.5	98.730	-0.380	0.150	-0.250
2020/01/31 01:04:31.6	98.710	-0.350	0.070	-0.280
2020/01/31 01:04:31.7	98.690	-0.330	-0.010	-0.300
2020/01/31 01:04:31.8	98.670	-0.300	-0.090	-0.330
2020/01/31 01:04:31.9	98.650	-0.270	-0.180	-0.350
2020/01/31 01:04:32.0	98.620	-0.240	-0.260	-0.360
2020/01/31 01:04:32.1	98.600	-0.200	-0.350	-0.370
2020/01/31 01:04:32.2	98.580	-0.170	-0.430	-0.390
2020/01/31 01:04:32.3	98.560	-0.140	-0.520	-0.400
2020/01/31 01:04:32.4	98.540	-0.100	-0.600	-0.400
2020/01/31 01:04:32.5	98.510	-0.070	-0.680	-0.410
2020/01/31 01:04:32.6	98.490	-0.030	-0.760	-0.410
2020/01/31 01:04:32.7	98.470	0.010	-0.830	-0.420
2020/01/31 01:04:32.8	98.450	0.040	-0.910	-0.420
2020/01/31 01:04:32.9	98.430	0.080	-0.970	-0.410
2020/01/31 01:04:33.0	98.430	0.110	-1.040	-0.410
2020/01/31 01:04:33.1	98.420	0.140	-1.090	-0.410
2020/01/31 01:04:33.2	98.400	0.170	-1.150	-0.400
2020/01/31 01:04:33.3	98.390	0.200	-1.190	-0.400
2020/01/31 01:04:33.4	98.390	0.230	-1.230	-0.390
2020/01/31 01:04:33.5	98.380	0.260	-1.270	-0.380
2020/01/31 01:04:33.6	98.380	0.280	-1.290	-0.360
2020/01/31 01:04:33.7	98.380	0.310	-1.320	-0.350
2020/01/31 01:04:33.8	98.380	0.330	-1.330	-0.330
2020/01/31 01:04:33.9	98.390	0.350	-1.340	-0.320
2020/01/31 01:04:34.0	98.410	0.360	-1.340	-0.300
2020/01/31 01:04:34.1	98.420	0.380	-1.330	-0.270
2020/01/31 01:04:34.2	98.440	0.390	-1.320	-0.250
2020/01/31 01:04:34.3	98.460	0.400	-1.300	-0.220
2020/01/31 01:04:34.4	98.490	0.410	-1.280	-0.200
2020/01/31 01:04:34.5	98.520	0.410	-1.240	-0.170
2020/01/31 01:04:34.6	98.550	0.420	-1.210	-0.140
2020/01/31 01:04:34.7	98.580	0.420	-1.160	-0.100
2020/01/31 01:04:34.8	98.620	0.420	-1.110	-0.070
2020/01/31 01:04:34.9	98.660	0.420	-1.060	-0.030
2020/01/31 01:04:35.0	98.690	0.410	-0.990	0.010
2020/01/31 01:04:35.1	98.740	0.410	-0.930	0.050
2020/01/31 01:04:35.2	98.780	0.400	-0.860	0.100
2020/01/31 01:04:35.3	98.830	0.390	-0.790	0.140
2020/01/31 01:04:35.4	98.870	0.380	-0.720	0.200
2020/01/31 01:04:35.5	98.920	0.370	-0.650	0.250
2020/01/31 01:04:35.6	98.970	0.350	-0.570	0.310
2020/01/31 01:04:35.7	99.010	0.340	-0.490	0.370
2020/01/31 01:04:35.8	99.050	0.320	-0.410	0.430
2020/01/31 01:04:35.9	99.100	0.300	-0.330	0.490
2020/01/31 01:04:36.0	99.140	0.280	-0.240	0.570
2020/01/31 01:04:36.1	99.180	0.260	-0.160	0.640
2020/01/31 01:04:36.2	99.220	0.240	-0.080	0.720
2020/01/31 01:04:36.3	99.250	0.220	0.010	0.790
2020/01/31 01:04:36.4	99.290	0.200	0.090	0.880
2020/01/31 01:04:36.5	99.310	0.170	0.170	0.960
2020/01/31 01:04:36.6	99.340	0.150	0.250	1.050
2020/01/31 01:04:36.7	99.360	0.120	0.330	1.140
2020/01/31 01:04:36.8	99.380	0.100	0.400	1.220
2020/01/31 01:04:36.9	99.400	0.070	0.480	1.320
2020/01/31 01:04:37.0	99.400	0.040	0.550	1.410
2020/01/31 01:04:37.1	99.410	0.010	0.620	1.500
2020/01/31 01:04:37.2	99.420	-0.010	0.680	1.590
2020/01/31 01:04:37.3	99.420	-0.040	0.740	1.690
2020/01/31 01:04:37.4	99.420	-0.070	0.800	1.780
2020/01/31 01:04:37.5	99.420	-0.100	0.850	1.870
2020/01/31 01:04:37.6	99.410	-0.130	0.900	1.960
2020/01/31 01:04:37.7	99.400	-0.160	0.940	2.050
2020/01/31 01:04:37.8	99.390	-0.180	0.980	2.130
2020/01/31 01:04:37.9	99.370	-0.210	1.010	2.210
2020/01/31 01:04:38.0	99.340	-0.240	1.040	2.290
2020/01/31 01:04:38.1	99.320	-0.270	1.070	2.370
2020/01/31 01:04:38.2	99.300	-0.290	1.090	2.440
2020/01/31 01:04:38.3	99.280	-0.320	1.100	2.510
2020/01/31 01:04:38.4	99.250	-0.350	1.110	2.580
2020/01/31 01:04:38.5	99.220	-0.370	1.120	2.640
2020/01/31 01:04:38.6	99.200	-0.390	1.120	2.690
2020/01/31 01:04:38.7	99.170	-0.410	1.110	2.740
2020/01/31 01:04:38.8	99.140	-0.430	1.100	2.790
2020/01/31 01:04:38.9	99.110	-0.450	1.080	2.830
2020/01/31 01:04:39.0	99.090	-0.470	1.050	2.860
2020/01/31 01:04:39.1	99.060	-0.480	1.020	2.890
2020/01/31 01:04:39.2	99.030	-0.490	0.980	2.920
2020/01/31 01:04:39.3	99.000	-0.500	0.940	2.940
2020/01/31 01:04:39.4	98.970	-0.510	0.890	2.960
2020/01/31 01:04:39.5	98.950	-0.520	0.830	2.970
2020/01/31 01:04:39.6	98.920	-0.520	0.770	2.970
2020/01/31 01:04:39.7	98.890	-0.520	0.700	2.980
2020/01/31 01:04:39.8	98.870	-0.520	0.630	2.970
2020/01/31 01:04:39.9	98.840	-0.510	0.550	2.970
2020/01/31 01:04:40.0	98.830	-0.500	0.470	2.960
2020/01/31 01:04:40.1	98.800	-0.490	0.380	2.940
2020/01/31 01:04:40.2	98.780	-0.480	0.290	2.930
2020/01/31 01:04:40.3	98.760	-0.460	0.190	2.900
2020/01/31 01:04:40.4	98.740	-0.440	0.100	2.880
2020/01/31 01:04:40.5	98.730	-0.420	-0.000	2.850
2020/01/31 01:04:40.6	98.710	-0.390	-0.110	2.820
2020/01/31 01:04:40.7	98.690	-0.370	-0.210	2.790
2020/01/31 01:04:40.8	98.680	-0.340	-0.310	2.750
2020/01/31 01:04:40.9	98.670	-0.300	-0.420	2.710
2020/01/31 01:04:41.0	98.660	-0.270	-0.520	2.660
2020/01/31 01:04:41.1	98.650	-0.230	-0.630	2.610
2020/01/31 01:04:41.2	98.640	-0.200	-0.730	2.550
2020/01/31 01:04:41.3	98.640	-0.160	-0.830	2.490
2020/01/31 01:04:41.4	98.640	-0.120	-0.920	2.430
2020/01/31 01:04:41.5	98.640	-0.080	-1.010	2.360
2020/01/31 01:04:41.6	98.650	-0.040	-1.100	2.290
2020/01/31 01:04:41.7	98.660	0.000	-1.180	2.220
2020/01/31 01:04:41.8	98.670	0.040	-1.260	2.140
2020/01/31 01:04:41.9	98.680	0.090	-1.330	2.060
2020/01/31 01:04:42.0	98.690	0.130	-1.390	1.970
2020/01/31 01:04:42.1	98.710	0.170	-1.450	1.880
2020/01/31 01:04:42.2	98.730	0.210	-1.500	1.790
2020/01/31 01:04:42.3	98.750	0.250	-1.540	1.690
2020/01/31 01:04:42.4	98.780	0.280	-1.570	1.600
2020/01/31 01:04:42.5	98.810	0.320	-1.600	1.500
2020/01/31 01:04:42.6	98.840	0.360	-1.620	1.390
2020/01/31 01:04:42.7	98.870	0.390	-1.630	1.290
2020/01/31 01:04:42.8	98.900	0.420	-1.630	1.190
2020/01/31 01:04:42.9	98.940	0.450	-1.620	1.080
2020/01/31 01:04:43.0	98.970	0.470	-1.600	0.970
2020/01/31 01:04:43.1	99.000	0.500	-1.580	0.870
2020/01/31 01:04:43.2	99.030	0.520	-1.550	0.770
2020/01/31 01:04:43.3	99.070	0.540	-1.510	0.660
2020/01/31 01:04:43.4	99.100	0.560	-1.470	0.560
2020/01/31 01:04:43.5	99.130	0.570	-1.410	0.460
2020/01/31 01:04:43.6	99.160	0.580	-1.350	0.370
2020/01/31 01:04:43.7	99.190	0.590	-1.290	0.270
2020/01/31 01:04:43.8	99.210	0.590	-1.220	0.180
2020/01/31 01:04:43.9	99.240	0.590	-1.140	0.100
2020/01/31 01:04:44.0	99.270	0.590	-1.060	0.020
2020/01/31 01:04:44.1	99.290	0.590	-0.980	-0.060
2020/01/31 01:04:44.2	99.310	0.580	-0.890	-0.130
2020/01/31 01:04:44.3	99.320	0.570	-0.800	-0.190
2020/01/31 01:04:44.4	99.340	0.560	-0.700	-0.250
2020/01/31 01:04:44.5	99.350	0.550	-0.610	-0.310
2020/01/31 01:04:44.6	99.360	0.530	-0.510	-0.350
2020/01/31 01:04:44.7	99.370	0.510	-0.410	-0.400
2020/01/31 01:04:44.8	99.370	0.480	-0.310	-0.430
2020/01/31 01:04:44.9	99.380	0.460	-0.210	-0.460
2020/01/31 01:04:45.0	99.380	0.430	-0.110	-0.490
2020/01/31 01:04:45.1	99.380	0.400	-0.010	-0.500
2020/01/31 01:04:45.2	99.380	0.360	0.090	-0.520
2020/01/31 01:04:45.3	99.380	0.330	0.180	-0.520
2020/01/31 01:04:45.4	99.380	0.290	0.280	-0.520
2020/01/31 01:04:45.5	99.370	0.250	0.370	-0.510
2020/01/31 01:04:45.6	99.370	0.210	0.460	-0.500
2020/01/31 01:04:45.7	99.360	0.160	0.550	-0.490
2020/01/31 01:04:45.8	99.350	0.120	0.630	-0.460
2020/01/31 01:04:45.9	99.340	0.070	0.720	-0.430
2020/01/31 01:04:46.0	99.320	0.020	0.790	-0.400
2020/01/31 01:04:46.1	99.310	-0.020	0.870	-0.360
2020/01/31 01:04:46.2	99.300	-0.070	0.930	-0.320
2020/01/31 01:04:46.3	99.280	-0.120	1.000	-0.270
2020/01/31 01:04:46.4	99.270	-0.160	1.060	-0.220
2020/01/31 01:04:46.5	99.250	-0.210	1.110	-0.170
2020/01/31 01:04:46.6	99.230	-0.260	1.160	-0.120
2020/01/31 01:04:46.7	99.210	-0.300	1.200	-0.060
2020/01/31 01:04:46.8	99.190	-0.340	1.230	0.000
2020/01/31 01:04:46.9	99.170	-0.380	1.260	0.070
2020/01/31 01:04:47.0	99.150	-0.420	1.280	0.120
2020/01/31 01:04:47.1	99.130	-0.460	1.300	0.190
2020/01/31 01:04:47.2	99.110	-0.490	1.300	0.250
2020/01/31 01:04:47.3	99.090	-0.520	1.300	0.320
2020/01/31 01:04:47.4	99.060	-0.550	1.290	0.380
2020/01/31 01:04:47.5	99.040	-0.570	1.280	0.450
2020/01/31 01:04:47.6	99.020	-0.590	1.250	0.520
2020/01/31 01:04:47.7	99.000	-0.600	1.220	0.580
2020/01/31 01:04:47.8	98.970	-0.610	1.180	0.640
2020/01/31 01:04:47.9	98.950	-0.620	1.140	0.700
2020/01/31 01:04:48.0	98.940	-0.620	1.080	0.770
2020/01/31 01:04:48.1	98.920	-0.620	1.020	0.820
2020/01/31 01:04:48.2	98.900	-0.620	0.950	0.880
2020/01/31 01:04:48.3	98.890	-0.610	0.870	0.930
2020/01/31 01:04:48.4	98.870	-0.590	0.790	0.980
2020/01/31 01:04:48.5	98.860	-0.580	0.700	1.020
2020/01/31 01:04:48.6	98.850	-0.550	0.600	1.060
2020/01/31 01:04:48.7	98.850	-0.530	0.500	1.100
2020/01/31 01:04:48.8	98.840	-0.500	0.390	1.140
2020/01/31 01:04:48.9	98.840	-0.470	0.280	1.180
2020/01/31 01:04:49.0	98.840	-0.430	0.160	1.200
2020/01/31 01:04:49.1	98.830	-0.390	0.050	1.230
2020/01/31 01:04:49.2	98.840	-0.350	-0.070	1.260
2020/01/31 01:04:49.3	98.840	-0.310	-0.200	1.290
2020/01/31 01:04:49.4	98.840	-0.260	-0.320	1.320
2020/01/31 01:04:49.5	98.850	-0.220	-0.440	1.350
2020/01/31 01:04:49.6	98.860	-0.170	-0.560	1.370
2020/01/31 01:04:49.7	98.860	-0.120	-0.680	1.400
2020/01/31 01:04:49.8	98.870	-0.070	-0.800	1.420
2020/01/31 01:04:49.9	98.880	-0.030	-0.910	1.450
2020/01/31 01:04:50.0	98.880	0.020	-1.030	1.480
2020/01/31 01:04:50.1	98.890	0.070	-1.130	1.510
2020/01/31 01:04:50.2	98.900	0.110	-1.230	1.540
2020/01/31 01:04:50.3	98.910	0.160	-1.320	1.560
2020/01/31 01:04:50.4	98.920	0.200	-1.400	1.590
2020/01/31 01:04:50.5	98.930	0.240	-1.480	1.620
2020/01/31 01:04:50.6	98.940	0.280	-1.540	1.650
2020/01/31 01:04:50.7	98.950	0.310	-1.600	1.680
2020/01/31 01:04:50.8	98.960	0.340	-1.640	1.710
2020/01/31 01:04:50.9	98.970	0.370	-1.680	1.740
2020/01/31 01:04:51.0	98.980	0.400	-1.700	1.760
2020/01/31 01:04:51.1	98.990	0.420	-1.720	1.790
2020/01/31 01:04:51.2	99.000	0.430	-1.720	1.810
2020/01/31 01:04:51.3	99.010	0.450	-1.710	1.840
2020/01/31 01:04:51.4	99.020	0.460	-1.700	1.860
2020/01/31 01:04:51.5	99.030	0.460	-1.670	1.880
2020/01/31 01:04:51.6	99.040	0.470	-1.630	1.900
2020/01/31 01:04:51.7	99.050	0.470	-1.580	1.920
2020/01/31 01:04:51.8	99.060	0.460	-1.520	1.940
2020/01/31 01:04:51.9	99.070	0.450	-1.450	1.960
2020/01/31 01:04:52.0	99.090	0.440	-1.370	1.970
2020/01/31 01:04:52.1	99.100	0.430	-1.280	1.980
2020/01/31 01:04:52.2	99.110	0.410	-1.190	1.990
2020/01/31 01:04:52.3	99.120	0.390	-1.090	2.000
2020/01/31 01:04:52.4	99.130	0.370	-0.980	2.000
2020/01/31 01:04:52.5	99.140	0.350	-0.870	2.010
2020/01/31 01:04:52.6	99.150	0.320	-0.750	2.010
2020/01/31 01:04:52.7	99.160	0.290	-0.630	2.010
2020/01/31 01:04:52.8	99.180	0.270	-0.510	2.000
2020/01/31 01:04:52.9	99.190	0.230	-0.390	2.000
2020/01/31 01:04:53.0	99.180	0.200	-0.260	1.990
2020/01/31 01:04:53.1	99.190	0.170	-0.130	1.980
2020/01/31 01:04:53.2	99.210	0.140	-0.010	1.970
2020/01/31 01:04:53.3	99.220	0.110	0.110	1.960
2020/01/31 01:04:53.4	99.230	0.070	0.220	1.950
2020/01/31 01:04:53.5	99.250	0.040	0.330	1.930
2020/01/31 01:04:53.6	99.260	0.010	0.440	1.920
2020/01/31 01:04:53.7	99.270	-0.020	0.540	1.900
2020/01/31 01:04:53.8	99.290	-0.050	0.640	1.880
2020/01/31 01:04:53.9	99.300	-0.070	0.720	1.870
2020/01/31 01:04:54.0	99.310	-0.100	0.800	1.850
2020/01/31 01:04:54.1	99.320	-0.120	0.870	1.840
2020/01/31 01:04:54.2	99.330	-0.150	0.940	1.820
2020/01/31 01:04:54.3	99.340	-0.170	0.990	1.810
2020/01/31 01:04:54.4	99.350	-0.180	1.030	1.790
2020/01/31 01:04:54.5	99.360	-0.200	1.070	1.780
2020/01/31 01:04:54.6	99.370	-0.210	1.090	1.770
2020/01/31 01:04:54.7	99.370	-0.220	1.110	1.750
2020/01/31 01:04:54.8	99.370	-0.230	1.120	1.740
2020/01/31 01:04:54.9	99.370	-0.240	1.110	1.730
2020/01/31 01:04:55.0	99.360	-0.240	1.100	1.730
2020/01/31 01:04:55.1	99.360	-0.240	1.080	1.720
2020/01/31 01:04:55.2	99.360	-0.240	1.050	1.710
2020/01/31 01:04:55.3	99.350	-0.240	1.010	1.710
2020/01/31 01:04:55.4	99.340	-0.230	0.960	1.700
2020/01/31 01:04:55.5	99.330	-0.220	0.900	1.690
2020/01/31 01:04:55.6	99.320	-0.210	0.840	1.680
2020/01/31 01:04:55.7	99.310	-0.200	0.770	1.670
2020/01/31 01:04:55.8	99.290	-0.190	0.700	1.660
2020/01/31 01:04:55.9	99.280	-0.180	0.620	1.650
2020/01/31 01:04:56.0	99.270	-0.160	0.530	1.630
2020/01/31 01:04:56.1	99.250	-0.150	0.450	1.610
2020/01/31 01:04:56.2	99.230	-0.140	0.360	1.600
2020/01/31 01:04:56.3	99.210	-0.120	0.270	1.580
2020/01/31 01:04:56.4	99.190	-0.110	0.180	1.550
2020/01/31 01:04:56.5	99.170	-0.090	0.090	1.530
2020/01/31 01:04:56.6	99.140	-0.080	0.010	1.500
2020/01/31 01:04:56.7	99.120	-0.070	-0.080	1.470
2020/01/31 01:04:56.8	99.100	-0.050	-0.160	1.440
2020/01/31 01:04:56.9	99.080	-0.040	-0.240	1.400
2020/01/31 01:04:57.0	99.060	-0.040	-0.310	1.370
2020/01/31 01:04:57.1	99.040	-0.030	-0.380	1.330
2020/01/31 01:04:57.2	99.010	-0.020	-0.440	1.290
2020/01/31 01:04:57.3	98.990	-0.020	-0.500	1.250
2020/01/31 01:04:57.4	98.970	-0.020	-0.550	1.210
2020/01/31 01:04:57.5	98.950	-0.010	-0.590	1.170
2020/01/31 01:04:57.6	98.930	-0.020	-0.620	1.130
2020/01/31 01:04:57.7	98.910	-0.020	-0.650	1.090
2020/01/31 01:04:57.8	98.890	-0.020	-0.680	1.050
2020/01/31 01:04:57.9	98.870	-0.030	-0.690	1.010
2020/01/31 01:04:58.0	98.860	-0.030	-0.700	0.960
2020/01/31 01:04:58.1	98.840	-0.040	-0.700	0.920
2020/01/31 01:04:58.2	98.830	-0.050	-0.700	0.880
2020/01/31 01:04:58.3	98.810	-0.060	-0.690	0.840
2020/01/31 01:04:58.4	98.800	-0.070	-0.670	0.810
2020/01/31 01:04:58.5	98.800	-0.080	-0.650	0.770
2020/01/31 01:04:58.6	98.790	-0.090	-0.630	0.740
2020/01/31 01:04:58.7	98.790	-0.100	-0.600	0.700
2020/01/31 01:04:58.8	98.780	-0.110	-0.570	0.670
2020/01/31 01:04:58.9	98.780	-0.120	-0.530	0.640
2020/01/31 01:04:59.0	98.780	-0.130	-0.500	0.610
2020/01/31 01:04:59.1	98.780	-0.130	-0.460	0.580
2020/01/31 01:04:59.2	98.790	-0.140	-0.420	0.550
2020/01/31 01:04:59.3	98.800	-0.140	-0.390	0.530
2020/01/31 01:04:59.4	98.810	-0.140	-0.350	0.500
2020/01/31 01:04:59.5	98.830	-0.140	-0.310	0.480
2020/01/31 01:04:59.6	98.840	-0.140	-0.280	0.460
2020/01/31 01:04:59.7	98.860	-0.130	-0.250	0.430
2020/01/31 01:04:59.8	98.880	-0.130	-0.230	0.410
2020/01/31 01:04:59.9	98.900	-0.110	-0.210	0.400
2020/01/31 01:05:00.0	98.910	-0.100	-0.190	0.380
2020/01/31 01:05:00.1	98.940	-0.090	-0.180	0.360
2020/01/31 01:05:00.2	98.960	-0.070	-0.170	0.340
2020/01/31 01:05:00.3	98.990	-0.050	-0.170	0.330
2020/01/31 01:05:00.4	99.020	-0.020	-0.170	0.310
2020/01/31 01:05:00.5	99.040	0.000	-0.180	0.290
2020/01/31 01:05:00.6	99.070	0.030	-0.190	0.280
2020/01/31 01:05:00.7	99.100	0.060	-0.210	0.270
2020/01/31 01:05:00.8	99.130	0.100	-0.230	0.250
2020/01/31 01:05:00.9	99.160	0.130	-0.260	0.240
2020/01/31 01:05:01.0	99.190	0.170	-0.290	0.220
2020/01/31 01:05:01.1	99.220	0.210	-0.320	0.210
2020/01/31 01:05:01.2	99.250	0.240	-0.360	0.200
2020/01/31 01:05:01.3	99.280	0.280	-0.390	0.190
2020/01/31 01:05:01.4	99.310	0.320	-0.430	0.180
2020/01/31 01:05:01.5	99.340	0.360	-0.470	0.180
2020/01/31 01:05:01.6	99.370	0.400	-0.500	0.170
2020/01/31 01:05:01.7	99.400	0.430	-0.540	0.170
2020/01/31 01:05:01.8	99.420	0.470	-0.570	0.170
2020/01/31 01:05:01.9	99.450	0.500	-0.610	0.160
2020/01/31 01:05:02.0	99.460	0.530	-0.640	0.170
2020/01/31 01:05:02.1	99.490	0.560	-0.660	0.170
2020/01/31 01:05:02.2	99.510	0.590	-0.680	0.180
2020/01/31 01:05:02.3	99.530	0.610	-0.690	0.190
2020/01/31 01:05:02.4	99.550	0.630	-0.700	0.200
2020/01/31 01:05:02.5	99.570	0.650	-0.710	0.220
2020/01/31 01:05:02.6	99.580	0.660	-0.700	0.240
2020/01/31 01:05:02.7	99.600	0.670	-0.690	0.260
2020/01/31 01:05:02.8	99.610	0.670	-0.680	0.280
2020/01/31 01:05:02.9	99.620	0.670	-0.660	0.310
2020/01/31 01:05:03.0	99.630	0.660	-0.630	0.340
2020/01/31 01:05:03.1	99.640	0.650	-0.590	0.380
2020/01/31 01:05:03.2	99.640	0.630	-0.550	0.420
2020/01/31 01:05:03.3	99.640	0.610	-0.510	0.460
2020/01/31 01:05:03.4	99.640	0.590	-0.450	0.510
2020/01/31 01:05:03.5	99.640	0.560	-0.400	0.560
2020/01/31 01:05:03.6	99.630	0.530	-0.330	0.610
2020/01/31 01:05:03.7	99.620	0.490	-0.270	0.670
2020/01/31 01:05:03.8	99.610	0.450	-0.200	0.730
2020/01/31 01:05:03.9	99.600	0.410	-0.130	0.790
2020/01/31 01:05:04.0	99.580	0.360	-0.050	0.860
2020/01/31 01:05:04.1	99.560	0.310	0.020	0.930
2020/01/31 01:05:04.2	99.540	0.260	0.100	1.000
2020/01/31 01:05:04.3	99.520	0.200	0.170	1.080
2020/01/31 01:05:04.4	99.490	0.150	0.240	1.150
2020/01/31 01:05:04.5	99.470	0.090	0.310	1.230
2020/01/31 01:05:04.6	99.440	0.030	0.380	1.310
2020/01/31 01:05:04.7	99.410	-0.030	0.440	1.390
2020/01/31 01:05:04.8	99.380	-0.080	0.500	1.470
2020/01/31 01:05:04.9	99.340	-0.140	0.560	1.550
2020/01/31 01:05:05.0	99.320	-0.200	0.610	1.630
2020/01/31 01:05:05.1	99.290	-0.260	0.650	1.710
2020/01/31 01:05:05.2	99.260	-0.310	0.690	1.780
2020/01/31 01:05:05.3	99.220	-0.370	0.720	1.860
2020/01/31 01:05:05.4	99.190	-0.420	0.750	1.930
2020/01/31 01:05:05.5	99.160	-0.470	0.770	2.010
2020/01/31 01:05:05.6	99.130	-0.520	0.780	2.070
2020/01/31 01:05:05.7	99.100	-0.570	0.790	2.140
2020/01/31 01:05:05.8	99.070	-0.610	0.790	2.200
2020/01/31 01:05:05.9	99.050	-0.650	0.790	2.250
2020/01/31 01:05:06.0	99.030	-0.690	0.780	2.300
2020/01/31 01:05:06.1	99.010	-0.720	0.760	2.350
2020/01/31 01:05:06.2	98.990	-0.760	0.740	2.390
2020/01/31 01:05:06.3	98.980	-0.780	0.710	2.420
2020/01/31 01:05:06.4	98.970	-0.810	0.680	2.450
2020/01/31 01:05:06.5	98.970	-0.830	0.640	2.470
2020/01/31 01:05:06.6	98.970	-0.840	0.600	2.490
2020/01/31 01:05:06.7	98.970	-0.860	0.550	2.510
2020/01/31 01:05:06.8	98.980	-0.860	0.500	2.510
2020/01/31 01:05:06.9	98.990	-0.870	0.450	2.510
2020/01/31 01:05:07.0	98.990	-0.870	0.390	2.510
2020/01/31 01:05:07.1	99.000	-0.870	0.340	2.510
2020/01/31 01:05:07.2	99.020	-0.860	0.280	2.490
2020/01/31 01:05:07.3	99.050	-0.850	0.220	2.480
2020/01/31 01:05:07.4	99.070	-0.840	0.160	2.460
2020/01/31 01:05:07.5	99.100	-0.820	0.090	2.440
2020/01/31 01:05:07.6	99.130	-0.800	0.030	2.410
2020/01/31 01:05:07.7	99.160	-0.780	-0.030	2.380
2020/01/31 01:05:07.8	99.190	-0.760	-0.090	2.350
2020/01/31 01:05:07.9	99.220	-0.730	-0.150	2.320
2020/01/31 01:05:08.0	99.250	-0.700	-0.220	2.280
2020/01/31 01:05:08.1	99.290	-0.660	-0.280	2.250
2020/01/31 01:05:08.2	99.320	-0.630	-0.330	2.210
2020/01/31 01:05:08.3	99.340	-0.590	-0.390	2.180
2020/01/31 01:05:08.4	99.370	-0.550	-0.450	2.150
2020/01/31 01:05:08.5	99.400	-0.510	-0.500	2.110
2020/01/31 01:05:08.6	99.420	-0.460	-0.560	2.080
2020/01/31 01:05:08.7	99.440	-0.420	-0.610	2.050
2020/01/31 01:05:08.8	99.460	-0.370	-0.660	2.010
2020/01/31 01:05:08.9	99.480	-0.320	-0.710	1.980
2020/01/31 01:05:09.0	99.490	-0.270	-0.750	1.960
2020/01/31 01:05:09.1	99.500	-0.220	-0.800	1.930
2020/01/31 01:05:09.2	99.510	-0.170	-0.840	1.900
2020/01/31 01:05:09.3	99.520	-0.120	-0.870	1.870
2020/01/31 01:05:09.4	99.530	-0.070	-0.910	1.840
2020/01/31 01:05:09.5	99.530	-0.010	-0.940	1.810
2020/01/31 01:05:09.6	99.530	0.040	-0.970	1.780
2020/01/31 01:05:09.7	99.530	0.100	-0.990	1.750
2020/01/31 01:05:09.8	99.530	0.150	-1.020	1.730
2020/01/31 01:05:09.9	99.520	0.200	-1.030	1.700
2020/01/31 01:05:10.0	99.520	0.260	-1.050	1.660
2020/01/31 01:05:10.1	99.510	0.310	-1.050	1.630
2020/01/31 01:05:10.2	99.500	0.360	-1.060	1.600
2020/01/31 01:05:10.3	99.490	0.410	-1.060	1.570
2020/01/31 01:05:10.4	99.480	0.460	-1.050	1.540
2020/01/31 01:05:10.5	99.470	0.500	-1.040	1.510
2020/01/31 01:05:10.6	99.460	0.550	-1.030	1.470
2020/01/31 01:05:10.7	99.440	0.590	-1.010	1.440
2020/01/31 01:05:10.8	99.430	0.630	-0.980	1.400
2020/01/31 01:05:10.9	99.410	0.670	-0.950	1.370
2020/01/31 01:05:11.0	99.390	0.700	-0.910	1.330
2020/01/31 01:05:11.1	99.370	0.730	-0.870	1.290
2020/01/31 01:05:11.2	99.350	0.760	-0.830	1.250
2020/01/31 01:05:11.3	99.340	0.780	-0.770	1.210
2020/01/31 01:05:11.4	99.320	0.800	-0.720	1.170
2020/01/31 01:05:11.5	99.310	0.810	-0.660	1.130
2020/01/31 01:05:11.6	99.290	0.820	-0.590	1.090
2020/01/31 01:05:11.7	99.270	0.830	-0.520	1.040
2020/01/31 01:05:11.8	99.260	0.830	-0.450	1.000
2020/01/31 01:05:11.9	99.240	0.830	-0.370	0.950
2020/01/31 01:05:12.0	99.230	0.820	-0.300	0.900
2020/01/31 01:05:12.1	99.220	0.810	-0.220	0.860
2020/01/31 01:05:12.2	99.210	0.800	-0.140	0.810
2020/01/31 01:05:12.3	99.200	0.780	-0.060	0.760
2020/01/31 01:05:12.4	99.190	0.760	0.030	0.720
2020/01/31 01:05:12.5	99.180	0.730	0.110	0.670
2020/01/31 01:05:12.6	99.170	0.700	0.180	0.620
2020/01/31 01:05:12.7	99.160	0.670	0.260	0.570
2020/01/31 01:05:12.8	99.160	0.630	0.340	0.520
2020/01/31 01:05:12.9	99.150	0.590	0.410	0.480
2020/01/31 01:05:13.0	99.140	0.550	0.480	0.430
2020/01/31 01:05:13.1	99.140	0.510	0.540	0.380
2020/01/31 01:05:13.2	99.140	0.470	0.600	0.340
2020/01/31 01:05:13.3	99.140	0.420	0.660	0.290
2020/01/31 01:05:13.4	99.150	0.370	0.700	0.250
2020/01/31 01:05:13.5	99.160	0.330	0.750	0.210
2020/01/31 01:05:13.6	99.160	0.280	0.780	0.170
2020/01/31 01:05:13.7	99.170	0.230	0.810	0.130
2020/01/31 01:05:13.8	99.180	0.190	0.830	0.090
2020/01/31 01:05:13.9	99.200	0.140	0.840	0.060
2020/01/31 01:05:14.0	99.220	0.100	0.840	0.030
2020/01/31 01:05:14.1	99.230	0.050	0.840	-0.000
2020/01/31 01:05:14.2	99.250	0.010	0.830	-0.030
2020/01/31 01:05:14.3	99.260	-0.030	0.810	-0.050
2020/01/31 01:05:14.4	99.280	-0.060	0.790	-0.070
2020/01/31 01:05:14.5	99.290	-0.100	0.750	-0.090
2020/01/31 01:05:14.6	99.310	-0.130	0.710	-0.100
2020/01/31 01:05:14.7	99.330	-0.160	0.670	-0.110
2020/01/31 01:05:14.8	99.340	-0.180	0.620	-0.120
2020/01/31 01:05:14.9	99.360	-0.210	0.560	-0.120
2020/01/31 01:05:15.0	99.360	-0.230	0.500	-0.120
2020/01/31 01:05:15.1	99.370	-0.250	0.440	-0.110
2020/01/31 01:05:15.2	99.390	-0.260	0.370	-0.100
2020/01/31 01:05:15.3	99.400	-0.280	0.300	-0.090
2020/01/31 01:05:15.4	99.410	-0.290	0.230	-0.070
2020/01/31 01:05:15.5	99.420	-0.300	0.160	-0.040
2020/01/31 01:05:15.6	99.430	-0.300	0.090	-0.010
2020/01/31 01:05:15.7	99.430	-0.310	0.010	0.020
2020/01/31 01:05:15.8	99.440	-0.310	-0.060	0.060
2020/01/31 01:05:15.9	99.450	-0.310	-0.130	0.100
2020/01/31 01:05:16.0	99.440	-0.310	-0.200	0.150
2020/01/31 01:05:16.1	99.450	-0.310	-0.270	0.200
2020/01/31 01:05:16.2	99.450	-0.310	-0.330	0.250
2020/01/31 01:05:16.3	99.450	-0.300	-0.400	0.310
2020/01/31 01:05:16.4	99.450	-0.300	-0.460	0.370
2020/01/31 01:05:16.5	99.450	-0.290	-0.510	0.440
2020/01/31 01:05:16.6	99.450	-0.290	-0.560	0.510
2020/01/31 01:05:16.7	99.440	-0.280	-0.610	0.580
2020/01/31 01:05:16.8	99.440	-0.270	-0.650	0.660
2020/01/31 01:05:16.9	99.430	-0.270	-0.690	0.740
2020/01/31 01:05:17.0	99.430	-0.260	-0.730	0.820
2020/01/31 01:05:17.1	99.430	-0.250	-0.760	0.910
2020/01/31 01:05:17.2	99.420	-0.250	-0.790	0.990
2020/01/31 01:05:17.3	99.410	-0.240	-0.810	1.080
2020/01/31 01:05:17.4	99.400	-0.230	-0.830	1.170
2020/01/31 01:05:17.5	99.390	-0.230	-0.840	1.260
2020/01/31 01:05:17.6	99.370	-0.220	-0.840	1.350
2020/01/31 01:05:17.7	99.360	-0.210	-0.850	1.440
2020/01/31 01:05:17.8	99.350	-0.210	-0.850	1.530
2020/01/31 01:05:17.9	99.340	-0.200	-0.840	1.620
2020/01/31 01:05:18.0	99.330	-0.200	-0.830	1.700
2020/01/31 01:05:18.1	99.320	-0.190	-0.820	1.790
2020/01/31 01:05:18.2	99.310	-0.190	-0.800	1.870
2020/01/31 01:05:18.3	99.300	-0.180	-0.780	1.950
2020/01/31 01:05:18.4	99.290	-0.180	-0.760	2.030
2020/01/31 01:05:18.5	99.280	-0.170	-0.730	2.100
2020/01/31 01:05:18.6	99.270	-0.170	-0.700	2.180
2020/01/31 01:05:18.7	99.260	-0.160	-0.670	2.250
2020/01/31 01:05:18.8	99.250	-0.160	-0.640	2.310
2020/01/31 01:05:18.9	99.250	-0.150	-0.600	2.380
2020/01/31 01:05:19.0	99.250	-0.150	-0.560	2.440
2020/01/31 01:05:19.1	99.240	-0.140	-0.530	2.500
2020/01/31 01:05:19.2	99.240	-0.140	-0.490	2.550
2020/01/31 01:05:19.3	99.240	-0.130	-0.450	2.610
2020/01/31 01:05:19.4	99.230	-0.120	-0.410	2.650
2020/01/31 01:05:19.5	99.230	-0.120	-0.360	2.690
2020/01/31 01:05:19.6	99.220	-0.110	-0.320	2.730
2020/01/31 01:05:19.7	99.220	-0.100	-0.280	2.770
2020/01/31 01:05:19.8	99.220	-0.100	-0.240	2.800
2020/01/31 01:05:19.9	99.220	-0.090	-0.190	2.820
2020/01/31 01:05:20.0	99.220	-0.080	-0.150	2.840
2020/01/31 01:05:20.1	99.220	-0.070	-0.110	2.850
2020/01/31 01:05:20.2	99.220	-0.070	-0.070	2.860
2020/01/31 01:05:20.3	99.220	-0.060	-0.030	2.870
2020/01/31 01:05:20.4	99.220	-0.050	0.010	2.870
2020/01/31 01:05:20.5	99.220	-0.040	0.050	2.860
2020/01/31 01:05:20.6	99.230	-0.040	0.080	2.850
2020/01/31 01:05:20.7	99.230	-0.030	0.120	2.830
2020/01/31 01:05:20.8	99.230	-0.020	0.150	2.810
2020/01/31 01:05:20.9	99.240	-0.010	0.180	2.780
2020/01/31 01:05:21.0	99.240	-0.000	0.210	2.740
2020/01/31 01:05:21.1	99.250	0.000	0.230	2.700
2020/01/31 01:05:21.2	99.250	0.010	0.260	2.660
2020/01/31 01:05:21.3	99.250	0.020	0.280	2.610
2020/01/31 01:05:21.4	99.260	0.020	0.300	2.550
2020/01/31 01:05:21.5	99.260	0.030	0.320	2.490
2020/01/31 01:05:21.6	99.260	0.040	0.330	2.430
2020/01/31 01:05:21.7	99.270	0.040	0.340	2.360
2020/01/31 01:05:21.8	99.270	0.050	0.350	2.290
2020/01/31 01:05:21.9	99.270	0.050	0.350	2.220
2020/01/31 01:05:22.0	99.270	0.060	0.350	2.140
2020/01/31 01:05:22.1	99.270	0.060	0.340	2.050
2020/01/31 01:05:22.2	99.270	0.060	0.340	1.970
2020/01/31 01:05:22.3	99.270	0.070	0.330	1.890
2020/01/31 01:05:22.4	99.270	0.070	0.310	1.800
2020/01/31 01:05:22.5	99.270	0.070	0.300	1.710
2020/01/31 01:05:22.6	99.270	0.070	0.280	1.620
2020/01/31 01:05:22.7	99.270	0.070	0.250	1.530
2020/01/31 01:05:22.8	99.270	0.070	0.230	1.440
2020/01/31 01:05:22.9	99.270	0.070	0.200	1.350
2020/01/31 01:05:23.0	99.250	0.070	0.170	1.250
2020/01/31 01:05:23.1	99.250	0.060	0.140	1.160
2020/01/31 01:05:23.2	99.250	0.060	0.110	1.070
2020/01/31 01:05:23.3	99.250	0.060	0.070	0.990
2020/01/31 01:05:23.4	99.240	0.060	0.040	0.900
2020/01/31 01:05:23.5	99.240	0.050	-0.000	0.810
2020/01/31 01:05:23.6	99.230	0.050	-0.040	0.730
2020/01/31 01:05:23.7	99.220	0.050	-0.070	0.650
2020/01/31 01:05:23.8	99.220	0.040	-0.110	0.570
2020/01/31 01:05:23.9	99.210	0.040	-0.150	0.500
2020/01/31 01:05:24.0	99.190	0.030	-0.190	0.430
2020/01/31 01:05:24.1	99.180	0.030	-0.220	0.360
2020/01/31 01:05:24.2	99.170	0.030	-0.260	0.290
2020/01/31 01:05:24.3	99.160	0.020	-0.290	0.230
2020/01/31 01:05:24.4	99.150	0.020	-0.320	0.170
2020/01/31 01:05:24.5	99.130	0.020	-0.350	0.110
2020/01/31 01:05:24.6	99.120	0.020	-0.370	0.060
2020/01/31 01:05:24.7	99.110	0.010	-0.400	0.000
2020/01/31 01:05:24.8	99.100	0.010	-0.420	-0.040
2020/01/31 01:05:24.9	99.100	0.010	-0.440	-0.090
2020/01/31 01:05:25.0	99.090	0.010	-0.450	-0.140
2020/01/31 01:05:25.1	99.080	0.010	-0.460	-0.180
2020/01/31 01:05:25.2	99.080	0.010	-0.470	-0.210
2020/01/31 01:05:25.3	99.070	0.010	-0.480	-0.250
2020/01/31 01:05:25.4	99.070	0.010	-0.490	-0.280
2020/01/31 01:05:25.5	99.060	0.010	-0.490	-0.310
2020/01/31 01:05:25.6	99.060	0.010	-0.490	-0.340
2020/01/31 01:05:25.7	99.060	0.010	-0.490	-0.360
2020/01/31 01:05:25.8	99.060	0.020	-0.480	-0.380
2020/01/31 01:05:25.9	99.070	0.020	-0.480	-0.400
2020/01/31 01:05:26.0	99.070	0.020	-0.470	-0.410
2020/01/31 01:05:26.1	99.070	0.030	-0.460	-0.420
2020/01/31 01:05:26.2	99.080	0.030	-0.450	-0.440
2020/01/31 01:05:26.3	99.090	0.040	-0.440	-0.440
2020/01/31 01:05:26.4	99.100	0.040	-0.430	-0.450
2020/01/31 01:05:26.5	99.110	0.050	-0.420	-0.450
2020/01/31 01:05:26.6	99.120	0.060	-0.410	-0.450
2020/01/31 01:05:26.7	99.130	0.060	-0.400	-0.440
2020/01/31 01:05:26.8	99.140	0.070	-0.390	-0.440
2020/01/31 01:05:26.9	99.160	0.080	-0.380	-0.420
2020/01/31 01:05:27.0	99.160	0.090	-0.370	-0.410
2020/01/31 01:05:27.1	99.170	0.100	-0.360	-0.390
2020/01/31 01:05:27.2	99.190	0.110	-0.360	-0.370
2020/01/31 01:05:27.3	99.200	0.120	-0.350	-0.350
2020/01/31 01:05:27.4	99.220	0.130	-0.340	-0.320
2020/01/31 01:05:27.5	99.230	0.150	-0.330	-0.290
2020/01/31 01:05:27.6	99.250	0.160	-0.330	-0.250
2020/01/31 01:05:27.7	99.260	0.170	-0.320	-0.210
2020/01/31 01:05:27.8	99.280	0.180	-0.310	-0.170
2020/01/31 01:05:27.9	99.290	0.190	-0.310	-0.120
2020/01/31 01:05:28.0	99.330	0.200	-0.300	-0.070
2020/01/31 01:05:28.1	99.340	0.210	-0.290	-0.020
2020/01/31 01:05:28.2	99.360	0.210	-0.280	0.030
2020/01/31 01:05:28.3	99.370	0.220	-0.270	0.090
2020/01/31 01:05:28.4	99.390	0.230	-0.260	0.150
2020/01/31 01:05:28.5	99.400	0.230	-0.250	0.210
2020/01/31 01:05:28.6	99.410	0.240	-0.230	0.280
2020/01/31 01:05:28.7	99.420	0.240	-0.220	0.350
2020/01/31 01:05:28.8	99.430	0.240	-0.210	0.420
2020/01/31 01:05:28.9	99.440	0.240	-0.190	0.500
2020/01/31 01:05:29.0	99.450	0.240	-0.170	0.580
2020/01/31 01:05:29.1	99.460	0.240	-0.160	0.660
2020/01/31 01:05:29.2	99.460	0.240	-0.140	0.740
2020/01/31 01:05:29.3	99.470	0.230	-0.120	0.830
2020/01/31 01:05:29.4	99.470	0.230	-0.100	0.910
2020/01/31 01:05:29.5	99.470	0.220	-0.080	1.000
2020/01/31 01:05:29.6	99.470	0.210	-0.060	1.090
2020/01/31 01:05:29.7	99.460	0.200	-0.040	1.180
2020/01/31 01:05:29.8	99.460	0.180	-0.020	1.270
2020/01/31 01:05:29.9	99.450	0.170	0.000	1.360
2020/01/31 01:05:30.0	99.440	0.150	0.030	1.450
2020/01/31 01:05:30.1	99.430	0.130	0.050	1.530
2020/01/31 01:05:30.2	99.420	0.120	0.070	1.620
2020/01/31 01:05:30.3	99.410	0.090	0.100	1.710
2020/01/31 01:05:30.4	99.400	0.070	0.120	1.790
2020/01/31 01:05:30.5	99.380	0.050	0.150	1.870
2020/01/31 01:05:30.6	99.370	0.030	0.170	1.950
2020/01/31 01:05:30.7	99.360	-0.000	0.200	2.020
2020/01/31 01:05:30.8	99.350	-0.030	0.230	2.100
2020/01/31 01:05:30.9	99.340	-0.050	0.250	2.170
2020/01/31 01:05:31.0	99.330	-0.080	0.280	2.230
2020/01/31 01:05:31.1	99.320	-0.110	0.300	2.300
2020/01/31 01:05:31.2	99.310	-0.140	0.330	2.360
2020/01/31 01:05:31.3	99.300	-0.170	0.350	2.420
2020/01/31 01:05:31.4	99.290	-0.190	0.370	2.480
2020/01/31 01:05:31.5	99.280	-0.220	0.390	2.530
2020/01/31 01:05:31.6	99.270	-0.250	0.410	2.580
2020/01/31 01:05:31.7	99.260	-0.270	0.420	2.630
2020/01/31 01:05:31.8	99.250	-0.300	0.440	2.670
2020/01/31 01:05:31.9	99.240	-0.320	0.450	2.710
2020/01/31 01:05:32.0	99.230	-0.350	0.450	2.750
2020/01/31 01:05:32.1	99.220	-0.370	0.460	2.790
2020/01/31 01:05:32.2	99.210	-0.390	0.460	2.830
2020/01/31 01:05:32.3	99.210	-0.400	0.450	2.860
2020/01/31 01:05:32.4	99.200	-0.420	0.440	2.890
2020/01/31 01:05:32.5	99.190	-0.430	0.430	2.910
2020/01/31 01:05:32.6	99.190	-0.440	0.410	2.940
2020/01/31 01:05:32.7	99.180	-0.450	0.390	2.960
2020/01/31 01:05:32.8	99.170	-0.460	0.360	2.980
2020/01/31 01:05:32.9	99.170	-0.460	0.330	2.990
2020/01/31 01:05:33.0	99.170	-0.460	0.300	3.000
2020/01/31 01:05:33.1	99.170	-0.450	0.260	3.010
2020/01/31 01:05:33.2	99.160	-0.440	0.210	3.010
2020/01/31 01:05:33.3	99.160	-0.430	0.170	3.010
2020/01/31 01:05:33.4	99.160	-0.420	0.120	3.010
2020/01/31 01:05:33.5	99.150	-0.400	0.060	3.000
2020/01/31 01:05:33.6	99.150	-0.390	0.000	2.990
2020/01/31 01:05:33.7	99.150	-0.360	-0.060	2.970
2020/01/31 01:05:33.8	99.150	-0.340	-0.120	2.950
2020/01/31 01:05:33.9	99.150	-0.310	-0.190	2.920
2020/01/31 01:05:34.0	99.150	-0.280	-0.260	2.890
2020/01/31 01:05:34.1	99.150	-0.250	-0.330	2.860
2020/01/31 01:05:34.2	99.150	-0.210	-0.400	2.820
2020/01/31 01:05:34.3	99.160	-0.180	-0.470	2.770
2020/01/31 01:05:34.4	99.160	-0.140	-0.540	2.720
2020/01/31 01:05:34.5	99.170	-0.100	-0.600	2.670
2020/01/31 01:05:34.6	99.180	-0.060	-0.670	2.620
2020/01/31 01:05:34.7	99.190	-0.020	-0.730	2.560
2020/01/31 01:05:34.8	99.200	0.020	-0.800	2.490
2020/01/31 01:05:34.9	99.200	0.060	-0.850	2.430
2020/01/31 01:05:35.0	99.220	0.100	-0.910	2.360
2020/01/31 01:05:35.1	99.230	0.140	-0.960	2.290
2020/01/31 01:05:35.2	99.250	0.180	-1.010	2.210
2020/01/31 01:05:35.3	99.260	0.220	-1.040	2.130
2020/01/31 01:05:35.4	99.270	0.260	-1.080	2.060
2020/01/31 01:05:35.5	99.280	0.290	-1.110	1.980
2020/01/31 01:05:35.6	99.300	0.330	-1.130	1.890
2020/01/31 01:05:35.7	99.310	0.360	-1.140	1.810
2020/01/31 01:05:35.8	99.320	0.390	-1.150	1.730
2020/01/31 01:05:35.9	99.330	0.420	-1.160	1.650
2020/01/31 01:05:36.0	99.360	0.440	-1.150	1.560
2020/01/31 01:05:36.1	99.370	0.460	-1.140	1.480
2020/01/31 01:05:36.2	99.380	0.480	-1.120	1.400
2020/01/31 01:05:36.3	99.390	0.500	-1.090	1.320
2020/01/31 01:05:36.4	99.400	0.510	-1.060	1.240
2020/01/31 01:05:36.5	99.410	0.520	-1.020	1.160
2020/01/31 01:05:36.6	99.410	0.530	-0.980	1.090
2020/01/31 01:05:36.7	99.420	0.530	-0.930	1.010
2020/01/31 01:05:36.8	99.420	0.530	-0.880	0.940
2020/01/31 01:05:36.9	99.420	0.520	-0.820	0.880
2020/01/31 01:05:37.0	99.410	0.520	-0.750	0.810
2020/01/31 01:05:37.1	99.410	0.510	-0.690	0.750
2020/01/31 01:05:37.2	99.410	0.490	-0.620	0.690
2020/01/31 01:05:37.3	99.400	0.480	-0.550	0.630
2020/01/31 01:05:37.4	99.400	0.460	-0.470	0.580
2020/01/31 01:05:37.5	99.390	0.440	-0.390	0.530
2020/01/31 01:05:37.6	99.380	0.410	-0.320	0.490
2020/01/31 01:05:37.7	99.370	0.390	-0.240	0.440
2020/01/31 01:05:37.8	99.360	0.360	-0.160	0.400
2020/01/31 01:05:37.9	99.340	0.330	-0.080	0.370
2020/01/31 01:05:38.0	99.320	0.290	0.000	0.330
2020/01/31 01:05:38.1	99.300	0.260	0.080	0.300
2020/01/31 01:05:38.2	99.290	0.220	0.160	0.270
2020/01/31 01:05:38.3	99.270	0.190	0.230	0.240
2020/01/31 01:05:38.4	99.260	0.150	0.300	0.210
2020/01/31 01:05:38.5	99.240	0.110	0.370	0.190
2020/01/31 01:05:38.6	99.220	0.070	0.440	0.160
2020/01/31 01:05:38.7	99.210	0.030	0.510	0.140
2020/01/31 01:05:38.8	99.190	-0.010	0.570	0.120
2020/01/31 01:05:38.9	99.180	-0.060	0.620	0.100
2020/01/31 01:05:39.0	99.180	-0.100	0.670	0.080
2020/01/31 01:05:39.1	99.160	-0.140	0.710	0.070
2020/01/31 01:05:39.2	99.150	-0.180	0.750	0.050
2020/01/31 01:05:39.3	99.140	-0.210	0.790	0.040
2020/01/31 01:05:39.4	99.130	-0.250	0.820	0.020
2020/01/31 01:05:39.5	99.130	-0.290	0.840	0.010
2020/01/31 01:05:39.6	99.120	-0.320	0.860	0.000
2020/01/31 01:05:39.7	99.110	-0.350	0.870	-0.000
2020/01/31 01:05:39.8	99.110	-0.380	0.870	-0.010
2020/01/31 01:05:39.9	99.110	-0.410	0.870	-0.020
2020/01/31 01:05:40.0	99.100	-0.430	0.860	-0.020
2020/01/31 01:05:40.1	99.100	-0.450	0.840	-0.020
2020/01/31 01:05:40.2	99.100	-0.470	0.820	-0.010
2020/01/31 01:05:40.3	99.100	-0.490	0.790	-0.010
2020/01/31 01:05:40.4	99.090	-0.500	0.750	-0.000
2020/01/31 01:05:40.5	99.090	-0.510	0.710	0.010
2020/01/31 01:05:40.6	99.090	-0.520	0.670	0.020
2020/01/31 01:05:40.7	99.090	-0.520	0.610	0.040
2020/01/31 01:05:40.8	99.080	-0.520	0.560	0.060
2020/01/31 01:05:40.9	99.080	-0.520	0.500	0.080
2020/01/31 01:05:41.0	99.090	-0.510	0.430	0.100
2020/01/31 01:05:41.1	99.090	-0.500	0.360	0.130
2020/01/31 01:05:41.2	99.090	-0.490	0.290	0.160
2020/01/31 01:05:41.3	99.090	-0.470	0.220	0.190
2020/01/31 01:05:41.4	99.080	-0.450	0.140	0.230
2020/01/31 01:05:41.5	99.080	-0.430	0.070	0.260
2020/01/31 01:05:41.6	99.090	-0.410	-0.010	0.300
2020/01/31 01:05:41.7	99.090	-0.390	-0.080	0.330
2020/01/31 01:05:41.8	99.090	-0.360	-0.160	0.370
2020/01/31 01:05:41.9	99.100	-0.330	-0.230	0.410
2020/01/31 01:05:42.0	99.090	-0.300	-0.300	0.450
2020/01/31 01:05:42.1	99.100	-0.270	-0.370	0.490
2020/01/31 01:05:42.2	99.110	-0.240	-0.440	0.520
2020/01/31 01:05:42.3	99.120	-0.210	-0.500	0.560
2020/01/31 01:05:42.4	99.130	-0.180	-0.560	0.600
2020/01/31 01:05:42.5	99.140	-0.140	-0.610	0.640
2020/01/31 01:05:42.6	99.160	-0.110	-0.670	0.680
2020/01/31 01:05:42.7	99.170	-0.070	-0.710	0.720
2020/01/31 01:05:42.8	99.180	-0.040	-0.750	0.770
2020/01/31 01:05:42.9	99.200	-0.010	-0.790	0.810
2020/01/31 01:05:43.0	99.220	0.020	-0.830	0.850
2020/01/31 01:05:43.1	99.230	0.050	-0.860	0.890
2020/01/31 01:05:43.2	99.240	0.080	-0.880	0.940
2020/01/31 01:05:43.3	99.260	0.110	-0.900	0.990
2020/01/31 01:05:43.4	99.270	0.140	-0.910	1.030
2020/01/31 01:05:43.5	99.280	0.160	-0.910	1.080
2020/01/31 01:05:43.6	99.290	0.190	-0.910	1.130
2020/01/31 01:05:43.7	99.300	0.210	-0.910	1.180
2020/01/31 01:05:43.8	99.310	0.230	-0.900	1.240
2020/01/31 01:05:43.9	99.320	0.250	-0.890	1.290
2020/01/31 01:05:44.0	99.320	0.270	-0.870	1.350
2020/01/31 01:05:44.1	99.330	0.280	-0.850	1.400
2020/01/31 01:05:44.2	99.330	0.290	-0.820	1.460
2020/01/31 01:05:44.3	99.340	0.300	-0.790	1.510
2020/01/31 01:05:44.4	99.340	0.310	-0.760	1.570
2020/01/31 01:05:44.5	99.340	0.320	-0.730	1.630
2020/01/31 01:05:44.6	99.340	0.330	-0.690	1.680
2020/01/31 01:05:44.7	99.340	0.330	-0.650	1.740
2020/01/31 01:05:44.8	99.330	0.340	-0.610	1.790
2020/01/31 01:05:44.9	99.330	0.340	-0.570	1.850
2020/01/31 01:05:45.0	99.340	0.340	-0.530	1.900
2020/01/31 01:05:45.1	99.330	0.340	-0.490	1.950
2020/01/31 01:05:45.2	99.320	0.340	-0.440	2.000
2020/01/31 01:05:45.3	99.320	0.340	-0.400	2.050
2020/01/31 01:05:45.4	99.310	0.330	-0.360	2.090
2020/01/31 01:05:45.5	99.300	0.330	-0.310	2.140
2020/01/31 01:05:45.6	99.280	0.330	-0.270	2.180
2020/01/31 01:05:45.7	99.270	0.320	-0.220	2.220
2020/01/31 01:05:45.8	99.260	0.320	-0.180	2.250
2020/01/31 01:05:45.9	99.250	0.310	-0.140	2.280
2020/01/31 01:05:46.0	99.240	0.300	-0.100	2.310
2020/01/31 01:05:46.1	99.230	0.300	-0.060	2.340
2020/01/31 01:05:46.2	99.220	0.290	-0.020	2.360
2020/01/31 01:05:46.3	99.210	0.280	0.020	2.380
2020/01/31 01:05:46.4	99.190	0.270	0.050	2.400
2020/01/31 01:05:46.5	99.180	0.260	0.080	2.410
2020/01/31 01:05:46.6	99.170	0.250	0.110	2.430
2020/01/31 01:05:46.7	99.160	0.250	0.140	2.430
2020/01/31 01:05:46.8	99.150	0.240	0.170	2.440
2020/01/31 01:05:46.9	99.140	0.230	0.190	2.440
2020/01/31 01:05:47.0	99.120	0.220	0.210	2.450
2020/01/31 01:05:47.1	99.110	0.210	0.220	2.440
2020/01/31 01:05:47.2	99.100	0.200	0.240	2.440
2020/01/31 01:05:47.3	99.090	0.180	0.250	2.430
2020/01/31 01:05:47.4	99.080	0.170	0.260	2.420
2020/01/31 01:05:47.5	99.070	0.160	0.270	2.410
2020/01/31 01:05:47.6	99.070	0.150	0.270	2.390
2020/01/31 01:05:47.7	99.060	0.140	0.270	2.380
2020/01/31 01:05:47.8	99.050	0.120	0.270	2.360
2020/01/31 01:05:47.9	99.040	0.110	0.270	2.340
2020/01/31 01:05:48.0	99.040	0.100	0.260	2.320
2020/01/31 01:05:48.1	99.030	0.090	0.250	2.290
2020/01/31 01:05:48.2	99.020	0.070	0.240	2.270
2020/01/31 01:05:48.3	99.020	0.060	0.230	2.250
2020/01/31 01:05:48.4	99.010	0.040	0.220	2.220
2020/01/31 01:05:48.5	99.000	0.030	0.200	2.190
2020/01/31 01:05:48.6	99.000	0.010	0.180	2.160
2020/01/31 01:05:48.7	98.990	-0.000	0.160	2.130
2020/01/31 01:05:48.8	98.980	-0.020	0.140	2.100
2020/01/31 01:05:48.9	98.980	-0.030	0.120	2.070
2020/01/31 01:05:49.0	98.970	-0.050	0.090	2.040
2020/01/31 01:05:49.1	98.970	-0.070	0.070	2.000
2020/01/31 01:05:49.2	98.960	-0.080	0.050	1.960
2020/01/31 01:05:49.3	98.960	-0.100	0.020	1.920
2020/01/31 01:05:49.4	98.950	-0.120	0.000	1.880
2020/01/31 01:05:49.5	98.950	-0.130	-0.020	1.830
2020/01/31 01:05:49.6	98.950	-0.150	-0.040	1.790
2020/01/31 01:05:49.7	98.940	-0.170	-0.060	1.740
2020/01/31 01:05:49.8	98.940	-0.180	-0.080	1.690
2020/01/31 01:05:49.9	98.940	-0.200	-0.100	1.640
2020/01/31 01:05:50.0	98.940	-0.210	-0.120	1.580
2020/01/31 01:05:50.1	98.940	-0.230	-0.130	1.530
2020/01/31 01:05:50.2	98.940	-0.240	-0.140	1.470
2020/01/31 01:05:50.3	98.950	-0.260	-0.160	1.410
2020/01/31 01:05:50.4	98.950	-0.270	-0.160	1.360
2020/01/31 01:05:50.5	98.960	-0.280	-0.170	1.300
2020/01/31 01:05:50.6	98.960	-0.290	-0.180	1.240
2020/01/31 01:05:50.7	98.970	-0.300	-0.180	1.180
2020/01/31 01:05:50.8	98.980	-0.310	-0.180	1.120
2020/01/31 01:05:50.9	98.980	-0.320	-0.180	1.060
2020/01/31 01:05:51.0	98.980	-0.320	-0.180	1.000
2020/01/31 01:05:51.1	98.990	-0.330	-0.180	0.940
2020/01/31 01:05:51.2	99.000	-0.330	-0.170	0.880
2020/01/31 01:05:51.3	99.010	-0.330	-0.170	0.820
2020/01/31 01:05:51.4	99.020	-0.330	-0.160	0.760
2020/01/31 01:05:51.5	99.030	-0.330	-0.160	0.700
2020/01/31 01:05:51.6	99.040	-0.330	-0.160	0.650
2020/01/31 01:05:51.7	99.040	-0.320	-0.150	0.590
2020/01/31 01:05:51.8	99.050	-0.310	-0.150	0.540
2020/01/31 01:05:51.9	99.060	-0.310	-0.150	0.490
2020/01/31 01:05:52.0	99.070	-0.300	-0.150	0.440
2020/01/31 01:05:52.1	99.080	-0.280	-0.150	0.400
2020/01/31 01:05:52.2	99.090	-0.270	-0.150	0.350
2020/01/31 01:05:52.3	99.090	-0.250	-0.150	0.310
2020/01/31 01:05:52.4	99.090	-0.240	-0.160	0.270
2020/01/31 01:05:52.5	99.100	-0.220	-0.170	0.240
2020/01/31 01:05:52.6	99.100	-0.200	-0.180	0.210
2020/01/31 01:05:52.7	99.100	-0.180	-0.190	0.180
2020/01/31 01:05:52.8	99.100	-0.160	-0.200	0.150
2020/01/31 01:05:52.9	99.100	-0.140	-0.220	0.130
2020/01/31 01:05:53.0	99.090	-0.120	-0.240	0.110
2020/01/31 01:05:53.1	99.090	-0.100	-0.250	0.090
2020/01/31 01:05:53.2	99.080	-0.080	-0.270	0.080
2020/01/31 01:05:53.3	99.080	-0.060	-0.290	0.070
2020/01/31 01:05:53.4	99.070	-0.030	-0.310	0.070
2020/01/31 01:05:53.5	99.070	-0.010	-0.330	0.070
2020/01/31 01:05:53.6	99.060	0.010	-0.350	0.070
2020/01/31 01:05:53.7	99.060	0.030	-0.370	0.070
2020/01/31 01:05:53.8	99.050	0.040	-0.390	0.080
2020/01/31 01:05:53.9	99.050	0.060	-0.410	0.080
2020/01/31 01:05:54.0	99.030	0.070	-0.430	0.090
2020/01/31 01:05:54.1	99.030	0.090	-0.440	0.110
2020/01/31 01:05:54.2	99.030	0.100	-0.460	0.120
2020/01/31 01:05:54.3	99.020	0.110	-0.470	0.140
2020/01/31 01:05:54.4	99.020	0.120	-0.480	0.160
2020/01/31 01:05:54.5	99.020	0.120	-0.480	0.180
2020/01/31 01:05:54.6	99.020	0.130	-0.490	0.210
2020/01/31 01:05:54.7	99.030	0.130	-0.490	0.230
2020/01/31 01:05:54.8	99.030	0.130	-0.490	0.260
2020/01/31 01:05:54.9	99.030	0.130	-0.480	0.290
2020/01/31 01:05:55.0	99.030	0.130	-0.470	0.320
2020/01/31 01:05:55.1	99.030	0.120	-0.460	0.350
2020/01/31 01:05:55.2	99.040	0.110	-0.440	0.380
2020/01/31 01:05:55.3	99.050	0.110	-0.420	0.420
2020/01/31 01:05:55.4	99.050	0.100	-0.400	0.450
2020/01/31 01:05:55.5	99.060	0.080	-0.370	0.490
2020/01/31 01:05:55.6	99.070	0.070	-0.340	0.530
2020/01/31 01:05:55.7	99.080	0.060	-0.310	0.570
2020/01/31 01:05:55.8	99.090	0.040	-0.270	0.610
2020/01/31 01:05:55.9	99.100	0.030	-0.240	0.650
2020/01/31 01:05:56.0	99.110	0.020	-0.200	0.690
2020/01/31 01:05:56.1	99.120	0.000	-0.160	0.740
2020/01/31 01:05:56.2	99.130	-0.010	-0.120	0.780
2020/01/31 01:05:56.3	99.140	-0.030	-0.080	0.830
2020/01/31 01:05:56.4	99.140	-0.040	-0.040	0.880
2020/01/31 01:05:56.5	99.150	-0.060	-0.000	0.930
2020/01/31 01:05:56.6	99.150	-0.070	0.040	0.980
2020/01/31 01:05:56.7	99.150	-0.080	0.070	1.040
2020/01/31 01:05:56.8	99.150	-0.090	0.110	1.090
2020/01/31 01:05:56.9	99.150	-0.100	0.140	1.140
2020/01/31 01:05:57.0	99.150	-0.100	0.170	1.200
2020/01/31 01:05:57.1	99.150	-0.110	0.190	1.250
2020/01/31 01:05:57.2	99.150	-0.110	0.220	1.310
2020/01/31 01:05:57.3	99.140	-0.120	0.240	1.360
2020/01/31 01:05:57.4	99.130	-0.120	0.250	1.420
2020/01/31 01:05:57.5	99.130	-0.120	0.260	1.470
2020/01/31 01:05:57.6	99.120	-0.120	0.270	1.520
2020/01/31 01:05:57.7	99.110	-0.110	0.270	1.570
2020/01/31 01:05:57.8	99.100	-0.110	0.270	1.620
2020/01/31 01:05:57.9	99.090	-0.100	0.270	1.670
2020/01/31 01:05:58.0	99.080	-0.090	0.260	1.730
2020/01/31 01:05:58.1	99.070	-0.090	0.250	1.770
2020/01/31 01:05:58.2	99.060	-0.080	0.240	1.820
2020/01/31 01:05:58.3	99.050	-0.070	0.220	1.860
2020/01/31 01:05:58.4	99.040	-0.050	0.200	1.900
2020/01/31 01:05:58.5	99.030	-0.040	0.170	1.940
2020/01/31 01:05:58.6	99.020	-0.030	0.140	1.980
2020/01/31 01:05:58.7	99.010	-0.010	0.110	2.020
2020/01/31 01:05:58.8	99.000	-0.000	0.080	2.050
2020/01/31 01:05:58.9	98.990	0.010	0.050	2.080
2020/01/31 01:05:59.0	98.980	0.030	0.010	2.100
2020/01/31 01:05:59.1	98.970	0.050	-0.030	2.130
2020/01/31 01:05:59.2	98.960	0.060	-0.070	2.160
2020/01/31 01:05:59.3	98.950	0.080	-0.110	2.180
2020/01/31 01:05:59.4	98.940	0.090	-0.150	2.200
2020/01/31 01:05:59.5	98.930	0.110	-0.190	2.220
2020/01/31 01:05:59.6	98.920	0.120	-0.230	2.240
2020/01/31 01:05:59.7	98.910	0.140	-0.270	2.260
2020/01/31 01:05:59.8	98.900	0.150	-0.320	2.270
2020/01/31 01:05:59.9	98.890	0.170	-0.360	2.280
2020/01/31 01:06:00.0	98.890	0.180	-0.390	2.290
2020/01/31 01:06:00.1	98.880	0.200	-0.430	2.290
2020/01/31 01:06:00.2	98.870	0.210	-0.470	2.290
2020/01/31 01:06:00.3	98.860	0.220	-0.500	2.290
2020/01/31 01:06:00.4	98.850	0.230	-0.530	2.290
2020/01/31 01:06:00.5	98.850	0.240	-0.560	2.280
2020/01/31 01:06:00.6	98.840	0.250	-0.580	2.270
2020/01/31 01:06:00.7	98.830	0.260	-0.600	2.260
2020/01/31 01:06:00.8	98.830	0.260	-0.620	2.250
2020/01/31 01:06:00.9	98.830	0.270	-0.630	2.230
2020/01/31 01:06:01.0	98.820	0.270	-0.640	2.200
2020/01/31 01:06:01.1	98.820	0.270	-0.650	2.180
2020/01/31 01:06:01.2	98.810	0.280	-0.650	2.160
2020/01/31 01:06:01.3	98.810	0.280	-0.640	2.130
2020/01/31 01:06:01.4	98.810	0.270	-0.630	2.100
2020/01/31 01:06:01.5	98.810	0.270	-0.620	2.070
2020/01/31 01:06:01.6	98.810	0.270	-0.600	2.040
2020/01/31 01:06:01.7	98.810	0.260	-0.580	2.000
2020/01/31 01:06:01.8	98.810	0.260	-0.550	1.970
2020/01/31 01:06:01.9	98.810	0.250	-0.520	1.930
2020/01/31 01:06:02.0	98.800	0.240	-0.490	1.890
2020/01/31 01:06:02.1	98.800	0.230	-0.450	1.850
2020/01/31 01:06:02.2	98.810	0.220	-0.410	1.810
2020/01/31 01:06:02.3	98.810	0.210	-0.370	1.770
2020/01/31 01:06:02.4	98.810	0.200	-0.330	1.720
2020/01/31 01:06:02.5	98.820	0.190	-0.290	1.680
2020/01/31 01:06:02.6	98.820	0.170	-0.240	1.640
2020/01/31 01:06:02.7	98.830	0.160	-0.200	1.590
2020/01/31 01:06:02.8	98.830	0.150	-0.150	1.540
2020/01/31 01:06:02.9	98.840	0.130	-0.110	1.500
2020/01/31 01:06:03.0	98.830	0.120	-0.060	1.440
2020/01/31 01:06:03.1	98.840	0.100	-0.020	1.400
2020/01/31 01:06:03.2	98.850	0.090	0.030	1.340
2020/01/31 01:06:03.3	98.860	0.070	0.070	1.290
2020/01/31 01:06:03.4	98.880	0.060	0.110	1.240
2020/01/31 01:06:03.5	98.890	0.040	0.150	1.190
2020/01/31 01:06:03.6	98.910	0.030	0.180	1.130
2020/01/31 01:06:03.7	98.920	0.010	0.210	1.080
2020/01/31 01:06:03.8	98.940	-0.000	0.240	1.020
2020/01/31 01:06:03.9	98.960	-0.020	0.270	0.960
2020/01/31 01:06:04.0	98.980	-0.030	0.300	0.900
2020/01/31 01:06:04.1	98.990	-0.050	0.320	0.840
2020/01/31 01:06:04.2	99.010	-0.060	0.340	0.790
2020/01/31 01:06:04.3	99.030	-0.070	0.350	0.730
2020/01/31 01:06:04.4	99.050	-0.090	0.360	0.680
2020/01/31 01:06:04.5	99.070	-0.100	0.370	0.620
2020/01/31 01:06:04.6	99.090	-0.110	0.370	0.570
2020/01/31 01:06:04.7	99.110	-0.120	0.370	0.510
2020/01/31 01:06:04.8	99.120	-0.130	0.370	0.460
2020/01/31 01:06:04.9	99.140	-0.140	0.360	0.410
2020/01/31 01:06:05.0	99.160	-0.150	0.350	0.370
2020/01/31 01:06:05.1	99.180	-0.150	0.340	0.320
2020/01/31 01:06:05.2	99.190	-0.160	0.320	0.280
2020/01/31 01:06:05.3	99.200	-0.170	0.300	0.240
2020/01/31 01:06:05.4	99.210	-0.170	0.280	0.210
2020/01/31 01:06:05.5	99.220	-0.180	0.250	0.170
2020/01/31 01:06:05.6	99.230	-0.180	0.220	0.150
2020/01/31 01:06:05.7	99.240	-0.190	0.180	0.120
2020/01/31 01:06:05.8	99.240	-0.190	0.150	0.100
2020/01/31 01:06:05.9	99.240	-0.190	0.110	0.080
2020/01/31 01:06:06.0	99.250	-0.200	0.070	0.070
2020/01/31 01:06:06.1	99.250	-0.200	0.030	0.060
2020/01/31 01:06:06.2	99.240	-0.200	-0.020	0.050
2020/01/31 01:06:06.3	99.240	-0.200	-0.060	0.050
2020/01/31 01:06:06.4	99.230	-0.200	-0.110	0.060
2020/01/31 01:06:06.5	99.220	-0.190	-0.160	0.060
2020/01/31 01:06:06.6	99.220	-0.190	-0.200	0.080
2020/01/31 01:06:06.7	99.200	-0.190	-0.250	0.090
2020/01/31 01:06:06.8	99.190	-0.190	-0.300	0.110
2020/01/31 01:06:06.9	99.180	-0.180	-0.340	0.130
2020/01/31 01:06:07.0	99.150	-0.180	-0.390	0.160
2020/01/31 01:06:07.1	99.140	-0.170	-0.430	0.190
2020/01/31 01:06:07.2	99.120	-0.170	-0.470	0.230
2020/01/31 01:06:07.3	99.110	-0.160	-0.510	0.260
2020/01/31 01:06:07.4	99.090	-0.160	-0.540	0.300
2020/01/31 01:06:07.5	99.080	-0.150	-0.570	0.340
2020/01/31 01:06:07.6	99.060	-0.150	-0.600	0.380
2020/01/31 01:06:07.7	99.040	-0.140	-0.620	0.430
2020/01/31 01:06:07.8	99.030	-0.140	-0.630	0.470
2020/01/31 01:06:07.9	99.010	-0.130	-0.640	0.520
2020/01/31 01:06:08.0	99.010	-0.130	-0.650	0.560
2020/01/31 01:06:08.1	99.000	-0.120	-0.650	0.610
2020/01/31 01:06:08.2	98.990	-0.120	-0.640	0.660
2020/01/31 01:06:08.3	98.980	-0.110	-0.630	0.710
2020/01/31 01:06:08.4	98.960	-0.110	-0.620	0.760
2020/01/31 01:06:08.5	98.950	-0.110	-0.600	0.810
2020/01/31 01:06:08.6	98.950	-0.110	-0.570	0.860
2020/01/31 01:06:08.7	98.940	-0.110	-0.540	0.910
2020/01/31 01:06:08.8	98.930	-0.110	-0.510	0.960
2020/01/31 01:06:08.9	98.920	-0.110	-0.470	1.010
2020/01/31 01:06:09.0	98.920	-0.110	-0.430	1.060
2020/01/31 01:06:09.1	98.920	-0.110	-0.390	1.100
2020/01/31 01:06:09.2	98.910	-0.110	-0.340	1.140
2020/01/31 01:06:09.3	98.910	-0.110	-0.300	1.180
2020/01/31 01:06:09.4	98.900	-0.110	-0.250	1.220
2020/01/31 01:06:09.5	98.890	-0.120	-0.200	1.260
2020/01/31 01:06:09.6	98.890	-0.120	-0.150	1.290
2020/01/31 01:06:09.7	98.880	-0.120	-0.110	1.320
2020/01/31 01:06:09.8	98.880	-0.120	-0.060	1.350
2020/01/31 01:06:09.9	98.870	-0.120	-0.020	1.380
2020/01/31 01:06:10.0	98.860	-0.120	0.020	1.400
2020/01/31 01:06:10.1	98.850	-0.120	0.060	1.430
2020/01/31 01:06:10.2	98.840	-0.120	0.100	1.450
2020/01/31 01:06:10.3	98.830	-0.110	0.130	1.460
2020/01/31 01:06:10.4	98.830	-0.110	0.160	1.480
2020/01/31 01:06:10.5	98.820	-0.110	0.180	1.500
2020/01/31 01:06:10.6	98.810	-0.100	0.200	1.510
2020/01/31 01:06:10.7	98.800	-0.090	0.210	1.520
2020/01/31 01:06:10.8	98.790	-0.090	0.220	1.530
2020/01/31 01:06:10.9	98.780	-0.080	0.230	1.540
2020/01/31 01:06:11.0	98.770	-0.070	0.230	1.550
2020/01/31 01:06:11.1	98.760	-0.050	0.220	1.560
2020/01/31 01:06:11.2	98.760	-0.040	0.220	1.560
2020/01/31 01:06:11.3	98.750	-0.030	0.200	1.560
2020/01/31 01:06:11.4	98.750	-0.010	0.190	1.570
2020/01/31 01:06:11.5	98.750	0.000	0.160	1.570
2020/01/31 01:06:11.6	98.750	0.020	0.140	1.560
2020/01/31 01:06:11.7	98.750	0.040	0.110	1.560
2020/01/31 01:06:11.8	98.750	0.060	0.080	1.550
2020/01/31 01:06:11.9	98.750	0.080	0.050	1.550
2020/01/31 01:06:12.0	98.770	0.090	0.010	1.530
2020/01/31 01:06:12.1	98.780	0.110	-0.030	1.520
2020/01/31 01:06:12.2	98.790	0.130	-0.070	1.510
2020/01/31 01:06:12.3	98.800	0.150	-0.110	1.500
2020/01/31 01:06:12.4	98.810	0.170	-0.150	1.480
2020/01/31 01:06:12.5	98.830	0.190	-0.190	1.470
2020/01/31 01:06:12.6	98.840	0.200	-0.230	1.450
2020/01/31 01:06:12.7	98.860	0.220	-0.270	1.430
2020/01/31 01:06:12.8	98.870	0.230	-0.300	1.410
2020/01/31 01:06:12.9	98.890	0.240	-0.340	1.390
2020/01/31 01:06:13.0	98.910	0.260	-0.380	1.380
2020/01/31 01:06:13.1	98.930	0.270	-0.410	1.360
2020/01/31 01:06:13.2	98.950	0.270	-0.440	1.340
2020/01/31 01:06:13.3	98.970	0.280	-0.460	1.320
2020/01/31 01:06:13.4	99.000	0.280	-0.490	1.310
2020/01/31 01:06:13.5	99.020	0.290	-0.500	1.290
2020/01/31 01:06:13.6	99.040	0.290	-0.520	1.280
2020/01/31 01:06:13.7	99.060	0.290	-0.530	1.260
2020/01/31 01:06:13.8	99.080	0.280	-0.540	1.250
2020/01/31 01:06:13.9	99.100	0.280	-0.540	1.240
2020/01/31 01:06:14.0	99.120	0.270	-0.540	1.240
2020/01/31 01:06:14.1	99.130	0.260	-0.540	1.230
2020/01/31 01:06:14.2	99.140	0.250	-0.530	1.230
2020/01/31 01:06:14.3	99.150	0.230	-0.520	1.230
2020/01/31 01:06:14.4	99.160	0.220	-0.510	1.230
2020/01/31 01:06:14.5	99.170	0.200	-0.490	1.230
2020/01/31 01:06:14.6	99.170	0.190	-0.470	1.240
2020/01/31 01:06:14.7	99.170	0.170	-0.440	1.240
2020/01/31 01:06:14.8	99.170	0.140	-0.410	1.250
2020/01/31 01:06:14.9	99.170	0.120	-0.380	1.260
2020/01/31 01:06:15.0	99.150	0.100	-0.350	1.260
2020/01/31 01:06:15.1	99.150	0.080	-0.320	1.270
2020/01/31 01:06:15.2	99.130	0.050	-0.280	1.280
2020/01/31 01:06:15.3	99.120	0.030	-0.240	1.290
2020/01/31 01:06:15.4	99.110	0.000	-0.210	1.300
2020/01/31 01:06:15.5	99.090	-0.030	-0.170	1.310
2020/01/31 01:06:15.6	99.070	-0.050	-0.130	1.320
2020/01/31 01:06:15.7	99.050	-0.080	-0.090	1.330
2020/01/31 01:06:15.8	99.030	-0.110	-0.050	1.340
2020/01/31 01:06:15.9	99.010	-0.130	-0.010	1.340
2020/01/31 01:06:16.0	98.990	-0.160	0.030	1.350
2020/01/31 01:06:16.1	98.970	-0.180	0.060	1.350
2020/01/31 01:06:16.2	98.940	-0.210	0.100	1.350
2020/01/31 01:06:16.3	98.920	-0.230	0.130	1.360
2020/01/31 01:06:16.4	98.890	-0.260	0.160	1.360
2020/01/31 01:06:16.5	98.860	-0.280	0.190	1.360
2020/01/31 01:06:16.6	98.840	-0.300	0.210	1.350
2020/01/31 01:06:16.7	98.820	-0.320	0.240	1.350
2020/01/31 01:06:16.8	98.790	-0.340	0.260	1.350
2020/01/31 01:06:16.9	98.770	-0.350	0.270	1.340
2020/01/31 01:06:17.0	98.740	-0.370	0.280	1.330
2020/01/31 01:06:17.1	98.720	-0.380	0.290	1.330
2020/01/31 01:06:17.2	98.690	-0.390	0.300	1.320
2020/01/31 01:06:17.3	98.670	-0.400	0.300	1.310
2020/01/31 01:06:17.4	98.650	-0.410	0.300	1.300
2020/01/31 01:06:17.5	98.640	-0.410	0.300	1.290
2020/01/31 01:06:17.6	98.620	-0.420	0.290	1.280
2020/01/31 01:06:17.7	98.600	-0.420	0.280	1.270
2020/01/31 01:06:17.8	98.590	-0.420	0.270	1.260
2020/01/31 01:06:17.9	98.580	-0.410	0.250	1.250
2020/01/31 01:06:18.0	98.570	-0.410	0.230	1.230
2020/01/31 01:06:18.1	98.560	-0.400	0.210	1.220
2020/01/31 01:06:18.2	98.550	-0.390	0.180	1.200
2020/01/31 01:06:18.3	98.540	-0.380	0.160	1.190
2020/01/31 01:06:18.4	98.540	-0.360	0.130	1.180
2020/01/31 01:06:18.5	98.540	-0.350	0.090	1.160
2020/01/31 01:06:18.6	98.530	-0.330	0.060	1.150
2020/01/31 01:06:18.7	98.530	-0.310	0.030	1.140
2020/01/31 01:06:18.8	98.540	-0.290	-0.010	1.120
2020/01/31 01:06:18.9	98.540	-0.270	-0.050	1.110
2020/01/31 01:06:19.0	98.540	-0.240	-0.090	1.090
2020/01/31 01:06:19.1	98.550	-0.220	-0.120	1.070
2020/01/31 01:06:19.2	98.560	-0.190	-0.160	1.050
2020/01/31 01:06:19.3	98.570	-0.160	-0.200	1.030
2020/01/31 01:06:19.4	98.580	-0.130	-0.230	1.010
2020/01/31 01:06:19.5	98.600	-0.100	-0.270	0.980
2020/01/31 01:06:19.6	98.620	-0.070	-0.310	0.960
2020/01/31 01:06:19.7	98.630	-0.040	-0.340	0.930
2020/01/31 01:06:19.8	98.660	-0.010	-0.380	0.900
2020/01/31 01:06:19.9	98.680	0.020	-0.410	0.870
2020/01/31 01:06:20.0	98.700	0.050	-0.440	0.830
2020/01/31 01:06:20.1	98.730	0.080	-0.470	0.800
2020/01/31 01:06:20.2	98.750	0.110	-0.490	0.760
2020/01/31 01:06:20.3	98.780	0.150	-0.520	0.720
2020/01/31 01:06:20.4	98.810	0.180	-0.540	0.690
2020/01/31 01:06:20.5	98.840	0.210	-0.570	0.650
2020/01/31 01:06:20.6	98.870	0.240	-0.590	0.610
2020/01/31 01:06:20.7	98.890	0.270	-0.600	0.570
2020/01/31 01:06:20.8	98.920	0.300	-0.620	0.530
2020/01/31 01:06:20.9	98.950	0.330	-0.630	0.500
2020/01/31 01:06:21.0	98.960	0.360	-0.640	0.460
2020/01/31 01:06:21.1	98.990	0.380	-0.650	0.430
2020/01/31 01:06:21.2	99.010	0.410	-0.660	0.400
2020/01/31 01:06:21.3	99.030	0.430	-0.660	0.370
2020/01/31 01:06:21.4	99.050	0.460	-0.670	0.340
2020/01/31 01:06:21.5	99.070	0.480	-0.670	0.310
2020/01/31 01:06:21.6	99.090	0.500	-0.660	0.290
2020/01/31 01:06:21.7	99.100	0.520	-0.660	0.270
2020/01/31 01:06:21.8	99.120	0.530	-0.650	0.260
2020/01/31 01:06:21.9	99.130	0.550	-0.640	0.250
2020/01/31 01:06:22.0	99.120	0.560	-0.620	0.230
2020/01/31 01:06:22.1	99.120	0.570	-0.610	0.230
2020/01/31 01:06:22.2	99.130	0.580	-0.580	0.230
2020/01/31 01:06:22.3	99.130	0.580	-0.560	0.240
2020/01/31 01:06:22.4	99.130	0.580	-0.530	0.250
2020/01/31 01:06:22.5	99.130	0.580	-0.500	0.260
2020/01/31 01:06:22.6	99.120	0.570	-0.470	0.280
2020/01/31 01:06:22.7	99.110	0.570	-0.430	0.310
2020/01/31 01:06:22.8	99.100	0.560	-0.400	0.330
2020/01/31 01:06:22.9	99.090	0.540	-0.350	0.370
2020/01/31 01:06:23.0	99.050	0.520	-0.310	0.410
2020/01/31 01:06:23.1	99.040	0.500	-0.260	0.450
2020/01/31 01:06:23.2	99.020	0.480	-0.210	0.500
2020/01/31 01:06:23.3	99.000	0.450	-0.160	0.550
2020/01/31 01:06:23.4	98.970	0.420	-0.100	0.610
2020/01/31 01:06:23.5	98.950	0.390	-0.040	0.670
2020/01/31 01:06:23.6	98.930	0.350	0.010	0.730
2020/01/31 01:06:23.7	98.900	0.320	0.070	0.800
2020/01/31 01:06:23.8	98.870	0.280	0.130	0.860
2020/01/31 01:06:23.9	98.840	0.230	0.190	0.930
2020/01/31 01:06:24.0	98.830	0.190	0.260	1.000
2020/01/31 01:06:24.1	98.800	0.140	0.310	1.070
2020/01/31 01:06:24.2	98.770	0.100	0.370	1.150
2020/01/31 01:06:24.3	98.740	0.050	0.420	1.220
2020/01/31 01:06:24.4	98.710	0.000	0.480	1.290
2020/01/31 01:06:24.5	98.680	-0.050	0.520	1.360
2020/01/31 01:06:24.6	98.650	-0.100	0.570	1.430
2020/01/31 01:06:24.7	98.620	-0.140	0.610	1.490
2020/01/31 01:06:24.8	98.600	-0.190	0.650	1.560
2020/01/31 01:06:24.9	98.570	-0.240	0.680	1.620
2020/01/31 01:06:25.0	98.550	-0.280	0.700	1.670
2020/01/31 01:06:25.1	98.520	-0.320	0.720	1.730
2020/01/31 01:06:25.2	98.510	-0.360	0.730	1.780
2020/01/31 01:06:25.3	98.490	-0.400	0.740	1.820
2020/01/31 01:06:25.4	98.470	-0.430	0.730	1.870
2020/01/31 01:06:25.5	98.460	-0.470	0.730	1.900
2020/01/31 01:06:25.6	98.450	-0.500	0.710	1.940
2020/01/31 01:06:25.7	98.440	-0.520	0.690	1.970
2020/01/31 01:06:25.8	98.430	-0.540	0.650	1.990
2020/01/31 01:06:25.9	98.430	-0.560	0.620	2.010
2020/01/31 01:06:26.0	98.440	-0.580	0.570	2.030
2020/01/31 01:06:26.1	98.440	-0.590	0.520	2.040
2020/01/31 01:06:26.2	98.430	-0.590	0.460	2.060
2020/01/31 01:06:26.3	98.430	-0.600	0.400	2.060
2020/01/31 01:06:26.4	98.440	-0.590	0.330	2.070
2020/01/31 01:06:26.5	98.440	-0.590	0.250	2.070
2020/01/31 01:06:26.6	98.440	-0.580	0.180	2.080
2020/01/31 01:06:26.7	98.440	-0.570	0.100	2.080
2020/01/31 01:06:26.8	98.440	-0.550	0.010	2.070
2020/01/31 01:06:26.9	98.450	-0.540	-0.070	2.070
2020/01/31 01:06:27.0	98.460	-0.510	-0.160	2.070
2020/01/31 01:06:27.1	98.460	-0.490	-0.240	2.060
2020/01/31 01:06:27.2	98.470	-0.460	-0.330	2.060
2020/01/31 01:06:27.3	98.470	-0.440	-0.410	2.050
2020/01/31 01:06:27.4	98.470	-0.400	-0.490	2.040
2020/01/31 01:06:27.5	98.480	-0.370	-0.560	2.030
2020/01/31 01:06:27.6	98.480	-0.340	-0.630	2.020
2020/01/31 01:06:27.7	98.480	-0.300	-0.700	2.000
2020/01/31 01:06:27.8	98.490	-0.270	-0.760	1.990
2020/01/31 01:06:27.9	98.490	-0.230	-0.810	1.970
2020/01/31 01:06:28.0	98.490	-0.200	-0.870	1.950
2020/01/31 01:06:28.1	98.490	-0.160	-0.910	1.940
2020/01/31 01:06:28.2	98.490	-0.130	-0.940	1.920
2020/01/31 01:06:28.3	98.490	-0.090	-0.970	1.900
2020/01/31 01:06:28.4	98.500	-0.060	-0.990	1.880
2020/01/31 01:06:28.5	98.500	-0.030	-1.010	1.860
2020/01/31 01:06:28.6	98.500	0.000	-1.010	1.840
2020/01/31 01:06:28.7	98.510	0.030	-1.020	1.810
2020/01/31 01:06:28.8	98.510	0.050	-1.010	1.790
2020/01/31 01:06:28.9	98.510	0.080	-1.000	1.760
2020/01/31 01:06:29.0	98.520	0.100	-0.980	1.740
2020/01/31 01:06:29.1	98.530	0.120	-0.950	1.710
2020/01/31 01:06:29.2	98.530	0.140	-0.920	1.680
2020/01/31 01:06:29.3	98.530	0.150	-0.890	1.660
2020/01/31 01:06:29.4	98.530	0.170	-0.850	1.630
2020/01/31 01:06:29.5	98.540	0.170	-0.800	1.600
2020/01/31 01:06:29.6	98.540	0.180	-0.760	1.570
2020/01/31 01:06:29.7	98.540	0.190	-0.710	1.540
2020/01/31 01:06:29.8	98.550	0.190	-0.660	1.500
2020/01/31 01:06:29.9	98.550	0.190	-0.600	1.470
2020/01/31 01:06:30.0	98.560	0.190	-0.550	1.440
2020/01/31 01:06:30.1	98.560	0.180	-0.490	1.410
2020/01/31 01:06:30.2	98.570	0.180	-0.440	1.370
2020/01/31 01:06:30.3	98.580	0.170	-0.380	1.340
2020/01/31 01:06:30.4	98.580	0.160	-0.330	1.310
2020/01/31 01:06:30.5	98.590	0.150	-0.270	1.280
2020/01/31 01:06:30.6	98.600	0.140	-0.220	1.250
2020/01/31 01:06:30.7	98.610	0.120	-0.160	1.220
2020/01/31 01:06:30.8	98.610	0.110	-0.110	1.190
2020/01/31 01:06:30.9	98.620	0.090	-0.070	1.160
2020/01/31 01:06:31.0	98.640	0.080	-0.020	1.130
2020/01/31 01:06:31.1	98.650	0.060	0.030	1.110
2020/01/31 01:06:31.2	98.650	0.050	0.070	1.080
2020/01/31 01:06:31.3	98.660	0.030	0.100	1.060
2020/01/31 01:06:31.4	98.660	0.020	0.140	1.040
2020/01/31 01:06:31.5	98.660	0.000	0.170	1.020
2020/01/31 01:06:31.6	98.670	-0.010	0.200	1.000
2020/01/31 01:06:31.7	98.670	-0.030	0.220	0.980
2020/01/31 01:06:31.8	98.670	-0.040	0.240	0.960
2020/01/31 01:06:31.9	98.670	-0.050	0.260	0.940
2020/01/31 01:06:32.0	98.650	-0.060	0.280	0.920
2020/01/31 01:06:32.1	98.640	-0.070	0.290	0.910
2020/01/31 01:06:32.2	98.640	-0.080	0.300	0.890
2020/01/31 01:06:32.3	98.640	-0.090	0.300	0.880
2020/01/31 01:06:32.4	98.630	-0.090	0.300	0.870
2020/01/31 01:06:32.5	98.630	-0.090	0.300	0.860
2020/01/31 01:06:32.6	98.620	-0.090	0.290	0.850
2020/01/31 01:06:32.7	98.610	-0.090	0.280	0.840
2020/01/31 01:06:32.8	98.600	-0.090	0.270	0.830
2020/01/31 01:06:32.9	98.590	-0.090	0.260	0.820
2020/01/31 01:06:33.0	98.580	-0.080	0.240	0.810
2020/01/31 01:06:33.1	98.570	-0.080	0.220	0.810
2020/01/31 01:06:33.2	98.550	-0.070	0.200	0.800
2020/01/31 01:06:33.3	98.540	-0.060	0.180	0.800
2020/01/31 01:06:33.4	98.530	-0.050	0.150	0.790
2020/01/31 01:06:33.5	98.510	-0.040	0.130	0.790
2020/01/31 01:06:33.6	98.500	-0.030	0.100	0.780
2020/01/31 01:06:33.7	98.480	-0.020	0.070	0.780
2020/01/31 01:06:33.8	98.470	-0.010	0.040	0.780
2020/01/31 01:06:33.9	98.450	0.010	0.020	0.770
2020/01/31 01:06:34.0	98.430	0.020	-0.010	0.770
2020/01/31 01:06:34.1	98.420	0.030	-0.040	0.760
2020/01/31 01:06:34.2	98.400	0.040	-0.060	0.760
2020/01/31 01:06:34.3	98.380	0.050	-0.080	0.760
2020/01/31 01:06:34.4	98.360	0.070	-0.100	0.750
2020/01/31 01:06:34.5	98.340	0.080	-0.120	0.750
2020/01/31 01:06:34.6	98.330	0.090	-0.140	0.750
2020/01/31 01:06:34.7	98.310	0.090	-0.150	0.740
2020/01/31 01:06:34.8	98.290	0.100	-0.170	0.740
2020/01/31 01:06:34.9	98.270	0.110	-0.170	0.740
2020/01/31 01:06:35.0	98.270	0.110	-0.190	0.740
2020/01/31 01:06:35.1	98.250	0.120	-0.190	0.740
2020/01/31 01:06:35.2	98.230	0.120	-0.190	0.740
2020/01/31 01:06:35.3	98.210	0.120	-0.190	0.740
2020/01/31 01:06:35.4	98.200	0.120	-0.190	0.740
2020/01/31 01:06:35.5	98.180	0.120	-0.190	0.750
2020/01/31 01:06:35.6	98.160	0.120	-0.180	0.750
2020/01/31 01:06:35.7	98.150	0.120	-0.170	0.750
2020/01/31 01:06:35.8	98.130	0.110	-0.170	0.760
2020/01/31 01:06:35.9	98.120	0.110	-0.160	0.760
2020/01/31 01:06:36.0	98.100	0.110	-0.140	0.770
2020/01/31 01:06:36.1	98.080	0.100	-0.130	0.780
2020/01/31 01:06:36.2	98.070	0.090	-0.120	0.780
2020/01/31 01:06:36.3	98.060	0.090	-0.110	0.780
2020/01/31 01:06:36.4	98.060	0.080	-0.100	0.790
2020/01/31 01:06:36.5	98.050	0.070	-0.090	0.790
2020/01/31 01:06:36.6	98.050	0.070	-0.090	0.790
2020/01/31 01:06:36.7	98.040	0.060	-0.080	0.790
2020/01/31 01:06:36.8	98.040	0.050	-0.070	0.800
2020/01/31 01:06:36.9	98.040	0.050	-0.070	0.800
2020/01/31 01:06:37.0	98.050	0.040	-0.070	0.800
2020/01/31 01:06:37.1	98.050	0.040	-0.070	0.800
2020/01/31 01:06:37.2	98.060	0.030	-0.070	0.800
2020/01/31 01:06:37.3	98.070	0.030	-0.070	0.800
2020/01/31 01:06:37.4	98.070	0.030	-0.080	0.800
2020/01/31 01:06:37.5	98.080	0.030	-0.090	0.800
2020/01/31 01:06:37.6	98.100	0.030	-0.100	0.800
2020/01/31 01:06:37.7	98.110	0.020	-0.110	0.800
2020/01/31 01:06:37.8	98.120	0.020	-0.120	0.800
2020/01/31 01:06:37.9	98.140	0.030	-0.130	0.800
2020/01/31 01:06:38.0	98.160	0.030	-0.140	0.810
2020/01/31 01:06:38.1	98.170	0.030	-0.150	0.810
2020/01/31 01:06:38.2	98.190	0.030	-0.170	0.820
2020/01/31 01:06:38.3	98.200	0.040	-0.180	0.820
2020/01/31 01:06:38.4	98.220	0.040	-0.200	0.830
2020/01/31 01:06:38.5	98.230	0.050	-0.210	0.840
2020/01/31 01:06:38.6	98.250	0.060	-0.230	0.850
2020/01/31 01:06:38.7	98.260	0.060	-0.250	0.860
2020/01/31 01:06:38.8	98.270	0.070	-0.260	0.880
2020/01/31 01:06:38.9	98.280	0.080	-0.280	0.890
2020/01/31 01:06:39.0	98.290	0.080	-0.300	0.910
2020/01/31 01:06:39.1	98.300	0.090	-0.310	0.930
2020/01/31 01:06:39.2	98.300	0.100	-0.330	0.950
2020/01/31 01:06:39.3	98.300	0.110	-0.340	0.970
2020/01/31 01:06:39.4	98.300	0.120	-0.360	0.990
2020/01/31 01:06:39.5	98.300	0.130	-0.370	1.020
2020/01/31 01:06:39.6	98.300	0.130	-0.380	1.050
2020/01/31 01:06:39.7	98.290	0.140	-0.400	1.070
2020/01/31 01:06:39.8	98.290	0.150	-0.410	1.100
2020/01/31 01:06:39.9	98.280	0.150	-0.420	1.130
2020/01/31 01:06:40.0	98.260	0.160	-0.420	1.160
2020/01/31 01:06:40.1	98.250	0.160	-0.430	1.190
2020/01/31 01:06:40.2	98.230	0.170	-0.440	1.220
2020/01/31 01:06:40.3	98.220	0.170	-0.440	1.250
2020/01/31 01:06:40.4	98.200	0.170	-0.450	1.280
2020/01/31 01:06:40.5	98.190	0.170	-0.450	1.310
2020/01/31 01:06:40.6	98.170	0.170	-0.450	1.340
2020/01/31 01:06:40.7	98.160	0.170	-0.450	1.370
2020/01/31 01:06:40.8	98.140	0.170	-0.450	1.400
2020/01/31 01:06:40.9	98.120	0.170	-0.440	1.420
2020/01/31 01:06:41.0	98.090	0.160	-0.440	1.450
2020/01/31 01:06:41.1	98.080	0.160	-0.430	1.480
2020/01/31 01:06:41.2	98.060	0.150	-0.420	1.510
2020/01/31 01:06:41.3	98.050	0.140	-0.410	1.540
2020/01/31 01:06:41.4	98.040	0.130	-0.400	1.570
2020/01/31 01:06:41.5	98.030	0.120	-0.380	1.590
2020/01/31 01:06:41.6	98.020	0.110	-0.370	1.620
2020/01/31 01:06:41.7	98.010	0.100	-0.350	1.650
2020/01/31 01:06:41.8	98.010	0.090	-0.330	1.680
2020/01/31 01:06:41.9	98.000	0.070	-0.320	1.700
2020/01/31 01:06:42.0	98.000	0.060	-0.300	1.730
2020/01/31 01:06:42.1	98.000	0.040	-0.280	1.760
2020/01/31 01:06:42.2	98.000	0.030	-0.250	1.780
2020/01/31 01:06:42.3	98.000	0.010	-0.230	1.810
2020/01/31 01:06:42.4	98.010	-0.010	-0.200	1.830
2020/01/31 01:06:42.5	98.010	-0.020	-0.180	1.860
2020/01/31 01:06:42.6	98.020	-0.040	-0.150	1.880
2020/01/31 01:06:42.7	98.020	-0.060	-0.130	1.900
2020/01/31 01:06:42.8	98.030	-0.080	-0.100	1.930
2020/01/31 01:06:42.9	98.040	-0.100	-0.070	1.950
2020/01/31 01:06:43.0	98.040	-0.110	-0.040	1.970
2020/01/31 01:06:43.1	98.050	-0.130	-0.010	1.980
2020/01/31 01:06:43.2	98.060	-0.150	0.020	2.000
2020/01/31 01:06:43.3	98.080	-0.170	0.050	2.010
2020/01/31 01:06:43.4	98.090	-0.180	0.080	2.030
2020/01/31 01:06:43.5	98.100	-0.200	0.110	2.040
2020/01/31 01:06:43.6	98.110	-0.210	0.140	2.050
2020/01/31 01:06:43.7	98.120	-0.230	0.170	2.050
2020/01/31 01:06:43.8	98.120	-0.240	0.190	2.060
2020/01/31 01:06:43.9	98.130	-0.250	0.220	2.060
2020/01/31 01:06:44.0	98.150	-0.260	0.240	2.070
2020/01/31 01:06:44.1	98.160	-0.270	0.260	2.060
2020/01/31 01:06:44.2	98.160	-0.280	0.280	2.060
2020/01/31 01:06:44.3	98.160	-0.290	0.300	2.060
2020/01/31 01:06:44.4	98.170	-0.290	0.310	2.050
2020/01/31 01:06:44.5	98.170	-0.290	0.330	2.040
2020/01/31 01:06:44.6	98.170	-0.300	0.340	2.030
2020/01/31 01:06:44.7	98.170	-0.300	0.340	2.020
2020/01/31 01:06:44.8	98.160	-0.300	0.350	2.000
2020/01/31 01:06:44.9	98.150	-0.300	0.350	1.990
2020/01/31 01:06:45.0	98.150	-0.300	0.350	1.970
2020/01/31 01:06:45.1	98.140	-0.290	0.340	1.950
2020/01/31 01:06:45.2	98.130	-0.290	0.330	1.920
2020/01/31 01:06:45.3	98.120	-0.280	0.320	1.900
2020/01/31 01:06:45.4	98.100	-0.270	0.300	1.870
2020/01/31 01:06:45.5	98.080	-0.270	0.280	1.850
2020/01/31 01:06:45.6	98.070	-0.260	0.260	1.820
2020/01/31 01:06:45.7	98.050	-0.250	0.240	1.790
2020/01/31 01:06:45.8	98.020	-0.240	0.210	1.750
2020/01/31 01:06:45.9	98.000	-0.230	0.180	1.720
2020/01/31 01:06:46.0	97.970	-0.220	0.140	1.680
2020/01/31 01:06:46.1	97.950	-0.200	0.110	1.640
2020/01/31 01:06:46.2	97.920	-0.190	0.070	1.600
2020/01/31 01:06:46.3	97.900	-0.180	0.030	1.550
2020/01/31 01:06:46.4	97.880	-0.170	-0.010	1.510
2020/01/31 01:06:46.5	97.850	-0.150	-0.050	1.460
2020/01/31 01:06:46.6	97.830	-0.140	-0.090	1.410
2020/01/31 01:06:46.7	97.810	-0.130	-0.130	1.360
2020/01/31 01:06:46.8	97.790	-0.110	-0.180	1.300
2020/01/31 01:06:46.9	97.770	-0.100	-0.220	1.250
2020/01/31 01:06:47.0	97.760	-0.090	-0.260	1.190
2020/01/31 01:06:47.1	97.740	-0.070	-0.300	1.130
2020/01/31 01:06:47.2	97.730	-0.060	-0.340	1.070
2020/01/31 01:06:47.3	97.720	-0.050	-0.380	1.010
2020/01/31 01:06:47.4	97.710	-0.030	-0.420	0.950
2020/01/31 01:06:47.5	97.700	-0.020	-0.460	0.890
2020/01/31 01:06:47.6	97.690	-0.010	-0.490	0.830
2020/01/31 01:06:47.7	97.680	0.000	-0.520	0.770
2020/01/31 01:06:47.8	97.680	0.020	-0.550	0.720
2020/01/31 01:06:47.9	97.680	0.030	-0.580	0.660
2020/01/31 01:06:48.0	97.660	0.040	-0.600	0.600
2020/01/31 01:06:48.1	97.660	0.050	-0.630	0.540
2020/01/31 01:06:48.2	97.670	0.060	-0.650	0.490
2020/01/31 01:06:48.3	97.670	0.070	-0.660	0.440
2020/01/31 01:06:48.4	97.670	0.080	-0.670	0.390
2020/01/31 01:06:48.5	97.670	0.090	-0.680	0.340
2020/01/31 01:06:48.6	97.680	0.100	-0.690	0.300
2020/01/31 01:06:48.7	97.680	0.110	-0.690	0.260
2020/01/31 01:06:48.8	97.690	0.110	-0.690	0.210
2020/01/31 01:06:48.9	97.690	0.120	-0.690	0.180
2020/01/31 01:06:49.0	97.680	0.130	-0.680	0.140
2020/01/31 01:06:49.1	97.690	0.130	-0.670	0.110
2020/01/31 01:06:49.2	97.700	0.140	-0.660	0.080
2020/01/31 01:06:49.3	97.710	0.150	-0.640	0.050
2020/01/31 01:06:49.4	97.720	0.150	-0.620	0.020
2020/01/31 01:06:49.5	97.720	0.160	-0.600	-0.000
2020/01/31 01:06:49.6	97.730	0.160	-0.580	-0.020
2020/01/31 01:06:49.7	97.740	0.160	-0.550	-0.040
2020/01/31 01:06:49.8	97.750	0.170	-0.520	-0.060
2020/01/31 01:06:49.9	97.760	0.170	-0.490	-0.070
2020/01/31 01:06:50.0	97.770	0.170	-0.460	-0.090
2020/01/31 01:06:50.1	97.780	0.170	-0.430	-0.100
2020/01/31 01:06:50.2	97.800	0.170	-0.400	-0.110
2020/01/31 01:06:50.3	97.810	0.170	-0.360	-0.120
2020/01/31 01:06:50.4	97.820	0.170	-0.330	-0.120
2020/01/31 01:06:50.5	97.830	0.170	-0.290	-0.130
2020/01/31 01:06:50.6	97.840	0.170	-0.260	-0.130
2020/01/31 01:06:50.7	97.850	0.170	-0.220	-0.130
2020/01/31 01:06:50.8	97.860	0.160	-0.180	-0.120
2020/01/31 01:06:50.9	97.870	0.160	-0.150	-0.120
2020/01/31 01:06:51.0	97.900	0.150	-0.110	-0.110
2020/01/31 01:06:51.1	97.910	0.150	-0.070	-0.100
2020/01/31 01:06:51.2	97.920	0.140	-0.040	-0.090
2020/01/31 01:06:51.3	97.930	0.140	-0.000	-0.070
2020/01/31 01:06:51.4	97.940	0.130	0.030	-0.060
2020/01/31 01:06:51.5	97.950	0.120	0.070	-0.040
2020/01/31 01:06:51.6	97.960	0.110	0.100	-0.010
2020/01/31 01:06:51.7	97.970	0.100	0.130	0.010
2020/01/31 01:06:51.8	97.980	0.090	0.170	0.040
2020/01/31 01:06:51.9	97.990	0.080	0.200	0.070
2020/01/31 01:06:52.0	97.990	0.070	0.220	0.110
2020/01/31 01:06:52.1	98.000	0.060	0.250	0.150
2020/01/31 01:06:52.2	98.010	0.050	0.280	0.190
2020/01/31 01:06:52.3	98.010	0.040	0.300	0.230
2020/01/31 01:06:52.4	98.020	0.030	0.320	0.280
2020/01/31 01:06:52.5	98.020	0.020	0.340	0.330
2020/01/31 01:06:52.6	98.030	0.010	0.360	0.380
2020/01/31 01:06:52.7	98.030	-0.000	0.370	0.430
2020/01/31 01:06:52.8	98.030	-0.010	0.390	0.490
2020/01/31 01:06:52.9	98.030	-0.020	0.400	0.550
2020/01/31 01:06:53.0	98.030	-0.030	0.400	0.610
2020/01/31 01:06:53.1	98.030	-0.040	0.410	0.680
2020/01/31 01:06:53.2	98.030	-0.050	0.410	0.740
2020/01/31 01:06:53.3	98.020	-0.050	0.410	0.810
2020/01/31 01:06:53.4	98.020	-0.060	0.400	0.880
2020/01/31 01:06:53.5	98.010	-0.070	0.390	0.960
2020/01/31 01:06:53.6	98.000	-0.070	0.380	1.030
2020/01/31 01:06:53.7	97.990	-0.080	0.370	1.100
2020/01/31 01:06:53.8	97.980	-0.080	0.350	1.180
2020/01/31 01:06:53.9	97.970	-0.080	0.330	1.260
2020/01/31 01:06:54.0	97.960	-0.080	0.310	1.340
2020/01/31 01:06:54.1	97.940	-0.080	0.290	1.420
2020/01/31 01:06:54.2	97.930	-0.080	0.260	1.500
2020/01/31 01:06:54.3	97.910	-0.080	0.230	1.570
2020/01/31 01:06:54.4	97.900	-0.080	0.200	1.650
2020/01/31 01:06:54.5	97.880	-0.080	0.160	1.730
2020/01/31 01:06:54.6	97.860	-0.070	0.120	1.800
2020/01/31 01:06:54.7	97.840	-0.070	0.090	1.880
2020/01/31 01:06:54.8	97.820	-0.070	0.050	1.950
2020/01/31 01:06:54.9	97.810	-0.060	0.000	2.020
2020/01/31 01:06:55.0	97.790	-0.050	-0.040	2.080
2020/01/31 01:06:55.1	97.770	-0.050	-0.090	2.150
2020/01/31 01:06:55.2	97.750	-0.040	-0.130	2.210
2020/01/31 01:06:55.3	97.730	-0.040	-0.180	2.270
2020/01/31 01:06:55.4	97.710	-0.030	-0.220	2.320
2020/01/31 01:06:55.5	97.700	-0.020	-0.260	2.370
2020/01/31 01:06:55.6	97.680	-0.020	-0.310	2.420
2020/01/31 01:06:55.7	97.660	-0.010	-0.350	2.460
2020/01/31 01:06:55.8	97.650	-0.000	-0.390	2.500
2020/01/31 01:06:55.9	97.630	0.000	-0.430	2.530
2020/01/31 01:06:56.0	97.620	0.010	-0.470	2.560
2020/01/31 01:06:56.1	97.610	0.020	-0.510	2.580
2020/01/31 01:06:56.2	97.600	0.020	-0.540	2.600
2020/01/31 01:06:56.3	97.590	0.030	-0.570	2.610
2020/01/31 01:06:56.4	97.580	0.030	-0.600	2.620
2020/01/31 01:06:56.5	97.580	0.030	-0.620	2.620
2020/01/31 01:06:56.6	97.570	0.040	-0.640	2.620
2020/01/31 01:06:56.7	97.570	0.040	-0.660	2.610
2020/01/31 01:06:56.8	97.570	0.040	-0.670	2.590
2020/01/31 01:06:56.9	97.570	0.050	-0.670	2.580
2020/01/31 01:06:57.0	97.570	0.050	-0.680	2.560
2020/01/31 01:06:57.1	97.580	0.050	-0.680	2.530
2020/01/31 01:06:57.2	97.580	0.050	-0.670	2.500
2020/01/31 01:06:57.3	97.590	0.060	-0.660	2.470
2020/01/31 01:06:57.4	97.600	0.060	-0.650	2.430
2020/01/31 01:06:57.5	97.610	0.060	-0.640	2.390
2020/01/31 01:06:57.6	97.620	0.060	-0.620	2.350
2020/01/31 01:06:57.7	97.630	0.070	-0.600	2.310
2020/01/31 01:06:57.8	97.640	0.070	-0.570	2.270
2020/01/31 01:06:57.9	97.650	0.070	-0.550	2.220
2020/01/31 01:06:58.0	97.670	0.080	-0.520	2.170
2020/01/31 01:06:58.1	97.690	0.080	-0.490	2.120
2020/01/31 01:06:58.2	97.700	0.090	-0.470	2.080
2020/01/31 01:06:58.3	97.710	0.090	-0.440	2.030
2020/01/31 01:06:58.4	97.730	0.100	-0.410	1.980
2020/01/31 01:06:58.5	97.740	0.110	-0.390	1.930
2020/01/31 01:06:58.6	97.760	0.110	-0.360	1.890
2020/01/31 01:06:58.7	97.770	0.120	-0.340	1.840
2020/01/31 01:06:58.8	97.780	0.130	-0.310	1.790
2020/01/31 01:06:58.9	97.800	0.140	-0.290	1.750
2020/01/31 01:06:59.0	97.820	0.150	-0.270	1.700
2020/01/31 01:06:59.1	97.840	0.160	-0.260	1.650
2020/01/31 01:06:59.2	97.850	0.170	-0.240	1.610
2020/01/31 01:06:59.3	97.860	0.180	-0.230	1.560
2020/01/31 01:06:59.4	97.870	0.190	-0.220	1.510
2020/01/31 01:06:59.5	97.880	0.200	-0.210	1.470
2020/01/31 01:06:59.6	97.900	0.210	-0.210	1.420
2020/01/31 01:06:59.7	97.910	0.220	-0.200	1.380
2020/01/31 01:06:59.8	97.920	0.220	-0.200	1.330
2020/01/31 01:06:59.9	97.920	0.230	-0.200	1.280
2020/01/31 01:07:00.0	97.930	0.240	-0.200	1.240
2020/01/31 01:07:00.1	97.940	0.240	-0.200	1.200
2020/01/31 01:07:00.2	97.950	0.240	-0.200	1.150
2020/01/31 01:07:00.3	97.950	0.250	-0.200	1.100
2020/01/31 01:07:00.4	97.960	0.250	-0.210	1.060
2020/01/31 01:07:00.5	97.960	0.250	-0.210	1.010
2020/01/31 01:07:00.6	97.970	0.240	-0.210	0.970
2020/01/31 01:07:00.7	97.970	0.240	-0.210	0.920
2020/01/31 01:07:00.8	97.970	0.230	-0.210	0.880
2020/01/31 01:07:00.9	97.970	0.220	-0.210	0.840
2020/01/31 01:07:01.0	97.970	0.210	-0.210	0.790
2020/01/31 01:07:01.1	97.970	0.200	-0.210	0.750
2020/01/31 01:07:01.2	97.970	0.190	-0.210	0.710
2020/01/31 01:07:01.3	97.970	0.170	-0.200	0.670
2020/01/31 01:07:01.4	97.970	0.160	-0.200	0.630
2020/01/31 01:07:01.5	97.970	0.140	-0.190	0.590
2020/01/31 01:07:01.6	97.960	0.120	-0.180	0.560
2020/01/31 01:07:01.7	97.960	0.100	-0.170	0.530
2020/01/31 01:07:01.8	97.960	0.080	-0.160	0.500
2020/01/31 01:07:01.9	97.950	0.060	-0.150	0.470
2020/01/31 01:07:02.0	97.940	0.030	-0.140	0.440
2020/01/31 01:07:02.1	97.930	0.010	-0.120	0.420
2020/01/31 01:07:02.2	97.920	-0.010	-0.110	0.400
2020/01/31 01:07:02.3	97.910	-0.040	-0.090	0.380
2020/01/31 01:07:02.4	97.900	-0.060	-0.070	0.360
2020/01/31 01:07:02.5	97.890	-0.080	-0.050	0.350
2020/01/31 01:07:02.6	97.880	-0.110	-0.030	0.340
2020/01/31 01:07:02.7	97.870	-0.130	-0.010	0.330
2020/01/31 01:07:02.8	97.860	-0.160	0.010	0.330
2020/01/31 01:07:02.9	97.850	-0.180	0.030	0.320
2020/01/31 01:07:03.0	97.840	-0.200	0.060	0.320
2020/01/31 01:07:03.1	97.830	-0.220	0.080	0.320
2020/01/31 01:07:03.2	97.820	-0.240	0.110	0.330
2020/01/31 01:07:03.3	97.820	-0.260	0.130	0.340
2020/01/31 01:07:03.4	97.810	-0.280	0.160	0.340
2020/01/31 01:07:03.5	97.800	-0.300	0.180	0.350
2020/01/31 01:07:03.6	97.790	-0.320	0.210	0.370
2020/01/31 01:07:03.7	97.790	-0.330	0.230	0.380
2020/01/31 01:07:03.8	97.780	-0.350	0.250	0.400
2020/01/31 01:07:03.9	97.780	-0.360	0.280	0.410
2020/01/31 01:07:04.0	97.780	-0.380	0.300	0.430
2020/01/31 01:07:04.1	97.780	-0.390	0.320	0.450
2020/01/31 01:07:04.2	97.780	-0.400	0.340	0.470
2020/01/31 01:07:04.3	97.780	-0.410	0.350	0.480
2020/01/31 01:07:04.4	97.790	-0.420	0.370	0.500
2020/01/31 01:07:04.5	97.790	-0.430	0.390	0.520
2020/01/31 01:07:04.6	97.800	-0.430	0.400	0.540
2020/01/31 01:07:04.7	97.810	-0.440	0.410	0.560
2020/01/31 01:07:04.8	97.820	-0.440	0.420	0.580
2020/01/31 01:07:04.9	97.830	-0.450	0.420	0.600
2020/01/31 01:07:05.0	97.820	-0.450	0.430	0.610
2020/01/31 01:07:05.1	97.840	-0.450	0.430	0.630
2020/01/31 01:07:05.2	97.860	-0.450	0.430	0.650
2020/01/31 01:07:05.3	97.870	-0.450	0.430	0.660
2020/01/31 01:07:05.4	97.890	-0.450	0.420	0.670
2020/01/31 01:07:05.5	97.910	-0.450	0.410	0.690
2020/01/31 01:07:05.6	97.930	-0.450	0.400	0.700
2020/01/31 01:07:05.7	97.950	-0.440	0.380	0.710
2020/01/31 01:07:05.8	97.970	-0.440	0.370	0.730
2020/01/31 01:07:05.9	97.990	-0.430	0.340	0.740
2020/01/31 01:07:06.0	98.000	-0.430	0.320	0.750
2020/01/31 01:07:06.1	98.020	-0.420	0.290	0.760
2020/01/31 01:07:06.2	98.040	-0.410	0.260	0.770
2020/01/31 01:07:06.3	98.060	-0.400	0.230	0.790
2020/01/31 01:07:06.4	98.070	-0.390	0.190	0.800
2020/01/31 01:07:06.5	98.090	-0.380	0.160	0.820
2020/01/31 01:07:06.6	98.100	-0.360	0.110	0.840
2020/01/31 01:07:06.7	98.110	-0.350	0.070	0.860
2020/01/31 01:07:06.8	98.120	-0.330	0.030	0.880
2020/01/31 01:07:06.9	98.130	-0.320	-0.020	0.910
2020/01/31 01:07:07.0	98.130	-0.300	-0.080	0.940
2020/01/31 01:07:07.1	98.130	-0.280	-0.130	0.960
2020/01/31 01:07:07.2	98.130	-0.260	-0.180	1.000
2020/01/31 01:07:07.3	98.130	-0.240	-0.230	1.030
2020/01/31 01:07:07.4	98.130	-0.220	-0.290	1.060
2020/01/31 01:07:07.5	98.120	-0.200	-0.350	1.100
2020/01/31 01:07:07.6	98.120	-0.170	-0.400	1.130
2020/01/31 01:07:07.7	98.110	-0.150	-0.450	1.170
2020/01/31 01:07:07.8	98.110	-0.120	-0.510	1.210
2020/01/31 01:07:07.9	98.100	-0.090	-0.560	1.250
2020/01/31 01:07:08.0	98.080	-0.060	-0.610	1.290
2020/01/31 01:07:08.1	98.060	-0.040	-0.660	1.330
2020/01/31 01:07:08.2	98.050	-0.010	-0.700	1.370
2020/01/31 01:07:08.3	98.040	0.020	-0.740	1.410
2020/01/31 01:07:08.4	98.030	0.050	-0.780	1.440
2020/01/31 01:07:08.5	98.020	0.080	-0.810	1.480
2020/01/31 01:07:08.6	98.010	0.120	-0.840	1.510
2020/01/31 01:07:08.7	98.000	0.150	-0.870	1.540
2020/01/31 01:07:08.8	97.980	0.180	-0.890	1.570
2020/01/31 01:07:08.9	97.970	0.210	-0.910	1.600
2020/01/31 01:07:09.0	97.960	0.240	-0.920	1.620
2020/01/31 01:07:09.1	97.950	0.270	-0.920	1.640
2020/01/31 01:07:09.2	97.940	0.300	-0.930	1.660
2020/01/31 01:07:09.3	97.930	0.330	-0.920	1.680
2020/01/31 01:07:09.4	97.920	0.360	-0.910	1.700
2020/01/31 01:07:09.5	97.910	0.380	-0.900	1.710
2020/01/31 01:07:09.6	97.900	0.410	-0.880	1.720
2020/01/31 01:07:09.7	97.890	0.430	-0.860	1.730
2020/01/31 01:07:09.8	97.880	0.460	-0.830	1.740
2020/01/31 01:07:09.9	97.870	0.480	-0.800	1.750
2020/01/31 01:07:10.0	97.870	0.500	-0.770	1.760
2020/01/31 01:07:10.1	97.860	0.520	-0.730	1.760
2020/01/31 01:07:10.2	97.850	0.540	-0.690	1.760
2020/01/31 01:07:10.3	97.840	0.560	-0.650	1.760
2020/01/31 01:07:10.4	97.840	0.570	-0.600	1.760
2020/01/31 01:07:10.5	97.830	0.580	-0.560	1.760
2020/01/31 01:07:10.6	97.820	0.600	-0.510	1.760
2020/01/31 01:07:10.7	97.820	0.600	-0.460	1.760
2020/01/31 01:07:10.8	97.810	0.610	-0.410	1.750
2020/01/31 01:07:10.9	97.810	0.620	-0.360	1.750
2020/01/31 01:07:11.0	97.810	0.620	-0.310	1.740
2020/01/31 01:07:11.1	97.810	0.620	-0.260	1.730
2020/01/31 01:07:11.2	97.810	0.620	-0.220	1.720
2020/01/31 01:07:11.3	97.810	0.620	-0.180	1.710
2020/01/31 01:07:11.4	97.810	0.610	-0.130	1.700
2020/01/31 01:07:11.5	97.810	0.610	-0.090	1.690
2020/01/31 01:07:11.6	97.810	0.600	-0.060	1.670
2020/01/31 01:07:11.7	97.820	0.590	-0.020	1.660
2020/01/31 01:07:11.8	97.820	0.580	0.010	1.650
2020/01/31 01:07:11.9	97.830	0.560	0.040	1.630
2020/01/31 01:07:12.0	97.830	0.550	0.060	1.610
2020/01/31 01:07:12.1	97.840	0.530	0.080	1.600
2020/01/31 01:07:12.2	97.850	0.510	0.100	1.580
2020/01/31 01:07:12.3	97.860	0.490	0.110	1.560
2020/01/31 01:07:12.4	97.870	0.470	0.130	1.550
2020/01/31 01:07:12.5	97.880	0.450	0.140	1.530
2020/01/31 01:07:12.6	97.890	0.420	0.140	1.510
2020/01/31 01:07:12.7	97.910	0.400	0.150	1.490
2020/01/31 01:07:12.8	97.920	0.370	0.150	1.470
2020/01/31 01:07:12.9	97.930	0.350	0.140	1.450
2020/01/31 01:07:13.0	97.980	0.320	0.140	1.430
2020/01/31 01:07:13.1	97.990	0.300	0.130	1.410
2020/01/31 01:07:13.2	98.010	0.270	0.120	1.390
2020/01/31 01:07:13.3	98.020	0.240	0.110	1.360
2020/01/31 01:07:13.4	98.040	0.210	0.100	1.340
2020/01/31 01:07:13.5	98.050	0.190	0.080	1.310
2020/01/31 01:07:13.6	98.070	0.160	0.070	1.290
2020/01/31 01:07:13.7	98.090	0.130	0.050	1.260
2020/01/31 01:07:13.8	98.100	0.110	0.040	1.230
2020/01/31 01:07:13.9	98.120	0.080	0.020	1.200
2020/01/31 01:07:14.0	98.130	0.050	-0.000	1.170
2020/01/31 01:07:14.1	98.150	0.030	-0.020	1.140
2020/01/31 01:07:14.2	98.170	0.000	-0.030	1.110
2020/01/31 01:07:14.3	98.180	-0.020	-0.050	1.090
2020/01/31 01:07:14.4	98.200	-0.050	-0.060	1.060
2020/01/31 01:07:14.5	98.220	-0.070	-0.080	1.040
2020/01/31 01:07:14.6	98.230	-0.100	-0.090	1.010
2020/01/31 01:07:14.7	98.250	-0.120	-0.100	0.990
2020/01/31 01:07:14.8	98.260	-0.140	-0.110	0.970
2020/01/31 01:07:14.9	98.270	-0.170	-0.110	0.950
2020/01/31 01:07:15.0	98.290	-0.190	-0.120	0.930
2020/01/31 01:07:15.1	98.300	-0.210	-0.120	0.920
2020/01/31 01:07:15.2	98.310	-0.230	-0.110	0.910
2020/01/31 01:07:15.3	98.320	-0.250	-0.110	0.900
2020/01/31 01:07:15.4	98.330	-0.270	-0.100	0.890
2020/01/31 01:07:15.5	98.340	-0.290	-0.090	0.890
2020/01/31 01:07:15.6	98.340	-0.310	-0.080	0.890
2020/01/31 01:07:15.7	98.340	-0.330	-0.070	0.890
2020/01/31 01:07:15.8	98.340	-0.350	-0.050	0.900
2020/01/31 01:07:15.9	98.340	-0.370	-0.030	0.910
2020/01/31 01:07:16.0	98.340	-0.380	-0.020	0.920
2020/01/31 01:07:16.1	98.340	-0.400	0.000	0.930
2020/01/31 01:07:16.2	98.330	-0.420	0.030	0.950
2020/01/31 01:07:16.3	98.320	-0.440	0.050	0.970
2020/01/31 01:07:16.4	98.310	-0.450	0.070	1.000
2020/01/31 01:07:16.5	98.300	-0.470	0.090	1.020
2020/01/31 01:07:16.6	98.290	-0.480	0.120	1.050
2020/01/31 01:07:16.7	98.280	-0.490	0.140	1.080
2020/01/31 01:07:16.8	98.260	-0.510	0.160	1.120
2020/01/31 01:07:16.9	98.250	-0.520	0.180	1.150
2020/01/31 01:07:17.0	98.240	-0.530	0.200	1.180
2020/01/31 01:07:17.1	98.220	-0.540	0.210	1.220
2020/01/31 01:07:17.2	98.200	-0.550	0.230	1.260
2020/01/31 01:07:17.3	98.190	-0.550	0.240	1.290
2020/01/31 01:07:17.4	98.170	-0.560	0.250	1.330
2020/01/31 01:07:17.5	98.150	-0.570	0.250	1.370
2020/01/31 01:07:17.6	98.140	-0.570	0.250	1.400
2020/01/31 01:07:17.7	98.120	-0.570	0.250	1.430
2020/01/31 01:07:17.8	98.110	-0.570	0.250	1.470
2020/01/31 01:07:17.9	98.090	-0.570	0.240	1.490
2020/01/31 01:07:18.0	98.070	-0.570	0.230	1.520
2020/01/31 01:07:18.1	98.060	-0.560	0.210	1.540
2020/01/31 01:07:18.2	98.050	-0.550	0.190	1.570
2020/01/31 01:07:18.3	98.040	-0.550	0.170	1.580
2020/01/31 01:07:18.4	98.030	-0.530	0.140	1.600
2020/01/31 01:07:18.5	98.020	-0.520	0.110	1.610
2020/01/31 01:07:18.6	98.020	-0.510	0.070	1.620
2020/01/31 01:07:18.7	98.010	-0.490	0.030	1.630
2020/01/31 01:07:18.8	98.010	-0.470	-0.010	1.630
2020/01/31 01:07:18.9	98.010	-0.440	-0.060	1.630
2020/01/31 01:07:19.0	98.010	-0.420	-0.110	1.630
2020/01/31 01:07:19.1	98.010	-0.390	-0.160	1.620
2020/01/31 01:07:19.2	98.010	-0.360	-0.210	1.620
2020/01/31 01:07:19.3	98.010	-0.330	-0.270	1.610
2020/01/31 01:07:19.4	98.010	-0.300	-0.320	1.590
2020/01/31 01:07:19.5	98.010	-0.260	-0.380	1.580
2020/01/31 01:07:19.6	98.020	-0.230	-0.430	1.560
2020/01/31 01:07:19.7	98.030	-0.190	-0.490	1.540
2020/01/31 01:07:19.8	98.030	-0.150	-0.540	1.520
2020/01/31 01:07:19.9	98.040	-0.110	-0.590	1.500
2020/01/31 01:07:20.0	98.040	-0.060	-0.650	1.480
2020/01/31 01:07:20.1	98.050	-0.020	-0.690	1.450
2020/01/31 01:07:20.2	98.060	0.020	-0.730	1.420
2020/01/31 01:07:20.3	98.070	0.070	-0.770	1.390
2020/01/31 01:07:20.4	98.080	0.110	-0.810	1.370
2020/01/31 01:07:20.5	98.100	0.150	-0.840	1.340
2020/01/31 01:07:20.6	98.110	0.200	-0.860	1.300
2020/01/31 01:07:20.7	98.130	0.240	-0.880	1.270
2020/01/31 01:07:20.8	98.140	0.280	-0.890	1.240
2020/01/31 01:07:20.9	98.160	0.320	-0.900	1.210
2020/01/31 01:07:21.0	98.160	0.360	-0.900	1.170
2020/01/31 01:07:21.1	98.180	0.390	-0.890	1.140
2020/01/31 01:07:21.2	98.190	0.430	-0.880	1.110
2020/01/31 01:07:21.3	98.210	0.460	-0.860	1.070
2020/01/31 01:07:21.4	98.220	0.480	-0.830	1.040
2020/01/31 01:07:21.5	98.240	0.510	-0.800	1.010
2020/01/31 01:07:21.6	98.250	0.530	-0.760	0.980
2020/01/31 01:07:21.7	98.270	0.550	-0.720	0.950
2020/01/31 01:07:21.8	98.280	0.560	-0.670	0.930
2020/01/31 01:07:21.9	98.290	0.570	-0.610	0.900
2020/01/31 01:07:22.0	98.290	0.580	-0.550	0.880
2020/01/31 01:07:22.1	98.300	0.580	-0.490	0.850
2020/01/31 01:07:22.2	98.310	0.580	-0.420	0.830
2020/01/31 01:07:22.3	98.320	0.570	-0.350	0.810
2020/01/31 01:07:22.4	98.320	0.570	-0.270	0.800
2020/01/31 01:07:22.5	98.330	0.550	-0.200	0.780
2020/01/31 01:07:22.6	98.330	0.540	-0.120	0.770
2020/01/31 01:07:22.7	98.330	0.520	-0.040	0.760
2020/01/31 01:07:22.8	98.340	0.490	0.040	0.750
2020/01/31 01:07:22.9	98.340	0.470	0.110	0.740
2020/01/31 01:07:23.0	98.340	0.440	0.190	0.730
2020/01/31 01:07:23.1	98.340	0.410	0.270	0.730
2020/01/31 01:07:23.2	98.340	0.370	0.330	0.730
2020/01/31 01:07:23.3	98.340	0.340	0.400	0.730
2020/01/31 01:07:23.4	98.330	0.300	0.460	0.730
2020/01/31 01:07:23.5	98.330	0.260	0.510	0.730
2020/01/31 01:07:23.6	98.330	0.220	0.560	0.730
2020/01/31 01:07:23.7	98.330	0.180	0.600	0.740
2020/01/31 01:07:23.8	98.340	0.140	0.640	0.740
2020/01/31 01:07:23.9	98.340	0.100	0.660	0.750
2020/01/31 01:07:24.0	98.330	0.060	0.690	0.750
2020/01/31 01:07:24.1	98.330	0.030	0.700	0.760
2020/01/31 01:07:24.2	98.340	-0.010	0.700	0.760
2020/01/31 01:07:24.3	98.340	-0.050	0.700	0.770
2020/01/31 01:07:24.4	98.350	-0.080	0.690	0.770
2020/01/31 01:07:24.5	98.350	-0.110	0.680	0.770
2020/01/31 01:07:24.6	98.360	-0.140	0.650	0.780
2020/01/31 01:07:24.7	98.370	-0.160	0.620	0.780
2020/01/31 01:07:24.8	98.380	-0.190	0.580	0.790
2020/01/31 01:07:24.9	98.400	-0.210	0.540	0.790
2020/01/31 01:07:25.0	98.410	-0.220	0.490	0.800
2020/01/31 01:07:25.1	98.430	-0.240	0.430	0.810
2020/01/31 01:07:25.2	98.440	-0.250	0.380	0.820
2020/01/31 01:07:25.3	98.450	-0.260	0.310	0.830
2020/01/31 01:07:25.4	98.470	-0.260	0.250	0.840
2020/01/31 01:07:25.5	98.480	-0.270	0.180	0.860
2020/01/31 01:07:25.6	98.490	-0.270	0.110	0.880
2020/01/31 01:07:25.7	98.500	-0.270	0.040	0.900
2020/01/31 01:07:25.8	98.510	-0.260	-0.040	0.930
2020/01/31 01:07:25.9	98.520	-0.260	-0.110	0.950
2020/01/31 01:07:26.0	98.520	-0.250	-0.180	0.990
2020/01/31 01:07:26.1	98.530	-0.240	-0.250	1.020
2020/01/31 01:07:26.2	98.540	-0.230	-0.320	1.060
2020/01/31 01:07:26.3	98.540	-0.220	-0.380	1.100
2020/01/31 01:07:26.4	98.540	-0.200	-0.450	1.140
2020/01/31 01:07:26.5	98.540	-0.190	-0.500	1.190
2020/01/31 01:07:26.6	98.540	-0.170	-0.560	1.230
2020/01/31 01:07:26.7	98.530	-0.160	-0.610	1.280
2020/01/31 01:07:26.8	98.520	-0.140	-0.660	1.330
2020/01/31 01:07:26.9	98.510	-0.130	-0.700	1.390
2020/01/31 01:07:27.0	98.510	-0.110	-0.740	1.440
2020/01/31 01:07:27.1	98.490	-0.100	-0.770	1.490
2020/01/31 01:07:27.2	98.480	-0.080	-0.790	1.550
2020/01/31 01:07:27.3	98.460	-0.070	-0.810	1.600
2020/01/31 01:07:27.4	98.450	-0.060	-0.830	1.650
2020/01/31 01:07:27.5	98.430	-0.040	-0.840	1.710
2020/01/31 01:07:27.6	98.410	-0.030	-0.840	1.760
2020/01/31 01:07:27.7	98.390	-0.020	-0.840	1.810
2020/01/31 01:07:27.8	98.370	-0.010	-0.830	1.850
2020/01/31 01:07:27.9	98.350	-0.000	-0.820	1.900
2020/01/31 01:07:28.0	98.330	0.010	-0.800	1.940
2020/01/31 01:07:28.1	98.310	0.010	-0.780	1.980
2020/01/31 01:07:28.2	98.290	0.020	-0.750	2.020
2020/01/31 01:07:28.3	98.270	0.020	-0.710	2.050
2020/01/31 01:07:28.4	98.250	0.030	-0.680	2.080
2020/01/31 01:07:28.5	98.240	0.030	-0.640	2.100
2020/01/31 01:07:28.6	98.220	0.030	-0.600	2.130
2020/01/31 01:07:28.7	98.210	0.030	-0.550	2.150
2020/01/31 01:07:28.8	98.190	0.030	-0.510	2.160
2020/01/31 01:07:28.9	98.170	0.030	-0.460	2.180
2020/01/31 01:07:29.0	98.170	0.030	-0.410	2.190
2020/01/31 01:07:29.1	98.160	0.030	-0.360	2.190
2020/01/31 01:07:29.2	98.140	0.030	-0.310	2.200
2020/01/31 01:07:29.3	98.130	0.030	-0.260	2.200
2020/01/31 01:07:29.4	98.120	0.030	-0.210	2.200
2020/01/31 01:07:29.5	98.100	0.040	-0.170	2.190
2020/01/31 01:07:29.6	98.090	0.040	-0.120	2.180
2020/01/31 01:07:29.7	98.080	0.040	-0.080	2.170
2020/01/31 01:07:29.8	98.060	0.040	-0.040	2.160
2020/01/31 01:07:29.9	98.050	0.040	-0.010	2.140
2020/01/31 01:07:30.0	98.030	0.050	0.020	2.120
2020/01/31 01:07:30.1	98.020	0.060	0.050	2.100
2020/01/31 01:07:30.2	98.010	0.060	0.080	2.070
2020/01/31 01:07:30.3	98.000	0.070	0.090	2.040
2020/01/31 01:07:30.4	97.990	0.080	0.110	2.010
2020/01/31 01:07:30.5	97.990	0.090	0.120	1.970
2020/01/31 01:07:30.6	97.980	0.100	0.120	1.930
2020/01/31 01:07:30.7	97.980	0.110	0.120	1.880
2020/01/31 01:07:30.8	97.980	0.130	0.120	1.830
2020/01/31 01:07:30.9	97.980	0.140	0.110	1.780
2020/01/31 01:07:31.0	97.980	0.160	0.100	1.720
2020/01/31 01:07:31.1	97.980	0.180	0.090	1.670
2020/01/31 01:07:31.2	97.990	0.190	0.070	1.610
2020/01/31 01:07:31.3	97.990	0.210	0.050	1.540
2020/01/31 01:07:31.4	98.000	0.230	0.030	1.480
2020/01/31 01:07:31.5	98.010	0.250	0.000	1.410
2020/01/31 01:07:31.6	98.020	0.270	-0.020	1.340
2020/01/31 01:07:31.7	98.040	0.290	-0.050	1.270
2020/01/31 01:07:31.8	98.050	0.300	-0.080	1.200
2020/01/31 01:07:31.9	98.070	0.320	-0.110	1.130
2020/01/31 01:07:32.0	98.080	0.330	-0.130	1.050
2020/01/31 01:07:32.1	98.090	0.350	-0.160	0.980
2020/01/31 01:07:32.2	98.110	0.360	-0.190	0.910
2020/01/31 01:07:32.3	98.130	0.370	-0.210	0.840
2020/01/31 01:07:32.4	98.150	0.380	-0.230	0.770
2020/01/31 01:07:32.5	98.170	0.390	-0.250	0.700
2020/01/31 01:07:32.6	98.200	0.390	-0.270	0.630
2020/01/31 01:07:32.7	98.220	0.400	-0.280	0.560
2020/01/31 01:07:32.8	98.240	0.400	-0.300	0.500
2020/01/31 01:07:32.9	98.270	0.390	-0.310	0.440
2020/01/31 01:07:33.0	98.300	0.390	-0.310	0.370
2020/01/31 01:07:33.1	98.320	0.380	-0.310	0.320
2020/01/31 01:07:33.2	98.350	0.370	-0.310	0.260
2020/01/31 01:07:33.3	98.370	0.360	-0.310	0.210
2020/01/31 01:07:33.4	98.400	0.340	-0.310	0.160
2020/01/31 01:07:33.5	98.420	0.320	-0.300	0.110
2020/01/31 01:07:33.6	98.450	0.300	-0.280	0.070
2020/01/31 01:07:33.7	98.470	0.280	-0.270	0.030
2020/01/31 01:07:33.8	98.500	0.250	-0.250	-0.010
2020/01/31 01:07:33.9	98.520	0.220	-0.230	-0.040
2020/01/31 01:07:34.0	98.540	0.190	-0.210	-0.070
2020/01/31 01:07:34.1	98.560	0.160	-0.180	-0.100
2020/01/31 01:07:34.2	98.580	0.130	-0.150	-0.110
2020/01/31 01:07:34.3	98.600	0.090	-0.130	-0.130
2020/01/31 01:07:34.4	98.620	0.050	-0.090	-0.140
2020/01/31 01:07:34.5	98.630	0.020	-0.060	-0.150
2020/01/31 01:07:34.6	98.650	-0.020	-0.030	-0.150
2020/01/31 01:07:34.7	98.660	-0.060	0.000	-0.140
2020/01/31 01:07:34.8	98.670	-0.100	0.040	-0.130
2020/01/31 01:07:34.9	98.670	-0.140	0.070	-0.120
2020/01/31 01:07:35.0	98.680	-0.180	0.100	-0.100
2020/01/31 01:07:35.1	98.680	-0.220	0.130	-0.070
2020/01/31 01:07:35.2	98.680	-0.260	0.160	-0.040
2020/01/31 01:07:35.3	98.680	-0.290	0.190	-0.010
2020/01/31 01:07:35.4	98.680	-0.330	0.210	0.030
2020/01/31 01:07:35.5	98.670	-0.360	0.240	0.070
2020/01/31 01:07:35.6	98.660	-0.400	0.260	0.120
2020/01/31 01:07:35.7	98.650	-0.430	0.270	0.170
2020/01/31 01:07:35.8	98.640	-0.460	0.290	0.230
2020/01/31 01:07:35.9	98.630	-0.480	0.300	0.290
2020/01/31 01:07:36.0	98.610	-0.510	0.310	0.350
2020/01/31 01:07:36.1	98.600	-0.530	0.310	0.410
2020/01/31 01:07:36.2	98.580	-0.550	0.310	0.480
2020/01/31 01:07:36.3	98.570	-0.570	0.310	0.550
2020/01/31 01:07:36.4	98.550	-0.580	0.300	0.620
2020/01/31 01:07:36.5	98.540	-0.590	0.290	0.700
2020/01/31 01:07:36.6	98.520	-0.600	0.280	0.770
2020/01/31 01:07:36.7	98.500	-0.600	0.260	0.850
2020/01/31 01:07:36.8	98.480	-0.610	0.240	0.920
2020/01/31 01:07:36.9	98.470	-0.610	0.220	1.000
2020/01/31 01:07:37.0	98.440	-0.600	0.190	1.080
2020/01/31 01:07:37.1	98.430	-0.600	0.160	1.160
2020/01/31 01:07:37.2	98.410	-0.590	0.130	1.230
2020/01/31 01:07:37.3	98.400	-0.580	0.100	1.310
2020/01/31 01:07:37.4	98.380	-0.570	0.070	1.390
2020/01/31 01:07:37.5	98.370	-0.550	0.030	1.460
2020/01/31 01:07:37.6	98.360	-0.540	-0.000	1.530
2020/01/31 01:07:37.7	98.340	-0.520	-0.040	1.610
2020/01/31 01:07:37.8	98.330	-0.500	-0.080	1.680
2020/01/31 01:07:37.9	98.320	-0.470	-0.120	1.740
2020/01/31 01:07:38.0	98.310	-0.450	-0.150	1.810
2020/01/31 01:07:38.1	98.300	-0.430	-0.190	1.870
2020/01/31 01:07:38.2	98.290	-0.400	-0.230	1.930
2020/01/31 01:07:38.3	98.280	-0.370	-0.270	1.980
2020/01/31 01:07:38.4	98.280	-0.340	-0.300	2.040
2020/01/31 01:07:38.5	98.270	-0.320	-0.340	2.090
2020/01/31 01:07:38.6	98.270	-0.290	-0.370	2.130
2020/01/31 01:07:38.7	98.270	-0.260	-0.400	2.170
2020/01/31 01:07:38.8	98.270	-0.230	-0.430	2.210
2020/01/31 01:07:38.9	98.270	-0.200	-0.460	2.240
2020/01/31 01:07:39.0	98.280	-0.170	-0.480	2.270
2020/01/31 01:07:39.1	98.280	-0.140	-0.510	2.300
2020/01/31 01:07:39.2	98.290	-0.110	-0.530	2.320
2020/01/31 01:07:39.3	98.290	-0.080	-0.550	2.340
2020/01/31 01:07:39.4	98.290	-0.050	-0.560	2.350
2020/01/31 01:07:39.5	98.300	-0.020	-0.580	2.360
2020/01/31 01:07:39.6	98.300	0.000	-0.590	2.360
2020/01/31 01:07:39.7	98.310	0.030	-0.600	2.370
2020/01/31 01:07:39.8	98.310	0.060	-0.610	2.370
2020/01/31 01:07:39.9	98.320	0.080	-0.610	2.360
2020/01/31 01:07:40.0	98.330	0.100	-0.620	2.360
2020/01/31 01:07:40.1	98.330	0.130	-0.620	2.350
2020/01/31 01:07:40.2	98.340	0.150	-0.620	2.330
2020/01/31 01:07:40.3	98.340	0.170	-0.610	2.320
2020/01/31 01:07:40.4	98.350	0.190	-0.610	2.300
2020/01/31 01:07:40.5	98.350	0.210	-0.600	2.280
2020/01/31 01:07:40.6	98.350	0.220	-0.590	2.260
2020/01/31 01:07:40.7	98.350	0.240	-0.580	2.230
2020/01/31 01:07:40.8	98.350	0.260	-0.560	2.200
2020/01/31 01:07:40.9	98.360	0.270	-0.550	2.170
2020/01/31 01:07:41.0	98.360	0.280	-0.530	2.140
2020/01/31 01:07:41.1	98.360	0.290	-0.510	2.110
2020/01/31 01:07:41.2	98.360	0.300	-0.490	2.070
2020/01/31 01:07:41.3	98.360	0.310	-0.470	2.030
2020/01/31 01:07:41.4	98.360	0.310	-0.440	1.990
2020/01/31 01:07:41.5	98.360	0.320	-0.410	1.940
2020/01/31 01:07:41.6	98.360	0.320	-0.390	1.900
2020/01/31 01:07:41.7	98.370	0.320	-0.360	1.850
2020/01/31 01:07:41.8	98.370	0.330	-0.330	1.800
2020/01/31 01:07:41.9	98.370	0.330	-0.300	1.750
2020/01/31 01:07:42.0	98.370	0.320	-0.260	1.690
2020/01/31 01:07:42.1	98.380	0.320	-0.230	1.640
2020/01/31 01:07:42.2	98.380	0.320	-0.200	1.580
2020/01/31 01:07:42.3	98.390	0.310	-0.170	1.530
2020/01/31 01:07:42.4	98.390	0.310	-0.130	1.470
2020/01/31 01:07:42.5	98.400	0.300	-0.100	1.410
2020/01/31 01:07:42.6	98.410	0.290	-0.070	1.350
2020/01/31 01:07:42.7	98.420	0.290	-0.040	1.290
2020/01/31 01:07:42.8	98.420	0.280	-0.010	1.230
2020/01/31 01:07:42.9	98.430	0.270	0.020	1.180
2020/01/31 01:07:43.0	98.430	0.260	0.050	1.110
2020/01/31 01:07:43.1	98.430	0.250	0.080	1.050
2020/01/31 01:07:43.2	98.440	0.240	0.110	1.000
2020/01/31 01:07:43.3	98.440	0.230	0.130	0.940
2020/01/31 01:07:43.4	98.450	0.220	0.150	0.880
2020/01/31 01:07:43.5	98.450	0.200	0.170	0.820
2020/01/31 01:07:43.6	98.460	0.190	0.190	0.770
2020/01/31 01:07:43.7	98.460	0.180	0.210	0.720
2020/01/31 01:07:43.8	98.460	0.170	0.220	0.660
2020/01/31 01:07:43.9	98.470	0.160	0.230	0.610
2020/01/31 01:07:44.0	98.460	0.150	0.240	0.570
2020/01/31 01:07:44.1	98.460	0.140	0.250	0.520
2020/01/31 01:07:44.2	98.460	0.130	0.250	0.470
2020/01/31 01:07:44.3	98.460	0.120	0.250	0.430
2020/01/31 01:07:44.4	98.460	0.110	0.250	0.390
2020/01/31 01:07:44.5	98.460	0.110	0.250	0.350
2020/01/31 01:07:44.6	98.460	0.100	0.240	0.320
2020/01/31 01:07:44.7	98.450	0.090	0.220	0.280
2020/01/31 01:07:44.8	98.450	0.090	0.210	0.250
2020/01/31 01:07:44.9	98.450	0.080	0.190	0.220
2020/01/31 01:07:45.0	98.460	0.070	0.170	0.190
2020/01/31 01:07:45.1	98.460	0.070	0.150	0.170
2020/01/31 01:07:45.2	98.460	0.070	0.120	0.150
2020/01/31 01:07:45.3	98.460	0.060	0.100	0.130
2020/01/31 01:07:45.4	98.460	0.060	0.070	0.120
2020/01/31 01:07:45.5	98.460	0.060	0.040	0.100
2020/01/31 01:07:45.6	98.470	0.050	0.010	0.090
2020/01/31 01:07:45.7	98.470	0.050	-0.020	0.090
2020/01/31 01:07:45.8	98.470	0.050	-0.050	0.080
2020/01/31 01:07:45.9	98.480	0.040	-0.080	0.080
2020/01/31 01:07:46.0	98.480	0.040	-0.100	0.080
2020/01/31 01:07:46.1	98.490	0.040	-0.130	0.090
2020/01/31 01:07:46.2	98.490	0.030	-0.160	0.100
2020/01/31 01:07:46.3	98.490	0.030	-0.180	0.110
2020/01/31 01:07:46.4	98.500	0.020	-0.200	0.120
2020/01/31 01:07:46.5	98.500	0.020	-0.220	0.130
2020/01/31 01:07:46.6	98.500	0.010	-0.240	0.150
2020/01/31 01:07:46.7	98.510	0.000	-0.250	0.170
2020/01/31 01:07:46.8	98.510	-0.000	-0.260	0.190
2020/01/31 01:07:46.9	98.510	-0.010	-0.270	0.220
2020/01/31 01:07:47.0	98.500	-0.020	-0.280	0.240
2020/01/31 01:07:47.1	98.500	-0.030	-0.280	0.270
2020/01/31 01:07:47.2	98.500	-0.040	-0.280	0.300
2020/01/31 01:07:47.3	98.500	-0.050	-0.270	0.330
2020/01/31 01:07:47.4	98.500	-0.060	-0.270	0.370
2020/01/31 01:07:47.5	98.500	-0.070	-0.260	0.400
2020/01/31 01:07:47.6	98.500	-0.080	-0.250	0.440
2020/01/31 01:07:47.7	98.500	-0.100	-0.240	0.470
2020/01/31 01:07:47.8	98.500	-0.110	-0.230	0.510
2020/01/31 01:07:47.9	98.500	-0.120	-0.220	0.550
2020/01/31 01:07:48.0	98.500	-0.130	-0.200	0.590
2020/01/31 01:07:48.1	98.490	-0.140	-0.190	0.630
2020/01/31 01:07:48.2	98.490	-0.150	-0.180	0.670
2020/01/31 01:07:48.3	98.480	-0.160	-0.160	0.710
2020/01/31 01:07:48.4	98.480	-0.170	-0.150	0.760
2020/01/31 01:07:48.5	98.470	-0.180	-0.140	0.800
2020/01/31 01:07:48.6	98.470	-0.190	-0.130	0.850
2020/01/31 01:07:48.7	98.460	-0.190	-0.120	0.890
2020/01/31 01:07:48.8	98.460	-0.200	-0.110	0.940
2020/01/31 01:07:48.9	98.450	-0.200	-0.110	0.990
2020/01/31 01:07:49.0	98.450	-0.200	-0.110	1.040
2020/01/31 01:07:49.1	98.440	-0.200	-0.110	1.080
2020/01/31 01:07:49.2	98.440	-0.200	-0.120	1.130
2020/01/31 01:07:49.3	98.440	-0.200	-0.130	1.180
2020/01/31 01:07:49.4	98.430	-0.190	-0.140	1.220
2020/01/31 01:07:49.5	98.430	-0.190	-0.150	1.270
2020/01/31 01:07:49.6	98.430	-0.180	-0.170	1.310
2020/01/31 01:07:49.7	98.430	-0.170	-0.190	1.360
2020/01/31 01:07:49.8	98.420	-0.150	-0.220	1.400
2020/01/31 01:07:49.9	98.430	-0.140	-0.240	1.440
2020/01/31 01:07:50.0	98.440	-0.120	-0.270	1.480
2020/01/31 01:07:50.1	98.440	-0.110	-0.300	1.520
2020/01/31 01:07:50.2	98.450	-0.090	-0.330	1.560
2020/01/31 01:07:50.3	98.450	-0.070	-0.370	1.600
2020/01/31 01:07:50.4	98.450	-0.040	-0.400	1.640
2020/01/31 01:07:50.5	98.460	-0.020	-0.430	1.680
2020/01/31 01:07:50.6	98.460	0.000	-0.470	1.720
2020/01/31 01:07:50.7	98.460	0.030	-0.500	1.760
2020/01/31 01:07:50.8	98.470	0.060	-0.530	1.800
2020/01/31 01:07:50.9	98.470	0.080	-0.560	1.840
2020/01/31 01:07:51.0	98.460	0.110	-0.590	1.880
2020/01/31 01:07:51.1	98.460	0.130	-0.610	1.910
2020/01/31 01:07:51.2	98.470	0.160	-0.630	1.940
2020/01/31 01:07:51.3	98.470	0.180	-0.650	1.980
2020/01/31 01:07:51.4	98.470	0.200	-0.660	2.010
2020/01/31 01:07:51.5	98.470	0.220	-0.670	2.030
2020/01/31 01:07:51.6	98.470	0.240	-0.670	2.060
2020/01/31 01:07:51.7	98.470	0.260	-0.670	2.080
2020/01/31 01:07:51.8	98.470	0.280	-0.660	2.100
2020/01/31 01:07:51.9	98.470	0.290	-0.640	2.120
2020/01/31 01:07:52.0	98.480	0.300	-0.620	2.130
2020/01/31 01:07:52.1	98.480	0.310	-0.600	2.140
2020/01/31 01:07:52.2	98.480	0.310	-0.570	2.150
2020/01/31 01:07:52.3	98.480	0.310	-0.530	2.160
2020/01/31 01:07:52.4	98.480	0.310	-0.490	2.160
2020/01/31 01:07:52.5	98.480	0.310	-0.440	2.160
2020/01/31 01:07:52.6	98.480	0.300	-0.390	2.150
2020/01/31 01:07:52.7	98.480	0.290	-0.330	2.150
2020/01/31 01:07:52.8	98.480	0.270	-0.280	2.140
2020/01/31 01:07:52.9	98.480	0.260	-0.220	2.120
2020/01/31 01:07:53.0	98.490	0.240	-0.150	2.110
2020/01/31 01:07:53.1	98.490	0.220	-0.090	2.090
2020/01/31 01:07:53.2	98.490	0.200	-0.020	2.070
2020/01/31 01:07:53.3	98.490	0.170	0.040	2.040
2020/01/31 01:07:53.4	98.490	0.140	0.100	2.020
2020/01/31 01:07:53.5	98.490	0.120	0.160	1.990
2020/01/31 01:07:53.6	98.490	0.090	0.220	1.950
2020/01/31 01:07:53.7	98.490	0.060	0.280	1.920
2020/01/31 01:07:53.8	98.490	0.030	0.330	1.880
2020/01/31 01:07:53.9	98.490	-0.000	0.380	1.850
2020/01/31 01:07:54.0	98.480	-0.030	0.430	1.800
2020/01/31 01:07:54.1	98.480	-0.060	0.470	1.760
2020/01/31 01:07:54.2	98.480	-0.090	0.500	1.720
2020/01/31 01:07:54.3	98.480	-0.120	0.530	1.670
2020/01/31 01:07:54.4	98.480	-0.150	0.550	1.630
2020/01/31 01:07:54.5	98.480	-0.170	0.560	1.580
2020/01/31 01:07:54.6	98.480	-0.200	0.570	1.540
2020/01/31 01:07:54.7	98.490	-0.220	0.580	1.490
2020/01/31 01:07:54.8	98.490	-0.240	0.570	1.440
2020/01/31 01:07:54.9	98.490	-0.260	0.560	1.390
2020/01/31 01:07:55.0	98.500	-0.270	0.540	1.340
2020/01/31 01:07:55.1	98.500	-0.290	0.520	1.290
2020/01/31 01:07:55.2	98.500	-0.300	0.490	1.250
2020/01/31 01:07:55.3	98.510	-0.310	0.460	1.200
2020/01/31 01:07:55.4	98.510	-0.310	0.420	1.150
2020/01/31 01:07:55.5	98.510	-0.320	0.380	1.100
2020/01/31 01:07:55.6	98.510	-0.320	0.330	1.060
2020/01/31 01:07:55.7	98.510	-0.320	0.280	1.010
2020/01/31 01:07:55.8	98.510	-0.320	0.230	0.970
2020/01/31 01:07:55.9	98.510	-0.320	0.180	0.930
2020/01/31 01:07:56.0	98.520	-0.320	0.130	0.890
2020/01/31 01:07:56.1	98.520	-0.310	0.070	0.850
2020/01/31 01:07:56.2	98.520	-0.300	0.020	0.810
2020/01/31 01:07:56.3	98.520	-0.300	-0.030	0.780
2020/01/31 01:07:56.4	98.520	-0.290	-0.080	0.740
2020/01/31 01:07:56.5	98.520	-0.280	-0.130	0.710
2020/01/31 01:07:56.6	98.520	-0.270	-0.170	0.680
2020/01/31 01:07:56.7	98.520	-0.270	-0.220	0.660
2020/01/31 01:07:56.8	98.510	-0.260	-0.250	0.630
2020/01/31 01:07:56.9	98.510	-0.250	-0.280	0.610
2020/01/31 01:07:57.0	98.510	-0.240	-0.310	0.580
2020/01/31 01:07:57.1	98.500	-0.240	-0.340	0.560
2020/01/31 01:07:57.2	98.500	-0.230	-0.360	0.540
2020/01/31 01:07:57.3	98.490	-0.230	-0.370	0.530
2020/01/31 01:07:57.4	98.480	-0.220	-0.380	0.510
2020/01/31 01:07:57.5	98.480	-0.220	-0.380	0.500
2020/01/31 01:07:57.6	98.470	-0.210	-0.380	0.490
2020/01/31 01:07:57.7	98.460	-0.210	-0.380	0.480
2020/01/31 01:07:57.8	98.450	-0.210	-0.370	0.470
2020/01/31 01:07:57.9	98.440	-0.210	-0.360	0.460
2020/01/31 01:07:58.0	98.420	-0.200	-0.350	0.460
2020/01/31 01:07:58.1	98.410	-0.200	-0.340	0.450
2020/01/31 01:07:58.2	98.400	-0.200	-0.320	0.450
2020/01/31 01:07:58.3	98.390	-0.200	-0.300	0.440
2020/01/31 01:07:58.4	98.380	-0.200	-0.280	0.440
2020/01/31 01:07:58.5	98.370	-0.200	-0.260	0.440
2020/01/31 01:07:58.6	98.360	-0.200	-0.240	0.430
2020/01/31 01:07:58.7	98.350	-0.190	-0.220	0.430
2020/01/31 01:07:58.8	98.330	-0.190	-0.200	0.430
2020/01/31 01:07:58.9	98.330	-0.190	-0.180	0.420
2020/01/31 01:07:59.0	98.300	-0.180	-0.150	0.420
2020/01/31 01:07:59.1	98.290	-0.170	-0.140	0.420
2020/01/31 01:07:59.2	98.290	-0.160	-0.120	0.410
2020/01/31 01:07:59.3	98.280	-0.150	-0.110	0.410
2020/01/31 01:07:59.4	98.280	-0.140	-0.100	0.400
2020/01/31 01:07:59.5	98.280	-0.130	-0.090	0.400
2020/01/31 01:07:59.6	98.280	-0.110	-0.080	0.390
2020/01/31 01:07:59.7	98.280	-0.100	-0.080	0.380
2020/01/31 01:07:59.8	98.290	-0.080	-0.080	0.380
2020/01/31 01:07:59.9	98.290	-0.060	-0.090	0.370
2020/01/31 01:08:00.0	98.300	-0.040	-0.090	0.360
2020/01/31 01:08:00.1	98.310	-0.010	-0.100	0.350
2020/01/31 01:08:00.2	98.320	0.020	-0.120	0.340
2020/01/31 01:08:00.3	98.330	0.040	-0.130	0.340
2020/01/31 01:08:00.4	98.350	0.070	-0.160	0.330
2020/01/31 01:08:00.5	98.360	0.110	-0.180	0.320
2020/01/31 01:08:00.6	98.380	0.140	-0.210	0.320
2020/01/31 01:08:00.7	98.400	0.170	-0.240	0.310
2020/01/31 01:08:00.8	98.420	0.210	-0.270	0.310
2020/01/31 01:08:00.9	98.440	0.240	-0.300	0.310
2020/01/31 01:08:01.0	98.430	0.280	-0.340	0.310
2020/01/31 01:08:01.1	98.460	0.310	-0.370	0.310
2020/01/31 01:08:01.2	98.480	0.350	-0.410	0.320
2020/01/31 01:08:01.3	98.500	0.380	-0.450	0.320
2020/01/31 01:08:01.4	98.510	0.420	-0.490	0.330
2020/01/31 01:08:01.5	98.530	0.450	-0.530	0.340
2020/01/31 01:08:01.6	98.550	0.480	-0.560	0.360
2020/01/31 01:08:01.7	98.560	0.510	-0.600	0.380
2020/01/31 01:08:01.8	98.580	0.540	-0.630	0.400
2020/01/31 01:08:01.9	98.590	0.570	-0.660	0.420
2020/01/31 01:08:02.0	98.590	0.590	-0.690	0.450
2020/01/31 01:08:02.1	98.600	0.610	-0.720	0.480
2020/01/31 01:08:02.2	98.600	0.630	-0.740	0.510
2020/01/31 01:08:02.3	98.600	0.650	-0.760	0.550
2020/01/31 01:08:02.4	98.600	0.660	-0.770	0.590
2020/01/31 01:08:02.5	98.600	0.660	-0.780	0.630
2020/01/31 01:08:02.6	98.600	0.670	-0.790	0.670
2020/01/31 01:08:02.7	98.590	0.670	-0.790	0.710
2020/01/31 01:08:02.8	98.580	0.660	-0.780	0.760
2020/01/31 01:08:02.9	98.570	0.660	-0.770	0.800
2020/01/31 01:08:03.0	98.570	0.640	-0.750	0.850
2020/01/31 01:08:03.1	98.560	0.630	-0.730	0.900
2020/01/31 01:08:03.2	98.550	0.610	-0.710	0.950
2020/01/31 01:08:03.3	98.530	0.590	-0.670	0.990
2020/01/31 01:08:03.4	98.520	0.560	-0.630	1.040
2020/01/31 01:08:03.5	98.510	0.530	-0.590	1.090
2020/01/31 01:08:03.6	98.500	0.490	-0.540	1.140
2020/01/31 01:08:03.7	98.490	0.460	-0.490	1.180
2020/01/31 01:08:03.8	98.470	0.420	-0.430	1.230
2020/01/31 01:08:03.9	98.460	0.370	-0.370	1.270
2020/01/31 01:08:04.0	98.440	0.330	-0.310	1.320
2020/01/31 01:08:04.1	98.430	0.280	-0.240	1.360
2020/01/31 01:08:04.2	98.420	0.230	-0.180	1.400
2020/01/31 01:08:04.3	98.410	0.190	-0.110	1.440
2020/01/31 01:08:04.4	98.400	0.140	-0.040	1.480
2020/01/31 01:08:04.5	98.390	0.090	0.030	1.520
2020/01/31 01:08:04.6	98.380	0.040	0.090	1.560
2020/01/31 01:08:04.7	98.370	-0.010	0.160	1.600
2020/01/31 01:08:04.8	98.370	-0.060	0.220	1.640
2020/01/31 01:08:04.9	98.360	-0.110	0.290	1.680
2020/01/31 01:08:05.0	98.370	-0.160	0.350	1.720
2020/01/31 01:08:05.1	98.360	-0.200	0.410	1.760
2020/01/31 01:08:05.2	98.350	-0.240	0.460	1.800
2020/01/31 01:08:05.3	98.340	-0.280	0.510	1.830
2020/01/31 01:08:05.4	98.320	-0.320	0.550	1.870
2020/01/31 01:08:05.5	98.310	-0.360	0.590	1.910
2020/01/31 01:08:05.6	98.300	-0.390	0.620	1.940
2020/01/31 01:08:05.7	98.290	-0.420	0.650	1.980
2020/01/31 01:08:05.8	98.270	-0.450	0.680	2.010
2020/01/31 01:08:05.9	98.260	-0.480	0.700	2.040
2020/01/31 01:08:06.0	98.240	-0.500	0.710	2.080
2020/01/31 01:08:06.1	98.230	-0.520	0.720	2.110
2020/01/31 01:08:06.2	98.220	-0.540	0.720	2.130
2020/01/31 01:08:06.3	98.210	-0.550	0.720	2.160
2020/01/31 01:08:06.4	98.200	-0.570	0.710	2.180
2020/01/31 01:08:06.5	98.190	-0.570	0.700	2.200
2020/01/31 01:08:06.6	98.180	-0.580	0.690	2.210
2020/01/31 01:08:06.7	98.170	-0.590	0.670	2.220
2020/01/31 01:08:06.8	98.170	-0.590	0.650	2.230
2020/01/31 01:08:06.9	98.160	-0.590	0.620	2.230
2020/01/31 01:08:07.0	98.160	-0.580	0.600	2.230
2020/01/31 01:08:07.1	98.160	-0.580	0.570	2.220
2020/01/31 01:08:07.2	98.160	-0.570	0.530	2.210
2020/01/31 01:08:07.3	98.160	-0.560	0.490	2.200
2020/01/31 01:08:07.4	98.160	-0.550	0.450	2.180
2020/01/31 01:08:07.5	98.170	-0.540	0.410	2.150
2020/01/31 01:08:07.6	98.180	-0.520	0.370	2.120
2020/01/31 01:08:07.7	98.190	-0.500	0.320	2.080
2020/01/31 01:08:07.8	98.200	-0.480	0.270	2.040
2020/01/31 01:08:07.9	98.210	-0.460	0.230	2.000
2020/01/31 01:08:08.0	98.230	-0.440	0.170	1.950
2020/01/31 01:08:08.1	98.240	-0.420	0.120	1.900
2020/01/31 01:08:08.2	98.260	-0.400	0.070	1.840
2020/01/31 01:08:08.3	98.280	-0.370	0.010	1.780
2020/01/31 01:08:08.4	98.300	-0.340	-0.040	1.720
2020/01/31 01:08:08.5	98.320	-0.320	-0.100	1.650
2020/01/31 01:08:08.6	98.340	-0.290	-0.150	1.590
2020/01/31 01:08:08.7	98.360	-0.260	-0.210	1.520
2020/01/31 01:08:08.8	98.380	-0.230	-0.260	1.450
2020/01/31 01:08:08.9	98.410	-0.200	-0.320	1.370
2020/01/31 01:08:09.0	98.430	-0.170	-0.370	1.300
2020/01/31 01:08:09.1	98.450	-0.140	-0.430	1.230
2020/01/31 01:08:09.2	98.480	-0.110	-0.480	1.160
2020/01/31 01:08:09.3	98.500	-0.080	-0.540	1.090
2020/01/31 01:08:09.4	98.530	-0.040	-0.590	1.020
2020/01/31 01:08:09.5	98.550	-0.010	-0.640	0.960
2020/01/31 01:08:09.6	98.580	0.020	-0.690	0.890
2020/01/31 01:08:09.7	98.600	0.050	-0.740	0.830
2020/01/31 01:08:09.8	98.620	0.080	-0.790	0.770
2020/01/31 01:08:09.9	98.650	0.120	-0.830	0.720
2020/01/31 01:08:10.0	98.670	0.150	-0.880	0.660
2020/01/31 01:08:10.1	98.700	0.180	-0.920	0.610
2020/01/31 01:08:10.2	98.720	0.210	-0.950	0.570
2020/01/31 01:08:10.3	98.730	0.230	-0.990	0.530
2020/01/31 01:08:10.4	98.750	0.260	-1.010	0.490
2020/01/31 01:08:10.5	98.770	0.290	-1.040	0.460
2020/01/31 01:08:10.6	98.780	0.310	-1.060	0.430
2020/01/31 01:08:10.7	98.790	0.330	-1.070	0.400
2020/01/31 01:08:10.8	98.810	0.360	-1.080	0.380
2020/01/31 01:08:10.9	98.810	0.370	-1.080	0.360
2020/01/31 01:08:11.0	98.810	0.390	-1.080	0.350
2020/01/31 01:08:11.1	98.820	0.410	-1.070	0.340
2020/01/31 01:08:11.2	98.820	0.420	-1.050	0.330
2020/01/31 01:08:11.3	98.820	0.430	-1.030	0.320
2020/01/31 01:08:11.4	98.820	0.430	-1.000	0.320
2020/01/31 01:08:11.5	98.820	0.440	-0.970	0.320
2020/01/31 01:08:11.6	98.810	0.440	-0.930	0.330
2020/01/31 01:08:11.7	98.800	0.440	-0.880	0.330
2020/01/31 01:08:11.8	98.800	0.430	-0.830	0.340
2020/01/31 01:08:11.9	98.790	0.420	-0.770	0.350
2020/01/31 01:08:12.0	98.770	0.410	-0.710	0.360
2020/01/31 01:08:12.1	98.760	0.400	-0.640	0.380
2020/01/31 01:08:12.2	98.740	0.390	-0.570	0.390
2020/01/31 01:08:12.3	98.730	0.370	-0.500	0.410
2020/01/31 01:08:12.4	98.710	0.350	-0.420	0.430
2020/01/31 01:08:12.5	98.690	0.320	-0.340	0.440
2020/01/31 01:08:12.6	98.680	0.300	-0.260	0.460
2020/01/31 01:08:12.7	98.660	0.280	-0.180	0.480
2020/01/31 01:08:12.8	98.640	0.250	-0.100	0.500
2020/01/31 01:08:12.9	98.620	0.220	-0.020	0.520
2020/01/31 01:08:13.0	98.600	0.190	0.060	0.530
2020/01/31 01:08:13.1	98.580	0.160	0.130	0.550
2020/01/31 01:08:13.2	98.560	0.130	0.210	0.570
2020/01/31 01:08:13.3	98.530	0.100	0.270	0.580
2020/01/31 01:08:13.4	98.510	0.070	0.340	0.600
2020/01/31 01:08:13.5	98.490	0.040	0.400	0.620
2020/01/31 01:08:13.6	98.470	0.010	0.460	0.630
2020/01/31 01:08:13.7	98.440	-0.020	0.510	0.650
2020/01/31 01:08:13.8	98.420	-0.040	0.560	0.660
2020/01/31 01:08:13.9	98.400	-0.070	0.600	0.680
2020/01/31 01:08:14.0	98.380	-0.090	0.630	0.690
2020/01/31 01:08:14.1	98.360	-0.120	0.660	0.710
2020/01/31 01:08:14.2	98.330	-0.140	0.680	0.720
2020/01/31 01:08:14.3	98.310	-0.160	0.700	0.740
2020/01/31 01:08:14.4	98.290	-0.170	0.700	0.750
2020/01/31 01:08:14.5	98.260	-0.190	0.700	0.760
2020/01/31 01:08:14.6	98.240	-0.200	0.700	0.780
2020/01/31 01:08:14.7	98.220	-0.210	0.690	0.790
2020/01/31 01:08:14.8	98.200	-0.220	0.670	0.800
2020/01/31 01:08:14.9	98.180	-0.220	0.640	0.810
2020/01/31 01:08:15.0	98.160	-0.230	0.610	0.820
2020/01/31 01:08:15.1	98.150	-0.230	0.580	0.830
2020/01/31 01:08:15.2	98.130	-0.230	0.540	0.840
2020/01/31 01:08:15.3	98.120	-0.220	0.490	0.840
2020/01/31 01:08:15.4	98.110	-0.220	0.450	0.850
2020/01/31 01:08:15.5	98.100	-0.210	0.400	0.850
2020/01/31 01:08:15.6	98.100	-0.200	0.340	0.860
2020/01/31 01:08:15.7	98.090	-0.190	0.290	0.860
2020/01/31 01:08:15.8	98.090	-0.180	0.230	0.860
2020/01/31 01:08:15.9	98.090	-0.170	0.170	0.860
2020/01/31 01:08:16.0	98.090	-0.150	0.110	0.860
2020/01/31 01:08:16.1	98.090	-0.140	0.050	0.860
2020/01/31 01:08:16.2	98.100	-0.120	-0.000	0.860
2020/01/31 01:08:16.3	98.110	-0.110	-0.060	0.860
2020/01/31 01:08:16.4	98.120	-0.090	-0.120	0.860
2020/01/31 01:08:16.5	98.130	-0.070	-0.180	0.860
2020/01/31 01:08:16.6	98.140	-0.060	-0.230	0.860
2020/01/31 01:08:16.7	98.150	-0.040	-0.280	0.860
2020/01/31 01:08:16.8	98.170	-0.030	-0.330	0.860
2020/01/31 01:08:16.9	98.180	-0.010	-0.370	0.860
2020/01/31 01:08:17.0	98.210	0.000	-0.420	0.860
2020/01/31 01:08:17.1	98.220	0.010	-0.450	0.860
2020/01/31 01:08:17.2	98.240	0.030	-0.490	0.860
2020/01/31 01:08:17.3	98.270	0.040	-0.520	0.870
2020/01/31 01:08:17.4	98.290	0.040	-0.540	0.870
2020/01/31 01:08:17.5	98.310	0.050	-0.570	0.870
2020/01/31 01:08:17.6	98.330	0.060	-0.580	0.880
2020/01/31 01:08:17.7	98.360	0.060	-0.600	0.880
2020/01/31 01:08:17.8	98.380	0.060	-0.610	0.890
2020/01/31 01:08:17.9	98.400	0.070	-0.620	0.890
2020/01/31 01:08:18.0	98.430	0.070	-0.620	0.900
2020/01/31 01:08:18.1	98.460	0.060	-0.620	0.910
2020/01/31 01:08:18.2	98.480	0.060	-0.620	0.920
2020/01/31 01:08:18.3	98.510	0.060	-0.610	0.930
2020/01/31 01:08:18.4	98.530	0.050	-0.600	0.940
2020/01/31 01:08:18.5	98.560	0.050	-0.590	0.950
2020/01/31 01:08:18.6	98.580	0.040	-0.570	0.960
2020/01/31 01:08:18.7	98.600	0.030	-0.560	0.970
2020/01/31 01:08:18.8	98.630	0.020	-0.540	0.990
2020/01/31 01:08:18.9	98.650	0.010	-0.520	1.000
2020/01/31 01:08:19.0	98.670	0.010	-0.490	1.020
2020/01/31 01:08:19.1	98.690	-0.000	-0.470	1.040
2020/01/31 01:08:19.2	98.710	-0.010	-0.450	1.060
2020/01/31 01:08:19.3	98.730	-0.020	-0.430	1.080
2020/01/31 01:08:19.4	98.750	-0.030	-0.410	1.100
2020/01/31 01:08:19.5	98.760	-0.040	-0.380	1.130
2020/01/31 01:08:19.6	98.780	-0.050	-0.360	1.150
2020/01/31 01:08:19.7	98.790	-0.050	-0.340	1.180
2020/01/31 01:08:19.8	98.800	-0.060	-0.320	1.210
2020/01/31 01:08:19.9	98.810	-0.070	-0.290	1.240
2020/01/31 01:08:20.0	98.840	-0.080	-0.270	1.270
2020/01/31 01:08:20.1	98.840	-0.080	-0.250	1.300
2020/01/31 01:08:20.2	98.850	-0.090	-0.220	1.340
2020/01/31 01:08:20.3	98.850	-0.090	-0.200	1.370
2020/01/31 01:08:20.4	98.850	-0.100	-0.170	1.410
2020/01/31 01:08:20.5	98.850	-0.100	-0.150	1.450
2020/01/31 01:08:20.6	98.850	-0.100	-0.120	1.490
2020/01/31 01:08:20.7	98.840	-0.110	-0.090	1.520
2020/01/31 01:08:20.8	98.830	-0.110	-0.060	1.560
2020/01/31 01:08:20.9	98.830	-0.110	-0.030	1.600
2020/01/31 01:08:21.0	98.810	-0.120	-0.000	1.640
2020/01/31 01:08:21.1	98.800	-0.120	0.030	1.680
2020/01/31 01:08:21.2	98.790	-0.120	0.060	1.720
2020/01/31 01:08:21.3	98.770	-0.130	0.080	1.750
2020/01/31 01:08:21.4	98.760	-0.130	0.110	1.790
2020/01/31 01:08:21.5	98.740	-0.130	0.140	1.820
2020/01/31 01:08:21.6	98.720	-0.130	0.170	1.860
2020/01/31 01:08:21.7	98.700	-0.130	0.190	1.890
2020/01/31 01:08:21.8	98.680	-0.130	0.220	1.910
2020/01/31 01:08:21.9	98.660	-0.130	0.240	1.940
2020/01/31 01:08:22.0	98.640	-0.130	0.260	1.960
2020/01/31 01:08:22.1	98.620	-0.130	0.280	1.980
2020/01/31 01:08:22.2	98.600	-0.130	0.290	2.000
2020/01/31 01:08:22.3	98.570	-0.120	0.300	2.010
2020/01/31 01:08:22.4	98.550	-0.120	0.310	2.020
2020/01/31 01:08:22.5	98.530	-0.120	0.320	2.020
2020/01/31 01:08:22.6	98.510	-0.110	0.320	2.030
2020/01/31 01:08:22.7	98.490	-0.110	0.310	2.020
2020/01/31 01:08:22.8	98.470	-0.100	0.310	2.020
2020/01/31 01:08:22.9	98.450	-0.090	0.300	2.010
2020/01/31 01:08:23.0	98.430	-0.080	0.290	2.000
2020/01/31 01:08:23.1	98.420	-0.070	0.270	1.980
2020/01/31 01:08:23.2	98.400	-0.060	0.250	1.960
2020/01/31 01:08:23.3	98.380	-0.050	0.230	1.930
2020/01/31 01:08:23.4	98.370	-0.030	0.200	1.900
2020/01/31 01:08:23.5	98.350	-0.020	0.170	1.870
2020/01/31 01:08:23.6	98.340	-0.000	0.130	1.830
2020/01/31 01:08:23.7	98.330	0.010	0.100	1.800
2020/01/31 01:08:23.8	98.320	0.030	0.060	1.750
2020/01/31 01:08:23.9	98.310	0.050	0.020	1.710
2020/01/31 01:08:24.0	98.300	0.070	-0.030	1.660
2020/01/31 01:08:24.1	98.290	0.080	-0.070	1.610
2020/01/31 01:08:24.2	98.290	0.100	-0.120	1.550
2020/01/31 01:08:24.3	98.290	0.120	-0.160	1.500
2020/01/31 01:08:24.4	98.290	0.140	-0.210	1.440
2020/01/31 01:08:24.5	98.290	0.160	-0.250	1.380
2020/01/31 01:08:24.6	98.290	0.180	-0.300	1.320
2020/01/31 01:08:24.7	98.300	0.200	-0.340	1.260
2020/01/31 01:08:24.8	98.310	0.220	-0.380	1.190
2020/01/31 01:08:24.9	98.310	0.240	-0.420	1.130
2020/01/31 01:08:25.0	98.310	0.250	-0.460	1.060
2020/01/31 01:08:25.1	98.320	0.270	-0.490	1.000
2020/01/31 01:08:25.2	98.330	0.290	-0.520	0.930
2020/01/31 01:08:25.3	98.340	0.300	-0.550	0.860
2020/01/31 01:08:25.4	98.350	0.310	-0.580	0.800
2020/01/31 01:08:25.5	98.360	0.330	-0.610	0.730
2020/01/31 01:08:25.6	98.370	0.340	-0.630	0.670
2020/01/31 01:08:25.7	98.390	0.350	-0.650	0.600
2020/01/31 01:08:25.8	98.400	0.360	-0.660	0.540
2020/01/31 01:08:25.9	98.410	0.360	-0.670	0.480
2020/01/31 01:08:26.0	98.420	0.370	-0.680	0.420
2020/01/31 01:08:26.1	98.430	0.370	-0.680	0.360
2020/01/31 01:08:26.2	98.440	0.370	-0.690	0.310
2020/01/31 01:08:26.3	98.440	0.370	-0.690	0.250
2020/01/31 01:08:26.4	98.450	0.370	-0.680	0.200
2020/01/31 01:08:26.5	98.460	0.370	-0.680	0.160
2020/01/31 01:08:26.6	98.460	0.360	-0.670	0.110
2020/01/31 01:08:26.7	98.470	0.360	-0.660	0.070
2020/01/31 01:08:26.8	98.470	0.350	-0.640	0.040
2020/01/31 01:08:26.9	98.480	0.340	-0.630	0.000
2020/01/31 01:08:27.0	98.470	0.330	-0.610	-0.030
2020/01/31 01:08:27.1	98.470	0.320	-0.590	-0.050
2020/01/31 01:08:27.2	98.470	0.310	-0.570	-0.080
2020/01/31 01:08:27.3	98.480	0.290	-0.540	-0.090
2020/01/31 01:08:27.4	98.480	0.280	-0.520	-0.110
2020/01/31 01:08:27.5	98.480	0.260	-0.490	-0.120
2020/01/31 01:08:27.6	98.480	0.240	-0.460	-0.130
2020/01/31 01:08:27.7	98.480	0.220	-0.430	-0.140
2020/01/31 01:08:27.8	98.480	0.200	-0.400	-0.140
2020/01/31 01:08:27.9	98.490	0.180	-0.370	-0.130
2020/01/31 01:08:28.0	98.480	0.160	-0.340	-0.130
2020/01/31 01:08:28.1	98.480	0.140	-0.300	-0.120
2020/01/31 01:08:28.2	98.480	0.110	-0.270	-0.110
2020/01/31 01:08:28.3	98.480	0.090	-0.240	-0.100
2020/01/31 01:08:28.4	98.480	0.070	-0.200	-0.080
2020/01/31 01:08:28.5	98.480	0.040	-0.170	-0.050
2020/01/31 01:08:28.6	98.480	0.020	-0.140	-0.030
2020/01/31 01:08:28.7	98.480	-0.010	-0.110	0.000
2020/01/31 01:08:28.8	98.480	-0.030	-0.070	0.030
2020/01/31 01:08:28.9	98.480	-0.060	-0.040	0.070
2020/01/31 01:08:29.0	98.490	-0.080	-0.010	0.120
2020/01/31 01:08:29.1	98.490	-0.100	0.020	0.160
2020/01/31 01:08:29.2	98.490	-0.130	0.040	0.200
2020/01/31 01:08:29.3	98.490	-0.150	0.070	0.250
2020/01/31 01:08:29.4	98.490	-0.170	0.100	0.300
2020/01/31 01:08:29.5	98.490	-0.190	0.120	0.360
2020/01/31 01:08:29.6	98.480	-0.210	0.140	0.420
2020/01/31 01:08:29.7	98.480	-0.230	0.160	0.480
2020/01/31 01:08:29.8	98.480	-0.250	0.180	0.540
2020/01/31 01:08:29.9	98.480	-0.270	0.190	0.600
2020/01/31 01:08:30.0	98.480	-0.280	0.200	0.670
2020/01/31 01:08:30.1	98.480	-0.300	0.210	0.740
2020/01/31 01:08:30.2	98.480	-0.310	0.220	0.800
2020/01/31 01:08:30.3	98.480	-0.320	0.230	0.870
2020/01/31 01:08:30.4	98.470	-0.330	0.230	0.940
2020/01/31 01:08:30.5	98.470	-0.340	0.240	1.010
2020/01/31 01:08:30.6	98.470	-0.350	0.240	1.080
2020/01/31 01:08:30.7	98.460	-0.350	0.240	1.150
2020/01/31 01:08:30.8	98.460	-0.350	0.230	1.220
2020/01/31 01:08:30.9	98.460	-0.360	0.230	1.280
2020/01/31 01:08:31.0	98.470	-0.360	0.220	1.350
2020/01/31 01:08:31.1	98.470	-0.350	0.210	1.410
2020/01/31 01:08:31.2	98.470	-0.350	0.210	1.470
2020/01/31 01:08:31.3	98.470	-0.350	0.200	1.530
2020/01/31 01:08:31.4	98.470	-0.340	0.190	1.580
2020/01/31 01:08:31.5	98.470	-0.330	0.180	1.630
2020/01/31 01:08:31.6	98.470	-0.320	0.160	1.680
2020/01/31 01:08:31.7	98.470	-0.310	0.150	1.730
2020/01/31 01:08:31.8	98.470	-0.300	0.140	1.770
2020/01/31 01:08:31.9	98.470	-0.290	0.130	1.810
2020/01/31 01:08:32.0	98.480	-0.280	0.120	1.840
2020/01/31 01:08:32.1	98.480	-0.270	0.110	1.880
2020/01/31 01:08:32.2	98.480	-0.260	0.090	1.910
2020/01/31 01:08:32.3	98.490	-0.240	0.080	1.940
2020/01/31 01:08:32.4	98.490	-0.230	0.070	1.960
2020/01/31 01:08:32.5	98.490	-0.220	0.060	1.990
2020/01/31 01:08:32.6	98.500	-0.200	0.050	2.010
2020/01/31 01:08:32.7	98.500	-0.190	0.040	2.020
2020/01/31 01:08:32.8	98.510	-0.180	0.030	2.040
2020/01/31 01:08:32.9	98.510	-0.170	0.030	2.060
2020/01/31 01:08:33.0	98.520	-0.150	0.020	2.070
2020/01/31 01:08:33.1	98.520	-0.140	0.010	2.080
2020/01/31 01:08:33.2	98.520	-0.130	-0.000	2.090
2020/01/31 01:08:33.3	98.530	-0.120	-0.010	2.100
2020/01/31 01:08:33.4	98.530	-0.110	-0.020	2.100
2020/01/31 01:08:33.5	98.530	-0.100	-0.020	2.110
2020/01/31 01:08:33.6	98.530	-0.090	-0.030	2.110
2020/01/31 01:08:33.7	98.540	-0.090	-0.040	2.110
2020/01/31 01:08:33.8	98.540	-0.080	-0.040	2.110
2020/01/31 01:08:33.9	98.530	-0.080	-0.050	2.110
2020/01/31 01:08:34.0	98.540	-0.070	-0.050	2.110
2020/01/31 01:08:34.1	98.540	-0.070	-0.060	2.100
2020/01/31 01:08:34.2	98.540	-0.070	-0.060	2.100
2020/01/31 01:08:34.3	98.530	-0.070	-0.060	2.090
2020/01/31 01:08:34.4	98.530	-0.070	-0.070	2.080
2020/01/31 01:08:34.5	98.530	-0.070	-0.070	2.070
2020/01/31 01:08:34.6	98.520	-0.070	-0.070	2.060
2020/01/31 01:08:34.7	98.520	-0.070	-0.080	2.040
2020/01/31 01:08:34.8	98.520	-0.080	-0.080	2.030
2020/01/31 01:08:34.9	98.510	-0.080	-0.080	2.000
2020/01/31 01:08:35.0	98.510	-0.080	-0.080	1.980
2020/01/31 01:08:35.1	98.500	-0.090	-0.090	1.950
2020/01/31 01:08:35.2	98.500	-0.090	-0.090	1.920
2020/01/31 01:08:35.3	98.500	-0.090	-0.090	1.890
2020/01/31 01:08:35.4	98.500	-0.100	-0.100	1.850
2020/01/31 01:08:35.5	98.500	-0.100	-0.100	1.810
2020/01/31 01:08:35.6	98.500	-0.100	-0.110	1.760
2020/01/31 01:08:35.7	98.510	-0.100	-0.110	1.710
2020/01/31 01:08:35.8	98.510	-0.100	-0.120	1.660
2020/01/31 01:08:35.9	98.520	-0.100	-0.130	1.610
2020/01/31 01:08:36.0	98.510	-0.100	-0.140	1.550
2020/01/31 01:08:36.1	98.520	-0.090	-0.150	1.490
2020/01/31 01:08:36.2	98.530	-0.090	-0.170	1.420
2020/01/31 01:08:36.3	98.540	-0.080	-0.180	1.360
2020/01/31 01:08:36.4	98.550	-0.070	-0.200	1.290
2020/01/31 01:08:36.5	98.560	-0.060	-0.220	1.230
2020/01/31 01:08:36.6	98.570	-0.040	-0.240	1.160
2020/01/31 01:08:36.7	98.580	-0.030	-0.270	1.090
2020/01/31 01:08:36.8	98.590	-0.010	-0.290	1.020
2020/01/31 01:08:36.9	98.610	0.010	-0.320	0.950
2020/01/31 01:08:37.0	98.610	0.030	-0.350	0.880
2020/01/31 01:08:37.1	98.620	0.060	-0.380	0.820
2020/01/31 01:08:37.2	98.630	0.080	-0.420	0.750
2020/01/31 01:08:37.3	98.640	0.110	-0.450	0.690
2020/01/31 01:08:37.4	98.650	0.140	-0.490	0.620
2020/01/31 01:08:37.5	98.660	0.170	-0.530	0.560
2020/01/31 01:08:37.6	98.660	0.200	-0.560	0.510
2020/01/31 01:08:37.7	98.670	0.230	-0.600	0.450
2020/01/31 01:08:37.8	98.670	0.270	-0.640	0.400
2020/01/31 01:08:37.9	98.670	0.300	-0.680	0.350
2020/01/31 01:08:38.0	98.660	0.330	-0.720	0.310
2020/01/31 01:08:38.1	98.660	0.360	-0.750	0.270
2020/01/31 01:08:38.2	98.660	0.400	-0.780	0.230
2020/01/31 01:08:38.3	98.660	0.430	-0.810	0.200
2020/01/31 01:08:38.4	98.650	0.450	-0.840	0.170
2020/01/31 01:08:38.5	98.640	0.480	-0.870	0.150
2020/01/31 01:08:38.6	98.630	0.510	-0.880	0.130
2020/01/31 01:08:38.7	98.630	0.530	-0.900	0.110
2020/01/31 01:08:38.8	98.610	0.550	-0.910	0.100
2020/01/31 01:08:38.9	98.600	0.560	-0.920	0.090
2020/01/31 01:08:39.0	98.590	0.580	-0.910	0.090
2020/01/31 01:08:39.1	98.580	0.590	-0.910	0.100
2020/01/31 01:08:39.2	98.560	0.590	-0.900	0.100
2020/01/31 01:08:39.3	98.550	0.590	-0.880	0.110
2020/01/31 01:08:39.4	98.530	0.590	-0.860	0.130
2020/01/31 01:08:39.5	98.510	0.580	-0.830	0.140
2020/01/31 01:08:39.6	98.490	0.570	-0.790	0.160
2020/01/31 01:08:39.7	98.470	0.560	-0.750	0.190
2020/01/31 01:08:39.8	98.460	0.540	-0.700	0.210
2020/01/31 01:08:39.9	98.440	0.520	-0.650	0.240
2020/01/31 01:08:40.0	98.410	0.490	-0.590	0.270
2020/01/31 01:08:40.1	98.390	0.470	-0.520	0.300
2020/01/31 01:08:40.2	98.370	0.430	-0.460	0.340
2020/01/31 01:08:40.3	98.350	0.400	-0.380	0.370
2020/01/31 01:08:40.4	98.330	0.360	-0.310	0.400
2020/01/31 01:08:40.5	98.320	0.320	-0.230	0.440
2020/01/31 01:08:40.6	98.300	0.280	-0.150	0.470
2020/01/31 01:08:40.7	98.290	0.230	-0.070	0.500
2020/01/31 01:08:40.8	98.270	0.190	0.010	0.530
2020/01/31 01:08:40.9	98.260	0.140	0.100	0.560
2020/01/31 01:08:41.0	98.240	0.100	0.180	0.590
2020/01/31 01:08:41.1	98.230	0.050	0.260	0.620
2020/01/31 01:08:41.2	98.220	0.000	0.350	0.640
2020/01/31 01:08:41.3	98.220	-0.040	0.430	0.670
2020/01/31 01:08:41.4	98.210	-0.090	0.500	0.690
2020/01/31 01:08:41.5	98.210	-0.130	0.580	0.710
2020/01/31 01:08:41.6	98.200	-0.170	0.640	0.730
2020/01/31 01:08:41.7	98.200	-0.210	0.710	0.740
2020/01/31 01:08:41.8	98.200	-0.250	0.770	0.750
2020/01/31 01:08:41.9	98.210	-0.290	0.820	0.770
2020/01/31 01:08:42.0	98.200	-0.320	0.870	0.780
2020/01/31 01:08:42.1	98.210	-0.350	0.910	0.790
2020/01/31 01:08:42.2	98.220	-0.380	0.940	0.790
2020/01/31 01:08:42.3	98.230	-0.400	0.960	0.800
2020/01/31 01:08:42.4	98.240	-0.420	0.980	0.810
2020/01/31 01:08:42.5	98.250	-0.430	0.980	0.810
2020/01/31 01:08:42.6	98.260	-0.440	0.980	0.820
2020/01/31 01:08:42.7	98.280	-0.450	0.970	0.820
2020/01/31 01:08:42.8	98.290	-0.450	0.960	0.820
2020/01/31 01:08:42.9	98.310	-0.450	0.930	0.830
2020/01/31 01:08:43.0	98.330	-0.450	0.890	0.840
2020/01/31 01:08:43.1	98.340	-0.440	0.850	0.840
2020/01/31 01:08:43.2	98.360	-0.430	0.800	0.850
2020/01/31 01:08:43.3	98.380	-0.410	0.750	0.860
2020/01/31 01:08:43.4	98.400	-0.390	0.690	0.870
2020/01/31 01:08:43.5	98.420	-0.370	0.620	0.880
2020/01/31 01:08:43.6	98.430	-0.350	0.540	0.890
2020/01/31 01:08:43.7	98.450	-0.320	0.460	0.910
2020/01/31 01:08:43.8	98.470	-0.300	0.380	0.920
2020/01/31 01:08:43.9	98.490	-0.270	0.290	0.940
2020/01/31 01:08:44.0	98.520	-0.230	0.200	0.960
2020/01/31 01:08:44.1	98.540	-0.200	0.100	0.970
2020/01/31 01:08:44.2	98.550	-0.170	0.010	0.990
2020/01/31 01:08:44.3	98.570	-0.130	-0.090	1.010
2020/01/31 01:08:44.4	98.580	-0.100	-0.190	1.040
2020/01/31 01:08:44.5	98.600	-0.060	-0.280	1.060
2020/01/31 01:08:44.6	98.610	-0.030	-0.380	1.080
2020/01/31 01:08:44.7	98.630	0.010	-0.480	1.110
2020/01/31 01:08:44.8	98.640	0.040	-0.570	1.130
2020/01/31 01:08:44.9	98.650	0.070	-0.660	1.160
2020/01/31 01:08:45.0	98.650	0.110	-0.750	1.180
2020/01/31 01:08:45.1	98.660	0.140	-0.830	1.210
2020/01/31 01:08:45.2	98.670	0.170	-0.910	1.240
2020/01/31 01:08:45.3	98.670	0.190	-0.980	1.270
2020/01/31 01:08:45.4	98.680	0.220	-1.050	1.300
2020/01/31 01:08:45.5	98.680	0.240	-1.110	1.330
2020/01/31 01:08:45.6	98.680	0.270	-1.170	1.370
2020/01/31 01:08:45.7	98.680	0.290	-1.210	1.400
2020/01/31 01:08:45.8	98.680	0.300	-1.250	1.430
2020/01/31 01:08:45.9	98.670	0.320	-1.290	1.470
2020/01/31 01:08:46.0	98.680	0.330	-1.310	1.500
2020/01/31 01:08:46.1	98.680	0.340	-1.330	1.540
2020/01/31 01:08:46.2	98.670	0.350	-1.330	1.570
2020/01/31 01:08:46.3	98.660	0.350	-1.330	1.610
2020/01/31 01:08:46.4	98.660	0.350	-1.320	1.650
2020/01/31 01:08:46.5	98.650	0.350	-1.300	1.680
2020/01/31 01:08:46.6	98.640	0.350	-1.270	1.720
2020/01/31 01:08:46.7	98.630	0.340	-1.230	1.760
2020/01/31 01:08:46.8	98.620	0.330	-1.190	1.800
2020/01/31 01:08:46.9	98.610	0.320	-1.130	1.830
2020/01/31 01:08:47.0	98.600	0.300	-1.070	1.870
2020/01/31 01:08:47.1	98.590	0.280	-1.000	1.910
2020/01/31 01:08:47.2	98.580	0.260	-0.920	1.940
2020/01/31 01:08:47.3	98.570	0.240	-0.840	1.980
2020/01/31 01:08:47.4	98.560	0.210	-0.750	2.010
2020/01/31 01:08:47.5	98.560	0.180	-0.650	2.040
2020/01/31 01:08:47.6	98.550	0.150	-0.550	2.070
2020/01/31 01:08:47.7	98.540	0.120	-0.450	2.100
2020/01/31 01:08:47.8	98.540	0.090	-0.340	2.130
2020/01/31 01:08:47.9	98.530	0.050	-0.230	2.150
2020/01/31 01:08:48.0	98.520	0.020	-0.120	2.170
2020/01/31 01:08:48.1	98.510	-0.020	-0.010	2.190
2020/01/31 01:08:48.2	98.510	-0.060	0.090	2.210
2020/01/31 01:08:48.3	98.510	-0.090	0.200	2.220
2020/01/31 01:08:48.4	98.510	-0.130	0.310	2.230
2020/01/31 01:08:48.5	98.510	-0.170	0.410	2.240
2020/01/31 01:08:48.6	98.510	-0.200	0.500	2.250
2020/01/31 01:08:48.7	98.510	-0.240	0.590	2.250
2020/01/31 01:08:48.8	98.510	-0.270	0.680	2.240
2020/01/31 01:08:48.9	98.510	-0.300	0.760	2.240
2020/01/31 01:08:49.0	98.520	-0.330	0.830	2.230
2020/01/31 01:08:49.1	98.520	-0.360	0.900	2.210
2020/01/31 01:08:49.2	98.520	-0.390	0.950	2.190
2020/01/31 01:08:49.3	98.530	-0.420	1.000	2.170
2020/01/31 01:08:49.4	98.530	-0.440	1.040	2.140
2020/01/31 01:08:49.5	98.540	-0.460	1.070	2.100
2020/01/31 01:08:49.6	98.540	-0.470	1.090	2.070
2020/01/31 01:08:49.7	98.540	-0.490	1.100	2.020
2020/01/31 01:08:49.8	98.550	-0.500	1.100	1.980
2020/01/31 01:08:49.9	98.550	-0.510	1.090	1.930
2020/01/31 01:08:50.0	98.560	-0.510	1.080	1.880
2020/01/31 01:08:50.1	98.570	-0.510	1.050	1.820
2020/01/31 01:08:50.2	98.570	-0.510	1.010	1.770
2020/01/31 01:08:50.3	98.580	-0.510	0.970	1.710
2020/01/31 01:08:50.4	98.580	-0.500	0.920	1.640
2020/01/31 01:08:50.5	98.590	-0.490	0.860	1.580
2020/01/31 01:08:50.6	98.590	-0.480	0.790	1.520
2020/01/31 01:08:50.7	98.590	-0.460	0.720	1.450
2020/01/31 01:08:50.8	98.600	-0.440	0.640	1.380
2020/01/31 01:08:50.9	98.600	-0.420	0.550	1.310
2020/01/31 01:08:51.0	98.600	-0.400	0.460	1.250
2020/01/31 01:08:51.1	98.610	-0.370	0.370	1.180
2020/01/31 01:08:51.2	98.610	-0.350	0.270	1.110
2020/01/31 01:08:51.3	98.610	-0.320	0.180	1.040
2020/01/31 01:08:51.4	98.610	-0.290	0.080	0.980
2020/01/31 01:08:51.5	98.610	-0.260	-0.020	0.910
2020/01/31 01:08:51.6	98.610	-0.220	-0.120	0.850
2020/01/31 01:08:51.7	98.610	-0.190	-0.220	0.780
2020/01/31 01:08:51.8	98.610	-0.160	-0.310	0.720
2020/01/31 01:08:51.9	98.610	-0.120	-0.410	0.660
2020/01/31 01:08:52.0	98.610	-0.090	-0.500	0.600
2020/01/31 01:08:52.1	98.610	-0.060	-0.590	0.540
2020/01/31 01:08:52.2	98.610	-0.020	-0.670	0.490
2020/01/31 01:08:52.3	98.600	0.010	-0.750	0.430
2020/01/31 01:08:52.4	98.600	0.040	-0.830	0.380
2020/01/31 01:08:52.5	98.600	0.070	-0.890	0.330
2020/01/31 01:08:52.6	98.600	0.090	-0.960	0.290
2020/01/31 01:08:52.7	98.600	0.120	-1.010	0.250
2020/01/31 01:08:52.8	98.600	0.140	-1.060	0.210
2020/01/31 01:08:52.9	98.600	0.170	-1.100	0.170
2020/01/31 01:08:53.0	98.570	0.190	-1.140	0.130
2020/01/31 01:08:53.1	98.570	0.200	-1.160	0.100
2020/01/31 01:08:53.2	98.570	0.220	-1.180	0.070
2020/01/31 01:08:53.3	98.570	0.230	-1.190	0.040
2020/01/31 01:08:53.4	98.570	0.240	-1.200	0.010
2020/01/31 01:08:53.5	98.570	0.250	-1.200	-0.010
2020/01/31 01:08:53.6	98.570	0.260	-1.190	-0.030
2020/01/31 01:08:53.7	98.580	0.260	-1.170	-0.050
2020/01/31 01:08:53.8	98.580	0.260	-1.150	-0.070
2020/01/31 01:08:53.9	98.580	0.260	-1.120	-0.080
2020/01/31 01:08:54.0	98.580	0.260	-1.080	-0.090
2020/01/31 01:08:54.1	98.580	0.260	-1.040	-0.100
2020/01/31 01:08:54.2	98.590	0.250	-0.990	-0.110
2020/01/31 01:08:54.3	98.590	0.240	-0.940	-0.110
2020/01/31 01:08:54.4	98.600	0.230	-0.890	-0.110
2020/01/31 01:08:54.5	98.600	0.220	-0.830	-0.110
2020/01/31 01:08:54.6	98.610	0.210	-0.770	-0.100
2020/01/31 01:08:54.7	98.610	0.200	-0.710	-0.090
2020/01/31 01:08:54.8	98.620	0.180	-0.640	-0.080
2020/01/31 01:08:54.9	98.620	0.170	-0.570	-0.070
2020/01/31 01:08:55.0	98.630	0.160	-0.500	-0.050
2020/01/31 01:08:55.1	98.630	0.140	-0.430	-0.030
2020/01/31 01:08:55.2	98.640	0.130	-0.360	-0.010
2020/01/31 01:08:55.3	98.640	0.110	-0.290	0.010
2020/01/31 01:08:55.4	98.650	0.100	-0.230	0.040
2020/01/31 01:08:55.5	98.660	0.090	-0.160	0.060
2020/01/31 01:08:55.6	98.660	0.080	-0.100	0.090
2020/01/31 01:08:55.7	98.670	0.070	-0.040	0.130
2020/01/31 01:08:55.8	98.670	0.060	0.020	0.160
2020/01/31 01:08:55.9	98.680	0.050	0.080	0.190
2020/01/31 01:08:56.0	98.680	0.040	0.130	0.230
2020/01/31 01:08:56.1	98.690	0.040	0.180	0.260
2020/01/31 01:08:56.2	98.690	0.040	0.220	0.300
2020/01/31 01:08:56.3	98.700	0.030	0.260	0.340
2020/01/31 01:08:56.4	98.700	0.030	0.300	0.380
2020/01/31 01:08:56.5	98.710	0.040	0.340	0.420
2020/01/31 01:08:56.6	98.710	0.040	0.360	0.460
2020/01/31 01:08:56.7	98.710	0.050	0.390	0.500
2020/01/31 01:08:56.8	98.720	0.050	0.410	0.550
2020/01/31 01:08:56.9	98.720	0.060	0.430	0.590
2020/01/31 01:08:57.0	98.720	0.070	0.440	0.640
2020/01/31 01:08:57.1	98.720	0.080	0.450	0.680
2020/01/31 01:08:57.2	98.720	0.090	0.460	0.730
2020/01/31 01:08:57.3	98.720	0.110	0.460	0.780
2020/01/31 01:08:57.4	98.720	0.120	0.450	0.820
2020/01/31 01:08:57.5	98.720	0.140	0.440	0.870
2020/01/31 01:08:57.6	98.720	0.150	0.430	0.910
2020/01/31 01:08:57.7	98.720	0.170	0.420	0.960
2020/01/31 01:08:57.8	98.720	0.180	0.400	1.000
2020/01/31 01:08:57.9	98.730	0.200	0.380	1.040
2020/01/31 01:08:58.0	98.740	0.210	0.350	1.090
2020/01/31 01:08:58.1	98.740	0.230	0.320	1.130
2020/01/31 01:08:58.2	98.740	0.240	0.290	1.170
2020/01/31 01:08:58.3	98.740	0.260	0.260	1.200
2020/01/31 01:08:58.4	98.750	0.270	0.230	1.240
2020/01/31 01:08:58.5	98.750	0.280	0.190	1.270
2020/01/31 01:08:58.6	98.750	0.290	0.150	1.310
2020/01/31 01:08:58.7	98.760	0.310	0.110	1.340
2020/01/31 01:08:58.8	98.760	0.320	0.080	1.370
2020/01/31 01:08:58.9	98.770	0.320	0.040	1.400
2020/01/31 01:08:59.0	98.780	0.330	-0.000	1.430
2020/01/31 01:08:59.1	98.780	0.340	-0.040	1.450
2020/01/31 01:08:59.2	98.790	0.340	-0.080	1.480
2020/01/31 01:08:59.3	98.800	0.340	-0.120	1.500
2020/01/31 01:08:59.4	98.810	0.340	-0.160	1.530
2020/01/31 01:08:59.5	98.810	0.340	-0.190	1.550
2020/01/31 01:08:59.6	98.820	0.340	-0.230	1.570
2020/01/31 01:08:59.7	98.830	0.340	-0.260	1.590
2020/01/31 01:08:59.8	98.840	0.330	-0.290	1.610
2020/01/31 01:08:59.9	98.850	0.320	-0.310	1.630
2020/01/31 01:09:00.0	98.850	0.320	-0.340	1.660
2020/01/31 01:09:00.1	98.860	0.310	-0.360	1.680
2020/01/31 01:09:00.2	98.870	0.290	-0.380	1.700
2020/01/31 01:09:00.3	98.870	0.280	-0.390	1.730
2020/01/31 01:09:00.4	98.880	0.270	-0.400	1.760
2020/01/31 01:09:00.5	98.890	0.250	-0.410	1.780
2020/01/31 01:09:00.6	98.890	0.230	-0.410	1.810
2020/01/31 01:09:00.7	98.900	0.210	-0.410	1.840
2020/01/31 01:09:00.8	98.900	0.190	-0.410	1.880
2020/01/31 01:09:00.9	98.900	0.170	-0.400	1.910
2020/01/31 01:09:01.0	98.900	0.150	-0.390	1.940
2020/01/31 01:09:01.1	98.900	0.130	-0.380	1.980
2020/01/31 01:09:01.2	98.900	0.110	-0.370	2.010
2020/01/31 01:09:01.3	98.900	0.080	-0.360	2.050
2020/01/31 01:09:01.4	98.890	0.060	-0.340	2.090
2020/01/31 01:09:01.5	98.890	0.030	-0.320	2.120
2020/01/31 01:09:01.6	98.890	0.010	-0.310	2.160
2020/01/31 01:09:01.7	98.890	-0.020	-0.290	2.190
2020/01/31 01:09:01.8	98.890	-0.040	-0.270	2.220
2020/01/31 01:09:01.9	98.880	-0.070	-0.250	2.250
2020/01/31 01:09:02.0	98.900	-0.090	-0.230	2.280
2020/01/31 01:09:02.1	98.900	-0.120	-0.210	2.300
2020/01/31 01:09:02.2	98.900	-0.140	-0.190	2.320
2020/01/31 01:09:02.3	98.900	-0.170	-0.170	2.340
2020/01/31 01:09:02.4	98.900	-0.200	-0.150	2.350
2020/01/31 01:09:02.5	98.900	-0.220	-0.130	2.350
2020/01/31 01:09:02.6	98.900	-0.250	-0.120	2.360
2020/01/31 01:09:02.7	98.910	-0.270	-0.100	2.360
2020/01/31 01:09:02.8	98.910	-0.300	-0.090	2.350
2020/01/31 01:09:02.9	98.910	-0.320	-0.070	2.340
2020/01/31 01:09:03.0	98.920	-0.340	-0.070	2.330
2020/01/31 01:09:03.1	98.920	-0.360	-0.050	2.320
2020/01/31 01:09:03.2	98.930	-0.390	-0.040	2.300
2020/01/31 01:09:03.3	98.930	-0.410	-0.030	2.280
2020/01/31 01:09:03.4	98.940	-0.430	-0.030	2.250
2020/01/31 01:09:03.5	98.940	-0.450	-0.020	2.230
2020/01/31 01:09:03.6	98.940	-0.460	-0.010	2.200
2020/01/31 01:09:03.7	98.950	-0.480	-0.010	2.170
2020/01/31 01:09:03.8	98.950	-0.490	-0.000	2.140
2020/01/31 01:09:03.9	98.950	-0.510	0.000	2.110
2020/01/31 01:09:04.0	98.950	-0.520	0.010	2.080
2020/01/31 01:09:04.1	98.950	-0.530	0.010	2.050
2020/01/31 01:09:04.2	98.950	-0.540	0.010	2.020
2020/01/31 01:09:04.3	98.950	-0.550	0.010	1.990
2020/01/31 01:09:04.4	98.940	-0.550	0.010	1.960
2020/01/31 01:09:04.5	98.940	-0.560	0.010	1.930
2020/01/31 01:09:04.6	98.930	-0.560	0.010	1.900
2020/01/31 01:09:04.7	98.930	-0.560	0.010	1.870
2020/01/31 01:09:04.8	98.920	-0.560	0.000	1.840
2020/01/31 01:09:04.9	98.920	-0.550	-0.000	1.810
2020/01/31 01:09:05.0	98.910	-0.550	-0.010	1.780
2020/01/31 01:09:05.1	98.910	-0.540	-0.020	1.750
2020/01/31 01:09:05.2	98.900	-0.530	-0.030	1.720
2020/01/31 01:09:05.3	98.900	-0.520	-0.040	1.680
2020/01/31 01:09:05.4	98.890	-0.510	-0.050	1.650
2020/01/31 01:09:05.5	98.890	-0.490	-0.060	1.610
2020/01/31 01:09:05.6	98.890	-0.480	-0.080	1.570
2020/01/31 01:09:05.7	98.890	-0.460	-0.100	1.530
2020/01/31 01:09:05.8	98.900	-0.440	-0.110	1.490
2020/01/31 01:09:05.9	98.900	-0.420	-0.130	1.440
2020/01/31 01:09:06.0	98.910	-0.400	-0.150	1.390
2020/01/31 01:09:06.1	98.920	-0.370	-0.170	1.340
2020/01/31 01:09:06.2	98.930	-0.350	-0.190	1.280
2020/01/31 01:09:06.3	98.940	-0.320	-0.220	1.230
2020/01/31 01:09:06.4	98.960	-0.300	-0.240	1.170
2020/01/31 01:09:06.5	98.970	-0.270	-0.260	1.120
2020/01/31 01:09:06.6	98.990	-0.240	-0.280	1.060
2020/01/31 01:09:06.7	99.000	-0.210	-0.310	1.000
2020/01/31 01:09:06.8	99.020	-0.190	-0.330	0.940
2020/01/31 01:09:06.9	99.040	-0.160	-0.350	0.880
2020/01/31 01:09:07.0	99.050	-0.130	-0.370	0.820
2020/01/31 01:09:07.1	99.060	-0.100	-0.390	0.760
2020/01/31 01:09:07.2	99.080	-0.070	-0.410	0.700
2020/01/31 01:09:07.3	99.100	-0.030	-0.430	0.640
2020/01/31 01:09:07.4	99.120	-0.000	-0.440	0.580
2020/01/31 01:09:07.5	99.140	0.030	-0.460	0.520
2020/01/31 01:09:07.6	99.150	0.060	-0.470	0.460
2020/01/31 01:09:07.7	99.170	0.080	-0.480	0.400
2020/01/31 01:09:07.8	99.190	0.110	-0.480	0.350
2020/01/31 01:09:07.9	99.200	0.140	-0.490	0.290
2020/01/31 01:09:08.0	99.220	0.170	-0.490	0.240
2020/01/31 01:09:08.1	99.240	0.190	-0.490	0.180
2020/01/31 01:09:08.2	99.250	0.220	-0.480	0.130
2020/01/31 01:09:08.3	99.260	0.240	-0.470	0.090
2020/01/31 01:09:08.4	99.270	0.270	-0.460	0.040
2020/01/31 01:09:08.5	99.280	0.290	-0.450	-0.010
2020/01/31 01:09:08.6	99.290	0.310	-0.430	-0.050
2020/01/31 01:09:08.7	99.300	0.320	-0.410	-0.090
2020/01/31 01:09:08.8	99.310	0.340	-0.390	-0.130
2020/01/31 01:09:08.9	99.310	0.360	-0.360	-0.160
2020/01/31 01:09:09.0	99.310	0.370	-0.340	-0.190
2020/01/31 01:09:09.1	99.310	0.380	-0.300	-0.220
2020/01/31 01:09:09.2	99.310	0.390	-0.270	-0.250
2020/01/31 01:09:09.3	99.310	0.400	-0.240	-0.270
2020/01/31 01:09:09.4	99.310	0.400	-0.200	-0.290
2020/01/31 01:09:09.5	99.300	0.410	-0.170	-0.310
2020/01/31 01:09:09.6	99.290	0.410	-0.130	-0.320
2020/01/31 01:09:09.7	99.280	0.410	-0.090	-0.330
2020/01/31 01:09:09.8	99.270	0.410	-0.050	-0.340
2020/01/31 01:09:09.9	99.260	0.410	-0.020	-0.340
2020/01/31 01:09:10.0	99.250	0.410	0.030	-0.340
2020/01/31 01:09:10.1	99.230	0.410	0.060	-0.330
2020/01/31 01:09:10.2	99.210	0.400	0.090	-0.320
2020/01/31 01:09:10.3	99.190	0.400	0.130	-0.310
2020/01/31 01:09:10.4	99.170	0.390	0.160	-0.300
2020/01/31 01:09:10.5	99.150	0.380	0.180	-0.280
2020/01/31 01:09:10.6	99.130	0.380	0.210	-0.250
2020/01/31 01:09:10.7	99.100	0.370	0.230	-0.230
2020/01/31 01:09:10.8	99.080	0.360	0.250	-0.200
2020/01/31 01:09:10.9	99.050	0.350	0.260	-0.170
2020/01/31 01:09:11.0	99.030	0.340	0.270	-0.140
2020/01/31 01:09:11.1	99.000	0.330	0.280	-0.100
2020/01/31 01:09:11.2	98.980	0.320	0.290	-0.070
2020/01/31 01:09:11.3	98.950	0.320	0.290	-0.030
2020/01/31 01:09:11.4	98.930	0.310	0.290	0.000
2020/01/31 01:09:11.5	98.910	0.300	0.280	0.040
2020/01/31 01:09:11.6	98.890	0.290	0.270	0.080
2020/01/31 01:09:11.7	98.870	0.280	0.260	0.120
2020/01/31 01:09:11.8	98.860	0.270	0.240	0.160
2020/01/31 01:09:11.9	98.840	0.260	0.230	0.200
2020/01/31 01:09:12.0	98.830	0.250	0.200	0.240
2020/01/31 01:09:12.1	98.820	0.240	0.180	0.280
2020/01/31 01:09:12.2	98.810	0.230	0.150	0.320
2020/01/31 01:09:12.3	98.810	0.230	0.130	0.360
2020/01/31 01:09:12.4	98.810	0.220	0.100	0.400
2020/01/31 01:09:12.5	98.810	0.210	0.070	0.440
2020/01/31 01:09:12.6	98.820	0.200	0.030	0.480
2020/01/31 01:09:12.7	98.830	0.190	-0.000	0.520
2020/01/31 01:09:12.8	98.840	0.180	-0.040	0.560
2020/01/31 01:09:12.9	98.850	0.180	-0.070	0.600
2020/01/31 01:09:13.0	98.860	0.170	-0.110	0.650
2020/01/31 01:09:13.1	98.880	0.160	-0.140	0.690
2020/01/31 01:09:13.2	98.900	0.150	-0.180	0.740
2020/01/31 01:09:13.3	98.920	0.150	-0.220	0.780
2020/01/31 01:09:13.4	98.940	0.140	-0.260	0.830
2020/01/31 01:09:13.5	98.960	0.130	-0.290	0.880
2020/01/31 01:09:13.6	98.980	0.130	-0.330	0.930
2020/01/31 01:09:13.7	99.010	0.120	-0.360	0.980
2020/01/31 01:09:13.8	99.030	0.110	-0.400	1.030
2020/01/31 01:09:13.9	99.060	0.110	-0.430	1.080
2020/01/31 01:09:14.0	99.080	0.100	-0.470	1.140
2020/01/31 01:09:14.1	99.110	0.100	-0.500	1.190
2020/01/31 01:09:14.2	99.130	0.090	-0.530	1.250
2020/01/31 01:09:14.3	99.150	0.090	-0.550	1.300
2020/01/31 01:09:14.4	99.180	0.090	-0.580	1.360
2020/01/31 01:09:14.5	99.200	0.080	-0.600	1.420
2020/01/31 01:09:14.6	99.220	0.080	-0.620	1.480
2020/01/31 01:09:14.7	99.240	0.080	-0.640	1.540
2020/01/31 01:09:14.8	99.260	0.070	-0.650	1.600
2020/01/31 01:09:14.9	99.280	0.070	-0.670	1.660
2020/01/31 01:09:15.0	99.300	0.060	-0.680	1.730
2020/01/31 01:09:15.1	99.320	0.060	-0.680	1.790
2020/01/31 01:09:15.2	99.330	0.050	-0.680	1.860
2020/01/31 01:09:15.3	99.350	0.050	-0.680	1.920
2020/01/31 01:09:15.4	99.360	0.040	-0.670	1.990
2020/01/31 01:09:15.5	99.370	0.040	-0.660	2.060
2020/01/31 01:09:15.6	99.380	0.030	-0.640	2.120
2020/01/31 01:09:15.7	99.390	0.020	-0.620	2.190
2020/01/31 01:09:15.8	99.400	0.010	-0.590	2.260
2020/01/31 01:09:15.9	99.410	0.000	-0.560	2.320
2020/01/31 01:09:16.0	99.410	-0.010	-0.520	2.390
2020/01/31 01:09:16.1	99.410	-0.020	-0.480	2.450
2020/01/31 01:09:16.2	99.410	-0.030	-0.440	2.520
2020/01/31 01:09:16.3	99.410	-0.050	-0.400	2.580
2020/01/31 01:09:16.4	99.410	-0.060	-0.350	2.640
2020/01/31 01:09:16.5	99.410	-0.080	-0.290	2.700
2020/01/31 01:09:16.6	99.400	-0.100	-0.240	2.750
2020/01/31 01:09:16.7	99.400	-0.120	-0.180	2.800
2020/01/31 01:09:16.8	99.390	-0.130	-0.130	2.850
2020/01/31 01:09:16.9	99.390	-0.150	-0.070	2.900
2020/01/31 01:09:17.0	99.380	-0.170	-0.010	2.950
2020/01/31 01:09:17.1	99.380	-0.200	0.050	2.990
2020/01/31 01:09:17.2	99.370	-0.220	0.110	3.020
2020/01/31 01:09:17.3	99.360	-0.240	0.160	3.050
2020/01/31 01:09:17.4	99.360	-0.260	0.220	3.080
2020/01/31 01:09:17.5	99.350	-0.280	0.270	3.100
2020/01/31 01:09:17.6	99.350	-0.300	0.320	3.120
2020/01/31 01:09:17.7	99.340	-0.320	0.370	3.130
2020/01/31 01:09:17.8	99.330	-0.340	0.420	3.140
2020/01/31 01:09:17.9	99.330	-0.360	0.460	3.140
2020/01/31 01:09:18.0	99.320	-0.380	0.490	3.130
2020/01/31 01:09:18.1	99.320	-0.400	0.520	3.130
2020/01/31 01:09:18.2	99.310	-0.420	0.550	3.110
2020/01/31 01:09:18.3	99.310	-0.430	0.570	3.090
2020/01/31 01:09:18.4	99.310	-0.450	0.580	3.070
2020/01/31 01:09:18.5	99.300	-0.460	0.590	3.040
2020/01/31 01:09:18.6	99.300	-0.470	0.600	3.000
2020/01/31 01:09:18.7	99.300	-0.480	0.600	2.960
2020/01/31 01:09:18.8	99.290	-0.480	0.590	2.920
2020/01/31 01:09:18.9	99.290	-0.490	0.580	2.870
2020/01/31 01:09:19.0	99.280	-0.490	0.560	2.810
2020/01/31 01:09:19.1	99.270	-0.490	0.540	2.760
2020/01/31 01:09:19.2	99.270	-0.480	0.510	2.690
2020/01/31 01:09:19.3	99.270	-0.480	0.470	2.630
2020/01/31 01:09:19.4	99.260	-0.470	0.430	2.560
2020/01/31 01:09:19.5	99.260	-0.460	0.390	2.490
2020/01/31 01:09:19.6	99.250	-0.450	0.340	2.410
2020/01/31 01:09:19.7	99.240	-0.430	0.290	2.330
2020/01/31 01:09:19.8	99.240	-0.420	0.240	2.250
2020/01/31 01:09:19.9	99.230	-0.400	0.180	2.170
2020/01/31 01:09:20.0	99.230	-0.370	0.120	2.080
2020/01/31 01:09:20.1	99.220	-0.350	0.060	1.990
2020/01/31 01:09:20.2	99.210	-0.320	0.000	1.900
2020/01/31 01:09:20.3	99.200	-0.300	-0.060	1.810
2020/01/31 01:09:20.4	99.190	-0.270	-0.120	1.720
2020/01/31 01:09:20.5	99.180	-0.240	-0.180	1.620
2020/01/31 01:09:20.6	99.160	-0.210	-0.240	1.530
2020/01/31 01:09:20.7	99.150	-0.170	-0.300	1.430
2020/01/31 01:09:20.8	99.140	-0.140	-0.360	1.340
2020/01/31 01:09:20.9	99.130	-0.110	-0.410	1.240
2020/01/31 01:09:21.0	99.140	-0.080	-0.460	1.140
2020/01/31 01:09:21.1	99.130	-0.040	-0.510	1.040
2020/01/31 01:09:21.2	99.120	-0.010	-0.560	0.940
2020/01/31 01:09:21.3	99.120	0.020	-0.600	0.840
2020/01/31 01:09:21.4	99.120	0.050	-0.640	0.730
2020/01/31 01:09:21.5	99.120	0.080	-0.680	0.630
2020/01/31 01:09:21.6	99.120	0.110	-0.710	0.530
2020/01/31 01:09:21.7	99.120	0.140	-0.740	0.420
2020/01/31 01:09:21.8	99.130	0.160	-0.760	0.320
2020/01/31 01:09:21.9	99.130	0.190	-0.780	0.220
2020/01/31 01:09:22.0	99.150	0.210	-0.790	0.110
2020/01/31 01:09:22.1	99.160	0.230	-0.800	0.010
2020/01/31 01:09:22.2	99.170	0.240	-0.810	-0.090
2020/01/31 01:09:22.3	99.180	0.260	-0.810	-0.180
2020/01/31 01:09:22.4	99.190	0.270	-0.810	-0.280
2020/01/31 01:09:22.5	99.210	0.280	-0.800	-0.370
2020/01/31 01:09:22.6	99.220	0.280	-0.790	-0.450
2020/01/31 01:09:22.7	99.240	0.290	-0.770	-0.540
2020/01/31 01:09:22.8	99.250	0.290	-0.750	-0.620
2020/01/31 01:09:22.9	99.270	0.290	-0.730	-0.690
2020/01/31 01:09:23.0	99.280	0.280	-0.700	-0.760
2020/01/31 01:09:23.1	99.290	0.280	-0.670	-0.830
2020/01/31 01:09:23.2	99.310	0.270	-0.640	-0.890
2020/01/31 01:09:23.3	99.320	0.260	-0.610	-0.940
2020/01/31 01:09:23.4	99.340	0.250	-0.580	-0.990
2020/01/31 01:09:23.5	99.350	0.230	-0.540	-1.040
2020/01/31 01:09:23.6	99.370	0.220	-0.510	-1.080
2020/01/31 01:09:23.7	99.380	0.200	-0.470	-1.110
2020/01/31 01:09:23.8	99.400	0.190	-0.430	-1.130
2020/01/31 01:09:23.9	99.410	0.170	-0.390	-1.150
2020/01/31 01:09:24.0	99.420	0.150	-0.350	-1.160
2020/01/31 01:09:24.1	99.430	0.140	-0.310	-1.160
2020/01/31 01:09:24.2	99.450	0.120	-0.280	-1.160
2020/01/31 01:09:24.3	99.460	0.100	-0.240	-1.140
2020/01/31 01:09:24.4	99.470	0.090	-0.210	-1.120
2020/01/31 01:09:24.5	99.480	0.070	-0.180	-1.100
2020/01/31 01:09:24.6	99.490	0.060	-0.150	-1.060
2020/01/31 01:09:24.7	99.490	0.050	-0.120	-1.020
2020/01/31 01:09:24.8	99.500	0.040	-0.090	-0.970
2020/01/31 01:09:24.9	99.500	0.030	-0.070	-0.920
2020/01/31 01:09:25.0	99.490	0.020	-0.050	-0.850
2020/01/31 01:09:25.1	99.490	0.020	-0.030	-0.780
2020/01/31 01:09:25.2	99.490	0.020	-0.010	-0.710
2020/01/31 01:09:25.3	99.480	0.020	0.000	-0.630
2020/01/31 01:09:25.4	99.470	0.020	0.010	-0.540
2020/01/31 01:09:25.5	99.460	0.030	0.020	-0.440
2020/01/31 01:09:25.6	99.450	0.030	0.030	-0.340
2020/01/31 01:09:25.7	99.430	0.040	0.030	-0.240
2020/01/31 01:09:25.8	99.420	0.050	0.040	-0.140
2020/01/31 01:09:25.9	99.400	0.060	0.040	-0.030
2020/01/31 01:09:26.0	99.380	0.070	0.040	0.090
2020/01/31 01:09:26.1	99.350	0.090	0.040	0.200
2020/01/31 01:09:26.2	99.330	0.100	0.040	0.320
2020/01/31 01:09:26.3	99.310	0.120	0.040	0.430
2020/01/31 01:09:26.4	99.290	0.130	0.040	0.540
2020/01/31 01:09:26.5	99.260	0.150	0.030	0.660
2020/01/31 01:09:26.6	99.240	0.160	0.030	0.770
2020/01/31 01:09:26.7	99.220	0.170	0.030	0.880
2020/01/31 01:09:26.8	99.200	0.190	0.030	0.980
2020/01/31 01:09:26.9	99.190	0.200	0.030	1.080
2020/01/31 01:09:27.0	99.180	0.210	0.020	1.180
2020/01/31 01:09:27.1	99.170	0.220	0.020	1.280
2020/01/31 01:09:27.2	99.160	0.230	0.020	1.370
2020/01/31 01:09:27.3	99.150	0.230	0.020	1.460
2020/01/31 01:09:27.4	99.150	0.240	0.020	1.540
2020/01/31 01:09:27.5	99.150	0.240	0.030	1.620
2020/01/31 01:09:27.6	99.150	0.240	0.030	1.700
2020/01/31 01:09:27.7	99.160	0.240	0.030	1.770
2020/01/31 01:09:27.8	99.160	0.230	0.040	1.830
2020/01/31 01:09:27.9	99.170	0.230	0.040	1.900
2020/01/31 01:09:28.0	99.190	0.220	0.050	1.950
2020/01/31 01:09:28.1	99.210	0.210	0.060	2.010
2020/01/31 01:09:28.2	99.220	0.200	0.070	2.060
2020/01/31 01:09:28.3	99.240	0.180	0.070	2.110
2020/01/31 01:09:28.4	99.260	0.160	0.080	2.150
2020/01/31 01:09:28.5	99.280	0.150	0.100	2.200
2020/01/31 01:09:28.6	99.300	0.130	0.110	2.240
2020/01/31 01:09:28.7	99.320	0.100	0.120	2.280
2020/01/31 01:09:28.8	99.340	0.080	0.130	2.310
2020/01/31 01:09:28.9	99.370	0.060	0.140	2.340
2020/01/31 01:09:29.0	99.400	0.030	0.160	2.380
2020/01/31 01:09:29.1	99.420	0.010	0.170	2.410
2020/01/31 01:09:29.2	99.450	-0.020	0.180	2.440
2020/01/31 01:09:29.3	99.480	-0.040	0.190	2.470
2020/01/31 01:09:29.4	99.500	-0.070	0.200	2.490
2020/01/31 01:09:29.5	99.530	-0.090	0.220	2.520
2020/01/31 01:09:29.6	99.550	-0.110	0.220	2.540
2020/01/31 01:09:29.7	99.580	-0.140	0.230	2.570
2020/01/31 01:09:29.8	99.610	-0.160	0.240	2.590
2020/01/31 01:09:29.9	99.630	-0.180	0.240	2.610
2020/01/31 01:09:30.0	99.660	-0.200	0.240	2.640
2020/01/31 01:09:30.1	99.690	-0.210	0.240	2.650
2020/01/31 01:09:30.2	99.710	-0.230	0.240	2.670
2020/01/31 01:09:30.3	99.730	-0.240	0.230	2.690
2020/01/31 01:09:30.4	99.750	-0.250	0.220	2.700
2020/01/31 01:09:30.5	99.780	-0.250	0.200	2.720
2020/01/31 01:09:30.6	99.790	-0.250	0.180	2.730
2020/01/31 01:09:30.7	99.810	-0.250	0.160	2.740
2020/01/31 01:09:30.8	99.830	-0.250	0.130	2.750
2020/01/31 01:09:30.9	99.840	-0.240	0.100	2.750
2020/01/31 01:09:31.0	99.850	-0.240	0.060	2.760
2020/01/31 01:09:31.1	99.860	-0.220	0.020	2.760
2020/01/31 01:09:31.2	99.870	-0.210	-0.020	2.760
2020/01/31 01:09:31.3	99.880	-0.190	-0.070	2.760
2020/01/31 01:09:31.4	99.880	-0.170	-0.110	2.750
2020/01/31 01:09:31.5	99.880	-0.150	-0.160	2.740
2020/01/31 01:09:31.6	99.880	-0.120	-0.210	2.730
2020/01/31 01:09:31.7	99.880	-0.100	-0.270	2.720
2020/01/31 01:09:31.8	99.880	-0.070	-0.320	2.700
2020/01/31 01:09:31.9	99.880	-0.040	-0.370	2.670
2020/01/31 01:09:32.0	99.870	-0.010	-0.420	2.640
2020/01/31 01:09:32.1	99.860	0.020	-0.470	2.610
2020/01/31 01:09:32.2	99.860	0.050	-0.520	2.580
2020/01/31 01:09:32.3	99.850	0.080	-0.570	2.540
2020/01/31 01:09:32.4	99.840	0.110	-0.610	2.500
2020/01/31 01:09:32.5	99.830	0.140	-0.650	2.450
2020/01/31 01:09:32.6	99.830	0.170	-0.680	2.410
2020/01/31 01:09:32.7	99.820	0.190	-0.720	2.360
2020/01/31 01:09:32.8	99.810	0.220	-0.740	2.310
2020/01/31 01:09:32.9	99.800	0.240	-0.760	2.250
2020/01/31 01:09:33.0	99.810	0.260	-0.780	2.200
2020/01/31 01:09:33.1	99.800	0.270	-0.790	2.140
2020/01/31 01:09:33.2	99.790	0.290	-0.800	2.080
2020/01/31 01:09:33.3	99.780	0.300	-0.800	2.020
2020/01/31 01:09:33.4	99.780	0.300	-0.790	1.970
2020/01/31 01:09:33.5	99.770	0.310	-0.780	1.910
2020/01/31 01:09:33.6	99.770	0.310	-0.770	1.850
2020/01/31 01:09:33.7	99.760	0.310	-0.750	1.790
2020/01/31 01:09:33.8	99.760	0.300	-0.720	1.730
2020/01/31 01:09:33.9	99.750	0.290	-0.690	1.670
2020/01/31 01:09:34.0	99.750	0.280	-0.660	1.620
2020/01/31 01:09:34.1	99.740	0.270	-0.620	1.560
2020/01/31 01:09:34.2	99.740	0.250	-0.580	1.510
2020/01/31 01:09:34.3	99.740	0.230	-0.540	1.460
2020/01/31 01:09:34.4	99.740	0.210	-0.490	1.410
2020/01/31 01:09:34.5	99.740	0.180	-0.450	1.370
2020/01/31 01:09:34.6	99.730	0.160	-0.400	1.330
2020/01/31 01:09:34.7	99.730	0.130	-0.350	1.280
2020/01/31 01:09:34.8	99.730	0.100	-0.300	1.240
2020/01/31 01:09:34.9	99.730	0.060	-0.250	1.210
2020/01/31 01:09:35.0	99.710	0.030	-0.200	1.170
2020/01/31 01:09:35.1	99.710	-0.000	-0.150	1.140
2020/01/31 01:09:35.2	99.710	-0.040	-0.100	1.100
2020/01/31 01:09:35.3	99.710	-0.070	-0.060	1.070
2020/01/31 01:09:35.4	99.710	-0.100	-0.020	1.030
2020/01/31 01:09:35.5	99.710	-0.140	0.030	1.000
2020/01/31 01:09:35.6	99.710	-0.170	0.070	0.960
2020/01/31 01:09:35.7	99.710	-0.200	0.100	0.930
2020/01/31 01:09:35.8	99.710	-0.230	0.130	0.900
2020/01/31 01:09:35.9	99.720	-0.260	0.160	0.860
2020/01/31 01:09:36.0	99.710	-0.290	0.190	0.820
2020/01/31 01:09:36.1	99.710	-0.320	0.210	0.790
2020/01/31 01:09:36.2	99.710	-0.340	0.230	0.750
2020/01/31 01:09:36.3	99.720	-0.360	0.240	0.710
2020/01/31 01:09:36.4	99.720	-0.380	0.250	0.680
2020/01/31 01:09:36.5	99.720	-0.390	0.250	0.640
2020/01/31 01:09:36.6	99.720	-0.410	0.250	0.600
2020/01/31 01:09:36.7	99.720	-0.420	0.250	0.560
2020/01/31 01:09:36.8	99.730	-0.420	0.240	0.520
2020/01/31 01:09:36.9	99.730	-0.430	0.230	0.480
2020/01/31 01:09:37.0	99.740	-0.430	0.210	0.450
2020/01/31 01:09:37.1	99.740	-0.430	0.190	0.410
2020/01/31 01:09:37.2	99.750	-0.420	0.170	0.360
2020/01/31 01:09:37.3	99.750	-0.410	0.140	0.320
2020/01/31 01:09:37.4	99.760	-0.400	0.110	0.280
2020/01/31 01:09:37.5	99.760	-0.390	0.080	0.230
2020/01/31 01:09:37.6	99.770	-0.370	0.050	0.190
2020/01/31 01:09:37.7	99.770	-0.360	0.010	0.150
2020/01/31 01:09:37.8	99.780	-0.330	-0.020	0.100
2020/01/31 01:09:37.9	99.790	-0.310	-0.060	0.060
2020/01/31 01:09:38.0	99.800	-0.290	-0.100	0.020
2020/01/31 01:09:38.1	99.810	-0.260	-0.140	-0.030
2020/01/31 01:09:38.2	99.820	-0.230	-0.170	-0.070
2020/01/31 01:09:38.3	99.830	-0.210	-0.210	-0.110
2020/01/31 01:09:38.4	99.830	-0.180	-0.240	-0.140
2020/01/31 01:09:38.5	99.840	-0.150	-0.270	-0.180
2020/01/31 01:09:38.6	99.850	-0.120	-0.300	-0.200
2020/01/31 01:09:38.7	99.860	-0.090	-0.330	-0.230
2020/01/31 01:09:38.8	99.870	-0.060	-0.350	-0.250
2020/01/31 01:09:38.9	99.880	-0.030	-0.370	-0.270
2020/01/31 01:09:39.0	99.890	-0.000	-0.380	-0.280
2020/01/31 01:09:39.1	99.900	0.020	-0.390	-0.290
2020/01/31 01:09:39.2	99.910	0.050	-0.400	-0.290
2020/01/31 01:09:39.3	99.920	0.070	-0.400	-0.290
2020/01/31 01:09:39.4	99.920	0.090	-0.400	-0.280
2020/01/31 01:09:39.5	99.930	0.110	-0.390	-0.270
2020/01/31 01:09:39.6	99.940	0.130	-0.380	-0.250
2020/01/31 01:09:39.7	99.950	0.140	-0.370	-0.220
2020/01/31 01:09:39.8	99.960	0.160	-0.350	-0.200
2020/01/31 01:09:39.9	99.960	0.170	-0.330	-0.160
2020/01/31 01:09:40.0	99.970	0.170	-0.310	-0.130
2020/01/31 01:09:40.1	99.980	0.180	-0.280	-0.090
2020/01/31 01:09:40.2	99.990	0.180	-0.250	-0.040
2020/01/31 01:09:40.3	99.990	0.180	-0.220	0.000
2020/01/31 01:09:40.4	100.000	0.180	-0.190	0.050
2020/01/31 01:09:40.5	100.010	0.180	-0.150	0.100
2020/01/31 01:09:40.6	100.020	0.170	-0.120	0.150
2020/01/31 01:09:40.7	100.030	0.170	-0.080	0.200
2020/01/31 01:09:40.8	100.040	0.160	-0.050	0.260
2020/01/31 01:09:40.9	100.060	0.150	-0.020	0.310
2020/01/31 01:09:41.0	100.070	0.140	0.010	0.360
2020/01/31 01:09:41.1	100.080	0.130	0.040	0.420
2020/01/31 01:09:41.2	100.090	0.120	0.070	0.470
2020/01/31 01:09:41.3	100.100	0.110	0.090	0.520
2020/01/31 01:09:41.4	100.110	0.100	0.110	0.570
2020/01/31 01:09:41.5	100.120	0.090	0.130	0.620
2020/01/31 01:09:41.6	100.140	0.080	0.140	0.670
2020/01/31 01:09:41.7	100.150	0.070	0.150	0.710
2020/01/31 01:09:41.8	100.160	0.060	0.150	0.760
2020/01/31 01:09:41.9	100.170	0.060	0.150	0.810
2020/01/31 01:09:42.0	100.170	0.050	0.150	0.850
2020/01/31 01:09:42.1	100.180	0.050	0.140	0.890
2020/01/31 01:09:42.2	100.180	0.050	0.130	0.940
2020/01/31 01:09:42.3	100.190	0.050	0.120	0.980
2020/01/31 01:09:42.4	100.200	0.050	0.100	1.030
2020/01/31 01:09:42.5	100.200	0.050	0.080	1.070
2020/01/31 01:09:42.6	100.200	0.050	0.050	1.110
2020/01/31 01:09:42.7	100.210	0.060	0.020	1.160
2020/01/31 01:09:42.8	100.210	0.070	-0.010	1.200
2020/01/31 01:09:42.9	100.210	0.080	-0.040	1.250
2020/01/31 01:09:43.0	100.210	0.090	-0.070	1.300
2020/01/31 01:09:43.1	100.200	0.100	-0.110	1.350
2020/01/31 01:09:43.2	100.200	0.110	-0.140	1.400
2020/01/31 01:09:43.3	100.190	0.120	-0.180	1.450
2020/01/31 01:09:43.4	100.190	0.130	-0.210	1.510
2020/01/31 01:09:43.5	100.180	0.150	-0.240	1.560
2020/01/31 01:09:43.6	100.170	0.160	-0.270	1.620
2020/01/31 01:09:43.7	100.160	0.170	-0.300	1.680
2020/01/31 01:09:43.8	100.150	0.180	-0.330	1.740
2020/01/31 01:09:43.9	100.130	0.190	-0.350	1.800
2020/01/31 01:09:44.0	100.130	0.200	-0.370	1.860
2020/01/31 01:09:44.1	100.120	0.210	-0.390	1.920
2020/01/31 01:09:44.2	100.100	0.220	-0.400	1.980
2020/01/31 01:09:44.3	100.090	0.220	-0.400	2.040
2020/01/31 01:09:44.4	100.070	0.220	-0.410	2.100
2020/01/31 01:09:44.5	100.060	0.220	-0.400	2.160
2020/01/31 01:09:44.6	100.040	0.220	-0.400	2.210
2020/01/31 01:09:44.7	100.030	0.210	-0.390	2.270
2020/01/31 01:09:44.8	100.020	0.210	-0.370	2.320
2020/01/31 01:09:44.9	100.000	0.200	-0.350	2.370
2020/01/31 01:09:45.0	99.990	0.180	-0.330	2.420
2020/01/31 01:09:45.1	99.980	0.170	-0.300	2.460
2020/01/31 01:09:45.2	99.970	0.150	-0.270	2.500
2020/01/31 01:09:45.3	99.960	0.140	-0.240	2.540
2020/01/31 01:09:45.4	99.950	0.120	-0.210	2.570
2020/01/31 01:09:45.5	99.940	0.090	-0.170	2.600
2020/01/31 01:09:45.6	99.930	0.070	-0.130	2.630
2020/01/31 01:09:45.7	99.920	0.050	-0.100	2.650
2020/01/31 01:09:45.8	99.910	0.020	-0.060	2.660
2020/01/31 01:09:45.9	99.910	-0.000	-0.030	2.670
2020/01/31 01:09:46.0	99.900	-0.030	0.010	2.680
2020/01/31 01:09:46.1	99.900	-0.060	0.040	2.680
2020/01/31 01:09:46.2	99.890	-0.080	0.070	2.670
2020/01/31 01:09:46.3	99.890	-0.110	0.090	2.670
2020/01/31 01:09:46.4	99.890	-0.130	0.110	2.650
2020/01/31 01:09:46.5	99.890	-0.160	0.130	2.630
2020/01/31 01:09:46.6	99.890	-0.180	0.140	2.610
2020/01/31 01:09:46.7	99.890	-0.200	0.150	2.580
2020/01/31 01:09:46.8	99.900	-0.210	0.150	2.550
2020/01/31 01:09:46.9	99.900	-0.230	0.150	2.520
2020/01/31 01:09:47.0	99.900	-0.240	0.140	2.480
2020/01/31 01:09:47.1	99.900	-0.250	0.120	2.430
2020/01/31 01:09:47.2	99.910	-0.260	0.100	2.390
2020/01/31 01:09:47.3	99.920	-0.260	0.080	2.330
2020/01/31 01:09:47.4	99.920	-0.260	0.050	2.280
2020/01/31 01:09:47.5	99.930	-0.260	0.020	2.220
2020/01/31 01:09:47.6	99.940	-0.250	-0.020	2.170
2020/01/31 01:09:47.7	99.950	-0.240	-0.060	2.110
2020/01/31 01:09:47.8	99.950	-0.230	-0.100	2.040
2020/01/31 01:09:47.9	99.960	-0.220	-0.150	1.980
2020/01/31 01:09:48.0	99.970	-0.200	-0.200	1.920
2020/01/31 01:09:48.1	99.970	-0.180	-0.240	1.860
2020/01/31 01:09:48.2	99.980	-0.160	-0.290	1.790
2020/01/31 01:09:48.3	99.980	-0.130	-0.340	1.730
2020/01/31 01:09:48.4	99.990	-0.110	-0.390	1.670
2020/01/31 01:09:48.5	99.990	-0.080	-0.440	1.610
2020/01/31 01:09:48.6	99.990	-0.050	-0.490	1.550
2020/01/31 01:09:48.7	99.990	-0.020	-0.530	1.500
2020/01/31 01:09:48.8	99.990	0.010	-0.570	1.440
2020/01/31 01:09:48.9	99.990	0.040	-0.610	1.390
2020/01/31 01:09:49.0	99.990	0.070	-0.640	1.340
2020/01/31 01:09:49.1	99.990	0.100	-0.670	1.290
2020/01/31 01:09:49.2	99.990	0.120	-0.690	1.240
2020/01/31 01:09:49.3	99.990	0.150	-0.700	1.190
2020/01/31 01:09:49.4	99.990	0.170	-0.710	1.150
2020/01/31 01:09:49.5	99.980	0.190	-0.710	1.110
2020/01/31 01:09:49.6	99.980	0.210	-0.710	1.060
2020/01/31 01:09:49.7	99.980	0.220	-0.700	1.020
2020/01/31 01:09:49.8	99.980	0.240	-0.680	0.990
2020/01/31 01:09:49.9	99.980	0.250	-0.650	0.950
2020/01/31 01:09:50.0	99.970	0.250	-0.620	0.910
2020/01/31 01:09:50.1	99.970	0.250	-0.580	0.880
2020/01/31 01:09:50.2	99.970	0.250	-0.540	0.840
2020/01/31 01:09:50.3	99.970	0.240	-0.490	0.810
2020/01/31 01:09:50.4	99.970	0.230	-0.430	0.780
2020/01/31 01:09:50.5	99.970	0.220	-0.370	0.750
2020/01/31 01:09:50.6	99.980	0.210	-0.310	0.720
2020/01/31 01:09:50.7	99.980	0.190	-0.240	0.700
2020/01/31 01:09:50.8	99.980	0.160	-0.170	0.670
2020/01/31 01:09:50.9	99.980	0.140	-0.100	0.640
2020/01/31 01:09:51.0	99.990	0.110	-0.030	0.620
2020/01/31 01:09:51.1	99.990	0.080	0.040	0.590
2020/01/31 01:09:51.2	99.990	0.050	0.110	0.570
2020/01/31 01:09:51.3	99.990	0.020	0.180	0.550
2020/01/31 01:09:51.4	99.990	-0.020	0.250	0.530
2020/01/31 01:09:51.5	99.990	-0.050	0.310	0.510
2020/01/31 01:09:51.6	99.990	-0.090	0.370	0.500
2020/01/31 01:09:51.7	99.990	-0.120	0.420	0.480
2020/01/31 01:09:51.8	100.000	-0.150	0.470	0.470
2020/01/31 01:09:51.9	100.000	-0.190	0.510	0.450
2020/01/31 01:09:52.0	100.000	-0.220	0.550	0.440
2020/01/31 01:09:52.1	100.000	-0.250	0.580	0.430
2020/01/31 01:09:52.2	100.010	-0.280	0.610	0.420
2020/01/31 01:09:52.3	100.010	-0.310	0.620	0.410
2020/01/31 01:09:52.4	100.010	-0.340	0.630	0.400
2020/01/31 01:09:52.5	100.020	-0.360	0.640	0.400
2020/01/31 01:09:52.6	100.020	-0.380	0.640	0.390
2020/01/31 01:09:52.7	100.030	-0.400	0.630	0.390
2020/01/31 01:09:52.8	100.030	-0.410	0.620	0.390
2020/01/31 01:09:52.9	100.040	-0.420	0.600	0.380
2020/01/31 01:09:53.0	100.050	-0.430	0.570	0.390
2020/01/31 01:09:53.1	100.060	-0.440	0.540	0.390
2020/01/31 01:09:53.2	100.060	-0.440	0.500	0.390
2020/01/31 01:09:53.3	100.070	-0.440	0.460	0.390
2020/01/31 01:09:53.4	100.070	-0.440	0.410	0.400
2020/01/31 01:09:53.5	100.070	-0.430	0.360	0.400
2020/01/31 01:09:53.6	100.070	-0.420	0.310	0.410
2020/01/31 01:09:53.7	100.070	-0.400	0.250	0.410
2020/01/31 01:09:53.8	100.070	-0.390	0.190	0.420
2020/01/31 01:09:53.9	100.070	-0.370	0.130	0.430
2020/01/31 01:09:54.0	100.070	-0.350	0.070	0.450
2020/01/31 01:09:54.1	100.060	-0.320	-0.000	0.460
2020/01/31 01:09:54.2	100.050	-0.300	-0.070	0.480
2020/01/31 01:09:54.3	100.040	-0.270	-0.140	0.500
2020/01/31 01:09:54.4	100.030	-0.240	-0.210	0.520
2020/01/31 01:09:54.5	100.010	-0.200	-0.270	0.540
2020/01/31 01:09:54.6	100.000	-0.170	-0.340	0.570
2020/01/31 01:09:54.7	99.980	-0.140	-0.410	0.600
2020/01/31 01:09:54.8	99.960	-0.100	-0.470	0.630
2020/01/31 01:09:54.9	99.940	-0.060	-0.540	0.660
2020/01/31 01:09:55.0	99.920	-0.030	-0.600	0.690
2020/01/31 01:09:55.1	99.900	0.010	-0.660	0.730
2020/01/31 01:09:55.2	99.870	0.040	-0.710	0.760
2020/01/31 01:09:55.3	99.850	0.080	-0.760	0.800
2020/01/31 01:09:55.4	99.830	0.120	-0.810	0.830
2020/01/31 01:09:55.5	99.810	0.150	-0.860	0.870
2020/01/31 01:09:55.6	99.790	0.180	-0.900	0.910
2020/01/31 01:09:55.7	99.770	0.220	-0.930	0.950
2020/01/31 01:09:55.8	99.760	0.250	-0.960	0.980
2020/01/31 01:09:55.9	99.740	0.280	-0.990	1.020
2020/01/31 01:09:56.0	99.730	0.300	-1.010	1.060
2020/01/31 01:09:56.1	99.710	0.330	-1.020	1.100
2020/01/31 01:09:56.2	99.700	0.350	-1.030	1.130
2020/01/31 01:09:56.3	99.690	0.370	-1.040	1.170
2020/01/31 01:09:56.4	99.680	0.390	-1.040	1.210
2020/01/31 01:09:56.5	99.670	0.410	-1.040	1.250
2020/01/31 01:09:56.6	99.660	0.420	-1.020	1.290
2020/01/31 01:09:56.7	99.650	0.430	-1.010	1.330
2020/01/31 01:09:56.8	99.650	0.440	-0.990	1.370
2020/01/31 01:09:56.9	99.640	0.440	-0.960	1.410
2020/01/31 01:09:57.0	99.630	0.440	-0.930	1.450
2020/01/31 01:09:57.1	99.630	0.440	-0.890	1.490
2020/01/31 01:09:57.2	99.620	0.430	-0.850	1.520
2020/01/31 01:09:57.3	99.620	0.420	-0.800	1.560
2020/01/31 01:09:57.4	99.620	0.410	-0.750	1.600
2020/01/31 01:09:57.5	99.630	0.400	-0.700	1.640
2020/01/31 01:09:57.6	99.630	0.380	-0.640	1.680
2020/01/31 01:09:57.7	99.630	0.370	-0.580	1.720
2020/01/31 01:09:57.8	99.640	0.340	-0.510	1.750
2020/01/31 01:09:57.9	99.650	0.320	-0.450	1.790
2020/01/31 01:09:58.0	99.650	0.300	-0.370	1.820
2020/01/31 01:09:58.1	99.660	0.270	-0.310	1.850
2020/01/31 01:09:58.2	99.670	0.240	-0.240	1.880
2020/01/31 01:09:58.3	99.670	0.220	-0.170	1.910
2020/01/31 01:09:58.4	99.680	0.190	-0.100	1.940
2020/01/31 01:09:58.5	99.690	0.160	-0.030	1.960
2020/01/31 01:09:58.6	99.700	0.130	0.040	1.980
2020/01/31 01:09:58.7	99.710	0.100	0.110	2.000
2020/01/31 01:09:58.8	99.720	0.070	0.170	2.020
2020/01/31 01:09:58.9	99.730	0.040	0.230	2.030
2020/01/31 01:09:59.0	99.730	0.010	0.290	2.050
2020/01/31 01:09:59.1	99.740	-0.020	0.350	2.060
2020/01/31 01:09:59.2	99.750	-0.040	0.400	2.060
2020/01/31 01:09:59.3	99.750	-0.070	0.440	2.060
2020/01/31 01:09:59.4	99.750	-0.090	0.490	2.060
2020/01/31 01:09:59.5	99.760	-0.110	0.520	2.060
2020/01/31 01:09:59.6	99.760	-0.130	0.560	2.050
2020/01/31 01:09:59.7	99.760	-0.150	0.580	2.040
2020/01/31 01:09:59.8	99.760	-0.170	0.610	2.030
2020/01/31 01:09:59.9	99.760	-0.180	0.630	2.010
2020/01/31 01:10:00.0	99.760	-0.190	0.640	1.990
2020/01/31 01:10:00.1	99.760	-0.200	0.650	1.970
2020/01/31 01:10:00.2	99.760	-0.210	0.650	1.950
2020/01/31 01:10:00.3	99.760	-0.210	0.650	1.920
2020/01/31 01:10:00.4	99.760	-0.220	0.640	1.900
2020/01/31 01:10:00.5	99.760	-0.220	0.630	1.870
2020/01/31 01:10:00.6	99.750	-0.220	0.620	1.840
2020/01/31 01:10:00.7	99.750	-0.220	0.600	1.800
2020/01/31 01:10:00.8	99.750	-0.220	0.580	1.770
2020/01/31 01:10:00.9	99.740	-0.220	0.560	1.740
2020/01/31 01:10:01.0	99.730	-0.210	0.530	1.700
2020/01/31 01:10:01.1	99.730	-0.210	0.500	1.670
2020/01/31 01:10:01.2	99.720	-0.200	0.470	1.630
2020/01/31 01:10:01.3	99.720	-0.200	0.440	1.600
2020/01/31 01:10:01.4	99.710	-0.190	0.410	1.560
2020/01/31 01:10:01.5	99.700	-0.190	0.370	1.530
2020/01/31 01:10:01.6	99.700	-0.180	0.340	1.500
2020/01/31 01:10:01.7	99.690	-0.170	0.300	1.460
2020/01/31 01:10:01.8	99.690	-0.170	0.270	1.430
2020/01/31 01:10:01.9	99.680	-0.160	0.230	1.400
2020/01/31 01:10:02.0	99.690	-0.150	0.190	1.370
2020/01/31 01:10:02.1	99.680	-0.150	0.150	1.340
2020/01/31 01:10:02.2	99.680	-0.140	0.110	1.320
2020/01/31 01:10:02.3	99.670	-0.140	0.070	1.290
2020/01/31 01:10:02.4	99.670	-0.130	0.030	1.270
2020/01/31 01:10:02.5	99.670	-0.130	-0.000	1.240
2020/01/31 01:10:02.6	99.660	-0.120	-0.040	1.220
2020/01/31 01:10:02.7	99.660	-0.120	-0.080	1.200
2020/01/31 01:10:02.8	99.660	-0.120	-0.120	1.180
2020/01/31 01:10:02.9	99.660	-0.110	-0.160	1.160
2020/01/31 01:10:03.0	99.660	-0.110	-0.200	1.130
2020/01/31 01:10:03.1	99.670	-0.100	-0.240	1.110
2020/01/31 01:10:03.2	99.670	-0.100	-0.280	1.090
2020/01/31 01:10:03.3	99.680	-0.090	-0.320	1.070
2020/01/31 01:10:03.4	99.680	-0.090	-0.360	1.040
2020/01/31 01:10:03.5	99.690	-0.080	-0.400	1.020
2020/01/31 01:10:03.6	99.700	-0.080	-0.440	0.990
2020/01/31 01:10:03.7	99.710	-0.070	-0.470	0.970
2020/01/31 01:10:03.8	99.720	-0.060	-0.500	0.940
2020/01/31 01:10:03.9	99.730	-0.050	-0.540	0.920
2020/01/31 01:10:04.0	99.740	-0.050	-0.570	0.890
2020/01/31 01:10:04.1	99.760	-0.040	-0.590	0.870
2020/01/31 01:10:04.2	99.770	-0.030	-0.620	0.840
2020/01/31 01:10:04.3	99.780	-0.010	-0.640	0.820
2020/01/31 01:10:04.4	99.790	-0.000	-0.660	0.800
2020/01/31 01:10:04.5	99.800	0.010	-0.680	0.780
2020/01/31 01:10:04.6	99.810	0.020	-0.700	0.760
2020/01/31 01:10:04.7	99.820	0.030	-0.710	0.740
2020/01/31 01:10:04.8	99.830	0.050	-0.720	0.730
2020/01/31 01:10:04.9	99.830	0.060	-0.720	0.710
2020/01/31 01:10:05.0	99.840	0.070	-0.720	0.700
2020/01/31 01:10:05.1	99.850	0.090	-0.720	0.690
2020/01/31 01:10:05.2	99.850	0.100	-0.720	0.680
2020/01/31 01:10:05.3	99.850	0.110	-0.720	0.670
2020/01/31 01:10:05.4	99.850	0.120	-0.710	0.670
2020/01/31 01:10:05.5	99.850	0.130	-0.700	0.660
2020/01/31 01:10:05.6	99.850	0.140	-0.680	0.660
2020/01/31 01:10:05.7	99.850	0.150	-0.670	0.660
2020/01/31 01:10:05.8	99.840	0.160	-0.650	0.660
2020/01/31 01:10:05.9	99.840	0.170	-0.630	0.660
2020/01/31 01:10:06.0	99.820	0.170	-0.610	0.660
2020/01/31 01:10:06.1	99.820	0.180	-0.580	0.660
2020/01/31 01:10:06.2	99.810	0.180	-0.560	0.660
2020/01/31 01:10:06.3	99.800	0.180	-0.530	0.670
2020/01/31 01:10:06.4	99.790	0.190	-0.500	0.670
2020/01/31 01:10:06.5	99.770	0.190	-0.480	0.680
2020/01/31 01:10:06.6	99.760	0.180	-0.440	0.680
2020/01/31 01:10:06.7	99.750	0.180	-0.410	0.690
2020/01/31 01:10:06.8	99.740	0.180	-0.380	0.700
2020/01/31 01:10:06.9	99.720	0.170	-0.350	0.710
2020/01/31 01:10:07.0	99.710	0.170	-0.310	0.710
2020/01/31 01:10:07.1	99.690	0.160	-0.280	0.720
2020/01/31 01:10:07.2	99.680	0.160	-0.250	0.740
2020/01/31 01:10:07.3	99.670	0.150	-0.220	0.750
2020/01/31 01:10:07.4	99.650	0.140	-0.190	0.760
2020/01/31 01:10:07.5	99.640	0.130	-0.160	0.780
2020/01/31 01:10:07.6	99.630	0.120	-0.130	0.800
2020/01/31 01:10:07.7	99.610	0.110	-0.100	0.820
2020/01/31 01:10:07.8	99.600	0.100	-0.080	0.840
2020/01/31 01:10:07.9	99.590	0.090	-0.050	0.870
2020/01/31 01:10:08.0	99.570	0.080	-0.030	0.900
2020/01/31 01:10:08.1	99.550	0.070	-0.000	0.930
2020/01/31 01:10:08.2	99.540	0.060	0.020	0.960
2020/01/31 01:10:08.3	99.530	0.040	0.040	0.990
2020/01/31 01:10:08.4	99.520	0.030	0.060	1.030
2020/01/31 01:10:08.5	99.500	0.020	0.080	1.060
2020/01/31 01:10:08.6	99.490	0.010	0.100	1.100
2020/01/31 01:10:08.7	99.480	0.000	0.110	1.140
2020/01/31 01:10:08.8	99.470	-0.010	0.130	1.180
2020/01/31 01:10:08.9	99.460	-0.020	0.150	1.220
2020/01/31 01:10:09.0	99.450	-0.030	0.160	1.260
2020/01/31 01:10:09.1	99.440	-0.040	0.170	1.310
2020/01/31 01:10:09.2	99.430	-0.050	0.190	1.350
2020/01/31 01:10:09.3	99.420	-0.060	0.200	1.390
2020/01/31 01:10:09.4	99.410	-0.070	0.210	1.430
2020/01/31 01:10:09.5	99.410	-0.070	0.220	1.470
2020/01/31 01:10:09.6	99.400	-0.080	0.230	1.500
2020/01/31 01:10:09.7	99.390	-0.090	0.240	1.540
2020/01/31 01:10:09.8	99.390	-0.100	0.250	1.570
2020/01/31 01:10:09.9	99.380	-0.100	0.250	1.600
2020/01/31 01:10:10.0	99.370	-0.110	0.260	1.620
2020/01/31 01:10:10.1	99.360	-0.110	0.260	1.640
2020/01/31 01:10:10.2	99.360	-0.120	0.260	1.660
2020/01/31 01:10:10.3	99.360	-0.120	0.270	1.680
2020/01/31 01:10:10.4	99.350	-0.130	0.270	1.690
2020/01/31 01:10:10.5	99.350	-0.130	0.270	1.700
2020/01/31 01:10:10.6	99.350	-0.140	0.260	1.710
2020/01/31 01:10:10.7	99.350	-0.140	0.260	1.710
2020/01/31 01:10:10.8	99.350	-0.140	0.250	1.710
2020/01/31 01:10:10.9	99.340	-0.140	0.240	1.700
2020/01/31 01:10:11.0	99.350	-0.150	0.230	1.690
2020/01/31 01:10:11.1	99.350	-0.150	0.220	1.680
2020/01/31 01:10:11.2	99.350	-0.150	0.210	1.670
2020/01/31 01:10:11.3	99.350	-0.150	0.190	1.660
2020/01/31 01:10:11.4	99.350	-0.150	0.170	1.640
2020/01/31 01:10:11.5	99.350	-0.150	0.150	1.620
2020/01/31 01:10:11.6	99.360	-0.150	0.130	1.600
2020/01/31 01:10:11.7	99.360	-0.150	0.110	1.580
2020/01/31 01:10:11.8	99.360	-0.140	0.080	1.560
2020/01/31 01:10:11.9	99.360	-0.140	0.060	1.540
2020/01/31 01:10:12.0	99.350	-0.140	0.030	1.510
2020/01/31 01:10:12.1	99.350	-0.130	-0.000	1.490
2020/01/31 01:10:12.2	99.350	-0.130	-0.030	1.470
2020/01/31 01:10:12.3	99.350	-0.120	-0.060	1.450
2020/01/31 01:10:12.4	99.350	-0.120	-0.090	1.440
2020/01/31 01:10:12.5	99.350	-0.110	-0.130	1.420
2020/01/31 01:10:12.6	99.350	-0.100	-0.160	1.400
2020/01/31 01:10:12.7	99.350	-0.100	-0.190	1.390
2020/01/31 01:10:12.8	99.360	-0.090	-0.220	1.380
2020/01/31 01:10:12.9	99.360	-0.080	-0.260	1.370
2020/01/31 01:10:13.0	99.360	-0.070	-0.290	1.360
2020/01/31 01:10:13.1	99.370	-0.060	-0.320	1.350
2020/01/31 01:10:13.2	99.370	-0.040	-0.350	1.350
2020/01/31 01:10:13.3	99.370	-0.030	-0.380	1.340
2020/01/31 01:10:13.4	99.370	-0.020	-0.410	1.340
2020/01/31 01:10:13.5	99.380	-0.010	-0.440	1.340
2020/01/31 01:10:13.6	99.380	0.010	-0.470	1.340
2020/01/31 01:10:13.7	99.380	0.020	-0.500	1.340
2020/01/31 01:10:13.8	99.390	0.040	-0.530	1.340
2020/01/31 01:10:13.9	99.390	0.050	-0.550	1.340
2020/01/31 01:10:14.0	99.400	0.070	-0.580	1.340
2020/01/31 01:10:14.1	99.400	0.090	-0.600	1.340
2020/01/31 01:10:14.2	99.410	0.100	-0.620	1.340
2020/01/31 01:10:14.3	99.410	0.120	-0.640	1.350
2020/01/31 01:10:14.4	99.420	0.130	-0.660	1.350
2020/01/31 01:10:14.5	99.420	0.150	-0.680	1.350
2020/01/31 01:10:14.6	99.430	0.160	-0.690	1.350
2020/01/31 01:10:14.7	99.440	0.180	-0.700	1.350
2020/01/31 01:10:14.8	99.450	0.190	-0.720	1.350
2020/01/31 01:10:14.9	99.460	0.200	-0.720	1.350
2020/01/31 01:10:15.0	99.460	0.220	-0.730	1.350
2020/01/31 01:10:15.1	99.470	0.230	-0.730	1.350
2020/01/31 01:10:15.2	99.480	0.240	-0.730	1.350
2020/01/31 01:10:15.3	99.490	0.250	-0.720	1.340
2020/01/31 01:10:15.4	99.500	0.260	-0.720	1.340
2020/01/31 01:10:15.5	99.510	0.270	-0.710	1.340
2020/01/31 01:10:15.6	99.520	0.270	-0.700	1.330
2020/01/31 01:10:15.7	99.530	0.280	-0.680	1.320
2020/01/31 01:10:15.8	99.530	0.280	-0.670	1.310
2020/01/31 01:10:15.9	99.540	0.280	-0.650	1.310
2020/01/31 01:10:16.0	99.550	0.280	-0.620	1.300
2020/01/31 01:10:16.1	99.560	0.280	-0.600	1.290
2020/01/31 01:10:16.2	99.560	0.280	-0.570	1.280
2020/01/31 01:10:16.3	99.560	0.280	-0.540	1.270
2020/01/31 01:10:16.4	99.560	0.270	-0.500	1.260
2020/01/31 01:10:16.5	99.550	0.270	-0.470	1.250
2020/01/31 01:10:16.6	99.550	0.260	-0.430	1.250
2020/01/31 01:10:16.7	99.540	0.250	-0.390	1.240
2020/01/31 01:10:16.8	99.530	0.240	-0.340	1.230
2020/01/31 01:10:16.9	99.520	0.230	-0.300	1.230
2020/01/31 01:10:17.0	99.490	0.210	-0.250	1.220
2020/01/31 01:10:17.1	99.480	0.200	-0.200	1.220
2020/01/31 01:10:17.2	99.460	0.180	-0.150	1.220
2020/01/31 01:10:17.3	99.440	0.160	-0.100	1.210
2020/01/31 01:10:17.4	99.420	0.150	-0.050	1.210
2020/01/31 01:10:17.5	99.390	0.130	0.000	1.210
2020/01/31 01:10:17.6	99.370	0.100	0.060	1.210
2020/01/31 01:10:17.7	99.340	0.080	0.110	1.220
2020/01/31 01:10:17.8	99.310	0.060	0.160	1.220
2020/01/31 01:10:17.9	99.280	0.040	0.220	1.220
2020/01/31 01:10:18.0	99.250	0.010	0.270	1.220
2020/01/31 01:10:18.1	99.220	-0.010	0.330	1.220
2020/01/31 01:10:18.2	99.190	-0.040	0.380	1.230
2020/01/31 01:10:18.3	99.150	-0.070	0.430	1.230
2020/01/31 01:10:18.4	99.120	-0.090	0.480	1.230
2020/01/31 01:10:18.5	99.090	-0.120	0.520	1.230
2020/01/31 01:10:18.6	99.060	-0.140	0.570	1.230
2020/01/31 01:10:18.7	99.020	-0.170	0.610	1.230
2020/01/31 01:10:18.8	98.990	-0.200	0.640	1.230
2020/01/31 01:10:18.9	98.960	-0.220	0.670	1.230
2020/01/31 01:10:19.0	98.950	-0.240	0.700	1.230
2020/01/31 01:10:19.1	98.920	-0.270	0.730	1.230
2020/01/31 01:10:19.2	98.890	-0.290	0.740	1.220
2020/01/31 01:10:19.3	98.860	-0.310	0.760	1.220
2020/01/31 01:10:19.4	98.840	-0.330	0.760	1.210
2020/01/31 01:10:19.5	98.820	-0.350	0.760	1.200
2020/01/31 01:10:19.6	98.800	-0.360	0.760	1.190
2020/01/31 01:10:19.7	98.780	-0.370	0.740	1.180
2020/01/31 01:10:19.8	98.770	-0.380	0.730	1.170
2020/01/31 01:10:19.9	98.760	-0.390	0.700	1.150
2020/01/31 01:10:20.0	98.750	-0.400	0.670	1.140
2020/01/31 01:10:20.1	98.740	-0.400	0.630	1.120
2020/01/31 01:10:20.2	98.740	-0.400	0.580	1.100
2020/01/31 01:10:20.3	98.740	-0.400	0.530	1.080
2020/01/31 01:10:20.4	98.740	-0.400	0.470	1.060
2020/01/31 01:10:20.5	98.740	-0.390	0.400	1.040
2020/01/31 01:10:20.6	98.750	-0.380	0.330	1.010
2020/01/31 01:10:20.7	98.770	-0.360	0.260	0.990
2020/01/31 01:10:20.8	98.780	-0.350	0.180	0.960
2020/01/31 01:10:20.9	98.800	-0.330	0.100	0.930
2020/01/31 01:10:21.0	98.820	-0.310	0.010	0.900
2020/01/31 01:10:21.1	98.840	-0.280	-0.080	0.870
2020/01/31 01:10:21.2	98.870	-0.260	-0.170	0.840
2020/01/31 01:10:21.3	98.900	-0.230	-0.260	0.810
2020/01/31 01:10:21.4	98.930	-0.200	-0.350	0.780
2020/01/31 01:10:21.5	98.960	-0.170	-0.440	0.750
2020/01/31 01:10:21.6	99.000	-0.130	-0.530	0.720
2020/01/31 01:10:21.7	99.030	-0.100	-0.620	0.700
2020/01/31 01:10:21.8	99.060	-0.060	-0.710	0.670
2020/01/31 01:10:21.9	99.100	-0.030	-0.790	0.650
2020/01/31 01:10:22.0	99.130	0.010	-0.870	0.620
2020/01/31 01:10:22.1	99.160	0.040	-0.940	0.600
2020/01/31 01:10:22.2	99.200	0.080	-1.000	0.590
2020/01/31 01:10:22.3	99.230	0.110	-1.060	0.570
2020/01/31 01:10:22.4	99.260	0.140	-1.110	0.560
2020/01/31 01:10:22.5	99.290	0.170	-1.160	0.550
2020/01/31 01:10:22.6	99.320	0.200	-1.190	0.540
2020/01/31 01:10:22.7	99.350	0.230	-1.220	0.540
2020/01/31 01:10:22.8	99.370	0.250	-1.230	0.540
2020/01/31 01:10:22.9	99.400	0.270	-1.240	0.540
2020/01/31 01:10:23.0	99.410	0.290	-1.240	0.540
2020/01/31 01:10:23.1	99.430	0.310	-1.230	0.550
2020/01/31 01:10:23.2	99.440	0.320	-1.210	0.560
2020/01/31 01:10:23.3	99.460	0.330	-1.180	0.570
2020/01/31 01:10:23.4	99.470	0.340	-1.150	0.590
2020/01/31 01:10:23.5	99.480	0.340	-1.100	0.600
2020/01/31 01:10:23.6	99.480	0.350	-1.050	0.630
2020/01/31 01:10:23.7	99.480	0.340	-0.990	0.650
2020/01/31 01:10:23.8	99.480	0.340	-0.920	0.670
2020/01/31 01:10:23.9	99.480	0.330	-0.850	0.700
2020/01/31 01:10:24.0	99.490	0.320	-0.770	0.740
2020/01/31 01:10:24.1	99.480	0.310	-0.680	0.770
2020/01/31 01:10:24.2	99.470	0.290	-0.600	0.810
2020/01/31 01:10:24.3	99.460	0.280	-0.510	0.840
2020/01/31 01:10:24.4	99.450	0.260	-0.410	0.890
2020/01/31 01:10:24.5	99.430	0.240	-0.320	0.930
2020/01/31 01:10:24.6	99.410	0.220	-0.220	0.970
2020/01/31 01:10:24.7	99.380	0.190	-0.130	1.020
2020/01/31 01:10:24.8	99.360	0.170	-0.030	1.070
2020/01/31 01:10:24.9	99.330	0.150	0.060	1.120
2020/01/31 01:10:25.0	99.310	0.120	0.160	1.170
2020/01/31 01:10:25.1	99.270	0.100	0.240	1.230
2020/01/31 01:10:25.2	99.240	0.070	0.330	1.280
2020/01/31 01:10:25.3	99.200	0.050	0.410	1.330
2020/01/31 01:10:25.4	99.160	0.020	0.490	1.380
2020/01/31 01:10:25.5	99.120	0.000	0.560	1.440
2020/01/31 01:10:25.6	99.070	-0.020	0.620	1.490
2020/01/31 01:10:25.7	99.030	-0.040	0.680	1.540
2020/01/31 01:10:25.8	98.980	-0.060	0.730	1.590
2020/01/31 01:10:25.9	98.930	-0.080	0.780	1.640
2020/01/31 01:10:26.0	98.870	-0.090	0.820	1.680
2020/01/31 01:10:26.1	98.820	-0.110	0.850	1.730
2020/01/31 01:10:26.2	98.770	-0.120	0.870	1.770
2020/01/31 01:10:26.3	98.720	-0.130	0.890	1.810
2020/01/31 01:10:26.4	98.670	-0.140	0.890	1.840
2020/01/31 01:10:26.5	98.620	-0.140	0.900	1.880
2020/01/31 01:10:26.6	98.570	-0.150	0.890	1.910
2020/01/31 01:10:26.7	98.520	-0.150	0.880	1.930
2020/01/31 01:10:26.8	98.480	-0.150	0.850	1.960
2020/01/31 01:10:26.9	98.430	-0.140	0.830	1.970
2020/01/31 01:10:27.0	98.400	-0.140	0.800	1.990
2020/01/31 01:10:27.1	98.360	-0.130	0.750	2.000
2020/01/31 01:10:27.2	98.320	-0.120	0.710	2.000
2020/01/31 01:10:27.3	98.290	-0.110	0.650	2.000
2020/01/31 01:10:27.4	98.260	-0.100	0.590	1.990
2020/01/31 01:10:27.5	98.240	-0.090	0.530	1.980
2020/01/31 01:10:27.6	98.210	-0.070	0.460	1.960
2020/01/31 01:10:27.7	98.200	-0.060	0.390	1.940
2020/01/31 01:10:27.8	98.180	-0.040	0.310	1.920
2020/01/31 01:10:27.9	98.170	-0.020	0.230	1.890
2020/01/31 01:10:28.0	98.140	-0.000	0.140	1.860
2020/01/31 01:10:28.1	98.130	0.020	0.050	1.820
2020/01/31 01:10:28.2	98.130	0.040	-0.040	1.780
2020/01/31 01:10:28.3	98.130	0.060	-0.130	1.730
2020/01/31 01:10:28.4	98.140	0.080	-0.220	1.680
2020/01/31 01:10:28.5	98.150	0.100	-0.310	1.630
2020/01/31 01:10:28.6	98.160	0.120	-0.400	1.580
2020/01/31 01:10:28.7	98.170	0.140	-0.490	1.520
2020/01/31 01:10:28.8	98.190	0.160	-0.570	1.460
2020/01/31 01:10:28.9	98.210	0.180	-0.660	1.400
2020/01/31 01:10:29.0	98.220	0.200	-0.740	1.330
2020/01/31 01:10:29.1	98.240	0.220	-0.820	1.270
2020/01/31 01:10:29.2	98.270	0.240	-0.890	1.210
2020/01/31 01:10:29.3	98.300	0.250	-0.960	1.140
2020/01/31 01:10:29.4	98.330	0.260	-1.030	1.080
2020/01/31 01:10:29.5	98.360	0.280	-1.090	1.010
2020/01/31 01:10:29.6	98.390	0.290	-1.140	0.950
2020/01/31 01:10:29.7	98.420	0.290	-1.180	0.890
2020/01/31 01:10:29.8	98.460	0.300	-1.220	0.830
2020/01/31 01:10:29.9	98.490	0.300	-1.260	0.770
2020/01/31 01:10:30.0	98.530	0.310	-1.280	0.720
2020/01/31 01:10:30.1	98.570	0.310	-1.300	0.670
2020/01/31 01:10:30.2	98.610	0.300	-1.310	0.620
2020/01/31 01:10:30.3	98.640	0.300	-1.300	0.580
2020/01/31 01:10:30.4	98.680	0.290	-1.300	0.540
2020/01/31 01:10:30.5	98.720	0.280	-1.280	0.500
2020/01/31 01:10:30.6	98.750	0.270	-1.260	0.470
2020/01/31 01:10:30.7	98.790	0.250	-1.220	0.450
2020/01/31 01:10:30.8	98.820	0.230	-1.180	0.420
2020/01/31 01:10:30.9	98.850	0.220	-1.140	0.410
2020/01/31 01:10:31.0	98.880	0.190	-1.080	0.400
2020/01/31 01:10:31.1	98.910	0.170	-1.020	0.400
2020/01/31 01:10:31.2	98.940	0.140	-0.950	0.400
2020/01/31 01:10:31.3	98.970	0.120	-0.880	0.410
2020/01/31 01:10:31.4	98.990	0.090	-0.810	0.420
2020/01/31 01:10:31.5	99.010	0.060	-0.730	0.440
2020/01/31 01:10:31.6	99.030	0.020	-0.640	0.470
2020/01/31 01:10:31.7	99.050	-0.010	-0.560	0.500
2020/01/31 01:10:31.8	99.070	-0.050	-0.470	0.530
2020/01/31 01:10:31.9	99.080	-0.080	-0.380	0.570
2020/01/31 01:10:32.0	99.090	-0.120	-0.280	0.620
2020/01/31 01:10:32.1	99.100	-0.160	-0.190	0.670
2020/01/31 01:10:32.2	99.100	-0.190	-0.090	0.720
2020/01/31 01:10:32.3	99.100	-0.230	0.000	0.780
2020/01/31 01:10:32.4	99.100	-0.270	0.100	0.840
2020/01/31 01:10:32.5	99.100	-0.310	0.190	0.900
2020/01/31 01:10:32.6	99.090	-0.350	0.280	0.970
2020/01/31 01:10:32.7	99.080	-0.380	0.370	1.030
2020/01/31 01:10:32.8	99.060	-0.420	0.450	1.110
2020/01/31 01:10:32.9	99.040	-0.460	0.540	1.180
2020/01/31 01:10:33.0	99.020	-0.490	0.610	1.250
2020/01/31 01:10:33.1	98.990	-0.530	0.690	1.320
2020/01/31 01:10:33.2	98.970	-0.560	0.750	1.400
2020/01/31 01:10:33.3	98.940	-0.590	0.820	1.470
2020/01/31 01:10:33.4	98.910	-0.620	0.870	1.550
2020/01/31 01:10:33.5	98.880	-0.650	0.920	1.620
2020/01/31 01:10:33.6	98.840	-0.670	0.960	1.700
2020/01/31 01:10:33.7	98.810	-0.690	1.000	1.770
2020/01/31 01:10:33.8	98.770	-0.710	1.030	1.840
2020/01/31 01:10:33.9	98.730	-0.730	1.050	1.910
2020/01/31 01:10:34.0	98.690	-0.740	1.060	1.980
2020/01/31 01:10:34.1	98.650	-0.750	1.070	2.040
2020/01/31 01:10:34.2	98.610	-0.760	1.060	2.100
2020/01/31 01:10:34.3	98.560	-0.770	1.050	2.160
2020/01/31 01:10:34.4	98.520	-0.770	1.020	2.210
2020/01/31 01:10:34.5	98.480	-0.770	0.990	2.260
2020/01/31 01:10:34.6	98.440	-0.760	0.960	2.310
2020/01/31 01:10:34.7	98.390	-0.750	0.910	2.350
2020/01/31 01:10:34.8	98.350	-0.740	0.860	2.380
2020/01/31 01:10:34.9	98.310	-0.720	0.790	2.410
2020/01/31 01:10:35.0	98.280	-0.700	0.730	2.440
2020/01/31 01:10:35.1	98.240	-0.670	0.650	2.460
2020/01/31 01:10:35.2	98.210	-0.650	0.570	2.470
2020/01/31 01:10:35.3	98.180	-0.610	0.490	2.480
2020/01/31 01:10:35.4	98.150	-0.580	0.400	2.480
2020/01/31 01:10:35.5	98.120	-0.540	0.300	2.480
2020/01/31 01:10:35.6	98.090	-0.500	0.210	2.470
2020/01/31 01:10:35.7	98.070	-0.460	0.110	2.450
2020/01/31 01:10:35.8	98.050	-0.410	0.010	2.430
2020/01/31 01:10:35.9	98.030	-0.360	-0.090	2.410
2020/01/31 01:10:36.0	98.020	-0.310	-0.200	2.380
2020/01/31 01:10:36.1	98.010	-0.260	-0.300	2.340
2020/01/31 01:10:36.2	98.000	-0.200	-0.390	2.300
2020/01/31 01:10:36.3	97.990	-0.140	-0.490	2.250
2020/01/31 01:10:36.4	97.990	-0.090	-0.580	2.200
2020/01/31 01:10:36.5	97.990	-0.030	-0.670	2.150
2020/01/31 01:10:36.6	97.990	0.030	-0.750	2.090
2020/01/31 01:10:36.7	97.990	0.090	-0.830	2.030
2020/01/31 01:10:36.8	97.990	0.140	-0.900	1.960
2020/01/31 01:10:36.9	98.000	0.200	-0.970	1.900
2020/01/31 01:10:37.0	98.000	0.260	-1.030	1.830
2020/01/31 01:10:37.1	98.010	0.310	-1.080	1.760
2020/01/31 01:10:37.2	98.020	0.360	-1.120	1.680
2020/01/31 01:10:37.3	98.020	0.420	-1.160	1.610
2020/01/31 01:10:37.4	98.030	0.460	-1.190	1.530
2020/01/31 01:10:37.5	98.040	0.510	-1.210	1.460
2020/01/31 01:10:37.6	98.050	0.550	-1.220	1.380
2020/01/31 01:10:37.7	98.060	0.600	-1.220	1.300
2020/01/31 01:10:37.8	98.070	0.630	-1.220	1.220
2020/01/31 01:10:37.9	98.090	0.670	-1.210	1.140
2020/01/31 01:10:38.0	98.100	0.700	-1.190	1.060
2020/01/31 01:10:38.1	98.110	0.730	-1.160	0.980
2020/01/31 01:10:38.2	98.130	0.750	-1.120	0.900
2020/01/31 01:10:38.3	98.140	0.770	-1.080	0.820
2020/01/31 01:10:38.4	98.160	0.790	-1.030	0.740
2020/01/31 01:10:38.5	98.170	0.800	-0.980	0.650
2020/01/31 01:10:38.6	98.190	0.810	-0.920	0.570
2020/01/31 01:10:38.7	98.200	0.810	-0.860	0.490
2020/01/31 01:10:38.8	98.220	0.810	-0.790	0.410
2020/01/31 01:10:38.9	98.240	0.810	-0.720	0.330
2020/01/31 01:10:39.0	98.240	0.810	-0.640	0.260
2020/01/31 01:10:39.1	98.260	0.800	-0.560	0.180
2020/01/31 01:10:39.2	98.280	0.790	-0.490	0.110
2020/01/31 01:10:39.3	98.290	0.770	-0.400	0.040
2020/01/31 01:10:39.4	98.310	0.750	-0.320	-0.030
2020/01/31 01:10:39.5	98.320	0.730	-0.240	-0.100
2020/01/31 01:10:39.6	98.340	0.710	-0.160	-0.160
2020/01/31 01:10:39.7	98.350	0.680	-0.080	-0.210
2020/01/31 01:10:39.8	98.360	0.660	-0.000	-0.270
2020/01/31 01:10:39.9	98.380	0.630	0.070	-0.310
2020/01/31 01:10:40.0	98.380	0.590	0.140	-0.360
2020/01/31 01:10:40.1	98.390	0.560	0.210	-0.400
2020/01/31 01:10:40.2	98.400	0.530	0.280	-0.430
2020/01/31 01:10:40.3	98.410	0.490	0.340	-0.460
2020/01/31 01:10:40.4	98.420	0.460	0.390	-0.480
2020/01/31 01:10:40.5	98.420	0.420	0.440	-0.490
2020/01/31 01:10:40.6	98.420	0.390	0.490	-0.500
2020/01/31 01:10:40.7	98.420	0.350	0.520	-0.500
2020/01/31 01:10:40.8	98.420	0.320	0.550	-0.500
2020/01/31 01:10:40.9	98.420	0.280	0.580	-0.490
2020/01/31 01:10:41.0	98.420	0.250	0.600	-0.470
2020/01/31 01:10:41.1	98.410	0.220	0.610	-0.440
2020/01/31 01:10:41.2	98.400	0.180	0.610	-0.410
2020/01/31 01:10:41.3	98.390	0.150	0.610	-0.380
2020/01/31 01:10:41.4	98.380	0.120	0.600	-0.330
2020/01/31 01:10:41.5	98.360	0.090	0.580	-0.290
2020/01/31 01:10:41.6	98.350	0.070	0.560	-0.230
2020/01/31 01:10:41.7	98.330	0.040	0.530	-0.170
2020/01/31 01:10:41.8	98.310	0.010	0.500	-0.110
2020/01/31 01:10:41.9	98.300	-0.010	0.460	-0.050
2020/01/31 01:10:42.0	98.280	-0.030	0.410	0.020
2020/01/31 01:10:42.1	98.260	-0.050	0.370	0.100
2020/01/31 01:10:42.2	98.240	-0.070	0.320	0.170
2020/01/31 01:10:42.3	98.220	-0.090	0.260	0.250
2020/01/31 01:10:42.4	98.210	-0.110	0.210	0.320
2020/01/31 01:10:42.5	98.190	-0.120	0.150	0.400
2020/01/31 01:10:42.6	98.170	-0.140	0.090	0.480
2020/01/31 01:10:42.7	98.160	-0.150	0.030	0.560
2020/01/31 01:10:42.8	98.140	-0.160	-0.030	0.640
2020/01/31 01:10:42.9	98.130	-0.170	-0.080	0.730
2020/01/31 01:10:43.0	98.100	-0.180	-0.150	0.810
2020/01/31 01:10:43.1	98.090	-0.190	-0.200	0.890
2020/01/31 01:10:43.2	98.080	-0.200	-0.260	0.970
2020/01/31 01:10:43.3	98.070	-0.210	-0.310	1.050
2020/01/31 01:10:43.4	98.060	-0.220	-0.360	1.140
2020/01/31 01:10:43.5	98.050	-0.220	-0.400	1.220
2020/01/31 01:10:43.6	98.040	-0.230	-0.440	1.300
2020/01/31 01:10:43.7	98.030	-0.240	-0.480	1.380
2020/01/31 01:10:43.8	98.020	-0.240	-0.520	1.470
2020/01/31 01:10:43.9	98.010	-0.250	-0.550	1.550
2020/01/31 01:10:44.0	98.010	-0.250	-0.570	1.630
2020/01/31 01:10:44.1	98.010	-0.260	-0.590	1.710
2020/01/31 01:10:44.2	98.000	-0.260	-0.610	1.790
2020/01/31 01:10:44.3	98.000	-0.270	-0.630	1.870
2020/01/31 01:10:44.4	97.990	-0.270	-0.630	1.940
2020/01/31 01:10:44.5	97.990	-0.270	-0.640	2.020
2020/01/31 01:10:44.6	97.990	-0.280	-0.640	2.090
2020/01/31 01:10:44.7	97.990	-0.280	-0.640	2.160
2020/01/31 01:10:44.8	97.990	-0.280	-0.630	2.230
2020/01/31 01:10:44.9	97.990	-0.290	-0.620	2.300
2020/01/31 01:10:45.0	98.000	-0.290	-0.610	2.360
2020/01/31 01:10:45.1	98.000	-0.290	-0.590	2.420
2020/01/31 01:10:45.2	98.010	-0.300	-0.570	2.480
2020/01/31 01:10:45.3	98.010	-0.300	-0.550	2.530
2020/01/31 01:10:45.4	98.010	-0.300	-0.520	2.580
2020/01/31 01:10:45.5	98.020	-0.300	-0.490	2.620
2020/01/31 01:10:45.6	98.020	-0.310	-0.470	2.670
2020/01/31 01:10:45.7	98.030	-0.310	-0.440	2.700
2020/01/31 01:10:45.8	98.040	-0.310	-0.400	2.740
2020/01/31 01:10:45.9	98.040	-0.310	-0.370	2.770
2020/01/31 01:10:46.0	98.050	-0.310	-0.340	2.790
2020/01/31 01:10:46.1	98.050	-0.310	-0.310	2.810
2020/01/31 01:10:46.2	98.060	-0.310	-0.280	2.830
2020/01/31 01:10:46.3	98.060	-0.310	-0.240	2.840
2020/01/31 01:10:46.4	98.070	-0.310	-0.210	2.840
2020/01/31 01:10:46.5	98.070	-0.300	-0.180	2.850
2020/01/31 01:10:46.6	98.070	-0.300	-0.150	2.840
2020/01/31 01:10:46.7	98.070	-0.300	-0.120	2.840
2020/01/31 01:10:46.8	98.070	-0.290	-0.100	2.830
2020/01/31 01:10:46.9	98.070	-0.290	-0.070	2.810
2020/01/31 01:10:47.0	98.060	-0.290	-0.040	2.790
2020/01/31 01:10:47.1	98.060	-0.280	-0.010	2.770
2020/01/31 01:10:47.2	98.060	-0.280	0.010	2.750
2020/01/31 01:10:47.3	98.050	-0.280	0.030	2.720
2020/01/31 01:10:47.4	98.040	-0.270	0.060	2.680
2020/01/31 01:10:47.5	98.040	-0.270	0.080	2.650
2020/01/31 01:10:47.6	98.030	-0.260	0.100	2.600
2020/01/31 01:10:47.7	98.020	-0.260	0.120	2.560
2020/01/31 01:10:47.8	98.000	-0.260	0.140	2.510
2020/01/31 01:10:47.9	97.990	-0.250	0.160	2.470
2020/01/31 01:10:48.0	97.970	-0.250	0.180	2.410
2020/01/31 01:10:48.1	97.960	-0.250	0.200	2.350
2020/01/31 01:10:48.2	97.940	-0.240	0.220	2.290
2020/01/31 01:10:48.3	97.930	-0.240	0.230	2.230
2020/01/31 01:10:48.4	97.920	-0.240	0.250	2.170
2020/01/31 01:10:48.5	97.900	-0.240	0.260	2.100
2020/01/31 01:10:48.6	97.890	-0.230	0.280	2.030
2020/01/31 01:10:48.7	97.880	-0.230	0.290	1.960
2020/01/31 01:10:48.8	97.870	-0.230	0.300	1.890
2020/01/31 01:10:48.9	97.850	-0.220	0.300	1.810
2020/01/31 01:10:49.0	97.850	-0.220	0.310	1.730
2020/01/31 01:10:49.1	97.840	-0.220	0.320	1.650
2020/01/31 01:10:49.2	97.830	-0.210	0.320	1.560
2020/01/31 01:10:49.3	97.820	-0.210	0.310	1.480
2020/01/31 01:10:49.4	97.820	-0.200	0.310	1.390
2020/01/31 01:10:49.5	97.810	-0.190	0.300	1.300
2020/01/31 01:10:49.6	97.810	-0.190	0.290	1.210
2020/01/31 01:10:49.7	97.810	-0.180	0.270	1.120
2020/01/31 01:10:49.8	97.810	-0.170	0.250	1.020
2020/01/31 01:10:49.9	97.810	-0.160	0.220	0.930
2020/01/31 01:10:50.0	97.800	-0.150	0.190	0.830
2020/01/31 01:10:50.1	97.800	-0.140	0.160	0.740
2020/01/31 01:10:50.2	97.800	-0.130	0.120	0.640
2020/01/31 01:10:50.3	97.810	-0.110	0.080	0.550
2020/01/31 01:10:50.4	97.820	-0.100	0.040	0.450
2020/01/31 01:10:50.5	97.820	-0.080	-0.010	0.360
2020/01/31 01:10:50.6	97.830	-0.070	-0.060	0.260
2020/01/31 01:10:50.7	97.840	-0.050	-0.110	0.170
2020/01/31 01:10:50.8	97.850	-0.030	-0.170	0.080
2020/01/31 01:10:50.9	97.860	-0.010	-0.230	-0.010
2020/01/31 01:10:51.0	97.880	0.010	-0.280	-0.100
2020/01/31 01:10:51.1	97.890	0.040	-0.340	-0.190
2020/01/31 01:10:51.2	97.910	0.060	-0.400	-0.280
2020/01/31 01:10:51.3	97.920	0.090	-0.460	-0.360
2020/01/31 01:10:51.4	97.940	0.110	-0.520	-0.450
2020/01/31 01:10:51.5	97.950	0.140	-0.580	-0.530
2020/01/31 01:10:51.6	97.970	0.160	-0.640	-0.600
2020/01/31 01:10:51.7	97.980	0.190	-0.700	-0.680
2020/01/31 01:10:51.8	98.000	0.210	-0.750	-0.750
2020/01/31 01:10:51.9	98.010	0.240	-0.800	-0.820
2020/01/31 01:10:52.0	98.010	0.270	-0.840	-0.880
2020/01/31 01:10:52.1	98.030	0.290	-0.890	-0.940
2020/01/31 01:10:52.2	98.040	0.310	-0.920	-1.000
2020/01/31 01:10:52.3	98.060	0.340	-0.950	-1.050
2020/01/31 01:10:52.4	98.070	0.360	-0.980	-1.090
2020/01/31 01:10:52.5	98.080	0.380	-1.000	-1.130
2020/01/31 01:10:52.6	98.090	0.390	-1.010	-1.170
2020/01/31 01:10:52.7	98.100	0.410	-1.020	-1.190
2020/01/31 01:10:52.8	98.110	0.420	-1.020	-1.220
2020/01/31 01:10:52.9	98.120	0.430	-1.020	-1.230
2020/01/31 01:10:53.0	98.110	0.440	-1.000	-1.240
2020/01/31 01:10:53.1	98.120	0.450	-0.980	-1.240
2020/01/31 01:10:53.2	98.120	0.450	-0.950	-1.240
2020/01/31 01:10:53.3	98.130	0.450	-0.920	-1.230
2020/01/31 01:10:53.4	98.130	0.450	-0.880	-1.210
2020/01/31 01:10:53.5	98.130	0.450	-0.830	-1.190
2020/01/31 01:10:53.6	98.130	0.440	-0.780	-1.160
2020/01/31 01:10:53.7	98.130	0.430	-0.720	-1.130
2020/01/31 01:10:53.8	98.130	0.420	-0.650	-1.090
2020/01/31 01:10:53.9	98.120	0.400	-0.590	-1.040
2020/01/31 01:10:54.0	98.130	0.390	-0.510	-0.990
2020/01/31 01:10:54.1	98.120	0.370	-0.440	-0.930
2020/01/31 01:10:54.2	98.110	0.340	-0.360	-0.870
2020/01/31 01:10:54.3	98.100	0.320	-0.270	-0.800
2020/01/31 01:10:54.4	98.100	0.290	-0.190	-0.730
2020/01/31 01:10:54.5	98.090	0.270	-0.110	-0.650
2020/01/31 01:10:54.6	98.080	0.240	-0.020	-0.570
2020/01/31 01:10:54.7	98.070	0.210	0.060	-0.490
2020/01/31 01:10:54.8	98.050	0.170	0.140	-0.400
2020/01/31 01:10:54.9	98.040	0.140	0.230	-0.310
2020/01/31 01:10:55.0	98.040	0.110	0.310	-0.220
2020/01/31 01:10:55.1	98.030	0.070	0.380	-0.120
2020/01/31 01:10:55.2	98.020	0.040	0.460	-0.030
2020/01/31 01:10:55.3	98.000	0.000	0.530	0.070
2020/01/31 01:10:55.4	97.990	-0.030	0.590	0.170
2020/01/31 01:10:55.5	97.970	-0.060	0.650	0.270
2020/01/31 01:10:55.6	97.960	-0.090	0.710	0.380
2020/01/31 01:10:55.7	97.940	-0.130	0.750	0.480
2020/01/31 01:10:55.8	97.930	-0.150	0.800	0.580
2020/01/31 01:10:55.9	97.910	-0.180	0.830	0.680
2020/01/31 01:10:56.0	97.910	-0.210	0.860	0.790
2020/01/31 01:10:56.1	97.900	-0.230	0.890	0.890
2020/01/31 01:10:56.2	97.880	-0.250	0.900	0.990
2020/01/31 01:10:56.3	97.870	-0.270	0.910	1.090
2020/01/31 01:10:56.4	97.860	-0.280	0.910	1.190
2020/01/31 01:10:56.5	97.850	-0.290	0.900	1.290
2020/01/31 01:10:56.6	97.840	-0.300	0.890	1.380
2020/01/31 01:10:56.7	97.840	-0.310	0.860	1.470
2020/01/31 01:10:56.8	97.840	-0.310	0.830	1.550
2020/01/31 01:10:56.9	97.840	-0.310	0.800	1.640
2020/01/31 01:10:57.0	97.840	-0.300	0.750	1.710
2020/01/31 01:10:57.1	97.840	-0.300	0.700	1.790
2020/01/31 01:10:57.2	97.850	-0.290	0.640	1.860
2020/01/31 01:10:57.3	97.860	-0.270	0.580	1.920
2020/01/31 01:10:57.4	97.870	-0.250	0.510	1.980
2020/01/31 01:10:57.5	97.890	-0.230	0.440	2.040
2020/01/31 01:10:57.6	97.900	-0.210	0.360	2.090
2020/01/31 01:10:57.7	97.920	-0.180	0.280	2.140
2020/01/31 01:10:57.8	97.940	-0.160	0.200	2.190
2020/01/31 01:10:57.9	97.970	-0.130	0.110	2.230
2020/01/31 01:10:58.0	97.990	-0.090	0.020	2.270
2020/01/31 01:10:58.1	98.020	-0.060	-0.070	2.310
2020/01/31 01:10:58.2	98.050	-0.030	-0.160	2.340
2020/01/31 01:10:58.3	98.080	0.010	-0.250	2.380
2020/01/31 01:10:58.4	98.100	0.050	-0.340	2.410
2020/01/31 01:10:58.5	98.130	0.080	-0.430	2.430
2020/01/31 01:10:58.6	98.160	0.120	-0.520	2.460
2020/01/31 01:10:58.7	98.180	0.150	-0.600	2.480
2020/01/31 01:10:58.8	98.210	0.190	-0.680	2.510
2020/01/31 01:10:58.9	98.230	0.220	-0.750	2.530
2020/01/31 01:10:59.0	98.260	0.260	-0.810	2.550
2020/01/31 01:10:59.1	98.280	0.290	-0.880	2.570
2020/01/31 01:10:59.2	98.300	0.320	-0.940	2.590
2020/01/31 01:10:59.3	98.310	0.350	-0.990	2.600
2020/01/31 01:10:59.4	98.330	0.370	-1.030	2.620
2020/01/31 01:10:59.5	98.340	0.390	-1.070	2.640
2020/01/31 01:10:59.6	98.350	0.410	-1.100	2.650
2020/01/31 01:10:59.7	98.360	0.430	-1.130	2.660
2020/01/31 01:10:59.8	98.370	0.440	-1.140	2.670
2020/01/31 01:10:59.9	98.380	0.450	-1.150	2.680
2020/01/31 01:11:00.0	98.390	0.460	-1.160	2.690
2020/01/31 01:11:00.1	98.390	0.460	-1.160	2.690
2020/01/31 01:11:00.2	98.390	0.460	-1.140	2.700
2020/01/31 01:11:00.3	98.400	0.460	-1.120	2.700
2020/01/31 01:11:00.4	98.400	0.450	-1.090	2.700
2020/01/31 01:11:00.5	98.400	0.440	-1.060	2.690
2020/01/31 01:11:00.6	98.400	0.430	-1.020	2.690
2020/01/31 01:11:00.7	98.390	0.410	-0.970	2.680
2020/01/31 01:11:00.8	98.390	0.390	-0.920	2.670
2020/01/31 01:11:00.9	98.390	0.370	-0.860	2.650
2020/01/31 01:11:01.0	98.390	0.340	-0.790	2.640
2020/01/31 01:11:01.1	98.390	0.320	-0.720	2.620
2020/01/31 01:11:01.2	98.380	0.290	-0.650	2.600
2020/01/31 01:11:01.3	98.370	0.250	-0.580	2.580
2020/01/31 01:11:01.4	98.360	0.220	-0.500	2.550
2020/01/31 01:11:01.5	98.350	0.190	-0.420	2.530
2020/01/31 01:11:01.6	98.340	0.150	-0.340	2.500
2020/01/31 01:11:01.7	98.330	0.110	-0.260	2.470
2020/01/31 01:11:01.8	98.320	0.080	-0.180	2.440
2020/01/31 01:11:01.9	98.310	0.040	-0.100	2.400
2020/01/31 01:11:02.0	98.280	0.010	-0.030	2.360
2020/01/31 01:11:02.1	98.260	-0.030	0.050	2.330
2020/01/31 01:11:02.2	98.250	-0.060	0.120	2.290
2020/01/31 01:11:02.3	98.230	-0.090	0.190	2.250
2020/01/31 01:11:02.4	98.210	-0.130	0.260	2.210
2020/01/31 01:11:02.5	98.200	-0.150	0.320	2.170
2020/01/31 01:11:02.6	98.180	-0.180	0.380	2.130
2020/01/31 01:11:02.7	98.160	-0.210	0.430	2.090
2020/01/31 01:11:02.8	98.140	-0.230	0.480	2.040
2020/01/31 01:11:02.9	98.120	-0.250	0.530	2.000
2020/01/31 01:11:03.0	98.090	-0.270	0.570	1.950
2020/01/31 01:11:03.1	98.070	-0.290	0.600	1.900
2020/01/31 01:11:03.2	98.050	-0.300	0.620	1.850
2020/01/31 01:11:03.3	98.030	-0.310	0.640	1.800
2020/01/31 01:11:03.4	98.020	-0.320	0.660	1.750
2020/01/31 01:11:03.5	98.000	-0.330	0.670	1.700
2020/01/31 01:11:03.6	97.980	-0.340	0.670	1.640
2020/01/31 01:11:03.7	97.960	-0.340	0.670	1.580
2020/01/31 01:11:03.8	97.950	-0.340	0.660	1.520
2020/01/31 01:11:03.9	97.930	-0.340	0.640	1.460
2020/01/31 01:11:04.0	97.910	-0.340	0.620	1.400
2020/01/31 01:11:04.1	97.890	-0.330	0.590	1.330
2020/01/31 01:11:04.2	97.880	-0.330	0.570	1.260
2020/01/31 01:11:04.3	97.870	-0.320	0.530	1.190
2020/01/31 01:11:04.4	97.860	-0.320	0.500	1.120
2020/01/31 01:11:04.5	97.850	-0.310	0.460	1.050
2020/01/31 01:11:04.6	97.840	-0.300	0.410	0.980
2020/01/31 01:11:04.7	97.840	-0.290	0.370	0.900
2020/01/31 01:11:04.8	97.830	-0.280	0.320	0.830
2020/01/31 01:11:04.9	97.820	-0.270	0.270	0.750
2020/01/31 01:11:05.0	97.810	-0.260	0.220	0.660
2020/01/31 01:11:05.1	97.810	-0.250	0.170	0.580
2020/01/31 01:11:05.2	97.810	-0.250	0.110	0.500
2020/01/31 01:11:05.3	97.800	-0.240	0.060	0.420
2020/01/31 01:11:05.4	97.800	-0.230	0.010	0.340
2020/01/31 01:11:05.5	97.800	-0.220	-0.050	0.260
2020/01/31 01:11:05.6	97.800	-0.220	-0.100	0.180
2020/01/31 01:11:05.7	97.800	-0.210	-0.150	0.110
2020/01/31 01:11:05.8	97.810	-0.200	-0.190	0.030
2020/01/31 01:11:05.9	97.810	-0.200	-0.240	-0.050
2020/01/31 01:11:06.0	97.800	-0.190	-0.280	-0.120
2020/01/31 01:11:06.1	97.810	-0.190	-0.330	-0.190
2020/01/31 01:11:06.2	97.810	-0.190	-0.360	-0.260
2020/01/31 01:11:06.3	97.810	-0.190	-0.400	-0.320
2020/01/31 01:11:06.4	97.820	-0.180	-0.430	-0.390
2020/01/31 01:11:06.5	97.830	-0.180	-0.460	-0.450
2020/01/31 01:11:06.6	97.830	-0.180	-0.490	-0.510
2020/01/31 01:11:06.7	97.840	-0.180	-0.510	-0.560
2020/01/31 01:11:06.8	97.850	-0.180	-0.530	-0.620
2020/01/31 01:11:06.9	97.850	-0.170	-0.540	-0.660
2020/01/31 01:11:07.0	97.860	-0.170	-0.550	-0.710
2020/01/31 01:11:07.1	97.860	-0.170	-0.560	-0.750
2020/01/31 01:11:07.2	97.870	-0.170	-0.570	-0.780
2020/01/31 01:11:07.3	97.880	-0.160	-0.580	-0.810
2020/01/31 01:11:07.4	97.880	-0.160	-0.580	-0.830
2020/01/31 01:11:07.5	97.890	-0.160	-0.580	-0.850
2020/01/31 01:11:07.6	97.890	-0.150	-0.580	-0.860
2020/01/31 01:11:07.7	97.900	-0.140	-0.570	-0.860
2020/01/31 01:11:07.8	97.900	-0.140	-0.570	-0.860
2020/01/31 01:11:07.9	97.910	-0.130	-0.570	-0.850
2020/01/31 01:11:08.0	97.920	-0.120	-0.560	-0.840
2020/01/31 01:11:08.1	97.920	-0.100	-0.560	-0.820
2020/01/31 01:11:08.2	97.920	-0.090	-0.550	-0.790
2020/01/31 01:11:08.3	97.920	-0.080	-0.550	-0.760
2020/01/31 01:11:08.4	97.920	-0.060	-0.540	-0.730
2020/01/31 01:11:08.5	97.920	-0.040	-0.540	-0.690
2020/01/31 01:11:08.6	97.920	-0.020	-0.540	-0.640
2020/01/31 01:11:08.7	97.920	-0.000	-0.540	-0.590
2020/01/31 01:11:08.8	97.920	0.020	-0.540	-0.530
2020/01/31 01:11:08.9	97.910	0.040	-0.540	-0.470
2020/01/31 01:11:09.0	97.910	0.060	-0.530	-0.410
2020/01/31 01:11:09.1	97.910	0.080	-0.530	-0.340
2020/01/31 01:11:09.2	97.900	0.110	-0.530	-0.270
2020/01/31 01:11:09.3	97.900	0.130	-0.530	-0.200
2020/01/31 01:11:09.4	97.890	0.160	-0.530	-0.120
2020/01/31 01:11:09.5	97.890	0.180	-0.530	-0.040
2020/01/31 01:11:09.6	97.880	0.210	-0.530	0.040
2020/01/31 01:11:09.7	97.870	0.230	-0.530	0.120
2020/01/31 01:11:09.8	97.870	0.260	-0.530	0.200
2020/01/31 01:11:09.9	97.860	0.280	-0.520	0.280
2020/01/31 01:11:10.0	97.840	0.300	-0.520	0.370
2020/01/31 01:11:10.1	97.830	0.320	-0.510	0.450
2020/01/31 01:11:10.2	97.820	0.340	-0.500	0.540
2020/01/31 01:11:10.3	97.810	0.360	-0.490	0.620
2020/01/31 01:11:10.4	97.800	0.370	-0.480	0.700
2020/01/31 01:11:10.5	97.790	0.390	-0.460	0.790
2020/01/31 01:11:10.6	97.780	0.400	-0.440	0.870
2020/01/31 01:11:10.7	97.770	0.410	-0.420	0.950
2020/01/31 01:11:10.8	97.750	0.410	-0.390	1.030
2020/01/31 01:11:10.9	97.740	0.420	-0.360	1.110
2020/01/31 01:11:11.0	97.740	0.420	-0.330	1.190
2020/01/31 01:11:11.1	97.730	0.410	-0.300	1.260
2020/01/31 01:11:11.2	97.710	0.410	-0.260	1.340
2020/01/31 01:11:11.3	97.700	0.400	-0.220	1.410
2020/01/31 01:11:11.4	97.690	0.390	-0.180	1.480
2020/01/31 01:11:11.5	97.670	0.380	-0.140	1.540
2020/01/31 01:11:11.6	97.660	0.360	-0.100	1.610
2020/01/31 01:11:11.7	97.650	0.350	-0.050	1.670
2020/01/31 01:11:11.8	97.640	0.330	-0.000	1.730
2020/01/31 01:11:11.9	97.630	0.300	0.040	1.790
2020/01/31 01:11:12.0	97.620	0.280	0.090	1.850
2020/01/31 01:11:12.1	97.610	0.260	0.140	1.900
2020/01/31 01:11:12.2	97.600	0.230	0.190	1.950
2020/01/31 01:11:12.3	97.580	0.200	0.240	2.000
2020/01/31 01:11:12.4	97.570	0.170	0.280	2.050
2020/01/31 01:11:12.5	97.560	0.140	0.330	2.100
2020/01/31 01:11:12.6	97.550	0.110	0.380	2.140
2020/01/31 01:11:12.7	97.550	0.080	0.420	2.180
2020/01/31 01:11:12.8	97.540	0.050	0.460	2.210
2020/01/31 01:11:12.9	97.530	0.020	0.500	2.250
2020/01/31 01:11:13.0	97.540	-0.000	0.540	2.280
2020/01/31 01:11:13.1	97.530	-0.030	0.570	2.300
2020/01/31 01:11:13.2	97.530	-0.060	0.600	2.330
2020/01/31 01:11:13.3	97.530	-0.090	0.630	2.350
2020/01/31 01:11:13.4	97.520	-0.110	0.650	2.360
2020/01/31 01:11:13.5	97.520	-0.130	0.670	2.370
2020/01/31 01:11:13.6	97.520	-0.150	0.680	2.380
2020/01/31 01:11:13.7	97.520	-0.170	0.690	2.380
2020/01/31 01:11:13.8	97.520	-0.190	0.690	2.380
2020/01/31 01:11:13.9	97.530	-0.210	0.680	2.370
2020/01/31 01:11:14.0	97.540	-0.220	0.680	2.360
2020/01/31 01:11:14.1	97.550	-0.230	0.660	2.340
2020/01/31 01:11:14.2	97.560	-0.240	0.640	2.320
2020/01/31 01:11:14.3	97.570	-0.240	0.620	2.290
2020/01/31 01:11:14.4	97.580	-0.250	0.590	2.260
2020/01/31 01:11:14.5	97.590	-0.250	0.550	2.220
2020/01/31 01:11:14.6	97.610	-0.250	0.510	2.180
2020/01/31 01:11:14.7	97.620	-0.240	0.460	2.140
2020/01/31 01:11:14.8	97.640	-0.240	0.410	2.090
2020/01/31 01:11:14.9	97.650	-0.230	0.350	2.040
2020/01/31 01:11:15.0	97.660	-0.220	0.290	1.990
2020/01/31 01:11:15.1	97.680	-0.210	0.230	1.930
2020/01/31 01:11:15.2	97.700	-0.190	0.170	1.880
2020/01/31 01:11:15.3	97.720	-0.180	0.100	1.820
2020/01/31 01:11:15.4	97.730	-0.160	0.040	1.770
2020/01/31 01:11:15.5	97.750	-0.140	-0.030	1.710
2020/01/31 01:11:15.6	97.770	-0.120	-0.100	1.650
2020/01/31 01:11:15.7	97.790	-0.100	-0.170	1.600
2020/01/31 01:11:15.8	97.810	-0.080	-0.240	1.540
2020/01/31 01:11:15.9	97.820	-0.060	-0.300	1.490
2020/01/31 01:11:16.0	97.850	-0.040	-0.370	1.430
2020/01/31 01:11:16.1	97.870	-0.010	-0.430	1.380
2020/01/31 01:11:16.2	97.890	0.010	-0.490	1.330
2020/01/31 01:11:16.3	97.900	0.030	-0.540	1.280
2020/01/31 01:11:16.4	97.920	0.050	-0.600	1.230
2020/01/31 01:11:16.5	97.930	0.070	-0.640	1.190
2020/01/31 01:11:16.6	97.940	0.090	-0.690	1.150
2020/01/31 01:11:16.7	97.960	0.110	-0.730	1.110
2020/01/31 01:11:16.8	97.970	0.130	-0.770	1.070
2020/01/31 01:11:16.9	97.980	0.140	-0.800	1.040
2020/01/31 01:11:17.0	97.990	0.160	-0.830	1.010
2020/01/31 01:11:17.1	98.000	0.170	-0.850	0.980
2020/01/31 01:11:17.2	98.010	0.180	-0.870	0.950
2020/01/31 01:11:17.3	98.020	0.190	-0.890	0.920
2020/01/31 01:11:17.4	98.030	0.200	-0.900	0.890
2020/01/31 01:11:17.5	98.030	0.210	-0.900	0.870
2020/01/31 01:11:17.6	98.040	0.220	-0.910	0.840
2020/01/31 01:11:17.7	98.040	0.220	-0.900	0.820
2020/01/31 01:11:17.8	98.040	0.220	-0.900	0.800
2020/01/31 01:11:17.9	98.040	0.220	-0.890	0.780
2020/01/31 01:11:18.0	98.020	0.220	-0.870	0.750
2020/01/31 01:11:18.1	98.020	0.220	-0.860	0.740
2020/01/31 01:11:18.2	98.020	0.220	-0.830	0.720
2020/01/31 01:11:18.3	98.010	0.210	-0.810	0.700
2020/01/31 01:11:18.4	98.000	0.200	-0.780	0.690
2020/01/31 01:11:18.5	98.000	0.200	-0.750	0.680
2020/01/31 01:11:18.6	97.990	0.190	-0.720	0.660
2020/01/31 01:11:18.7	97.970	0.180	-0.680	0.650
2020/01/31 01:11:18.8	97.960	0.170	-0.640	0.640
2020/01/31 01:11:18.9	97.950	0.160	-0.600	0.630
2020/01/31 01:11:19.0	97.920	0.140	-0.560	0.630
2020/01/31 01:11:19.1	97.910	0.130	-0.510	0.620
2020/01/31 01:11:19.2	97.890	0.120	-0.470	0.610
2020/01/31 01:11:19.3	97.870	0.100	-0.420	0.600
2020/01/31 01:11:19.4	97.850	0.090	-0.370	0.600
2020/01/31 01:11:19.5	97.840	0.070	-0.330	0.590
2020/01/31 01:11:19.6	97.820	0.060	-0.280	0.590
2020/01/31 01:11:19.7	97.800	0.040	-0.230	0.580
2020/01/31 01:11:19.8	97.790	0.020	-0.180	0.580
2020/01/31 01:11:19.9	97.770	0.010	-0.140	0.570
2020/01/31 01:11:20.0	97.760	-0.010	-0.090	0.560
2020/01/31 01:11:20.1	97.740	-0.030	-0.050	0.550
2020/01/31 01:11:20.2	97.730	-0.040	-0.000	0.540
2020/01/31 01:11:20.3	97.720	-0.060	0.040	0.540
2020/01/31 01:11:20.4	97.710	-0.070	0.070	0.530
2020/01/31 01:11:20.5	97.710	-0.090	0.110	0.520
2020/01/31 01:11:20.6	97.700	-0.110	0.140	0.510
2020/01/31 01:11:20.7	97.700	-0.120	0.170	0.500
2020/01/31 01:11:20.8	97.690	-0.140	0.200	0.500
2020/01/31 01:11:20.9	97.690	-0.150	0.230	0.490
2020/01/31 01:11:21.0	97.670	-0.160	0.250	0.480
2020/01/31 01:11:21.1	97.670	-0.180	0.270	0.480
2020/01/31 01:11:21.2	97.680	-0.190	0.280	0.470
2020/01/31 01:11:21.3	97.680	-0.200	0.300	0.460
2020/01/31 01:11:21.4	97.680	-0.210	0.310	0.460
2020/01/31 01:11:21.5	97.690	-0.220	0.310	0.450
2020/01/31 01:11:21.6	97.700	-0.230	0.320	0.450
2020/01/31 01:11:21.7	97.700	-0.240	0.320	0.440
2020/01/31 01:11:21.8	97.710	-0.240	0.310	0.440
2020/01/31 01:11:21.9	97.720	-0.250	0.310	0.440
2020/01/31 01:11:22.0	97.740	-0.250	0.300	0.440
2020/01/31 01:11:22.1	97.760	-0.250	0.290	0.440
2020/01/31 01:11:22.2	97.770	-0.260	0.280	0.440
2020/01/31 01:11:22.3	97.780	-0.260	0.260	0.440
2020/01/31 01:11:22.4	97.800	-0.260	0.240	0.440
2020/01/31 01:11:22.5	97.820	-0.250	0.220	0.440
2020/01/31 01:11:22.6	97.840	-0.250	0.200	0.440
2020/01/31 01:11:22.7	97.860	-0.250	0.180	0.440
2020/01/31 01:11:22.8	97.880	-0.240	0.150	0.440
2020/01/31 01:11:22.9	97.900	-0.240	0.120	0.450
2020/01/31 01:11:23.0	97.930	-0.230	0.090	0.450
2020/01/31 01:11:23.1	97.950	-0.220	0.070	0.450
2020/01/31 01:11:23.2	97.980	-0.220	0.040	0.450
2020/01/31 01:11:23.3	98.010	-0.210	0.010	0.460
2020/01/31 01:11:23.4	98.040	-0.200	-0.020	0.460
2020/01/31 01:11:23.5	98.070	-0.190	-0.050	0.470
2020/01/31 01:11:23.6	98.090	-0.180	-0.070	0.470
2020/01/31 01:11:23.7	98.130	-0.170	-0.100	0.480
2020/01/31 01:11:23.8	98.150	-0.150	-0.120	0.490
2020/01/31 01:11:23.9	98.180	-0.140	-0.140	0.500
2020/01/31 01:11:24.0	98.220	-0.130	-0.160	0.510
2020/01/31 01:11:24.1	98.250	-0.120	-0.180	0.520
2020/01/31 01:11:24.2	98.280	-0.110	-0.190	0.540
2020/01/31 01:11:24.3	98.310	-0.090	-0.210	0.550
2020/01/31 01:11:24.4	98.330	-0.080	-0.220	0.570
2020/01/31 01:11:24.5	98.360	-0.070	-0.230	0.590
2020/01/31 01:11:24.6	98.380	-0.060	-0.230	0.610
2020/01/31 01:11:24.7	98.410	-0.050	-0.240	0.630
2020/01/31 01:11:24.8	98.430	-0.040	-0.240	0.650
2020/01/31 01:11:24.9	98.460	-0.030	-0.240	0.670
2020/01/31 01:11:25.0	98.480	-0.020	-0.240	0.700
2020/01/31 01:11:25.1	98.500	-0.010	-0.230	0.720
2020/01/31 01:11:25.2	98.520	0.000	-0.230	0.750
2020/01/31 01:11:25.3	98.540	0.010	-0.220	0.780
2020/01/31 01:11:25.4	98.560	0.020	-0.210	0.810
2020/01/31 01:11:25.5	98.570	0.030	-0.200	0.840
2020/01/31 01:11:25.6	98.590	0.040	-0.190	0.870
2020/01/31 01:11:25.7	98.600	0.050	-0.180	0.900
2020/01/31 01:11:25.8	98.610	0.050	-0.170	0.940
2020/01/31 01:11:25.9	98.620	0.060	-0.160	0.970
2020/01/31 01:11:26.0	98.620	0.070	-0.150	1.010
2020/01/31 01:11:26.1	98.630	0.070	-0.140	1.050
2020/01/31 01:11:26.2	98.630	0.080	-0.130	1.090
2020/01/31 01:11:26.3	98.630	0.080	-0.130	1.130
2020/01/31 01:11:26.4	98.630	0.090	-0.120	1.170
2020/01/31 01:11:26.5	98.620	0.090	-0.120	1.210
2020/01/31 01:11:26.6	98.620	0.100	-0.120	1.250
2020/01/31 01:11:26.7	98.610	0.100	-0.130	1.300
2020/01/31 01:11:26.8	98.600	0.100	-0.130	1.340
2020/01/31 01:11:26.9	98.590	0.110	-0.140	1.390
2020/01/31 01:11:27.0	98.580	0.110	-0.150	1.430
2020/01/31 01:11:27.1	98.570	0.110	-0.160	1.480
2020/01/31 01:11:27.2	98.550	0.110	-0.180	1.520
2020/01/31 01:11:27.3	98.540	0.120	-0.190	1.570
2020/01/31 01:11:27.4	98.520	0.120	-0.210	1.620
2020/01/31 01:11:27.5	98.500	0.120	-0.220	1.660
2020/01/31 01:11:27.6	98.480	0.120	-0.240	1.710
2020/01/31 01:11:27.7	98.470	0.130	-0.260	1.750
2020/01/31 01:11:27.8	98.450	0.130	-0.280	1.800
2020/01/31 01:11:27.9	98.430	0.130	-0.300	1.840
2020/01/31 01:11:28.0	98.400	0.130	-0.320	1.880
2020/01/31 01:11:28.1	98.390	0.130	-0.340	1.920
2020/01/31 01:11:28.2	98.370	0.130	-0.360	1.950
2020/01/31 01:11:28.3	98.350	0.130	-0.380	1.990
2020/01/31 01:11:28.4	98.340	0.130	-0.400	2.020
2020/01/31 01:11:28.5	98.320	0.130	-0.420	2.050
2020/01/31 01:11:28.6	98.310	0.130	-0.430	2.070
2020/01/31 01:11:28.7	98.300	0.130	-0.450	2.090
2020/01/31 01:11:28.8	98.300	0.130	-0.460	2.110
2020/01/31 01:11:28.9	98.290	0.120	-0.470	2.130
2020/01/31 01:11:29.0	98.270	0.120	-0.470	2.140
2020/01/31 01:11:29.1	98.270	0.120	-0.480	2.150
2020/01/31 01:11:29.2	98.270	0.110	-0.480	2.150
2020/01/31 01:11:29.3	98.270	0.110	-0.480	2.160
2020/01/31 01:11:29.4	98.270	0.110	-0.480	2.160
2020/01/31 01:11:29.5	98.280	0.100	-0.480	2.160
2020/01/31 01:11:29.6	98.280	0.100	-0.470	2.150
2020/01/31 01:11:29.7	98.290	0.090	-0.460	2.140
2020/01/31 01:11:29.8	98.300	0.090	-0.440	2.130
2020/01/31 01:11:29.9	98.310	0.080	-0.430	2.120
2020/01/31 01:11:30.0	98.310	0.070	-0.410	2.100
2020/01/31 01:11:30.1	98.330	0.070	-0.390	2.080
2020/01/31 01:11:30.2	98.340	0.060	-0.360	2.060
2020/01/31 01:11:30.3	98.350	0.060	-0.340	2.040
2020/01/31 01:11:30.4	98.360	0.050	-0.310	2.010
2020/01/31 01:11:30.5	98.380	0.050	-0.280	1.980
2020/01/31 01:11:30.6	98.390	0.040	-0.250	1.950
2020/01/31 01:11:30.7	98.410	0.040	-0.210	1.920
2020/01/31 01:11:30.8	98.420	0.030	-0.180	1.880
2020/01/31 01:11:30.9	98.440	0.030	-0.140	1.840
2020/01/31 01:11:31.0	98.460	0.020	-0.100	1.810
2020/01/31 01:11:31.1	98.480	0.020	-0.070	1.760
2020/01/31 01:11:31.2	98.500	0.010	-0.030	1.720
2020/01/31 01:11:31.3	98.520	0.010	0.010	1.670
2020/01/31 01:11:31.4	98.530	0.010	0.040	1.630
2020/01/31 01:11:31.5	98.550	0.010	0.080	1.580
2020/01/31 01:11:31.6	98.570	0.000	0.110	1.530
2020/01/31 01:11:31.7	98.590	0.000	0.150	1.480
2020/01/31 01:11:31.8	98.610	0.000	0.180	1.430
2020/01/31 01:11:31.9	98.630	-0.000	0.210	1.380
2020/01/31 01:11:32.0	98.630	-0.000	0.240	1.330
2020/01/31 01:11:32.1	98.650	-0.000	0.270	1.280
2020/01/31 01:11:32.2	98.670	-0.000	0.290	1.230
2020/01/31 01:11:32.3	98.690	-0.010	0.320	1.180
2020/01/31 01:11:32.4	98.700	-0.010	0.340	1.130
2020/01/31 01:11:32.5	98.720	-0.010	0.360	1.080
2020/01/31 01:11:32.6	98.730	-0.010	0.380	1.030
2020/01/31 01:11:32.7	98.750	-0.010	0.390	0.980
2020/01/31 01:11:32.8	98.760	-0.010	0.400	0.940
2020/01/31 01:11:32.9	98.770	-0.010	0.410	0.890
2020/01/31 01:11:33.0	98.780	-0.010	0.420	0.850
2020/01/31 01:11:33.1	98.790	-0.010	0.420	0.810
2020/01/31 01:11:33.2	98.800	-0.010	0.420	0.770
2020/01/31 01:11:33.3	98.810	-0.010	0.410	0.740
2020/01/31 01:11:33.4	98.820	-0.010	0.400	0.700
2020/01/31 01:11:33.5	98.820	-0.020	0.390	0.670
2020/01/31 01:11:33.6	98.820	-0.020	0.370	0.640
2020/01/31 01:11:33.7	98.830	-0.020	0.350	0.610
2020/01/31 01:11:33.8	98.830	-0.020	0.330	0.590
2020/01/31 01:11:33.9	98.830	-0.020	0.300	0.570
2020/01/31 01:11:34.0	98.850	-0.020	0.270	0.550
2020/01/31 01:11:34.1	98.840	-0.030	0.240	0.530
2020/01/31 01:11:34.2	98.840	-0.030	0.200	0.520
2020/01/31 01:11:34.3	98.840	-0.030	0.170	0.510
2020/01/31 01:11:34.4	98.830	-0.030	0.130	0.500
2020/01/31 01:11:34.5	98.820	-0.030	0.080	0.490
2020/01/31 01:11:34.6	98.810	-0.030	0.040	0.480
2020/01/31 01:11:34.7	98.800	-0.030	-0.010	0.480
2020/01/31 01:11:34.8	98.790	-0.030	-0.060	0.480
2020/01/31 01:11:34.9	98.780	-0.030	-0.110	0.480
2020/01/31 01:11:35.0	98.770	-0.030	-0.160	0.480
2020/01/31 01:11:35.1	98.760	-0.030	-0.210	0.490
2020/01/31 01:11:35.2	98.740	-0.030	-0.260	0.490
2020/01/31 01:11:35.3	98.730	-0.030	-0.310	0.500
2020/01/31 01:11:35.4	98.710	-0.030	-0.360	0.500
2020/01/31 01:11:35.5	98.690	-0.030	-0.410	0.510
2020/01/31 01:11:35.6	98.680	-0.020	-0.460	0.520
2020/01/31 01:11:35.7	98.660	-0.020	-0.510	0.530
2020/01/31 01:11:35.8	98.650	-0.010	-0.560	0.540
2020/01/31 01:11:35.9	98.630	-0.000	-0.610	0.540
2020/01/31 01:11:36.0	98.630	0.000	-0.650	0.550
2020/01/31 01:11:36.1	98.620	0.010	-0.690	0.560
2020/01/31 01:11:36.2	98.610	0.020	-0.730	0.570
2020/01/31 01:11:36.3	98.600	0.030	-0.770	0.580
2020/01/31 01:11:36.4	98.590	0.040	-0.800	0.580
2020/01/31 01:11:36.5	98.580	0.050	-0.830	0.590
2020/01/31 01:11:36.6	98.570	0.060	-0.860	0.600
2020/01/31 01:11:36.7	98.570	0.070	-0.880	0.600
2020/01/31 01:11:36.8	98.570	0.080	-0.900	0.610
2020/01/31 01:11:36.9	98.570	0.090	-0.920	0.610
2020/01/31 01:11:37.0	98.560	0.100	-0.920	0.620
2020/01/31 01:11:37.1	98.560	0.110	-0.930	0.630
2020/01/31 01:11:37.2	98.570	0.120	-0.930	0.630
2020/01/31 01:11:37.3	98.580	0.130	-0.930	0.640
2020/01/31 01:11:37.4	98.590	0.140	-0.920	0.640
2020/01/31 01:11:37.5	98.600	0.140	-0.910	0.650
2020/01/31 01:11:37.6	98.610	0.150	-0.900	0.660
2020/01/31 01:11:37.7	98.630	0.150	-0.880	0.670
2020/01/31 01:11:37.8	98.640	0.160	-0.850	0.680
2020/01/31 01:11:37.9	98.660	0.160	-0.820	0.690
2020/01/31 01:11:38.0	98.680	0.150	-0.790	0.710
2020/01/31 01:11:38.1	98.700	0.150	-0.750	0.720
2020/01/31 01:11:38.2	98.710	0.140	-0.700	0.740
2020/01/31 01:11:38.3	98.730	0.140	-0.650	0.760
2020/01/31 01:11:38.4	98.750	0.130	-0.600	0.790
2020/01/31 01:11:38.5	98.770	0.110	-0.540	0.810
2020/01/31 01:11:38.6	98.780	0.100	-0.480	0.840
2020/01/31 01:11:38.7	98.800	0.080	-0.410	0.880
2020/01/31 01:11:38.8	98.810	0.060	-0.340	0.910
2020/01/31 01:11:38.9	98.820	0.040	-0.260	0.940
2020/01/31 01:11:39.0	98.820	0.010	-0.180	0.980
2020/01/31 01:11:39.1	98.840	-0.010	-0.110	1.020
2020/01/31 01:11:39.2	98.850	-0.040	-0.030	1.060
2020/01/31 01:11:39.3	98.850	-0.070	0.050	1.100
2020/01/31 01:11:39.4	98.860	-0.100	0.130	1.150
2020/01/31 01:11:39.5	98.870	-0.130	0.210	1.190
2020/01/31 01:11:39.6	98.880	-0.170	0.290	1.230
2020/01/31 01:11:39.7	98.880	-0.200	0.370	1.270
2020/01/31 01:11:39.8	98.880	-0.230	0.440	1.310
2020/01/31 01:11:39.9	98.890	-0.260	0.520	1.350
2020/01/31 01:11:40.0	98.880	-0.300	0.580	1.390
2020/01/31 01:11:40.1	98.880	-0.330	0.640	1.430
2020/01/31 01:11:40.2	98.890	-0.360	0.700	1.460
2020/01/31 01:11:40.3	98.890	-0.390	0.750	1.500
2020/01/31 01:11:40.4	98.890	-0.410	0.800	1.530
2020/01/31 01:11:40.5	98.880	-0.430	0.830	1.560
2020/01/31 01:11:40.6	98.880	-0.460	0.860	1.580
2020/01/31 01:11:40.7	98.880	-0.470	0.890	1.600
2020/01/31 01:11:40.8	98.880	-0.490	0.900	1.620
2020/01/31 01:11:40.9	98.870	-0.500	0.910	1.640
2020/01/31 01:11:41.0	98.850	-0.510	0.910	1.650
2020/01/31 01:11:41.1	98.850	-0.510	0.900	1.660
2020/01/31 01:11:41.2	98.840	-0.510	0.880	1.670
2020/01/31 01:11:41.3	98.830	-0.510	0.850	1.670
2020/01/31 01:11:41.4	98.830	-0.500	0.820	1.670
2020/01/31 01:11:41.5	98.820	-0.490	0.770	1.660
2020/01/31 01:11:41.6	98.810	-0.470	0.720	1.660
2020/01/31 01:11:41.7	98.800	-0.450	0.660	1.650
2020/01/31 01:11:41.8	98.790	-0.430	0.600	1.630
2020/01/31 01:11:41.9	98.780	-0.400	0.530	1.620
2020/01/31 01:11:42.0	98.770	-0.370	0.450	1.600
2020/01/31 01:11:42.1	98.760	-0.340	0.370	1.580
2020/01/31 01:11:42.2	98.750	-0.300	0.280	1.560
2020/01/31 01:11:42.3	98.740	-0.270	0.200	1.530
2020/01/31 01:11:42.4	98.730	-0.220	0.110	1.500
2020/01/31 01:11:42.5	98.730	-0.180	0.010	1.470
2020/01/31 01:11:42.6	98.720	-0.140	-0.080	1.440
2020/01/31 01:11:42.7	98.720	-0.090	-0.170	1.410
2020/01/31 01:11:42.8	98.710	-0.040	-0.260	1.380
2020/01/31 01:11:42.9	98.710	0.000	-0.350	1.350
2020/01/31 01:11:43.0	98.710	0.050	-0.440	1.310
2020/01/31 01:11:43.1	98.710	0.100	-0.520	1.270
2020/01/31 01:11:43.2	98.710	0.140	-0.600	1.240
2020/01/31 01:11:43.3	98.710	0.190	-0.670	1.210
2020/01/31 01:11:43.4	98.710	0.230	-0.740	1.170
2020/01/31 01:11:43.5	98.710	0.270	-0.810	1.140
2020/01/31 01:11:43.6	98.710	0.310	-0.860	1.110
2020/01/31 01:11:43.7	98.720	0.340	-0.910	1.080
2020/01/31 01:11:43.8	98.720	0.380	-0.960	1.040
2020/01/31 01:11:43.9	98.730	0.400	-1.000	1.010
2020/01/31 01:11:44.0	98.730	0.430	-1.020	0.990
2020/01/31 01:11:44.1	98.740	0.450	-1.050	0.960
2020/01/31 01:11:44.2	98.750	0.470	-1.060	0.930
2020/01/31 01:11:44.3	98.760	0.480	-1.070	0.900
2020/01/31 01:11:44.4	98.770	0.490	-1.070	0.860
2020/01/31 01:11:44.5	98.780	0.500	-1.060	0.830
2020/01/31 01:11:44.6	98.800	0.500	-1.050	0.800
2020/01/31 01:11:44.7	98.810	0.490	-1.030	0.770
2020/01/31 01:11:44.8	98.830	0.490	-1.000	0.740
2020/01/31 01:11:44.9	98.840	0.470	-0.970	0.710
2020/01/31 01:11:45.0	98.860	0.460	-0.940	0.680
2020/01/31 01:11:45.1	98.880	0.440	-0.890	0.650
2020/01/31 01:11:45.2	98.900	0.420	-0.850	0.620
2020/01/31 01:11:45.3	98.920	0.390	-0.800	0.590
2020/01/31 01:11:45.4	98.950	0.360	-0.740	0.560
2020/01/31 01:11:45.5	98.970	0.330	-0.690	0.540
2020/01/31 01:11:45.6	98.990	0.300	-0.630	0.510
2020/01/31 01:11:45.7	99.010	0.270	-0.570	0.490
2020/01/31 01:11:45.8	99.040	0.230	-0.500	0.460
2020/01/31 01:11:45.9	99.060	0.190	-0.440	0.440
2020/01/31 01:11:46.0	99.090	0.160	-0.370	0.430
2020/01/31 01:11:46.1	99.100	0.120	-0.310	0.410
2020/01/31 01:11:46.2	99.120	0.080	-0.250	0.400
2020/01/31 01:11:46.3	99.140	0.050	-0.180	0.400
2020/01/31 01:11:46.4	99.150	0.010	-0.120	0.390
2020/01/31 01:11:46.5	99.170	-0.030	-0.070	0.390
2020/01/31 01:11:46.6	99.180	-0.060	-0.010	0.400
2020/01/31 01:11:46.7	99.190	-0.090	0.040	0.400
2020/01/31 01:11:46.8	99.200	-0.120	0.090	0.410
2020/01/31 01:11:46.9	99.200	-0.150	0.140	0.430
2020/01/31 01:11:47.0	99.210	-0.170	0.180	0.440
2020/01/31 01:11:47.1	99.220	-0.190	0.220	0.460
2020/01/31 01:11:47.2	99.220	-0.210	0.250	0.480
2020/01/31 01:11:47.3	99.230	-0.230	0.290	0.500
2020/01/31 01:11:47.4	99.230	-0.250	0.310	0.520
2020/01/31 01:11:47.5	99.230	-0.260	0.340	0.540
2020/01/31 01:11:47.6	99.240	-0.270	0.360	0.560
2020/01/31 01:11:47.7	99.240	-0.270	0.370	0.580
2020/01/31 01:11:47.8	99.240	-0.280	0.390	0.600
2020/01/31 01:11:47.9	99.250	-0.280	0.400	0.620
2020/01/31 01:11:48.0	99.260	-0.280	0.400	0.640
2020/01/31 01:11:48.1	99.270	-0.280	0.400	0.660
2020/01/31 01:11:48.2	99.280	-0.270	0.400	0.680
2020/01/31 01:11:48.3	99.280	-0.270	0.400	0.700
2020/01/31 01:11:48.4	99.290	-0.260	0.390	0.720
2020/01/31 01:11:48.5	99.300	-0.250	0.370	0.730
2020/01/31 01:11:48.6	99.310	-0.240	0.360	0.750
2020/01/31 01:11:48.7	99.320	-0.230	0.340	0.760
2020/01/31 01:11:48.8	99.330	-0.220	0.320	0.780
2020/01/31 01:11:48.9	99.340	-0.200	0.300	0.790
2020/01/31 01:11:49.0	99.340	-0.190	0.270	0.810
2020/01/31 01:11:49.1	99.350	-0.180	0.250	0.820
2020/01/31 01:11:49.2	99.360	-0.160	0.220	0.840
2020/01/31 01:11:49.3	99.380	-0.150	0.190	0.850
2020/01/31 01:11:49.4	99.390	-0.130	0.160	0.870
2020/01/31 01:11:49.5	99.400	-0.120	0.130	0.880
2020/01/31 01:11:49.6	99.420	-0.110	0.100	0.900
2020/01/31 01:11:49.7	99.430	-0.090	0.070	0.910
2020/01/31 01:11:49.8	99.450	-0.080	0.030	0.930
2020/01/31 01:11:49.9	99.460	-0.070	0.000	0.940
2020/01/31 01:11:50.0	99.490	-0.060	-0.030	0.960
2020/01/31 01:11:50.1	99.510	-0.050	-0.060	0.970
2020/01/31 01:11:50.2	99.530	-0.040	-0.090	0.990
2020/01/31 01:11:50.3	99.550	-0.030	-0.120	1.000
2020/01/31 01:11:50.4	99.570	-0.020	-0.150	1.020
2020/01/31 01:11:50.5	99.590	-0.010	-0.180	1.040
2020/01/31 01:11:50.6	99.610	-0.000	-0.210	1.050
2020/01/31 01:11:50.7	99.640	0.000	-0.240	1.070
2020/01/31 01:11:50.8	99.660	0.010	-0.260	1.090
2020/01/31 01:11:50.9	99.680	0.010	-0.290	1.100
2020/01/31 01:11:51.0	99.700	0.020	-0.310	1.130
2020/01/31 01:11:51.1	99.720	0.020	-0.330	1.150
2020/01/31 01:11:51.2	99.740	0.030	-0.350	1.170
2020/01/31 01:11:51.3	99.770	0.030	-0.360	1.180
2020/01/31 01:11:51.4	99.790	0.030	-0.380	1.200
2020/01/31 01:11:51.5	99.810	0.030	-0.390	1.220
2020/01/31 01:11:51.6	99.820	0.030	-0.400	1.240
2020/01/31 01:11:51.7	99.840	0.040	-0.410	1.250
2020/01/31 01:11:51.8	99.860	0.040	-0.410	1.270
2020/01/31 01:11:51.9	99.880	0.040	-0.410	1.280
2020/01/31 01:11:52.0	99.890	0.030	-0.410	1.280
2020/01/31 01:11:52.1	99.910	0.030	-0.410	1.300
2020/01/31 01:11:52.2	99.920	0.030	-0.400	1.300
2020/01/31 01:11:52.3	99.940	0.030	-0.390	1.310
2020/01/31 01:11:52.4	99.950	0.030	-0.370	1.320
2020/01/31 01:11:52.5	99.970	0.020	-0.360	1.330
2020/01/31 01:11:52.6	99.980	0.020	-0.340	1.330
2020/01/31 01:11:52.7	99.990	0.010	-0.320	1.330
2020/01/31 01:11:52.8	100.010	0.010	-0.300	1.330
2020/01/31 01:11:52.9	100.020	0.000	-0.280	1.340
2020/01/31 01:11:53.0	100.040	-0.000	-0.250	1.340
2020/01/31 01:11:53.1	100.050	-0.010	-0.220	1.340
2020/01/31 01:11:53.2	100.060	-0.020	-0.190	1.330
2020/01/31 01:11:53.3	100.070	-0.020	-0.160	1.330
2020/01/31 01:11:53.4	100.080	-0.030	-0.140	1.330
2020/01/31 01:11:53.5	100.090	-0.040	-0.110	1.320
2020/01/31 01:11:53.6	100.100	-0.040	-0.080	1.320
2020/01/31 01:11:53.7	100.100	-0.050	-0.050	1.310
2020/01/31 01:11:53.8	100.110	-0.060	-0.020	1.310
2020/01/31 01:11:53.9	100.110	-0.070	0.000	1.300
2020/01/31 01:11:54.0	100.090	-0.070	0.020	1.290
2020/01/31 01:11:54.1	100.100	-0.080	0.040	1.290
2020/01/31 01:11:54.2	100.100	-0.090	0.060	1.280
2020/01/31 01:11:54.3	100.100	-0.090	0.080	1.270
2020/01/31 01:11:54.4	100.100	-0.100	0.090	1.260
2020/01/31 01:11:54.5	100.090	-0.100	0.100	1.250
2020/01/31 01:11:54.6	100.090	-0.110	0.110	1.240
2020/01/31 01:11:54.7	100.090	-0.110	0.120	1.230
2020/01/31 01:11:54.8	100.080	-0.110	0.120	1.220
2020/01/31 01:11:54.9	100.070	-0.110	0.110	1.210
2020/01/31 01:11:55.0	100.070	-0.110	0.110	1.200
2020/01/31 01:11:55.1	100.060	-0.110	0.100	1.190
2020/01/31 01:11:55.2	100.060	-0.100	0.080	1.180
2020/01/31 01:11:55.3	100.050	-0.100	0.060	1.170
2020/01/31 01:11:55.4	100.040	-0.090	0.040	1.160
2020/01/31 01:11:55.5	100.030	-0.090	0.020	1.150
2020/01/31 01:11:55.6	100.020	-0.080	-0.010	1.140
2020/01/31 01:11:55.7	100.010	-0.070	-0.050	1.120
2020/01/31 01:11:55.8	100.010	-0.060	-0.080	1.110
2020/01/31 01:11:55.9	100.000	-0.050	-0.120	1.100
2020/01/31 01:11:56.0	99.980	-0.030	-0.170	1.090
2020/01/31 01:11:56.1	99.980	-0.020	-0.210	1.080
2020/01/31 01:11:56.2	99.970	-0.010	-0.260	1.070
2020/01/31 01:11:56.3	99.960	0.010	-0.300	1.060
2020/01/31 01:11:56.4	99.960	0.030	-0.350	1.050
2020/01/31 01:11:56.5	99.950	0.040	-0.400	1.050
2020/01/31 01:11:56.6	99.950	0.060	-0.450	1.040
2020/01/31 01:11:56.7	99.940	0.080	-0.490	1.030
2020/01/31 01:11:56.8	99.940	0.090	-0.540	1.020
2020/01/31 01:11:56.9	99.940	0.110	-0.580	1.020
2020/01/31 01:11:57.0	99.940	0.130	-0.620	1.010
2020/01/31 01:11:57.1	99.940	0.150	-0.660	1.000
2020/01/31 01:11:57.2	99.940	0.160	-0.690	1.000
2020/01/31 01:11:57.3	99.950	0.180	-0.720	0.990
2020/01/31 01:11:57.4	99.950	0.200	-0.750	0.980
2020/01/31 01:11:57.5	99.960	0.210	-0.770	0.970
2020/01/31 01:11:57.6	99.970	0.230	-0.790	0.950
2020/01/31 01:11:57.7	99.970	0.240	-0.800	0.940
2020/01/31 01:11:57.8	99.990	0.250	-0.800	0.930
2020/01/31 01:11:57.9	100.000	0.260	-0.800	0.910
2020/01/31 01:11:58.0	100.010	0.270	-0.790	0.890
2020/01/31 01:11:58.1	100.030	0.280	-0.780	0.870
2020/01/31 01:11:58.2	100.040	0.290	-0.760	0.850
2020/01/31 01:11:58.3	100.060	0.290	-0.740	0.830
2020/01/31 01:11:58.4	100.080	0.300	-0.710	0.800
2020/01/31 01:11:58.5	100.100	0.300	-0.670	0.780
2020/01/31 01:11:58.6	100.120	0.300	-0.630	0.750
2020/01/31 01:11:58.7	100.150	0.300	-0.590	0.720
2020/01/31 01:11:58.8	100.170	0.290	-0.540	0.700
2020/01/31 01:11:58.9	100.200	0.280	-0.480	0.670
2020/01/31 01:11:59.0	100.230	0.270	-0.420	0.640
2020/01/31 01:11:59.1	100.260	0.260	-0.360	0.620
2020/01/31 01:11:59.2	100.290	0.250	-0.290	0.590
2020/01/31 01:11:59.3	100.320	0.230	-0.220	0.570
2020/01/31 01:11:59.4	100.350	0.210	-0.150	0.540
2020/01/31 01:11:59.5	100.380	0.190	-0.070	0.520
2020/01/31 01:11:59.6	100.410	0.170	0.000	0.500
2020/01/31 01:11:59.7	100.440	0.150	0.080	0.490
2020/01/31 01:11:59.8	100.480	0.120	0.150	0.470
2020/01/31 01:11:59.9	100.510	0.090	0.230	0.460
2020/01/31 01:12:00.0	100.540	0.060	0.300	0.450
2020/01/31 01:12:00.1	100.570	0.030	0.370	0.440
2020/01/31 01:12:00.2	100.590	0.000	0.440	0.440
2020/01/31 01:12:00.3	100.620	-0.030	0.510	0.430
2020/01/31 01:12:00.4	100.650	-0.060	0.570	0.430
2020/01/31 01:12:00.5	100.680	-0.100	0.630	0.430
2020/01/31 01:12:00.6	100.700	-0.130	0.680	0.440
2020/01/31 01:12:00.7	100.720	-0.160	0.730	0.440
2020/01/31 01:12:00.8	100.740	-0.190	0.770	0.450
2020/01/31 01:12:00.9	100.770	-0.220	0.800	0.460
2020/01/31 01:12:01.0	100.780	-0.250	0.830	0.480
2020/01/31 01:12:01.1	100.800	-0.280	0.850	0.490
2020/01/31 01:12:01.2	100.810	-0.300	0.860	0.510
2020/01/31 01:12:01.3	100.830	-0.330	0.860	0.530
2020/01/31 01:12:01.4	100.840	-0.350	0.860	0.550
2020/01/31 01:12:01.5	100.850	-0.370	0.850	0.580
2020/01/31 01:12:01.6	100.860	-0.380	0.830	0.600
2020/01/31 01:12:01.7	100.870	-0.400	0.800	0.630
2020/01/31 01:12:01.8	100.870	-0.410	0.760	0.660
2020/01/31 01:12:01.9	100.880	-0.410	0.720	0.690
2020/01/31 01:12:02.0	100.870	-0.420	0.660	0.720
2020/01/31 01:12:02.1	100.870	-0.420	0.610	0.750
2020/01/31 01:12:02.2	100.870	-0.410	0.540	0.790
2020/01/31 01:12:02.3	100.870	-0.410	0.470	0.820
2020/01/31 01:12:02.4	100.870	-0.400	0.400	0.860
2020/01/31 01:12:02.5	100.870	-0.390	0.320	0.900
2020/01/31 01:12:02.6	100.860	-0.370	0.230	0.940
2020/01/31 01:12:02.7	100.860	-0.350	0.140	0.980
2020/01/31 01:12:02.8	100.850	-0.330	0.060	1.020
2020/01/31 01:12:02.9	100.840	-0.310	-0.040	1.070
2020/01/31 01:12:03.0	100.820	-0.280	-0.130	1.120
2020/01/31 01:12:03.1	100.800	-0.250	-0.220	1.170
2020/01/31 01:12:03.2	100.790	-0.220	-0.310	1.220
2020/01/31 01:12:03.3	100.770	-0.190	-0.400	1.270
2020/01/31 01:12:03.4	100.760	-0.150	-0.490	1.330
2020/01/31 01:12:03.5	100.740	-0.120	-0.570	1.380
2020/01/31 01:12:03.6	100.720	-0.080	-0.660	1.440
2020/01/31 01:12:03.7	100.700	-0.050	-0.730	1.490
2020/01/31 01:12:03.8	100.680	-0.010	-0.810	1.550
2020/01/31 01:12:03.9	100.660	0.020	-0.870	1.610
2020/01/31 01:12:04.0	100.640	0.060	-0.940	1.670
2020/01/31 01:12:04.1	100.620	0.090	-0.990	1.720
2020/01/31 01:12:04.2	100.610	0.130	-1.040	1.780
2020/01/31 01:12:04.3	100.590	0.160	-1.080	1.830
2020/01/31 01:12:04.4	100.570	0.190	-1.120	1.890
2020/01/31 01:12:04.5	100.550	0.220	-1.140	1.940
2020/01/31 01:12:04.6	100.530	0.240	-1.160	1.990
2020/01/31 01:12:04.7	100.520	0.270	-1.180	2.040
2020/01/31 01:12:04.8	100.500	0.290	-1.180	2.080
2020/01/31 01:12:04.9	100.490	0.300	-1.180	2.120
2020/01/31 01:12:05.0	100.470	0.320	-1.170	2.160
2020/01/31 01:12:05.1	100.460	0.330	-1.150	2.200
2020/01/31 01:12:05.2	100.440	0.340	-1.130	2.230
2020/01/31 01:12:05.3	100.440	0.340	-1.100	2.260
2020/01/31 01:12:05.4	100.430	0.350	-1.070	2.290
2020/01/31 01:12:05.5	100.420	0.340	-1.020	2.310
2020/01/31 01:12:05.6	100.410	0.340	-0.980	2.320
2020/01/31 01:12:05.7	100.410	0.330	-0.920	2.340
2020/01/31 01:12:05.8	100.400	0.320	-0.870	2.340
2020/01/31 01:12:05.9	100.400	0.310	-0.800	2.350
2020/01/31 01:12:06.0	100.390	0.290	-0.730	2.350
2020/01/31 01:12:06.1	100.390	0.280	-0.660	2.340
2020/01/31 01:12:06.2	100.380	0.250	-0.590	2.330
2020/01/31 01:12:06.3	100.380	0.230	-0.510	2.320
2020/01/31 01:12:06.4	100.380	0.200	-0.430	2.310
2020/01/31 01:12:06.5	100.390	0.180	-0.350	2.290
2020/01/31 01:12:06.6	100.390	0.150	-0.270	2.260
2020/01/31 01:12:06.7	100.390	0.120	-0.180	2.230
2020/01/31 01:12:06.8	100.390	0.090	-0.090	2.200
2020/01/31 01:12:06.9	100.390	0.050	-0.010	2.170
2020/01/31 01:12:07.0	100.380	0.020	0.080	2.130
2020/01/31 01:12:07.1	100.380	-0.010	0.170	2.100
2020/01/31 01:12:07.2	100.380	-0.050	0.250	2.050
2020/01/31 01:12:07.3	100.380	-0.080	0.330	2.010
2020/01/31 01:12:07.4	100.380	-0.120	0.410	1.970
2020/01/31 01:12:07.5	100.380	-0.150	0.490	1.920
2020/01/31 01:12:07.6	100.380	-0.180	0.560	1.870
2020/01/31 01:12:07.7	100.380	-0.210	0.630	1.820
2020/01/31 01:12:07.8	100.380	-0.240	0.690	1.770
2020/01/31 01:12:07.9	100.380	-0.270	0.750	1.720
2020/01/31 01:12:08.0	100.370	-0.290	0.800	1.670
2020/01/31 01:12:08.1	100.370	-0.310	0.840	1.620
2020/01/31 01:12:08.2	100.370	-0.330	0.880	1.570
2020/01/31 01:12:08.3	100.360	-0.350	0.910	1.520
2020/01/31 01:12:08.4	100.360	-0.370	0.930	1.470
2020/01/31 01:12:08.5	100.350	-0.380	0.950	1.410
2020/01/31 01:12:08.6	100.350	-0.390	0.950	1.360
2020/01/31 01:12:08.7	100.350	-0.400	0.950	1.310
2020/01/31 01:12:08.8	100.340	-0.400	0.950	1.260
2020/01/31 01:12:08.9	100.340	-0.400	0.930	1.210
2020/01/31 01:12:09.0	100.350	-0.400	0.900	1.160
2020/01/31 01:12:09.1	100.350	-0.390	0.870	1.110
2020/01/31 01:12:09.2	100.350	-0.380	0.830	1.060
2020/01/31 01:12:09.3	100.350	-0.370	0.790	1.010
2020/01/31 01:12:09.4	100.350	-0.350	0.730	0.960
2020/01/31 01:12:09.5	100.350	-0.340	0.670	0.900
2020/01/31 01:12:09.6	100.350	-0.320	0.610	0.850
2020/01/31 01:12:09.7	100.350	-0.290	0.530	0.790
2020/01/31 01:12:09.8	100.360	-0.270	0.460	0.740
2020/01/31 01:12:09.9	100.360	-0.240	0.370	0.680
2020/01/31 01:12:10.0	100.380	-0.210	0.280	0.620
2020/01/31 01:12:10.1	100.390	-0.180	0.190	0.560
2020/01/31 01:12:10.2	100.400	-0.140	0.100	0.500
2020/01/31 01:12:10.3	100.410	-0.110	0.000	0.440
2020/01/31 01:12:10.4	100.420	-0.070	-0.090	0.380
2020/01/31 01:12:10.5	100.440	-0.030	-0.190	0.310
2020/01/31 01:12:10.6	100.450	0.000	-0.290	0.250
2020/01/31 01:12:10.7	100.470	0.040	-0.390	0.190
2020/01/31 01:12:10.8	100.480	0.080	-0.490	0.130
2020/01/31 01:12:10.9	100.500	0.120	-0.590	0.070
2020/01/31 01:12:11.0	100.520	0.160	-0.680	0.010
2020/01/31 01:12:11.1	100.540	0.200	-0.780	-0.050
2020/01/31 01:12:11.2	100.550	0.240	-0.860	-0.100
2020/01/31 01:12:11.3	100.570	0.280	-0.950	-0.150
2020/01/31 01:12:11.4	100.590	0.320	-1.030	-0.200
2020/01/31 01:12:11.5	100.600	0.360	-1.100	-0.250
2020/01/31 01:12:11.6	100.620	0.390	-1.170	-0.290
2020/01/31 01:12:11.7	100.630	0.430	-1.230	-0.330
2020/01/31 01:12:11.8	100.640	0.460	-1.290	-0.360
2020/01/31 01:12:11.9	100.650	0.490	-1.340	-0.390
2020/01/31 01:12:12.0	100.660	0.520	-1.370	-0.410
2020/01/31 01:12:12.1	100.660	0.540	-1.410	-0.430
2020/01/31 01:12:12.2	100.660	0.570	-1.430	-0.440
2020/01/31 01:12:12.3	100.660	0.590	-1.450	-0.440
2020/01/31 01:12:12.4	100.650	0.610	-1.460	-0.440
2020/01/31 01:12:12.5	100.640	0.620	-1.460	-0.430
2020/01/31 01:12:12.6	100.630	0.640	-1.450	-0.410
2020/01/31 01:12:12.7	100.620	0.650	-1.430	-0.390
2020/01/31 01:12:12.8	100.610	0.650	-1.410	-0.360
2020/01/31 01:12:12.9	100.590	0.650	-1.370	-0.330
2020/01/31 01:12:13.0	100.590	0.650	-1.330	-0.280
2020/01/31 01:12:13.1	100.570	0.650	-1.280	-0.240
2020/01/31 01:12:13.2	100.550	0.640	-1.230	-0.190
2020/01/31 01:12:13.3	100.530	0.630	-1.160	-0.130
2020/01/31 01:12:13.4	100.510	0.610	-1.090	-0.070
2020/01/31 01:12:13.5	100.490	0.590	-1.010	-0.010
2020/01/31 01:12:13.6	100.460	0.560	-0.920	0.060
2020/01/31 01:12:13.7	100.440	0.530	-0.830	0.130
2020/01/31 01:12:13.8	100.420	0.500	-0.730	0.200
2020/01/31 01:12:13.9	100.390	0.460	-0.630	0.280
2020/01/31 01:12:14.0	100.370	0.420	-0.520	0.360
2020/01/31 01:12:14.1	100.340	0.380	-0.410	0.450
2020/01/31 01:12:14.2	100.320	0.340	-0.300	0.530
2020/01/31 01:12:14.3	100.290	0.290	-0.190	0.610
2020/01/31 01:12:14.4	100.270	0.240	-0.070	0.700
2020/01/31 01:12:14.5	100.250	0.190	0.040	0.780
2020/01/31 01:12:14.6	100.220	0.130	0.150	0.860
2020/01/31 01:12:14.7	100.200	0.080	0.260	0.940
2020/01/31 01:12:14.8	100.180	0.020	0.370	1.020
2020/01/31 01:12:14.9	100.160	-0.030	0.480	1.100
2020/01/31 01:12:15.0	100.140	-0.090	0.580	1.180
2020/01/31 01:12:15.1	100.120	-0.150	0.680	1.250
2020/01/31 01:12:15.2	100.100	-0.200	0.770	1.320
2020/01/31 01:12:15.3	100.090	-0.250	0.850	1.380
2020/01/31 01:12:15.4	100.080	-0.300	0.930	1.450
2020/01/31 01:12:15.5	100.070	-0.350	1.000	1.500
2020/01/31 01:12:15.6	100.060	-0.400	1.070	1.560
2020/01/31 01:12:15.7	100.050	-0.440	1.120	1.610
2020/01/31 01:12:15.8	100.050	-0.480	1.170	1.650
2020/01/31 01:12:15.9	100.040	-0.520	1.210	1.690
2020/01/31 01:12:16.0	100.040	-0.550	1.230	1.730
2020/01/31 01:12:16.1	100.040	-0.580	1.250	1.770
2020/01/31 01:12:16.2	100.040	-0.610	1.260	1.800
2020/01/31 01:12:16.3	100.040	-0.630	1.260	1.830
2020/01/31 01:12:16.4	100.040	-0.640	1.260	1.850
2020/01/31 01:12:16.5	100.040	-0.660	1.240	1.880
2020/01/31 01:12:16.6	100.050	-0.660	1.210	1.900
2020/01/31 01:12:16.7	100.050	-0.670	1.180	1.910
2020/01/31 01:12:16.8	100.060	-0.660	1.130	1.930
2020/01/31 01:12:16.9	100.060	-0.660	1.080	1.940
2020/01/31 01:12:17.0	100.070	-0.650	1.020	1.950
2020/01/31 01:12:17.1	100.080	-0.630	0.950	1.960
2020/01/31 01:12:17.2	100.080	-0.610	0.880	1.970
2020/01/31 01:12:17.3	100.090	-0.590	0.800	1.970
2020/01/31 01:12:17.4	100.090	-0.560	0.720	1.970
2020/01/31 01:12:17.5	100.100	-0.530	0.630	1.970
2020/01/31 01:12:17.6	100.100	-0.500	0.530	1.970
2020/01/31 01:12:17.7	100.110	-0.470	0.440	1.970
2020/01/31 01:12:17.8	100.120	-0.430	0.340	1.960
2020/01/31 01:12:17.9	100.130	-0.390	0.240	1.960
2020/01/31 01:12:18.0	100.140	-0.350	0.130	1.950
2020/01/31 01:12:18.1	100.150	-0.310	0.030	1.940
2020/01/31 01:12:18.2	100.160	-0.270	-0.070	1.920
2020/01/31 01:12:18.3	100.180	-0.230	-0.170	1.910
2020/01/31 01:12:18.4	100.190	-0.190	-0.270	1.890
2020/01/31 01:12:18.5	100.200	-0.150	-0.360	1.870
2020/01/31 01:12:18.6	100.220	-0.110	-0.460	1.850
2020/01/31 01:12:18.7	100.240	-0.070	-0.540	1.830
2020/01/31 01:12:18.8	100.260	-0.030	-0.630	1.810
2020/01/31 01:12:18.9	100.270	0.010	-0.700	1.790
2020/01/31 01:12:19.0	100.300	0.040	-0.780	1.760
2020/01/31 01:12:19.1	100.320	0.070	-0.850	1.740
2020/01/31 01:12:19.2	100.340	0.100	-0.900	1.710
2020/01/31 01:12:19.3	100.370	0.120	-0.960	1.690
2020/01/31 01:12:19.4	100.390	0.140	-1.000	1.660
2020/01/31 01:12:19.5	100.410	0.160	-1.040	1.630
2020/01/31 01:12:19.6	100.430	0.180	-1.060	1.610
2020/01/31 01:12:19.7	100.450	0.190	-1.080	1.580
2020/01/31 01:12:19.8	100.470	0.200	-1.100	1.550
2020/01/31 01:12:19.9	100.490	0.210	-1.100	1.530
2020/01/31 01:12:20.0	100.510	0.210	-1.100	1.500
2020/01/31 01:12:20.1	100.530	0.210	-1.090	1.470
2020/01/31 01:12:20.2	100.540	0.210	-1.080	1.450
2020/01/31 01:12:20.3	100.550	0.200	-1.060	1.430
2020/01/31 01:12:20.4	100.550	0.200	-1.030	1.410
2020/01/31 01:12:20.5	100.560	0.190	-1.000	1.390
2020/01/31 01:12:20.6	100.560	0.170	-0.960	1.380
2020/01/31 01:12:20.7	100.550	0.160	-0.920	1.360
2020/01/31 01:12:20.8	100.550	0.140	-0.870	1.350
2020/01/31 01:12:20.9	100.540	0.130	-0.820	1.340
2020/01/31 01:12:21.0	100.530	0.110	-0.770	1.330
2020/01/31 01:12:21.1	100.520	0.090	-0.710	1.320
2020/01/31 01:12:21.2	100.500	0.070	-0.660	1.310
2020/01/31 01:12:21.3	100.480	0.050	-0.600	1.310
2020/01/31 01:12:21.4	100.460	0.030	-0.540	1.300
2020/01/31 01:12:21.5	100.430	0.000	-0.490	1.300
2020/01/31 01:12:21.6	100.410	-0.020	-0.430	1.300
2020/01/31 01:12:21.7	100.380	-0.040	-0.370	1.300
2020/01/31 01:12:21.8	100.350	-0.050	-0.320	1.300
2020/01/31 01:12:21.9	100.320	-0.070	-0.260	1.300
2020/01/31 01:12:22.0	100.300	-0.090	-0.210	1.300
2020/01/31 01:12:22.1	100.270	-0.100	-0.160	1.300
2020/01/31 01:12:22.2	100.230	-0.110	-0.120	1.310
2020/01/31 01:12:22.3	100.200	-0.120	-0.070	1.310
2020/01/31 01:12:22.4	100.170	-0.130	-0.030	1.310
2020/01/31 01:12:22.5	100.130	-0.140	0.010	1.310
2020/01/31 01:12:22.6	100.100	-0.140	0.040	1.310
2020/01/31 01:12:22.7	100.070	-0.140	0.070	1.300
2020/01/31 01:12:22.8	100.030	-0.140	0.090	1.300
2020/01/31 01:12:22.9	100.000	-0.140	0.110	1.300
2020/01/31 01:12:23.0	99.970	-0.130	0.130	1.300
2020/01/31 01:12:23.1	99.940	-0.120	0.140	1.290
2020/01/31 01:12:23.2	99.900	-0.110	0.150	1.280
2020/01/31 01:12:23.3	99.870	-0.090	0.160	1.270
2020/01/31 01:12:23.4	99.840	-0.080	0.150	1.260
2020/01/31 01:12:23.5	99.810	-0.060	0.150	1.250
2020/01/31 01:12:23.6	99.780	-0.040	0.140	1.230
2020/01/31 01:12:23.7	99.750	-0.020	0.130	1.210
2020/01/31 01:12:23.8	99.720	0.000	0.110	1.190
2020/01/31 01:12:23.9	99.700	0.020	0.090	1.170
2020/01/31 01:12:24.0	99.680	0.050	0.070	1.140
2020/01/31 01:12:24.1	99.660	0.070	0.040	1.100
2020/01/31 01:12:24.2	99.640	0.100	0.010	1.070
2020/01/31 01:12:24.3	99.630	0.120	-0.020	1.030
2020/01/31 01:12:24.4	99.610	0.150	-0.050	0.990
2020/01/31 01:12:24.5	99.600	0.170	-0.080	0.950
2020/01/31 01:12:24.6	99.590	0.190	-0.110	0.900
2020/01/31 01:12:24.7	99.590	0.220	-0.140	0.850
2020/01/31 01:12:24.8	99.590	0.240	-0.180	0.800
2020/01/31 01:12:24.9	99.590	0.260	-0.210	0.740
2020/01/31 01:12:25.0	99.590	0.270	-0.240	0.690
2020/01/31 01:12:25.1	99.600	0.290	-0.260	0.630
2020/01/31 01:12:25.2	99.610	0.310	-0.290	0.580
2020/01/31 01:12:25.3	99.620	0.320	-0.310	0.520
2020/01/31 01:12:25.4	99.630	0.330	-0.330	0.460
2020/01/31 01:12:25.5	99.640	0.340	-0.350	0.410
2020/01/31 01:12:25.6	99.660	0.340	-0.370	0.350
2020/01/31 01:12:25.7	99.670	0.350	-0.380	0.300
2020/01/31 01:12:25.8	99.690	0.350	-0.390	0.250
2020/01/31 01:12:25.9	99.710	0.350	-0.390	0.200
2020/01/31 01:12:26.0	99.740	0.350	-0.390	0.160
2020/01/31 01:12:26.1	99.760	0.340	-0.390	0.110
2020/01/31 01:12:26.2	99.780	0.330	-0.380	0.080
2020/01/31 01:12:26.3	99.800	0.320	-0.370	0.040
2020/01/31 01:12:26.4	99.820	0.310	-0.360	0.010
2020/01/31 01:12:26.5	99.850	0.300	-0.340	-0.020
2020/01/31 01:12:26.6	99.870	0.290	-0.320	-0.040
2020/01/31 01:12:26.7	99.890	0.270	-0.300	-0.060
2020/01/31 01:12:26.8	99.910	0.250	-0.270	-0.080
2020/01/31 01:12:26.9	99.930	0.240	-0.240	-0.090
2020/01/31 01:12:27.0	99.940	0.220	-0.210	-0.090
2020/01/31 01:12:27.1	99.960	0.200	-0.180	-0.100
2020/01/31 01:12:27.2	99.980	0.180	-0.140	-0.090
2020/01/31 01:12:27.3	99.990	0.160	-0.110	-0.090
2020/01/31 01:12:27.4	100.010	0.140	-0.070	-0.080
2020/01/31 01:12:27.5	100.020	0.120	-0.030	-0.060
2020/01/31 01:12:27.6	100.030	0.100	0.000	-0.040
2020/01/31 01:12:27.7	100.040	0.080	0.040	-0.020
2020/01/31 01:12:27.8	100.050	0.060	0.080	0.000
2020/01/31 01:12:27.9	100.060	0.040	0.120	0.030
2020/01/31 01:12:28.0	100.070	0.020	0.150	0.060
2020/01/31 01:12:28.1	100.070	0.000	0.190	0.100
2020/01/31 01:12:28.2	100.080	-0.010	0.220	0.130
2020/01/31 01:12:28.3	100.080	-0.030	0.250	0.170
2020/01/31 01:12:28.4	100.080	-0.040	0.270	0.210
2020/01/31 01:12:28.5	100.090	-0.060	0.300	0.250
2020/01/31 01:12:28.6	100.090	-0.070	0.320	0.290
2020/01/31 01:12:28.7	100.090	-0.080	0.330	0.330
2020/01/31 01:12:28.8	100.090	-0.090	0.350	0.370
2020/01/31 01:12:28.9	100.100	-0.100	0.360	0.410
2020/01/31 01:12:29.0	100.100	-0.110	0.370	0.460
2020/01/31 01:12:29.1	100.100	-0.120	0.370	0.510
2020/01/31 01:12:29.2	100.100	-0.130	0.380	0.560
2020/01/31 01:12:29.3	100.100	-0.140	0.380	0.600
2020/01/31 01:12:29.4	100.110	-0.140	0.370	0.650
2020/01/31 01:12:29.5	100.110	-0.150	0.360	0.700
2020/01/31 01:12:29.6	100.110	-0.150	0.350	0.760
2020/01/31 01:12:29.7	100.110	-0.150	0.340	0.810
2020/01/31 01:12:29.8	100.110	-0.160	0.320	0.870
2020/01/31 01:12:29.9	100.110	-0.160	0.300	0.930
2020/01/31 01:12:30.0	100.100	-0.160	0.280	0.990
2020/01/31 01:12:30.1	100.100	-0.160	0.260	1.060
2020/01/31 01:12:30.2	100.100	-0.160	0.230	1.120
2020/01/31 01:12:30.3	100.090	-0.160	0.200	1.190
2020/01/31 01:12:30.4	100.090	-0.150	0.170	1.270
2020/01/31 01:12:30.5	100.090	-0.150	0.140	1.340
2020/01/31 01:12:30.6	100.080	-0.150	0.100	1.410
2020/01/31 01:12:30.7	100.070	-0.140	0.060	1.490
2020/01/31 01:12:30.8	100.070	-0.140	0.020	1.570
2020/01/31 01:12:30.9	100.060	-0.130	-0.020	1.650
2020/01/31 01:12:31.0	100.050	-0.130	-0.060	1.720
2020/01/31 01:12:31.1	100.040	-0.120	-0.100	1.800
2020/01/31 01:12:31.2	100.020	-0.120	-0.150	1.880
2020/01/31 01:12:31.3	100.010	-0.110	-0.190	1.960
2020/01/31 01:12:31.4	100.000	-0.100	-0.230	2.040
2020/01/31 01:12:31.5	99.990	-0.100	-0.270	2.110
2020/01/31 01:12:31.6	99.970	-0.090	-0.320	2.190
2020/01/31 01:12:31.7	99.950	-0.080	-0.360	2.260
2020/01/31 01:12:31.8	99.940	-0.070	-0.400	2.330
2020/01/31 01:12:31.9	99.920	-0.070	-0.440	2.400
2020/01/31 01:12:32.0	99.900	-0.060	-0.480	2.470
2020/01/31 01:12:32.1	99.880	-0.050	-0.510	2.530
2020/01/31 01:12:32.2	99.860	-0.050	-0.540	2.590
2020/01/31 01:12:32.3	99.840	-0.040	-0.570	2.650
2020/01/31 01:12:32.4	99.820	-0.030	-0.600	2.700
2020/01/31 01:12:32.5	99.800	-0.030	-0.630	2.750
2020/01/31 01:12:32.6	99.780	-0.020	-0.650	2.790
2020/01/31 01:12:32.7	99.760	-0.010	-0.670	2.830
2020/01/31 01:12:32.8	99.740	-0.010	-0.690	2.860
2020/01/31 01:12:32.9	99.720	-0.000	-0.700	2.890
2020/01/31 01:12:33.0	99.700	0.000	-0.710	2.910
2020/01/31 01:12:33.1	99.680	0.010	-0.720	2.930
2020/01/31 01:12:33.2	99.660	0.010	-0.720	2.950
2020/01/31 01:12:33.3	99.640	0.010	-0.720	2.960
2020/01/31 01:12:33.4	99.620	0.020	-0.720	2.970
2020/01/31 01:12:33.5	99.600	0.020	-0.710	2.970
2020/01/31 01:12:33.6	99.580	0.020	-0.700	2.970
2020/01/31 01:12:33.7	99.570	0.030	-0.690	2.960
2020/01/31 01:12:33.8	99.550	0.030	-0.670	2.950
2020/01/31 01:12:33.9	99.540	0.030	-0.650	2.930
2020/01/31 01:12:34.0	99.520	0.030	-0.630	2.910
2020/01/31 01:12:34.1	99.510	0.030	-0.600	2.890
2020/01/31 01:12:34.2	99.500	0.030	-0.570	2.860
2020/01/31 01:12:34.3	99.490	0.030	-0.540	2.830
2020/01/31 01:12:34.4	99.480	0.030	-0.500	2.790
2020/01/31 01:12:34.5	99.480	0.030	-0.470	2.750
2020/01/31 01:12:34.6	99.470	0.030	-0.430	2.700
2020/01/31 01:12:34.7	99.470	0.030	-0.380	2.640
2020/01/31 01:12:34.8	99.470	0.020	-0.340	2.590
2020/01/31 01:12:34.9	99.480	0.020	-0.300	2.530
2020/01/31 01:12:35.0	99.480	0.020	-0.250	2.460
2020/01/31 01:12:35.1	99.490	0.020	-0.200	2.390
2020/01/31 01:12:35.2	99.500	0.010	-0.150	2.310
2020/01/31 01:12:35.3	99.510	0.010	-0.110	2.240
2020/01/31 01:12:35.4	99.520	0.010	-0.060	2.150
2020/01/31 01:12:35.5	99.540	0.000	-0.020	2.070
2020/01/31 01:12:35.6	99.560	-0.000	0.020	1.980
2020/01/31 01:12:35.7	99.570	-0.010	0.060	1.890
2020/01/31 01:12:35.8	99.590	-0.010	0.100	1.800
2020/01/31 01:12:35.9	99.620	-0.010	0.130	1.700
2020/01/31 01:12:36.0	99.650	-0.020	0.160	1.610
2020/01/31 01:12:36.1	99.670	-0.020	0.180	1.510
2020/01/31 01:12:36.2	99.690	-0.020	0.210	1.420
2020/01/31 01:12:36.3	99.710	-0.030	0.220	1.320
2020/01/31 01:12:36.4	99.730	-0.030	0.240	1.220
2020/01/31 01:12:36.5	99.750	-0.030	0.240	1.130
2020/01/31 01:12:36.6	99.770	-0.030	0.250	1.040
2020/01/31 01:12:36.7	99.790	-0.030	0.250	0.950
2020/01/31 01:12:36.8	99.800	-0.030	0.240	0.860
2020/01/31 01:12:36.9	99.820	-0.020	0.230	0.770
2020/01/31 01:12:37.0	99.840	-0.020	0.220	0.690
2020/01/31 01:12:37.1	99.850	-0.010	0.200	0.610
2020/01/31 01:12:37.2	99.860	-0.010	0.180	0.530
2020/01/31 01:12:37.3	99.860	-0.000	0.160	0.460
2020/01/31 01:12:37.4	99.870	0.010	0.130	0.390
2020/01/31 01:12:37.5	99.870	0.010	0.100	0.320
2020/01/31 01:12:37.6	99.870	0.020	0.070	0.250
2020/01/31 01:12:37.7	99.870	0.030	0.040	0.190
2020/01/31 01:12:37.8	99.860	0.040	0.010	0.130
2020/01/31 01:12:37.9	99.860	0.050	-0.020	0.070
2020/01/31 01:12:38.0	99.850	0.060	-0.060	0.020
2020/01/31 01:12:38.1	99.840	0.070	-0.090	-0.030
2020/01/31 01:12:38.2	99.830	0.080	-0.130	-0.080
2020/01/31 01:12:38.3	99.820	0.090	-0.160	-0.130
2020/01/31 01:12:38.4	99.810	0.100	-0.190	-0.180
2020/01/31 01:12:38.5	99.800	0.110	-0.220	-0.220
2020/01/31 01:12:38.6	99.790	0.120	-0.240	-0.260
2020/01/31 01:12:38.7	99.770	0.130	-0.270	-0.300
2020/01/31 01:12:38.8	99.760	0.140	-0.290	-0.340
2020/01/31 01:12:38.9	99.750	0.140	-0.310	-0.370
2020/01/31 01:12:39.0	99.740	0.150	-0.320	-0.410
2020/01/31 01:12:39.1	99.730	0.150	-0.330	-0.440
2020/01/31 01:12:39.2	99.720	0.160	-0.340	-0.470
2020/01/31 01:12:39.3	99.710	0.160	-0.350	-0.490
2020/01/31 01:12:39.4	99.700	0.160	-0.350	-0.520
2020/01/31 01:12:39.5	99.690	0.160	-0.360	-0.540
2020/01/31 01:12:39.6	99.690	0.160	-0.350	-0.560
2020/01/31 01:12:39.7	99.680	0.150	-0.350	-0.580
2020/01/31 01:12:39.8	99.680	0.150	-0.340	-0.590
2020/01/31 01:12:39.9	99.680	0.140	-0.340	-0.600
2020/01/31 01:12:40.0	99.670	0.140	-0.330	-0.610
2020/01/31 01:12:40.1	99.670	0.130	-0.320	-0.610
2020/01/31 01:12:40.2	99.670	0.120	-0.300	-0.610
2020/01/31 01:12:40.3	99.680	0.110	-0.290	-0.600
2020/01/31 01:12:40.4	99.680	0.100	-0.270	-0.590
2020/01/31 01:12:40.5	99.690	0.090	-0.260	-0.580
2020/01/31 01:12:40.6	99.690	0.080	-0.240	-0.560
2020/01/31 01:12:40.7	99.700	0.070	-0.230	-0.540
2020/01/31 01:12:40.8	99.710	0.060	-0.210	-0.510
2020/01/31 01:12:40.9	99.720	0.040	-0.200	-0.480
2020/01/31 01:12:41.0	99.740	0.030	-0.180	-0.430
2020/01/31 01:12:41.1	99.750	0.020	-0.170	-0.390
2020/01/31 01:12:41.2	99.760	0.010	-0.160	-0.340
2020/01/31 01:12:41.3	99.770	0.000	-0.150	-0.290
2020/01/31 01:12:41.4	99.780	-0.000	-0.140	-0.240
2020/01/31 01:12:41.5	99.790	-0.010	-0.130	-0.180
2020/01/31 01:12:41.6	99.810	-0.020	-0.120	-0.120
2020/01/31 01:12:41.7	99.820	-0.020	-0.120	-0.050
2020/01/31 01:12:41.8	99.830	-0.030	-0.110	0.010
2020/01/31 01:12:41.9	99.840	-0.030	-0.110	0.080
2020/01/31 01:12:42.0	99.850	-0.030	-0.100	0.150
2020/01/31 01:12:42.1	99.860	-0.030	-0.100	0.220
2020/01/31 01:12:42.2	99.870	-0.030	-0.100	0.300
2020/01/31 01:12:42.3	99.880	-0.030	-0.100	0.380
2020/01/31 01:12:42.4	99.890	-0.030	-0.100	0.450
2020/01/31 01:12:42.5	99.900	-0.030	-0.100	0.530
2020/01/31 01:12:42.6	99.910	-0.020	-0.100	0.610
2020/01/31 01:12:42.7	99.920	-0.020	-0.110	0.690
2020/01/31 01:12:42.8	99.920	-0.020	-0.110	0.770
2020/01/31 01:12:42.9	99.930	-0.010	-0.110	0.850
2020/01/31 01:12:43.0	99.930	-0.010	-0.110	0.940
2020/01/31 01:12:43.1	99.930	-0.000	-0.110	1.020
2020/01/31 01:12:43.2	99.930	0.000	-0.110	1.100
2020/01/31 01:12:43.3	99.930	0.000	-0.100	1.170
2020/01/31 01:12:43.4	99.930	0.010	-0.100	1.250
2020/01/31 01:12:43.5	99.930	0.010	-0.100	1.330
2020/01/31 01:12:43.6	99.930	0.010	-0.090	1.400
2020/01/31 01:12:43.7	99.930	0.010	-0.090	1.480
2020/01/31 01:12:43.8	99.930	0.010	-0.080	1.550
2020/01/31 01:12:43.9	99.920	0.010	-0.070	1.620
2020/01/31 01:12:44.0	99.920	0.010	-0.060	1.690
2020/01/31 01:12:44.1	99.920	0.010	-0.050	1.760
2020/01/31 01:12:44.2	99.910	0.000	-0.040	1.820
2020/01/31 01:12:44.3	99.910	-0.000	-0.030	1.880
2020/01/31 01:12:44.4	99.900	-0.010	-0.010	1.950
2020/01/31 01:12:44.5	99.890	-0.020	0.000	2.010
2020/01/31 01:12:44.6	99.890	-0.020	0.020	2.060
2020/01/31 01:12:44.7	99.880	-0.030	0.030	2.120
2020/01/31 01:12:44.8	99.870	-0.040	0.040	2.180
2020/01/31 01:12:44.9	99.860	-0.050	0.060	2.230
2020/01/31 01:12:45.0	99.860	-0.060	0.070	2.280
2020/01/31 01:12:45.1	99.850	-0.070	0.080	2.330
2020/01/31 01:12:45.2	99.840	-0.080	0.100	2.380
2020/01/31 01:12:45.3	99.830	-0.090	0.110	2.420
2020/01/31 01:12:45.4	99.820	-0.110	0.120	2.470
2020/01/31 01:12:45.5	99.820	-0.120	0.120	2.510
2020/01/31 01:12:45.6	99.810	-0.120	0.130	2.540
2020/01/31 01:12:45.7	99.800	-0.130	0.130	2.580
2020/01/31 01:12:45.8	99.800	-0.140	0.130	2.610
2020/01/31 01:12:45.9	99.790	-0.150	0.130	2.640
2020/01/31 01:12:46.0	99.790	-0.150	0.120	2.660
2020/01/31 01:12:46.1	99.790	-0.150	0.110	2.680
2020/01/31 01:12:46.2	99.790	-0.160	0.100	2.700
2020/01/31 01:12:46.3	99.790	-0.150	0.080	2.720
2020/01/31 01:12:46.4	99.800	-0.150	0.060	2.730
2020/01/31 01:12:46.5	99.800	-0.150	0.040	2.740
2020/01/31 01:12:46.6	99.810	-0.140	0.010	2.750
2020/01/31 01:12:46.7	99.810	-0.130	-0.020	2.750
2020/01/31 01:12:46.8	99.820	-0.120	-0.050	2.750
2020/01/31 01:12:46.9	99.830	-0.110	-0.090	2.750
2020/01/31 01:12:47.0	99.840	-0.090	-0.130	2.750
2020/01/31 01:12:47.1	99.850	-0.070	-0.170	2.750
2020/01/31 01:12:47.2	99.860	-0.050	-0.210	2.740
2020/01/31 01:12:47.3	99.870	-0.030	-0.250	2.730
2020/01/31 01:12:47.4	99.880	-0.010	-0.290	2.720
2020/01/31 01:12:47.5	99.890	0.010	-0.340	2.710
2020/01/31 01:12:47.6	99.900	0.040	-0.380	2.700
2020/01/31 01:12:47.7	99.910	0.060	-0.420	2.680
2020/01/31 01:12:47.8	99.920	0.090	-0.460	2.660
2020/01/31 01:12:47.9	99.940	0.110	-0.490	2.640
2020/01/31 01:12:48.0	99.940	0.140	-0.530	2.620
2020/01/31 01:12:48.1	99.950	0.160	-0.560	2.590
2020/01/31 01:12:48.2	99.960	0.190	-0.590	2.560
2020/01/31 01:12:48.3	99.970	0.210	-0.610	2.530
2020/01/31 01:12:48.4	99.980	0.230	-0.630	2.490
2020/01/31 01:12:48.5	99.990	0.250	-0.650	2.460
2020/01/31 01:12:48.6	100.000	0.270	-0.660	2.410
2020/01/31 01:12:48.7	100.010	0.290	-0.670	2.370
2020/01/31 01:12:48.8	100.020	0.310	-0.680	2.320
2020/01/31 01:12:48.9	100.030	0.320	-0.680	2.270
2020/01/31 01:12:49.0	100.010	0.330	-0.670	2.210
2020/01/31 01:12:49.1	100.020	0.340	-0.660	2.150
2020/01/31 01:12:49.2	100.020	0.350	-0.650	2.090
2020/01/31 01:12:49.3	100.020	0.350	-0.630	2.030
2020/01/31 01:12:49.4	100.030	0.350	-0.610	1.960
2020/01/31 01:12:49.5	100.030	0.350	-0.580	1.890
2020/01/31 01:12:49.6	100.030	0.340	-0.550	1.810
2020/01/31 01:12:49.7	100.030	0.330	-0.510	1.740
2020/01/31 01:12:49.8	100.030	0.320	-0.470	1.660
2020/01/31 01:12:49.9	100.030	0.310	-0.430	1.580
2020/01/31 01:12:50.0	100.030	0.290	-0.390	1.490
2020/01/31 01:12:50.1	100.030	0.280	-0.340	1.410
2020/01/31 01:12:50.2	100.030	0.260	-0.290	1.320
2020/01/31 01:12:50.3	100.020	0.230	-0.240	1.240
2020/01/31 01:12:50.4	100.020	0.210	-0.180	1.150
2020/01/31 01:12:50.5	100.010	0.180	-0.130	1.060
2020/01/31 01:12:50.6	100.010	0.150	-0.070	0.980
2020/01/31 01:12:50.7	100.000	0.130	-0.020	0.890
2020/01/31 01:12:50.8	99.990	0.100	0.040	0.810
2020/01/31 01:12:50.9	99.980	0.060	0.090	0.720
2020/01/31 01:12:51.0	99.970	0.030	0.150	0.650
2020/01/31 01:12:51.1	99.960	0.000	0.200	0.570
2020/01/31 01:12:51.2	99.950	-0.030	0.250	0.490
2020/01/31 01:12:51.3	99.940	-0.060	0.290	0.420
2020/01/31 01:12:51.4	99.930	-0.090	0.330	0.350
2020/01/31 01:12:51.5	99.920	-0.120	0.370	0.280
2020/01/31 01:12:51.6	99.900	-0.140	0.400	0.220
2020/01/31 01:12:51.7	99.890	-0.170	0.430	0.160
2020/01/31 01:12:51.8	99.870	-0.190	0.450	0.100
2020/01/31 01:12:51.9	99.860	-0.210	0.460	0.050
2020/01/31 01:12:52.0	99.830	-0.230	0.460	0.010
2020/01/31 01:12:52.1	99.820	-0.240	0.470	-0.030
2020/01/31 01:12:52.2	99.800	-0.250	0.460	-0.070
2020/01/31 01:12:52.3	99.790	-0.260	0.450	-0.110
2020/01/31 01:12:52.4	99.770	-0.270	0.430	-0.140
2020/01/31 01:12:52.5	99.760	-0.270	0.400	-0.160
2020/01/31 01:12:52.6	99.740	-0.270	0.370	-0.190
2020/01/31 01:12:52.7	99.730	-0.270	0.340	-0.210
2020/01/31 01:12:52.8	99.710	-0.270	0.290	-0.220
2020/01/31 01:12:52.9	99.700	-0.260	0.250	-0.240
2020/01/31 01:12:53.0	99.690	-0.250	0.200	-0.250
2020/01/31 01:12:53.1	99.680	-0.230	0.140	-0.260
2020/01/31 01:12:53.2	99.670	-0.220	0.080	-0.260
2020/01/31 01:12:53.3	99.660	-0.200	0.020	-0.270
2020/01/31 01:12:53.4	99.650	-0.180	-0.040	-0.270
2020/01/31 01:12:53.5	99.640	-0.160	-0.110	-0.270
2020/01/31 01:12:53.6	99.640	-0.140	-0.170	-0.260
2020/01/31 01:12:53.7	99.630	-0.120	-0.230	-0.260
2020/01/31 01:12:53.8	99.630	-0.100	-0.300	-0.250
2020/01/31 01:12:53.9	99.620	-0.070	-0.360	-0.250
2020/01/31 01:12:54.0	99.620	-0.050	-0.430	-0.230
2020/01/31 01:12:54.1	99.620	-0.020	-0.480	-0.220
2020/01/31 01:12:54.2	99.620	-0.000	-0.540	-0.210
2020/01/31 01:12:54.3	99.620	0.020	-0.590	-0.200
2020/01/31 01:12:54.4	99.620	0.040	-0.630	-0.190
2020/01/31 01:12:54.5	99.620	0.060	-0.680	-0.170
2020/01/31 01:12:54.6	99.620	0.080	-0.710	-0.150
2020/01/31 01:12:54.7	99.620	0.100	-0.740	-0.130
2020/01/31 01:12:54.8	99.620	0.110	-0.770	-0.110
2020/01/31 01:12:54.9	99.630	0.130	-0.790	-0.090
2020/01/31 01:12:55.0	99.640	0.140	-0.800	-0.070
2020/01/31 01:12:55.1	99.650	0.150	-0.800	-0.050
2020/01/31 01:12:55.2	99.650	0.150	-0.800	-0.020
2020/01/31 01:12:55.3	99.660	0.160	-0.790	0.000
2020/01/31 01:12:55.4	99.670	0.160	-0.780	0.030
2020/01/31 01:12:55.5	99.680	0.160	-0.760	0.060
2020/01/31 01:12:55.6	99.690	0.150	-0.730	0.090
2020/01/31 01:12:55.7	99.700	0.140	-0.700	0.120
2020/01/31 01:12:55.8	99.710	0.140	-0.660	0.150
2020/01/31 01:12:55.9	99.720	0.120	-0.620	0.190
2020/01/31 01:12:56.0	99.750	0.110	-0.570	0.230
2020/01/31 01:12:56.1	99.760	0.090	-0.520	0.270
2020/01/31 01:12:56.2	99.770	0.080	-0.470	0.310
2020/01/31 01:12:56.3	99.790	0.060	-0.410	0.360
2020/01/31 01:12:56.4	99.800	0.030	-0.350	0.400
2020/01/31 01:12:56.5	99.810	0.010	-0.290	0.450
2020/01/31 01:12:56.6	99.810	-0.010	-0.230	0.500
2020/01/31 01:12:56.7	99.820	-0.040	-0.160	0.560
2020/01/31 01:12:56.8	99.830	-0.070	-0.100	0.620
2020/01/31 01:12:56.9	99.830	-0.100	-0.040	0.680
2020/01/31 01:12:57.0	99.830	-0.130	0.030	0.740
2020/01/31 01:12:57.1	99.830	-0.160	0.090	0.810
2020/01/31 01:12:57.2	99.830	-0.190	0.150	0.880
2020/01/31 01:12:57.3	99.820	-0.210	0.210	0.950
2020/01/31 01:12:57.4	99.810	-0.240	0.260	1.030
2020/01/31 01:12:57.5	99.800	-0.270	0.310	1.110
2020/01/31 01:12:57.6	99.790	-0.300	0.360	1.190
2020/01/31 01:12:57.7	99.770	-0.330	0.400	1.270
2020/01/31 01:12:57.8	99.760	-0.350	0.440	1.350
2020/01/31 01:12:57.9	99.740	-0.380	0.480	1.440
2020/01/31 01:12:58.0	99.720	-0.400	0.510	1.530
2020/01/31 01:12:58.1	99.700	-0.420	0.530	1.610
2020/01/31 01:12:58.2	99.680	-0.430	0.550	1.700
2020/01/31 01:12:58.3	99.660	-0.450	0.570	1.780
2020/01/31 01:12:58.4	99.640	-0.460	0.580	1.870
2020/01/31 01:12:58.5	99.620	-0.470	0.580	1.950
2020/01/31 01:12:58.6	99.590	-0.480	0.580	2.020
2020/01/31 01:12:58.7	99.570	-0.490	0.580	2.100
2020/01/31 01:12:58.8	99.550	-0.490	0.570	2.170
2020/01/31 01:12:58.9	99.530	-0.490	0.550	2.240
2020/01/31 01:12:59.0	99.510	-0.480	0.530	2.310
2020/01/31 01:12:59.1	99.490	-0.480	0.500	2.360
2020/01/31 01:12:59.2	99.470	-0.470	0.470	2.420
2020/01/31 01:12:59.3	99.450	-0.450	0.430	2.470
2020/01/31 01:12:59.4	99.430	-0.440	0.390	2.510
2020/01/31 01:12:59.5	99.420	-0.420	0.340	2.550
2020/01/31 01:12:59.6	99.410	-0.390	0.300	2.590
2020/01/31 01:12:59.7	99.390	-0.370	0.240	2.620
2020/01/31 01:12:59.8	99.380	-0.340	0.190	2.640
2020/01/31 01:12:59.9	99.370	-0.310	0.130	2.660
2020/01/31 01:13:00.0	99.360	-0.280	0.070	2.670
2020/01/31 01:13:00.1	99.350	-0.250	0.010	2.680
2020/01/31 01:13:00.2	99.340	-0.210	-0.060	2.690
2020/01/31 01:13:00.3	99.330	-0.180	-0.120	2.690
2020/01/31 01:13:00.4	99.330	-0.140	-0.190	2.690
2020/01/31 01:13:00.5	99.320	-0.100	-0.250	2.680
2020/01/31 01:13:00.6	99.310	-0.060	-0.310	2.670
2020/01/31 01:13:00.7	99.300	-0.030	-0.370	2.660
2020/01/31 01:13:00.8	99.300	0.010	-0.430	2.650
2020/01/31 01:13:00.9	99.290	0.050	-0.480	2.630
2020/01/31 01:13:01.0	99.270	0.090	-0.540	2.610
2020/01/31 01:13:01.1	99.260	0.130	-0.590	2.590
2020/01/31 01:13:01.2	99.250	0.160	-0.630	2.570
2020/01/31 01:13:01.3	99.240	0.200	-0.670	2.540
2020/01/31 01:13:01.4	99.230	0.230	-0.710	2.510
2020/01/31 01:13:01.5	99.230	0.260	-0.740	2.490
2020/01/31 01:13:01.6	99.220	0.290	-0.770	2.460
2020/01/31 01:13:01.7	99.210	0.320	-0.790	2.420
2020/01/31 01:13:01.8	99.200	0.350	-0.800	2.390
2020/01/31 01:13:01.9	99.190	0.370	-0.820	2.360
2020/01/31 01:13:02.0	99.170	0.390	-0.820	2.320
2020/01/31 01:13:02.1	99.160	0.410	-0.830	2.280
2020/01/31 01:13:02.2	99.140	0.430	-0.820	2.240
2020/01/31 01:13:02.3	99.130	0.450	-0.820	2.200
2020/01/31 01:13:02.4	99.120	0.460	-0.810	2.160
2020/01/31 01:13:02.5	99.110	0.480	-0.790	2.120
2020/01/31 01:13:02.6	99.100	0.490	-0.780	2.070
2020/01/31 01:13:02.7	99.090	0.500	-0.760	2.020
2020/01/31 01:13:02.8	99.070	0.500	-0.730	1.970
2020/01/31 01:13:02.9	99.060	0.510	-0.710	1.920
2020/01/31 01:13:03.0	99.050	0.510	-0.680	1.870
2020/01/31 01:13:03.1	99.040	0.520	-0.650	1.820
2020/01/31 01:13:03.2	99.030	0.520	-0.620	1.760
2020/01/31 01:13:03.3	99.020	0.520	-0.580	1.700
2020/01/31 01:13:03.4	99.010	0.520	-0.550	1.640
2020/01/31 01:13:03.5	99.000	0.510	-0.520	1.580
2020/01/31 01:13:03.6	98.990	0.510	-0.490	1.510
2020/01/31 01:13:03.7	98.990	0.510	-0.450	1.440
2020/01/31 01:13:03.8	98.980	0.500	-0.420	1.380
2020/01/31 01:13:03.9	98.970	0.500	-0.390	1.310
2020/01/31 01:13:04.0	98.970	0.490	-0.360	1.240
2020/01/31 01:13:04.1	98.960	0.480	-0.340	1.170
2020/01/31 01:13:04.2	98.950	0.480	-0.310	1.100
2020/01/31 01:13:04.3	98.940	0.470	-0.280	1.030
2020/01/31 01:13:04.4	98.930	0.460	-0.260	0.970
2020/01/31 01:13:04.5	98.920	0.450	-0.240	0.900
2020/01/31 01:13:04.6	98.910	0.440	-0.210	0.840
2020/01/31 01:13:04.7	98.900	0.430	-0.190	0.780
2020/01/31 01:13:04.8	98.890	0.420	-0.170	0.720
2020/01/31 01:13:04.9	98.880	0.410	-0.150	0.660
2020/01/31 01:13:05.0	98.880	0.400	-0.140	0.610
2020/01/31 01:13:05.1	98.870	0.380	-0.120	0.560
2020/01/31 01:13:05.2	98.860	0.370	-0.100	0.510
2020/01/31 01:13:05.3	98.850	0.350	-0.080	0.470
2020/01/31 01:13:05.4	98.840	0.340	-0.070	0.430
2020/01/31 01:13:05.5	98.820	0.320	-0.050	0.390
2020/01/31 01:13:05.6	98.810	0.300	-0.040	0.360
2020/01/31 01:13:05.7	98.800	0.280	-0.020	0.330
2020/01/31 01:13:05.8	98.790	0.260	-0.000	0.300
2020/01/31 01:13:05.9	98.780	0.240	0.020	0.280
2020/01/31 01:13:06.0	98.780	0.220	0.030	0.260
2020/01/31 01:13:06.1	98.770	0.190	0.050	0.250
2020/01/31 01:13:06.2	98.760	0.170	0.070	0.230
2020/01/31 01:13:06.3	98.750	0.140	0.090	0.230
2020/01/31 01:13:06.4	98.740	0.120	0.110	0.220
2020/01/31 01:13:06.5	98.730	0.090	0.130	0.210
2020/01/31 01:13:06.6	98.730	0.060	0.150	0.210
2020/01/31 01:13:06.7	98.720	0.030	0.170	0.210
2020/01/31 01:13:06.8	98.720	-0.000	0.200	0.210
2020/01/31 01:13:06.9	98.720	-0.030	0.220	0.210
2020/01/31 01:13:07.0	98.730	-0.060	0.240	0.220
2020/01/31 01:13:07.1	98.730	-0.090	0.260	0.220
2020/01/31 01:13:07.2	98.730	-0.120	0.280	0.230
2020/01/31 01:13:07.3	98.730	-0.150	0.300	0.230
2020/01/31 01:13:07.4	98.740	-0.180	0.320	0.240
2020/01/31 01:13:07.5	98.740	-0.210	0.340	0.250
2020/01/31 01:13:07.6	98.740	-0.240	0.360	0.250
2020/01/31 01:13:07.7	98.740	-0.270	0.370	0.260
2020/01/31 01:13:07.8	98.750	-0.300	0.390	0.270
2020/01/31 01:13:07.9	98.750	-0.320	0.400	0.280
2020/01/31 01:13:08.0	98.770	-0.350	0.410	0.300
2020/01/31 01:13:08.1	98.770	-0.370	0.420	0.310
2020/01/31 01:13:08.2	98.770	-0.390	0.420	0.330
2020/01/31 01:13:08.3	98.780	-0.410	0.430	0.350
2020/01/31 01:13:08.4	98.780	-0.430	0.430	0.360
2020/01/31 01:13:08.5	98.790	-0.450	0.430	0.380
2020/01/31 01:13:08.6	98.790	-0.470	0.430	0.400
2020/01/31 01:13:08.7	98.790	-0.480	0.430	0.430
2020/01/31 01:13:08.8	98.790	-0.490	0.420	0.450
2020/01/31 01:13:08.9	98.800	-0.500	0.410	0.480
2020/01/31 01:13:09.0	98.800	-0.510	0.400	0.510
2020/01/31 01:13:09.1	98.800	-0.520	0.390	0.530
2020/01/31 01:13:09.2	98.800	-0.520	0.380	0.570
2020/01/31 01:13:09.3	98.800	-0.530	0.360	0.600
2020/01/31 01:13:09.4	98.800	-0.530	0.350	0.630
2020/01/31 01:13:09.5	98.800	-0.530	0.330	0.670
2020/01/31 01:13:09.6	98.800	-0.520	0.310	0.700
2020/01/31 01:13:09.7	98.800	-0.520	0.280	0.740
2020/01/31 01:13:09.8	98.800	-0.510	0.250	0.780
2020/01/31 01:13:09.9	98.790	-0.510	0.220	0.820
2020/01/31 01:13:10.0	98.780	-0.500	0.190	0.870
2020/01/31 01:13:10.1	98.780	-0.490	0.160	0.910
2020/01/31 01:13:10.2	98.780	-0.480	0.120	0.950
2020/01/31 01:13:10.3	98.770	-0.460	0.080	1.000
2020/01/31 01:13:10.4	98.770	-0.450	0.040	1.040
2020/01/31 01:13:10.5	98.770	-0.430	-0.010	1.090
2020/01/31 01:13:10.6	98.760	-0.410	-0.060	1.140
2020/01/31 01:13:10.7	98.750	-0.390	-0.110	1.180
2020/01/31 01:13:10.8	98.750	-0.370	-0.160	1.230
2020/01/31 01:13:10.9	98.740	-0.350	-0.220	1.280
2020/01/31 01:13:11.0	98.740	-0.330	-0.270	1.330
2020/01/31 01:13:11.1	98.740	-0.300	-0.330	1.370
2020/01/31 01:13:11.2	98.730	-0.280	-0.390	1.420
2020/01/31 01:13:11.3	98.720	-0.250	-0.450	1.470
2020/01/31 01:13:11.4	98.710	-0.230	-0.510	1.520
2020/01/31 01:13:11.5	98.700	-0.200	-0.570	1.570
2020/01/31 01:13:11.6	98.700	-0.180	-0.630	1.620
2020/01/31 01:13:11.7	98.690	-0.150	-0.690	1.670
2020/01/31 01:13:11.8	98.680	-0.120	-0.750	1.710
2020/01/31 01:13:11.9	98.670	-0.100	-0.810	1.760
2020/01/31 01:13:12.0	98.650	-0.070	-0.860	1.810
2020/01/31 01:13:12.1	98.640	-0.040	-0.910	1.860
2020/01/31 01:13:12.2	98.630	-0.020	-0.960	1.900
2020/01/31 01:13:12.3	98.620	0.000	-1.000	1.950
2020/01/31 01:13:12.4	98.610	0.030	-1.040	1.990
2020/01/31 01:13:12.5	98.590	0.050	-1.070	2.040
2020/01/31 01:13:12.6	98.580	0.070	-1.100	2.080
2020/01/31 01:13:12.7	98.570	0.090	-1.120	2.120
2020/01/31 01:13:12.8	98.560	0.110	-1.140	2.160
2020/01/31 01:13:12.9	98.550	0.130	-1.150	2.200
2020/01/31 01:13:13.0	98.540	0.140	-1.150	2.230
2020/01/31 01:13:13.1	98.520	0.160	-1.150	2.270
2020/01/31 01:13:13.2	98.510	0.170	-1.140	2.300
2020/01/31 01:13:13.3	98.500	0.180	-1.120	2.330
2020/01/31 01:13:13.4	98.490	0.190	-1.100	2.350
2020/01/31 01:13:13.5	98.480	0.200	-1.070	2.370
2020/01/31 01:13:13.6	98.460	0.200	-1.030	2.390
2020/01/31 01:13:13.7	98.450	0.210	-0.990	2.410
2020/01/31 01:13:13.8	98.440	0.210	-0.940	2.420
2020/01/31 01:13:13.9	98.420	0.210	-0.890	2.420
2020/01/31 01:13:14.0	98.400	0.210	-0.830	2.430
2020/01/31 01:13:14.1	98.390	0.210	-0.770	2.430
2020/01/31 01:13:14.2	98.380	0.210	-0.700	2.420
2020/01/31 01:13:14.3	98.360	0.200	-0.630	2.410
2020/01/31 01:13:14.4	98.350	0.200	-0.560	2.400
2020/01/31 01:13:14.5	98.340	0.190	-0.480	2.380
2020/01/31 01:13:14.6	98.320	0.180	-0.400	2.360
2020/01/31 01:13:14.7	98.310	0.170	-0.320	2.330
2020/01/31 01:13:14.8	98.300	0.160	-0.250	2.300
2020/01/31 01:13:14.9	98.280	0.160	-0.170	2.270
2020/01/31 01:13:15.0	98.250	0.150	-0.090	2.230
2020/01/31 01:13:15.1	98.240	0.140	-0.010	2.200
2020/01/31 01:13:15.2	98.220	0.130	0.060	2.150
2020/01/31 01:13:15.3	98.210	0.120	0.130	2.110
2020/01/31 01:13:15.4	98.200	0.110	0.200	2.060
2020/01/31 01:13:15.5	98.180	0.100	0.260	2.010
2020/01/31 01:13:15.6	98.170	0.090	0.320	1.970
2020/01/31 01:13:15.7	98.160	0.080	0.370	1.910
2020/01/31 01:13:15.8	98.140	0.080	0.420	1.860
2020/01/31 01:13:15.9	98.130	0.070	0.460	1.810
2020/01/31 01:13:16.0	98.130	0.070	0.500	1.760
2020/01/31 01:13:16.1	98.120	0.060	0.530	1.700
2020/01/31 01:13:16.2	98.110	0.060	0.560	1.640
2020/01/31 01:13:16.3	98.100	0.060	0.580	1.590
2020/01/31 01:13:16.4	98.090	0.060	0.600	1.530
2020/01/31 01:13:16.5	98.080	0.060	0.610	1.470
2020/01/31 01:13:16.6	98.080	0.070	0.610	1.410
2020/01/31 01:13:16.7	98.070	0.070	0.610	1.350
2020/01/31 01:13:16.8	98.070	0.070	0.600	1.290
2020/01/31 01:13:16.9	98.070	0.080	0.580	1.220
2020/01/31 01:13:17.0	98.080	0.090	0.570	1.160
2020/01/31 01:13:17.1	98.080	0.100	0.540	1.090
2020/01/31 01:13:17.2	98.090	0.100	0.510	1.020
2020/01/31 01:13:17.3	98.100	0.110	0.480	0.950
2020/01/31 01:13:17.4	98.110	0.120	0.450	0.880
2020/01/31 01:13:17.5	98.130	0.130	0.410	0.810
2020/01/31 01:13:17.6	98.150	0.140	0.360	0.730
2020/01/31 01:13:17.7	98.160	0.150	0.320	0.650
2020/01/31 01:13:17.8	98.180	0.160	0.270	0.580
2020/01/31 01:13:17.9	98.210	0.170	0.220	0.500
2020/01/31 01:13:18.0	98.240	0.180	0.170	0.420
2020/01/31 01:13:18.1	98.260	0.190	0.120	0.340
2020/01/31 01:13:18.2	98.290	0.200	0.070	0.270
2020/01/31 01:13:18.3	98.310	0.210	0.020	0.190
2020/01/31 01:13:18.4	98.340	0.210	-0.030	0.120
2020/01/31 01:13:18.5	98.370	0.220	-0.070	0.050
2020/01/31 01:13:18.6	98.390	0.220	-0.120	-0.020
2020/01/31 01:13:18.7	98.420	0.230	-0.160	-0.090
2020/01/31 01:13:18.8	98.440	0.230	-0.210	-0.150
2020/01/31 01:13:18.9	98.460	0.230	-0.250	-0.200
2020/01/31 01:13:19.0	98.470	0.230	-0.280	-0.250
2020/01/31 01:13:19.1	98.490	0.230	-0.310	-0.300
2020/01/31 01:13:19.2	98.500	0.230	-0.340	-0.340
2020/01/31 01:13:19.3	98.510	0.230	-0.370	-0.380
2020/01/31 01:13:19.4	98.520	0.220	-0.390	-0.410
2020/01/31 01:13:19.5	98.530	0.220	-0.410	-0.430
2020/01/31 01:13:19.6	98.530	0.210	-0.430	-0.450
2020/01/31 01:13:19.7	98.530	0.210	-0.440	-0.460
2020/01/31 01:13:19.8	98.520	0.200	-0.450	-0.460
2020/01/31 01:13:19.9	98.520	0.190	-0.460	-0.460
2020/01/31 01:13:20.0	98.510	0.180	-0.460	-0.450
2020/01/31 01:13:20.1	98.500	0.170	-0.460	-0.440
2020/01/31 01:13:20.2	98.480	0.160	-0.450	-0.420
2020/01/31 01:13:20.3	98.470	0.150	-0.450	-0.390
2020/01/31 01:13:20.4	98.450	0.130	-0.440	-0.360
2020/01/31 01:13:20.5	98.430	0.120	-0.420	-0.330
2020/01/31 01:13:20.6	98.410	0.110	-0.410	-0.290
2020/01/31 01:13:20.7	98.390	0.100	-0.390	-0.240
2020/01/31 01:13:20.8	98.360	0.080	-0.370	-0.190
2020/01/31 01:13:20.9	98.340	0.070	-0.350	-0.130
2020/01/31 01:13:21.0	98.320	0.050	-0.320	-0.070
2020/01/31 01:13:21.1	98.300	0.040	-0.290	-0.010
2020/01/31 01:13:21.2	98.270	0.020	-0.270	0.060
2020/01/31 01:13:21.3	98.250	0.010	-0.240	0.130
2020/01/31 01:13:21.4	98.220	-0.010	-0.210	0.200
2020/01/31 01:13:21.5	98.200	-0.020	-0.190	0.270
2020/01/31 01:13:21.6	98.170	-0.040	-0.160	0.350
2020/01/31 01:13:21.7	98.150	-0.050	-0.130	0.430
2020/01/31 01:13:21.8	98.130	-0.070	-0.110	0.510
2020/01/31 01:13:21.9	98.100	-0.080	-0.080	0.590
2020/01/31 01:13:22.0	98.080	-0.090	-0.060	0.670
2020/01/31 01:13:22.1	98.060	-0.110	-0.040	0.760
2020/01/31 01:13:22.2	98.040	-0.120	-0.020	0.840
2020/01/31 01:13:22.3	98.020	-0.130	-0.000	0.920
2020/01/31 01:13:22.4	98.010	-0.140	0.010	1.000
2020/01/31 01:13:22.5	97.990	-0.150	0.030	1.090
2020/01/31 01:13:22.6	97.970	-0.160	0.040	1.160
2020/01/31 01:13:22.7	97.960	-0.170	0.050	1.240
2020/01/31 01:13:22.8	97.950	-0.180	0.060	1.310
2020/01/31 01:13:22.9	97.940	-0.180	0.060	1.390
2020/01/31 01:13:23.0	97.940	-0.190	0.070	1.460
2020/01/31 01:13:23.1	97.930	-0.200	0.070	1.520
2020/01/31 01:13:23.2	97.930	-0.200	0.060	1.580
2020/01/31 01:13:23.3	97.930	-0.210	0.060	1.640
2020/01/31 01:13:23.4	97.930	-0.210	0.050	1.690
2020/01/31 01:13:23.5	97.930	-0.210	0.040	1.730
2020/01/31 01:13:23.6	97.940	-0.210	0.040	1.770
2020/01/31 01:13:23.7	97.940	-0.220	0.020	1.810
2020/01/31 01:13:23.8	97.950	-0.220	0.010	1.840
2020/01/31 01:13:23.9	97.960	-0.220	-0.000	1.870
2020/01/31 01:13:24.0	97.970	-0.220	-0.020	1.900
2020/01/31 01:13:24.1	97.980	-0.220	-0.030	1.920
2020/01/31 01:13:24.2	97.990	-0.210	-0.050	1.940
2020/01/31 01:13:24.3	98.010	-0.210	-0.070	1.950
2020/01/31 01:13:24.4	98.020	-0.210	-0.080	1.960
2020/01/31 01:13:24.5	98.040	-0.200	-0.100	1.970
2020/01/31 01:13:24.6	98.060	-0.200	-0.120	1.970
2020/01/31 01:13:24.7	98.080	-0.200	-0.140	1.980
2020/01/31 01:13:24.8	98.100	-0.190	-0.150	1.980
2020/01/31 01:13:24.9	98.120	-0.190	-0.170	1.980
2020/01/31 01:13:25.0	98.130	-0.180	-0.190	1.980
2020/01/31 01:13:25.1	98.150	-0.180	-0.200	1.980
2020/01/31 01:13:25.2	98.170	-0.170	-0.220	1.980
2020/01/31 01:13:25.3	98.190	-0.160	-0.240	1.980
2020/01/31 01:13:25.4	98.210	-0.150	-0.250	1.980
2020/01/31 01:13:25.5	98.230	-0.150	-0.270	1.980
2020/01/31 01:13:25.6	98.250	-0.140	-0.280	1.980
2020/01/31 01:13:25.7	98.270	-0.130	-0.290	1.980
2020/01/31 01:13:25.8	98.290	-0.120	-0.310	1.990
2020/01/31 01:13:25.9	98.300	-0.110	-0.320	1.990
2020/01/31 01:13:26.0	98.330	-0.100	-0.330	2.000
2020/01/31 01:13:26.1	98.340	-0.090	-0.340	2.000
2020/01/31 01:13:26.2	98.350	-0.080	-0.350	2.010
2020/01/31 01:13:26.3	98.360	-0.070	-0.360	2.020
2020/01/31 01:13:26.4	98.370	-0.050	-0.370	2.020
2020/01/31 01:13:26.5	98.380	-0.040	-0.380	2.030
2020/01/31 01:13:26.6	98.390	-0.030	-0.390	2.040
2020/01/31 01:13:26.7	98.390	-0.020	-0.400	2.050
2020/01/31 01:13:26.8	98.390	-0.000	-0.400	2.060
2020/01/31 01:13:26.9	98.400	0.010	-0.410	2.060
2020/01/31 01:13:27.0	98.400	0.020	-0.420	2.070
2020/01/31 01:13:27.1	98.400	0.040	-0.420	2.080
2020/01/31 01:13:27.2	98.400	0.050	-0.430	2.080
2020/01/31 01:13:27.3	98.390	0.060	-0.440	2.080
2020/01/31 01:13:27.4	98.390	0.070	-0.440	2.080
2020/01/31 01:13:27.5	98.380	0.090	-0.440	2.080
2020/01/31 01:13:27.6	98.380	0.100	-0.450	2.080
2020/01/31 01:13:27.7	98.370	0.110	-0.450	2.080
2020/01/31 01:13:27.8	98.360	0.120	-0.450	2.070
2020/01/31 01:13:27.9	98.350	0.130	-0.450	2.070
2020/01/31 01:13:28.0	98.340	0.140	-0.440	2.060
2020/01/31 01:13:28.1	98.330	0.140	-0.440	2.050
2020/01/31 01:13:28.2	98.320	0.150	-0.440	2.040
2020/01/31 01:13:28.3	98.300	0.150	-0.430	2.020
2020/01/31 01:13:28.4	98.290	0.160	-0.420	2.010
2020/01/31 01:13:28.5	98.280	0.160	-0.410	1.990
2020/01/31 01:13:28.6	98.260	0.160	-0.400	1.980
2020/01/31 01:13:28.7	98.240	0.150	-0.390	1.960
2020/01/31 01:13:28.8	98.230	0.150	-0.370	1.940
2020/01/31 01:13:28.9	98.210	0.140	-0.360	1.920
2020/01/31 01:13:29.0	98.200	0.140	-0.340	1.890
2020/01/31 01:13:29.1	98.180	0.130	-0.320	1.870
2020/01/31 01:13:29.2	98.160	0.120	-0.290	1.840
2020/01/31 01:13:29.3	98.140	0.110	-0.270	1.820
2020/01/31 01:13:29.4	98.130	0.090	-0.240	1.790
2020/01/31 01:13:29.5	98.110	0.080	-0.210	1.770
2020/01/31 01:13:29.6	98.090	0.060	-0.180	1.740
2020/01/31 01:13:29.7	98.070	0.050	-0.150	1.710
2020/01/31 01:13:29.8	98.050	0.030	-0.110	1.680
2020/01/31 01:13:29.9	98.040	0.010	-0.080	1.650
2020/01/31 01:13:30.0	98.020	-0.010	-0.040	1.620
2020/01/31 01:13:30.1	98.000	-0.030	-0.000	1.580
2020/01/31 01:13:30.2	97.980	-0.050	0.040	1.550
2020/01/31 01:13:30.3	97.960	-0.070	0.070	1.510
2020/01/31 01:13:30.4	97.950	-0.090	0.110	1.480
2020/01/31 01:13:30.5	97.930	-0.110	0.150	1.440
2020/01/31 01:13:30.6	97.920	-0.130	0.190	1.400
2020/01/31 01:13:30.7	97.900	-0.150	0.220	1.350
2020/01/31 01:13:30.8	97.890	-0.170	0.260	1.310
2020/01/31 01:13:30.9	97.880	-0.180	0.290	1.260
2020/01/31 01:13:31.0	97.880	-0.200	0.320	1.210
2020/01/31 01:13:31.1	97.870	-0.210	0.350	1.160
2020/01/31 01:13:31.2	97.860	-0.230	0.370	1.110
2020/01/31 01:13:31.3	97.850	-0.240	0.400	1.050
2020/01/31 01:13:31.4	97.840	-0.240	0.410	0.990
2020/01/31 01:13:31.5	97.840	-0.250	0.430	0.930
2020/01/31 01:13:31.6	97.830	-0.250	0.440	0.870
2020/01/31 01:13:31.7	97.830	-0.250	0.450	0.800
2020/01/31 01:13:31.8	97.830	-0.250	0.450	0.730
2020/01/31 01:13:31.9	97.820	-0.250	0.450	0.670
2020/01/31 01:13:32.0	97.820	-0.240	0.440	0.600
2020/01/31 01:13:32.1	97.820	-0.230	0.430	0.520
2020/01/31 01:13:32.2	97.820	-0.220	0.410	0.450
2020/01/31 01:13:32.3	97.820	-0.200	0.390	0.380
2020/01/31 01:13:32.4	97.820	-0.190	0.360	0.310
2020/01/31 01:13:32.5	97.820	-0.160	0.330	0.240
2020/01/31 01:13:32.6	97.820	-0.140	0.290	0.170
2020/01/31 01:13:32.7	97.820	-0.110	0.250	0.100
2020/01/31 01:13:32.8	97.820	-0.090	0.200	0.030
2020/01/31 01:13:32.9	97.820	-0.060	0.160	-0.030
2020/01/31 01:13:33.0	97.820	-0.020	0.100	-0.100
2020/01/31 01:13:33.1	97.820	0.010	0.050	-0.160
2020/01/31 01:13:33.2	97.820	0.050	-0.010	-0.230
2020/01/31 01:13:33.3	97.830	0.090	-0.070	-0.280
2020/01/31 01:13:33.4	97.830	0.120	-0.130	-0.340
2020/01/31 01:13:33.5	97.840	0.160	-0.190	-0.400
2020/01/31 01:13:33.6	97.840	0.200	-0.250	-0.450
2020/01/31 01:13:33.7	97.850	0.240	-0.320	-0.500
2020/01/31 01:13:33.8	97.860	0.280	-0.380	-0.550
2020/01/31 01:13:33.9	97.870	0.310	-0.440	-0.590
2020/01/31 01:13:34.0	97.880	0.350	-0.500	-0.630
2020/01/31 01:13:34.1	97.900	0.380	-0.550	-0.670
2020/01/31 01:13:34.2	97.910	0.420	-0.610	-0.700
2020/01/31 01:13:34.3	97.930	0.450	-0.660	-0.730
2020/01/31 01:13:34.4	97.950	0.470	-0.710	-0.760
2020/01/31 01:13:34.5	97.960	0.500	-0.760	-0.780
2020/01/31 01:13:34.6	97.980	0.520	-0.800	-0.800
2020/01/31 01:13:34.7	98.000	0.540	-0.840	-0.820
2020/01/31 01:13:34.8	98.020	0.560	-0.870	-0.830
2020/01/31 01:13:34.9	98.040	0.570	-0.900	-0.830
2020/01/31 01:13:35.0	98.050	0.570	-0.930	-0.830
2020/01/31 01:13:35.1	98.070	0.580	-0.940	-0.820
2020/01/31 01:13:35.2	98.080	0.580	-0.960	-0.810
2020/01/31 01:13:35.3	98.100	0.570	-0.960	-0.780
2020/01/31 01:13:35.4	98.120	0.560	-0.960	-0.760
2020/01/31 01:13:35.5	98.130	0.550	-0.950	-0.720
2020/01/31 01:13:35.6	98.150	0.530	-0.940	-0.680
2020/01/31 01:13:35.7	98.160	0.510	-0.920	-0.640
2020/01/31 01:13:35.8	98.170	0.490	-0.890	-0.590
2020/01/31 01:13:35.9	98.180	0.460	-0.850	-0.530
2020/01/31 01:13:36.0	98.210	0.420	-0.810	-0.460
2020/01/31 01:13:36.1	98.220	0.390	-0.760	-0.400
2020/01/31 01:13:36.2	98.230	0.350	-0.710	-0.320
2020/01/31 01:13:36.3	98.230	0.300	-0.650	-0.250
2020/01/31 01:13:36.4	98.240	0.260	-0.590	-0.170
2020/01/31 01:13:36.5	98.240	0.210	-0.520	-0.080
2020/01/31 01:13:36.6	98.240	0.160	-0.450	0.000
2020/01/31 01:13:36.7	98.250	0.110	-0.380	0.090
2020/01/31 01:13:36.8	98.240	0.050	-0.300	0.190
2020/01/31 01:13:36.9	98.240	-0.000	-0.220	0.290
2020/01/31 01:13:37.0	98.260	-0.060	-0.140	0.390
2020/01/31 01:13:37.1	98.250	-0.110	-0.060	0.490
2020/01/31 01:13:37.2	98.250	-0.170	0.020	0.590
2020/01/31 01:13:37.3	98.240	-0.220	0.100	0.700
2020/01/31 01:13:37.4	98.230	-0.270	0.180	0.800
2020/01/31 01:13:37.5	98.220	-0.320	0.260	0.910
2020/01/31 01:13:37.6	98.210	-0.370	0.340	1.020
2020/01/31 01:13:37.7	98.200	-0.420	0.410	1.120
2020/01/31 01:13:37.8	98.190	-0.460	0.480	1.230
2020/01/31 01:13:37.9	98.170	-0.510	0.540	1.330
2020/01/31 01:13:38.0	98.180	-0.540	0.610	1.440
2020/01/31 01:13:38.1	98.170	-0.580	0.660	1.540
2020/01/31 01:13:38.2	98.150	-0.610	0.710	1.640
2020/01/31 01:13:38.3	98.130	-0.640	0.750	1.730
2020/01/31 01:13:38.4	98.110	-0.660	0.790	1.820
2020/01/31 01:13:38.5	98.090	-0.680	0.820	1.910
2020/01/31 01:13:38.6	98.070	-0.700	0.840	1.990
2020/01/31 01:13:38.7	98.050	-0.710	0.850	2.070
2020/01/31 01:13:38.8	98.030	-0.720	0.860	2.150
2020/01/31 01:13:38.9	98.010	-0.720	0.850	2.220
2020/01/31 01:13:39.0	97.990	-0.720	0.840	2.280
2020/01/31 01:13:39.1	97.970	-0.710	0.830	2.350
2020/01/31 01:13:39.2	97.950	-0.700	0.800	2.400
2020/01/31 01:13:39.3	97.940	-0.680	0.770	2.460
2020/01/31 01:13:39.4	97.920	-0.660	0.730	2.510
2020/01/31 01:13:39.5	97.900	-0.640	0.680	2.560
2020/01/31 01:13:39.6	97.880	-0.610	0.630	2.600
2020/01/31 01:13:39.7	97.870	-0.580	0.570	2.640
2020/01/31 01:13:39.8	97.850	-0.550	0.510	2.680
2020/01/31 01:13:39.9	97.840	-0.520	0.440	2.710
2020/01/31 01:13:40.0	97.810	-0.480	0.380	2.740
2020/01/31 01:13:40.1	97.800	-0.440	0.300	2.770
2020/01/31 01:13:40.2	97.790	-0.400	0.220	2.790
2020/01/31 01:13:40.3	97.780	-0.360	0.140	2.810
2020/01/31 01:13:40.4	97.770	-0.310	0.060	2.830
2020/01/31 01:13:40.5	97.770	-0.270	-0.030	2.850
2020/01/31 01:13:40.6	97.760	-0.220	-0.110	2.860
2020/01/31 01:13:40.7	97.750	-0.180	-0.190	2.870
2020/01/31 01:13:40.8	97.750	-0.130	-0.280	2.880
2020/01/31 01:13:40.9	97.740	-0.090	-0.360	2.890
2020/01/31 01:13:41.0	97.730	-0.050	-0.440	2.890
2020/01/31 01:13:41.1	97.730	-0.010	-0.520	2.890
2020/01/31 01:13:41.2	97.730	0.030	-0.600	2.880
2020/01/31 01:13:41.3	97.730	0.070	-0.670	2.870
2020/01/31 01:13:41.4	97.730	0.110	-0.740	2.860
2020/01/31 01:13:41.5	97.730	0.140	-0.800	2.850
2020/01/31 01:13:41.6	97.740	0.170	-0.860	2.820
2020/01/31 01:13:41.7	97.740	0.200	-0.920	2.800
2020/01/31 01:13:41.8	97.750	0.230	-0.970	2.770
2020/01/31 01:13:41.9	97.760	0.250	-1.010	2.730
2020/01/31 01:13:42.0	97.750	0.280	-1.040	2.690
2020/01/31 01:13:42.1	97.760	0.290	-1.070	2.650
2020/01/31 01:13:42.2	97.780	0.310	-1.100	2.600
2020/01/31 01:13:42.3	97.790	0.320	-1.120	2.540
2020/01/31 01:13:42.4	97.800	0.340	-1.130	2.490
2020/01/31 01:13:42.5	97.820	0.340	-1.130	2.430
2020/01/31 01:13:42.6	97.830	0.350	-1.130	2.360
2020/01/31 01:13:42.7	97.850	0.350	-1.120	2.290
2020/01/31 01:13:42.8	97.860	0.360	-1.110	2.220
2020/01/31 01:13:42.9	97.880	0.360	-1.090	2.140
2020/01/31 01:13:43.0	97.880	0.350	-1.060	2.060
2020/01/31 01:13:43.1	97.900	0.350	-1.030	1.980
2020/01/31 01:13:43.2	97.910	0.340	-0.990	1.900
2020/01/31 01:13:43.3	97.930	0.340	-0.940	1.820
2020/01/31 01:13:43.4	97.940	0.330	-0.900	1.730
2020/01/31 01:13:43.5	97.960	0.320	-0.850	1.650
2020/01/31 01:13:43.6	97.970	0.310	-0.790	1.560
2020/01/31 01:13:43.7	97.980	0.290	-0.730	1.480
2020/01/31 01:13:43.8	97.990	0.280	-0.670	1.390
2020/01/31 01:13:43.9	98.000	0.270	-0.600	1.310
2020/01/31 01:13:44.0	98.010	0.250	-0.520	1.220
2020/01/31 01:13:44.1	98.020	0.240	-0.450	1.140
2020/01/31 01:13:44.2	98.020	0.220	-0.380	1.050
2020/01/31 01:13:44.3	98.020	0.200	-0.300	0.970
2020/01/31 01:13:44.4	98.020	0.190	-0.230	0.890
2020/01/31 01:13:44.5	98.020	0.170	-0.150	0.810
2020/01/31 01:13:44.6	98.020	0.150	-0.080	0.740
2020/01/31 01:13:44.7	98.020	0.130	0.000	0.660
2020/01/31 01:13:44.8	98.020	0.120	0.080	0.590
2020/01/31 01:13:44.9	98.010	0.100	0.150	0.520
2020/01/31 01:13:45.0	98.020	0.080	0.220	0.450
2020/01/31 01:13:45.1	98.010	0.060	0.290	0.380
2020/01/31 01:13:45.2	98.000	0.040	0.360	0.320
2020/01/31 01:13:45.3	98.000	0.030	0.420	0.250
2020/01/31 01:13:45.4	97.990	0.010	0.470	0.200
2020/01/31 01:13:45.5	97.980	-0.010	0.530	0.140
2020/01/31 01:13:45.6	97.970	-0.020	0.570	0.080
2020/01/31 01:13:45.7	97.960	-0.040	0.610	0.030
2020/01/31 01:13:45.8	97.950	-0.060	0.650	-0.020
2020/01/31 01:13:45.9	97.950	-0.070	0.680	-0.070
2020/01/31 01:13:46.0	97.930	-0.080	0.710	-0.110
2020/01/31 01:13:46.1	97.920	-0.100	0.720	-0.150
2020/01/31 01:13:46.2	97.910	-0.110	0.730	-0.190
2020/01/31 01:13:46.3	97.900	-0.120	0.730	-0.230
2020/01/31 01:13:46.4	97.900	-0.130	0.730	-0.260
2020/01/31 01:13:46.5	97.890	-0.140	0.710	-0.300
2020/01/31 01:13:46.6	97.890	-0.140	0.690	-0.330
2020/01/31 01:13:46.7	97.880	-0.150	0.670	-0.350
2020/01/31 01:13:46.8	97.870	-0.150	0.630	-0.380
2020/01/31 01:13:46.9	97.870	-0.150	0.590	-0.400
2020/01/31 01:13:47.0	97.860	-0.150	0.550	-0.420
2020/01/31 01:13:47.1	97.850	-0.150	0.500	-0.430
2020/01/31 01:13:47.2	97.840	-0.150	0.440	-0.440
2020/01/31 01:13:47.3	97.830	-0.150	0.380	-0.450
2020/01/31 01:13:47.4	97.830	-0.140	0.320	-0.460
2020/01/31 01:13:47.5	97.820	-0.140	0.250	-0.460
2020/01/31 01:13:47.6	97.810	-0.130	0.180	-0.460
2020/01/31 01:13:47.7	97.800	-0.120	0.110	-0.460
2020/01/31 01:13:47.8	97.800	-0.110	0.040	-0.450
2020/01/31 01:13:47.9	97.790	-0.090	-0.030	-0.450
2020/01/31 01:13:48.0	97.770	-0.080	-0.110	-0.440
2020/01/31 01:13:48.1	97.770	-0.070	-0.180	-0.430
2020/01/31 01:13:48.2	97.760	-0.050	-0.250	-0.420
2020/01/31 01:13:48.3	97.760	-0.040	-0.320	-0.410
2020/01/31 01:13:48.4	97.760	-0.020	-0.390	-0.400
2020/01/31 01:13:48.5	97.760	-0.000	-0.450	-0.380
2020/01/31 01:13:48.6	97.760	0.010	-0.510	-0.370
2020/01/31 01:13:48.7	97.760	0.030	-0.560	-0.350
2020/01/31 01:13:48.8	97.760	0.050	-0.610	-0.330
2020/01/31 01:13:48.9	97.760	0.060	-0.650	-0.310
2020/01/31 01:13:49.0	97.760	0.080	-0.690	-0.290
2020/01/31 01:13:49.1	97.760	0.100	-0.720	-0.270
2020/01/31 01:13:49.2	97.770	0.110	-0.750	-0.240
2020/01/31 01:13:49.3	97.770	0.130	-0.770	-0.220
2020/01/31 01:13:49.4	97.770	0.140	-0.780	-0.190
2020/01/31 01:13:49.5	97.780	0.150	-0.790	-0.150
2020/01/31 01:13:49.6	97.780	0.160	-0.790	-0.120
2020/01/31 01:13:49.7	97.780	0.170	-0.780	-0.080
2020/01/31 01:13:49.8	97.790	0.180	-0.770	-0.040
2020/01/31 01:13:49.9	97.790	0.190	-0.760	0.010
2020/01/31 01:13:50.0	97.800	0.190	-0.740	0.060
2020/01/31 01:13:50.1	97.800	0.200	-0.710	0.110
2020/01/31 01:13:50.2	97.800	0.200	-0.680	0.170
2020/01/31 01:13:50.3	97.800	0.200	-0.640	0.220
2020/01/31 01:13:50.4	97.790	0.200	-0.600	0.290
2020/01/31 01:13:50.5	97.790	0.200	-0.560	0.350
2020/01/31 01:13:50.6	97.790	0.190	-0.520	0.420
2020/01/31 01:13:50.7	97.780	0.190	-0.470	0.490
2020/01/31 01:13:50.8	97.780	0.180	-0.420	0.560
2020/01/31 01:13:50.9	97.770	0.170	-0.370	0.640
2020/01/31 01:13:51.0	97.770	0.160	-0.320	0.720
2020/01/31 01:13:51.1	97.770	0.150	-0.270	0.800
2020/01/31 01:13:51.2	97.760	0.140	-0.220	0.880
2020/01/31 01:13:51.3	97.750	0.120	-0.170	0.970
2020/01/31 01:13:51.4	97.740	0.110	-0.130	1.050
2020/01/31 01:13:51.5	97.730	0.100	-0.080	1.140
2020/01/31 01:13:51.6	97.730	0.080	-0.040	1.220
2020/01/31 01:13:51.7	97.720	0.070	-0.000	1.310
2020/01/31 01:13:51.8	97.710	0.050	0.030	1.390
2020/01/31 01:13:51.9	97.700	0.040	0.060	1.480
2020/01/31 01:13:52.0	97.700	0.030	0.090	1.560
2020/01/31 01:13:52.1	97.690	0.010	0.110	1.640
2020/01/31 01:13:52.2	97.680	-0.000	0.120	1.720
2020/01/31 01:13:52.3	97.670	-0.010	0.130	1.800
2020/01/31 01:13:52.4	97.660	-0.020	0.140	1.880
2020/01/31 01:13:52.5	97.660	-0.030	0.140	1.960
2020/01/31 01:13:52.6	97.650	-0.040	0.130	2.030
2020/01/31 01:13:52.7	97.640	-0.040	0.120	2.100
2020/01/31 01:13:52.8	97.630	-0.050	0.110	2.170
2020/01/31 01:13:52.9	97.630	-0.050	0.090	2.230
2020/01/31 01:13:53.0	97.620	-0.060	0.070	2.290
2020/01/31 01:13:53.1	97.620	-0.060	0.050	2.350
2020/01/31 01:13:53.2	97.610	-0.060	0.020	2.400
2020/01/31 01:13:53.3	97.610	-0.060	-0.010	2.450
2020/01/31 01:13:53.4	97.600	-0.050	-0.040	2.500
2020/01/31 01:13:53.5	97.600	-0.050	-0.070	2.550
2020/01/31 01:13:53.6	97.600	-0.050	-0.100	2.590
2020/01/31 01:13:53.7	97.600	-0.040	-0.140	2.630
2020/01/31 01:13:53.8	97.600	-0.040	-0.170	2.660
2020/01/31 01:13:53.9	97.590	-0.030	-0.200	2.690
2020/01/31 01:13:54.0	97.610	-0.020	-0.230	2.720
2020/01/31 01:13:54.1	97.610	-0.020	-0.260	2.750
2020/01/31 01:13:54.2	97.610	-0.010	-0.280	2.770
2020/01/31 01:13:54.3	97.610	-0.010	-0.300	2.780
2020/01/31 01:13:54.4	97.610	0.000	-0.320	2.800
2020/01/31 01:13:54.5	97.610	0.010	-0.340	2.810
2020/01/31 01:13:54.6	97.610	0.010	-0.350	2.820
2020/01/31 01:13:54.7	97.620	0.020	-0.360	2.820
2020/01/31 01:13:54.8	97.620	0.020	-0.370	2.820
2020/01/31 01:13:54.9	97.620	0.030	-0.370	2.820
2020/01/31 01:13:55.0	97.610	0.030	-0.360	2.810
2020/01/31 01:13:55.1	97.620	0.030	-0.360	2.800
2020/01/31 01:13:55.2	97.620	0.030	-0.350	2.790
2020/01/31 01:13:55.3	97.620	0.040	-0.340	2.780
2020/01/31 01:13:55.4	97.620	0.040	-0.320	2.760
2020/01/31 01:13:55.5	97.630	0.030	-0.300	2.740
2020/01/31 01:13:55.6	97.630	0.030	-0.280	2.710
2020/01/31 01:13:55.7	97.630	0.030	-0.260	2.680
2020/01/31 01:13:55.8	97.630	0.030	-0.230	2.650
2020/01/31 01:13:55.9	97.640	0.020	-0.210	2.610
2020/01/31 01:13:56.0	97.640	0.020	-0.180	2.570
2020/01/31 01:13:56.1	97.640	0.010	-0.150	2.530
2020/01/31 01:13:56.2	97.640	0.000	-0.120	2.490
2020/01/31 01:13:56.3	97.650	-0.010	-0.090	2.440
2020/01/31 01:13:56.4	97.650	-0.010	-0.060	2.380
2020/01/31 01:13:56.5	97.650	-0.020	-0.030	2.330
2020/01/31 01:13:56.6	97.660	-0.030	-0.000	2.270
2020/01/31 01:13:56.7	97.660	-0.040	0.030	2.210
2020/01/31 01:13:56.8	97.660	-0.050	0.050	2.150
2020/01/31 01:13:56.9	97.660	-0.060	0.080	2.090
2020/01/31 01:13:57.0	97.660	-0.070	0.100	2.020
2020/01/31 01:13:57.1	97.660	-0.080	0.130	1.950
2020/01/31 01:13:57.2	97.660	-0.090	0.140	1.880
2020/01/31 01:13:57.3	97.660	-0.100	0.160	1.810
2020/01/31 01:13:57.4	97.660	-0.110	0.180	1.740
2020/01/31 01:13:57.5	97.660	-0.120	0.190	1.660
2020/01/31 01:13:57.6	97.660	-0.120	0.200	1.590
2020/01/31 01:13:57.7	97.660	-0.130	0.200	1.510
2020/01/31 01:13:57.8	97.660	-0.140	0.210	1.430
2020/01/31 01:13:57.9	97.660	-0.140	0.210	1.360
2020/01/31 01:13:58.0	97.670	-0.150	0.210	1.280
2020/01/31 01:13:58.1	97.670	-0.150	0.210	1.190
2020/01/31 01:13:58.2	97.670	-0.160	0.200	1.110
2020/01/31 01:13:58.3	97.660	-0.160	0.200	1.030
2020/01/31 01:13:58.4	97.660	-0.160	0.190	0.950
2020/01/31 01:13:58.5	97.660	-0.160	0.180	0.870
2020/01/31 01:13:58.6	97.660	-0.160	0.160	0.790
2020/01/31 01:13:58.7	97.650	-0.160	0.150	0.700
2020/01/31 01:13:58.8	97.650	-0.160	0.140	0.620
2020/01/31 01:13:58.9	97.650	-0.160	0.120	0.540
2020/01/31 01:13:59.0	97.640	-0.150	0.100	0.460
2020/01/31 01:13:59.1	97.640	-0.150	0.080	0.380
2020/01/31 01:13:59.2	97.630	-0.140	0.060	0.300
2020/01/31 01:13:59.3	97.620	-0.140	0.040	0.220
2020/01/31 01:13:59.4	97.620	-0.140	0.020	0.150
2020/01/31 01:13:59.5	97.610	-0.130	0.000	0.070
2020/01/31 01:13:59.6	97.600	-0.120	-0.020	-0.000
2020/01/31 01:13:59.7	97.590	-0.120	-0.040	-0.070
2020/01/31 01:13:59.8	97.580	-0.110	-0.060	-0.140
2020/01/31 01:13:59.9	97.580	-0.110	-0.080	-0.210
2020/01/31 01:14:00.0	97.570	-0.100	-0.100	-0.270
2020/01/31 01:14:00.1	97.560	-0.090	-0.120	-0.340
2020/01/31 01:14:00.2	97.550	-0.090	-0.130	-0.400
2020/01/31 01:14:00.3	97.540	-0.080	-0.150	-0.450
2020/01/31 01:14:00.4	97.530	-0.080	-0.170	-0.510
2020/01/31 01:14:00.5	97.530	-0.070	-0.190	-0.550
2020/01/31 01:14:00.6	97.520	-0.070	-0.200	-0.600
2020/01/31 01:14:00.7	97.510	-0.060	-0.220	-0.640
2020/01/31 01:14:00.8	97.510	-0.060	-0.240	-0.680
2020/01/31 01:14:00.9	97.500	-0.060	-0.250	-0.710
2020/01/31 01:14:01.0	97.490	-0.050	-0.260	-0.750
2020/01/31 01:14:01.1	97.490	-0.050	-0.280	-0.770
2020/01/31 01:14:01.2	97.480	-0.050	-0.290	-0.790
2020/01/31 01:14:01.3	97.480	-0.040	-0.310	-0.810
2020/01/31 01:14:01.4	97.470	-0.040	-0.320	-0.820
2020/01/31 01:14:01.5	97.470	-0.040	-0.340	-0.830
2020/01/31 01:14:01.6	97.470	-0.040	-0.350	-0.840
2020/01/31 01:14:01.7	97.460	-0.040	-0.370	-0.840
2020/01/31 01:14:01.8	97.460	-0.030	-0.380	-0.830
2020/01/31 01:14:01.9	97.460	-0.030	-0.400	-0.820
2020/01/31 01:14:02.0	97.460	-0.030	-0.410	-0.810
2020/01/31 01:14:02.1	97.460	-0.030	-0.430	-0.790
2020/01/31 01:14:02.2	97.450	-0.020	-0.450	-0.770
2020/01/31 01:14:02.3	97.450	-0.020	-0.460	-0.750
2020/01/31 01:14:02.4	97.450	-0.020	-0.480	-0.730
2020/01/31 01:14:02.5	97.450	-0.010	-0.500	-0.700
2020/01/31 01:14:02.6	97.440	-0.010	-0.510	-0.660
2020/01/31 01:14:02.7	97.440	-0.000	-0.530	-0.630
2020/01/31 01:14:02.8	97.440	0.000	-0.540	-0.590
2020/01/31 01:14:02.9	97.430	0.010	-0.560	-0.550
2020/01/31 01:14:03.0	97.420	0.010	-0.570	-0.500
2020/01/31 01:14:03.1	97.420	0.020	-0.590	-0.460
2020/01/31 01:14:03.2	97.410	0.030	-0.600	-0.410
2020/01/31 01:14:03.3	97.410	0.030	-0.610	-0.370
2020/01/31 01:14:03.4	97.410	0.040	-0.620	-0.320
2020/01/31 01:14:03.5	97.410	0.050	-0.630	-0.270
2020/01/31 01:14:03.6	97.400	0.060	-0.630	-0.220
2020/01/31 01:14:03.7	97.400	0.070	-0.630	-0.170
2020/01/31 01:14:03.8	97.400	0.080	-0.630	-0.120
2020/01/31 01:14:03.9	97.400	0.090	-0.630	-0.070
2020/01/31 01:14:04.0	97.410	0.100	-0.630	-0.020
2020/01/31 01:14:04.1	97.410	0.110	-0.620	0.030
2020/01/31 01:14:04.2	97.410	0.120	-0.610	0.080
2020/01/31 01:14:04.3	97.410	0.130	-0.590	0.140
2020/01/31 01:14:04.4	97.420	0.140	-0.570	0.190
2020/01/31 01:14:04.5	97.430	0.140	-0.550	0.240
2020/01/31 01:14:04.6	97.430	0.150	-0.530	0.290
2020/01/31 01:14:04.7	97.440	0.160	-0.500	0.340
2020/01/31 01:14:04.8	97.450	0.170	-0.470	0.390
2020/01/31 01:14:04.9	97.460	0.180	-0.440	0.450
2020/01/31 01:14:05.0	97.470	0.190	-0.400	0.500
2020/01/31 01:14:05.1	97.490	0.190	-0.360	0.560
2020/01/31 01:14:05.2	97.500	0.200	-0.320	0.610
2020/01/31 01:14:05.3	97.510	0.200	-0.270	0.670
2020/01/31 01:14:05.4	97.530	0.210	-0.230	0.730
2020/01/31 01:14:05.5	97.540	0.210	-0.180	0.790
2020/01/31 01:14:05.6	97.560	0.210	-0.130	0.850
2020/01/31 01:14:05.7	97.570	0.210	-0.090	0.910
2020/01/31 01:14:05.8	97.590	0.210	-0.040	0.970
2020/01/31 01:14:05.9	97.610	0.210	0.010	1.030
2020/01/31 01:14:06.0	97.630	0.210	0.060	1.100
2020/01/31 01:14:06.1	97.640	0.200	0.100	1.160
2020/01/31 01:14:06.2	97.660	0.200	0.150	1.230
2020/01/31 01:14:06.3	97.670	0.190	0.190	1.300
2020/01/31 01:14:06.4	97.680	0.180	0.230	1.370
2020/01/31 01:14:06.5	97.700	0.180	0.270	1.440
2020/01/31 01:14:06.6	97.710	0.170	0.300	1.510
2020/01/31 01:14:06.7	97.720	0.160	0.330	1.570
2020/01/31 01:14:06.8	97.730	0.150	0.360	1.640
2020/01/31 01:14:06.9	97.740	0.140	0.390	1.710
2020/01/31 01:14:07.0	97.760	0.130	0.410	1.780
2020/01/31 01:14:07.1	97.770	0.120	0.430	1.840
2020/01/31 01:14:07.2	97.780	0.110	0.440	1.900
2020/01/31 01:14:07.3	97.790	0.100	0.450	1.960
2020/01/31 01:14:07.4	97.800	0.080	0.450	2.020
2020/01/31 01:14:07.5	97.810	0.070	0.450	2.080
2020/01/31 01:14:07.6	97.810	0.060	0.450	2.130
2020/01/31 01:14:07.7	97.820	0.050	0.440	2.180
2020/01/31 01:14:07.8	97.820	0.040	0.430	2.230
2020/01/31 01:14:07.9	97.830	0.030	0.420	2.270
2020/01/31 01:14:08.0	97.840	0.030	0.400	2.320
2020/01/31 01:14:08.1	97.850	0.020	0.380	2.350
2020/01/31 01:14:08.2	97.850	0.010	0.360	2.390
2020/01/31 01:14:08.3	97.840	0.000	0.330	2.420
2020/01/31 01:14:08.4	97.840	-0.000	0.300	2.450
2020/01/31 01:14:08.5	97.840	-0.010	0.260	2.470
2020/01/31 01:14:08.6	97.840	-0.010	0.230	2.490
2020/01/31 01:14:08.7	97.830	-0.020	0.190	2.510
2020/01/31 01:14:08.8	97.830	-0.020	0.150	2.520
2020/01/31 01:14:08.9	97.820	-0.020	0.110	2.530
2020/01/31 01:14:09.0	97.820	-0.020	0.070	2.540
2020/01/31 01:14:09.1	97.820	-0.020	0.020	2.550
2020/01/31 01:14:09.2	97.810	-0.020	-0.020	2.550
2020/01/31 01:14:09.3	97.800	-0.020	-0.060	2.540
2020/01/31 01:14:09.4	97.800	-0.020	-0.110	2.540
2020/01/31 01:14:09.5	97.790	-0.020	-0.150	2.530
2020/01/31 01:14:09.6	97.780	-0.020	-0.190	2.520
2020/01/31 01:14:09.7	97.770	-0.020	-0.230	2.500
2020/01/31 01:14:09.8	97.770	-0.010	-0.270	2.490
2020/01/31 01:14:09.9	97.760	-0.010	-0.300	2.470
2020/01/31 01:14:10.0	97.740	-0.010	-0.340	2.440
2020/01/31 01:14:10.1	97.730	-0.000	-0.370	2.420
2020/01/31 01:14:10.2	97.720	0.000	-0.400	2.390
2020/01/31 01:14:10.3	97.720	0.010	-0.430	2.360
2020/01/31 01:14:10.4	97.710	0.010	-0.450	2.330
2020/01/31 01:14:10.5	97.710	0.010	-0.470	2.300
2020/01/31 01:14:10.6	97.700	0.020	-0.480	2.270
2020/01/31 01:14:10.7	97.700	0.020	-0.500	2.240
2020/01/31 01:14:10.8	97.690	0.020	-0.510	2.200
2020/01/31 01:14:10.9	97.690	0.020	-0.510	2.160
2020/01/31 01:14:11.0	97.680	0.030	-0.510	2.120
2020/01/31 01:14:11.1	97.670	0.030	-0.510	2.080
2020/01/31 01:14:11.2	97.670	0.030	-0.510	2.040
2020/01/31 01:14:11.3	97.670	0.030	-0.500	2.000
2020/01/31 01:14:11.4	97.670	0.020	-0.490	1.960
2020/01/31 01:14:11.5	97.670	0.020	-0.470	1.920
2020/01/31 01:14:11.6	97.670	0.020	-0.450	1.870
2020/01/31 01:14:11.7	97.670	0.010	-0.430	1.830
2020/01/31 01:14:11.8	97.670	0.010	-0.410	1.780
2020/01/31 01:14:11.9	97.680	0.000	-0.390	1.730
2020/01/31 01:14:12.0	97.680	-0.010	-0.360	1.690
2020/01/31 01:14:12.1	97.690	-0.010	-0.330	1.630
2020/01/31 01:14:12.2	97.690	-0.020	-0.300	1.580
2020/01/31 01:14:12.3	97.700	-0.030	-0.270	1.530
2020/01/31 01:14:12.4	97.700	-0.040	-0.240	1.480
2020/01/31 01:14:12.5	97.710	-0.050	-0.200	1.420
2020/01/31 01:14:12.6	97.720	-0.070	-0.170	1.360
2020/01/31 01:14:12.7	97.730	-0.080	-0.140	1.310
2020/01/31 01:14:12.8	97.740	-0.090	-0.110	1.250
2020/01/31 01:14:12.9	97.760	-0.100	-0.080	1.190
2020/01/31 01:14:13.0	97.750	-0.120	-0.040	1.120
2020/01/31 01:14:13.1	97.770	-0.130	-0.020	1.060
2020/01/31 01:14:13.2	97.780	-0.140	0.010	1.000
2020/01/31 01:14:13.3	97.800	-0.150	0.030	0.930
2020/01/31 01:14:13.4	97.810	-0.160	0.050	0.870
2020/01/31 01:14:13.5	97.830	-0.170	0.070	0.810
2020/01/31 01:14:13.6	97.840	-0.180	0.090	0.740
2020/01/31 01:14:13.7	97.860	-0.190	0.100	0.680
2020/01/31 01:14:13.8	97.870	-0.200	0.110	0.620
2020/01/31 01:14:13.9	97.880	-0.210	0.120	0.560
2020/01/31 01:14:14.0	97.920	-0.210	0.120	0.500
2020/01/31 01:14:14.1	97.930	-0.210	0.130	0.450
2020/01/31 01:14:14.2	97.940	-0.220	0.120	0.400
2020/01/31 01:14:14.3	97.950	-0.220	0.120	0.350
2020/01/31 01:14:14.4	97.950	-0.220	0.110	0.300
2020/01/31 01:14:14.5	97.960	-0.210	0.100	0.260
2020/01/31 01:14:14.6	97.960	-0.210	0.080	0.220
2020/01/31 01:14:14.7	97.960	-0.200	0.060	0.190
2020/01/31 01:14:14.8	97.960	-0.190	0.040	0.150
2020/01/31 01:14:14.9	97.960	-0.180	0.020	0.130
2020/01/31 01:14:15.0	97.940	-0.170	-0.010	0.110
2020/01/31 01:14:15.1	97.930	-0.160	-0.030	0.090
2020/01/31 01:14:15.2	97.920	-0.140	-0.060	0.070
2020/01/31 01:14:15.3	97.910	-0.130	-0.100	0.060
2020/01/31 01:14:15.4	97.900	-0.110	-0.130	0.060
2020/01/31 01:14:15.5	97.880	-0.090	-0.170	0.050
2020/01/31 01:14:15.6	97.860	-0.070	-0.200	0.060
2020/01/31 01:14:15.7	97.850	-0.050	-0.240	0.060
2020/01/31 01:14:15.8	97.830	-0.030	-0.280	0.070
2020/01/31 01:14:15.9	97.810	-0.010	-0.320	0.080
2020/01/31 01:14:16.0	97.790	0.010	-0.350	0.100
2020/01/31 01:14:16.1	97.770	0.030	-0.390	0.110
2020/01/31 01:14:16.2	97.740	0.050	-0.430	0.140
2020/01/31 01:14:16.3	97.720	0.070	-0.460	0.160
2020/01/31 01:14:16.4	97.690	0.090	-0.490	0.190
2020/01/31 01:14:16.5	97.660	0.110	-0.530	0.220
2020/01/31 01:14:16.6	97.640	0.130	-0.550	0.250
2020/01/31 01:14:16.7	97.610	0.150	-0.580	0.280
2020/01/31 01:14:16.8	97.580	0.170	-0.600	0.310
2020/01/31 01:14:16.9	97.560	0.180	-0.620	0.340
2020/01/31 01:14:17.0	97.530	0.190	-0.640	0.380
2020/01/31 01:14:17.1	97.510	0.200	-0.650	0.410
2020/01/31 01:14:17.2	97.490	0.210	-0.660	0.440
2020/01/31 01:14:17.3	97.470	0.220	-0.670	0.480
2020/01/31 01:14:17.4	97.450	0.230	-0.670	0.510
2020/01/31 01:14:17.5	97.430	0.230	-0.670	0.540
2020/01/31 01:14:17.6	97.420	0.230	-0.660	0.570
2020/01/31 01:14:17.7	97.410	0.220	-0.650	0.600
2020/01/31 01:14:17.8	97.400	0.220	-0.630	0.630
2020/01/31 01:14:17.9	97.390	0.210	-0.610	0.660
2020/01/31 01:14:18.0	97.410	0.200	-0.580	0.680
2020/01/31 01:14:18.1	97.410	0.190	-0.550	0.710
2020/01/31 01:14:18.2	97.410	0.170	-0.520	0.730
2020/01/31 01:14:18.3	97.420	0.160	-0.480	0.760
2020/01/31 01:14:18.4	97.430	0.140	-0.440	0.780
2020/01/31 01:14:18.5	97.440	0.120	-0.390	0.800
2020/01/31 01:14:18.6	97.450	0.090	-0.350	0.820
2020/01/31 01:14:18.7	97.470	0.070	-0.300	0.850
2020/01/31 01:14:18.8	97.490	0.040	-0.240	0.870
2020/01/31 01:14:18.9	97.510	0.020	-0.190	0.890
2020/01/31 01:14:19.0	97.520	-0.010	-0.130	0.920
2020/01/31 01:14:19.1	97.540	-0.040	-0.070	0.940
2020/01/31 01:14:19.2	97.570	-0.070	-0.020	0.960
2020/01/31 01:14:19.3	97.600	-0.100	0.040	0.980
2020/01/31 01:14:19.4	97.620	-0.130	0.100	1.010
2020/01/31 01:14:19.5	97.650	-0.160	0.150	1.030
2020/01/31 01:14:19.6	97.680	-0.190	0.210	1.060
2020/01/31 01:14:19.7	97.710	-0.210	0.260	1.080
2020/01/31 01:14:19.8	97.740	-0.240	0.310	1.100
2020/01/31 01:14:19.9	97.770	-0.260	0.360	1.130
2020/01/31 01:14:20.0	97.790	-0.290	0.410	1.160
2020/01/31 01:14:20.1	97.820	-0.310	0.450	1.180
2020/01/31 01:14:20.2	97.850	-0.330	0.490	1.210
2020/01/31 01:14:20.3	97.880	-0.340	0.520	1.240
2020/01/31 01:14:20.4	97.900	-0.360	0.550	1.260
2020/01/31 01:14:20.5	97.930	-0.370	0.570	1.290
2020/01/31 01:14:20.6	97.950	-0.380	0.590	1.310
2020/01/31 01:14:20.7	97.980	-0.390	0.610	1.340
2020/01/31 01:14:20.8	98.000	-0.390	0.620	1.370
2020/01/31 01:14:20.9	98.030	-0.390	0.630	1.390
2020/01/31 01:14:21.0	98.040	-0.390	0.630	1.420
2020/01/31 01:14:21.1	98.060	-0.380	0.620	1.450
2020/01/31 01:14:21.2	98.080	-0.380	0.610	1.470
2020/01/31 01:14:21.3	98.100	-0.370	0.590	1.500
2020/01/31 01:14:21.4	98.110	-0.350	0.570	1.530
2020/01/31 01:14:21.5	98.130	-0.340	0.550	1.560
2020/01/31 01:14:21.6	98.140	-0.320	0.520	1.590
2020/01/31 01:14:21.7	98.140	-0.300	0.480	1.610
2020/01/31 01:14:21.8	98.150	-0.270	0.440	1.640
2020/01/31 01:14:21.9	98.150	-0.250	0.400	1.670
2020/01/31 01:14:22.0	98.160	-0.220	0.350	1.700
2020/01/31 01:14:22.1	98.160	-0.190	0.300	1.730
2020/01/31 01:14:22.2	98.150	-0.160	0.250	1.760
2020/01/31 01:14:22.3	98.140	-0.130	0.190	1.790
2020/01/31 01:14:22.4	98.130	-0.100	0.130	1.820
2020/01/31 01:14:22.5	98.120	-0.060	0.070	1.850
2020/01/31 01:14:22.6	98.100	-0.030	0.010	1.880
2020/01/31 01:14:22.7	98.080	0.010	-0.060	1.900
2020/01/31 01:14:22.8	98.060	0.040	-0.120	1.930
2020/01/31 01:14:22.9	98.040	0.080	-0.180	1.950
2020/01/31 01:14:23.0	98.010	0.110	-0.240	1.980
2020/01/31 01:14:23.1	97.980	0.140	-0.310	2.010
2020/01/31 01:14:23.2	97.960	0.180	-0.370	2.030
2020/01/31 01:14:23.3	97.930	0.210	-0.430	2.050
2020/01/31 01:14:23.4	97.900	0.240	-0.490	2.070
2020/01/31 01:14:23.5	97.870	0.270	-0.540	2.080
2020/01/31 01:14:23.6	97.840	0.300	-0.600	2.100
2020/01/31 01:14:23.7	97.800	0.330	-0.650	2.110
2020/01/31 01:14:23.8	97.770	0.350	-0.700	2.120
2020/01/31 01:14:23.9	97.740	0.370	-0.740	2.130
2020/01/31 01:14:24.0	97.700	0.390	-0.780	2.130
2020/01/31 01:14:24.1	97.680	0.410	-0.820	2.130
2020/01/31 01:14:24.2	97.650	0.430	-0.850	2.130
2020/01/31 01:14:24.3	97.620	0.450	-0.880	2.120
2020/01/31 01:14:24.4	97.590	0.460	-0.900	2.120
2020/01/31 01:14:24.5	97.570	0.470	-0.920	2.110
2020/01/31 01:14:24.6	97.550	0.480	-0.930	2.100
2020/01/31 01:14:24.7	97.530	0.490	-0.940	2.080
2020/01/31 01:14:24.8	97.510	0.490	-0.950	2.060
2020/01/31 01:14:24.9	97.490	0.490	-0.940	2.040
2020/01/31 01:14:25.0	97.470	0.500	-0.930	2.020
2020/01/31 01:14:25.1	97.450	0.490	-0.920	1.990
2020/01/31 01:14:25.2	97.440	0.490	-0.910	1.960
2020/01/31 01:14:25.3	97.430	0.490	-0.890	1.920
2020/01/31 01:14:25.4	97.420	0.480	-0.870	1.890
2020/01/31 01:14:25.5	97.410	0.470	-0.840	1.840
2020/01/31 01:14:25.6	97.410	0.460	-0.810	1.800
2020/01/31 01:14:25.7	97.400	0.450	-0.780	1.750
2020/01/31 01:14:25.8	97.400	0.440	-0.740	1.700
2020/01/31 01:14:25.9	97.400	0.430	-0.700	1.650
2020/01/31 01:14:26.0	97.420	0.420	-0.660	1.590
2020/01/31 01:14:26.1	97.420	0.400	-0.620	1.530
2020/01/31 01:14:26.2	97.430	0.390	-0.580	1.480
2020/01/31 01:14:26.3	97.430	0.370	-0.540	1.420
2020/01/31 01:14:26.4	97.440	0.360	-0.490	1.350
2020/01/31 01:14:26.5	97.450	0.340	-0.450	1.290
2020/01/31 01:14:26.6	97.460	0.320	-0.400	1.230
2020/01/31 01:14:26.7	97.480	0.300	-0.360	1.160
2020/01/31 01:14:26.8	97.490	0.280	-0.310	1.100
2020/01/31 01:14:26.9	97.510	0.270	-0.270	1.030
2020/01/31 01:14:27.0	97.530	0.250	-0.220	0.970
2020/01/31 01:14:27.1	97.550	0.230	-0.180	0.900
2020/01/31 01:14:27.2	97.570	0.210	-0.140	0.830
2020/01/31 01:14:27.3	97.600	0.190	-0.100	0.770
2020/01/31 01:14:27.4	97.630	0.160	-0.060	0.700
2020/01/31 01:14:27.5	97.660	0.140	-0.020	0.640
2020/01/31 01:14:27.6	97.690	0.120	0.020	0.570
2020/01/31 01:14:27.7	97.730	0.100	0.060	0.510
2020/01/31 01:14:27.8	97.760	0.070	0.100	0.450
2020/01/31 01:14:27.9	97.790	0.050	0.140	0.390
2020/01/31 01:14:28.0	97.830	0.020	0.170	0.330
2020/01/31 01:14:28.1	97.870	-0.000	0.210	0.270
2020/01/31 01:14:28.2	97.910	-0.030	0.240	0.220
2020/01/31 01:14:28.3	97.950	-0.060	0.270	0.170
2020/01/31 01:14:28.4	97.980	-0.080	0.300	0.120
2020/01/31 01:14:28.5	98.020	-0.110	0.330	0.080
2020/01/31 01:14:28.6	98.060	-0.140	0.360	0.040
2020/01/31 01:14:28.7	98.100	-0.170	0.390	-0.000
2020/01/31 01:14:28.8	98.140	-0.200	0.410	-0.040
2020/01/31 01:14:28.9	98.170	-0.230	0.430	-0.070
2020/01/31 01:14:29.0	98.220	-0.260	0.460	-0.090
2020/01/31 01:14:29.1	98.250	-0.290	0.480	-0.120
2020/01/31 01:14:29.2	98.280	-0.320	0.490	-0.130
2020/01/31 01:14:29.3	98.320	-0.350	0.500	-0.150
2020/01/31 01:14:29.4	98.350	-0.380	0.510	-0.150
2020/01/31 01:14:29.5	98.380	-0.400	0.520	-0.160
2020/01/31 01:14:29.6	98.400	-0.430	0.520	-0.160
2020/01/31 01:14:29.7	98.430	-0.450	0.520	-0.150
2020/01/31 01:14:29.8	98.450	-0.480	0.520	-0.140
2020/01/31 01:14:29.9	98.470	-0.500	0.510	-0.120
2020/01/31 01:14:30.0	98.490	-0.520	0.500	-0.100
2020/01/31 01:14:30.1	98.510	-0.540	0.480	-0.070
2020/01/31 01:14:30.2	98.520	-0.550	0.460	-0.040
2020/01/31 01:14:30.3	98.530	-0.560	0.440	-0.010
2020/01/31 01:14:30.4	98.540	-0.570	0.410	0.030
2020/01/31 01:14:30.5	98.540	-0.580	0.380	0.070
2020/01/31 01:14:30.6	98.540	-0.580	0.340	0.110
2020/01/31 01:14:30.7	98.540	-0.590	0.300	0.160
2020/01/31 01:14:30.8	98.540	-0.590	0.260	0.210
2020/01/31 01:14:30.9	98.540	-0.580	0.220	0.260
2020/01/31 01:14:31.0	98.530	-0.580	0.170	0.310
2020/01/31 01:14:31.1	98.520	-0.570	0.120	0.370
2020/01/31 01:14:31.2	98.510	-0.560	0.070	0.420
2020/01/31 01:14:31.3	98.500	-0.540	0.020	0.480
2020/01/31 01:14:31.4	98.490	-0.530	-0.030	0.530
2020/01/31 01:14:31.5	98.480	-0.510	-0.080	0.590
2020/01/31 01:14:31.6	98.470	-0.490	-0.120	0.640
2020/01/31 01:14:31.7	98.460	-0.470	-0.170	0.700
2020/01/31 01:14:31.8	98.440	-0.450	-0.220	0.750
2020/01/31 01:14:31.9	98.430	-0.430	-0.270	0.800
2020/01/31 01:14:32.0	98.420	-0.410	-0.310	0.860
2020/01/31 01:14:32.1	98.410	-0.390	-0.350	0.910
2020/01/31 01:14:32.2	98.390	-0.370	-0.390	0.960
2020/01/31 01:14:32.3	98.380	-0.340	-0.420	1.010
2020/01/31 01:14:32.4	98.360	-0.320	-0.450	1.060
2020/01/31 01:14:32.5	98.350	-0.300	-0.480	1.120
2020/01/31 01:14:32.6	98.340	-0.280	-0.510	1.170
2020/01/31 01:14:32.7	98.320	-0.260	-0.530	1.220
2020/01/31 01:14:32.8	98.310	-0.240	-0.550	1.270
2020/01/31 01:14:32.9	98.300	-0.220	-0.560	1.320
2020/01/31 01:14:33.0	98.290	-0.200	-0.570	1.370
2020/01/31 01:14:33.1	98.270	-0.190	-0.570	1.420
2020/01/31 01:14:33.2	98.260	-0.170	-0.580	1.470
2020/01/31 01:14:33.3	98.250	-0.160	-0.570	1.510
2020/01/31 01:14:33.4	98.240	-0.150	-0.570	1.560
2020/01/31 01:14:33.5	98.220	-0.130	-0.560	1.610
2020/01/31 01:14:33.6	98.210	-0.120	-0.550	1.660
2020/01/31 01:14:33.7	98.200	-0.110	-0.530	1.710
2020/01/31 01:14:33.8	98.190	-0.100	-0.510	1.750
2020/01/31 01:14:33.9	98.190	-0.090	-0.490	1.790
2020/01/31 01:14:34.0	98.170	-0.080	-0.470	1.840
2020/01/31 01:14:34.1	98.170	-0.080	-0.440	1.870
2020/01/31 01:14:34.2	98.160	-0.070	-0.420	1.910
2020/01/31 01:14:34.3	98.160	-0.060	-0.390	1.940
2020/01/31 01:14:34.4	98.160	-0.050	-0.370	1.970
2020/01/31 01:14:34.5	98.160	-0.040	-0.340	1.990
2020/01/31 01:14:34.6	98.170	-0.040	-0.310	2.010
2020/01/31 01:14:34.7	98.170	-0.030	-0.280	2.020
2020/01/31 01:14:34.8	98.180	-0.020	-0.260	2.030
2020/01/31 01:14:34.9	98.190	-0.010	-0.230	2.030
2020/01/31 01:14:35.0	98.200	-0.000	-0.210	2.020
2020/01/31 01:14:35.1	98.220	0.010	-0.190	2.010
2020/01/31 01:14:35.2	98.240	0.020	-0.170	1.990
2020/01/31 01:14:35.3	98.260	0.030	-0.150	1.960
2020/01/31 01:14:35.4	98.280	0.050	-0.140	1.930
2020/01/31 01:14:35.5	98.310	0.060	-0.130	1.900
2020/01/31 01:14:35.6	98.340	0.080	-0.120	1.850
2020/01/31 01:14:35.7	98.370	0.100	-0.110	1.800
2020/01/31 01:14:35.8	98.400	0.110	-0.110	1.750
2020/01/31 01:14:35.9	98.430	0.130	-0.110	1.690
2020/01/31 01:14:36.0	98.460	0.150	-0.120	1.630
2020/01/31 01:14:36.1	98.490	0.170	-0.130	1.560
2020/01/31 01:14:36.2	98.530	0.190	-0.130	1.490
2020/01/31 01:14:36.3	98.560	0.210	-0.150	1.420
2020/01/31 01:14:36.4	98.600	0.230	-0.160	1.350
2020/01/31 01:14:36.5	98.640	0.260	-0.170	1.270
2020/01/31 01:14:36.6	98.670	0.280	-0.190	1.190
2020/01/31 01:14:36.7	98.710	0.300	-0.210	1.120
2020/01/31 01:14:36.8	98.740	0.320	-0.230	1.040
2020/01/31 01:14:36.9	98.780	0.340	-0.250	0.970
2020/01/31 01:14:37.0	98.800	0.360	-0.260	0.890
2020/01/31 01:14:37.1	98.840	0.380	-0.280	0.820
2020/01/31 01:14:37.2	98.870	0.400	-0.300	0.750
2020/01/31 01:14:37.3	98.910	0.420	-0.320	0.690
2020/01/31 01:14:37.4	98.940	0.430	-0.330	0.630
2020/01/31 01:14:37.5	98.970	0.450	-0.350	0.570
2020/01/31 01:14:37.6	99.000	0.460	-0.360	0.510
2020/01/31 01:14:37.7	99.030	0.470	-0.370	0.460
2020/01/31 01:14:37.8	99.060	0.480	-0.380	0.420
2020/01/31 01:14:37.9	99.080	0.490	-0.390	0.370
2020/01/31 01:14:38.0	99.110	0.500	-0.400	0.340
2020/01/31 01:14:38.1	99.130	0.500	-0.400	0.310
2020/01/31 01:14:38.2	99.150	0.500	-0.400	0.280
2020/01/31 01:14:38.3	99.170	0.500	-0.390	0.260
2020/01/31 01:14:38.4	99.190	0.500	-0.390	0.250
2020/01/31 01:14:38.5	99.210	0.490	-0.380	0.240
2020/01/31 01:14:38.6	99.220	0.490	-0.360	0.230
2020/01/31 01:14:38.7	99.230	0.480	-0.350	0.230
2020/01/31 01:14:38.8	99.240	0.460	-0.330	0.240
2020/01/31 01:14:38.9	99.250	0.450	-0.310	0.250
2020/01/31 01:14:39.0	99.250	0.430	-0.280	0.260
2020/01/31 01:14:39.1	99.250	0.420	-0.260	0.280
2020/01/31 01:14:39.2	99.250	0.400	-0.230	0.300
2020/01/31 01:14:39.3	99.250	0.380	-0.200	0.330
2020/01/31 01:14:39.4	99.250	0.360	-0.170	0.360
2020/01/31 01:14:39.5	99.250	0.330	-0.140	0.390
2020/01/31 01:14:39.6	99.240	0.310	-0.110	0.420
2020/01/31 01:14:39.7	99.240	0.280	-0.070	0.450
2020/01/31 01:14:39.8	99.230	0.260	-0.040	0.490
2020/01/31 01:14:39.9	99.220	0.230	-0.000	0.530
2020/01/31 01:14:40.0	99.220	0.200	0.030	0.570
2020/01/31 01:14:40.1	99.210	0.180	0.060	0.600
2020/01/31 01:14:40.2	99.200	0.150	0.090	0.640
2020/01/31 01:14:40.3	99.190	0.120	0.130	0.680
2020/01/31 01:14:40.4	99.180	0.090	0.160	0.720
2020/01/31 01:14:40.5	99.170	0.060	0.180	0.760
2020/01/31 01:14:40.6	99.160	0.040	0.210	0.800
2020/01/31 01:14:40.7	99.150	0.010	0.240	0.840
2020/01/31 01:14:40.8	99.140	-0.020	0.260	0.880
2020/01/31 01:14:40.9	99.130	-0.040	0.290	0.920
2020/01/31 01:14:41.0	99.100	-0.070	0.300	0.950
2020/01/31 01:14:41.1	99.100	-0.090	0.320	0.990
2020/01/31 01:14:41.2	99.090	-0.120	0.340	1.020
2020/01/31 01:14:41.3	99.080	-0.140	0.350	1.060
2020/01/31 01:14:41.4	99.070	-0.170	0.370	1.090
2020/01/31 01:14:41.5	99.070	-0.190	0.380	1.120
2020/01/31 01:14:41.6	99.060	-0.210	0.380	1.150
2020/01/31 01:14:41.7	99.060	-0.230	0.390	1.180
2020/01/31 01:14:41.8	99.060	-0.250	0.390	1.200
2020/01/31 01:14:41.9	99.060	-0.260	0.390	1.230
2020/01/31 01:14:42.0	99.030	-0.280	0.390	1.250
2020/01/31 01:14:42.1	99.030	-0.290	0.380	1.270
2020/01/31 01:14:42.2	99.040	-0.300	0.370	1.290
2020/01/31 01:14:42.3	99.040	-0.320	0.360	1.310
2020/01/31 01:14:42.4	99.040	-0.320	0.350	1.330
2020/01/31 01:14:42.5	99.050	-0.330	0.330	1.340
2020/01/31 01:14:42.6	99.050	-0.340	0.310	1.360
2020/01/31 01:14:42.7	99.060	-0.340	0.280	1.380
2020/01/31 01:14:42.8	99.070	-0.340	0.260	1.390
2020/01/31 01:14:42.9	99.080	-0.340	0.220	1.400
2020/01/31 01:14:43.0	99.080	-0.340	0.190	1.420
2020/01/31 01:14:43.1	99.090	-0.330	0.150	1.430
2020/01/31 01:14:43.2	99.100	-0.320	0.110	1.440
2020/01/31 01:14:43.3	99.110	-0.310	0.060	1.460
2020/01/31 01:14:43.4	99.120	-0.300	0.010	1.470
2020/01/31 01:14:43.5	99.140	-0.290	-0.040	1.480
2020/01/31 01:14:43.6	99.150	-0.270	-0.100	1.490
2020/01/31 01:14:43.7	99.170	-0.250	-0.160	1.500
2020/01/31 01:14:43.8	99.180	-0.230	-0.220	1.520
2020/01/31 01:14:43.9	99.200	-0.210	-0.280	1.530
2020/01/31 01:14:44.0	99.220	-0.190	-0.340	1.540
2020/01/31 01:14:44.1	99.230	-0.170	-0.410	1.550
2020/01/31 01:14:44.2	99.250	-0.140	-0.470	1.560
2020/01/31 01:14:44.3	99.270	-0.120	-0.530	1.570
2020/01/31 01:14:44.4	99.290	-0.090	-0.600	1.580
2020/01/31 01:14:44.5	99.300	-0.070	-0.660	1.590
2020/01/31 01:14:44.6	99.320	-0.040	-0.720	1.600
2020/01/31 01:14:44.7	99.340	-0.010	-0.780	1.610
2020/01/31 01:14:44.8	99.360	0.020	-0.830	1.620
2020/01/31 01:14:44.9	99.380	0.040	-0.880	1.630
2020/01/31 01:14:45.0	99.400	0.070	-0.930	1.640
2020/01/31 01:14:45.1	99.410	0.090	-0.970	1.640
2020/01/31 01:14:45.2	99.430	0.120	-1.010	1.650
2020/01/31 01:14:45.3	99.440	0.140	-1.040	1.660
2020/01/31 01:14:45.4	99.460	0.160	-1.060	1.660
2020/01/31 01:14:45.5	99.470	0.180	-1.080	1.670
2020/01/31 01:14:45.6	99.490	0.200	-1.090	1.670
2020/01/31 01:14:45.7	99.500	0.220	-1.100	1.680
2020/01/31 01:14:45.8	99.510	0.230	-1.100	1.680
2020/01/31 01:14:45.9	99.520	0.250	-1.090	1.680
2020/01/31 01:14:46.0	99.540	0.260	-1.060	1.690
2020/01/31 01:14:46.1	99.550	0.260	-1.040	1.690
2020/01/31 01:14:46.2	99.560	0.270	-1.010	1.690
2020/01/31 01:14:46.3	99.560	0.270	-0.960	1.700
2020/01/31 01:14:46.4	99.570	0.270	-0.920	1.700
2020/01/31 01:14:46.5	99.570	0.260	-0.860	1.700
2020/01/31 01:14:46.6	99.570	0.260	-0.800	1.710
2020/01/31 01:14:46.7	99.570	0.250	-0.730	1.710
2020/01/31 01:14:46.8	99.570	0.230	-0.660	1.710
2020/01/31 01:14:46.9	99.560	0.220	-0.580	1.710
2020/01/31 01:14:47.0	99.570	0.200	-0.490	1.720
2020/01/31 01:14:47.1	99.560	0.180	-0.410	1.720
2020/01/31 01:14:47.2	99.550	0.150	-0.310	1.720
2020/01/31 01:14:47.3	99.540	0.130	-0.220	1.720
2020/01/31 01:14:47.4	99.530	0.100	-0.120	1.720
2020/01/31 01:14:47.5	99.520	0.070	-0.020	1.720
2020/01/31 01:14:47.6	99.510	0.040	0.080	1.720
2020/01/31 01:14:47.7	99.490	0.000	0.170	1.720
2020/01/31 01:14:47.8	99.480	-0.030	0.270	1.720
2020/01/31 01:14:47.9	99.460	-0.070	0.370	1.720
2020/01/31 01:14:48.0	99.440	-0.100	0.470	1.710
2020/01/31 01:14:48.1	99.420	-0.140	0.550	1.710
2020/01/31 01:14:48.2	99.400	-0.180	0.640	1.700
2020/01/31 01:14:48.3	99.380	-0.210	0.720	1.700
2020/01/31 01:14:48.4	99.360	-0.250	0.790	1.690
2020/01/31 01:14:48.5	99.340	-0.280	0.860	1.680
2020/01/31 01:14:48.6	99.310	-0.320	0.910	1.670
2020/01/31 01:14:48.7	99.290	-0.350	0.960	1.660
2020/01/31 01:14:48.8	99.270	-0.380	1.000	1.650
2020/01/31 01:14:48.9	99.240	-0.410	1.040	1.640
2020/01/31 01:14:49.0	99.220	-0.430	1.060	1.620
2020/01/31 01:14:49.1	99.190	-0.450	1.070	1.610
2020/01/31 01:14:49.2	99.170	-0.470	1.070	1.590
2020/01/31 01:14:49.3	99.150	-0.490	1.060	1.570
2020/01/31 01:14:49.4	99.130	-0.500	1.040	1.540
2020/01/31 01:14:49.5	99.110	-0.510	1.010	1.520
2020/01/31 01:14:49.6	99.090	-0.510	0.970	1.490
2020/01/31 01:14:49.7	99.070	-0.510	0.920	1.450
2020/01/31 01:14:49.8	99.050	-0.510	0.860	1.420
2020/01/31 01:14:49.9	99.040	-0.500	0.790	1.380
2020/01/31 01:14:50.0	99.020	-0.490	0.720	1.340
2020/01/31 01:14:50.1	99.010	-0.480	0.630	1.290
2020/01/31 01:14:50.2	99.010	-0.460	0.540	1.250
2020/01/31 01:14:50.3	99.000	-0.440	0.440	1.200
2020/01/31 01:14:50.4	99.000	-0.410	0.340	1.140
2020/01/31 01:14:50.5	99.000	-0.380	0.240	1.090
2020/01/31 01:14:50.6	99.000	-0.350	0.130	1.030
2020/01/31 01:14:50.7	99.010	-0.310	0.010	0.980
2020/01/31 01:14:50.8	99.010	-0.280	-0.100	0.920
2020/01/31 01:14:50.9	99.020	-0.240	-0.210	0.860
2020/01/31 01:14:51.0	99.030	-0.200	-0.330	0.800
2020/01/31 01:14:51.1	99.040	-0.160	-0.440	0.740
2020/01/31 01:14:51.2	99.050	-0.110	-0.540	0.690
2020/01/31 01:14:51.3	99.060	-0.070	-0.650	0.630
2020/01/31 01:14:51.4	99.070	-0.030	-0.740	0.580
2020/01/31 01:14:51.5	99.080	0.020	-0.840	0.530
2020/01/31 01:14:51.6	99.090	0.060	-0.920	0.480
2020/01/31 01:14:51.7	99.110	0.100	-1.000	0.430
2020/01/31 01:14:51.8	99.120	0.140	-1.070	0.380
2020/01/31 01:14:51.9	99.130	0.180	-1.130	0.330
2020/01/31 01:14:52.0	99.150	0.210	-1.180	0.300
2020/01/31 01:14:52.1	99.160	0.250	-1.220	0.260
2020/01/31 01:14:52.2	99.170	0.280	-1.250	0.220
2020/01/31 01:14:52.3	99.180	0.310	-1.270	0.180
2020/01/31 01:14:52.4	99.190	0.330	-1.280	0.150
2020/01/31 01:14:52.5	99.200	0.360	-1.280	0.120
2020/01/31 01:14:52.6	99.200	0.380	-1.280	0.090
2020/01/31 01:14:52.7	99.210	0.390	-1.260	0.070
2020/01/31 01:14:52.8	99.220	0.400	-1.230	0.040
2020/01/31 01:14:52.9	99.220	0.420	-1.200	0.020
2020/01/31 01:14:53.0	99.240	0.420	-1.160	-0.000
2020/01/31 01:14:53.1	99.250	0.430	-1.110	-0.020
2020/01/31 01:14:53.2	99.250	0.430	-1.050	-0.030
2020/01/31 01:14:53.3	99.250	0.430	-0.990	-0.040
2020/01/31 01:14:53.4	99.260	0.420	-0.920	-0.040
2020/01/31 01:14:53.5	99.260	0.410	-0.850	-0.040
2020/01/31 01:14:53.6	99.260	0.400	-0.770	-0.040
2020/01/31 01:14:53.7	99.250	0.390	-0.690	-0.040
2020/01/31 01:14:53.8	99.250	0.380	-0.610	-0.030
2020/01/31 01:14:53.9	99.250	0.360	-0.520	-0.020
2020/01/31 01:14:54.0	99.240	0.350	-0.440	-0.010
2020/01/31 01:14:54.1	99.240	0.330	-0.350	0.010
2020/01/31 01:14:54.2	99.230	0.310	-0.260	0.030
2020/01/31 01:14:54.3	99.220	0.290	-0.180	0.050
2020/01/31 01:14:54.4	99.210	0.270	-0.100	0.080
2020/01/31 01:14:54.5	99.200	0.240	-0.020	0.110
2020/01/31 01:14:54.6	99.190	0.220	0.060	0.140
2020/01/31 01:14:54.7	99.180	0.200	0.140	0.180
2020/01/31 01:14:54.8	99.160	0.170	0.210	0.220
2020/01/31 01:14:54.9	99.150	0.150	0.280	0.260
2020/01/31 01:14:55.0	99.120	0.130	0.340	0.310
2020/01/31 01:14:55.1	99.100	0.100	0.390	0.360
2020/01/31 01:14:55.2	99.090	0.080	0.450	0.410
2020/01/31 01:14:55.3	99.070	0.060	0.490	0.470
2020/01/31 01:14:55.4	99.050	0.040	0.540	0.520
2020/01/31 01:14:55.5	99.030	0.020	0.570	0.580
2020/01/31 01:14:55.6	99.000	-0.000	0.600	0.640
2020/01/31 01:14:55.7	98.980	-0.020	0.630	0.710
2020/01/31 01:14:55.8	98.960	-0.040	0.640	0.770
2020/01/31 01:14:55.9	98.940	-0.050	0.650	0.840
2020/01/31 01:14:56.0	98.920	-0.070	0.660	0.910
2020/01/31 01:14:56.1	98.900	-0.080	0.660	0.970
2020/01/31 01:14:56.2	98.880	-0.090	0.650	1.040
2020/01/31 01:14:56.3	98.860	-0.100	0.640	1.100
2020/01/31 01:14:56.4	98.830	-0.110	0.630	1.170
2020/01/31 01:14:56.5	98.810	-0.120	0.600	1.230
2020/01/31 01:14:56.6	98.800	-0.130	0.580	1.300
2020/01/31 01:14:56.7	98.780	-0.130	0.540	1.360
2020/01/31 01:14:56.8	98.760	-0.130	0.510	1.420
2020/01/31 01:14:56.9	98.750	-0.130	0.460	1.480
2020/01/31 01:14:57.0	98.730	-0.140	0.420	1.530
2020/01/31 01:14:57.1	98.720	-0.130	0.370	1.590
2020/01/31 01:14:57.2	98.710	-0.130	0.320	1.640
2020/01/31 01:14:57.3	98.700	-0.130	0.260	1.690
2020/01/31 01:14:57.4	98.690	-0.120	0.200	1.730
2020/01/31 01:14:57.5	98.680	-0.120	0.140	1.780
2020/01/31 01:14:57.6	98.670	-0.110	0.080	1.820
2020/01/31 01:14:57.7	98.670	-0.110	0.020	1.860
2020/01/31 01:14:57.8	98.660	-0.100	-0.050	1.890
2020/01/31 01:14:57.9	98.660	-0.090	-0.110	1.930
2020/01/31 01:14:58.0	98.650	-0.080	-0.180	1.950
2020/01/31 01:14:58.1	98.640	-0.070	-0.240	1.980
2020/01/31 01:14:58.2	98.640	-0.060	-0.310	2.010
2020/01/31 01:14:58.3	98.640	-0.050	-0.370	2.030
2020/01/31 01:14:58.4	98.640	-0.040	-0.430	2.050
2020/01/31 01:14:58.5	98.640	-0.030	-0.490	2.070
2020/01/31 01:14:58.6	98.640	-0.010	-0.540	2.090
2020/01/31 01:14:58.7	98.640	-0.000	-0.590	2.100
2020/01/31 01:14:58.8	98.640	0.010	-0.640	2.110
2020/01/31 01:14:58.9	98.640	0.020	-0.690	2.120
2020/01/31 01:14:59.0	98.640	0.030	-0.730	2.130
2020/01/31 01:14:59.1	98.640	0.040	-0.760	2.130
2020/01/31 01:14:59.2	98.640	0.050	-0.800	2.140
2020/01/31 01:14:59.3	98.640	0.060	-0.820	2.140
2020/01/31 01:14:59.4	98.650	0.070	-0.840	2.130
2020/01/31 01:14:59.5	98.650	0.080	-0.860	2.130
2020/01/31 01:14:59.6	98.650	0.090	-0.870	2.120
2020/01/31 01:14:59.7	98.660	0.100	-0.880	2.120
2020/01/31 01:14:59.8	98.660	0.110	-0.880	2.110
2020/01/31 01:14:59.9	98.670	0.110	-0.880	2.090
2020/01/31 01:15:00.0	98.670	0.120	-0.860	2.080
2020/01/31 01:15:00.1	98.670	0.130	-0.850	2.070
2020/01/31 01:15:00.2	98.680	0.130	-0.830	2.050
2020/01/31 01:15:00.3	98.680	0.130	-0.810	2.040
2020/01/31 01:15:00.4	98.690	0.140	-0.780	2.020
2020/01/31 01:15:00.5	98.700	0.140	-0.740	2.000
2020/01/31 01:15:00.6	98.700	0.140	-0.710	1.980
2020/01/31 01:15:00.7	98.710	0.140	-0.670	1.970
2020/01/31 01:15:00.8	98.710	0.140	-0.620	1.950
2020/01/31 01:15:00.9	98.720	0.140	-0.570	1.930
2020/01/31 01:15:01.0	98.730	0.140	-0.520	1.900
2020/01/31 01:15:01.1	98.730	0.130	-0.470	1.880
2020/01/31 01:15:01.2	98.740	0.130	-0.410	1.860
2020/01/31 01:15:01.3	98.740	0.130	-0.360	1.840
2020/01/31 01:15:01.4	98.740	0.130	-0.300	1.820
2020/01/31 01:15:01.5	98.750	0.120	-0.240	1.800
2020/01/31 01:15:01.6	98.750	0.120	-0.180	1.780
2020/01/31 01:15:01.7	98.750	0.110	-0.120	1.750
2020/01/31 01:15:01.8	98.750	0.110	-0.060	1.730
2020/01/31 01:15:01.9	98.750	0.100	-0.000	1.710
2020/01/31 01:15:02.0	98.770	0.100	0.060	1.690
2020/01/31 01:15:02.1	98.770	0.090	0.110	1.660
2020/01/31 01:15:02.2	98.770	0.090	0.160	1.640
2020/01/31 01:15:02.3	98.770	0.080	0.210	1.610
2020/01/31 01:15:02.4	98.760	0.080	0.260	1.580
2020/01/31 01:15:02.5	98.760	0.070	0.310	1.550
2020/01/31 01:15:02.6	98.760	0.060	0.350	1.520
2020/01/31 01:15:02.7	98.750	0.060	0.390	1.500
2020/01/31 01:15:02.8	98.750	0.050	0.420	1.460
2020/01/31 01:15:02.9	98.740	0.050	0.450	1.430
2020/01/31 01:15:03.0	98.740	0.040	0.480	1.400
2020/01/31 01:15:03.1	98.730	0.040	0.500	1.360
2020/01/31 01:15:03.2	98.720	0.030	0.520	1.330
2020/01/31 01:15:03.3	98.710	0.020	0.530	1.290
2020/01/31 01:15:03.4	98.700	0.020	0.540	1.250
2020/01/31 01:15:03.5	98.690	0.010	0.540	1.210
2020/01/31 01:15:03.6	98.680	0.010	0.540	1.170
2020/01/31 01:15:03.7	98.670	0.000	0.540	1.120
2020/01/31 01:15:03.8	98.650	-0.000	0.530	1.080
2020/01/31 01:15:03.9	98.640	-0.010	0.520	1.040
2020/01/31 01:15:04.0	98.630	-0.010	0.500	0.990
2020/01/31 01:15:04.1	98.610	-0.020	0.480	0.940
2020/01/31 01:15:04.2	98.590	-0.020	0.450	0.890
2020/01/31 01:15:04.3	98.580	-0.020	0.430	0.850
2020/01/31 01:15:04.4	98.560	-0.030	0.400	0.800
2020/01/31 01:15:04.5	98.540	-0.030	0.360	0.750
2020/01/31 01:15:04.6	98.520	-0.030	0.320	0.700
2020/01/31 01:15:04.7	98.500	-0.030	0.290	0.640
2020/01/31 01:15:04.8	98.490	-0.040	0.240	0.590
2020/01/31 01:15:04.9	98.470	-0.040	0.200	0.540
2020/01/31 01:15:05.0	98.460	-0.040	0.160	0.490
2020/01/31 01:15:05.1	98.450	-0.040	0.110	0.430
2020/01/31 01:15:05.2	98.440	-0.040	0.060	0.380
2020/01/31 01:15:05.3	98.420	-0.040	0.010	0.330
2020/01/31 01:15:05.4	98.410	-0.040	-0.040	0.270
2020/01/31 01:15:05.5	98.410	-0.040	-0.100	0.220
2020/01/31 01:15:05.6	98.400	-0.030	-0.150	0.170
2020/01/31 01:15:05.7	98.400	-0.030	-0.200	0.120
2020/01/31 01:15:05.8	98.400	-0.030	-0.260	0.070
2020/01/31 01:15:05.9	98.400	-0.030	-0.310	0.020
2020/01/31 01:15:06.0	98.400	-0.020	-0.370	-0.030
2020/01/31 01:15:06.1	98.410	-0.020	-0.420	-0.070
2020/01/31 01:15:06.2	98.420	-0.010	-0.470	-0.110
2020/01/31 01:15:06.3	98.430	-0.010	-0.520	-0.150
2020/01/31 01:15:06.4	98.440	-0.000	-0.570	-0.190
2020/01/31 01:15:06.5	98.460	0.000	-0.620	-0.230
2020/01/31 01:15:06.6	98.480	0.010	-0.660	-0.260
2020/01/31 01:15:06.7	98.500	0.010	-0.700	-0.290
2020/01/31 01:15:06.8	98.520	0.020	-0.740	-0.310
2020/01/31 01:15:06.9	98.540	0.020	-0.780	-0.330
2020/01/31 01:15:07.0	98.570	0.020	-0.810	-0.350
2020/01/31 01:15:07.1	98.590	0.030	-0.830	-0.360
2020/01/31 01:15:07.2	98.620	0.030	-0.860	-0.370
2020/01/31 01:15:07.3	98.650	0.030	-0.880	-0.370
2020/01/31 01:15:07.4	98.680	0.030	-0.890	-0.370
2020/01/31 01:15:07.5	98.710	0.030	-0.900	-0.370
2020/01/31 01:15:07.6	98.740	0.030	-0.910	-0.360
2020/01/31 01:15:07.7	98.770	0.030	-0.910	-0.340
2020/01/31 01:15:07.8	98.800	0.020	-0.900	-0.320
2020/01/31 01:15:07.9	98.830	0.020	-0.890	-0.300
2020/01/31 01:15:08.0	98.860	0.010	-0.870	-0.270
2020/01/31 01:15:08.1	98.890	0.000	-0.850	-0.240
2020/01/31 01:15:08.2	98.910	-0.010	-0.830	-0.200
2020/01/31 01:15:08.3	98.940	-0.020	-0.800	-0.160
2020/01/31 01:15:08.4	98.960	-0.030	-0.760	-0.110
2020/01/31 01:15:08.5	98.980	-0.050	-0.720	-0.060
2020/01/31 01:15:08.6	99.010	-0.060	-0.680	-0.010
2020/01/31 01:15:08.7	99.030	-0.080	-0.630	0.050
2020/01/31 01:15:08.8	99.050	-0.090	-0.580	0.100
2020/01/31 01:15:08.9	99.060	-0.110	-0.520	0.160
2020/01/31 01:15:09.0	99.080	-0.130	-0.470	0.230
2020/01/31 01:15:09.1	99.090	-0.150	-0.410	0.290
2020/01/31 01:15:09.2	99.110	-0.170	-0.340	0.360
2020/01/31 01:15:09.3	99.120	-0.190	-0.280	0.430
2020/01/31 01:15:09.4	99.130	-0.200	-0.220	0.490
2020/01/31 01:15:09.5	99.140	-0.220	-0.150	0.560
2020/01/31 01:15:09.6	99.150	-0.240	-0.090	0.630
2020/01/31 01:15:09.7	99.160	-0.260	-0.020	0.700
2020/01/31 01:15:09.8	99.170	-0.280	0.040	0.770
2020/01/31 01:15:09.9	99.180	-0.290	0.110	0.840
2020/01/31 01:15:10.0	99.170	-0.310	0.170	0.920
2020/01/31 01:15:10.1	99.170	-0.320	0.230	0.990
2020/01/31 01:15:10.2	99.180	-0.330	0.280	1.060
2020/01/31 01:15:10.3	99.180	-0.340	0.330	1.130
2020/01/31 01:15:10.4	99.180	-0.350	0.380	1.200
2020/01/31 01:15:10.5	99.180	-0.360	0.430	1.280
2020/01/31 01:15:10.6	99.170	-0.360	0.470	1.350
2020/01/31 01:15:10.7	99.170	-0.360	0.510	1.420
2020/01/31 01:15:10.8	99.160	-0.370	0.540	1.490
2020/01/31 01:15:10.9	99.150	-0.360	0.570	1.560
2020/01/31 01:15:11.0	99.160	-0.360	0.590	1.630
2020/01/31 01:15:11.1	99.150	-0.360	0.610	1.700
2020/01/31 01:15:11.2	99.140	-0.350	0.620	1.770
2020/01/31 01:15:11.3	99.130	-0.340	0.630	1.840
2020/01/31 01:15:11.4	99.120	-0.330	0.630	1.900
2020/01/31 01:15:11.5	99.100	-0.310	0.630	1.970
2020/01/31 01:15:11.6	99.090	-0.300	0.620	2.030
2020/01/31 01:15:11.7	99.080	-0.280	0.610	2.090
2020/01/31 01:15:11.8	99.070	-0.260	0.600	2.140
2020/01/31 01:15:11.9	99.060	-0.240	0.580	2.200
2020/01/31 01:15:12.0	99.050	-0.220	0.550	2.250
2020/01/31 01:15:12.1	99.040	-0.200	0.520	2.300
2020/01/31 01:15:12.2	99.030	-0.180	0.490	2.340
2020/01/31 01:15:12.3	99.020	-0.150	0.450	2.380
2020/01/31 01:15:12.4	99.010	-0.130	0.410	2.420
2020/01/31 01:15:12.5	99.000	-0.100	0.370	2.460
2020/01/31 01:15:12.6	98.990	-0.080	0.320	2.500
2020/01/31 01:15:12.7	98.980	-0.050	0.270	2.530
2020/01/31 01:15:12.8	98.980	-0.030	0.220	2.550
2020/01/31 01:15:12.9	98.970	-0.000	0.170	2.580
2020/01/31 01:15:13.0	98.940	0.020	0.120	2.600
2020/01/31 01:15:13.1	98.930	0.050	0.060	2.620
2020/01/31 01:15:13.2	98.930	0.070	0.010	2.640
2020/01/31 01:15:13.3	98.920	0.090	-0.050	2.650
2020/01/31 01:15:13.4	98.910	0.120	-0.100	2.650
2020/01/31 01:15:13.5	98.900	0.140	-0.150	2.660
2020/01/31 01:15:13.6	98.890	0.160	-0.210	2.660
2020/01/31 01:15:13.7	98.880	0.180	-0.260	2.650
2020/01/31 01:15:13.8	98.880	0.200	-0.310	2.650
2020/01/31 01:15:13.9	98.870	0.210	-0.360	2.630
2020/01/31 01:15:14.0	98.850	0.230	-0.410	2.610
2020/01/31 01:15:14.1	98.840	0.250	-0.450	2.580
2020/01/31 01:15:14.2	98.840	0.260	-0.500	2.560
2020/01/31 01:15:14.3	98.830	0.270	-0.540	2.520
2020/01/31 01:15:14.4	98.820	0.290	-0.580	2.490
2020/01/31 01:15:14.5	98.820	0.300	-0.620	2.440
2020/01/31 01:15:14.6	98.810	0.310	-0.650	2.400
2020/01/31 01:15:14.7	98.810	0.320	-0.680	2.350
2020/01/31 01:15:14.8	98.800	0.330	-0.710	2.290
2020/01/31 01:15:14.9	98.800	0.330	-0.730	2.230
2020/01/31 01:15:15.0	98.800	0.340	-0.750	2.170
2020/01/31 01:15:15.1	98.800	0.350	-0.770	2.100
2020/01/31 01:15:15.2	98.800	0.350	-0.790	2.030
2020/01/31 01:15:15.3	98.800	0.360	-0.800	1.960
2020/01/31 01:15:15.4	98.800	0.370	-0.810	1.890
2020/01/31 01:15:15.5	98.800	0.370	-0.810	1.820
2020/01/31 01:15:15.6	98.800	0.380	-0.810	1.740
2020/01/31 01:15:15.7	98.810	0.380	-0.810	1.670
2020/01/31 01:15:15.8	98.810	0.380	-0.810	1.590
2020/01/31 01:15:15.9	98.820	0.390	-0.800	1.520
2020/01/31 01:15:16.0	98.830	0.390	-0.780	1.440
2020/01/31 01:15:16.1	98.840	0.390	-0.770	1.360
2020/01/31 01:15:16.2	98.850	0.400	-0.750	1.290
2020/01/31 01:15:16.3	98.860	0.400	-0.730	1.220
2020/01/31 01:15:16.4	98.880	0.400	-0.710	1.150
2020/01/31 01:15:16.5	98.890	0.400	-0.680	1.080
2020/01/31 01:15:16.6	98.910	0.400	-0.650	1.010
2020/01/31 01:15:16.7	98.930	0.400	-0.620	0.940
2020/01/31 01:15:16.8	98.950	0.400	-0.590	0.880
2020/01/31 01:15:16.9	98.970	0.400	-0.560	0.820
2020/01/31 01:15:17.0	98.990	0.400	-0.520	0.750
2020/01/31 01:15:17.1	99.010	0.400	-0.480	0.700
2020/01/31 01:15:17.2	99.030	0.400	-0.440	0.650
2020/01/31 01:15:17.3	99.050	0.400	-0.410	0.600
2020/01/31 01:15:17.4	99.070	0.390	-0.370	0.560
2020/01/31 01:15:17.5	99.090	0.390	-0.330	0.510
2020/01/31 01:15:17.6	99.110	0.380	-0.290	0.480
2020/01/31 01:15:17.7	99.130	0.370	-0.250	0.440
2020/01/31 01:15:17.8	99.140	0.370	-0.210	0.420
2020/01/31 01:15:17.9	99.160	0.360	-0.170	0.390
2020/01/31 01:15:18.0	99.180	0.350	-0.130	0.370
2020/01/31 01:15:18.1	99.200	0.340	-0.090	0.350
2020/01/31 01:15:18.2	99.210	0.330	-0.060	0.340
2020/01/31 01:15:18.3	99.220	0.310	-0.020	0.330
2020/01/31 01:15:18.4	99.220	0.300	0.010	0.320
2020/01/31 01:15:18.5	99.230	0.280	0.050	0.310
2020/01/31 01:15:18.6	99.230	0.270	0.080	0.310
2020/01/31 01:15:18.7	99.240	0.250	0.110	0.310
2020/01/31 01:15:18.8	99.230	0.230	0.140	0.320
2020/01/31 01:15:18.9	99.230	0.210	0.160	0.320
2020/01/31 01:15:19.0	99.230	0.190	0.190	0.330
2020/01/31 01:15:19.1	99.220	0.170	0.210	0.340
2020/01/31 01:15:19.2	99.220	0.150	0.230	0.350
2020/01/31 01:15:19.3	99.210	0.120	0.250	0.370
2020/01/31 01:15:19.4	99.200	0.100	0.260	0.380
2020/01/31 01:15:19.5	99.190	0.070	0.280	0.400
2020/01/31 01:15:19.6	99.180	0.050	0.290	0.420
2020/01/31 01:15:19.7	99.160	0.020	0.300	0.430
2020/01/31 01:15:19.8	99.150	-0.010	0.310	0.450
2020/01/31 01:15:19.9	99.140	-0.030	0.320	0.480
2020/01/31 01:15:20.0	99.110	-0.060	0.320	0.500
2020/01/31 01:15:20.1	99.090	-0.090	0.320	0.520
2020/01/31 01:15:20.2	99.080	-0.120	0.320	0.540
2020/01/31 01:15:20.3	99.060	-0.150	0.320	0.570
2020/01/31 01:15:20.4	99.040	-0.170	0.320	0.600
2020/01/31 01:15:20.5	99.030	-0.200	0.310	0.630
2020/01/31 01:15:20.6	99.010	-0.230	0.310	0.660
2020/01/31 01:15:20.7	98.990	-0.260	0.300	0.690
2020/01/31 01:15:20.8	98.980	-0.280	0.290	0.720
2020/01/31 01:15:20.9	98.960	-0.310	0.290	0.760
2020/01/31 01:15:21.0	98.970	-0.330	0.280	0.800
2020/01/31 01:15:21.1	98.950	-0.360	0.270	0.840
2020/01/31 01:15:21.2	98.940	-0.380	0.260	0.880
2020/01/31 01:15:21.3	98.920	-0.400	0.250	0.920
2020/01/31 01:15:21.4	98.910	-0.420	0.240	0.960
2020/01/31 01:15:21.5	98.890	-0.440	0.220	1.000
2020/01/31 01:15:21.6	98.880	-0.460	0.210	1.040
2020/01/31 01:15:21.7	98.860	-0.480	0.200	1.080
2020/01/31 01:15:21.8	98.850	-0.490	0.190	1.120
2020/01/31 01:15:21.9	98.840	-0.500	0.170	1.170
2020/01/31 01:15:22.0	98.830	-0.510	0.160	1.210
2020/01/31 01:15:22.1	98.820	-0.520	0.140	1.250
2020/01/31 01:15:22.2	98.810	-0.530	0.130	1.290
2020/01/31 01:15:22.3	98.810	-0.530	0.110	1.320
2020/01/31 01:15:22.4	98.800	-0.530	0.090	1.360
2020/01/31 01:15:22.5	98.800	-0.530	0.070	1.390
2020/01/31 01:15:22.6	98.800	-0.530	0.050	1.420
2020/01/31 01:15:22.7	98.800	-0.530	0.020	1.460
2020/01/31 01:15:22.8	98.800	-0.520	-0.000	1.480
2020/01/31 01:15:22.9	98.800	-0.510	-0.030	1.510
2020/01/31 01:15:23.0	98.810	-0.500	-0.060	1.530
2020/01/31 01:15:23.1	98.810	-0.480	-0.090	1.560
2020/01/31 01:15:23.2	98.810	-0.470	-0.120	1.580
2020/01/31 01:15:23.3	98.820	-0.450	-0.150	1.600
2020/01/31 01:15:23.4	98.820	-0.430	-0.190	1.620
2020/01/31 01:15:23.5	98.830	-0.410	-0.230	1.630
2020/01/31 01:15:23.6	98.830	-0.390	-0.260	1.650
2020/01/31 01:15:23.7	98.840	-0.360	-0.300	1.660
2020/01/31 01:15:23.8	98.850	-0.340	-0.340	1.680
2020/01/31 01:15:23.9	98.850	-0.310	-0.370	1.690
2020/01/31 01:15:24.0	98.860	-0.280	-0.410	1.700
2020/01/31 01:15:24.1	98.870	-0.260	-0.440	1.710
2020/01/31 01:15:24.2	98.870	-0.230	-0.480	1.730
2020/01/31 01:15:24.3	98.880	-0.210	-0.510	1.740
2020/01/31 01:15:24.4	98.880	-0.180	-0.550	1.750
2020/01/31 01:15:24.5	98.890	-0.150	-0.580	1.760
2020/01/31 01:15:24.6	98.890	-0.130	-0.600	1.760
2020/01/31 01:15:24.7	98.890	-0.100	-0.630	1.770
2020/01/31 01:15:24.8	98.890	-0.080	-0.650	1.780
2020/01/31 01:15:24.9	98.900	-0.060	-0.670	1.790
2020/01/31 01:15:25.0	98.900	-0.040	-0.690	1.790
2020/01/31 01:15:25.1	98.900	-0.020	-0.710	1.800
2020/01/31 01:15:25.2	98.900	0.000	-0.720	1.810
2020/01/31 01:15:25.3	98.900	0.020	-0.730	1.820
2020/01/31 01:15:25.4	98.900	0.030	-0.740	1.820
2020/01/31 01:15:25.5	98.900	0.050	-0.740	1.830
2020/01/31 01:15:25.6	98.890	0.060	-0.750	1.830
2020/01/31 01:15:25.7	98.890	0.070	-0.740	1.840
2020/01/31 01:15:25.8	98.890	0.080	-0.740	1.840
2020/01/31 01:15:25.9	98.890	0.090	-0.730	1.840
2020/01/31 01:15:26.0	98.890	0.100	-0.720	1.850
2020/01/31 01:15:26.1	98.890	0.100	-0.710	1.850
2020/01/31 01:15:26.2	98.890	0.110	-0.690	1.850
2020/01/31 01:15:26.3	98.890	0.110	-0.680	1.850
2020/01/31 01:15:26.4	98.890	0.110	-0.660	1.850
2020/01/31 01:15:26.5	98.890	0.110	-0.640	1.850
2020/01/31 01:15:26.6	98.900	0.110	-0.610	1.840
2020/01/31 01:15:26.7	98.900	0.110	-0.590	1.840
2020/01/31 01:15:26.8	98.900	0.110	-0.560	1.840
2020/01/31 01:15:26.9	98.900	0.110	-0.520	1.830
2020/01/31 01:15:27.0	98.900	0.100	-0.490	1.820
2020/01/31 01:15:27.1	98.900	0.100	-0.450	1.820
2020/01/31 01:15:27.2	98.900	0.090	-0.410	1.810
2020/01/31 01:15:27.3	98.900	0.090	-0.370	1.800
2020/01/31 01:15:27.4	98.890	0.080	-0.330	1.790
2020/01/31 01:15:27.5	98.890	0.080	-0.290	1.780
2020/01/31 01:15:27.6	98.890	0.070	-0.240	1.770
2020/01/31 01:15:27.7	98.890	0.060	-0.190	1.760
2020/01/31 01:15:27.8	98.880	0.050	-0.140	1.750
2020/01/31 01:15:27.9	98.880	0.050	-0.090	1.740
2020/01/31 01:15:28.0	98.880	0.040	-0.040	1.720
2020/01/31 01:15:28.1	98.870	0.030	0.010	1.710
2020/01/31 01:15:28.2	98.860	0.020	0.060	1.690
2020/01/31 01:15:28.3	98.850	0.020	0.110	1.670
2020/01/31 01:15:28.4	98.850	0.010	0.170	1.660
2020/01/31 01:15:28.5	98.840	0.000	0.220	1.640
2020/01/31 01:15:28.6	98.830	-0.000	0.260	1.620
2020/01/31 01:15:28.7	98.820	-0.010	0.310	1.590
2020/01/31 01:15:28.8	98.800	-0.020	0.360	1.570
2020/01/31 01:15:28.9	98.790	-0.020	0.400	1.540
2020/01/31 01:15:29.0	98.790	-0.030	0.440	1.520
2020/01/31 01:15:29.1	98.780	-0.030	0.480	1.490
2020/01/31 01:15:29.2	98.760	-0.040	0.510	1.460
2020/01/31 01:15:29.3	98.750	-0.040	0.540	1.420
2020/01/31 01:15:29.4	98.740	-0.040	0.570	1.390
2020/01/31 01:15:29.5	98.730	-0.050	0.590	1.350
2020/01/31 01:15:29.6	98.710	-0.050	0.610	1.310
2020/01/31 01:15:29.7	98.700	-0.050	0.630	1.270
2020/01/31 01:15:29.8	98.690	-0.050	0.630	1.230
2020/01/31 01:15:29.9	98.680	-0.040	0.640	1.180
2020/01/31 01:15:30.0	98.650	-0.040	0.640	1.130
2020/01/31 01:15:30.1	98.640	-0.030	0.640	1.080
2020/01/31 01:15:30.2	98.630	-0.030	0.620	1.030
2020/01/31 01:15:30.3	98.630	-0.020	0.610	0.980
2020/01/31 01:15:30.4	98.620	-0.010	0.590	0.920
2020/01/31 01:15:30.5	98.620	0.000	0.560	0.870
2020/01/31 01:15:30.6	98.620	0.020	0.530	0.810
2020/01/31 01:15:30.7	98.620	0.030	0.500	0.750
2020/01/31 01:15:30.8	98.620	0.050	0.450	0.690
2020/01/31 01:15:30.9	98.620	0.060	0.410	0.630
2020/01/31 01:15:31.0	98.630	0.080	0.360	0.560
2020/01/31 01:15:31.1	98.630	0.100	0.300	0.490
2020/01/31 01:15:31.2	98.640	0.120	0.250	0.430
2020/01/31 01:15:31.3	98.650	0.140	0.180	0.370
2020/01/31 01:15:31.4	98.650	0.170	0.120	0.300
2020/01/31 01:15:31.5	98.660	0.190	0.050	0.240
2020/01/31 01:15:31.6	98.670	0.220	-0.020	0.180
2020/01/31 01:15:31.7	98.680	0.240	-0.090	0.110
2020/01/31 01:15:31.8	98.690	0.260	-0.160	0.050
2020/01/31 01:15:31.9	98.700	0.290	-0.240	-0.000
2020/01/31 01:15:32.0	98.700	0.310	-0.310	-0.060
2020/01/31 01:15:32.1	98.710	0.340	-0.380	-0.110
2020/01/31 01:15:32.2	98.710	0.360	-0.460	-0.160
2020/01/31 01:15:32.3	98.720	0.380	-0.530	-0.210
2020/01/31 01:15:32.4	98.730	0.400	-0.600	-0.250
2020/01/31 01:15:32.5	98.740	0.420	-0.660	-0.300
2020/01/31 01:15:32.6	98.750	0.440	-0.720	-0.330
2020/01/31 01:15:32.7	98.760	0.460	-0.780	-0.370
2020/01/31 01:15:32.8	98.760	0.470	-0.840	-0.400
2020/01/31 01:15:32.9	98.770	0.480	-0.890	-0.430
2020/01/31 01:15:33.0	98.780	0.490	-0.930	-0.450
2020/01/31 01:15:33.1	98.790	0.500	-0.970	-0.470
2020/01/31 01:15:33.2	98.800	0.510	-1.010	-0.480
2020/01/31 01:15:33.3	98.810	0.510	-1.040	-0.490
2020/01/31 01:15:33.4	98.820	0.510	-1.060	-0.490
2020/01/31 01:15:33.5	98.830	0.510	-1.080	-0.490
2020/01/31 01:15:33.6	98.840	0.500	-1.090	-0.480
2020/01/31 01:15:33.7	98.850	0.500	-1.090	-0.470
2020/01/31 01:15:33.8	98.860	0.490	-1.090	-0.450
2020/01/31 01:15:33.9	98.870	0.470	-1.080	-0.430
2020/01/31 01:15:34.0	98.890	0.460	-1.070	-0.400
2020/01/31 01:15:34.1	98.900	0.440	-1.050	-0.370
2020/01/31 01:15:34.2	98.910	0.420	-1.020	-0.330
2020/01/31 01:15:34.3	98.910	0.390	-0.990	-0.290
2020/01/31 01:15:34.4	98.920	0.370	-0.950	-0.240
2020/01/31 01:15:34.5	98.920	0.340	-0.910	-0.190
2020/01/31 01:15:34.6	98.930	0.310	-0.870	-0.130
2020/01/31 01:15:34.7	98.930	0.280	-0.820	-0.060
2020/01/31 01:15:34.8	98.930	0.240	-0.760	0.010
2020/01/31 01:15:34.9	98.930	0.210	-0.700	0.080
2020/01/31 01:15:35.0	98.960	0.170	-0.640	0.170
2020/01/31 01:15:35.1	98.960	0.130	-0.580	0.250
2020/01/31 01:15:35.2	98.950	0.090	-0.510	0.340
2020/01/31 01:15:35.3	98.950	0.050	-0.450	0.430
2020/01/31 01:15:35.4	98.940	0.000	-0.380	0.520
2020/01/31 01:15:35.5	98.940	-0.040	-0.310	0.620
2020/01/31 01:15:35.6	98.930	-0.080	-0.240	0.710
2020/01/31 01:15:35.7	98.920	-0.130	-0.180	0.810
2020/01/31 01:15:35.8	98.920	-0.170	-0.110	0.910
2020/01/31 01:15:35.9	98.910	-0.220	-0.040	1.020
2020/01/31 01:15:36.0	98.910	-0.260	0.030	1.130
2020/01/31 01:15:36.1	98.900	-0.310	0.090	1.230
2020/01/31 01:15:36.2	98.900	-0.350	0.160	1.330
2020/01/31 01:15:36.3	98.890	-0.390	0.220	1.430
2020/01/31 01:15:36.4	98.890	-0.430	0.280	1.530
2020/01/31 01:15:36.5	98.890	-0.470	0.340	1.630
2020/01/31 01:15:36.6	98.890	-0.510	0.400	1.720
2020/01/31 01:15:36.7	98.890	-0.550	0.460	1.820
2020/01/31 01:15:36.8	98.890	-0.590	0.510	1.910
2020/01/31 01:15:36.9	98.890	-0.620	0.560	1.990
2020/01/31 01:15:37.0	98.890	-0.650	0.610	2.070
2020/01/31 01:15:37.1	98.900	-0.680	0.650	2.160
2020/01/31 01:15:37.2	98.900	-0.710	0.690	2.230
2020/01/31 01:15:37.3	98.910	-0.730	0.730	2.310
2020/01/31 01:15:37.4	98.920	-0.750	0.760	2.380
2020/01/31 01:15:37.5	98.930	-0.770	0.790	2.440
2020/01/31 01:15:37.6	98.930	-0.790	0.820	2.510
2020/01/31 01:15:37.7	98.940	-0.800	0.840	2.560
2020/01/31 01:15:37.8	98.950	-0.810	0.850	2.620
2020/01/31 01:15:37.9	98.960	-0.810	0.860	2.660
2020/01/31 01:15:38.0	98.970	-0.810	0.870	2.710
2020/01/31 01:15:38.1	98.970	-0.810	0.870	2.750
2020/01/31 01:15:38.2	98.980	-0.810	0.870	2.780
2020/01/31 01:15:38.3	98.990	-0.800	0.860	2.810
2020/01/31 01:15:38.4	99.000	-0.780	0.840	2.830
2020/01/31 01:15:38.5	99.000	-0.760	0.820	2.850
2020/01/31 01:15:38.6	99.010	-0.740	0.790	2.870
2020/01/31 01:15:38.7	99.020	-0.710	0.750	2.870
2020/01/31 01:15:38.8	99.020	-0.680	0.710	2.880
2020/01/31 01:15:38.9	99.030	-0.650	0.660	2.870
2020/01/31 01:15:39.0	99.040	-0.610	0.610	2.860
2020/01/31 01:15:39.1	99.040	-0.570	0.550	2.850
2020/01/31 01:15:39.2	99.050	-0.530	0.490	2.830
2020/01/31 01:15:39.3	99.060	-0.480	0.430	2.810
2020/01/31 01:15:39.4	99.070	-0.440	0.360	2.780
2020/01/31 01:15:39.5	99.070	-0.380	0.280	2.760
2020/01/31 01:15:39.6	99.080	-0.330	0.200	2.720
2020/01/31 01:15:39.7	99.090	-0.280	0.130	2.690
2020/01/31 01:15:39.8	99.100	-0.220	0.040	2.650
2020/01/31 01:15:39.9	99.110	-0.160	-0.040	2.600
2020/01/31 01:15:40.0	99.110	-0.100	-0.120	2.560
2020/01/31 01:15:40.1	99.120	-0.050	-0.210	2.510
2020/01/31 01:15:40.2	99.140	0.010	-0.290	2.460
2020/01/31 01:15:40.3	99.150	0.070	-0.370	2.410
2020/01/31 01:15:40.4	99.160	0.130	-0.460	2.350
2020/01/31 01:15:40.5	99.170	0.190	-0.540	2.290
2020/01/31 01:15:40.6	99.180	0.240	-0.620	2.230
2020/01/31 01:15:40.7	99.190	0.300	-0.690	2.170
2020/01/31 01:15:40.8	99.200	0.350	-0.760	2.110
2020/01/31 01:15:40.9	99.210	0.400	-0.830	2.050
2020/01/31 01:15:41.0	99.190	0.450	-0.900	1.970
2020/01/31 01:15:41.1	99.200	0.490	-0.960	1.910
2020/01/31 01:15:41.2	99.210	0.530	-1.020	1.840
2020/01/31 01:15:41.3	99.220	0.570	-1.070	1.780
2020/01/31 01:15:41.4	99.230	0.610	-1.120	1.720
2020/01/31 01:15:41.5	99.230	0.640	-1.160	1.650
2020/01/31 01:15:41.6	99.240	0.670	-1.200	1.590
2020/01/31 01:15:41.7	99.240	0.700	-1.230	1.520
2020/01/31 01:15:41.8	99.240	0.720	-1.260	1.460
2020/01/31 01:15:41.9	99.240	0.740	-1.280	1.400
2020/01/31 01:15:42.0	99.240	0.750	-1.290	1.340
2020/01/31 01:15:42.1	99.240	0.760	-1.290	1.280
2020/01/31 01:15:42.2	99.240	0.770	-1.290	1.220
2020/01/31 01:15:42.3	99.240	0.770	-1.290	1.160
2020/01/31 01:15:42.4	99.230	0.770	-1.280	1.110
2020/01/31 01:15:42.5	99.230	0.760	-1.260	1.050
2020/01/31 01:15:42.6	99.220	0.750	-1.230	1.000
2020/01/31 01:15:42.7	99.210	0.740	-1.200	0.940
2020/01/31 01:15:42.8	99.210	0.730	-1.160	0.890
2020/01/31 01:15:42.9	99.200	0.710	-1.120	0.840
2020/01/31 01:15:43.0	99.190	0.680	-1.070	0.790
2020/01/31 01:15:43.1	99.180	0.660	-1.010	0.740
2020/01/31 01:15:43.2	99.170	0.630	-0.940	0.700
2020/01/31 01:15:43.3	99.160	0.600	-0.870	0.650
2020/01/31 01:15:43.4	99.150	0.560	-0.800	0.610
2020/01/31 01:15:43.5	99.140	0.520	-0.720	0.570
2020/01/31 01:15:43.6	99.130	0.480	-0.630	0.530
2020/01/31 01:15:43.7	99.120	0.440	-0.540	0.490
2020/01/31 01:15:43.8	99.110	0.400	-0.450	0.460
2020/01/31 01:15:43.9	99.100	0.360	-0.350	0.420
2020/01/31 01:15:44.0	99.090	0.310	-0.250	0.400
2020/01/31 01:15:44.1	99.080	0.260	-0.150	0.370
2020/01/31 01:15:44.2	99.070	0.220	-0.050	0.340
2020/01/31 01:15:44.3	99.060	0.170	0.050	0.320
2020/01/31 01:15:44.4	99.050	0.120	0.140	0.290
2020/01/31 01:15:44.5	99.040	0.070	0.240	0.280
2020/01/31 01:15:44.6	99.030	0.030	0.330	0.260
2020/01/31 01:15:44.7	99.020	-0.020	0.420	0.240
2020/01/31 01:15:44.8	99.010	-0.070	0.500	0.230
2020/01/31 01:15:44.9	99.010	-0.110	0.580	0.220
2020/01/31 01:15:45.0	99.030	-0.150	0.660	0.220
2020/01/31 01:15:45.1	99.030	-0.190	0.720	0.210
2020/01/31 01:15:45.2	99.020	-0.230	0.780	0.210
2020/01/31 01:15:45.3	99.010	-0.270	0.830	0.200
2020/01/31 01:15:45.4	99.010	-0.300	0.870	0.200
2020/01/31 01:15:45.5	99.000	-0.340	0.910	0.210
2020/01/31 01:15:45.6	99.000	-0.370	0.930	0.210
2020/01/31 01:15:45.7	99.000	-0.390	0.950	0.210
2020/01/31 01:15:45.8	99.000	-0.420	0.960	0.220
2020/01/31 01:15:45.9	98.990	-0.440	0.960	0.230
2020/01/31 01:15:46.0	99.010	-0.460	0.940	0.240
2020/01/31 01:15:46.1	99.010	-0.470	0.920	0.250
2020/01/31 01:15:46.2	99.010	-0.490	0.900	0.270
2020/01/31 01:15:46.3	99.010	-0.490	0.860	0.280
2020/01/31 01:15:46.4	99.010	-0.500	0.820	0.300
2020/01/31 01:15:46.5	99.020	-0.500	0.770	0.320
2020/01/31 01:15:46.6	99.020	-0.500	0.720	0.330
2020/01/31 01:15:46.7	99.020	-0.500	0.660	0.350
2020/01/31 01:15:46.8	99.030	-0.500	0.590	0.380
2020/01/31 01:15:46.9	99.040	-0.490	0.520	0.400
2020/01/31 01:15:47.0	99.040	-0.480	0.440	0.420
2020/01/31 01:15:47.1	99.050	-0.470	0.370	0.450
2020/01/31 01:15:47.2	99.060	-0.460	0.290	0.470
2020/01/31 01:15:47.3	99.070	-0.440	0.210	0.500
2020/01/31 01:15:47.4	99.080	-0.420	0.130	0.520
2020/01/31 01:15:47.5	99.090	-0.410	0.050	0.550
2020/01/31 01:15:47.6	99.100	-0.390	-0.030	0.570
2020/01/31 01:15:47.7	99.110	-0.370	-0.110	0.600
2020/01/31 01:15:47.8	99.130	-0.350	-0.190	0.630
2020/01/31 01:15:47.9	99.140	-0.330	-0.260	0.660
2020/01/31 01:15:48.0	99.140	-0.310	-0.330	0.680
2020/01/31 01:15:48.1	99.150	-0.290	-0.390	0.710
2020/01/31 01:15:48.2	99.170	-0.270	-0.450	0.740
2020/01/31 01:15:48.3	99.180	-0.250	-0.500	0.770
2020/01/31 01:15:48.4	99.200	-0.230	-0.550	0.800
2020/01/31 01:15:48.5	99.220	-0.210	-0.600	0.830
2020/01/31 01:15:48.6	99.230	-0.200	-0.630	0.860
2020/01/31 01:15:48.7	99.250	-0.180	-0.660	0.890
2020/01/31 01:15:48.8	99.270	-0.160	-0.690	0.930
2020/01/31 01:15:48.9	99.280	-0.150	-0.710	0.960
2020/01/31 01:15:49.0	99.280	-0.140	-0.720	0.990
2020/01/31 01:15:49.1	99.290	-0.120	-0.730	1.030
2020/01/31 01:15:49.2	99.310	-0.110	-0.730	1.060
2020/01/31 01:15:49.3	99.330	-0.100	-0.730	1.090
2020/01/31 01:15:49.4	99.340	-0.090	-0.720	1.130
2020/01/31 01:15:49.5	99.360	-0.080	-0.700	1.170
2020/01/31 01:15:49.6	99.370	-0.070	-0.690	1.200
2020/01/31 01:15:49.7	99.380	-0.060	-0.670	1.240
2020/01/31 01:15:49.8	99.400	-0.050	-0.640	1.270
2020/01/31 01:15:49.9	99.410	-0.040	-0.620	1.310
2020/01/31 01:15:50.0	99.420	-0.030	-0.590	1.350
2020/01/31 01:15:50.1	99.430	-0.020	-0.550	1.390
2020/01/31 01:15:50.2	99.440	-0.010	-0.520	1.420
2020/01/31 01:15:50.3	99.450	0.000	-0.490	1.460
2020/01/31 01:15:50.4	99.450	0.010	-0.450	1.500
2020/01/31 01:15:50.5	99.460	0.020	-0.420	1.530
2020/01/31 01:15:50.6	99.460	0.030	-0.380	1.570
2020/01/31 01:15:50.7	99.460	0.050	-0.350	1.610
2020/01/31 01:15:50.8	99.460	0.060	-0.320	1.640
2020/01/31 01:15:50.9	99.460	0.070	-0.280	1.680
2020/01/31 01:15:51.0	99.440	0.080	-0.250	1.720
2020/01/31 01:15:51.1	99.440	0.100	-0.220	1.750
2020/01/31 01:15:51.2	99.430	0.110	-0.190	1.790
2020/01/31 01:15:51.3	99.420	0.120	-0.160	1.820
2020/01/31 01:15:51.4	99.410	0.140	-0.140	1.860
2020/01/31 01:15:51.5	99.400	0.150	-0.110	1.890
2020/01/31 01:15:51.6	99.390	0.170	-0.090	1.920
2020/01/31 01:15:51.7	99.380	0.180	-0.070	1.950
2020/01/31 01:15:51.8	99.360	0.200	-0.050	1.980
2020/01/31 01:15:51.9	99.340	0.210	-0.040	2.000
2020/01/31 01:15:52.0	99.340	0.220	-0.020	2.020
2020/01/31 01:15:52.1	99.320	0.240	-0.010	2.050
2020/01/31 01:15:52.2	99.300	0.250	-0.000	2.060
2020/01/31 01:15:52.3	99.280	0.260	0.010	2.080
2020/01/31 01:15:52.4	99.250	0.270	0.010	2.090
2020/01/31 01:15:52.5	99.230	0.280	0.020	2.100
2020/01/31 01:15:52.6	99.210	0.290	0.020	2.110
2020/01/31 01:15:52.7	99.190	0.300	0.020	2.110
2020/01/31 01:15:52.8	99.160	0.310	0.020	2.110
2020/01/31 01:15:52.9	99.140	0.310	0.020	2.110
2020/01/31 01:15:53.0	99.110	0.320	0.020	2.100
2020/01/31 01:15:53.1	99.090	0.320	0.010	2.090
2020/01/31 01:15:53.2	99.060	0.330	0.000	2.070
2020/01/31 01:15:53.3	99.040	0.330	-0.010	2.050
2020/01/31 01:15:53.4	99.020	0.330	-0.020	2.030
2020/01/31 01:15:53.5	99.000	0.330	-0.030	2.010
2020/01/31 01:15:53.6	98.980	0.330	-0.040	1.980
2020/01/31 01:15:53.7	98.960	0.330	-0.060	1.940
2020/01/31 01:15:53.8	98.940	0.320	-0.070	1.910
2020/01/31 01:15:53.9	98.920	0.320	-0.090	1.870
2020/01/31 01:15:54.0	98.900	0.310	-0.110	1.820
2020/01/31 01:15:54.1	98.890	0.310	-0.120	1.770
2020/01/31 01:15:54.2	98.880	0.300	-0.140	1.720
2020/01/31 01:15:54.3	98.870	0.290	-0.150	1.670
2020/01/31 01:15:54.4	98.860	0.280	-0.170	1.620
2020/01/31 01:15:54.5	98.860	0.280	-0.190	1.560
2020/01/31 01:15:54.6	98.860	0.260	-0.200	1.500
2020/01/31 01:15:54.7	98.850	0.250	-0.220	1.440
2020/01/31 01:15:54.8	98.860	0.240	-0.230	1.370
2020/01/31 01:15:54.9	98.860	0.230	-0.240	1.310
2020/01/31 01:15:55.0	98.880	0.210	-0.250	1.240
2020/01/31 01:15:55.1	98.880	0.200	-0.260	1.170
2020/01/31 01:15:55.2	98.890	0.180	-0.270	1.110
2020/01/31 01:15:55.3	98.910	0.170	-0.280	1.040
2020/01/31 01:15:55.4	98.920	0.150	-0.280	0.970
2020/01/31 01:15:55.5	98.940	0.130	-0.290	0.910
2020/01/31 01:15:55.6	98.950	0.120	-0.290	0.840
2020/01/31 01:15:55.7	98.970	0.100	-0.290	0.780
2020/01/31 01:15:55.8	98.990	0.080	-0.290	0.720
2020/01/31 01:15:55.9	99.010	0.060	-0.280	0.660
2020/01/31 01:15:56.0	99.020	0.040	-0.270	0.600
2020/01/31 01:15:56.1	99.040	0.020	-0.270	0.540
2020/01/31 01:15:56.2	99.070	0.000	-0.260	0.490
2020/01/31 01:15:56.3	99.090	-0.010	-0.250	0.440
2020/01/31 01:15:56.4	99.110	-0.030	-0.240	0.400
2020/01/31 01:15:56.5	99.130	-0.050	-0.230	0.360
2020/01/31 01:15:56.6	99.150	-0.070	-0.210	0.320
2020/01/31 01:15:56.7	99.170	-0.080	-0.200	0.280
2020/01/31 01:15:56.8	99.190	-0.100	-0.190	0.250
2020/01/31 01:15:56.9	99.210	-0.110	-0.170	0.230
2020/01/31 01:15:57.0	99.250	-0.120	-0.160	0.210
2020/01/31 01:15:57.1	99.270	-0.140	-0.150	0.190
2020/01/31 01:15:57.2	99.290	-0.150	-0.130	0.170
2020/01/31 01:15:57.3	99.300	-0.160	-0.120	0.160
2020/01/31 01:15:57.4	99.320	-0.170	-0.110	0.150
2020/01/31 01:15:57.5	99.330	-0.170	-0.100	0.150
2020/01/31 01:15:57.6	99.340	-0.180	-0.090	0.150
2020/01/31 01:15:57.7	99.350	-0.180	-0.080	0.150
2020/01/31 01:15:57.8	99.360	-0.190	-0.070	0.150
2020/01/31 01:15:57.9	99.370	-0.190	-0.070	0.160
2020/01/31 01:15:58.0	99.360	-0.190	-0.060	0.170
2020/01/31 01:15:58.1	99.370	-0.190	-0.060	0.190
2020/01/31 01:15:58.2	99.370	-0.190	-0.060	0.200
2020/01/31 01:15:58.3	99.370	-0.190	-0.070	0.220
2020/01/31 01:15:58.4	99.370	-0.180	-0.070	0.240
2020/01/31 01:15:58.5	99.370	-0.180	-0.080	0.260
2020/01/31 01:15:58.6	99.370	-0.170	-0.090	0.290
2020/01/31 01:15:58.7	99.360	-0.170	-0.100	0.310
2020/01/31 01:15:58.8	99.360	-0.160	-0.110	0.340
2020/01/31 01:15:58.9	99.350	-0.160	-0.120	0.370
2020/01/31 01:15:59.0	99.340	-0.150	-0.140	0.400
2020/01/31 01:15:59.1	99.330	-0.140	-0.150	0.440
2020/01/31 01:15:59.2	99.310	-0.140	-0.170	0.470
2020/01/31 01:15:59.3	99.300	-0.130	-0.190	0.510
2020/01/31 01:15:59.4	99.290	-0.120	-0.200	0.540
2020/01/31 01:15:59.5	99.270	-0.110	-0.220	0.580
2020/01/31 01:15:59.6	99.260	-0.110	-0.240	0.620
2020/01/31 01:15:59.7	99.250	-0.100	-0.250	0.660
2020/01/31 01:15:59.8	99.230	-0.100	-0.270	0.700
2020/01/31 01:15:59.9	99.220	-0.100	-0.280	0.740
2020/01/31 01:16:00.0	99.210	-0.090	-0.290	0.780
2020/01/31 01:16:00.1	99.190	-0.090	-0.300	0.820
2020/01/31 01:16:00.2	99.180	-0.090	-0.310	0.860
2020/01/31 01:16:00.3	99.170	-0.090	-0.310	0.900
2020/01/31 01:16:00.4	99.160	-0.090	-0.310	0.940
2020/01/31 01:16:00.5	99.140	-0.090	-0.310	0.980
2020/01/31 01:16:00.6	99.130	-0.100	-0.310	1.020
2020/01/31 01:16:00.7	99.120	-0.100	-0.300	1.060
2020/01/31 01:16:00.8	99.110	-0.110	-0.290	1.100
2020/01/31 01:16:00.9	99.100	-0.110	-0.270	1.140
2020/01/31 01:16:01.0	99.080	-0.120	-0.260	1.180
2020/01/31 01:16:01.1	99.070	-0.130	-0.230	1.220
2020/01/31 01:16:01.2	99.060	-0.140	-0.210	1.260
2020/01/31 01:16:01.3	99.060	-0.150	-0.190	1.300
2020/01/31 01:16:01.4	99.050	-0.160	-0.160	1.340
2020/01/31 01:16:01.5	99.050	-0.170	-0.130	1.380
2020/01/31 01:16:01.6	99.040	-0.180	-0.100	1.420
2020/01/31 01:16:01.7	99.040	-0.190	-0.060	1.450
2020/01/31 01:16:01.8	99.040	-0.200	-0.030	1.490
2020/01/31 01:16:01.9	99.040	-0.210	0.000	1.530
2020/01/31 01:16:02.0	99.030	-0.220	0.040	1.560
2020/01/31 01:16:02.1	99.040	-0.240	0.080	1.600
2020/01/31 01:16:02.2	99.040	-0.240	0.110	1.630
2020/01/31 01:16:02.3	99.040	-0.250	0.140	1.660
2020/01/31 01:16:02.4	99.050	-0.260	0.170	1.690
2020/01/31 01:16:02.5	99.050	-0.270	0.200	1.710
2020/01/31 01:16:02.6	99.060	-0.270	0.220	1.730
2020/01/31 01:16:02.7	99.070	-0.270	0.240	1.750
2020/01/31 01:16:02.8	99.080	-0.280	0.260	1.770
2020/01/31 01:16:02.9	99.090	-0.270	0.280	1.790
2020/01/31 01:16:03.0	99.100	-0.270	0.280	1.800
2020/01/31 01:16:03.1	99.120	-0.270	0.290	1.810
2020/01/31 01:16:03.2	99.130	-0.260	0.290	1.810
2020/01/31 01:16:03.3	99.150	-0.250	0.290	1.820
2020/01/31 01:16:03.4	99.160	-0.240	0.290	1.810
2020/01/31 01:16:03.5	99.180	-0.220	0.280	1.810
2020/01/31 01:16:03.6	99.190	-0.210	0.260	1.800
2020/01/31 01:16:03.7	99.210	-0.190	0.240	1.790
2020/01/31 01:16:03.8	99.230	-0.170	0.220	1.780
2020/01/31 01:16:03.9	99.250	-0.140	0.200	1.760
2020/01/31 01:16:04.0	99.280	-0.120	0.170	1.740
2020/01/31 01:16:04.1	99.290	-0.090	0.130	1.720
2020/01/31 01:16:04.2	99.310	-0.060	0.100	1.690
2020/01/31 01:16:04.3	99.330	-0.040	0.060	1.670
2020/01/31 01:16:04.4	99.340	-0.010	0.020	1.640
2020/01/31 01:16:04.5	99.360	0.020	-0.020	1.610
2020/01/31 01:16:04.6	99.370	0.050	-0.060	1.570
2020/01/31 01:16:04.7	99.390	0.080	-0.100	1.540
2020/01/31 01:16:04.8	99.400	0.120	-0.150	1.500
2020/01/31 01:16:04.9	99.410	0.150	-0.190	1.470
2020/01/31 01:16:05.0	99.410	0.180	-0.230	1.430
2020/01/31 01:16:05.1	99.420	0.200	-0.270	1.390
2020/01/31 01:16:05.2	99.430	0.230	-0.310	1.360
2020/01/31 01:16:05.3	99.440	0.260	-0.350	1.320
2020/01/31 01:16:05.4	99.440	0.280	-0.390	1.290
2020/01/31 01:16:05.5	99.440	0.310	-0.420	1.260
2020/01/31 01:16:05.6	99.450	0.330	-0.450	1.230
2020/01/31 01:16:05.7	99.450	0.350	-0.480	1.200
2020/01/31 01:16:05.8	99.450	0.360	-0.500	1.170
2020/01/31 01:16:05.9	99.440	0.380	-0.520	1.150
2020/01/31 01:16:06.0	99.440	0.390	-0.540	1.130
2020/01/31 01:16:06.1	99.440	0.400	-0.550	1.110
2020/01/31 01:16:06.2	99.430	0.400	-0.560	1.100
2020/01/31 01:16:06.3	99.430	0.410	-0.570	1.080
2020/01/31 01:16:06.4	99.420	0.410	-0.580	1.070
2020/01/31 01:16:06.5	99.410	0.400	-0.580	1.070
2020/01/31 01:16:06.6	99.400	0.400	-0.570	1.060
2020/01/31 01:16:06.7	99.390	0.390	-0.570	1.060
2020/01/31 01:16:06.8	99.380	0.380	-0.560	1.060
2020/01/31 01:16:06.9	99.370	0.370	-0.540	1.060
2020/01/31 01:16:07.0	99.360	0.360	-0.530	1.070
2020/01/31 01:16:07.1	99.350	0.340	-0.510	1.070
2020/01/31 01:16:07.2	99.340	0.330	-0.490	1.080
2020/01/31 01:16:07.3	99.320	0.310	-0.470	1.090
2020/01/31 01:16:07.4	99.310	0.290	-0.440	1.100
2020/01/31 01:16:07.5	99.300	0.270	-0.410	1.110
2020/01/31 01:16:07.6	99.280	0.240	-0.380	1.120
2020/01/31 01:16:07.7	99.270	0.220	-0.360	1.140
2020/01/31 01:16:07.8	99.260	0.200	-0.330	1.150
2020/01/31 01:16:07.9	99.250	0.180	-0.290	1.160
2020/01/31 01:16:08.0	99.240	0.160	-0.260	1.180
2020/01/31 01:16:08.1	99.230	0.130	-0.230	1.180
2020/01/31 01:16:08.2	99.210	0.110	-0.200	1.190
2020/01/31 01:16:08.3	99.200	0.090	-0.170	1.200
2020/01/31 01:16:08.4	99.190	0.070	-0.140	1.210
2020/01/31 01:16:08.5	99.170	0.060	-0.110	1.220
2020/01/31 01:16:08.6	99.160	0.040	-0.090	1.230
2020/01/31 01:16:08.7	99.150	0.020	-0.060	1.230
2020/01/31 01:16:08.8	99.130	0.010	-0.040	1.240
2020/01/31 01:16:08.9	99.120	-0.000	-0.020	1.240
2020/01/31 01:16:09.0	99.110	-0.010	-0.010	1.240
2020/01/31 01:16:09.1	99.100	-0.020	0.010	1.240
2020/01/31 01:16:09.2	99.090	-0.030	0.020	1.240
2020/01/31 01:16:09.3	99.080	-0.030	0.020	1.240
2020/01/31 01:16:09.4	99.070	-0.030	0.030	1.240
2020/01/31 01:16:09.5	99.060	-0.040	0.030	1.240
2020/01/31 01:16:09.6	99.050	-0.040	0.030	1.240
2020/01/31 01:16:09.7	99.040	-0.040	0.030	1.230
2020/01/31 01:16:09.8	99.030	-0.030	0.020	1.230
2020/01/31 01:16:09.9	99.020	-0.030	0.010	1.220
2020/01/31 01:16:10.0	99.020	-0.020	0.000	1.210
2020/01/31 01:16:10.1	99.020	-0.020	-0.010	1.210
2020/01/31 01:16:10.2	99.010	-0.010	-0.020	1.200
2020/01/31 01:16:10.3	99.010	-0.010	-0.040	1.190
2020/01/31 01:16:10.4	99.010	0.000	-0.060	1.190
2020/01/31 01:16:10.5	99.010	0.010	-0.080	1.180
2020/01/31 01:16:10.6	99.010	0.020	-0.100	1.170
2020/01/31 01:16:10.7	99.010	0.030	-0.120	1.160
2020/01/31 01:16:10.8	99.010	0.030	-0.140	1.150
2020/01/31 01:16:10.9	99.020	0.040	-0.160	1.140
2020/01/31 01:16:11.0	99.030	0.050	-0.180	1.140
2020/01/31 01:16:11.1	99.030	0.060	-0.200	1.130
2020/01/31 01:16:11.2	99.040	0.060	-0.220	1.120
2020/01/31 01:16:11.3	99.040	0.070	-0.240	1.110
2020/01/31 01:16:11.4	99.050	0.070	-0.260	1.100
2020/01/31 01:16:11.5	99.060	0.080	-0.270	1.090
2020/01/31 01:16:11.6	99.070	0.080	-0.290	1.080
2020/01/31 01:16:11.7	99.070	0.080	-0.300	1.070
2020/01/31 01:16:11.8	99.080	0.090	-0.310	1.060
2020/01/31 01:16:11.9	99.090	0.090	-0.320	1.060
2020/01/31 01:16:12.0	99.100	0.090	-0.330	1.050
2020/01/31 01:16:12.1	99.100	0.090	-0.340	1.040
2020/01/31 01:16:12.2	99.110	0.080	-0.340	1.030
2020/01/31 01:16:12.3	99.120	0.080	-0.340	1.020
2020/01/31 01:16:12.4	99.130	0.080	-0.330	1.010
2020/01/31 01:16:12.5	99.140	0.070	-0.330	1.000
2020/01/31 01:16:12.6	99.150	0.070	-0.320	0.990
2020/01/31 01:16:12.7	99.160	0.060	-0.310	0.980
2020/01/31 01:16:12.8	99.170	0.050	-0.300	0.970
2020/01/31 01:16:12.9	99.180	0.040	-0.280	0.960
2020/01/31 01:16:13.0	99.190	0.040	-0.260	0.950
2020/01/31 01:16:13.1	99.200	0.030	-0.240	0.940
2020/01/31 01:16:13.2	99.210	0.020	-0.220	0.940
2020/01/31 01:16:13.3	99.220	0.010	-0.190	0.930
2020/01/31 01:16:13.4	99.230	-0.000	-0.170	0.930
2020/01/31 01:16:13.5	99.240	-0.010	-0.140	0.920
2020/01/31 01:16:13.6	99.250	-0.020	-0.110	0.920
2020/01/31 01:16:13.7	99.260	-0.030	-0.090	0.920
2020/01/31 01:16:13.8	99.270	-0.050	-0.060	0.920
2020/01/31 01:16:13.9	99.270	-0.050	-0.030	0.920
2020/01/31 01:16:14.0	99.260	-0.060	-0.000	0.920
2020/01/31 01:16:14.1	99.270	-0.070	0.020	0.920
2020/01/31 01:16:14.2	99.280	-0.080	0.050	0.930
2020/01/31 01:16:14.3	99.290	-0.090	0.070	0.930
2020/01/31 01:16:14.4	99.300	-0.100	0.100	0.940
2020/01/31 01:16:14.5	99.310	-0.100	0.110	0.940
2020/01/31 01:16:14.6	99.320	-0.110	0.130	0.950
2020/01/31 01:16:14.7	99.330	-0.110	0.150	0.950
2020/01/31 01:16:14.8	99.340	-0.120	0.160	0.960
2020/01/31 01:16:14.9	99.350	-0.120	0.170	0.970
2020/01/31 01:16:15.0	99.370	-0.120	0.180	0.980
2020/01/31 01:16:15.1	99.380	-0.120	0.180	0.990
2020/01/31 01:16:15.2	99.390	-0.120	0.180	1.000
2020/01/31 01:16:15.3	99.390	-0.120	0.180	1.010
2020/01/31 01:16:15.4	99.400	-0.120	0.170	1.030
2020/01/31 01:16:15.5	99.410	-0.120	0.160	1.040
2020/01/31 01:16:15.6	99.410	-0.110	0.140	1.060
2020/01/31 01:16:15.7	99.420	-0.110	0.130	1.080
2020/01/31 01:16:15.8	99.420	-0.100	0.110	1.100
2020/01/31 01:16:15.9	99.420	-0.090	0.090	1.120
2020/01/31 01:16:16.0	99.410	-0.090	0.060	1.150
2020/01/31 01:16:16.1	99.410	-0.080	0.030	1.180
2020/01/31 01:16:16.2	99.400	-0.070	0.000	1.210
2020/01/31 01:16:16.3	99.390	-0.060	-0.020	1.240
2020/01/31 01:16:16.4	99.380	-0.050	-0.050	1.270
2020/01/31 01:16:16.5	99.370	-0.050	-0.080	1.300
2020/01/31 01:16:16.6	99.350	-0.040	-0.110	1.340
2020/01/31 01:16:16.7	99.340	-0.030	-0.140	1.370
2020/01/31 01:16:16.8	99.320	-0.030	-0.160	1.410
2020/01/31 01:16:16.9	99.300	-0.020	-0.180	1.450
2020/01/31 01:16:17.0	99.260	-0.020	-0.200	1.480
2020/01/31 01:16:17.1	99.240	-0.010	-0.220	1.520
2020/01/31 01:16:17.2	99.210	-0.010	-0.240	1.550
2020/01/31 01:16:17.3	99.190	-0.010	-0.250	1.590
2020/01/31 01:16:17.4	99.160	-0.010	-0.260	1.620
2020/01/31 01:16:17.5	99.130	-0.010	-0.260	1.650
2020/01/31 01:16:17.6	99.100	-0.020	-0.270	1.680
2020/01/31 01:16:17.7	99.070	-0.020	-0.270	1.710
2020/01/31 01:16:17.8	99.050	-0.030	-0.260	1.740
2020/01/31 01:16:17.9	99.020	-0.040	-0.250	1.760
2020/01/31 01:16:18.0	99.000	-0.050	-0.250	1.780
2020/01/31 01:16:18.1	98.980	-0.060	-0.230	1.800
2020/01/31 01:16:18.2	98.950	-0.070	-0.220	1.820
2020/01/31 01:16:18.3	98.930	-0.090	-0.200	1.830
2020/01/31 01:16:18.4	98.910	-0.100	-0.190	1.850
2020/01/31 01:16:18.5	98.890	-0.120	-0.170	1.860
2020/01/31 01:16:18.6	98.870	-0.140	-0.150	1.860
2020/01/31 01:16:18.7	98.860	-0.150	-0.130	1.870
2020/01/31 01:16:18.8	98.850	-0.170	-0.110	1.870
2020/01/31 01:16:18.9	98.830	-0.180	-0.100	1.870
2020/01/31 01:16:19.0	98.820	-0.200	-0.080	1.860
2020/01/31 01:16:19.1	98.810	-0.220	-0.060	1.860
2020/01/31 01:16:19.2	98.810	-0.230	-0.050	1.850
2020/01/31 01:16:19.3	98.800	-0.240	-0.040	1.840
2020/01/31 01:16:19.4	98.800	-0.260	-0.030	1.830
2020/01/31 01:16:19.5	98.800	-0.270	-0.020	1.820
2020/01/31 01:16:19.6	98.800	-0.280	-0.020	1.800
2020/01/31 01:16:19.7	98.800	-0.280	-0.020	1.790
2020/01/31 01:16:19.8	98.800	-0.290	-0.020	1.780
2020/01/31 01:16:19.9	98.800	-0.290	-0.030	1.760
2020/01/31 01:16:20.0	98.820	-0.290	-0.030	1.750
2020/01/31 01:16:20.1	98.820	-0.290	-0.040	1.740
2020/01/31 01:16:20.2	98.830	-0.290	-0.060	1.720
2020/01/31 01:16:20.3	98.840	-0.290	-0.070	1.700
2020/01/31 01:16:20.4	98.850	-0.280	-0.090	1.690
2020/01/31 01:16:20.5	98.860	-0.270	-0.110	1.670
2020/01/31 01:16:20.6	98.870	-0.260	-0.130	1.650
2020/01/31 01:16:20.7	98.880	-0.240	-0.150	1.630
2020/01/31 01:16:20.8	98.900	-0.230	-0.180	1.600
2020/01/31 01:16:20.9	98.920	-0.210	-0.200	1.580
2020/01/31 01:16:21.0	98.920	-0.190	-0.230	1.550
2020/01/31 01:16:21.1	98.940	-0.170	-0.260	1.530
2020/01/31 01:16:21.2	98.960	-0.140	-0.280	1.500
2020/01/31 01:16:21.3	98.980	-0.120	-0.310	1.480
2020/01/31 01:16:21.4	99.000	-0.090	-0.330	1.450
2020/01/31 01:16:21.5	99.020	-0.070	-0.360	1.420
2020/01/31 01:16:21.6	99.040	-0.040	-0.380	1.390
2020/01/31 01:16:21.7	99.060	-0.010	-0.410	1.360
2020/01/31 01:16:21.8	99.080	0.020	-0.430	1.330
2020/01/31 01:16:21.9	99.100	0.050	-0.450	1.300
2020/01/31 01:16:22.0	99.120	0.080	-0.470	1.270
2020/01/31 01:16:22.1	99.130	0.100	-0.490	1.240
2020/01/31 01:16:22.2	99.150	0.130	-0.500	1.210
2020/01/31 01:16:22.3	99.160	0.160	-0.510	1.180
2020/01/31 01:16:22.4	99.170	0.190	-0.520	1.150
2020/01/31 01:16:22.5	99.180	0.210	-0.530	1.120
2020/01/31 01:16:22.6	99.180	0.240	-0.530	1.090
2020/01/31 01:16:22.7	99.190	0.260	-0.530	1.060
2020/01/31 01:16:22.8	99.190	0.280	-0.530	1.030
2020/01/31 01:16:22.9	99.190	0.300	-0.530	1.010
2020/01/31 01:16:23.0	99.190	0.320	-0.520	0.980
2020/01/31 01:16:23.1	99.190	0.340	-0.510	0.950
2020/01/31 01:16:23.2	99.190	0.360	-0.490	0.930
2020/01/31 01:16:23.3	99.180	0.370	-0.480	0.900
2020/01/31 01:16:23.4	99.170	0.380	-0.460	0.880
2020/01/31 01:16:23.5	99.160	0.390	-0.440	0.860
2020/01/31 01:16:23.6	99.150	0.400	-0.420	0.840
2020/01/31 01:16:23.7	99.140	0.410	-0.390	0.820
2020/01/31 01:16:23.8	99.120	0.420	-0.370	0.800
2020/01/31 01:16:23.9	99.110	0.420	-0.340	0.790
2020/01/31 01:16:24.0	99.090	0.420	-0.310	0.780
2020/01/31 01:16:24.1	99.080	0.420	-0.280	0.770
2020/01/31 01:16:24.2	99.060	0.420	-0.250	0.760
2020/01/31 01:16:24.3	99.040	0.420	-0.220	0.750
2020/01/31 01:16:24.4	99.010	0.420	-0.190	0.740
2020/01/31 01:16:24.5	98.990	0.410	-0.160	0.740
2020/01/31 01:16:24.6	98.970	0.410	-0.130	0.740
2020/01/31 01:16:24.7	98.950	0.400	-0.100	0.740
2020/01/31 01:16:24.8	98.920	0.390	-0.070	0.740
2020/01/31 01:16:24.9	98.900	0.380	-0.050	0.750
2020/01/31 01:16:25.0	98.880	0.370	-0.020	0.750
2020/01/31 01:16:25.1	98.850	0.360	-0.000	0.760
2020/01/31 01:16:25.2	98.830	0.350	0.020	0.770
2020/01/31 01:16:25.3	98.800	0.340	0.030	0.780
2020/01/31 01:16:25.4	98.780	0.320	0.050	0.790
2020/01/31 01:16:25.5	98.760	0.310	0.060	0.810
2020/01/31 01:16:25.6	98.740	0.300	0.070	0.820
2020/01/31 01:16:25.7	98.710	0.280	0.080	0.840
2020/01/31 01:16:25.8	98.690	0.270	0.080	0.850
2020/01/31 01:16:25.9	98.670	0.250	0.090	0.870
2020/01/31 01:16:26.0	98.650	0.240	0.100	0.890
2020/01/31 01:16:26.1	98.640	0.220	0.100	0.910
2020/01/31 01:16:26.2	98.620	0.210	0.100	0.930
2020/01/31 01:16:26.3	98.600	0.190	0.100	0.960
2020/01/31 01:16:26.4	98.580	0.170	0.100	0.980
2020/01/31 01:16:26.5	98.570	0.150	0.090	1.000
2020/01/31 01:16:26.6	98.550	0.140	0.090	1.020
2020/01/31 01:16:26.7	98.540	0.120	0.090	1.050
2020/01/31 01:16:26.8	98.530	0.100	0.090	1.070
2020/01/31 01:16:26.9	98.510	0.080	0.080	1.090
2020/01/31 01:16:27.0	98.510	0.060	0.080	1.110
2020/01/31 01:16:27.1	98.500	0.040	0.080	1.130
2020/01/31 01:16:27.2	98.500	0.020	0.070	1.150
2020/01/31 01:16:27.3	98.490	0.000	0.070	1.160
2020/01/31 01:16:27.4	98.490	-0.020	0.070	1.180
2020/01/31 01:16:27.5	98.490	-0.040	0.070	1.190
2020/01/31 01:16:27.6	98.490	-0.060	0.070	1.200
2020/01/31 01:16:27.7	98.500	-0.080	0.070	1.210
2020/01/31 01:16:27.8	98.500	-0.100	0.070	1.220
2020/01/31 01:16:27.9	98.510	-0.120	0.070	1.230
2020/01/31 01:16:28.0	98.520	-0.140	0.070	1.230
2020/01/31 01:16:28.1	98.530	-0.150	0.070	1.240
2020/01/31 01:16:28.2	98.540	-0.170	0.070	1.240
2020/01/31 01:16:28.3	98.560	-0.190	0.070	1.240
2020/01/31 01:16:28.4	98.570	-0.210	0.070	1.240
2020/01/31 01:16:28.5	98.590	-0.230	0.070	1.230
2020/01/31 01:16:28.6	98.600	-0.240	0.070	1.230
2020/01/31 01:16:28.7	98.620	-0.260	0.070	1.230
2020/01/31 01:16:28.8	98.640	-0.270	0.070	1.220
2020/01/31 01:16:28.9	98.660	-0.290	0.070	1.220
2020/01/31 01:16:29.0	98.700	-0.300	0.060	1.210
2020/01/31 01:16:29.1	98.720	-0.310	0.060	1.210
2020/01/31 01:16:29.2	98.740	-0.330	0.060	1.200
2020/01/31 01:16:29.3	98.770	-0.340	0.050	1.200
2020/01/31 01:16:29.4	98.790	-0.350	0.040	1.190
2020/01/31 01:16:29.5	98.810	-0.360	0.030	1.190
2020/01/31 01:16:29.6	98.830	-0.360	0.030	1.200
2020/01/31 01:16:29.7	98.850	-0.370	0.010	1.200
2020/01/31 01:16:29.8	98.870	-0.380	0.000	1.200
2020/01/31 01:16:29.9	98.890	-0.380	-0.010	1.210
2020/01/31 01:16:30.0	98.900	-0.380	-0.030	1.220
2020/01/31 01:16:30.1	98.920	-0.380	-0.050	1.240
2020/01/31 01:16:30.2	98.930	-0.390	-0.060	1.250
2020/01/31 01:16:30.3	98.940	-0.380	-0.080	1.270
2020/01/31 01:16:30.4	98.950	-0.380	-0.110	1.290
2020/01/31 01:16:30.5	98.950	-0.380	-0.130	1.320
2020/01/31 01:16:30.6	98.960	-0.370	-0.160	1.340
2020/01/31 01:16:30.7	98.960	-0.370	-0.180	1.370
2020/01/31 01:16:30.8	98.960	-0.360	-0.210	1.410
2020/01/31 01:16:30.9	98.960	-0.350	-0.240	1.440
2020/01/31 01:16:31.0	98.940	-0.340	-0.270	1.480
2020/01/31 01:16:31.1	98.940	-0.330	-0.300	1.510
2020/01/31 01:16:31.2	98.930	-0.320	-0.320	1.550
2020/01/31 01:16:31.3	98.920	-0.310	-0.350	1.590
2020/01/31 01:16:31.4	98.920	-0.290	-0.380	1.640
2020/01/31 01:16:31.5	98.910	-0.280	-0.410	1.680
2020/01/31 01:16:31.6	98.900	-0.260	-0.440	1.730
2020/01/31 01:16:31.7	98.890	-0.240	-0.460	1.770
2020/01/31 01:16:31.8	98.880	-0.230	-0.490	1.820
2020/01/31 01:16:31.9	98.860	-0.210	-0.510	1.860
2020/01/31 01:16:32.0	98.840	-0.190	-0.530	1.900
2020/01/31 01:16:32.1	98.830	-0.170	-0.550	1.950
2020/01/31 01:16:32.2	98.820	-0.150	-0.570	1.990
2020/01/31 01:16:32.3	98.800	-0.130	-0.580	2.030
2020/01/31 01:16:32.4	98.790	-0.110	-0.590	2.070
2020/01/31 01:16:32.5	98.780	-0.090	-0.600	2.110
2020/01/31 01:16:32.6	98.760	-0.060	-0.610	2.150
2020/01/31 01:16:32.7	98.750	-0.040	-0.610	2.190
2020/01/31 01:16:32.8	98.730	-0.020	-0.610	2.220
2020/01/31 01:16:32.9	98.720	-0.000	-0.610	2.250
2020/01/31 01:16:33.0	98.690	0.020	-0.600	2.280
2020/01/31 01:16:33.1	98.680	0.040	-0.590	2.300
2020/01/31 01:16:33.2	98.660	0.050	-0.580	2.320
2020/01/31 01:16:33.3	98.640	0.070	-0.570	2.340
2020/01/31 01:16:33.4	98.620	0.090	-0.550	2.360
2020/01/31 01:16:33.5	98.600	0.110	-0.540	2.370
2020/01/31 01:16:33.6	98.580	0.120	-0.520	2.390
2020/01/31 01:16:33.7	98.560	0.140	-0.490	2.390
2020/01/31 01:16:33.8	98.540	0.150	-0.470	2.400
2020/01/31 01:16:33.9	98.520	0.160	-0.440	2.400
2020/01/31 01:16:34.0	98.490	0.170	-0.410	2.400
2020/01/31 01:16:34.1	98.470	0.180	-0.370	2.390
2020/01/31 01:16:34.2	98.450	0.190	-0.340	2.380
2020/01/31 01:16:34.3	98.420	0.200	-0.310	2.370
2020/01/31 01:16:34.4	98.400	0.200	-0.270	2.350
2020/01/31 01:16:34.5	98.380	0.200	-0.230	2.330
2020/01/31 01:16:34.6	98.350	0.200	-0.190	2.300
2020/01/31 01:16:34.7	98.330	0.200	-0.150	2.280
2020/01/31 01:16:34.8	98.310	0.200	-0.110	2.240
2020/01/31 01:16:34.9	98.290	0.200	-0.070	2.210
2020/01/31 01:16:35.0	98.280	0.190	-0.030	2.160
2020/01/31 01:16:35.1	98.260	0.190	0.010	2.120
2020/01/31 01:16:35.2	98.240	0.180	0.050	2.070
2020/01/31 01:16:35.3	98.220	0.170	0.090	2.020
2020/01/31 01:16:35.4	98.210	0.160	0.130	1.960
2020/01/31 01:16:35.5	98.190	0.140	0.170	1.910
2020/01/31 01:16:35.6	98.170	0.130	0.210	1.850
2020/01/31 01:16:35.7	98.150	0.120	0.240	1.790
2020/01/31 01:16:35.8	98.140	0.100	0.280	1.720
2020/01/31 01:16:35.9	98.120	0.080	0.310	1.650
2020/01/31 01:16:36.0	98.100	0.070	0.340	1.580
2020/01/31 01:16:36.1	98.090	0.050	0.370	1.510
2020/01/31 01:16:36.2	98.080	0.030	0.400	1.440
2020/01/31 01:16:36.3	98.070	0.020	0.420	1.370
2020/01/31 01:16:36.4	98.060	0.000	0.430	1.290
2020/01/31 01:16:36.5	98.050	-0.020	0.450	1.220
2020/01/31 01:16:36.6	98.040	-0.030	0.460	1.140
2020/01/31 01:16:36.7	98.030	-0.050	0.460	1.060
2020/01/31 01:16:36.8	98.030	-0.060	0.460	0.980
2020/01/31 01:16:36.9	98.030	-0.070	0.460	0.900
2020/01/31 01:16:37.0	98.050	-0.080	0.450	0.820
2020/01/31 01:16:37.1	98.050	-0.090	0.430	0.740
2020/01/31 01:16:37.2	98.050	-0.100	0.420	0.660
2020/01/31 01:16:37.3	98.060	-0.100	0.390	0.580
2020/01/31 01:16:37.4	98.060	-0.110	0.360	0.490
2020/01/31 01:16:37.5	98.070	-0.110	0.330	0.410
2020/01/31 01:16:37.6	98.080	-0.110	0.290	0.330
2020/01/31 01:16:37.7	98.090	-0.110	0.240	0.250
2020/01/31 01:16:37.8	98.100	-0.100	0.200	0.170
2020/01/31 01:16:37.9	98.120	-0.100	0.140	0.090
2020/01/31 01:16:38.0	98.140	-0.090	0.090	0.020
2020/01/31 01:16:38.1	98.150	-0.080	0.030	-0.050
2020/01/31 01:16:38.2	98.170	-0.070	-0.030	-0.120
2020/01/31 01:16:38.3	98.190	-0.060	-0.100	-0.190
2020/01/31 01:16:38.4	98.210	-0.040	-0.160	-0.250
2020/01/31 01:16:38.5	98.220	-0.020	-0.230	-0.320
2020/01/31 01:16:38.6	98.240	-0.010	-0.300	-0.370
2020/01/31 01:16:38.7	98.260	0.010	-0.370	-0.430
2020/01/31 01:16:38.8	98.280	0.030	-0.440	-0.480
2020/01/31 01:16:38.9	98.300	0.050	-0.500	-0.520
2020/01/31 01:16:39.0	98.310	0.060	-0.570	-0.560
2020/01/31 01:16:39.1	98.330	0.080	-0.630	-0.590
2020/01/31 01:16:39.2	98.340	0.100	-0.690	-0.620
2020/01/31 01:16:39.3	98.360	0.120	-0.740	-0.650
2020/01/31 01:16:39.4	98.380	0.130	-0.790	-0.660
2020/01/31 01:16:39.5	98.390	0.150	-0.840	-0.670
2020/01/31 01:16:39.6	98.410	0.160	-0.880	-0.680
2020/01/31 01:16:39.7	98.420	0.170	-0.910	-0.680
2020/01/31 01:16:39.8	98.430	0.180	-0.940	-0.670
2020/01/31 01:16:39.9	98.440	0.190	-0.950	-0.660
2020/01/31 01:16:40.0	98.470	0.190	-0.970	-0.640
2020/01/31 01:16:40.1	98.480	0.190	-0.970	-0.620
2020/01/31 01:16:40.2	98.490	0.190	-0.970	-0.580
2020/01/31 01:16:40.3	98.500	0.180	-0.950	-0.550
2020/01/31 01:16:40.4	98.510	0.180	-0.930	-0.500
2020/01/31 01:16:40.5	98.510	0.160	-0.900	-0.460
2020/01/31 01:16:40.6	98.520	0.150	-0.860	-0.400
2020/01/31 01:16:40.7	98.520	0.130	-0.810	-0.340
2020/01/31 01:16:40.8	98.530	0.110	-0.760	-0.280
2020/01/31 01:16:40.9	98.530	0.090	-0.700	-0.210
2020/01/31 01:16:41.0	98.550	0.070	-0.630	-0.130
2020/01/31 01:16:41.1	98.550	0.040	-0.560	-0.050
2020/01/31 01:16:41.2	98.550	0.010	-0.490	0.030
2020/01/31 01:16:41.3	98.550	-0.020	-0.410	0.120
2020/01/31 01:16:41.4	98.540	-0.050	-0.320	0.210
2020/01/31 01:16:41.5	98.540	-0.090	-0.240	0.310
2020/01/31 01:16:41.6	98.540	-0.120	-0.150	0.400
2020/01/31 01:16:41.7	98.530	-0.160	-0.070	0.500
2020/01/31 01:16:41.8	98.520	-0.190	0.020	0.600
2020/01/31 01:16:41.9	98.520	-0.230	0.100	0.700
2020/01/31 01:16:42.0	98.510	-0.260	0.190	0.810
2020/01/31 01:16:42.1	98.500	-0.300	0.260	0.910
2020/01/31 01:16:42.2	98.490	-0.330	0.340	1.020
2020/01/31 01:16:42.3	98.480	-0.360	0.410	1.120
2020/01/31 01:16:42.4	98.460	-0.390	0.480	1.230
2020/01/31 01:16:42.5	98.450	-0.420	0.540	1.330
2020/01/31 01:16:42.6	98.430	-0.440	0.590	1.440
2020/01/31 01:16:42.7	98.420	-0.470	0.640	1.540
2020/01/31 01:16:42.8	98.400	-0.490	0.680	1.640
2020/01/31 01:16:42.9	98.390	-0.500	0.710	1.740
2020/01/31 01:16:43.0	98.370	-0.510	0.740	1.830
2020/01/31 01:16:43.1	98.350	-0.520	0.760	1.930
2020/01/31 01:16:43.2	98.330	-0.530	0.770	2.020
2020/01/31 01:16:43.3	98.310	-0.530	0.770	2.100
2020/01/31 01:16:43.4	98.290	-0.530	0.770	2.190
2020/01/31 01:16:43.5	98.280	-0.520	0.760	2.270
2020/01/31 01:16:43.6	98.260	-0.510	0.740	2.350
2020/01/31 01:16:43.7	98.240	-0.500	0.710	2.420
2020/01/31 01:16:43.8	98.220	-0.480	0.680	2.490
2020/01/31 01:16:43.9	98.210	-0.460	0.640	2.560
2020/01/31 01:16:44.0	98.190	-0.440	0.590	2.620
2020/01/31 01:16:44.1	98.170	-0.410	0.540	2.680
2020/01/31 01:16:44.2	98.160	-0.380	0.490	2.730
2020/01/31 01:16:44.3	98.140	-0.350	0.430	2.780
2020/01/31 01:16:44.4	98.130	-0.310	0.360	2.830
2020/01/31 01:16:44.5	98.120	-0.280	0.290	2.870
2020/01/31 01:16:44.6	98.100	-0.240	0.220	2.910
2020/01/31 01:16:44.7	98.090	-0.200	0.140	2.950
2020/01/31 01:16:44.8	98.080	-0.160	0.070	2.980
2020/01/31 01:16:44.9	98.070	-0.110	-0.010	3.010
2020/01/31 01:16:45.0	98.050	-0.070	-0.100	3.030
2020/01/31 01:16:45.1	98.040	-0.030	-0.180	3.050
2020/01/31 01:16:45.2	98.030	0.010	-0.260	3.070
2020/01/31 01:16:45.3	98.020	0.060	-0.340	3.080
2020/01/31 01:16:45.4	98.010	0.100	-0.410	3.100
2020/01/31 01:16:45.5	98.000	0.140	-0.490	3.110
2020/01/31 01:16:45.6	97.990	0.180	-0.560	3.110
2020/01/31 01:16:45.7	97.980	0.220	-0.640	3.110
2020/01/31 01:16:45.8	97.970	0.250	-0.700	3.110
2020/01/31 01:16:45.9	97.960	0.290	-0.760	3.110
2020/01/31 01:16:46.0	97.950	0.320	-0.820	3.100
2020/01/31 01:16:46.1	97.940	0.350	-0.870	3.090
2020/01/31 01:16:46.2	97.930	0.380	-0.920	3.070
2020/01/31 01:16:46.3	97.920	0.400	-0.960	3.060
2020/01/31 01:16:46.4	97.920	0.420	-1.000	3.030
2020/01/31 01:16:46.5	97.910	0.440	-1.020	3.010
2020/01/31 01:16:46.6	97.910	0.460	-1.040	2.970
2020/01/31 01:16:46.7	97.900	0.470	-1.060	2.940
2020/01/31 01:16:46.8	97.900	0.480	-1.060	2.900
2020/01/31 01:16:46.9	97.900	0.480	-1.060	2.850
2020/01/31 01:16:47.0	97.900	0.490	-1.050	2.810
2020/01/31 01:16:47.1	97.900	0.490	-1.040	2.750
2020/01/31 01:16:47.2	97.900	0.490	-1.010	2.690
2020/01/31 01:16:47.3	97.900	0.480	-0.980	2.630
2020/01/31 01:16:47.4	97.910	0.470	-0.950	2.560
2020/01/31 01:16:47.5	97.910	0.460	-0.900	2.490
2020/01/31 01:16:47.6	97.920	0.450	-0.860	2.420
2020/01/31 01:16:47.7	97.930	0.430	-0.800	2.340
2020/01/31 01:16:47.8	97.940	0.410	-0.750	2.250
2020/01/31 01:16:47.9	97.950	0.400	-0.690	2.170
2020/01/31 01:16:48.0	97.950	0.370	-0.620	2.080
2020/01/31 01:16:48.1	97.960	0.350	-0.550	1.980
2020/01/31 01:16:48.2	97.970	0.330	-0.480	1.890
2020/01/31 01:16:48.3	97.980	0.310	-0.410	1.790
2020/01/31 01:16:48.4	97.990	0.280	-0.340	1.690
2020/01/31 01:16:48.5	98.000	0.260	-0.270	1.590
2020/01/31 01:16:48.6	98.010	0.230	-0.200	1.490
2020/01/31 01:16:48.7	98.020	0.210	-0.130	1.380
2020/01/31 01:16:48.8	98.030	0.180	-0.060	1.280
2020/01/31 01:16:48.9	98.040	0.160	0.000	1.180
2020/01/31 01:16:49.0	98.050	0.130	0.070	1.070
2020/01/31 01:16:49.1	98.050	0.110	0.120	0.980
2020/01/31 01:16:49.2	98.060	0.090	0.180	0.880
2020/01/31 01:16:49.3	98.060	0.070	0.230	0.780
2020/01/31 01:16:49.4	98.070	0.050	0.270	0.690
2020/01/31 01:16:49.5	98.070	0.040	0.310	0.600
2020/01/31 01:16:49.6	98.070	0.020	0.340	0.520
2020/01/31 01:16:49.7	98.070	0.010	0.370	0.440
2020/01/31 01:16:49.8	98.070	-0.010	0.390	0.360
2020/01/31 01:16:49.9	98.070	-0.020	0.410	0.290
2020/01/31 01:16:50.0	98.080	-0.030	0.420	0.220
2020/01/31 01:16:50.1	98.080	-0.040	0.430	0.150
2020/01/31 01:16:50.2	98.070	-0.040	0.440	0.090
2020/01/31 01:16:50.3	98.070	-0.050	0.430	0.030
2020/01/31 01:16:50.4	98.070	-0.050	0.430	-0.020
2020/01/31 01:16:50.5	98.070	-0.060	0.420	-0.080
2020/01/31 01:16:50.6	98.070	-0.060	0.400	-0.120
2020/01/31 01:16:50.7	98.060	-0.060	0.380	-0.170
2020/01/31 01:16:50.8	98.060	-0.060	0.360	-0.210
2020/01/31 01:16:50.9	98.060	-0.060	0.330	-0.250
2020/01/31 01:16:51.0	98.060	-0.060	0.300	-0.280
2020/01/31 01:16:51.1	98.060	-0.060	0.270	-0.310
2020/01/31 01:16:51.2	98.060	-0.070	0.240	-0.340
2020/01/31 01:16:51.3	98.060	-0.070	0.210	-0.370
2020/01/31 01:16:51.4	98.060	-0.070	0.170	-0.390
2020/01/31 01:16:51.5	98.060	-0.070	0.130	-0.410
2020/01/31 01:16:51.6	98.060	-0.070	0.100	-0.430
2020/01/31 01:16:51.7	98.060	-0.080	0.060	-0.440
2020/01/31 01:16:51.8	98.060	-0.080	0.020	-0.450
2020/01/31 01:16:51.9	98.060	-0.090	-0.020	-0.460
2020/01/31 01:16:52.0	98.060	-0.090	-0.060	-0.470
2020/01/31 01:16:52.1	98.060	-0.100	-0.090	-0.470
2020/01/31 01:16:52.2	98.060	-0.100	-0.130	-0.470
2020/01/31 01:16:52.3	98.060	-0.110	-0.160	-0.470
2020/01/31 01:16:52.4	98.060	-0.120	-0.190	-0.460
2020/01/31 01:16:52.5	98.060	-0.130	-0.220	-0.450
2020/01/31 01:16:52.6	98.060	-0.140	-0.240	-0.440
2020/01/31 01:16:52.7	98.060	-0.150	-0.270	-0.420
2020/01/31 01:16:52.8	98.060	-0.160	-0.290	-0.400
2020/01/31 01:16:52.9	98.060	-0.180	-0.300	-0.380
2020/01/31 01:16:53.0	98.070	-0.190	-0.320	-0.350
2020/01/31 01:16:53.1	98.070	-0.200	-0.330	-0.320
2020/01/31 01:16:53.2	98.060	-0.210	-0.330	-0.290
2020/01/31 01:16:53.3	98.060	-0.230	-0.340	-0.250
2020/01/31 01:16:53.4	98.050	-0.240	-0.340	-0.210
2020/01/31 01:16:53.5	98.050	-0.250	-0.340	-0.170
2020/01/31 01:16:53.6	98.040	-0.260	-0.330	-0.120
2020/01/31 01:16:53.7	98.040	-0.270	-0.330	-0.080
2020/01/31 01:16:53.8	98.030	-0.280	-0.310	-0.030
2020/01/31 01:16:53.9	98.020	-0.290	-0.300	0.030
2020/01/31 01:16:54.0	98.030	-0.300	-0.290	0.090
2020/01/31 01:16:54.1	98.020	-0.310	-0.270	0.140
2020/01/31 01:16:54.2	98.010	-0.320	-0.250	0.200
2020/01/31 01:16:54.3	98.000	-0.320	-0.230	0.260
2020/01/31 01:16:54.4	97.990	-0.320	-0.210	0.330
2020/01/31 01:16:54.5	97.970	-0.330	-0.190	0.390
2020/01/31 01:16:54.6	97.960	-0.330	-0.170	0.460
2020/01/31 01:16:54.7	97.950	-0.330	-0.150	0.520
2020/01/31 01:16:54.8	97.930	-0.330	-0.130	0.590
2020/01/31 01:16:54.9	97.920	-0.320	-0.110	0.660
2020/01/31 01:16:55.0	97.910	-0.320	-0.090	0.720
2020/01/31 01:16:55.1	97.900	-0.310	-0.070	0.790
2020/01/31 01:16:55.2	97.880	-0.300	-0.050	0.860
2020/01/31 01:16:55.3	97.870	-0.290	-0.040	0.920
2020/01/31 01:16:55.4	97.860	-0.280	-0.030	0.990
2020/01/31 01:16:55.5	97.850	-0.270	-0.020	1.050
2020/01/31 01:16:55.6	97.840	-0.260	-0.010	1.110
2020/01/31 01:16:55.7	97.830	-0.240	-0.010	1.170
2020/01/31 01:16:55.8	97.820	-0.230	-0.010	1.230
2020/01/31 01:16:55.9	97.820	-0.210	-0.010	1.280
2020/01/31 01:16:56.0	97.820	-0.190	-0.010	1.340
2020/01/31 01:16:56.1	97.810	-0.170	-0.020	1.390
2020/01/31 01:16:56.2	97.810	-0.150	-0.030	1.440
2020/01/31 01:16:56.3	97.810	-0.130	-0.040	1.490
2020/01/31 01:16:56.4	97.810	-0.110	-0.050	1.540
2020/01/31 01:16:56.5	97.810	-0.090	-0.070	1.590
2020/01/31 01:16:56.6	97.810	-0.070	-0.090	1.640
2020/01/31 01:16:56.7	97.810	-0.050	-0.110	1.680
2020/01/31 01:16:56.8	97.820	-0.030	-0.130	1.720
2020/01/31 01:16:56.9	97.820	-0.010	-0.150	1.770
2020/01/31 01:16:57.0	97.820	0.000	-0.170	1.810
2020/01/31 01:16:57.1	97.830	0.020	-0.200	1.850
2020/01/31 01:16:57.2	97.830	0.040	-0.220	1.890
2020/01/31 01:16:57.3	97.840	0.060	-0.250	1.930
2020/01/31 01:16:57.4	97.850	0.070	-0.270	1.960
2020/01/31 01:16:57.5	97.860	0.090	-0.290	2.000
2020/01/31 01:16:57.6	97.870	0.100	-0.310	2.030
2020/01/31 01:16:57.7	97.880	0.110	-0.340	2.070
2020/01/31 01:16:57.8	97.890	0.120	-0.360	2.100
2020/01/31 01:16:57.9	97.890	0.130	-0.370	2.130
2020/01/31 01:16:58.0	97.900	0.140	-0.390	2.160
2020/01/31 01:16:58.1	97.900	0.150	-0.410	2.190
2020/01/31 01:16:58.2	97.910	0.160	-0.420	2.220
2020/01/31 01:16:58.3	97.920	0.160	-0.430	2.240
2020/01/31 01:16:58.4	97.930	0.170	-0.450	2.260
2020/01/31 01:16:58.5	97.940	0.170	-0.450	2.280
2020/01/31 01:16:58.6	97.950	0.170	-0.460	2.300
2020/01/31 01:16:58.7	97.960	0.170	-0.470	2.320
2020/01/31 01:16:58.8	97.960	0.170	-0.470	2.330
2020/01/31 01:16:58.9	97.970	0.170	-0.470	2.340
2020/01/31 01:16:59.0	97.970	0.170	-0.460	2.350
2020/01/31 01:16:59.1	97.980	0.170	-0.460	2.360
2020/01/31 01:16:59.2	97.980	0.160	-0.450	2.360
2020/01/31 01:16:59.3	97.990	0.160	-0.440	2.360
2020/01/31 01:16:59.4	97.990	0.160	-0.420	2.360
2020/01/31 01:16:59.5	98.000	0.150	-0.400	2.350
2020/01/31 01:16:59.6	98.000	0.150	-0.380	2.350
2020/01/31 01:16:59.7	98.010	0.140	-0.360	2.340
2020/01/31 01:16:59.8	98.010	0.140	-0.340	2.320
2020/01/31 01:16:59.9	98.010	0.130	-0.310	2.310
2020/01/31 01:17:00.0	98.010	0.130	-0.280	2.290
2020/01/31 01:17:00.1	98.010	0.130	-0.250	2.270
2020/01/31 01:17:00.2	98.010	0.120	-0.220	2.240
2020/01/31 01:17:00.3	98.010	0.120	-0.180	2.220
2020/01/31 01:17:00.4	98.010	0.110	-0.150	2.190
2020/01/31 01:17:00.5	98.000	0.110	-0.110	2.160
2020/01/31 01:17:00.6	98.000	0.110	-0.070	2.130
2020/01/31 01:17:00.7	98.000	0.100	-0.040	2.090
2020/01/31 01:17:00.8	97.990	0.100	-0.000	2.050
2020/01/31 01:17:00.9	97.990	0.100	0.030	2.010
2020/01/31 01:17:01.0	97.970	0.090	0.070	1.970
2020/01/31 01:17:01.1	97.960	0.090	0.110	1.930
2020/01/31 01:17:01.2	97.950	0.090	0.140	1.880
2020/01/31 01:17:01.3	97.940	0.090	0.170	1.840
2020/01/31 01:17:01.4	97.930	0.090	0.190	1.790
2020/01/31 01:17:01.5	97.920	0.090	0.210	1.740
2020/01/31 01:17:01.6	97.910	0.090	0.230	1.690
2020/01/31 01:17:01.7	97.900	0.090	0.250	1.640
2020/01/31 01:17:01.8	97.880	0.080	0.260	1.590
2020/01/31 01:17:01.9	97.870	0.090	0.270	1.540
2020/01/31 01:17:02.0	97.850	0.090	0.270	1.480
2020/01/31 01:17:02.1	97.830	0.090	0.270	1.430
2020/01/31 01:17:02.2	97.820	0.090	0.270	1.380
2020/01/31 01:17:02.3	97.800	0.090	0.270	1.330
2020/01/31 01:17:02.4	97.790	0.090	0.250	1.270
2020/01/31 01:17:02.5	97.770	0.090	0.240	1.220
2020/01/31 01:17:02.6	97.760	0.090	0.220	1.170
2020/01/31 01:17:02.7	97.750	0.090	0.200	1.120
2020/01/31 01:17:02.8	97.740	0.100	0.170	1.060
2020/01/31 01:17:02.9	97.730	0.100	0.140	1.010
2020/01/31 01:17:03.0	97.730	0.100	0.110	0.960
2020/01/31 01:17:03.1	97.720	0.100	0.080	0.910
2020/01/31 01:17:03.2	97.710	0.100	0.040	0.850
2020/01/31 01:17:03.3	97.710	0.110	0.010	0.800
2020/01/31 01:17:03.4	97.710	0.110	-0.040	0.750
2020/01/31 01:17:03.5	97.700	0.110	-0.080	0.690
2020/01/31 01:17:03.6	97.700	0.110	-0.120	0.640
2020/01/31 01:17:03.7	97.710	0.120	-0.160	0.580
2020/01/31 01:17:03.8	97.710	0.120	-0.210	0.530
2020/01/31 01:17:03.9	97.710	0.120	-0.250	0.480
2020/01/31 01:17:04.0	97.710	0.120	-0.290	0.420
2020/01/31 01:17:04.1	97.710	0.130	-0.340	0.370
2020/01/31 01:17:04.2	97.720	0.130	-0.380	0.320
2020/01/31 01:17:04.3	97.720	0.130	-0.420	0.270
2020/01/31 01:17:04.4	97.730	0.130	-0.460	0.220
2020/01/31 01:17:04.5	97.730	0.140	-0.490	0.170
2020/01/31 01:17:04.6	97.740	0.140	-0.530	0.120
2020/01/31 01:17:04.7	97.740	0.140	-0.560	0.080
2020/01/31 01:17:04.8	97.750	0.140	-0.580	0.030
2020/01/31 01:17:04.9	97.750	0.140	-0.610	-0.010
2020/01/31 01:17:05.0	97.780	0.140	-0.630	-0.050
2020/01/31 01:17:05.1	97.780	0.140	-0.650	-0.080
2020/01/31 01:17:05.2	97.780	0.140	-0.660	-0.110
2020/01/31 01:17:05.3	97.780	0.140	-0.670	-0.140
2020/01/31 01:17:05.4	97.780	0.140	-0.680	-0.160
2020/01/31 01:17:05.5	97.780	0.140	-0.680	-0.180
2020/01/31 01:17:05.6	97.780	0.140	-0.670	-0.200
2020/01/31 01:17:05.7	97.780	0.140	-0.670	-0.210
2020/01/31 01:17:05.8	97.780	0.130	-0.650	-0.230
2020/01/31 01:17:05.9	97.780	0.130	-0.640	-0.230
2020/01/31 01:17:06.0	97.780	0.130	-0.620	-0.230
2020/01/31 01:17:06.1	97.780	0.120	-0.600	-0.230
2020/01/31 01:17:06.2	97.780	0.120	-0.570	-0.230
2020/01/31 01:17:06.3	97.790	0.110	-0.540	-0.230
2020/01/31 01:17:06.4	97.790	0.110	-0.510	-0.220
2020/01/31 01:17:06.5	97.790	0.100	-0.470	-0.200
2020/01/31 01:17:06.6	97.790	0.090	-0.430	-0.190
2020/01/31 01:17:06.7	97.800	0.080	-0.390	-0.170
2020/01/31 01:17:06.8	97.810	0.080	-0.340	-0.150
2020/01/31 01:17:06.9	97.810	0.070	-0.300	-0.130
2020/01/31 01:17:07.0	97.820	0.060	-0.250	-0.110
2020/01/31 01:17:07.1	97.830	0.050	-0.210	-0.080
2020/01/31 01:17:07.2	97.840	0.040	-0.160	-0.050
2020/01/31 01:17:07.3	97.840	0.030	-0.110	-0.010
2020/01/31 01:17:07.4	97.850	0.010	-0.060	0.020
2020/01/31 01:17:07.5	97.860	0.000	-0.020	0.060
2020/01/31 01:17:07.6	97.860	-0.010	0.030	0.100
2020/01/31 01:17:07.7	97.870	-0.020	0.080	0.150
2020/01/31 01:17:07.8	97.880	-0.030	0.120	0.190
2020/01/31 01:17:07.9	97.880	-0.040	0.160	0.240
2020/01/31 01:17:08.0	97.880	-0.060	0.200	0.300
2020/01/31 01:17:08.1	97.890	-0.070	0.230	0.350
2020/01/31 01:17:08.2	97.890	-0.080	0.270	0.410
2020/01/31 01:17:08.3	97.890	-0.090	0.300	0.470
2020/01/31 01:17:08.4	97.900	-0.100	0.320	0.520
2020/01/31 01:17:08.5	97.900	-0.110	0.350	0.590
2020/01/31 01:17:08.6	97.900	-0.120	0.370	0.650
2020/01/31 01:17:08.7	97.900	-0.130	0.380	0.710
2020/01/31 01:17:08.8	97.900	-0.140	0.400	0.770
2020/01/31 01:17:08.9	97.910	-0.140	0.400	0.840
2020/01/31 01:17:09.0	97.900	-0.150	0.410	0.910
2020/01/31 01:17:09.1	97.900	-0.160	0.410	0.970
2020/01/31 01:17:09.2	97.910	-0.160	0.410	1.040
2020/01/31 01:17:09.3	97.910	-0.170	0.400	1.100
2020/01/31 01:17:09.4	97.910	-0.170	0.390	1.160
2020/01/31 01:17:09.5	97.910	-0.170	0.380	1.220
2020/01/31 01:17:09.6	97.920	-0.180	0.360	1.280
2020/01/31 01:17:09.7	97.920	-0.180	0.340	1.340
2020/01/31 01:17:09.8	97.920	-0.180	0.320	1.400
2020/01/31 01:17:09.9	97.930	-0.180	0.300	1.460
2020/01/31 01:17:10.0	97.920	-0.180	0.270	1.510
2020/01/31 01:17:10.1	97.930	-0.180	0.240	1.560
2020/01/31 01:17:10.2	97.930	-0.180	0.210	1.600
2020/01/31 01:17:10.3	97.940	-0.180	0.180	1.650
2020/01/31 01:17:10.4	97.940	-0.180	0.140	1.690
2020/01/31 01:17:10.5	97.950	-0.180	0.110	1.730
2020/01/31 01:17:10.6	97.950	-0.180	0.070	1.770
2020/01/31 01:17:10.7	97.960	-0.180	0.030	1.800
2020/01/31 01:17:10.8	97.960	-0.180	-0.000	1.830
2020/01/31 01:17:10.9	97.970	-0.170	-0.040	1.860
2020/01/31 01:17:11.0	97.970	-0.170	-0.080	1.890
2020/01/31 01:17:11.1	97.970	-0.170	-0.120	1.910
2020/01/31 01:17:11.2	97.980	-0.170	-0.150	1.940
2020/01/31 01:17:11.3	97.980	-0.160	-0.190	1.960
2020/01/31 01:17:11.4	97.980	-0.160	-0.220	1.980
2020/01/31 01:17:11.5	97.980	-0.160	-0.260	1.990
2020/01/31 01:17:11.6	97.970	-0.150	-0.290	2.010
2020/01/31 01:17:11.7	97.970	-0.150	-0.320	2.020
2020/01/31 01:17:11.8	97.970	-0.140	-0.350	2.040
2020/01/31 01:17:11.9	97.960	-0.140	-0.380	2.050
2020/01/31 01:17:12.0	97.950	-0.140	-0.400	2.060
2020/01/31 01:17:12.1	97.950	-0.130	-0.420	2.070
2020/01/31 01:17:12.2	97.940	-0.130	-0.450	2.080
2020/01/31 01:17:12.3	97.940	-0.120	-0.460	2.080
2020/01/31 01:17:12.4	97.930	-0.120	-0.480	2.080
2020/01/31 01:17:12.5	97.930	-0.110	-0.500	2.080
2020/01/31 01:17:12.6	97.920	-0.110	-0.510	2.080
2020/01/31 01:17:12.7	97.920	-0.110	-0.510	2.080
2020/01/31 01:17:12.8	97.920	-0.100	-0.520	2.080
2020/01/31 01:17:12.9	97.920	-0.100	-0.520	2.070
2020/01/31 01:17:13.0	97.910	-0.090	-0.530	2.060
2020/01/31 01:17:13.1	97.910	-0.090	-0.530	2.050
2020/01/31 01:17:13.2	97.910	-0.090	-0.520	2.040
2020/01/31 01:17:13.3	97.910	-0.080	-0.510	2.020
2020/01/31 01:17:13.4	97.910	-0.080	-0.510	2.010
2020/01/31 01:17:13.5	97.910	-0.080	-0.490	1.990
2020/01/31 01:17:13.6	97.910	-0.070	-0.480	1.980
2020/01/31 01:17:13.7	97.920	-0.070	-0.470	1.960
2020/01/31 01:17:13.8	97.920	-0.070	-0.450	1.940
2020/01/31 01:17:13.9	97.920	-0.070	-0.430	1.920
2020/01/31 01:17:14.0	97.920	-0.060	-0.410	1.890
2020/01/31 01:17:14.1	97.930	-0.060	-0.390	1.870
2020/01/31 01:17:14.2	97.930	-0.060	-0.370	1.850
2020/01/31 01:17:14.3	97.940	-0.060	-0.350	1.820
2020/01/31 01:17:14.4	97.950	-0.050	-0.330	1.790
2020/01/31 01:17:14.5	97.950	-0.050	-0.310	1.770
2020/01/31 01:17:14.6	97.960	-0.050	-0.290	1.740
2020/01/31 01:17:14.7	97.970	-0.040	-0.270	1.710
2020/01/31 01:17:14.8	97.970	-0.040	-0.260	1.680
2020/01/31 01:17:14.9	97.980	-0.040	-0.240	1.650
2020/01/31 01:17:15.0	98.000	-0.030	-0.230	1.620
2020/01/31 01:17:15.1	98.000	-0.030	-0.210	1.590
2020/01/31 01:17:15.2	98.010	-0.020	-0.200	1.560
2020/01/31 01:17:15.3	98.010	-0.020	-0.190	1.520
2020/01/31 01:17:15.4	98.020	-0.010	-0.190	1.490
2020/01/31 01:17:15.5	98.020	-0.010	-0.180	1.460
2020/01/31 01:17:15.6	98.020	0.000	-0.180	1.420
2020/01/31 01:17:15.7	98.020	0.010	-0.180	1.390
2020/01/31 01:17:15.8	98.020	0.020	-0.180	1.350
2020/01/31 01:17:15.9	98.020	0.020	-0.180	1.320
2020/01/31 01:17:16.0	98.030	0.030	-0.180	1.280
2020/01/31 01:17:16.1	98.030	0.040	-0.180	1.250
2020/01/31 01:17:16.2	98.030	0.050	-0.190	1.210
2020/01/31 01:17:16.3	98.020	0.060	-0.190	1.170
2020/01/31 01:17:16.4	98.020	0.070	-0.200	1.130
2020/01/31 01:17:16.5	98.020	0.080	-0.210	1.090
2020/01/31 01:17:16.6	98.010	0.090	-0.210	1.040
2020/01/31 01:17:16.7	98.000	0.090	-0.220	1.000
2020/01/31 01:17:16.8	98.000	0.100	-0.230	0.960
2020/01/31 01:17:16.9	97.990	0.110	-0.230	0.910
2020/01/31 01:17:17.0	98.000	0.120	-0.240	0.870
2020/01/31 01:17:17.1	98.000	0.130	-0.240	0.820
2020/01/31 01:17:17.2	97.990	0.130	-0.240	0.770
2020/01/31 01:17:17.3	97.990	0.140	-0.250	0.720
2020/01/31 01:17:17.4	97.990	0.150	-0.240	0.680
2020/01/31 01:17:17.5	97.980	0.150	-0.240	0.630
2020/01/31 01:17:17.6	97.980	0.160	-0.240	0.580
2020/01/31 01:17:17.7	97.980	0.160	-0.230	0.530
2020/01/31 01:17:17.8	97.980	0.170	-0.220	0.480
2020/01/31 01:17:17.9	97.980	0.170	-0.210	0.430
2020/01/31 01:17:18.0	97.980	0.170	-0.200	0.390
2020/01/31 01:17:18.1	97.980	0.170	-0.190	0.340
2020/01/31 01:17:18.2	97.980	0.170	-0.170	0.300
2020/01/31 01:17:18.3	97.980	0.180	-0.160	0.260
2020/01/31 01:17:18.4	97.980	0.180	-0.140	0.210
2020/01/31 01:17:18.5	97.980	0.180	-0.120	0.170
2020/01/31 01:17:18.6	97.980	0.180	-0.100	0.140
2020/01/31 01:17:18.7	97.980	0.180	-0.080	0.100
2020/01/31 01:17:18.8	97.980	0.180	-0.050	0.070
2020/01/31 01:17:18.9	97.980	0.180	-0.030	0.040
2020/01/31 01:17:19.0	97.980	0.180	-0.010	0.010
2020/01/31 01:17:19.1	97.980	0.170	0.010	-0.010
2020/01/31 01:17:19.2	97.980	0.170	0.030	-0.030
2020/01/31 01:17:19.3	97.980	0.170	0.050	-0.050
2020/01/31 01:17:19.4	97.980	0.170	0.070	-0.070
2020/01/31 01:17:19.5	97.980	0.170	0.090	-0.090
2020/01/31 01:17:19.6	97.980	0.170	0.100	-0.100
2020/01/31 01:17:19.7	97.980	0.170	0.110	-0.110
2020/01/31 01:17:19.8	97.980	0.170	0.130	-0.120
2020/01/31 01:17:19.9	97.980	0.170	0.130	-0.130
2020/01/31 01:17:20.0	97.990	0.170	0.140	-0.130
2020/01/31 01:17:20.1	97.990	0.170	0.150	-0.130
2020/01/31 01:17:20.2	97.990	0.170	0.150	-0.130
2020/01/31 01:17:20.3	97.990	0.170	0.150	-0.130
2020/01/31 01:17:20.4	97.990	0.170	0.150	-0.130
2020/01/31 01:17:20.5	97.990	0.170	0.140	-0.130
2020/01/31 01:17:20.6	98.000	0.170	0.140	-0.120
2020/01/31 01:17:20.7	98.000	0.170	0.130	-0.110
2020/01/31 01:17:20.8	98.000	0.170	0.110	-0.100
2020/01/31 01:17:20.9	98.000	0.170	0.100	-0.090
2020/01/31 01:17:21.0	98.020	0.170	0.080	-0.080
2020/01/31 01:17:21.1	98.030	0.170	0.060	-0.060
2020/01/31 01:17:21.2	98.030	0.170	0.040	-0.040
2020/01/31 01:17:21.3	98.030	0.180	0.020	-0.020
2020/01/31 01:17:21.4	98.030	0.180	0.000	-0.000
2020/01/31 01:17:21.5	98.040	0.180	-0.020	0.020
2020/01/31 01:17:21.6	98.040	0.180	-0.040	0.050
2020/01/31 01:17:21.7	98.040	0.180	-0.060	0.080
2020/01/31 01:17:21.8	98.040	0.180	-0.090	0.110
2020/01/31 01:17:21.9	98.040	0.180	-0.110	0.140
2020/01/31 01:17:22.0	98.040	0.190	-0.130	0.180
2020/01/31 01:17:22.1	98.040	0.190	-0.150	0.220
2020/01/31 01:17:22.2	98.040	0.180	-0.170	0.260
2020/01/31 01:17:22.3	98.040	0.180	-0.190	0.310
2020/01/31 01:17:22.4	98.040	0.180	-0.200	0.350
2020/01/31 01:17:22.5	98.040	0.180	-0.220	0.400
2020/01/31 01:17:22.6	98.040	0.170	-0.230	0.450
2020/01/31 01:17:22.7	98.040	0.170	-0.240	0.500
2020/01/31 01:17:22.8	98.040	0.160	-0.250	0.560
2020/01/31 01:17:22.9	98.040	0.150	-0.260	0.620
2020/01/31 01:17:23.0	98.030	0.140	-0.260	0.680
2020/01/31 01:17:23.1	98.030	0.130	-0.260	0.740
2020/01/31 01:17:23.2	98.030	0.120	-0.260	0.800
2020/01/31 01:17:23.3	98.030	0.110	-0.260	0.860
2020/01/31 01:17:23.4	98.040	0.090	-0.260	0.930
2020/01/31 01:17:23.5	98.040	0.080	-0.250	1.000
2020/01/31 01:17:23.6	98.040	0.060	-0.240	1.060
2020/01/31 01:17:23.7	98.050	0.040	-0.230	1.130
2020/01/31 01:17:23.8	98.050	0.020	-0.220	1.200
2020/01/31 01:17:23.9	98.060	0.000	-0.210	1.270
2020/01/31 01:17:24.0	98.060	-0.020	-0.190	1.340
2020/01/31 01:17:24.1	98.070	-0.040	-0.180	1.400
2020/01/31 01:17:24.2	98.070	-0.060	-0.170	1.470
2020/01/31 01:17:24.3	98.080	-0.080	-0.150	1.540
2020/01/31 01:17:24.4	98.080	-0.100	-0.140	1.610
2020/01/31 01:17:24.5	98.090	-0.130	-0.130	1.670
2020/01/31 01:17:24.6	98.090	-0.150	-0.120	1.730
2020/01/31 01:17:24.7	98.100	-0.170	-0.100	1.800
2020/01/31 01:17:24.8	98.100	-0.190	-0.100	1.860
2020/01/31 01:17:24.9	98.110	-0.200	-0.090	1.910
2020/01/31 01:17:25.0	98.110	-0.220	-0.080	1.970
2020/01/31 01:17:25.1	98.120	-0.240	-0.080	2.030
2020/01/31 01:17:25.2	98.120	-0.250	-0.070	2.080
2020/01/31 01:17:25.3	98.120	-0.260	-0.070	2.130
2020/01/31 01:17:25.4	98.130	-0.270	-0.070	2.170
2020/01/31 01:17:25.5	98.130	-0.280	-0.080	2.220
2020/01/31 01:17:25.6	98.130	-0.290	-0.080	2.260
2020/01/31 01:17:25.7	98.140	-0.300	-0.090	2.290
2020/01/31 01:17:25.8	98.140	-0.300	-0.100	2.330
2020/01/31 01:17:25.9	98.140	-0.300	-0.110	2.360
2020/01/31 01:17:26.0	98.150	-0.300	-0.120	2.390
2020/01/31 01:17:26.1	98.150	-0.300	-0.130	2.410
2020/01/31 01:17:26.2	98.150	-0.300	-0.150	2.440
2020/01/31 01:17:26.3	98.160	-0.290	-0.160	2.460
2020/01/31 01:17:26.4	98.160	-0.290	-0.180	2.480
2020/01/31 01:17:26.5	98.160	-0.280	-0.200	2.500
2020/01/31 01:17:26.6	98.160	-0.270	-0.220	2.510
2020/01/31 01:17:26.7	98.160	-0.260	-0.230	2.520
2020/01/31 01:17:26.8	98.160	-0.250	-0.250	2.540
2020/01/31 01:17:26.9	98.160	-0.240	-0.270	2.550
2020/01/31 01:17:27.0	98.160	-0.230	-0.290	2.560
2020/01/31 01:17:27.1	98.150	-0.220	-0.300	2.560
2020/01/31 01:17:27.2	98.150	-0.210	-0.320	2.570
2020/01/31 01:17:27.3	98.140	-0.200	-0.330	2.570
2020/01/31 01:17:27.4	98.130	-0.180	-0.340	2.580
2020/01/31 01:17:27.5	98.120	-0.180	-0.350	2.580
2020/01/31 01:17:27.6	98.110	-0.170	-0.360	2.580
2020/01/31 01:17:27.7	98.100	-0.160	-0.370	2.590
2020/01/31 01:17:27.8	98.080	-0.150	-0.370	2.590
2020/01/31 01:17:27.9	98.060	-0.150	-0.370	2.590
2020/01/31 01:17:28.0	98.050	-0.140	-0.360	2.580
2020/01/31 01:17:28.1	98.030	-0.140	-0.360	2.580
2020/01/31 01:17:28.2	98.000	-0.140	-0.350	2.570
2020/01/31 01:17:28.3	97.980	-0.140	-0.340	2.560
2020/01/31 01:17:28.4	97.950	-0.140	-0.330	2.550
2020/01/31 01:17:28.5	97.930	-0.140	-0.310	2.540
2020/01/31 01:17:28.6	97.900	-0.150	-0.300	2.520
2020/01/31 01:17:28.7	97.870	-0.150	-0.270	2.500
2020/01/31 01:17:28.8	97.840	-0.160	-0.250	2.480
2020/01/31 01:17:28.9	97.810	-0.170	-0.230	2.450
2020/01/31 01:17:29.0	97.780	-0.180	-0.200	2.420
2020/01/31 01:17:29.1	97.750	-0.190	-0.170	2.380
2020/01/31 01:17:29.2	97.730	-0.200	-0.140	2.340
2020/01/31 01:17:29.3	97.700	-0.210	-0.110	2.290
2020/01/31 01:17:29.4	97.680	-0.230	-0.090	2.240
2020/01/31 01:17:29.5	97.660	-0.240	-0.060	2.180
2020/01/31 01:17:29.6	97.640	-0.250	-0.030	2.110
2020/01/31 01:17:29.7	97.620	-0.260	-0.000	2.040
2020/01/31 01:17:29.8	97.600	-0.270	0.030	1.970
2020/01/31 01:17:29.9	97.590	-0.280	0.050	1.890
2020/01/31 01:17:30.0	97.560	-0.290	0.070	1.800
2020/01/31 01:17:30.1	97.550	-0.290	0.090	1.710
2020/01/31 01:17:30.2	97.540	-0.300	0.100	1.610
2020/01/31 01:17:30.3	97.540	-0.300	0.110	1.510
2020/01/31 01:17:30.4	97.530	-0.300	0.120	1.400
2020/01/31 01:17:30.5	97.530	-0.290	0.120	1.290
2020/01/31 01:17:30.6	97.530	-0.290	0.120	1.180
2020/01/31 01:17:30.7	97.530	-0.270	0.110	1.070
2020/01/31 01:17:30.8	97.540	-0.260	0.090	0.950
2020/01/31 01:17:30.9	97.540	-0.240	0.080	0.840
2020/01/31 01:17:31.0	97.540	-0.220	0.050	0.720
2020/01/31 01:17:31.1	97.550	-0.190	0.030	0.600
2020/01/31 01:17:31.2	97.560	-0.160	-0.010	0.490
2020/01/31 01:17:31.3	97.570	-0.130	-0.050	0.370
2020/01/31 01:17:31.4	97.570	-0.100	-0.090	0.260
2020/01/31 01:17:31.5	97.580	-0.060	-0.130	0.150
2020/01/31 01:17:31.6	97.590	-0.020	-0.180	0.040
2020/01/31 01:17:31.7	97.610	0.030	-0.230	-0.070
2020/01/31 01:17:31.8	97.620	0.080	-0.280	-0.180
2020/01/31 01:17:31.9	97.630	0.120	-0.330	-0.280
2020/01/31 01:17:32.0	97.650	0.170	-0.380	-0.380
2020/01/31 01:17:32.1	97.660	0.220	-0.440	-0.480
2020/01/31 01:17:32.2	97.680	0.270	-0.490	-0.570
2020/01/31 01:17:32.3	97.690	0.320	-0.530	-0.660
2020/01/31 01:17:32.4	97.700	0.370	-0.580	-0.750
2020/01/31 01:17:32.5	97.710	0.420	-0.620	-0.830
2020/01/31 01:17:32.6	97.720	0.470	-0.660	-0.910
2020/01/31 01:17:32.7	97.740	0.510	-0.690	-0.980
2020/01/31 01:17:32.8	97.750	0.550	-0.720	-1.050
2020/01/31 01:17:32.9	97.750	0.590	-0.750	-1.110
2020/01/31 01:17:33.0	97.750	0.620	-0.770	-1.170
2020/01/31 01:17:33.1	97.760	0.650	-0.780	-1.220
2020/01/31 01:17:33.2	97.770	0.680	-0.790	-1.270
2020/01/31 01:17:33.3	97.770	0.700	-0.790	-1.310
2020/01/31 01:17:33.4	97.770	0.720	-0.780	-1.350
2020/01/31 01:17:33.5	97.780	0.730	-0.760	-1.380
2020/01/31 01:17:33.6	97.780	0.740	-0.740	-1.400
2020/01/31 01:17:33.7	97.780	0.740	-0.720	-1.420
2020/01/31 01:17:33.8	97.770	0.740	-0.680	-1.440
2020/01/31 01:17:33.9	97.770	0.730	-0.640	-1.450
2020/01/31 01:17:34.0	97.770	0.720	-0.580	-1.440
2020/01/31 01:17:34.1	97.760	0.700	-0.530	-1.440
2020/01/31 01:17:34.2	97.760	0.670	-0.480	-1.430
2020/01/31 01:17:34.3	97.750	0.650	-0.420	-1.420
2020/01/31 01:17:34.4	97.750	0.620	-0.360	-1.400
2020/01/31 01:17:34.5	97.750	0.580	-0.290	-1.380
2020/01/31 01:17:34.6	97.740	0.540	-0.220	-1.350
2020/01/31 01:17:34.7	97.740	0.500	-0.150	-1.320
2020/01/31 01:17:34.8	97.730	0.450	-0.080	-1.280
2020/01/31 01:17:34.9	97.730	0.400	-0.010	-1.240
2020/01/31 01:17:35.0	97.740	0.350	0.060	-1.190
2020/01/31 01:17:35.1	97.740	0.300	0.140	-1.130
2020/01/31 01:17:35.2	97.740	0.250	0.210	-1.070
2020/01/31 01:17:35.3	97.740	0.200	0.280	-1.010
2020/01/31 01:17:35.4	97.740	0.140	0.350	-0.940
2020/01/31 01:17:35.5	97.740	0.090	0.410	-0.870
2020/01/31 01:17:35.6	97.740	0.030	0.480	-0.790
2020/01/31 01:17:35.7	97.750	-0.020	0.540	-0.710
2020/01/31 01:17:35.8	97.750	-0.070	0.590	-0.620
2020/01/31 01:17:35.9	97.760	-0.120	0.640	-0.530
2020/01/31 01:17:36.0	97.780	-0.170	0.700	-0.430
2020/01/31 01:17:36.1	97.780	-0.220	0.740	-0.330
2020/01/31 01:17:36.2	97.790	-0.260	0.770	-0.230
2020/01/31 01:17:36.3	97.790	-0.310	0.800	-0.130
2020/01/31 01:17:36.4	97.800	-0.340	0.830	-0.020
2020/01/31 01:17:36.5	97.810	-0.380	0.850	0.090
2020/01/31 01:17:36.6	97.810	-0.410	0.860	0.200
2020/01/31 01:17:36.7	97.820	-0.440	0.860	0.310
2020/01/31 01:17:36.8	97.820	-0.470	0.860	0.420
2020/01/31 01:17:36.9	97.830	-0.490	0.860	0.540
2020/01/31 01:17:37.0	97.830	-0.510	0.840	0.660
2020/01/31 01:17:37.1	97.830	-0.520	0.820	0.780
2020/01/31 01:17:37.2	97.830	-0.530	0.800	0.900
2020/01/31 01:17:37.3	97.840	-0.540	0.770	1.020
2020/01/31 01:17:37.4	97.840	-0.550	0.730	1.140
2020/01/31 01:17:37.5	97.840	-0.550	0.690	1.260
2020/01/31 01:17:37.6	97.840	-0.540	0.650	1.380
2020/01/31 01:17:37.7	97.840	-0.540	0.590	1.500
2020/01/31 01:17:37.8	97.830	-0.530	0.540	1.610
2020/01/31 01:17:37.9	97.830	-0.520	0.470	1.730
2020/01/31 01:17:38.0	97.820	-0.500	0.410	1.850
2020/01/31 01:17:38.1	97.810	-0.480	0.330	1.960
2020/01/31 01:17:38.2	97.800	-0.460	0.260	2.070
2020/01/31 01:17:38.3	97.790	-0.440	0.180	2.180
2020/01/31 01:17:38.4	97.780	-0.410	0.100	2.290
2020/01/31 01:17:38.5	97.770	-0.390	0.010	2.390
2020/01/31 01:17:38.6	97.760	-0.360	-0.080	2.490
2020/01/31 01:17:38.7	97.740	-0.330	-0.170	2.590
2020/01/31 01:17:38.8	97.730	-0.290	-0.260	2.680
2020/01/31 01:17:38.9	97.710	-0.260	-0.350	2.770
2020/01/31 01:17:39.0	97.690	-0.230	-0.440	2.860
2020/01/31 01:17:39.1	97.670	-0.190	-0.530	2.940
2020/01/31 01:17:39.2	97.650	-0.160	-0.620	3.020
2020/01/31 01:17:39.3	97.630	-0.120	-0.700	3.090
2020/01/31 01:17:39.4	97.620	-0.090	-0.790	3.160
2020/01/31 01:17:39.5	97.600	-0.050	-0.870	3.230
2020/01/31 01:17:39.6	97.580	-0.020	-0.940	3.290
2020/01/31 01:17:39.7	97.570	0.010	-1.020	3.340
2020/01/31 01:17:39.8	97.550	0.040	-1.080	3.390
2020/01/31 01:17:39.9	97.540	0.070	-1.140	3.430
2020/01/31 01:17:40.0	97.520	0.100	-1.200	3.460
2020/01/31 01:17:40.1	97.510	0.130	-1.240	3.490
2020/01/31 01:17:40.2	97.500	0.150	-1.290	3.510
2020/01/31 01:17:40.3	97.500	0.180	-1.320	3.530
2020/01/31 01:17:40.4	97.490	0.200	-1.340	3.540
2020/01/31 01:17:40.5	97.490	0.220	-1.360	3.550
2020/01/31 01:17:40.6	97.490	0.240	-1.370	3.550
2020/01/31 01:17:40.7	97.490	0.260	-1.380	3.550
2020/01/31 01:17:40.8	97.490	0.270	-1.370	3.540
2020/01/31 01:17:40.9	97.490	0.280	-1.360	3.520
2020/01/31 01:17:41.0	97.500	0.290	-1.330	3.500
2020/01/31 01:17:41.1	97.510	0.300	-1.310	3.470
2020/01/31 01:17:41.2	97.520	0.310	-1.270	3.440
2020/01/31 01:17:41.3	97.530	0.320	-1.230	3.400
2020/01/31 01:17:41.4	97.540	0.320	-1.190	3.360
2020/01/31 01:17:41.5	97.560	0.330	-1.130	3.320
2020/01/31 01:17:41.6	97.570	0.330	-1.070	3.270
2020/01/31 01:17:41.7	97.590	0.330	-1.010	3.220
2020/01/31 01:17:41.8	97.600	0.330	-0.940	3.170
2020/01/31 01:17:41.9	97.620	0.330	-0.870	3.110
2020/01/31 01:17:42.0	97.620	0.330	-0.790	3.050
2020/01/31 01:17:42.1	97.640	0.320	-0.710	2.990
2020/01/31 01:17:42.2	97.660	0.320	-0.630	2.930
2020/01/31 01:17:42.3	97.670	0.320	-0.550	2.860
2020/01/31 01:17:42.4	97.690	0.310	-0.460	2.800
2020/01/31 01:17:42.5	97.700	0.300	-0.380	2.730
2020/01/31 01:17:42.6	97.710	0.300	-0.290	2.660
2020/01/31 01:17:42.7	97.720	0.290	-0.200	2.590
2020/01/31 01:17:42.8	97.740	0.280	-0.120	2.520
2020/01/31 01:17:42.9	97.750	0.270	-0.040	2.450
2020/01/31 01:17:43.0	97.750	0.260	0.050	2.370
2020/01/31 01:17:43.1	97.750	0.250	0.120	2.290
2020/01/31 01:17:43.2	97.760	0.240	0.200	2.210
2020/01/31 01:17:43.3	97.770	0.230	0.270	2.130
2020/01/31 01:17:43.4	97.770	0.220	0.340	2.050
2020/01/31 01:17:43.5	97.780	0.210	0.400	1.960
2020/01/31 01:17:43.6	97.780	0.200	0.460	1.880
2020/01/31 01:17:43.7	97.780	0.190	0.510	1.790
2020/01/31 01:17:43.8	97.780	0.170	0.560	1.700
2020/01/31 01:17:43.9	97.780	0.160	0.600	1.600
2020/01/31 01:17:44.0	97.770	0.140	0.640	1.510
2020/01/31 01:17:44.1	97.770	0.130	0.670	1.410
2020/01/31 01:17:44.2	97.770	0.110	0.700	1.310
2020/01/31 01:17:44.3	97.770	0.100	0.730	1.210
2020/01/31 01:17:44.4	97.760	0.080	0.750	1.110
2020/01/31 01:17:44.5	97.760	0.060	0.760	1.010
2020/01/31 01:17:44.6	97.760	0.040	0.770	0.910
2020/01/31 01:17:44.7	97.750	0.030	0.770	0.800
2020/01/31 01:17:44.8	97.750	0.010	0.770	0.700
2020/01/31 01:17:44.9	97.740	-0.010	0.770	0.600
2020/01/31 01:17:45.0	97.750	-0.030	0.760	0.490
2020/01/31 01:17:45.1	97.740	-0.050	0.750	0.390
2020/01/31 01:17:45.2	97.730	-0.070	0.730	0.280
2020/01/31 01:17:45.3	97.720	-0.090	0.710	0.180
2020/01/31 01:17:45.4	97.720	-0.110	0.690	0.080
2020/01/31 01:17:45.5	97.710	-0.130	0.660	-0.010
2020/01/31 01:17:45.6	97.700	-0.150	0.630	-0.110
2020/01/31 01:17:45.7	97.690	-0.170	0.600	-0.200
2020/01/31 01:17:45.8	97.680	-0.180	0.560	-0.300
2020/01/31 01:17:45.9	97.670	-0.200	0.530	-0.380
2020/01/31 01:17:46.0	97.660	-0.220	0.490	-0.470
2020/01/31 01:17:46.1	97.650	-0.230	0.440	-0.550
2020/01/31 01:17:46.2	97.640	-0.250	0.400	-0.630
2020/01/31 01:17:46.3	97.630	-0.260	0.360	-0.710
2020/01/31 01:17:46.4	97.630	-0.280	0.310	-0.780
2020/01/31 01:17:46.5	97.620	-0.290	0.260	-0.850
2020/01/31 01:17:46.6	97.610	-0.300	0.220	-0.920
2020/01/31 01:17:46.7	97.600	-0.310	0.170	-0.980
2020/01/31 01:17:46.8	97.600	-0.320	0.120	-1.040
2020/01/31 01:17:46.9	97.590	-0.320	0.070	-1.090
2020/01/31 01:17:47.0	97.620	-0.330	0.020	-1.140
2020/01/31 01:17:47.1	97.620	-0.330	-0.020	-1.180
2020/01/31 01:17:47.2	97.610	-0.340	-0.070	-1.220
2020/01/31 01:17:47.3	97.610	-0.340	-0.120	-1.250
2020/01/31 01:17:47.4	97.610	-0.340	-0.170	-1.280
2020/01/31 01:17:47.5	97.610	-0.330	-0.210	-1.300
2020/01/31 01:17:47.6	97.620	-0.330	-0.260	-1.310
2020/01/31 01:17:47.7	97.620	-0.320	-0.300	-1.320
2020/01/31 01:17:47.8	97.620	-0.320	-0.340	-1.330
2020/01/31 01:17:47.9	97.620	-0.310	-0.380	-1.330
2020/01/31 01:17:48.0	97.620	-0.300	-0.420	-1.320
2020/01/31 01:17:48.1	97.620	-0.290	-0.450	-1.300
2020/01/31 01:17:48.2	97.630	-0.280	-0.490	-1.280
2020/01/31 01:17:48.3	97.630	-0.260	-0.520	-1.260
2020/01/31 01:17:48.4	97.640	-0.250	-0.550	-1.230
2020/01/31 01:17:48.5	97.650	-0.240	-0.570	-1.190
2020/01/31 01:17:48.6	97.660	-0.220	-0.600	-1.150
2020/01/31 01:17:48.7	97.660	-0.210	-0.620	-1.110
2020/01/31 01:17:48.8	97.670	-0.190	-0.640	-1.060
2020/01/31 01:17:48.9	97.680	-0.170	-0.650	-1.000
2020/01/31 01:17:49.0	97.700	-0.160	-0.670	-0.940
2020/01/31 01:17:49.1	97.710	-0.140	-0.680	-0.880
2020/01/31 01:17:49.2	97.720	-0.130	-0.690	-0.810
2020/01/31 01:17:49.3	97.730	-0.110	-0.700	-0.740
2020/01/31 01:17:49.4	97.750	-0.100	-0.700	-0.660
2020/01/31 01:17:49.5	97.760	-0.080	-0.710	-0.580
2020/01/31 01:17:49.6	97.770	-0.070	-0.710	-0.490
2020/01/31 01:17:49.7	97.780	-0.060	-0.710	-0.410
2020/01/31 01:17:49.8	97.790	-0.040	-0.710	-0.320
2020/01/31 01:17:49.9	97.800	-0.030	-0.710	-0.220
2020/01/31 01:17:50.0	97.810	-0.020	-0.700	-0.120
2020/01/31 01:17:50.1	97.820	-0.010	-0.690	-0.020
2020/01/31 01:17:50.2	97.830	-0.000	-0.690	0.090
2020/01/31 01:17:50.3	97.840	0.010	-0.680	0.190
2020/01/31 01:17:50.4	97.850	0.010	-0.670	0.300
2020/01/31 01:17:50.5	97.860	0.020	-0.660	0.410
2020/01/31 01:17:50.6	97.860	0.020	-0.650	0.520
2020/01/31 01:17:50.7	97.870	0.030	-0.640	0.640
2020/01/31 01:17:50.8	97.870	0.030	-0.630	0.750
2020/01/31 01:17:50.9	97.870	0.040	-0.620	0.870
2020/01/31 01:17:51.0	97.870	0.040	-0.610	0.990
2020/01/31 01:17:51.1	97.870	0.040	-0.590	1.110
2020/01/31 01:17:51.2	97.870	0.040	-0.580	1.230
2020/01/31 01:17:51.3	97.860	0.040	-0.560	1.350
2020/01/31 01:17:51.4	97.860	0.050	-0.550	1.470
2020/01/31 01:17:51.5	97.860	0.050	-0.530	1.590
2020/01/31 01:17:51.6	97.850	0.050	-0.510	1.700
2020/01/31 01:17:51.7	97.840	0.050	-0.500	1.820
2020/01/31 01:17:51.8	97.840	0.050	-0.480	1.940
2020/01/31 01:17:51.9	97.830	0.050	-0.460	2.050
2020/01/31 01:17:52.0	97.810	0.050	-0.440	2.170
2020/01/31 01:17:52.1	97.800	0.050	-0.420	2.280
2020/01/31 01:17:52.2	97.790	0.050	-0.400	2.390
2020/01/31 01:17:52.3	97.780	0.050	-0.380	2.490
2020/01/31 01:17:52.4	97.770	0.050	-0.350	2.590
2020/01/31 01:17:52.5	97.760	0.050	-0.330	2.690
2020/01/31 01:17:52.6	97.750	0.060	-0.310	2.780
2020/01/31 01:17:52.7	97.740	0.060	-0.290	2.870
2020/01/31 01:17:52.8	97.730	0.060	-0.260	2.960
2020/01/31 01:17:52.9	97.720	0.070	-0.240	3.040
2020/01/31 01:17:53.0	97.700	0.070	-0.210	3.120
2020/01/31 01:17:53.1	97.690	0.070	-0.180	3.190
2020/01/31 01:17:53.2	97.680	0.080	-0.150	3.250
2020/01/31 01:17:53.3	97.670	0.080	-0.120	3.310
2020/01/31 01:17:53.4	97.660	0.090	-0.090	3.370
2020/01/31 01:17:53.5	97.660	0.100	-0.060	3.410
2020/01/31 01:17:53.6	97.650	0.100	-0.030	3.460
2020/01/31 01:17:53.7	97.640	0.110	0.000	3.500
2020/01/31 01:17:53.8	97.640	0.110	0.030	3.530
2020/01/31 01:17:53.9	97.630	0.120	0.070	3.550
2020/01/31 01:17:54.0	97.630	0.120	0.100	3.570
2020/01/31 01:17:54.1	97.620	0.130	0.130	3.590
2020/01/31 01:17:54.2	97.620	0.140	0.160	3.590
2020/01/31 01:17:54.3	97.620	0.140	0.190	3.590
2020/01/31 01:17:54.4	97.610	0.150	0.220	3.590
2020/01/31 01:17:54.5	97.610	0.150	0.250	3.570
2020/01/31 01:17:54.6	97.610	0.160	0.280	3.550
2020/01/31 01:17:54.7	97.610	0.160	0.300	3.530
2020/01/31 01:17:54.8	97.610	0.170	0.330	3.490
2020/01/31 01:17:54.9	97.610	0.170	0.350	3.450
2020/01/31 01:17:55.0	97.580	0.170	0.370	3.400
2020/01/31 01:17:55.1	97.590	0.170	0.390	3.350
2020/01/31 01:17:55.2	97.590	0.170	0.410	3.290
2020/01/31 01:17:55.3	97.600	0.170	0.420	3.220
2020/01/31 01:17:55.4	97.600	0.170	0.440	3.150
2020/01/31 01:17:55.5	97.610	0.170	0.440	3.070
2020/01/31 01:17:55.6	97.620	0.170	0.450	2.990
2020/01/31 01:17:55.7	97.640	0.170	0.460	2.900
2020/01/31 01:17:55.8	97.650	0.160	0.460	2.800
2020/01/31 01:17:55.9	97.660	0.160	0.460	2.700
2020/01/31 01:17:56.0	97.670	0.150	0.460	2.590
2020/01/31 01:17:56.1	97.690	0.150	0.460	2.480
2020/01/31 01:17:56.2	97.710	0.140	0.450	2.360
2020/01/31 01:17:56.3	97.730	0.130	0.440	2.240
2020/01/31 01:17:56.4	97.750	0.120	0.430	2.120
2020/01/31 01:17:56.5	97.770	0.110	0.420	1.990
2020/01/31 01:17:56.6	97.790	0.100	0.410	1.870
2020/01/31 01:17:56.7	97.810	0.090	0.390	1.740
2020/01/31 01:17:56.8	97.820	0.080	0.380	1.610
2020/01/31 01:17:56.9	97.840	0.070	0.360	1.480
2020/01/31 01:17:57.0	97.840	0.060	0.340	1.350
2020/01/31 01:17:57.1	97.860	0.050	0.310	1.220
2020/01/31 01:17:57.2	97.880	0.040	0.290	1.090
2020/01/31 01:17:57.3	97.890	0.030	0.260	0.960
2020/01/31 01:17:57.4	97.900	0.020	0.230	0.830
2020/01/31 01:17:57.5	97.910	0.010	0.200	0.710
2020/01/31 01:17:57.6	97.920	0.000	0.170	0.580
2020/01/31 01:17:57.7	97.930	-0.010	0.130	0.460
2020/01/31 01:17:57.8	97.940	-0.010	0.090	0.340
2020/01/31 01:17:57.9	97.940	-0.020	0.060	0.220
2020/01/31 01:17:58.0	97.970	-0.020	0.010	0.110
2020/01/31 01:17:58.1	97.970	-0.020	-0.030	-0.010
2020/01/31 01:17:58.2	97.970	-0.020	-0.070	-0.120
2020/01/31 01:17:58.3	97.980	-0.020	-0.110	-0.220
2020/01/31 01:17:58.4	97.980	-0.020	-0.160	-0.330
2020/01/31 01:17:58.5	97.980	-0.020	-0.200	-0.430
2020/01/31 01:17:58.6	97.980	-0.010	-0.250	-0.520
2020/01/31 01:17:58.7	97.980	-0.010	-0.290	-0.620
2020/01/31 01:17:58.8	97.990	-0.000	-0.340	-0.700
2020/01/31 01:17:58.9	97.990	0.010	-0.390	-0.790
2020/01/31 01:17:59.0	98.000	0.020	-0.440	-0.870
2020/01/31 01:17:59.1	98.000	0.030	-0.480	-0.940
2020/01/31 01:17:59.2	98.000	0.040	-0.530	-1.020
2020/01/31 01:17:59.3	98.000	0.050	-0.580	-1.080
2020/01/31 01:17:59.4	98.000	0.060	-0.620	-1.140
2020/01/31 01:17:59.5	98.010	0.070	-0.660	-1.200
2020/01/31 01:17:59.6	98.010	0.090	-0.710	-1.250
2020/01/31 01:17:59.7	98.010	0.100	-0.750	-1.300
2020/01/31 01:17:59.8	98.020	0.110	-0.790	-1.340
2020/01/31 01:17:59.9	98.020	0.130	-0.820	-1.380
2020/01/31 01:18:00.0	98.040	0.140	-0.860	-1.400
2020/01/31 01:18:00.1	98.040	0.160	-0.890	-1.430
2020/01/31 01:18:00.2	98.050	0.170	-0.920	-1.450
2020/01/31 01:18:00.3	98.050	0.180	-0.950	-1.460
2020/01/31 01:18:00.4	98.060	0.200	-0.980	-1.460
2020/01/31 01:18:00.5	98.060	0.210	-1.000	-1.460
2020/01/31 01:18:00.6	98.070	0.220	-1.020	-1.450
2020/01/31 01:18:00.7	98.080	0.230	-1.030	-1.440
2020/01/31 01:18:00.8	98.080	0.240	-1.040	-1.420
2020/01/31 01:18:00.9	98.090	0.250	-1.050	-1.400
2020/01/31 01:18:01.0	98.110	0.260	-1.060	-1.360
2020/01/31 01:18:01.1	98.120	0.270	-1.050	-1.320
2020/01/31 01:18:01.2	98.130	0.270	-1.050	-1.280
2020/01/31 01:18:01.3	98.130	0.270	-1.040	-1.230
2020/01/31 01:18:01.4	98.140	0.270	-1.020	-1.180
2020/01/31 01:18:01.5	98.150	0.270	-1.000	-1.120
2020/01/31 01:18:01.6	98.150	0.270	-0.970	-1.060
2020/01/31 01:18:01.7	98.160	0.260	-0.940	-1.000
2020/01/31 01:18:01.8	98.170	0.250	-0.900	-0.930
2020/01/31 01:18:01.9	98.180	0.240	-0.860	-0.860
2020/01/31 01:18:02.0	98.190	0.230	-0.810	-0.780
2020/01/31 01:18:02.1	98.200	0.220	-0.760	-0.700
2020/01/31 01:18:02.2	98.210	0.200	-0.700	-0.620
2020/01/31 01:18:02.3	98.220	0.180	-0.640	-0.530
2020/01/31 01:18:02.4	98.230	0.160	-0.570	-0.440
2020/01/31 01:18:02.5	98.240	0.130	-0.500	-0.360
2020/01/31 01:18:02.6	98.250	0.100	-0.430	-0.260
2020/01/31 01:18:02.7	98.260	0.080	-0.360	-0.170
2020/01/31 01:18:02.8	98.270	0.050	-0.280	-0.080
2020/01/31 01:18:02.9	98.280	0.010	-0.200	0.020
2020/01/31 01:18:03.0	98.290	-0.020	-0.120	0.120
2020/01/31 01:18:03.1	98.300	-0.050	-0.030	0.210
2020/01/31 01:18:03.2	98.320	-0.090	0.050	0.310
2020/01/31 01:18:03.3	98.330	-0.130	0.140	0.410
2020/01/31 01:18:03.4	98.340	-0.160	0.220	0.510
2020/01/31 01:18:03.5	98.350	-0.200	0.300	0.610
2020/01/31 01:18:03.6	98.360	-0.240	0.380	0.710
2020/01/31 01:18:03.7	98.370	-0.280	0.460	0.810
2020/01/31 01:18:03.8	98.390	-0.310	0.530	0.910
2020/01/31 01:18:03.9	98.400	-0.350	0.610	1.000
2020/01/31 01:18:04.0	98.420	-0.380	0.680	1.110
2020/01/31 01:18:04.1	98.430	-0.410	0.740	1.200
2020/01/31 01:18:04.2	98.440	-0.450	0.800	1.290
2020/01/31 01:18:04.3	98.450	-0.470	0.850	1.380
2020/01/31 01:18:04.4	98.470	-0.500	0.890	1.470
2020/01/31 01:18:04.5	98.480	-0.530	0.930	1.560
2020/01/31 01:18:04.6	98.490	-0.550	0.970	1.650
2020/01/31 01:18:04.7	98.500	-0.570	0.990	1.730
2020/01/31 01:18:04.8	98.510	-0.580	1.010	1.810
2020/01/31 01:18:04.9	98.520	-0.590	1.020	1.890
2020/01/31 01:18:05.0	98.530	-0.600	1.020	1.960
2020/01/31 01:18:05.1	98.540	-0.610	1.010	2.030
2020/01/31 01:18:05.2	98.560	-0.610	1.000	2.110
2020/01/31 01:18:05.3	98.570	-0.610	0.980	2.180
2020/01/31 01:18:05.4	98.580	-0.600	0.950	2.240
2020/01/31 01:18:05.5	98.590	-0.590	0.910	2.310
2020/01/31 01:18:05.6	98.600	-0.580	0.870	2.370
2020/01/31 01:18:05.7	98.620	-0.570	0.810	2.430
2020/01/31 01:18:05.8	98.630	-0.550	0.760	2.490
2020/01/31 01:18:05.9	98.640	-0.530	0.690	2.550
2020/01/31 01:18:06.0	98.630	-0.500	0.620	2.600
2020/01/31 01:18:06.1	98.650	-0.480	0.550	2.660
2020/01/31 01:18:06.2	98.660	-0.450	0.470	2.700
2020/01/31 01:18:06.3	98.680	-0.420	0.390	2.750
2020/01/31 01:18:06.4	98.690	-0.380	0.300	2.790
2020/01/31 01:18:06.5	98.710	-0.350	0.210	2.830
2020/01/31 01:18:06.6	98.730	-0.320	0.120	2.860
2020/01/31 01:18:06.7	98.750	-0.280	0.030	2.900
2020/01/31 01:18:06.8	98.770	-0.250	-0.060	2.920
2020/01/31 01:18:06.9	98.790	-0.210	-0.150	2.950
2020/01/31 01:18:07.0	98.800	-0.180	-0.230	2.970
2020/01/31 01:18:07.1	98.820	-0.150	-0.320	2.980
2020/01/31 01:18:07.2	98.850	-0.120	-0.400	2.990
2020/01/31 01:18:07.3	98.870	-0.090	-0.480	3.000
2020/01/31 01:18:07.4	98.900	-0.060	-0.550	3.000
2020/01/31 01:18:07.5	98.920	-0.030	-0.620	3.000
2020/01/31 01:18:07.6	98.950	-0.000	-0.680	3.000
2020/01/31 01:18:07.7	98.980	0.020	-0.740	2.990
2020/01/31 01:18:07.8	99.010	0.040	-0.790	2.980
2020/01/31 01:18:07.9	99.030	0.060	-0.840	2.960
2020/01/31 01:18:08.0	99.050	0.070	-0.880	2.940
2020/01/31 01:18:08.1	99.080	0.090	-0.910	2.910
2020/01/31 01:18:08.2	99.100	0.100	-0.940	2.880
2020/01/31 01:18:08.3	99.130	0.110	-0.950	2.850
2020/01/31 01:18:08.4	99.160	0.110	-0.970	2.810
2020/01/31 01:18:08.5	99.180	0.120	-0.970	2.770
2020/01/31 01:18:08.6	99.200	0.120	-0.970	2.730
2020/01/31 01:18:08.7	99.220	0.130	-0.960	2.680
2020/01/31 01:18:08.8	99.240	0.130	-0.950	2.630
2020/01/31 01:18:08.9	99.260	0.130	-0.930	2.580
2020/01/31 01:18:09.0	99.260	0.120	-0.910	2.520
2020/01/31 01:18:09.1	99.270	0.120	-0.880	2.470
2020/01/31 01:18:09.2	99.290	0.120	-0.850	2.410
2020/01/31 01:18:09.3	99.300	0.120	-0.810	2.350
2020/01/31 01:18:09.4	99.300	0.120	-0.780	2.290
2020/01/31 01:18:09.5	99.310	0.110	-0.740	2.230
2020/01/31 01:18:09.6	99.310	0.110	-0.690	2.170
2020/01/31 01:18:09.7	99.310	0.110	-0.650	2.100
2020/01/31 01:18:09.8	99.310	0.110	-0.600	2.040
2020/01/31 01:18:09.9	99.310	0.110	-0.560	1.980
2020/01/31 01:18:10.0	99.280	0.110	-0.510	1.920
2020/01/31 01:18:10.1	99.280	0.110	-0.460	1.860
2020/01/31 01:18:10.2	99.270	0.110	-0.410	1.800
2020/01/31 01:18:10.3	99.260	0.110	-0.370	1.740
2020/01/31 01:18:10.4	99.250	0.120	-0.330	1.680
2020/01/31 01:18:10.5	99.240	0.120	-0.280	1.620
2020/01/31 01:18:10.6	99.240	0.130	-0.240	1.570
2020/01/31 01:18:10.7	99.230	0.130	-0.200	1.510
2020/01/31 01:18:10.8	99.220	0.140	-0.160	1.460
2020/01/31 01:18:10.9	99.210	0.140	-0.130	1.400
2020/01/31 01:18:11.0	99.220	0.150	-0.090	1.350
2020/01/31 01:18:11.1	99.220	0.150	-0.060	1.290
2020/01/31 01:18:11.2	99.210	0.160	-0.030	1.240
2020/01/31 01:18:11.3	99.210	0.170	-0.010	1.180
2020/01/31 01:18:11.4	99.210	0.170	0.020	1.120
2020/01/31 01:18:11.5	99.210	0.180	0.040	1.070
2020/01/31 01:18:11.6	99.210	0.190	0.050	1.010
2020/01/31 01:18:11.7	99.220	0.190	0.070	0.950
2020/01/31 01:18:11.8	99.230	0.200	0.080	0.890
2020/01/31 01:18:11.9	99.240	0.200	0.080	0.830
2020/01/31 01:18:12.0	99.260	0.210	0.090	0.770
2020/01/31 01:18:12.1	99.280	0.220	0.090	0.710
2020/01/31 01:18:12.2	99.290	0.220	0.090	0.650
2020/01/31 01:18:12.3	99.310	0.230	0.080	0.580
2020/01/31 01:18:12.4	99.330	0.230	0.070	0.520
2020/01/31 01:18:12.5	99.350	0.240	0.050	0.450
2020/01/31 01:18:12.6	99.370	0.250	0.040	0.380
2020/01/31 01:18:12.7	99.390	0.250	0.020	0.320
2020/01/31 01:18:12.8	99.410	0.260	-0.000	0.250
2020/01/31 01:18:12.9	99.430	0.260	-0.030	0.190
2020/01/31 01:18:13.0	99.470	0.270	-0.050	0.130
2020/01/31 01:18:13.1	99.490	0.270	-0.080	0.070
2020/01/31 01:18:13.2	99.510	0.280	-0.110	0.010
2020/01/31 01:18:13.3	99.520	0.290	-0.140	-0.050
2020/01/31 01:18:13.4	99.540	0.290	-0.170	-0.100
2020/01/31 01:18:13.5	99.560	0.300	-0.200	-0.150
2020/01/31 01:18:13.6	99.570	0.300	-0.230	-0.200
2020/01/31 01:18:13.7	99.580	0.310	-0.260	-0.240
2020/01/31 01:18:13.8	99.590	0.310	-0.290	-0.280
2020/01/31 01:18:13.9	99.600	0.320	-0.320	-0.320
2020/01/31 01:18:14.0	99.640	0.320	-0.340	-0.350
2020/01/31 01:18:14.1	99.640	0.330	-0.370	-0.370
2020/01/31 01:18:14.2	99.650	0.330	-0.390	-0.400
2020/01/31 01:18:14.3	99.650	0.340	-0.410	-0.410
2020/01/31 01:18:14.4	99.660	0.340	-0.420	-0.430
2020/01/31 01:18:14.5	99.660	0.340	-0.440	-0.440
2020/01/31 01:18:14.6	99.660	0.340	-0.450	-0.450
2020/01/31 01:18:14.7	99.660	0.340	-0.460	-0.450
2020/01/31 01:18:14.8	99.660	0.340	-0.460	-0.450
2020/01/31 01:18:14.9	99.660	0.340	-0.460	-0.450
2020/01/31 01:18:15.0	99.670	0.340	-0.460	-0.440
2020/01/31 01:18:15.1	99.670	0.330	-0.460	-0.430
2020/01/31 01:18:15.2	99.670	0.330	-0.450	-0.420
2020/01/31 01:18:15.3	99.670	0.320	-0.430	-0.400
2020/01/31 01:18:15.4	99.670	0.310	-0.420	-0.380
2020/01/31 01:18:15.5	99.670	0.300	-0.390	-0.360
2020/01/31 01:18:15.6	99.680	0.290	-0.370	-0.330
2020/01/31 01:18:15.7	99.680	0.280	-0.340	-0.300
2020/01/31 01:18:15.8	99.690	0.260	-0.310	-0.270
2020/01/31 01:18:15.9	99.690	0.250	-0.270	-0.230
2020/01/31 01:18:16.0	99.710	0.230	-0.230	-0.190
2020/01/31 01:18:16.1	99.720	0.210	-0.190	-0.150
2020/01/31 01:18:16.2	99.730	0.190	-0.140	-0.100
2020/01/31 01:18:16.3	99.740	0.160	-0.090	-0.050
2020/01/31 01:18:16.4	99.750	0.140	-0.040	-0.000
2020/01/31 01:18:16.5	99.770	0.110	0.010	0.050
2020/01/31 01:18:16.6	99.780	0.090	0.060	0.110
2020/01/31 01:18:16.7	99.800	0.060	0.110	0.170
2020/01/31 01:18:16.8	99.820	0.030	0.170	0.230
2020/01/31 01:18:16.9	99.840	-0.000	0.220	0.300
2020/01/31 01:18:17.0	99.860	-0.030	0.280	0.360
2020/01/31 01:18:17.1	99.880	-0.060	0.330	0.430
2020/01/31 01:18:17.2	99.900	-0.090	0.390	0.500
2020/01/31 01:18:17.3	99.930	-0.130	0.440	0.560
2020/01/31 01:18:17.4	99.950	-0.160	0.490	0.630
2020/01/31 01:18:17.5	99.980	-0.190	0.530	0.700
2020/01/31 01:18:17.6	100.010	-0.220	0.580	0.780
2020/01/31 01:18:17.7	100.040	-0.250	0.620	0.850
2020/01/31 01:18:17.8	100.060	-0.280	0.650	0.920
2020/01/31 01:18:17.9	100.090	-0.310	0.690	0.990
2020/01/31 01:18:18.0	100.120	-0.340	0.710	1.070
2020/01/31 01:18:18.1	100.150	-0.360	0.740	1.140
2020/01/31 01:18:18.2	100.180	-0.380	0.750	1.210
2020/01/31 01:18:18.3	100.200	-0.410	0.760	1.290
2020/01/31 01:18:18.4	100.230	-0.430	0.760	1.360
2020/01/31 01:18:18.5	100.250	-0.440	0.760	1.430
2020/01/31 01:18:18.6	100.280	-0.460	0.750	1.500
2020/01/31 01:18:18.7	100.300	-0.470	0.730	1.570
2020/01/31 01:18:18.8	100.330	-0.480	0.710	1.650
2020/01/31 01:18:18.9	100.350	-0.490	0.680	1.720
2020/01/31 01:18:19.0	100.350	-0.490	0.640	1.780
2020/01/31 01:18:19.1	100.370	-0.500	0.590	1.850
2020/01/31 01:18:19.2	100.380	-0.490	0.540	1.920
2020/01/31 01:18:19.3	100.400	-0.490	0.480	1.980
2020/01/31 01:18:19.4	100.420	-0.480	0.420	2.050
2020/01/31 01:18:19.5	100.430	-0.470	0.340	2.110
2020/01/31 01:18:19.6	100.450	-0.460	0.270	2.170
2020/01/31 01:18:19.7	100.460	-0.440	0.180	2.220
2020/01/31 01:18:19.8	100.470	-0.420	0.100	2.280
2020/01/31 01:18:19.9	100.480	-0.400	0.000	2.330
2020/01/31 01:18:20.0	100.460	-0.380	-0.090	2.380
2020/01/31 01:18:20.1	100.470	-0.350	-0.180	2.430
2020/01/31 01:18:20.2	100.480	-0.320	-0.280	2.470
2020/01/31 01:18:20.3	100.480	-0.290	-0.380	2.510
2020/01/31 01:18:20.4	100.480	-0.260	-0.480	2.560
2020/01/31 01:18:20.5	100.480	-0.220	-0.580	2.590
2020/01/31 01:18:20.6	100.480	-0.190	-0.670	2.630
2020/01/31 01:18:20.7	100.480	-0.150	-0.770	2.670
2020/01/31 01:18:20.8	100.480	-0.110	-0.860	2.700
2020/01/31 01:18:20.9	100.470	-0.080	-0.940	2.730
2020/01/31 01:18:21.0	100.450	-0.040	-1.030	2.750
2020/01/31 01:18:21.1	100.440	-0.010	-1.100	2.780
2020/01/31 01:18:21.2	100.430	0.030	-1.170	2.800
2020/01/31 01:18:21.3	100.420	0.060	-1.230	2.830
2020/01/31 01:18:21.4	100.410	0.100	-1.280	2.850
2020/01/31 01:18:21.5	100.400	0.130	-1.320	2.870
2020/01/31 01:18:21.6	100.390	0.150	-1.350	2.890
2020/01/31 01:18:21.7	100.370	0.180	-1.380	2.900
2020/01/31 01:18:21.8	100.360	0.200	-1.390	2.920
2020/01/31 01:18:21.9	100.350	0.220	-1.390	2.930
2020/01/31 01:18:22.0	100.330	0.240	-1.380	2.940
2020/01/31 01:18:22.1	100.310	0.260	-1.370	2.950
2020/01/31 01:18:22.2	100.300	0.270	-1.340	2.950
2020/01/31 01:18:22.3	100.290	0.270	-1.300	2.960
2020/01/31 01:18:22.4	100.270	0.280	-1.260	2.960
2020/01/31 01:18:22.5	100.260	0.280	-1.200	2.950
2020/01/31 01:18:22.6	100.250	0.280	-1.140	2.950
2020/01/31 01:18:22.7	100.240	0.270	-1.060	2.940
2020/01/31 01:18:22.8	100.240	0.260	-0.990	2.920
2020/01/31 01:18:22.9	100.230	0.250	-0.900	2.910
2020/01/31 01:18:23.0	100.210	0.230	-0.810	2.890
2020/01/31 01:18:23.1	100.210	0.210	-0.710	2.860
2020/01/31 01:18:23.2	100.200	0.190	-0.610	2.840
2020/01/31 01:18:23.3	100.200	0.170	-0.510	2.800
2020/01/31 01:18:23.4	100.210	0.140	-0.400	2.770
2020/01/31 01:18:23.5	100.210	0.120	-0.290	2.720
2020/01/31 01:18:23.6	100.210	0.090	-0.190	2.680
2020/01/31 01:18:23.7	100.220	0.060	-0.080	2.630
2020/01/31 01:18:23.8	100.230	0.020	0.030	2.570
2020/01/31 01:18:23.9	100.240	-0.010	0.130	2.510
2020/01/31 01:18:24.0	100.250	-0.040	0.240	2.450
2020/01/31 01:18:24.1	100.260	-0.070	0.330	2.380
2020/01/31 01:18:24.2	100.280	-0.110	0.420	2.300
2020/01/31 01:18:24.3	100.300	-0.140	0.510	2.220
2020/01/31 01:18:24.4	100.320	-0.170	0.590	2.140
2020/01/31 01:18:24.5	100.350	-0.200	0.660	2.050
2020/01/31 01:18:24.6	100.370	-0.230	0.730	1.950
2020/01/31 01:18:24.7	100.400	-0.260	0.790	1.850
2020/01/31 01:18:24.8	100.430	-0.290	0.840	1.750
2020/01/31 01:18:24.9	100.460	-0.310	0.880	1.640
2020/01/31 01:18:25.0	100.500	-0.330	0.920	1.530
2020/01/31 01:18:25.1	100.530	-0.350	0.940	1.420
2020/01/31 01:18:25.2	100.570	-0.370	0.960	1.300
2020/01/31 01:18:25.3	100.600	-0.380	0.970	1.180
2020/01/31 01:18:25.4	100.640	-0.390	0.970	1.060
2020/01/31 01:18:25.5	100.670	-0.400	0.960	0.940
2020/01/31 01:18:25.6	100.710	-0.400	0.940	0.820
2020/01/31 01:18:25.7	100.740	-0.400	0.910	0.700
2020/01/31 01:18:25.8	100.770	-0.390	0.880	0.590
2020/01/31 01:18:25.9	100.800	-0.390	0.830	0.470
2020/01/31 01:18:26.0	100.830	-0.370	0.780	0.360
2020/01/31 01:18:26.1	100.860	-0.360	0.720	0.250
2020/01/31 01:18:26.2	100.880	-0.340	0.650	0.140
2020/01/31 01:18:26.3	100.900	-0.320	0.570	0.040
2020/01/31 01:18:26.4	100.920	-0.290	0.490	-0.060
2020/01/31 01:18:26.5	100.940	-0.260	0.410	-0.160
2020/01/31 01:18:26.6	100.950	-0.230	0.310	-0.250
2020/01/31 01:18:26.7	100.960	-0.200	0.220	-0.340
2020/01/31 01:18:26.8	100.970	-0.160	0.120	-0.420
2020/01/31 01:18:26.9	100.970	-0.120	0.020	-0.500
2020/01/31 01:18:27.0	100.980	-0.080	-0.090	-0.570
2020/01/31 01:18:27.1	100.970	-0.040	-0.190	-0.640
2020/01/31 01:18:27.2	100.970	0.000	-0.290	-0.710
2020/01/31 01:18:27.3	100.960	0.050	-0.390	-0.770
2020/01/31 01:18:27.4	100.940	0.090	-0.490	-0.820
2020/01/31 01:18:27.5	100.930	0.130	-0.590	-0.870
2020/01/31 01:18:27.6	100.900	0.180	-0.680	-0.920
2020/01/31 01:18:27.7	100.880	0.220	-0.770	-0.960
2020/01/31 01:18:27.8	100.850	0.260	-0.850	-1.000
2020/01/31 01:18:27.9	100.830	0.290	-0.930	-1.030
2020/01/31 01:18:28.0	100.820	0.330	-0.990	-1.050
2020/01/31 01:18:28.1	100.790	0.360	-1.050	-1.080
2020/01/31 01:18:28.2	100.750	0.400	-1.110	-1.100
2020/01/31 01:18:28.3	100.720	0.420	-1.150	-1.110
2020/01/31 01:18:28.4	100.680	0.450	-1.190	-1.120
2020/01/31 01:18:28.5	100.640	0.470	-1.220	-1.130
2020/01/31 01:18:28.6	100.610	0.490	-1.240	-1.130
2020/01/31 01:18:28.7	100.570	0.500	-1.240	-1.130
2020/01/31 01:18:28.8	100.540	0.510	-1.240	-1.130
2020/01/31 01:18:28.9	100.510	0.520	-1.230	-1.120
2020/01/31 01:18:29.0	100.490	0.520	-1.210	-1.100
2020/01/31 01:18:29.1	100.460	0.510	-1.180	-1.080
2020/01/31 01:18:29.2	100.430	0.510	-1.140	-1.060
2020/01/31 01:18:29.3	100.410	0.500	-1.100	-1.030
2020/01/31 01:18:29.4	100.390	0.480	-1.040	-1.000
2020/01/31 01:18:29.5	100.370	0.470	-0.980	-0.960
2020/01/31 01:18:29.6	100.360	0.450	-0.920	-0.920
2020/01/31 01:18:29.7	100.340	0.420	-0.840	-0.880
2020/01/31 01:18:29.8	100.330	0.400	-0.770	-0.820
2020/01/31 01:18:29.9	100.330	0.370	-0.690	-0.770
2020/01/31 01:18:30.0	100.340	0.340	-0.600	-0.710
2020/01/31 01:18:30.1	100.340	0.300	-0.510	-0.650
2020/01/31 01:18:30.2	100.340	0.270	-0.430	-0.590
2020/01/31 01:18:30.3	100.340	0.230	-0.340	-0.520
2020/01/31 01:18:30.4	100.350	0.190	-0.250	-0.450
2020/01/31 01:18:30.5	100.360	0.160	-0.160	-0.380
2020/01/31 01:18:30.6	100.380	0.120	-0.070	-0.310
2020/01/31 01:18:30.7	100.390	0.080	0.020	-0.230
2020/01/31 01:18:30.8	100.410	0.040	0.100	-0.160
2020/01/31 01:18:30.9	100.430	0.010	0.180	-0.080
2020/01/31 01:18:31.0	100.460	-0.030	0.260	-0.000
2020/01/31 01:18:31.1	100.480	-0.070	0.340	0.070
2020/01/31 01:18:31.2	100.510	-0.100	0.410	0.150
2020/01/31 01:18:31.3	100.540	-0.130	0.470	0.220
2020/01/31 01:18:31.4	100.560	-0.160	0.530	0.290
2020/01/31 01:18:31.5	100.590	-0.190	0.590	0.370
2020/01/31 01:18:31.6	100.630	-0.220	0.640	0.440
2020/01/31 01:18:31.7	100.660	-0.240	0.680	0.510
2020/01/31 01:18:31.8	100.690	-0.270	0.720	0.570
2020/01/31 01:18:31.9	100.720	-0.280	0.750	0.640
2020/01/31 01:18:32.0	100.760	-0.300	0.780	0.700
2020/01/31 01:18:32.1	100.800	-0.310	0.800	0.770
2020/01/31 01:18:32.2	100.830	-0.320	0.820	0.830
2020/01/31 01:18:32.3	100.860	-0.330	0.820	0.890
2020/01/31 01:18:32.4	100.900	-0.340	0.820	0.940
2020/01/31 01:18:32.5	100.930	-0.340	0.820	1.000
2020/01/31 01:18:32.6	100.960	-0.330	0.810	1.060
2020/01/31 01:18:32.7	101.000	-0.330	0.790	1.110
2020/01/31 01:18:32.8	101.030	-0.320	0.760	1.160
2020/01/31 01:18:32.9	101.060	-0.310	0.730	1.220
2020/01/31 01:18:33.0	101.090	-0.300	0.700	1.270
2020/01/31 01:18:33.1	101.120	-0.280	0.650	1.330
2020/01/31 01:18:33.2	101.150	-0.260	0.610	1.380
2020/01/31 01:18:33.3	101.170	-0.240	0.550	1.430
2020/01/31 01:18:33.4	101.190	-0.220	0.500	1.490
2020/01/31 01:18:33.5	101.210	-0.190	0.440	1.540
2020/01/31 01:18:33.6	101.230	-0.160	0.370	1.600
2020/01/31 01:18:33.7	101.250	-0.130	0.300	1.660
2020/01/31 01:18:33.8	101.260	-0.100	0.230	1.720
2020/01/31 01:18:33.9	101.280	-0.070	0.160	1.780
2020/01/31 01:18:34.0	101.260	-0.040	0.090	1.840
2020/01/31 01:18:34.1	101.270	-0.010	0.010	1.910
2020/01/31 01:18:34.2	101.280	0.030	-0.070	1.970
2020/01/31 01:18:34.3	101.280	0.060	-0.150	2.040
2020/01/31 01:18:34.4	101.280	0.090	-0.220	2.110
2020/01/31 01:18:34.5	101.270	0.130	-0.300	2.190
2020/01/31 01:18:34.6	101.270	0.160	-0.370	2.260
2020/01/31 01:18:34.7	101.260	0.190	-0.450	2.340
2020/01/31 01:18:34.8	101.250	0.220	-0.520	2.420
2020/01/31 01:18:34.9	101.240	0.250	-0.590	2.490
2020/01/31 01:18:35.0	101.210	0.270	-0.650	2.570
2020/01/31 01:18:35.1	101.200	0.300	-0.710	2.650
2020/01/31 01:18:35.2	101.180	0.320	-0.770	2.730
2020/01/31 01:18:35.3	101.150	0.340	-0.820	2.810
2020/01/31 01:18:35.4	101.130	0.360	-0.870	2.880
2020/01/31 01:18:35.5	101.100	0.380	-0.910	2.960
2020/01/31 01:18:35.6	101.080	0.390	-0.940	3.030
2020/01/31 01:18:35.7	101.050	0.400	-0.970	3.090
2020/01/31 01:18:35.8	101.020	0.410	-0.990	3.160
2020/01/31 01:18:35.9	100.990	0.410	-1.010	3.220
2020/01/31 01:18:36.0	100.960	0.410	-1.010	3.270
2020/01/31 01:18:36.1	100.930	0.410	-1.010	3.320
2020/01/31 01:18:36.2	100.900	0.400	-1.010	3.360
2020/01/31 01:18:36.3	100.870	0.400	-1.000	3.400
2020/01/31 01:18:36.4	100.840	0.380	-0.980	3.430
2020/01/31 01:18:36.5	100.820	0.370	-0.950	3.460
2020/01/31 01:18:36.6	100.790	0.350	-0.920	3.480
2020/01/31 01:18:36.7	100.770	0.330	-0.880	3.490
2020/01/31 01:18:36.8	100.750	0.310	-0.840	3.490
2020/01/31 01:18:36.9	100.730	0.280	-0.790	3.490
2020/01/31 01:18:37.0	100.700	0.260	-0.730	3.470
2020/01/31 01:18:37.1	100.680	0.230	-0.680	3.460
2020/01/31 01:18:37.2	100.670	0.190	-0.610	3.430
2020/01/31 01:18:37.3	100.660	0.160	-0.550	3.400
2020/01/31 01:18:37.4	100.640	0.120	-0.480	3.360
2020/01/31 01:18:37.5	100.630	0.090	-0.420	3.310
2020/01/31 01:18:37.6	100.630	0.050	-0.350	3.250
2020/01/31 01:18:37.7	100.620	0.010	-0.280	3.190
2020/01/31 01:18:37.8	100.620	-0.020	-0.210	3.130
2020/01/31 01:18:37.9	100.610	-0.060	-0.140	3.050
2020/01/31 01:18:38.0	100.620	-0.100	-0.060	2.970
2020/01/31 01:18:38.1	100.620	-0.140	0.000	2.890
2020/01/31 01:18:38.2	100.620	-0.170	0.070	2.800
2020/01/31 01:18:38.3	100.620	-0.210	0.130	2.700
2020/01/31 01:18:38.4	100.630	-0.240	0.190	2.600
2020/01/31 01:18:38.5	100.630	-0.270	0.240	2.500
2020/01/31 01:18:38.6	100.640	-0.300	0.290	2.390
2020/01/31 01:18:38.7	100.650	-0.330	0.330	2.270
2020/01/31 01:18:38.8	100.660	-0.350	0.370	2.160
2020/01/31 01:18:38.9	100.670	-0.370	0.400	2.040
2020/01/31 01:18:39.0	100.670	-0.390	0.430	1.910
2020/01/31 01:18:39.1	100.690	-0.400	0.450	1.790
2020/01/31 01:18:39.2	100.700	-0.420	0.470	1.660
2020/01/31 01:18:39.3	100.720	-0.420	0.480	1.530
2020/01/31 01:18:39.4	100.730	-0.430	0.480	1.400
2020/01/31 01:18:39.5	100.750	-0.430	0.470	1.270
2020/01/31 01:18:39.6	100.770	-0.430	0.470	1.140
2020/01/31 01:18:39.7	100.790	-0.430	0.450	1.010
2020/01/31 01:18:39.8	100.810	-0.420	0.430	0.880
2020/01/31 01:18:39.9	100.830	-0.410	0.400	0.750
2020/01/31 01:18:40.0	100.830	-0.400	0.380	0.620
2020/01/31 01:18:40.1	100.850	-0.380	0.340	0.490
2020/01/31 01:18:40.2	100.870	-0.360	0.300	0.370
2020/01/31 01:18:40.3	100.890	-0.340	0.260	0.240
2020/01/31 01:18:40.4	100.910	-0.320	0.220	0.120
2020/01/31 01:18:40.5	100.930	-0.290	0.170	-0.000
2020/01/31 01:18:40.6	100.950	-0.270	0.120	-0.130
2020/01/31 01:18:40.7	100.970	-0.240	0.070	-0.250
2020/01/31 01:18:40.8	100.990	-0.210	0.020	-0.360
2020/01/31 01:18:40.9	101.020	-0.180	-0.030	-0.480
2020/01/31 01:18:41.0	101.060	-0.150	-0.080	-0.590
2020/01/31 01:18:41.1	101.080	-0.120	-0.140	-0.700
2020/01/31 01:18:41.2	101.100	-0.090	-0.190	-0.810
2020/01/31 01:18:41.3	101.120	-0.060	-0.240	-0.920
2020/01/31 01:18:41.4	101.140	-0.030	-0.280	-1.020
2020/01/31 01:18:41.5	101.160	-0.000	-0.330	-1.120
2020/01/31 01:18:41.6	101.180	0.020	-0.370	-1.210
2020/01/31 01:18:41.7	101.190	0.050	-0.410	-1.300
2020/01/31 01:18:41.8	101.210	0.070	-0.440	-1.380
2020/01/31 01:18:41.9	101.220	0.100	-0.470	-1.460
2020/01/31 01:18:42.0	101.260	0.120	-0.500	-1.520
2020/01/31 01:18:42.1	101.270	0.130	-0.520	-1.590
2020/01/31 01:18:42.2	101.280	0.150	-0.530	-1.650
2020/01/31 01:18:42.3	101.290	0.160	-0.540	-1.690
2020/01/31 01:18:42.4	101.290	0.170	-0.550	-1.740
2020/01/31 01:18:42.5	101.300	0.180	-0.550	-1.770
2020/01/31 01:18:42.6	101.300	0.190	-0.550	-1.800
2020/01/31 01:18:42.7	101.300	0.190	-0.540	-1.820
2020/01/31 01:18:42.8	101.300	0.190	-0.520	-1.830
2020/01/31 01:18:42.9	101.290	0.180	-0.500	-1.830
2020/01/31 01:18:43.0	101.320	0.180	-0.480	-1.820
2020/01/31 01:18:43.1	101.320	0.170	-0.450	-1.810
2020/01/31 01:18:43.2	101.310	0.150	-0.420	-1.790
2020/01/31 01:18:43.3	101.300	0.140	-0.380	-1.760
2020/01/31 01:18:43.4	101.290	0.120	-0.350	-1.730
2020/01/31 01:18:43.5	101.270	0.100	-0.310	-1.690
2020/01/31 01:18:43.6	101.260	0.080	-0.260	-1.640
2020/01/31 01:18:43.7	101.250	0.060	-0.220	-1.590
2020/01/31 01:18:43.8	101.230	0.030	-0.170	-1.530
2020/01/31 01:18:43.9	101.210	0.010	-0.130	-1.470
2020/01/31 01:18:44.0	101.200	-0.020	-0.080	-1.400
2020/01/31 01:18:44.1	101.190	-0.040	-0.030	-1.330
2020/01/31 01:18:44.2	101.170	-0.070	0.010	-1.260
2020/01/31 01:18:44.3	101.150	-0.100	0.050	-1.180
2020/01/31 01:18:44.4	101.130	-0.120	0.090	-1.100
2020/01/31 01:18:44.5	101.110	-0.150	0.130	-1.020
2020/01/31 01:18:44.6	101.090	-0.170	0.160	-0.930
2020/01/31 01:18:44.7	101.070	-0.190	0.190	-0.840
2020/01/31 01:18:44.8	101.060	-0.210	0.220	-0.750
2020/01/31 01:18:44.9	101.040	-0.230	0.240	-0.660
2020/01/31 01:18:45.0	101.040	-0.240	0.250	-0.570
2020/01/31 01:18:45.1	101.020	-0.260	0.260	-0.480
2020/01/31 01:18:45.2	101.010	-0.270	0.270	-0.390
2020/01/31 01:18:45.3	100.990	-0.280	0.270	-0.290
2020/01/31 01:18:45.4	100.970	-0.280	0.270	-0.190
2020/01/31 01:18:45.5	100.950	-0.280	0.260	-0.100
2020/01/31 01:18:45.6	100.940	-0.280	0.250	0.000
2020/01/31 01:18:45.7	100.920	-0.270	0.230	0.100
2020/01/31 01:18:45.8	100.910	-0.260	0.200	0.200
2020/01/31 01:18:45.9	100.900	-0.250	0.180	0.300
2020/01/31 01:18:46.0	100.880	-0.230	0.150	0.400
2020/01/31 01:18:46.1	100.870	-0.210	0.110	0.490
2020/01/31 01:18:46.2	100.860	-0.190	0.070	0.590
2020/01/31 01:18:46.3	100.850	-0.160	0.020	0.680
2020/01/31 01:18:46.4	100.850	-0.130	-0.030	0.780
2020/01/31 01:18:46.5	100.850	-0.100	-0.080	0.870
2020/01/31 01:18:46.6	100.850	-0.060	-0.130	0.950
2020/01/31 01:18:46.7	100.850	-0.020	-0.190	1.040
2020/01/31 01:18:46.8	100.860	0.020	-0.250	1.130
2020/01/31 01:18:46.9	100.860	0.060	-0.310	1.210
2020/01/31 01:18:47.0	100.880	0.100	-0.370	1.290
2020/01/31 01:18:47.1	100.890	0.140	-0.440	1.370
2020/01/31 01:18:47.2	100.910	0.180	-0.500	1.440
2020/01/31 01:18:47.3	100.920	0.230	-0.570	1.520
2020/01/31 01:18:47.4	100.940	0.270	-0.630	1.600
2020/01/31 01:18:47.5	100.960	0.310	-0.690	1.670
2020/01/31 01:18:47.6	100.980	0.350	-0.750	1.750
2020/01/31 01:18:47.7	101.000	0.390	-0.800	1.820
2020/01/31 01:18:47.8	101.020	0.430	-0.860	1.890
2020/01/31 01:18:47.9	101.050	0.470	-0.900	1.970
2020/01/31 01:18:48.0	101.060	0.500	-0.950	2.040
2020/01/31 01:18:48.1	101.080	0.530	-0.980	2.110
2020/01/31 01:18:48.2	101.110	0.550	-1.020	2.180
2020/01/31 01:18:48.3	101.130	0.570	-1.040	2.260
2020/01/31 01:18:48.4	101.150	0.590	-1.060	2.330
2020/01/31 01:18:48.5	101.170	0.600	-1.070	2.390
2020/01/31 01:18:48.6	101.190	0.610	-1.070	2.460
2020/01/31 01:18:48.7	101.210	0.620	-1.060	2.520
2020/01/31 01:18:48.8	101.230	0.620	-1.040	2.590
2020/01/31 01:18:48.9	101.250	0.610	-1.020	2.650
2020/01/31 01:18:49.0	101.260	0.600	-0.990	2.700
2020/01/31 01:18:49.1	101.280	0.590	-0.950	2.750
2020/01/31 01:18:49.2	101.290	0.570	-0.900	2.800
2020/01/31 01:18:49.3	101.310	0.550	-0.840	2.850
2020/01/31 01:18:49.4	101.320	0.520	-0.770	2.890
2020/01/31 01:18:49.5	101.340	0.490	-0.700	2.930
2020/01/31 01:18:49.6	101.350	0.450	-0.620	2.960
2020/01/31 01:18:49.7	101.360	0.420	-0.540	2.990
2020/01/31 01:18:49.8	101.360	0.380	-0.440	3.020
2020/01/31 01:18:49.9	101.370	0.340	-0.350	3.040
2020/01/31 01:18:50.0	101.360	0.290	-0.240	3.050
2020/01/31 01:18:50.1	101.360	0.250	-0.140	3.060
2020/01/31 01:18:50.2	101.360	0.200	-0.040	3.070
2020/01/31 01:18:50.3	101.360	0.150	0.070	3.070
2020/01/31 01:18:50.4	101.360	0.110	0.180	3.070
2020/01/31 01:18:50.5	101.350	0.060	0.290	3.070
2020/01/31 01:18:50.6	101.350	0.010	0.390	3.050
2020/01/31 01:18:50.7	101.340	-0.040	0.500	3.040
2020/01/31 01:18:50.8	101.330	-0.080	0.600	3.020
2020/01/31 01:18:50.9	101.310	-0.130	0.700	2.990
2020/01/31 01:18:51.0	101.310	-0.170	0.800	2.960
2020/01/31 01:18:51.1	101.290	-0.210	0.880	2.930
2020/01/31 01:18:51.2	101.270	-0.250	0.970	2.890
2020/01/31 01:18:51.3	101.250	-0.280	1.040	2.840
2020/01/31 01:18:51.4	101.230	-0.320	1.110	2.800
2020/01/31 01:18:51.5	101.210	-0.350	1.170	2.740
2020/01/31 01:18:51.6	101.190	-0.370	1.220	2.690
2020/01/31 01:18:51.7	101.170	-0.400	1.260	2.630
2020/01/31 01:18:51.8	101.140	-0.420	1.290	2.560
2020/01/31 01:18:51.9	101.120	-0.430	1.310	2.490
2020/01/31 01:18:52.0	101.090	-0.450	1.320	2.420
2020/01/31 01:18:52.1	101.060	-0.460	1.320	2.350
2020/01/31 01:18:52.2	101.040	-0.460	1.310	2.270
2020/01/31 01:18:52.3	101.020	-0.460	1.280	2.190
2020/01/31 01:18:52.4	100.990	-0.460	1.250	2.100
2020/01/31 01:18:52.5	100.970	-0.460	1.210	2.020
2020/01/31 01:18:52.6	100.950	-0.450	1.150	1.930
2020/01/31 01:18:52.7	100.930	-0.440	1.090	1.840
2020/01/31 01:18:52.8	100.910	-0.420	1.020	1.750
2020/01/31 01:18:52.9	100.890	-0.410	0.940	1.660
2020/01/31 01:18:53.0	100.840	-0.380	0.850	1.560
2020/01/31 01:18:53.1	100.830	-0.360	0.750	1.460
2020/01/31 01:18:53.2	100.820	-0.330	0.650	1.370
2020/01/31 01:18:53.3	100.800	-0.310	0.540	1.270
2020/01/31 01:18:53.4	100.790	-0.280	0.420	1.170
2020/01/31 01:18:53.5	100.780	-0.250	0.310	1.080
2020/01/31 01:18:53.6	100.780	-0.210	0.190	0.980
2020/01/31 01:18:53.7	100.770	-0.180	0.070	0.880
2020/01/31 01:18:53.8	100.770	-0.150	-0.060	0.780
2020/01/31 01:18:53.9	100.770	-0.110	-0.180	0.680
2020/01/31 01:18:54.0	100.780	-0.080	-0.310	0.580
2020/01/31 01:18:54.1	100.780	-0.050	-0.430	0.480
2020/01/31 01:18:54.2	100.780	-0.010	-0.540	0.390
2020/01/31 01:18:54.3	100.790	0.020	-0.660	0.290
2020/01/31 01:18:54.4	100.790	0.050	-0.770	0.200
2020/01/31 01:18:54.5	100.800	0.080	-0.870	0.100
2020/01/31 01:18:54.6	100.810	0.100	-0.970	0.010
2020/01/31 01:18:54.7	100.820	0.130	-1.070	-0.080
2020/01/31 01:18:54.8	100.830	0.150	-1.160	-0.160
2020/01/31 01:18:54.9	100.830	0.170	-1.240	-0.250
2020/01/31 01:18:55.0	100.850	0.190	-1.310	-0.320
2020/01/31 01:18:55.1	100.860	0.210	-1.370	-0.400
2020/01/31 01:18:55.2	100.870	0.220	-1.430	-0.470
2020/01/31 01:18:55.3	100.880	0.230	-1.480	-0.540
2020/01/31 01:18:55.4	100.880	0.240	-1.530	-0.610
2020/01/31 01:18:55.5	100.890	0.250	-1.560	-0.670
2020/01/31 01:18:55.6	100.900	0.250	-1.590	-0.720
2020/01/31 01:18:55.7	100.900	0.250	-1.600	-0.770
2020/01/31 01:18:55.8	100.900	0.250	-1.610	-0.820
2020/01/31 01:18:55.9	100.910	0.250	-1.620	-0.860
2020/01/31 01:18:56.0	100.930	0.250	-1.600	-0.890
2020/01/31 01:18:56.1	100.930	0.240	-1.590	-0.920
2020/01/31 01:18:56.2	100.920	0.230	-1.560	-0.940
2020/01/31 01:18:56.3	100.920	0.230	-1.530	-0.960
2020/01/31 01:18:56.4	100.920	0.220	-1.490	-0.960
2020/01/31 01:18:56.5	100.910	0.200	-1.450	-0.960
2020/01/31 01:18:56.6	100.900	0.190	-1.400	-0.960
2020/01/31 01:18:56.7	100.890	0.180	-1.340	-0.940
2020/01/31 01:18:56.8	100.880	0.160	-1.270	-0.920
2020/01/31 01:18:56.9	100.870	0.150	-1.200	-0.900
2020/01/31 01:18:57.0	100.880	0.130	-1.130	-0.860
2020/01/31 01:18:57.1	100.860	0.110	-1.050	-0.820
2020/01/31 01:18:57.2	100.850	0.090	-0.960	-0.770
2020/01/31 01:18:57.3	100.840	0.080	-0.870	-0.720
2020/01/31 01:18:57.4	100.820	0.060	-0.780	-0.660
2020/01/31 01:18:57.5	100.810	0.040	-0.690	-0.590
2020/01/31 01:18:57.6	100.800	0.020	-0.590	-0.520
2020/01/31 01:18:57.7	100.780	0.010	-0.500	-0.450
2020/01/31 01:18:57.8	100.770	-0.010	-0.400	-0.370
2020/01/31 01:18:57.9	100.760	-0.030	-0.300	-0.280
2020/01/31 01:18:58.0	100.750	-0.050	-0.190	-0.190
2020/01/31 01:18:58.1	100.740	-0.060	-0.090	-0.100
2020/01/31 01:18:58.2	100.730	-0.080	0.000	-0.010
2020/01/31 01:18:58.3	100.720	-0.100	0.100	0.090
2020/01/31 01:18:58.4	100.720	-0.120	0.190	0.190
2020/01/31 01:18:58.5	100.710	-0.130	0.290	0.290
2020/01/31 01:18:58.6	100.700	-0.150	0.380	0.400
2020/01/31 01:18:58.7	100.690	-0.160	0.460	0.500
2020/01/31 01:18:58.8	100.690	-0.180	0.540	0.610
2020/01/31 01:18:58.9	100.680	-0.200	0.620	0.720
2020/01/31 01:18:59.0	100.680	-0.210	0.700	0.830
2020/01/31 01:18:59.1	100.670	-0.230	0.770	0.930
2020/01/31 01:18:59.2	100.670	-0.240	0.830	1.040
2020/01/31 01:18:59.3	100.660	-0.260	0.890	1.150
2020/01/31 01:18:59.4	100.660	-0.270	0.950	1.250
2020/01/31 01:18:59.5	100.650	-0.280	1.000	1.350
2020/01/31 01:18:59.6	100.650	-0.300	1.040	1.460
2020/01/31 01:18:59.7	100.650	-0.310	1.080	1.550
2020/01/31 01:18:59.8	100.640	-0.320	1.110	1.650
2020/01/31 01:18:59.9	100.640	-0.330	1.130	1.740
2020/01/31 01:19:00.0	100.640	-0.340	1.150	1.830
2020/01/31 01:19:00.1	100.640	-0.350	1.160	1.920
2020/01/31 01:19:00.2	100.640	-0.350	1.160	2.000
2020/01/31 01:19:00.3	100.640	-0.360	1.160	2.070
2020/01/31 01:19:00.4	100.640	-0.360	1.150	2.150
2020/01/31 01:19:00.5	100.630	-0.370	1.130	2.220
2020/01/31 01:19:00.6	100.640	-0.370	1.100	2.280
2020/01/31 01:19:00.7	100.640	-0.370	1.070	2.340
2020/01/31 01:19:00.8	100.640	-0.360	1.030	2.400
2020/01/31 01:19:00.9	100.640	-0.360	0.980	2.450
2020/01/31 01:19:01.0	100.630	-0.350	0.930	2.490
2020/01/31 01:19:01.1	100.630	-0.340	0.870	2.540
2020/01/31 01:19:01.2	100.630	-0.330	0.810	2.570
2020/01/31 01:19:01.3	100.630	-0.310	0.730	2.610
2020/01/31 01:19:01.4	100.630	-0.290	0.660	2.640
2020/01/31 01:19:01.5	100.630	-0.270	0.580	2.670
2020/01/31 01:19:01.6	100.630	-0.250	0.490	2.690
2020/01/31 01:19:01.7	100.630	-0.220	0.400	2.710
2020/01/31 01:19:01.8	100.630	-0.200	0.310	2.730
2020/01/31 01:19:01.9	100.620	-0.160	0.210	2.740
2020/01/31 01:19:02.0	100.590	-0.130	0.110	2.750
2020/01/31 01:19:02.1	100.580	-0.100	0.010	2.760
2020/01/31 01:19:02.2	100.580	-0.060	-0.090	2.770
2020/01/31 01:19:02.3	100.570	-0.020	-0.200	2.780
2020/01/31 01:19:02.4	100.560	0.020	-0.300	2.790
2020/01/31 01:19:02.5	100.550	0.070	-0.400	2.790
2020/01/31 01:19:02.6	100.540	0.110	-0.500	2.800
2020/01/31 01:19:02.7	100.530	0.150	-0.600	2.800
2020/01/31 01:19:02.8	100.510	0.200	-0.690	2.810
2020/01/31 01:19:02.9	100.500	0.250	-0.790	2.810
2020/01/31 01:19:03.0	100.480	0.290	-0.880	2.810
2020/01/31 01:19:03.1	100.470	0.340	-0.960	2.810
2020/01/31 01:19:03.2	100.450	0.380	-1.040	2.810
2020/01/31 01:19:03.3	100.420	0.420	-1.110	2.810
2020/01/31 01:19:03.4	100.400	0.470	-1.180	2.800
2020/01/31 01:19:03.5	100.380	0.510	-1.240	2.800
2020/01/31 01:19:03.6	100.350	0.540	-1.300	2.790
2020/01/31 01:19:03.7	100.320	0.580	-1.350	2.780
2020/01/31 01:19:03.8	100.300	0.610	-1.390	2.780
2020/01/31 01:19:03.9	100.270	0.640	-1.420	2.760
2020/01/31 01:19:04.0	100.220	0.670	-1.440	2.750
2020/01/31 01:19:04.1	100.190	0.700	-1.460	2.740
2020/01/31 01:19:04.2	100.170	0.720	-1.470	2.720
2020/01/31 01:19:04.3	100.140	0.730	-1.470	2.700
2020/01/31 01:19:04.4	100.120	0.740	-1.470	2.670
2020/01/31 01:19:04.5	100.090	0.750	-1.450	2.650
2020/01/31 01:19:04.6	100.070	0.760	-1.430	2.620
2020/01/31 01:19:04.7	100.050	0.760	-1.400	2.580
2020/01/31 01:19:04.8	100.030	0.750	-1.370	2.550
2020/01/31 01:19:04.9	100.010	0.740	-1.320	2.510
2020/01/31 01:19:05.0	99.980	0.730	-1.270	2.460
2020/01/31 01:19:05.1	99.970	0.720	-1.210	2.420
2020/01/31 01:19:05.2	99.960	0.690	-1.150	2.370
2020/01/31 01:19:05.3	99.950	0.670	-1.080	2.320
2020/01/31 01:19:05.4	99.950	0.640	-1.010	2.270
2020/01/31 01:19:05.5	99.950	0.610	-0.930	2.220
2020/01/31 01:19:05.6	99.950	0.580	-0.850	2.160
2020/01/31 01:19:05.7	99.950	0.540	-0.770	2.100
2020/01/31 01:19:05.8	99.960	0.500	-0.680	2.040
2020/01/31 01:19:05.9	99.970	0.460	-0.590	1.980
2020/01/31 01:19:06.0	99.980	0.420	-0.500	1.920
2020/01/31 01:19:06.1	99.990	0.370	-0.410	1.860
2020/01/31 01:19:06.2	100.010	0.330	-0.320	1.790
2020/01/31 01:19:06.3	100.020	0.280	-0.230	1.730
2020/01/31 01:19:06.4	100.040	0.230	-0.140	1.670
2020/01/31 01:19:06.5	100.060	0.190	-0.050	1.610
2020/01/31 01:19:06.6	100.080	0.140	0.030	1.540
2020/01/31 01:19:06.7	100.100	0.090	0.120	1.480
2020/01/31 01:19:06.8	100.120	0.040	0.200	1.420
2020/01/31 01:19:06.9	100.140	-0.000	0.280	1.360
2020/01/31 01:19:07.0	100.170	-0.050	0.350	1.300
2020/01/31 01:19:07.1	100.190	-0.090	0.420	1.240
2020/01/31 01:19:07.2	100.220	-0.140	0.490	1.190
2020/01/31 01:19:07.3	100.240	-0.180	0.550	1.130
2020/01/31 01:19:07.4	100.260	-0.220	0.610	1.080
2020/01/31 01:19:07.5	100.280	-0.250	0.660	1.030
2020/01/31 01:19:07.6	100.300	-0.290	0.700	0.980
2020/01/31 01:19:07.7	100.320	-0.320	0.750	0.930
2020/01/31 01:19:07.8	100.340	-0.350	0.780	0.880
2020/01/31 01:19:07.9	100.360	-0.380	0.810	0.830
2020/01/31 01:19:08.0	100.380	-0.410	0.840	0.780
2020/01/31 01:19:08.1	100.390	-0.430	0.860	0.740
2020/01/31 01:19:08.2	100.400	-0.450	0.870	0.700
2020/01/31 01:19:08.3	100.410	-0.470	0.880	0.650
2020/01/31 01:19:08.4	100.420	-0.490	0.880	0.610
2020/01/31 01:19:08.5	100.430	-0.500	0.880	0.570
2020/01/31 01:19:08.6	100.440	-0.520	0.870	0.530
2020/01/31 01:19:08.7	100.440	-0.520	0.860	0.490
2020/01/31 01:19:08.8	100.450	-0.530	0.840	0.460
2020/01/31 01:19:08.9	100.450	-0.540	0.820	0.420
2020/01/31 01:19:09.0	100.460	-0.540	0.790	0.380
2020/01/31 01:19:09.1	100.460	-0.540	0.760	0.350
2020/01/31 01:19:09.2	100.460	-0.540	0.730	0.310
2020/01/31 01:19:09.3	100.460	-0.530	0.690	0.280
2020/01/31 01:19:09.4	100.450	-0.530	0.650	0.240
2020/01/31 01:19:09.5	100.440	-0.520	0.600	0.210
2020/01/31 01:19:09.6	100.440	-0.510	0.560	0.180
2020/01/31 01:19:09.7	100.430	-0.500	0.510	0.150
2020/01/31 01:19:09.8	100.420	-0.490	0.450	0.130
2020/01/31 01:19:09.9	100.410	-0.480	0.400	0.100
2020/01/31 01:19:10.0	100.410	-0.470	0.350	0.080
2020/01/31 01:19:10.1	100.400	-0.460	0.300	0.070
2020/01/31 01:19:10.2	100.390	-0.440	0.240	0.050
2020/01/31 01:19:10.3	100.370	-0.430	0.180	0.050
2020/01/31 01:19:10.4	100.350	-0.410	0.130	0.040
2020/01/31 01:19:10.5	100.340	-0.400	0.080	0.040
2020/01/31 01:19:10.6	100.320	-0.380	0.020	0.050
2020/01/31 01:19:10.7	100.300	-0.360	-0.030	0.060
2020/01/31 01:19:10.8	100.280	-0.350	-0.080	0.070
2020/01/31 01:19:10.9	100.250	-0.330	-0.130	0.090
2020/01/31 01:19:11.0	100.260	-0.320	-0.170	0.110
2020/01/31 01:19:11.1	100.230	-0.300	-0.220	0.130
2020/01/31 01:19:11.2	100.210	-0.280	-0.260	0.160
2020/01/31 01:19:11.3	100.190	-0.270	-0.300	0.200
2020/01/31 01:19:11.4	100.160	-0.250	-0.330	0.230
2020/01/31 01:19:11.5	100.130	-0.240	-0.370	0.270
2020/01/31 01:19:11.6	100.110	-0.220	-0.400	0.310
2020/01/31 01:19:11.7	100.080	-0.210	-0.430	0.350
2020/01/31 01:19:11.8	100.060	-0.190	-0.450	0.400
2020/01/31 01:19:11.9	100.040	-0.180	-0.480	0.440
2020/01/31 01:19:12.0	100.010	-0.160	-0.500	0.490
2020/01/31 01:19:12.1	99.990	-0.150	-0.520	0.530
2020/01/31 01:19:12.2	99.970	-0.130	-0.530	0.570
2020/01/31 01:19:12.3	99.950	-0.120	-0.550	0.610
2020/01/31 01:19:12.4	99.930	-0.100	-0.560	0.650
2020/01/31 01:19:12.5	99.910	-0.080	-0.580	0.690
2020/01/31 01:19:12.6	99.900	-0.070	-0.590	0.720
2020/01/31 01:19:12.7	99.890	-0.050	-0.600	0.760
2020/01/31 01:19:12.8	99.880	-0.030	-0.610	0.780
2020/01/31 01:19:12.9	99.880	-0.010	-0.630	0.810
2020/01/31 01:19:13.0	99.880	0.010	-0.630	0.830
2020/01/31 01:19:13.1	99.880	0.030	-0.640	0.850
2020/01/31 01:19:13.2	99.880	0.050	-0.660	0.870
2020/01/31 01:19:13.3	99.880	0.080	-0.670	0.890
2020/01/31 01:19:13.4	99.880	0.100	-0.680	0.900
2020/01/31 01:19:13.5	99.890	0.130	-0.690	0.910
2020/01/31 01:19:13.6	99.900	0.160	-0.700	0.910
2020/01/31 01:19:13.7	99.910	0.180	-0.710	0.920
2020/01/31 01:19:13.8	99.920	0.210	-0.720	0.920
2020/01/31 01:19:13.9	99.930	0.240	-0.730	0.920
2020/01/31 01:19:14.0	99.950	0.270	-0.740	0.920
2020/01/31 01:19:14.1	99.960	0.300	-0.750	0.910
2020/01/31 01:19:14.2	99.980	0.330	-0.760	0.910
2020/01/31 01:19:14.3	99.990	0.360	-0.760	0.900
2020/01/31 01:19:14.4	100.010	0.390	-0.770	0.890
2020/01/31 01:19:14.5	100.020	0.420	-0.770	0.890
2020/01/31 01:19:14.6	100.040	0.450	-0.780	0.880
2020/01/31 01:19:14.7	100.050	0.480	-0.780	0.870
2020/01/31 01:19:14.8	100.060	0.500	-0.780	0.870
2020/01/31 01:19:14.9	100.070	0.530	-0.780	0.870
2020/01/31 01:19:15.0	100.100	0.550	-0.770	0.860
2020/01/31 01:19:15.1	100.110	0.580	-0.770	0.870
2020/01/31 01:19:15.2	100.110	0.600	-0.760	0.870
2020/01/31 01:19:15.3	100.120	0.620	-0.740	0.880
2020/01/31 01:19:15.4	100.120	0.630	-0.730	0.890
2020/01/31 01:19:15.5	100.130	0.640	-0.710	0.900
2020/01/31 01:19:15.6	100.130	0.650	-0.690	0.910
2020/01/31 01:19:15.7	100.120	0.660	-0.660	0.930
2020/01/31 01:19:15.8	100.120	0.670	-0.630	0.960
2020/01/31 01:19:15.9	100.120	0.670	-0.590	0.980
2020/01/31 01:19:16.0	100.100	0.670	-0.550	1.010
2020/01/31 01:19:16.1	100.090	0.660	-0.510	1.050
2020/01/31 01:19:16.2	100.080	0.650	-0.460	1.080
2020/01/31 01:19:16.3	100.060	0.640	-0.410	1.120
2020/01/31 01:19:16.4	100.050	0.620	-0.360	1.160
2020/01/31 01:19:16.5	100.030	0.600	-0.300	1.200
2020/01/31 01:19:16.6	100.010	0.580	-0.250	1.250
2020/01/31 01:19:16.7	100.000	0.560	-0.180	1.290
2020/01/31 01:19:16.8	99.970	0.530	-0.120	1.340
2020/01/31 01:19:16.9	99.950	0.500	-0.060	1.390
2020/01/31 01:19:17.0	99.920	0.460	0.010	1.430
2020/01/31 01:19:17.1	99.900	0.430	0.070	1.480
2020/01/31 01:19:17.2	99.880	0.390	0.140	1.530
2020/01/31 01:19:17.3	99.860	0.350	0.200	1.580
2020/01/31 01:19:17.4	99.830	0.310	0.270	1.620
2020/01/31 01:19:17.5	99.810	0.270	0.330	1.660
2020/01/31 01:19:17.6	99.790	0.220	0.390	1.710
2020/01/31 01:19:17.7	99.770	0.180	0.440	1.740
2020/01/31 01:19:17.8	99.750	0.130	0.500	1.780
2020/01/31 01:19:17.9	99.730	0.080	0.550	1.820
2020/01/31 01:19:18.0	99.710	0.040	0.590	1.850
2020/01/31 01:19:18.1	99.690	-0.010	0.630	1.880
2020/01/31 01:19:18.2	99.670	-0.050	0.670	1.900
2020/01/31 01:19:18.3	99.660	-0.100	0.700	1.920
2020/01/31 01:19:18.4	99.650	-0.140	0.720	1.940
2020/01/31 01:19:18.5	99.640	-0.180	0.740	1.960
2020/01/31 01:19:18.6	99.630	-0.220	0.750	1.970
2020/01/31 01:19:18.7	99.620	-0.260	0.750	1.980
2020/01/31 01:19:18.8	99.620	-0.300	0.750	1.990
2020/01/31 01:19:18.9	99.620	-0.330	0.740	2.000
2020/01/31 01:19:19.0	99.610	-0.360	0.720	2.000
2020/01/31 01:19:19.1	99.610	-0.390	0.700	2.000
2020/01/31 01:19:19.2	99.610	-0.410	0.670	2.000
2020/01/31 01:19:19.3	99.620	-0.430	0.630	2.000
2020/01/31 01:19:19.4	99.620	-0.450	0.590	2.000
2020/01/31 01:19:19.5	99.630	-0.470	0.540	1.990
2020/01/31 01:19:19.6	99.640	-0.480	0.490	1.990
2020/01/31 01:19:19.7	99.650	-0.490	0.440	1.980
2020/01/31 01:19:19.8	99.660	-0.500	0.380	1.970
2020/01/31 01:19:19.9	99.670	-0.500	0.320	1.960
2020/01/31 01:19:20.0	99.680	-0.500	0.250	1.960
2020/01/31 01:19:20.1	99.700	-0.500	0.190	1.940
2020/01/31 01:19:20.2	99.710	-0.490	0.120	1.930
2020/01/31 01:19:20.3	99.720	-0.490	0.050	1.920
2020/01/31 01:19:20.4	99.740	-0.480	-0.010	1.900
2020/01/31 01:19:20.5	99.760	-0.460	-0.070	1.880
2020/01/31 01:19:20.6	99.770	-0.450	-0.140	1.860
2020/01/31 01:19:20.7	99.790	-0.440	-0.200	1.840
2020/01/31 01:19:20.8	99.810	-0.420	-0.250	1.810
2020/01/31 01:19:20.9	99.830	-0.400	-0.300	1.790
2020/01/31 01:19:21.0	99.860	-0.380	-0.350	1.760
2020/01/31 01:19:21.1	99.880	-0.370	-0.400	1.730
2020/01/31 01:19:21.2	99.900	-0.350	-0.430	1.700
2020/01/31 01:19:21.3	99.920	-0.330	-0.470	1.670
2020/01/31 01:19:21.4	99.940	-0.310	-0.500	1.630
2020/01/31 01:19:21.5	99.960	-0.290	-0.520	1.600
2020/01/31 01:19:21.6	99.980	-0.270	-0.540	1.560
2020/01/31 01:19:21.7	100.000	-0.250	-0.550	1.530
2020/01/31 01:19:21.8	100.020	-0.230	-0.560	1.490
2020/01/31 01:19:21.9	100.030	-0.220	-0.560	1.460
2020/01/31 01:19:22.0	100.040	-0.200	-0.570	1.420
2020/01/31 01:19:22.1	100.050	-0.190	-0.560	1.390
2020/01/31 01:19:22.2	100.060	-0.180	-0.550	1.360
2020/01/31 01:19:22.3	100.060	-0.170	-0.540	1.330
2020/01/31 01:19:22.4	100.060	-0.160	-0.520	1.300
2020/01/31 01:19:22.5	100.060	-0.150	-0.500	1.280
2020/01/31 01:19:22.6	100.060	-0.140	-0.470	1.250
2020/01/31 01:19:22.7	100.060	-0.140	-0.450	1.230
2020/01/31 01:19:22.8	100.050	-0.130	-0.420	1.210
2020/01/31 01:19:22.9	100.040	-0.130	-0.390	1.180
2020/01/31 01:19:23.0	100.010	-0.130	-0.360	1.160
2020/01/31 01:19:23.1	99.990	-0.130	-0.320	1.140
2020/01/31 01:19:23.2	99.970	-0.130	-0.290	1.120
2020/01/31 01:19:23.3	99.950	-0.130	-0.260	1.110
2020/01/31 01:19:23.4	99.920	-0.130	-0.230	1.090
2020/01/31 01:19:23.5	99.890	-0.140	-0.200	1.070
2020/01/31 01:19:23.6	99.860	-0.140	-0.170	1.060
2020/01/31 01:19:23.7	99.820	-0.140	-0.140	1.040
2020/01/31 01:19:23.8	99.790	-0.140	-0.120	1.020
2020/01/31 01:19:23.9	99.750	-0.150	-0.100	1.010
2020/01/31 01:19:24.0	99.720	-0.150	-0.070	1.000
2020/01/31 01:19:24.1	99.680	-0.150	-0.060	0.980
2020/01/31 01:19:24.2	99.630	-0.150	-0.040	0.970
2020/01/31 01:19:24.3	99.590	-0.150	-0.030	0.950
2020/01/31 01:19:24.4	99.550	-0.150	-0.030	0.940
2020/01/31 01:19:24.5	99.510	-0.140	-0.020	0.930
2020/01/31 01:19:24.6	99.460	-0.140	-0.020	0.910
2020/01/31 01:19:24.7	99.420	-0.130	-0.030	0.900
2020/01/31 01:19:24.8	99.370	-0.130	-0.040	0.880
2020/01/31 01:19:24.9	99.330	-0.120	-0.050	0.870
2020/01/31 01:19:25.0	99.290	-0.110	-0.070	0.850
2020/01/31 01:19:25.1	99.250	-0.090	-0.090	0.840
2020/01/31 01:19:25.2	99.210	-0.080	-0.120	0.830
2020/01/31 01:19:25.3	99.170	-0.060	-0.140	0.810
2020/01/31 01:19:25.4	99.130	-0.040	-0.170	0.800
2020/01/31 01:19:25.5	99.100	-0.020	-0.200	0.780
2020/01/31 01:19:25.6	99.070	0.000	-0.240	0.760
2020/01/31 01:19:25.7	99.040	0.030	-0.270	0.740
2020/01/31 01:19:25.8	99.010	0.050	-0.310	0.720
2020/01/31 01:19:25.9	98.990	0.080	-0.350	0.700
2020/01/31 01:19:26.0	98.950	0.110	-0.390	0.680
2020/01/31 01:19:26.1	98.930	0.140	-0.430	0.660
2020/01/31 01:19:26.2	98.910	0.170	-0.470	0.640
2020/01/31 01:19:26.3	98.900	0.200	-0.510	0.610
2020/01/31 01:19:26.4	98.890	0.230	-0.550	0.590
2020/01/31 01:19:26.5	98.880	0.260	-0.580	0.560
2020/01/31 01:19:26.6	98.870	0.290	-0.610	0.540
2020/01/31 01:19:26.7	98.870	0.320	-0.650	0.510
2020/01/31 01:19:26.8	98.870	0.350	-0.670	0.480
2020/01/31 01:19:26.9	98.870	0.380	-0.700	0.450
2020/01/31 01:19:27.0	98.880	0.410	-0.720	0.430
2020/01/31 01:19:27.1	98.890	0.440	-0.730	0.400
2020/01/31 01:19:27.2	98.890	0.460	-0.740	0.370
2020/01/31 01:19:27.3	98.900	0.480	-0.740	0.340
2020/01/31 01:19:27.4	98.910	0.500	-0.740	0.310
2020/01/31 01:19:27.5	98.920	0.510	-0.730	0.280
2020/01/31 01:19:27.6	98.930	0.530	-0.720	0.250
2020/01/31 01:19:27.7	98.940	0.540	-0.700	0.220
2020/01/31 01:19:27.8	98.950	0.540	-0.670	0.190
2020/01/31 01:19:27.9	98.970	0.550	-0.640	0.160
2020/01/31 01:19:28.0	98.980	0.550	-0.610	0.130
2020/01/31 01:19:28.1	99.000	0.550	-0.560	0.110
2020/01/31 01:19:28.2	99.010	0.540	-0.510	0.080
2020/01/31 01:19:28.3	99.030	0.530	-0.460	0.050
2020/01/31 01:19:28.4	99.040	0.520	-0.400	0.030
2020/01/31 01:19:28.5	99.060	0.500	-0.340	0.000
2020/01/31 01:19:28.6	99.080	0.480	-0.280	-0.020
2020/01/31 01:19:28.7	99.090	0.460	-0.210	-0.040
2020/01/31 01:19:28.8	99.110	0.430	-0.140	-0.060
2020/01/31 01:19:28.9	99.130	0.410	-0.070	-0.070
2020/01/31 01:19:29.0	99.140	0.380	0.010	-0.080
2020/01/31 01:19:29.1	99.160	0.350	0.080	-0.090
2020/01/31 01:19:29.2	99.170	0.310	0.150	-0.090
2020/01/31 01:19:29.3	99.190	0.280	0.220	-0.090
2020/01/31 01:19:29.4	99.200	0.250	0.280	-0.090
2020/01/31 01:19:29.5	99.210	0.210	0.350	-0.080
2020/01/31 01:19:29.6	99.220	0.180	0.410	-0.070
2020/01/31 01:19:29.7	99.230	0.140	0.460	-0.050
2020/01/31 01:19:29.8	99.240	0.110	0.510	-0.030
2020/01/31 01:19:29.9	99.240	0.070	0.560	-0.000
2020/01/31 01:19:30.0	99.250	0.040	0.600	0.030
2020/01/31 01:19:30.1	99.250	0.010	0.640	0.060
2020/01/31 01:19:30.2	99.250	-0.020	0.670	0.100
2020/01/31 01:19:30.3	99.250	-0.040	0.690	0.150
2020/01/31 01:19:30.4	99.240	-0.070	0.700	0.200
2020/01/31 01:19:30.5	99.230	-0.090	0.710	0.250
2020/01/31 01:19:30.6	99.220	-0.110	0.710	0.310
2020/01/31 01:19:30.7	99.210	-0.130	0.700	0.370
2020/01/31 01:19:30.8	99.200	-0.140	0.690	0.440
2020/01/31 01:19:30.9	99.180	-0.150	0.670	0.510
2020/01/31 01:19:31.0	99.160	-0.160	0.650	0.580
2020/01/31 01:19:31.1	99.150	-0.170	0.620	0.660
2020/01/31 01:19:31.2	99.130	-0.180	0.580	0.730
2020/01/31 01:19:31.3	99.110	-0.180	0.550	0.810
2020/01/31 01:19:31.4	99.090	-0.180	0.500	0.890
2020/01/31 01:19:31.5	99.070	-0.180	0.460	0.980
2020/01/31 01:19:31.6	99.050	-0.180	0.410	1.060
2020/01/31 01:19:31.7	99.030	-0.170	0.360	1.140
2020/01/31 01:19:31.8	99.000	-0.170	0.310	1.220
2020/01/31 01:19:31.9	98.980	-0.160	0.250	1.310
2020/01/31 01:19:32.0	98.970	-0.150	0.190	1.390
2020/01/31 01:19:32.1	98.950	-0.140	0.140	1.470
2020/01/31 01:19:32.2	98.930	-0.140	0.080	1.550
2020/01/31 01:19:32.3	98.920	-0.130	0.030	1.640
2020/01/31 01:19:32.4	98.900	-0.120	-0.030	1.710
2020/01/31 01:19:32.5	98.880	-0.110	-0.090	1.790
2020/01/31 01:19:32.6	98.860	-0.100	-0.140	1.870
2020/01/31 01:19:32.7	98.840	-0.090	-0.190	1.940
2020/01/31 01:19:32.8	98.830	-0.080	-0.240	2.020
2020/01/31 01:19:32.9	98.810	-0.080	-0.290	2.090
2020/01/31 01:19:33.0	98.770	-0.070	-0.340	2.160
2020/01/31 01:19:33.1	98.760	-0.070	-0.380	2.220
2020/01/31 01:19:33.2	98.740	-0.060	-0.420	2.290
2020/01/31 01:19:33.3	98.720	-0.060	-0.460	2.350
2020/01/31 01:19:33.4	98.710	-0.060	-0.490	2.410
2020/01/31 01:19:33.5	98.690	-0.060	-0.520	2.470
2020/01/31 01:19:33.6	98.670	-0.060	-0.550	2.520
2020/01/31 01:19:33.7	98.650	-0.070	-0.570	2.570
2020/01/31 01:19:33.8	98.630	-0.070	-0.590	2.620
2020/01/31 01:19:33.9	98.610	-0.080	-0.610	2.670
2020/01/31 01:19:34.0	98.590	-0.080	-0.630	2.710
2020/01/31 01:19:34.1	98.570	-0.090	-0.640	2.750
2020/01/31 01:19:34.2	98.550	-0.100	-0.650	2.780
2020/01/31 01:19:34.3	98.530	-0.110	-0.660	2.810
2020/01/31 01:19:34.4	98.510	-0.120	-0.670	2.830
2020/01/31 01:19:34.5	98.490	-0.130	-0.670	2.850
2020/01/31 01:19:34.6	98.480	-0.140	-0.670	2.860
2020/01/31 01:19:34.7	98.460	-0.150	-0.670	2.870
2020/01/31 01:19:34.8	98.440	-0.160	-0.670	2.870
2020/01/31 01:19:34.9	98.420	-0.170	-0.660	2.860
2020/01/31 01:19:35.0	98.420	-0.180	-0.650	2.850
2020/01/31 01:19:35.1	98.400	-0.190	-0.640	2.840
2020/01/31 01:19:35.2	98.390	-0.200	-0.640	2.820
2020/01/31 01:19:35.3	98.380	-0.210	-0.620	2.790
2020/01/31 01:19:35.4	98.370	-0.220	-0.610	2.760
2020/01/31 01:19:35.5	98.370	-0.230	-0.600	2.720
2020/01/31 01:19:35.6	98.360	-0.230	-0.580	2.670
2020/01/31 01:19:35.7	98.360	-0.240	-0.560	2.620
2020/01/31 01:19:35.8	98.360	-0.240	-0.550	2.570
2020/01/31 01:19:35.9	98.360	-0.240	-0.530	2.510
2020/01/31 01:19:36.0	98.360	-0.250	-0.510	2.440
2020/01/31 01:19:36.1	98.370	-0.240	-0.490	2.370
2020/01/31 01:19:36.2	98.380	-0.240	-0.470	2.310
2020/01/31 01:19:36.3	98.390	-0.240	-0.450	2.230
2020/01/31 01:19:36.4	98.400	-0.240	-0.430	2.160
2020/01/31 01:19:36.5	98.410	-0.230	-0.410	2.080
2020/01/31 01:19:36.6	98.420	-0.220	-0.390	2.010
2020/01/31 01:19:36.7	98.430	-0.210	-0.370	1.930
2020/01/31 01:19:36.8	98.450	-0.210	-0.350	1.850
2020/01/31 01:19:36.9	98.460	-0.200	-0.320	1.780
2020/01/31 01:19:37.0	98.460	-0.180	-0.300	1.700
2020/01/31 01:19:37.1	98.470	-0.170	-0.270	1.630
2020/01/31 01:19:37.2	98.490	-0.160	-0.250	1.550
2020/01/31 01:19:37.3	98.500	-0.150	-0.220	1.480
2020/01/31 01:19:37.4	98.520	-0.140	-0.190	1.410
2020/01/31 01:19:37.5	98.530	-0.120	-0.170	1.340
2020/01/31 01:19:37.6	98.540	-0.110	-0.140	1.270
2020/01/31 01:19:37.7	98.550	-0.100	-0.110	1.200
2020/01/31 01:19:37.8	98.560	-0.080	-0.080	1.140
2020/01/31 01:19:37.9	98.560	-0.070	-0.050	1.080
2020/01/31 01:19:38.0	98.570	-0.060	-0.020	1.010
2020/01/31 01:19:38.1	98.570	-0.050	0.010	0.960
2020/01/31 01:19:38.2	98.570	-0.040	0.040	0.900
2020/01/31 01:19:38.3	98.570	-0.030	0.070	0.850
2020/01/31 01:19:38.4	98.560	-0.020	0.090	0.800
2020/01/31 01:19:38.5	98.560	-0.010	0.120	0.750
2020/01/31 01:19:38.6	98.550	-0.000	0.150	0.700
2020/01/31 01:19:38.7	98.530	0.000	0.180	0.650
2020/01/31 01:19:38.8	98.520	0.010	0.200	0.600
2020/01/31 01:19:38.9	98.500	0.010	0.220	0.560
2020/01/31 01:19:39.0	98.490	0.020	0.250	0.520
2020/01/31 01:19:39.1	98.470	0.020	0.270	0.480
2020/01/31 01:19:39.2	98.450	0.030	0.280	0.430
2020/01/31 01:19:39.3	98.420	0.030	0.300	0.390
2020/01/31 01:19:39.4	98.400	0.030	0.310	0.350
2020/01/31 01:19:39.5	98.370	0.030	0.320	0.300
2020/01/31 01:19:39.6	98.350	0.030	0.320	0.260
2020/01/31 01:19:39.7	98.320	0.030	0.320	0.220
2020/01/31 01:19:39.8	98.290	0.040	0.320	0.170
2020/01/31 01:19:39.9	98.260	0.040	0.310	0.130
2020/01/31 01:19:40.0	98.250	0.040	0.310	0.080
2020/01/31 01:19:40.1	98.220	0.040	0.290	0.040
2020/01/31 01:19:40.2	98.190	0.040	0.280	-0.000
2020/01/31 01:19:40.3	98.170	0.040	0.260	-0.050
2020/01/31 01:19:40.4	98.140	0.050	0.230	-0.090
2020/01/31 01:19:40.5	98.110	0.050	0.200	-0.130
2020/01/31 01:19:40.6	98.090	0.060	0.170	-0.170
2020/01/31 01:19:40.7	98.060	0.060	0.130	-0.210
2020/01/31 01:19:40.8	98.040	0.070	0.100	-0.250
2020/01/31 01:19:40.9	98.020	0.080	0.050	-0.290
2020/01/31 01:19:41.0	98.020	0.090	0.010	-0.330
2020/01/31 01:19:41.1	98.000	0.100	-0.040	-0.370
2020/01/31 01:19:41.2	97.980	0.110	-0.090	-0.400
2020/01/31 01:19:41.3	97.970	0.120	-0.140	-0.440
2020/01/31 01:19:41.4	97.950	0.130	-0.200	-0.470
2020/01/31 01:19:41.5	97.940	0.150	-0.250	-0.500
2020/01/31 01:19:41.6	97.940	0.160	-0.310	-0.530
2020/01/31 01:19:41.7	97.930	0.180	-0.360	-0.560
2020/01/31 01:19:41.8	97.920	0.190	-0.420	-0.590
2020/01/31 01:19:41.9	97.920	0.210	-0.470	-0.610
2020/01/31 01:19:42.0	97.940	0.230	-0.530	-0.630
2020/01/31 01:19:42.1	97.940	0.240	-0.580	-0.650
2020/01/31 01:19:42.2	97.940	0.260	-0.620	-0.660
2020/01/31 01:19:42.3	97.950	0.270	-0.670	-0.670
2020/01/31 01:19:42.4	97.950	0.290	-0.710	-0.670
2020/01/31 01:19:42.5	97.960	0.300	-0.740	-0.670
2020/01/31 01:19:42.6	97.970	0.310	-0.770	-0.670
2020/01/31 01:19:42.7	97.980	0.320	-0.790	-0.660
2020/01/31 01:19:42.8	97.990	0.320	-0.810	-0.650
2020/01/31 01:19:42.9	98.000	0.330	-0.820	-0.630
2020/01/31 01:19:43.0	98.020	0.330	-0.830	-0.610
2020/01/31 01:19:43.1	98.030	0.330	-0.830	-0.580
2020/01/31 01:19:43.2	98.050	0.330	-0.820	-0.550
2020/01/31 01:19:43.3	98.060	0.330	-0.800	-0.510
2020/01/31 01:19:43.4	98.080	0.320	-0.780	-0.480
2020/01/31 01:19:43.5	98.090	0.310	-0.750	-0.430
2020/01/31 01:19:43.6	98.110	0.300	-0.720	-0.390
2020/01/31 01:19:43.7	98.120	0.280	-0.680	-0.330
2020/01/31 01:19:43.8	98.140	0.270	-0.630	-0.280
2020/01/31 01:19:43.9	98.150	0.250	-0.580	-0.220
2020/01/31 01:19:44.0	98.170	0.230	-0.530	-0.160
2020/01/31 01:19:44.1	98.190	0.200	-0.470	-0.100
2020/01/31 01:19:44.2	98.200	0.180	-0.400	-0.030
2020/01/31 01:19:44.3	98.220	0.150	-0.340	0.040
2020/01/31 01:19:44.4	98.230	0.120	-0.270	0.110
2020/01/31 01:19:44.5	98.250	0.090	-0.200	0.180
2020/01/31 01:19:44.6	98.260	0.060	-0.130	0.250
2020/01/31 01:19:44.7	98.280	0.030	-0.060	0.330
2020/01/31 01:19:44.8	98.290	-0.010	0.010	0.400
2020/01/31 01:19:44.9	98.310	-0.040	0.080	0.480
2020/01/31 01:19:45.0	98.310	-0.070	0.150	0.560
2020/01/31 01:19:45.1	98.330	-0.110	0.220	0.640
2020/01/31 01:19:45.2	98.340	-0.140	0.280	0.710
2020/01/31 01:19:45.3	98.360	-0.170	0.350	0.790
2020/01/31 01:19:45.4	98.380	-0.200	0.400	0.860
2020/01/31 01:19:45.5	98.390	-0.230	0.460	0.940
2020/01/31 01:19:45.6	98.410	-0.260	0.510	1.010
2020/01/31 01:19:45.7	98.420	-0.290	0.550	1.090
2020/01/31 01:19:45.8	98.440	-0.320	0.590	1.160
2020/01/31 01:19:45.9	98.450	-0.340	0.620	1.240
2020/01/31 01:19:46.0	98.450	-0.360	0.650	1.300
2020/01/31 01:19:46.1	98.460	-0.380	0.680	1.370
2020/01/31 01:19:46.2	98.480	-0.400	0.690	1.450
2020/01/31 01:19:46.3	98.490	-0.410	0.700	1.520
2020/01/31 01:19:46.4	98.490	-0.420	0.700	1.590
2020/01/31 01:19:46.5	98.500	-0.430	0.700	1.660
2020/01/31 01:19:46.6	98.510	-0.430	0.690	1.730
2020/01/31 01:19:46.7	98.510	-0.430	0.670	1.800
2020/01/31 01:19:46.8	98.510	-0.430	0.650	1.870
2020/01/31 01:19:46.9	98.510	-0.430	0.620	1.940
2020/01/31 01:19:47.0	98.490	-0.420	0.580	2.020
2020/01/31 01:19:47.1	98.490	-0.410	0.540	2.090
2020/01/31 01:19:47.2	98.480	-0.400	0.500	2.160
2020/01/31 01:19:47.3	98.470	-0.380	0.450	2.230
2020/01/31 01:19:47.4	98.450	-0.370	0.400	2.310
2020/01/31 01:19:47.5	98.440	-0.350	0.350	2.380
2020/01/31 01:19:47.6	98.420	-0.330	0.290	2.450
2020/01/31 01:19:47.7	98.400	-0.310	0.230	2.530
2020/01/31 01:19:47.8	98.380	-0.280	0.170	2.600
2020/01/31 01:19:47.9	98.360	-0.260	0.110	2.670
2020/01/31 01:19:48.0	98.330	-0.230	0.040	2.730
2020/01/31 01:19:48.1	98.310	-0.210	-0.020	2.800
2020/01/31 01:19:48.2	98.280	-0.180	-0.080	2.870
2020/01/31 01:19:48.3	98.260	-0.160	-0.140	2.930
2020/01/31 01:19:48.4	98.230	-0.130	-0.200	3.000
2020/01/31 01:19:48.5	98.210	-0.110	-0.260	3.050
2020/01/31 01:19:48.6	98.190	-0.080	-0.320	3.110
2020/01/31 01:19:48.7	98.160	-0.060	-0.370	3.160
2020/01/31 01:19:48.8	98.140	-0.040	-0.430	3.210
2020/01/31 01:19:48.9	98.120	-0.010	-0.470	3.250
2020/01/31 01:19:49.0	98.120	0.010	-0.520	3.290
2020/01/31 01:19:49.1	98.100	0.030	-0.560	3.320
2020/01/31 01:19:49.2	98.080	0.040	-0.600	3.340
2020/01/31 01:19:49.3	98.060	0.060	-0.630	3.360
2020/01/31 01:19:49.4	98.040	0.080	-0.660	3.370
2020/01/31 01:19:49.5	98.030	0.090	-0.690	3.380
2020/01/31 01:19:49.6	98.010	0.100	-0.720	3.380
2020/01/31 01:19:49.7	98.000	0.120	-0.740	3.370
2020/01/31 01:19:49.8	97.980	0.130	-0.750	3.350
2020/01/31 01:19:49.9	97.970	0.130	-0.770	3.330
2020/01/31 01:19:50.0	97.950	0.140	-0.780	3.300
2020/01/31 01:19:50.1	97.940	0.150	-0.780	3.260
2020/01/31 01:19:50.2	97.930	0.160	-0.790	3.210
2020/01/31 01:19:50.3	97.920	0.160	-0.790	3.160
2020/01/31 01:19:50.4	97.910	0.170	-0.790	3.100
2020/01/31 01:19:50.5	97.900	0.170	-0.780	3.030
2020/01/31 01:19:50.6	97.900	0.180	-0.780	2.950
2020/01/31 01:19:50.7	97.890	0.180	-0.770	2.870
2020/01/31 01:19:50.8	97.890	0.190	-0.760	2.790
2020/01/31 01:19:50.9	97.880	0.190	-0.750	2.690
2020/01/31 01:19:51.0	97.870	0.200	-0.730	2.590
2020/01/31 01:19:51.1	97.870	0.200	-0.720	2.490
2020/01/31 01:19:51.2	97.870	0.210	-0.710	2.380
2020/01/31 01:19:51.3	97.870	0.210	-0.690	2.270
2020/01/31 01:19:51.4	97.870	0.220	-0.680	2.160
2020/01/31 01:19:51.5	97.880	0.230	-0.660	2.040
2020/01/31 01:19:51.6	97.880	0.230	-0.640	1.920
2020/01/31 01:19:51.7	97.890	0.240	-0.620	1.800
2020/01/31 01:19:51.8	97.890	0.240	-0.600	1.680
2020/01/31 01:19:51.9	97.900	0.250	-0.580	1.560
2020/01/31 01:19:52.0	97.910	0.250	-0.560	1.440
2020/01/31 01:19:52.1	97.920	0.260	-0.530	1.320
2020/01/31 01:19:52.2	97.930	0.260	-0.510	1.200
2020/01/31 01:19:52.3	97.950	0.270	-0.480	1.080
2020/01/31 01:19:52.4	97.960	0.270	-0.450	0.960
2020/01/31 01:19:52.5	97.980	0.270	-0.420	0.840
2020/01/31 01:19:52.6	98.000	0.280	-0.390	0.730
2020/01/31 01:19:52.7	98.020	0.280	-0.360	0.610
2020/01/31 01:19:52.8	98.040	0.280	-0.330	0.500
2020/01/31 01:19:52.9	98.060	0.270	-0.290	0.390
2020/01/31 01:19:53.0	98.070	0.270	-0.260	0.280
2020/01/31 01:19:53.1	98.090	0.270	-0.220	0.180
2020/01/31 01:19:53.2	98.110	0.260	-0.190	0.080
2020/01/31 01:19:53.3	98.140	0.250	-0.150	-0.020
2020/01/31 01:19:53.4	98.160	0.240	-0.110	-0.120
2020/01/31 01:19:53.5	98.180	0.230	-0.080	-0.210
2020/01/31 01:19:53.6	98.200	0.220	-0.040	-0.300
2020/01/31 01:19:53.7	98.220	0.210	-0.010	-0.380
2020/01/31 01:19:53.8	98.240	0.190	0.030	-0.470
2020/01/31 01:19:53.9	98.260	0.180	0.060	-0.550
2020/01/31 01:19:54.0	98.280	0.160	0.100	-0.630
2020/01/31 01:19:54.1	98.300	0.140	0.130	-0.700
2020/01/31 01:19:54.2	98.310	0.120	0.160	-0.770
2020/01/31 01:19:54.3	98.330	0.100	0.190	-0.840
2020/01/31 01:19:54.4	98.340	0.080	0.220	-0.910
2020/01/31 01:19:54.5	98.360	0.050	0.250	-0.970
2020/01/31 01:19:54.6	98.370	0.030	0.270	-1.030
2020/01/31 01:19:54.7	98.390	0.010	0.300	-1.080
2020/01/31 01:19:54.8	98.400	-0.020	0.320	-1.140
2020/01/31 01:19:54.9	98.410	-0.040	0.330	-1.180
2020/01/31 01:19:55.0	98.450	-0.070	0.350	-1.230
2020/01/31 01:19:55.1	98.460	-0.090	0.360	-1.270
2020/01/31 01:19:55.2	98.470	-0.120	0.370	-1.300
2020/01/31 01:19:55.3	98.480	-0.140	0.380	-1.330
2020/01/31 01:19:55.4	98.490	-0.160	0.390	-1.360
2020/01/31 01:19:55.5	98.500	-0.190	0.390	-1.370
2020/01/31 01:19:55.6	98.510	-0.210	0.390	-1.380
2020/01/31 01:19:55.7	98.510	-0.230	0.390	-1.390
2020/01/31 01:19:55.8	98.520	-0.250	0.380	-1.390
2020/01/31 01:19:55.9	98.530	-0.270	0.380	-1.380
2020/01/31 01:19:56.0	98.550	-0.280	0.360	-1.360
2020/01/31 01:19:56.1	98.550	-0.300	0.350	-1.340
2020/01/31 01:19:56.2	98.550	-0.310	0.330	-1.310
2020/01/31 01:19:56.3	98.560	-0.320	0.310	-1.280
2020/01/31 01:19:56.4	98.560	-0.330	0.280	-1.240
2020/01/31 01:19:56.5	98.560	-0.340	0.260	-1.190
2020/01/31 01:19:56.6	98.560	-0.350	0.230	-1.140
2020/01/31 01:19:56.7	98.560	-0.350	0.190	-1.080
2020/01/31 01:19:56.8	98.560	-0.350	0.160	-1.010
2020/01/31 01:19:56.9	98.550	-0.350	0.120	-0.940
2020/01/31 01:19:57.0	98.560	-0.350	0.080	-0.860
2020/01/31 01:19:57.1	98.560	-0.350	0.040	-0.780
2020/01/31 01:19:57.2	98.550	-0.340	0.000	-0.700
2020/01/31 01:19:57.3	98.550	-0.340	-0.040	-0.610
2020/01/31 01:19:57.4	98.540	-0.330	-0.090	-0.520
2020/01/31 01:19:57.5	98.540	-0.320	-0.130	-0.420
2020/01/31 01:19:57.6	98.530	-0.310	-0.170	-0.320
2020/01/31 01:19:57.7	98.530	-0.290	-0.220	-0.220
2020/01/31 01:19:57.8	98.520	-0.280	-0.260	-0.110
2020/01/31 01:19:57.9	98.520	-0.270	-0.300	-0.010
2020/01/31 01:19:58.0	98.510	-0.250	-0.340	0.110
2020/01/31 01:19:58.1	98.510	-0.230	-0.370	0.220
2020/01/31 01:19:58.2	98.500	-0.220	-0.410	0.330
2020/01/31 01:19:58.3	98.500	-0.200	-0.440	0.450
2020/01/31 01:19:58.4	98.490	-0.180	-0.470	0.570
2020/01/31 01:19:58.5	98.490	-0.170	-0.490	0.680
2020/01/31 01:19:58.6	98.480	-0.150	-0.520	0.800
2020/01/31 01:19:58.7	98.480	-0.130	-0.530	0.920
2020/01/31 01:19:58.8	98.480	-0.120	-0.550	1.040
2020/01/31 01:19:58.9	98.480	-0.100	-0.560	1.150
2020/01/31 01:19:59.0	98.470	-0.090	-0.560	1.270
2020/01/31 01:19:59.1	98.470	-0.080	-0.570	1.390
2020/01/31 01:19:59.2	98.470	-0.070	-0.570	1.500
2020/01/31 01:19:59.3	98.470	-0.060	-0.560	1.610
2020/01/31 01:19:59.4	98.470	-0.050	-0.550	1.730
2020/01/31 01:19:59.5	98.470	-0.040	-0.540	1.840
2020/01/31 01:19:59.6	98.470	-0.030	-0.520	1.940
2020/01/31 01:19:59.7	98.480	-0.030	-0.510	2.050
2020/01/31 01:19:59.8	98.480	-0.030	-0.480	2.150
2020/01/31 01:19:59.9	98.490	-0.020	-0.460	2.250
2020/01/31 01:20:00.0	98.480	-0.020	-0.430	2.350
2020/01/31 01:20:00.1	98.480	-0.020	-0.400	2.440
2020/01/31 01:20:00.2	98.490	-0.030	-0.370	2.530
2020/01/31 01:20:00.3	98.500	-0.030	-0.340	2.610
2020/01/31 01:20:00.4	98.510	-0.030	-0.300	2.690
2020/01/31 01:20:00.5	98.520	-0.040	-0.270	2.760
2020/01/31 01:20:00.6	98.530	-0.040	-0.230	2.830
2020/01/31 01:20:00.7	98.540	-0.050	-0.190	2.890
2020/01/31 01:20:00.8	98.550	-0.060	-0.160	2.950
2020/01/31 01:20:00.9	98.570	-0.070	-0.120	3.000
2020/01/31 01:20:01.0	98.580	-0.070	-0.080	3.040
2020/01/31 01:20:01.1	98.590	-0.080	-0.050	3.080
2020/01/31 01:20:01.2	98.600	-0.090	-0.010	3.120
2020/01/31 01:20:01.3	98.610	-0.100	0.020	3.140
2020/01/31 01:20:01.4	98.620	-0.100	0.050	3.170
2020/01/31 01:20:01.5	98.640	-0.110	0.080	3.180
2020/01/31 01:20:01.6	98.650	-0.110	0.110	3.200
2020/01/31 01:20:01.7	98.660	-0.120	0.130	3.200
2020/01/31 01:20:01.8	98.660	-0.120	0.150	3.200
2020/01/31 01:20:01.9	98.670	-0.120	0.170	3.200
2020/01/31 01:20:02.0	98.670	-0.120	0.190	3.190
2020/01/31 01:20:02.1	98.680	-0.120	0.200	3.180
2020/01/31 01:20:02.2	98.690	-0.110	0.210	3.160
2020/01/31 01:20:02.3	98.690	-0.110	0.210	3.130
2020/01/31 01:20:02.4	98.700	-0.100	0.210	3.110
2020/01/31 01:20:02.5	98.710	-0.090	0.210	3.080
2020/01/31 01:20:02.6	98.710	-0.080	0.200	3.040
2020/01/31 01:20:02.7	98.720	-0.070	0.190	3.010
2020/01/31 01:20:02.8	98.720	-0.050	0.180	2.960
2020/01/31 01:20:02.9	98.730	-0.040	0.160	2.920
2020/01/31 01:20:03.0	98.720	-0.020	0.150	2.870
2020/01/31 01:20:03.1	98.720	-0.000	0.120	2.820
2020/01/31 01:20:03.2	98.720	0.020	0.100	2.770
2020/01/31 01:20:03.3	98.730	0.040	0.070	2.720
2020/01/31 01:20:03.4	98.730	0.060	0.040	2.660
2020/01/31 01:20:03.5	98.730	0.080	0.010	2.600
2020/01/31 01:20:03.6	98.730	0.100	-0.030	2.540
2020/01/31 01:20:03.7	98.730	0.130	-0.060	2.480
2020/01/31 01:20:03.8	98.730	0.150	-0.100	2.420
2020/01/31 01:20:03.9	98.730	0.170	-0.130	2.360
2020/01/31 01:20:04.0	98.720	0.200	-0.170	2.300
2020/01/31 01:20:04.1	98.720	0.220	-0.210	2.230
2020/01/31 01:20:04.2	98.720	0.240	-0.250	2.170
2020/01/31 01:20:04.3	98.710	0.260	-0.280	2.110
2020/01/31 01:20:04.4	98.710	0.280	-0.320	2.040
2020/01/31 01:20:04.5	98.710	0.300	-0.350	1.980
2020/01/31 01:20:04.6	98.710	0.310	-0.390	1.910
2020/01/31 01:20:04.7	98.710	0.330	-0.420	1.850
2020/01/31 01:20:04.8	98.710	0.340	-0.450	1.780
2020/01/31 01:20:04.9	98.710	0.350	-0.480	1.720
2020/01/31 01:20:05.0	98.690	0.360	-0.510	1.650
2020/01/31 01:20:05.1	98.690	0.370	-0.530	1.590
2020/01/31 01:20:05.2	98.690	0.380	-0.560	1.520
2020/01/31 01:20:05.3	98.690	0.380	-0.580	1.460
2020/01/31 01:20:05.4	98.690	0.380	-0.590	1.390
2020/01/31 01:20:05.5	98.700	0.380	-0.610	1.320
2020/01/31 01:20:05.6	98.700	0.370	-0.620	1.260
2020/01/31 01:20:05.7	98.700	0.370	-0.630	1.190
2020/01/31 01:20:05.8	98.700	0.360	-0.630	1.130
2020/01/31 01:20:05.9	98.700	0.350	-0.640	1.060
2020/01/31 01:20:06.0	98.710	0.340	-0.630	0.990
2020/01/31 01:20:06.1	98.710	0.320	-0.630	0.930
2020/01/31 01:20:06.2	98.710	0.310	-0.620	0.860
2020/01/31 01:20:06.3	98.720	0.290	-0.610	0.800
2020/01/31 01:20:06.4	98.720	0.270	-0.590	0.740
2020/01/31 01:20:06.5	98.730	0.250	-0.570	0.680
2020/01/31 01:20:06.6	98.740	0.230	-0.540	0.620
2020/01/31 01:20:06.7	98.740	0.210	-0.520	0.560
2020/01/31 01:20:06.8	98.750	0.180	-0.490	0.510
2020/01/31 01:20:06.9	98.750	0.160	-0.460	0.450
2020/01/31 01:20:07.0	98.770	0.140	-0.420	0.400
2020/01/31 01:20:07.1	98.780	0.110	-0.380	0.350
2020/01/31 01:20:07.2	98.780	0.090	-0.350	0.310
2020/01/31 01:20:07.3	98.790	0.060	-0.310	0.260
2020/01/31 01:20:07.4	98.790	0.040	-0.270	0.220
2020/01/31 01:20:07.5	98.800	0.020	-0.230	0.180
2020/01/31 01:20:07.6	98.800	-0.000	-0.190	0.140
2020/01/31 01:20:07.7	98.800	-0.020	-0.150	0.110
2020/01/31 01:20:07.8	98.800	-0.040	-0.110	0.070
2020/01/31 01:20:07.9	98.800	-0.060	-0.080	0.040
2020/01/31 01:20:08.0	98.790	-0.080	-0.040	0.010
2020/01/31 01:20:08.1	98.790	-0.090	-0.010	-0.010
2020/01/31 01:20:08.2	98.790	-0.110	0.030	-0.040
2020/01/31 01:20:08.3	98.790	-0.120	0.060	-0.060
2020/01/31 01:20:08.4	98.790	-0.130	0.080	-0.080
2020/01/31 01:20:08.5	98.790	-0.140	0.110	-0.090
2020/01/31 01:20:08.6	98.790	-0.150	0.130	-0.110
2020/01/31 01:20:08.7	98.780	-0.150	0.150	-0.120
2020/01/31 01:20:08.8	98.780	-0.160	0.170	-0.130
2020/01/31 01:20:08.9	98.770	-0.160	0.180	-0.140
2020/01/31 01:20:09.0	98.780	-0.160	0.200	-0.140
2020/01/31 01:20:09.1	98.770	-0.160	0.200	-0.150
2020/01/31 01:20:09.2	98.770	-0.160	0.210	-0.150
2020/01/31 01:20:09.3	98.760	-0.150	0.210	-0.150
2020/01/31 01:20:09.4	98.750	-0.150	0.210	-0.140
2020/01/31 01:20:09.5	98.740	-0.140	0.210	-0.140
2020/01/31 01:20:09.6	98.730	-0.130	0.210	-0.130
2020/01/31 01:20:09.7	98.720	-0.120	0.200	-0.120
2020/01/31 01:20:09.8	98.700	-0.110	0.190	-0.110
2020/01/31 01:20:09.9	98.690	-0.100	0.180	-0.090
2020/01/31 01:20:10.0	98.680	-0.090	0.170	-0.070
2020/01/31 01:20:10.1	98.660	-0.080	0.160	-0.050
2020/01/31 01:20:10.2	98.640	-0.070	0.140	-0.030
2020/01/31 01:20:10.3	98.630	-0.060	0.130	-0.010
2020/01/31 01:20:10.4	98.610	-0.050	0.120	0.020
2020/01/31 01:20:10.5	98.590	-0.040	0.100	0.040
2020/01/31 01:20:10.6	98.580	-0.030	0.090	0.070
2020/01/31 01:20:10.7	98.560	-0.020	0.070	0.100
2020/01/31 01:20:10.8	98.540	-0.020	0.060	0.130
2020/01/31 01:20:10.9	98.530	-0.010	0.040	0.160
2020/01/31 01:20:11.0	98.530	-0.000	0.030	0.200
2020/01/31 01:20:11.1	98.520	0.000	0.020	0.230
2020/01/31 01:20:11.2	98.510	0.010	0.000	0.270
2020/01/31 01:20:11.3	98.500	0.010	-0.010	0.300
2020/01/31 01:20:11.4	98.490	0.020	-0.030	0.330
2020/01/31 01:20:11.5	98.490	0.020	-0.040	0.370
2020/01/31 01:20:11.6	98.490	0.020	-0.060	0.400
2020/01/31 01:20:11.7	98.490	0.020	-0.070	0.430
2020/01/31 01:20:11.8	98.490	0.020	-0.090	0.470
2020/01/31 01:20:11.9	98.500	0.010	-0.100	0.500
2020/01/31 01:20:12.0	98.510	0.010	-0.110	0.520
2020/01/31 01:20:12.1	98.520	0.000	-0.130	0.550
2020/01/31 01:20:12.2	98.540	-0.000	-0.140	0.580
2020/01/31 01:20:12.3	98.560	-0.010	-0.150	0.600
2020/01/31 01:20:12.4	98.580	-0.010	-0.170	0.630
2020/01/31 01:20:12.5	98.600	-0.020	-0.180	0.650
2020/01/31 01:20:12.6	98.630	-0.030	-0.190	0.670
2020/01/31 01:20:12.7	98.660	-0.040	-0.200	0.690
2020/01/31 01:20:12.8	98.690	-0.050	-0.210	0.710
2020/01/31 01:20:12.9	98.720	-0.060	-0.220	0.740
2020/01/31 01:20:13.0	98.750	-0.070	-0.230	0.760
2020/01/31 01:20:13.1	98.790	-0.080	-0.230	0.780
2020/01/31 01:20:13.2	98.820	-0.090	-0.240	0.800
2020/01/31 01:20:13.3	98.850	-0.100	-0.240	0.830
2020/01/31 01:20:13.4	98.890	-0.120	-0.240	0.860
2020/01/31 01:20:13.5	98.920	-0.130	-0.240	0.890
2020/01/31 01:20:13.6	98.950	-0.140	-0.240	0.920
2020/01/31 01:20:13.7	98.980	-0.150	-0.240	0.950
2020/01/31 01:20:13.8	99.000	-0.160	-0.230	0.990
2020/01/31 01:20:13.9	99.030	-0.180	-0.220	1.030
2020/01/31 01:20:14.0	99.050	-0.190	-0.220	1.070
2020/01/31 01:20:14.1	99.070	-0.200	-0.200	1.110
2020/01/31 01:20:14.2	99.090	-0.210	-0.190	1.160
2020/01/31 01:20:14.3	99.100	-0.220	-0.180	1.210
2020/01/31 01:20:14.4	99.120	-0.240	-0.160	1.260
2020/01/31 01:20:14.5	99.130	-0.250	-0.150	1.310
2020/01/31 01:20:14.6	99.140	-0.260	-0.130	1.360
2020/01/31 01:20:14.7	99.150	-0.270	-0.120	1.420
2020/01/31 01:20:14.8	99.150	-0.280	-0.100	1.470
2020/01/31 01:20:14.9	99.160	-0.290	-0.080	1.530
2020/01/31 01:20:15.0	99.160	-0.290	-0.070	1.580
2020/01/31 01:20:15.1	99.160	-0.300	-0.050	1.640
2020/01/31 01:20:15.2	99.150	-0.310	-0.040	1.690
2020/01/31 01:20:15.3	99.150	-0.310	-0.020	1.750
2020/01/31 01:20:15.4	99.140	-0.320	-0.010	1.800
2020/01/31 01:20:15.5	99.130	-0.320	-0.000	1.860
2020/01/31 01:20:15.6	99.120	-0.320	0.010	1.910
2020/01/31 01:20:15.7	99.110	-0.320	0.010	1.960
2020/01/31 01:20:15.8	99.090	-0.320	0.020	2.010
2020/01/31 01:20:15.9	99.070	-0.320	0.020	2.060
2020/01/31 01:20:16.0	99.070	-0.310	0.020	2.110
2020/01/31 01:20:16.1	99.050	-0.310	0.020	2.150
2020/01/31 01:20:16.2	99.030	-0.300	0.010	2.200
2020/01/31 01:20:16.3	99.010	-0.290	0.000	2.230
2020/01/31 01:20:16.4	98.990	-0.280	-0.010	2.270
2020/01/31 01:20:16.5	98.970	-0.270	-0.020	2.300
2020/01/31 01:20:16.6	98.950	-0.250	-0.040	2.330
2020/01/31 01:20:16.7	98.920	-0.240	-0.060	2.350
2020/01/31 01:20:16.8	98.900	-0.220	-0.080	2.370
2020/01/31 01:20:16.9	98.880	-0.200	-0.110	2.390
2020/01/31 01:20:17.0	98.850	-0.180	-0.130	2.400
2020/01/31 01:20:17.1	98.830	-0.160	-0.160	2.410
2020/01/31 01:20:17.2	98.810	-0.140	-0.190	2.410
2020/01/31 01:20:17.3	98.780	-0.110	-0.220	2.410
2020/01/31 01:20:17.4	98.760	-0.090	-0.260	2.410
2020/01/31 01:20:17.5	98.740	-0.060	-0.290	2.400
2020/01/31 01:20:17.6	98.720	-0.030	-0.330	2.390
2020/01/31 01:20:17.7	98.700	-0.010	-0.360	2.380
2020/01/31 01:20:17.8	98.680	0.020	-0.400	2.360
2020/01/31 01:20:17.9	98.670	0.050	-0.440	2.340
2020/01/31 01:20:18.0	98.640	0.080	-0.470	2.310
2020/01/31 01:20:18.1	98.620	0.110	-0.510	2.280
2020/01/31 01:20:18.2	98.600	0.140	-0.540	2.250
2020/01/31 01:20:18.3	98.590	0.160	-0.570	2.220
2020/01/31 01:20:18.4	98.570	0.190	-0.610	2.190
2020/01/31 01:20:18.5	98.560	0.220	-0.630	2.150
2020/01/31 01:20:18.6	98.540	0.250	-0.660	2.100
2020/01/31 01:20:18.7	98.530	0.270	-0.680	2.060
2020/01/31 01:20:18.8	98.520	0.300	-0.700	2.010
2020/01/31 01:20:18.9	98.510	0.320	-0.720	1.960
2020/01/31 01:20:19.0	98.500	0.340	-0.730	1.900
2020/01/31 01:20:19.1	98.490	0.370	-0.740	1.850
2020/01/31 01:20:19.2	98.490	0.380	-0.750	1.790
2020/01/31 01:20:19.3	98.480	0.400	-0.750	1.720
2020/01/31 01:20:19.4	98.480	0.420	-0.750	1.650
2020/01/31 01:20:19.5	98.480	0.430	-0.750	1.580
2020/01/31 01:20:19.6	98.480	0.440	-0.740	1.510
2020/01/31 01:20:19.7	98.480	0.450	-0.730	1.430
2020/01/31 01:20:19.8	98.490	0.460	-0.710	1.360
2020/01/31 01:20:19.9	98.490	0.470	-0.690	1.280
2020/01/31 01:20:20.0	98.500	0.470	-0.670	1.190
2020/01/31 01:20:20.1	98.500	0.470	-0.640	1.110
2020/01/31 01:20:20.2	98.510	0.470	-0.600	1.030
2020/01/31 01:20:20.3	98.520	0.470	-0.570	0.940
2020/01/31 01:20:20.4	98.520	0.460	-0.530	0.860
2020/01/31 01:20:20.5	98.530	0.450	-0.480	0.770
2020/01/31 01:20:20.6	98.530	0.440	-0.440	0.690
2020/01/31 01:20:20.7	98.540	0.430	-0.380	0.610
2020/01/31 01:20:20.8	98.540	0.410	-0.330	0.530
2020/01/31 01:20:20.9	98.550	0.390	-0.270	0.450
2020/01/31 01:20:21.0	98.570	0.380	-0.210	0.370
2020/01/31 01:20:21.1	98.570	0.360	-0.150	0.300
2020/01/31 01:20:21.2	98.570	0.330	-0.090	0.230
2020/01/31 01:20:21.3	98.570	0.310	-0.030	0.160
2020/01/31 01:20:21.4	98.560	0.290	0.040	0.090
2020/01/31 01:20:21.5	98.560	0.260	0.100	0.020
2020/01/31 01:20:21.6	98.560	0.230	0.170	-0.040
2020/01/31 01:20:21.7	98.550	0.210	0.230	-0.100
2020/01/31 01:20:21.8	98.550	0.180	0.290	-0.150
2020/01/31 01:20:21.9	98.550	0.150	0.350	-0.210
2020/01/31 01:20:22.0	98.550	0.120	0.410	-0.260
2020/01/31 01:20:22.1	98.540	0.100	0.460	-0.310
2020/01/31 01:20:22.2	98.540	0.070	0.510	-0.350
2020/01/31 01:20:22.3	98.540	0.040	0.560	-0.400
2020/01/31 01:20:22.4	98.540	0.020	0.600	-0.440
2020/01/31 01:20:22.5	98.540	-0.000	0.640	-0.480
2020/01/31 01:20:22.6	98.540	-0.030	0.670	-0.520
2020/01/31 01:20:22.7	98.540	-0.050	0.690	-0.550
2020/01/31 01:20:22.8	98.540	-0.060	0.710	-0.590
2020/01/31 01:20:22.9	98.540	-0.080	0.730	-0.620
2020/01/31 01:20:23.0	98.560	-0.100	0.740	-0.650
2020/01/31 01:20:23.1	98.560	-0.110	0.740	-0.680
2020/01/31 01:20:23.2	98.570	-0.120	0.730	-0.700
2020/01/31 01:20:23.3	98.570	-0.130	0.720	-0.730
2020/01/31 01:20:23.4	98.580	-0.130	0.700	-0.750
2020/01/31 01:20:23.5	98.590	-0.130	0.670	-0.770
2020/01/31 01:20:23.6	98.600	-0.130	0.640	-0.780
2020/01/31 01:20:23.7	98.610	-0.130	0.610	-0.800
2020/01/31 01:20:23.8	98.620	-0.130	0.570	-0.810
2020/01/31 01:20:23.9	98.630	-0.130	0.520	-0.820
2020/01/31 01:20:24.0	98.640	-0.120	0.470	-0.820
2020/01/31 01:20:24.1	98.650	-0.110	0.410	-0.820
2020/01/31 01:20:24.2	98.660	-0.100	0.360	-0.820
2020/01/31 01:20:24.3	98.670	-0.090	0.300	-0.810
2020/01/31 01:20:24.4	98.680	-0.080	0.240	-0.800
2020/01/31 01:20:24.5	98.690	-0.070	0.170	-0.790
2020/01/31 01:20:24.6	98.700	-0.050	0.110	-0.770
2020/01/31 01:20:24.7	98.710	-0.040	0.050	-0.750
2020/01/31 01:20:24.8	98.720	-0.030	-0.020	-0.720
2020/01/31 01:20:24.9	98.730	-0.020	-0.080	-0.690
2020/01/31 01:20:25.0	98.750	-0.000	-0.140	-0.640
2020/01/31 01:20:25.1	98.760	0.010	-0.200	-0.600
2020/01/31 01:20:25.2	98.770	0.020	-0.260	-0.550
2020/01/31 01:20:25.3	98.780	0.030	-0.320	-0.500
2020/01/31 01:20:25.4	98.790	0.030	-0.370	-0.440
2020/01/31 01:20:25.5	98.810	0.040	-0.420	-0.370
2020/01/31 01:20:25.6	98.820	0.040	-0.460	-0.300
2020/01/31 01:20:25.7	98.830	0.050	-0.500	-0.220
2020/01/31 01:20:25.8	98.840	0.050	-0.540	-0.140
2020/01/31 01:20:25.9	98.850	0.040	-0.580	-0.060
2020/01/31 01:20:26.0	98.860	0.040	-0.610	0.040
2020/01/31 01:20:26.1	98.870	0.040	-0.630	0.130
2020/01/31 01:20:26.2	98.870	0.030	-0.650	0.230
2020/01/31 01:20:26.3	98.880	0.020	-0.670	0.340
2020/01/31 01:20:26.4	98.880	0.010	-0.680	0.450
2020/01/31 01:20:26.5	98.890	-0.000	-0.690	0.560
2020/01/31 01:20:26.6	98.890	-0.020	-0.700	0.680
2020/01/31 01:20:26.7	98.890	-0.040	-0.700	0.800
2020/01/31 01:20:26.8	98.880	-0.050	-0.690	0.920
2020/01/31 01:20:26.9	98.880	-0.070	-0.690	1.040
2020/01/31 01:20:27.0	98.850	-0.090	-0.670	1.170
2020/01/31 01:20:27.1	98.850	-0.120	-0.660	1.290
2020/01/31 01:20:27.2	98.840	-0.140	-0.640	1.420
2020/01/31 01:20:27.3	98.830	-0.160	-0.620	1.540
2020/01/31 01:20:27.4	98.810	-0.190	-0.590	1.670
2020/01/31 01:20:27.5	98.800	-0.210	-0.570	1.790
2020/01/31 01:20:27.6	98.780	-0.240	-0.540	1.910
2020/01/31 01:20:27.7	98.760	-0.260	-0.510	2.030
2020/01/31 01:20:27.8	98.750	-0.290	-0.470	2.140
2020/01/31 01:20:27.9	98.720	-0.320	-0.440	2.250
2020/01/31 01:20:28.0	98.700	-0.340	-0.400	2.350
2020/01/31 01:20:28.1	98.680	-0.360	-0.360	2.460
2020/01/31 01:20:28.2	98.650	-0.390	-0.320	2.560
2020/01/31 01:20:28.3	98.620	-0.410	-0.290	2.650
2020/01/31 01:20:28.4	98.600	-0.430	-0.250	2.740
2020/01/31 01:20:28.5	98.560	-0.450	-0.210	2.820
2020/01/31 01:20:28.6	98.530	-0.470	-0.170	2.900
2020/01/31 01:20:28.7	98.500	-0.490	-0.140	2.970
2020/01/31 01:20:28.8	98.460	-0.500	-0.110	3.040
2020/01/31 01:20:28.9	98.430	-0.510	-0.080	3.100
2020/01/31 01:20:29.0	98.400	-0.520	-0.040	3.160
2020/01/31 01:20:29.1	98.360	-0.530	-0.020	3.210
2020/01/31 01:20:29.2	98.320	-0.530	0.010	3.260
2020/01/31 01:20:29.3	98.290	-0.540	0.030	3.300
2020/01/31 01:20:29.4	98.250	-0.530	0.050	3.330
2020/01/31 01:20:29.5	98.210	-0.530	0.070	3.350
2020/01/31 01:20:29.6	98.170	-0.520	0.080	3.370
2020/01/31 01:20:29.7	98.140	-0.510	0.090	3.390
2020/01/31 01:20:29.8	98.100	-0.500	0.100	3.390
2020/01/31 01:20:29.9	98.070	-0.480	0.100	3.400
2020/01/31 01:20:30.0	98.020	-0.460	0.100	3.390
2020/01/31 01:20:30.1	97.990	-0.440	0.090	3.380
2020/01/31 01:20:30.2	97.970	-0.410	0.090	3.360
2020/01/31 01:20:30.3	97.940	-0.380	0.080	3.340
2020/01/31 01:20:30.4	97.910	-0.350	0.060	3.310
2020/01/31 01:20:30.5	97.890	-0.310	0.040	3.270
2020/01/31 01:20:30.6	97.870	-0.270	0.020	3.230
2020/01/31 01:20:30.7	97.860	-0.230	-0.000	3.180
2020/01/31 01:20:30.8	97.840	-0.190	-0.030	3.130
2020/01/31 01:20:30.9	97.830	-0.150	-0.060	3.070
2020/01/31 01:20:31.0	97.830	-0.100	-0.090	3.010
2020/01/31 01:20:31.1	97.820	-0.050	-0.130	2.940
2020/01/31 01:20:31.2	97.810	0.000	-0.170	2.870
2020/01/31 01:20:31.3	97.810	0.050	-0.200	2.800
2020/01/31 01:20:31.4	97.810	0.100	-0.250	2.720
2020/01/31 01:20:31.5	97.810	0.160	-0.290	2.640
2020/01/31 01:20:31.6	97.810	0.210	-0.330	2.550
2020/01/31 01:20:31.7	97.810	0.260	-0.370	2.460
2020/01/31 01:20:31.8	97.810	0.310	-0.410	2.370
2020/01/31 01:20:31.9	97.820	0.360	-0.460	2.280
2020/01/31 01:20:32.0	97.820	0.410	-0.500	2.180
2020/01/31 01:20:32.1	97.830	0.460	-0.540	2.080
2020/01/31 01:20:32.2	97.840	0.500	-0.570	1.970
2020/01/31 01:20:32.3	97.840	0.540	-0.610	1.870
2020/01/31 01:20:32.4	97.850	0.580	-0.640	1.760
2020/01/31 01:20:32.5	97.860	0.620	-0.670	1.660
2020/01/31 01:20:32.6	97.870	0.650	-0.690	1.550
2020/01/31 01:20:32.7	97.890	0.680	-0.710	1.430
2020/01/31 01:20:32.8	97.900	0.710	-0.730	1.320
2020/01/31 01:20:32.9	97.910	0.730	-0.740	1.210
2020/01/31 01:20:33.0	97.910	0.750	-0.740	1.100
2020/01/31 01:20:33.1	97.920	0.760	-0.750	0.980
2020/01/31 01:20:33.2	97.940	0.770	-0.740	0.870
2020/01/31 01:20:33.3	97.950	0.780	-0.730	0.750
2020/01/31 01:20:33.4	97.960	0.780	-0.720	0.640
2020/01/31 01:20:33.5	97.970	0.770	-0.700	0.530
2020/01/31 01:20:33.6	97.980	0.770	-0.680	0.420
2020/01/31 01:20:33.7	97.990	0.750	-0.650	0.310
2020/01/31 01:20:33.8	98.000	0.740	-0.620	0.200
2020/01/31 01:20:33.9	98.010	0.720	-0.580	0.100
2020/01/31 01:20:34.0	98.020	0.690	-0.530	-0.010
2020/01/31 01:20:34.1	98.030	0.670	-0.490	-0.110
2020/01/31 01:20:34.2	98.030	0.640	-0.430	-0.200
2020/01/31 01:20:34.3	98.040	0.600	-0.380	-0.290
2020/01/31 01:20:34.4	98.040	0.560	-0.320	-0.380
2020/01/31 01:20:34.5	98.040	0.520	-0.260	-0.460
2020/01/31 01:20:34.6	98.040	0.480	-0.200	-0.540
2020/01/31 01:20:34.7	98.030	0.440	-0.140	-0.610
2020/01/31 01:20:34.8	98.030	0.390	-0.070	-0.670
2020/01/31 01:20:34.9	98.020	0.350	-0.010	-0.730
2020/01/31 01:20:35.0	98.010	0.300	0.060	-0.780
2020/01/31 01:20:35.1	98.000	0.250	0.120	-0.830
2020/01/31 01:20:35.2	97.990	0.200	0.180	-0.880
2020/01/31 01:20:35.3	97.980	0.150	0.240	-0.910
2020/01/31 01:20:35.4	97.960	0.100	0.300	-0.940
2020/01/31 01:20:35.5	97.940	0.050	0.360	-0.970
2020/01/31 01:20:35.6	97.920	0.000	0.410	-0.990
2020/01/31 01:20:35.7	97.900	-0.040	0.460	-1.000
2020/01/31 01:20:35.8	97.880	-0.090	0.510	-1.010
2020/01/31 01:20:35.9	97.860	-0.140	0.560	-1.020
2020/01/31 01:20:36.0	97.840	-0.180	0.590	-1.020
2020/01/31 01:20:36.1	97.820	-0.220	0.630	-1.020
2020/01/31 01:20:36.2	97.800	-0.260	0.660	-1.010
2020/01/31 01:20:36.3	97.780	-0.290	0.690	-0.990
2020/01/31 01:20:36.4	97.760	-0.330	0.710	-0.980
2020/01/31 01:20:36.5	97.740	-0.360	0.730	-0.960
2020/01/31 01:20:36.6	97.720	-0.390	0.740	-0.930
2020/01/31 01:20:36.7	97.710	-0.410	0.740	-0.910
2020/01/31 01:20:36.8	97.690	-0.440	0.740	-0.880
2020/01/31 01:20:36.9	97.680	-0.460	0.740	-0.840
2020/01/31 01:20:37.0	97.680	-0.470	0.730	-0.800
2020/01/31 01:20:37.1	97.670	-0.490	0.710	-0.770
2020/01/31 01:20:37.2	97.660	-0.500	0.700	-0.730
2020/01/31 01:20:37.3	97.650	-0.510	0.670	-0.680
2020/01/31 01:20:37.4	97.640	-0.520	0.640	-0.640
2020/01/31 01:20:37.5	97.640	-0.520	0.610	-0.600
2020/01/31 01:20:37.6	97.630	-0.520	0.570	-0.550
2020/01/31 01:20:37.7	97.630	-0.520	0.530	-0.500
2020/01/31 01:20:37.8	97.630	-0.520	0.490	-0.440
2020/01/31 01:20:37.9	97.620	-0.510	0.440	-0.390
2020/01/31 01:20:38.0	97.630	-0.500	0.390	-0.330
2020/01/31 01:20:38.1	97.630	-0.490	0.330	-0.270
2020/01/31 01:20:38.2	97.620	-0.480	0.280	-0.200
2020/01/31 01:20:38.3	97.620	-0.470	0.220	-0.140
2020/01/31 01:20:38.4	97.620	-0.450	0.160	-0.070
2020/01/31 01:20:38.5	97.620	-0.430	0.100	-0.000
2020/01/31 01:20:38.6	97.620	-0.420	0.040	0.070
2020/01/31 01:20:38.7	97.610	-0.400	-0.020	0.140
2020/01/31 01:20:38.8	97.610	-0.380	-0.080	0.210
2020/01/31 01:20:38.9	97.610	-0.360	-0.140	0.290
2020/01/31 01:20:39.0	97.600	-0.330	-0.200	0.360
2020/01/31 01:20:39.1	97.600	-0.310	-0.260	0.430
2020/01/31 01:20:39.2	97.590	-0.290	-0.330	0.510
2020/01/31 01:20:39.3	97.590	-0.270	-0.380	0.590
2020/01/31 01:20:39.4	97.590	-0.240	-0.440	0.670
2020/01/31 01:20:39.5	97.590	-0.220	-0.500	0.740
2020/01/31 01:20:39.6	97.580	-0.190	-0.560	0.820
2020/01/31 01:20:39.7	97.580	-0.170	-0.610	0.890
2020/01/31 01:20:39.8	97.580	-0.140	-0.660	0.970
2020/01/31 01:20:39.9	97.580	-0.120	-0.710	1.050
2020/01/31 01:20:40.0	97.570	-0.090	-0.750	1.120
2020/01/31 01:20:40.1	97.570	-0.070	-0.790	1.190
2020/01/31 01:20:40.2	97.570	-0.040	-0.830	1.260
2020/01/31 01:20:40.3	97.560	-0.020	-0.870	1.330
2020/01/31 01:20:40.4	97.560	0.010	-0.900	1.400
2020/01/31 01:20:40.5	97.560	0.030	-0.920	1.470
2020/01/31 01:20:40.6	97.550	0.060	-0.940	1.540
2020/01/31 01:20:40.7	97.550	0.080	-0.960	1.600
2020/01/31 01:20:40.8	97.540	0.100	-0.970	1.660
2020/01/31 01:20:40.9	97.540	0.120	-0.980	1.720
2020/01/31 01:20:41.0	97.530	0.140	-0.980	1.780
2020/01/31 01:20:41.1	97.520	0.160	-0.970	1.840
2020/01/31 01:20:41.2	97.510	0.180	-0.960	1.900
2020/01/31 01:20:41.3	97.510	0.190	-0.940	1.950
2020/01/31 01:20:41.4	97.500	0.200	-0.910	2.000
2020/01/31 01:20:41.5	97.490	0.210	-0.880	2.050
2020/01/31 01:20:41.6	97.480	0.220	-0.850	2.090
2020/01/31 01:20:41.7	97.470	0.230	-0.810	2.140
2020/01/31 01:20:41.8	97.470	0.240	-0.760	2.180
2020/01/31 01:20:41.9	97.460	0.240	-0.710	2.220
2020/01/31 01:20:42.0	97.450	0.240	-0.660	2.250
2020/01/31 01:20:42.1	97.440	0.240	-0.600	2.290
2020/01/31 01:20:42.2	97.430	0.240	-0.540	2.320
2020/01/31 01:20:42.3	97.430	0.230	-0.480	2.340
2020/01/31 01:20:42.4	97.420	0.220	-0.420	2.370
2020/01/31 01:20:42.5	97.410	0.220	-0.360	2.390
2020/01/31 01:20:42.6	97.400	0.210	-0.300	2.410
2020/01/31 01:20:42.7	97.400	0.200	-0.230	2.420
2020/01/31 01:20:42.8	97.390	0.190	-0.170	2.430
2020/01/31 01:20:42.9	97.390	0.170	-0.110	2.440
2020/01/31 01:20:43.0	97.370	0.160	-0.050	2.440
2020/01/31 01:20:43.1	97.370	0.150	0.000	2.440
2020/01/31 01:20:43.2	97.360	0.130	0.050	2.440
2020/01/31 01:20:43.3	97.360	0.120	0.100	2.440
2020/01/31 01:20:43.4	97.360	0.110	0.140	2.430
2020/01/31 01:20:43.5	97.360	0.090	0.180	2.420
2020/01/31 01:20:43.6	97.360	0.080	0.220	2.400
2020/01/31 01:20:43.7	97.360	0.070	0.240	2.380
2020/01/31 01:20:43.8	97.360	0.060	0.270	2.360
2020/01/31 01:20:43.9	97.360	0.050	0.290	2.340
2020/01/31 01:20:44.0	97.360	0.050	0.300	2.310
2020/01/31 01:20:44.1	97.360	0.040	0.310	2.280
2020/01/31 01:20:44.2	97.360	0.040	0.310	2.250
2020/01/31 01:20:44.3	97.360	0.040	0.310	2.210
2020/01/31 01:20:44.4	97.360	0.040	0.300	2.180
2020/01/31 01:20:44.5	97.370	0.040	0.280	2.140
2020/01/31 01:20:44.6	97.370	0.040	0.260	2.100
2020/01/31 01:20:44.7	97.370	0.040	0.240	2.060
2020/01/31 01:20:44.8	97.370	0.050	0.210	2.020
2020/01/31 01:20:44.9	97.370	0.060	0.180	1.970
2020/01/31 01:20:45.0	97.380	0.070	0.150	1.930
2020/01/31 01:20:45.1	97.380	0.080	0.120	1.880
2020/01/31 01:20:45.2	97.380	0.090	0.080	1.830
2020/01/31 01:20:45.3	97.380	0.100	0.040	1.780
2020/01/31 01:20:45.4	97.370	0.110	0.000	1.730
2020/01/31 01:20:45.5	97.370	0.120	-0.040	1.680
2020/01/31 01:20:45.6	97.370	0.130	-0.080	1.630
2020/01/31 01:20:45.7	97.360	0.140	-0.120	1.570
2020/01/31 01:20:45.8	97.350	0.160	-0.160	1.520
2020/01/31 01:20:45.9	97.350	0.170	-0.190	1.460
2020/01/31 01:20:46.0	97.340	0.170	-0.230	1.410
2020/01/31 01:20:46.1	97.330	0.180	-0.260	1.350
2020/01/31 01:20:46.2	97.320	0.190	-0.290	1.290
2020/01/31 01:20:46.3	97.310	0.190	-0.320	1.220
2020/01/31 01:20:46.4	97.300	0.200	-0.350	1.160
2020/01/31 01:20:46.5	97.290	0.200	-0.370	1.100
2020/01/31 01:20:46.6	97.280	0.200	-0.390	1.040
2020/01/31 01:20:46.7	97.280	0.190	-0.410	0.970
2020/01/31 01:20:46.8	97.270	0.190	-0.420	0.910
2020/01/31 01:20:46.9	97.260	0.180	-0.430	0.840
2020/01/31 01:20:47.0	97.250	0.170	-0.430	0.770
2020/01/31 01:20:47.1	97.250	0.150	-0.430	0.710
2020/01/31 01:20:47.2	97.240	0.140	-0.420	0.640
2020/01/31 01:20:47.3	97.240	0.120	-0.410	0.580
2020/01/31 01:20:47.4	97.240	0.100	-0.390	0.510
2020/01/31 01:20:47.5	97.230	0.070	-0.370	0.450
2020/01/31 01:20:47.6	97.230	0.050	-0.340	0.390
2020/01/31 01:20:47.7	97.230	0.020	-0.310	0.330
2020/01/31 01:20:47.8	97.230	-0.010	-0.280	0.270
2020/01/31 01:20:47.9	97.240	-0.040	-0.240	0.220
2020/01/31 01:20:48.0	97.250	-0.070	-0.190	0.170
2020/01/31 01:20:48.1	97.260	-0.110	-0.150	0.130
2020/01/31 01:20:48.2	97.260	-0.140	-0.100	0.090
2020/01/31 01:20:48.3	97.270	-0.170	-0.060	0.050
2020/01/31 01:20:48.4	97.270	-0.210	-0.010	0.020
2020/01/31 01:20:48.5	97.280	-0.240	0.040	-0.010
2020/01/31 01:20:48.6	97.290	-0.280	0.090	-0.030
2020/01/31 01:20:48.7	97.290	-0.310	0.140	-0.040
2020/01/31 01:20:48.8	97.300	-0.340	0.180	-0.050
2020/01/31 01:20:48.9	97.310	-0.370	0.230	-0.060
2020/01/31 01:20:49.0	97.320	-0.400	0.270	-0.060
2020/01/31 01:20:49.1	97.330	-0.430	0.300	-0.060
2020/01/31 01:20:49.2	97.340	-0.460	0.340	-0.050
2020/01/31 01:20:49.3	97.340	-0.480	0.370	-0.040
2020/01/31 01:20:49.4	97.350	-0.500	0.400	-0.030
2020/01/31 01:20:49.5	97.360	-0.520	0.430	-0.010
2020/01/31 01:20:49.6	97.370	-0.530	0.450	0.010
2020/01/31 01:20:49.7	97.370	-0.540	0.460	0.030
2020/01/31 01:20:49.8	97.380	-0.550	0.470	0.050
2020/01/31 01:20:49.9	97.390	-0.550	0.480	0.080
2020/01/31 01:20:50.0	97.410	-0.550	0.480	0.110
2020/01/31 01:20:50.1	97.420	-0.550	0.470	0.130
2020/01/31 01:20:50.2	97.430	-0.550	0.460	0.160
2020/01/31 01:20:50.3	97.440	-0.540	0.440	0.190
2020/01/31 01:20:50.4	97.450	-0.520	0.420	0.230
2020/01/31 01:20:50.5	97.460	-0.510	0.390	0.260
2020/01/31 01:20:50.6	97.470	-0.490	0.360	0.290
2020/01/31 01:20:50.7	97.480	-0.460	0.320	0.320
2020/01/31 01:20:50.8	97.490	-0.440	0.270	0.350
2020/01/31 01:20:50.9	97.500	-0.410	0.230	0.380
2020/01/31 01:20:51.0	97.500	-0.380	0.170	0.410
2020/01/31 01:20:51.1	97.510	-0.340	0.120	0.440
2020/01/31 01:20:51.2	97.520	-0.310	0.060	0.480
2020/01/31 01:20:51.3	97.530	-0.270	0.000	0.510
2020/01/31 01:20:51.4	97.540	-0.230	-0.060	0.540
2020/01/31 01:20:51.5	97.560	-0.190	-0.130	0.570
2020/01/31 01:20:51.6	97.570	-0.140	-0.190	0.600
2020/01/31 01:20:51.7	97.580	-0.100	-0.260	0.640
2020/01/31 01:20:51.8	97.590	-0.060	-0.330	0.670
2020/01/31 01:20:51.9	97.600	-0.010	-0.400	0.700
2020/01/31 01:20:52.0	97.610	0.030	-0.470	0.740
2020/01/31 01:20:52.1	97.620	0.080	-0.530	0.780
2020/01/31 01:20:52.2	97.630	0.120	-0.600	0.810
2020/01/31 01:20:52.3	97.640	0.160	-0.660	0.850
2020/01/31 01:20:52.4	97.640	0.210	-0.720	0.890
2020/01/31 01:20:52.5	97.650	0.250	-0.780	0.930
2020/01/31 01:20:52.6	97.650	0.290	-0.830	0.980
2020/01/31 01:20:52.7	97.650	0.320	-0.880	1.020
2020/01/31 01:20:52.8	97.650	0.360	-0.920	1.070
2020/01/31 01:20:52.9	97.650	0.390	-0.960	1.130
2020/01/31 01:20:53.0	97.630	0.420	-1.000	1.180
2020/01/31 01:20:53.1	97.620	0.450	-1.030	1.240
2020/01/31 01:20:53.2	97.610	0.480	-1.050	1.290
2020/01/31 01:20:53.3	97.600	0.500	-1.070	1.360
2020/01/31 01:20:53.4	97.590	0.520	-1.080	1.420
2020/01/31 01:20:53.5	97.570	0.540	-1.080	1.480
2020/01/31 01:20:53.6	97.550	0.550	-1.070	1.550
2020/01/31 01:20:53.7	97.530	0.560	-1.060	1.620
2020/01/31 01:20:53.8	97.500	0.570	-1.050	1.690
2020/01/31 01:20:53.9	97.480	0.570	-1.020	1.760
2020/01/31 01:20:54.0	97.450	0.570	-0.990	1.830
2020/01/31 01:20:54.1	97.420	0.560	-0.950	1.900
2020/01/31 01:20:54.2	97.390	0.560	-0.910	1.970
2020/01/31 01:20:54.3	97.360	0.550	-0.860	2.040
2020/01/31 01:20:54.4	97.330	0.530	-0.800	2.110
2020/01/31 01:20:54.5	97.300	0.520	-0.740	2.170
2020/01/31 01:20:54.6	97.280	0.500	-0.670	2.230
2020/01/31 01:20:54.7	97.250	0.480	-0.600	2.290
2020/01/31 01:20:54.8	97.220	0.460	-0.520	2.340
2020/01/31 01:20:54.9	97.200	0.430	-0.450	2.390
2020/01/31 01:20:55.0	97.170	0.410	-0.360	2.440
2020/01/31 01:20:55.1	97.150	0.380	-0.280	2.480
2020/01/31 01:20:55.2	97.130	0.350	-0.200	2.510
2020/01/31 01:20:55.3	97.120	0.330	-0.110	2.540
2020/01/31 01:20:55.4	97.100	0.300	-0.030	2.560
2020/01/31 01:20:55.5	97.090	0.270	0.050	2.580
2020/01/31 01:20:55.6	97.090	0.240	0.130	2.590
2020/01/31 01:20:55.7	97.080	0.210	0.210	2.590
2020/01/31 01:20:55.8	97.080	0.180	0.280	2.580
2020/01/31 01:20:55.9	97.080	0.150	0.350	2.570
2020/01/31 01:20:56.0	97.090	0.130	0.410	2.540
2020/01/31 01:20:56.1	97.100	0.100	0.470	2.520
2020/01/31 01:20:56.2	97.110	0.080	0.520	2.480
2020/01/31 01:20:56.3	97.120	0.060	0.570	2.440
2020/01/31 01:20:56.4	97.140	0.040	0.610	2.400
2020/01/31 01:20:56.5	97.150	0.020	0.650	2.350
2020/01/31 01:20:56.6	97.170	0.010	0.680	2.290
2020/01/31 01:20:56.7	97.190	-0.010	0.700	2.230
2020/01/31 01:20:56.8	97.220	-0.020	0.710	2.160
2020/01/31 01:20:56.9	97.240	-0.030	0.720	2.090
2020/01/31 01:20:57.0	97.250	-0.030	0.720	2.020
2020/01/31 01:20:57.1	97.280	-0.040	0.710	1.950
2020/01/31 01:20:57.2	97.300	-0.040	0.700	1.870
2020/01/31 01:20:57.3	97.330	-0.040	0.680	1.790
2020/01/31 01:20:57.4	97.350	-0.040	0.650	1.710
2020/01/31 01:20:57.5	97.380	-0.040	0.620	1.620
2020/01/31 01:20:57.6	97.400	-0.030	0.580	1.540
2020/01/31 01:20:57.7	97.430	-0.020	0.540	1.460
2020/01/31 01:20:57.8	97.450	-0.010	0.490	1.380
2020/01/31 01:20:57.9	97.480	-0.000	0.450	1.290
2020/01/31 01:20:58.0	97.510	0.010	0.390	1.210
2020/01/31 01:20:58.1	97.530	0.020	0.340	1.130
2020/01/31 01:20:58.2	97.550	0.030	0.280	1.050
2020/01/31 01:20:58.3	97.570	0.040	0.220	0.970
2020/01/31 01:20:58.4	97.590	0.050	0.160	0.900
2020/01/31 01:20:58.5	97.610	0.060	0.110	0.820
2020/01/31 01:20:58.6	97.630	0.080	0.050	0.750
2020/01/31 01:20:58.7	97.650	0.090	-0.010	0.680
2020/01/31 01:20:58.8	97.660	0.100	-0.060	0.620
2020/01/31 01:20:58.9	97.680	0.100	-0.110	0.560
2020/01/31 01:20:59.0	97.690	0.110	-0.160	0.500
2020/01/31 01:20:59.1	97.700	0.110	-0.210	0.450
2020/01/31 01:20:59.2	97.710	0.110	-0.250	0.390
2020/01/31 01:20:59.3	97.720	0.110	-0.290	0.350
2020/01/31 01:20:59.4	97.730	0.110	-0.330	0.300
2020/01/31 01:20:59.5	97.740	0.110	-0.360	0.270
2020/01/31 01:20:59.6	97.740	0.100	-0.390	0.230
2020/01/31 01:20:59.7	97.750	0.090	-0.410	0.200
2020/01/31 01:20:59.8	97.750	0.080	-0.430	0.180
2020/01/31 01:20:59.9	97.750	0.060	-0.450	0.160
2020/01/31 01:21:00.0	97.750	0.040	-0.460	0.140
2020/01/31 01:21:00.1	97.750	0.020	-0.470	0.130
2020/01/31 01:21:00.2	97.740	-0.000	-0.470	0.120
2020/01/31 01:21:00.3	97.740	-0.020	-0.470	0.120
2020/01/31 01:21:00.4	97.730	-0.050	-0.470	0.120
2020/01/31 01:21:00.5	97.730	-0.080	-0.470	0.130
2020/01/31 01:21:00.6	97.720	-0.110	-0.460	0.140
2020/01/31 01:21:00.7	97.710	-0.140	-0.450	0.150
2020/01/31 01:21:00.8	97.700	-0.170	-0.440	0.170
2020/01/31 01:21:00.9	97.690	-0.210	-0.420	0.190
2020/01/31 01:21:01.0	97.670	-0.240	-0.410	0.220
2020/01/31 01:21:01.1	97.660	-0.270	-0.400	0.240
2020/01/31 01:21:01.2	97.640	-0.310	-0.380	0.280
2020/01/31 01:21:01.3	97.630	-0.340	-0.370	0.310
2020/01/31 01:21:01.4	97.610	-0.370	-0.350	0.350
2020/01/31 01:21:01.5	97.600	-0.400	-0.340	0.390
2020/01/31 01:21:01.6	97.580	-0.430	-0.320	0.430
2020/01/31 01:21:01.7	97.570	-0.450	-0.310	0.470
2020/01/31 01:21:01.8	97.550	-0.480	-0.300	0.510
2020/01/31 01:21:01.9	97.540	-0.500	-0.290	0.550
2020/01/31 01:21:02.0	97.530	-0.520	-0.280	0.600
2020/01/31 01:21:02.1	97.520	-0.530	-0.270	0.650
2020/01/31 01:21:02.2	97.500	-0.540	-0.270	0.690
2020/01/31 01:21:02.3	97.490	-0.550	-0.270	0.740
2020/01/31 01:21:02.4	97.480	-0.560	-0.260	0.780
2020/01/31 01:21:02.5	97.470	-0.560	-0.260	0.830
2020/01/31 01:21:02.6	97.460	-0.560	-0.270	0.870
2020/01/31 01:21:02.7	97.450	-0.560	-0.270	0.910
2020/01/31 01:21:02.8	97.440	-0.550	-0.270	0.950
2020/01/31 01:21:02.9	97.440	-0.540	-0.270	0.990
2020/01/31 01:21:03.0	97.440	-0.530	-0.280	1.020
2020/01/31 01:21:03.1	97.440	-0.510	-0.290	1.060
2020/01/31 01:21:03.2	97.440	-0.490	-0.290	1.090
2020/01/31 01:21:03.3	97.440	-0.470	-0.300	1.120
2020/01/31 01:21:03.4	97.450	-0.440	-0.310	1.150
2020/01/31 01:21:03.5	97.450	-0.410	-0.310	1.170
2020/01/31 01:21:03.6	97.460	-0.380	-0.320	1.190
2020/01/31 01:21:03.7	97.470	-0.350	-0.320	1.210
2020/01/31 01:21:03.8	97.490	-0.320	-0.330	1.230
2020/01/31 01:21:03.9	97.500	-0.280	-0.330	1.240
2020/01/31 01:21:04.0	97.530	-0.250	-0.330	1.260
2020/01/31 01:21:04.1	97.540	-0.210	-0.330	1.270
2020/01/31 01:21:04.2	97.560	-0.170	-0.330	1.280
2020/01/31 01:21:04.3	97.580	-0.130	-0.330	1.280
2020/01/31 01:21:04.4	97.610	-0.100	-0.330	1.280
2020/01/31 01:21:04.5	97.630	-0.060	-0.320	1.280
2020/01/31 01:21:04.6	97.650	-0.020	-0.320	1.280
2020/01/31 01:21:04.7	97.680	0.010	-0.310	1.270
2020/01/31 01:21:04.8	97.710	0.040	-0.300	1.270
2020/01/31 01:21:04.9	97.730	0.080	-0.290	1.260
2020/01/31 01:21:05.0	97.770	0.110	-0.280	1.240
2020/01/31 01:21:05.1	97.790	0.130	-0.270	1.230
2020/01/31 01:21:05.2	97.820	0.160	-0.260	1.210
2020/01/31 01:21:05.3	97.850	0.180	-0.250	1.200
2020/01/31 01:21:05.4	97.870	0.210	-0.230	1.180
2020/01/31 01:21:05.5	97.900	0.220	-0.210	1.160
2020/01/31 01:21:05.6	97.920	0.240	-0.200	1.140
2020/01/31 01:21:05.7	97.940	0.260	-0.180	1.120
2020/01/31 01:21:05.8	97.960	0.270	-0.170	1.100
2020/01/31 01:21:05.9	97.980	0.280	-0.150	1.080
2020/01/31 01:21:06.0	98.010	0.280	-0.130	1.060
2020/01/31 01:21:06.1	98.030	0.290	-0.110	1.050
2020/01/31 01:21:06.2	98.040	0.290	-0.100	1.030
2020/01/31 01:21:06.3	98.060	0.290	-0.080	1.010
2020/01/31 01:21:06.4	98.070	0.290	-0.070	1.000
2020/01/31 01:21:06.5	98.080	0.290	-0.050	0.980
2020/01/31 01:21:06.6	98.090	0.280	-0.040	0.970
2020/01/31 01:21:06.7	98.090	0.280	-0.030	0.960
2020/01/31 01:21:06.8	98.090	0.270	-0.010	0.950
2020/01/31 01:21:06.9	98.100	0.260	-0.000	0.950
2020/01/31 01:21:07.0	98.090	0.260	0.010	0.940
2020/01/31 01:21:07.1	98.090	0.250	0.020	0.940
2020/01/31 01:21:07.2	98.090	0.240	0.030	0.940
2020/01/31 01:21:07.3	98.080	0.230	0.030	0.940
2020/01/31 01:21:07.4	98.070	0.230	0.040	0.940
2020/01/31 01:21:07.5	98.060	0.220	0.040	0.940
2020/01/31 01:21:07.6	98.050	0.220	0.040	0.940
2020/01/31 01:21:07.7	98.040	0.210	0.050	0.950
2020/01/31 01:21:07.8	98.030	0.210	0.050	0.950
2020/01/31 01:21:07.9	98.020	0.210	0.040	0.950
2020/01/31 01:21:08.0	98.010	0.210	0.040	0.960
2020/01/31 01:21:08.1	98.000	0.210	0.040	0.960
2020/01/31 01:21:08.2	97.990	0.210	0.040	0.960
2020/01/31 01:21:08.3	97.980	0.210	0.030	0.960
2020/01/31 01:21:08.4	97.970	0.220	0.020	0.960
2020/01/31 01:21:08.5	97.960	0.220	0.020	0.960
2020/01/31 01:21:08.6	97.950	0.230	0.010	0.960
2020/01/31 01:21:08.7	97.940	0.240	-0.000	0.960
2020/01/31 01:21:08.8	97.930	0.250	-0.010	0.960
2020/01/31 01:21:08.9	97.920	0.260	-0.020	0.950
2020/01/31 01:21:09.0	97.910	0.270	-0.030	0.950
2020/01/31 01:21:09.1	97.900	0.280	-0.040	0.940
2020/01/31 01:21:09.2	97.900	0.280	-0.050	0.940
2020/01/31 01:21:09.3	97.890	0.290	-0.060	0.930
2020/01/31 01:21:09.4	97.890	0.300	-0.070	0.920
2020/01/31 01:21:09.5	97.880	0.310	-0.080	0.910
2020/01/31 01:21:09.6	97.880	0.320	-0.080	0.900
2020/01/31 01:21:09.7	97.880	0.320	-0.090	0.890
2020/01/31 01:21:09.8	97.880	0.330	-0.090	0.880
2020/01/31 01:21:09.9	97.880	0.330	-0.100	0.870
2020/01/31 01:21:10.0	97.890	0.330	-0.100	0.860
2020/01/31 01:21:10.1	97.900	0.330	-0.100	0.850
2020/01/31 01:21:10.2	97.900	0.330	-0.100	0.830
2020/01/31 01:21:10.3	97.910	0.330	-0.100	0.820
2020/01/31 01:21:10.4	97.920	0.320	-0.100	0.800
2020/01/31 01:21:10.5	97.930	0.310	-0.090	0.780
2020/01/31 01:21:10.6	97.940	0.300	-0.090	0.760
2020/01/31 01:21:10.7	97.960	0.280	-0.090	0.740
2020/01/31 01:21:10.8	97.970	0.270	-0.080	0.720
2020/01/31 01:21:10.9	97.990	0.250	-0.080	0.700
2020/01/31 01:21:11.0	98.020	0.230	-0.070	0.680
2020/01/31 01:21:11.1	98.040	0.200	-0.070	0.660
2020/01/31 01:21:11.2	98.070	0.180	-0.060	0.630
2020/01/31 01:21:11.3	98.090	0.150	-0.060	0.610
2020/01/31 01:21:11.4	98.120	0.120	-0.050	0.590
2020/01/31 01:21:11.5	98.150	0.100	-0.050	0.570
2020/01/31 01:21:11.6	98.170	0.060	-0.050	0.550
2020/01/31 01:21:11.7	98.200	0.030	-0.040	0.540
2020/01/31 01:21:11.8	98.230	0.000	-0.040	0.520
2020/01/31 01:21:11.9	98.260	-0.030	-0.040	0.510
2020/01/31 01:21:12.0	98.280	-0.060	-0.040	0.490
2020/01/31 01:21:12.1	98.320	-0.090	-0.050	0.490
2020/01/31 01:21:12.2	98.350	-0.120	-0.050	0.480
2020/01/31 01:21:12.3	98.380	-0.160	-0.050	0.480
2020/01/31 01:21:12.4	98.410	-0.180	-0.060	0.480
2020/01/31 01:21:12.5	98.440	-0.210	-0.070	0.480
2020/01/31 01:21:12.6	98.470	-0.240	-0.070	0.490
2020/01/31 01:21:12.7	98.490	-0.260	-0.080	0.500
2020/01/31 01:21:12.8	98.520	-0.280	-0.090	0.520
2020/01/31 01:21:12.9	98.550	-0.300	-0.110	0.530
2020/01/31 01:21:13.0	98.570	-0.320	-0.120	0.560
2020/01/31 01:21:13.1	98.600	-0.340	-0.130	0.580
2020/01/31 01:21:13.2	98.630	-0.350	-0.140	0.610
2020/01/31 01:21:13.3	98.650	-0.360	-0.160	0.640
2020/01/31 01:21:13.4	98.680	-0.370	-0.170	0.670
2020/01/31 01:21:13.5	98.700	-0.370	-0.190	0.710
2020/01/31 01:21:13.6	98.720	-0.380	-0.210	0.750
2020/01/31 01:21:13.7	98.740	-0.380	-0.220	0.790
2020/01/31 01:21:13.8	98.770	-0.370	-0.240	0.840
2020/01/31 01:21:13.9	98.790	-0.370	-0.260	0.880
2020/01/31 01:21:14.0	98.800	-0.360	-0.280	0.930
2020/01/31 01:21:14.1	98.820	-0.350	-0.300	0.980
2020/01/31 01:21:14.2	98.840	-0.340	-0.320	1.030
2020/01/31 01:21:14.3	98.860	-0.330	-0.340	1.080
2020/01/31 01:21:14.4	98.870	-0.310	-0.360	1.130
2020/01/31 01:21:14.5	98.890	-0.290	-0.380	1.180
2020/01/31 01:21:14.6	98.910	-0.280	-0.400	1.240
2020/01/31 01:21:14.7	98.920	-0.260	-0.420	1.290
2020/01/31 01:21:14.8	98.930	-0.240	-0.440	1.340
2020/01/31 01:21:14.9	98.940	-0.220	-0.460	1.390
2020/01/31 01:21:15.0	98.950	-0.200	-0.470	1.440
2020/01/31 01:21:15.1	98.960	-0.180	-0.490	1.490
2020/01/31 01:21:15.2	98.970	-0.150	-0.500	1.540
2020/01/31 01:21:15.3	98.980	-0.130	-0.510	1.580
2020/01/31 01:21:15.4	98.990	-0.110	-0.520	1.630
2020/01/31 01:21:15.5	99.000	-0.090	-0.530	1.670
2020/01/31 01:21:15.6	99.020	-0.070	-0.530	1.710
2020/01/31 01:21:15.7	99.030	-0.050	-0.530	1.750
2020/01/31 01:21:15.8	99.040	-0.040	-0.530	1.780
2020/01/31 01:21:15.9	99.050	-0.020	-0.530	1.810
2020/01/31 01:21:16.0	99.060	-0.010	-0.520	1.850
2020/01/31 01:21:16.1	99.070	0.010	-0.510	1.870
2020/01/31 01:21:16.2	99.080	0.020	-0.500	1.900
2020/01/31 01:21:16.3	99.090	0.030	-0.490	1.920
2020/01/31 01:21:16.4	99.100	0.040	-0.480	1.940
2020/01/31 01:21:16.5	99.110	0.050	-0.460	1.960
2020/01/31 01:21:16.6	99.120	0.060	-0.440	1.980
2020/01/31 01:21:16.7	99.130	0.070	-0.410	1.990
2020/01/31 01:21:16.8	99.140	0.070	-0.390	2.000
2020/01/31 01:21:16.9	99.150	0.070	-0.360	2.010
2020/01/31 01:21:17.0	99.160	0.080	-0.330	2.020
2020/01/31 01:21:17.1	99.170	0.080	-0.290	2.020
2020/01/31 01:21:17.2	99.170	0.080	-0.260	2.020
2020/01/31 01:21:17.3	99.180	0.080	-0.220	2.030
2020/01/31 01:21:17.4	99.190	0.070	-0.190	2.020
2020/01/31 01:21:17.5	99.190	0.070	-0.150	2.020
2020/01/31 01:21:17.6	99.200	0.070	-0.110	2.020
2020/01/31 01:21:17.7	99.200	0.060	-0.070	2.010
2020/01/31 01:21:17.8	99.200	0.060	-0.030	2.010
2020/01/31 01:21:17.9	99.200	0.050	0.010	2.000
2020/01/31 01:21:18.0	99.190	0.040	0.050	1.990
2020/01/31 01:21:18.1	99.190	0.040	0.090	1.980
2020/01/31 01:21:18.2	99.190	0.030	0.130	1.970
2020/01/31 01:21:18.3	99.180	0.020	0.170	1.950
2020/01/31 01:21:18.4	99.180	0.020	0.200	1.940
2020/01/31 01:21:18.5	99.170	0.010	0.240	1.920
2020/01/31 01:21:18.6	99.170	0.010	0.270	1.900
2020/01/31 01:21:18.7	99.160	0.000	0.300	1.880
2020/01/31 01:21:18.8	99.150	-0.000	0.320	1.860
2020/01/31 01:21:18.9	99.140	-0.010	0.350	1.840
2020/01/31 01:21:19.0	99.140	-0.010	0.370	1.810
2020/01/31 01:21:19.1	99.120	-0.010	0.380	1.780
2020/01/31 01:21:19.2	99.110	-0.010	0.390	1.750
2020/01/31 01:21:19.3	99.100	-0.010	0.400	1.720
2020/01/31 01:21:19.4	99.090	-0.010	0.410	1.680
2020/01/31 01:21:19.5	99.070	-0.010	0.410	1.640
2020/01/31 01:21:19.6	99.060	-0.010	0.400	1.600
2020/01/31 01:21:19.7	99.050	-0.010	0.390	1.560
2020/01/31 01:21:19.8	99.030	-0.000	0.380	1.510
2020/01/31 01:21:19.9	99.020	-0.000	0.360	1.460
2020/01/31 01:21:20.0	98.990	0.000	0.350	1.400
2020/01/31 01:21:20.1	98.970	0.010	0.320	1.350
2020/01/31 01:21:20.2	98.960	0.020	0.300	1.290
2020/01/31 01:21:20.3	98.950	0.020	0.270	1.230
2020/01/31 01:21:20.4	98.940	0.030	0.240	1.170
2020/01/31 01:21:20.5	98.930	0.040	0.200	1.100
2020/01/31 01:21:20.6	98.920	0.040	0.170	1.040
2020/01/31 01:21:20.7	98.910	0.050	0.130	0.970
2020/01/31 01:21:20.8	98.910	0.060	0.090	0.900
2020/01/31 01:21:20.9	98.900	0.070	0.050	0.830
2020/01/31 01:21:21.0	98.900	0.070	0.000	0.760
2020/01/31 01:21:21.1	98.900	0.080	-0.040	0.690
2020/01/31 01:21:21.2	98.890	0.090	-0.080	0.610
2020/01/31 01:21:21.3	98.900	0.090	-0.120	0.540
2020/01/31 01:21:21.4	98.900	0.100	-0.160	0.470
2020/01/31 01:21:21.5	98.900	0.110	-0.200	0.400
2020/01/31 01:21:21.6	98.900	0.110	-0.240	0.330
2020/01/31 01:21:21.7	98.910	0.120	-0.280	0.270
2020/01/31 01:21:21.8	98.920	0.120	-0.320	0.200
2020/01/31 01:21:21.9	98.930	0.120	-0.350	0.140
2020/01/31 01:21:22.0	98.940	0.130	-0.390	0.070
2020/01/31 01:21:22.1	98.950	0.130	-0.420	0.010
2020/01/31 01:21:22.2	98.960	0.130	-0.450	-0.040
2020/01/31 01:21:22.3	98.970	0.130	-0.480	-0.090
2020/01/31 01:21:22.4	98.990	0.130	-0.510	-0.150
2020/01/31 01:21:22.5	99.010	0.130	-0.530	-0.190
2020/01/31 01:21:22.6	99.020	0.130	-0.550	-0.240
2020/01/31 01:21:22.7	99.040	0.130	-0.570	-0.280
2020/01/31 01:21:22.8	99.060	0.130	-0.590	-0.310
2020/01/31 01:21:22.9	99.080	0.130	-0.610	-0.350
2020/01/31 01:21:23.0	99.120	0.120	-0.620	-0.370
2020/01/31 01:21:23.1	99.140	0.120	-0.630	-0.400
2020/01/31 01:21:23.2	99.160	0.110	-0.630	-0.420
2020/01/31 01:21:23.3	99.190	0.110	-0.640	-0.440
2020/01/31 01:21:23.4	99.220	0.100	-0.640	-0.460
2020/01/31 01:21:23.5	99.250	0.100	-0.640	-0.470
2020/01/31 01:21:23.6	99.270	0.090	-0.640	-0.480
2020/01/31 01:21:23.7	99.300	0.080	-0.630	-0.480
2020/01/31 01:21:23.8	99.340	0.080	-0.620	-0.480
2020/01/31 01:21:23.9	99.370	0.070	-0.610	-0.480
2020/01/31 01:21:24.0	99.420	0.060	-0.600	-0.460
2020/01/31 01:21:24.1	99.460	0.050	-0.580	-0.450
2020/01/31 01:21:24.2	99.490	0.040	-0.560	-0.430
2020/01/31 01:21:24.3	99.520	0.030	-0.540	-0.410
2020/01/31 01:21:24.4	99.560	0.020	-0.510	-0.380
2020/01/31 01:21:24.5	99.590	0.010	-0.480	-0.350
2020/01/31 01:21:24.6	99.620	0.000	-0.460	-0.320
2020/01/31 01:21:24.7	99.660	-0.010	-0.420	-0.280
2020/01/31 01:21:24.8	99.690	-0.020	-0.390	-0.240
2020/01/31 01:21:24.9	99.720	-0.020	-0.360	-0.190
2020/01/31 01:21:25.0	99.750	-0.030	-0.320	-0.140
2020/01/31 01:21:25.1	99.780	-0.040	-0.290	-0.080
2020/01/31 01:21:25.2	99.800	-0.050	-0.250	-0.020
2020/01/31 01:21:25.3	99.820	-0.060	-0.220	0.040
2020/01/31 01:21:25.4	99.840	-0.060	-0.190	0.110
2020/01/31 01:21:25.5	99.860	-0.070	-0.150	0.190
2020/01/31 01:21:25.6	99.870	-0.070	-0.120	0.260
2020/01/31 01:21:25.7	99.880	-0.080	-0.090	0.350
2020/01/31 01:21:25.8	99.890	-0.080	-0.060	0.430
2020/01/31 01:21:25.9	99.900	-0.090	-0.030	0.520
2020/01/31 01:21:26.0	99.890	-0.090	-0.000	0.610
2020/01/31 01:21:26.1	99.890	-0.090	0.030	0.700
2020/01/31 01:21:26.2	99.880	-0.090	0.050	0.800
2020/01/31 01:21:26.3	99.870	-0.090	0.070	0.900
2020/01/31 01:21:26.4	99.860	-0.090	0.100	1.000
2020/01/31 01:21:26.5	99.850	-0.090	0.110	1.100
2020/01/31 01:21:26.6	99.830	-0.080	0.130	1.200
2020/01/31 01:21:26.7	99.810	-0.080	0.150	1.300
2020/01/31 01:21:26.8	99.790	-0.080	0.160	1.400
2020/01/31 01:21:26.9	99.770	-0.070	0.170	1.500
2020/01/31 01:21:27.0	99.730	-0.070	0.190	1.590
2020/01/31 01:21:27.1	99.710	-0.060	0.190	1.690
2020/01/31 01:21:27.2	99.680	-0.050	0.200	1.780
2020/01/31 01:21:27.3	99.650	-0.040	0.200	1.870
2020/01/31 01:21:27.4	99.630	-0.040	0.200	1.960
2020/01/31 01:21:27.5	99.600	-0.030	0.200	2.040
2020/01/31 01:21:27.6	99.570	-0.020	0.200	2.120
2020/01/31 01:21:27.7	99.540	-0.010	0.190	2.190
2020/01/31 01:21:27.8	99.520	0.000	0.180	2.260
2020/01/31 01:21:27.9	99.490	0.010	0.180	2.320
2020/01/31 01:21:28.0	99.460	0.020	0.160	2.380
2020/01/31 01:21:28.1	99.440	0.030	0.150	2.430
2020/01/31 01:21:28.2	99.410	0.040	0.140	2.480
2020/01/31 01:21:28.3	99.390	0.050	0.120	2.530
2020/01/31 01:21:28.4	99.370	0.060	0.100	2.570
2020/01/31 01:21:28.5	99.350	0.070	0.090	2.600
2020/01/31 01:21:28.6	99.330	0.080	0.070	2.630
2020/01/31 01:21:28.7	99.310	0.090	0.050	2.660
2020/01/31 01:21:28.8	99.290	0.100	0.030	2.680
2020/01/31 01:21:28.9	99.270	0.100	0.000	2.700
2020/01/31 01:21:29.0	99.270	0.110	-0.010	2.720
2020/01/31 01:21:29.1	99.260	0.120	-0.030	2.730
2020/01/31 01:21:29.2	99.240	0.120	-0.060	2.730
2020/01/31 01:21:29.3	99.230	0.130	-0.080	2.740
2020/01/31 01:21:29.4	99.220	0.130	-0.100	2.740
2020/01/31 01:21:29.5	99.200	0.130	-0.110	2.730
2020/01/31 01:21:29.6	99.190	0.130	-0.130	2.730
2020/01/31 01:21:29.7	99.180	0.130	-0.150	2.720
2020/01/31 01:21:29.8	99.170	0.130	-0.170	2.700
2020/01/31 01:21:29.9	99.160	0.130	-0.180	2.690
2020/01/31 01:21:30.0	99.170	0.120	-0.200	2.660
2020/01/31 01:21:30.1	99.160	0.120	-0.210	2.640
2020/01/31 01:21:30.2	99.160	0.110	-0.220	2.610
2020/01/31 01:21:30.3	99.160	0.110	-0.230	2.580
2020/01/31 01:21:30.4	99.160	0.100	-0.240	2.550
2020/01/31 01:21:30.5	99.160	0.090	-0.250	2.520
2020/01/31 01:21:30.6	99.160	0.080	-0.250	2.480
2020/01/31 01:21:30.7	99.160	0.070	-0.260	2.430
2020/01/31 01:21:30.8	99.170	0.060	-0.260	2.390
2020/01/31 01:21:30.9	99.170	0.050	-0.270	2.340
2020/01/31 01:21:31.0	99.190	0.030	-0.260	2.280
2020/01/31 01:21:31.1	99.200	0.020	-0.270	2.220
2020/01/31 01:21:31.2	99.220	0.010	-0.270	2.160
2020/01/31 01:21:31.3	99.230	-0.000	-0.270	2.090
2020/01/31 01:21:31.4	99.250	-0.010	-0.270	2.020
2020/01/31 01:21:31.5	99.270	-0.020	-0.280	1.950
2020/01/31 01:21:31.6	99.290	-0.030	-0.280	1.870
2020/01/31 01:21:31.7	99.310	-0.040	-0.280	1.790
2020/01/31 01:21:31.8	99.330	-0.050	-0.290	1.710
2020/01/31 01:21:31.9	99.350	-0.050	-0.290	1.630
2020/01/31 01:21:32.0	99.370	-0.060	-0.300	1.530
2020/01/31 01:21:32.1	99.390	-0.060	-0.310	1.450
2020/01/31 01:21:32.2	99.420	-0.060	-0.320	1.360
2020/01/31 01:21:32.3	99.440	-0.060	-0.330	1.270
2020/01/31 01:21:32.4	99.460	-0.060	-0.340	1.180
2020/01/31 01:21:32.5	99.480	-0.060	-0.350	1.090
2020/01/31 01:21:32.6	99.500	-0.060	-0.360	1.000
2020/01/31 01:21:32.7	99.520	-0.050	-0.370	0.920
2020/01/31 01:21:32.8	99.530	-0.050	-0.380	0.830
2020/01/31 01:21:32.9	99.550	-0.040	-0.390	0.750
2020/01/31 01:21:33.0	99.560	-0.030	-0.400	0.670
2020/01/31 01:21:33.1	99.570	-0.020	-0.410	0.590
2020/01/31 01:21:33.2	99.580	-0.010	-0.420	0.520
2020/01/31 01:21:33.3	99.590	-0.000	-0.430	0.440
2020/01/31 01:21:33.4	99.600	0.000	-0.440	0.370
2020/01/31 01:21:33.5	99.600	0.010	-0.440	0.310
2020/01/31 01:21:33.6	99.610	0.020	-0.450	0.250
2020/01/31 01:21:33.7	99.610	0.030	-0.450	0.190
2020/01/31 01:21:33.8	99.610	0.040	-0.450	0.140
2020/01/31 01:21:33.9	99.610	0.040	-0.440	0.090
2020/01/31 01:21:34.0	99.620	0.050	-0.440	0.040
2020/01/31 01:21:34.1	99.620	0.050	-0.430	-0.000
2020/01/31 01:21:34.2	99.610	0.050	-0.410	-0.040
2020/01/31 01:21:34.3	99.610	0.050	-0.400	-0.070
2020/01/31 01:21:34.4	99.610	0.050	-0.380	-0.100
2020/01/31 01:21:34.5	99.610	0.050	-0.350	-0.120
2020/01/31 01:21:34.6	99.600	0.040	-0.330	-0.140
2020/01/31 01:21:34.7	99.600	0.040	-0.300	-0.150
2020/01/31 01:21:34.8	99.590	0.030	-0.270	-0.170
2020/01/31 01:21:34.9	99.590	0.020	-0.230	-0.170
2020/01/31 01:21:35.0	99.590	0.000	-0.190	-0.170
2020/01/31 01:21:35.1	99.590	-0.010	-0.150	-0.170
2020/01/31 01:21:35.2	99.580	-0.030	-0.110	-0.170
2020/01/31 01:21:35.3	99.570	-0.040	-0.070	-0.160
2020/01/31 01:21:35.4	99.570	-0.060	-0.020	-0.150
2020/01/31 01:21:35.5	99.560	-0.080	0.020	-0.130
2020/01/31 01:21:35.6	99.550	-0.100	0.060	-0.120
2020/01/31 01:21:35.7	99.550	-0.120	0.110	-0.100
2020/01/31 01:21:35.8	99.540	-0.130	0.150	-0.080
2020/01/31 01:21:35.9	99.540	-0.150	0.190	-0.060
2020/01/31 01:21:36.0	99.520	-0.170	0.220	-0.040
2020/01/31 01:21:36.1	99.510	-0.190	0.260	-0.010
2020/01/31 01:21:36.2	99.510	-0.200	0.290	0.010
2020/01/31 01:21:36.3	99.510	-0.220	0.320	0.030
2020/01/31 01:21:36.4	99.510	-0.230	0.340	0.060
2020/01/31 01:21:36.5	99.500	-0.240	0.360	0.080
2020/01/31 01:21:36.6	99.500	-0.250	0.380	0.110
2020/01/31 01:21:36.7	99.500	-0.260	0.390	0.130
2020/01/31 01:21:36.8	99.500	-0.260	0.400	0.160
2020/01/31 01:21:36.9	99.500	-0.270	0.400	0.180
2020/01/31 01:21:37.0	99.500	-0.270	0.400	0.210
2020/01/31 01:21:37.1	99.510	-0.270	0.390	0.230
2020/01/31 01:21:37.2	99.510	-0.260	0.380	0.250
2020/01/31 01:21:37.3	99.510	-0.260	0.360	0.280
2020/01/31 01:21:37.4	99.510	-0.250	0.340	0.300
2020/01/31 01:21:37.5	99.510	-0.240	0.310	0.330
2020/01/31 01:21:37.6	99.510	-0.220	0.280	0.350
2020/01/31 01:21:37.7	99.520	-0.210	0.250	0.370
2020/01/31 01:21:37.8	99.520	-0.190	0.210	0.400
2020/01/31 01:21:37.9	99.520	-0.170	0.170	0.420
2020/01/31 01:21:38.0	99.520	-0.150	0.120	0.450
2020/01/31 01:21:38.1	99.520	-0.130	0.080	0.480
2020/01/31 01:21:38.2	99.520	-0.110	0.030	0.500
2020/01/31 01:21:38.3	99.530	-0.080	-0.020	0.530
2020/01/31 01:21:38.4	99.530	-0.060	-0.070	0.560
2020/01/31 01:21:38.5	99.530	-0.030	-0.120	0.580
2020/01/31 01:21:38.6	99.530	-0.000	-0.180	0.610
2020/01/31 01:21:38.7	99.540	0.020	-0.230	0.640
2020/01/31 01:21:38.8	99.540	0.050	-0.280	0.670
2020/01/31 01:21:38.9	99.550	0.070	-0.330	0.700
2020/01/31 01:21:39.0	99.560	0.100	-0.370	0.730
2020/01/31 01:21:39.1	99.560	0.120	-0.420	0.760
2020/01/31 01:21:39.2	99.570	0.140	-0.470	0.790
2020/01/31 01:21:39.3	99.580	0.170	-0.510	0.830
2020/01/31 01:21:39.4	99.590	0.190	-0.550	0.860
2020/01/31 01:21:39.5	99.590	0.200	-0.580	0.900
2020/01/31 01:21:39.6	99.600	0.220	-0.610	0.940
2020/01/31 01:21:39.7	99.610	0.240	-0.640	0.980
2020/01/31 01:21:39.8	99.620	0.250	-0.670	1.020
2020/01/31 01:21:39.9	99.630	0.260	-0.680	1.060
2020/01/31 01:21:40.0	99.640	0.270	-0.700	1.110
2020/01/31 01:21:40.1	99.650	0.270	-0.710	1.160
2020/01/31 01:21:40.2	99.660	0.270	-0.710	1.200
2020/01/31 01:21:40.3	99.670	0.270	-0.710	1.250
2020/01/31 01:21:40.4	99.670	0.270	-0.710	1.300
2020/01/31 01:21:40.5	99.680	0.260	-0.700	1.350
2020/01/31 01:21:40.6	99.690	0.260	-0.680	1.400
2020/01/31 01:21:40.7	99.700	0.250	-0.660	1.450
2020/01/31 01:21:40.8	99.710	0.230	-0.640	1.500
2020/01/31 01:21:40.9	99.720	0.220	-0.610	1.550
2020/01/31 01:21:41.0	99.710	0.200	-0.580	1.600
2020/01/31 01:21:41.1	99.720	0.180	-0.540	1.640
2020/01/31 01:21:41.2	99.740	0.160	-0.500	1.690
2020/01/31 01:21:41.3	99.750	0.130	-0.460	1.730
2020/01/31 01:21:41.4	99.770	0.110	-0.410	1.770
2020/01/31 01:21:41.5	99.780	0.080	-0.360	1.800
2020/01/31 01:21:41.6	99.800	0.050	-0.310	1.840
2020/01/31 01:21:41.7	99.810	0.020	-0.260	1.870
2020/01/31 01:21:41.8	99.830	-0.010	-0.210	1.890
2020/01/31 01:21:41.9	99.840	-0.040	-0.160	1.920
2020/01/31 01:21:42.0	99.870	-0.070	-0.110	1.940
2020/01/31 01:21:42.1	99.880	-0.110	-0.060	1.950
2020/01/31 01:21:42.2	99.900	-0.140	-0.010	1.970
2020/01/31 01:21:42.3	99.910	-0.170	0.040	1.990
2020/01/31 01:21:42.4	99.920	-0.200	0.090	2.000
2020/01/31 01:21:42.5	99.940	-0.230	0.130	2.010
2020/01/31 01:21:42.6	99.950	-0.260	0.170	2.020
2020/01/31 01:21:42.7	99.950	-0.280	0.210	2.020
2020/01/31 01:21:42.8	99.960	-0.310	0.250	2.030
2020/01/31 01:21:42.9	99.960	-0.330	0.280	2.030
2020/01/31 01:21:43.0	99.950	-0.350	0.310	2.030
2020/01/31 01:21:43.1	99.950	-0.370	0.340	2.030
2020/01/31 01:21:43.2	99.950	-0.380	0.360	2.030
2020/01/31 01:21:43.3	99.950	-0.400	0.370	2.030
2020/01/31 01:21:43.4	99.950	-0.410	0.390	2.020
2020/01/31 01:21:43.5	99.940	-0.410	0.390	2.020
2020/01/31 01:21:43.6	99.940	-0.420	0.400	2.010
2020/01/31 01:21:43.7	99.930	-0.420	0.400	2.000
2020/01/31 01:21:43.8	99.920	-0.410	0.400	1.980
2020/01/31 01:21:43.9	99.910	-0.410	0.390	1.970
2020/01/31 01:21:44.0	99.900	-0.400	0.370	1.950
2020/01/31 01:21:44.1	99.890	-0.390	0.360	1.930
2020/01/31 01:21:44.2	99.880	-0.370	0.340	1.900
2020/01/31 01:21:44.3	99.870	-0.350	0.320	1.880
2020/01/31 01:21:44.4	99.860	-0.330	0.290	1.850
2020/01/31 01:21:44.5	99.850	-0.310	0.260	1.820
2020/01/31 01:21:44.6	99.840	-0.280	0.230	1.790
2020/01/31 01:21:44.7	99.830	-0.250	0.200	1.750
2020/01/31 01:21:44.8	99.820	-0.220	0.160	1.710
2020/01/31 01:21:44.9	99.820	-0.180	0.120	1.670
2020/01/31 01:21:45.0	99.810	-0.150	0.080	1.620
2020/01/31 01:21:45.1	99.800	-0.110	0.030	1.580
2020/01/31 01:21:45.2	99.800	-0.070	-0.010	1.530
2020/01/31 01:21:45.3	99.790	-0.030	-0.060	1.480
2020/01/31 01:21:45.4	99.790	0.010	-0.110	1.430
2020/01/31 01:21:45.5	99.790	0.050	-0.160	1.370
2020/01/31 01:21:45.6	99.790	0.090	-0.210	1.320
2020/01/31 01:21:45.7	99.790	0.140	-0.260	1.260
2020/01/31 01:21:45.8	99.790	0.180	-0.310	1.210
2020/01/31 01:21:45.9	99.790	0.220	-0.360	1.150
2020/01/31 01:21:46.0	99.780	0.260	-0.410	1.090
2020/01/31 01:21:46.1	99.790	0.300	-0.460	1.030
2020/01/31 01:21:46.2	99.790	0.330	-0.500	0.970
2020/01/31 01:21:46.3	99.800	0.370	-0.550	0.910
2020/01/31 01:21:46.4	99.810	0.400	-0.590	0.840
2020/01/31 01:21:46.5	99.820	0.430	-0.630	0.780
2020/01/31 01:21:46.6	99.830	0.460	-0.660	0.720
2020/01/31 01:21:46.7	99.840	0.490	-0.690	0.660
2020/01/31 01:21:46.8	99.850	0.510	-0.720	0.590
2020/01/31 01:21:46.9	99.870	0.530	-0.750	0.530
2020/01/31 01:21:47.0	99.880	0.550	-0.770	0.470
2020/01/31 01:21:47.1	99.890	0.570	-0.790	0.400
2020/01/31 01:21:47.2	99.910	0.580	-0.800	0.340
2020/01/31 01:21:47.3	99.930	0.590	-0.810	0.280
2020/01/31 01:21:47.4	99.950	0.590	-0.810	0.220
2020/01/31 01:21:47.5	99.970	0.590	-0.810	0.160
2020/01/31 01:21:47.6	100.000	0.590	-0.800	0.110
2020/01/31 01:21:47.7	100.020	0.580	-0.790	0.050
2020/01/31 01:21:47.8	100.040	0.580	-0.780	0.000
2020/01/31 01:21:47.9	100.060	0.560	-0.760	-0.050
2020/01/31 01:21:48.0	100.090	0.550	-0.740	-0.100
2020/01/31 01:21:48.1	100.120	0.530	-0.710	-0.140
2020/01/31 01:21:48.2	100.140	0.510	-0.670	-0.180
2020/01/31 01:21:48.3	100.160	0.490	-0.640	-0.220
2020/01/31 01:21:48.4	100.180	0.460	-0.600	-0.260
2020/01/31 01:21:48.5	100.200	0.430	-0.560	-0.290
2020/01/31 01:21:48.6	100.220	0.400	-0.510	-0.320
2020/01/31 01:21:48.7	100.230	0.370	-0.460	-0.340
2020/01/31 01:21:48.8	100.250	0.330	-0.410	-0.360
2020/01/31 01:21:48.9	100.260	0.290	-0.360	-0.380
2020/01/31 01:21:49.0	100.280	0.260	-0.300	-0.390
2020/01/31 01:21:49.1	100.300	0.210	-0.250	-0.390
2020/01/31 01:21:49.2	100.310	0.170	-0.190	-0.400
2020/01/31 01:21:49.3	100.320	0.130	-0.130	-0.400
2020/01/31 01:21:49.4	100.330	0.090	-0.070	-0.390
2020/01/31 01:21:49.5	100.340	0.040	-0.010	-0.380
2020/01/31 01:21:49.6	100.350	-0.010	0.050	-0.370
2020/01/31 01:21:49.7	100.360	-0.050	0.110	-0.350
2020/01/31 01:21:49.8	100.370	-0.100	0.170	-0.330
2020/01/31 01:21:49.9	100.390	-0.140	0.220	-0.300
2020/01/31 01:21:50.0	100.400	-0.190	0.280	-0.270
2020/01/31 01:21:50.1	100.410	-0.230	0.330	-0.240
2020/01/31 01:21:50.2	100.430	-0.270	0.390	-0.200
2020/01/31 01:21:50.3	100.440	-0.320	0.440	-0.160
2020/01/31 01:21:50.4	100.450	-0.360	0.480	-0.110
2020/01/31 01:21:50.5	100.460	-0.400	0.530	-0.070
2020/01/31 01:21:50.6	100.480	-0.430	0.570	-0.010
2020/01/31 01:21:50.7	100.490	-0.470	0.600	0.040
2020/01/31 01:21:50.8	100.510	-0.500	0.630	0.100
2020/01/31 01:21:50.9	100.520	-0.530	0.660	0.160
2020/01/31 01:21:51.0	100.550	-0.560	0.680	0.230
2020/01/31 01:21:51.1	100.560	-0.580	0.700	0.300
2020/01/31 01:21:51.2	100.580	-0.600	0.710	0.370
2020/01/31 01:21:51.3	100.590	-0.620	0.720	0.440
2020/01/31 01:21:51.4	100.610	-0.640	0.720	0.520
2020/01/31 01:21:51.5	100.620	-0.650	0.710	0.600
2020/01/31 01:21:51.6	100.630	-0.660	0.700	0.680
2020/01/31 01:21:51.7	100.640	-0.660	0.680	0.760
2020/01/31 01:21:51.8	100.660	-0.660	0.660	0.850
2020/01/31 01:21:51.9	100.670	-0.660	0.630	0.940
2020/01/31 01:21:52.0	100.680	-0.650	0.590	1.020
2020/01/31 01:21:52.1	100.690	-0.640	0.550	1.110
2020/01/31 01:21:52.2	100.690	-0.630	0.500	1.200
2020/01/31 01:21:52.3	100.700	-0.620	0.450	1.290
2020/01/31 01:21:52.4	100.710	-0.600	0.400	1.380
2020/01/31 01:21:52.5	100.710	-0.580	0.340	1.470
2020/01/31 01:21:52.6	100.710	-0.550	0.270	1.560
2020/01/31 01:21:52.7	100.710	-0.530	0.200	1.650
2020/01/31 01:21:52.8	100.710	-0.500	0.130	1.730
2020/01/31 01:21:52.9	100.710	-0.460	0.050	1.820
2020/01/31 01:21:53.0	100.710	-0.430	-0.020	1.900
2020/01/31 01:21:53.1	100.710	-0.390	-0.100	1.980
2020/01/31 01:21:53.2	100.700	-0.360	-0.190	2.050
2020/01/31 01:21:53.3	100.700	-0.320	-0.270	2.130
2020/01/31 01:21:53.4	100.690	-0.280	-0.350	2.200
2020/01/31 01:21:53.5	100.680	-0.230	-0.440	2.270
2020/01/31 01:21:53.6	100.670	-0.190	-0.520	2.330
2020/01/31 01:21:53.7	100.650	-0.150	-0.600	2.390
2020/01/31 01:21:53.8	100.640	-0.110	-0.680	2.450
2020/01/31 01:21:53.9	100.630	-0.060	-0.760	2.500
2020/01/31 01:21:54.0	100.610	-0.020	-0.840	2.550
2020/01/31 01:21:54.1	100.600	0.020	-0.920	2.590
2020/01/31 01:21:54.2	100.580	0.060	-0.980	2.630
2020/01/31 01:21:54.3	100.570	0.100	-1.050	2.670
2020/01/31 01:21:54.4	100.550	0.140	-1.100	2.700
2020/01/31 01:21:54.5	100.540	0.180	-1.150	2.730
2020/01/31 01:21:54.6	100.530	0.220	-1.200	2.750
2020/01/31 01:21:54.7	100.520	0.250	-1.230	2.770
2020/01/31 01:21:54.8	100.510	0.280	-1.260	2.790
2020/01/31 01:21:54.9	100.500	0.310	-1.280	2.800
2020/01/31 01:21:55.0	100.480	0.330	-1.290	2.810
2020/01/31 01:21:55.1	100.470	0.360	-1.290	2.820
2020/01/31 01:21:55.2	100.470	0.380	-1.280	2.820
2020/01/31 01:21:55.3	100.460	0.390	-1.270	2.820
2020/01/31 01:21:55.4	100.460	0.400	-1.240	2.810
2020/01/31 01:21:55.5	100.460	0.410	-1.200	2.800
2020/01/31 01:21:55.6	100.460	0.420	-1.160	2.790
2020/01/31 01:21:55.7	100.460	0.420	-1.110	2.780
2020/01/31 01:21:55.8	100.460	0.420	-1.050	2.760
2020/01/31 01:21:55.9	100.470	0.420	-0.980	2.740
2020/01/31 01:21:56.0	100.480	0.410	-0.910	2.710
2020/01/31 01:21:56.1	100.490	0.400	-0.830	2.680
2020/01/31 01:21:56.2	100.500	0.380	-0.740	2.650
2020/01/31 01:21:56.3	100.510	0.370	-0.650	2.620
2020/01/31 01:21:56.4	100.530	0.350	-0.560	2.580
2020/01/31 01:21:56.5	100.540	0.330	-0.460	2.540
2020/01/31 01:21:56.6	100.560	0.310	-0.360	2.490
2020/01/31 01:21:56.7	100.580	0.280	-0.260	2.450
2020/01/31 01:21:56.8	100.600	0.250	-0.150	2.400
2020/01/31 01:21:56.9	100.620	0.230	-0.050	2.340
2020/01/31 01:21:57.0	100.630	0.200	0.060	2.290
2020/01/31 01:21:57.1	100.650	0.170	0.160	2.230
2020/01/31 01:21:57.2	100.680	0.140	0.260	2.170
2020/01/31 01:21:57.3	100.700	0.110	0.350	2.110
2020/01/31 01:21:57.4	100.730	0.080	0.450	2.050
2020/01/31 01:21:57.5	100.760	0.050	0.530	1.980
2020/01/31 01:21:57.6	100.780	0.020	0.620	1.920
2020/01/31 01:21:57.7	100.810	-0.010	0.690	1.850
2020/01/31 01:21:57.8	100.840	-0.040	0.770	1.780
2020/01/31 01:21:57.9	100.860	-0.070	0.830	1.700
2020/01/31 01:21:58.0	100.890	-0.090	0.890	1.630
2020/01/31 01:21:58.1	100.910	-0.120	0.940	1.550
2020/01/31 01:21:58.2	100.940	-0.140	0.980	1.470
2020/01/31 01:21:58.3	100.960	-0.160	1.010	1.390
2020/01/31 01:21:58.4	100.980	-0.180	1.040	1.310
2020/01/31 01:21:58.5	101.000	-0.200	1.060	1.230
2020/01/31 01:21:58.6	101.020	-0.210	1.060	1.150
2020/01/31 01:21:58.7	101.040	-0.220	1.060	1.060
2020/01/31 01:21:58.8	101.050	-0.230	1.050	0.980
2020/01/31 01:21:58.9	101.070	-0.240	1.030	0.890
2020/01/31 01:21:59.0	101.080	-0.240	1.010	0.810
2020/01/31 01:21:59.1	101.080	-0.240	0.970	0.720
2020/01/31 01:21:59.2	101.090	-0.240	0.930	0.640
2020/01/31 01:21:59.3	101.090	-0.230	0.870	0.550
2020/01/31 01:21:59.4	101.100	-0.220	0.820	0.470
2020/01/31 01:21:59.5	101.090	-0.210	0.750	0.390
2020/01/31 01:21:59.6	101.090	-0.200	0.680	0.300
2020/01/31 01:21:59.7	101.090	-0.180	0.600	0.230
2020/01/31 01:21:59.8	101.080	-0.160	0.520	0.150
2020/01/31 01:21:59.9	101.070	-0.140	0.430	0.070
2020/01/31 01:22:00.0	101.050	-0.120	0.340	-0.000
2020/01/31 01:22:00.1	101.040	-0.100	0.240	-0.070
2020/01/31 01:22:00.2	101.020	-0.070	0.150	-0.140
2020/01/31 01:22:00.3	101.010	-0.040	0.050	-0.200
2020/01/31 01:22:00.4	100.990	-0.020	-0.050	-0.250
2020/01/31 01:22:00.5	100.970	0.010	-0.150	-0.310
2020/01/31 01:22:00.6	100.960	0.040	-0.250	-0.360
2020/01/31 01:22:00.7	100.940	0.070	-0.350	-0.400
2020/01/31 01:22:00.8	100.920	0.100	-0.440	-0.440
2020/01/31 01:22:00.9	100.900	0.130	-0.540	-0.470
2020/01/31 01:22:01.0	100.880	0.160	-0.630	-0.500
2020/01/31 01:22:01.1	100.860	0.190	-0.710	-0.520
2020/01/31 01:22:01.2	100.830	0.220	-0.790	-0.530
2020/01/31 01:22:01.3	100.810	0.240	-0.870	-0.540
2020/01/31 01:22:01.4	100.790	0.260	-0.940	-0.550
2020/01/31 01:22:01.5	100.760	0.290	-1.000	-0.540
2020/01/31 01:22:01.6	100.740	0.300	-1.050	-0.540
2020/01/31 01:22:01.7	100.720	0.320	-1.100	-0.520
2020/01/31 01:22:01.8	100.690	0.330	-1.140	-0.510
2020/01/31 01:22:01.9	100.670	0.340	-1.170	-0.490
2020/01/31 01:22:02.0	100.670	0.350	-1.200	-0.460
2020/01/31 01:22:02.1	100.650	0.360	-1.210	-0.430
2020/01/31 01:22:02.2	100.630	0.360	-1.220	-0.400
2020/01/31 01:22:02.3	100.610	0.360	-1.220	-0.360
2020/01/31 01:22:02.4	100.600	0.350	-1.210	-0.320
2020/01/31 01:22:02.5	100.580	0.340	-1.190	-0.270
2020/01/31 01:22:02.6	100.570	0.330	-1.170	-0.230
2020/01/31 01:22:02.7	100.560	0.320	-1.130	-0.180
2020/01/31 01:22:02.8	100.550	0.300	-1.100	-0.130
2020/01/31 01:22:02.9	100.550	0.280	-1.050	-0.080
2020/01/31 01:22:03.0	100.540	0.250	-1.000	-0.020
2020/01/31 01:22:03.1	100.540	0.230	-0.940	0.030
2020/01/31 01:22:03.2	100.550	0.200	-0.880	0.080
2020/01/31 01:22:03.3	100.550	0.170	-0.820	0.140
2020/01/31 01:22:03.4	100.560	0.140	-0.750	0.190
2020/01/31 01:22:03.5	100.580	0.110	-0.680	0.250
2020/01/31 01:22:03.6	100.590	0.080	-0.600	0.300
2020/01/31 01:22:03.7	100.610	0.040	-0.530	0.360
2020/01/31 01:22:03.8	100.630	0.010	-0.450	0.410
2020/01/31 01:22:03.9	100.650	-0.030	-0.370	0.470
2020/01/31 01:22:04.0	100.670	-0.060	-0.290	0.520
2020/01/31 01:22:04.1	100.700	-0.090	-0.210	0.570
2020/01/31 01:22:04.2	100.720	-0.130	-0.140	0.630
2020/01/31 01:22:04.3	100.750	-0.160	-0.060	0.680
2020/01/31 01:22:04.4	100.780	-0.190	0.010	0.740
2020/01/31 01:22:04.5	100.800	-0.220	0.080	0.790
2020/01/31 01:22:04.6	100.830	-0.250	0.140	0.840
2020/01/31 01:22:04.7	100.860	-0.270	0.200	0.900
2020/01/31 01:22:04.8	100.880	-0.300	0.260	0.950
2020/01/31 01:22:04.9	100.910	-0.320	0.320	1.000
2020/01/31 01:22:05.0	100.940	-0.340	0.370	1.060
2020/01/31 01:22:05.1	100.960	-0.360	0.410	1.120
2020/01/31 01:22:05.2	100.990	-0.370	0.460	1.170
2020/01/31 01:22:05.3	101.010	-0.380	0.490	1.220
2020/01/31 01:22:05.4	101.030	-0.390	0.520	1.280
2020/01/31 01:22:05.5	101.050	-0.400	0.550	1.330
2020/01/31 01:22:05.6	101.070	-0.410	0.570	1.380
2020/01/31 01:22:05.7	101.090	-0.410	0.590	1.430
2020/01/31 01:22:05.8	101.110	-0.410	0.600	1.480
2020/01/31 01:22:05.9	101.130	-0.410	0.610	1.530
2020/01/31 01:22:06.0	101.150	-0.400	0.620	1.580
2020/01/31 01:22:06.1	101.160	-0.390	0.610	1.630
2020/01/31 01:22:06.2	101.180	-0.380	0.610	1.680
2020/01/31 01:22:06.3	101.190	-0.370	0.600	1.730
2020/01/31 01:22:06.4	101.200	-0.360	0.580	1.770
2020/01/31 01:22:06.5	101.210	-0.340	0.570	1.820
2020/01/31 01:22:06.6	101.220	-0.330	0.540	1.860
2020/01/31 01:22:06.7	101.230	-0.310	0.520	1.910
2020/01/31 01:22:06.8	101.240	-0.290	0.480	1.950
2020/01/31 01:22:06.9	101.240	-0.260	0.450	2.000
2020/01/31 01:22:07.0	101.250	-0.240	0.410	2.040
2020/01/31 01:22:07.1	101.250	-0.220	0.370	2.080
2020/01/31 01:22:07.2	101.250	-0.190	0.320	2.130
2020/01/31 01:22:07.3	101.250	-0.160	0.280	2.170
2020/01/31 01:22:07.4	101.250	-0.130	0.230	2.210
2020/01/31 01:22:07.5	101.250	-0.110	0.180	2.260
2020/01/31 01:22:07.6	101.240	-0.080	0.120	2.300
2020/01/31 01:22:07.7	101.230	-0.050	0.070	2.340
2020/01/31 01:22:07.8	101.220	-0.020	0.010	2.390
2020/01/31 01:22:07.9	101.210	0.010	-0.050	2.430
2020/01/31 01:22:08.0	101.190	0.040	-0.110	2.470
2020/01/31 01:22:08.1	101.180	0.070	-0.170	2.510
2020/01/31 01:22:08.2	101.160	0.100	-0.230	2.550
2020/01/31 01:22:08.3	101.150	0.130	-0.290	2.590
2020/01/31 01:22:08.4	101.130	0.160	-0.350	2.620
2020/01/31 01:22:08.5	101.110	0.180	-0.400	2.660
2020/01/31 01:22:08.6	101.090	0.210	-0.460	2.690
2020/01/31 01:22:08.7	101.080	0.230	-0.510	2.720
2020/01/31 01:22:08.8	101.060	0.260	-0.570	2.750
2020/01/31 01:22:08.9	101.040	0.280	-0.620	2.770
2020/01/31 01:22:09.0	101.000	0.300	-0.660	2.790
2020/01/31 01:22:09.1	100.980	0.320	-0.710	2.800
2020/01/31 01:22:09.2	100.960	0.330	-0.750	2.810
2020/01/31 01:22:09.3	100.940	0.350	-0.780	2.820
2020/01/31 01:22:09.4	100.920	0.360	-0.820	2.820
2020/01/31 01:22:09.5	100.900	0.370	-0.840	2.820
2020/01/31 01:22:09.6	100.880	0.380	-0.870	2.810
2020/01/31 01:22:09.7	100.860	0.380	-0.880	2.800
2020/01/31 01:22:09.8	100.850	0.380	-0.900	2.780
2020/01/31 01:22:09.9	100.830	0.380	-0.900	2.750
2020/01/31 01:22:10.0	100.820	0.380	-0.900	2.720
2020/01/31 01:22:10.1	100.810	0.370	-0.890	2.690
2020/01/31 01:22:10.2	100.800	0.370	-0.880	2.650
2020/01/31 01:22:10.3	100.790	0.350	-0.860	2.600
2020/01/31 01:22:10.4	100.790	0.340	-0.840	2.550
2020/01/31 01:22:10.5	100.780	0.330	-0.810	2.500
2020/01/31 01:22:10.6	100.780	0.310	-0.770	2.440
2020/01/31 01:22:10.7	100.780	0.290	-0.730	2.380
2020/01/31 01:22:10.8	100.780	0.260	-0.680	2.310
2020/01/31 01:22:10.9	100.780	0.240	-0.630	2.240
2020/01/31 01:22:11.0	100.770	0.210	-0.570	2.160
2020/01/31 01:22:11.1	100.780	0.180	-0.510	2.090
2020/01/31 01:22:11.2	100.790	0.150	-0.440	2.010
2020/01/31 01:22:11.3	100.800	0.120	-0.370	1.930
2020/01/31 01:22:11.4	100.810	0.090	-0.300	1.850
2020/01/31 01:22:11.5	100.820	0.060	-0.230	1.760
2020/01/31 01:22:11.6	100.830	0.020	-0.160	1.680
2020/01/31 01:22:11.7	100.840	-0.010	-0.080	1.590
2020/01/31 01:22:11.8	100.850	-0.040	-0.010	1.510
2020/01/31 01:22:11.9	100.870	-0.080	0.060	1.420
2020/01/31 01:22:12.0	100.890	-0.110	0.130	1.340
2020/01/31 01:22:12.1	100.900	-0.150	0.200	1.250
2020/01/31 01:22:12.2	100.920	-0.180	0.270	1.170
2020/01/31 01:22:12.3	100.940	-0.210	0.330	1.090
2020/01/31 01:22:12.4	100.950	-0.240	0.390	1.010
2020/01/31 01:22:12.5	100.970	-0.270	0.440	0.930
2020/01/31 01:22:12.6	100.990	-0.300	0.490	0.850
2020/01/31 01:22:12.7	101.010	-0.320	0.530	0.780
2020/01/31 01:22:12.8	101.030	-0.350	0.570	0.700
2020/01/31 01:22:12.9	101.050	-0.370	0.600	0.630
2020/01/31 01:22:13.0	101.060	-0.390	0.630	0.560
2020/01/31 01:22:13.1	101.080	-0.400	0.650	0.490
2020/01/31 01:22:13.2	101.100	-0.420	0.660	0.430
2020/01/31 01:22:13.3	101.120	-0.430	0.670	0.360
2020/01/31 01:22:13.4	101.150	-0.440	0.670	0.300
2020/01/31 01:22:13.5	101.170	-0.440	0.660	0.230
2020/01/31 01:22:13.6	101.190	-0.440	0.650	0.180
2020/01/31 01:22:13.7	101.210	-0.440	0.630	0.120
2020/01/31 01:22:13.8	101.230	-0.440	0.610	0.060
2020/01/31 01:22:13.9	101.250	-0.440	0.580	0.010
2020/01/31 01:22:14.0	101.270	-0.430	0.540	-0.040
2020/01/31 01:22:14.1	101.290	-0.420	0.500	-0.090
2020/01/31 01:22:14.2	101.300	-0.410	0.460	-0.140
2020/01/31 01:22:14.3	101.320	-0.400	0.410	-0.180
2020/01/31 01:22:14.4	101.340	-0.380	0.360	-0.220
2020/01/31 01:22:14.5	101.350	-0.360	0.300	-0.250
2020/01/31 01:22:14.6	101.370	-0.340	0.240	-0.280
2020/01/31 01:22:14.7	101.380	-0.320	0.180	-0.310
2020/01/31 01:22:14.8	101.390	-0.300	0.120	-0.340
2020/01/31 01:22:14.9	101.400	-0.280	0.060	-0.360
2020/01/31 01:22:15.0	101.410	-0.250	-0.010	-0.370
2020/01/31 01:22:15.1	101.420	-0.230	-0.070	-0.390
2020/01/31 01:22:15.2	101.430	-0.200	-0.140	-0.400
2020/01/31 01:22:15.3	101.430	-0.170	-0.200	-0.410
2020/01/31 01:22:15.4	101.430	-0.150	-0.260	-0.410
2020/01/31 01:22:15.5	101.440	-0.120	-0.320	-0.410
2020/01/31 01:22:15.6	101.440	-0.090	-0.380	-0.410
2020/01/31 01:22:15.7	101.440	-0.070	-0.440	-0.400
2020/01/31 01:22:15.8	101.440	-0.040	-0.490	-0.390
2020/01/31 01:22:15.9	101.440	-0.020	-0.540	-0.370
2020/01/31 01:22:16.0	101.430	0.010	-0.580	-0.360
2020/01/31 01:22:16.1	101.430	0.030	-0.630	-0.330
2020/01/31 01:22:16.2	101.430	0.050	-0.660	-0.310
2020/01/31 01:22:16.3	101.430	0.070	-0.700	-0.280
2020/01/31 01:22:16.4	101.430	0.090	-0.730	-0.250
2020/01/31 01:22:16.5	101.430	0.110	-0.750	-0.210
2020/01/31 01:22:16.6	101.430	0.130	-0.770	-0.170
2020/01/31 01:22:16.7	101.430	0.150	-0.790	-0.130
2020/01/31 01:22:16.8	101.420	0.160	-0.800	-0.080
2020/01/31 01:22:16.9	101.420	0.170	-0.810	-0.030
2020/01/31 01:22:17.0	101.420	0.190	-0.820	0.020
2020/01/31 01:22:17.1	101.420	0.200	-0.810	0.080
2020/01/31 01:22:17.2	101.420	0.210	-0.810	0.130
2020/01/31 01:22:17.3	101.420	0.220	-0.800	0.190
2020/01/31 01:22:17.4	101.420	0.230	-0.790	0.250
2020/01/31 01:22:17.5	101.420	0.240	-0.770	0.320
2020/01/31 01:22:17.6	101.420	0.240	-0.750	0.380
2020/01/31 01:22:17.7	101.420	0.250	-0.730	0.450
2020/01/31 01:22:17.8	101.410	0.250	-0.700	0.520
2020/01/31 01:22:17.9	101.410	0.260	-0.670	0.590
2020/01/31 01:22:18.0	101.400	0.260	-0.630	0.660
2020/01/31 01:22:18.1	101.400	0.270	-0.600	0.730
2020/01/31 01:22:18.2	101.390	0.270	-0.570	0.800
2020/01/31 01:22:18.3	101.390	0.270	-0.530	0.870
2020/01/31 01:22:18.4	101.390	0.280	-0.500	0.940
2020/01/31 01:22:18.5	101.380	0.280	-0.460	1.010
2020/01/31 01:22:18.6	101.380	0.280	-0.430	1.080
2020/01/31 01:22:18.7	101.370	0.290	-0.390	1.150
2020/01/31 01:22:18.8	101.370	0.290	-0.360	1.210
2020/01/31 01:22:18.9	101.360	0.290	-0.320	1.280
2020/01/31 01:22:19.0	101.350	0.300	-0.290	1.350
2020/01/31 01:22:19.1	101.340	0.300	-0.260	1.410
2020/01/31 01:22:19.2	101.330	0.300	-0.230	1.470
2020/01/31 01:22:19.3	101.330	0.300	-0.200	1.530
2020/01/31 01:22:19.4	101.320	0.300	-0.170	1.590
2020/01/31 01:22:19.5	101.320	0.310	-0.150	1.640
2020/01/31 01:22:19.6	101.310	0.310	-0.120	1.690
2020/01/31 01:22:19.7	101.300	0.310	-0.100	1.750
2020/01/31 01:22:19.8	101.300	0.310	-0.080	1.800
2020/01/31 01:22:19.9	101.290	0.310	-0.060	1.840
2020/01/31 01:22:20.0	101.280	0.310	-0.040	1.890
2020/01/31 01:22:20.1	101.270	0.300	-0.020	1.930
2020/01/31 01:22:20.2	101.270	0.300	-0.010	1.970
2020/01/31 01:22:20.3	101.260	0.300	0.010	2.010
2020/01/31 01:22:20.4	101.250	0.290	0.020	2.040
2020/01/31 01:22:20.5	101.240	0.280	0.030	2.070
2020/01/31 01:22:20.6	101.240	0.270	0.050	2.100
2020/01/31 01:22:20.7	101.230	0.270	0.060	2.130
2020/01/31 01:22:20.8	101.220	0.250	0.070	2.150
2020/01/31 01:22:20.9	101.220	0.240	0.090	2.170
2020/01/31 01:22:21.0	101.210	0.230	0.100	2.200
2020/01/31 01:22:21.1	101.210	0.210	0.110	2.210
2020/01/31 01:22:21.2	101.200	0.200	0.130	2.220
2020/01/31 01:22:21.3	101.200	0.180	0.140	2.230
2020/01/31 01:22:21.4	101.200	0.160	0.150	2.240
2020/01/31 01:22:21.5	101.200	0.140	0.170	2.240
2020/01/31 01:22:21.6	101.200	0.120	0.180	2.250
2020/01/31 01:22:21.7	101.200	0.100	0.190	2.250
2020/01/31 01:22:21.8	101.200	0.070	0.210	2.240
2020/01/31 01:22:21.9	101.210	0.050	0.220	2.240
2020/01/31 01:22:22.0	101.220	0.020	0.230	2.220
2020/01/31 01:22:22.1	101.230	-0.000	0.240	2.210
2020/01/31 01:22:22.2	101.240	-0.030	0.260	2.200
2020/01/31 01:22:22.3	101.250	-0.060	0.270	2.180
2020/01/31 01:22:22.4	101.260	-0.090	0.280	2.170
2020/01/31 01:22:22.5	101.270	-0.110	0.290	2.150
2020/01/31 01:22:22.6	101.280	-0.140	0.290	2.130
2020/01/31 01:22:22.7	101.300	-0.170	0.300	2.100
2020/01/31 01:22:22.8	101.320	-0.190	0.310	2.080
2020/01/31 01:22:22.9	101.330	-0.220	0.310	2.060
2020/01/31 01:22:23.0	101.350	-0.240	0.310	2.030
2020/01/31 01:22:23.1	101.370	-0.270	0.310	2.010
2020/01/31 01:22:23.2	101.390	-0.290	0.310	1.980
2020/01/31 01:22:23.3	101.410	-0.310	0.310	1.960
2020/01/31 01:22:23.4	101.430	-0.330	0.310	1.930
2020/01/31 01:22:23.5	101.450	-0.350	0.300	1.910
2020/01/31 01:22:23.6	101.460	-0.360	0.290	1.880
2020/01/31 01:22:23.7	101.480	-0.370	0.270	1.850
2020/01/31 01:22:23.8	101.500	-0.380	0.260	1.830
2020/01/31 01:22:23.9	101.520	-0.390	0.240	1.800
2020/01/31 01:22:24.0	101.520	-0.390	0.210	1.770
2020/01/31 01:22:24.1	101.540	-0.390	0.190	1.750
2020/01/31 01:22:24.2	101.550	-0.390	0.150	1.720
2020/01/31 01:22:24.3	101.570	-0.380	0.120	1.690
2020/01/31 01:22:24.4	101.580	-0.370	0.080	1.670
2020/01/31 01:22:24.5	101.590	-0.360	0.040	1.640
2020/01/31 01:22:24.6	101.600	-0.340	-0.010	1.610
2020/01/31 01:22:24.7	101.610	-0.320	-0.050	1.580
2020/01/31 01:22:24.8	101.610	-0.300	-0.100	1.550
2020/01/31 01:22:24.9	101.620	-0.280	-0.150	1.520
2020/01/31 01:22:25.0	101.630	-0.250	-0.210	1.490
2020/01/31 01:22:25.1	101.640	-0.230	-0.260	1.460
2020/01/31 01:22:25.2	101.640	-0.200	-0.310	1.430
2020/01/31 01:22:25.3	101.640	-0.170	-0.370	1.390
2020/01/31 01:22:25.4	101.650	-0.140	-0.420	1.360
2020/01/31 01:22:25.5	101.650	-0.100	-0.470	1.320
2020/01/31 01:22:25.6	101.650	-0.070	-0.520	1.280
2020/01/31 01:22:25.7	101.660	-0.040	-0.560	1.250
2020/01/31 01:22:25.8	101.660	-0.010	-0.600	1.210
2020/01/31 01:22:25.9	101.660	0.020	-0.640	1.180
2020/01/31 01:22:26.0	101.660	0.050	-0.680	1.140
2020/01/31 01:22:26.1	101.660	0.080	-0.710	1.110
2020/01/31 01:22:26.2	101.660	0.110	-0.730	1.070
2020/01/31 01:22:26.3	101.660	0.140	-0.750	1.040
2020/01/31 01:22:26.4	101.660	0.160	-0.770	1.010
2020/01/31 01:22:26.5	101.660	0.190	-0.780	0.980
2020/01/31 01:22:26.6	101.660	0.210	-0.790	0.950
2020/01/31 01:22:26.7	101.660	0.230	-0.790	0.930
2020/01/31 01:22:26.8	101.660	0.240	-0.780	0.900
2020/01/31 01:22:26.9	101.660	0.250	-0.780	0.880
2020/01/31 01:22:27.0	101.650	0.270	-0.760	0.860
2020/01/31 01:22:27.1	101.640	0.270	-0.750	0.840
2020/01/31 01:22:27.2	101.640	0.280	-0.730	0.820
2020/01/31 01:22:27.3	101.640	0.280	-0.700	0.810
2020/01/31 01:22:27.4	101.630	0.280	-0.680	0.800
2020/01/31 01:22:27.5	101.630	0.280	-0.640	0.780
2020/01/31 01:22:27.6	101.630	0.280	-0.610	0.780
2020/01/31 01:22:27.7	101.620	0.270	-0.580	0.770
2020/01/31 01:22:27.8	101.610	0.260	-0.540	0.760
2020/01/31 01:22:27.9	101.610	0.250	-0.500	0.760
2020/01/31 01:22:28.0	101.600	0.240	-0.460	0.750
2020/01/31 01:22:28.1	101.590	0.230	-0.420	0.750
2020/01/31 01:22:28.2	101.580	0.210	-0.370	0.750
2020/01/31 01:22:28.3	101.570	0.200	-0.330	0.740
2020/01/31 01:22:28.4	101.560	0.180	-0.290	0.740
2020/01/31 01:22:28.5	101.550	0.160	-0.250	0.740
2020/01/31 01:22:28.6	101.540	0.150	-0.210	0.740
2020/01/31 01:22:28.7	101.520	0.130	-0.170	0.740
2020/01/31 01:22:28.8	101.510	0.110	-0.130	0.740
2020/01/31 01:22:28.9	101.500	0.090	-0.090	0.740
2020/01/31 01:22:29.0	101.490	0.070	-0.050	0.740
2020/01/31 01:22:29.1	101.470	0.060	-0.020	0.730
2020/01/31 01:22:29.2	101.460	0.040	0.010	0.730
2020/01/31 01:22:29.3	101.440	0.020	0.040	0.730
2020/01/31 01:22:29.4	101.430	0.010	0.070	0.730
2020/01/31 01:22:29.5	101.410	-0.010	0.100	0.730
2020/01/31 01:22:29.6	101.400	-0.020	0.120	0.730
2020/01/31 01:22:29.7	101.390	-0.040	0.140	0.730
2020/01/31 01:22:29.8	101.370	-0.050	0.160	0.730
2020/01/31 01:22:29.9	101.360	-0.060	0.170	0.730
2020/01/31 01:22:30.0	101.330	-0.070	0.190	0.730
2020/01/31 01:22:30.1	101.320	-0.090	0.200	0.730
2020/01/31 01:22:30.2	101.300	-0.100	0.200	0.740
2020/01/31 01:22:30.3	101.290	-0.110	0.210	0.740
2020/01/31 01:22:30.4	101.280	-0.120	0.210	0.740
2020/01/31 01:22:30.5	101.260	-0.120	0.210	0.750
2020/01/31 01:22:30.6	101.250	-0.130	0.210	0.760
2020/01/31 01:22:30.7	101.240	-0.140	0.210	0.760
2020/01/31 01:22:30.8	101.230	-0.150	0.200	0.770
2020/01/31 01:22:30.9	101.220	-0.160	0.200	0.780
2020/01/31 01:22:31.0	101.220	-0.160	0.190	0.790
2020/01/31 01:22:31.1	101.210	-0.170	0.180	0.800
2020/01/31 01:22:31.2	101.200	-0.180	0.160	0.810
2020/01/31 01:22:31.3	101.190	-0.180	0.150	0.830
2020/01/31 01:22:31.4	101.180	-0.190	0.140	0.840
2020/01/31 01:22:31.5	101.170	-0.200	0.120	0.860
2020/01/31 01:22:31.6	101.160	-0.200	0.110	0.870
2020/01/31 01:22:31.7	101.150	-0.210	0.090	0.890
2020/01/31 01:22:31.8	101.140	-0.220	0.070	0.900
2020/01/31 01:22:31.9	101.130	-0.220	0.060	0.920
2020/01/31 01:22:32.0	101.110	-0.230	0.040	0.940
2020/01/31 01:22:32.1	101.110	-0.240	0.020	0.960
2020/01/31 01:22:32.2	101.100	-0.240	0.000	0.980
2020/01/31 01:22:32.3	101.090	-0.250	-0.020	0.990
2020/01/31 01:22:32.4	101.080	-0.260	-0.030	1.010
2020/01/31 01:22:32.5	101.070	-0.260	-0.050	1.030
2020/01/31 01:22:32.6	101.070	-0.270	-0.070	1.040
2020/01/31 01:22:32.7	101.060	-0.280	-0.090	1.060
2020/01/31 01:22:32.8	101.050	-0.280	-0.110	1.070
2020/01/31 01:22:32.9	101.050	-0.290	-0.120	1.080
2020/01/31 01:22:33.0	101.040	-0.290	-0.140	1.080
2020/01/31 01:22:33.1	101.040	-0.300	-0.160	1.090
2020/01/31 01:22:33.2	101.040	-0.300	-0.170	1.100
2020/01/31 01:22:33.3	101.040	-0.300	-0.190	1.100
2020/01/31 01:22:33.4	101.040	-0.300	-0.200	1.100
2020/01/31 01:22:33.5	101.040	-0.300	-0.210	1.100
2020/01/31 01:22:33.6	101.040	-0.300	-0.220	1.100
2020/01/31 01:22:33.7	101.040	-0.300	-0.230	1.100
2020/01/31 01:22:33.8	101.050	-0.290	-0.240	1.090
2020/01/31 01:22:33.9	101.050	-0.290	-0.250	1.090
2020/01/31 01:22:34.0	101.060	-0.280	-0.250	1.090
2020/01/31 01:22:34.1	101.060	-0.270	-0.260	1.080
2020/01/31 01:22:34.2	101.070	-0.260	-0.260	1.070
2020/01/31 01:22:34.3	101.070	-0.250	-0.260	1.060
2020/01/31 01:22:34.4	101.070	-0.240	-0.270	1.050
2020/01/31 01:22:34.5	101.080	-0.230	-0.270	1.050
2020/01/31 01:22:34.6	101.080	-0.210	-0.270	1.040
2020/01/31 01:22:34.7	101.080	-0.190	-0.260	1.030
2020/01/31 01:22:34.8	101.080	-0.170	-0.260	1.020
2020/01/31 01:22:34.9	101.080	-0.150	-0.260	1.020
2020/01/31 01:22:35.0	101.090	-0.130	-0.250	1.010
2020/01/31 01:22:35.1	101.100	-0.110	-0.250	1.010
2020/01/31 01:22:35.2	101.100	-0.080	-0.240	1.000
2020/01/31 01:22:35.3	101.100	-0.060	-0.230	1.000
2020/01/31 01:22:35.4	101.100	-0.040	-0.220	1.000
2020/01/31 01:22:35.5	101.100	-0.010	-0.210	1.000
2020/01/31 01:22:35.6	101.100	0.020	-0.200	1.000
2020/01/31 01:22:35.7	101.100	0.040	-0.190	1.000
2020/01/31 01:22:35.8	101.100	0.070	-0.180	1.000
2020/01/31 01:22:35.9	101.100	0.100	-0.160	1.010
2020/01/31 01:22:36.0	101.090	0.130	-0.150	1.010
2020/01/31 01:22:36.1	101.090	0.150	-0.140	1.020
2020/01/31 01:22:36.2	101.090	0.180	-0.130	1.020
2020/01/31 01:22:36.3	101.100	0.210	-0.110	1.030
2020/01/31 01:22:36.4	101.100	0.230	-0.100	1.030
2020/01/31 01:22:36.5	101.100	0.260	-0.090	1.040
2020/01/31 01:22:36.6	101.100	0.280	-0.080	1.040
2020/01/31 01:22:36.7	101.100	0.300	-0.070	1.040
2020/01/31 01:22:36.8	101.110	0.330	-0.060	1.040
2020/01/31 01:22:36.9	101.110	0.350	-0.050	1.040
2020/01/31 01:22:37.0	101.110	0.370	-0.050	1.040
2020/01/31 01:22:37.1	101.120	0.390	-0.050	1.040
2020/01/31 01:22:37.2	101.120	0.400	-0.040	1.030
2020/01/31 01:22:37.3	101.130	0.420	-0.040	1.030
2020/01/31 01:22:37.4	101.130	0.430	-0.040	1.020
2020/01/31 01:22:37.5	101.140	0.450	-0.040	1.010
2020/01/31 01:22:37.6	101.150	0.460	-0.050	1.000
2020/01/31 01:22:37.7	101.150	0.470	-0.050	1.000
2020/01/31 01:22:37.8	101.160	0.480	-0.060	0.990
2020/01/31 01:22:37.9	101.160	0.480	-0.070	0.980
2020/01/31 01:22:38.0	101.180	0.490	-0.080	0.980
2020/01/31 01:22:38.1	101.190	0.490	-0.090	0.970
2020/01/31 01:22:38.2	101.190	0.490	-0.110	0.970
2020/01/31 01:22:38.3	101.190	0.490	-0.120	0.960
2020/01/31 01:22:38.4	101.180	0.490	-0.140	0.960
2020/01/31 01:22:38.5	101.180	0.480	-0.160	0.960
2020/01/31 01:22:38.6	101.170	0.480	-0.180	0.970
2020/01/31 01:22:38.7	101.160	0.470	-0.200	0.970
2020/01/31 01:22:38.8	101.150	0.460	-0.210	0.980
2020/01/31 01:22:38.9	101.140	0.450	-0.230	1.000
2020/01/31 01:22:39.0	101.130	0.440	-0.250	1.010
2020/01/31 01:22:39.1	101.110	0.420	-0.270	1.030
2020/01/31 01:22:39.2	101.090	0.410	-0.290	1.050
2020/01/31 01:22:39.3	101.060	0.390	-0.300	1.070
2020/01/31 01:22:39.4	101.030	0.370	-0.310	1.100
2020/01/31 01:22:39.5	101.000	0.350	-0.320	1.130
2020/01/31 01:22:39.6	100.970	0.320	-0.330	1.160
2020/01/31 01:22:39.7	100.940	0.300	-0.330	1.190
2020/01/31 01:22:39.8	100.900	0.270	-0.340	1.230
2020/01/31 01:22:39.9	100.860	0.240	-0.330	1.270
2020/01/31 01:22:40.0	100.820	0.220	-0.330	1.310
2020/01/31 01:22:40.1	100.780	0.190	-0.320	1.350
2020/01/31 01:22:40.2	100.730	0.150	-0.310	1.390
2020/01/31 01:22:40.3	100.690	0.120	-0.300	1.430
2020/01/31 01:22:40.4	100.640	0.090	-0.280	1.470
2020/01/31 01:22:40.5	100.590	0.060	-0.260	1.500
2020/01/31 01:22:40.6	100.540	0.020	-0.240	1.540
2020/01/31 01:22:40.7	100.490	-0.010	-0.210	1.580
2020/01/31 01:22:40.8	100.440	-0.040	-0.180	1.610
2020/01/31 01:22:40.9	100.380	-0.080	-0.160	1.640
2020/01/31 01:22:41.0	100.330	-0.110	-0.130	1.670
2020/01/31 01:22:41.1	100.280	-0.140	-0.100	1.690
2020/01/31 01:22:41.2	100.230	-0.170	-0.070	1.710
2020/01/31 01:22:41.3	100.180	-0.200	-0.040	1.730
2020/01/31 01:22:41.4	100.130	-0.230	-0.010	1.750
2020/01/31 01:22:41.5	100.080	-0.260	0.010	1.760
2020/01/31 01:22:41.6	100.040	-0.290	0.040	1.770
2020/01/31 01:22:41.7	99.990	-0.310	0.060	1.770
2020/01/31 01:22:41.8	99.950	-0.330	0.080	1.760
2020/01/31 01:22:41.9	99.920	-0.350	0.100	1.760
2020/01/31 01:22:42.0	99.870	-0.370	0.110	1.750
2020/01/31 01:22:42.1	99.840	-0.390	0.120	1.730
2020/01/31 01:22:42.2	99.810	-0.400	0.130	1.710
2020/01/31 01:22:42.3	99.790	-0.410	0.130	1.680
2020/01/31 01:22:42.4	99.760	-0.420	0.130	1.650
2020/01/31 01:22:42.5	99.740	-0.430	0.120	1.620
2020/01/31 01:22:42.6	99.720	-0.430	0.110	1.580
2020/01/31 01:22:42.7	99.710	-0.430	0.090	1.540
2020/01/31 01:22:42.8	99.700	-0.430	0.070	1.500
2020/01/31 01:22:42.9	99.690	-0.420	0.040	1.450
2020/01/31 01:22:43.0	99.700	-0.420	0.010	1.400
2020/01/31 01:22:43.1	99.700	-0.400	-0.020	1.350
2020/01/31 01:22:43.2	99.700	-0.390	-0.060	1.300
2020/01/31 01:22:43.3	99.700	-0.380	-0.100	1.250
2020/01/31 01:22:43.4	99.710	-0.360	-0.150	1.200
2020/01/31 01:22:43.5	99.720	-0.340	-0.190	1.140
2020/01/31 01:22:43.6	99.730	-0.320	-0.240	1.090
2020/01/31 01:22:43.7	99.740	-0.290	-0.290	1.040
2020/01/31 01:22:43.8	99.750	-0.270	-0.340	0.990
2020/01/31 01:22:43.9	99.770	-0.240	-0.400	0.940
2020/01/31 01:22:44.0	99.790	-0.210	-0.450	0.900
2020/01/31 01:22:44.1	99.810	-0.180	-0.500	0.850
2020/01/31 01:22:44.2	99.830	-0.150	-0.550	0.810
2020/01/31 01:22:44.3	99.850	-0.120	-0.600	0.760
2020/01/31 01:22:44.4	99.870	-0.090	-0.650	0.720
2020/01/31 01:22:44.5	99.890	-0.060	-0.690	0.680
2020/01/31 01:22:44.6	99.920	-0.030	-0.730	0.650
2020/01/31 01:22:44.7	99.940	0.000	-0.770	0.610
2020/01/31 01:22:44.8	99.970	0.030	-0.800	0.570
2020/01/31 01:22:44.9	99.990	0.060	-0.830	0.540
2020/01/31 01:22:45.0	100.020	0.090	-0.850	0.510
2020/01/31 01:22:45.1	100.040	0.110	-0.860	0.480
2020/01/31 01:22:45.2	100.070	0.140	-0.870	0.450
2020/01/31 01:22:45.3	100.090	0.160	-0.880	0.420
2020/01/31 01:22:45.4	100.120	0.180	-0.870	0.390
2020/01/31 01:22:45.5	100.140	0.200	-0.860	0.370
2020/01/31 01:22:45.6	100.160	0.210	-0.850	0.340
2020/01/31 01:22:45.7	100.180	0.230	-0.820	0.320
2020/01/31 01:22:45.8	100.200	0.240	-0.790	0.300
2020/01/31 01:22:45.9	100.220	0.250	-0.760	0.280
2020/01/31 01:22:46.0	100.240	0.250	-0.720	0.260
2020/01/31 01:22:46.1	100.250	0.250	-0.670	0.240
2020/01/31 01:22:46.2	100.260	0.250	-0.610	0.220
2020/01/31 01:22:46.3	100.270	0.250	-0.560	0.210
2020/01/31 01:22:46.4	100.280	0.250	-0.490	0.200
2020/01/31 01:22:46.5	100.290	0.240	-0.420	0.190
2020/01/31 01:22:46.6	100.290	0.230	-0.350	0.190
2020/01/31 01:22:46.7	100.290	0.220	-0.280	0.180
2020/01/31 01:22:46.8	100.290	0.200	-0.200	0.190
2020/01/31 01:22:46.9	100.280	0.180	-0.120	0.190
2020/01/31 01:22:47.0	100.290	0.160	-0.040	0.200
2020/01/31 01:22:47.1	100.280	0.140	0.040	0.210
2020/01/31 01:22:47.2	100.260	0.120	0.120	0.230
2020/01/31 01:22:47.3	100.250	0.090	0.200	0.250
2020/01/31 01:22:47.4	100.230	0.070	0.280	0.270
2020/01/31 01:22:47.5	100.210	0.040	0.360	0.300
2020/01/31 01:22:47.6	100.180	0.010	0.430	0.330
2020/01/31 01:22:47.7	100.160	-0.020	0.510	0.360
2020/01/31 01:22:47.8	100.130	-0.050	0.580	0.400
2020/01/31 01:22:47.9	100.090	-0.080	0.640	0.440
2020/01/31 01:22:48.0	100.060	-0.110	0.710	0.490
2020/01/31 01:22:48.1	100.020	-0.140	0.760	0.540
2020/01/31 01:22:48.2	99.980	-0.170	0.810	0.590
2020/01/31 01:22:48.3	99.940	-0.200	0.860	0.640
2020/01/31 01:22:48.4	99.890	-0.220	0.900	0.700
2020/01/31 01:22:48.5	99.840	-0.250	0.940	0.760
2020/01/31 01:22:48.6	99.790	-0.280	0.960	0.820
2020/01/31 01:22:48.7	99.740	-0.300	0.990	0.880
2020/01/31 01:22:48.8	99.690	-0.320	1.000	0.940
2020/01/31 01:22:48.9	99.640	-0.340	1.010	1.000
2020/01/31 01:22:49.0	99.580	-0.360	1.010	1.060
2020/01/31 01:22:49.1	99.520	-0.380	1.000	1.130
2020/01/31 01:22:49.2	99.470	-0.400	0.990	1.190
2020/01/31 01:22:49.3	99.410	-0.410	0.970	1.250
2020/01/31 01:22:49.4	99.350	-0.420	0.950	1.310
2020/01/31 01:22:49.5	99.300	-0.430	0.920	1.360
2020/01/31 01:22:49.6	99.240	-0.440	0.880	1.420
2020/01/31 01:22:49.7	99.190	-0.440	0.840	1.460
2020/01/31 01:22:49.8	99.140	-0.440	0.790	1.510
2020/01/31 01:22:49.9	99.090	-0.450	0.740	1.550
2020/01/31 01:22:50.0	99.030	-0.440	0.690	1.590
2020/01/31 01:22:50.1	98.990	-0.440	0.620	1.630
2020/01/31 01:22:50.2	98.940	-0.440	0.560	1.650
2020/01/31 01:22:50.3	98.900	-0.430	0.490	1.680
2020/01/31 01:22:50.4	98.860	-0.420	0.410	1.700
2020/01/31 01:22:50.5	98.830	-0.410	0.340	1.710
2020/01/31 01:22:50.6	98.800	-0.390	0.260	1.720
2020/01/31 01:22:50.7	98.770	-0.380	0.170	1.730
2020/01/31 01:22:50.8	98.740	-0.360	0.090	1.730
2020/01/31 01:22:50.9	98.720	-0.340	0.000	1.720
2020/01/31 01:22:51.0	98.710	-0.320	-0.090	1.710
2020/01/31 01:22:51.1	98.690	-0.300	-0.180	1.700
2020/01/31 01:22:51.2	98.680	-0.280	-0.270	1.690
2020/01/31 01:22:51.3	98.670	-0.260	-0.360	1.670
2020/01/31 01:22:51.4	98.660	-0.230	-0.450	1.650
2020/01/31 01:22:51.5	98.650	-0.200	-0.530	1.630
2020/01/31 01:22:51.6	98.640	-0.170	-0.620	1.610
2020/01/31 01:22:51.7	98.640	-0.140	-0.710	1.580
2020/01/31 01:22:51.8	98.640	-0.110	-0.790	1.560
2020/01/31 01:22:51.9	98.640	-0.080	-0.870	1.530
2020/01/31 01:22:52.0	98.650	-0.050	-0.950	1.510
2020/01/31 01:22:52.1	98.650	-0.020	-1.020	1.480
2020/01/31 01:22:52.2	98.660	0.020	-1.090	1.460
2020/01/31 01:22:52.3	98.660	0.050	-1.160	1.430
2020/01/31 01:22:52.4	98.670	0.080	-1.220	1.410
2020/01/31 01:22:52.5	98.680	0.120	-1.270	1.380
2020/01/31 01:22:52.6	98.680	0.150	-1.320	1.360
2020/01/31 01:22:52.7	98.690	0.190	-1.370	1.340
2020/01/31 01:22:52.8	98.700	0.220	-1.410	1.310
2020/01/31 01:22:52.9	98.710	0.250	-1.440	1.290
2020/01/31 01:22:53.0	98.730	0.290	-1.460	1.270
2020/01/31 01:22:53.1	98.740	0.320	-1.480	1.250
2020/01/31 01:22:53.2	98.740	0.350	-1.490	1.230
2020/01/31 01:22:53.3	98.750	0.380	-1.490	1.220
2020/01/31 01:22:53.4	98.760	0.400	-1.480	1.200
2020/01/31 01:22:53.5	98.770	0.430	-1.470	1.180
2020/01/31 01:22:53.6	98.770	0.450	-1.440	1.170
2020/01/31 01:22:53.7	98.780	0.470	-1.410	1.150
2020/01/31 01:22:53.8	98.790	0.490	-1.380	1.140
2020/01/31 01:22:53.9	98.790	0.510	-1.330	1.120
2020/01/31 01:22:54.0	98.800	0.520	-1.280	1.110
2020/01/31 01:22:54.1	98.800	0.540	-1.220	1.100
2020/01/31 01:22:54.2	98.810	0.550	-1.160	1.080
2020/01/31 01:22:54.3	98.810	0.550	-1.090	1.070
2020/01/31 01:22:54.4	98.810	0.560	-1.020	1.060
2020/01/31 01:22:54.5	98.810	0.560	-0.940	1.050
2020/01/31 01:22:54.6	98.810	0.560	-0.850	1.040
2020/01/31 01:22:54.7	98.800	0.560	-0.770	1.020
2020/01/31 01:22:54.8	98.800	0.550	-0.680	1.010
2020/01/31 01:22:54.9	98.790	0.540	-0.590	1.000
2020/01/31 01:22:55.0	98.780	0.530	-0.490	0.990
2020/01/31 01:22:55.1	98.770	0.520	-0.400	0.980
2020/01/31 01:22:55.2	98.760	0.510	-0.310	0.980
2020/01/31 01:22:55.3	98.750	0.490	-0.210	0.970
2020/01/31 01:22:55.4	98.740	0.480	-0.120	0.960
2020/01/31 01:22:55.5	98.720	0.460	-0.030	0.960
2020/01/31 01:22:55.6	98.710	0.440	0.060	0.950
2020/01/31 01:22:55.7	98.690	0.420	0.140	0.950
2020/01/31 01:22:55.8	98.680	0.400	0.230	0.950
2020/01/31 01:22:55.9	98.660	0.380	0.310	0.950
2020/01/31 01:22:56.0	98.640	0.350	0.390	0.950
2020/01/31 01:22:56.1	98.620	0.330	0.460	0.950
2020/01/31 01:22:56.2	98.600	0.310	0.520	0.960
2020/01/31 01:22:56.3	98.580	0.290	0.590	0.960
2020/01/31 01:22:56.4	98.550	0.260	0.640	0.960
2020/01/31 01:22:56.5	98.530	0.240	0.690	0.970
2020/01/31 01:22:56.6	98.510	0.220	0.740	0.980
2020/01/31 01:22:56.7	98.480	0.200	0.780	0.990
2020/01/31 01:22:56.8	98.460	0.170	0.810	1.000
2020/01/31 01:22:56.9	98.430	0.150	0.840	1.010
2020/01/31 01:22:57.0	98.410	0.130	0.860	1.020
2020/01/31 01:22:57.1	98.380	0.110	0.880	1.030
2020/01/31 01:22:57.2	98.350	0.090	0.890	1.040
2020/01/31 01:22:57.3	98.330	0.070	0.890	1.050
2020/01/31 01:22:57.4	98.300	0.050	0.890	1.060
2020/01/31 01:22:57.5	98.270	0.040	0.890	1.080
2020/01/31 01:22:57.6	98.240	0.020	0.870	1.090
2020/01/31 01:22:57.7	98.220	-0.000	0.860	1.100
2020/01/31 01:22:57.8	98.190	-0.020	0.840	1.110
2020/01/31 01:22:57.9	98.160	-0.030	0.810	1.120
2020/01/31 01:22:58.0	98.130	-0.050	0.780	1.130
2020/01/31 01:22:58.1	98.110	-0.070	0.750	1.140
2020/01/31 01:22:58.2	98.080	-0.080	0.710	1.140
2020/01/31 01:22:58.3	98.060	-0.100	0.670	1.150
2020/01/31 01:22:58.4	98.040	-0.110	0.630	1.160
2020/01/31 01:22:58.5	98.010	-0.130	0.580	1.160
2020/01/31 01:22:58.6	97.990	-0.140	0.540	1.160
2020/01/31 01:22:58.7	97.970	-0.160	0.490	1.160
2020/01/31 01:22:58.8	97.940	-0.170	0.440	1.160
2020/01/31 01:22:58.9	97.920	-0.190	0.390	1.160
2020/01/31 01:22:59.0	97.900	-0.200	0.330	1.160
2020/01/31 01:22:59.1	97.880	-0.220	0.280	1.150
2020/01/31 01:22:59.2	97.860	-0.230	0.230	1.150
2020/01/31 01:22:59.3	97.840	-0.250	0.180	1.140
2020/01/31 01:22:59.4	97.830	-0.260	0.120	1.130
2020/01/31 01:22:59.5	97.810	-0.280	0.070	1.120
2020/01/31 01:22:59.6	97.790	-0.290	0.020	1.110
2020/01/31 01:22:59.7	97.780	-0.310	-0.030	1.100
2020/01/31 01:22:59.8	97.760	-0.320	-0.080	1.080
2020/01/31 01:22:59.9	97.750	-0.330	-0.120	1.070
2020/01/31 01:23:00.0	97.730	-0.340	-0.170	1.050
2020/01/31 01:23:00.1	97.710	-0.350	-0.210	1.040
2020/01/31 01:23:00.2	97.700	-0.360	-0.260	1.020
2020/01/31 01:23:00.3	97.690	-0.370	-0.300	1.000
2020/01/31 01:23:00.4	97.680	-0.380	-0.340	0.990
2020/01/31 01:23:00.5	97.670	-0.380	-0.380	0.970
2020/01/31 01:23:00.6	97.670	-0.390	-0.420	0.950
2020/01/31 01:23:00.7	97.660	-0.390	-0.450	0.930
2020/01/31 01:23:00.8	97.650	-0.390	-0.490	0.910
2020/01/31 01:23:00.9	97.650	-0.390	-0.530	0.900
2020/01/31 01:23:01.0	97.650	-0.390	-0.560	0.880
2020/01/31 01:23:01.1	97.650	-0.380	-0.590	0.860
2020/01/31 01:23:01.2	97.650	-0.370	-0.630	0.850
2020/01/31 01:23:01.3	97.650	-0.370	-0.660	0.840
2020/01/31 01:23:01.4	97.650	-0.350	-0.690	0.820
2020/01/31 01:23:01.5	97.660	-0.340	-0.730	0.810
2020/01/31 01:23:01.6	97.670	-0.330	-0.760	0.810
2020/01/31 01:23:01.7	97.670	-0.310	-0.790	0.800
2020/01/31 01:23:01.8	97.680	-0.290	-0.820	0.800
2020/01/31 01:23:01.9	97.690	-0.270	-0.850	0.800
2020/01/31 01:23:02.0	97.700	-0.250	-0.880	0.800
2020/01/31 01:23:02.1	97.710	-0.230	-0.900	0.810
2020/01/31 01:23:02.2	97.720	-0.210	-0.930	0.820
2020/01/31 01:23:02.3	97.730	-0.190	-0.950	0.830
2020/01/31 01:23:02.4	97.740	-0.160	-0.960	0.840
2020/01/31 01:23:02.5	97.750	-0.140	-0.980	0.860
2020/01/31 01:23:02.6	97.760	-0.110	-0.990	0.880
2020/01/31 01:23:02.7	97.770	-0.090	-0.990	0.910
2020/01/31 01:23:02.8	97.780	-0.060	-0.990	0.930
2020/01/31 01:23:02.9	97.790	-0.040	-0.990	0.960
2020/01/31 01:23:03.0	97.790	-0.020	-0.980	0.990
2020/01/31 01:23:03.1	97.790	0.010	-0.960	1.030
2020/01/31 01:23:03.2	97.800	0.030	-0.940	1.060
2020/01/31 01:23:03.3	97.800	0.050	-0.920	1.090
2020/01/31 01:23:03.4	97.800	0.070	-0.890	1.130
2020/01/31 01:23:03.5	97.810	0.080	-0.850	1.170
2020/01/31 01:23:03.6	97.800	0.100	-0.810	1.200
2020/01/31 01:23:03.7	97.800	0.110	-0.770	1.240
2020/01/31 01:23:03.8	97.800	0.120	-0.720	1.270
2020/01/31 01:23:03.9	97.790	0.130	-0.670	1.310
2020/01/31 01:23:04.0	97.780	0.140	-0.610	1.340
2020/01/31 01:23:04.1	97.770	0.140	-0.550	1.370
2020/01/31 01:23:04.2	97.760	0.140	-0.490	1.400
2020/01/31 01:23:04.3	97.750	0.140	-0.420	1.430
2020/01/31 01:23:04.4	97.730	0.140	-0.350	1.450
2020/01/31 01:23:04.5	97.720	0.130	-0.280	1.470
2020/01/31 01:23:04.6	97.700	0.130	-0.210	1.490
2020/01/31 01:23:04.7	97.680	0.120	-0.140	1.510
2020/01/31 01:23:04.8	97.660	0.110	-0.070	1.530
2020/01/31 01:23:04.9	97.640	0.100	-0.010	1.540
2020/01/31 01:23:05.0	97.600	0.080	0.060	1.550
2020/01/31 01:23:05.1	97.580	0.070	0.130	1.550
2020/01/31 01:23:05.2	97.550	0.050	0.190	1.550
2020/01/31 01:23:05.3	97.530	0.040	0.250	1.550
2020/01/31 01:23:05.4	97.500	0.020	0.310	1.550
2020/01/31 01:23:05.5	97.470	0.000	0.370	1.540
2020/01/31 01:23:05.6	97.440	-0.020	0.420	1.530
2020/01/31 01:23:05.7	97.410	-0.040	0.470	1.520
2020/01/31 01:23:05.8	97.380	-0.050	0.510	1.500
2020/01/31 01:23:05.9	97.340	-0.070	0.550	1.490
2020/01/31 01:23:06.0	97.330	-0.090	0.590	1.470
2020/01/31 01:23:06.1	97.290	-0.110	0.620	1.450
2020/01/31 01:23:06.2	97.260	-0.130	0.650	1.430
2020/01/31 01:23:06.3	97.230	-0.140	0.670	1.400
2020/01/31 01:23:06.4	97.200	-0.160	0.690	1.380
2020/01/31 01:23:06.5	97.170	-0.170	0.700	1.350
2020/01/31 01:23:06.6	97.140	-0.180	0.710	1.330
2020/01/31 01:23:06.7	97.110	-0.190	0.710	1.300
2020/01/31 01:23:06.8	97.080	-0.200	0.710	1.270
2020/01/31 01:23:06.9	97.060	-0.210	0.710	1.240
2020/01/31 01:23:07.0	97.030	-0.220	0.700	1.210
2020/01/31 01:23:07.1	97.010	-0.230	0.690	1.180
2020/01/31 01:23:07.2	96.990	-0.230	0.670	1.140
2020/01/31 01:23:07.3	96.980	-0.230	0.650	1.110
2020/01/31 01:23:07.4	96.970	-0.230	0.620	1.070
2020/01/31 01:23:07.5	96.960	-0.230	0.600	1.040
2020/01/31 01:23:07.6	96.950	-0.230	0.570	1.000
2020/01/31 01:23:07.7	96.950	-0.220	0.530	0.950
2020/01/31 01:23:07.8	96.950	-0.220	0.500	0.910
2020/01/31 01:23:07.9	96.950	-0.210	0.460	0.860
2020/01/31 01:23:08.0	96.950	-0.200	0.420	0.810
2020/01/31 01:23:08.1	96.960	-0.190	0.370	0.760
2020/01/31 01:23:08.2	96.970	-0.180	0.330	0.710
2020/01/31 01:23:08.3	96.990	-0.160	0.280	0.660
2020/01/31 01:23:08.4	97.000	-0.150	0.230	0.600
2020/01/31 01:23:08.5	97.030	-0.130	0.180	0.540
2020/01/31 01:23:08.6	97.050	-0.110	0.130	0.480
2020/01/31 01:23:08.7	97.080	-0.090	0.080	0.420
2020/01/31 01:23:08.8	97.110	-0.070	0.020	0.360
2020/01/31 01:23:08.9	97.140	-0.040	-0.030	0.290
2020/01/31 01:23:09.0	97.180	-0.020	-0.090	0.230
2020/01/31 01:23:09.1	97.210	0.000	-0.140	0.170
2020/01/31 01:23:09.2	97.250	0.030	-0.200	0.100
2020/01/31 01:23:09.3	97.280	0.060	-0.250	0.040
2020/01/31 01:23:09.4	97.320	0.090	-0.300	-0.020
2020/01/31 01:23:09.5	97.350	0.120	-0.360	-0.080
2020/01/31 01:23:09.6	97.390	0.150	-0.410	-0.140
2020/01/31 01:23:09.7	97.420	0.180	-0.460	-0.190
2020/01/31 01:23:09.8	97.450	0.210	-0.510	-0.240
2020/01/31 01:23:09.9	97.480	0.240	-0.560	-0.290
2020/01/31 01:23:10.0	97.510	0.270	-0.610	-0.330
2020/01/31 01:23:10.1	97.530	0.300	-0.650	-0.360
2020/01/31 01:23:10.2	97.560	0.330	-0.700	-0.400
2020/01/31 01:23:10.3	97.580	0.360	-0.740	-0.420
2020/01/31 01:23:10.4	97.600	0.400	-0.780	-0.440
2020/01/31 01:23:10.5	97.620	0.430	-0.810	-0.460
2020/01/31 01:23:10.6	97.630	0.450	-0.850	-0.470
2020/01/31 01:23:10.7	97.640	0.480	-0.870	-0.470
2020/01/31 01:23:10.8	97.650	0.510	-0.900	-0.470
2020/01/31 01:23:10.9	97.660	0.530	-0.920	-0.460
2020/01/31 01:23:11.0	97.660	0.560	-0.950	-0.440
2020/01/31 01:23:11.1	97.660	0.580	-0.960	-0.420
2020/01/31 01:23:11.2	97.660	0.600	-0.970	-0.390
2020/01/31 01:23:11.3	97.650	0.610	-0.980	-0.360
2020/01/31 01:23:11.4	97.650	0.630	-0.990	-0.320
2020/01/31 01:23:11.5	97.640	0.640	-0.990	-0.270
2020/01/31 01:23:11.6	97.620	0.650	-0.980	-0.220
2020/01/31 01:23:11.7	97.610	0.650	-0.970	-0.160
2020/01/31 01:23:11.8	97.590	0.660	-0.960	-0.090
2020/01/31 01:23:11.9	97.570	0.660	-0.940	-0.020
2020/01/31 01:23:12.0	97.540	0.650	-0.920	0.060
2020/01/31 01:23:12.1	97.520	0.640	-0.900	0.140
2020/01/31 01:23:12.2	97.490	0.630	-0.860	0.230
2020/01/31 01:23:12.3	97.460	0.620	-0.830	0.320
2020/01/31 01:23:12.4	97.430	0.600	-0.790	0.410
2020/01/31 01:23:12.5	97.400	0.580	-0.750	0.510
2020/01/31 01:23:12.6	97.370	0.560	-0.700	0.610
2020/01/31 01:23:12.7	97.340	0.530	-0.650	0.720
2020/01/31 01:23:12.8	97.300	0.500	-0.590	0.820
2020/01/31 01:23:12.9	97.270	0.470	-0.530	0.930
2020/01/31 01:23:13.0	97.260	0.430	-0.460	1.030
2020/01/31 01:23:13.1	97.230	0.400	-0.400	1.140
2020/01/31 01:23:13.2	97.190	0.360	-0.330	1.250
2020/01/31 01:23:13.3	97.160	0.310	-0.270	1.350
2020/01/31 01:23:13.4	97.130	0.270	-0.200	1.460
2020/01/31 01:23:13.5	97.100	0.220	-0.120	1.560
2020/01/31 01:23:13.6	97.070	0.180	-0.050	1.660
2020/01/31 01:23:13.7	97.050	0.130	0.020	1.750
2020/01/31 01:23:13.8	97.020	0.080	0.090	1.850
2020/01/31 01:23:13.9	97.000	0.030	0.160	1.930
2020/01/31 01:23:14.0	96.970	-0.020	0.230	2.020
2020/01/31 01:23:14.1	96.950	-0.070	0.290	2.100
2020/01/31 01:23:14.2	96.930	-0.120	0.360	2.180
2020/01/31 01:23:14.3	96.920	-0.170	0.420	2.250
2020/01/31 01:23:14.4	96.900	-0.220	0.470	2.320
2020/01/31 01:23:14.5	96.890	-0.260	0.530	2.380
2020/01/31 01:23:14.6	96.880	-0.310	0.570	2.430
2020/01/31 01:23:14.7	96.880	-0.350	0.620	2.480
2020/01/31 01:23:14.8	96.870	-0.390	0.660	2.530
2020/01/31 01:23:14.9	96.870	-0.430	0.690	2.570
2020/01/31 01:23:15.0	96.860	-0.470	0.720	2.610
2020/01/31 01:23:15.1	96.860	-0.500	0.740	2.640
2020/01/31 01:23:15.2	96.870	-0.530	0.760	2.660
2020/01/31 01:23:15.3	96.870	-0.560	0.770	2.680
2020/01/31 01:23:15.4	96.880	-0.590	0.780	2.700
2020/01/31 01:23:15.5	96.890	-0.610	0.780	2.710
2020/01/31 01:23:15.6	96.910	-0.630	0.770	2.710
2020/01/31 01:23:15.7	96.920	-0.650	0.760	2.710
2020/01/31 01:23:15.8	96.940	-0.670	0.750	2.710
2020/01/31 01:23:15.9	96.950	-0.680	0.720	2.700
2020/01/31 01:23:16.0	96.970	-0.690	0.700	2.690
2020/01/31 01:23:16.1	96.990	-0.690	0.670	2.680
2020/01/31 01:23:16.2	97.010	-0.700	0.630	2.660
2020/01/31 01:23:16.3	97.040	-0.700	0.590	2.630
2020/01/31 01:23:16.4	97.060	-0.690	0.550	2.610
2020/01/31 01:23:16.5	97.080	-0.690	0.500	2.580
2020/01/31 01:23:16.6	97.110	-0.680	0.450	2.550
2020/01/31 01:23:16.7	97.130	-0.660	0.390	2.520
2020/01/31 01:23:16.8	97.150	-0.650	0.330	2.480
2020/01/31 01:23:16.9	97.180	-0.630	0.270	2.440
2020/01/31 01:23:17.0	97.200	-0.610	0.210	2.400
2020/01/31 01:23:17.1	97.220	-0.590	0.150	2.360
2020/01/31 01:23:17.2	97.240	-0.560	0.080	2.310
2020/01/31 01:23:17.3	97.260	-0.530	0.010	2.260
2020/01/31 01:23:17.4	97.280	-0.500	-0.060	2.210
2020/01/31 01:23:17.5	97.300	-0.470	-0.120	2.160
2020/01/31 01:23:17.6	97.320	-0.430	-0.190	2.110
2020/01/31 01:23:17.7	97.330	-0.400	-0.260	2.060
2020/01/31 01:23:17.8	97.340	-0.360	-0.330	2.000
2020/01/31 01:23:17.9	97.350	-0.320	-0.400	1.950
2020/01/31 01:23:18.0	97.370	-0.270	-0.460	1.900
2020/01/31 01:23:18.1	97.370	-0.230	-0.530	1.840
2020/01/31 01:23:18.2	97.380	-0.190	-0.590	1.790
2020/01/31 01:23:18.3	97.380	-0.140	-0.650	1.730
2020/01/31 01:23:18.4	97.380	-0.100	-0.710	1.680
2020/01/31 01:23:18.5	97.380	-0.050	-0.760	1.620
2020/01/31 01:23:18.6	97.370	-0.010	-0.810	1.570
2020/01/31 01:23:18.7	97.360	0.040	-0.850	1.520
2020/01/31 01:23:18.8	97.360	0.090	-0.900	1.470
2020/01/31 01:23:18.9	97.350	0.130	-0.930	1.420
2020/01/31 01:23:19.0	97.330	0.170	-0.960	1.380
2020/01/31 01:23:19.1	97.320	0.220	-0.990	1.330
2020/01/31 01:23:19.2	97.310	0.260	-1.010	1.290
2020/01/31 01:23:19.3	97.290	0.290	-1.030	1.240
2020/01/31 01:23:19.4	97.270	0.330	-1.040	1.200
2020/01/31 01:23:19.5	97.250	0.370	-1.050	1.170
2020/01/31 01:23:19.6	97.240	0.400	-1.050	1.130
2020/01/31 01:23:19.7	97.220	0.430	-1.040	1.090
2020/01/31 01:23:19.8	97.200	0.460	-1.030	1.060
2020/01/31 01:23:19.9	97.180	0.480	-1.020	1.030
2020/01/31 01:23:20.0	97.150	0.500	-1.000	0.990
2020/01/31 01:23:20.1	97.130	0.520	-0.980	0.960
2020/01/31 01:23:20.2	97.110	0.540	-0.950	0.930
2020/01/31 01:23:20.3	97.090	0.550	-0.920	0.900
2020/01/31 01:23:20.4	97.080	0.560	-0.880	0.880
2020/01/31 01:23:20.5	97.060	0.570	-0.850	0.850
2020/01/31 01:23:20.6	97.050	0.570	-0.810	0.820
2020/01/31 01:23:20.7	97.030	0.580	-0.760	0.800
2020/01/31 01:23:20.8	97.020	0.570	-0.720	0.770
2020/01/31 01:23:20.9	97.010	0.570	-0.670	0.750
2020/01/31 01:23:21.0	96.990	0.560	-0.620	0.730
2020/01/31 01:23:21.1	96.980	0.550	-0.560	0.700
2020/01/31 01:23:21.2	96.970	0.540	-0.510	0.670
2020/01/31 01:23:21.3	96.970	0.530	-0.460	0.650
2020/01/31 01:23:21.4	96.960	0.510	-0.410	0.620
2020/01/31 01:23:21.5	96.960	0.490	-0.350	0.590
2020/01/31 01:23:21.6	96.960	0.470	-0.300	0.560
2020/01/31 01:23:21.7	96.960	0.450	-0.250	0.530
2020/01/31 01:23:21.8	96.960	0.420	-0.190	0.500
2020/01/31 01:23:21.9	96.960	0.400	-0.140	0.470
2020/01/31 01:23:22.0	96.970	0.370	-0.080	0.440
2020/01/31 01:23:22.1	96.980	0.340	-0.030	0.410
2020/01/31 01:23:22.2	96.990	0.310	0.020	0.380
2020/01/31 01:23:22.3	96.990	0.280	0.080	0.350
2020/01/31 01:23:22.4	97.000	0.240	0.130	0.320
2020/01/31 01:23:22.5	97.020	0.210	0.180	0.300
2020/01/31 01:23:22.6	97.030	0.170	0.230	0.270
2020/01/31 01:23:22.7	97.040	0.140	0.280	0.250
2020/01/31 01:23:22.8	97.050	0.100	0.330	0.230
2020/01/31 01:23:22.9	97.060	0.060	0.380	0.210
2020/01/31 01:23:23.0	97.060	0.020	0.430	0.200
2020/01/31 01:23:23.1	97.070	-0.010	0.480	0.180
2020/01/31 01:23:23.2	97.080	-0.050	0.520	0.170
2020/01/31 01:23:23.3	97.090	-0.090	0.560	0.170
2020/01/31 01:23:23.4	97.090	-0.130	0.610	0.160
2020/01/31 01:23:23.5	97.100	-0.160	0.640	0.160
2020/01/31 01:23:23.6	97.100	-0.200	0.680	0.160
2020/01/31 01:23:23.7	97.110	-0.230	0.710	0.170
2020/01/31 01:23:23.8	97.110	-0.270	0.740	0.170
2020/01/31 01:23:23.9	97.110	-0.300	0.770	0.180
2020/01/31 01:23:24.0	97.110	-0.330	0.790	0.190
2020/01/31 01:23:24.1	97.110	-0.360	0.810	0.210
2020/01/31 01:23:24.2	97.100	-0.390	0.830	0.220
2020/01/31 01:23:24.3	97.100	-0.420	0.840	0.240
2020/01/31 01:23:24.4	97.090	-0.440	0.840	0.260
2020/01/31 01:23:24.5	97.090	-0.460	0.840	0.280
2020/01/31 01:23:24.6	97.080	-0.480	0.840	0.300
2020/01/31 01:23:24.7	97.070	-0.500	0.830	0.320
2020/01/31 01:23:24.8	97.070	-0.510	0.810	0.340
2020/01/31 01:23:24.9	97.060	-0.520	0.790	0.360
2020/01/31 01:23:25.0	97.050	-0.530	0.760	0.390
2020/01/31 01:23:25.1	97.040	-0.540	0.730	0.410
2020/01/31 01:23:25.2	97.030	-0.540	0.690	0.430
2020/01/31 01:23:25.3	97.020	-0.540	0.650	0.460
2020/01/31 01:23:25.4	97.020	-0.530	0.600	0.480
2020/01/31 01:23:25.5	97.010	-0.530	0.540	0.500
2020/01/31 01:23:25.6	97.010	-0.520	0.480	0.530
2020/01/31 01:23:25.7	97.000	-0.500	0.420	0.550
2020/01/31 01:23:25.8	97.000	-0.480	0.340	0.580
2020/01/31 01:23:25.9	96.990	-0.460	0.270	0.600
2020/01/31 01:23:26.0	96.980	-0.440	0.190	0.620
2020/01/31 01:23:26.1	96.980	-0.410	0.100	0.650
2020/01/31 01:23:26.2	96.980	-0.380	0.020	0.670
2020/01/31 01:23:26.3	96.970	-0.350	-0.070	0.700
2020/01/31 01:23:26.4	96.970	-0.320	-0.160	0.730
2020/01/31 01:23:26.5	96.970	-0.280	-0.260	0.760
2020/01/31 01:23:26.6	96.970	-0.240	-0.350	0.790
2020/01/31 01:23:26.7	96.970	-0.200	-0.450	0.810
2020/01/31 01:23:26.8	96.970	-0.160	-0.540	0.850
2020/01/31 01:23:26.9	96.980	-0.120	-0.640	0.880
2020/01/31 01:23:27.0	97.000	-0.080	-0.730	0.910
2020/01/31 01:23:27.1	97.000	-0.030	-0.820	0.950
2020/01/31 01:23:27.2	97.000	0.010	-0.910	0.980
2020/01/31 01:23:27.3	97.000	0.060	-0.990	1.020
2020/01/31 01:23:27.4	97.010	0.100	-1.070	1.060
2020/01/31 01:23:27.5	97.010	0.150	-1.140	1.090
2020/01/31 01:23:27.6	97.010	0.190	-1.210	1.130
2020/01/31 01:23:27.7	97.010	0.230	-1.270	1.170
2020/01/31 01:23:27.8	97.020	0.270	-1.320	1.210
2020/01/31 01:23:27.9	97.020	0.310	-1.370	1.250
2020/01/31 01:23:28.0	97.020	0.340	-1.410	1.290
2020/01/31 01:23:28.1	97.020	0.380	-1.440	1.330
2020/01/31 01:23:28.2	97.030	0.410	-1.460	1.360
2020/01/31 01:23:28.3	97.030	0.440	-1.470	1.400
2020/01/31 01:23:28.4	97.030	0.460	-1.470	1.430
2020/01/31 01:23:28.5	97.040	0.480	-1.460	1.460
2020/01/31 01:23:28.6	97.040	0.500	-1.440	1.500
2020/01/31 01:23:28.7	97.040	0.510	-1.420	1.520
2020/01/31 01:23:28.8	97.050	0.520	-1.380	1.550
2020/01/31 01:23:28.9	97.050	0.530	-1.330	1.580
2020/01/31 01:23:29.0	97.050	0.530	-1.270	1.600
2020/01/31 01:23:29.1	97.060	0.530	-1.210	1.620
2020/01/31 01:23:29.2	97.060	0.520	-1.140	1.630
2020/01/31 01:23:29.3	97.060	0.510	-1.050	1.640
2020/01/31 01:23:29.4	97.060	0.490	-0.970	1.650
2020/01/31 01:23:29.5	97.060	0.480	-0.870	1.660
2020/01/31 01:23:29.6	97.060	0.450	-0.770	1.660
2020/01/31 01:23:29.7	97.070	0.430	-0.670	1.660
2020/01/31 01:23:29.8	97.070	0.400	-0.560	1.660
2020/01/31 01:23:29.9	97.070	0.370	-0.440	1.650
2020/01/31 01:23:30.0	97.070	0.340	-0.320	1.630
2020/01/31 01:23:30.1	97.070	0.300	-0.210	1.620
2020/01/31 01:23:30.2	97.070	0.270	-0.090	1.600
2020/01/31 01:23:30.3	97.070	0.230	0.020	1.580
2020/01/31 01:23:30.4	97.070	0.190	0.140	1.550
2020/01/31 01:23:30.5	97.070	0.150	0.250	1.530
2020/01/31 01:23:30.6	97.070	0.110	0.360	1.500
2020/01/31 01:23:30.7	97.070	0.070	0.460	1.460
2020/01/31 01:23:30.8	97.070	0.030	0.560	1.430
2020/01/31 01:23:30.9	97.070	-0.010	0.660	1.390
2020/01/31 01:23:31.0	97.090	-0.050	0.750	1.350
2020/01/31 01:23:31.1	97.090	-0.090	0.830	1.310
2020/01/31 01:23:31.2	97.090	-0.120	0.900	1.270
2020/01/31 01:23:31.3	97.080	-0.150	0.970	1.230
2020/01/31 01:23:31.4	97.080	-0.190	1.020	1.190
2020/01/31 01:23:31.5	97.080	-0.210	1.070	1.150
2020/01/31 01:23:31.6	97.080	-0.240	1.110	1.100
2020/01/31 01:23:31.7	97.080	-0.260	1.140	1.060
2020/01/31 01:23:31.8	97.080	-0.290	1.150	1.020
2020/01/31 01:23:31.9	97.080	-0.300	1.160	0.990
2020/01/31 01:23:32.0	97.070	-0.320	1.160	0.950
2020/01/31 01:23:32.1	97.070	-0.330	1.150	0.920
2020/01/31 01:23:32.2	97.070	-0.330	1.130	0.880
2020/01/31 01:23:32.3	97.070	-0.340	1.100	0.850
2020/01/31 01:23:32.4	97.060	-0.340	1.060	0.830
2020/01/31 01:23:32.5	97.060	-0.330	1.010	0.800
2020/01/31 01:23:32.6	97.060	-0.330	0.950	0.780
2020/01/31 01:23:32.7	97.050	-0.320	0.880	0.760
2020/01/31 01:23:32.8	97.050	-0.300	0.810	0.750
2020/01/31 01:23:32.9	97.040	-0.290	0.720	0.730
2020/01/31 01:23:33.0	97.050	-0.270	0.630	0.720
2020/01/31 01:23:33.1	97.040	-0.250	0.540	0.710
2020/01/31 01:23:33.2	97.040	-0.220	0.440	0.710
2020/01/31 01:23:33.3	97.030	-0.200	0.330	0.700
2020/01/31 01:23:33.4	97.030	-0.170	0.220	0.700
2020/01/31 01:23:33.5	97.020	-0.140	0.110	0.690
2020/01/31 01:23:33.6	97.020	-0.110	-0.010	0.690
2020/01/31 01:23:33.7	97.010	-0.070	-0.120	0.690
2020/01/31 01:23:33.8	97.010	-0.040	-0.240	0.690
2020/01/31 01:23:33.9	97.010	-0.010	-0.360	0.680
2020/01/31 01:23:34.0	97.000	0.030	-0.470	0.670
2020/01/31 01:23:34.1	97.000	0.060	-0.590	0.670
2020/01/31 01:23:34.2	97.000	0.090	-0.700	0.660
2020/01/31 01:23:34.3	97.000	0.130	-0.810	0.650
2020/01/31 01:23:34.4	97.010	0.160	-0.910	0.640
2020/01/31 01:23:34.5	97.010	0.190	-1.010	0.630
2020/01/31 01:23:34.6	97.010	0.220	-1.110	0.610
2020/01/31 01:23:34.7	97.020	0.250	-1.190	0.600
2020/01/31 01:23:34.8	97.020	0.270	-1.270	0.580
2020/01/31 01:23:34.9	97.030	0.300	-1.350	0.560
2020/01/31 01:23:35.0	97.030	0.320	-1.410	0.540
2020/01/31 01:23:35.1	97.050	0.340	-1.470	0.520
2020/01/31 01:23:35.2	97.060	0.350	-1.520	0.490
2020/01/31 01:23:35.3	97.070	0.370	-1.550	0.470
2020/01/31 01:23:35.4	97.090	0.380	-1.580	0.450
2020/01/31 01:23:35.5	97.110	0.390	-1.590	0.430
2020/01/31 01:23:35.6	97.130	0.390	-1.600	0.410
2020/01/31 01:23:35.7	97.150	0.390	-1.590	0.390
2020/01/31 01:23:35.8	97.170	0.390	-1.570	0.370
2020/01/31 01:23:35.9	97.190	0.390	-1.540	0.360
2020/01/31 01:23:36.0	97.220	0.380	-1.500	0.350
2020/01/31 01:23:36.1	97.240	0.370	-1.450	0.340
2020/01/31 01:23:36.2	97.270	0.360	-1.390	0.340
2020/01/31 01:23:36.3	97.290	0.340	-1.320	0.340
2020/01/31 01:23:36.4	97.310	0.330	-1.240	0.340
2020/01/31 01:23:36.5	97.340	0.300	-1.150	0.350
2020/01/31 01:23:36.6	97.360	0.280	-1.050	0.360
2020/01/31 01:23:36.7	97.380	0.250	-0.950	0.380
2020/01/31 01:23:36.8	97.410	0.230	-0.840	0.400
2020/01/31 01:23:36.9	97.430	0.200	-0.720	0.420
2020/01/31 01:23:37.0	97.450	0.170	-0.600	0.450
2020/01/31 01:23:37.1	97.470	0.130	-0.480	0.480
2020/01/31 01:23:37.2	97.490	0.100	-0.350	0.520
2020/01/31 01:23:37.3	97.510	0.060	-0.230	0.550
2020/01/31 01:23:37.4	97.530	0.030	-0.100	0.590
2020/01/31 01:23:37.5	97.550	-0.010	0.030	0.630
2020/01/31 01:23:37.6	97.560	-0.040	0.150	0.680
2020/01/31 01:23:37.7	97.580	-0.080	0.280	0.720
2020/01/31 01:23:37.8	97.590	-0.110	0.400	0.770
2020/01/31 01:23:37.9	97.600	-0.150	0.510	0.820
2020/01/31 01:23:38.0	97.610	-0.180	0.620	0.860
2020/01/31 01:23:38.1	97.620	-0.210	0.730	0.910
2020/01/31 01:23:38.2	97.620	-0.240	0.830	0.960
2020/01/31 01:23:38.3	97.630	-0.270	0.920	1.000
2020/01/31 01:23:38.4	97.630	-0.300	1.000	1.050
2020/01/31 01:23:38.5	97.630	-0.330	1.070	1.100
2020/01/31 01:23:38.6	97.630	-0.350	1.140	1.140
2020/01/31 01:23:38.7	97.630	-0.370	1.190	1.180
2020/01/31 01:23:38.8	97.630	-0.390	1.240	1.220
2020/01/31 01:23:38.9	97.630	-0.400	1.280	1.250
2020/01/31 01:23:39.0	97.650	-0.420	1.310	1.290
2020/01/31 01:23:39.1	97.640	-0.430	1.320	1.320
2020/01/31 01:23:39.2	97.640	-0.440	1.330	1.340
2020/01/31 01:23:39.3	97.630	-0.440	1.330	1.370
2020/01/31 01:23:39.4	97.630	-0.440	1.320	1.390
2020/01/31 01:23:39.5	97.630	-0.440	1.300	1.400
2020/01/31 01:23:39.6	97.620	-0.440	1.270	1.420
2020/01/31 01:23:39.7	97.620	-0.440	1.230	1.420
2020/01/31 01:23:39.8	97.620	-0.430	1.180	1.430
2020/01/31 01:23:39.9	97.610	-0.420	1.130	1.430
2020/01/31 01:23:40.0	97.620	-0.410	1.070	1.430
2020/01/31 01:23:40.1	97.620	-0.400	1.000	1.430
2020/01/31 01:23:40.2	97.620	-0.390	0.930	1.420
2020/01/31 01:23:40.3	97.620	-0.370	0.850	1.410
2020/01/31 01:23:40.4	97.620	-0.360	0.770	1.400
2020/01/31 01:23:40.5	97.620	-0.340	0.690	1.390
2020/01/31 01:23:40.6	97.620	-0.320	0.600	1.380
2020/01/31 01:23:40.7	97.630	-0.300	0.510	1.370
2020/01/31 01:23:40.8	97.630	-0.280	0.420	1.350
2020/01/31 01:23:40.9	97.630	-0.260	0.320	1.340
2020/01/31 01:23:41.0	97.620	-0.240	0.230	1.330
2020/01/31 01:23:41.1	97.630	-0.220	0.140	1.320
2020/01/31 01:23:41.2	97.630	-0.200	0.040	1.310
2020/01/31 01:23:41.3	97.640	-0.180	-0.050	1.290
2020/01/31 01:23:41.4	97.640	-0.160	-0.150	1.290
2020/01/31 01:23:41.5	97.650	-0.140	-0.240	1.280
2020/01/31 01:23:41.6	97.650	-0.110	-0.330	1.270
2020/01/31 01:23:41.7	97.660	-0.090	-0.420	1.270
2020/01/31 01:23:41.8	97.670	-0.070	-0.510	1.260
2020/01/31 01:23:41.9	97.670	-0.050	-0.590	1.260
2020/01/31 01:23:42.0	97.680	-0.030	-0.680	1.260
2020/01/31 01:23:42.1	97.690	-0.010	-0.760	1.260
2020/01/31 01:23:42.2	97.700	0.010	-0.830	1.260
2020/01/31 01:23:42.3	97.710	0.030	-0.900	1.260
2020/01/31 01:23:42.4	97.720	0.050	-0.970	1.270
2020/01/31 01:23:42.5	97.730	0.060	-1.040	1.270
2020/01/31 01:23:42.6	97.750	0.080	-1.100	1.280
2020/01/31 01:23:42.7	97.760	0.100	-1.160	1.280
2020/01/31 01:23:42.8	97.780	0.120	-1.210	1.290
2020/01/31 01:23:42.9	97.790	0.140	-1.260	1.300
2020/01/31 01:23:43.0	97.800	0.150	-1.300	1.300
2020/01/31 01:23:43.1	97.820	0.170	-1.340	1.310
2020/01/31 01:23:43.2	97.830	0.190	-1.370	1.320
2020/01/31 01:23:43.3	97.850	0.210	-1.400	1.320
2020/01/31 01:23:43.4	97.870	0.220	-1.420	1.330
2020/01/31 01:23:43.5	97.880	0.240	-1.440	1.340
2020/01/31 01:23:43.6	97.890	0.260	-1.450	1.350
2020/01/31 01:23:43.7	97.910	0.270	-1.460	1.360
2020/01/31 01:23:43.8	97.920	0.290	-1.460	1.370
2020/01/31 01:23:43.9	97.930	0.300	-1.460	1.370
2020/01/31 01:23:44.0	97.940	0.320	-1.440	1.390
2020/01/31 01:23:44.1	97.940	0.330	-1.420	1.390
2020/01/31 01:23:44.2	97.950	0.340	-1.400	1.400
2020/01/31 01:23:44.3	97.960	0.360	-1.360	1.410
2020/01/31 01:23:44.4	97.960	0.370	-1.320	1.410
2020/01/31 01:23:44.5	97.970	0.380	-1.280	1.420
2020/01/31 01:23:44.6	97.970	0.390	-1.220	1.420
2020/01/31 01:23:44.7	97.970	0.390	-1.160	1.430
2020/01/31 01:23:44.8	97.970	0.400	-1.100	1.430
2020/01/31 01:23:44.9	97.970	0.400	-1.020	1.440
2020/01/31 01:23:45.0	97.960	0.410	-0.940	1.440
2020/01/31 01:23:45.1	97.960	0.410	-0.860	1.440
2020/01/31 01:23:45.2	97.950	0.400	-0.770	1.440
2020/01/31 01:23:45.3	97.950	0.400	-0.680	1.450
2020/01/31 01:23:45.4	97.940	0.400	-0.590	1.450
2020/01/31 01:23:45.5	97.930	0.390	-0.490	1.450
2020/01/31 01:23:45.6	97.920	0.380	-0.390	1.450
2020/01/31 01:23:45.7	97.910	0.370	-0.290	1.450
2020/01/31 01:23:45.8	97.900	0.360	-0.180	1.450
2020/01/31 01:23:45.9	97.890	0.340	-0.080	1.460
2020/01/31 01:23:46.0	97.900	0.320	0.020	1.460
2020/01/31 01:23:46.1	97.880	0.300	0.120	1.450
2020/01/31 01:23:46.2	97.870	0.280	0.220	1.450
2020/01/31 01:23:46.3	97.860	0.260	0.320	1.450
2020/01/31 01:23:46.4	97.850	0.240	0.410	1.440
2020/01/31 01:23:46.5	97.830	0.220	0.500	1.440
2020/01/31 01:23:46.6	97.820	0.190	0.580	1.430
2020/01/31 01:23:46.7	97.810	0.160	0.660	1.420
2020/01/31 01:23:46.8	97.800	0.140	0.740	1.410
2020/01/31 01:23:46.9	97.790	0.110	0.810	1.400
2020/01/31 01:23:47.0	97.780	0.080	0.870	1.390
2020/01/31 01:23:47.1	97.770	0.060	0.930	1.370
2020/01/31 01:23:47.2	97.770	0.030	0.980	1.350
2020/01/31 01:23:47.3	97.760	0.000	1.020	1.330
2020/01/31 01:23:47.4	97.750	-0.030	1.060	1.310
2020/01/31 01:23:47.5	97.750	-0.050	1.080	1.290
2020/01/31 01:23:47.6	97.750	-0.080	1.100	1.260
2020/01/31 01:23:47.7	97.740	-0.100	1.120	1.230
2020/01/31 01:23:47.8	97.740	-0.120	1.120	1.200
2020/01/31 01:23:47.9	97.740	-0.140	1.120	1.170
2020/01/31 01:23:48.0	97.740	-0.160	1.110	1.130
2020/01/31 01:23:48.1	97.740	-0.180	1.090	1.100
2020/01/31 01:23:48.2	97.750	-0.200	1.070	1.060
2020/01/31 01:23:48.3	97.750	-0.210	1.040	1.030
2020/01/31 01:23:48.4	97.760	-0.230	1.000	0.990
2020/01/31 01:23:48.5	97.760	-0.240	0.960	0.950
2020/01/31 01:23:48.6	97.770	-0.240	0.910	0.910
2020/01/31 01:23:48.7	97.780	-0.250	0.860	0.870
2020/01/31 01:23:48.8	97.780	-0.250	0.800	0.830
2020/01/31 01:23:48.9	97.790	-0.260	0.740	0.780
2020/01/31 01:23:49.0	97.800	-0.260	0.680	0.740
2020/01/31 01:23:49.1	97.810	-0.260	0.610	0.690
2020/01/31 01:23:49.2	97.830	-0.250	0.540	0.650
2020/01/31 01:23:49.3	97.840	-0.250	0.460	0.600
2020/01/31 01:23:49.4	97.850	-0.240	0.390	0.560
2020/01/31 01:23:49.5	97.870	-0.230	0.310	0.510
2020/01/31 01:23:49.6	97.880	-0.220	0.230	0.470
2020/01/31 01:23:49.7	97.900	-0.210	0.150	0.420
2020/01/31 01:23:49.8	97.920	-0.200	0.070	0.380
2020/01/31 01:23:49.9	97.930	-0.180	-0.010	0.340
2020/01/31 01:23:50.0	97.940	-0.170	-0.100	0.300
2020/01/31 01:23:50.1	97.960	-0.150	-0.180	0.260
2020/01/31 01:23:50.2	97.980	-0.140	-0.260	0.220
2020/01/31 01:23:50.3	97.990	-0.120	-0.340	0.180
2020/01/31 01:23:50.4	98.010	-0.100	-0.420	0.150
2020/01/31 01:23:50.5	98.020	-0.080	-0.500	0.120
2020/01/31 01:23:50.6	98.040	-0.060	-0.580	0.090
2020/01/31 01:23:50.7	98.050	-0.040	-0.650	0.070
2020/01/31 01:23:50.8	98.070	-0.020	-0.730	0.050
2020/01/31 01:23:50.9	98.080	-0.000	-0.800	0.030
2020/01/31 01:23:51.0	98.080	0.020	-0.870	0.020
2020/01/31 01:23:51.1	98.090	0.040	-0.930	0.020
2020/01/31 01:23:51.2	98.100	0.060	-1.000	0.010
2020/01/31 01:23:51.3	98.100	0.080	-1.060	0.020
2020/01/31 01:23:51.4	98.110	0.100	-1.120	0.020
2020/01/31 01:23:51.5	98.110	0.120	-1.170	0.030
2020/01/31 01:23:51.6	98.110	0.140	-1.220	0.050
2020/01/31 01:23:51.7	98.110	0.150	-1.260	0.070
2020/01/31 01:23:51.8	98.110	0.170	-1.300	0.100
2020/01/31 01:23:51.9	98.100	0.190	-1.330	0.120
2020/01/31 01:23:52.0	98.080	0.200	-1.350	0.160
2020/01/31 01:23:52.1	98.080	0.220	-1.370	0.190
2020/01/31 01:23:52.2	98.070	0.230	-1.380	0.240
2020/01/31 01:23:52.3	98.060	0.240	-1.380	0.280
2020/01/31 01:23:52.4	98.050	0.240	-1.380	0.330
2020/01/31 01:23:52.5	98.030	0.250	-1.370	0.380
2020/01/31 01:23:52.6	98.020	0.250	-1.340	0.430
2020/01/31 01:23:52.7	98.010	0.260	-1.310	0.480
2020/01/31 01:23:52.8	98.000	0.260	-1.270	0.540
2020/01/31 01:23:52.9	97.980	0.250	-1.230	0.600
2020/01/31 01:23:53.0	97.950	0.250	-1.170	0.660
2020/01/31 01:23:53.1	97.940	0.240	-1.110	0.720
2020/01/31 01:23:53.2	97.920	0.230	-1.030	0.780
2020/01/31 01:23:53.3	97.910	0.210	-0.950	0.840
2020/01/31 01:23:53.4	97.900	0.200	-0.870	0.900
2020/01/31 01:23:53.5	97.880	0.180	-0.770	0.970
2020/01/31 01:23:53.6	97.870	0.150	-0.670	1.030
2020/01/31 01:23:53.7	97.860	0.130	-0.570	1.090
2020/01/31 01:23:53.8	97.850	0.100	-0.460	1.150
2020/01/31 01:23:53.9	97.830	0.080	-0.350	1.210
2020/01/31 01:23:54.0	97.810	0.040	-0.230	1.270
2020/01/31 01:23:54.1	97.800	0.010	-0.110	1.320
2020/01/31 01:23:54.2	97.790	-0.020	0.000	1.380
2020/01/31 01:23:54.3	97.780	-0.050	0.120	1.430
2020/01/31 01:23:54.4	97.770	-0.090	0.230	1.480
2020/01/31 01:23:54.5	97.760	-0.120	0.340	1.520
2020/01/31 01:23:54.6	97.760	-0.160	0.450	1.570
2020/01/31 01:23:54.7	97.750	-0.200	0.550	1.610
2020/01/31 01:23:54.8	97.740	-0.230	0.650	1.650
2020/01/31 01:23:54.9	97.740	-0.260	0.740	1.680
2020/01/31 01:23:55.0	97.760	-0.300	0.830	1.710
2020/01/31 01:23:55.1	97.760	-0.330	0.900	1.740
2020/01/31 01:23:55.2	97.760	-0.360	0.970	1.760
2020/01/31 01:23:55.3	97.760	-0.380	1.040	1.780
2020/01/31 01:23:55.4	97.760	-0.410	1.090	1.790
2020/01/31 01:23:55.5	97.760	-0.430	1.130	1.800
2020/01/31 01:23:55.6	97.770	-0.450	1.170	1.800
2020/01/31 01:23:55.7	97.770	-0.470	1.190	1.800
2020/01/31 01:23:55.8	97.780	-0.480	1.210	1.800
2020/01/31 01:23:55.9	97.780	-0.490	1.210	1.790
2020/01/31 01:23:56.0	97.810	-0.500	1.200	1.780
2020/01/31 01:23:56.1	97.820	-0.500	1.190	1.760
2020/01/31 01:23:56.2	97.820	-0.500	1.160	1.740
2020/01/31 01:23:56.3	97.840	-0.490	1.130	1.720
2020/01/31 01:23:56.4	97.850	-0.480	1.090	1.690
2020/01/31 01:23:56.5	97.860	-0.470	1.030	1.660
2020/01/31 01:23:56.6	97.870	-0.450	0.970	1.630
2020/01/31 01:23:56.7	97.880	-0.430	0.900	1.600
2020/01/31 01:23:56.8	97.890	-0.410	0.820	1.560
2020/01/31 01:23:56.9	97.900	-0.380	0.740	1.530
2020/01/31 01:23:57.0	97.920	-0.350	0.640	1.490
2020/01/31 01:23:57.1	97.930	-0.320	0.550	1.450
2020/01/31 01:23:57.2	97.940	-0.290	0.440	1.410
2020/01/31 01:23:57.3	97.950	-0.250	0.340	1.370
2020/01/31 01:23:57.4	97.960	-0.210	0.230	1.330
2020/01/31 01:23:57.5	97.970	-0.170	0.110	1.290
2020/01/31 01:23:57.6	97.980	-0.130	-0.010	1.250
2020/01/31 01:23:57.7	97.990	-0.090	-0.120	1.210
2020/01/31 01:23:57.8	98.000	-0.040	-0.240	1.170
2020/01/31 01:23:57.9	98.010	0.000	-0.360	1.130
2020/01/31 01:23:58.0	98.010	0.050	-0.480	1.100
2020/01/31 01:23:58.1	98.020	0.090	-0.600	1.060
2020/01/31 01:23:58.2	98.020	0.140	-0.710	1.030
2020/01/31 01:23:58.3	98.030	0.180	-0.820	0.990
2020/01/31 01:23:58.4	98.030	0.220	-0.920	0.960
2020/01/31 01:23:58.5	98.040	0.260	-1.020	0.920
2020/01/31 01:23:58.6	98.040	0.300	-1.120	0.890
2020/01/31 01:23:58.7	98.050	0.340	-1.210	0.860
2020/01/31 01:23:58.8	98.060	0.370	-1.290	0.830
2020/01/31 01:23:58.9	98.060	0.410	-1.360	0.800
2020/01/31 01:23:59.0	98.060	0.440	-1.420	0.760
2020/01/31 01:23:59.1	98.060	0.470	-1.480	0.730
2020/01/31 01:23:59.2	98.070	0.490	-1.520	0.700
2020/01/31 01:23:59.3	98.070	0.510	-1.550	0.670
2020/01/31 01:23:59.4	98.080	0.530	-1.580	0.650
2020/01/31 01:23:59.5	98.090	0.540	-1.590	0.620
2020/01/31 01:23:59.6	98.090	0.560	-1.590	0.590
2020/01/31 01:23:59.7	98.100	0.560	-1.580	0.560
2020/01/31 01:23:59.8	98.110	0.570	-1.560	0.540
2020/01/31 01:23:59.9	98.110	0.570	-1.530	0.520
2020/01/31 01:24:00.0	98.110	0.560	-1.480	0.490
2020/01/31 01:24:00.1	98.110	0.560	-1.430	0.470
2020/01/31 01:24:00.2	98.120	0.550	-1.370	0.460
2020/01/31 01:24:00.3	98.130	0.530	-1.300	0.440
2020/01/31 01:24:00.4	98.130	0.520	-1.220	0.430
2020/01/31 01:24:00.5	98.140	0.500	-1.140	0.410
2020/01/31 01:24:00.6	98.150	0.470	-1.040	0.400
2020/01/31 01:24:00.7	98.150	0.450	-0.940	0.400
2020/01/31 01:24:00.8	98.160	0.420	-0.840	0.400
2020/01/31 01:24:00.9	98.170	0.390	-0.730	0.400
2020/01/31 01:24:01.0	98.170	0.360	-0.610	0.400
2020/01/31 01:24:01.1	98.170	0.330	-0.500	0.410
2020/01/31 01:24:01.2	98.180	0.290	-0.380	0.410
2020/01/31 01:24:01.3	98.180	0.260	-0.270	0.430
2020/01/31 01:24:01.4	98.180	0.220	-0.150	0.440
2020/01/31 01:24:01.5	98.190	0.180	-0.040	0.460
2020/01/31 01:24:01.6	98.190	0.140	0.070	0.480
2020/01/31 01:24:01.7	98.190	0.110	0.180	0.500
2020/01/31 01:24:01.8	98.190	0.070	0.290	0.520
2020/01/31 01:24:01.9	98.200	0.030	0.390	0.550
2020/01/31 01:24:02.0	98.190	-0.010	0.490	0.570
2020/01/31 01:24:02.1	98.200	-0.040	0.580	0.600
2020/01/31 01:24:02.2	98.200	-0.080	0.660	0.630
2020/01/31 01:24:02.3	98.200	-0.110	0.740	0.660
2020/01/31 01:24:02.4	98.210	-0.140	0.810	0.690
2020/01/31 01:24:02.5	98.210	-0.170	0.880	0.720
2020/01/31 01:24:02.6	98.210	-0.200	0.930	0.750
2020/01/31 01:24:02.7	98.220	-0.230	0.980	0.770
2020/01/31 01:24:02.8	98.220	-0.250	1.020	0.800
2020/01/31 01:24:02.9	98.230	-0.270	1.050	0.830
2020/01/31 01:24:03.0	98.240	-0.290	1.080	0.860
2020/01/31 01:24:03.1	98.250	-0.310	1.090	0.890
2020/01/31 01:24:03.2	98.250	-0.320	1.100	0.910
2020/01/31 01:24:03.3	98.260	-0.330	1.100	0.940
2020/01/31 01:24:03.4	98.270	-0.340	1.090	0.960
2020/01/31 01:24:03.5	98.270	-0.350	1.080	0.980
2020/01/31 01:24:03.6	98.280	-0.360	1.050	1.000
2020/01/31 01:24:03.7	98.290	-0.360	1.020	1.020
2020/01/31 01:24:03.8	98.300	-0.360	0.990	1.030
2020/01/31 01:24:03.9	98.300	-0.360	0.950	1.050
2020/01/31 01:24:04.0	98.330	-0.360	0.900	1.060
2020/01/31 01:24:04.1	98.330	-0.350	0.850	1.070
2020/01/31 01:24:04.2	98.340	-0.350	0.790	1.070
2020/01/31 01:24:04.3	98.350	-0.340	0.730	1.080
2020/01/31 01:24:04.4	98.360	-0.330	0.670	1.080
2020/01/31 01:24:04.5	98.370	-0.320	0.600	1.080
2020/01/31 01:24:04.6	98.380	-0.310	0.540	1.080
2020/01/31 01:24:04.7	98.390	-0.300	0.460	1.080
2020/01/31 01:24:04.8	98.400	-0.280	0.390	1.080
2020/01/31 01:24:04.9	98.410	-0.270	0.320	1.070
2020/01/31 01:24:05.0	98.430	-0.250	0.240	1.070
2020/01/31 01:24:05.1	98.440	-0.230	0.170	1.060
2020/01/31 01:24:05.2	98.450	-0.220	0.090	1.060
2020/01/31 01:24:05.3	98.460	-0.200	0.020	1.050
2020/01/31 01:24:05.4	98.470	-0.180	-0.050	1.050
2020/01/31 01:24:05.5	98.480	-0.160	-0.120	1.040
2020/01/31 01:24:05.6	98.490	-0.140	-0.200	1.030
2020/01/31 01:24:05.7	98.490	-0.120	-0.260	1.030
2020/01/31 01:24:05.8	98.500	-0.100	-0.330	1.030
2020/01/31 01:24:05.9	98.510	-0.080	-0.400	1.020
2020/01/31 01:24:06.0	98.510	-0.060	-0.460	1.020
2020/01/31 01:24:06.1	98.520	-0.040	-0.520	1.020
2020/01/31 01:24:06.2	98.520	-0.020	-0.580	1.020
2020/01/31 01:24:06.3	98.530	-0.000	-0.640	1.010
2020/01/31 01:24:06.4	98.530	0.020	-0.690	1.020
2020/01/31 01:24:06.5	98.530	0.040	-0.740	1.020
2020/01/31 01:24:06.6	98.530	0.060	-0.790	1.020
2020/01/31 01:24:06.7	98.530	0.070	-0.830	1.030
2020/01/31 01:24:06.8	98.530	0.090	-0.870	1.040
2020/01/31 01:24:06.9	98.530	0.110	-0.910	1.040
2020/01/31 01:24:07.0	98.530	0.130	-0.940	1.050
2020/01/31 01:24:07.1	98.530	0.150	-0.970	1.060
2020/01/31 01:24:07.2	98.520	0.170	-1.000	1.080
2020/01/31 01:24:07.3	98.520	0.180	-1.020	1.090
2020/01/31 01:24:07.4	98.520	0.200	-1.040	1.100
2020/01/31 01:24:07.5	98.510	0.210	-1.060	1.120
2020/01/31 01:24:07.6	98.510	0.230	-1.070	1.130
2020/01/31 01:24:07.7	98.510	0.240	-1.080	1.150
2020/01/31 01:24:07.8	98.500	0.250	-1.080	1.160
2020/01/31 01:24:07.9	98.500	0.260	-1.080	1.180
2020/01/31 01:24:08.0	98.510	0.270	-1.070	1.200
2020/01/31 01:24:08.1	98.500	0.280	-1.060	1.220
2020/01/31 01:24:08.2	98.500	0.290	-1.050	1.230
2020/01/31 01:24:08.3	98.500	0.290	-1.030	1.250
2020/01/31 01:24:08.4	98.500	0.300	-1.010	1.270
2020/01/31 01:24:08.5	98.500	0.300	-0.980	1.280
2020/01/31 01:24:08.6	98.500	0.300	-0.940	1.300
2020/01/31 01:24:08.7	98.500	0.300	-0.900	1.310
2020/01/31 01:24:08.8	98.500	0.290	-0.860	1.320
2020/01/31 01:24:08.9	98.510	0.290	-0.810	1.340
2020/01/31 01:24:09.0	98.520	0.280	-0.760	1.350
2020/01/31 01:24:09.1	98.520	0.270	-0.700	1.360
2020/01/31 01:24:09.2	98.520	0.260	-0.640	1.370
2020/01/31 01:24:09.3	98.530	0.250	-0.570	1.380
2020/01/31 01:24:09.4	98.530	0.240	-0.510	1.390
2020/01/31 01:24:09.5	98.540	0.230	-0.440	1.390
2020/01/31 01:24:09.6	98.540	0.210	-0.360	1.400
2020/01/31 01:24:09.7	98.550	0.190	-0.290	1.400
2020/01/31 01:24:09.8	98.550	0.180	-0.220	1.400
2020/01/31 01:24:09.9	98.550	0.160	-0.140	1.400
2020/01/31 01:24:10.0	98.560	0.140	-0.070	1.400
2020/01/31 01:24:10.1	98.570	0.120	0.010	1.400
2020/01/31 01:24:10.2	98.570	0.090	0.080	1.390
2020/01/31 01:24:10.3	98.580	0.070	0.150	1.380
2020/01/31 01:24:10.4	98.580	0.050	0.220	1.370
2020/01/31 01:24:10.5	98.590	0.030	0.280	1.360
2020/01/31 01:24:10.6	98.600	0.010	0.340	1.350
2020/01/31 01:24:10.7	98.600	-0.010	0.400	1.330
2020/01/31 01:24:10.8	98.610	-0.030	0.460	1.320
2020/01/31 01:24:10.9	98.620	-0.050	0.510	1.300
2020/01/31 01:24:11.0	98.630	-0.070	0.550	1.270
2020/01/31 01:24:11.1	98.640	-0.090	0.590	1.250
2020/01/31 01:24:11.2	98.640	-0.110	0.620	1.230
2020/01/31 01:24:11.3	98.650	-0.130	0.650	1.200
2020/01/31 01:24:11.4	98.650	-0.140	0.680	1.180
2020/01/31 01:24:11.5	98.650	-0.160	0.690	1.150
2020/01/31 01:24:11.6	98.660	-0.170	0.700	1.130
2020/01/31 01:24:11.7	98.660	-0.180	0.710	1.100
2020/01/31 01:24:11.8	98.660	-0.190	0.710	1.080
2020/01/31 01:24:11.9	98.660	-0.200	0.710	1.050
2020/01/31 01:24:12.0	98.640	-0.210	0.700	1.030
2020/01/31 01:24:12.1	98.640	-0.220	0.680	1.010
2020/01/31 01:24:12.2	98.640	-0.220	0.660	0.990
2020/01/31 01:24:12.3	98.630	-0.230	0.640	0.970
2020/01/31 01:24:12.4	98.630	-0.230	0.610	0.950
2020/01/31 01:24:12.5	98.620	-0.230	0.580	0.940
2020/01/31 01:24:12.6	98.610	-0.230	0.550	0.930
2020/01/31 01:24:12.7	98.600	-0.230	0.510	0.910
2020/01/31 01:24:12.8	98.590	-0.220	0.470	0.910
2020/01/31 01:24:12.9	98.580	-0.220	0.430	0.900
2020/01/31 01:24:13.0	98.570	-0.210	0.380	0.890
2020/01/31 01:24:13.1	98.560	-0.210	0.330	0.890
2020/01/31 01:24:13.2	98.550	-0.200	0.280	0.890
2020/01/31 01:24:13.3	98.530	-0.190	0.220	0.890
2020/01/31 01:24:13.4	98.520	-0.180	0.170	0.890
2020/01/31 01:24:13.5	98.510	-0.170	0.110	0.890
2020/01/31 01:24:13.6	98.490	-0.160	0.050	0.900
2020/01/31 01:24:13.7	98.480	-0.150	-0.010	0.900
2020/01/31 01:24:13.8	98.470	-0.140	-0.070	0.910
2020/01/31 01:24:13.9	98.450	-0.120	-0.140	0.910
2020/01/31 01:24:14.0	98.450	-0.110	-0.200	0.920
2020/01/31 01:24:14.1	98.430	-0.090	-0.260	0.920
2020/01/31 01:24:14.2	98.420	-0.080	-0.330	0.930
2020/01/31 01:24:14.3	98.410	-0.060	-0.390	0.930
2020/01/31 01:24:14.4	98.400	-0.040	-0.460	0.930
2020/01/31 01:24:14.5	98.390	-0.020	-0.520	0.930
2020/01/31 01:24:14.6	98.380	-0.000	-0.580	0.940
2020/01/31 01:24:14.7	98.370	0.020	-0.640	0.940
2020/01/31 01:24:14.8	98.370	0.040	-0.700	0.930
2020/01/31 01:24:14.9	98.360	0.060	-0.760	0.930
2020/01/31 01:24:15.0	98.350	0.080	-0.810	0.930
2020/01/31 01:24:15.1	98.350	0.100	-0.860	0.920
2020/01/31 01:24:15.2	98.350	0.120	-0.900	0.920
2020/01/31 01:24:15.3	98.350	0.140	-0.940	0.910
2020/01/31 01:24:15.4	98.350	0.150	-0.980	0.910
2020/01/31 01:24:15.5	98.350	0.170	-1.010	0.900
2020/01/31 01:24:15.6	98.360	0.190	-1.040	0.900
2020/01/31 01:24:15.7	98.360	0.210	-1.060	0.890
2020/01/31 01:24:15.8	98.360	0.230	-1.070	0.890
2020/01/31 01:24:15.9	98.370	0.240	-1.080	0.890
2020/01/31 01:24:16.0	98.360	0.260	-1.080	0.890
2020/01/31 01:24:16.1	98.360	0.270	-1.080	0.890
2020/01/31 01:24:16.2	98.360	0.280	-1.070	0.890
2020/01/31 01:24:16.3	98.360	0.290	-1.050	0.900
2020/01/31 01:24:16.4	98.370	0.300	-1.030	0.910
2020/01/31 01:24:16.5	98.370	0.300	-1.000	0.920
2020/01/31 01:24:16.6	98.370	0.300	-0.970	0.930
2020/01/31 01:24:16.7	98.370	0.310	-0.930	0.940
2020/01/31 01:24:16.8	98.370	0.300	-0.880	0.960
2020/01/31 01:24:16.9	98.360	0.300	-0.830	0.980
2020/01/31 01:24:17.0	98.360	0.300	-0.780	0.990
2020/01/31 01:24:17.1	98.360	0.290	-0.720	1.010
2020/01/31 01:24:17.2	98.360	0.280	-0.650	1.030
2020/01/31 01:24:17.3	98.350	0.270	-0.580	1.050
2020/01/31 01:24:17.4	98.350	0.250	-0.500	1.070
2020/01/31 01:24:17.5	98.340	0.230	-0.420	1.090
2020/01/31 01:24:17.6	98.340	0.220	-0.340	1.110
2020/01/31 01:24:17.7	98.330	0.190	-0.260	1.130
2020/01/31 01:24:17.8	98.330	0.170	-0.170	1.150
2020/01/31 01:24:17.9	98.330	0.150	-0.090	1.160
2020/01/31 01:24:18.0	98.310	0.120	0.000	1.180
2020/01/31 01:24:18.1	98.310	0.100	0.090	1.200
2020/01/31 01:24:18.2	98.300	0.070	0.170	1.210
2020/01/31 01:24:18.3	98.300	0.040	0.250	1.230
2020/01/31 01:24:18.4	98.290	0.010	0.330	1.240
2020/01/31 01:24:18.5	98.290	-0.020	0.410	1.250
2020/01/31 01:24:18.6	98.280	-0.040	0.480	1.260
2020/01/31 01:24:18.7	98.270	-0.070	0.550	1.270
2020/01/31 01:24:18.8	98.260	-0.100	0.610	1.270
2020/01/31 01:24:18.9	98.260	-0.130	0.670	1.280
2020/01/31 01:24:19.0	98.260	-0.150	0.720	1.280
2020/01/31 01:24:19.1	98.250	-0.180	0.770	1.290
2020/01/31 01:24:19.2	98.240	-0.200	0.810	1.290
2020/01/31 01:24:19.3	98.240	-0.220	0.840	1.290
2020/01/31 01:24:19.4	98.230	-0.240	0.870	1.290
2020/01/31 01:24:19.5	98.230	-0.260	0.890	1.280
2020/01/31 01:24:19.6	98.220	-0.280	0.900	1.280
2020/01/31 01:24:19.7	98.220	-0.290	0.910	1.270
2020/01/31 01:24:19.8	98.210	-0.300	0.910	1.260
2020/01/31 01:24:19.9	98.210	-0.310	0.900	1.250
2020/01/31 01:24:20.0	98.220	-0.310	0.890	1.240
2020/01/31 01:24:20.1	98.220	-0.320	0.870	1.220
2020/01/31 01:24:20.2	98.220	-0.320	0.840	1.210
2020/01/31 01:24:20.3	98.220	-0.320	0.810	1.190
2020/01/31 01:24:20.4	98.230	-0.310	0.770	1.170
2020/01/31 01:24:20.5	98.230	-0.310	0.720	1.150
2020/01/31 01:24:20.6	98.240	-0.300	0.670	1.130
2020/01/31 01:24:20.7	98.240	-0.290	0.620	1.110
2020/01/31 01:24:20.8	98.250	-0.270	0.560	1.090
2020/01/31 01:24:20.9	98.260	-0.260	0.490	1.070
2020/01/31 01:24:21.0	98.260	-0.240	0.420	1.050
2020/01/31 01:24:21.1	98.270	-0.220	0.350	1.020
2020/01/31 01:24:21.2	98.280	-0.200	0.270	1.000
2020/01/31 01:24:21.3	98.290	-0.170	0.190	0.980
2020/01/31 01:24:21.4	98.300	-0.150	0.110	0.960
2020/01/31 01:24:21.5	98.310	-0.120	0.030	0.940
2020/01/31 01:24:21.6	98.320	-0.090	-0.050	0.920
2020/01/31 01:24:21.7	98.330	-0.060	-0.140	0.900
2020/01/31 01:24:21.8	98.330	-0.030	-0.220	0.890
2020/01/31 01:24:21.9	98.340	-0.000	-0.300	0.870
2020/01/31 01:24:22.0	98.350	0.030	-0.390	0.860
2020/01/31 01:24:22.1	98.360	0.060	-0.470	0.850
2020/01/31 01:24:22.2	98.360	0.090	-0.540	0.840
2020/01/31 01:24:22.3	98.370	0.120	-0.620	0.830
2020/01/31 01:24:22.4	98.370	0.150	-0.690	0.820
2020/01/31 01:24:22.5	98.370	0.180	-0.760	0.810
2020/01/31 01:24:22.6	98.370	0.210	-0.820	0.810
2020/01/31 01:24:22.7	98.370	0.240	-0.880	0.810
2020/01/31 01:24:22.8	98.370	0.270	-0.940	0.810
2020/01/31 01:24:22.9	98.370	0.290	-0.980	0.800
2020/01/31 01:24:23.0	98.360	0.310	-1.030	0.800
2020/01/31 01:24:23.1	98.360	0.330	-1.060	0.800
2020/01/31 01:24:23.2	98.350	0.350	-1.090	0.810
2020/01/31 01:24:23.3	98.350	0.370	-1.110	0.810
2020/01/31 01:24:23.4	98.350	0.380	-1.130	0.810
2020/01/31 01:24:23.5	98.340	0.400	-1.130	0.820
2020/01/31 01:24:23.6	98.340	0.410	-1.130	0.820
2020/01/31 01:24:23.7	98.330	0.410	-1.130	0.830
2020/01/31 01:24:23.8	98.330	0.410	-1.110	0.830
2020/01/31 01:24:23.9	98.330	0.410	-1.090	0.840
2020/01/31 01:24:24.0	98.320	0.410	-1.060	0.850
2020/01/31 01:24:24.1	98.320	0.400	-1.020	0.860
2020/01/31 01:24:24.2	98.320	0.390	-0.980	0.870
2020/01/31 01:24:24.3	98.320	0.380	-0.930	0.880
2020/01/31 01:24:24.4	98.310	0.360	-0.870	0.890
2020/01/31 01:24:24.5	98.310	0.340	-0.810	0.910
2020/01/31 01:24:24.6	98.300	0.320	-0.750	0.920
2020/01/31 01:24:24.7	98.300	0.300	-0.680	0.940
2020/01/31 01:24:24.8	98.290	0.270	-0.600	0.960
2020/01/31 01:24:24.9	98.280	0.240	-0.530	0.980
2020/01/31 01:24:25.0	98.270	0.210	-0.440	1.010
2020/01/31 01:24:25.1	98.260	0.170	-0.360	1.030
2020/01/31 01:24:25.2	98.250	0.140	-0.280	1.060
2020/01/31 01:24:25.3	98.240	0.100	-0.200	1.080
2020/01/31 01:24:25.4	98.230	0.060	-0.110	1.110
2020/01/31 01:24:25.5	98.210	0.020	-0.030	1.140
2020/01/31 01:24:25.6	98.200	-0.020	0.050	1.170
2020/01/31 01:24:25.7	98.180	-0.060	0.130	1.200
2020/01/31 01:24:25.8	98.160	-0.100	0.200	1.230
2020/01/31 01:24:25.9	98.150	-0.150	0.280	1.260
2020/01/31 01:24:26.0	98.130	-0.190	0.350	1.290
2020/01/31 01:24:26.1	98.110	-0.230	0.410	1.320
2020/01/31 01:24:26.2	98.100	-0.270	0.470	1.350
2020/01/31 01:24:26.3	98.080	-0.300	0.530	1.370
2020/01/31 01:24:26.4	98.060	-0.340	0.580	1.400
2020/01/31 01:24:26.5	98.040	-0.370	0.620	1.420
2020/01/31 01:24:26.6	98.030	-0.410	0.660	1.440
2020/01/31 01:24:26.7	98.010	-0.440	0.690	1.450
2020/01/31 01:24:26.8	98.000	-0.470	0.720	1.460
2020/01/31 01:24:26.9	97.990	-0.490	0.740	1.470
2020/01/31 01:24:27.0	97.970	-0.510	0.750	1.480
2020/01/31 01:24:27.1	97.960	-0.530	0.750	1.490
2020/01/31 01:24:27.2	97.950	-0.550	0.750	1.480
2020/01/31 01:24:27.3	97.950	-0.560	0.740	1.480
2020/01/31 01:24:27.4	97.950	-0.570	0.720	1.470
2020/01/31 01:24:27.5	97.950	-0.580	0.700	1.450
2020/01/31 01:24:27.6	97.950	-0.580	0.670	1.430
2020/01/31 01:24:27.7	97.950	-0.580	0.630	1.410
2020/01/31 01:24:27.8	97.960	-0.570	0.590	1.390
2020/01/31 01:24:27.9	97.970	-0.560	0.540	1.360
2020/01/31 01:24:28.0	98.000	-0.550	0.480	1.320
2020/01/31 01:24:28.1	98.020	-0.530	0.420	1.280
2020/01/31 01:24:28.2	98.040	-0.510	0.350	1.240
2020/01/31 01:24:28.3	98.060	-0.490	0.280	1.200
2020/01/31 01:24:28.4	98.080	-0.460	0.210	1.160
2020/01/31 01:24:28.5	98.110	-0.440	0.130	1.110
2020/01/31 01:24:28.6	98.140	-0.400	0.060	1.070
2020/01/31 01:24:28.7	98.170	-0.370	-0.030	1.020
2020/01/31 01:24:28.8	98.200	-0.330	-0.110	0.970
2020/01/31 01:24:28.9	98.240	-0.290	-0.200	0.930
2020/01/31 01:24:29.0	98.260	-0.250	-0.290	0.880
2020/01/31 01:24:29.1	98.300	-0.210	-0.370	0.840
2020/01/31 01:24:29.2	98.340	-0.160	-0.460	0.790
2020/01/31 01:24:29.3	98.370	-0.120	-0.550	0.750
2020/01/31 01:24:29.4	98.410	-0.070	-0.630	0.710
2020/01/31 01:24:29.5	98.450	-0.020	-0.710	0.670
2020/01/31 01:24:29.6	98.480	0.020	-0.790	0.640
2020/01/31 01:24:29.7	98.520	0.070	-0.870	0.600
2020/01/31 01:24:29.8	98.550	0.120	-0.940	0.570
2020/01/31 01:24:29.9	98.590	0.160	-1.010	0.550
2020/01/31 01:24:30.0	98.630	0.210	-1.070	0.520
2020/01/31 01:24:30.1	98.660	0.250	-1.120	0.500
2020/01/31 01:24:30.2	98.690	0.290	-1.170	0.480
2020/01/31 01:24:30.3	98.720	0.330	-1.210	0.460
2020/01/31 01:24:30.4	98.750	0.370	-1.240	0.450
2020/01/31 01:24:30.5	98.780	0.400	-1.270	0.440
2020/01/31 01:24:30.6	98.800	0.430	-1.280	0.430
2020/01/31 01:24:30.7	98.830	0.460	-1.290	0.420
2020/01/31 01:24:30.8	98.850	0.480	-1.290	0.420
2020/01/31 01:24:30.9	98.870	0.500	-1.270	0.420
2020/01/31 01:24:31.0	98.870	0.520	-1.250	0.420
2020/01/31 01:24:31.1	98.890	0.530	-1.220	0.420
2020/01/31 01:24:31.2	98.890	0.530	-1.180	0.430
2020/01/31 01:24:31.3	98.900	0.530	-1.120	0.450
2020/01/31 01:24:31.4	98.900	0.530	-1.060	0.460
2020/01/31 01:24:31.5	98.900	0.520	-0.990	0.480
2020/01/31 01:24:31.6	98.890	0.510	-0.920	0.500
2020/01/31 01:24:31.7	98.890	0.490	-0.830	0.520
2020/01/31 01:24:31.8	98.870	0.460	-0.740	0.550
2020/01/31 01:24:31.9	98.860	0.440	-0.640	0.570
2020/01/31 01:24:32.0	98.840	0.410	-0.530	0.600
2020/01/31 01:24:32.1	98.820	0.370	-0.420	0.630
2020/01/31 01:24:32.2	98.790	0.330	-0.310	0.660
2020/01/31 01:24:32.3	98.770	0.290	-0.200	0.690
2020/01/31 01:24:32.4	98.740	0.250	-0.080	0.720
2020/01/31 01:24:32.5	98.720	0.200	0.040	0.750
2020/01/31 01:24:32.6	98.690	0.150	0.160	0.780
2020/01/31 01:24:32.7	98.660	0.110	0.270	0.810
2020/01/31 01:24:32.8	98.630	0.060	0.390	0.840
2020/01/31 01:24:32.9	98.600	0.010	0.500	0.860
2020/01/31 01:24:33.0	98.570	-0.050	0.610	0.890
2020/01/31 01:24:33.1	98.540	-0.090	0.710	0.910
2020/01/31 01:24:33.2	98.510	-0.140	0.810	0.930
2020/01/31 01:24:33.3	98.490	-0.190	0.900	0.950
2020/01/31 01:24:33.4	98.460	-0.240	0.980	0.970
2020/01/31 01:24:33.5	98.430	-0.280	1.060	0.980
2020/01/31 01:24:33.6	98.410	-0.320	1.120	0.990
2020/01/31 01:24:33.7	98.390	-0.350	1.180	1.000
2020/01/31 01:24:33.8	98.370	-0.390	1.230	1.000
2020/01/31 01:24:33.9	98.350	-0.410	1.270	1.000
2020/01/31 01:24:34.0	98.340	-0.440	1.290	1.000
2020/01/31 01:24:34.1	98.330	-0.460	1.310	1.000
2020/01/31 01:24:34.2	98.320	-0.470	1.320	0.990
2020/01/31 01:24:34.3	98.310	-0.480	1.310	0.980
2020/01/31 01:24:34.4	98.300	-0.490	1.290	0.970
2020/01/31 01:24:34.5	98.300	-0.490	1.270	0.960
2020/01/31 01:24:34.6	98.300	-0.480	1.230	0.940
2020/01/31 01:24:34.7	98.300	-0.470	1.180	0.930
2020/01/31 01:24:34.8	98.300	-0.450	1.120	0.910
2020/01/31 01:24:34.9	98.310	-0.430	1.050	0.890
2020/01/31 01:24:35.0	98.310	-0.400	0.980	0.870
2020/01/31 01:24:35.1	98.320	-0.370	0.890	0.850
2020/01/31 01:24:35.2	98.330	-0.340	0.800	0.830
2020/01/31 01:24:35.3	98.350	-0.300	0.690	0.810
2020/01/31 01:24:35.4	98.360	-0.250	0.580	0.780
2020/01/31 01:24:35.5	98.370	-0.210	0.470	0.760
2020/01/31 01:24:35.6	98.390	-0.160	0.350	0.740
2020/01/31 01:24:35.7	98.400	-0.110	0.220	0.720
2020/01/31 01:24:35.8	98.420	-0.050	0.100	0.690
2020/01/31 01:24:35.9	98.440	0.000	-0.030	0.670
2020/01/31 01:24:36.0	98.440	0.060	-0.170	0.650
2020/01/31 01:24:36.1	98.460	0.110	-0.300	0.620
2020/01/31 01:24:36.2	98.480	0.170	-0.430	0.600
2020/01/31 01:24:36.3	98.510	0.220	-0.560	0.570
2020/01/31 01:24:36.4	98.530	0.280	-0.680	0.550
2020/01/31 01:24:36.5	98.550	0.330	-0.800	0.520
2020/01/31 01:24:36.6	98.580	0.380	-0.920	0.500
2020/01/31 01:24:36.7	98.600	0.430	-1.030	0.480
2020/01/31 01:24:36.8	98.630	0.470	-1.130	0.450
2020/01/31 01:24:36.9	98.660	0.510	-1.220	0.430
2020/01/31 01:24:37.0	98.690	0.550	-1.310	0.410
2020/01/31 01:24:37.1	98.710	0.580	-1.390	0.390
2020/01/31 01:24:37.2	98.740	0.610	-1.450	0.370
2020/01/31 01:24:37.3	98.770	0.640	-1.510	0.350
2020/01/31 01:24:37.4	98.800	0.660	-1.550	0.330
2020/01/31 01:24:37.5	98.820	0.670	-1.590	0.320
2020/01/31 01:24:37.6	98.850	0.680	-1.610	0.310
2020/01/31 01:24:37.7	98.880	0.680	-1.620	0.300
2020/01/31 01:24:37.8	98.900	0.680	-1.620	0.290
2020/01/31 01:24:37.9	98.930	0.670	-1.610	0.290
2020/01/31 01:24:38.0	98.970	0.660	-1.590	0.280
2020/01/31 01:24:38.1	99.000	0.640	-1.560	0.280
2020/01/31 01:24:38.2	99.020	0.620	-1.510	0.290
2020/01/31 01:24:38.3	99.040	0.590	-1.460	0.300
2020/01/31 01:24:38.4	99.060	0.560	-1.400	0.320
2020/01/31 01:24:38.5	99.070	0.520	-1.330	0.340
2020/01/31 01:24:38.6	99.090	0.480	-1.250	0.360
2020/01/31 01:24:38.7	99.100	0.440	-1.170	0.390
2020/01/31 01:24:38.8	99.120	0.390	-1.070	0.430
2020/01/31 01:24:38.9	99.130	0.340	-0.980	0.470
2020/01/31 01:24:39.0	99.110	0.290	-0.870	0.520
2020/01/31 01:24:39.1	99.120	0.240	-0.760	0.570
2020/01/31 01:24:39.2	99.120	0.180	-0.650	0.620
2020/01/31 01:24:39.3	99.130	0.130	-0.540	0.680
2020/01/31 01:24:39.4	99.130	0.070	-0.420	0.740
2020/01/31 01:24:39.5	99.130	0.010	-0.310	0.810
2020/01/31 01:24:39.6	99.130	-0.040	-0.190	0.880
2020/01/31 01:24:39.7	99.130	-0.100	-0.070	0.950
2020/01/31 01:24:39.8	99.120	-0.160	0.040	1.030
2020/01/31 01:24:39.9	99.120	-0.210	0.150	1.110
2020/01/31 01:24:40.0	99.120	-0.270	0.270	1.190
2020/01/31 01:24:40.1	99.110	-0.320	0.380	1.270
2020/01/31 01:24:40.2	99.100	-0.370	0.480	1.360
2020/01/31 01:24:40.3	99.090	-0.420	0.580	1.440
2020/01/31 01:24:40.4	99.070	-0.470	0.680	1.530
2020/01/31 01:24:40.5	99.060	-0.520	0.780	1.610
2020/01/31 01:24:40.6	99.050	-0.560	0.860	1.700
2020/01/31 01:24:40.7	99.030	-0.600	0.950	1.780
2020/01/31 01:24:40.8	99.010	-0.640	1.020	1.870
2020/01/31 01:24:40.9	99.000	-0.670	1.090	1.950
2020/01/31 01:24:41.0	98.980	-0.710	1.150	2.030
2020/01/31 01:24:41.1	98.960	-0.730	1.200	2.110
2020/01/31 01:24:41.2	98.950	-0.760	1.240	2.190
2020/01/31 01:24:41.3	98.930	-0.780	1.280	2.260
2020/01/31 01:24:41.4	98.910	-0.800	1.300	2.330
2020/01/31 01:24:41.5	98.890	-0.810	1.310	2.400
2020/01/31 01:24:41.6	98.870	-0.820	1.320	2.470
2020/01/31 01:24:41.7	98.860	-0.820	1.310	2.530
2020/01/31 01:24:41.8	98.840	-0.820	1.300	2.580
2020/01/31 01:24:41.9	98.820	-0.820	1.270	2.630
2020/01/31 01:24:42.0	98.780	-0.820	1.230	2.680
2020/01/31 01:24:42.1	98.760	-0.810	1.180	2.720
2020/01/31 01:24:42.2	98.750	-0.790	1.130	2.760
2020/01/31 01:24:42.3	98.730	-0.770	1.060	2.790
2020/01/31 01:24:42.4	98.720	-0.750	0.980	2.810
2020/01/31 01:24:42.5	98.700	-0.720	0.900	2.830
2020/01/31 01:24:42.6	98.690	-0.690	0.810	2.850
2020/01/31 01:24:42.7	98.680	-0.660	0.710	2.860
2020/01/31 01:24:42.8	98.660	-0.630	0.600	2.870
2020/01/31 01:24:42.9	98.650	-0.590	0.480	2.870
2020/01/31 01:24:43.0	98.640	-0.540	0.360	2.860
2020/01/31 01:24:43.1	98.630	-0.500	0.240	2.850
2020/01/31 01:24:43.2	98.620	-0.450	0.110	2.840
2020/01/31 01:24:43.3	98.600	-0.400	-0.020	2.820
2020/01/31 01:24:43.4	98.590	-0.350	-0.150	2.800
2020/01/31 01:24:43.5	98.580	-0.300	-0.280	2.780
2020/01/31 01:24:43.6	98.570	-0.250	-0.410	2.750
2020/01/31 01:24:43.7	98.550	-0.190	-0.540	2.720
2020/01/31 01:24:43.8	98.540	-0.130	-0.670	2.690
2020/01/31 01:24:43.9	98.530	-0.080	-0.790	2.650
2020/01/31 01:24:44.0	98.540	-0.020	-0.910	2.610
2020/01/31 01:24:44.1	98.530	0.030	-1.030	2.560
2020/01/31 01:24:44.2	98.520	0.090	-1.130	2.520
2020/01/31 01:24:44.3	98.510	0.140	-1.230	2.470
2020/01/31 01:24:44.4	98.500	0.200	-1.320	2.410
2020/01/31 01:24:44.5	98.490	0.250	-1.410	2.360
2020/01/31 01:24:44.6	98.490	0.300	-1.480	2.300
2020/01/31 01:24:44.7	98.480	0.350	-1.540	2.250
2020/01/31 01:24:44.8	98.470	0.390	-1.600	2.190
2020/01/31 01:24:44.9	98.470	0.440	-1.640	2.120
2020/01/31 01:24:45.0	98.450	0.480	-1.670	2.060
2020/01/31 01:24:45.1	98.450	0.520	-1.690	2.000
2020/01/31 01:24:45.2	98.450	0.550	-1.700	1.930
2020/01/31 01:24:45.3	98.440	0.580	-1.700	1.860
2020/01/31 01:24:45.4	98.440	0.610	-1.680	1.790
2020/01/31 01:24:45.5	98.440	0.640	-1.660	1.720
2020/01/31 01:24:45.6	98.440	0.660	-1.620	1.650
2020/01/31 01:24:45.7	98.440	0.680	-1.580	1.570
2020/01/31 01:24:45.8	98.450	0.690	-1.520	1.500
2020/01/31 01:24:45.9	98.450	0.700	-1.460	1.420
2020/01/31 01:24:46.0	98.450	0.710	-1.390	1.350
2020/01/31 01:24:46.1	98.450	0.710	-1.310	1.270
2020/01/31 01:24:46.2	98.460	0.710	-1.220	1.200
2020/01/31 01:24:46.3	98.470	0.710	-1.120	1.120
2020/01/31 01:24:46.4	98.470	0.700	-1.020	1.040
2020/01/31 01:24:46.5	98.480	0.690	-0.920	0.970
2020/01/31 01:24:46.6	98.490	0.680	-0.810	0.890
2020/01/31 01:24:46.7	98.500	0.660	-0.690	0.820
2020/01/31 01:24:46.8	98.500	0.640	-0.580	0.750
2020/01/31 01:24:46.9	98.510	0.620	-0.460	0.670
2020/01/31 01:24:47.0	98.530	0.600	-0.340	0.600
2020/01/31 01:24:47.1	98.540	0.580	-0.220	0.530
2020/01/31 01:24:47.2	98.550	0.550	-0.110	0.460
2020/01/31 01:24:47.3	98.550	0.520	0.000	0.400
2020/01/31 01:24:47.4	98.560	0.490	0.110	0.330
2020/01/31 01:24:47.5	98.560	0.460	0.220	0.270
2020/01/31 01:24:47.6	98.570	0.430	0.320	0.210
2020/01/31 01:24:47.7	98.570	0.400	0.410	0.160
2020/01/31 01:24:47.8	98.570	0.370	0.500	0.100
2020/01/31 01:24:47.9	98.570	0.340	0.580	0.050
2020/01/31 01:24:48.0	98.570	0.310	0.660	-0.000
2020/01/31 01:24:48.1	98.570	0.280	0.720	-0.050
2020/01/31 01:24:48.2	98.560	0.250	0.780	-0.090
2020/01/31 01:24:48.3	98.550	0.220	0.840	-0.130
2020/01/31 01:24:48.4	98.550	0.190	0.880	-0.170
2020/01/31 01:24:48.5	98.530	0.160	0.910	-0.200
2020/01/31 01:24:48.6	98.520	0.140	0.940	-0.230
2020/01/31 01:24:48.7	98.510	0.110	0.960	-0.260
2020/01/31 01:24:48.8	98.490	0.090	0.970	-0.290
2020/01/31 01:24:48.9	98.480	0.070	0.980	-0.310
2020/01/31 01:24:49.0	98.470	0.050	0.970	-0.330
2020/01/31 01:24:49.1	98.450	0.030	0.960	-0.340
2020/01/31 01:24:49.2	98.430	0.010	0.940	-0.360
2020/01/31 01:24:49.3	98.410	-0.010	0.920	-0.370
2020/01/31 01:24:49.4	98.390	-0.020	0.890	-0.370
2020/01/31 01:24:49.5	98.380	-0.040	0.860	-0.380
2020/01/31 01:24:49.6	98.360	-0.050	0.820	-0.380
2020/01/31 01:24:49.7	98.340	-0.070	0.770	-0.370
2020/01/31 01:24:49.8	98.320	-0.080	0.730	-0.370
2020/01/31 01:24:49.9	98.300	-0.090	0.670	-0.360
2020/01/31 01:24:50.0	98.280	-0.110	0.620	-0.350
2020/01/31 01:24:50.1	98.270	-0.120	0.570	-0.340
2020/01/31 01:24:50.2	98.250	-0.130	0.510	-0.320
2020/01/31 01:24:50.3	98.240	-0.150	0.450	-0.300
2020/01/31 01:24:50.4	98.230	-0.160	0.390	-0.280
2020/01/31 01:24:50.5	98.210	-0.170	0.320	-0.260
2020/01/31 01:24:50.6	98.200	-0.190	0.260	-0.230
2020/01/31 01:24:50.7	98.200	-0.200	0.200	-0.200
2020/01/31 01:24:50.8	98.190	-0.220	0.140	-0.170
2020/01/31 01:24:50.9	98.180	-0.230	0.080	-0.140
2020/01/31 01:24:51.0	98.190	-0.250	0.020	-0.100
2020/01/31 01:24:51.1	98.180	-0.260	-0.040	-0.060
2020/01/31 01:24:51.2	98.180	-0.280	-0.090	-0.030
2020/01/31 01:24:51.3	98.180	-0.290	-0.150	0.020
2020/01/31 01:24:51.4	98.180	-0.310	-0.200	0.060
2020/01/31 01:24:51.5	98.180	-0.330	-0.250	0.110
2020/01/31 01:24:51.6	98.180	-0.340	-0.290	0.160
2020/01/31 01:24:51.7	98.180	-0.360	-0.330	0.210
2020/01/31 01:24:51.8	98.180	-0.370	-0.370	0.260
2020/01/31 01:24:51.9	98.180	-0.390	-0.410	0.320
2020/01/31 01:24:52.0	98.190	-0.400	-0.440	0.380
2020/01/31 01:24:52.1	98.190	-0.410	-0.470	0.440
2020/01/31 01:24:52.2	98.190	-0.430	-0.500	0.510
2020/01/31 01:24:52.3	98.190	-0.440	-0.520	0.570
2020/01/31 01:24:52.4	98.190	-0.450	-0.540	0.640
2020/01/31 01:24:52.5	98.180	-0.450	-0.550	0.710
2020/01/31 01:24:52.6	98.180	-0.460	-0.570	0.780
2020/01/31 01:24:52.7	98.180	-0.460	-0.580	0.860
2020/01/31 01:24:52.8	98.180	-0.470	-0.590	0.930
2020/01/31 01:24:52.9	98.180	-0.470	-0.590	1.000
2020/01/31 01:24:53.0	98.190	-0.470	-0.590	1.080
2020/01/31 01:24:53.1	98.180	-0.460	-0.590	1.150
2020/01/31 01:24:53.2	98.180	-0.460	-0.590	1.230
2020/01/31 01:24:53.3	98.180	-0.450	-0.590	1.300
2020/01/31 01:24:53.4	98.180	-0.440	-0.580	1.370
2020/01/31 01:24:53.5	98.180	-0.430	-0.570	1.430
2020/01/31 01:24:53.6	98.180	-0.410	-0.560	1.500
2020/01/31 01:24:53.7	98.180	-0.400	-0.550	1.560
2020/01/31 01:24:53.8	98.180	-0.380	-0.540	1.620
2020/01/31 01:24:53.9	98.190	-0.360	-0.520	1.680
2020/01/31 01:24:54.0	98.190	-0.330	-0.510	1.730
2020/01/31 01:24:54.1	98.190	-0.310	-0.490	1.780
2020/01/31 01:24:54.2	98.200	-0.280	-0.480	1.820
2020/01/31 01:24:54.3	98.200	-0.250	-0.460	1.870
2020/01/31 01:24:54.4	98.210	-0.220	-0.440	1.910
2020/01/31 01:24:54.5	98.220	-0.190	-0.420	1.950
2020/01/31 01:24:54.6	98.230	-0.160	-0.410	1.980
2020/01/31 01:24:54.7	98.230	-0.130	-0.390	2.010
2020/01/31 01:24:54.8	98.240	-0.090	-0.370	2.040
2020/01/31 01:24:54.9	98.250	-0.060	-0.360	2.070
2020/01/31 01:24:55.0	98.250	-0.020	-0.340	2.090
2020/01/31 01:24:55.1	98.250	0.020	-0.330	2.110
2020/01/31 01:24:55.2	98.260	0.050	-0.320	2.130
2020/01/31 01:24:55.3	98.270	0.090	-0.310	2.150
2020/01/31 01:24:55.4	98.270	0.130	-0.300	2.160
2020/01/31 01:24:55.5	98.280	0.160	-0.290	2.180
2020/01/31 01:24:55.6	98.280	0.200	-0.290	2.190
2020/01/31 01:24:55.7	98.280	0.240	-0.290	2.200
2020/01/31 01:24:55.8	98.280	0.270	-0.290	2.210
2020/01/31 01:24:55.9	98.290	0.300	-0.290	2.220
2020/01/31 01:24:56.0	98.270	0.330	-0.290	2.220
2020/01/31 01:24:56.1	98.270	0.360	-0.290	2.220
2020/01/31 01:24:56.2	98.270	0.390	-0.300	2.230
2020/01/31 01:24:56.3	98.270	0.410	-0.310	2.230
2020/01/31 01:24:56.4	98.260	0.440	-0.310	2.230
2020/01/31 01:24:56.5	98.250	0.460	-0.320	2.230
2020/01/31 01:24:56.6	98.250	0.480	-0.330	2.230
2020/01/31 01:24:56.7	98.240	0.490	-0.340	2.230
2020/01/31 01:24:56.8	98.230	0.500	-0.350	2.230
2020/01/31 01:24:56.9	98.220	0.510	-0.350	2.220
2020/01/31 01:24:57.0	98.210	0.520	-0.360	2.210
2020/01/31 01:24:57.1	98.200	0.520	-0.370	2.200
2020/01/31 01:24:57.2	98.190	0.530	-0.370	2.190
2020/01/31 01:24:57.3	98.180	0.520	-0.380	2.170
2020/01/31 01:24:57.4	98.170	0.520	-0.380	2.150
2020/01/31 01:24:57.5	98.160	0.510	-0.380	2.130
2020/01/31 01:24:57.6	98.150	0.500	-0.380	2.110
2020/01/31 01:24:57.7	98.140	0.490	-0.380	2.080
2020/01/31 01:24:57.8	98.130	0.480	-0.370	2.040
2020/01/31 01:24:57.9	98.120	0.460	-0.360	2.000
2020/01/31 01:24:58.0	98.110	0.440	-0.350	1.960
2020/01/31 01:24:58.1	98.110	0.420	-0.340	1.920
2020/01/31 01:24:58.2	98.100	0.400	-0.320	1.860
2020/01/31 01:24:58.3	98.100	0.380	-0.310	1.810
2020/01/31 01:24:58.4	98.100	0.350	-0.290	1.750
2020/01/31 01:24:58.5	98.110	0.320	-0.260	1.680
2020/01/31 01:24:58.6	98.110	0.290	-0.240	1.620
2020/01/31 01:24:58.7	98.120	0.270	-0.210	1.550
2020/01/31 01:24:58.8	98.130	0.240	-0.190	1.470
2020/01/31 01:24:58.9	98.130	0.210	-0.160	1.400
2020/01/31 01:24:59.0	98.130	0.170	-0.120	1.310
2020/01/31 01:24:59.1	98.140	0.140	-0.090	1.240
2020/01/31 01:24:59.2	98.150	0.110	-0.060	1.160
2020/01/31 01:24:59.3	98.170	0.080	-0.020	1.080
2020/01/31 01:24:59.4	98.180	0.050	0.020	1.000
2020/01/31 01:24:59.5	98.190	0.020	0.050	0.920
2020/01/31 01:24:59.6	98.200	-0.010	0.090	0.840
2020/01/31 01:24:59.7	98.200	-0.040	0.130	0.770
2020/01/31 01:24:59.8	98.210	-0.070	0.170	0.700
2020/01/31 01:24:59.9	98.220	-0.090	0.200	0.630
2020/01/31 01:25:00.0	98.230	-0.120	0.240	0.560
2020/01/31 01:25:00.1	98.230	-0.150	0.280	0.500
2020/01/31 01:25:00.2	98.230	-0.170	0.320	0.440
2020/01/31 01:25:00.3	98.240	-0.200	0.350	0.380
2020/01/31 01:25:00.4	98.240	-0.220	0.380	0.320
2020/01/31 01:25:00.5	98.240	-0.240	0.420	0.270
2020/01/31 01:25:00.6	98.240	-0.260	0.450	0.220
2020/01/31 01:25:00.7	98.240	-0.280	0.470	0.170
2020/01/31 01:25:00.8	98.240	-0.300	0.500	0.130
2020/01/31 01:25:00.9	98.240	-0.310	0.520	0.080
2020/01/31 01:25:01.0	98.240	-0.320	0.540	0.040
2020/01/31 01:25:01.1	98.240	-0.340	0.550	0.010
2020/01/31 01:25:01.2	98.240	-0.350	0.560	-0.030
2020/01/31 01:25:01.3	98.240	-0.360	0.570	-0.060
2020/01/31 01:25:01.4	98.240	-0.360	0.570	-0.090
2020/01/31 01:25:01.5	98.240	-0.370	0.570	-0.120
2020/01/31 01:25:01.6	98.240	-0.370	0.570	-0.150
2020/01/31 01:25:01.7	98.240	-0.380	0.560	-0.170
2020/01/31 01:25:01.8	98.250	-0.380	0.540	-0.200
2020/01/31 01:25:01.9	98.250	-0.370	0.520	-0.220
2020/01/31 01:25:02.0	98.260	-0.370	0.500	-0.240
2020/01/31 01:25:02.1	98.260	-0.360	0.470	-0.260
2020/01/31 01:25:02.2	98.260	-0.360	0.430	-0.270
2020/01/31 01:25:02.3	98.270	-0.350	0.390	-0.290
2020/01/31 01:25:02.4	98.280	-0.340	0.350	-0.310
2020/01/31 01:25:02.5	98.290	-0.320	0.300	-0.320
2020/01/31 01:25:02.6	98.300	-0.310	0.250	-0.340
2020/01/31 01:25:02.7	98.310	-0.290	0.190	-0.350
2020/01/31 01:25:02.8	98.320	-0.280	0.130	-0.360
2020/01/31 01:25:02.9	98.330	-0.260	0.070	-0.370
2020/01/31 01:25:03.0	98.340	-0.240	0.000	-0.390
2020/01/31 01:25:03.1	98.350	-0.220	-0.070	-0.400
2020/01/31 01:25:03.2	98.370	-0.200	-0.130	-0.410
2020/01/31 01:25:03.3	98.390	-0.170	-0.200	-0.410
2020/01/31 01:25:03.4	98.410	-0.150	-0.270	-0.420
2020/01/31 01:25:03.5	98.430	-0.130	-0.340	-0.430
2020/01/31 01:25:03.6	98.450	-0.110	-0.410	-0.430
2020/01/31 01:25:03.7	98.480	-0.080	-0.480	-0.440
2020/01/31 01:25:03.8	98.510	-0.060	-0.550	-0.430
2020/01/31 01:25:03.9	98.530	-0.040	-0.610	-0.430
2020/01/31 01:25:04.0	98.580	-0.020	-0.680	-0.430
2020/01/31 01:25:04.1	98.610	0.000	-0.740	-0.420
2020/01/31 01:25:04.2	98.640	0.020	-0.790	-0.400
2020/01/31 01:25:04.3	98.670	0.040	-0.840	-0.380
2020/01/31 01:25:04.4	98.690	0.050	-0.890	-0.360
2020/01/31 01:25:04.5	98.720	0.070	-0.920	-0.340
2020/01/31 01:25:04.6	98.750	0.080	-0.960	-0.310
2020/01/31 01:25:04.7	98.780	0.100	-0.990	-0.270
2020/01/31 01:25:04.8	98.810	0.110	-1.010	-0.230
2020/01/31 01:25:04.9	98.840	0.120	-1.030	-0.190
2020/01/31 01:25:05.0	98.870	0.120	-1.040	-0.140
2020/01/31 01:25:05.1	98.900	0.130	-1.040	-0.090
2020/01/31 01:25:05.2	98.920	0.130	-1.040	-0.030
2020/01/31 01:25:05.3	98.940	0.140	-1.030	0.030
2020/01/31 01:25:05.4	98.970	0.140	-1.010	0.090
2020/01/31 01:25:05.5	98.990	0.140	-0.990	0.160
2020/01/31 01:25:05.6	99.010	0.130	-0.960	0.230
2020/01/31 01:25:05.7	99.020	0.130	-0.930	0.300
2020/01/31 01:25:05.8	99.040	0.120	-0.890	0.370
2020/01/31 01:25:05.9	99.050	0.120	-0.840	0.450
2020/01/31 01:25:06.0	99.050	0.110	-0.790	0.520
2020/01/31 01:25:06.1	99.060	0.100	-0.740	0.600
2020/01/31 01:25:06.2	99.070	0.090	-0.690	0.680
2020/01/31 01:25:06.3	99.080	0.070	-0.630	0.760
2020/01/31 01:25:06.4	99.090	0.060	-0.570	0.840
2020/01/31 01:25:06.5	99.090	0.050	-0.500	0.930
2020/01/31 01:25:06.6	99.100	0.030	-0.440	1.010
2020/01/31 01:25:06.7	99.100	0.020	-0.370	1.090
2020/01/31 01:25:06.8	99.110	0.000	-0.310	1.170
2020/01/31 01:25:06.9	99.110	-0.010	-0.240	1.260
2020/01/31 01:25:07.0	99.120	-0.030	-0.170	1.340
2020/01/31 01:25:07.1	99.120	-0.040	-0.110	1.420
2020/01/31 01:25:07.2	99.120	-0.060	-0.050	1.500
2020/01/31 01:25:07.3	99.120	-0.070	0.010	1.570
2020/01/31 01:25:07.4	99.120	-0.090	0.070	1.650
2020/01/31 01:25:07.5	99.120	-0.100	0.130	1.730
2020/01/31 01:25:07.6	99.110	-0.120	0.180	1.800
2020/01/31 01:25:07.7	99.110	-0.130	0.230	1.870
2020/01/31 01:25:07.8	99.110	-0.140	0.280	1.940
2020/01/31 01:25:07.9	99.100	-0.150	0.330	2.010
2020/01/31 01:25:08.0	99.090	-0.160	0.370	2.070
2020/01/31 01:25:08.1	99.080	-0.170	0.410	2.140
2020/01/31 01:25:08.2	99.080	-0.170	0.440	2.200
2020/01/31 01:25:08.3	99.070	-0.180	0.470	2.260
2020/01/31 01:25:08.4	99.060	-0.180	0.490	2.310
2020/01/31 01:25:08.5	99.050	-0.190	0.510	2.360
2020/01/31 01:25:08.6	99.050	-0.190	0.530	2.410
2020/01/31 01:25:08.7	99.040	-0.180	0.540	2.460
2020/01/31 01:25:08.8	99.030	-0.180	0.550	2.500
2020/01/31 01:25:08.9	99.020	-0.180	0.550	2.540
2020/01/31 01:25:09.0	99.010	-0.170	0.550	2.570
2020/01/31 01:25:09.1	99.000	-0.160	0.550	2.600
2020/01/31 01:25:09.2	98.990	-0.150	0.530	2.620
2020/01/31 01:25:09.3	98.980	-0.130	0.520	2.650
2020/01/31 01:25:09.4	98.970	-0.120	0.500	2.660
2020/01/31 01:25:09.5	98.960	-0.100	0.480	2.670
2020/01/31 01:25:09.6	98.950	-0.080	0.450	2.680
2020/01/31 01:25:09.7	98.950	-0.060	0.420	2.690
2020/01/31 01:25:09.8	98.940	-0.040	0.380	2.680
2020/01/31 01:25:09.9	98.930	-0.010	0.340	2.680
2020/01/31 01:25:10.0	98.920	0.010	0.300	2.670
2020/01/31 01:25:10.1	98.920	0.040	0.260	2.650
2020/01/31 01:25:10.2	98.910	0.070	0.210	2.630
2020/01/31 01:25:10.3	98.910	0.100	0.160	2.610
2020/01/31 01:25:10.4	98.910	0.130	0.100	2.580
2020/01/31 01:25:10.5	98.900	0.160	0.050	2.550
2020/01/31 01:25:10.6	98.900	0.190	-0.010	2.510
2020/01/31 01:25:10.7	98.900	0.230	-0.060	2.470
2020/01/31 01:25:10.8	98.900	0.260	-0.120	2.430
2020/01/31 01:25:10.9	98.900	0.290	-0.180	2.380
2020/01/31 01:25:11.0	98.920	0.320	-0.240	2.320
2020/01/31 01:25:11.1	98.920	0.350	-0.300	2.260
2020/01/31 01:25:11.2	98.930	0.380	-0.350	2.200
2020/01/31 01:25:11.3	98.940	0.410	-0.400	2.140
2020/01/31 01:25:11.4	98.950	0.430	-0.450	2.070
2020/01/31 01:25:11.5	98.960	0.460	-0.500	2.000
2020/01/31 01:25:11.6	98.970	0.480	-0.550	1.930
2020/01/31 01:25:11.7	98.980	0.490	-0.590	1.860
2020/01/31 01:25:11.8	98.990	0.510	-0.620	1.780
2020/01/31 01:25:11.9	99.010	0.520	-0.660	1.710
2020/01/31 01:25:12.0	99.010	0.530	-0.690	1.630
2020/01/31 01:25:12.1	99.030	0.540	-0.710	1.560
2020/01/31 01:25:12.2	99.050	0.540	-0.730	1.480
2020/01/31 01:25:12.3	99.070	0.540	-0.740	1.400
2020/01/31 01:25:12.4	99.090	0.540	-0.750	1.320
2020/01/31 01:25:12.5	99.110	0.530	-0.750	1.240
2020/01/31 01:25:12.6	99.130	0.520	-0.750	1.160
2020/01/31 01:25:12.7	99.150	0.500	-0.740	1.090
2020/01/31 01:25:12.8	99.180	0.480	-0.730	1.010
2020/01/31 01:25:12.9	99.200	0.460	-0.710	0.940
2020/01/31 01:25:13.0	99.210	0.440	-0.680	0.860
2020/01/31 01:25:13.1	99.230	0.410	-0.660	0.790
2020/01/31 01:25:13.2	99.250	0.380	-0.620	0.720
2020/01/31 01:25:13.3	99.270	0.350	-0.590	0.660
2020/01/31 01:25:13.4	99.290	0.310	-0.550	0.600
2020/01/31 01:25:13.5	99.310	0.270	-0.500	0.550
2020/01/31 01:25:13.6	99.330	0.230	-0.460	0.500
2020/01/31 01:25:13.7	99.340	0.190	-0.410	0.450
2020/01/31 01:25:13.8	99.360	0.150	-0.350	0.410
2020/01/31 01:25:13.9	99.370	0.100	-0.300	0.370
2020/01/31 01:25:14.0	99.370	0.060	-0.240	0.340
2020/01/31 01:25:14.1	99.380	0.010	-0.180	0.310
2020/01/31 01:25:14.2	99.380	-0.030	-0.120	0.290
2020/01/31 01:25:14.3	99.390	-0.080	-0.060	0.270
2020/01/31 01:25:14.4	99.400	-0.130	-0.010	0.260
2020/01/31 01:25:14.5	99.400	-0.170	0.050	0.250
2020/01/31 01:25:14.6	99.400	-0.220	0.110	0.240
2020/01/31 01:25:14.7	99.400	-0.260	0.160	0.250
2020/01/31 01:25:14.8	99.400	-0.300	0.220	0.250
2020/01/31 01:25:14.9	99.400	-0.340	0.270	0.260
2020/01/31 01:25:15.0	99.410	-0.380	0.320	0.270
2020/01/31 01:25:15.1	99.400	-0.420	0.360	0.290
2020/01/31 01:25:15.2	99.400	-0.460	0.400	0.310
2020/01/31 01:25:15.3	99.400	-0.490	0.440	0.320
2020/01/31 01:25:15.4	99.400	-0.520	0.470	0.350
2020/01/31 01:25:15.5	99.400	-0.540	0.490	0.370
2020/01/31 01:25:15.6	99.400	-0.570	0.510	0.400
2020/01/31 01:25:15.7	99.400	-0.590	0.520	0.420
2020/01/31 01:25:15.8	99.400	-0.600	0.520	0.450
2020/01/31 01:25:15.9	99.400	-0.620	0.520	0.480
2020/01/31 01:25:16.0	99.410	-0.630	0.510	0.500
2020/01/31 01:25:16.1	99.410	-0.630	0.490	0.530
2020/01/31 01:25:16.2	99.410	-0.630	0.470	0.570
2020/01/31 01:25:16.3	99.410	-0.630	0.440	0.600
2020/01/31 01:25:16.4	99.400	-0.620	0.400	0.630
2020/01/31 01:25:16.5	99.400	-0.610	0.360	0.660
2020/01/31 01:25:16.6	99.390	-0.600	0.310	0.700
2020/01/31 01:25:16.7	99.390	-0.580	0.260	0.730
2020/01/31 01:25:16.8	99.380	-0.560	0.200	0.770
2020/01/31 01:25:16.9	99.370	-0.540	0.130	0.810
2020/01/31 01:25:17.0	99.360	-0.510	0.060	0.850
2020/01/31 01:25:17.1	99.350	-0.480	-0.010	0.890
2020/01/31 01:25:17.2	99.330	-0.450	-0.090	0.930
2020/01/31 01:25:17.3	99.310	-0.410	-0.160	0.980
2020/01/31 01:25:17.4	99.290	-0.380	-0.240	1.020
2020/01/31 01:25:17.5	99.270	-0.340	-0.320	1.070
2020/01/31 01:25:17.6	99.250	-0.300	-0.400	1.120
2020/01/31 01:25:17.7	99.230	-0.260	-0.480	1.160
2020/01/31 01:25:17.8	99.200	-0.220	-0.560	1.210
2020/01/31 01:25:17.9	99.180	-0.180	-0.640	1.260
2020/01/31 01:25:18.0	99.170	-0.130	-0.710	1.310
2020/01/31 01:25:18.1	99.150	-0.090	-0.780	1.360
2020/01/31 01:25:18.2	99.120	-0.050	-0.840	1.410
2020/01/31 01:25:18.3	99.090	-0.010	-0.900	1.460
2020/01/31 01:25:18.4	99.070	0.030	-0.950	1.500
2020/01/31 01:25:18.5	99.040	0.060	-1.000	1.550
2020/01/31 01:25:18.6	99.020	0.100	-1.040	1.600
2020/01/31 01:25:18.7	99.000	0.130	-1.070	1.640
2020/01/31 01:25:18.8	98.980	0.160	-1.090	1.680
2020/01/31 01:25:18.9	98.960	0.190	-1.100	1.720
2020/01/31 01:25:19.0	98.920	0.220	-1.110	1.760
2020/01/31 01:25:19.1	98.900	0.240	-1.100	1.800
2020/01/31 01:25:19.2	98.890	0.260	-1.090	1.830
2020/01/31 01:25:19.3	98.870	0.280	-1.070	1.860
2020/01/31 01:25:19.4	98.860	0.300	-1.040	1.880
2020/01/31 01:25:19.5	98.850	0.310	-1.000	1.910
2020/01/31 01:25:19.6	98.850	0.320	-0.960	1.930
2020/01/31 01:25:19.7	98.840	0.330	-0.910	1.940
2020/01/31 01:25:19.8	98.840	0.330	-0.850	1.950
2020/01/31 01:25:19.9	98.840	0.330	-0.780	1.960
2020/01/31 01:25:20.0	98.850	0.330	-0.710	1.960
2020/01/31 01:25:20.1	98.850	0.330	-0.630	1.960
2020/01/31 01:25:20.2	98.860	0.320	-0.550	1.950
2020/01/31 01:25:20.3	98.870	0.310	-0.470	1.940
2020/01/31 01:25:20.4	98.890	0.300	-0.380	1.920
2020/01/31 01:25:20.5	98.900	0.290	-0.290	1.900
2020/01/31 01:25:20.6	98.920	0.280	-0.200	1.880
2020/01/31 01:25:20.7	98.940	0.260	-0.110	1.850
2020/01/31 01:25:20.8	98.960	0.240	-0.020	1.810
2020/01/31 01:25:20.9	98.990	0.220	0.070	1.780
2020/01/31 01:25:21.0	98.990	0.200	0.170	1.730
2020/01/31 01:25:21.1	99.020	0.180	0.250	1.690
2020/01/31 01:25:21.2	99.050	0.160	0.340	1.640
2020/01/31 01:25:21.3	99.080	0.140	0.420	1.590
2020/01/31 01:25:21.4	99.100	0.110	0.500	1.540
2020/01/31 01:25:21.5	99.130	0.090	0.570	1.490
2020/01/31 01:25:21.6	99.160	0.070	0.640	1.430
2020/01/31 01:25:21.7	99.190	0.040	0.700	1.370
2020/01/31 01:25:21.8	99.210	0.020	0.760	1.320
2020/01/31 01:25:21.9	99.240	-0.000	0.810	1.260
2020/01/31 01:25:22.0	99.240	-0.020	0.860	1.200
2020/01/31 01:25:22.1	99.260	-0.050	0.900	1.140
2020/01/31 01:25:22.2	99.280	-0.070	0.930	1.080
2020/01/31 01:25:22.3	99.300	-0.080	0.950	1.020
2020/01/31 01:25:22.4	99.320	-0.100	0.970	0.970
2020/01/31 01:25:22.5	99.340	-0.120	0.980	0.920
2020/01/31 01:25:22.6	99.350	-0.130	0.980	0.870
2020/01/31 01:25:22.7	99.360	-0.150	0.970	0.820
2020/01/31 01:25:22.8	99.370	-0.160	0.950	0.770
2020/01/31 01:25:22.9	99.380	-0.160	0.930	0.730
2020/01/31 01:25:23.0	99.380	-0.170	0.900	0.690
2020/01/31 01:25:23.1	99.380	-0.170	0.860	0.650
2020/01/31 01:25:23.2	99.390	-0.180	0.810	0.610
2020/01/31 01:25:23.3	99.390	-0.170	0.750	0.580
2020/01/31 01:25:23.4	99.390	-0.170	0.690	0.550
2020/01/31 01:25:23.5	99.390	-0.170	0.620	0.520
2020/01/31 01:25:23.6	99.390	-0.160	0.550	0.500
2020/01/31 01:25:23.7	99.380	-0.150	0.470	0.480
2020/01/31 01:25:23.8	99.380	-0.140	0.390	0.460
2020/01/31 01:25:23.9	99.380	-0.120	0.300	0.440
2020/01/31 01:25:24.0	99.380	-0.100	0.210	0.430
2020/01/31 01:25:24.1	99.370	-0.080	0.110	0.420
2020/01/31 01:25:24.2	99.370	-0.060	0.020	0.410
2020/01/31 01:25:24.3	99.360	-0.040	-0.080	0.400
2020/01/31 01:25:24.4	99.350	-0.020	-0.180	0.400
2020/01/31 01:25:24.5	99.340	0.010	-0.280	0.400
2020/01/31 01:25:24.6	99.330	0.040	-0.370	0.400
2020/01/31 01:25:24.7	99.320	0.060	-0.470	0.400
2020/01/31 01:25:24.8	99.310	0.090	-0.560	0.410
2020/01/31 01:25:24.9	99.300	0.120	-0.660	0.420
2020/01/31 01:25:25.0	99.300	0.150	-0.750	0.430
2020/01/31 01:25:25.1	99.280	0.180	-0.830	0.440
2020/01/31 01:25:25.2	99.270	0.200	-0.910	0.460
2020/01/31 01:25:25.3	99.260	0.230	-0.990	0.480
2020/01/31 01:25:25.4	99.240	0.260	-1.060	0.500
2020/01/31 01:25:25.5	99.230	0.280	-1.120	0.530
2020/01/31 01:25:25.6	99.210	0.310	-1.180	0.550
2020/01/31 01:25:25.7	99.190	0.330	-1.230	0.580
2020/01/31 01:25:25.8	99.180	0.350	-1.270	0.610
2020/01/31 01:25:25.9	99.160	0.360	-1.300	0.640
2020/01/31 01:25:26.0	99.170	0.380	-1.330	0.670
2020/01/31 01:25:26.1	99.150	0.390	-1.350	0.700
2020/01/31 01:25:26.2	99.140	0.400	-1.350	0.730
2020/01/31 01:25:26.3	99.130	0.400	-1.350	0.760
2020/01/31 01:25:26.4	99.120	0.410	-1.340	0.790
2020/01/31 01:25:26.5	99.110	0.410	-1.330	0.830
2020/01/31 01:25:26.6	99.100	0.400	-1.300	0.860
2020/01/31 01:25:26.7	99.090	0.390	-1.260	0.880
2020/01/31 01:25:26.8	99.090	0.380	-1.220	0.910
2020/01/31 01:25:26.9	99.080	0.370	-1.160	0.940
2020/01/31 01:25:27.0	99.080	0.350	-1.100	0.970
2020/01/31 01:25:27.1	99.080	0.330	-1.030	0.990
2020/01/31 01:25:27.2	99.080	0.310	-0.960	1.020
2020/01/31 01:25:27.3	99.090	0.280	-0.880	1.040
2020/01/31 01:25:27.4	99.090	0.250	-0.800	1.060
2020/01/31 01:25:27.5	99.100	0.220	-0.710	1.080
2020/01/31 01:25:27.6	99.120	0.180	-0.620	1.100
2020/01/31 01:25:27.7	99.130	0.150	-0.520	1.110
2020/01/31 01:25:27.8	99.140	0.110	-0.430	1.130
2020/01/31 01:25:27.9	99.160	0.070	-0.330	1.140
2020/01/31 01:25:28.0	99.180	0.030	-0.230	1.150
2020/01/31 01:25:28.1	99.200	-0.010	-0.130	1.170
2020/01/31 01:25:28.2	99.220	-0.050	-0.030	1.180
2020/01/31 01:25:28.3	99.240	-0.090	0.060	1.190
2020/01/31 01:25:28.4	99.260	-0.130	0.150	1.200
2020/01/31 01:25:28.5	99.280	-0.170	0.240	1.210
2020/01/31 01:25:28.6	99.310	-0.210	0.320	1.220
2020/01/31 01:25:28.7	99.330	-0.250	0.400	1.220
2020/01/31 01:25:28.8	99.360	-0.290	0.470	1.230
2020/01/31 01:25:28.9	99.380	-0.330	0.540	1.240
2020/01/31 01:25:29.0	99.420	-0.360	0.600	1.250
2020/01/31 01:25:29.1	99.440	-0.390	0.650	1.250
2020/01/31 01:25:29.2	99.470	-0.420	0.700	1.260
2020/01/31 01:25:29.3	99.490	-0.440	0.740	1.260
2020/01/31 01:25:29.4	99.520	-0.470	0.770	1.270
2020/01/31 01:25:29.5	99.540	-0.490	0.790	1.280
2020/01/31 01:25:29.6	99.560	-0.500	0.800	1.280
2020/01/31 01:25:29.7	99.590	-0.520	0.810	1.290
2020/01/31 01:25:29.8	99.610	-0.530	0.810	1.300
2020/01/31 01:25:29.9	99.630	-0.540	0.800	1.300
2020/01/31 01:25:30.0	99.640	-0.540	0.780	1.310
2020/01/31 01:25:30.1	99.660	-0.540	0.750	1.320
2020/01/31 01:25:30.2	99.680	-0.540	0.720	1.330
2020/01/31 01:25:30.3	99.700	-0.530	0.680	1.330
2020/01/31 01:25:30.4	99.720	-0.520	0.640	1.340
2020/01/31 01:25:30.5	99.730	-0.510	0.590	1.350
2020/01/31 01:25:30.6	99.750	-0.500	0.540	1.350
2020/01/31 01:25:30.7	99.770	-0.480	0.480	1.360
2020/01/31 01:25:30.8	99.790	-0.460	0.420	1.360
2020/01/31 01:25:30.9	99.810	-0.440	0.360	1.360
2020/01/31 01:25:31.0	99.810	-0.420	0.290	1.360
2020/01/31 01:25:31.1	99.830	-0.390	0.220	1.360
2020/01/31 01:25:31.2	99.840	-0.360	0.150	1.360
2020/01/31 01:25:31.3	99.860	-0.330	0.080	1.360
2020/01/31 01:25:31.4	99.870	-0.300	0.020	1.360
2020/01/31 01:25:31.5	99.880	-0.270	-0.050	1.360
2020/01/31 01:25:31.6	99.890	-0.240	-0.120	1.360
2020/01/31 01:25:31.7	99.900	-0.210	-0.180	1.360
2020/01/31 01:25:31.8	99.910	-0.170	-0.240	1.360
2020/01/31 01:25:31.9	99.920	-0.140	-0.300	1.360
2020/01/31 01:25:32.0	99.920	-0.110	-0.360	1.370
2020/01/31 01:25:32.1	99.930	-0.070	-0.410	1.370
2020/01/31 01:25:32.2	99.930	-0.040	-0.450	1.370
2020/01/31 01:25:32.3	99.930	-0.010	-0.500	1.370
2020/01/31 01:25:32.4	99.930	0.020	-0.530	1.370
2020/01/31 01:25:32.5	99.930	0.050	-0.570	1.380
2020/01/31 01:25:32.6	99.920	0.080	-0.600	1.380
2020/01/31 01:25:32.7	99.920	0.110	-0.620	1.390
2020/01/31 01:25:32.8	99.910	0.130	-0.640	1.390
2020/01/31 01:25:32.9	99.900	0.160	-0.650	1.400
2020/01/31 01:25:33.0	99.900	0.180	-0.660	1.400
2020/01/31 01:25:33.1	99.890	0.200	-0.660	1.410
2020/01/31 01:25:33.2	99.880	0.220	-0.660	1.410
2020/01/31 01:25:33.3	99.870	0.240	-0.650	1.420
2020/01/31 01:25:33.4	99.860	0.250	-0.640	1.420
2020/01/31 01:25:33.5	99.850	0.270	-0.630	1.420
2020/01/31 01:25:33.6	99.840	0.280	-0.610	1.420
2020/01/31 01:25:33.7	99.830	0.290	-0.590	1.420
2020/01/31 01:25:33.8	99.820	0.290	-0.560	1.420
2020/01/31 01:25:33.9	99.820	0.300	-0.540	1.420
2020/01/31 01:25:34.0	99.820	0.300	-0.500	1.410
2020/01/31 01:25:34.1	99.810	0.300	-0.470	1.400
2020/01/31 01:25:34.2	99.810	0.300	-0.440	1.390
2020/01/31 01:25:34.3	99.810	0.300	-0.400	1.380
2020/01/31 01:25:34.4	99.810	0.300	-0.370	1.360
2020/01/31 01:25:34.5	99.810	0.290	-0.330	1.340
2020/01/31 01:25:34.6	99.810	0.290	-0.300	1.320
2020/01/31 01:25:34.7	99.820	0.280	-0.270	1.290
2020/01/31 01:25:34.8	99.830	0.270	-0.230	1.270
2020/01/31 01:25:34.9	99.830	0.260	-0.200	1.240
2020/01/31 01:25:35.0	99.840	0.250	-0.170	1.210
2020/01/31 01:25:35.1	99.850	0.250	-0.140	1.180
2020/01/31 01:25:35.2	99.860	0.240	-0.120	1.150
2020/01/31 01:25:35.3	99.880	0.230	-0.100	1.120
2020/01/31 01:25:35.4	99.890	0.220	-0.080	1.080
2020/01/31 01:25:35.5	99.900	0.210	-0.060	1.050
2020/01/31 01:25:35.6	99.920	0.200	-0.040	1.010
2020/01/31 01:25:35.7	99.930	0.190	-0.030	0.980
2020/01/31 01:25:35.8	99.940	0.180	-0.020	0.940
2020/01/31 01:25:35.9	99.960	0.170	-0.010	0.910
2020/01/31 01:25:36.0	99.970	0.160	0.000	0.870
2020/01/31 01:25:36.1	99.990	0.160	0.010	0.840
2020/01/31 01:25:36.2	100.000	0.150	0.010	0.810
2020/01/31 01:25:36.3	100.010	0.140	0.010	0.780
2020/01/31 01:25:36.4	100.030	0.140	0.010	0.750
2020/01/31 01:25:36.5	100.040	0.130	0.010	0.730
2020/01/31 01:25:36.6	100.050	0.130	0.010	0.700
2020/01/31 01:25:36.7	100.060	0.120	0.010	0.680
2020/01/31 01:25:36.8	100.070	0.120	0.000	0.660
2020/01/31 01:25:36.9	100.080	0.110	0.000	0.640
2020/01/31 01:25:37.0	100.100	0.110	-0.010	0.620
2020/01/31 01:25:37.1	100.110	0.110	-0.010	0.600
2020/01/31 01:25:37.2	100.120	0.100	-0.020	0.590
2020/01/31 01:25:37.3	100.130	0.100	-0.020	0.570
2020/01/31 01:25:37.4	100.140	0.100	-0.030	0.560
2020/01/31 01:25:37.5	100.150	0.090	-0.040	0.550
2020/01/31 01:25:37.6	100.160	0.090	-0.050	0.540
2020/01/31 01:25:37.7	100.170	0.080	-0.060	0.530
2020/01/31 01:25:37.8	100.180	0.080	-0.060	0.520
2020/01/31 01:25:37.9	100.200	0.070	-0.070	0.520
2020/01/31 01:25:38.0	100.200	0.060	-0.080	0.510
2020/01/31 01:25:38.1	100.210	0.060	-0.090	0.510
2020/01/31 01:25:38.2	100.230	0.050	-0.100	0.510
2020/01/31 01:25:38.3	100.240	0.040	-0.110	0.510
2020/01/31 01:25:38.4	100.250	0.030	-0.120	0.510
2020/01/31 01:25:38.5	100.270	0.020	-0.130	0.510
2020/01/31 01:25:38.6	100.290	0.010	-0.140	0.510
2020/01/31 01:25:38.7	100.300	-0.010	-0.150	0.520
2020/01/31 01:25:38.8	100.320	-0.020	-0.160	0.530
2020/01/31 01:25:38.9	100.340	-0.030	-0.170	0.530
2020/01/31 01:25:39.0	100.340	-0.050	-0.180	0.550
2020/01/31 01:25:39.1	100.360	-0.060	-0.190	0.560
2020/01/31 01:25:39.2	100.380	-0.070	-0.200	0.570
2020/01/31 01:25:39.3	100.390	-0.090	-0.210	0.590
2020/01/31 01:25:39.4	100.410	-0.100	-0.220	0.610
2020/01/31 01:25:39.5	100.430	-0.120	-0.230	0.630
2020/01/31 01:25:39.6	100.450	-0.130	-0.240	0.650
2020/01/31 01:25:39.7	100.460	-0.150	-0.240	0.680
2020/01/31 01:25:39.8	100.480	-0.160	-0.250	0.710
2020/01/31 01:25:39.9	100.500	-0.180	-0.250	0.740
2020/01/31 01:25:40.0	100.510	-0.190	-0.250	0.770
2020/01/31 01:25:40.1	100.530	-0.210	-0.260	0.800
2020/01/31 01:25:40.2	100.540	-0.220	-0.260	0.840
2020/01/31 01:25:40.3	100.560	-0.230	-0.250	0.880
2020/01/31 01:25:40.4	100.570	-0.240	-0.250	0.920
2020/01/31 01:25:40.5	100.580	-0.250	-0.250	0.970
2020/01/31 01:25:40.6	100.590	-0.260	-0.240	1.010
2020/01/31 01:25:40.7	100.590	-0.270	-0.230	1.060
2020/01/31 01:25:40.8	100.600	-0.280	-0.230	1.110
2020/01/31 01:25:40.9	100.610	-0.280	-0.220	1.160
2020/01/31 01:25:41.0	100.600	-0.290	-0.210	1.210
2020/01/31 01:25:41.1	100.600	-0.290	-0.200	1.270
2020/01/31 01:25:41.2	100.600	-0.290	-0.180	1.320
2020/01/31 01:25:41.3	100.600	-0.290	-0.170	1.380
2020/01/31 01:25:41.4	100.590	-0.290	-0.150	1.430
2020/01/31 01:25:41.5	100.590	-0.290	-0.140	1.490
2020/01/31 01:25:41.6	100.580	-0.290	-0.120	1.540
2020/01/31 01:25:41.7	100.580	-0.290	-0.110	1.590
2020/01/31 01:25:41.8	100.570	-0.280	-0.090	1.650
2020/01/31 01:25:41.9	100.560	-0.280	-0.070	1.700
2020/01/31 01:25:42.0	100.550	-0.270	-0.050	1.750
2020/01/31 01:25:42.1	100.540	-0.260	-0.030	1.790
2020/01/31 01:25:42.2	100.530	-0.250	-0.020	1.840
2020/01/31 01:25:42.3	100.520	-0.240	-0.000	1.880
2020/01/31 01:25:42.4	100.500	-0.230	0.010	1.920
2020/01/31 01:25:42.5	100.490	-0.220	0.020	1.960
2020/01/31 01:25:42.6	100.480	-0.210	0.030	1.990
2020/01/31 01:25:42.7	100.470	-0.200	0.040	2.020
2020/01/31 01:25:42.8	100.460	-0.180	0.050	2.040
2020/01/31 01:25:42.9	100.450	-0.170	0.050	2.070
2020/01/31 01:25:43.0	100.440	-0.150	0.050	2.080
2020/01/31 01:25:43.1	100.430	-0.140	0.050	2.100
2020/01/31 01:25:43.2	100.420	-0.120	0.050	2.100
2020/01/31 01:25:43.3	100.420	-0.110	0.050	2.110
2020/01/31 01:25:43.4	100.410	-0.090	0.040	2.110
2020/01/31 01:25:43.5	100.410	-0.070	0.030	2.100
2020/01/31 01:25:43.6	100.400	-0.050	0.020	2.100
2020/01/31 01:25:43.7	100.400	-0.030	0.010	2.080
2020/01/31 01:25:43.8	100.400	-0.020	-0.010	2.070
2020/01/31 01:25:43.9	100.400	0.000	-0.030	2.050
2020/01/31 01:25:44.0	100.410	0.020	-0.040	2.020
2020/01/31 01:25:44.1	100.410	0.040	-0.060	2.000
2020/01/31 01:25:44.2	100.420	0.060	-0.090	1.970
2020/01/31 01:25:44.3	100.430	0.080	-0.110	1.930
2020/01/31 01:25:44.4	100.440	0.100	-0.140	1.900
2020/01/31 01:25:44.5	100.450	0.120	-0.170	1.860
2020/01/31 01:25:44.6	100.460	0.140	-0.190	1.810
2020/01/31 01:25:44.7	100.480	0.160	-0.220	1.770
2020/01/31 01:25:44.8	100.490	0.180	-0.250	1.720
2020/01/31 01:25:44.9	100.510	0.200	-0.270	1.670
2020/01/31 01:25:45.0	100.540	0.210	-0.300	1.620
2020/01/31 01:25:45.1	100.560	0.230	-0.320	1.570
2020/01/31 01:25:45.2	100.580	0.250	-0.350	1.510
2020/01/31 01:25:45.3	100.600	0.260	-0.370	1.450
2020/01/31 01:25:45.4	100.620	0.280	-0.390	1.400
2020/01/31 01:25:45.5	100.630	0.290	-0.410	1.340
2020/01/31 01:25:45.6	100.650	0.300	-0.420	1.280
2020/01/31 01:25:45.7	100.670	0.320	-0.430	1.220
2020/01/31 01:25:45.8	100.690	0.330	-0.440	1.150
2020/01/31 01:25:45.9	100.710	0.340	-0.450	1.090
2020/01/31 01:25:46.0	100.730	0.350	-0.450	1.030
2020/01/31 01:25:46.1	100.740	0.360	-0.460	0.970
2020/01/31 01:25:46.2	100.760	0.370	-0.460	0.910
2020/01/31 01:25:46.3	100.780	0.370	-0.460	0.860
2020/01/31 01:25:46.4	100.790	0.380	-0.450	0.800
2020/01/31 01:25:46.5	100.810	0.390	-0.450	0.750
2020/01/31 01:25:46.6	100.820	0.390	-0.440	0.700
2020/01/31 01:25:46.7	100.830	0.390	-0.430	0.650
2020/01/31 01:25:46.8	100.840	0.400	-0.420	0.600
2020/01/31 01:25:46.9	100.840	0.400	-0.400	0.560
2020/01/31 01:25:47.0	100.820	0.400	-0.390	0.520
2020/01/31 01:25:47.1	100.830	0.400	-0.380	0.480
2020/01/31 01:25:47.2	100.830	0.390	-0.360	0.450
2020/01/31 01:25:47.3	100.830	0.390	-0.340	0.420
2020/01/31 01:25:47.4	100.830	0.390	-0.320	0.390
2020/01/31 01:25:47.5	100.820	0.380	-0.300	0.370
2020/01/31 01:25:47.6	100.820	0.380	-0.280	0.340
2020/01/31 01:25:47.7	100.810	0.370	-0.260	0.330
2020/01/31 01:25:47.8	100.800	0.360	-0.230	0.310
2020/01/31 01:25:47.9	100.790	0.350	-0.210	0.300
2020/01/31 01:25:48.0	100.780	0.340	-0.180	0.290
2020/01/31 01:25:48.1	100.770	0.330	-0.160	0.280
2020/01/31 01:25:48.2	100.750	0.310	-0.130	0.280
2020/01/31 01:25:48.3	100.740	0.300	-0.110	0.280
2020/01/31 01:25:48.4	100.720	0.280	-0.090	0.280
2020/01/31 01:25:48.5	100.710	0.260	-0.070	0.280
2020/01/31 01:25:48.6	100.690	0.240	-0.040	0.290
2020/01/31 01:25:48.7	100.670	0.220	-0.020	0.300
2020/01/31 01:25:48.8	100.650	0.200	0.000	0.320
2020/01/31 01:25:48.9	100.630	0.180	0.020	0.330
2020/01/31 01:25:49.0	100.610	0.160	0.040	0.350
2020/01/31 01:25:49.1	100.590	0.130	0.060	0.370
2020/01/31 01:25:49.2	100.570	0.100	0.080	0.390
2020/01/31 01:25:49.3	100.550	0.080	0.100	0.410
2020/01/31 01:25:49.4	100.530	0.050	0.120	0.440
2020/01/31 01:25:49.5	100.520	0.020	0.130	0.460
2020/01/31 01:25:49.6	100.500	-0.010	0.150	0.490
2020/01/31 01:25:49.7	100.490	-0.040	0.160	0.520
2020/01/31 01:25:49.8	100.470	-0.070	0.170	0.550
2020/01/31 01:25:49.9	100.460	-0.100	0.180	0.570
2020/01/31 01:25:50.0	100.450	-0.140	0.190	0.600
2020/01/31 01:25:50.1	100.440	-0.170	0.200	0.630
2020/01/31 01:25:50.2	100.430	-0.200	0.200	0.660
2020/01/31 01:25:50.3	100.420	-0.230	0.200	0.690
2020/01/31 01:25:50.4	100.420	-0.260	0.200	0.720
2020/01/31 01:25:50.5	100.420	-0.290	0.200	0.750
2020/01/31 01:25:50.6	100.420	-0.320	0.190	0.780
2020/01/31 01:25:50.7	100.420	-0.350	0.190	0.810
2020/01/31 01:25:50.8	100.420	-0.380	0.180	0.840
2020/01/31 01:25:50.9	100.430	-0.400	0.160	0.870
2020/01/31 01:25:51.0	100.430	-0.420	0.150	0.900
2020/01/31 01:25:51.1	100.440	-0.450	0.140	0.940
2020/01/31 01:25:51.2	100.450	-0.470	0.120	0.970
2020/01/31 01:25:51.3	100.460	-0.490	0.100	1.000
2020/01/31 01:25:51.4	100.460	-0.500	0.080	1.040
2020/01/31 01:25:51.5	100.470	-0.520	0.050	1.070
2020/01/31 01:25:51.6	100.480	-0.530	0.030	1.110
2020/01/31 01:25:51.7	100.490	-0.540	0.000	1.150
2020/01/31 01:25:51.8	100.500	-0.540	-0.020	1.190
2020/01/31 01:25:51.9	100.510	-0.550	-0.050	1.230
2020/01/31 01:25:52.0	100.530	-0.550	-0.080	1.260
2020/01/31 01:25:52.1	100.540	-0.550	-0.110	1.300
2020/01/31 01:25:52.2	100.550	-0.550	-0.140	1.340
2020/01/31 01:25:52.3	100.560	-0.540	-0.160	1.380
2020/01/31 01:25:52.4	100.570	-0.540	-0.190	1.420
2020/01/31 01:25:52.5	100.570	-0.530	-0.220	1.450
2020/01/31 01:25:52.6	100.580	-0.520	-0.250	1.480
2020/01/31 01:25:52.7	100.590	-0.500	-0.270	1.510
2020/01/31 01:25:52.8	100.600	-0.490	-0.300	1.540
2020/01/31 01:25:52.9	100.610	-0.470	-0.320	1.560
2020/01/31 01:25:53.0	100.630	-0.450	-0.340	1.590
2020/01/31 01:25:53.1	100.640	-0.430	-0.360	1.600
2020/01/31 01:25:53.2	100.660	-0.410	-0.380	1.620
2020/01/31 01:25:53.3	100.670	-0.390	-0.390	1.630
2020/01/31 01:25:53.4	100.680	-0.370	-0.410	1.630
2020/01/31 01:25:53.5	100.690	-0.340	-0.420	1.640
2020/01/31 01:25:53.6	100.700	-0.320	-0.430	1.640
2020/01/31 01:25:53.7	100.710	-0.290	-0.430	1.630
2020/01/31 01:25:53.8	100.720	-0.270	-0.440	1.630
2020/01/31 01:25:53.9	100.730	-0.240	-0.440	1.620
2020/01/31 01:25:54.0	100.750	-0.220	-0.430	1.610
2020/01/31 01:25:54.1	100.760	-0.190	-0.430	1.600
2020/01/31 01:25:54.2	100.760	-0.170	-0.420	1.590
2020/01/31 01:25:54.3	100.770	-0.150	-0.410	1.580
2020/01/31 01:25:54.4	100.770	-0.120	-0.400	1.560
2020/01/31 01:25:54.5	100.770	-0.100	-0.390	1.550
2020/01/31 01:25:54.6	100.770	-0.080	-0.380	1.540
2020/01/31 01:25:54.7	100.770	-0.050	-0.360	1.530
2020/01/31 01:25:54.8	100.770	-0.030	-0.350	1.530
2020/01/31 01:25:54.9	100.760	-0.010	-0.330	1.520
2020/01/31 01:25:55.0	100.750	0.010	-0.310	1.520
2020/01/31 01:25:55.1	100.740	0.030	-0.300	1.520
2020/01/31 01:25:55.2	100.720	0.040	-0.280	1.520
2020/01/31 01:25:55.3	100.700	0.060	-0.260	1.520
2020/01/31 01:25:55.4	100.680	0.080	-0.240	1.530
2020/01/31 01:25:55.5	100.650	0.090	-0.230	1.540
2020/01/31 01:25:55.6	100.620	0.110	-0.210	1.550
2020/01/31 01:25:55.7	100.590	0.120	-0.200	1.560
2020/01/31 01:25:55.8	100.560	0.140	-0.180	1.570
2020/01/31 01:25:55.9	100.530	0.150	-0.170	1.580
2020/01/31 01:25:56.0	100.500	0.160	-0.160	1.590
2020/01/31 01:25:56.1	100.460	0.170	-0.150	1.600
2020/01/31 01:25:56.2	100.430	0.180	-0.140	1.610
2020/01/31 01:25:56.3	100.390	0.190	-0.140	1.620
2020/01/31 01:25:56.4	100.360	0.200	-0.130	1.630
2020/01/31 01:25:56.5	100.320	0.210	-0.120	1.630
2020/01/31 01:25:56.6	100.290	0.220	-0.120	1.630
2020/01/31 01:25:56.7	100.250	0.220	-0.120	1.630
2020/01/31 01:25:56.8	100.220	0.230	-0.110	1.630
2020/01/31 01:25:56.9	100.190	0.240	-0.110	1.620
2020/01/31 01:25:57.0	100.170	0.240	-0.100	1.610
2020/01/31 01:25:57.1	100.140	0.240	-0.100	1.590
2020/01/31 01:25:57.2	100.110	0.250	-0.100	1.570
2020/01/31 01:25:57.3	100.080	0.250	-0.100	1.550
2020/01/31 01:25:57.4	100.060	0.250	-0.100	1.530
2020/01/31 01:25:57.5	100.030	0.260	-0.100	1.500
2020/01/31 01:25:57.6	100.010	0.260	-0.090	1.460
2020/01/31 01:25:57.7	99.990	0.260	-0.090	1.430
2020/01/31 01:25:57.8	99.970	0.260	-0.090	1.390
2020/01/31 01:25:57.9	99.950	0.260	-0.090	1.340
2020/01/31 01:25:58.0	99.930	0.260	-0.090	1.300
2020/01/31 01:25:58.1	99.910	0.260	-0.090	1.250
2020/01/31 01:25:58.2	99.890	0.260	-0.080	1.200
2020/01/31 01:25:58.3	99.880	0.260	-0.080	1.150
2020/01/31 01:25:58.4	99.870	0.260	-0.070	1.090
2020/01/31 01:25:58.5	99.860	0.250	-0.070	1.040
2020/01/31 01:25:58.6	99.850	0.250	-0.060	0.980
2020/01/31 01:25:58.7	99.840	0.250	-0.060	0.920
2020/01/31 01:25:58.8	99.840	0.240	-0.050	0.870
2020/01/31 01:25:58.9	99.830	0.240	-0.050	0.810
2020/01/31 01:25:59.0	99.820	0.230	-0.040	0.750
2020/01/31 01:25:59.1	99.820	0.220	-0.030	0.690
2020/01/31 01:25:59.2	99.820	0.210	-0.020	0.640
2020/01/31 01:25:59.3	99.820	0.210	-0.020	0.580
2020/01/31 01:25:59.4	99.830	0.200	-0.010	0.530
2020/01/31 01:25:59.5	99.830	0.190	-0.010	0.480
2020/01/31 01:25:59.6	99.840	0.180	-0.000	0.420
2020/01/31 01:25:59.7	99.850	0.170	-0.000	0.380
2020/01/31 01:25:59.8	99.860	0.160	-0.000	0.330
2020/01/31 01:25:59.9	99.880	0.150	-0.000	0.280
2020/01/31 01:26:00.0	99.880	0.140	-0.000	0.240
2020/01/31 01:26:00.1	99.900	0.130	-0.000	0.200
2020/01/31 01:26:00.2	99.910	0.120	-0.010	0.160
2020/01/31 01:26:00.3	99.930	0.110	-0.020	0.120
2020/01/31 01:26:00.4	99.950	0.100	-0.030	0.090
2020/01/31 01:26:00.5	99.970	0.090	-0.040	0.060
2020/01/31 01:26:00.6	99.990	0.080	-0.060	0.030
2020/01/31 01:26:00.7	100.000	0.070	-0.080	0.000
2020/01/31 01:26:00.8	100.020	0.060	-0.100	-0.020
2020/01/31 01:26:00.9	100.040	0.050	-0.120	-0.040
2020/01/31 01:26:01.0	100.060	0.050	-0.150	-0.060
2020/01/31 01:26:01.1	100.080	0.040	-0.180	-0.070
2020/01/31 01:26:01.2	100.090	0.040	-0.210	-0.080
2020/01/31 01:26:01.3	100.110	0.030	-0.240	-0.080
2020/01/31 01:26:01.4	100.120	0.030	-0.270	-0.090
2020/01/31 01:26:01.5	100.130	0.030	-0.310	-0.090
2020/01/31 01:26:01.6	100.140	0.030	-0.340	-0.080
2020/01/31 01:26:01.7	100.150	0.030	-0.380	-0.070
2020/01/31 01:26:01.8	100.160	0.030	-0.410	-0.060
2020/01/31 01:26:01.9	100.170	0.030	-0.440	-0.040
2020/01/31 01:26:02.0	100.190	0.040	-0.480	-0.020
2020/01/31 01:26:02.1	100.190	0.040	-0.510	0.000
2020/01/31 01:26:02.2	100.190	0.050	-0.540	0.030
2020/01/31 01:26:02.3	100.200	0.050	-0.560	0.060
2020/01/31 01:26:02.4	100.200	0.060	-0.590	0.090
2020/01/31 01:26:02.5	100.200	0.060	-0.610	0.130
2020/01/31 01:26:02.6	100.200	0.060	-0.620	0.170
2020/01/31 01:26:02.7	100.190	0.070	-0.630	0.210
2020/01/31 01:26:02.8	100.190	0.070	-0.640	0.260
2020/01/31 01:26:02.9	100.190	0.070	-0.640	0.310
2020/01/31 01:26:03.0	100.200	0.070	-0.630	0.360
2020/01/31 01:26:03.1	100.200	0.070	-0.620	0.420
2020/01/31 01:26:03.2	100.190	0.070	-0.600	0.470
2020/01/31 01:26:03.3	100.190	0.070	-0.570	0.530
2020/01/31 01:26:03.4	100.180	0.060	-0.540	0.590
2020/01/31 01:26:03.5	100.170	0.060	-0.500	0.650
2020/01/31 01:26:03.6	100.160	0.050	-0.460	0.710
2020/01/31 01:26:03.7	100.150	0.040	-0.410	0.780
2020/01/31 01:26:03.8	100.140	0.030	-0.360	0.840
2020/01/31 01:26:03.9	100.130	0.010	-0.300	0.910
2020/01/31 01:26:04.0	100.110	-0.000	-0.230	0.980
2020/01/31 01:26:04.1	100.100	-0.020	-0.170	1.050
2020/01/31 01:26:04.2	100.080	-0.040	-0.100	1.120
2020/01/31 01:26:04.3	100.060	-0.060	-0.020	1.190
2020/01/31 01:26:04.4	100.050	-0.080	0.050	1.270
2020/01/31 01:26:04.5	100.030	-0.100	0.130	1.340
2020/01/31 01:26:04.6	100.000	-0.130	0.200	1.420
2020/01/31 01:26:04.7	99.980	-0.150	0.280	1.490
2020/01/31 01:26:04.8	99.960	-0.180	0.350	1.560
2020/01/31 01:26:04.9	99.930	-0.200	0.420	1.630
2020/01/31 01:26:05.0	99.900	-0.230	0.490	1.710
2020/01/31 01:26:05.1	99.870	-0.260	0.550	1.780
2020/01/31 01:26:05.2	99.840	-0.280	0.610	1.850
2020/01/31 01:26:05.3	99.810	-0.310	0.660	1.910
2020/01/31 01:26:05.4	99.780	-0.330	0.710	1.970
2020/01/31 01:26:05.5	99.750	-0.350	0.750	2.030
2020/01/31 01:26:05.6	99.720	-0.380	0.780	2.090
2020/01/31 01:26:05.7	99.680	-0.400	0.810	2.140
2020/01/31 01:26:05.8	99.650	-0.410	0.830	2.190
2020/01/31 01:26:05.9	99.620	-0.430	0.840	2.230
2020/01/31 01:26:06.0	99.590	-0.450	0.840	2.260
2020/01/31 01:26:06.1	99.560	-0.460	0.830	2.290
2020/01/31 01:26:06.2	99.520	-0.470	0.810	2.320
2020/01/31 01:26:06.3	99.490	-0.470	0.780	2.340
2020/01/31 01:26:06.4	99.460	-0.480	0.750	2.360
2020/01/31 01:26:06.5	99.430	-0.480	0.710	2.370
2020/01/31 01:26:06.6	99.400	-0.470	0.660	2.370
2020/01/31 01:26:06.7	99.380	-0.470	0.600	2.370
2020/01/31 01:26:06.8	99.350	-0.460	0.530	2.360
2020/01/31 01:26:06.9	99.330	-0.450	0.460	2.350
2020/01/31 01:26:07.0	99.310	-0.430	0.380	2.330
2020/01/31 01:26:07.1	99.290	-0.420	0.300	2.300
2020/01/31 01:26:07.2	99.270	-0.400	0.220	2.270
2020/01/31 01:26:07.3	99.250	-0.380	0.130	2.240
2020/01/31 01:26:07.4	99.240	-0.350	0.030	2.200
2020/01/31 01:26:07.5	99.220	-0.330	-0.060	2.160
2020/01/31 01:26:07.6	99.210	-0.300	-0.160	2.120
2020/01/31 01:26:07.7	99.200	-0.270	-0.250	2.070
2020/01/31 01:26:07.8	99.200	-0.240	-0.340	2.020
2020/01/31 01:26:07.9	99.190	-0.210	-0.440	1.970
2020/01/31 01:26:08.0	99.190	-0.180	-0.530	1.910
2020/01/31 01:26:08.1	99.180	-0.150	-0.620	1.860
2020/01/31 01:26:08.2	99.180	-0.110	-0.700	1.800
2020/01/31 01:26:08.3	99.190	-0.080	-0.780	1.740
2020/01/31 01:26:08.4	99.190	-0.050	-0.860	1.680
2020/01/31 01:26:08.5	99.200	-0.010	-0.930	1.620
2020/01/31 01:26:08.6	99.210	0.020	-0.990	1.550
2020/01/31 01:26:08.7	99.210	0.050	-1.040	1.490
2020/01/31 01:26:08.8	99.230	0.080	-1.090	1.430
2020/01/31 01:26:08.9	99.240	0.110	-1.140	1.370
2020/01/31 01:26:09.0	99.260	0.140	-1.170	1.320
2020/01/31 01:26:09.1	99.270	0.160	-1.190	1.260
2020/01/31 01:26:09.2	99.290	0.190	-1.220	1.200
2020/01/31 01:26:09.3	99.300	0.210	-1.230	1.140
2020/01/31 01:26:09.4	99.320	0.230	-1.240	1.090
2020/01/31 01:26:09.5	99.340	0.250	-1.240	1.040
2020/01/31 01:26:09.6	99.360	0.270	-1.230	0.990
2020/01/31 01:26:09.7	99.370	0.290	-1.210	0.930
2020/01/31 01:26:09.8	99.400	0.300	-1.190	0.890
2020/01/31 01:26:09.9	99.420	0.320	-1.160	0.840
2020/01/31 01:26:10.0	99.440	0.330	-1.130	0.790
2020/01/31 01:26:10.1	99.460	0.330	-1.090	0.750
2020/01/31 01:26:10.2	99.490	0.340	-1.040	0.700
2020/01/31 01:26:10.3	99.510	0.350	-0.990	0.660
2020/01/31 01:26:10.4	99.530	0.350	-0.930	0.620
2020/01/31 01:26:10.5	99.550	0.350	-0.870	0.580
2020/01/31 01:26:10.6	99.580	0.350	-0.810	0.540
2020/01/31 01:26:10.7	99.600	0.350	-0.740	0.500
2020/01/31 01:26:10.8	99.620	0.350	-0.670	0.460
2020/01/31 01:26:10.9	99.640	0.340	-0.600	0.420
2020/01/31 01:26:11.0	99.650	0.340	-0.530	0.390
2020/01/31 01:26:11.1	99.670	0.330	-0.450	0.360
2020/01/31 01:26:11.2	99.690	0.320	-0.380	0.320
2020/01/31 01:26:11.3	99.700	0.310	-0.310	0.290
2020/01/31 01:26:11.4	99.710	0.300	-0.240	0.270
2020/01/31 01:26:11.5	99.730	0.290	-0.170	0.240
2020/01/31 01:26:11.6	99.730	0.280	-0.100	0.210
2020/01/31 01:26:11.7	99.740	0.270	-0.030	0.190
2020/01/31 01:26:11.8	99.740	0.260	0.030	0.170
2020/01/31 01:26:11.9	99.750	0.250	0.090	0.160
2020/01/31 01:26:12.0	99.740	0.240	0.150	0.140
2020/01/31 01:26:12.1	99.740	0.220	0.200	0.130
2020/01/31 01:26:12.2	99.730	0.210	0.250	0.120
2020/01/31 01:26:12.3	99.720	0.200	0.300	0.120
2020/01/31 01:26:12.4	99.710	0.190	0.340	0.120
2020/01/31 01:26:12.5	99.700	0.170	0.370	0.120
2020/01/31 01:26:12.6	99.690	0.160	0.410	0.120
2020/01/31 01:26:12.7	99.670	0.150	0.440	0.130
2020/01/31 01:26:12.8	99.660	0.140	0.460	0.140
2020/01/31 01:26:12.9	99.640	0.120	0.480	0.150
2020/01/31 01:26:13.0	99.620	0.110	0.510	0.170
2020/01/31 01:26:13.1	99.590	0.100	0.520	0.190
2020/01/31 01:26:13.2	99.570	0.080	0.530	0.220
2020/01/31 01:26:13.3	99.540	0.070	0.540	0.240
2020/01/31 01:26:13.4	99.520	0.060	0.550	0.270
2020/01/31 01:26:13.5	99.490	0.040	0.550	0.310
2020/01/31 01:26:13.6	99.460	0.030	0.550	0.350
2020/01/31 01:26:13.7	99.430	0.020	0.550	0.390
2020/01/31 01:26:13.8	99.400	0.000	0.540	0.430
2020/01/31 01:26:13.9	99.370	-0.010	0.540	0.470
2020/01/31 01:26:14.0	99.330	-0.020	0.530	0.520
2020/01/31 01:26:14.1	99.300	-0.040	0.520	0.570
2020/01/31 01:26:14.2	99.270	-0.050	0.500	0.620
2020/01/31 01:26:14.3	99.240	-0.060	0.490	0.680
2020/01/31 01:26:14.4	99.200	-0.080	0.470	0.730
2020/01/31 01:26:14.5	99.170	-0.090	0.450	0.790
2020/01/31 01:26:14.6	99.140	-0.100	0.430	0.840
2020/01/31 01:26:14.7	99.110	-0.120	0.410	0.900
2020/01/31 01:26:14.8	99.080	-0.130	0.390	0.960
2020/01/31 01:26:14.9	99.050	-0.140	0.360	1.010
2020/01/31 01:26:15.0	99.000	-0.150	0.330	1.070
2020/01/31 01:26:15.1	98.980	-0.160	0.310	1.120
2020/01/31 01:26:15.2	98.950	-0.170	0.270	1.180
2020/01/31 01:26:15.3	98.930	-0.180	0.240	1.220
2020/01/31 01:26:15.4	98.910	-0.180	0.210	1.270
2020/01/31 01:26:15.5	98.890	-0.190	0.170	1.320
2020/01/31 01:26:15.6	98.870	-0.200	0.140	1.360
2020/01/31 01:26:15.7	98.860	-0.200	0.100	1.400
2020/01/31 01:26:15.8	98.850	-0.200	0.060	1.430
2020/01/31 01:26:15.9	98.840	-0.210	0.020	1.460
2020/01/31 01:26:16.0	98.850	-0.210	-0.020	1.490
2020/01/31 01:26:16.1	98.850	-0.210	-0.070	1.520
2020/01/31 01:26:16.2	98.840	-0.200	-0.110	1.540
2020/01/31 01:26:16.3	98.850	-0.200	-0.150	1.560
2020/01/31 01:26:16.4	98.850	-0.200	-0.200	1.580
2020/01/31 01:26:16.5	98.860	-0.190	-0.240	1.590
2020/01/31 01:26:16.6	98.860	-0.190	-0.280	1.600
2020/01/31 01:26:16.7	98.870	-0.180	-0.330	1.610
2020/01/31 01:26:16.8	98.890	-0.170	-0.370	1.620
2020/01/31 01:26:16.9	98.900	-0.160	-0.410	1.620
2020/01/31 01:26:17.0	98.910	-0.150	-0.450	1.630
2020/01/31 01:26:17.1	98.930	-0.140	-0.480	1.630
2020/01/31 01:26:17.2	98.950	-0.130	-0.520	1.630
2020/01/31 01:26:17.3	98.970	-0.120	-0.550	1.630
2020/01/31 01:26:17.4	98.990	-0.110	-0.590	1.630
2020/01/31 01:26:17.5	99.010	-0.100	-0.610	1.630
2020/01/31 01:26:17.6	99.030	-0.090	-0.640	1.630
2020/01/31 01:26:17.7	99.050	-0.080	-0.660	1.620
2020/01/31 01:26:17.8	99.070	-0.070	-0.680	1.620
2020/01/31 01:26:17.9	99.090	-0.060	-0.700	1.620
2020/01/31 01:26:18.0	99.120	-0.050	-0.720	1.620
2020/01/31 01:26:18.1	99.130	-0.040	-0.730	1.610
2020/01/31 01:26:18.2	99.150	-0.030	-0.740	1.610
2020/01/31 01:26:18.3	99.170	-0.020	-0.740	1.600
2020/01/31 01:26:18.4	99.180	-0.010	-0.750	1.600
2020/01/31 01:26:18.5	99.200	-0.000	-0.740	1.590
2020/01/31 01:26:18.6	99.210	0.000	-0.740	1.590
2020/01/31 01:26:18.7	99.220	0.010	-0.730	1.580
2020/01/31 01:26:18.8	99.230	0.010	-0.720	1.570
2020/01/31 01:26:18.9	99.240	0.010	-0.710	1.570
2020/01/31 01:26:19.0	99.260	0.020	-0.690	1.560
2020/01/31 01:26:19.1	99.270	0.020	-0.670	1.550
2020/01/31 01:26:19.2	99.270	0.020	-0.650	1.540
2020/01/31 01:26:19.3	99.280	0.020	-0.620	1.530
2020/01/31 01:26:19.4	99.280	0.020	-0.600	1.520
2020/01/31 01:26:19.5	99.280	0.020	-0.570	1.510
2020/01/31 01:26:19.6	99.280	0.020	-0.540	1.510
2020/01/31 01:26:19.7	99.280	0.010	-0.510	1.500
2020/01/31 01:26:19.8	99.270	0.010	-0.480	1.490
2020/01/31 01:26:19.9	99.270	0.010	-0.440	1.480
2020/01/31 01:26:20.0	99.250	0.000	-0.410	1.480
2020/01/31 01:26:20.1	99.250	-0.000	-0.370	1.470
2020/01/31 01:26:20.2	99.240	-0.000	-0.330	1.460
2020/01/31 01:26:20.3	99.230	-0.010	-0.290	1.450
2020/01/31 01:26:20.4	99.230	-0.010	-0.260	1.450
2020/01/31 01:26:20.5	99.220	-0.020	-0.220	1.440
2020/01/31 01:26:20.6	99.210	-0.020	-0.180	1.430
2020/01/31 01:26:20.7	99.210	-0.030	-0.140	1.430
2020/01/31 01:26:20.8	99.200	-0.030	-0.100	1.420
2020/01/31 01:26:20.9	99.190	-0.040	-0.070	1.420
2020/01/31 01:26:21.0	99.200	-0.040	-0.020	1.420
2020/01/31 01:26:21.1	99.190	-0.050	0.010	1.410
2020/01/31 01:26:21.2	99.180	-0.050	0.050	1.410
2020/01/31 01:26:21.3	99.170	-0.060	0.080	1.410
2020/01/31 01:26:21.4	99.160	-0.060	0.110	1.410
2020/01/31 01:26:21.5	99.160	-0.070	0.140	1.410
2020/01/31 01:26:21.6	99.150	-0.070	0.170	1.410
2020/01/31 01:26:21.7	99.140	-0.080	0.200	1.410
2020/01/31 01:26:21.8	99.130	-0.080	0.220	1.410
2020/01/31 01:26:21.9	99.120	-0.080	0.240	1.410
2020/01/31 01:26:22.0	99.090	-0.080	0.260	1.410
2020/01/31 01:26:22.1	99.080	-0.090	0.270	1.410
2020/01/31 01:26:22.2	99.080	-0.090	0.290	1.410
2020/01/31 01:26:22.3	99.070	-0.090	0.300	1.410
2020/01/31 01:26:22.4	99.060	-0.090	0.310	1.410
2020/01/31 01:26:22.5	99.050	-0.090	0.320	1.400
2020/01/31 01:26:22.6	99.040	-0.090	0.320	1.390
2020/01/31 01:26:22.7	99.040	-0.090	0.320	1.390
2020/01/31 01:26:22.8	99.030	-0.090	0.320	1.370
2020/01/31 01:26:22.9	99.030	-0.090	0.320	1.360
2020/01/31 01:26:23.0	99.020	-0.090	0.320	1.340
2020/01/31 01:26:23.1	99.010	-0.090	0.310	1.320
2020/01/31 01:26:23.2	99.010	-0.090	0.300	1.300
2020/01/31 01:26:23.3	99.010	-0.090	0.280	1.280
2020/01/31 01:26:23.4	99.000	-0.080	0.270	1.250
2020/01/31 01:26:23.5	99.000	-0.080	0.250	1.220
2020/01/31 01:26:23.6	99.000	-0.080	0.230	1.180
2020/01/31 01:26:23.7	99.000	-0.070	0.210	1.140
2020/01/31 01:26:23.8	99.010	-0.070	0.190	1.100
2020/01/31 01:26:23.9	99.010	-0.060	0.160	1.050
2020/01/31 01:26:24.0	99.020	-0.060	0.140	1.000
2020/01/31 01:26:24.1	99.020	-0.050	0.110	0.950
2020/01/31 01:26:24.2	99.030	-0.040	0.080	0.900
2020/01/31 01:26:24.3	99.040	-0.030	0.050	0.840
2020/01/31 01:26:24.4	99.050	-0.020	0.020	0.790
2020/01/31 01:26:24.5	99.050	-0.010	-0.020	0.730
2020/01/31 01:26:24.6	99.060	-0.000	-0.050	0.670
2020/01/31 01:26:24.7	99.070	0.010	-0.090	0.600
2020/01/31 01:26:24.8	99.080	0.020	-0.120	0.540
2020/01/31 01:26:24.9	99.090	0.040	-0.160	0.480
2020/01/31 01:26:25.0	99.120	0.050	-0.190	0.430
2020/01/31 01:26:25.1	99.130	0.070	-0.230	0.370
2020/01/31 01:26:25.2	99.140	0.090	-0.270	0.310
2020/01/31 01:26:25.3	99.150	0.100	-0.310	0.260
2020/01/31 01:26:25.4	99.150	0.120	-0.350	0.210
2020/01/31 01:26:25.5	99.160	0.140	-0.380	0.160
2020/01/31 01:26:25.6	99.160	0.160	-0.420	0.120
2020/01/31 01:26:25.7	99.160	0.190	-0.460	0.080
2020/01/31 01:26:25.8	99.170	0.210	-0.500	0.040
2020/01/31 01:26:25.9	99.170	0.230	-0.530	0.010
2020/01/31 01:26:26.0	99.170	0.250	-0.570	-0.020
2020/01/31 01:26:26.1	99.170	0.270	-0.600	-0.050
2020/01/31 01:26:26.2	99.170	0.300	-0.630	-0.080
2020/01/31 01:26:26.3	99.170	0.320	-0.660	-0.100
2020/01/31 01:26:26.4	99.160	0.340	-0.690	-0.110
2020/01/31 01:26:26.5	99.160	0.360	-0.710	-0.130
2020/01/31 01:26:26.6	99.150	0.380	-0.740	-0.140
2020/01/31 01:26:26.7	99.150	0.390	-0.750	-0.140
2020/01/31 01:26:26.8	99.140	0.410	-0.770	-0.150
2020/01/31 01:26:26.9	99.140	0.420	-0.780	-0.150
2020/01/31 01:26:27.0	99.140	0.430	-0.790	-0.140
2020/01/31 01:26:27.1	99.130	0.440	-0.790	-0.130
2020/01/31 01:26:27.2	99.130	0.450	-0.780	-0.120
2020/01/31 01:26:27.3	99.120	0.450	-0.770	-0.110
2020/01/31 01:26:27.4	99.120	0.450	-0.760	-0.100
2020/01/31 01:26:27.5	99.120	0.450	-0.740	-0.080
2020/01/31 01:26:27.6	99.120	0.450	-0.720	-0.060
2020/01/31 01:26:27.7	99.120	0.440	-0.690	-0.030
2020/01/31 01:26:27.8	99.120	0.430	-0.650	-0.010
2020/01/31 01:26:27.9	99.120	0.410	-0.610	0.020
2020/01/31 01:26:28.0	99.140	0.400	-0.570	0.050
2020/01/31 01:26:28.1	99.150	0.380	-0.520	0.080
2020/01/31 01:26:28.2	99.160	0.350	-0.470	0.120
2020/01/31 01:26:28.3	99.170	0.330	-0.410	0.150
2020/01/31 01:26:28.4	99.180	0.300	-0.350	0.190
2020/01/31 01:26:28.5	99.190	0.270	-0.290	0.230
2020/01/31 01:26:28.6	99.210	0.230	-0.230	0.270
2020/01/31 01:26:28.7	99.220	0.200	-0.160	0.300
2020/01/31 01:26:28.8	99.240	0.160	-0.100	0.340
2020/01/31 01:26:28.9	99.260	0.120	-0.030	0.390
2020/01/31 01:26:29.0	99.270	0.080	0.040	0.430
2020/01/31 01:26:29.1	99.290	0.040	0.100	0.470
2020/01/31 01:26:29.2	99.320	-0.010	0.170	0.510
2020/01/31 01:26:29.3	99.340	-0.050	0.230	0.560
2020/01/31 01:26:29.4	99.360	-0.090	0.280	0.600
2020/01/31 01:26:29.5	99.390	-0.130	0.340	0.650
2020/01/31 01:26:29.6	99.410	-0.170	0.390	0.690
2020/01/31 01:26:29.7	99.440	-0.210	0.430	0.740
2020/01/31 01:26:29.8	99.470	-0.250	0.470	0.780
2020/01/31 01:26:29.9	99.490	-0.290	0.510	0.830
2020/01/31 01:26:30.0	99.530	-0.320	0.540	0.870
2020/01/31 01:26:30.1	99.550	-0.350	0.560	0.920
2020/01/31 01:26:30.2	99.570	-0.380	0.580	0.970
2020/01/31 01:26:30.3	99.600	-0.400	0.590	1.020
2020/01/31 01:26:30.4	99.620	-0.430	0.590	1.070
2020/01/31 01:26:30.5	99.640	-0.450	0.590	1.120
2020/01/31 01:26:30.6	99.650	-0.460	0.580	1.170
2020/01/31 01:26:30.7	99.670	-0.470	0.570	1.220
2020/01/31 01:26:30.8	99.680	-0.480	0.550	1.280
2020/01/31 01:26:30.9	99.700	-0.490	0.520	1.340
2020/01/31 01:26:31.0	99.700	-0.490	0.500	1.400
2020/01/31 01:26:31.1	99.710	-0.490	0.460	1.460
2020/01/31 01:26:31.2	99.720	-0.480	0.420	1.520
2020/01/31 01:26:31.3	99.720	-0.480	0.380	1.580
2020/01/31 01:26:31.4	99.720	-0.470	0.330	1.640
2020/01/31 01:26:31.5	99.720	-0.450	0.280	1.700
2020/01/31 01:26:31.6	99.720	-0.440	0.230	1.760
2020/01/31 01:26:31.7	99.720	-0.420	0.180	1.820
2020/01/31 01:26:31.8	99.720	-0.400	0.130	1.870
2020/01/31 01:26:31.9	99.720	-0.380	0.070	1.930
2020/01/31 01:26:32.0	99.710	-0.360	0.010	1.980
2020/01/31 01:26:32.1	99.700	-0.340	-0.040	2.030
2020/01/31 01:26:32.2	99.700	-0.310	-0.090	2.080
2020/01/31 01:26:32.3	99.700	-0.290	-0.150	2.130
2020/01/31 01:26:32.4	99.700	-0.270	-0.200	2.180
2020/01/31 01:26:32.5	99.700	-0.240	-0.240	2.220
2020/01/31 01:26:32.6	99.690	-0.220	-0.290	2.260
2020/01/31 01:26:32.7	99.690	-0.190	-0.330	2.300
2020/01/31 01:26:32.8	99.690	-0.170	-0.370	2.330
2020/01/31 01:26:32.9	99.690	-0.150	-0.410	2.360
2020/01/31 01:26:33.0	99.710	-0.120	-0.430	2.390
2020/01/31 01:26:33.1	99.710	-0.100	-0.460	2.410
2020/01/31 01:26:33.2	99.710	-0.080	-0.480	2.430
2020/01/31 01:26:33.3	99.710	-0.060	-0.500	2.450
2020/01/31 01:26:33.4	99.710	-0.050	-0.510	2.460
2020/01/31 01:26:33.5	99.720	-0.030	-0.520	2.470
2020/01/31 01:26:33.6	99.720	-0.020	-0.520	2.480
2020/01/31 01:26:33.7	99.720	-0.010	-0.520	2.480
2020/01/31 01:26:33.8	99.730	-0.000	-0.510	2.480
2020/01/31 01:26:33.9	99.730	0.000	-0.490	2.470
2020/01/31 01:26:34.0	99.750	0.010	-0.470	2.460
2020/01/31 01:26:34.1	99.760	0.010	-0.450	2.450
2020/01/31 01:26:34.2	99.770	0.010	-0.420	2.430
2020/01/31 01:26:34.3	99.780	0.010	-0.390	2.410
2020/01/31 01:26:34.4	99.790	0.000	-0.350	2.380
2020/01/31 01:26:34.5	99.800	-0.010	-0.310	2.360
2020/01/31 01:26:34.6	99.810	-0.020	-0.260	2.320
2020/01/31 01:26:34.7	99.820	-0.030	-0.220	2.290
2020/01/31 01:26:34.8	99.840	-0.040	-0.170	2.250
2020/01/31 01:26:34.9	99.850	-0.050	-0.120	2.210
2020/01/31 01:26:35.0	99.860	-0.070	-0.070	2.160
2020/01/31 01:26:35.1	99.880	-0.080	-0.020	2.120
2020/01/31 01:26:35.2	99.890	-0.100	0.030	2.070
2020/01/31 01:26:35.3	99.910	-0.110	0.070	2.020
2020/01/31 01:26:35.4	99.920	-0.130	0.120	1.970
2020/01/31 01:26:35.5	99.930	-0.140	0.160	1.920
2020/01/31 01:26:35.6	99.950	-0.160	0.190	1.870
2020/01/31 01:26:35.7	99.960	-0.170	0.220	1.810
2020/01/31 01:26:35.8	99.970	-0.180	0.240	1.760
2020/01/31 01:26:35.9	99.980	-0.200	0.260	1.700
2020/01/31 01:26:36.0	99.970	-0.200	0.280	1.640
2020/01/31 01:26:36.1	99.980	-0.210	0.280	1.580
2020/01/31 01:26:36.2	99.980	-0.220	0.280	1.520
2020/01/31 01:26:36.3	99.990	-0.220	0.270	1.460
2020/01/31 01:26:36.4	100.000	-0.220	0.260	1.400
2020/01/31 01:26:36.5	100.000	-0.210	0.230	1.340
2020/01/31 01:26:36.6	100.010	-0.210	0.200	1.280
2020/01/31 01:26:36.7	100.010	-0.200	0.160	1.220
2020/01/31 01:26:36.8	100.020	-0.180	0.120	1.160
2020/01/31 01:26:36.9	100.020	-0.170	0.070	1.090
2020/01/31 01:26:37.0	100.010	-0.150	0.010	1.030
2020/01/31 01:26:37.1	100.010	-0.130	-0.050	0.970
2020/01/31 01:26:37.2	100.020	-0.110	-0.120	0.910
2020/01/31 01:26:37.3	100.020	-0.080	-0.200	0.850
2020/01/31 01:26:37.4	100.020	-0.050	-0.270	0.780
2020/01/31 01:26:37.5	100.020	-0.020	-0.350	0.720
2020/01/31 01:26:37.6	100.030	0.010	-0.430	0.660
2020/01/31 01:26:37.7	100.030	0.050	-0.520	0.600
2020/01/31 01:26:37.8	100.030	0.080	-0.600	0.540
2020/01/31 01:26:37.9	100.030	0.120	-0.680	0.480
2020/01/31 01:26:38.0	100.030	0.160	-0.760	0.420
2020/01/31 01:26:38.1	100.030	0.200	-0.840	0.370
2020/01/31 01:26:38.2	100.030	0.230	-0.920	0.320
2020/01/31 01:26:38.3	100.030	0.270	-0.990	0.270
2020/01/31 01:26:38.4	100.030	0.310	-1.060	0.220
2020/01/31 01:26:38.5	100.020	0.350	-1.120	0.180
2020/01/31 01:26:38.6	100.020	0.380	-1.180	0.130
2020/01/31 01:26:38.7	100.010	0.420	-1.230	0.100
2020/01/31 01:26:38.8	100.010	0.450	-1.270	0.060
2020/01/31 01:26:38.9	100.000	0.480	-1.300	0.030
2020/01/31 01:26:39.0	99.990	0.510	-1.320	0.010
2020/01/31 01:26:39.1	99.980	0.530	-1.330	-0.020
2020/01/31 01:26:39.2	99.970	0.550	-1.340	-0.040
2020/01/31 01:26:39.3	99.960	0.570	-1.330	-0.050
2020/01/31 01:26:39.4	99.950	0.580	-1.320	-0.070
2020/01/31 01:26:39.5	99.940	0.590	-1.290	-0.080
2020/01/31 01:26:39.6	99.930	0.600	-1.260	-0.090
2020/01/31 01:26:39.7	99.920	0.600	-1.220	-0.090
2020/01/31 01:26:39.8	99.910	0.590	-1.160	-0.090
2020/01/31 01:26:39.9	99.890	0.590	-1.100	-0.080
2020/01/31 01:26:40.0	99.900	0.580	-1.030	-0.080
2020/01/31 01:26:40.1	99.880	0.560	-0.950	-0.070
2020/01/31 01:26:40.2	99.870	0.540	-0.860	-0.050
2020/01/31 01:26:40.3	99.860	0.520	-0.770	-0.040
2020/01/31 01:26:40.4	99.840	0.490	-0.670	-0.020
2020/01/31 01:26:40.5	99.830	0.460	-0.570	0.000
2020/01/31 01:26:40.6	99.820	0.430	-0.460	0.030
2020/01/31 01:26:40.7	99.810	0.390	-0.350	0.050
2020/01/31 01:26:40.8	99.800	0.350	-0.240	0.080
2020/01/31 01:26:40.9	99.790	0.310	-0.120	0.110
2020/01/31 01:26:41.0	99.790	0.260	-0.010	0.150
2020/01/31 01:26:41.1	99.780	0.220	0.110	0.180
2020/01/31 01:26:41.2	99.770	0.170	0.230	0.220
2020/01/31 01:26:41.3	99.760	0.120	0.340	0.260
2020/01/31 01:26:41.4	99.750	0.070	0.460	0.300
2020/01/31 01:26:41.5	99.740	0.030	0.570	0.340
2020/01/31 01:26:41.6	99.730	-0.020	0.670	0.380
2020/01/31 01:26:41.7	99.720	-0.070	0.780	0.420
2020/01/31 01:26:41.8	99.710	-0.120	0.870	0.460
2020/01/31 01:26:41.9	99.710	-0.160	0.960	0.500
2020/01/31 01:26:42.0	99.680	-0.200	1.050	0.540
2020/01/31 01:26:42.1	99.670	-0.250	1.130	0.580
2020/01/31 01:26:42.2	99.670	-0.280	1.200	0.620
2020/01/31 01:26:42.3	99.660	-0.320	1.260	0.660
2020/01/31 01:26:42.4	99.660	-0.350	1.310	0.700
2020/01/31 01:26:42.5	99.650	-0.380	1.360	0.730
2020/01/31 01:26:42.6	99.650	-0.410	1.390	0.770
2020/01/31 01:26:42.7	99.640	-0.430	1.420	0.800
2020/01/31 01:26:42.8	99.640	-0.450	1.440	0.830
2020/01/31 01:26:42.9	99.640	-0.470	1.450	0.850
2020/01/31 01:26:43.0	99.630	-0.480	1.450	0.880
2020/01/31 01:26:43.1	99.630	-0.490	1.440	0.900
2020/01/31 01:26:43.2	99.630	-0.500	1.420	0.920
2020/01/31 01:26:43.3	99.630	-0.500	1.390	0.940
2020/01/31 01:26:43.4	99.640	-0.500	1.360	0.960
2020/01/31 01:26:43.5	99.640	-0.500	1.310	0.970
2020/01/31 01:26:43.6	99.650	-0.490	1.260	0.990
2020/01/31 01:26:43.7	99.650	-0.480	1.200	1.000
2020/01/31 01:26:43.8	99.660	-0.470	1.130	1.000
2020/01/31 01:26:43.9	99.660	-0.450	1.060	1.010
2020/01/31 01:26:44.0	99.660	-0.430	0.980	1.020
2020/01/31 01:26:44.1	99.670	-0.410	0.890	1.020
2020/01/31 01:26:44.2	99.680	-0.390	0.800	1.030
2020/01/31 01:26:44.3	99.690	-0.370	0.700	1.030
2020/01/31 01:26:44.4	99.700	-0.340	0.600	1.030
2020/01/31 01:26:44.5	99.710	-0.310	0.490	1.040
2020/01/31 01:26:44.6	99.720	-0.280	0.380	1.040
2020/01/31 01:26:44.7	99.740	-0.250	0.270	1.050
2020/01/31 01:26:44.8	99.750	-0.220	0.150	1.050
2020/01/31 01:26:44.9	99.760	-0.190	0.040	1.060
2020/01/31 01:26:45.0	99.790	-0.150	-0.090	1.070
2020/01/31 01:26:45.1	99.800	-0.120	-0.210	1.080
2020/01/31 01:26:45.2	99.810	-0.090	-0.320	1.090
2020/01/31 01:26:45.3	99.830	-0.050	-0.440	1.110
2020/01/31 01:26:45.4	99.840	-0.020	-0.560	1.130
2020/01/31 01:26:45.5	99.860	0.020	-0.670	1.150
2020/01/31 01:26:45.6	99.870	0.050	-0.780	1.170
2020/01/31 01:26:45.7	99.890	0.080	-0.890	1.190
2020/01/31 01:26:45.8	99.900	0.110	-1.000	1.220
2020/01/31 01:26:45.9	99.910	0.150	-1.100	1.250
2020/01/31 01:26:46.0	99.960	0.180	-1.190	1.280
2020/01/31 01:26:46.1	99.970	0.210	-1.280	1.310
2020/01/31 01:26:46.2	99.980	0.230	-1.370	1.350
2020/01/31 01:26:46.3	99.990	0.260	-1.450	1.390
2020/01/31 01:26:46.4	100.000	0.280	-1.520	1.420
2020/01/31 01:26:46.5	100.000	0.310	-1.580	1.460
2020/01/31 01:26:46.6	100.010	0.330	-1.630	1.500
2020/01/31 01:26:46.7	100.010	0.350	-1.680	1.550
2020/01/31 01:26:46.8	100.020	0.370	-1.720	1.590
2020/01/31 01:26:46.9	100.020	0.390	-1.750	1.630
2020/01/31 01:26:47.0	100.040	0.400	-1.770	1.680
2020/01/31 01:26:47.1	100.040	0.410	-1.780	1.720
2020/01/31 01:26:47.2	100.040	0.420	-1.780	1.770
2020/01/31 01:26:47.3	100.040	0.430	-1.770	1.810
2020/01/31 01:26:47.4	100.030	0.440	-1.760	1.850
2020/01/31 01:26:47.5	100.020	0.440	-1.730	1.900
2020/01/31 01:26:47.6	100.020	0.440	-1.700	1.940
2020/01/31 01:26:47.7	100.010	0.440	-1.660	1.980
2020/01/31 01:26:47.8	100.000	0.440	-1.600	2.020
2020/01/31 01:26:47.9	99.990	0.430	-1.550	2.060
2020/01/31 01:26:48.0	99.980	0.430	-1.480	2.090
2020/01/31 01:26:48.1	99.970	0.420	-1.400	2.130
2020/01/31 01:26:48.2	99.950	0.400	-1.320	2.170
2020/01/31 01:26:48.3	99.940	0.390	-1.230	2.200
2020/01/31 01:26:48.4	99.920	0.370	-1.140	2.230
2020/01/31 01:26:48.5	99.900	0.350	-1.050	2.260
2020/01/31 01:26:48.6	99.880	0.330	-0.950	2.290
2020/01/31 01:26:48.7	99.870	0.310	-0.840	2.310
2020/01/31 01:26:48.8	99.850	0.280	-0.730	2.330
2020/01/31 01:26:48.9	99.830	0.260	-0.620	2.350
2020/01/31 01:26:49.0	99.800	0.230	-0.510	2.370
2020/01/31 01:26:49.1	99.780	0.200	-0.400	2.380
2020/01/31 01:26:49.2	99.760	0.170	-0.280	2.390
2020/01/31 01:26:49.3	99.740	0.130	-0.170	2.400
2020/01/31 01:26:49.4	99.720	0.100	-0.060	2.400
2020/01/31 01:26:49.5	99.690	0.060	0.050	2.400
2020/01/31 01:26:49.6	99.670	0.020	0.160	2.400
2020/01/31 01:26:49.7	99.650	-0.020	0.270	2.390
2020/01/31 01:26:49.8	99.630	-0.050	0.370	2.380
2020/01/31 01:26:49.9	99.600	-0.090	0.470	2.370
2020/01/31 01:26:50.0	99.570	-0.130	0.570	2.350
2020/01/31 01:26:50.1	99.550	-0.170	0.660	2.330
2020/01/31 01:26:50.2	99.530	-0.210	0.750	2.300
2020/01/31 01:26:50.3	99.510	-0.250	0.840	2.280
2020/01/31 01:26:50.4	99.490	-0.290	0.910	2.250
2020/01/31 01:26:50.5	99.470	-0.330	0.980	2.220
2020/01/31 01:26:50.6	99.450	-0.360	1.050	2.180
2020/01/31 01:26:50.7	99.430	-0.400	1.110	2.140
2020/01/31 01:26:50.8	99.420	-0.430	1.160	2.100
2020/01/31 01:26:50.9	99.400	-0.460	1.200	2.050
2020/01/31 01:26:51.0	99.380	-0.490	1.240	2.000
2020/01/31 01:26:51.1	99.370	-0.510	1.260	1.940
2020/01/31 01:26:51.2	99.350	-0.540	1.280	1.880
2020/01/31 01:26:51.3	99.350	-0.550	1.290	1.820
2020/01/31 01:26:51.4	99.340	-0.570	1.300	1.750
2020/01/31 01:26:51.5	99.330	-0.580	1.290	1.680
2020/01/31 01:26:51.6	99.330	-0.590	1.270	1.600
2020/01/31 01:26:51.7	99.330	-0.600	1.250	1.520
2020/01/31 01:26:51.8	99.330	-0.600	1.220	1.440
2020/01/31 01:26:51.9	99.340	-0.600	1.180	1.350
2020/01/31 01:26:52.0	99.340	-0.600	1.130	1.250
2020/01/31 01:26:52.1	99.350	-0.590	1.070	1.160
2020/01/31 01:26:52.2	99.360	-0.580	1.010	1.060
2020/01/31 01:26:52.3	99.370	-0.560	0.940	0.960
2020/01/31 01:26:52.4	99.380	-0.550	0.860	0.850
2020/01/31 01:26:52.5	99.390	-0.520	0.780	0.750
2020/01/31 01:26:52.6	99.410	-0.500	0.690	0.640
2020/01/31 01:26:52.7	99.420	-0.470	0.600	0.540
2020/01/31 01:26:52.8	99.440	-0.440	0.500	0.430
2020/01/31 01:26:52.9	99.450	-0.410	0.400	0.330
2020/01/31 01:26:53.0	99.460	-0.370	0.290	0.220
2020/01/31 01:26:53.1	99.470	-0.340	0.180	0.120
2020/01/31 01:26:53.2	99.490	-0.300	0.080	0.020
2020/01/31 01:26:53.3	99.500	-0.260	-0.030	-0.080
2020/01/31 01:26:53.4	99.520	-0.210	-0.130	-0.180
2020/01/31 01:26:53.5	99.530	-0.170	-0.240	-0.270
2020/01/31 01:26:53.6	99.550	-0.130	-0.340	-0.360
2020/01/31 01:26:53.7	99.560	-0.090	-0.440	-0.440
2020/01/31 01:26:53.8	99.580	-0.040	-0.540	-0.530
2020/01/31 01:26:53.9	99.590	0.000	-0.630	-0.600
2020/01/31 01:26:54.0	99.580	0.040	-0.710	-0.680
2020/01/31 01:26:54.1	99.590	0.090	-0.800	-0.750
2020/01/31 01:26:54.2	99.600	0.130	-0.880	-0.810
2020/01/31 01:26:54.3	99.620	0.170	-0.950	-0.870
2020/01/31 01:26:54.4	99.630	0.210	-1.010	-0.930
2020/01/31 01:26:54.5	99.640	0.240	-1.070	-0.980
2020/01/31 01:26:54.6	99.650	0.280	-1.130	-1.020
2020/01/31 01:26:54.7	99.650	0.310	-1.170	-1.060
2020/01/31 01:26:54.8	99.660	0.340	-1.210	-1.090
2020/01/31 01:26:54.9	99.670	0.370	-1.240	-1.120
2020/01/31 01:26:55.0	99.710	0.390	-1.270	-1.140
2020/01/31 01:26:55.1	99.710	0.410	-1.280	-1.160
2020/01/31 01:26:55.2	99.720	0.430	-1.290	-1.170
2020/01/31 01:26:55.3	99.730	0.450	-1.290	-1.180
2020/01/31 01:26:55.4	99.740	0.460	-1.290	-1.180
2020/01/31 01:26:55.5	99.750	0.470	-1.270	-1.180
2020/01/31 01:26:55.6	99.750	0.480	-1.250	-1.170
2020/01/31 01:26:55.7	99.760	0.490	-1.220	-1.150
2020/01/31 01:26:55.8	99.770	0.490	-1.190	-1.130
2020/01/31 01:26:55.9	99.780	0.490	-1.140	-1.110
2020/01/31 01:26:56.0	99.780	0.490	-1.090	-1.070
2020/01/31 01:26:56.1	99.790	0.480	-1.040	-1.040
2020/01/31 01:26:56.2	99.800	0.470	-0.980	-1.000
2020/01/31 01:26:56.3	99.810	0.460	-0.910	-0.950
2020/01/31 01:26:56.4	99.820	0.450	-0.840	-0.900
2020/01/31 01:26:56.5	99.830	0.430	-0.770	-0.850
2020/01/31 01:26:56.6	99.840	0.410	-0.690	-0.790
2020/01/31 01:26:56.7	99.850	0.390	-0.610	-0.730
2020/01/31 01:26:56.8	99.860	0.370	-0.520	-0.660
2020/01/31 01:26:56.9	99.870	0.350	-0.430	-0.590
2020/01/31 01:26:57.0	99.900	0.320	-0.350	-0.510
2020/01/31 01:26:57.1	99.910	0.300	-0.260	-0.430
2020/01/31 01:26:57.2	99.920	0.270	-0.170	-0.340
2020/01/31 01:26:57.3	99.930	0.240	-0.080	-0.250
2020/01/31 01:26:57.4	99.940	0.210	0.000	-0.160
2020/01/31 01:26:57.5	99.940	0.180	0.080	-0.060
2020/01/31 01:26:57.6	99.950	0.150	0.170	0.040
2020/01/31 01:26:57.7	99.950	0.120	0.240	0.140
2020/01/31 01:26:57.8	99.960	0.090	0.320	0.250
2020/01/31 01:26:57.9	99.960	0.070	0.380	0.360
2020/01/31 01:26:58.0	99.950	0.040	0.450	0.480
2020/01/31 01:26:58.1	99.950	0.010	0.500	0.600
2020/01/31 01:26:58.2	99.950	-0.020	0.560	0.720
2020/01/31 01:26:58.3	99.940	-0.040	0.600	0.840
2020/01/31 01:26:58.4	99.940	-0.070	0.640	0.970
2020/01/31 01:26:58.5	99.930	-0.090	0.670	1.090
2020/01/31 01:26:58.6	99.920	-0.110	0.690	1.220
2020/01/31 01:26:58.7	99.900	-0.130	0.710	1.350
2020/01/31 01:26:58.8	99.890	-0.140	0.720	1.470
2020/01/31 01:26:58.9	99.870	-0.160	0.720	1.600
2020/01/31 01:26:59.0	99.830	-0.170	0.720	1.730
2020/01/31 01:26:59.1	99.810	-0.180	0.700	1.850
2020/01/31 01:26:59.2	99.790	-0.190	0.680	1.970
2020/01/31 01:26:59.3	99.770	-0.190	0.660	2.090
2020/01/31 01:26:59.4	99.750	-0.190	0.620	2.200
2020/01/31 01:26:59.5	99.740	-0.190	0.590	2.310
2020/01/31 01:26:59.6	99.720	-0.190	0.540	2.420
2020/01/31 01:26:59.7	99.700	-0.190	0.490	2.520
2020/01/31 01:26:59.8	99.680	-0.180	0.440	2.610
2020/01/31 01:26:59.9	99.670	-0.170	0.380	2.700
2020/01/31 01:27:00.0	99.660	-0.160	0.310	2.780
2020/01/31 01:27:00.1	99.640	-0.150	0.250	2.860
2020/01/31 01:27:00.2	99.630	-0.140	0.180	2.930
2020/01/31 01:27:00.3	99.620	-0.120	0.110	3.000
2020/01/31 01:27:00.4	99.610	-0.100	0.040	3.050
2020/01/31 01:27:00.5	99.600	-0.080	-0.030	3.110
2020/01/31 01:27:00.6	99.590	-0.070	-0.100	3.150
2020/01/31 01:27:00.7	99.590	-0.040	-0.180	3.190
2020/01/31 01:27:00.8	99.590	-0.020	-0.250	3.220
2020/01/31 01:27:00.9	99.580	-0.000	-0.320	3.250
2020/01/31 01:27:01.0	99.590	0.020	-0.380	3.270
2020/01/31 01:27:01.1	99.590	0.040	-0.450	3.280
2020/01/31 01:27:01.2	99.590	0.060	-0.510	3.290
2020/01/31 01:27:01.3	99.600	0.090	-0.570	3.300
2020/01/31 01:27:01.4	99.610	0.110	-0.630	3.290
2020/01/31 01:27:01.5	99.610	0.130	-0.680	3.290
2020/01/31 01:27:01.6	99.620	0.150	-0.720	3.280
2020/01/31 01:27:01.7	99.630	0.170	-0.760	3.270
2020/01/31 01:27:01.8	99.640	0.190	-0.800	3.250
2020/01/31 01:27:01.9	99.660	0.210	-0.830	3.230
2020/01/31 01:27:02.0	99.670	0.220	-0.850	3.200
2020/01/31 01:27:02.1	99.690	0.240	-0.870	3.170
2020/01/31 01:27:02.2	99.700	0.250	-0.880	3.150
2020/01/31 01:27:02.3	99.720	0.260	-0.880	3.120
2020/01/31 01:27:02.4	99.730	0.270	-0.880	3.080
2020/01/31 01:27:02.5	99.750	0.270	-0.870	3.050
2020/01/31 01:27:02.6	99.760	0.280	-0.860	3.010
2020/01/31 01:27:02.7	99.780	0.280	-0.840	2.970
2020/01/31 01:27:02.8	99.800	0.280	-0.820	2.930
2020/01/31 01:27:02.9	99.810	0.280	-0.790	2.890
2020/01/31 01:27:03.0	99.830	0.270	-0.750	2.850
2020/01/31 01:27:03.1	99.850	0.270	-0.710	2.800
2020/01/31 01:27:03.2	99.870	0.260	-0.670	2.750
2020/01/31 01:27:03.3	99.890	0.250	-0.620	2.700
2020/01/31 01:27:03.4	99.900	0.240	-0.570	2.640
2020/01/31 01:27:03.5	99.920	0.220	-0.520	2.580
2020/01/31 01:27:03.6	99.940	0.210	-0.470	2.520
2020/01/31 01:27:03.7	99.960	0.190	-0.410	2.460
2020/01/31 01:27:03.8	99.970	0.180	-0.350	2.390
2020/01/31 01:27:03.9	99.990	0.160	-0.290	2.320
2020/01/31 01:27:04.0	100.010	0.140	-0.230	2.240
2020/01/31 01:27:04.1	100.030	0.120	-0.170	2.160
2020/01/31 01:27:04.2	100.050	0.100	-0.110	2.080
2020/01/31 01:27:04.3	100.070	0.070	-0.050	2.000
2020/01/31 01:27:04.4	100.080	0.050	0.010	1.910
2020/01/31 01:27:04.5	100.100	0.030	0.070	1.820
2020/01/31 01:27:04.6	100.110	0.010	0.120	1.730
2020/01/31 01:27:04.7	100.120	-0.010	0.170	1.640
2020/01/31 01:27:04.8	100.130	-0.030	0.220	1.540
2020/01/31 01:27:04.9	100.140	-0.050	0.260	1.450
2020/01/31 01:27:05.0	100.140	-0.070	0.300	1.350
2020/01/31 01:27:05.1	100.140	-0.080	0.340	1.250
2020/01/31 01:27:05.2	100.150	-0.100	0.370	1.150
2020/01/31 01:27:05.3	100.150	-0.120	0.400	1.060
2020/01/31 01:27:05.4	100.160	-0.130	0.430	0.960
2020/01/31 01:27:05.5	100.160	-0.140	0.450	0.860
2020/01/31 01:27:05.6	100.160	-0.150	0.460	0.770
2020/01/31 01:27:05.7	100.160	-0.160	0.470	0.680
2020/01/31 01:27:05.8	100.160	-0.170	0.480	0.580
2020/01/31 01:27:05.9	100.150	-0.180	0.480	0.490
2020/01/31 01:27:06.0	100.150	-0.190	0.480	0.400
2020/01/31 01:27:06.1	100.140	-0.190	0.470	0.320
2020/01/31 01:27:06.2	100.140	-0.200	0.460	0.230
2020/01/31 01:27:06.3	100.130	-0.200	0.440	0.150
2020/01/31 01:27:06.4	100.120	-0.200	0.420	0.070
2020/01/31 01:27:06.5	100.110	-0.200	0.400	-0.000
2020/01/31 01:27:06.6	100.100	-0.200	0.370	-0.080
2020/01/31 01:27:06.7	100.090	-0.200	0.340	-0.140
2020/01/31 01:27:06.8	100.070	-0.200	0.300	-0.210
2020/01/31 01:27:06.9	100.060	-0.190	0.270	-0.270
2020/01/31 01:27:07.0	100.050	-0.190	0.230	-0.330
2020/01/31 01:27:07.1	100.040	-0.180	0.190	-0.380
2020/01/31 01:27:07.2	100.030	-0.180	0.150	-0.430
2020/01/31 01:27:07.3	100.020	-0.170	0.100	-0.480
2020/01/31 01:27:07.4	100.000	-0.170	0.060	-0.530
2020/01/31 01:27:07.5	99.990	-0.160	0.010	-0.570
2020/01/31 01:27:07.6	99.990	-0.150	-0.030	-0.610
2020/01/31 01:27:07.7	99.980	-0.150	-0.080	-0.640
2020/01/31 01:27:07.8	99.970	-0.140	-0.120	-0.680
2020/01/31 01:27:07.9	99.970	-0.140	-0.160	-0.700
2020/01/31 01:27:08.0	99.970	-0.130	-0.210	-0.730
2020/01/31 01:27:08.1	99.970	-0.120	-0.250	-0.760
2020/01/31 01:27:08.2	99.970	-0.120	-0.290	-0.770
2020/01/31 01:27:08.3	99.970	-0.110	-0.330	-0.790
2020/01/31 01:27:08.4	99.970	-0.110	-0.360	-0.800
2020/01/31 01:27:08.5	99.970	-0.100	-0.400	-0.810
2020/01/31 01:27:08.6	99.980	-0.100	-0.430	-0.820
2020/01/31 01:27:08.7	99.980	-0.090	-0.460	-0.820
2020/01/31 01:27:08.8	99.990	-0.090	-0.490	-0.820
2020/01/31 01:27:08.9	100.000	-0.080	-0.520	-0.820
2020/01/31 01:27:09.0	99.990	-0.080	-0.540	-0.810
2020/01/31 01:27:09.1	100.000	-0.080	-0.560	-0.800
2020/01/31 01:27:09.2	100.010	-0.070	-0.570	-0.790
2020/01/31 01:27:09.3	100.020	-0.070	-0.590	-0.770
2020/01/31 01:27:09.4	100.030	-0.070	-0.600	-0.750
2020/01/31 01:27:09.5	100.040	-0.070	-0.610	-0.730
2020/01/31 01:27:09.6	100.050	-0.060	-0.620	-0.700
2020/01/31 01:27:09.7	100.060	-0.060	-0.620	-0.670
2020/01/31 01:27:09.8	100.070	-0.060	-0.620	-0.640
2020/01/31 01:27:09.9	100.080	-0.060	-0.620	-0.600
2020/01/31 01:27:10.0	100.100	-0.060	-0.610	-0.560
2020/01/31 01:27:10.1	100.110	-0.060	-0.600	-0.510
2020/01/31 01:27:10.2	100.110	-0.060	-0.590	-0.460
2020/01/31 01:27:10.3	100.120	-0.060	-0.580	-0.410
2020/01/31 01:27:10.4	100.120	-0.060	-0.560	-0.360
2020/01/31 01:27:10.5	100.120	-0.060	-0.540	-0.300
2020/01/31 01:27:10.6	100.130	-0.060	-0.510	-0.240
2020/01/31 01:27:10.7	100.120	-0.060	-0.490	-0.180
2020/01/31 01:27:10.8	100.120	-0.060	-0.460	-0.110
2020/01/31 01:27:10.9	100.120	-0.060	-0.430	-0.040
2020/01/31 01:27:11.0	100.120	-0.060	-0.400	0.030
2020/01/31 01:27:11.1	100.110	-0.060	-0.360	0.110
2020/01/31 01:27:11.2	100.100	-0.060	-0.330	0.180
2020/01/31 01:27:11.3	100.100	-0.070	-0.290	0.260
2020/01/31 01:27:11.4	100.080	-0.070	-0.250	0.340
2020/01/31 01:27:11.5	100.070	-0.070	-0.220	0.410
2020/01/31 01:27:11.6	100.060	-0.070	-0.180	0.490
2020/01/31 01:27:11.7	100.050	-0.070	-0.140	0.570
2020/01/31 01:27:11.8	100.030	-0.070	-0.100	0.650
2020/01/31 01:27:11.9	100.020	-0.070	-0.060	0.730
2020/01/31 01:27:12.0	100.000	-0.070	-0.030	0.820
2020/01/31 01:27:12.1	99.990	-0.070	0.010	0.890
2020/01/31 01:27:12.2	99.970	-0.060	0.040	0.970
2020/01/31 01:27:12.3	99.950	-0.060	0.070	1.050
2020/01/31 01:27:12.4	99.930	-0.060	0.100	1.130
2020/01/31 01:27:12.5	99.920	-0.060	0.130	1.200
2020/01/31 01:27:12.6	99.900	-0.050	0.150	1.280
2020/01/31 01:27:12.7	99.880	-0.050	0.170	1.350
2020/01/31 01:27:12.8	99.860	-0.040	0.190	1.420
2020/01/31 01:27:12.9	99.840	-0.030	0.210	1.490
2020/01/31 01:27:13.0	99.810	-0.020	0.220	1.550
2020/01/31 01:27:13.1	99.790	-0.020	0.230	1.620
2020/01/31 01:27:13.2	99.780	-0.010	0.230	1.680
2020/01/31 01:27:13.3	99.760	0.000	0.230	1.740
2020/01/31 01:27:13.4	99.740	0.020	0.230	1.800
2020/01/31 01:27:13.5	99.730	0.030	0.220	1.850
2020/01/31 01:27:13.6	99.710	0.040	0.200	1.910
2020/01/31 01:27:13.7	99.700	0.050	0.190	1.960
2020/01/31 01:27:13.8	99.690	0.070	0.170	2.000
2020/01/31 01:27:13.9	99.680	0.080	0.150	2.050
2020/01/31 01:27:14.0	99.670	0.100	0.120	2.090
2020/01/31 01:27:14.1	99.660	0.110	0.090	2.120
2020/01/31 01:27:14.2	99.660	0.130	0.060	2.160
2020/01/31 01:27:14.3	99.650	0.150	0.020	2.190
2020/01/31 01:27:14.4	99.650	0.160	-0.020	2.210
2020/01/31 01:27:14.5	99.650	0.180	-0.050	2.240
2020/01/31 01:27:14.6	99.660	0.200	-0.090	2.260
2020/01/31 01:27:14.7	99.660	0.210	-0.130	2.270
2020/01/31 01:27:14.8	99.660	0.230	-0.170	2.290
2020/01/31 01:27:14.9	99.670	0.250	-0.210	2.300
2020/01/31 01:27:15.0	99.680	0.260	-0.250	2.300
2020/01/31 01:27:15.1	99.690	0.280	-0.290	2.310
2020/01/31 01:27:15.2	99.700	0.290	-0.330	2.310
2020/01/31 01:27:15.3	99.710	0.310	-0.370	2.310
2020/01/31 01:27:15.4	99.720	0.320	-0.400	2.300
2020/01/31 01:27:15.5	99.730	0.330	-0.440	2.300
2020/01/31 01:27:15.6	99.740	0.340	-0.470	2.290
2020/01/31 01:27:15.7	99.750	0.350	-0.500	2.280
2020/01/31 01:27:15.8	99.760	0.360	-0.520	2.260
2020/01/31 01:27:15.9	99.770	0.370	-0.540	2.250
2020/01/31 01:27:16.0	99.780	0.380	-0.560	2.230
2020/01/31 01:27:16.1	99.780	0.380	-0.580	2.210
2020/01/31 01:27:16.2	99.790	0.380	-0.590	2.190
2020/01/31 01:27:16.3	99.800	0.380	-0.590	2.160
2020/01/31 01:27:16.4	99.800	0.380	-0.590	2.130
2020/01/31 01:27:16.5	99.810	0.380	-0.590	2.100
2020/01/31 01:27:16.6	99.810	0.370	-0.580	2.070
2020/01/31 01:27:16.7	99.820	0.370	-0.570	2.040
2020/01/31 01:27:16.8	99.820	0.360	-0.550	2.000
2020/01/31 01:27:16.9	99.830	0.350	-0.530	1.970
2020/01/31 01:27:17.0	99.840	0.330	-0.500	1.920
2020/01/31 01:27:17.1	99.850	0.320	-0.470	1.880
2020/01/31 01:27:17.2	99.850	0.300	-0.430	1.840
2020/01/31 01:27:17.3	99.850	0.280	-0.400	1.800
2020/01/31 01:27:17.4	99.860	0.260	-0.360	1.750
2020/01/31 01:27:17.5	99.860	0.240	-0.320	1.710
2020/01/31 01:27:17.6	99.860	0.220	-0.270	1.660
2020/01/31 01:27:17.7	99.860	0.200	-0.230	1.610
2020/01/31 01:27:17.8	99.870	0.170	-0.180	1.560
2020/01/31 01:27:17.9	99.870	0.150	-0.140	1.520
2020/01/31 01:27:18.0	99.870	0.120	-0.090	1.470
2020/01/31 01:27:18.1	99.870	0.100	-0.040	1.420
2020/01/31 01:27:18.2	99.870	0.070	0.010	1.370
2020/01/31 01:27:18.3	99.870	0.050	0.050	1.330
2020/01/31 01:27:18.4	99.870	0.020	0.090	1.280
2020/01/31 01:27:18.5	99.870	-0.010	0.130	1.230
2020/01/31 01:27:18.6	99.860	-0.030	0.170	1.190
2020/01/31 01:27:18.7	99.850	-0.060	0.210	1.150
2020/01/31 01:27:18.8	99.850	-0.080	0.240	1.100
2020/01/31 01:27:18.9	99.840	-0.100	0.270	1.060
2020/01/31 01:27:19.0	99.820	-0.120	0.300	1.020
2020/01/31 01:27:19.1	99.810	-0.150	0.320	0.980
2020/01/31 01:27:19.2	99.800	-0.160	0.340	0.950
2020/01/31 01:27:19.3	99.780	-0.180	0.360	0.910
2020/01/31 01:27:19.4	99.770	-0.200	0.370	0.880
2020/01/31 01:27:19.5	99.750	-0.220	0.380	0.850
2020/01/31 01:27:19.6	99.730	-0.230	0.380	0.820
2020/01/31 01:27:19.7	99.710	-0.240	0.380	0.790
2020/01/31 01:27:19.8	99.690	-0.250	0.380	0.760
2020/01/31 01:27:19.9	99.670	-0.260	0.370	0.740
2020/01/31 01:27:20.0	99.650	-0.270	0.360	0.720
2020/01/31 01:27:20.1	99.630	-0.280	0.340	0.690
2020/01/31 01:27:20.2	99.600	-0.280	0.320	0.670
2020/01/31 01:27:20.3	99.580	-0.290	0.300	0.650
2020/01/31 01:27:20.4	99.550	-0.290	0.270	0.640
2020/01/31 01:27:20.5	99.530	-0.290	0.250	0.620
2020/01/31 01:27:20.6	99.500	-0.290	0.210	0.600
2020/01/31 01:27:20.7	99.480	-0.290	0.180	0.590
2020/01/31 01:27:20.8	99.450	-0.290	0.150	0.570
2020/01/31 01:27:20.9	99.430	-0.280	0.110	0.560
2020/01/31 01:27:21.0	99.390	-0.280	0.070	0.540
2020/01/31 01:27:21.1	99.370	-0.280	0.030	0.530
2020/01/31 01:27:21.2	99.340	-0.270	-0.010	0.510
2020/01/31 01:27:21.3	99.320	-0.260	-0.050	0.500
2020/01/31 01:27:21.4	99.300	-0.260	-0.090	0.490
2020/01/31 01:27:21.5	99.280	-0.250	-0.130	0.470
2020/01/31 01:27:21.6	99.260	-0.240	-0.170	0.460
2020/01/31 01:27:21.7	99.250	-0.230	-0.210	0.450
2020/01/31 01:27:21.8	99.230	-0.220	-0.250	0.430
2020/01/31 01:27:21.9	99.220	-0.210	-0.280	0.420
2020/01/31 01:27:22.0	99.220	-0.200	-0.320	0.400
2020/01/31 01:27:22.1	99.210	-0.190	-0.350	0.390
2020/01/31 01:27:22.2	99.200	-0.180	-0.390	0.370
2020/01/31 01:27:22.3	99.200	-0.170	-0.420	0.350
2020/01/31 01:27:22.4	99.190	-0.160	-0.440	0.340
2020/01/31 01:27:22.5	99.190	-0.150	-0.470	0.320
2020/01/31 01:27:22.6	99.200	-0.140	-0.490	0.300
2020/01/31 01:27:22.7	99.200	-0.130	-0.510	0.290
2020/01/31 01:27:22.8	99.200	-0.120	-0.530	0.270
2020/01/31 01:27:22.9	99.210	-0.110	-0.550	0.250
2020/01/31 01:27:23.0	99.220	-0.100	-0.560	0.240
2020/01/31 01:27:23.1	99.230	-0.090	-0.570	0.230
2020/01/31 01:27:23.2	99.230	-0.080	-0.580	0.210
2020/01/31 01:27:23.3	99.240	-0.060	-0.580	0.210
2020/01/31 01:27:23.4	99.250	-0.050	-0.580	0.200
2020/01/31 01:27:23.5	99.250	-0.040	-0.580	0.190
2020/01/31 01:27:23.6	99.260	-0.030	-0.570	0.190
2020/01/31 01:27:23.7	99.260	-0.020	-0.560	0.180
2020/01/31 01:27:23.8	99.270	-0.010	-0.550	0.180
2020/01/31 01:27:23.9	99.280	0.000	-0.540	0.180
2020/01/31 01:27:24.0	99.290	0.010	-0.520	0.190
2020/01/31 01:27:24.1	99.290	0.030	-0.500	0.190
2020/01/31 01:27:24.2	99.300	0.040	-0.490	0.190
2020/01/31 01:27:24.3	99.300	0.050	-0.460	0.200
2020/01/31 01:27:24.4	99.310	0.060	-0.440	0.200
2020/01/31 01:27:24.5	99.310	0.070	-0.420	0.210
2020/01/31 01:27:24.6	99.320	0.070	-0.390	0.220
2020/01/31 01:27:24.7	99.320	0.080	-0.360	0.230
2020/01/31 01:27:24.8	99.330	0.090	-0.330	0.240
2020/01/31 01:27:24.9	99.330	0.100	-0.300	0.250
2020/01/31 01:27:25.0	99.330	0.100	-0.270	0.260
2020/01/31 01:27:25.1	99.330	0.110	-0.240	0.270
2020/01/31 01:27:25.2	99.330	0.120	-0.210	0.280
2020/01/31 01:27:25.3	99.330	0.120	-0.170	0.300
2020/01/31 01:27:25.4	99.330	0.120	-0.140	0.310
2020/01/31 01:27:25.5	99.330	0.120	-0.110	0.330
2020/01/31 01:27:25.6	99.330	0.130	-0.080	0.350
2020/01/31 01:27:25.7	99.330	0.130	-0.040	0.370
2020/01/31 01:27:25.8	99.330	0.130	-0.010	0.390
2020/01/31 01:27:25.9	99.320	0.120	0.020	0.420
2020/01/31 01:27:26.0	99.300	0.120	0.050	0.450
2020/01/31 01:27:26.1	99.290	0.120	0.080	0.480
2020/01/31 01:27:26.2	99.280	0.110	0.100	0.510
2020/01/31 01:27:26.3	99.270	0.110	0.130	0.550
2020/01/31 01:27:26.4	99.250	0.100	0.150	0.580
2020/01/31 01:27:26.5	99.240	0.100	0.170	0.620
2020/01/31 01:27:26.6	99.220	0.090	0.180	0.670
2020/01/31 01:27:26.7	99.200	0.080	0.200	0.710
2020/01/31 01:27:26.8	99.180	0.080	0.210	0.760
2020/01/31 01:27:26.9	99.160	0.070	0.220	0.810
2020/01/31 01:27:27.0	99.140	0.060	0.230	0.870
2020/01/31 01:27:27.1	99.120	0.050	0.230	0.920
2020/01/31 01:27:27.2	99.100	0.040	0.230	0.980
2020/01/31 01:27:27.3	99.070	0.030	0.220	1.030
2020/01/31 01:27:27.4	99.050	0.020	0.220	1.090
2020/01/31 01:27:27.5	99.030	0.020	0.210	1.150
2020/01/31 01:27:27.6	99.010	0.010	0.190	1.200
2020/01/31 01:27:27.7	98.990	-0.000	0.180	1.260
2020/01/31 01:27:27.8	98.960	-0.010	0.160	1.310
2020/01/31 01:27:27.9	98.940	-0.020	0.140	1.370
2020/01/31 01:27:28.0	98.940	-0.030	0.110	1.430
2020/01/31 01:27:28.1	98.920	-0.030	0.090	1.480
2020/01/31 01:27:28.2	98.900	-0.040	0.060	1.530
2020/01/31 01:27:28.3	98.890	-0.050	0.030	1.580
2020/01/31 01:27:28.4	98.880	-0.050	0.000	1.630
2020/01/31 01:27:28.5	98.860	-0.060	-0.030	1.670
2020/01/31 01:27:28.6	98.850	-0.060	-0.060	1.710
2020/01/31 01:27:28.7	98.840	-0.060	-0.100	1.760
2020/01/31 01:27:28.8	98.830	-0.070	-0.130	1.800
2020/01/31 01:27:28.9	98.830	-0.070	-0.170	1.830
2020/01/31 01:27:29.0	98.800	-0.070	-0.210	1.870
2020/01/31 01:27:29.1	98.790	-0.070	-0.240	1.900
2020/01/31 01:27:29.2	98.790	-0.070	-0.280	1.930
2020/01/31 01:27:29.3	98.780	-0.070	-0.310	1.960
2020/01/31 01:27:29.4	98.780	-0.070	-0.340	1.990
2020/01/31 01:27:29.5	98.780	-0.070	-0.370	2.020
2020/01/31 01:27:29.6	98.770	-0.060	-0.400	2.040
2020/01/31 01:27:29.7	98.770	-0.060	-0.430	2.060
2020/01/31 01:27:29.8	98.770	-0.050	-0.460	2.080
2020/01/31 01:27:29.9	98.770	-0.050	-0.480	2.100
2020/01/31 01:27:30.0	98.760	-0.040	-0.500	2.110
2020/01/31 01:27:30.1	98.760	-0.030	-0.520	2.130
2020/01/31 01:27:30.2	98.750	-0.030	-0.540	2.140
2020/01/31 01:27:30.3	98.750	-0.020	-0.550	2.150
2020/01/31 01:27:30.4	98.750	-0.010	-0.570	2.160
2020/01/31 01:27:30.5	98.750	0.000	-0.580	2.160
2020/01/31 01:27:30.6	98.740	0.010	-0.580	2.170
2020/01/31 01:27:30.7	98.740	0.020	-0.590	2.170
2020/01/31 01:27:30.8	98.740	0.030	-0.590	2.170
2020/01/31 01:27:30.9	98.740	0.040	-0.590	2.170
2020/01/31 01:27:31.0	98.740	0.050	-0.580	2.170
2020/01/31 01:27:31.1	98.740	0.070	-0.580	2.160
2020/01/31 01:27:31.2	98.730	0.080	-0.570	2.160
2020/01/31 01:27:31.3	98.730	0.090	-0.560	2.150
2020/01/31 01:27:31.4	98.730	0.100	-0.550	2.140
2020/01/31 01:27:31.5	98.720	0.110	-0.540	2.130
2020/01/31 01:27:31.6	98.720	0.120	-0.520	2.120
2020/01/31 01:27:31.7	98.720	0.140	-0.500	2.100
2020/01/31 01:27:31.8	98.720	0.150	-0.490	2.090
2020/01/31 01:27:31.9	98.710	0.160	-0.470	2.070
2020/01/31 01:27:32.0	98.710	0.170	-0.450	2.050
2020/01/31 01:27:32.1	98.700	0.180	-0.420	2.040
2020/01/31 01:27:32.2	98.700	0.180	-0.400	2.020
2020/01/31 01:27:32.3	98.700	0.190	-0.380	2.000
2020/01/31 01:27:32.4	98.690	0.200	-0.350	1.970
2020/01/31 01:27:32.5	98.690	0.200	-0.320	1.950
2020/01/31 01:27:32.6	98.680	0.210	-0.300	1.920
2020/01/31 01:27:32.7	98.680	0.210	-0.270	1.900
2020/01/31 01:27:32.8	98.680	0.220	-0.240	1.870
2020/01/31 01:27:32.9	98.670	0.220	-0.210	1.840
2020/01/31 01:27:33.0	98.660	0.220	-0.180	1.810
2020/01/31 01:27:33.1	98.650	0.220	-0.150	1.770
2020/01/31 01:27:33.2	98.650	0.210	-0.110	1.740
2020/01/31 01:27:33.3	98.640	0.210	-0.080	1.700
2020/01/31 01:27:33.4	98.640	0.200	-0.040	1.670
2020/01/31 01:27:33.5	98.630	0.200	-0.010	1.630
2020/01/31 01:27:33.6	98.630	0.190	0.030	1.590
2020/01/31 01:27:33.7	98.620	0.180	0.070	1.550
2020/01/31 01:27:33.8	98.610	0.170	0.100	1.500
2020/01/31 01:27:33.9	98.610	0.160	0.140	1.460
2020/01/31 01:27:34.0	98.620	0.140	0.180	1.410
2020/01/31 01:27:34.1	98.610	0.130	0.220	1.360
2020/01/31 01:27:34.2	98.600	0.110	0.260	1.320
2020/01/31 01:27:34.3	98.590	0.100	0.290	1.270
2020/01/31 01:27:34.4	98.580	0.080	0.330	1.220
2020/01/31 01:27:34.5	98.570	0.060	0.360	1.160
2020/01/31 01:27:34.6	98.570	0.040	0.390	1.110
2020/01/31 01:27:34.7	98.560	0.020	0.430	1.060
2020/01/31 01:27:34.8	98.550	0.000	0.460	1.000
2020/01/31 01:27:34.9	98.550	-0.020	0.480	0.950
2020/01/31 01:27:35.0	98.550	-0.040	0.510	0.890
2020/01/31 01:27:35.1	98.540	-0.060	0.530	0.840
2020/01/31 01:27:35.2	98.540	-0.080	0.550	0.780
2020/01/31 01:27:35.3	98.540	-0.100	0.560	0.720
2020/01/31 01:27:35.4	98.540	-0.120	0.570	0.660
2020/01/31 01:27:35.5	98.540	-0.140	0.580	0.610
2020/01/31 01:27:35.6	98.540	-0.160	0.580	0.550
2020/01/31 01:27:35.7	98.550	-0.180	0.580	0.490
2020/01/31 01:27:35.8	98.550	-0.190	0.580	0.440
2020/01/31 01:27:35.9	98.560	-0.210	0.570	0.380
2020/01/31 01:27:36.0	98.560	-0.220	0.550	0.330
2020/01/31 01:27:36.1	98.570	-0.230	0.530	0.270
2020/01/31 01:27:36.2	98.580	-0.240	0.510	0.220
2020/01/31 01:27:36.3	98.590	-0.240	0.480	0.170
2020/01/31 01:27:36.4	98.600	-0.250	0.440	0.120
2020/01/31 01:27:36.5	98.610	-0.250	0.400	0.070
2020/01/31 01:27:36.6	98.620	-0.250	0.360	0.020
2020/01/31 01:27:36.7	98.630	-0.250	0.320	-0.020
2020/01/31 01:27:36.8	98.640	-0.240	0.260	-0.060
2020/01/31 01:27:36.9	98.660	-0.240	0.210	-0.100
2020/01/31 01:27:37.0	98.670	-0.230	0.150	-0.140
2020/01/31 01:27:37.1	98.680	-0.220	0.090	-0.170
2020/01/31 01:27:37.2	98.690	-0.210	0.030	-0.200
2020/01/31 01:27:37.3	98.700	-0.190	-0.040	-0.230
2020/01/31 01:27:37.4	98.710	-0.180	-0.100	-0.250
2020/01/31 01:27:37.5	98.720	-0.160	-0.170	-0.270
2020/01/31 01:27:37.6	98.730	-0.140	-0.240	-0.290
2020/01/31 01:27:37.7	98.740	-0.130	-0.310	-0.300
2020/01/31 01:27:37.8	98.740	-0.110	-0.380	-0.310
2020/01/31 01:27:37.9	98.750	-0.090	-0.450	-0.310
2020/01/31 01:27:38.0	98.770	-0.070	-0.520	-0.310
2020/01/31 01:27:38.1	98.770	-0.050	-0.580	-0.300
2020/01/31 01:27:38.2	98.770	-0.030	-0.640	-0.300
2020/01/31 01:27:38.3	98.770	-0.020	-0.700	-0.280
2020/01/31 01:27:38.4	98.770	-0.000	-0.750	-0.270
2020/01/31 01:27:38.5	98.770	0.010	-0.800	-0.250
2020/01/31 01:27:38.6	98.760	0.030	-0.850	-0.220
2020/01/31 01:27:38.7	98.750	0.040	-0.890	-0.190
2020/01/31 01:27:38.8	98.750	0.050	-0.920	-0.160
2020/01/31 01:27:38.9	98.740	0.060	-0.950	-0.120
2020/01/31 01:27:39.0	98.720	0.060	-0.970	-0.080
2020/01/31 01:27:39.1	98.710	0.070	-0.990	-0.040
2020/01/31 01:27:39.2	98.700	0.070	-1.000	0.010
2020/01/31 01:27:39.3	98.680	0.070	-1.010	0.060
2020/01/31 01:27:39.4	98.670	0.060	-1.000	0.110
2020/01/31 01:27:39.5	98.650	0.060	-1.000	0.160
2020/01/31 01:27:39.6	98.640	0.050	-0.980	0.220
2020/01/31 01:27:39.7	98.620	0.040	-0.960	0.280
2020/01/31 01:27:39.8	98.600	0.030	-0.940	0.340
2020/01/31 01:27:39.9	98.580	0.010	-0.900	0.410
2020/01/31 01:27:40.0	98.560	-0.000	-0.870	0.480
2020/01/31 01:27:40.1	98.540	-0.020	-0.830	0.550
2020/01/31 01:27:40.2	98.520	-0.040	-0.780	0.620
2020/01/31 01:27:40.3	98.500	-0.060	-0.730	0.700
2020/01/31 01:27:40.4	98.480	-0.080	-0.680	0.770
2020/01/31 01:27:40.5	98.460	-0.100	-0.620	0.850
2020/01/31 01:27:40.6	98.440	-0.120	-0.560	0.930
2020/01/31 01:27:40.7	98.410	-0.140	-0.500	1.010
2020/01/31 01:27:40.8	98.390	-0.170	-0.430	1.090
2020/01/31 01:27:40.9	98.370	-0.190	-0.370	1.170
2020/01/31 01:27:41.0	98.330	-0.210	-0.300	1.260
2020/01/31 01:27:41.1	98.310	-0.230	-0.230	1.330
2020/01/31 01:27:41.2	98.290	-0.250	-0.170	1.410
2020/01/31 01:27:41.3	98.270	-0.270	-0.100	1.480
2020/01/31 01:27:41.4	98.250	-0.280	-0.040	1.550
2020/01/31 01:27:41.5	98.230	-0.300	0.020	1.620
2020/01/31 01:27:41.6	98.210	-0.310	0.080	1.680
2020/01/31 01:27:41.7	98.200	-0.320	0.140	1.740
2020/01/31 01:27:41.8	98.190	-0.330	0.190	1.790
2020/01/31 01:27:41.9	98.170	-0.330	0.240	1.840
2020/01/31 01:27:42.0	98.150	-0.330	0.290	1.880
2020/01/31 01:27:42.1	98.150	-0.330	0.330	1.910
2020/01/31 01:27:42.2	98.140	-0.320	0.360	1.940
2020/01/31 01:27:42.3	98.140	-0.310	0.390	1.960
2020/01/31 01:27:42.4	98.130	-0.300	0.410	1.980
2020/01/31 01:27:42.5	98.140	-0.280	0.420	1.990
2020/01/31 01:27:42.6	98.140	-0.260	0.430	2.000
2020/01/31 01:27:42.7	98.140	-0.240	0.440	2.000
2020/01/31 01:27:42.8	98.150	-0.210	0.430	1.990
2020/01/31 01:27:42.9	98.160	-0.180	0.420	1.980
2020/01/31 01:27:43.0	98.170	-0.150	0.410	1.960
2020/01/31 01:27:43.1	98.180	-0.110	0.380	1.940
2020/01/31 01:27:43.2	98.190	-0.070	0.360	1.920
2020/01/31 01:27:43.3	98.210	-0.030	0.320	1.890
2020/01/31 01:27:43.4	98.230	0.010	0.280	1.860
2020/01/31 01:27:43.5	98.250	0.060	0.240	1.820
2020/01/31 01:27:43.6	98.270	0.110	0.190	1.790
2020/01/31 01:27:43.7	98.290	0.150	0.140	1.750
2020/01/31 01:27:43.8	98.310	0.200	0.090	1.710
2020/01/31 01:27:43.9	98.330	0.250	0.040	1.670
2020/01/31 01:27:44.0	98.350	0.300	-0.020	1.620
2020/01/31 01:27:44.1	98.370	0.350	-0.080	1.580
2020/01/31 01:27:44.2	98.390	0.390	-0.140	1.540
2020/01/31 01:27:44.3	98.420	0.440	-0.200	1.500
2020/01/31 01:27:44.4	98.440	0.480	-0.250	1.450
2020/01/31 01:27:44.5	98.460	0.520	-0.310	1.410
2020/01/31 01:27:44.6	98.480	0.560	-0.360	1.380
2020/01/31 01:27:44.7	98.500	0.590	-0.410	1.340
2020/01/31 01:27:44.8	98.520	0.620	-0.450	1.300
2020/01/31 01:27:44.9	98.540	0.650	-0.500	1.270
2020/01/31 01:27:45.0	98.550	0.680	-0.540	1.240
2020/01/31 01:27:45.1	98.570	0.700	-0.570	1.210
2020/01/31 01:27:45.2	98.580	0.710	-0.600	1.190
2020/01/31 01:27:45.3	98.580	0.720	-0.620	1.170
2020/01/31 01:27:45.4	98.590	0.730	-0.640	1.140
2020/01/31 01:27:45.5	98.590	0.730	-0.650	1.120
2020/01/31 01:27:45.6	98.590	0.720	-0.660	1.110
2020/01/31 01:27:45.7	98.590	0.710	-0.660	1.090
2020/01/31 01:27:45.8	98.580	0.700	-0.660	1.080
2020/01/31 01:27:45.9	98.570	0.680	-0.650	1.070
2020/01/31 01:27:46.0	98.570	0.660	-0.630	1.060
2020/01/31 01:27:46.1	98.550	0.630	-0.610	1.060
2020/01/31 01:27:46.2	98.540	0.600	-0.590	1.050
2020/01/31 01:27:46.3	98.520	0.560	-0.560	1.050
2020/01/31 01:27:46.4	98.510	0.520	-0.520	1.040
2020/01/31 01:27:46.5	98.490	0.470	-0.480	1.040
2020/01/31 01:27:46.6	98.470	0.420	-0.440	1.040
2020/01/31 01:27:46.7	98.440	0.370	-0.390	1.030
2020/01/31 01:27:46.8	98.420	0.320	-0.340	1.030
2020/01/31 01:27:46.9	98.400	0.260	-0.290	1.030
2020/01/31 01:27:47.0	98.370	0.200	-0.220	1.030
2020/01/31 01:27:47.1	98.350	0.140	-0.170	1.020
2020/01/31 01:27:47.2	98.320	0.080	-0.110	1.020
2020/01/31 01:27:47.3	98.290	0.020	-0.050	1.010
2020/01/31 01:27:47.4	98.270	-0.050	0.020	1.010
2020/01/31 01:27:47.5	98.240	-0.110	0.080	1.000
2020/01/31 01:27:47.6	98.220	-0.180	0.140	0.990
2020/01/31 01:27:47.7	98.190	-0.240	0.200	0.980
2020/01/31 01:27:47.8	98.170	-0.300	0.260	0.970
2020/01/31 01:27:47.9	98.140	-0.370	0.310	0.960
2020/01/31 01:27:48.0	98.120	-0.430	0.370	0.950
2020/01/31 01:27:48.1	98.100	-0.480	0.420	0.940
2020/01/31 01:27:48.2	98.070	-0.540	0.470	0.930
2020/01/31 01:27:48.3	98.050	-0.590	0.510	0.910
2020/01/31 01:27:48.4	98.030	-0.640	0.550	0.900
2020/01/31 01:27:48.5	98.010	-0.690	0.590	0.880
2020/01/31 01:27:48.6	97.990	-0.730	0.620	0.870
2020/01/31 01:27:48.7	97.970	-0.770	0.650	0.850
2020/01/31 01:27:48.8	97.950	-0.800	0.670	0.840
2020/01/31 01:27:48.9	97.930	-0.830	0.690	0.820
2020/01/31 01:27:49.0	97.910	-0.860	0.700	0.810
2020/01/31 01:27:49.1	97.890	-0.880	0.710	0.790
2020/01/31 01:27:49.2	97.880	-0.890	0.710	0.780
2020/01/31 01:27:49.3	97.870	-0.910	0.700	0.770
2020/01/31 01:27:49.4	97.860	-0.910	0.690	0.760
2020/01/31 01:27:49.5	97.850	-0.910	0.670	0.750
2020/01/31 01:27:49.6	97.840	-0.910	0.650	0.740
2020/01/31 01:27:49.7	97.840	-0.900	0.620	0.730
2020/01/31 01:27:49.8	97.840	-0.890	0.590	0.720
2020/01/31 01:27:49.9	97.840	-0.870	0.550	0.710
2020/01/31 01:27:50.0	97.850	-0.850	0.500	0.700
2020/01/31 01:27:50.1	97.850	-0.830	0.460	0.690
2020/01/31 01:27:50.2	97.860	-0.800	0.400	0.680
2020/01/31 01:27:50.3	97.860	-0.770	0.350	0.670
2020/01/31 01:27:50.4	97.870	-0.730	0.290	0.670
2020/01/31 01:27:50.5	97.890	-0.690	0.220	0.660
2020/01/31 01:27:50.6	97.900	-0.650	0.160	0.650
2020/01/31 01:27:50.7	97.920	-0.600	0.090	0.640
2020/01/31 01:27:50.8	97.930	-0.560	0.020	0.630
2020/01/31 01:27:50.9	97.950	-0.510	-0.060	0.620
2020/01/31 01:27:51.0	97.960	-0.460	-0.130	0.610
2020/01/31 01:27:51.1	97.980	-0.400	-0.210	0.590
2020/01/31 01:27:51.2	98.000	-0.350	-0.280	0.580
2020/01/31 01:27:51.3	98.030	-0.300	-0.360	0.570
2020/01/31 01:27:51.4	98.060	-0.240	-0.430	0.550
2020/01/31 01:27:51.5	98.080	-0.190	-0.500	0.540
2020/01/31 01:27:51.6	98.110	-0.130	-0.570	0.520
2020/01/31 01:27:51.7	98.140	-0.080	-0.640	0.500
2020/01/31 01:27:51.8	98.170	-0.030	-0.710	0.490
2020/01/31 01:27:51.9	98.200	0.030	-0.770	0.470
2020/01/31 01:27:52.0	98.220	0.080	-0.830	0.460
2020/01/31 01:27:52.1	98.250	0.130	-0.890	0.440
2020/01/31 01:27:52.2	98.280	0.170	-0.940	0.420
2020/01/31 01:27:52.3	98.300	0.220	-0.980	0.410
2020/01/31 01:27:52.4	98.330	0.260	-1.020	0.400
2020/01/31 01:27:52.5	98.350	0.300	-1.060	0.380
2020/01/31 01:27:52.6	98.370	0.340	-1.080	0.370
2020/01/31 01:27:52.7	98.380	0.380	-1.110	0.360
2020/01/31 01:27:52.8	98.400	0.410	-1.120	0.360
2020/01/31 01:27:52.9	98.410	0.440	-1.130	0.350
2020/01/31 01:27:53.0	98.410	0.470	-1.130	0.350
2020/01/31 01:27:53.1	98.420	0.490	-1.130	0.350
2020/01/31 01:27:53.2	98.420	0.510	-1.120	0.360
2020/01/31 01:27:53.3	98.420	0.530	-1.110	0.370
2020/01/31 01:27:53.4	98.420	0.540	-1.090	0.380
2020/01/31 01:27:53.5	98.420	0.550	-1.060	0.390
2020/01/31 01:27:53.6	98.410	0.560	-1.030	0.410
2020/01/31 01:27:53.7	98.400	0.570	-0.990	0.430
2020/01/31 01:27:53.8	98.390	0.570	-0.950	0.450
2020/01/31 01:27:53.9	98.380	0.570	-0.900	0.480
2020/01/31 01:27:54.0	98.350	0.570	-0.860	0.510
2020/01/31 01:27:54.1	98.340	0.560	-0.800	0.550
2020/01/31 01:27:54.2	98.320	0.550	-0.740	0.580
2020/01/31 01:27:54.3	98.300	0.540	-0.680	0.620
2020/01/31 01:27:54.4	98.280	0.530	-0.620	0.670
2020/01/31 01:27:54.5	98.250	0.510	-0.550	0.710
2020/01/31 01:27:54.6	98.230	0.500	-0.490	0.760
2020/01/31 01:27:54.7	98.210	0.480	-0.420	0.810
2020/01/31 01:27:54.8	98.180	0.460	-0.350	0.860
2020/01/31 01:27:54.9	98.160	0.440	-0.280	0.920
2020/01/31 01:27:55.0	98.140	0.420	-0.200	0.970
2020/01/31 01:27:55.1	98.110	0.400	-0.130	1.020
2020/01/31 01:27:55.2	98.080	0.370	-0.060	1.080
2020/01/31 01:27:55.3	98.050	0.350	0.010	1.140
2020/01/31 01:27:55.4	98.020	0.320	0.070	1.200
2020/01/31 01:27:55.5	98.000	0.290	0.140	1.250
2020/01/31 01:27:55.6	97.970	0.270	0.200	1.310
2020/01/31 01:27:55.7	97.940	0.240	0.260	1.370
2020/01/31 01:27:55.8	97.910	0.210	0.320	1.430
2020/01/31 01:27:55.9	97.870	0.190	0.370	1.480
2020/01/31 01:27:56.0	97.840	0.160	0.420	1.540
2020/01/31 01:27:56.1	97.800	0.130	0.460	1.590
2020/01/31 01:27:56.2	97.770	0.110	0.500	1.640
2020/01/31 01:27:56.3	97.740	0.080	0.540	1.690
2020/01/31 01:27:56.4	97.710	0.050	0.570	1.730
2020/01/31 01:27:56.5	97.680	0.030	0.590	1.770
2020/01/31 01:27:56.6	97.660	0.010	0.610	1.800
2020/01/31 01:27:56.7	97.630	-0.020	0.630	1.830
2020/01/31 01:27:56.8	97.600	-0.040	0.640	1.860
2020/01/31 01:27:56.9	97.580	-0.060	0.650	1.880
2020/01/31 01:27:57.0	97.550	-0.080	0.650	1.890
2020/01/31 01:27:57.1	97.530	-0.100	0.640	1.910
2020/01/31 01:27:57.2	97.510	-0.120	0.630	1.910
2020/01/31 01:27:57.3	97.490	-0.140	0.620	1.920
2020/01/31 01:27:57.4	97.470	-0.150	0.600	1.910
2020/01/31 01:27:57.5	97.460	-0.160	0.570	1.900
2020/01/31 01:27:57.6	97.440	-0.180	0.550	1.890
2020/01/31 01:27:57.7	97.430	-0.190	0.510	1.870
2020/01/31 01:27:57.8	97.420	-0.200	0.480	1.850
2020/01/31 01:27:57.9	97.410	-0.200	0.440	1.830
2020/01/31 01:27:58.0	97.420	-0.210	0.400	1.800
2020/01/31 01:27:58.1	97.420	-0.210	0.350	1.760
2020/01/31 01:27:58.2	97.420	-0.220	0.300	1.730
2020/01/31 01:27:58.3	97.420	-0.220	0.260	1.680
2020/01/31 01:27:58.4	97.420	-0.210	0.210	1.640
2020/01/31 01:27:58.5	97.430	-0.210	0.150	1.590
2020/01/31 01:27:58.6	97.440	-0.210	0.100	1.540
2020/01/31 01:27:58.7	97.450	-0.200	0.050	1.490
2020/01/31 01:27:58.8	97.460	-0.190	-0.010	1.440
2020/01/31 01:27:58.9	97.470	-0.180	-0.060	1.390
2020/01/31 01:27:59.0	97.500	-0.170	-0.120	1.340
2020/01/31 01:27:59.1	97.510	-0.160	-0.170	1.290
2020/01/31 01:27:59.2	97.530	-0.150	-0.220	1.230
2020/01/31 01:27:59.3	97.550	-0.140	-0.280	1.180
2020/01/31 01:27:59.4	97.570	-0.120	-0.330	1.130
2020/01/31 01:27:59.5	97.590	-0.110	-0.370	1.080
2020/01/31 01:27:59.6	97.610	-0.090	-0.420	1.020
2020/01/31 01:27:59.7	97.630	-0.080	-0.460	0.980
2020/01/31 01:27:59.8	97.660	-0.070	-0.500	0.930
2020/01/31 01:27:59.9	97.680	-0.050	-0.540	0.880
2020/01/31 01:28:00.0	97.710	-0.040	-0.570	0.840
2020/01/31 01:28:00.1	97.730	-0.020	-0.600	0.800
2020/01/31 01:28:00.2	97.760	-0.010	-0.630	0.760
2020/01/31 01:28:00.3	97.780	0.000	-0.650	0.720
2020/01/31 01:28:00.4	97.800	0.020	-0.670	0.690
2020/01/31 01:28:00.5	97.830	0.030	-0.680	0.650
2020/01/31 01:28:00.6	97.850	0.040	-0.690	0.630
2020/01/31 01:28:00.7	97.870	0.050	-0.700	0.600
2020/01/31 01:28:00.8	97.890	0.050	-0.700	0.580
2020/01/31 01:28:00.9	97.910	0.060	-0.700	0.550
2020/01/31 01:28:01.0	97.910	0.070	-0.690	0.540
2020/01/31 01:28:01.1	97.930	0.070	-0.680	0.520
2020/01/31 01:28:01.2	97.940	0.080	-0.670	0.510
2020/01/31 01:28:01.3	97.950	0.080	-0.660	0.500
2020/01/31 01:28:01.4	97.970	0.080	-0.640	0.490
2020/01/31 01:28:01.5	97.980	0.080	-0.610	0.490
2020/01/31 01:28:01.6	97.980	0.080	-0.590	0.490
2020/01/31 01:28:01.7	97.990	0.080	-0.560	0.490
2020/01/31 01:28:01.8	97.990	0.080	-0.530	0.500
2020/01/31 01:28:01.9	98.000	0.080	-0.500	0.500
2020/01/31 01:28:02.0	98.000	0.070	-0.470	0.510
2020/01/31 01:28:02.1	98.000	0.070	-0.430	0.530
2020/01/31 01:28:02.2	98.000	0.070	-0.400	0.540
2020/01/31 01:28:02.3	97.990	0.060	-0.360	0.560
2020/01/31 01:28:02.4	97.990	0.060	-0.330	0.570
2020/01/31 01:28:02.5	97.980	0.050	-0.290	0.590
2020/01/31 01:28:02.6	97.970	0.050	-0.260	0.610
2020/01/31 01:28:02.7	97.970	0.040	-0.230	0.640
2020/01/31 01:28:02.8	97.960	0.030	-0.190	0.660
2020/01/31 01:28:02.9	97.940	0.030	-0.160	0.690
2020/01/31 01:28:03.0	97.930	0.020	-0.130	0.710
2020/01/31 01:28:03.1	97.910	0.010	-0.100	0.740
2020/01/31 01:28:03.2	97.900	0.010	-0.070	0.770
2020/01/31 01:28:03.3	97.890	-0.000	-0.050	0.800
2020/01/31 01:28:03.4	97.870	-0.010	-0.020	0.830
2020/01/31 01:28:03.5	97.860	-0.020	-0.000	0.850
2020/01/31 01:28:03.6	97.840	-0.020	0.020	0.880
2020/01/31 01:28:03.7	97.820	-0.030	0.040	0.910
2020/01/31 01:28:03.8	97.810	-0.040	0.060	0.940
2020/01/31 01:28:03.9	97.790	-0.050	0.070	0.970
2020/01/31 01:28:04.0	97.780	-0.050	0.090	1.000
2020/01/31 01:28:04.1	97.760	-0.060	0.100	1.030
2020/01/31 01:28:04.2	97.750	-0.070	0.120	1.050
2020/01/31 01:28:04.3	97.740	-0.080	0.130	1.080
2020/01/31 01:28:04.4	97.730	-0.080	0.140	1.100
2020/01/31 01:28:04.5	97.710	-0.090	0.150	1.130
2020/01/31 01:28:04.6	97.700	-0.100	0.160	1.150
2020/01/31 01:28:04.7	97.690	-0.110	0.170	1.170
2020/01/31 01:28:04.8	97.690	-0.120	0.180	1.190
2020/01/31 01:28:04.9	97.680	-0.120	0.190	1.200
2020/01/31 01:28:05.0	97.660	-0.130	0.190	1.220
2020/01/31 01:28:05.1	97.650	-0.140	0.200	1.240
2020/01/31 01:28:05.2	97.650	-0.150	0.210	1.250
2020/01/31 01:28:05.3	97.640	-0.160	0.210	1.260
2020/01/31 01:28:05.4	97.640	-0.160	0.220	1.270
2020/01/31 01:28:05.5	97.630	-0.170	0.220	1.270
2020/01/31 01:28:05.6	97.630	-0.180	0.230	1.280
2020/01/31 01:28:05.7	97.620	-0.190	0.230	1.280
2020/01/31 01:28:05.8	97.620	-0.190	0.230	1.280
2020/01/31 01:28:05.9	97.620	-0.200	0.240	1.280
2020/01/31 01:28:06.0	97.620	-0.200	0.240	1.290
2020/01/31 01:28:06.1	97.610	-0.210	0.240	1.280
2020/01/31 01:28:06.2	97.610	-0.210	0.230	1.270
2020/01/31 01:28:06.3	97.600	-0.220	0.230	1.270
2020/01/31 01:28:06.4	97.600	-0.220	0.220	1.260
2020/01/31 01:28:06.5	97.600	-0.220	0.210	1.250
2020/01/31 01:28:06.6	97.590	-0.220	0.200	1.230
2020/01/31 01:28:06.7	97.590	-0.220	0.190	1.220
2020/01/31 01:28:06.8	97.590	-0.220	0.180	1.200
2020/01/31 01:28:06.9	97.580	-0.210	0.160	1.180
2020/01/31 01:28:07.0	97.570	-0.210	0.140	1.160
2020/01/31 01:28:07.1	97.570	-0.200	0.120	1.140
2020/01/31 01:28:07.2	97.570	-0.190	0.090	1.120
2020/01/31 01:28:07.3	97.560	-0.180	0.060	1.100
2020/01/31 01:28:07.4	97.560	-0.170	0.030	1.070
2020/01/31 01:28:07.5	97.560	-0.150	0.000	1.050
2020/01/31 01:28:07.6	97.550	-0.140	-0.030	1.020
2020/01/31 01:28:07.7	97.550	-0.120	-0.070	1.000
2020/01/31 01:28:07.8	97.550	-0.100	-0.110	0.970
2020/01/31 01:28:07.9	97.550	-0.080	-0.150	0.940
2020/01/31 01:28:08.0	97.570	-0.060	-0.190	0.910
2020/01/31 01:28:08.1	97.570	-0.030	-0.240	0.880
2020/01/31 01:28:08.2	97.570	-0.010	-0.290	0.850
2020/01/31 01:28:08.3	97.570	0.020	-0.330	0.820
2020/01/31 01:28:08.4	97.570	0.050	-0.380	0.790
2020/01/31 01:28:08.5	97.580	0.080	-0.430	0.760
2020/01/31 01:28:08.6	97.580	0.100	-0.480	0.730
2020/01/31 01:28:08.7	97.590	0.130	-0.530	0.690
2020/01/31 01:28:08.8	97.590	0.170	-0.580	0.660
2020/01/31 01:28:08.9	97.600	0.200	-0.630	0.630
2020/01/31 01:28:09.0	97.590	0.230	-0.680	0.600
2020/01/31 01:28:09.1	97.590	0.260	-0.730	0.570
2020/01/31 01:28:09.2	97.600	0.280	-0.770	0.550
2020/01/31 01:28:09.3	97.610	0.310	-0.810	0.520
2020/01/31 01:28:09.4	97.610	0.340	-0.840	0.500
2020/01/31 01:28:09.5	97.620	0.360	-0.880	0.480
2020/01/31 01:28:09.6	97.630	0.390	-0.900	0.460
2020/01/31 01:28:09.7	97.630	0.410	-0.930	0.450
2020/01/31 01:28:09.8	97.640	0.430	-0.940	0.440
2020/01/31 01:28:09.9	97.650	0.440	-0.960	0.430
2020/01/31 01:28:10.0	97.670	0.460	-0.960	0.430
2020/01/31 01:28:10.1	97.670	0.470	-0.960	0.430
2020/01/31 01:28:10.2	97.680	0.470	-0.950	0.430
2020/01/31 01:28:10.3	97.680	0.480	-0.940	0.440
2020/01/31 01:28:10.4	97.690	0.480	-0.920	0.450
2020/01/31 01:28:10.5	97.690	0.470	-0.900	0.460
2020/01/31 01:28:10.6	97.690	0.460	-0.860	0.480
2020/01/31 01:28:10.7	97.700	0.450	-0.820	0.500
2020/01/31 01:28:10.8	97.700	0.440	-0.770	0.530
2020/01/31 01:28:10.9	97.700	0.420	-0.720	0.550
2020/01/31 01:28:11.0	97.700	0.390	-0.660	0.590
2020/01/31 01:28:11.1	97.700	0.360	-0.600	0.620
2020/01/31 01:28:11.2	97.700	0.330	-0.520	0.660
2020/01/31 01:28:11.3	97.690	0.300	-0.450	0.690
2020/01/31 01:28:11.4	97.690	0.260	-0.370	0.730
2020/01/31 01:28:11.5	97.680	0.220	-0.280	0.770
2020/01/31 01:28:11.6	97.680	0.170	-0.200	0.810
2020/01/31 01:28:11.7	97.670	0.130	-0.110	0.850
2020/01/31 01:28:11.8	97.660	0.080	-0.010	0.900
2020/01/31 01:28:11.9	97.650	0.030	0.080	0.940
2020/01/31 01:28:12.0	97.640	-0.020	0.180	0.980
2020/01/31 01:28:12.1	97.630	-0.080	0.270	1.020
2020/01/31 01:28:12.2	97.620	-0.130	0.360	1.060
2020/01/31 01:28:12.3	97.610	-0.180	0.450	1.090
2020/01/31 01:28:12.4	97.600	-0.240	0.530	1.130
2020/01/31 01:28:12.5	97.590	-0.290	0.620	1.160
2020/01/31 01:28:12.6	97.580	-0.340	0.690	1.190
2020/01/31 01:28:12.7	97.570	-0.390	0.760	1.220
2020/01/31 01:28:12.8	97.550	-0.440	0.830	1.240
2020/01/31 01:28:12.9	97.540	-0.480	0.890	1.260
2020/01/31 01:28:13.0	97.530	-0.520	0.940	1.280
2020/01/31 01:28:13.1	97.520	-0.560	0.980	1.300
2020/01/31 01:28:13.2	97.510	-0.600	1.020	1.310
2020/01/31 01:28:13.3	97.490	-0.630	1.040	1.320
2020/01/31 01:28:13.4	97.480	-0.650	1.060	1.330
2020/01/31 01:28:13.5	97.460	-0.670	1.070	1.340
2020/01/31 01:28:13.6	97.450	-0.690	1.060	1.340
2020/01/31 01:28:13.7	97.440	-0.700	1.050	1.340
2020/01/31 01:28:13.8	97.420	-0.700	1.030	1.340
2020/01/31 01:28:13.9	97.410	-0.700	1.000	1.330
2020/01/31 01:28:14.0	97.410	-0.700	0.960	1.320
2020/01/31 01:28:14.1	97.390	-0.690	0.910	1.310
2020/01/31 01:28:14.2	97.380	-0.670	0.850	1.300
2020/01/31 01:28:14.3	97.370	-0.650	0.780	1.290
2020/01/31 01:28:14.4	97.350	-0.620	0.700	1.270
2020/01/31 01:28:14.5	97.340	-0.590	0.620	1.260
2020/01/31 01:28:14.6	97.330	-0.550	0.530	1.240
2020/01/31 01:28:14.7	97.320	-0.510	0.430	1.220
2020/01/31 01:28:14.8	97.310	-0.460	0.330	1.200
2020/01/31 01:28:14.9	97.300	-0.410	0.220	1.180
2020/01/31 01:28:15.0	97.300	-0.350	0.110	1.160
2020/01/31 01:28:15.1	97.290	-0.290	-0.010	1.140
2020/01/31 01:28:15.2	97.290	-0.230	-0.120	1.120
2020/01/31 01:28:15.3	97.280	-0.170	-0.240	1.090
2020/01/31 01:28:15.4	97.280	-0.100	-0.360	1.070
2020/01/31 01:28:15.5	97.280	-0.030	-0.470	1.040
2020/01/31 01:28:15.6	97.280	0.040	-0.590	1.010
2020/01/31 01:28:15.7	97.290	0.110	-0.700	0.990
2020/01/31 01:28:15.8	97.290	0.170	-0.810	0.960
2020/01/31 01:28:15.9	97.300	0.240	-0.910	0.930
2020/01/31 01:28:16.0	97.290	0.310	-1.010	0.910
2020/01/31 01:28:16.1	97.300	0.380	-1.110	0.880
2020/01/31 01:28:16.2	97.320	0.440	-1.190	0.850
2020/01/31 01:28:16.3	97.330	0.500	-1.270	0.830
2020/01/31 01:28:16.4	97.350	0.560	-1.340	0.800
2020/01/31 01:28:16.5	97.370	0.620	-1.410	0.770
2020/01/31 01:28:16.6	97.390	0.670	-1.460	0.750
2020/01/31 01:28:16.7	97.410	0.710	-1.500	0.730
2020/01/31 01:28:16.8	97.430	0.750	-1.530	0.700
2020/01/31 01:28:16.9	97.460	0.790	-1.560	0.680
2020/01/31 01:28:17.0	97.480	0.820	-1.570	0.670
2020/01/31 01:28:17.1	97.510	0.840	-1.560	0.650
2020/01/31 01:28:17.2	97.530	0.860	-1.550	0.640
2020/01/31 01:28:17.3	97.550	0.870	-1.520	0.620
2020/01/31 01:28:17.4	97.570	0.880	-1.490	0.610
2020/01/31 01:28:17.5	97.590	0.880	-1.440	0.600
2020/01/31 01:28:17.6	97.610	0.870	-1.380	0.590
2020/01/31 01:28:17.7	97.630	0.860	-1.310	0.580
2020/01/31 01:28:17.8	97.640	0.840	-1.230	0.580
2020/01/31 01:28:17.9	97.660	0.810	-1.140	0.570
2020/01/31 01:28:18.0	97.670	0.780	-1.040	0.570
2020/01/31 01:28:18.1	97.680	0.740	-0.940	0.570
2020/01/31 01:28:18.2	97.690	0.700	-0.830	0.570
2020/01/31 01:28:18.3	97.700	0.650	-0.720	0.580
2020/01/31 01:28:18.4	97.700	0.600	-0.600	0.580
2020/01/31 01:28:18.5	97.710	0.550	-0.480	0.590
2020/01/31 01:28:18.6	97.710	0.490	-0.360	0.600
2020/01/31 01:28:18.7	97.710	0.430	-0.240	0.610
2020/01/31 01:28:18.8	97.710	0.360	-0.110	0.620
2020/01/31 01:28:18.9	97.700	0.300	0.010	0.640
2020/01/31 01:28:19.0	97.690	0.230	0.140	0.650
2020/01/31 01:28:19.1	97.680	0.160	0.260	0.670
2020/01/31 01:28:19.2	97.670	0.090	0.370	0.690
2020/01/31 01:28:19.3	97.650	0.020	0.480	0.710
2020/01/31 01:28:19.4	97.640	-0.050	0.590	0.730
2020/01/31 01:28:19.5	97.620	-0.110	0.690	0.750
2020/01/31 01:28:19.6	97.600	-0.180	0.780	0.780
2020/01/31 01:28:19.7	97.580	-0.240	0.870	0.810
2020/01/31 01:28:19.8	97.550	-0.310	0.950	0.830
2020/01/31 01:28:19.9	97.530	-0.370	1.020	0.870
2020/01/31 01:28:20.0	97.510	-0.420	1.080	0.900
2020/01/31 01:28:20.1	97.480	-0.470	1.140	0.930
2020/01/31 01:28:20.2	97.450	-0.520	1.180	0.970
2020/01/31 01:28:20.3	97.420	-0.570	1.220	1.010
2020/01/31 01:28:20.4	97.380	-0.610	1.240	1.040
2020/01/31 01:28:20.5	97.350	-0.640	1.260	1.080
2020/01/31 01:28:20.6	97.310	-0.670	1.270	1.120
2020/01/31 01:28:20.7	97.270	-0.690	1.260	1.170
2020/01/31 01:28:20.8	97.230	-0.710	1.250	1.210
2020/01/31 01:28:20.9	97.190	-0.720	1.220	1.250
2020/01/31 01:28:21.0	97.150	-0.730	1.190	1.290
2020/01/31 01:28:21.1	97.110	-0.730	1.150	1.340
2020/01/31 01:28:21.2	97.070	-0.730	1.100	1.380
2020/01/31 01:28:21.3	97.030	-0.720	1.030	1.420
2020/01/31 01:28:21.4	97.000	-0.710	0.970	1.460
2020/01/31 01:28:21.5	96.960	-0.690	0.890	1.490
2020/01/31 01:28:21.6	96.920	-0.660	0.800	1.530
2020/01/31 01:28:21.7	96.890	-0.640	0.710	1.560
2020/01/31 01:28:21.8	96.850	-0.600	0.610	1.600
2020/01/31 01:28:21.9	96.820	-0.570	0.510	1.630
2020/01/31 01:28:22.0	96.790	-0.530	0.400	1.650
2020/01/31 01:28:22.1	96.770	-0.490	0.290	1.680
2020/01/31 01:28:22.2	96.740	-0.440	0.180	1.700
2020/01/31 01:28:22.3	96.720	-0.400	0.060	1.720
2020/01/31 01:28:22.4	96.700	-0.350	-0.060	1.730
2020/01/31 01:28:22.5	96.680	-0.300	-0.170	1.740
2020/01/31 01:28:22.6	96.670	-0.250	-0.290	1.750
2020/01/31 01:28:22.7	96.660	-0.200	-0.400	1.750
2020/01/31 01:28:22.8	96.650	-0.150	-0.520	1.750
2020/01/31 01:28:22.9	96.640	-0.100	-0.620	1.750
2020/01/31 01:28:23.0	96.640	-0.050	-0.730	1.740
2020/01/31 01:28:23.1	96.640	0.000	-0.830	1.730
2020/01/31 01:28:23.2	96.640	0.050	-0.920	1.710
2020/01/31 01:28:23.3	96.650	0.090	-1.010	1.690
2020/01/31 01:28:23.4	96.660	0.130	-1.080	1.660
2020/01/31 01:28:23.5	96.670	0.170	-1.150	1.630
2020/01/31 01:28:23.6	96.690	0.210	-1.210	1.600
2020/01/31 01:28:23.7	96.700	0.240	-1.270	1.560
2020/01/31 01:28:23.8	96.730	0.270	-1.310	1.520
2020/01/31 01:28:23.9	96.750	0.290	-1.340	1.470
2020/01/31 01:28:24.0	96.770	0.320	-1.360	1.420
2020/01/31 01:28:24.1	96.800	0.340	-1.370	1.370
2020/01/31 01:28:24.2	96.830	0.350	-1.380	1.310
2020/01/31 01:28:24.3	96.860	0.360	-1.370	1.250
2020/01/31 01:28:24.4	96.890	0.370	-1.360	1.190
2020/01/31 01:28:24.5	96.930	0.380	-1.330	1.130
2020/01/31 01:28:24.6	96.960	0.380	-1.300	1.060
2020/01/31 01:28:24.7	97.000	0.380	-1.260	1.000
2020/01/31 01:28:24.8	97.030	0.380	-1.220	0.940
2020/01/31 01:28:24.9	97.070	0.370	-1.160	0.870
2020/01/31 01:28:25.0	97.090	0.360	-1.100	0.810
2020/01/31 01:28:25.1	97.120	0.350	-1.030	0.750
2020/01/31 01:28:25.2	97.150	0.340	-0.960	0.690
2020/01/31 01:28:25.3	97.180	0.330	-0.890	0.640
2020/01/31 01:28:25.4	97.210	0.320	-0.810	0.590
2020/01/31 01:28:25.5	97.240	0.300	-0.730	0.540
2020/01/31 01:28:25.6	97.260	0.290	-0.650	0.500
2020/01/31 01:28:25.7	97.280	0.270	-0.560	0.460
2020/01/31 01:28:25.8	97.300	0.260	-0.480	0.430
2020/01/31 01:28:25.9	97.310	0.240	-0.400	0.400
2020/01/31 01:28:26.0	97.320	0.220	-0.310	0.370
2020/01/31 01:28:26.1	97.330	0.210	-0.230	0.350
2020/01/31 01:28:26.2	97.340	0.200	-0.160	0.340
2020/01/31 01:28:26.3	97.350	0.180	-0.090	0.330
2020/01/31 01:28:26.4	97.350	0.170	-0.020	0.320
2020/01/31 01:28:26.5	97.350	0.160	0.050	0.320
2020/01/31 01:28:26.6	97.350	0.150	0.110	0.320
2020/01/31 01:28:26.7	97.340	0.140	0.160	0.330
2020/01/31 01:28:26.8	97.340	0.130	0.210	0.340
2020/01/31 01:28:26.9	97.330	0.120	0.260	0.350
2020/01/31 01:28:27.0	97.330	0.120	0.300	0.360
2020/01/31 01:28:27.1	97.320	0.110	0.340	0.380
2020/01/31 01:28:27.2	97.310	0.100	0.370	0.400
2020/01/31 01:28:27.3	97.300	0.100	0.400	0.420
2020/01/31 01:28:27.4	97.290	0.090	0.420	0.440
2020/01/31 01:28:27.5	97.280	0.090	0.440	0.470
2020/01/31 01:28:27.6	97.260	0.080	0.450	0.490
2020/01/31 01:28:27.7	97.250	0.070	0.460	0.520
2020/01/31 01:28:27.8	97.240	0.070	0.470	0.540
2020/01/31 01:28:27.9	97.230	0.060	0.470	0.570
2020/01/31 01:28:28.0	97.220	0.050	0.480	0.600
2020/01/31 01:28:28.1	97.200	0.050	0.480	0.630
2020/01/31 01:28:28.2	97.200	0.040	0.470	0.650
2020/01/31 01:28:28.3	97.190	0.030	0.470	0.680
2020/01/31 01:28:28.4	97.180	0.010	0.470	0.710
2020/01/31 01:28:28.5	97.170	-0.000	0.460	0.740
2020/01/31 01:28:28.6	97.160	-0.010	0.450	0.770
2020/01/31 01:28:28.7	97.160	-0.030	0.440	0.790
2020/01/31 01:28:28.8	97.150	-0.050	0.430	0.820
2020/01/31 01:28:28.9	97.140	-0.070	0.420	0.850
2020/01/31 01:28:29.0	97.140	-0.090	0.410	0.880
2020/01/31 01:28:29.1	97.140	-0.110	0.400	0.900
2020/01/31 01:28:29.2	97.130	-0.130	0.380	0.930
2020/01/31 01:28:29.3	97.130	-0.160	0.370	0.960
2020/01/31 01:28:29.4	97.120	-0.180	0.350	0.990
2020/01/31 01:28:29.5	97.110	-0.210	0.330	1.010
2020/01/31 01:28:29.6	97.110	-0.230	0.320	1.040
2020/01/31 01:28:29.7	97.100	-0.260	0.300	1.070
2020/01/31 01:28:29.8	97.100	-0.280	0.280	1.100
2020/01/31 01:28:29.9	97.090	-0.310	0.260	1.120
2020/01/31 01:28:30.0	97.070	-0.340	0.240	1.150
2020/01/31 01:28:30.1	97.070	-0.360	0.220	1.180
2020/01/31 01:28:30.2	97.060	-0.390	0.190	1.210
2020/01/31 01:28:30.3	97.050	-0.410	0.170	1.230
2020/01/31 01:28:30.4	97.050	-0.430	0.140	1.260
2020/01/31 01:28:30.5	97.040	-0.450	0.120	1.280
2020/01/31 01:28:30.6	97.040	-0.470	0.090	1.300
2020/01/31 01:28:30.7	97.030	-0.480	0.060	1.330
2020/01/31 01:28:30.8	97.030	-0.500	0.040	1.350
2020/01/31 01:28:30.9	97.020	-0.510	0.010	1.360
2020/01/31 01:28:31.0	97.030	-0.520	-0.020	1.380
2020/01/31 01:28:31.1	97.030	-0.520	-0.050	1.390
2020/01/31 01:28:31.2	97.030	-0.520	-0.080	1.400
2020/01/31 01:28:31.3	97.020	-0.520	-0.120	1.410
2020/01/31 01:28:31.4	97.020	-0.520	-0.150	1.410
2020/01/31 01:28:31.5	97.020	-0.510	-0.180	1.420
2020/01/31 01:28:31.6	97.030	-0.500	-0.210	1.410
2020/01/31 01:28:31.7	97.030	-0.490	-0.250	1.410
2020/01/31 01:28:31.8	97.030	-0.470	-0.280	1.400
2020/01/31 01:28:31.9	97.030	-0.450	-0.310	1.390
2020/01/31 01:28:32.0	97.030	-0.430	-0.350	1.390
2020/01/31 01:28:32.1	97.030	-0.400	-0.380	1.370
2020/01/31 01:28:32.2	97.030	-0.370	-0.410	1.350
2020/01/31 01:28:32.3	97.030	-0.340	-0.450	1.330
2020/01/31 01:28:32.4	97.040	-0.300	-0.480	1.310
2020/01/31 01:28:32.5	97.040	-0.260	-0.510	1.290
2020/01/31 01:28:32.6	97.040	-0.220	-0.540	1.260
2020/01/31 01:28:32.7	97.050	-0.180	-0.570	1.240
2020/01/31 01:28:32.8	97.050	-0.130	-0.600	1.210
2020/01/31 01:28:32.9	97.060	-0.090	-0.630	1.180
2020/01/31 01:28:33.0	97.060	-0.040	-0.660	1.150
2020/01/31 01:28:33.1	97.070	0.010	-0.680	1.110
2020/01/31 01:28:33.2	97.070	0.060	-0.700	1.080
2020/01/31 01:28:33.3	97.080	0.110	-0.720	1.040
2020/01/31 01:28:33.4	97.090	0.170	-0.740	1.000
2020/01/31 01:28:33.5	97.100	0.220	-0.760	0.960
2020/01/31 01:28:33.6	97.110	0.270	-0.770	0.920
2020/01/31 01:28:33.7	97.120	0.320	-0.780	0.870
2020/01/31 01:28:33.8	97.130	0.370	-0.790	0.830
2020/01/31 01:28:33.9	97.150	0.420	-0.790	0.780
2020/01/31 01:28:34.0	97.160	0.460	-0.790	0.740
2020/01/31 01:28:34.1	97.170	0.510	-0.790	0.690
2020/01/31 01:28:34.2	97.190	0.550	-0.790	0.650
2020/01/31 01:28:34.3	97.210	0.590	-0.780	0.600
2020/01/31 01:28:34.4	97.230	0.630	-0.770	0.560
2020/01/31 01:28:34.5	97.260	0.660	-0.760	0.510
2020/01/31 01:28:34.6	97.280	0.690	-0.740	0.470
2020/01/31 01:28:34.7	97.300	0.720	-0.730	0.430
2020/01/31 01:28:34.8	97.330	0.750	-0.710	0.390
2020/01/31 01:28:34.9	97.350	0.770	-0.690	0.350
2020/01/31 01:28:35.0	97.370	0.780	-0.660	0.320
2020/01/31 01:28:35.1	97.390	0.800	-0.640	0.290
2020/01/31 01:28:35.2	97.420	0.810	-0.610	0.250
2020/01/31 01:28:35.3	97.440	0.820	-0.580	0.230
2020/01/31 01:28:35.4	97.470	0.820	-0.550	0.200
2020/01/31 01:28:35.5	97.490	0.820	-0.520	0.180
2020/01/31 01:28:35.6	97.520	0.810	-0.480	0.160
2020/01/31 01:28:35.7	97.540	0.810	-0.450	0.150
2020/01/31 01:28:35.8	97.560	0.800	-0.420	0.140
2020/01/31 01:28:35.9	97.580	0.780	-0.380	0.130
2020/01/31 01:28:36.0	97.600	0.760	-0.340	0.130
2020/01/31 01:28:36.1	97.620	0.740	-0.300	0.130
2020/01/31 01:28:36.2	97.630	0.720	-0.270	0.130
2020/01/31 01:28:36.3	97.640	0.690	-0.230	0.140
2020/01/31 01:28:36.4	97.650	0.660	-0.190	0.160
2020/01/31 01:28:36.5	97.660	0.630	-0.150	0.170
2020/01/31 01:28:36.6	97.670	0.600	-0.110	0.190
2020/01/31 01:28:36.7	97.670	0.560	-0.070	0.210
2020/01/31 01:28:36.8	97.670	0.530	-0.030	0.240
2020/01/31 01:28:36.9	97.660	0.490	0.020	0.270
2020/01/31 01:28:37.0	97.660	0.450	0.060	0.300
2020/01/31 01:28:37.1	97.650	0.400	0.100	0.330
2020/01/31 01:28:37.2	97.630	0.360	0.140	0.370
2020/01/31 01:28:37.3	97.620	0.320	0.180	0.400
2020/01/31 01:28:37.4	97.600	0.270	0.220	0.440
2020/01/31 01:28:37.5	97.580	0.230	0.260	0.480
2020/01/31 01:28:37.6	97.550	0.190	0.290	0.520
2020/01/31 01:28:37.7	97.530	0.140	0.330	0.560
2020/01/31 01:28:37.8	97.500	0.100	0.370	0.600
2020/01/31 01:28:37.9	97.470	0.050	0.400	0.640
2020/01/31 01:28:38.0	97.450	0.010	0.440	0.680
2020/01/31 01:28:38.1	97.410	-0.030	0.470	0.720
2020/01/31 01:28:38.2	97.380	-0.070	0.490	0.760
2020/01/31 01:28:38.3	97.340	-0.110	0.520	0.800
2020/01/31 01:28:38.4	97.310	-0.150	0.540	0.840
2020/01/31 01:28:38.5	97.270	-0.190	0.560	0.870
2020/01/31 01:28:38.6	97.240	-0.220	0.580	0.910
2020/01/31 01:28:38.7	97.200	-0.250	0.590	0.940
2020/01/31 01:28:38.8	97.170	-0.280	0.600	0.970
2020/01/31 01:28:38.9	97.140	-0.310	0.610	1.000
2020/01/31 01:28:39.0	97.120	-0.340	0.610	1.030
2020/01/31 01:28:39.1	97.090	-0.370	0.610	1.060
2020/01/31 01:28:39.2	97.070	-0.390	0.610	1.080
2020/01/31 01:28:39.3	97.040	-0.410	0.600	1.110
2020/01/31 01:28:39.4	97.020	-0.430	0.590	1.130
2020/01/31 01:28:39.5	97.000	-0.450	0.570	1.150
2020/01/31 01:28:39.6	96.980	-0.460	0.550	1.170
2020/01/31 01:28:39.7	96.970	-0.470	0.530	1.190
2020/01/31 01:28:39.8	96.960	-0.480	0.500	1.210
2020/01/31 01:28:39.9	96.950	-0.490	0.480	1.220
2020/01/31 01:28:40.0	96.930	-0.500	0.440	1.240
2020/01/31 01:28:40.1	96.930	-0.500	0.410	1.250
2020/01/31 01:28:40.2	96.930	-0.500	0.370	1.260
2020/01/31 01:28:40.3	96.930	-0.500	0.340	1.280
2020/01/31 01:28:40.4	96.940	-0.500	0.300	1.290
2020/01/31 01:28:40.5	96.950	-0.500	0.250	1.300
2020/01/31 01:28:40.6	96.960	-0.490	0.210	1.310
2020/01/31 01:28:40.7	96.980	-0.480	0.170	1.310
2020/01/31 01:28:40.8	97.000	-0.480	0.130	1.320
2020/01/31 01:28:40.9	97.020	-0.470	0.080	1.330
2020/01/31 01:28:41.0	97.030	-0.460	0.040	1.330
2020/01/31 01:28:41.1	97.060	-0.450	-0.000	1.330
2020/01/31 01:28:41.2	97.090	-0.440	-0.040	1.340
2020/01/31 01:28:41.3	97.110	-0.430	-0.090	1.340
2020/01/31 01:28:41.4	97.140	-0.420	-0.130	1.340
2020/01/31 01:28:41.5	97.180	-0.400	-0.170	1.340
2020/01/31 01:28:41.6	97.210	-0.390	-0.210	1.330
2020/01/31 01:28:41.7	97.240	-0.380	-0.250	1.330
2020/01/31 01:28:41.8	97.270	-0.370	-0.290	1.330
2020/01/31 01:28:41.9	97.300	-0.360	-0.330	1.330
2020/01/31 01:28:42.0	97.330	-0.340	-0.360	1.330
2020/01/31 01:28:42.1	97.360	-0.330	-0.400	1.320
2020/01/31 01:28:42.2	97.380	-0.320	-0.430	1.320
2020/01/31 01:28:42.3	97.400	-0.310	-0.460	1.320
2020/01/31 01:28:42.4	97.420	-0.300	-0.500	1.310
2020/01/31 01:28:42.5	97.440	-0.280	-0.530	1.310
2020/01/31 01:28:42.6	97.460	-0.270	-0.550	1.300
2020/01/31 01:28:42.7	97.470	-0.260	-0.580	1.300
2020/01/31 01:28:42.8	97.480	-0.250	-0.610	1.300
2020/01/31 01:28:42.9	97.490	-0.240	-0.630	1.290
2020/01/31 01:28:43.0	97.500	-0.230	-0.650	1.290
2020/01/31 01:28:43.1	97.500	-0.220	-0.670	1.280
2020/01/31 01:28:43.2	97.500	-0.210	-0.690	1.280
2020/01/31 01:28:43.3	97.500	-0.200	-0.700	1.270
2020/01/31 01:28:43.4	97.490	-0.190	-0.720	1.260
2020/01/31 01:28:43.5	97.490	-0.180	-0.730	1.260
2020/01/31 01:28:43.6	97.480	-0.170	-0.740	1.250
2020/01/31 01:28:43.7	97.470	-0.160	-0.740	1.240
2020/01/31 01:28:43.8	97.450	-0.150	-0.750	1.230
2020/01/31 01:28:43.9	97.440	-0.140	-0.750	1.230
2020/01/31 01:28:44.0	97.420	-0.130	-0.750	1.220
2020/01/31 01:28:44.1	97.400	-0.120	-0.750	1.210
2020/01/31 01:28:44.2	97.380	-0.100	-0.740	1.200
2020/01/31 01:28:44.3	97.360	-0.090	-0.740	1.200
2020/01/31 01:28:44.4	97.330	-0.080	-0.730	1.190
2020/01/31 01:28:44.5	97.300	-0.070	-0.720	1.180
2020/01/31 01:28:44.6	97.280	-0.060	-0.700	1.180
2020/01/31 01:28:44.7	97.250	-0.040	-0.690	1.170
2020/01/31 01:28:44.8	97.220	-0.030	-0.670	1.160
2020/01/31 01:28:44.9	97.190	-0.010	-0.650	1.160
2020/01/31 01:28:45.0	97.160	0.000	-0.630	1.160
2020/01/31 01:28:45.1	97.140	0.020	-0.610	1.150
2020/01/31 01:28:45.2	97.110	0.030	-0.590	1.150
2020/01/31 01:28:45.3	97.080	0.050	-0.570	1.140
2020/01/31 01:28:45.4	97.060	0.070	-0.540	1.140
2020/01/31 01:28:45.5	97.030	0.080	-0.520	1.140
2020/01/31 01:28:45.6	97.010	0.100	-0.490	1.130
2020/01/31 01:28:45.7	96.980	0.120	-0.470	1.130
2020/01/31 01:28:45.8	96.960	0.140	-0.440	1.130
2020/01/31 01:28:45.9	96.940	0.150	-0.410	1.130
2020/01/31 01:28:46.0	96.930	0.170	-0.380	1.130
2020/01/31 01:28:46.1	96.910	0.190	-0.350	1.130
2020/01/31 01:28:46.2	96.890	0.210	-0.320	1.130
2020/01/31 01:28:46.3	96.870	0.230	-0.290	1.130
2020/01/31 01:28:46.4	96.860	0.240	-0.260	1.130
2020/01/31 01:28:46.5	96.840	0.260	-0.230	1.130
2020/01/31 01:28:46.6	96.830	0.280	-0.200	1.130
2020/01/31 01:28:46.7	96.810	0.290	-0.170	1.130
2020/01/31 01:28:46.8	96.800	0.310	-0.140	1.130
2020/01/31 01:28:46.9	96.780	0.320	-0.110	1.130
2020/01/31 01:28:47.0	96.770	0.330	-0.080	1.130
2020/01/31 01:28:47.1	96.760	0.350	-0.050	1.130
2020/01/31 01:28:47.2	96.740	0.350	-0.020	1.120
2020/01/31 01:28:47.3	96.730	0.360	0.010	1.110
2020/01/31 01:28:47.4	96.720	0.370	0.040	1.100
2020/01/31 01:28:47.5	96.700	0.370	0.070	1.090
2020/01/31 01:28:47.6	96.690	0.370	0.100	1.070
2020/01/31 01:28:47.7	96.680	0.370	0.130	1.050
2020/01/31 01:28:47.8	96.670	0.370	0.160	1.030
2020/01/31 01:28:47.9	96.660	0.370	0.190	1.000
2020/01/31 01:28:48.0	96.650	0.360	0.230	0.970
2020/01/31 01:28:48.1	96.640	0.350	0.260	0.940
2020/01/31 01:28:48.2	96.640	0.340	0.290	0.900
2020/01/31 01:28:48.3	96.630	0.330	0.320	0.860
2020/01/31 01:28:48.4	96.620	0.320	0.350	0.810
2020/01/31 01:28:48.5	96.620	0.300	0.380	0.760
2020/01/31 01:28:48.6	96.620	0.280	0.410	0.710
2020/01/31 01:28:48.7	96.610	0.270	0.430	0.650
2020/01/31 01:28:48.8	96.610	0.250	0.460	0.600
2020/01/31 01:28:48.9	96.610	0.230	0.480	0.530
2020/01/31 01:28:49.0	96.620	0.210	0.500	0.470
2020/01/31 01:28:49.1	96.620	0.190	0.510	0.400
2020/01/31 01:28:49.2	96.620	0.160	0.520	0.340
2020/01/31 01:28:49.3	96.620	0.140	0.530	0.270
2020/01/31 01:28:49.4	96.620	0.120	0.540	0.200
2020/01/31 01:28:49.5	96.620	0.100	0.540	0.130
2020/01/31 01:28:49.6	96.620	0.080	0.530	0.060
2020/01/31 01:28:49.7	96.620	0.070	0.520	-0.000
2020/01/31 01:28:49.8	96.620	0.050	0.510	-0.070
2020/01/31 01:28:49.9	96.630	0.030	0.490	-0.140
2020/01/31 01:28:50.0	96.630	0.020	0.460	-0.190
2020/01/31 01:28:50.1	96.630	0.010	0.430	-0.260
2020/01/31 01:28:50.2	96.640	-0.000	0.400	-0.320
2020/01/31 01:28:50.3	96.640	-0.010	0.360	-0.370
2020/01/31 01:28:50.4	96.650	-0.020	0.320	-0.430
2020/01/31 01:28:50.5	96.650	-0.030	0.270	-0.480
2020/01/31 01:28:50.6	96.660	-0.030	0.220	-0.520
2020/01/31 01:28:50.7	96.670	-0.030	0.170	-0.560
2020/01/31 01:28:50.8	96.680	-0.030	0.110	-0.600
2020/01/31 01:28:50.9	96.690	-0.030	0.050	-0.630
2020/01/31 01:28:51.0	96.720	-0.030	-0.020	-0.660
2020/01/31 01:28:51.1	96.730	-0.030	-0.080	-0.680
2020/01/31 01:28:51.2	96.740	-0.020	-0.150	-0.700
2020/01/31 01:28:51.3	96.750	-0.020	-0.220	-0.710
2020/01/31 01:28:51.4	96.760	-0.010	-0.280	-0.710
2020/01/31 01:28:51.5	96.770	-0.000	-0.350	-0.710
2020/01/31 01:28:51.6	96.770	0.010	-0.410	-0.700
2020/01/31 01:28:51.7	96.780	0.010	-0.470	-0.680
2020/01/31 01:28:51.8	96.790	0.020	-0.530	-0.660
2020/01/31 01:28:51.9	96.800	0.030	-0.590	-0.640
2020/01/31 01:28:52.0	96.810	0.030	-0.640	-0.600
2020/01/31 01:28:52.1	96.810	0.040	-0.690	-0.560
2020/01/31 01:28:52.2	96.820	0.040	-0.730	-0.520
2020/01/31 01:28:52.3	96.830	0.050	-0.770	-0.470
2020/01/31 01:28:52.4	96.830	0.050	-0.800	-0.420
2020/01/31 01:28:52.5	96.840	0.050	-0.820	-0.360
2020/01/31 01:28:52.6	96.840	0.050	-0.840	-0.300
2020/01/31 01:28:52.7	96.840	0.050	-0.860	-0.230
2020/01/31 01:28:52.8	96.850	0.040	-0.860	-0.160
2020/01/31 01:28:52.9	96.850	0.040	-0.860	-0.080
2020/01/31 01:28:53.0	96.850	0.030	-0.860	-0.000
2020/01/31 01:28:53.1	96.850	0.020	-0.850	0.080
2020/01/31 01:28:53.2	96.850	0.010	-0.830	0.170
2020/01/31 01:28:53.3	96.850	-0.000	-0.810	0.250
2020/01/31 01:28:53.4	96.840	-0.020	-0.780	0.340
2020/01/31 01:28:53.5	96.840	-0.030	-0.750	0.430
2020/01/31 01:28:53.6	96.830	-0.050	-0.720	0.530
2020/01/31 01:28:53.7	96.820	-0.070	-0.680	0.620
2020/01/31 01:28:53.8	96.810	-0.080	-0.640	0.710
2020/01/31 01:28:53.9	96.800	-0.100	-0.600	0.810
2020/01/31 01:28:54.0	96.780	-0.120	-0.550	0.910
2020/01/31 01:28:54.1	96.760	-0.140	-0.510	1.000
2020/01/31 01:28:54.2	96.740	-0.160	-0.460	1.100
2020/01/31 01:28:54.3	96.730	-0.170	-0.420	1.190
2020/01/31 01:28:54.4	96.710	-0.190	-0.370	1.280
2020/01/31 01:28:54.5	96.680	-0.210	-0.330	1.370
2020/01/31 01:28:54.6	96.660	-0.220	-0.290	1.460
2020/01/31 01:28:54.7	96.640	-0.230	-0.240	1.540
2020/01/31 01:28:54.8	96.610	-0.240	-0.200	1.620
2020/01/31 01:28:54.9	96.580	-0.250	-0.170	1.700
2020/01/31 01:28:55.0	96.560	-0.260	-0.130	1.770
2020/01/31 01:28:55.1	96.530	-0.260	-0.100	1.840
2020/01/31 01:28:55.2	96.500	-0.270	-0.060	1.900
2020/01/31 01:28:55.3	96.470	-0.260	-0.030	1.970
2020/01/31 01:28:55.4	96.440	-0.260	-0.010	2.020
2020/01/31 01:28:55.5	96.420	-0.260	0.020	2.070
2020/01/31 01:28:55.6	96.390	-0.250	0.040	2.120
2020/01/31 01:28:55.7	96.360	-0.240	0.060	2.160
2020/01/31 01:28:55.8	96.340	-0.230	0.070	2.200
2020/01/31 01:28:55.9	96.320	-0.210	0.090	2.230
2020/01/31 01:28:56.0	96.300	-0.200	0.100	2.260
2020/01/31 01:28:56.1	96.280	-0.180	0.120	2.270
2020/01/31 01:28:56.2	96.270	-0.160	0.130	2.280
2020/01/31 01:28:56.3	96.260	-0.140	0.130	2.290
2020/01/31 01:28:56.4	96.250	-0.120	0.140	2.280
2020/01/31 01:28:56.5	96.250	-0.100	0.150	2.280
2020/01/31 01:28:56.6	96.250	-0.080	0.150	2.260
2020/01/31 01:28:56.7	96.250	-0.050	0.160	2.240
2020/01/31 01:28:56.8	96.250	-0.030	0.160	2.210
2020/01/31 01:28:56.9	96.260	-0.000	0.160	2.180
2020/01/31 01:28:57.0	96.270	0.020	0.160	2.140
2020/01/31 01:28:57.1	96.290	0.040	0.160	2.100
2020/01/31 01:28:57.2	96.310	0.060	0.160	2.060
2020/01/31 01:28:57.3	96.330	0.080	0.150	2.010
2020/01/31 01:28:57.4	96.350	0.100	0.150	1.960
2020/01/31 01:28:57.5	96.370	0.120	0.150	1.900
2020/01/31 01:28:57.6	96.390	0.140	0.140	1.850
2020/01/31 01:28:57.7	96.420	0.150	0.140	1.790
2020/01/31 01:28:57.8	96.450	0.160	0.140	1.730
2020/01/31 01:28:57.9	96.480	0.170	0.130	1.670
2020/01/31 01:28:58.0	96.510	0.180	0.130	1.610
2020/01/31 01:28:58.1	96.540	0.190	0.120	1.550
2020/01/31 01:28:58.2	96.560	0.190	0.120	1.490
2020/01/31 01:28:58.3	96.590	0.190	0.110	1.430
2020/01/31 01:28:58.4	96.620	0.190	0.100	1.360
2020/01/31 01:28:58.5	96.650	0.190	0.100	1.300
2020/01/31 01:28:58.6	96.680	0.180	0.090	1.240
2020/01/31 01:28:58.7	96.710	0.170	0.080	1.180
2020/01/31 01:28:58.8	96.730	0.160	0.080	1.120
2020/01/31 01:28:58.9	96.760	0.150	0.070	1.060
2020/01/31 01:28:59.0	96.770	0.130	0.060	0.990
2020/01/31 01:28:59.1	96.790	0.120	0.060	0.930
2020/01/31 01:28:59.2	96.820	0.100	0.050	0.870
2020/01/31 01:28:59.3	96.840	0.080	0.040	0.810
2020/01/31 01:28:59.4	96.860	0.060	0.030	0.750
2020/01/31 01:28:59.5	96.870	0.040	0.030	0.690
2020/01/31 01:28:59.6	96.890	0.010	0.020	0.630
2020/01/31 01:28:59.7	96.900	-0.010	0.010	0.570
2020/01/31 01:28:59.8	96.920	-0.030	0.000	0.510
2020/01/31 01:28:59.9	96.930	-0.060	-0.010	0.450
2020/01/31 01:29:00.0	96.950	-0.080	-0.020	0.390
2020/01/31 01:29:00.1	96.960	-0.100	-0.030	0.340
2020/01/31 01:29:00.2	96.970	-0.130	-0.040	0.290
2020/01/31 01:29:00.3	96.970	-0.150	-0.050	0.230
2020/01/31 01:29:00.4	96.980	-0.170	-0.070	0.180
2020/01/31 01:29:00.5	96.980	-0.190	-0.080	0.130
2020/01/31 01:29:00.6	96.990	-0.210	-0.100	0.090
2020/01/31 01:29:00.7	96.990	-0.220	-0.120	0.040
2020/01/31 01:29:00.8	96.990	-0.240	-0.130	0.000
2020/01/31 01:29:00.9	96.990	-0.250	-0.150	-0.040
2020/01/31 01:29:01.0	97.000	-0.260	-0.170	-0.070
2020/01/31 01:29:01.1	97.000	-0.270	-0.190	-0.110
2020/01/31 01:29:01.2	96.990	-0.280	-0.220	-0.130
2020/01/31 01:29:01.3	96.990	-0.290	-0.240	-0.160
2020/01/31 01:29:01.4	96.990	-0.290	-0.260	-0.180
2020/01/31 01:29:01.5	96.980	-0.290	-0.280	-0.200
2020/01/31 01:29:01.6	96.980	-0.290	-0.310	-0.220
2020/01/31 01:29:01.7	96.970	-0.290	-0.330	-0.230
2020/01/31 01:29:01.8	96.960	-0.290	-0.350	-0.240
2020/01/31 01:29:01.9	96.950	-0.280	-0.380	-0.240
2020/01/31 01:29:02.0	96.930	-0.270	-0.400	-0.240
2020/01/31 01:29:02.1	96.920	-0.270	-0.420	-0.240
2020/01/31 01:29:02.2	96.910	-0.260	-0.440	-0.230
2020/01/31 01:29:02.3	96.900	-0.240	-0.460	-0.220
2020/01/31 01:29:02.4	96.880	-0.230	-0.480	-0.200
2020/01/31 01:29:02.5	96.870	-0.220	-0.500	-0.190
2020/01/31 01:29:02.6	96.860	-0.200	-0.510	-0.160
2020/01/31 01:29:02.7	96.840	-0.190	-0.530	-0.140
2020/01/31 01:29:02.8	96.820	-0.170	-0.540	-0.110
2020/01/31 01:29:02.9	96.810	-0.150	-0.550	-0.080
2020/01/31 01:29:03.0	96.790	-0.130	-0.550	-0.050
2020/01/31 01:29:03.1	96.770	-0.120	-0.560	-0.010
2020/01/31 01:29:03.2	96.750	-0.100	-0.560	0.030
2020/01/31 01:29:03.3	96.730	-0.080	-0.560	0.060
2020/01/31 01:29:03.4	96.710	-0.060	-0.550	0.100
2020/01/31 01:29:03.5	96.680	-0.040	-0.550	0.150
2020/01/31 01:29:03.6	96.660	-0.020	-0.540	0.190
2020/01/31 01:29:03.7	96.640	-0.000	-0.520	0.230
2020/01/31 01:29:03.8	96.620	0.010	-0.510	0.280
2020/01/31 01:29:03.9	96.590	0.030	-0.490	0.320
2020/01/31 01:29:04.0	96.570	0.040	-0.470	0.370
2020/01/31 01:29:04.1	96.550	0.060	-0.450	0.410
2020/01/31 01:29:04.2	96.530	0.070	-0.420	0.450
2020/01/31 01:29:04.3	96.510	0.090	-0.390	0.490
2020/01/31 01:29:04.4	96.490	0.100	-0.360	0.530
2020/01/31 01:29:04.5	96.470	0.110	-0.330	0.570
2020/01/31 01:29:04.6	96.460	0.120	-0.300	0.610
2020/01/31 01:29:04.7	96.440	0.130	-0.270	0.640
2020/01/31 01:29:04.8	96.430	0.130	-0.230	0.670
2020/01/31 01:29:04.9	96.420	0.140	-0.200	0.700
2020/01/31 01:29:05.0	96.420	0.150	-0.160	0.730
2020/01/31 01:29:05.1	96.410	0.150	-0.130	0.750
2020/01/31 01:29:05.2	96.410	0.160	-0.100	0.770
2020/01/31 01:29:05.3	96.400	0.160	-0.070	0.790
2020/01/31 01:29:05.4	96.400	0.160	-0.040	0.800
2020/01/31 01:29:05.5	96.400	0.170	-0.020	0.810
2020/01/31 01:29:05.6	96.410	0.170	0.010	0.810
2020/01/31 01:29:05.7	96.410	0.170	0.030	0.810
2020/01/31 01:29:05.8	96.420	0.170	0.040	0.810
2020/01/31 01:29:05.9	96.440	0.170	0.060	0.810
2020/01/31 01:29:06.0	96.450	0.180	0.070	0.800
2020/01/31 01:29:06.1	96.460	0.180	0.080	0.790
2020/01/31 01:29:06.2	96.480	0.180	0.080	0.780
2020/01/31 01:29:06.3	96.500	0.190	0.090	0.760
2020/01/31 01:29:06.4	96.520	0.190	0.090	0.740
2020/01/31 01:29:06.5	96.550	0.200	0.080	0.730
2020/01/31 01:29:06.6	96.570	0.200	0.080	0.700
2020/01/31 01:29:06.7	96.600	0.200	0.070	0.680
2020/01/31 01:29:06.8	96.630	0.210	0.060	0.660
2020/01/31 01:29:06.9	96.670	0.220	0.050	0.630
2020/01/31 01:29:07.0	96.710	0.220	0.040	0.610
2020/01/31 01:29:07.1	96.740	0.230	0.030	0.590
2020/01/31 01:29:07.2	96.780	0.240	0.010	0.560
2020/01/31 01:29:07.3	96.810	0.240	-0.010	0.540
2020/01/31 01:29:07.4	96.850	0.250	-0.030	0.510
2020/01/31 01:29:07.5	96.890	0.250	-0.040	0.490
2020/01/31 01:29:07.6	96.920	0.260	-0.060	0.470
2020/01/31 01:29:07.7	96.960	0.270	-0.080	0.460
2020/01/31 01:29:07.8	97.000	0.270	-0.100	0.440
2020/01/31 01:29:07.9	97.030	0.270	-0.120	0.430
2020/01/31 01:29:08.0	97.060	0.280	-0.140	0.420
2020/01/31 01:29:08.1	97.090	0.280	-0.160	0.410
2020/01/31 01:29:08.2	97.120	0.280	-0.180	0.410
2020/01/31 01:29:08.3	97.150	0.280	-0.190	0.410
2020/01/31 01:29:08.4	97.180	0.280	-0.210	0.420
2020/01/31 01:29:08.5	97.210	0.280	-0.220	0.430
2020/01/31 01:29:08.6	97.240	0.270	-0.230	0.440
2020/01/31 01:29:08.7	97.260	0.270	-0.230	0.460
2020/01/31 01:29:08.8	97.280	0.260	-0.240	0.480
2020/01/31 01:29:08.9	97.300	0.250	-0.240	0.500
2020/01/31 01:29:09.0	97.320	0.240	-0.240	0.540
2020/01/31 01:29:09.1	97.330	0.230	-0.240	0.570
2020/01/31 01:29:09.2	97.340	0.220	-0.240	0.610
2020/01/31 01:29:09.3	97.350	0.200	-0.230	0.650
2020/01/31 01:29:09.4	97.350	0.190	-0.220	0.690
2020/01/31 01:29:09.5	97.350	0.170	-0.210	0.740
2020/01/31 01:29:09.6	97.350	0.150	-0.190	0.790
2020/01/31 01:29:09.7	97.350	0.130	-0.180	0.840
2020/01/31 01:29:09.8	97.340	0.110	-0.160	0.890
2020/01/31 01:29:09.9	97.330	0.080	-0.140	0.940
2020/01/31 01:29:10.0	97.320	0.060	-0.130	1.000
2020/01/31 01:29:10.1	97.310	0.040	-0.100	1.050
2020/01/31 01:29:10.2	97.290	0.010	-0.080	1.110
2020/01/31 01:29:10.3	97.270	-0.010	-0.060	1.170
2020/01/31 01:29:10.4	97.240	-0.040	-0.030	1.220
2020/01/31 01:29:10.5	97.220	-0.060	-0.010	1.270
2020/01/31 01:29:10.6	97.190	-0.090	0.020	1.330
2020/01/31 01:29:10.7	97.160	-0.120	0.040	1.380
2020/01/31 01:29:10.8	97.130	-0.140	0.060	1.430
2020/01/31 01:29:10.9	97.100	-0.160	0.090	1.470
2020/01/31 01:29:11.0	97.070	-0.190	0.110	1.510
2020/01/31 01:29:11.1	97.030	-0.210	0.130	1.550
2020/01/31 01:29:11.2	97.000	-0.230	0.140	1.590
2020/01/31 01:29:11.3	96.960	-0.250	0.160	1.620
2020/01/31 01:29:11.4	96.930	-0.260	0.170	1.650
2020/01/31 01:29:11.5	96.900	-0.280	0.170	1.680
2020/01/31 01:29:11.6	96.860	-0.290	0.180	1.700
2020/01/31 01:29:11.7	96.830	-0.300	0.180	1.710
2020/01/31 01:29:11.8	96.800	-0.310	0.180	1.720
2020/01/31 01:29:11.9	96.770	-0.320	0.170	1.730
2020/01/31 01:29:12.0	96.750	-0.320	0.160	1.730
2020/01/31 01:29:12.1	96.720	-0.320	0.140	1.720
2020/01/31 01:29:12.2	96.700	-0.320	0.130	1.710
2020/01/31 01:29:12.3	96.680	-0.320	0.110	1.700
2020/01/31 01:29:12.4	96.670	-0.320	0.080	1.680
2020/01/31 01:29:12.5	96.650	-0.310	0.050	1.650
2020/01/31 01:29:12.6	96.640	-0.300	0.020	1.630
2020/01/31 01:29:12.7	96.640	-0.290	-0.010	1.600
2020/01/31 01:29:12.8	96.630	-0.280	-0.040	1.560
2020/01/31 01:29:12.9	96.630	-0.260	-0.080	1.520
2020/01/31 01:29:13.0	96.630	-0.240	-0.120	1.480
2020/01/31 01:29:13.1	96.640	-0.230	-0.160	1.440
2020/01/31 01:29:13.2	96.650	-0.210	-0.200	1.390
2020/01/31 01:29:13.3	96.660	-0.190	-0.240	1.350
2020/01/31 01:29:13.4	96.680	-0.170	-0.280	1.300
2020/01/31 01:29:13.5	96.690	-0.140	-0.320	1.250
2020/01/31 01:29:13.6	96.720	-0.120	-0.360	1.200
2020/01/31 01:29:13.7	96.740	-0.100	-0.400	1.140
2020/01/31 01:29:13.8	96.770	-0.080	-0.430	1.090
2020/01/31 01:29:13.9	96.800	-0.050	-0.470	1.030
2020/01/31 01:29:14.0	96.830	-0.030	-0.500	0.970
2020/01/31 01:29:14.1	96.870	-0.010	-0.530	0.920
2020/01/31 01:29:14.2	96.900	0.010	-0.550	0.860
2020/01/31 01:29:14.3	96.940	0.030	-0.580	0.800
2020/01/31 01:29:14.4	96.980	0.050	-0.590	0.740
2020/01/31 01:29:14.5	97.020	0.060	-0.610	0.680
2020/01/31 01:29:14.6	97.060	0.080	-0.620	0.620
2020/01/31 01:29:14.7	97.100	0.090	-0.630	0.560
2020/01/31 01:29:14.8	97.140	0.100	-0.630	0.510
2020/01/31 01:29:14.9	97.190	0.110	-0.630	0.450
2020/01/31 01:29:15.0	97.220	0.120	-0.620	0.400
2020/01/31 01:29:15.1	97.260	0.130	-0.610	0.340
2020/01/31 01:29:15.2	97.300	0.130	-0.600	0.290
2020/01/31 01:29:15.3	97.340	0.130	-0.580	0.230
2020/01/31 01:29:15.4	97.380	0.130	-0.560	0.180
2020/01/31 01:29:15.5	97.420	0.130	-0.540	0.130
2020/01/31 01:29:15.6	97.460	0.130	-0.510	0.080
2020/01/31 01:29:15.7	97.500	0.130	-0.480	0.040
2020/01/31 01:29:15.8	97.530	0.120	-0.450	-0.000
2020/01/31 01:29:15.9	97.570	0.110	-0.420	-0.050
2020/01/31 01:29:16.0	97.600	0.100	-0.380	-0.090
2020/01/31 01:29:16.1	97.630	0.100	-0.350	-0.120
2020/01/31 01:29:16.2	97.650	0.080	-0.310	-0.150
2020/01/31 01:29:16.3	97.680	0.070	-0.270	-0.180
2020/01/31 01:29:16.4	97.700	0.060	-0.230	-0.210
2020/01/31 01:29:16.5	97.710	0.050	-0.190	-0.230
2020/01/31 01:29:16.6	97.730	0.030	-0.140	-0.250
2020/01/31 01:29:16.7	97.740	0.020	-0.100	-0.260
2020/01/31 01:29:16.8	97.750	0.000	-0.060	-0.270
2020/01/31 01:29:16.9	97.750	-0.010	-0.020	-0.280
2020/01/31 01:29:17.0	97.750	-0.030	0.020	-0.280
2020/01/31 01:29:17.1	97.740	-0.040	0.060	-0.280
2020/01/31 01:29:17.2	97.740	-0.060	0.100	-0.270
2020/01/31 01:29:17.3	97.730	-0.080	0.140	-0.260
2020/01/31 01:29:17.4	97.710	-0.090	0.180	-0.250
2020/01/31 01:29:17.5	97.700	-0.110	0.210	-0.230
2020/01/31 01:29:17.6	97.680	-0.120	0.250	-0.210
2020/01/31 01:29:17.7	97.650	-0.140	0.280	-0.180
2020/01/31 01:29:17.8	97.630	-0.150	0.310	-0.150
2020/01/31 01:29:17.9	97.600	-0.160	0.330	-0.120
2020/01/31 01:29:18.0	97.570	-0.180	0.360	-0.090
2020/01/31 01:29:18.1	97.530	-0.190	0.380	-0.050
2020/01/31 01:29:18.2	97.490	-0.200	0.400	-0.010
2020/01/31 01:29:18.3	97.460	-0.210	0.410	0.030
2020/01/31 01:29:18.4	97.420	-0.220	0.420	0.070
2020/01/31 01:29:18.5	97.380	-0.230	0.430	0.120
2020/01/31 01:29:18.6	97.340	-0.240	0.440	0.160
2020/01/31 01:29:18.7	97.290	-0.250	0.440	0.200
2020/01/31 01:29:18.8	97.250	-0.250	0.430	0.250
2020/01/31 01:29:18.9	97.210	-0.260	0.430	0.290
2020/01/31 01:29:19.0	97.170	-0.260	0.420	0.340
2020/01/31 01:29:19.1	97.130	-0.270	0.400	0.380
2020/01/31 01:29:19.2	97.090	-0.270	0.390	0.420
2020/01/31 01:29:19.3	97.060	-0.270	0.370	0.460
2020/01/31 01:29:19.4	97.020	-0.270	0.340	0.500
2020/01/31 01:29:19.5	96.990	-0.270	0.310	0.540
2020/01/31 01:29:19.6	96.960	-0.260	0.280	0.570
2020/01/31 01:29:19.7	96.930	-0.260	0.250	0.600
2020/01/31 01:29:19.8	96.910	-0.250	0.210	0.630
2020/01/31 01:29:19.9	96.890	-0.250	0.170	0.660
2020/01/31 01:29:20.0	96.880	-0.240	0.130	0.690
2020/01/31 01:29:20.1	96.860	-0.230	0.090	0.710
2020/01/31 01:29:20.2	96.850	-0.220	0.040	0.730
2020/01/31 01:29:20.3	96.850	-0.210	-0.000	0.740
2020/01/31 01:29:20.4	96.840	-0.190	-0.050	0.760
2020/01/31 01:29:20.5	96.840	-0.180	-0.100	0.770
2020/01/31 01:29:20.6	96.850	-0.160	-0.150	0.780
2020/01/31 01:29:20.7	96.860	-0.150	-0.190	0.790
2020/01/31 01:29:20.8	96.870	-0.130	-0.240	0.790
2020/01/31 01:29:20.9	96.880	-0.110	-0.290	0.790
2020/01/31 01:29:21.0	96.900	-0.090	-0.340	0.800
2020/01/31 01:29:21.1	96.920	-0.070	-0.390	0.800
2020/01/31 01:29:21.2	96.940	-0.050	-0.430	0.790
2020/01/31 01:29:21.3	96.960	-0.030	-0.480	0.790
2020/01/31 01:29:21.4	96.990	-0.010	-0.520	0.780
2020/01/31 01:29:21.5	97.020	0.010	-0.560	0.770
2020/01/31 01:29:21.6	97.050	0.030	-0.600	0.760
2020/01/31 01:29:21.7	97.090	0.060	-0.630	0.750
2020/01/31 01:29:21.8	97.120	0.080	-0.670	0.730
2020/01/31 01:29:21.9	97.160	0.100	-0.700	0.720
2020/01/31 01:29:22.0	97.190	0.120	-0.730	0.700
2020/01/31 01:29:22.1	97.230	0.150	-0.750	0.690
2020/01/31 01:29:22.2	97.270	0.170	-0.780	0.670
2020/01/31 01:29:22.3	97.310	0.190	-0.790	0.650
2020/01/31 01:29:22.4	97.350	0.210	-0.810	0.630
2020/01/31 01:29:22.5	97.380	0.230	-0.820	0.610
2020/01/31 01:29:22.6	97.420	0.250	-0.820	0.590
2020/01/31 01:29:22.7	97.460	0.270	-0.830	0.570
2020/01/31 01:29:22.8	97.490	0.280	-0.820	0.550
2020/01/31 01:29:22.9	97.520	0.300	-0.820	0.540
2020/01/31 01:29:23.0	97.550	0.310	-0.810	0.520
2020/01/31 01:29:23.1	97.580	0.330	-0.790	0.510
2020/01/31 01:29:23.2	97.610	0.340	-0.780	0.500
2020/01/31 01:29:23.3	97.630	0.350	-0.760	0.490
2020/01/31 01:29:23.4	97.650	0.360	-0.730	0.480
2020/01/31 01:29:23.5	97.670	0.370	-0.710	0.470
2020/01/31 01:29:23.6	97.680	0.370	-0.680	0.460
2020/01/31 01:29:23.7	97.700	0.380	-0.640	0.460
2020/01/31 01:29:23.8	97.710	0.380	-0.610	0.460
2020/01/31 01:29:23.9	97.710	0.380	-0.570	0.460
2020/01/31 01:29:24.0	97.710	0.380	-0.530	0.460
2020/01/31 01:29:24.1	97.710	0.380	-0.490	0.470
2020/01/31 01:29:24.2	97.710	0.380	-0.450	0.480
2020/01/31 01:29:24.3	97.710	0.370	-0.400	0.490
2020/01/31 01:29:24.4	97.710	0.360	-0.360	0.500
2020/01/31 01:29:24.5	97.700	0.350	-0.320	0.510
2020/01/31 01:29:24.6	97.690	0.340	-0.270	0.530
2020/01/31 01:29:24.7	97.680	0.330	-0.230	0.550
2020/01/31 01:29:24.8	97.670	0.320	-0.190	0.570
2020/01/31 01:29:24.9	97.660	0.300	-0.140	0.590
2020/01/31 01:29:25.0	97.660	0.290	-0.100	0.620
2020/01/31 01:29:25.1	97.640	0.270	-0.060	0.650
2020/01/31 01:29:25.2	97.630	0.250	-0.020	0.680
2020/01/31 01:29:25.3	97.620	0.230	0.010	0.710
2020/01/31 01:29:25.4	97.600	0.210	0.040	0.750
2020/01/31 01:29:25.5	97.590	0.190	0.070	0.780
2020/01/31 01:29:25.6	97.570	0.170	0.100	0.820
2020/01/31 01:29:25.7	97.560	0.150	0.120	0.860
2020/01/31 01:29:25.8	97.540	0.130	0.150	0.890
2020/01/31 01:29:25.9	97.530	0.110	0.170	0.930
2020/01/31 01:29:26.0	97.510	0.090	0.180	0.970
2020/01/31 01:29:26.1	97.500	0.070	0.200	1.010
2020/01/31 01:29:26.2	97.480	0.050	0.210	1.050
2020/01/31 01:29:26.3	97.470	0.040	0.210	1.080
2020/01/31 01:29:26.4	97.460	0.020	0.220	1.120
2020/01/31 01:29:26.5	97.450	0.000	0.220	1.160
2020/01/31 01:29:26.6	97.440	-0.010	0.220	1.190
2020/01/31 01:29:26.7	97.430	-0.030	0.220	1.220
2020/01/31 01:29:26.8	97.430	-0.040	0.220	1.250
2020/01/31 01:29:26.9	97.420	-0.060	0.220	1.280
2020/01/31 01:29:27.0	97.410	-0.070	0.210	1.300
2020/01/31 01:29:27.1	97.410	-0.080	0.210	1.320
2020/01/31 01:29:27.2	97.400	-0.090	0.200	1.340
2020/01/31 01:29:27.3	97.400	-0.100	0.190	1.360
2020/01/31 01:29:27.4	97.390	-0.110	0.180	1.370
2020/01/31 01:29:27.5	97.390	-0.120	0.180	1.380
2020/01/31 01:29:27.6	97.390	-0.130	0.170	1.380
2020/01/31 01:29:27.7	97.390	-0.140	0.160	1.380
2020/01/31 01:29:27.8	97.380	-0.140	0.150	1.380
2020/01/31 01:29:27.9	97.380	-0.150	0.140	1.370
2020/01/31 01:29:28.0	97.380	-0.150	0.140	1.360
2020/01/31 01:29:28.1	97.380	-0.160	0.130	1.340
2020/01/31 01:29:28.2	97.380	-0.160	0.130	1.330
2020/01/31 01:29:28.3	97.380	-0.170	0.120	1.310
2020/01/31 01:29:28.4	97.380	-0.180	0.120	1.290
2020/01/31 01:29:28.5	97.380	-0.180	0.120	1.260
2020/01/31 01:29:28.6	97.380	-0.190	0.120	1.230
2020/01/31 01:29:28.7	97.380	-0.190	0.130	1.200
2020/01/31 01:29:28.8	97.380	-0.200	0.130	1.170
2020/01/31 01:29:28.9	97.380	-0.210	0.140	1.130
2020/01/31 01:29:29.0	97.380	-0.210	0.150	1.100
2020/01/31 01:29:29.1	97.380	-0.220	0.160	1.060
2020/01/31 01:29:29.2	97.380	-0.230	0.170	1.020
2020/01/31 01:29:29.3	97.380	-0.240	0.180	0.980
2020/01/31 01:29:29.4	97.380	-0.240	0.190	0.930
2020/01/31 01:29:29.5	97.380	-0.250	0.200	0.890
2020/01/31 01:29:29.6	97.390	-0.260	0.210	0.840
2020/01/31 01:29:29.7	97.390	-0.270	0.220	0.790
2020/01/31 01:29:29.8	97.390	-0.280	0.230	0.740
2020/01/31 01:29:29.9	97.390	-0.290	0.240	0.700
2020/01/31 01:29:30.0	97.390	-0.290	0.250	0.640
2020/01/31 01:29:30.1	97.390	-0.300	0.250	0.590
2020/01/31 01:29:30.2	97.400	-0.310	0.260	0.540
2020/01/31 01:29:30.3	97.400	-0.320	0.260	0.490
2020/01/31 01:29:30.4	97.410	-0.320	0.260	0.450
2020/01/31 01:29:30.5	97.410	-0.330	0.260	0.400
2020/01/31 01:29:30.6	97.420	-0.330	0.250	0.350
2020/01/31 01:29:30.7	97.420	-0.330	0.240	0.300
2020/01/31 01:29:30.8	97.430	-0.340	0.230	0.260
2020/01/31 01:29:30.9	97.440	-0.340	0.210	0.210
2020/01/31 01:29:31.0	97.450	-0.330	0.190	0.170
2020/01/31 01:29:31.1	97.460	-0.330	0.160	0.130
2020/01/31 01:29:31.2	97.460	-0.330	0.130	0.090
2020/01/31 01:29:31.3	97.470	-0.320	0.090	0.050
2020/01/31 01:29:31.4	97.480	-0.310	0.050	0.010
2020/01/31 01:29:31.5	97.490	-0.300	0.010	-0.020
2020/01/31 01:29:31.6	97.500	-0.290	-0.040	-0.060
2020/01/31 01:29:31.7	97.510	-0.280	-0.090	-0.090
2020/01/31 01:29:31.8	97.520	-0.260	-0.140	-0.120
2020/01/31 01:29:31.9	97.530	-0.240	-0.200	-0.150
2020/01/31 01:29:32.0	97.540	-0.230	-0.260	-0.180
2020/01/31 01:29:32.1	97.550	-0.210	-0.330	-0.210
2020/01/31 01:29:32.2	97.560	-0.180	-0.390	-0.240
2020/01/31 01:29:32.3	97.580	-0.160	-0.460	-0.260
2020/01/31 01:29:32.4	97.590	-0.140	-0.520	-0.290
2020/01/31 01:29:32.5	97.600	-0.110	-0.590	-0.310
2020/01/31 01:29:32.6	97.610	-0.090	-0.650	-0.330
2020/01/31 01:29:32.7	97.630	-0.060	-0.720	-0.350
2020/01/31 01:29:32.8	97.640	-0.030	-0.780	-0.370
2020/01/31 01:29:32.9	97.650	-0.010	-0.840	-0.390
2020/01/31 01:29:33.0	97.680	0.020	-0.900	-0.400
2020/01/31 01:29:33.1	97.690	0.050	-0.950	-0.410
2020/01/31 01:29:33.2	97.700	0.080	-1.000	-0.420
2020/01/31 01:29:33.3	97.720	0.100	-1.040	-0.430
2020/01/31 01:29:33.4	97.730	0.130	-1.080	-0.440
2020/01/31 01:29:33.5	97.750	0.160	-1.110	-0.440
2020/01/31 01:29:33.6	97.760	0.180	-1.140	-0.440
2020/01/31 01:29:33.7	97.780	0.200	-1.160	-0.440
2020/01/31 01:29:33.8	97.790	0.230	-1.180	-0.430
2020/01/31 01:29:33.9	97.800	0.250	-1.190	-0.420
2020/01/31 01:29:34.0	97.840	0.260	-1.180	-0.410
2020/01/31 01:29:34.1	97.850	0.280	-1.180	-0.390
2020/01/31 01:29:34.2	97.860	0.300	-1.170	-0.370
2020/01/31 01:29:34.3	97.870	0.310	-1.150	-0.340
2020/01/31 01:29:34.4	97.880	0.320	-1.120	-0.310
2020/01/31 01:29:34.5	97.890	0.330	-1.090	-0.280
2020/01/31 01:29:34.6	97.890	0.340	-1.050	-0.240
2020/01/31 01:29:34.7	97.900	0.350	-1.010	-0.200
2020/01/31 01:29:34.8	97.900	0.350	-0.960	-0.150
2020/01/31 01:29:34.9	97.900	0.350	-0.910	-0.100
2020/01/31 01:29:35.0	97.890	0.350	-0.850	-0.050
2020/01/31 01:29:35.1	97.890	0.350	-0.790	0.010
2020/01/31 01:29:35.2	97.880	0.350	-0.720	0.070
2020/01/31 01:29:35.3	97.880	0.340	-0.650	0.130
2020/01/31 01:29:35.4	97.870	0.330	-0.570	0.190
2020/01/31 01:29:35.5	97.860	0.330	-0.500	0.250
2020/01/31 01:29:35.6	97.860	0.320	-0.420	0.320
2020/01/31 01:29:35.7	97.840	0.300	-0.340	0.380
2020/01/31 01:29:35.8	97.830	0.290	-0.260	0.450
2020/01/31 01:29:35.9	97.820	0.280	-0.180	0.510
2020/01/31 01:29:36.0	97.810	0.260	-0.090	0.580
2020/01/31 01:29:36.1	97.800	0.250	-0.010	0.640
2020/01/31 01:29:36.2	97.780	0.230	0.070	0.700
2020/01/31 01:29:36.3	97.770	0.210	0.140	0.760
2020/01/31 01:29:36.4	97.750	0.190	0.220	0.820
2020/01/31 01:29:36.5	97.740	0.170	0.290	0.870
2020/01/31 01:29:36.6	97.720	0.150	0.360	0.920
2020/01/31 01:29:36.7	97.710	0.130	0.430	0.970
2020/01/31 01:29:36.8	97.690	0.110	0.500	1.010
2020/01/31 01:29:36.9	97.680	0.090	0.560	1.050
2020/01/31 01:29:37.0	97.680	0.070	0.610	1.090
2020/01/31 01:29:37.1	97.670	0.050	0.670	1.120
2020/01/31 01:29:37.2	97.660	0.030	0.710	1.150
2020/01/31 01:29:37.3	97.650	0.010	0.760	1.180
2020/01/31 01:29:37.4	97.650	-0.010	0.790	1.200
2020/01/31 01:29:37.5	97.640	-0.030	0.830	1.220
2020/01/31 01:29:37.6	97.640	-0.050	0.850	1.230
2020/01/31 01:29:37.7	97.640	-0.070	0.880	1.250
2020/01/31 01:29:37.8	97.640	-0.090	0.890	1.260
2020/01/31 01:29:37.9	97.640	-0.110	0.900	1.260
2020/01/31 01:29:38.0	97.650	-0.130	0.910	1.270
2020/01/31 01:29:38.1	97.650	-0.150	0.910	1.270
2020/01/31 01:29:38.2	97.660	-0.160	0.900	1.270
2020/01/31 01:29:38.3	97.660	-0.180	0.890	1.270
2020/01/31 01:29:38.4	97.670	-0.200	0.870	1.260
2020/01/31 01:29:38.5	97.680	-0.210	0.850	1.260
2020/01/31 01:29:38.6	97.690	-0.220	0.820	1.250
2020/01/31 01:29:38.7	97.690	-0.230	0.780	1.250
2020/01/31 01:29:38.8	97.700	-0.240	0.740	1.240
2020/01/31 01:29:38.9	97.710	-0.250	0.700	1.230
2020/01/31 01:29:39.0	97.710	-0.260	0.640	1.220
2020/01/31 01:29:39.1	97.720	-0.260	0.590	1.220
2020/01/31 01:29:39.2	97.730	-0.270	0.530	1.210
2020/01/31 01:29:39.3	97.740	-0.270	0.470	1.200
2020/01/31 01:29:39.4	97.750	-0.270	0.400	1.190
2020/01/31 01:29:39.5	97.760	-0.270	0.330	1.180
2020/01/31 01:29:39.6	97.760	-0.270	0.260	1.170
2020/01/31 01:29:39.7	97.770	-0.260	0.180	1.160
2020/01/31 01:29:39.8	97.780	-0.250	0.110	1.150
2020/01/31 01:29:39.9	97.790	-0.250	0.030	1.130
2020/01/31 01:29:40.0	97.790	-0.240	-0.050	1.120
2020/01/31 01:29:40.1	97.800	-0.230	-0.130	1.100
2020/01/31 01:29:40.2	97.810	-0.210	-0.210	1.090
2020/01/31 01:29:40.3	97.820	-0.200	-0.280	1.070
2020/01/31 01:29:40.4	97.830	-0.190	-0.360	1.050
2020/01/31 01:29:40.5	97.840	-0.170	-0.430	1.030
2020/01/31 01:29:40.6	97.850	-0.150	-0.510	1.010
2020/01/31 01:29:40.7	97.860	-0.130	-0.570	0.990
2020/01/31 01:29:40.8	97.870	-0.120	-0.640	0.970
2020/01/31 01:29:40.9	97.880	-0.100	-0.700	0.950
2020/01/31 01:29:41.0	97.900	-0.080	-0.760	0.930
2020/01/31 01:29:41.1	97.910	-0.060	-0.810	0.900
2020/01/31 01:29:41.2	97.920	-0.040	-0.860	0.880
2020/01/31 01:29:41.3	97.930	-0.020	-0.900	0.860
2020/01/31 01:29:41.4	97.940	-0.000	-0.940	0.830
2020/01/31 01:29:41.5	97.950	0.020	-0.970	0.810
2020/01/31 01:29:41.6	97.960	0.040	-0.990	0.790
2020/01/31 01:29:41.7	97.970	0.050	-1.010	0.760
2020/01/31 01:29:41.8	97.980	0.070	-1.020	0.740
2020/01/31 01:29:41.9	97.990	0.090	-1.030	0.720
2020/01/31 01:29:42.0	97.990	0.100	-1.030	0.700
2020/01/31 01:29:42.1	98.000	0.120	-1.030	0.690
2020/01/31 01:29:42.2	98.000	0.130	-1.020	0.670
2020/01/31 01:29:42.3	98.010	0.140	-1.000	0.650
2020/01/31 01:29:42.4	98.010	0.150	-0.980	0.630
2020/01/31 01:29:42.5	98.020	0.160	-0.960	0.620
2020/01/31 01:29:42.6	98.020	0.170	-0.930	0.600
2020/01/31 01:29:42.7	98.020	0.180	-0.900	0.590
2020/01/31 01:29:42.8	98.030	0.180	-0.860	0.580
2020/01/31 01:29:42.9	98.030	0.190	-0.820	0.570
2020/01/31 01:29:43.0	98.030	0.190	-0.770	0.550
2020/01/31 01:29:43.1	98.040	0.190	-0.730	0.540
2020/01/31 01:29:43.2	98.040	0.190	-0.680	0.530
2020/01/31 01:29:43.3	98.040	0.190	-0.620	0.520
2020/01/31 01:29:43.4	98.050	0.180	-0.570	0.510
2020/01/31 01:29:43.5	98.050	0.180	-0.510	0.500
2020/01/31 01:29:43.6	98.060	0.170	-0.450	0.490
2020/01/31 01:29:43.7	98.060	0.160	-0.390	0.480
2020/01/31 01:29:43.8	98.070	0.150	-0.330	0.470
2020/01/31 01:29:43.9	98.080	0.140	-0.270	0.460
2020/01/31 01:29:44.0	98.090	0.130	-0.200	0.450
2020/01/31 01:29:44.1	98.100	0.120	-0.140	0.440
2020/01/31 01:29:44.2	98.110	0.100	-0.080	0.430
2020/01/31 01:29:44.3	98.120	0.090	-0.020	0.430
2020/01/31 01:29:44.4	98.130	0.070	0.040	0.420
2020/01/31 01:29:44.5	98.140	0.060	0.100	0.410
2020/01/31 01:29:44.6	98.150	0.040	0.150	0.400
2020/01/31 01:29:44.7	98.170	0.030	0.200	0.400
2020/01/31 01:29:44.8	98.180	0.010	0.250	0.390
2020/01/31 01:29:44.9	98.190	-0.010	0.300	0.380
2020/01/31 01:29:45.0	98.200	-0.020	0.340	0.380
2020/01/31 01:29:45.1	98.210	-0.040	0.380	0.370
2020/01/31 01:29:45.2	98.230	-0.050	0.410	0.370
2020/01/31 01:29:45.3	98.240	-0.060	0.430	0.360
2020/01/31 01:29:45.4	98.250	-0.080	0.450	0.350
2020/01/31 01:29:45.5	98.260	-0.090	0.470	0.350
2020/01/31 01:29:45.6	98.280	-0.100	0.480	0.340
2020/01/31 01:29:45.7	98.290	-0.100	0.480	0.340
2020/01/31 01:29:45.8	98.300	-0.110	0.480	0.330
2020/01/31 01:29:45.9	98.310	-0.110	0.480	0.330
2020/01/31 01:29:46.0	98.320	-0.120	0.470	0.330
2020/01/31 01:29:46.1	98.320	-0.120	0.450	0.320
2020/01/31 01:29:46.2	98.330	-0.120	0.430	0.320
2020/01/31 01:29:46.3	98.330	-0.110	0.400	0.320
2020/01/31 01:29:46.4	98.340	-0.110	0.370	0.330
2020/01/31 01:29:46.5	98.340	-0.100	0.340	0.330
2020/01/31 01:29:46.6	98.330	-0.100	0.300	0.330
2020/01/31 01:29:46.7	98.330	-0.090	0.260	0.340
2020/01/31 01:29:46.8	98.330	-0.070	0.210	0.350
2020/01/31 01:29:46.9	98.320	-0.060	0.170	0.360
2020/01/31 01:29:47.0	98.320	-0.050	0.110	0.370
2020/01/31 01:29:47.1	98.310	-0.030	0.060	0.380
2020/01/31 01:29:47.2	98.290	-0.020	0.020	0.390
2020/01/31 01:29:47.3	98.280	0.000	-0.030	0.410
2020/01/31 01:29:47.4	98.270	0.020	-0.080	0.420
2020/01/31 01:29:47.5	98.250	0.040	-0.130	0.440
2020/01/31 01:29:47.6	98.240	0.060	-0.180	0.450
2020/01/31 01:29:47.7	98.220	0.070	-0.220	0.470
2020/01/31 01:29:47.8	98.200	0.090	-0.270	0.490
2020/01/31 01:29:47.9	98.180	0.110	-0.310	0.500
2020/01/31 01:29:48.0	98.160	0.130	-0.340	0.520
2020/01/31 01:29:48.1	98.140	0.150	-0.380	0.530
2020/01/31 01:29:48.2	98.120	0.160	-0.410	0.550
2020/01/31 01:29:48.3	98.100	0.180	-0.440	0.560
2020/01/31 01:29:48.4	98.090	0.200	-0.460	0.570
2020/01/31 01:29:48.5	98.070	0.210	-0.490	0.580
2020/01/31 01:29:48.6	98.060	0.220	-0.500	0.590
2020/01/31 01:29:48.7	98.050	0.240	-0.520	0.600
2020/01/31 01:29:48.8	98.030	0.250	-0.520	0.600
2020/01/31 01:29:48.9	98.020	0.260	-0.530	0.600
2020/01/31 01:29:49.0	98.020	0.260	-0.530	0.610
2020/01/31 01:29:49.1	98.020	0.270	-0.530	0.600
2020/01/31 01:29:49.2	98.020	0.280	-0.530	0.600
2020/01/31 01:29:49.3	98.020	0.280	-0.520	0.600
2020/01/31 01:29:49.4	98.020	0.290	-0.500	0.590
2020/01/31 01:29:49.5	98.020	0.290	-0.490	0.580
2020/01/31 01:29:49.6	98.030	0.290	-0.470	0.570
2020/01/31 01:29:49.7	98.030	0.290	-0.450	0.560
2020/01/31 01:29:49.8	98.040	0.280	-0.430	0.550
2020/01/31 01:29:49.9	98.050	0.280	-0.400	0.540
2020/01/31 01:29:50.0	98.050	0.270	-0.370	0.530
2020/01/31 01:29:50.1	98.070	0.270	-0.350	0.520
2020/01/31 01:29:50.2	98.080	0.260	-0.320	0.520
2020/01/31 01:29:50.3	98.100	0.250	-0.290	0.510
2020/01/31 01:29:50.4	98.110	0.240	-0.260	0.500
2020/01/31 01:29:50.5	98.130	0.230	-0.230	0.490
2020/01/31 01:29:50.6	98.150	0.220	-0.200	0.490
2020/01/31 01:29:50.7	98.160	0.200	-0.170	0.490
2020/01/31 01:29:50.8	98.180	0.190	-0.150	0.490
2020/01/31 01:29:50.9	98.200	0.180	-0.120	0.490
2020/01/31 01:29:51.0	98.220	0.160	-0.100	0.490
2020/01/31 01:29:51.1	98.230	0.140	-0.070	0.500
2020/01/31 01:29:51.2	98.250	0.130	-0.050	0.500
2020/01/31 01:29:51.3	98.260	0.110	-0.030	0.510
2020/01/31 01:29:51.4	98.280	0.090	-0.020	0.520
2020/01/31 01:29:51.5	98.290	0.070	-0.000	0.530
2020/01/31 01:29:51.6	98.310	0.050	0.010	0.540
2020/01/31 01:29:51.7	98.320	0.030	0.020	0.550
2020/01/31 01:29:51.8	98.330	0.010	0.030	0.570
2020/01/31 01:29:51.9	98.340	-0.010	0.040	0.580
2020/01/31 01:29:52.0	98.360	-0.030	0.040	0.600
2020/01/31 01:29:52.1	98.380	-0.050	0.050	0.620
2020/01/31 01:29:52.2	98.390	-0.070	0.050	0.640
2020/01/31 01:29:52.3	98.400	-0.100	0.050	0.660
2020/01/31 01:29:52.4	98.410	-0.120	0.050	0.670
2020/01/31 01:29:52.5	98.420	-0.140	0.040	0.690
2020/01/31 01:29:52.6	98.430	-0.160	0.040	0.710
2020/01/31 01:29:52.7	98.440	-0.180	0.040	0.730
2020/01/31 01:29:52.8	98.450	-0.200	0.030	0.750
2020/01/31 01:29:52.9	98.450	-0.220	0.030	0.770
2020/01/31 01:29:53.0	98.460	-0.240	0.030	0.790
2020/01/31 01:29:53.1	98.470	-0.260	0.020	0.800
2020/01/31 01:29:53.2	98.480	-0.280	0.020	0.820
2020/01/31 01:29:53.3	98.490	-0.300	0.020	0.840
2020/01/31 01:29:53.4	98.500	-0.320	0.020	0.850
2020/01/31 01:29:53.5	98.520	-0.340	0.020	0.860
2020/01/31 01:29:53.6	98.530	-0.360	0.020	0.880
2020/01/31 01:29:53.7	98.540	-0.370	0.020	0.890
2020/01/31 01:29:53.8	98.550	-0.390	0.020	0.900
2020/01/31 01:29:53.9	98.570	-0.400	0.020	0.910
2020/01/31 01:29:54.0	98.600	-0.410	0.020	0.920
2020/01/31 01:29:54.1	98.610	-0.420	0.020	0.920
2020/01/31 01:29:54.2	98.630	-0.430	0.020	0.930
2020/01/31 01:29:54.3	98.650	-0.440	0.030	0.940
2020/01/31 01:29:54.4	98.660	-0.440	0.030	0.950
2020/01/31 01:29:54.5	98.680	-0.440	0.030	0.960
2020/01/31 01:29:54.6	98.690	-0.450	0.020	0.970
2020/01/31 01:29:54.7	98.700	-0.450	0.020	0.980
2020/01/31 01:29:54.8	98.710	-0.440	0.020	0.990
2020/01/31 01:29:54.9	98.720	-0.440	0.010	1.010
2020/01/31 01:29:55.0	98.730	-0.430	0.010	1.030
2020/01/31 01:29:55.1	98.740	-0.420	0.000	1.050
2020/01/31 01:29:55.2	98.750	-0.410	-0.010	1.070
2020/01/31 01:29:55.3	98.750	-0.400	-0.020	1.090
2020/01/31 01:29:55.4	98.750	-0.380	-0.040	1.120
2020/01/31 01:29:55.5	98.750	-0.360	-0.050	1.150
2020/01/31 01:29:55.6	98.740	-0.340	-0.070	1.180
2020/01/31 01:29:55.7	98.740	-0.320	-0.090	1.210
2020/01/31 01:29:55.8	98.730	-0.300	-0.110	1.240
2020/01/31 01:29:55.9	98.720	-0.270	-0.130	1.270
2020/01/31 01:29:56.0	98.690	-0.240	-0.160	1.300
2020/01/31 01:29:56.1	98.680	-0.220	-0.180	1.340
2020/01/31 01:29:56.2	98.670	-0.190	-0.210	1.370
2020/01/31 01:29:56.3	98.650	-0.160	-0.240	1.390
2020/01/31 01:29:56.4	98.630	-0.130	-0.270	1.420
2020/01/31 01:29:56.5	98.620	-0.100	-0.290	1.450
2020/01/31 01:29:56.6	98.600	-0.070	-0.320	1.470
2020/01/31 01:29:56.7	98.580	-0.030	-0.350	1.480
2020/01/31 01:29:56.8	98.560	-0.000	-0.380	1.490
2020/01/31 01:29:56.9	98.550	0.030	-0.400	1.500
2020/01/31 01:29:57.0	98.520	0.060	-0.430	1.510
2020/01/31 01:29:57.1	98.510	0.080	-0.450	1.500
2020/01/31 01:29:57.2	98.490	0.110	-0.470	1.490
2020/01/31 01:29:57.3	98.480	0.140	-0.490	1.480
2020/01/31 01:29:57.4	98.470	0.160	-0.510	1.460
2020/01/31 01:29:57.5	98.460	0.190	-0.530	1.440
2020/01/31 01:29:57.6	98.450	0.210	-0.540	1.410
2020/01/31 01:29:57.7	98.440	0.230	-0.550	1.380
2020/01/31 01:29:57.8	98.440	0.250	-0.560	1.340
2020/01/31 01:29:57.9	98.430	0.270	-0.570	1.300
2020/01/31 01:29:58.0	98.420	0.290	-0.560	1.250
2020/01/31 01:29:58.1	98.410	0.300	-0.570	1.200
2020/01/31 01:29:58.2	98.410	0.310	-0.560	1.150
2020/01/31 01:29:58.3	98.410	0.320	-0.560	1.100
2020/01/31 01:29:58.4	98.410	0.330	-0.550	1.040
2020/01/31 01:29:58.5	98.410	0.340	-0.540	0.990
2020/01/31 01:29:58.6	98.410	0.350	-0.530	0.930
2020/01/31 01:29:58.7	98.410	0.350	-0.520	0.870
2020/01/31 01:29:58.8	98.410	0.350	-0.500	0.810
2020/01/31 01:29:58.9	98.410	0.360	-0.490	0.760
2020/01/31 01:29:59.0	98.410	0.360	-0.470	0.700
2020/01/31 01:29:59.1	98.420	0.360	-0.450	0.640
2020/01/31 01:29:59.2	98.420	0.360	-0.430	0.590
2020/01/31 01:29:59.3	98.430	0.360	-0.410	0.540
2020/01/31 01:29:59.4	98.430	0.360	-0.390	0.490
2020/01/31 01:29:59.5	98.440	0.350	-0.370	0.450
2020/01/31 01:29:59.6	98.440	0.350	-0.350	0.410
2020/01/31 01:29:59.7	98.450	0.350	-0.330	0.370
2020/01/31 01:29:59.8	98.450	0.340	-0.310	0.330
2020/01/31 01:29:59.9	98.460	0.340	-0.290	0.300
2020/01/31 01:30:00.0	98.470	0.340	-0.260	0.270
2020/01/31 01:30:00.1	98.470	0.330	-0.240	0.250
2020/01/31 01:30:00.2	98.480	0.330	-0.210	0.220
2020/01/31 01:30:00.3	98.490	0.320	-0.190	0.210
2020/01/31 01:30:00.4	98.490	0.310	-0.160	0.190
2020/01/31 01:30:00.5	98.500	0.310	-0.140	0.180
2020/01/31 01:30:00.6	98.500	0.300	-0.110	0.160
2020/01/31 01:30:00.7	98.510	0.290	-0.090	0.160
2020/01/31 01:30:00.8	98.510	0.280	-0.060	0.150
2020/01/31 01:30:00.9	98.520	0.270	-0.030	0.140
2020/01/31 01:30:01.0	98.520	0.260	-0.010	0.140
2020/01/31 01:30:01.1	98.530	0.240	0.020	0.130
2020/01/31 01:30:01.2	98.530	0.230	0.050	0.130
2020/01/31 01:30:01.3	98.540	0.210	0.070	0.130
2020/01/31 01:30:01.4	98.540	0.200	0.100	0.130
2020/01/31 01:30:01.5	98.550	0.180	0.130	0.130
2020/01/31 01:30:01.6	98.550	0.160	0.150	0.130
2020/01/31 01:30:01.7	98.550	0.150	0.180	0.130
2020/01/31 01:30:01.8	98.560	0.130	0.200	0.130
2020/01/31 01:30:01.9	98.560	0.110	0.220	0.120
2020/01/31 01:30:02.0	98.580	0.080	0.250	0.130
2020/01/31 01:30:02.1	98.580	0.060	0.270	0.130
2020/01/31 01:30:02.2	98.580	0.040	0.280	0.120
2020/01/31 01:30:02.3	98.590	0.020	0.300	0.120
2020/01/31 01:30:02.4	98.590	-0.010	0.310	0.110
2020/01/31 01:30:02.5	98.600	-0.030	0.330	0.110
2020/01/31 01:30:02.6	98.600	-0.060	0.340	0.100
2020/01/31 01:30:02.7	98.610	-0.080	0.340	0.100
2020/01/31 01:30:02.8	98.610	-0.110	0.350	0.090
2020/01/31 01:30:02.9	98.620	-0.130	0.350	0.080
2020/01/31 01:30:03.0	98.620	-0.160	0.360	0.080
2020/01/31 01:30:03.1	98.630	-0.180	0.350	0.070
2020/01/31 01:30:03.2	98.630	-0.210	0.350	0.070
2020/01/31 01:30:03.3	98.640	-0.230	0.350	0.070
2020/01/31 01:30:03.4	98.650	-0.250	0.340	0.070
2020/01/31 01:30:03.5	98.650	-0.270	0.330	0.070
2020/01/31 01:30:03.6	98.660	-0.290	0.320	0.070
2020/01/31 01:30:03.7	98.670	-0.310	0.300	0.080
2020/01/31 01:30:03.8	98.680	-0.330	0.290	0.080
2020/01/31 01:30:03.9	98.690	-0.350	0.270	0.090
2020/01/31 01:30:04.0	98.710	-0.360	0.260	0.110
2020/01/31 01:30:04.1	98.720	-0.380	0.240	0.120
2020/01/31 01:30:04.2	98.730	-0.390	0.210	0.140
2020/01/31 01:30:04.3	98.740	-0.400	0.190	0.170
2020/01/31 01:30:04.4	98.750	-0.400	0.160	0.200
2020/01/31 01:30:04.5	98.760	-0.410	0.140	0.230
2020/01/31 01:30:04.6	98.770	-0.410	0.110	0.260
2020/01/31 01:30:04.7	98.780	-0.410	0.080	0.290
2020/01/31 01:30:04.8	98.790	-0.400	0.050	0.330
2020/01/31 01:30:04.9	98.800	-0.400	0.020	0.370
2020/01/31 01:30:05.0	98.810	-0.390	-0.020	0.420
2020/01/31 01:30:05.1	98.820	-0.380	-0.050	0.470
2020/01/31 01:30:05.2	98.830	-0.370	-0.090	0.510
2020/01/31 01:30:05.3	98.840	-0.350	-0.130	0.560
2020/01/31 01:30:05.4	98.850	-0.340	-0.170	0.610
2020/01/31 01:30:05.5	98.860	-0.320	-0.200	0.670
2020/01/31 01:30:05.6	98.870	-0.300	-0.240	0.720
2020/01/31 01:30:05.7	98.880	-0.280	-0.290	0.770
2020/01/31 01:30:05.8	98.880	-0.250	-0.330	0.820
2020/01/31 01:30:05.9	98.890	-0.230	-0.370	0.870
2020/01/31 01:30:06.0	98.890	-0.200	-0.410	0.920
2020/01/31 01:30:06.1	98.900	-0.170	-0.450	0.970
2020/01/31 01:30:06.2	98.900	-0.140	-0.490	1.020
2020/01/31 01:30:06.3	98.910	-0.110	-0.530	1.060
2020/01/31 01:30:06.4	98.910	-0.080	-0.560	1.110
2020/01/31 01:30:06.5	98.910	-0.050	-0.600	1.150
2020/01/31 01:30:06.6	98.920	-0.020	-0.630	1.190
2020/01/31 01:30:06.7	98.920	0.010	-0.660	1.230
2020/01/31 01:30:06.8	98.920	0.040	-0.690	1.270
2020/01/31 01:30:06.9	98.920	0.070	-0.720	1.300
2020/01/31 01:30:07.0	98.910	0.100	-0.740	1.330
2020/01/31 01:30:07.1	98.910	0.130	-0.760	1.360
2020/01/31 01:30:07.2	98.910	0.160	-0.770	1.390
2020/01/31 01:30:07.3	98.900	0.180	-0.790	1.420
2020/01/31 01:30:07.4	98.900	0.210	-0.790	1.440
2020/01/31 01:30:07.5	98.890	0.230	-0.800	1.460
2020/01/31 01:30:07.6	98.890	0.250	-0.800	1.480
2020/01/31 01:30:07.7	98.880	0.270	-0.790	1.500
2020/01/31 01:30:07.8	98.870	0.280	-0.780	1.510
2020/01/31 01:30:07.9	98.870	0.300	-0.770	1.530
2020/01/31 01:30:08.0	98.850	0.310	-0.750	1.540
2020/01/31 01:30:08.1	98.850	0.320	-0.730	1.550
2020/01/31 01:30:08.2	98.840	0.320	-0.700	1.560
2020/01/31 01:30:08.3	98.830	0.330	-0.670	1.560
2020/01/31 01:30:08.4	98.830	0.330	-0.640	1.570
2020/01/31 01:30:08.5	98.820	0.330	-0.600	1.570
2020/01/31 01:30:08.6	98.820	0.320	-0.560	1.580
2020/01/31 01:30:08.7	98.810	0.320	-0.520	1.580
2020/01/31 01:30:08.8	98.810	0.310	-0.480	1.580
2020/01/31 01:30:08.9	98.800	0.300	-0.430	1.570
2020/01/31 01:30:09.0	98.800	0.290	-0.380	1.570
2020/01/31 01:30:09.1	98.800	0.270	-0.330	1.570
2020/01/31 01:30:09.2	98.800	0.260	-0.280	1.560
2020/01/31 01:30:09.3	98.790	0.240	-0.230	1.560
2020/01/31 01:30:09.4	98.790	0.230	-0.180	1.550
2020/01/31 01:30:09.5	98.790	0.210	-0.130	1.540
2020/01/31 01:30:09.6	98.790	0.190	-0.080	1.530
2020/01/31 01:30:09.7	98.780	0.170	-0.040	1.520
2020/01/31 01:30:09.8	98.780	0.150	0.010	1.510
2020/01/31 01:30:09.9	98.780	0.130	0.050	1.500
2020/01/31 01:30:10.0	98.780	0.110	0.090	1.490
2020/01/31 01:30:10.1	98.780	0.090	0.130	1.470
2020/01/31 01:30:10.2	98.770	0.070	0.160	1.450
2020/01/31 01:30:10.3	98.770	0.050	0.190	1.440
2020/01/31 01:30:10.4	98.770	0.040	0.220	1.420
2020/01/31 01:30:10.5	98.770	0.020	0.240	1.400
2020/01/31 01:30:10.6	98.770	0.010	0.260	1.380
2020/01/31 01:30:10.7	98.760	-0.010	0.280	1.350
2020/01/31 01:30:10.8	98.760	-0.020	0.290	1.330
2020/01/31 01:30:10.9	98.760	-0.030	0.300	1.300
2020/01/31 01:30:11.0	98.760	-0.040	0.310	1.270
2020/01/31 01:30:11.1	98.750	-0.050	0.310	1.240
2020/01/31 01:30:11.2	98.750	-0.060	0.300	1.200
2020/01/31 01:30:11.3	98.750	-0.060	0.300	1.170
2020/01/31 01:30:11.4	98.750	-0.060	0.290	1.130
2020/01/31 01:30:11.5	98.750	-0.070	0.280	1.090
2020/01/31 01:30:11.6	98.760	-0.070	0.260	1.050
2020/01/31 01:30:11.7	98.760	-0.060	0.240	1.010
2020/01/31 01:30:11.8	98.760	-0.060	0.220	0.970
2020/01/31 01:30:11.9	98.760	-0.060	0.200	0.920
2020/01/31 01:30:12.0	98.780	-0.050	0.170	0.870
2020/01/31 01:30:12.1	98.780	-0.050	0.140	0.820
2020/01/31 01:30:12.2	98.790	-0.040	0.120	0.770
2020/01/31 01:30:12.3	98.800	-0.030	0.090	0.720
2020/01/31 01:30:12.4	98.810	-0.030	0.060	0.670
2020/01/31 01:30:12.5	98.820	-0.020	0.020	0.620
2020/01/31 01:30:12.6	98.830	-0.010	-0.010	0.560
2020/01/31 01:30:12.7	98.840	-0.000	-0.040	0.510
2020/01/31 01:30:12.8	98.850	0.000	-0.070	0.460
2020/01/31 01:30:12.9	98.870	0.010	-0.110	0.400
2020/01/31 01:30:13.0	98.870	0.020	-0.140	0.350
2020/01/31 01:30:13.1	98.890	0.030	-0.170	0.300
2020/01/31 01:30:13.2	98.910	0.030	-0.200	0.250
2020/01/31 01:30:13.3	98.920	0.040	-0.220	0.200
2020/01/31 01:30:13.4	98.940	0.040	-0.250	0.160
2020/01/31 01:30:13.5	98.960	0.040	-0.270	0.110
2020/01/31 01:30:13.6	98.980	0.050	-0.300	0.070
2020/01/31 01:30:13.7	99.000	0.050	-0.320	0.030
2020/01/31 01:30:13.8	99.030	0.050	-0.330	-0.000
2020/01/31 01:30:13.9	99.050	0.050	-0.350	-0.040
2020/01/31 01:30:14.0	99.070	0.040	-0.350	-0.060
2020/01/31 01:30:14.1	99.090	0.040	-0.360	-0.090
2020/01/31 01:30:14.2	99.110	0.040	-0.370	-0.110
2020/01/31 01:30:14.3	99.130	0.030	-0.370	-0.140
2020/01/31 01:30:14.4	99.150	0.020	-0.370	-0.150
2020/01/31 01:30:14.5	99.170	0.020	-0.360	-0.170
2020/01/31 01:30:14.6	99.180	0.010	-0.350	-0.180
2020/01/31 01:30:14.7	99.200	-0.000	-0.340	-0.190
2020/01/31 01:30:14.8	99.210	-0.010	-0.330	-0.190
2020/01/31 01:30:14.9	99.220	-0.020	-0.310	-0.190
2020/01/31 01:30:15.0	99.240	-0.030	-0.290	-0.190
2020/01/31 01:30:15.1	99.250	-0.050	-0.270	-0.190
2020/01/31 01:30:15.2	99.260	-0.060	-0.250	-0.180
2020/01/31 01:30:15.3	99.260	-0.070	-0.230	-0.180
2020/01/31 01:30:15.4	99.270	-0.080	-0.200	-0.160
2020/01/31 01:30:15.5	99.270	-0.100	-0.170	-0.150
2020/01/31 01:30:15.6	99.280	-0.110	-0.150	-0.140
2020/01/31 01:30:15.7	99.280	-0.120	-0.120	-0.120
2020/01/31 01:30:15.8	99.280	-0.130	-0.090	-0.100
2020/01/31 01:30:15.9	99.280	-0.150	-0.060	-0.080
2020/01/31 01:30:16.0	99.290	-0.160	-0.030	-0.060
2020/01/31 01:30:16.1	99.290	-0.170	-0.010	-0.040
2020/01/31 01:30:16.2	99.290	-0.180	0.020	-0.010
2020/01/31 01:30:16.3	99.280	-0.190	0.040	0.020
2020/01/31 01:30:16.4	99.280	-0.190	0.070	0.040
2020/01/31 01:30:16.5	99.280	-0.200	0.080	0.070
2020/01/31 01:30:16.6	99.270	-0.210	0.100	0.100
2020/01/31 01:30:16.7	99.270	-0.210	0.120	0.140
2020/01/31 01:30:16.8	99.260	-0.220	0.130	0.170
2020/01/31 01:30:16.9	99.250	-0.220	0.140	0.210
2020/01/31 01:30:17.0	99.250	-0.230	0.140	0.240
2020/01/31 01:30:17.1	99.240	-0.230	0.140	0.280
2020/01/31 01:30:17.2	99.230	-0.230	0.140	0.320
2020/01/31 01:30:17.3	99.220	-0.230	0.140	0.360
2020/01/31 01:30:17.4	99.220	-0.230	0.130	0.400
2020/01/31 01:30:17.5	99.210	-0.230	0.120	0.440
2020/01/31 01:30:17.6	99.200	-0.220	0.110	0.470
2020/01/31 01:30:17.7	99.190	-0.220	0.090	0.510
2020/01/31 01:30:17.8	99.190	-0.210	0.070	0.550
2020/01/31 01:30:17.9	99.180	-0.210	0.050	0.590
2020/01/31 01:30:18.0	99.180	-0.200	0.030	0.630
2020/01/31 01:30:18.1	99.170	-0.190	0.010	0.670
2020/01/31 01:30:18.2	99.170	-0.190	-0.020	0.700
2020/01/31 01:30:18.3	99.170	-0.180	-0.050	0.740
2020/01/31 01:30:18.4	99.170	-0.170	-0.080	0.780
2020/01/31 01:30:18.5	99.170	-0.160	-0.110	0.820
2020/01/31 01:30:18.6	99.170	-0.150	-0.140	0.850
2020/01/31 01:30:18.7	99.180	-0.140	-0.170	0.890
2020/01/31 01:30:18.8	99.180	-0.130	-0.200	0.920
2020/01/31 01:30:18.9	99.180	-0.120	-0.240	0.960
2020/01/31 01:30:19.0	99.190	-0.110	-0.260	1.000
2020/01/31 01:30:19.1	99.200	-0.090	-0.290	1.040
2020/01/31 01:30:19.2	99.200	-0.080	-0.320	1.070
2020/01/31 01:30:19.3	99.200	-0.070	-0.350	1.110
2020/01/31 01:30:19.4	99.210	-0.060	-0.380	1.150
2020/01/31 01:30:19.5	99.210	-0.040	-0.400	1.190
2020/01/31 01:30:19.6	99.210	-0.030	-0.420	1.230
2020/01/31 01:30:19.7	99.210	-0.020	-0.440	1.260
2020/01/31 01:30:19.8	99.210	-0.010	-0.460	1.300
2020/01/31 01:30:19.9	99.210	0.010	-0.480	1.340
2020/01/31 01:30:20.0	99.210	0.020	-0.490	1.380
2020/01/31 01:30:20.1	99.210	0.030	-0.500	1.420
2020/01/31 01:30:20.2	99.200	0.050	-0.510	1.450
2020/01/31 01:30:20.3	99.200	0.060	-0.520	1.490
2020/01/31 01:30:20.4	99.200	0.080	-0.520	1.520
2020/01/31 01:30:20.5	99.200	0.090	-0.520	1.550
2020/01/31 01:30:20.6	99.200	0.100	-0.520	1.580
2020/01/31 01:30:20.7	99.200	0.120	-0.520	1.610
2020/01/31 01:30:20.8	99.210	0.130	-0.520	1.630
2020/01/31 01:30:20.9	99.210	0.140	-0.510	1.650
2020/01/31 01:30:21.0	99.210	0.150	-0.510	1.670
2020/01/31 01:30:21.1	99.220	0.170	-0.500	1.690
2020/01/31 01:30:21.2	99.220	0.180	-0.490	1.700
2020/01/31 01:30:21.3	99.230	0.190	-0.470	1.710
2020/01/31 01:30:21.4	99.240	0.200	-0.460	1.710
2020/01/31 01:30:21.5	99.250	0.210	-0.440	1.720
2020/01/31 01:30:21.6	99.260	0.220	-0.430	1.720
2020/01/31 01:30:21.7	99.270	0.230	-0.410	1.720
2020/01/31 01:30:21.8	99.280	0.230	-0.390	1.720
2020/01/31 01:30:21.9	99.290	0.240	-0.370	1.720
2020/01/31 01:30:22.0	99.300	0.250	-0.350	1.710
2020/01/31 01:30:22.1	99.310	0.250	-0.330	1.710
2020/01/31 01:30:22.2	99.310	0.250	-0.310	1.700
2020/01/31 01:30:22.3	99.320	0.260	-0.280	1.690
2020/01/31 01:30:22.4	99.320	0.260	-0.260	1.680
2020/01/31 01:30:22.5	99.330	0.250	-0.230	1.680
2020/01/31 01:30:22.6	99.330	0.250	-0.210	1.660
2020/01/31 01:30:22.7	99.330	0.250	-0.180	1.650
2020/01/31 01:30:22.8	99.330	0.240	-0.150	1.640
2020/01/31 01:30:22.9	99.330	0.240	-0.130	1.630
2020/01/31 01:30:23.0	99.330	0.230	-0.090	1.620
2020/01/31 01:30:23.1	99.330	0.220	-0.070	1.600
2020/01/31 01:30:23.2	99.320	0.210	-0.040	1.590
2020/01/31 01:30:23.3	99.320	0.200	-0.010	1.570
2020/01/31 01:30:23.4	99.320	0.180	0.020	1.540
2020/01/31 01:30:23.5	99.320	0.170	0.050	1.520
2020/01/31 01:30:23.6	99.310	0.150	0.070	1.500
2020/01/31 01:30:23.7	99.310	0.140	0.100	1.470
2020/01/31 01:30:23.8	99.310	0.120	0.130	1.440
2020/01/31 01:30:23.9	99.310	0.100	0.150	1.410
2020/01/31 01:30:24.0	99.310	0.080	0.170	1.370
2020/01/31 01:30:24.1	99.310	0.060	0.200	1.340
2020/01/31 01:30:24.2	99.310	0.050	0.210	1.300
2020/01/31 01:30:24.3	99.320	0.030	0.230	1.270
2020/01/31 01:30:24.4	99.320	0.010	0.250	1.230
2020/01/31 01:30:24.5	99.320	-0.010	0.260	1.190
2020/01/31 01:30:24.6	99.320	-0.020	0.270	1.150
2020/01/31 01:30:24.7	99.330	-0.040	0.280	1.110
2020/01/31 01:30:24.8	99.330	-0.050	0.280	1.070
2020/01/31 01:30:24.9	99.330	-0.070	0.280	1.030
2020/01/31 01:30:25.0	99.330	-0.080	0.280	0.990
2020/01/31 01:30:25.1	99.330	-0.090	0.270	0.950
2020/01/31 01:30:25.2	99.330	-0.100	0.260	0.910
2020/01/31 01:30:25.3	99.330	-0.100	0.250	0.870
2020/01/31 01:30:25.4	99.330	-0.110	0.230	0.820
2020/01/31 01:30:25.5	99.330	-0.110	0.210	0.780
2020/01/31 01:30:25.6	99.330	-0.110	0.180	0.740
2020/01/31 01:30:25.7	99.330	-0.110	0.150	0.700
2020/01/31 01:30:25.8	99.320	-0.110	0.120	0.660
2020/01/31 01:30:25.9	99.320	-0.100	0.090	0.610
2020/01/31 01:30:26.0	99.300	-0.100	0.050	0.570
2020/01/31 01:30:26.1	99.300	-0.090	0.010	0.520
2020/01/31 01:30:26.2	99.300	-0.080	-0.030	0.480
2020/01/31 01:30:26.3	99.290	-0.070	-0.070	0.440
2020/01/31 01:30:26.4	99.290	-0.060	-0.110	0.390
2020/01/31 01:30:26.5	99.280	-0.050	-0.150	0.350
2020/01/31 01:30:26.6	99.280	-0.030	-0.190	0.310
2020/01/31 01:30:26.7	99.280	-0.020	-0.230	0.270
2020/01/31 01:30:26.8	99.270	-0.000	-0.270	0.230
2020/01/31 01:30:26.9	99.270	0.010	-0.300	0.190
2020/01/31 01:30:27.0	99.270	0.020	-0.340	0.150
2020/01/31 01:30:27.1	99.260	0.030	-0.370	0.120
2020/01/31 01:30:27.2	99.260	0.050	-0.400	0.080
2020/01/31 01:30:27.3	99.250	0.060	-0.430	0.050
2020/01/31 01:30:27.4	99.250	0.070	-0.450	0.020
2020/01/31 01:30:27.5	99.240	0.080	-0.470	-0.010
2020/01/31 01:30:27.6	99.240	0.080	-0.490	-0.030
2020/01/31 01:30:27.7	99.230	0.090	-0.500	-0.050
2020/01/31 01:30:27.8	99.230	0.090	-0.500	-0.070
2020/01/31 01:30:27.9	99.220	0.090	-0.510	-0.090
2020/01/31 01:30:28.0	99.220	0.090	-0.500	-0.100
2020/01/31 01:30:28.1	99.220	0.090	-0.490	-0.110
2020/01/31 01:30:28.2	99.210	0.080	-0.480	-0.120
2020/01/31 01:30:28.3	99.210	0.070	-0.460	-0.130
2020/01/31 01:30:28.4	99.200	0.060	-0.440	-0.140
2020/01/31 01:30:28.5	99.200	0.050	-0.420	-0.140
2020/01/31 01:30:28.6	99.200	0.040	-0.390	-0.140
2020/01/31 01:30:28.7	99.190	0.020	-0.360	-0.140
2020/01/31 01:30:28.8	99.190	0.010	-0.330	-0.130
2020/01/31 01:30:28.9	99.190	-0.010	-0.300	-0.130
2020/01/31 01:30:29.0	99.200	-0.030	-0.260	-0.120
2020/01/31 01:30:29.1	99.200	-0.060	-0.220	-0.110
2020/01/31 01:30:29.2	99.200	-0.080	-0.180	-0.090
2020/01/31 01:30:29.3	99.200	-0.100	-0.140	-0.080
2020/01/31 01:30:29.4	99.200	-0.130	-0.110	-0.070
2020/01/31 01:30:29.5	99.200	-0.150	-0.070	-0.050
2020/01/31 01:30:29.6	99.210	-0.180	-0.030	-0.030
2020/01/31 01:30:29.7	99.220	-0.200	0.000	-0.010
2020/01/31 01:30:29.8	99.220	-0.230	0.030	0.000
2020/01/31 01:30:29.9	99.230	-0.250	0.060	0.020
2020/01/31 01:30:30.0	99.250	-0.270	0.090	0.040
2020/01/31 01:30:30.1	99.260	-0.290	0.120	0.060
2020/01/31 01:30:30.2	99.270	-0.310	0.140	0.080
2020/01/31 01:30:30.3	99.290	-0.330	0.150	0.090
2020/01/31 01:30:30.4	99.310	-0.350	0.160	0.110
2020/01/31 01:30:30.5	99.330	-0.360	0.170	0.120
2020/01/31 01:30:30.6	99.350	-0.370	0.180	0.140
2020/01/31 01:30:30.7	99.370	-0.380	0.180	0.150
2020/01/31 01:30:30.8	99.390	-0.380	0.170	0.170
2020/01/31 01:30:30.9	99.410	-0.380	0.160	0.180
2020/01/31 01:30:31.0	99.450	-0.380	0.150	0.190
2020/01/31 01:30:31.1	99.470	-0.380	0.140	0.210
2020/01/31 01:30:31.2	99.490	-0.370	0.120	0.220
2020/01/31 01:30:31.3	99.520	-0.370	0.100	0.240
2020/01/31 01:30:31.4	99.540	-0.350	0.070	0.260
2020/01/31 01:30:31.5	99.560	-0.340	0.040	0.270
2020/01/31 01:30:31.6	99.580	-0.320	0.020	0.300
2020/01/31 01:30:31.7	99.600	-0.300	-0.020	0.320
2020/01/31 01:30:31.8	99.620	-0.280	-0.050	0.340
2020/01/31 01:30:31.9	99.640	-0.260	-0.080	0.370
2020/01/31 01:30:32.0	99.650	-0.230	-0.120	0.410
2020/01/31 01:30:32.1	99.660	-0.200	-0.150	0.440
2020/01/31 01:30:32.2	99.670	-0.180	-0.190	0.470
2020/01/31 01:30:32.3	99.690	-0.150	-0.230	0.510
2020/01/31 01:30:32.4	99.700	-0.110	-0.260	0.550
2020/01/31 01:30:32.5	99.710	-0.080	-0.290	0.590
2020/01/31 01:30:32.6	99.720	-0.050	-0.330	0.640
2020/01/31 01:30:32.7	99.720	-0.020	-0.360	0.680
2020/01/31 01:30:32.8	99.730	0.010	-0.390	0.730
2020/01/31 01:30:32.9	99.740	0.040	-0.420	0.780
2020/01/31 01:30:33.0	99.750	0.070	-0.450	0.830
2020/01/31 01:30:33.1	99.750	0.100	-0.480	0.890
2020/01/31 01:30:33.2	99.750	0.130	-0.500	0.940
2020/01/31 01:30:33.3	99.750	0.160	-0.520	0.990
2020/01/31 01:30:33.4	99.750	0.190	-0.540	1.050
2020/01/31 01:30:33.5	99.750	0.210	-0.560	1.100
2020/01/31 01:30:33.6	99.750	0.230	-0.570	1.150
2020/01/31 01:30:33.7	99.750	0.250	-0.590	1.200
2020/01/31 01:30:33.8	99.740	0.270	-0.590	1.260
2020/01/31 01:30:33.9	99.740	0.290	-0.600	1.310
2020/01/31 01:30:34.0	99.740	0.300	-0.600	1.350
2020/01/31 01:30:34.1	99.730	0.320	-0.600	1.400
2020/01/31 01:30:34.2	99.730	0.320	-0.600	1.440
2020/01/31 01:30:34.3	99.720	0.330	-0.590	1.480
2020/01/31 01:30:34.4	99.710	0.340	-0.580	1.520
2020/01/31 01:30:34.5	99.700	0.340	-0.570	1.560
2020/01/31 01:30:34.6	99.690	0.340	-0.550	1.590
2020/01/31 01:30:34.7	99.680	0.330	-0.520	1.610
2020/01/31 01:30:34.8	99.680	0.330	-0.500	1.640
2020/01/31 01:30:34.9	99.670	0.320	-0.460	1.660
2020/01/31 01:30:35.0	99.650	0.310	-0.430	1.670
2020/01/31 01:30:35.1	99.650	0.290	-0.390	1.680
2020/01/31 01:30:35.2	99.640	0.280	-0.350	1.690
2020/01/31 01:30:35.3	99.630	0.260	-0.300	1.700
2020/01/31 01:30:35.4	99.620	0.240	-0.250	1.700
2020/01/31 01:30:35.5	99.610	0.220	-0.190	1.690
2020/01/31 01:30:35.6	99.610	0.200	-0.140	1.690
2020/01/31 01:30:35.7	99.600	0.170	-0.080	1.680
2020/01/31 01:30:35.8	99.590	0.150	-0.020	1.670
2020/01/31 01:30:35.9	99.580	0.120	0.040	1.660
2020/01/31 01:30:36.0	99.580	0.100	0.110	1.650
2020/01/31 01:30:36.1	99.570	0.070	0.170	1.630
2020/01/31 01:30:36.2	99.570	0.040	0.230	1.610
2020/01/31 01:30:36.3	99.560	0.010	0.290	1.590
2020/01/31 01:30:36.4	99.560	-0.010	0.350	1.570
2020/01/31 01:30:36.5	99.550	-0.040	0.400	1.540
2020/01/31 01:30:36.6	99.550	-0.060	0.450	1.520
2020/01/31 01:30:36.7	99.540	-0.090	0.500	1.490
2020/01/31 01:30:36.8	99.540	-0.110	0.550	1.460
2020/01/31 01:30:36.9	99.540	-0.130	0.580	1.430
2020/01/31 01:30:37.0	99.530	-0.150	0.620	1.390
2020/01/31 01:30:37.1	99.530	-0.170	0.640	1.360
2020/01/31 01:30:37.2	99.530	-0.190	0.660	1.320
2020/01/31 01:30:37.3	99.540	-0.200	0.680	1.280
2020/01/31 01:30:37.4	99.540	-0.210	0.680	1.230
2020/01/31 01:30:37.5	99.540	-0.220	0.680	1.190
2020/01/31 01:30:37.6	99.550	-0.220	0.670	1.140
2020/01/31 01:30:37.7	99.560	-0.220	0.650	1.090
2020/01/31 01:30:37.8	99.570	-0.220	0.630	1.030
2020/01/31 01:30:37.9	99.570	-0.220	0.590	0.980
2020/01/31 01:30:38.0	99.580	-0.210	0.550	0.920
2020/01/31 01:30:38.1	99.590	-0.200	0.510	0.860
2020/01/31 01:30:38.2	99.600	-0.190	0.450	0.800
2020/01/31 01:30:38.3	99.620	-0.170	0.390	0.730
2020/01/31 01:30:38.4	99.630	-0.150	0.320	0.670
2020/01/31 01:30:38.5	99.650	-0.130	0.240	0.600
2020/01/31 01:30:38.6	99.660	-0.100	0.160	0.530
2020/01/31 01:30:38.7	99.680	-0.070	0.080	0.470
2020/01/31 01:30:38.8	99.700	-0.050	-0.010	0.400
2020/01/31 01:30:38.9	99.710	-0.010	-0.100	0.330
2020/01/31 01:30:39.0	99.730	0.020	-0.190	0.250
2020/01/31 01:30:39.1	99.750	0.050	-0.290	0.180
2020/01/31 01:30:39.2	99.770	0.080	-0.380	0.110
2020/01/31 01:30:39.3	99.790	0.120	-0.470	0.040
2020/01/31 01:30:39.4	99.810	0.150	-0.570	-0.030
2020/01/31 01:30:39.5	99.830	0.190	-0.660	-0.090
2020/01/31 01:30:39.6	99.850	0.220	-0.740	-0.160
2020/01/31 01:30:39.7	99.870	0.250	-0.820	-0.230
2020/01/31 01:30:39.8	99.890	0.280	-0.900	-0.290
2020/01/31 01:30:39.9	99.910	0.310	-0.970	-0.360
2020/01/31 01:30:40.0	99.930	0.340	-1.030	-0.410
2020/01/31 01:30:40.1	99.950	0.360	-1.090	-0.470
2020/01/31 01:30:40.2	99.980	0.380	-1.140	-0.520
2020/01/31 01:30:40.3	100.000	0.400	-1.180	-0.570
2020/01/31 01:30:40.4	100.020	0.410	-1.220	-0.620
2020/01/31 01:30:40.5	100.040	0.420	-1.240	-0.660
2020/01/31 01:30:40.6	100.060	0.430	-1.260	-0.700
2020/01/31 01:30:40.7	100.080	0.430	-1.260	-0.730
2020/01/31 01:30:40.8	100.110	0.430	-1.260	-0.760
2020/01/31 01:30:40.9	100.130	0.430	-1.250	-0.780
2020/01/31 01:30:41.0	100.150	0.420	-1.220	-0.800
2020/01/31 01:30:41.1	100.180	0.410	-1.190	-0.810
2020/01/31 01:30:41.2	100.200	0.390	-1.150	-0.820
2020/01/31 01:30:41.3	100.220	0.370	-1.110	-0.810
2020/01/31 01:30:41.4	100.240	0.350	-1.050	-0.810
2020/01/31 01:30:41.5	100.250	0.320	-0.990	-0.790
2020/01/31 01:30:41.6	100.270	0.290	-0.920	-0.770
2020/01/31 01:30:41.7	100.290	0.260	-0.840	-0.740
2020/01/31 01:30:41.8	100.310	0.230	-0.760	-0.710
2020/01/31 01:30:41.9	100.320	0.190	-0.680	-0.670
2020/01/31 01:30:42.0	100.340	0.150	-0.580	-0.610
2020/01/31 01:30:42.1	100.360	0.110	-0.490	-0.560
2020/01/31 01:30:42.2	100.370	0.060	-0.390	-0.500
2020/01/31 01:30:42.3	100.380	0.020	-0.290	-0.440
2020/01/31 01:30:42.4	100.390	-0.030	-0.190	-0.360
2020/01/31 01:30:42.5	100.400	-0.070	-0.090	-0.290
2020/01/31 01:30:42.6	100.410	-0.120	0.010	-0.210
2020/01/31 01:30:42.7	100.420	-0.170	0.110	-0.130
2020/01/31 01:30:42.8	100.420	-0.210	0.210	-0.040
2020/01/31 01:30:42.9	100.430	-0.260	0.300	0.050
2020/01/31 01:30:43.0	100.440	-0.300	0.400	0.140
2020/01/31 01:30:43.1	100.450	-0.340	0.490	0.240
2020/01/31 01:30:43.2	100.460	-0.380	0.570	0.330
2020/01/31 01:30:43.3	100.460	-0.420	0.650	0.420
2020/01/31 01:30:43.4	100.460	-0.460	0.730	0.520
2020/01/31 01:30:43.5	100.470	-0.500	0.800	0.610
2020/01/31 01:30:43.6	100.470	-0.530	0.860	0.700
2020/01/31 01:30:43.7	100.480	-0.560	0.910	0.790
2020/01/31 01:30:43.8	100.480	-0.580	0.960	0.880
2020/01/31 01:30:43.9	100.480	-0.610	1.000	0.960
2020/01/31 01:30:44.0	100.490	-0.620	1.030	1.050
2020/01/31 01:30:44.1	100.490	-0.640	1.060	1.120
2020/01/31 01:30:44.2	100.490	-0.650	1.070	1.200
2020/01/31 01:30:44.3	100.490	-0.660	1.080	1.270
2020/01/31 01:30:44.4	100.490	-0.660	1.070	1.340
2020/01/31 01:30:44.5	100.490	-0.660	1.060	1.410
2020/01/31 01:30:44.6	100.490	-0.660	1.040	1.470
2020/01/31 01:30:44.7	100.490	-0.650	1.000	1.540
2020/01/31 01:30:44.8	100.480	-0.640	0.960	1.600
2020/01/31 01:30:44.9	100.480	-0.630	0.910	1.650
2020/01/31 01:30:45.0	100.470	-0.610	0.860	1.700
2020/01/31 01:30:45.1	100.460	-0.580	0.790	1.760
2020/01/31 01:30:45.2	100.450	-0.560	0.720	1.810
2020/01/31 01:30:45.3	100.440	-0.530	0.640	1.850
2020/01/31 01:30:45.4	100.430	-0.500	0.550	1.900
2020/01/31 01:30:45.5	100.420	-0.460	0.460	1.940
2020/01/31 01:30:45.6	100.400	-0.420	0.360	1.980
2020/01/31 01:30:45.7	100.390	-0.380	0.260	2.020
2020/01/31 01:30:45.8	100.370	-0.340	0.160	2.060
2020/01/31 01:30:45.9	100.360	-0.300	0.060	2.090
2020/01/31 01:30:46.0	100.330	-0.250	-0.050	2.130
2020/01/31 01:30:46.1	100.320	-0.210	-0.150	2.160
2020/01/31 01:30:46.2	100.300	-0.160	-0.260	2.190
2020/01/31 01:30:46.3	100.290	-0.110	-0.360	2.210
2020/01/31 01:30:46.4	100.280	-0.060	-0.460	2.240
2020/01/31 01:30:46.5	100.260	-0.020	-0.550	2.260
2020/01/31 01:30:46.6	100.250	0.030	-0.650	2.280
2020/01/31 01:30:46.7	100.240	0.070	-0.730	2.290
2020/01/31 01:30:46.8	100.230	0.120	-0.810	2.300
2020/01/31 01:30:46.9	100.220	0.160	-0.890	2.310
2020/01/31 01:30:47.0	100.210	0.200	-0.960	2.320
2020/01/31 01:30:47.1	100.200	0.240	-1.020	2.330
2020/01/31 01:30:47.2	100.190	0.280	-1.080	2.330
2020/01/31 01:30:47.3	100.180	0.310	-1.120	2.330
2020/01/31 01:30:47.4	100.180	0.340	-1.160	2.320
2020/01/31 01:30:47.5	100.170	0.370	-1.190	2.310
2020/01/31 01:30:47.6	100.170	0.400	-1.220	2.300
2020/01/31 01:30:47.7	100.170	0.420	-1.230	2.290
2020/01/31 01:30:47.8	100.160	0.440	-1.240	2.270
2020/01/31 01:30:47.9	100.160	0.460	-1.240	2.250
2020/01/31 01:30:48.0	100.160	0.470	-1.230	2.230
2020/01/31 01:30:48.1	100.160	0.480	-1.210	2.200
2020/01/31 01:30:48.2	100.160	0.490	-1.190	2.170
2020/01/31 01:30:48.3	100.160	0.490	-1.160	2.140
2020/01/31 01:30:48.4	100.160	0.490	-1.130	2.100
2020/01/31 01:30:48.5	100.170	0.490	-1.090	2.060
2020/01/31 01:30:48.6	100.170	0.490	-1.040	2.010
2020/01/31 01:30:48.7	100.180	0.480	-0.990	1.960
2020/01/31 01:30:48.8	100.180	0.470	-0.940	1.910
2020/01/31 01:30:48.9	100.190	0.460	-0.880	1.860
2020/01/31 01:30:49.0	100.180	0.450	-0.820	1.810
2020/01/31 01:30:49.1	100.190	0.430	-0.750	1.750
2020/01/31 01:30:49.2	100.190	0.420	-0.690	1.690
2020/01/31 01:30:49.3	100.200	0.400	-0.620	1.630
2020/01/31 01:30:49.4	100.200	0.380	-0.550	1.570
2020/01/31 01:30:49.5	100.210	0.360	-0.480	1.500
2020/01/31 01:30:49.6	100.220	0.340	-0.410	1.440
2020/01/31 01:30:49.7	100.220	0.310	-0.330	1.370
2020/01/31 01:30:49.8	100.230	0.290	-0.260	1.300
2020/01/31 01:30:49.9	100.230	0.270	-0.190	1.230
2020/01/31 01:30:50.0	100.240	0.250	-0.120	1.160
2020/01/31 01:30:50.1	100.250	0.220	-0.050	1.090
2020/01/31 01:30:50.2	100.260	0.200	0.010	1.020
2020/01/31 01:30:50.3	100.260	0.180	0.080	0.940
2020/01/31 01:30:50.4	100.270	0.160	0.130	0.870
2020/01/31 01:30:50.5	100.270	0.140	0.190	0.800
2020/01/31 01:30:50.6	100.280	0.120	0.240	0.730
2020/01/31 01:30:50.7	100.280	0.100	0.290	0.660
2020/01/31 01:30:50.8	100.290	0.080	0.340	0.590
2020/01/31 01:30:50.9	100.290	0.070	0.380	0.520
2020/01/31 01:30:51.0	100.300	0.050	0.420	0.460
2020/01/31 01:30:51.1	100.300	0.040	0.450	0.390
2020/01/31 01:30:51.2	100.300	0.030	0.480	0.330
2020/01/31 01:30:51.3	100.290	0.010	0.510	0.270
2020/01/31 01:30:51.4	100.290	0.010	0.530	0.210
2020/01/31 01:30:51.5	100.280	-0.000	0.540	0.160
2020/01/31 01:30:51.6	100.280	-0.010	0.560	0.110
2020/01/31 01:30:51.7	100.270	-0.020	0.560	0.060
2020/01/31 01:30:51.8	100.260	-0.020	0.570	0.020
2020/01/31 01:30:51.9	100.250	-0.020	0.570	-0.020
2020/01/31 01:30:52.0	100.230	-0.020	0.560	-0.060
2020/01/31 01:30:52.1	100.220	-0.020	0.550	-0.100
2020/01/31 01:30:52.2	100.200	-0.020	0.540	-0.130
2020/01/31 01:30:52.3	100.190	-0.020	0.520	-0.160
2020/01/31 01:30:52.4	100.170	-0.020	0.500	-0.190
2020/01/31 01:30:52.5	100.150	-0.020	0.480	-0.210
2020/01/31 01:30:52.6	100.140	-0.010	0.450	-0.240
2020/01/31 01:30:52.7	100.120	-0.010	0.420	-0.260
2020/01/31 01:30:52.8	100.100	-0.010	0.380	-0.290
2020/01/31 01:30:52.9	100.090	0.000	0.350	-0.310
2020/01/31 01:30:53.0	100.080	0.010	0.310	-0.320
2020/01/31 01:30:53.1	100.060	0.010	0.260	-0.350
2020/01/31 01:30:53.2	100.050	0.020	0.220	-0.370
2020/01/31 01:30:53.3	100.030	0.030	0.170	-0.390
2020/01/31 01:30:53.4	100.020	0.030	0.120	-0.410
2020/01/31 01:30:53.5	100.010	0.040	0.070	-0.430
2020/01/31 01:30:53.6	100.000	0.050	0.020	-0.440
2020/01/31 01:30:53.7	99.990	0.050	-0.040	-0.460
2020/01/31 01:30:53.8	99.980	0.060	-0.090	-0.480
2020/01/31 01:30:53.9	99.970	0.070	-0.150	-0.490
2020/01/31 01:30:54.0	99.960	0.070	-0.200	-0.510
2020/01/31 01:30:54.1	99.950	0.080	-0.260	-0.520
2020/01/31 01:30:54.2	99.940	0.090	-0.310	-0.530
2020/01/31 01:30:54.3	99.940	0.090	-0.360	-0.530
2020/01/31 01:30:54.4	99.930	0.100	-0.410	-0.540
2020/01/31 01:30:54.5	99.930	0.100	-0.460	-0.540
2020/01/31 01:30:54.6	99.920	0.100	-0.500	-0.540
2020/01/31 01:30:54.7	99.920	0.110	-0.550	-0.540
2020/01/31 01:30:54.8	99.920	0.110	-0.580	-0.530
2020/01/31 01:30:54.9	99.920	0.110	-0.620	-0.530
2020/01/31 01:30:55.0	99.920	0.110	-0.650	-0.510
2020/01/31 01:30:55.1	99.920	0.110	-0.670	-0.500
2020/01/31 01:30:55.2	99.910	0.100	-0.690	-0.480
2020/01/31 01:30:55.3	99.910	0.100	-0.710	-0.460
2020/01/31 01:30:55.4	99.910	0.090	-0.720	-0.430
2020/01/31 01:30:55.5	99.910	0.090	-0.720	-0.410
2020/01/31 01:30:55.6	99.910	0.080	-0.720	-0.380
2020/01/31 01:30:55.7	99.910	0.070	-0.720	-0.340
2020/01/31 01:30:55.8	99.910	0.060	-0.710	-0.310
2020/01/31 01:30:55.9	99.910	0.040	-0.690	-0.270
2020/01/31 01:30:56.0	99.920	0.030	-0.660	-0.230
2020/01/31 01:30:56.1	99.920	0.010	-0.640	-0.190
2020/01/31 01:30:56.2	99.920	-0.000	-0.600	-0.140
2020/01/31 01:30:56.3	99.920	-0.020	-0.560	-0.090
2020/01/31 01:30:56.4	99.920	-0.040	-0.520	-0.040
2020/01/31 01:30:56.5	99.930	-0.060	-0.470	0.010
2020/01/31 01:30:56.6	99.930	-0.080	-0.420	0.060
2020/01/31 01:30:56.7	99.930	-0.110	-0.370	0.120
2020/01/31 01:30:56.8	99.940	-0.130	-0.310	0.170
2020/01/31 01:30:56.9	99.940	-0.160	-0.250	0.230
2020/01/31 01:30:57.0	99.940	-0.180	-0.190	0.290
2020/01/31 01:30:57.1	99.950	-0.200	-0.130	0.350
2020/01/31 01:30:57.2	99.950	-0.230	-0.070	0.410
2020/01/31 01:30:57.3	99.960	-0.250	-0.010	0.470
2020/01/31 01:30:57.4	99.970	-0.280	0.050	0.530
2020/01/31 01:30:57.5	99.970	-0.300	0.110	0.590
2020/01/31 01:30:57.6	99.980	-0.330	0.160	0.650
2020/01/31 01:30:57.7	99.990	-0.350	0.220	0.700
2020/01/31 01:30:57.8	100.000	-0.370	0.260	0.760
2020/01/31 01:30:57.9	100.010	-0.390	0.310	0.820
2020/01/31 01:30:58.0	100.000	-0.410	0.350	0.870
2020/01/31 01:30:58.1	100.010	-0.420	0.380	0.930
2020/01/31 01:30:58.2	100.020	-0.430	0.410	0.980
2020/01/31 01:30:58.3	100.020	-0.450	0.430	1.030
2020/01/31 01:30:58.4	100.030	-0.450	0.440	1.070
2020/01/31 01:30:58.5	100.040	-0.460	0.450	1.120
2020/01/31 01:30:58.6	100.040	-0.460	0.450	1.160
2020/01/31 01:30:58.7	100.050	-0.460	0.440	1.210
2020/01/31 01:30:58.8	100.050	-0.460	0.420	1.250
2020/01/31 01:30:58.9	100.050	-0.460	0.400	1.280
2020/01/31 01:30:59.0	100.060	-0.450	0.380	1.320
2020/01/31 01:30:59.1	100.070	-0.440	0.340	1.360
2020/01/31 01:30:59.2	100.070	-0.420	0.300	1.390
2020/01/31 01:30:59.3	100.070	-0.410	0.250	1.420
2020/01/31 01:30:59.4	100.070	-0.390	0.200	1.450
2020/01/31 01:30:59.5	100.070	-0.370	0.150	1.480
2020/01/31 01:30:59.6	100.070	-0.350	0.090	1.500
2020/01/31 01:30:59.7	100.060	-0.320	0.030	1.530
2020/01/31 01:30:59.8	100.060	-0.300	-0.040	1.550
2020/01/31 01:30:59.9	100.060	-0.270	-0.100	1.580
2020/01/31 01:31:00.0	100.050	-0.240	-0.170	1.600
2020/01/31 01:31:00.1	100.040	-0.210	-0.230	1.620
2020/01/31 01:31:00.2	100.040	-0.180	-0.290	1.650
2020/01/31 01:31:00.3	100.030	-0.150	-0.350	1.670
2020/01/31 01:31:00.4	100.020	-0.120	-0.410	1.700
2020/01/31 01:31:00.5	100.020	-0.090	-0.460	1.720
2020/01/31 01:31:00.6	100.010	-0.060	-0.510	1.750
2020/01/31 01:31:00.7	100.000	-0.030	-0.560	1.770
2020/01/31 01:31:00.8	99.990	0.000	-0.600	1.800
2020/01/31 01:31:00.9	99.970	0.030	-0.630	1.820
2020/01/31 01:31:01.0	99.970	0.050	-0.660	1.850
2020/01/31 01:31:01.1	99.960	0.080	-0.680	1.870
2020/01/31 01:31:01.2	99.950	0.100	-0.700	1.890
2020/01/31 01:31:01.3	99.930	0.120	-0.710	1.920
2020/01/31 01:31:01.4	99.920	0.140	-0.710	1.940
2020/01/31 01:31:01.5	99.910	0.160	-0.710	1.950
2020/01/31 01:31:01.6	99.890	0.170	-0.700	1.970
2020/01/31 01:31:01.7	99.880	0.190	-0.690	1.990
2020/01/31 01:31:01.8	99.860	0.200	-0.670	2.000
2020/01/31 01:31:01.9	99.850	0.210	-0.640	2.000
2020/01/31 01:31:02.0	99.840	0.210	-0.610	2.010
2020/01/31 01:31:02.1	99.820	0.220	-0.580	2.010
2020/01/31 01:31:02.2	99.810	0.220	-0.540	2.010
2020/01/31 01:31:02.3	99.800	0.220	-0.500	2.000
2020/01/31 01:31:02.4	99.790	0.220	-0.460	1.990
2020/01/31 01:31:02.5	99.780	0.220	-0.410	1.970
2020/01/31 01:31:02.6	99.780	0.210	-0.360	1.940
2020/01/31 01:31:02.7	99.770	0.200	-0.310	1.910
2020/01/31 01:31:02.8	99.770	0.200	-0.260	1.880
2020/01/31 01:31:02.9	99.770	0.190	-0.210	1.840
2020/01/31 01:31:03.0	99.770	0.180	-0.160	1.790
2020/01/31 01:31:03.1	99.780	0.170	-0.110	1.740
2020/01/31 01:31:03.2	99.780	0.160	-0.060	1.680
2020/01/31 01:31:03.3	99.790	0.150	-0.010	1.620
2020/01/31 01:31:03.4	99.800	0.140	0.030	1.550
2020/01/31 01:31:03.5	99.810	0.120	0.070	1.480
2020/01/31 01:31:03.6	99.820	0.110	0.110	1.410
2020/01/31 01:31:03.7	99.840	0.100	0.150	1.330
2020/01/31 01:31:03.8	99.850	0.100	0.180	1.250
2020/01/31 01:31:03.9	99.870	0.090	0.210	1.170
2020/01/31 01:31:04.0	99.880	0.080	0.230	1.090
2020/01/31 01:31:04.1	99.900	0.080	0.250	1.000
2020/01/31 01:31:04.2	99.920	0.070	0.260	0.920
2020/01/31 01:31:04.3	99.930	0.070	0.270	0.830
2020/01/31 01:31:04.4	99.950	0.070	0.280	0.740
2020/01/31 01:31:04.5	99.960	0.070	0.270	0.660
2020/01/31 01:31:04.6	99.980	0.070	0.270	0.570
2020/01/31 01:31:04.7	99.990	0.080	0.260	0.490
2020/01/31 01:31:04.8	100.010	0.080	0.240	0.400
2020/01/31 01:31:04.9	100.020	0.090	0.220	0.320
2020/01/31 01:31:05.0	100.030	0.100	0.200	0.240
2020/01/31 01:31:05.1	100.040	0.110	0.170	0.160
2020/01/31 01:31:05.2	100.050	0.120	0.140	0.090
2020/01/31 01:31:05.3	100.050	0.130	0.100	0.010
2020/01/31 01:31:05.4	100.060	0.150	0.070	-0.060
2020/01/31 01:31:05.5	100.070	0.160	0.030	-0.130
2020/01/31 01:31:05.6	100.070	0.180	-0.020	-0.200
2020/01/31 01:31:05.7	100.080	0.190	-0.060	-0.260
2020/01/31 01:31:05.8	100.080	0.210	-0.100	-0.320
2020/01/31 01:31:05.9	100.090	0.230	-0.140	-0.380
2020/01/31 01:31:06.0	100.100	0.240	-0.180	-0.430
2020/01/31 01:31:06.1	100.100	0.260	-0.230	-0.480
2020/01/31 01:31:06.2	100.110	0.270	-0.270	-0.530
2020/01/31 01:31:06.3	100.110	0.290	-0.310	-0.570
2020/01/31 01:31:06.4	100.110	0.300	-0.340	-0.610
2020/01/31 01:31:06.5	100.100	0.320	-0.380	-0.650
2020/01/31 01:31:06.6	100.100	0.330	-0.410	-0.680
2020/01/31 01:31:06.7	100.100	0.340	-0.430	-0.710
2020/01/31 01:31:06.8	100.100	0.350	-0.460	-0.730
2020/01/31 01:31:06.9	100.090	0.360	-0.480	-0.750
2020/01/31 01:31:07.0	100.080	0.360	-0.490	-0.760
2020/01/31 01:31:07.1	100.080	0.370	-0.500	-0.770
2020/01/31 01:31:07.2	100.070	0.370	-0.510	-0.780
2020/01/31 01:31:07.3	100.070	0.370	-0.520	-0.780
2020/01/31 01:31:07.4	100.060	0.370	-0.520	-0.780
2020/01/31 01:31:07.5	100.060	0.370	-0.510	-0.780
2020/01/31 01:31:07.6	100.050	0.360	-0.510	-0.770
2020/01/31 01:31:07.7	100.050	0.360	-0.500	-0.760
2020/01/31 01:31:07.8	100.040	0.350	-0.490	-0.750
2020/01/31 01:31:07.9	100.040	0.340	-0.470	-0.730
2020/01/31 01:31:08.0	100.040	0.330	-0.450	-0.710
2020/01/31 01:31:08.1	100.040	0.320	-0.430	-0.690
2020/01/31 01:31:08.2	100.040	0.300	-0.410	-0.670
2020/01/31 01:31:08.3	100.040	0.290	-0.390	-0.640
2020/01/31 01:31:08.4	100.040	0.270	-0.360	-0.620
2020/01/31 01:31:08.5	100.050	0.250	-0.340	-0.590
2020/01/31 01:31:08.6	100.050	0.230	-0.320	-0.550
2020/01/31 01:31:08.7	100.060	0.210	-0.290	-0.520
2020/01/31 01:31:08.8	100.060	0.190	-0.270	-0.480
2020/01/31 01:31:08.9	100.070	0.170	-0.240	-0.440
2020/01/31 01:31:09.0	100.090	0.150	-0.220	-0.390
2020/01/31 01:31:09.1	100.100	0.130	-0.190	-0.340
2020/01/31 01:31:09.2	100.110	0.100	-0.170	-0.290
2020/01/31 01:31:09.3	100.120	0.080	-0.150	-0.240
2020/01/31 01:31:09.4	100.130	0.050	-0.120	-0.180
2020/01/31 01:31:09.5	100.140	0.030	-0.100	-0.120
2020/01/31 01:31:09.6	100.150	0.010	-0.080	-0.060
2020/01/31 01:31:09.7	100.160	-0.020	-0.060	0.000
2020/01/31 01:31:09.8	100.170	-0.040	-0.040	0.070
2020/01/31 01:31:09.9	100.180	-0.070	-0.020	0.150
2020/01/31 01:31:10.0	100.180	-0.100	0.000	0.220
2020/01/31 01:31:10.1	100.190	-0.120	0.020	0.300
2020/01/31 01:31:10.2	100.200	-0.150	0.040	0.380
2020/01/31 01:31:10.3	100.210	-0.170	0.060	0.460
2020/01/31 01:31:10.4	100.210	-0.200	0.080	0.540
2020/01/31 01:31:10.5	100.220	-0.220	0.110	0.620
2020/01/31 01:31:10.6	100.230	-0.250	0.130	0.710
2020/01/31 01:31:10.7	100.240	-0.280	0.150	0.790
2020/01/31 01:31:10.8	100.240	-0.300	0.170	0.880
2020/01/31 01:31:10.9	100.250	-0.320	0.190	0.960
2020/01/31 01:31:11.0	100.260	-0.350	0.220	1.050
2020/01/31 01:31:11.1	100.270	-0.370	0.240	1.130
2020/01/31 01:31:11.2	100.280	-0.390	0.250	1.210
2020/01/31 01:31:11.3	100.280	-0.410	0.270	1.290
2020/01/31 01:31:11.4	100.290	-0.430	0.290	1.360
2020/01/31 01:31:11.5	100.300	-0.450	0.300	1.440
2020/01/31 01:31:11.6	100.310	-0.470	0.320	1.510
2020/01/31 01:31:11.7	100.310	-0.480	0.330	1.580
2020/01/31 01:31:11.8	100.320	-0.490	0.330	1.640
2020/01/31 01:31:11.9	100.330	-0.500	0.340	1.710
2020/01/31 01:31:12.0	100.330	-0.510	0.340	1.770
2020/01/31 01:31:12.1	100.330	-0.520	0.340	1.830
2020/01/31 01:31:12.2	100.340	-0.520	0.330	1.880
2020/01/31 01:31:12.3	100.350	-0.520	0.320	1.940
2020/01/31 01:31:12.4	100.350	-0.510	0.310	1.980
2020/01/31 01:31:12.5	100.360	-0.510	0.290	2.030
2020/01/31 01:31:12.6	100.360	-0.500	0.260	2.070
2020/01/31 01:31:12.7	100.360	-0.480	0.230	2.120
2020/01/31 01:31:12.8	100.370	-0.470	0.200	2.150
2020/01/31 01:31:12.9	100.370	-0.450	0.160	2.190
2020/01/31 01:31:13.0	100.360	-0.430	0.120	2.220
2020/01/31 01:31:13.1	100.360	-0.400	0.070	2.250
2020/01/31 01:31:13.2	100.360	-0.370	0.020	2.280
2020/01/31 01:31:13.3	100.360	-0.340	-0.040	2.310
2020/01/31 01:31:13.4	100.360	-0.310	-0.100	2.330
2020/01/31 01:31:13.5	100.360	-0.270	-0.160	2.360
2020/01/31 01:31:13.6	100.360	-0.240	-0.220	2.380
2020/01/31 01:31:13.7	100.360	-0.200	-0.280	2.400
2020/01/31 01:31:13.8	100.360	-0.160	-0.350	2.420
2020/01/31 01:31:13.9	100.360	-0.120	-0.420	2.430
2020/01/31 01:31:14.0	100.340	-0.080	-0.480	2.450
2020/01/31 01:31:14.1	100.340	-0.040	-0.540	2.460
2020/01/31 01:31:14.2	100.340	0.010	-0.610	2.470
2020/01/31 01:31:14.3	100.330	0.050	-0.670	2.480
2020/01/31 01:31:14.4	100.330	0.090	-0.730	2.490
2020/01/31 01:31:14.5	100.330	0.130	-0.780	2.500
2020/01/31 01:31:14.6	100.320	0.170	-0.830	2.500
2020/01/31 01:31:14.7	100.320	0.200	-0.880	2.500
2020/01/31 01:31:14.8	100.310	0.240	-0.920	2.510
2020/01/31 01:31:14.9	100.310	0.270	-0.950	2.510
2020/01/31 01:31:15.0	100.300	0.300	-0.980	2.500
2020/01/31 01:31:15.1	100.290	0.330	-1.000	2.500
2020/01/31 01:31:15.2	100.290	0.350	-1.020	2.490
2020/01/31 01:31:15.3	100.280	0.370	-1.030	2.490
2020/01/31 01:31:15.4	100.270	0.390	-1.030	2.480
2020/01/31 01:31:15.5	100.270	0.400	-1.020	2.470
2020/01/31 01:31:15.6	100.260	0.410	-1.010	2.460
2020/01/31 01:31:15.7	100.250	0.420	-0.990	2.440
2020/01/31 01:31:15.8	100.240	0.420	-0.960	2.420
2020/01/31 01:31:15.9	100.230	0.410	-0.920	2.400
2020/01/31 01:31:16.0	100.220	0.410	-0.870	2.380
2020/01/31 01:31:16.1	100.200	0.400	-0.830	2.350
2020/01/31 01:31:16.2	100.190	0.390	-0.770	2.320
2020/01/31 01:31:16.3	100.180	0.370	-0.710	2.280
2020/01/31 01:31:16.4	100.170	0.350	-0.640	2.240
2020/01/31 01:31:16.5	100.160	0.330	-0.570	2.190
2020/01/31 01:31:16.6	100.140	0.300	-0.500	2.140
2020/01/31 01:31:16.7	100.130	0.270	-0.420	2.080
2020/01/31 01:31:16.8	100.110	0.240	-0.330	2.020
2020/01/31 01:31:16.9	100.100	0.210	-0.250	1.960
2020/01/31 01:31:17.0	100.080	0.180	-0.160	1.890
2020/01/31 01:31:17.1	100.070	0.140	-0.070	1.810
2020/01/31 01:31:17.2	100.050	0.110	0.010	1.730
2020/01/31 01:31:17.3	100.040	0.070	0.100	1.640
2020/01/31 01:31:17.4	100.030	0.040	0.190	1.550
2020/01/31 01:31:17.5	100.010	0.000	0.270	1.460
2020/01/31 01:31:17.6	100.000	-0.030	0.360	1.360
2020/01/31 01:31:17.7	99.990	-0.070	0.440	1.260
2020/01/31 01:31:17.8	99.980	-0.100	0.520	1.150
2020/01/31 01:31:17.9	99.970	-0.130	0.590	1.040
2020/01/31 01:31:18.0	99.980	-0.160	0.660	0.930
2020/01/31 01:31:18.1	99.970	-0.190	0.720	0.810
2020/01/31 01:31:18.2	99.970	-0.220	0.780	0.700
2020/01/31 01:31:18.3	99.960	-0.240	0.830	0.580
2020/01/31 01:31:18.4	99.960	-0.260	0.880	0.460
2020/01/31 01:31:18.5	99.960	-0.280	0.920	0.340
2020/01/31 01:31:18.6	99.960	-0.300	0.950	0.220
2020/01/31 01:31:18.7	99.960	-0.310	0.970	0.100
2020/01/31 01:31:18.8	99.960	-0.320	0.980	-0.020
2020/01/31 01:31:18.9	99.960	-0.320	0.990	-0.140
2020/01/31 01:31:19.0	99.970	-0.330	0.990	-0.250
2020/01/31 01:31:19.1	99.970	-0.330	0.970	-0.360
2020/01/31 01:31:19.2	99.980	-0.320	0.950	-0.470
2020/01/31 01:31:19.3	99.980	-0.320	0.920	-0.570
2020/01/31 01:31:19.4	99.980	-0.310	0.880	-0.680
2020/01/31 01:31:19.5	99.980	-0.290	0.830	-0.770
2020/01/31 01:31:19.6	99.980	-0.280	0.780	-0.860
2020/01/31 01:31:19.7	99.980	-0.260	0.710	-0.950
2020/01/31 01:31:19.8	99.980	-0.240	0.640	-1.030
2020/01/31 01:31:19.9	99.980	-0.210	0.560	-1.110
2020/01/31 01:31:20.0	99.990	-0.190	0.480	-1.180
2020/01/31 01:31:20.1	99.990	-0.160	0.390	-1.250
2020/01/31 01:31:20.2	99.990	-0.130	0.290	-1.310
2020/01/31 01:31:20.3	99.990	-0.100	0.200	-1.370
2020/01/31 01:31:20.4	99.990	-0.060	0.100	-1.420
2020/01/31 01:31:20.5	99.990	-0.030	-0.010	-1.460
2020/01/31 01:31:20.6	99.990	0.000	-0.110	-1.500
2020/01/31 01:31:20.7	99.990	0.040	-0.220	-1.540
2020/01/31 01:31:20.8	99.990	0.070	-0.320	-1.570
2020/01/31 01:31:20.9	99.990	0.100	-0.420	-1.590
2020/01/31 01:31:21.0	100.010	0.140	-0.530	-1.610
2020/01/31 01:31:21.1	100.010	0.170	-0.630	-1.620
2020/01/31 01:31:21.2	100.010	0.200	-0.720	-1.630
2020/01/31 01:31:21.3	100.010	0.230	-0.810	-1.640
2020/01/31 01:31:21.4	100.020	0.250	-0.900	-1.640
2020/01/31 01:31:21.5	100.020	0.280	-0.970	-1.630
2020/01/31 01:31:21.6	100.020	0.300	-1.050	-1.620
2020/01/31 01:31:21.7	100.030	0.320	-1.110	-1.610
2020/01/31 01:31:21.8	100.030	0.340	-1.170	-1.590
2020/01/31 01:31:21.9	100.040	0.360	-1.210	-1.570
2020/01/31 01:31:22.0	100.060	0.370	-1.250	-1.550
2020/01/31 01:31:22.1	100.060	0.380	-1.280	-1.520
2020/01/31 01:31:22.2	100.070	0.390	-1.300	-1.490
2020/01/31 01:31:22.3	100.080	0.400	-1.320	-1.450
2020/01/31 01:31:22.4	100.080	0.400	-1.320	-1.410
2020/01/31 01:31:22.5	100.090	0.410	-1.320	-1.370
2020/01/31 01:31:22.6	100.100	0.410	-1.310	-1.330
2020/01/31 01:31:22.7	100.110	0.410	-1.290	-1.280
2020/01/31 01:31:22.8	100.120	0.400	-1.260	-1.230
2020/01/31 01:31:22.9	100.130	0.400	-1.230	-1.170
2020/01/31 01:31:23.0	100.140	0.390	-1.180	-1.110
2020/01/31 01:31:23.1	100.140	0.390	-1.140	-1.050
2020/01/31 01:31:23.2	100.150	0.380	-1.080	-0.980
2020/01/31 01:31:23.3	100.160	0.370	-1.020	-0.920
2020/01/31 01:31:23.4	100.170	0.360	-0.960	-0.850
2020/01/31 01:31:23.5	100.180	0.350	-0.890	-0.770
2020/01/31 01:31:23.6	100.180	0.340	-0.820	-0.700
2020/01/31 01:31:23.7	100.190	0.320	-0.740	-0.620
2020/01/31 01:31:23.8	100.190	0.310	-0.670	-0.540
2020/01/31 01:31:23.9	100.200	0.300	-0.580	-0.450
2020/01/31 01:31:24.0	100.200	0.280	-0.500	-0.370
2020/01/31 01:31:24.1	100.200	0.270	-0.420	-0.280
2020/01/31 01:31:24.2	100.210	0.250	-0.330	-0.190
2020/01/31 01:31:24.3	100.210	0.240	-0.250	-0.090
2020/01/31 01:31:24.4	100.210	0.220	-0.160	0.010
2020/01/31 01:31:24.5	100.220	0.200	-0.080	0.110
2020/01/31 01:31:24.6	100.220	0.190	0.000	0.210
2020/01/31 01:31:24.7	100.220	0.170	0.080	0.310
2020/01/31 01:31:24.8	100.220	0.150	0.160	0.420
2020/01/31 01:31:24.9	100.220	0.130	0.240	0.530
2020/01/31 01:31:25.0	100.220	0.120	0.310	0.640
2020/01/31 01:31:25.1	100.220	0.100	0.380	0.750
2020/01/31 01:31:25.2	100.220	0.080	0.440	0.860
2020/01/31 01:31:25.3	100.210	0.060	0.500	0.970
2020/01/31 01:31:25.4	100.210	0.050	0.550	1.080
2020/01/31 01:31:25.5	100.210	0.030	0.600	1.190
2020/01/31 01:31:25.6	100.200	0.010	0.640	1.300
2020/01/31 01:31:25.7	100.200	-0.010	0.680	1.410
2020/01/31 01:31:25.8	100.200	-0.020	0.710	1.520
2020/01/31 01:31:25.9	100.190	-0.040	0.740	1.630
2020/01/31 01:31:26.0	100.180	-0.050	0.750	1.740
2020/01/31 01:31:26.1	100.170	-0.070	0.770	1.840
2020/01/31 01:31:26.2	100.170	-0.080	0.780	1.940
2020/01/31 01:31:26.3	100.170	-0.100	0.780	2.030
2020/01/31 01:31:26.4	100.160	-0.110	0.770	2.120
2020/01/31 01:31:26.5	100.160	-0.130	0.770	2.210
2020/01/31 01:31:26.6	100.160	-0.140	0.750	2.290
2020/01/31 01:31:26.7	100.160	-0.150	0.730	2.370
2020/01/31 01:31:26.8	100.160	-0.160	0.710	2.440
2020/01/31 01:31:26.9	100.160	-0.180	0.680	2.500
2020/01/31 01:31:27.0	100.140	-0.190	0.650	2.560
2020/01/31 01:31:27.1	100.140	-0.200	0.610	2.620
2020/01/31 01:31:27.2	100.150	-0.210	0.570	2.670
2020/01/31 01:31:27.3	100.150	-0.210	0.530	2.720
2020/01/31 01:31:27.4	100.160	-0.220	0.480	2.760
2020/01/31 01:31:27.5	100.160	-0.230	0.430	2.800
2020/01/31 01:31:27.6	100.170	-0.240	0.380	2.830
2020/01/31 01:31:27.7	100.180	-0.240	0.330	2.860
2020/01/31 01:31:27.8	100.180	-0.250	0.270	2.880
2020/01/31 01:31:27.9	100.190	-0.250	0.210	2.900
2020/01/31 01:31:28.0	100.190	-0.250	0.150	2.920
2020/01/31 01:31:28.1	100.200	-0.250	0.090	2.930
2020/01/31 01:31:28.2	100.210	-0.250	0.030	2.940
2020/01/31 01:31:28.3	100.220	-0.250	-0.030	2.940
2020/01/31 01:31:28.4	100.230	-0.250	-0.090	2.940
2020/01/31 01:31:28.5	100.240	-0.250	-0.150	2.940
2020/01/31 01:31:28.6	100.250	-0.250	-0.220	2.940
2020/01/31 01:31:28.7	100.260	-0.250	-0.280	2.930
2020/01/31 01:31:28.8	100.270	-0.240	-0.340	2.920
2020/01/31 01:31:28.9	100.280	-0.230	-0.400	2.910
2020/01/31 01:31:29.0	100.270	-0.230	-0.450	2.890
2020/01/31 01:31:29.1	100.280	-0.220	-0.510	2.870
2020/01/31 01:31:29.2	100.280	-0.210	-0.560	2.850
2020/01/31 01:31:29.3	100.290	-0.210	-0.610	2.830
2020/01/31 01:31:29.4	100.300	-0.200	-0.650	2.800
2020/01/31 01:31:29.5	100.300	-0.190	-0.690	2.770
2020/01/31 01:31:29.6	100.310	-0.180	-0.730	2.740
2020/01/31 01:31:29.7	100.310	-0.170	-0.770	2.700
2020/01/31 01:31:29.8	100.320	-0.160	-0.790	2.660
2020/01/31 01:31:29.9	100.320	-0.150	-0.820	2.620
2020/01/31 01:31:30.0	100.340	-0.140	-0.830	2.580
2020/01/31 01:31:30.1	100.340	-0.130	-0.850	2.530
2020/01/31 01:31:30.2	100.350	-0.120	-0.850	2.480
2020/01/31 01:31:30.3	100.350	-0.110	-0.850	2.430
2020/01/31 01:31:30.4	100.350	-0.100	-0.850	2.370
2020/01/31 01:31:30.5	100.360	-0.090	-0.840	2.310
2020/01/31 01:31:30.6	100.360	-0.080	-0.820	2.250
2020/01/31 01:31:30.7	100.360	-0.070	-0.800	2.180
2020/01/31 01:31:30.8	100.370	-0.070	-0.780	2.110
2020/01/31 01:31:30.9	100.370	-0.060	-0.750	2.040
2020/01/31 01:31:31.0	100.360	-0.050	-0.710	1.980
2020/01/31 01:31:31.1	100.370	-0.050	-0.670	1.900
2020/01/31 01:31:31.2	100.370	-0.040	-0.630	1.820
2020/01/31 01:31:31.3	100.370	-0.040	-0.580	1.750
2020/01/31 01:31:31.4	100.370	-0.040	-0.540	1.670
2020/01/31 01:31:31.5	100.370	-0.030	-0.490	1.580
2020/01/31 01:31:31.6	100.370	-0.030	-0.440	1.500
2020/01/31 01:31:31.7	100.370	-0.030	-0.380	1.420
2020/01/31 01:31:31.8	100.360	-0.020	-0.330	1.330
2020/01/31 01:31:31.9	100.360	-0.020	-0.280	1.240
2020/01/31 01:31:32.0	100.370	-0.020	-0.230	1.150
2020/01/31 01:31:32.1	100.370	-0.020	-0.180	1.060
2020/01/31 01:31:32.2	100.360	-0.020	-0.130	0.970
2020/01/31 01:31:32.3	100.360	-0.010	-0.090	0.880
2020/01/31 01:31:32.4	100.350	-0.010	-0.040	0.790
2020/01/31 01:31:32.5	100.350	-0.010	-0.000	0.700
2020/01/31 01:31:32.6	100.350	-0.010	0.030	0.610
2020/01/31 01:31:32.7	100.340	-0.000	0.060	0.520
2020/01/31 01:31:32.8	100.340	0.000	0.090	0.430
2020/01/31 01:31:32.9	100.330	0.010	0.110	0.330
2020/01/31 01:31:33.0	100.340	0.020	0.130	0.250
2020/01/31 01:31:33.1	100.330	0.020	0.150	0.160
2020/01/31 01:31:33.2	100.320	0.030	0.160	0.060
2020/01/31 01:31:33.3	100.320	0.040	0.160	-0.030
2020/01/31 01:31:33.4	100.310	0.050	0.160	-0.120
2020/01/31 01:31:33.5	100.310	0.070	0.160	-0.210
2020/01/31 01:31:33.6	100.300	0.080	0.150	-0.300
2020/01/31 01:31:33.7	100.300	0.090	0.140	-0.380
2020/01/31 01:31:33.8	100.290	0.110	0.120	-0.470
2020/01/31 01:31:33.9	100.290	0.120	0.100	-0.560
2020/01/31 01:31:34.0	100.300	0.130	0.080	-0.640
2020/01/31 01:31:34.1	100.300	0.150	0.050	-0.720
2020/01/31 01:31:34.2	100.300	0.160	0.020	-0.800
2020/01/31 01:31:34.3	100.290	0.180	-0.010	-0.880
2020/01/31 01:31:34.4	100.290	0.200	-0.040	-0.960
2020/01/31 01:31:34.5	100.300	0.210	-0.080	-1.030
2020/01/31 01:31:34.6	100.300	0.220	-0.110	-1.100
2020/01/31 01:31:34.7	100.300	0.240	-0.150	-1.160
2020/01/31 01:31:34.8	100.300	0.250	-0.180	-1.220
2020/01/31 01:31:34.9	100.310	0.260	-0.220	-1.280
2020/01/31 01:31:35.0	100.310	0.270	-0.250	-1.330
2020/01/31 01:31:35.1	100.320	0.280	-0.290	-1.370
2020/01/31 01:31:35.2	100.320	0.290	-0.320	-1.410
2020/01/31 01:31:35.3	100.330	0.290	-0.350	-1.450
2020/01/31 01:31:35.4	100.330	0.300	-0.370	-1.480
2020/01/31 01:31:35.5	100.340	0.300	-0.400	-1.500
2020/01/31 01:31:35.6	100.340	0.300	-0.410	-1.520
2020/01/31 01:31:35.7	100.350	0.300	-0.430	-1.530
2020/01/31 01:31:35.8	100.360	0.300	-0.440	-1.530
2020/01/31 01:31:35.9	100.360	0.300	-0.450	-1.530
2020/01/31 01:31:36.0	100.370	0.290	-0.440	-1.520
2020/01/31 01:31:36.1	100.380	0.290	-0.440	-1.510
2020/01/31 01:31:36.2	100.390	0.280	-0.430	-1.500
2020/01/31 01:31:36.3	100.390	0.270	-0.420	-1.480
2020/01/31 01:31:36.4	100.400	0.250	-0.400	-1.450
2020/01/31 01:31:36.5	100.410	0.240	-0.380	-1.420
2020/01/31 01:31:36.6	100.410	0.230	-0.360	-1.390
2020/01/31 01:31:36.7	100.420	0.210	-0.330	-1.350
2020/01/31 01:31:36.8	100.420	0.190	-0.290	-1.300
2020/01/31 01:31:36.9	100.430	0.170	-0.250	-1.260
2020/01/31 01:31:37.0	100.450	0.150	-0.210	-1.210
2020/01/31 01:31:37.1	100.460	0.130	-0.170	-1.150
2020/01/31 01:31:37.2	100.460	0.110	-0.120	-1.090
2020/01/31 01:31:37.3	100.470	0.080	-0.080	-1.030
2020/01/31 01:31:37.4	100.470	0.060	-0.030	-0.960
2020/01/31 01:31:37.5	100.480	0.030	0.020	-0.900
2020/01/31 01:31:37.6	100.480	0.010	0.080	-0.820
2020/01/31 01:31:37.7	100.490	-0.020	0.130	-0.750
2020/01/31 01:31:37.8	100.490	-0.040	0.180	-0.670
2020/01/31 01:31:37.9	100.500	-0.070	0.230	-0.590
2020/01/31 01:31:38.0	100.500	-0.090	0.280	-0.500
2020/01/31 01:31:38.1	100.500	-0.120	0.320	-0.410
2020/01/31 01:31:38.2	100.510	-0.140	0.360	-0.330
2020/01/31 01:31:38.3	100.510	-0.170	0.400	-0.240
2020/01/31 01:31:38.4	100.510	-0.190	0.440	-0.140
2020/01/31 01:31:38.5	100.510	-0.210	0.470	-0.050
2020/01/31 01:31:38.6	100.510	-0.230	0.500	0.050
2020/01/31 01:31:38.7	100.510	-0.250	0.520	0.150
2020/01/31 01:31:38.8	100.510	-0.270	0.540	0.250
2020/01/31 01:31:38.9	100.510	-0.280	0.560	0.350
2020/01/31 01:31:39.0	100.500	-0.300	0.570	0.450
2020/01/31 01:31:39.1	100.490	-0.310	0.570	0.550
2020/01/31 01:31:39.2	100.490	-0.320	0.560	0.660
2020/01/31 01:31:39.3	100.480	-0.320	0.550	0.770
2020/01/31 01:31:39.4	100.480	-0.330	0.540	0.870
2020/01/31 01:31:39.5	100.470	-0.330	0.520	0.980
2020/01/31 01:31:39.6	100.460	-0.330	0.490	1.090
2020/01/31 01:31:39.7	100.450	-0.330	0.450	1.200
2020/01/31 01:31:39.8	100.440	-0.320	0.410	1.310
2020/01/31 01:31:39.9	100.430	-0.310	0.370	1.430
2020/01/31 01:31:40.0	100.420	-0.300	0.320	1.540
2020/01/31 01:31:40.1	100.410	-0.290	0.260	1.650
2020/01/31 01:31:40.2	100.390	-0.280	0.210	1.760
2020/01/31 01:31:40.3	100.380	-0.260	0.140	1.870
2020/01/31 01:31:40.4	100.370	-0.240	0.080	1.980
2020/01/31 01:31:40.5	100.350	-0.220	0.010	2.090
2020/01/31 01:31:40.6	100.340	-0.200	-0.060	2.200
2020/01/31 01:31:40.7	100.320	-0.180	-0.130	2.300
2020/01/31 01:31:40.8	100.300	-0.150	-0.200	2.400
2020/01/31 01:31:40.9	100.290	-0.130	-0.280	2.510
2020/01/31 01:31:41.0	100.260	-0.100	-0.350	2.600
2020/01/31 01:31:41.1	100.240	-0.070	-0.430	2.700
2020/01/31 01:31:41.2	100.220	-0.050	-0.500	2.790
2020/01/31 01:31:41.3	100.200	-0.020	-0.570	2.880
2020/01/31 01:31:41.4	100.180	0.010	-0.630	2.970
2020/01/31 01:31:41.5	100.160	0.040	-0.700	3.050
2020/01/31 01:31:41.6	100.140	0.060	-0.760	3.120
2020/01/31 01:31:41.7	100.120	0.090	-0.810	3.190
2020/01/31 01:31:41.8	100.100	0.120	-0.870	3.260
2020/01/31 01:31:41.9	100.090	0.140	-0.920	3.320
2020/01/31 01:31:42.0	100.070	0.170	-0.960	3.380
2020/01/31 01:31:42.1	100.050	0.190	-1.000	3.420
2020/01/31 01:31:42.2	100.040	0.210	-1.030	3.460
2020/01/31 01:31:42.3	100.030	0.230	-1.050	3.490
2020/01/31 01:31:42.4	100.020	0.250	-1.080	3.520
2020/01/31 01:31:42.5	100.010	0.270	-1.090	3.540
2020/01/31 01:31:42.6	100.000	0.280	-1.100	3.550
2020/01/31 01:31:42.7	100.000	0.290	-1.100	3.550
2020/01/31 01:31:42.8	100.000	0.300	-1.100	3.550
2020/01/31 01:31:42.9	100.000	0.310	-1.090	3.540
2020/01/31 01:31:43.0	99.980	0.320	-1.070	3.520
2020/01/31 01:31:43.1	99.990	0.320	-1.050	3.490
2020/01/31 01:31:43.2	99.990	0.330	-1.020	3.460
2020/01/31 01:31:43.3	100.000	0.330	-0.990	3.430
2020/01/31 01:31:43.4	100.010	0.320	-0.950	3.380
2020/01/31 01:31:43.5	100.020	0.320	-0.910	3.330
2020/01/31 01:31:43.6	100.020	0.310	-0.860	3.270
2020/01/31 01:31:43.7	100.030	0.300	-0.810	3.210
2020/01/31 01:31:43.8	100.040	0.290	-0.760	3.140
2020/01/31 01:31:43.9	100.050	0.280	-0.700	3.070
2020/01/31 01:31:44.0	100.050	0.270	-0.630	2.990
2020/01/31 01:31:44.1	100.060	0.250	-0.570	2.910
2020/01/31 01:31:44.2	100.060	0.230	-0.500	2.820
2020/01/31 01:31:44.3	100.070	0.210	-0.430	2.720
2020/01/31 01:31:44.4	100.070	0.190	-0.360	2.620
2020/01/31 01:31:44.5	100.080	0.170	-0.290	2.520
2020/01/31 01:31:44.6	100.080	0.150	-0.220	2.410
2020/01/31 01:31:44.7	100.080	0.120	-0.140	2.300
2020/01/31 01:31:44.8	100.090	0.100	-0.070	2.180
2020/01/31 01:31:44.9	100.090	0.070	0.000	2.070
2020/01/31 01:31:45.0	100.070	0.050	0.080	1.940
2020/01/31 01:31:45.1	100.070	0.020	0.150	1.820
2020/01/31 01:31:45.2	100.060	-0.000	0.220	1.700
2020/01/31 01:31:45.3	100.060	-0.030	0.280	1.570
2020/01/31 01:31:45.4	100.060	-0.050	0.340	1.440
2020/01/31 01:31:45.5	100.050	-0.080	0.400	1.310
2020/01/31 01:31:45.6	100.050	-0.100	0.460	1.190
2020/01/31 01:31:45.7	100.040	-0.130	0.510	1.060
2020/01/31 01:31:45.8	100.040	-0.150	0.550	0.930
2020/01/31 01:31:45.9	100.030	-0.170	0.590	0.800
2020/01/31 01:31:46.0	100.040	-0.190	0.630	0.670
2020/01/31 01:31:46.1	100.030	-0.210	0.660	0.540
2020/01/31 01:31:46.2	100.020	-0.230	0.680	0.410
2020/01/31 01:31:46.3	100.020	-0.240	0.700	0.290
2020/01/31 01:31:46.4	100.010	-0.260	0.710	0.160
2020/01/31 01:31:46.5	100.000	-0.270	0.710	0.040
2020/01/31 01:31:46.6	99.990	-0.280	0.710	-0.080
2020/01/31 01:31:46.7	99.990	-0.290	0.710	-0.200
2020/01/31 01:31:46.8	99.980	-0.290	0.690	-0.310
2020/01/31 01:31:46.9	99.970	-0.300	0.680	-0.430
2020/01/31 01:31:47.0	100.000	-0.300	0.660	-0.530
2020/01/31 01:31:47.1	99.990	-0.300	0.630	-0.640
2020/01/31 01:31:47.2	99.990	-0.300	0.600	-0.750
2020/01/31 01:31:47.3	99.980	-0.300	0.560	-0.860
2020/01/31 01:31:47.4	99.980	-0.300	0.520	-0.960
2020/01/31 01:31:47.5	99.980	-0.290	0.480	-1.060
2020/01/31 01:31:47.6	99.980	-0.290	0.430	-1.160
2020/01/31 01:31:47.7	99.980	-0.280	0.380	-1.250
2020/01/31 01:31:47.8	99.980	-0.270	0.330	-1.340
2020/01/31 01:31:47.9	99.980	-0.260	0.280	-1.430
2020/01/31 01:31:48.0	100.000	-0.250	0.230	-1.520
2020/01/31 01:31:48.1	100.010	-0.240	0.180	-1.600
2020/01/31 01:31:48.2	100.010	-0.230	0.130	-1.680
2020/01/31 01:31:48.3	100.020	-0.220	0.080	-1.760
2020/01/31 01:31:48.4	100.030	-0.210	0.030	-1.830
2020/01/31 01:31:48.5	100.030	-0.200	-0.020	-1.900
2020/01/31 01:31:48.6	100.040	-0.180	-0.070	-1.960
2020/01/31 01:31:48.7	100.050	-0.170	-0.120	-2.020
2020/01/31 01:31:48.8	100.050	-0.160	-0.170	-2.080
2020/01/31 01:31:48.9	100.060	-0.150	-0.210	-2.130
2020/01/31 01:31:49.0	100.070	-0.140	-0.250	-2.170
2020/01/31 01:31:49.1	100.080	-0.120	-0.290	-2.210
2020/01/31 01:31:49.2	100.080	-0.110	-0.330	-2.240
2020/01/31 01:31:49.3	100.090	-0.100	-0.370	-2.260
2020/01/31 01:31:49.4	100.090	-0.090	-0.400	-2.280
2020/01/31 01:31:49.5	100.090	-0.080	-0.440	-2.290
2020/01/31 01:31:49.6	100.090	-0.060	-0.470	-2.300
2020/01/31 01:31:49.7	100.090	-0.050	-0.500	-2.300
2020/01/31 01:31:49.8	100.090	-0.040	-0.530	-2.290
2020/01/31 01:31:49.9	100.090	-0.030	-0.560	-2.270
2020/01/31 01:31:50.0	100.100	-0.020	-0.590	-2.240
2020/01/31 01:31:50.1	100.090	-0.000	-0.610	-2.210
2020/01/31 01:31:50.2	100.080	0.010	-0.640	-2.170
2020/01/31 01:31:50.3	100.080	0.020	-0.660	-2.120
2020/01/31 01:31:50.4	100.070	0.040	-0.680	-2.070
2020/01/31 01:31:50.5	100.050	0.050	-0.710	-2.010
2020/01/31 01:31:50.6	100.040	0.070	-0.730	-1.940
2020/01/31 01:31:50.7	100.020	0.080	-0.750	-1.870
2020/01/31 01:31:50.8	100.010	0.100	-0.770	-1.790
2020/01/31 01:31:50.9	99.990	0.110	-0.790	-1.710
2020/01/31 01:31:51.0	99.970	0.130	-0.810	-1.620
2020/01/31 01:31:51.1	99.950	0.140	-0.820	-1.520
2020/01/31 01:31:51.2	99.930	0.160	-0.840	-1.420
2020/01/31 01:31:51.3	99.910	0.180	-0.850	-1.320
2020/01/31 01:31:51.4	99.890	0.200	-0.860	-1.210
2020/01/31 01:31:51.5	99.870	0.210	-0.870	-1.110
2020/01/31 01:31:51.6	99.850	0.230	-0.870	-1.000
2020/01/31 01:31:51.7	99.830	0.240	-0.870	-0.880
2020/01/31 01:31:51.8	99.810	0.260	-0.870	-0.770
2020/01/31 01:31:51.9	99.790	0.270	-0.870	-0.650
2020/01/31 01:31:52.0	99.770	0.290	-0.860	-0.530
2020/01/31 01:31:52.1	99.750	0.300	-0.840	-0.420
2020/01/31 01:31:52.2	99.730	0.310	-0.830	-0.300
2020/01/31 01:31:52.3	99.720	0.320	-0.800	-0.180
2020/01/31 01:31:52.4	99.700	0.320	-0.770	-0.060
2020/01/31 01:31:52.5	99.680	0.330	-0.740	0.060
2020/01/31 01:31:52.6	99.670	0.330	-0.700	0.170
2020/01/31 01:31:52.7	99.660	0.330	-0.660	0.290
2020/01/31 01:31:52.8	99.640	0.320	-0.610	0.400
2020/01/31 01:31:52.9	99.630	0.310	-0.560	0.510
2020/01/31 01:31:53.0	99.610	0.310	-0.500	0.620
2020/01/31 01:31:53.1	99.600	0.290	-0.440	0.730
2020/01/31 01:31:53.2	99.600	0.280	-0.380	0.840
2020/01/31 01:31:53.3	99.590	0.260	-0.310	0.940
2020/01/31 01:31:53.4	99.590	0.240	-0.240	1.040
2020/01/31 01:31:53.5	99.590	0.220	-0.170	1.140
2020/01/31 01:31:53.6	99.590	0.190	-0.090	1.230
2020/01/31 01:31:53.7	99.590	0.170	-0.010	1.320
2020/01/31 01:31:53.8	99.600	0.140	0.070	1.410
2020/01/31 01:31:53.9	99.600	0.110	0.150	1.490
2020/01/31 01:31:54.0	99.590	0.080	0.230	1.580
2020/01/31 01:31:54.1	99.610	0.040	0.310	1.650
2020/01/31 01:31:54.2	99.620	0.010	0.390	1.720
2020/01/31 01:31:54.3	99.640	-0.020	0.470	1.790
2020/01/31 01:31:54.4	99.650	-0.060	0.540	1.850
2020/01/31 01:31:54.5	99.670	-0.090	0.610	1.910
2020/01/31 01:31:54.6	99.690	-0.130	0.680	1.960
2020/01/31 01:31:54.7	99.720	-0.160	0.750	2.010
2020/01/31 01:31:54.8	99.740	-0.200	0.810	2.050
2020/01/31 01:31:54.9	99.770	-0.230	0.870	2.090
2020/01/31 01:31:55.0	99.790	-0.260	0.920	2.130
2020/01/31 01:31:55.1	99.820	-0.290	0.960	2.160
2020/01/31 01:31:55.2	99.840	-0.320	1.000	2.190
2020/01/31 01:31:55.3	99.870	-0.340	1.030	2.210
2020/01/31 01:31:55.4	99.900	-0.370	1.060	2.230
2020/01/31 01:31:55.5	99.920	-0.390	1.080	2.250
2020/01/31 01:31:55.6	99.950	-0.400	1.080	2.270
2020/01/31 01:31:55.7	99.970	-0.420	1.080	2.280
2020/01/31 01:31:55.8	100.000	-0.430	1.080	2.280
2020/01/31 01:31:55.9	100.020	-0.440	1.060	2.290
2020/01/31 01:31:56.0	100.030	-0.450	1.040	2.290
2020/01/31 01:31:56.1	100.050	-0.450	1.010	2.290
2020/01/31 01:31:56.2	100.070	-0.450	0.970	2.290
2020/01/31 01:31:56.3	100.080	-0.450	0.920	2.290
2020/01/31 01:31:56.4	100.100	-0.440	0.860	2.280
2020/01/31 01:31:56.5	100.110	-0.440	0.800	2.280
2020/01/31 01:31:56.6	100.130	-0.420	0.730	2.270
2020/01/31 01:31:56.7	100.140	-0.410	0.660	2.260
2020/01/31 01:31:56.8	100.140	-0.390	0.570	2.250
2020/01/31 01:31:56.9	100.150	-0.370	0.490	2.240
2020/01/31 01:31:57.0	100.140	-0.350	0.390	2.230
2020/01/31 01:31:57.1	100.150	-0.330	0.300	2.230
2020/01/31 01:31:57.2	100.150	-0.300	0.200	2.220
2020/01/31 01:31:57.3	100.140	-0.270	0.100	2.210
2020/01/31 01:31:57.4	100.140	-0.240	-0.000	2.200
2020/01/31 01:31:57.5	100.130	-0.210	-0.100	2.190
2020/01/31 01:31:57.6	100.120	-0.180	-0.210	2.190
2020/01/31 01:31:57.7	100.110	-0.150	-0.310	2.180
2020/01/31 01:31:57.8	100.100	-0.110	-0.410	2.170
2020/01/31 01:31:57.9	100.090	-0.080	-0.510	2.160
2020/01/31 01:31:58.0	100.090	-0.040	-0.620	2.150
2020/01/31 01:31:58.1	100.080	-0.010	-0.710	2.140
2020/01/31 01:31:58.2	100.060	0.030	-0.810	2.130
2020/01/31 01:31:58.3	100.050	0.060	-0.900	2.120
2020/01/31 01:31:58.4	100.030	0.090	-0.980	2.110
2020/01/31 01:31:58.5	100.020	0.120	-1.060	2.090
2020/01/31 01:31:58.6	100.000	0.160	-1.140	2.080
2020/01/31 01:31:58.7	99.990	0.180	-1.210	2.060
2020/01/31 01:31:58.8	99.970	0.210	-1.270	2.030
2020/01/31 01:31:58.9	99.960	0.240	-1.330	2.010
2020/01/31 01:31:59.0	99.930	0.260	-1.370	1.980
2020/01/31 01:31:59.1	99.920	0.290	-1.410	1.950
2020/01/31 01:31:59.2	99.910	0.310	-1.450	1.920
2020/01/31 01:31:59.3	99.900	0.330	-1.480	1.880
2020/01/31 01:31:59.4	99.890	0.340	-1.500	1.840
2020/01/31 01:31:59.5	99.890	0.360	-1.510	1.790
2020/01/31 01:31:59.6	99.880	0.370	-1.510	1.750
2020/01/31 01:31:59.7	99.880	0.380	-1.500	1.690
2020/01/31 01:31:59.8	99.870	0.380	-1.490	1.640
2020/01/31 01:31:59.9	99.870	0.390	-1.470	1.580
2020/01/31 01:32:00.0	99.870	0.390	-1.440	1.520
2020/01/31 01:32:00.1	99.870	0.390	-1.410	1.460
2020/01/31 01:32:00.2	99.870	0.390	-1.360	1.390
2020/01/31 01:32:00.3	99.870	0.390	-1.310	1.320
2020/01/31 01:32:00.4	99.870	0.380	-1.260	1.250
2020/01/31 01:32:00.5	99.880	0.370	-1.190	1.180
2020/01/31 01:32:00.6	99.880	0.360	-1.120	1.110
2020/01/31 01:32:00.7	99.880	0.350	-1.050	1.040
2020/01/31 01:32:00.8	99.880	0.340	-0.970	0.960
2020/01/31 01:32:00.9	99.890	0.320	-0.880	0.880
2020/01/31 01:32:01.0	99.900	0.310	-0.790	0.810
2020/01/31 01:32:01.1	99.910	0.290	-0.690	0.730
2020/01/31 01:32:01.2	99.910	0.270	-0.600	0.660
2020/01/31 01:32:01.3	99.910	0.250	-0.500	0.580
2020/01/31 01:32:01.4	99.920	0.230	-0.400	0.500
2020/01/31 01:32:01.5	99.920	0.210	-0.290	0.430
2020/01/31 01:32:01.6	99.920	0.180	-0.190	0.360
2020/01/31 01:32:01.7	99.930	0.160	-0.090	0.280
2020/01/31 01:32:01.8	99.930	0.140	0.010	0.210
2020/01/31 01:32:01.9	99.930	0.110	0.110	0.140
2020/01/31 01:32:02.0	99.950	0.090	0.210	0.080
2020/01/31 01:32:02.1	99.950	0.060	0.310	0.010
2020/01/31 01:32:02.2	99.950	0.040	0.400	-0.050
2020/01/31 01:32:02.3	99.950	0.010	0.490	-0.110
2020/01/31 01:32:02.4	99.960	-0.010	0.570	-0.170
2020/01/31 01:32:02.5	99.950	-0.030	0.650	-0.230
2020/01/31 01:32:02.6	99.950	-0.060	0.730	-0.280
2020/01/31 01:32:02.7	99.950	-0.080	0.790	-0.330
2020/01/31 01:32:02.8	99.950	-0.100	0.860	-0.380
2020/01/31 01:32:02.9	99.950	-0.130	0.910	-0.430
2020/01/31 01:32:03.0	99.950	-0.150	0.960	-0.470
2020/01/31 01:32:03.1	99.950	-0.170	1.000	-0.510
2020/01/31 01:32:03.2	99.940	-0.180	1.040	-0.550
2020/01/31 01:32:03.3	99.940	-0.200	1.060	-0.580
2020/01/31 01:32:03.4	99.930	-0.220	1.080	-0.610
2020/01/31 01:32:03.5	99.920	-0.230	1.090	-0.640
2020/01/31 01:32:03.6	99.910	-0.250	1.100	-0.670
2020/01/31 01:32:03.7	99.910	-0.260	1.090	-0.700
2020/01/31 01:32:03.8	99.900	-0.270	1.080	-0.720
2020/01/31 01:32:03.9	99.890	-0.280	1.060	-0.740
2020/01/31 01:32:04.0	99.880	-0.280	1.040	-0.760
2020/01/31 01:32:04.1	99.870	-0.290	1.000	-0.780
2020/01/31 01:32:04.2	99.860	-0.290	0.960	-0.790
2020/01/31 01:32:04.3	99.850	-0.290	0.920	-0.800
2020/01/31 01:32:04.4	99.840	-0.290	0.870	-0.810
2020/01/31 01:32:04.5	99.820	-0.290	0.810	-0.820
2020/01/31 01:32:04.6	99.810	-0.280	0.740	-0.820
2020/01/31 01:32:04.7	99.800	-0.280	0.680	-0.820
2020/01/31 01:32:04.8	99.790	-0.270	0.600	-0.820
2020/01/31 01:32:04.9	99.780	-0.260	0.520	-0.820
2020/01/31 01:32:05.0	99.760	-0.250	0.450	-0.810
2020/01/31 01:32:05.1	99.750	-0.240	0.360	-0.800
2020/01/31 01:32:05.2	99.740	-0.220	0.270	-0.780
2020/01/31 01:32:05.3	99.730	-0.200	0.180	-0.770
2020/01/31 01:32:05.4	99.720	-0.190	0.090	-0.750
2020/01/31 01:32:05.5	99.710	-0.170	-0.000	-0.720
2020/01/31 01:32:05.6	99.710	-0.150	-0.090	-0.690
2020/01/31 01:32:05.7	99.700	-0.120	-0.190	-0.660
2020/01/31 01:32:05.8	99.700	-0.100	-0.280	-0.630
2020/01/31 01:32:05.9	99.700	-0.080	-0.370	-0.590
2020/01/31 01:32:06.0	99.700	-0.050	-0.460	-0.550
2020/01/31 01:32:06.1	99.700	-0.030	-0.550	-0.500
2020/01/31 01:32:06.2	99.700	-0.000	-0.630	-0.460
2020/01/31 01:32:06.3	99.700	0.030	-0.710	-0.410
2020/01/31 01:32:06.4	99.700	0.050	-0.780	-0.350
2020/01/31 01:32:06.5	99.700	0.080	-0.860	-0.300
2020/01/31 01:32:06.6	99.700	0.110	-0.920	-0.240
2020/01/31 01:32:06.7	99.710	0.140	-0.980	-0.180
2020/01/31 01:32:06.8	99.710	0.160	-1.030	-0.120
2020/01/31 01:32:06.9	99.720	0.190	-1.080	-0.060
2020/01/31 01:32:07.0	99.720	0.220	-1.120	0.000
2020/01/31 01:32:07.1	99.720	0.240	-1.160	0.070
2020/01/31 01:32:07.2	99.730	0.260	-1.180	0.130
2020/01/31 01:32:07.3	99.740	0.290	-1.210	0.200
2020/01/31 01:32:07.4	99.740	0.310	-1.220	0.260
2020/01/31 01:32:07.5	99.750	0.330	-1.230	0.330
2020/01/31 01:32:07.6	99.760	0.340	-1.220	0.400
2020/01/31 01:32:07.7	99.770	0.360	-1.220	0.460
2020/01/31 01:32:07.8	99.770	0.370	-1.200	0.530
2020/01/31 01:32:07.9	99.780	0.380	-1.180	0.600
2020/01/31 01:32:08.0	99.790	0.390	-1.150	0.670
2020/01/31 01:32:08.1	99.800	0.400	-1.120	0.730
2020/01/31 01:32:08.2	99.800	0.400	-1.070	0.800
2020/01/31 01:32:08.3	99.810	0.400	-1.030	0.860
2020/01/31 01:32:08.4	99.810	0.390	-0.970	0.930
2020/01/31 01:32:08.5	99.820	0.390	-0.920	1.000
2020/01/31 01:32:08.6	99.820	0.380	-0.850	1.060
2020/01/31 01:32:08.7	99.830	0.360	-0.790	1.130
2020/01/31 01:32:08.8	99.830	0.350	-0.710	1.190
2020/01/31 01:32:08.9	99.830	0.330	-0.640	1.260
2020/01/31 01:32:09.0	99.820	0.300	-0.560	1.320
2020/01/31 01:32:09.1	99.820	0.280	-0.480	1.380
2020/01/31 01:32:09.2	99.820	0.250	-0.390	1.450
2020/01/31 01:32:09.3	99.810	0.220	-0.310	1.510
2020/01/31 01:32:09.4	99.810	0.180	-0.220	1.580
2020/01/31 01:32:09.5	99.800	0.150	-0.130	1.640
2020/01/31 01:32:09.6	99.800	0.110	-0.050	1.710
2020/01/31 01:32:09.7	99.790	0.070	0.040	1.770
2020/01/31 01:32:09.8	99.780	0.030	0.120	1.830
2020/01/31 01:32:09.9	99.770	-0.020	0.210	1.890
2020/01/31 01:32:10.0	99.760	-0.060	0.290	1.960
2020/01/31 01:32:10.1	99.750	-0.100	0.370	2.020
2020/01/31 01:32:10.2	99.740	-0.150	0.440	2.080
2020/01/31 01:32:10.3	99.720	-0.190	0.510	2.140
2020/01/31 01:32:10.4	99.710	-0.240	0.580	2.190
2020/01/31 01:32:10.5	99.690	-0.280	0.640	2.250
2020/01/31 01:32:10.6	99.680	-0.320	0.690	2.300
2020/01/31 01:32:10.7	99.670	-0.370	0.740	2.350
2020/01/31 01:32:10.8	99.650	-0.410	0.780	2.390
2020/01/31 01:32:10.9	99.640	-0.440	0.820	2.430
2020/01/31 01:32:11.0	99.600	-0.480	0.850	2.470
2020/01/31 01:32:11.1	99.590	-0.510	0.870	2.510
2020/01/31 01:32:11.2	99.570	-0.540	0.880	2.540
2020/01/31 01:32:11.3	99.560	-0.570	0.890	2.570
2020/01/31 01:32:11.4	99.550	-0.590	0.890	2.600
2020/01/31 01:32:11.5	99.540	-0.610	0.880	2.620
2020/01/31 01:32:11.6	99.530	-0.630	0.870	2.630
2020/01/31 01:32:11.7	99.520	-0.640	0.840	2.650
2020/01/31 01:32:11.8	99.510	-0.650	0.820	2.660
2020/01/31 01:32:11.9	99.500	-0.650	0.780	2.660
2020/01/31 01:32:12.0	99.490	-0.650	0.740	2.660
2020/01/31 01:32:12.1	99.480	-0.650	0.690	2.660
2020/01/31 01:32:12.2	99.470	-0.640	0.640	2.650
2020/01/31 01:32:12.3	99.470	-0.630	0.580	2.640
2020/01/31 01:32:12.4	99.460	-0.610	0.520	2.630
2020/01/31 01:32:12.5	99.460	-0.590	0.460	2.610
2020/01/31 01:32:12.6	99.460	-0.570	0.390	2.580
2020/01/31 01:32:12.7	99.460	-0.540	0.320	2.560
2020/01/31 01:32:12.8	99.450	-0.510	0.240	2.530
2020/01/31 01:32:12.9	99.450	-0.480	0.170	2.490
2020/01/31 01:32:13.0	99.440	-0.450	0.090	2.450
2020/01/31 01:32:13.1	99.450	-0.410	0.020	2.410
2020/01/31 01:32:13.2	99.450	-0.370	-0.060	2.360
2020/01/31 01:32:13.3	99.450	-0.330	-0.140	2.310
2020/01/31 01:32:13.4	99.450	-0.290	-0.210	2.250
2020/01/31 01:32:13.5	99.460	-0.250	-0.290	2.190
2020/01/31 01:32:13.6	99.460	-0.200	-0.360	2.130
2020/01/31 01:32:13.7	99.470	-0.160	-0.440	2.060
2020/01/31 01:32:13.8	99.480	-0.110	-0.500	1.990
2020/01/31 01:32:13.9	99.480	-0.070	-0.570	1.920
2020/01/31 01:32:14.0	99.480	-0.020	-0.640	1.840
2020/01/31 01:32:14.1	99.490	0.020	-0.700	1.760
2020/01/31 01:32:14.2	99.500	0.070	-0.760	1.680
2020/01/31 01:32:14.3	99.510	0.110	-0.810	1.590
2020/01/31 01:32:14.4	99.520	0.160	-0.860	1.510
2020/01/31 01:32:14.5	99.520	0.200	-0.910	1.420
2020/01/31 01:32:14.6	99.530	0.240	-0.950	1.340
2020/01/31 01:32:14.7	99.540	0.280	-0.990	1.250
2020/01/31 01:32:14.8	99.550	0.320	-1.020	1.160
2020/01/31 01:32:14.9	99.550	0.350	-1.050	1.080
2020/01/31 01:32:15.0	99.560	0.390	-1.080	1.000
2020/01/31 01:32:15.1	99.570	0.420	-1.090	0.910
2020/01/31 01:32:15.2	99.570	0.450	-1.110	0.830
2020/01/31 01:32:15.3	99.570	0.470	-1.120	0.750
2020/01/31 01:32:15.4	99.560	0.500	-1.120	0.670
2020/01/31 01:32:15.5	99.560	0.520	-1.120	0.600
2020/01/31 01:32:15.6	99.550	0.540	-1.120	0.520
2020/01/31 01:32:15.7	99.540	0.560	-1.110	0.450
2020/01/31 01:32:15.8	99.530	0.570	-1.090	0.380
2020/01/31 01:32:15.9	99.520	0.590	-1.070	0.320
2020/01/31 01:32:16.0	99.520	0.600	-1.050	0.250
2020/01/31 01:32:16.1	99.510	0.610	-1.020	0.190
2020/01/31 01:32:16.2	99.490	0.610	-0.990	0.120
2020/01/31 01:32:16.3	99.480	0.610	-0.950	0.060
2020/01/31 01:32:16.4	99.460	0.620	-0.910	0.000
2020/01/31 01:32:16.5	99.440	0.620	-0.860	-0.050
2020/01/31 01:32:16.6	99.420	0.610	-0.820	-0.110
2020/01/31 01:32:16.7	99.400	0.610	-0.770	-0.160
2020/01/31 01:32:16.8	99.380	0.600	-0.710	-0.210
2020/01/31 01:32:16.9	99.360	0.590	-0.650	-0.260
2020/01/31 01:32:17.0	99.350	0.580	-0.590	-0.310
2020/01/31 01:32:17.1	99.330	0.570	-0.530	-0.350
2020/01/31 01:32:17.2	99.310	0.560	-0.470	-0.390
2020/01/31 01:32:17.3	99.280	0.540	-0.400	-0.430
2020/01/31 01:32:17.4	99.260	0.520	-0.330	-0.470
2020/01/31 01:32:17.5	99.240	0.510	-0.260	-0.510
2020/01/31 01:32:17.6	99.220	0.490	-0.190	-0.540
2020/01/31 01:32:17.7	99.200	0.470	-0.120	-0.570
2020/01/31 01:32:17.8	99.180	0.440	-0.050	-0.590
2020/01/31 01:32:17.9	99.160	0.420	0.020	-0.620
2020/01/31 01:32:18.0	99.140	0.400	0.090	-0.640
2020/01/31 01:32:18.1	99.120	0.370	0.160	-0.650
2020/01/31 01:32:18.2	99.100	0.340	0.230	-0.670
2020/01/31 01:32:18.3	99.080	0.320	0.290	-0.680
2020/01/31 01:32:18.4	99.060	0.290	0.360	-0.680
2020/01/31 01:32:18.5	99.050	0.260	0.420	-0.690
2020/01/31 01:32:18.6	99.030	0.230	0.480	-0.680
2020/01/31 01:32:18.7	99.020	0.200	0.540	-0.680
2020/01/31 01:32:18.8	99.000	0.170	0.590	-0.680
2020/01/31 01:32:18.9	98.990	0.140	0.640	-0.670
2020/01/31 01:32:19.0	98.990	0.110	0.690	-0.650
2020/01/31 01:32:19.1	98.980	0.080	0.730	-0.640
2020/01/31 01:32:19.2	98.980	0.040	0.770	-0.630
2020/01/31 01:32:19.3	98.970	0.010	0.810	-0.610
2020/01/31 01:32:19.4	98.970	-0.020	0.840	-0.600
2020/01/31 01:32:19.5	98.970	-0.050	0.870	-0.580
2020/01/31 01:32:19.6	98.970	-0.080	0.890	-0.560
2020/01/31 01:32:19.7	98.970	-0.110	0.910	-0.540
2020/01/31 01:32:19.8	98.980	-0.140	0.920	-0.520
2020/01/31 01:32:19.9	98.980	-0.170	0.930	-0.500
2020/01/31 01:32:20.0	99.000	-0.200	0.930	-0.470
2020/01/31 01:32:20.1	99.010	-0.220	0.930	-0.450
2020/01/31 01:32:20.2	99.020	-0.250	0.920	-0.420
2020/01/31 01:32:20.3	99.030	-0.270	0.910	-0.400
2020/01/31 01:32:20.4	99.040	-0.290	0.890	-0.370
2020/01/31 01:32:20.5	99.060	-0.310	0.860	-0.350
2020/01/31 01:32:20.6	99.070	-0.330	0.830	-0.320
2020/01/31 01:32:20.7	99.080	-0.340	0.800	-0.300
2020/01/31 01:32:20.8	99.090	-0.350	0.760	-0.270
2020/01/31 01:32:20.9	99.110	-0.360	0.710	-0.240
2020/01/31 01:32:21.0	99.100	-0.370	0.660	-0.210
2020/01/31 01:32:21.1	99.110	-0.380	0.610	-0.180
2020/01/31 01:32:21.2	99.120	-0.380	0.550	-0.140
2020/01/31 01:32:21.3	99.130	-0.380	0.480	-0.110
2020/01/31 01:32:21.4	99.140	-0.380	0.410	-0.070
2020/01/31 01:32:21.5	99.150	-0.380	0.340	-0.030
2020/01/31 01:32:21.6	99.160	-0.370	0.270	0.010
2020/01/31 01:32:21.7	99.170	-0.360	0.190	0.050
2020/01/31 01:32:21.8	99.180	-0.350	0.110	0.100
2020/01/31 01:32:21.9	99.180	-0.340	0.030	0.140
2020/01/31 01:32:22.0	99.200	-0.330	-0.060	0.190
2020/01/31 01:32:22.1	99.210	-0.310	-0.140	0.240
2020/01/31 01:32:22.2	99.210	-0.290	-0.230	0.300
2020/01/31 01:32:22.3	99.220	-0.270	-0.310	0.350
2020/01/31 01:32:22.4	99.230	-0.250	-0.400	0.410
2020/01/31 01:32:22.5	99.230	-0.230	-0.480	0.470
2020/01/31 01:32:22.6	99.240	-0.210	-0.560	0.530
2020/01/31 01:32:22.7	99.240	-0.190	-0.640	0.600
2020/01/31 01:32:22.8	99.250	-0.170	-0.720	0.660
2020/01/31 01:32:22.9	99.250	-0.140	-0.790	0.730
2020/01/31 01:32:23.0	99.260	-0.120	-0.860	0.810
2020/01/31 01:32:23.1	99.270	-0.100	-0.930	0.880
2020/01/31 01:32:23.2	99.270	-0.080	-0.990	0.960
2020/01/31 01:32:23.3	99.270	-0.060	-1.050	1.040
2020/01/31 01:32:23.4	99.270	-0.030	-1.110	1.120
2020/01/31 01:32:23.5	99.280	-0.010	-1.160	1.200
2020/01/31 01:32:23.6	99.280	0.000	-1.210	1.290
2020/01/31 01:32:23.7	99.280	0.020	-1.250	1.380
2020/01/31 01:32:23.8	99.270	0.040	-1.280	1.470
2020/01/31 01:32:23.9	99.270	0.050	-1.310	1.560
2020/01/31 01:32:24.0	99.250	0.070	-1.340	1.660
2020/01/31 01:32:24.1	99.250	0.080	-1.360	1.750
2020/01/31 01:32:24.2	99.240	0.090	-1.370	1.850
2020/01/31 01:32:24.3	99.240	0.090	-1.380	1.950
2020/01/31 01:32:24.4	99.230	0.100	-1.370	2.040
2020/01/31 01:32:24.5	99.220	0.100	-1.370	2.140
2020/01/31 01:32:24.6	99.220	0.100	-1.350	2.230
2020/01/31 01:32:24.7	99.210	0.100	-1.330	2.320
2020/01/31 01:32:24.8	99.200	0.100	-1.300	2.410
2020/01/31 01:32:24.9	99.190	0.090	-1.270	2.500
2020/01/31 01:32:25.0	99.160	0.090	-1.220	2.580
2020/01/31 01:32:25.1	99.150	0.080	-1.170	2.660
2020/01/31 01:32:25.2	99.140	0.070	-1.120	2.740
2020/01/31 01:32:25.3	99.130	0.050	-1.060	2.810
2020/01/31 01:32:25.4	99.120	0.040	-0.990	2.870
2020/01/31 01:32:25.5	99.110	0.020	-0.920	2.930
2020/01/31 01:32:25.6	99.100	0.000	-0.840	2.990
2020/01/31 01:32:25.7	99.090	-0.020	-0.760	3.030
2020/01/31 01:32:25.8	99.080	-0.040	-0.670	3.080
2020/01/31 01:32:25.9	99.060	-0.060	-0.580	3.110
2020/01/31 01:32:26.0	99.040	-0.090	-0.480	3.140
2020/01/31 01:32:26.1	99.030	-0.110	-0.380	3.160
2020/01/31 01:32:26.2	99.020	-0.130	-0.280	3.170
2020/01/31 01:32:26.3	99.010	-0.160	-0.180	3.180
2020/01/31 01:32:26.4	99.000	-0.180	-0.080	3.180
2020/01/31 01:32:26.5	98.980	-0.210	0.020	3.170
2020/01/31 01:32:26.6	98.970	-0.230	0.130	3.150
2020/01/31 01:32:26.7	98.960	-0.260	0.230	3.120
2020/01/31 01:32:26.8	98.940	-0.280	0.330	3.090
2020/01/31 01:32:26.9	98.930	-0.300	0.430	3.050
2020/01/31 01:32:27.0	98.920	-0.320	0.520	3.000
2020/01/31 01:32:27.1	98.910	-0.340	0.610	2.940
2020/01/31 01:32:27.2	98.900	-0.360	0.700	2.880
2020/01/31 01:32:27.3	98.890	-0.370	0.780	2.810
2020/01/31 01:32:27.4	98.880	-0.380	0.860	2.730
2020/01/31 01:32:27.5	98.870	-0.400	0.930	2.650
2020/01/31 01:32:27.6	98.860	-0.410	1.000	2.550
2020/01/31 01:32:27.7	98.860	-0.410	1.050	2.460
2020/01/31 01:32:27.8	98.850	-0.420	1.100	2.350
2020/01/31 01:32:27.9	98.850	-0.420	1.150	2.240
2020/01/31 01:32:28.0	98.850	-0.420	1.190	2.120
2020/01/31 01:32:28.1	98.840	-0.410	1.210	2.000
2020/01/31 01:32:28.2	98.840	-0.410	1.230	1.870
2020/01/31 01:32:28.3	98.840	-0.400	1.230	1.740
2020/01/31 01:32:28.4	98.840	-0.380	1.230	1.600
2020/01/31 01:32:28.5	98.850	-0.370	1.210	1.460
2020/01/31 01:32:28.6	98.850	-0.350	1.190	1.320
2020/01/31 01:32:28.7	98.850	-0.330	1.160	1.180
2020/01/31 01:32:28.8	98.860	-0.300	1.110	1.030
2020/01/31 01:32:28.9	98.860	-0.270	1.060	0.880
2020/01/31 01:32:29.0	98.860	-0.240	0.990	0.740
2020/01/31 01:32:29.1	98.860	-0.210	0.920	0.590
2020/01/31 01:32:29.2	98.870	-0.180	0.840	0.440
2020/01/31 01:32:29.3	98.870	-0.140	0.750	0.290
2020/01/31 01:32:29.4	98.870	-0.100	0.660	0.140
2020/01/31 01:32:29.5	98.880	-0.060	0.550	-0.010
2020/01/31 01:32:29.6	98.880	-0.020	0.450	-0.150
2020/01/31 01:32:29.7	98.880	0.020	0.330	-0.290
2020/01/31 01:32:29.8	98.880	0.060	0.220	-0.440
2020/01/31 01:32:29.9	98.880	0.100	0.100	-0.570
2020/01/31 01:32:30.0	98.900	0.150	-0.020	-0.710
2020/01/31 01:32:30.1	98.900	0.190	-0.140	-0.850
2020/01/31 01:32:30.2	98.900	0.230	-0.260	-0.980
2020/01/31 01:32:30.3	98.900	0.270	-0.370	-1.100
2020/01/31 01:32:30.4	98.900	0.310	-0.490	-1.220
2020/01/31 01:32:30.5	98.890	0.350	-0.600	-1.340
2020/01/31 01:32:30.6	98.890	0.380	-0.710	-1.460
2020/01/31 01:32:30.7	98.890	0.420	-0.810	-1.570
2020/01/31 01:32:30.8	98.890	0.450	-0.900	-1.670
2020/01/31 01:32:30.9	98.890	0.480	-0.990	-1.770
2020/01/31 01:32:31.0	98.910	0.500	-1.080	-1.860
2020/01/31 01:32:31.1	98.910	0.520	-1.150	-1.940
2020/01/31 01:32:31.2	98.910	0.540	-1.210	-2.020
2020/01/31 01:32:31.3	98.900	0.560	-1.270	-2.090
2020/01/31 01:32:31.4	98.900	0.570	-1.310	-2.160
2020/01/31 01:32:31.5	98.900	0.570	-1.350	-2.210
2020/01/31 01:32:31.6	98.890	0.580	-1.370	-2.260
2020/01/31 01:32:31.7	98.890	0.580	-1.390	-2.300
2020/01/31 01:32:31.8	98.880	0.580	-1.400	-2.330
2020/01/31 01:32:31.9	98.870	0.570	-1.390	-2.350
2020/01/31 01:32:32.0	98.880	0.560	-1.370	-2.360
2020/01/31 01:32:32.1	98.870	0.550	-1.350	-2.360
2020/01/31 01:32:32.2	98.860	0.530	-1.310	-2.350
2020/01/31 01:32:32.3	98.840	0.510	-1.280	-2.340
2020/01/31 01:32:32.4	98.830	0.490	-1.230	-2.320
2020/01/31 01:32:32.5	98.810	0.470	-1.170	-2.290
2020/01/31 01:32:32.6	98.800	0.440	-1.110	-2.250
2020/01/31 01:32:32.7	98.780	0.410	-1.050	-2.210
2020/01/31 01:32:32.8	98.760	0.380	-0.970	-2.150
2020/01/31 01:32:32.9	98.740	0.350	-0.900	-2.100
2020/01/31 01:32:33.0	98.720	0.320	-0.820	-2.030
2020/01/31 01:32:33.1	98.700	0.280	-0.730	-1.960
2020/01/31 01:32:33.2	98.680	0.250	-0.650	-1.880
2020/01/31 01:32:33.3	98.660	0.220	-0.560	-1.800
2020/01/31 01:32:33.4	98.650	0.180	-0.470	-1.720
2020/01/31 01:32:33.5	98.630	0.150	-0.380	-1.630
2020/01/31 01:32:33.6	98.610	0.120	-0.300	-1.540
2020/01/31 01:32:33.7	98.600	0.090	-0.210	-1.450
2020/01/31 01:32:33.8	98.580	0.050	-0.130	-1.350
2020/01/31 01:32:33.9	98.570	0.030	-0.040	-1.250
2020/01/31 01:32:34.0	98.560	-0.000	0.040	-1.150
2020/01/31 01:32:34.1	98.540	-0.030	0.110	-1.050
2020/01/31 01:32:34.2	98.530	-0.050	0.180	-0.940
2020/01/31 01:32:34.3	98.510	-0.070	0.240	-0.830
2020/01/31 01:32:34.4	98.500	-0.090	0.300	-0.720
2020/01/31 01:32:34.5	98.480	-0.100	0.350	-0.610
2020/01/31 01:32:34.6	98.460	-0.120	0.400	-0.500
2020/01/31 01:32:34.7	98.450	-0.130	0.440	-0.390
2020/01/31 01:32:34.8	98.430	-0.130	0.470	-0.270
2020/01/31 01:32:34.9	98.410	-0.140	0.500	-0.160
2020/01/31 01:32:35.0	98.390	-0.140	0.520	-0.030
2020/01/31 01:32:35.1	98.380	-0.140	0.540	0.080
2020/01/31 01:32:35.2	98.360	-0.140	0.550	0.200
2020/01/31 01:32:35.3	98.340	-0.130	0.550	0.320
2020/01/31 01:32:35.4	98.320	-0.120	0.550	0.440
2020/01/31 01:32:35.5	98.300	-0.110	0.550	0.560
2020/01/31 01:32:35.6	98.280	-0.100	0.530	0.680
2020/01/31 01:32:35.7	98.260	-0.090	0.520	0.800
2020/01/31 01:32:35.8	98.240	-0.080	0.500	0.910
2020/01/31 01:32:35.9	98.220	-0.060	0.480	1.030
2020/01/31 01:32:36.0	98.200	-0.050	0.450	1.150
2020/01/31 01:32:36.1	98.190	-0.030	0.420	1.270
2020/01/31 01:32:36.2	98.170	-0.020	0.390	1.380
2020/01/31 01:32:36.3	98.160	0.000	0.360	1.500
2020/01/31 01:32:36.4	98.140	0.020	0.320	1.610
2020/01/31 01:32:36.5	98.130	0.030	0.290	1.720
2020/01/31 01:32:36.6	98.120	0.050	0.250	1.830
2020/01/31 01:32:36.7	98.110	0.060	0.220	1.930
2020/01/31 01:32:36.8	98.100	0.070	0.180	2.040
2020/01/31 01:32:36.9	98.090	0.080	0.150	2.140
2020/01/31 01:32:37.0	98.080	0.090	0.110	2.240
2020/01/31 01:32:37.1	98.080	0.100	0.080	2.340
2020/01/31 01:32:37.2	98.070	0.110	0.050	2.430
2020/01/31 01:32:37.3	98.070	0.110	0.020	2.520
2020/01/31 01:32:37.4	98.070	0.110	-0.010	2.610
2020/01/31 01:32:37.5	98.070	0.110	-0.030	2.690
2020/01/31 01:32:37.6	98.070	0.110	-0.060	2.760
2020/01/31 01:32:37.7	98.080	0.110	-0.080	2.840
2020/01/31 01:32:37.8	98.090	0.100	-0.100	2.910
2020/01/31 01:32:37.9	98.090	0.090	-0.110	2.970
2020/01/31 01:32:38.0	98.100	0.080	-0.130	3.040
2020/01/31 01:32:38.1	98.110	0.070	-0.140	3.090
2020/01/31 01:32:38.2	98.130	0.050	-0.150	3.140
2020/01/31 01:32:38.3	98.140	0.040	-0.160	3.190
2020/01/31 01:32:38.4	98.150	0.020	-0.170	3.230
2020/01/31 01:32:38.5	98.170	-0.000	-0.170	3.270
2020/01/31 01:32:38.6	98.180	-0.020	-0.170	3.300
2020/01/31 01:32:38.7	98.200	-0.040	-0.170	3.330
2020/01/31 01:32:38.8	98.210	-0.060	-0.170	3.350
2020/01/31 01:32:38.9	98.220	-0.090	-0.170	3.370
2020/01/31 01:32:39.0	98.240	-0.110	-0.170	3.380
2020/01/31 01:32:39.1	98.250	-0.130	-0.160	3.390
2020/01/31 01:32:39.2	98.260	-0.150	-0.160	3.390
2020/01/31 01:32:39.3	98.280	-0.180	-0.160	3.390
2020/01/31 01:32:39.4	98.290	-0.200	-0.150	3.380
2020/01/31 01:32:39.5	98.290	-0.220	-0.150	3.370
2020/01/31 01:32:39.6	98.300	-0.240	-0.150	3.360
2020/01/31 01:32:39.7	98.300	-0.250	-0.150	3.340
2020/01/31 01:32:39.8	98.300	-0.270	-0.150	3.320
2020/01/31 01:32:39.9	98.300	-0.280	-0.150	3.290
2020/01/31 01:32:40.0	98.300	-0.300	-0.150	3.260
2020/01/31 01:32:40.1	98.290	-0.310	-0.150	3.220
2020/01/31 01:32:40.2	98.280	-0.320	-0.160	3.190
2020/01/31 01:32:40.3	98.260	-0.320	-0.160	3.140
2020/01/31 01:32:40.4	98.250	-0.330	-0.170	3.100
2020/01/31 01:32:40.5	98.230	-0.330	-0.180	3.050
2020/01/31 01:32:40.6	98.200	-0.330	-0.190	3.000
2020/01/31 01:32:40.7	98.170	-0.330	-0.210	2.950
2020/01/31 01:32:40.8	98.140	-0.330	-0.220	2.890
2020/01/31 01:32:40.9	98.110	-0.320	-0.240	2.830
2020/01/31 01:32:41.0	98.080	-0.310	-0.260	2.760
2020/01/31 01:32:41.1	98.040	-0.300	-0.280	2.700
2020/01/31 01:32:41.2	98.000	-0.290	-0.300	2.630
2020/01/31 01:32:41.3	97.950	-0.280	-0.330	2.560
2020/01/31 01:32:41.4	97.910	-0.270	-0.350	2.490
2020/01/31 01:32:41.5	97.860	-0.250	-0.380	2.410
2020/01/31 01:32:41.6	97.810	-0.230	-0.400	2.330
2020/01/31 01:32:41.7	97.760	-0.220	-0.430	2.250
2020/01/31 01:32:41.8	97.710	-0.200	-0.460	2.170
2020/01/31 01:32:41.9	97.660	-0.180	-0.480	2.080
2020/01/31 01:32:42.0	97.610	-0.160	-0.500	1.990
2020/01/31 01:32:42.1	97.560	-0.140	-0.520	1.900
2020/01/31 01:32:42.2	97.510	-0.120	-0.550	1.800
2020/01/31 01:32:42.3	97.470	-0.100	-0.570	1.710
2020/01/31 01:32:42.4	97.420	-0.080	-0.580	1.610
2020/01/31 01:32:42.5	97.380	-0.060	-0.600	1.510
2020/01/31 01:32:42.6	97.340	-0.040	-0.610	1.400
2020/01/31 01:32:42.7	97.300	-0.020	-0.620	1.300
2020/01/31 01:32:42.8	97.260	-0.000	-0.620	1.190
2020/01/31 01:32:42.9	97.230	0.010	-0.620	1.080
2020/01/31 01:32:43.0	97.180	0.030	-0.620	0.980
2020/01/31 01:32:43.1	97.150	0.040	-0.620	0.870
2020/01/31 01:32:43.2	97.120	0.060	-0.610	0.760
2020/01/31 01:32:43.3	97.090	0.070	-0.600	0.650
2020/01/31 01:32:43.4	97.060	0.080	-0.580	0.540
2020/01/31 01:32:43.5	97.030	0.090	-0.570	0.430
2020/01/31 01:32:43.6	97.000	0.090	-0.550	0.320
2020/01/31 01:32:43.7	96.980	0.100	-0.530	0.210
2020/01/31 01:32:43.8	96.950	0.110	-0.500	0.100
2020/01/31 01:32:43.9	96.930	0.110	-0.480	-0.010
2020/01/31 01:32:44.0	96.910	0.110	-0.450	-0.110
2020/01/31 01:32:44.1	96.890	0.110	-0.420	-0.220
2020/01/31 01:32:44.2	96.870	0.110	-0.390	-0.320
2020/01/31 01:32:44.3	96.850	0.120	-0.360	-0.430
2020/01/31 01:32:44.4	96.830	0.110	-0.340	-0.530
2020/01/31 01:32:44.5	96.820	0.110	-0.310	-0.630
2020/01/31 01:32:44.6	96.800	0.110	-0.280	-0.730
2020/01/31 01:32:44.7	96.790	0.110	-0.250	-0.840
2020/01/31 01:32:44.8	96.770	0.110	-0.220	-0.940
2020/01/31 01:32:44.9	96.760	0.110	-0.200	-1.030
2020/01/31 01:32:45.0	96.770	0.110	-0.170	-1.130
2020/01/31 01:32:45.1	96.760	0.110	-0.150	-1.220
2020/01/31 01:32:45.2	96.750	0.100	-0.130	-1.320
2020/01/31 01:32:45.3	96.740	0.100	-0.110	-1.410
2020/01/31 01:32:45.4	96.740	0.100	-0.090	-1.500
2020/01/31 01:32:45.5	96.730	0.100	-0.080	-1.580
2020/01/31 01:32:45.6	96.730	0.100	-0.060	-1.670
2020/01/31 01:32:45.7	96.720	0.110	-0.050	-1.750
2020/01/31 01:32:45.8	96.720	0.110	-0.030	-1.830
2020/01/31 01:32:45.9	96.720	0.110	-0.020	-1.900
2020/01/31 01:32:46.0	96.710	0.110	-0.010	-1.970
2020/01/31 01:32:46.1	96.710	0.110	-0.000	-2.030
2020/01/31 01:32:46.2	96.710	0.110	0.010	-2.090
2020/01/31 01:32:46.3	96.700	0.120	0.020	-2.140
2020/01/31 01:32:46.4	96.700	0.120	0.030	-2.190
2020/01/31 01:32:46.5	96.700	0.120	0.050	-2.240
2020/01/31 01:32:46.6	96.700	0.120	0.060	-2.280
2020/01/31 01:32:46.7	96.690	0.120	0.080	-2.310
2020/01/31 01:32:46.8	96.690	0.120	0.090	-2.330
2020/01/31 01:32:46.9	96.690	0.120	0.110	-2.350
2020/01/31 01:32:47.0	96.690	0.110	0.130	-2.360
2020/01/31 01:32:47.1	96.690	0.110	0.150	-2.370
2020/01/31 01:32:47.2	96.680	0.100	0.170	-2.370
2020/01/31 01:32:47.3	96.680	0.100	0.200	-2.360
2020/01/31 01:32:47.4	96.680	0.090	0.220	-2.350
2020/01/31 01:32:47.5	96.670	0.080	0.250	-2.330
2020/01/31 01:32:47.6	96.670	0.070	0.280	-2.300
2020/01/31 01:32:47.7	96.670	0.060	0.300	-2.270
2020/01/31 01:32:47.8	96.670	0.050	0.330	-2.230
2020/01/31 01:32:47.9	96.670	0.040	0.360	-2.180
2020/01/31 01:32:48.0	96.670	0.020	0.380	-2.130
2020/01/31 01:32:48.1	96.670	0.010	0.410	-2.070
2020/01/31 01:32:48.2	96.670	-0.000	0.430	-2.000
2020/01/31 01:32:48.3	96.670	-0.020	0.450	-1.930
2020/01/31 01:32:48.4	96.670	-0.040	0.470	-1.850
2020/01/31 01:32:48.5	96.670	-0.050	0.490	-1.770
2020/01/31 01:32:48.6	96.670	-0.070	0.500	-1.680
2020/01/31 01:32:48.7	96.670	-0.080	0.510	-1.590
2020/01/31 01:32:48.8	96.680	-0.090	0.520	-1.490
2020/01/31 01:32:48.9	96.680	-0.110	0.520	-1.380
2020/01/31 01:32:49.0	96.680	-0.120	0.510	-1.270
2020/01/31 01:32:49.1	96.680	-0.130	0.510	-1.150
2020/01/31 01:32:49.2	96.680	-0.140	0.500	-1.040
2020/01/31 01:32:49.3	96.680	-0.150	0.480	-0.910
2020/01/31 01:32:49.4	96.680	-0.150	0.460	-0.790
2020/01/31 01:32:49.5	96.680	-0.160	0.430	-0.660
2020/01/31 01:32:49.6	96.680	-0.160	0.400	-0.530
2020/01/31 01:32:49.7	96.680	-0.160	0.360	-0.390
2020/01/31 01:32:49.8	96.680	-0.160	0.320	-0.250
2020/01/31 01:32:49.9	96.680	-0.160	0.270	-0.110
2020/01/31 01:32:50.0	96.680	-0.150	0.220	0.030
2020/01/31 01:32:50.1	96.670	-0.140	0.160	0.170
2020/01/31 01:32:50.2	96.670	-0.130	0.110	0.320
2020/01/31 01:32:50.3	96.670	-0.120	0.050	0.470
2020/01/31 01:32:50.4	96.670	-0.110	-0.020	0.610
2020/01/31 01:32:50.5	96.660	-0.090	-0.080	0.760
2020/01/31 01:32:50.6	96.660	-0.080	-0.150	0.900
2020/01/31 01:32:50.7	96.650	-0.060	-0.220	1.050
2020/01/31 01:32:50.8	96.650	-0.040	-0.290	1.190
2020/01/31 01:32:50.9	96.640	-0.020	-0.360	1.340
2020/01/31 01:32:51.0	96.620	0.000	-0.430	1.480
2020/01/31 01:32:51.1	96.610	0.020	-0.490	1.630
2020/01/31 01:32:51.2	96.600	0.040	-0.560	1.770
2020/01/31 01:32:51.3	96.590	0.070	-0.620	1.900
2020/01/31 01:32:51.4	96.580	0.090	-0.680	2.040
2020/01/31 01:32:51.5	96.570	0.110	-0.730	2.170
2020/01/31 01:32:51.6	96.550	0.130	-0.790	2.300
2020/01/31 01:32:51.7	96.530	0.150	-0.830	2.430
2020/01/31 01:32:51.8	96.510	0.170	-0.880	2.550
2020/01/31 01:32:51.9	96.490	0.190	-0.910	2.670
2020/01/31 01:32:52.0	96.470	0.200	-0.940	2.780
2020/01/31 01:32:52.1	96.440	0.220	-0.970	2.900
2020/01/31 01:32:52.2	96.420	0.230	-0.990	3.000
2020/01/31 01:32:52.3	96.390	0.250	-1.010	3.110
2020/01/31 01:32:52.4	96.370	0.260	-1.020	3.200
2020/01/31 01:32:52.5	96.340	0.260	-1.030	3.300
2020/01/31 01:32:52.6	96.310	0.270	-1.020	3.380
2020/01/31 01:32:52.7	96.280	0.280	-1.020	3.470
2020/01/31 01:32:52.8	96.250	0.280	-1.000	3.540
2020/01/31 01:32:52.9	96.220	0.280	-0.980	3.610
2020/01/31 01:32:53.0	96.190	0.280	-0.960	3.680
2020/01/31 01:32:53.1	96.160	0.270	-0.930	3.740
2020/01/31 01:32:53.2	96.130	0.270	-0.890	3.790
2020/01/31 01:32:53.3	96.100	0.260	-0.850	3.830
2020/01/31 01:32:53.4	96.070	0.260	-0.810	3.870
2020/01/31 01:32:53.5	96.040	0.250	-0.760	3.900
2020/01/31 01:32:53.6	96.010	0.240	-0.710	3.920
2020/01/31 01:32:53.7	95.990	0.220	-0.660	3.940
2020/01/31 01:32:53.8	95.960	0.210	-0.600	3.940
2020/01/31 01:32:53.9	95.940	0.200	-0.550	3.940
2020/01/31 01:32:54.0	95.910	0.190	-0.480	3.930
2020/01/31 01:32:54.1	95.890	0.170	-0.420	3.920
2020/01/31 01:32:54.2	95.860	0.160	-0.360	3.890
2020/01/31 01:32:54.3	95.840	0.150	-0.310	3.860
2020/01/31 01:32:54.4	95.820	0.130	-0.250	3.820
2020/01/31 01:32:54.5	95.810	0.120	-0.190	3.770
2020/01/31 01:32:54.6	95.790	0.110	-0.140	3.720
2020/01/31 01:32:54.7	95.770	0.100	-0.080	3.650
2020/01/31 01:32:54.8	95.750	0.090	-0.030	3.580
2020/01/31 01:32:54.9	95.740	0.080	0.010	3.510
2020/01/31 01:32:55.0	95.720	0.070	0.060	3.420
2020/01/31 01:32:55.1	95.710	0.060	0.100	3.330
2020/01/31 01:32:55.2	95.690	0.060	0.140	3.240
2020/01/31 01:32:55.3	95.680	0.050	0.170	3.130
2020/01/31 01:32:55.4	95.660	0.050	0.200	3.020
2020/01/31 01:32:55.5	95.650	0.040	0.230	2.910
2020/01/31 01:32:55.6	95.640	0.040	0.250	2.790
2020/01/31 01:32:55.7	95.630	0.030	0.270	2.660
2020/01/31 01:32:55.8	95.620	0.030	0.280	2.530
2020/01/31 01:32:55.9	95.610	0.030	0.290	2.390
2020/01/31 01:32:56.0	95.600	0.030	0.300	2.250
2020/01/31 01:32:56.1	95.600	0.030	0.310	2.110
2020/01/31 01:32:56.2	95.590	0.020	0.310	1.960
2020/01/31 01:32:56.3	95.590	0.020	0.310	1.810
2020/01/31 01:32:56.4	95.580	0.020	0.310	1.650
2020/01/31 01:32:56.5	95.580	0.020	0.300	1.490
2020/01/31 01:32:56.6	95.580	0.020	0.300	1.330
2020/01/31 01:32:56.7	95.580	0.010	0.290	1.170
2020/01/31 01:32:56.8	95.580	0.010	0.280	1.010
2020/01/31 01:32:56.9	95.580	0.010	0.260	0.850
2020/01/31 01:32:57.0	95.580	0.000	0.250	0.690
2020/01/31 01:32:57.1	95.580	-0.010	0.240	0.530
2020/01/31 01:32:57.2	95.580	-0.010	0.220	0.370
2020/01/31 01:32:57.3	95.580	-0.020	0.210	0.220
2020/01/31 01:32:57.4	95.590	-0.030	0.190	0.060
2020/01/31 01:32:57.5	95.590	-0.040	0.170	-0.090
2020/01/31 01:32:57.6	95.590	-0.050	0.160	-0.230
2020/01/31 01:32:57.7	95.590	-0.060	0.140	-0.380
2020/01/31 01:32:57.8	95.590	-0.070	0.130	-0.520
2020/01/31 01:32:57.9	95.590	-0.090	0.110	-0.650
2020/01/31 01:32:58.0	95.600	-0.100	0.100	-0.780
2020/01/31 01:32:58.1	95.590	-0.120	0.080	-0.900
2020/01/31 01:32:58.2	95.590	-0.130	0.070	-1.020
2020/01/31 01:32:58.3	95.580	-0.150	0.060	-1.130
2020/01/31 01:32:58.4	95.580	-0.160	0.050	-1.240
2020/01/31 01:32:58.5	95.570	-0.180	0.030	-1.330
2020/01/31 01:32:58.6	95.560	-0.200	0.020	-1.430
2020/01/31 01:32:58.7	95.540	-0.210	0.010	-1.510
2020/01/31 01:32:58.8	95.530	-0.230	0.000	-1.590
2020/01/31 01:32:58.9	95.510	-0.250	-0.010	-1.660
2020/01/31 01:32:59.0	95.510	-0.260	-0.020	-1.730
2020/01/31 01:32:59.1	95.490	-0.280	-0.030	-1.790
2020/01/31 01:32:59.2	95.470	-0.290	-0.040	-1.840
2020/01/31 01:32:59.3	95.450	-0.310	-0.050	-1.890
2020/01/31 01:32:59.4	95.420	-0.320	-0.070	-1.930
2020/01/31 01:32:59.5	95.400	-0.340	-0.080	-1.960
2020/01/31 01:32:59.6	95.380	-0.350	-0.090	-1.990
2020/01/31 01:32:59.7	95.360	-0.360	-0.110	-2.020
2020/01/31 01:32:59.8	95.340	-0.370	-0.120	-2.030
2020/01/31 01:32:59.9	95.310	-0.380	-0.140	-2.050
2020/01/31 01:33:00.0	95.300	-0.380	-0.150	-2.050
2020/01/31 01:33:00.1	95.280	-0.390	-0.170	-2.050
2020/01/31 01:33:00.2	95.260	-0.400	-0.190	-2.050
2020/01/31 01:33:00.3	95.240	-0.400	-0.200	-2.030
2020/01/31 01:33:00.4	95.220	-0.400	-0.220	-2.020
2020/01/31 01:33:00.5	95.200	-0.400	-0.240	-2.000
2020/01/31 01:33:00.6	95.180	-0.400	-0.260	-1.970
2020/01/31 01:33:00.7	95.160	-0.390	-0.280	-1.930
2020/01/31 01:33:00.8	95.140	-0.390	-0.300	-1.900
2020/01/31 01:33:00.9	95.120	-0.380	-0.310	-1.850
2020/01/31 01:33:01.0	95.100	-0.370	-0.340	-1.800
2020/01/31 01:33:01.1	95.080	-0.360	-0.350	-1.740
2020/01/31 01:33:01.2	95.060	-0.350	-0.370	-1.680
2020/01/31 01:33:01.3	95.040	-0.340	-0.390	-1.610
2020/01/31 01:33:01.4	95.020	-0.320	-0.400	-1.540
2020/01/31 01:33:01.5	95.000	-0.310	-0.420	-1.460
2020/01/31 01:33:01.6	94.980	-0.290	-0.430	-1.380
2020/01/31 01:33:01.7	94.960	-0.270	-0.450	-1.300
2020/01/31 01:33:01.8	94.930	-0.250	-0.460	-1.210
2020/01/31 01:33:01.9	94.910	-0.220	-0.470	-1.110
2020/01/31 01:33:02.0	94.900	-0.200	-0.480	-1.010
2020/01/31 01:33:02.1	94.880	-0.170	-0.480	-0.910
2020/01/31 01:33:02.2	94.860	-0.150	-0.490	-0.810
2020/01/31 01:33:02.3	94.840	-0.120	-0.490	-0.710
2020/01/31 01:33:02.4	94.830	-0.090	-0.490	-0.600
2020/01/31 01:33:02.5	94.820	-0.060	-0.490	-0.500
2020/01/31 01:33:02.6	94.810	-0.030	-0.490	-0.390
2020/01/31 01:33:02.7	94.800	-0.000	-0.480	-0.290
2020/01/31 01:33:02.8	94.790	0.030	-0.480	-0.180
2020/01/31 01:33:02.9	94.790	0.060	-0.470	-0.080
2020/01/31 01:33:03.0	94.800	0.080	-0.450	0.030
2020/01/31 01:33:03.1	94.800	0.110	-0.440	0.130
2020/01/31 01:33:03.2	94.810	0.140	-0.420	0.230
2020/01/31 01:33:03.3	94.810	0.170	-0.410	0.340
2020/01/31 01:33:03.4	94.820	0.190	-0.390	0.430
2020/01/31 01:33:03.5	94.830	0.210	-0.370	0.530
2020/01/31 01:33:03.6	94.850	0.240	-0.350	0.630
2020/01/31 01:33:03.7	94.860	0.260	-0.320	0.730
2020/01/31 01:33:03.8	94.880	0.280	-0.300	0.820
2020/01/31 01:33:03.9	94.890	0.290	-0.270	0.920
2020/01/31 01:33:04.0	94.910	0.310	-0.250	1.020
2020/01/31 01:33:04.1	94.930	0.320	-0.220	1.120
2020/01/31 01:33:04.2	94.950	0.330	-0.200	1.210
2020/01/31 01:33:04.3	94.960	0.340	-0.170	1.310
2020/01/31 01:33:04.4	94.980	0.350	-0.140	1.410
2020/01/31 01:33:04.5	94.990	0.360	-0.110	1.510
2020/01/31 01:33:04.6	95.010	0.360	-0.090	1.600
2020/01/31 01:33:04.7	95.020	0.360	-0.060	1.700
2020/01/31 01:33:04.8	95.030	0.360	-0.030	1.800
2020/01/31 01:33:04.9	95.030	0.350	-0.010	1.900
2020/01/31 01:33:05.0	95.030	0.350	0.020	2.000
2020/01/31 01:33:05.1	95.040	0.340	0.040	2.100
2020/01/31 01:33:05.2	95.040	0.330	0.060	2.190
2020/01/31 01:33:05.3	95.040	0.320	0.080	2.290
2020/01/31 01:33:05.4	95.030	0.310	0.100	2.380
2020/01/31 01:33:05.5	95.030	0.300	0.120	2.470
2020/01/31 01:33:05.6	95.020	0.290	0.140	2.560
2020/01/31 01:33:05.7	95.010	0.270	0.150	2.650
2020/01/31 01:33:05.8	95.000	0.250	0.160	2.730
2020/01/31 01:33:05.9	94.990	0.240	0.170	2.810
2020/01/31 01:33:06.0	94.970	0.220	0.180	2.890
2020/01/31 01:33:06.1	94.950	0.200	0.180	2.960
2020/01/31 01:33:06.2	94.930	0.180	0.190	3.030
2020/01/31 01:33:06.3	94.910	0.160	0.190	3.100
2020/01/31 01:33:06.4	94.890	0.140	0.200	3.160
2020/01/31 01:33:06.5	94.860	0.120	0.200	3.220
2020/01/31 01:33:06.6	94.840	0.090	0.200	3.280
2020/01/31 01:33:06.7	94.810	0.070	0.200	3.330
2020/01/31 01:33:06.8	94.780	0.050	0.200	3.370
2020/01/31 01:33:06.9	94.740	0.030	0.200	3.410
2020/01/31 01:33:07.0	94.700	0.010	0.200	3.450
2020/01/31 01:33:07.1	94.670	-0.010	0.190	3.480
2020/01/31 01:33:07.2	94.630	-0.030	0.190	3.510
2020/01/31 01:33:07.3	94.590	-0.050	0.180	3.530
2020/01/31 01:33:07.4	94.550	-0.070	0.170	3.540
2020/01/31 01:33:07.5	94.500	-0.080	0.160	3.550
2020/01/31 01:33:07.6	94.460	-0.100	0.160	3.560
2020/01/31 01:33:07.7	94.420	-0.120	0.140	3.560
2020/01/31 01:33:07.8	94.370	-0.130	0.130	3.550
2020/01/31 01:33:07.9	94.330	-0.140	0.120	3.540
2020/01/31 01:33:08.0	94.280	-0.150	0.100	3.520
2020/01/31 01:33:08.1	94.240	-0.160	0.090	3.500
2020/01/31 01:33:08.2	94.190	-0.170	0.070	3.480
2020/01/31 01:33:08.3	94.150	-0.180	0.050	3.440
2020/01/31 01:33:08.4	94.110	-0.180	0.020	3.410
2020/01/31 01:33:08.5	94.070	-0.180	-0.000	3.360
2020/01/31 01:33:08.6	94.030	-0.180	-0.030	3.310
2020/01/31 01:33:08.7	93.990	-0.180	-0.060	3.260
2020/01/31 01:33:08.8	93.960	-0.180	-0.090	3.200
2020/01/31 01:33:08.9	93.920	-0.170	-0.130	3.130
2020/01/31 01:33:09.0	93.890	-0.160	-0.160	3.060
2020/01/31 01:33:09.1	93.860	-0.150	-0.200	2.980
2020/01/31 01:33:09.2	93.840	-0.140	-0.240	2.900
2020/01/31 01:33:09.3	93.810	-0.120	-0.280	2.810
2020/01/31 01:33:09.4	93.790	-0.110	-0.320	2.710
2020/01/31 01:33:09.5	93.770	-0.090	-0.370	2.610
2020/01/31 01:33:09.6	93.750	-0.070	-0.410	2.510
2020/01/31 01:33:09.7	93.730	-0.040	-0.450	2.400
2020/01/31 01:33:09.8	93.720	-0.020	-0.500	2.290
2020/01/31 01:33:09.9	93.710	0.000	-0.540	2.180
2020/01/31 01:33:10.0	93.700	0.030	-0.580	2.060
2020/01/31 01:33:10.1	93.690	0.060	-0.620	1.940
2020/01/31 01:33:10.2	93.690	0.080	-0.660	1.810
2020/01/31 01:33:10.3	93.680	0.110	-0.690	1.690
2020/01/31 01:33:10.4	93.680	0.140	-0.730	1.560
2020/01/31 01:33:10.5	93.680	0.170	-0.760	1.420
2020/01/31 01:33:10.6	93.680	0.190	-0.780	1.290
2020/01/31 01:33:10.7	93.680	0.220	-0.800	1.150
2020/01/31 01:33:10.8	93.690	0.240	-0.820	1.010
2020/01/31 01:33:10.9	93.690	0.260	-0.830	0.870
2020/01/31 01:33:11.0	93.710	0.280	-0.830	0.740
2020/01/31 01:33:11.1	93.720	0.300	-0.830	0.590
2020/01/31 01:33:11.2	93.730	0.320	-0.830	0.450
2020/01/31 01:33:11.3	93.740	0.330	-0.810	0.310
2020/01/31 01:33:11.4	93.760	0.340	-0.800	0.170
2020/01/31 01:33:11.5	93.770	0.350	-0.770	0.030
2020/01/31 01:33:11.6	93.790	0.350	-0.750	-0.110
2020/01/31 01:33:11.7	93.810	0.350	-0.710	-0.250
2020/01/31 01:33:11.8	93.820	0.350	-0.670	-0.390
2020/01/31 01:33:11.9	93.840	0.350	-0.630	-0.530
2020/01/31 01:33:12.0	93.870	0.340	-0.580	-0.660
2020/01/31 01:33:12.1	93.890	0.330	-0.530	-0.790
2020/01/31 01:33:12.2	93.900	0.320	-0.470	-0.910
2020/01/31 01:33:12.3	93.920	0.300	-0.410	-1.030
2020/01/31 01:33:12.4	93.930	0.280	-0.350	-1.140
2020/01/31 01:33:12.5	93.950	0.260	-0.290	-1.250
2020/01/31 01:33:12.6	93.960	0.240	-0.230	-1.350
2020/01/31 01:33:12.7	93.970	0.220	-0.160	-1.440
2020/01/31 01:33:12.8	93.980	0.190	-0.100	-1.530
2020/01/31 01:33:12.9	93.990	0.160	-0.030	-1.610
2020/01/31 01:33:13.0	93.990	0.130	0.030	-1.670
2020/01/31 01:33:13.1	94.000	0.100	0.090	-1.740
2020/01/31 01:33:13.2	94.000	0.070	0.150	-1.790
2020/01/31 01:33:13.3	94.000	0.040	0.210	-1.830
2020/01/31 01:33:13.4	94.000	0.000	0.260	-1.870
2020/01/31 01:33:13.5	93.990	-0.030	0.310	-1.890
2020/01/31 01:33:13.6	93.990	-0.060	0.360	-1.910
2020/01/31 01:33:13.7	93.980	-0.090	0.400	-1.920
2020/01/31 01:33:13.8	93.970	-0.120	0.440	-1.920
2020/01/31 01:33:13.9	93.950	-0.150	0.470	-1.910
2020/01/31 01:33:14.0	93.940	-0.180	0.500	-1.890
2020/01/31 01:33:14.1	93.920	-0.210	0.530	-1.870
2020/01/31 01:33:14.2	93.900	-0.230	0.540	-1.840
2020/01/31 01:33:14.3	93.880	-0.260	0.560	-1.800
2020/01/31 01:33:14.4	93.860	-0.280	0.560	-1.750
2020/01/31 01:33:14.5	93.840	-0.300	0.570	-1.710
2020/01/31 01:33:14.6	93.820	-0.310	0.560	-1.650
2020/01/31 01:33:14.7	93.790	-0.320	0.550	-1.590
2020/01/31 01:33:14.8	93.770	-0.340	0.540	-1.530
2020/01/31 01:33:14.9	93.740	-0.340	0.520	-1.460
2020/01/31 01:33:15.0	93.710	-0.350	0.500	-1.390
2020/01/31 01:33:15.1	93.680	-0.350	0.470	-1.320
2020/01/31 01:33:15.2	93.660	-0.360	0.440	-1.240
2020/01/31 01:33:15.3	93.630	-0.350	0.410	-1.160
2020/01/31 01:33:15.4	93.600	-0.350	0.370	-1.070
2020/01/31 01:33:15.5	93.570	-0.350	0.330	-0.980
2020/01/31 01:33:15.6	93.550	-0.340	0.290	-0.890
2020/01/31 01:33:15.7	93.520	-0.330	0.240	-0.800
2020/01/31 01:33:15.8	93.490	-0.320	0.190	-0.700
2020/01/31 01:33:15.9	93.460	-0.300	0.140	-0.600
2020/01/31 01:33:16.0	93.430	-0.290	0.090	-0.510
2020/01/31 01:33:16.1	93.400	-0.270	0.040	-0.400
2020/01/31 01:33:16.2	93.380	-0.260	-0.010	-0.300
2020/01/31 01:33:16.3	93.350	-0.240	-0.070	-0.190
2020/01/31 01:33:16.4	93.320	-0.220	-0.120	-0.080
2020/01/31 01:33:16.5	93.300	-0.200	-0.180	0.030
2020/01/31 01:33:16.6	93.270	-0.180	-0.230	0.150
2020/01/31 01:33:16.7	93.240	-0.160	-0.290	0.260
2020/01/31 01:33:16.8	93.220	-0.140	-0.340	0.370
2020/01/31 01:33:16.9	93.190	-0.120	-0.390	0.490
2020/01/31 01:33:17.0	93.170	-0.100	-0.450	0.610
2020/01/31 01:33:17.1	93.150	-0.080	-0.500	0.720
2020/01/31 01:33:17.2	93.120	-0.070	-0.540	0.840
2020/01/31 01:33:17.3	93.100	-0.050	-0.580	0.950
2020/01/31 01:33:17.4	93.080	-0.030	-0.620	1.060
2020/01/31 01:33:17.5	93.060	-0.020	-0.660	1.170
2020/01/31 01:33:17.6	93.040	-0.000	-0.690	1.280
2020/01/31 01:33:17.7	93.020	0.010	-0.720	1.380
2020/01/31 01:33:17.8	93.000	0.020	-0.740	1.490
2020/01/31 01:33:17.9	92.990	0.030	-0.760	1.580
2020/01/31 01:33:18.0	92.970	0.040	-0.780	1.680
2020/01/31 01:33:18.1	92.960	0.050	-0.790	1.770
2020/01/31 01:33:18.2	92.950	0.050	-0.790	1.870
2020/01/31 01:33:18.3	92.940	0.060	-0.790	1.950
2020/01/31 01:33:18.4	92.930	0.060	-0.790	2.040
2020/01/31 01:33:18.5	92.920	0.060	-0.780	2.120
2020/01/31 01:33:18.6	92.920	0.070	-0.770	2.190
2020/01/31 01:33:18.7	92.910	0.070	-0.750	2.260
2020/01/31 01:33:18.8	92.910	0.070	-0.730	2.330
2020/01/31 01:33:18.9	92.910	0.060	-0.700	2.400
2020/01/31 01:33:19.0	92.910	0.060	-0.670	2.460
2020/01/31 01:33:19.1	92.910	0.060	-0.630	2.520
2020/01/31 01:33:19.2	92.920	0.050	-0.590	2.570
2020/01/31 01:33:19.3	92.920	0.050	-0.550	2.620
2020/01/31 01:33:19.4	92.920	0.040	-0.500	2.660
2020/01/31 01:33:19.5	92.930	0.040	-0.450	2.700
2020/01/31 01:33:19.6	92.930	0.030	-0.390	2.730
2020/01/31 01:33:19.7	92.940	0.020	-0.340	2.760
2020/01/31 01:33:19.8	92.950	0.010	-0.280	2.780
2020/01/31 01:33:19.9	92.960	0.000	-0.220	2.790
2020/01/31 01:33:20.0	92.960	-0.000	-0.150	2.800
2020/01/31 01:33:20.1	92.970	-0.010	-0.090	2.810
2020/01/31 01:33:20.2	92.990	-0.020	-0.030	2.810
2020/01/31 01:33:20.3	93.000	-0.030	0.030	2.800
2020/01/31 01:33:20.4	93.010	-0.050	0.090	2.790
2020/01/31 01:33:20.5	93.030	-0.060	0.140	2.770
2020/01/31 01:33:20.6	93.050	-0.070	0.200	2.740
2020/01/31 01:33:20.7	93.070	-0.080	0.250	2.710
2020/01/31 01:33:20.8	93.080	-0.090	0.300	2.680
2020/01/31 01:33:20.9	93.100	-0.100	0.340	2.640
2020/01/31 01:33:21.0	93.130	-0.110	0.380	2.590
2020/01/31 01:33:21.1	93.150	-0.120	0.420	2.540
2020/01/31 01:33:21.2	93.170	-0.130	0.450	2.490
2020/01/31 01:33:21.3	93.190	-0.140	0.470	2.430
2020/01/31 01:33:21.4	93.200	-0.140	0.490	2.360
2020/01/31 01:33:21.5	93.220	-0.150	0.510	2.300
2020/01/31 01:33:21.6	93.230	-0.160	0.510	2.230
2020/01/31 01:33:21.7	93.240	-0.160	0.510	2.160
2020/01/31 01:33:21.8	93.250	-0.160	0.510	2.090
2020/01/31 01:33:21.9	93.250	-0.170	0.500	2.020
2020/01/31 01:33:22.0	93.250	-0.170	0.480	1.950
2020/01/31 01:33:22.1	93.240	-0.170	0.460	1.880
2020/01/31 01:33:22.2	93.240	-0.160	0.430	1.810
2020/01/31 01:33:22.3	93.230	-0.160	0.390	1.740
2020/01/31 01:33:22.4	93.210	-0.160	0.360	1.670
2020/01/31 01:33:22.5	93.200	-0.150	0.310	1.600
2020/01/31 01:33:22.6	93.180	-0.140	0.270	1.540
2020/01/31 01:33:22.7	93.150	-0.130	0.220	1.480
2020/01/31 01:33:22.8	93.120	-0.120	0.170	1.410
2020/01/31 01:33:22.9	93.090	-0.110	0.110	1.350
2020/01/31 01:33:23.0	93.070	-0.090	0.060	1.290
2020/01/31 01:33:23.1	93.040	-0.080	0.000	1.240
2020/01/31 01:33:23.2	93.000	-0.060	-0.050	1.180
2020/01/31 01:33:23.3	92.960	-0.050	-0.110	1.120
2020/01/31 01:33:23.4	92.920	-0.030	-0.170	1.060
2020/01/31 01:33:23.5	92.880	-0.010	-0.220	1.010
2020/01/31 01:33:23.6	92.840	0.010	-0.280	0.950
2020/01/31 01:33:23.7	92.800	0.020	-0.330	0.890
2020/01/31 01:33:23.8	92.750	0.040	-0.380	0.840
2020/01/31 01:33:23.9	92.710	0.060	-0.430	0.780
2020/01/31 01:33:24.0	92.680	0.080	-0.480	0.730
2020/01/31 01:33:24.1	92.640	0.100	-0.520	0.670
2020/01/31 01:33:24.2	92.600	0.120	-0.560	0.610
2020/01/31 01:33:24.3	92.560	0.140	-0.600	0.550
2020/01/31 01:33:24.4	92.520	0.150	-0.630	0.500
2020/01/31 01:33:24.5	92.490	0.170	-0.670	0.440
2020/01/31 01:33:24.6	92.450	0.180	-0.690	0.380
2020/01/31 01:33:24.7	92.420	0.200	-0.710	0.320
2020/01/31 01:33:24.8	92.390	0.210	-0.730	0.260
2020/01/31 01:33:24.9	92.360	0.230	-0.750	0.200
2020/01/31 01:33:25.0	92.320	0.240	-0.760	0.140
2020/01/31 01:33:25.1	92.300	0.250	-0.760	0.080
2020/01/31 01:33:25.2	92.280	0.260	-0.760	0.010
2020/01/31 01:33:25.3	92.260	0.260	-0.760	-0.050
2020/01/31 01:33:25.4	92.240	0.270	-0.750	-0.120
2020/01/31 01:33:25.5	92.220	0.270	-0.730	-0.190
2020/01/31 01:33:25.6	92.210	0.280	-0.710	-0.260
2020/01/31 01:33:25.7	92.200	0.280	-0.690	-0.330
2020/01/31 01:33:25.8	92.200	0.280	-0.670	-0.400
2020/01/31 01:33:25.9	92.200	0.280	-0.630	-0.470
2020/01/31 01:33:26.0	92.190	0.270	-0.600	-0.540
2020/01/31 01:33:26.1	92.200	0.270	-0.560	-0.610
2020/01/31 01:33:26.2	92.210	0.260	-0.520	-0.680
2020/01/31 01:33:26.3	92.220	0.260	-0.470	-0.750
2020/01/31 01:33:26.4	92.230	0.250	-0.420	-0.820
2020/01/31 01:33:26.5	92.250	0.240	-0.370	-0.890
2020/01/31 01:33:26.6	92.270	0.230	-0.320	-0.950
2020/01/31 01:33:26.7	92.290	0.210	-0.270	-1.010
2020/01/31 01:33:26.8	92.310	0.200	-0.210	-1.070
2020/01/31 01:33:26.9	92.330	0.180	-0.160	-1.130
2020/01/31 01:33:27.0	92.350	0.170	-0.100	-1.180
2020/01/31 01:33:27.1	92.380	0.150	-0.050	-1.220
2020/01/31 01:33:27.2	92.400	0.140	0.010	-1.260
2020/01/31 01:33:27.3	92.430	0.120	0.060	-1.300
2020/01/31 01:33:27.4	92.450	0.100	0.110	-1.330
2020/01/31 01:33:27.5	92.480	0.080	0.160	-1.350
2020/01/31 01:33:27.6	92.510	0.070	0.210	-1.370
2020/01/31 01:33:27.7	92.530	0.050	0.260	-1.380
2020/01/31 01:33:27.8	92.550	0.030	0.300	-1.390
2020/01/31 01:33:27.9	92.570	0.010	0.340	-1.380
2020/01/31 01:33:28.0	92.590	-0.010	0.380	-1.370
2020/01/31 01:33:28.1	92.610	-0.030	0.410	-1.360
2020/01/31 01:33:28.2	92.620	-0.040	0.440	-1.340
2020/01/31 01:33:28.3	92.640	-0.060	0.460	-1.310
2020/01/31 01:33:28.4	92.650	-0.080	0.480	-1.280
2020/01/31 01:33:28.5	92.650	-0.090	0.490	-1.240
2020/01/31 01:33:28.6	92.660	-0.110	0.500	-1.190
2020/01/31 01:33:28.7	92.660	-0.120	0.500	-1.150
2020/01/31 01:33:28.8	92.660	-0.130	0.500	-1.090
2020/01/31 01:33:28.9	92.660	-0.150	0.500	-1.030
2020/01/31 01:33:29.0	92.640	-0.160	0.480	-0.970
2020/01/31 01:33:29.1	92.640	-0.170	0.460	-0.910
2020/01/31 01:33:29.2	92.630	-0.180	0.440	-0.840
2020/01/31 01:33:29.3	92.620	-0.180	0.420	-0.760
2020/01/31 01:33:29.4	92.600	-0.190	0.390	-0.690
2020/01/31 01:33:29.5	92.590	-0.190	0.360	-0.610
2020/01/31 01:33:29.6	92.570	-0.200	0.320	-0.530
2020/01/31 01:33:29.7	92.560	-0.200	0.280	-0.450
2020/01/31 01:33:29.8	92.540	-0.200	0.240	-0.360
2020/01/31 01:33:29.9	92.520	-0.200	0.190	-0.280
2020/01/31 01:33:30.0	92.490	-0.200	0.140	-0.190
2020/01/31 01:33:30.1	92.470	-0.200	0.090	-0.100
2020/01/31 01:33:30.2	92.450	-0.200	0.040	-0.010
2020/01/31 01:33:30.3	92.430	-0.200	-0.020	0.080
2020/01/31 01:33:30.4	92.410	-0.190	-0.070	0.170
2020/01/31 01:33:30.5	92.390	-0.190	-0.130	0.260
2020/01/31 01:33:30.6	92.370	-0.180	-0.190	0.350
2020/01/31 01:33:30.7	92.350	-0.180	-0.240	0.440
2020/01/31 01:33:30.8	92.320	-0.170	-0.300	0.540
2020/01/31 01:33:30.9	92.310	-0.160	-0.360	0.630
2020/01/31 01:33:31.0	92.290	-0.150	-0.420	0.720
2020/01/31 01:33:31.1	92.270	-0.140	-0.470	0.810
2020/01/31 01:33:31.2	92.250	-0.140	-0.520	0.900
2020/01/31 01:33:31.3	92.230	-0.130	-0.580	0.990
2020/01/31 01:33:31.4	92.220	-0.120	-0.620	1.080
2020/01/31 01:33:31.5	92.200	-0.110	-0.670	1.160
2020/01/31 01:33:31.6	92.190	-0.090	-0.710	1.250
2020/01/31 01:33:31.7	92.180	-0.080	-0.760	1.340
2020/01/31 01:33:31.8	92.160	-0.070	-0.790	1.420
2020/01/31 01:33:31.9	92.150	-0.060	-0.830	1.500
2020/01/31 01:33:32.0	92.150	-0.050	-0.850	1.590
2020/01/31 01:33:32.1	92.140	-0.040	-0.880	1.670
2020/01/31 01:33:32.2	92.130	-0.030	-0.900	1.750
2020/01/31 01:33:32.3	92.120	-0.010	-0.920	1.820
2020/01/31 01:33:32.4	92.120	-0.000	-0.940	1.900
2020/01/31 01:33:32.5	92.110	0.010	-0.950	1.970
2020/01/31 01:33:32.6	92.110	0.020	-0.950	2.040
2020/01/31 01:33:32.7	92.100	0.030	-0.950	2.100
2020/01/31 01:33:32.8	92.100	0.040	-0.940	2.160
2020/01/31 01:33:32.9	92.090	0.050	-0.930	2.220
2020/01/31 01:33:33.0	92.100	0.060	-0.920	2.280
2020/01/31 01:33:33.1	92.090	0.070	-0.900	2.330
2020/01/31 01:33:33.2	92.090	0.070	-0.870	2.380
2020/01/31 01:33:33.3	92.090	0.080	-0.840	2.430
2020/01/31 01:33:33.4	92.090	0.090	-0.810	2.470
2020/01/31 01:33:33.5	92.090	0.090	-0.770	2.500
2020/01/31 01:33:33.6	92.090	0.090	-0.720	2.540
2020/01/31 01:33:33.7	92.090	0.100	-0.670	2.560
2020/01/31 01:33:33.8	92.100	0.100	-0.610	2.580
2020/01/31 01:33:33.9	92.100	0.100	-0.550	2.600
2020/01/31 01:33:34.0	92.110	0.100	-0.490	2.620
2020/01/31 01:33:34.1	92.120	0.090	-0.420	2.620
2020/01/31 01:33:34.2	92.120	0.090	-0.350	2.630
2020/01/31 01:33:34.3	92.130	0.080	-0.280	2.620
2020/01/31 01:33:34.4	92.140	0.070	-0.210	2.610
2020/01/31 01:33:34.5	92.150	0.070	-0.130	2.600
2020/01/31 01:33:34.6	92.160	0.060	-0.060	2.580
2020/01/31 01:33:34.7	92.170	0.040	0.020	2.560
2020/01/31 01:33:34.8	92.170	0.030	0.100	2.530
2020/01/31 01:33:34.9	92.180	0.020	0.170	2.500
2020/01/31 01:33:35.0	92.200	0.000	0.250	2.460
2020/01/31 01:33:35.1	92.210	-0.010	0.320	2.420
2020/01/31 01:33:35.2	92.220	-0.030	0.390	2.370
2020/01/31 01:33:35.3	92.220	-0.050	0.460	2.320
2020/01/31 01:33:35.4	92.230	-0.060	0.530	2.270
2020/01/31 01:33:35.5	92.240	-0.080	0.590	2.210
2020/01/31 01:33:35.6	92.250	-0.100	0.650	2.140
2020/01/31 01:33:35.7	92.250	-0.120	0.700	2.070
2020/01/31 01:33:35.8	92.250	-0.140	0.750	2.000
2020/01/31 01:33:35.9	92.260	-0.150	0.790	1.930
2020/01/31 01:33:36.0	92.250	-0.170	0.840	1.850
2020/01/31 01:33:36.1	92.250	-0.190	0.870	1.770
2020/01/31 01:33:36.2	92.250	-0.200	0.900	1.690
2020/01/31 01:33:36.3	92.250	-0.220	0.920	1.610
2020/01/31 01:33:36.4	92.240	-0.230	0.930	1.520
2020/01/31 01:33:36.5	92.230	-0.250	0.940	1.440
2020/01/31 01:33:36.6	92.220	-0.260	0.940	1.350
2020/01/31 01:33:36.7	92.210	-0.270	0.930	1.260
2020/01/31 01:33:36.8	92.200	-0.270	0.920	1.180
2020/01/31 01:33:36.9	92.180	-0.280	0.900	1.090
2020/01/31 01:33:37.0	92.160	-0.280	0.870	1.000
2020/01/31 01:33:37.1	92.140	-0.280	0.840	0.920
2020/01/31 01:33:37.2	92.120	-0.280	0.800	0.840
2020/01/31 01:33:37.3	92.100	-0.280	0.750	0.760
2020/01/31 01:33:37.4	92.070	-0.270	0.700	0.680
2020/01/31 01:33:37.5	92.040	-0.260	0.640	0.600
2020/01/31 01:33:37.6	92.010	-0.250	0.580	0.520
2020/01/31 01:33:37.7	91.980	-0.240	0.510	0.440
2020/01/31 01:33:37.8	91.950	-0.230	0.440	0.370
2020/01/31 01:33:37.9	91.920	-0.210	0.360	0.300
2020/01/31 01:33:38.0	91.860	-0.190	0.280	0.220
2020/01/31 01:33:38.1	91.830	-0.170	0.200	0.150
2020/01/31 01:33:38.2	91.800	-0.150	0.110	0.080
2020/01/31 01:33:38.3	91.760	-0.130	0.020	0.010
2020/01/31 01:33:38.4	91.730	-0.100	-0.070	-0.060
2020/01/31 01:33:38.5	91.700	-0.080	-0.160	-0.120
2020/01/31 01:33:38.6	91.670	-0.050	-0.260	-0.190
2020/01/31 01:33:38.7	91.640	-0.030	-0.350	-0.250
2020/01/31 01:33:38.8	91.610	0.000	-0.440	-0.320
2020/01/31 01:33:38.9	91.590	0.030	-0.530	-0.380
2020/01/31 01:33:39.0	91.560	0.060	-0.630	-0.440
2020/01/31 01:33:39.1	91.540	0.080	-0.710	-0.500
2020/01/31 01:33:39.2	91.520	0.110	-0.800	-0.560
2020/01/31 01:33:39.3	91.500	0.140	-0.880	-0.610
2020/01/31 01:33:39.4	91.480	0.160	-0.960	-0.660
2020/01/31 01:33:39.5	91.470	0.190	-1.030	-0.710
2020/01/31 01:33:39.6	91.450	0.210	-1.090	-0.760
2020/01/31 01:33:39.7	91.440	0.230	-1.150	-0.800
2020/01/31 01:33:39.8	91.430	0.250	-1.200	-0.840
2020/01/31 01:33:39.9	91.420	0.270	-1.250	-0.880
2020/01/31 01:33:40.0	91.380	0.280	-1.290	-0.910
2020/01/31 01:33:40.1	91.370	0.300	-1.310	-0.940
2020/01/31 01:33:40.2	91.370	0.310	-1.330	-0.970
2020/01/31 01:33:40.3	91.360	0.310	-1.340	-0.990
2020/01/31 01:33:40.4	91.350	0.320	-1.340	-1.010
2020/01/31 01:33:40.5	91.340	0.320	-1.330	-1.020
2020/01/31 01:33:40.6	91.340	0.320	-1.320	-1.040
2020/01/31 01:33:40.7	91.330	0.320	-1.290	-1.040
2020/01/31 01:33:40.8	91.320	0.310	-1.250	-1.050
2020/01/31 01:33:40.9	91.310	0.300	-1.210	-1.050
2020/01/31 01:33:41.0	91.310	0.290	-1.160	-1.040
2020/01/31 01:33:41.1	91.300	0.280	-1.100	-1.030
2020/01/31 01:33:41.2	91.290	0.260	-1.030	-1.020
2020/01/31 01:33:41.3	91.280	0.240	-0.960	-1.000
2020/01/31 01:33:41.4	91.270	0.220	-0.880	-0.990
2020/01/31 01:33:41.5	91.260	0.200	-0.800	-0.970
2020/01/31 01:33:41.6	91.260	0.170	-0.710	-0.940
2020/01/31 01:33:41.7	91.250	0.150	-0.620	-0.920
2020/01/31 01:33:41.8	91.240	0.120	-0.530	-0.890
2020/01/31 01:33:41.9	91.230	0.100	-0.440	-0.860
2020/01/31 01:33:42.0	91.220	0.070	-0.350	-0.830
2020/01/31 01:33:42.1	91.210	0.040	-0.260	-0.790
2020/01/31 01:33:42.2	91.210	0.020	-0.170	-0.760
2020/01/31 01:33:42.3	91.200	-0.010	-0.080	-0.720
2020/01/31 01:33:42.4	91.200	-0.040	-0.000	-0.680
2020/01/31 01:33:42.5	91.190	-0.060	0.080	-0.640
2020/01/31 01:33:42.6	91.190	-0.080	0.150	-0.600
2020/01/31 01:33:42.7	91.180	-0.100	0.220	-0.560
2020/01/31 01:33:42.8	91.180	-0.120	0.290	-0.520
2020/01/31 01:33:42.9	91.170	-0.140	0.350	-0.470
2020/01/31 01:33:43.0	91.150	-0.150	0.400	-0.420
2020/01/31 01:33:43.1	91.150	-0.170	0.450	-0.360
2020/01/31 01:33:43.2	91.140	-0.170	0.490	-0.310
2020/01/31 01:33:43.3	91.140	-0.180	0.520	-0.250
2020/01/31 01:33:43.4	91.130	-0.190	0.540	-0.190
2020/01/31 01:33:43.5	91.120	-0.190	0.560	-0.130
2020/01/31 01:33:43.6	91.110	-0.190	0.570	-0.070
2020/01/31 01:33:43.7	91.100	-0.180	0.570	0.000
2020/01/31 01:33:43.8	91.090	-0.170	0.570	0.070
2020/01/31 01:33:43.9	91.080	-0.170	0.560	0.150
2020/01/31 01:33:44.0	91.070	-0.150	0.540	0.230
2020/01/31 01:33:44.1	91.060	-0.140	0.520	0.310
2020/01/31 01:33:44.2	91.040	-0.130	0.490	0.390
2020/01/31 01:33:44.3	91.030	-0.110	0.460	0.470
2020/01/31 01:33:44.4	91.010	-0.090	0.430	0.560
2020/01/31 01:33:44.5	91.000	-0.070	0.390	0.640
2020/01/31 01:33:44.6	90.980	-0.050	0.350	0.730
2020/01/31 01:33:44.7	90.970	-0.030	0.310	0.820
2020/01/31 01:33:44.8	90.950	-0.000	0.270	0.910
2020/01/31 01:33:44.9	90.930	0.020	0.230	1.000
2020/01/31 01:33:45.0	90.910	0.040	0.180	1.090
2020/01/31 01:33:45.1	90.890	0.060	0.140	1.170
2020/01/31 01:33:45.2	90.880	0.080	0.090	1.260
2020/01/31 01:33:45.3	90.860	0.100	0.050	1.350
2020/01/31 01:33:45.4	90.840	0.120	0.000	1.430
2020/01/31 01:33:45.5	90.830	0.140	-0.040	1.510
2020/01/31 01:33:45.6	90.810	0.150	-0.080	1.590
2020/01/31 01:33:45.7	90.790	0.170	-0.120	1.670
2020/01/31 01:33:45.8	90.780	0.180	-0.160	1.740
2020/01/31 01:33:45.9	90.760	0.190	-0.190	1.810
2020/01/31 01:33:46.0	90.750	0.200	-0.230	1.880
2020/01/31 01:33:46.1	90.730	0.210	-0.260	1.950
2020/01/31 01:33:46.2	90.720	0.210	-0.280	2.010
2020/01/31 01:33:46.3	90.700	0.210	-0.310	2.070
2020/01/31 01:33:46.4	90.680	0.210	-0.330	2.130
2020/01/31 01:33:46.5	90.670	0.200	-0.340	2.190
2020/01/31 01:33:46.6	90.650	0.200	-0.350	2.240
2020/01/31 01:33:46.7	90.630	0.190	-0.360	2.290
2020/01/31 01:33:46.8	90.620	0.180	-0.370	2.340
2020/01/31 01:33:46.9	90.600	0.170	-0.370	2.380
2020/01/31 01:33:47.0	90.590	0.150	-0.360	2.420
2020/01/31 01:33:47.1	90.570	0.130	-0.350	2.460
2020/01/31 01:33:47.2	90.550	0.110	-0.340	2.490
2020/01/31 01:33:47.3	90.530	0.090	-0.330	2.520
2020/01/31 01:33:47.4	90.510	0.070	-0.310	2.540
2020/01/31 01:33:47.5	90.490	0.050	-0.290	2.570
2020/01/31 01:33:47.6	90.470	0.020	-0.270	2.580
2020/01/31 01:33:47.7	90.450	-0.000	-0.240	2.600
2020/01/31 01:33:47.8	90.430	-0.030	-0.210	2.610
2020/01/31 01:33:47.9	90.410	-0.050	-0.190	2.610
2020/01/31 01:33:48.0	90.380	-0.080	-0.150	2.620
2020/01/31 01:33:48.1	90.360	-0.100	-0.120	2.610
2020/01/31 01:33:48.2	90.340	-0.130	-0.100	2.610
2020/01/31 01:33:48.3	90.310	-0.150	-0.070	2.590
2020/01/31 01:33:48.4	90.290	-0.170	-0.040	2.570
2020/01/31 01:33:48.5	90.270	-0.200	-0.010	2.550
2020/01/31 01:33:48.6	90.250	-0.220	0.020	2.530
2020/01/31 01:33:48.7	90.230	-0.240	0.040	2.490
2020/01/31 01:33:48.8	90.210	-0.250	0.070	2.460
2020/01/31 01:33:48.9	90.190	-0.270	0.090	2.420
2020/01/31 01:33:49.0	90.170	-0.280	0.110	2.370
2020/01/31 01:33:49.1	90.150	-0.290	0.120	2.310
2020/01/31 01:33:49.2	90.130	-0.300	0.140	2.260
2020/01/31 01:33:49.3	90.120	-0.310	0.150	2.200
2020/01/31 01:33:49.4	90.100	-0.320	0.160	2.130
2020/01/31 01:33:49.5	90.090	-0.320	0.160	2.070
2020/01/31 01:33:49.6	90.080	-0.320	0.160	1.990
2020/01/31 01:33:49.7	90.060	-0.320	0.160	1.920
2020/01/31 01:33:49.8	90.050	-0.320	0.160	1.840
2020/01/31 01:33:49.9	90.040	-0.310	0.150	1.760
2020/01/31 01:33:50.0	90.040	-0.310	0.140	1.680
2020/01/31 01:33:50.1	90.030	-0.300	0.130	1.590
2020/01/31 01:33:50.2	90.020	-0.290	0.120	1.500
2020/01/31 01:33:50.3	90.010	-0.270	0.100	1.420
2020/01/31 01:33:50.4	90.000	-0.260	0.080	1.330
2020/01/31 01:33:50.5	89.990	-0.240	0.060	1.240
2020/01/31 01:33:50.6	89.980	-0.230	0.030	1.150
2020/01/31 01:33:50.7	89.970	-0.210	0.010	1.060
2020/01/31 01:33:50.8	89.960	-0.190	-0.020	0.970
2020/01/31 01:33:50.9	89.940	-0.170	-0.050	0.880
2020/01/31 01:33:51.0	89.930	-0.150	-0.080	0.800
2020/01/31 01:33:51.1	89.910	-0.130	-0.110	0.710
2020/01/31 01:33:51.2	89.900	-0.110	-0.140	0.620
2020/01/31 01:33:51.3	89.880	-0.090	-0.170	0.540
2020/01/31 01:33:51.4	89.870	-0.070	-0.200	0.460
2020/01/31 01:33:51.5	89.850	-0.050	-0.230	0.380
2020/01/31 01:33:51.6	89.830	-0.030	-0.260	0.300
2020/01/31 01:33:51.7	89.810	-0.010	-0.290	0.220
2020/01/31 01:33:51.8	89.800	0.010	-0.320	0.150
2020/01/31 01:33:51.9	89.780	0.030	-0.340	0.080
2020/01/31 01:33:52.0	89.740	0.050	-0.370	0.000
2020/01/31 01:33:52.1	89.730	0.070	-0.390	-0.070
2020/01/31 01:33:52.2	89.710	0.090	-0.420	-0.140
2020/01/31 01:33:52.3	89.690	0.110	-0.440	-0.210
2020/01/31 01:33:52.4	89.670	0.120	-0.460	-0.270
2020/01/31 01:33:52.5	89.660	0.140	-0.490	-0.340
2020/01/31 01:33:52.6	89.640	0.150	-0.500	-0.410
2020/01/31 01:33:52.7	89.630	0.160	-0.520	-0.470
2020/01/31 01:33:52.8	89.610	0.180	-0.540	-0.530
2020/01/31 01:33:52.9	89.600	0.190	-0.550	-0.590
2020/01/31 01:33:53.0	89.570	0.190	-0.560	-0.660
2020/01/31 01:33:53.1	89.560	0.200	-0.570	-0.710
2020/01/31 01:33:53.2	89.550	0.210	-0.580	-0.770
2020/01/31 01:33:53.3	89.540	0.220	-0.590	-0.830
2020/01/31 01:33:53.4	89.540	0.220	-0.590	-0.880
2020/01/31 01:33:53.5	89.530	0.220	-0.590	-0.930
2020/01/31 01:33:53.6	89.520	0.230	-0.590	-0.980
2020/01/31 01:33:53.7	89.520	0.230	-0.590	-1.020
2020/01/31 01:33:53.8	89.510	0.230	-0.580	-1.060
2020/01/31 01:33:53.9	89.510	0.230	-0.570	-1.100
2020/01/31 01:33:54.0	89.500	0.230	-0.560	-1.130
2020/01/31 01:33:54.1	89.500	0.230	-0.550	-1.160
2020/01/31 01:33:54.2	89.500	0.220	-0.530	-1.190
2020/01/31 01:33:54.3	89.490	0.220	-0.510	-1.210
2020/01/31 01:33:54.4	89.490	0.220	-0.500	-1.230
2020/01/31 01:33:54.5	89.490	0.220	-0.470	-1.240
2020/01/31 01:33:54.6	89.490	0.210	-0.450	-1.250
2020/01/31 01:33:54.7	89.490	0.210	-0.430	-1.250
2020/01/31 01:33:54.8	89.480	0.210	-0.400	-1.250
2020/01/31 01:33:54.9	89.480	0.200	-0.380	-1.240
2020/01/31 01:33:55.0	89.470	0.200	-0.350	-1.230
2020/01/31 01:33:55.1	89.470	0.200	-0.320	-1.210
2020/01/31 01:33:55.2	89.470	0.190	-0.290	-1.190
2020/01/31 01:33:55.3	89.470	0.190	-0.260	-1.160
2020/01/31 01:33:55.4	89.460	0.180	-0.230	-1.120
2020/01/31 01:33:55.5	89.460	0.180	-0.200	-1.090
2020/01/31 01:33:55.6	89.460	0.180	-0.170	-1.040
2020/01/31 01:33:55.7	89.460	0.170	-0.140	-1.000
2020/01/31 01:33:55.8	89.450	0.170	-0.110	-0.940
2020/01/31 01:33:55.9	89.450	0.170	-0.080	-0.890
2020/01/31 01:33:56.0	89.440	0.160	-0.050	-0.830
2020/01/31 01:33:56.1	89.440	0.160	-0.020	-0.760
2020/01/31 01:33:56.2	89.440	0.150	0.010	-0.700
2020/01/31 01:33:56.3	89.430	0.150	0.040	-0.630
2020/01/31 01:33:56.4	89.430	0.140	0.070	-0.560
2020/01/31 01:33:56.5	89.430	0.130	0.100	-0.480
2020/01/31 01:33:56.6	89.430	0.130	0.130	-0.410
2020/01/31 01:33:56.7	89.430	0.120	0.150	-0.330
2020/01/31 01:33:56.8	89.430	0.110	0.180	-0.250
2020/01/31 01:33:56.9	89.430	0.100	0.200	-0.170
2020/01/31 01:33:57.0	89.420	0.090	0.220	-0.090
2020/01/31 01:33:57.1	89.420	0.080	0.240	-0.010
2020/01/31 01:33:57.2	89.420	0.070	0.260	0.070
2020/01/31 01:33:57.3	89.430	0.060	0.280	0.160
2020/01/31 01:33:57.4	89.430	0.050	0.290	0.240
2020/01/31 01:33:57.5	89.440	0.030	0.310	0.320
2020/01/31 01:33:57.6	89.440	0.020	0.320	0.400
2020/01/31 01:33:57.7	89.440	0.010	0.330	0.480
2020/01/31 01:33:57.8	89.450	-0.000	0.340	0.550
2020/01/31 01:33:57.9	89.450	-0.020	0.350	0.630
2020/01/31 01:33:58.0	89.460	-0.030	0.350	0.710
2020/01/31 01:33:58.1	89.460	-0.050	0.360	0.790
2020/01/31 01:33:58.2	89.470	-0.060	0.360	0.860
2020/01/31 01:33:58.3	89.470	-0.070	0.360	0.930
2020/01/31 01:33:58.4	89.470	-0.090	0.350	1.000
2020/01/31 01:33:58.5	89.480	-0.100	0.350	1.060
2020/01/31 01:33:58.6	89.480	-0.110	0.340	1.130
2020/01/31 01:33:58.7	89.480	-0.130	0.330	1.190
2020/01/31 01:33:58.8	89.480	-0.140	0.320	1.250
2020/01/31 01:33:58.9	89.480	-0.150	0.310	1.310
2020/01/31 01:33:59.0	89.490	-0.160	0.290	1.370
2020/01/31 01:33:59.1	89.490	-0.170	0.270	1.430
2020/01/31 01:33:59.2	89.490	-0.180	0.250	1.480
2020/01/31 01:33:59.3	89.480	-0.190	0.230	1.530
2020/01/31 01:33:59.4	89.480	-0.200	0.210	1.580
2020/01/31 01:33:59.5	89.480	-0.200	0.180	1.630
2020/01/31 01:33:59.6	89.480	-0.210	0.150	1.670
2020/01/31 01:33:59.7	89.470	-0.210	0.120	1.710
2020/01/31 01:33:59.8	89.470	-0.210	0.090	1.750
2020/01/31 01:33:59.9	89.470	-0.210	0.060	1.790
2020/01/31 01:34:00.0	89.470	-0.210	0.020	1.830
2020/01/31 01:34:00.1	89.460	-0.210	-0.010	1.860
2020/01/31 01:34:00.2	89.460	-0.200	-0.050	1.900
2020/01/31 01:34:00.3	89.450	-0.200	-0.090	1.930
2020/01/31 01:34:00.4	89.450	-0.190	-0.130	1.950
2020/01/31 01:34:00.5	89.440	-0.180	-0.170	1.980
2020/01/31 01:34:00.6	89.440	-0.170	-0.210	2.000
2020/01/31 01:34:00.7	89.430	-0.160	-0.250	2.020
2020/01/31 01:34:00.8	89.420	-0.140	-0.290	2.040
2020/01/31 01:34:00.9	89.420	-0.130	-0.330	2.060
2020/01/31 01:34:01.0	89.420	-0.110	-0.370	2.070
2020/01/31 01:34:01.1	89.410	-0.100	-0.410	2.080
2020/01/31 01:34:01.2	89.410	-0.080	-0.450	2.090
2020/01/31 01:34:01.3	89.400	-0.060	-0.490	2.100
2020/01/31 01:34:01.4	89.400	-0.040	-0.520	2.110
2020/01/31 01:34:01.5	89.400	-0.020	-0.560	2.110
2020/01/31 01:34:01.6	89.390	-0.000	-0.590	2.110
2020/01/31 01:34:01.7	89.390	0.020	-0.620	2.110
2020/01/31 01:34:01.8	89.390	0.040	-0.640	2.100
2020/01/31 01:34:01.9	89.390	0.050	-0.670	2.090
2020/01/31 01:34:02.0	89.410	0.070	-0.690	2.080
2020/01/31 01:34:02.1	89.410	0.090	-0.710	2.070
2020/01/31 01:34:02.2	89.420	0.110	-0.720	2.050
2020/01/31 01:34:02.3	89.420	0.130	-0.730	2.030
2020/01/31 01:34:02.4	89.420	0.140	-0.740	2.010
2020/01/31 01:34:02.5	89.420	0.150	-0.740	1.990
2020/01/31 01:34:02.6	89.430	0.170	-0.740	1.960
2020/01/31 01:34:02.7	89.430	0.180	-0.740	1.940
2020/01/31 01:34:02.8	89.430	0.180	-0.730	1.910
2020/01/31 01:34:02.9	89.440	0.190	-0.720	1.880
2020/01/31 01:34:03.0	89.450	0.200	-0.710	1.840
2020/01/31 01:34:03.1	89.460	0.200	-0.690	1.810
2020/01/31 01:34:03.2	89.460	0.200	-0.660	1.770
2020/01/31 01:34:03.3	89.470	0.200	-0.630	1.730
2020/01/31 01:34:03.4	89.470	0.190	-0.600	1.690
2020/01/31 01:34:03.5	89.480	0.180	-0.570	1.650
2020/01/31 01:34:03.6	89.480	0.170	-0.530	1.600
2020/01/31 01:34:03.7	89.480	0.160	-0.490	1.560
2020/01/31 01:34:03.8	89.490	0.150	-0.450	1.510
2020/01/31 01:34:03.9	89.490	0.130	-0.400	1.460
2020/01/31 01:34:04.0	89.480	0.110	-0.350	1.410
2020/01/31 01:34:04.1	89.480	0.090	-0.290	1.360
2020/01/31 01:34:04.2	89.480	0.060	-0.240	1.310
2020/01/31 01:34:04.3	89.480	0.040	-0.180	1.260
2020/01/31 01:34:04.4	89.480	0.010	-0.120	1.200
2020/01/31 01:34:04.5	89.470	-0.020	-0.060	1.150
2020/01/31 01:34:04.6	89.470	-0.050	-0.000	1.090
2020/01/31 01:34:04.7	89.460	-0.080	0.060	1.030
2020/01/31 01:34:04.8	89.460	-0.120	0.120	0.970
2020/01/31 01:34:04.9	89.450	-0.150	0.180	0.910
2020/01/31 01:34:05.0	89.440	-0.190	0.240	0.850
2020/01/31 01:34:05.1	89.420	-0.220	0.290	0.790
2020/01/31 01:34:05.2	89.410	-0.260	0.350	0.730
2020/01/31 01:34:05.3	89.400	-0.290	0.400	0.670
2020/01/31 01:34:05.4	89.380	-0.330	0.460	0.610
2020/01/31 01:34:05.5	89.360	-0.360	0.500	0.550
2020/01/31 01:34:05.6	89.340	-0.390	0.550	0.480
2020/01/31 01:34:05.7	89.320	-0.420	0.580	0.420
2020/01/31 01:34:05.8	89.300	-0.450	0.620	0.360
2020/01/31 01:34:05.9	89.280	-0.480	0.650	0.300
2020/01/31 01:34:06.0	89.260	-0.500	0.670	0.240
2020/01/31 01:34:06.1	89.240	-0.520	0.690	0.180
2020/01/31 01:34:06.2	89.220	-0.540	0.700	0.120
2020/01/31 01:34:06.3	89.190	-0.550	0.710	0.060
2020/01/31 01:34:06.4	89.170	-0.560	0.700	-0.000
2020/01/31 01:34:06.5	89.150	-0.570	0.700	-0.060
2020/01/31 01:34:06.6	89.130	-0.570	0.680	-0.120
2020/01/31 01:34:06.7	89.110	-0.570	0.650	-0.180
2020/01/31 01:34:06.8	89.090	-0.560	0.620	-0.240
2020/01/31 01:34:06.9	89.070	-0.550	0.580	-0.300
2020/01/31 01:34:07.0	89.050	-0.540	0.540	-0.360
2020/01/31 01:34:07.1	89.040	-0.520	0.490	-0.420
2020/01/31 01:34:07.2	89.030	-0.500	0.430	-0.470
2020/01/31 01:34:07.3	89.020	-0.470	0.370	-0.530
2020/01/31 01:34:07.4	89.010	-0.440	0.300	-0.580
2020/01/31 01:34:07.5	89.000	-0.400	0.230	-0.630
2020/01/31 01:34:07.6	88.990	-0.370	0.160	-0.680
2020/01/31 01:34:07.7	88.990	-0.330	0.080	-0.730
2020/01/31 01:34:07.8	88.980	-0.280	0.000	-0.770
2020/01/31 01:34:07.9	88.980	-0.240	-0.080	-0.810
2020/01/31 01:34:08.0	88.980	-0.190	-0.160	-0.850
2020/01/31 01:34:08.1	88.970	-0.140	-0.240	-0.890
2020/01/31 01:34:08.2	88.970	-0.090	-0.320	-0.920
2020/01/31 01:34:08.3	88.970	-0.040	-0.400	-0.950
2020/01/31 01:34:08.4	88.970	0.010	-0.480	-0.980
2020/01/31 01:34:08.5	88.970	0.060	-0.550	-1.000
2020/01/31 01:34:08.6	88.970	0.120	-0.620	-1.020
2020/01/31 01:34:08.7	88.970	0.170	-0.680	-1.040
2020/01/31 01:34:08.8	88.970	0.220	-0.740	-1.060
2020/01/31 01:34:08.9	88.960	0.260	-0.800	-1.070
2020/01/31 01:34:09.0	88.960	0.310	-0.850	-1.070
2020/01/31 01:34:09.1	88.960	0.360	-0.890	-1.080
2020/01/31 01:34:09.2	88.950	0.400	-0.930	-1.080
2020/01/31 01:34:09.3	88.940	0.440	-0.970	-1.080
2020/01/31 01:34:09.4	88.930	0.470	-0.990	-1.070
2020/01/31 01:34:09.5	88.930	0.510	-1.010	-1.070
2020/01/31 01:34:09.6	88.920	0.540	-1.030	-1.060
2020/01/31 01:34:09.7	88.900	0.570	-1.040	-1.040
2020/01/31 01:34:09.8	88.890	0.590	-1.040	-1.030
2020/01/31 01:34:09.9	88.880	0.610	-1.040	-1.010
2020/01/31 01:34:10.0	88.840	0.630	-1.030	-0.980
2020/01/31 01:34:10.1	88.830	0.640	-1.020	-0.960
2020/01/31 01:34:10.2	88.810	0.650	-1.000	-0.930
2020/01/31 01:34:10.3	88.790	0.660	-0.970	-0.910
2020/01/31 01:34:10.4	88.780	0.660	-0.940	-0.880
2020/01/31 01:34:10.5	88.760	0.660	-0.910	-0.840
2020/01/31 01:34:10.6	88.740	0.660	-0.880	-0.810
2020/01/31 01:34:10.7	88.720	0.650	-0.840	-0.770
2020/01/31 01:34:10.8	88.700	0.650	-0.790	-0.730
2020/01/31 01:34:10.9	88.680	0.630	-0.750	-0.690
2020/01/31 01:34:11.0	88.650	0.620	-0.690	-0.650
2020/01/31 01:34:11.1	88.630	0.600	-0.640	-0.600
2020/01/31 01:34:11.2	88.620	0.580	-0.590	-0.560
2020/01/31 01:34:11.3	88.600	0.560	-0.530	-0.510
2020/01/31 01:34:11.4	88.580	0.540	-0.480	-0.460
2020/01/31 01:34:11.5	88.560	0.510	-0.420	-0.410
2020/01/31 01:34:11.6	88.550	0.490	-0.360	-0.350
2020/01/31 01:34:11.7	88.530	0.460	-0.300	-0.300
2020/01/31 01:34:11.8	88.510	0.430	-0.240	-0.240
2020/01/31 01:34:11.9	88.490	0.400	-0.180	-0.180
2020/01/31 01:34:12.0	88.490	0.360	-0.120	-0.120
2020/01/31 01:34:12.1	88.470	0.330	-0.060	-0.060
2020/01/31 01:34:12.2	88.460	0.300	0.000	0.000
2020/01/31 01:34:12.3	88.440	0.260	0.060	0.070
2020/01/31 01:34:12.4	88.430	0.230	0.110	0.130
2020/01/31 01:34:12.5	88.420	0.190	0.170	0.190
2020/01/31 01:34:12.6	88.410	0.160	0.220	0.250
2020/01/31 01:34:12.7	88.410	0.130	0.270	0.320
2020/01/31 01:34:12.8	88.400	0.090	0.320	0.380
2020/01/31 01:34:12.9	88.400	0.060	0.360	0.440
2020/01/31 01:34:13.0	88.390	0.030	0.400	0.500
2020/01/31 01:34:13.1	88.390	-0.000	0.440	0.570
2020/01/31 01:34:13.2	88.390	-0.030	0.470	0.630
2020/01/31 01:34:13.3	88.390	-0.060	0.500	0.690
2020/01/31 01:34:13.4	88.390	-0.080	0.530	0.750
2020/01/31 01:34:13.5	88.390	-0.110	0.550	0.810
2020/01/31 01:34:13.6	88.400	-0.130	0.570	0.870
2020/01/31 01:34:13.7	88.400	-0.150	0.590	0.930
2020/01/31 01:34:13.8	88.410	-0.170	0.600	0.980
2020/01/31 01:34:13.9	88.410	-0.190	0.610	1.040
2020/01/31 01:34:14.0	88.430	-0.200	0.610	1.100
2020/01/31 01:34:14.1	88.430	-0.220	0.610	1.160
2020/01/31 01:34:14.2	88.440	-0.230	0.610	1.220
2020/01/31 01:34:14.3	88.450	-0.240	0.600	1.270
2020/01/31 01:34:14.4	88.460	-0.250	0.590	1.330
2020/01/31 01:34:14.5	88.470	-0.260	0.580	1.390
2020/01/31 01:34:14.6	88.480	-0.260	0.560	1.440
2020/01/31 01:34:14.7	88.490	-0.270	0.540	1.490
2020/01/31 01:34:14.8	88.490	-0.270	0.510	1.550
2020/01/31 01:34:14.9	88.500	-0.270	0.490	1.600
2020/01/31 01:34:15.0	88.520	-0.280	0.460	1.650
2020/01/31 01:34:15.1	88.530	-0.280	0.430	1.700
2020/01/31 01:34:15.2	88.540	-0.280	0.400	1.750
2020/01/31 01:34:15.3	88.550	-0.280	0.360	1.790
2020/01/31 01:34:15.4	88.560	-0.280	0.330	1.840
2020/01/31 01:34:15.5	88.560	-0.290	0.290	1.880
2020/01/31 01:34:15.6	88.570	-0.290	0.260	1.920
2020/01/31 01:34:15.7	88.580	-0.290	0.220	1.950
2020/01/31 01:34:15.8	88.580	-0.290	0.180	1.980
2020/01/31 01:34:15.9	88.580	-0.290	0.140	2.010
2020/01/31 01:34:16.0	88.590	-0.290	0.100	2.040
2020/01/31 01:34:16.1	88.600	-0.290	0.060	2.070
2020/01/31 01:34:16.2	88.600	-0.290	0.020	2.090
2020/01/31 01:34:16.3	88.600	-0.290	-0.020	2.110
2020/01/31 01:34:16.4	88.590	-0.290	-0.060	2.120
2020/01/31 01:34:16.5	88.590	-0.290	-0.100	2.140
2020/01/31 01:34:16.6	88.580	-0.290	-0.130	2.150
2020/01/31 01:34:16.7	88.580	-0.290	-0.170	2.160
2020/01/31 01:34:16.8	88.570	-0.290	-0.210	2.160
2020/01/31 01:34:16.9	88.550	-0.290	-0.250	2.170
2020/01/31 01:34:17.0	88.550	-0.290	-0.280	2.180
2020/01/31 01:34:17.1	88.540	-0.280	-0.310	2.180
2020/01/31 01:34:17.2	88.520	-0.280	-0.350	2.180
2020/01/31 01:34:17.3	88.500	-0.280	-0.380	2.180
2020/01/31 01:34:17.4	88.480	-0.270	-0.410	2.190
2020/01/31 01:34:17.5	88.450	-0.270	-0.430	2.180
2020/01/31 01:34:17.6	88.430	-0.260	-0.460	2.180
2020/01/31 01:34:17.7	88.400	-0.250	-0.480	2.180
2020/01/31 01:34:17.8	88.370	-0.250	-0.500	2.180
2020/01/31 01:34:17.9	88.340	-0.240	-0.520	2.170
2020/01/31 01:34:18.0	88.320	-0.230	-0.530	2.160
2020/01/31 01:34:18.1	88.290	-0.220	-0.550	2.150
2020/01/31 01:34:18.2	88.260	-0.210	-0.560	2.130
2020/01/31 01:34:18.3	88.230	-0.200	-0.570	2.120
2020/01/31 01:34:18.4	88.200	-0.190	-0.570	2.100
2020/01/31 01:34:18.5	88.170	-0.180	-0.580	2.080
2020/01/31 01:34:18.6	88.140	-0.170	-0.580	2.060
2020/01/31 01:34:18.7	88.110	-0.160	-0.580	2.030
2020/01/31 01:34:18.8	88.080	-0.150	-0.570	2.000
2020/01/31 01:34:18.9	88.060	-0.140	-0.570	1.970
2020/01/31 01:34:19.0	88.060	-0.130	-0.560	1.930
2020/01/31 01:34:19.1	88.030	-0.120	-0.550	1.900
2020/01/31 01:34:19.2	88.020	-0.110	-0.540	1.850
2020/01/31 01:34:19.3	88.000	-0.100	-0.530	1.810
2020/01/31 01:34:19.4	87.990	-0.090	-0.520	1.760
2020/01/31 01:34:19.5	87.980	-0.080	-0.510	1.710
2020/01/31 01:34:19.6	87.970	-0.070	-0.500	1.660
2020/01/31 01:34:19.7	87.970	-0.060	-0.490	1.600
2020/01/31 01:34:19.8	87.970	-0.050	-0.470	1.540
2020/01/31 01:34:19.9	87.970	-0.040	-0.460	1.470
2020/01/31 01:34:20.0	87.970	-0.030	-0.450	1.400
2020/01/31 01:34:20.1	87.980	-0.020	-0.440	1.330
2020/01/31 01:34:20.2	88.000	-0.010	-0.430	1.250
2020/01/31 01:34:20.3	88.010	0.010	-0.420	1.170
2020/01/31 01:34:20.4	88.030	0.020	-0.410	1.090
2020/01/31 01:34:20.5	88.050	0.030	-0.400	1.000
2020/01/31 01:34:20.6	88.080	0.040	-0.400	0.910
2020/01/31 01:34:20.7	88.100	0.060	-0.390	0.820
2020/01/31 01:34:20.8	88.130	0.070	-0.380	0.720
2020/01/31 01:34:20.9	88.160	0.080	-0.380	0.630
2020/01/31 01:34:21.0	88.180	0.100	-0.370	0.520
2020/01/31 01:34:21.1	88.210	0.110	-0.370	0.430
2020/01/31 01:34:21.2	88.240	0.130	-0.360	0.330
2020/01/31 01:34:21.3	88.270	0.150	-0.360	0.230
2020/01/31 01:34:21.4	88.300	0.160	-0.350	0.130
2020/01/31 01:34:21.5	88.330	0.180	-0.340	0.030
2020/01/31 01:34:21.6	88.360	0.200	-0.330	-0.060
2020/01/31 01:34:21.7	88.390	0.220	-0.320	-0.150
2020/01/31 01:34:21.8	88.420	0.240	-0.310	-0.240
2020/01/31 01:34:21.9	88.440	0.250	-0.300	-0.330
2020/01/31 01:34:22.0	88.460	0.270	-0.290	-0.410
2020/01/31 01:34:22.1	88.480	0.290	-0.270	-0.490
2020/01/31 01:34:22.2	88.500	0.310	-0.250	-0.560
2020/01/31 01:34:22.3	88.520	0.330	-0.230	-0.630
2020/01/31 01:34:22.4	88.540	0.340	-0.210	-0.690
2020/01/31 01:34:22.5	88.550	0.360	-0.180	-0.750
2020/01/31 01:34:22.6	88.560	0.370	-0.150	-0.800
2020/01/31 01:34:22.7	88.570	0.380	-0.130	-0.850
2020/01/31 01:34:22.8	88.580	0.390	-0.090	-0.890
2020/01/31 01:34:22.9	88.590	0.400	-0.060	-0.930
2020/01/31 01:34:23.0	88.580	0.410	-0.030	-0.960
2020/01/31 01:34:23.1	88.580	0.420	0.010	-0.990
2020/01/31 01:34:23.2	88.580	0.420	0.040	-1.010
2020/01/31 01:34:23.3	88.570	0.420	0.080	-1.030
2020/01/31 01:34:23.4	88.570	0.420	0.120	-1.040
2020/01/31 01:34:23.5	88.560	0.420	0.150	-1.050
2020/01/31 01:34:23.6	88.550	0.410	0.190	-1.050
2020/01/31 01:34:23.7	88.530	0.410	0.230	-1.050
2020/01/31 01:34:23.8	88.520	0.400	0.260	-1.040
2020/01/31 01:34:23.9	88.500	0.390	0.290	-1.020
2020/01/31 01:34:24.0	88.460	0.370	0.320	-1.000
2020/01/31 01:34:24.1	88.440	0.360	0.350	-0.980
2020/01/31 01:34:24.2	88.420	0.340	0.370	-0.950
2020/01/31 01:34:24.3	88.390	0.320	0.400	-0.920
2020/01/31 01:34:24.4	88.360	0.300	0.420	-0.890
2020/01/31 01:34:24.5	88.330	0.270	0.430	-0.850
2020/01/31 01:34:24.6	88.300	0.250	0.440	-0.810
2020/01/31 01:34:24.7	88.270	0.230	0.450	-0.760
2020/01/31 01:34:24.8	88.230	0.200	0.450	-0.710
2020/01/31 01:34:24.9	88.200	0.170	0.450	-0.670
2020/01/31 01:34:25.0	88.160	0.150	0.450	-0.610
2020/01/31 01:34:25.1	88.130	0.120	0.440	-0.560
2020/01/31 01:34:25.2	88.100	0.090	0.420	-0.500
2020/01/31 01:34:25.3	88.070	0.060	0.400	-0.450
2020/01/31 01:34:25.4	88.040	0.040	0.370	-0.390
2020/01/31 01:34:25.5	88.010	0.010	0.340	-0.340
2020/01/31 01:34:25.6	87.990	-0.020	0.300	-0.290
2020/01/31 01:34:25.7	87.970	-0.040	0.270	-0.230
2020/01/31 01:34:25.8	87.950	-0.060	0.220	-0.180
2020/01/31 01:34:25.9	87.940	-0.090	0.170	-0.130
2020/01/31 01:34:26.0	87.940	-0.110	0.120	-0.070
2020/01/31 01:34:26.1	87.930	-0.130	0.070	-0.020
2020/01/31 01:34:26.2	87.930	-0.140	0.020	0.020
2020/01/31 01:34:26.3	87.930	-0.160	-0.040	0.070
2020/01/31 01:34:26.4	87.930	-0.170	-0.100	0.120
2020/01/31 01:34:26.5	87.940	-0.190	-0.160	0.160
2020/01/31 01:34:26.6	87.950	-0.200	-0.220	0.200
2020/01/31 01:34:26.7	87.960	-0.200	-0.270	0.240
2020/01/31 01:34:26.8	87.970	-0.210	-0.330	0.280
2020/01/31 01:34:26.9	87.990	-0.210	-0.390	0.320
2020/01/31 01:34:27.0	88.010	-0.210	-0.440	0.360
2020/01/31 01:34:27.1	88.030	-0.210	-0.490	0.400
2020/01/31 01:34:27.2	88.060	-0.210	-0.540	0.430
2020/01/31 01:34:27.3	88.080	-0.210	-0.580	0.470
2020/01/31 01:34:27.4	88.110	-0.200	-0.620	0.500
2020/01/31 01:34:27.5	88.140	-0.200	-0.660	0.540
2020/01/31 01:34:27.6	88.170	-0.190	-0.690	0.570
2020/01/31 01:34:27.7	88.200	-0.180	-0.710	0.610
2020/01/31 01:34:27.8	88.230	-0.170	-0.730	0.640
2020/01/31 01:34:27.9	88.260	-0.160	-0.750	0.680
2020/01/31 01:34:28.0	88.290	-0.150	-0.760	0.710
2020/01/31 01:34:28.1	88.330	-0.140	-0.760	0.750
2020/01/31 01:34:28.2	88.360	-0.130	-0.760	0.780
2020/01/31 01:34:28.3	88.390	-0.120	-0.750	0.820
2020/01/31 01:34:28.4	88.420	-0.110	-0.730	0.850
2020/01/31 01:34:28.5	88.450	-0.100	-0.710	0.880
2020/01/31 01:34:28.6	88.480	-0.090	-0.690	0.910
2020/01/31 01:34:28.7	88.510	-0.090	-0.660	0.950
2020/01/31 01:34:28.8	88.540	-0.080	-0.620	0.980
2020/01/31 01:34:28.9	88.570	-0.070	-0.580	1.010
2020/01/31 01:34:29.0	88.610	-0.070	-0.540	1.050
2020/01/31 01:34:29.1	88.630	-0.070	-0.490	1.080
2020/01/31 01:34:29.2	88.660	-0.060	-0.440	1.110
2020/01/31 01:34:29.3	88.680	-0.060	-0.390	1.140
2020/01/31 01:34:29.4	88.700	-0.070	-0.330	1.170
2020/01/31 01:34:29.5	88.720	-0.070	-0.270	1.200
2020/01/31 01:34:29.6	88.740	-0.070	-0.210	1.230
2020/01/31 01:34:29.7	88.760	-0.080	-0.150	1.270
2020/01/31 01:34:29.8	88.770	-0.080	-0.090	1.300
2020/01/31 01:34:29.9	88.780	-0.090	-0.030	1.330
2020/01/31 01:34:30.0	88.780	-0.090	0.030	1.360
2020/01/31 01:34:30.1	88.790	-0.100	0.080	1.390
2020/01/31 01:34:30.2	88.800	-0.110	0.140	1.420
2020/01/31 01:34:30.3	88.800	-0.110	0.190	1.460
2020/01/31 01:34:30.4	88.800	-0.120	0.240	1.490
2020/01/31 01:34:30.5	88.800	-0.130	0.290	1.520
2020/01/31 01:34:30.6	88.790	-0.130	0.330	1.560
2020/01/31 01:34:30.7	88.780	-0.140	0.370	1.590
2020/01/31 01:34:30.8	88.770	-0.140	0.400	1.620
2020/01/31 01:34:30.9	88.760	-0.150	0.420	1.660
2020/01/31 01:34:31.0	88.760	-0.150	0.440	1.690
2020/01/31 01:34:31.1	88.740	-0.150	0.460	1.720
2020/01/31 01:34:31.2	88.720	-0.150	0.460	1.750
2020/01/31 01:34:31.3	88.700	-0.140	0.470	1.780
2020/01/31 01:34:31.4	88.680	-0.140	0.460	1.820
2020/01/31 01:34:31.5	88.660	-0.130	0.450	1.850
2020/01/31 01:34:31.6	88.630	-0.120	0.440	1.870
2020/01/31 01:34:31.7	88.610	-0.110	0.420	1.900
2020/01/31 01:34:31.8	88.580	-0.090	0.390	1.930
2020/01/31 01:34:31.9	88.550	-0.070	0.360	1.950
2020/01/31 01:34:32.0	88.540	-0.060	0.320	1.980
2020/01/31 01:34:32.1	88.500	-0.040	0.280	2.000
2020/01/31 01:34:32.2	88.470	-0.010	0.230	2.010
2020/01/31 01:34:32.3	88.440	0.010	0.180	2.030
2020/01/31 01:34:32.4	88.410	0.030	0.130	2.040
2020/01/31 01:34:32.5	88.380	0.060	0.080	2.050
2020/01/31 01:34:32.6	88.350	0.080	0.020	2.050
2020/01/31 01:34:32.7	88.320	0.110	-0.040	2.050
2020/01/31 01:34:32.8	88.290	0.140	-0.100	2.040
2020/01/31 01:34:32.9	88.260	0.170	-0.160	2.030
2020/01/31 01:34:33.0	88.250	0.190	-0.220	2.010
2020/01/31 01:34:33.1	88.220	0.220	-0.280	1.980
2020/01/31 01:34:33.2	88.210	0.240	-0.340	1.950
2020/01/31 01:34:33.3	88.190	0.270	-0.400	1.910
2020/01/31 01:34:33.4	88.170	0.290	-0.450	1.870
2020/01/31 01:34:33.5	88.160	0.310	-0.500	1.820
2020/01/31 01:34:33.6	88.160	0.330	-0.550	1.760
2020/01/31 01:34:33.7	88.160	0.350	-0.600	1.690
2020/01/31 01:34:33.8	88.160	0.360	-0.640	1.620
2020/01/31 01:34:33.9	88.160	0.370	-0.680	1.550
2020/01/31 01:34:34.0	88.170	0.380	-0.710	1.460
2020/01/31 01:34:34.1	88.190	0.390	-0.740	1.370
2020/01/31 01:34:34.2	88.200	0.400	-0.770	1.280
2020/01/31 01:34:34.3	88.220	0.400	-0.780	1.180
2020/01/31 01:34:34.4	88.250	0.400	-0.800	1.090
2020/01/31 01:34:34.5	88.270	0.400	-0.800	0.980
2020/01/31 01:34:34.6	88.300	0.390	-0.800	0.880
2020/01/31 01:34:34.7	88.330	0.380	-0.800	0.780
2020/01/31 01:34:34.8	88.370	0.370	-0.790	0.670
2020/01/31 01:34:34.9	88.400	0.360	-0.770	0.570
2020/01/31 01:34:35.0	88.430	0.340	-0.750	0.460
2020/01/31 01:34:35.1	88.470	0.320	-0.720	0.360
2020/01/31 01:34:35.2	88.500	0.300	-0.690	0.260
2020/01/31 01:34:35.3	88.540	0.280	-0.650	0.160
2020/01/31 01:34:35.4	88.570	0.260	-0.610	0.070
2020/01/31 01:34:35.5	88.610	0.230	-0.570	-0.010
2020/01/31 01:34:35.6	88.640	0.200	-0.520	-0.100
2020/01/31 01:34:35.7	88.670	0.180	-0.460	-0.170
2020/01/31 01:34:35.8	88.700	0.150	-0.410	-0.250
2020/01/31 01:34:35.9	88.730	0.110	-0.350	-0.310
2020/01/31 01:34:36.0	88.760	0.080	-0.290	-0.370
2020/01/31 01:34:36.1	88.780	0.050	-0.230	-0.420
2020/01/31 01:34:36.2	88.810	0.020	-0.160	-0.470
2020/01/31 01:34:36.3	88.830	-0.020	-0.100	-0.510
2020/01/31 01:34:36.4	88.850	-0.050	-0.030	-0.550
2020/01/31 01:34:36.5	88.860	-0.080	0.030	-0.590
2020/01/31 01:34:36.6	88.870	-0.110	0.100	-0.610
2020/01/31 01:34:36.7	88.880	-0.150	0.160	-0.630
2020/01/31 01:34:36.8	88.890	-0.180	0.220	-0.650
2020/01/31 01:34:36.9	88.900	-0.210	0.280	-0.660
2020/01/31 01:34:37.0	88.900	-0.240	0.340	-0.670
2020/01/31 01:34:37.1	88.900	-0.270	0.390	-0.670
2020/01/31 01:34:37.2	88.900	-0.290	0.440	-0.670
2020/01/31 01:34:37.3	88.900	-0.320	0.480	-0.660
2020/01/31 01:34:37.4	88.890	-0.340	0.520	-0.650
2020/01/31 01:34:37.5	88.890	-0.360	0.550	-0.640
2020/01/31 01:34:37.6	88.880	-0.380	0.580	-0.620
2020/01/31 01:34:37.7	88.870	-0.400	0.610	-0.600
2020/01/31 01:34:37.8	88.850	-0.410	0.630	-0.580
2020/01/31 01:34:37.9	88.840	-0.420	0.640	-0.560
2020/01/31 01:34:38.0	88.830	-0.430	0.640	-0.530
2020/01/31 01:34:38.1	88.820	-0.440	0.650	-0.500
2020/01/31 01:34:38.2	88.800	-0.440	0.640	-0.470
2020/01/31 01:34:38.3	88.780	-0.440	0.630	-0.430
2020/01/31 01:34:38.4	88.760	-0.440	0.610	-0.400
2020/01/31 01:34:38.5	88.740	-0.430	0.590	-0.360
2020/01/31 01:34:38.6	88.720	-0.430	0.560	-0.330
2020/01/31 01:34:38.7	88.710	-0.410	0.530	-0.290
2020/01/31 01:34:38.8	88.680	-0.400	0.490	-0.250
2020/01/31 01:34:38.9	88.660	-0.390	0.440	-0.200
2020/01/31 01:34:39.0	88.630	-0.370	0.400	-0.160
2020/01/31 01:34:39.1	88.610	-0.350	0.350	-0.120
2020/01/31 01:34:39.2	88.590	-0.330	0.290	-0.070
2020/01/31 01:34:39.3	88.570	-0.300	0.230	-0.030
2020/01/31 01:34:39.4	88.550	-0.280	0.170	0.010
2020/01/31 01:34:39.5	88.530	-0.260	0.100	0.050
2020/01/31 01:34:39.6	88.520	-0.230	0.040	0.090
2020/01/31 01:34:39.7	88.500	-0.200	-0.030	0.130
2020/01/31 01:34:39.8	88.480	-0.170	-0.100	0.170
2020/01/31 01:34:39.9	88.470	-0.150	-0.170	0.210
2020/01/31 01:34:40.0	88.460	-0.120	-0.230	0.250
2020/01/31 01:34:40.1	88.440	-0.090	-0.300	0.280
2020/01/31 01:34:40.2	88.430	-0.060	-0.370	0.310
2020/01/31 01:34:40.3	88.420	-0.040	-0.430	0.340
2020/01/31 01:34:40.4	88.410	-0.010	-0.500	0.370
2020/01/31 01:34:40.5	88.410	0.010	-0.550	0.390
2020/01/31 01:34:40.6	88.400	0.040	-0.610	0.420
2020/01/31 01:34:40.7	88.400	0.060	-0.660	0.440
2020/01/31 01:34:40.8	88.400	0.090	-0.710	0.460
2020/01/31 01:34:40.9	88.400	0.110	-0.760	0.480
2020/01/31 01:34:41.0	88.400	0.130	-0.800	0.490
2020/01/31 01:34:41.1	88.410	0.150	-0.830	0.510
2020/01/31 01:34:41.2	88.410	0.160	-0.860	0.520
2020/01/31 01:34:41.3	88.420	0.180	-0.880	0.540
2020/01/31 01:34:41.4	88.430	0.200	-0.900	0.560
2020/01/31 01:34:41.5	88.440	0.210	-0.910	0.570
2020/01/31 01:34:41.6	88.450	0.220	-0.920	0.590
2020/01/31 01:34:41.7	88.460	0.230	-0.920	0.610
2020/01/31 01:34:41.8	88.460	0.240	-0.910	0.620
2020/01/31 01:34:41.9	88.470	0.250	-0.900	0.640
2020/01/31 01:34:42.0	88.480	0.250	-0.890	0.660
2020/01/31 01:34:42.1	88.490	0.260	-0.870	0.680
2020/01/31 01:34:42.2	88.500	0.260	-0.840	0.700
2020/01/31 01:34:42.3	88.510	0.260	-0.810	0.720
2020/01/31 01:34:42.4	88.520	0.270	-0.780	0.730
2020/01/31 01:34:42.5	88.520	0.270	-0.740	0.750
2020/01/31 01:34:42.6	88.530	0.260	-0.700	0.760
2020/01/31 01:34:42.7	88.540	0.260	-0.660	0.780
2020/01/31 01:34:42.8	88.540	0.260	-0.620	0.790
2020/01/31 01:34:42.9	88.550	0.250	-0.570	0.800
2020/01/31 01:34:43.0	88.570	0.250	-0.520	0.810
2020/01/31 01:34:43.1	88.580	0.240	-0.470	0.820
2020/01/31 01:34:43.2	88.580	0.240	-0.420	0.820
2020/01/31 01:34:43.3	88.590	0.230	-0.370	0.820
2020/01/31 01:34:43.4	88.600	0.220	-0.320	0.820
2020/01/31 01:34:43.5	88.610	0.220	-0.280	0.820
2020/01/31 01:34:43.6	88.620	0.210	-0.230	0.820
2020/01/31 01:34:43.7	88.630	0.200	-0.180	0.810
2020/01/31 01:34:43.8	88.640	0.190	-0.140	0.810
2020/01/31 01:34:43.9	88.650	0.180	-0.090	0.800
2020/01/31 01:34:44.0	88.680	0.170	-0.050	0.790
2020/01/31 01:34:44.1	88.690	0.160	-0.010	0.780
2020/01/31 01:34:44.2	88.700	0.160	0.030	0.780
2020/01/31 01:34:44.3	88.720	0.150	0.070	0.770
2020/01/31 01:34:44.4	88.730	0.140	0.100	0.770
2020/01/31 01:34:44.5	88.740	0.130	0.130	0.770
2020/01/31 01:34:44.6	88.750	0.130	0.160	0.770
2020/01/31 01:34:44.7	88.760	0.120	0.190	0.770
2020/01/31 01:34:44.8	88.760	0.110	0.210	0.770
2020/01/31 01:34:44.9	88.770	0.110	0.230	0.780
2020/01/31 01:34:45.0	88.770	0.100	0.250	0.800
2020/01/31 01:34:45.1	88.770	0.090	0.270	0.810
2020/01/31 01:34:45.2	88.770	0.090	0.290	0.830
2020/01/31 01:34:45.3	88.770	0.080	0.300	0.850
2020/01/31 01:34:45.4	88.770	0.080	0.320	0.870
2020/01/31 01:34:45.5	88.760	0.080	0.330	0.890
2020/01/31 01:34:45.6	88.750	0.070	0.340	0.920
2020/01/31 01:34:45.7	88.740	0.070	0.340	0.940
2020/01/31 01:34:45.8	88.730	0.060	0.350	0.970
2020/01/31 01:34:45.9	88.710	0.060	0.350	1.000
2020/01/31 01:34:46.0	88.700	0.060	0.350	1.030
2020/01/31 01:34:46.1	88.690	0.060	0.350	1.050
2020/01/31 01:34:46.2	88.670	0.050	0.350	1.080
2020/01/31 01:34:46.3	88.650	0.050	0.340	1.100
2020/01/31 01:34:46.4	88.630	0.050	0.340	1.130
2020/01/31 01:34:46.5	88.610	0.050	0.330	1.140
2020/01/31 01:34:46.6	88.590	0.040	0.320	1.160
2020/01/31 01:34:46.7	88.580	0.040	0.310	1.170
2020/01/31 01:34:46.8	88.560	0.040	0.300	1.180
2020/01/31 01:34:46.9	88.540	0.040	0.280	1.190
2020/01/31 01:34:47.0	88.510	0.030	0.270	1.190
2020/01/31 01:34:47.1	88.490	0.030	0.250	1.190
2020/01/31 01:34:47.2	88.480	0.030	0.230	1.180
2020/01/31 01:34:47.3	88.460	0.030	0.220	1.170
2020/01/31 01:34:47.4	88.450	0.020	0.200	1.150
2020/01/31 01:34:47.5	88.440	0.020	0.180	1.130
2020/01/31 01:34:47.6	88.430	0.010	0.160	1.110
2020/01/31 01:34:47.7	88.420	0.010	0.130	1.080
2020/01/31 01:34:47.8	88.410	0.000	0.110	1.050
2020/01/31 01:34:47.9	88.410	-0.000	0.090	1.010
2020/01/31 01:34:48.0	88.410	-0.010	0.060	0.970
2020/01/31 01:34:48.1	88.400	-0.010	0.040	0.930
2020/01/31 01:34:48.2	88.400	-0.020	0.020	0.880
2020/01/31 01:34:48.3	88.400	-0.020	-0.010	0.830
2020/01/31 01:34:48.4	88.400	-0.030	-0.030	0.780
2020/01/31 01:34:48.5	88.410	-0.040	-0.060	0.730
2020/01/31 01:34:48.6	88.410	-0.040	-0.080	0.680
2020/01/31 01:34:48.7	88.410	-0.050	-0.110	0.620
2020/01/31 01:34:48.8	88.420	-0.050	-0.130	0.570
2020/01/31 01:34:48.9	88.430	-0.060	-0.160	0.510
2020/01/31 01:34:49.0	88.440	-0.070	-0.180	0.450
2020/01/31 01:34:49.1	88.450	-0.070	-0.200	0.390
2020/01/31 01:34:49.2	88.460	-0.080	-0.220	0.340
2020/01/31 01:34:49.3	88.470	-0.080	-0.250	0.280
2020/01/31 01:34:49.4	88.470	-0.090	-0.270	0.230
2020/01/31 01:34:49.5	88.480	-0.090	-0.290	0.180
2020/01/31 01:34:49.6	88.490	-0.100	-0.310	0.130
2020/01/31 01:34:49.7	88.500	-0.100	-0.330	0.080
2020/01/31 01:34:49.8	88.510	-0.110	-0.350	0.040
2020/01/31 01:34:49.9	88.520	-0.110	-0.370	-0.000
2020/01/31 01:34:50.0	88.510	-0.110	-0.390	-0.040
2020/01/31 01:34:50.1	88.520	-0.120	-0.410	-0.070
2020/01/31 01:34:50.2	88.520	-0.120	-0.430	-0.100
2020/01/31 01:34:50.3	88.530	-0.120	-0.450	-0.120
2020/01/31 01:34:50.4	88.530	-0.120	-0.460	-0.140
2020/01/31 01:34:50.5	88.530	-0.120	-0.480	-0.160
2020/01/31 01:34:50.6	88.530	-0.120	-0.490	-0.170
2020/01/31 01:34:50.7	88.530	-0.120	-0.500	-0.180
2020/01/31 01:34:50.8	88.530	-0.120	-0.520	-0.180
2020/01/31 01:34:50.9	88.520	-0.110	-0.530	-0.180
2020/01/31 01:34:51.0	88.530	-0.110	-0.540	-0.170
2020/01/31 01:34:51.1	88.530	-0.100	-0.550	-0.160
2020/01/31 01:34:51.2	88.520	-0.100	-0.560	-0.150
2020/01/31 01:34:51.3	88.520	-0.090	-0.570	-0.130
2020/01/31 01:34:51.4	88.520	-0.080	-0.580	-0.110
2020/01/31 01:34:51.5	88.510	-0.070	-0.590	-0.100
2020/01/31 01:34:51.6	88.510	-0.060	-0.600	-0.070
2020/01/31 01:34:51.7	88.510	-0.050	-0.600	-0.050
2020/01/31 01:34:51.8	88.510	-0.040	-0.610	-0.030
2020/01/31 01:34:51.9	88.510	-0.030	-0.610	-0.000
2020/01/31 01:34:52.0	88.520	-0.020	-0.610	0.020
2020/01/31 01:34:52.1	88.530	-0.010	-0.610	0.050
2020/01/31 01:34:52.2	88.530	-0.000	-0.610	0.080
2020/01/31 01:34:52.3	88.540	0.010	-0.600	0.100
2020/01/31 01:34:52.4	88.540	0.020	-0.590	0.130
2020/01/31 01:34:52.5	88.550	0.020	-0.580	0.160
2020/01/31 01:34:52.6	88.550	0.030	-0.570	0.180
2020/01/31 01:34:52.7	88.560	0.040	-0.550	0.210
2020/01/31 01:34:52.8	88.560	0.040	-0.530	0.240
2020/01/31 01:34:52.9	88.570	0.040	-0.510	0.270
2020/01/31 01:34:53.0	88.550	0.040	-0.480	0.310
2020/01/31 01:34:53.1	88.550	0.040	-0.450	0.340
2020/01/31 01:34:53.2	88.560	0.040	-0.420	0.380
2020/01/31 01:34:53.3	88.560	0.040	-0.380	0.410
2020/01/31 01:34:53.4	88.550	0.030	-0.330	0.450
2020/01/31 01:34:53.5	88.550	0.020	-0.290	0.480
2020/01/31 01:34:53.6	88.550	0.010	-0.240	0.520
2020/01/31 01:34:53.7	88.540	-0.010	-0.190	0.550
2020/01/31 01:34:53.8	88.540	-0.020	-0.130	0.590
2020/01/31 01:34:53.9	88.530	-0.040	-0.070	0.630
2020/01/31 01:34:54.0	88.540	-0.060	-0.020	0.660
2020/01/31 01:34:54.1	88.530	-0.080	0.040	0.700
2020/01/31 01:34:54.2	88.520	-0.100	0.110	0.740
2020/01/31 01:34:54.3	88.510	-0.130	0.170	0.770
2020/01/31 01:34:54.4	88.500	-0.150	0.230	0.800
2020/01/31 01:34:54.5	88.490	-0.180	0.290	0.840
2020/01/31 01:34:54.6	88.480	-0.200	0.350	0.870
2020/01/31 01:34:54.7	88.470	-0.230	0.410	0.900
2020/01/31 01:34:54.8	88.460	-0.260	0.470	0.920
2020/01/31 01:34:54.9	88.440	-0.280	0.520	0.950
2020/01/31 01:34:55.0	88.440	-0.310	0.580	0.970
2020/01/31 01:34:55.1	88.420	-0.330	0.630	0.990
2020/01/31 01:34:55.2	88.410	-0.350	0.670	1.010
2020/01/31 01:34:55.3	88.400	-0.380	0.710	1.020
2020/01/31 01:34:55.4	88.380	-0.390	0.740	1.030
2020/01/31 01:34:55.5	88.370	-0.410	0.770	1.030
2020/01/31 01:34:55.6	88.360	-0.420	0.790	1.040
2020/01/31 01:34:55.7	88.340	-0.430	0.800	1.040
2020/01/31 01:34:55.8	88.330	-0.440	0.810	1.040
2020/01/31 01:34:55.9	88.320	-0.450	0.810	1.030
2020/01/31 01:34:56.0	88.310	-0.450	0.800	1.020
2020/01/31 01:34:56.1	88.300	-0.440	0.790	1.010
2020/01/31 01:34:56.2	88.290	-0.440	0.770	1.000
2020/01/31 01:34:56.3	88.280	-0.420	0.740	0.980
2020/01/31 01:34:56.4	88.270	-0.410	0.700	0.960
2020/01/31 01:34:56.5	88.270	-0.390	0.650	0.940
2020/01/31 01:34:56.6	88.260	-0.360	0.600	0.920
2020/01/31 01:34:56.7	88.250	-0.330	0.540	0.890
2020/01/31 01:34:56.8	88.250	-0.300	0.470	0.860
2020/01/31 01:34:56.9	88.240	-0.270	0.390	0.830
2020/01/31 01:34:57.0	88.240	-0.230	0.310	0.800
2020/01/31 01:34:57.1	88.240	-0.180	0.220	0.770
2020/01/31 01:34:57.2	88.240	-0.140	0.130	0.730
2020/01/31 01:34:57.3	88.230	-0.090	0.040	0.700
2020/01/31 01:34:57.4	88.230	-0.040	-0.060	0.660
2020/01/31 01:34:57.5	88.230	0.020	-0.160	0.620
2020/01/31 01:34:57.6	88.230	0.070	-0.270	0.580
2020/01/31 01:34:57.7	88.240	0.130	-0.370	0.540
2020/01/31 01:34:57.8	88.240	0.190	-0.480	0.500
2020/01/31 01:34:57.9	88.240	0.240	-0.580	0.460
2020/01/31 01:34:58.0	88.230	0.300	-0.680	0.420
2020/01/31 01:34:58.1	88.240	0.360	-0.780	0.370
2020/01/31 01:34:58.2	88.240	0.420	-0.880	0.330
2020/01/31 01:34:58.3	88.240	0.470	-0.970	0.290
2020/01/31 01:34:58.4	88.240	0.520	-1.050	0.250
2020/01/31 01:34:58.5	88.240	0.570	-1.130	0.220
2020/01/31 01:34:58.6	88.250	0.620	-1.200	0.180
2020/01/31 01:34:58.7	88.250	0.660	-1.270	0.150
2020/01/31 01:34:58.8	88.250	0.700	-1.320	0.120
2020/01/31 01:34:58.9	88.250	0.740	-1.370	0.090
2020/01/31 01:34:59.0	88.260	0.770	-1.410	0.060
2020/01/31 01:34:59.1	88.250	0.790	-1.440	0.040
2020/01/31 01:34:59.2	88.250	0.810	-1.450	0.020
2020/01/31 01:34:59.3	88.250	0.830	-1.460	0.000
2020/01/31 01:34:59.4	88.250	0.840	-1.460	-0.010
2020/01/31 01:34:59.5	88.240	0.850	-1.440	-0.020
2020/01/31 01:34:59.6	88.240	0.850	-1.420	-0.030
2020/01/31 01:34:59.7	88.240	0.840	-1.390	-0.040
2020/01/31 01:34:59.8	88.240	0.830	-1.340	-0.040
2020/01/31 01:34:59.9	88.230	0.820	-1.290	-0.040
2020/01/31 01:35:00.0	88.220	0.800	-1.220	-0.030
2020/01/31 01:35:00.1	88.220	0.770	-1.150	-0.020
2020/01/31 01:35:00.2	88.220	0.740	-1.080	-0.010
2020/01/31 01:35:00.3	88.220	0.710	-0.990	0.000
2020/01/31 01:35:00.4	88.220	0.670	-0.900	0.020
2020/01/31 01:35:00.5	88.230	0.630	-0.800	0.040
2020/01/31 01:35:00.6	88.230	0.580	-0.700	0.060
2020/01/31 01:35:00.7	88.230	0.530	-0.600	0.090
2020/01/31 01:35:00.8	88.240	0.480	-0.490	0.110
2020/01/31 01:35:00.9	88.240	0.430	-0.370	0.140
2020/01/31 01:35:01.0	88.240	0.370	-0.260	0.180
2020/01/31 01:35:01.1	88.250	0.320	-0.140	0.210
2020/01/31 01:35:01.2	88.250	0.260	-0.030	0.250
2020/01/31 01:35:01.3	88.260	0.200	0.090	0.280
2020/01/31 01:35:01.4	88.270	0.140	0.200	0.320
2020/01/31 01:35:01.5	88.280	0.080	0.310	0.360
2020/01/31 01:35:01.6	88.290	0.020	0.410	0.410
2020/01/31 01:35:01.7	88.300	-0.040	0.510	0.450
2020/01/31 01:35:01.8	88.310	-0.090	0.610	0.500
2020/01/31 01:35:01.9	88.310	-0.150	0.700	0.540
2020/01/31 01:35:02.0	88.310	-0.200	0.790	0.590
2020/01/31 01:35:02.1	88.320	-0.250	0.860	0.640
2020/01/31 01:35:02.2	88.330	-0.300	0.930	0.690
2020/01/31 01:35:02.3	88.340	-0.350	0.990	0.730
2020/01/31 01:35:02.4	88.350	-0.390	1.040	0.780
2020/01/31 01:35:02.5	88.350	-0.430	1.090	0.830
2020/01/31 01:35:02.6	88.360	-0.460	1.120	0.870
2020/01/31 01:35:02.7	88.360	-0.490	1.140	0.920
2020/01/31 01:35:02.8	88.370	-0.520	1.150	0.970
2020/01/31 01:35:02.9	88.370	-0.540	1.150	1.010
2020/01/31 01:35:03.0	88.390	-0.560	1.140	1.060
2020/01/31 01:35:03.1	88.390	-0.570	1.130	1.100
2020/01/31 01:35:03.2	88.390	-0.580	1.100	1.140
2020/01/31 01:35:03.3	88.390	-0.590	1.060	1.180
2020/01/31 01:35:03.4	88.390	-0.590	1.010	1.220
2020/01/31 01:35:03.5	88.390	-0.590	0.960	1.250
2020/01/31 01:35:03.6	88.390	-0.580	0.890	1.290
2020/01/31 01:35:03.7	88.390	-0.570	0.820	1.320
2020/01/31 01:35:03.8	88.390	-0.560	0.740	1.350
2020/01/31 01:35:03.9	88.390	-0.550	0.660	1.380
2020/01/31 01:35:04.0	88.390	-0.530	0.570	1.420
2020/01/31 01:35:04.1	88.390	-0.510	0.480	1.440
2020/01/31 01:35:04.2	88.390	-0.490	0.380	1.460
2020/01/31 01:35:04.3	88.380	-0.460	0.280	1.490
2020/01/31 01:35:04.4	88.380	-0.440	0.180	1.500
2020/01/31 01:35:04.5	88.370	-0.410	0.070	1.520
2020/01/31 01:35:04.6	88.370	-0.380	-0.030	1.540
2020/01/31 01:35:04.7	88.370	-0.350	-0.130	1.550
2020/01/31 01:35:04.8	88.360	-0.330	-0.230	1.560
2020/01/31 01:35:04.9	88.360	-0.300	-0.320	1.570
2020/01/31 01:35:05.0	88.350	-0.270	-0.420	1.580
2020/01/31 01:35:05.1	88.350	-0.240	-0.500	1.580
2020/01/31 01:35:05.2	88.340	-0.220	-0.580	1.590
2020/01/31 01:35:05.3	88.340	-0.200	-0.660	1.590
2020/01/31 01:35:05.4	88.330	-0.170	-0.720	1.590
2020/01/31 01:35:05.5	88.330	-0.150	-0.780	1.590
2020/01/31 01:35:05.6	88.330	-0.130	-0.830	1.580
2020/01/31 01:35:05.7	88.320	-0.120	-0.870	1.580
2020/01/31 01:35:05.8	88.320	-0.100	-0.900	1.570
2020/01/31 01:35:05.9	88.320	-0.090	-0.920	1.560
2020/01/31 01:35:06.0	88.330	-0.080	-0.930	1.550
2020/01/31 01:35:06.1	88.330	-0.080	-0.930	1.530
2020/01/31 01:35:06.2	88.330	-0.070	-0.920	1.520
2020/01/31 01:35:06.3	88.330	-0.070	-0.910	1.500
2020/01/31 01:35:06.4	88.330	-0.070	-0.880	1.470
2020/01/31 01:35:06.5	88.340	-0.070	-0.840	1.450
2020/01/31 01:35:06.6	88.340	-0.080	-0.800	1.420
2020/01/31 01:35:06.7	88.350	-0.080	-0.750	1.390
2020/01/31 01:35:06.8	88.350	-0.090	-0.690	1.360
2020/01/31 01:35:06.9	88.360	-0.100	-0.630	1.320
2020/01/31 01:35:07.0	88.370	-0.110	-0.560	1.280
2020/01/31 01:35:07.1	88.370	-0.120	-0.480	1.240
2020/01/31 01:35:07.2	88.380	-0.130	-0.410	1.200
2020/01/31 01:35:07.3	88.390	-0.140	-0.330	1.160
2020/01/31 01:35:07.4	88.400	-0.150	-0.250	1.120
2020/01/31 01:35:07.5	88.410	-0.160	-0.180	1.070
2020/01/31 01:35:07.6	88.420	-0.170	-0.100	1.030
2020/01/31 01:35:07.7	88.430	-0.180	-0.030	0.980
2020/01/31 01:35:07.8	88.440	-0.190	0.040	0.940
2020/01/31 01:35:07.9	88.450	-0.190	0.110	0.890
2020/01/31 01:35:08.0	88.470	-0.200	0.180	0.840
2020/01/31 01:35:08.1	88.480	-0.200	0.230	0.790
2020/01/31 01:35:08.2	88.480	-0.200	0.280	0.740
2020/01/31 01:35:08.3	88.490	-0.190	0.330	0.700
2020/01/31 01:35:08.4	88.490	-0.190	0.360	0.650
2020/01/31 01:35:08.5	88.500	-0.180	0.390	0.600
2020/01/31 01:35:08.6	88.500	-0.160	0.410	0.560
2020/01/31 01:35:08.7	88.500	-0.150	0.420	0.510
2020/01/31 01:35:08.8	88.500	-0.130	0.430	0.460
2020/01/31 01:35:08.9	88.500	-0.110	0.420	0.420
2020/01/31 01:35:09.0	88.490	-0.080	0.400	0.370
2020/01/31 01:35:09.1	88.490	-0.060	0.380	0.330
2020/01/31 01:35:09.2	88.480	-0.030	0.350	0.290
2020/01/31 01:35:09.3	88.480	0.010	0.310	0.240
2020/01/31 01:35:09.4	88.470	0.040	0.260	0.200
2020/01/31 01:35:09.5	88.460	0.080	0.210	0.160
2020/01/31 01:35:09.6	88.450	0.120	0.150	0.120
2020/01/31 01:35:09.7	88.440	0.160	0.090	0.080
2020/01/31 01:35:09.8	88.430	0.200	0.020	0.040
2020/01/31 01:35:09.9	88.420	0.240	-0.060	0.000
2020/01/31 01:35:10.0	88.420	0.280	-0.140	-0.030
2020/01/31 01:35:10.1	88.410	0.320	-0.220	-0.070
2020/01/31 01:35:10.2	88.400	0.360	-0.300	-0.100
2020/01/31 01:35:10.3	88.390	0.400	-0.380	-0.130
2020/01/31 01:35:10.4	88.380	0.440	-0.460	-0.160
2020/01/31 01:35:10.5	88.370	0.480	-0.540	-0.190
2020/01/31 01:35:10.6	88.360	0.510	-0.620	-0.210
2020/01/31 01:35:10.7	88.360	0.540	-0.690	-0.230
2020/01/31 01:35:10.8	88.350	0.570	-0.760	-0.250
2020/01/31 01:35:10.9	88.340	0.590	-0.820	-0.260
2020/01/31 01:35:11.0	88.330	0.620	-0.890	-0.270
2020/01/31 01:35:11.1	88.320	0.630	-0.940	-0.280
2020/01/31 01:35:11.2	88.320	0.650	-0.990	-0.280
2020/01/31 01:35:11.3	88.320	0.660	-1.030	-0.280
2020/01/31 01:35:11.4	88.310	0.660	-1.060	-0.280
2020/01/31 01:35:11.5	88.310	0.660	-1.090	-0.270
2020/01/31 01:35:11.6	88.310	0.660	-1.100	-0.260
2020/01/31 01:35:11.7	88.310	0.650	-1.110	-0.250
2020/01/31 01:35:11.8	88.310	0.640	-1.110	-0.230
2020/01/31 01:35:11.9	88.320	0.630	-1.100	-0.210
2020/01/31 01:35:12.0	88.310	0.600	-1.090	-0.190
2020/01/31 01:35:12.1	88.310	0.580	-1.060	-0.170
2020/01/31 01:35:12.2	88.320	0.550	-1.030	-0.140
2020/01/31 01:35:12.3	88.320	0.520	-0.990	-0.120
2020/01/31 01:35:12.4	88.330	0.490	-0.950	-0.090
2020/01/31 01:35:12.5	88.340	0.450	-0.890	-0.070
2020/01/31 01:35:12.6	88.350	0.410	-0.840	-0.040
2020/01/31 01:35:12.7	88.360	0.370	-0.770	-0.010
2020/01/31 01:35:12.8	88.370	0.330	-0.700	0.020
2020/01/31 01:35:12.9	88.380	0.280	-0.630	0.050
2020/01/31 01:35:13.0	88.390	0.240	-0.550	0.070
2020/01/31 01:35:13.1	88.400	0.190	-0.460	0.100
2020/01/31 01:35:13.2	88.420	0.150	-0.380	0.130
2020/01/31 01:35:13.3	88.430	0.100	-0.300	0.160
2020/01/31 01:35:13.4	88.450	0.060	-0.210	0.200
2020/01/31 01:35:13.5	88.460	0.020	-0.120	0.230
2020/01/31 01:35:13.6	88.480	-0.030	-0.040	0.260
2020/01/31 01:35:13.7	88.500	-0.070	0.050	0.290
2020/01/31 01:35:13.8	88.510	-0.110	0.130	0.320
2020/01/31 01:35:13.9	88.530	-0.140	0.210	0.360
2020/01/31 01:35:14.0	88.550	-0.170	0.290	0.400
2020/01/31 01:35:14.1	88.560	-0.210	0.360	0.430
2020/01/31 01:35:14.2	88.580	-0.230	0.430	0.460
2020/01/31 01:35:14.3	88.590	-0.260	0.500	0.500
2020/01/31 01:35:14.4	88.600	-0.280	0.560	0.540
2020/01/31 01:35:14.5	88.610	-0.300	0.610	0.570
2020/01/31 01:35:14.6	88.620	-0.310	0.670	0.610
2020/01/31 01:35:14.7	88.630	-0.330	0.710	0.650
2020/01/31 01:35:14.8	88.630	-0.340	0.750	0.690
2020/01/31 01:35:14.9	88.640	-0.340	0.780	0.730
2020/01/31 01:35:15.0	88.640	-0.350	0.810	0.770
2020/01/31 01:35:15.1	88.640	-0.350	0.830	0.810
2020/01/31 01:35:15.2	88.640	-0.350	0.850	0.860
2020/01/31 01:35:15.3	88.630	-0.350	0.860	0.900
2020/01/31 01:35:15.4	88.620	-0.350	0.870	0.940
2020/01/31 01:35:15.5	88.610	-0.340	0.870	0.990
2020/01/31 01:35:15.6	88.600	-0.330	0.860	1.030
2020/01/31 01:35:15.7	88.580	-0.330	0.860	1.070
2020/01/31 01:35:15.8	88.570	-0.320	0.840	1.110
2020/01/31 01:35:15.9	88.550	-0.310	0.820	1.150
2020/01/31 01:35:16.0	88.540	-0.300	0.800	1.190
2020/01/31 01:35:16.1	88.520	-0.290	0.780	1.230
2020/01/31 01:35:16.2	88.500	-0.280	0.750	1.260
2020/01/31 01:35:16.3	88.480	-0.280	0.710	1.290
2020/01/31 01:35:16.4	88.460	-0.270	0.680	1.320
2020/01/31 01:35:16.5	88.430	-0.260	0.640	1.350
2020/01/31 01:35:16.6	88.410	-0.250	0.590	1.370
2020/01/31 01:35:16.7	88.390	-0.240	0.550	1.400
2020/01/31 01:35:16.8	88.370	-0.230	0.500	1.410
2020/01/31 01:35:16.9	88.350	-0.230	0.440	1.430
2020/01/31 01:35:17.0	88.340	-0.220	0.390	1.440
2020/01/31 01:35:17.1	88.330	-0.210	0.330	1.450
2020/01/31 01:35:17.2	88.310	-0.210	0.270	1.460
2020/01/31 01:35:17.3	88.300	-0.200	0.210	1.460
2020/01/31 01:35:17.4	88.290	-0.190	0.140	1.460
2020/01/31 01:35:17.5	88.280	-0.180	0.070	1.460
2020/01/31 01:35:17.6	88.280	-0.180	0.000	1.450
2020/01/31 01:35:17.7	88.270	-0.170	-0.070	1.440
2020/01/31 01:35:17.8	88.270	-0.160	-0.150	1.420
2020/01/31 01:35:17.9	88.270	-0.150	-0.220	1.400
2020/01/31 01:35:18.0	88.270	-0.130	-0.300	1.390
2020/01/31 01:35:18.1	88.280	-0.120	-0.380	1.360
2020/01/31 01:35:18.2	88.280	-0.110	-0.460	1.340
2020/01/31 01:35:18.3	88.290	-0.090	-0.530	1.310
2020/01/31 01:35:18.4	88.310	-0.080	-0.610	1.280
2020/01/31 01:35:18.5	88.320	-0.060	-0.690	1.240
2020/01/31 01:35:18.6	88.330	-0.040	-0.760	1.210
2020/01/31 01:35:18.7	88.350	-0.020	-0.830	1.170
2020/01/31 01:35:18.8	88.370	0.000	-0.900	1.140
2020/01/31 01:35:18.9	88.390	0.030	-0.960	1.100
2020/01/31 01:35:19.0	88.410	0.050	-1.020	1.060
2020/01/31 01:35:19.1	88.440	0.070	-1.070	1.020
2020/01/31 01:35:19.2	88.460	0.100	-1.120	0.980
2020/01/31 01:35:19.3	88.480	0.120	-1.160	0.940
2020/01/31 01:35:19.4	88.510	0.150	-1.190	0.900
2020/01/31 01:35:19.5	88.530	0.170	-1.220	0.860
2020/01/31 01:35:19.6	88.560	0.190	-1.240	0.830
2020/01/31 01:35:19.7	88.580	0.220	-1.250	0.790
2020/01/31 01:35:19.8	88.600	0.240	-1.250	0.760
2020/01/31 01:35:19.9	88.630	0.260	-1.240	0.720
2020/01/31 01:35:20.0	88.650	0.270	-1.230	0.690
2020/01/31 01:35:20.1	88.670	0.290	-1.210	0.660
2020/01/31 01:35:20.2	88.690	0.300	-1.170	0.630
2020/01/31 01:35:20.3	88.710	0.310	-1.130	0.610
2020/01/31 01:35:20.4	88.720	0.320	-1.090	0.580
2020/01/31 01:35:20.5	88.730	0.320	-1.030	0.560
2020/01/31 01:35:20.6	88.740	0.320	-0.970	0.540
2020/01/31 01:35:20.7	88.750	0.320	-0.900	0.530
2020/01/31 01:35:20.8	88.750	0.310	-0.820	0.510
2020/01/31 01:35:20.9	88.750	0.300	-0.740	0.500
2020/01/31 01:35:21.0	88.750	0.280	-0.650	0.490
2020/01/31 01:35:21.1	88.750	0.270	-0.560	0.480
2020/01/31 01:35:21.2	88.740	0.250	-0.460	0.470
2020/01/31 01:35:21.3	88.740	0.220	-0.360	0.470
2020/01/31 01:35:21.4	88.730	0.190	-0.270	0.470
2020/01/31 01:35:21.5	88.710	0.160	-0.160	0.470
2020/01/31 01:35:21.6	88.700	0.130	-0.060	0.470
2020/01/31 01:35:21.7	88.690	0.100	0.030	0.470
2020/01/31 01:35:21.8	88.670	0.060	0.130	0.470
2020/01/31 01:35:21.9	88.650	0.020	0.230	0.480
2020/01/31 01:35:22.0	88.640	-0.020	0.320	0.490
2020/01/31 01:35:22.1	88.620	-0.060	0.400	0.500
2020/01/31 01:35:22.2	88.600	-0.110	0.490	0.510
2020/01/31 01:35:22.3	88.580	-0.150	0.560	0.530
2020/01/31 01:35:22.4	88.550	-0.190	0.630	0.540
2020/01/31 01:35:22.5	88.530	-0.240	0.700	0.560
2020/01/31 01:35:22.6	88.510	-0.280	0.750	0.570
2020/01/31 01:35:22.7	88.480	-0.320	0.800	0.590
2020/01/31 01:35:22.8	88.460	-0.350	0.840	0.610
2020/01/31 01:35:22.9	88.430	-0.390	0.880	0.630
2020/01/31 01:35:23.0	88.410	-0.420	0.900	0.650
2020/01/31 01:35:23.1	88.390	-0.450	0.920	0.670
2020/01/31 01:35:23.2	88.370	-0.480	0.930	0.690
2020/01/31 01:35:23.3	88.340	-0.500	0.930	0.710
2020/01/31 01:35:23.4	88.320	-0.520	0.920	0.730
2020/01/31 01:35:23.5	88.300	-0.540	0.900	0.740
2020/01/31 01:35:23.6	88.280	-0.550	0.880	0.760
2020/01/31 01:35:23.7	88.270	-0.560	0.850	0.770
2020/01/31 01:35:23.8	88.250	-0.560	0.800	0.780
2020/01/31 01:35:23.9	88.240	-0.550	0.760	0.790
2020/01/31 01:35:24.0	88.230	-0.550	0.700	0.800
2020/01/31 01:35:24.1	88.220	-0.530	0.640	0.800
2020/01/31 01:35:24.2	88.220	-0.520	0.570	0.800
2020/01/31 01:35:24.3	88.220	-0.490	0.490	0.790
2020/01/31 01:35:24.4	88.220	-0.470	0.410	0.780
2020/01/31 01:35:24.5	88.220	-0.440	0.330	0.770
2020/01/31 01:35:24.6	88.230	-0.400	0.240	0.750
2020/01/31 01:35:24.7	88.240	-0.360	0.150	0.730
2020/01/31 01:35:24.8	88.250	-0.320	0.050	0.710
2020/01/31 01:35:24.9	88.260	-0.270	-0.050	0.680
2020/01/31 01:35:25.0	88.290	-0.230	-0.150	0.650
2020/01/31 01:35:25.1	88.300	-0.180	-0.250	0.610
2020/01/31 01:35:25.2	88.330	-0.120	-0.350	0.580
2020/01/31 01:35:25.3	88.350	-0.070	-0.450	0.540
2020/01/31 01:35:25.4	88.370	-0.010	-0.550	0.500
2020/01/31 01:35:25.5	88.400	0.040	-0.640	0.460
2020/01/31 01:35:25.6	88.430	0.100	-0.730	0.420
2020/01/31 01:35:25.7	88.450	0.160	-0.820	0.380
2020/01/31 01:35:25.8	88.480	0.210	-0.910	0.340
2020/01/31 01:35:25.9	88.510	0.270	-0.980	0.300
2020/01/31 01:35:26.0	88.530	0.320	-1.060	0.270
2020/01/31 01:35:26.1	88.560	0.380	-1.120	0.230
2020/01/31 01:35:26.2	88.590	0.430	-1.180	0.200
2020/01/31 01:35:26.3	88.610	0.470	-1.230	0.160
2020/01/31 01:35:26.4	88.630	0.520	-1.270	0.130
2020/01/31 01:35:26.5	88.660	0.560	-1.300	0.100
2020/01/31 01:35:26.6	88.670	0.600	-1.330	0.080
2020/01/31 01:35:26.7	88.690	0.630	-1.340	0.050
2020/01/31 01:35:26.8	88.710	0.660	-1.340	0.030
2020/01/31 01:35:26.9	88.720	0.680	-1.340	0.020
2020/01/31 01:35:27.0	88.730	0.700	-1.320	-0.000
2020/01/31 01:35:27.1	88.740	0.720	-1.290	-0.010
2020/01/31 01:35:27.2	88.750	0.730	-1.260	-0.010
2020/01/31 01:35:27.3	88.750	0.730	-1.210	-0.020
2020/01/31 01:35:27.4	88.750	0.730	-1.150	-0.010
2020/01/31 01:35:27.5	88.740	0.730	-1.090	-0.010
2020/01/31 01:35:27.6	88.730	0.720	-1.020	-0.000
2020/01/31 01:35:27.7	88.720	0.710	-0.940	0.010
2020/01/31 01:35:27.8	88.710	0.690	-0.850	0.020
2020/01/31 01:35:27.9	88.690	0.670	-0.760	0.030
2020/01/31 01:35:28.0	88.660	0.640	-0.660	0.060
2020/01/31 01:35:28.1	88.640	0.610	-0.560	0.080
2020/01/31 01:35:28.2	88.620	0.570	-0.450	0.100
2020/01/31 01:35:28.3	88.590	0.540	-0.350	0.120
2020/01/31 01:35:28.4	88.560	0.490	-0.240	0.140
2020/01/31 01:35:28.5	88.520	0.450	-0.130	0.170
2020/01/31 01:35:28.6	88.490	0.410	-0.020	0.190
2020/01/31 01:35:28.7	88.450	0.360	0.090	0.220
2020/01/31 01:35:28.8	88.410	0.310	0.200	0.240
2020/01/31 01:35:28.9	88.370	0.260	0.300	0.270
2020/01/31 01:35:29.0	88.330	0.210	0.400	0.300
2020/01/31 01:35:29.1	88.290	0.160	0.490	0.330
2020/01/31 01:35:29.2	88.250	0.110	0.580	0.350
2020/01/31 01:35:29.3	88.210	0.060	0.660	0.380
2020/01/31 01:35:29.4	88.160	0.010	0.740	0.410
2020/01/31 01:35:29.5	88.120	-0.030	0.800	0.430
2020/01/31 01:35:29.6	88.080	-0.080	0.860	0.460
2020/01/31 01:35:29.7	88.040	-0.120	0.910	0.480
2020/01/31 01:35:29.8	88.010	-0.160	0.950	0.500
2020/01/31 01:35:29.9	87.970	-0.190	0.980	0.520
2020/01/31 01:35:30.0	87.930	-0.220	1.010	0.540
2020/01/31 01:35:30.1	87.900	-0.250	1.020	0.560
2020/01/31 01:35:30.2	87.870	-0.270	1.020	0.570
2020/01/31 01:35:30.3	87.840	-0.300	1.010	0.590
2020/01/31 01:35:30.4	87.820	-0.310	0.990	0.600
2020/01/31 01:35:30.5	87.800	-0.330	0.960	0.610
2020/01/31 01:35:30.6	87.790	-0.330	0.930	0.620
2020/01/31 01:35:30.7	87.770	-0.340	0.880	0.630
2020/01/31 01:35:30.8	87.760	-0.340	0.830	0.630
2020/01/31 01:35:30.9	87.760	-0.340	0.770	0.630
2020/01/31 01:35:31.0	87.760	-0.340	0.710	0.640
2020/01/31 01:35:31.1	87.760	-0.330	0.630	0.640
2020/01/31 01:35:31.2	87.760	-0.320	0.560	0.630
2020/01/31 01:35:31.3	87.770	-0.310	0.470	0.630
2020/01/31 01:35:31.4	87.780	-0.300	0.390	0.620
2020/01/31 01:35:31.5	87.800	-0.290	0.300	0.610
2020/01/31 01:35:31.6	87.810	-0.270	0.210	0.600
2020/01/31 01:35:31.7	87.840	-0.260	0.120	0.590
2020/01/31 01:35:31.8	87.860	-0.240	0.030	0.580
2020/01/31 01:35:31.9	87.880	-0.220	-0.060	0.570
2020/01/31 01:35:32.0	87.920	-0.210	-0.150	0.550
2020/01/31 01:35:32.1	87.950	-0.190	-0.240	0.540
2020/01/31 01:35:32.2	87.980	-0.180	-0.330	0.520
2020/01/31 01:35:32.3	88.020	-0.160	-0.410	0.510
2020/01/31 01:35:32.4	88.050	-0.150	-0.490	0.500
2020/01/31 01:35:32.5	88.090	-0.130	-0.560	0.480
2020/01/31 01:35:32.6	88.120	-0.120	-0.630	0.470
2020/01/31 01:35:32.7	88.160	-0.110	-0.700	0.460
2020/01/31 01:35:32.8	88.190	-0.100	-0.760	0.450
2020/01/31 01:35:32.9	88.230	-0.100	-0.810	0.440
2020/01/31 01:35:33.0	88.270	-0.090	-0.850	0.440
2020/01/31 01:35:33.1	88.300	-0.090	-0.890	0.440
2020/01/31 01:35:33.2	88.340	-0.080	-0.930	0.430
2020/01/31 01:35:33.3	88.370	-0.080	-0.950	0.430
2020/01/31 01:35:33.4	88.400	-0.080	-0.970	0.440
2020/01/31 01:35:33.5	88.430	-0.090	-0.980	0.440
2020/01/31 01:35:33.6	88.450	-0.090	-0.990	0.450
2020/01/31 01:35:33.7	88.480	-0.090	-0.980	0.460
2020/01/31 01:35:33.8	88.510	-0.100	-0.970	0.470
2020/01/31 01:35:33.9	88.530	-0.110	-0.950	0.490
2020/01/31 01:35:34.0	88.540	-0.120	-0.930	0.510
2020/01/31 01:35:34.1	88.560	-0.130	-0.900	0.530
2020/01/31 01:35:34.2	88.580	-0.140	-0.860	0.550
2020/01/31 01:35:34.3	88.600	-0.150	-0.820	0.580
2020/01/31 01:35:34.4	88.610	-0.160	-0.770	0.610
2020/01/31 01:35:34.5	88.620	-0.170	-0.720	0.640
2020/01/31 01:35:34.6	88.640	-0.180	-0.660	0.670
2020/01/31 01:35:34.7	88.650	-0.190	-0.600	0.710
2020/01/31 01:35:34.8	88.660	-0.210	-0.540	0.750
2020/01/31 01:35:34.9	88.660	-0.220	-0.470	0.790
2020/01/31 01:35:35.0	88.670	-0.230	-0.410	0.840
2020/01/31 01:35:35.1	88.670	-0.240	-0.340	0.880
2020/01/31 01:35:35.2	88.670	-0.250	-0.270	0.930
2020/01/31 01:35:35.3	88.680	-0.260	-0.210	0.980
2020/01/31 01:35:35.4	88.680	-0.270	-0.140	1.030
2020/01/31 01:35:35.5	88.670	-0.270	-0.080	1.080
2020/01/31 01:35:35.6	88.670	-0.280	-0.020	1.130
2020/01/31 01:35:35.7	88.670	-0.280	0.040	1.190
2020/01/31 01:35:35.8	88.660	-0.290	0.090	1.240
2020/01/31 01:35:35.9	88.660	-0.290	0.140	1.300
2020/01/31 01:35:36.0	88.650	-0.290	0.190	1.350
2020/01/31 01:35:36.1	88.640	-0.290	0.240	1.410
2020/01/31 01:35:36.2	88.630	-0.290	0.280	1.460
2020/01/31 01:35:36.3	88.620	-0.290	0.310	1.520
2020/01/31 01:35:36.4	88.610	-0.280	0.340	1.570
2020/01/31 01:35:36.5	88.600	-0.280	0.360	1.620
2020/01/31 01:35:36.6	88.590	-0.270	0.380	1.670
2020/01/31 01:35:36.7	88.580	-0.260	0.390	1.710
2020/01/31 01:35:36.8	88.570	-0.260	0.400	1.760
2020/01/31 01:35:36.9	88.550	-0.250	0.400	1.800
2020/01/31 01:35:37.0	88.530	-0.240	0.400	1.830
2020/01/31 01:35:37.1	88.520	-0.220	0.390	1.870
2020/01/31 01:35:37.2	88.500	-0.210	0.380	1.900
2020/01/31 01:35:37.3	88.490	-0.200	0.360	1.920
2020/01/31 01:35:37.4	88.470	-0.180	0.340	1.940
2020/01/31 01:35:37.5	88.450	-0.160	0.320	1.960
2020/01/31 01:35:37.6	88.430	-0.150	0.300	1.970
2020/01/31 01:35:37.7	88.420	-0.130	0.270	1.980
2020/01/31 01:35:37.8	88.400	-0.110	0.240	1.990
2020/01/31 01:35:37.9	88.370	-0.090	0.200	1.980
2020/01/31 01:35:38.0	88.350	-0.070	0.170	1.980
2020/01/31 01:35:38.1	88.330	-0.050	0.140	1.970
2020/01/31 01:35:38.2	88.300	-0.020	0.100	1.960
2020/01/31 01:35:38.3	88.280	-0.000	0.060	1.940
2020/01/31 01:35:38.4	88.250	0.020	0.020	1.920
2020/01/31 01:35:38.5	88.230	0.050	-0.020	1.900
2020/01/31 01:35:38.6	88.200	0.070	-0.060	1.870
2020/01/31 01:35:38.7	88.180	0.100	-0.100	1.830
2020/01/31 01:35:38.8	88.150	0.120	-0.130	1.800
2020/01/31 01:35:38.9	88.120	0.150	-0.170	1.760
2020/01/31 01:35:39.0	88.100	0.180	-0.210	1.720
2020/01/31 01:35:39.1	88.070	0.210	-0.250	1.670
2020/01/31 01:35:39.2	88.050	0.240	-0.290	1.620
2020/01/31 01:35:39.3	88.020	0.260	-0.320	1.570
2020/01/31 01:35:39.4	88.000	0.290	-0.360	1.510
2020/01/31 01:35:39.5	87.970	0.320	-0.400	1.450
2020/01/31 01:35:39.6	87.950	0.350	-0.430	1.390
2020/01/31 01:35:39.7	87.930	0.380	-0.470	1.320
2020/01/31 01:35:39.8	87.910	0.410	-0.500	1.250
2020/01/31 01:35:39.9	87.900	0.440	-0.540	1.180
2020/01/31 01:35:40.0	87.890	0.460	-0.570	1.110
2020/01/31 01:35:40.1	87.880	0.490	-0.600	1.030
2020/01/31 01:35:40.2	87.860	0.520	-0.640	0.950
2020/01/31 01:35:40.3	87.860	0.540	-0.670	0.870
2020/01/31 01:35:40.4	87.850	0.570	-0.700	0.790
2020/01/31 01:35:40.5	87.840	0.590	-0.730	0.710
2020/01/31 01:35:40.6	87.840	0.610	-0.760	0.630
2020/01/31 01:35:40.7	87.840	0.630	-0.780	0.540
2020/01/31 01:35:40.8	87.840	0.650	-0.810	0.460
2020/01/31 01:35:40.9	87.840	0.670	-0.830	0.380
2020/01/31 01:35:41.0	87.850	0.680	-0.850	0.300
2020/01/31 01:35:41.1	87.850	0.700	-0.860	0.220
2020/01/31 01:35:41.2	87.860	0.710	-0.870	0.140
2020/01/31 01:35:41.3	87.860	0.720	-0.880	0.060
2020/01/31 01:35:41.4	87.880	0.720	-0.880	-0.020
2020/01/31 01:35:41.5	87.890	0.720	-0.880	-0.090
2020/01/31 01:35:41.6	87.900	0.720	-0.870	-0.170
2020/01/31 01:35:41.7	87.920	0.720	-0.860	-0.240
2020/01/31 01:35:41.8	87.930	0.710	-0.840	-0.300
2020/01/31 01:35:41.9	87.950	0.700	-0.810	-0.370
2020/01/31 01:35:42.0	87.970	0.690	-0.780	-0.430
2020/01/31 01:35:42.1	87.990	0.670	-0.740	-0.490
2020/01/31 01:35:42.2	88.010	0.650	-0.700	-0.540
2020/01/31 01:35:42.3	88.030	0.620	-0.650	-0.590
2020/01/31 01:35:42.4	88.050	0.600	-0.600	-0.630
2020/01/31 01:35:42.5	88.070	0.570	-0.540	-0.670
2020/01/31 01:35:42.6	88.100	0.530	-0.480	-0.710
2020/01/31 01:35:42.7	88.120	0.500	-0.410	-0.740
2020/01/31 01:35:42.8	88.140	0.460	-0.340	-0.760
2020/01/31 01:35:42.9	88.160	0.410	-0.260	-0.780
2020/01/31 01:35:43.0	88.180	0.370	-0.180	-0.790
2020/01/31 01:35:43.1	88.200	0.320	-0.100	-0.800
2020/01/31 01:35:43.2	88.220	0.270	-0.020	-0.800
2020/01/31 01:35:43.3	88.240	0.220	0.070	-0.790
2020/01/31 01:35:43.4	88.250	0.170	0.150	-0.780
2020/01/31 01:35:43.5	88.270	0.110	0.230	-0.770
2020/01/31 01:35:43.6	88.280	0.060	0.310	-0.740
2020/01/31 01:35:43.7	88.290	0.000	0.400	-0.720
2020/01/31 01:35:43.8	88.300	-0.050	0.480	-0.680
2020/01/31 01:35:43.9	88.310	-0.110	0.550	-0.650
2020/01/31 01:35:44.0	88.300	-0.170	0.630	-0.610
2020/01/31 01:35:44.1	88.300	-0.220	0.700	-0.560
2020/01/31 01:35:44.2	88.310	-0.280	0.760	-0.510
2020/01/31 01:35:44.3	88.310	-0.330	0.830	-0.450
2020/01/31 01:35:44.4	88.310	-0.380	0.880	-0.400
2020/01/31 01:35:44.5	88.310	-0.430	0.940	-0.340
2020/01/31 01:35:44.6	88.310	-0.480	0.980	-0.270
2020/01/31 01:35:44.7	88.310	-0.530	1.020	-0.210
2020/01/31 01:35:44.8	88.310	-0.570	1.050	-0.140
2020/01/31 01:35:44.9	88.310	-0.610	1.080	-0.080
2020/01/31 01:35:45.0	88.310	-0.640	1.100	-0.000
2020/01/31 01:35:45.1	88.310	-0.680	1.110	0.060
2020/01/31 01:35:45.2	88.310	-0.710	1.110	0.130
2020/01/31 01:35:45.3	88.320	-0.730	1.110	0.200
2020/01/31 01:35:45.4	88.320	-0.750	1.090	0.270
2020/01/31 01:35:45.5	88.320	-0.770	1.070	0.340
2020/01/31 01:35:45.6	88.330	-0.780	1.040	0.410
2020/01/31 01:35:45.7	88.340	-0.790	1.000	0.470
2020/01/31 01:35:45.8	88.340	-0.790	0.950	0.540
2020/01/31 01:35:45.9	88.350	-0.790	0.890	0.600
2020/01/31 01:35:46.0	88.370	-0.790	0.830	0.670
2020/01/31 01:35:46.1	88.380	-0.780	0.750	0.730
2020/01/31 01:35:46.2	88.390	-0.760	0.680	0.790
2020/01/31 01:35:46.3	88.410	-0.750	0.590	0.850
2020/01/31 01:35:46.4	88.420	-0.720	0.500	0.910
2020/01/31 01:35:46.5	88.440	-0.700	0.400	0.970
2020/01/31 01:35:46.6	88.460	-0.670	0.300	1.030
2020/01/31 01:35:46.7	88.470	-0.640	0.200	1.090
2020/01/31 01:35:46.8	88.490	-0.600	0.090	1.150
2020/01/31 01:35:46.9	88.510	-0.560	-0.020	1.210
2020/01/31 01:35:47.0	88.530	-0.520	-0.140	1.270
2020/01/31 01:35:47.1	88.540	-0.480	-0.250	1.330
2020/01/31 01:35:47.2	88.560	-0.430	-0.370	1.390
2020/01/31 01:35:47.3	88.570	-0.390	-0.480	1.450
2020/01/31 01:35:47.4	88.590	-0.340	-0.590	1.510
2020/01/31 01:35:47.5	88.600	-0.290	-0.700	1.570
2020/01/31 01:35:47.6	88.600	-0.240	-0.800	1.630
2020/01/31 01:35:47.7	88.610	-0.190	-0.900	1.690
2020/01/31 01:35:47.8	88.620	-0.140	-1.000	1.750
2020/01/31 01:35:47.9	88.620	-0.090	-1.090	1.810
2020/01/31 01:35:48.0	88.630	-0.040	-1.170	1.880
2020/01/31 01:35:48.1	88.620	0.000	-1.250	1.940
2020/01/31 01:35:48.2	88.620	0.050	-1.320	2.000
2020/01/31 01:35:48.3	88.610	0.090	-1.370	2.060
2020/01/31 01:35:48.4	88.600	0.130	-1.420	2.110
2020/01/31 01:35:48.5	88.600	0.170	-1.460	2.170
2020/01/31 01:35:48.6	88.580	0.200	-1.490	2.220
2020/01/31 01:35:48.7	88.570	0.240	-1.510	2.270
2020/01/31 01:35:48.8	88.560	0.270	-1.510	2.310
2020/01/31 01:35:48.9	88.540	0.290	-1.510	2.360
2020/01/31 01:35:49.0	88.540	0.310	-1.490	2.390
2020/01/31 01:35:49.1	88.520	0.330	-1.470	2.430
2020/01/31 01:35:49.2	88.500	0.340	-1.430	2.460
2020/01/31 01:35:49.3	88.490	0.350	-1.390	2.490
2020/01/31 01:35:49.4	88.470	0.350	-1.330	2.510
2020/01/31 01:35:49.5	88.450	0.360	-1.260	2.540
2020/01/31 01:35:49.6	88.440	0.350	-1.190	2.550
2020/01/31 01:35:49.7	88.420	0.340	-1.100	2.570
2020/01/31 01:35:49.8	88.400	0.330	-1.010	2.580
2020/01/31 01:35:49.9	88.380	0.320	-0.920	2.580
2020/01/31 01:35:50.0	88.370	0.300	-0.810	2.590
2020/01/31 01:35:50.1	88.350	0.280	-0.710	2.580
2020/01/31 01:35:50.2	88.330	0.250	-0.600	2.580
2020/01/31 01:35:50.3	88.310	0.230	-0.490	2.570
2020/01/31 01:35:50.4	88.290	0.200	-0.370	2.560
2020/01/31 01:35:50.5	88.280	0.170	-0.260	2.540
2020/01/31 01:35:50.6	88.260	0.140	-0.150	2.520
2020/01/31 01:35:50.7	88.240	0.100	-0.040	2.500
2020/01/31 01:35:50.8	88.220	0.070	0.070	2.470
2020/01/31 01:35:50.9	88.200	0.040	0.170	2.440
2020/01/31 01:35:51.0	88.200	0.010	0.280	2.410
2020/01/31 01:35:51.1	88.180	-0.020	0.370	2.370
2020/01/31 01:35:51.2	88.170	-0.050	0.450	2.330
2020/01/31 01:35:51.3	88.150	-0.080	0.520	2.280
2020/01/31 01:35:51.4	88.140	-0.110	0.590	2.230
2020/01/31 01:35:51.5	88.120	-0.130	0.650	2.170
2020/01/31 01:35:51.6	88.110	-0.160	0.700	2.110
2020/01/31 01:35:51.7	88.100	-0.180	0.740	2.050
2020/01/31 01:35:51.8	88.090	-0.190	0.770	1.980
2020/01/31 01:35:51.9	88.080	-0.210	0.790	1.900
2020/01/31 01:35:52.0	88.080	-0.220	0.790	1.820
2020/01/31 01:35:52.1	88.070	-0.230	0.790	1.740
2020/01/31 01:35:52.2	88.070	-0.230	0.780	1.650
2020/01/31 01:35:52.3	88.060	-0.230	0.760	1.560
2020/01/31 01:35:52.4	88.060	-0.230	0.740	1.470
2020/01/31 01:35:52.5	88.050	-0.220	0.700	1.370
2020/01/31 01:35:52.6	88.050	-0.210	0.660	1.270
2020/01/31 01:35:52.7	88.050	-0.200	0.610	1.160
2020/01/31 01:35:52.8	88.040	-0.180	0.560	1.060
2020/01/31 01:35:52.9	88.040	-0.170	0.500	0.950
2020/01/31 01:35:53.0	88.040	-0.150	0.440	0.840
2020/01/31 01:35:53.1	88.040	-0.120	0.370	0.720
2020/01/31 01:35:53.2	88.040	-0.100	0.300	0.610
2020/01/31 01:35:53.3	88.040	-0.070	0.220	0.490
2020/01/31 01:35:53.4	88.040	-0.040	0.150	0.380
2020/01/31 01:35:53.5	88.040	-0.010	0.070	0.260
2020/01/31 01:35:53.6	88.050	0.020	-0.000	0.140
2020/01/31 01:35:53.7	88.050	0.050	-0.070	0.020
2020/01/31 01:35:53.8	88.060	0.090	-0.150	-0.090
2020/01/31 01:35:53.9	88.060	0.120	-0.220	-0.210
2020/01/31 01:35:54.0	88.070	0.150	-0.290	-0.330
2020/01/31 01:35:54.1	88.070	0.190	-0.350	-0.450
2020/01/31 01:35:54.2	88.090	0.220	-0.410	-0.560
2020/01/31 01:35:54.3	88.100	0.250	-0.470	-0.680
2020/01/31 01:35:54.4	88.110	0.280	-0.520	-0.790
2020/01/31 01:35:54.5	88.130	0.310	-0.570	-0.900
2020/01/31 01:35:54.6	88.140	0.340	-0.610	-1.000
2020/01/31 01:35:54.7	88.160	0.360	-0.650	-1.110
2020/01/31 01:35:54.8	88.180	0.390	-0.680	-1.200
2020/01/31 01:35:54.9	88.200	0.410	-0.710	-1.300
2020/01/31 01:35:55.0	88.210	0.430	-0.720	-1.380
2020/01/31 01:35:55.1	88.230	0.440	-0.740	-1.460
2020/01/31 01:35:55.2	88.250	0.460	-0.750	-1.530
2020/01/31 01:35:55.3	88.260	0.470	-0.750	-1.600
2020/01/31 01:35:55.4	88.280	0.480	-0.750	-1.660
2020/01/31 01:35:55.5	88.290	0.480	-0.750	-1.710
2020/01/31 01:35:55.6	88.300	0.480	-0.740	-1.750
2020/01/31 01:35:55.7	88.310	0.480	-0.720	-1.780
2020/01/31 01:35:55.8	88.320	0.480	-0.700	-1.810
2020/01/31 01:35:55.9	88.330	0.470	-0.680	-1.830
2020/01/31 01:35:56.0	88.330	0.470	-0.650	-1.830
2020/01/31 01:35:56.1	88.330	0.450	-0.620	-1.830
2020/01/31 01:35:56.2	88.340	0.440	-0.580	-1.820
2020/01/31 01:35:56.3	88.340	0.420	-0.540	-1.810
2020/01/31 01:35:56.4	88.340	0.400	-0.500	-1.780
2020/01/31 01:35:56.5	88.340	0.380	-0.450	-1.750
2020/01/31 01:35:56.6	88.330	0.360	-0.400	-1.710
2020/01/31 01:35:56.7	88.330	0.330	-0.350	-1.660
2020/01/31 01:35:56.8	88.330	0.300	-0.300	-1.610
2020/01/31 01:35:56.9	88.320	0.270	-0.250	-1.550
2020/01/31 01:35:57.0	88.320	0.240	-0.200	-1.480
2020/01/31 01:35:57.1	88.320	0.210	-0.140	-1.410
2020/01/31 01:35:57.2	88.310	0.180	-0.090	-1.340
2020/01/31 01:35:57.3	88.300	0.140	-0.040	-1.260
2020/01/31 01:35:57.4	88.300	0.110	0.010	-1.170
2020/01/31 01:35:57.5	88.290	0.070	0.060	-1.080
2020/01/31 01:35:57.6	88.280	0.040	0.110	-0.990
2020/01/31 01:35:57.7	88.270	0.000	0.160	-0.900
2020/01/31 01:35:57.8	88.260	-0.030	0.200	-0.800
2020/01/31 01:35:57.9	88.250	-0.060	0.240	-0.700
2020/01/31 01:35:58.0	88.230	-0.100	0.280	-0.600
2020/01/31 01:35:58.1	88.220	-0.130	0.310	-0.500
2020/01/31 01:35:58.2	88.210	-0.160	0.340	-0.390
2020/01/31 01:35:58.3	88.190	-0.180	0.360	-0.290
2020/01/31 01:35:58.4	88.180	-0.210	0.380	-0.190
2020/01/31 01:35:58.5	88.170	-0.240	0.400	-0.090
2020/01/31 01:35:58.6	88.160	-0.260	0.410	0.010
2020/01/31 01:35:58.7	88.150	-0.280	0.420	0.110
2020/01/31 01:35:58.8	88.140	-0.300	0.420	0.210
2020/01/31 01:35:58.9	88.130	-0.320	0.420	0.300
2020/01/31 01:35:59.0	88.130	-0.330	0.410	0.400
2020/01/31 01:35:59.1	88.120	-0.340	0.400	0.490
2020/01/31 01:35:59.2	88.120	-0.350	0.380	0.580
2020/01/31 01:35:59.3	88.120	-0.360	0.360	0.670
2020/01/31 01:35:59.4	88.120	-0.360	0.330	0.760
2020/01/31 01:35:59.5	88.120	-0.360	0.310	0.850
2020/01/31 01:35:59.6	88.120	-0.360	0.270	0.930
2020/01/31 01:35:59.7	88.120	-0.360	0.240	1.010
2020/01/31 01:35:59.8	88.130	-0.360	0.200	1.100
2020/01/31 01:35:59.9	88.140	-0.350	0.150	1.180
2020/01/31 01:36:00.0	88.150	-0.340	0.110	1.270
2020/01/31 01:36:00.1	88.160	-0.330	0.070	1.350
2020/01/31 01:36:00.2	88.170	-0.320	0.020	1.430
2020/01/31 01:36:00.3	88.180	-0.300	-0.030	1.510
2020/01/31 01:36:00.4	88.200	-0.290	-0.080	1.590
2020/01/31 01:36:00.5	88.210	-0.270	-0.130	1.670
2020/01/31 01:36:00.6	88.220	-0.250	-0.180	1.750
2020/01/31 01:36:00.7	88.230	-0.230	-0.220	1.830
2020/01/31 01:36:00.8	88.240	-0.220	-0.270	1.910
2020/01/31 01:36:00.9	88.260	-0.200	-0.310	1.990
2020/01/31 01:36:01.0	88.260	-0.180	-0.360	2.080
2020/01/31 01:36:01.1	88.270	-0.160	-0.390	2.160
2020/01/31 01:36:01.2	88.280	-0.140	-0.420	2.230
2020/01/31 01:36:01.3	88.280	-0.130	-0.450	2.300
2020/01/31 01:36:01.4	88.290	-0.110	-0.470	2.380
2020/01/31 01:36:01.5	88.290	-0.090	-0.490	2.440
2020/01/31 01:36:01.6	88.300	-0.080	-0.500	2.510
2020/01/31 01:36:01.7	88.300	-0.070	-0.510	2.570
2020/01/31 01:36:01.8	88.300	-0.060	-0.520	2.630
2020/01/31 01:36:01.9	88.300	-0.050	-0.510	2.680
2020/01/31 01:36:02.0	88.290	-0.040	-0.500	2.720
2020/01/31 01:36:02.1	88.290	-0.030	-0.490	2.770
2020/01/31 01:36:02.2	88.280	-0.030	-0.470	2.800
2020/01/31 01:36:02.3	88.280	-0.030	-0.450	2.830
2020/01/31 01:36:02.4	88.270	-0.020	-0.430	2.860
2020/01/31 01:36:02.5	88.260	-0.020	-0.400	2.880
2020/01/31 01:36:02.6	88.250	-0.030	-0.370	2.890
2020/01/31 01:36:02.7	88.240	-0.030	-0.330	2.900
2020/01/31 01:36:02.8	88.230	-0.030	-0.290	2.910
2020/01/31 01:36:02.9	88.220	-0.040	-0.260	2.900
2020/01/31 01:36:03.0	88.220	-0.040	-0.220	2.900
2020/01/31 01:36:03.1	88.200	-0.050	-0.170	2.880
2020/01/31 01:36:03.2	88.190	-0.060	-0.140	2.860
2020/01/31 01:36:03.3	88.180	-0.060	-0.100	2.840
2020/01/31 01:36:03.4	88.160	-0.070	-0.060	2.800
2020/01/31 01:36:03.5	88.150	-0.080	-0.020	2.770
2020/01/31 01:36:03.6	88.140	-0.080	0.010	2.730
2020/01/31 01:36:03.7	88.120	-0.090	0.040	2.680
2020/01/31 01:36:03.8	88.110	-0.100	0.060	2.630
2020/01/31 01:36:03.9	88.100	-0.100	0.090	2.580
2020/01/31 01:36:04.0	88.080	-0.100	0.110	2.510
2020/01/31 01:36:04.1	88.070	-0.110	0.120	2.450
2020/01/31 01:36:04.2	88.060	-0.110	0.130	2.390
2020/01/31 01:36:04.3	88.050	-0.110	0.140	2.330
2020/01/31 01:36:04.4	88.030	-0.110	0.130	2.260
2020/01/31 01:36:04.5	88.020	-0.100	0.130	2.200
2020/01/31 01:36:04.6	88.010	-0.100	0.120	2.130
2020/01/31 01:36:04.7	88.000	-0.090	0.100	2.060
2020/01/31 01:36:04.8	87.990	-0.080	0.080	2.000
2020/01/31 01:36:04.9	87.980	-0.070	0.050	1.930
2020/01/31 01:36:05.0	87.970	-0.060	0.020	1.860
2020/01/31 01:36:05.1	87.960	-0.050	-0.010	1.800
2020/01/31 01:36:05.2	87.950	-0.030	-0.050	1.730
2020/01/31 01:36:05.3	87.930	-0.020	-0.090	1.660
2020/01/31 01:36:05.4	87.920	-0.000	-0.130	1.590
2020/01/31 01:36:05.5	87.910	0.020	-0.170	1.520
2020/01/31 01:36:05.6	87.900	0.030	-0.220	1.450
2020/01/31 01:36:05.7	87.890	0.050	-0.270	1.370
2020/01/31 01:36:05.8	87.880	0.070	-0.320	1.300
2020/01/31 01:36:05.9	87.880	0.090	-0.360	1.220
2020/01/31 01:36:06.0	87.870	0.110	-0.410	1.130
2020/01/31 01:36:06.1	87.860	0.120	-0.450	1.050
2020/01/31 01:36:06.2	87.860	0.140	-0.500	0.960
2020/01/31 01:36:06.3	87.860	0.160	-0.540	0.870
2020/01/31 01:36:06.4	87.860	0.170	-0.580	0.780
2020/01/31 01:36:06.5	87.860	0.190	-0.610	0.690
2020/01/31 01:36:06.6	87.860	0.200	-0.640	0.600
2020/01/31 01:36:06.7	87.870	0.210	-0.670	0.500
2020/01/31 01:36:06.8	87.870	0.220	-0.690	0.410
2020/01/31 01:36:06.9	87.880	0.220	-0.700	0.310
2020/01/31 01:36:07.0	87.880	0.230	-0.720	0.210
2020/01/31 01:36:07.1	87.880	0.230	-0.720	0.120
2020/01/31 01:36:07.2	87.890	0.230	-0.720	0.020
2020/01/31 01:36:07.3	87.900	0.230	-0.710	-0.070
2020/01/31 01:36:07.4	87.900	0.230	-0.690	-0.170
2020/01/31 01:36:07.5	87.910	0.220	-0.670	-0.260
2020/01/31 01:36:07.6	87.920	0.220	-0.650	-0.340
2020/01/31 01:36:07.7	87.920	0.210	-0.610	-0.420
2020/01/31 01:36:07.8	87.930	0.200	-0.580	-0.500
2020/01/31 01:36:07.9	87.930	0.180	-0.530	-0.580
2020/01/31 01:36:08.0	87.940	0.170	-0.480	-0.650
2020/01/31 01:36:08.1	87.940	0.150	-0.430	-0.720
2020/01/31 01:36:08.2	87.930	0.140	-0.370	-0.780
2020/01/31 01:36:08.3	87.930	0.120	-0.310	-0.840
2020/01/31 01:36:08.4	87.920	0.100	-0.250	-0.890
2020/01/31 01:36:08.5	87.920	0.080	-0.190	-0.940
2020/01/31 01:36:08.6	87.910	0.060	-0.130	-0.980
2020/01/31 01:36:08.7	87.900	0.040	-0.060	-1.010
2020/01/31 01:36:08.8	87.880	0.020	0.000	-1.040
2020/01/31 01:36:08.9	87.870	0.000	0.060	-1.070
2020/01/31 01:36:09.0	87.850	-0.020	0.130	-1.080
2020/01/31 01:36:09.1	87.830	-0.040	0.180	-1.100
2020/01/31 01:36:09.2	87.810	-0.050	0.240	-1.110
2020/01/31 01:36:09.3	87.790	-0.070	0.290	-1.120
2020/01/31 01:36:09.4	87.780	-0.090	0.340	-1.120
2020/01/31 01:36:09.5	87.760	-0.100	0.380	-1.120
2020/01/31 01:36:09.6	87.740	-0.110	0.420	-1.110
2020/01/31 01:36:09.7	87.720	-0.120	0.450	-1.100
2020/01/31 01:36:09.8	87.700	-0.130	0.470	-1.090
2020/01/31 01:36:09.9	87.680	-0.130	0.490	-1.080
2020/01/31 01:36:10.0	87.660	-0.140	0.490	-1.070
2020/01/31 01:36:10.1	87.650	-0.140	0.500	-1.050
2020/01/31 01:36:10.2	87.640	-0.140	0.490	-1.030
2020/01/31 01:36:10.3	87.630	-0.140	0.480	-1.010
2020/01/31 01:36:10.4	87.620	-0.130	0.460	-0.980
2020/01/31 01:36:10.5	87.610	-0.130	0.430	-0.960
2020/01/31 01:36:10.6	87.610	-0.120	0.400	-0.940
2020/01/31 01:36:10.7	87.610	-0.110	0.350	-0.910
2020/01/31 01:36:10.8	87.610	-0.090	0.310	-0.880
2020/01/31 01:36:10.9	87.610	-0.080	0.250	-0.850
2020/01/31 01:36:11.0	87.610	-0.060	0.190	-0.820
2020/01/31 01:36:11.1	87.620	-0.040	0.130	-0.790
2020/01/31 01:36:11.2	87.630	-0.030	0.070	-0.760
2020/01/31 01:36:11.3	87.640	-0.010	0.000	-0.720
2020/01/31 01:36:11.4	87.650	0.010	-0.070	-0.690
2020/01/31 01:36:11.5	87.670	0.030	-0.140	-0.660
2020/01/31 01:36:11.6	87.680	0.060	-0.210	-0.620
2020/01/31 01:36:11.7	87.700	0.080	-0.280	-0.580
2020/01/31 01:36:11.8	87.720	0.100	-0.340	-0.540
2020/01/31 01:36:11.9	87.740	0.120	-0.400	-0.500
2020/01/31 01:36:12.0	87.760	0.140	-0.470	-0.450
2020/01/31 01:36:12.1	87.780	0.160	-0.520	-0.410
2020/01/31 01:36:12.2	87.800	0.180	-0.570	-0.360
2020/01/31 01:36:12.3	87.820	0.190	-0.610	-0.300
2020/01/31 01:36:12.4	87.840	0.210	-0.640	-0.240
2020/01/31 01:36:12.5	87.860	0.220	-0.670	-0.180
2020/01/31 01:36:12.6	87.880	0.230	-0.690	-0.120
2020/01/31 01:36:12.7	87.890	0.240	-0.700	-0.050
2020/01/31 01:36:12.8	87.910	0.250	-0.710	0.020
2020/01/31 01:36:12.9	87.920	0.250	-0.700	0.090
2020/01/31 01:36:13.0	87.930	0.250	-0.690	0.180
2020/01/31 01:36:13.1	87.940	0.250	-0.670	0.260
2020/01/31 01:36:13.2	87.950	0.250	-0.640	0.340
2020/01/31 01:36:13.3	87.960	0.240	-0.610	0.420
2020/01/31 01:36:13.4	87.970	0.230	-0.560	0.510
2020/01/31 01:36:13.5	87.970	0.220	-0.510	0.600
2020/01/31 01:36:13.6	87.970	0.200	-0.460	0.690
2020/01/31 01:36:13.7	87.970	0.190	-0.400	0.780
2020/01/31 01:36:13.8	87.970	0.160	-0.340	0.870
2020/01/31 01:36:13.9	87.970	0.140	-0.270	0.970
2020/01/31 01:36:14.0	87.980	0.120	-0.200	1.070
2020/01/31 01:36:14.1	87.970	0.090	-0.130	1.160
2020/01/31 01:36:14.2	87.970	0.060	-0.060	1.250
2020/01/31 01:36:14.3	87.960	0.030	0.010	1.340
2020/01/31 01:36:14.4	87.950	0.000	0.080	1.420
2020/01/31 01:36:14.5	87.940	-0.030	0.150	1.510
2020/01/31 01:36:14.6	87.930	-0.060	0.210	1.590
2020/01/31 01:36:14.7	87.920	-0.090	0.270	1.670
2020/01/31 01:36:14.8	87.910	-0.120	0.330	1.750
2020/01/31 01:36:14.9	87.900	-0.150	0.380	1.820
2020/01/31 01:36:15.0	87.900	-0.180	0.430	1.890
2020/01/31 01:36:15.1	87.880	-0.210	0.470	1.960
2020/01/31 01:36:15.2	87.870	-0.230	0.500	2.030
2020/01/31 01:36:15.3	87.850	-0.260	0.520	2.090
2020/01/31 01:36:15.4	87.840	-0.280	0.540	2.150
2020/01/31 01:36:15.5	87.820	-0.290	0.540	2.210
2020/01/31 01:36:15.6	87.810	-0.310	0.540	2.260
2020/01/31 01:36:15.7	87.790	-0.320	0.530	2.310
2020/01/31 01:36:15.8	87.780	-0.330	0.510	2.350
2020/01/31 01:36:15.9	87.770	-0.330	0.480	2.390
2020/01/31 01:36:16.0	87.760	-0.330	0.440	2.430
2020/01/31 01:36:16.1	87.750	-0.330	0.400	2.460
2020/01/31 01:36:16.2	87.740	-0.320	0.340	2.490
2020/01/31 01:36:16.3	87.730	-0.310	0.280	2.510
2020/01/31 01:36:16.4	87.720	-0.300	0.210	2.530
2020/01/31 01:36:16.5	87.710	-0.280	0.140	2.550
2020/01/31 01:36:16.6	87.710	-0.260	0.060	2.560
2020/01/31 01:36:16.7	87.700	-0.230	-0.020	2.570
2020/01/31 01:36:16.8	87.700	-0.200	-0.110	2.580
2020/01/31 01:36:16.9	87.700	-0.170	-0.200	2.590
2020/01/31 01:36:17.0	87.700	-0.130	-0.290	2.590
2020/01/31 01:36:17.1	87.700	-0.100	-0.390	2.590
2020/01/31 01:36:17.2	87.710	-0.060	-0.480	2.580
2020/01/31 01:36:17.3	87.710	-0.020	-0.570	2.580
2020/01/31 01:36:17.4	87.710	0.030	-0.650	2.570
2020/01/31 01:36:17.5	87.720	0.070	-0.730	2.550
2020/01/31 01:36:17.6	87.730	0.110	-0.810	2.540
2020/01/31 01:36:17.7	87.730	0.150	-0.880	2.520
2020/01/31 01:36:17.8	87.740	0.190	-0.950	2.500
2020/01/31 01:36:17.9	87.750	0.230	-1.000	2.480
2020/01/31 01:36:18.0	87.760	0.270	-1.050	2.450
2020/01/31 01:36:18.1	87.770	0.300	-1.080	2.420
2020/01/31 01:36:18.2	87.780	0.330	-1.110	2.390
2020/01/31 01:36:18.3	87.790	0.360	-1.120	2.360
2020/01/31 01:36:18.4	87.790	0.380	-1.130	2.320
2020/01/31 01:36:18.5	87.800	0.400	-1.120	2.280
2020/01/31 01:36:18.6	87.810	0.410	-1.100	2.240
2020/01/31 01:36:18.7	87.810	0.420	-1.070	2.190
2020/01/31 01:36:18.8	87.820	0.430	-1.020	2.140
2020/01/31 01:36:18.9	87.820	0.430	-0.970	2.090
2020/01/31 01:36:19.0	87.830	0.420	-0.900	2.040
2020/01/31 01:36:19.1	87.830	0.410	-0.830	1.980
2020/01/31 01:36:19.2	87.830	0.390	-0.740	1.910
2020/01/31 01:36:19.3	87.830	0.370	-0.650	1.850
2020/01/31 01:36:19.4	87.830	0.340	-0.560	1.780
2020/01/31 01:36:19.5	87.830	0.310	-0.450	1.700
2020/01/31 01:36:19.6	87.820	0.280	-0.350	1.630
2020/01/31 01:36:19.7	87.810	0.240	-0.240	1.550
2020/01/31 01:36:19.8	87.800	0.200	-0.120	1.470
2020/01/31 01:36:19.9	87.790	0.150	-0.010	1.390
2020/01/31 01:36:20.0	87.760	0.110	0.110	1.300
2020/01/31 01:36:20.1	87.740	0.060	0.220	1.220
2020/01/31 01:36:20.2	87.730	0.010	0.330	1.130
2020/01/31 01:36:20.3	87.710	-0.040	0.440	1.050
2020/01/31 01:36:20.4	87.690	-0.090	0.540	0.960
2020/01/31 01:36:20.5	87.670	-0.140	0.640	0.870
2020/01/31 01:36:20.6	87.640	-0.190	0.730	0.790
2020/01/31 01:36:20.7	87.620	-0.240	0.810	0.700
2020/01/31 01:36:20.8	87.600	-0.290	0.890	0.610
2020/01/31 01:36:20.9	87.570	-0.330	0.950	0.530
2020/01/31 01:36:21.0	87.550	-0.370	1.010	0.440
2020/01/31 01:36:21.1	87.520	-0.400	1.050	0.360
2020/01/31 01:36:21.2	87.500	-0.430	1.080	0.280
2020/01/31 01:36:21.3	87.470	-0.460	1.090	0.190
2020/01/31 01:36:21.4	87.440	-0.480	1.100	0.110
2020/01/31 01:36:21.5	87.420	-0.490	1.090	0.030
2020/01/31 01:36:21.6	87.390	-0.500	1.070	-0.050
2020/01/31 01:36:21.7	87.370	-0.510	1.030	-0.120
2020/01/31 01:36:21.8	87.350	-0.510	0.980	-0.200
2020/01/31 01:36:21.9	87.330	-0.500	0.920	-0.270
2020/01/31 01:36:22.0	87.310	-0.490	0.850	-0.340
2020/01/31 01:36:22.1	87.300	-0.470	0.770	-0.420
2020/01/31 01:36:22.2	87.280	-0.450	0.680	-0.490
2020/01/31 01:36:22.3	87.270	-0.420	0.580	-0.550
2020/01/31 01:36:22.4	87.270	-0.390	0.470	-0.620
2020/01/31 01:36:22.5	87.260	-0.350	0.360	-0.690
2020/01/31 01:36:22.6	87.260	-0.320	0.240	-0.750
2020/01/31 01:36:22.7	87.270	-0.270	0.120	-0.810
2020/01/31 01:36:22.8	87.270	-0.230	-0.000	-0.880
2020/01/31 01:36:22.9	87.280	-0.180	-0.130	-0.940
2020/01/31 01:36:23.0	87.290	-0.140	-0.250	-1.000
2020/01/31 01:36:23.1	87.300	-0.090	-0.370	-1.050
2020/01/31 01:36:23.2	87.330	-0.040	-0.490	-1.110
2020/01/31 01:36:23.3	87.350	0.010	-0.610	-1.170
2020/01/31 01:36:23.4	87.380	0.050	-0.720	-1.220
2020/01/31 01:36:23.5	87.410	0.100	-0.820	-1.270
2020/01/31 01:36:23.6	87.450	0.140	-0.920	-1.320
2020/01/31 01:36:23.7	87.480	0.190	-1.010	-1.360
2020/01/31 01:36:23.8	87.520	0.220	-1.090	-1.400
2020/01/31 01:36:23.9	87.560	0.260	-1.160	-1.440
2020/01/31 01:36:24.0	87.600	0.290	-1.230	-1.480
2020/01/31 01:36:24.1	87.650	0.320	-1.280	-1.510
2020/01/31 01:36:24.2	87.690	0.350	-1.320	-1.530
2020/01/31 01:36:24.3	87.740	0.370	-1.350	-1.550
2020/01/31 01:36:24.4	87.780	0.390	-1.360	-1.570
2020/01/31 01:36:24.5	87.830	0.400	-1.370	-1.580
2020/01/31 01:36:24.6	87.870	0.410	-1.370	-1.580
2020/01/31 01:36:24.7	87.910	0.410	-1.360	-1.570
2020/01/31 01:36:24.8	87.950	0.410	-1.330	-1.560
2020/01/31 01:36:24.9	87.990	0.410	-1.300	-1.540
2020/01/31 01:36:25.0	88.040	0.400	-1.260	-1.510
2020/01/31 01:36:25.1	88.070	0.390	-1.210	-1.470
2020/01/31 01:36:25.2	88.100	0.380	-1.150	-1.430
2020/01/31 01:36:25.3	88.130	0.360	-1.090	-1.370
2020/01/31 01:36:25.4	88.150	0.340	-1.020	-1.310
2020/01/31 01:36:25.5	88.180	0.310	-0.950	-1.230
2020/01/31 01:36:25.6	88.190	0.290	-0.870	-1.150
2020/01/31 01:36:25.7	88.210	0.260	-0.790	-1.060
2020/01/31 01:36:25.8	88.220	0.230	-0.710	-0.970
2020/01/31 01:36:25.9	88.230	0.190	-0.620	-0.860
2020/01/31 01:36:26.0	88.240	0.160	-0.530	-0.740
2020/01/31 01:36:26.1	88.240	0.130	-0.440	-0.620
2020/01/31 01:36:26.2	88.240	0.090	-0.350	-0.500
2020/01/31 01:36:26.3	88.240	0.050	-0.260	-0.370
2020/01/31 01:36:26.4	88.230	0.020	-0.170	-0.230
2020/01/31 01:36:26.5	88.230	-0.020	-0.080	-0.090
2020/01/31 01:36:26.6	88.220	-0.060	0.010	0.050
2020/01/31 01:36:26.7	88.210	-0.090	0.090	0.190
2020/01/31 01:36:26.8	88.200	-0.130	0.170	0.340
2020/01/31 01:36:26.9	88.190	-0.160	0.250	0.480
2020/01/31 01:36:27.0	88.180	-0.190	0.320	0.630
2020/01/31 01:36:27.1	88.170	-0.220	0.390	0.780
2020/01/31 01:36:27.2	88.160	-0.250	0.450	0.930
2020/01/31 01:36:27.3	88.150	-0.270	0.510	1.070
2020/01/31 01:36:27.4	88.150	-0.290	0.560	1.220
2020/01/31 01:36:27.5	88.140	-0.310	0.600	1.360
2020/01/31 01:36:27.6	88.130	-0.330	0.640	1.490
2020/01/31 01:36:27.7	88.130	-0.350	0.680	1.630
2020/01/31 01:36:27.8	88.120	-0.360	0.710	1.760
2020/01/31 01:36:27.9	88.120	-0.370	0.730	1.890
2020/01/31 01:36:28.0	88.110	-0.370	0.750	2.010
2020/01/31 01:36:28.1	88.110	-0.380	0.760	2.130
2020/01/31 01:36:28.2	88.110	-0.380	0.760	2.250
2020/01/31 01:36:28.3	88.110	-0.380	0.760	2.360
2020/01/31 01:36:28.4	88.110	-0.370	0.760	2.460
2020/01/31 01:36:28.5	88.100	-0.360	0.740	2.570
2020/01/31 01:36:28.6	88.110	-0.360	0.730	2.660
2020/01/31 01:36:28.7	88.110	-0.340	0.710	2.750
2020/01/31 01:36:28.8	88.110	-0.330	0.680	2.830
2020/01/31 01:36:28.9	88.110	-0.320	0.650	2.910
2020/01/31 01:36:29.0	88.110	-0.300	0.620	2.990
2020/01/31 01:36:29.1	88.110	-0.280	0.580	3.050
2020/01/31 01:36:29.2	88.120	-0.260	0.540	3.110
2020/01/31 01:36:29.3	88.120	-0.240	0.500	3.160
2020/01/31 01:36:29.4	88.130	-0.220	0.450	3.200
2020/01/31 01:36:29.5	88.140	-0.190	0.400	3.230
2020/01/31 01:36:29.6	88.140	-0.170	0.350	3.260
2020/01/31 01:36:29.7	88.150	-0.150	0.300	3.280
2020/01/31 01:36:29.8	88.160	-0.120	0.240	3.290
2020/01/31 01:36:29.9	88.170	-0.090	0.190	3.290
2020/01/31 01:36:30.0	88.200	-0.070	0.130	3.290
2020/01/31 01:36:30.1	88.210	-0.040	0.080	3.280
2020/01/31 01:36:30.2	88.220	-0.020	0.020	3.260
2020/01/31 01:36:30.3	88.230	0.010	-0.040	3.230
2020/01/31 01:36:30.4	88.250	0.040	-0.090	3.190
2020/01/31 01:36:30.5	88.260	0.060	-0.150	3.150
2020/01/31 01:36:30.6	88.280	0.090	-0.200	3.100
2020/01/31 01:36:30.7	88.290	0.120	-0.260	3.050
2020/01/31 01:36:30.8	88.310	0.140	-0.310	2.990
2020/01/31 01:36:30.9	88.320	0.170	-0.360	2.930
2020/01/31 01:36:31.0	88.320	0.190	-0.410	2.850
2020/01/31 01:36:31.1	88.340	0.220	-0.460	2.780
2020/01/31 01:36:31.2	88.350	0.240	-0.510	2.700
2020/01/31 01:36:31.3	88.370	0.260	-0.560	2.610
2020/01/31 01:36:31.4	88.390	0.290	-0.600	2.520
2020/01/31 01:36:31.5	88.400	0.310	-0.640	2.430
2020/01/31 01:36:31.6	88.420	0.330	-0.680	2.340
2020/01/31 01:36:31.7	88.440	0.350	-0.720	2.240
2020/01/31 01:36:31.8	88.460	0.370	-0.760	2.140
2020/01/31 01:36:31.9	88.480	0.390	-0.790	2.030
2020/01/31 01:36:32.0	88.500	0.410	-0.810	1.920
2020/01/31 01:36:32.1	88.520	0.420	-0.840	1.820
2020/01/31 01:36:32.2	88.550	0.440	-0.870	1.710
2020/01/31 01:36:32.3	88.570	0.450	-0.890	1.600
2020/01/31 01:36:32.4	88.600	0.470	-0.910	1.500
2020/01/31 01:36:32.5	88.630	0.480	-0.930	1.390
2020/01/31 01:36:32.6	88.650	0.490	-0.940	1.280
2020/01/31 01:36:32.7	88.680	0.500	-0.950	1.180
2020/01/31 01:36:32.8	88.710	0.510	-0.950	1.080
2020/01/31 01:36:32.9	88.740	0.520	-0.960	0.980
2020/01/31 01:36:33.0	88.770	0.520	-0.960	0.880
2020/01/31 01:36:33.1	88.800	0.530	-0.950	0.790
2020/01/31 01:36:33.2	88.830	0.530	-0.940	0.690
2020/01/31 01:36:33.3	88.860	0.530	-0.930	0.610
2020/01/31 01:36:33.4	88.890	0.520	-0.910	0.520
2020/01/31 01:36:33.5	88.920	0.520	-0.890	0.440
2020/01/31 01:36:33.6	88.950	0.510	-0.870	0.360
2020/01/31 01:36:33.7	88.980	0.500	-0.840	0.290
2020/01/31 01:36:33.8	89.000	0.480	-0.810	0.220
2020/01/31 01:36:33.9	89.030	0.470	-0.770	0.150
2020/01/31 01:36:34.0	89.050	0.450	-0.720	0.080
2020/01/31 01:36:34.1	89.070	0.430	-0.680	0.020
2020/01/31 01:36:34.2	89.090	0.400	-0.630	-0.040
2020/01/31 01:36:34.3	89.120	0.380	-0.580	-0.090
2020/01/31 01:36:34.4	89.140	0.350	-0.520	-0.150
2020/01/31 01:36:34.5	89.160	0.310	-0.460	-0.200
2020/01/31 01:36:34.6	89.180	0.280	-0.400	-0.250
2020/01/31 01:36:34.7	89.200	0.240	-0.330	-0.310
2020/01/31 01:36:34.8	89.220	0.210	-0.270	-0.350
2020/01/31 01:36:34.9	89.240	0.170	-0.200	-0.400
2020/01/31 01:36:35.0	89.250	0.120	-0.130	-0.440
2020/01/31 01:36:35.1	89.260	0.080	-0.060	-0.490
2020/01/31 01:36:35.2	89.280	0.040	0.010	-0.530
2020/01/31 01:36:35.3	89.300	-0.010	0.090	-0.570
2020/01/31 01:36:35.4	89.320	-0.050	0.160	-0.610
2020/01/31 01:36:35.5	89.340	-0.100	0.230	-0.640
2020/01/31 01:36:35.6	89.360	-0.150	0.300	-0.670
2020/01/31 01:36:35.7	89.380	-0.190	0.370	-0.700
2020/01/31 01:36:35.8	89.400	-0.240	0.440	-0.730
2020/01/31 01:36:35.9	89.410	-0.280	0.510	-0.750
2020/01/31 01:36:36.0	89.420	-0.330	0.570	-0.770
2020/01/31 01:36:36.1	89.440	-0.370	0.630	-0.780
2020/01/31 01:36:36.2	89.450	-0.410	0.690	-0.790
2020/01/31 01:36:36.3	89.470	-0.450	0.740	-0.790
2020/01/31 01:36:36.4	89.480	-0.490	0.790	-0.790
2020/01/31 01:36:36.5	89.490	-0.520	0.830	-0.780
2020/01/31 01:36:36.6	89.500	-0.560	0.870	-0.770
2020/01/31 01:36:36.7	89.510	-0.590	0.910	-0.750
2020/01/31 01:36:36.8	89.510	-0.620	0.930	-0.720
2020/01/31 01:36:36.9	89.520	-0.640	0.960	-0.690
2020/01/31 01:36:37.0	89.530	-0.660	0.970	-0.650
2020/01/31 01:36:37.1	89.530	-0.680	0.980	-0.610
2020/01/31 01:36:37.2	89.530	-0.700	0.980	-0.570
2020/01/31 01:36:37.3	89.530	-0.710	0.970	-0.520
2020/01/31 01:36:37.4	89.530	-0.720	0.960	-0.470
2020/01/31 01:36:37.5	89.530	-0.730	0.940	-0.420
2020/01/31 01:36:37.6	89.540	-0.730	0.920	-0.360
2020/01/31 01:36:37.7	89.540	-0.730	0.880	-0.310
2020/01/31 01:36:37.8	89.540	-0.730	0.840	-0.250
2020/01/31 01:36:37.9	89.540	-0.720	0.800	-0.190
2020/01/31 01:36:38.0	89.550	-0.710	0.740	-0.130
2020/01/31 01:36:38.1	89.560	-0.700	0.680	-0.080
2020/01/31 01:36:38.2	89.560	-0.680	0.620	-0.020
2020/01/31 01:36:38.3	89.570	-0.660	0.550	0.030
2020/01/31 01:36:38.4	89.580	-0.640	0.480	0.080
2020/01/31 01:36:38.5	89.590	-0.620	0.400	0.130
2020/01/31 01:36:38.6	89.610	-0.590	0.320	0.180
2020/01/31 01:36:38.7	89.620	-0.560	0.240	0.220
2020/01/31 01:36:38.8	89.640	-0.530	0.150	0.260
2020/01/31 01:36:38.9	89.650	-0.500	0.060	0.300
2020/01/31 01:36:39.0	89.670	-0.470	-0.030	0.340
2020/01/31 01:36:39.1	89.690	-0.440	-0.120	0.370
2020/01/31 01:36:39.2	89.710	-0.400	-0.210	0.400
2020/01/31 01:36:39.3	89.740	-0.370	-0.300	0.420
2020/01/31 01:36:39.4	89.760	-0.330	-0.380	0.450
2020/01/31 01:36:39.5	89.790	-0.290	-0.470	0.470
2020/01/31 01:36:39.6	89.810	-0.250	-0.550	0.500
2020/01/31 01:36:39.7	89.840	-0.220	-0.630	0.520
2020/01/31 01:36:39.8	89.860	-0.180	-0.700	0.540
2020/01/31 01:36:39.9	89.890	-0.140	-0.770	0.560
2020/01/31 01:36:40.0	89.910	-0.110	-0.840	0.580
2020/01/31 01:36:40.1	89.940	-0.070	-0.900	0.600
2020/01/31 01:36:40.2	89.970	-0.030	-0.950	0.630
2020/01/31 01:36:40.3	89.990	0.000	-1.000	0.650
2020/01/31 01:36:40.4	90.020	0.030	-1.040	0.670
2020/01/31 01:36:40.5	90.050	0.070	-1.080	0.700
2020/01/31 01:36:40.6	90.070	0.100	-1.110	0.730
2020/01/31 01:36:40.7	90.100	0.130	-1.130	0.750
2020/01/31 01:36:40.8	90.130	0.160	-1.150	0.780
2020/01/31 01:36:40.9	90.160	0.190	-1.160	0.810
2020/01/31 01:36:41.0	90.180	0.210	-1.160	0.840
2020/01/31 01:36:41.1	90.210	0.240	-1.160	0.870
2020/01/31 01:36:41.2	90.240	0.260	-1.150	0.900
2020/01/31 01:36:41.3	90.260	0.280	-1.130	0.930
2020/01/31 01:36:41.4	90.290	0.310	-1.110	0.970
2020/01/31 01:36:41.5	90.320	0.330	-1.090	1.000
2020/01/31 01:36:41.6	90.350	0.340	-1.060	1.030
2020/01/31 01:36:41.7	90.380	0.360	-1.030	1.060
2020/01/31 01:36:41.8	90.400	0.380	-0.990	1.090
2020/01/31 01:36:41.9	90.430	0.390	-0.950	1.120
2020/01/31 01:36:42.0	90.460	0.400	-0.900	1.140
2020/01/31 01:36:42.1	90.490	0.410	-0.860	1.170
2020/01/31 01:36:42.2	90.510	0.430	-0.810	1.200
2020/01/31 01:36:42.3	90.540	0.430	-0.760	1.230
2020/01/31 01:36:42.4	90.560	0.440	-0.710	1.250
2020/01/31 01:36:42.5	90.580	0.450	-0.660	1.270
2020/01/31 01:36:42.6	90.600	0.450	-0.610	1.300
2020/01/31 01:36:42.7	90.610	0.460	-0.560	1.320
2020/01/31 01:36:42.8	90.630	0.460	-0.500	1.340
2020/01/31 01:36:42.9	90.640	0.470	-0.460	1.350
2020/01/31 01:36:43.0	90.670	0.470	-0.410	1.370
2020/01/31 01:36:43.1	90.680	0.470	-0.360	1.380
2020/01/31 01:36:43.2	90.690	0.470	-0.320	1.400
2020/01/31 01:36:43.3	90.700	0.470	-0.270	1.410
2020/01/31 01:36:43.4	90.710	0.480	-0.230	1.420
2020/01/31 01:36:43.5	90.710	0.480	-0.190	1.420
2020/01/31 01:36:43.6	90.720	0.470	-0.160	1.430
2020/01/31 01:36:43.7	90.720	0.470	-0.120	1.430
2020/01/31 01:36:43.8	90.720	0.470	-0.090	1.430
2020/01/31 01:36:43.9	90.730	0.470	-0.060	1.430
2020/01/31 01:36:44.0	90.720	0.460	-0.030	1.440
2020/01/31 01:36:44.1	90.720	0.460	0.000	1.440
2020/01/31 01:36:44.2	90.720	0.460	0.030	1.440
2020/01/31 01:36:44.3	90.720	0.450	0.050	1.430
2020/01/31 01:36:44.4	90.720	0.440	0.080	1.430
2020/01/31 01:36:44.5	90.720	0.430	0.100	1.430
2020/01/31 01:36:44.6	90.720	0.430	0.120	1.420
2020/01/31 01:36:44.7	90.710	0.420	0.150	1.420
2020/01/31 01:36:44.8	90.710	0.410	0.170	1.410
2020/01/31 01:36:44.9	90.710	0.390	0.190	1.410
2020/01/31 01:36:45.0	90.700	0.380	0.210	1.400
2020/01/31 01:36:45.1	90.700	0.370	0.230	1.390
2020/01/31 01:36:45.2	90.690	0.350	0.250	1.390
2020/01/31 01:36:45.3	90.680	0.330	0.260	1.380
2020/01/31 01:36:45.4	90.670	0.310	0.280	1.370
2020/01/31 01:36:45.5	90.670	0.300	0.300	1.360
2020/01/31 01:36:45.6	90.660	0.280	0.320	1.340
2020/01/31 01:36:45.7	90.650	0.250	0.330	1.330
2020/01/31 01:36:45.8	90.650	0.230	0.350	1.310
2020/01/31 01:36:45.9	90.640	0.210	0.360	1.290
2020/01/31 01:36:46.0	90.630	0.190	0.370	1.270
2020/01/31 01:36:46.1	90.620	0.160	0.380	1.240
2020/01/31 01:36:46.2	90.620	0.140	0.390	1.210
2020/01/31 01:36:46.3	90.620	0.110	0.400	1.180
2020/01/31 01:36:46.4	90.610	0.090	0.400	1.140
2020/01/31 01:36:46.5	90.610	0.060	0.410	1.100
2020/01/31 01:36:46.6	90.610	0.040	0.410	1.060
2020/01/31 01:36:46.7	90.610	0.010	0.400	1.010
2020/01/31 01:36:46.8	90.620	-0.020	0.400	0.960
2020/01/31 01:36:46.9	90.620	-0.040	0.390	0.910
2020/01/31 01:36:47.0	90.630	-0.060	0.380	0.850
2020/01/31 01:36:47.1	90.630	-0.090	0.370	0.790
2020/01/31 01:36:47.2	90.640	-0.110	0.350	0.720
2020/01/31 01:36:47.3	90.650	-0.130	0.330	0.660
2020/01/31 01:36:47.4	90.660	-0.150	0.310	0.590
2020/01/31 01:36:47.5	90.670	-0.170	0.280	0.520
2020/01/31 01:36:47.6	90.690	-0.190	0.260	0.450
2020/01/31 01:36:47.7	90.700	-0.210	0.230	0.380
2020/01/31 01:36:47.8	90.720	-0.230	0.190	0.310
2020/01/31 01:36:47.9	90.740	-0.240	0.160	0.240
2020/01/31 01:36:48.0	90.770	-0.260	0.130	0.170
2020/01/31 01:36:48.1	90.790	-0.270	0.090	0.100
2020/01/31 01:36:48.2	90.820	-0.290	0.060	0.030
2020/01/31 01:36:48.3	90.840	-0.300	0.020	-0.040
2020/01/31 01:36:48.4	90.870	-0.310	-0.020	-0.100
2020/01/31 01:36:48.5	90.890	-0.320	-0.060	-0.160
2020/01/31 01:36:48.6	90.920	-0.330	-0.100	-0.220
2020/01/31 01:36:48.7	90.950	-0.340	-0.130	-0.280
2020/01/31 01:36:48.8	90.980	-0.350	-0.170	-0.330
2020/01/31 01:36:48.9	91.010	-0.350	-0.200	-0.370
2020/01/31 01:36:49.0	91.040	-0.360	-0.240	-0.410
2020/01/31 01:36:49.1	91.080	-0.360	-0.270	-0.450
2020/01/31 01:36:49.2	91.110	-0.370	-0.300	-0.480
2020/01/31 01:36:49.3	91.140	-0.370	-0.330	-0.500
2020/01/31 01:36:49.4	91.180	-0.370	-0.360	-0.520
2020/01/31 01:36:49.5	91.210	-0.370	-0.380	-0.540
2020/01/31 01:36:49.6	91.240	-0.370	-0.400	-0.540
2020/01/31 01:36:49.7	91.280	-0.380	-0.420	-0.550
2020/01/31 01:36:49.8	91.310	-0.380	-0.430	-0.550
2020/01/31 01:36:49.9	91.340	-0.370	-0.440	-0.540
2020/01/31 01:36:50.0	91.370	-0.370	-0.450	-0.530
2020/01/31 01:36:50.1	91.400	-0.370	-0.450	-0.520
2020/01/31 01:36:50.2	91.420	-0.370	-0.460	-0.500
2020/01/31 01:36:50.3	91.450	-0.360	-0.460	-0.480
2020/01/31 01:36:50.4	91.470	-0.360	-0.450	-0.450
2020/01/31 01:36:50.5	91.490	-0.350	-0.450	-0.420
2020/01/31 01:36:50.6	91.520	-0.350	-0.440	-0.390
2020/01/31 01:36:50.7	91.530	-0.340	-0.430	-0.350
2020/01/31 01:36:50.8	91.550	-0.330	-0.420	-0.310
2020/01/31 01:36:50.9	91.570	-0.320	-0.410	-0.270
2020/01/31 01:36:51.0	91.570	-0.320	-0.390	-0.220
2020/01/31 01:36:51.1	91.580	-0.310	-0.380	-0.180
2020/01/31 01:36:51.2	91.600	-0.300	-0.360	-0.130
2020/01/31 01:36:51.3	91.610	-0.280	-0.350	-0.080
2020/01/31 01:36:51.4	91.620	-0.270	-0.330	-0.030
2020/01/31 01:36:51.5	91.630	-0.260	-0.310	0.030
2020/01/31 01:36:51.6	91.640	-0.250	-0.300	0.080
2020/01/31 01:36:51.7	91.650	-0.230	-0.280	0.130
2020/01/31 01:36:51.8	91.660	-0.220	-0.270	0.190
2020/01/31 01:36:51.9	91.660	-0.200	-0.250	0.250
2020/01/31 01:36:52.0	91.660	-0.190	-0.240	0.300
2020/01/31 01:36:52.1	91.670	-0.170	-0.230	0.360
2020/01/31 01:36:52.2	91.670	-0.150	-0.220	0.410
2020/01/31 01:36:52.3	91.680	-0.130	-0.210	0.470
2020/01/31 01:36:52.4	91.680	-0.110	-0.210	0.530
2020/01/31 01:36:52.5	91.690	-0.100	-0.200	0.580
2020/01/31 01:36:52.6	91.690	-0.080	-0.200	0.640
2020/01/31 01:36:52.7	91.690	-0.060	-0.200	0.690
2020/01/31 01:36:52.8	91.700	-0.040	-0.200	0.750
2020/01/31 01:36:52.9	91.700	-0.020	-0.210	0.800
2020/01/31 01:36:53.0	91.710	0.000	-0.210	0.870
2020/01/31 01:36:53.1	91.720	0.020	-0.220	0.920
2020/01/31 01:36:53.2	91.720	0.040	-0.220	0.970
2020/01/31 01:36:53.3	91.730	0.060	-0.230	1.030
2020/01/31 01:36:53.4	91.740	0.080	-0.240	1.080
2020/01/31 01:36:53.5	91.750	0.100	-0.250	1.130
2020/01/31 01:36:53.6	91.750	0.120	-0.250	1.180
2020/01/31 01:36:53.7	91.760	0.140	-0.260	1.230
2020/01/31 01:36:53.8	91.770	0.150	-0.270	1.280
2020/01/31 01:36:53.9	91.780	0.170	-0.280	1.330
2020/01/31 01:36:54.0	91.790	0.180	-0.280	1.370
2020/01/31 01:36:54.1	91.800	0.190	-0.280	1.420
2020/01/31 01:36:54.2	91.810	0.200	-0.290	1.460
2020/01/31 01:36:54.3	91.830	0.210	-0.280	1.500
2020/01/31 01:36:54.4	91.840	0.220	-0.280	1.540
2020/01/31 01:36:54.5	91.860	0.230	-0.270	1.570
2020/01/31 01:36:54.6	91.870	0.230	-0.260	1.610
2020/01/31 01:36:54.7	91.890	0.230	-0.250	1.630
2020/01/31 01:36:54.8	91.900	0.230	-0.230	1.660
2020/01/31 01:36:54.9	91.920	0.230	-0.210	1.680
2020/01/31 01:36:55.0	91.940	0.230	-0.190	1.700
2020/01/31 01:36:55.1	91.960	0.220	-0.160	1.710
2020/01/31 01:36:55.2	91.980	0.210	-0.130	1.720
2020/01/31 01:36:55.3	92.000	0.200	-0.100	1.720
2020/01/31 01:36:55.4	92.020	0.190	-0.060	1.720
2020/01/31 01:36:55.5	92.030	0.180	-0.030	1.720
2020/01/31 01:36:55.6	92.050	0.160	0.010	1.710
2020/01/31 01:36:55.7	92.070	0.150	0.050	1.700
2020/01/31 01:36:55.8	92.090	0.130	0.090	1.680
2020/01/31 01:36:55.9	92.100	0.110	0.120	1.660
2020/01/31 01:36:56.0	92.120	0.100	0.160	1.640
2020/01/31 01:36:56.1	92.140	0.080	0.200	1.610
2020/01/31 01:36:56.2	92.150	0.060	0.230	1.580
2020/01/31 01:36:56.3	92.160	0.040	0.260	1.540
2020/01/31 01:36:56.4	92.170	0.030	0.290	1.510
2020/01/31 01:36:56.5	92.190	0.010	0.320	1.460
2020/01/31 01:36:56.6	92.200	-0.000	0.340	1.420
2020/01/31 01:36:56.7	92.200	-0.020	0.350	1.370
2020/01/31 01:36:56.8	92.210	-0.030	0.360	1.320
2020/01/31 01:36:56.9	92.220	-0.040	0.370	1.270
2020/01/31 01:36:57.0	92.220	-0.050	0.360	1.210
2020/01/31 01:36:57.1	92.220	-0.060	0.360	1.160
2020/01/31 01:36:57.2	92.230	-0.060	0.340	1.100
2020/01/31 01:36:57.3	92.230	-0.060	0.320	1.050
2020/01/31 01:36:57.4	92.240	-0.060	0.300	0.990
2020/01/31 01:36:57.5	92.240	-0.060	0.270	0.940
2020/01/31 01:36:57.6	92.240	-0.050	0.230	0.880
2020/01/31 01:36:57.7	92.240	-0.040	0.190	0.830
2020/01/31 01:36:57.8	92.240	-0.030	0.140	0.770
2020/01/31 01:36:57.9	92.240	-0.020	0.080	0.720
2020/01/31 01:36:58.0	92.240	-0.000	0.020	0.680
2020/01/31 01:36:58.1	92.230	0.020	-0.040	0.630
2020/01/31 01:36:58.2	92.230	0.040	-0.110	0.580
2020/01/31 01:36:58.3	92.220	0.070	-0.180	0.540
2020/01/31 01:36:58.4	92.210	0.090	-0.250	0.500
2020/01/31 01:36:58.5	92.200	0.120	-0.320	0.460
2020/01/31 01:36:58.6	92.200	0.150	-0.400	0.420
2020/01/31 01:36:58.7	92.190	0.180	-0.470	0.380
2020/01/31 01:36:58.8	92.180	0.210	-0.540	0.350
2020/01/31 01:36:58.9	92.170	0.250	-0.610	0.310
2020/01/31 01:36:59.0	92.170	0.280	-0.680	0.280
2020/01/31 01:36:59.1	92.160	0.310	-0.750	0.250
2020/01/31 01:36:59.2	92.160	0.340	-0.810	0.210
2020/01/31 01:36:59.3	92.150	0.370	-0.860	0.180
2020/01/31 01:36:59.4	92.150	0.390	-0.910	0.150
2020/01/31 01:36:59.5	92.150	0.420	-0.950	0.130
2020/01/31 01:36:59.6	92.140	0.440	-0.990	0.100
2020/01/31 01:36:59.7	92.140	0.460	-1.010	0.080
2020/01/31 01:36:59.8	92.140	0.470	-1.030	0.050
2020/01/31 01:36:59.9	92.140	0.480	-1.040	0.030
2020/01/31 01:37:00.0	92.150	0.490	-1.040	0.010
2020/01/31 01:37:00.1	92.160	0.490	-1.030	-0.000
2020/01/31 01:37:00.2	92.160	0.490	-1.020	-0.020
2020/01/31 01:37:00.3	92.160	0.480	-0.990	-0.030
2020/01/31 01:37:00.4	92.170	0.470	-0.950	-0.050
2020/01/31 01:37:00.5	92.170	0.460	-0.910	-0.060
2020/01/31 01:37:00.6	92.180	0.440	-0.860	-0.060
2020/01/31 01:37:00.7	92.180	0.420	-0.800	-0.070
2020/01/31 01:37:00.8	92.190	0.390	-0.730	-0.080
2020/01/31 01:37:00.9	92.200	0.360	-0.660	-0.080
2020/01/31 01:37:01.0	92.200	0.320	-0.580	-0.080
2020/01/31 01:37:01.1	92.210	0.280	-0.490	-0.080
2020/01/31 01:37:01.2	92.220	0.240	-0.400	-0.080
2020/01/31 01:37:01.3	92.240	0.190	-0.310	-0.080
2020/01/31 01:37:01.4	92.250	0.140	-0.210	-0.080
2020/01/31 01:37:01.5	92.260	0.090	-0.120	-0.080
2020/01/31 01:37:01.6	92.280	0.040	-0.020	-0.070
2020/01/31 01:37:01.7	92.300	-0.010	0.070	-0.070
2020/01/31 01:37:01.8	92.320	-0.060	0.170	-0.070
2020/01/31 01:37:01.9	92.340	-0.120	0.260	-0.060
2020/01/31 01:37:02.0	92.380	-0.170	0.350	-0.060
2020/01/31 01:37:02.1	92.400	-0.220	0.440	-0.060
2020/01/31 01:37:02.2	92.430	-0.270	0.520	-0.050
2020/01/31 01:37:02.3	92.470	-0.310	0.590	-0.050
2020/01/31 01:37:02.4	92.500	-0.360	0.650	-0.050
2020/01/31 01:37:02.5	92.540	-0.400	0.710	-0.040
2020/01/31 01:37:02.6	92.580	-0.440	0.760	-0.040
2020/01/31 01:37:02.7	92.620	-0.470	0.800	-0.030
2020/01/31 01:37:02.8	92.660	-0.500	0.830	-0.030
2020/01/31 01:37:02.9	92.710	-0.520	0.860	-0.020
2020/01/31 01:37:03.0	92.740	-0.540	0.870	-0.020
2020/01/31 01:37:03.1	92.790	-0.560	0.870	-0.010
2020/01/31 01:37:03.2	92.840	-0.560	0.860	-0.000
2020/01/31 01:37:03.3	92.890	-0.570	0.840	0.010
2020/01/31 01:37:03.4	92.940	-0.570	0.820	0.020
2020/01/31 01:37:03.5	92.990	-0.560	0.780	0.030
2020/01/31 01:37:03.6	93.050	-0.550	0.740	0.040
2020/01/31 01:37:03.7	93.100	-0.530	0.690	0.050
2020/01/31 01:37:03.8	93.150	-0.510	0.630	0.070
2020/01/31 01:37:03.9	93.200	-0.480	0.570	0.090
2020/01/31 01:37:04.0	93.260	-0.450	0.500	0.100
2020/01/31 01:37:04.1	93.310	-0.420	0.420	0.120
2020/01/31 01:37:04.2	93.360	-0.390	0.340	0.150
2020/01/31 01:37:04.3	93.400	-0.350	0.260	0.170
2020/01/31 01:37:04.4	93.450	-0.310	0.180	0.200
2020/01/31 01:37:04.5	93.490	-0.260	0.090	0.230
2020/01/31 01:37:04.6	93.530	-0.220	0.010	0.260
2020/01/31 01:37:04.7	93.570	-0.180	-0.070	0.300
2020/01/31 01:37:04.8	93.610	-0.130	-0.160	0.340
2020/01/31 01:37:04.9	93.640	-0.090	-0.240	0.380
2020/01/31 01:37:05.0	93.670	-0.050	-0.320	0.430
2020/01/31 01:37:05.1	93.690	-0.000	-0.390	0.480
2020/01/31 01:37:05.2	93.710	0.040	-0.460	0.530
2020/01/31 01:37:05.3	93.720	0.080	-0.520	0.590
2020/01/31 01:37:05.4	93.730	0.110	-0.580	0.640
2020/01/31 01:37:05.5	93.740	0.150	-0.630	0.710
2020/01/31 01:37:05.6	93.740	0.180	-0.680	0.770
2020/01/31 01:37:05.7	93.740	0.210	-0.720	0.840
2020/01/31 01:37:05.8	93.730	0.230	-0.750	0.910
2020/01/31 01:37:05.9	93.710	0.260	-0.770	0.980
2020/01/31 01:37:06.0	93.690	0.280	-0.780	1.060
2020/01/31 01:37:06.1	93.670	0.290	-0.790	1.130
2020/01/31 01:37:06.2	93.650	0.300	-0.800	1.210
2020/01/31 01:37:06.3	93.610	0.310	-0.790	1.280
2020/01/31 01:37:06.4	93.580	0.320	-0.780	1.360
2020/01/31 01:37:06.5	93.540	0.320	-0.760	1.440
2020/01/31 01:37:06.6	93.500	0.310	-0.740	1.510
2020/01/31 01:37:06.7	93.460	0.310	-0.710	1.580
2020/01/31 01:37:06.8	93.420	0.300	-0.680	1.650
2020/01/31 01:37:06.9	93.380	0.290	-0.640	1.720
2020/01/31 01:37:07.0	93.350	0.270	-0.600	1.790
2020/01/31 01:37:07.1	93.300	0.260	-0.550	1.840
2020/01/31 01:37:07.2	93.260	0.240	-0.500	1.900
2020/01/31 01:37:07.3	93.220	0.220	-0.450	1.940
2020/01/31 01:37:07.4	93.180	0.190	-0.400	1.990
2020/01/31 01:37:07.5	93.140	0.170	-0.340	2.020
2020/01/31 01:37:07.6	93.110	0.140	-0.290	2.050
2020/01/31 01:37:07.7	93.080	0.120	-0.230	2.070
2020/01/31 01:37:07.8	93.050	0.090	-0.180	2.080
2020/01/31 01:37:07.9	93.020	0.060	-0.130	2.090
2020/01/31 01:37:08.0	93.000	0.040	-0.070	2.080
2020/01/31 01:37:08.1	92.980	0.010	-0.020	2.080
2020/01/31 01:37:08.2	92.960	-0.020	0.020	2.060
2020/01/31 01:37:08.3	92.950	-0.040	0.060	2.040
2020/01/31 01:37:08.4	92.940	-0.070	0.100	2.010
2020/01/31 01:37:08.5	92.940	-0.090	0.130	1.980
2020/01/31 01:37:08.6	92.940	-0.120	0.160	1.940
2020/01/31 01:37:08.7	92.940	-0.140	0.180	1.900
2020/01/31 01:37:08.8	92.940	-0.160	0.200	1.850
2020/01/31 01:37:08.9	92.950	-0.180	0.210	1.790
2020/01/31 01:37:09.0	92.950	-0.200	0.210	1.740
2020/01/31 01:37:09.1	92.970	-0.210	0.220	1.670
2020/01/31 01:37:09.2	92.980	-0.230	0.220	1.610
2020/01/31 01:37:09.3	93.000	-0.240	0.210	1.540
2020/01/31 01:37:09.4	93.020	-0.250	0.200	1.470
2020/01/31 01:37:09.5	93.040	-0.260	0.190	1.400
2020/01/31 01:37:09.6	93.070	-0.270	0.170	1.320
2020/01/31 01:37:09.7	93.090	-0.270	0.150	1.250
2020/01/31 01:37:09.8	93.120	-0.280	0.130	1.170
2020/01/31 01:37:09.9	93.150	-0.280	0.100	1.090
2020/01/31 01:37:10.0	93.160	-0.280	0.080	1.010
2020/01/31 01:37:10.1	93.190	-0.280	0.040	0.930
2020/01/31 01:37:10.2	93.220	-0.280	0.010	0.850
2020/01/31 01:37:10.3	93.250	-0.280	-0.020	0.770
2020/01/31 01:37:10.4	93.280	-0.280	-0.060	0.690
2020/01/31 01:37:10.5	93.300	-0.280	-0.090	0.610
2020/01/31 01:37:10.6	93.330	-0.270	-0.130	0.530
2020/01/31 01:37:10.7	93.360	-0.270	-0.160	0.450
2020/01/31 01:37:10.8	93.380	-0.260	-0.200	0.380
2020/01/31 01:37:10.9	93.400	-0.260	-0.230	0.300
2020/01/31 01:37:11.0	93.420	-0.250	-0.270	0.230
2020/01/31 01:37:11.1	93.440	-0.240	-0.300	0.160
2020/01/31 01:37:11.2	93.460	-0.230	-0.330	0.090
2020/01/31 01:37:11.3	93.480	-0.230	-0.350	0.020
2020/01/31 01:37:11.4	93.500	-0.220	-0.380	-0.050
2020/01/31 01:37:11.5	93.510	-0.210	-0.400	-0.110
2020/01/31 01:37:11.6	93.520	-0.200	-0.420	-0.170
2020/01/31 01:37:11.7	93.540	-0.190	-0.440	-0.230
2020/01/31 01:37:11.8	93.550	-0.180	-0.450	-0.280
2020/01/31 01:37:11.9	93.560	-0.170	-0.460	-0.330
2020/01/31 01:37:12.0	93.560	-0.160	-0.460	-0.380
2020/01/31 01:37:12.1	93.570	-0.150	-0.470	-0.430
2020/01/31 01:37:12.2	93.570	-0.140	-0.460	-0.470
2020/01/31 01:37:12.3	93.580	-0.130	-0.460	-0.510
2020/01/31 01:37:12.4	93.580	-0.120	-0.450	-0.540
2020/01/31 01:37:12.5	93.590	-0.110	-0.440	-0.570
2020/01/31 01:37:12.6	93.590	-0.090	-0.420	-0.600
2020/01/31 01:37:12.7	93.590	-0.080	-0.410	-0.620
2020/01/31 01:37:12.8	93.590	-0.070	-0.390	-0.640
2020/01/31 01:37:12.9	93.600	-0.060	-0.360	-0.660
2020/01/31 01:37:13.0	93.600	-0.050	-0.340	-0.660
2020/01/31 01:37:13.1	93.610	-0.040	-0.310	-0.670
2020/01/31 01:37:13.2	93.610	-0.030	-0.290	-0.680
2020/01/31 01:37:13.3	93.610	-0.020	-0.260	-0.680
2020/01/31 01:37:13.4	93.610	-0.000	-0.230	-0.670
2020/01/31 01:37:13.5	93.610	0.010	-0.200	-0.660
2020/01/31 01:37:13.6	93.610	0.020	-0.170	-0.650
2020/01/31 01:37:13.7	93.610	0.030	-0.150	-0.630
2020/01/31 01:37:13.8	93.610	0.040	-0.120	-0.610
2020/01/31 01:37:13.9	93.610	0.050	-0.090	-0.580
2020/01/31 01:37:14.0	93.610	0.070	-0.060	-0.550
2020/01/31 01:37:14.1	93.610	0.080	-0.040	-0.510
2020/01/31 01:37:14.2	93.610	0.090	-0.020	-0.470
2020/01/31 01:37:14.3	93.600	0.100	0.000	-0.430
2020/01/31 01:37:14.4	93.600	0.110	0.020	-0.390
2020/01/31 01:37:14.5	93.600	0.130	0.040	-0.350
2020/01/31 01:37:14.6	93.600	0.140	0.050	-0.300
2020/01/31 01:37:14.7	93.600	0.150	0.060	-0.250
2020/01/31 01:37:14.8	93.600	0.170	0.070	-0.200
2020/01/31 01:37:14.9	93.600	0.180	0.080	-0.150
2020/01/31 01:37:15.0	93.590	0.190	0.080	-0.100
2020/01/31 01:37:15.1	93.590	0.210	0.080	-0.050
2020/01/31 01:37:15.2	93.590	0.220	0.080	0.000
2020/01/31 01:37:15.3	93.590	0.230	0.080	0.050
2020/01/31 01:37:15.4	93.590	0.250	0.070	0.100
2020/01/31 01:37:15.5	93.590	0.260	0.070	0.150
2020/01/31 01:37:15.6	93.590	0.280	0.060	0.200
2020/01/31 01:37:15.7	93.590	0.290	0.040	0.250
2020/01/31 01:37:15.8	93.590	0.300	0.030	0.290
2020/01/31 01:37:15.9	93.590	0.320	0.010	0.340
2020/01/31 01:37:16.0	93.580	0.330	-0.000	0.380
2020/01/31 01:37:16.1	93.580	0.340	-0.020	0.420
2020/01/31 01:37:16.2	93.580	0.350	-0.040	0.460
2020/01/31 01:37:16.3	93.580	0.360	-0.070	0.500
2020/01/31 01:37:16.4	93.580	0.370	-0.090	0.540
2020/01/31 01:37:16.5	93.580	0.380	-0.110	0.570
2020/01/31 01:37:16.6	93.580	0.390	-0.140	0.610
2020/01/31 01:37:16.7	93.580	0.400	-0.160	0.640
2020/01/31 01:37:16.8	93.570	0.410	-0.190	0.680
2020/01/31 01:37:16.9	93.570	0.410	-0.210	0.710
2020/01/31 01:37:17.0	93.580	0.420	-0.240	0.740
2020/01/31 01:37:17.1	93.570	0.420	-0.260	0.780
2020/01/31 01:37:17.2	93.570	0.420	-0.280	0.810
2020/01/31 01:37:17.3	93.560	0.420	-0.300	0.840
2020/01/31 01:37:17.4	93.560	0.420	-0.320	0.870
2020/01/31 01:37:17.5	93.550	0.420	-0.340	0.900
2020/01/31 01:37:17.6	93.540	0.420	-0.350	0.940
2020/01/31 01:37:17.7	93.530	0.410	-0.360	0.970
2020/01/31 01:37:17.8	93.530	0.410	-0.370	1.000
2020/01/31 01:37:17.9	93.520	0.400	-0.380	1.040
2020/01/31 01:37:18.0	93.520	0.390	-0.380	1.070
2020/01/31 01:37:18.1	93.510	0.380	-0.380	1.110
2020/01/31 01:37:18.2	93.500	0.370	-0.380	1.140
2020/01/31 01:37:18.3	93.500	0.360	-0.380	1.170
2020/01/31 01:37:18.4	93.490	0.350	-0.380	1.210
2020/01/31 01:37:18.5	93.490	0.330	-0.370	1.240
2020/01/31 01:37:18.6	93.480	0.320	-0.370	1.270
2020/01/31 01:37:18.7	93.480	0.310	-0.360	1.310
2020/01/31 01:37:18.8	93.480	0.290	-0.350	1.340
2020/01/31 01:37:18.9	93.480	0.280	-0.340	1.370
2020/01/31 01:37:19.0	93.480	0.260	-0.330	1.390
2020/01/31 01:37:19.1	93.480	0.240	-0.320	1.420
2020/01/31 01:37:19.2	93.490	0.230	-0.310	1.450
2020/01/31 01:37:19.3	93.500	0.210	-0.300	1.480
2020/01/31 01:37:19.4	93.510	0.190	-0.290	1.500
2020/01/31 01:37:19.5	93.520	0.170	-0.280	1.520
2020/01/31 01:37:19.6	93.530	0.150	-0.260	1.550
2020/01/31 01:37:19.7	93.550	0.130	-0.250	1.570
2020/01/31 01:37:19.8	93.560	0.110	-0.240	1.590
2020/01/31 01:37:19.9	93.580	0.090	-0.230	1.600
2020/01/31 01:37:20.0	93.600	0.070	-0.220	1.630
2020/01/31 01:37:20.1	93.620	0.050	-0.210	1.640
2020/01/31 01:37:20.2	93.640	0.030	-0.190	1.660
2020/01/31 01:37:20.3	93.660	0.010	-0.180	1.670
2020/01/31 01:37:20.4	93.680	-0.020	-0.160	1.680
2020/01/31 01:37:20.5	93.700	-0.040	-0.150	1.690
2020/01/31 01:37:20.6	93.720	-0.070	-0.130	1.690
2020/01/31 01:37:20.7	93.740	-0.090	-0.110	1.700
2020/01/31 01:37:20.8	93.770	-0.120	-0.090	1.700
2020/01/31 01:37:20.9	93.790	-0.140	-0.080	1.700
2020/01/31 01:37:21.0	93.810	-0.170	-0.050	1.700
2020/01/31 01:37:21.1	93.830	-0.200	-0.030	1.690
2020/01/31 01:37:21.2	93.850	-0.220	-0.010	1.690
2020/01/31 01:37:21.3	93.860	-0.250	0.010	1.680
2020/01/31 01:37:21.4	93.880	-0.280	0.030	1.670
2020/01/31 01:37:21.5	93.890	-0.300	0.050	1.670
2020/01/31 01:37:21.6	93.910	-0.330	0.070	1.660
2020/01/31 01:37:21.7	93.920	-0.360	0.090	1.650
2020/01/31 01:37:21.8	93.920	-0.380	0.110	1.640
2020/01/31 01:37:21.9	93.930	-0.410	0.130	1.630
2020/01/31 01:37:22.0	93.940	-0.430	0.160	1.620
2020/01/31 01:37:22.1	93.940	-0.450	0.180	1.610
2020/01/31 01:37:22.2	93.930	-0.480	0.200	1.600
2020/01/31 01:37:22.3	93.930	-0.500	0.220	1.590
2020/01/31 01:37:22.4	93.920	-0.520	0.230	1.580
2020/01/31 01:37:22.5	93.900	-0.540	0.250	1.580
2020/01/31 01:37:22.6	93.890	-0.560	0.270	1.570
2020/01/31 01:37:22.7	93.870	-0.570	0.290	1.560
2020/01/31 01:37:22.8	93.850	-0.590	0.300	1.550
2020/01/31 01:37:22.9	93.830	-0.600	0.320	1.540
2020/01/31 01:37:23.0	93.810	-0.610	0.330	1.520
2020/01/31 01:37:23.1	93.790	-0.620	0.340	1.510
2020/01/31 01:37:23.2	93.770	-0.630	0.340	1.500
2020/01/31 01:37:23.3	93.740	-0.630	0.350	1.480
2020/01/31 01:37:23.4	93.720	-0.630	0.350	1.460
2020/01/31 01:37:23.5	93.700	-0.640	0.350	1.430
2020/01/31 01:37:23.6	93.680	-0.630	0.350	1.410
2020/01/31 01:37:23.7	93.660	-0.630	0.340	1.370
2020/01/31 01:37:23.8	93.650	-0.620	0.330	1.340
2020/01/31 01:37:23.9	93.640	-0.610	0.310	1.300
2020/01/31 01:37:24.0	93.620	-0.600	0.300	1.260
2020/01/31 01:37:24.1	93.610	-0.590	0.270	1.220
2020/01/31 01:37:24.2	93.600	-0.570	0.250	1.170
2020/01/31 01:37:24.3	93.600	-0.550	0.210	1.120
2020/01/31 01:37:24.4	93.600	-0.530	0.180	1.070
2020/01/31 01:37:24.5	93.610	-0.500	0.140	1.010
2020/01/31 01:37:24.6	93.620	-0.470	0.100	0.950
2020/01/31 01:37:24.7	93.630	-0.440	0.050	0.890
2020/01/31 01:37:24.8	93.650	-0.410	0.000	0.820
2020/01/31 01:37:24.9	93.660	-0.370	-0.050	0.750
2020/01/31 01:37:25.0	93.670	-0.340	-0.110	0.680
2020/01/31 01:37:25.1	93.700	-0.300	-0.170	0.610
2020/01/31 01:37:25.2	93.730	-0.260	-0.230	0.540
2020/01/31 01:37:25.3	93.760	-0.220	-0.290	0.460
2020/01/31 01:37:25.4	93.790	-0.170	-0.350	0.390
2020/01/31 01:37:25.5	93.820	-0.130	-0.410	0.320
2020/01/31 01:37:25.6	93.860	-0.080	-0.470	0.250
2020/01/31 01:37:25.7	93.890	-0.040	-0.530	0.170
2020/01/31 01:37:25.8	93.930	0.010	-0.590	0.100
2020/01/31 01:37:25.9	93.970	0.050	-0.650	0.030
2020/01/31 01:37:26.0	94.020	0.100	-0.700	-0.040
2020/01/31 01:37:26.1	94.060	0.140	-0.750	-0.110
2020/01/31 01:37:26.2	94.090	0.190	-0.790	-0.170
2020/01/31 01:37:26.3	94.130	0.230	-0.840	-0.240
2020/01/31 01:37:26.4	94.170	0.270	-0.880	-0.300
2020/01/31 01:37:26.5	94.210	0.310	-0.910	-0.360
2020/01/31 01:37:26.6	94.240	0.350	-0.940	-0.410
2020/01/31 01:37:26.7	94.280	0.390	-0.960	-0.470
2020/01/31 01:37:26.8	94.310	0.430	-0.980	-0.510
2020/01/31 01:37:26.9	94.340	0.460	-0.990	-0.560
2020/01/31 01:37:27.0	94.360	0.490	-1.010	-0.600
2020/01/31 01:37:27.1	94.390	0.520	-1.010	-0.630
2020/01/31 01:37:27.2	94.410	0.540	-1.000	-0.670
2020/01/31 01:37:27.3	94.430	0.570	-0.990	-0.690
2020/01/31 01:37:27.4	94.440	0.590	-0.970	-0.710
2020/01/31 01:37:27.5	94.460	0.600	-0.950	-0.730
2020/01/31 01:37:27.6	94.470	0.610	-0.920	-0.740
2020/01/31 01:37:27.7	94.480	0.620	-0.890	-0.740
2020/01/31 01:37:27.8	94.480	0.630	-0.850	-0.750
2020/01/31 01:37:27.9	94.480	0.630	-0.800	-0.740
2020/01/31 01:37:28.0	94.480	0.630	-0.740	-0.720
2020/01/31 01:37:28.1	94.480	0.620	-0.690	-0.710
2020/01/31 01:37:28.2	94.470	0.610	-0.630	-0.690
2020/01/31 01:37:28.3	94.460	0.600	-0.560	-0.660
2020/01/31 01:37:28.4	94.440	0.580	-0.500	-0.630
2020/01/31 01:37:28.5	94.430	0.560	-0.430	-0.590
2020/01/31 01:37:28.6	94.410	0.540	-0.350	-0.550
2020/01/31 01:37:28.7	94.390	0.510	-0.280	-0.500
2020/01/31 01:37:28.8	94.360	0.480	-0.200	-0.440
2020/01/31 01:37:28.9	94.330	0.440	-0.120	-0.390
2020/01/31 01:37:29.0	94.310	0.400	-0.040	-0.320
2020/01/31 01:37:29.1	94.280	0.360	0.040	-0.250
2020/01/31 01:37:29.2	94.250	0.320	0.120	-0.180
2020/01/31 01:37:29.3	94.210	0.280	0.190	-0.110
2020/01/31 01:37:29.4	94.180	0.230	0.270	-0.030
2020/01/31 01:37:29.5	94.140	0.180	0.340	0.040
2020/01/31 01:37:29.6	94.100	0.130	0.410	0.120
2020/01/31 01:37:29.7	94.060	0.080	0.480	0.200
2020/01/31 01:37:29.8	94.020	0.030	0.540	0.290
2020/01/31 01:37:29.9	93.980	-0.010	0.590	0.370
2020/01/31 01:37:30.0	93.940	-0.060	0.650	0.450
2020/01/31 01:37:30.1	93.900	-0.110	0.690	0.530
2020/01/31 01:37:30.2	93.870	-0.150	0.720	0.610
2020/01/31 01:37:30.3	93.830	-0.190	0.750	0.690
2020/01/31 01:37:30.4	93.800	-0.230	0.770	0.770
2020/01/31 01:37:30.5	93.760	-0.270	0.780	0.840
2020/01/31 01:37:30.6	93.730	-0.300	0.790	0.910
2020/01/31 01:37:30.7	93.700	-0.330	0.780	0.980
2020/01/31 01:37:30.8	93.680	-0.350	0.770	1.040
2020/01/31 01:37:30.9	93.650	-0.370	0.750	1.100
2020/01/31 01:37:31.0	93.640	-0.390	0.710	1.150
2020/01/31 01:37:31.1	93.620	-0.400	0.670	1.200
2020/01/31 01:37:31.2	93.610	-0.400	0.620	1.240
2020/01/31 01:37:31.3	93.600	-0.400	0.560	1.270
2020/01/31 01:37:31.4	93.600	-0.390	0.500	1.300
2020/01/31 01:37:31.5	93.600	-0.380	0.430	1.320
2020/01/31 01:37:31.6	93.610	-0.360	0.350	1.340
2020/01/31 01:37:31.7	93.620	-0.340	0.260	1.360
2020/01/31 01:37:31.8	93.630	-0.310	0.170	1.360
2020/01/31 01:37:31.9	93.650	-0.270	0.070	1.360
2020/01/31 01:37:32.0	93.680	-0.240	-0.020	1.360
2020/01/31 01:37:32.1	93.710	-0.200	-0.130	1.350
2020/01/31 01:37:32.2	93.730	-0.150	-0.230	1.340
2020/01/31 01:37:32.3	93.760	-0.100	-0.330	1.330
2020/01/31 01:37:32.4	93.800	-0.050	-0.440	1.310
2020/01/31 01:37:32.5	93.830	-0.000	-0.540	1.290
2020/01/31 01:37:32.6	93.870	0.050	-0.640	1.270
2020/01/31 01:37:32.7	93.910	0.100	-0.730	1.240
2020/01/31 01:37:32.8	93.940	0.150	-0.820	1.220
2020/01/31 01:37:32.9	93.980	0.200	-0.900	1.190
2020/01/31 01:37:33.0	94.040	0.250	-0.980	1.170
2020/01/31 01:37:33.1	94.080	0.300	-1.040	1.140
2020/01/31 01:37:33.2	94.110	0.350	-1.100	1.110
2020/01/31 01:37:33.3	94.150	0.390	-1.150	1.090
2020/01/31 01:37:33.4	94.180	0.420	-1.190	1.060
2020/01/31 01:37:33.5	94.220	0.460	-1.210	1.040
2020/01/31 01:37:33.6	94.250	0.480	-1.220	1.010
2020/01/31 01:37:33.7	94.280	0.510	-1.230	0.990
2020/01/31 01:37:33.8	94.310	0.520	-1.210	0.970
2020/01/31 01:37:33.9	94.330	0.530	-1.190	0.950
2020/01/31 01:37:34.0	94.350	0.540	-1.160	0.940
2020/01/31 01:37:34.1	94.370	0.530	-1.110	0.930
2020/01/31 01:37:34.2	94.390	0.530	-1.050	0.920
2020/01/31 01:37:34.3	94.410	0.510	-0.990	0.910
2020/01/31 01:37:34.4	94.420	0.490	-0.910	0.910
2020/01/31 01:37:34.5	94.440	0.470	-0.820	0.910
2020/01/31 01:37:34.6	94.450	0.440	-0.730	0.910
2020/01/31 01:37:34.7	94.460	0.400	-0.630	0.910
2020/01/31 01:37:34.8	94.470	0.360	-0.520	0.920
2020/01/31 01:37:34.9	94.480	0.310	-0.410	0.930
2020/01/31 01:37:35.0	94.480	0.260	-0.290	0.940
2020/01/31 01:37:35.1	94.480	0.210	-0.170	0.960
2020/01/31 01:37:35.2	94.480	0.150	-0.050	0.980
2020/01/31 01:37:35.3	94.480	0.100	0.070	1.000
2020/01/31 01:37:35.4	94.470	0.040	0.190	1.020
2020/01/31 01:37:35.5	94.460	-0.030	0.300	1.050
2020/01/31 01:37:35.6	94.450	-0.090	0.420	1.070
2020/01/31 01:37:35.7	94.440	-0.150	0.520	1.100
2020/01/31 01:37:35.8	94.420	-0.210	0.630	1.130
2020/01/31 01:37:35.9	94.400	-0.270	0.730	1.160
2020/01/31 01:37:36.0	94.380	-0.330	0.820	1.200
2020/01/31 01:37:36.1	94.360	-0.390	0.900	1.230
2020/01/31 01:37:36.2	94.340	-0.440	0.980	1.250
2020/01/31 01:37:36.3	94.310	-0.490	1.040	1.280
2020/01/31 01:37:36.4	94.290	-0.540	1.100	1.310
2020/01/31 01:37:36.5	94.260	-0.580	1.140	1.330
2020/01/31 01:37:36.6	94.230	-0.620	1.180	1.350
2020/01/31 01:37:36.7	94.200	-0.660	1.200	1.370
2020/01/31 01:37:36.8	94.170	-0.690	1.220	1.390
2020/01/31 01:37:36.9	94.140	-0.710	1.220	1.400
2020/01/31 01:37:37.0	94.120	-0.730	1.210	1.410
2020/01/31 01:37:37.1	94.100	-0.750	1.190	1.410
2020/01/31 01:37:37.2	94.070	-0.760	1.160	1.420
2020/01/31 01:37:37.3	94.040	-0.760	1.130	1.410
2020/01/31 01:37:37.4	94.020	-0.760	1.080	1.410
2020/01/31 01:37:37.5	93.990	-0.760	1.020	1.390
2020/01/31 01:37:37.6	93.970	-0.740	0.960	1.380
2020/01/31 01:37:37.7	93.950	-0.730	0.880	1.360
2020/01/31 01:37:37.8	93.930	-0.710	0.800	1.340
2020/01/31 01:37:37.9	93.910	-0.680	0.720	1.310
2020/01/31 01:37:38.0	93.890	-0.660	0.620	1.280
2020/01/31 01:37:38.1	93.870	-0.620	0.530	1.250
2020/01/31 01:37:38.2	93.860	-0.590	0.420	1.210
2020/01/31 01:37:38.3	93.850	-0.550	0.310	1.170
2020/01/31 01:37:38.4	93.840	-0.510	0.200	1.130
2020/01/31 01:37:38.5	93.830	-0.460	0.090	1.090
2020/01/31 01:37:38.6	93.830	-0.420	-0.030	1.050
2020/01/31 01:37:38.7	93.830	-0.370	-0.140	1.010
2020/01/31 01:37:38.8	93.820	-0.320	-0.260	0.970
2020/01/31 01:37:38.9	93.820	-0.270	-0.380	0.920
2020/01/31 01:37:39.0	93.820	-0.220	-0.500	0.880
2020/01/31 01:37:39.1	93.820	-0.170	-0.610	0.840
2020/01/31 01:37:39.2	93.830	-0.120	-0.720	0.800
2020/01/31 01:37:39.3	93.830	-0.070	-0.830	0.760
2020/01/31 01:37:39.4	93.840	-0.020	-0.940	0.720
2020/01/31 01:37:39.5	93.840	0.020	-1.040	0.680
2020/01/31 01:37:39.6	93.850	0.070	-1.130	0.650
2020/01/31 01:37:39.7	93.860	0.120	-1.220	0.610
2020/01/31 01:37:39.8	93.870	0.160	-1.300	0.580
2020/01/31 01:37:39.9	93.880	0.200	-1.380	0.550
2020/01/31 01:37:40.0	93.890	0.240	-1.450	0.510
2020/01/31 01:37:40.1	93.910	0.280	-1.510	0.480
2020/01/31 01:37:40.2	93.920	0.310	-1.570	0.450
2020/01/31 01:37:40.3	93.930	0.340	-1.610	0.430
2020/01/31 01:37:40.4	93.950	0.370	-1.650	0.400
2020/01/31 01:37:40.5	93.960	0.400	-1.670	0.370
2020/01/31 01:37:40.6	93.980	0.420	-1.690	0.350
2020/01/31 01:37:40.7	94.000	0.440	-1.700	0.320
2020/01/31 01:37:40.8	94.010	0.450	-1.700	0.300
2020/01/31 01:37:40.9	94.020	0.470	-1.690	0.280
2020/01/31 01:37:41.0	94.030	0.480	-1.660	0.270
2020/01/31 01:37:41.1	94.040	0.480	-1.630	0.250
2020/01/31 01:37:41.2	94.050	0.480	-1.600	0.240
2020/01/31 01:37:41.3	94.060	0.480	-1.550	0.220
2020/01/31 01:37:41.4	94.070	0.480	-1.490	0.210
2020/01/31 01:37:41.5	94.070	0.470	-1.430	0.210
2020/01/31 01:37:41.6	94.080	0.460	-1.350	0.200
2020/01/31 01:37:41.7	94.080	0.450	-1.270	0.200
2020/01/31 01:37:41.8	94.080	0.430	-1.180	0.200
2020/01/31 01:37:41.9	94.080	0.410	-1.090	0.210
2020/01/31 01:37:42.0	94.070	0.390	-0.980	0.220
2020/01/31 01:37:42.1	94.060	0.370	-0.880	0.230
2020/01/31 01:37:42.2	94.050	0.350	-0.760	0.240
2020/01/31 01:37:42.3	94.040	0.320	-0.650	0.260
2020/01/31 01:37:42.4	94.030	0.290	-0.530	0.270
2020/01/31 01:37:42.5	94.010	0.260	-0.400	0.290
2020/01/31 01:37:42.6	93.990	0.230	-0.280	0.310
2020/01/31 01:37:42.7	93.970	0.200	-0.150	0.340
2020/01/31 01:37:42.8	93.950	0.170	-0.020	0.360
2020/01/31 01:37:42.9	93.930	0.140	0.110	0.390
2020/01/31 01:37:43.0	93.900	0.110	0.240	0.410
2020/01/31 01:37:43.1	93.880	0.080	0.360	0.440
2020/01/31 01:37:43.2	93.850	0.050	0.480	0.470
2020/01/31 01:37:43.3	93.830	0.020	0.600	0.490
2020/01/31 01:37:43.4	93.800	-0.000	0.710	0.520
2020/01/31 01:37:43.5	93.780	-0.030	0.810	0.550
2020/01/31 01:37:43.6	93.760	-0.060	0.910	0.570
2020/01/31 01:37:43.7	93.730	-0.080	1.000	0.590
2020/01/31 01:37:43.8	93.710	-0.100	1.080	0.620
2020/01/31 01:37:43.9	93.690	-0.120	1.160	0.640
2020/01/31 01:37:44.0	93.660	-0.140	1.230	0.660
2020/01/31 01:37:44.1	93.640	-0.160	1.280	0.670
2020/01/31 01:37:44.2	93.620	-0.170	1.320	0.690
2020/01/31 01:37:44.3	93.600	-0.180	1.360	0.700
2020/01/31 01:37:44.4	93.580	-0.190	1.380	0.710
2020/01/31 01:37:44.5	93.570	-0.200	1.390	0.720
2020/01/31 01:37:44.6	93.560	-0.210	1.390	0.720
2020/01/31 01:37:44.7	93.550	-0.210	1.380	0.730
2020/01/31 01:37:44.8	93.540	-0.210	1.360	0.730
2020/01/31 01:37:44.9	93.540	-0.200	1.320	0.720
2020/01/31 01:37:45.0	93.540	-0.200	1.270	0.720
2020/01/31 01:37:45.1	93.540	-0.190	1.210	0.710
2020/01/31 01:37:45.2	93.550	-0.180	1.150	0.700
2020/01/31 01:37:45.3	93.550	-0.170	1.070	0.680
2020/01/31 01:37:45.4	93.560	-0.150	0.980	0.670
2020/01/31 01:37:45.5	93.580	-0.130	0.890	0.650
2020/01/31 01:37:45.6	93.590	-0.110	0.790	0.620
2020/01/31 01:37:45.7	93.610	-0.090	0.680	0.600
2020/01/31 01:37:45.8	93.630	-0.070	0.570	0.570
2020/01/31 01:37:45.9	93.660	-0.040	0.450	0.540
2020/01/31 01:37:46.0	93.700	-0.010	0.330	0.500
2020/01/31 01:37:46.1	93.730	0.010	0.200	0.470
2020/01/31 01:37:46.2	93.760	0.040	0.080	0.430
2020/01/31 01:37:46.3	93.800	0.070	-0.050	0.390
2020/01/31 01:37:46.4	93.830	0.100	-0.170	0.350
2020/01/31 01:37:46.5	93.870	0.130	-0.290	0.310
2020/01/31 01:37:46.6	93.900	0.160	-0.410	0.270
2020/01/31 01:37:46.7	93.940	0.190	-0.530	0.230
2020/01/31 01:37:46.8	93.980	0.220	-0.640	0.190
2020/01/31 01:37:46.9	94.020	0.250	-0.740	0.150
2020/01/31 01:37:47.0	94.050	0.280	-0.840	0.110
2020/01/31 01:37:47.1	94.090	0.300	-0.930	0.070
2020/01/31 01:37:47.2	94.130	0.330	-1.010	0.040
2020/01/31 01:37:47.3	94.170	0.350	-1.080	0.010
2020/01/31 01:37:47.4	94.210	0.370	-1.140	-0.020
2020/01/31 01:37:47.5	94.250	0.380	-1.200	-0.040
2020/01/31 01:37:47.6	94.280	0.400	-1.240	-0.060
2020/01/31 01:37:47.7	94.320	0.410	-1.270	-0.070
2020/01/31 01:37:47.8	94.350	0.410	-1.290	-0.080
2020/01/31 01:37:47.9	94.380	0.410	-1.300	-0.080
2020/01/31 01:37:48.0	94.400	0.410	-1.300	-0.070
2020/01/31 01:37:48.1	94.430	0.410	-1.290	-0.050
2020/01/31 01:37:48.2	94.450	0.400	-1.270	-0.030
2020/01/31 01:37:48.3	94.470	0.390	-1.240	-0.000
2020/01/31 01:37:48.4	94.490	0.380	-1.210	0.030
2020/01/31 01:37:48.5	94.500	0.360	-1.160	0.080
2020/01/31 01:37:48.6	94.510	0.340	-1.110	0.130
2020/01/31 01:37:48.7	94.520	0.310	-1.050	0.180
2020/01/31 01:37:48.8	94.530	0.290	-0.980	0.250
2020/01/31 01:37:48.9	94.530	0.250	-0.910	0.320
2020/01/31 01:37:49.0	94.530	0.220	-0.830	0.400
2020/01/31 01:37:49.1	94.530	0.190	-0.750	0.480
2020/01/31 01:37:49.2	94.520	0.150	-0.660	0.570
2020/01/31 01:37:49.3	94.510	0.110	-0.570	0.660
2020/01/31 01:37:49.4	94.500	0.070	-0.480	0.760
2020/01/31 01:37:49.5	94.480	0.020	-0.390	0.850
2020/01/31 01:37:49.6	94.470	-0.020	-0.300	0.950
2020/01/31 01:37:49.7	94.450	-0.060	-0.210	1.050
2020/01/31 01:37:49.8	94.430	-0.110	-0.120	1.150
2020/01/31 01:37:49.9	94.410	-0.150	-0.030	1.260
2020/01/31 01:37:50.0	94.400	-0.200	0.060	1.360
2020/01/31 01:37:50.1	94.380	-0.240	0.140	1.460
2020/01/31 01:37:50.2	94.350	-0.290	0.220	1.550
2020/01/31 01:37:50.3	94.330	-0.330	0.300	1.650
2020/01/31 01:37:50.4	94.310	-0.370	0.370	1.740
2020/01/31 01:37:50.5	94.290	-0.410	0.440	1.830
2020/01/31 01:37:50.6	94.270	-0.440	0.500	1.920
2020/01/31 01:37:50.7	94.250	-0.480	0.550	2.000
2020/01/31 01:37:50.8	94.230	-0.510	0.600	2.070
2020/01/31 01:37:50.9	94.220	-0.540	0.650	2.140
2020/01/31 01:37:51.0	94.210	-0.570	0.680	2.210
2020/01/31 01:37:51.1	94.200	-0.590	0.710	2.270
2020/01/31 01:37:51.2	94.180	-0.610	0.740	2.320
2020/01/31 01:37:51.3	94.170	-0.620	0.750	2.370
2020/01/31 01:37:51.4	94.160	-0.640	0.760	2.410
2020/01/31 01:37:51.5	94.150	-0.640	0.760	2.450
2020/01/31 01:37:51.6	94.150	-0.650	0.760	2.470
2020/01/31 01:37:51.7	94.140	-0.650	0.740	2.500
2020/01/31 01:37:51.8	94.140	-0.650	0.720	2.510
2020/01/31 01:37:51.9	94.140	-0.640	0.700	2.520
2020/01/31 01:37:52.0	94.140	-0.630	0.660	2.530
2020/01/31 01:37:52.1	94.140	-0.620	0.620	2.520
2020/01/31 01:37:52.2	94.150	-0.600	0.570	2.520
2020/01/31 01:37:52.3	94.150	-0.580	0.520	2.500
2020/01/31 01:37:52.4	94.160	-0.550	0.460	2.480
2020/01/31 01:37:52.5	94.170	-0.530	0.400	2.460
2020/01/31 01:37:52.6	94.180	-0.500	0.330	2.430
2020/01/31 01:37:52.7	94.190	-0.470	0.250	2.390
2020/01/31 01:37:52.8	94.200	-0.430	0.180	2.350
2020/01/31 01:37:52.9	94.220	-0.400	0.100	2.300
2020/01/31 01:37:53.0	94.230	-0.360	0.010	2.250
2020/01/31 01:37:53.1	94.240	-0.320	-0.070	2.190
2020/01/31 01:37:53.2	94.260	-0.280	-0.160	2.140
2020/01/31 01:37:53.3	94.280	-0.240	-0.250	2.070
2020/01/31 01:37:53.4	94.300	-0.190	-0.330	2.000
2020/01/31 01:37:53.5	94.310	-0.150	-0.420	1.930
2020/01/31 01:37:53.6	94.330	-0.110	-0.510	1.860
2020/01/31 01:37:53.7	94.350	-0.060	-0.590	1.780
2020/01/31 01:37:53.8	94.370	-0.020	-0.670	1.710
2020/01/31 01:37:53.9	94.390	0.020	-0.750	1.630
2020/01/31 01:37:54.0	94.410	0.060	-0.820	1.540
2020/01/31 01:37:54.1	94.430	0.100	-0.890	1.460
2020/01/31 01:37:54.2	94.460	0.140	-0.950	1.370
2020/01/31 01:37:54.3	94.480	0.180	-1.010	1.290
2020/01/31 01:37:54.4	94.500	0.220	-1.060	1.200
2020/01/31 01:37:54.5	94.520	0.250	-1.100	1.120
2020/01/31 01:37:54.6	94.540	0.280	-1.130	1.040
2020/01/31 01:37:54.7	94.560	0.320	-1.160	0.960
2020/01/31 01:37:54.8	94.580	0.340	-1.180	0.880
2020/01/31 01:37:54.9	94.600	0.370	-1.180	0.800
2020/01/31 01:37:55.0	94.630	0.390	-1.180	0.720
2020/01/31 01:37:55.1	94.650	0.410	-1.180	0.650
2020/01/31 01:37:55.2	94.670	0.430	-1.160	0.570
2020/01/31 01:37:55.3	94.690	0.440	-1.130	0.500
2020/01/31 01:37:55.4	94.700	0.460	-1.090	0.430
2020/01/31 01:37:55.5	94.720	0.460	-1.050	0.370
2020/01/31 01:37:55.6	94.730	0.470	-1.000	0.310
2020/01/31 01:37:55.7	94.750	0.470	-0.940	0.250
2020/01/31 01:37:55.8	94.760	0.470	-0.880	0.190
2020/01/31 01:37:55.9	94.770	0.470	-0.810	0.140
2020/01/31 01:37:56.0	94.780	0.460	-0.730	0.090
2020/01/31 01:37:56.1	94.780	0.450	-0.650	0.040
2020/01/31 01:37:56.2	94.790	0.440	-0.570	-0.000
2020/01/31 01:37:56.3	94.790	0.430	-0.480	-0.050
2020/01/31 01:37:56.4	94.800	0.410	-0.390	-0.080
2020/01/31 01:37:56.5	94.800	0.400	-0.300	-0.120
2020/01/31 01:37:56.6	94.800	0.380	-0.210	-0.150
2020/01/31 01:37:56.7	94.790	0.350	-0.120	-0.180
2020/01/31 01:37:56.8	94.790	0.330	-0.030	-0.210
2020/01/31 01:37:56.9	94.790	0.310	0.050	-0.230
2020/01/31 01:37:57.0	94.780	0.280	0.140	-0.260
2020/01/31 01:37:57.1	94.770	0.250	0.230	-0.280
2020/01/31 01:37:57.2	94.760	0.220	0.300	-0.290
2020/01/31 01:37:57.3	94.760	0.190	0.370	-0.310
2020/01/31 01:37:57.4	94.750	0.170	0.440	-0.320
2020/01/31 01:37:57.5	94.740	0.140	0.500	-0.330
2020/01/31 01:37:57.6	94.730	0.110	0.560	-0.340
2020/01/31 01:37:57.7	94.720	0.080	0.600	-0.350
2020/01/31 01:37:57.8	94.710	0.050	0.640	-0.350
2020/01/31 01:37:57.9	94.700	0.030	0.680	-0.350
2020/01/31 01:37:58.0	94.690	0.000	0.700	-0.350
2020/01/31 01:37:58.1	94.680	-0.020	0.720	-0.350
2020/01/31 01:37:58.2	94.660	-0.050	0.730	-0.350
2020/01/31 01:37:58.3	94.650	-0.070	0.730	-0.340
2020/01/31 01:37:58.4	94.640	-0.080	0.730	-0.340
2020/01/31 01:37:58.5	94.630	-0.100	0.720	-0.330
2020/01/31 01:37:58.6	94.620	-0.110	0.700	-0.320
2020/01/31 01:37:58.7	94.610	-0.130	0.670	-0.320
2020/01/31 01:37:58.8	94.600	-0.140	0.640	-0.310
2020/01/31 01:37:58.9	94.590	-0.140	0.600	-0.300
2020/01/31 01:37:59.0	94.590	-0.150	0.560	-0.300
2020/01/31 01:37:59.1	94.590	-0.150	0.510	-0.290
2020/01/31 01:37:59.2	94.580	-0.150	0.460	-0.290
2020/01/31 01:37:59.3	94.580	-0.150	0.400	-0.280
2020/01/31 01:37:59.4	94.580	-0.140	0.340	-0.280
2020/01/31 01:37:59.5	94.590	-0.140	0.280	-0.280
2020/01/31 01:37:59.6	94.590	-0.130	0.210	-0.270
2020/01/31 01:37:59.7	94.600	-0.120	0.150	-0.270
2020/01/31 01:37:59.8	94.610	-0.110	0.080	-0.270
2020/01/31 01:37:59.9	94.620	-0.090	0.010	-0.260
2020/01/31 01:38:00.0	94.640	-0.080	-0.060	-0.260
2020/01/31 01:38:00.1	94.660	-0.060	-0.120	-0.250
2020/01/31 01:38:00.2	94.670	-0.050	-0.190	-0.240
2020/01/31 01:38:00.3	94.690	-0.030	-0.250	-0.240
2020/01/31 01:38:00.4	94.710	-0.020	-0.310	-0.230
2020/01/31 01:38:00.5	94.730	0.000	-0.370	-0.220
2020/01/31 01:38:00.6	94.750	0.020	-0.430	-0.210
2020/01/31 01:38:00.7	94.780	0.030	-0.480	-0.190
2020/01/31 01:38:00.8	94.800	0.050	-0.530	-0.170
2020/01/31 01:38:00.9	94.830	0.070	-0.570	-0.160
2020/01/31 01:38:01.0	94.860	0.080	-0.620	-0.130
2020/01/31 01:38:01.1	94.890	0.100	-0.650	-0.110
2020/01/31 01:38:01.2	94.920	0.110	-0.690	-0.090
2020/01/31 01:38:01.3	94.950	0.120	-0.720	-0.060
2020/01/31 01:38:01.4	94.980	0.130	-0.740	-0.030
2020/01/31 01:38:01.5	95.010	0.150	-0.760	0.000
2020/01/31 01:38:01.6	95.040	0.150	-0.770	0.040
2020/01/31 01:38:01.7	95.070	0.160	-0.790	0.080
2020/01/31 01:38:01.8	95.100	0.170	-0.790	0.120
2020/01/31 01:38:01.9	95.130	0.170	-0.790	0.160
2020/01/31 01:38:02.0	95.150	0.180	-0.790	0.210
2020/01/31 01:38:02.1	95.170	0.180	-0.780	0.250
2020/01/31 01:38:02.2	95.190	0.180	-0.770	0.300
2020/01/31 01:38:02.3	95.210	0.170	-0.750	0.350
2020/01/31 01:38:02.4	95.230	0.170	-0.730	0.400
2020/01/31 01:38:02.5	95.240	0.160	-0.710	0.450
2020/01/31 01:38:02.6	95.260	0.160	-0.680	0.500
2020/01/31 01:38:02.7	95.270	0.150	-0.650	0.550
2020/01/31 01:38:02.8	95.280	0.130	-0.610	0.610
2020/01/31 01:38:02.9	95.290	0.120	-0.570	0.660
2020/01/31 01:38:03.0	95.300	0.110	-0.530	0.710
2020/01/31 01:38:03.1	95.300	0.090	-0.480	0.770
2020/01/31 01:38:03.2	95.300	0.070	-0.440	0.820
2020/01/31 01:38:03.3	95.300	0.060	-0.390	0.870
2020/01/31 01:38:03.4	95.300	0.040	-0.340	0.920
2020/01/31 01:38:03.5	95.300	0.020	-0.280	0.970
2020/01/31 01:38:03.6	95.300	-0.010	-0.230	1.030
2020/01/31 01:38:03.7	95.290	-0.030	-0.170	1.080
2020/01/31 01:38:03.8	95.290	-0.050	-0.110	1.130
2020/01/31 01:38:03.9	95.280	-0.070	-0.060	1.180
2020/01/31 01:38:04.0	95.270	-0.100	-0.000	1.240
2020/01/31 01:38:04.1	95.260	-0.120	0.050	1.290
2020/01/31 01:38:04.2	95.260	-0.140	0.110	1.340
2020/01/31 01:38:04.3	95.250	-0.170	0.160	1.390
2020/01/31 01:38:04.4	95.240	-0.190	0.210	1.440
2020/01/31 01:38:04.5	95.230	-0.210	0.260	1.490
2020/01/31 01:38:04.6	95.220	-0.230	0.310	1.540
2020/01/31 01:38:04.7	95.200	-0.250	0.350	1.600
2020/01/31 01:38:04.8	95.190	-0.270	0.390	1.650
2020/01/31 01:38:04.9	95.180	-0.290	0.430	1.700
2020/01/31 01:38:05.0	95.180	-0.300	0.460	1.750
2020/01/31 01:38:05.1	95.160	-0.320	0.490	1.800
2020/01/31 01:38:05.2	95.150	-0.330	0.510	1.850
2020/01/31 01:38:05.3	95.130	-0.340	0.530	1.900
2020/01/31 01:38:05.4	95.110	-0.350	0.540	1.950
2020/01/31 01:38:05.5	95.100	-0.360	0.550	2.000
2020/01/31 01:38:05.6	95.080	-0.370	0.550	2.040
2020/01/31 01:38:05.7	95.060	-0.370	0.550	2.080
2020/01/31 01:38:05.8	95.050	-0.380	0.540	2.120
2020/01/31 01:38:05.9	95.030	-0.380	0.530	2.150
2020/01/31 01:38:06.0	95.020	-0.380	0.500	2.180
2020/01/31 01:38:06.1	95.010	-0.370	0.480	2.200
2020/01/31 01:38:06.2	94.990	-0.370	0.450	2.220
2020/01/31 01:38:06.3	94.980	-0.360	0.410	2.230
2020/01/31 01:38:06.4	94.970	-0.350	0.370	2.240
2020/01/31 01:38:06.5	94.960	-0.340	0.330	2.240
2020/01/31 01:38:06.6	94.950	-0.320	0.280	2.230
2020/01/31 01:38:06.7	94.940	-0.310	0.230	2.220
2020/01/31 01:38:06.8	94.930	-0.290	0.180	2.200
2020/01/31 01:38:06.9	94.920	-0.270	0.120	2.180
2020/01/31 01:38:07.0	94.920	-0.240	0.070	2.150
2020/01/31 01:38:07.1	94.910	-0.220	0.010	2.120
2020/01/31 01:38:07.2	94.910	-0.190	-0.050	2.070
2020/01/31 01:38:07.3	94.910	-0.170	-0.110	2.030
2020/01/31 01:38:07.4	94.910	-0.140	-0.170	1.970
2020/01/31 01:38:07.5	94.910	-0.110	-0.230	1.920
2020/01/31 01:38:07.6	94.920	-0.080	-0.280	1.850
2020/01/31 01:38:07.7	94.920	-0.050	-0.340	1.790
2020/01/31 01:38:07.8	94.930	-0.010	-0.390	1.720
2020/01/31 01:38:07.9	94.940	0.020	-0.440	1.640
2020/01/31 01:38:08.0	94.950	0.050	-0.490	1.560
2020/01/31 01:38:08.1	94.960	0.090	-0.540	1.480
2020/01/31 01:38:08.2	94.970	0.120	-0.580	1.400
2020/01/31 01:38:08.3	94.980	0.160	-0.610	1.310
2020/01/31 01:38:08.4	94.990	0.190	-0.650	1.230
2020/01/31 01:38:08.5	95.010	0.230	-0.680	1.140
2020/01/31 01:38:08.6	95.020	0.260	-0.700	1.050
2020/01/31 01:38:08.7	95.040	0.300	-0.730	0.960
2020/01/31 01:38:08.8	95.050	0.330	-0.750	0.880
2020/01/31 01:38:08.9	95.070	0.360	-0.760	0.790
2020/01/31 01:38:09.0	95.080	0.390	-0.780	0.710
2020/01/31 01:38:09.1	95.100	0.420	-0.790	0.620
2020/01/31 01:38:09.2	95.110	0.450	-0.790	0.540
2020/01/31 01:38:09.3	95.130	0.480	-0.800	0.450
2020/01/31 01:38:09.4	95.140	0.500	-0.800	0.370
2020/01/31 01:38:09.5	95.160	0.520	-0.800	0.300
2020/01/31 01:38:09.6	95.170	0.550	-0.790	0.220
2020/01/31 01:38:09.7	95.190	0.560	-0.790	0.150
2020/01/31 01:38:09.8	95.200	0.580	-0.780	0.080
2020/01/31 01:38:09.9	95.210	0.600	-0.770	0.010
2020/01/31 01:38:10.0	95.220	0.610	-0.760	-0.050
2020/01/31 01:38:10.1	95.230	0.620	-0.740	-0.110
2020/01/31 01:38:10.2	95.240	0.620	-0.730	-0.160
2020/01/31 01:38:10.3	95.240	0.630	-0.710	-0.210
2020/01/31 01:38:10.4	95.250	0.630	-0.690	-0.250
2020/01/31 01:38:10.5	95.250	0.620	-0.670	-0.290
2020/01/31 01:38:10.6	95.250	0.620	-0.640	-0.320
2020/01/31 01:38:10.7	95.240	0.610	-0.620	-0.340
2020/01/31 01:38:10.8	95.240	0.590	-0.590	-0.370
2020/01/31 01:38:10.9	95.230	0.570	-0.560	-0.380
2020/01/31 01:38:11.0	95.210	0.550	-0.520	-0.390
2020/01/31 01:38:11.1	95.200	0.530	-0.490	-0.390
2020/01/31 01:38:11.2	95.190	0.500	-0.450	-0.400
2020/01/31 01:38:11.3	95.180	0.460	-0.400	-0.390
2020/01/31 01:38:11.4	95.160	0.420	-0.350	-0.390
2020/01/31 01:38:11.5	95.150	0.380	-0.300	-0.380
2020/01/31 01:38:11.6	95.130	0.340	-0.250	-0.360
2020/01/31 01:38:11.7	95.120	0.290	-0.190	-0.350
2020/01/31 01:38:11.8	95.100	0.240	-0.130	-0.320
2020/01/31 01:38:11.9	95.080	0.180	-0.060	-0.300
2020/01/31 01:38:12.0	95.080	0.130	0.010	-0.280
2020/01/31 01:38:12.1	95.060	0.070	0.080	-0.250
2020/01/31 01:38:12.2	95.050	0.000	0.160	-0.220
2020/01/31 01:38:12.3	95.030	-0.060	0.230	-0.180
2020/01/31 01:38:12.4	95.020	-0.130	0.310	-0.150
2020/01/31 01:38:12.5	95.010	-0.190	0.380	-0.110
2020/01/31 01:38:12.6	95.000	-0.260	0.460	-0.080
2020/01/31 01:38:12.7	94.990	-0.320	0.530	-0.040
2020/01/31 01:38:12.8	94.980	-0.390	0.600	-0.000
2020/01/31 01:38:12.9	94.980	-0.450	0.670	0.040
2020/01/31 01:38:13.0	94.980	-0.520	0.740	0.080
2020/01/31 01:38:13.1	94.980	-0.580	0.800	0.120
2020/01/31 01:38:13.2	94.980	-0.640	0.860	0.160
2020/01/31 01:38:13.3	94.980	-0.690	0.910	0.210
2020/01/31 01:38:13.4	94.980	-0.740	0.950	0.250
2020/01/31 01:38:13.5	94.980	-0.790	0.990	0.290
2020/01/31 01:38:13.6	94.980	-0.830	1.020	0.330
2020/01/31 01:38:13.7	94.990	-0.870	1.030	0.370
2020/01/31 01:38:13.8	94.990	-0.900	1.040	0.420
2020/01/31 01:38:13.9	94.990	-0.930	1.050	0.460
2020/01/31 01:38:14.0	95.010	-0.950	1.040	0.510
2020/01/31 01:38:14.1	95.010	-0.970	1.020	0.550
2020/01/31 01:38:14.2	95.010	-0.980	0.990	0.600
2020/01/31 01:38:14.3	95.020	-0.980	0.950	0.640
2020/01/31 01:38:14.4	95.020	-0.980	0.890	0.690
2020/01/31 01:38:14.5	95.030	-0.970	0.830	0.730
2020/01/31 01:38:14.6	95.030	-0.950	0.760	0.770
2020/01/31 01:38:14.7	95.030	-0.930	0.690	0.820
2020/01/31 01:38:14.8	95.040	-0.900	0.600	0.860
2020/01/31 01:38:14.9	95.040	-0.870	0.500	0.900
2020/01/31 01:38:15.0	95.060	-0.830	0.400	0.940
2020/01/31 01:38:15.1	95.070	-0.790	0.290	0.980
2020/01/31 01:38:15.2	95.070	-0.740	0.180	1.010
2020/01/31 01:38:15.3	95.070	-0.680	0.070	1.050
2020/01/31 01:38:15.4	95.070	-0.620	-0.050	1.080
2020/01/31 01:38:15.5	95.080	-0.560	-0.170	1.110
2020/01/31 01:38:15.6	95.080	-0.500	-0.290	1.150
2020/01/31 01:38:15.7	95.080	-0.430	-0.410	1.170
2020/01/31 01:38:15.8	95.080	-0.360	-0.530	1.200
2020/01/31 01:38:15.9	95.080	-0.290	-0.650	1.230
2020/01/31 01:38:16.0	95.080	-0.220	-0.770	1.260
2020/01/31 01:38:16.1	95.080	-0.140	-0.880	1.280
2020/01/31 01:38:16.2	95.080	-0.070	-0.980	1.300
2020/01/31 01:38:16.3	95.080	0.000	-1.080	1.320
2020/01/31 01:38:16.4	95.090	0.070	-1.170	1.340
2020/01/31 01:38:16.5	95.090	0.140	-1.260	1.350
2020/01/31 01:38:16.6	95.100	0.210	-1.330	1.360
2020/01/31 01:38:16.7	95.100	0.280	-1.400	1.370
2020/01/31 01:38:16.8	95.110	0.340	-1.460	1.380
2020/01/31 01:38:16.9	95.120	0.400	-1.520	1.390
2020/01/31 01:38:17.0	95.130	0.460	-1.560	1.400
2020/01/31 01:38:17.1	95.150	0.510	-1.590	1.400
2020/01/31 01:38:17.2	95.160	0.560	-1.610	1.400
2020/01/31 01:38:17.3	95.180	0.610	-1.630	1.400
2020/01/31 01:38:17.4	95.200	0.650	-1.630	1.400
2020/01/31 01:38:17.5	95.220	0.680	-1.630	1.400
2020/01/31 01:38:17.6	95.240	0.720	-1.610	1.400
2020/01/31 01:38:17.7	95.260	0.740	-1.580	1.400
2020/01/31 01:38:17.8	95.280	0.770	-1.550	1.400
2020/01/31 01:38:17.9	95.300	0.790	-1.510	1.410
2020/01/31 01:38:18.0	95.320	0.800	-1.450	1.410
2020/01/31 01:38:18.1	95.330	0.810	-1.390	1.410
2020/01/31 01:38:18.2	95.350	0.810	-1.320	1.420
2020/01/31 01:38:18.3	95.360	0.820	-1.250	1.420
2020/01/31 01:38:18.4	95.370	0.810	-1.160	1.430
2020/01/31 01:38:18.5	95.380	0.800	-1.070	1.430
2020/01/31 01:38:18.6	95.380	0.790	-0.970	1.440
2020/01/31 01:38:18.7	95.390	0.780	-0.870	1.440
2020/01/31 01:38:18.8	95.390	0.760	-0.760	1.450
2020/01/31 01:38:18.9	95.390	0.740	-0.650	1.450
2020/01/31 01:38:19.0	95.390	0.710	-0.530	1.450
2020/01/31 01:38:19.1	95.380	0.680	-0.410	1.460
2020/01/31 01:38:19.2	95.370	0.650	-0.300	1.460
2020/01/31 01:38:19.3	95.370	0.620	-0.180	1.450
2020/01/31 01:38:19.4	95.360	0.590	-0.060	1.450
2020/01/31 01:38:19.5	95.350	0.550	0.060	1.440
2020/01/31 01:38:19.6	95.340	0.510	0.180	1.430
2020/01/31 01:38:19.7	95.330	0.470	0.300	1.410
2020/01/31 01:38:19.8	95.320	0.430	0.410	1.390
2020/01/31 01:38:19.9	95.310	0.390	0.520	1.370
2020/01/31 01:38:20.0	95.290	0.350	0.630	1.350
2020/01/31 01:38:20.1	95.280	0.310	0.730	1.320
2020/01/31 01:38:20.2	95.270	0.270	0.830	1.290
2020/01/31 01:38:20.3	95.260	0.230	0.920	1.250
2020/01/31 01:38:20.4	95.240	0.200	1.000	1.220
2020/01/31 01:38:20.5	95.230	0.160	1.080	1.180
2020/01/31 01:38:20.6	95.220	0.120	1.150	1.140
2020/01/31 01:38:20.7	95.200	0.090	1.210	1.090
2020/01/31 01:38:20.8	95.190	0.050	1.270	1.050
2020/01/31 01:38:20.9	95.170	0.020	1.310	1.000
2020/01/31 01:38:21.0	95.170	-0.010	1.350	0.960
2020/01/31 01:38:21.1	95.150	-0.040	1.380	0.910
2020/01/31 01:38:21.2	95.130	-0.060	1.400	0.860
2020/01/31 01:38:21.3	95.120	-0.090	1.410	0.820
2020/01/31 01:38:21.4	95.100	-0.110	1.410	0.770
2020/01/31 01:38:21.5	95.080	-0.130	1.410	0.720
2020/01/31 01:38:21.6	95.070	-0.150	1.390	0.670
2020/01/31 01:38:21.7	95.050	-0.170	1.360	0.620
2020/01/31 01:38:21.8	95.040	-0.180	1.330	0.570
2020/01/31 01:38:21.9	95.020	-0.190	1.290	0.520
2020/01/31 01:38:22.0	95.010	-0.200	1.230	0.480
2020/01/31 01:38:22.1	95.000	-0.210	1.170	0.430
2020/01/31 01:38:22.2	94.990	-0.210	1.110	0.380
2020/01/31 01:38:22.3	94.980	-0.220	1.030	0.330
2020/01/31 01:38:22.4	94.970	-0.220	0.950	0.280
2020/01/31 01:38:22.5	94.960	-0.220	0.870	0.230
2020/01/31 01:38:22.6	94.950	-0.220	0.780	0.180
2020/01/31 01:38:22.7	94.950	-0.220	0.680	0.130
2020/01/31 01:38:22.8	94.940	-0.220	0.580	0.090
2020/01/31 01:38:22.9	94.940	-0.220	0.470	0.040
2020/01/31 01:38:23.0	94.930	-0.210	0.360	-0.010
2020/01/31 01:38:23.1	94.930	-0.210	0.250	-0.060
2020/01/31 01:38:23.2	94.930	-0.200	0.140	-0.100
2020/01/31 01:38:23.3	94.930	-0.190	0.020	-0.140
2020/01/31 01:38:23.4	94.940	-0.190	-0.090	-0.190
2020/01/31 01:38:23.5	94.940	-0.180	-0.210	-0.230
2020/01/31 01:38:23.6	94.950	-0.170	-0.330	-0.270
2020/01/31 01:38:23.7	94.960	-0.160	-0.440	-0.310
2020/01/31 01:38:23.8	94.970	-0.160	-0.550	-0.340
2020/01/31 01:38:23.9	94.980	-0.150	-0.670	-0.380
2020/01/31 01:38:24.0	94.980	-0.140	-0.780	-0.410
2020/01/31 01:38:24.1	95.000	-0.130	-0.890	-0.440
2020/01/31 01:38:24.2	95.010	-0.130	-0.990	-0.460
2020/01/31 01:38:24.3	95.030	-0.120	-1.080	-0.490
2020/01/31 01:38:24.4	95.050	-0.120	-1.170	-0.510
2020/01/31 01:38:24.5	95.070	-0.110	-1.260	-0.530
2020/01/31 01:38:24.6	95.090	-0.110	-1.330	-0.540
2020/01/31 01:38:24.7	95.120	-0.100	-1.400	-0.550
2020/01/31 01:38:24.8	95.140	-0.100	-1.470	-0.550
2020/01/31 01:38:24.9	95.160	-0.090	-1.530	-0.550
2020/01/31 01:38:25.0	95.180	-0.090	-1.570	-0.540
2020/01/31 01:38:25.1	95.200	-0.090	-1.610	-0.520
2020/01/31 01:38:25.2	95.220	-0.090	-1.650	-0.500
2020/01/31 01:38:25.3	95.240	-0.090	-1.670	-0.480
2020/01/31 01:38:25.4	95.260	-0.090	-1.690	-0.440
2020/01/31 01:38:25.5	95.270	-0.090	-1.690	-0.400
2020/01/31 01:38:25.6	95.290	-0.090	-1.690	-0.360
2020/01/31 01:38:25.7	95.300	-0.090	-1.680	-0.300
2020/01/31 01:38:25.8	95.310	-0.090	-1.660	-0.250
2020/01/31 01:38:25.9	95.320	-0.100	-1.630	-0.180
2020/01/31 01:38:26.0	95.340	-0.110	-1.590	-0.110
2020/01/31 01:38:26.1	95.340	-0.110	-1.540	-0.030
2020/01/31 01:38:26.2	95.340	-0.120	-1.480	0.050
2020/01/31 01:38:26.3	95.340	-0.130	-1.410	0.130
2020/01/31 01:38:26.4	95.340	-0.150	-1.340	0.210
2020/01/31 01:38:26.5	95.340	-0.160	-1.250	0.300
2020/01/31 01:38:26.6	95.340	-0.180	-1.160	0.390
2020/01/31 01:38:26.7	95.330	-0.190	-1.060	0.480
2020/01/31 01:38:26.8	95.330	-0.210	-0.960	0.580
2020/01/31 01:38:26.9	95.320	-0.230	-0.840	0.670
2020/01/31 01:38:27.0	95.300	-0.260	-0.720	0.770
2020/01/31 01:38:27.1	95.290	-0.280	-0.600	0.870
2020/01/31 01:38:27.2	95.280	-0.310	-0.480	0.960
2020/01/31 01:38:27.3	95.270	-0.330	-0.350	1.060
2020/01/31 01:38:27.4	95.260	-0.360	-0.220	1.150
2020/01/31 01:38:27.5	95.250	-0.390	-0.090	1.240
2020/01/31 01:38:27.6	95.240	-0.410	0.040	1.330
2020/01/31 01:38:27.7	95.220	-0.440	0.170	1.420
2020/01/31 01:38:27.8	95.210	-0.470	0.300	1.510
2020/01/31 01:38:27.9	95.200	-0.490	0.420	1.590
2020/01/31 01:38:28.0	95.190	-0.520	0.540	1.670
2020/01/31 01:38:28.1	95.180	-0.540	0.660	1.750
2020/01/31 01:38:28.2	95.170	-0.560	0.760	1.820
2020/01/31 01:38:28.3	95.160	-0.580	0.860	1.890
2020/01/31 01:38:28.4	95.150	-0.600	0.960	1.950
2020/01/31 01:38:28.5	95.140	-0.610	1.040	2.010
2020/01/31 01:38:28.6	95.130	-0.620	1.110	2.060
2020/01/31 01:38:28.7	95.120	-0.630	1.180	2.110
2020/01/31 01:38:28.8	95.110	-0.630	1.230	2.150
2020/01/31 01:38:28.9	95.110	-0.630	1.270	2.180
2020/01/31 01:38:29.0	95.100	-0.630	1.310	2.220
2020/01/31 01:38:29.1	95.100	-0.620	1.330	2.240
2020/01/31 01:38:29.2	95.090	-0.610	1.340	2.260
2020/01/31 01:38:29.3	95.080	-0.590	1.330	2.280
2020/01/31 01:38:29.4	95.070	-0.570	1.320	2.290
2020/01/31 01:38:29.5	95.070	-0.540	1.290	2.290
2020/01/31 01:38:29.6	95.060	-0.510	1.260	2.290
2020/01/31 01:38:29.7	95.050	-0.480	1.210	2.280
2020/01/31 01:38:29.8	95.050	-0.430	1.150	2.260
2020/01/31 01:38:29.9	95.040	-0.390	1.080	2.240
2020/01/31 01:38:30.0	95.040	-0.340	1.000	2.210
2020/01/31 01:38:30.1	95.040	-0.290	0.920	2.180
2020/01/31 01:38:30.2	95.030	-0.230	0.830	2.140
2020/01/31 01:38:30.3	95.030	-0.170	0.730	2.090
2020/01/31 01:38:30.4	95.020	-0.110	0.620	2.040
2020/01/31 01:38:30.5	95.020	-0.040	0.510	1.990
2020/01/31 01:38:30.6	95.020	0.030	0.390	1.930
2020/01/31 01:38:30.7	95.020	0.100	0.280	1.860
2020/01/31 01:38:30.8	95.020	0.170	0.160	1.790
2020/01/31 01:38:30.9	95.020	0.240	0.030	1.720
2020/01/31 01:38:31.0	95.020	0.310	-0.090	1.640
2020/01/31 01:38:31.1	95.020	0.390	-0.210	1.560
2020/01/31 01:38:31.2	95.030	0.460	-0.330	1.470
2020/01/31 01:38:31.3	95.030	0.530	-0.450	1.380
2020/01/31 01:38:31.4	95.030	0.600	-0.560	1.300
2020/01/31 01:38:31.5	95.030	0.670	-0.670	1.210
2020/01/31 01:38:31.6	95.030	0.740	-0.780	1.120
2020/01/31 01:38:31.7	95.030	0.800	-0.880	1.020
2020/01/31 01:38:31.8	95.040	0.860	-0.970	0.930
2020/01/31 01:38:31.9	95.040	0.910	-1.060	0.840
2020/01/31 01:38:32.0	95.020	0.970	-1.140	0.750
2020/01/31 01:38:32.1	95.020	1.010	-1.210	0.650
2020/01/31 01:38:32.2	95.010	1.060	-1.270	0.570
2020/01/31 01:38:32.3	95.010	1.100	-1.320	0.480
2020/01/31 01:38:32.4	95.010	1.130	-1.360	0.390
2020/01/31 01:38:32.5	95.010	1.160	-1.400	0.310
2020/01/31 01:38:32.6	95.010	1.180	-1.420	0.220
2020/01/31 01:38:32.7	95.010	1.200	-1.440	0.140
2020/01/31 01:38:32.8	95.010	1.210	-1.440	0.070
2020/01/31 01:38:32.9	95.010	1.210	-1.440	-0.010
2020/01/31 01:38:33.0	95.030	1.210	-1.420	-0.080
2020/01/31 01:38:33.1	95.030	1.210	-1.400	-0.140
2020/01/31 01:38:33.2	95.030	1.200	-1.380	-0.200
2020/01/31 01:38:33.3	95.030	1.180	-1.340	-0.260
2020/01/31 01:38:33.4	95.040	1.160	-1.300	-0.320
2020/01/31 01:38:33.5	95.040	1.140	-1.250	-0.360
2020/01/31 01:38:33.6	95.050	1.110	-1.190	-0.410
2020/01/31 01:38:33.7	95.060	1.080	-1.130	-0.450
2020/01/31 01:38:33.8	95.070	1.040	-1.060	-0.480
2020/01/31 01:38:33.9	95.080	1.000	-0.990	-0.510
2020/01/31 01:38:34.0	95.070	0.950	-0.920	-0.530
2020/01/31 01:38:34.1	95.090	0.910	-0.840	-0.540
2020/01/31 01:38:34.2	95.100	0.860	-0.760	-0.560
2020/01/31 01:38:34.3	95.110	0.800	-0.680	-0.560
2020/01/31 01:38:34.4	95.120	0.750	-0.600	-0.560
2020/01/31 01:38:34.5	95.130	0.690	-0.520	-0.560
2020/01/31 01:38:34.6	95.140	0.630	-0.430	-0.550
2020/01/31 01:38:34.7	95.150	0.570	-0.350	-0.530
2020/01/31 01:38:34.8	95.160	0.510	-0.270	-0.510
2020/01/31 01:38:34.9	95.170	0.450	-0.180	-0.490
2020/01/31 01:38:35.0	95.180	0.390	-0.100	-0.460
2020/01/31 01:38:35.1	95.190	0.320	-0.020	-0.420
2020/01/31 01:38:35.2	95.200	0.260	0.060	-0.390
2020/01/31 01:38:35.3	95.200	0.190	0.140	-0.340
2020/01/31 01:38:35.4	95.210	0.130	0.210	-0.300
2020/01/31 01:38:35.5	95.210	0.060	0.290	-0.250
2020/01/31 01:38:35.6	95.220	-0.000	0.360	-0.200
2020/01/31 01:38:35.7	95.220	-0.060	0.430	-0.140
2020/01/31 01:38:35.8	95.230	-0.130	0.500	-0.080
2020/01/31 01:38:35.9	95.230	-0.190	0.560	-0.020
2020/01/31 01:38:36.0	95.240	-0.250	0.620	0.050
2020/01/31 01:38:36.1	95.250	-0.310	0.680	0.110
2020/01/31 01:38:36.2	95.250	-0.370	0.730	0.180
2020/01/31 01:38:36.3	95.250	-0.430	0.780	0.260
2020/01/31 01:38:36.4	95.250	-0.480	0.830	0.330
2020/01/31 01:38:36.5	95.240	-0.540	0.880	0.410
2020/01/31 01:38:36.6	95.240	-0.590	0.910	0.490
2020/01/31 01:38:36.7	95.240	-0.640	0.950	0.570
2020/01/31 01:38:36.8	95.240	-0.690	0.980	0.650
2020/01/31 01:38:36.9	95.230	-0.740	1.010	0.740
2020/01/31 01:38:37.0	95.220	-0.780	1.030	0.830
2020/01/31 01:38:37.1	95.220	-0.820	1.040	0.910
2020/01/31 01:38:37.2	95.210	-0.860	1.050	1.000
2020/01/31 01:38:37.3	95.200	-0.890	1.060	1.090
2020/01/31 01:38:37.4	95.200	-0.930	1.060	1.180
2020/01/31 01:38:37.5	95.190	-0.960	1.060	1.270
2020/01/31 01:38:37.6	95.180	-0.980	1.050	1.350
2020/01/31 01:38:37.7	95.170	-1.000	1.030	1.440
2020/01/31 01:38:37.8	95.160	-1.020	1.010	1.520
2020/01/31 01:38:37.9	95.150	-1.040	0.990	1.600
2020/01/31 01:38:38.0	95.140	-1.050	0.950	1.680
2020/01/31 01:38:38.1	95.120	-1.060	0.920	1.760
2020/01/31 01:38:38.2	95.110	-1.070	0.870	1.830
2020/01/31 01:38:38.3	95.100	-1.070	0.830	1.900
2020/01/31 01:38:38.4	95.090	-1.060	0.770	1.970
2020/01/31 01:38:38.5	95.080	-1.060	0.710	2.030
2020/01/31 01:38:38.6	95.070	-1.050	0.650	2.080
2020/01/31 01:38:38.7	95.060	-1.030	0.580	2.140
2020/01/31 01:38:38.8	95.050	-1.010	0.500	2.180
2020/01/31 01:38:38.9	95.040	-0.990	0.420	2.230
2020/01/31 01:38:39.0	95.050	-0.960	0.340	2.260
2020/01/31 01:38:39.1	95.040	-0.930	0.250	2.300
2020/01/31 01:38:39.2	95.040	-0.890	0.160	2.320
2020/01/31 01:38:39.3	95.040	-0.850	0.060	2.350
2020/01/31 01:38:39.4	95.040	-0.810	-0.040	2.360
2020/01/31 01:38:39.5	95.040	-0.760	-0.140	2.380
2020/01/31 01:38:39.6	95.040	-0.710	-0.240	2.380
2020/01/31 01:38:39.7	95.050	-0.660	-0.350	2.390
2020/01/31 01:38:39.8	95.050	-0.600	-0.450	2.390
2020/01/31 01:38:39.9	95.060	-0.540	-0.560	2.380
2020/01/31 01:38:40.0	95.070	-0.480	-0.670	2.370
2020/01/31 01:38:40.1	95.080	-0.420	-0.770	2.360
2020/01/31 01:38:40.2	95.090	-0.360	-0.870	2.340
2020/01/31 01:38:40.3	95.100	-0.300	-0.960	2.320
2020/01/31 01:38:40.4	95.110	-0.230	-1.050	2.300
2020/01/31 01:38:40.5	95.120	-0.170	-1.140	2.280
2020/01/31 01:38:40.6	95.130	-0.100	-1.220	2.250
2020/01/31 01:38:40.7	95.140	-0.040	-1.300	2.220
2020/01/31 01:38:40.8	95.150	0.020	-1.360	2.190
2020/01/31 01:38:40.9	95.170	0.080	-1.420	2.150
2020/01/31 01:38:41.0	95.150	0.140	-1.470	2.110
2020/01/31 01:38:41.1	95.160	0.200	-1.520	2.070
2020/01/31 01:38:41.2	95.170	0.250	-1.550	2.030
2020/01/31 01:38:41.3	95.180	0.300	-1.580	1.980
2020/01/31 01:38:41.4	95.180	0.350	-1.590	1.930
2020/01/31 01:38:41.5	95.190	0.400	-1.600	1.880
2020/01/31 01:38:41.6	95.190	0.440	-1.600	1.820
2020/01/31 01:38:41.7	95.190	0.480	-1.590	1.760
2020/01/31 01:38:41.8	95.200	0.510	-1.560	1.700
2020/01/31 01:38:41.9	95.200	0.540	-1.530	1.640
2020/01/31 01:38:42.0	95.210	0.570	-1.490	1.570
2020/01/31 01:38:42.1	95.210	0.590	-1.440	1.500
2020/01/31 01:38:42.2	95.210	0.610	-1.380	1.430
2020/01/31 01:38:42.3	95.210	0.620	-1.320	1.360
2020/01/31 01:38:42.4	95.200	0.630	-1.250	1.280
2020/01/31 01:38:42.5	95.200	0.640	-1.170	1.210
2020/01/31 01:38:42.6	95.200	0.640	-1.090	1.130
2020/01/31 01:38:42.7	95.190	0.640	-0.990	1.050
2020/01/31 01:38:42.8	95.190	0.640	-0.900	0.970
2020/01/31 01:38:42.9	95.180	0.630	-0.800	0.900
2020/01/31 01:38:43.0	95.160	0.620	-0.700	0.830
2020/01/31 01:38:43.1	95.150	0.600	-0.590	0.750
2020/01/31 01:38:43.2	95.140	0.590	-0.480	0.680
2020/01/31 01:38:43.3	95.120	0.570	-0.380	0.610
2020/01/31 01:38:43.4	95.100	0.540	-0.270	0.540
2020/01/31 01:38:43.5	95.080	0.520	-0.160	0.480
2020/01/31 01:38:43.6	95.060	0.490	-0.060	0.420
2020/01/31 01:38:43.7	95.030	0.460	0.050	0.370
2020/01/31 01:38:43.8	95.000	0.430	0.150	0.320
2020/01/31 01:38:43.9	94.970	0.400	0.250	0.270
2020/01/31 01:38:44.0	94.930	0.360	0.350	0.220
2020/01/31 01:38:44.1	94.890	0.330	0.440	0.180
2020/01/31 01:38:44.2	94.850	0.290	0.530	0.140
2020/01/31 01:38:44.3	94.810	0.260	0.610	0.110
2020/01/31 01:38:44.4	94.760	0.220	0.690	0.080
2020/01/31 01:38:44.5	94.710	0.190	0.760	0.040
2020/01/31 01:38:44.6	94.670	0.150	0.820	0.010
2020/01/31 01:38:44.7	94.620	0.120	0.880	-0.010
2020/01/31 01:38:44.8	94.580	0.090	0.930	-0.040
2020/01/31 01:38:44.9	94.530	0.060	0.970	-0.070
2020/01/31 01:38:45.0	94.490	0.030	1.010	-0.110
2020/01/31 01:38:45.1	94.450	-0.000	1.030	-0.140
2020/01/31 01:38:45.2	94.410	-0.030	1.050	-0.180
2020/01/31 01:38:45.3	94.370	-0.050	1.060	-0.210
2020/01/31 01:38:45.4	94.340	-0.070	1.060	-0.250
2020/01/31 01:38:45.5	94.310	-0.090	1.050	-0.300
2020/01/31 01:38:45.6	94.280	-0.110	1.030	-0.340
2020/01/31 01:38:45.7	94.260	-0.120	1.000	-0.390
2020/01/31 01:38:45.8	94.230	-0.130	0.970	-0.440
2020/01/31 01:38:45.9	94.220	-0.140	0.930	-0.490
2020/01/31 01:38:46.0	94.200	-0.140	0.880	-0.540
2020/01/31 01:38:46.1	94.190	-0.150	0.820	-0.590
2020/01/31 01:38:46.2	94.180	-0.140	0.750	-0.640
2020/01/31 01:38:46.3	94.170	-0.140	0.680	-0.690
2020/01/31 01:38:46.4	94.170	-0.130	0.610	-0.740
2020/01/31 01:38:46.5	94.170	-0.120	0.530	-0.790
2020/01/31 01:38:46.6	94.160	-0.110	0.440	-0.840
2020/01/31 01:38:46.7	94.170	-0.100	0.350	-0.880
2020/01/31 01:38:46.8	94.170	-0.080	0.260	-0.920
2020/01/31 01:38:46.9	94.170	-0.060	0.160	-0.960
2020/01/31 01:38:47.0	94.190	-0.040	0.070	-0.990
2020/01/31 01:38:47.1	94.190	-0.020	-0.030	-1.020
2020/01/31 01:38:47.2	94.200	0.010	-0.130	-1.050
2020/01/31 01:38:47.3	94.200	0.030	-0.220	-1.070
2020/01/31 01:38:47.4	94.210	0.060	-0.320	-1.080
2020/01/31 01:38:47.5	94.220	0.080	-0.410	-1.090
2020/01/31 01:38:47.6	94.230	0.110	-0.500	-1.100
2020/01/31 01:38:47.7	94.230	0.130	-0.590	-1.100
2020/01/31 01:38:47.8	94.240	0.160	-0.670	-1.100
2020/01/31 01:38:47.9	94.250	0.180	-0.740	-1.090
2020/01/31 01:38:48.0	94.250	0.200	-0.820	-1.070
2020/01/31 01:38:48.1	94.250	0.220	-0.880	-1.050
2020/01/31 01:38:48.2	94.260	0.240	-0.940	-1.030
2020/01/31 01:38:48.3	94.260	0.260	-1.000	-1.000
2020/01/31 01:38:48.4	94.270	0.280	-1.040	-0.960
2020/01/31 01:38:48.5	94.270	0.300	-1.080	-0.920
2020/01/31 01:38:48.6	94.270	0.310	-1.120	-0.870
2020/01/31 01:38:48.7	94.270	0.320	-1.140	-0.820
2020/01/31 01:38:48.8	94.270	0.330	-1.160	-0.760
2020/01/31 01:38:48.9	94.270	0.340	-1.160	-0.700
2020/01/31 01:38:49.0	94.280	0.350	-1.160	-0.630
2020/01/31 01:38:49.1	94.270	0.350	-1.160	-0.560
2020/01/31 01:38:49.2	94.260	0.350	-1.140	-0.490
2020/01/31 01:38:49.3	94.250	0.350	-1.120	-0.400
2020/01/31 01:38:49.4	94.240	0.350	-1.090	-0.320
2020/01/31 01:38:49.5	94.230	0.350	-1.060	-0.230
2020/01/31 01:38:49.6	94.220	0.340	-1.010	-0.140
2020/01/31 01:38:49.7	94.210	0.330	-0.970	-0.040
2020/01/31 01:38:49.8	94.200	0.320	-0.910	0.060
2020/01/31 01:38:49.9	94.180	0.300	-0.850	0.160
2020/01/31 01:38:50.0	94.170	0.290	-0.790	0.280
2020/01/31 01:38:50.1	94.150	0.270	-0.730	0.390
2020/01/31 01:38:50.2	94.140	0.250	-0.660	0.500
2020/01/31 01:38:50.3	94.120	0.230	-0.580	0.610
2020/01/31 01:38:50.4	94.110	0.210	-0.510	0.730
2020/01/31 01:38:50.5	94.090	0.190	-0.430	0.840
2020/01/31 01:38:50.6	94.070	0.160	-0.350	0.960
2020/01/31 01:38:50.7	94.060	0.140	-0.260	1.070
2020/01/31 01:38:50.8	94.040	0.110	-0.180	1.190
2020/01/31 01:38:50.9	94.020	0.080	-0.100	1.300
2020/01/31 01:38:51.0	94.020	0.050	-0.010	1.420
2020/01/31 01:38:51.1	94.000	0.020	0.070	1.530
2020/01/31 01:38:51.2	93.990	-0.010	0.150	1.640
2020/01/31 01:38:51.3	93.970	-0.040	0.230	1.750
2020/01/31 01:38:51.4	93.950	-0.080	0.310	1.860
2020/01/31 01:38:51.5	93.940	-0.110	0.380	1.960
2020/01/31 01:38:51.6	93.920	-0.140	0.460	2.060
2020/01/31 01:38:51.7	93.910	-0.170	0.520	2.150
2020/01/31 01:38:51.8	93.900	-0.200	0.590	2.240
2020/01/31 01:38:51.9	93.880	-0.230	0.650	2.330
2020/01/31 01:38:52.0	93.870	-0.260	0.700	2.410
2020/01/31 01:38:52.1	93.860	-0.290	0.750	2.480
2020/01/31 01:38:52.2	93.850	-0.310	0.790	2.550
2020/01/31 01:38:52.3	93.830	-0.340	0.830	2.620
2020/01/31 01:38:52.4	93.820	-0.360	0.850	2.680
2020/01/31 01:38:52.5	93.810	-0.380	0.880	2.730
2020/01/31 01:38:52.6	93.800	-0.400	0.890	2.780
2020/01/31 01:38:52.7	93.780	-0.410	0.890	2.820
2020/01/31 01:38:52.8	93.770	-0.420	0.890	2.860
2020/01/31 01:38:52.9	93.760	-0.430	0.880	2.890
2020/01/31 01:38:53.0	93.750	-0.440	0.860	2.910
2020/01/31 01:38:53.1	93.740	-0.450	0.830	2.940
2020/01/31 01:38:53.2	93.730	-0.450	0.800	2.950
2020/01/31 01:38:53.3	93.720	-0.440	0.750	2.970
2020/01/31 01:38:53.4	93.710	-0.440	0.700	2.980
2020/01/31 01:38:53.5	93.700	-0.430	0.650	2.980
2020/01/31 01:38:53.6	93.690	-0.420	0.580	2.980
2020/01/31 01:38:53.7	93.680	-0.410	0.510	2.970
2020/01/31 01:38:53.8	93.670	-0.390	0.430	2.960
2020/01/31 01:38:53.9	93.660	-0.370	0.350	2.950
2020/01/31 01:38:54.0	93.680	-0.350	0.270	2.930
2020/01/31 01:38:54.1	93.670	-0.330	0.180	2.910
2020/01/31 01:38:54.2	93.670	-0.300	0.090	2.880
2020/01/31 01:38:54.3	93.660	-0.270	-0.000	2.850
2020/01/31 01:38:54.4	93.650	-0.240	-0.100	2.820
2020/01/31 01:38:54.5	93.650	-0.210	-0.190	2.780
2020/01/31 01:38:54.6	93.640	-0.180	-0.290	2.740
2020/01/31 01:38:54.7	93.640	-0.150	-0.380	2.690
2020/01/31 01:38:54.8	93.630	-0.120	-0.470	2.640
2020/01/31 01:38:54.9	93.630	-0.090	-0.560	2.590
2020/01/31 01:38:55.0	93.630	-0.060	-0.650	2.530
2020/01/31 01:38:55.1	93.630	-0.030	-0.730	2.470
2020/01/31 01:38:55.2	93.630	0.000	-0.800	2.410
2020/01/31 01:38:55.3	93.630	0.030	-0.870	2.350
2020/01/31 01:38:55.4	93.620	0.060	-0.930	2.280
2020/01/31 01:38:55.5	93.620	0.080	-0.990	2.210
2020/01/31 01:38:55.6	93.620	0.110	-1.030	2.140
2020/01/31 01:38:55.7	93.620	0.130	-1.070	2.070
2020/01/31 01:38:55.8	93.620	0.150	-1.100	1.990
2020/01/31 01:38:55.9	93.620	0.160	-1.130	1.920
2020/01/31 01:38:56.0	93.620	0.180	-1.140	1.840
2020/01/31 01:38:56.1	93.620	0.190	-1.140	1.760
2020/01/31 01:38:56.2	93.620	0.200	-1.140	1.680
2020/01/31 01:38:56.3	93.620	0.210	-1.130	1.610
2020/01/31 01:38:56.4	93.610	0.210	-1.110	1.530
2020/01/31 01:38:56.5	93.610	0.210	-1.080	1.450
2020/01/31 01:38:56.6	93.610	0.210	-1.050	1.370
2020/01/31 01:38:56.7	93.600	0.210	-1.010	1.300
2020/01/31 01:38:56.8	93.600	0.210	-0.960	1.220
2020/01/31 01:38:56.9	93.590	0.200	-0.910	1.150
2020/01/31 01:38:57.0	93.580	0.190	-0.850	1.070
2020/01/31 01:38:57.1	93.570	0.180	-0.780	1.000
2020/01/31 01:38:57.2	93.560	0.170	-0.720	0.930
2020/01/31 01:38:57.3	93.560	0.150	-0.650	0.860
2020/01/31 01:38:57.4	93.550	0.140	-0.570	0.790
2020/01/31 01:38:57.5	93.530	0.120	-0.500	0.730
2020/01/31 01:38:57.6	93.520	0.100	-0.420	0.670
2020/01/31 01:38:57.7	93.510	0.080	-0.340	0.600
2020/01/31 01:38:57.8	93.500	0.060	-0.260	0.550
2020/01/31 01:38:57.9	93.490	0.040	-0.180	0.490
2020/01/31 01:38:58.0	93.470	0.020	-0.100	0.440
2020/01/31 01:38:58.1	93.460	0.000	-0.030	0.390
2020/01/31 01:38:58.2	93.450	-0.020	0.040	0.340
2020/01/31 01:38:58.3	93.430	-0.040	0.110	0.290
2020/01/31 01:38:58.4	93.420	-0.060	0.180	0.240
2020/01/31 01:38:58.5	93.410	-0.070	0.240	0.200
2020/01/31 01:38:58.6	93.390	-0.090	0.300	0.150
2020/01/31 01:38:58.7	93.380	-0.110	0.350	0.110
2020/01/31 01:38:58.8	93.370	-0.120	0.400	0.070
2020/01/31 01:38:58.9	93.350	-0.130	0.440	0.030
2020/01/31 01:38:59.0	93.350	-0.140	0.470	-0.010
2020/01/31 01:38:59.1	93.330	-0.160	0.500	-0.050
2020/01/31 01:38:59.2	93.320	-0.160	0.530	-0.080
2020/01/31 01:38:59.3	93.310	-0.170	0.550	-0.120
2020/01/31 01:38:59.4	93.290	-0.180	0.560	-0.150
2020/01/31 01:38:59.5	93.280	-0.180	0.570	-0.190
2020/01/31 01:38:59.6	93.270	-0.180	0.570	-0.220
2020/01/31 01:38:59.7	93.260	-0.180	0.570	-0.250
2020/01/31 01:38:59.8	93.250	-0.180	0.560	-0.280
2020/01/31 01:38:59.9	93.240	-0.180	0.540	-0.310
2020/01/31 01:39:00.0	93.230	-0.180	0.520	-0.340
2020/01/31 01:39:00.1	93.220	-0.170	0.500	-0.370
2020/01/31 01:39:00.2	93.210	-0.160	0.470	-0.400
2020/01/31 01:39:00.3	93.200	-0.150	0.430	-0.420
2020/01/31 01:39:00.4	93.200	-0.140	0.400	-0.450
2020/01/31 01:39:00.5	93.190	-0.130	0.360	-0.480
2020/01/31 01:39:00.6	93.190	-0.120	0.310	-0.500
2020/01/31 01:39:00.7	93.190	-0.110	0.260	-0.520
2020/01/31 01:39:00.8	93.180	-0.090	0.210	-0.540
2020/01/31 01:39:00.9	93.180	-0.080	0.160	-0.560
2020/01/31 01:39:01.0	93.170	-0.060	0.100	-0.580
2020/01/31 01:39:01.1	93.170	-0.040	0.050	-0.590
2020/01/31 01:39:01.2	93.170	-0.030	-0.010	-0.610
2020/01/31 01:39:01.3	93.170	-0.010	-0.070	-0.610
2020/01/31 01:39:01.4	93.170	0.010	-0.130	-0.620
2020/01/31 01:39:01.5	93.170	0.030	-0.190	-0.620
2020/01/31 01:39:01.6	93.170	0.050	-0.240	-0.620
2020/01/31 01:39:01.7	93.170	0.070	-0.300	-0.610
2020/01/31 01:39:01.8	93.180	0.090	-0.360	-0.610
2020/01/31 01:39:01.9	93.180	0.100	-0.420	-0.600
2020/01/31 01:39:02.0	93.170	0.120	-0.470	-0.580
2020/01/31 01:39:02.1	93.170	0.140	-0.520	-0.560
2020/01/31 01:39:02.2	93.180	0.160	-0.570	-0.550
2020/01/31 01:39:02.3	93.180	0.180	-0.620	-0.520
2020/01/31 01:39:02.4	93.190	0.200	-0.660	-0.500
2020/01/31 01:39:02.5	93.190	0.220	-0.700	-0.470
2020/01/31 01:39:02.6	93.200	0.230	-0.740	-0.450
2020/01/31 01:39:02.7	93.210	0.250	-0.770	-0.420
2020/01/31 01:39:02.8	93.220	0.260	-0.800	-0.380
2020/01/31 01:39:02.9	93.230	0.280	-0.820	-0.350
2020/01/31 01:39:03.0	93.230	0.290	-0.840	-0.310
2020/01/31 01:39:03.1	93.240	0.300	-0.850	-0.270
2020/01/31 01:39:03.2	93.250	0.310	-0.850	-0.230
2020/01/31 01:39:03.3	93.260	0.320	-0.850	-0.180
2020/01/31 01:39:03.4	93.270	0.330	-0.850	-0.140
2020/01/31 01:39:03.5	93.280	0.340	-0.830	-0.090
2020/01/31 01:39:03.6	93.290	0.340	-0.820	-0.040
2020/01/31 01:39:03.7	93.300	0.350	-0.800	0.010
2020/01/31 01:39:03.8	93.300	0.350	-0.770	0.070
2020/01/31 01:39:03.9	93.310	0.350	-0.740	0.130
2020/01/31 01:39:04.0	93.310	0.350	-0.700	0.190
2020/01/31 01:39:04.1	93.320	0.350	-0.670	0.250
2020/01/31 01:39:04.2	93.320	0.340	-0.630	0.310
2020/01/31 01:39:04.3	93.320	0.330	-0.580	0.380
2020/01/31 01:39:04.4	93.330	0.320	-0.540	0.440
2020/01/31 01:39:04.5	93.330	0.310	-0.490	0.510
2020/01/31 01:39:04.6	93.330	0.300	-0.440	0.580
2020/01/31 01:39:04.7	93.330	0.290	-0.380	0.650
2020/01/31 01:39:04.8	93.330	0.270	-0.330	0.730
2020/01/31 01:39:04.9	93.330	0.250	-0.280	0.800
2020/01/31 01:39:05.0	93.320	0.230	-0.220	0.880
2020/01/31 01:39:05.1	93.320	0.210	-0.170	0.950
2020/01/31 01:39:05.2	93.320	0.190	-0.120	1.020
2020/01/31 01:39:05.3	93.320	0.160	-0.070	1.100
2020/01/31 01:39:05.4	93.330	0.130	-0.020	1.170
2020/01/31 01:39:05.5	93.330	0.110	0.030	1.240
2020/01/31 01:39:05.6	93.330	0.080	0.080	1.310
2020/01/31 01:39:05.7	93.330	0.050	0.120	1.390
2020/01/31 01:39:05.8	93.340	0.020	0.170	1.460
2020/01/31 01:39:05.9	93.340	-0.010	0.210	1.530
2020/01/31 01:39:06.0	93.350	-0.040	0.240	1.600
2020/01/31 01:39:06.1	93.350	-0.070	0.280	1.670
2020/01/31 01:39:06.2	93.360	-0.100	0.310	1.730
2020/01/31 01:39:06.3	93.370	-0.130	0.340	1.800
2020/01/31 01:39:06.4	93.380	-0.160	0.370	1.860
2020/01/31 01:39:06.5	93.390	-0.190	0.390	1.930
2020/01/31 01:39:06.6	93.400	-0.220	0.420	1.990
2020/01/31 01:39:06.7	93.410	-0.250	0.440	2.050
2020/01/31 01:39:06.8	93.420	-0.270	0.450	2.110
2020/01/31 01:39:06.9	93.440	-0.300	0.470	2.160
2020/01/31 01:39:07.0	93.450	-0.330	0.480	2.220
2020/01/31 01:39:07.1	93.470	-0.350	0.490	2.260
2020/01/31 01:39:07.2	93.480	-0.370	0.500	2.310
2020/01/31 01:39:07.3	93.490	-0.390	0.500	2.350
2020/01/31 01:39:07.4	93.500	-0.410	0.500	2.390
2020/01/31 01:39:07.5	93.500	-0.430	0.500	2.420
2020/01/31 01:39:07.6	93.510	-0.440	0.500	2.450
2020/01/31 01:39:07.7	93.520	-0.460	0.490	2.470
2020/01/31 01:39:07.8	93.530	-0.470	0.480	2.490
2020/01/31 01:39:07.9	93.530	-0.480	0.470	2.500
2020/01/31 01:39:08.0	93.540	-0.490	0.460	2.510
2020/01/31 01:39:08.1	93.550	-0.490	0.440	2.520
2020/01/31 01:39:08.2	93.550	-0.490	0.420	2.510
2020/01/31 01:39:08.3	93.540	-0.490	0.400	2.510
2020/01/31 01:39:08.4	93.540	-0.490	0.380	2.500
2020/01/31 01:39:08.5	93.540	-0.490	0.350	2.490
2020/01/31 01:39:08.6	93.530	-0.480	0.320	2.470
2020/01/31 01:39:08.7	93.530	-0.470	0.290	2.450
2020/01/31 01:39:08.8	93.520	-0.460	0.260	2.430
2020/01/31 01:39:08.9	93.510	-0.450	0.220	2.400
2020/01/31 01:39:09.0	93.500	-0.430	0.180	2.370
2020/01/31 01:39:09.1	93.480	-0.410	0.140	2.340
2020/01/31 01:39:09.2	93.470	-0.390	0.090	2.300
2020/01/31 01:39:09.3	93.450	-0.360	0.050	2.270
2020/01/31 01:39:09.4	93.430	-0.340	-0.000	2.230
2020/01/31 01:39:09.5	93.420	-0.310	-0.050	2.190
2020/01/31 01:39:09.6	93.390	-0.280	-0.110	2.140
2020/01/31 01:39:09.7	93.370	-0.240	-0.160	2.100
2020/01/31 01:39:09.8	93.350	-0.210	-0.220	2.060
2020/01/31 01:39:09.9	93.320	-0.170	-0.280	2.010
2020/01/31 01:39:10.0	93.300	-0.130	-0.340	1.960
2020/01/31 01:39:10.1	93.270	-0.090	-0.400	1.910
2020/01/31 01:39:10.2	93.240	-0.050	-0.460	1.860
2020/01/31 01:39:10.3	93.210	-0.010	-0.520	1.810
2020/01/31 01:39:10.4	93.180	0.040	-0.580	1.760
2020/01/31 01:39:10.5	93.150	0.080	-0.640	1.700
2020/01/31 01:39:10.6	93.120	0.130	-0.690	1.640
2020/01/31 01:39:10.7	93.090	0.170	-0.750	1.580
2020/01/31 01:39:10.8	93.060	0.210	-0.800	1.520
2020/01/31 01:39:10.9	93.030	0.260	-0.850	1.450
2020/01/31 01:39:11.0	93.010	0.300	-0.900	1.380
2020/01/31 01:39:11.1	92.990	0.340	-0.950	1.310
2020/01/31 01:39:11.2	92.960	0.380	-0.990	1.230
2020/01/31 01:39:11.3	92.950	0.420	-1.020	1.150
2020/01/31 01:39:11.4	92.930	0.460	-1.050	1.070
2020/01/31 01:39:11.5	92.920	0.490	-1.080	0.990
2020/01/31 01:39:11.6	92.910	0.520	-1.100	0.900
2020/01/31 01:39:11.7	92.900	0.550	-1.110	0.810
2020/01/31 01:39:11.8	92.900	0.580	-1.120	0.720
2020/01/31 01:39:11.9	92.900	0.600	-1.120	0.620
2020/01/31 01:39:12.0	92.900	0.620	-1.120	0.520
2020/01/31 01:39:12.1	92.900	0.630	-1.100	0.430
2020/01/31 01:39:12.2	92.910	0.640	-1.080	0.330
2020/01/31 01:39:12.3	92.920	0.650	-1.060	0.240
2020/01/31 01:39:12.4	92.930	0.650	-1.020	0.140
2020/01/31 01:39:12.5	92.940	0.650	-0.980	0.050
2020/01/31 01:39:12.6	92.950	0.640	-0.930	-0.040
2020/01/31 01:39:12.7	92.960	0.630	-0.880	-0.130
2020/01/31 01:39:12.8	92.970	0.620	-0.810	-0.220
2020/01/31 01:39:12.9	92.990	0.600	-0.750	-0.310
2020/01/31 01:39:13.0	92.990	0.580	-0.670	-0.380
2020/01/31 01:39:13.1	93.010	0.550	-0.590	-0.460
2020/01/31 01:39:13.2	93.020	0.520	-0.510	-0.540
2020/01/31 01:39:13.3	93.030	0.490	-0.430	-0.610
2020/01/31 01:39:13.4	93.040	0.460	-0.340	-0.680
2020/01/31 01:39:13.5	93.050	0.420	-0.250	-0.740
2020/01/31 01:39:13.6	93.060	0.380	-0.160	-0.790
2020/01/31 01:39:13.7	93.070	0.330	-0.070	-0.840
2020/01/31 01:39:13.8	93.070	0.290	0.020	-0.890
2020/01/31 01:39:13.9	93.080	0.240	0.110	-0.920
2020/01/31 01:39:14.0	93.090	0.190	0.200	-0.960
2020/01/31 01:39:14.1	93.090	0.140	0.280	-0.990
2020/01/31 01:39:14.2	93.090	0.090	0.360	-1.010
2020/01/31 01:39:14.3	93.090	0.040	0.440	-1.030
2020/01/31 01:39:14.4	93.090	-0.010	0.510	-1.040
2020/01/31 01:39:14.5	93.090	-0.060	0.570	-1.050
2020/01/31 01:39:14.6	93.090	-0.110	0.630	-1.050
2020/01/31 01:39:14.7	93.090	-0.150	0.690	-1.050
2020/01/31 01:39:14.8	93.080	-0.200	0.730	-1.050
2020/01/31 01:39:14.9	93.080	-0.250	0.770	-1.040
2020/01/31 01:39:15.0	93.070	-0.290	0.810	-1.020
2020/01/31 01:39:15.1	93.070	-0.340	0.830	-1.010
2020/01/31 01:39:15.2	93.070	-0.380	0.850	-0.980
2020/01/31 01:39:15.3	93.060	-0.420	0.860	-0.960
2020/01/31 01:39:15.4	93.060	-0.460	0.860	-0.930
2020/01/31 01:39:15.5	93.050	-0.490	0.860	-0.890
2020/01/31 01:39:15.6	93.050	-0.530	0.850	-0.850
2020/01/31 01:39:15.7	93.040	-0.560	0.830	-0.810
2020/01/31 01:39:15.8	93.030	-0.580	0.810	-0.760
2020/01/31 01:39:15.9	93.020	-0.610	0.780	-0.710
2020/01/31 01:39:16.0	93.030	-0.630	0.740	-0.640
2020/01/31 01:39:16.1	93.010	-0.650	0.700	-0.580
2020/01/31 01:39:16.2	93.000	-0.670	0.650	-0.510
2020/01/31 01:39:16.3	92.990	-0.680	0.600	-0.440
2020/01/31 01:39:16.4	92.970	-0.690	0.540	-0.360
2020/01/31 01:39:16.5	92.960	-0.700	0.480	-0.280
2020/01/31 01:39:16.6	92.940	-0.700	0.420	-0.190
2020/01/31 01:39:16.7	92.920	-0.700	0.360	-0.100
2020/01/31 01:39:16.8	92.900	-0.700	0.290	-0.010
2020/01/31 01:39:16.9	92.880	-0.700	0.220	0.090
2020/01/31 01:39:17.0	92.860	-0.690	0.140	0.180
2020/01/31 01:39:17.1	92.840	-0.680	0.070	0.280
2020/01/31 01:39:17.2	92.820	-0.660	-0.000	0.380
2020/01/31 01:39:17.3	92.800	-0.650	-0.080	0.480
2020/01/31 01:39:17.4	92.780	-0.630	-0.150	0.570
2020/01/31 01:39:17.5	92.760	-0.610	-0.220	0.670
2020/01/31 01:39:17.6	92.740	-0.590	-0.290	0.770
2020/01/31 01:39:17.7	92.730	-0.560	-0.360	0.860
2020/01/31 01:39:17.8	92.720	-0.530	-0.430	0.950
2020/01/31 01:39:17.9	92.710	-0.500	-0.490	1.040
2020/01/31 01:39:18.0	92.680	-0.470	-0.550	1.120
2020/01/31 01:39:18.1	92.680	-0.440	-0.600	1.200
2020/01/31 01:39:18.2	92.670	-0.400	-0.660	1.280
2020/01/31 01:39:18.3	92.670	-0.370	-0.700	1.350
2020/01/31 01:39:18.4	92.670	-0.330	-0.740	1.420
2020/01/31 01:39:18.5	92.670	-0.290	-0.780	1.480
2020/01/31 01:39:18.6	92.680	-0.250	-0.810	1.540
2020/01/31 01:39:18.7	92.690	-0.210	-0.840	1.590
2020/01/31 01:39:18.8	92.700	-0.170	-0.860	1.650
2020/01/31 01:39:18.9	92.710	-0.130	-0.880	1.690
2020/01/31 01:39:19.0	92.730	-0.090	-0.890	1.740
2020/01/31 01:39:19.1	92.740	-0.040	-0.900	1.780
2020/01/31 01:39:19.2	92.760	-0.000	-0.900	1.820
2020/01/31 01:39:19.3	92.780	0.040	-0.890	1.850
2020/01/31 01:39:19.4	92.800	0.080	-0.890	1.890
2020/01/31 01:39:19.5	92.820	0.120	-0.870	1.920
2020/01/31 01:39:19.6	92.840	0.160	-0.860	1.940
2020/01/31 01:39:19.7	92.860	0.200	-0.840	1.970
2020/01/31 01:39:19.8	92.880	0.240	-0.810	1.990
2020/01/31 01:39:19.9	92.900	0.280	-0.780	2.010
2020/01/31 01:39:20.0	92.900	0.310	-0.760	2.030
2020/01/31 01:39:20.1	92.920	0.350	-0.720	2.050
2020/01/31 01:39:20.2	92.940	0.380	-0.690	2.070
2020/01/31 01:39:20.3	92.950	0.410	-0.650	2.080
2020/01/31 01:39:20.4	92.960	0.440	-0.610	2.090
2020/01/31 01:39:20.5	92.980	0.470	-0.570	2.100
2020/01/31 01:39:20.6	92.980	0.500	-0.530	2.110
2020/01/31 01:39:20.7	92.990	0.520	-0.490	2.120
2020/01/31 01:39:20.8	92.990	0.550	-0.450	2.130
2020/01/31 01:39:20.9	92.990	0.570	-0.410	2.130
2020/01/31 01:39:21.0	92.990	0.590	-0.360	2.140
2020/01/31 01:39:21.1	92.980	0.600	-0.320	2.150
2020/01/31 01:39:21.2	92.970	0.620	-0.280	2.150
2020/01/31 01:39:21.3	92.960	0.630	-0.240	2.150
2020/01/31 01:39:21.4	92.950	0.640	-0.200	2.150
2020/01/31 01:39:21.5	92.930	0.650	-0.160	2.150
2020/01/31 01:39:21.6	92.910	0.660	-0.120	2.140
2020/01/31 01:39:21.7	92.890	0.660	-0.080	2.140
2020/01/31 01:39:21.8	92.860	0.660	-0.050	2.130
2020/01/31 01:39:21.9	92.830	0.660	-0.010	2.120
2020/01/31 01:39:22.0	92.800	0.650	0.020	2.110
2020/01/31 01:39:22.1	92.770	0.650	0.050	2.090
2020/01/31 01:39:22.2	92.730	0.640	0.080	2.080
2020/01/31 01:39:22.3	92.700	0.630	0.120	2.060
2020/01/31 01:39:22.4	92.660	0.610	0.150	2.030
2020/01/31 01:39:22.5	92.620	0.600	0.170	2.010
2020/01/31 01:39:22.6	92.580	0.580	0.200	1.980
2020/01/31 01:39:22.7	92.540	0.560	0.230	1.940
2020/01/31 01:39:22.8	92.490	0.530	0.250	1.900
2020/01/31 01:39:22.9	92.450	0.510	0.270	1.860
2020/01/31 01:39:23.0	92.410	0.480	0.300	1.820
2020/01/31 01:39:23.1	92.360	0.450	0.310	1.770
2020/01/31 01:39:23.2	92.320	0.430	0.330	1.720
2020/01/31 01:39:23.3	92.270	0.390	0.340	1.660
2020/01/31 01:39:23.4	92.230	0.360	0.340	1.610
2020/01/31 01:39:23.5	92.190	0.330	0.350	1.540
2020/01/31 01:39:23.6	92.140	0.300	0.350	1.480
2020/01/31 01:39:23.7	92.100	0.260	0.350	1.410
2020/01/31 01:39:23.8	92.060	0.230	0.340	1.340
2020/01/31 01:39:23.9	92.020	0.190	0.330	1.270
2020/01/31 01:39:24.0	91.980	0.160	0.320	1.190
2020/01/31 01:39:24.1	91.950	0.120	0.300	1.110
2020/01/31 01:39:24.2	91.920	0.090	0.280	1.030
2020/01/31 01:39:24.3	91.890	0.050	0.250	0.950
2020/01/31 01:39:24.4	91.860	0.020	0.230	0.870
2020/01/31 01:39:24.5	91.840	-0.010	0.200	0.790
2020/01/31 01:39:24.6	91.810	-0.050	0.160	0.700
2020/01/31 01:39:24.7	91.790	-0.080	0.130	0.620
2020/01/31 01:39:24.8	91.780	-0.110	0.090	0.540
2020/01/31 01:39:24.9	91.770	-0.140	0.050	0.460
2020/01/31 01:39:25.0	91.760	-0.170	0.010	0.380
2020/01/31 01:39:25.1	91.750	-0.190	-0.040	0.310
2020/01/31 01:39:25.2	91.750	-0.220	-0.080	0.230
2020/01/31 01:39:25.3	91.740	-0.240	-0.120	0.160
2020/01/31 01:39:25.4	91.740	-0.270	-0.170	0.090
2020/01/31 01:39:25.5	91.750	-0.290	-0.210	0.030
2020/01/31 01:39:25.6	91.750	-0.310	-0.250	-0.040
2020/01/31 01:39:25.7	91.760	-0.330	-0.290	-0.100
2020/01/31 01:39:25.8	91.770	-0.350	-0.320	-0.160
2020/01/31 01:39:25.9	91.780	-0.370	-0.360	-0.210
2020/01/31 01:39:26.0	91.800	-0.380	-0.390	-0.260
2020/01/31 01:39:26.1	91.810	-0.400	-0.420	-0.310
2020/01/31 01:39:26.2	91.830	-0.410	-0.440	-0.350
2020/01/31 01:39:26.3	91.850	-0.420	-0.460	-0.400
2020/01/31 01:39:26.4	91.870	-0.430	-0.480	-0.440
2020/01/31 01:39:26.5	91.890	-0.440	-0.500	-0.470
2020/01/31 01:39:26.6	91.920	-0.450	-0.510	-0.510
2020/01/31 01:39:26.7	91.940	-0.450	-0.510	-0.540
2020/01/31 01:39:26.8	91.970	-0.460	-0.520	-0.560
2020/01/31 01:39:26.9	92.000	-0.460	-0.520	-0.590
2020/01/31 01:39:27.0	92.030	-0.460	-0.510	-0.610
2020/01/31 01:39:27.1	92.060	-0.470	-0.500	-0.630
2020/01/31 01:39:27.2	92.090	-0.470	-0.500	-0.640
2020/01/31 01:39:27.3	92.120	-0.460	-0.480	-0.650
2020/01/31 01:39:27.4	92.150	-0.460	-0.470	-0.660
2020/01/31 01:39:27.5	92.180	-0.460	-0.460	-0.670
2020/01/31 01:39:27.6	92.210	-0.450	-0.440	-0.670
2020/01/31 01:39:27.7	92.240	-0.440	-0.420	-0.660
2020/01/31 01:39:27.8	92.270	-0.430	-0.400	-0.650
2020/01/31 01:39:27.9	92.290	-0.420	-0.380	-0.640
2020/01/31 01:39:28.0	92.330	-0.410	-0.360	-0.620
2020/01/31 01:39:28.1	92.350	-0.400	-0.340	-0.600
2020/01/31 01:39:28.2	92.370	-0.390	-0.320	-0.570
2020/01/31 01:39:28.3	92.390	-0.370	-0.290	-0.540
2020/01/31 01:39:28.4	92.410	-0.360	-0.270	-0.500
2020/01/31 01:39:28.5	92.420	-0.340	-0.250	-0.450
2020/01/31 01:39:28.6	92.430	-0.320	-0.230	-0.400
2020/01/31 01:39:28.7	92.440	-0.300	-0.210	-0.350
2020/01/31 01:39:28.8	92.440	-0.280	-0.180	-0.280
2020/01/31 01:39:28.9	92.450	-0.270	-0.160	-0.220
2020/01/31 01:39:29.0	92.440	-0.250	-0.140	-0.140
2020/01/31 01:39:29.1	92.440	-0.230	-0.120	-0.060
2020/01/31 01:39:29.2	92.430	-0.210	-0.100	0.030
2020/01/31 01:39:29.3	92.420	-0.190	-0.080	0.120
2020/01/31 01:39:29.4	92.410	-0.170	-0.060	0.210
2020/01/31 01:39:29.5	92.390	-0.150	-0.040	0.310
2020/01/31 01:39:29.6	92.370	-0.130	-0.020	0.420
2020/01/31 01:39:29.7	92.350	-0.110	0.000	0.520
2020/01/31 01:39:29.8	92.330	-0.090	0.020	0.640
2020/01/31 01:39:29.9	92.310	-0.080	0.040	0.750
2020/01/31 01:39:30.0	92.300	-0.060	0.060	0.860
2020/01/31 01:39:30.1	92.270	-0.050	0.080	0.980
2020/01/31 01:39:30.2	92.240	-0.030	0.100	1.100
2020/01/31 01:39:30.3	92.210	-0.020	0.120	1.220
2020/01/31 01:39:30.4	92.180	-0.010	0.130	1.340
2020/01/31 01:39:30.5	92.150	-0.000	0.150	1.460
2020/01/31 01:39:30.6	92.120	0.010	0.160	1.570
2020/01/31 01:39:30.7	92.080	0.010	0.180	1.680
2020/01/31 01:39:30.8	92.050	0.020	0.190	1.790
2020/01/31 01:39:30.9	92.020	0.020	0.200	1.890
2020/01/31 01:39:31.0	91.980	0.030	0.210	2.000
2020/01/31 01:39:31.1	91.950	0.030	0.210	2.090
2020/01/31 01:39:31.2	91.930	0.030	0.210	2.170
2020/01/31 01:39:31.3	91.900	0.030	0.210	2.240
2020/01/31 01:39:31.4	91.870	0.030	0.210	2.310
2020/01/31 01:39:31.5	91.850	0.030	0.200	2.370
2020/01/31 01:39:31.6	91.830	0.030	0.200	2.410
2020/01/31 01:39:31.7	91.810	0.030	0.190	2.450
2020/01/31 01:39:31.8	91.790	0.030	0.170	2.480
2020/01/31 01:39:31.9	91.780	0.030	0.150	2.500
2020/01/31 01:39:32.0	91.760	0.030	0.140	2.500
2020/01/31 01:39:32.1	91.750	0.030	0.110	2.500
2020/01/31 01:39:32.2	91.740	0.030	0.090	2.500
2020/01/31 01:39:32.3	91.740	0.030	0.060	2.480
2020/01/31 01:39:32.4	91.730	0.040	0.040	2.460
2020/01/31 01:39:32.5	91.730	0.040	0.010	2.420
2020/01/31 01:39:32.6	91.730	0.050	-0.020	2.390
2020/01/31 01:39:32.7	91.730	0.050	-0.050	2.340
2020/01/31 01:39:32.8	91.740	0.060	-0.080	2.290
2020/01/31 01:39:32.9	91.740	0.070	-0.120	2.240
2020/01/31 01:39:33.0	91.750	0.080	-0.150	2.180
2020/01/31 01:39:33.1	91.760	0.090	-0.180	2.120
2020/01/31 01:39:33.2	91.770	0.100	-0.210	2.050
2020/01/31 01:39:33.3	91.780	0.120	-0.240	1.980
2020/01/31 01:39:33.4	91.790	0.130	-0.270	1.920
2020/01/31 01:39:33.5	91.810	0.140	-0.300	1.840
2020/01/31 01:39:33.6	91.830	0.160	-0.330	1.770
2020/01/31 01:39:33.7	91.840	0.180	-0.360	1.700
2020/01/31 01:39:33.8	91.860	0.190	-0.390	1.620
2020/01/31 01:39:33.9	91.880	0.210	-0.410	1.550
2020/01/31 01:39:34.0	91.920	0.230	-0.440	1.480
2020/01/31 01:39:34.1	91.940	0.250	-0.460	1.400
2020/01/31 01:39:34.2	91.960	0.260	-0.480	1.330
2020/01/31 01:39:34.3	91.990	0.280	-0.500	1.250
2020/01/31 01:39:34.4	92.010	0.300	-0.520	1.180
2020/01/31 01:39:34.5	92.040	0.310	-0.540	1.110
2020/01/31 01:39:34.6	92.060	0.330	-0.560	1.030
2020/01/31 01:39:34.7	92.090	0.340	-0.570	0.960
2020/01/31 01:39:34.8	92.110	0.360	-0.590	0.900
2020/01/31 01:39:34.9	92.140	0.370	-0.600	0.830
2020/01/31 01:39:35.0	92.160	0.380	-0.610	0.760
2020/01/31 01:39:35.1	92.190	0.400	-0.620	0.700
2020/01/31 01:39:35.2	92.210	0.400	-0.630	0.640
2020/01/31 01:39:35.3	92.230	0.410	-0.640	0.580
2020/01/31 01:39:35.4	92.260	0.420	-0.650	0.520
2020/01/31 01:39:35.5	92.280	0.430	-0.650	0.470
2020/01/31 01:39:35.6	92.300	0.430	-0.660	0.410
2020/01/31 01:39:35.7	92.320	0.430	-0.660	0.360
2020/01/31 01:39:35.8	92.330	0.430	-0.660	0.320
2020/01/31 01:39:35.9	92.350	0.430	-0.660	0.270
2020/01/31 01:39:36.0	92.350	0.420	-0.650	0.230
2020/01/31 01:39:36.1	92.360	0.420	-0.650	0.200
2020/01/31 01:39:36.2	92.380	0.410	-0.640	0.160
2020/01/31 01:39:36.3	92.380	0.400	-0.620	0.130
2020/01/31 01:39:36.4	92.390	0.380	-0.610	0.100
2020/01/31 01:39:36.5	92.400	0.370	-0.590	0.070
2020/01/31 01:39:36.6	92.400	0.350	-0.570	0.050
2020/01/31 01:39:36.7	92.400	0.330	-0.550	0.030
2020/01/31 01:39:36.8	92.400	0.310	-0.520	0.020
2020/01/31 01:39:36.9	92.390	0.280	-0.490	0.010
2020/01/31 01:39:37.0	92.380	0.260	-0.450	0.000
2020/01/31 01:39:37.1	92.380	0.230	-0.420	0.000
2020/01/31 01:39:37.2	92.370	0.200	-0.380	0.010
2020/01/31 01:39:37.3	92.350	0.170	-0.330	0.010
2020/01/31 01:39:37.4	92.340	0.130	-0.290	0.020
2020/01/31 01:39:37.5	92.320	0.100	-0.240	0.040
2020/01/31 01:39:37.6	92.310	0.060	-0.200	0.060
2020/01/31 01:39:37.7	92.290	0.030	-0.150	0.080
2020/01/31 01:39:37.8	92.270	-0.010	-0.100	0.110
2020/01/31 01:39:37.9	92.250	-0.040	-0.050	0.140
2020/01/31 01:39:38.0	92.240	-0.080	0.010	0.180
2020/01/31 01:39:38.1	92.220	-0.110	0.060	0.210
2020/01/31 01:39:38.2	92.190	-0.150	0.110	0.250
2020/01/31 01:39:38.3	92.170	-0.180	0.160	0.290
2020/01/31 01:39:38.4	92.150	-0.220	0.210	0.330
2020/01/31 01:39:38.5	92.130	-0.250	0.250	0.380
2020/01/31 01:39:38.6	92.100	-0.280	0.300	0.420
2020/01/31 01:39:38.7	92.080	-0.310	0.340	0.460
2020/01/31 01:39:38.8	92.060	-0.330	0.380	0.510
2020/01/31 01:39:38.9	92.030	-0.360	0.420	0.550
2020/01/31 01:39:39.0	92.010	-0.380	0.450	0.600
2020/01/31 01:39:39.1	91.990	-0.400	0.490	0.640
2020/01/31 01:39:39.2	91.970	-0.410	0.510	0.680
2020/01/31 01:39:39.3	91.950	-0.430	0.540	0.720
2020/01/31 01:39:39.4	91.930	-0.440	0.560	0.760
2020/01/31 01:39:39.5	91.910	-0.440	0.570	0.790
2020/01/31 01:39:39.6	91.890	-0.450	0.590	0.820
2020/01/31 01:39:39.7	91.880	-0.450	0.590	0.850
2020/01/31 01:39:39.8	91.860	-0.450	0.600	0.870
2020/01/31 01:39:39.9	91.850	-0.450	0.590	0.890
2020/01/31 01:39:40.0	91.840	-0.440	0.590	0.910
2020/01/31 01:39:40.1	91.830	-0.430	0.570	0.920
2020/01/31 01:39:40.2	91.830	-0.420	0.560	0.920
2020/01/31 01:39:40.3	91.830	-0.410	0.530	0.920
2020/01/31 01:39:40.4	91.830	-0.390	0.510	0.910
2020/01/31 01:39:40.5	91.830	-0.370	0.470	0.900
2020/01/31 01:39:40.6	91.840	-0.350	0.440	0.890
2020/01/31 01:39:40.7	91.850	-0.330	0.400	0.870
2020/01/31 01:39:40.8	91.860	-0.310	0.350	0.850
2020/01/31 01:39:40.9	91.880	-0.280	0.300	0.820
2020/01/31 01:39:41.0	91.890	-0.250	0.240	0.800
2020/01/31 01:39:41.1	91.910	-0.230	0.190	0.760
2020/01/31 01:39:41.2	91.930	-0.200	0.120	0.730
2020/01/31 01:39:41.3	91.960	-0.170	0.060	0.700
2020/01/31 01:39:41.4	91.980	-0.140	-0.010	0.660
2020/01/31 01:39:41.5	92.010	-0.100	-0.080	0.630
2020/01/31 01:39:41.6	92.040	-0.070	-0.150	0.590
2020/01/31 01:39:41.7	92.070	-0.040	-0.220	0.560
2020/01/31 01:39:41.8	92.100	-0.010	-0.300	0.520
2020/01/31 01:39:41.9	92.130	0.020	-0.370	0.490
2020/01/31 01:39:42.0	92.180	0.060	-0.450	0.460
2020/01/31 01:39:42.1	92.210	0.090	-0.520	0.430
2020/01/31 01:39:42.2	92.240	0.120	-0.590	0.400
2020/01/31 01:39:42.3	92.270	0.150	-0.660	0.370
2020/01/31 01:39:42.4	92.300	0.180	-0.720	0.340
2020/01/31 01:39:42.5	92.340	0.200	-0.790	0.320
2020/01/31 01:39:42.6	92.370	0.230	-0.840	0.300
2020/01/31 01:39:42.7	92.400	0.250	-0.890	0.280
2020/01/31 01:39:42.8	92.430	0.280	-0.940	0.270
2020/01/31 01:39:42.9	92.460	0.300	-0.980	0.260
2020/01/31 01:39:43.0	92.490	0.310	-1.010	0.250
2020/01/31 01:39:43.1	92.510	0.330	-1.040	0.250
2020/01/31 01:39:43.2	92.540	0.340	-1.060	0.250
2020/01/31 01:39:43.3	92.560	0.350	-1.070	0.250
2020/01/31 01:39:43.4	92.580	0.360	-1.070	0.260
2020/01/31 01:39:43.5	92.600	0.370	-1.060	0.270
2020/01/31 01:39:43.6	92.620	0.370	-1.050	0.280
2020/01/31 01:39:43.7	92.630	0.370	-1.030	0.310
2020/01/31 01:39:43.8	92.640	0.360	-0.990	0.330
2020/01/31 01:39:43.9	92.650	0.350	-0.950	0.360
2020/01/31 01:39:44.0	92.680	0.340	-0.900	0.390
2020/01/31 01:39:44.1	92.680	0.330	-0.840	0.430
2020/01/31 01:39:44.2	92.680	0.310	-0.770	0.470
2020/01/31 01:39:44.3	92.680	0.290	-0.690	0.520
2020/01/31 01:39:44.4	92.680	0.260	-0.610	0.570
2020/01/31 01:39:44.5	92.670	0.240	-0.530	0.620
2020/01/31 01:39:44.6	92.670	0.200	-0.430	0.670
2020/01/31 01:39:44.7	92.650	0.170	-0.330	0.730
2020/01/31 01:39:44.8	92.640	0.130	-0.230	0.790
2020/01/31 01:39:44.9	92.620	0.090	-0.130	0.840
2020/01/31 01:39:45.0	92.600	0.050	-0.020	0.910
2020/01/31 01:39:45.1	92.580	0.010	0.080	0.970
2020/01/31 01:39:45.2	92.560	-0.040	0.190	1.030
2020/01/31 01:39:45.3	92.540	-0.080	0.300	1.090
2020/01/31 01:39:45.4	92.510	-0.130	0.400	1.150
2020/01/31 01:39:45.5	92.490	-0.180	0.500	1.200
2020/01/31 01:39:45.6	92.460	-0.230	0.600	1.260
2020/01/31 01:39:45.7	92.430	-0.280	0.690	1.310
2020/01/31 01:39:45.8	92.400	-0.330	0.780	1.360
2020/01/31 01:39:45.9	92.370	-0.370	0.860	1.400
2020/01/31 01:39:46.0	92.340	-0.420	0.930	1.450
2020/01/31 01:39:46.1	92.310	-0.460	1.000	1.480
2020/01/31 01:39:46.2	92.290	-0.500	1.050	1.520
2020/01/31 01:39:46.3	92.260	-0.540	1.090	1.550
2020/01/31 01:39:46.4	92.240	-0.580	1.120	1.570
2020/01/31 01:39:46.5	92.220	-0.610	1.140	1.590
2020/01/31 01:39:46.6	92.190	-0.640	1.150	1.600
2020/01/31 01:39:46.7	92.170	-0.660	1.150	1.610
2020/01/31 01:39:46.8	92.160	-0.680	1.130	1.620
2020/01/31 01:39:46.9	92.140	-0.690	1.100	1.620
2020/01/31 01:39:47.0	92.120	-0.700	1.060	1.610
2020/01/31 01:39:47.1	92.110	-0.710	1.010	1.600
2020/01/31 01:39:47.2	92.100	-0.700	0.940	1.590
2020/01/31 01:39:47.3	92.090	-0.700	0.860	1.580
2020/01/31 01:39:47.4	92.080	-0.680	0.780	1.560
2020/01/31 01:39:47.5	92.080	-0.660	0.680	1.530
2020/01/31 01:39:47.6	92.070	-0.640	0.570	1.510
2020/01/31 01:39:47.7	92.070	-0.610	0.460	1.480
2020/01/31 01:39:47.8	92.070	-0.570	0.330	1.450
2020/01/31 01:39:47.9	92.070	-0.530	0.200	1.420
2020/01/31 01:39:48.0	92.070	-0.490	0.070	1.380
2020/01/31 01:39:48.1	92.070	-0.440	-0.070	1.340
2020/01/31 01:39:48.2	92.080	-0.390	-0.210	1.300
2020/01/31 01:39:48.3	92.080	-0.330	-0.340	1.260
2020/01/31 01:39:48.4	92.080	-0.280	-0.480	1.220
2020/01/31 01:39:48.5	92.080	-0.220	-0.620	1.180
2020/01/31 01:39:48.6	92.080	-0.160	-0.750	1.140
2020/01/31 01:39:48.7	92.090	-0.100	-0.880	1.090
2020/01/31 01:39:48.8	92.090	-0.030	-1.000	1.050
2020/01/31 01:39:48.9	92.090	0.030	-1.120	1.010
2020/01/31 01:39:49.0	92.080	0.090	-1.220	0.970
2020/01/31 01:39:49.1	92.080	0.150	-1.320	0.920
2020/01/31 01:39:49.2	92.080	0.210	-1.410	0.880
2020/01/31 01:39:49.3	92.080	0.260	-1.490	0.840
2020/01/31 01:39:49.4	92.080	0.310	-1.560	0.790
2020/01/31 01:39:49.5	92.080	0.360	-1.620	0.750
2020/01/31 01:39:49.6	92.070	0.410	-1.660	0.710
2020/01/31 01:39:49.7	92.070	0.450	-1.690	0.670
2020/01/31 01:39:49.8	92.070	0.490	-1.710	0.640
2020/01/31 01:39:49.9	92.060	0.520	-1.720	0.600
2020/01/31 01:39:50.0	92.050	0.550	-1.710	0.570
2020/01/31 01:39:50.1	92.050	0.580	-1.700	0.540
2020/01/31 01:39:50.2	92.040	0.590	-1.660	0.510
2020/01/31 01:39:50.3	92.030	0.610	-1.620	0.490
2020/01/31 01:39:50.4	92.020	0.620	-1.560	0.470
2020/01/31 01:39:50.5	92.010	0.620	-1.500	0.450
2020/01/31 01:39:50.6	92.000	0.620	-1.420	0.440
2020/01/31 01:39:50.7	91.980	0.610	-1.330	0.430
2020/01/31 01:39:50.8	91.970	0.600	-1.240	0.430
2020/01/31 01:39:50.9	91.950	0.580	-1.130	0.420
2020/01/31 01:39:51.0	91.930	0.560	-1.020	0.430
2020/01/31 01:39:51.1	91.910	0.530	-0.900	0.430
2020/01/31 01:39:51.2	91.890	0.510	-0.780	0.440
2020/01/31 01:39:51.3	91.870	0.470	-0.650	0.450
2020/01/31 01:39:51.4	91.860	0.440	-0.520	0.460
2020/01/31 01:39:51.5	91.840	0.400	-0.390	0.470
2020/01/31 01:39:51.6	91.820	0.360	-0.260	0.480
2020/01/31 01:39:51.7	91.800	0.320	-0.130	0.500
2020/01/31 01:39:51.8	91.790	0.280	-0.000	0.510
2020/01/31 01:39:51.9	91.770	0.240	0.120	0.520
2020/01/31 01:39:52.0	91.750	0.200	0.240	0.540
2020/01/31 01:39:52.1	91.740	0.150	0.360	0.550
2020/01/31 01:39:52.2	91.730	0.110	0.470	0.560
2020/01/31 01:39:52.3	91.720	0.070	0.570	0.570
2020/01/31 01:39:52.4	91.720	0.030	0.660	0.580
2020/01/31 01:39:52.5	91.720	-0.000	0.750	0.590
2020/01/31 01:39:52.6	91.720	-0.030	0.830	0.590
2020/01/31 01:39:52.7	91.720	-0.060	0.890	0.600
2020/01/31 01:39:52.8	91.730	-0.090	0.950	0.600
2020/01/31 01:39:52.9	91.740	-0.120	1.000	0.610
2020/01/31 01:39:53.0	91.750	-0.140	1.030	0.600
2020/01/31 01:39:53.1	91.760	-0.150	1.050	0.600
2020/01/31 01:39:53.2	91.770	-0.170	1.070	0.600
2020/01/31 01:39:53.3	91.790	-0.170	1.070	0.600
2020/01/31 01:39:53.4	91.800	-0.180	1.060	0.600
2020/01/31 01:39:53.5	91.820	-0.180	1.040	0.600
2020/01/31 01:39:53.6	91.830	-0.180	1.010	0.600
2020/01/31 01:39:53.7	91.850	-0.170	0.980	0.610
2020/01/31 01:39:53.8	91.870	-0.160	0.930	0.610
2020/01/31 01:39:53.9	91.880	-0.150	0.870	0.610
2020/01/31 01:39:54.0	91.880	-0.130	0.810	0.610
2020/01/31 01:39:54.1	91.890	-0.120	0.740	0.620
2020/01/31 01:39:54.2	91.910	-0.100	0.660	0.620
2020/01/31 01:39:54.3	91.920	-0.070	0.580	0.620
2020/01/31 01:39:54.4	91.930	-0.050	0.490	0.620
2020/01/31 01:39:54.5	91.940	-0.030	0.400	0.630
2020/01/31 01:39:54.6	91.940	-0.000	0.310	0.630
2020/01/31 01:39:54.7	91.950	0.030	0.220	0.630
2020/01/31 01:39:54.8	91.950	0.050	0.120	0.630
2020/01/31 01:39:54.9	91.960	0.080	0.030	0.630
2020/01/31 01:39:55.0	91.960	0.100	-0.070	0.630
2020/01/31 01:39:55.1	91.970	0.120	-0.150	0.640
2020/01/31 01:39:55.2	91.970	0.140	-0.240	0.640
2020/01/31 01:39:55.3	91.970	0.160	-0.320	0.640
2020/01/31 01:39:55.4	91.980	0.180	-0.390	0.640
2020/01/31 01:39:55.5	91.980	0.190	-0.460	0.650
2020/01/31 01:39:55.6	91.980	0.210	-0.520	0.650
2020/01/31 01:39:55.7	91.980	0.210	-0.570	0.660
2020/01/31 01:39:55.8	91.980	0.220	-0.620	0.670
2020/01/31 01:39:55.9	91.980	0.220	-0.650	0.680
2020/01/31 01:39:56.0	92.000	0.220	-0.680	0.700
2020/01/31 01:39:56.1	91.990	0.220	-0.690	0.710
2020/01/31 01:39:56.2	91.990	0.210	-0.700	0.730
2020/01/31 01:39:56.3	91.990	0.200	-0.700	0.750
2020/01/31 01:39:56.4	91.990	0.180	-0.700	0.780
2020/01/31 01:39:56.5	91.990	0.170	-0.680	0.800
2020/01/31 01:39:56.6	91.990	0.150	-0.650	0.840
2020/01/31 01:39:56.7	91.990	0.120	-0.620	0.870
2020/01/31 01:39:56.8	91.990	0.100	-0.580	0.900
2020/01/31 01:39:56.9	91.990	0.070	-0.540	0.940
2020/01/31 01:39:57.0	91.990	0.040	-0.490	0.990
2020/01/31 01:39:57.1	91.990	0.010	-0.440	1.030
2020/01/31 01:39:57.2	91.990	-0.020	-0.380	1.080
2020/01/31 01:39:57.3	91.990	-0.060	-0.320	1.130
2020/01/31 01:39:57.4	91.990	-0.090	-0.260	1.170
2020/01/31 01:39:57.5	92.000	-0.120	-0.200	1.220
2020/01/31 01:39:57.6	92.000	-0.160	-0.140	1.270
2020/01/31 01:39:57.7	92.000	-0.190	-0.080	1.320
2020/01/31 01:39:57.8	92.000	-0.220	-0.030	1.370
2020/01/31 01:39:57.9	92.010	-0.250	0.020	1.420
2020/01/31 01:39:58.0	92.020	-0.280	0.070	1.470
2020/01/31 01:39:58.1	92.020	-0.300	0.110	1.510
2020/01/31 01:39:58.2	92.020	-0.330	0.150	1.560
2020/01/31 01:39:58.3	92.030	-0.350	0.170	1.610
2020/01/31 01:39:58.4	92.030	-0.360	0.190	1.650
2020/01/31 01:39:58.5	92.040	-0.380	0.210	1.690
2020/01/31 01:39:58.6	92.040	-0.390	0.210	1.740
2020/01/31 01:39:58.7	92.050	-0.400	0.210	1.770
2020/01/31 01:39:58.8	92.050	-0.400	0.200	1.810
2020/01/31 01:39:58.9	92.050	-0.400	0.180	1.840
2020/01/31 01:39:59.0	92.050	-0.400	0.160	1.880
2020/01/31 01:39:59.1	92.050	-0.390	0.130	1.910
2020/01/31 01:39:59.2	92.050	-0.390	0.090	1.930
2020/01/31 01:39:59.3	92.060	-0.370	0.050	1.950
2020/01/31 01:39:59.4	92.060	-0.360	0.000	1.970
2020/01/31 01:39:59.5	92.060	-0.340	-0.050	1.980
2020/01/31 01:39:59.6	92.060	-0.320	-0.110	2.000
2020/01/31 01:39:59.7	92.060	-0.300	-0.160	2.010
2020/01/31 01:39:59.8	92.060	-0.280	-0.220	2.010
2020/01/31 01:39:59.9	92.060	-0.260	-0.280	2.020
2020/01/31 01:40:00.0	92.060	-0.230	-0.330	2.020
2020/01/31 01:40:00.1	92.060	-0.210	-0.390	2.010
2020/01/31 01:40:00.2	92.050	-0.180	-0.450	2.010
2020/01/31 01:40:00.3	92.050	-0.150	-0.500	2.000
2020/01/31 01:40:00.4	92.040	-0.130	-0.540	1.990
2020/01/31 01:40:00.5	92.030	-0.100	-0.590	1.980
2020/01/31 01:40:00.6	92.030	-0.080	-0.630	1.960
2020/01/31 01:40:00.7	92.020	-0.050	-0.660	1.940
2020/01/31 01:40:00.8	92.010	-0.030	-0.680	1.920
2020/01/31 01:40:00.9	92.000	-0.010	-0.700	1.900
2020/01/31 01:40:01.0	91.990	0.010	-0.720	1.870
2020/01/31 01:40:01.1	91.980	0.030	-0.730	1.850
2020/01/31 01:40:01.2	91.970	0.050	-0.720	1.820
2020/01/31 01:40:01.3	91.960	0.060	-0.720	1.780
2020/01/31 01:40:01.4	91.960	0.080	-0.700	1.750
2020/01/31 01:40:01.5	91.950	0.090	-0.680	1.720
2020/01/31 01:40:01.6	91.940	0.100	-0.660	1.680
2020/01/31 01:40:01.7	91.930	0.110	-0.620	1.640
2020/01/31 01:40:01.8	91.930	0.120	-0.590	1.600
2020/01/31 01:40:01.9	91.920	0.120	-0.540	1.560
2020/01/31 01:40:02.0	91.910	0.120	-0.490	1.520
2020/01/31 01:40:02.1	91.910	0.130	-0.440	1.470
2020/01/31 01:40:02.2	91.910	0.130	-0.390	1.420
2020/01/31 01:40:02.3	91.910	0.130	-0.330	1.370
2020/01/31 01:40:02.4	91.910	0.130	-0.280	1.320
2020/01/31 01:40:02.5	91.910	0.130	-0.220	1.270
2020/01/31 01:40:02.6	91.920	0.120	-0.160	1.210
2020/01/31 01:40:02.7	91.920	0.120	-0.100	1.160
2020/01/31 01:40:02.8	91.930	0.120	-0.040	1.100
2020/01/31 01:40:02.9	91.930	0.110	0.020	1.040
2020/01/31 01:40:03.0	91.930	0.110	0.070	0.980
2020/01/31 01:40:03.1	91.940	0.100	0.130	0.910
2020/01/31 01:40:03.2	91.950	0.100	0.180	0.850
2020/01/31 01:40:03.3	91.960	0.090	0.220	0.780
2020/01/31 01:40:03.4	91.970	0.090	0.270	0.720
2020/01/31 01:40:03.5	91.990	0.080	0.310	0.650
2020/01/31 01:40:03.6	92.000	0.080	0.340	0.580
2020/01/31 01:40:03.7	92.010	0.070	0.370	0.510
2020/01/31 01:40:03.8	92.020	0.070	0.400	0.440
2020/01/31 01:40:03.9	92.040	0.060	0.420	0.370
2020/01/31 01:40:04.0	92.060	0.060	0.430	0.310
2020/01/31 01:40:04.1	92.070	0.050	0.440	0.230
2020/01/31 01:40:04.2	92.090	0.050	0.450	0.160
2020/01/31 01:40:04.3	92.100	0.050	0.450	0.090
2020/01/31 01:40:04.4	92.120	0.050	0.440	0.020
2020/01/31 01:40:04.5	92.130	0.040	0.430	-0.050
2020/01/31 01:40:04.6	92.150	0.040	0.410	-0.120
2020/01/31 01:40:04.7	92.160	0.040	0.390	-0.190
2020/01/31 01:40:04.8	92.170	0.040	0.360	-0.250
2020/01/31 01:40:04.9	92.190	0.050	0.320	-0.310
2020/01/31 01:40:05.0	92.210	0.050	0.290	-0.380
2020/01/31 01:40:05.1	92.230	0.050	0.250	-0.430
2020/01/31 01:40:05.2	92.230	0.050	0.200	-0.480
2020/01/31 01:40:05.3	92.240	0.060	0.150	-0.530
2020/01/31 01:40:05.4	92.250	0.060	0.100	-0.570
2020/01/31 01:40:05.5	92.260	0.070	0.050	-0.610
2020/01/31 01:40:05.6	92.260	0.080	-0.010	-0.650
2020/01/31 01:40:05.7	92.270	0.080	-0.070	-0.670
2020/01/31 01:40:05.8	92.270	0.090	-0.130	-0.700
2020/01/31 01:40:05.9	92.270	0.100	-0.190	-0.720
2020/01/31 01:40:06.0	92.280	0.110	-0.250	-0.730
2020/01/31 01:40:06.1	92.280	0.120	-0.320	-0.740
2020/01/31 01:40:06.2	92.280	0.130	-0.380	-0.740
2020/01/31 01:40:06.3	92.270	0.140	-0.440	-0.740
2020/01/31 01:40:06.4	92.270	0.150	-0.500	-0.740
2020/01/31 01:40:06.5	92.270	0.160	-0.560	-0.730
2020/01/31 01:40:06.6	92.260	0.170	-0.620	-0.720
2020/01/31 01:40:06.7	92.260	0.180	-0.680	-0.700
2020/01/31 01:40:06.8	92.250	0.190	-0.730	-0.690
2020/01/31 01:40:06.9	92.250	0.190	-0.780	-0.660
2020/01/31 01:40:07.0	92.250	0.200	-0.830	-0.640
2020/01/31 01:40:07.1	92.240	0.210	-0.870	-0.610
2020/01/31 01:40:07.2	92.240	0.220	-0.900	-0.580
2020/01/31 01:40:07.3	92.230	0.220	-0.940	-0.540
2020/01/31 01:40:07.4	92.220	0.230	-0.960	-0.510
2020/01/31 01:40:07.5	92.220	0.230	-0.980	-0.460
2020/01/31 01:40:07.6	92.210	0.240	-1.000	-0.420
2020/01/31 01:40:07.7	92.200	0.240	-1.010	-0.370
2020/01/31 01:40:07.8	92.190	0.240	-1.010	-0.320
2020/01/31 01:40:07.9	92.190	0.230	-1.000	-0.270
2020/01/31 01:40:08.0	92.180	0.230	-0.990	-0.210
2020/01/31 01:40:08.1	92.170	0.220	-0.960	-0.150
2020/01/31 01:40:08.2	92.160	0.220	-0.930	-0.090
2020/01/31 01:40:08.3	92.150	0.210	-0.900	-0.020
2020/01/31 01:40:08.4	92.150	0.200	-0.850	0.040
2020/01/31 01:40:08.5	92.140	0.180	-0.800	0.110
2020/01/31 01:40:08.6	92.130	0.170	-0.740	0.180
2020/01/31 01:40:08.7	92.120	0.150	-0.670	0.250
2020/01/31 01:40:08.8	92.120	0.130	-0.600	0.320
2020/01/31 01:40:08.9	92.110	0.110	-0.520	0.400
2020/01/31 01:40:09.0	92.110	0.080	-0.440	0.470
2020/01/31 01:40:09.1	92.110	0.060	-0.350	0.540
2020/01/31 01:40:09.2	92.100	0.030	-0.260	0.610
2020/01/31 01:40:09.3	92.100	0.000	-0.160	0.680
2020/01/31 01:40:09.4	92.110	-0.030	-0.070	0.750
2020/01/31 01:40:09.5	92.110	-0.060	0.030	0.820
2020/01/31 01:40:09.6	92.110	-0.090	0.130	0.890
2020/01/31 01:40:09.7	92.120	-0.130	0.230	0.950
2020/01/31 01:40:09.8	92.130	-0.160	0.330	1.010
2020/01/31 01:40:09.9	92.130	-0.200	0.420	1.070
2020/01/31 01:40:10.0	92.150	-0.230	0.510	1.130
2020/01/31 01:40:10.1	92.160	-0.270	0.600	1.180
2020/01/31 01:40:10.2	92.170	-0.310	0.690	1.230
2020/01/31 01:40:10.3	92.190	-0.340	0.770	1.280
2020/01/31 01:40:10.4	92.210	-0.370	0.840	1.320
2020/01/31 01:40:10.5	92.230	-0.410	0.900	1.360
2020/01/31 01:40:10.6	92.250	-0.440	0.960	1.390
2020/01/31 01:40:10.7	92.270	-0.470	1.010	1.420
2020/01/31 01:40:10.8	92.300	-0.500	1.050	1.450
2020/01/31 01:40:10.9	92.320	-0.520	1.090	1.470
2020/01/31 01:40:11.0	92.350	-0.550	1.110	1.490
2020/01/31 01:40:11.1	92.380	-0.570	1.130	1.500
2020/01/31 01:40:11.2	92.410	-0.580	1.130	1.510
2020/01/31 01:40:11.3	92.440	-0.600	1.120	1.520
2020/01/31 01:40:11.4	92.470	-0.610	1.100	1.530
2020/01/31 01:40:11.5	92.500	-0.620	1.070	1.530
2020/01/31 01:40:11.6	92.520	-0.620	1.030	1.540
2020/01/31 01:40:11.7	92.550	-0.620	0.980	1.540
2020/01/31 01:40:11.8	92.570	-0.620	0.920	1.540
2020/01/31 01:40:11.9	92.600	-0.610	0.860	1.550
2020/01/31 01:40:12.0	92.610	-0.600	0.780	1.550
2020/01/31 01:40:12.1	92.630	-0.580	0.690	1.560
2020/01/31 01:40:12.2	92.640	-0.570	0.600	1.560
2020/01/31 01:40:12.3	92.660	-0.540	0.510	1.570
2020/01/31 01:40:12.4	92.670	-0.520	0.410	1.580
2020/01/31 01:40:12.5	92.680	-0.490	0.300	1.590
2020/01/31 01:40:12.6	92.690	-0.460	0.200	1.600
2020/01/31 01:40:12.7	92.690	-0.430	0.090	1.610
2020/01/31 01:40:12.8	92.690	-0.400	-0.030	1.630
2020/01/31 01:40:12.9	92.690	-0.360	-0.140	1.650
2020/01/31 01:40:13.0	92.690	-0.330	-0.250	1.670
2020/01/31 01:40:13.1	92.680	-0.290	-0.360	1.690
2020/01/31 01:40:13.2	92.670	-0.250	-0.460	1.710
2020/01/31 01:40:13.3	92.660	-0.210	-0.570	1.740
2020/01/31 01:40:13.4	92.640	-0.170	-0.660	1.760
2020/01/31 01:40:13.5	92.620	-0.130	-0.760	1.790
2020/01/31 01:40:13.6	92.600	-0.090	-0.850	1.810
2020/01/31 01:40:13.7	92.570	-0.060	-0.930	1.830
2020/01/31 01:40:13.8	92.540	-0.020	-1.010	1.850
2020/01/31 01:40:13.9	92.510	0.020	-1.080	1.870
2020/01/31 01:40:14.0	92.500	0.050	-1.140	1.890
2020/01/31 01:40:14.1	92.460	0.090	-1.200	1.900
2020/01/31 01:40:14.2	92.430	0.120	-1.240	1.910
2020/01/31 01:40:14.3	92.390	0.150	-1.280	1.920
2020/01/31 01:40:14.4	92.360	0.180	-1.320	1.920
2020/01/31 01:40:14.5	92.320	0.210	-1.340	1.920
2020/01/31 01:40:14.6	92.290	0.240	-1.360	1.920
2020/01/31 01:40:14.7	92.260	0.260	-1.370	1.910
2020/01/31 01:40:14.8	92.220	0.290	-1.370	1.890
2020/01/31 01:40:14.9	92.190	0.310	-1.360	1.870
2020/01/31 01:40:15.0	92.160	0.330	-1.350	1.850
2020/01/31 01:40:15.1	92.130	0.350	-1.330	1.820
2020/01/31 01:40:15.2	92.100	0.360	-1.300	1.790
2020/01/31 01:40:15.3	92.080	0.380	-1.270	1.760
2020/01/31 01:40:15.4	92.050	0.390	-1.230	1.720
2020/01/31 01:40:15.5	92.030	0.410	-1.190	1.680
2020/01/31 01:40:15.6	92.020	0.420	-1.140	1.630
2020/01/31 01:40:15.7	92.000	0.430	-1.090	1.580
2020/01/31 01:40:15.8	91.990	0.450	-1.040	1.530
2020/01/31 01:40:15.9	91.980	0.460	-0.980	1.480
2020/01/31 01:40:16.0	91.980	0.470	-0.920	1.420
2020/01/31 01:40:16.1	91.970	0.480	-0.860	1.360
2020/01/31 01:40:16.2	91.970	0.490	-0.800	1.290
2020/01/31 01:40:16.3	91.970	0.500	-0.740	1.230
2020/01/31 01:40:16.4	91.980	0.510	-0.680	1.160
2020/01/31 01:40:16.5	91.980	0.520	-0.610	1.080
2020/01/31 01:40:16.6	91.990	0.530	-0.550	1.010
2020/01/31 01:40:16.7	92.000	0.540	-0.490	0.930
2020/01/31 01:40:16.8	92.020	0.550	-0.430	0.850
2020/01/31 01:40:16.9	92.030	0.560	-0.380	0.770
2020/01/31 01:40:17.0	92.040	0.560	-0.320	0.690
2020/01/31 01:40:17.1	92.060	0.570	-0.260	0.610
2020/01/31 01:40:17.2	92.080	0.580	-0.210	0.520
2020/01/31 01:40:17.3	92.100	0.580	-0.150	0.440
2020/01/31 01:40:17.4	92.130	0.590	-0.100	0.350
2020/01/31 01:40:17.5	92.150	0.590	-0.050	0.270
2020/01/31 01:40:17.6	92.170	0.590	0.010	0.190
2020/01/31 01:40:17.7	92.200	0.590	0.060	0.110
2020/01/31 01:40:17.8	92.220	0.580	0.110	0.030
2020/01/31 01:40:17.9	92.240	0.580	0.160	-0.040
2020/01/31 01:40:18.0	92.270	0.570	0.220	-0.110
2020/01/31 01:40:18.1	92.280	0.550	0.270	-0.180
2020/01/31 01:40:18.2	92.290	0.540	0.320	-0.250
2020/01/31 01:40:18.3	92.300	0.520	0.380	-0.310
2020/01/31 01:40:18.4	92.310	0.490	0.430	-0.370
2020/01/31 01:40:18.5	92.320	0.470	0.480	-0.430
2020/01/31 01:40:18.6	92.320	0.440	0.530	-0.480
2020/01/31 01:40:18.7	92.320	0.410	0.590	-0.530
2020/01/31 01:40:18.8	92.320	0.370	0.640	-0.580
2020/01/31 01:40:18.9	92.310	0.330	0.680	-0.620
2020/01/31 01:40:19.0	92.300	0.290	0.730	-0.660
2020/01/31 01:40:19.1	92.290	0.240	0.770	-0.690
2020/01/31 01:40:19.2	92.280	0.200	0.820	-0.720
2020/01/31 01:40:19.3	92.260	0.150	0.860	-0.750
2020/01/31 01:40:19.4	92.250	0.100	0.890	-0.770
2020/01/31 01:40:19.5	92.230	0.040	0.930	-0.790
2020/01/31 01:40:19.6	92.210	-0.010	0.960	-0.810
2020/01/31 01:40:19.7	92.190	-0.060	0.980	-0.820
2020/01/31 01:40:19.8	92.160	-0.120	1.000	-0.820
2020/01/31 01:40:19.9	92.140	-0.170	1.010	-0.830
2020/01/31 01:40:20.0	92.130	-0.230	1.020	-0.830
2020/01/31 01:40:20.1	92.110	-0.280	1.020	-0.820
2020/01/31 01:40:20.2	92.090	-0.330	1.020	-0.810
2020/01/31 01:40:20.3	92.070	-0.380	1.000	-0.800
2020/01/31 01:40:20.4	92.050	-0.420	0.980	-0.780
2020/01/31 01:40:20.5	92.030	-0.470	0.950	-0.750
2020/01/31 01:40:20.6	92.010	-0.510	0.920	-0.730
2020/01/31 01:40:20.7	92.000	-0.540	0.870	-0.700
2020/01/31 01:40:20.8	91.980	-0.580	0.820	-0.660
2020/01/31 01:40:20.9	91.970	-0.600	0.750	-0.620
2020/01/31 01:40:21.0	91.960	-0.630	0.680	-0.570
2020/01/31 01:40:21.1	91.950	-0.650	0.600	-0.520
2020/01/31 01:40:21.2	91.950	-0.660	0.520	-0.470
2020/01/31 01:40:21.3	91.940	-0.670	0.430	-0.420
2020/01/31 01:40:21.4	91.930	-0.680	0.330	-0.360
2020/01/31 01:40:21.5	91.930	-0.680	0.230	-0.300
2020/01/31 01:40:21.6	91.930	-0.670	0.120	-0.230
2020/01/31 01:40:21.7	91.920	-0.670	0.010	-0.170
2020/01/31 01:40:21.8	91.920	-0.650	-0.110	-0.100
2020/01/31 01:40:21.9	91.930	-0.640	-0.220	-0.030
2020/01/31 01:40:22.0	91.920	-0.620	-0.340	0.040
2020/01/31 01:40:22.1	91.930	-0.590	-0.460	0.110
2020/01/31 01:40:22.2	91.930	-0.570	-0.570	0.180
2020/01/31 01:40:22.3	91.940	-0.540	-0.690	0.250
2020/01/31 01:40:22.4	91.960	-0.510	-0.800	0.320
2020/01/31 01:40:22.5	91.970	-0.470	-0.910	0.390
2020/01/31 01:40:22.6	91.980	-0.440	-1.010	0.450
2020/01/31 01:40:22.7	92.000	-0.400	-1.100	0.520
2020/01/31 01:40:22.8	92.020	-0.370	-1.190	0.580
2020/01/31 01:40:22.9	92.040	-0.330	-1.270	0.640
2020/01/31 01:40:23.0	92.050	-0.300	-1.350	0.700
2020/01/31 01:40:23.1	92.070	-0.260	-1.410	0.760
2020/01/31 01:40:23.2	92.090	-0.230	-1.460	0.820
2020/01/31 01:40:23.3	92.110	-0.190	-1.510	0.880
2020/01/31 01:40:23.4	92.140	-0.160	-1.540	0.930
2020/01/31 01:40:23.5	92.160	-0.130	-1.560	0.990
2020/01/31 01:40:23.6	92.180	-0.100	-1.570	1.040
2020/01/31 01:40:23.7	92.200	-0.070	-1.570	1.090
2020/01/31 01:40:23.8	92.220	-0.050	-1.560	1.150
2020/01/31 01:40:23.9	92.240	-0.030	-1.530	1.200
2020/01/31 01:40:24.0	92.250	-0.010	-1.490	1.260
2020/01/31 01:40:24.1	92.270	0.010	-1.450	1.310
2020/01/31 01:40:24.2	92.280	0.030	-1.400	1.370
2020/01/31 01:40:24.3	92.290	0.040	-1.330	1.430
2020/01/31 01:40:24.4	92.300	0.050	-1.260	1.490
2020/01/31 01:40:24.5	92.300	0.060	-1.180	1.550
2020/01/31 01:40:24.6	92.300	0.060	-1.100	1.610
2020/01/31 01:40:24.7	92.300	0.060	-1.010	1.670
2020/01/31 01:40:24.8	92.290	0.060	-0.910	1.740
2020/01/31 01:40:24.9	92.290	0.060	-0.800	1.800
2020/01/31 01:40:25.0	92.280	0.060	-0.700	1.870
2020/01/31 01:40:25.1	92.270	0.050	-0.590	1.940
2020/01/31 01:40:25.2	92.250	0.050	-0.480	2.010
2020/01/31 01:40:25.3	92.230	0.040	-0.360	2.080
2020/01/31 01:40:25.4	92.210	0.030	-0.250	2.150
2020/01/31 01:40:25.5	92.190	0.020	-0.130	2.220
2020/01/31 01:40:25.6	92.160	0.010	-0.020	2.280
2020/01/31 01:40:25.7	92.130	-0.000	0.090	2.350
2020/01/31 01:40:25.8	92.100	-0.010	0.190	2.410
2020/01/31 01:40:25.9	92.070	-0.030	0.300	2.470
2020/01/31 01:40:26.0	92.030	-0.040	0.390	2.530
2020/01/31 01:40:26.1	92.000	-0.050	0.490	2.580
2020/01/31 01:40:26.2	91.960	-0.060	0.570	2.630
2020/01/31 01:40:26.3	91.930	-0.070	0.650	2.670
2020/01/31 01:40:26.4	91.890	-0.080	0.720	2.710
2020/01/31 01:40:26.5	91.860	-0.090	0.780	2.740
2020/01/31 01:40:26.6	91.830	-0.090	0.830	2.770
2020/01/31 01:40:26.7	91.790	-0.100	0.870	2.790
2020/01/31 01:40:26.8	91.760	-0.100	0.910	2.800
2020/01/31 01:40:26.9	91.730	-0.100	0.930	2.800
2020/01/31 01:40:27.0	91.700	-0.100	0.940	2.790
2020/01/31 01:40:27.1	91.670	-0.100	0.950	2.780
2020/01/31 01:40:27.2	91.650	-0.090	0.940	2.760
2020/01/31 01:40:27.3	91.630	-0.090	0.930	2.720
2020/01/31 01:40:27.4	91.610	-0.080	0.900	2.680
2020/01/31 01:40:27.5	91.590	-0.060	0.870	2.630
2020/01/31 01:40:27.6	91.580	-0.050	0.820	2.570
2020/01/31 01:40:27.7	91.570	-0.030	0.770	2.500
2020/01/31 01:40:27.8	91.560	-0.010	0.710	2.430
2020/01/31 01:40:27.9	91.560	0.010	0.650	2.340
2020/01/31 01:40:28.0	91.570	0.030	0.570	2.250
2020/01/31 01:40:28.1	91.570	0.050	0.500	2.150
2020/01/31 01:40:28.2	91.580	0.080	0.410	2.040
2020/01/31 01:40:28.3	91.580	0.110	0.330	1.930
2020/01/31 01:40:28.4	91.600	0.130	0.240	1.810
2020/01/31 01:40:28.5	91.610	0.160	0.150	1.690
2020/01/31 01:40:28.6	91.620	0.190	0.060	1.560
2020/01/31 01:40:28.7	91.640	0.220	-0.040	1.430
2020/01/31 01:40:28.8	91.660	0.250	-0.130	1.300
2020/01/31 01:40:28.9	91.680	0.280	-0.220	1.170
2020/01/31 01:40:29.0	91.700	0.310	-0.310	1.030
2020/01/31 01:40:29.1	91.720	0.340	-0.390	0.900
2020/01/31 01:40:29.2	91.740	0.370	-0.470	0.770
2020/01/31 01:40:29.3	91.760	0.400	-0.550	0.640
2020/01/31 01:40:29.4	91.790	0.420	-0.620	0.510
2020/01/31 01:40:29.5	91.810	0.450	-0.680	0.380
2020/01/31 01:40:29.6	91.830	0.470	-0.740	0.260
2020/01/31 01:40:29.7	91.850	0.490	-0.790	0.140
2020/01/31 01:40:29.8	91.870	0.500	-0.830	0.020
2020/01/31 01:40:29.9	91.890	0.520	-0.870	-0.090
2020/01/31 01:40:30.0	91.910	0.530	-0.890	-0.200
2020/01/31 01:40:30.1	91.930	0.540	-0.910	-0.310
2020/01/31 01:40:30.2	91.950	0.540	-0.920	-0.410
2020/01/31 01:40:30.3	91.970	0.540	-0.920	-0.500
2020/01/31 01:40:30.4	91.990	0.540	-0.920	-0.590
2020/01/31 01:40:30.5	92.000	0.540	-0.910	-0.680
2020/01/31 01:40:30.6	92.020	0.530	-0.890	-0.760
2020/01/31 01:40:30.7	92.040	0.520	-0.870	-0.840
2020/01/31 01:40:30.8	92.050	0.500	-0.840	-0.910
2020/01/31 01:40:30.9	92.060	0.490	-0.810	-0.970
2020/01/31 01:40:31.0	92.060	0.470	-0.770	-1.030
2020/01/31 01:40:31.1	92.070	0.440	-0.730	-1.080
2020/01/31 01:40:31.2	92.090	0.420	-0.680	-1.130
2020/01/31 01:40:31.3	92.090	0.390	-0.630	-1.170
2020/01/31 01:40:31.4	92.100	0.360	-0.590	-1.200
2020/01/31 01:40:31.5	92.110	0.330	-0.530	-1.220
2020/01/31 01:40:31.6	92.110	0.300	-0.480	-1.240
2020/01/31 01:40:31.7	92.120	0.260	-0.430	-1.250
2020/01/31 01:40:31.8	92.120	0.230	-0.380	-1.250
2020/01/31 01:40:31.9	92.120	0.190	-0.330	-1.240
2020/01/31 01:40:32.0	92.120	0.150	-0.270	-1.220
2020/01/31 01:40:32.1	92.120	0.110	-0.220	-1.200
2020/01/31 01:40:32.2	92.110	0.070	-0.170	-1.160
2020/01/31 01:40:32.3	92.100	0.030	-0.130	-1.130
2020/01/31 01:40:32.4	92.100	-0.000	-0.080	-1.080
2020/01/31 01:40:32.5	92.090	-0.040	-0.040	-1.030
2020/01/31 01:40:32.6	92.080	-0.080	-0.000	-0.970
2020/01/31 01:40:32.7	92.070	-0.120	0.040	-0.900
2020/01/31 01:40:32.8	92.060	-0.160	0.070	-0.830
2020/01/31 01:40:32.9	92.050	-0.190	0.100	-0.750
2020/01/31 01:40:33.0	92.050	-0.230	0.130	-0.670
2020/01/31 01:40:33.1	92.040	-0.260	0.160	-0.580
2020/01/31 01:40:33.2	92.030	-0.290	0.180	-0.490
2020/01/31 01:40:33.3	92.020	-0.320	0.200	-0.400
2020/01/31 01:40:33.4	92.010	-0.340	0.220	-0.310
2020/01/31 01:40:33.5	92.010	-0.370	0.230	-0.210
2020/01/31 01:40:33.6	92.010	-0.390	0.250	-0.120
2020/01/31 01:40:33.7	92.000	-0.410	0.260	-0.020
2020/01/31 01:40:33.8	92.000	-0.430	0.260	0.070
2020/01/31 01:40:33.9	92.010	-0.440	0.270	0.170
2020/01/31 01:40:34.0	92.010	-0.460	0.270	0.270
2020/01/31 01:40:34.1	92.020	-0.470	0.270	0.360
2020/01/31 01:40:34.2	92.020	-0.470	0.270	0.460
2020/01/31 01:40:34.3	92.030	-0.480	0.260	0.550
2020/01/31 01:40:34.4	92.040	-0.480	0.250	0.640
2020/01/31 01:40:34.5	92.050	-0.480	0.240	0.720
2020/01/31 01:40:34.6	92.060	-0.480	0.230	0.810
2020/01/31 01:40:34.7	92.080	-0.470	0.220	0.890
2020/01/31 01:40:34.8	92.090	-0.470	0.200	0.970
2020/01/31 01:40:34.9	92.100	-0.460	0.190	1.040
2020/01/31 01:40:35.0	92.110	-0.450	0.170	1.120
2020/01/31 01:40:35.1	92.120	-0.440	0.150	1.190
2020/01/31 01:40:35.2	92.130	-0.420	0.130	1.260
2020/01/31 01:40:35.3	92.150	-0.410	0.110	1.320
2020/01/31 01:40:35.4	92.160	-0.390	0.080	1.380
2020/01/31 01:40:35.5	92.170	-0.370	0.060	1.440
2020/01/31 01:40:35.6	92.180	-0.360	0.040	1.500
2020/01/31 01:40:35.7	92.190	-0.340	0.020	1.550
2020/01/31 01:40:35.8	92.200	-0.320	-0.000	1.600
2020/01/31 01:40:35.9	92.210	-0.300	-0.020	1.650
2020/01/31 01:40:36.0	92.210	-0.280	-0.050	1.700
2020/01/31 01:40:36.1	92.210	-0.250	-0.070	1.750
2020/01/31 01:40:36.2	92.220	-0.230	-0.090	1.790
2020/01/31 01:40:36.3	92.220	-0.210	-0.100	1.830
2020/01/31 01:40:36.4	92.220	-0.190	-0.120	1.870
2020/01/31 01:40:36.5	92.220	-0.170	-0.130	1.910
2020/01/31 01:40:36.6	92.220	-0.150	-0.150	1.950
2020/01/31 01:40:36.7	92.230	-0.130	-0.160	1.980
2020/01/31 01:40:36.8	92.230	-0.120	-0.160	2.010
2020/01/31 01:40:36.9	92.230	-0.100	-0.170	2.050
2020/01/31 01:40:37.0	92.240	-0.080	-0.180	2.080
2020/01/31 01:40:37.1	92.240	-0.060	-0.180	2.100
2020/01/31 01:40:37.2	92.240	-0.050	-0.190	2.130
2020/01/31 01:40:37.3	92.250	-0.040	-0.190	2.150
2020/01/31 01:40:37.4	92.250	-0.020	-0.190	2.170
2020/01/31 01:40:37.5	92.260	-0.010	-0.190	2.190
2020/01/31 01:40:37.6	92.260	0.000	-0.190	2.210
2020/01/31 01:40:37.7	92.270	0.020	-0.190	2.220
2020/01/31 01:40:37.8	92.280	0.030	-0.190	2.230
2020/01/31 01:40:37.9	92.290	0.040	-0.200	2.240
2020/01/31 01:40:38.0	92.300	0.050	-0.200	2.240
2020/01/31 01:40:38.1	92.310	0.060	-0.200	2.240
2020/01/31 01:40:38.2	92.320	0.070	-0.210	2.240
2020/01/31 01:40:38.3	92.340	0.080	-0.210	2.240
2020/01/31 01:40:38.4	92.350	0.090	-0.220	2.230
2020/01/31 01:40:38.5	92.360	0.100	-0.230	2.210
2020/01/31 01:40:38.6	92.380	0.110	-0.250	2.200
2020/01/31 01:40:38.7	92.390	0.120	-0.260	2.180
2020/01/31 01:40:38.8	92.400	0.130	-0.280	2.150
2020/01/31 01:40:38.9	92.420	0.140	-0.300	2.120
2020/01/31 01:40:39.0	92.430	0.160	-0.330	2.090
2020/01/31 01:40:39.1	92.450	0.170	-0.350	2.050
2020/01/31 01:40:39.2	92.460	0.180	-0.380	2.010
2020/01/31 01:40:39.3	92.480	0.200	-0.410	1.960
2020/01/31 01:40:39.4	92.490	0.210	-0.440	1.910
2020/01/31 01:40:39.5	92.510	0.230	-0.470	1.850
2020/01/31 01:40:39.6	92.520	0.240	-0.510	1.790
2020/01/31 01:40:39.7	92.540	0.260	-0.540	1.730
2020/01/31 01:40:39.8	92.550	0.280	-0.570	1.670
2020/01/31 01:40:39.9	92.570	0.290	-0.600	1.610
2020/01/31 01:40:40.0	92.580	0.310	-0.630	1.540
2020/01/31 01:40:40.1	92.590	0.320	-0.660	1.480
2020/01/31 01:40:40.2	92.600	0.340	-0.680	1.420
2020/01/31 01:40:40.3	92.610	0.350	-0.700	1.350
2020/01/31 01:40:40.4	92.620	0.370	-0.720	1.290
2020/01/31 01:40:40.5	92.630	0.380	-0.730	1.230
2020/01/31 01:40:40.6	92.630	0.390	-0.740	1.180
2020/01/31 01:40:40.7	92.640	0.390	-0.740	1.120
2020/01/31 01:40:40.8	92.640	0.400	-0.730	1.070
2020/01/31 01:40:40.9	92.640	0.400	-0.720	1.010
2020/01/31 01:40:41.0	92.630	0.400	-0.710	0.970
2020/01/31 01:40:41.1	92.630	0.400	-0.690	0.920
2020/01/31 01:40:41.2	92.630	0.390	-0.660	0.870
2020/01/31 01:40:41.3	92.630	0.390	-0.620	0.830
2020/01/31 01:40:41.4	92.620	0.380	-0.580	0.790
2020/01/31 01:40:41.5	92.620	0.360	-0.540	0.750
2020/01/31 01:40:41.6	92.610	0.340	-0.490	0.710
2020/01/31 01:40:41.7	92.610	0.320	-0.440	0.670
2020/01/31 01:40:41.8	92.600	0.300	-0.380	0.630
2020/01/31 01:40:41.9	92.590	0.280	-0.320	0.600
2020/01/31 01:40:42.0	92.590	0.250	-0.250	0.570
2020/01/31 01:40:42.1	92.580	0.220	-0.190	0.530
2020/01/31 01:40:42.2	92.580	0.190	-0.120	0.490
2020/01/31 01:40:42.3	92.570	0.160	-0.050	0.460
2020/01/31 01:40:42.4	92.560	0.120	0.010	0.420
2020/01/31 01:40:42.5	92.560	0.090	0.080	0.390
2020/01/31 01:40:42.6	92.550	0.050	0.140	0.350
2020/01/31 01:40:42.7	92.550	0.020	0.200	0.310
2020/01/31 01:40:42.8	92.550	-0.020	0.260	0.270
2020/01/31 01:40:42.9	92.550	-0.050	0.310	0.230
2020/01/31 01:40:43.0	92.540	-0.090	0.370	0.190
2020/01/31 01:40:43.1	92.540	-0.120	0.410	0.140
2020/01/31 01:40:43.2	92.540	-0.150	0.460	0.100
2020/01/31 01:40:43.3	92.540	-0.180	0.490	0.060
2020/01/31 01:40:43.4	92.540	-0.210	0.530	0.020
2020/01/31 01:40:43.5	92.540	-0.240	0.560	-0.020
2020/01/31 01:40:43.6	92.540	-0.260	0.580	-0.060
2020/01/31 01:40:43.7	92.540	-0.280	0.600	-0.100
2020/01/31 01:40:43.8	92.540	-0.300	0.610	-0.140
2020/01/31 01:40:43.9	92.540	-0.320	0.620	-0.170
2020/01/31 01:40:44.0	92.540	-0.330	0.620	-0.210
2020/01/31 01:40:44.1	92.540	-0.340	0.620	-0.240
2020/01/31 01:40:44.2	92.540	-0.350	0.610	-0.270
2020/01/31 01:40:44.3	92.540	-0.350	0.590	-0.300
2020/01/31 01:40:44.4	92.550	-0.350	0.570	-0.320
2020/01/31 01:40:44.5	92.550	-0.350	0.550	-0.350
2020/01/31 01:40:44.6	92.550	-0.350	0.520	-0.370
2020/01/31 01:40:44.7	92.550	-0.340	0.490	-0.390
2020/01/31 01:40:44.8	92.550	-0.330	0.450	-0.410
2020/01/31 01:40:44.9	92.560	-0.320	0.400	-0.430
2020/01/31 01:40:45.0	92.570	-0.300	0.360	-0.440
2020/01/31 01:40:45.1	92.580	-0.290	0.310	-0.450
2020/01/31 01:40:45.2	92.580	-0.270	0.260	-0.470
2020/01/31 01:40:45.3	92.590	-0.250	0.200	-0.480
2020/01/31 01:40:45.4	92.600	-0.230	0.140	-0.490
2020/01/31 01:40:45.5	92.610	-0.200	0.090	-0.500
2020/01/31 01:40:45.6	92.630	-0.180	0.030	-0.520
2020/01/31 01:40:45.7	92.640	-0.160	-0.030	-0.530
2020/01/31 01:40:45.8	92.660	-0.130	-0.090	-0.540
2020/01/31 01:40:45.9	92.680	-0.100	-0.150	-0.540
2020/01/31 01:40:46.0	92.700	-0.080	-0.210	-0.550
2020/01/31 01:40:46.1	92.720	-0.050	-0.270	-0.550
2020/01/31 01:40:46.2	92.740	-0.030	-0.330	-0.550
2020/01/31 01:40:46.3	92.770	-0.010	-0.380	-0.560
2020/01/31 01:40:46.4	92.790	0.020	-0.430	-0.550
2020/01/31 01:40:46.5	92.810	0.040	-0.490	-0.550
2020/01/31 01:40:46.6	92.840	0.060	-0.530	-0.540
2020/01/31 01:40:46.7	92.860	0.080	-0.580	-0.530
2020/01/31 01:40:46.8	92.880	0.100	-0.620	-0.510
2020/01/31 01:40:46.9	92.900	0.120	-0.660	-0.490
2020/01/31 01:40:47.0	92.920	0.130	-0.690	-0.470
2020/01/31 01:40:47.1	92.930	0.150	-0.720	-0.440
2020/01/31 01:40:47.2	92.950	0.160	-0.750	-0.400
2020/01/31 01:40:47.3	92.960	0.170	-0.770	-0.370
2020/01/31 01:40:47.4	92.970	0.170	-0.780	-0.320
2020/01/31 01:40:47.5	92.980	0.180	-0.800	-0.280
2020/01/31 01:40:47.6	92.990	0.190	-0.810	-0.220
2020/01/31 01:40:47.7	93.000	0.190	-0.810	-0.170
2020/01/31 01:40:47.8	93.000	0.190	-0.810	-0.110
2020/01/31 01:40:47.9	93.010	0.190	-0.800	-0.050
2020/01/31 01:40:48.0	93.000	0.180	-0.800	0.020
2020/01/31 01:40:48.1	93.000	0.180	-0.780	0.090
2020/01/31 01:40:48.2	93.000	0.170	-0.760	0.160
2020/01/31 01:40:48.3	93.000	0.160	-0.740	0.230
2020/01/31 01:40:48.4	93.000	0.160	-0.710	0.300
2020/01/31 01:40:48.5	92.990	0.140	-0.690	0.380
2020/01/31 01:40:48.6	92.990	0.130	-0.650	0.450
2020/01/31 01:40:48.7	92.980	0.120	-0.610	0.530
2020/01/31 01:40:48.8	92.970	0.100	-0.580	0.610
2020/01/31 01:40:48.9	92.970	0.090	-0.530	0.690
2020/01/31 01:40:49.0	92.970	0.070	-0.480	0.770
2020/01/31 01:40:49.1	92.960	0.060	-0.440	0.850
2020/01/31 01:40:49.2	92.950	0.040	-0.390	0.930
2020/01/31 01:40:49.3	92.950	0.030	-0.340	1.010
2020/01/31 01:40:49.4	92.940	0.010	-0.290	1.090
2020/01/31 01:40:49.5	92.940	-0.000	-0.250	1.170
2020/01/31 01:40:49.6	92.930	-0.020	-0.200	1.250
2020/01/31 01:40:49.7	92.930	-0.030	-0.150	1.320
2020/01/31 01:40:49.8	92.920	-0.050	-0.100	1.400
2020/01/31 01:40:49.9	92.920	-0.060	-0.060	1.470
2020/01/31 01:40:50.0	92.910	-0.070	-0.010	1.550
2020/01/31 01:40:50.1	92.910	-0.090	0.030	1.610
2020/01/31 01:40:50.2	92.910	-0.090	0.070	1.680
2020/01/31 01:40:50.3	92.910	-0.100	0.100	1.740
2020/01/31 01:40:50.4	92.910	-0.110	0.140	1.800
2020/01/31 01:40:50.5	92.920	-0.110	0.160	1.850
2020/01/31 01:40:50.6	92.920	-0.120	0.190	1.900
2020/01/31 01:40:50.7	92.920	-0.120	0.210	1.950
2020/01/31 01:40:50.8	92.930	-0.120	0.220	1.990
2020/01/31 01:40:50.9	92.930	-0.120	0.240	2.030
2020/01/31 01:40:51.0	92.940	-0.110	0.250	2.060
2020/01/31 01:40:51.1	92.950	-0.100	0.250	2.090
2020/01/31 01:40:51.2	92.960	-0.100	0.240	2.120
2020/01/31 01:40:51.3	92.960	-0.090	0.240	2.140
2020/01/31 01:40:51.4	92.970	-0.070	0.230	2.160
2020/01/31 01:40:51.5	92.980	-0.060	0.210	2.180
2020/01/31 01:40:51.6	92.980	-0.050	0.190	2.190
2020/01/31 01:40:51.7	92.990	-0.030	0.170	2.200
2020/01/31 01:40:51.8	92.990	-0.010	0.150	2.210
2020/01/31 01:40:51.9	93.000	0.010	0.120	2.210
2020/01/31 01:40:52.0	93.000	0.020	0.090	2.210
2020/01/31 01:40:52.1	93.000	0.040	0.060	2.210
2020/01/31 01:40:52.2	93.000	0.060	0.030	2.210
2020/01/31 01:40:52.3	93.000	0.080	0.010	2.200
2020/01/31 01:40:52.4	93.010	0.100	-0.020	2.190
2020/01/31 01:40:52.5	93.000	0.120	-0.050	2.180
2020/01/31 01:40:52.6	93.000	0.130	-0.070	2.170
2020/01/31 01:40:52.7	93.000	0.150	-0.100	2.150
2020/01/31 01:40:52.8	93.000	0.160	-0.120	2.130
2020/01/31 01:40:52.9	93.000	0.170	-0.140	2.100
2020/01/31 01:40:53.0	93.000	0.180	-0.150	2.080
2020/01/31 01:40:53.1	93.000	0.190	-0.160	2.050
2020/01/31 01:40:53.2	93.000	0.200	-0.170	2.020
2020/01/31 01:40:53.3	92.990	0.200	-0.180	1.980
2020/01/31 01:40:53.4	92.990	0.200	-0.180	1.940
2020/01/31 01:40:53.5	92.990	0.200	-0.180	1.900
2020/01/31 01:40:53.6	92.990	0.200	-0.180	1.860
2020/01/31 01:40:53.7	92.980	0.190	-0.170	1.810
2020/01/31 01:40:53.8	92.980	0.190	-0.160	1.760
2020/01/31 01:40:53.9	92.980	0.180	-0.160	1.710
2020/01/31 01:40:54.0	92.970	0.170	-0.140	1.660
2020/01/31 01:40:54.1	92.970	0.160	-0.130	1.600
2020/01/31 01:40:54.2	92.970	0.140	-0.120	1.550
2020/01/31 01:40:54.3	92.970	0.130	-0.100	1.490
2020/01/31 01:40:54.4	92.970	0.110	-0.090	1.430
2020/01/31 01:40:54.5	92.970	0.100	-0.080	1.370
2020/01/31 01:40:54.6	92.980	0.090	-0.070	1.300
2020/01/31 01:40:54.7	92.980	0.070	-0.050	1.240
2020/01/31 01:40:54.8	92.980	0.060	-0.050	1.180
2020/01/31 01:40:54.9	92.980	0.040	-0.040	1.110
2020/01/31 01:40:55.0	92.990	0.030	-0.030	1.050
2020/01/31 01:40:55.1	92.990	0.020	-0.030	0.980
2020/01/31 01:40:55.2	92.990	0.010	-0.030	0.920
2020/01/31 01:40:55.3	92.990	-0.000	-0.030	0.850
2020/01/31 01:40:55.4	92.990	-0.010	-0.040	0.790
2020/01/31 01:40:55.5	92.990	-0.020	-0.050	0.730
2020/01/31 01:40:55.6	92.990	-0.020	-0.060	0.660
2020/01/31 01:40:55.7	92.990	-0.030	-0.070	0.600
2020/01/31 01:40:55.8	92.990	-0.030	-0.080	0.540
2020/01/31 01:40:55.9	92.990	-0.030	-0.100	0.480
2020/01/31 01:40:56.0	92.990	-0.030	-0.120	0.420
2020/01/31 01:40:56.1	92.990	-0.030	-0.140	0.370
2020/01/31 01:40:56.2	92.990	-0.020	-0.160	0.310
2020/01/31 01:40:56.3	92.990	-0.020	-0.180	0.250
2020/01/31 01:40:56.4	92.990	-0.020	-0.200	0.200
2020/01/31 01:40:56.5	93.000	-0.010	-0.220	0.140
2020/01/31 01:40:56.6	93.000	-0.000	-0.240	0.090
2020/01/31 01:40:56.7	93.000	0.000	-0.270	0.040
2020/01/31 01:40:56.8	93.010	0.010	-0.290	-0.020
2020/01/31 01:40:56.9	93.020	0.010	-0.310	-0.060
2020/01/31 01:40:57.0	93.020	0.020	-0.330	-0.110
2020/01/31 01:40:57.1	93.030	0.030	-0.350	-0.160
2020/01/31 01:40:57.2	93.030	0.030	-0.370	-0.200
2020/01/31 01:40:57.3	93.040	0.040	-0.390	-0.250
2020/01/31 01:40:57.4	93.050	0.040	-0.410	-0.290
2020/01/31 01:40:57.5	93.060	0.050	-0.420	-0.320
2020/01/31 01:40:57.6	93.080	0.050	-0.440	-0.360
2020/01/31 01:40:57.7	93.090	0.060	-0.460	-0.390
2020/01/31 01:40:57.8	93.100	0.060	-0.470	-0.420
2020/01/31 01:40:57.9	93.120	0.060	-0.480	-0.450
2020/01/31 01:40:58.0	93.130	0.060	-0.490	-0.480
2020/01/31 01:40:58.1	93.150	0.060	-0.490	-0.500
2020/01/31 01:40:58.2	93.160	0.060	-0.500	-0.520
2020/01/31 01:40:58.3	93.180	0.060	-0.510	-0.540
2020/01/31 01:40:58.4	93.200	0.060	-0.510	-0.550
2020/01/31 01:40:58.5	93.220	0.060	-0.510	-0.560
2020/01/31 01:40:58.6	93.230	0.060	-0.510	-0.560
2020/01/31 01:40:58.7	93.250	0.050	-0.510	-0.560
2020/01/31 01:40:58.8	93.270	0.050	-0.510	-0.560
2020/01/31 01:40:58.9	93.290	0.040	-0.500	-0.550
2020/01/31 01:40:59.0	93.310	0.040	-0.500	-0.530
2020/01/31 01:40:59.1	93.320	0.030	-0.490	-0.520
2020/01/31 01:40:59.2	93.340	0.020	-0.470	-0.490
2020/01/31 01:40:59.3	93.350	0.010	-0.450	-0.460
2020/01/31 01:40:59.4	93.360	0.000	-0.430	-0.430
2020/01/31 01:40:59.5	93.370	-0.010	-0.410	-0.390
2020/01/31 01:40:59.6	93.380	-0.020	-0.380	-0.350
2020/01/31 01:40:59.7	93.390	-0.040	-0.350	-0.300
2020/01/31 01:40:59.8	93.390	-0.050	-0.320	-0.250
2020/01/31 01:40:59.9	93.390	-0.070	-0.280	-0.200
2020/01/31 01:41:00.0	93.400	-0.080	-0.230	-0.140
2020/01/31 01:41:00.1	93.390	-0.100	-0.190	-0.070
2020/01/31 01:41:00.2	93.380	-0.120	-0.140	-0.010
2020/01/31 01:41:00.3	93.380	-0.140	-0.090	0.060
2020/01/31 01:41:00.4	93.370	-0.160	-0.030	0.130
2020/01/31 01:41:00.5	93.350	-0.180	0.030	0.200
2020/01/31 01:41:00.6	93.340	-0.200	0.080	0.270
2020/01/31 01:41:00.7	93.320	-0.220	0.140	0.340
2020/01/31 01:41:00.8	93.300	-0.240	0.200	0.420
2020/01/31 01:41:00.9	93.270	-0.260	0.260	0.490
2020/01/31 01:41:01.0	93.260	-0.290	0.320	0.570
2020/01/31 01:41:01.1	93.230	-0.310	0.370	0.640
2020/01/31 01:41:01.2	93.210	-0.330	0.430	0.720
2020/01/31 01:41:01.3	93.180	-0.350	0.480	0.790
2020/01/31 01:41:01.4	93.150	-0.370	0.520	0.850
2020/01/31 01:41:01.5	93.120	-0.380	0.570	0.920
2020/01/31 01:41:01.6	93.090	-0.400	0.600	0.990
2020/01/31 01:41:01.7	93.070	-0.410	0.630	1.050
2020/01/31 01:41:01.8	93.040	-0.420	0.650	1.110
2020/01/31 01:41:01.9	93.020	-0.430	0.670	1.160
2020/01/31 01:41:02.0	92.980	-0.440	0.680	1.220
2020/01/31 01:41:02.1	92.960	-0.440	0.680	1.270
2020/01/31 01:41:02.2	92.940	-0.440	0.670	1.310
2020/01/31 01:41:02.3	92.930	-0.440	0.650	1.350
2020/01/31 01:41:02.4	92.910	-0.430	0.620	1.380
2020/01/31 01:41:02.5	92.900	-0.420	0.580	1.410
2020/01/31 01:41:02.6	92.890	-0.410	0.540	1.440
2020/01/31 01:41:02.7	92.890	-0.390	0.480	1.460
2020/01/31 01:41:02.8	92.890	-0.370	0.420	1.480
2020/01/31 01:41:02.9	92.890	-0.340	0.350	1.490
2020/01/31 01:41:03.0	92.900	-0.320	0.270	1.500
2020/01/31 01:41:03.1	92.910	-0.280	0.190	1.500
2020/01/31 01:41:03.2	92.920	-0.250	0.100	1.500
2020/01/31 01:41:03.3	92.940	-0.210	0.010	1.500
2020/01/31 01:41:03.4	92.960	-0.170	-0.080	1.500
2020/01/31 01:41:03.5	92.980	-0.130	-0.170	1.490
2020/01/31 01:41:03.6	93.000	-0.080	-0.270	1.480
2020/01/31 01:41:03.7	93.030	-0.040	-0.360	1.460
2020/01/31 01:41:03.8	93.060	0.010	-0.460	1.450
2020/01/31 01:41:03.9	93.090	0.050	-0.550	1.430
2020/01/31 01:41:04.0	93.130	0.100	-0.640	1.410
2020/01/31 01:41:04.1	93.160	0.150	-0.720	1.390
2020/01/31 01:41:04.2	93.200	0.200	-0.800	1.370
2020/01/31 01:41:04.3	93.230	0.240	-0.870	1.350
2020/01/31 01:41:04.4	93.260	0.280	-0.940	1.330
2020/01/31 01:41:04.5	93.290	0.330	-1.000	1.310
2020/01/31 01:41:04.6	93.310	0.370	-1.050	1.290
2020/01/31 01:41:04.7	93.340	0.410	-1.090	1.260
2020/01/31 01:41:04.8	93.370	0.440	-1.130	1.230
2020/01/31 01:41:04.9	93.390	0.470	-1.160	1.210
2020/01/31 01:41:05.0	93.410	0.500	-1.180	1.180
2020/01/31 01:41:05.1	93.430	0.530	-1.190	1.160
2020/01/31 01:41:05.2	93.450	0.550	-1.180	1.130
2020/01/31 01:41:05.3	93.460	0.570	-1.180	1.100
2020/01/31 01:41:05.4	93.480	0.590	-1.160	1.070
2020/01/31 01:41:05.5	93.490	0.600	-1.130	1.040
2020/01/31 01:41:05.6	93.500	0.610	-1.090	1.010
2020/01/31 01:41:05.7	93.500	0.610	-1.050	0.980
2020/01/31 01:41:05.8	93.510	0.610	-1.000	0.960
2020/01/31 01:41:05.9	93.510	0.610	-0.940	0.930
2020/01/31 01:41:06.0	93.510	0.600	-0.870	0.900
2020/01/31 01:41:06.1	93.500	0.600	-0.810	0.880
2020/01/31 01:41:06.2	93.490	0.580	-0.730	0.860
2020/01/31 01:41:06.3	93.480	0.570	-0.650	0.840
2020/01/31 01:41:06.4	93.470	0.550	-0.570	0.830
2020/01/31 01:41:06.5	93.460	0.520	-0.490	0.820
2020/01/31 01:41:06.6	93.440	0.500	-0.410	0.810
2020/01/31 01:41:06.7	93.410	0.470	-0.320	0.800
2020/01/31 01:41:06.8	93.390	0.450	-0.240	0.800
2020/01/31 01:41:06.9	93.370	0.420	-0.150	0.800
2020/01/31 01:41:07.0	93.350	0.380	-0.070	0.800
2020/01/31 01:41:07.1	93.320	0.350	0.010	0.810
2020/01/31 01:41:07.2	93.290	0.320	0.090	0.810
2020/01/31 01:41:07.3	93.270	0.280	0.170	0.820
2020/01/31 01:41:07.4	93.240	0.250	0.240	0.830
2020/01/31 01:41:07.5	93.210	0.210	0.310	0.840
2020/01/31 01:41:07.6	93.190	0.180	0.370	0.850
2020/01/31 01:41:07.7	93.160	0.140	0.420	0.860
2020/01/31 01:41:07.8	93.140	0.110	0.470	0.870
2020/01/31 01:41:07.9	93.120	0.080	0.520	0.880
2020/01/31 01:41:08.0	93.110	0.040	0.560	0.890
2020/01/31 01:41:08.1	93.090	0.010	0.600	0.900
2020/01/31 01:41:08.2	93.070	-0.020	0.630	0.910
2020/01/31 01:41:08.3	93.050	-0.050	0.650	0.920
2020/01/31 01:41:08.4	93.040	-0.080	0.660	0.930
2020/01/31 01:41:08.5	93.030	-0.110	0.680	0.940
2020/01/31 01:41:08.6	93.010	-0.140	0.680	0.950
2020/01/31 01:41:08.7	93.000	-0.160	0.680	0.950
2020/01/31 01:41:08.8	92.990	-0.190	0.680	0.960
2020/01/31 01:41:08.9	92.980	-0.210	0.670	0.960
2020/01/31 01:41:09.0	92.960	-0.230	0.660	0.960
2020/01/31 01:41:09.1	92.960	-0.260	0.650	0.960
2020/01/31 01:41:09.2	92.950	-0.280	0.630	0.960
2020/01/31 01:41:09.3	92.950	-0.290	0.600	0.950
2020/01/31 01:41:09.4	92.940	-0.310	0.580	0.940
2020/01/31 01:41:09.5	92.940	-0.330	0.550	0.930
2020/01/31 01:41:09.6	92.940	-0.340	0.520	0.910
2020/01/31 01:41:09.7	92.940	-0.360	0.480	0.890
2020/01/31 01:41:09.8	92.940	-0.370	0.450	0.870
2020/01/31 01:41:09.9	92.950	-0.380	0.410	0.850
2020/01/31 01:41:10.0	92.920	-0.390	0.370	0.820
2020/01/31 01:41:10.1	92.930	-0.400	0.320	0.790
2020/01/31 01:41:10.2	92.930	-0.400	0.280	0.760
2020/01/31 01:41:10.3	92.940	-0.410	0.230	0.730
2020/01/31 01:41:10.4	92.950	-0.410	0.180	0.690
2020/01/31 01:41:10.5	92.960	-0.410	0.130	0.660
2020/01/31 01:41:10.6	92.970	-0.410	0.080	0.620
2020/01/31 01:41:10.7	92.980	-0.410	0.030	0.590
2020/01/31 01:41:10.8	92.990	-0.400	-0.020	0.560
2020/01/31 01:41:10.9	93.000	-0.390	-0.080	0.520
2020/01/31 01:41:11.0	93.000	-0.380	-0.130	0.490
2020/01/31 01:41:11.1	93.020	-0.370	-0.190	0.450
2020/01/31 01:41:11.2	93.030	-0.360	-0.250	0.420
2020/01/31 01:41:11.3	93.040	-0.340	-0.310	0.390
2020/01/31 01:41:11.4	93.050	-0.320	-0.370	0.370
2020/01/31 01:41:11.5	93.070	-0.300	-0.420	0.340
2020/01/31 01:41:11.6	93.080	-0.280	-0.480	0.320
2020/01/31 01:41:11.7	93.090	-0.250	-0.540	0.290
2020/01/31 01:41:11.8	93.100	-0.220	-0.600	0.270
2020/01/31 01:41:11.9	93.120	-0.190	-0.660	0.260
2020/01/31 01:41:12.0	93.140	-0.160	-0.720	0.250
2020/01/31 01:41:12.1	93.150	-0.130	-0.780	0.240
2020/01/31 01:41:12.2	93.160	-0.100	-0.830	0.230
2020/01/31 01:41:12.3	93.170	-0.060	-0.880	0.230
2020/01/31 01:41:12.4	93.180	-0.030	-0.930	0.230
2020/01/31 01:41:12.5	93.190	0.010	-0.980	0.230
2020/01/31 01:41:12.6	93.190	0.050	-1.020	0.230
2020/01/31 01:41:12.7	93.200	0.090	-1.060	0.240
2020/01/31 01:41:12.8	93.210	0.120	-1.100	0.250
2020/01/31 01:41:12.9	93.210	0.160	-1.130	0.270
2020/01/31 01:41:13.0	93.220	0.200	-1.150	0.290
2020/01/31 01:41:13.1	93.220	0.230	-1.170	0.310
2020/01/31 01:41:13.2	93.220	0.270	-1.180	0.330
2020/01/31 01:41:13.3	93.220	0.300	-1.190	0.360
2020/01/31 01:41:13.4	93.220	0.330	-1.190	0.380
2020/01/31 01:41:13.5	93.220	0.360	-1.180	0.410
2020/01/31 01:41:13.6	93.220	0.390	-1.170	0.440
2020/01/31 01:41:13.7	93.210	0.410	-1.140	0.470
2020/01/31 01:41:13.8	93.210	0.430	-1.110	0.510
2020/01/31 01:41:13.9	93.210	0.450	-1.070	0.540
2020/01/31 01:41:14.0	93.200	0.460	-1.020	0.580
2020/01/31 01:41:14.1	93.190	0.470	-0.970	0.610
2020/01/31 01:41:14.2	93.190	0.480	-0.910	0.640
2020/01/31 01:41:14.3	93.180	0.480	-0.840	0.680
2020/01/31 01:41:14.4	93.170	0.470	-0.760	0.710
2020/01/31 01:41:14.5	93.160	0.460	-0.680	0.740
2020/01/31 01:41:14.6	93.160	0.450	-0.590	0.770
2020/01/31 01:41:14.7	93.150	0.430	-0.490	0.810
2020/01/31 01:41:14.8	93.140	0.410	-0.400	0.840
2020/01/31 01:41:14.9	93.130	0.390	-0.290	0.870
2020/01/31 01:41:15.0	93.140	0.360	-0.180	0.900
2020/01/31 01:41:15.1	93.130	0.320	-0.080	0.930
2020/01/31 01:41:15.2	93.120	0.290	0.030	0.950
2020/01/31 01:41:15.3	93.110	0.250	0.140	0.980
2020/01/31 01:41:15.4	93.110	0.200	0.250	1.010
2020/01/31 01:41:15.5	93.100	0.160	0.360	1.030
2020/01/31 01:41:15.6	93.090	0.110	0.460	1.050
2020/01/31 01:41:15.7	93.090	0.060	0.560	1.070
2020/01/31 01:41:15.8	93.080	0.010	0.660	1.100
2020/01/31 01:41:15.9	93.080	-0.040	0.750	1.120
2020/01/31 01:41:16.0	93.080	-0.090	0.840	1.130
2020/01/31 01:41:16.1	93.070	-0.150	0.920	1.150
2020/01/31 01:41:16.2	93.070	-0.200	0.990	1.170
2020/01/31 01:41:16.3	93.070	-0.250	1.050	1.180
2020/01/31 01:41:16.4	93.070	-0.290	1.110	1.200
2020/01/31 01:41:16.5	93.070	-0.340	1.150	1.210
2020/01/31 01:41:16.6	93.070	-0.380	1.190	1.220
2020/01/31 01:41:16.7	93.070	-0.420	1.210	1.230
2020/01/31 01:41:16.8	93.080	-0.460	1.230	1.240
2020/01/31 01:41:16.9	93.080	-0.500	1.230	1.250
2020/01/31 01:41:17.0	93.080	-0.530	1.220	1.260
2020/01/31 01:41:17.1	93.080	-0.550	1.210	1.260
2020/01/31 01:41:17.2	93.090	-0.570	1.180	1.260
2020/01/31 01:41:17.3	93.100	-0.590	1.140	1.260
2020/01/31 01:41:17.4	93.120	-0.600	1.090	1.250
2020/01/31 01:41:17.5	93.130	-0.600	1.030	1.250
2020/01/31 01:41:17.6	93.150	-0.600	0.960	1.230
2020/01/31 01:41:17.7	93.170	-0.600	0.870	1.220
2020/01/31 01:41:17.8	93.190	-0.590	0.780	1.200
2020/01/31 01:41:17.9	93.210	-0.570	0.680	1.180
2020/01/31 01:41:18.0	93.240	-0.550	0.580	1.160
2020/01/31 01:41:18.1	93.260	-0.530	0.460	1.130
2020/01/31 01:41:18.2	93.280	-0.500	0.340	1.100
2020/01/31 01:41:18.3	93.310	-0.460	0.220	1.070
2020/01/31 01:41:18.4	93.340	-0.430	0.090	1.040
2020/01/31 01:41:18.5	93.360	-0.380	-0.040	1.010
2020/01/31 01:41:18.6	93.390	-0.340	-0.180	0.970
2020/01/31 01:41:18.7	93.410	-0.290	-0.310	0.940
2020/01/31 01:41:18.8	93.430	-0.240	-0.440	0.910
2020/01/31 01:41:18.9	93.450	-0.190	-0.570	0.890
2020/01/31 01:41:19.0	93.460	-0.140	-0.700	0.860
2020/01/31 01:41:19.1	93.470	-0.090	-0.820	0.840
2020/01/31 01:41:19.2	93.480	-0.040	-0.940	0.820
2020/01/31 01:41:19.3	93.490	0.020	-1.040	0.800
2020/01/31 01:41:19.4	93.490	0.070	-1.140	0.790
2020/01/31 01:41:19.5	93.490	0.120	-1.230	0.780
2020/01/31 01:41:19.6	93.490	0.160	-1.300	0.770
2020/01/31 01:41:19.7	93.480	0.210	-1.370	0.770
2020/01/31 01:41:19.8	93.470	0.250	-1.430	0.770
2020/01/31 01:41:19.9	93.460	0.290	-1.470	0.770
2020/01/31 01:41:20.0	93.420	0.330	-1.500	0.770
2020/01/31 01:41:20.1	93.400	0.360	-1.520	0.780
2020/01/31 01:41:20.2	93.380	0.390	-1.520	0.780
2020/01/31 01:41:20.3	93.360	0.420	-1.520	0.800
2020/01/31 01:41:20.4	93.330	0.440	-1.500	0.810
2020/01/31 01:41:20.5	93.300	0.460	-1.470	0.820
2020/01/31 01:41:20.6	93.270	0.470	-1.430	0.830
2020/01/31 01:41:20.7	93.250	0.480	-1.380	0.850
2020/01/31 01:41:20.8	93.220	0.490	-1.310	0.860
2020/01/31 01:41:20.9	93.190	0.490	-1.240	0.870
2020/01/31 01:41:21.0	93.170	0.480	-1.160	0.890
2020/01/31 01:41:21.1	93.140	0.480	-1.080	0.900
2020/01/31 01:41:21.2	93.110	0.470	-0.980	0.920
2020/01/31 01:41:21.3	93.090	0.450	-0.880	0.930
2020/01/31 01:41:21.4	93.060	0.430	-0.780	0.940
2020/01/31 01:41:21.5	93.040	0.410	-0.670	0.950
2020/01/31 01:41:21.6	93.020	0.390	-0.570	0.950
2020/01/31 01:41:21.7	93.000	0.370	-0.450	0.960
2020/01/31 01:41:21.8	92.980	0.340	-0.340	0.960
2020/01/31 01:41:21.9	92.960	0.310	-0.230	0.970
2020/01/31 01:41:22.0	92.950	0.280	-0.120	0.970
2020/01/31 01:41:22.1	92.940	0.250	-0.010	0.970
2020/01/31 01:41:22.2	92.930	0.220	0.090	0.970
2020/01/31 01:41:22.3	92.920	0.190	0.180	0.970
2020/01/31 01:41:22.4	92.910	0.150	0.280	0.960
2020/01/31 01:41:22.5	92.910	0.120	0.360	0.960
2020/01/31 01:41:22.6	92.900	0.090	0.440	0.950
2020/01/31 01:41:22.7	92.900	0.060	0.510	0.940
2020/01/31 01:41:22.8	92.900	0.030	0.570	0.930
2020/01/31 01:41:22.9	92.910	-0.000	0.630	0.920
2020/01/31 01:41:23.0	92.920	-0.030	0.670	0.910
2020/01/31 01:41:23.1	92.920	-0.060	0.710	0.890
2020/01/31 01:41:23.2	92.930	-0.080	0.740	0.870
2020/01/31 01:41:23.3	92.940	-0.100	0.760	0.860
2020/01/31 01:41:23.4	92.950	-0.120	0.760	0.840
2020/01/31 01:41:23.5	92.960	-0.140	0.760	0.820
2020/01/31 01:41:23.6	92.970	-0.160	0.750	0.800
2020/01/31 01:41:23.7	92.990	-0.170	0.740	0.780
2020/01/31 01:41:23.8	93.000	-0.180	0.710	0.760
2020/01/31 01:41:23.9	93.020	-0.190	0.680	0.730
2020/01/31 01:41:24.0	93.040	-0.190	0.630	0.710
2020/01/31 01:41:24.1	93.060	-0.200	0.590	0.690
2020/01/31 01:41:24.2	93.080	-0.200	0.530	0.660
2020/01/31 01:41:24.3	93.090	-0.190	0.470	0.640
2020/01/31 01:41:24.4	93.110	-0.190	0.400	0.620
2020/01/31 01:41:24.5	93.130	-0.180	0.330	0.600
2020/01/31 01:41:24.6	93.150	-0.170	0.260	0.570
2020/01/31 01:41:24.7	93.160	-0.160	0.180	0.550
2020/01/31 01:41:24.8	93.180	-0.140	0.100	0.530
2020/01/31 01:41:24.9	93.200	-0.130	0.020	0.510
2020/01/31 01:41:25.0	93.220	-0.110	-0.060	0.490
2020/01/31 01:41:25.1	93.230	-0.090	-0.140	0.480
2020/01/31 01:41:25.2	93.250	-0.070	-0.220	0.460
2020/01/31 01:41:25.3	93.260	-0.050	-0.300	0.450
2020/01/31 01:41:25.4	93.270	-0.030	-0.380	0.430
2020/01/31 01:41:25.5	93.290	-0.010	-0.450	0.420
2020/01/31 01:41:25.6	93.300	0.010	-0.520	0.410
2020/01/31 01:41:25.7	93.310	0.030	-0.580	0.410
2020/01/31 01:41:25.8	93.320	0.050	-0.640	0.400
2020/01/31 01:41:25.9	93.330	0.070	-0.690	0.400
2020/01/31 01:41:26.0	93.340	0.090	-0.730	0.400
2020/01/31 01:41:26.1	93.350	0.110	-0.770	0.400
2020/01/31 01:41:26.2	93.360	0.130	-0.800	0.410
2020/01/31 01:41:26.3	93.370	0.140	-0.830	0.410
2020/01/31 01:41:26.4	93.380	0.160	-0.840	0.420
2020/01/31 01:41:26.5	93.380	0.170	-0.850	0.430
2020/01/31 01:41:26.6	93.390	0.180	-0.850	0.450
2020/01/31 01:41:26.7	93.390	0.190	-0.840	0.470
2020/01/31 01:41:26.8	93.400	0.190	-0.830	0.480
2020/01/31 01:41:26.9	93.400	0.190	-0.800	0.500
2020/01/31 01:41:27.0	93.400	0.190	-0.770	0.530
2020/01/31 01:41:27.1	93.400	0.190	-0.720	0.550
2020/01/31 01:41:27.2	93.400	0.180	-0.670	0.580
2020/01/31 01:41:27.3	93.400	0.170	-0.620	0.610
2020/01/31 01:41:27.4	93.400	0.150	-0.550	0.640
2020/01/31 01:41:27.5	93.400	0.140	-0.480	0.670
2020/01/31 01:41:27.6	93.400	0.120	-0.410	0.700
2020/01/31 01:41:27.7	93.390	0.100	-0.330	0.730
2020/01/31 01:41:27.8	93.390	0.070	-0.250	0.760
2020/01/31 01:41:27.9	93.390	0.050	-0.160	0.800
2020/01/31 01:41:28.0	93.390	0.020	-0.070	0.830
2020/01/31 01:41:28.1	93.380	-0.010	0.020	0.860
2020/01/31 01:41:28.2	93.380	-0.040	0.110	0.890
2020/01/31 01:41:28.3	93.380	-0.080	0.190	0.920
2020/01/31 01:41:28.4	93.380	-0.110	0.280	0.950
2020/01/31 01:41:28.5	93.380	-0.140	0.360	0.980
2020/01/31 01:41:28.6	93.380	-0.180	0.440	1.010
2020/01/31 01:41:28.7	93.380	-0.210	0.510	1.040
2020/01/31 01:41:28.8	93.380	-0.240	0.580	1.060
2020/01/31 01:41:28.9	93.380	-0.270	0.640	1.080
2020/01/31 01:41:29.0	93.380	-0.300	0.690	1.110
2020/01/31 01:41:29.1	93.380	-0.330	0.740	1.120
2020/01/31 01:41:29.2	93.390	-0.360	0.780	1.140
2020/01/31 01:41:29.3	93.400	-0.380	0.810	1.150
2020/01/31 01:41:29.4	93.400	-0.410	0.830	1.160
2020/01/31 01:41:29.5	93.410	-0.420	0.850	1.170
2020/01/31 01:41:29.6	93.420	-0.440	0.850	1.180
2020/01/31 01:41:29.7	93.430	-0.450	0.850	1.190
2020/01/31 01:41:29.8	93.440	-0.460	0.830	1.190
2020/01/31 01:41:29.9	93.450	-0.470	0.810	1.190
2020/01/31 01:41:30.0	93.460	-0.470	0.780	1.190
2020/01/31 01:41:30.1	93.470	-0.460	0.740	1.190
2020/01/31 01:41:30.2	93.480	-0.460	0.690	1.190
2020/01/31 01:41:30.3	93.480	-0.450	0.630	1.180
2020/01/31 01:41:30.4	93.490	-0.430	0.560	1.180
2020/01/31 01:41:30.5	93.500	-0.410	0.480	1.170
2020/01/31 01:41:30.6	93.510	-0.390	0.400	1.170
2020/01/31 01:41:30.7	93.510	-0.370	0.310	1.160
2020/01/31 01:41:30.8	93.510	-0.340	0.220	1.160
2020/01/31 01:41:30.9	93.520	-0.310	0.120	1.150
2020/01/31 01:41:31.0	93.520	-0.270	0.020	1.150
2020/01/31 01:41:31.1	93.520	-0.240	-0.090	1.140
2020/01/31 01:41:31.2	93.510	-0.200	-0.190	1.140
2020/01/31 01:41:31.3	93.510	-0.150	-0.300	1.140
2020/01/31 01:41:31.4	93.500	-0.110	-0.410	1.130
2020/01/31 01:41:31.5	93.490	-0.070	-0.520	1.130
2020/01/31 01:41:31.6	93.480	-0.020	-0.620	1.130
2020/01/31 01:41:31.7	93.470	0.020	-0.730	1.120
2020/01/31 01:41:31.8	93.450	0.070	-0.820	1.120
2020/01/31 01:41:31.9	93.440	0.110	-0.920	1.120
2020/01/31 01:41:32.0	93.430	0.150	-1.000	1.120
2020/01/31 01:41:32.1	93.410	0.190	-1.090	1.120
2020/01/31 01:41:32.2	93.390	0.230	-1.160	1.120
2020/01/31 01:41:32.3	93.370	0.270	-1.220	1.120
2020/01/31 01:41:32.4	93.350	0.310	-1.280	1.120
2020/01/31 01:41:32.5	93.340	0.340	-1.330	1.120
2020/01/31 01:41:32.6	93.320	0.370	-1.370	1.120
2020/01/31 01:41:32.7	93.300	0.400	-1.400	1.110
2020/01/31 01:41:32.8	93.280	0.420	-1.420	1.110
2020/01/31 01:41:32.9	93.260	0.440	-1.430	1.110
2020/01/31 01:41:33.0	93.240	0.450	-1.430	1.110
2020/01/31 01:41:33.1	93.230	0.460	-1.420	1.100
2020/01/31 01:41:33.2	93.210	0.470	-1.400	1.100
2020/01/31 01:41:33.3	93.200	0.480	-1.380	1.090
2020/01/31 01:41:33.4	93.190	0.480	-1.340	1.090
2020/01/31 01:41:33.5	93.170	0.470	-1.290	1.090
2020/01/31 01:41:33.6	93.160	0.460	-1.240	1.080
2020/01/31 01:41:33.7	93.150	0.450	-1.180	1.080
2020/01/31 01:41:33.8	93.150	0.440	-1.110	1.070
2020/01/31 01:41:33.9	93.140	0.420	-1.040	1.070
2020/01/31 01:41:34.0	93.130	0.400	-0.950	1.060
2020/01/31 01:41:34.1	93.130	0.370	-0.870	1.060
2020/01/31 01:41:34.2	93.120	0.350	-0.780	1.050
2020/01/31 01:41:34.3	93.120	0.320	-0.690	1.050
2020/01/31 01:41:34.4	93.120	0.290	-0.590	1.040
2020/01/31 01:41:34.5	93.120	0.250	-0.500	1.040
2020/01/31 01:41:34.6	93.120	0.220	-0.400	1.030
2020/01/31 01:41:34.7	93.120	0.180	-0.300	1.020
2020/01/31 01:41:34.8	93.120	0.140	-0.200	1.010
2020/01/31 01:41:34.9	93.130	0.110	-0.110	1.000
2020/01/31 01:41:35.0	93.130	0.070	-0.010	1.000
2020/01/31 01:41:35.1	93.140	0.030	0.080	0.990
2020/01/31 01:41:35.2	93.140	-0.010	0.170	0.980
2020/01/31 01:41:35.3	93.150	-0.040	0.260	0.960
2020/01/31 01:41:35.4	93.160	-0.080	0.340	0.950
2020/01/31 01:41:35.5	93.170	-0.110	0.420	0.930
2020/01/31 01:41:35.6	93.180	-0.150	0.490	0.910
2020/01/31 01:41:35.7	93.190	-0.180	0.560	0.890
2020/01/31 01:41:35.8	93.200	-0.210	0.620	0.860
2020/01/31 01:41:35.9	93.220	-0.230	0.670	0.840
2020/01/31 01:41:36.0	93.240	-0.260	0.730	0.810
2020/01/31 01:41:36.1	93.260	-0.280	0.770	0.780
2020/01/31 01:41:36.2	93.280	-0.300	0.800	0.740
2020/01/31 01:41:36.3	93.310	-0.320	0.830	0.710
2020/01/31 01:41:36.4	93.330	-0.330	0.850	0.670
2020/01/31 01:41:36.5	93.360	-0.340	0.860	0.630
2020/01/31 01:41:36.6	93.380	-0.350	0.860	0.600
2020/01/31 01:41:36.7	93.410	-0.350	0.860	0.560
2020/01/31 01:41:36.8	93.440	-0.350	0.850	0.520
2020/01/31 01:41:36.9	93.460	-0.350	0.830	0.480
2020/01/31 01:41:37.0	93.480	-0.340	0.800	0.450
2020/01/31 01:41:37.1	93.510	-0.330	0.770	0.410
2020/01/31 01:41:37.2	93.530	-0.320	0.730	0.380
2020/01/31 01:41:37.3	93.550	-0.310	0.690	0.360
2020/01/31 01:41:37.4	93.570	-0.290	0.640	0.330
2020/01/31 01:41:37.5	93.590	-0.270	0.590	0.320
2020/01/31 01:41:37.6	93.600	-0.250	0.530	0.300
2020/01/31 01:41:37.7	93.610	-0.220	0.480	0.290
2020/01/31 01:41:37.8	93.620	-0.200	0.410	0.290
2020/01/31 01:41:37.9	93.620	-0.170	0.350	0.290
2020/01/31 01:41:38.0	93.640	-0.150	0.290	0.290
2020/01/31 01:41:38.1	93.640	-0.120	0.220	0.300
2020/01/31 01:41:38.2	93.630	-0.090	0.150	0.310
2020/01/31 01:41:38.3	93.630	-0.060	0.090	0.330
2020/01/31 01:41:38.4	93.620	-0.040	0.020	0.340
2020/01/31 01:41:38.5	93.610	-0.010	-0.040	0.360
2020/01/31 01:41:38.6	93.600	0.010	-0.110	0.380
2020/01/31 01:41:38.7	93.590	0.040	-0.170	0.400
2020/01/31 01:41:38.8	93.580	0.060	-0.230	0.420
2020/01/31 01:41:38.9	93.560	0.080	-0.280	0.450
2020/01/31 01:41:39.0	93.550	0.100	-0.340	0.470
2020/01/31 01:41:39.1	93.540	0.120	-0.390	0.490
2020/01/31 01:41:39.2	93.530	0.130	-0.440	0.510
2020/01/31 01:41:39.3	93.520	0.150	-0.480	0.530
2020/01/31 01:41:39.4	93.510	0.160	-0.520	0.550
2020/01/31 01:41:39.5	93.500	0.170	-0.550	0.570
2020/01/31 01:41:39.6	93.500	0.170	-0.580	0.590
2020/01/31 01:41:39.7	93.490	0.180	-0.610	0.610
2020/01/31 01:41:39.8	93.490	0.180	-0.630	0.630
2020/01/31 01:41:39.9	93.480	0.180	-0.650	0.650
2020/01/31 01:41:40.0	93.490	0.180	-0.660	0.670
2020/01/31 01:41:40.1	93.480	0.170	-0.670	0.680
2020/01/31 01:41:40.2	93.480	0.170	-0.670	0.690
2020/01/31 01:41:40.3	93.480	0.160	-0.670	0.710
2020/01/31 01:41:40.4	93.480	0.150	-0.670	0.720
2020/01/31 01:41:40.5	93.480	0.140	-0.660	0.730
2020/01/31 01:41:40.6	93.480	0.130	-0.650	0.740
2020/01/31 01:41:40.7	93.480	0.120	-0.630	0.750
2020/01/31 01:41:40.8	93.480	0.100	-0.610	0.760
2020/01/31 01:41:40.9	93.490	0.090	-0.590	0.770
2020/01/31 01:41:41.0	93.500	0.080	-0.570	0.780
2020/01/31 01:41:41.1	93.510	0.060	-0.540	0.790
2020/01/31 01:41:41.2	93.520	0.050	-0.510	0.800
2020/01/31 01:41:41.3	93.530	0.030	-0.470	0.810
2020/01/31 01:41:41.4	93.540	0.020	-0.440	0.820
2020/01/31 01:41:41.5	93.560	0.000	-0.400	0.820
2020/01/31 01:41:41.6	93.580	-0.010	-0.360	0.830
2020/01/31 01:41:41.7	93.600	-0.020	-0.320	0.840
2020/01/31 01:41:41.8	93.620	-0.040	-0.280	0.850
2020/01/31 01:41:41.9	93.640	-0.050	-0.240	0.860
2020/01/31 01:41:42.0	93.670	-0.060	-0.200	0.880
2020/01/31 01:41:42.1	93.700	-0.070	-0.150	0.890
2020/01/31 01:41:42.2	93.720	-0.090	-0.110	0.900
2020/01/31 01:41:42.3	93.750	-0.100	-0.070	0.910
2020/01/31 01:41:42.4	93.780	-0.110	-0.030	0.930
2020/01/31 01:41:42.5	93.800	-0.120	0.000	0.940
2020/01/31 01:41:42.6	93.830	-0.120	0.040	0.960
2020/01/31 01:41:42.7	93.860	-0.130	0.070	0.980
2020/01/31 01:41:42.8	93.880	-0.140	0.100	0.990
2020/01/31 01:41:42.9	93.900	-0.140	0.130	1.010
2020/01/31 01:41:43.0	93.910	-0.150	0.150	1.040
2020/01/31 01:41:43.1	93.930	-0.150	0.180	1.060
2020/01/31 01:41:43.2	93.950	-0.150	0.190	1.080
2020/01/31 01:41:43.3	93.960	-0.150	0.200	1.090
2020/01/31 01:41:43.4	93.970	-0.150	0.210	1.110
2020/01/31 01:41:43.5	93.980	-0.150	0.220	1.130
2020/01/31 01:41:43.6	93.980	-0.140	0.210	1.150
2020/01/31 01:41:43.7	93.980	-0.140	0.210	1.170
2020/01/31 01:41:43.8	93.980	-0.130	0.200	1.180
2020/01/31 01:41:43.9	93.970	-0.120	0.180	1.200
2020/01/31 01:41:44.0	93.970	-0.110	0.160	1.210
2020/01/31 01:41:44.1	93.960	-0.100	0.140	1.220
2020/01/31 01:41:44.2	93.940	-0.090	0.110	1.230
2020/01/31 01:41:44.3	93.930	-0.070	0.070	1.240
2020/01/31 01:41:44.4	93.910	-0.060	0.030	1.250
2020/01/31 01:41:44.5	93.890	-0.040	-0.010	1.250
2020/01/31 01:41:44.6	93.870	-0.020	-0.050	1.260
2020/01/31 01:41:44.7	93.840	-0.010	-0.100	1.270
2020/01/31 01:41:44.8	93.820	0.010	-0.140	1.270
2020/01/31 01:41:44.9	93.790	0.030	-0.190	1.280
2020/01/31 01:41:45.0	93.750	0.050	-0.240	1.290
2020/01/31 01:41:45.1	93.720	0.070	-0.290	1.300
2020/01/31 01:41:45.2	93.690	0.090	-0.340	1.310
2020/01/31 01:41:45.3	93.650	0.100	-0.380	1.320
2020/01/31 01:41:45.4	93.620	0.120	-0.430	1.320
2020/01/31 01:41:45.5	93.580	0.140	-0.470	1.330
2020/01/31 01:41:45.6	93.550	0.150	-0.510	1.340
2020/01/31 01:41:45.7	93.510	0.160	-0.540	1.350
2020/01/31 01:41:45.8	93.480	0.180	-0.570	1.360
2020/01/31 01:41:45.9	93.440	0.190	-0.600	1.370
2020/01/31 01:41:46.0	93.420	0.190	-0.620	1.380
2020/01/31 01:41:46.1	93.390	0.200	-0.640	1.390
2020/01/31 01:41:46.2	93.350	0.210	-0.650	1.400
2020/01/31 01:41:46.3	93.330	0.210	-0.660	1.400
2020/01/31 01:41:46.4	93.300	0.210	-0.660	1.400
2020/01/31 01:41:46.5	93.280	0.210	-0.650	1.400
2020/01/31 01:41:46.6	93.260	0.210	-0.650	1.400
2020/01/31 01:41:46.7	93.240	0.210	-0.630	1.400
2020/01/31 01:41:46.8	93.230	0.200	-0.610	1.390
2020/01/31 01:41:46.9	93.220	0.190	-0.590	1.380
2020/01/31 01:41:47.0	93.200	0.190	-0.560	1.360
2020/01/31 01:41:47.1	93.200	0.180	-0.530	1.340
2020/01/31 01:41:47.2	93.200	0.160	-0.500	1.310
2020/01/31 01:41:47.3	93.210	0.150	-0.460	1.290
2020/01/31 01:41:47.4	93.210	0.140	-0.420	1.250
2020/01/31 01:41:47.5	93.230	0.120	-0.380	1.210
2020/01/31 01:41:47.6	93.240	0.110	-0.340	1.170
2020/01/31 01:41:47.7	93.260	0.090	-0.290	1.120
2020/01/31 01:41:47.8	93.280	0.070	-0.240	1.070
2020/01/31 01:41:47.9	93.310	0.050	-0.200	1.020
2020/01/31 01:41:48.0	93.330	0.030	-0.150	0.960
2020/01/31 01:41:48.1	93.360	0.010	-0.100	0.890
2020/01/31 01:41:48.2	93.400	-0.010	-0.050	0.830
2020/01/31 01:41:48.3	93.430	-0.030	-0.000	0.760
2020/01/31 01:41:48.4	93.470	-0.050	0.040	0.690
2020/01/31 01:41:48.5	93.510	-0.070	0.080	0.610
2020/01/31 01:41:48.6	93.560	-0.080	0.120	0.540
2020/01/31 01:41:48.7	93.600	-0.100	0.160	0.470
2020/01/31 01:41:48.8	93.650	-0.120	0.200	0.390
2020/01/31 01:41:48.9	93.700	-0.130	0.230	0.320
2020/01/31 01:41:49.0	93.740	-0.150	0.260	0.250
2020/01/31 01:41:49.1	93.780	-0.160	0.290	0.180
2020/01/31 01:41:49.2	93.830	-0.170	0.310	0.120
2020/01/31 01:41:49.3	93.880	-0.180	0.330	0.060
2020/01/31 01:41:49.4	93.920	-0.180	0.340	-0.000
2020/01/31 01:41:49.5	93.970	-0.190	0.350	-0.050
2020/01/31 01:41:49.6	94.010	-0.190	0.350	-0.100
2020/01/31 01:41:49.7	94.050	-0.190	0.350	-0.140
2020/01/31 01:41:49.8	94.090	-0.180	0.340	-0.180
2020/01/31 01:41:49.9	94.130	-0.180	0.330	-0.210
2020/01/31 01:41:50.0	94.170	-0.170	0.310	-0.230
2020/01/31 01:41:50.1	94.200	-0.160	0.290	-0.250
2020/01/31 01:41:50.2	94.230	-0.140	0.270	-0.260
2020/01/31 01:41:50.3	94.260	-0.130	0.240	-0.270
2020/01/31 01:41:50.4	94.290	-0.110	0.200	-0.280
2020/01/31 01:41:50.5	94.310	-0.090	0.160	-0.280
2020/01/31 01:41:50.6	94.330	-0.070	0.120	-0.270
2020/01/31 01:41:50.7	94.350	-0.050	0.070	-0.260
2020/01/31 01:41:50.8	94.370	-0.020	0.030	-0.250
2020/01/31 01:41:50.9	94.380	0.000	-0.020	-0.230
2020/01/31 01:41:51.0	94.400	0.030	-0.080	-0.200
2020/01/31 01:41:51.1	94.410	0.050	-0.130	-0.180
2020/01/31 01:41:51.2	94.410	0.080	-0.190	-0.150
2020/01/31 01:41:51.3	94.420	0.100	-0.240	-0.110
2020/01/31 01:41:51.4	94.420	0.130	-0.300	-0.080
2020/01/31 01:41:51.5	94.410	0.160	-0.350	-0.030
2020/01/31 01:41:51.6	94.410	0.180	-0.410	0.010
2020/01/31 01:41:51.7	94.400	0.200	-0.460	0.060
2020/01/31 01:41:51.8	94.390	0.220	-0.510	0.110
2020/01/31 01:41:51.9	94.370	0.240	-0.560	0.170
2020/01/31 01:41:52.0	94.350	0.260	-0.600	0.230
2020/01/31 01:41:52.1	94.330	0.270	-0.640	0.290
2020/01/31 01:41:52.2	94.310	0.280	-0.680	0.350
2020/01/31 01:41:52.3	94.280	0.290	-0.700	0.420
2020/01/31 01:41:52.4	94.260	0.300	-0.730	0.480
2020/01/31 01:41:52.5	94.220	0.300	-0.740	0.550
2020/01/31 01:41:52.6	94.190	0.300	-0.750	0.620
2020/01/31 01:41:52.7	94.160	0.290	-0.750	0.690
2020/01/31 01:41:52.8	94.120	0.280	-0.750	0.760
2020/01/31 01:41:52.9	94.090	0.270	-0.740	0.830
2020/01/31 01:41:53.0	94.040	0.260	-0.720	0.890
2020/01/31 01:41:53.1	94.010	0.240	-0.690	0.960
2020/01/31 01:41:53.2	93.970	0.210	-0.660	1.020
2020/01/31 01:41:53.3	93.930	0.180	-0.620	1.080
2020/01/31 01:41:53.4	93.900	0.150	-0.570	1.140
2020/01/31 01:41:53.5	93.860	0.120	-0.520	1.200
2020/01/31 01:41:53.6	93.830	0.080	-0.470	1.250
2020/01/31 01:41:53.7	93.800	0.050	-0.410	1.300
2020/01/31 01:41:53.8	93.770	0.010	-0.340	1.340
2020/01/31 01:41:53.9	93.750	-0.040	-0.270	1.380
2020/01/31 01:41:54.0	93.720	-0.080	-0.200	1.420
2020/01/31 01:41:54.1	93.700	-0.130	-0.130	1.450
2020/01/31 01:41:54.2	93.690	-0.170	-0.050	1.480
2020/01/31 01:41:54.3	93.670	-0.220	0.020	1.500
2020/01/31 01:41:54.4	93.660	-0.260	0.090	1.520
2020/01/31 01:41:54.5	93.660	-0.310	0.170	1.530
2020/01/31 01:41:54.6	93.650	-0.350	0.240	1.530
2020/01/31 01:41:54.7	93.650	-0.390	0.310	1.530
2020/01/31 01:41:54.8	93.660	-0.430	0.370	1.530
2020/01/31 01:41:54.9	93.660	-0.470	0.430	1.520
2020/01/31 01:41:55.0	93.670	-0.510	0.490	1.520
2020/01/31 01:41:55.1	93.690	-0.540	0.540	1.500
2020/01/31 01:41:55.2	93.700	-0.570	0.580	1.480
2020/01/31 01:41:55.3	93.720	-0.590	0.610	1.450
2020/01/31 01:41:55.4	93.740	-0.610	0.640	1.430
2020/01/31 01:41:55.5	93.770	-0.630	0.670	1.390
2020/01/31 01:41:55.6	93.790	-0.640	0.680	1.360
2020/01/31 01:41:55.7	93.820	-0.640	0.690	1.320
2020/01/31 01:41:55.8	93.850	-0.640	0.680	1.280
2020/01/31 01:41:55.9	93.880	-0.630	0.670	1.240
2020/01/31 01:41:56.0	93.900	-0.620	0.650	1.190
2020/01/31 01:41:56.1	93.930	-0.610	0.630	1.140
2020/01/31 01:41:56.2	93.970	-0.590	0.590	1.100
2020/01/31 01:41:56.3	94.000	-0.560	0.550	1.050
2020/01/31 01:41:56.4	94.030	-0.530	0.500	1.000
2020/01/31 01:41:56.5	94.060	-0.500	0.450	0.950
2020/01/31 01:41:56.6	94.100	-0.460	0.390	0.900
2020/01/31 01:41:56.7	94.130	-0.410	0.330	0.850
2020/01/31 01:41:56.8	94.160	-0.370	0.260	0.810
2020/01/31 01:41:56.9	94.180	-0.320	0.190	0.760
2020/01/31 01:41:57.0	94.200	-0.270	0.120	0.720
2020/01/31 01:41:57.1	94.220	-0.220	0.050	0.680
2020/01/31 01:41:57.2	94.240	-0.160	-0.030	0.630
2020/01/31 01:41:57.3	94.260	-0.110	-0.100	0.600
2020/01/31 01:41:57.4	94.280	-0.060	-0.170	0.560
2020/01/31 01:41:57.5	94.290	-0.000	-0.250	0.520
2020/01/31 01:41:57.6	94.310	0.050	-0.320	0.490
2020/01/31 01:41:57.7	94.310	0.110	-0.390	0.460
2020/01/31 01:41:57.8	94.320	0.160	-0.450	0.430
2020/01/31 01:41:57.9	94.330	0.210	-0.520	0.410
2020/01/31 01:41:58.0	94.330	0.250	-0.580	0.390
2020/01/31 01:41:58.1	94.330	0.300	-0.630	0.370
2020/01/31 01:41:58.2	94.320	0.340	-0.690	0.350
2020/01/31 01:41:58.3	94.320	0.380	-0.730	0.340
2020/01/31 01:41:58.4	94.310	0.420	-0.780	0.330
2020/01/31 01:41:58.5	94.300	0.450	-0.810	0.320
2020/01/31 01:41:58.6	94.290	0.480	-0.850	0.310
2020/01/31 01:41:58.7	94.280	0.510	-0.880	0.310
2020/01/31 01:41:58.8	94.260	0.530	-0.900	0.310
2020/01/31 01:41:58.9	94.250	0.550	-0.920	0.310
2020/01/31 01:41:59.0	94.230	0.570	-0.930	0.310
2020/01/31 01:41:59.1	94.210	0.580	-0.940	0.320
2020/01/31 01:41:59.2	94.190	0.590	-0.950	0.330
2020/01/31 01:41:59.3	94.170	0.590	-0.950	0.350
2020/01/31 01:41:59.4	94.150	0.600	-0.940	0.360
2020/01/31 01:41:59.5	94.120	0.600	-0.940	0.380
2020/01/31 01:41:59.6	94.100	0.600	-0.920	0.400
2020/01/31 01:41:59.7	94.080	0.590	-0.910	0.420
2020/01/31 01:41:59.8	94.060	0.580	-0.890	0.440
2020/01/31 01:41:59.9	94.040	0.570	-0.860	0.470
2020/01/31 01:42:00.0	94.020	0.560	-0.830	0.500
2020/01/31 01:42:00.1	94.000	0.550	-0.800	0.530
2020/01/31 01:42:00.2	93.990	0.530	-0.770	0.560
2020/01/31 01:42:00.3	93.970	0.520	-0.730	0.580
2020/01/31 01:42:00.4	93.960	0.500	-0.690	0.610
2020/01/31 01:42:00.5	93.950	0.480	-0.650	0.640
2020/01/31 01:42:00.6	93.940	0.460	-0.600	0.670
2020/01/31 01:42:00.7	93.930	0.430	-0.550	0.700
2020/01/31 01:42:00.8	93.920	0.410	-0.510	0.730
2020/01/31 01:42:00.9	93.920	0.390	-0.460	0.750
2020/01/31 01:42:01.0	93.910	0.360	-0.400	0.780
2020/01/31 01:42:01.1	93.910	0.340	-0.350	0.810
2020/01/31 01:42:01.2	93.910	0.310	-0.300	0.830
2020/01/31 01:42:01.3	93.910	0.280	-0.240	0.860
2020/01/31 01:42:01.4	93.910	0.260	-0.190	0.880
2020/01/31 01:42:01.5	93.920	0.230	-0.140	0.900
2020/01/31 01:42:01.6	93.920	0.200	-0.090	0.930
2020/01/31 01:42:01.7	93.920	0.170	-0.040	0.950
2020/01/31 01:42:01.8	93.930	0.140	0.010	0.970
2020/01/31 01:42:01.9	93.940	0.110	0.060	0.990
2020/01/31 01:42:02.0	93.920	0.080	0.110	1.010
2020/01/31 01:42:02.1	93.930	0.050	0.150	1.020
2020/01/31 01:42:02.2	93.930	0.020	0.190	1.040
2020/01/31 01:42:02.3	93.940	-0.010	0.240	1.050
2020/01/31 01:42:02.4	93.950	-0.040	0.270	1.060
2020/01/31 01:42:02.5	93.960	-0.070	0.310	1.070
2020/01/31 01:42:02.6	93.970	-0.100	0.340	1.070
2020/01/31 01:42:02.7	93.980	-0.130	0.370	1.080
2020/01/31 01:42:02.8	93.990	-0.160	0.400	1.080
2020/01/31 01:42:02.9	93.990	-0.200	0.430	1.090
2020/01/31 01:42:03.0	94.020	-0.230	0.460	1.090
2020/01/31 01:42:03.1	94.030	-0.260	0.480	1.090
2020/01/31 01:42:03.2	94.030	-0.290	0.490	1.090
2020/01/31 01:42:03.3	94.040	-0.320	0.510	1.090
2020/01/31 01:42:03.4	94.040	-0.350	0.520	1.090
2020/01/31 01:42:03.5	94.050	-0.380	0.530	1.090
2020/01/31 01:42:03.6	94.050	-0.400	0.530	1.090
2020/01/31 01:42:03.7	94.050	-0.430	0.540	1.090
2020/01/31 01:42:03.8	94.050	-0.450	0.530	1.090
2020/01/31 01:42:03.9	94.050	-0.480	0.530	1.090
2020/01/31 01:42:04.0	94.070	-0.500	0.520	1.090
2020/01/31 01:42:04.1	94.070	-0.520	0.510	1.090
2020/01/31 01:42:04.2	94.070	-0.530	0.500	1.100
2020/01/31 01:42:04.3	94.060	-0.550	0.480	1.100
2020/01/31 01:42:04.4	94.060	-0.560	0.460	1.100
2020/01/31 01:42:04.5	94.050	-0.570	0.440	1.100
2020/01/31 01:42:04.6	94.050	-0.570	0.410	1.110
2020/01/31 01:42:04.7	94.040	-0.580	0.380	1.110
2020/01/31 01:42:04.8	94.030	-0.580	0.340	1.110
2020/01/31 01:42:04.9	94.030	-0.570	0.310	1.110
2020/01/31 01:42:05.0	94.020	-0.560	0.260	1.120
2020/01/31 01:42:05.1	94.020	-0.550	0.220	1.120
2020/01/31 01:42:05.2	94.010	-0.540	0.170	1.120
2020/01/31 01:42:05.3	94.000	-0.520	0.110	1.120
2020/01/31 01:42:05.4	94.000	-0.490	0.060	1.120
2020/01/31 01:42:05.5	93.990	-0.470	-0.000	1.110
2020/01/31 01:42:05.6	93.990	-0.430	-0.060	1.110
2020/01/31 01:42:05.7	93.980	-0.400	-0.130	1.100
2020/01/31 01:42:05.8	93.980	-0.360	-0.190	1.100
2020/01/31 01:42:05.9	93.970	-0.320	-0.260	1.090
2020/01/31 01:42:06.0	93.980	-0.280	-0.330	1.080
2020/01/31 01:42:06.1	93.970	-0.230	-0.400	1.070
2020/01/31 01:42:06.2	93.970	-0.190	-0.460	1.060
2020/01/31 01:42:06.3	93.960	-0.140	-0.530	1.050
2020/01/31 01:42:06.4	93.960	-0.090	-0.590	1.030
2020/01/31 01:42:06.5	93.950	-0.040	-0.650	1.020
2020/01/31 01:42:06.6	93.940	0.020	-0.710	1.010
2020/01/31 01:42:06.7	93.940	0.070	-0.760	0.990
2020/01/31 01:42:06.8	93.930	0.120	-0.810	0.970
2020/01/31 01:42:06.9	93.930	0.170	-0.850	0.960
2020/01/31 01:42:07.0	93.930	0.210	-0.880	0.940
2020/01/31 01:42:07.1	93.920	0.260	-0.910	0.920
2020/01/31 01:42:07.2	93.910	0.300	-0.930	0.900
2020/01/31 01:42:07.3	93.910	0.340	-0.940	0.880
2020/01/31 01:42:07.4	93.900	0.380	-0.940	0.860
2020/01/31 01:42:07.5	93.900	0.410	-0.940	0.840
2020/01/31 01:42:07.6	93.890	0.440	-0.930	0.820
2020/01/31 01:42:07.7	93.890	0.460	-0.910	0.790
2020/01/31 01:42:07.8	93.890	0.480	-0.880	0.770
2020/01/31 01:42:07.9	93.880	0.500	-0.850	0.750
2020/01/31 01:42:08.0	93.870	0.510	-0.800	0.720
2020/01/31 01:42:08.1	93.870	0.520	-0.750	0.690
2020/01/31 01:42:08.2	93.870	0.520	-0.700	0.670
2020/01/31 01:42:08.3	93.860	0.510	-0.640	0.640
2020/01/31 01:42:08.4	93.860	0.510	-0.580	0.610
2020/01/31 01:42:08.5	93.860	0.490	-0.510	0.590
2020/01/31 01:42:08.6	93.860	0.480	-0.440	0.560
2020/01/31 01:42:08.7	93.850	0.460	-0.360	0.540
2020/01/31 01:42:08.8	93.850	0.430	-0.290	0.510
2020/01/31 01:42:08.9	93.850	0.410	-0.210	0.480
2020/01/31 01:42:09.0	93.850	0.380	-0.140	0.470
2020/01/31 01:42:09.1	93.850	0.350	-0.060	0.440
2020/01/31 01:42:09.2	93.850	0.310	0.010	0.420
2020/01/31 01:42:09.3	93.840	0.270	0.080	0.390
2020/01/31 01:42:09.4	93.840	0.240	0.150	0.370
2020/01/31 01:42:09.5	93.840	0.200	0.210	0.350
2020/01/31 01:42:09.6	93.830	0.160	0.280	0.330
2020/01/31 01:42:09.7	93.830	0.110	0.330	0.310
2020/01/31 01:42:09.8	93.830	0.070	0.380	0.290
2020/01/31 01:42:09.9	93.830	0.030	0.430	0.270
2020/01/31 01:42:10.0	93.830	-0.010	0.470	0.250
2020/01/31 01:42:10.1	93.830	-0.040	0.500	0.240
2020/01/31 01:42:10.2	93.830	-0.080	0.530	0.220
2020/01/31 01:42:10.3	93.830	-0.120	0.550	0.210
2020/01/31 01:42:10.4	93.830	-0.150	0.560	0.200
2020/01/31 01:42:10.5	93.830	-0.180	0.560	0.190
2020/01/31 01:42:10.6	93.830	-0.210	0.560	0.180
2020/01/31 01:42:10.7	93.830	-0.230	0.550	0.170
2020/01/31 01:42:10.8	93.830	-0.250	0.530	0.160
2020/01/31 01:42:10.9	93.830	-0.270	0.510	0.160
2020/01/31 01:42:11.0	93.850	-0.290	0.480	0.160
2020/01/31 01:42:11.1	93.850	-0.300	0.440	0.160
2020/01/31 01:42:11.2	93.850	-0.310	0.400	0.170
2020/01/31 01:42:11.3	93.840	-0.310	0.350	0.180
2020/01/31 01:42:11.4	93.840	-0.320	0.300	0.190
2020/01/31 01:42:11.5	93.840	-0.320	0.240	0.200
2020/01/31 01:42:11.6	93.830	-0.310	0.190	0.210
2020/01/31 01:42:11.7	93.830	-0.310	0.120	0.230
2020/01/31 01:42:11.8	93.820	-0.300	0.060	0.250
2020/01/31 01:42:11.9	93.820	-0.290	-0.010	0.270
2020/01/31 01:42:12.0	93.810	-0.280	-0.070	0.290
2020/01/31 01:42:12.1	93.810	-0.260	-0.140	0.320
2020/01/31 01:42:12.2	93.800	-0.250	-0.200	0.340
2020/01/31 01:42:12.3	93.800	-0.230	-0.270	0.370
2020/01/31 01:42:12.4	93.790	-0.210	-0.330	0.400
2020/01/31 01:42:12.5	93.790	-0.190	-0.390	0.440
2020/01/31 01:42:12.6	93.780	-0.180	-0.440	0.470
2020/01/31 01:42:12.7	93.780	-0.160	-0.490	0.510
2020/01/31 01:42:12.8	93.780	-0.140	-0.540	0.540
2020/01/31 01:42:12.9	93.770	-0.120	-0.580	0.580
2020/01/31 01:42:13.0	93.780	-0.100	-0.630	0.630
2020/01/31 01:42:13.1	93.780	-0.090	-0.660	0.670
2020/01/31 01:42:13.2	93.770	-0.070	-0.690	0.710
2020/01/31 01:42:13.3	93.770	-0.060	-0.710	0.760
2020/01/31 01:42:13.4	93.770	-0.050	-0.720	0.800
2020/01/31 01:42:13.5	93.770	-0.030	-0.730	0.850
2020/01/31 01:42:13.6	93.770	-0.020	-0.740	0.900
2020/01/31 01:42:13.7	93.770	-0.010	-0.740	0.940
2020/01/31 01:42:13.8	93.760	-0.010	-0.730	0.990
2020/01/31 01:42:13.9	93.760	-0.000	-0.720	1.040
2020/01/31 01:42:14.0	93.760	0.000	-0.700	1.090
2020/01/31 01:42:14.1	93.750	0.010	-0.680	1.140
2020/01/31 01:42:14.2	93.750	0.010	-0.650	1.180
2020/01/31 01:42:14.3	93.740	0.010	-0.620	1.230
2020/01/31 01:42:14.4	93.740	0.010	-0.580	1.270
2020/01/31 01:42:14.5	93.730	0.010	-0.540	1.310
2020/01/31 01:42:14.6	93.720	0.000	-0.500	1.350
2020/01/31 01:42:14.7	93.710	-0.000	-0.450	1.390
2020/01/31 01:42:14.8	93.700	-0.000	-0.410	1.420
2020/01/31 01:42:14.9	93.690	-0.010	-0.360	1.460
2020/01/31 01:42:15.0	93.690	-0.020	-0.300	1.490
2020/01/31 01:42:15.1	93.670	-0.020	-0.250	1.520
2020/01/31 01:42:15.2	93.660	-0.030	-0.200	1.540
2020/01/31 01:42:15.3	93.650	-0.030	-0.150	1.560
2020/01/31 01:42:15.4	93.640	-0.040	-0.100	1.580
2020/01/31 01:42:15.5	93.620	-0.040	-0.050	1.590
2020/01/31 01:42:15.6	93.610	-0.040	-0.010	1.600
2020/01/31 01:42:15.7	93.590	-0.040	0.030	1.610
2020/01/31 01:42:15.8	93.580	-0.050	0.070	1.610
2020/01/31 01:42:15.9	93.560	-0.040	0.110	1.610
2020/01/31 01:42:16.0	93.530	-0.040	0.140	1.610
2020/01/31 01:42:16.1	93.520	-0.040	0.170	1.610
2020/01/31 01:42:16.2	93.500	-0.030	0.190	1.600
2020/01/31 01:42:16.3	93.490	-0.030	0.210	1.590
2020/01/31 01:42:16.4	93.480	-0.020	0.220	1.570
2020/01/31 01:42:16.5	93.460	-0.010	0.230	1.550
2020/01/31 01:42:16.6	93.450	0.010	0.230	1.540
2020/01/31 01:42:16.7	93.430	0.020	0.220	1.510
2020/01/31 01:42:16.8	93.420	0.040	0.210	1.490
2020/01/31 01:42:16.9	93.410	0.060	0.200	1.460
2020/01/31 01:42:17.0	93.400	0.080	0.180	1.430
2020/01/31 01:42:17.1	93.390	0.100	0.150	1.400
2020/01/31 01:42:17.2	93.380	0.120	0.120	1.370
2020/01/31 01:42:17.3	93.370	0.150	0.090	1.340
2020/01/31 01:42:17.4	93.370	0.170	0.050	1.300
2020/01/31 01:42:17.5	93.360	0.200	0.010	1.270
2020/01/31 01:42:17.6	93.350	0.230	-0.040	1.230
2020/01/31 01:42:17.7	93.350	0.250	-0.090	1.190
2020/01/31 01:42:17.8	93.340	0.280	-0.140	1.150
2020/01/31 01:42:17.9	93.340	0.310	-0.190	1.110
2020/01/31 01:42:18.0	93.310	0.340	-0.240	1.070
2020/01/31 01:42:18.1	93.310	0.370	-0.290	1.030
2020/01/31 01:42:18.2	93.300	0.390	-0.340	0.980
2020/01/31 01:42:18.3	93.300	0.420	-0.390	0.940
2020/01/31 01:42:18.4	93.300	0.440	-0.440	0.890
2020/01/31 01:42:18.5	93.300	0.460	-0.490	0.840
2020/01/31 01:42:18.6	93.300	0.480	-0.530	0.790
2020/01/31 01:42:18.7	93.300	0.490	-0.570	0.750
2020/01/31 01:42:18.8	93.300	0.510	-0.600	0.700
2020/01/31 01:42:18.9	93.310	0.510	-0.630	0.650
2020/01/31 01:42:19.0	93.300	0.520	-0.650	0.600
2020/01/31 01:42:19.1	93.300	0.520	-0.660	0.550
2020/01/31 01:42:19.2	93.300	0.520	-0.670	0.500
2020/01/31 01:42:19.3	93.300	0.520	-0.670	0.460
2020/01/31 01:42:19.4	93.310	0.510	-0.660	0.420
2020/01/31 01:42:19.5	93.310	0.490	-0.640	0.380
2020/01/31 01:42:19.6	93.310	0.480	-0.620	0.340
2020/01/31 01:42:19.7	93.300	0.450	-0.590	0.310
2020/01/31 01:42:19.8	93.300	0.430	-0.550	0.280
2020/01/31 01:42:19.9	93.300	0.400	-0.500	0.260
2020/01/31 01:42:20.0	93.280	0.370	-0.450	0.240
2020/01/31 01:42:20.1	93.280	0.330	-0.390	0.230
2020/01/31 01:42:20.2	93.270	0.290	-0.330	0.220
2020/01/31 01:42:20.3	93.270	0.250	-0.260	0.210
2020/01/31 01:42:20.4	93.260	0.210	-0.180	0.210
2020/01/31 01:42:20.5	93.250	0.160	-0.110	0.210
2020/01/31 01:42:20.6	93.250	0.110	-0.030	0.220
2020/01/31 01:42:20.7	93.240	0.060	0.050	0.240
2020/01/31 01:42:20.8	93.230	0.010	0.130	0.250
2020/01/31 01:42:20.9	93.220	-0.040	0.200	0.270
2020/01/31 01:42:21.0	93.230	-0.090	0.280	0.300
2020/01/31 01:42:21.1	93.220	-0.140	0.350	0.330
2020/01/31 01:42:21.2	93.210	-0.190	0.420	0.360
2020/01/31 01:42:21.3	93.200	-0.240	0.480	0.390
2020/01/31 01:42:21.4	93.190	-0.290	0.530	0.420
2020/01/31 01:42:21.5	93.180	-0.330	0.580	0.460
2020/01/31 01:42:21.6	93.170	-0.380	0.620	0.490
2020/01/31 01:42:21.7	93.170	-0.420	0.660	0.530
2020/01/31 01:42:21.8	93.160	-0.450	0.680	0.560
2020/01/31 01:42:21.9	93.160	-0.490	0.690	0.590
2020/01/31 01:42:22.0	93.150	-0.520	0.700	0.630
2020/01/31 01:42:22.1	93.150	-0.550	0.700	0.660
2020/01/31 01:42:22.2	93.150	-0.570	0.680	0.680
2020/01/31 01:42:22.3	93.150	-0.590	0.660	0.710
2020/01/31 01:42:22.4	93.150	-0.600	0.620	0.730
2020/01/31 01:42:22.5	93.150	-0.610	0.580	0.740
2020/01/31 01:42:22.6	93.160	-0.610	0.530	0.760
2020/01/31 01:42:22.7	93.160	-0.610	0.470	0.770
2020/01/31 01:42:22.8	93.170	-0.610	0.400	0.780
2020/01/31 01:42:22.9	93.180	-0.600	0.330	0.790
2020/01/31 01:42:23.0	93.190	-0.580	0.240	0.800
2020/01/31 01:42:23.1	93.200	-0.560	0.160	0.800
2020/01/31 01:42:23.2	93.210	-0.540	0.070	0.800
2020/01/31 01:42:23.3	93.230	-0.520	-0.020	0.800
2020/01/31 01:42:23.4	93.240	-0.490	-0.110	0.800
2020/01/31 01:42:23.5	93.250	-0.460	-0.210	0.800
2020/01/31 01:42:23.6	93.270	-0.430	-0.300	0.800
2020/01/31 01:42:23.7	93.280	-0.390	-0.390	0.800
2020/01/31 01:42:23.8	93.300	-0.360	-0.470	0.810
2020/01/31 01:42:23.9	93.310	-0.320	-0.550	0.810
2020/01/31 01:42:24.0	93.340	-0.280	-0.630	0.820
2020/01/31 01:42:24.1	93.350	-0.250	-0.700	0.830
2020/01/31 01:42:24.2	93.360	-0.210	-0.760	0.840
2020/01/31 01:42:24.3	93.370	-0.180	-0.820	0.850
2020/01/31 01:42:24.4	93.380	-0.140	-0.860	0.870
2020/01/31 01:42:24.5	93.390	-0.110	-0.890	0.890
2020/01/31 01:42:24.6	93.400	-0.080	-0.920	0.910
2020/01/31 01:42:24.7	93.400	-0.060	-0.930	0.930
2020/01/31 01:42:24.8	93.400	-0.040	-0.930	0.960
2020/01/31 01:42:24.9	93.400	-0.020	-0.920	0.980
2020/01/31 01:42:25.0	93.380	-0.000	-0.890	1.010
2020/01/31 01:42:25.1	93.380	0.010	-0.860	1.040
2020/01/31 01:42:25.2	93.370	0.020	-0.810	1.070
2020/01/31 01:42:25.3	93.360	0.020	-0.760	1.100
2020/01/31 01:42:25.4	93.350	0.020	-0.690	1.120
2020/01/31 01:42:25.5	93.340	0.010	-0.620	1.150
2020/01/31 01:42:25.6	93.320	0.000	-0.540	1.170
2020/01/31 01:42:25.7	93.300	-0.010	-0.450	1.200
2020/01/31 01:42:25.8	93.280	-0.030	-0.360	1.220
2020/01/31 01:42:25.9	93.260	-0.050	-0.260	1.240
2020/01/31 01:42:26.0	93.240	-0.070	-0.160	1.250
2020/01/31 01:42:26.1	93.210	-0.090	-0.060	1.270
2020/01/31 01:42:26.2	93.180	-0.120	0.040	1.280
2020/01/31 01:42:26.3	93.150	-0.140	0.130	1.290
2020/01/31 01:42:26.4	93.120	-0.170	0.220	1.300
2020/01/31 01:42:26.5	93.090	-0.190	0.310	1.300
2020/01/31 01:42:26.6	93.050	-0.220	0.390	1.300
2020/01/31 01:42:26.7	93.020	-0.240	0.470	1.290
2020/01/31 01:42:26.8	92.980	-0.260	0.530	1.280
2020/01/31 01:42:26.9	92.950	-0.280	0.580	1.270
2020/01/31 01:42:27.0	92.920	-0.290	0.630	1.250
2020/01/31 01:42:27.1	92.890	-0.300	0.660	1.230
2020/01/31 01:42:27.2	92.860	-0.310	0.680	1.200
2020/01/31 01:42:27.3	92.830	-0.310	0.680	1.170
2020/01/31 01:42:27.4	92.800	-0.310	0.670	1.140
2020/01/31 01:42:27.5	92.770	-0.300	0.650	1.100
2020/01/31 01:42:27.6	92.740	-0.290	0.620	1.060
2020/01/31 01:42:27.7	92.720	-0.280	0.570	1.020
2020/01/31 01:42:27.8	92.690	-0.250	0.520	0.980
2020/01/31 01:42:27.9	92.670	-0.230	0.450	0.940
2020/01/31 01:42:28.0	92.640	-0.190	0.360	0.890
2020/01/31 01:42:28.1	92.620	-0.160	0.270	0.850
2020/01/31 01:42:28.2	92.600	-0.120	0.170	0.800
2020/01/31 01:42:28.3	92.580	-0.070	0.060	0.760
2020/01/31 01:42:28.4	92.560	-0.020	-0.050	0.720
2020/01/31 01:42:28.5	92.540	0.030	-0.170	0.670
2020/01/31 01:42:28.6	92.530	0.090	-0.290	0.630
2020/01/31 01:42:28.7	92.510	0.140	-0.420	0.590
2020/01/31 01:42:28.8	92.500	0.200	-0.540	0.550
2020/01/31 01:42:28.9	92.490	0.260	-0.670	0.510
2020/01/31 01:42:29.0	92.470	0.320	-0.800	0.470
2020/01/31 01:42:29.1	92.470	0.390	-0.920	0.430
2020/01/31 01:42:29.2	92.460	0.450	-1.030	0.390
2020/01/31 01:42:29.3	92.460	0.500	-1.140	0.350
2020/01/31 01:42:29.4	92.470	0.560	-1.240	0.310
2020/01/31 01:42:29.5	92.470	0.610	-1.330	0.270
2020/01/31 01:42:29.6	92.480	0.660	-1.410	0.240
2020/01/31 01:42:29.7	92.490	0.710	-1.480	0.200
2020/01/31 01:42:29.8	92.500	0.750	-1.540	0.170
2020/01/31 01:42:29.9	92.510	0.790	-1.580	0.130
2020/01/31 01:42:30.0	92.510	0.820	-1.610	0.100
2020/01/31 01:42:30.1	92.520	0.840	-1.620	0.070
2020/01/31 01:42:30.2	92.540	0.860	-1.610	0.040
2020/01/31 01:42:30.3	92.550	0.870	-1.590	0.020
2020/01/31 01:42:30.4	92.560	0.870	-1.550	-0.010
2020/01/31 01:42:30.5	92.580	0.860	-1.500	-0.030
2020/01/31 01:42:30.6	92.590	0.850	-1.430	-0.050
2020/01/31 01:42:30.7	92.600	0.830	-1.340	-0.070
2020/01/31 01:42:30.8	92.610	0.810	-1.250	-0.090
2020/01/31 01:42:30.9	92.620	0.780	-1.130	-0.100
2020/01/31 01:42:31.0	92.640	0.740	-1.000	-0.100
2020/01/31 01:42:31.1	92.640	0.690	-0.870	-0.110
2020/01/31 01:42:31.2	92.650	0.640	-0.730	-0.120
2020/01/31 01:42:31.3	92.650	0.590	-0.580	-0.120
2020/01/31 01:42:31.4	92.650	0.530	-0.420	-0.120
2020/01/31 01:42:31.5	92.640	0.460	-0.260	-0.120
2020/01/31 01:42:31.6	92.640	0.400	-0.090	-0.110
2020/01/31 01:42:31.7	92.630	0.330	0.070	-0.100
2020/01/31 01:42:31.8	92.620	0.260	0.240	-0.080
2020/01/31 01:42:31.9	92.610	0.180	0.400	-0.060
2020/01/31 01:42:32.0	92.600	0.110	0.570	-0.040
2020/01/31 01:42:32.1	92.590	0.030	0.720	-0.010
2020/01/31 01:42:32.2	92.570	-0.040	0.870	0.020
2020/01/31 01:42:32.3	92.550	-0.110	1.020	0.050
2020/01/31 01:42:32.4	92.530	-0.180	1.150	0.090
2020/01/31 01:42:32.5	92.510	-0.250	1.270	0.120
2020/01/31 01:42:32.6	92.490	-0.310	1.380	0.170
2020/01/31 01:42:32.7	92.470	-0.370	1.480	0.210
2020/01/31 01:42:32.8	92.450	-0.420	1.560	0.260
2020/01/31 01:42:32.9	92.430	-0.470	1.630	0.300
2020/01/31 01:42:33.0	92.430	-0.510	1.680	0.360
2020/01/31 01:42:33.1	92.410	-0.550	1.720	0.410
2020/01/31 01:42:33.2	92.390	-0.580	1.730	0.460
2020/01/31 01:42:33.3	92.370	-0.600	1.730	0.510
2020/01/31 01:42:33.4	92.350	-0.620	1.720	0.560
2020/01/31 01:42:33.5	92.330	-0.630	1.680	0.610
2020/01/31 01:42:33.6	92.320	-0.630	1.630	0.660
2020/01/31 01:42:33.7	92.300	-0.630	1.560	0.710
2020/01/31 01:42:33.8	92.290	-0.620	1.480	0.760
2020/01/31 01:42:33.9	92.280	-0.600	1.380	0.810
2020/01/31 01:42:34.0	92.280	-0.570	1.270	0.860
2020/01/31 01:42:34.1	92.270	-0.540	1.140	0.900
2020/01/31 01:42:34.2	92.260	-0.510	1.010	0.940
2020/01/31 01:42:34.3	92.260	-0.470	0.870	0.980
2020/01/31 01:42:34.4	92.260	-0.420	0.720	1.020
2020/01/31 01:42:34.5	92.250	-0.370	0.560	1.060
2020/01/31 01:42:34.6	92.250	-0.320	0.400	1.090
2020/01/31 01:42:34.7	92.250	-0.270	0.240	1.120
2020/01/31 01:42:34.8	92.250	-0.210	0.080	1.150
2020/01/31 01:42:34.9	92.250	-0.160	-0.090	1.180
2020/01/31 01:42:35.0	92.260	-0.100	-0.250	1.210
2020/01/31 01:42:35.1	92.260	-0.040	-0.410	1.240
2020/01/31 01:42:35.2	92.260	0.010	-0.560	1.260
2020/01/31 01:42:35.3	92.260	0.070	-0.710	1.280
2020/01/31 01:42:35.4	92.270	0.120	-0.850	1.300
2020/01/31 01:42:35.5	92.270	0.170	-0.980	1.320
2020/01/31 01:42:35.6	92.280	0.220	-1.100	1.330
2020/01/31 01:42:35.7	92.280	0.260	-1.210	1.350
2020/01/31 01:42:35.8	92.280	0.300	-1.300	1.370
2020/01/31 01:42:35.9	92.280	0.330	-1.390	1.380
2020/01/31 01:42:36.0	92.280	0.360	-1.460	1.400
2020/01/31 01:42:36.1	92.280	0.380	-1.520	1.410
2020/01/31 01:42:36.2	92.270	0.400	-1.560	1.420
2020/01/31 01:42:36.3	92.270	0.410	-1.590	1.440
2020/01/31 01:42:36.4	92.270	0.420	-1.600	1.450
2020/01/31 01:42:36.5	92.260	0.420	-1.600	1.470
2020/01/31 01:42:36.6	92.250	0.410	-1.580	1.490
2020/01/31 01:42:36.7	92.240	0.400	-1.550	1.500
2020/01/31 01:42:36.8	92.230	0.390	-1.510	1.520
2020/01/31 01:42:36.9	92.220	0.370	-1.460	1.540
2020/01/31 01:42:37.0	92.200	0.340	-1.390	1.570
2020/01/31 01:42:37.1	92.190	0.320	-1.310	1.590
2020/01/31 01:42:37.2	92.160	0.280	-1.230	1.610
2020/01/31 01:42:37.3	92.140	0.250	-1.140	1.630
2020/01/31 01:42:37.4	92.120	0.210	-1.050	1.660
2020/01/31 01:42:37.5	92.100	0.170	-0.940	1.680
2020/01/31 01:42:37.6	92.070	0.130	-0.840	1.710
2020/01/31 01:42:37.7	92.040	0.080	-0.730	1.730
2020/01/31 01:42:37.8	92.010	0.040	-0.620	1.760
2020/01/31 01:42:37.9	91.980	-0.010	-0.510	1.790
2020/01/31 01:42:38.0	91.950	-0.050	-0.390	1.810
2020/01/31 01:42:38.1	91.920	-0.100	-0.280	1.840
2020/01/31 01:42:38.2	91.880	-0.140	-0.180	1.860
2020/01/31 01:42:38.3	91.850	-0.180	-0.070	1.890
2020/01/31 01:42:38.4	91.810	-0.220	0.020	1.910
2020/01/31 01:42:38.5	91.780	-0.260	0.120	1.930
2020/01/31 01:42:38.6	91.750	-0.300	0.200	1.950
2020/01/31 01:42:38.7	91.710	-0.330	0.280	1.960
2020/01/31 01:42:38.8	91.680	-0.360	0.350	1.970
2020/01/31 01:42:38.9	91.650	-0.390	0.410	1.980
2020/01/31 01:42:39.0	91.630	-0.410	0.460	1.990
2020/01/31 01:42:39.1	91.600	-0.430	0.500	1.990
2020/01/31 01:42:39.2	91.570	-0.440	0.540	1.990
2020/01/31 01:42:39.3	91.550	-0.450	0.560	1.990
2020/01/31 01:42:39.4	91.530	-0.450	0.570	1.970
2020/01/31 01:42:39.5	91.510	-0.460	0.570	1.960
2020/01/31 01:42:39.6	91.500	-0.450	0.560	1.940
2020/01/31 01:42:39.7	91.490	-0.440	0.540	1.910
2020/01/31 01:42:39.8	91.480	-0.430	0.510	1.880
2020/01/31 01:42:39.9	91.480	-0.420	0.480	1.850
2020/01/31 01:42:40.0	91.480	-0.400	0.430	1.810
2020/01/31 01:42:40.1	91.480	-0.370	0.380	1.770
2020/01/31 01:42:40.2	91.490	-0.350	0.320	1.720
2020/01/31 01:42:40.3	91.500	-0.320	0.260	1.660
2020/01/31 01:42:40.4	91.510	-0.290	0.190	1.600
2020/01/31 01:42:40.5	91.530	-0.250	0.120	1.540
2020/01/31 01:42:40.6	91.540	-0.220	0.040	1.480
2020/01/31 01:42:40.7	91.560	-0.180	-0.040	1.410
2020/01/31 01:42:40.8	91.590	-0.150	-0.110	1.340
2020/01/31 01:42:40.9	91.610	-0.110	-0.190	1.260
2020/01/31 01:42:41.0	91.630	-0.070	-0.270	1.190
2020/01/31 01:42:41.1	91.650	-0.040	-0.350	1.110
2020/01/31 01:42:41.2	91.670	-0.000	-0.410	1.040
2020/01/31 01:42:41.3	91.690	0.030	-0.480	0.960
2020/01/31 01:42:41.4	91.720	0.060	-0.530	0.880
2020/01/31 01:42:41.5	91.730	0.090	-0.590	0.810
2020/01/31 01:42:41.6	91.750	0.120	-0.630	0.730
2020/01/31 01:42:41.7	91.770	0.140	-0.660	0.660
2020/01/31 01:42:41.8	91.780	0.160	-0.690	0.590
2020/01/31 01:42:41.9	91.790	0.180	-0.710	0.520
2020/01/31 01:42:42.0	91.800	0.190	-0.710	0.460
2020/01/31 01:42:42.1	91.800	0.200	-0.710	0.390
2020/01/31 01:42:42.2	91.800	0.210	-0.700	0.330
2020/01/31 01:42:42.3	91.800	0.210	-0.680	0.280
2020/01/31 01:42:42.4	91.800	0.210	-0.650	0.220
2020/01/31 01:42:42.5	91.800	0.200	-0.610	0.170
2020/01/31 01:42:42.6	91.790	0.200	-0.560	0.120
2020/01/31 01:42:42.7	91.780	0.180	-0.510	0.080
2020/01/31 01:42:42.8	91.770	0.170	-0.450	0.040
2020/01/31 01:42:42.9	91.760	0.150	-0.380	0.000
2020/01/31 01:42:43.0	91.750	0.130	-0.300	-0.030
2020/01/31 01:42:43.1	91.740	0.110	-0.230	-0.060
2020/01/31 01:42:43.2	91.730	0.090	-0.150	-0.090
2020/01/31 01:42:43.3	91.710	0.060	-0.070	-0.120
2020/01/31 01:42:43.4	91.700	0.030	0.010	-0.140
2020/01/31 01:42:43.5	91.680	0.000	0.090	-0.160
2020/01/31 01:42:43.6	91.670	-0.020	0.170	-0.180
2020/01/31 01:42:43.7	91.650	-0.050	0.250	-0.190
2020/01/31 01:42:43.8	91.640	-0.080	0.320	-0.210
2020/01/31 01:42:43.9	91.630	-0.110	0.390	-0.220
2020/01/31 01:42:44.0	91.620	-0.130	0.460	-0.230
2020/01/31 01:42:44.1	91.610	-0.150	0.510	-0.230
2020/01/31 01:42:44.2	91.600	-0.170	0.560	-0.240
2020/01/31 01:42:44.3	91.590	-0.190	0.600	-0.250
2020/01/31 01:42:44.4	91.590	-0.210	0.640	-0.250
2020/01/31 01:42:44.5	91.580	-0.220	0.660	-0.250
2020/01/31 01:42:44.6	91.580	-0.230	0.680	-0.260
2020/01/31 01:42:44.7	91.580	-0.230	0.690	-0.260
2020/01/31 01:42:44.8	91.580	-0.240	0.680	-0.260
2020/01/31 01:42:44.9	91.580	-0.230	0.670	-0.260
2020/01/31 01:42:45.0	91.580	-0.230	0.650	-0.260
2020/01/31 01:42:45.1	91.590	-0.220	0.620	-0.260
2020/01/31 01:42:45.2	91.590	-0.200	0.580	-0.260
2020/01/31 01:42:45.3	91.590	-0.180	0.530	-0.250
2020/01/31 01:42:45.4	91.600	-0.160	0.480	-0.250
2020/01/31 01:42:45.5	91.600	-0.130	0.410	-0.240
2020/01/31 01:42:45.6	91.600	-0.100	0.350	-0.230
2020/01/31 01:42:45.7	91.610	-0.070	0.270	-0.220
2020/01/31 01:42:45.8	91.610	-0.040	0.190	-0.210
2020/01/31 01:42:45.9	91.610	0.000	0.110	-0.190
2020/01/31 01:42:46.0	91.610	0.040	0.020	-0.170
2020/01/31 01:42:46.1	91.610	0.080	-0.070	-0.150
2020/01/31 01:42:46.2	91.600	0.120	-0.150	-0.130
2020/01/31 01:42:46.3	91.600	0.160	-0.240	-0.110
2020/01/31 01:42:46.4	91.600	0.210	-0.330	-0.090
2020/01/31 01:42:46.5	91.590	0.250	-0.410	-0.070
2020/01/31 01:42:46.6	91.580	0.290	-0.490	-0.040
2020/01/31 01:42:46.7	91.580	0.330	-0.570	-0.020
2020/01/31 01:42:46.8	91.570	0.360	-0.640	0.010
2020/01/31 01:42:46.9	91.560	0.400	-0.700	0.040
2020/01/31 01:42:47.0	91.540	0.430	-0.760	0.070
2020/01/31 01:42:47.1	91.530	0.460	-0.810	0.100
2020/01/31 01:42:47.2	91.520	0.490	-0.850	0.130
2020/01/31 01:42:47.3	91.510	0.510	-0.890	0.160
2020/01/31 01:42:47.4	91.490	0.530	-0.910	0.200
2020/01/31 01:42:47.5	91.480	0.540	-0.920	0.230
2020/01/31 01:42:47.6	91.470	0.550	-0.930	0.270
2020/01/31 01:42:47.7	91.460	0.560	-0.930	0.300
2020/01/31 01:42:47.8	91.450	0.560	-0.910	0.340
2020/01/31 01:42:47.9	91.440	0.560	-0.890	0.380
2020/01/31 01:42:48.0	91.430	0.550	-0.860	0.420
2020/01/31 01:42:48.1	91.420	0.540	-0.820	0.470
2020/01/31 01:42:48.2	91.420	0.530	-0.780	0.510
2020/01/31 01:42:48.3	91.410	0.510	-0.720	0.560
2020/01/31 01:42:48.4	91.400	0.490	-0.670	0.600
2020/01/31 01:42:48.5	91.390	0.470	-0.610	0.650
2020/01/31 01:42:48.6	91.390	0.450	-0.540	0.700
2020/01/31 01:42:48.7	91.380	0.420	-0.470	0.740
2020/01/31 01:42:48.8	91.380	0.390	-0.400	0.790
2020/01/31 01:42:48.9	91.380	0.360	-0.330	0.850
2020/01/31 01:42:49.0	91.400	0.330	-0.250	0.900
2020/01/31 01:42:49.1	91.400	0.290	-0.180	0.950
2020/01/31 01:42:49.2	91.400	0.260	-0.110	1.010
2020/01/31 01:42:49.3	91.400	0.230	-0.040	1.060
2020/01/31 01:42:49.4	91.400	0.190	0.020	1.110
2020/01/31 01:42:49.5	91.400	0.160	0.080	1.170
2020/01/31 01:42:49.6	91.400	0.130	0.140	1.220
2020/01/31 01:42:49.7	91.400	0.090	0.180	1.280
2020/01/31 01:42:49.8	91.400	0.060	0.230	1.340
2020/01/31 01:42:49.9	91.400	0.030	0.260	1.390
2020/01/31 01:42:50.0	91.400	0.010	0.290	1.460
2020/01/31 01:42:50.1	91.400	-0.020	0.310	1.520
2020/01/31 01:42:50.2	91.390	-0.040	0.330	1.570
2020/01/31 01:42:50.3	91.390	-0.060	0.330	1.630
2020/01/31 01:42:50.4	91.380	-0.080	0.330	1.690
2020/01/31 01:42:50.5	91.380	-0.090	0.320	1.750
2020/01/31 01:42:50.6	91.370	-0.110	0.310	1.810
2020/01/31 01:42:50.7	91.360	-0.120	0.280	1.860
2020/01/31 01:42:50.8	91.350	-0.130	0.250	1.910
2020/01/31 01:42:50.9	91.350	-0.130	0.220	1.970
2020/01/31 01:42:51.0	91.340	-0.140	0.170	2.010
2020/01/31 01:42:51.1	91.340	-0.140	0.130	2.060
2020/01/31 01:42:51.2	91.330	-0.140	0.080	2.100
2020/01/31 01:42:51.3	91.330	-0.140	0.020	2.140
2020/01/31 01:42:51.4	91.330	-0.130	-0.030	2.170
2020/01/31 01:42:51.5	91.330	-0.130	-0.090	2.200
2020/01/31 01:42:51.6	91.330	-0.120	-0.150	2.220
2020/01/31 01:42:51.7	91.330	-0.120	-0.210	2.240
2020/01/31 01:42:51.8	91.340	-0.110	-0.270	2.250
2020/01/31 01:42:51.9	91.350	-0.100	-0.330	2.260
2020/01/31 01:42:52.0	91.350	-0.090	-0.390	2.260
2020/01/31 01:42:52.1	91.360	-0.080	-0.440	2.260
2020/01/31 01:42:52.2	91.380	-0.070	-0.490	2.250
2020/01/31 01:42:52.3	91.400	-0.070	-0.540	2.240
2020/01/31 01:42:52.4	91.420	-0.060	-0.580	2.220
2020/01/31 01:42:52.5	91.430	-0.050	-0.610	2.200
2020/01/31 01:42:52.6	91.460	-0.050	-0.640	2.180
2020/01/31 01:42:52.7	91.470	-0.040	-0.660	2.160
2020/01/31 01:42:52.8	91.490	-0.040	-0.680	2.130
2020/01/31 01:42:52.9	91.510	-0.040	-0.680	2.110
2020/01/31 01:42:53.0	91.520	-0.040	-0.680	2.080
2020/01/31 01:42:53.1	91.540	-0.040	-0.680	2.050
2020/01/31 01:42:53.2	91.550	-0.050	-0.660	2.020
2020/01/31 01:42:53.3	91.570	-0.060	-0.640	2.000
2020/01/31 01:42:53.4	91.580	-0.060	-0.620	1.970
2020/01/31 01:42:53.5	91.580	-0.070	-0.580	1.950
2020/01/31 01:42:53.6	91.590	-0.090	-0.540	1.920
2020/01/31 01:42:53.7	91.590	-0.100	-0.490	1.900
2020/01/31 01:42:53.8	91.600	-0.110	-0.440	1.870
2020/01/31 01:42:53.9	91.600	-0.130	-0.390	1.850
2020/01/31 01:42:54.0	91.590	-0.150	-0.330	1.830
2020/01/31 01:42:54.1	91.580	-0.170	-0.270	1.810
2020/01/31 01:42:54.2	91.580	-0.190	-0.200	1.790
2020/01/31 01:42:54.3	91.570	-0.210	-0.140	1.770
2020/01/31 01:42:54.4	91.560	-0.230	-0.070	1.750
2020/01/31 01:42:54.5	91.550	-0.250	-0.010	1.730
2020/01/31 01:42:54.6	91.540	-0.270	0.060	1.710
2020/01/31 01:42:54.7	91.530	-0.290	0.120	1.680
2020/01/31 01:42:54.8	91.520	-0.300	0.180	1.660
2020/01/31 01:42:54.9	91.520	-0.320	0.240	1.630
2020/01/31 01:42:55.0	91.510	-0.340	0.290	1.600
2020/01/31 01:42:55.1	91.500	-0.350	0.340	1.560
2020/01/31 01:42:55.2	91.500	-0.360	0.390	1.520
2020/01/31 01:42:55.3	91.490	-0.370	0.420	1.480
2020/01/31 01:42:55.4	91.490	-0.380	0.450	1.430
2020/01/31 01:42:55.5	91.480	-0.390	0.480	1.380
2020/01/31 01:42:55.6	91.480	-0.390	0.490	1.320
2020/01/31 01:42:55.7	91.480	-0.390	0.500	1.260
2020/01/31 01:42:55.8	91.480	-0.390	0.510	1.190
2020/01/31 01:42:55.9	91.480	-0.380	0.500	1.120
2020/01/31 01:42:56.0	91.490	-0.370	0.490	1.050
2020/01/31 01:42:56.1	91.490	-0.360	0.470	0.980
2020/01/31 01:42:56.2	91.490	-0.350	0.440	0.900
2020/01/31 01:42:56.3	91.490	-0.330	0.410	0.820
2020/01/31 01:42:56.4	91.490	-0.310	0.370	0.730
2020/01/31 01:42:56.5	91.500	-0.290	0.330	0.650
2020/01/31 01:42:56.6	91.500	-0.270	0.280	0.560
2020/01/31 01:42:56.7	91.500	-0.240	0.220	0.480
2020/01/31 01:42:56.8	91.500	-0.210	0.170	0.390
2020/01/31 01:42:56.9	91.500	-0.190	0.110	0.310
2020/01/31 01:42:57.0	91.510	-0.160	0.050	0.230
2020/01/31 01:42:57.1	91.510	-0.120	-0.020	0.150
2020/01/31 01:42:57.2	91.510	-0.090	-0.080	0.070
2020/01/31 01:42:57.3	91.500	-0.060	-0.150	-0.010
2020/01/31 01:42:57.4	91.500	-0.030	-0.210	-0.080
2020/01/31 01:42:57.5	91.500	0.010	-0.280	-0.150
2020/01/31 01:42:57.6	91.490	0.040	-0.340	-0.210
2020/01/31 01:42:57.7	91.490	0.070	-0.400	-0.270
2020/01/31 01:42:57.8	91.490	0.100	-0.460	-0.330
2020/01/31 01:42:57.9	91.480	0.130	-0.510	-0.390
2020/01/31 01:42:58.0	91.460	0.160	-0.560	-0.430
2020/01/31 01:42:58.1	91.460	0.180	-0.610	-0.470
2020/01/31 01:42:58.2	91.450	0.210	-0.640	-0.520
2020/01/31 01:42:58.3	91.450	0.230	-0.680	-0.550
2020/01/31 01:42:58.4	91.440	0.250	-0.700	-0.580
2020/01/31 01:42:58.5	91.440	0.260	-0.730	-0.610
2020/01/31 01:42:58.6	91.430	0.270	-0.740	-0.630
2020/01/31 01:42:58.7	91.420	0.290	-0.750	-0.650
2020/01/31 01:42:58.8	91.420	0.290	-0.750	-0.670
2020/01/31 01:42:58.9	91.410	0.300	-0.750	-0.680
2020/01/31 01:42:59.0	91.390	0.300	-0.730	-0.690
2020/01/31 01:42:59.1	91.380	0.300	-0.710	-0.690
2020/01/31 01:42:59.2	91.380	0.290	-0.690	-0.700
2020/01/31 01:42:59.3	91.370	0.280	-0.660	-0.700
2020/01/31 01:42:59.4	91.360	0.270	-0.630	-0.700
2020/01/31 01:42:59.5	91.360	0.260	-0.580	-0.690
2020/01/31 01:42:59.6	91.350	0.240	-0.540	-0.690
2020/01/31 01:42:59.7	91.350	0.230	-0.490	-0.680
2020/01/31 01:42:59.8	91.340	0.210	-0.430	-0.680
2020/01/31 01:42:59.9	91.340	0.180	-0.380	-0.670
2020/01/31 01:43:00.0	91.340	0.160	-0.320	-0.650
2020/01/31 01:43:00.1	91.340	0.140	-0.260	-0.640
2020/01/31 01:43:00.2	91.340	0.110	-0.190	-0.630
2020/01/31 01:43:00.3	91.340	0.090	-0.130	-0.610
2020/01/31 01:43:00.4	91.340	0.060	-0.070	-0.600
2020/01/31 01:43:00.5	91.340	0.040	-0.000	-0.580
2020/01/31 01:43:00.6	91.350	0.010	0.060	-0.560
2020/01/31 01:43:00.7	91.360	-0.010	0.120	-0.530
2020/01/31 01:43:00.8	91.370	-0.030	0.170	-0.510
2020/01/31 01:43:00.9	91.370	-0.050	0.230	-0.490
2020/01/31 01:43:01.0	91.400	-0.070	0.280	-0.450
2020/01/31 01:43:01.1	91.410	-0.090	0.320	-0.420
2020/01/31 01:43:01.2	91.420	-0.100	0.360	-0.390
2020/01/31 01:43:01.3	91.440	-0.110	0.390	-0.350
2020/01/31 01:43:01.4	91.450	-0.120	0.420	-0.310
2020/01/31 01:43:01.5	91.470	-0.130	0.440	-0.270
2020/01/31 01:43:01.6	91.490	-0.130	0.450	-0.230
2020/01/31 01:43:01.7	91.500	-0.130	0.460	-0.180
2020/01/31 01:43:01.8	91.520	-0.130	0.450	-0.130
2020/01/31 01:43:01.9	91.540	-0.120	0.450	-0.080
2020/01/31 01:43:02.0	91.550	-0.110	0.430	-0.020
2020/01/31 01:43:02.1	91.570	-0.100	0.410	0.040
2020/01/31 01:43:02.2	91.590	-0.090	0.380	0.100
2020/01/31 01:43:02.3	91.610	-0.080	0.350	0.160
2020/01/31 01:43:02.4	91.620	-0.060	0.310	0.220
2020/01/31 01:43:02.5	91.640	-0.040	0.260	0.280
2020/01/31 01:43:02.6	91.660	-0.020	0.210	0.350
2020/01/31 01:43:02.7	91.670	-0.000	0.160	0.420
2020/01/31 01:43:02.8	91.690	0.020	0.100	0.480
2020/01/31 01:43:02.9	91.700	0.040	0.050	0.550
2020/01/31 01:43:03.0	91.720	0.070	-0.010	0.620
2020/01/31 01:43:03.1	91.730	0.090	-0.080	0.690
2020/01/31 01:43:03.2	91.740	0.110	-0.140	0.770
2020/01/31 01:43:03.3	91.750	0.130	-0.200	0.840
2020/01/31 01:43:03.4	91.760	0.160	-0.260	0.910
2020/01/31 01:43:03.5	91.770	0.180	-0.320	0.990
2020/01/31 01:43:03.6	91.770	0.200	-0.380	1.070
2020/01/31 01:43:03.7	91.780	0.220	-0.440	1.140
2020/01/31 01:43:03.8	91.780	0.240	-0.490	1.220
2020/01/31 01:43:03.9	91.780	0.250	-0.540	1.300
2020/01/31 01:43:04.0	91.780	0.270	-0.590	1.380
2020/01/31 01:43:04.1	91.780	0.280	-0.630	1.460
2020/01/31 01:43:04.2	91.780	0.290	-0.660	1.530
2020/01/31 01:43:04.3	91.770	0.300	-0.690	1.610
2020/01/31 01:43:04.4	91.760	0.300	-0.720	1.690
2020/01/31 01:43:04.5	91.760	0.310	-0.740	1.760
2020/01/31 01:43:04.6	91.750	0.310	-0.750	1.830
2020/01/31 01:43:04.7	91.740	0.310	-0.760	1.900
2020/01/31 01:43:04.8	91.730	0.310	-0.770	1.970
2020/01/31 01:43:04.9	91.720	0.310	-0.760	2.040
2020/01/31 01:43:05.0	91.710	0.300	-0.750	2.100
2020/01/31 01:43:05.1	91.700	0.290	-0.740	2.160
2020/01/31 01:43:05.2	91.690	0.290	-0.720	2.210
2020/01/31 01:43:05.3	91.680	0.280	-0.700	2.260
2020/01/31 01:43:05.4	91.670	0.260	-0.670	2.310
2020/01/31 01:43:05.5	91.650	0.250	-0.640	2.360
2020/01/31 01:43:05.6	91.640	0.230	-0.600	2.400
2020/01/31 01:43:05.7	91.630	0.220	-0.560	2.430
2020/01/31 01:43:05.8	91.620	0.200	-0.520	2.460
2020/01/31 01:43:05.9	91.610	0.190	-0.470	2.490
2020/01/31 01:43:06.0	91.600	0.170	-0.420	2.520
2020/01/31 01:43:06.1	91.590	0.150	-0.370	2.540
2020/01/31 01:43:06.2	91.580	0.130	-0.310	2.560
2020/01/31 01:43:06.3	91.570	0.110	-0.260	2.570
2020/01/31 01:43:06.4	91.560	0.090	-0.210	2.580
2020/01/31 01:43:06.5	91.550	0.080	-0.150	2.590
2020/01/31 01:43:06.6	91.540	0.060	-0.100	2.590
2020/01/31 01:43:06.7	91.530	0.040	-0.050	2.590
2020/01/31 01:43:06.8	91.520	0.030	0.000	2.590
2020/01/31 01:43:06.9	91.500	0.010	0.050	2.580
2020/01/31 01:43:07.0	91.490	-0.000	0.100	2.570
2020/01/31 01:43:07.1	91.480	-0.010	0.140	2.560
2020/01/31 01:43:07.2	91.470	-0.030	0.180	2.540
2020/01/31 01:43:07.3	91.460	-0.030	0.220	2.520
2020/01/31 01:43:07.4	91.450	-0.040	0.250	2.490
2020/01/31 01:43:07.5	91.440	-0.050	0.270	2.460
2020/01/31 01:43:07.6	91.430	-0.050	0.290	2.420
2020/01/31 01:43:07.7	91.420	-0.050	0.310	2.380
2020/01/31 01:43:07.8	91.420	-0.050	0.320	2.340
2020/01/31 01:43:07.9	91.410	-0.050	0.320	2.290
2020/01/31 01:43:08.0	91.420	-0.050	0.320	2.230
2020/01/31 01:43:08.1	91.420	-0.040	0.310	2.170
2020/01/31 01:43:08.2	91.420	-0.030	0.290	2.100
2020/01/31 01:43:08.3	91.430	-0.020	0.270	2.030
2020/01/31 01:43:08.4	91.430	-0.010	0.240	1.960
2020/01/31 01:43:08.5	91.440	0.010	0.210	1.880
2020/01/31 01:43:08.6	91.450	0.020	0.170	1.790
2020/01/31 01:43:08.7	91.460	0.040	0.120	1.710
2020/01/31 01:43:08.8	91.480	0.050	0.080	1.610
2020/01/31 01:43:08.9	91.500	0.070	0.020	1.520
2020/01/31 01:43:09.0	91.510	0.090	-0.030	1.420
2020/01/31 01:43:09.1	91.540	0.110	-0.090	1.320
2020/01/31 01:43:09.2	91.560	0.130	-0.150	1.210
2020/01/31 01:43:09.3	91.580	0.140	-0.210	1.110
2020/01/31 01:43:09.4	91.610	0.160	-0.260	1.010
2020/01/31 01:43:09.5	91.640	0.170	-0.320	0.900
2020/01/31 01:43:09.6	91.670	0.190	-0.370	0.800
2020/01/31 01:43:09.7	91.690	0.200	-0.420	0.700
2020/01/31 01:43:09.8	91.720	0.210	-0.460	0.600
2020/01/31 01:43:09.9	91.750	0.220	-0.500	0.500
2020/01/31 01:43:10.0	91.780	0.220	-0.540	0.400
2020/01/31 01:43:10.1	91.810	0.220	-0.560	0.310
2020/01/31 01:43:10.2	91.840	0.220	-0.580	0.220
2020/01/31 01:43:10.3	91.860	0.210	-0.590	0.140
2020/01/31 01:43:10.4	91.880	0.200	-0.600	0.060
2020/01/31 01:43:10.5	91.910	0.190	-0.590	-0.020
2020/01/31 01:43:10.6	91.930	0.180	-0.580	-0.090
2020/01/31 01:43:10.7	91.940	0.160	-0.560	-0.160
2020/01/31 01:43:10.8	91.960	0.140	-0.540	-0.220
2020/01/31 01:43:10.9	91.970	0.110	-0.510	-0.270
2020/01/31 01:43:11.0	92.000	0.090	-0.460	-0.320
2020/01/31 01:43:11.1	92.010	0.050	-0.420	-0.360
2020/01/31 01:43:11.2	92.020	0.020	-0.370	-0.400
2020/01/31 01:43:11.3	92.020	-0.010	-0.310	-0.430
2020/01/31 01:43:11.4	92.030	-0.050	-0.260	-0.450
2020/01/31 01:43:11.5	92.030	-0.090	-0.190	-0.470
2020/01/31 01:43:11.6	92.030	-0.130	-0.130	-0.490
2020/01/31 01:43:11.7	92.030	-0.170	-0.070	-0.500
2020/01/31 01:43:11.8	92.030	-0.210	-0.000	-0.510
2020/01/31 01:43:11.9	92.020	-0.250	0.060	-0.510
2020/01/31 01:43:12.0	92.010	-0.290	0.120	-0.510
2020/01/31 01:43:12.1	92.000	-0.330	0.180	-0.510
2020/01/31 01:43:12.2	92.000	-0.370	0.240	-0.500
2020/01/31 01:43:12.3	91.990	-0.410	0.290	-0.490
2020/01/31 01:43:12.4	91.980	-0.450	0.340	-0.480
2020/01/31 01:43:12.5	91.980	-0.480	0.380	-0.470
2020/01/31 01:43:12.6	91.970	-0.520	0.420	-0.450
2020/01/31 01:43:12.7	91.960	-0.550	0.450	-0.440
2020/01/31 01:43:12.8	91.960	-0.580	0.480	-0.430
2020/01/31 01:43:12.9	91.950	-0.600	0.500	-0.410
2020/01/31 01:43:13.0	91.950	-0.620	0.520	-0.390
2020/01/31 01:43:13.1	91.950	-0.640	0.520	-0.380
2020/01/31 01:43:13.2	91.940	-0.660	0.520	-0.360
2020/01/31 01:43:13.3	91.940	-0.670	0.520	-0.350
2020/01/31 01:43:13.4	91.940	-0.680	0.510	-0.330
2020/01/31 01:43:13.5	91.940	-0.690	0.490	-0.320
2020/01/31 01:43:13.6	91.940	-0.690	0.460	-0.310
2020/01/31 01:43:13.7	91.940	-0.680	0.430	-0.290
2020/01/31 01:43:13.8	91.950	-0.680	0.400	-0.280
2020/01/31 01:43:13.9	91.950	-0.670	0.360	-0.260
2020/01/31 01:43:14.0	91.960	-0.660	0.310	-0.240
2020/01/31 01:43:14.1	91.960	-0.640	0.260	-0.220
2020/01/31 01:43:14.2	91.970	-0.620	0.200	-0.200
2020/01/31 01:43:14.3	91.980	-0.600	0.150	-0.180
2020/01/31 01:43:14.4	91.980	-0.570	0.090	-0.160
2020/01/31 01:43:14.5	91.990	-0.540	0.030	-0.130
2020/01/31 01:43:14.6	91.990	-0.510	-0.030	-0.100
2020/01/31 01:43:14.7	92.000	-0.480	-0.100	-0.070
2020/01/31 01:43:14.8	92.000	-0.440	-0.160	-0.040
2020/01/31 01:43:14.9	92.000	-0.400	-0.220	0.000
2020/01/31 01:43:15.0	92.010	-0.370	-0.290	0.050
2020/01/31 01:43:15.1	92.020	-0.330	-0.350	0.100
2020/01/31 01:43:15.2	92.020	-0.280	-0.410	0.150
2020/01/31 01:43:15.3	92.020	-0.240	-0.460	0.200
2020/01/31 01:43:15.4	92.020	-0.200	-0.510	0.260
2020/01/31 01:43:15.5	92.020	-0.160	-0.560	0.320
2020/01/31 01:43:15.6	92.020	-0.120	-0.610	0.380
2020/01/31 01:43:15.7	92.020	-0.080	-0.650	0.440
2020/01/31 01:43:15.8	92.010	-0.040	-0.680	0.510
2020/01/31 01:43:15.9	92.010	0.000	-0.710	0.570
2020/01/31 01:43:16.0	92.000	0.040	-0.730	0.640
2020/01/31 01:43:16.1	92.000	0.070	-0.750	0.710
2020/01/31 01:43:16.2	92.000	0.110	-0.770	0.770
2020/01/31 01:43:16.3	92.000	0.140	-0.770	0.830
2020/01/31 01:43:16.4	92.000	0.170	-0.770	0.890
2020/01/31 01:43:16.5	92.000	0.190	-0.770	0.940
2020/01/31 01:43:16.6	92.000	0.220	-0.760	1.000
2020/01/31 01:43:16.7	92.000	0.240	-0.740	1.050
2020/01/31 01:43:16.8	92.000	0.260	-0.720	1.090
2020/01/31 01:43:16.9	92.000	0.270	-0.690	1.130
2020/01/31 01:43:17.0	92.010	0.290	-0.670	1.170
2020/01/31 01:43:17.1	92.010	0.300	-0.630	1.210
2020/01/31 01:43:17.2	92.010	0.310	-0.600	1.240
2020/01/31 01:43:17.3	92.020	0.310	-0.560	1.260
2020/01/31 01:43:17.4	92.020	0.320	-0.520	1.280
2020/01/31 01:43:17.5	92.030	0.320	-0.470	1.300
2020/01/31 01:43:17.6	92.040	0.330	-0.430	1.310
2020/01/31 01:43:17.7	92.040	0.330	-0.390	1.310
2020/01/31 01:43:17.8	92.050	0.330	-0.350	1.320
2020/01/31 01:43:17.9	92.060	0.330	-0.300	1.320
2020/01/31 01:43:18.0	92.070	0.330	-0.260	1.310
2020/01/31 01:43:18.1	92.080	0.330	-0.220	1.310
2020/01/31 01:43:18.2	92.100	0.330	-0.190	1.300
2020/01/31 01:43:18.3	92.110	0.330	-0.160	1.290
2020/01/31 01:43:18.4	92.130	0.330	-0.130	1.280
2020/01/31 01:43:18.5	92.140	0.330	-0.110	1.270
2020/01/31 01:43:18.6	92.160	0.330	-0.090	1.260
2020/01/31 01:43:18.7	92.180	0.340	-0.080	1.250
2020/01/31 01:43:18.8	92.200	0.340	-0.070	1.230
2020/01/31 01:43:18.9	92.210	0.350	-0.060	1.220
2020/01/31 01:43:19.0	92.240	0.360	-0.060	1.210
2020/01/31 01:43:19.1	92.260	0.370	-0.060	1.210
2020/01/31 01:43:19.2	92.270	0.380	-0.070	1.200
2020/01/31 01:43:19.3	92.290	0.390	-0.080	1.200
2020/01/31 01:43:19.4	92.300	0.410	-0.090	1.200
2020/01/31 01:43:19.5	92.310	0.420	-0.110	1.200
2020/01/31 01:43:19.6	92.320	0.430	-0.130	1.200
2020/01/31 01:43:19.7	92.330	0.450	-0.150	1.210
2020/01/31 01:43:19.8	92.330	0.470	-0.170	1.220
2020/01/31 01:43:19.9	92.330	0.480	-0.200	1.230
2020/01/31 01:43:20.0	92.320	0.500	-0.230	1.250
2020/01/31 01:43:20.1	92.320	0.510	-0.250	1.260
2020/01/31 01:43:20.2	92.310	0.520	-0.270	1.280
2020/01/31 01:43:20.3	92.310	0.530	-0.290	1.290
2020/01/31 01:43:20.4	92.300	0.540	-0.310	1.310
2020/01/31 01:43:20.5	92.280	0.550	-0.330	1.330
2020/01/31 01:43:20.6	92.270	0.560	-0.340	1.350
2020/01/31 01:43:20.7	92.250	0.560	-0.350	1.370
2020/01/31 01:43:20.8	92.240	0.560	-0.360	1.380
2020/01/31 01:43:20.9	92.220	0.560	-0.370	1.400
2020/01/31 01:43:21.0	92.200	0.550	-0.360	1.410
2020/01/31 01:43:21.1	92.180	0.550	-0.360	1.420
2020/01/31 01:43:21.2	92.160	0.540	-0.350	1.430
2020/01/31 01:43:21.3	92.140	0.520	-0.340	1.430
2020/01/31 01:43:21.4	92.120	0.500	-0.330	1.440
2020/01/31 01:43:21.5	92.110	0.480	-0.310	1.440
2020/01/31 01:43:21.6	92.090	0.460	-0.290	1.430
2020/01/31 01:43:21.7	92.070	0.440	-0.260	1.430
2020/01/31 01:43:21.8	92.060	0.410	-0.240	1.420
2020/01/31 01:43:21.9	92.040	0.380	-0.210	1.410
2020/01/31 01:43:22.0	92.040	0.350	-0.180	1.400
2020/01/31 01:43:22.1	92.030	0.310	-0.150	1.390
2020/01/31 01:43:22.2	92.020	0.280	-0.110	1.370
2020/01/31 01:43:22.3	92.020	0.240	-0.080	1.350
2020/01/31 01:43:22.4	92.010	0.210	-0.040	1.320
2020/01/31 01:43:22.5	92.010	0.170	-0.010	1.300
2020/01/31 01:43:22.6	92.010	0.130	0.020	1.270
2020/01/31 01:43:22.7	92.020	0.090	0.060	1.230
2020/01/31 01:43:22.8	92.030	0.060	0.090	1.200
2020/01/31 01:43:22.9	92.030	0.020	0.120	1.170
2020/01/31 01:43:23.0	92.060	-0.020	0.160	1.130
2020/01/31 01:43:23.1	92.070	-0.050	0.190	1.090
2020/01/31 01:43:23.2	92.080	-0.090	0.220	1.050
2020/01/31 01:43:23.3	92.100	-0.120	0.240	1.010
2020/01/31 01:43:23.4	92.120	-0.150	0.270	0.980
2020/01/31 01:43:23.5	92.140	-0.180	0.290	0.940
2020/01/31 01:43:23.6	92.160	-0.210	0.310	0.900
2020/01/31 01:43:23.7	92.180	-0.240	0.320	0.860
2020/01/31 01:43:23.8	92.210	-0.260	0.340	0.830
2020/01/31 01:43:23.9	92.230	-0.290	0.350	0.790
2020/01/31 01:43:24.0	92.260	-0.310	0.360	0.760
2020/01/31 01:43:24.1	92.290	-0.320	0.360	0.730
2020/01/31 01:43:24.2	92.320	-0.340	0.370	0.700
2020/01/31 01:43:24.3	92.340	-0.360	0.370	0.660
2020/01/31 01:43:24.4	92.370	-0.370	0.370	0.630
2020/01/31 01:43:24.5	92.400	-0.380	0.370	0.600
2020/01/31 01:43:24.6	92.430	-0.390	0.360	0.570
2020/01/31 01:43:24.7	92.470	-0.400	0.350	0.550
2020/01/31 01:43:24.8	92.500	-0.410	0.350	0.520
2020/01/31 01:43:24.9	92.530	-0.410	0.340	0.490
2020/01/31 01:43:25.0	92.560	-0.420	0.320	0.460
2020/01/31 01:43:25.1	92.590	-0.420	0.310	0.440
2020/01/31 01:43:25.2	92.620	-0.420	0.300	0.410
2020/01/31 01:43:25.3	92.650	-0.430	0.280	0.390
2020/01/31 01:43:25.4	92.680	-0.430	0.270	0.370
2020/01/31 01:43:25.5	92.710	-0.430	0.260	0.350
2020/01/31 01:43:25.6	92.730	-0.430	0.240	0.330
2020/01/31 01:43:25.7	92.760	-0.430	0.220	0.310
2020/01/31 01:43:25.8	92.780	-0.440	0.210	0.290
2020/01/31 01:43:25.9	92.800	-0.440	0.190	0.280
2020/01/31 01:43:26.0	92.820	-0.440	0.180	0.270
2020/01/31 01:43:26.1	92.840	-0.440	0.160	0.260
2020/01/31 01:43:26.2	92.860	-0.440	0.140	0.250
2020/01/31 01:43:26.3	92.870	-0.440	0.130	0.240
2020/01/31 01:43:26.4	92.880	-0.450	0.110	0.230
2020/01/31 01:43:26.5	92.890	-0.450	0.090	0.220
2020/01/31 01:43:26.6	92.900	-0.450	0.070	0.220
2020/01/31 01:43:26.7	92.910	-0.450	0.050	0.220
2020/01/31 01:43:26.8	92.910	-0.450	0.030	0.220
2020/01/31 01:43:26.9	92.910	-0.460	0.010	0.220
2020/01/31 01:43:27.0	92.910	-0.460	-0.020	0.230
2020/01/31 01:43:27.1	92.910	-0.460	-0.040	0.230
2020/01/31 01:43:27.2	92.910	-0.460	-0.070	0.240
2020/01/31 01:43:27.3	92.910	-0.460	-0.100	0.250
2020/01/31 01:43:27.4	92.900	-0.460	-0.120	0.270
2020/01/31 01:43:27.5	92.890	-0.460	-0.150	0.280
2020/01/31 01:43:27.6	92.880	-0.460	-0.180	0.300
2020/01/31 01:43:27.7	92.870	-0.450	-0.210	0.320
2020/01/31 01:43:27.8	92.860	-0.450	-0.250	0.350
2020/01/31 01:43:27.9	92.840	-0.440	-0.280	0.370
2020/01/31 01:43:28.0	92.820	-0.440	-0.310	0.410
2020/01/31 01:43:28.1	92.800	-0.430	-0.350	0.440
2020/01/31 01:43:28.2	92.780	-0.420	-0.390	0.470
2020/01/31 01:43:28.3	92.760	-0.410	-0.420	0.510
2020/01/31 01:43:28.4	92.740	-0.400	-0.460	0.540
2020/01/31 01:43:28.5	92.710	-0.390	-0.500	0.580
2020/01/31 01:43:28.6	92.690	-0.380	-0.540	0.620
2020/01/31 01:43:28.7	92.660	-0.360	-0.570	0.660
2020/01/31 01:43:28.8	92.640	-0.340	-0.610	0.700
2020/01/31 01:43:28.9	92.610	-0.320	-0.650	0.740
2020/01/31 01:43:29.0	92.600	-0.300	-0.690	0.770
2020/01/31 01:43:29.1	92.570	-0.280	-0.720	0.810
2020/01/31 01:43:29.2	92.550	-0.260	-0.760	0.850
2020/01/31 01:43:29.3	92.530	-0.230	-0.790	0.880
2020/01/31 01:43:29.4	92.510	-0.200	-0.820	0.910
2020/01/31 01:43:29.5	92.490	-0.170	-0.850	0.940
2020/01/31 01:43:29.6	92.470	-0.140	-0.880	0.970
2020/01/31 01:43:29.7	92.460	-0.110	-0.910	1.000
2020/01/31 01:43:29.8	92.450	-0.080	-0.930	1.020
2020/01/31 01:43:29.9	92.440	-0.040	-0.960	1.040
2020/01/31 01:43:30.0	92.420	-0.010	-0.970	1.070
2020/01/31 01:43:30.1	92.420	0.030	-0.990	1.080
2020/01/31 01:43:30.2	92.410	0.070	-1.010	1.100
2020/01/31 01:43:30.3	92.410	0.110	-1.020	1.110
2020/01/31 01:43:30.4	92.410	0.150	-1.030	1.120
2020/01/31 01:43:30.5	92.410	0.190	-1.030	1.130
2020/01/31 01:43:30.6	92.420	0.230	-1.030	1.140
2020/01/31 01:43:30.7	92.420	0.270	-1.030	1.150
2020/01/31 01:43:30.8	92.430	0.300	-1.030	1.160
2020/01/31 01:43:30.9	92.440	0.340	-1.020	1.160
2020/01/31 01:43:31.0	92.460	0.380	-1.000	1.170
2020/01/31 01:43:31.1	92.470	0.410	-0.990	1.170
2020/01/31 01:43:31.2	92.480	0.450	-0.970	1.170
2020/01/31 01:43:31.3	92.490	0.480	-0.940	1.170
2020/01/31 01:43:31.4	92.510	0.510	-0.910	1.180
2020/01/31 01:43:31.5	92.520	0.530	-0.880	1.180
2020/01/31 01:43:31.6	92.540	0.560	-0.840	1.180
2020/01/31 01:43:31.7	92.550	0.580	-0.800	1.170
2020/01/31 01:43:31.8	92.570	0.600	-0.750	1.170
2020/01/31 01:43:31.9	92.590	0.610	-0.700	1.170
2020/01/31 01:43:32.0	92.600	0.620	-0.640	1.170
2020/01/31 01:43:32.1	92.620	0.630	-0.580	1.160
2020/01/31 01:43:32.2	92.630	0.640	-0.520	1.160
2020/01/31 01:43:32.3	92.640	0.640	-0.460	1.150
2020/01/31 01:43:32.4	92.660	0.630	-0.390	1.140
2020/01/31 01:43:32.5	92.670	0.630	-0.320	1.130
2020/01/31 01:43:32.6	92.680	0.620	-0.240	1.120
2020/01/31 01:43:32.7	92.690	0.600	-0.170	1.110
2020/01/31 01:43:32.8	92.690	0.590	-0.090	1.100
2020/01/31 01:43:32.9	92.700	0.570	-0.010	1.080
2020/01/31 01:43:33.0	92.710	0.540	0.070	1.070
2020/01/31 01:43:33.1	92.710	0.520	0.150	1.060
2020/01/31 01:43:33.2	92.710	0.490	0.230	1.040
2020/01/31 01:43:33.3	92.710	0.460	0.300	1.020
2020/01/31 01:43:33.4	92.710	0.420	0.380	1.000
2020/01/31 01:43:33.5	92.710	0.390	0.460	0.980
2020/01/31 01:43:33.6	92.710	0.350	0.530	0.960
2020/01/31 01:43:33.7	92.710	0.310	0.600	0.930
2020/01/31 01:43:33.8	92.700	0.270	0.670	0.910
2020/01/31 01:43:33.9	92.690	0.230	0.730	0.880
2020/01/31 01:43:34.0	92.680	0.190	0.790	0.860
2020/01/31 01:43:34.1	92.680	0.150	0.850	0.830
2020/01/31 01:43:34.2	92.670	0.110	0.900	0.810
2020/01/31 01:43:34.3	92.660	0.070	0.950	0.780
2020/01/31 01:43:34.4	92.650	0.040	0.990	0.750
2020/01/31 01:43:34.5	92.640	-0.000	1.030	0.730
2020/01/31 01:43:34.6	92.630	-0.040	1.060	0.700
2020/01/31 01:43:34.7	92.620	-0.070	1.090	0.670
2020/01/31 01:43:34.8	92.610	-0.100	1.110	0.650
2020/01/31 01:43:34.9	92.600	-0.130	1.120	0.620
2020/01/31 01:43:35.0	92.580	-0.150	1.130	0.590
2020/01/31 01:43:35.1	92.580	-0.170	1.130	0.560
2020/01/31 01:43:35.2	92.580	-0.190	1.120	0.530
2020/01/31 01:43:35.3	92.570	-0.210	1.110	0.500
2020/01/31 01:43:35.4	92.570	-0.220	1.080	0.470
2020/01/31 01:43:35.5	92.570	-0.230	1.050	0.430
2020/01/31 01:43:35.6	92.580	-0.240	1.020	0.400
2020/01/31 01:43:35.7	92.590	-0.240	0.970	0.360
2020/01/31 01:43:35.8	92.590	-0.240	0.920	0.320
2020/01/31 01:43:35.9	92.610	-0.240	0.860	0.280
2020/01/31 01:43:36.0	92.630	-0.230	0.790	0.240
2020/01/31 01:43:36.1	92.650	-0.220	0.720	0.190
2020/01/31 01:43:36.2	92.670	-0.210	0.640	0.150
2020/01/31 01:43:36.3	92.690	-0.200	0.560	0.110
2020/01/31 01:43:36.4	92.710	-0.180	0.470	0.070
2020/01/31 01:43:36.5	92.740	-0.160	0.380	0.020
2020/01/31 01:43:36.6	92.770	-0.140	0.280	-0.020
2020/01/31 01:43:36.7	92.790	-0.120	0.180	-0.060
2020/01/31 01:43:36.8	92.820	-0.100	0.080	-0.090
2020/01/31 01:43:36.9	92.860	-0.070	-0.030	-0.130
2020/01/31 01:43:37.0	92.880	-0.050	-0.130	-0.160
2020/01/31 01:43:37.1	92.910	-0.020	-0.240	-0.190
2020/01/31 01:43:37.2	92.950	0.010	-0.340	-0.210
2020/01/31 01:43:37.3	92.980	0.030	-0.440	-0.230
2020/01/31 01:43:37.4	93.010	0.060	-0.540	-0.250
2020/01/31 01:43:37.5	93.040	0.090	-0.640	-0.260
2020/01/31 01:43:37.6	93.070	0.110	-0.730	-0.270
2020/01/31 01:43:37.7	93.100	0.130	-0.820	-0.270
2020/01/31 01:43:37.8	93.120	0.150	-0.900	-0.270
2020/01/31 01:43:37.9	93.150	0.180	-0.970	-0.260
2020/01/31 01:43:38.0	93.160	0.190	-1.040	-0.250
2020/01/31 01:43:38.1	93.180	0.210	-1.110	-0.230
2020/01/31 01:43:38.2	93.200	0.220	-1.160	-0.210
2020/01/31 01:43:38.3	93.210	0.240	-1.210	-0.180
2020/01/31 01:43:38.4	93.220	0.240	-1.250	-0.150
2020/01/31 01:43:38.5	93.230	0.250	-1.280	-0.120
2020/01/31 01:43:38.6	93.240	0.250	-1.300	-0.080
2020/01/31 01:43:38.7	93.250	0.250	-1.310	-0.040
2020/01/31 01:43:38.8	93.250	0.250	-1.320	0.000
2020/01/31 01:43:38.9	93.250	0.250	-1.310	0.050
2020/01/31 01:43:39.0	93.250	0.240	-1.300	0.100
2020/01/31 01:43:39.1	93.250	0.230	-1.290	0.160
2020/01/31 01:43:39.2	93.240	0.220	-1.260	0.210
2020/01/31 01:43:39.3	93.230	0.200	-1.230	0.270
2020/01/31 01:43:39.4	93.220	0.180	-1.190	0.340
2020/01/31 01:43:39.5	93.200	0.160	-1.150	0.400
2020/01/31 01:43:39.6	93.190	0.140	-1.100	0.470
2020/01/31 01:43:39.7	93.170	0.120	-1.040	0.540
2020/01/31 01:43:39.8	93.150	0.090	-0.980	0.610
2020/01/31 01:43:39.9	93.130	0.060	-0.920	0.680
2020/01/31 01:43:40.0	93.110	0.040	-0.850	0.750
2020/01/31 01:43:40.1	93.090	0.010	-0.790	0.820
2020/01/31 01:43:40.2	93.060	-0.020	-0.720	0.900
2020/01/31 01:43:40.3	93.040	-0.050	-0.650	0.970
2020/01/31 01:43:40.4	93.010	-0.080	-0.580	1.040
2020/01/31 01:43:40.5	92.990	-0.110	-0.510	1.120
2020/01/31 01:43:40.6	92.960	-0.140	-0.440	1.190
2020/01/31 01:43:40.7	92.940	-0.170	-0.370	1.260
2020/01/31 01:43:40.8	92.910	-0.190	-0.300	1.330
2020/01/31 01:43:40.9	92.890	-0.220	-0.240	1.400
2020/01/31 01:43:41.0	92.860	-0.240	-0.180	1.470
2020/01/31 01:43:41.1	92.840	-0.260	-0.120	1.530
2020/01/31 01:43:41.2	92.820	-0.280	-0.060	1.600
2020/01/31 01:43:41.3	92.800	-0.300	-0.010	1.660
2020/01/31 01:43:41.4	92.780	-0.320	0.040	1.720
2020/01/31 01:43:41.5	92.760	-0.330	0.090	1.780
2020/01/31 01:43:41.6	92.750	-0.340	0.130	1.830
2020/01/31 01:43:41.7	92.730	-0.350	0.170	1.880
2020/01/31 01:43:41.8	92.720	-0.360	0.210	1.930
2020/01/31 01:43:41.9	92.710	-0.360	0.240	1.980
2020/01/31 01:43:42.0	92.700	-0.370	0.270	2.030
2020/01/31 01:43:42.1	92.690	-0.370	0.290	2.070
2020/01/31 01:43:42.2	92.680	-0.370	0.310	2.100
2020/01/31 01:43:42.3	92.670	-0.360	0.330	2.130
2020/01/31 01:43:42.4	92.670	-0.360	0.340	2.160
2020/01/31 01:43:42.5	92.660	-0.350	0.350	2.190
2020/01/31 01:43:42.6	92.660	-0.350	0.360	2.210
2020/01/31 01:43:42.7	92.660	-0.340	0.370	2.220
2020/01/31 01:43:42.8	92.660	-0.330	0.370	2.230
2020/01/31 01:43:42.9	92.660	-0.320	0.370	2.230
2020/01/31 01:43:43.0	92.660	-0.310	0.360	2.230
2020/01/31 01:43:43.1	92.660	-0.290	0.350	2.230
2020/01/31 01:43:43.2	92.660	-0.280	0.340	2.220
2020/01/31 01:43:43.3	92.670	-0.270	0.340	2.200
2020/01/31 01:43:43.4	92.680	-0.250	0.330	2.180
2020/01/31 01:43:43.5	92.690	-0.240	0.310	2.150
2020/01/31 01:43:43.6	92.690	-0.230	0.300	2.120
2020/01/31 01:43:43.7	92.710	-0.210	0.290	2.080
2020/01/31 01:43:43.8	92.720	-0.200	0.280	2.030
2020/01/31 01:43:43.9	92.730	-0.180	0.260	1.990
2020/01/31 01:43:44.0	92.750	-0.170	0.250	1.930
2020/01/31 01:43:44.1	92.760	-0.160	0.240	1.870
2020/01/31 01:43:44.2	92.780	-0.140	0.230	1.810
2020/01/31 01:43:44.3	92.790	-0.130	0.210	1.740
2020/01/31 01:43:44.4	92.810	-0.120	0.200	1.670
2020/01/31 01:43:44.5	92.830	-0.110	0.190	1.600
2020/01/31 01:43:44.6	92.850	-0.100	0.170	1.520
2020/01/31 01:43:44.7	92.870	-0.090	0.160	1.440
2020/01/31 01:43:44.8	92.890	-0.070	0.150	1.360
2020/01/31 01:43:44.9	92.920	-0.060	0.140	1.270
2020/01/31 01:43:45.0	92.940	-0.060	0.120	1.190
2020/01/31 01:43:45.1	92.970	-0.050	0.110	1.100
2020/01/31 01:43:45.2	92.990	-0.040	0.100	1.020
2020/01/31 01:43:45.3	93.020	-0.030	0.090	0.930
2020/01/31 01:43:45.4	93.040	-0.020	0.070	0.850
2020/01/31 01:43:45.5	93.070	-0.020	0.060	0.760
2020/01/31 01:43:45.6	93.100	-0.010	0.050	0.680
2020/01/31 01:43:45.7	93.120	-0.010	0.040	0.590
2020/01/31 01:43:45.8	93.150	-0.000	0.030	0.510
2020/01/31 01:43:45.9	93.170	-0.000	0.020	0.430
2020/01/31 01:43:46.0	93.190	0.000	0.010	0.350
2020/01/31 01:43:46.1	93.210	0.000	-0.010	0.280
2020/01/31 01:43:46.2	93.240	0.000	-0.020	0.210
2020/01/31 01:43:46.3	93.260	0.010	-0.030	0.140
2020/01/31 01:43:46.4	93.280	0.000	-0.050	0.070
2020/01/31 01:43:46.5	93.300	0.000	-0.070	0.010
2020/01/31 01:43:46.6	93.320	0.000	-0.080	-0.050
2020/01/31 01:43:46.7	93.340	0.000	-0.100	-0.110
2020/01/31 01:43:46.8	93.360	-0.000	-0.120	-0.160
2020/01/31 01:43:46.9	93.370	-0.000	-0.140	-0.210
2020/01/31 01:43:47.0	93.370	-0.010	-0.160	-0.250
2020/01/31 01:43:47.1	93.380	-0.010	-0.180	-0.280
2020/01/31 01:43:47.2	93.390	-0.010	-0.210	-0.320
2020/01/31 01:43:47.3	93.400	-0.010	-0.230	-0.340
2020/01/31 01:43:47.4	93.410	-0.020	-0.260	-0.360
2020/01/31 01:43:47.5	93.410	-0.020	-0.280	-0.380
2020/01/31 01:43:47.6	93.410	-0.020	-0.310	-0.390
2020/01/31 01:43:47.7	93.420	-0.020	-0.340	-0.390
2020/01/31 01:43:47.8	93.410	-0.020	-0.370	-0.390
2020/01/31 01:43:47.9	93.410	-0.020	-0.400	-0.390
2020/01/31 01:43:48.0	93.420	-0.020	-0.430	-0.370
2020/01/31 01:43:48.1	93.410	-0.020	-0.460	-0.360
2020/01/31 01:43:48.2	93.400	-0.020	-0.490	-0.340
2020/01/31 01:43:48.3	93.390	-0.010	-0.520	-0.320
2020/01/31 01:43:48.4	93.380	-0.010	-0.550	-0.300
2020/01/31 01:43:48.5	93.370	-0.010	-0.580	-0.270
2020/01/31 01:43:48.6	93.350	0.000	-0.600	-0.240
2020/01/31 01:43:48.7	93.340	0.010	-0.630	-0.210
2020/01/31 01:43:48.8	93.320	0.010	-0.650	-0.170
2020/01/31 01:43:48.9	93.310	0.020	-0.670	-0.140
2020/01/31 01:43:49.0	93.300	0.030	-0.690	-0.100
2020/01/31 01:43:49.1	93.280	0.040	-0.700	-0.070
2020/01/31 01:43:49.2	93.270	0.050	-0.710	-0.030
2020/01/31 01:43:49.3	93.250	0.060	-0.720	0.000
2020/01/31 01:43:49.4	93.230	0.060	-0.720	0.040
2020/01/31 01:43:49.5	93.220	0.070	-0.720	0.080
2020/01/31 01:43:49.6	93.200	0.090	-0.720	0.110
2020/01/31 01:43:49.7	93.190	0.100	-0.710	0.150
2020/01/31 01:43:49.8	93.170	0.110	-0.700	0.180
2020/01/31 01:43:49.9	93.160	0.120	-0.690	0.220
2020/01/31 01:43:50.0	93.160	0.130	-0.670	0.250
2020/01/31 01:43:50.1	93.150	0.140	-0.650	0.290
2020/01/31 01:43:50.2	93.140	0.150	-0.640	0.320
2020/01/31 01:43:50.3	93.130	0.160	-0.610	0.350
2020/01/31 01:43:50.4	93.120	0.180	-0.590	0.390
2020/01/31 01:43:50.5	93.120	0.190	-0.560	0.420
2020/01/31 01:43:50.6	93.110	0.200	-0.540	0.450
2020/01/31 01:43:50.7	93.100	0.210	-0.510	0.480
2020/01/31 01:43:50.8	93.100	0.230	-0.490	0.520
2020/01/31 01:43:50.9	93.090	0.240	-0.460	0.550
2020/01/31 01:43:51.0	93.080	0.250	-0.430	0.580
2020/01/31 01:43:51.1	93.080	0.270	-0.400	0.620
2020/01/31 01:43:51.2	93.070	0.280	-0.380	0.650
2020/01/31 01:43:51.3	93.070	0.290	-0.350	0.690
2020/01/31 01:43:51.4	93.070	0.300	-0.330	0.720
2020/01/31 01:43:51.5	93.070	0.320	-0.300	0.750
2020/01/31 01:43:51.6	93.070	0.330	-0.280	0.790
2020/01/31 01:43:51.7	93.070	0.340	-0.260	0.820
2020/01/31 01:43:51.8	93.070	0.350	-0.240	0.850
2020/01/31 01:43:51.9	93.070	0.370	-0.220	0.890
2020/01/31 01:43:52.0	93.070	0.380	-0.190	0.920
2020/01/31 01:43:52.1	93.070	0.390	-0.180	0.950
2020/01/31 01:43:52.2	93.070	0.400	-0.160	0.990
2020/01/31 01:43:52.3	93.070	0.410	-0.140	1.020
2020/01/31 01:43:52.4	93.070	0.410	-0.120	1.050
2020/01/31 01:43:52.5	93.080	0.420	-0.110	1.080
2020/01/31 01:43:52.6	93.080	0.430	-0.090	1.110
2020/01/31 01:43:52.7	93.080	0.430	-0.070	1.140
2020/01/31 01:43:52.8	93.090	0.430	-0.050	1.160
2020/01/31 01:43:52.9	93.090	0.430	-0.040	1.190
2020/01/31 01:43:53.0	93.110	0.430	-0.020	1.210
2020/01/31 01:43:53.1	93.110	0.430	0.000	1.240
2020/01/31 01:43:53.2	93.120	0.430	0.020	1.260
2020/01/31 01:43:53.3	93.120	0.430	0.040	1.280
2020/01/31 01:43:53.4	93.130	0.420	0.060	1.290
2020/01/31 01:43:53.5	93.140	0.410	0.080	1.310
2020/01/31 01:43:53.6	93.150	0.400	0.100	1.320
2020/01/31 01:43:53.7	93.160	0.390	0.130	1.330
2020/01/31 01:43:53.8	93.170	0.370	0.150	1.340
2020/01/31 01:43:53.9	93.180	0.350	0.170	1.350
2020/01/31 01:43:54.0	93.190	0.340	0.200	1.350
2020/01/31 01:43:54.1	93.210	0.320	0.220	1.360
2020/01/31 01:43:54.2	93.230	0.290	0.240	1.350
2020/01/31 01:43:54.3	93.250	0.270	0.260	1.350
2020/01/31 01:43:54.4	93.270	0.240	0.280	1.340
2020/01/31 01:43:54.5	93.290	0.220	0.300	1.330
2020/01/31 01:43:54.6	93.310	0.190	0.320	1.320
2020/01/31 01:43:54.7	93.340	0.160	0.340	1.310
2020/01/31 01:43:54.8	93.360	0.120	0.360	1.290
2020/01/31 01:43:54.9	93.390	0.090	0.370	1.280
2020/01/31 01:43:55.0	93.420	0.060	0.390	1.260
2020/01/31 01:43:55.1	93.450	0.020	0.400	1.240
2020/01/31 01:43:55.2	93.480	-0.010	0.410	1.220
2020/01/31 01:43:55.3	93.510	-0.050	0.420	1.200
2020/01/31 01:43:55.4	93.540	-0.090	0.430	1.180
2020/01/31 01:43:55.5	93.570	-0.120	0.430	1.160
2020/01/31 01:43:55.6	93.600	-0.160	0.430	1.140
2020/01/31 01:43:55.7	93.620	-0.190	0.430	1.120
2020/01/31 01:43:55.8	93.650	-0.230	0.430	1.100
2020/01/31 01:43:55.9	93.680	-0.270	0.430	1.080
2020/01/31 01:43:56.0	93.700	-0.300	0.420	1.070
2020/01/31 01:43:56.1	93.720	-0.330	0.410	1.060
2020/01/31 01:43:56.2	93.740	-0.370	0.400	1.050
2020/01/31 01:43:56.3	93.760	-0.400	0.390	1.040
2020/01/31 01:43:56.4	93.770	-0.430	0.370	1.030
2020/01/31 01:43:56.5	93.790	-0.450	0.360	1.030
2020/01/31 01:43:56.6	93.800	-0.480	0.330	1.020
2020/01/31 01:43:56.7	93.810	-0.500	0.310	1.020
2020/01/31 01:43:56.8	93.810	-0.520	0.290	1.020
2020/01/31 01:43:56.9	93.820	-0.540	0.260	1.020
2020/01/31 01:43:57.0	93.820	-0.550	0.230	1.020
2020/01/31 01:43:57.1	93.820	-0.570	0.190	1.030
2020/01/31 01:43:57.2	93.820	-0.580	0.160	1.030
2020/01/31 01:43:57.3	93.820	-0.580	0.120	1.040
2020/01/31 01:43:57.4	93.820	-0.590	0.080	1.050
2020/01/31 01:43:57.5	93.810	-0.590	0.040	1.050
2020/01/31 01:43:57.6	93.810	-0.590	-0.010	1.060
2020/01/31 01:43:57.7	93.810	-0.580	-0.050	1.070
2020/01/31 01:43:57.8	93.800	-0.570	-0.100	1.080
2020/01/31 01:43:57.9	93.790	-0.560	-0.150	1.090
2020/01/31 01:43:58.0	93.790	-0.550	-0.200	1.100
2020/01/31 01:43:58.1	93.790	-0.540	-0.250	1.110
2020/01/31 01:43:58.2	93.780	-0.520	-0.290	1.110
2020/01/31 01:43:58.3	93.780	-0.500	-0.340	1.120
2020/01/31 01:43:58.4	93.770	-0.490	-0.390	1.130
2020/01/31 01:43:58.5	93.770	-0.470	-0.440	1.130
2020/01/31 01:43:58.6	93.760	-0.440	-0.480	1.140
2020/01/31 01:43:58.7	93.760	-0.420	-0.530	1.140
2020/01/31 01:43:58.8	93.760	-0.400	-0.570	1.150
2020/01/31 01:43:58.9	93.750	-0.380	-0.610	1.150
2020/01/31 01:43:59.0	93.740	-0.350	-0.640	1.160
2020/01/31 01:43:59.1	93.740	-0.330	-0.670	1.170
2020/01/31 01:43:59.2	93.730	-0.310	-0.700	1.170
2020/01/31 01:43:59.3	93.730	-0.280	-0.730	1.170
2020/01/31 01:43:59.4	93.730	-0.260	-0.750	1.170
2020/01/31 01:43:59.5	93.730	-0.240	-0.770	1.180
2020/01/31 01:43:59.6	93.740	-0.220	-0.790	1.180
2020/01/31 01:43:59.7	93.740	-0.210	-0.800	1.180
2020/01/31 01:43:59.8	93.740	-0.190	-0.800	1.180
2020/01/31 01:43:59.9	93.750	-0.170	-0.800	1.170
2020/01/31 01:44:00.0	93.760	-0.160	-0.800	1.170
2020/01/31 01:44:00.1	93.760	-0.140	-0.790	1.170
2020/01/31 01:44:00.2	93.770	-0.130	-0.780	1.160
2020/01/31 01:44:00.3	93.780	-0.120	-0.770	1.150
2020/01/31 01:44:00.4	93.780	-0.110	-0.750	1.150
2020/01/31 01:44:00.5	93.790	-0.100	-0.730	1.140
2020/01/31 01:44:00.6	93.800	-0.100	-0.700	1.130
2020/01/31 01:44:00.7	93.810	-0.090	-0.680	1.120
2020/01/31 01:44:00.8	93.820	-0.080	-0.650	1.110
2020/01/31 01:44:00.9	93.820	-0.080	-0.620	1.090
2020/01/31 01:44:01.0	93.830	-0.070	-0.580	1.080
2020/01/31 01:44:01.1	93.840	-0.070	-0.550	1.070
2020/01/31 01:44:01.2	93.840	-0.060	-0.510	1.060
2020/01/31 01:44:01.3	93.850	-0.060	-0.470	1.040
2020/01/31 01:44:01.4	93.850	-0.060	-0.440	1.020
2020/01/31 01:44:01.5	93.860	-0.050	-0.400	1.010
2020/01/31 01:44:01.6	93.860	-0.050	-0.370	0.990
2020/01/31 01:44:01.7	93.870	-0.040	-0.330	0.970
2020/01/31 01:44:01.8	93.870	-0.030	-0.300	0.950
2020/01/31 01:44:01.9	93.880	-0.030	-0.260	0.930
2020/01/31 01:44:02.0	93.870	-0.020	-0.230	0.910
2020/01/31 01:44:02.1	93.880	-0.010	-0.200	0.890
2020/01/31 01:44:02.2	93.880	0.010	-0.170	0.870
2020/01/31 01:44:02.3	93.880	0.020	-0.150	0.840
2020/01/31 01:44:02.4	93.890	0.030	-0.130	0.820
2020/01/31 01:44:02.5	93.890	0.050	-0.110	0.800
2020/01/31 01:44:02.6	93.890	0.060	-0.090	0.770
2020/01/31 01:44:02.7	93.900	0.080	-0.080	0.740
2020/01/31 01:44:02.8	93.900	0.100	-0.070	0.710
2020/01/31 01:44:02.9	93.900	0.120	-0.060	0.680
2020/01/31 01:44:03.0	93.910	0.140	-0.050	0.650
2020/01/31 01:44:03.1	93.920	0.160	-0.050	0.620
2020/01/31 01:44:03.2	93.920	0.180	-0.040	0.590
2020/01/31 01:44:03.3	93.930	0.210	-0.040	0.560
2020/01/31 01:44:03.4	93.930	0.230	-0.040	0.530
2020/01/31 01:44:03.5	93.940	0.250	-0.040	0.490
2020/01/31 01:44:03.6	93.950	0.270	-0.040	0.460
2020/01/31 01:44:03.7	93.960	0.290	-0.040	0.430
2020/01/31 01:44:03.8	93.960	0.310	-0.040	0.400
2020/01/31 01:44:03.9	93.970	0.330	-0.040	0.370
2020/01/31 01:44:04.0	93.980	0.340	-0.040	0.350
2020/01/31 01:44:04.1	93.980	0.360	-0.040	0.330
2020/01/31 01:44:04.2	93.990	0.370	-0.040	0.310
2020/01/31 01:44:04.3	93.990	0.380	-0.040	0.290
2020/01/31 01:44:04.4	93.990	0.390	-0.030	0.270
2020/01/31 01:44:04.5	93.990	0.400	-0.030	0.250
2020/01/31 01:44:04.6	94.000	0.400	-0.020	0.240
2020/01/31 01:44:04.7	93.990	0.410	-0.010	0.230
2020/01/31 01:44:04.8	93.990	0.410	-0.000	0.210
2020/01/31 01:44:04.9	93.990	0.410	0.010	0.210
2020/01/31 01:44:05.0	93.980	0.400	0.030	0.200
2020/01/31 01:44:05.1	93.980	0.400	0.040	0.190
2020/01/31 01:44:05.2	93.970	0.390	0.060	0.190
2020/01/31 01:44:05.3	93.970	0.380	0.070	0.180
2020/01/31 01:44:05.4	93.970	0.370	0.090	0.180
2020/01/31 01:44:05.5	93.960	0.360	0.110	0.170
2020/01/31 01:44:05.6	93.960	0.350	0.120	0.170
2020/01/31 01:44:05.7	93.960	0.330	0.140	0.170
2020/01/31 01:44:05.8	93.960	0.310	0.150	0.160
2020/01/31 01:44:05.9	93.950	0.300	0.160	0.160
2020/01/31 01:44:06.0	93.940	0.280	0.180	0.160
2020/01/31 01:44:06.1	93.940	0.260	0.190	0.160
2020/01/31 01:44:06.2	93.940	0.240	0.190	0.150
2020/01/31 01:44:06.3	93.940	0.220	0.200	0.150
2020/01/31 01:44:06.4	93.940	0.200	0.200	0.150
2020/01/31 01:44:06.5	93.950	0.180	0.200	0.150
2020/01/31 01:44:06.6	93.950	0.160	0.200	0.140
2020/01/31 01:44:06.7	93.950	0.150	0.190	0.140
2020/01/31 01:44:06.8	93.950	0.130	0.180	0.140
2020/01/31 01:44:06.9	93.960	0.110	0.170	0.140
2020/01/31 01:44:07.0	93.950	0.100	0.150	0.140
2020/01/31 01:44:07.1	93.960	0.090	0.130	0.140
2020/01/31 01:44:07.2	93.960	0.080	0.110	0.140
2020/01/31 01:44:07.3	93.970	0.070	0.080	0.140
2020/01/31 01:44:07.4	93.970	0.060	0.050	0.150
2020/01/31 01:44:07.5	93.980	0.050	0.020	0.150
2020/01/31 01:44:07.6	93.980	0.050	-0.020	0.160
2020/01/31 01:44:07.7	93.990	0.050	-0.050	0.160
2020/01/31 01:44:07.8	94.000	0.050	-0.090	0.170
2020/01/31 01:44:07.9	94.010	0.050	-0.130	0.180
2020/01/31 01:44:08.0	94.030	0.050	-0.180	0.190
2020/01/31 01:44:08.1	94.040	0.060	-0.220	0.200
2020/01/31 01:44:08.2	94.050	0.060	-0.270	0.210
2020/01/31 01:44:08.3	94.060	0.070	-0.310	0.220
2020/01/31 01:44:08.4	94.070	0.080	-0.350	0.240
2020/01/31 01:44:08.5	94.090	0.090	-0.400	0.250
2020/01/31 01:44:08.6	94.100	0.100	-0.440	0.270
2020/01/31 01:44:08.7	94.120	0.110	-0.480	0.290
2020/01/31 01:44:08.8	94.130	0.120	-0.520	0.310
2020/01/31 01:44:08.9	94.150	0.130	-0.560	0.340
2020/01/31 01:44:09.0	94.170	0.140	-0.600	0.370
2020/01/31 01:44:09.1	94.180	0.150	-0.630	0.400
2020/01/31 01:44:09.2	94.200	0.160	-0.660	0.440
2020/01/31 01:44:09.3	94.220	0.160	-0.690	0.470
2020/01/31 01:44:09.4	94.240	0.170	-0.710	0.510
2020/01/31 01:44:09.5	94.250	0.180	-0.730	0.550
2020/01/31 01:44:09.6	94.270	0.180	-0.750	0.600
2020/01/31 01:44:09.7	94.280	0.180	-0.760	0.640
2020/01/31 01:44:09.8	94.300	0.180	-0.760	0.700
2020/01/31 01:44:09.9	94.310	0.180	-0.770	0.750
2020/01/31 01:44:10.0	94.330	0.170	-0.760	0.800
2020/01/31 01:44:10.1	94.340	0.170	-0.750	0.860
2020/01/31 01:44:10.2	94.360	0.160	-0.740	0.920
2020/01/31 01:44:10.3	94.370	0.140	-0.720	0.980
2020/01/31 01:44:10.4	94.380	0.130	-0.700	1.040
2020/01/31 01:44:10.5	94.390	0.110	-0.670	1.100
2020/01/31 01:44:10.6	94.400	0.090	-0.630	1.160
2020/01/31 01:44:10.7	94.410	0.070	-0.600	1.220
2020/01/31 01:44:10.8	94.420	0.040	-0.550	1.280
2020/01/31 01:44:10.9	94.430	0.010	-0.510	1.340
2020/01/31 01:44:11.0	94.430	-0.010	-0.450	1.400
2020/01/31 01:44:11.1	94.440	-0.050	-0.400	1.460
2020/01/31 01:44:11.2	94.450	-0.080	-0.340	1.520
2020/01/31 01:44:11.3	94.450	-0.110	-0.280	1.570
2020/01/31 01:44:11.4	94.460	-0.150	-0.220	1.620
2020/01/31 01:44:11.5	94.460	-0.190	-0.160	1.670
2020/01/31 01:44:11.6	94.470	-0.220	-0.090	1.720
2020/01/31 01:44:11.7	94.480	-0.260	-0.030	1.760
2020/01/31 01:44:11.8	94.480	-0.300	0.030	1.800
2020/01/31 01:44:11.9	94.490	-0.330	0.090	1.840
2020/01/31 01:44:12.0	94.500	-0.370	0.150	1.870
2020/01/31 01:44:12.1	94.500	-0.400	0.210	1.900
2020/01/31 01:44:12.2	94.510	-0.430	0.270	1.930
2020/01/31 01:44:12.3	94.520	-0.470	0.320	1.950
2020/01/31 01:44:12.4	94.520	-0.490	0.370	1.960
2020/01/31 01:44:12.5	94.530	-0.520	0.420	1.970
2020/01/31 01:44:12.6	94.540	-0.540	0.460	1.980
2020/01/31 01:44:12.7	94.550	-0.570	0.500	1.990
2020/01/31 01:44:12.8	94.560	-0.580	0.530	1.990
2020/01/31 01:44:12.9	94.570	-0.600	0.560	1.990
2020/01/31 01:44:13.0	94.590	-0.610	0.590	1.980
2020/01/31 01:44:13.1	94.600	-0.620	0.610	1.980
2020/01/31 01:44:13.2	94.610	-0.630	0.630	1.970
2020/01/31 01:44:13.3	94.610	-0.630	0.640	1.960
2020/01/31 01:44:13.4	94.620	-0.630	0.640	1.950
2020/01/31 01:44:13.5	94.630	-0.620	0.640	1.930
2020/01/31 01:44:13.6	94.640	-0.610	0.640	1.920
2020/01/31 01:44:13.7	94.650	-0.600	0.630	1.900
2020/01/31 01:44:13.8	94.660	-0.590	0.610	1.880
2020/01/31 01:44:13.9	94.660	-0.570	0.600	1.860
2020/01/31 01:44:14.0	94.670	-0.550	0.570	1.850
2020/01/31 01:44:14.1	94.680	-0.530	0.550	1.830
2020/01/31 01:44:14.2	94.680	-0.510	0.520	1.800
2020/01/31 01:44:14.3	94.690	-0.480	0.490	1.780
2020/01/31 01:44:14.4	94.690	-0.450	0.450	1.760
2020/01/31 01:44:14.5	94.690	-0.430	0.410	1.730
2020/01/31 01:44:14.6	94.700	-0.400	0.380	1.700
2020/01/31 01:44:14.7	94.700	-0.370	0.330	1.670
2020/01/31 01:44:14.8	94.700	-0.340	0.290	1.640
2020/01/31 01:44:14.9	94.700	-0.310	0.250	1.610
2020/01/31 01:44:15.0	94.710	-0.270	0.200	1.580
2020/01/31 01:44:15.1	94.710	-0.240	0.160	1.540
2020/01/31 01:44:15.2	94.710	-0.210	0.110	1.500
2020/01/31 01:44:15.3	94.700	-0.180	0.060	1.460
2020/01/31 01:44:15.4	94.700	-0.150	0.010	1.420
2020/01/31 01:44:15.5	94.700	-0.130	-0.040	1.370
2020/01/31 01:44:15.6	94.700	-0.100	-0.080	1.320
2020/01/31 01:44:15.7	94.700	-0.070	-0.130	1.270
2020/01/31 01:44:15.8	94.700	-0.050	-0.180	1.220
2020/01/31 01:44:15.9	94.690	-0.020	-0.230	1.170
2020/01/31 01:44:16.0	94.670	-0.000	-0.270	1.120
2020/01/31 01:44:16.1	94.670	0.020	-0.320	1.060
2020/01/31 01:44:16.2	94.670	0.040	-0.360	1.010
2020/01/31 01:44:16.3	94.660	0.060	-0.400	0.950
2020/01/31 01:44:16.4	94.660	0.070	-0.450	0.890
2020/01/31 01:44:16.5	94.650	0.090	-0.490	0.830
2020/01/31 01:44:16.6	94.640	0.110	-0.530	0.770
2020/01/31 01:44:16.7	94.640	0.120	-0.570	0.710
2020/01/31 01:44:16.8	94.630	0.130	-0.600	0.650
2020/01/31 01:44:16.9	94.620	0.150	-0.640	0.590
2020/01/31 01:44:17.0	94.620	0.160	-0.670	0.520
2020/01/31 01:44:17.1	94.610	0.170	-0.700	0.460
2020/01/31 01:44:17.2	94.610	0.180	-0.730	0.400
2020/01/31 01:44:17.3	94.600	0.200	-0.760	0.340
2020/01/31 01:44:17.4	94.590	0.210	-0.780	0.290
2020/01/31 01:44:17.5	94.580	0.220	-0.810	0.230
2020/01/31 01:44:17.6	94.580	0.230	-0.830	0.180
2020/01/31 01:44:17.7	94.570	0.240	-0.850	0.120
2020/01/31 01:44:17.8	94.560	0.260	-0.860	0.070
2020/01/31 01:44:17.9	94.550	0.270	-0.870	0.020
2020/01/31 01:44:18.0	94.560	0.280	-0.880	-0.020
2020/01/31 01:44:18.1	94.560	0.300	-0.890	-0.060
2020/01/31 01:44:18.2	94.550	0.310	-0.890	-0.100
2020/01/31 01:44:18.3	94.540	0.320	-0.890	-0.140
2020/01/31 01:44:18.4	94.540	0.340	-0.890	-0.180
2020/01/31 01:44:18.5	94.530	0.350	-0.890	-0.210
2020/01/31 01:44:18.6	94.520	0.360	-0.880	-0.240
2020/01/31 01:44:18.7	94.520	0.380	-0.870	-0.270
2020/01/31 01:44:18.8	94.520	0.390	-0.860	-0.300
2020/01/31 01:44:18.9	94.510	0.400	-0.850	-0.320
2020/01/31 01:44:19.0	94.510	0.420	-0.830	-0.340
2020/01/31 01:44:19.1	94.510	0.430	-0.810	-0.360
2020/01/31 01:44:19.2	94.510	0.440	-0.790	-0.380
2020/01/31 01:44:19.3	94.510	0.450	-0.770	-0.390
2020/01/31 01:44:19.4	94.520	0.460	-0.750	-0.400
2020/01/31 01:44:19.5	94.520	0.470	-0.720	-0.410
2020/01/31 01:44:19.6	94.530	0.480	-0.690	-0.420
2020/01/31 01:44:19.7	94.540	0.480	-0.660	-0.430
2020/01/31 01:44:19.8	94.550	0.490	-0.630	-0.430
2020/01/31 01:44:19.9	94.560	0.490	-0.600	-0.440
2020/01/31 01:44:20.0	94.560	0.490	-0.560	-0.430
2020/01/31 01:44:20.1	94.580	0.490	-0.520	-0.430
2020/01/31 01:44:20.2	94.590	0.490	-0.480	-0.430
2020/01/31 01:44:20.3	94.610	0.480	-0.440	-0.430
2020/01/31 01:44:20.4	94.630	0.470	-0.390	-0.420
2020/01/31 01:44:20.5	94.640	0.460	-0.350	-0.410
2020/01/31 01:44:20.6	94.660	0.450	-0.300	-0.400
2020/01/31 01:44:20.7	94.680	0.440	-0.250	-0.390
2020/01/31 01:44:20.8	94.700	0.420	-0.200	-0.380
2020/01/31 01:44:20.9	94.720	0.400	-0.150	-0.360
2020/01/31 01:44:21.0	94.740	0.380	-0.090	-0.340
2020/01/31 01:44:21.1	94.760	0.350	-0.040	-0.320
2020/01/31 01:44:21.2	94.780	0.330	0.020	-0.290
2020/01/31 01:44:21.3	94.790	0.300	0.070	-0.260
2020/01/31 01:44:21.4	94.810	0.270	0.130	-0.230
2020/01/31 01:44:21.5	94.830	0.240	0.190	-0.200
2020/01/31 01:44:21.6	94.850	0.210	0.240	-0.160
2020/01/31 01:44:21.7	94.860	0.180	0.300	-0.120
2020/01/31 01:44:21.8	94.880	0.150	0.350	-0.070
2020/01/31 01:44:21.9	94.890	0.110	0.400	-0.030
2020/01/31 01:44:22.0	94.910	0.080	0.450	0.030
2020/01/31 01:44:22.1	94.920	0.040	0.500	0.080
2020/01/31 01:44:22.2	94.940	0.010	0.540	0.130
2020/01/31 01:44:22.3	94.950	-0.030	0.580	0.190
2020/01/31 01:44:22.4	94.960	-0.060	0.610	0.250
2020/01/31 01:44:22.5	94.980	-0.090	0.640	0.310
2020/01/31 01:44:22.6	94.990	-0.130	0.670	0.370
2020/01/31 01:44:22.7	95.000	-0.160	0.690	0.440
2020/01/31 01:44:22.8	95.010	-0.190	0.710	0.500
2020/01/31 01:44:22.9	95.020	-0.210	0.720	0.570
2020/01/31 01:44:23.0	95.050	-0.240	0.720	0.630
2020/01/31 01:44:23.1	95.060	-0.260	0.720	0.700
2020/01/31 01:44:23.2	95.070	-0.290	0.720	0.770
2020/01/31 01:44:23.3	95.080	-0.310	0.700	0.840
2020/01/31 01:44:23.4	95.090	-0.320	0.690	0.910
2020/01/31 01:44:23.5	95.100	-0.340	0.660	0.980
2020/01/31 01:44:23.6	95.100	-0.350	0.630	1.050
2020/01/31 01:44:23.7	95.110	-0.360	0.600	1.120
2020/01/31 01:44:23.8	95.110	-0.370	0.560	1.190
2020/01/31 01:44:23.9	95.120	-0.380	0.520	1.260
2020/01/31 01:44:24.0	95.120	-0.380	0.470	1.330
2020/01/31 01:44:24.1	95.120	-0.380	0.430	1.400
2020/01/31 01:44:24.2	95.120	-0.380	0.380	1.470
2020/01/31 01:44:24.3	95.120	-0.380	0.320	1.530
2020/01/31 01:44:24.4	95.120	-0.380	0.270	1.600
2020/01/31 01:44:24.5	95.110	-0.370	0.210	1.660
2020/01/31 01:44:24.6	95.110	-0.360	0.160	1.720
2020/01/31 01:44:24.7	95.110	-0.350	0.100	1.780
2020/01/31 01:44:24.8	95.100	-0.340	0.040	1.840
2020/01/31 01:44:24.9	95.100	-0.330	-0.010	1.890
2020/01/31 01:44:25.0	95.100	-0.320	-0.060	1.940
2020/01/31 01:44:25.1	95.100	-0.300	-0.120	1.990
2020/01/31 01:44:25.2	95.090	-0.290	-0.170	2.030
2020/01/31 01:44:25.3	95.090	-0.270	-0.220	2.070
2020/01/31 01:44:25.4	95.080	-0.260	-0.270	2.110
2020/01/31 01:44:25.5	95.080	-0.240	-0.310	2.140
2020/01/31 01:44:25.6	95.080	-0.220	-0.360	2.180
2020/01/31 01:44:25.7	95.070	-0.210	-0.400	2.200
2020/01/31 01:44:25.8	95.070	-0.190	-0.430	2.230
2020/01/31 01:44:25.9	95.070	-0.170	-0.470	2.250
2020/01/31 01:44:26.0	95.070	-0.160	-0.500	2.270
2020/01/31 01:44:26.1	95.070	-0.140	-0.530	2.280
2020/01/31 01:44:26.2	95.060	-0.130	-0.550	2.290
2020/01/31 01:44:26.3	95.060	-0.110	-0.570	2.300
2020/01/31 01:44:26.4	95.060	-0.100	-0.590	2.310
2020/01/31 01:44:26.5	95.060	-0.080	-0.600	2.310
2020/01/31 01:44:26.6	95.050	-0.070	-0.610	2.320
2020/01/31 01:44:26.7	95.050	-0.050	-0.620	2.320
2020/01/31 01:44:26.8	95.050	-0.040	-0.630	2.310
2020/01/31 01:44:26.9	95.040	-0.030	-0.630	2.310
2020/01/31 01:44:27.0	95.040	-0.020	-0.630	2.300
2020/01/31 01:44:27.1	95.040	-0.010	-0.630	2.290
2020/01/31 01:44:27.2	95.040	0.000	-0.630	2.280
2020/01/31 01:44:27.3	95.040	0.010	-0.620	2.260
2020/01/31 01:44:27.4	95.040	0.020	-0.620	2.240
2020/01/31 01:44:27.5	95.040	0.030	-0.610	2.220
2020/01/31 01:44:27.6	95.040	0.030	-0.600	2.200
2020/01/31 01:44:27.7	95.040	0.040	-0.600	2.180
2020/01/31 01:44:27.8	95.040	0.040	-0.590	2.150
2020/01/31 01:44:27.9	95.050	0.050	-0.580	2.120
2020/01/31 01:44:28.0	95.060	0.050	-0.570	2.090
2020/01/31 01:44:28.1	95.070	0.060	-0.560	2.050
2020/01/31 01:44:28.2	95.080	0.060	-0.550	2.010
2020/01/31 01:44:28.3	95.080	0.060	-0.530	1.970
2020/01/31 01:44:28.4	95.090	0.060	-0.520	1.920
2020/01/31 01:44:28.5	95.100	0.060	-0.510	1.870
2020/01/31 01:44:28.6	95.110	0.060	-0.490	1.820
2020/01/31 01:44:28.7	95.120	0.060	-0.480	1.770
2020/01/31 01:44:28.8	95.140	0.060	-0.460	1.710
2020/01/31 01:44:28.9	95.150	0.060	-0.450	1.650
2020/01/31 01:44:29.0	95.170	0.060	-0.430	1.590
2020/01/31 01:44:29.1	95.180	0.050	-0.410	1.520
2020/01/31 01:44:29.2	95.190	0.050	-0.390	1.450
2020/01/31 01:44:29.3	95.200	0.050	-0.380	1.380
2020/01/31 01:44:29.4	95.220	0.040	-0.360	1.310
2020/01/31 01:44:29.5	95.230	0.040	-0.340	1.240
2020/01/31 01:44:29.6	95.240	0.030	-0.320	1.170
2020/01/31 01:44:29.7	95.260	0.030	-0.300	1.100
2020/01/31 01:44:29.8	95.270	0.020	-0.280	1.030
2020/01/31 01:44:29.9	95.280	0.020	-0.260	0.960
2020/01/31 01:44:30.0	95.280	0.010	-0.230	0.890
2020/01/31 01:44:30.1	95.290	0.000	-0.210	0.820
2020/01/31 01:44:30.2	95.300	-0.000	-0.190	0.750
2020/01/31 01:44:30.3	95.310	-0.010	-0.170	0.690
2020/01/31 01:44:30.4	95.320	-0.010	-0.150	0.620
2020/01/31 01:44:30.5	95.330	-0.020	-0.130	0.560
2020/01/31 01:44:30.6	95.330	-0.020	-0.110	0.500
2020/01/31 01:44:30.7	95.340	-0.020	-0.090	0.450
2020/01/31 01:44:30.8	95.340	-0.020	-0.070	0.390
2020/01/31 01:44:30.9	95.340	-0.030	-0.060	0.340
2020/01/31 01:44:31.0	95.350	-0.030	-0.040	0.300
2020/01/31 01:44:31.1	95.350	-0.030	-0.020	0.250
2020/01/31 01:44:31.2	95.350	-0.030	-0.000	0.210
2020/01/31 01:44:31.3	95.340	-0.020	0.010	0.170
2020/01/31 01:44:31.4	95.340	-0.020	0.030	0.130
2020/01/31 01:44:31.5	95.330	-0.020	0.040	0.090
2020/01/31 01:44:31.6	95.320	-0.020	0.060	0.060
2020/01/31 01:44:31.7	95.310	-0.010	0.070	0.020
2020/01/31 01:44:31.8	95.300	-0.010	0.090	-0.010
2020/01/31 01:44:31.9	95.290	-0.010	0.100	-0.040
2020/01/31 01:44:32.0	95.270	-0.000	0.110	-0.070
2020/01/31 01:44:32.1	95.260	0.000	0.130	-0.090
2020/01/31 01:44:32.2	95.250	0.000	0.140	-0.120
2020/01/31 01:44:32.3	95.240	0.010	0.150	-0.140
2020/01/31 01:44:32.4	95.230	0.010	0.160	-0.160
2020/01/31 01:44:32.5	95.220	0.010	0.170	-0.190
2020/01/31 01:44:32.6	95.210	0.020	0.190	-0.200
2020/01/31 01:44:32.7	95.200	0.020	0.200	-0.220
2020/01/31 01:44:32.8	95.190	0.020	0.210	-0.240
2020/01/31 01:44:32.9	95.180	0.020	0.210	-0.250
2020/01/31 01:44:33.0	95.170	0.020	0.220	-0.260
2020/01/31 01:44:33.1	95.160	0.020	0.230	-0.270
2020/01/31 01:44:33.2	95.160	0.020	0.230	-0.280
2020/01/31 01:44:33.3	95.150	0.020	0.230	-0.290
2020/01/31 01:44:33.4	95.140	0.020	0.230	-0.300
2020/01/31 01:44:33.5	95.140	0.020	0.230	-0.300
2020/01/31 01:44:33.6	95.130	0.020	0.220	-0.310
2020/01/31 01:44:33.7	95.130	0.020	0.210	-0.310
2020/01/31 01:44:33.8	95.120	0.020	0.200	-0.310
2020/01/31 01:44:33.9	95.120	0.020	0.180	-0.310
2020/01/31 01:44:34.0	95.120	0.020	0.170	-0.300
2020/01/31 01:44:34.1	95.120	0.020	0.150	-0.300
2020/01/31 01:44:34.2	95.130	0.030	0.120	-0.300
2020/01/31 01:44:34.3	95.130	0.030	0.090	-0.290
2020/01/31 01:44:34.4	95.140	0.030	0.060	-0.290
2020/01/31 01:44:34.5	95.150	0.040	0.020	-0.290
2020/01/31 01:44:34.6	95.160	0.040	-0.020	-0.280
2020/01/31 01:44:34.7	95.170	0.050	-0.060	-0.280
2020/01/31 01:44:34.8	95.180	0.060	-0.100	-0.270
2020/01/31 01:44:34.9	95.200	0.070	-0.150	-0.260
2020/01/31 01:44:35.0	95.220	0.080	-0.200	-0.250
2020/01/31 01:44:35.1	95.240	0.090	-0.240	-0.240
2020/01/31 01:44:35.2	95.260	0.100	-0.290	-0.230
2020/01/31 01:44:35.3	95.280	0.110	-0.340	-0.210
2020/01/31 01:44:35.4	95.300	0.120	-0.390	-0.190
2020/01/31 01:44:35.5	95.320	0.140	-0.430	-0.170
2020/01/31 01:44:35.6	95.340	0.150	-0.470	-0.150
2020/01/31 01:44:35.7	95.360	0.160	-0.510	-0.120
2020/01/31 01:44:35.8	95.380	0.170	-0.550	-0.090
2020/01/31 01:44:35.9	95.400	0.180	-0.580	-0.050
2020/01/31 01:44:36.0	95.420	0.190	-0.610	-0.010
2020/01/31 01:44:36.1	95.430	0.200	-0.630	0.030
2020/01/31 01:44:36.2	95.450	0.210	-0.650	0.080
2020/01/31 01:44:36.3	95.460	0.210	-0.660	0.130
2020/01/31 01:44:36.4	95.470	0.210	-0.670	0.180
2020/01/31 01:44:36.5	95.480	0.210	-0.670	0.240
2020/01/31 01:44:36.6	95.490	0.210	-0.660	0.290
2020/01/31 01:44:36.7	95.490	0.200	-0.650	0.350
2020/01/31 01:44:36.8	95.500	0.200	-0.630	0.410
2020/01/31 01:44:36.9	95.500	0.190	-0.600	0.470
2020/01/31 01:44:37.0	95.480	0.170	-0.570	0.540
2020/01/31 01:44:37.1	95.480	0.160	-0.540	0.600
2020/01/31 01:44:37.2	95.480	0.140	-0.490	0.670
2020/01/31 01:44:37.3	95.470	0.120	-0.440	0.730
2020/01/31 01:44:37.4	95.470	0.090	-0.390	0.800
2020/01/31 01:44:37.5	95.460	0.060	-0.340	0.860
2020/01/31 01:44:37.6	95.450	0.030	-0.280	0.930
2020/01/31 01:44:37.7	95.450	0.000	-0.220	1.000
2020/01/31 01:44:37.8	95.440	-0.030	-0.150	1.060
2020/01/31 01:44:37.9	95.430	-0.070	-0.090	1.130
2020/01/31 01:44:38.0	95.430	-0.100	-0.030	1.190
2020/01/31 01:44:38.1	95.430	-0.140	0.040	1.260
2020/01/31 01:44:38.2	95.420	-0.180	0.100	1.320
2020/01/31 01:44:38.3	95.410	-0.220	0.160	1.380
2020/01/31 01:44:38.4	95.400	-0.250	0.210	1.440
2020/01/31 01:44:38.5	95.400	-0.290	0.260	1.500
2020/01/31 01:44:38.6	95.390	-0.320	0.310	1.560
2020/01/31 01:44:38.7	95.380	-0.360	0.350	1.610
2020/01/31 01:44:38.8	95.380	-0.390	0.380	1.670
2020/01/31 01:44:38.9	95.370	-0.420	0.410	1.720
2020/01/31 01:44:39.0	95.380	-0.440	0.430	1.780
2020/01/31 01:44:39.1	95.370	-0.460	0.450	1.830
2020/01/31 01:44:39.2	95.370	-0.480	0.450	1.880
2020/01/31 01:44:39.3	95.360	-0.500	0.450	1.930
2020/01/31 01:44:39.4	95.360	-0.510	0.440	1.980
2020/01/31 01:44:39.5	95.350	-0.510	0.430	2.020
2020/01/31 01:44:39.6	95.350	-0.520	0.400	2.070
2020/01/31 01:44:39.7	95.350	-0.510	0.370	2.110
2020/01/31 01:44:39.8	95.350	-0.510	0.340	2.140
2020/01/31 01:44:39.9	95.340	-0.500	0.300	2.180
2020/01/31 01:44:40.0	95.350	-0.480	0.250	2.210
2020/01/31 01:44:40.1	95.350	-0.460	0.190	2.240
2020/01/31 01:44:40.2	95.350	-0.440	0.130	2.260
2020/01/31 01:44:40.3	95.350	-0.410	0.070	2.280
2020/01/31 01:44:40.4	95.360	-0.380	0.010	2.290
2020/01/31 01:44:40.5	95.360	-0.340	-0.060	2.300
2020/01/31 01:44:40.6	95.360	-0.310	-0.130	2.310
2020/01/31 01:44:40.7	95.370	-0.270	-0.200	2.310
2020/01/31 01:44:40.8	95.380	-0.230	-0.270	2.310
2020/01/31 01:44:40.9	95.380	-0.180	-0.330	2.310
2020/01/31 01:44:41.0	95.390	-0.140	-0.400	2.300
2020/01/31 01:44:41.1	95.400	-0.090	-0.470	2.280
2020/01/31 01:44:41.2	95.410	-0.040	-0.530	2.270
2020/01/31 01:44:41.3	95.410	0.000	-0.590	2.240
2020/01/31 01:44:41.4	95.420	0.050	-0.640	2.220
2020/01/31 01:44:41.5	95.420	0.100	-0.690	2.190
2020/01/31 01:44:41.6	95.420	0.140	-0.730	2.160
2020/01/31 01:44:41.7	95.430	0.180	-0.760	2.130
2020/01/31 01:44:41.8	95.430	0.220	-0.790	2.090
2020/01/31 01:44:41.9	95.430	0.260	-0.820	2.050
2020/01/31 01:44:42.0	95.420	0.300	-0.830	2.010
2020/01/31 01:44:42.1	95.420	0.330	-0.840	1.970
2020/01/31 01:44:42.2	95.410	0.360	-0.840	1.930
2020/01/31 01:44:42.3	95.410	0.390	-0.840	1.880
2020/01/31 01:44:42.4	95.400	0.420	-0.820	1.830
2020/01/31 01:44:42.5	95.390	0.440	-0.810	1.790
2020/01/31 01:44:42.6	95.380	0.450	-0.780	1.740
2020/01/31 01:44:42.7	95.370	0.470	-0.750	1.680
2020/01/31 01:44:42.8	95.360	0.480	-0.720	1.630
2020/01/31 01:44:42.9	95.350	0.480	-0.680	1.580
2020/01/31 01:44:43.0	95.350	0.480	-0.630	1.520
2020/01/31 01:44:43.1	95.340	0.480	-0.580	1.470
2020/01/31 01:44:43.2	95.320	0.480	-0.530	1.410
2020/01/31 01:44:43.3	95.310	0.470	-0.480	1.350
2020/01/31 01:44:43.4	95.300	0.460	-0.430	1.290
2020/01/31 01:44:43.5	95.290	0.450	-0.370	1.240
2020/01/31 01:44:43.6	95.280	0.430	-0.320	1.180
2020/01/31 01:44:43.7	95.270	0.410	-0.260	1.120
2020/01/31 01:44:43.8	95.250	0.390	-0.200	1.060
2020/01/31 01:44:43.9	95.240	0.370	-0.150	1.000
2020/01/31 01:44:44.0	95.210	0.350	-0.100	0.940
2020/01/31 01:44:44.1	95.210	0.320	-0.050	0.880
2020/01/31 01:44:44.2	95.200	0.290	0.000	0.820
2020/01/31 01:44:44.3	95.190	0.270	0.050	0.760
2020/01/31 01:44:44.4	95.180	0.240	0.090	0.710
2020/01/31 01:44:44.5	95.180	0.210	0.120	0.650
2020/01/31 01:44:44.6	95.180	0.190	0.150	0.590
2020/01/31 01:44:44.7	95.180	0.160	0.180	0.540
2020/01/31 01:44:44.8	95.170	0.140	0.200	0.480
2020/01/31 01:44:44.9	95.180	0.110	0.220	0.430
2020/01/31 01:44:45.0	95.170	0.090	0.240	0.370
2020/01/31 01:44:45.1	95.170	0.070	0.250	0.320
2020/01/31 01:44:45.2	95.180	0.050	0.250	0.270
2020/01/31 01:44:45.3	95.180	0.030	0.250	0.220
2020/01/31 01:44:45.4	95.190	0.010	0.240	0.180
2020/01/31 01:44:45.5	95.200	-0.010	0.230	0.130
2020/01/31 01:44:45.6	95.210	-0.030	0.220	0.090
2020/01/31 01:44:45.7	95.210	-0.040	0.200	0.040
2020/01/31 01:44:45.8	95.220	-0.050	0.180	0.000
2020/01/31 01:44:45.9	95.230	-0.070	0.160	-0.030
2020/01/31 01:44:46.0	95.230	-0.080	0.140	-0.060
2020/01/31 01:44:46.1	95.240	-0.090	0.110	-0.100
2020/01/31 01:44:46.2	95.250	-0.100	0.090	-0.130
2020/01/31 01:44:46.3	95.250	-0.110	0.070	-0.160
2020/01/31 01:44:46.4	95.260	-0.120	0.040	-0.190
2020/01/31 01:44:46.5	95.260	-0.130	0.020	-0.220
2020/01/31 01:44:46.6	95.270	-0.130	-0.000	-0.240
2020/01/31 01:44:46.7	95.270	-0.140	-0.020	-0.260
2020/01/31 01:44:46.8	95.270	-0.150	-0.040	-0.290
2020/01/31 01:44:46.9	95.270	-0.160	-0.050	-0.310
2020/01/31 01:44:47.0	95.280	-0.170	-0.060	-0.320
2020/01/31 01:44:47.1	95.280	-0.170	-0.070	-0.340
2020/01/31 01:44:47.2	95.270	-0.180	-0.080	-0.360
2020/01/31 01:44:47.3	95.270	-0.190	-0.080	-0.370
2020/01/31 01:44:47.4	95.270	-0.200	-0.080	-0.380
2020/01/31 01:44:47.5	95.260	-0.210	-0.080	-0.390
2020/01/31 01:44:47.6	95.250	-0.220	-0.080	-0.400
2020/01/31 01:44:47.7	95.250	-0.230	-0.070	-0.400
2020/01/31 01:44:47.8	95.240	-0.240	-0.060	-0.400
2020/01/31 01:44:47.9	95.230	-0.240	-0.050	-0.400
2020/01/31 01:44:48.0	95.220	-0.250	-0.040	-0.390
2020/01/31 01:44:48.1	95.200	-0.260	-0.030	-0.390
2020/01/31 01:44:48.2	95.190	-0.270	-0.020	-0.380
2020/01/31 01:44:48.3	95.180	-0.280	-0.000	-0.370
2020/01/31 01:44:48.4	95.160	-0.290	0.010	-0.350
2020/01/31 01:44:48.5	95.150	-0.290	0.020	-0.330
2020/01/31 01:44:48.6	95.130	-0.300	0.030	-0.310
2020/01/31 01:44:48.7	95.120	-0.310	0.040	-0.290
2020/01/31 01:44:48.8	95.100	-0.310	0.050	-0.260
2020/01/31 01:44:48.9	95.080	-0.310	0.060	-0.230
2020/01/31 01:44:49.0	95.060	-0.310	0.060	-0.190
2020/01/31 01:44:49.1	95.050	-0.310	0.060	-0.160
2020/01/31 01:44:49.2	95.030	-0.310	0.060	-0.120
2020/01/31 01:44:49.3	95.020	-0.310	0.050	-0.070
2020/01/31 01:44:49.4	95.000	-0.310	0.050	-0.030
2020/01/31 01:44:49.5	94.990	-0.300	0.030	0.020
2020/01/31 01:44:49.6	94.980	-0.290	0.020	0.070
2020/01/31 01:44:49.7	94.970	-0.280	-0.000	0.120
2020/01/31 01:44:49.8	94.970	-0.270	-0.020	0.180
2020/01/31 01:44:49.9	94.960	-0.260	-0.050	0.230
2020/01/31 01:44:50.0	94.950	-0.240	-0.080	0.290
2020/01/31 01:44:50.1	94.950	-0.230	-0.110	0.350
2020/01/31 01:44:50.2	94.950	-0.210	-0.140	0.410
2020/01/31 01:44:50.3	94.950	-0.190	-0.170	0.470
2020/01/31 01:44:50.4	94.960	-0.170	-0.200	0.530
2020/01/31 01:44:50.5	94.970	-0.150	-0.240	0.580
2020/01/31 01:44:50.6	94.980	-0.130	-0.280	0.640
2020/01/31 01:44:50.7	94.990	-0.100	-0.310	0.700
2020/01/31 01:44:50.8	95.000	-0.080	-0.350	0.750
2020/01/31 01:44:50.9	95.010	-0.060	-0.380	0.810
2020/01/31 01:44:51.0	95.030	-0.030	-0.410	0.860
2020/01/31 01:44:51.1	95.050	-0.010	-0.440	0.910
2020/01/31 01:44:51.2	95.070	0.010	-0.470	0.960
2020/01/31 01:44:51.3	95.080	0.040	-0.500	1.010
2020/01/31 01:44:51.4	95.100	0.060	-0.520	1.050
2020/01/31 01:44:51.5	95.120	0.080	-0.540	1.100
2020/01/31 01:44:51.6	95.140	0.100	-0.560	1.140
2020/01/31 01:44:51.7	95.160	0.120	-0.580	1.180
2020/01/31 01:44:51.8	95.180	0.140	-0.590	1.210
2020/01/31 01:44:51.9	95.200	0.160	-0.600	1.250
2020/01/31 01:44:52.0	95.250	0.170	-0.610	1.280
2020/01/31 01:44:52.1	95.270	0.190	-0.610	1.310
2020/01/31 01:44:52.2	95.290	0.200	-0.610	1.340
2020/01/31 01:44:52.3	95.310	0.210	-0.610	1.360
2020/01/31 01:44:52.4	95.330	0.220	-0.600	1.380
2020/01/31 01:44:52.5	95.340	0.230	-0.590	1.400
2020/01/31 01:44:52.6	95.360	0.240	-0.570	1.420
2020/01/31 01:44:52.7	95.370	0.240	-0.550	1.440
2020/01/31 01:44:52.8	95.380	0.250	-0.530	1.460
2020/01/31 01:44:52.9	95.390	0.250	-0.500	1.480
2020/01/31 01:44:53.0	95.400	0.250	-0.470	1.490
2020/01/31 01:44:53.1	95.410	0.250	-0.440	1.510
2020/01/31 01:44:53.2	95.410	0.240	-0.400	1.520
2020/01/31 01:44:53.3	95.410	0.240	-0.360	1.540
2020/01/31 01:44:53.4	95.410	0.230	-0.320	1.560
2020/01/31 01:44:53.5	95.400	0.230	-0.280	1.570
2020/01/31 01:44:53.6	95.390	0.220	-0.240	1.590
2020/01/31 01:44:53.7	95.380	0.210	-0.200	1.610
2020/01/31 01:44:53.8	95.370	0.200	-0.160	1.630
2020/01/31 01:44:53.9	95.350	0.190	-0.110	1.650
2020/01/31 01:44:54.0	95.340	0.180	-0.070	1.680
2020/01/31 01:44:54.1	95.320	0.170	-0.030	1.700
2020/01/31 01:44:54.2	95.290	0.160	0.010	1.720
2020/01/31 01:44:54.3	95.270	0.150	0.050	1.740
2020/01/31 01:44:54.4	95.240	0.130	0.080	1.770
2020/01/31 01:44:54.5	95.220	0.120	0.110	1.790
2020/01/31 01:44:54.6	95.190	0.110	0.140	1.810
2020/01/31 01:44:54.7	95.160	0.100	0.170	1.830
2020/01/31 01:44:54.8	95.130	0.090	0.190	1.840
2020/01/31 01:44:54.9	95.100	0.080	0.210	1.860
2020/01/31 01:44:55.0	95.080	0.070	0.230	1.870
2020/01/31 01:44:55.1	95.060	0.060	0.240	1.880
2020/01/31 01:44:55.2	95.030	0.050	0.240	1.890
2020/01/31 01:44:55.3	95.000	0.040	0.250	1.890
2020/01/31 01:44:55.4	94.970	0.030	0.250	1.890
2020/01/31 01:44:55.5	94.940	0.030	0.240	1.890
2020/01/31 01:44:55.6	94.920	0.020	0.230	1.890
2020/01/31 01:44:55.7	94.890	0.020	0.220	1.880
2020/01/31 01:44:55.8	94.870	0.010	0.200	1.870
2020/01/31 01:44:55.9	94.840	0.010	0.190	1.860
2020/01/31 01:44:56.0	94.820	0.010	0.160	1.850
2020/01/31 01:44:56.1	94.800	0.000	0.140	1.830
2020/01/31 01:44:56.2	94.790	0.000	0.110	1.810
2020/01/31 01:44:56.3	94.770	0.000	0.090	1.790
2020/01/31 01:44:56.4	94.750	0.000	0.060	1.760
2020/01/31 01:44:56.5	94.740	0.000	0.030	1.730
2020/01/31 01:44:56.6	94.730	0.000	-0.000	1.700
2020/01/31 01:44:56.7	94.720	0.000	-0.030	1.660
2020/01/31 01:44:56.8	94.710	0.000	-0.060	1.630
2020/01/31 01:44:56.9	94.710	0.000	-0.090	1.590
2020/01/31 01:44:57.0	94.690	0.010	-0.120	1.540
2020/01/31 01:44:57.1	94.690	0.010	-0.150	1.500
2020/01/31 01:44:57.2	94.690	0.010	-0.180	1.450
2020/01/31 01:44:57.3	94.690	0.010	-0.210	1.400
2020/01/31 01:44:57.4	94.690	0.010	-0.230	1.350
2020/01/31 01:44:57.5	94.700	0.010	-0.260	1.300
2020/01/31 01:44:57.6	94.700	0.010	-0.280	1.250
2020/01/31 01:44:57.7	94.710	0.010	-0.300	1.190
2020/01/31 01:44:57.8	94.720	0.010	-0.320	1.130
2020/01/31 01:44:57.9	94.730	0.020	-0.340	1.080
2020/01/31 01:44:58.0	94.740	0.020	-0.350	1.020
2020/01/31 01:44:58.1	94.740	0.020	-0.360	0.950
2020/01/31 01:44:58.2	94.750	0.020	-0.380	0.890
2020/01/31 01:44:58.3	94.760	0.020	-0.390	0.830
2020/01/31 01:44:58.4	94.770	0.020	-0.390	0.770
2020/01/31 01:44:58.5	94.780	0.020	-0.400	0.700
2020/01/31 01:44:58.6	94.790	0.020	-0.410	0.640
2020/01/31 01:44:58.7	94.790	0.020	-0.410	0.570
2020/01/31 01:44:58.8	94.800	0.020	-0.410	0.500
2020/01/31 01:44:58.9	94.810	0.020	-0.410	0.440
2020/01/31 01:44:59.0	94.820	0.020	-0.410	0.370
2020/01/31 01:44:59.1	94.820	0.020	-0.410	0.310
2020/01/31 01:44:59.2	94.830	0.020	-0.410	0.240
2020/01/31 01:44:59.3	94.830	0.020	-0.400	0.180
2020/01/31 01:44:59.4	94.840	0.020	-0.400	0.110
2020/01/31 01:44:59.5	94.840	0.020	-0.390	0.050
2020/01/31 01:44:59.6	94.850	0.020	-0.390	-0.010
2020/01/31 01:44:59.7	94.850	0.020	-0.380	-0.070
2020/01/31 01:44:59.8	94.860	0.020	-0.370	-0.120
2020/01/31 01:44:59.9	94.860	0.030	-0.360	-0.180
2020/01/31 01:45:00.0	94.860	0.030	-0.350	-0.230
2020/01/31 01:45:00.1	94.860	0.030	-0.340	-0.280
2020/01/31 01:45:00.2	94.870	0.030	-0.330	-0.320
2020/01/31 01:45:00.3	94.870	0.030	-0.320	-0.360
2020/01/31 01:45:00.4	94.870	0.030	-0.310	-0.390
2020/01/31 01:45:00.5	94.880	0.040	-0.300	-0.420
2020/01/31 01:45:00.6	94.880	0.040	-0.300	-0.440
2020/01/31 01:45:00.7	94.880	0.040	-0.290	-0.460
2020/01/31 01:45:00.8	94.880	0.040	-0.280	-0.470
2020/01/31 01:45:00.9	94.880	0.040	-0.270	-0.470
2020/01/31 01:45:01.0	94.860	0.040	-0.260	-0.460
2020/01/31 01:45:01.1	94.860	0.040	-0.250	-0.460
2020/01/31 01:45:01.2	94.850	0.040	-0.250	-0.440
2020/01/31 01:45:01.3	94.840	0.030	-0.240	-0.420
2020/01/31 01:45:01.4	94.840	0.030	-0.230	-0.400
2020/01/31 01:45:01.5	94.830	0.030	-0.220	-0.370
2020/01/31 01:45:01.6	94.820	0.020	-0.210	-0.330
2020/01/31 01:45:01.7	94.810	0.020	-0.200	-0.300
2020/01/31 01:45:01.8	94.800	0.010	-0.180	-0.260
2020/01/31 01:45:01.9	94.790	0.000	-0.170	-0.210
2020/01/31 01:45:02.0	94.780	-0.010	-0.160	-0.160
2020/01/31 01:45:02.1	94.770	-0.010	-0.140	-0.110
2020/01/31 01:45:02.2	94.760	-0.020	-0.130	-0.060
2020/01/31 01:45:02.3	94.750	-0.040	-0.110	-0.010
2020/01/31 01:45:02.4	94.750	-0.050	-0.090	0.040
2020/01/31 01:45:02.5	94.740	-0.060	-0.080	0.090
2020/01/31 01:45:02.6	94.740	-0.070	-0.060	0.140
2020/01/31 01:45:02.7	94.740	-0.090	-0.040	0.190
2020/01/31 01:45:02.8	94.740	-0.100	-0.010	0.240
2020/01/31 01:45:02.9	94.740	-0.120	0.010	0.290
2020/01/31 01:45:03.0	94.730	-0.130	0.030	0.340
2020/01/31 01:45:03.1	94.730	-0.140	0.050	0.390
2020/01/31 01:45:03.2	94.730	-0.160	0.080	0.440
2020/01/31 01:45:03.3	94.740	-0.170	0.100	0.480
2020/01/31 01:45:03.4	94.740	-0.190	0.130	0.520
2020/01/31 01:45:03.5	94.750	-0.200	0.150	0.560
2020/01/31 01:45:03.6	94.760	-0.210	0.180	0.600
2020/01/31 01:45:03.7	94.770	-0.220	0.200	0.640
2020/01/31 01:45:03.8	94.780	-0.240	0.220	0.670
2020/01/31 01:45:03.9	94.790	-0.250	0.250	0.710
2020/01/31 01:45:04.0	94.820	-0.260	0.270	0.740
2020/01/31 01:45:04.1	94.830	-0.260	0.290	0.770
2020/01/31 01:45:04.2	94.840	-0.270	0.310	0.800
2020/01/31 01:45:04.3	94.850	-0.280	0.320	0.830
2020/01/31 01:45:04.4	94.860	-0.280	0.340	0.860
2020/01/31 01:45:04.5	94.870	-0.290	0.360	0.890
2020/01/31 01:45:04.6	94.880	-0.290	0.370	0.920
2020/01/31 01:45:04.7	94.890	-0.290	0.380	0.940
2020/01/31 01:45:04.8	94.890	-0.290	0.390	0.970
2020/01/31 01:45:04.9	94.900	-0.290	0.390	0.990
2020/01/31 01:45:05.0	94.900	-0.290	0.400	1.020
2020/01/31 01:45:05.1	94.910	-0.280	0.390	1.050
2020/01/31 01:45:05.2	94.910	-0.270	0.390	1.070
2020/01/31 01:45:05.3	94.910	-0.270	0.380	1.090
2020/01/31 01:45:05.4	94.910	-0.260	0.360	1.110
2020/01/31 01:45:05.5	94.910	-0.240	0.340	1.130
2020/01/31 01:45:05.6	94.910	-0.230	0.320	1.160
2020/01/31 01:45:05.7	94.910	-0.220	0.290	1.180
2020/01/31 01:45:05.8	94.910	-0.200	0.260	1.200
2020/01/31 01:45:05.9	94.910	-0.180	0.220	1.220
2020/01/31 01:45:06.0	94.920	-0.160	0.180	1.240
2020/01/31 01:45:06.1	94.910	-0.140	0.140	1.260
2020/01/31 01:45:06.2	94.910	-0.110	0.090	1.280
2020/01/31 01:45:06.3	94.910	-0.090	0.040	1.300
2020/01/31 01:45:06.4	94.900	-0.060	-0.020	1.320
2020/01/31 01:45:06.5	94.900	-0.030	-0.080	1.340
2020/01/31 01:45:06.6	94.890	-0.000	-0.140	1.360
2020/01/31 01:45:06.7	94.890	0.030	-0.200	1.370
2020/01/31 01:45:06.8	94.890	0.060	-0.260	1.390
2020/01/31 01:45:06.9	94.890	0.090	-0.330	1.410
2020/01/31 01:45:07.0	94.880	0.120	-0.390	1.430
2020/01/31 01:45:07.1	94.880	0.150	-0.460	1.450
2020/01/31 01:45:07.2	94.880	0.180	-0.520	1.460
2020/01/31 01:45:07.3	94.880	0.210	-0.580	1.480
2020/01/31 01:45:07.4	94.880	0.230	-0.630	1.490
2020/01/31 01:45:07.5	94.880	0.260	-0.690	1.510
2020/01/31 01:45:07.6	94.880	0.280	-0.730	1.520
2020/01/31 01:45:07.7	94.880	0.310	-0.780	1.530
2020/01/31 01:45:07.8	94.880	0.320	-0.810	1.550
2020/01/31 01:45:07.9	94.890	0.340	-0.840	1.560
2020/01/31 01:45:08.0	94.890	0.350	-0.870	1.560
2020/01/31 01:45:08.1	94.890	0.360	-0.890	1.570
2020/01/31 01:45:08.2	94.890	0.370	-0.900	1.580
2020/01/31 01:45:08.3	94.890	0.370	-0.900	1.580
2020/01/31 01:45:08.4	94.890	0.370	-0.900	1.590
2020/01/31 01:45:08.5	94.890	0.370	-0.890	1.590
2020/01/31 01:45:08.6	94.890	0.360	-0.870	1.590
2020/01/31 01:45:08.7	94.890	0.360	-0.850	1.590
2020/01/31 01:45:08.8	94.880	0.340	-0.820	1.590
2020/01/31 01:45:08.9	94.880	0.330	-0.790	1.580
2020/01/31 01:45:09.0	94.870	0.310	-0.740	1.580
2020/01/31 01:45:09.1	94.860	0.290	-0.700	1.570
2020/01/31 01:45:09.2	94.850	0.260	-0.650	1.560
2020/01/31 01:45:09.3	94.840	0.240	-0.600	1.550
2020/01/31 01:45:09.4	94.830	0.210	-0.550	1.540
2020/01/31 01:45:09.5	94.810	0.180	-0.490	1.530
2020/01/31 01:45:09.6	94.800	0.150	-0.440	1.520
2020/01/31 01:45:09.7	94.780	0.120	-0.380	1.510
2020/01/31 01:45:09.8	94.760	0.090	-0.330	1.500
2020/01/31 01:45:09.9	94.740	0.060	-0.280	1.480
2020/01/31 01:45:10.0	94.710	0.030	-0.220	1.470
2020/01/31 01:45:10.1	94.690	0.000	-0.170	1.460
2020/01/31 01:45:10.2	94.660	-0.030	-0.130	1.440
2020/01/31 01:45:10.3	94.640	-0.050	-0.080	1.430
2020/01/31 01:45:10.4	94.620	-0.080	-0.050	1.420
2020/01/31 01:45:10.5	94.590	-0.100	-0.010	1.410
2020/01/31 01:45:10.6	94.570	-0.120	0.020	1.390
2020/01/31 01:45:10.7	94.550	-0.140	0.040	1.380
2020/01/31 01:45:10.8	94.530	-0.150	0.060	1.370
2020/01/31 01:45:10.9	94.500	-0.170	0.080	1.350
2020/01/31 01:45:11.0	94.480	-0.170	0.090	1.340
2020/01/31 01:45:11.1	94.460	-0.180	0.090	1.320
2020/01/31 01:45:11.2	94.450	-0.180	0.090	1.310
2020/01/31 01:45:11.3	94.430	-0.180	0.090	1.290
2020/01/31 01:45:11.4	94.420	-0.180	0.080	1.280
2020/01/31 01:45:11.5	94.410	-0.170	0.070	1.260
2020/01/31 01:45:11.6	94.400	-0.160	0.050	1.240
2020/01/31 01:45:11.7	94.390	-0.150	0.040	1.220
2020/01/31 01:45:11.8	94.380	-0.140	0.020	1.200
2020/01/31 01:45:11.9	94.370	-0.130	-0.010	1.180
2020/01/31 01:45:12.0	94.380	-0.110	-0.030	1.150
2020/01/31 01:45:12.1	94.380	-0.090	-0.060	1.130
2020/01/31 01:45:12.2	94.380	-0.070	-0.080	1.100
2020/01/31 01:45:12.3	94.380	-0.050	-0.110	1.060
2020/01/31 01:45:12.4	94.380	-0.030	-0.130	1.030
2020/01/31 01:45:12.5	94.380	-0.010	-0.160	0.990
2020/01/31 01:45:12.6	94.390	0.010	-0.180	0.950
2020/01/31 01:45:12.7	94.400	0.030	-0.200	0.900
2020/01/31 01:45:12.8	94.410	0.060	-0.220	0.850
2020/01/31 01:45:12.9	94.420	0.070	-0.240	0.800
2020/01/31 01:45:13.0	94.440	0.090	-0.250	0.750
2020/01/31 01:45:13.1	94.460	0.110	-0.260	0.690
2020/01/31 01:45:13.2	94.470	0.130	-0.270	0.630
2020/01/31 01:45:13.3	94.490	0.140	-0.280	0.570
2020/01/31 01:45:13.4	94.510	0.150	-0.280	0.500
2020/01/31 01:45:13.5	94.530	0.170	-0.280	0.440
2020/01/31 01:45:13.6	94.550	0.170	-0.280	0.370
2020/01/31 01:45:13.7	94.570	0.180	-0.280	0.300
2020/01/31 01:45:13.8	94.590	0.180	-0.270	0.240
2020/01/31 01:45:13.9	94.600	0.180	-0.250	0.170
2020/01/31 01:45:14.0	94.610	0.180	-0.240	0.110
2020/01/31 01:45:14.1	94.630	0.180	-0.220	0.050
2020/01/31 01:45:14.2	94.640	0.170	-0.200	-0.010
2020/01/31 01:45:14.3	94.650	0.170	-0.170	-0.060
2020/01/31 01:45:14.4	94.670	0.160	-0.150	-0.110
2020/01/31 01:45:14.5	94.680	0.140	-0.120	-0.150
2020/01/31 01:45:14.6	94.690	0.130	-0.080	-0.190
2020/01/31 01:45:14.7	94.700	0.110	-0.050	-0.230
2020/01/31 01:45:14.8	94.710	0.090	-0.020	-0.260
2020/01/31 01:45:14.9	94.710	0.070	0.020	-0.290
2020/01/31 01:45:15.0	94.730	0.050	0.060	-0.300
2020/01/31 01:45:15.1	94.730	0.020	0.100	-0.320
2020/01/31 01:45:15.2	94.730	-0.000	0.130	-0.330
2020/01/31 01:45:15.3	94.740	-0.030	0.170	-0.330
2020/01/31 01:45:15.4	94.740	-0.060	0.210	-0.340
2020/01/31 01:45:15.5	94.740	-0.080	0.240	-0.330
2020/01/31 01:45:15.6	94.740	-0.110	0.280	-0.320
2020/01/31 01:45:15.7	94.740	-0.140	0.310	-0.310
2020/01/31 01:45:15.8	94.740	-0.160	0.340	-0.290
2020/01/31 01:45:15.9	94.740	-0.190	0.360	-0.270
2020/01/31 01:45:16.0	94.740	-0.220	0.390	-0.240
2020/01/31 01:45:16.1	94.740	-0.240	0.410	-0.210
2020/01/31 01:45:16.2	94.740	-0.270	0.430	-0.180
2020/01/31 01:45:16.3	94.730	-0.290	0.440	-0.150
2020/01/31 01:45:16.4	94.730	-0.310	0.450	-0.110
2020/01/31 01:45:16.5	94.730	-0.330	0.450	-0.070
2020/01/31 01:45:16.6	94.720	-0.340	0.460	-0.030
2020/01/31 01:45:16.7	94.720	-0.360	0.450	0.010
2020/01/31 01:45:16.8	94.720	-0.370	0.450	0.050
2020/01/31 01:45:16.9	94.710	-0.380	0.430	0.090
2020/01/31 01:45:17.0	94.710	-0.380	0.420	0.130
2020/01/31 01:45:17.1	94.710	-0.390	0.400	0.180
2020/01/31 01:45:17.2	94.700	-0.390	0.380	0.220
2020/01/31 01:45:17.3	94.700	-0.390	0.350	0.260
2020/01/31 01:45:17.4	94.700	-0.380	0.310	0.310
2020/01/31 01:45:17.5	94.700	-0.380	0.280	0.350
2020/01/31 01:45:17.6	94.690	-0.370	0.240	0.400
2020/01/31 01:45:17.7	94.690	-0.360	0.190	0.440
2020/01/31 01:45:17.8	94.690	-0.350	0.140	0.480
2020/01/31 01:45:17.9	94.690	-0.330	0.090	0.520
2020/01/31 01:45:18.0	94.660	-0.310	0.040	0.570
2020/01/31 01:45:18.1	94.660	-0.300	-0.020	0.610
2020/01/31 01:45:18.2	94.660	-0.280	-0.070	0.650
2020/01/31 01:45:18.3	94.660	-0.260	-0.130	0.690
2020/01/31 01:45:18.4	94.660	-0.230	-0.190	0.730
2020/01/31 01:45:18.5	94.660	-0.210	-0.250	0.780
2020/01/31 01:45:18.6	94.660	-0.190	-0.310	0.820
2020/01/31 01:45:18.7	94.660	-0.160	-0.370	0.860
2020/01/31 01:45:18.8	94.660	-0.140	-0.430	0.900
2020/01/31 01:45:18.9	94.650	-0.110	-0.490	0.940
2020/01/31 01:45:19.0	94.670	-0.090	-0.550	0.990
2020/01/31 01:45:19.1	94.670	-0.060	-0.610	1.030
2020/01/31 01:45:19.2	94.670	-0.040	-0.660	1.080
2020/01/31 01:45:19.3	94.670	-0.020	-0.710	1.120
2020/01/31 01:45:19.4	94.660	0.010	-0.750	1.160
2020/01/31 01:45:19.5	94.660	0.030	-0.790	1.210
2020/01/31 01:45:19.6	94.660	0.050	-0.830	1.250
2020/01/31 01:45:19.7	94.650	0.070	-0.860	1.300
2020/01/31 01:45:19.8	94.640	0.090	-0.890	1.350
2020/01/31 01:45:19.9	94.640	0.110	-0.920	1.390
2020/01/31 01:45:20.0	94.630	0.120	-0.930	1.440
2020/01/31 01:45:20.1	94.620	0.140	-0.950	1.490
2020/01/31 01:45:20.2	94.610	0.150	-0.960	1.540
2020/01/31 01:45:20.3	94.600	0.160	-0.960	1.580
2020/01/31 01:45:20.4	94.590	0.170	-0.960	1.630
2020/01/31 01:45:20.5	94.580	0.180	-0.960	1.680
2020/01/31 01:45:20.6	94.570	0.190	-0.950	1.720
2020/01/31 01:45:20.7	94.550	0.200	-0.940	1.760
2020/01/31 01:45:20.8	94.540	0.200	-0.920	1.800
2020/01/31 01:45:20.9	94.520	0.210	-0.890	1.840
2020/01/31 01:45:21.0	94.520	0.210	-0.870	1.870
2020/01/31 01:45:21.1	94.510	0.210	-0.840	1.910
2020/01/31 01:45:21.2	94.500	0.210	-0.800	1.940
2020/01/31 01:45:21.3	94.490	0.210	-0.760	1.960
2020/01/31 01:45:21.4	94.480	0.210	-0.720	1.980
2020/01/31 01:45:21.5	94.460	0.210	-0.680	2.000
2020/01/31 01:45:21.6	94.460	0.210	-0.630	2.020
2020/01/31 01:45:21.7	94.450	0.210	-0.580	2.030
2020/01/31 01:45:21.8	94.440	0.200	-0.530	2.040
2020/01/31 01:45:21.9	94.440	0.200	-0.480	2.040
2020/01/31 01:45:22.0	94.430	0.190	-0.420	2.040
2020/01/31 01:45:22.1	94.430	0.190	-0.360	2.040
2020/01/31 01:45:22.2	94.430	0.180	-0.310	2.030
2020/01/31 01:45:22.3	94.430	0.170	-0.260	2.020
2020/01/31 01:45:22.4	94.430	0.160	-0.200	2.010
2020/01/31 01:45:22.5	94.440	0.160	-0.150	1.990
2020/01/31 01:45:22.6	94.440	0.150	-0.090	1.970
2020/01/31 01:45:22.7	94.450	0.140	-0.040	1.950
2020/01/31 01:45:22.8	94.450	0.130	0.010	1.920
2020/01/31 01:45:22.9	94.460	0.120	0.060	1.900
2020/01/31 01:45:23.0	94.470	0.110	0.100	1.860
2020/01/31 01:45:23.1	94.480	0.100	0.150	1.830
2020/01/31 01:45:23.2	94.490	0.090	0.190	1.790
2020/01/31 01:45:23.3	94.500	0.080	0.230	1.750
2020/01/31 01:45:23.4	94.510	0.060	0.270	1.710
2020/01/31 01:45:23.5	94.530	0.050	0.300	1.660
2020/01/31 01:45:23.6	94.540	0.040	0.340	1.610
2020/01/31 01:45:23.7	94.550	0.030	0.370	1.560
2020/01/31 01:45:23.8	94.560	0.010	0.400	1.510
2020/01/31 01:45:23.9	94.570	0.000	0.420	1.450
2020/01/31 01:45:24.0	94.570	-0.010	0.450	1.390
2020/01/31 01:45:24.1	94.580	-0.030	0.480	1.330
2020/01/31 01:45:24.2	94.600	-0.040	0.500	1.260
2020/01/31 01:45:24.3	94.610	-0.050	0.520	1.200
2020/01/31 01:45:24.4	94.610	-0.070	0.530	1.130
2020/01/31 01:45:24.5	94.620	-0.080	0.540	1.060
2020/01/31 01:45:24.6	94.630	-0.090	0.560	1.000
2020/01/31 01:45:24.7	94.630	-0.110	0.560	0.930
2020/01/31 01:45:24.8	94.630	-0.120	0.570	0.860
2020/01/31 01:45:24.9	94.640	-0.130	0.570	0.800
2020/01/31 01:45:25.0	94.610	-0.140	0.570	0.730
2020/01/31 01:45:25.1	94.610	-0.150	0.560	0.660
2020/01/31 01:45:25.2	94.600	-0.160	0.550	0.600
2020/01/31 01:45:25.3	94.600	-0.160	0.540	0.540
2020/01/31 01:45:25.4	94.590	-0.170	0.530	0.480
2020/01/31 01:45:25.5	94.580	-0.170	0.510	0.420
2020/01/31 01:45:25.6	94.570	-0.170	0.480	0.360
2020/01/31 01:45:25.7	94.560	-0.170	0.460	0.310
2020/01/31 01:45:25.8	94.550	-0.170	0.420	0.250
2020/01/31 01:45:25.9	94.540	-0.170	0.390	0.200
2020/01/31 01:45:26.0	94.530	-0.160	0.340	0.150
2020/01/31 01:45:26.1	94.520	-0.150	0.300	0.100
2020/01/31 01:45:26.2	94.520	-0.140	0.250	0.060
2020/01/31 01:45:26.3	94.510	-0.130	0.190	0.010
2020/01/31 01:45:26.4	94.500	-0.120	0.140	-0.030
2020/01/31 01:45:26.5	94.490	-0.100	0.080	-0.070
2020/01/31 01:45:26.6	94.490	-0.080	0.010	-0.110
2020/01/31 01:45:26.7	94.480	-0.060	-0.050	-0.150
2020/01/31 01:45:26.8	94.480	-0.040	-0.120	-0.180
2020/01/31 01:45:26.9	94.480	-0.020	-0.190	-0.210
2020/01/31 01:45:27.0	94.460	0.010	-0.260	-0.240
2020/01/31 01:45:27.1	94.450	0.030	-0.320	-0.270
2020/01/31 01:45:27.2	94.460	0.050	-0.390	-0.290
2020/01/31 01:45:27.3	94.460	0.080	-0.460	-0.320
2020/01/31 01:45:27.4	94.460	0.100	-0.520	-0.340
2020/01/31 01:45:27.5	94.460	0.120	-0.590	-0.360
2020/01/31 01:45:27.6	94.470	0.150	-0.640	-0.370
2020/01/31 01:45:27.7	94.470	0.170	-0.700	-0.390
2020/01/31 01:45:27.8	94.480	0.190	-0.750	-0.400
2020/01/31 01:45:27.9	94.480	0.200	-0.790	-0.410
2020/01/31 01:45:28.0	94.480	0.220	-0.830	-0.420
2020/01/31 01:45:28.1	94.490	0.230	-0.860	-0.430
2020/01/31 01:45:28.2	94.500	0.240	-0.890	-0.440
2020/01/31 01:45:28.3	94.510	0.250	-0.910	-0.440
2020/01/31 01:45:28.4	94.520	0.260	-0.920	-0.440
2020/01/31 01:45:28.5	94.530	0.260	-0.930	-0.440
2020/01/31 01:45:28.6	94.540	0.260	-0.930	-0.440
2020/01/31 01:45:28.7	94.550	0.260	-0.920	-0.440
2020/01/31 01:45:28.8	94.560	0.250	-0.910	-0.440
2020/01/31 01:45:28.9	94.570	0.250	-0.880	-0.430
2020/01/31 01:45:29.0	94.590	0.240	-0.860	-0.410
2020/01/31 01:45:29.1	94.600	0.220	-0.820	-0.400
2020/01/31 01:45:29.2	94.610	0.210	-0.780	-0.390
2020/01/31 01:45:29.3	94.620	0.190	-0.740	-0.380
2020/01/31 01:45:29.4	94.630	0.170	-0.690	-0.360
2020/01/31 01:45:29.5	94.640	0.150	-0.630	-0.340
2020/01/31 01:45:29.6	94.640	0.130	-0.580	-0.320
2020/01/31 01:45:29.7	94.650	0.110	-0.520	-0.290
2020/01/31 01:45:29.8	94.660	0.090	-0.450	-0.270
2020/01/31 01:45:29.9	94.660	0.060	-0.390	-0.240
2020/01/31 01:45:30.0	94.650	0.040	-0.320	-0.200
2020/01/31 01:45:30.1	94.650	0.010	-0.250	-0.160
2020/01/31 01:45:30.2	94.650	-0.010	-0.190	-0.120
2020/01/31 01:45:30.3	94.650	-0.040	-0.120	-0.080
2020/01/31 01:45:30.4	94.650	-0.060	-0.060	-0.040
2020/01/31 01:45:30.5	94.640	-0.080	0.000	0.010
2020/01/31 01:45:30.6	94.630	-0.100	0.060	0.060
2020/01/31 01:45:30.7	94.620	-0.120	0.110	0.110
2020/01/31 01:45:30.8	94.610	-0.140	0.160	0.170
2020/01/31 01:45:30.9	94.600	-0.160	0.210	0.220
2020/01/31 01:45:31.0	94.600	-0.180	0.250	0.280
2020/01/31 01:45:31.1	94.580	-0.190	0.280	0.340
2020/01/31 01:45:31.2	94.570	-0.200	0.310	0.400
2020/01/31 01:45:31.3	94.550	-0.210	0.330	0.460
2020/01/31 01:45:31.4	94.540	-0.210	0.340	0.520
2020/01/31 01:45:31.5	94.530	-0.220	0.350	0.580
2020/01/31 01:45:31.6	94.520	-0.220	0.350	0.640
2020/01/31 01:45:31.7	94.500	-0.210	0.340	0.700
2020/01/31 01:45:31.8	94.490	-0.210	0.330	0.760
2020/01/31 01:45:31.9	94.480	-0.200	0.310	0.820
2020/01/31 01:45:32.0	94.490	-0.190	0.280	0.880
2020/01/31 01:45:32.1	94.480	-0.180	0.250	0.950
2020/01/31 01:45:32.2	94.470	-0.170	0.210	1.010
2020/01/31 01:45:32.3	94.470	-0.150	0.170	1.070
2020/01/31 01:45:32.4	94.460	-0.130	0.120	1.130
2020/01/31 01:45:32.5	94.450	-0.110	0.070	1.190
2020/01/31 01:45:32.6	94.450	-0.090	0.020	1.260
2020/01/31 01:45:32.7	94.450	-0.070	-0.040	1.320
2020/01/31 01:45:32.8	94.440	-0.050	-0.090	1.380
2020/01/31 01:45:32.9	94.440	-0.030	-0.150	1.450
2020/01/31 01:45:33.0	94.440	-0.010	-0.200	1.510
2020/01/31 01:45:33.1	94.440	0.010	-0.260	1.580
2020/01/31 01:45:33.2	94.440	0.030	-0.310	1.640
2020/01/31 01:45:33.3	94.430	0.050	-0.360	1.710
2020/01/31 01:45:33.4	94.430	0.070	-0.410	1.770
2020/01/31 01:45:33.5	94.430	0.080	-0.460	1.830
2020/01/31 01:45:33.6	94.430	0.100	-0.500	1.890
2020/01/31 01:45:33.7	94.420	0.110	-0.530	1.940
2020/01/31 01:45:33.8	94.420	0.120	-0.560	2.000
2020/01/31 01:45:33.9	94.420	0.120	-0.580	2.050
2020/01/31 01:45:34.0	94.420	0.120	-0.600	2.090
2020/01/31 01:45:34.1	94.420	0.120	-0.620	2.140
2020/01/31 01:45:34.2	94.420	0.120	-0.620	2.170
2020/01/31 01:45:34.3	94.420	0.120	-0.620	2.210
2020/01/31 01:45:34.4	94.420	0.110	-0.610	2.240
2020/01/31 01:45:34.5	94.430	0.090	-0.590	2.260
2020/01/31 01:45:34.6	94.430	0.080	-0.570	2.280
2020/01/31 01:45:34.7	94.430	0.060	-0.540	2.290
2020/01/31 01:45:34.8	94.430	0.040	-0.510	2.300
2020/01/31 01:45:34.9	94.440	0.020	-0.470	2.300
2020/01/31 01:45:35.0	94.440	-0.000	-0.420	2.300
2020/01/31 01:45:35.1	94.440	-0.030	-0.370	2.290
2020/01/31 01:45:35.2	94.450	-0.050	-0.320	2.280
2020/01/31 01:45:35.3	94.450	-0.080	-0.260	2.260
2020/01/31 01:45:35.4	94.460	-0.110	-0.200	2.230
2020/01/31 01:45:35.5	94.460	-0.140	-0.140	2.200
2020/01/31 01:45:35.6	94.470	-0.170	-0.080	2.170
2020/01/31 01:45:35.7	94.470	-0.190	-0.020	2.130
2020/01/31 01:45:35.8	94.480	-0.220	0.040	2.090
2020/01/31 01:45:35.9	94.480	-0.250	0.100	2.050
2020/01/31 01:45:36.0	94.480	-0.270	0.150	2.000
2020/01/31 01:45:36.1	94.490	-0.290	0.210	1.950
2020/01/31 01:45:36.2	94.490	-0.320	0.260	1.890
2020/01/31 01:45:36.3	94.490	-0.330	0.310	1.840
2020/01/31 01:45:36.4	94.500	-0.350	0.360	1.780
2020/01/31 01:45:36.5	94.500	-0.360	0.400	1.720
2020/01/31 01:45:36.6	94.500	-0.370	0.440	1.650
2020/01/31 01:45:36.7	94.500	-0.380	0.470	1.590
2020/01/31 01:45:36.8	94.510	-0.380	0.490	1.530
2020/01/31 01:45:36.9	94.510	-0.380	0.510	1.460
2020/01/31 01:45:37.0	94.490	-0.370	0.530	1.390
2020/01/31 01:45:37.1	94.490	-0.370	0.530	1.330
2020/01/31 01:45:37.2	94.490	-0.350	0.530	1.260
2020/01/31 01:45:37.3	94.500	-0.340	0.520	1.200
2020/01/31 01:45:37.4	94.500	-0.320	0.510	1.130
2020/01/31 01:45:37.5	94.500	-0.300	0.480	1.070
2020/01/31 01:45:37.6	94.500	-0.270	0.450	1.000
2020/01/31 01:45:37.7	94.500	-0.250	0.420	0.940
2020/01/31 01:45:37.8	94.500	-0.220	0.380	0.880
2020/01/31 01:45:37.9	94.510	-0.180	0.330	0.820
2020/01/31 01:45:38.0	94.510	-0.150	0.280	0.760
2020/01/31 01:45:38.1	94.510	-0.110	0.230	0.700
2020/01/31 01:45:38.2	94.510	-0.080	0.170	0.640
2020/01/31 01:45:38.3	94.520	-0.040	0.110	0.590
2020/01/31 01:45:38.4	94.520	-0.000	0.050	0.530
2020/01/31 01:45:38.5	94.520	0.040	-0.010	0.470
2020/01/31 01:45:38.6	94.530	0.070	-0.070	0.410
2020/01/31 01:45:38.7	94.530	0.110	-0.130	0.360
2020/01/31 01:45:38.8	94.540	0.150	-0.190	0.300
2020/01/31 01:45:38.9	94.550	0.180	-0.240	0.250
2020/01/31 01:45:39.0	94.550	0.210	-0.290	0.190
2020/01/31 01:45:39.1	94.560	0.240	-0.340	0.140
2020/01/31 01:45:39.2	94.570	0.270	-0.390	0.090
2020/01/31 01:45:39.3	94.580	0.290	-0.430	0.040
2020/01/31 01:45:39.4	94.580	0.310	-0.460	-0.010
2020/01/31 01:45:39.5	94.590	0.330	-0.490	-0.060
2020/01/31 01:45:39.6	94.600	0.350	-0.520	-0.110
2020/01/31 01:45:39.7	94.610	0.360	-0.540	-0.150
2020/01/31 01:45:39.8	94.620	0.370	-0.550	-0.190
2020/01/31 01:45:39.9	94.630	0.370	-0.560	-0.230
2020/01/31 01:45:40.0	94.660	0.370	-0.560	-0.260
2020/01/31 01:45:40.1	94.660	0.370	-0.560	-0.300
2020/01/31 01:45:40.2	94.670	0.370	-0.550	-0.330
2020/01/31 01:45:40.3	94.680	0.360	-0.540	-0.360
2020/01/31 01:45:40.4	94.680	0.350	-0.530	-0.380
2020/01/31 01:45:40.5	94.680	0.330	-0.510	-0.400
2020/01/31 01:45:40.6	94.680	0.320	-0.490	-0.420
2020/01/31 01:45:40.7	94.680	0.300	-0.460	-0.440
2020/01/31 01:45:40.8	94.680	0.280	-0.430	-0.450
2020/01/31 01:45:40.9	94.680	0.260	-0.410	-0.460
2020/01/31 01:45:41.0	94.670	0.240	-0.370	-0.460
2020/01/31 01:45:41.1	94.660	0.220	-0.340	-0.460
2020/01/31 01:45:41.2	94.650	0.190	-0.310	-0.460
2020/01/31 01:45:41.3	94.640	0.170	-0.280	-0.460
2020/01/31 01:45:41.4	94.630	0.140	-0.250	-0.450
2020/01/31 01:45:41.5	94.620	0.120	-0.220	-0.440
2020/01/31 01:45:41.6	94.600	0.100	-0.190	-0.430
2020/01/31 01:45:41.7	94.580	0.080	-0.170	-0.410
2020/01/31 01:45:41.8	94.570	0.060	-0.140	-0.400
2020/01/31 01:45:41.9	94.550	0.040	-0.120	-0.380
2020/01/31 01:45:42.0	94.530	0.020	-0.110	-0.360
2020/01/31 01:45:42.1	94.510	0.010	-0.100	-0.330
2020/01/31 01:45:42.2	94.490	-0.000	-0.090	-0.310
2020/01/31 01:45:42.3	94.460	-0.010	-0.090	-0.290
2020/01/31 01:45:42.4	94.440	-0.020	-0.090	-0.260
2020/01/31 01:45:42.5	94.410	-0.020	-0.100	-0.230
2020/01/31 01:45:42.6	94.380	-0.020	-0.110	-0.200
2020/01/31 01:45:42.7	94.360	-0.020	-0.120	-0.170
2020/01/31 01:45:42.8	94.330	-0.020	-0.140	-0.140
2020/01/31 01:45:42.9	94.310	-0.010	-0.170	-0.100
2020/01/31 01:45:43.0	94.270	0.000	-0.190	-0.070
2020/01/31 01:45:43.1	94.250	0.020	-0.220	-0.040
2020/01/31 01:45:43.2	94.230	0.030	-0.260	-0.000
2020/01/31 01:45:43.3	94.210	0.050	-0.290	0.040
2020/01/31 01:45:43.4	94.190	0.070	-0.330	0.070
2020/01/31 01:45:43.5	94.170	0.090	-0.370	0.110
2020/01/31 01:45:43.6	94.150	0.120	-0.420	0.150
2020/01/31 01:45:43.7	94.140	0.140	-0.460	0.200
2020/01/31 01:45:43.8	94.120	0.170	-0.500	0.240
2020/01/31 01:45:43.9	94.110	0.190	-0.540	0.280
2020/01/31 01:45:44.0	94.110	0.220	-0.580	0.340
2020/01/31 01:45:44.1	94.100	0.250	-0.620	0.390
2020/01/31 01:45:44.2	94.090	0.280	-0.660	0.440
2020/01/31 01:45:44.3	94.090	0.300	-0.690	0.490
2020/01/31 01:45:44.4	94.090	0.330	-0.720	0.540
2020/01/31 01:45:44.5	94.090	0.350	-0.750	0.590
2020/01/31 01:45:44.6	94.090	0.370	-0.770	0.640
2020/01/31 01:45:44.7	94.100	0.390	-0.780	0.690
2020/01/31 01:45:44.8	94.100	0.410	-0.800	0.750
2020/01/31 01:45:44.9	94.110	0.430	-0.800	0.800
2020/01/31 01:45:45.0	94.120	0.440	-0.800	0.850
2020/01/31 01:45:45.1	94.140	0.450	-0.800	0.910
2020/01/31 01:45:45.2	94.150	0.450	-0.790	0.960
2020/01/31 01:45:45.3	94.170	0.460	-0.770	1.010
2020/01/31 01:45:45.4	94.190	0.450	-0.750	1.060
2020/01/31 01:45:45.5	94.200	0.450	-0.720	1.100
2020/01/31 01:45:45.6	94.220	0.440	-0.690	1.150
2020/01/31 01:45:45.7	94.250	0.430	-0.650	1.190
2020/01/31 01:45:45.8	94.270	0.410	-0.600	1.230
2020/01/31 01:45:45.9	94.290	0.390	-0.550	1.270
2020/01/31 01:45:46.0	94.320	0.360	-0.490	1.320
2020/01/31 01:45:46.1	94.350	0.330	-0.420	1.350
2020/01/31 01:45:46.2	94.370	0.300	-0.350	1.390
2020/01/31 01:45:46.3	94.390	0.260	-0.280	1.420
2020/01/31 01:45:46.4	94.420	0.230	-0.200	1.450
2020/01/31 01:45:46.5	94.440	0.180	-0.120	1.470
2020/01/31 01:45:46.6	94.470	0.140	-0.040	1.500
2020/01/31 01:45:46.7	94.490	0.090	0.050	1.520
2020/01/31 01:45:46.8	94.510	0.040	0.140	1.540
2020/01/31 01:45:46.9	94.530	-0.010	0.230	1.560
2020/01/31 01:45:47.0	94.560	-0.070	0.320	1.580
2020/01/31 01:45:47.1	94.580	-0.120	0.420	1.590
2020/01/31 01:45:47.2	94.600	-0.180	0.510	1.610
2020/01/31 01:45:47.3	94.620	-0.240	0.600	1.620
2020/01/31 01:45:47.4	94.640	-0.300	0.690	1.630
2020/01/31 01:45:47.5	94.660	-0.350	0.770	1.640
2020/01/31 01:45:47.6	94.680	-0.410	0.850	1.650
2020/01/31 01:45:47.7	94.700	-0.460	0.930	1.660
2020/01/31 01:45:47.8	94.710	-0.520	1.000	1.670
2020/01/31 01:45:47.9	94.730	-0.570	1.070	1.670
2020/01/31 01:45:48.0	94.720	-0.620	1.130	1.680
2020/01/31 01:45:48.1	94.740	-0.670	1.190	1.690
2020/01/31 01:45:48.2	94.750	-0.710	1.230	1.700
2020/01/31 01:45:48.3	94.760	-0.750	1.270	1.700
2020/01/31 01:45:48.4	94.770	-0.790	1.300	1.710
2020/01/31 01:45:48.5	94.780	-0.820	1.320	1.710
2020/01/31 01:45:48.6	94.790	-0.850	1.330	1.720
2020/01/31 01:45:48.7	94.800	-0.880	1.340	1.730
2020/01/31 01:45:48.8	94.800	-0.900	1.330	1.730
2020/01/31 01:45:48.9	94.810	-0.910	1.310	1.740
2020/01/31 01:45:49.0	94.820	-0.920	1.290	1.740
2020/01/31 01:45:49.1	94.820	-0.930	1.250	1.750
2020/01/31 01:45:49.2	94.820	-0.930	1.200	1.750
2020/01/31 01:45:49.3	94.820	-0.920	1.140	1.750
2020/01/31 01:45:49.4	94.820	-0.910	1.080	1.750
2020/01/31 01:45:49.5	94.820	-0.890	1.000	1.760
2020/01/31 01:45:49.6	94.820	-0.870	0.910	1.750
2020/01/31 01:45:49.7	94.810	-0.850	0.810	1.750
2020/01/31 01:45:49.8	94.810	-0.810	0.710	1.750
2020/01/31 01:45:49.9	94.800	-0.780	0.600	1.740
2020/01/31 01:45:50.0	94.790	-0.730	0.480	1.730
2020/01/31 01:45:50.1	94.790	-0.690	0.350	1.720
2020/01/31 01:45:50.2	94.780	-0.630	0.220	1.710
2020/01/31 01:45:50.3	94.770	-0.580	0.080	1.700
2020/01/31 01:45:50.4	94.760	-0.520	-0.060	1.680
2020/01/31 01:45:50.5	94.750	-0.460	-0.200	1.660
2020/01/31 01:45:50.6	94.740	-0.390	-0.350	1.640
2020/01/31 01:45:50.7	94.730	-0.330	-0.490	1.620
2020/01/31 01:45:50.8	94.720	-0.260	-0.630	1.590
2020/01/31 01:45:50.9	94.700	-0.190	-0.780	1.560
2020/01/31 01:45:51.0	94.700	-0.110	-0.920	1.530
2020/01/31 01:45:51.1	94.690	-0.040	-1.050	1.510
2020/01/31 01:45:51.2	94.670	0.030	-1.180	1.470
2020/01/31 01:45:51.3	94.660	0.100	-1.300	1.440
2020/01/31 01:45:51.4	94.640	0.170	-1.420	1.410
2020/01/31 01:45:51.5	94.620	0.240	-1.520	1.380
2020/01/31 01:45:51.6	94.610	0.300	-1.620	1.350
2020/01/31 01:45:51.7	94.590	0.370	-1.710	1.310
2020/01/31 01:45:51.8	94.570	0.430	-1.790	1.280
2020/01/31 01:45:51.9	94.550	0.480	-1.850	1.250
2020/01/31 01:45:52.0	94.530	0.540	-1.900	1.220
2020/01/31 01:45:52.1	94.510	0.580	-1.940	1.190
2020/01/31 01:45:52.2	94.490	0.630	-1.970	1.160
2020/01/31 01:45:52.3	94.470	0.670	-1.980	1.130
2020/01/31 01:45:52.4	94.460	0.700	-1.980	1.100
2020/01/31 01:45:52.5	94.440	0.730	-1.970	1.070
2020/01/31 01:45:52.6	94.420	0.750	-1.950	1.040
2020/01/31 01:45:52.7	94.410	0.770	-1.910	1.020
2020/01/31 01:45:52.8	94.390	0.790	-1.860	0.990
2020/01/31 01:45:52.9	94.380	0.790	-1.800	0.970
2020/01/31 01:45:53.0	94.380	0.790	-1.730	0.940
2020/01/31 01:45:53.1	94.370	0.790	-1.650	0.920
2020/01/31 01:45:53.2	94.360	0.780	-1.550	0.890
2020/01/31 01:45:53.3	94.360	0.770	-1.450	0.870
2020/01/31 01:45:53.4	94.350	0.750	-1.340	0.840
2020/01/31 01:45:53.5	94.350	0.730	-1.230	0.820
2020/01/31 01:45:53.6	94.350	0.710	-1.110	0.800
2020/01/31 01:45:53.7	94.350	0.680	-0.980	0.770
2020/01/31 01:45:53.8	94.360	0.640	-0.850	0.750
2020/01/31 01:45:53.9	94.370	0.610	-0.720	0.720
2020/01/31 01:45:54.0	94.370	0.570	-0.570	0.700
2020/01/31 01:45:54.1	94.380	0.530	-0.440	0.670
2020/01/31 01:45:54.2	94.400	0.480	-0.300	0.650
2020/01/31 01:45:54.3	94.410	0.440	-0.170	0.620
2020/01/31 01:45:54.4	94.420	0.390	-0.040	0.590
2020/01/31 01:45:54.5	94.440	0.340	0.090	0.570
2020/01/31 01:45:54.6	94.450	0.290	0.210	0.540
2020/01/31 01:45:54.7	94.470	0.250	0.330	0.510
2020/01/31 01:45:54.8	94.480	0.200	0.440	0.480
2020/01/31 01:45:54.9	94.500	0.150	0.550	0.460
2020/01/31 01:45:55.0	94.500	0.100	0.650	0.430
2020/01/31 01:45:55.1	94.510	0.060	0.740	0.400
2020/01/31 01:45:55.2	94.530	0.010	0.830	0.380
2020/01/31 01:45:55.3	94.550	-0.030	0.910	0.350
2020/01/31 01:45:55.4	94.570	-0.070	0.980	0.330
2020/01/31 01:45:55.5	94.580	-0.110	1.040	0.310
2020/01/31 01:45:55.6	94.600	-0.150	1.100	0.280
2020/01/31 01:45:55.7	94.610	-0.190	1.150	0.260
2020/01/31 01:45:55.8	94.630	-0.220	1.180	0.240
2020/01/31 01:45:55.9	94.640	-0.250	1.220	0.220
2020/01/31 01:45:56.0	94.660	-0.280	1.240	0.200
2020/01/31 01:45:56.1	94.670	-0.300	1.250	0.190
2020/01/31 01:45:56.2	94.680	-0.320	1.260	0.170
2020/01/31 01:45:56.3	94.690	-0.340	1.260	0.160
2020/01/31 01:45:56.4	94.700	-0.360	1.250	0.140
2020/01/31 01:45:56.5	94.710	-0.370	1.240	0.130
2020/01/31 01:45:56.6	94.720	-0.380	1.210	0.120
2020/01/31 01:45:56.7	94.720	-0.390	1.180	0.110
2020/01/31 01:45:56.8	94.730	-0.390	1.140	0.100
2020/01/31 01:45:56.9	94.730	-0.400	1.100	0.100
2020/01/31 01:45:57.0	94.740	-0.390	1.050	0.090
2020/01/31 01:45:57.1	94.750	-0.390	0.990	0.090
2020/01/31 01:45:57.2	94.750	-0.380	0.920	0.080
2020/01/31 01:45:57.3	94.750	-0.370	0.850	0.080
2020/01/31 01:45:57.4	94.750	-0.360	0.780	0.080
2020/01/31 01:45:57.5	94.750	-0.350	0.700	0.080
2020/01/31 01:45:57.6	94.750	-0.330	0.610	0.090
2020/01/31 01:45:57.7	94.750	-0.310	0.520	0.090
2020/01/31 01:45:57.8	94.750	-0.290	0.420	0.090
2020/01/31 01:45:57.9	94.750	-0.270	0.320	0.100
2020/01/31 01:45:58.0	94.740	-0.240	0.220	0.100
2020/01/31 01:45:58.1	94.740	-0.210	0.120	0.110
2020/01/31 01:45:58.2	94.740	-0.180	0.010	0.120
2020/01/31 01:45:58.3	94.740	-0.150	-0.090	0.140
2020/01/31 01:45:58.4	94.740	-0.120	-0.200	0.150
2020/01/31 01:45:58.5	94.740	-0.080	-0.310	0.170
2020/01/31 01:45:58.6	94.740	-0.040	-0.420	0.180
2020/01/31 01:45:58.7	94.740	-0.010	-0.530	0.200
2020/01/31 01:45:58.8	94.730	0.030	-0.630	0.220
2020/01/31 01:45:58.9	94.740	0.070	-0.730	0.240
2020/01/31 01:45:59.0	94.730	0.120	-0.830	0.270
2020/01/31 01:45:59.1	94.730	0.160	-0.930	0.290
2020/01/31 01:45:59.2	94.740	0.200	-1.020	0.310
2020/01/31 01:45:59.3	94.740	0.240	-1.100	0.330
2020/01/31 01:45:59.4	94.750	0.280	-1.180	0.360
2020/01/31 01:45:59.5	94.750	0.320	-1.250	0.380
2020/01/31 01:45:59.6	94.760	0.360	-1.310	0.400
2020/01/31 01:45:59.7	94.770	0.400	-1.370	0.420
2020/01/31 01:45:59.8	94.790	0.430	-1.410	0.440
2020/01/31 01:45:59.9	94.800	0.460	-1.450	0.470
2020/01/31 01:46:00.0	94.810	0.490	-1.470	0.490
2020/01/31 01:46:00.1	94.830	0.520	-1.490	0.510
2020/01/31 01:46:00.2	94.850	0.550	-1.500	0.530
2020/01/31 01:46:00.3	94.870	0.570	-1.490	0.560
2020/01/31 01:46:00.4	94.890	0.580	-1.480	0.580
2020/01/31 01:46:00.5	94.910	0.600	-1.450	0.610
2020/01/31 01:46:00.6	94.940	0.600	-1.410	0.640
2020/01/31 01:46:00.7	94.960	0.610	-1.370	0.670
2020/01/31 01:46:00.8	94.980	0.610	-1.310	0.690
2020/01/31 01:46:00.9	95.010	0.600	-1.250	0.730
2020/01/31 01:46:01.0	95.030	0.590	-1.170	0.760
2020/01/31 01:46:01.1	95.050	0.580	-1.080	0.800
2020/01/31 01:46:01.2	95.070	0.560	-0.990	0.830
2020/01/31 01:46:01.3	95.090	0.530	-0.890	0.860
2020/01/31 01:46:01.4	95.110	0.500	-0.790	0.900
2020/01/31 01:46:01.5	95.120	0.470	-0.680	0.940
2020/01/31 01:46:01.6	95.140	0.430	-0.570	0.970
2020/01/31 01:46:01.7	95.150	0.390	-0.450	1.010
2020/01/31 01:46:01.8	95.160	0.350	-0.330	1.050
2020/01/31 01:46:01.9	95.170	0.300	-0.210	1.080
2020/01/31 01:46:02.0	95.170	0.250	-0.090	1.120
2020/01/31 01:46:02.1	95.170	0.200	0.030	1.160
2020/01/31 01:46:02.2	95.170	0.140	0.150	1.200
2020/01/31 01:46:02.3	95.170	0.090	0.260	1.230
2020/01/31 01:46:02.4	95.170	0.030	0.370	1.270
2020/01/31 01:46:02.5	95.160	-0.030	0.470	1.300
2020/01/31 01:46:02.6	95.150	-0.090	0.570	1.340
2020/01/31 01:46:02.7	95.140	-0.140	0.670	1.370
2020/01/31 01:46:02.8	95.120	-0.200	0.750	1.400
2020/01/31 01:46:02.9	95.110	-0.250	0.830	1.430
2020/01/31 01:46:03.0	95.100	-0.310	0.910	1.460
2020/01/31 01:46:03.1	95.080	-0.360	0.970	1.480
2020/01/31 01:46:03.2	95.060	-0.410	1.030	1.510
2020/01/31 01:46:03.3	95.030	-0.450	1.070	1.530
2020/01/31 01:46:03.4	95.010	-0.500	1.110	1.550
2020/01/31 01:46:03.5	94.980	-0.540	1.130	1.570
2020/01/31 01:46:03.6	94.960	-0.570	1.150	1.590
2020/01/31 01:46:03.7	94.930	-0.610	1.160	1.600
2020/01/31 01:46:03.8	94.900	-0.630	1.160	1.610
2020/01/31 01:46:03.9	94.880	-0.660	1.150	1.630
2020/01/31 01:46:04.0	94.850	-0.680	1.140	1.640
2020/01/31 01:46:04.1	94.820	-0.690	1.110	1.650
2020/01/31 01:46:04.2	94.800	-0.700	1.070	1.660
2020/01/31 01:46:04.3	94.770	-0.710	1.030	1.660
2020/01/31 01:46:04.4	94.750	-0.710	0.980	1.660
2020/01/31 01:46:04.5	94.720	-0.710	0.920	1.670
2020/01/31 01:46:04.6	94.700	-0.700	0.850	1.670
2020/01/31 01:46:04.7	94.680	-0.690	0.780	1.670
2020/01/31 01:46:04.8	94.660	-0.680	0.690	1.660
2020/01/31 01:46:04.9	94.640	-0.660	0.610	1.660
2020/01/31 01:46:05.0	94.630	-0.640	0.510	1.650
2020/01/31 01:46:05.1	94.620	-0.610	0.410	1.640
2020/01/31 01:46:05.2	94.600	-0.580	0.310	1.630
2020/01/31 01:46:05.3	94.600	-0.550	0.200	1.620
2020/01/31 01:46:05.4	94.590	-0.510	0.090	1.600
2020/01/31 01:46:05.5	94.580	-0.480	-0.020	1.590
2020/01/31 01:46:05.6	94.580	-0.440	-0.140	1.560
2020/01/31 01:46:05.7	94.580	-0.390	-0.250	1.540
2020/01/31 01:46:05.8	94.580	-0.350	-0.370	1.520
2020/01/31 01:46:05.9	94.580	-0.300	-0.480	1.490
2020/01/31 01:46:06.0	94.590	-0.250	-0.600	1.460
2020/01/31 01:46:06.1	94.600	-0.200	-0.710	1.430
2020/01/31 01:46:06.2	94.610	-0.160	-0.820	1.390
2020/01/31 01:46:06.3	94.630	-0.110	-0.920	1.350
2020/01/31 01:46:06.4	94.640	-0.060	-1.020	1.310
2020/01/31 01:46:06.5	94.660	-0.010	-1.110	1.270
2020/01/31 01:46:06.6	94.680	0.040	-1.200	1.220
2020/01/31 01:46:06.7	94.700	0.090	-1.270	1.170
2020/01/31 01:46:06.8	94.720	0.130	-1.340	1.120
2020/01/31 01:46:06.9	94.750	0.170	-1.400	1.070
2020/01/31 01:46:07.0	94.760	0.210	-1.450	1.020
2020/01/31 01:46:07.1	94.790	0.250	-1.490	0.960
2020/01/31 01:46:07.2	94.820	0.280	-1.520	0.900
2020/01/31 01:46:07.3	94.840	0.320	-1.530	0.850
2020/01/31 01:46:07.4	94.870	0.340	-1.530	0.790
2020/01/31 01:46:07.5	94.900	0.370	-1.530	0.730
2020/01/31 01:46:07.6	94.930	0.390	-1.500	0.680
2020/01/31 01:46:07.7	94.950	0.400	-1.470	0.620
2020/01/31 01:46:07.8	94.980	0.420	-1.430	0.560
2020/01/31 01:46:07.9	95.000	0.430	-1.370	0.510
2020/01/31 01:46:08.0	95.010	0.430	-1.300	0.460
2020/01/31 01:46:08.1	95.030	0.430	-1.230	0.400
2020/01/31 01:46:08.2	95.050	0.430	-1.140	0.350
2020/01/31 01:46:08.3	95.070	0.420	-1.050	0.300
2020/01/31 01:46:08.4	95.080	0.410	-0.950	0.260
2020/01/31 01:46:08.5	95.100	0.400	-0.850	0.210
2020/01/31 01:46:08.6	95.110	0.380	-0.740	0.170
2020/01/31 01:46:08.7	95.120	0.360	-0.620	0.140
2020/01/31 01:46:08.8	95.120	0.340	-0.510	0.100
2020/01/31 01:46:08.9	95.130	0.320	-0.390	0.070
2020/01/31 01:46:09.0	95.130	0.290	-0.260	0.050
2020/01/31 01:46:09.1	95.130	0.260	-0.150	0.020
2020/01/31 01:46:09.2	95.130	0.240	-0.030	0.000
2020/01/31 01:46:09.3	95.130	0.210	0.080	-0.010
2020/01/31 01:46:09.4	95.120	0.180	0.190	-0.030
2020/01/31 01:46:09.5	95.110	0.150	0.300	-0.040
2020/01/31 01:46:09.6	95.110	0.120	0.400	-0.040
2020/01/31 01:46:09.7	95.100	0.090	0.490	-0.040
2020/01/31 01:46:09.8	95.090	0.060	0.570	-0.040
2020/01/31 01:46:09.9	95.070	0.040	0.650	-0.030
2020/01/31 01:46:10.0	95.080	0.010	0.720	-0.020
2020/01/31 01:46:10.1	95.070	-0.010	0.780	-0.000
2020/01/31 01:46:10.2	95.050	-0.030	0.830	0.010
2020/01/31 01:46:10.3	95.040	-0.050	0.870	0.030
2020/01/31 01:46:10.4	95.020	-0.070	0.900	0.060
2020/01/31 01:46:10.5	95.010	-0.080	0.920	0.080
2020/01/31 01:46:10.6	95.000	-0.090	0.930	0.110
2020/01/31 01:46:10.7	94.980	-0.100	0.930	0.140
2020/01/31 01:46:10.8	94.970	-0.100	0.920	0.170
2020/01/31 01:46:10.9	94.950	-0.100	0.900	0.200
2020/01/31 01:46:11.0	94.930	-0.100	0.880	0.240
2020/01/31 01:46:11.1	94.910	-0.090	0.840	0.270
2020/01/31 01:46:11.2	94.900	-0.080	0.800	0.310
2020/01/31 01:46:11.3	94.890	-0.070	0.750	0.340
2020/01/31 01:46:11.4	94.880	-0.060	0.690	0.380
2020/01/31 01:46:11.5	94.880	-0.040	0.630	0.410
2020/01/31 01:46:11.6	94.870	-0.020	0.560	0.450
2020/01/31 01:46:11.7	94.870	-0.000	0.490	0.480
2020/01/31 01:46:11.8	94.860	0.020	0.420	0.510
2020/01/31 01:46:11.9	94.860	0.040	0.340	0.540
2020/01/31 01:46:12.0	94.870	0.070	0.250	0.570
2020/01/31 01:46:12.1	94.870	0.090	0.170	0.590
2020/01/31 01:46:12.2	94.870	0.110	0.090	0.620
2020/01/31 01:46:12.3	94.870	0.140	0.010	0.640
2020/01/31 01:46:12.4	94.880	0.160	-0.070	0.670
2020/01/31 01:46:12.5	94.880	0.180	-0.150	0.690
2020/01/31 01:46:12.6	94.880	0.210	-0.230	0.710
2020/01/31 01:46:12.7	94.880	0.220	-0.300	0.730
2020/01/31 01:46:12.8	94.880	0.240	-0.370	0.750
2020/01/31 01:46:12.9	94.880	0.260	-0.440	0.760
2020/01/31 01:46:13.0	94.880	0.270	-0.500	0.790
2020/01/31 01:46:13.1	94.880	0.280	-0.550	0.800
2020/01/31 01:46:13.2	94.880	0.290	-0.600	0.820
2020/01/31 01:46:13.3	94.870	0.300	-0.650	0.840
2020/01/31 01:46:13.4	94.870	0.300	-0.680	0.860
2020/01/31 01:46:13.5	94.870	0.300	-0.710	0.870
2020/01/31 01:46:13.6	94.860	0.300	-0.740	0.890
2020/01/31 01:46:13.7	94.860	0.290	-0.750	0.910
2020/01/31 01:46:13.8	94.850	0.280	-0.760	0.930
2020/01/31 01:46:13.9	94.850	0.270	-0.770	0.950
2020/01/31 01:46:14.0	94.850	0.260	-0.760	0.970
2020/01/31 01:46:14.1	94.840	0.250	-0.750	1.000
2020/01/31 01:46:14.2	94.830	0.230	-0.740	1.020
2020/01/31 01:46:14.3	94.820	0.210	-0.720	1.050
2020/01/31 01:46:14.4	94.810	0.190	-0.700	1.080
2020/01/31 01:46:14.5	94.790	0.170	-0.670	1.100
2020/01/31 01:46:14.6	94.780	0.150	-0.640	1.130
2020/01/31 01:46:14.7	94.770	0.130	-0.610	1.160
2020/01/31 01:46:14.8	94.760	0.110	-0.570	1.200
2020/01/31 01:46:14.9	94.740	0.090	-0.530	1.230
2020/01/31 01:46:15.0	94.740	0.070	-0.490	1.270
2020/01/31 01:46:15.1	94.730	0.050	-0.450	1.300
2020/01/31 01:46:15.2	94.720	0.030	-0.410	1.330
2020/01/31 01:46:15.3	94.710	0.010	-0.360	1.360
2020/01/31 01:46:15.4	94.690	-0.000	-0.320	1.390
2020/01/31 01:46:15.5	94.680	-0.020	-0.280	1.420
2020/01/31 01:46:15.6	94.670	-0.030	-0.240	1.450
2020/01/31 01:46:15.7	94.660	-0.050	-0.200	1.470
2020/01/31 01:46:15.8	94.650	-0.060	-0.170	1.500
2020/01/31 01:46:15.9	94.640	-0.070	-0.130	1.520
2020/01/31 01:46:16.0	94.620	-0.070	-0.100	1.540
2020/01/31 01:46:16.1	94.610	-0.080	-0.070	1.560
2020/01/31 01:46:16.2	94.600	-0.080	-0.040	1.580
2020/01/31 01:46:16.3	94.590	-0.090	-0.020	1.600
2020/01/31 01:46:16.4	94.580	-0.090	0.010	1.610
2020/01/31 01:46:16.5	94.580	-0.090	0.030	1.620
2020/01/31 01:46:16.6	94.570	-0.090	0.040	1.620
2020/01/31 01:46:16.7	94.560	-0.080	0.060	1.630
2020/01/31 01:46:16.8	94.560	-0.080	0.070	1.630
2020/01/31 01:46:16.9	94.560	-0.080	0.070	1.630
2020/01/31 01:46:17.0	94.550	-0.070	0.080	1.630
2020/01/31 01:46:17.1	94.550	-0.060	0.090	1.620
2020/01/31 01:46:17.2	94.550	-0.060	0.090	1.610
2020/01/31 01:46:17.3	94.550	-0.050	0.080	1.600
2020/01/31 01:46:17.4	94.550	-0.050	0.080	1.580
2020/01/31 01:46:17.5	94.550	-0.040	0.070	1.560
2020/01/31 01:46:17.6	94.550	-0.030	0.060	1.550
2020/01/31 01:46:17.7	94.560	-0.030	0.050	1.530
2020/01/31 01:46:17.8	94.560	-0.020	0.030	1.500
2020/01/31 01:46:17.9	94.570	-0.020	0.020	1.480
2020/01/31 01:46:18.0	94.570	-0.010	-0.000	1.450
2020/01/31 01:46:18.1	94.580	-0.010	-0.020	1.430
2020/01/31 01:46:18.2	94.590	-0.000	-0.040	1.400
2020/01/31 01:46:18.3	94.600	0.000	-0.060	1.370
2020/01/31 01:46:18.4	94.610	0.000	-0.070	1.350
2020/01/31 01:46:18.5	94.620	0.000	-0.090	1.320
2020/01/31 01:46:18.6	94.630	0.000	-0.110	1.290
2020/01/31 01:46:18.7	94.640	0.000	-0.130	1.270
2020/01/31 01:46:18.8	94.650	0.000	-0.150	1.240
2020/01/31 01:46:18.9	94.670	0.000	-0.170	1.210
2020/01/31 01:46:19.0	94.660	0.000	-0.190	1.190
2020/01/31 01:46:19.1	94.670	-0.000	-0.210	1.170
2020/01/31 01:46:19.2	94.680	-0.000	-0.230	1.150
2020/01/31 01:46:19.3	94.690	-0.010	-0.240	1.120
2020/01/31 01:46:19.4	94.700	-0.010	-0.260	1.100
2020/01/31 01:46:19.5	94.700	-0.020	-0.270	1.080
2020/01/31 01:46:19.6	94.710	-0.020	-0.290	1.060
2020/01/31 01:46:19.7	94.720	-0.020	-0.300	1.040
2020/01/31 01:46:19.8	94.720	-0.030	-0.310	1.020
2020/01/31 01:46:19.9	94.720	-0.030	-0.320	1.000
2020/01/31 01:46:20.0	94.740	-0.040	-0.320	0.980
2020/01/31 01:46:20.1	94.740	-0.040	-0.330	0.960
2020/01/31 01:46:20.2	94.740	-0.050	-0.330	0.950
2020/01/31 01:46:20.3	94.740	-0.050	-0.330	0.930
2020/01/31 01:46:20.4	94.740	-0.060	-0.340	0.910
2020/01/31 01:46:20.5	94.740	-0.060	-0.330	0.900
2020/01/31 01:46:20.6	94.740	-0.070	-0.330	0.880
2020/01/31 01:46:20.7	94.740	-0.070	-0.330	0.860
2020/01/31 01:46:20.8	94.730	-0.080	-0.320	0.850
2020/01/31 01:46:20.9	94.730	-0.080	-0.310	0.830
2020/01/31 01:46:21.0	94.730	-0.090	-0.300	0.820
2020/01/31 01:46:21.1	94.720	-0.090	-0.290	0.800
2020/01/31 01:46:21.2	94.720	-0.100	-0.280	0.790
2020/01/31 01:46:21.3	94.720	-0.100	-0.270	0.770
2020/01/31 01:46:21.4	94.710	-0.100	-0.250	0.750
2020/01/31 01:46:21.5	94.710	-0.110	-0.240	0.740
2020/01/31 01:46:21.6	94.710	-0.110	-0.220	0.730
2020/01/31 01:46:21.7	94.700	-0.120	-0.200	0.710
2020/01/31 01:46:21.8	94.700	-0.120	-0.180	0.700
2020/01/31 01:46:21.9	94.690	-0.130	-0.150	0.690
2020/01/31 01:46:22.0	94.680	-0.140	-0.130	0.690
2020/01/31 01:46:22.1	94.680	-0.140	-0.100	0.680
2020/01/31 01:46:22.2	94.680	-0.150	-0.070	0.670
2020/01/31 01:46:22.3	94.670	-0.150	-0.040	0.660
2020/01/31 01:46:22.4	94.670	-0.160	-0.020	0.660
2020/01/31 01:46:22.5	94.660	-0.170	0.010	0.650
2020/01/31 01:46:22.6	94.660	-0.180	0.050	0.650
2020/01/31 01:46:22.7	94.650	-0.180	0.080	0.640
2020/01/31 01:46:22.8	94.650	-0.190	0.110	0.640
2020/01/31 01:46:22.9	94.640	-0.200	0.140	0.630
2020/01/31 01:46:23.0	94.630	-0.210	0.170	0.630
2020/01/31 01:46:23.1	94.630	-0.210	0.200	0.620
2020/01/31 01:46:23.2	94.620	-0.220	0.230	0.610
2020/01/31 01:46:23.3	94.620	-0.230	0.260	0.600
2020/01/31 01:46:23.4	94.610	-0.230	0.290	0.590
2020/01/31 01:46:23.5	94.610	-0.240	0.320	0.580
2020/01/31 01:46:23.6	94.600	-0.250	0.340	0.570
2020/01/31 01:46:23.7	94.600	-0.250	0.360	0.560
2020/01/31 01:46:23.8	94.600	-0.250	0.380	0.540
2020/01/31 01:46:23.9	94.590	-0.250	0.400	0.520
2020/01/31 01:46:24.0	94.600	-0.260	0.420	0.510
2020/01/31 01:46:24.1	94.590	-0.250	0.430	0.480
2020/01/31 01:46:24.2	94.590	-0.250	0.430	0.460
2020/01/31 01:46:24.3	94.590	-0.250	0.430	0.440
2020/01/31 01:46:24.4	94.590	-0.240	0.430	0.410
2020/01/31 01:46:24.5	94.590	-0.230	0.420	0.380
2020/01/31 01:46:24.6	94.590	-0.220	0.400	0.350
2020/01/31 01:46:24.7	94.590	-0.210	0.380	0.330
2020/01/31 01:46:24.8	94.590	-0.190	0.360	0.300
2020/01/31 01:46:24.9	94.590	-0.170	0.330	0.270
2020/01/31 01:46:25.0	94.570	-0.150	0.290	0.240
2020/01/31 01:46:25.1	94.570	-0.130	0.240	0.210
2020/01/31 01:46:25.2	94.570	-0.110	0.200	0.180
2020/01/31 01:46:25.3	94.570	-0.080	0.150	0.160
2020/01/31 01:46:25.4	94.570	-0.050	0.090	0.130
2020/01/31 01:46:25.5	94.570	-0.020	0.030	0.110
2020/01/31 01:46:25.6	94.570	0.020	-0.030	0.090
2020/01/31 01:46:25.7	94.560	0.050	-0.100	0.070
2020/01/31 01:46:25.8	94.560	0.090	-0.160	0.050
2020/01/31 01:46:25.9	94.550	0.120	-0.230	0.040
2020/01/31 01:46:26.0	94.560	0.160	-0.300	0.030
2020/01/31 01:46:26.1	94.550	0.200	-0.370	0.030
2020/01/31 01:46:26.2	94.540	0.230	-0.440	0.030
2020/01/31 01:46:26.3	94.530	0.270	-0.510	0.030
2020/01/31 01:46:26.4	94.520	0.310	-0.570	0.030
2020/01/31 01:46:26.5	94.510	0.340	-0.640	0.040
2020/01/31 01:46:26.6	94.500	0.380	-0.700	0.050
2020/01/31 01:46:26.7	94.490	0.410	-0.760	0.060
2020/01/31 01:46:26.8	94.470	0.440	-0.810	0.080
2020/01/31 01:46:26.9	94.460	0.470	-0.860	0.100
2020/01/31 01:46:27.0	94.430	0.490	-0.900	0.120
2020/01/31 01:46:27.1	94.420	0.510	-0.940	0.150
2020/01/31 01:46:27.2	94.410	0.530	-0.970	0.170
2020/01/31 01:46:27.3	94.390	0.550	-1.000	0.200
2020/01/31 01:46:27.4	94.380	0.560	-1.020	0.230
2020/01/31 01:46:27.5	94.370	0.570	-1.030	0.260
2020/01/31 01:46:27.6	94.350	0.580	-1.040	0.290
2020/01/31 01:46:27.7	94.340	0.580	-1.030	0.320
2020/01/31 01:46:27.8	94.330	0.570	-1.030	0.360
2020/01/31 01:46:27.9	94.320	0.570	-1.010	0.390
2020/01/31 01:46:28.0	94.320	0.560	-0.990	0.420
2020/01/31 01:46:28.1	94.310	0.540	-0.970	0.460
2020/01/31 01:46:28.2	94.300	0.530	-0.930	0.490
2020/01/31 01:46:28.3	94.290	0.500	-0.890	0.520
2020/01/31 01:46:28.4	94.280	0.480	-0.850	0.560
2020/01/31 01:46:28.5	94.280	0.450	-0.800	0.590
2020/01/31 01:46:28.6	94.270	0.420	-0.750	0.620
2020/01/31 01:46:28.7	94.260	0.390	-0.690	0.660
2020/01/31 01:46:28.8	94.260	0.350	-0.630	0.690
2020/01/31 01:46:28.9	94.250	0.320	-0.570	0.720
2020/01/31 01:46:29.0	94.260	0.280	-0.500	0.760
2020/01/31 01:46:29.1	94.260	0.240	-0.440	0.790
2020/01/31 01:46:29.2	94.250	0.190	-0.370	0.820
2020/01/31 01:46:29.3	94.250	0.150	-0.300	0.860
2020/01/31 01:46:29.4	94.250	0.110	-0.240	0.890
2020/01/31 01:46:29.5	94.250	0.070	-0.170	0.920
2020/01/31 01:46:29.6	94.250	0.020	-0.110	0.950
2020/01/31 01:46:29.7	94.250	-0.020	-0.050	0.980
2020/01/31 01:46:29.8	94.250	-0.060	0.010	1.010
2020/01/31 01:46:29.9	94.260	-0.100	0.070	1.040
2020/01/31 01:46:30.0	94.260	-0.140	0.120	1.080
2020/01/31 01:46:30.1	94.270	-0.170	0.160	1.110
2020/01/31 01:46:30.2	94.280	-0.210	0.210	1.140
2020/01/31 01:46:30.3	94.290	-0.240	0.250	1.170
2020/01/31 01:46:30.4	94.300	-0.270	0.280	1.200
2020/01/31 01:46:30.5	94.310	-0.290	0.310	1.220
2020/01/31 01:46:30.6	94.330	-0.320	0.330	1.250
2020/01/31 01:46:30.7	94.340	-0.340	0.350	1.280
2020/01/31 01:46:30.8	94.360	-0.360	0.360	1.310
2020/01/31 01:46:30.9	94.370	-0.370	0.370	1.340
2020/01/31 01:46:31.0	94.390	-0.380	0.370	1.360
2020/01/31 01:46:31.1	94.410	-0.390	0.370	1.390
2020/01/31 01:46:31.2	94.430	-0.400	0.360	1.420
2020/01/31 01:46:31.3	94.450	-0.400	0.350	1.450
2020/01/31 01:46:31.4	94.460	-0.410	0.330	1.470
2020/01/31 01:46:31.5	94.480	-0.400	0.320	1.500
2020/01/31 01:46:31.6	94.500	-0.400	0.300	1.530
2020/01/31 01:46:31.7	94.520	-0.400	0.280	1.560
2020/01/31 01:46:31.8	94.530	-0.390	0.250	1.590
2020/01/31 01:46:31.9	94.550	-0.380	0.230	1.620
2020/01/31 01:46:32.0	94.550	-0.370	0.200	1.660
2020/01/31 01:46:32.1	94.560	-0.370	0.180	1.690
2020/01/31 01:46:32.2	94.580	-0.360	0.160	1.720
2020/01/31 01:46:32.3	94.590	-0.340	0.130	1.750
2020/01/31 01:46:32.4	94.600	-0.330	0.120	1.780
2020/01/31 01:46:32.5	94.610	-0.320	0.100	1.800
2020/01/31 01:46:32.6	94.610	-0.310	0.090	1.830
2020/01/31 01:46:32.7	94.620	-0.300	0.070	1.850
2020/01/31 01:46:32.8	94.620	-0.300	0.060	1.880
2020/01/31 01:46:32.9	94.620	-0.290	0.060	1.900
2020/01/31 01:46:33.0	94.650	-0.280	0.060	1.920
2020/01/31 01:46:33.1	94.650	-0.270	0.060	1.930
2020/01/31 01:46:33.2	94.650	-0.270	0.060	1.950
2020/01/31 01:46:33.3	94.640	-0.260	0.060	1.950
2020/01/31 01:46:33.4	94.640	-0.260	0.070	1.960
2020/01/31 01:46:33.5	94.640	-0.250	0.080	1.960
2020/01/31 01:46:33.6	94.630	-0.250	0.090	1.960
2020/01/31 01:46:33.7	94.620	-0.250	0.100	1.950
2020/01/31 01:46:33.8	94.620	-0.240	0.110	1.940
2020/01/31 01:46:33.9	94.610	-0.240	0.120	1.930
2020/01/31 01:46:34.0	94.610	-0.240	0.140	1.910
2020/01/31 01:46:34.1	94.600	-0.240	0.150	1.890
2020/01/31 01:46:34.2	94.590	-0.230	0.160	1.860
2020/01/31 01:46:34.3	94.580	-0.230	0.170	1.820
2020/01/31 01:46:34.4	94.570	-0.230	0.170	1.790
2020/01/31 01:46:34.5	94.550	-0.220	0.180	1.750
2020/01/31 01:46:34.6	94.540	-0.210	0.180	1.700
2020/01/31 01:46:34.7	94.530	-0.210	0.180	1.660
2020/01/31 01:46:34.8	94.520	-0.200	0.180	1.600
2020/01/31 01:46:34.9	94.510	-0.190	0.170	1.550
2020/01/31 01:46:35.0	94.490	-0.170	0.160	1.490
2020/01/31 01:46:35.1	94.480	-0.160	0.150	1.430
2020/01/31 01:46:35.2	94.470	-0.150	0.130	1.370
2020/01/31 01:46:35.3	94.460	-0.130	0.110	1.300
2020/01/31 01:46:35.4	94.450	-0.110	0.090	1.230
2020/01/31 01:46:35.5	94.440	-0.090	0.060	1.160
2020/01/31 01:46:35.6	94.440	-0.060	0.030	1.090
2020/01/31 01:46:35.7	94.430	-0.040	-0.000	1.020
2020/01/31 01:46:35.8	94.420	-0.010	-0.040	0.950
2020/01/31 01:46:35.9	94.420	0.010	-0.080	0.880
2020/01/31 01:46:36.0	94.410	0.040	-0.120	0.810
2020/01/31 01:46:36.1	94.410	0.070	-0.170	0.740
2020/01/31 01:46:36.2	94.400	0.110	-0.210	0.670
2020/01/31 01:46:36.3	94.400	0.140	-0.260	0.610
2020/01/31 01:46:36.4	94.400	0.170	-0.310	0.540
2020/01/31 01:46:36.5	94.400	0.210	-0.360	0.480
2020/01/31 01:46:36.6	94.400	0.240	-0.410	0.420
2020/01/31 01:46:36.7	94.410	0.280	-0.460	0.360
2020/01/31 01:46:36.8	94.410	0.310	-0.510	0.300
2020/01/31 01:46:36.9	94.410	0.350	-0.560	0.240
2020/01/31 01:46:37.0	94.400	0.380	-0.610	0.190
2020/01/31 01:46:37.1	94.410	0.410	-0.660	0.130
2020/01/31 01:46:37.2	94.410	0.440	-0.710	0.080
2020/01/31 01:46:37.3	94.420	0.480	-0.750	0.030
2020/01/31 01:46:37.4	94.430	0.500	-0.790	-0.010
2020/01/31 01:46:37.5	94.430	0.530	-0.830	-0.060
2020/01/31 01:46:37.6	94.440	0.560	-0.860	-0.110
2020/01/31 01:46:37.7	94.450	0.580	-0.890	-0.150
2020/01/31 01:46:37.8	94.460	0.600	-0.920	-0.190
2020/01/31 01:46:37.9	94.460	0.620	-0.940	-0.230
2020/01/31 01:46:38.0	94.480	0.630	-0.960	-0.270
2020/01/31 01:46:38.1	94.490	0.640	-0.970	-0.310
2020/01/31 01:46:38.2	94.500	0.650	-0.970	-0.340
2020/01/31 01:46:38.3	94.500	0.660	-0.970	-0.370
2020/01/31 01:46:38.4	94.510	0.660	-0.970	-0.400
2020/01/31 01:46:38.5	94.520	0.660	-0.950	-0.430
2020/01/31 01:46:38.6	94.530	0.650	-0.940	-0.450
2020/01/31 01:46:38.7	94.530	0.640	-0.910	-0.470
2020/01/31 01:46:38.8	94.540	0.630	-0.880	-0.490
2020/01/31 01:46:38.9	94.540	0.610	-0.850	-0.500
2020/01/31 01:46:39.0	94.550	0.590	-0.800	-0.500
2020/01/31 01:46:39.1	94.550	0.570	-0.760	-0.500
2020/01/31 01:46:39.2	94.550	0.540	-0.710	-0.500
2020/01/31 01:46:39.3	94.550	0.510	-0.650	-0.490
2020/01/31 01:46:39.4	94.540	0.480	-0.590	-0.480
2020/01/31 01:46:39.5	94.540	0.440	-0.530	-0.460
2020/01/31 01:46:39.6	94.530	0.400	-0.460	-0.440
2020/01/31 01:46:39.7	94.520	0.360	-0.390	-0.410
2020/01/31 01:46:39.8	94.510	0.310	-0.320	-0.380
2020/01/31 01:46:39.9	94.500	0.270	-0.250	-0.340
2020/01/31 01:46:40.0	94.480	0.220	-0.180	-0.290
2020/01/31 01:46:40.1	94.460	0.170	-0.100	-0.240
2020/01/31 01:46:40.2	94.440	0.120	-0.030	-0.190
2020/01/31 01:46:40.3	94.430	0.070	0.050	-0.140
2020/01/31 01:46:40.4	94.410	0.010	0.120	-0.070
2020/01/31 01:46:40.5	94.390	-0.040	0.190	-0.010
2020/01/31 01:46:40.6	94.370	-0.090	0.270	0.060
2020/01/31 01:46:40.7	94.360	-0.140	0.330	0.120
2020/01/31 01:46:40.8	94.340	-0.190	0.400	0.190
2020/01/31 01:46:40.9	94.320	-0.240	0.460	0.270
2020/01/31 01:46:41.0	94.320	-0.290	0.520	0.340
2020/01/31 01:46:41.1	94.310	-0.340	0.570	0.410
2020/01/31 01:46:41.2	94.290	-0.380	0.620	0.480
2020/01/31 01:46:41.3	94.280	-0.430	0.660	0.550
2020/01/31 01:46:41.4	94.270	-0.460	0.700	0.620
2020/01/31 01:46:41.5	94.260	-0.500	0.730	0.690
2020/01/31 01:46:41.6	94.250	-0.530	0.750	0.750
2020/01/31 01:46:41.7	94.250	-0.560	0.770	0.820
2020/01/31 01:46:41.8	94.240	-0.590	0.780	0.880
2020/01/31 01:46:41.9	94.240	-0.610	0.790	0.930
2020/01/31 01:46:42.0	94.230	-0.630	0.780	1.000
2020/01/31 01:46:42.1	94.220	-0.640	0.770	1.050
2020/01/31 01:46:42.2	94.220	-0.650	0.760	1.100
2020/01/31 01:46:42.3	94.220	-0.660	0.730	1.150
2020/01/31 01:46:42.4	94.230	-0.660	0.710	1.190
2020/01/31 01:46:42.5	94.230	-0.650	0.670	1.240
2020/01/31 01:46:42.6	94.230	-0.650	0.630	1.280
2020/01/31 01:46:42.7	94.230	-0.630	0.580	1.320
2020/01/31 01:46:42.8	94.240	-0.620	0.530	1.360
2020/01/31 01:46:42.9	94.240	-0.600	0.480	1.390
2020/01/31 01:46:43.0	94.270	-0.580	0.410	1.420
2020/01/31 01:46:43.1	94.270	-0.550	0.350	1.450
2020/01/31 01:46:43.2	94.280	-0.530	0.280	1.480
2020/01/31 01:46:43.3	94.290	-0.490	0.210	1.510
2020/01/31 01:46:43.4	94.300	-0.460	0.140	1.540
2020/01/31 01:46:43.5	94.310	-0.430	0.060	1.560
2020/01/31 01:46:43.6	94.320	-0.390	-0.020	1.580
2020/01/31 01:46:43.7	94.330	-0.350	-0.090	1.600
2020/01/31 01:46:43.8	94.350	-0.310	-0.170	1.620
2020/01/31 01:46:43.9	94.360	-0.270	-0.240	1.640
2020/01/31 01:46:44.0	94.380	-0.230	-0.320	1.660
2020/01/31 01:46:44.1	94.400	-0.190	-0.390	1.670
2020/01/31 01:46:44.2	94.420	-0.150	-0.460	1.670
2020/01/31 01:46:44.3	94.440	-0.110	-0.530	1.680
2020/01/31 01:46:44.4	94.470	-0.070	-0.590	1.680
2020/01/31 01:46:44.5	94.490	-0.030	-0.650	1.680
2020/01/31 01:46:44.6	94.520	0.010	-0.700	1.670
2020/01/31 01:46:44.7	94.550	0.040	-0.750	1.670
2020/01/31 01:46:44.8	94.580	0.080	-0.790	1.660
2020/01/31 01:46:44.9	94.610	0.110	-0.830	1.640
2020/01/31 01:46:45.0	94.650	0.140	-0.860	1.630
2020/01/31 01:46:45.1	94.680	0.160	-0.880	1.610
2020/01/31 01:46:45.2	94.710	0.190	-0.900	1.600
2020/01/31 01:46:45.3	94.750	0.210	-0.910	1.580
2020/01/31 01:46:45.4	94.780	0.230	-0.920	1.560
2020/01/31 01:46:45.5	94.820	0.250	-0.920	1.540
2020/01/31 01:46:45.6	94.850	0.260	-0.910	1.520
2020/01/31 01:46:45.7	94.890	0.270	-0.890	1.500
2020/01/31 01:46:45.8	94.920	0.280	-0.870	1.480
2020/01/31 01:46:45.9	94.950	0.280	-0.840	1.460
2020/01/31 01:46:46.0	94.980	0.290	-0.800	1.440
2020/01/31 01:46:46.1	95.010	0.290	-0.760	1.420
2020/01/31 01:46:46.2	95.040	0.290	-0.720	1.400
2020/01/31 01:46:46.3	95.060	0.280	-0.670	1.380
2020/01/31 01:46:46.4	95.080	0.280	-0.610	1.360
2020/01/31 01:46:46.5	95.100	0.270	-0.550	1.340
2020/01/31 01:46:46.6	95.120	0.260	-0.490	1.330
2020/01/31 01:46:46.7	95.130	0.250	-0.430	1.320
2020/01/31 01:46:46.8	95.130	0.240	-0.360	1.310
2020/01/31 01:46:46.9	95.140	0.220	-0.290	1.300
2020/01/31 01:46:47.0	95.130	0.210	-0.220	1.290
2020/01/31 01:46:47.1	95.120	0.190	-0.150	1.280
2020/01/31 01:46:47.2	95.110	0.180	-0.080	1.280
2020/01/31 01:46:47.3	95.100	0.160	-0.010	1.270
2020/01/31 01:46:47.4	95.080	0.140	0.050	1.270
2020/01/31 01:46:47.5	95.060	0.130	0.120	1.270
2020/01/31 01:46:47.6	95.030	0.110	0.180	1.260
2020/01/31 01:46:47.7	95.010	0.090	0.230	1.260
2020/01/31 01:46:47.8	94.970	0.080	0.280	1.260
2020/01/31 01:46:47.9	94.940	0.060	0.330	1.260
2020/01/31 01:46:48.0	94.890	0.050	0.380	1.250
2020/01/31 01:46:48.1	94.850	0.030	0.410	1.250
2020/01/31 01:46:48.2	94.810	0.020	0.440	1.250
2020/01/31 01:46:48.3	94.770	0.010	0.460	1.240
2020/01/31 01:46:48.4	94.720	-0.000	0.480	1.240
2020/01/31 01:46:48.5	94.680	-0.010	0.480	1.230
2020/01/31 01:46:48.6	94.630	-0.020	0.490	1.220
2020/01/31 01:46:48.7	94.590	-0.030	0.480	1.210
2020/01/31 01:46:48.8	94.550	-0.040	0.470	1.200
2020/01/31 01:46:48.9	94.500	-0.040	0.450	1.180
2020/01/31 01:46:49.0	94.460	-0.050	0.420	1.170
2020/01/31 01:46:49.1	94.420	-0.050	0.390	1.150
2020/01/31 01:46:49.2	94.390	-0.050	0.350	1.130
2020/01/31 01:46:49.3	94.350	-0.060	0.310	1.110
2020/01/31 01:46:49.4	94.320	-0.060	0.260	1.080
2020/01/31 01:46:49.5	94.290	-0.050	0.210	1.050
2020/01/31 01:46:49.6	94.260	-0.050	0.160	1.020
2020/01/31 01:46:49.7	94.240	-0.050	0.100	0.990
2020/01/31 01:46:49.8	94.220	-0.050	0.040	0.960
2020/01/31 01:46:49.9	94.200	-0.040	-0.020	0.930
2020/01/31 01:46:50.0	94.190	-0.040	-0.080	0.890
2020/01/31 01:46:50.1	94.170	-0.040	-0.150	0.850
2020/01/31 01:46:50.2	94.170	-0.030	-0.210	0.810
2020/01/31 01:46:50.3	94.160	-0.030	-0.270	0.770
2020/01/31 01:46:50.4	94.160	-0.020	-0.330	0.730
2020/01/31 01:46:50.5	94.160	-0.020	-0.390	0.690
2020/01/31 01:46:50.6	94.170	-0.010	-0.450	0.640
2020/01/31 01:46:50.7	94.180	-0.010	-0.510	0.600
2020/01/31 01:46:50.8	94.190	-0.010	-0.560	0.550
2020/01/31 01:46:50.9	94.200	-0.000	-0.610	0.500
2020/01/31 01:46:51.0	94.200	-0.000	-0.650	0.450
2020/01/31 01:46:51.1	94.220	-0.000	-0.690	0.410
2020/01/31 01:46:51.2	94.240	0.000	-0.720	0.360
2020/01/31 01:46:51.3	94.260	0.000	-0.750	0.310
2020/01/31 01:46:51.4	94.280	0.000	-0.780	0.260
2020/01/31 01:46:51.5	94.310	-0.000	-0.790	0.210
2020/01/31 01:46:51.6	94.330	-0.000	-0.800	0.170
2020/01/31 01:46:51.7	94.360	-0.010	-0.810	0.120
2020/01/31 01:46:51.8	94.380	-0.010	-0.810	0.070
2020/01/31 01:46:51.9	94.410	-0.010	-0.800	0.030
2020/01/31 01:46:52.0	94.450	-0.020	-0.780	-0.010
2020/01/31 01:46:52.1	94.480	-0.020	-0.770	-0.050
2020/01/31 01:46:52.2	94.510	-0.030	-0.740	-0.080
2020/01/31 01:46:52.3	94.540	-0.030	-0.710	-0.120
2020/01/31 01:46:52.4	94.570	-0.040	-0.680	-0.150
2020/01/31 01:46:52.5	94.590	-0.040	-0.640	-0.180
2020/01/31 01:46:52.6	94.620	-0.050	-0.590	-0.210
2020/01/31 01:46:52.7	94.650	-0.050	-0.550	-0.240
2020/01/31 01:46:52.8	94.680	-0.060	-0.490	-0.260
2020/01/31 01:46:52.9	94.700	-0.060	-0.440	-0.280
2020/01/31 01:46:53.0	94.730	-0.060	-0.380	-0.290
2020/01/31 01:46:53.1	94.760	-0.070	-0.330	-0.310
2020/01/31 01:46:53.2	94.780	-0.070	-0.270	-0.320
2020/01/31 01:46:53.3	94.800	-0.070	-0.210	-0.330
2020/01/31 01:46:53.4	94.820	-0.070	-0.150	-0.340
2020/01/31 01:46:53.5	94.840	-0.070	-0.090	-0.340
2020/01/31 01:46:53.6	94.860	-0.070	-0.030	-0.340
2020/01/31 01:46:53.7	94.870	-0.070	0.030	-0.340
2020/01/31 01:46:53.8	94.880	-0.070	0.080	-0.330
2020/01/31 01:46:53.9	94.900	-0.070	0.130	-0.320
2020/01/31 01:46:54.0	94.910	-0.060	0.180	-0.310
2020/01/31 01:46:54.1	94.920	-0.050	0.220	-0.290
2020/01/31 01:46:54.2	94.930	-0.050	0.270	-0.270
2020/01/31 01:46:54.3	94.930	-0.040	0.300	-0.250
2020/01/31 01:46:54.4	94.930	-0.030	0.340	-0.230
2020/01/31 01:46:54.5	94.930	-0.020	0.360	-0.210
2020/01/31 01:46:54.6	94.930	-0.010	0.390	-0.180
2020/01/31 01:46:54.7	94.930	-0.000	0.410	-0.150
2020/01/31 01:46:54.8	94.930	0.010	0.420	-0.110
2020/01/31 01:46:54.9	94.920	0.020	0.440	-0.080
2020/01/31 01:46:55.0	94.920	0.030	0.440	-0.040
2020/01/31 01:46:55.1	94.910	0.040	0.440	0.010
2020/01/31 01:46:55.2	94.900	0.050	0.440	0.050
2020/01/31 01:46:55.3	94.890	0.060	0.430	0.100
2020/01/31 01:46:55.4	94.880	0.070	0.420	0.150
2020/01/31 01:46:55.5	94.870	0.080	0.410	0.210
2020/01/31 01:46:55.6	94.860	0.090	0.390	0.270
2020/01/31 01:46:55.7	94.850	0.100	0.370	0.330
2020/01/31 01:46:55.8	94.830	0.110	0.340	0.390
2020/01/31 01:46:55.9	94.820	0.120	0.310	0.450
2020/01/31 01:46:56.0	94.810	0.130	0.280	0.520
2020/01/31 01:46:56.1	94.800	0.130	0.250	0.590
2020/01/31 01:46:56.2	94.790	0.140	0.210	0.650
2020/01/31 01:46:56.3	94.780	0.140	0.180	0.720
2020/01/31 01:46:56.4	94.770	0.150	0.140	0.790
2020/01/31 01:46:56.5	94.760	0.150	0.100	0.850
2020/01/31 01:46:56.6	94.750	0.150	0.060	0.920
2020/01/31 01:46:56.7	94.740	0.150	0.020	0.980
2020/01/31 01:46:56.8	94.740	0.160	-0.020	1.050
2020/01/31 01:46:56.9	94.740	0.160	-0.070	1.110
2020/01/31 01:46:57.0	94.740	0.160	-0.100	1.170
2020/01/31 01:46:57.1	94.740	0.150	-0.150	1.230
2020/01/31 01:46:57.2	94.740	0.150	-0.190	1.280
2020/01/31 01:46:57.3	94.740	0.150	-0.230	1.330
2020/01/31 01:46:57.4	94.740	0.150	-0.270	1.380
2020/01/31 01:46:57.5	94.750	0.140	-0.310	1.430
2020/01/31 01:46:57.6	94.760	0.140	-0.340	1.470
2020/01/31 01:46:57.7	94.770	0.140	-0.380	1.510
2020/01/31 01:46:57.8	94.780	0.130	-0.410	1.540
2020/01/31 01:46:57.9	94.790	0.130	-0.450	1.570
2020/01/31 01:46:58.0	94.800	0.120	-0.480	1.600
2020/01/31 01:46:58.1	94.810	0.120	-0.510	1.630
2020/01/31 01:46:58.2	94.830	0.120	-0.540	1.650
2020/01/31 01:46:58.3	94.840	0.110	-0.560	1.660
2020/01/31 01:46:58.4	94.860	0.110	-0.580	1.680
2020/01/31 01:46:58.5	94.880	0.100	-0.600	1.690
2020/01/31 01:46:58.6	94.900	0.100	-0.620	1.700
2020/01/31 01:46:58.7	94.910	0.090	-0.630	1.710
2020/01/31 01:46:58.8	94.930	0.090	-0.640	1.720
2020/01/31 01:46:58.9	94.950	0.080	-0.640	1.730
2020/01/31 01:46:59.0	94.980	0.080	-0.640	1.740
2020/01/31 01:46:59.1	95.000	0.070	-0.630	1.740
2020/01/31 01:46:59.2	95.010	0.070	-0.630	1.740
2020/01/31 01:46:59.3	95.030	0.060	-0.610	1.750
2020/01/31 01:46:59.4	95.040	0.050	-0.600	1.750
2020/01/31 01:46:59.5	95.050	0.050	-0.580	1.750
2020/01/31 01:46:59.6	95.060	0.040	-0.550	1.750
2020/01/31 01:46:59.7	95.060	0.030	-0.530	1.760
2020/01/31 01:46:59.8	95.070	0.020	-0.500	1.760
2020/01/31 01:46:59.9	95.080	0.010	-0.460	1.760
2020/01/31 01:47:00.0	95.090	-0.000	-0.430	1.770
2020/01/31 01:47:00.1	95.090	-0.010	-0.390	1.780
2020/01/31 01:47:00.2	95.090	-0.020	-0.350	1.780
2020/01/31 01:47:00.3	95.090	-0.040	-0.310	1.790
2020/01/31 01:47:00.4	95.090	-0.050	-0.270	1.790
2020/01/31 01:47:00.5	95.090	-0.070	-0.220	1.800
2020/01/31 01:47:00.6	95.080	-0.080	-0.180	1.800
2020/01/31 01:47:00.7	95.080	-0.100	-0.140	1.810
2020/01/31 01:47:00.8	95.080	-0.110	-0.100	1.810
2020/01/31 01:47:00.9	95.070	-0.130	-0.050	1.820
2020/01/31 01:47:01.0	95.060	-0.140	-0.010	1.820
2020/01/31 01:47:01.1	95.060	-0.160	0.030	1.820
2020/01/31 01:47:01.2	95.050	-0.180	0.060	1.820
2020/01/31 01:47:01.3	95.050	-0.190	0.090	1.820
2020/01/31 01:47:01.4	95.040	-0.210	0.120	1.810
2020/01/31 01:47:01.5	95.040	-0.220	0.150	1.810
2020/01/31 01:47:01.6	95.030	-0.240	0.180	1.800
2020/01/31 01:47:01.7	95.030	-0.250	0.200	1.790
2020/01/31 01:47:01.8	95.030	-0.260	0.210	1.780
2020/01/31 01:47:01.9	95.030	-0.280	0.230	1.760
2020/01/31 01:47:02.0	95.010	-0.290	0.240	1.740
2020/01/31 01:47:02.1	95.010	-0.300	0.240	1.720
2020/01/31 01:47:02.2	95.010	-0.300	0.240	1.690
2020/01/31 01:47:02.3	95.010	-0.310	0.240	1.670
2020/01/31 01:47:02.4	95.010	-0.310	0.230	1.630
2020/01/31 01:47:02.5	95.020	-0.320	0.220	1.600
2020/01/31 01:47:02.6	95.020	-0.320	0.210	1.560
2020/01/31 01:47:02.7	95.030	-0.310	0.190	1.520
2020/01/31 01:47:02.8	95.030	-0.310	0.170	1.480
2020/01/31 01:47:02.9	95.040	-0.300	0.150	1.430
2020/01/31 01:47:03.0	95.020	-0.290	0.120	1.380
2020/01/31 01:47:03.1	95.030	-0.280	0.090	1.330
2020/01/31 01:47:03.2	95.030	-0.270	0.060	1.280
2020/01/31 01:47:03.3	95.040	-0.250	0.030	1.230
2020/01/31 01:47:03.4	95.050	-0.240	-0.010	1.180
2020/01/31 01:47:03.5	95.050	-0.220	-0.040	1.130
2020/01/31 01:47:03.6	95.060	-0.200	-0.080	1.070
2020/01/31 01:47:03.7	95.070	-0.180	-0.120	1.020
2020/01/31 01:47:03.8	95.070	-0.150	-0.150	0.970
2020/01/31 01:47:03.9	95.080	-0.130	-0.190	0.910
2020/01/31 01:47:04.0	95.070	-0.100	-0.220	0.860
2020/01/31 01:47:04.1	95.080	-0.080	-0.250	0.810
2020/01/31 01:47:04.2	95.080	-0.050	-0.280	0.760
2020/01/31 01:47:04.3	95.080	-0.030	-0.310	0.710
2020/01/31 01:47:04.4	95.090	-0.000	-0.340	0.660
2020/01/31 01:47:04.5	95.090	0.020	-0.370	0.600
2020/01/31 01:47:04.6	95.090	0.050	-0.390	0.550
2020/01/31 01:47:04.7	95.090	0.070	-0.410	0.500
2020/01/31 01:47:04.8	95.090	0.090	-0.420	0.460
2020/01/31 01:47:04.9	95.090	0.110	-0.440	0.410
2020/01/31 01:47:05.0	95.070	0.130	-0.450	0.360
2020/01/31 01:47:05.1	95.080	0.150	-0.460	0.310
2020/01/31 01:47:05.2	95.080	0.170	-0.460	0.270
2020/01/31 01:47:05.3	95.080	0.180	-0.460	0.220
2020/01/31 01:47:05.4	95.080	0.190	-0.460	0.170
2020/01/31 01:47:05.5	95.080	0.200	-0.450	0.130
2020/01/31 01:47:05.6	95.080	0.210	-0.440	0.080
2020/01/31 01:47:05.7	95.080	0.210	-0.430	0.040
2020/01/31 01:47:05.8	95.080	0.220	-0.420	-0.000
2020/01/31 01:47:05.9	95.080	0.220	-0.400	-0.040
2020/01/31 01:47:06.0	95.090	0.220	-0.380	-0.080
2020/01/31 01:47:06.1	95.090	0.220	-0.360	-0.120
2020/01/31 01:47:06.2	95.090	0.210	-0.340	-0.150
2020/01/31 01:47:06.3	95.100	0.210	-0.320	-0.190
2020/01/31 01:47:06.4	95.100	0.200	-0.300	-0.220
2020/01/31 01:47:06.5	95.110	0.190	-0.280	-0.260
2020/01/31 01:47:06.6	95.110	0.180	-0.260	-0.290
2020/01/31 01:47:06.7	95.120	0.170	-0.240	-0.320
2020/01/31 01:47:06.8	95.120	0.160	-0.210	-0.340
2020/01/31 01:47:06.9	95.130	0.140	-0.190	-0.370
2020/01/31 01:47:07.0	95.140	0.130	-0.170	-0.390
2020/01/31 01:47:07.1	95.150	0.120	-0.160	-0.410
2020/01/31 01:47:07.2	95.150	0.100	-0.140	-0.420
2020/01/31 01:47:07.3	95.160	0.090	-0.120	-0.440
2020/01/31 01:47:07.4	95.170	0.070	-0.100	-0.450
2020/01/31 01:47:07.5	95.180	0.060	-0.090	-0.450
2020/01/31 01:47:07.6	95.180	0.040	-0.080	-0.460
2020/01/31 01:47:07.7	95.190	0.030	-0.060	-0.460
2020/01/31 01:47:07.8	95.200	0.020	-0.050	-0.450
2020/01/31 01:47:07.9	95.210	0.010	-0.040	-0.450
2020/01/31 01:47:08.0	95.220	-0.010	-0.030	-0.430
2020/01/31 01:47:08.1	95.230	-0.020	-0.020	-0.420
2020/01/31 01:47:08.2	95.240	-0.030	-0.010	-0.400
2020/01/31 01:47:08.3	95.250	-0.030	0.000	-0.380
2020/01/31 01:47:08.4	95.270	-0.040	0.020	-0.350
2020/01/31 01:47:08.5	95.280	-0.050	0.030	-0.330
2020/01/31 01:47:08.6	95.290	-0.060	0.040	-0.290
2020/01/31 01:47:08.7	95.300	-0.060	0.050	-0.260
2020/01/31 01:47:08.8	95.310	-0.070	0.060	-0.220
2020/01/31 01:47:08.9	95.320	-0.070	0.070	-0.180
2020/01/31 01:47:09.0	95.340	-0.070	0.090	-0.130
2020/01/31 01:47:09.1	95.350	-0.080	0.100	-0.090
2020/01/31 01:47:09.2	95.360	-0.080	0.110	-0.040
2020/01/31 01:47:09.3	95.360	-0.080	0.120	0.000
2020/01/31 01:47:09.4	95.370	-0.080	0.130	0.050
2020/01/31 01:47:09.5	95.380	-0.080	0.140	0.100
2020/01/31 01:47:09.6	95.390	-0.080	0.150	0.150
2020/01/31 01:47:09.7	95.390	-0.080	0.160	0.200
2020/01/31 01:47:09.8	95.400	-0.080	0.160	0.260
2020/01/31 01:47:09.9	95.400	-0.080	0.160	0.310
2020/01/31 01:47:10.0	95.400	-0.070	0.160	0.360
2020/01/31 01:47:10.1	95.400	-0.070	0.160	0.410
2020/01/31 01:47:10.2	95.410	-0.070	0.160	0.460
2020/01/31 01:47:10.3	95.410	-0.060	0.150	0.510
2020/01/31 01:47:10.4	95.410	-0.060	0.140	0.560
2020/01/31 01:47:10.5	95.410	-0.050	0.130	0.610
2020/01/31 01:47:10.6	95.410	-0.040	0.120	0.660
2020/01/31 01:47:10.7	95.410	-0.040	0.100	0.700
2020/01/31 01:47:10.8	95.410	-0.030	0.080	0.750
2020/01/31 01:47:10.9	95.410	-0.020	0.060	0.790
2020/01/31 01:47:11.0	95.410	-0.010	0.030	0.840
2020/01/31 01:47:11.1	95.410	0.000	0.010	0.880
2020/01/31 01:47:11.2	95.410	0.010	-0.030	0.920
2020/01/31 01:47:11.3	95.420	0.020	-0.060	0.970
2020/01/31 01:47:11.4	95.420	0.030	-0.100	1.010
2020/01/31 01:47:11.5	95.420	0.040	-0.130	1.050
2020/01/31 01:47:11.6	95.430	0.060	-0.170	1.090
2020/01/31 01:47:11.7	95.430	0.070	-0.210	1.130
2020/01/31 01:47:11.8	95.440	0.080	-0.250	1.170
2020/01/31 01:47:11.9	95.440	0.090	-0.300	1.210
2020/01/31 01:47:12.0	95.460	0.100	-0.340	1.260
2020/01/31 01:47:12.1	95.470	0.110	-0.380	1.300
2020/01/31 01:47:12.2	95.480	0.110	-0.420	1.340
2020/01/31 01:47:12.3	95.490	0.120	-0.450	1.380
2020/01/31 01:47:12.4	95.500	0.130	-0.490	1.420
2020/01/31 01:47:12.5	95.510	0.130	-0.520	1.470
2020/01/31 01:47:12.6	95.520	0.130	-0.550	1.510
2020/01/31 01:47:12.7	95.530	0.140	-0.570	1.550
2020/01/31 01:47:12.8	95.540	0.140	-0.590	1.600
2020/01/31 01:47:12.9	95.560	0.130	-0.610	1.640
2020/01/31 01:47:13.0	95.560	0.130	-0.620	1.690
2020/01/31 01:47:13.1	95.580	0.130	-0.630	1.730
2020/01/31 01:47:13.2	95.590	0.120	-0.640	1.770
2020/01/31 01:47:13.3	95.600	0.120	-0.640	1.810
2020/01/31 01:47:13.4	95.610	0.110	-0.640	1.850
2020/01/31 01:47:13.5	95.620	0.100	-0.630	1.890
2020/01/31 01:47:13.6	95.640	0.090	-0.620	1.920
2020/01/31 01:47:13.7	95.650	0.080	-0.610	1.960
2020/01/31 01:47:13.8	95.660	0.070	-0.600	1.990
2020/01/31 01:47:13.9	95.670	0.060	-0.580	2.020
2020/01/31 01:47:14.0	95.670	0.040	-0.560	2.040
2020/01/31 01:47:14.1	95.680	0.030	-0.530	2.070
2020/01/31 01:47:14.2	95.680	0.020	-0.500	2.090
2020/01/31 01:47:14.3	95.690	0.010	-0.480	2.110
2020/01/31 01:47:14.4	95.690	-0.010	-0.440	2.130
2020/01/31 01:47:14.5	95.690	-0.020	-0.410	2.140
2020/01/31 01:47:14.6	95.700	-0.030	-0.380	2.150
2020/01/31 01:47:14.7	95.700	-0.050	-0.340	2.160
2020/01/31 01:47:14.8	95.700	-0.060	-0.310	2.170
2020/01/31 01:47:14.9	95.690	-0.070	-0.270	2.170
2020/01/31 01:47:15.0	95.690	-0.080	-0.230	2.170
2020/01/31 01:47:15.1	95.690	-0.090	-0.190	2.160
2020/01/31 01:47:15.2	95.680	-0.100	-0.160	2.150
2020/01/31 01:47:15.3	95.680	-0.110	-0.120	2.140
2020/01/31 01:47:15.4	95.680	-0.120	-0.090	2.130
2020/01/31 01:47:15.5	95.670	-0.130	-0.050	2.110
2020/01/31 01:47:15.6	95.670	-0.140	-0.020	2.080
2020/01/31 01:47:15.7	95.660	-0.150	0.020	2.060
2020/01/31 01:47:15.8	95.660	-0.150	0.050	2.030
2020/01/31 01:47:15.9	95.650	-0.160	0.080	1.990
2020/01/31 01:47:16.0	95.650	-0.160	0.110	1.960
2020/01/31 01:47:16.1	95.640	-0.170	0.140	1.920
2020/01/31 01:47:16.2	95.640	-0.170	0.170	1.870
2020/01/31 01:47:16.3	95.630	-0.180	0.200	1.830
2020/01/31 01:47:16.4	95.630	-0.180	0.220	1.780
2020/01/31 01:47:16.5	95.620	-0.180	0.240	1.730
2020/01/31 01:47:16.6	95.620	-0.180	0.260	1.670
2020/01/31 01:47:16.7	95.620	-0.190	0.280	1.620
2020/01/31 01:47:16.8	95.610	-0.190	0.300	1.560
2020/01/31 01:47:16.9	95.610	-0.190	0.310	1.500
2020/01/31 01:47:17.0	95.590	-0.190	0.320	1.440
2020/01/31 01:47:17.1	95.590	-0.180	0.330	1.380
2020/01/31 01:47:17.2	95.580	-0.180	0.330	1.320
2020/01/31 01:47:17.3	95.580	-0.180	0.330	1.250
2020/01/31 01:47:17.4	95.580	-0.180	0.330	1.190
2020/01/31 01:47:17.5	95.580	-0.170	0.330	1.120
2020/01/31 01:47:17.6	95.580	-0.160	0.320	1.050
2020/01/31 01:47:17.7	95.580	-0.160	0.310	0.990
2020/01/31 01:47:17.8	95.580	-0.150	0.300	0.920
2020/01/31 01:47:17.9	95.580	-0.140	0.280	0.850
2020/01/31 01:47:18.0	95.600	-0.130	0.260	0.780
2020/01/31 01:47:18.1	95.600	-0.120	0.240	0.710
2020/01/31 01:47:18.2	95.600	-0.110	0.210	0.640
2020/01/31 01:47:18.3	95.610	-0.090	0.180	0.580
2020/01/31 01:47:18.4	95.610	-0.080	0.150	0.510
2020/01/31 01:47:18.5	95.610	-0.060	0.110	0.440
2020/01/31 01:47:18.6	95.620	-0.050	0.080	0.370
2020/01/31 01:47:18.7	95.620	-0.030	0.040	0.310
2020/01/31 01:47:18.8	95.630	-0.020	-0.000	0.240
2020/01/31 01:47:18.9	95.630	0.000	-0.050	0.180
2020/01/31 01:47:19.0	95.620	0.020	-0.090	0.110
2020/01/31 01:47:19.1	95.630	0.030	-0.140	0.050
2020/01/31 01:47:19.2	95.640	0.050	-0.180	-0.010
2020/01/31 01:47:19.3	95.650	0.070	-0.230	-0.080
2020/01/31 01:47:19.4	95.660	0.090	-0.270	-0.140
2020/01/31 01:47:19.5	95.670	0.100	-0.310	-0.200
2020/01/31 01:47:19.6	95.680	0.120	-0.360	-0.260
2020/01/31 01:47:19.7	95.700	0.140	-0.400	-0.310
2020/01/31 01:47:19.8	95.710	0.150	-0.440	-0.370
2020/01/31 01:47:19.9	95.730	0.170	-0.480	-0.420
2020/01/31 01:47:20.0	95.750	0.180	-0.510	-0.470
2020/01/31 01:47:20.1	95.760	0.200	-0.550	-0.520
2020/01/31 01:47:20.2	95.780	0.210	-0.580	-0.570
2020/01/31 01:47:20.3	95.800	0.220	-0.600	-0.610
2020/01/31 01:47:20.4	95.810	0.230	-0.630	-0.640
2020/01/31 01:47:20.5	95.830	0.240	-0.650	-0.680
2020/01/31 01:47:20.6	95.840	0.250	-0.660	-0.710
2020/01/31 01:47:20.7	95.860	0.260	-0.670	-0.730
2020/01/31 01:47:20.8	95.870	0.260	-0.680	-0.750
2020/01/31 01:47:20.9	95.880	0.260	-0.680	-0.770
2020/01/31 01:47:21.0	95.900	0.270	-0.670	-0.770
2020/01/31 01:47:21.1	95.910	0.260	-0.660	-0.770
2020/01/31 01:47:21.2	95.920	0.260	-0.650	-0.770
2020/01/31 01:47:21.3	95.920	0.260	-0.630	-0.770
2020/01/31 01:47:21.4	95.930	0.250	-0.610	-0.760
2020/01/31 01:47:21.5	95.930	0.240	-0.580	-0.750
2020/01/31 01:47:21.6	95.940	0.230	-0.550	-0.730
2020/01/31 01:47:21.7	95.940	0.220	-0.510	-0.710
2020/01/31 01:47:21.8	95.940	0.210	-0.470	-0.680
2020/01/31 01:47:21.9	95.940	0.190	-0.420	-0.650
2020/01/31 01:47:22.0	95.930	0.170	-0.370	-0.610
2020/01/31 01:47:22.1	95.930	0.150	-0.320	-0.570
2020/01/31 01:47:22.2	95.930	0.130	-0.260	-0.530
2020/01/31 01:47:22.3	95.930	0.100	-0.210	-0.480
2020/01/31 01:47:22.4	95.930	0.080	-0.150	-0.430
2020/01/31 01:47:22.5	95.920	0.050	-0.090	-0.370
2020/01/31 01:47:22.6	95.920	0.020	-0.030	-0.320
2020/01/31 01:47:22.7	95.920	-0.000	0.030	-0.260
2020/01/31 01:47:22.8	95.920	-0.030	0.080	-0.200
2020/01/31 01:47:22.9	95.920	-0.060	0.130	-0.130
2020/01/31 01:47:23.0	95.910	-0.090	0.180	-0.060
2020/01/31 01:47:23.1	95.910	-0.120	0.230	0.010
2020/01/31 01:47:23.2	95.910	-0.150	0.270	0.070
2020/01/31 01:47:23.3	95.920	-0.170	0.310	0.140
2020/01/31 01:47:23.4	95.920	-0.200	0.340	0.210
2020/01/31 01:47:23.5	95.920	-0.220	0.370	0.280
2020/01/31 01:47:23.6	95.920	-0.250	0.390	0.350
2020/01/31 01:47:23.7	95.920	-0.270	0.400	0.420
2020/01/31 01:47:23.8	95.930	-0.280	0.410	0.490
2020/01/31 01:47:23.9	95.930	-0.300	0.410	0.560
2020/01/31 01:47:24.0	95.930	-0.310	0.400	0.620
2020/01/31 01:47:24.1	95.930	-0.320	0.380	0.690
2020/01/31 01:47:24.2	95.930	-0.320	0.360	0.760
2020/01/31 01:47:24.3	95.930	-0.330	0.330	0.820
2020/01/31 01:47:24.4	95.930	-0.330	0.300	0.890
2020/01/31 01:47:24.5	95.930	-0.320	0.260	0.950
2020/01/31 01:47:24.6	95.940	-0.310	0.210	1.010
2020/01/31 01:47:24.7	95.940	-0.300	0.160	1.080
2020/01/31 01:47:24.8	95.940	-0.290	0.100	1.140
2020/01/31 01:47:24.9	95.940	-0.270	0.040	1.200
2020/01/31 01:47:25.0	95.960	-0.250	-0.030	1.260
2020/01/31 01:47:25.1	95.960	-0.230	-0.090	1.320
2020/01/31 01:47:25.2	95.960	-0.210	-0.160	1.370
2020/01/31 01:47:25.3	95.970	-0.180	-0.230	1.430
2020/01/31 01:47:25.4	95.980	-0.160	-0.290	1.480
2020/01/31 01:47:25.5	95.980	-0.130	-0.360	1.540
2020/01/31 01:47:25.6	95.990	-0.100	-0.420	1.590
2020/01/31 01:47:25.7	96.000	-0.070	-0.490	1.640
2020/01/31 01:47:25.8	96.000	-0.040	-0.550	1.690
2020/01/31 01:47:25.9	96.010	-0.010	-0.600	1.740
2020/01/31 01:47:26.0	96.030	0.020	-0.650	1.790
2020/01/31 01:47:26.1	96.040	0.050	-0.700	1.840
2020/01/31 01:47:26.2	96.050	0.080	-0.740	1.890
2020/01/31 01:47:26.3	96.050	0.100	-0.770	1.940
2020/01/31 01:47:26.4	96.050	0.130	-0.800	1.990
2020/01/31 01:47:26.5	96.060	0.150	-0.820	2.040
2020/01/31 01:47:26.6	96.060	0.170	-0.840	2.080
2020/01/31 01:47:26.7	96.060	0.180	-0.850	2.130
2020/01/31 01:47:26.8	96.070	0.200	-0.850	2.170
2020/01/31 01:47:26.9	96.070	0.210	-0.840	2.210
2020/01/31 01:47:27.0	96.060	0.220	-0.820	2.260
2020/01/31 01:47:27.1	96.050	0.220	-0.800	2.290
2020/01/31 01:47:27.2	96.050	0.230	-0.780	2.330
2020/01/31 01:47:27.3	96.050	0.220	-0.740	2.360
2020/01/31 01:47:27.4	96.050	0.220	-0.700	2.390
2020/01/31 01:47:27.5	96.050	0.220	-0.660	2.420
2020/01/31 01:47:27.6	96.040	0.210	-0.610	2.440
2020/01/31 01:47:27.7	96.040	0.190	-0.560	2.460
2020/01/31 01:47:27.8	96.040	0.180	-0.500	2.470
2020/01/31 01:47:27.9	96.040	0.160	-0.440	2.480
2020/01/31 01:47:28.0	96.050	0.150	-0.370	2.490
2020/01/31 01:47:28.1	96.050	0.130	-0.300	2.490
2020/01/31 01:47:28.2	96.040	0.100	-0.230	2.490
2020/01/31 01:47:28.3	96.040	0.080	-0.160	2.480
2020/01/31 01:47:28.4	96.040	0.060	-0.100	2.470
2020/01/31 01:47:28.5	96.040	0.030	-0.030	2.450
2020/01/31 01:47:28.6	96.050	0.010	0.040	2.430
2020/01/31 01:47:28.7	96.050	-0.020	0.110	2.410
2020/01/31 01:47:28.8	96.050	-0.040	0.170	2.380
2020/01/31 01:47:28.9	96.050	-0.070	0.230	2.340
2020/01/31 01:47:29.0	96.060	-0.090	0.300	2.310
2020/01/31 01:47:29.1	96.060	-0.120	0.350	2.270
2020/01/31 01:47:29.2	96.070	-0.140	0.410	2.220
2020/01/31 01:47:29.3	96.070	-0.160	0.450	2.170
2020/01/31 01:47:29.4	96.080	-0.180	0.500	2.120
2020/01/31 01:47:29.5	96.080	-0.200	0.530	2.060
2020/01/31 01:47:29.6	96.090	-0.210	0.570	2.000
2020/01/31 01:47:29.7	96.090	-0.230	0.600	1.930
2020/01/31 01:47:29.8	96.100	-0.240	0.620	1.870
2020/01/31 01:47:29.9	96.100	-0.250	0.640	1.800
2020/01/31 01:47:30.0	96.120	-0.260	0.650	1.720
2020/01/31 01:47:30.1	96.120	-0.260	0.660	1.650
2020/01/31 01:47:30.2	96.130	-0.260	0.660	1.570
2020/01/31 01:47:30.3	96.140	-0.260	0.660	1.500
2020/01/31 01:47:30.4	96.140	-0.260	0.650	1.420
2020/01/31 01:47:30.5	96.150	-0.260	0.630	1.340
2020/01/31 01:47:30.6	96.160	-0.250	0.620	1.250
2020/01/31 01:47:30.7	96.170	-0.240	0.600	1.170
2020/01/31 01:47:30.8	96.180	-0.230	0.570	1.080
2020/01/31 01:47:30.9	96.190	-0.220	0.540	0.990
2020/01/31 01:47:31.0	96.200	-0.200	0.500	0.900
2020/01/31 01:47:31.1	96.210	-0.180	0.460	0.810
2020/01/31 01:47:31.2	96.230	-0.170	0.420	0.720
2020/01/31 01:47:31.3	96.240	-0.150	0.380	0.630
2020/01/31 01:47:31.4	96.260	-0.130	0.330	0.540
2020/01/31 01:47:31.5	96.270	-0.110	0.280	0.450
2020/01/31 01:47:31.6	96.290	-0.090	0.220	0.360
2020/01/31 01:47:31.7	96.300	-0.060	0.170	0.270
2020/01/31 01:47:31.8	96.320	-0.040	0.110	0.170
2020/01/31 01:47:31.9	96.340	-0.020	0.050	0.080
2020/01/31 01:47:32.0	96.350	0.010	-0.010	-0.010
2020/01/31 01:47:32.1	96.370	0.030	-0.070	-0.090
2020/01/31 01:47:32.2	96.390	0.050	-0.130	-0.180
2020/01/31 01:47:32.3	96.410	0.070	-0.200	-0.260
2020/01/31 01:47:32.4	96.420	0.090	-0.260	-0.340
2020/01/31 01:47:32.5	96.440	0.120	-0.320	-0.410
2020/01/31 01:47:32.6	96.460	0.140	-0.380	-0.480
2020/01/31 01:47:32.7	96.470	0.150	-0.440	-0.550
2020/01/31 01:47:32.8	96.480	0.170	-0.500	-0.610
2020/01/31 01:47:32.9	96.490	0.190	-0.550	-0.670
2020/01/31 01:47:33.0	96.510	0.200	-0.600	-0.720
2020/01/31 01:47:33.1	96.520	0.220	-0.650	-0.770
2020/01/31 01:47:33.2	96.520	0.230	-0.700	-0.810
2020/01/31 01:47:33.3	96.530	0.240	-0.740	-0.850
2020/01/31 01:47:33.4	96.530	0.250	-0.780	-0.890
2020/01/31 01:47:33.5	96.540	0.260	-0.820	-0.910
2020/01/31 01:47:33.6	96.540	0.270	-0.850	-0.940
2020/01/31 01:47:33.7	96.540	0.270	-0.880	-0.950
2020/01/31 01:47:33.8	96.530	0.270	-0.900	-0.970
2020/01/31 01:47:33.9	96.530	0.280	-0.920	-0.980
2020/01/31 01:47:34.0	96.510	0.280	-0.930	-0.980
2020/01/31 01:47:34.1	96.500	0.280	-0.940	-0.970
2020/01/31 01:47:34.2	96.490	0.270	-0.940	-0.970
2020/01/31 01:47:34.3	96.480	0.270	-0.940	-0.960
2020/01/31 01:47:34.4	96.470	0.270	-0.940	-0.940
2020/01/31 01:47:34.5	96.460	0.260	-0.930	-0.920
2020/01/31 01:47:34.6	96.450	0.250	-0.910	-0.890
2020/01/31 01:47:34.7	96.440	0.250	-0.890	-0.860
2020/01/31 01:47:34.8	96.420	0.240	-0.870	-0.820
2020/01/31 01:47:34.9	96.410	0.230	-0.840	-0.780
2020/01/31 01:47:35.0	96.390	0.220	-0.810	-0.740
2020/01/31 01:47:35.1	96.370	0.210	-0.780	-0.690
2020/01/31 01:47:35.2	96.360	0.200	-0.740	-0.630
2020/01/31 01:47:35.3	96.340	0.180	-0.700	-0.570
2020/01/31 01:47:35.4	96.320	0.170	-0.650	-0.510
2020/01/31 01:47:35.5	96.300	0.160	-0.600	-0.450
2020/01/31 01:47:35.6	96.280	0.150	-0.550	-0.380
2020/01/31 01:47:35.7	96.260	0.130	-0.500	-0.310
2020/01/31 01:47:35.8	96.240	0.120	-0.450	-0.230
2020/01/31 01:47:35.9	96.220	0.110	-0.400	-0.150
2020/01/31 01:47:36.0	96.220	0.090	-0.340	-0.070
2020/01/31 01:47:36.1	96.200	0.080	-0.290	0.010
2020/01/31 01:47:36.2	96.180	0.060	-0.230	0.090
2020/01/31 01:47:36.3	96.170	0.050	-0.180	0.170
2020/01/31 01:47:36.4	96.150	0.040	-0.130	0.250
2020/01/31 01:47:36.5	96.140	0.020	-0.080	0.340
2020/01/31 01:47:36.6	96.120	0.010	-0.030	0.420
2020/01/31 01:47:36.7	96.110	-0.000	0.020	0.500
2020/01/31 01:47:36.8	96.100	-0.020	0.070	0.580
2020/01/31 01:47:36.9	96.100	-0.030	0.110	0.660
2020/01/31 01:47:37.0	96.070	-0.040	0.150	0.730
2020/01/31 01:47:37.1	96.070	-0.050	0.180	0.810
2020/01/31 01:47:37.2	96.070	-0.060	0.220	0.880
2020/01/31 01:47:37.3	96.070	-0.080	0.250	0.950
2020/01/31 01:47:37.4	96.070	-0.090	0.270	1.020
2020/01/31 01:47:37.5	96.070	-0.100	0.300	1.090
2020/01/31 01:47:37.6	96.080	-0.110	0.320	1.150
2020/01/31 01:47:37.7	96.090	-0.120	0.330	1.210
2020/01/31 01:47:37.8	96.100	-0.130	0.340	1.270
2020/01/31 01:47:37.9	96.110	-0.130	0.350	1.320
2020/01/31 01:47:38.0	96.130	-0.140	0.360	1.380
2020/01/31 01:47:38.1	96.140	-0.150	0.360	1.430
2020/01/31 01:47:38.2	96.160	-0.150	0.360	1.470
2020/01/31 01:47:38.3	96.180	-0.160	0.350	1.520
2020/01/31 01:47:38.4	96.200	-0.160	0.340	1.560
2020/01/31 01:47:38.5	96.230	-0.170	0.330	1.600
2020/01/31 01:47:38.6	96.250	-0.170	0.310	1.630
2020/01/31 01:47:38.7	96.280	-0.170	0.290	1.660
2020/01/31 01:47:38.8	96.300	-0.170	0.270	1.690
2020/01/31 01:47:38.9	96.330	-0.170	0.250	1.720
2020/01/31 01:47:39.0	96.380	-0.170	0.220	1.750
2020/01/31 01:47:39.1	96.410	-0.170	0.190	1.770
2020/01/31 01:47:39.2	96.430	-0.170	0.170	1.790
2020/01/31 01:47:39.3	96.460	-0.160	0.130	1.810
2020/01/31 01:47:39.4	96.490	-0.160	0.100	1.820
2020/01/31 01:47:39.5	96.510	-0.150	0.070	1.840
2020/01/31 01:47:39.6	96.540	-0.150	0.040	1.850
2020/01/31 01:47:39.7	96.560	-0.140	0.010	1.860
2020/01/31 01:47:39.8	96.580	-0.140	-0.020	1.880
2020/01/31 01:47:39.9	96.600	-0.130	-0.050	1.890
2020/01/31 01:47:40.0	96.610	-0.120	-0.080	1.900
2020/01/31 01:47:40.1	96.630	-0.120	-0.110	1.910
2020/01/31 01:47:40.2	96.640	-0.110	-0.130	1.920
2020/01/31 01:47:40.3	96.650	-0.100	-0.150	1.920
2020/01/31 01:47:40.4	96.660	-0.090	-0.170	1.930
2020/01/31 01:47:40.5	96.670	-0.090	-0.190	1.940
2020/01/31 01:47:40.6	96.680	-0.080	-0.200	1.940
2020/01/31 01:47:40.7	96.680	-0.070	-0.210	1.950
2020/01/31 01:47:40.8	96.690	-0.070	-0.220	1.950
2020/01/31 01:47:40.9	96.690	-0.060	-0.220	1.950
2020/01/31 01:47:41.0	96.680	-0.060	-0.220	1.950
2020/01/31 01:47:41.1	96.680	-0.050	-0.220	1.950
2020/01/31 01:47:41.2	96.680	-0.050	-0.220	1.960
2020/01/31 01:47:41.3	96.670	-0.050	-0.210	1.960
2020/01/31 01:47:41.4	96.670	-0.050	-0.210	1.950
2020/01/31 01:47:41.5	96.660	-0.040	-0.200	1.950
2020/01/31 01:47:41.6	96.650	-0.040	-0.180	1.950
2020/01/31 01:47:41.7	96.640	-0.040	-0.170	1.950
2020/01/31 01:47:41.8	96.630	-0.040	-0.160	1.940
2020/01/31 01:47:41.9	96.620	-0.050	-0.140	1.940
2020/01/31 01:47:42.0	96.600	-0.050	-0.130	1.930
2020/01/31 01:47:42.1	96.590	-0.050	-0.110	1.920
2020/01/31 01:47:42.2	96.580	-0.050	-0.100	1.910
2020/01/31 01:47:42.3	96.560	-0.050	-0.080	1.900
2020/01/31 01:47:42.4	96.550	-0.050	-0.070	1.890
2020/01/31 01:47:42.5	96.540	-0.060	-0.060	1.870
2020/01/31 01:47:42.6	96.530	-0.060	-0.040	1.850
2020/01/31 01:47:42.7	96.520	-0.060	-0.030	1.830
2020/01/31 01:47:42.8	96.510	-0.060	-0.030	1.810
2020/01/31 01:47:42.9	96.500	-0.070	-0.020	1.780
2020/01/31 01:47:43.0	96.500	-0.070	-0.020	1.750
2020/01/31 01:47:43.1	96.500	-0.070	-0.010	1.720
2020/01/31 01:47:43.2	96.490	-0.070	-0.010	1.690
2020/01/31 01:47:43.3	96.490	-0.070	-0.010	1.660
2020/01/31 01:47:43.4	96.490	-0.070	-0.020	1.620
2020/01/31 01:47:43.5	96.490	-0.070	-0.020	1.580
2020/01/31 01:47:43.6	96.490	-0.070	-0.030	1.540
2020/01/31 01:47:43.7	96.500	-0.060	-0.040	1.500
2020/01/31 01:47:43.8	96.500	-0.060	-0.060	1.460
2020/01/31 01:47:43.9	96.510	-0.060	-0.070	1.410
2020/01/31 01:47:44.0	96.510	-0.050	-0.080	1.370
2020/01/31 01:47:44.1	96.520	-0.040	-0.110	1.320
2020/01/31 01:47:44.2	96.530	-0.040	-0.130	1.270
2020/01/31 01:47:44.3	96.540	-0.030	-0.150	1.220
2020/01/31 01:47:44.4	96.550	-0.020	-0.180	1.170
2020/01/31 01:47:44.5	96.560	-0.020	-0.210	1.110
2020/01/31 01:47:44.6	96.560	-0.010	-0.240	1.060
2020/01/31 01:47:44.7	96.570	0.000	-0.270	1.000
2020/01/31 01:47:44.8	96.580	0.010	-0.300	0.950
2020/01/31 01:47:44.9	96.590	0.020	-0.330	0.890
2020/01/31 01:47:45.0	96.600	0.030	-0.370	0.840
2020/01/31 01:47:45.1	96.600	0.040	-0.400	0.780
2020/01/31 01:47:45.2	96.610	0.050	-0.440	0.720
2020/01/31 01:47:45.3	96.610	0.060	-0.470	0.670
2020/01/31 01:47:45.4	96.620	0.070	-0.500	0.610
2020/01/31 01:47:45.5	96.620	0.080	-0.530	0.550
2020/01/31 01:47:45.6	96.620	0.080	-0.550	0.490
2020/01/31 01:47:45.7	96.620	0.090	-0.580	0.440
2020/01/31 01:47:45.8	96.620	0.100	-0.600	0.380
2020/01/31 01:47:45.9	96.620	0.100	-0.610	0.330
2020/01/31 01:47:46.0	96.610	0.110	-0.630	0.280
2020/01/31 01:47:46.1	96.600	0.110	-0.640	0.220
2020/01/31 01:47:46.2	96.600	0.110	-0.640	0.170
2020/01/31 01:47:46.3	96.600	0.110	-0.640	0.120
2020/01/31 01:47:46.4	96.590	0.110	-0.640	0.080
2020/01/31 01:47:46.5	96.590	0.100	-0.630	0.030
2020/01/31 01:47:46.6	96.580	0.100	-0.620	-0.010
2020/01/31 01:47:46.7	96.580	0.090	-0.610	-0.050
2020/01/31 01:47:46.8	96.580	0.080	-0.590	-0.090
2020/01/31 01:47:46.9	96.570	0.070	-0.560	-0.130
2020/01/31 01:47:47.0	96.570	0.070	-0.530	-0.160
2020/01/31 01:47:47.1	96.570	0.050	-0.500	-0.190
2020/01/31 01:47:47.2	96.570	0.040	-0.470	-0.210
2020/01/31 01:47:47.3	96.570	0.030	-0.430	-0.240
2020/01/31 01:47:47.4	96.570	0.020	-0.380	-0.250
2020/01/31 01:47:47.5	96.570	0.000	-0.340	-0.270
2020/01/31 01:47:47.6	96.570	-0.010	-0.290	-0.280
2020/01/31 01:47:47.7	96.570	-0.020	-0.240	-0.280
2020/01/31 01:47:47.8	96.580	-0.040	-0.190	-0.290
2020/01/31 01:47:47.9	96.580	-0.050	-0.140	-0.290
2020/01/31 01:47:48.0	96.590	-0.060	-0.090	-0.270
2020/01/31 01:47:48.1	96.590	-0.070	-0.040	-0.260
2020/01/31 01:47:48.2	96.590	-0.080	0.010	-0.250
2020/01/31 01:47:48.3	96.600	-0.090	0.060	-0.230
2020/01/31 01:47:48.4	96.600	-0.100	0.100	-0.210
2020/01/31 01:47:48.5	96.610	-0.110	0.150	-0.190
2020/01/31 01:47:48.6	96.610	-0.110	0.190	-0.160
2020/01/31 01:47:48.7	96.610	-0.120	0.230	-0.130
2020/01/31 01:47:48.8	96.620	-0.120	0.260	-0.100
2020/01/31 01:47:48.9	96.620	-0.120	0.290	-0.070
2020/01/31 01:47:49.0	96.640	-0.120	0.310	-0.030
2020/01/31 01:47:49.1	96.640	-0.110	0.340	0.000
2020/01/31 01:47:49.2	96.650	-0.110	0.350	0.040
2020/01/31 01:47:49.3	96.650	-0.100	0.370	0.080
2020/01/31 01:47:49.4	96.650	-0.090	0.370	0.120
2020/01/31 01:47:49.5	96.660	-0.080	0.380	0.160
2020/01/31 01:47:49.6	96.660	-0.070	0.370	0.190
2020/01/31 01:47:49.7	96.670	-0.050	0.370	0.230
2020/01/31 01:47:49.8	96.670	-0.040	0.360	0.270
2020/01/31 01:47:49.9	96.680	-0.020	0.340	0.310
2020/01/31 01:47:50.0	96.680	-0.000	0.320	0.340
2020/01/31 01:47:50.1	96.680	0.020	0.300	0.380
2020/01/31 01:47:50.2	96.690	0.040	0.270	0.410
2020/01/31 01:47:50.3	96.700	0.060	0.240	0.440
2020/01/31 01:47:50.4	96.700	0.080	0.210	0.470
2020/01/31 01:47:50.5	96.710	0.100	0.180	0.500
2020/01/31 01:47:50.6	96.710	0.120	0.140	0.520
2020/01/31 01:47:50.7	96.720	0.140	0.100	0.550
2020/01/31 01:47:50.8	96.720	0.150	0.070	0.570
2020/01/31 01:47:50.9	96.730	0.170	0.030	0.590
2020/01/31 01:47:51.0	96.730	0.190	-0.010	0.610
2020/01/31 01:47:51.1	96.730	0.200	-0.050	0.630
2020/01/31 01:47:51.2	96.730	0.220	-0.090	0.650
2020/01/31 01:47:51.3	96.740	0.230	-0.130	0.670
2020/01/31 01:47:51.4	96.740	0.240	-0.160	0.680
2020/01/31 01:47:51.5	96.750	0.250	-0.190	0.700
2020/01/31 01:47:51.6	96.750	0.250	-0.220	0.720
2020/01/31 01:47:51.7	96.760	0.260	-0.250	0.740
2020/01/31 01:47:51.8	96.760	0.260	-0.270	0.760
2020/01/31 01:47:51.9	96.770	0.260	-0.290	0.780
2020/01/31 01:47:52.0	96.790	0.260	-0.310	0.800
2020/01/31 01:47:52.1	96.790	0.260	-0.330	0.820
2020/01/31 01:47:52.2	96.800	0.250	-0.340	0.850
2020/01/31 01:47:52.3	96.810	0.250	-0.350	0.870
2020/01/31 01:47:52.4	96.820	0.240	-0.360	0.900
2020/01/31 01:47:52.5	96.820	0.230	-0.360	0.930
2020/01/31 01:47:52.6	96.830	0.220	-0.370	0.970
2020/01/31 01:47:52.7	96.840	0.210	-0.370	1.000
2020/01/31 01:47:52.8	96.850	0.200	-0.370	1.040
2020/01/31 01:47:52.9	96.850	0.190	-0.360	1.080
2020/01/31 01:47:53.0	96.870	0.170	-0.360	1.130
2020/01/31 01:47:53.1	96.880	0.160	-0.360	1.170
2020/01/31 01:47:53.2	96.880	0.150	-0.350	1.220
2020/01/31 01:47:53.3	96.880	0.130	-0.350	1.270
2020/01/31 01:47:53.4	96.890	0.120	-0.340	1.330
2020/01/31 01:47:53.5	96.890	0.110	-0.330	1.380
2020/01/31 01:47:53.6	96.890	0.100	-0.330	1.430
2020/01/31 01:47:53.7	96.890	0.080	-0.320	1.490
2020/01/31 01:47:53.8	96.890	0.070	-0.320	1.540
2020/01/31 01:47:53.9	96.890	0.060	-0.310	1.600
2020/01/31 01:47:54.0	96.870	0.050	-0.300	1.650
2020/01/31 01:47:54.1	96.860	0.040	-0.300	1.700
2020/01/31 01:47:54.2	96.860	0.030	-0.290	1.750
2020/01/31 01:47:54.3	96.860	0.020	-0.290	1.790
2020/01/31 01:47:54.4	96.860	0.010	-0.290	1.830
2020/01/31 01:47:54.5	96.860	-0.000	-0.280	1.870
2020/01/31 01:47:54.6	96.860	-0.010	-0.280	1.900
2020/01/31 01:47:54.7	96.860	-0.020	-0.270	1.930
2020/01/31 01:47:54.8	96.860	-0.040	-0.270	1.950
2020/01/31 01:47:54.9	96.860	-0.050	-0.260	1.970
2020/01/31 01:47:55.0	96.880	-0.060	-0.250	1.980
2020/01/31 01:47:55.1	96.880	-0.070	-0.240	1.990
2020/01/31 01:47:55.2	96.880	-0.090	-0.230	2.000
2020/01/31 01:47:55.3	96.880	-0.100	-0.220	2.000
2020/01/31 01:47:55.4	96.890	-0.120	-0.200	2.000
2020/01/31 01:47:55.5	96.890	-0.130	-0.190	1.990
2020/01/31 01:47:55.6	96.900	-0.150	-0.170	1.980
2020/01/31 01:47:55.7	96.900	-0.170	-0.150	1.970
2020/01/31 01:47:55.8	96.900	-0.190	-0.130	1.950
2020/01/31 01:47:55.9	96.910	-0.210	-0.110	1.940
2020/01/31 01:47:56.0	96.920	-0.230	-0.080	1.920
2020/01/31 01:47:56.1	96.930	-0.250	-0.060	1.900
2020/01/31 01:47:56.2	96.930	-0.260	-0.030	1.880
2020/01/31 01:47:56.3	96.930	-0.280	-0.010	1.850
2020/01/31 01:47:56.4	96.940	-0.300	0.010	1.820
2020/01/31 01:47:56.5	96.940	-0.320	0.030	1.790
2020/01/31 01:47:56.6	96.940	-0.340	0.050	1.770
2020/01/31 01:47:56.7	96.940	-0.350	0.070	1.740
2020/01/31 01:47:56.8	96.950	-0.370	0.090	1.710
2020/01/31 01:47:56.9	96.950	-0.380	0.100	1.670
2020/01/31 01:47:57.0	96.950	-0.390	0.110	1.640
2020/01/31 01:47:57.1	96.950	-0.400	0.120	1.610
2020/01/31 01:47:57.2	96.950	-0.410	0.120	1.570
2020/01/31 01:47:57.3	96.950	-0.410	0.120	1.540
2020/01/31 01:47:57.4	96.950	-0.420	0.120	1.510
2020/01/31 01:47:57.5	96.950	-0.410	0.110	1.470
2020/01/31 01:47:57.6	96.950	-0.410	0.090	1.430
2020/01/31 01:47:57.7	96.950	-0.400	0.080	1.400
2020/01/31 01:47:57.8	96.950	-0.390	0.050	1.360
2020/01/31 01:47:57.9	96.950	-0.380	0.030	1.320
2020/01/31 01:47:58.0	96.950	-0.360	-0.000	1.280
2020/01/31 01:47:58.1	96.960	-0.340	-0.040	1.240
2020/01/31 01:47:58.2	96.960	-0.320	-0.070	1.190
2020/01/31 01:47:58.3	96.970	-0.300	-0.120	1.150
2020/01/31 01:47:58.4	96.980	-0.270	-0.160	1.100
2020/01/31 01:47:58.5	96.990	-0.240	-0.200	1.060
2020/01/31 01:47:58.6	97.000	-0.210	-0.250	1.010
2020/01/31 01:47:58.7	97.020	-0.170	-0.300	0.960
2020/01/31 01:47:58.8	97.030	-0.130	-0.350	0.910
2020/01/31 01:47:58.9	97.050	-0.100	-0.400	0.850
2020/01/31 01:47:59.0	97.060	-0.060	-0.450	0.800
2020/01/31 01:47:59.1	97.080	-0.020	-0.490	0.750
2020/01/31 01:47:59.2	97.100	0.020	-0.540	0.700
2020/01/31 01:47:59.3	97.120	0.060	-0.580	0.640
2020/01/31 01:47:59.4	97.140	0.100	-0.610	0.590
2020/01/31 01:47:59.5	97.160	0.140	-0.650	0.540
2020/01/31 01:47:59.6	97.170	0.180	-0.680	0.500
2020/01/31 01:47:59.7	97.190	0.210	-0.700	0.450
2020/01/31 01:47:59.8	97.210	0.250	-0.720	0.400
2020/01/31 01:47:59.9	97.220	0.280	-0.730	0.360
2020/01/31 01:48:00.0	97.240	0.310	-0.740	0.320
2020/01/31 01:48:00.1	97.260	0.340	-0.740	0.280
2020/01/31 01:48:00.2	97.270	0.360	-0.730	0.240
2020/01/31 01:48:00.3	97.280	0.380	-0.720	0.210
2020/01/31 01:48:00.4	97.290	0.390	-0.700	0.170
2020/01/31 01:48:00.5	97.290	0.410	-0.670	0.140
2020/01/31 01:48:00.6	97.300	0.420	-0.640	0.110
2020/01/31 01:48:00.7	97.300	0.420	-0.600	0.080
2020/01/31 01:48:00.8	97.300	0.420	-0.550	0.050
2020/01/31 01:48:00.9	97.300	0.420	-0.500	0.030
2020/01/31 01:48:01.0	97.310	0.410	-0.440	0.000
2020/01/31 01:48:01.1	97.310	0.400	-0.390	-0.020
2020/01/31 01:48:01.2	97.310	0.390	-0.320	-0.040
2020/01/31 01:48:01.3	97.300	0.370	-0.260	-0.050
2020/01/31 01:48:01.4	97.290	0.350	-0.190	-0.070
2020/01/31 01:48:01.5	97.290	0.330	-0.120	-0.080
2020/01/31 01:48:01.6	97.280	0.300	-0.050	-0.090
2020/01/31 01:48:01.7	97.270	0.270	0.020	-0.100
2020/01/31 01:48:01.8	97.260	0.240	0.090	-0.110
2020/01/31 01:48:01.9	97.250	0.210	0.160	-0.110
2020/01/31 01:48:02.0	97.240	0.180	0.220	-0.110
2020/01/31 01:48:02.1	97.230	0.140	0.280	-0.120
2020/01/31 01:48:02.2	97.210	0.110	0.340	-0.120
2020/01/31 01:48:02.3	97.200	0.070	0.400	-0.120
2020/01/31 01:48:02.4	97.190	0.040	0.450	-0.120
2020/01/31 01:48:02.5	97.170	0.000	0.500	-0.110
2020/01/31 01:48:02.6	97.160	-0.030	0.550	-0.110
2020/01/31 01:48:02.7	97.150	-0.060	0.580	-0.100
2020/01/31 01:48:02.8	97.140	-0.100	0.620	-0.100
2020/01/31 01:48:02.9	97.120	-0.130	0.640	-0.090
2020/01/31 01:48:03.0	97.100	-0.150	0.670	-0.080
2020/01/31 01:48:03.1	97.090	-0.180	0.690	-0.070
2020/01/31 01:48:03.2	97.080	-0.200	0.700	-0.060
2020/01/31 01:48:03.3	97.080	-0.220	0.700	-0.050
2020/01/31 01:48:03.4	97.070	-0.240	0.700	-0.040
2020/01/31 01:48:03.5	97.060	-0.260	0.700	-0.030
2020/01/31 01:48:03.6	97.060	-0.270	0.680	-0.010
2020/01/31 01:48:03.7	97.050	-0.280	0.670	0.000
2020/01/31 01:48:03.8	97.050	-0.290	0.640	0.020
2020/01/31 01:48:03.9	97.050	-0.290	0.620	0.040
2020/01/31 01:48:04.0	97.040	-0.300	0.580	0.060
2020/01/31 01:48:04.1	97.040	-0.290	0.550	0.080
2020/01/31 01:48:04.2	97.050	-0.290	0.500	0.100
2020/01/31 01:48:04.3	97.050	-0.280	0.460	0.120
2020/01/31 01:48:04.4	97.060	-0.280	0.410	0.140
2020/01/31 01:48:04.5	97.070	-0.270	0.360	0.160
2020/01/31 01:48:04.6	97.080	-0.250	0.300	0.180
2020/01/31 01:48:04.7	97.090	-0.240	0.250	0.200
2020/01/31 01:48:04.8	97.100	-0.220	0.190	0.220
2020/01/31 01:48:04.9	97.120	-0.200	0.130	0.240
2020/01/31 01:48:05.0	97.130	-0.190	0.060	0.270
2020/01/31 01:48:05.1	97.150	-0.160	-0.000	0.290
2020/01/31 01:48:05.2	97.170	-0.140	-0.070	0.310
2020/01/31 01:48:05.3	97.190	-0.120	-0.130	0.340
2020/01/31 01:48:05.4	97.210	-0.100	-0.200	0.360
2020/01/31 01:48:05.5	97.230	-0.080	-0.260	0.390
2020/01/31 01:48:05.6	97.250	-0.050	-0.320	0.410
2020/01/31 01:48:05.7	97.280	-0.030	-0.380	0.440
2020/01/31 01:48:05.8	97.300	-0.010	-0.440	0.460
2020/01/31 01:48:05.9	97.320	0.010	-0.500	0.490
2020/01/31 01:48:06.0	97.360	0.040	-0.550	0.520
2020/01/31 01:48:06.1	97.380	0.060	-0.610	0.550
2020/01/31 01:48:06.2	97.400	0.080	-0.660	0.580
2020/01/31 01:48:06.3	97.420	0.100	-0.700	0.610
2020/01/31 01:48:06.4	97.430	0.120	-0.750	0.640
2020/01/31 01:48:06.5	97.450	0.130	-0.790	0.670
2020/01/31 01:48:06.6	97.470	0.150	-0.820	0.700
2020/01/31 01:48:06.7	97.480	0.170	-0.860	0.730
2020/01/31 01:48:06.8	97.490	0.180	-0.890	0.770
2020/01/31 01:48:06.9	97.500	0.190	-0.910	0.800
2020/01/31 01:48:07.0	97.500	0.200	-0.940	0.840
2020/01/31 01:48:07.1	97.510	0.220	-0.950	0.880
2020/01/31 01:48:07.2	97.510	0.220	-0.970	0.920
2020/01/31 01:48:07.3	97.520	0.230	-0.980	0.950
2020/01/31 01:48:07.4	97.520	0.240	-0.980	0.990
2020/01/31 01:48:07.5	97.510	0.250	-0.980	1.030
2020/01/31 01:48:07.6	97.510	0.250	-0.980	1.080
2020/01/31 01:48:07.7	97.500	0.250	-0.970	1.120
2020/01/31 01:48:07.8	97.500	0.260	-0.960	1.160
2020/01/31 01:48:07.9	97.490	0.260	-0.950	1.200
2020/01/31 01:48:08.0	97.470	0.260	-0.920	1.250
2020/01/31 01:48:08.1	97.460	0.260	-0.900	1.290
2020/01/31 01:48:08.2	97.450	0.250	-0.870	1.330
2020/01/31 01:48:08.3	97.440	0.250	-0.840	1.380
2020/01/31 01:48:08.4	97.430	0.250	-0.810	1.420
2020/01/31 01:48:08.5	97.420	0.240	-0.770	1.470
2020/01/31 01:48:08.6	97.410	0.240	-0.730	1.510
2020/01/31 01:48:08.7	97.400	0.230	-0.680	1.560
2020/01/31 01:48:08.8	97.380	0.230	-0.630	1.600
2020/01/31 01:48:08.9	97.370	0.220	-0.590	1.650
2020/01/31 01:48:09.0	97.360	0.210	-0.530	1.700
2020/01/31 01:48:09.1	97.350	0.200	-0.480	1.740
2020/01/31 01:48:09.2	97.340	0.190	-0.420	1.790
2020/01/31 01:48:09.3	97.330	0.180	-0.370	1.830
2020/01/31 01:48:09.4	97.320	0.170	-0.310	1.880
2020/01/31 01:48:09.5	97.310	0.160	-0.250	1.920
2020/01/31 01:48:09.6	97.300	0.150	-0.200	1.970
2020/01/31 01:48:09.7	97.290	0.130	-0.140	2.010
2020/01/31 01:48:09.8	97.280	0.120	-0.080	2.060
2020/01/31 01:48:09.9	97.270	0.110	-0.030	2.100
2020/01/31 01:48:10.0	97.250	0.090	0.030	2.140
2020/01/31 01:48:10.1	97.240	0.080	0.080	2.180
2020/01/31 01:48:10.2	97.230	0.060	0.130	2.220
2020/01/31 01:48:10.3	97.230	0.050	0.180	2.250
2020/01/31 01:48:10.4	97.220	0.030	0.230	2.280
2020/01/31 01:48:10.5	97.210	0.020	0.270	2.310
2020/01/31 01:48:10.6	97.210	-0.000	0.320	2.340
2020/01/31 01:48:10.7	97.200	-0.020	0.350	2.360
2020/01/31 01:48:10.8	97.200	-0.040	0.390	2.370
2020/01/31 01:48:10.9	97.200	-0.050	0.420	2.390
2020/01/31 01:48:11.0	97.200	-0.070	0.450	2.390
2020/01/31 01:48:11.1	97.200	-0.090	0.470	2.390
2020/01/31 01:48:11.2	97.200	-0.100	0.490	2.390
2020/01/31 01:48:11.3	97.210	-0.120	0.510	2.370
2020/01/31 01:48:11.4	97.210	-0.140	0.520	2.350
2020/01/31 01:48:11.5	97.220	-0.150	0.520	2.330
2020/01/31 01:48:11.6	97.230	-0.160	0.530	2.290
2020/01/31 01:48:11.7	97.240	-0.180	0.520	2.250
2020/01/31 01:48:11.8	97.250	-0.190	0.520	2.210
2020/01/31 01:48:11.9	97.270	-0.200	0.510	2.150
2020/01/31 01:48:12.0	97.300	-0.210	0.490	2.090
2020/01/31 01:48:12.1	97.310	-0.210	0.470	2.030
2020/01/31 01:48:12.2	97.330	-0.220	0.450	1.960
2020/01/31 01:48:12.3	97.340	-0.220	0.420	1.880
2020/01/31 01:48:12.4	97.360	-0.220	0.390	1.800
2020/01/31 01:48:12.5	97.370	-0.220	0.360	1.720
2020/01/31 01:48:12.6	97.390	-0.220	0.320	1.630
2020/01/31 01:48:12.7	97.400	-0.210	0.290	1.550
2020/01/31 01:48:12.8	97.420	-0.210	0.250	1.460
2020/01/31 01:48:12.9	97.430	-0.200	0.210	1.370
2020/01/31 01:48:13.0	97.460	-0.190	0.170	1.270
2020/01/31 01:48:13.1	97.470	-0.180	0.120	1.180
2020/01/31 01:48:13.2	97.480	-0.160	0.080	1.090
2020/01/31 01:48:13.3	97.490	-0.150	0.040	1.000
2020/01/31 01:48:13.4	97.500	-0.130	-0.000	0.910
2020/01/31 01:48:13.5	97.500	-0.120	-0.040	0.820
2020/01/31 01:48:13.6	97.510	-0.100	-0.080	0.740
2020/01/31 01:48:13.7	97.510	-0.080	-0.110	0.660
2020/01/31 01:48:13.8	97.510	-0.060	-0.150	0.580
2020/01/31 01:48:13.9	97.520	-0.040	-0.180	0.500
2020/01/31 01:48:14.0	97.500	-0.030	-0.210	0.430
2020/01/31 01:48:14.1	97.500	-0.010	-0.240	0.360
2020/01/31 01:48:14.2	97.500	0.010	-0.260	0.290
2020/01/31 01:48:14.3	97.500	0.020	-0.280	0.230
2020/01/31 01:48:14.4	97.500	0.040	-0.300	0.170
2020/01/31 01:48:14.5	97.490	0.050	-0.310	0.110
2020/01/31 01:48:14.6	97.490	0.070	-0.330	0.060
2020/01/31 01:48:14.7	97.490	0.080	-0.340	0.010
2020/01/31 01:48:14.8	97.480	0.090	-0.340	-0.040
2020/01/31 01:48:14.9	97.480	0.100	-0.350	-0.090
2020/01/31 01:48:15.0	97.480	0.100	-0.350	-0.130
2020/01/31 01:48:15.1	97.480	0.110	-0.350	-0.180
2020/01/31 01:48:15.2	97.480	0.110	-0.350	-0.220
2020/01/31 01:48:15.3	97.490	0.110	-0.350	-0.260
2020/01/31 01:48:15.4	97.490	0.110	-0.350	-0.300
2020/01/31 01:48:15.5	97.500	0.110	-0.350	-0.330
2020/01/31 01:48:15.6	97.500	0.110	-0.350	-0.370
2020/01/31 01:48:15.7	97.510	0.110	-0.350	-0.400
2020/01/31 01:48:15.8	97.520	0.100	-0.340	-0.430
2020/01/31 01:48:15.9	97.530	0.090	-0.340	-0.460
2020/01/31 01:48:16.0	97.530	0.090	-0.340	-0.490
2020/01/31 01:48:16.1	97.540	0.080	-0.340	-0.510
2020/01/31 01:48:16.2	97.560	0.070	-0.340	-0.540
2020/01/31 01:48:16.3	97.570	0.060	-0.330	-0.560
2020/01/31 01:48:16.4	97.580	0.050	-0.340	-0.570
2020/01/31 01:48:16.5	97.590	0.040	-0.340	-0.580
2020/01/31 01:48:16.6	97.610	0.030	-0.340	-0.590
2020/01/31 01:48:16.7	97.620	0.010	-0.340	-0.600
2020/01/31 01:48:16.8	97.630	0.000	-0.340	-0.600
2020/01/31 01:48:16.9	97.640	-0.010	-0.350	-0.590
2020/01/31 01:48:17.0	97.640	-0.020	-0.350	-0.580
2020/01/31 01:48:17.1	97.650	-0.020	-0.360	-0.570
2020/01/31 01:48:17.2	97.660	-0.030	-0.360	-0.550
2020/01/31 01:48:17.3	97.660	-0.040	-0.370	-0.520
2020/01/31 01:48:17.4	97.670	-0.050	-0.370	-0.500
2020/01/31 01:48:17.5	97.670	-0.050	-0.380	-0.460
2020/01/31 01:48:17.6	97.670	-0.060	-0.390	-0.430
2020/01/31 01:48:17.7	97.680	-0.060	-0.390	-0.390
2020/01/31 01:48:17.8	97.680	-0.060	-0.400	-0.340
2020/01/31 01:48:17.9	97.680	-0.070	-0.400	-0.300
2020/01/31 01:48:18.0	97.670	-0.070	-0.400	-0.240
2020/01/31 01:48:18.1	97.670	-0.070	-0.400	-0.190
2020/01/31 01:48:18.2	97.660	-0.070	-0.400	-0.130
2020/01/31 01:48:18.3	97.660	-0.070	-0.390	-0.070
2020/01/31 01:48:18.4	97.660	-0.080	-0.390	-0.010
2020/01/31 01:48:18.5	97.650	-0.080	-0.380	0.050
2020/01/31 01:48:18.6	97.650	-0.080	-0.360	0.110
2020/01/31 01:48:18.7	97.650	-0.080	-0.350	0.180
2020/01/31 01:48:18.8	97.640	-0.090	-0.330	0.250
2020/01/31 01:48:18.9	97.640	-0.090	-0.300	0.320
2020/01/31 01:48:19.0	97.630	-0.100	-0.280	0.390
2020/01/31 01:48:19.1	97.630	-0.110	-0.250	0.460
2020/01/31 01:48:19.2	97.620	-0.120	-0.220	0.530
2020/01/31 01:48:19.3	97.620	-0.130	-0.190	0.600
2020/01/31 01:48:19.4	97.610	-0.140	-0.150	0.670
2020/01/31 01:48:19.5	97.600	-0.150	-0.110	0.740
2020/01/31 01:48:19.6	97.600	-0.160	-0.070	0.810
2020/01/31 01:48:19.7	97.590	-0.180	-0.030	0.880
2020/01/31 01:48:19.8	97.580	-0.190	0.020	0.950
2020/01/31 01:48:19.9	97.580	-0.210	0.060	1.010
2020/01/31 01:48:20.0	97.570	-0.220	0.100	1.080
2020/01/31 01:48:20.1	97.560	-0.240	0.150	1.150
2020/01/31 01:48:20.2	97.560	-0.250	0.180	1.210
2020/01/31 01:48:20.3	97.550	-0.270	0.220	1.270
2020/01/31 01:48:20.4	97.550	-0.280	0.260	1.330
2020/01/31 01:48:20.5	97.540	-0.290	0.290	1.390
2020/01/31 01:48:20.6	97.540	-0.300	0.310	1.440
2020/01/31 01:48:20.7	97.540	-0.310	0.330	1.490
2020/01/31 01:48:20.8	97.540	-0.320	0.350	1.550
2020/01/31 01:48:20.9	97.530	-0.320	0.360	1.600
2020/01/31 01:48:21.0	97.540	-0.320	0.370	1.640
2020/01/31 01:48:21.1	97.540	-0.320	0.370	1.690
2020/01/31 01:48:21.2	97.540	-0.320	0.360	1.730
2020/01/31 01:48:21.3	97.540	-0.310	0.350	1.770
2020/01/31 01:48:21.4	97.540	-0.300	0.330	1.810
2020/01/31 01:48:21.5	97.540	-0.290	0.310	1.840
2020/01/31 01:48:21.6	97.550	-0.280	0.280	1.870
2020/01/31 01:48:21.7	97.550	-0.260	0.240	1.900
2020/01/31 01:48:21.8	97.560	-0.240	0.200	1.920
2020/01/31 01:48:21.9	97.560	-0.210	0.150	1.950
2020/01/31 01:48:22.0	97.580	-0.180	0.100	1.970
2020/01/31 01:48:22.1	97.590	-0.150	0.050	1.990
2020/01/31 01:48:22.2	97.590	-0.120	-0.010	2.000
2020/01/31 01:48:22.3	97.600	-0.080	-0.070	2.020
2020/01/31 01:48:22.4	97.610	-0.050	-0.130	2.020
2020/01/31 01:48:22.5	97.620	-0.010	-0.190	2.030
2020/01/31 01:48:22.6	97.620	0.030	-0.260	2.030
2020/01/31 01:48:22.7	97.630	0.070	-0.320	2.040
2020/01/31 01:48:22.8	97.640	0.120	-0.380	2.030
2020/01/31 01:48:22.9	97.650	0.160	-0.440	2.030
2020/01/31 01:48:23.0	97.660	0.200	-0.500	2.030
2020/01/31 01:48:23.1	97.670	0.240	-0.550	2.020
2020/01/31 01:48:23.2	97.670	0.280	-0.600	2.010
2020/01/31 01:48:23.3	97.680	0.320	-0.640	1.990
2020/01/31 01:48:23.4	97.690	0.350	-0.680	1.980
2020/01/31 01:48:23.5	97.690	0.390	-0.710	1.960
2020/01/31 01:48:23.6	97.700	0.420	-0.740	1.940
2020/01/31 01:48:23.7	97.700	0.450	-0.760	1.920
2020/01/31 01:48:23.8	97.700	0.470	-0.770	1.890
2020/01/31 01:48:23.9	97.700	0.490	-0.780	1.870
2020/01/31 01:48:24.0	97.710	0.510	-0.770	1.830
2020/01/31 01:48:24.1	97.710	0.530	-0.760	1.800
2020/01/31 01:48:24.2	97.700	0.540	-0.750	1.770
2020/01/31 01:48:24.3	97.700	0.540	-0.730	1.730
2020/01/31 01:48:24.4	97.690	0.550	-0.700	1.700
2020/01/31 01:48:24.5	97.690	0.540	-0.660	1.660
2020/01/31 01:48:24.6	97.680	0.540	-0.620	1.620
2020/01/31 01:48:24.7	97.670	0.530	-0.570	1.580
2020/01/31 01:48:24.8	97.660	0.510	-0.520	1.530
2020/01/31 01:48:24.9	97.640	0.500	-0.460	1.490
2020/01/31 01:48:25.0	97.630	0.480	-0.400	1.440
2020/01/31 01:48:25.1	97.610	0.450	-0.340	1.390
2020/01/31 01:48:25.2	97.600	0.420	-0.280	1.350
2020/01/31 01:48:25.3	97.580	0.390	-0.210	1.300
2020/01/31 01:48:25.4	97.560	0.360	-0.140	1.250
2020/01/31 01:48:25.5	97.540	0.330	-0.070	1.200
2020/01/31 01:48:25.6	97.530	0.290	-0.010	1.150
2020/01/31 01:48:25.7	97.510	0.260	0.060	1.090
2020/01/31 01:48:25.8	97.500	0.220	0.120	1.040
2020/01/31 01:48:25.9	97.480	0.180	0.180	0.990
2020/01/31 01:48:26.0	97.480	0.140	0.240	0.940
2020/01/31 01:48:26.1	97.470	0.110	0.300	0.890
2020/01/31 01:48:26.2	97.460	0.070	0.340	0.830
2020/01/31 01:48:26.3	97.450	0.030	0.390	0.780
2020/01/31 01:48:26.4	97.440	-0.000	0.420	0.730
2020/01/31 01:48:26.5	97.440	-0.030	0.450	0.670
2020/01/31 01:48:26.6	97.440	-0.060	0.480	0.620
2020/01/31 01:48:26.7	97.440	-0.090	0.490	0.570
2020/01/31 01:48:26.8	97.440	-0.120	0.500	0.520
2020/01/31 01:48:26.9	97.440	-0.140	0.500	0.470
2020/01/31 01:48:27.0	97.440	-0.160	0.500	0.420
2020/01/31 01:48:27.1	97.450	-0.170	0.490	0.380
2020/01/31 01:48:27.2	97.460	-0.190	0.470	0.330
2020/01/31 01:48:27.3	97.470	-0.200	0.440	0.290
2020/01/31 01:48:27.4	97.480	-0.200	0.400	0.250
2020/01/31 01:48:27.5	97.490	-0.210	0.360	0.210
2020/01/31 01:48:27.6	97.510	-0.210	0.320	0.170
2020/01/31 01:48:27.7	97.520	-0.200	0.260	0.140
2020/01/31 01:48:27.8	97.540	-0.200	0.210	0.100
2020/01/31 01:48:27.9	97.550	-0.190	0.150	0.070
2020/01/31 01:48:28.0	97.570	-0.180	0.080	0.040
2020/01/31 01:48:28.1	97.590	-0.160	0.020	0.020
2020/01/31 01:48:28.2	97.610	-0.150	-0.050	-0.010
2020/01/31 01:48:28.3	97.630	-0.130	-0.120	-0.030
2020/01/31 01:48:28.4	97.650	-0.120	-0.190	-0.050
2020/01/31 01:48:28.5	97.670	-0.100	-0.250	-0.070
2020/01/31 01:48:28.6	97.690	-0.080	-0.320	-0.080
2020/01/31 01:48:28.7	97.710	-0.060	-0.380	-0.090
2020/01/31 01:48:28.8	97.720	-0.040	-0.440	-0.100
2020/01/31 01:48:28.9	97.740	-0.030	-0.500	-0.110
2020/01/31 01:48:29.0	97.750	-0.010	-0.550	-0.110
2020/01/31 01:48:29.1	97.760	0.000	-0.590	-0.110
2020/01/31 01:48:29.2	97.780	0.020	-0.630	-0.110
2020/01/31 01:48:29.3	97.790	0.030	-0.660	-0.110
2020/01/31 01:48:29.4	97.790	0.030	-0.690	-0.100
2020/01/31 01:48:29.5	97.800	0.040	-0.710	-0.090
2020/01/31 01:48:29.6	97.800	0.040	-0.720	-0.080
2020/01/31 01:48:29.7	97.810	0.040	-0.720	-0.070
2020/01/31 01:48:29.8	97.810	0.040	-0.720	-0.050
2020/01/31 01:48:29.9	97.800	0.030	-0.710	-0.040
2020/01/31 01:48:30.0	97.790	0.020	-0.690	-0.010
2020/01/31 01:48:30.1	97.780	0.010	-0.670	0.000
2020/01/31 01:48:30.2	97.770	-0.000	-0.640	0.020
2020/01/31 01:48:30.3	97.760	-0.020	-0.610	0.040
2020/01/31 01:48:30.4	97.750	-0.040	-0.560	0.070
2020/01/31 01:48:30.5	97.730	-0.060	-0.520	0.090
2020/01/31 01:48:30.6	97.710	-0.090	-0.470	0.120
2020/01/31 01:48:30.7	97.690	-0.110	-0.410	0.150
2020/01/31 01:48:30.8	97.670	-0.140	-0.360	0.180
2020/01/31 01:48:30.9	97.650	-0.170	-0.300	0.210
2020/01/31 01:48:31.0	97.620	-0.190	-0.230	0.240
2020/01/31 01:48:31.1	97.590	-0.220	-0.170	0.270
2020/01/31 01:48:31.2	97.560	-0.250	-0.110	0.310
2020/01/31 01:48:31.3	97.530	-0.280	-0.050	0.340
2020/01/31 01:48:31.4	97.500	-0.300	0.020	0.380
2020/01/31 01:48:31.5	97.470	-0.330	0.080	0.420
2020/01/31 01:48:31.6	97.430	-0.350	0.130	0.470
2020/01/31 01:48:31.7	97.400	-0.370	0.190	0.510
2020/01/31 01:48:31.8	97.360	-0.390	0.240	0.550
2020/01/31 01:48:31.9	97.330	-0.400	0.290	0.590
2020/01/31 01:48:32.0	97.280	-0.420	0.340	0.640
2020/01/31 01:48:32.1	97.250	-0.420	0.380	0.680
2020/01/31 01:48:32.2	97.210	-0.430	0.410	0.720
2020/01/31 01:48:32.3	97.180	-0.430	0.430	0.760
2020/01/31 01:48:32.4	97.150	-0.430	0.450	0.800
2020/01/31 01:48:32.5	97.120	-0.430	0.470	0.840
2020/01/31 01:48:32.6	97.100	-0.420	0.480	0.880
2020/01/31 01:48:32.7	97.070	-0.410	0.480	0.910
2020/01/31 01:48:32.8	97.050	-0.390	0.470	0.950
2020/01/31 01:48:32.9	97.030	-0.370	0.460	0.980
2020/01/31 01:48:33.0	97.020	-0.350	0.440	1.010
2020/01/31 01:48:33.1	97.010	-0.320	0.410	1.040
2020/01/31 01:48:33.2	96.990	-0.290	0.380	1.060
2020/01/31 01:48:33.3	96.990	-0.260	0.350	1.090
2020/01/31 01:48:33.4	96.980	-0.220	0.300	1.110
2020/01/31 01:48:33.5	96.980	-0.190	0.260	1.130
2020/01/31 01:48:33.6	96.980	-0.150	0.210	1.150
2020/01/31 01:48:33.7	96.980	-0.110	0.150	1.160
2020/01/31 01:48:33.8	96.980	-0.070	0.090	1.180
2020/01/31 01:48:33.9	96.990	-0.020	0.030	1.190
2020/01/31 01:48:34.0	97.000	0.020	-0.030	1.210
2020/01/31 01:48:34.1	97.010	0.060	-0.100	1.210
2020/01/31 01:48:34.2	97.020	0.110	-0.170	1.220
2020/01/31 01:48:34.3	97.030	0.150	-0.240	1.220
2020/01/31 01:48:34.4	97.050	0.190	-0.300	1.230
2020/01/31 01:48:34.5	97.060	0.230	-0.370	1.230
2020/01/31 01:48:34.6	97.080	0.270	-0.440	1.220
2020/01/31 01:48:34.7	97.100	0.310	-0.500	1.220
2020/01/31 01:48:34.8	97.110	0.340	-0.570	1.210
2020/01/31 01:48:34.9	97.130	0.380	-0.630	1.200
2020/01/31 01:48:35.0	97.150	0.410	-0.690	1.200
2020/01/31 01:48:35.1	97.170	0.430	-0.740	1.180
2020/01/31 01:48:35.2	97.190	0.460	-0.790	1.170
2020/01/31 01:48:35.3	97.210	0.480	-0.830	1.150
2020/01/31 01:48:35.4	97.230	0.500	-0.870	1.140
2020/01/31 01:48:35.5	97.240	0.510	-0.900	1.120
2020/01/31 01:48:35.6	97.260	0.520	-0.930	1.100
2020/01/31 01:48:35.7	97.270	0.530	-0.950	1.080
2020/01/31 01:48:35.8	97.280	0.530	-0.970	1.060
2020/01/31 01:48:35.9	97.290	0.530	-0.970	1.040
2020/01/31 01:48:36.0	97.310	0.520	-0.970	1.020
2020/01/31 01:48:36.1	97.320	0.520	-0.970	1.000
2020/01/31 01:48:36.2	97.320	0.510	-0.960	0.980
2020/01/31 01:48:36.3	97.330	0.490	-0.940	0.970
2020/01/31 01:48:36.4	97.330	0.480	-0.910	0.950
2020/01/31 01:48:36.5	97.330	0.460	-0.880	0.940
2020/01/31 01:48:36.6	97.330	0.440	-0.840	0.920
2020/01/31 01:48:36.7	97.330	0.410	-0.800	0.910
2020/01/31 01:48:36.8	97.330	0.380	-0.750	0.900
2020/01/31 01:48:36.9	97.330	0.360	-0.700	0.900
2020/01/31 01:48:37.0	97.330	0.330	-0.640	0.890
2020/01/31 01:48:37.1	97.330	0.290	-0.570	0.890
2020/01/31 01:48:37.2	97.320	0.260	-0.510	0.890
2020/01/31 01:48:37.3	97.320	0.220	-0.430	0.890
2020/01/31 01:48:37.4	97.310	0.190	-0.360	0.900
2020/01/31 01:48:37.5	97.300	0.150	-0.290	0.910
2020/01/31 01:48:37.6	97.290	0.120	-0.210	0.920
2020/01/31 01:48:37.7	97.280	0.080	-0.130	0.930
2020/01/31 01:48:37.8	97.270	0.040	-0.050	0.940
2020/01/31 01:48:37.9	97.260	0.010	0.030	0.960
2020/01/31 01:48:38.0	97.240	-0.030	0.110	0.980
2020/01/31 01:48:38.1	97.230	-0.060	0.190	1.010
2020/01/31 01:48:38.2	97.210	-0.100	0.260	1.030
2020/01/31 01:48:38.3	97.190	-0.130	0.330	1.050
2020/01/31 01:48:38.4	97.170	-0.160	0.400	1.070
2020/01/31 01:48:38.5	97.150	-0.190	0.460	1.100
2020/01/31 01:48:38.6	97.130	-0.220	0.510	1.130
2020/01/31 01:48:38.7	97.110	-0.240	0.570	1.150
2020/01/31 01:48:38.8	97.080	-0.260	0.610	1.180
2020/01/31 01:48:38.9	97.060	-0.280	0.650	1.200
2020/01/31 01:48:39.0	97.040	-0.300	0.690	1.230
2020/01/31 01:48:39.1	97.020	-0.320	0.710	1.250
2020/01/31 01:48:39.2	96.990	-0.330	0.730	1.280
2020/01/31 01:48:39.3	96.970	-0.340	0.750	1.300
2020/01/31 01:48:39.4	96.940	-0.350	0.750	1.320
2020/01/31 01:48:39.5	96.920	-0.350	0.750	1.340
2020/01/31 01:48:39.6	96.890	-0.350	0.750	1.360
2020/01/31 01:48:39.7	96.870	-0.350	0.730	1.380
2020/01/31 01:48:39.8	96.850	-0.350	0.720	1.400
2020/01/31 01:48:39.9	96.830	-0.340	0.690	1.410
2020/01/31 01:48:40.0	96.820	-0.340	0.660	1.420
2020/01/31 01:48:40.1	96.800	-0.330	0.620	1.430
2020/01/31 01:48:40.2	96.780	-0.310	0.580	1.440
2020/01/31 01:48:40.3	96.770	-0.300	0.540	1.450
2020/01/31 01:48:40.4	96.750	-0.280	0.490	1.450
2020/01/31 01:48:40.5	96.740	-0.270	0.440	1.450
2020/01/31 01:48:40.6	96.730	-0.250	0.380	1.440
2020/01/31 01:48:40.7	96.720	-0.230	0.320	1.440
2020/01/31 01:48:40.8	96.720	-0.210	0.260	1.430
2020/01/31 01:48:40.9	96.710	-0.190	0.200	1.420
2020/01/31 01:48:41.0	96.710	-0.160	0.130	1.400
2020/01/31 01:48:41.1	96.710	-0.140	0.060	1.380
2020/01/31 01:48:41.2	96.720	-0.120	-0.000	1.360
2020/01/31 01:48:41.3	96.720	-0.090	-0.070	1.330
2020/01/31 01:48:41.4	96.730	-0.070	-0.140	1.310
2020/01/31 01:48:41.5	96.740	-0.050	-0.200	1.280
2020/01/31 01:48:41.6	96.750	-0.020	-0.270	1.250
2020/01/31 01:48:41.7	96.760	-0.000	-0.330	1.210
2020/01/31 01:48:41.8	96.770	0.020	-0.400	1.180
2020/01/31 01:48:41.9	96.790	0.040	-0.460	1.140
2020/01/31 01:48:42.0	96.790	0.060	-0.510	1.100
2020/01/31 01:48:42.1	96.810	0.080	-0.570	1.060
2020/01/31 01:48:42.2	96.830	0.100	-0.620	1.020
2020/01/31 01:48:42.3	96.850	0.120	-0.670	0.980
2020/01/31 01:48:42.4	96.860	0.140	-0.710	0.940
2020/01/31 01:48:42.5	96.880	0.150	-0.750	0.890
2020/01/31 01:48:42.6	96.900	0.170	-0.780	0.850
2020/01/31 01:48:42.7	96.920	0.180	-0.810	0.810
2020/01/31 01:48:42.8	96.940	0.190	-0.830	0.760
2020/01/31 01:48:42.9	96.950	0.200	-0.850	0.720
2020/01/31 01:48:43.0	96.990	0.210	-0.860	0.680
2020/01/31 01:48:43.1	97.000	0.210	-0.860	0.640
2020/01/31 01:48:43.2	97.020	0.220	-0.860	0.600
2020/01/31 01:48:43.3	97.040	0.220	-0.850	0.570
2020/01/31 01:48:43.4	97.050	0.220	-0.840	0.530
2020/01/31 01:48:43.5	97.060	0.220	-0.820	0.500
2020/01/31 01:48:43.6	97.080	0.220	-0.790	0.470
2020/01/31 01:48:43.7	97.090	0.210	-0.760	0.440
2020/01/31 01:48:43.8	97.100	0.200	-0.720	0.420
2020/01/31 01:48:43.9	97.110	0.200	-0.680	0.390
2020/01/31 01:48:44.0	97.100	0.190	-0.640	0.380
2020/01/31 01:48:44.1	97.100	0.180	-0.590	0.360
2020/01/31 01:48:44.2	97.100	0.170	-0.530	0.350
2020/01/31 01:48:44.3	97.100	0.150	-0.480	0.340
2020/01/31 01:48:44.4	97.090	0.140	-0.420	0.330
2020/01/31 01:48:44.5	97.090	0.130	-0.360	0.330
2020/01/31 01:48:44.6	97.080	0.110	-0.300	0.330
2020/01/31 01:48:44.7	97.070	0.100	-0.240	0.340
2020/01/31 01:48:44.8	97.050	0.080	-0.180	0.340
2020/01/31 01:48:44.9	97.030	0.070	-0.120	0.360
2020/01/31 01:48:45.0	97.020	0.060	-0.060	0.370
2020/01/31 01:48:45.1	96.990	0.040	-0.000	0.390
2020/01/31 01:48:45.2	96.960	0.030	0.050	0.410
2020/01/31 01:48:45.3	96.930	0.020	0.100	0.430
2020/01/31 01:48:45.4	96.900	0.010	0.140	0.460
2020/01/31 01:48:45.5	96.870	-0.000	0.190	0.480
2020/01/31 01:48:45.6	96.830	-0.010	0.220	0.510
2020/01/31 01:48:45.7	96.790	-0.020	0.260	0.540
2020/01/31 01:48:45.8	96.750	-0.020	0.280	0.570
2020/01/31 01:48:45.9	96.710	-0.030	0.300	0.600
2020/01/31 01:48:46.0	96.680	-0.030	0.320	0.630
2020/01/31 01:48:46.1	96.640	-0.030	0.330	0.660
2020/01/31 01:48:46.2	96.600	-0.030	0.330	0.680
2020/01/31 01:48:46.3	96.560	-0.030	0.330	0.710
2020/01/31 01:48:46.4	96.520	-0.030	0.330	0.740
2020/01/31 01:48:46.5	96.480	-0.030	0.310	0.760
2020/01/31 01:48:46.6	96.440	-0.020	0.290	0.780
2020/01/31 01:48:46.7	96.410	-0.020	0.270	0.800
2020/01/31 01:48:46.8	96.380	-0.010	0.240	0.820
2020/01/31 01:48:46.9	96.350	-0.000	0.210	0.840
2020/01/31 01:48:47.0	96.320	0.010	0.170	0.850
2020/01/31 01:48:47.1	96.290	0.020	0.120	0.870
2020/01/31 01:48:47.2	96.280	0.030	0.080	0.880
2020/01/31 01:48:47.3	96.260	0.040	0.030	0.890
2020/01/31 01:48:47.4	96.250	0.050	-0.020	0.900
2020/01/31 01:48:47.5	96.240	0.060	-0.070	0.910
2020/01/31 01:48:47.6	96.240	0.070	-0.130	0.910
2020/01/31 01:48:47.7	96.230	0.080	-0.180	0.920
2020/01/31 01:48:47.8	96.240	0.090	-0.240	0.920
2020/01/31 01:48:47.9	96.240	0.100	-0.290	0.920
2020/01/31 01:48:48.0	96.270	0.110	-0.340	0.930
2020/01/31 01:48:48.1	96.280	0.110	-0.400	0.930
2020/01/31 01:48:48.2	96.300	0.120	-0.450	0.930
2020/01/31 01:48:48.3	96.310	0.120	-0.490	0.930
2020/01/31 01:48:48.4	96.330	0.130	-0.530	0.920
2020/01/31 01:48:48.5	96.360	0.130	-0.570	0.920
2020/01/31 01:48:48.6	96.380	0.130	-0.610	0.920
2020/01/31 01:48:48.7	96.410	0.130	-0.640	0.910
2020/01/31 01:48:48.8	96.430	0.130	-0.660	0.910
2020/01/31 01:48:48.9	96.460	0.130	-0.680	0.900
2020/01/31 01:48:49.0	96.480	0.120	-0.690	0.890
2020/01/31 01:48:49.1	96.510	0.110	-0.700	0.880
2020/01/31 01:48:49.2	96.540	0.100	-0.700	0.870
2020/01/31 01:48:49.3	96.580	0.090	-0.690	0.860
2020/01/31 01:48:49.4	96.610	0.080	-0.680	0.840
2020/01/31 01:48:49.5	96.640	0.070	-0.660	0.830
2020/01/31 01:48:49.6	96.670	0.050	-0.630	0.820
2020/01/31 01:48:49.7	96.700	0.040	-0.600	0.810
2020/01/31 01:48:49.8	96.730	0.020	-0.560	0.790
2020/01/31 01:48:49.9	96.760	0.000	-0.520	0.780
2020/01/31 01:48:50.0	96.800	-0.020	-0.460	0.780
2020/01/31 01:48:50.1	96.830	-0.040	-0.410	0.770
2020/01/31 01:48:50.2	96.850	-0.060	-0.350	0.760
2020/01/31 01:48:50.3	96.880	-0.080	-0.290	0.750
2020/01/31 01:48:50.4	96.900	-0.100	-0.230	0.750
2020/01/31 01:48:50.5	96.920	-0.120	-0.160	0.750
2020/01/31 01:48:50.6	96.940	-0.140	-0.100	0.750
2020/01/31 01:48:50.7	96.960	-0.160	-0.030	0.750
2020/01/31 01:48:50.8	96.980	-0.180	0.030	0.750
2020/01/31 01:48:50.9	96.990	-0.200	0.090	0.760
2020/01/31 01:48:51.0	97.000	-0.210	0.150	0.770
2020/01/31 01:48:51.1	97.010	-0.230	0.210	0.780
2020/01/31 01:48:51.2	97.020	-0.240	0.260	0.790
2020/01/31 01:48:51.3	97.030	-0.260	0.320	0.800
2020/01/31 01:48:51.4	97.030	-0.270	0.360	0.810
2020/01/31 01:48:51.5	97.030	-0.280	0.400	0.820
2020/01/31 01:48:51.6	97.030	-0.290	0.440	0.840
2020/01/31 01:48:51.7	97.030	-0.290	0.470	0.850
2020/01/31 01:48:51.8	97.030	-0.300	0.490	0.870
2020/01/31 01:48:51.9	97.030	-0.300	0.510	0.890
2020/01/31 01:48:52.0	97.020	-0.300	0.530	0.910
2020/01/31 01:48:52.1	97.010	-0.300	0.540	0.920
2020/01/31 01:48:52.2	97.010	-0.290	0.540	0.940
2020/01/31 01:48:52.3	97.000	-0.290	0.540	0.960
2020/01/31 01:48:52.4	96.990	-0.280	0.530	0.980
2020/01/31 01:48:52.5	96.980	-0.270	0.510	1.000
2020/01/31 01:48:52.6	96.970	-0.260	0.490	1.020
2020/01/31 01:48:52.7	96.960	-0.250	0.470	1.040
2020/01/31 01:48:52.8	96.940	-0.240	0.430	1.060
2020/01/31 01:48:52.9	96.930	-0.220	0.400	1.080
2020/01/31 01:48:53.0	96.940	-0.210	0.360	1.100
2020/01/31 01:48:53.1	96.920	-0.190	0.320	1.120
2020/01/31 01:48:53.2	96.900	-0.180	0.270	1.150
2020/01/31 01:48:53.3	96.880	-0.160	0.230	1.170
2020/01/31 01:48:53.4	96.860	-0.140	0.180	1.190
2020/01/31 01:48:53.5	96.840	-0.120	0.130	1.220
2020/01/31 01:48:53.6	96.820	-0.100	0.070	1.240
2020/01/31 01:48:53.7	96.790	-0.090	0.020	1.270
2020/01/31 01:48:53.8	96.770	-0.070	-0.040	1.290
2020/01/31 01:48:53.9	96.740	-0.050	-0.090	1.310
2020/01/31 01:48:54.0	96.720	-0.030	-0.150	1.330
2020/01/31 01:48:54.1	96.690	-0.010	-0.200	1.350
2020/01/31 01:48:54.2	96.670	0.010	-0.250	1.370
2020/01/31 01:48:54.3	96.640	0.020	-0.300	1.390
2020/01/31 01:48:54.4	96.620	0.040	-0.350	1.400
2020/01/31 01:48:54.5	96.590	0.060	-0.400	1.410
2020/01/31 01:48:54.6	96.570	0.070	-0.440	1.420
2020/01/31 01:48:54.7	96.550	0.090	-0.480	1.430
2020/01/31 01:48:54.8	96.530	0.100	-0.520	1.430
2020/01/31 01:48:54.9	96.510	0.110	-0.550	1.430
2020/01/31 01:48:55.0	96.490	0.130	-0.580	1.430
2020/01/31 01:48:55.1	96.470	0.140	-0.600	1.430
2020/01/31 01:48:55.2	96.450	0.150	-0.630	1.420
2020/01/31 01:48:55.3	96.440	0.160	-0.650	1.420
2020/01/31 01:48:55.4	96.420	0.170	-0.660	1.410
2020/01/31 01:48:55.5	96.410	0.180	-0.670	1.390
2020/01/31 01:48:55.6	96.390	0.190	-0.680	1.380
2020/01/31 01:48:55.7	96.380	0.200	-0.690	1.360
2020/01/31 01:48:55.8	96.370	0.200	-0.690	1.340
2020/01/31 01:48:55.9	96.360	0.210	-0.690	1.320
2020/01/31 01:48:56.0	96.360	0.220	-0.680	1.300
2020/01/31 01:48:56.1	96.360	0.220	-0.680	1.270
2020/01/31 01:48:56.2	96.350	0.230	-0.670	1.240
2020/01/31 01:48:56.3	96.350	0.230	-0.660	1.210
2020/01/31 01:48:56.4	96.350	0.230	-0.640	1.170
2020/01/31 01:48:56.5	96.360	0.240	-0.630	1.140
2020/01/31 01:48:56.6	96.360	0.240	-0.610	1.100
2020/01/31 01:48:56.7	96.370	0.240	-0.590	1.060
2020/01/31 01:48:56.8	96.380	0.240	-0.570	1.010
2020/01/31 01:48:56.9	96.380	0.240	-0.550	0.970
2020/01/31 01:48:57.0	96.400	0.240	-0.520	0.930
2020/01/31 01:48:57.1	96.410	0.240	-0.490	0.880
2020/01/31 01:48:57.2	96.420	0.240	-0.470	0.830
2020/01/31 01:48:57.3	96.440	0.240	-0.440	0.780
2020/01/31 01:48:57.4	96.460	0.230	-0.420	0.730
2020/01/31 01:48:57.5	96.470	0.230	-0.390	0.670
2020/01/31 01:48:57.6	96.490	0.230	-0.360	0.620
2020/01/31 01:48:57.7	96.510	0.220	-0.330	0.570
2020/01/31 01:48:57.8	96.530	0.220	-0.300	0.520
2020/01/31 01:48:57.9	96.560	0.210	-0.280	0.470
2020/01/31 01:48:58.0	96.560	0.210	-0.250	0.420
2020/01/31 01:48:58.1	96.590	0.200	-0.220	0.370
2020/01/31 01:48:58.2	96.610	0.200	-0.190	0.320
2020/01/31 01:48:58.3	96.630	0.190	-0.160	0.280
2020/01/31 01:48:58.4	96.650	0.180	-0.140	0.240
2020/01/31 01:48:58.5	96.670	0.180	-0.110	0.200
2020/01/31 01:48:58.6	96.690	0.170	-0.080	0.160
2020/01/31 01:48:58.7	96.720	0.160	-0.060	0.130
2020/01/31 01:48:58.8	96.730	0.150	-0.030	0.100
2020/01/31 01:48:58.9	96.750	0.140	-0.000	0.070
2020/01/31 01:48:59.0	96.780	0.130	0.020	0.050
2020/01/31 01:48:59.1	96.790	0.120	0.050	0.030
2020/01/31 01:48:59.2	96.810	0.110	0.070	0.010
2020/01/31 01:48:59.3	96.820	0.100	0.090	0.000
2020/01/31 01:48:59.4	96.830	0.090	0.110	-0.010
2020/01/31 01:48:59.5	96.840	0.080	0.130	-0.010
2020/01/31 01:48:59.6	96.850	0.060	0.150	-0.020
2020/01/31 01:48:59.7	96.860	0.050	0.170	-0.010
2020/01/31 01:48:59.8	96.870	0.040	0.190	-0.010
2020/01/31 01:48:59.9	96.870	0.030	0.200	0.000
2020/01/31 01:49:00.0	96.870	0.010	0.210	0.020
2020/01/31 01:49:00.1	96.870	0.000	0.230	0.030
2020/01/31 01:49:00.2	96.870	-0.010	0.240	0.050
2020/01/31 01:49:00.3	96.860	-0.030	0.250	0.080
2020/01/31 01:49:00.4	96.860	-0.040	0.250	0.100
2020/01/31 01:49:00.5	96.850	-0.060	0.260	0.130
2020/01/31 01:49:00.6	96.840	-0.070	0.260	0.160
2020/01/31 01:49:00.7	96.830	-0.090	0.260	0.190
2020/01/31 01:49:00.8	96.820	-0.100	0.260	0.230
2020/01/31 01:49:00.9	96.810	-0.120	0.260	0.270
2020/01/31 01:49:01.0	96.790	-0.130	0.260	0.310
2020/01/31 01:49:01.1	96.780	-0.150	0.260	0.350
2020/01/31 01:49:01.2	96.760	-0.160	0.250	0.400
2020/01/31 01:49:01.3	96.750	-0.180	0.250	0.440
2020/01/31 01:49:01.4	96.730	-0.190	0.240	0.490
2020/01/31 01:49:01.5	96.720	-0.200	0.230	0.530
2020/01/31 01:49:01.6	96.700	-0.220	0.220	0.580
2020/01/31 01:49:01.7	96.690	-0.230	0.210	0.620
2020/01/31 01:49:01.8	96.680	-0.250	0.200	0.670
2020/01/31 01:49:01.9	96.660	-0.260	0.190	0.720
2020/01/31 01:49:02.0	96.650	-0.270	0.170	0.760
2020/01/31 01:49:02.1	96.630	-0.280	0.160	0.810
2020/01/31 01:49:02.2	96.630	-0.290	0.140	0.850
2020/01/31 01:49:02.3	96.620	-0.300	0.130	0.900
2020/01/31 01:49:02.4	96.610	-0.310	0.110	0.940
2020/01/31 01:49:02.5	96.610	-0.320	0.090	0.990
2020/01/31 01:49:02.6	96.600	-0.330	0.070	1.030
2020/01/31 01:49:02.7	96.600	-0.330	0.050	1.070
2020/01/31 01:49:02.8	96.600	-0.340	0.030	1.110
2020/01/31 01:49:02.9	96.600	-0.340	0.000	1.150
2020/01/31 01:49:03.0	96.610	-0.340	-0.020	1.190
2020/01/31 01:49:03.1	96.610	-0.340	-0.050	1.220
2020/01/31 01:49:03.2	96.620	-0.340	-0.080	1.260
2020/01/31 01:49:03.3	96.620	-0.330	-0.110	1.290
2020/01/31 01:49:03.4	96.630	-0.330	-0.150	1.320
2020/01/31 01:49:03.5	96.640	-0.320	-0.180	1.360
2020/01/31 01:49:03.6	96.650	-0.310	-0.220	1.380
2020/01/31 01:49:03.7	96.670	-0.300	-0.250	1.410
2020/01/31 01:49:03.8	96.680	-0.290	-0.290	1.440
2020/01/31 01:49:03.9	96.690	-0.280	-0.330	1.470
2020/01/31 01:49:04.0	96.710	-0.260	-0.370	1.500
2020/01/31 01:49:04.1	96.720	-0.250	-0.410	1.520
2020/01/31 01:49:04.2	96.730	-0.230	-0.450	1.550
2020/01/31 01:49:04.3	96.740	-0.210	-0.490	1.570
2020/01/31 01:49:04.4	96.750	-0.190	-0.530	1.600
2020/01/31 01:49:04.5	96.760	-0.160	-0.570	1.620
2020/01/31 01:49:04.6	96.770	-0.140	-0.610	1.640
2020/01/31 01:49:04.7	96.780	-0.120	-0.640	1.670
2020/01/31 01:49:04.8	96.780	-0.090	-0.680	1.690
2020/01/31 01:49:04.9	96.790	-0.060	-0.710	1.710
2020/01/31 01:49:05.0	96.790	-0.030	-0.740	1.740
2020/01/31 01:49:05.1	96.800	-0.010	-0.770	1.760
2020/01/31 01:49:05.2	96.800	0.020	-0.800	1.780
2020/01/31 01:49:05.3	96.800	0.050	-0.820	1.800
2020/01/31 01:49:05.4	96.800	0.080	-0.840	1.810
2020/01/31 01:49:05.5	96.800	0.110	-0.860	1.830
2020/01/31 01:49:05.6	96.800	0.140	-0.870	1.840
2020/01/31 01:49:05.7	96.800	0.170	-0.880	1.850
2020/01/31 01:49:05.8	96.800	0.200	-0.880	1.870
2020/01/31 01:49:05.9	96.790	0.230	-0.880	1.870
2020/01/31 01:49:06.0	96.790	0.250	-0.870	1.880
2020/01/31 01:49:06.1	96.790	0.280	-0.870	1.890
2020/01/31 01:49:06.2	96.780	0.300	-0.850	1.890
2020/01/31 01:49:06.3	96.780	0.330	-0.840	1.890
2020/01/31 01:49:06.4	96.770	0.350	-0.810	1.890
2020/01/31 01:49:06.5	96.770	0.360	-0.790	1.890
2020/01/31 01:49:06.6	96.770	0.380	-0.760	1.880
2020/01/31 01:49:06.7	96.760	0.400	-0.720	1.870
2020/01/31 01:49:06.8	96.750	0.410	-0.680	1.860
2020/01/31 01:49:06.9	96.750	0.420	-0.630	1.850
2020/01/31 01:49:07.0	96.750	0.420	-0.580	1.830
2020/01/31 01:49:07.1	96.740	0.430	-0.530	1.810
2020/01/31 01:49:07.2	96.740	0.430	-0.470	1.790
2020/01/31 01:49:07.3	96.730	0.420	-0.410	1.770
2020/01/31 01:49:07.4	96.730	0.420	-0.350	1.740
2020/01/31 01:49:07.5	96.730	0.410	-0.280	1.710
2020/01/31 01:49:07.6	96.720	0.400	-0.210	1.680
2020/01/31 01:49:07.7	96.720	0.390	-0.140	1.640
2020/01/31 01:49:07.8	96.720	0.370	-0.070	1.600
2020/01/31 01:49:07.9	96.710	0.350	0.010	1.560
2020/01/31 01:49:08.0	96.710	0.320	0.090	1.520
2020/01/31 01:49:08.1	96.710	0.300	0.160	1.470
2020/01/31 01:49:08.2	96.710	0.270	0.240	1.430
2020/01/31 01:49:08.3	96.710	0.240	0.320	1.380
2020/01/31 01:49:08.4	96.700	0.210	0.390	1.330
2020/01/31 01:49:08.5	96.700	0.170	0.470	1.280
2020/01/31 01:49:08.6	96.690	0.140	0.540	1.230
2020/01/31 01:49:08.7	96.690	0.100	0.610	1.180
2020/01/31 01:49:08.8	96.680	0.060	0.670	1.130
2020/01/31 01:49:08.9	96.670	0.030	0.740	1.070
2020/01/31 01:49:09.0	96.670	-0.010	0.790	1.020
2020/01/31 01:49:09.1	96.660	-0.050	0.850	0.970
2020/01/31 01:49:09.2	96.650	-0.090	0.900	0.920
2020/01/31 01:49:09.3	96.640	-0.130	0.940	0.860
2020/01/31 01:49:09.4	96.630	-0.170	0.980	0.810
2020/01/31 01:49:09.5	96.620	-0.210	1.020	0.760
2020/01/31 01:49:09.6	96.610	-0.240	1.050	0.710
2020/01/31 01:49:09.7	96.600	-0.280	1.070	0.660
2020/01/31 01:49:09.8	96.590	-0.310	1.080	0.600
2020/01/31 01:49:09.9	96.590	-0.340	1.080	0.550
2020/01/31 01:49:10.0	96.580	-0.370	1.080	0.500
2020/01/31 01:49:10.1	96.580	-0.390	1.070	0.440
2020/01/31 01:49:10.2	96.570	-0.410	1.050	0.390
2020/01/31 01:49:10.3	96.570	-0.430	1.020	0.330
2020/01/31 01:49:10.4	96.570	-0.450	0.990	0.280
2020/01/31 01:49:10.5	96.570	-0.460	0.940	0.220
2020/01/31 01:49:10.6	96.570	-0.460	0.880	0.160
2020/01/31 01:49:10.7	96.570	-0.470	0.820	0.100
2020/01/31 01:49:10.8	96.570	-0.460	0.740	0.040
2020/01/31 01:49:10.9	96.570	-0.460	0.660	-0.020
2020/01/31 01:49:11.0	96.580	-0.450	0.570	-0.080
2020/01/31 01:49:11.1	96.590	-0.430	0.470	-0.140
2020/01/31 01:49:11.2	96.600	-0.410	0.360	-0.190
2020/01/31 01:49:11.3	96.600	-0.390	0.240	-0.250
2020/01/31 01:49:11.4	96.610	-0.360	0.120	-0.310
2020/01/31 01:49:11.5	96.620	-0.330	-0.000	-0.360
2020/01/31 01:49:11.6	96.630	-0.290	-0.130	-0.410
2020/01/31 01:49:11.7	96.650	-0.250	-0.270	-0.460
2020/01/31 01:49:11.8	96.660	-0.210	-0.400	-0.510
2020/01/31 01:49:11.9	96.670	-0.170	-0.540	-0.560
2020/01/31 01:49:12.0	96.670	-0.120	-0.670	-0.590
2020/01/31 01:49:12.1	96.690	-0.080	-0.800	-0.630
2020/01/31 01:49:12.2	96.700	-0.030	-0.930	-0.670
2020/01/31 01:49:12.3	96.720	0.020	-1.060	-0.700
2020/01/31 01:49:12.4	96.730	0.070	-1.180	-0.720
2020/01/31 01:49:12.5	96.750	0.120	-1.290	-0.740
2020/01/31 01:49:12.6	96.760	0.160	-1.390	-0.760
2020/01/31 01:49:12.7	96.770	0.210	-1.490	-0.770
2020/01/31 01:49:12.8	96.790	0.250	-1.570	-0.780
2020/01/31 01:49:12.9	96.800	0.290	-1.640	-0.770
2020/01/31 01:49:13.0	96.820	0.330	-1.700	-0.770
2020/01/31 01:49:13.1	96.840	0.360	-1.750	-0.760
2020/01/31 01:49:13.2	96.850	0.390	-1.780	-0.740
2020/01/31 01:49:13.3	96.860	0.410	-1.800	-0.720
2020/01/31 01:49:13.4	96.870	0.430	-1.800	-0.690
2020/01/31 01:49:13.5	96.880	0.440	-1.790	-0.650
2020/01/31 01:49:13.6	96.900	0.450	-1.770	-0.610
2020/01/31 01:49:13.7	96.910	0.450	-1.730	-0.570
2020/01/31 01:49:13.8	96.910	0.440	-1.680	-0.520
2020/01/31 01:49:13.9	96.920	0.430	-1.610	-0.460
2020/01/31 01:49:14.0	96.940	0.420	-1.530	-0.380
2020/01/31 01:49:14.1	96.950	0.400	-1.440	-0.320
2020/01/31 01:49:14.2	96.950	0.370	-1.340	-0.250
2020/01/31 01:49:14.3	96.960	0.340	-1.230	-0.170
2020/01/31 01:49:14.4	96.960	0.310	-1.110	-0.090
2020/01/31 01:49:14.5	96.960	0.270	-0.980	-0.010
2020/01/31 01:49:14.6	96.960	0.230	-0.850	0.070
2020/01/31 01:49:14.7	96.960	0.180	-0.710	0.160
2020/01/31 01:49:14.8	96.960	0.140	-0.570	0.250
2020/01/31 01:49:14.9	96.950	0.090	-0.430	0.340
2020/01/31 01:49:15.0	96.950	0.040	-0.290	0.430
2020/01/31 01:49:15.1	96.940	-0.010	-0.150	0.520
2020/01/31 01:49:15.2	96.930	-0.060	-0.010	0.610
2020/01/31 01:49:15.3	96.920	-0.110	0.120	0.710
2020/01/31 01:49:15.4	96.900	-0.160	0.250	0.800
2020/01/31 01:49:15.5	96.890	-0.210	0.380	0.890
2020/01/31 01:49:15.6	96.870	-0.260	0.490	0.980
2020/01/31 01:49:15.7	96.860	-0.300	0.600	1.070
2020/01/31 01:49:15.8	96.840	-0.350	0.700	1.160
2020/01/31 01:49:15.9	96.820	-0.380	0.800	1.240
2020/01/31 01:49:16.0	96.800	-0.420	0.880	1.330
2020/01/31 01:49:16.1	96.780	-0.450	0.960	1.410
2020/01/31 01:49:16.2	96.760	-0.480	1.020	1.480
2020/01/31 01:49:16.3	96.740	-0.500	1.070	1.560
2020/01/31 01:49:16.4	96.720	-0.520	1.120	1.630
2020/01/31 01:49:16.5	96.700	-0.530	1.150	1.700
2020/01/31 01:49:16.6	96.670	-0.540	1.170	1.760
2020/01/31 01:49:16.7	96.650	-0.540	1.180	1.830
2020/01/31 01:49:16.8	96.630	-0.540	1.170	1.880
2020/01/31 01:49:16.9	96.610	-0.530	1.160	1.940
2020/01/31 01:49:17.0	96.590	-0.520	1.140	1.990
2020/01/31 01:49:17.1	96.570	-0.500	1.110	2.030
2020/01/31 01:49:17.2	96.560	-0.480	1.070	2.070
2020/01/31 01:49:17.3	96.540	-0.450	1.010	2.100
2020/01/31 01:49:17.4	96.520	-0.420	0.950	2.130
2020/01/31 01:49:17.5	96.510	-0.390	0.890	2.160
2020/01/31 01:49:17.6	96.490	-0.350	0.810	2.180
2020/01/31 01:49:17.7	96.480	-0.310	0.730	2.190
2020/01/31 01:49:17.8	96.470	-0.260	0.640	2.200
2020/01/31 01:49:17.9	96.470	-0.220	0.550	2.200
2020/01/31 01:49:18.0	96.450	-0.170	0.440	2.200
2020/01/31 01:49:18.1	96.450	-0.120	0.340	2.190
2020/01/31 01:49:18.2	96.450	-0.070	0.240	2.180
2020/01/31 01:49:18.3	96.450	-0.010	0.130	2.170
2020/01/31 01:49:18.4	96.450	0.040	0.020	2.150
2020/01/31 01:49:18.5	96.450	0.090	-0.080	2.120
2020/01/31 01:49:18.6	96.460	0.140	-0.190	2.100
2020/01/31 01:49:18.7	96.460	0.190	-0.290	2.060
2020/01/31 01:49:18.8	96.470	0.240	-0.390	2.030
2020/01/31 01:49:18.9	96.480	0.280	-0.480	1.990
2020/01/31 01:49:19.0	96.490	0.320	-0.570	1.950
2020/01/31 01:49:19.1	96.500	0.360	-0.660	1.910
2020/01/31 01:49:19.2	96.510	0.400	-0.740	1.870
2020/01/31 01:49:19.3	96.530	0.430	-0.810	1.820
2020/01/31 01:49:19.4	96.540	0.460	-0.870	1.770
2020/01/31 01:49:19.5	96.560	0.480	-0.930	1.730
2020/01/31 01:49:19.6	96.570	0.500	-0.970	1.680
2020/01/31 01:49:19.7	96.590	0.510	-1.010	1.630
2020/01/31 01:49:19.8	96.610	0.520	-1.040	1.590
2020/01/31 01:49:19.9	96.620	0.520	-1.060	1.540
2020/01/31 01:49:20.0	96.640	0.520	-1.070	1.490
2020/01/31 01:49:20.1	96.660	0.510	-1.070	1.450
2020/01/31 01:49:20.2	96.680	0.500	-1.070	1.410
2020/01/31 01:49:20.3	96.690	0.480	-1.050	1.360
2020/01/31 01:49:20.4	96.710	0.460	-1.020	1.320
2020/01/31 01:49:20.5	96.730	0.430	-0.990	1.280
2020/01/31 01:49:20.6	96.740	0.400	-0.940	1.240
2020/01/31 01:49:20.7	96.760	0.360	-0.890	1.210
2020/01/31 01:49:20.8	96.770	0.320	-0.840	1.170
2020/01/31 01:49:20.9	96.780	0.280	-0.770	1.140
2020/01/31 01:49:21.0	96.790	0.240	-0.700	1.100
2020/01/31 01:49:21.1	96.810	0.190	-0.630	1.070
2020/01/31 01:49:21.2	96.820	0.140	-0.550	1.040
2020/01/31 01:49:21.3	96.830	0.090	-0.460	1.010
2020/01/31 01:49:21.4	96.840	0.030	-0.380	0.980
2020/01/31 01:49:21.5	96.850	-0.020	-0.290	0.950
2020/01/31 01:49:21.6	96.860	-0.070	-0.200	0.920
2020/01/31 01:49:21.7	96.880	-0.130	-0.110	0.890
2020/01/31 01:49:21.8	96.880	-0.180	-0.020	0.870
2020/01/31 01:49:21.9	96.890	-0.230	0.070	0.840
2020/01/31 01:49:22.0	96.900	-0.290	0.160	0.820
2020/01/31 01:49:22.1	96.910	-0.330	0.240	0.790
2020/01/31 01:49:22.2	96.920	-0.380	0.320	0.770
2020/01/31 01:49:22.3	96.920	-0.420	0.390	0.740
2020/01/31 01:49:22.4	96.930	-0.460	0.460	0.720
2020/01/31 01:49:22.5	96.930	-0.500	0.530	0.700
2020/01/31 01:49:22.6	96.930	-0.530	0.580	0.680
2020/01/31 01:49:22.7	96.940	-0.560	0.630	0.660
2020/01/31 01:49:22.8	96.940	-0.580	0.670	0.640
2020/01/31 01:49:22.9	96.940	-0.600	0.700	0.620
2020/01/31 01:49:23.0	96.950	-0.610	0.720	0.610
2020/01/31 01:49:23.1	96.950	-0.610	0.730	0.590
2020/01/31 01:49:23.2	96.950	-0.610	0.740	0.570
2020/01/31 01:49:23.3	96.950	-0.610	0.730	0.560
2020/01/31 01:49:23.4	96.940	-0.600	0.710	0.540
2020/01/31 01:49:23.5	96.940	-0.580	0.690	0.520
2020/01/31 01:49:23.6	96.940	-0.560	0.660	0.510
2020/01/31 01:49:23.7	96.940	-0.530	0.610	0.490
2020/01/31 01:49:23.8	96.940	-0.500	0.560	0.480
2020/01/31 01:49:23.9	96.930	-0.460	0.510	0.460
2020/01/31 01:49:24.0	96.940	-0.420	0.440	0.450
2020/01/31 01:49:24.1	96.930	-0.370	0.370	0.430
2020/01/31 01:49:24.2	96.930	-0.320	0.300	0.420
2020/01/31 01:49:24.3	96.930	-0.270	0.220	0.410
2020/01/31 01:49:24.4	96.920	-0.210	0.140	0.400
2020/01/31 01:49:24.5	96.920	-0.150	0.050	0.390
2020/01/31 01:49:24.6	96.910	-0.100	-0.040	0.380
2020/01/31 01:49:24.7	96.900	-0.030	-0.120	0.370
2020/01/31 01:49:24.8	96.900	0.030	-0.210	0.370
2020/01/31 01:49:24.9	96.890	0.090	-0.300	0.360
2020/01/31 01:49:25.0	96.870	0.150	-0.390	0.360
2020/01/31 01:49:25.1	96.860	0.210	-0.470	0.350
2020/01/31 01:49:25.2	96.860	0.270	-0.550	0.350
2020/01/31 01:49:25.3	96.850	0.330	-0.620	0.340
2020/01/31 01:49:25.4	96.840	0.380	-0.690	0.340
2020/01/31 01:49:25.5	96.840	0.430	-0.760	0.330
2020/01/31 01:49:25.6	96.830	0.480	-0.820	0.330
2020/01/31 01:49:25.7	96.820	0.530	-0.870	0.330
2020/01/31 01:49:25.8	96.810	0.570	-0.910	0.330
2020/01/31 01:49:25.9	96.800	0.610	-0.950	0.330
2020/01/31 01:49:26.0	96.790	0.640	-0.980	0.320
2020/01/31 01:49:26.1	96.780	0.670	-1.000	0.320
2020/01/31 01:49:26.2	96.780	0.690	-1.010	0.330
2020/01/31 01:49:26.3	96.770	0.710	-1.010	0.330
2020/01/31 01:49:26.4	96.760	0.730	-1.010	0.340
2020/01/31 01:49:26.5	96.740	0.740	-1.000	0.340
2020/01/31 01:49:26.6	96.730	0.740	-0.980	0.350
2020/01/31 01:49:26.7	96.720	0.740	-0.960	0.360
2020/01/31 01:49:26.8	96.710	0.740	-0.930	0.380
2020/01/31 01:49:26.9	96.700	0.730	-0.890	0.390
2020/01/31 01:49:27.0	96.680	0.710	-0.850	0.410
2020/01/31 01:49:27.1	96.670	0.690	-0.800	0.430
2020/01/31 01:49:27.2	96.660	0.670	-0.750	0.450
2020/01/31 01:49:27.3	96.650	0.640	-0.690	0.470
2020/01/31 01:49:27.4	96.650	0.610	-0.630	0.490
2020/01/31 01:49:27.5	96.640	0.580	-0.570	0.510
2020/01/31 01:49:27.6	96.630	0.540	-0.500	0.530
2020/01/31 01:49:27.7	96.630	0.500	-0.440	0.550
2020/01/31 01:49:27.8	96.620	0.450	-0.370	0.570
2020/01/31 01:49:27.9	96.620	0.400	-0.300	0.600
2020/01/31 01:49:28.0	96.620	0.350	-0.230	0.620
2020/01/31 01:49:28.1	96.620	0.300	-0.160	0.640
2020/01/31 01:49:28.2	96.620	0.250	-0.100	0.670
2020/01/31 01:49:28.3	96.630	0.200	-0.030	0.690
2020/01/31 01:49:28.4	96.630	0.140	0.030	0.710
2020/01/31 01:49:28.5	96.640	0.090	0.090	0.730
2020/01/31 01:49:28.6	96.640	0.040	0.150	0.760
2020/01/31 01:49:28.7	96.650	-0.020	0.210	0.780
2020/01/31 01:49:28.8	96.660	-0.070	0.260	0.800
2020/01/31 01:49:28.9	96.670	-0.120	0.300	0.820
2020/01/31 01:49:29.0	96.680	-0.170	0.350	0.840
2020/01/31 01:49:29.1	96.700	-0.220	0.390	0.870
2020/01/31 01:49:29.2	96.710	-0.270	0.420	0.890
2020/01/31 01:49:29.3	96.730	-0.310	0.450	0.910
2020/01/31 01:49:29.4	96.740	-0.360	0.470	0.930
2020/01/31 01:49:29.5	96.760	-0.400	0.490	0.950
2020/01/31 01:49:29.6	96.780	-0.430	0.500	0.970
2020/01/31 01:49:29.7	96.800	-0.460	0.510	0.990
2020/01/31 01:49:29.8	96.820	-0.490	0.520	1.010
2020/01/31 01:49:29.9	96.840	-0.520	0.510	1.030
2020/01/31 01:49:30.0	96.870	-0.540	0.510	1.050
2020/01/31 01:49:30.1	96.890	-0.560	0.500	1.070
2020/01/31 01:49:30.2	96.910	-0.570	0.480	1.090
2020/01/31 01:49:30.3	96.930	-0.580	0.460	1.110
2020/01/31 01:49:30.4	96.950	-0.590	0.440	1.130
2020/01/31 01:49:30.5	96.980	-0.590	0.410	1.150
2020/01/31 01:49:30.6	97.000	-0.590	0.380	1.170
2020/01/31 01:49:30.7	97.020	-0.580	0.350	1.190
2020/01/31 01:49:30.8	97.040	-0.570	0.320	1.200
2020/01/31 01:49:30.9	97.060	-0.560	0.280	1.220
2020/01/31 01:49:31.0	97.080	-0.550	0.240	1.240
2020/01/31 01:49:31.1	97.100	-0.530	0.200	1.260
2020/01/31 01:49:31.2	97.120	-0.510	0.160	1.270
2020/01/31 01:49:31.3	97.140	-0.490	0.110	1.290
2020/01/31 01:49:31.4	97.150	-0.460	0.070	1.310
2020/01/31 01:49:31.5	97.170	-0.430	0.030	1.330
2020/01/31 01:49:31.6	97.190	-0.400	-0.010	1.350
2020/01/31 01:49:31.7	97.200	-0.370	-0.050	1.360
2020/01/31 01:49:31.8	97.220	-0.340	-0.090	1.380
2020/01/31 01:49:31.9	97.230	-0.310	-0.130	1.400
2020/01/31 01:49:32.0	97.230	-0.270	-0.170	1.430
2020/01/31 01:49:32.1	97.240	-0.240	-0.200	1.450
2020/01/31 01:49:32.2	97.240	-0.210	-0.240	1.470
2020/01/31 01:49:32.3	97.250	-0.170	-0.270	1.490
2020/01/31 01:49:32.4	97.260	-0.140	-0.300	1.510
2020/01/31 01:49:32.5	97.260	-0.110	-0.320	1.540
2020/01/31 01:49:32.6	97.260	-0.070	-0.350	1.560
2020/01/31 01:49:32.7	97.260	-0.040	-0.370	1.590
2020/01/31 01:49:32.8	97.260	-0.010	-0.380	1.610
2020/01/31 01:49:32.9	97.250	0.010	-0.400	1.630
2020/01/31 01:49:33.0	97.240	0.040	-0.410	1.650
2020/01/31 01:49:33.1	97.230	0.060	-0.420	1.670
2020/01/31 01:49:33.2	97.220	0.090	-0.430	1.700
2020/01/31 01:49:33.3	97.210	0.110	-0.430	1.720
2020/01/31 01:49:33.4	97.200	0.130	-0.430	1.730
2020/01/31 01:49:33.5	97.190	0.140	-0.430	1.750
2020/01/31 01:49:33.6	97.180	0.160	-0.430	1.760
2020/01/31 01:49:33.7	97.160	0.170	-0.420	1.780
2020/01/31 01:49:33.8	97.150	0.180	-0.410	1.790
2020/01/31 01:49:33.9	97.130	0.190	-0.400	1.800
2020/01/31 01:49:34.0	97.140	0.190	-0.390	1.810
2020/01/31 01:49:34.1	97.120	0.200	-0.380	1.810
2020/01/31 01:49:34.2	97.100	0.200	-0.360	1.810
2020/01/31 01:49:34.3	97.090	0.200	-0.350	1.810
2020/01/31 01:49:34.4	97.070	0.200	-0.330	1.810
2020/01/31 01:49:34.5	97.060	0.200	-0.310	1.800
2020/01/31 01:49:34.6	97.040	0.190	-0.300	1.790
2020/01/31 01:49:34.7	97.030	0.190	-0.280	1.780
2020/01/31 01:49:34.8	97.010	0.180	-0.260	1.760
2020/01/31 01:49:34.9	97.000	0.180	-0.240	1.740
2020/01/31 01:49:35.0	96.990	0.170	-0.230	1.720
2020/01/31 01:49:35.1	96.970	0.160	-0.210	1.690
2020/01/31 01:49:35.2	96.960	0.150	-0.190	1.660
2020/01/31 01:49:35.3	96.950	0.140	-0.170	1.630
2020/01/31 01:49:35.4	96.930	0.130	-0.160	1.600
2020/01/31 01:49:35.5	96.920	0.120	-0.140	1.560
2020/01/31 01:49:35.6	96.900	0.110	-0.130	1.520
2020/01/31 01:49:35.7	96.890	0.100	-0.120	1.480
2020/01/31 01:49:35.8	96.880	0.090	-0.110	1.430
2020/01/31 01:49:35.9	96.870	0.080	-0.100	1.390
2020/01/31 01:49:36.0	96.860	0.070	-0.090	1.340
2020/01/31 01:49:36.1	96.850	0.060	-0.090	1.290
2020/01/31 01:49:36.2	96.840	0.060	-0.080	1.240
2020/01/31 01:49:36.3	96.840	0.050	-0.080	1.180
2020/01/31 01:49:36.4	96.830	0.040	-0.080	1.120
2020/01/31 01:49:36.5	96.820	0.040	-0.090	1.070
2020/01/31 01:49:36.6	96.820	0.030	-0.090	1.010
2020/01/31 01:49:36.7	96.820	0.030	-0.100	0.950
2020/01/31 01:49:36.8	96.810	0.030	-0.110	0.890
2020/01/31 01:49:36.9	96.810	0.030	-0.120	0.830
2020/01/31 01:49:37.0	96.810	0.030	-0.140	0.770
2020/01/31 01:49:37.1	96.820	0.030	-0.150	0.710
2020/01/31 01:49:37.2	96.820	0.030	-0.170	0.650
2020/01/31 01:49:37.3	96.820	0.040	-0.190	0.590
2020/01/31 01:49:37.4	96.830	0.040	-0.210	0.530
2020/01/31 01:49:37.5	96.840	0.050	-0.230	0.470
2020/01/31 01:49:37.6	96.850	0.050	-0.250	0.410
2020/01/31 01:49:37.7	96.860	0.060	-0.270	0.350
2020/01/31 01:49:37.8	96.870	0.070	-0.290	0.290
2020/01/31 01:49:37.9	96.880	0.080	-0.310	0.240
2020/01/31 01:49:38.0	96.890	0.090	-0.330	0.180
2020/01/31 01:49:38.1	96.910	0.090	-0.350	0.120
2020/01/31 01:49:38.2	96.920	0.100	-0.370	0.070
2020/01/31 01:49:38.3	96.940	0.110	-0.390	0.020
2020/01/31 01:49:38.4	96.950	0.120	-0.410	-0.030
2020/01/31 01:49:38.5	96.960	0.130	-0.430	-0.080
2020/01/31 01:49:38.6	96.980	0.140	-0.440	-0.130
2020/01/31 01:49:38.7	96.990	0.150	-0.450	-0.180
2020/01/31 01:49:38.8	97.010	0.150	-0.460	-0.230
2020/01/31 01:49:38.9	97.020	0.160	-0.460	-0.270
2020/01/31 01:49:39.0	97.030	0.170	-0.470	-0.310
2020/01/31 01:49:39.1	97.040	0.170	-0.470	-0.350
2020/01/31 01:49:39.2	97.060	0.180	-0.470	-0.380
2020/01/31 01:49:39.3	97.070	0.180	-0.460	-0.420
2020/01/31 01:49:39.4	97.080	0.180	-0.450	-0.450
2020/01/31 01:49:39.5	97.090	0.190	-0.440	-0.480
2020/01/31 01:49:39.6	97.100	0.190	-0.430	-0.500
2020/01/31 01:49:39.7	97.110	0.190	-0.410	-0.520
2020/01/31 01:49:39.8	97.120	0.190	-0.390	-0.540
2020/01/31 01:49:39.9	97.130	0.180	-0.360	-0.550
2020/01/31 01:49:40.0	97.140	0.180	-0.330	-0.560
2020/01/31 01:49:40.1	97.150	0.180	-0.300	-0.560
2020/01/31 01:49:40.2	97.160	0.170	-0.270	-0.560
2020/01/31 01:49:40.3	97.160	0.160	-0.240	-0.550
2020/01/31 01:49:40.4	97.170	0.160	-0.200	-0.540
2020/01/31 01:49:40.5	97.170	0.150	-0.170	-0.530
2020/01/31 01:49:40.6	97.180	0.140	-0.130	-0.510
2020/01/31 01:49:40.7	97.180	0.130	-0.100	-0.480
2020/01/31 01:49:40.8	97.190	0.120	-0.060	-0.450
2020/01/31 01:49:40.9	97.190	0.110	-0.030	-0.420
2020/01/31 01:49:41.0	97.200	0.090	0.010	-0.380
2020/01/31 01:49:41.1	97.200	0.080	0.040	-0.330
2020/01/31 01:49:41.2	97.200	0.070	0.080	-0.280
2020/01/31 01:49:41.3	97.210	0.050	0.110	-0.230
2020/01/31 01:49:41.4	97.220	0.040	0.140	-0.170
2020/01/31 01:49:41.5	97.220	0.020	0.180	-0.110
2020/01/31 01:49:41.6	97.220	0.000	0.210	-0.050
2020/01/31 01:49:41.7	97.230	-0.010	0.240	0.020
2020/01/31 01:49:41.8	97.230	-0.030	0.260	0.100
2020/01/31 01:49:41.9	97.240	-0.050	0.290	0.170
2020/01/31 01:49:42.0	97.240	-0.060	0.320	0.260
2020/01/31 01:49:42.1	97.240	-0.080	0.340	0.340
2020/01/31 01:49:42.2	97.240	-0.100	0.360	0.420
2020/01/31 01:49:42.3	97.240	-0.120	0.380	0.500
2020/01/31 01:49:42.4	97.240	-0.140	0.400	0.590
2020/01/31 01:49:42.5	97.240	-0.150	0.420	0.670
2020/01/31 01:49:42.6	97.230	-0.170	0.440	0.750
2020/01/31 01:49:42.7	97.230	-0.190	0.450	0.830
2020/01/31 01:49:42.8	97.230	-0.210	0.460	0.910
2020/01/31 01:49:42.9	97.220	-0.220	0.480	0.990
2020/01/31 01:49:43.0	97.210	-0.240	0.480	1.060
2020/01/31 01:49:43.1	97.210	-0.250	0.490	1.130
2020/01/31 01:49:43.2	97.200	-0.270	0.490	1.200
2020/01/31 01:49:43.3	97.200	-0.280	0.500	1.260
2020/01/31 01:49:43.4	97.190	-0.300	0.500	1.320
2020/01/31 01:49:43.5	97.190	-0.310	0.500	1.380
2020/01/31 01:49:43.6	97.180	-0.320	0.490	1.430
2020/01/31 01:49:43.7	97.170	-0.330	0.490	1.470
2020/01/31 01:49:43.8	97.170	-0.330	0.480	1.520
2020/01/31 01:49:43.9	97.160	-0.340	0.470	1.550
2020/01/31 01:49:44.0	97.170	-0.340	0.450	1.590
2020/01/31 01:49:44.1	97.170	-0.340	0.430	1.620
2020/01/31 01:49:44.2	97.160	-0.340	0.410	1.650
2020/01/31 01:49:44.3	97.150	-0.340	0.380	1.670
2020/01/31 01:49:44.4	97.140	-0.340	0.360	1.700
2020/01/31 01:49:44.5	97.130	-0.330	0.320	1.710
2020/01/31 01:49:44.6	97.120	-0.320	0.290	1.730
2020/01/31 01:49:44.7	97.110	-0.310	0.240	1.740
2020/01/31 01:49:44.8	97.100	-0.290	0.200	1.750
2020/01/31 01:49:44.9	97.090	-0.270	0.150	1.760
2020/01/31 01:49:45.0	97.070	-0.250	0.100	1.770
2020/01/31 01:49:45.1	97.060	-0.230	0.040	1.780
2020/01/31 01:49:45.2	97.040	-0.210	-0.020	1.780
2020/01/31 01:49:45.3	97.030	-0.180	-0.090	1.790
2020/01/31 01:49:45.4	97.020	-0.150	-0.160	1.790
2020/01/31 01:49:45.5	97.000	-0.120	-0.230	1.790
2020/01/31 01:49:45.6	96.990	-0.090	-0.300	1.790
2020/01/31 01:49:45.7	96.980	-0.050	-0.380	1.780
2020/01/31 01:49:45.8	96.970	-0.020	-0.460	1.780
2020/01/31 01:49:45.9	96.960	0.020	-0.540	1.770
2020/01/31 01:49:46.0	96.940	0.060	-0.620	1.770
2020/01/31 01:49:46.1	96.940	0.100	-0.700	1.760
2020/01/31 01:49:46.2	96.930	0.130	-0.780	1.750
2020/01/31 01:49:46.3	96.920	0.170	-0.860	1.740
2020/01/31 01:49:46.4	96.920	0.210	-0.940	1.720
2020/01/31 01:49:46.5	96.920	0.250	-1.010	1.710
2020/01/31 01:49:46.6	96.910	0.290	-1.080	1.690
2020/01/31 01:49:46.7	96.910	0.330	-1.150	1.680
2020/01/31 01:49:46.8	96.910	0.360	-1.220	1.660
2020/01/31 01:49:46.9	96.910	0.390	-1.280	1.640
2020/01/31 01:49:47.0	96.910	0.430	-1.330	1.620
2020/01/31 01:49:47.1	96.910	0.450	-1.380	1.600
2020/01/31 01:49:47.2	96.910	0.480	-1.410	1.580
2020/01/31 01:49:47.3	96.910	0.500	-1.440	1.560
2020/01/31 01:49:47.4	96.920	0.520	-1.470	1.540
2020/01/31 01:49:47.5	96.920	0.540	-1.480	1.520
2020/01/31 01:49:47.6	96.920	0.550	-1.480	1.500
2020/01/31 01:49:47.7	96.920	0.560	-1.480	1.480
2020/01/31 01:49:47.8	96.920	0.570	-1.460	1.460
2020/01/31 01:49:47.9	96.920	0.570	-1.440	1.440
2020/01/31 01:49:48.0	96.920	0.570	-1.400	1.430
2020/01/31 01:49:48.1	96.910	0.560	-1.350	1.410
2020/01/31 01:49:48.2	96.910	0.550	-1.300	1.390
2020/01/31 01:49:48.3	96.900	0.540	-1.240	1.380
2020/01/31 01:49:48.4	96.900	0.520	-1.160	1.360
2020/01/31 01:49:48.5	96.890	0.500	-1.080	1.350
2020/01/31 01:49:48.6	96.880	0.470	-0.990	1.330
2020/01/31 01:49:48.7	96.870	0.440	-0.900	1.310
2020/01/31 01:49:48.8	96.860	0.410	-0.790	1.300
2020/01/31 01:49:48.9	96.850	0.370	-0.690	1.280
2020/01/31 01:49:49.0	96.850	0.330	-0.570	1.260
2020/01/31 01:49:49.1	96.830	0.290	-0.450	1.240
2020/01/31 01:49:49.2	96.820	0.250	-0.330	1.230
2020/01/31 01:49:49.3	96.810	0.200	-0.210	1.210
2020/01/31 01:49:49.4	96.800	0.150	-0.080	1.190
2020/01/31 01:49:49.5	96.780	0.110	0.040	1.160
2020/01/31 01:49:49.6	96.770	0.060	0.160	1.140
2020/01/31 01:49:49.7	96.760	0.010	0.280	1.120
2020/01/31 01:49:49.8	96.750	-0.040	0.400	1.090
2020/01/31 01:49:49.9	96.730	-0.090	0.520	1.070
2020/01/31 01:49:50.0	96.730	-0.140	0.630	1.050
2020/01/31 01:49:50.1	96.720	-0.190	0.730	1.020
2020/01/31 01:49:50.2	96.710	-0.240	0.830	0.990
2020/01/31 01:49:50.3	96.690	-0.280	0.920	0.960
2020/01/31 01:49:50.4	96.680	-0.320	1.000	0.930
2020/01/31 01:49:50.5	96.670	-0.360	1.070	0.890
2020/01/31 01:49:50.6	96.660	-0.400	1.140	0.860
2020/01/31 01:49:50.7	96.660	-0.440	1.190	0.820
2020/01/31 01:49:50.8	96.650	-0.470	1.240	0.790
2020/01/31 01:49:50.9	96.640	-0.500	1.270	0.750
2020/01/31 01:49:51.0	96.650	-0.520	1.300	0.720
2020/01/31 01:49:51.1	96.650	-0.540	1.320	0.680
2020/01/31 01:49:51.2	96.650	-0.560	1.320	0.640
2020/01/31 01:49:51.3	96.650	-0.570	1.320	0.600
2020/01/31 01:49:51.4	96.650	-0.580	1.300	0.560
2020/01/31 01:49:51.5	96.650	-0.590	1.270	0.520
2020/01/31 01:49:51.6	96.660	-0.590	1.240	0.470
2020/01/31 01:49:51.7	96.660	-0.580	1.190	0.430
2020/01/31 01:49:51.8	96.670	-0.580	1.140	0.380
2020/01/31 01:49:51.9	96.680	-0.570	1.070	0.340
2020/01/31 01:49:52.0	96.700	-0.550	1.000	0.300
2020/01/31 01:49:52.1	96.710	-0.540	0.920	0.250
2020/01/31 01:49:52.2	96.730	-0.520	0.830	0.210
2020/01/31 01:49:52.3	96.740	-0.490	0.740	0.160
2020/01/31 01:49:52.4	96.760	-0.470	0.640	0.110
2020/01/31 01:49:52.5	96.780	-0.440	0.540	0.070
2020/01/31 01:49:52.6	96.800	-0.400	0.430	0.030
2020/01/31 01:49:52.7	96.820	-0.370	0.320	-0.020
2020/01/31 01:49:52.8	96.840	-0.330	0.210	-0.060
2020/01/31 01:49:52.9	96.860	-0.290	0.100	-0.100
2020/01/31 01:49:53.0	96.880	-0.250	-0.020	-0.140
2020/01/31 01:49:53.1	96.900	-0.210	-0.130	-0.170
2020/01/31 01:49:53.2	96.920	-0.170	-0.240	-0.200
2020/01/31 01:49:53.3	96.930	-0.130	-0.350	-0.230
2020/01/31 01:49:53.4	96.950	-0.090	-0.450	-0.260
2020/01/31 01:49:53.5	96.970	-0.050	-0.550	-0.280
2020/01/31 01:49:53.6	96.980	-0.000	-0.650	-0.290
2020/01/31 01:49:53.7	97.000	0.040	-0.740	-0.300
2020/01/31 01:49:53.8	97.010	0.080	-0.820	-0.310
2020/01/31 01:49:53.9	97.010	0.120	-0.900	-0.310
2020/01/31 01:49:54.0	97.020	0.150	-0.960	-0.300
2020/01/31 01:49:54.1	97.020	0.190	-1.020	-0.290
2020/01/31 01:49:54.2	97.020	0.220	-1.080	-0.280
2020/01/31 01:49:54.3	97.020	0.250	-1.120	-0.260
2020/01/31 01:49:54.4	97.010	0.280	-1.160	-0.240
2020/01/31 01:49:54.5	97.000	0.310	-1.190	-0.210
2020/01/31 01:49:54.6	96.990	0.330	-1.210	-0.180
2020/01/31 01:49:54.7	96.970	0.350	-1.220	-0.140
2020/01/31 01:49:54.8	96.960	0.370	-1.220	-0.100
2020/01/31 01:49:54.9	96.940	0.390	-1.220	-0.060
2020/01/31 01:49:55.0	96.910	0.400	-1.200	-0.010
2020/01/31 01:49:55.1	96.890	0.410	-1.180	0.040
2020/01/31 01:49:55.2	96.870	0.410	-1.150	0.090
2020/01/31 01:49:55.3	96.840	0.410	-1.110	0.140
2020/01/31 01:49:55.4	96.810	0.410	-1.070	0.200
2020/01/31 01:49:55.5	96.790	0.410	-1.020	0.250
2020/01/31 01:49:55.6	96.760	0.400	-0.970	0.310
2020/01/31 01:49:55.7	96.730	0.390	-0.910	0.370
2020/01/31 01:49:55.8	96.700	0.380	-0.850	0.430
2020/01/31 01:49:55.9	96.670	0.370	-0.780	0.480
2020/01/31 01:49:56.0	96.640	0.350	-0.710	0.540
2020/01/31 01:49:56.1	96.610	0.330	-0.640	0.600
2020/01/31 01:49:56.2	96.590	0.310	-0.570	0.660
2020/01/31 01:49:56.3	96.560	0.290	-0.490	0.710
2020/01/31 01:49:56.4	96.540	0.270	-0.420	0.770
2020/01/31 01:49:56.5	96.520	0.240	-0.350	0.820
2020/01/31 01:49:56.6	96.490	0.220	-0.280	0.870
2020/01/31 01:49:56.7	96.480	0.200	-0.210	0.920
2020/01/31 01:49:56.8	96.460	0.170	-0.140	0.970
2020/01/31 01:49:56.9	96.440	0.150	-0.080	1.020
2020/01/31 01:49:57.0	96.440	0.120	-0.020	1.070
2020/01/31 01:49:57.1	96.430	0.100	0.030	1.120
2020/01/31 01:49:57.2	96.420	0.070	0.090	1.160
2020/01/31 01:49:57.3	96.410	0.050	0.130	1.210
2020/01/31 01:49:57.4	96.400	0.030	0.180	1.250
2020/01/31 01:49:57.5	96.400	0.010	0.210	1.290
2020/01/31 01:49:57.6	96.390	-0.010	0.250	1.330
2020/01/31 01:49:57.7	96.390	-0.030	0.280	1.360
2020/01/31 01:49:57.8	96.390	-0.050	0.300	1.400
2020/01/31 01:49:57.9	96.390	-0.070	0.330	1.430
2020/01/31 01:49:58.0	96.390	-0.080	0.340	1.470
2020/01/31 01:49:58.1	96.390	-0.090	0.360	1.500
2020/01/31 01:49:58.2	96.390	-0.110	0.370	1.530
2020/01/31 01:49:58.3	96.390	-0.120	0.380	1.550
2020/01/31 01:49:58.4	96.390	-0.130	0.380	1.580
2020/01/31 01:49:58.5	96.400	-0.140	0.380	1.600
2020/01/31 01:49:58.6	96.400	-0.150	0.380	1.620
2020/01/31 01:49:58.7	96.400	-0.150	0.380	1.640
2020/01/31 01:49:58.8	96.400	-0.160	0.380	1.660
2020/01/31 01:49:58.9	96.410	-0.160	0.370	1.670
2020/01/31 01:49:59.0	96.420	-0.170	0.360	1.680
2020/01/31 01:49:59.1	96.420	-0.170	0.350	1.690
2020/01/31 01:49:59.2	96.430	-0.170	0.340	1.690
2020/01/31 01:49:59.3	96.430	-0.170	0.330	1.700
2020/01/31 01:49:59.4	96.430	-0.170	0.310	1.700
2020/01/31 01:49:59.5	96.430	-0.160	0.300	1.690
2020/01/31 01:49:59.6	96.440	-0.160	0.280	1.690
2020/01/31 01:49:59.7	96.440	-0.160	0.260	1.680
2020/01/31 01:49:59.8	96.440	-0.150	0.240	1.670
2020/01/31 01:49:59.9	96.440	-0.150	0.220	1.660
2020/01/31 01:50:00.0	96.440	-0.140	0.190	1.650
2020/01/31 01:50:00.1	96.440	-0.130	0.170	1.630
2020/01/31 01:50:00.2	96.440	-0.120	0.140	1.620
2020/01/31 01:50:00.3	96.450	-0.110	0.110	1.590
2020/01/31 01:50:00.4	96.450	-0.100	0.090	1.570
2020/01/31 01:50:00.5	96.460	-0.090	0.060	1.540
2020/01/31 01:50:00.6	96.470	-0.080	0.020	1.510
2020/01/31 01:50:00.7	96.480	-0.070	-0.010	1.480
2020/01/31 01:50:00.8	96.480	-0.050	-0.040	1.450
2020/01/31 01:50:00.9	96.500	-0.040	-0.080	1.420
2020/01/31 01:50:01.0	96.490	-0.030	-0.110	1.380
2020/01/31 01:50:01.1	96.500	-0.010	-0.150	1.340
2020/01/31 01:50:01.2	96.510	0.000	-0.190	1.310
2020/01/31 01:50:01.3	96.530	0.020	-0.230	1.270
2020/01/31 01:50:01.4	96.540	0.030	-0.270	1.240
2020/01/31 01:50:01.5	96.550	0.050	-0.310	1.200
2020/01/31 01:50:01.6	96.570	0.060	-0.340	1.170
2020/01/31 01:50:01.7	96.580	0.080	-0.380	1.140
2020/01/31 01:50:01.8	96.590	0.090	-0.420	1.110
2020/01/31 01:50:01.9	96.600	0.110	-0.460	1.080
2020/01/31 01:50:02.0	96.600	0.120	-0.490	1.060
2020/01/31 01:50:02.1	96.610	0.140	-0.520	1.040
2020/01/31 01:50:02.2	96.620	0.150	-0.550	1.020
2020/01/31 01:50:02.3	96.620	0.170	-0.580	1.010
2020/01/31 01:50:02.4	96.620	0.180	-0.610	1.000
2020/01/31 01:50:02.5	96.620	0.190	-0.630	0.990
2020/01/31 01:50:02.6	96.620	0.200	-0.650	0.980
2020/01/31 01:50:02.7	96.610	0.210	-0.660	0.970
2020/01/31 01:50:02.8	96.600	0.220	-0.670	0.970
2020/01/31 01:50:02.9	96.600	0.220	-0.680	0.960
2020/01/31 01:50:03.0	96.590	0.230	-0.680	0.960
2020/01/31 01:50:03.1	96.580	0.230	-0.680	0.950
2020/01/31 01:50:03.2	96.570	0.230	-0.670	0.950
2020/01/31 01:50:03.3	96.550	0.230	-0.660	0.950
2020/01/31 01:50:03.4	96.540	0.230	-0.640	0.940
2020/01/31 01:50:03.5	96.530	0.230	-0.620	0.930
2020/01/31 01:50:03.6	96.510	0.230	-0.600	0.930
2020/01/31 01:50:03.7	96.500	0.220	-0.570	0.920
2020/01/31 01:50:03.8	96.490	0.210	-0.540	0.910
2020/01/31 01:50:03.9	96.480	0.200	-0.510	0.900
2020/01/31 01:50:04.0	96.460	0.190	-0.470	0.890
2020/01/31 01:50:04.1	96.450	0.180	-0.430	0.880
2020/01/31 01:50:04.2	96.440	0.160	-0.380	0.870
2020/01/31 01:50:04.3	96.430	0.140	-0.340	0.850
2020/01/31 01:50:04.4	96.420	0.130	-0.290	0.840
2020/01/31 01:50:04.5	96.410	0.110	-0.240	0.820
2020/01/31 01:50:04.6	96.400	0.090	-0.190	0.810
2020/01/31 01:50:04.7	96.390	0.070	-0.150	0.790
2020/01/31 01:50:04.8	96.380	0.050	-0.100	0.780
2020/01/31 01:50:04.9	96.370	0.030	-0.050	0.760
2020/01/31 01:50:05.0	96.370	0.000	-0.000	0.750
2020/01/31 01:50:05.1	96.360	-0.020	0.040	0.740
2020/01/31 01:50:05.2	96.360	-0.040	0.080	0.720
2020/01/31 01:50:05.3	96.350	-0.060	0.120	0.710
2020/01/31 01:50:05.4	96.340	-0.080	0.160	0.700
2020/01/31 01:50:05.5	96.340	-0.110	0.190	0.690
2020/01/31 01:50:05.6	96.330	-0.130	0.220	0.690
2020/01/31 01:50:05.7	96.330	-0.150	0.240	0.680
2020/01/31 01:50:05.8	96.320	-0.160	0.270	0.680
2020/01/31 01:50:05.9	96.310	-0.180	0.280	0.670
2020/01/31 01:50:06.0	96.320	-0.200	0.300	0.680
2020/01/31 01:50:06.1	96.310	-0.210	0.310	0.680
2020/01/31 01:50:06.2	96.300	-0.230	0.320	0.680
2020/01/31 01:50:06.3	96.290	-0.240	0.330	0.680
2020/01/31 01:50:06.4	96.280	-0.250	0.330	0.690
2020/01/31 01:50:06.5	96.270	-0.270	0.330	0.690
2020/01/31 01:50:06.6	96.260	-0.270	0.320	0.700
2020/01/31 01:50:06.7	96.240	-0.280	0.320	0.710
2020/01/31 01:50:06.8	96.230	-0.290	0.310	0.710
2020/01/31 01:50:06.9	96.220	-0.290	0.290	0.720
2020/01/31 01:50:07.0	96.230	-0.300	0.280	0.730
2020/01/31 01:50:07.1	96.220	-0.300	0.270	0.740
2020/01/31 01:50:07.2	96.210	-0.300	0.250	0.750
2020/01/31 01:50:07.3	96.200	-0.300	0.230	0.750
2020/01/31 01:50:07.4	96.180	-0.300	0.210	0.760
2020/01/31 01:50:07.5	96.170	-0.300	0.190	0.770
2020/01/31 01:50:07.6	96.160	-0.300	0.160	0.780
2020/01/31 01:50:07.7	96.150	-0.290	0.140	0.780
2020/01/31 01:50:07.8	96.140	-0.290	0.110	0.780
2020/01/31 01:50:07.9	96.130	-0.280	0.080	0.790
2020/01/31 01:50:08.0	96.120	-0.270	0.050	0.790
2020/01/31 01:50:08.1	96.120	-0.260	0.020	0.790
2020/01/31 01:50:08.2	96.110	-0.250	-0.010	0.790
2020/01/31 01:50:08.3	96.110	-0.240	-0.040	0.790
2020/01/31 01:50:08.4	96.110	-0.230	-0.070	0.790
2020/01/31 01:50:08.5	96.110	-0.210	-0.100	0.780
2020/01/31 01:50:08.6	96.110	-0.200	-0.130	0.770
2020/01/31 01:50:08.7	96.120	-0.180	-0.170	0.760
2020/01/31 01:50:08.8	96.120	-0.160	-0.200	0.750
2020/01/31 01:50:08.9	96.130	-0.140	-0.240	0.740
2020/01/31 01:50:09.0	96.130	-0.120	-0.270	0.730
2020/01/31 01:50:09.1	96.140	-0.100	-0.310	0.720
2020/01/31 01:50:09.2	96.150	-0.080	-0.340	0.700
2020/01/31 01:50:09.3	96.160	-0.060	-0.380	0.690
2020/01/31 01:50:09.4	96.170	-0.030	-0.410	0.680
2020/01/31 01:50:09.5	96.180	-0.010	-0.440	0.660
2020/01/31 01:50:09.6	96.190	0.020	-0.480	0.650
2020/01/31 01:50:09.7	96.200	0.040	-0.510	0.640
2020/01/31 01:50:09.8	96.220	0.070	-0.540	0.630
2020/01/31 01:50:09.9	96.230	0.100	-0.570	0.620
2020/01/31 01:50:10.0	96.240	0.130	-0.600	0.620
2020/01/31 01:50:10.1	96.250	0.150	-0.630	0.610
2020/01/31 01:50:10.2	96.260	0.180	-0.660	0.610
2020/01/31 01:50:10.3	96.270	0.210	-0.680	0.610
2020/01/31 01:50:10.4	96.270	0.240	-0.710	0.610
2020/01/31 01:50:10.5	96.270	0.260	-0.730	0.610
2020/01/31 01:50:10.6	96.280	0.290	-0.740	0.610
2020/01/31 01:50:10.7	96.280	0.320	-0.760	0.610
2020/01/31 01:50:10.8	96.280	0.340	-0.770	0.620
2020/01/31 01:50:10.9	96.280	0.360	-0.780	0.630
2020/01/31 01:50:11.0	96.270	0.390	-0.780	0.640
2020/01/31 01:50:11.1	96.270	0.410	-0.780	0.650
2020/01/31 01:50:11.2	96.260	0.420	-0.780	0.660
2020/01/31 01:50:11.3	96.250	0.440	-0.770	0.670
2020/01/31 01:50:11.4	96.250	0.450	-0.750	0.680
2020/01/31 01:50:11.5	96.240	0.460	-0.730	0.690
2020/01/31 01:50:11.6	96.230	0.470	-0.710	0.710
2020/01/31 01:50:11.7	96.220	0.480	-0.680	0.720
2020/01/31 01:50:11.8	96.210	0.480	-0.650	0.730
2020/01/31 01:50:11.9	96.210	0.480	-0.610	0.750
2020/01/31 01:50:12.0	96.200	0.480	-0.570	0.760
2020/01/31 01:50:12.1	96.190	0.470	-0.520	0.770
2020/01/31 01:50:12.2	96.180	0.470	-0.470	0.790
2020/01/31 01:50:12.3	96.170	0.450	-0.420	0.800
2020/01/31 01:50:12.4	96.170	0.440	-0.370	0.820
2020/01/31 01:50:12.5	96.160	0.420	-0.310	0.830
2020/01/31 01:50:12.6	96.150	0.400	-0.250	0.850
2020/01/31 01:50:12.7	96.150	0.380	-0.190	0.870
2020/01/31 01:50:12.8	96.140	0.360	-0.130	0.890
2020/01/31 01:50:12.9	96.140	0.330	-0.070	0.910
2020/01/31 01:50:13.0	96.140	0.300	-0.000	0.920
2020/01/31 01:50:13.1	96.140	0.270	0.060	0.950
2020/01/31 01:50:13.2	96.130	0.240	0.120	0.970
2020/01/31 01:50:13.3	96.130	0.210	0.180	0.990
2020/01/31 01:50:13.4	96.130	0.170	0.240	1.020
2020/01/31 01:50:13.5	96.120	0.140	0.300	1.050
2020/01/31 01:50:13.6	96.120	0.100	0.350	1.070
2020/01/31 01:50:13.7	96.120	0.060	0.400	1.100
2020/01/31 01:50:13.8	96.120	0.030	0.450	1.130
2020/01/31 01:50:13.9	96.110	-0.010	0.490	1.160
2020/01/31 01:50:14.0	96.110	-0.040	0.540	1.200
2020/01/31 01:50:14.1	96.110	-0.080	0.580	1.230
2020/01/31 01:50:14.2	96.110	-0.120	0.610	1.260
2020/01/31 01:50:14.3	96.100	-0.150	0.640	1.280
2020/01/31 01:50:14.4	96.100	-0.180	0.660	1.310
2020/01/31 01:50:14.5	96.100	-0.210	0.680	1.340
2020/01/31 01:50:14.6	96.100	-0.240	0.690	1.360
2020/01/31 01:50:14.7	96.100	-0.270	0.700	1.380
2020/01/31 01:50:14.8	96.100	-0.300	0.700	1.400
2020/01/31 01:50:14.9	96.100	-0.320	0.700	1.420
2020/01/31 01:50:15.0	96.100	-0.340	0.690	1.430
2020/01/31 01:50:15.1	96.100	-0.360	0.680	1.440
2020/01/31 01:50:15.2	96.100	-0.380	0.660	1.450
2020/01/31 01:50:15.3	96.100	-0.400	0.640	1.460
2020/01/31 01:50:15.4	96.100	-0.410	0.620	1.470
2020/01/31 01:50:15.5	96.110	-0.420	0.590	1.480
2020/01/31 01:50:15.6	96.110	-0.430	0.560	1.480
2020/01/31 01:50:15.7	96.110	-0.430	0.520	1.480
2020/01/31 01:50:15.8	96.110	-0.440	0.480	1.480
2020/01/31 01:50:15.9	96.110	-0.440	0.440	1.480
2020/01/31 01:50:16.0	96.120	-0.440	0.400	1.480
2020/01/31 01:50:16.1	96.120	-0.430	0.350	1.480
2020/01/31 01:50:16.2	96.120	-0.430	0.300	1.470
2020/01/31 01:50:16.3	96.120	-0.420	0.250	1.470
2020/01/31 01:50:16.4	96.130	-0.410	0.190	1.460
2020/01/31 01:50:16.5	96.130	-0.390	0.130	1.450
2020/01/31 01:50:16.6	96.130	-0.380	0.070	1.440
2020/01/31 01:50:16.7	96.130	-0.360	0.010	1.430
2020/01/31 01:50:16.8	96.130	-0.340	-0.060	1.430
2020/01/31 01:50:16.9	96.130	-0.320	-0.130	1.420
2020/01/31 01:50:17.0	96.130	-0.300	-0.200	1.410
2020/01/31 01:50:17.1	96.130	-0.280	-0.270	1.400
2020/01/31 01:50:17.2	96.130	-0.250	-0.340	1.380
2020/01/31 01:50:17.3	96.130	-0.230	-0.410	1.370
2020/01/31 01:50:17.4	96.130	-0.200	-0.480	1.360
2020/01/31 01:50:17.5	96.120	-0.170	-0.540	1.350
2020/01/31 01:50:17.6	96.120	-0.140	-0.610	1.340
2020/01/31 01:50:17.7	96.110	-0.110	-0.670	1.330
2020/01/31 01:50:17.8	96.110	-0.080	-0.740	1.310
2020/01/31 01:50:17.9	96.100	-0.050	-0.790	1.300
2020/01/31 01:50:18.0	96.090	-0.020	-0.850	1.290
2020/01/31 01:50:18.1	96.080	0.010	-0.900	1.280
2020/01/31 01:50:18.2	96.080	0.040	-0.950	1.260
2020/01/31 01:50:18.3	96.070	0.060	-0.990	1.250
2020/01/31 01:50:18.4	96.070	0.090	-1.020	1.230
2020/01/31 01:50:18.5	96.070	0.120	-1.050	1.220
2020/01/31 01:50:18.6	96.070	0.140	-1.080	1.200
2020/01/31 01:50:18.7	96.060	0.170	-1.100	1.190
2020/01/31 01:50:18.8	96.060	0.190	-1.110	1.170
2020/01/31 01:50:18.9	96.060	0.210	-1.110	1.160
2020/01/31 01:50:19.0	96.060	0.230	-1.110	1.140
2020/01/31 01:50:19.1	96.060	0.250	-1.090	1.130
2020/01/31 01:50:19.2	96.060	0.260	-1.070	1.110
2020/01/31 01:50:19.3	96.060	0.280	-1.050	1.090
2020/01/31 01:50:19.4	96.060	0.290	-1.010	1.080
2020/01/31 01:50:19.5	96.060	0.300	-0.970	1.060
2020/01/31 01:50:19.6	96.060	0.300	-0.930	1.040
2020/01/31 01:50:19.7	96.060	0.310	-0.870	1.030
2020/01/31 01:50:19.8	96.060	0.310	-0.810	1.010
2020/01/31 01:50:19.9	96.060	0.310	-0.750	0.990
2020/01/31 01:50:20.0	96.070	0.310	-0.670	0.970
2020/01/31 01:50:20.1	96.080	0.310	-0.600	0.950
2020/01/31 01:50:20.2	96.080	0.300	-0.530	0.940
2020/01/31 01:50:20.3	96.080	0.290	-0.450	0.910
2020/01/31 01:50:20.4	96.080	0.290	-0.370	0.890
2020/01/31 01:50:20.5	96.080	0.280	-0.290	0.870
2020/01/31 01:50:20.6	96.090	0.260	-0.210	0.850
2020/01/31 01:50:20.7	96.090	0.250	-0.130	0.820
2020/01/31 01:50:20.8	96.090	0.240	-0.050	0.800
2020/01/31 01:50:20.9	96.090	0.220	0.020	0.780
2020/01/31 01:50:21.0	96.090	0.210	0.090	0.750
2020/01/31 01:50:21.1	96.100	0.190	0.160	0.720
2020/01/31 01:50:21.2	96.100	0.180	0.230	0.700
2020/01/31 01:50:21.3	96.100	0.160	0.280	0.670
2020/01/31 01:50:21.4	96.100	0.140	0.340	0.640
2020/01/31 01:50:21.5	96.100	0.130	0.390	0.610
2020/01/31 01:50:21.6	96.100	0.110	0.430	0.580
2020/01/31 01:50:21.7	96.100	0.090	0.460	0.540
2020/01/31 01:50:21.8	96.100	0.080	0.490	0.510
2020/01/31 01:50:21.9	96.100	0.060	0.510	0.480
2020/01/31 01:50:22.0	96.100	0.050	0.530	0.450
2020/01/31 01:50:22.1	96.100	0.040	0.540	0.420
2020/01/31 01:50:22.2	96.100	0.030	0.550	0.390
2020/01/31 01:50:22.3	96.100	0.010	0.540	0.370
2020/01/31 01:50:22.4	96.090	0.000	0.530	0.340
2020/01/31 01:50:22.5	96.090	-0.000	0.510	0.320
2020/01/31 01:50:22.6	96.080	-0.010	0.490	0.290
2020/01/31 01:50:22.7	96.080	-0.020	0.470	0.270
2020/01/31 01:50:22.8	96.070	-0.020	0.440	0.260
2020/01/31 01:50:22.9	96.060	-0.030	0.400	0.240
2020/01/31 01:50:23.0	96.040	-0.030	0.360	0.230
2020/01/31 01:50:23.1	96.030	-0.040	0.310	0.230
2020/01/31 01:50:23.2	96.020	-0.040	0.270	0.220
2020/01/31 01:50:23.3	96.010	-0.040	0.220	0.220
2020/01/31 01:50:23.4	96.000	-0.040	0.180	0.220
2020/01/31 01:50:23.5	95.980	-0.040	0.130	0.230
2020/01/31 01:50:23.6	95.970	-0.040	0.080	0.230
2020/01/31 01:50:23.7	95.950	-0.040	0.030	0.240
2020/01/31 01:50:23.8	95.930	-0.040	-0.020	0.250
2020/01/31 01:50:23.9	95.920	-0.040	-0.060	0.270
2020/01/31 01:50:24.0	95.900	-0.040	-0.100	0.290
2020/01/31 01:50:24.1	95.880	-0.040	-0.150	0.300
2020/01/31 01:50:24.2	95.870	-0.040	-0.190	0.330
2020/01/31 01:50:24.3	95.850	-0.040	-0.230	0.350
2020/01/31 01:50:24.4	95.830	-0.040	-0.260	0.370
2020/01/31 01:50:24.5	95.810	-0.040	-0.300	0.400
2020/01/31 01:50:24.6	95.790	-0.050	-0.320	0.420
2020/01/31 01:50:24.7	95.770	-0.050	-0.350	0.450
2020/01/31 01:50:24.8	95.750	-0.050	-0.370	0.480
2020/01/31 01:50:24.9	95.740	-0.060	-0.390	0.500
2020/01/31 01:50:25.0	95.740	-0.070	-0.410	0.530
2020/01/31 01:50:25.1	95.720	-0.070	-0.430	0.560
2020/01/31 01:50:25.2	95.710	-0.080	-0.440	0.590
2020/01/31 01:50:25.3	95.690	-0.080	-0.450	0.610
2020/01/31 01:50:25.4	95.680	-0.090	-0.450	0.640
2020/01/31 01:50:25.5	95.670	-0.100	-0.450	0.660
2020/01/31 01:50:25.6	95.660	-0.100	-0.460	0.680
2020/01/31 01:50:25.7	95.660	-0.110	-0.450	0.700
2020/01/31 01:50:25.8	95.650	-0.110	-0.450	0.720
2020/01/31 01:50:25.9	95.650	-0.120	-0.450	0.740
2020/01/31 01:50:26.0	95.640	-0.120	-0.450	0.760
2020/01/31 01:50:26.1	95.640	-0.120	-0.440	0.770
2020/01/31 01:50:26.2	95.650	-0.120	-0.430	0.780
2020/01/31 01:50:26.3	95.660	-0.120	-0.430	0.780
2020/01/31 01:50:26.4	95.670	-0.120	-0.420	0.790
2020/01/31 01:50:26.5	95.690	-0.110	-0.420	0.790
2020/01/31 01:50:26.6	95.700	-0.110	-0.410	0.790
2020/01/31 01:50:26.7	95.720	-0.100	-0.410	0.790
2020/01/31 01:50:26.8	95.750	-0.090	-0.400	0.790
2020/01/31 01:50:26.9	95.770	-0.080	-0.400	0.790
2020/01/31 01:50:27.0	95.790	-0.070	-0.390	0.790
2020/01/31 01:50:27.1	95.810	-0.060	-0.390	0.780
2020/01/31 01:50:27.2	95.840	-0.050	-0.380	0.780
2020/01/31 01:50:27.3	95.870	-0.030	-0.380	0.770
2020/01/31 01:50:27.4	95.900	-0.020	-0.370	0.770
2020/01/31 01:50:27.5	95.930	-0.000	-0.370	0.770
2020/01/31 01:50:27.6	95.960	0.010	-0.360	0.770
2020/01/31 01:50:27.7	95.980	0.030	-0.360	0.760
2020/01/31 01:50:27.8	96.010	0.050	-0.350	0.760
2020/01/31 01:50:27.9	96.040	0.070	-0.340	0.760
2020/01/31 01:50:28.0	96.070	0.080	-0.340	0.770
2020/01/31 01:50:28.1	96.100	0.100	-0.330	0.770
2020/01/31 01:50:28.2	96.120	0.120	-0.320	0.770
2020/01/31 01:50:28.3	96.150	0.130	-0.310	0.780
2020/01/31 01:50:28.4	96.170	0.150	-0.290	0.790
2020/01/31 01:50:28.5	96.190	0.160	-0.280	0.790
2020/01/31 01:50:28.6	96.210	0.170	-0.260	0.800
2020/01/31 01:50:28.7	96.230	0.180	-0.240	0.810
2020/01/31 01:50:28.8	96.250	0.190	-0.220	0.830
2020/01/31 01:50:28.9	96.260	0.200	-0.200	0.840
2020/01/31 01:50:29.0	96.280	0.200	-0.170	0.860
2020/01/31 01:50:29.1	96.290	0.210	-0.150	0.870
2020/01/31 01:50:29.2	96.300	0.210	-0.120	0.890
2020/01/31 01:50:29.3	96.300	0.210	-0.090	0.910
2020/01/31 01:50:29.4	96.310	0.200	-0.060	0.930
2020/01/31 01:50:29.5	96.310	0.200	-0.030	0.950
2020/01/31 01:50:29.6	96.310	0.190	0.000	0.980
2020/01/31 01:50:29.7	96.300	0.180	0.030	1.000
2020/01/31 01:50:29.8	96.300	0.170	0.070	1.030
2020/01/31 01:50:29.9	96.290	0.150	0.100	1.060
2020/01/31 01:50:30.0	96.290	0.130	0.140	1.090
2020/01/31 01:50:30.1	96.270	0.110	0.170	1.120
2020/01/31 01:50:30.2	96.260	0.090	0.210	1.150
2020/01/31 01:50:30.3	96.240	0.070	0.240	1.180
2020/01/31 01:50:30.4	96.220	0.050	0.280	1.210
2020/01/31 01:50:30.5	96.200	0.020	0.310	1.250
2020/01/31 01:50:30.6	96.180	-0.010	0.340	1.280
2020/01/31 01:50:30.7	96.160	-0.040	0.370	1.310
2020/01/31 01:50:30.8	96.140	-0.070	0.400	1.350
2020/01/31 01:50:30.9	96.110	-0.100	0.420	1.380
2020/01/31 01:50:31.0	96.090	-0.140	0.450	1.420
2020/01/31 01:50:31.1	96.060	-0.170	0.470	1.450
2020/01/31 01:50:31.2	96.040	-0.200	0.490	1.480
2020/01/31 01:50:31.3	96.010	-0.240	0.510	1.510
2020/01/31 01:50:31.4	95.980	-0.270	0.520	1.540
2020/01/31 01:50:31.5	95.960	-0.300	0.530	1.560
2020/01/31 01:50:31.6	95.930	-0.340	0.530	1.590
2020/01/31 01:50:31.7	95.910	-0.370	0.530	1.610
2020/01/31 01:50:31.8	95.880	-0.400	0.530	1.630
2020/01/31 01:50:31.9	95.850	-0.430	0.520	1.660
2020/01/31 01:50:32.0	95.820	-0.460	0.510	1.670
2020/01/31 01:50:32.1	95.790	-0.480	0.500	1.690
2020/01/31 01:50:32.2	95.760	-0.500	0.480	1.710
2020/01/31 01:50:32.3	95.740	-0.530	0.450	1.720
2020/01/31 01:50:32.4	95.710	-0.540	0.420	1.740
2020/01/31 01:50:32.5	95.680	-0.560	0.380	1.750
2020/01/31 01:50:32.6	95.660	-0.570	0.350	1.760
2020/01/31 01:50:32.7	95.630	-0.580	0.300	1.760
2020/01/31 01:50:32.8	95.610	-0.580	0.250	1.770
2020/01/31 01:50:32.9	95.590	-0.580	0.200	1.770
2020/01/31 01:50:33.0	95.580	-0.580	0.140	1.770
2020/01/31 01:50:33.1	95.550	-0.570	0.080	1.770
2020/01/31 01:50:33.2	95.530	-0.560	0.020	1.760
2020/01/31 01:50:33.3	95.520	-0.540	-0.050	1.750
2020/01/31 01:50:33.4	95.500	-0.520	-0.120	1.740
2020/01/31 01:50:33.5	95.480	-0.500	-0.190	1.730
2020/01/31 01:50:33.6	95.470	-0.470	-0.260	1.710
2020/01/31 01:50:33.7	95.460	-0.440	-0.340	1.690
2020/01/31 01:50:33.8	95.450	-0.410	-0.410	1.670
2020/01/31 01:50:33.9	95.440	-0.370	-0.490	1.640
2020/01/31 01:50:34.0	95.430	-0.330	-0.570	1.610
2020/01/31 01:50:34.1	95.430	-0.290	-0.650	1.580
2020/01/31 01:50:34.2	95.430	-0.240	-0.720	1.540
2020/01/31 01:50:34.3	95.430	-0.200	-0.790	1.500
2020/01/31 01:50:34.4	95.430	-0.150	-0.860	1.460
2020/01/31 01:50:34.5	95.440	-0.100	-0.930	1.410
2020/01/31 01:50:34.6	95.450	-0.040	-0.990	1.360
2020/01/31 01:50:34.7	95.460	0.010	-1.050	1.310
2020/01/31 01:50:34.8	95.470	0.060	-1.100	1.260
2020/01/31 01:50:34.9	95.480	0.110	-1.150	1.210
2020/01/31 01:50:35.0	95.480	0.170	-1.190	1.160
2020/01/31 01:50:35.1	95.490	0.220	-1.220	1.100
2020/01/31 01:50:35.2	95.510	0.260	-1.240	1.040
2020/01/31 01:50:35.3	95.530	0.310	-1.260	0.990
2020/01/31 01:50:35.4	95.540	0.360	-1.270	0.930
2020/01/31 01:50:35.5	95.560	0.400	-1.270	0.870
2020/01/31 01:50:35.6	95.580	0.440	-1.270	0.810
2020/01/31 01:50:35.7	95.590	0.470	-1.250	0.760
2020/01/31 01:50:35.8	95.600	0.500	-1.230	0.700
2020/01/31 01:50:35.9	95.620	0.530	-1.190	0.640
2020/01/31 01:50:36.0	95.620	0.550	-1.150	0.590
2020/01/31 01:50:36.1	95.630	0.570	-1.100	0.540
2020/01/31 01:50:36.2	95.640	0.590	-1.050	0.490
2020/01/31 01:50:36.3	95.640	0.600	-0.990	0.440
2020/01/31 01:50:36.4	95.650	0.610	-0.920	0.390
2020/01/31 01:50:36.5	95.650	0.610	-0.850	0.340
2020/01/31 01:50:36.6	95.650	0.610	-0.770	0.300
2020/01/31 01:50:36.7	95.650	0.600	-0.680	0.250
2020/01/31 01:50:36.8	95.640	0.590	-0.600	0.210
2020/01/31 01:50:36.9	95.640	0.580	-0.510	0.170
2020/01/31 01:50:37.0	95.650	0.560	-0.420	0.150
2020/01/31 01:50:37.1	95.640	0.540	-0.330	0.110
2020/01/31 01:50:37.2	95.630	0.520	-0.230	0.080
2020/01/31 01:50:37.3	95.620	0.490	-0.140	0.050
2020/01/31 01:50:37.4	95.610	0.470	-0.050	0.020
2020/01/31 01:50:37.5	95.590	0.440	0.040	-0.000
2020/01/31 01:50:37.6	95.580	0.400	0.130	-0.020
2020/01/31 01:50:37.7	95.560	0.370	0.210	-0.040
2020/01/31 01:50:37.8	95.540	0.340	0.290	-0.060
2020/01/31 01:50:37.9	95.520	0.300	0.370	-0.070
2020/01/31 01:50:38.0	95.510	0.270	0.450	-0.080
2020/01/31 01:50:38.1	95.490	0.240	0.520	-0.090
2020/01/31 01:50:38.2	95.470	0.200	0.580	-0.100
2020/01/31 01:50:38.3	95.450	0.170	0.640	-0.100
2020/01/31 01:50:38.4	95.430	0.140	0.690	-0.100
2020/01/31 01:50:38.5	95.400	0.110	0.740	-0.100
2020/01/31 01:50:38.6	95.380	0.080	0.780	-0.090
2020/01/31 01:50:38.7	95.360	0.050	0.810	-0.090
2020/01/31 01:50:38.8	95.340	0.030	0.840	-0.080
2020/01/31 01:50:38.9	95.320	0.000	0.860	-0.060
2020/01/31 01:50:39.0	95.290	-0.020	0.870	-0.050
2020/01/31 01:50:39.1	95.270	-0.030	0.880	-0.030
2020/01/31 01:50:39.2	95.250	-0.050	0.880	-0.010
2020/01/31 01:50:39.3	95.230	-0.060	0.870	0.010
2020/01/31 01:50:39.4	95.210	-0.080	0.860	0.030
2020/01/31 01:50:39.5	95.190	-0.080	0.840	0.050
2020/01/31 01:50:39.6	95.170	-0.090	0.810	0.080
2020/01/31 01:50:39.7	95.150	-0.100	0.780	0.100
2020/01/31 01:50:39.8	95.140	-0.100	0.750	0.130
2020/01/31 01:50:39.9	95.120	-0.100	0.700	0.160
2020/01/31 01:50:40.0	95.100	-0.100	0.650	0.190
2020/01/31 01:50:40.1	95.090	-0.100	0.600	0.220
2020/01/31 01:50:40.2	95.080	-0.090	0.540	0.240
2020/01/31 01:50:40.3	95.070	-0.090	0.480	0.270
2020/01/31 01:50:40.4	95.070	-0.080	0.420	0.300
2020/01/31 01:50:40.5	95.060	-0.070	0.350	0.330
2020/01/31 01:50:40.6	95.060	-0.060	0.280	0.360
2020/01/31 01:50:40.7	95.060	-0.050	0.210	0.390
2020/01/31 01:50:40.8	95.060	-0.040	0.130	0.410
2020/01/31 01:50:40.9	95.060	-0.030	0.060	0.440
2020/01/31 01:50:41.0	95.080	-0.020	-0.020	0.460
2020/01/31 01:50:41.1	95.080	-0.010	-0.090	0.490
2020/01/31 01:50:41.2	95.090	-0.000	-0.170	0.520
2020/01/31 01:50:41.3	95.090	0.000	-0.240	0.550
2020/01/31 01:50:41.4	95.100	0.010	-0.320	0.580
2020/01/31 01:50:41.5	95.110	0.020	-0.390	0.610
2020/01/31 01:50:41.6	95.120	0.020	-0.460	0.640
2020/01/31 01:50:41.7	95.130	0.030	-0.520	0.670
2020/01/31 01:50:41.8	95.130	0.030	-0.580	0.700
2020/01/31 01:50:41.9	95.140	0.030	-0.640	0.730
2020/01/31 01:50:42.0	95.150	0.030	-0.690	0.770
2020/01/31 01:50:42.1	95.160	0.030	-0.740	0.810
2020/01/31 01:50:42.2	95.160	0.030	-0.780	0.850
2020/01/31 01:50:42.3	95.170	0.020	-0.820	0.890
2020/01/31 01:50:42.4	95.170	0.020	-0.850	0.920
2020/01/31 01:50:42.5	95.170	0.010	-0.870	0.970
2020/01/31 01:50:42.6	95.170	-0.000	-0.890	1.010
2020/01/31 01:50:42.7	95.170	-0.010	-0.900	1.050
2020/01/31 01:50:42.8	95.170	-0.020	-0.910	1.090
2020/01/31 01:50:42.9	95.170	-0.040	-0.910	1.140
2020/01/31 01:50:43.0	95.170	-0.050	-0.910	1.190
2020/01/31 01:50:43.1	95.160	-0.070	-0.890	1.240
2020/01/31 01:50:43.2	95.160	-0.090	-0.880	1.280
2020/01/31 01:50:43.3	95.150	-0.110	-0.860	1.330
2020/01/31 01:50:43.4	95.150	-0.120	-0.830	1.380
2020/01/31 01:50:43.5	95.140	-0.140	-0.800	1.430
2020/01/31 01:50:43.6	95.140	-0.160	-0.760	1.480
2020/01/31 01:50:43.7	95.130	-0.180	-0.730	1.530
2020/01/31 01:50:43.8	95.120	-0.200	-0.680	1.580
2020/01/31 01:50:43.9	95.110	-0.220	-0.640	1.630
2020/01/31 01:50:44.0	95.110	-0.240	-0.590	1.680
2020/01/31 01:50:44.1	95.100	-0.260	-0.540	1.730
2020/01/31 01:50:44.2	95.090	-0.280	-0.490	1.780
2020/01/31 01:50:44.3	95.080	-0.290	-0.440	1.830
2020/01/31 01:50:44.4	95.060	-0.310	-0.380	1.880
2020/01/31 01:50:44.5	95.050	-0.320	-0.330	1.930
2020/01/31 01:50:44.6	95.030	-0.330	-0.280	1.980
2020/01/31 01:50:44.7	95.020	-0.350	-0.230	2.030
2020/01/31 01:50:44.8	95.000	-0.350	-0.180	2.070
2020/01/31 01:50:44.9	94.980	-0.360	-0.140	2.110
2020/01/31 01:50:45.0	94.980	-0.370	-0.090	2.160
2020/01/31 01:50:45.1	94.960	-0.370	-0.050	2.200
2020/01/31 01:50:45.2	94.940	-0.370	-0.010	2.240
2020/01/31 01:50:45.3	94.920	-0.370	0.030	2.270
2020/01/31 01:50:45.4	94.900	-0.370	0.060	2.310
2020/01/31 01:50:45.5	94.880	-0.360	0.090	2.340
2020/01/31 01:50:45.6	94.860	-0.360	0.120	2.360
2020/01/31 01:50:45.7	94.840	-0.350	0.140	2.390
2020/01/31 01:50:45.8	94.820	-0.340	0.160	2.410
2020/01/31 01:50:45.9	94.800	-0.330	0.180	2.420
2020/01/31 01:50:46.0	94.780	-0.310	0.190	2.440
2020/01/31 01:50:46.1	94.760	-0.300	0.200	2.450
2020/01/31 01:50:46.2	94.740	-0.280	0.210	2.450
2020/01/31 01:50:46.3	94.720	-0.270	0.210	2.450
2020/01/31 01:50:46.4	94.700	-0.250	0.210	2.450
2020/01/31 01:50:46.5	94.680	-0.230	0.210	2.440
2020/01/31 01:50:46.6	94.660	-0.210	0.210	2.430
2020/01/31 01:50:46.7	94.640	-0.190	0.200	2.410
2020/01/31 01:50:46.8	94.620	-0.170	0.190	2.380
2020/01/31 01:50:46.9	94.600	-0.150	0.180	2.350
2020/01/31 01:50:47.0	94.580	-0.130	0.170	2.320
2020/01/31 01:50:47.1	94.560	-0.120	0.160	2.280
2020/01/31 01:50:47.2	94.540	-0.100	0.140	2.240
2020/01/31 01:50:47.3	94.530	-0.080	0.130	2.190
2020/01/31 01:50:47.4	94.510	-0.060	0.110	2.140
2020/01/31 01:50:47.5	94.500	-0.040	0.100	2.080
2020/01/31 01:50:47.6	94.480	-0.020	0.080	2.020
2020/01/31 01:50:47.7	94.470	-0.010	0.060	1.950
2020/01/31 01:50:47.8	94.460	0.010	0.050	1.880
2020/01/31 01:50:47.9	94.440	0.020	0.030	1.800
2020/01/31 01:50:48.0	94.420	0.040	0.010	1.720
2020/01/31 01:50:48.1	94.410	0.050	-0.010	1.640
2020/01/31 01:50:48.2	94.400	0.060	-0.030	1.550
2020/01/31 01:50:48.3	94.390	0.080	-0.050	1.460
2020/01/31 01:50:48.4	94.390	0.090	-0.060	1.370
2020/01/31 01:50:48.5	94.380	0.100	-0.080	1.280
2020/01/31 01:50:48.6	94.370	0.110	-0.100	1.190
2020/01/31 01:50:48.7	94.360	0.120	-0.120	1.090
2020/01/31 01:50:48.8	94.350	0.130	-0.130	1.000
2020/01/31 01:50:48.9	94.350	0.140	-0.150	0.900
2020/01/31 01:50:49.0	94.340	0.140	-0.160	0.800
2020/01/31 01:50:49.1	94.330	0.150	-0.170	0.710
2020/01/31 01:50:49.2	94.330	0.160	-0.180	0.610
2020/01/31 01:50:49.3	94.320	0.170	-0.200	0.520
2020/01/31 01:50:49.4	94.310	0.170	-0.210	0.430
2020/01/31 01:50:49.5	94.310	0.180	-0.220	0.340
2020/01/31 01:50:49.6	94.300	0.180	-0.220	0.250
2020/01/31 01:50:49.7	94.290	0.190	-0.230	0.160
2020/01/31 01:50:49.8	94.290	0.190	-0.230	0.080
2020/01/31 01:50:49.9	94.290	0.200	-0.240	-0.010
2020/01/31 01:50:50.0	94.260	0.200	-0.240	-0.080
2020/01/31 01:50:50.1	94.260	0.200	-0.240	-0.160
2020/01/31 01:50:50.2	94.260	0.210	-0.240	-0.240
2020/01/31 01:50:50.3	94.260	0.210	-0.240	-0.310
2020/01/31 01:50:50.4	94.260	0.210	-0.240	-0.380
2020/01/31 01:50:50.5	94.270	0.210	-0.240	-0.450
2020/01/31 01:50:50.6	94.270	0.210	-0.230	-0.520
2020/01/31 01:50:50.7	94.280	0.210	-0.230	-0.580
2020/01/31 01:50:50.8	94.280	0.210	-0.230	-0.640
2020/01/31 01:50:50.9	94.290	0.210	-0.220	-0.700
2020/01/31 01:50:51.0	94.310	0.210	-0.220	-0.760
2020/01/31 01:50:51.1	94.320	0.200	-0.210	-0.810
2020/01/31 01:50:51.2	94.330	0.200	-0.210	-0.860
2020/01/31 01:50:51.3	94.350	0.200	-0.200	-0.910
2020/01/31 01:50:51.4	94.360	0.190	-0.200	-0.950
2020/01/31 01:50:51.5	94.370	0.190	-0.200	-0.980
2020/01/31 01:50:51.6	94.390	0.180	-0.200	-1.020
2020/01/31 01:50:51.7	94.400	0.180	-0.200	-1.040
2020/01/31 01:50:51.8	94.420	0.180	-0.200	-1.070
2020/01/31 01:50:51.9	94.430	0.170	-0.200	-1.080
2020/01/31 01:50:52.0	94.450	0.170	-0.200	-1.090
2020/01/31 01:50:52.1	94.460	0.160	-0.210	-1.090
2020/01/31 01:50:52.2	94.470	0.160	-0.210	-1.090
2020/01/31 01:50:52.3	94.490	0.150	-0.220	-1.090
2020/01/31 01:50:52.4	94.500	0.150	-0.220	-1.080
2020/01/31 01:50:52.5	94.510	0.140	-0.230	-1.070
2020/01/31 01:50:52.6	94.510	0.140	-0.240	-1.040
2020/01/31 01:50:52.7	94.520	0.130	-0.240	-1.020
2020/01/31 01:50:52.8	94.530	0.130	-0.250	-0.990
2020/01/31 01:50:52.9	94.540	0.130	-0.260	-0.950
2020/01/31 01:50:53.0	94.540	0.120	-0.270	-0.900
2020/01/31 01:50:53.1	94.540	0.120	-0.280	-0.860
2020/01/31 01:50:53.2	94.550	0.120	-0.280	-0.800
2020/01/31 01:50:53.3	94.550	0.110	-0.290	-0.740
2020/01/31 01:50:53.4	94.550	0.110	-0.300	-0.680
2020/01/31 01:50:53.5	94.550	0.100	-0.300	-0.610
2020/01/31 01:50:53.6	94.550	0.100	-0.300	-0.540
2020/01/31 01:50:53.7	94.550	0.100	-0.300	-0.470
2020/01/31 01:50:53.8	94.540	0.090	-0.300	-0.390
2020/01/31 01:50:53.9	94.540	0.090	-0.300	-0.300
2020/01/31 01:50:54.0	94.540	0.080	-0.300	-0.210
2020/01/31 01:50:54.1	94.540	0.080	-0.290	-0.120
2020/01/31 01:50:54.2	94.530	0.070	-0.280	-0.030
2020/01/31 01:50:54.3	94.520	0.070	-0.270	0.070
2020/01/31 01:50:54.4	94.510	0.060	-0.260	0.170
2020/01/31 01:50:54.5	94.490	0.060	-0.250	0.270
2020/01/31 01:50:54.6	94.480	0.050	-0.230	0.380
2020/01/31 01:50:54.7	94.460	0.040	-0.220	0.480
2020/01/31 01:50:54.8	94.450	0.040	-0.200	0.590
2020/01/31 01:50:54.9	94.430	0.030	-0.180	0.700
2020/01/31 01:50:55.0	94.410	0.020	-0.170	0.820
2020/01/31 01:50:55.1	94.390	0.010	-0.150	0.930
2020/01/31 01:50:55.2	94.370	0.010	-0.130	1.040
2020/01/31 01:50:55.3	94.340	-0.000	-0.100	1.160
2020/01/31 01:50:55.4	94.320	-0.010	-0.080	1.270
2020/01/31 01:50:55.5	94.300	-0.020	-0.060	1.380
2020/01/31 01:50:55.6	94.280	-0.030	-0.040	1.490
2020/01/31 01:50:55.7	94.250	-0.040	-0.020	1.590
2020/01/31 01:50:55.8	94.230	-0.050	0.000	1.700
2020/01/31 01:50:55.9	94.200	-0.060	0.020	1.800
2020/01/31 01:50:56.0	94.180	-0.070	0.040	1.900
2020/01/31 01:50:56.1	94.160	-0.080	0.060	1.990
2020/01/31 01:50:56.2	94.140	-0.090	0.080	2.080
2020/01/31 01:50:56.3	94.120	-0.100	0.090	2.170
2020/01/31 01:50:56.4	94.100	-0.110	0.100	2.250
2020/01/31 01:50:56.5	94.080	-0.120	0.120	2.330
2020/01/31 01:50:56.6	94.060	-0.130	0.120	2.400
2020/01/31 01:50:56.7	94.040	-0.140	0.130	2.470
2020/01/31 01:50:56.8	94.030	-0.140	0.140	2.530
2020/01/31 01:50:56.9	94.010	-0.150	0.140	2.590
2020/01/31 01:50:57.0	94.010	-0.160	0.140	2.640
2020/01/31 01:50:57.1	94.000	-0.170	0.140	2.690
2020/01/31 01:50:57.2	93.990	-0.170	0.130	2.730
2020/01/31 01:50:57.3	93.990	-0.180	0.130	2.760
2020/01/31 01:50:57.4	93.980	-0.180	0.120	2.790
2020/01/31 01:50:57.5	93.980	-0.180	0.110	2.810
2020/01/31 01:50:57.6	93.980	-0.190	0.090	2.830
2020/01/31 01:50:57.7	93.980	-0.190	0.080	2.840
2020/01/31 01:50:57.8	93.990	-0.190	0.060	2.840
2020/01/31 01:50:57.9	93.990	-0.190	0.040	2.840
2020/01/31 01:50:58.0	94.020	-0.180	0.020	2.840
2020/01/31 01:50:58.1	94.030	-0.180	-0.000	2.840
2020/01/31 01:50:58.2	94.040	-0.180	-0.030	2.820
2020/01/31 01:50:58.3	94.050	-0.170	-0.060	2.810
2020/01/31 01:50:58.4	94.060	-0.160	-0.090	2.780
2020/01/31 01:50:58.5	94.080	-0.150	-0.120	2.760
2020/01/31 01:50:58.6	94.090	-0.150	-0.150	2.730
2020/01/31 01:50:58.7	94.100	-0.140	-0.180	2.700
2020/01/31 01:50:58.8	94.120	-0.130	-0.210	2.660
2020/01/31 01:50:58.9	94.130	-0.110	-0.240	2.620
2020/01/31 01:50:59.0	94.140	-0.100	-0.280	2.570
2020/01/31 01:50:59.1	94.160	-0.090	-0.310	2.520
2020/01/31 01:50:59.2	94.170	-0.080	-0.340	2.470
2020/01/31 01:50:59.3	94.190	-0.060	-0.370	2.410
2020/01/31 01:50:59.4	94.200	-0.050	-0.400	2.350
2020/01/31 01:50:59.5	94.220	-0.030	-0.430	2.290
2020/01/31 01:50:59.6	94.240	-0.020	-0.460	2.230
2020/01/31 01:50:59.7	94.250	-0.000	-0.480	2.160
2020/01/31 01:50:59.8	94.260	0.010	-0.500	2.090
2020/01/31 01:50:59.9	94.280	0.020	-0.520	2.020
2020/01/31 01:51:00.0	94.300	0.040	-0.530	1.950
2020/01/31 01:51:00.1	94.320	0.050	-0.540	1.880
2020/01/31 01:51:00.2	94.330	0.060	-0.550	1.800
2020/01/31 01:51:00.3	94.340	0.070	-0.560	1.730
2020/01/31 01:51:00.4	94.350	0.090	-0.560	1.660
2020/01/31 01:51:00.5	94.350	0.100	-0.560	1.580
2020/01/31 01:51:00.6	94.360	0.100	-0.550	1.510
2020/01/31 01:51:00.7	94.370	0.110	-0.540	1.440
2020/01/31 01:51:00.8	94.370	0.120	-0.530	1.370
2020/01/31 01:51:00.9	94.370	0.120	-0.510	1.300
2020/01/31 01:51:01.0	94.370	0.130	-0.500	1.230
2020/01/31 01:51:01.1	94.370	0.130	-0.470	1.160
2020/01/31 01:51:01.2	94.360	0.130	-0.450	1.100
2020/01/31 01:51:01.3	94.360	0.130	-0.420	1.030
2020/01/31 01:51:01.4	94.350	0.130	-0.390	0.970
2020/01/31 01:51:01.5	94.340	0.130	-0.360	0.910
2020/01/31 01:51:01.6	94.330	0.120	-0.320	0.850
2020/01/31 01:51:01.7	94.320	0.120	-0.280	0.790
2020/01/31 01:51:01.8	94.310	0.110	-0.240	0.740
2020/01/31 01:51:01.9	94.300	0.100	-0.210	0.680
2020/01/31 01:51:02.0	94.270	0.090	-0.160	0.630
2020/01/31 01:51:02.1	94.260	0.080	-0.120	0.580
2020/01/31 01:51:02.2	94.250	0.070	-0.080	0.530
2020/01/31 01:51:02.3	94.230	0.060	-0.050	0.480
2020/01/31 01:51:02.4	94.220	0.050	-0.010	0.440
2020/01/31 01:51:02.5	94.200	0.040	0.030	0.390
2020/01/31 01:51:02.6	94.190	0.020	0.060	0.350
2020/01/31 01:51:02.7	94.180	0.010	0.090	0.310
2020/01/31 01:51:02.8	94.160	-0.000	0.120	0.270
2020/01/31 01:51:02.9	94.150	-0.020	0.150	0.240
2020/01/31 01:51:03.0	94.130	-0.030	0.180	0.200
2020/01/31 01:51:03.1	94.110	-0.040	0.200	0.170
2020/01/31 01:51:03.2	94.100	-0.060	0.210	0.140
2020/01/31 01:51:03.3	94.080	-0.070	0.230	0.120
2020/01/31 01:51:03.4	94.070	-0.080	0.240	0.090
2020/01/31 01:51:03.5	94.050	-0.090	0.250	0.070
2020/01/31 01:51:03.6	94.040	-0.100	0.250	0.050
2020/01/31 01:51:03.7	94.020	-0.120	0.250	0.040
2020/01/31 01:51:03.8	94.010	-0.130	0.250	0.020
2020/01/31 01:51:03.9	93.990	-0.140	0.250	0.010
2020/01/31 01:51:04.0	93.990	-0.150	0.230	-0.000
2020/01/31 01:51:04.1	93.980	-0.160	0.220	-0.010
2020/01/31 01:51:04.2	93.960	-0.160	0.210	-0.020
2020/01/31 01:51:04.3	93.950	-0.170	0.190	-0.030
2020/01/31 01:51:04.4	93.930	-0.180	0.180	-0.050
2020/01/31 01:51:04.5	93.920	-0.190	0.160	-0.060
2020/01/31 01:51:04.6	93.910	-0.190	0.140	-0.070
2020/01/31 01:51:04.7	93.900	-0.200	0.110	-0.080
2020/01/31 01:51:04.8	93.890	-0.200	0.090	-0.090
2020/01/31 01:51:04.9	93.880	-0.210	0.060	-0.100
2020/01/31 01:51:05.0	93.860	-0.210	0.040	-0.110
2020/01/31 01:51:05.1	93.850	-0.210	0.010	-0.120
2020/01/31 01:51:05.2	93.840	-0.210	-0.020	-0.130
2020/01/31 01:51:05.3	93.840	-0.210	-0.040	-0.150
2020/01/31 01:51:05.4	93.830	-0.210	-0.070	-0.160
2020/01/31 01:51:05.5	93.830	-0.200	-0.100	-0.170
2020/01/31 01:51:05.6	93.820	-0.200	-0.130	-0.190
2020/01/31 01:51:05.7	93.820	-0.190	-0.160	-0.200
2020/01/31 01:51:05.8	93.820	-0.180	-0.190	-0.210
2020/01/31 01:51:05.9	93.820	-0.170	-0.210	-0.220
2020/01/31 01:51:06.0	93.800	-0.160	-0.240	-0.230
2020/01/31 01:51:06.1	93.800	-0.150	-0.270	-0.230
2020/01/31 01:51:06.2	93.800	-0.140	-0.290	-0.240
2020/01/31 01:51:06.3	93.810	-0.120	-0.320	-0.240
2020/01/31 01:51:06.4	93.810	-0.110	-0.340	-0.250
2020/01/31 01:51:06.5	93.810	-0.090	-0.360	-0.250
2020/01/31 01:51:06.6	93.810	-0.080	-0.380	-0.250
2020/01/31 01:51:06.7	93.820	-0.060	-0.400	-0.240
2020/01/31 01:51:06.8	93.820	-0.040	-0.410	-0.240
2020/01/31 01:51:06.9	93.830	-0.020	-0.430	-0.220
2020/01/31 01:51:07.0	93.840	-0.000	-0.440	-0.210
2020/01/31 01:51:07.1	93.840	0.020	-0.450	-0.190
2020/01/31 01:51:07.2	93.850	0.040	-0.460	-0.180
2020/01/31 01:51:07.3	93.860	0.060	-0.470	-0.160
2020/01/31 01:51:07.4	93.870	0.080	-0.470	-0.130
2020/01/31 01:51:07.5	93.880	0.100	-0.480	-0.110
2020/01/31 01:51:07.6	93.900	0.120	-0.480	-0.080
2020/01/31 01:51:07.7	93.910	0.140	-0.480	-0.050
2020/01/31 01:51:07.8	93.920	0.160	-0.480	-0.020
2020/01/31 01:51:07.9	93.940	0.180	-0.480	0.010
2020/01/31 01:51:08.0	93.950	0.200	-0.470	0.050
2020/01/31 01:51:08.1	93.970	0.220	-0.470	0.090
2020/01/31 01:51:08.2	93.980	0.230	-0.460	0.130
2020/01/31 01:51:08.3	94.000	0.250	-0.460	0.170
2020/01/31 01:51:08.4	94.020	0.260	-0.450	0.210
2020/01/31 01:51:08.5	94.030	0.270	-0.440	0.250
2020/01/31 01:51:08.6	94.050	0.280	-0.430	0.300
2020/01/31 01:51:08.7	94.060	0.290	-0.420	0.340
2020/01/31 01:51:08.8	94.080	0.300	-0.410	0.390
2020/01/31 01:51:08.9	94.090	0.310	-0.400	0.440
2020/01/31 01:51:09.0	94.100	0.310	-0.380	0.500
2020/01/31 01:51:09.1	94.110	0.310	-0.370	0.550
2020/01/31 01:51:09.2	94.120	0.310	-0.350	0.610
2020/01/31 01:51:09.3	94.130	0.310	-0.340	0.660
2020/01/31 01:51:09.4	94.130	0.310	-0.320	0.720
2020/01/31 01:51:09.5	94.140	0.310	-0.310	0.770
2020/01/31 01:51:09.6	94.150	0.300	-0.290	0.830
2020/01/31 01:51:09.7	94.150	0.290	-0.270	0.890
2020/01/31 01:51:09.8	94.150	0.280	-0.250	0.950
2020/01/31 01:51:09.9	94.160	0.270	-0.230	1.010
2020/01/31 01:51:10.0	94.150	0.260	-0.200	1.070
2020/01/31 01:51:10.1	94.150	0.240	-0.180	1.130
2020/01/31 01:51:10.2	94.150	0.220	-0.160	1.190
2020/01/31 01:51:10.3	94.150	0.210	-0.130	1.250
2020/01/31 01:51:10.4	94.150	0.190	-0.110	1.310
2020/01/31 01:51:10.5	94.150	0.170	-0.080	1.360
2020/01/31 01:51:10.6	94.140	0.150	-0.060	1.420
2020/01/31 01:51:10.7	94.140	0.120	-0.030	1.470
2020/01/31 01:51:10.8	94.130	0.100	-0.000	1.530
2020/01/31 01:51:10.9	94.130	0.080	0.030	1.580
2020/01/31 01:51:11.0	94.110	0.050	0.060	1.630
2020/01/31 01:51:11.1	94.100	0.030	0.090	1.690
2020/01/31 01:51:11.2	94.090	0.010	0.120	1.740
2020/01/31 01:51:11.3	94.080	-0.020	0.140	1.790
2020/01/31 01:51:11.4	94.070	-0.040	0.170	1.840
2020/01/31 01:51:11.5	94.060	-0.060	0.200	1.880
2020/01/31 01:51:11.6	94.040	-0.090	0.220	1.930
2020/01/31 01:51:11.7	94.030	-0.110	0.240	1.970
2020/01/31 01:51:11.8	94.010	-0.130	0.270	2.020
2020/01/31 01:51:11.9	94.000	-0.150	0.280	2.060
2020/01/31 01:51:12.0	94.000	-0.170	0.300	2.100
2020/01/31 01:51:12.1	93.990	-0.180	0.320	2.140
2020/01/31 01:51:12.2	93.970	-0.200	0.330	2.170
2020/01/31 01:51:12.3	93.950	-0.210	0.340	2.210
2020/01/31 01:51:12.4	93.930	-0.230	0.350	2.240
2020/01/31 01:51:12.5	93.910	-0.240	0.350	2.260
2020/01/31 01:51:12.6	93.900	-0.250	0.350	2.290
2020/01/31 01:51:12.7	93.880	-0.250	0.350	2.310
2020/01/31 01:51:12.8	93.860	-0.260	0.340	2.320
2020/01/31 01:51:12.9	93.840	-0.260	0.330	2.330
2020/01/31 01:51:13.0	93.850	-0.270	0.320	2.340
2020/01/31 01:51:13.1	93.840	-0.270	0.300	2.350
2020/01/31 01:51:13.2	93.820	-0.270	0.280	2.340
2020/01/31 01:51:13.3	93.810	-0.270	0.260	2.340
2020/01/31 01:51:13.4	93.790	-0.260	0.230	2.330
2020/01/31 01:51:13.5	93.780	-0.260	0.200	2.310
2020/01/31 01:51:13.6	93.760	-0.250	0.170	2.290
2020/01/31 01:51:13.7	93.750	-0.250	0.140	2.270
2020/01/31 01:51:13.8	93.740	-0.240	0.110	2.240
2020/01/31 01:51:13.9	93.730	-0.230	0.070	2.210
2020/01/31 01:51:14.0	93.720	-0.220	0.030	2.170
2020/01/31 01:51:14.1	93.710	-0.210	-0.000	2.130
2020/01/31 01:51:14.2	93.700	-0.200	-0.040	2.080
2020/01/31 01:51:14.3	93.700	-0.190	-0.080	2.040
2020/01/31 01:51:14.4	93.690	-0.180	-0.120	1.990
2020/01/31 01:51:14.5	93.680	-0.170	-0.160	1.930
2020/01/31 01:51:14.6	93.670	-0.160	-0.190	1.880
2020/01/31 01:51:14.7	93.660	-0.150	-0.230	1.820
2020/01/31 01:51:14.8	93.660	-0.140	-0.270	1.760
2020/01/31 01:51:14.9	93.650	-0.120	-0.300	1.690
2020/01/31 01:51:15.0	93.640	-0.110	-0.330	1.620
2020/01/31 01:51:15.1	93.640	-0.100	-0.360	1.560
2020/01/31 01:51:15.2	93.640	-0.090	-0.390	1.490
2020/01/31 01:51:15.3	93.630	-0.070	-0.420	1.420
2020/01/31 01:51:15.4	93.630	-0.060	-0.450	1.350
2020/01/31 01:51:15.5	93.630	-0.050	-0.470	1.270
2020/01/31 01:51:15.6	93.640	-0.040	-0.490	1.200
2020/01/31 01:51:15.7	93.640	-0.020	-0.510	1.120
2020/01/31 01:51:15.8	93.650	-0.010	-0.530	1.050
2020/01/31 01:51:15.9	93.650	0.000	-0.540	0.970
2020/01/31 01:51:16.0	93.650	0.020	-0.560	0.890
2020/01/31 01:51:16.1	93.660	0.030	-0.570	0.810
2020/01/31 01:51:16.2	93.680	0.040	-0.580	0.730
2020/01/31 01:51:16.3	93.690	0.060	-0.590	0.660
2020/01/31 01:51:16.4	93.710	0.070	-0.600	0.580
2020/01/31 01:51:16.5	93.730	0.080	-0.610	0.500
2020/01/31 01:51:16.6	93.750	0.100	-0.620	0.420
2020/01/31 01:51:16.7	93.770	0.110	-0.630	0.350
2020/01/31 01:51:16.8	93.790	0.130	-0.630	0.280
2020/01/31 01:51:16.9	93.820	0.140	-0.640	0.210
2020/01/31 01:51:17.0	93.830	0.150	-0.650	0.140
2020/01/31 01:51:17.1	93.860	0.170	-0.650	0.070
2020/01/31 01:51:17.2	93.890	0.180	-0.660	0.010
2020/01/31 01:51:17.3	93.910	0.190	-0.660	-0.040
2020/01/31 01:51:17.4	93.940	0.200	-0.660	-0.090
2020/01/31 01:51:17.5	93.960	0.210	-0.660	-0.140
2020/01/31 01:51:17.6	93.980	0.220	-0.670	-0.180
2020/01/31 01:51:17.7	94.000	0.230	-0.660	-0.210
2020/01/31 01:51:17.8	94.020	0.240	-0.660	-0.240
2020/01/31 01:51:17.9	94.030	0.250	-0.650	-0.270
2020/01/31 01:51:18.0	94.050	0.250	-0.650	-0.280
2020/01/31 01:51:18.1	94.060	0.250	-0.630	-0.290
2020/01/31 01:51:18.2	94.070	0.250	-0.620	-0.300
2020/01/31 01:51:18.3	94.070	0.250	-0.600	-0.300
2020/01/31 01:51:18.4	94.070	0.240	-0.570	-0.300
2020/01/31 01:51:18.5	94.060	0.230	-0.540	-0.290
2020/01/31 01:51:18.6	94.060	0.220	-0.510	-0.270
2020/01/31 01:51:18.7	94.050	0.210	-0.470	-0.260
2020/01/31 01:51:18.8	94.030	0.190	-0.430	-0.240
2020/01/31 01:51:18.9	94.020	0.170	-0.380	-0.210
2020/01/31 01:51:19.0	94.010	0.150	-0.330	-0.180
2020/01/31 01:51:19.1	93.980	0.120	-0.270	-0.150
2020/01/31 01:51:19.2	93.960	0.090	-0.210	-0.120
2020/01/31 01:51:19.3	93.930	0.060	-0.140	-0.090
2020/01/31 01:51:19.4	93.910	0.030	-0.080	-0.060
2020/01/31 01:51:19.5	93.880	-0.010	-0.000	-0.020
2020/01/31 01:51:19.6	93.850	-0.040	0.070	0.020
2020/01/31 01:51:19.7	93.810	-0.080	0.140	0.050
2020/01/31 01:51:19.8	93.780	-0.120	0.210	0.090
2020/01/31 01:51:19.9	93.750	-0.160	0.280	0.130
2020/01/31 01:51:20.0	93.710	-0.200	0.360	0.170
2020/01/31 01:51:20.1	93.680	-0.250	0.430	0.210
2020/01/31 01:51:20.2	93.640	-0.290	0.490	0.240
2020/01/31 01:51:20.3	93.610	-0.330	0.550	0.280
2020/01/31 01:51:20.4	93.580	-0.370	0.610	0.310
2020/01/31 01:51:20.5	93.550	-0.410	0.670	0.350
2020/01/31 01:51:20.6	93.530	-0.440	0.710	0.380
2020/01/31 01:51:20.7	93.500	-0.480	0.760	0.410
2020/01/31 01:51:20.8	93.480	-0.510	0.790	0.440
2020/01/31 01:51:20.9	93.460	-0.540	0.820	0.470
2020/01/31 01:51:21.0	93.440	-0.560	0.840	0.500
2020/01/31 01:51:21.1	93.430	-0.580	0.850	0.530
2020/01/31 01:51:21.2	93.420	-0.600	0.860	0.550
2020/01/31 01:51:21.3	93.410	-0.620	0.860	0.580
2020/01/31 01:51:21.4	93.400	-0.630	0.840	0.610
2020/01/31 01:51:21.5	93.390	-0.630	0.820	0.630
2020/01/31 01:51:21.6	93.390	-0.630	0.800	0.660
2020/01/31 01:51:21.7	93.390	-0.630	0.760	0.680
2020/01/31 01:51:21.8	93.390	-0.620	0.720	0.710
2020/01/31 01:51:21.9	93.390	-0.610	0.670	0.730
2020/01/31 01:51:22.0	93.380	-0.590	0.610	0.760
2020/01/31 01:51:22.1	93.390	-0.570	0.550	0.790
2020/01/31 01:51:22.2	93.390	-0.540	0.480	0.820
2020/01/31 01:51:22.3	93.400	-0.510	0.410	0.840
2020/01/31 01:51:22.4	93.410	-0.480	0.330	0.870
2020/01/31 01:51:22.5	93.420	-0.440	0.250	0.900
2020/01/31 01:51:22.6	93.430	-0.400	0.160	0.920
2020/01/31 01:51:22.7	93.440	-0.360	0.080	0.950
2020/01/31 01:51:22.8	93.450	-0.310	-0.020	0.980
2020/01/31 01:51:22.9	93.460	-0.260	-0.110	1.000
2020/01/31 01:51:23.0	93.480	-0.210	-0.200	1.030
2020/01/31 01:51:23.1	93.500	-0.160	-0.300	1.050
2020/01/31 01:51:23.2	93.510	-0.110	-0.390	1.070
2020/01/31 01:51:23.3	93.530	-0.050	-0.490	1.090
2020/01/31 01:51:23.4	93.540	0.000	-0.580	1.110
2020/01/31 01:51:23.5	93.560	0.060	-0.670	1.130
2020/01/31 01:51:23.6	93.570	0.110	-0.760	1.140
2020/01/31 01:51:23.7	93.590	0.160	-0.850	1.160
2020/01/31 01:51:23.8	93.600	0.220	-0.930	1.170
2020/01/31 01:51:23.9	93.620	0.270	-1.010	1.180
2020/01/31 01:51:24.0	93.630	0.320	-1.080	1.200
2020/01/31 01:51:24.1	93.640	0.360	-1.150	1.200
2020/01/31 01:51:24.2	93.650	0.410	-1.210	1.210
2020/01/31 01:51:24.3	93.660	0.450	-1.260	1.220
2020/01/31 01:51:24.4	93.680	0.490	-1.300	1.220
2020/01/31 01:51:24.5	93.680	0.520	-1.340	1.230
2020/01/31 01:51:24.6	93.690	0.550	-1.360	1.230
2020/01/31 01:51:24.7	93.700	0.580	-1.380	1.240
2020/01/31 01:51:24.8	93.710	0.600	-1.390	1.250
2020/01/31 01:51:24.9	93.710	0.620	-1.390	1.250
2020/01/31 01:51:25.0	93.710	0.640	-1.370	1.260
2020/01/31 01:51:25.1	93.710	0.640	-1.350	1.270
2020/01/31 01:51:25.2	93.710	0.650	-1.320	1.280
2020/01/31 01:51:25.3	93.700	0.650	-1.280	1.290
2020/01/31 01:51:25.4	93.700	0.650	-1.230	1.300
2020/01/31 01:51:25.5	93.690	0.640	-1.170	1.310
2020/01/31 01:51:25.6	93.680	0.620	-1.100	1.320
2020/01/31 01:51:25.7	93.670	0.610	-1.020	1.340
2020/01/31 01:51:25.8	93.660	0.590	-0.940	1.350
2020/01/31 01:51:25.9	93.640	0.560	-0.850	1.370
2020/01/31 01:51:26.0	93.630	0.530	-0.750	1.390
2020/01/31 01:51:26.1	93.610	0.500	-0.650	1.410
2020/01/31 01:51:26.2	93.590	0.470	-0.550	1.430
2020/01/31 01:51:26.3	93.570	0.430	-0.440	1.450
2020/01/31 01:51:26.4	93.550	0.390	-0.330	1.470
2020/01/31 01:51:26.5	93.530	0.350	-0.220	1.480
2020/01/31 01:51:26.6	93.500	0.310	-0.110	1.500
2020/01/31 01:51:26.7	93.480	0.270	0.000	1.520
2020/01/31 01:51:26.8	93.450	0.220	0.110	1.530
2020/01/31 01:51:26.9	93.430	0.180	0.220	1.550
2020/01/31 01:51:27.0	93.410	0.130	0.330	1.560
2020/01/31 01:51:27.1	93.380	0.090	0.430	1.570
2020/01/31 01:51:27.2	93.360	0.050	0.520	1.580
2020/01/31 01:51:27.3	93.330	0.000	0.620	1.590
2020/01/31 01:51:27.4	93.310	-0.040	0.700	1.590
2020/01/31 01:51:27.5	93.280	-0.080	0.780	1.590
2020/01/31 01:51:27.6	93.260	-0.120	0.860	1.590
2020/01/31 01:51:27.7	93.230	-0.150	0.920	1.590
2020/01/31 01:51:27.8	93.210	-0.190	0.980	1.580
2020/01/31 01:51:27.9	93.190	-0.220	1.040	1.570
2020/01/31 01:51:28.0	93.180	-0.250	1.080	1.570
2020/01/31 01:51:28.1	93.160	-0.280	1.120	1.550
2020/01/31 01:51:28.2	93.140	-0.300	1.150	1.540
2020/01/31 01:51:28.3	93.120	-0.320	1.170	1.520
2020/01/31 01:51:28.4	93.100	-0.340	1.180	1.490
2020/01/31 01:51:28.5	93.090	-0.360	1.180	1.470
2020/01/31 01:51:28.6	93.080	-0.370	1.180	1.440
2020/01/31 01:51:28.7	93.070	-0.380	1.160	1.400
2020/01/31 01:51:28.8	93.060	-0.380	1.140	1.370
2020/01/31 01:51:28.9	93.050	-0.390	1.110	1.330
2020/01/31 01:51:29.0	93.040	-0.380	1.070	1.280
2020/01/31 01:51:29.1	93.030	-0.380	1.020	1.230
2020/01/31 01:51:29.2	93.030	-0.370	0.970	1.190
2020/01/31 01:51:29.3	93.030	-0.370	0.900	1.140
2020/01/31 01:51:29.4	93.020	-0.350	0.840	1.080
2020/01/31 01:51:29.5	93.030	-0.340	0.760	1.030
2020/01/31 01:51:29.6	93.030	-0.320	0.680	0.970
2020/01/31 01:51:29.7	93.030	-0.300	0.590	0.910
2020/01/31 01:51:29.8	93.030	-0.280	0.500	0.850
2020/01/31 01:51:29.9	93.040	-0.250	0.400	0.790
2020/01/31 01:51:30.0	93.050	-0.230	0.290	0.730
2020/01/31 01:51:30.1	93.060	-0.200	0.190	0.660
2020/01/31 01:51:30.2	93.070	-0.170	0.080	0.600
2020/01/31 01:51:30.3	93.080	-0.140	-0.030	0.540
2020/01/31 01:51:30.4	93.090	-0.110	-0.150	0.480
2020/01/31 01:51:30.5	93.100	-0.080	-0.260	0.420
2020/01/31 01:51:30.6	93.110	-0.040	-0.370	0.360
2020/01/31 01:51:30.7	93.120	-0.010	-0.490	0.300
2020/01/31 01:51:30.8	93.130	0.030	-0.600	0.250
2020/01/31 01:51:30.9	93.140	0.060	-0.710	0.200
2020/01/31 01:51:31.0	93.150	0.100	-0.820	0.150
2020/01/31 01:51:31.1	93.170	0.130	-0.920	0.100
2020/01/31 01:51:31.2	93.180	0.160	-1.020	0.060
2020/01/31 01:51:31.3	93.200	0.190	-1.120	0.020
2020/01/31 01:51:31.4	93.210	0.230	-1.210	-0.020
2020/01/31 01:51:31.5	93.230	0.260	-1.290	-0.050
2020/01/31 01:51:31.6	93.250	0.280	-1.370	-0.080
2020/01/31 01:51:31.7	93.260	0.310	-1.440	-0.100
2020/01/31 01:51:31.8	93.280	0.340	-1.500	-0.120
2020/01/31 01:51:31.9	93.290	0.360	-1.560	-0.130
2020/01/31 01:51:32.0	93.300	0.380	-1.610	-0.140
2020/01/31 01:51:32.1	93.320	0.400	-1.650	-0.140
2020/01/31 01:51:32.2	93.330	0.410	-1.670	-0.140
2020/01/31 01:51:32.3	93.340	0.430	-1.690	-0.140
2020/01/31 01:51:32.4	93.350	0.440	-1.700	-0.130
2020/01/31 01:51:32.5	93.360	0.450	-1.700	-0.110
2020/01/31 01:51:32.6	93.370	0.450	-1.680	-0.090
2020/01/31 01:51:32.7	93.380	0.450	-1.660	-0.070
2020/01/31 01:51:32.8	93.380	0.450	-1.620	-0.040
2020/01/31 01:51:32.9	93.390	0.440	-1.580	-0.000
2020/01/31 01:51:33.0	93.380	0.430	-1.510	0.030
2020/01/31 01:51:33.1	93.380	0.420	-1.450	0.080
2020/01/31 01:51:33.2	93.380	0.400	-1.370	0.120
2020/01/31 01:51:33.3	93.370	0.380	-1.280	0.170
2020/01/31 01:51:33.4	93.370	0.350	-1.180	0.220
2020/01/31 01:51:33.5	93.360	0.320	-1.080	0.270
2020/01/31 01:51:33.6	93.350	0.290	-0.960	0.330
2020/01/31 01:51:33.7	93.340	0.250	-0.840	0.390
2020/01/31 01:51:33.8	93.320	0.220	-0.710	0.450
2020/01/31 01:51:33.9	93.310	0.170	-0.580	0.510
2020/01/31 01:51:34.0	93.300	0.130	-0.440	0.570
2020/01/31 01:51:34.1	93.280	0.080	-0.290	0.630
2020/01/31 01:51:34.2	93.250	0.030	-0.150	0.690
2020/01/31 01:51:34.3	93.230	-0.020	-0.000	0.750
2020/01/31 01:51:34.4	93.210	-0.080	0.140	0.810
2020/01/31 01:51:34.5	93.180	-0.130	0.290	0.870
2020/01/31 01:51:34.6	93.150	-0.190	0.430	0.920
2020/01/31 01:51:34.7	93.130	-0.240	0.580	0.980
2020/01/31 01:51:34.8	93.100	-0.300	0.710	1.030
2020/01/31 01:51:34.9	93.070	-0.350	0.850	1.090
2020/01/31 01:51:35.0	93.050	-0.410	0.980	1.140
2020/01/31 01:51:35.1	93.020	-0.460	1.100	1.190
2020/01/31 01:51:35.2	92.990	-0.520	1.210	1.230
2020/01/31 01:51:35.3	92.960	-0.570	1.310	1.280
2020/01/31 01:51:35.4	92.920	-0.610	1.400	1.320
2020/01/31 01:51:35.5	92.890	-0.660	1.490	1.350
2020/01/31 01:51:35.6	92.860	-0.700	1.560	1.390
2020/01/31 01:51:35.7	92.820	-0.740	1.610	1.420
2020/01/31 01:51:35.8	92.790	-0.770	1.660	1.450
2020/01/31 01:51:35.9	92.760	-0.800	1.690	1.470
2020/01/31 01:51:36.0	92.720	-0.820	1.700	1.490
2020/01/31 01:51:36.1	92.690	-0.840	1.710	1.510
2020/01/31 01:51:36.2	92.660	-0.850	1.700	1.520
2020/01/31 01:51:36.3	92.630	-0.860	1.670	1.530
2020/01/31 01:51:36.4	92.600	-0.860	1.630	1.540
2020/01/31 01:51:36.5	92.580	-0.860	1.580	1.540
2020/01/31 01:51:36.6	92.550	-0.850	1.510	1.540
2020/01/31 01:51:36.7	92.530	-0.840	1.430	1.530
2020/01/31 01:51:36.8	92.510	-0.810	1.340	1.520
2020/01/31 01:51:36.9	92.500	-0.790	1.240	1.510
2020/01/31 01:51:37.0	92.470	-0.760	1.120	1.500
2020/01/31 01:51:37.1	92.460	-0.720	1.000	1.480
2020/01/31 01:51:37.2	92.450	-0.680	0.860	1.450
2020/01/31 01:51:37.3	92.450	-0.640	0.720	1.420
2020/01/31 01:51:37.4	92.440	-0.590	0.580	1.390
2020/01/31 01:51:37.5	92.450	-0.540	0.420	1.360
2020/01/31 01:51:37.6	92.450	-0.480	0.270	1.320
2020/01/31 01:51:37.7	92.460	-0.420	0.110	1.280
2020/01/31 01:51:37.8	92.470	-0.360	-0.060	1.240
2020/01/31 01:51:37.9	92.480	-0.300	-0.220	1.190
2020/01/31 01:51:38.0	92.500	-0.240	-0.390	1.150
2020/01/31 01:51:38.1	92.520	-0.170	-0.550	1.100
2020/01/31 01:51:38.2	92.550	-0.110	-0.700	1.050
2020/01/31 01:51:38.3	92.570	-0.040	-0.860	1.000
2020/01/31 01:51:38.4	92.600	0.020	-1.010	0.950
2020/01/31 01:51:38.5	92.630	0.090	-1.150	0.890
2020/01/31 01:51:38.6	92.660	0.150	-1.280	0.850
2020/01/31 01:51:38.7	92.690	0.210	-1.410	0.800
2020/01/31 01:51:38.8	92.720	0.270	-1.530	0.750
2020/01/31 01:51:38.9	92.750	0.330	-1.630	0.700
2020/01/31 01:51:39.0	92.790	0.380	-1.730	0.660
2020/01/31 01:51:39.1	92.820	0.430	-1.810	0.620
2020/01/31 01:51:39.2	92.850	0.480	-1.880	0.580
2020/01/31 01:51:39.3	92.880	0.530	-1.940	0.540
2020/01/31 01:51:39.4	92.910	0.570	-1.980	0.500
2020/01/31 01:51:39.5	92.930	0.600	-2.010	0.470
2020/01/31 01:51:39.6	92.950	0.630	-2.030	0.440
2020/01/31 01:51:39.7	92.980	0.660	-2.030	0.410
2020/01/31 01:51:39.8	92.990	0.690	-2.010	0.390
2020/01/31 01:51:39.9	93.010	0.700	-1.980	0.370
2020/01/31 01:51:40.0	93.020	0.720	-1.940	0.350
2020/01/31 01:51:40.1	93.030	0.730	-1.890	0.330
2020/01/31 01:51:40.2	93.040	0.730	-1.820	0.320
2020/01/31 01:51:40.3	93.040	0.740	-1.740	0.320
2020/01/31 01:51:40.4	93.050	0.730	-1.650	0.310
2020/01/31 01:51:40.5	93.050	0.730	-1.560	0.320
2020/01/31 01:51:40.6	93.050	0.720	-1.450	0.320
2020/01/31 01:51:40.7	93.040	0.700	-1.330	0.330
2020/01/31 01:51:40.8	93.040	0.690	-1.210	0.350
2020/01/31 01:51:40.9	93.030	0.670	-1.080	0.370
2020/01/31 01:51:41.0	93.040	0.640	-0.950	0.400
2020/01/31 01:51:41.1	93.030	0.620	-0.810	0.420
2020/01/31 01:51:41.2	93.010	0.590	-0.670	0.450
2020/01/31 01:51:41.3	92.990	0.560	-0.530	0.490
2020/01/31 01:51:41.4	92.970	0.530	-0.390	0.520
2020/01/31 01:51:41.5	92.950	0.490	-0.250	0.560
2020/01/31 01:51:41.6	92.930	0.460	-0.120	0.610
2020/01/31 01:51:41.7	92.910	0.420	0.020	0.650
2020/01/31 01:51:41.8	92.880	0.380	0.150	0.700
2020/01/31 01:51:41.9	92.860	0.340	0.280	0.750
2020/01/31 01:51:42.0	92.820	0.300	0.400	0.810
2020/01/31 01:51:42.1	92.800	0.260	0.520	0.870
2020/01/31 01:51:42.2	92.760	0.220	0.630	0.920
2020/01/31 01:51:42.3	92.730	0.180	0.740	0.980
2020/01/31 01:51:42.4	92.700	0.150	0.830	1.040
2020/01/31 01:51:42.5	92.670	0.110	0.920	1.100
2020/01/31 01:51:42.6	92.640	0.070	1.000	1.160
2020/01/31 01:51:42.7	92.600	0.040	1.070	1.220
2020/01/31 01:51:42.8	92.570	0.000	1.130	1.280
2020/01/31 01:51:42.9	92.540	-0.030	1.170	1.330
2020/01/31 01:51:43.0	92.510	-0.060	1.210	1.390
2020/01/31 01:51:43.1	92.480	-0.090	1.240	1.440
2020/01/31 01:51:43.2	92.450	-0.110	1.260	1.490
2020/01/31 01:51:43.3	92.420	-0.140	1.270	1.540
2020/01/31 01:51:43.4	92.400	-0.160	1.260	1.580
2020/01/31 01:51:43.5	92.370	-0.170	1.250	1.620
2020/01/31 01:51:43.6	92.340	-0.190	1.220	1.650
2020/01/31 01:51:43.7	92.320	-0.200	1.190	1.680
2020/01/31 01:51:43.8	92.300	-0.210	1.140	1.710
2020/01/31 01:51:43.9	92.280	-0.210	1.090	1.730
2020/01/31 01:51:44.0	92.240	-0.210	1.030	1.750
2020/01/31 01:51:44.1	92.230	-0.210	0.960	1.760
2020/01/31 01:51:44.2	92.210	-0.210	0.880	1.770
2020/01/31 01:51:44.3	92.200	-0.200	0.800	1.770
2020/01/31 01:51:44.4	92.190	-0.190	0.710	1.770
2020/01/31 01:51:44.5	92.180	-0.180	0.620	1.770
2020/01/31 01:51:44.6	92.170	-0.160	0.520	1.760
2020/01/31 01:51:44.7	92.160	-0.140	0.420	1.740
2020/01/31 01:51:44.8	92.160	-0.120	0.310	1.720
2020/01/31 01:51:44.9	92.160	-0.100	0.210	1.700
2020/01/31 01:51:45.0	92.160	-0.080	0.100	1.660
2020/01/31 01:51:45.1	92.160	-0.050	-0.010	1.630
2020/01/31 01:51:45.2	92.170	-0.030	-0.110	1.590
2020/01/31 01:51:45.3	92.170	0.000	-0.210	1.550
2020/01/31 01:51:45.4	92.180	0.030	-0.310	1.500
2020/01/31 01:51:45.5	92.190	0.060	-0.400	1.450
2020/01/31 01:51:45.6	92.210	0.080	-0.490	1.400
2020/01/31 01:51:45.7	92.230	0.110	-0.570	1.340
2020/01/31 01:51:45.8	92.250	0.140	-0.640	1.280
2020/01/31 01:51:45.9	92.270	0.160	-0.710	1.220
2020/01/31 01:51:46.0	92.310	0.180	-0.760	1.170
2020/01/31 01:51:46.1	92.340	0.200	-0.820	1.100
2020/01/31 01:51:46.2	92.360	0.220	-0.860	1.040
2020/01/31 01:51:46.3	92.400	0.240	-0.890	0.980
2020/01/31 01:51:46.4	92.430	0.260	-0.920	0.930
2020/01/31 01:51:46.5	92.460	0.270	-0.930	0.870
2020/01/31 01:51:46.6	92.500	0.280	-0.940	0.810
2020/01/31 01:51:46.7	92.530	0.290	-0.940	0.760
2020/01/31 01:51:46.8	92.570	0.290	-0.930	0.710
2020/01/31 01:51:46.9	92.600	0.290	-0.920	0.660
2020/01/31 01:51:47.0	92.660	0.290	-0.900	0.630
2020/01/31 01:51:47.1	92.690	0.280	-0.870	0.590
2020/01/31 01:51:47.2	92.730	0.280	-0.830	0.550
2020/01/31 01:51:47.3	92.760	0.270	-0.790	0.520
2020/01/31 01:51:47.4	92.800	0.250	-0.750	0.500
2020/01/31 01:51:47.5	92.830	0.240	-0.700	0.480
2020/01/31 01:51:47.6	92.860	0.220	-0.650	0.460
2020/01/31 01:51:47.7	92.890	0.200	-0.600	0.450
2020/01/31 01:51:47.8	92.920	0.180	-0.540	0.450
2020/01/31 01:51:47.9	92.950	0.160	-0.490	0.450
2020/01/31 01:51:48.0	92.970	0.130	-0.430	0.460
2020/01/31 01:51:48.1	92.990	0.110	-0.370	0.480
2020/01/31 01:51:48.2	93.010	0.080	-0.320	0.490
2020/01/31 01:51:48.3	93.040	0.050	-0.270	0.520
2020/01/31 01:51:48.4	93.060	0.020	-0.220	0.540
2020/01/31 01:51:48.5	93.070	-0.000	-0.170	0.570
2020/01/31 01:51:48.6	93.090	-0.030	-0.120	0.600
2020/01/31 01:51:48.7	93.110	-0.060	-0.080	0.640
2020/01/31 01:51:48.8	93.120	-0.090	-0.040	0.680
2020/01/31 01:51:48.9	93.130	-0.120	-0.010	0.720
2020/01/31 01:51:49.0	93.150	-0.150	0.030	0.760
2020/01/31 01:51:49.1	93.160	-0.180	0.060	0.800
2020/01/31 01:51:49.2	93.170	-0.210	0.080	0.850
2020/01/31 01:51:49.3	93.180	-0.240	0.100	0.890
2020/01/31 01:51:49.4	93.190	-0.260	0.120	0.940
2020/01/31 01:51:49.5	93.190	-0.290	0.140	0.980
2020/01/31 01:51:49.6	93.200	-0.310	0.150	1.030
2020/01/31 01:51:49.7	93.200	-0.340	0.160	1.070
2020/01/31 01:51:49.8	93.200	-0.360	0.170	1.120
2020/01/31 01:51:49.9	93.190	-0.390	0.180	1.160
2020/01/31 01:51:50.0	93.170	-0.410	0.180	1.210
2020/01/31 01:51:50.1	93.170	-0.430	0.190	1.250
2020/01/31 01:51:50.2	93.160	-0.450	0.190	1.290
2020/01/31 01:51:50.3	93.150	-0.460	0.200	1.330
2020/01/31 01:51:50.4	93.130	-0.480	0.200	1.370
2020/01/31 01:51:50.5	93.120	-0.500	0.200	1.410
2020/01/31 01:51:50.6	93.100	-0.510	0.210	1.440
2020/01/31 01:51:50.7	93.080	-0.520	0.210	1.480
2020/01/31 01:51:50.8	93.060	-0.530	0.220	1.510
2020/01/31 01:51:50.9	93.040	-0.540	0.220	1.540
2020/01/31 01:51:51.0	93.020	-0.550	0.230	1.570
2020/01/31 01:51:51.1	92.990	-0.560	0.240	1.600
2020/01/31 01:51:51.2	92.970	-0.560	0.250	1.630
2020/01/31 01:51:51.3	92.940	-0.560	0.250	1.650
2020/01/31 01:51:51.4	92.910	-0.570	0.260	1.680
2020/01/31 01:51:51.5	92.880	-0.560	0.260	1.700
2020/01/31 01:51:51.6	92.850	-0.560	0.270	1.720
2020/01/31 01:51:51.7	92.810	-0.550	0.270	1.740
2020/01/31 01:51:51.8	92.780	-0.540	0.270	1.750
2020/01/31 01:51:51.9	92.750	-0.530	0.260	1.770
2020/01/31 01:51:52.0	92.710	-0.520	0.260	1.780
2020/01/31 01:51:52.1	92.680	-0.500	0.250	1.790
2020/01/31 01:51:52.2	92.650	-0.480	0.240	1.800
2020/01/31 01:51:52.3	92.620	-0.460	0.220	1.800
2020/01/31 01:51:52.4	92.590	-0.440	0.190	1.800
2020/01/31 01:51:52.5	92.560	-0.410	0.160	1.800
2020/01/31 01:51:52.6	92.540	-0.380	0.130	1.790
2020/01/31 01:51:52.7	92.510	-0.340	0.090	1.790
2020/01/31 01:51:52.8	92.490	-0.300	0.040	1.780
2020/01/31 01:51:52.9	92.470	-0.260	-0.010	1.760
2020/01/31 01:51:53.0	92.460	-0.220	-0.070	1.750
2020/01/31 01:51:53.1	92.450	-0.170	-0.140	1.730
2020/01/31 01:51:53.2	92.430	-0.120	-0.210	1.700
2020/01/31 01:51:53.3	92.420	-0.060	-0.280	1.670
2020/01/31 01:51:53.4	92.420	-0.010	-0.360	1.630
2020/01/31 01:51:53.5	92.410	0.050	-0.450	1.590
2020/01/31 01:51:53.6	92.410	0.110	-0.540	1.550
2020/01/31 01:51:53.7	92.410	0.170	-0.630	1.500
2020/01/31 01:51:53.8	92.420	0.230	-0.720	1.440
2020/01/31 01:51:53.9	92.430	0.290	-0.820	1.380
2020/01/31 01:51:54.0	92.450	0.350	-0.920	1.320
2020/01/31 01:51:54.1	92.470	0.420	-1.010	1.250
2020/01/31 01:51:54.2	92.480	0.480	-1.100	1.180
2020/01/31 01:51:54.3	92.510	0.540	-1.190	1.100
2020/01/31 01:51:54.4	92.530	0.590	-1.270	1.020
2020/01/31 01:51:54.5	92.560	0.650	-1.340	0.940
2020/01/31 01:51:54.6	92.580	0.700	-1.410	0.860
2020/01/31 01:51:54.7	92.610	0.740	-1.470	0.780
2020/01/31 01:51:54.8	92.640	0.790	-1.520	0.700
2020/01/31 01:51:54.9	92.670	0.830	-1.560	0.610
2020/01/31 01:51:55.0	92.700	0.860	-1.590	0.530
2020/01/31 01:51:55.1	92.720	0.890	-1.610	0.450
2020/01/31 01:51:55.2	92.750	0.910	-1.620	0.370
2020/01/31 01:51:55.3	92.770	0.930	-1.610	0.290
2020/01/31 01:51:55.4	92.800	0.940	-1.580	0.220
2020/01/31 01:51:55.5	92.820	0.950	-1.550	0.140
2020/01/31 01:51:55.6	92.840	0.950	-1.500	0.070
2020/01/31 01:51:55.7	92.860	0.940	-1.430	0.010
2020/01/31 01:51:55.8	92.870	0.920	-1.360	-0.060
2020/01/31 01:51:55.9	92.890	0.910	-1.270	-0.120
2020/01/31 01:51:56.0	92.900	0.880	-1.160	-0.170
2020/01/31 01:51:56.1	92.910	0.850	-1.050	-0.220
2020/01/31 01:51:56.2	92.920	0.810	-0.920	-0.270
2020/01/31 01:51:56.3	92.920	0.770	-0.780	-0.310
2020/01/31 01:51:56.4	92.930	0.720	-0.640	-0.340
2020/01/31 01:51:56.5	92.930	0.670	-0.480	-0.370
2020/01/31 01:51:56.6	92.940	0.610	-0.320	-0.390
2020/01/31 01:51:56.7	92.930	0.550	-0.160	-0.410
2020/01/31 01:51:56.8	92.930	0.480	0.010	-0.430
2020/01/31 01:51:56.9	92.930	0.410	0.180	-0.440
2020/01/31 01:51:57.0	92.910	0.340	0.360	-0.440
2020/01/31 01:51:57.1	92.900	0.270	0.530	-0.440
2020/01/31 01:51:57.2	92.900	0.190	0.700	-0.440
2020/01/31 01:51:57.3	92.890	0.120	0.870	-0.430
2020/01/31 01:51:57.4	92.880	0.040	1.020	-0.420
2020/01/31 01:51:57.5	92.880	-0.030	1.170	-0.400
2020/01/31 01:51:57.6	92.870	-0.110	1.320	-0.380
2020/01/31 01:51:57.7	92.870	-0.180	1.450	-0.360
2020/01/31 01:51:57.8	92.860	-0.250	1.570	-0.330
2020/01/31 01:51:57.9	92.850	-0.320	1.680	-0.300
2020/01/31 01:51:58.0	92.850	-0.380	1.770	-0.270
2020/01/31 01:51:58.1	92.850	-0.440	1.850	-0.240
2020/01/31 01:51:58.2	92.850	-0.500	1.910	-0.210
2020/01/31 01:51:58.3	92.850	-0.550	1.960	-0.170
2020/01/31 01:51:58.4	92.850	-0.600	1.990	-0.140
2020/01/31 01:51:58.5	92.850	-0.640	2.000	-0.100
2020/01/31 01:51:58.6	92.850	-0.680	2.000	-0.060
2020/01/31 01:51:58.7	92.860	-0.710	1.970	-0.020
2020/01/31 01:51:58.8	92.860	-0.730	1.940	0.020
2020/01/31 01:51:58.9	92.870	-0.750	1.880	0.060
2020/01/31 01:51:59.0	92.880	-0.760	1.810	0.100
2020/01/31 01:51:59.1	92.890	-0.760	1.720	0.140
2020/01/31 01:51:59.2	92.900	-0.760	1.620	0.170
2020/01/31 01:51:59.3	92.910	-0.750	1.510	0.210
2020/01/31 01:51:59.4	92.930	-0.740	1.380	0.240
2020/01/31 01:51:59.5	92.940	-0.720	1.240	0.270
2020/01/31 01:51:59.6	92.960	-0.700	1.100	0.310
2020/01/31 01:51:59.7	92.980	-0.670	0.940	0.340
2020/01/31 01:51:59.8	93.000	-0.640	0.780	0.370
2020/01/31 01:51:59.9	93.010	-0.610	0.610	0.400
2020/01/31 01:52:00.0	93.050	-0.570	0.440	0.430
2020/01/31 01:52:00.1	93.060	-0.520	0.260	0.460
2020/01/31 01:52:00.2	93.080	-0.480	0.090	0.490
2020/01/31 01:52:00.3	93.100	-0.430	-0.090	0.510
2020/01/31 01:52:00.4	93.120	-0.380	-0.260	0.540
2020/01/31 01:52:00.5	93.130	-0.330	-0.430	0.570
2020/01/31 01:52:00.6	93.150	-0.280	-0.600	0.610
2020/01/31 01:52:00.7	93.160	-0.230	-0.760	0.640
2020/01/31 01:52:00.8	93.180	-0.180	-0.910	0.670
2020/01/31 01:52:00.9	93.190	-0.130	-1.050	0.710
2020/01/31 01:52:01.0	93.190	-0.080	-1.190	0.750
2020/01/31 01:52:01.1	93.190	-0.040	-1.310	0.780
2020/01/31 01:52:01.2	93.200	0.010	-1.420	0.820
2020/01/31 01:52:01.3	93.210	0.050	-1.520	0.870
2020/01/31 01:52:01.4	93.210	0.090	-1.600	0.910
2020/01/31 01:52:01.5	93.210	0.120	-1.680	0.960
2020/01/31 01:52:01.6	93.210	0.160	-1.730	1.010
2020/01/31 01:52:01.7	93.210	0.190	-1.770	1.060
2020/01/31 01:52:01.8	93.210	0.210	-1.800	1.120
2020/01/31 01:52:01.9	93.210	0.240	-1.820	1.170
2020/01/31 01:52:02.0	93.210	0.260	-1.810	1.230
2020/01/31 01:52:02.1	93.200	0.270	-1.800	1.290
2020/01/31 01:52:02.2	93.190	0.290	-1.770	1.360
2020/01/31 01:52:02.3	93.190	0.290	-1.740	1.420
2020/01/31 01:52:02.4	93.180	0.300	-1.690	1.480
2020/01/31 01:52:02.5	93.170	0.310	-1.630	1.550
2020/01/31 01:52:02.6	93.160	0.310	-1.560	1.610
2020/01/31 01:52:02.7	93.150	0.300	-1.480	1.680
2020/01/31 01:52:02.8	93.140	0.300	-1.400	1.740
2020/01/31 01:52:02.9	93.130	0.290	-1.310	1.800
2020/01/31 01:52:03.0	93.130	0.290	-1.210	1.870
2020/01/31 01:52:03.1	93.110	0.280	-1.110	1.930
2020/01/31 01:52:03.2	93.100	0.270	-1.010	1.980
2020/01/31 01:52:03.3	93.080	0.260	-0.900	2.040
2020/01/31 01:52:03.4	93.070	0.240	-0.800	2.090
2020/01/31 01:52:03.5	93.050	0.230	-0.700	2.140
2020/01/31 01:52:03.6	93.030	0.220	-0.590	2.180
2020/01/31 01:52:03.7	93.010	0.210	-0.500	2.220
2020/01/31 01:52:03.8	93.000	0.200	-0.400	2.260
2020/01/31 01:52:03.9	92.970	0.180	-0.310	2.290
2020/01/31 01:52:04.0	92.970	0.170	-0.220	2.320
2020/01/31 01:52:04.1	92.950	0.160	-0.140	2.340
2020/01/31 01:52:04.2	92.920	0.160	-0.070	2.360
2020/01/31 01:52:04.3	92.900	0.150	0.000	2.370
2020/01/31 01:52:04.4	92.880	0.140	0.060	2.380
2020/01/31 01:52:04.5	92.860	0.140	0.120	2.380
2020/01/31 01:52:04.6	92.830	0.130	0.170	2.380
2020/01/31 01:52:04.7	92.810	0.130	0.210	2.370
2020/01/31 01:52:04.8	92.790	0.130	0.240	2.360
2020/01/31 01:52:04.9	92.770	0.130	0.270	2.340
2020/01/31 01:52:05.0	92.750	0.140	0.290	2.310
2020/01/31 01:52:05.1	92.730	0.140	0.300	2.280
2020/01/31 01:52:05.2	92.710	0.150	0.310	2.250
2020/01/31 01:52:05.3	92.700	0.150	0.320	2.210
2020/01/31 01:52:05.4	92.680	0.160	0.320	2.170
2020/01/31 01:52:05.5	92.670	0.170	0.310	2.120
2020/01/31 01:52:05.6	92.660	0.180	0.300	2.070
2020/01/31 01:52:05.7	92.640	0.190	0.290	2.020
2020/01/31 01:52:05.8	92.640	0.200	0.280	1.960
2020/01/31 01:52:05.9	92.630	0.210	0.260	1.900
2020/01/31 01:52:06.0	92.610	0.220	0.240	1.840
2020/01/31 01:52:06.1	92.600	0.230	0.220	1.780
2020/01/31 01:52:06.2	92.590	0.230	0.210	1.710
2020/01/31 01:52:06.3	92.590	0.240	0.190	1.650
2020/01/31 01:52:06.4	92.580	0.240	0.170	1.580
2020/01/31 01:52:06.5	92.580	0.250	0.160	1.520
2020/01/31 01:52:06.6	92.570	0.250	0.140	1.450
2020/01/31 01:52:06.7	92.570	0.250	0.130	1.380
2020/01/31 01:52:06.8	92.560	0.250	0.120	1.320
2020/01/31 01:52:06.9	92.560	0.240	0.110	1.250
2020/01/31 01:52:07.0	92.550	0.230	0.110	1.180
2020/01/31 01:52:07.1	92.550	0.220	0.100	1.110
2020/01/31 01:52:07.2	92.550	0.210	0.090	1.040
2020/01/31 01:52:07.3	92.550	0.200	0.090	0.970
2020/01/31 01:52:07.4	92.550	0.180	0.090	0.900
2020/01/31 01:52:07.5	92.560	0.160	0.090	0.820
2020/01/31 01:52:07.6	92.570	0.140	0.090	0.750
2020/01/31 01:52:07.7	92.570	0.110	0.100	0.680
2020/01/31 01:52:07.8	92.590	0.090	0.100	0.600
2020/01/31 01:52:07.9	92.600	0.060	0.110	0.520
2020/01/31 01:52:08.0	92.610	0.030	0.110	0.440
2020/01/31 01:52:08.1	92.630	0.000	0.110	0.370
2020/01/31 01:52:08.2	92.650	-0.030	0.120	0.290
2020/01/31 01:52:08.3	92.670	-0.060	0.130	0.210
2020/01/31 01:52:08.4	92.700	-0.090	0.130	0.130
2020/01/31 01:52:08.5	92.720	-0.120	0.140	0.050
2020/01/31 01:52:08.6	92.750	-0.160	0.140	-0.020
2020/01/31 01:52:08.7	92.780	-0.190	0.150	-0.100
2020/01/31 01:52:08.8	92.820	-0.220	0.150	-0.170
2020/01/31 01:52:08.9	92.850	-0.250	0.160	-0.240
2020/01/31 01:52:09.0	92.870	-0.270	0.160	-0.310
2020/01/31 01:52:09.1	92.910	-0.300	0.160	-0.370
2020/01/31 01:52:09.2	92.940	-0.320	0.160	-0.430
2020/01/31 01:52:09.3	92.980	-0.350	0.160	-0.490
2020/01/31 01:52:09.4	93.010	-0.370	0.160	-0.540
2020/01/31 01:52:09.5	93.050	-0.380	0.160	-0.590
2020/01/31 01:52:09.6	93.080	-0.400	0.160	-0.630
2020/01/31 01:52:09.7	93.110	-0.410	0.150	-0.660
2020/01/31 01:52:09.8	93.140	-0.420	0.140	-0.700
2020/01/31 01:52:09.9	93.170	-0.420	0.140	-0.720
2020/01/31 01:52:10.0	93.190	-0.430	0.120	-0.740
2020/01/31 01:52:10.1	93.210	-0.430	0.110	-0.750
2020/01/31 01:52:10.2	93.230	-0.420	0.100	-0.760
2020/01/31 01:52:10.3	93.250	-0.420	0.090	-0.760
2020/01/31 01:52:10.4	93.260	-0.410	0.070	-0.750
2020/01/31 01:52:10.5	93.280	-0.400	0.060	-0.740
2020/01/31 01:52:10.6	93.280	-0.390	0.040	-0.730
2020/01/31 01:52:10.7	93.290	-0.380	0.020	-0.700
2020/01/31 01:52:10.8	93.290	-0.360	-0.000	-0.670
2020/01/31 01:52:10.9	93.300	-0.340	-0.020	-0.640
2020/01/31 01:52:11.0	93.310	-0.320	-0.050	-0.600
2020/01/31 01:52:11.1	93.300	-0.300	-0.070	-0.550
2020/01/31 01:52:11.2	93.300	-0.280	-0.100	-0.510
2020/01/31 01:52:11.3	93.290	-0.260	-0.120	-0.460
2020/01/31 01:52:11.4	93.280	-0.230	-0.150	-0.400
2020/01/31 01:52:11.5	93.270	-0.210	-0.180	-0.340
2020/01/31 01:52:11.6	93.250	-0.180	-0.210	-0.280
2020/01/31 01:52:11.7	93.240	-0.160	-0.240	-0.220
2020/01/31 01:52:11.8	93.220	-0.130	-0.270	-0.150
2020/01/31 01:52:11.9	93.200	-0.110	-0.310	-0.080
2020/01/31 01:52:12.0	93.180	-0.090	-0.340	-0.010
2020/01/31 01:52:12.1	93.170	-0.060	-0.370	0.060
2020/01/31 01:52:12.2	93.150	-0.040	-0.410	0.130
2020/01/31 01:52:12.3	93.130	-0.020	-0.440	0.200
2020/01/31 01:52:12.4	93.110	0.010	-0.480	0.280
2020/01/31 01:52:12.5	93.100	0.030	-0.510	0.350
2020/01/31 01:52:12.6	93.080	0.050	-0.540	0.420
2020/01/31 01:52:12.7	93.060	0.070	-0.580	0.490
2020/01/31 01:52:12.8	93.050	0.080	-0.610	0.560
2020/01/31 01:52:12.9	93.030	0.100	-0.640	0.630
2020/01/31 01:52:13.0	93.030	0.120	-0.670	0.710
2020/01/31 01:52:13.1	93.010	0.130	-0.700	0.770
2020/01/31 01:52:13.2	93.000	0.150	-0.730	0.840
2020/01/31 01:52:13.3	92.990	0.160	-0.750	0.910
2020/01/31 01:52:13.4	92.980	0.170	-0.770	0.970
2020/01/31 01:52:13.5	92.980	0.180	-0.790	1.030
2020/01/31 01:52:13.6	92.970	0.190	-0.810	1.090
2020/01/31 01:52:13.7	92.960	0.200	-0.820	1.150
2020/01/31 01:52:13.8	92.960	0.210	-0.830	1.210
2020/01/31 01:52:13.9	92.960	0.220	-0.830	1.260
2020/01/31 01:52:14.0	92.970	0.220	-0.830	1.320
2020/01/31 01:52:14.1	92.970	0.230	-0.820	1.370
2020/01/31 01:52:14.2	92.970	0.230	-0.810	1.420
2020/01/31 01:52:14.3	92.970	0.240	-0.790	1.470
2020/01/31 01:52:14.4	92.970	0.240	-0.770	1.510
2020/01/31 01:52:14.5	92.980	0.240	-0.740	1.550
2020/01/31 01:52:14.6	92.980	0.240	-0.710	1.590
2020/01/31 01:52:14.7	92.990	0.240	-0.670	1.630
2020/01/31 01:52:14.8	93.000	0.240	-0.630	1.670
2020/01/31 01:52:14.9	93.010	0.240	-0.590	1.700
2020/01/31 01:52:15.0	93.030	0.240	-0.530	1.740
2020/01/31 01:52:15.1	93.040	0.230	-0.480	1.770
2020/01/31 01:52:15.2	93.050	0.230	-0.420	1.790
2020/01/31 01:52:15.3	93.060	0.220	-0.360	1.810
2020/01/31 01:52:15.4	93.080	0.220	-0.300	1.840
2020/01/31 01:52:15.5	93.090	0.210	-0.240	1.850
2020/01/31 01:52:15.6	93.100	0.200	-0.180	1.870
2020/01/31 01:52:15.7	93.120	0.200	-0.110	1.880
2020/01/31 01:52:15.8	93.130	0.190	-0.050	1.890
2020/01/31 01:52:15.9	93.150	0.180	0.010	1.890
2020/01/31 01:52:16.0	93.180	0.170	0.080	1.890
2020/01/31 01:52:16.1	93.190	0.160	0.130	1.890
2020/01/31 01:52:16.2	93.210	0.150	0.190	1.890
2020/01/31 01:52:16.3	93.220	0.140	0.240	1.880
2020/01/31 01:52:16.4	93.230	0.130	0.290	1.870
2020/01/31 01:52:16.5	93.240	0.120	0.340	1.850
2020/01/31 01:52:16.6	93.250	0.110	0.380	1.840
2020/01/31 01:52:16.7	93.260	0.100	0.420	1.820
2020/01/31 01:52:16.8	93.270	0.090	0.450	1.790
2020/01/31 01:52:16.9	93.270	0.080	0.480	1.770
2020/01/31 01:52:17.0	93.290	0.070	0.490	1.750
2020/01/31 01:52:17.1	93.300	0.070	0.510	1.720
2020/01/31 01:52:17.2	93.300	0.060	0.520	1.690
2020/01/31 01:52:17.3	93.300	0.050	0.530	1.660
2020/01/31 01:52:17.4	93.290	0.050	0.520	1.630
2020/01/31 01:52:17.5	93.290	0.040	0.520	1.600
2020/01/31 01:52:17.6	93.290	0.030	0.510	1.570
2020/01/31 01:52:17.7	93.280	0.030	0.490	1.530
2020/01/31 01:52:17.8	93.270	0.030	0.470	1.500
2020/01/31 01:52:17.9	93.260	0.020	0.440	1.470
2020/01/31 01:52:18.0	93.260	0.020	0.410	1.430
2020/01/31 01:52:18.1	93.250	0.020	0.370	1.400
2020/01/31 01:52:18.2	93.240	0.020	0.330	1.360
2020/01/31 01:52:18.3	93.220	0.020	0.290	1.330
2020/01/31 01:52:18.4	93.210	0.020	0.240	1.290
2020/01/31 01:52:18.5	93.200	0.020	0.190	1.260
2020/01/31 01:52:18.6	93.190	0.020	0.140	1.230
2020/01/31 01:52:18.7	93.170	0.020	0.080	1.190
2020/01/31 01:52:18.8	93.160	0.020	0.030	1.160
2020/01/31 01:52:18.9	93.160	0.030	-0.030	1.120
2020/01/31 01:52:19.0	93.150	0.030	-0.090	1.090
2020/01/31 01:52:19.1	93.140	0.030	-0.140	1.050
2020/01/31 01:52:19.2	93.140	0.040	-0.200	1.020
2020/01/31 01:52:19.3	93.140	0.040	-0.250	0.980
2020/01/31 01:52:19.4	93.140	0.050	-0.300	0.950
2020/01/31 01:52:19.5	93.140	0.050	-0.340	0.910
2020/01/31 01:52:19.6	93.140	0.050	-0.390	0.870
2020/01/31 01:52:19.7	93.150	0.060	-0.430	0.840
2020/01/31 01:52:19.8	93.160	0.060	-0.460	0.800
2020/01/31 01:52:19.9	93.170	0.060	-0.490	0.770
2020/01/31 01:52:20.0	93.160	0.070	-0.520	0.730
2020/01/31 01:52:20.1	93.170	0.070	-0.550	0.690
2020/01/31 01:52:20.2	93.190	0.070	-0.560	0.660
2020/01/31 01:52:20.3	93.210	0.070	-0.580	0.620
2020/01/31 01:52:20.4	93.230	0.070	-0.580	0.590
2020/01/31 01:52:20.5	93.250	0.070	-0.590	0.550
2020/01/31 01:52:20.6	93.270	0.070	-0.590	0.520
2020/01/31 01:52:20.7	93.290	0.070	-0.580	0.480
2020/01/31 01:52:20.8	93.320	0.070	-0.570	0.450
2020/01/31 01:52:20.9	93.350	0.070	-0.560	0.410
2020/01/31 01:52:21.0	93.380	0.070	-0.540	0.380
2020/01/31 01:52:21.1	93.410	0.070	-0.520	0.340
2020/01/31 01:52:21.2	93.430	0.060	-0.490	0.300
2020/01/31 01:52:21.3	93.460	0.060	-0.460	0.270
2020/01/31 01:52:21.4	93.500	0.050	-0.430	0.230
2020/01/31 01:52:21.5	93.530	0.050	-0.400	0.200
2020/01/31 01:52:21.6	93.560	0.040	-0.370	0.160
2020/01/31 01:52:21.7	93.590	0.040	-0.330	0.130
2020/01/31 01:52:21.8	93.620	0.030	-0.290	0.090
2020/01/31 01:52:21.9	93.650	0.020	-0.250	0.060
2020/01/31 01:52:22.0	93.670	0.020	-0.210	0.030
2020/01/31 01:52:22.1	93.700	0.010	-0.180	-0.000
2020/01/31 01:52:22.2	93.730	0.000	-0.140	-0.030
2020/01/31 01:52:22.3	93.760	-0.000	-0.100	-0.060
2020/01/31 01:52:22.4	93.790	-0.010	-0.060	-0.080
2020/01/31 01:52:22.5	93.810	-0.020	-0.030	-0.100
2020/01/31 01:52:22.6	93.830	-0.020	0.010	-0.120
2020/01/31 01:52:22.7	93.850	-0.030	0.040	-0.140
2020/01/31 01:52:22.8	93.870	-0.040	0.070	-0.150
2020/01/31 01:52:22.9	93.890	-0.040	0.100	-0.150
2020/01/31 01:52:23.0	93.890	-0.050	0.120	-0.160
2020/01/31 01:52:23.1	93.900	-0.050	0.150	-0.160
2020/01/31 01:52:23.2	93.910	-0.050	0.170	-0.150
2020/01/31 01:52:23.3	93.910	-0.060	0.190	-0.140
2020/01/31 01:52:23.4	93.910	-0.060	0.200	-0.130
2020/01/31 01:52:23.5	93.910	-0.060	0.210	-0.110
2020/01/31 01:52:23.6	93.910	-0.070	0.220	-0.090
2020/01/31 01:52:23.7	93.910	-0.070	0.230	-0.070
2020/01/31 01:52:23.8	93.900	-0.070	0.230	-0.040
2020/01/31 01:52:23.9	93.890	-0.070	0.240	-0.010
2020/01/31 01:52:24.0	93.890	-0.070	0.230	0.030
2020/01/31 01:52:24.1	93.880	-0.070	0.230	0.060
2020/01/31 01:52:24.2	93.870	-0.070	0.220	0.100
2020/01/31 01:52:24.3	93.850	-0.070	0.210	0.140
2020/01/31 01:52:24.4	93.840	-0.070	0.200	0.180
2020/01/31 01:52:24.5	93.830	-0.070	0.190	0.220
2020/01/31 01:52:24.6	93.820	-0.070	0.170	0.260
2020/01/31 01:52:24.7	93.800	-0.070	0.150	0.310
2020/01/31 01:52:24.8	93.790	-0.060	0.130	0.350
2020/01/31 01:52:24.9	93.770	-0.060	0.110	0.400
2020/01/31 01:52:25.0	93.770	-0.060	0.090	0.450
2020/01/31 01:52:25.1	93.760	-0.060	0.070	0.500
2020/01/31 01:52:25.2	93.740	-0.060	0.040	0.560
2020/01/31 01:52:25.3	93.730	-0.060	0.020	0.610
2020/01/31 01:52:25.4	93.710	-0.060	-0.000	0.670
2020/01/31 01:52:25.5	93.700	-0.060	-0.030	0.730
2020/01/31 01:52:25.6	93.680	-0.060	-0.050	0.780
2020/01/31 01:52:25.7	93.670	-0.060	-0.070	0.840
2020/01/31 01:52:25.8	93.660	-0.060	-0.100	0.900
2020/01/31 01:52:25.9	93.650	-0.060	-0.120	0.950
2020/01/31 01:52:26.0	93.640	-0.060	-0.140	1.020
2020/01/31 01:52:26.1	93.630	-0.060	-0.170	1.070
2020/01/31 01:52:26.2	93.630	-0.060	-0.190	1.120
2020/01/31 01:52:26.3	93.620	-0.070	-0.210	1.170
2020/01/31 01:52:26.4	93.620	-0.070	-0.240	1.210
2020/01/31 01:52:26.5	93.620	-0.070	-0.260	1.250
2020/01/31 01:52:26.6	93.630	-0.070	-0.290	1.290
2020/01/31 01:52:26.7	93.630	-0.080	-0.310	1.330
2020/01/31 01:52:26.8	93.640	-0.080	-0.340	1.360
2020/01/31 01:52:26.9	93.650	-0.080	-0.360	1.390
2020/01/31 01:52:27.0	93.660	-0.080	-0.390	1.410
2020/01/31 01:52:27.1	93.670	-0.090	-0.410	1.430
2020/01/31 01:52:27.2	93.680	-0.090	-0.440	1.450
2020/01/31 01:52:27.3	93.700	-0.090	-0.460	1.470
2020/01/31 01:52:27.4	93.720	-0.090	-0.490	1.480
2020/01/31 01:52:27.5	93.730	-0.090	-0.510	1.490
2020/01/31 01:52:27.6	93.750	-0.090	-0.530	1.500
2020/01/31 01:52:27.7	93.770	-0.090	-0.560	1.500
2020/01/31 01:52:27.8	93.790	-0.090	-0.580	1.510
2020/01/31 01:52:27.9	93.810	-0.090	-0.600	1.510
2020/01/31 01:52:28.0	93.830	-0.080	-0.620	1.520
2020/01/31 01:52:28.1	93.840	-0.080	-0.640	1.520
2020/01/31 01:52:28.2	93.860	-0.080	-0.650	1.520
2020/01/31 01:52:28.3	93.880	-0.070	-0.670	1.520
2020/01/31 01:52:28.4	93.890	-0.070	-0.680	1.530
2020/01/31 01:52:28.5	93.910	-0.060	-0.690	1.530
2020/01/31 01:52:28.6	93.920	-0.060	-0.700	1.530
2020/01/31 01:52:28.7	93.930	-0.050	-0.700	1.530
2020/01/31 01:52:28.8	93.950	-0.050	-0.710	1.530
2020/01/31 01:52:28.9	93.960	-0.040	-0.710	1.530
2020/01/31 01:52:29.0	93.990	-0.040	-0.700	1.530
2020/01/31 01:52:29.1	94.000	-0.030	-0.700	1.530
2020/01/31 01:52:29.2	94.010	-0.020	-0.690	1.530
2020/01/31 01:52:29.3	94.020	-0.020	-0.680	1.530
2020/01/31 01:52:29.4	94.030	-0.010	-0.660	1.520
2020/01/31 01:52:29.5	94.040	-0.010	-0.650	1.520
2020/01/31 01:52:29.6	94.050	-0.000	-0.630	1.520
2020/01/31 01:52:29.7	94.050	0.000	-0.600	1.520
2020/01/31 01:52:29.8	94.060	0.010	-0.580	1.510
2020/01/31 01:52:29.9	94.060	0.010	-0.550	1.510
2020/01/31 01:52:30.0	94.050	0.010	-0.520	1.500
2020/01/31 01:52:30.1	94.050	0.010	-0.480	1.500
2020/01/31 01:52:30.2	94.050	0.010	-0.440	1.490
2020/01/31 01:52:30.3	94.060	0.010	-0.400	1.480
2020/01/31 01:52:30.4	94.060	0.010	-0.360	1.480
2020/01/31 01:52:30.5	94.060	0.010	-0.320	1.470
2020/01/31 01:52:30.6	94.060	0.010	-0.270	1.450
2020/01/31 01:52:30.7	94.060	0.010	-0.220	1.440
2020/01/31 01:52:30.8	94.060	0.010	-0.170	1.430
2020/01/31 01:52:30.9	94.050	0.000	-0.120	1.410
2020/01/31 01:52:31.0	94.060	-0.000	-0.060	1.390
2020/01/31 01:52:31.1	94.060	-0.010	-0.010	1.380
2020/01/31 01:52:31.2	94.060	-0.010	0.050	1.350
2020/01/31 01:52:31.3	94.060	-0.020	0.100	1.330
2020/01/31 01:52:31.4	94.060	-0.020	0.160	1.310
2020/01/31 01:52:31.5	94.060	-0.030	0.210	1.280
2020/01/31 01:52:31.6	94.060	-0.030	0.270	1.260
2020/01/31 01:52:31.7	94.060	-0.040	0.320	1.230
2020/01/31 01:52:31.8	94.060	-0.050	0.370	1.200
2020/01/31 01:52:31.9	94.060	-0.050	0.420	1.170
2020/01/31 01:52:32.0	94.050	-0.060	0.460	1.140
2020/01/31 01:52:32.1	94.050	-0.060	0.510	1.100
2020/01/31 01:52:32.2	94.050	-0.070	0.540	1.070
2020/01/31 01:52:32.3	94.050	-0.070	0.580	1.030
2020/01/31 01:52:32.4	94.050	-0.070	0.610	1.000
2020/01/31 01:52:32.5	94.050	-0.080	0.640	0.960
2020/01/31 01:52:32.6	94.040	-0.080	0.660	0.920
2020/01/31 01:52:32.7	94.040	-0.080	0.680	0.880
2020/01/31 01:52:32.8	94.040	-0.080	0.690	0.840
2020/01/31 01:52:32.9	94.040	-0.080	0.700	0.800
2020/01/31 01:52:33.0	94.020	-0.080	0.700	0.760
2020/01/31 01:52:33.1	94.020	-0.080	0.690	0.720
2020/01/31 01:52:33.2	94.020	-0.070	0.690	0.670
2020/01/31 01:52:33.3	94.010	-0.070	0.680	0.630
2020/01/31 01:52:33.4	94.010	-0.060	0.660	0.590
2020/01/31 01:52:33.5	94.000	-0.060	0.640	0.540
2020/01/31 01:52:33.6	94.000	-0.050	0.610	0.500
2020/01/31 01:52:33.7	94.000	-0.040	0.580	0.450
2020/01/31 01:52:33.8	94.000	-0.030	0.540	0.400
2020/01/31 01:52:33.9	93.990	-0.020	0.500	0.360
2020/01/31 01:52:34.0	93.990	-0.010	0.460	0.310
2020/01/31 01:52:34.1	93.990	0.010	0.410	0.260
2020/01/31 01:52:34.2	93.980	0.020	0.360	0.220
2020/01/31 01:52:34.3	93.980	0.040	0.300	0.170
2020/01/31 01:52:34.4	93.990	0.050	0.240	0.130
2020/01/31 01:52:34.5	93.990	0.070	0.180	0.080
2020/01/31 01:52:34.6	93.990	0.080	0.110	0.040
2020/01/31 01:52:34.7	93.990	0.100	0.040	-0.000
2020/01/31 01:52:34.8	94.000	0.120	-0.020	-0.050
2020/01/31 01:52:34.9	94.000	0.140	-0.100	-0.090
2020/01/31 01:52:35.0	94.000	0.150	-0.170	-0.130
2020/01/31 01:52:35.1	94.000	0.170	-0.240	-0.170
2020/01/31 01:52:35.2	94.010	0.190	-0.320	-0.200
2020/01/31 01:52:35.3	94.020	0.200	-0.390	-0.240
2020/01/31 01:52:35.4	94.030	0.220	-0.460	-0.270
2020/01/31 01:52:35.5	94.040	0.240	-0.530	-0.310
2020/01/31 01:52:35.6	94.050	0.250	-0.600	-0.340
2020/01/31 01:52:35.7	94.060	0.270	-0.670	-0.370
2020/01/31 01:52:35.8	94.080	0.280	-0.730	-0.400
2020/01/31 01:52:35.9	94.090	0.290	-0.790	-0.420
2020/01/31 01:52:36.0	94.110	0.300	-0.850	-0.440
2020/01/31 01:52:36.1	94.120	0.310	-0.900	-0.460
2020/01/31 01:52:36.2	94.130	0.320	-0.950	-0.480
2020/01/31 01:52:36.3	94.150	0.330	-1.000	-0.490
2020/01/31 01:52:36.4	94.160	0.330	-1.030	-0.510
2020/01/31 01:52:36.5	94.170	0.330	-1.070	-0.510
2020/01/31 01:52:36.6	94.180	0.330	-1.090	-0.520
2020/01/31 01:52:36.7	94.200	0.330	-1.120	-0.520
2020/01/31 01:52:36.8	94.210	0.330	-1.130	-0.520
2020/01/31 01:52:36.9	94.220	0.320	-1.130	-0.510
2020/01/31 01:52:37.0	94.240	0.320	-1.130	-0.500
2020/01/31 01:52:37.1	94.250	0.310	-1.120	-0.480
2020/01/31 01:52:37.2	94.260	0.300	-1.100	-0.460
2020/01/31 01:52:37.3	94.270	0.280	-1.080	-0.440
2020/01/31 01:52:37.4	94.280	0.270	-1.050	-0.410
2020/01/31 01:52:37.5	94.290	0.250	-1.010	-0.370
2020/01/31 01:52:37.6	94.300	0.230	-0.960	-0.330
2020/01/31 01:52:37.7	94.310	0.210	-0.900	-0.290
2020/01/31 01:52:37.8	94.320	0.180	-0.840	-0.240
2020/01/31 01:52:37.9	94.320	0.160	-0.770	-0.180
2020/01/31 01:52:38.0	94.340	0.130	-0.700	-0.120
2020/01/31 01:52:38.1	94.340	0.100	-0.620	-0.060
2020/01/31 01:52:38.2	94.350	0.070	-0.540	0.000
2020/01/31 01:52:38.3	94.350	0.040	-0.460	0.070
2020/01/31 01:52:38.4	94.350	0.010	-0.370	0.140
2020/01/31 01:52:38.5	94.360	-0.020	-0.280	0.210
2020/01/31 01:52:38.6	94.360	-0.050	-0.190	0.290
2020/01/31 01:52:38.7	94.360	-0.080	-0.100	0.370
2020/01/31 01:52:38.8	94.360	-0.110	-0.010	0.450
2020/01/31 01:52:38.9	94.360	-0.140	0.070	0.530
2020/01/31 01:52:39.0	94.350	-0.170	0.160	0.610
2020/01/31 01:52:39.1	94.350	-0.200	0.240	0.700
2020/01/31 01:52:39.2	94.350	-0.220	0.310	0.780
2020/01/31 01:52:39.3	94.350	-0.250	0.380	0.860
2020/01/31 01:52:39.4	94.340	-0.270	0.450	0.940
2020/01/31 01:52:39.5	94.340	-0.290	0.510	1.020
2020/01/31 01:52:39.6	94.330	-0.310	0.560	1.100
2020/01/31 01:52:39.7	94.330	-0.330	0.600	1.180
2020/01/31 01:52:39.8	94.330	-0.350	0.640	1.250
2020/01/31 01:52:39.9	94.330	-0.360	0.670	1.320
2020/01/31 01:52:40.0	94.320	-0.370	0.690	1.390
2020/01/31 01:52:40.1	94.320	-0.380	0.710	1.460
2020/01/31 01:52:40.2	94.320	-0.380	0.710	1.520
2020/01/31 01:52:40.3	94.320	-0.390	0.710	1.580
2020/01/31 01:52:40.4	94.320	-0.390	0.690	1.640
2020/01/31 01:52:40.5	94.320	-0.390	0.670	1.690
2020/01/31 01:52:40.6	94.320	-0.380	0.640	1.740
2020/01/31 01:52:40.7	94.320	-0.380	0.610	1.790
2020/01/31 01:52:40.8	94.320	-0.370	0.570	1.830
2020/01/31 01:52:40.9	94.320	-0.360	0.520	1.870
2020/01/31 01:52:41.0	94.330	-0.350	0.460	1.920
2020/01/31 01:52:41.1	94.330	-0.330	0.400	1.950
2020/01/31 01:52:41.2	94.330	-0.320	0.340	1.990
2020/01/31 01:52:41.3	94.330	-0.300	0.270	2.020
2020/01/31 01:52:41.4	94.320	-0.280	0.200	2.050
2020/01/31 01:52:41.5	94.320	-0.270	0.130	2.080
2020/01/31 01:52:41.6	94.320	-0.250	0.050	2.110
2020/01/31 01:52:41.7	94.310	-0.230	-0.030	2.130
2020/01/31 01:52:41.8	94.310	-0.210	-0.100	2.160
2020/01/31 01:52:41.9	94.300	-0.190	-0.170	2.180
2020/01/31 01:52:42.0	94.310	-0.170	-0.250	2.200
2020/01/31 01:52:42.1	94.310	-0.150	-0.320	2.220
2020/01/31 01:52:42.2	94.300	-0.130	-0.390	2.230
2020/01/31 01:52:42.3	94.290	-0.110	-0.450	2.240
2020/01/31 01:52:42.4	94.280	-0.100	-0.510	2.260
2020/01/31 01:52:42.5	94.270	-0.080	-0.560	2.260
2020/01/31 01:52:42.6	94.260	-0.070	-0.600	2.270
2020/01/31 01:52:42.7	94.250	-0.050	-0.640	2.270
2020/01/31 01:52:42.8	94.240	-0.040	-0.680	2.270
2020/01/31 01:52:42.9	94.230	-0.030	-0.710	2.270
2020/01/31 01:52:43.0	94.230	-0.030	-0.730	2.260
2020/01/31 01:52:43.1	94.220	-0.020	-0.740	2.250
2020/01/31 01:52:43.2	94.220	-0.020	-0.740	2.240
2020/01/31 01:52:43.3	94.210	-0.010	-0.740	2.220
2020/01/31 01:52:43.4	94.210	-0.010	-0.730	2.200
2020/01/31 01:52:43.5	94.200	-0.010	-0.710	2.170
2020/01/31 01:52:43.6	94.200	-0.020	-0.690	2.150
2020/01/31 01:52:43.7	94.200	-0.020	-0.650	2.120
2020/01/31 01:52:43.8	94.200	-0.030	-0.620	2.080
2020/01/31 01:52:43.9	94.200	-0.040	-0.570	2.040
2020/01/31 01:52:44.0	94.210	-0.050	-0.520	2.000
2020/01/31 01:52:44.1	94.210	-0.060	-0.460	1.960
2020/01/31 01:52:44.2	94.210	-0.080	-0.400	1.910
2020/01/31 01:52:44.3	94.220	-0.090	-0.340	1.870
2020/01/31 01:52:44.4	94.220	-0.110	-0.270	1.810
2020/01/31 01:52:44.5	94.220	-0.130	-0.200	1.760
2020/01/31 01:52:44.6	94.230	-0.140	-0.130	1.700
2020/01/31 01:52:44.7	94.230	-0.160	-0.060	1.640
2020/01/31 01:52:44.8	94.230	-0.180	0.010	1.580
2020/01/31 01:52:44.9	94.240	-0.200	0.070	1.520
2020/01/31 01:52:45.0	94.240	-0.210	0.140	1.450
2020/01/31 01:52:45.1	94.240	-0.230	0.210	1.390
2020/01/31 01:52:45.2	94.250	-0.240	0.270	1.320
2020/01/31 01:52:45.3	94.250	-0.260	0.320	1.250
2020/01/31 01:52:45.4	94.250	-0.270	0.370	1.180
2020/01/31 01:52:45.5	94.250	-0.280	0.420	1.100
2020/01/31 01:52:45.6	94.260	-0.280	0.460	1.030
2020/01/31 01:52:45.7	94.260	-0.290	0.490	0.950
2020/01/31 01:52:45.8	94.260	-0.290	0.520	0.880
2020/01/31 01:52:45.9	94.270	-0.290	0.530	0.800
2020/01/31 01:52:46.0	94.260	-0.290	0.550	0.720
2020/01/31 01:52:46.1	94.260	-0.280	0.550	0.640
2020/01/31 01:52:46.2	94.260	-0.280	0.540	0.550
2020/01/31 01:52:46.3	94.270	-0.260	0.530	0.470
2020/01/31 01:52:46.4	94.270	-0.250	0.510	0.390
2020/01/31 01:52:46.5	94.280	-0.230	0.480	0.300
2020/01/31 01:52:46.6	94.280	-0.210	0.450	0.220
2020/01/31 01:52:46.7	94.290	-0.190	0.410	0.140
2020/01/31 01:52:46.8	94.290	-0.170	0.360	0.050
2020/01/31 01:52:46.9	94.300	-0.140	0.300	-0.030
2020/01/31 01:52:47.0	94.290	-0.110	0.240	-0.110
2020/01/31 01:52:47.1	94.300	-0.080	0.170	-0.180
2020/01/31 01:52:47.2	94.300	-0.040	0.110	-0.260
2020/01/31 01:52:47.3	94.310	-0.010	0.030	-0.330
2020/01/31 01:52:47.4	94.320	0.030	-0.040	-0.400
2020/01/31 01:52:47.5	94.320	0.070	-0.120	-0.470
2020/01/31 01:52:47.6	94.330	0.110	-0.200	-0.530
2020/01/31 01:52:47.7	94.340	0.150	-0.280	-0.590
2020/01/31 01:52:47.8	94.340	0.190	-0.360	-0.640
2020/01/31 01:52:47.9	94.350	0.230	-0.450	-0.690
2020/01/31 01:52:48.0	94.340	0.270	-0.530	-0.730
2020/01/31 01:52:48.1	94.350	0.310	-0.600	-0.770
2020/01/31 01:52:48.2	94.360	0.340	-0.680	-0.810
2020/01/31 01:52:48.3	94.360	0.380	-0.750	-0.840
2020/01/31 01:52:48.4	94.370	0.410	-0.820	-0.860
2020/01/31 01:52:48.5	94.370	0.450	-0.890	-0.880
2020/01/31 01:52:48.6	94.380	0.480	-0.950	-0.900
2020/01/31 01:52:48.7	94.380	0.510	-1.010	-0.910
2020/01/31 01:52:48.8	94.380	0.530	-1.060	-0.920
2020/01/31 01:52:48.9	94.390	0.560	-1.100	-0.920
2020/01/31 01:52:49.0	94.390	0.580	-1.140	-0.910
2020/01/31 01:52:49.1	94.390	0.600	-1.170	-0.910
2020/01/31 01:52:49.2	94.390	0.610	-1.190	-0.900
2020/01/31 01:52:49.3	94.400	0.620	-1.210	-0.880
2020/01/31 01:52:49.4	94.400	0.630	-1.220	-0.860
2020/01/31 01:52:49.5	94.400	0.640	-1.230	-0.840
2020/01/31 01:52:49.6	94.400	0.640	-1.220	-0.810
2020/01/31 01:52:49.7	94.400	0.640	-1.210	-0.780
2020/01/31 01:52:49.8	94.400	0.640	-1.190	-0.750
2020/01/31 01:52:49.9	94.400	0.630	-1.170	-0.710
2020/01/31 01:52:50.0	94.390	0.620	-1.130	-0.670
2020/01/31 01:52:50.1	94.390	0.610	-1.090	-0.620
2020/01/31 01:52:50.2	94.380	0.590	-1.040	-0.580
2020/01/31 01:52:50.3	94.380	0.580	-0.990	-0.530
2020/01/31 01:52:50.4	94.380	0.560	-0.930	-0.470
2020/01/31 01:52:50.5	94.370	0.530	-0.860	-0.420
2020/01/31 01:52:50.6	94.370	0.500	-0.790	-0.360
2020/01/31 01:52:50.7	94.360	0.480	-0.710	-0.300
2020/01/31 01:52:50.8	94.350	0.440	-0.630	-0.240
2020/01/31 01:52:50.9	94.340	0.410	-0.540	-0.170
2020/01/31 01:52:51.0	94.320	0.370	-0.440	-0.110
2020/01/31 01:52:51.1	94.310	0.340	-0.350	-0.040
2020/01/31 01:52:51.2	94.300	0.300	-0.250	0.030
2020/01/31 01:52:51.3	94.290	0.260	-0.160	0.100
2020/01/31 01:52:51.4	94.270	0.210	-0.060	0.180
2020/01/31 01:52:51.5	94.250	0.170	0.040	0.250
2020/01/31 01:52:51.6	94.240	0.130	0.140	0.330
2020/01/31 01:52:51.7	94.220	0.080	0.240	0.410
2020/01/31 01:52:51.8	94.200	0.040	0.340	0.490
2020/01/31 01:52:51.9	94.180	-0.010	0.440	0.560
2020/01/31 01:52:52.0	94.150	-0.050	0.530	0.650
2020/01/31 01:52:52.1	94.130	-0.100	0.620	0.730
2020/01/31 01:52:52.2	94.110	-0.140	0.700	0.810
2020/01/31 01:52:52.3	94.090	-0.180	0.780	0.890
2020/01/31 01:52:52.4	94.070	-0.230	0.850	0.970
2020/01/31 01:52:52.5	94.050	-0.270	0.920	1.040
2020/01/31 01:52:52.6	94.030	-0.310	0.980	1.120
2020/01/31 01:52:52.7	94.010	-0.340	1.040	1.190
2020/01/31 01:52:52.8	94.000	-0.380	1.080	1.260
2020/01/31 01:52:52.9	93.980	-0.410	1.120	1.330
2020/01/31 01:52:53.0	93.990	-0.440	1.150	1.390
2020/01/31 01:52:53.1	93.980	-0.470	1.180	1.450
2020/01/31 01:52:53.2	93.970	-0.490	1.190	1.510
2020/01/31 01:52:53.3	93.960	-0.520	1.200	1.560
2020/01/31 01:52:53.4	93.960	-0.540	1.190	1.610
2020/01/31 01:52:53.5	93.960	-0.550	1.180	1.650
2020/01/31 01:52:53.6	93.960	-0.560	1.160	1.690
2020/01/31 01:52:53.7	93.960	-0.580	1.130	1.720
2020/01/31 01:52:53.8	93.960	-0.580	1.100	1.750
2020/01/31 01:52:53.9	93.970	-0.590	1.050	1.780
2020/01/31 01:52:54.0	93.990	-0.590	1.000	1.800
2020/01/31 01:52:54.1	94.000	-0.590	0.950	1.820
2020/01/31 01:52:54.2	94.020	-0.580	0.880	1.830
2020/01/31 01:52:54.3	94.030	-0.570	0.810	1.840
2020/01/31 01:52:54.4	94.050	-0.560	0.730	1.850
2020/01/31 01:52:54.5	94.070	-0.550	0.650	1.860
2020/01/31 01:52:54.6	94.090	-0.540	0.570	1.860
2020/01/31 01:52:54.7	94.110	-0.520	0.480	1.860
2020/01/31 01:52:54.8	94.130	-0.500	0.390	1.850
2020/01/31 01:52:54.9	94.150	-0.480	0.290	1.850
2020/01/31 01:52:55.0	94.180	-0.460	0.190	1.840
2020/01/31 01:52:55.1	94.200	-0.430	0.100	1.830
2020/01/31 01:52:55.2	94.220	-0.410	-0.000	1.820
2020/01/31 01:52:55.3	94.240	-0.380	-0.100	1.810
2020/01/31 01:52:55.4	94.260	-0.350	-0.190	1.800
2020/01/31 01:52:55.5	94.290	-0.320	-0.290	1.790
2020/01/31 01:52:55.6	94.310	-0.300	-0.380	1.780
2020/01/31 01:52:55.7	94.330	-0.270	-0.470	1.760
2020/01/31 01:52:55.8	94.350	-0.240	-0.550	1.750
2020/01/31 01:52:55.9	94.360	-0.210	-0.630	1.740
2020/01/31 01:52:56.0	94.380	-0.170	-0.710	1.720
2020/01/31 01:52:56.1	94.400	-0.140	-0.780	1.710
2020/01/31 01:52:56.2	94.420	-0.110	-0.850	1.690
2020/01/31 01:52:56.3	94.430	-0.080	-0.910	1.680
2020/01/31 01:52:56.4	94.450	-0.050	-0.970	1.660
2020/01/31 01:52:56.5	94.470	-0.020	-1.020	1.640
2020/01/31 01:52:56.6	94.480	0.000	-1.060	1.620
2020/01/31 01:52:56.7	94.500	0.030	-1.100	1.610
2020/01/31 01:52:56.8	94.510	0.060	-1.130	1.590
2020/01/31 01:52:56.9	94.520	0.090	-1.160	1.570
2020/01/31 01:52:57.0	94.550	0.110	-1.180	1.550
2020/01/31 01:52:57.1	94.560	0.130	-1.190	1.530
2020/01/31 01:52:57.2	94.570	0.160	-1.200	1.500
2020/01/31 01:52:57.3	94.580	0.180	-1.210	1.480
2020/01/31 01:52:57.4	94.590	0.200	-1.200	1.460
2020/01/31 01:52:57.5	94.590	0.220	-1.190	1.440
2020/01/31 01:52:57.6	94.600	0.240	-1.180	1.410
2020/01/31 01:52:57.7	94.600	0.250	-1.160	1.390
2020/01/31 01:52:57.8	94.600	0.270	-1.140	1.370
2020/01/31 01:52:57.9	94.610	0.280	-1.110	1.340
2020/01/31 01:52:58.0	94.600	0.290	-1.080	1.320
2020/01/31 01:52:58.1	94.600	0.300	-1.040	1.300
2020/01/31 01:52:58.2	94.590	0.300	-1.000	1.280
2020/01/31 01:52:58.3	94.590	0.310	-0.950	1.260
2020/01/31 01:52:58.4	94.580	0.310	-0.900	1.240
2020/01/31 01:52:58.5	94.570	0.310	-0.850	1.220
2020/01/31 01:52:58.6	94.560	0.310	-0.800	1.210
2020/01/31 01:52:58.7	94.550	0.310	-0.740	1.190
2020/01/31 01:52:58.8	94.530	0.300	-0.680	1.180
2020/01/31 01:52:58.9	94.520	0.290	-0.620	1.170
2020/01/31 01:52:59.0	94.500	0.280	-0.550	1.160
2020/01/31 01:52:59.1	94.480	0.270	-0.480	1.150
2020/01/31 01:52:59.2	94.460	0.260	-0.420	1.140
2020/01/31 01:52:59.3	94.440	0.240	-0.350	1.130
2020/01/31 01:52:59.4	94.420	0.230	-0.290	1.120
2020/01/31 01:52:59.5	94.400	0.210	-0.220	1.120
2020/01/31 01:52:59.6	94.370	0.190	-0.160	1.110
2020/01/31 01:52:59.7	94.350	0.170	-0.090	1.100
2020/01/31 01:52:59.8	94.330	0.150	-0.030	1.100
2020/01/31 01:52:59.9	94.300	0.120	0.030	1.090
2020/01/31 01:53:00.0	94.270	0.100	0.090	1.090
2020/01/31 01:53:00.1	94.250	0.080	0.140	1.080
2020/01/31 01:53:00.2	94.220	0.050	0.190	1.080
2020/01/31 01:53:00.3	94.200	0.030	0.240	1.070
2020/01/31 01:53:00.4	94.170	0.000	0.280	1.060
2020/01/31 01:53:00.5	94.150	-0.020	0.320	1.050
2020/01/31 01:53:00.6	94.130	-0.040	0.350	1.040
2020/01/31 01:53:00.7	94.100	-0.060	0.380	1.020
2020/01/31 01:53:00.8	94.080	-0.090	0.400	1.000
2020/01/31 01:53:00.9	94.060	-0.110	0.420	0.980
2020/01/31 01:53:01.0	94.050	-0.120	0.440	0.970
2020/01/31 01:53:01.1	94.030	-0.140	0.440	0.940
2020/01/31 01:53:01.2	94.010	-0.160	0.440	0.910
2020/01/31 01:53:01.3	93.990	-0.170	0.440	0.880
2020/01/31 01:53:01.4	93.970	-0.180	0.430	0.840
2020/01/31 01:53:01.5	93.950	-0.190	0.420	0.810
2020/01/31 01:53:01.6	93.940	-0.200	0.400	0.760
2020/01/31 01:53:01.7	93.920	-0.200	0.380	0.720
2020/01/31 01:53:01.8	93.910	-0.200	0.350	0.670
2020/01/31 01:53:01.9	93.900	-0.210	0.330	0.620
2020/01/31 01:53:02.0	93.880	-0.200	0.290	0.570
2020/01/31 01:53:02.1	93.870	-0.200	0.260	0.520
2020/01/31 01:53:02.2	93.860	-0.200	0.220	0.460
2020/01/31 01:53:02.3	93.860	-0.190	0.190	0.410
2020/01/31 01:53:02.4	93.850	-0.180	0.150	0.350
2020/01/31 01:53:02.5	93.850	-0.170	0.110	0.290
2020/01/31 01:53:02.6	93.850	-0.160	0.070	0.240
2020/01/31 01:53:02.7	93.850	-0.150	0.030	0.180
2020/01/31 01:53:02.8	93.850	-0.130	-0.010	0.120
2020/01/31 01:53:02.9	93.850	-0.120	-0.040	0.070
2020/01/31 01:53:03.0	93.830	-0.100	-0.080	0.010
2020/01/31 01:53:03.1	93.830	-0.090	-0.120	-0.040
2020/01/31 01:53:03.2	93.830	-0.070	-0.150	-0.090
2020/01/31 01:53:03.3	93.830	-0.050	-0.180	-0.140
2020/01/31 01:53:03.4	93.830	-0.030	-0.210	-0.180
2020/01/31 01:53:03.5	93.830	-0.020	-0.230	-0.230
2020/01/31 01:53:03.6	93.830	0.000	-0.260	-0.270
2020/01/31 01:53:03.7	93.830	0.020	-0.280	-0.310
2020/01/31 01:53:03.8	93.830	0.030	-0.290	-0.350
2020/01/31 01:53:03.9	93.830	0.050	-0.310	-0.390
2020/01/31 01:53:04.0	93.830	0.070	-0.320	-0.420
2020/01/31 01:53:04.1	93.830	0.080	-0.330	-0.450
2020/01/31 01:53:04.2	93.840	0.090	-0.340	-0.480
2020/01/31 01:53:04.3	93.840	0.110	-0.340	-0.500
2020/01/31 01:53:04.4	93.850	0.120	-0.340	-0.530
2020/01/31 01:53:04.5	93.860	0.130	-0.340	-0.550
2020/01/31 01:53:04.6	93.870	0.140	-0.330	-0.570
2020/01/31 01:53:04.7	93.880	0.150	-0.320	-0.580
2020/01/31 01:53:04.8	93.900	0.150	-0.310	-0.590
2020/01/31 01:53:04.9	93.910	0.160	-0.300	-0.600
2020/01/31 01:53:05.0	93.930	0.170	-0.280	-0.610
2020/01/31 01:53:05.1	93.940	0.170	-0.260	-0.610
2020/01/31 01:53:05.2	93.960	0.170	-0.240	-0.610
2020/01/31 01:53:05.3	93.980	0.170	-0.220	-0.600
2020/01/31 01:53:05.4	94.010	0.180	-0.200	-0.590
2020/01/31 01:53:05.5	94.030	0.170	-0.180	-0.580
2020/01/31 01:53:05.6	94.050	0.170	-0.150	-0.560
2020/01/31 01:53:05.7	94.070	0.170	-0.130	-0.530
2020/01/31 01:53:05.8	94.090	0.170	-0.100	-0.510
2020/01/31 01:53:05.9	94.110	0.160	-0.070	-0.470
2020/01/31 01:53:06.0	94.140	0.160	-0.050	-0.430
2020/01/31 01:53:06.1	94.160	0.150	-0.020	-0.390
2020/01/31 01:53:06.2	94.180	0.150	0.000	-0.350
2020/01/31 01:53:06.3	94.200	0.140	0.030	-0.300
2020/01/31 01:53:06.4	94.220	0.130	0.050	-0.250
2020/01/31 01:53:06.5	94.240	0.120	0.080	-0.190
2020/01/31 01:53:06.6	94.260	0.110	0.100	-0.130
2020/01/31 01:53:06.7	94.270	0.100	0.120	-0.070
2020/01/31 01:53:06.8	94.290	0.090	0.150	-0.010
2020/01/31 01:53:06.9	94.300	0.080	0.160	0.060
2020/01/31 01:53:07.0	94.310	0.070	0.180	0.130
2020/01/31 01:53:07.1	94.320	0.060	0.200	0.200
2020/01/31 01:53:07.2	94.330	0.040	0.210	0.280
2020/01/31 01:53:07.3	94.340	0.030	0.220	0.350
2020/01/31 01:53:07.4	94.350	0.020	0.220	0.430
2020/01/31 01:53:07.5	94.360	0.010	0.230	0.510
2020/01/31 01:53:07.6	94.380	-0.000	0.220	0.590
2020/01/31 01:53:07.7	94.390	-0.020	0.220	0.670
2020/01/31 01:53:07.8	94.400	-0.030	0.210	0.750
2020/01/31 01:53:07.9	94.410	-0.040	0.200	0.830
2020/01/31 01:53:08.0	94.420	-0.050	0.180	0.910
2020/01/31 01:53:08.1	94.430	-0.060	0.160	1.000
2020/01/31 01:53:08.2	94.440	-0.070	0.130	1.080
2020/01/31 01:53:08.3	94.440	-0.080	0.110	1.160
2020/01/31 01:53:08.4	94.450	-0.090	0.070	1.240
2020/01/31 01:53:08.5	94.450	-0.100	0.040	1.320
2020/01/31 01:53:08.6	94.460	-0.110	0.000	1.410
2020/01/31 01:53:08.7	94.460	-0.120	-0.040	1.490
2020/01/31 01:53:08.8	94.460	-0.120	-0.080	1.570
2020/01/31 01:53:08.9	94.460	-0.130	-0.120	1.650
2020/01/31 01:53:09.0	94.470	-0.130	-0.170	1.740
2020/01/31 01:53:09.1	94.470	-0.140	-0.220	1.820
2020/01/31 01:53:09.2	94.460	-0.140	-0.260	1.900
2020/01/31 01:53:09.3	94.450	-0.140	-0.310	1.970
2020/01/31 01:53:09.4	94.440	-0.140	-0.360	2.050
2020/01/31 01:53:09.5	94.430	-0.140	-0.410	2.130
2020/01/31 01:53:09.6	94.420	-0.140	-0.460	2.200
2020/01/31 01:53:09.7	94.400	-0.140	-0.500	2.270
2020/01/31 01:53:09.8	94.380	-0.130	-0.540	2.350
2020/01/31 01:53:09.9	94.360	-0.130	-0.580	2.420
2020/01/31 01:53:10.0	94.350	-0.130	-0.620	2.490
2020/01/31 01:53:10.1	94.330	-0.120	-0.650	2.550
2020/01/31 01:53:10.2	94.310	-0.120	-0.680	2.620
2020/01/31 01:53:10.3	94.280	-0.110	-0.710	2.680
2020/01/31 01:53:10.4	94.260	-0.110	-0.730	2.730
2020/01/31 01:53:10.5	94.230	-0.100	-0.740	2.790
2020/01/31 01:53:10.6	94.200	-0.100	-0.750	2.840
2020/01/31 01:53:10.7	94.170	-0.090	-0.750	2.880
2020/01/31 01:53:10.8	94.140	-0.090	-0.750	2.930
2020/01/31 01:53:10.9	94.110	-0.080	-0.740	2.970
2020/01/31 01:53:11.0	94.110	-0.080	-0.730	3.000
2020/01/31 01:53:11.1	94.080	-0.080	-0.710	3.030
2020/01/31 01:53:11.2	94.050	-0.070	-0.690	3.050
2020/01/31 01:53:11.3	94.020	-0.070	-0.660	3.070
2020/01/31 01:53:11.4	93.990	-0.060	-0.630	3.080
2020/01/31 01:53:11.5	93.960	-0.060	-0.600	3.090
2020/01/31 01:53:11.6	93.930	-0.060	-0.560	3.090
2020/01/31 01:53:11.7	93.910	-0.060	-0.520	3.090
2020/01/31 01:53:11.8	93.880	-0.050	-0.480	3.080
2020/01/31 01:53:11.9	93.850	-0.050	-0.440	3.060
2020/01/31 01:53:12.0	93.830	-0.050	-0.390	3.040
2020/01/31 01:53:12.1	93.810	-0.050	-0.350	3.010
2020/01/31 01:53:12.2	93.790	-0.050	-0.300	2.970
2020/01/31 01:53:12.3	93.760	-0.050	-0.260	2.930
2020/01/31 01:53:12.4	93.740	-0.040	-0.210	2.880
2020/01/31 01:53:12.5	93.720	-0.040	-0.170	2.820
2020/01/31 01:53:12.6	93.710	-0.040	-0.120	2.760
2020/01/31 01:53:12.7	93.690	-0.040	-0.080	2.690
2020/01/31 01:53:12.8	93.680	-0.040	-0.050	2.610
2020/01/31 01:53:12.9	93.670	-0.030	-0.010	2.530
2020/01/31 01:53:13.0	93.680	-0.030	0.030	2.440
2020/01/31 01:53:13.1	93.670	-0.030	0.060	2.340
2020/01/31 01:53:13.2	93.660	-0.020	0.080	2.240
2020/01/31 01:53:13.3	93.660	-0.020	0.110	2.140
2020/01/31 01:53:13.4	93.660	-0.010	0.130	2.030
2020/01/31 01:53:13.5	93.670	-0.010	0.140	1.910
2020/01/31 01:53:13.6	93.670	0.000	0.150	1.790
2020/01/31 01:53:13.7	93.680	0.010	0.160	1.670
2020/01/31 01:53:13.8	93.690	0.020	0.170	1.540
2020/01/31 01:53:13.9	93.700	0.020	0.170	1.410
2020/01/31 01:53:14.0	93.680	0.030	0.160	1.280
2020/01/31 01:53:14.1	93.690	0.040	0.150	1.140
2020/01/31 01:53:14.2	93.710	0.050	0.150	1.010
2020/01/31 01:53:14.3	93.720	0.070	0.130	0.870
2020/01/31 01:53:14.4	93.740	0.080	0.120	0.740
2020/01/31 01:53:14.5	93.750	0.090	0.100	0.600
2020/01/31 01:53:14.6	93.770	0.100	0.080	0.470
2020/01/31 01:53:14.7	93.790	0.110	0.060	0.340
2020/01/31 01:53:14.8	93.800	0.120	0.040	0.210
2020/01/31 01:53:14.9	93.820	0.140	0.020	0.080
2020/01/31 01:53:15.0	93.830	0.150	-0.010	-0.050
2020/01/31 01:53:15.1	93.840	0.160	-0.030	-0.170
2020/01/31 01:53:15.2	93.860	0.170	-0.050	-0.290
2020/01/31 01:53:15.3	93.880	0.180	-0.070	-0.410
2020/01/31 01:53:15.4	93.890	0.190	-0.090	-0.520
2020/01/31 01:53:15.5	93.910	0.200	-0.110	-0.630
2020/01/31 01:53:15.6	93.920	0.210	-0.130	-0.740
2020/01/31 01:53:15.7	93.930	0.220	-0.150	-0.840
2020/01/31 01:53:15.8	93.950	0.220	-0.170	-0.940
2020/01/31 01:53:15.9	93.960	0.230	-0.180	-1.030
2020/01/31 01:53:16.0	93.960	0.230	-0.190	-1.110
2020/01/31 01:53:16.1	93.980	0.230	-0.200	-1.190
2020/01/31 01:53:16.2	93.990	0.230	-0.210	-1.270
2020/01/31 01:53:16.3	94.000	0.230	-0.210	-1.340
2020/01/31 01:53:16.4	94.000	0.230	-0.220	-1.410
2020/01/31 01:53:16.5	94.010	0.230	-0.220	-1.460
2020/01/31 01:53:16.6	94.020	0.230	-0.220	-1.510
2020/01/31 01:53:16.7	94.020	0.220	-0.210	-1.560
2020/01/31 01:53:16.8	94.020	0.210	-0.210	-1.600
2020/01/31 01:53:16.9	94.020	0.210	-0.200	-1.630
2020/01/31 01:53:17.0	94.020	0.200	-0.190	-1.650
2020/01/31 01:53:17.1	94.010	0.190	-0.190	-1.670
2020/01/31 01:53:17.2	94.010	0.180	-0.180	-1.670
2020/01/31 01:53:17.3	94.000	0.170	-0.160	-1.670
2020/01/31 01:53:17.4	93.990	0.160	-0.150	-1.670
2020/01/31 01:53:17.5	93.980	0.140	-0.140	-1.650
2020/01/31 01:53:17.6	93.970	0.130	-0.120	-1.630
2020/01/31 01:53:17.7	93.960	0.110	-0.110	-1.600
2020/01/31 01:53:17.8	93.950	0.100	-0.100	-1.570
2020/01/31 01:53:17.9	93.930	0.080	-0.080	-1.520
2020/01/31 01:53:18.0	93.900	0.070	-0.070	-1.470
2020/01/31 01:53:18.1	93.880	0.050	-0.060	-1.420
2020/01/31 01:53:18.2	93.870	0.040	-0.050	-1.360
2020/01/31 01:53:18.3	93.850	0.020	-0.030	-1.290
2020/01/31 01:53:18.4	93.830	0.000	-0.020	-1.220
2020/01/31 01:53:18.5	93.810	-0.010	-0.020	-1.150
2020/01/31 01:53:18.6	93.790	-0.030	-0.010	-1.070
2020/01/31 01:53:18.7	93.780	-0.040	-0.000	-1.000
2020/01/31 01:53:18.8	93.760	-0.060	0.000	-0.910
2020/01/31 01:53:18.9	93.750	-0.070	0.000	-0.830
2020/01/31 01:53:19.0	93.730	-0.090	0.000	-0.740
2020/01/31 01:53:19.1	93.710	-0.100	0.000	-0.660
2020/01/31 01:53:19.2	93.700	-0.110	-0.000	-0.570
2020/01/31 01:53:19.3	93.700	-0.120	-0.010	-0.490
2020/01/31 01:53:19.4	93.690	-0.130	-0.010	-0.400
2020/01/31 01:53:19.5	93.690	-0.140	-0.020	-0.310
2020/01/31 01:53:19.6	93.680	-0.150	-0.020	-0.230
2020/01/31 01:53:19.7	93.680	-0.160	-0.030	-0.140
2020/01/31 01:53:19.8	93.690	-0.170	-0.040	-0.060
2020/01/31 01:53:19.9	93.690	-0.170	-0.050	0.020
2020/01/31 01:53:20.0	93.680	-0.180	-0.060	0.110
2020/01/31 01:53:20.1	93.690	-0.180	-0.070	0.200
2020/01/31 01:53:20.2	93.700	-0.180	-0.090	0.280
2020/01/31 01:53:20.3	93.700	-0.180	-0.100	0.360
2020/01/31 01:53:20.4	93.710	-0.180	-0.110	0.450
2020/01/31 01:53:20.5	93.720	-0.180	-0.130	0.530
2020/01/31 01:53:20.6	93.730	-0.180	-0.140	0.610
2020/01/31 01:53:20.7	93.740	-0.180	-0.150	0.690
2020/01/31 01:53:20.8	93.750	-0.170	-0.170	0.770
2020/01/31 01:53:20.9	93.760	-0.170	-0.180	0.860
2020/01/31 01:53:21.0	93.780	-0.160	-0.190	0.940
2020/01/31 01:53:21.1	93.780	-0.160	-0.200	1.030
2020/01/31 01:53:21.2	93.800	-0.150	-0.210	1.110
2020/01/31 01:53:21.3	93.800	-0.140	-0.230	1.190
2020/01/31 01:53:21.4	93.810	-0.140	-0.240	1.270
2020/01/31 01:53:21.5	93.820	-0.130	-0.250	1.350
2020/01/31 01:53:21.6	93.830	-0.120	-0.260	1.430
2020/01/31 01:53:21.7	93.840	-0.110	-0.270	1.510
2020/01/31 01:53:21.8	93.840	-0.100	-0.270	1.590
2020/01/31 01:53:21.9	93.850	-0.090	-0.280	1.670
2020/01/31 01:53:22.0	93.860	-0.080	-0.290	1.760
2020/01/31 01:53:22.1	93.870	-0.070	-0.300	1.830
2020/01/31 01:53:22.2	93.870	-0.060	-0.300	1.910
2020/01/31 01:53:22.3	93.880	-0.050	-0.310	1.980
2020/01/31 01:53:22.4	93.880	-0.040	-0.310	2.050
2020/01/31 01:53:22.5	93.880	-0.030	-0.310	2.120
2020/01/31 01:53:22.6	93.890	-0.020	-0.320	2.190
2020/01/31 01:53:22.7	93.890	-0.010	-0.320	2.250
2020/01/31 01:53:22.8	93.890	0.000	-0.320	2.310
2020/01/31 01:53:22.9	93.890	0.010	-0.320	2.370
2020/01/31 01:53:23.0	93.910	0.020	-0.310	2.430
2020/01/31 01:53:23.1	93.910	0.030	-0.310	2.490
2020/01/31 01:53:23.2	93.900	0.030	-0.300	2.540
2020/01/31 01:53:23.3	93.900	0.040	-0.300	2.590
2020/01/31 01:53:23.4	93.890	0.040	-0.290	2.630
2020/01/31 01:53:23.5	93.890	0.040	-0.280	2.680
2020/01/31 01:53:23.6	93.880	0.040	-0.270	2.720
2020/01/31 01:53:23.7	93.880	0.040	-0.250	2.750
2020/01/31 01:53:23.8	93.870	0.040	-0.240	2.790
2020/01/31 01:53:23.9	93.860	0.040	-0.230	2.820
2020/01/31 01:53:24.0	93.870	0.040	-0.210	2.850
2020/01/31 01:53:24.1	93.860	0.030	-0.200	2.870
2020/01/31 01:53:24.2	93.840	0.030	-0.180	2.890
2020/01/31 01:53:24.3	93.830	0.020	-0.170	2.910
2020/01/31 01:53:24.4	93.820	0.020	-0.160	2.920
2020/01/31 01:53:24.5	93.810	0.010	-0.140	2.930
2020/01/31 01:53:24.6	93.790	0.000	-0.130	2.930
2020/01/31 01:53:24.7	93.780	-0.010	-0.120	2.930
2020/01/31 01:53:24.8	93.770	-0.020	-0.110	2.930
2020/01/31 01:53:24.9	93.750	-0.030	-0.100	2.920
2020/01/31 01:53:25.0	93.740	-0.040	-0.090	2.900
2020/01/31 01:53:25.1	93.730	-0.050	-0.080	2.880
2020/01/31 01:53:25.2	93.720	-0.060	-0.070	2.860
2020/01/31 01:53:25.3	93.710	-0.070	-0.070	2.830
2020/01/31 01:53:25.4	93.700	-0.080	-0.060	2.790
2020/01/31 01:53:25.5	93.690	-0.090	-0.060	2.760
2020/01/31 01:53:25.6	93.680	-0.100	-0.060	2.710
2020/01/31 01:53:25.7	93.670	-0.110	-0.060	2.660
2020/01/31 01:53:25.8	93.670	-0.120	-0.060	2.610
2020/01/31 01:53:25.9	93.660	-0.130	-0.060	2.550
2020/01/31 01:53:26.0	93.650	-0.130	-0.060	2.490
2020/01/31 01:53:26.1	93.640	-0.140	-0.060	2.420
2020/01/31 01:53:26.2	93.640	-0.140	-0.070	2.350
2020/01/31 01:53:26.3	93.640	-0.140	-0.070	2.280
2020/01/31 01:53:26.4	93.640	-0.140	-0.080	2.200
2020/01/31 01:53:26.5	93.640	-0.140	-0.090	2.120
2020/01/31 01:53:26.6	93.640	-0.140	-0.090	2.040
2020/01/31 01:53:26.7	93.650	-0.140	-0.100	1.950
2020/01/31 01:53:26.8	93.660	-0.140	-0.110	1.860
2020/01/31 01:53:26.9	93.660	-0.130	-0.120	1.770
2020/01/31 01:53:27.0	93.670	-0.120	-0.120	1.680
2020/01/31 01:53:27.1	93.680	-0.110	-0.130	1.580
2020/01/31 01:53:27.2	93.690	-0.100	-0.130	1.480
2020/01/31 01:53:27.3	93.710	-0.090	-0.140	1.380
2020/01/31 01:53:27.4	93.720	-0.080	-0.140	1.280
2020/01/31 01:53:27.5	93.730	-0.070	-0.150	1.180
2020/01/31 01:53:27.6	93.750	-0.050	-0.150	1.080
2020/01/31 01:53:27.7	93.760	-0.040	-0.150	0.970
2020/01/31 01:53:27.8	93.770	-0.020	-0.150	0.870
2020/01/31 01:53:27.9	93.790	-0.010	-0.160	0.760
2020/01/31 01:53:28.0	93.790	0.010	-0.150	0.660
2020/01/31 01:53:28.1	93.810	0.030	-0.150	0.560
2020/01/31 01:53:28.2	93.820	0.050	-0.150	0.450
2020/01/31 01:53:28.3	93.830	0.070	-0.150	0.350
2020/01/31 01:53:28.4	93.840	0.090	-0.140	0.250
2020/01/31 01:53:28.5	93.850	0.110	-0.140	0.140
2020/01/31 01:53:28.6	93.860	0.130	-0.130	0.040
2020/01/31 01:53:28.7	93.860	0.150	-0.130	-0.050
2020/01/31 01:53:28.8	93.870	0.170	-0.130	-0.150
2020/01/31 01:53:28.9	93.870	0.190	-0.120	-0.250
2020/01/31 01:53:29.0	93.860	0.210	-0.120	-0.340
2020/01/31 01:53:29.1	93.860	0.230	-0.110	-0.430
2020/01/31 01:53:29.2	93.860	0.250	-0.110	-0.520
2020/01/31 01:53:29.3	93.860	0.270	-0.110	-0.600
2020/01/31 01:53:29.4	93.850	0.280	-0.110	-0.690
2020/01/31 01:53:29.5	93.850	0.300	-0.110	-0.770
2020/01/31 01:53:29.6	93.840	0.320	-0.120	-0.840
2020/01/31 01:53:29.7	93.840	0.330	-0.120	-0.910
2020/01/31 01:53:29.8	93.830	0.350	-0.130	-0.980
2020/01/31 01:53:29.9	93.820	0.360	-0.140	-1.050
2020/01/31 01:53:30.0	93.820	0.370	-0.140	-1.110
2020/01/31 01:53:30.1	93.810	0.380	-0.150	-1.170
2020/01/31 01:53:30.2	93.800	0.390	-0.170	-1.220
2020/01/31 01:53:30.3	93.800	0.390	-0.180	-1.270
2020/01/31 01:53:30.4	93.790	0.400	-0.200	-1.320
2020/01/31 01:53:30.5	93.790	0.400	-0.210	-1.360
2020/01/31 01:53:30.6	93.780	0.400	-0.230	-1.390
2020/01/31 01:53:30.7	93.780	0.400	-0.250	-1.420
2020/01/31 01:53:30.8	93.780	0.400	-0.260	-1.450
2020/01/31 01:53:30.9	93.770	0.390	-0.280	-1.470
2020/01/31 01:53:31.0	93.760	0.390	-0.300	-1.470
2020/01/31 01:53:31.1	93.750	0.380	-0.310	-1.480
2020/01/31 01:53:31.2	93.750	0.360	-0.330	-1.480
2020/01/31 01:53:31.3	93.750	0.350	-0.340	-1.470
2020/01/31 01:53:31.4	93.750	0.330	-0.350	-1.450
2020/01/31 01:53:31.5	93.750	0.310	-0.350	-1.430
2020/01/31 01:53:31.6	93.740	0.290	-0.360	-1.400
2020/01/31 01:53:31.7	93.740	0.270	-0.360	-1.360
2020/01/31 01:53:31.8	93.740	0.240	-0.360	-1.320
2020/01/31 01:53:31.9	93.730	0.210	-0.360	-1.270
2020/01/31 01:53:32.0	93.720	0.180	-0.350	-1.210
2020/01/31 01:53:32.1	93.710	0.150	-0.340	-1.140
2020/01/31 01:53:32.2	93.700	0.110	-0.330	-1.070
2020/01/31 01:53:32.3	93.700	0.080	-0.320	-0.990
2020/01/31 01:53:32.4	93.690	0.040	-0.300	-0.910
2020/01/31 01:53:32.5	93.690	0.000	-0.280	-0.820
2020/01/31 01:53:32.6	93.680	-0.030	-0.260	-0.730
2020/01/31 01:53:32.7	93.680	-0.070	-0.240	-0.630
2020/01/31 01:53:32.8	93.670	-0.110	-0.220	-0.530
2020/01/31 01:53:32.9	93.670	-0.150	-0.190	-0.430
2020/01/31 01:53:33.0	93.650	-0.190	-0.160	-0.320
2020/01/31 01:53:33.1	93.650	-0.230	-0.140	-0.210
2020/01/31 01:53:33.2	93.650	-0.260	-0.110	-0.110
2020/01/31 01:53:33.3	93.640	-0.300	-0.090	0.000
2020/01/31 01:53:33.4	93.640	-0.330	-0.060	0.110
2020/01/31 01:53:33.5	93.640	-0.360	-0.040	0.210
2020/01/31 01:53:33.6	93.640	-0.390	-0.020	0.310
2020/01/31 01:53:33.7	93.640	-0.420	-0.000	0.410
2020/01/31 01:53:33.8	93.650	-0.440	0.020	0.510
2020/01/31 01:53:33.9	93.650	-0.460	0.030	0.610
2020/01/31 01:53:34.0	93.670	-0.480	0.040	0.710
2020/01/31 01:53:34.1	93.670	-0.500	0.050	0.800
2020/01/31 01:53:34.2	93.680	-0.510	0.050	0.890
2020/01/31 01:53:34.3	93.680	-0.520	0.050	0.980
2020/01/31 01:53:34.4	93.690	-0.520	0.050	1.060
2020/01/31 01:53:34.5	93.700	-0.520	0.050	1.140
2020/01/31 01:53:34.6	93.710	-0.520	0.040	1.220
2020/01/31 01:53:34.7	93.710	-0.510	0.030	1.300
2020/01/31 01:53:34.8	93.720	-0.500	0.010	1.370
2020/01/31 01:53:34.9	93.730	-0.480	-0.010	1.450
2020/01/31 01:53:35.0	93.750	-0.460	-0.020	1.530
2020/01/31 01:53:35.1	93.760	-0.440	-0.040	1.600
2020/01/31 01:53:35.2	93.770	-0.420	-0.070	1.670
2020/01/31 01:53:35.3	93.780	-0.390	-0.090	1.740
2020/01/31 01:53:35.4	93.790	-0.360	-0.120	1.810
2020/01/31 01:53:35.5	93.800	-0.330	-0.150	1.870
2020/01/31 01:53:35.6	93.810	-0.300	-0.170	1.940
2020/01/31 01:53:35.7	93.820	-0.260	-0.200	2.000
2020/01/31 01:53:35.8	93.830	-0.230	-0.230	2.070
2020/01/31 01:53:35.9	93.840	-0.190	-0.250	2.130
2020/01/31 01:53:36.0	93.860	-0.160	-0.280	2.200
2020/01/31 01:53:36.1	93.880	-0.120	-0.300	2.250
2020/01/31 01:53:36.2	93.890	-0.090	-0.320	2.310
2020/01/31 01:53:36.3	93.900	-0.060	-0.340	2.370
2020/01/31 01:53:36.4	93.910	-0.030	-0.350	2.420
2020/01/31 01:53:36.5	93.930	0.000	-0.360	2.480
2020/01/31 01:53:36.6	93.940	0.030	-0.370	2.530
2020/01/31 01:53:36.7	93.950	0.050	-0.380	2.580
2020/01/31 01:53:36.8	93.970	0.070	-0.370	2.620
2020/01/31 01:53:36.9	93.980	0.090	-0.370	2.670
2020/01/31 01:53:37.0	94.010	0.110	-0.360	2.710
2020/01/31 01:53:37.1	94.030	0.120	-0.340	2.750
2020/01/31 01:53:37.2	94.040	0.130	-0.330	2.780
2020/01/31 01:53:37.3	94.050	0.130	-0.310	2.820
2020/01/31 01:53:37.4	94.060	0.130	-0.280	2.840
2020/01/31 01:53:37.5	94.080	0.130	-0.260	2.870
2020/01/31 01:53:37.6	94.090	0.130	-0.220	2.890
2020/01/31 01:53:37.7	94.100	0.120	-0.190	2.900
2020/01/31 01:53:37.8	94.110	0.110	-0.150	2.910
2020/01/31 01:53:37.9	94.110	0.100	-0.110	2.910
2020/01/31 01:53:38.0	94.140	0.080	-0.070	2.920
2020/01/31 01:53:38.1	94.140	0.060	-0.030	2.910
2020/01/31 01:53:38.2	94.150	0.040	0.010	2.900
2020/01/31 01:53:38.3	94.150	0.020	0.050	2.880
2020/01/31 01:53:38.4	94.150	-0.000	0.100	2.850
2020/01/31 01:53:38.5	94.150	-0.020	0.140	2.820
2020/01/31 01:53:38.6	94.150	-0.050	0.180	2.780
2020/01/31 01:53:38.7	94.150	-0.070	0.220	2.730
2020/01/31 01:53:38.8	94.140	-0.100	0.260	2.680
2020/01/31 01:53:38.9	94.140	-0.120	0.300	2.620
2020/01/31 01:53:39.0	94.130	-0.140	0.330	2.560
2020/01/31 01:53:39.1	94.130	-0.160	0.360	2.480
2020/01/31 01:53:39.2	94.120	-0.180	0.390	2.410
2020/01/31 01:53:39.3	94.110	-0.200	0.410	2.330
2020/01/31 01:53:39.4	94.100	-0.210	0.430	2.240
2020/01/31 01:53:39.5	94.090	-0.230	0.440	2.150
2020/01/31 01:53:39.6	94.080	-0.240	0.450	2.050
2020/01/31 01:53:39.7	94.070	-0.240	0.450	1.950
2020/01/31 01:53:39.8	94.060	-0.250	0.450	1.840
2020/01/31 01:53:39.9	94.050	-0.250	0.440	1.740
2020/01/31 01:53:40.0	94.040	-0.250	0.430	1.630
2020/01/31 01:53:40.1	94.030	-0.240	0.410	1.520
2020/01/31 01:53:40.2	94.020	-0.230	0.380	1.400
2020/01/31 01:53:40.3	94.010	-0.220	0.350	1.290
2020/01/31 01:53:40.4	93.990	-0.200	0.320	1.180
2020/01/31 01:53:40.5	93.980	-0.180	0.280	1.060
2020/01/31 01:53:40.6	93.970	-0.150	0.230	0.950
2020/01/31 01:53:40.7	93.960	-0.130	0.180	0.830
2020/01/31 01:53:40.8	93.950	-0.100	0.120	0.720
2020/01/31 01:53:40.9	93.940	-0.070	0.060	0.610
2020/01/31 01:53:41.0	93.900	-0.030	-0.000	0.500
2020/01/31 01:53:41.1	93.890	0.000	-0.070	0.390
2020/01/31 01:53:41.2	93.890	0.040	-0.140	0.280
2020/01/31 01:53:41.3	93.880	0.080	-0.210	0.180
2020/01/31 01:53:41.4	93.880	0.120	-0.280	0.070
2020/01/31 01:53:41.5	93.880	0.160	-0.350	-0.030
2020/01/31 01:53:41.6	93.870	0.200	-0.430	-0.130
2020/01/31 01:53:41.7	93.870	0.250	-0.500	-0.220
2020/01/31 01:53:41.8	93.870	0.290	-0.570	-0.310
2020/01/31 01:53:41.9	93.870	0.320	-0.640	-0.400
2020/01/31 01:53:42.0	93.860	0.360	-0.700	-0.490
2020/01/31 01:53:42.1	93.860	0.400	-0.760	-0.570
2020/01/31 01:53:42.2	93.870	0.430	-0.820	-0.640
2020/01/31 01:53:42.3	93.870	0.470	-0.870	-0.720
2020/01/31 01:53:42.4	93.870	0.490	-0.920	-0.790
2020/01/31 01:53:42.5	93.870	0.520	-0.960	-0.860
2020/01/31 01:53:42.6	93.880	0.540	-1.000	-0.920
2020/01/31 01:53:42.7	93.880	0.560	-1.030	-0.980
2020/01/31 01:53:42.8	93.890	0.580	-1.060	-1.040
2020/01/31 01:53:42.9	93.890	0.590	-1.070	-1.090
2020/01/31 01:53:43.0	93.880	0.600	-1.080	-1.130
2020/01/31 01:53:43.1	93.880	0.610	-1.090	-1.180
2020/01/31 01:53:43.2	93.880	0.610	-1.080	-1.220
2020/01/31 01:53:43.3	93.890	0.610	-1.070	-1.260
2020/01/31 01:53:43.4	93.890	0.600	-1.060	-1.300
2020/01/31 01:53:43.5	93.890	0.590	-1.040	-1.330
2020/01/31 01:53:43.6	93.890	0.580	-1.010	-1.350
2020/01/31 01:53:43.7	93.890	0.570	-0.970	-1.380
2020/01/31 01:53:43.8	93.890	0.550	-0.930	-1.390
2020/01/31 01:53:43.9	93.880	0.530	-0.890	-1.410
2020/01/31 01:53:44.0	93.870	0.500	-0.840	-1.420
2020/01/31 01:53:44.1	93.870	0.480	-0.780	-1.420
2020/01/31 01:53:44.2	93.870	0.450	-0.720	-1.420
2020/01/31 01:53:44.3	93.860	0.420	-0.660	-1.420
2020/01/31 01:53:44.4	93.860	0.380	-0.590	-1.410
2020/01/31 01:53:44.5	93.850	0.350	-0.520	-1.390
2020/01/31 01:53:44.6	93.850	0.310	-0.450	-1.370
2020/01/31 01:53:44.7	93.850	0.270	-0.380	-1.350
2020/01/31 01:53:44.8	93.840	0.240	-0.300	-1.320
2020/01/31 01:53:44.9	93.840	0.200	-0.230	-1.290
2020/01/31 01:53:45.0	93.840	0.160	-0.150	-1.250
2020/01/31 01:53:45.1	93.840	0.120	-0.070	-1.210
2020/01/31 01:53:45.2	93.840	0.080	0.000	-1.160
2020/01/31 01:53:45.3	93.840	0.040	0.080	-1.120
2020/01/31 01:53:45.4	93.840	-0.000	0.150	-1.060
2020/01/31 01:53:45.5	93.840	-0.040	0.220	-1.010
2020/01/31 01:53:45.6	93.840	-0.080	0.290	-0.940
2020/01/31 01:53:45.7	93.840	-0.120	0.350	-0.880
2020/01/31 01:53:45.8	93.840	-0.160	0.410	-0.810
2020/01/31 01:53:45.9	93.850	-0.200	0.470	-0.730
2020/01/31 01:53:46.0	93.840	-0.230	0.520	-0.650
2020/01/31 01:53:46.1	93.850	-0.270	0.570	-0.570
2020/01/31 01:53:46.2	93.850	-0.300	0.610	-0.480
2020/01/31 01:53:46.3	93.850	-0.330	0.650	-0.390
2020/01/31 01:53:46.4	93.850	-0.360	0.680	-0.290
2020/01/31 01:53:46.5	93.860	-0.390	0.700	-0.190
2020/01/31 01:53:46.6	93.860	-0.410	0.720	-0.090
2020/01/31 01:53:46.7	93.870	-0.440	0.740	0.020
2020/01/31 01:53:46.8	93.870	-0.460	0.750	0.130
2020/01/31 01:53:46.9	93.880	-0.480	0.750	0.240
2020/01/31 01:53:47.0	93.890	-0.500	0.750	0.360
2020/01/31 01:53:47.1	93.900	-0.510	0.740	0.480
2020/01/31 01:53:47.2	93.910	-0.530	0.720	0.600
2020/01/31 01:53:47.3	93.920	-0.540	0.700	0.720
2020/01/31 01:53:47.4	93.920	-0.550	0.680	0.840
2020/01/31 01:53:47.5	93.930	-0.560	0.650	0.960
2020/01/31 01:53:47.6	93.940	-0.560	0.610	1.070
2020/01/31 01:53:47.7	93.950	-0.560	0.570	1.190
2020/01/31 01:53:47.8	93.960	-0.570	0.530	1.310
2020/01/31 01:53:47.9	93.980	-0.560	0.480	1.420
2020/01/31 01:53:48.0	93.990	-0.560	0.420	1.540
2020/01/31 01:53:48.1	94.000	-0.560	0.370	1.650
2020/01/31 01:53:48.2	94.020	-0.550	0.320	1.760
2020/01/31 01:53:48.3	94.030	-0.540	0.260	1.860
2020/01/31 01:53:48.4	94.050	-0.530	0.210	1.960
2020/01/31 01:53:48.5	94.060	-0.520	0.150	2.060
2020/01/31 01:53:48.6	94.080	-0.500	0.090	2.150
2020/01/31 01:53:48.7	94.090	-0.490	0.040	2.230
2020/01/31 01:53:48.8	94.110	-0.470	-0.020	2.310
2020/01/31 01:53:48.9	94.120	-0.450	-0.070	2.390
2020/01/31 01:53:49.0	94.150	-0.440	-0.120	2.470
2020/01/31 01:53:49.1	94.170	-0.420	-0.170	2.530
2020/01/31 01:53:49.2	94.180	-0.400	-0.220	2.600
2020/01/31 01:53:49.3	94.190	-0.370	-0.270	2.650
2020/01/31 01:53:49.4	94.210	-0.350	-0.310	2.710
2020/01/31 01:53:49.5	94.220	-0.330	-0.350	2.750
2020/01/31 01:53:49.6	94.230	-0.310	-0.390	2.800
2020/01/31 01:53:49.7	94.240	-0.280	-0.420	2.840
2020/01/31 01:53:49.8	94.240	-0.260	-0.450	2.870
2020/01/31 01:53:49.9	94.250	-0.230	-0.480	2.900
2020/01/31 01:53:50.0	94.270	-0.210	-0.500	2.920
2020/01/31 01:53:50.1	94.280	-0.180	-0.520	2.940
2020/01/31 01:53:50.2	94.280	-0.150	-0.540	2.960
2020/01/31 01:53:50.3	94.280	-0.130	-0.560	2.970
2020/01/31 01:53:50.4	94.280	-0.100	-0.570	2.980
2020/01/31 01:53:50.5	94.280	-0.070	-0.580	2.980
2020/01/31 01:53:50.6	94.280	-0.050	-0.590	2.970
2020/01/31 01:53:50.7	94.280	-0.020	-0.590	2.970
2020/01/31 01:53:50.8	94.280	0.010	-0.600	2.950
2020/01/31 01:53:50.9	94.280	0.040	-0.600	2.940
2020/01/31 01:53:51.0	94.290	0.060	-0.600	2.920
2020/01/31 01:53:51.1	94.290	0.090	-0.600	2.890
2020/01/31 01:53:51.2	94.280	0.120	-0.600	2.860
2020/01/31 01:53:51.3	94.280	0.150	-0.600	2.830
2020/01/31 01:53:51.4	94.280	0.180	-0.600	2.790
2020/01/31 01:53:51.5	94.280	0.200	-0.600	2.750
2020/01/31 01:53:51.6	94.270	0.230	-0.600	2.700
2020/01/31 01:53:51.7	94.270	0.260	-0.600	2.650
2020/01/31 01:53:51.8	94.270	0.290	-0.600	2.600
2020/01/31 01:53:51.9	94.270	0.310	-0.600	2.540
2020/01/31 01:53:52.0	94.290	0.340	-0.600	2.480
2020/01/31 01:53:52.1	94.290	0.360	-0.600	2.420
2020/01/31 01:53:52.2	94.290	0.390	-0.600	2.350
2020/01/31 01:53:52.3	94.290	0.410	-0.600	2.280
2020/01/31 01:53:52.4	94.290	0.430	-0.590	2.210
2020/01/31 01:53:52.5	94.290	0.450	-0.590	2.130
2020/01/31 01:53:52.6	94.290	0.470	-0.590	2.060
2020/01/31 01:53:52.7	94.290	0.490	-0.580	1.980
2020/01/31 01:53:52.8	94.280	0.510	-0.570	1.910
2020/01/31 01:53:52.9	94.280	0.520	-0.560	1.830
2020/01/31 01:53:53.0	94.280	0.530	-0.550	1.750
2020/01/31 01:53:53.1	94.280	0.540	-0.540	1.670
2020/01/31 01:53:53.2	94.270	0.550	-0.520	1.590
2020/01/31 01:53:53.3	94.260	0.560	-0.510	1.510
2020/01/31 01:53:53.4	94.250	0.560	-0.490	1.430
2020/01/31 01:53:53.5	94.240	0.560	-0.480	1.350
2020/01/31 01:53:53.6	94.230	0.560	-0.460	1.270
2020/01/31 01:53:53.7	94.210	0.550	-0.430	1.190
2020/01/31 01:53:53.8	94.200	0.540	-0.410	1.110
2020/01/31 01:53:53.9	94.180	0.530	-0.390	1.030
2020/01/31 01:53:54.0	94.140	0.520	-0.360	0.950
2020/01/31 01:53:54.1	94.120	0.510	-0.340	0.870
2020/01/31 01:53:54.2	94.100	0.490	-0.310	0.800
2020/01/31 01:53:54.3	94.070	0.470	-0.280	0.720
2020/01/31 01:53:54.4	94.040	0.450	-0.250	0.640
2020/01/31 01:53:54.5	94.020	0.420	-0.210	0.560
2020/01/31 01:53:54.6	93.990	0.400	-0.180	0.480
2020/01/31 01:53:54.7	93.960	0.370	-0.150	0.400
2020/01/31 01:53:54.8	93.930	0.340	-0.120	0.320
2020/01/31 01:53:54.9	93.910	0.300	-0.080	0.240
2020/01/31 01:53:55.0	93.860	0.270	-0.040	0.160
2020/01/31 01:53:55.1	93.830	0.230	-0.010	0.080
2020/01/31 01:53:55.2	93.800	0.200	0.020	-0.000
2020/01/31 01:53:55.3	93.780	0.160	0.050	-0.080
2020/01/31 01:53:55.4	93.750	0.120	0.090	-0.160
2020/01/31 01:53:55.5	93.730	0.080	0.120	-0.240
2020/01/31 01:53:55.6	93.710	0.040	0.150	-0.320
2020/01/31 01:53:55.7	93.700	-0.000	0.180	-0.400
2020/01/31 01:53:55.8	93.680	-0.040	0.210	-0.470
2020/01/31 01:53:55.9	93.670	-0.080	0.240	-0.550
2020/01/31 01:53:56.0	93.650	-0.120	0.270	-0.630
2020/01/31 01:53:56.1	93.640	-0.160	0.290	-0.700
2020/01/31 01:53:56.2	93.640	-0.200	0.320	-0.770
2020/01/31 01:53:56.3	93.630	-0.230	0.340	-0.830
2020/01/31 01:53:56.4	93.630	-0.270	0.360	-0.900
2020/01/31 01:53:56.5	93.630	-0.300	0.380	-0.960
2020/01/31 01:53:56.6	93.630	-0.330	0.400	-1.010
2020/01/31 01:53:56.7	93.640	-0.360	0.410	-1.060
2020/01/31 01:53:56.8	93.640	-0.390	0.430	-1.110
2020/01/31 01:53:56.9	93.650	-0.410	0.440	-1.160
2020/01/31 01:53:57.0	93.650	-0.440	0.450	-1.190
2020/01/31 01:53:57.1	93.670	-0.450	0.450	-1.230
2020/01/31 01:53:57.2	93.680	-0.470	0.460	-1.260
2020/01/31 01:53:57.3	93.700	-0.480	0.460	-1.280
2020/01/31 01:53:57.4	93.720	-0.500	0.450	-1.300
2020/01/31 01:53:57.5	93.740	-0.500	0.450	-1.320
2020/01/31 01:53:57.6	93.760	-0.510	0.440	-1.330
2020/01/31 01:53:57.7	93.780	-0.510	0.430	-1.340
2020/01/31 01:53:57.8	93.810	-0.510	0.420	-1.340
2020/01/31 01:53:57.9	93.830	-0.500	0.400	-1.340
2020/01/31 01:53:58.0	93.850	-0.500	0.380	-1.330
2020/01/31 01:53:58.1	93.880	-0.480	0.360	-1.310
2020/01/31 01:53:58.2	93.910	-0.470	0.330	-1.300
2020/01/31 01:53:58.3	93.950	-0.460	0.310	-1.280
2020/01/31 01:53:58.4	93.980	-0.440	0.280	-1.250
2020/01/31 01:53:58.5	94.010	-0.420	0.240	-1.230
2020/01/31 01:53:58.6	94.050	-0.390	0.210	-1.190
2020/01/31 01:53:58.7	94.080	-0.370	0.170	-1.160
2020/01/31 01:53:58.8	94.120	-0.340	0.130	-1.120
2020/01/31 01:53:58.9	94.150	-0.310	0.090	-1.070
2020/01/31 01:53:59.0	94.190	-0.280	0.050	-1.020
2020/01/31 01:53:59.1	94.230	-0.250	0.010	-0.970
2020/01/31 01:53:59.2	94.260	-0.220	-0.040	-0.920
2020/01/31 01:53:59.3	94.290	-0.190	-0.080	-0.860
2020/01/31 01:53:59.4	94.320	-0.150	-0.130	-0.800
2020/01/31 01:53:59.5	94.350	-0.120	-0.170	-0.730
2020/01/31 01:53:59.6	94.380	-0.090	-0.220	-0.670
2020/01/31 01:53:59.7	94.400	-0.060	-0.260	-0.600
2020/01/31 01:53:59.8	94.430	-0.020	-0.310	-0.520
2020/01/31 01:53:59.9	94.450	0.010	-0.350	-0.450
2020/01/31 01:54:00.0	94.460	0.040	-0.390	-0.360
2020/01/31 01:54:00.1	94.480	0.070	-0.440	-0.280
2020/01/31 01:54:00.2	94.490	0.100	-0.470	-0.190
2020/01/31 01:54:00.3	94.500	0.120	-0.510	-0.100
2020/01/31 01:54:00.4	94.510	0.150	-0.550	-0.010
2020/01/31 01:54:00.5	94.510	0.170	-0.580	0.090
2020/01/31 01:54:00.6	94.510	0.200	-0.610	0.190
2020/01/31 01:54:00.7	94.510	0.220	-0.640	0.290
2020/01/31 01:54:00.8	94.500	0.240	-0.660	0.400
2020/01/31 01:54:00.9	94.490	0.250	-0.680	0.510
2020/01/31 01:54:01.0	94.470	0.270	-0.700	0.620
2020/01/31 01:54:01.1	94.460	0.280	-0.720	0.730
2020/01/31 01:54:01.2	94.440	0.300	-0.730	0.850
2020/01/31 01:54:01.3	94.420	0.310	-0.740	0.960
2020/01/31 01:54:01.4	94.390	0.310	-0.740	1.080
2020/01/31 01:54:01.5	94.370	0.320	-0.740	1.190
2020/01/31 01:54:01.6	94.340	0.330	-0.740	1.310
2020/01/31 01:54:01.7	94.310	0.330	-0.740	1.420
2020/01/31 01:54:01.8	94.280	0.330	-0.730	1.540
2020/01/31 01:54:01.9	94.250	0.340	-0.720	1.650
2020/01/31 01:54:02.0	94.230	0.340	-0.710	1.770
2020/01/31 01:54:02.1	94.200	0.340	-0.700	1.880
2020/01/31 01:54:02.2	94.170	0.330	-0.680	1.980
2020/01/31 01:54:02.3	94.130	0.330	-0.660	2.090
2020/01/31 01:54:02.4	94.100	0.330	-0.640	2.190
2020/01/31 01:54:02.5	94.060	0.330	-0.610	2.280
2020/01/31 01:54:02.6	94.030	0.320	-0.580	2.370
2020/01/31 01:54:02.7	94.000	0.320	-0.550	2.460
2020/01/31 01:54:02.8	93.960	0.310	-0.520	2.550
2020/01/31 01:54:02.9	93.930	0.310	-0.490	2.630
2020/01/31 01:54:03.0	93.920	0.300	-0.450	2.700
2020/01/31 01:54:03.1	93.890	0.290	-0.410	2.770
2020/01/31 01:54:03.2	93.860	0.290	-0.370	2.840
2020/01/31 01:54:03.3	93.830	0.280	-0.330	2.890
2020/01/31 01:54:03.4	93.810	0.270	-0.290	2.940
2020/01/31 01:54:03.5	93.780	0.260	-0.250	2.990
2020/01/31 01:54:03.6	93.760	0.250	-0.200	3.030
2020/01/31 01:54:03.7	93.730	0.240	-0.160	3.060
2020/01/31 01:54:03.8	93.710	0.230	-0.110	3.090
2020/01/31 01:54:03.9	93.700	0.220	-0.070	3.110
2020/01/31 01:54:04.0	93.690	0.210	-0.030	3.120
2020/01/31 01:54:04.1	93.680	0.200	0.010	3.130
2020/01/31 01:54:04.2	93.670	0.190	0.050	3.120
2020/01/31 01:54:04.3	93.670	0.180	0.090	3.110
2020/01/31 01:54:04.4	93.660	0.160	0.130	3.090
2020/01/31 01:54:04.5	93.660	0.150	0.170	3.070
2020/01/31 01:54:04.6	93.670	0.140	0.200	3.040
2020/01/31 01:54:04.7	93.670	0.120	0.230	3.000
2020/01/31 01:54:04.8	93.680	0.110	0.260	2.950
2020/01/31 01:54:04.9	93.690	0.090	0.290	2.890
2020/01/31 01:54:05.0	93.720	0.080	0.310	2.830
2020/01/31 01:54:05.1	93.740	0.060	0.330	2.760
2020/01/31 01:54:05.2	93.760	0.040	0.340	2.690
2020/01/31 01:54:05.3	93.780	0.030	0.350	2.610
2020/01/31 01:54:05.4	93.800	0.010	0.360	2.530
2020/01/31 01:54:05.5	93.830	-0.010	0.360	2.440
2020/01/31 01:54:05.6	93.850	-0.020	0.360	2.350
2020/01/31 01:54:05.7	93.880	-0.040	0.350	2.260
2020/01/31 01:54:05.8	93.910	-0.050	0.340	2.160
2020/01/31 01:54:05.9	93.940	-0.070	0.330	2.060
2020/01/31 01:54:06.0	93.980	-0.090	0.310	1.960
2020/01/31 01:54:06.1	94.010	-0.100	0.290	1.860
2020/01/31 01:54:06.2	94.040	-0.120	0.260	1.760
2020/01/31 01:54:06.3	94.070	-0.130	0.230	1.660
2020/01/31 01:54:06.4	94.090	-0.150	0.200	1.560
2020/01/31 01:54:06.5	94.120	-0.160	0.170	1.460
2020/01/31 01:54:06.6	94.140	-0.170	0.130	1.370
2020/01/31 01:54:06.7	94.170	-0.190	0.090	1.280
2020/01/31 01:54:06.8	94.190	-0.200	0.050	1.190
2020/01/31 01:54:06.9	94.200	-0.210	0.010	1.100
2020/01/31 01:54:07.0	94.210	-0.220	-0.030	1.010
2020/01/31 01:54:07.1	94.230	-0.240	-0.070	0.930
2020/01/31 01:54:07.2	94.230	-0.250	-0.110	0.860
2020/01/31 01:54:07.3	94.240	-0.260	-0.150	0.790
2020/01/31 01:54:07.4	94.250	-0.270	-0.190	0.720
2020/01/31 01:54:07.5	94.250	-0.280	-0.230	0.650
2020/01/31 01:54:07.6	94.250	-0.290	-0.260	0.590
2020/01/31 01:54:07.7	94.250	-0.300	-0.290	0.540
2020/01/31 01:54:07.8	94.240	-0.310	-0.330	0.480
2020/01/31 01:54:07.9	94.230	-0.310	-0.350	0.430
2020/01/31 01:54:08.0	94.210	-0.320	-0.380	0.380
2020/01/31 01:54:08.1	94.200	-0.330	-0.400	0.330
2020/01/31 01:54:08.2	94.190	-0.330	-0.420	0.290
2020/01/31 01:54:08.3	94.180	-0.340	-0.440	0.250
2020/01/31 01:54:08.4	94.160	-0.340	-0.450	0.210
2020/01/31 01:54:08.5	94.150	-0.340	-0.460	0.170
2020/01/31 01:54:08.6	94.140	-0.350	-0.470	0.130
2020/01/31 01:54:08.7	94.120	-0.350	-0.480	0.090
2020/01/31 01:54:08.8	94.110	-0.340	-0.480	0.050
2020/01/31 01:54:08.9	94.090	-0.340	-0.480	0.010
2020/01/31 01:54:09.0	94.070	-0.340	-0.470	-0.030
2020/01/31 01:54:09.1	94.050	-0.330	-0.470	-0.060
2020/01/31 01:54:09.2	94.040	-0.330	-0.460	-0.100
2020/01/31 01:54:09.3	94.030	-0.320	-0.450	-0.140
2020/01/31 01:54:09.4	94.010	-0.300	-0.430	-0.170
2020/01/31 01:54:09.5	94.000	-0.290	-0.420	-0.210
2020/01/31 01:54:09.6	93.990	-0.280	-0.410	-0.240
2020/01/31 01:54:09.7	93.980	-0.260	-0.390	-0.270
2020/01/31 01:54:09.8	93.970	-0.240	-0.380	-0.310
2020/01/31 01:54:09.9	93.950	-0.220	-0.360	-0.330
2020/01/31 01:54:10.0	93.910	-0.200	-0.340	-0.360
2020/01/31 01:54:10.1	93.900	-0.170	-0.330	-0.390
2020/01/31 01:54:10.2	93.890	-0.150	-0.310	-0.410
2020/01/31 01:54:10.3	93.880	-0.120	-0.300	-0.430
2020/01/31 01:54:10.4	93.870	-0.090	-0.290	-0.450
2020/01/31 01:54:10.5	93.860	-0.060	-0.280	-0.470
2020/01/31 01:54:10.6	93.850	-0.030	-0.270	-0.480
2020/01/31 01:54:10.7	93.840	0.000	-0.260	-0.490
2020/01/31 01:54:10.8	93.830	0.040	-0.250	-0.500
2020/01/31 01:54:10.9	93.820	0.070	-0.240	-0.510
2020/01/31 01:54:11.0	93.820	0.100	-0.230	-0.510
2020/01/31 01:54:11.1	93.820	0.130	-0.220	-0.520
2020/01/31 01:54:11.2	93.810	0.160	-0.220	-0.520
2020/01/31 01:54:11.3	93.810	0.200	-0.210	-0.520
2020/01/31 01:54:11.4	93.810	0.220	-0.210	-0.520
2020/01/31 01:54:11.5	93.810	0.250	-0.210	-0.520
2020/01/31 01:54:11.6	93.810	0.280	-0.200	-0.520
2020/01/31 01:54:11.7	93.810	0.300	-0.200	-0.510
2020/01/31 01:54:11.8	93.820	0.320	-0.190	-0.510
2020/01/31 01:54:11.9	93.820	0.340	-0.180	-0.500
2020/01/31 01:54:12.0	93.820	0.360	-0.180	-0.490
2020/01/31 01:54:12.1	93.830	0.370	-0.170	-0.480
2020/01/31 01:54:12.2	93.850	0.390	-0.160	-0.480
2020/01/31 01:54:12.3	93.860	0.390	-0.150	-0.470
2020/01/31 01:54:12.4	93.870	0.400	-0.140	-0.460
2020/01/31 01:54:12.5	93.890	0.400	-0.120	-0.440
2020/01/31 01:54:12.6	93.900	0.400	-0.100	-0.430
2020/01/31 01:54:12.7	93.920	0.400	-0.080	-0.410
2020/01/31 01:54:12.8	93.930	0.390	-0.060	-0.400
2020/01/31 01:54:12.9	93.950	0.380	-0.040	-0.380
2020/01/31 01:54:13.0	93.950	0.370	-0.010	-0.360
2020/01/31 01:54:13.1	93.970	0.350	0.010	-0.330
2020/01/31 01:54:13.2	93.990	0.330	0.040	-0.310
2020/01/31 01:54:13.3	94.000	0.310	0.070	-0.280
2020/01/31 01:54:13.4	94.020	0.290	0.090	-0.240
2020/01/31 01:54:13.5	94.030	0.270	0.120	-0.210
2020/01/31 01:54:13.6	94.040	0.240	0.150	-0.170
2020/01/31 01:54:13.7	94.060	0.220	0.180	-0.130
2020/01/31 01:54:13.8	94.070	0.190	0.200	-0.090
2020/01/31 01:54:13.9	94.080	0.160	0.230	-0.040
2020/01/31 01:54:14.0	94.090	0.130	0.250	0.020
2020/01/31 01:54:14.1	94.090	0.110	0.270	0.070
2020/01/31 01:54:14.2	94.100	0.080	0.290	0.130
2020/01/31 01:54:14.3	94.100	0.050	0.310	0.190
2020/01/31 01:54:14.4	94.100	0.030	0.320	0.250
2020/01/31 01:54:14.5	94.100	0.000	0.330	0.310
2020/01/31 01:54:14.6	94.100	-0.020	0.330	0.380
2020/01/31 01:54:14.7	94.100	-0.040	0.340	0.450
2020/01/31 01:54:14.8	94.090	-0.060	0.330	0.520
2020/01/31 01:54:14.9	94.090	-0.080	0.330	0.590
2020/01/31 01:54:15.0	94.090	-0.100	0.310	0.660
2020/01/31 01:54:15.1	94.090	-0.110	0.300	0.730
2020/01/31 01:54:15.2	94.080	-0.120	0.280	0.800
2020/01/31 01:54:15.3	94.080	-0.130	0.260	0.870
2020/01/31 01:54:15.4	94.070	-0.130	0.230	0.940
2020/01/31 01:54:15.5	94.070	-0.130	0.200	1.010
2020/01/31 01:54:15.6	94.060	-0.130	0.160	1.080
2020/01/31 01:54:15.7	94.060	-0.130	0.130	1.150
2020/01/31 01:54:15.8	94.050	-0.120	0.080	1.210
2020/01/31 01:54:15.9	94.050	-0.110	0.040	1.280
2020/01/31 01:54:16.0	94.070	-0.100	-0.010	1.340
2020/01/31 01:54:16.1	94.070	-0.090	-0.060	1.400
2020/01/31 01:54:16.2	94.070	-0.070	-0.110	1.460
2020/01/31 01:54:16.3	94.070	-0.060	-0.160	1.520
2020/01/31 01:54:16.4	94.070	-0.040	-0.220	1.580
2020/01/31 01:54:16.5	94.080	-0.020	-0.270	1.640
2020/01/31 01:54:16.6	94.080	0.000	-0.330	1.690
2020/01/31 01:54:16.7	94.090	0.020	-0.390	1.750
2020/01/31 01:54:16.8	94.090	0.040	-0.440	1.810
2020/01/31 01:54:16.9	94.100	0.060	-0.490	1.860
2020/01/31 01:54:17.0	94.120	0.090	-0.550	1.910
2020/01/31 01:54:17.1	94.130	0.110	-0.600	1.970
2020/01/31 01:54:17.2	94.130	0.130	-0.640	2.020
2020/01/31 01:54:17.3	94.140	0.140	-0.680	2.070
2020/01/31 01:54:17.4	94.150	0.160	-0.720	2.120
2020/01/31 01:54:17.5	94.160	0.180	-0.760	2.170
2020/01/31 01:54:17.6	94.160	0.190	-0.790	2.220
2020/01/31 01:54:17.7	94.170	0.200	-0.810	2.270
2020/01/31 01:54:17.8	94.180	0.210	-0.830	2.310
2020/01/31 01:54:17.9	94.190	0.220	-0.840	2.350
2020/01/31 01:54:18.0	94.210	0.230	-0.850	2.400
2020/01/31 01:54:18.1	94.210	0.230	-0.850	2.430
2020/01/31 01:54:18.2	94.220	0.230	-0.850	2.460
2020/01/31 01:54:18.3	94.230	0.230	-0.840	2.490
2020/01/31 01:54:18.4	94.240	0.230	-0.820	2.520
2020/01/31 01:54:18.5	94.240	0.220	-0.800	2.540
2020/01/31 01:54:18.6	94.250	0.210	-0.770	2.550
2020/01/31 01:54:18.7	94.260	0.200	-0.740	2.560
2020/01/31 01:54:18.8	94.270	0.190	-0.700	2.570
2020/01/31 01:54:18.9	94.270	0.170	-0.650	2.570
2020/01/31 01:54:19.0	94.280	0.150	-0.600	2.560
2020/01/31 01:54:19.1	94.290	0.130	-0.540	2.550
2020/01/31 01:54:19.2	94.300	0.110	-0.480	2.530
2020/01/31 01:54:19.3	94.300	0.090	-0.420	2.520
2020/01/31 01:54:19.4	94.310	0.060	-0.350	2.490
2020/01/31 01:54:19.5	94.310	0.040	-0.280	2.470
2020/01/31 01:54:19.6	94.320	0.010	-0.200	2.440
2020/01/31 01:54:19.7	94.320	-0.020	-0.130	2.400
2020/01/31 01:54:19.8	94.330	-0.050	-0.050	2.360
2020/01/31 01:54:19.9	94.330	-0.080	0.020	2.320
2020/01/31 01:54:20.0	94.350	-0.100	0.100	2.280
2020/01/31 01:54:20.1	94.350	-0.130	0.170	2.230
2020/01/31 01:54:20.2	94.350	-0.160	0.250	2.180
2020/01/31 01:54:20.3	94.350	-0.190	0.320	2.130
2020/01/31 01:54:20.4	94.350	-0.210	0.380	2.080
2020/01/31 01:54:20.5	94.350	-0.240	0.440	2.020
2020/01/31 01:54:20.6	94.350	-0.260	0.500	1.960
2020/01/31 01:54:20.7	94.350	-0.280	0.550	1.900
2020/01/31 01:54:20.8	94.350	-0.300	0.600	1.840
2020/01/31 01:54:20.9	94.350	-0.320	0.640	1.770
2020/01/31 01:54:21.0	94.350	-0.330	0.670	1.700
2020/01/31 01:54:21.1	94.340	-0.350	0.700	1.630
2020/01/31 01:54:21.2	94.340	-0.360	0.720	1.560
2020/01/31 01:54:21.3	94.330	-0.370	0.730	1.490
2020/01/31 01:54:21.4	94.330	-0.370	0.730	1.420
2020/01/31 01:54:21.5	94.320	-0.380	0.720	1.340
2020/01/31 01:54:21.6	94.310	-0.380	0.710	1.270
2020/01/31 01:54:21.7	94.310	-0.380	0.690	1.190
2020/01/31 01:54:21.8	94.300	-0.370	0.650	1.110
2020/01/31 01:54:21.9	94.290	-0.360	0.620	1.030
2020/01/31 01:54:22.0	94.260	-0.350	0.570	0.950
2020/01/31 01:54:22.1	94.250	-0.340	0.520	0.870
2020/01/31 01:54:22.2	94.250	-0.320	0.460	0.780
2020/01/31 01:54:22.3	94.240	-0.300	0.390	0.700
2020/01/31 01:54:22.4	94.240	-0.280	0.320	0.610
2020/01/31 01:54:22.5	94.240	-0.250	0.240	0.520
2020/01/31 01:54:22.6	94.240	-0.220	0.160	0.430
2020/01/31 01:54:22.7	94.240	-0.200	0.080	0.340
2020/01/31 01:54:22.8	94.240	-0.160	-0.010	0.250
2020/01/31 01:54:22.9	94.250	-0.130	-0.100	0.160
2020/01/31 01:54:23.0	94.240	-0.100	-0.200	0.060
2020/01/31 01:54:23.1	94.250	-0.060	-0.290	-0.040
2020/01/31 01:54:23.2	94.260	-0.030	-0.380	-0.130
2020/01/31 01:54:23.3	94.270	0.010	-0.470	-0.230
2020/01/31 01:54:23.4	94.290	0.050	-0.560	-0.320
2020/01/31 01:54:23.5	94.310	0.080	-0.650	-0.420
2020/01/31 01:54:23.6	94.320	0.120	-0.740	-0.510
2020/01/31 01:54:23.7	94.340	0.150	-0.820	-0.600
2020/01/31 01:54:23.8	94.360	0.190	-0.890	-0.680
2020/01/31 01:54:23.9	94.380	0.220	-0.960	-0.770
2020/01/31 01:54:24.0	94.390	0.250	-1.030	-0.840
2020/01/31 01:54:24.1	94.410	0.280	-1.090	-0.920
2020/01/31 01:54:24.2	94.430	0.310	-1.140	-0.990
2020/01/31 01:54:24.3	94.450	0.330	-1.190	-1.050
2020/01/31 01:54:24.4	94.470	0.350	-1.220	-1.110
2020/01/31 01:54:24.5	94.490	0.370	-1.250	-1.160
2020/01/31 01:54:24.6	94.500	0.390	-1.270	-1.210
2020/01/31 01:54:24.7	94.520	0.400	-1.280	-1.240
2020/01/31 01:54:24.8	94.540	0.410	-1.290	-1.270
2020/01/31 01:54:24.9	94.550	0.420	-1.280	-1.290
2020/01/31 01:54:25.0	94.560	0.420	-1.260	-1.310
2020/01/31 01:54:25.1	94.570	0.420	-1.240	-1.310
2020/01/31 01:54:25.2	94.580	0.410	-1.200	-1.310
2020/01/31 01:54:25.3	94.590	0.400	-1.160	-1.300
2020/01/31 01:54:25.4	94.600	0.390	-1.110	-1.280
2020/01/31 01:54:25.5	94.600	0.380	-1.050	-1.260
2020/01/31 01:54:25.6	94.610	0.360	-0.980	-1.230
2020/01/31 01:54:25.7	94.610	0.340	-0.910	-1.190
2020/01/31 01:54:25.8	94.610	0.310	-0.830	-1.140
2020/01/31 01:54:25.9	94.600	0.280	-0.740	-1.090
2020/01/31 01:54:26.0	94.610	0.250	-0.650	-1.030
2020/01/31 01:54:26.1	94.610	0.220	-0.550	-0.970
2020/01/31 01:54:26.2	94.600	0.190	-0.450	-0.900
2020/01/31 01:54:26.3	94.600	0.150	-0.340	-0.830
2020/01/31 01:54:26.4	94.590	0.110	-0.230	-0.750
2020/01/31 01:54:26.5	94.580	0.070	-0.120	-0.680
2020/01/31 01:54:26.6	94.570	0.030	-0.010	-0.600
2020/01/31 01:54:26.7	94.560	-0.020	0.110	-0.510
2020/01/31 01:54:26.8	94.540	-0.060	0.220	-0.430
2020/01/31 01:54:26.9	94.530	-0.110	0.340	-0.340
2020/01/31 01:54:27.0	94.510	-0.150	0.450	-0.250
2020/01/31 01:54:27.1	94.490	-0.200	0.560	-0.160
2020/01/31 01:54:27.2	94.470	-0.240	0.670	-0.070
2020/01/31 01:54:27.3	94.460	-0.290	0.770	0.010
2020/01/31 01:54:27.4	94.440	-0.330	0.870	0.100
2020/01/31 01:54:27.5	94.420	-0.370	0.970	0.190
2020/01/31 01:54:27.6	94.410	-0.420	1.050	0.280
2020/01/31 01:54:27.7	94.390	-0.450	1.130	0.370
2020/01/31 01:54:27.8	94.370	-0.490	1.200	0.450
2020/01/31 01:54:27.9	94.360	-0.520	1.260	0.540
2020/01/31 01:54:28.0	94.340	-0.550	1.310	0.620
2020/01/31 01:54:28.1	94.320	-0.580	1.360	0.710
2020/01/31 01:54:28.2	94.310	-0.610	1.390	0.780
2020/01/31 01:54:28.3	94.300	-0.630	1.410	0.860
2020/01/31 01:54:28.4	94.290	-0.640	1.420	0.930
2020/01/31 01:54:28.5	94.280	-0.650	1.420	1.000
2020/01/31 01:54:28.6	94.270	-0.660	1.400	1.070
2020/01/31 01:54:28.7	94.260	-0.660	1.380	1.140
2020/01/31 01:54:28.8	94.260	-0.660	1.340	1.200
2020/01/31 01:54:28.9	94.260	-0.650	1.290	1.260
2020/01/31 01:54:29.0	94.280	-0.630	1.230	1.310
2020/01/31 01:54:29.1	94.280	-0.620	1.150	1.360
2020/01/31 01:54:29.2	94.290	-0.590	1.070	1.410
2020/01/31 01:54:29.3	94.300	-0.560	0.970	1.460
2020/01/31 01:54:29.4	94.310	-0.530	0.860	1.500
2020/01/31 01:54:29.5	94.320	-0.490	0.750	1.540
2020/01/31 01:54:29.6	94.340	-0.450	0.620	1.580
2020/01/31 01:54:29.7	94.350	-0.400	0.490	1.620
2020/01/31 01:54:29.8	94.370	-0.350	0.350	1.650
2020/01/31 01:54:29.9	94.390	-0.290	0.200	1.680
2020/01/31 01:54:30.0	94.430	-0.230	0.040	1.710
2020/01/31 01:54:30.1	94.450	-0.170	-0.120	1.740
2020/01/31 01:54:30.2	94.470	-0.110	-0.280	1.770
2020/01/31 01:54:30.3	94.500	-0.040	-0.440	1.790
2020/01/31 01:54:30.4	94.520	0.030	-0.600	1.810
2020/01/31 01:54:30.5	94.550	0.100	-0.760	1.830
2020/01/31 01:54:30.6	94.580	0.170	-0.920	1.850
2020/01/31 01:54:30.7	94.610	0.240	-1.070	1.860
2020/01/31 01:54:30.8	94.640	0.300	-1.220	1.870
2020/01/31 01:54:30.9	94.670	0.370	-1.370	1.880
2020/01/31 01:54:31.0	94.720	0.440	-1.510	1.890
2020/01/31 01:54:31.1	94.750	0.510	-1.630	1.900
2020/01/31 01:54:31.2	94.780	0.570	-1.750	1.900
2020/01/31 01:54:31.3	94.810	0.630	-1.860	1.910
2020/01/31 01:54:31.4	94.840	0.690	-1.950	1.910
2020/01/31 01:54:31.5	94.870	0.740	-2.030	1.910
2020/01/31 01:54:31.6	94.900	0.790	-2.100	1.910
2020/01/31 01:54:31.7	94.930	0.830	-2.150	1.910
2020/01/31 01:54:31.8	94.950	0.870	-2.180	1.910
2020/01/31 01:54:31.9	94.980	0.900	-2.200	1.910
2020/01/31 01:54:32.0	94.990	0.930	-2.200	1.920
2020/01/31 01:54:32.1	95.010	0.950	-2.190	1.920
2020/01/31 01:54:32.2	95.020	0.970	-2.150	1.930
2020/01/31 01:54:32.3	95.030	0.980	-2.110	1.930
2020/01/31 01:54:32.4	95.040	0.980	-2.040	1.940
2020/01/31 01:54:32.5	95.050	0.970	-1.960	1.940
2020/01/31 01:54:32.6	95.050	0.960	-1.870	1.950
2020/01/31 01:54:32.7	95.050	0.940	-1.760	1.960
2020/01/31 01:54:32.8	95.050	0.920	-1.640	1.970
2020/01/31 01:54:32.9	95.040	0.890	-1.500	1.980
2020/01/31 01:54:33.0	95.030	0.850	-1.350	1.990
2020/01/31 01:54:33.1	95.010	0.810	-1.200	2.000
2020/01/31 01:54:33.2	95.000	0.760	-1.030	2.010
2020/01/31 01:54:33.3	94.980	0.710	-0.860	2.020
2020/01/31 01:54:33.4	94.950	0.660	-0.680	2.020
2020/01/31 01:54:33.5	94.930	0.600	-0.500	2.030
2020/01/31 01:54:33.6	94.900	0.530	-0.310	2.040
2020/01/31 01:54:33.7	94.860	0.460	-0.120	2.040
2020/01/31 01:54:33.8	94.830	0.390	0.070	2.050
2020/01/31 01:54:33.9	94.800	0.320	0.250	2.050
2020/01/31 01:54:34.0	94.770	0.250	0.450	2.050
2020/01/31 01:54:34.1	94.740	0.170	0.630	2.040
2020/01/31 01:54:34.2	94.700	0.100	0.800	2.030
2020/01/31 01:54:34.3	94.660	0.020	0.970	2.020
2020/01/31 01:54:34.4	94.610	-0.050	1.130	2.010
2020/01/31 01:54:34.5	94.570	-0.130	1.280	1.990
2020/01/31 01:54:34.6	94.530	-0.200	1.420	1.960
2020/01/31 01:54:34.7	94.490	-0.270	1.540	1.940
2020/01/31 01:54:34.8	94.450	-0.330	1.660	1.900
2020/01/31 01:54:34.9	94.410	-0.400	1.760	1.870
2020/01/31 01:54:35.0	94.370	-0.460	1.850	1.820
2020/01/31 01:54:35.1	94.330	-0.520	1.920	1.770
2020/01/31 01:54:35.2	94.300	-0.570	1.970	1.720
2020/01/31 01:54:35.3	94.260	-0.620	2.010	1.670
2020/01/31 01:54:35.4	94.230	-0.660	2.030	1.610
2020/01/31 01:54:35.5	94.200	-0.700	2.040	1.550
2020/01/31 01:54:35.6	94.170	-0.730	2.030	1.480
2020/01/31 01:54:35.7	94.150	-0.750	2.000	1.400
2020/01/31 01:54:35.8	94.130	-0.770	1.960	1.330
2020/01/31 01:54:35.9	94.110	-0.790	1.900	1.240
2020/01/31 01:54:36.0	94.080	-0.800	1.830	1.160
2020/01/31 01:54:36.1	94.070	-0.800	1.740	1.070
2020/01/31 01:54:36.2	94.060	-0.800	1.640	0.980
2020/01/31 01:54:36.3	94.050	-0.790	1.520	0.880
2020/01/31 01:54:36.4	94.050	-0.770	1.400	0.780
2020/01/31 01:54:36.5	94.050	-0.750	1.260	0.670
2020/01/31 01:54:36.6	94.050	-0.730	1.120	0.560
2020/01/31 01:54:36.7	94.060	-0.700	0.960	0.450
2020/01/31 01:54:36.8	94.070	-0.670	0.800	0.330
2020/01/31 01:54:36.9	94.090	-0.630	0.640	0.220
2020/01/31 01:54:37.0	94.110	-0.590	0.460	0.090
2020/01/31 01:54:37.1	94.130	-0.540	0.290	-0.020
2020/01/31 01:54:37.2	94.150	-0.500	0.120	-0.140
2020/01/31 01:54:37.3	94.180	-0.450	-0.060	-0.260
2020/01/31 01:54:37.4	94.210	-0.400	-0.230	-0.380
2020/01/31 01:54:37.5	94.240	-0.340	-0.400	-0.490
2020/01/31 01:54:37.6	94.270	-0.290	-0.560	-0.610
2020/01/31 01:54:37.7	94.310	-0.240	-0.720	-0.720
2020/01/31 01:54:37.8	94.350	-0.180	-0.870	-0.830
2020/01/31 01:54:37.9	94.390	-0.130	-1.020	-0.940
2020/01/31 01:54:38.0	94.420	-0.080	-1.160	-1.040
2020/01/31 01:54:38.1	94.460	-0.020	-1.290	-1.130
2020/01/31 01:54:38.2	94.510	0.030	-1.410	-1.230
2020/01/31 01:54:38.3	94.550	0.070	-1.520	-1.310
2020/01/31 01:54:38.4	94.590	0.120	-1.610	-1.400
2020/01/31 01:54:38.5	94.640	0.160	-1.700	-1.470
2020/01/31 01:54:38.6	94.680	0.200	-1.770	-1.540
2020/01/31 01:54:38.7	94.720	0.240	-1.830	-1.600
2020/01/31 01:54:38.8	94.770	0.270	-1.880	-1.650
2020/01/31 01:54:38.9	94.810	0.300	-1.910	-1.700
2020/01/31 01:54:39.0	94.850	0.330	-1.940	-1.730
2020/01/31 01:54:39.1	94.890	0.350	-1.940	-1.760
2020/01/31 01:54:39.2	94.920	0.370	-1.940	-1.780
2020/01/31 01:54:39.3	94.950	0.380	-1.920	-1.790
2020/01/31 01:54:39.4	94.970	0.390	-1.900	-1.790
2020/01/31 01:54:39.5	95.000	0.400	-1.860	-1.780
2020/01/31 01:54:39.6	95.020	0.400	-1.810	-1.760
2020/01/31 01:54:39.7	95.030	0.400	-1.750	-1.730
2020/01/31 01:54:39.8	95.040	0.390	-1.680	-1.690
2020/01/31 01:54:39.9	95.050	0.380	-1.600	-1.640
2020/01/31 01:54:40.0	95.050	0.370	-1.510	-1.570
2020/01/31 01:54:40.1	95.040	0.350	-1.410	-1.500
2020/01/31 01:54:40.2	95.040	0.330	-1.310	-1.420
2020/01/31 01:54:40.3	95.030	0.300	-1.200	-1.340
2020/01/31 01:54:40.4	95.010	0.280	-1.090	-1.250
2020/01/31 01:54:40.5	94.990	0.250	-0.970	-1.150
2020/01/31 01:54:40.6	94.970	0.220	-0.850	-1.040
2020/01/31 01:54:40.7	94.950	0.180	-0.730	-0.930
2020/01/31 01:54:40.8	94.920	0.140	-0.600	-0.810
2020/01/31 01:54:40.9	94.890	0.110	-0.470	-0.690
2020/01/31 01:54:41.0	94.840	0.070	-0.340	-0.560
2020/01/31 01:54:41.1	94.800	0.030	-0.220	-0.430
2020/01/31 01:54:41.2	94.770	-0.010	-0.090	-0.290
2020/01/31 01:54:41.3	94.730	-0.050	0.030	-0.160
2020/01/31 01:54:41.4	94.690	-0.100	0.150	-0.020
2020/01/31 01:54:41.5	94.650	-0.140	0.260	0.120
2020/01/31 01:54:41.6	94.610	-0.180	0.370	0.260
2020/01/31 01:54:41.7	94.560	-0.220	0.480	0.400
2020/01/31 01:54:41.8	94.520	-0.250	0.580	0.540
2020/01/31 01:54:41.9	94.480	-0.290	0.680	0.680
2020/01/31 01:54:42.0	94.430	-0.330	0.770	0.820
2020/01/31 01:54:42.1	94.390	-0.360	0.850	0.950
2020/01/31 01:54:42.2	94.340	-0.390	0.930	1.080
2020/01/31 01:54:42.3	94.300	-0.420	1.000	1.200
2020/01/31 01:54:42.4	94.260	-0.450	1.050	1.320
2020/01/31 01:54:42.5	94.220	-0.470	1.100	1.440
2020/01/31 01:54:42.6	94.180	-0.490	1.140	1.550
2020/01/31 01:54:42.7	94.140	-0.510	1.180	1.650
2020/01/31 01:54:42.8	94.100	-0.520	1.200	1.750
2020/01/31 01:54:42.9	94.060	-0.530	1.210	1.840
2020/01/31 01:54:43.0	94.030	-0.540	1.220	1.930
2020/01/31 01:54:43.1	94.000	-0.540	1.210	2.010
2020/01/31 01:54:43.2	93.970	-0.540	1.200	2.080
2020/01/31 01:54:43.3	93.940	-0.530	1.180	2.150
2020/01/31 01:54:43.4	93.910	-0.520	1.150	2.210
2020/01/31 01:54:43.5	93.890	-0.510	1.110	2.270
2020/01/31 01:54:43.6	93.870	-0.490	1.060	2.310
2020/01/31 01:54:43.7	93.850	-0.470	1.000	2.360
2020/01/31 01:54:43.8	93.840	-0.450	0.940	2.390
2020/01/31 01:54:43.9	93.830	-0.420	0.860	2.420
2020/01/31 01:54:44.0	93.840	-0.380	0.790	2.450
2020/01/31 01:54:44.1	93.830	-0.350	0.700	2.460
2020/01/31 01:54:44.2	93.830	-0.310	0.610	2.480
2020/01/31 01:54:44.3	93.830	-0.260	0.510	2.480
2020/01/31 01:54:44.4	93.840	-0.220	0.410	2.480
2020/01/31 01:54:44.5	93.850	-0.170	0.310	2.480
2020/01/31 01:54:44.6	93.860	-0.120	0.200	2.470
2020/01/31 01:54:44.7	93.870	-0.070	0.090	2.450
2020/01/31 01:54:44.8	93.890	-0.010	-0.030	2.440
2020/01/31 01:54:44.9	93.910	0.050	-0.140	2.410
2020/01/31 01:54:45.0	93.940	0.100	-0.260	2.380
2020/01/31 01:54:45.1	93.970	0.160	-0.380	2.350
2020/01/31 01:54:45.2	93.990	0.220	-0.490	2.320
2020/01/31 01:54:45.3	94.020	0.280	-0.600	2.280
2020/01/31 01:54:45.4	94.050	0.340	-0.710	2.240
2020/01/31 01:54:45.5	94.090	0.400	-0.820	2.200
2020/01/31 01:54:45.6	94.120	0.460	-0.920	2.150
2020/01/31 01:54:45.7	94.150	0.510	-1.020	2.110
2020/01/31 01:54:45.8	94.190	0.570	-1.110	2.060
2020/01/31 01:54:45.9	94.230	0.620	-1.200	2.000
2020/01/31 01:54:46.0	94.280	0.670	-1.280	1.960
2020/01/31 01:54:46.1	94.320	0.710	-1.350	1.900
2020/01/31 01:54:46.2	94.360	0.760	-1.410	1.850
2020/01/31 01:54:46.3	94.400	0.790	-1.460	1.790
2020/01/31 01:54:46.4	94.430	0.830	-1.510	1.740
2020/01/31 01:54:46.5	94.470	0.860	-1.540	1.680
2020/01/31 01:54:46.6	94.500	0.880	-1.570	1.630
2020/01/31 01:54:46.7	94.530	0.900	-1.580	1.580
2020/01/31 01:54:46.8	94.560	0.920	-1.580	1.520
2020/01/31 01:54:46.9	94.590	0.930	-1.570	1.470
2020/01/31 01:54:47.0	94.600	0.930	-1.560	1.420
2020/01/31 01:54:47.1	94.620	0.930	-1.530	1.380
2020/01/31 01:54:47.2	94.640	0.930	-1.490	1.330
2020/01/31 01:54:47.3	94.660	0.910	-1.440	1.290
2020/01/31 01:54:47.4	94.670	0.900	-1.370	1.250
2020/01/31 01:54:47.5	94.680	0.870	-1.300	1.220
2020/01/31 01:54:47.6	94.690	0.840	-1.220	1.180
2020/01/31 01:54:47.7	94.690	0.810	-1.130	1.150
2020/01/31 01:54:47.8	94.690	0.770	-1.040	1.130
2020/01/31 01:54:47.9	94.680	0.730	-0.930	1.110
2020/01/31 01:54:48.0	94.670	0.680	-0.810	1.090
2020/01/31 01:54:48.1	94.660	0.630	-0.700	1.070
2020/01/31 01:54:48.2	94.650	0.570	-0.570	1.050
2020/01/31 01:54:48.3	94.630	0.510	-0.450	1.040
2020/01/31 01:54:48.4	94.610	0.450	-0.310	1.030
2020/01/31 01:54:48.5	94.580	0.390	-0.180	1.030
2020/01/31 01:54:48.6	94.550	0.320	-0.050	1.020
2020/01/31 01:54:48.7	94.520	0.250	0.090	1.020
2020/01/31 01:54:48.8	94.480	0.180	0.220	1.010
2020/01/31 01:54:48.9	94.450	0.110	0.360	1.010
2020/01/31 01:54:49.0	94.400	0.040	0.490	1.010
2020/01/31 01:54:49.1	94.360	-0.030	0.620	1.010
2020/01/31 01:54:49.2	94.320	-0.100	0.740	1.020
2020/01/31 01:54:49.3	94.280	-0.170	0.860	1.020
2020/01/31 01:54:49.4	94.230	-0.240	0.970	1.020
2020/01/31 01:54:49.5	94.190	-0.310	1.070	1.010
2020/01/31 01:54:49.6	94.140	-0.370	1.170	1.010
2020/01/31 01:54:49.7	94.100	-0.430	1.260	1.010
2020/01/31 01:54:49.8	94.050	-0.490	1.330	1.010
2020/01/31 01:54:49.9	94.010	-0.540	1.400	1.000
2020/01/31 01:54:50.0	93.960	-0.590	1.460	0.990
2020/01/31 01:54:50.1	93.920	-0.630	1.500	0.980
2020/01/31 01:54:50.2	93.880	-0.670	1.540	0.970
2020/01/31 01:54:50.3	93.840	-0.710	1.560	0.950
2020/01/31 01:54:50.4	93.810	-0.740	1.560	0.940
2020/01/31 01:54:50.5	93.780	-0.760	1.550	0.910
2020/01/31 01:54:50.6	93.750	-0.780	1.530	0.890
2020/01/31 01:54:50.7	93.720	-0.800	1.500	0.870
2020/01/31 01:54:50.8	93.700	-0.800	1.460	0.840
2020/01/31 01:54:50.9	93.680	-0.810	1.400	0.800
2020/01/31 01:54:51.0	93.650	-0.810	1.320	0.770
2020/01/31 01:54:51.1	93.640	-0.800	1.240	0.730
2020/01/31 01:54:51.2	93.630	-0.790	1.150	0.690
2020/01/31 01:54:51.3	93.620	-0.770	1.050	0.650
2020/01/31 01:54:51.4	93.610	-0.750	0.950	0.600
2020/01/31 01:54:51.5	93.610	-0.720	0.830	0.560
2020/01/31 01:54:51.6	93.610	-0.690	0.710	0.510
2020/01/31 01:54:51.7	93.610	-0.660	0.580	0.460
2020/01/31 01:54:51.8	93.620	-0.620	0.440	0.410
2020/01/31 01:54:51.9	93.620	-0.590	0.310	0.350
2020/01/31 01:54:52.0	93.630	-0.540	0.170	0.300
2020/01/31 01:54:52.1	93.640	-0.500	0.020	0.240
2020/01/31 01:54:52.2	93.650	-0.450	-0.120	0.180
2020/01/31 01:54:52.3	93.670	-0.410	-0.260	0.130
2020/01/31 01:54:52.4	93.680	-0.360	-0.400	0.070
2020/01/31 01:54:52.5	93.700	-0.310	-0.540	0.020
2020/01/31 01:54:52.6	93.710	-0.260	-0.670	-0.040
2020/01/31 01:54:52.7	93.730	-0.210	-0.800	-0.090
2020/01/31 01:54:52.8	93.750	-0.160	-0.920	-0.140
2020/01/31 01:54:52.9	93.770	-0.110	-1.040	-0.200
2020/01/31 01:54:53.0	93.790	-0.060	-1.160	-0.240
2020/01/31 01:54:53.1	93.810	-0.020	-1.260	-0.290
2020/01/31 01:54:53.2	93.830	0.030	-1.350	-0.330
2020/01/31 01:54:53.3	93.840	0.080	-1.440	-0.370
2020/01/31 01:54:53.4	93.860	0.120	-1.520	-0.410
2020/01/31 01:54:53.5	93.880	0.160	-1.580	-0.440
2020/01/31 01:54:53.6	93.900	0.200	-1.640	-0.470
2020/01/31 01:54:53.7	93.910	0.230	-1.680	-0.490
2020/01/31 01:54:53.8	93.930	0.270	-1.720	-0.510
2020/01/31 01:54:53.9	93.940	0.300	-1.740	-0.530
2020/01/31 01:54:54.0	93.960	0.330	-1.750	-0.540
2020/01/31 01:54:54.1	93.970	0.360	-1.750	-0.540
2020/01/31 01:54:54.2	93.980	0.380	-1.740	-0.540
2020/01/31 01:54:54.3	93.990	0.400	-1.720	-0.530
2020/01/31 01:54:54.4	94.000	0.420	-1.690	-0.520
2020/01/31 01:54:54.5	94.010	0.440	-1.650	-0.510
2020/01/31 01:54:54.6	94.010	0.450	-1.600	-0.480
2020/01/31 01:54:54.7	94.020	0.460	-1.550	-0.450
2020/01/31 01:54:54.8	94.030	0.470	-1.480	-0.420
2020/01/31 01:54:54.9	94.030	0.480	-1.410	-0.380
2020/01/31 01:54:55.0	94.040	0.480	-1.320	-0.330
2020/01/31 01:54:55.1	94.050	0.490	-1.240	-0.280
2020/01/31 01:54:55.2	94.050	0.490	-1.150	-0.230
2020/01/31 01:54:55.3	94.050	0.480	-1.050	-0.170
2020/01/31 01:54:55.4	94.050	0.480	-0.950	-0.110
2020/01/31 01:54:55.5	94.060	0.470	-0.850	-0.040
2020/01/31 01:54:55.6	94.060	0.470	-0.750	0.030
2020/01/31 01:54:55.7	94.060	0.460	-0.640	0.100
2020/01/31 01:54:55.8	94.060	0.440	-0.530	0.180
2020/01/31 01:54:55.9	94.060	0.430	-0.430	0.260
2020/01/31 01:54:56.0	94.060	0.420	-0.320	0.340
2020/01/31 01:54:56.1	94.060	0.400	-0.210	0.430
2020/01/31 01:54:56.2	94.060	0.390	-0.110	0.510
2020/01/31 01:54:56.3	94.050	0.370	-0.010	0.600
2020/01/31 01:54:56.4	94.050	0.350	0.090	0.690
2020/01/31 01:54:56.5	94.050	0.340	0.180	0.790
2020/01/31 01:54:56.6	94.050	0.320	0.270	0.880
2020/01/31 01:54:56.7	94.040	0.300	0.360	0.980
2020/01/31 01:54:56.8	94.030	0.280	0.440	1.070
2020/01/31 01:54:56.9	94.030	0.260	0.520	1.170
2020/01/31 01:54:57.0	94.020	0.240	0.590	1.270
2020/01/31 01:54:57.1	94.010	0.220	0.650	1.360
2020/01/31 01:54:57.2	94.000	0.190	0.720	1.450
2020/01/31 01:54:57.3	93.990	0.170	0.770	1.540
2020/01/31 01:54:57.4	93.970	0.150	0.820	1.630
2020/01/31 01:54:57.5	93.960	0.130	0.870	1.720
2020/01/31 01:54:57.6	93.940	0.110	0.910	1.800
2020/01/31 01:54:57.7	93.930	0.080	0.940	1.870
2020/01/31 01:54:57.8	93.910	0.060	0.970	1.950
2020/01/31 01:54:57.9	93.890	0.040	0.990	2.010
2020/01/31 01:54:58.0	93.890	0.020	1.010	2.070
2020/01/31 01:54:58.1	93.880	-0.010	1.020	2.130
2020/01/31 01:54:58.2	93.860	-0.030	1.030	2.180
2020/01/31 01:54:58.3	93.840	-0.050	1.030	2.230
2020/01/31 01:54:58.4	93.820	-0.070	1.030	2.270
2020/01/31 01:54:58.5	93.800	-0.090	1.020	2.310
2020/01/31 01:54:58.6	93.780	-0.120	1.010	2.340
2020/01/31 01:54:58.7	93.760	-0.140	0.990	2.360
2020/01/31 01:54:58.8	93.740	-0.160	0.970	2.380
2020/01/31 01:54:58.9	93.720	-0.170	0.940	2.390
2020/01/31 01:54:59.0	93.710	-0.190	0.900	2.410
2020/01/31 01:54:59.1	93.700	-0.210	0.870	2.410
2020/01/31 01:54:59.2	93.680	-0.230	0.830	2.410
2020/01/31 01:54:59.3	93.670	-0.240	0.790	2.400
2020/01/31 01:54:59.4	93.650	-0.260	0.740	2.380
2020/01/31 01:54:59.5	93.640	-0.270	0.690	2.360
2020/01/31 01:54:59.6	93.630	-0.280	0.630	2.340
2020/01/31 01:54:59.7	93.630	-0.290	0.580	2.310
2020/01/31 01:54:59.8	93.620	-0.300	0.520	2.280
2020/01/31 01:54:59.9	93.620	-0.310	0.450	2.250
2020/01/31 01:55:00.0	93.620	-0.320	0.390	2.200
2020/01/31 01:55:00.1	93.620	-0.330	0.320	2.160
2020/01/31 01:55:00.2	93.620	-0.330	0.250	2.110
2020/01/31 01:55:00.3	93.630	-0.330	0.180	2.060
2020/01/31 01:55:00.4	93.630	-0.330	0.100	2.010
2020/01/31 01:55:00.5	93.640	-0.330	0.020	1.960
2020/01/31 01:55:00.6	93.650	-0.330	-0.050	1.900
2020/01/31 01:55:00.7	93.660	-0.320	-0.130	1.850
2020/01/31 01:55:00.8	93.660	-0.310	-0.210	1.790
2020/01/31 01:55:00.9	93.680	-0.300	-0.290	1.730
2020/01/31 01:55:01.0	93.710	-0.290	-0.380	1.670
2020/01/31 01:55:01.1	93.720	-0.280	-0.460	1.610
2020/01/31 01:55:01.2	93.730	-0.260	-0.540	1.550
2020/01/31 01:55:01.3	93.740	-0.250	-0.620	1.490
2020/01/31 01:55:01.4	93.760	-0.230	-0.700	1.420
2020/01/31 01:55:01.5	93.770	-0.210	-0.770	1.360
2020/01/31 01:55:01.6	93.790	-0.190	-0.850	1.300
2020/01/31 01:55:01.7	93.800	-0.170	-0.920	1.240
2020/01/31 01:55:01.8	93.820	-0.140	-0.990	1.180
2020/01/31 01:55:01.9	93.840	-0.120	-1.060	1.110
2020/01/31 01:55:02.0	93.870	-0.090	-1.120	1.050
2020/01/31 01:55:02.1	93.880	-0.070	-1.180	0.990
2020/01/31 01:55:02.2	93.900	-0.040	-1.240	0.930
2020/01/31 01:55:02.3	93.920	-0.020	-1.290	0.880
2020/01/31 01:55:02.4	93.940	0.010	-1.330	0.820
2020/01/31 01:55:02.5	93.960	0.030	-1.370	0.760
2020/01/31 01:55:02.6	93.980	0.060	-1.410	0.710
2020/01/31 01:55:02.7	94.000	0.080	-1.440	0.660
2020/01/31 01:55:02.8	94.020	0.100	-1.460	0.610
2020/01/31 01:55:02.9	94.040	0.120	-1.470	0.560
2020/01/31 01:55:03.0	94.050	0.140	-1.480	0.510
2020/01/31 01:55:03.1	94.070	0.150	-1.480	0.470
2020/01/31 01:55:03.2	94.080	0.170	-1.470	0.430
2020/01/31 01:55:03.3	94.100	0.180	-1.460	0.390
2020/01/31 01:55:03.4	94.120	0.180	-1.430	0.360
2020/01/31 01:55:03.5	94.130	0.190	-1.400	0.330
2020/01/31 01:55:03.6	94.150	0.190	-1.360	0.300
2020/01/31 01:55:03.7	94.160	0.190	-1.320	0.280
2020/01/31 01:55:03.8	94.170	0.190	-1.260	0.260
2020/01/31 01:55:03.9	94.180	0.180	-1.200	0.250
2020/01/31 01:55:04.0	94.180	0.180	-1.130	0.240
2020/01/31 01:55:04.1	94.180	0.160	-1.050	0.230
2020/01/31 01:55:04.2	94.190	0.150	-0.970	0.230
2020/01/31 01:55:04.3	94.190	0.140	-0.890	0.230
2020/01/31 01:55:04.4	94.190	0.120	-0.800	0.240
2020/01/31 01:55:04.5	94.190	0.100	-0.700	0.250
2020/01/31 01:55:04.6	94.190	0.080	-0.600	0.260
2020/01/31 01:55:04.7	94.190	0.060	-0.500	0.280
2020/01/31 01:55:04.8	94.180	0.030	-0.400	0.300
2020/01/31 01:55:04.9	94.170	0.010	-0.290	0.320
2020/01/31 01:55:05.0	94.150	-0.010	-0.180	0.340
2020/01/31 01:55:05.1	94.140	-0.040	-0.080	0.360
2020/01/31 01:55:05.2	94.130	-0.060	0.030	0.390
2020/01/31 01:55:05.3	94.120	-0.080	0.140	0.420
2020/01/31 01:55:05.4	94.110	-0.110	0.250	0.440
2020/01/31 01:55:05.5	94.100	-0.130	0.350	0.470
2020/01/31 01:55:05.6	94.080	-0.150	0.450	0.490
2020/01/31 01:55:05.7	94.070	-0.170	0.540	0.520
2020/01/31 01:55:05.8	94.060	-0.180	0.630	0.540
2020/01/31 01:55:05.9	94.050	-0.200	0.720	0.560
2020/01/31 01:55:06.0	94.030	-0.210	0.810	0.580
2020/01/31 01:55:06.1	94.020	-0.220	0.880	0.600
2020/01/31 01:55:06.2	94.010	-0.220	0.950	0.620
2020/01/31 01:55:06.3	94.000	-0.230	1.010	0.630
2020/01/31 01:55:06.4	93.990	-0.230	1.060	0.640
2020/01/31 01:55:06.5	93.980	-0.230	1.100	0.650
2020/01/31 01:55:06.6	93.980	-0.220	1.140	0.650
2020/01/31 01:55:06.7	93.980	-0.220	1.170	0.650
2020/01/31 01:55:06.8	93.970	-0.210	1.180	0.650
2020/01/31 01:55:06.9	93.970	-0.190	1.190	0.650
2020/01/31 01:55:07.0	93.950	-0.180	1.190	0.650
2020/01/31 01:55:07.1	93.960	-0.160	1.180	0.640
2020/01/31 01:55:07.2	93.960	-0.140	1.160	0.630
2020/01/31 01:55:07.3	93.960	-0.120	1.130	0.620
2020/01/31 01:55:07.4	93.970	-0.090	1.100	0.610
2020/01/31 01:55:07.5	93.970	-0.060	1.050	0.600
2020/01/31 01:55:07.6	93.980	-0.030	1.000	0.590
2020/01/31 01:55:07.7	93.990	-0.000	0.950	0.580
2020/01/31 01:55:07.8	94.000	0.030	0.880	0.570
2020/01/31 01:55:07.9	94.000	0.060	0.810	0.550
2020/01/31 01:55:08.0	94.000	0.090	0.730	0.540
2020/01/31 01:55:08.1	94.010	0.130	0.650	0.530
2020/01/31 01:55:08.2	94.020	0.160	0.560	0.520
2020/01/31 01:55:08.3	94.030	0.200	0.470	0.510
2020/01/31 01:55:08.4	94.040	0.230	0.380	0.500
2020/01/31 01:55:08.5	94.050	0.260	0.280	0.490
2020/01/31 01:55:08.6	94.060	0.300	0.190	0.480
2020/01/31 01:55:08.7	94.070	0.330	0.090	0.470
2020/01/31 01:55:08.8	94.070	0.360	-0.010	0.460
2020/01/31 01:55:08.9	94.080	0.380	-0.110	0.450
2020/01/31 01:55:09.0	94.100	0.410	-0.210	0.440
2020/01/31 01:55:09.1	94.110	0.430	-0.300	0.430
2020/01/31 01:55:09.2	94.120	0.450	-0.390	0.420
2020/01/31 01:55:09.3	94.130	0.470	-0.480	0.410
2020/01/31 01:55:09.4	94.140	0.490	-0.570	0.410
2020/01/31 01:55:09.5	94.150	0.500	-0.640	0.400
2020/01/31 01:55:09.6	94.160	0.510	-0.720	0.390
2020/01/31 01:55:09.7	94.170	0.520	-0.790	0.380
2020/01/31 01:55:09.8	94.180	0.520	-0.850	0.370
2020/01/31 01:55:09.9	94.190	0.520	-0.900	0.360
2020/01/31 01:55:10.0	94.190	0.520	-0.950	0.350
2020/01/31 01:55:10.1	94.200	0.510	-0.990	0.350
2020/01/31 01:55:10.2	94.210	0.510	-1.020	0.340
2020/01/31 01:55:10.3	94.230	0.490	-1.050	0.340
2020/01/31 01:55:10.4	94.240	0.480	-1.070	0.330
2020/01/31 01:55:10.5	94.260	0.460	-1.080	0.330
2020/01/31 01:55:10.6	94.270	0.440	-1.090	0.330
2020/01/31 01:55:10.7	94.290	0.420	-1.080	0.340
2020/01/31 01:55:10.8	94.300	0.400	-1.070	0.340
2020/01/31 01:55:10.9	94.310	0.370	-1.060	0.350
2020/01/31 01:55:11.0	94.340	0.340	-1.040	0.360
2020/01/31 01:55:11.1	94.350	0.310	-1.010	0.380
2020/01/31 01:55:11.2	94.360	0.280	-0.980	0.400
2020/01/31 01:55:11.3	94.380	0.250	-0.950	0.420
2020/01/31 01:55:11.4	94.390	0.220	-0.900	0.450
2020/01/31 01:55:11.5	94.400	0.180	-0.860	0.470
2020/01/31 01:55:11.6	94.410	0.150	-0.810	0.510
2020/01/31 01:55:11.7	94.420	0.110	-0.760	0.540
2020/01/31 01:55:11.8	94.430	0.080	-0.700	0.580
2020/01/31 01:55:11.9	94.440	0.040	-0.650	0.620
2020/01/31 01:55:12.0	94.450	0.010	-0.580	0.660
2020/01/31 01:55:12.1	94.460	-0.030	-0.520	0.710
2020/01/31 01:55:12.2	94.470	-0.060	-0.460	0.760
2020/01/31 01:55:12.3	94.480	-0.100	-0.400	0.810
2020/01/31 01:55:12.4	94.480	-0.130	-0.330	0.870
2020/01/31 01:55:12.5	94.490	-0.160	-0.270	0.920
2020/01/31 01:55:12.6	94.490	-0.190	-0.210	0.980
2020/01/31 01:55:12.7	94.500	-0.220	-0.150	1.040
2020/01/31 01:55:12.8	94.500	-0.250	-0.090	1.100
2020/01/31 01:55:12.9	94.500	-0.270	-0.030	1.160
2020/01/31 01:55:13.0	94.510	-0.300	0.030	1.230
2020/01/31 01:55:13.1	94.510	-0.320	0.080	1.290
2020/01/31 01:55:13.2	94.510	-0.340	0.130	1.360
2020/01/31 01:55:13.3	94.510	-0.360	0.180	1.420
2020/01/31 01:55:13.4	94.510	-0.380	0.220	1.490
2020/01/31 01:55:13.5	94.510	-0.390	0.260	1.550
2020/01/31 01:55:13.6	94.510	-0.400	0.300	1.620
2020/01/31 01:55:13.7	94.510	-0.410	0.330	1.680
2020/01/31 01:55:13.8	94.510	-0.420	0.360	1.740
2020/01/31 01:55:13.9	94.500	-0.430	0.390	1.790
2020/01/31 01:55:14.0	94.510	-0.440	0.410	1.850
2020/01/31 01:55:14.1	94.510	-0.440	0.430	1.900
2020/01/31 01:55:14.2	94.510	-0.440	0.450	1.950
2020/01/31 01:55:14.3	94.500	-0.440	0.450	2.000
2020/01/31 01:55:14.4	94.500	-0.440	0.460	2.040
2020/01/31 01:55:14.5	94.490	-0.430	0.460	2.080
2020/01/31 01:55:14.6	94.490	-0.430	0.450	2.110
2020/01/31 01:55:14.7	94.490	-0.420	0.440	2.140
2020/01/31 01:55:14.8	94.480	-0.410	0.430	2.170
2020/01/31 01:55:14.9	94.480	-0.400	0.410	2.180
2020/01/31 01:55:15.0	94.480	-0.380	0.390	2.200
2020/01/31 01:55:15.1	94.480	-0.370	0.360	2.210
2020/01/31 01:55:15.2	94.480	-0.350	0.330	2.210
2020/01/31 01:55:15.3	94.480	-0.340	0.290	2.210
2020/01/31 01:55:15.4	94.480	-0.320	0.250	2.200
2020/01/31 01:55:15.5	94.490	-0.300	0.210	2.190
2020/01/31 01:55:15.6	94.500	-0.280	0.160	2.170
2020/01/31 01:55:15.7	94.500	-0.250	0.110	2.150
2020/01/31 01:55:15.8	94.510	-0.230	0.060	2.120
2020/01/31 01:55:15.9	94.530	-0.200	0.010	2.090
2020/01/31 01:55:16.0	94.550	-0.180	-0.050	2.050
2020/01/31 01:55:16.1	94.560	-0.150	-0.110	2.010
2020/01/31 01:55:16.2	94.580	-0.120	-0.160	1.970
2020/01/31 01:55:16.3	94.590	-0.100	-0.220	1.930
2020/01/31 01:55:16.4	94.610	-0.070	-0.280	1.880
2020/01/31 01:55:16.5	94.630	-0.040	-0.340	1.840
2020/01/31 01:55:16.6	94.650	-0.010	-0.390	1.790
2020/01/31 01:55:16.7	94.670	0.020	-0.450	1.740
2020/01/31 01:55:16.8	94.690	0.050	-0.500	1.690
2020/01/31 01:55:16.9	94.710	0.070	-0.550	1.640
2020/01/31 01:55:17.0	94.730	0.100	-0.600	1.590
2020/01/31 01:55:17.1	94.750	0.130	-0.640	1.540
2020/01/31 01:55:17.2	94.770	0.150	-0.680	1.490
2020/01/31 01:55:17.3	94.790	0.180	-0.710	1.430
2020/01/31 01:55:17.4	94.810	0.200	-0.740	1.380
2020/01/31 01:55:17.5	94.830	0.220	-0.760	1.330
2020/01/31 01:55:17.6	94.850	0.240	-0.780	1.280
2020/01/31 01:55:17.7	94.870	0.260	-0.790	1.230
2020/01/31 01:55:17.8	94.880	0.270	-0.800	1.180
2020/01/31 01:55:17.9	94.900	0.290	-0.800	1.130
2020/01/31 01:55:18.0	94.900	0.300	-0.790	1.080
2020/01/31 01:55:18.1	94.910	0.310	-0.780	1.030
2020/01/31 01:55:18.2	94.920	0.320	-0.760	0.980
2020/01/31 01:55:18.3	94.930	0.320	-0.730	0.940
2020/01/31 01:55:18.4	94.940	0.320	-0.700	0.890
2020/01/31 01:55:18.5	94.950	0.320	-0.670	0.840
2020/01/31 01:55:18.6	94.950	0.320	-0.630	0.790
2020/01/31 01:55:18.7	94.960	0.320	-0.580	0.750
2020/01/31 01:55:18.8	94.960	0.310	-0.530	0.700
2020/01/31 01:55:18.9	94.960	0.300	-0.480	0.660
2020/01/31 01:55:19.0	94.940	0.280	-0.420	0.610
2020/01/31 01:55:19.1	94.930	0.270	-0.360	0.570
2020/01/31 01:55:19.2	94.920	0.250	-0.300	0.530
2020/01/31 01:55:19.3	94.910	0.230	-0.230	0.490
2020/01/31 01:55:19.4	94.900	0.210	-0.160	0.440
2020/01/31 01:55:19.5	94.890	0.180	-0.090	0.400
2020/01/31 01:55:19.6	94.880	0.150	-0.030	0.360
2020/01/31 01:55:19.7	94.860	0.130	0.040	0.320
2020/01/31 01:55:19.8	94.850	0.100	0.110	0.280
2020/01/31 01:55:19.9	94.830	0.070	0.170	0.250
2020/01/31 01:55:20.0	94.810	0.030	0.240	0.210
2020/01/31 01:55:20.1	94.790	0.000	0.300	0.170
2020/01/31 01:55:20.2	94.770	-0.030	0.360	0.140
2020/01/31 01:55:20.3	94.750	-0.060	0.410	0.100
2020/01/31 01:55:20.4	94.730	-0.100	0.460	0.060
2020/01/31 01:55:20.5	94.710	-0.130	0.500	0.030
2020/01/31 01:55:20.6	94.690	-0.160	0.540	-0.000
2020/01/31 01:55:20.7	94.680	-0.190	0.570	-0.040
2020/01/31 01:55:20.8	94.660	-0.210	0.600	-0.070
2020/01/31 01:55:20.9	94.640	-0.240	0.620	-0.100
2020/01/31 01:55:21.0	94.610	-0.260	0.630	-0.130
2020/01/31 01:55:21.1	94.600	-0.280	0.640	-0.160
2020/01/31 01:55:21.2	94.590	-0.300	0.630	-0.190
2020/01/31 01:55:21.3	94.580	-0.320	0.630	-0.220
2020/01/31 01:55:21.4	94.570	-0.330	0.610	-0.240
2020/01/31 01:55:21.5	94.570	-0.340	0.590	-0.270
2020/01/31 01:55:21.6	94.570	-0.340	0.560	-0.290
2020/01/31 01:55:21.7	94.570	-0.350	0.520	-0.320
2020/01/31 01:55:21.8	94.570	-0.340	0.480	-0.340
2020/01/31 01:55:21.9	94.570	-0.340	0.430	-0.360
2020/01/31 01:55:22.0	94.580	-0.330	0.370	-0.380
2020/01/31 01:55:22.1	94.590	-0.320	0.310	-0.390
2020/01/31 01:55:22.2	94.600	-0.300	0.240	-0.410
2020/01/31 01:55:22.3	94.610	-0.290	0.170	-0.420
2020/01/31 01:55:22.4	94.620	-0.270	0.090	-0.440
2020/01/31 01:55:22.5	94.640	-0.240	0.020	-0.450
2020/01/31 01:55:22.6	94.650	-0.220	-0.060	-0.450
2020/01/31 01:55:22.7	94.670	-0.190	-0.140	-0.460
2020/01/31 01:55:22.8	94.680	-0.160	-0.220	-0.470
2020/01/31 01:55:22.9	94.700	-0.130	-0.300	-0.470
2020/01/31 01:55:23.0	94.730	-0.100	-0.380	-0.470
2020/01/31 01:55:23.1	94.750	-0.070	-0.460	-0.470
2020/01/31 01:55:23.2	94.760	-0.040	-0.540	-0.460
2020/01/31 01:55:23.3	94.780	-0.010	-0.610	-0.460
2020/01/31 01:55:23.4	94.800	0.020	-0.670	-0.450
2020/01/31 01:55:23.5	94.820	0.050	-0.730	-0.440
2020/01/31 01:55:23.6	94.830	0.080	-0.790	-0.430
2020/01/31 01:55:23.7	94.850	0.100	-0.830	-0.410
2020/01/31 01:55:23.8	94.870	0.130	-0.870	-0.390
2020/01/31 01:55:23.9	94.890	0.150	-0.910	-0.370
2020/01/31 01:55:24.0	94.900	0.170	-0.930	-0.350
2020/01/31 01:55:24.1	94.920	0.180	-0.940	-0.320
2020/01/31 01:55:24.2	94.930	0.200	-0.950	-0.300
2020/01/31 01:55:24.3	94.950	0.210	-0.940	-0.270
2020/01/31 01:55:24.4	94.960	0.210	-0.930	-0.240
2020/01/31 01:55:24.5	94.980	0.220	-0.910	-0.200
2020/01/31 01:55:24.6	94.990	0.220	-0.880	-0.160
2020/01/31 01:55:24.7	95.010	0.220	-0.850	-0.120
2020/01/31 01:55:24.8	95.020	0.210	-0.800	-0.080
2020/01/31 01:55:24.9	95.030	0.200	-0.750	-0.040
2020/01/31 01:55:25.0	95.040	0.190	-0.690	0.010
2020/01/31 01:55:25.1	95.060	0.180	-0.620	0.060
2020/01/31 01:55:25.2	95.060	0.160	-0.550	0.110
2020/01/31 01:55:25.3	95.070	0.140	-0.480	0.170
2020/01/31 01:55:25.4	95.080	0.120	-0.400	0.220
2020/01/31 01:55:25.5	95.090	0.100	-0.330	0.280
2020/01/31 01:55:25.6	95.100	0.080	-0.250	0.340
2020/01/31 01:55:25.7	95.100	0.060	-0.170	0.400
2020/01/31 01:55:25.8	95.110	0.030	-0.090	0.460
2020/01/31 01:55:25.9	95.110	0.010	-0.010	0.530
2020/01/31 01:55:26.0	95.130	-0.010	0.070	0.600
2020/01/31 01:55:26.1	95.130	-0.040	0.140	0.660
2020/01/31 01:55:26.2	95.140	-0.060	0.200	0.730
2020/01/31 01:55:26.3	95.140	-0.080	0.260	0.790
2020/01/31 01:55:26.4	95.150	-0.100	0.320	0.860
2020/01/31 01:55:26.5	95.150	-0.120	0.370	0.920
2020/01/31 01:55:26.6	95.160	-0.130	0.410	0.990
2020/01/31 01:55:26.7	95.160	-0.140	0.450	1.050
2020/01/31 01:55:26.8	95.170	-0.160	0.480	1.120
2020/01/31 01:55:26.9	95.170	-0.160	0.500	1.180
2020/01/31 01:55:27.0	95.180	-0.170	0.520	1.250
2020/01/31 01:55:27.1	95.180	-0.170	0.530	1.310
2020/01/31 01:55:27.2	95.190	-0.170	0.530	1.370
2020/01/31 01:55:27.3	95.190	-0.170	0.520	1.440
2020/01/31 01:55:27.4	95.190	-0.170	0.510	1.500
2020/01/31 01:55:27.5	95.190	-0.160	0.480	1.560
2020/01/31 01:55:27.6	95.190	-0.150	0.460	1.620
2020/01/31 01:55:27.7	95.190	-0.130	0.420	1.670
2020/01/31 01:55:27.8	95.190	-0.120	0.390	1.730
2020/01/31 01:55:27.9	95.190	-0.100	0.340	1.790
2020/01/31 01:55:28.0	95.190	-0.080	0.290	1.840
2020/01/31 01:55:28.1	95.190	-0.060	0.240	1.900
2020/01/31 01:55:28.2	95.180	-0.040	0.180	1.950
2020/01/31 01:55:28.3	95.170	-0.010	0.130	2.000
2020/01/31 01:55:28.4	95.160	0.010	0.070	2.040
2020/01/31 01:55:28.5	95.150	0.040	0.010	2.090
2020/01/31 01:55:28.6	95.140	0.070	-0.050	2.130
2020/01/31 01:55:28.7	95.130	0.090	-0.120	2.170
2020/01/31 01:55:28.8	95.110	0.120	-0.180	2.200
2020/01/31 01:55:28.9	95.100	0.140	-0.240	2.230
2020/01/31 01:55:29.0	95.100	0.170	-0.300	2.260
2020/01/31 01:55:29.1	95.080	0.190	-0.350	2.290
2020/01/31 01:55:29.2	95.070	0.220	-0.400	2.310
2020/01/31 01:55:29.3	95.050	0.240	-0.460	2.330
2020/01/31 01:55:29.4	95.040	0.260	-0.500	2.340
2020/01/31 01:55:29.5	95.030	0.270	-0.550	2.350
2020/01/31 01:55:29.6	95.010	0.290	-0.590	2.350
2020/01/31 01:55:29.7	95.000	0.300	-0.620	2.360
2020/01/31 01:55:29.8	94.990	0.310	-0.650	2.360
2020/01/31 01:55:29.9	94.980	0.320	-0.680	2.350
2020/01/31 01:55:30.0	94.980	0.330	-0.700	2.340
2020/01/31 01:55:30.1	94.970	0.330	-0.720	2.330
2020/01/31 01:55:30.2	94.960	0.330	-0.730	2.320
2020/01/31 01:55:30.3	94.950	0.330	-0.740	2.300
2020/01/31 01:55:30.4	94.940	0.320	-0.740	2.290
2020/01/31 01:55:30.5	94.930	0.310	-0.740	2.270
2020/01/31 01:55:30.6	94.920	0.300	-0.730	2.240
2020/01/31 01:55:30.7	94.920	0.290	-0.720	2.220
2020/01/31 01:55:30.8	94.910	0.280	-0.700	2.190
2020/01/31 01:55:30.9	94.900	0.260	-0.680	2.160
2020/01/31 01:55:31.0	94.900	0.240	-0.660	2.130
2020/01/31 01:55:31.1	94.900	0.220	-0.630	2.090
2020/01/31 01:55:31.2	94.890	0.200	-0.600	2.060
2020/01/31 01:55:31.3	94.890	0.180	-0.570	2.020
2020/01/31 01:55:31.4	94.890	0.160	-0.530	1.980
2020/01/31 01:55:31.5	94.890	0.130	-0.500	1.940
2020/01/31 01:55:31.6	94.890	0.110	-0.460	1.900
2020/01/31 01:55:31.7	94.890	0.080	-0.420	1.850
2020/01/31 01:55:31.8	94.890	0.060	-0.380	1.800
2020/01/31 01:55:31.9	94.900	0.040	-0.340	1.750
2020/01/31 01:55:32.0	94.910	0.010	-0.300	1.700
2020/01/31 01:55:32.1	94.920	-0.010	-0.260	1.640
2020/01/31 01:55:32.2	94.930	-0.030	-0.220	1.590
2020/01/31 01:55:32.3	94.940	-0.050	-0.180	1.530
2020/01/31 01:55:32.4	94.950	-0.070	-0.140	1.470
2020/01/31 01:55:32.5	94.970	-0.090	-0.100	1.410
2020/01/31 01:55:32.6	94.980	-0.110	-0.070	1.340
2020/01/31 01:55:32.7	94.990	-0.120	-0.030	1.280
2020/01/31 01:55:32.8	95.010	-0.140	0.010	1.210
2020/01/31 01:55:32.9	95.020	-0.150	0.040	1.150
2020/01/31 01:55:33.0	95.020	-0.160	0.070	1.090
2020/01/31 01:55:33.1	95.030	-0.170	0.100	1.020
2020/01/31 01:55:33.2	95.050	-0.180	0.130	0.950
2020/01/31 01:55:33.3	95.060	-0.180	0.150	0.880
2020/01/31 01:55:33.4	95.070	-0.190	0.180	0.820
2020/01/31 01:55:33.5	95.090	-0.190	0.200	0.750
2020/01/31 01:55:33.6	95.100	-0.200	0.220	0.680
2020/01/31 01:55:33.7	95.110	-0.200	0.240	0.610
2020/01/31 01:55:33.8	95.130	-0.200	0.250	0.540
2020/01/31 01:55:33.9	95.140	-0.200	0.260	0.460
2020/01/31 01:55:34.0	95.140	-0.200	0.270	0.380
2020/01/31 01:55:34.1	95.160	-0.200	0.280	0.310
2020/01/31 01:55:34.2	95.180	-0.200	0.290	0.240
2020/01/31 01:55:34.3	95.190	-0.200	0.290	0.170
2020/01/31 01:55:34.4	95.210	-0.190	0.290	0.100
2020/01/31 01:55:34.5	95.220	-0.190	0.290	0.020
2020/01/31 01:55:34.6	95.240	-0.190	0.290	-0.050
2020/01/31 01:55:34.7	95.260	-0.190	0.280	-0.110
2020/01/31 01:55:34.8	95.280	-0.180	0.280	-0.180
2020/01/31 01:55:34.9	95.290	-0.180	0.270	-0.250
2020/01/31 01:55:35.0	95.290	-0.180	0.260	-0.300
2020/01/31 01:55:35.1	95.310	-0.180	0.250	-0.360
2020/01/31 01:55:35.2	95.330	-0.170	0.240	-0.420
2020/01/31 01:55:35.3	95.340	-0.170	0.220	-0.470
2020/01/31 01:55:35.4	95.360	-0.170	0.210	-0.520
2020/01/31 01:55:35.5	95.370	-0.170	0.190	-0.560
2020/01/31 01:55:35.6	95.380	-0.170	0.180	-0.610
2020/01/31 01:55:35.7	95.390	-0.160	0.160	-0.640
2020/01/31 01:55:35.8	95.400	-0.160	0.150	-0.670
2020/01/31 01:55:35.9	95.410	-0.160	0.130	-0.700
2020/01/31 01:55:36.0	95.390	-0.160	0.120	-0.720
2020/01/31 01:55:36.1	95.400	-0.160	0.100	-0.740
2020/01/31 01:55:36.2	95.400	-0.160	0.080	-0.740
2020/01/31 01:55:36.3	95.400	-0.160	0.060	-0.750
2020/01/31 01:55:36.4	95.390	-0.160	0.050	-0.750
2020/01/31 01:55:36.5	95.390	-0.150	0.030	-0.740
2020/01/31 01:55:36.6	95.380	-0.150	0.010	-0.730
2020/01/31 01:55:36.7	95.370	-0.150	-0.000	-0.710
2020/01/31 01:55:36.8	95.360	-0.150	-0.020	-0.690
2020/01/31 01:55:36.9	95.350	-0.140	-0.040	-0.670
2020/01/31 01:55:37.0	95.330	-0.140	-0.050	-0.640
2020/01/31 01:55:37.1	95.320	-0.140	-0.070	-0.610
2020/01/31 01:55:37.2	95.300	-0.130	-0.090	-0.570
2020/01/31 01:55:37.3	95.290	-0.130	-0.110	-0.530
2020/01/31 01:55:37.4	95.270	-0.120	-0.130	-0.490
2020/01/31 01:55:37.5	95.260	-0.110	-0.150	-0.450
2020/01/31 01:55:37.6	95.250	-0.110	-0.170	-0.410
2020/01/31 01:55:37.7	95.240	-0.100	-0.190	-0.360
2020/01/31 01:55:37.8	95.220	-0.090	-0.210	-0.310
2020/01/31 01:55:37.9	95.220	-0.080	-0.240	-0.260
2020/01/31 01:55:38.0	95.230	-0.070	-0.260	-0.210
2020/01/31 01:55:38.1	95.220	-0.060	-0.290	-0.160
2020/01/31 01:55:38.2	95.220	-0.050	-0.310	-0.110
2020/01/31 01:55:38.3	95.210	-0.030	-0.340	-0.060
2020/01/31 01:55:38.4	95.210	-0.020	-0.370	-0.010
2020/01/31 01:55:38.5	95.210	-0.010	-0.400	0.040
2020/01/31 01:55:38.6	95.220	0.010	-0.430	0.090
2020/01/31 01:55:38.7	95.220	0.020	-0.460	0.140
2020/01/31 01:55:38.8	95.230	0.040	-0.490	0.190
2020/01/31 01:55:38.9	95.240	0.050	-0.520	0.240
2020/01/31 01:55:39.0	95.240	0.070	-0.550	0.300
2020/01/31 01:55:39.1	95.250	0.080	-0.580	0.350
2020/01/31 01:55:39.2	95.260	0.100	-0.600	0.400
2020/01/31 01:55:39.3	95.270	0.120	-0.630	0.450
2020/01/31 01:55:39.4	95.280	0.130	-0.660	0.510
2020/01/31 01:55:39.5	95.290	0.150	-0.680	0.560
2020/01/31 01:55:39.6	95.300	0.160	-0.700	0.620
2020/01/31 01:55:39.7	95.300	0.180	-0.720	0.670
2020/01/31 01:55:39.8	95.310	0.190	-0.740	0.730
2020/01/31 01:55:39.9	95.310	0.200	-0.760	0.790
2020/01/31 01:55:40.0	95.320	0.220	-0.770	0.840
2020/01/31 01:55:40.1	95.320	0.230	-0.780	0.900
2020/01/31 01:55:40.2	95.320	0.240	-0.780	0.960
2020/01/31 01:55:40.3	95.320	0.240	-0.780	1.020
2020/01/31 01:55:40.4	95.320	0.250	-0.780	1.080
2020/01/31 01:55:40.5	95.320	0.260	-0.780	1.140
2020/01/31 01:55:40.6	95.320	0.260	-0.760	1.200
2020/01/31 01:55:40.7	95.310	0.260	-0.750	1.260
2020/01/31 01:55:40.8	95.310	0.260	-0.730	1.320
2020/01/31 01:55:40.9	95.310	0.260	-0.710	1.380
2020/01/31 01:55:41.0	95.320	0.250	-0.680	1.440
2020/01/31 01:55:41.1	95.310	0.250	-0.650	1.500
2020/01/31 01:55:41.2	95.310	0.240	-0.610	1.560
2020/01/31 01:55:41.3	95.300	0.230	-0.580	1.620
2020/01/31 01:55:41.4	95.300	0.220	-0.540	1.670
2020/01/31 01:55:41.5	95.290	0.200	-0.490	1.730
2020/01/31 01:55:41.6	95.280	0.190	-0.440	1.780
2020/01/31 01:55:41.7	95.280	0.170	-0.400	1.830
2020/01/31 01:55:41.8	95.270	0.150	-0.350	1.880
2020/01/31 01:55:41.9	95.270	0.130	-0.290	1.920
2020/01/31 01:55:42.0	95.270	0.110	-0.240	1.970
2020/01/31 01:55:42.1	95.270	0.090	-0.190	2.010
2020/01/31 01:55:42.2	95.270	0.070	-0.130	2.050
2020/01/31 01:55:42.3	95.270	0.040	-0.080	2.080
2020/01/31 01:55:42.4	95.270	0.020	-0.020	2.110
2020/01/31 01:55:42.5	95.270	-0.000	0.030	2.140
2020/01/31 01:55:42.6	95.270	-0.030	0.080	2.160
2020/01/31 01:55:42.7	95.270	-0.050	0.140	2.180
2020/01/31 01:55:42.8	95.280	-0.070	0.190	2.190
2020/01/31 01:55:42.9	95.280	-0.100	0.240	2.200
2020/01/31 01:55:43.0	95.290	-0.120	0.280	2.210
2020/01/31 01:55:43.1	95.300	-0.140	0.320	2.210
2020/01/31 01:55:43.2	95.310	-0.160	0.370	2.200
2020/01/31 01:55:43.3	95.310	-0.180	0.410	2.200
2020/01/31 01:55:43.4	95.320	-0.200	0.440	2.190
2020/01/31 01:55:43.5	95.320	-0.220	0.470	2.170
2020/01/31 01:55:43.6	95.330	-0.230	0.500	2.150
2020/01/31 01:55:43.7	95.340	-0.240	0.530	2.130
2020/01/31 01:55:43.8	95.340	-0.260	0.550	2.100
2020/01/31 01:55:43.9	95.350	-0.270	0.570	2.070
2020/01/31 01:55:44.0	95.370	-0.270	0.590	2.040
2020/01/31 01:55:44.1	95.370	-0.280	0.600	2.000
2020/01/31 01:55:44.2	95.380	-0.290	0.610	1.970
2020/01/31 01:55:44.3	95.390	-0.290	0.610	1.920
2020/01/31 01:55:44.4	95.390	-0.290	0.610	1.880
2020/01/31 01:55:44.5	95.400	-0.290	0.600	1.830
2020/01/31 01:55:44.6	95.410	-0.290	0.590	1.780
2020/01/31 01:55:44.7	95.410	-0.280	0.580	1.720
2020/01/31 01:55:44.8	95.420	-0.280	0.560	1.670
2020/01/31 01:55:44.9	95.430	-0.270	0.540	1.610
2020/01/31 01:55:45.0	95.440	-0.260	0.510	1.550
2020/01/31 01:55:45.1	95.450	-0.250	0.480	1.490
2020/01/31 01:55:45.2	95.460	-0.240	0.450	1.420
2020/01/31 01:55:45.3	95.470	-0.220	0.410	1.360
2020/01/31 01:55:45.4	95.480	-0.210	0.370	1.290
2020/01/31 01:55:45.5	95.490	-0.190	0.330	1.220
2020/01/31 01:55:45.6	95.500	-0.170	0.290	1.150
2020/01/31 01:55:45.7	95.510	-0.150	0.240	1.080
2020/01/31 01:55:45.8	95.520	-0.130	0.200	1.010
2020/01/31 01:55:45.9	95.530	-0.110	0.150	0.950
2020/01/31 01:55:46.0	95.540	-0.090	0.100	0.870
2020/01/31 01:55:46.1	95.550	-0.070	0.050	0.810
2020/01/31 01:55:46.2	95.550	-0.050	-0.000	0.740
2020/01/31 01:55:46.3	95.560	-0.030	-0.050	0.670
2020/01/31 01:55:46.4	95.570	-0.010	-0.110	0.600
2020/01/31 01:55:46.5	95.580	0.010	-0.150	0.530
2020/01/31 01:55:46.6	95.590	0.030	-0.210	0.470
2020/01/31 01:55:46.7	95.600	0.050	-0.250	0.400
2020/01/31 01:55:46.8	95.600	0.070	-0.300	0.340
2020/01/31 01:55:46.9	95.610	0.090	-0.350	0.280
2020/01/31 01:55:47.0	95.600	0.100	-0.400	0.210
2020/01/31 01:55:47.1	95.610	0.120	-0.440	0.150
2020/01/31 01:55:47.2	95.620	0.140	-0.480	0.100
2020/01/31 01:55:47.3	95.630	0.150	-0.510	0.040
2020/01/31 01:55:47.4	95.650	0.160	-0.550	-0.020
2020/01/31 01:55:47.5	95.660	0.180	-0.580	-0.070
2020/01/31 01:55:47.6	95.670	0.190	-0.610	-0.120
2020/01/31 01:55:47.7	95.680	0.200	-0.640	-0.160
2020/01/31 01:55:47.8	95.690	0.200	-0.660	-0.200
2020/01/31 01:55:47.9	95.700	0.210	-0.690	-0.240
2020/01/31 01:55:48.0	95.690	0.220	-0.710	-0.270
2020/01/31 01:55:48.1	95.700	0.220	-0.720	-0.300
2020/01/31 01:55:48.2	95.700	0.220	-0.730	-0.330
2020/01/31 01:55:48.3	95.710	0.220	-0.750	-0.350
2020/01/31 01:55:48.4	95.720	0.220	-0.750	-0.360
2020/01/31 01:55:48.5	95.720	0.220	-0.760	-0.380
2020/01/31 01:55:48.6	95.720	0.220	-0.760	-0.380
2020/01/31 01:55:48.7	95.720	0.210	-0.760	-0.390
2020/01/31 01:55:48.8	95.730	0.210	-0.750	-0.380
2020/01/31 01:55:48.9	95.720	0.200	-0.750	-0.380
2020/01/31 01:55:49.0	95.720	0.190	-0.740	-0.370
2020/01/31 01:55:49.1	95.720	0.180	-0.730	-0.360
2020/01/31 01:55:49.2	95.720	0.170	-0.710	-0.350
2020/01/31 01:55:49.3	95.710	0.160	-0.690	-0.330
2020/01/31 01:55:49.4	95.710	0.150	-0.670	-0.310
2020/01/31 01:55:49.5	95.710	0.140	-0.650	-0.290
2020/01/31 01:55:49.6	95.700	0.120	-0.630	-0.270
2020/01/31 01:55:49.7	95.700	0.110	-0.600	-0.240
2020/01/31 01:55:49.8	95.690	0.100	-0.570	-0.220
2020/01/31 01:55:49.9	95.680	0.080	-0.540	-0.190
2020/01/31 01:55:50.0	95.670	0.060	-0.500	-0.160
2020/01/31 01:55:50.1	95.660	0.050	-0.470	-0.130
2020/01/31 01:55:50.2	95.650	0.030	-0.430	-0.100
2020/01/31 01:55:50.3	95.640	0.020	-0.390	-0.070
2020/01/31 01:55:50.4	95.630	-0.000	-0.350	-0.030
2020/01/31 01:55:50.5	95.610	-0.020	-0.310	-0.000
2020/01/31 01:55:50.6	95.600	-0.030	-0.260	0.030
2020/01/31 01:55:50.7	95.590	-0.050	-0.220	0.070
2020/01/31 01:55:50.8	95.570	-0.070	-0.180	0.110
2020/01/31 01:55:50.9	95.560	-0.080	-0.130	0.150
2020/01/31 01:55:51.0	95.550	-0.100	-0.090	0.200
2020/01/31 01:55:51.1	95.540	-0.120	-0.050	0.240
2020/01/31 01:55:51.2	95.520	-0.130	-0.010	0.290
2020/01/31 01:55:51.3	95.510	-0.140	0.030	0.330
2020/01/31 01:55:51.4	95.490	-0.160	0.070	0.380
2020/01/31 01:55:51.5	95.470	-0.170	0.110	0.430
2020/01/31 01:55:51.6	95.460	-0.180	0.140	0.480
2020/01/31 01:55:51.7	95.440	-0.190	0.180	0.530
2020/01/31 01:55:51.8	95.430	-0.200	0.210	0.580
2020/01/31 01:55:51.9	95.420	-0.210	0.230	0.640
2020/01/31 01:55:52.0	95.420	-0.220	0.260	0.690
2020/01/31 01:55:52.1	95.410	-0.230	0.280	0.740
2020/01/31 01:55:52.2	95.400	-0.230	0.290	0.790
2020/01/31 01:55:52.3	95.400	-0.240	0.310	0.840
2020/01/31 01:55:52.4	95.400	-0.240	0.320	0.880
2020/01/31 01:55:52.5	95.390	-0.240	0.320	0.920
2020/01/31 01:55:52.6	95.390	-0.240	0.320	0.970
2020/01/31 01:55:52.7	95.400	-0.240	0.320	1.010
2020/01/31 01:55:52.8	95.400	-0.240	0.320	1.040
2020/01/31 01:55:52.9	95.410	-0.240	0.310	1.080
2020/01/31 01:55:53.0	95.420	-0.230	0.290	1.120
2020/01/31 01:55:53.1	95.430	-0.230	0.280	1.150
2020/01/31 01:55:53.2	95.450	-0.220	0.260	1.180
2020/01/31 01:55:53.3	95.460	-0.210	0.240	1.200
2020/01/31 01:55:53.4	95.480	-0.200	0.210	1.230
2020/01/31 01:55:53.5	95.490	-0.190	0.190	1.250
2020/01/31 01:55:53.6	95.510	-0.180	0.160	1.270
2020/01/31 01:55:53.7	95.530	-0.170	0.140	1.290
2020/01/31 01:55:53.8	95.550	-0.160	0.110	1.300
2020/01/31 01:55:53.9	95.560	-0.150	0.080	1.320
2020/01/31 01:55:54.0	95.590	-0.130	0.050	1.330
2020/01/31 01:55:54.1	95.610	-0.120	0.020	1.340
2020/01/31 01:55:54.2	95.630	-0.110	-0.010	1.350
2020/01/31 01:55:54.3	95.650	-0.090	-0.040	1.360
2020/01/31 01:55:54.4	95.670	-0.080	-0.070	1.370
2020/01/31 01:55:54.5	95.690	-0.060	-0.090	1.370
2020/01/31 01:55:54.6	95.700	-0.050	-0.120	1.380
2020/01/31 01:55:54.7	95.720	-0.040	-0.150	1.380
2020/01/31 01:55:54.8	95.740	-0.020	-0.170	1.380
2020/01/31 01:55:54.9	95.760	-0.010	-0.190	1.380
2020/01/31 01:55:55.0	95.780	0.000	-0.220	1.380
2020/01/31 01:55:55.1	95.800	0.020	-0.240	1.380
2020/01/31 01:55:55.2	95.820	0.030	-0.250	1.380
2020/01/31 01:55:55.3	95.830	0.040	-0.270	1.370
2020/01/31 01:55:55.4	95.850	0.050	-0.290	1.370
2020/01/31 01:55:55.5	95.870	0.060	-0.300	1.360
2020/01/31 01:55:55.6	95.880	0.080	-0.310	1.350
2020/01/31 01:55:55.7	95.900	0.090	-0.320	1.350
2020/01/31 01:55:55.8	95.910	0.100	-0.330	1.340
2020/01/31 01:55:55.9	95.930	0.110	-0.340	1.330
2020/01/31 01:55:56.0	95.940	0.120	-0.340	1.310
2020/01/31 01:55:56.1	95.960	0.130	-0.350	1.310
2020/01/31 01:55:56.2	95.970	0.140	-0.350	1.300
2020/01/31 01:55:56.3	95.980	0.150	-0.350	1.290
2020/01/31 01:55:56.4	96.000	0.160	-0.350	1.280
2020/01/31 01:55:56.5	96.010	0.170	-0.350	1.270
2020/01/31 01:55:56.6	96.020	0.170	-0.350	1.270
2020/01/31 01:55:56.7	96.020	0.180	-0.350	1.260
2020/01/31 01:55:56.8	96.030	0.190	-0.340	1.260
2020/01/31 01:55:56.9	96.040	0.200	-0.340	1.250
2020/01/31 01:55:57.0	96.030	0.200	-0.340	1.260
2020/01/31 01:55:57.1	96.030	0.210	-0.330	1.260
2020/01/31 01:55:57.2	96.030	0.210	-0.320	1.260
2020/01/31 01:55:57.3	96.020	0.220	-0.320	1.260
2020/01/31 01:55:57.4	96.020	0.220	-0.310	1.270
2020/01/31 01:55:57.5	96.010	0.220	-0.300	1.270
2020/01/31 01:55:57.6	96.000	0.230	-0.290	1.280
2020/01/31 01:55:57.7	95.990	0.230	-0.280	1.280
2020/01/31 01:55:57.8	95.980	0.230	-0.270	1.290
2020/01/31 01:55:57.9	95.970	0.230	-0.260	1.300
2020/01/31 01:55:58.0	95.960	0.230	-0.240	1.300
2020/01/31 01:55:58.1	95.940	0.230	-0.230	1.300
2020/01/31 01:55:58.2	95.930	0.220	-0.220	1.310
2020/01/31 01:55:58.3	95.920	0.220	-0.210	1.310
2020/01/31 01:55:58.4	95.900	0.210	-0.210	1.300
2020/01/31 01:55:58.5	95.890	0.210	-0.200	1.300
2020/01/31 01:55:58.6	95.870	0.200	-0.190	1.290
2020/01/31 01:55:58.7	95.860	0.190	-0.180	1.280
2020/01/31 01:55:58.8	95.850	0.180	-0.170	1.270
2020/01/31 01:55:58.9	95.840	0.170	-0.170	1.250
2020/01/31 01:55:59.0	95.830	0.160	-0.160	1.230
2020/01/31 01:55:59.1	95.820	0.150	-0.150	1.210
2020/01/31 01:55:59.2	95.820	0.140	-0.150	1.180
2020/01/31 01:55:59.3	95.810	0.130	-0.140	1.160
2020/01/31 01:55:59.4	95.810	0.110	-0.140	1.130
2020/01/31 01:55:59.5	95.810	0.100	-0.140	1.100
2020/01/31 01:55:59.6	95.810	0.080	-0.130	1.070
2020/01/31 01:55:59.7	95.810	0.060	-0.130	1.040
2020/01/31 01:55:59.8	95.810	0.050	-0.120	1.000
2020/01/31 01:55:59.9	95.820	0.030	-0.120	0.970
2020/01/31 01:56:00.0	95.820	0.010	-0.120	0.940
2020/01/31 01:56:00.1	95.830	-0.010	-0.110	0.910
2020/01/31 01:56:00.2	95.830	-0.020	-0.110	0.870
2020/01/31 01:56:00.3	95.840	-0.040	-0.100	0.840
2020/01/31 01:56:00.4	95.850	-0.060	-0.100	0.810
2020/01/31 01:56:00.5	95.860	-0.080	-0.090	0.780
2020/01/31 01:56:00.6	95.870	-0.100	-0.090	0.750
2020/01/31 01:56:00.7	95.880	-0.120	-0.080	0.720
2020/01/31 01:56:00.8	95.890	-0.130	-0.080	0.690
2020/01/31 01:56:00.9	95.900	-0.150	-0.070	0.670
2020/01/31 01:56:01.0	95.910	-0.170	-0.060	0.650
2020/01/31 01:56:01.1	95.920	-0.180	-0.050	0.620
2020/01/31 01:56:01.2	95.930	-0.200	-0.050	0.600
2020/01/31 01:56:01.3	95.940	-0.210	-0.040	0.580
2020/01/31 01:56:01.4	95.950	-0.230	-0.030	0.570
2020/01/31 01:56:01.5	95.960	-0.240	-0.030	0.550
2020/01/31 01:56:01.6	95.960	-0.260	-0.020	0.530
2020/01/31 01:56:01.7	95.970	-0.270	-0.020	0.520
2020/01/31 01:56:01.8	95.980	-0.280	-0.020	0.510
2020/01/31 01:56:01.9	95.980	-0.290	-0.010	0.500
2020/01/31 01:56:02.0	95.990	-0.300	-0.010	0.490
2020/01/31 01:56:02.1	95.990	-0.310	-0.010	0.480
2020/01/31 01:56:02.2	96.000	-0.320	-0.010	0.470
2020/01/31 01:56:02.3	96.010	-0.330	-0.010	0.460
2020/01/31 01:56:02.4	96.010	-0.340	-0.010	0.450
2020/01/31 01:56:02.5	96.020	-0.340	-0.010	0.440
2020/01/31 01:56:02.6	96.020	-0.350	-0.010	0.440
2020/01/31 01:56:02.7	96.030	-0.350	-0.010	0.430
2020/01/31 01:56:02.8	96.030	-0.350	-0.020	0.430
2020/01/31 01:56:02.9	96.040	-0.360	-0.020	0.430
2020/01/31 01:56:03.0	96.050	-0.360	-0.020	0.430
2020/01/31 01:56:03.1	96.050	-0.360	-0.020	0.430
2020/01/31 01:56:03.2	96.050	-0.360	-0.020	0.430
2020/01/31 01:56:03.3	96.050	-0.360	-0.030	0.430
2020/01/31 01:56:03.4	96.050	-0.350	-0.030	0.440
2020/01/31 01:56:03.5	96.050	-0.350	-0.040	0.440
2020/01/31 01:56:03.6	96.040	-0.340	-0.040	0.450
2020/01/31 01:56:03.7	96.040	-0.340	-0.050	0.450
2020/01/31 01:56:03.8	96.030	-0.330	-0.060	0.460
2020/01/31 01:56:03.9	96.020	-0.320	-0.060	0.470
2020/01/31 01:56:04.0	96.010	-0.310	-0.070	0.490
2020/01/31 01:56:04.1	96.000	-0.300	-0.080	0.500
2020/01/31 01:56:04.2	95.990	-0.290	-0.090	0.510
2020/01/31 01:56:04.3	95.970	-0.270	-0.100	0.520
2020/01/31 01:56:04.4	95.950	-0.250	-0.110	0.530
2020/01/31 01:56:04.5	95.930	-0.240	-0.120	0.540
2020/01/31 01:56:04.6	95.920	-0.220	-0.140	0.550
2020/01/31 01:56:04.7	95.900	-0.200	-0.150	0.560
2020/01/31 01:56:04.8	95.880	-0.170	-0.170	0.570
2020/01/31 01:56:04.9	95.860	-0.150	-0.190	0.580
2020/01/31 01:56:05.0	95.840	-0.120	-0.200	0.590
2020/01/31 01:56:05.1	95.830	-0.100	-0.220	0.590
2020/01/31 01:56:05.2	95.810	-0.070	-0.250	0.590
2020/01/31 01:56:05.3	95.800	-0.040	-0.270	0.590
2020/01/31 01:56:05.4	95.790	-0.010	-0.290	0.590
2020/01/31 01:56:05.5	95.780	0.030	-0.320	0.590
2020/01/31 01:56:05.6	95.780	0.060	-0.340	0.580
2020/01/31 01:56:05.7	95.780	0.100	-0.370	0.570
2020/01/31 01:56:05.8	95.780	0.140	-0.400	0.560
2020/01/31 01:56:05.9	95.790	0.170	-0.420	0.550
2020/01/31 01:56:06.0	95.790	0.210	-0.460	0.530
2020/01/31 01:56:06.1	95.800	0.250	-0.480	0.520
2020/01/31 01:56:06.2	95.820	0.290	-0.510	0.500
2020/01/31 01:56:06.3	95.840	0.330	-0.530	0.480
2020/01/31 01:56:06.4	95.860	0.370	-0.550	0.450
2020/01/31 01:56:06.5	95.890	0.400	-0.570	0.430
2020/01/31 01:56:06.6	95.920	0.440	-0.590	0.410
2020/01/31 01:56:06.7	95.950	0.480	-0.600	0.390
2020/01/31 01:56:06.8	95.980	0.510	-0.610	0.360
2020/01/31 01:56:06.9	96.020	0.540	-0.620	0.340
2020/01/31 01:56:07.0	96.050	0.570	-0.620	0.320
2020/01/31 01:56:07.1	96.090	0.600	-0.620	0.300
2020/01/31 01:56:07.2	96.120	0.630	-0.610	0.280
2020/01/31 01:56:07.3	96.160	0.650	-0.600	0.270
2020/01/31 01:56:07.4	96.190	0.670	-0.580	0.250
2020/01/31 01:56:07.5	96.230	0.680	-0.560	0.240
2020/01/31 01:56:07.6	96.260	0.700	-0.540	0.220
2020/01/31 01:56:07.7	96.290	0.710	-0.510	0.210
2020/01/31 01:56:07.8	96.320	0.710	-0.470	0.200
2020/01/31 01:56:07.9	96.350	0.710	-0.430	0.190
2020/01/31 01:56:08.0	96.360	0.710	-0.390	0.190
2020/01/31 01:56:08.1	96.380	0.700	-0.350	0.180
2020/01/31 01:56:08.2	96.400	0.690	-0.300	0.180
2020/01/31 01:56:08.3	96.410	0.680	-0.240	0.180
2020/01/31 01:56:08.4	96.430	0.660	-0.190	0.180
2020/01/31 01:56:08.5	96.440	0.630	-0.130	0.180
2020/01/31 01:56:08.6	96.450	0.610	-0.070	0.190
2020/01/31 01:56:08.7	96.460	0.580	-0.010	0.200
2020/01/31 01:56:08.8	96.460	0.550	0.050	0.200
2020/01/31 01:56:08.9	96.460	0.510	0.120	0.220
2020/01/31 01:56:09.0	96.470	0.470	0.190	0.230
2020/01/31 01:56:09.1	96.460	0.430	0.250	0.250
2020/01/31 01:56:09.2	96.460	0.390	0.310	0.260
2020/01/31 01:56:09.3	96.450	0.340	0.370	0.280
2020/01/31 01:56:09.4	96.440	0.290	0.420	0.310
2020/01/31 01:56:09.5	96.430	0.240	0.470	0.330
2020/01/31 01:56:09.6	96.410	0.190	0.520	0.360
2020/01/31 01:56:09.7	96.400	0.140	0.570	0.390
2020/01/31 01:56:09.8	96.380	0.090	0.600	0.430
2020/01/31 01:56:09.9	96.360	0.040	0.640	0.470
2020/01/31 01:56:10.0	96.340	-0.010	0.660	0.510
2020/01/31 01:56:10.1	96.310	-0.060	0.680	0.560
2020/01/31 01:56:10.2	96.290	-0.110	0.700	0.600
2020/01/31 01:56:10.3	96.260	-0.160	0.710	0.650
2020/01/31 01:56:10.4	96.230	-0.210	0.700	0.700
2020/01/31 01:56:10.5	96.200	-0.260	0.700	0.760
2020/01/31 01:56:10.6	96.170	-0.300	0.680	0.810
2020/01/31 01:56:10.7	96.140	-0.340	0.660	0.870
2020/01/31 01:56:10.8	96.110	-0.380	0.630	0.930
2020/01/31 01:56:10.9	96.080	-0.420	0.590	0.990
2020/01/31 01:56:11.0	96.050	-0.450	0.540	1.050
2020/01/31 01:56:11.1	96.020	-0.480	0.490	1.110
2020/01/31 01:56:11.2	95.990	-0.510	0.430	1.170
2020/01/31 01:56:11.3	95.950	-0.540	0.370	1.240
2020/01/31 01:56:11.4	95.920	-0.560	0.300	1.300
2020/01/31 01:56:11.5	95.890	-0.580	0.220	1.360
2020/01/31 01:56:11.6	95.860	-0.600	0.140	1.420
2020/01/31 01:56:11.7	95.830	-0.610	0.060	1.480
2020/01/31 01:56:11.8	95.810	-0.620	-0.020	1.540
2020/01/31 01:56:11.9	95.780	-0.630	-0.110	1.600
2020/01/31 01:56:12.0	95.760	-0.630	-0.200	1.650
2020/01/31 01:56:12.1	95.740	-0.630	-0.280	1.700
2020/01/31 01:56:12.2	95.710	-0.630	-0.370	1.750
2020/01/31 01:56:12.3	95.690	-0.630	-0.450	1.800
2020/01/31 01:56:12.4	95.680	-0.620	-0.540	1.850
2020/01/31 01:56:12.5	95.660	-0.620	-0.610	1.890
2020/01/31 01:56:12.6	95.650	-0.600	-0.690	1.920
2020/01/31 01:56:12.7	95.640	-0.590	-0.760	1.960
2020/01/31 01:56:12.8	95.630	-0.580	-0.820	1.990
2020/01/31 01:56:12.9	95.620	-0.560	-0.880	2.010
2020/01/31 01:56:13.0	95.630	-0.540	-0.940	2.030
2020/01/31 01:56:13.1	95.630	-0.520	-0.980	2.050
2020/01/31 01:56:13.2	95.630	-0.500	-1.020	2.060
2020/01/31 01:56:13.3	95.630	-0.480	-1.060	2.070
2020/01/31 01:56:13.4	95.640	-0.450	-1.080	2.070
2020/01/31 01:56:13.5	95.650	-0.430	-1.100	2.070
2020/01/31 01:56:13.6	95.660	-0.400	-1.110	2.070
2020/01/31 01:56:13.7	95.670	-0.370	-1.110	2.060
2020/01/31 01:56:13.8	95.690	-0.350	-1.110	2.040
2020/01/31 01:56:13.9	95.710	-0.320	-1.100	2.020
2020/01/31 01:56:14.0	95.740	-0.290	-1.080	2.010
2020/01/31 01:56:14.1	95.760	-0.260	-1.060	1.980
2020/01/31 01:56:14.2	95.790	-0.230	-1.020	1.950
2020/01/31 01:56:14.3	95.810	-0.200	-0.990	1.910
2020/01/31 01:56:14.4	95.840	-0.170	-0.940	1.870
2020/01/31 01:56:14.5	95.870	-0.150	-0.900	1.830
2020/01/31 01:56:14.6	95.900	-0.120	-0.840	1.790
2020/01/31 01:56:14.7	95.930	-0.090	-0.790	1.750
2020/01/31 01:56:14.8	95.960	-0.060	-0.730	1.700
2020/01/31 01:56:14.9	95.990	-0.040	-0.660	1.650
2020/01/31 01:56:15.0	96.010	-0.010	-0.590	1.590
2020/01/31 01:56:15.1	96.040	0.010	-0.520	1.540
2020/01/31 01:56:15.2	96.070	0.040	-0.450	1.490
2020/01/31 01:56:15.3	96.100	0.060	-0.380	1.430
2020/01/31 01:56:15.4	96.130	0.080	-0.310	1.380
2020/01/31 01:56:15.5	96.160	0.100	-0.240	1.320
2020/01/31 01:56:15.6	96.190	0.110	-0.160	1.260
2020/01/31 01:56:15.7	96.210	0.130	-0.090	1.200
2020/01/31 01:56:15.8	96.230	0.140	-0.020	1.140
2020/01/31 01:56:15.9	96.260	0.160	0.040	1.080
2020/01/31 01:56:16.0	96.280	0.170	0.110	1.030
2020/01/31 01:56:16.1	96.300	0.180	0.170	0.970
2020/01/31 01:56:16.2	96.320	0.190	0.230	0.910
2020/01/31 01:56:16.3	96.330	0.190	0.290	0.850
2020/01/31 01:56:16.4	96.340	0.200	0.340	0.790
2020/01/31 01:56:16.5	96.350	0.200	0.390	0.740
2020/01/31 01:56:16.6	96.360	0.200	0.430	0.680
2020/01/31 01:56:16.7	96.360	0.200	0.470	0.630
2020/01/31 01:56:16.8	96.360	0.200	0.510	0.580
2020/01/31 01:56:16.9	96.360	0.200	0.540	0.530
2020/01/31 01:56:17.0	96.350	0.200	0.570	0.480
2020/01/31 01:56:17.1	96.340	0.200	0.590	0.440
2020/01/31 01:56:17.2	96.330	0.190	0.610	0.400
2020/01/31 01:56:17.3	96.320	0.190	0.620	0.360
2020/01/31 01:56:17.4	96.300	0.190	0.620	0.320
2020/01/31 01:56:17.5	96.280	0.190	0.620	0.290
2020/01/31 01:56:17.6	96.250	0.180	0.610	0.260
2020/01/31 01:56:17.7	96.220	0.180	0.600	0.230
2020/01/31 01:56:17.8	96.200	0.180	0.580	0.200
2020/01/31 01:56:17.9	96.170	0.180	0.550	0.180
2020/01/31 01:56:18.0	96.120	0.180	0.520	0.150
2020/01/31 01:56:18.1	96.090	0.180	0.480	0.130
2020/01/31 01:56:18.2	96.050	0.180	0.440	0.110
2020/01/31 01:56:18.3	96.020	0.180	0.400	0.100
2020/01/31 01:56:18.4	95.980	0.190	0.350	0.080
2020/01/31 01:56:18.5	95.950	0.190	0.300	0.060
2020/01/31 01:56:18.6	95.910	0.200	0.240	0.050
2020/01/31 01:56:18.7	95.880	0.200	0.180	0.030
2020/01/31 01:56:18.8	95.840	0.210	0.120	0.020
2020/01/31 01:56:18.9	95.810	0.220	0.060	0.000
2020/01/31 01:56:19.0	95.760	0.230	-0.000	-0.010
2020/01/31 01:56:19.1	95.730	0.230	-0.060	-0.020
2020/01/31 01:56:19.2	95.700	0.240	-0.130	-0.040
2020/01/31 01:56:19.3	95.670	0.250	-0.190	-0.050
2020/01/31 01:56:19.4	95.650	0.260	-0.250	-0.060
2020/01/31 01:56:19.5	95.620	0.260	-0.310	-0.070
2020/01/31 01:56:19.6	95.600	0.270	-0.360	-0.080
2020/01/31 01:56:19.7	95.580	0.280	-0.420	-0.090
2020/01/31 01:56:19.8	95.560	0.280	-0.470	-0.110
2020/01/31 01:56:19.9	95.540	0.290	-0.510	-0.120
2020/01/31 01:56:20.0	95.530	0.290	-0.550	-0.130
2020/01/31 01:56:20.1	95.520	0.290	-0.590	-0.140
2020/01/31 01:56:20.2	95.510	0.290	-0.630	-0.150
2020/01/31 01:56:20.3	95.510	0.290	-0.650	-0.150
2020/01/31 01:56:20.4	95.500	0.280	-0.680	-0.160
2020/01/31 01:56:20.5	95.500	0.280	-0.700	-0.170
2020/01/31 01:56:20.6	95.510	0.270	-0.710	-0.170
2020/01/31 01:56:20.7	95.520	0.260	-0.720	-0.180
2020/01/31 01:56:20.8	95.530	0.250	-0.730	-0.180
2020/01/31 01:56:20.9	95.540	0.240	-0.730	-0.190
2020/01/31 01:56:21.0	95.550	0.220	-0.720	-0.180
2020/01/31 01:56:21.1	95.560	0.210	-0.710	-0.180
2020/01/31 01:56:21.2	95.580	0.190	-0.700	-0.180
2020/01/31 01:56:21.3	95.610	0.170	-0.680	-0.180
2020/01/31 01:56:21.4	95.630	0.150	-0.660	-0.180
2020/01/31 01:56:21.5	95.660	0.130	-0.630	-0.170
2020/01/31 01:56:21.6	95.690	0.100	-0.600	-0.160
2020/01/31 01:56:21.7	95.710	0.080	-0.570	-0.150
2020/01/31 01:56:21.8	95.740	0.060	-0.530	-0.130
2020/01/31 01:56:21.9	95.770	0.030	-0.490	-0.110
2020/01/31 01:56:22.0	95.800	0.010	-0.440	-0.090
2020/01/31 01:56:22.1	95.830	-0.020	-0.400	-0.070
2020/01/31 01:56:22.2	95.850	-0.050	-0.360	-0.040
2020/01/31 01:56:22.3	95.880	-0.070	-0.310	-0.010
2020/01/31 01:56:22.4	95.910	-0.100	-0.260	0.030
2020/01/31 01:56:22.5	95.940	-0.120	-0.220	0.060
2020/01/31 01:56:22.6	95.960	-0.140	-0.170	0.100
2020/01/31 01:56:22.7	95.990	-0.170	-0.120	0.150
2020/01/31 01:56:22.8	96.010	-0.190	-0.080	0.190
2020/01/31 01:56:22.9	96.040	-0.210	-0.040	0.240
2020/01/31 01:56:23.0	96.060	-0.220	0.010	0.300
2020/01/31 01:56:23.1	96.080	-0.240	0.040	0.350
2020/01/31 01:56:23.2	96.100	-0.260	0.080	0.410
2020/01/31 01:56:23.3	96.120	-0.270	0.110	0.470
2020/01/31 01:56:23.4	96.140	-0.280	0.140	0.530
2020/01/31 01:56:23.5	96.160	-0.290	0.170	0.590
2020/01/31 01:56:23.6	96.170	-0.290	0.190	0.650
2020/01/31 01:56:23.7	96.190	-0.300	0.210	0.710
2020/01/31 01:56:23.8	96.200	-0.300	0.230	0.780
2020/01/31 01:56:23.9	96.210	-0.300	0.240	0.850
2020/01/31 01:56:24.0	96.220	-0.300	0.250	0.920
2020/01/31 01:56:24.1	96.230	-0.290	0.260	0.990
2020/01/31 01:56:24.2	96.230	-0.290	0.260	1.060
2020/01/31 01:56:24.3	96.240	-0.280	0.260	1.130
2020/01/31 01:56:24.4	96.240	-0.270	0.260	1.210
2020/01/31 01:56:24.5	96.240	-0.260	0.260	1.280
2020/01/31 01:56:24.6	96.240	-0.250	0.250	1.360
2020/01/31 01:56:24.7	96.240	-0.240	0.240	1.430
2020/01/31 01:56:24.8	96.240	-0.230	0.230	1.510
2020/01/31 01:56:24.9	96.230	-0.220	0.220	1.580
2020/01/31 01:56:25.0	96.220	-0.210	0.210	1.660
2020/01/31 01:56:25.1	96.220	-0.200	0.190	1.740
2020/01/31 01:56:25.2	96.200	-0.190	0.180	1.810
2020/01/31 01:56:25.3	96.190	-0.180	0.160	1.890
2020/01/31 01:56:25.4	96.180	-0.170	0.140	1.960
2020/01/31 01:56:25.5	96.160	-0.160	0.120	2.030
2020/01/31 01:56:25.6	96.150	-0.150	0.110	2.100
2020/01/31 01:56:25.7	96.130	-0.150	0.090	2.160
2020/01/31 01:56:25.8	96.110	-0.140	0.070	2.220
2020/01/31 01:56:25.9	96.090	-0.140	0.050	2.280
2020/01/31 01:56:26.0	96.080	-0.140	0.030	2.340
2020/01/31 01:56:26.1	96.060	-0.140	0.010	2.390
2020/01/31 01:56:26.2	96.040	-0.140	-0.010	2.440
2020/01/31 01:56:26.3	96.010	-0.140	-0.030	2.480
2020/01/31 01:56:26.4	95.990	-0.150	-0.040	2.520
2020/01/31 01:56:26.5	95.960	-0.150	-0.060	2.560
2020/01/31 01:56:26.6	95.940	-0.150	-0.080	2.590
2020/01/31 01:56:26.7	95.920	-0.160	-0.100	2.610
2020/01/31 01:56:26.8	95.890	-0.170	-0.120	2.630
2020/01/31 01:56:26.9	95.870	-0.170	-0.140	2.640
2020/01/31 01:56:27.0	95.860	-0.180	-0.150	2.650
2020/01/31 01:56:27.1	95.840	-0.180	-0.170	2.660
2020/01/31 01:56:27.2	95.810	-0.190	-0.190	2.650
2020/01/31 01:56:27.3	95.790	-0.190	-0.210	2.650
2020/01/31 01:56:27.4	95.770	-0.200	-0.230	2.630
2020/01/31 01:56:27.5	95.750	-0.200	-0.250	2.620
2020/01/31 01:56:27.6	95.730	-0.200	-0.270	2.590
2020/01/31 01:56:27.7	95.720	-0.200	-0.290	2.570
2020/01/31 01:56:27.8	95.700	-0.200	-0.310	2.530
2020/01/31 01:56:27.9	95.680	-0.190	-0.330	2.500
2020/01/31 01:56:28.0	95.680	-0.190	-0.350	2.450
2020/01/31 01:56:28.1	95.670	-0.180	-0.370	2.410
2020/01/31 01:56:28.2	95.660	-0.160	-0.380	2.360
2020/01/31 01:56:28.3	95.650	-0.150	-0.400	2.310
2020/01/31 01:56:28.4	95.640	-0.130	-0.420	2.250
2020/01/31 01:56:28.5	95.630	-0.110	-0.440	2.190
2020/01/31 01:56:28.6	95.630	-0.090	-0.460	2.120
2020/01/31 01:56:28.7	95.630	-0.070	-0.470	2.050
2020/01/31 01:56:28.8	95.620	-0.040	-0.490	1.980
2020/01/31 01:56:28.9	95.630	-0.010	-0.510	1.900
2020/01/31 01:56:29.0	95.630	0.020	-0.520	1.820
2020/01/31 01:56:29.1	95.640	0.050	-0.540	1.740
2020/01/31 01:56:29.2	95.640	0.080	-0.550	1.650
2020/01/31 01:56:29.3	95.650	0.120	-0.570	1.560
2020/01/31 01:56:29.4	95.660	0.150	-0.580	1.470
2020/01/31 01:56:29.5	95.680	0.190	-0.590	1.380
2020/01/31 01:56:29.6	95.690	0.230	-0.600	1.280
2020/01/31 01:56:29.7	95.710	0.270	-0.600	1.180
2020/01/31 01:56:29.8	95.720	0.300	-0.610	1.080
2020/01/31 01:56:29.9	95.740	0.340	-0.620	0.980
2020/01/31 01:56:30.0	95.740	0.380	-0.620	0.880
2020/01/31 01:56:30.1	95.760	0.410	-0.620	0.780
2020/01/31 01:56:30.2	95.780	0.450	-0.620	0.680
2020/01/31 01:56:30.3	95.800	0.480	-0.620	0.580
2020/01/31 01:56:30.4	95.810	0.510	-0.610	0.480
2020/01/31 01:56:30.5	95.830	0.540	-0.610	0.380
2020/01/31 01:56:30.6	95.850	0.560	-0.600	0.290
2020/01/31 01:56:30.7	95.860	0.590	-0.580	0.190
2020/01/31 01:56:30.8	95.880	0.600	-0.570	0.100
2020/01/31 01:56:30.9	95.890	0.620	-0.550	0.000
2020/01/31 01:56:31.0	95.900	0.630	-0.530	-0.080
2020/01/31 01:56:31.1	95.910	0.640	-0.510	-0.170
2020/01/31 01:56:31.2	95.920	0.650	-0.480	-0.260
2020/01/31 01:56:31.3	95.930	0.650	-0.450	-0.340
2020/01/31 01:56:31.4	95.930	0.640	-0.420	-0.420
2020/01/31 01:56:31.5	95.940	0.640	-0.390	-0.490
2020/01/31 01:56:31.6	95.940	0.620	-0.350	-0.560
2020/01/31 01:56:31.7	95.950	0.610	-0.320	-0.630
2020/01/31 01:56:31.8	95.950	0.590	-0.280	-0.700
2020/01/31 01:56:31.9	95.950	0.560	-0.230	-0.760
2020/01/31 01:56:32.0	95.940	0.540	-0.190	-0.810
2020/01/31 01:56:32.1	95.950	0.500	-0.150	-0.860
2020/01/31 01:56:32.2	95.950	0.470	-0.100	-0.900
2020/01/31 01:56:32.3	95.950	0.430	-0.050	-0.940
2020/01/31 01:56:32.4	95.950	0.390	0.010	-0.970
2020/01/31 01:56:32.5	95.950	0.340	0.060	-1.000
2020/01/31 01:56:32.6	95.950	0.300	0.110	-1.020
2020/01/31 01:56:32.7	95.950	0.250	0.170	-1.030
2020/01/31 01:56:32.8	95.940	0.200	0.220	-1.040
2020/01/31 01:56:32.9	95.940	0.140	0.280	-1.040
2020/01/31 01:56:33.0	95.930	0.090	0.330	-1.030
2020/01/31 01:56:33.1	95.930	0.040	0.390	-1.020
2020/01/31 01:56:33.2	95.930	-0.020	0.440	-1.000
2020/01/31 01:56:33.3	95.920	-0.070	0.490	-0.980
2020/01/31 01:56:33.4	95.910	-0.120	0.530	-0.940
2020/01/31 01:56:33.5	95.910	-0.180	0.570	-0.910
2020/01/31 01:56:33.6	95.900	-0.230	0.610	-0.870
2020/01/31 01:56:33.7	95.890	-0.270	0.640	-0.820
2020/01/31 01:56:33.8	95.890	-0.320	0.670	-0.770
2020/01/31 01:56:33.9	95.880	-0.360	0.690	-0.710
2020/01/31 01:56:34.0	95.870	-0.400	0.710	-0.650
2020/01/31 01:56:34.1	95.860	-0.440	0.720	-0.590
2020/01/31 01:56:34.2	95.860	-0.480	0.730	-0.530
2020/01/31 01:56:34.3	95.850	-0.510	0.720	-0.460
2020/01/31 01:56:34.4	95.840	-0.530	0.710	-0.390
2020/01/31 01:56:34.5	95.830	-0.550	0.700	-0.320
2020/01/31 01:56:34.6	95.830	-0.570	0.670	-0.250
2020/01/31 01:56:34.7	95.820	-0.580	0.640	-0.180
2020/01/31 01:56:34.8	95.810	-0.590	0.600	-0.100
2020/01/31 01:56:34.9	95.810	-0.600	0.560	-0.030
2020/01/31 01:56:35.0	95.790	-0.600	0.510	0.050
2020/01/31 01:56:35.1	95.780	-0.600	0.450	0.130
2020/01/31 01:56:35.2	95.780	-0.590	0.400	0.210
2020/01/31 01:56:35.3	95.770	-0.580	0.330	0.290
2020/01/31 01:56:35.4	95.760	-0.570	0.270	0.370
2020/01/31 01:56:35.5	95.750	-0.560	0.200	0.450
2020/01/31 01:56:35.6	95.740	-0.540	0.120	0.530
2020/01/31 01:56:35.7	95.730	-0.520	0.050	0.620
2020/01/31 01:56:35.8	95.720	-0.500	-0.030	0.700
2020/01/31 01:56:35.9	95.710	-0.470	-0.100	0.790
2020/01/31 01:56:36.0	95.700	-0.450	-0.180	0.870
2020/01/31 01:56:36.1	95.680	-0.420	-0.250	0.950
2020/01/31 01:56:36.2	95.670	-0.400	-0.330	1.040
2020/01/31 01:56:36.3	95.650	-0.370	-0.400	1.120
2020/01/31 01:56:36.4	95.640	-0.350	-0.460	1.200
2020/01/31 01:56:36.5	95.620	-0.320	-0.530	1.280
2020/01/31 01:56:36.6	95.600	-0.290	-0.590	1.360
2020/01/31 01:56:36.7	95.590	-0.270	-0.640	1.430
2020/01/31 01:56:36.8	95.570	-0.250	-0.690	1.510
2020/01/31 01:56:36.9	95.550	-0.220	-0.740	1.580
2020/01/31 01:56:37.0	95.560	-0.200	-0.780	1.660
2020/01/31 01:56:37.1	95.550	-0.180	-0.810	1.720
2020/01/31 01:56:37.2	95.530	-0.160	-0.840	1.790
2020/01/31 01:56:37.3	95.520	-0.140	-0.870	1.850
2020/01/31 01:56:37.4	95.510	-0.120	-0.890	1.910
2020/01/31 01:56:37.5	95.490	-0.110	-0.900	1.960
2020/01/31 01:56:37.6	95.480	-0.090	-0.910	2.020
2020/01/31 01:56:37.7	95.470	-0.080	-0.910	2.070
2020/01/31 01:56:37.8	95.470	-0.060	-0.910	2.110
2020/01/31 01:56:37.9	95.460	-0.050	-0.900	2.150
2020/01/31 01:56:38.0	95.470	-0.040	-0.890	2.190
2020/01/31 01:56:38.1	95.470	-0.030	-0.880	2.220
2020/01/31 01:56:38.2	95.470	-0.020	-0.860	2.250
2020/01/31 01:56:38.3	95.470	-0.010	-0.840	2.270
2020/01/31 01:56:38.4	95.470	0.010	-0.810	2.290
2020/01/31 01:56:38.5	95.480	0.020	-0.780	2.310
2020/01/31 01:56:38.6	95.490	0.030	-0.750	2.320
2020/01/31 01:56:38.7	95.500	0.040	-0.720	2.330
2020/01/31 01:56:38.8	95.510	0.060	-0.690	2.330
2020/01/31 01:56:38.9	95.530	0.070	-0.660	2.330
2020/01/31 01:56:39.0	95.540	0.080	-0.620	2.320
2020/01/31 01:56:39.1	95.560	0.100	-0.580	2.310
2020/01/31 01:56:39.2	95.580	0.120	-0.550	2.300
2020/01/31 01:56:39.3	95.600	0.140	-0.510	2.280
2020/01/31 01:56:39.4	95.630	0.150	-0.470	2.260
2020/01/31 01:56:39.5	95.650	0.170	-0.440	2.240
2020/01/31 01:56:39.6	95.670	0.190	-0.400	2.210
2020/01/31 01:56:39.7	95.700	0.220	-0.370	2.180
2020/01/31 01:56:39.8	95.720	0.240	-0.330	2.150
2020/01/31 01:56:39.9	95.740	0.260	-0.300	2.120
2020/01/31 01:56:40.0	95.760	0.280	-0.270	2.090
2020/01/31 01:56:40.1	95.780	0.300	-0.240	2.050
2020/01/31 01:56:40.2	95.790	0.330	-0.200	2.010
2020/01/31 01:56:40.3	95.810	0.350	-0.170	1.980
2020/01/31 01:56:40.4	95.820	0.370	-0.140	1.940
2020/01/31 01:56:40.5	95.830	0.390	-0.110	1.900
2020/01/31 01:56:40.6	95.840	0.400	-0.070	1.850
2020/01/31 01:56:40.7	95.850	0.420	-0.040	1.810
2020/01/31 01:56:40.8	95.850	0.430	-0.010	1.770
2020/01/31 01:56:40.9	95.850	0.450	0.030	1.720
2020/01/31 01:56:41.0	95.830	0.460	0.060	1.680
2020/01/31 01:56:41.1	95.820	0.460	0.100	1.630
2020/01/31 01:56:41.2	95.810	0.470	0.130	1.580
2020/01/31 01:56:41.3	95.800	0.470	0.170	1.530
2020/01/31 01:56:41.4	95.790	0.470	0.210	1.480
2020/01/31 01:56:41.5	95.770	0.460	0.240	1.430
2020/01/31 01:56:41.6	95.750	0.450	0.280	1.370
2020/01/31 01:56:41.7	95.730	0.440	0.320	1.320
2020/01/31 01:56:41.8	95.710	0.430	0.350	1.260
2020/01/31 01:56:41.9	95.680	0.410	0.390	1.210
2020/01/31 01:56:42.0	95.660	0.390	0.420	1.150
2020/01/31 01:56:42.1	95.640	0.370	0.460	1.100
2020/01/31 01:56:42.2	95.610	0.340	0.490	1.050
2020/01/31 01:56:42.3	95.580	0.310	0.520	0.990
2020/01/31 01:56:42.4	95.550	0.280	0.550	0.940
2020/01/31 01:56:42.5	95.520	0.240	0.570	0.890
2020/01/31 01:56:42.6	95.500	0.210	0.600	0.840
2020/01/31 01:56:42.7	95.470	0.170	0.620	0.790
2020/01/31 01:56:42.8	95.440	0.130	0.630	0.740
2020/01/31 01:56:42.9	95.420	0.100	0.640	0.690
2020/01/31 01:56:43.0	95.400	0.060	0.650	0.640
2020/01/31 01:56:43.1	95.370	0.020	0.660	0.590
2020/01/31 01:56:43.2	95.350	-0.020	0.650	0.550
2020/01/31 01:56:43.3	95.330	-0.060	0.650	0.500
2020/01/31 01:56:43.4	95.310	-0.100	0.630	0.460
2020/01/31 01:56:43.5	95.300	-0.130	0.610	0.410
2020/01/31 01:56:43.6	95.280	-0.170	0.590	0.370
2020/01/31 01:56:43.7	95.270	-0.200	0.560	0.330
2020/01/31 01:56:43.8	95.260	-0.230	0.520	0.290
2020/01/31 01:56:43.9	95.250	-0.260	0.480	0.240
2020/01/31 01:56:44.0	95.240	-0.290	0.430	0.200
2020/01/31 01:56:44.1	95.240	-0.310	0.380	0.160
2020/01/31 01:56:44.2	95.240	-0.330	0.320	0.120
2020/01/31 01:56:44.3	95.240	-0.340	0.260	0.070
2020/01/31 01:56:44.4	95.240	-0.350	0.190	0.030
2020/01/31 01:56:44.5	95.250	-0.360	0.120	-0.020
2020/01/31 01:56:44.6	95.260	-0.370	0.050	-0.060
2020/01/31 01:56:44.7	95.260	-0.370	-0.030	-0.110
2020/01/31 01:56:44.8	95.280	-0.370	-0.110	-0.160
2020/01/31 01:56:44.9	95.290	-0.360	-0.190	-0.200
2020/01/31 01:56:45.0	95.310	-0.350	-0.270	-0.250
2020/01/31 01:56:45.1	95.320	-0.340	-0.360	-0.290
2020/01/31 01:56:45.2	95.340	-0.320	-0.440	-0.330
2020/01/31 01:56:45.3	95.350	-0.300	-0.520	-0.380
2020/01/31 01:56:45.4	95.370	-0.280	-0.600	-0.410
2020/01/31 01:56:45.5	95.390	-0.260	-0.680	-0.450
2020/01/31 01:56:45.6	95.400	-0.230	-0.760	-0.480
2020/01/31 01:56:45.7	95.420	-0.200	-0.830	-0.510
2020/01/31 01:56:45.8	95.430	-0.180	-0.890	-0.540
2020/01/31 01:56:45.9	95.440	-0.140	-0.960	-0.560
2020/01/31 01:56:46.0	95.450	-0.110	-1.020	-0.570
2020/01/31 01:56:46.1	95.460	-0.080	-1.070	-0.580
2020/01/31 01:56:46.2	95.470	-0.050	-1.120	-0.580
2020/01/31 01:56:46.3	95.480	-0.010	-1.150	-0.580
2020/01/31 01:56:46.4	95.480	0.020	-1.180	-0.580
2020/01/31 01:56:46.5	95.480	0.050	-1.210	-0.560
2020/01/31 01:56:46.6	95.470	0.080	-1.220	-0.550
2020/01/31 01:56:46.7	95.470	0.110	-1.230	-0.520
2020/01/31 01:56:46.8	95.460	0.130	-1.230	-0.490
2020/01/31 01:56:46.9	95.450	0.160	-1.230	-0.450
2020/01/31 01:56:47.0	95.430	0.180	-1.210	-0.410
2020/01/31 01:56:47.1	95.410	0.200	-1.190	-0.360
2020/01/31 01:56:47.2	95.400	0.220	-1.160	-0.300
2020/01/31 01:56:47.3	95.370	0.230	-1.120	-0.240
2020/01/31 01:56:47.4	95.350	0.250	-1.080	-0.180
2020/01/31 01:56:47.5	95.320	0.250	-1.030	-0.110
2020/01/31 01:56:47.6	95.290	0.260	-0.980	-0.030
2020/01/31 01:56:47.7	95.260	0.270	-0.920	0.040
2020/01/31 01:56:47.8	95.230	0.270	-0.850	0.120
2020/01/31 01:56:47.9	95.190	0.260	-0.780	0.200
2020/01/31 01:56:48.0	95.160	0.260	-0.710	0.290
2020/01/31 01:56:48.1	95.120	0.250	-0.630	0.380
2020/01/31 01:56:48.2	95.080	0.240	-0.550	0.460
2020/01/31 01:56:48.3	95.040	0.230	-0.470	0.550
2020/01/31 01:56:48.4	95.000	0.220	-0.390	0.630
2020/01/31 01:56:48.5	94.970	0.210	-0.300	0.720
2020/01/31 01:56:48.6	94.930	0.190	-0.220	0.800
2020/01/31 01:56:48.7	94.900	0.170	-0.140	0.880
2020/01/31 01:56:48.8	94.860	0.150	-0.060	0.950
2020/01/31 01:56:48.9	94.830	0.140	0.020	1.030
2020/01/31 01:56:49.0	94.810	0.120	0.110	1.100
2020/01/31 01:56:49.1	94.790	0.100	0.180	1.170
2020/01/31 01:56:49.2	94.760	0.080	0.250	1.230
2020/01/31 01:56:49.3	94.740	0.060	0.320	1.290
2020/01/31 01:56:49.4	94.720	0.040	0.380	1.340
2020/01/31 01:56:49.5	94.700	0.020	0.440	1.390
2020/01/31 01:56:49.6	94.690	0.000	0.490	1.430
2020/01/31 01:56:49.7	94.680	-0.010	0.530	1.470
2020/01/31 01:56:49.8	94.680	-0.030	0.570	1.510
2020/01/31 01:56:49.9	94.670	-0.040	0.600	1.540
2020/01/31 01:56:50.0	94.670	-0.050	0.620	1.560
2020/01/31 01:56:50.1	94.680	-0.060	0.640	1.580
2020/01/31 01:56:50.2	94.680	-0.070	0.650	1.600
2020/01/31 01:56:50.3	94.700	-0.070	0.660	1.610
2020/01/31 01:56:50.4	94.710	-0.080	0.650	1.620
2020/01/31 01:56:50.5	94.730	-0.080	0.640	1.630
2020/01/31 01:56:50.6	94.750	-0.080	0.620	1.630
2020/01/31 01:56:50.7	94.770	-0.080	0.600	1.630
2020/01/31 01:56:50.8	94.790	-0.080	0.570	1.620
2020/01/31 01:56:50.9	94.820	-0.080	0.540	1.610
2020/01/31 01:56:51.0	94.860	-0.080	0.500	1.600
2020/01/31 01:56:51.1	94.890	-0.070	0.460	1.590
2020/01/31 01:56:51.2	94.930	-0.070	0.410	1.570
2020/01/31 01:56:51.3	94.960	-0.060	0.360	1.550
2020/01/31 01:56:51.4	95.000	-0.060	0.310	1.530
2020/01/31 01:56:51.5	95.030	-0.050	0.250	1.510
2020/01/31 01:56:51.6	95.070	-0.040	0.200	1.480
2020/01/31 01:56:51.7	95.110	-0.040	0.140	1.460
2020/01/31 01:56:51.8	95.140	-0.030	0.090	1.430
2020/01/31 01:56:51.9	95.180	-0.030	0.030	1.400
2020/01/31 01:56:52.0	95.220	-0.030	-0.020	1.380
2020/01/31 01:56:52.1	95.250	-0.030	-0.070	1.350
2020/01/31 01:56:52.2	95.280	-0.030	-0.120	1.320
2020/01/31 01:56:52.3	95.310	-0.030	-0.160	1.290
2020/01/31 01:56:52.4	95.330	-0.030	-0.190	1.270
2020/01/31 01:56:52.5	95.360	-0.030	-0.230	1.240
2020/01/31 01:56:52.6	95.380	-0.040	-0.260	1.220
2020/01/31 01:56:52.7	95.390	-0.040	-0.280	1.190
2020/01/31 01:56:52.8	95.410	-0.050	-0.300	1.170
2020/01/31 01:56:52.9	95.420	-0.060	-0.310	1.150
2020/01/31 01:56:53.0	95.430	-0.070	-0.320	1.130
2020/01/31 01:56:53.1	95.430	-0.080	-0.330	1.120
2020/01/31 01:56:53.2	95.440	-0.090	-0.330	1.100
2020/01/31 01:56:53.3	95.430	-0.110	-0.320	1.090
2020/01/31 01:56:53.4	95.430	-0.120	-0.310	1.080
2020/01/31 01:56:53.5	95.420	-0.130	-0.300	1.070
2020/01/31 01:56:53.6	95.420	-0.150	-0.290	1.070
2020/01/31 01:56:53.7	95.400	-0.160	-0.270	1.060
2020/01/31 01:56:53.8	95.390	-0.180	-0.250	1.060
2020/01/31 01:56:53.9	95.380	-0.190	-0.230	1.060
2020/01/31 01:56:54.0	95.350	-0.210	-0.210	1.060
2020/01/31 01:56:54.1	95.330	-0.220	-0.190	1.060
2020/01/31 01:56:54.2	95.310	-0.230	-0.170	1.060
2020/01/31 01:56:54.3	95.290	-0.240	-0.160	1.060
2020/01/31 01:56:54.4	95.270	-0.250	-0.140	1.070
2020/01/31 01:56:54.5	95.240	-0.260	-0.130	1.070
2020/01/31 01:56:54.6	95.210	-0.260	-0.120	1.080
2020/01/31 01:56:54.7	95.190	-0.260	-0.110	1.090
2020/01/31 01:56:54.8	95.160	-0.260	-0.110	1.100
2020/01/31 01:56:54.9	95.130	-0.260	-0.110	1.110
2020/01/31 01:56:55.0	95.100	-0.260	-0.110	1.120
2020/01/31 01:56:55.1	95.070	-0.250	-0.120	1.130
2020/01/31 01:56:55.2	95.040	-0.240	-0.130	1.140
2020/01/31 01:56:55.3	95.010	-0.230	-0.150	1.150
2020/01/31 01:56:55.4	94.980	-0.220	-0.170	1.170
2020/01/31 01:56:55.5	94.940	-0.200	-0.190	1.180
2020/01/31 01:56:55.6	94.910	-0.190	-0.210	1.200
2020/01/31 01:56:55.7	94.880	-0.170	-0.240	1.210
2020/01/31 01:56:55.8	94.860	-0.150	-0.270	1.220
2020/01/31 01:56:55.9	94.830	-0.130	-0.300	1.240
2020/01/31 01:56:56.0	94.810	-0.110	-0.330	1.250
2020/01/31 01:56:56.1	94.790	-0.080	-0.360	1.260
2020/01/31 01:56:56.2	94.760	-0.060	-0.390	1.270
2020/01/31 01:56:56.3	94.740	-0.040	-0.420	1.280
2020/01/31 01:56:56.4	94.720	-0.010	-0.450	1.290
2020/01/31 01:56:56.5	94.710	0.010	-0.480	1.290
2020/01/31 01:56:56.6	94.690	0.030	-0.500	1.290
2020/01/31 01:56:56.7	94.680	0.050	-0.520	1.300
2020/01/31 01:56:56.8	94.660	0.070	-0.530	1.290
2020/01/31 01:56:56.9	94.650	0.090	-0.540	1.290
2020/01/31 01:56:57.0	94.650	0.110	-0.550	1.280
2020/01/31 01:56:57.1	94.640	0.120	-0.550	1.270
2020/01/31 01:56:57.2	94.640	0.130	-0.550	1.250
2020/01/31 01:56:57.3	94.640	0.140	-0.540	1.240
2020/01/31 01:56:57.4	94.640	0.150	-0.520	1.210
2020/01/31 01:56:57.5	94.640	0.160	-0.500	1.190
2020/01/31 01:56:57.6	94.640	0.160	-0.480	1.160
2020/01/31 01:56:57.7	94.640	0.160	-0.450	1.130
2020/01/31 01:56:57.8	94.640	0.160	-0.410	1.090
2020/01/31 01:56:57.9	94.650	0.160	-0.380	1.050
2020/01/31 01:56:58.0	94.670	0.160	-0.330	1.010
2020/01/31 01:56:58.1	94.670	0.150	-0.290	0.960
2020/01/31 01:56:58.2	94.680	0.140	-0.240	0.910
2020/01/31 01:56:58.3	94.690	0.130	-0.190	0.850
2020/01/31 01:56:58.4	94.690	0.120	-0.130	0.800
2020/01/31 01:56:58.5	94.700	0.110	-0.080	0.740
2020/01/31 01:56:58.6	94.700	0.100	-0.020	0.680
2020/01/31 01:56:58.7	94.710	0.080	0.030	0.620
2020/01/31 01:56:58.8	94.710	0.070	0.090	0.550
2020/01/31 01:56:58.9	94.720	0.050	0.140	0.490
2020/01/31 01:56:59.0	94.720	0.040	0.190	0.420
2020/01/31 01:56:59.1	94.720	0.020	0.240	0.360
2020/01/31 01:56:59.2	94.720	0.010	0.280	0.300
2020/01/31 01:56:59.3	94.720	-0.010	0.320	0.230
2020/01/31 01:56:59.4	94.720	-0.020	0.360	0.170
2020/01/31 01:56:59.5	94.710	-0.030	0.380	0.110
2020/01/31 01:56:59.6	94.710	-0.040	0.400	0.040
2020/01/31 01:56:59.7	94.700	-0.050	0.420	-0.020
2020/01/31 01:56:59.8	94.700	-0.050	0.420	-0.080
2020/01/31 01:56:59.9	94.700	-0.060	0.420	-0.140
2020/01/31 01:57:00.0	94.690	-0.060	0.410	-0.190
2020/01/31 01:57:00.1	94.680	-0.060	0.400	-0.250
2020/01/31 01:57:00.2	94.680	-0.050	0.380	-0.300
2020/01/31 01:57:00.3	94.670	-0.050	0.350	-0.350
2020/01/31 01:57:00.4	94.670	-0.040	0.310	-0.400
2020/01/31 01:57:00.5	94.670	-0.030	0.270	-0.440
2020/01/31 01:57:00.6	94.660	-0.010	0.220	-0.480
2020/01/31 01:57:00.7	94.660	0.000	0.170	-0.520
2020/01/31 01:57:00.8	94.660	0.020	0.110	-0.560
2020/01/31 01:57:00.9	94.660	0.040	0.050	-0.590
2020/01/31 01:57:01.0	94.650	0.070	-0.020	-0.620
2020/01/31 01:57:01.1	94.660	0.090	-0.090	-0.640
2020/01/31 01:57:01.2	94.660	0.110	-0.160	-0.660
2020/01/31 01:57:01.3	94.660	0.140	-0.230	-0.670
2020/01/31 01:57:01.4	94.670	0.170	-0.310	-0.680
2020/01/31 01:57:01.5	94.670	0.190	-0.380	-0.680
2020/01/31 01:57:01.6	94.680	0.220	-0.450	-0.680
2020/01/31 01:57:01.7	94.690	0.250	-0.520	-0.680
2020/01/31 01:57:01.8	94.700	0.270	-0.580	-0.670
2020/01/31 01:57:01.9	94.700	0.300	-0.650	-0.660
2020/01/31 01:57:02.0	94.710	0.320	-0.710	-0.630
2020/01/31 01:57:02.1	94.720	0.340	-0.760	-0.610
2020/01/31 01:57:02.2	94.730	0.360	-0.810	-0.580
2020/01/31 01:57:02.3	94.730	0.380	-0.850	-0.550
2020/01/31 01:57:02.4	94.740	0.390	-0.890	-0.520
2020/01/31 01:57:02.5	94.750	0.410	-0.920	-0.480
2020/01/31 01:57:02.6	94.760	0.410	-0.940	-0.440
2020/01/31 01:57:02.7	94.760	0.420	-0.950	-0.400
2020/01/31 01:57:02.8	94.770	0.430	-0.960	-0.350
2020/01/31 01:57:02.9	94.780	0.430	-0.960	-0.310
2020/01/31 01:57:03.0	94.770	0.420	-0.940	-0.250
2020/01/31 01:57:03.1	94.780	0.420	-0.930	-0.200
2020/01/31 01:57:03.2	94.780	0.410	-0.900	-0.150
2020/01/31 01:57:03.3	94.790	0.400	-0.870	-0.100
2020/01/31 01:57:03.4	94.790	0.390	-0.840	-0.040
2020/01/31 01:57:03.5	94.790	0.370	-0.790	0.010
2020/01/31 01:57:03.6	94.790	0.350	-0.740	0.070
2020/01/31 01:57:03.7	94.790	0.330	-0.690	0.120
2020/01/31 01:57:03.8	94.800	0.310	-0.630	0.180
2020/01/31 01:57:03.9	94.800	0.280	-0.570	0.230
2020/01/31 01:57:04.0	94.800	0.250	-0.500	0.290
2020/01/31 01:57:04.1	94.800	0.230	-0.430	0.340
2020/01/31 01:57:04.2	94.800	0.200	-0.350	0.400
2020/01/31 01:57:04.3	94.810	0.170	-0.280	0.450
2020/01/31 01:57:04.4	94.810	0.140	-0.200	0.500
2020/01/31 01:57:04.5	94.810	0.110	-0.130	0.560
2020/01/31 01:57:04.6	94.820	0.080	-0.050	0.610
2020/01/31 01:57:04.7	94.830	0.040	0.030	0.660
2020/01/31 01:57:04.8	94.830	0.010	0.100	0.710
2020/01/31 01:57:04.9	94.840	-0.010	0.170	0.760
2020/01/31 01:57:05.0	94.840	-0.040	0.240	0.820
2020/01/31 01:57:05.1	94.860	-0.070	0.300	0.870
2020/01/31 01:57:05.2	94.870	-0.100	0.360	0.920
2020/01/31 01:57:05.3	94.880	-0.120	0.420	0.970
2020/01/31 01:57:05.4	94.890	-0.140	0.470	1.020
2020/01/31 01:57:05.5	94.910	-0.170	0.520	1.060
2020/01/31 01:57:05.6	94.920	-0.180	0.560	1.110
2020/01/31 01:57:05.7	94.930	-0.200	0.590	1.150
2020/01/31 01:57:05.8	94.950	-0.220	0.620	1.200
2020/01/31 01:57:05.9	94.960	-0.230	0.650	1.250
2020/01/31 01:57:06.0	94.970	-0.240	0.670	1.290
2020/01/31 01:57:06.1	94.990	-0.260	0.680	1.340
2020/01/31 01:57:06.2	95.000	-0.260	0.680	1.390
2020/01/31 01:57:06.3	95.020	-0.270	0.680	1.440
2020/01/31 01:57:06.4	95.030	-0.280	0.680	1.490
2020/01/31 01:57:06.5	95.050	-0.280	0.670	1.530
2020/01/31 01:57:06.6	95.060	-0.290	0.650	1.580
2020/01/31 01:57:06.7	95.070	-0.290	0.630	1.630
2020/01/31 01:57:06.8	95.080	-0.290	0.610	1.690
2020/01/31 01:57:06.9	95.090	-0.300	0.580	1.740
2020/01/31 01:57:07.0	95.120	-0.300	0.540	1.790
2020/01/31 01:57:07.1	95.120	-0.300	0.500	1.840
2020/01/31 01:57:07.2	95.130	-0.300	0.470	1.890
2020/01/31 01:57:07.3	95.140	-0.300	0.420	1.940
2020/01/31 01:57:07.4	95.140	-0.300	0.380	1.990
2020/01/31 01:57:07.5	95.140	-0.300	0.340	2.040
2020/01/31 01:57:07.6	95.140	-0.310	0.290	2.080
2020/01/31 01:57:07.7	95.140	-0.310	0.240	2.130
2020/01/31 01:57:07.8	95.130	-0.310	0.200	2.170
2020/01/31 01:57:07.9	95.130	-0.320	0.150	2.210
2020/01/31 01:57:08.0	95.130	-0.320	0.100	2.250
2020/01/31 01:57:08.1	95.120	-0.330	0.060	2.290
2020/01/31 01:57:08.2	95.100	-0.330	0.010	2.320
2020/01/31 01:57:08.3	95.090	-0.340	-0.030	2.350
2020/01/31 01:57:08.4	95.070	-0.340	-0.080	2.380
2020/01/31 01:57:08.5	95.050	-0.350	-0.120	2.400
2020/01/31 01:57:08.6	95.030	-0.360	-0.170	2.420
2020/01/31 01:57:08.7	95.010	-0.360	-0.210	2.440
2020/01/31 01:57:08.8	94.990	-0.370	-0.250	2.450
2020/01/31 01:57:08.9	94.970	-0.380	-0.290	2.460
2020/01/31 01:57:09.0	94.940	-0.380	-0.330	2.460
2020/01/31 01:57:09.1	94.920	-0.390	-0.360	2.460
2020/01/31 01:57:09.2	94.900	-0.390	-0.400	2.460
2020/01/31 01:57:09.3	94.870	-0.390	-0.430	2.450
2020/01/31 01:57:09.4	94.850	-0.390	-0.470	2.430
2020/01/31 01:57:09.5	94.840	-0.390	-0.500	2.410
2020/01/31 01:57:09.6	94.820	-0.390	-0.530	2.390
2020/01/31 01:57:09.7	94.800	-0.390	-0.560	2.360
2020/01/31 01:57:09.8	94.790	-0.380	-0.580	2.330
2020/01/31 01:57:09.9	94.780	-0.370	-0.610	2.290
2020/01/31 01:57:10.0	94.770	-0.360	-0.630	2.250
2020/01/31 01:57:10.1	94.760	-0.350	-0.650	2.210
2020/01/31 01:57:10.2	94.750	-0.340	-0.670	2.160
2020/01/31 01:57:10.3	94.750	-0.320	-0.690	2.110
2020/01/31 01:57:10.4	94.750	-0.310	-0.710	2.060
2020/01/31 01:57:10.5	94.750	-0.290	-0.720	2.010
2020/01/31 01:57:10.6	94.750	-0.260	-0.730	1.960
2020/01/31 01:57:10.7	94.750	-0.240	-0.740	1.900
2020/01/31 01:57:10.8	94.760	-0.220	-0.750	1.840
2020/01/31 01:57:10.9	94.760	-0.190	-0.750	1.780
2020/01/31 01:57:11.0	94.780	-0.160	-0.750	1.720
2020/01/31 01:57:11.1	94.790	-0.130	-0.750	1.660
2020/01/31 01:57:11.2	94.800	-0.100	-0.750	1.600
2020/01/31 01:57:11.3	94.800	-0.070	-0.740	1.530
2020/01/31 01:57:11.4	94.810	-0.040	-0.730	1.460
2020/01/31 01:57:11.5	94.820	-0.010	-0.720	1.390
2020/01/31 01:57:11.6	94.830	0.020	-0.700	1.320
2020/01/31 01:57:11.7	94.840	0.060	-0.680	1.250
2020/01/31 01:57:11.8	94.850	0.090	-0.660	1.170
2020/01/31 01:57:11.9	94.860	0.120	-0.640	1.100
2020/01/31 01:57:12.0	94.870	0.150	-0.610	1.020
2020/01/31 01:57:12.1	94.880	0.180	-0.580	0.940
2020/01/31 01:57:12.2	94.890	0.210	-0.550	0.860
2020/01/31 01:57:12.3	94.900	0.230	-0.510	0.770
2020/01/31 01:57:12.4	94.910	0.260	-0.480	0.690
2020/01/31 01:57:12.5	94.920	0.280	-0.440	0.600
2020/01/31 01:57:12.6	94.940	0.300	-0.400	0.510
2020/01/31 01:57:12.7	94.950	0.320	-0.360	0.420
2020/01/31 01:57:12.8	94.960	0.340	-0.320	0.330
2020/01/31 01:57:12.9	94.980	0.360	-0.280	0.240
2020/01/31 01:57:13.0	95.010	0.370	-0.240	0.150
2020/01/31 01:57:13.1	95.020	0.380	-0.200	0.050
2020/01/31 01:57:13.2	95.040	0.390	-0.160	-0.040
2020/01/31 01:57:13.3	95.060	0.400	-0.120	-0.130
2020/01/31 01:57:13.4	95.080	0.400	-0.080	-0.220
2020/01/31 01:57:13.5	95.090	0.410	-0.040	-0.310
2020/01/31 01:57:13.6	95.110	0.410	0.000	-0.400
2020/01/31 01:57:13.7	95.130	0.410	0.040	-0.480
2020/01/31 01:57:13.8	95.150	0.410	0.070	-0.560
2020/01/31 01:57:13.9	95.160	0.400	0.110	-0.640
2020/01/31 01:57:14.0	95.180	0.400	0.140	-0.720
2020/01/31 01:57:14.1	95.190	0.390	0.170	-0.790
2020/01/31 01:57:14.2	95.210	0.380	0.190	-0.860
2020/01/31 01:57:14.3	95.220	0.370	0.220	-0.920
2020/01/31 01:57:14.4	95.230	0.360	0.240	-0.970
2020/01/31 01:57:14.5	95.240	0.340	0.250	-1.030
2020/01/31 01:57:14.6	95.260	0.330	0.270	-1.070
2020/01/31 01:57:14.7	95.260	0.320	0.280	-1.110
2020/01/31 01:57:14.8	95.270	0.300	0.290	-1.150
2020/01/31 01:57:14.9	95.280	0.290	0.290	-1.180
2020/01/31 01:57:15.0	95.280	0.270	0.300	-1.200
2020/01/31 01:57:15.1	95.290	0.260	0.290	-1.220
2020/01/31 01:57:15.2	95.290	0.240	0.290	-1.230
2020/01/31 01:57:15.3	95.290	0.230	0.280	-1.230
2020/01/31 01:57:15.4	95.300	0.210	0.270	-1.230
2020/01/31 01:57:15.5	95.300	0.190	0.260	-1.220
2020/01/31 01:57:15.6	95.300	0.180	0.240	-1.210
2020/01/31 01:57:15.7	95.300	0.170	0.230	-1.190
2020/01/31 01:57:15.8	95.300	0.150	0.210	-1.160
2020/01/31 01:57:15.9	95.300	0.140	0.180	-1.130
2020/01/31 01:57:16.0	95.290	0.130	0.160	-1.090
2020/01/31 01:57:16.1	95.290	0.110	0.130	-1.050
2020/01/31 01:57:16.2	95.290	0.100	0.100	-1.010
2020/01/31 01:57:16.3	95.280	0.090	0.080	-0.960
2020/01/31 01:57:16.4	95.280	0.080	0.050	-0.900
2020/01/31 01:57:16.5	95.280	0.070	0.020	-0.840
2020/01/31 01:57:16.6	95.280	0.060	-0.010	-0.780
2020/01/31 01:57:16.7	95.270	0.050	-0.040	-0.710
2020/01/31 01:57:16.8	95.270	0.050	-0.070	-0.640
2020/01/31 01:57:16.9	95.270	0.040	-0.100	-0.570
2020/01/31 01:57:17.0	95.260	0.030	-0.140	-0.490
2020/01/31 01:57:17.1	95.260	0.030	-0.170	-0.410
2020/01/31 01:57:17.2	95.260	0.020	-0.190	-0.330
2020/01/31 01:57:17.3	95.260	0.020	-0.220	-0.250
2020/01/31 01:57:17.4	95.260	0.010	-0.250	-0.170
2020/01/31 01:57:17.5	95.260	0.000	-0.270	-0.080
2020/01/31 01:57:17.6	95.260	-0.000	-0.290	0.010
2020/01/31 01:57:17.7	95.260	-0.010	-0.310	0.100
2020/01/31 01:57:17.8	95.270	-0.010	-0.330	0.180
2020/01/31 01:57:17.9	95.270	-0.020	-0.350	0.270
2020/01/31 01:57:18.0	95.280	-0.020	-0.360	0.370
2020/01/31 01:57:18.1	95.280	-0.030	-0.370	0.460
2020/01/31 01:57:18.2	95.280	-0.030	-0.380	0.550
2020/01/31 01:57:18.3	95.280	-0.040	-0.390	0.640
2020/01/31 01:57:18.4	95.280	-0.040	-0.390	0.730
2020/01/31 01:57:18.5	95.280	-0.050	-0.390	0.810
2020/01/31 01:57:18.6	95.280	-0.060	-0.390	0.900
2020/01/31 01:57:18.7	95.280	-0.070	-0.390	0.990
2020/01/31 01:57:18.8	95.280	-0.070	-0.380	1.070
2020/01/31 01:57:18.9	95.280	-0.080	-0.370	1.160
2020/01/31 01:57:19.0	95.290	-0.090	-0.350	1.250
2020/01/31 01:57:19.1	95.290	-0.100	-0.340	1.330
2020/01/31 01:57:19.2	95.290	-0.110	-0.320	1.410
2020/01/31 01:57:19.3	95.290	-0.120	-0.300	1.490
2020/01/31 01:57:19.4	95.300	-0.130	-0.270	1.560
2020/01/31 01:57:19.5	95.300	-0.140	-0.250	1.640
2020/01/31 01:57:19.6	95.310	-0.150	-0.220	1.710
2020/01/31 01:57:19.7	95.310	-0.170	-0.190	1.780
2020/01/31 01:57:19.8	95.320	-0.180	-0.160	1.850
2020/01/31 01:57:19.9	95.330	-0.190	-0.130	1.910
2020/01/31 01:57:20.0	95.340	-0.200	-0.090	1.980
2020/01/31 01:57:20.1	95.350	-0.210	-0.060	2.040
2020/01/31 01:57:20.2	95.370	-0.220	-0.030	2.090
2020/01/31 01:57:20.3	95.380	-0.230	0.010	2.150
2020/01/31 01:57:20.4	95.400	-0.240	0.040	2.200
2020/01/31 01:57:20.5	95.410	-0.250	0.070	2.240
2020/01/31 01:57:20.6	95.430	-0.250	0.100	2.290
2020/01/31 01:57:20.7	95.460	-0.260	0.130	2.320
2020/01/31 01:57:20.8	95.480	-0.260	0.150	2.360
2020/01/31 01:57:20.9	95.500	-0.270	0.170	2.390
2020/01/31 01:57:21.0	95.520	-0.270	0.190	2.420
2020/01/31 01:57:21.1	95.550	-0.270	0.210	2.450
2020/01/31 01:57:21.2	95.580	-0.270	0.220	2.470
2020/01/31 01:57:21.3	95.610	-0.270	0.230	2.490
2020/01/31 01:57:21.4	95.630	-0.260	0.230	2.500
2020/01/31 01:57:21.5	95.660	-0.250	0.230	2.510
2020/01/31 01:57:21.6	95.690	-0.250	0.220	2.520
2020/01/31 01:57:21.7	95.720	-0.230	0.210	2.520
2020/01/31 01:57:21.8	95.740	-0.220	0.190	2.530
2020/01/31 01:57:21.9	95.770	-0.200	0.170	2.530
2020/01/31 01:57:22.0	95.790	-0.190	0.140	2.520
2020/01/31 01:57:22.1	95.810	-0.170	0.110	2.520
2020/01/31 01:57:22.2	95.830	-0.140	0.070	2.510
2020/01/31 01:57:22.3	95.840	-0.120	0.030	2.500
2020/01/31 01:57:22.4	95.860	-0.090	-0.020	2.490
2020/01/31 01:57:22.5	95.870	-0.060	-0.070	2.470
2020/01/31 01:57:22.6	95.880	-0.030	-0.120	2.460
2020/01/31 01:57:22.7	95.890	0.000	-0.180	2.440
2020/01/31 01:57:22.8	95.890	0.040	-0.250	2.430
2020/01/31 01:57:22.9	95.890	0.080	-0.310	2.410
2020/01/31 01:57:23.0	95.900	0.110	-0.380	2.390
2020/01/31 01:57:23.1	95.900	0.150	-0.450	2.360
2020/01/31 01:57:23.2	95.890	0.190	-0.520	2.340
2020/01/31 01:57:23.3	95.880	0.230	-0.590	2.310
2020/01/31 01:57:23.4	95.870	0.270	-0.650	2.290
2020/01/31 01:57:23.5	95.860	0.300	-0.720	2.260
2020/01/31 01:57:23.6	95.850	0.340	-0.780	2.230
2020/01/31 01:57:23.7	95.830	0.380	-0.840	2.190
2020/01/31 01:57:23.8	95.820	0.410	-0.890	2.160
2020/01/31 01:57:23.9	95.800	0.440	-0.930	2.120
2020/01/31 01:57:24.0	95.780	0.470	-0.970	2.080
2020/01/31 01:57:24.1	95.770	0.490	-1.010	2.030
2020/01/31 01:57:24.2	95.750	0.510	-1.030	1.990
2020/01/31 01:57:24.3	95.740	0.530	-1.050	1.940
2020/01/31 01:57:24.4	95.730	0.540	-1.050	1.880
2020/01/31 01:57:24.5	95.720	0.550	-1.050	1.830
2020/01/31 01:57:24.6	95.700	0.560	-1.040	1.780
2020/01/31 01:57:24.7	95.690	0.560	-1.020	1.720
2020/01/31 01:57:24.8	95.690	0.550	-0.990	1.660
2020/01/31 01:57:24.9	95.680	0.540	-0.950	1.600
2020/01/31 01:57:25.0	95.680	0.520	-0.890	1.540
2020/01/31 01:57:25.1	95.670	0.500	-0.840	1.470
2020/01/31 01:57:25.2	95.670	0.480	-0.770	1.410
2020/01/31 01:57:25.3	95.670	0.450	-0.690	1.350
2020/01/31 01:57:25.4	95.670	0.410	-0.610	1.280
2020/01/31 01:57:25.5	95.670	0.380	-0.520	1.220
2020/01/31 01:57:25.6	95.670	0.330	-0.430	1.160
2020/01/31 01:57:25.7	95.670	0.290	-0.330	1.090
2020/01/31 01:57:25.8	95.670	0.240	-0.230	1.030
2020/01/31 01:57:25.9	95.680	0.180	-0.120	0.970
2020/01/31 01:57:26.0	95.680	0.130	-0.010	0.910
2020/01/31 01:57:26.1	95.690	0.070	0.100	0.850
2020/01/31 01:57:26.2	95.700	0.010	0.200	0.790
2020/01/31 01:57:26.3	95.710	-0.050	0.310	0.740
2020/01/31 01:57:26.4	95.720	-0.110	0.410	0.680
2020/01/31 01:57:26.5	95.730	-0.170	0.510	0.620
2020/01/31 01:57:26.6	95.740	-0.230	0.600	0.570
2020/01/31 01:57:26.7	95.760	-0.290	0.690	0.520
2020/01/31 01:57:26.8	95.770	-0.340	0.780	0.460
2020/01/31 01:57:26.9	95.790	-0.400	0.860	0.410
2020/01/31 01:57:27.0	95.800	-0.450	0.920	0.360
2020/01/31 01:57:27.1	95.820	-0.500	0.990	0.300
2020/01/31 01:57:27.2	95.840	-0.550	1.040	0.250
2020/01/31 01:57:27.3	95.860	-0.590	1.080	0.200
2020/01/31 01:57:27.4	95.880	-0.630	1.110	0.150
2020/01/31 01:57:27.5	95.910	-0.670	1.130	0.090
2020/01/31 01:57:27.6	95.930	-0.700	1.150	0.040
2020/01/31 01:57:27.7	95.950	-0.730	1.150	-0.020
2020/01/31 01:57:27.8	95.980	-0.750	1.140	-0.070
2020/01/31 01:57:27.9	96.010	-0.760	1.110	-0.130
2020/01/31 01:57:28.0	96.030	-0.770	1.080	-0.180
2020/01/31 01:57:28.1	96.060	-0.780	1.040	-0.240
2020/01/31 01:57:28.2	96.090	-0.780	0.980	-0.290
2020/01/31 01:57:28.3	96.110	-0.770	0.920	-0.350
2020/01/31 01:57:28.4	96.140	-0.760	0.850	-0.400
2020/01/31 01:57:28.5	96.170	-0.740	0.770	-0.450
2020/01/31 01:57:28.6	96.200	-0.720	0.680	-0.510
2020/01/31 01:57:28.7	96.230	-0.690	0.590	-0.560
2020/01/31 01:57:28.8	96.260	-0.660	0.490	-0.600
2020/01/31 01:57:28.9	96.280	-0.620	0.390	-0.650
2020/01/31 01:57:29.0	96.300	-0.580	0.270	-0.690
2020/01/31 01:57:29.1	96.330	-0.540	0.160	-0.730
2020/01/31 01:57:29.2	96.350	-0.500	0.050	-0.770
2020/01/31 01:57:29.3	96.380	-0.450	-0.060	-0.800
2020/01/31 01:57:29.4	96.400	-0.400	-0.180	-0.820
2020/01/31 01:57:29.5	96.430	-0.350	-0.290	-0.850
2020/01/31 01:57:29.6	96.450	-0.290	-0.400	-0.860
2020/01/31 01:57:29.7	96.470	-0.240	-0.510	-0.880
2020/01/31 01:57:29.8	96.490	-0.190	-0.610	-0.880
2020/01/31 01:57:29.9	96.510	-0.130	-0.710	-0.880
2020/01/31 01:57:30.0	96.530	-0.080	-0.810	-0.870
2020/01/31 01:57:30.1	96.550	-0.030	-0.890	-0.860
2020/01/31 01:57:30.2	96.560	0.020	-0.970	-0.840
2020/01/31 01:57:30.3	96.580	0.070	-1.040	-0.820
2020/01/31 01:57:30.4	96.590	0.110	-1.110	-0.780
2020/01/31 01:57:30.5	96.600	0.160	-1.160	-0.750
2020/01/31 01:57:30.6	96.610	0.190	-1.210	-0.700
2020/01/31 01:57:30.7	96.620	0.230	-1.240	-0.650
2020/01/31 01:57:30.8	96.620	0.260	-1.270	-0.600
2020/01/31 01:57:30.9	96.630	0.290	-1.290	-0.540
2020/01/31 01:57:31.0	96.630	0.310	-1.300	-0.470
2020/01/31 01:57:31.1	96.630	0.330	-1.300	-0.400
2020/01/31 01:57:31.2	96.630	0.350	-1.280	-0.330
2020/01/31 01:57:31.3	96.630	0.360	-1.260	-0.250
2020/01/31 01:57:31.4	96.620	0.370	-1.240	-0.170
2020/01/31 01:57:31.5	96.620	0.380	-1.200	-0.090
2020/01/31 01:57:31.6	96.610	0.380	-1.150	-0.010
2020/01/31 01:57:31.7	96.600	0.370	-1.100	0.080
2020/01/31 01:57:31.8	96.590	0.370	-1.040	0.160
2020/01/31 01:57:31.9	96.580	0.360	-0.980	0.250
2020/01/31 01:57:32.0	96.560	0.340	-0.900	0.340
2020/01/31 01:57:32.1	96.540	0.330	-0.830	0.430
2020/01/31 01:57:32.2	96.530	0.310	-0.750	0.510
2020/01/31 01:57:32.3	96.510	0.290	-0.670	0.600
2020/01/31 01:57:32.4	96.490	0.260	-0.580	0.680
2020/01/31 01:57:32.5	96.480	0.240	-0.490	0.760
2020/01/31 01:57:32.6	96.460	0.210	-0.400	0.840
2020/01/31 01:57:32.7	96.440	0.180	-0.310	0.920
2020/01/31 01:57:32.8	96.420	0.160	-0.220	1.000
2020/01/31 01:57:32.9	96.400	0.130	-0.130	1.070
2020/01/31 01:57:33.0	96.380	0.100	-0.040	1.140
2020/01/31 01:57:33.1	96.360	0.070	0.040	1.210
2020/01/31 01:57:33.2	96.340	0.050	0.120	1.270
2020/01/31 01:57:33.3	96.330	0.020	0.200	1.340
2020/01/31 01:57:33.4	96.310	0.000	0.270	1.390
2020/01/31 01:57:33.5	96.290	-0.020	0.340	1.450
2020/01/31 01:57:33.6	96.280	-0.040	0.400	1.500
2020/01/31 01:57:33.7	96.260	-0.050	0.460	1.540
2020/01/31 01:57:33.8	96.250	-0.070	0.500	1.580
2020/01/31 01:57:33.9	96.240	-0.080	0.540	1.620
2020/01/31 01:57:34.0	96.230	-0.090	0.580	1.660
2020/01/31 01:57:34.1	96.220	-0.090	0.600	1.690
2020/01/31 01:57:34.2	96.220	-0.090	0.620	1.720
2020/01/31 01:57:34.3	96.210	-0.090	0.620	1.740
2020/01/31 01:57:34.4	96.200	-0.080	0.630	1.760
2020/01/31 01:57:34.5	96.200	-0.070	0.620	1.780
2020/01/31 01:57:34.6	96.200	-0.060	0.600	1.800
2020/01/31 01:57:34.7	96.200	-0.040	0.580	1.810
2020/01/31 01:57:34.8	96.200	-0.020	0.550	1.820
2020/01/31 01:57:34.9	96.200	0.000	0.520	1.820
2020/01/31 01:57:35.0	96.220	0.030	0.470	1.830
2020/01/31 01:57:35.1	96.220	0.050	0.430	1.830
2020/01/31 01:57:35.2	96.230	0.080	0.370	1.830
2020/01/31 01:57:35.3	96.230	0.110	0.320	1.830
2020/01/31 01:57:35.4	96.240	0.140	0.260	1.820
2020/01/31 01:57:35.5	96.250	0.170	0.200	1.800
2020/01/31 01:57:35.6	96.260	0.210	0.130	1.790
2020/01/31 01:57:35.7	96.280	0.240	0.070	1.770
2020/01/31 01:57:35.8	96.290	0.270	0.000	1.750
2020/01/31 01:57:35.9	96.310	0.300	-0.070	1.730
2020/01/31 01:57:36.0	96.330	0.330	-0.140	1.690
2020/01/31 01:57:36.1	96.340	0.360	-0.200	1.670
2020/01/31 01:57:36.2	96.360	0.380	-0.260	1.630
2020/01/31 01:57:36.3	96.380	0.400	-0.320	1.600
2020/01/31 01:57:36.4	96.400	0.420	-0.380	1.560
2020/01/31 01:57:36.5	96.410	0.440	-0.430	1.530
2020/01/31 01:57:36.6	96.430	0.460	-0.480	1.490
2020/01/31 01:57:36.7	96.450	0.470	-0.520	1.440
2020/01/31 01:57:36.8	96.470	0.480	-0.560	1.400
2020/01/31 01:57:36.9	96.480	0.480	-0.600	1.360
2020/01/31 01:57:37.0	96.510	0.480	-0.630	1.320
2020/01/31 01:57:37.1	96.520	0.480	-0.650	1.270
2020/01/31 01:57:37.2	96.540	0.480	-0.670	1.230
2020/01/31 01:57:37.3	96.550	0.470	-0.690	1.180
2020/01/31 01:57:37.4	96.570	0.460	-0.700	1.140
2020/01/31 01:57:37.5	96.580	0.440	-0.700	1.090
2020/01/31 01:57:37.6	96.590	0.430	-0.710	1.050
2020/01/31 01:57:37.7	96.610	0.410	-0.700	1.010
2020/01/31 01:57:37.8	96.620	0.390	-0.690	0.970
2020/01/31 01:57:37.9	96.630	0.360	-0.680	0.930
2020/01/31 01:57:38.0	96.630	0.340	-0.660	0.900
2020/01/31 01:57:38.1	96.640	0.310	-0.640	0.870
2020/01/31 01:57:38.2	96.650	0.280	-0.620	0.840
2020/01/31 01:57:38.3	96.660	0.250	-0.590	0.810
2020/01/31 01:57:38.4	96.660	0.220	-0.560	0.790
2020/01/31 01:57:38.5	96.670	0.190	-0.530	0.770
2020/01/31 01:57:38.6	96.670	0.160	-0.490	0.750
2020/01/31 01:57:38.7	96.680	0.130	-0.460	0.730
2020/01/31 01:57:38.8	96.680	0.100	-0.420	0.720
2020/01/31 01:57:38.9	96.690	0.070	-0.370	0.710
2020/01/31 01:57:39.0	96.690	0.040	-0.330	0.700
2020/01/31 01:57:39.1	96.690	0.010	-0.290	0.690
2020/01/31 01:57:39.2	96.700	-0.010	-0.240	0.680
2020/01/31 01:57:39.3	96.700	-0.040	-0.200	0.680
2020/01/31 01:57:39.4	96.710	-0.060	-0.150	0.670
2020/01/31 01:57:39.5	96.710	-0.080	-0.110	0.670
2020/01/31 01:57:39.6	96.720	-0.100	-0.070	0.660
2020/01/31 01:57:39.7	96.720	-0.120	-0.020	0.660
2020/01/31 01:57:39.8	96.730	-0.140	0.020	0.660
2020/01/31 01:57:39.9	96.730	-0.150	0.060	0.650
2020/01/31 01:57:40.0	96.740	-0.160	0.100	0.650
2020/01/31 01:57:40.1	96.740	-0.170	0.130	0.650
2020/01/31 01:57:40.2	96.740	-0.180	0.160	0.650
2020/01/31 01:57:40.3	96.750	-0.190	0.200	0.650
2020/01/31 01:57:40.4	96.750	-0.200	0.220	0.640
2020/01/31 01:57:40.5	96.760	-0.200	0.250	0.640
2020/01/31 01:57:40.6	96.760	-0.210	0.270	0.640
2020/01/31 01:57:40.7	96.770	-0.210	0.290	0.640
2020/01/31 01:57:40.8	96.770	-0.210	0.310	0.640
2020/01/31 01:57:40.9	96.770	-0.210	0.320	0.640
2020/01/31 01:57:41.0	96.770	-0.210	0.330	0.640
2020/01/31 01:57:41.1	96.780	-0.210	0.340	0.640
2020/01/31 01:57:41.2	96.780	-0.210	0.340	0.640
2020/01/31 01:57:41.3	96.780	-0.210	0.350	0.640
2020/01/31 01:57:41.4	96.780	-0.210	0.350	0.640
2020/01/31 01:57:41.5	96.780	-0.210	0.340	0.640
2020/01/31 01:57:41.6	96.790	-0.210	0.340	0.640
2020/01/31 01:57:41.7	96.790	-0.210	0.330	0.650
2020/01/31 01:57:41.8	96.790	-0.210	0.320	0.650
2020/01/31 01:57:41.9	96.790	-0.220	0.310	0.660
2020/01/31 01:57:42.0	96.780	-0.220	0.300	0.670
2020/01/31 01:57:42.1	96.780	-0.220	0.290	0.680
2020/01/31 01:57:42.2	96.780	-0.230	0.270	0.680
2020/01/31 01:57:42.3	96.780	-0.230	0.250	0.690
2020/01/31 01:57:42.4	96.770	-0.240	0.230	0.700
2020/01/31 01:57:42.5	96.770	-0.240	0.210	0.720
2020/01/31 01:57:42.6	96.770	-0.250	0.190	0.730
2020/01/31 01:57:42.7	96.770	-0.250	0.170	0.740
2020/01/31 01:57:42.8	96.760	-0.260	0.140	0.750
2020/01/31 01:57:42.9	96.760	-0.270	0.120	0.770
2020/01/31 01:57:43.0	96.760	-0.280	0.090	0.780
2020/01/31 01:57:43.1	96.760	-0.280	0.060	0.800
2020/01/31 01:57:43.2	96.750	-0.290	0.030	0.810
2020/01/31 01:57:43.3	96.750	-0.300	-0.000	0.820
2020/01/31 01:57:43.4	96.750	-0.300	-0.030	0.830
2020/01/31 01:57:43.5	96.740	-0.310	-0.070	0.850
2020/01/31 01:57:43.6	96.740	-0.320	-0.100	0.860
2020/01/31 01:57:43.7	96.740	-0.320	-0.130	0.870
2020/01/31 01:57:43.8	96.740	-0.330	-0.170	0.880
2020/01/31 01:57:43.9	96.730	-0.330	-0.200	0.890
2020/01/31 01:57:44.0	96.720	-0.330	-0.230	0.900
2020/01/31 01:57:44.1	96.720	-0.330	-0.260	0.910
2020/01/31 01:57:44.2	96.720	-0.340	-0.300	0.910
2020/01/31 01:57:44.3	96.710	-0.340	-0.330	0.920
2020/01/31 01:57:44.4	96.710	-0.340	-0.350	0.930
2020/01/31 01:57:44.5	96.710	-0.330	-0.380	0.940
2020/01/31 01:57:44.6	96.700	-0.330	-0.400	0.950
2020/01/31 01:57:44.7	96.700	-0.330	-0.420	0.960
2020/01/31 01:57:44.8	96.690	-0.330	-0.430	0.970
2020/01/31 01:57:44.9	96.690	-0.320	-0.450	0.980
2020/01/31 01:57:45.0	96.680	-0.320	-0.460	0.990
2020/01/31 01:57:45.1	96.680	-0.310	-0.470	1.000
2020/01/31 01:57:45.2	96.670	-0.310	-0.470	1.010
2020/01/31 01:57:45.3	96.670	-0.300	-0.470	1.010
2020/01/31 01:57:45.4	96.660	-0.290	-0.460	1.020
2020/01/31 01:57:45.5	96.660	-0.280	-0.460	1.020
2020/01/31 01:57:45.6	96.660	-0.280	-0.450	1.020
2020/01/31 01:57:45.7	96.660	-0.270	-0.440	1.020
2020/01/31 01:57:45.8	96.660	-0.260	-0.420	1.020
2020/01/31 01:57:45.9	96.660	-0.250	-0.410	1.020
2020/01/31 01:57:46.0	96.660	-0.240	-0.390	1.020
2020/01/31 01:57:46.1	96.660	-0.220	-0.380	1.010
2020/01/31 01:57:46.2	96.670	-0.210	-0.360	1.000
2020/01/31 01:57:46.3	96.680	-0.200	-0.350	0.990
2020/01/31 01:57:46.4	96.690	-0.180	-0.330	0.970
2020/01/31 01:57:46.5	96.700	-0.160	-0.320	0.960
2020/01/31 01:57:46.6	96.710	-0.150	-0.310	0.940
2020/01/31 01:57:46.7	96.730	-0.130	-0.300	0.920
2020/01/31 01:57:46.8	96.740	-0.110	-0.290	0.900
2020/01/31 01:57:46.9	96.760	-0.080	-0.280	0.870
2020/01/31 01:57:47.0	96.780	-0.060	-0.270	0.850
2020/01/31 01:57:47.1	96.800	-0.040	-0.270	0.830
2020/01/31 01:57:47.2	96.820	-0.010	-0.270	0.800
2020/01/31 01:57:47.3	96.830	0.020	-0.280	0.780
2020/01/31 01:57:47.4	96.850	0.050	-0.280	0.760
2020/01/31 01:57:47.5	96.870	0.070	-0.290	0.730
2020/01/31 01:57:47.6	96.890	0.110	-0.300	0.710
2020/01/31 01:57:47.7	96.900	0.140	-0.310	0.680
2020/01/31 01:57:47.8	96.920	0.170	-0.330	0.660
2020/01/31 01:57:47.9	96.930	0.200	-0.350	0.650
2020/01/31 01:57:48.0	96.940	0.240	-0.360	0.630
2020/01/31 01:57:48.1	96.950	0.270	-0.380	0.610
2020/01/31 01:57:48.2	96.950	0.300	-0.400	0.600
2020/01/31 01:57:48.3	96.960	0.340	-0.420	0.590
2020/01/31 01:57:48.4	96.960	0.370	-0.440	0.580
2020/01/31 01:57:48.5	96.950	0.400	-0.460	0.570
2020/01/31 01:57:48.6	96.950	0.430	-0.470	0.560
2020/01/31 01:57:48.7	96.940	0.460	-0.490	0.560
2020/01/31 01:57:48.8	96.930	0.490	-0.500	0.560
2020/01/31 01:57:48.9	96.920	0.520	-0.510	0.550
2020/01/31 01:57:49.0	96.920	0.540	-0.510	0.560
2020/01/31 01:57:49.1	96.910	0.560	-0.510	0.560
2020/01/31 01:57:49.2	96.890	0.580	-0.510	0.560
2020/01/31 01:57:49.3	96.870	0.600	-0.510	0.560
2020/01/31 01:57:49.4	96.850	0.610	-0.500	0.570
2020/01/31 01:57:49.5	96.830	0.620	-0.480	0.570
2020/01/31 01:57:49.6	96.810	0.630	-0.460	0.580
2020/01/31 01:57:49.7	96.790	0.640	-0.440	0.580
2020/01/31 01:57:49.8	96.770	0.640	-0.410	0.590
2020/01/31 01:57:49.9	96.750	0.640	-0.380	0.600
2020/01/31 01:57:50.0	96.730	0.630	-0.330	0.600
2020/01/31 01:57:50.1	96.710	0.620	-0.290	0.610
2020/01/31 01:57:50.2	96.690	0.610	-0.250	0.620
2020/01/31 01:57:50.3	96.670	0.590	-0.200	0.620
2020/01/31 01:57:50.4	96.650	0.570	-0.140	0.630
2020/01/31 01:57:50.5	96.630	0.550	-0.090	0.640
2020/01/31 01:57:50.6	96.600	0.530	-0.030	0.640
2020/01/31 01:57:50.7	96.590	0.500	0.030	0.650
2020/01/31 01:57:50.8	96.570	0.470	0.090	0.650
2020/01/31 01:57:50.9	96.550	0.440	0.150	0.650
2020/01/31 01:57:51.0	96.530	0.400	0.220	0.660
2020/01/31 01:57:51.1	96.510	0.370	0.280	0.660
2020/01/31 01:57:51.2	96.500	0.330	0.330	0.660
2020/01/31 01:57:51.3	96.490	0.290	0.390	0.660
2020/01/31 01:57:51.4	96.470	0.250	0.440	0.660
2020/01/31 01:57:51.5	96.460	0.210	0.490	0.660
2020/01/31 01:57:51.6	96.450	0.170	0.530	0.660
2020/01/31 01:57:51.7	96.440	0.130	0.570	0.650
2020/01/31 01:57:51.8	96.440	0.090	0.610	0.650
2020/01/31 01:57:51.9	96.430	0.060	0.630	0.650
2020/01/31 01:57:52.0	96.430	0.020	0.650	0.640
2020/01/31 01:57:52.1	96.430	-0.020	0.670	0.640
2020/01/31 01:57:52.2	96.420	-0.050	0.680	0.630
2020/01/31 01:57:52.3	96.420	-0.080	0.680	0.620
2020/01/31 01:57:52.4	96.420	-0.110	0.670	0.620
2020/01/31 01:57:52.5	96.430	-0.140	0.650	0.610
2020/01/31 01:57:52.6	96.430	-0.160	0.630	0.600
2020/01/31 01:57:52.7	96.440	-0.180	0.600	0.600
2020/01/31 01:57:52.8	96.440	-0.200	0.560	0.590
2020/01/31 01:57:52.9	96.450	-0.210	0.520	0.580
2020/01/31 01:57:53.0	96.460	-0.220	0.470	0.570
2020/01/31 01:57:53.1	96.480	-0.230	0.410	0.560
2020/01/31 01:57:53.2	96.500	-0.230	0.350	0.550
2020/01/31 01:57:53.3	96.520	-0.230	0.280	0.540
2020/01/31 01:57:53.4	96.540	-0.230	0.210	0.530
2020/01/31 01:57:53.5	96.570	-0.220	0.130	0.510
2020/01/31 01:57:53.6	96.590	-0.210	0.050	0.500
2020/01/31 01:57:53.7	96.620	-0.200	-0.030	0.490
2020/01/31 01:57:53.8	96.650	-0.190	-0.110	0.480
2020/01/31 01:57:53.9	96.680	-0.170	-0.200	0.470
2020/01/31 01:57:54.0	96.710	-0.150	-0.290	0.470
2020/01/31 01:57:54.1	96.740	-0.130	-0.370	0.460
2020/01/31 01:57:54.2	96.770	-0.110	-0.450	0.460
2020/01/31 01:57:54.3	96.800	-0.090	-0.530	0.460
2020/01/31 01:57:54.4	96.830	-0.070	-0.610	0.460
2020/01/31 01:57:54.5	96.860	-0.040	-0.680	0.470
2020/01/31 01:57:54.6	96.880	-0.020	-0.750	0.480
2020/01/31 01:57:54.7	96.910	0.000	-0.810	0.490
2020/01/31 01:57:54.8	96.930	0.030	-0.870	0.510
2020/01/31 01:57:54.9	96.950	0.050	-0.920	0.530
2020/01/31 01:57:55.0	96.970	0.070	-0.960	0.550
2020/01/31 01:57:55.1	96.990	0.090	-0.990	0.580
2020/01/31 01:57:55.2	97.010	0.100	-1.020	0.600
2020/01/31 01:57:55.3	97.020	0.120	-1.040	0.630
2020/01/31 01:57:55.4	97.030	0.130	-1.050	0.670
2020/01/31 01:57:55.5	97.040	0.140	-1.050	0.700
2020/01/31 01:57:55.6	97.050	0.150	-1.040	0.740
2020/01/31 01:57:55.7	97.060	0.150	-1.020	0.780
2020/01/31 01:57:55.8	97.060	0.150	-1.000	0.820
2020/01/31 01:57:55.9	97.060	0.150	-0.960	0.860
2020/01/31 01:57:56.0	97.070	0.150	-0.920	0.900
2020/01/31 01:57:56.1	97.070	0.140	-0.870	0.950
2020/01/31 01:57:56.2	97.060	0.130	-0.820	0.990
2020/01/31 01:57:56.3	97.060	0.120	-0.760	1.040
2020/01/31 01:57:56.4	97.050	0.110	-0.700	1.080
2020/01/31 01:57:56.5	97.040	0.090	-0.630	1.130
2020/01/31 01:57:56.6	97.030	0.070	-0.560	1.170
2020/01/31 01:57:56.7	97.020	0.050	-0.490	1.220
2020/01/31 01:57:56.8	97.000	0.030	-0.410	1.270
2020/01/31 01:57:56.9	96.990	0.010	-0.330	1.310
2020/01/31 01:57:57.0	96.960	-0.010	-0.250	1.360
2020/01/31 01:57:57.1	96.950	-0.040	-0.180	1.400
2020/01/31 01:57:57.2	96.930	-0.060	-0.100	1.440
2020/01/31 01:57:57.3	96.910	-0.090	-0.020	1.480
2020/01/31 01:57:57.4	96.890	-0.110	0.050	1.520
2020/01/31 01:57:57.5	96.870	-0.140	0.120	1.560
2020/01/31 01:57:57.6	96.850	-0.160	0.180	1.590
2020/01/31 01:57:57.7	96.830	-0.190	0.240	1.630
2020/01/31 01:57:57.8	96.810	-0.210	0.300	1.660
2020/01/31 01:57:57.9	96.790	-0.230	0.350	1.690
2020/01/31 01:57:58.0	96.760	-0.250	0.390	1.710
2020/01/31 01:57:58.1	96.740	-0.260	0.430	1.730
2020/01/31 01:57:58.2	96.710	-0.280	0.470	1.760
2020/01/31 01:57:58.3	96.690	-0.290	0.490	1.770
2020/01/31 01:57:58.4	96.680	-0.300	0.510	1.790
2020/01/31 01:57:58.5	96.660	-0.310	0.520	1.800
2020/01/31 01:57:58.6	96.640	-0.320	0.530	1.810
2020/01/31 01:57:58.7	96.620	-0.320	0.530	1.820
2020/01/31 01:57:58.8	96.610	-0.320	0.520	1.820
2020/01/31 01:57:58.9	96.590	-0.320	0.510	1.820
2020/01/31 01:57:59.0	96.580	-0.320	0.490	1.830
2020/01/31 01:57:59.1	96.560	-0.320	0.470	1.820
2020/01/31 01:57:59.2	96.550	-0.310	0.440	1.810
2020/01/31 01:57:59.3	96.540	-0.300	0.410	1.800
2020/01/31 01:57:59.4	96.530	-0.290	0.370	1.780
2020/01/31 01:57:59.5	96.520	-0.280	0.330	1.760
2020/01/31 01:57:59.6	96.510	-0.270	0.290	1.740
2020/01/31 01:57:59.7	96.510	-0.250	0.250	1.720
2020/01/31 01:57:59.8	96.500	-0.240	0.200	1.690
2020/01/31 01:57:59.9	96.490	-0.220	0.150	1.650
2020/01/31 01:58:00.0	96.490	-0.200	0.100	1.610
2020/01/31 01:58:00.1	96.480	-0.190	0.050	1.580
2020/01/31 01:58:00.2	96.470	-0.170	0.000	1.540
2020/01/31 01:58:00.3	96.470	-0.150	-0.040	1.490
2020/01/31 01:58:00.4	96.460	-0.140	-0.090	1.440
2020/01/31 01:58:00.5	96.460	-0.120	-0.140	1.400
2020/01/31 01:58:00.6	96.450	-0.110	-0.190	1.340
2020/01/31 01:58:00.7	96.450	-0.090	-0.230	1.290
2020/01/31 01:58:00.8	96.440	-0.080	-0.270	1.230
2020/01/31 01:58:00.9	96.430	-0.060	-0.310	1.170
2020/01/31 01:58:01.0	96.420	-0.050	-0.350	1.120
2020/01/31 01:58:01.1	96.420	-0.040	-0.380	1.060
2020/01/31 01:58:01.2	96.410	-0.030	-0.410	0.990
2020/01/31 01:58:01.3	96.400	-0.020	-0.440	0.930
2020/01/31 01:58:01.4	96.390	-0.010	-0.460	0.860
2020/01/31 01:58:01.5	96.390	-0.010	-0.480	0.800
2020/01/31 01:58:01.6	96.380	-0.000	-0.500	0.730
2020/01/31 01:58:01.7	96.370	0.000	-0.510	0.660
2020/01/31 01:58:01.8	96.360	0.010	-0.520	0.590
2020/01/31 01:58:01.9	96.360	0.010	-0.520	0.530
2020/01/31 01:58:02.0	96.360	0.010	-0.530	0.460
2020/01/31 01:58:02.1	96.360	0.010	-0.530	0.390
2020/01/31 01:58:02.2	96.350	0.010	-0.520	0.320
2020/01/31 01:58:02.3	96.350	0.010	-0.520	0.260
2020/01/31 01:58:02.4	96.340	0.000	-0.510	0.190
2020/01/31 01:58:02.5	96.340	-0.000	-0.490	0.130
2020/01/31 01:58:02.6	96.340	-0.000	-0.480	0.070
2020/01/31 01:58:02.7	96.340	-0.010	-0.460	0.010
2020/01/31 01:58:02.8	96.350	-0.020	-0.440	-0.050
2020/01/31 01:58:02.9	96.350	-0.020	-0.410	-0.110
2020/01/31 01:58:03.0	96.360	-0.030	-0.390	-0.150
2020/01/31 01:58:03.1	96.370	-0.030	-0.360	-0.200
2020/01/31 01:58:03.2	96.380	-0.040	-0.330	-0.250
2020/01/31 01:58:03.3	96.380	-0.050	-0.300	-0.290
2020/01/31 01:58:03.4	96.390	-0.060	-0.270	-0.320
2020/01/31 01:58:03.5	96.400	-0.060	-0.230	-0.360
2020/01/31 01:58:03.6	96.420	-0.070	-0.200	-0.390
2020/01/31 01:58:03.7	96.430	-0.080	-0.160	-0.410
2020/01/31 01:58:03.8	96.440	-0.080	-0.130	-0.430
2020/01/31 01:58:03.9	96.460	-0.090	-0.100	-0.440
2020/01/31 01:58:04.0	96.460	-0.090	-0.060	-0.450
2020/01/31 01:58:04.1	96.480	-0.100	-0.030	-0.460
2020/01/31 01:58:04.2	96.490	-0.100	0.000	-0.460
2020/01/31 01:58:04.3	96.510	-0.110	0.030	-0.460
2020/01/31 01:58:04.4	96.530	-0.110	0.060	-0.450
2020/01/31 01:58:04.5	96.540	-0.110	0.090	-0.440
2020/01/31 01:58:04.6	96.560	-0.110	0.120	-0.430
2020/01/31 01:58:04.7	96.580	-0.110	0.140	-0.410
2020/01/31 01:58:04.8	96.600	-0.110	0.160	-0.390
2020/01/31 01:58:04.9	96.620	-0.110	0.180	-0.370
2020/01/31 01:58:05.0	96.640	-0.100	0.190	-0.340
2020/01/31 01:58:05.1	96.660	-0.100	0.200	-0.320
2020/01/31 01:58:05.2	96.670	-0.090	0.200	-0.290
2020/01/31 01:58:05.3	96.690	-0.080	0.210	-0.260
2020/01/31 01:58:05.4	96.700	-0.070	0.200	-0.230
2020/01/31 01:58:05.5	96.720	-0.060	0.200	-0.190
2020/01/31 01:58:05.6	96.730	-0.050	0.190	-0.160
2020/01/31 01:58:05.7	96.750	-0.040	0.170	-0.120
2020/01/31 01:58:05.8	96.760	-0.020	0.160	-0.090
2020/01/31 01:58:05.9	96.770	-0.000	0.130	-0.050
2020/01/31 01:58:06.0	96.790	0.020	0.110	-0.010
2020/01/31 01:58:06.1	96.790	0.040	0.080	0.030
2020/01/31 01:58:06.2	96.800	0.060	0.050	0.070
2020/01/31 01:58:06.3	96.810	0.080	0.010	0.110
2020/01/31 01:58:06.4	96.810	0.100	-0.030	0.160
2020/01/31 01:58:06.5	96.820	0.130	-0.070	0.200
2020/01/31 01:58:06.6	96.820	0.150	-0.110	0.250
2020/01/31 01:58:06.7	96.820	0.180	-0.150	0.300
2020/01/31 01:58:06.8	96.810	0.200	-0.200	0.350
2020/01/31 01:58:06.9	96.810	0.230	-0.240	0.400
2020/01/31 01:58:07.0	96.820	0.260	-0.290	0.450
2020/01/31 01:58:07.1	96.810	0.280	-0.330	0.510
2020/01/31 01:58:07.2	96.800	0.300	-0.380	0.560
2020/01/31 01:58:07.3	96.790	0.330	-0.420	0.620
2020/01/31 01:58:07.4	96.780	0.350	-0.460	0.680
2020/01/31 01:58:07.5	96.770	0.370	-0.490	0.740
2020/01/31 01:58:07.6	96.760	0.390	-0.530	0.800
2020/01/31 01:58:07.7	96.740	0.410	-0.560	0.870
2020/01/31 01:58:07.8	96.730	0.420	-0.590	0.930
2020/01/31 01:58:07.9	96.710	0.440	-0.610	1.000
2020/01/31 01:58:08.0	96.710	0.450	-0.630	1.070
2020/01/31 01:58:08.1	96.690	0.450	-0.650	1.140
2020/01/31 01:58:08.2	96.680	0.460	-0.660	1.200
2020/01/31 01:58:08.3	96.660	0.460	-0.670	1.270
2020/01/31 01:58:08.4	96.650	0.460	-0.670	1.340
2020/01/31 01:58:08.5	96.630	0.460	-0.670	1.410
2020/01/31 01:58:08.6	96.620	0.450	-0.670	1.490
2020/01/31 01:58:08.7	96.600	0.440	-0.660	1.560
2020/01/31 01:58:08.8	96.590	0.430	-0.650	1.630
2020/01/31 01:58:08.9	96.570	0.420	-0.630	1.690
2020/01/31 01:58:09.0	96.560	0.400	-0.610	1.760
2020/01/31 01:58:09.1	96.540	0.380	-0.590	1.830
2020/01/31 01:58:09.2	96.530	0.360	-0.550	1.900
2020/01/31 01:58:09.3	96.510	0.340	-0.520	1.960
2020/01/31 01:58:09.4	96.500	0.310	-0.480	2.020
2020/01/31 01:58:09.5	96.480	0.280	-0.440	2.080
2020/01/31 01:58:09.6	96.470	0.250	-0.390	2.130
2020/01/31 01:58:09.7	96.460	0.220	-0.350	2.180
2020/01/31 01:58:09.8	96.440	0.190	-0.300	2.220
2020/01/31 01:58:09.9	96.430	0.160	-0.250	2.260
2020/01/31 01:58:10.0	96.410	0.120	-0.190	2.300
2020/01/31 01:58:10.1	96.400	0.090	-0.140	2.330
2020/01/31 01:58:10.2	96.390	0.060	-0.080	2.350
2020/01/31 01:58:10.3	96.370	0.020	-0.030	2.370
2020/01/31 01:58:10.4	96.360	-0.010	0.020	2.390
2020/01/31 01:58:10.5	96.350	-0.040	0.070	2.390
2020/01/31 01:58:10.6	96.340	-0.070	0.120	2.390
2020/01/31 01:58:10.7	96.330	-0.100	0.160	2.390
2020/01/31 01:58:10.8	96.320	-0.130	0.210	2.380
2020/01/31 01:58:10.9	96.310	-0.160	0.250	2.360
2020/01/31 01:58:11.0	96.320	-0.180	0.280	2.340
2020/01/31 01:58:11.1	96.310	-0.200	0.320	2.310
2020/01/31 01:58:11.2	96.300	-0.220	0.340	2.270
2020/01/31 01:58:11.3	96.300	-0.240	0.360	2.240
2020/01/31 01:58:11.4	96.290	-0.260	0.380	2.190
2020/01/31 01:58:11.5	96.290	-0.270	0.390	2.140
2020/01/31 01:58:11.6	96.290	-0.280	0.400	2.090
2020/01/31 01:58:11.7	96.280	-0.290	0.400	2.040
2020/01/31 01:58:11.8	96.280	-0.300	0.400	1.980
2020/01/31 01:58:11.9	96.280	-0.300	0.390	1.920
2020/01/31 01:58:12.0	96.290	-0.300	0.380	1.850
2020/01/31 01:58:12.1	96.300	-0.300	0.370	1.790
2020/01/31 01:58:12.2	96.300	-0.300	0.350	1.720
2020/01/31 01:58:12.3	96.300	-0.300	0.330	1.660
2020/01/31 01:58:12.4	96.300	-0.300	0.300	1.590
2020/01/31 01:58:12.5	96.310	-0.290	0.270	1.520
2020/01/31 01:58:12.6	96.310	-0.290	0.240	1.460
2020/01/31 01:58:12.7	96.320	-0.280	0.210	1.390
2020/01/31 01:58:12.8	96.320	-0.270	0.180	1.330
2020/01/31 01:58:12.9	96.330	-0.260	0.150	1.260
2020/01/31 01:58:13.0	96.340	-0.250	0.110	1.200
2020/01/31 01:58:13.1	96.350	-0.250	0.080	1.140
2020/01/31 01:58:13.2	96.360	-0.240	0.040	1.070
2020/01/31 01:58:13.3	96.370	-0.230	0.010	1.010
2020/01/31 01:58:13.4	96.380	-0.220	-0.020	0.950
2020/01/31 01:58:13.5	96.390	-0.210	-0.050	0.890
2020/01/31 01:58:13.6	96.400	-0.210	-0.080	0.830
2020/01/31 01:58:13.7	96.410	-0.200	-0.110	0.760
2020/01/31 01:58:13.8	96.420	-0.190	-0.130	0.700
2020/01/31 01:58:13.9	96.440	-0.190	-0.160	0.640
2020/01/31 01:58:14.0	96.440	-0.180	-0.180	0.580
2020/01/31 01:58:14.1	96.460	-0.180	-0.200	0.510
2020/01/31 01:58:14.2	96.470	-0.170	-0.220	0.450
2020/01/31 01:58:14.3	96.490	-0.170	-0.240	0.390
2020/01/31 01:58:14.4	96.500	-0.160	-0.250	0.330
2020/01/31 01:58:14.5	96.520	-0.160	-0.270	0.270
2020/01/31 01:58:14.6	96.530	-0.150	-0.280	0.210
2020/01/31 01:58:14.7	96.550	-0.150	-0.300	0.150
2020/01/31 01:58:14.8	96.570	-0.140	-0.310	0.090
2020/01/31 01:58:14.9	96.580	-0.130	-0.320	0.030
2020/01/31 01:58:15.0	96.580	-0.130	-0.340	-0.020
2020/01/31 01:58:15.1	96.590	-0.120	-0.350	-0.070
2020/01/31 01:58:15.2	96.600	-0.110	-0.360	-0.120
2020/01/31 01:58:15.3	96.610	-0.100	-0.370	-0.170
2020/01/31 01:58:15.4	96.620	-0.090	-0.390	-0.210
2020/01/31 01:58:15.5	96.630	-0.080	-0.400	-0.250
2020/01/31 01:58:15.6	96.640	-0.060	-0.410	-0.290
2020/01/31 01:58:15.7	96.640	-0.050	-0.430	-0.320
2020/01/31 01:58:15.8	96.650	-0.030	-0.440	-0.350
2020/01/31 01:58:15.9	96.650	-0.020	-0.450	-0.370
2020/01/31 01:58:16.0	96.640	0.000	-0.470	-0.390
2020/01/31 01:58:16.1	96.630	0.020	-0.480	-0.410
2020/01/31 01:58:16.2	96.630	0.040	-0.490	-0.420
2020/01/31 01:58:16.3	96.630	0.060	-0.510	-0.430
2020/01/31 01:58:16.4	96.630	0.080	-0.520	-0.430
2020/01/31 01:58:16.5	96.620	0.100	-0.530	-0.420
2020/01/31 01:58:16.6	96.610	0.130	-0.540	-0.420
2020/01/31 01:58:16.7	96.610	0.150	-0.550	-0.410
2020/01/31 01:58:16.8	96.600	0.170	-0.560	-0.390
2020/01/31 01:58:16.9	96.590	0.190	-0.560	-0.370
2020/01/31 01:58:17.0	96.590	0.220	-0.570	-0.350
2020/01/31 01:58:17.1	96.580	0.240	-0.570	-0.330
2020/01/31 01:58:17.2	96.570	0.260	-0.560	-0.300
2020/01/31 01:58:17.3	96.560	0.270	-0.560	-0.270
2020/01/31 01:58:17.4	96.550	0.290	-0.550	-0.240
2020/01/31 01:58:17.5	96.550	0.310	-0.540	-0.210
2020/01/31 01:58:17.6	96.540	0.320	-0.530	-0.170
2020/01/31 01:58:17.7	96.530	0.330	-0.510	-0.140
2020/01/31 01:58:17.8	96.520	0.340	-0.490	-0.100
2020/01/31 01:58:17.9	96.520	0.340	-0.460	-0.070
2020/01/31 01:58:18.0	96.510	0.340	-0.430	-0.020
2020/01/31 01:58:18.1	96.510	0.340	-0.390	0.010
2020/01/31 01:58:18.2	96.500	0.340	-0.350	0.050
2020/01/31 01:58:18.3	96.490	0.330	-0.310	0.080
2020/01/31 01:58:18.4	96.490	0.320	-0.260	0.120
2020/01/31 01:58:18.5	96.480	0.310	-0.210	0.160
2020/01/31 01:58:18.6	96.480	0.290	-0.160	0.190
2020/01/31 01:58:18.7	96.470	0.270	-0.110	0.220
2020/01/31 01:58:18.8	96.460	0.240	-0.050	0.260
2020/01/31 01:58:18.9	96.460	0.220	0.010	0.290
2020/01/31 01:58:19.0	96.460	0.190	0.080	0.320
2020/01/31 01:58:19.1	96.450	0.160	0.140	0.350
2020/01/31 01:58:19.2	96.450	0.130	0.190	0.380
2020/01/31 01:58:19.3	96.440	0.090	0.250	0.410
2020/01/31 01:58:19.4	96.430	0.060	0.310	0.440
2020/01/31 01:58:19.5	96.430	0.020	0.360	0.480
2020/01/31 01:58:19.6	96.420	-0.010	0.410	0.510
2020/01/31 01:58:19.7	96.410	-0.050	0.460	0.540
2020/01/31 01:58:19.8	96.400	-0.080	0.500	0.570
2020/01/31 01:58:19.9	96.400	-0.120	0.540	0.600
2020/01/31 01:58:20.0	96.400	-0.150	0.570	0.640
2020/01/31 01:58:20.1	96.390	-0.180	0.590	0.670
2020/01/31 01:58:20.2	96.380	-0.210	0.610	0.710
2020/01/31 01:58:20.3	96.370	-0.240	0.620	0.740
2020/01/31 01:58:20.4	96.370	-0.260	0.620	0.770
2020/01/31 01:58:20.5	96.360	-0.280	0.620	0.800
2020/01/31 01:58:20.6	96.350	-0.300	0.610	0.840
2020/01/31 01:58:20.7	96.350	-0.320	0.590	0.870
2020/01/31 01:58:20.8	96.340	-0.330	0.560	0.900
2020/01/31 01:58:20.9	96.330	-0.340	0.530	0.930
2020/01/31 01:58:21.0	96.340	-0.350	0.480	0.960
2020/01/31 01:58:21.1	96.340	-0.350	0.440	0.990
2020/01/31 01:58:21.2	96.330	-0.350	0.390	1.020
2020/01/31 01:58:21.3	96.330	-0.340	0.330	1.040
2020/01/31 01:58:21.4	96.330	-0.340	0.260	1.070
2020/01/31 01:58:21.5	96.330	-0.330	0.200	1.100
2020/01/31 01:58:21.6	96.330	-0.320	0.130	1.120
2020/01/31 01:58:21.7	96.330	-0.300	0.060	1.150
2020/01/31 01:58:21.8	96.340	-0.290	-0.020	1.180
2020/01/31 01:58:21.9	96.340	-0.270	-0.090	1.200
2020/01/31 01:58:22.0	96.350	-0.250	-0.170	1.230
2020/01/31 01:58:22.1	96.350	-0.230	-0.250	1.260
2020/01/31 01:58:22.2	96.350	-0.200	-0.320	1.280
2020/01/31 01:58:22.3	96.360	-0.180	-0.390	1.310
2020/01/31 01:58:22.4	96.360	-0.160	-0.460	1.330
2020/01/31 01:58:22.5	96.360	-0.130	-0.530	1.360
2020/01/31 01:58:22.6	96.360	-0.110	-0.590	1.390
2020/01/31 01:58:22.7	96.360	-0.080	-0.650	1.410
2020/01/31 01:58:22.8	96.360	-0.060	-0.700	1.440
2020/01/31 01:58:22.9	96.360	-0.030	-0.750	1.460
2020/01/31 01:58:23.0	96.360	-0.010	-0.790	1.490
2020/01/31 01:58:23.1	96.360	0.010	-0.830	1.510
2020/01/31 01:58:23.2	96.360	0.030	-0.860	1.530
2020/01/31 01:58:23.3	96.360	0.050	-0.890	1.550
2020/01/31 01:58:23.4	96.360	0.070	-0.910	1.560
2020/01/31 01:58:23.5	96.360	0.080	-0.920	1.580
2020/01/31 01:58:23.6	96.360	0.100	-0.930	1.590
2020/01/31 01:58:23.7	96.360	0.110	-0.930	1.600
2020/01/31 01:58:23.8	96.360	0.120	-0.920	1.610
2020/01/31 01:58:23.9	96.370	0.130	-0.910	1.610
2020/01/31 01:58:24.0	96.370	0.130	-0.890	1.620
2020/01/31 01:58:24.1	96.380	0.140	-0.860	1.620
2020/01/31 01:58:24.2	96.390	0.140	-0.830	1.610
2020/01/31 01:58:24.3	96.400	0.140	-0.800	1.610
2020/01/31 01:58:24.4	96.410	0.140	-0.760	1.600
2020/01/31 01:58:24.5	96.420	0.130	-0.720	1.590
2020/01/31 01:58:24.6	96.430	0.130	-0.670	1.580
2020/01/31 01:58:24.7	96.450	0.120	-0.620	1.570
2020/01/31 01:58:24.8	96.460	0.110	-0.560	1.560
2020/01/31 01:58:24.9	96.480	0.100	-0.510	1.550
2020/01/31 01:58:25.0	96.490	0.090	-0.440	1.540
2020/01/31 01:58:25.1	96.510	0.080	-0.380	1.530
2020/01/31 01:58:25.2	96.520	0.060	-0.320	1.520
2020/01/31 01:58:25.3	96.530	0.050	-0.250	1.510
2020/01/31 01:58:25.4	96.550	0.030	-0.190	1.500
2020/01/31 01:58:25.5	96.560	0.020	-0.120	1.500
2020/01/31 01:58:25.6	96.570	-0.000	-0.060	1.500
2020/01/31 01:58:25.7	96.580	-0.020	0.010	1.490
2020/01/31 01:58:25.8	96.590	-0.040	0.070	1.490
2020/01/31 01:58:25.9	96.590	-0.050	0.130	1.490
2020/01/31 01:58:26.0	96.590	-0.070	0.190	1.500
2020/01/31 01:58:26.1	96.590	-0.090	0.250	1.500
2020/01/31 01:58:26.2	96.590	-0.110	0.300	1.500
2020/01/31 01:58:26.3	96.580	-0.120	0.350	1.500
2020/01/31 01:58:26.4	96.580	-0.140	0.400	1.500
2020/01/31 01:58:26.5	96.570	-0.160	0.440	1.500
2020/01/31 01:58:26.6	96.560	-0.170	0.480	1.500
2020/01/31 01:58:26.7	96.540	-0.190	0.510	1.500
2020/01/31 01:58:26.8	96.530	-0.200	0.540	1.490
2020/01/31 01:58:26.9	96.520	-0.210	0.560	1.480
2020/01/31 01:58:27.0	96.490	-0.220	0.580	1.470
2020/01/31 01:58:27.1	96.470	-0.230	0.590	1.450
2020/01/31 01:58:27.2	96.450	-0.240	0.600	1.440
2020/01/31 01:58:27.3	96.440	-0.250	0.600	1.420
2020/01/31 01:58:27.4	96.420	-0.250	0.600	1.390
2020/01/31 01:58:27.5	96.400	-0.260	0.590	1.360
2020/01/31 01:58:27.6	96.380	-0.260	0.570	1.330
2020/01/31 01:58:27.7	96.370	-0.260	0.550	1.290
2020/01/31 01:58:27.8	96.350	-0.260	0.530	1.250
2020/01/31 01:58:27.9	96.330	-0.250	0.500	1.200
2020/01/31 01:58:28.0	96.320	-0.250	0.460	1.160
2020/01/31 01:58:28.1	96.300	-0.240	0.420	1.110
2020/01/31 01:58:28.2	96.290	-0.230	0.370	1.050
2020/01/31 01:58:28.3	96.280	-0.220	0.320	0.990
2020/01/31 01:58:28.4	96.270	-0.210	0.260	0.930
2020/01/31 01:58:28.5	96.260	-0.190	0.200	0.870
2020/01/31 01:58:28.6	96.250	-0.180	0.140	0.810
2020/01/31 01:58:28.7	96.240	-0.160	0.070	0.740
2020/01/31 01:58:28.8	96.230	-0.140	-0.000	0.680
2020/01/31 01:58:28.9	96.220	-0.120	-0.070	0.610
2020/01/31 01:58:29.0	96.210	-0.090	-0.150	0.540
2020/01/31 01:58:29.1	96.200	-0.070	-0.220	0.470
2020/01/31 01:58:29.2	96.200	-0.040	-0.300	0.410
2020/01/31 01:58:29.3	96.200	-0.010	-0.370	0.340
2020/01/31 01:58:29.4	96.200	0.020	-0.450	0.280
2020/01/31 01:58:29.5	96.200	0.050	-0.520	0.220
2020/01/31 01:58:29.6	96.200	0.080	-0.590	0.160
2020/01/31 01:58:29.7	96.200	0.110	-0.650	0.110
2020/01/31 01:58:29.8	96.200	0.140	-0.710	0.060
2020/01/31 01:58:29.9	96.200	0.170	-0.770	0.000
2020/01/31 01:58:30.0	96.190	0.210	-0.830	-0.040
2020/01/31 01:58:30.1	96.190	0.240	-0.870	-0.080
2020/01/31 01:58:30.2	96.200	0.270	-0.920	-0.130
2020/01/31 01:58:30.3	96.200	0.310	-0.950	-0.170
2020/01/31 01:58:30.4	96.200	0.340	-0.990	-0.210
2020/01/31 01:58:30.5	96.210	0.370	-1.010	-0.240
2020/01/31 01:58:30.6	96.210	0.400	-1.030	-0.280
2020/01/31 01:58:30.7	96.220	0.430	-1.040	-0.310
2020/01/31 01:58:30.8	96.220	0.460	-1.040	-0.340
2020/01/31 01:58:30.9	96.230	0.480	-1.040	-0.360
2020/01/31 01:58:31.0	96.230	0.510	-1.030	-0.390
2020/01/31 01:58:31.1	96.240	0.530	-1.010	-0.410
2020/01/31 01:58:31.2	96.250	0.550	-0.990	-0.430
2020/01/31 01:58:31.3	96.250	0.570	-0.960	-0.450
2020/01/31 01:58:31.4	96.260	0.580	-0.920	-0.470
2020/01/31 01:58:31.5	96.270	0.590	-0.880	-0.480
2020/01/31 01:58:31.6	96.280	0.600	-0.830	-0.490
2020/01/31 01:58:31.7	96.290	0.600	-0.780	-0.500
2020/01/31 01:58:31.8	96.300	0.610	-0.720	-0.510
2020/01/31 01:58:31.9	96.300	0.600	-0.650	-0.520
2020/01/31 01:58:32.0	96.310	0.600	-0.590	-0.510
2020/01/31 01:58:32.1	96.320	0.590	-0.520	-0.510
2020/01/31 01:58:32.2	96.330	0.580	-0.440	-0.510
2020/01/31 01:58:32.3	96.340	0.560	-0.370	-0.500
2020/01/31 01:58:32.4	96.350	0.550	-0.290	-0.490
2020/01/31 01:58:32.5	96.350	0.520	-0.210	-0.480
2020/01/31 01:58:32.6	96.360	0.500	-0.130	-0.460
2020/01/31 01:58:32.7	96.360	0.470	-0.050	-0.440
2020/01/31 01:58:32.8	96.370	0.440	0.030	-0.420
2020/01/31 01:58:32.9	96.370	0.410	0.100	-0.400
2020/01/31 01:58:33.0	96.380	0.380	0.180	-0.360
2020/01/31 01:58:33.1	96.380	0.340	0.250	-0.330
2020/01/31 01:58:33.2	96.380	0.300	0.320	-0.290
2020/01/31 01:58:33.3	96.380	0.260	0.380	-0.250
2020/01/31 01:58:33.4	96.370	0.220	0.440	-0.210
2020/01/31 01:58:33.5	96.370	0.170	0.500	-0.160
2020/01/31 01:58:33.6	96.360	0.130	0.550	-0.110
2020/01/31 01:58:33.7	96.360	0.080	0.590	-0.060
2020/01/31 01:58:33.8	96.350	0.040	0.630	-0.000
2020/01/31 01:58:33.9	96.340	-0.010	0.670	0.060
2020/01/31 01:58:34.0	96.340	-0.050	0.700	0.130
2020/01/31 01:58:34.1	96.330	-0.100	0.720	0.190
2020/01/31 01:58:34.2	96.320	-0.140	0.730	0.260
2020/01/31 01:58:34.3	96.310	-0.190	0.740	0.320
2020/01/31 01:58:34.4	96.300	-0.230	0.740	0.390
2020/01/31 01:58:34.5	96.290	-0.270	0.740	0.470
2020/01/31 01:58:34.6	96.280	-0.310	0.730	0.540
2020/01/31 01:58:34.7	96.270	-0.350	0.710	0.610
2020/01/31 01:58:34.8	96.260	-0.380	0.690	0.680
2020/01/31 01:58:34.9	96.260	-0.420	0.660	0.760
2020/01/31 01:58:35.0	96.260	-0.450	0.620	0.830
2020/01/31 01:58:35.1	96.250	-0.470	0.580	0.910
2020/01/31 01:58:35.2	96.250	-0.500	0.540	0.980
2020/01/31 01:58:35.3	96.250	-0.520	0.490	1.050
2020/01/31 01:58:35.4	96.250	-0.540	0.430	1.120
2020/01/31 01:58:35.5	96.250	-0.560	0.370	1.190
2020/01/31 01:58:35.6	96.250	-0.570	0.310	1.260
2020/01/31 01:58:35.7	96.250	-0.590	0.250	1.330
2020/01/31 01:58:35.8	96.260	-0.590	0.180	1.390
2020/01/31 01:58:35.9	96.270	-0.600	0.110	1.450
2020/01/31 01:58:36.0	96.280	-0.600	0.040	1.510
2020/01/31 01:58:36.1	96.290	-0.600	-0.040	1.570
2020/01/31 01:58:36.2	96.300	-0.600	-0.110	1.630
2020/01/31 01:58:36.3	96.310	-0.590	-0.180	1.690
2020/01/31 01:58:36.4	96.320	-0.580	-0.250	1.740
2020/01/31 01:58:36.5	96.330	-0.570	-0.310	1.790
2020/01/31 01:58:36.6	96.340	-0.560	-0.380	1.840
2020/01/31 01:58:36.7	96.360	-0.540	-0.440	1.890
2020/01/31 01:58:36.8	96.370	-0.520	-0.500	1.930
2020/01/31 01:58:36.9	96.380	-0.500	-0.550	1.980
2020/01/31 01:58:37.0	96.390	-0.480	-0.600	2.030
2020/01/31 01:58:37.1	96.400	-0.460	-0.650	2.070
2020/01/31 01:58:37.2	96.400	-0.440	-0.690	2.100
2020/01/31 01:58:37.3	96.410	-0.420	-0.720	2.140
2020/01/31 01:58:37.4	96.420	-0.390	-0.750	2.170
2020/01/31 01:58:37.5	96.420	-0.370	-0.770	2.200
2020/01/31 01:58:37.6	96.420	-0.340	-0.780	2.230
2020/01/31 01:58:37.7	96.420	-0.320	-0.790	2.250
2020/01/31 01:58:37.8	96.420	-0.290	-0.790	2.270
2020/01/31 01:58:37.9	96.420	-0.270	-0.790	2.290
2020/01/31 01:58:38.0	96.420	-0.240	-0.780	2.310
2020/01/31 01:58:38.1	96.410	-0.220	-0.760	2.320
2020/01/31 01:58:38.2	96.400	-0.190	-0.740	2.330
2020/01/31 01:58:38.3	96.390	-0.170	-0.710	2.340
2020/01/31 01:58:38.4	96.380	-0.140	-0.680	2.340
2020/01/31 01:58:38.5	96.370	-0.120	-0.640	2.340
2020/01/31 01:58:38.6	96.360	-0.100	-0.600	2.340
2020/01/31 01:58:38.7	96.350	-0.070	-0.560	2.330
2020/01/31 01:58:38.8	96.330	-0.050	-0.520	2.320
2020/01/31 01:58:38.9	96.310	-0.030	-0.470	2.310
2020/01/31 01:58:39.0	96.290	-0.010	-0.420	2.290
2020/01/31 01:58:39.1	96.270	0.010	-0.370	2.270
2020/01/31 01:58:39.2	96.250	0.030	-0.320	2.240
2020/01/31 01:58:39.3	96.230	0.050	-0.280	2.210
2020/01/31 01:58:39.4	96.210	0.070	-0.230	2.180
2020/01/31 01:58:39.5	96.200	0.090	-0.190	2.140
2020/01/31 01:58:39.6	96.180	0.110	-0.150	2.100
2020/01/31 01:58:39.7	96.160	0.130	-0.110	2.050
2020/01/31 01:58:39.8	96.140	0.160	-0.070	2.000
2020/01/31 01:58:39.9	96.130	0.180	-0.040	1.950
2020/01/31 01:58:40.0	96.120	0.200	-0.020	1.890
2020/01/31 01:58:40.1	96.110	0.220	0.010	1.830
2020/01/31 01:58:40.2	96.100	0.240	0.020	1.760
2020/01/31 01:58:40.3	96.090	0.260	0.040	1.690
2020/01/31 01:58:40.4	96.080	0.290	0.040	1.620
2020/01/31 01:58:40.5	96.070	0.310	0.050	1.550
2020/01/31 01:58:40.6	96.070	0.330	0.050	1.470
2020/01/31 01:58:40.7	96.060	0.350	0.040	1.390
2020/01/31 01:58:40.8	96.060	0.380	0.030	1.310
2020/01/31 01:58:40.9	96.050	0.400	0.020	1.230
2020/01/31 01:58:41.0	96.070	0.420	0.000	1.150
2020/01/31 01:58:41.1	96.070	0.440	-0.020	1.070
2020/01/31 01:58:41.2	96.070	0.460	-0.040	0.990
2020/01/31 01:58:41.3	96.070	0.480	-0.060	0.910
2020/01/31 01:58:41.4	96.070	0.490	-0.090	0.820
2020/01/31 01:58:41.5	96.080	0.510	-0.120	0.740
2020/01/31 01:58:41.6	96.080	0.520	-0.140	0.660
2020/01/31 01:58:41.7	96.080	0.530	-0.170	0.580
2020/01/31 01:58:41.8	96.090	0.530	-0.200	0.500
2020/01/31 01:58:41.9	96.100	0.540	-0.230	0.420
2020/01/31 01:58:42.0	96.100	0.540	-0.250	0.340
2020/01/31 01:58:42.1	96.110	0.540	-0.270	0.260
2020/01/31 01:58:42.2	96.120	0.540	-0.300	0.180
2020/01/31 01:58:42.3	96.130	0.530	-0.310	0.100
2020/01/31 01:58:42.4	96.130	0.520	-0.330	0.030
2020/01/31 01:58:42.5	96.140	0.510	-0.340	-0.050
2020/01/31 01:58:42.6	96.150	0.490	-0.350	-0.120
2020/01/31 01:58:42.7	96.160	0.470	-0.350	-0.190
2020/01/31 01:58:42.8	96.170	0.440	-0.350	-0.260
2020/01/31 01:58:42.9	96.180	0.420	-0.340	-0.320
2020/01/31 01:58:43.0	96.180	0.390	-0.330	-0.380
2020/01/31 01:58:43.1	96.190	0.360	-0.320	-0.430
2020/01/31 01:58:43.2	96.200	0.320	-0.300	-0.480
2020/01/31 01:58:43.3	96.200	0.290	-0.280	-0.530
2020/01/31 01:58:43.4	96.210	0.250	-0.260	-0.570
2020/01/31 01:58:43.5	96.210	0.210	-0.230	-0.610
2020/01/31 01:58:43.6	96.210	0.160	-0.200	-0.640
2020/01/31 01:58:43.7	96.220	0.120	-0.160	-0.670
2020/01/31 01:58:43.8	96.220	0.070	-0.130	-0.690
2020/01/31 01:58:43.9	96.220	0.030	-0.090	-0.710
2020/01/31 01:58:44.0	96.200	-0.020	-0.050	-0.720
2020/01/31 01:58:44.1	96.200	-0.070	-0.010	-0.730
2020/01/31 01:58:44.2	96.200	-0.110	0.030	-0.730
2020/01/31 01:58:44.3	96.200	-0.160	0.070	-0.720
2020/01/31 01:58:44.4	96.200	-0.200	0.110	-0.710
2020/01/31 01:58:44.5	96.200	-0.250	0.150	-0.700
2020/01/31 01:58:44.6	96.190	-0.290	0.190	-0.680
2020/01/31 01:58:44.7	96.190	-0.330	0.220	-0.650
2020/01/31 01:58:44.8	96.190	-0.370	0.250	-0.620
2020/01/31 01:58:44.9	96.180	-0.400	0.280	-0.590
2020/01/31 01:58:45.0	96.180	-0.430	0.310	-0.550
2020/01/31 01:58:45.1	96.180	-0.460	0.320	-0.510
2020/01/31 01:58:45.2	96.170	-0.490	0.340	-0.470
2020/01/31 01:58:45.3	96.170	-0.510	0.350	-0.420
2020/01/31 01:58:45.4	96.170	-0.530	0.360	-0.370
2020/01/31 01:58:45.5	96.160	-0.540	0.360	-0.320
2020/01/31 01:58:45.6	96.160	-0.550	0.350	-0.270
2020/01/31 01:58:45.7	96.160	-0.560	0.340	-0.210
2020/01/31 01:58:45.8	96.160	-0.560	0.320	-0.160
2020/01/31 01:58:45.9	96.160	-0.560	0.300	-0.100
2020/01/31 01:58:46.0	96.160	-0.560	0.280	-0.030
2020/01/31 01:58:46.1	96.160	-0.550	0.250	0.030
2020/01/31 01:58:46.2	96.160	-0.530	0.220	0.090
2020/01/31 01:58:46.3	96.160	-0.520	0.180	0.150
2020/01/31 01:58:46.4	96.160	-0.490	0.130	0.210
2020/01/31 01:58:46.5	96.170	-0.470	0.090	0.270
2020/01/31 01:58:46.6	96.170	-0.440	0.040	0.330
2020/01/31 01:58:46.7	96.170	-0.410	-0.010	0.390
2020/01/31 01:58:46.8	96.180	-0.380	-0.060	0.450
2020/01/31 01:58:46.9	96.180	-0.340	-0.120	0.510
2020/01/31 01:58:47.0	96.200	-0.310	-0.180	0.570
2020/01/31 01:58:47.1	96.200	-0.270	-0.230	0.630
2020/01/31 01:58:47.2	96.210	-0.220	-0.290	0.690
2020/01/31 01:58:47.3	96.220	-0.180	-0.350	0.750
2020/01/31 01:58:47.4	96.220	-0.140	-0.400	0.800
2020/01/31 01:58:47.5	96.230	-0.100	-0.460	0.860
2020/01/31 01:58:47.6	96.240	-0.050	-0.510	0.920
2020/01/31 01:58:47.7	96.240	-0.010	-0.560	0.980
2020/01/31 01:58:47.8	96.250	0.030	-0.610	1.030
2020/01/31 01:58:47.9	96.250	0.080	-0.650	1.090
2020/01/31 01:58:48.0	96.250	0.120	-0.690	1.150
2020/01/31 01:58:48.1	96.260	0.150	-0.730	1.210
2020/01/31 01:58:48.2	96.260	0.190	-0.760	1.260
2020/01/31 01:58:48.3	96.260	0.230	-0.780	1.320
2020/01/31 01:58:48.4	96.260	0.260	-0.800	1.370
2020/01/31 01:58:48.5	96.250	0.290	-0.810	1.430
2020/01/31 01:58:48.6	96.250	0.310	-0.820	1.490
2020/01/31 01:58:48.7	96.250	0.330	-0.820	1.540
2020/01/31 01:58:48.8	96.240	0.350	-0.810	1.590
2020/01/31 01:58:48.9	96.230	0.370	-0.800	1.650
2020/01/31 01:58:49.0	96.220	0.380	-0.780	1.700
2020/01/31 01:58:49.1	96.220	0.390	-0.760	1.750
2020/01/31 01:58:49.2	96.210	0.400	-0.730	1.790
2020/01/31 01:58:49.3	96.200	0.400	-0.690	1.840
2020/01/31 01:58:49.4	96.180	0.400	-0.650	1.880
2020/01/31 01:58:49.5	96.170	0.400	-0.610	1.920
2020/01/31 01:58:49.6	96.160	0.390	-0.560	1.960
2020/01/31 01:58:49.7	96.140	0.380	-0.510	1.990
2020/01/31 01:58:49.8	96.130	0.370	-0.450	2.030
2020/01/31 01:58:49.9	96.120	0.350	-0.390	2.060
2020/01/31 01:58:50.0	96.100	0.340	-0.330	2.090
2020/01/31 01:58:50.1	96.090	0.320	-0.270	2.110
2020/01/31 01:58:50.2	96.070	0.300	-0.210	2.130
2020/01/31 01:58:50.3	96.050	0.290	-0.160	2.150
2020/01/31 01:58:50.4	96.040	0.270	-0.100	2.160
2020/01/31 01:58:50.5	96.020	0.250	-0.050	2.170
2020/01/31 01:58:50.6	96.010	0.230	0.010	2.170
2020/01/31 01:58:50.7	95.990	0.210	0.060	2.170
2020/01/31 01:58:50.8	95.970	0.190	0.100	2.170
2020/01/31 01:58:50.9	95.960	0.170	0.140	2.160
2020/01/31 01:58:51.0	95.940	0.150	0.180	2.150
2020/01/31 01:58:51.1	95.930	0.140	0.220	2.130
2020/01/31 01:58:51.2	95.920	0.120	0.240	2.110
2020/01/31 01:58:51.3	95.910	0.110	0.270	2.090
2020/01/31 01:58:51.4	95.900	0.090	0.290	2.060
2020/01/31 01:58:51.5	95.890	0.080	0.300	2.030
2020/01/31 01:58:51.6	95.880	0.070	0.310	1.990
2020/01/31 01:58:51.7	95.870	0.060	0.310	1.950
2020/01/31 01:58:51.8	95.870	0.050	0.320	1.910
2020/01/31 01:58:51.9	95.870	0.050	0.310	1.860
2020/01/31 01:58:52.0	95.860	0.040	0.300	1.810
2020/01/31 01:58:52.1	95.860	0.040	0.290	1.760
2020/01/31 01:58:52.2	95.860	0.030	0.280	1.700
2020/01/31 01:58:52.3	95.870	0.030	0.270	1.640
2020/01/31 01:58:52.4	95.870	0.020	0.250	1.580
2020/01/31 01:58:52.5	95.880	0.020	0.230	1.510
2020/01/31 01:58:52.6	95.890	0.020	0.210	1.440
2020/01/31 01:58:52.7	95.900	0.020	0.190	1.370
2020/01/31 01:58:52.8	95.910	0.010	0.170	1.300
2020/01/31 01:58:52.9	95.930	0.010	0.150	1.220
2020/01/31 01:58:53.0	95.950	0.010	0.130	1.150
2020/01/31 01:58:53.1	95.970	0.000	0.110	1.070
2020/01/31 01:58:53.2	95.980	-0.000	0.090	0.990
2020/01/31 01:58:53.3	96.000	-0.010	0.070	0.910
2020/01/31 01:58:53.4	96.020	-0.020	0.050	0.830
2020/01/31 01:58:53.5	96.040	-0.020	0.030	0.750
2020/01/31 01:58:53.6	96.060	-0.030	0.010	0.670
2020/01/31 01:58:53.7	96.080	-0.040	-0.000	0.590
2020/01/31 01:58:53.8	96.110	-0.050	-0.020	0.510
2020/01/31 01:58:53.9	96.130	-0.060	-0.030	0.430
2020/01/31 01:58:54.0	96.150	-0.070	-0.040	0.360
2020/01/31 01:58:54.1	96.170	-0.080	-0.050	0.290
2020/01/31 01:58:54.2	96.190	-0.090	-0.060	0.220
2020/01/31 01:58:54.3	96.210	-0.100	-0.070	0.150
2020/01/31 01:58:54.4	96.220	-0.110	-0.080	0.080
2020/01/31 01:58:54.5	96.240	-0.130	-0.090	0.020
2020/01/31 01:58:54.6	96.260	-0.140	-0.090	-0.030
2020/01/31 01:58:54.7	96.270	-0.150	-0.100	-0.080
2020/01/31 01:58:54.8	96.280	-0.160	-0.110	-0.130
2020/01/31 01:58:54.9	96.290	-0.170	-0.110	-0.180
2020/01/31 01:58:55.0	96.300	-0.180	-0.120	-0.210
2020/01/31 01:58:55.1	96.300	-0.180	-0.120	-0.250
2020/01/31 01:58:55.2	96.310	-0.190	-0.130	-0.280
2020/01/31 01:58:55.3	96.310	-0.200	-0.140	-0.300
2020/01/31 01:58:55.4	96.300	-0.200	-0.140	-0.320
2020/01/31 01:58:55.5	96.300	-0.200	-0.150	-0.340
2020/01/31 01:58:55.6	96.290	-0.210	-0.160	-0.350
2020/01/31 01:58:55.7	96.290	-0.210	-0.160	-0.350
2020/01/31 01:58:55.8	96.280	-0.210	-0.170	-0.360
2020/01/31 01:58:55.9	96.270	-0.200	-0.180	-0.360
2020/01/31 01:58:56.0	96.260	-0.200	-0.190	-0.350
2020/01/31 01:58:56.1	96.250	-0.200	-0.200	-0.350
2020/01/31 01:58:56.2	96.240	-0.190	-0.210	-0.340
2020/01/31 01:58:56.3	96.220	-0.180	-0.220	-0.330
2020/01/31 01:58:56.4	96.210	-0.180	-0.230	-0.310
2020/01/31 01:58:56.5	96.190	-0.170	-0.240	-0.300
2020/01/31 01:58:56.6	96.180	-0.160	-0.260	-0.280
2020/01/31 01:58:56.7	96.160	-0.150	-0.270	-0.260
2020/01/31 01:58:56.8	96.150	-0.140	-0.290	-0.240
2020/01/31 01:58:56.9	96.130	-0.130	-0.300	-0.210
2020/01/31 01:58:57.0	96.120	-0.120	-0.320	-0.180
2020/01/31 01:58:57.1	96.100	-0.110	-0.340	-0.160
2020/01/31 01:58:57.2	96.090	-0.090	-0.360	-0.130
2020/01/31 01:58:57.3	96.080	-0.080	-0.380	-0.100
2020/01/31 01:58:57.4	96.060	-0.070	-0.400	-0.070
2020/01/31 01:58:57.5	96.050	-0.060	-0.420	-0.030
2020/01/31 01:58:57.6	96.040	-0.040	-0.440	0.000
2020/01/31 01:58:57.7	96.030	-0.030	-0.460	0.040
2020/01/31 01:58:57.8	96.020	-0.020	-0.480	0.080
2020/01/31 01:58:57.9	96.010	-0.010	-0.500	0.120
2020/01/31 01:58:58.0	96.010	0.010	-0.520	0.160
2020/01/31 01:58:58.1	96.000	0.020	-0.550	0.200
2020/01/31 01:58:58.2	96.000	0.030	-0.570	0.250
2020/01/31 01:58:58.3	95.990	0.040	-0.580	0.290
2020/01/31 01:58:58.4	95.990	0.050	-0.600	0.340
2020/01/31 01:58:58.5	95.980	0.060	-0.620	0.390
2020/01/31 01:58:58.6	95.980	0.060	-0.630	0.430
2020/01/31 01:58:58.7	95.970	0.070	-0.640	0.480
2020/01/31 01:58:58.8	95.970	0.080	-0.650	0.530
2020/01/31 01:58:58.9	95.970	0.080	-0.650	0.580
2020/01/31 01:58:59.0	95.960	0.080	-0.650	0.640
2020/01/31 01:58:59.1	95.960	0.090	-0.650	0.690
2020/01/31 01:58:59.2	95.960	0.090	-0.640	0.740
2020/01/31 01:58:59.3	95.950	0.090	-0.630	0.790
2020/01/31 01:58:59.4	95.950	0.090	-0.610	0.840
2020/01/31 01:58:59.5	95.950	0.080	-0.590	0.890
2020/01/31 01:58:59.6	95.950	0.080	-0.570	0.930
2020/01/31 01:58:59.7	95.950	0.070	-0.540	0.980
2020/01/31 01:58:59.8	95.950	0.070	-0.510	1.020
2020/01/31 01:58:59.9	95.950	0.060	-0.470	1.060
2020/01/31 01:59:00.0	95.950	0.050	-0.420	1.100
2020/01/31 01:59:00.1	95.950	0.040	-0.380	1.140
2020/01/31 01:59:00.2	95.950	0.030	-0.330	1.170
2020/01/31 01:59:00.3	95.950	0.020	-0.270	1.200
2020/01/31 01:59:00.4	95.950	0.010	-0.220	1.230
2020/01/31 01:59:00.5	95.950	-0.000	-0.160	1.260
2020/01/31 01:59:00.6	95.960	-0.020	-0.100	1.280
2020/01/31 01:59:00.7	95.960	-0.030	-0.040	1.300
2020/01/31 01:59:00.8	95.960	-0.050	0.020	1.310
2020/01/31 01:59:00.9	95.960	-0.060	0.090	1.320
2020/01/31 01:59:01.0	95.980	-0.080	0.150	1.340
2020/01/31 01:59:01.1	95.990	-0.090	0.210	1.340
2020/01/31 01:59:01.2	95.990	-0.110	0.270	1.340
2020/01/31 01:59:01.3	95.990	-0.120	0.330	1.340
2020/01/31 01:59:01.4	95.990	-0.130	0.390	1.340
2020/01/31 01:59:01.5	96.000	-0.150	0.450	1.330
2020/01/31 01:59:01.6	96.000	-0.160	0.500	1.320
2020/01/31 01:59:01.7	96.000	-0.170	0.540	1.310
2020/01/31 01:59:01.8	96.010	-0.180	0.590	1.300
2020/01/31 01:59:01.9	96.010	-0.190	0.620	1.280
2020/01/31 01:59:02.0	96.000	-0.200	0.660	1.270
2020/01/31 01:59:02.1	96.000	-0.210	0.690	1.250
2020/01/31 01:59:02.2	96.010	-0.210	0.710	1.230
2020/01/31 01:59:02.3	96.010	-0.220	0.720	1.210
2020/01/31 01:59:02.4	96.010	-0.220	0.730	1.180
2020/01/31 01:59:02.5	96.020	-0.220	0.740	1.160
2020/01/31 01:59:02.6	96.020	-0.220	0.730	1.130
2020/01/31 01:59:02.7	96.020	-0.210	0.720	1.110
2020/01/31 01:59:02.8	96.030	-0.210	0.700	1.080
2020/01/31 01:59:02.9	96.030	-0.200	0.680	1.060
2020/01/31 01:59:03.0	96.040	-0.190	0.650	1.030
2020/01/31 01:59:03.1	96.040	-0.180	0.610	1.010
2020/01/31 01:59:03.2	96.050	-0.160	0.570	0.980
2020/01/31 01:59:03.3	96.060	-0.150	0.520	0.960
2020/01/31 01:59:03.4	96.060	-0.130	0.460	0.930
2020/01/31 01:59:03.5	96.070	-0.110	0.400	0.910
2020/01/31 01:59:03.6	96.080	-0.090	0.330	0.890
2020/01/31 01:59:03.7	96.090	-0.070	0.260	0.870
2020/01/31 01:59:03.8	96.100	-0.050	0.190	0.850
2020/01/31 01:59:03.9	96.110	-0.030	0.110	0.830
2020/01/31 01:59:04.0	96.120	-0.000	0.030	0.810
2020/01/31 01:59:04.1	96.130	0.020	-0.050	0.800
2020/01/31 01:59:04.2	96.140	0.040	-0.140	0.790
2020/01/31 01:59:04.3	96.160	0.070	-0.220	0.780
2020/01/31 01:59:04.4	96.170	0.090	-0.300	0.770
2020/01/31 01:59:04.5	96.180	0.110	-0.390	0.760
2020/01/31 01:59:04.6	96.190	0.130	-0.460	0.750
2020/01/31 01:59:04.7	96.200	0.160	-0.540	0.750
2020/01/31 01:59:04.8	96.200	0.180	-0.610	0.750
2020/01/31 01:59:04.9	96.210	0.190	-0.680	0.750
2020/01/31 01:59:05.0	96.230	0.210	-0.750	0.750
2020/01/31 01:59:05.1	96.230	0.230	-0.810	0.750
2020/01/31 01:59:05.2	96.230	0.240	-0.870	0.760
2020/01/31 01:59:05.3	96.230	0.250	-0.920	0.760
2020/01/31 01:59:05.4	96.230	0.260	-0.960	0.770
2020/01/31 01:59:05.5	96.220	0.270	-1.000	0.780
2020/01/31 01:59:05.6	96.220	0.280	-1.020	0.780
2020/01/31 01:59:05.7	96.210	0.280	-1.050	0.790
2020/01/31 01:59:05.8	96.200	0.290	-1.060	0.800
2020/01/31 01:59:05.9	96.190	0.290	-1.070	0.810
2020/01/31 01:59:06.0	96.160	0.290	-1.060	0.820
2020/01/31 01:59:06.1	96.140	0.290	-1.060	0.820
2020/01/31 01:59:06.2	96.130	0.280	-1.050	0.830
2020/01/31 01:59:06.3	96.110	0.280	-1.030	0.840
2020/01/31 01:59:06.4	96.090	0.270	-1.000	0.840
2020/01/31 01:59:06.5	96.070	0.270	-0.970	0.850
2020/01/31 01:59:06.6	96.050	0.260	-0.940	0.850
2020/01/31 01:59:06.7	96.030	0.250	-0.900	0.850
2020/01/31 01:59:06.8	96.010	0.240	-0.860	0.860
2020/01/31 01:59:06.9	95.990	0.230	-0.810	0.860
2020/01/31 01:59:07.0	95.960	0.220	-0.760	0.860
2020/01/31 01:59:07.1	95.940	0.210	-0.710	0.860
2020/01/31 01:59:07.2	95.920	0.200	-0.660	0.850
2020/01/31 01:59:07.3	95.900	0.190	-0.610	0.850
2020/01/31 01:59:07.4	95.880	0.190	-0.560	0.850
2020/01/31 01:59:07.5	95.860	0.180	-0.500	0.850
2020/01/31 01:59:07.6	95.830	0.170	-0.450	0.840
2020/01/31 01:59:07.7	95.810	0.160	-0.400	0.840
2020/01/31 01:59:07.8	95.790	0.150	-0.350	0.830
2020/01/31 01:59:07.9	95.770	0.150	-0.300	0.830
2020/01/31 01:59:08.0	95.760	0.140	-0.250	0.820
2020/01/31 01:59:08.1	95.740	0.140	-0.200	0.820
2020/01/31 01:59:08.2	95.720	0.130	-0.160	0.810
2020/01/31 01:59:08.3	95.700	0.130	-0.110	0.800
2020/01/31 01:59:08.4	95.690	0.130	-0.080	0.790
2020/01/31 01:59:08.5	95.670	0.130	-0.040	0.780
2020/01/31 01:59:08.6	95.660	0.120	-0.000	0.770
2020/01/31 01:59:08.7	95.650	0.120	0.030	0.760
2020/01/31 01:59:08.8	95.650	0.120	0.060	0.750
2020/01/31 01:59:08.9	95.640	0.120	0.090	0.730
2020/01/31 01:59:09.0	95.640	0.110	0.120	0.720
2020/01/31 01:59:09.1	95.640	0.110	0.140	0.710
2020/01/31 01:59:09.2	95.640	0.110	0.170	0.700
2020/01/31 01:59:09.3	95.640	0.100	0.190	0.680
2020/01/31 01:59:09.4	95.640	0.100	0.220	0.670
2020/01/31 01:59:09.5	95.650	0.090	0.240	0.660
2020/01/31 01:59:09.6	95.660	0.080	0.260	0.640
2020/01/31 01:59:09.7	95.660	0.070	0.290	0.630
2020/01/31 01:59:09.8	95.670	0.060	0.310	0.610
2020/01/31 01:59:09.9	95.690	0.040	0.330	0.600
2020/01/31 01:59:10.0	95.700	0.030	0.350	0.590
2020/01/31 01:59:10.1	95.720	0.010	0.380	0.580
2020/01/31 01:59:10.2	95.730	-0.010	0.400	0.560
2020/01/31 01:59:10.3	95.750	-0.030	0.420	0.550
2020/01/31 01:59:10.4	95.760	-0.050	0.450	0.540
2020/01/31 01:59:10.5	95.780	-0.070	0.470	0.520
2020/01/31 01:59:10.6	95.800	-0.090	0.490	0.510
2020/01/31 01:59:10.7	95.810	-0.120	0.510	0.500
2020/01/31 01:59:10.8	95.830	-0.140	0.530	0.480
2020/01/31 01:59:10.9	95.850	-0.170	0.550	0.470
2020/01/31 01:59:11.0	95.870	-0.190	0.560	0.460
2020/01/31 01:59:11.1	95.890	-0.220	0.570	0.450
2020/01/31 01:59:11.2	95.910	-0.240	0.590	0.440
2020/01/31 01:59:11.3	95.930	-0.260	0.590	0.420
2020/01/31 01:59:11.4	95.960	-0.280	0.600	0.410
2020/01/31 01:59:11.5	95.980	-0.310	0.590	0.400
2020/01/31 01:59:11.6	96.000	-0.320	0.590	0.390
2020/01/31 01:59:11.7	96.020	-0.340	0.580	0.370
2020/01/31 01:59:11.8	96.040	-0.360	0.570	0.360
2020/01/31 01:59:11.9	96.070	-0.370	0.550	0.350
2020/01/31 01:59:12.0	96.100	-0.380	0.520	0.340
2020/01/31 01:59:12.1	96.120	-0.390	0.490	0.330
2020/01/31 01:59:12.2	96.140	-0.390	0.460	0.320
2020/01/31 01:59:12.3	96.160	-0.390	0.420	0.320
2020/01/31 01:59:12.4	96.180	-0.390	0.380	0.310
2020/01/31 01:59:12.5	96.200	-0.390	0.330	0.310
2020/01/31 01:59:12.6	96.220	-0.380	0.270	0.310
2020/01/31 01:59:12.7	96.240	-0.370	0.220	0.310
2020/01/31 01:59:12.8	96.250	-0.350	0.150	0.310
2020/01/31 01:59:12.9	96.270	-0.340	0.090	0.310
2020/01/31 01:59:13.0	96.280	-0.320	0.020	0.320
2020/01/31 01:59:13.1	96.290	-0.300	-0.050	0.330
2020/01/31 01:59:13.2	96.300	-0.280	-0.120	0.340
2020/01/31 01:59:13.3	96.310	-0.250	-0.190	0.350
2020/01/31 01:59:13.4	96.320	-0.230	-0.270	0.370
2020/01/31 01:59:13.5	96.330	-0.200	-0.340	0.380
2020/01/31 01:59:13.6	96.330	-0.170	-0.410	0.400
2020/01/31 01:59:13.7	96.330	-0.140	-0.480	0.430
2020/01/31 01:59:13.8	96.330	-0.120	-0.550	0.450
2020/01/31 01:59:13.9	96.330	-0.090	-0.610	0.480
2020/01/31 01:59:14.0	96.320	-0.060	-0.680	0.510
2020/01/31 01:59:14.1	96.320	-0.030	-0.740	0.540
2020/01/31 01:59:14.2	96.310	-0.010	-0.790	0.580
2020/01/31 01:59:14.3	96.300	0.020	-0.840	0.610
2020/01/31 01:59:14.4	96.300	0.040	-0.880	0.650
2020/01/31 01:59:14.5	96.280	0.060	-0.920	0.700
2020/01/31 01:59:14.6	96.270	0.080	-0.960	0.740
2020/01/31 01:59:14.7	96.260	0.100	-0.980	0.790
2020/01/31 01:59:14.8	96.240	0.110	-1.000	0.830
2020/01/31 01:59:14.9	96.220	0.120	-1.020	0.880
2020/01/31 01:59:15.0	96.200	0.140	-1.030	0.940
2020/01/31 01:59:15.1	96.180	0.140	-1.030	0.990
2020/01/31 01:59:15.2	96.160	0.150	-1.030	1.050
2020/01/31 01:59:15.3	96.130	0.150	-1.020	1.100
2020/01/31 01:59:15.4	96.110	0.150	-1.000	1.160
2020/01/31 01:59:15.5	96.080	0.150	-0.980	1.210
2020/01/31 01:59:15.6	96.060	0.150	-0.960	1.270
2020/01/31 01:59:15.7	96.030	0.140	-0.930	1.320
2020/01/31 01:59:15.8	96.000	0.140	-0.890	1.380
2020/01/31 01:59:15.9	95.980	0.130	-0.860	1.430
2020/01/31 01:59:16.0	95.950	0.120	-0.810	1.480
2020/01/31 01:59:16.1	95.930	0.110	-0.770	1.530
2020/01/31 01:59:16.2	95.900	0.100	-0.720	1.580
2020/01/31 01:59:16.3	95.880	0.090	-0.670	1.620
2020/01/31 01:59:16.4	95.850	0.070	-0.620	1.660
2020/01/31 01:59:16.5	95.830	0.060	-0.570	1.700
2020/01/31 01:59:16.6	95.800	0.050	-0.520	1.730
2020/01/31 01:59:16.7	95.780	0.040	-0.460	1.760
2020/01/31 01:59:16.8	95.760	0.030	-0.410	1.790
2020/01/31 01:59:16.9	95.740	0.010	-0.360	1.810
2020/01/31 01:59:17.0	95.730	0.000	-0.310	1.830
2020/01/31 01:59:17.1	95.710	-0.010	-0.260	1.850
2020/01/31 01:59:17.2	95.690	-0.020	-0.210	1.860
2020/01/31 01:59:17.3	95.680	-0.030	-0.160	1.860
2020/01/31 01:59:17.4	95.670	-0.040	-0.110	1.860
2020/01/31 01:59:17.5	95.660	-0.040	-0.070	1.860
2020/01/31 01:59:17.6	95.650	-0.050	-0.030	1.860
2020/01/31 01:59:17.7	95.640	-0.060	0.010	1.840
2020/01/31 01:59:17.8	95.640	-0.060	0.050	1.830
2020/01/31 01:59:17.9	95.640	-0.070	0.080	1.810
2020/01/31 01:59:18.0	95.630	-0.070	0.120	1.790
2020/01/31 01:59:18.1	95.630	-0.070	0.150	1.770
2020/01/31 01:59:18.2	95.630	-0.080	0.180	1.740
2020/01/31 01:59:18.3	95.630	-0.080	0.210	1.700
2020/01/31 01:59:18.4	95.640	-0.080	0.230	1.670
2020/01/31 01:59:18.5	95.640	-0.080	0.250	1.630
2020/01/31 01:59:18.6	95.650	-0.080	0.270	1.590
2020/01/31 01:59:18.7	95.660	-0.080	0.290	1.540
2020/01/31 01:59:18.8	95.660	-0.080	0.300	1.500
2020/01/31 01:59:18.9	95.670	-0.070	0.310	1.450
2020/01/31 01:59:19.0	95.690	-0.070	0.320	1.400
2020/01/31 01:59:19.1	95.700	-0.070	0.330	1.340
2020/01/31 01:59:19.2	95.710	-0.070	0.340	1.290
2020/01/31 01:59:19.3	95.720	-0.060	0.340	1.230
2020/01/31 01:59:19.4	95.730	-0.060	0.340	1.170
2020/01/31 01:59:19.5	95.740	-0.050	0.340	1.110
2020/01/31 01:59:19.6	95.750	-0.050	0.340	1.050
2020/01/31 01:59:19.7	95.770	-0.050	0.330	0.980
2020/01/31 01:59:19.8	95.780	-0.040	0.320	0.920
2020/01/31 01:59:19.9	95.790	-0.040	0.320	0.850
2020/01/31 01:59:20.0	95.810	-0.030	0.300	0.790
2020/01/31 01:59:20.1	95.820	-0.030	0.290	0.720
2020/01/31 01:59:20.2	95.840	-0.020	0.280	0.660
2020/01/31 01:59:20.3	95.850	-0.020	0.260	0.590
2020/01/31 01:59:20.4	95.860	-0.010	0.250	0.530
2020/01/31 01:59:20.5	95.880	-0.010	0.230	0.460
2020/01/31 01:59:20.6	95.890	-0.010	0.210	0.400
2020/01/31 01:59:20.7	95.900	-0.000	0.190	0.340
2020/01/31 01:59:20.8	95.910	0.000	0.170	0.280
2020/01/31 01:59:20.9	95.930	0.010	0.150	0.220
2020/01/31 01:59:21.0	95.940	0.010	0.130	0.170
2020/01/31 01:59:21.1	95.950	0.010	0.110	0.120
2020/01/31 01:59:21.2	95.960	0.020	0.090	0.070
2020/01/31 01:59:21.3	95.970	0.020	0.070	0.020
2020/01/31 01:59:21.4	95.980	0.020	0.050	-0.020
2020/01/31 01:59:21.5	95.990	0.030	0.030	-0.060
2020/01/31 01:59:21.6	96.000	0.030	0.010	-0.100
2020/01/31 01:59:21.7	96.000	0.030	-0.020	-0.130
2020/01/31 01:59:21.8	96.010	0.040	-0.040	-0.160
2020/01/31 01:59:21.9	96.010	0.040	-0.060	-0.190
2020/01/31 01:59:22.0	96.020	0.050	-0.080	-0.210
2020/01/31 01:59:22.1	96.020	0.050	-0.110	-0.230
2020/01/31 01:59:22.2	96.030	0.060	-0.130	-0.250
2020/01/31 01:59:22.3	96.030	0.060	-0.150	-0.260
2020/01/31 01:59:22.4	96.030	0.070	-0.170	-0.280
2020/01/31 01:59:22.5	96.040	0.070	-0.200	-0.290
2020/01/31 01:59:22.6	96.040	0.080	-0.220	-0.300
2020/01/31 01:59:22.7	96.040	0.080	-0.240	-0.300
2020/01/31 01:59:22.8	96.040	0.090	-0.270	-0.310
2020/01/31 01:59:22.9	96.040	0.100	-0.290	-0.310
2020/01/31 01:59:23.0	96.040	0.100	-0.310	-0.310
2020/01/31 01:59:23.1	96.050	0.110	-0.330	-0.310
2020/01/31 01:59:23.2	96.050	0.120	-0.360	-0.300
2020/01/31 01:59:23.3	96.050	0.120	-0.380	-0.300
2020/01/31 01:59:23.4	96.050	0.130	-0.400	-0.300
2020/01/31 01:59:23.5	96.060	0.130	-0.430	-0.290
2020/01/31 01:59:23.6	96.060	0.140	-0.450	-0.280
2020/01/31 01:59:23.7	96.060	0.140	-0.470	-0.270
2020/01/31 01:59:23.8	96.070	0.150	-0.490	-0.260
2020/01/31 01:59:23.9	96.070	0.150	-0.510	-0.250
2020/01/31 01:59:24.0	96.050	0.160	-0.530	-0.230
2020/01/31 01:59:24.1	96.060	0.160	-0.540	-0.210
2020/01/31 01:59:24.2	96.060	0.160	-0.550	-0.190
2020/01/31 01:59:24.3	96.060	0.160	-0.570	-0.160
2020/01/31 01:59:24.4	96.060	0.160	-0.570	-0.130
2020/01/31 01:59:24.5	96.060	0.160	-0.580	-0.100
2020/01/31 01:59:24.6	96.060	0.150	-0.580	-0.070
2020/01/31 01:59:24.7	96.060	0.150	-0.590	-0.030
2020/01/31 01:59:24.8	96.050	0.150	-0.580	0.010
2020/01/31 01:59:24.9	96.050	0.140	-0.580	0.050
2020/01/31 01:59:25.0	96.030	0.140	-0.570	0.110
2020/01/31 01:59:25.1	96.020	0.130	-0.560	0.160
2020/01/31 01:59:25.2	96.010	0.120	-0.550	0.210
2020/01/31 01:59:25.3	96.000	0.110	-0.530	0.270
2020/01/31 01:59:25.4	95.990	0.100	-0.520	0.330
2020/01/31 01:59:25.5	95.970	0.090	-0.500	0.390
2020/01/31 01:59:25.6	95.960	0.080	-0.470	0.450
2020/01/31 01:59:25.7	95.940	0.070	-0.450	0.520
2020/01/31 01:59:25.8	95.930	0.060	-0.420	0.580
2020/01/31 01:59:25.9	95.910	0.050	-0.390	0.650
2020/01/31 01:59:26.0	95.900	0.040	-0.360	0.720
2020/01/31 01:59:26.1	95.880	0.030	-0.330	0.790
2020/01/31 01:59:26.2	95.870	0.010	-0.290	0.860
2020/01/31 01:59:26.3	95.850	0.000	-0.250	0.930
2020/01/31 01:59:26.4	95.840	-0.010	-0.210	0.990
2020/01/31 01:59:26.5	95.820	-0.020	-0.170	1.060
2020/01/31 01:59:26.6	95.810	-0.040	-0.130	1.130
2020/01/31 01:59:26.7	95.800	-0.050	-0.080	1.190
2020/01/31 01:59:26.8	95.790	-0.060	-0.040	1.250
2020/01/31 01:59:26.9	95.780	-0.070	0.010	1.310
2020/01/31 01:59:27.0	95.770	-0.080	0.050	1.380
2020/01/31 01:59:27.1	95.770	-0.090	0.090	1.430
2020/01/31 01:59:27.2	95.760	-0.100	0.140	1.490
2020/01/31 01:59:27.3	95.760	-0.110	0.180	1.540
2020/01/31 01:59:27.4	95.760	-0.120	0.210	1.590
2020/01/31 01:59:27.5	95.760	-0.130	0.250	1.640
2020/01/31 01:59:27.6	95.760	-0.130	0.280	1.680
2020/01/31 01:59:27.7	95.760	-0.140	0.310	1.730
2020/01/31 01:59:27.8	95.760	-0.140	0.330	1.770
2020/01/31 01:59:27.9	95.770	-0.140	0.350	1.800
2020/01/31 01:59:28.0	95.770	-0.140	0.370	1.830
2020/01/31 01:59:28.1	95.780	-0.140	0.380	1.860
2020/01/31 01:59:28.2	95.790	-0.130	0.380	1.890
2020/01/31 01:59:28.3	95.800	-0.130	0.380	1.910
2020/01/31 01:59:28.4	95.810	-0.120	0.370	1.920
2020/01/31 01:59:28.5	95.820	-0.110	0.360	1.940
2020/01/31 01:59:28.6	95.830	-0.100	0.340	1.940
2020/01/31 01:59:28.7	95.850	-0.090	0.320	1.950
2020/01/31 01:59:28.8	95.860	-0.070	0.300	1.950
2020/01/31 01:59:28.9	95.880	-0.060	0.270	1.940
2020/01/31 01:59:29.0	95.900	-0.040	0.230	1.930
2020/01/31 01:59:29.1	95.910	-0.030	0.190	1.920
2020/01/31 01:59:29.2	95.930	-0.010	0.150	1.900
2020/01/31 01:59:29.3	95.950	0.010	0.110	1.880
2020/01/31 01:59:29.4	95.960	0.030	0.060	1.860
2020/01/31 01:59:29.5	95.980	0.050	0.020	1.830
2020/01/31 01:59:29.6	96.000	0.070	-0.030	1.800
2020/01/31 01:59:29.7	96.010	0.090	-0.070	1.770
2020/01/31 01:59:29.8	96.030	0.110	-0.110	1.730
2020/01/31 01:59:29.9	96.050	0.120	-0.160	1.690
2020/01/31 01:59:30.0	96.050	0.140	-0.200	1.650
2020/01/31 01:59:30.1	96.070	0.150	-0.230	1.610
2020/01/31 01:59:30.2	96.080	0.170	-0.270	1.570
2020/01/31 01:59:30.3	96.090	0.180	-0.300	1.530
2020/01/31 01:59:30.4	96.100	0.190	-0.330	1.480
2020/01/31 01:59:30.5	96.110	0.200	-0.360	1.440
2020/01/31 01:59:30.6	96.110	0.210	-0.380	1.390
2020/01/31 01:59:30.7	96.120	0.210	-0.400	1.350
2020/01/31 01:59:30.8	96.120	0.210	-0.420	1.310
2020/01/31 01:59:30.9	96.120	0.210	-0.430	1.260
2020/01/31 01:59:31.0	96.140	0.210	-0.450	1.220
2020/01/31 01:59:31.1	96.140	0.210	-0.460	1.180
2020/01/31 01:59:31.2	96.130	0.200	-0.460	1.140
2020/01/31 01:59:31.3	96.130	0.190	-0.470	1.100
2020/01/31 01:59:31.4	96.130	0.180	-0.470	1.070
2020/01/31 01:59:31.5	96.120	0.170	-0.470	1.030
2020/01/31 01:59:31.6	96.110	0.150	-0.470	1.000
2020/01/31 01:59:31.7	96.100	0.140	-0.460	0.970
2020/01/31 01:59:31.8	96.090	0.120	-0.460	0.950
2020/01/31 01:59:31.9	96.070	0.100	-0.450	0.920
2020/01/31 01:59:32.0	96.080	0.080	-0.450	0.900
2020/01/31 01:59:32.1	96.060	0.060	-0.440	0.890
2020/01/31 01:59:32.2	96.040	0.030	-0.430	0.870
2020/01/31 01:59:32.3	96.020	0.010	-0.420	0.860
2020/01/31 01:59:32.4	96.000	-0.010	-0.410	0.840
2020/01/31 01:59:32.5	95.980	-0.040	-0.390	0.830
2020/01/31 01:59:32.6	95.960	-0.070	-0.380	0.820
2020/01/31 01:59:32.7	95.930	-0.090	-0.370	0.820
2020/01/31 01:59:32.8	95.910	-0.120	-0.350	0.810
2020/01/31 01:59:32.9	95.880	-0.140	-0.340	0.800
2020/01/31 01:59:33.0	95.880	-0.170	-0.320	0.800
2020/01/31 01:59:33.1	95.850	-0.200	-0.300	0.790
2020/01/31 01:59:33.2	95.830	-0.220	-0.290	0.790
2020/01/31 01:59:33.3	95.810	-0.250	-0.270	0.780
2020/01/31 01:59:33.4	95.790	-0.270	-0.250	0.780
2020/01/31 01:59:33.5	95.770	-0.300	-0.230	0.770
2020/01/31 01:59:33.6	95.750	-0.320	-0.220	0.760
2020/01/31 01:59:33.7	95.730	-0.340	-0.200	0.750
2020/01/31 01:59:33.8	95.720	-0.360	-0.180	0.740
2020/01/31 01:59:33.9	95.700	-0.380	-0.160	0.730
2020/01/31 01:59:34.0	95.690	-0.390	-0.140	0.720
2020/01/31 01:59:34.1	95.680	-0.410	-0.120	0.710
2020/01/31 01:59:34.2	95.680	-0.420	-0.100	0.700
2020/01/31 01:59:34.3	95.670	-0.430	-0.080	0.680
2020/01/31 01:59:34.4	95.670	-0.440	-0.060	0.670
2020/01/31 01:59:34.5	95.670	-0.450	-0.040	0.650
2020/01/31 01:59:34.6	95.670	-0.450	-0.020	0.630
2020/01/31 01:59:34.7	95.670	-0.460	-0.000	0.610
2020/01/31 01:59:34.8	95.680	-0.460	0.020	0.590
2020/01/31 01:59:34.9	95.680	-0.450	0.030	0.570
2020/01/31 01:59:35.0	95.690	-0.450	0.050	0.560
2020/01/31 01:59:35.1	95.710	-0.440	0.060	0.530
2020/01/31 01:59:35.2	95.720	-0.430	0.080	0.510
2020/01/31 01:59:35.3	95.730	-0.420	0.090	0.480
2020/01/31 01:59:35.4	95.750	-0.400	0.090	0.460
2020/01/31 01:59:35.5	95.770	-0.380	0.100	0.430
2020/01/31 01:59:35.6	95.780	-0.360	0.100	0.400
2020/01/31 01:59:35.7	95.800	-0.340	0.100	0.370
2020/01/31 01:59:35.8	95.830	-0.320	0.100	0.340
2020/01/31 01:59:35.9	95.850	-0.290	0.100	0.320
2020/01/31 01:59:36.0	95.870	-0.260	0.090	0.280
2020/01/31 01:59:36.1	95.900	-0.230	0.080	0.260
2020/01/31 01:59:36.2	95.920	-0.200	0.070	0.230
2020/01/31 01:59:36.3	95.940	-0.170	0.050	0.200
2020/01/31 01:59:36.4	95.960	-0.140	0.040	0.180
2020/01/31 01:59:36.5	95.990	-0.100	0.020	0.160
2020/01/31 01:59:36.6	96.010	-0.070	-0.010	0.130
2020/01/31 01:59:36.7	96.030	-0.030	-0.030	0.110
2020/01/31 01:59:36.8	96.050	0.000	-0.050	0.090
2020/01/31 01:59:36.9	96.070	0.040	-0.080	0.080
2020/01/31 01:59:37.0	96.100	0.070	-0.110	0.070
2020/01/31 01:59:37.1	96.120	0.110	-0.130	0.050
2020/01/31 01:59:37.2	96.130	0.140	-0.160	0.040
2020/01/31 01:59:37.3	96.150	0.180	-0.190	0.030
2020/01/31 01:59:37.4	96.170	0.210	-0.210	0.030
2020/01/31 01:59:37.5	96.180	0.240	-0.240	0.020
2020/01/31 01:59:37.6	96.200	0.270	-0.270	0.020
2020/01/31 01:59:37.7	96.210	0.300	-0.290	0.020
2020/01/31 01:59:37.8	96.210	0.320	-0.310	0.030
2020/01/31 01:59:37.9	96.220	0.350	-0.330	0.040
2020/01/31 01:59:38.0	96.210	0.370	-0.350	0.050
2020/01/31 01:59:38.1	96.210	0.390	-0.370	0.070
2020/01/31 01:59:38.2	96.210	0.400	-0.380	0.080
2020/01/31 01:59:38.3	96.210	0.420	-0.390	0.100
2020/01/31 01:59:38.4	96.200	0.430	-0.400	0.130
2020/01/31 01:59:38.5	96.190	0.440	-0.400	0.150
2020/01/31 01:59:38.6	96.180	0.450	-0.410	0.180
2020/01/31 01:59:38.7	96.160	0.460	-0.410	0.210
2020/01/31 01:59:38.8	96.140	0.460	-0.400	0.250
2020/01/31 01:59:38.9	96.120	0.460	-0.400	0.280
2020/01/31 01:59:39.0	96.110	0.460	-0.380	0.320
2020/01/31 01:59:39.1	96.080	0.450	-0.370	0.360
2020/01/31 01:59:39.2	96.060	0.450	-0.350	0.400
2020/01/31 01:59:39.3	96.030	0.440	-0.340	0.430
2020/01/31 01:59:39.4	96.010	0.420	-0.310	0.470
2020/01/31 01:59:39.5	95.980	0.410	-0.290	0.510
2020/01/31 01:59:39.6	95.960	0.390	-0.270	0.540
2020/01/31 01:59:39.7	95.930	0.370	-0.240	0.580
2020/01/31 01:59:39.8	95.910	0.350	-0.210	0.620
2020/01/31 01:59:39.9	95.880	0.330	-0.170	0.650
2020/01/31 01:59:40.0	95.850	0.300	-0.140	0.680
2020/01/31 01:59:40.1	95.820	0.280	-0.110	0.710
2020/01/31 01:59:40.2	95.800	0.250	-0.070	0.740
2020/01/31 01:59:40.3	95.780	0.220	-0.030	0.770
2020/01/31 01:59:40.4	95.760	0.190	0.000	0.790
2020/01/31 01:59:40.5	95.750	0.160	0.040	0.820
2020/01/31 01:59:40.6	95.730	0.130	0.080	0.840
2020/01/31 01:59:40.7	95.720	0.100	0.110	0.860
2020/01/31 01:59:40.8	95.710	0.060	0.140	0.880
2020/01/31 01:59:40.9	95.700	0.030	0.170	0.900
2020/01/31 01:59:41.0	95.690	0.000	0.200	0.920
2020/01/31 01:59:41.1	95.680	-0.030	0.230	0.940
2020/01/31 01:59:41.2	95.670	-0.060	0.250	0.960
2020/01/31 01:59:41.3	95.660	-0.090	0.270	0.980
2020/01/31 01:59:41.4	95.660	-0.110	0.290	0.990
2020/01/31 01:59:41.5	95.650	-0.140	0.300	1.010
2020/01/31 01:59:41.6	95.650	-0.160	0.310	1.020
2020/01/31 01:59:41.7	95.650	-0.190	0.320	1.040
2020/01/31 01:59:41.8	95.650	-0.210	0.320	1.050
2020/01/31 01:59:41.9	95.650	-0.230	0.310	1.070
2020/01/31 01:59:42.0	95.640	-0.240	0.310	1.080
2020/01/31 01:59:42.1	95.650	-0.260	0.300	1.090
2020/01/31 01:59:42.2	95.650	-0.270	0.280	1.110
2020/01/31 01:59:42.3	95.660	-0.280	0.260	1.120
2020/01/31 01:59:42.4	95.670	-0.290	0.240	1.130
2020/01/31 01:59:42.5	95.680	-0.300	0.210	1.130
2020/01/31 01:59:42.6	95.690	-0.310	0.180	1.140
2020/01/31 01:59:42.7	95.700	-0.310	0.150	1.140
2020/01/31 01:59:42.8	95.720	-0.310	0.120	1.150
2020/01/31 01:59:42.9	95.730	-0.310	0.080	1.150
2020/01/31 01:59:43.0	95.740	-0.300	0.040	1.150
2020/01/31 01:59:43.1	95.760	-0.300	-0.000	1.150
2020/01/31 01:59:43.2	95.770	-0.290	-0.040	1.150
2020/01/31 01:59:43.3	95.790	-0.290	-0.090	1.150
2020/01/31 01:59:43.4	95.820	-0.280	-0.130	1.150
2020/01/31 01:59:43.5	95.840	-0.260	-0.180	1.150
2020/01/31 01:59:43.6	95.860	-0.250	-0.220	1.150
2020/01/31 01:59:43.7	95.880	-0.240	-0.270	1.140
2020/01/31 01:59:43.8	95.900	-0.220	-0.320	1.140
2020/01/31 01:59:43.9	95.920	-0.210	-0.360	1.140
2020/01/31 01:59:44.0	95.940	-0.190	-0.410	1.140
2020/01/31 01:59:44.1	95.960	-0.170	-0.450	1.140
2020/01/31 01:59:44.2	95.980	-0.150	-0.500	1.140
2020/01/31 01:59:44.3	96.000	-0.130	-0.540	1.140
2020/01/31 01:59:44.4	96.020	-0.110	-0.580	1.150
2020/01/31 01:59:44.5	96.040	-0.090	-0.610	1.150
2020/01/31 01:59:44.6	96.060	-0.070	-0.650	1.160
2020/01/31 01:59:44.7	96.070	-0.050	-0.680	1.170
2020/01/31 01:59:44.8	96.090	-0.020	-0.710	1.180
2020/01/31 01:59:44.9	96.100	-0.000	-0.740	1.190
2020/01/31 01:59:45.0	96.110	0.020	-0.760	1.200
2020/01/31 01:59:45.1	96.120	0.040	-0.770	1.220
2020/01/31 01:59:45.2	96.120	0.060	-0.790	1.230
2020/01/31 01:59:45.3	96.130	0.080	-0.800	1.250
2020/01/31 01:59:45.4	96.130	0.100	-0.810	1.270
2020/01/31 01:59:45.5	96.130	0.120	-0.810	1.290
2020/01/31 01:59:45.6	96.130	0.140	-0.810	1.310
2020/01/31 01:59:45.7	96.120	0.150	-0.800	1.330
2020/01/31 01:59:45.8	96.120	0.170	-0.790	1.350
2020/01/31 01:59:45.9	96.110	0.180	-0.770	1.380
2020/01/31 01:59:46.0	96.100	0.190	-0.750	1.410
2020/01/31 01:59:46.1	96.080	0.200	-0.720	1.430
2020/01/31 01:59:46.2	96.070	0.210	-0.700	1.450
2020/01/31 01:59:46.3	96.050	0.210	-0.660	1.480
2020/01/31 01:59:46.4	96.030	0.220	-0.620	1.500
2020/01/31 01:59:46.5	96.000	0.220	-0.580	1.520
2020/01/31 01:59:46.6	95.980	0.220	-0.540	1.550
2020/01/31 01:59:46.7	95.960	0.220	-0.490	1.570
2020/01/31 01:59:46.8	95.930	0.210	-0.430	1.590
2020/01/31 01:59:46.9	95.900	0.200	-0.380	1.600
2020/01/31 01:59:47.0	95.870	0.200	-0.320	1.620
2020/01/31 01:59:47.1	95.840	0.180	-0.270	1.630
2020/01/31 01:59:47.2	95.810	0.170	-0.210	1.640
2020/01/31 01:59:47.3	95.780	0.160	-0.150	1.650
2020/01/31 01:59:47.4	95.750	0.140	-0.090	1.650
2020/01/31 01:59:47.5	95.720	0.120	-0.030	1.650
2020/01/31 01:59:47.6	95.700	0.110	0.020	1.650
2020/01/31 01:59:47.7	95.670	0.090	0.080	1.640
2020/01/31 01:59:47.8	95.640	0.070	0.130	1.620
2020/01/31 01:59:47.9	95.610	0.050	0.180	1.610
2020/01/31 01:59:48.0	95.590	0.030	0.230	1.590
2020/01/31 01:59:48.1	95.560	0.010	0.280	1.560
2020/01/31 01:59:48.2	95.530	-0.010	0.320	1.540
2020/01/31 01:59:48.3	95.510	-0.030	0.350	1.500
2020/01/31 01:59:48.4	95.490	-0.050	0.390	1.470
2020/01/31 01:59:48.5	95.460	-0.060	0.410	1.430
2020/01/31 01:59:48.6	95.440	-0.080	0.430	1.390
2020/01/31 01:59:48.7	95.420	-0.090	0.450	1.340
2020/01/31 01:59:48.8	95.400	-0.100	0.460	1.290
2020/01/31 01:59:48.9	95.380	-0.110	0.470	1.240
2020/01/31 01:59:49.0	95.370	-0.120	0.470	1.180
2020/01/31 01:59:49.1	95.360	-0.120	0.460	1.120
2020/01/31 01:59:49.2	95.350	-0.130	0.450	1.060
2020/01/31 01:59:49.3	95.340	-0.130	0.440	0.990
2020/01/31 01:59:49.4	95.330	-0.120	0.420	0.920
2020/01/31 01:59:49.5	95.330	-0.120	0.400	0.850
2020/01/31 01:59:49.6	95.330	-0.110	0.370	0.770
2020/01/31 01:59:49.7	95.330	-0.110	0.340	0.690
2020/01/31 01:59:49.8	95.330	-0.100	0.310	0.610
2020/01/31 01:59:49.9	95.340	-0.080	0.270	0.520
2020/01/31 01:59:50.0	95.350	-0.070	0.230	0.430
2020/01/31 01:59:50.1	95.360	-0.050	0.190	0.350
2020/01/31 01:59:50.2	95.380	-0.040	0.150	0.260
2020/01/31 01:59:50.3	95.400	-0.020	0.110	0.170
2020/01/31 01:59:50.4	95.420	-0.000	0.060	0.080
2020/01/31 01:59:50.5	95.440	0.020	0.020	-0.010
2020/01/31 01:59:50.6	95.470	0.040	-0.020	-0.100
2020/01/31 01:59:50.7	95.490	0.060	-0.060	-0.190
2020/01/31 01:59:50.8	95.520	0.080	-0.100	-0.270
2020/01/31 01:59:50.9	95.540	0.100	-0.140	-0.350
2020/01/31 01:59:51.0	95.570	0.120	-0.180	-0.430
2020/01/31 01:59:51.1	95.600	0.130	-0.210	-0.500
2020/01/31 01:59:51.2	95.620	0.150	-0.240	-0.570
2020/01/31 01:59:51.3	95.650	0.160	-0.270	-0.640
2020/01/31 01:59:51.4	95.670	0.170	-0.290	-0.700
2020/01/31 01:59:51.5	95.700	0.180	-0.320	-0.750
2020/01/31 01:59:51.6	95.720	0.190	-0.330	-0.800
2020/01/31 01:59:51.7	95.740	0.200	-0.350	-0.850
2020/01/31 01:59:51.8	95.760	0.200	-0.350	-0.880
2020/01/31 01:59:51.9	95.780	0.200	-0.360	-0.910
2020/01/31 01:59:52.0	95.790	0.200	-0.360	-0.930
2020/01/31 01:59:52.1	95.800	0.190	-0.360	-0.950
2020/01/31 01:59:52.2	95.810	0.180	-0.360	-0.960
2020/01/31 01:59:52.3	95.820	0.170	-0.350	-0.960
2020/01/31 01:59:52.4	95.830	0.160	-0.340	-0.960
2020/01/31 01:59:52.5	95.830	0.140	-0.330	-0.960
2020/01/31 01:59:52.6	95.830	0.120	-0.310	-0.940
2020/01/31 01:59:52.7	95.830	0.100	-0.290	-0.920
2020/01/31 01:59:52.8	95.830	0.080	-0.270	-0.890
2020/01/31 01:59:52.9	95.820	0.050	-0.250	-0.860
2020/01/31 01:59:53.0	95.810	0.030	-0.230	-0.820
2020/01/31 01:59:53.1	95.800	-0.000	-0.210	-0.780
2020/01/31 01:59:53.2	95.790	-0.030	-0.190	-0.720
2020/01/31 01:59:53.3	95.780	-0.060	-0.170	-0.670
2020/01/31 01:59:53.4	95.770	-0.090	-0.160	-0.610
2020/01/31 01:59:53.5	95.750	-0.120	-0.140	-0.550
2020/01/31 01:59:53.6	95.740	-0.140	-0.130	-0.480
2020/01/31 01:59:53.7	95.730	-0.170	-0.110	-0.410
2020/01/31 01:59:53.8	95.710	-0.190	-0.110	-0.340
2020/01/31 01:59:53.9	95.700	-0.220	-0.100	-0.270
2020/01/31 01:59:54.0	95.680	-0.240	-0.100	-0.190
2020/01/31 01:59:54.1	95.670	-0.260	-0.100	-0.110
2020/01/31 01:59:54.2	95.660	-0.270	-0.100	-0.040
2020/01/31 01:59:54.3	95.650	-0.290	-0.110	0.040
2020/01/31 01:59:54.4	95.640	-0.300	-0.120	0.120
2020/01/31 01:59:54.5	95.640	-0.310	-0.140	0.190
2020/01/31 01:59:54.6	95.630	-0.310	-0.150	0.270
2020/01/31 01:59:54.7	95.620	-0.310	-0.170	0.350
2020/01/31 01:59:54.8	95.620	-0.310	-0.190	0.430
2020/01/31 01:59:54.9	95.610	-0.310	-0.210	0.500
2020/01/31 01:59:55.0	95.620	-0.300	-0.230	0.580
2020/01/31 01:59:55.1	95.620	-0.290	-0.260	0.660
2020/01/31 01:59:55.2	95.610	-0.280	-0.280	0.740
2020/01/31 01:59:55.3	95.610	-0.260	-0.300	0.810
2020/01/31 01:59:55.4	95.610	-0.240	-0.330	0.890
2020/01/31 01:59:55.5	95.610	-0.230	-0.350	0.960
2020/01/31 01:59:55.6	95.600	-0.210	-0.370	1.030
2020/01/31 01:59:55.7	95.600	-0.190	-0.390	1.100
2020/01/31 01:59:55.8	95.600	-0.160	-0.410	1.170
2020/01/31 01:59:55.9	95.600	-0.140	-0.420	1.240
2020/01/31 01:59:56.0	95.610	-0.120	-0.440	1.310
2020/01/31 01:59:56.1	95.610	-0.100	-0.450	1.380
2020/01/31 01:59:56.2	95.610	-0.070	-0.460	1.440
2020/01/31 01:59:56.3	95.600	-0.050	-0.460	1.500
2020/01/31 01:59:56.4	95.600	-0.030	-0.460	1.560
2020/01/31 01:59:56.5	95.600	-0.010	-0.460	1.610
2020/01/31 01:59:56.6	95.590	0.010	-0.460	1.670
2020/01/31 01:59:56.7	95.590	0.030	-0.450	1.720
2020/01/31 01:59:56.8	95.580	0.050	-0.440	1.770
2020/01/31 01:59:56.9	95.580	0.060	-0.420	1.820
2020/01/31 01:59:57.0	95.560	0.080	-0.400	1.860
2020/01/31 01:59:57.1	95.550	0.090	-0.380	1.900
2020/01/31 01:59:57.2	95.540	0.100	-0.360	1.940
2020/01/31 01:59:57.3	95.530	0.110	-0.340	1.980
2020/01/31 01:59:57.4	95.520	0.120	-0.310	2.010
2020/01/31 01:59:57.5	95.520	0.120	-0.290	2.050
2020/01/31 01:59:57.6	95.510	0.120	-0.260	2.070
2020/01/31 01:59:57.7	95.500	0.130	-0.230	2.100
2020/01/31 01:59:57.8	95.490	0.130	-0.200	2.120
2020/01/31 01:59:57.9	95.480	0.130	-0.170	2.140
2020/01/31 01:59:58.0	95.480	0.130	-0.140	2.160
2020/01/31 01:59:58.1	95.470	0.130	-0.110	2.170
2020/01/31 01:59:58.2	95.460	0.120	-0.080	2.180
2020/01/31 01:59:58.3	95.450	0.120	-0.060	2.190
2020/01/31 01:59:58.4	95.450	0.120	-0.030	2.190
2020/01/31 01:59:58.5	95.440	0.110	-0.010	2.200
2020/01/31 01:59:58.6	95.430	0.110	0.010	2.190
2020/01/31 01:59:58.7	95.430	0.100	0.030	2.190
2020/01/31 01:59:58.8	95.420	0.100	0.050	2.180
2020/01/31 01:59:58.9	95.410	0.100	0.070	2.170
2020/01/31 01:59:59.0	95.410	0.100	0.080	2.150
2020/01/31 01:59:59.1	95.400	0.090	0.090	2.130
2020/01/31 01:59:59.2	95.400	0.090	0.100	2.110
2020/01/31 01:59:59.3	95.400	0.090	0.110	2.090
2020/01/31 01:59:59.4	95.390	0.090	0.120	2.060
2020/01/31 01:59:59.5	95.390	0.090	0.120	2.030
2020/01/31 01:59:59.6	95.390	0.090	0.130	1.990
2020/01/31 01:59:59.7	95.390	0.090	0.130	1.950
2020/01/31 01:59:59.8	95.390	0.100	0.130	1.910
2020/01/31 01:59:59.9	95.390	0.100	0.120	1.860
2020/01/31 02:00:00.0	95.380	0.100	0.120	1.810
2020/01/31 02:00:00.1	95.380	0.110	0.110	1.760
2020/01/31 02:00:00.2	95.380	0.110	0.110	1.700
2020/01/31 02:00:00.3	95.380	0.120	0.100	1.650
2020/01/31 02:00:00.4	95.380	0.120	0.090	1.590
2020/01/31 02:00:00.5	95.390	0.130	0.080	1.520
2020/01/31 02:00:00.6	95.390	0.140	0.070	1.460
2020/01/31 02:00:00.7	95.390	0.140	0.060	1.400
2020/01/31 02:00:00.8	95.390	0.150	0.040	1.330
2020/01/31 02:00:00.9	95.390	0.160	0.030	1.270
2020/01/31 02:00:01.0	95.390	0.160	0.020	1.200
2020/01/31 02:00:01.1	95.390	0.170	0.000	1.140
2020/01/31 02:00:01.2	95.390	0.170	-0.010	1.070
2020/01/31 02:00:01.3	95.390	0.180	-0.030	1.010
2020/01/31 02:00:01.4	95.390	0.180	-0.040	0.950
2020/01/31 02:00:01.5	95.390	0.180	-0.060	0.890
2020/01/31 02:00:01.6	95.390	0.190	-0.070	0.830
2020/01/31 02:00:01.7	95.380	0.190	-0.090	0.770
2020/01/31 02:00:01.8	95.380	0.190	-0.100	0.710
2020/01/31 02:00:01.9	95.380	0.190	-0.120	0.650
2020/01/31 02:00:02.0	95.380	0.180	-0.130	0.600
2020/01/31 02:00:02.1	95.370	0.180	-0.140	0.540
2020/01/31 02:00:02.2	95.370	0.170	-0.160	0.490
2020/01/31 02:00:02.3	95.370	0.170	-0.170	0.440
2020/01/31 02:00:02.4	95.370	0.160	-0.180	0.390
2020/01/31 02:00:02.5	95.370	0.150	-0.190	0.340
2020/01/31 02:00:02.6	95.370	0.140	-0.200	0.300
2020/01/31 02:00:02.7	95.370	0.130	-0.200	0.250
2020/01/31 02:00:02.8	95.370	0.120	-0.210	0.210
2020/01/31 02:00:02.9	95.370	0.110	-0.210	0.170
2020/01/31 02:00:03.0	95.370	0.100	-0.220	0.130
2020/01/31 02:00:03.1	95.370	0.080	-0.220	0.100
2020/01/31 02:00:03.2	95.370	0.070	-0.220	0.060
2020/01/31 02:00:03.3	95.370	0.050	-0.220	0.030
2020/01/31 02:00:03.4	95.380	0.040	-0.220	0.010
2020/01/31 02:00:03.5	95.380	0.020	-0.220	-0.020
2020/01/31 02:00:03.6	95.380	0.010	-0.220	-0.040
2020/01/31 02:00:03.7	95.380	-0.000	-0.220	-0.060
2020/01/31 02:00:03.8	95.370	-0.020	-0.220	-0.080
2020/01/31 02:00:03.9	95.370	-0.030	-0.220	-0.090
2020/01/31 02:00:04.0	95.380	-0.040	-0.220	-0.100
2020/01/31 02:00:04.1	95.370	-0.060	-0.220	-0.110
2020/01/31 02:00:04.2	95.370	-0.070	-0.220	-0.110
2020/01/31 02:00:04.3	95.370	-0.080	-0.220	-0.120
2020/01/31 02:00:04.4	95.370	-0.090	-0.220	-0.120
2020/01/31 02:00:04.5	95.360	-0.100	-0.220	-0.120
2020/01/31 02:00:04.6	95.360	-0.100	-0.220	-0.120
2020/01/31 02:00:04.7	95.360	-0.110	-0.220	-0.110
2020/01/31 02:00:04.8	95.360	-0.120	-0.220	-0.110
2020/01/31 02:00:04.9	95.350	-0.130	-0.230	-0.100
2020/01/31 02:00:05.0	95.350	-0.130	-0.230	-0.090
2020/01/31 02:00:05.1	95.350	-0.140	-0.230	-0.090
2020/01/31 02:00:05.2	95.350	-0.140	-0.230	-0.080
2020/01/31 02:00:05.3	95.350	-0.140	-0.230	-0.070
2020/01/31 02:00:05.4	95.350	-0.150	-0.230	-0.060
2020/01/31 02:00:05.5	95.360	-0.150	-0.230	-0.050
2020/01/31 02:00:05.6	95.360	-0.160	-0.220	-0.040
2020/01/31 02:00:05.7	95.370	-0.160	-0.220	-0.030
2020/01/31 02:00:05.8	95.370	-0.160	-0.220	-0.020
2020/01/31 02:00:05.9	95.380	-0.160	-0.210	-0.010
2020/01/31 02:00:06.0	95.380	-0.170	-0.210	0.000
2020/01/31 02:00:06.1	95.380	-0.170	-0.200	0.020
2020/01/31 02:00:06.2	95.390	-0.170	-0.200	0.030
2020/01/31 02:00:06.3	95.400	-0.170	-0.190	0.050
2020/01/31 02:00:06.4	95.400	-0.180	-0.190	0.070
2020/01/31 02:00:06.5	95.410	-0.180	-0.180	0.090
2020/01/31 02:00:06.6	95.410	-0.180	-0.170	0.120
2020/01/31 02:00:06.7	95.410	-0.180	-0.170	0.150
2020/01/31 02:00:06.8	95.410	-0.180	-0.160	0.180
2020/01/31 02:00:06.9	95.420	-0.170	-0.160	0.210
2020/01/31 02:00:07.0	95.410	-0.170	-0.160	0.250
2020/01/31 02:00:07.1	95.410	-0.170	-0.160	0.290
2020/01/31 02:00:07.2	95.410	-0.160	-0.160	0.330
2020/01/31 02:00:07.3	95.410	-0.160	-0.160	0.380
2020/01/31 02:00:07.4	95.400	-0.150	-0.170	0.430
2020/01/31 02:00:07.5	95.400	-0.140	-0.180	0.480
2020/01/31 02:00:07.6	95.390	-0.130	-0.190	0.540
2020/01/31 02:00:07.7	95.380	-0.120	-0.200	0.590
2020/01/31 02:00:07.8	95.380	-0.110	-0.220	0.650
2020/01/31 02:00:07.9	95.370	-0.100	-0.240	0.710
2020/01/31 02:00:08.0	95.360	-0.080	-0.250	0.780
2020/01/31 02:00:08.1	95.350	-0.060	-0.280	0.840
2020/01/31 02:00:08.2	95.340	-0.040	-0.300	0.900
2020/01/31 02:00:08.3	95.330	-0.020	-0.330	0.960
2020/01/31 02:00:08.4	95.330	-0.000	-0.350	1.020
2020/01/31 02:00:08.5	95.320	0.020	-0.380	1.080
2020/01/31 02:00:08.6	95.310	0.040	-0.410	1.140
2020/01/31 02:00:08.7	95.300	0.060	-0.440	1.200
2020/01/31 02:00:08.8	95.300	0.090	-0.460	1.250
2020/01/31 02:00:08.9	95.290	0.110	-0.490	1.310
2020/01/31 02:00:09.0	95.270	0.140	-0.520	1.370
2020/01/31 02:00:09.1	95.270	0.160	-0.540	1.420
2020/01/31 02:00:09.2	95.260	0.190	-0.560	1.470
2020/01/31 02:00:09.3	95.260	0.210	-0.580	1.520
2020/01/31 02:00:09.4	95.260	0.230	-0.600	1.560
2020/01/31 02:00:09.5	95.250	0.250	-0.610	1.600
2020/01/31 02:00:09.6	95.250	0.270	-0.610	1.640
2020/01/31 02:00:09.7	95.250	0.290	-0.620	1.680
2020/01/31 02:00:09.8	95.260	0.310	-0.610	1.710
2020/01/31 02:00:09.9	95.260	0.330	-0.610	1.730
2020/01/31 02:00:10.0	95.270	0.340	-0.590	1.760
2020/01/31 02:00:10.1	95.270	0.350	-0.570	1.780
2020/01/31 02:00:10.2	95.280	0.360	-0.550	1.800
2020/01/31 02:00:10.3	95.280	0.360	-0.520	1.810
2020/01/31 02:00:10.4	95.290	0.360	-0.480	1.820
2020/01/31 02:00:10.5	95.300	0.360	-0.440	1.830
2020/01/31 02:00:10.6	95.300	0.360	-0.400	1.830
2020/01/31 02:00:10.7	95.310	0.350	-0.350	1.830
2020/01/31 02:00:10.8	95.320	0.340	-0.290	1.830
2020/01/31 02:00:10.9	95.330	0.330	-0.240	1.820
2020/01/31 02:00:11.0	95.320	0.320	-0.170	1.810
2020/01/31 02:00:11.1	95.330	0.300	-0.110	1.810
2020/01/31 02:00:11.2	95.340	0.280	-0.040	1.790
2020/01/31 02:00:11.3	95.340	0.260	0.030	1.780
2020/01/31 02:00:11.4	95.350	0.230	0.110	1.770
2020/01/31 02:00:11.5	95.350	0.210	0.180	1.750
2020/01/31 02:00:11.6	95.350	0.180	0.250	1.740
2020/01/31 02:00:11.7	95.350	0.150	0.330	1.720
2020/01/31 02:00:11.8	95.350	0.110	0.400	1.700
2020/01/31 02:00:11.9	95.350	0.080	0.480	1.680
2020/01/31 02:00:12.0	95.350	0.050	0.550	1.660
2020/01/31 02:00:12.1	95.350	0.010	0.620	1.640
2020/01/31 02:00:12.2	95.350	-0.020	0.680	1.620
2020/01/31 02:00:12.3	95.350	-0.060	0.740	1.590
2020/01/31 02:00:12.4	95.340	-0.090	0.800	1.570
2020/01/31 02:00:12.5	95.340	-0.130	0.850	1.540
2020/01/31 02:00:12.6	95.340	-0.160	0.900	1.520
2020/01/31 02:00:12.7	95.330	-0.200	0.940	1.490
2020/01/31 02:00:12.8	95.330	-0.230	0.980	1.460
2020/01/31 02:00:12.9	95.330	-0.260	1.000	1.430
2020/01/31 02:00:13.0	95.320	-0.290	1.020	1.390
2020/01/31 02:00:13.1	95.320	-0.320	1.040	1.360
2020/01/31 02:00:13.2	95.320	-0.340	1.040	1.320
2020/01/31 02:00:13.3	95.320	-0.370	1.030	1.280
2020/01/31 02:00:13.4	95.320	-0.390	1.020	1.230
2020/01/31 02:00:13.5	95.320	-0.410	1.000	1.190
2020/01/31 02:00:13.6	95.320	-0.430	0.960	1.140
2020/01/31 02:00:13.7	95.330	-0.440	0.920	1.080
2020/01/31 02:00:13.8	95.330	-0.450	0.870	1.030
2020/01/31 02:00:13.9	95.330	-0.460	0.810	0.970
2020/01/31 02:00:14.0	95.340	-0.460	0.730	0.910
2020/01/31 02:00:14.1	95.340	-0.460	0.650	0.850
2020/01/31 02:00:14.2	95.350	-0.460	0.570	0.780
2020/01/31 02:00:14.3	95.360	-0.450	0.480	0.710
2020/01/31 02:00:14.4	95.360	-0.440	0.370	0.650
2020/01/31 02:00:14.5	95.370	-0.430	0.270	0.580
2020/01/31 02:00:14.6	95.380	-0.410	0.160	0.500
2020/01/31 02:00:14.7	95.380	-0.390	0.040	0.430
2020/01/31 02:00:14.8	95.390	-0.370	-0.080	0.360
2020/01/31 02:00:14.9	95.400	-0.350	-0.200	0.290
2020/01/31 02:00:15.0	95.420	-0.320	-0.320	0.230
2020/01/31 02:00:15.1	95.430	-0.290	-0.440	0.160
2020/01/31 02:00:15.2	95.430	-0.260	-0.560	0.090
2020/01/31 02:00:15.3	95.440	-0.230	-0.680	0.030
2020/01/31 02:00:15.4	95.440	-0.190	-0.800	-0.030
2020/01/31 02:00:15.5	95.450	-0.160	-0.910	-0.090
2020/01/31 02:00:15.6	95.450	-0.120	-1.020	-0.140
2020/01/31 02:00:15.7	95.460	-0.090	-1.120	-0.190
2020/01/31 02:00:15.8	95.460	-0.050	-1.210	-0.230
2020/01/31 02:00:15.9	95.460	-0.020	-1.290	-0.270
2020/01/31 02:00:16.0	95.460	0.010	-1.380	-0.290
2020/01/31 02:00:16.1	95.460	0.050	-1.440	-0.320
2020/01/31 02:00:16.2	95.460	0.080	-1.500	-0.340
2020/01/31 02:00:16.3	95.460	0.110	-1.540	-0.350
2020/01/31 02:00:16.4	95.460	0.130	-1.580	-0.360
2020/01/31 02:00:16.5	95.450	0.160	-1.600	-0.360
2020/01/31 02:00:16.6	95.450	0.180	-1.610	-0.350
2020/01/31 02:00:16.7	95.450	0.200	-1.610	-0.340
2020/01/31 02:00:16.8	95.440	0.210	-1.600	-0.330
2020/01/31 02:00:16.9	95.430	0.220	-1.580	-0.310
2020/01/31 02:00:17.0	95.430	0.230	-1.540	-0.270
2020/01/31 02:00:17.1	95.420	0.230	-1.500	-0.240
2020/01/31 02:00:17.2	95.410	0.240	-1.440	-0.210
2020/01/31 02:00:17.3	95.400	0.230	-1.380	-0.160
2020/01/31 02:00:17.4	95.390	0.230	-1.310	-0.120
2020/01/31 02:00:17.5	95.380	0.220	-1.230	-0.070
2020/01/31 02:00:17.6	95.370	0.210	-1.140	-0.020
2020/01/31 02:00:17.7	95.360	0.190	-1.050	0.030
2020/01/31 02:00:17.8	95.350	0.170	-0.950	0.090
2020/01/31 02:00:17.9	95.340	0.160	-0.840	0.150
2020/01/31 02:00:18.0	95.340	0.130	-0.730	0.210
2020/01/31 02:00:18.1	95.320	0.110	-0.620	0.270
2020/01/31 02:00:18.2	95.310	0.090	-0.510	0.330
2020/01/31 02:00:18.3	95.300	0.060	-0.400	0.390
2020/01/31 02:00:18.4	95.280	0.040	-0.290	0.440
2020/01/31 02:00:18.5	95.270	0.010	-0.180	0.500
2020/01/31 02:00:18.6	95.250	-0.010	-0.080	0.550
2020/01/31 02:00:18.7	95.230	-0.040	0.030	0.600
2020/01/31 02:00:18.8	95.220	-0.060	0.120	0.650
2020/01/31 02:00:18.9	95.200	-0.080	0.220	0.690
2020/01/31 02:00:19.0	95.210	-0.100	0.310	0.730
2020/01/31 02:00:19.1	95.190	-0.110	0.390	0.770
2020/01/31 02:00:19.2	95.180	-0.130	0.460	0.800
2020/01/31 02:00:19.3	95.170	-0.140	0.530	0.820
2020/01/31 02:00:19.4	95.150	-0.150	0.590	0.840
2020/01/31 02:00:19.5	95.140	-0.150	0.640	0.860
2020/01/31 02:00:19.6	95.130	-0.160	0.680	0.870
2020/01/31 02:00:19.7	95.120	-0.150	0.720	0.880
2020/01/31 02:00:19.8	95.110	-0.150	0.740	0.880
2020/01/31 02:00:19.9	95.100	-0.140	0.760	0.880
2020/01/31 02:00:20.0	95.110	-0.130	0.760	0.880
2020/01/31 02:00:20.1	95.100	-0.110	0.760	0.880
2020/01/31 02:00:20.2	95.090	-0.090	0.760	0.880
2020/01/31 02:00:20.3	95.090	-0.070	0.740	0.870
2020/01/31 02:00:20.4	95.080	-0.050	0.710	0.860
2020/01/31 02:00:20.5	95.080	-0.020	0.680	0.860
2020/01/31 02:00:20.6	95.070	0.010	0.640	0.850
2020/01/31 02:00:20.7	95.070	0.040	0.600	0.850
2020/01/31 02:00:20.8	95.070	0.070	0.550	0.840
2020/01/31 02:00:20.9	95.060	0.110	0.500	0.840
2020/01/31 02:00:21.0	95.060	0.140	0.440	0.830
2020/01/31 02:00:21.1	95.060	0.180	0.380	0.830
2020/01/31 02:00:21.2	95.060	0.210	0.310	0.830
2020/01/31 02:00:21.3	95.060	0.240	0.250	0.840
2020/01/31 02:00:21.4	95.060	0.280	0.180	0.840
2020/01/31 02:00:21.5	95.060	0.310	0.110	0.850
2020/01/31 02:00:21.6	95.060	0.340	0.040	0.850
2020/01/31 02:00:21.7	95.070	0.370	-0.030	0.860
2020/01/31 02:00:21.8	95.070	0.390	-0.090	0.870
2020/01/31 02:00:21.9	95.080	0.420	-0.160	0.870
2020/01/31 02:00:22.0	95.080	0.440	-0.220	0.880
2020/01/31 02:00:22.1	95.090	0.460	-0.280	0.890
2020/01/31 02:00:22.2	95.100	0.470	-0.330	0.900
2020/01/31 02:00:22.3	95.110	0.480	-0.390	0.900
2020/01/31 02:00:22.4	95.110	0.490	-0.440	0.910
2020/01/31 02:00:22.5	95.120	0.500	-0.480	0.910
2020/01/31 02:00:22.6	95.130	0.500	-0.520	0.910
2020/01/31 02:00:22.7	95.140	0.490	-0.550	0.910
2020/01/31 02:00:22.8	95.150	0.490	-0.580	0.910
2020/01/31 02:00:22.9	95.150	0.480	-0.610	0.910
2020/01/31 02:00:23.0	95.150	0.470	-0.630	0.910
2020/01/31 02:00:23.1	95.160	0.450	-0.640	0.910
2020/01/31 02:00:23.2	95.160	0.430	-0.650	0.900
2020/01/31 02:00:23.3	95.170	0.410	-0.650	0.900
2020/01/31 02:00:23.4	95.170	0.380	-0.650	0.890
2020/01/31 02:00:23.5	95.180	0.360	-0.640	0.880
2020/01/31 02:00:23.6	95.180	0.330	-0.620	0.880
2020/01/31 02:00:23.7	95.180	0.290	-0.600	0.870
2020/01/31 02:00:23.8	95.190	0.260	-0.570	0.860
2020/01/31 02:00:23.9	95.190	0.220	-0.540	0.850
2020/01/31 02:00:24.0	95.190	0.180	-0.500	0.840
2020/01/31 02:00:24.1	95.190	0.140	-0.460	0.830
2020/01/31 02:00:24.2	95.200	0.100	-0.420	0.820
2020/01/31 02:00:24.3	95.200	0.060	-0.370	0.820
2020/01/31 02:00:24.4	95.200	0.010	-0.320	0.810
2020/01/31 02:00:24.5	95.210	-0.030	-0.260	0.800
2020/01/31 02:00:24.6	95.210	-0.070	-0.200	0.800
2020/01/31 02:00:24.7	95.220	-0.120	-0.150	0.800
2020/01/31 02:00:24.8	95.220	-0.160	-0.090	0.790
2020/01/31 02:00:24.9	95.230	-0.200	-0.030	0.790
2020/01/31 02:00:25.0	95.230	-0.250	0.040	0.790
2020/01/31 02:00:25.1	95.240	-0.290	0.090	0.800
2020/01/31 02:00:25.2	95.240	-0.330	0.150	0.800
2020/01/31 02:00:25.3	95.240	-0.360	0.210	0.810
2020/01/31 02:00:25.4	95.250	-0.400	0.260	0.820
2020/01/31 02:00:25.5	95.250	-0.430	0.310	0.840
2020/01/31 02:00:25.6	95.250	-0.460	0.350	0.850
2020/01/31 02:00:25.7	95.250	-0.490	0.390	0.870
2020/01/31 02:00:25.8	95.250	-0.510	0.430	0.890
2020/01/31 02:00:25.9	95.250	-0.540	0.460	0.910
2020/01/31 02:00:26.0	95.260	-0.550	0.490	0.940
2020/01/31 02:00:26.1	95.260	-0.570	0.510	0.970
2020/01/31 02:00:26.2	95.260	-0.580	0.520	1.000
2020/01/31 02:00:26.3	95.260	-0.590	0.520	1.030
2020/01/31 02:00:26.4	95.260	-0.590	0.520	1.060
2020/01/31 02:00:26.5	95.250	-0.590	0.520	1.090
2020/01/31 02:00:26.6	95.250	-0.590	0.500	1.120
2020/01/31 02:00:26.7	95.240	-0.580	0.480	1.160
2020/01/31 02:00:26.8	95.240	-0.570	0.450	1.190
2020/01/31 02:00:26.9	95.230	-0.560	0.420	1.230
2020/01/31 02:00:27.0	95.220	-0.540	0.380	1.270
2020/01/31 02:00:27.1	95.220	-0.520	0.330	1.300
2020/01/31 02:00:27.2	95.210	-0.500	0.280	1.340
2020/01/31 02:00:27.3	95.200	-0.470	0.230	1.370
2020/01/31 02:00:27.4	95.190	-0.440	0.170	1.410
2020/01/31 02:00:27.5	95.190	-0.410	0.100	1.440
2020/01/31 02:00:27.6	95.180	-0.380	0.040	1.470
2020/01/31 02:00:27.7	95.170	-0.340	-0.030	1.500
2020/01/31 02:00:27.8	95.150	-0.310	-0.100	1.530
2020/01/31 02:00:27.9	95.140	-0.270	-0.170	1.550
2020/01/31 02:00:28.0	95.120	-0.230	-0.240	1.580
2020/01/31 02:00:28.1	95.110	-0.190	-0.310	1.600
2020/01/31 02:00:28.2	95.100	-0.150	-0.380	1.610
2020/01/31 02:00:28.3	95.090	-0.120	-0.440	1.620
2020/01/31 02:00:28.4	95.070	-0.080	-0.500	1.630
2020/01/31 02:00:28.5	95.060	-0.040	-0.570	1.630
2020/01/31 02:00:28.6	95.050	-0.010	-0.620	1.630
2020/01/31 02:00:28.7	95.040	0.030	-0.670	1.630
2020/01/31 02:00:28.8	95.020	0.060	-0.720	1.620
2020/01/31 02:00:28.9	95.010	0.090	-0.760	1.600
2020/01/31 02:00:29.0	95.000	0.120	-0.800	1.590
2020/01/31 02:00:29.1	94.990	0.150	-0.830	1.570
2020/01/31 02:00:29.2	94.980	0.170	-0.860	1.550
2020/01/31 02:00:29.3	94.970	0.200	-0.880	1.520
2020/01/31 02:00:29.4	94.960	0.220	-0.890	1.490
2020/01/31 02:00:29.5	94.950	0.230	-0.890	1.460
2020/01/31 02:00:29.6	94.940	0.250	-0.890	1.430
2020/01/31 02:00:29.7	94.930	0.260	-0.890	1.390
2020/01/31 02:00:29.8	94.920	0.270	-0.870	1.350
2020/01/31 02:00:29.9	94.920	0.280	-0.850	1.320
2020/01/31 02:00:30.0	94.920	0.280	-0.830	1.280
2020/01/31 02:00:30.1	94.920	0.290	-0.800	1.240
2020/01/31 02:00:30.2	94.920	0.290	-0.760	1.190
2020/01/31 02:00:30.3	94.920	0.280	-0.720	1.150
2020/01/31 02:00:30.4	94.920	0.280	-0.680	1.110
2020/01/31 02:00:30.5	94.930	0.270	-0.630	1.060
2020/01/31 02:00:30.6	94.940	0.260	-0.580	1.020
2020/01/31 02:00:30.7	94.950	0.250	-0.530	0.980
2020/01/31 02:00:30.8	94.960	0.240	-0.470	0.930
2020/01/31 02:00:30.9	94.970	0.230	-0.420	0.890
2020/01/31 02:00:31.0	94.990	0.210	-0.360	0.840
2020/01/31 02:00:31.1	95.010	0.200	-0.300	0.800
2020/01/31 02:00:31.2	95.030	0.180	-0.240	0.760
2020/01/31 02:00:31.3	95.050	0.170	-0.190	0.710
2020/01/31 02:00:31.4	95.070	0.150	-0.130	0.670
2020/01/31 02:00:31.5	95.090	0.130	-0.080	0.630
2020/01/31 02:00:31.6	95.110	0.110	-0.030	0.600
2020/01/31 02:00:31.7	95.130	0.100	0.020	0.560
2020/01/31 02:00:31.8	95.150	0.080	0.070	0.520
2020/01/31 02:00:31.9	95.160	0.060	0.110	0.490
2020/01/31 02:00:32.0	95.180	0.040	0.160	0.460
2020/01/31 02:00:32.1	95.200	0.030	0.190	0.430
2020/01/31 02:00:32.2	95.210	0.010	0.230	0.400
2020/01/31 02:00:32.3	95.230	-0.000	0.260	0.370
2020/01/31 02:00:32.4	95.240	-0.010	0.280	0.350
2020/01/31 02:00:32.5	95.250	-0.030	0.300	0.330
2020/01/31 02:00:32.6	95.260	-0.040	0.320	0.310
2020/01/31 02:00:32.7	95.260	-0.050	0.330	0.290
2020/01/31 02:00:32.8	95.260	-0.050	0.340	0.280
2020/01/31 02:00:32.9	95.260	-0.060	0.350	0.260
2020/01/31 02:00:33.0	95.260	-0.060	0.350	0.250
2020/01/31 02:00:33.1	95.250	-0.070	0.350	0.240
2020/01/31 02:00:33.2	95.250	-0.070	0.340	0.230
2020/01/31 02:00:33.3	95.240	-0.070	0.330	0.230
2020/01/31 02:00:33.4	95.230	-0.070	0.320	0.220
2020/01/31 02:00:33.5	95.220	-0.070	0.310	0.220
2020/01/31 02:00:33.6	95.200	-0.060	0.290	0.220
2020/01/31 02:00:33.7	95.190	-0.060	0.270	0.220
2020/01/31 02:00:33.8	95.170	-0.050	0.250	0.210
2020/01/31 02:00:33.9	95.160	-0.040	0.220	0.210
2020/01/31 02:00:34.0	95.160	-0.030	0.190	0.220
2020/01/31 02:00:34.1	95.150	-0.020	0.170	0.220
2020/01/31 02:00:34.2	95.130	-0.010	0.140	0.220
2020/01/31 02:00:34.3	95.110	0.000	0.100	0.220
2020/01/31 02:00:34.4	95.090	0.010	0.070	0.230
2020/01/31 02:00:34.5	95.080	0.030	0.040	0.230
2020/01/31 02:00:34.6	95.060	0.040	0.000	0.230
2020/01/31 02:00:34.7	95.040	0.050	-0.030	0.240
2020/01/31 02:00:34.8	95.030	0.070	-0.070	0.240
2020/01/31 02:00:34.9	95.010	0.080	-0.110	0.250
2020/01/31 02:00:35.0	95.000	0.100	-0.140	0.250
2020/01/31 02:00:35.1	94.990	0.110	-0.180	0.260
2020/01/31 02:00:35.2	94.980	0.120	-0.210	0.270
2020/01/31 02:00:35.3	94.970	0.140	-0.250	0.280
2020/01/31 02:00:35.4	94.960	0.150	-0.280	0.290
2020/01/31 02:00:35.5	94.960	0.160	-0.310	0.300
2020/01/31 02:00:35.6	94.950	0.170	-0.350	0.310
2020/01/31 02:00:35.7	94.950	0.180	-0.380	0.320
2020/01/31 02:00:35.8	94.950	0.180	-0.400	0.340
2020/01/31 02:00:35.9	94.950	0.190	-0.430	0.350
2020/01/31 02:00:36.0	94.940	0.200	-0.460	0.370
2020/01/31 02:00:36.1	94.940	0.200	-0.480	0.390
2020/01/31 02:00:36.2	94.940	0.200	-0.500	0.410
2020/01/31 02:00:36.3	94.950	0.200	-0.520	0.430
2020/01/31 02:00:36.4	94.960	0.200	-0.530	0.450
2020/01/31 02:00:36.5	94.970	0.200	-0.550	0.470
2020/01/31 02:00:36.6	94.980	0.200	-0.560	0.490
2020/01/31 02:00:36.7	95.000	0.190	-0.570	0.510
2020/01/31 02:00:36.8	95.010	0.190	-0.570	0.530
2020/01/31 02:00:36.9	95.020	0.180	-0.570	0.540
2020/01/31 02:00:37.0	95.040	0.170	-0.570	0.570
2020/01/31 02:00:37.1	95.060	0.160	-0.570	0.590
2020/01/31 02:00:37.2	95.080	0.150	-0.560	0.610
2020/01/31 02:00:37.3	95.100	0.140	-0.550	0.620
2020/01/31 02:00:37.4	95.110	0.120	-0.540	0.640
2020/01/31 02:00:37.5	95.130	0.110	-0.520	0.650
2020/01/31 02:00:37.6	95.150	0.100	-0.500	0.670
2020/01/31 02:00:37.7	95.170	0.080	-0.480	0.680
2020/01/31 02:00:37.8	95.190	0.070	-0.450	0.690
2020/01/31 02:00:37.9	95.210	0.050	-0.420	0.710
2020/01/31 02:00:38.0	95.220	0.040	-0.390	0.720
2020/01/31 02:00:38.1	95.240	0.020	-0.350	0.730
2020/01/31 02:00:38.2	95.250	0.010	-0.310	0.740
2020/01/31 02:00:38.3	95.260	-0.010	-0.270	0.750
2020/01/31 02:00:38.4	95.280	-0.020	-0.230	0.770
2020/01/31 02:00:38.5	95.290	-0.040	-0.190	0.780
2020/01/31 02:00:38.6	95.290	-0.050	-0.140	0.790
2020/01/31 02:00:38.7	95.300	-0.060	-0.090	0.810
2020/01/31 02:00:38.8	95.310	-0.070	-0.040	0.820
2020/01/31 02:00:38.9	95.310	-0.090	0.000	0.840
2020/01/31 02:00:39.0	95.310	-0.100	0.060	0.860
2020/01/31 02:00:39.1	95.310	-0.110	0.100	0.870
2020/01/31 02:00:39.2	95.310	-0.120	0.150	0.890
2020/01/31 02:00:39.3	95.310	-0.130	0.190	0.910
2020/01/31 02:00:39.4	95.310	-0.130	0.240	0.920
2020/01/31 02:00:39.5	95.300	-0.140	0.280	0.940
2020/01/31 02:00:39.6	95.300	-0.140	0.310	0.960
2020/01/31 02:00:39.7	95.290	-0.150	0.350	0.970
2020/01/31 02:00:39.8	95.290	-0.150	0.380	0.990
2020/01/31 02:00:39.9	95.280	-0.150	0.400	1.010
2020/01/31 02:00:40.0	95.270	-0.150	0.420	1.030
2020/01/31 02:00:40.1	95.270	-0.150	0.430	1.050
2020/01/31 02:00:40.2	95.260	-0.150	0.440	1.060
2020/01/31 02:00:40.3	95.250	-0.150	0.450	1.080
2020/01/31 02:00:40.4	95.240	-0.150	0.450	1.090
2020/01/31 02:00:40.5	95.230	-0.140	0.440	1.110
2020/01/31 02:00:40.6	95.220	-0.130	0.430	1.120
2020/01/31 02:00:40.7	95.220	-0.130	0.420	1.140
2020/01/31 02:00:40.8	95.210	-0.120	0.400	1.150
2020/01/31 02:00:40.9	95.200	-0.110	0.370	1.160
2020/01/31 02:00:41.0	95.190	-0.100	0.340	1.170
2020/01/31 02:00:41.1	95.180	-0.090	0.300	1.180
2020/01/31 02:00:41.2	95.180	-0.080	0.260	1.190
2020/01/31 02:00:41.3	95.180	-0.060	0.220	1.200
2020/01/31 02:00:41.4	95.170	-0.050	0.170	1.200
2020/01/31 02:00:41.5	95.170	-0.040	0.110	1.200
2020/01/31 02:00:41.6	95.180	-0.020	0.060	1.200
2020/01/31 02:00:41.7	95.180	-0.010	0.000	1.200
2020/01/31 02:00:41.8	95.180	0.010	-0.060	1.200
2020/01/31 02:00:41.9	95.190	0.020	-0.120	1.200
2020/01/31 02:00:42.0	95.200	0.040	-0.180	1.190
2020/01/31 02:00:42.1	95.210	0.050	-0.250	1.190
2020/01/31 02:00:42.2	95.210	0.070	-0.310	1.180
2020/01/31 02:00:42.3	95.220	0.080	-0.370	1.180
2020/01/31 02:00:42.4	95.230	0.090	-0.430	1.170
2020/01/31 02:00:42.5	95.240	0.110	-0.490	1.160
2020/01/31 02:00:42.6	95.250	0.120	-0.540	1.160
2020/01/31 02:00:42.7	95.260	0.130	-0.600	1.150
2020/01/31 02:00:42.8	95.260	0.140	-0.650	1.140
2020/01/31 02:00:42.9	95.270	0.150	-0.690	1.140
2020/01/31 02:00:43.0	95.280	0.160	-0.740	1.130
2020/01/31 02:00:43.1	95.290	0.170	-0.770	1.130
2020/01/31 02:00:43.2	95.290	0.180	-0.800	1.120
2020/01/31 02:00:43.3	95.300	0.190	-0.830	1.120
2020/01/31 02:00:43.4	95.300	0.190	-0.850	1.110
2020/01/31 02:00:43.5	95.300	0.200	-0.860	1.110
2020/01/31 02:00:43.6	95.300	0.200	-0.870	1.100
2020/01/31 02:00:43.7	95.300	0.200	-0.880	1.100
2020/01/31 02:00:43.8	95.300	0.200	-0.880	1.100
2020/01/31 02:00:43.9	95.300	0.200	-0.870	1.090
2020/01/31 02:00:44.0	95.290	0.200	-0.850	1.090
2020/01/31 02:00:44.1	95.290	0.190	-0.830	1.090
2020/01/31 02:00:44.2	95.280	0.190	-0.810	1.090
2020/01/31 02:00:44.3	95.280	0.180	-0.780	1.080
2020/01/31 02:00:44.4	95.270	0.170	-0.740	1.080
2020/01/31 02:00:44.5	95.270	0.160	-0.700	1.070
2020/01/31 02:00:44.6	95.270	0.150	-0.660	1.070
2020/01/31 02:00:44.7	95.270	0.130	-0.610	1.060
2020/01/31 02:00:44.8	95.260	0.120	-0.560	1.050
2020/01/31 02:00:44.9	95.260	0.100	-0.500	1.050
2020/01/31 02:00:45.0	95.260	0.080	-0.440	1.040
2020/01/31 02:00:45.1	95.250	0.060	-0.380	1.030
2020/01/31 02:00:45.2	95.250	0.040	-0.310	1.030
2020/01/31 02:00:45.3	95.250	0.020	-0.240	1.020
2020/01/31 02:00:45.4	95.240	-0.000	-0.180	1.010
2020/01/31 02:00:45.5	95.240	-0.030	-0.110	1.000
2020/01/31 02:00:45.6	95.230	-0.050	-0.040	0.990
2020/01/31 02:00:45.7	95.230	-0.080	0.030	0.990
2020/01/31 02:00:45.8	95.230	-0.110	0.100	0.980
2020/01/31 02:00:45.9	95.220	-0.130	0.170	0.970
2020/01/31 02:00:46.0	95.230	-0.160	0.240	0.960
2020/01/31 02:00:46.1	95.220	-0.190	0.300	0.950
2020/01/31 02:00:46.2	95.220	-0.220	0.360	0.940
2020/01/31 02:00:46.3	95.220	-0.240	0.420	0.930
2020/01/31 02:00:46.4	95.220	-0.270	0.480	0.920
2020/01/31 02:00:46.5	95.220	-0.300	0.530	0.910
2020/01/31 02:00:46.6	95.210	-0.320	0.570	0.900
2020/01/31 02:00:46.7	95.210	-0.350	0.610	0.890
2020/01/31 02:00:46.8	95.210	-0.370	0.640	0.870
2020/01/31 02:00:46.9	95.210	-0.390	0.670	0.860
2020/01/31 02:00:47.0	95.210	-0.410	0.690	0.850
2020/01/31 02:00:47.1	95.210	-0.420	0.710	0.830
2020/01/31 02:00:47.2	95.210	-0.440	0.710	0.820
2020/01/31 02:00:47.3	95.220	-0.450	0.710	0.800
2020/01/31 02:00:47.4	95.220	-0.460	0.710	0.780
2020/01/31 02:00:47.5	95.220	-0.470	0.690	0.760
2020/01/31 02:00:47.6	95.220	-0.470	0.670	0.740
2020/01/31 02:00:47.7	95.230	-0.470	0.640	0.720
2020/01/31 02:00:47.8	95.230	-0.470	0.610	0.700
2020/01/31 02:00:47.9	95.240	-0.460	0.570	0.670
2020/01/31 02:00:48.0	95.240	-0.450	0.520	0.650
2020/01/31 02:00:48.1	95.250	-0.440	0.460	0.630
2020/01/31 02:00:48.2	95.250	-0.420	0.400	0.600
2020/01/31 02:00:48.3	95.260	-0.400	0.340	0.580
2020/01/31 02:00:48.4	95.270	-0.380	0.270	0.550
2020/01/31 02:00:48.5	95.280	-0.350	0.190	0.520
2020/01/31 02:00:48.6	95.290	-0.320	0.120	0.490
2020/01/31 02:00:48.7	95.300	-0.290	0.040	0.460
2020/01/31 02:00:48.8	95.310	-0.260	-0.050	0.430
2020/01/31 02:00:48.9	95.330	-0.220	-0.130	0.400
2020/01/31 02:00:49.0	95.340	-0.180	-0.220	0.370
2020/01/31 02:00:49.1	95.350	-0.140	-0.300	0.340
2020/01/31 02:00:49.2	95.370	-0.100	-0.380	0.310
2020/01/31 02:00:49.3	95.380	-0.060	-0.470	0.290
2020/01/31 02:00:49.4	95.400	-0.020	-0.540	0.260
2020/01/31 02:00:49.5	95.410	0.030	-0.620	0.240
2020/01/31 02:00:49.6	95.430	0.070	-0.690	0.220
2020/01/31 02:00:49.7	95.440	0.110	-0.760	0.200
2020/01/31 02:00:49.8	95.450	0.150	-0.820	0.190
2020/01/31 02:00:49.9	95.460	0.200	-0.880	0.170
2020/01/31 02:00:50.0	95.480	0.240	-0.920	0.170
2020/01/31 02:00:50.1	95.490	0.270	-0.970	0.160
2020/01/31 02:00:50.2	95.490	0.310	-1.000	0.160
2020/01/31 02:00:50.3	95.500	0.350	-1.030	0.160
2020/01/31 02:00:50.4	95.510	0.380	-1.060	0.160
2020/01/31 02:00:50.5	95.510	0.410	-1.070	0.170
2020/01/31 02:00:50.6	95.510	0.440	-1.080	0.170
2020/01/31 02:00:50.7	95.510	0.460	-1.070	0.180
2020/01/31 02:00:50.8	95.510	0.480	-1.060	0.200
2020/01/31 02:00:50.9	95.500	0.500	-1.040	0.210
2020/01/31 02:00:51.0	95.490	0.510	-1.020	0.240
2020/01/31 02:00:51.1	95.480	0.520	-0.990	0.260
2020/01/31 02:00:51.2	95.480	0.530	-0.950	0.280
2020/01/31 02:00:51.3	95.470	0.530	-0.900	0.300
2020/01/31 02:00:51.4	95.450	0.530	-0.840	0.330
2020/01/31 02:00:51.5	95.440	0.530	-0.780	0.350
2020/01/31 02:00:51.6	95.430	0.520	-0.720	0.380
2020/01/31 02:00:51.7	95.420	0.510	-0.650	0.410
2020/01/31 02:00:51.8	95.400	0.490	-0.570	0.430
2020/01/31 02:00:51.9	95.390	0.470	-0.500	0.460
2020/01/31 02:00:52.0	95.380	0.450	-0.410	0.490
2020/01/31 02:00:52.1	95.370	0.430	-0.330	0.520
2020/01/31 02:00:52.2	95.350	0.400	-0.240	0.540
2020/01/31 02:00:52.3	95.340	0.370	-0.160	0.570
2020/01/31 02:00:52.4	95.330	0.340	-0.080	0.600
2020/01/31 02:00:52.5	95.310	0.310	0.000	0.620
2020/01/31 02:00:52.6	95.300	0.270	0.080	0.640
2020/01/31 02:00:52.7	95.280	0.240	0.150	0.670
2020/01/31 02:00:52.8	95.270	0.200	0.230	0.690
2020/01/31 02:00:52.9	95.260	0.160	0.290	0.710
2020/01/31 02:00:53.0	95.240	0.130	0.350	0.740
2020/01/31 02:00:53.1	95.220	0.090	0.410	0.760
2020/01/31 02:00:53.2	95.210	0.060	0.460	0.770
2020/01/31 02:00:53.3	95.200	0.020	0.510	0.790
2020/01/31 02:00:53.4	95.180	-0.010	0.550	0.810
2020/01/31 02:00:53.5	95.170	-0.040	0.580	0.830
2020/01/31 02:00:53.6	95.160	-0.070	0.610	0.840
2020/01/31 02:00:53.7	95.140	-0.100	0.630	0.860
2020/01/31 02:00:53.8	95.130	-0.120	0.640	0.870
2020/01/31 02:00:53.9	95.120	-0.140	0.640	0.890
2020/01/31 02:00:54.0	95.100	-0.160	0.650	0.900
2020/01/31 02:00:54.1	95.090	-0.180	0.640	0.920
2020/01/31 02:00:54.2	95.080	-0.190	0.620	0.930
2020/01/31 02:00:54.3	95.070	-0.200	0.600	0.940
2020/01/31 02:00:54.4	95.050	-0.210	0.570	0.950
2020/01/31 02:00:54.5	95.050	-0.210	0.530	0.960
2020/01/31 02:00:54.6	95.040	-0.210	0.490	0.970
2020/01/31 02:00:54.7	95.030	-0.210	0.440	0.970
2020/01/31 02:00:54.8	95.020	-0.210	0.390	0.970
2020/01/31 02:00:54.9	95.020	-0.200	0.330	0.970
2020/01/31 02:00:55.0	95.020	-0.190	0.270	0.970
2020/01/31 02:00:55.1	95.020	-0.180	0.200	0.970
2020/01/31 02:00:55.2	95.030	-0.160	0.140	0.960
2020/01/31 02:00:55.3	95.030	-0.150	0.070	0.950
2020/01/31 02:00:55.4	95.040	-0.130	0.000	0.930
2020/01/31 02:00:55.5	95.060	-0.110	-0.070	0.920
2020/01/31 02:00:55.6	95.070	-0.100	-0.140	0.900
2020/01/31 02:00:55.7	95.090	-0.080	-0.210	0.880
2020/01/31 02:00:55.8	95.110	-0.060	-0.280	0.860
2020/01/31 02:00:55.9	95.130	-0.040	-0.340	0.840
2020/01/31 02:00:56.0	95.160	-0.020	-0.400	0.820
2020/01/31 02:00:56.1	95.190	0.000	-0.460	0.800
2020/01/31 02:00:56.2	95.220	0.020	-0.520	0.780
2020/01/31 02:00:56.3	95.250	0.040	-0.570	0.760
2020/01/31 02:00:56.4	95.280	0.060	-0.610	0.740
2020/01/31 02:00:56.5	95.320	0.070	-0.650	0.720
2020/01/31 02:00:56.6	95.350	0.090	-0.690	0.710
2020/01/31 02:00:56.7	95.390	0.100	-0.720	0.690
2020/01/31 02:00:56.8	95.420	0.110	-0.740	0.680
2020/01/31 02:00:56.9	95.450	0.120	-0.760	0.670
2020/01/31 02:00:57.0	95.490	0.130	-0.780	0.670
2020/01/31 02:00:57.1	95.520	0.130	-0.780	0.670
2020/01/31 02:00:57.2	95.550	0.140	-0.780	0.660
2020/01/31 02:00:57.3	95.580	0.140	-0.770	0.660
2020/01/31 02:00:57.4	95.610	0.140	-0.760	0.670
2020/01/31 02:00:57.5	95.630	0.140	-0.740	0.670
2020/01/31 02:00:57.6	95.660	0.130	-0.720	0.680
2020/01/31 02:00:57.7	95.680	0.130	-0.690	0.690
2020/01/31 02:00:57.8	95.690	0.120	-0.660	0.700
2020/01/31 02:00:57.9	95.710	0.120	-0.630	0.720
2020/01/31 02:00:58.0	95.710	0.110	-0.580	0.730
2020/01/31 02:00:58.1	95.720	0.100	-0.540	0.750
2020/01/31 02:00:58.2	95.720	0.090	-0.500	0.770
2020/01/31 02:00:58.3	95.720	0.080	-0.450	0.790
2020/01/31 02:00:58.4	95.720	0.070	-0.400	0.810
2020/01/31 02:00:58.5	95.710	0.060	-0.340	0.830
2020/01/31 02:00:58.6	95.700	0.050	-0.290	0.850
2020/01/31 02:00:58.7	95.690	0.040	-0.240	0.870
2020/01/31 02:00:58.8	95.670	0.030	-0.180	0.890
2020/01/31 02:00:58.9	95.650	0.020	-0.130	0.920
2020/01/31 02:00:59.0	95.620	0.010	-0.070	0.940
2020/01/31 02:00:59.1	95.590	-0.000	-0.020	0.960
2020/01/31 02:00:59.2	95.570	-0.010	0.030	0.980
2020/01/31 02:00:59.3	95.540	-0.020	0.080	1.000
2020/01/31 02:00:59.4	95.510	-0.030	0.130	1.020
2020/01/31 02:00:59.5	95.490	-0.040	0.180	1.040
2020/01/31 02:00:59.6	95.460	-0.040	0.220	1.060
2020/01/31 02:00:59.7	95.430	-0.050	0.260	1.080
2020/01/31 02:00:59.8	95.400	-0.050	0.290	1.100
2020/01/31 02:00:59.9	95.370	-0.060	0.320	1.110
2020/01/31 02:01:00.0	95.350	-0.060	0.340	1.130
2020/01/31 02:01:00.1	95.320	-0.070	0.360	1.150
2020/01/31 02:01:00.2	95.300	-0.070	0.380	1.160
2020/01/31 02:01:00.3	95.270	-0.070	0.390	1.170
2020/01/31 02:01:00.4	95.250	-0.070	0.390	1.190
2020/01/31 02:01:00.5	95.230	-0.070	0.390	1.200
2020/01/31 02:01:00.6	95.210	-0.070	0.390	1.210
2020/01/31 02:01:00.7	95.190	-0.070	0.380	1.220
2020/01/31 02:01:00.8	95.170	-0.070	0.360	1.230
2020/01/31 02:01:00.9	95.160	-0.070	0.340	1.250
2020/01/31 02:01:01.0	95.140	-0.070	0.320	1.260
2020/01/31 02:01:01.1	95.130	-0.060	0.290	1.270
2020/01/31 02:01:01.2	95.120	-0.060	0.250	1.280
2020/01/31 02:01:01.3	95.110	-0.060	0.220	1.290
2020/01/31 02:01:01.4	95.100	-0.060	0.170	1.310
2020/01/31 02:01:01.5	95.090	-0.060	0.130	1.320
2020/01/31 02:01:01.6	95.080	-0.060	0.080	1.330
2020/01/31 02:01:01.7	95.080	-0.060	0.030	1.330
2020/01/31 02:01:01.8	95.080	-0.060	-0.020	1.340
2020/01/31 02:01:01.9	95.080	-0.060	-0.070	1.350
2020/01/31 02:01:02.0	95.070	-0.060	-0.130	1.350
2020/01/31 02:01:02.1	95.070	-0.060	-0.180	1.350
2020/01/31 02:01:02.2	95.080	-0.060	-0.230	1.350
2020/01/31 02:01:02.3	95.080	-0.070	-0.280	1.340
2020/01/31 02:01:02.4	95.090	-0.070	-0.330	1.330
2020/01/31 02:01:02.5	95.100	-0.080	-0.370	1.320
2020/01/31 02:01:02.6	95.110	-0.090	-0.410	1.300
2020/01/31 02:01:02.7	95.130	-0.100	-0.450	1.280
2020/01/31 02:01:02.8	95.140	-0.110	-0.490	1.250
2020/01/31 02:01:02.9	95.160	-0.120	-0.510	1.220
2020/01/31 02:01:03.0	95.180	-0.130	-0.540	1.190
2020/01/31 02:01:03.1	95.200	-0.140	-0.550	1.150
2020/01/31 02:01:03.2	95.230	-0.160	-0.570	1.120
2020/01/31 02:01:03.3	95.250	-0.170	-0.570	1.070
2020/01/31 02:01:03.4	95.280	-0.190	-0.570	1.030
2020/01/31 02:01:03.5	95.310	-0.200	-0.570	0.980
2020/01/31 02:01:03.6	95.340	-0.220	-0.560	0.940
2020/01/31 02:01:03.7	95.370	-0.230	-0.550	0.890
2020/01/31 02:01:03.8	95.400	-0.250	-0.530	0.840
2020/01/31 02:01:03.9	95.430	-0.260	-0.500	0.790
2020/01/31 02:01:04.0	95.470	-0.280	-0.470	0.750
2020/01/31 02:01:04.1	95.500	-0.290	-0.440	0.700
2020/01/31 02:01:04.2	95.530	-0.300	-0.400	0.650
2020/01/31 02:01:04.3	95.560	-0.320	-0.360	0.610
2020/01/31 02:01:04.4	95.580	-0.330	-0.320	0.560
2020/01/31 02:01:04.5	95.610	-0.330	-0.280	0.520
2020/01/31 02:01:04.6	95.630	-0.340	-0.230	0.490
2020/01/31 02:01:04.7	95.650	-0.350	-0.190	0.450
2020/01/31 02:01:04.8	95.670	-0.350	-0.140	0.420
2020/01/31 02:01:04.9	95.680	-0.350	-0.100	0.390
2020/01/31 02:01:05.0	95.700	-0.350	-0.060	0.370
2020/01/31 02:01:05.1	95.710	-0.350	-0.020	0.360
2020/01/31 02:01:05.2	95.710	-0.340	0.020	0.340
2020/01/31 02:01:05.3	95.720	-0.330	0.050	0.340
2020/01/31 02:01:05.4	95.720	-0.320	0.080	0.330
2020/01/31 02:01:05.5	95.710	-0.310	0.110	0.330
2020/01/31 02:01:05.6	95.710	-0.300	0.130	0.340
2020/01/31 02:01:05.7	95.700	-0.280	0.150	0.350
2020/01/31 02:01:05.8	95.690	-0.260	0.160	0.370
2020/01/31 02:01:05.9	95.680	-0.240	0.160	0.390
2020/01/31 02:01:06.0	95.670	-0.210	0.170	0.420
2020/01/31 02:01:06.1	95.660	-0.190	0.160	0.440
2020/01/31 02:01:06.2	95.640	-0.160	0.160	0.470
2020/01/31 02:01:06.3	95.620	-0.140	0.150	0.510
2020/01/31 02:01:06.4	95.600	-0.110	0.130	0.540
2020/01/31 02:01:06.5	95.580	-0.080	0.110	0.570
2020/01/31 02:01:06.6	95.560	-0.050	0.090	0.610
2020/01/31 02:01:06.7	95.530	-0.020	0.070	0.650
2020/01/31 02:01:06.8	95.510	0.000	0.040	0.680
2020/01/31 02:01:06.9	95.490	0.030	0.010	0.720
2020/01/31 02:01:07.0	95.480	0.060	-0.020	0.760
2020/01/31 02:01:07.1	95.460	0.080	-0.050	0.790
2020/01/31 02:01:07.2	95.440	0.110	-0.080	0.820
2020/01/31 02:01:07.3	95.420	0.130	-0.110	0.850
2020/01/31 02:01:07.4	95.400	0.150	-0.150	0.870
2020/01/31 02:01:07.5	95.380	0.170	-0.180	0.890
2020/01/31 02:01:07.6	95.360	0.190	-0.200	0.910
2020/01/31 02:01:07.7	95.340	0.200	-0.230	0.930
2020/01/31 02:01:07.8	95.330	0.220	-0.260	0.940
2020/01/31 02:01:07.9	95.320	0.230	-0.280	0.950
2020/01/31 02:01:08.0	95.310	0.230	-0.300	0.950
2020/01/31 02:01:08.1	95.300	0.240	-0.310	0.950
2020/01/31 02:01:08.2	95.290	0.250	-0.320	0.950
2020/01/31 02:01:08.3	95.290	0.250	-0.330	0.950
2020/01/31 02:01:08.4	95.280	0.250	-0.340	0.940
2020/01/31 02:01:08.5	95.280	0.250	-0.340	0.920
2020/01/31 02:01:08.6	95.280	0.240	-0.340	0.910
2020/01/31 02:01:08.7	95.280	0.240	-0.340	0.890
2020/01/31 02:01:08.8	95.280	0.240	-0.340	0.870
2020/01/31 02:01:08.9	95.290	0.230	-0.330	0.850
2020/01/31 02:01:09.0	95.290	0.220	-0.310	0.820
2020/01/31 02:01:09.1	95.300	0.220	-0.300	0.790
2020/01/31 02:01:09.2	95.310	0.210	-0.290	0.770
2020/01/31 02:01:09.3	95.320	0.200	-0.280	0.740
2020/01/31 02:01:09.4	95.340	0.190	-0.270	0.700
2020/01/31 02:01:09.5	95.350	0.190	-0.260	0.670
2020/01/31 02:01:09.6	95.370	0.180	-0.250	0.640
2020/01/31 02:01:09.7	95.380	0.180	-0.240	0.610
2020/01/31 02:01:09.8	95.400	0.180	-0.230	0.580
2020/01/31 02:01:09.9	95.420	0.180	-0.220	0.550
2020/01/31 02:01:10.0	95.450	0.180	-0.220	0.520
2020/01/31 02:01:10.1	95.470	0.180	-0.220	0.490
2020/01/31 02:01:10.2	95.490	0.190	-0.220	0.460
2020/01/31 02:01:10.3	95.500	0.190	-0.230	0.440
2020/01/31 02:01:10.4	95.520	0.200	-0.240	0.410
2020/01/31 02:01:10.5	95.540	0.210	-0.250	0.390
2020/01/31 02:01:10.6	95.560	0.230	-0.270	0.370
2020/01/31 02:01:10.7	95.570	0.240	-0.280	0.350
2020/01/31 02:01:10.8	95.590	0.260	-0.300	0.340
2020/01/31 02:01:10.9	95.600	0.280	-0.320	0.320
2020/01/31 02:01:11.0	95.630	0.300	-0.340	0.320
2020/01/31 02:01:11.1	95.640	0.320	-0.370	0.310
2020/01/31 02:01:11.2	95.650	0.340	-0.390	0.300
2020/01/31 02:01:11.3	95.650	0.360	-0.420	0.300
2020/01/31 02:01:11.4	95.660	0.380	-0.440	0.300
2020/01/31 02:01:11.5	95.670	0.400	-0.460	0.300
2020/01/31 02:01:11.6	95.670	0.420	-0.490	0.300
2020/01/31 02:01:11.7	95.670	0.440	-0.510	0.300
2020/01/31 02:01:11.8	95.680	0.450	-0.520	0.310
2020/01/31 02:01:11.9	95.680	0.470	-0.540	0.320
2020/01/31 02:01:12.0	95.690	0.480	-0.550	0.330
2020/01/31 02:01:12.1	95.700	0.490	-0.550	0.340
2020/01/31 02:01:12.2	95.700	0.500	-0.560	0.350
2020/01/31 02:01:12.3	95.710	0.500	-0.550	0.370
2020/01/31 02:01:12.4	95.710	0.500	-0.550	0.390
2020/01/31 02:01:12.5	95.720	0.500	-0.540	0.410
2020/01/31 02:01:12.6	95.720	0.490	-0.520	0.430
2020/01/31 02:01:12.7	95.730	0.480	-0.500	0.450
2020/01/31 02:01:12.8	95.730	0.470	-0.470	0.470
2020/01/31 02:01:12.9	95.740	0.450	-0.440	0.500
2020/01/31 02:01:13.0	95.760	0.430	-0.410	0.530
2020/01/31 02:01:13.1	95.770	0.410	-0.360	0.560
2020/01/31 02:01:13.2	95.780	0.380	-0.320	0.590
2020/01/31 02:01:13.3	95.790	0.350	-0.270	0.620
2020/01/31 02:01:13.4	95.800	0.320	-0.220	0.650
2020/01/31 02:01:13.5	95.810	0.280	-0.160	0.690
2020/01/31 02:01:13.6	95.820	0.250	-0.100	0.720
2020/01/31 02:01:13.7	95.830	0.200	-0.040	0.760
2020/01/31 02:01:13.8	95.840	0.160	0.020	0.800
2020/01/31 02:01:13.9	95.850	0.120	0.090	0.840
2020/01/31 02:01:14.0	95.850	0.070	0.160	0.880
2020/01/31 02:01:14.1	95.860	0.030	0.230	0.920
2020/01/31 02:01:14.2	95.870	-0.020	0.290	0.960
2020/01/31 02:01:14.3	95.880	-0.070	0.360	1.010
2020/01/31 02:01:14.4	95.900	-0.120	0.420	1.050
2020/01/31 02:01:14.5	95.910	-0.170	0.480	1.100
2020/01/31 02:01:14.6	95.920	-0.210	0.540	1.140
2020/01/31 02:01:14.7	95.930	-0.260	0.600	1.180
2020/01/31 02:01:14.8	95.950	-0.300	0.650	1.230
2020/01/31 02:01:14.9	95.960	-0.350	0.700	1.270
2020/01/31 02:01:15.0	95.970	-0.390	0.740	1.320
2020/01/31 02:01:15.1	95.980	-0.430	0.780	1.360
2020/01/31 02:01:15.2	95.990	-0.470	0.810	1.400
2020/01/31 02:01:15.3	96.000	-0.500	0.830	1.440
2020/01/31 02:01:15.4	96.010	-0.540	0.850	1.470
2020/01/31 02:01:15.5	96.010	-0.570	0.860	1.510
2020/01/31 02:01:15.6	96.020	-0.590	0.870	1.540
2020/01/31 02:01:15.7	96.020	-0.620	0.860	1.580
2020/01/31 02:01:15.8	96.030	-0.640	0.850	1.610
2020/01/31 02:01:15.9	96.030	-0.660	0.830	1.640
2020/01/31 02:01:16.0	96.020	-0.670	0.810	1.670
2020/01/31 02:01:16.1	96.020	-0.690	0.770	1.700
2020/01/31 02:01:16.2	96.020	-0.690	0.730	1.730
2020/01/31 02:01:16.3	96.010	-0.700	0.690	1.750
2020/01/31 02:01:16.4	96.010	-0.700	0.630	1.770
2020/01/31 02:01:16.5	96.000	-0.700	0.570	1.790
2020/01/31 02:01:16.6	95.990	-0.690	0.510	1.810
2020/01/31 02:01:16.7	95.980	-0.690	0.440	1.830
2020/01/31 02:01:16.8	95.970	-0.680	0.360	1.840
2020/01/31 02:01:16.9	95.960	-0.660	0.280	1.850
2020/01/31 02:01:17.0	95.950	-0.650	0.200	1.860
2020/01/31 02:01:17.1	95.940	-0.630	0.110	1.870
2020/01/31 02:01:17.2	95.920	-0.610	0.020	1.870
2020/01/31 02:01:17.3	95.910	-0.590	-0.070	1.870
2020/01/31 02:01:17.4	95.900	-0.560	-0.160	1.870
2020/01/31 02:01:17.5	95.880	-0.540	-0.250	1.870
2020/01/31 02:01:17.6	95.870	-0.510	-0.340	1.860
2020/01/31 02:01:17.7	95.860	-0.480	-0.430	1.850
2020/01/31 02:01:17.8	95.850	-0.450	-0.510	1.840
2020/01/31 02:01:17.9	95.840	-0.420	-0.600	1.830
2020/01/31 02:01:18.0	95.830	-0.390	-0.680	1.810
2020/01/31 02:01:18.1	95.820	-0.350	-0.760	1.790
2020/01/31 02:01:18.2	95.810	-0.320	-0.830	1.770
2020/01/31 02:01:18.3	95.800	-0.290	-0.900	1.750
2020/01/31 02:01:18.4	95.800	-0.250	-0.970	1.730
2020/01/31 02:01:18.5	95.790	-0.220	-1.030	1.700
2020/01/31 02:01:18.6	95.790	-0.190	-1.080	1.670
2020/01/31 02:01:18.7	95.790	-0.150	-1.130	1.640
2020/01/31 02:01:18.8	95.790	-0.120	-1.170	1.600
2020/01/31 02:01:18.9	95.790	-0.090	-1.200	1.570
2020/01/31 02:01:19.0	95.810	-0.050	-1.230	1.530
2020/01/31 02:01:19.1	95.810	-0.020	-1.250	1.490
2020/01/31 02:01:19.2	95.820	0.010	-1.270	1.450
2020/01/31 02:01:19.3	95.830	0.040	-1.280	1.400
2020/01/31 02:01:19.4	95.840	0.070	-1.290	1.360
2020/01/31 02:01:19.5	95.860	0.100	-1.280	1.310
2020/01/31 02:01:19.6	95.870	0.130	-1.280	1.260
2020/01/31 02:01:19.7	95.890	0.150	-1.260	1.210
2020/01/31 02:01:19.8	95.900	0.180	-1.240	1.160
2020/01/31 02:01:19.9	95.920	0.200	-1.220	1.110
2020/01/31 02:01:20.0	95.920	0.230	-1.190	1.060
2020/01/31 02:01:20.1	95.940	0.250	-1.150	1.010
2020/01/31 02:01:20.2	95.960	0.270	-1.110	0.950
2020/01/31 02:01:20.3	95.980	0.280	-1.060	0.900
2020/01/31 02:01:20.4	96.000	0.300	-1.010	0.850
2020/01/31 02:01:20.5	96.020	0.320	-0.960	0.790
2020/01/31 02:01:20.6	96.040	0.330	-0.900	0.740
2020/01/31 02:01:20.7	96.060	0.340	-0.840	0.690
2020/01/31 02:01:20.8	96.070	0.350	-0.770	0.640
2020/01/31 02:01:20.9	96.090	0.360	-0.700	0.590
2020/01/31 02:01:21.0	96.120	0.360	-0.630	0.540
2020/01/31 02:01:21.1	96.130	0.370	-0.560	0.490
2020/01/31 02:01:21.2	96.150	0.370	-0.480	0.440
2020/01/31 02:01:21.3	96.170	0.370	-0.410	0.390
2020/01/31 02:01:21.4	96.180	0.370	-0.330	0.340
2020/01/31 02:01:21.5	96.190	0.360	-0.250	0.290
2020/01/31 02:01:21.6	96.210	0.350	-0.170	0.240
2020/01/31 02:01:21.7	96.220	0.340	-0.090	0.190
2020/01/31 02:01:21.8	96.230	0.330	-0.020	0.140
2020/01/31 02:01:21.9	96.240	0.320	0.060	0.090
2020/01/31 02:01:22.0	96.250	0.300	0.140	0.050
2020/01/31 02:01:22.1	96.260	0.280	0.210	0.000
2020/01/31 02:01:22.2	96.270	0.260	0.290	-0.040
2020/01/31 02:01:22.3	96.280	0.240	0.360	-0.090
2020/01/31 02:01:22.4	96.280	0.220	0.430	-0.130
2020/01/31 02:01:22.5	96.290	0.200	0.500	-0.170
2020/01/31 02:01:22.6	96.290	0.170	0.560	-0.210
2020/01/31 02:01:22.7	96.300	0.150	0.620	-0.250
2020/01/31 02:01:22.8	96.300	0.120	0.680	-0.280
2020/01/31 02:01:22.9	96.300	0.100	0.730	-0.320
2020/01/31 02:01:23.0	96.310	0.070	0.780	-0.340
2020/01/31 02:01:23.1	96.310	0.050	0.820	-0.370
2020/01/31 02:01:23.2	96.300	0.020	0.860	-0.390
2020/01/31 02:01:23.3	96.300	-0.000	0.890	-0.410
2020/01/31 02:01:23.4	96.290	-0.020	0.920	-0.430
2020/01/31 02:01:23.5	96.280	-0.050	0.940	-0.440
2020/01/31 02:01:23.6	96.270	-0.060	0.950	-0.450
2020/01/31 02:01:23.7	96.260	-0.080	0.950	-0.450
2020/01/31 02:01:23.8	96.240	-0.100	0.950	-0.450
2020/01/31 02:01:23.9	96.230	-0.110	0.950	-0.450
2020/01/31 02:01:24.0	96.210	-0.120	0.940	-0.450
2020/01/31 02:01:24.1	96.190	-0.130	0.910	-0.440
2020/01/31 02:01:24.2	96.180	-0.140	0.890	-0.420
2020/01/31 02:01:24.3	96.160	-0.140	0.850	-0.400
2020/01/31 02:01:24.4	96.140	-0.150	0.810	-0.380
2020/01/31 02:01:24.5	96.120	-0.150	0.760	-0.360
2020/01/31 02:01:24.6	96.100	-0.140	0.700	-0.330
2020/01/31 02:01:24.7	96.080	-0.140	0.640	-0.300
2020/01/31 02:01:24.8	96.060	-0.130	0.570	-0.260
2020/01/31 02:01:24.9	96.040	-0.120	0.500	-0.230
2020/01/31 02:01:25.0	96.020	-0.110	0.420	-0.180
2020/01/31 02:01:25.1	96.000	-0.100	0.340	-0.140
2020/01/31 02:01:25.2	95.980	-0.080	0.250	-0.090
2020/01/31 02:01:25.3	95.970	-0.070	0.170	-0.050
2020/01/31 02:01:25.4	95.950	-0.050	0.080	-0.000
2020/01/31 02:01:25.5	95.940	-0.030	-0.000	0.040
2020/01/31 02:01:25.6	95.930	-0.020	-0.090	0.090
2020/01/31 02:01:25.7	95.920	0.000	-0.180	0.140
2020/01/31 02:01:25.8	95.910	0.020	-0.270	0.190
2020/01/31 02:01:25.9	95.910	0.030	-0.350	0.240
2020/01/31 02:01:26.0	95.900	0.050	-0.430	0.290
2020/01/31 02:01:26.1	95.900	0.060	-0.510	0.330
2020/01/31 02:01:26.2	95.900	0.070	-0.590	0.380
2020/01/31 02:01:26.3	95.900	0.080	-0.660	0.420
2020/01/31 02:01:26.4	95.910	0.090	-0.720	0.460
2020/01/31 02:01:26.5	95.920	0.100	-0.780	0.500
2020/01/31 02:01:26.6	95.930	0.110	-0.840	0.540
2020/01/31 02:01:26.7	95.950	0.110	-0.880	0.580
2020/01/31 02:01:26.8	95.960	0.110	-0.930	0.610
2020/01/31 02:01:26.9	95.980	0.110	-0.960	0.640
2020/01/31 02:01:27.0	96.010	0.100	-0.990	0.680
2020/01/31 02:01:27.1	96.030	0.100	-1.010	0.710
2020/01/31 02:01:27.2	96.060	0.090	-1.030	0.740
2020/01/31 02:01:27.3	96.080	0.080	-1.040	0.760
2020/01/31 02:01:27.4	96.100	0.070	-1.040	0.790
2020/01/31 02:01:27.5	96.130	0.050	-1.040	0.810
2020/01/31 02:01:27.6	96.150	0.040	-1.030	0.830
2020/01/31 02:01:27.7	96.180	0.020	-1.010	0.860
2020/01/31 02:01:27.8	96.200	0.010	-0.990	0.880
2020/01/31 02:01:27.9	96.230	-0.010	-0.960	0.900
2020/01/31 02:01:28.0	96.250	-0.030	-0.930	0.930
2020/01/31 02:01:28.1	96.270	-0.040	-0.890	0.960
2020/01/31 02:01:28.2	96.290	-0.060	-0.860	0.980
2020/01/31 02:01:28.3	96.310	-0.080	-0.810	1.010
2020/01/31 02:01:28.4	96.330	-0.090	-0.770	1.040
2020/01/31 02:01:28.5	96.350	-0.110	-0.720	1.070
2020/01/31 02:01:28.6	96.370	-0.120	-0.660	1.100
2020/01/31 02:01:28.7	96.390	-0.130	-0.610	1.140
2020/01/31 02:01:28.8	96.400	-0.140	-0.560	1.180
2020/01/31 02:01:28.9	96.410	-0.140	-0.500	1.220
2020/01/31 02:01:29.0	96.430	-0.150	-0.450	1.270
2020/01/31 02:01:29.1	96.440	-0.150	-0.400	1.310
2020/01/31 02:01:29.2	96.440	-0.150	-0.350	1.350
2020/01/31 02:01:29.3	96.450	-0.150	-0.290	1.400
2020/01/31 02:01:29.4	96.450	-0.140	-0.240	1.440
2020/01/31 02:01:29.5	96.450	-0.130	-0.200	1.490
2020/01/31 02:01:29.6	96.450	-0.120	-0.150	1.540
2020/01/31 02:01:29.7	96.450	-0.110	-0.110	1.590
2020/01/31 02:01:29.8	96.450	-0.100	-0.070	1.640
2020/01/31 02:01:29.9	96.440	-0.080	-0.030	1.680
2020/01/31 02:01:30.0	96.430	-0.060	0.010	1.730
2020/01/31 02:01:30.1	96.420	-0.040	0.040	1.780
2020/01/31 02:01:30.2	96.420	-0.010	0.070	1.820
2020/01/31 02:01:30.3	96.410	0.010	0.090	1.860
2020/01/31 02:01:30.4	96.400	0.040	0.110	1.900
2020/01/31 02:01:30.5	96.390	0.060	0.130	1.940
2020/01/31 02:01:30.6	96.380	0.090	0.150	1.970
2020/01/31 02:01:30.7	96.370	0.120	0.160	2.010
2020/01/31 02:01:30.8	96.360	0.150	0.170	2.030
2020/01/31 02:01:30.9	96.350	0.180	0.180	2.060
2020/01/31 02:01:31.0	96.320	0.210	0.180	2.080
2020/01/31 02:01:31.1	96.310	0.240	0.180	2.090
2020/01/31 02:01:31.2	96.300	0.270	0.180	2.110
2020/01/31 02:01:31.3	96.280	0.290	0.180	2.110
2020/01/31 02:01:31.4	96.270	0.320	0.180	2.120
2020/01/31 02:01:31.5	96.260	0.340	0.170	2.120
2020/01/31 02:01:31.6	96.240	0.370	0.160	2.110
2020/01/31 02:01:31.7	96.230	0.390	0.160	2.100
2020/01/31 02:01:31.8	96.220	0.410	0.150	2.080
2020/01/31 02:01:31.9	96.200	0.420	0.140	2.060
2020/01/31 02:01:32.0	96.180	0.440	0.130	2.040
2020/01/31 02:01:32.1	96.170	0.450	0.120	2.010
2020/01/31 02:01:32.2	96.150	0.460	0.110	1.980
2020/01/31 02:01:32.3	96.140	0.460	0.100	1.940
2020/01/31 02:01:32.4	96.130	0.460	0.090	1.900
2020/01/31 02:01:32.5	96.120	0.460	0.080	1.850
2020/01/31 02:01:32.6	96.120	0.460	0.080	1.810
2020/01/31 02:01:32.7	96.110	0.450	0.070	1.760
2020/01/31 02:01:32.8	96.100	0.440	0.060	1.700
2020/01/31 02:01:32.9	96.090	0.430	0.060	1.650
2020/01/31 02:01:33.0	96.100	0.410	0.050	1.590
2020/01/31 02:01:33.1	96.090	0.390	0.050	1.540
2020/01/31 02:01:33.2	96.090	0.370	0.040	1.480
2020/01/31 02:01:33.3	96.080	0.350	0.040	1.420
2020/01/31 02:01:33.4	96.080	0.320	0.040	1.360
2020/01/31 02:01:33.5	96.070	0.290	0.040	1.300
2020/01/31 02:01:33.6	96.070	0.260	0.040	1.250
2020/01/31 02:01:33.7	96.060	0.230	0.040	1.190
2020/01/31 02:01:33.8	96.060	0.200	0.040	1.130
2020/01/31 02:01:33.9	96.060	0.160	0.040	1.070
2020/01/31 02:01:34.0	96.070	0.120	0.040	1.010
2020/01/31 02:01:34.1	96.070	0.090	0.040	0.950
2020/01/31 02:01:34.2	96.070	0.050	0.040	0.890
2020/01/31 02:01:34.3	96.070	0.010	0.040	0.830
2020/01/31 02:01:34.4	96.080	-0.030	0.030	0.770
2020/01/31 02:01:34.5	96.080	-0.060	0.030	0.700
2020/01/31 02:01:34.6	96.090	-0.100	0.020	0.640
2020/01/31 02:01:34.7	96.100	-0.140	0.010	0.580
2020/01/31 02:01:34.8	96.110	-0.170	-0.000	0.520
2020/01/31 02:01:34.9	96.120	-0.210	-0.020	0.460
2020/01/31 02:01:35.0	96.130	-0.240	-0.040	0.400
2020/01/31 02:01:35.1	96.140	-0.270	-0.050	0.340
2020/01/31 02:01:35.2	96.150	-0.300	-0.070	0.280
2020/01/31 02:01:35.3	96.160	-0.330	-0.090	0.220
2020/01/31 02:01:35.4	96.180	-0.360	-0.110	0.160
2020/01/31 02:01:35.5	96.190	-0.380	-0.140	0.110
2020/01/31 02:01:35.6	96.200	-0.400	-0.160	0.050
2020/01/31 02:01:35.7	96.220	-0.420	-0.190	0.000
2020/01/31 02:01:35.8	96.230	-0.440	-0.210	-0.050
2020/01/31 02:01:35.9	96.240	-0.460	-0.240	-0.090
2020/01/31 02:01:36.0	96.260	-0.480	-0.260	-0.130
2020/01/31 02:01:36.1	96.270	-0.490	-0.290	-0.170
2020/01/31 02:01:36.2	96.280	-0.500	-0.310	-0.200
2020/01/31 02:01:36.3	96.290	-0.510	-0.340	-0.230
2020/01/31 02:01:36.4	96.300	-0.520	-0.360	-0.260
2020/01/31 02:01:36.5	96.310	-0.530	-0.380	-0.280
2020/01/31 02:01:36.6	96.320	-0.530	-0.400	-0.300
2020/01/31 02:01:36.7	96.320	-0.530	-0.420	-0.310
2020/01/31 02:01:36.8	96.330	-0.530	-0.440	-0.320
2020/01/31 02:01:36.9	96.330	-0.530	-0.450	-0.320
2020/01/31 02:01:37.0	96.330	-0.530	-0.460	-0.320
2020/01/31 02:01:37.1	96.340	-0.530	-0.470	-0.320
2020/01/31 02:01:37.2	96.340	-0.520	-0.470	-0.310
2020/01/31 02:01:37.3	96.350	-0.510	-0.480	-0.300
2020/01/31 02:01:37.4	96.350	-0.500	-0.480	-0.280
2020/01/31 02:01:37.5	96.360	-0.500	-0.470	-0.260
2020/01/31 02:01:37.6	96.360	-0.480	-0.470	-0.240
2020/01/31 02:01:37.7	96.370	-0.470	-0.460	-0.210
2020/01/31 02:01:37.8	96.370	-0.460	-0.450	-0.190
2020/01/31 02:01:37.9	96.380	-0.450	-0.440	-0.160
2020/01/31 02:01:38.0	96.400	-0.430	-0.420	-0.120
2020/01/31 02:01:38.1	96.400	-0.420	-0.410	-0.080
2020/01/31 02:01:38.2	96.410	-0.400	-0.390	-0.050
2020/01/31 02:01:38.3	96.410	-0.380	-0.370	-0.010
2020/01/31 02:01:38.4	96.420	-0.370	-0.350	0.030
2020/01/31 02:01:38.5	96.420	-0.350	-0.330	0.080
2020/01/31 02:01:38.6	96.430	-0.330	-0.310	0.120
2020/01/31 02:01:38.7	96.440	-0.310	-0.300	0.170
2020/01/31 02:01:38.8	96.440	-0.290	-0.280	0.210
2020/01/31 02:01:38.9	96.440	-0.280	-0.260	0.260
2020/01/31 02:01:39.0	96.440	-0.260	-0.240	0.320
2020/01/31 02:01:39.1	96.440	-0.240	-0.220	0.370
2020/01/31 02:01:39.2	96.440	-0.220	-0.200	0.420
2020/01/31 02:01:39.3	96.440	-0.200	-0.190	0.470
2020/01/31 02:01:39.4	96.440	-0.180	-0.170	0.520
2020/01/31 02:01:39.5	96.440	-0.160	-0.160	0.570
2020/01/31 02:01:39.6	96.440	-0.140	-0.150	0.620
2020/01/31 02:01:39.7	96.430	-0.120	-0.140	0.670
2020/01/31 02:01:39.8	96.430	-0.100	-0.130	0.720
2020/01/31 02:01:39.9	96.420	-0.080	-0.120	0.770
2020/01/31 02:01:40.0	96.410	-0.070	-0.120	0.830
2020/01/31 02:01:40.1	96.400	-0.050	-0.110	0.870
2020/01/31 02:01:40.2	96.390	-0.030	-0.100	0.920
2020/01/31 02:01:40.3	96.370	-0.010	-0.090	0.960
2020/01/31 02:01:40.4	96.360	0.010	-0.090	1.010
2020/01/31 02:01:40.5	96.340	0.020	-0.080	1.050
2020/01/31 02:01:40.6	96.320	0.040	-0.070	1.090
2020/01/31 02:01:40.7	96.300	0.060	-0.060	1.130
2020/01/31 02:01:40.8	96.270	0.070	-0.050	1.160
2020/01/31 02:01:40.9	96.250	0.090	-0.040	1.190
2020/01/31 02:01:41.0	96.230	0.100	-0.030	1.230
2020/01/31 02:01:41.1	96.200	0.120	-0.020	1.250
2020/01/31 02:01:41.2	96.180	0.130	-0.010	1.270
2020/01/31 02:01:41.3	96.150	0.150	0.000	1.300
2020/01/31 02:01:41.4	96.120	0.160	0.020	1.310
2020/01/31 02:01:41.5	96.090	0.170	0.030	1.330
2020/01/31 02:01:41.6	96.070	0.190	0.050	1.330
2020/01/31 02:01:41.7	96.040	0.200	0.060	1.340
2020/01/31 02:01:41.8	96.020	0.210	0.080	1.340
2020/01/31 02:01:41.9	95.990	0.230	0.090	1.340
2020/01/31 02:01:42.0	95.980	0.240	0.100	1.330
2020/01/31 02:01:42.1	95.960	0.260	0.120	1.320
2020/01/31 02:01:42.2	95.940	0.270	0.120	1.300
2020/01/31 02:01:42.3	95.930	0.290	0.130	1.280
2020/01/31 02:01:42.4	95.910	0.300	0.140	1.260
2020/01/31 02:01:42.5	95.900	0.320	0.140	1.230
2020/01/31 02:01:42.6	95.890	0.330	0.140	1.190
2020/01/31 02:01:42.7	95.890	0.350	0.130	1.150
2020/01/31 02:01:42.8	95.890	0.370	0.130	1.110
2020/01/31 02:01:42.9	95.890	0.390	0.120	1.070
2020/01/31 02:01:43.0	95.890	0.410	0.100	1.020
2020/01/31 02:01:43.1	95.890	0.430	0.090	0.960
2020/01/31 02:01:43.2	95.900	0.450	0.060	0.910
2020/01/31 02:01:43.3	95.910	0.470	0.040	0.850
2020/01/31 02:01:43.4	95.920	0.490	0.010	0.800
2020/01/31 02:01:43.5	95.940	0.510	-0.020	0.740
2020/01/31 02:01:43.6	95.960	0.530	-0.050	0.680
2020/01/31 02:01:43.7	95.970	0.550	-0.090	0.620
2020/01/31 02:01:43.8	95.990	0.570	-0.130	0.570
2020/01/31 02:01:43.9	96.010	0.590	-0.170	0.510
2020/01/31 02:01:44.0	96.050	0.610	-0.210	0.460
2020/01/31 02:01:44.1	96.070	0.630	-0.250	0.400
2020/01/31 02:01:44.2	96.100	0.650	-0.290	0.350
2020/01/31 02:01:44.3	96.120	0.660	-0.340	0.310
2020/01/31 02:01:44.4	96.140	0.680	-0.380	0.270
2020/01/31 02:01:44.5	96.160	0.690	-0.420	0.230
2020/01/31 02:01:44.6	96.190	0.700	-0.460	0.190
2020/01/31 02:01:44.7	96.210	0.700	-0.500	0.160
2020/01/31 02:01:44.8	96.230	0.710	-0.530	0.130
2020/01/31 02:01:44.9	96.240	0.710	-0.570	0.110
2020/01/31 02:01:45.0	96.250	0.710	-0.590	0.090
2020/01/31 02:01:45.1	96.270	0.700	-0.620	0.080
2020/01/31 02:01:45.2	96.280	0.690	-0.640	0.070
2020/01/31 02:01:45.3	96.290	0.680	-0.660	0.060
2020/01/31 02:01:45.4	96.300	0.670	-0.670	0.050
2020/01/31 02:01:45.5	96.310	0.650	-0.680	0.050
2020/01/31 02:01:45.6	96.310	0.630	-0.680	0.060
2020/01/31 02:01:45.7	96.310	0.600	-0.670	0.060
2020/01/31 02:01:45.8	96.310	0.580	-0.660	0.070
2020/01/31 02:01:45.9	96.310	0.540	-0.650	0.080
2020/01/31 02:01:46.0	96.300	0.510	-0.630	0.090
2020/01/31 02:01:46.1	96.290	0.470	-0.600	0.100
2020/01/31 02:01:46.2	96.290	0.430	-0.570	0.120
2020/01/31 02:01:46.3	96.280	0.390	-0.530	0.140
2020/01/31 02:01:46.4	96.280	0.350	-0.490	0.160
2020/01/31 02:01:46.5	96.270	0.300	-0.450	0.180
2020/01/31 02:01:46.6	96.260	0.250	-0.400	0.200
2020/01/31 02:01:46.7	96.250	0.200	-0.350	0.230
2020/01/31 02:01:46.8	96.240	0.150	-0.300	0.260
2020/01/31 02:01:46.9	96.230	0.100	-0.240	0.290
2020/01/31 02:01:47.0	96.210	0.040	-0.180	0.330
2020/01/31 02:01:47.1	96.200	-0.010	-0.120	0.370
2020/01/31 02:01:47.2	96.190	-0.060	-0.060	0.410
2020/01/31 02:01:47.3	96.170	-0.110	-0.000	0.450
2020/01/31 02:01:47.4	96.160	-0.170	0.060	0.500
2020/01/31 02:01:47.5	96.140	-0.220	0.120	0.550
2020/01/31 02:01:47.6	96.130	-0.270	0.170	0.600
2020/01/31 02:01:47.7	96.110	-0.310	0.230	0.650
2020/01/31 02:01:47.8	96.090	-0.360	0.280	0.710
2020/01/31 02:01:47.9	96.070	-0.400	0.330	0.770
2020/01/31 02:01:48.0	96.050	-0.450	0.380	0.840
2020/01/31 02:01:48.1	96.030	-0.480	0.420	0.900
2020/01/31 02:01:48.2	96.010	-0.520	0.450	0.970
2020/01/31 02:01:48.3	95.990	-0.550	0.480	1.040
2020/01/31 02:01:48.4	95.970	-0.580	0.510	1.110
2020/01/31 02:01:48.5	95.950	-0.610	0.520	1.180
2020/01/31 02:01:48.6	95.930	-0.630	0.540	1.260
2020/01/31 02:01:48.7	95.900	-0.650	0.550	1.330
2020/01/31 02:01:48.8	95.880	-0.660	0.550	1.400
2020/01/31 02:01:48.9	95.860	-0.680	0.540	1.480
2020/01/31 02:01:49.0	95.830	-0.690	0.530	1.550
2020/01/31 02:01:49.1	95.810	-0.690	0.510	1.620
2020/01/31 02:01:49.2	95.800	-0.690	0.490	1.690
2020/01/31 02:01:49.3	95.780	-0.690	0.460	1.750
2020/01/31 02:01:49.4	95.760	-0.690	0.420	1.810
2020/01/31 02:01:49.5	95.750	-0.680	0.390	1.870
2020/01/31 02:01:49.6	95.730	-0.670	0.340	1.930
2020/01/31 02:01:49.7	95.720	-0.660	0.300	1.980
2020/01/31 02:01:49.8	95.710	-0.650	0.250	2.020
2020/01/31 02:01:49.9	95.700	-0.630	0.200	2.060
2020/01/31 02:01:50.0	95.680	-0.610	0.150	2.100
2020/01/31 02:01:50.1	95.670	-0.590	0.090	2.130
2020/01/31 02:01:50.2	95.670	-0.570	0.030	2.150
2020/01/31 02:01:50.3	95.670	-0.550	-0.030	2.170
2020/01/31 02:01:50.4	95.670	-0.530	-0.090	2.190
2020/01/31 02:01:50.5	95.670	-0.500	-0.150	2.200
2020/01/31 02:01:50.6	95.670	-0.480	-0.200	2.200
2020/01/31 02:01:50.7	95.680	-0.450	-0.260	2.200
2020/01/31 02:01:50.8	95.690	-0.420	-0.310	2.190
2020/01/31 02:01:50.9	95.690	-0.400	-0.370	2.180
2020/01/31 02:01:51.0	95.700	-0.370	-0.420	2.170
2020/01/31 02:01:51.1	95.710	-0.340	-0.470	2.140
2020/01/31 02:01:51.2	95.720	-0.310	-0.510	2.120
2020/01/31 02:01:51.3	95.730	-0.290	-0.550	2.080
2020/01/31 02:01:51.4	95.740	-0.260	-0.590	2.050
2020/01/31 02:01:51.5	95.750	-0.230	-0.620	2.010
2020/01/31 02:01:51.6	95.760	-0.210	-0.650	1.960
2020/01/31 02:01:51.7	95.770	-0.180	-0.670	1.920
2020/01/31 02:01:51.8	95.780	-0.160	-0.690	1.870
2020/01/31 02:01:51.9	95.790	-0.130	-0.700	1.810
2020/01/31 02:01:52.0	95.810	-0.110	-0.710	1.760
2020/01/31 02:01:52.1	95.810	-0.080	-0.710	1.700
2020/01/31 02:01:52.2	95.820	-0.060	-0.710	1.640
2020/01/31 02:01:52.3	95.830	-0.040	-0.710	1.580
2020/01/31 02:01:52.4	95.840	-0.020	-0.700	1.520
2020/01/31 02:01:52.5	95.840	-0.000	-0.680	1.450
2020/01/31 02:01:52.6	95.850	0.010	-0.670	1.390
2020/01/31 02:01:52.7	95.850	0.030	-0.640	1.330
2020/01/31 02:01:52.8	95.850	0.050	-0.620	1.270
2020/01/31 02:01:52.9	95.850	0.060	-0.590	1.200
2020/01/31 02:01:53.0	95.850	0.070	-0.560	1.150
2020/01/31 02:01:53.1	95.850	0.080	-0.530	1.090
2020/01/31 02:01:53.2	95.840	0.100	-0.500	1.030
2020/01/31 02:01:53.3	95.840	0.110	-0.460	0.970
2020/01/31 02:01:53.4	95.830	0.120	-0.430	0.920
2020/01/31 02:01:53.5	95.820	0.120	-0.390	0.870
2020/01/31 02:01:53.6	95.820	0.130	-0.360	0.820
2020/01/31 02:01:53.7	95.810	0.140	-0.320	0.770
2020/01/31 02:01:53.8	95.800	0.150	-0.290	0.720
2020/01/31 02:01:53.9	95.790	0.150	-0.250	0.680
2020/01/31 02:01:54.0	95.790	0.160	-0.230	0.630
2020/01/31 02:01:54.1	95.780	0.160	-0.200	0.590
2020/01/31 02:01:54.2	95.770	0.170	-0.170	0.550
2020/01/31 02:01:54.3	95.760	0.170	-0.140	0.510
2020/01/31 02:01:54.4	95.750	0.170	-0.120	0.470
2020/01/31 02:01:54.5	95.740	0.180	-0.100	0.430
2020/01/31 02:01:54.6	95.730	0.180	-0.080	0.390
2020/01/31 02:01:54.7	95.720	0.180	-0.070	0.360
2020/01/31 02:01:54.8	95.720	0.180	-0.050	0.320
2020/01/31 02:01:54.9	95.710	0.180	-0.040	0.280
2020/01/31 02:01:55.0	95.710	0.180	-0.030	0.250
2020/01/31 02:01:55.1	95.710	0.180	-0.030	0.220
2020/01/31 02:01:55.2	95.710	0.180	-0.020	0.180
2020/01/31 02:01:55.3	95.700	0.180	-0.020	0.150
2020/01/31 02:01:55.4	95.700	0.180	-0.020	0.120
2020/01/31 02:01:55.5	95.700	0.180	-0.030	0.090
2020/01/31 02:01:55.6	95.690	0.180	-0.030	0.060
2020/01/31 02:01:55.7	95.690	0.180	-0.030	0.030
2020/01/31 02:01:55.8	95.680	0.180	-0.040	0.000
2020/01/31 02:01:55.9	95.680	0.170	-0.050	-0.030
2020/01/31 02:01:56.0	95.690	0.170	-0.050	-0.050
2020/01/31 02:01:56.1	95.690	0.160	-0.060	-0.070
2020/01/31 02:01:56.2	95.680	0.160	-0.070	-0.100
2020/01/31 02:01:56.3	95.670	0.150	-0.070	-0.120
2020/01/31 02:01:56.4	95.670	0.140	-0.080	-0.140
2020/01/31 02:01:56.5	95.660	0.140	-0.080	-0.150
2020/01/31 02:01:56.6	95.660	0.130	-0.090	-0.170
2020/01/31 02:01:56.7	95.650	0.120	-0.090	-0.180
2020/01/31 02:01:56.8	95.640	0.110	-0.090	-0.190
2020/01/31 02:01:56.9	95.640	0.100	-0.090	-0.200
2020/01/31 02:01:57.0	95.630	0.090	-0.090	-0.210
2020/01/31 02:01:57.1	95.620	0.080	-0.090	-0.210
2020/01/31 02:01:57.2	95.620	0.070	-0.080	-0.210
2020/01/31 02:01:57.3	95.610	0.060	-0.070	-0.210
2020/01/31 02:01:57.4	95.610	0.050	-0.060	-0.210
2020/01/31 02:01:57.5	95.600	0.040	-0.050	-0.210
2020/01/31 02:01:57.6	95.600	0.030	-0.030	-0.200
2020/01/31 02:01:57.7	95.600	0.020	-0.020	-0.190
2020/01/31 02:01:57.8	95.590	0.010	0.000	-0.180
2020/01/31 02:01:57.9	95.590	-0.000	0.020	-0.160
2020/01/31 02:01:58.0	95.580	-0.020	0.040	-0.140
2020/01/31 02:01:58.1	95.580	-0.030	0.060	-0.120
2020/01/31 02:01:58.2	95.570	-0.030	0.080	-0.090
2020/01/31 02:01:58.3	95.560	-0.040	0.110	-0.060
2020/01/31 02:01:58.4	95.560	-0.050	0.130	-0.030
2020/01/31 02:01:58.5	95.550	-0.060	0.150	-0.000
2020/01/31 02:01:58.6	95.550	-0.070	0.170	0.030
2020/01/31 02:01:58.7	95.540	-0.070	0.190	0.070
2020/01/31 02:01:58.8	95.530	-0.080	0.210	0.110
2020/01/31 02:01:58.9	95.530	-0.080	0.230	0.150
2020/01/31 02:01:59.0	95.520	-0.090	0.250	0.190
2020/01/31 02:01:59.1	95.520	-0.090	0.260	0.230
2020/01/31 02:01:59.2	95.510	-0.090	0.270	0.270
2020/01/31 02:01:59.3	95.510	-0.090	0.280	0.310
2020/01/31 02:01:59.4	95.510	-0.100	0.280	0.350
2020/01/31 02:01:59.5	95.500	-0.090	0.280	0.380
2020/01/31 02:01:59.6	95.500	-0.090	0.280	0.420
2020/01/31 02:01:59.7	95.500	-0.090	0.270	0.460
2020/01/31 02:01:59.8	95.500	-0.080	0.260	0.490
2020/01/31 02:01:59.9	95.500	-0.080	0.240	0.530
2020/01/31 02:02:00.0	95.510	-0.070	0.220	0.560
2020/01/31 02:02:00.1	95.510	-0.060	0.190	0.590
2020/01/31 02:02:00.2	95.520	-0.050	0.160	0.620
2020/01/31 02:02:00.3	95.520	-0.040	0.130	0.650
2020/01/31 02:02:00.4	95.530	-0.030	0.090	0.680
2020/01/31 02:02:00.5	95.540	-0.010	0.040	0.700
2020/01/31 02:02:00.6	95.540	0.010	-0.000	0.730
2020/01/31 02:02:00.7	95.550	0.030	-0.050	0.750
2020/01/31 02:02:00.8	95.560	0.050	-0.100	0.780
2020/01/31 02:02:00.9	95.570	0.070	-0.160	0.800
2020/01/31 02:02:01.0	95.600	0.090	-0.210	0.830
2020/01/31 02:02:01.1	95.610	0.120	-0.270	0.850
2020/01/31 02:02:01.2	95.620	0.140	-0.330	0.880
2020/01/31 02:02:01.3	95.630	0.170	-0.390	0.900
2020/01/31 02:02:01.4	95.650	0.200	-0.450	0.930
2020/01/31 02:02:01.5	95.660	0.230	-0.500	0.960
2020/01/31 02:02:01.6	95.670	0.250	-0.560	0.980
2020/01/31 02:02:01.7	95.680	0.280	-0.610	1.010
2020/01/31 02:02:01.8	95.690	0.310	-0.660	1.030
2020/01/31 02:02:01.9	95.710	0.340	-0.700	1.060
2020/01/31 02:02:02.0	95.720	0.370	-0.750	1.090
2020/01/31 02:02:02.1	95.730	0.390	-0.780	1.120
2020/01/31 02:02:02.2	95.740	0.420	-0.810	1.140
2020/01/31 02:02:02.3	95.750	0.440	-0.840	1.170
2020/01/31 02:02:02.4	95.760	0.460	-0.860	1.200
2020/01/31 02:02:02.5	95.770	0.480	-0.870	1.230
2020/01/31 02:02:02.6	95.770	0.490	-0.880	1.250
2020/01/31 02:02:02.7	95.770	0.500	-0.880	1.280
2020/01/31 02:02:02.8	95.780	0.510	-0.870	1.310
2020/01/31 02:02:02.9	95.780	0.520	-0.860	1.340
2020/01/31 02:02:03.0	95.760	0.520	-0.830	1.370
2020/01/31 02:02:03.1	95.760	0.520	-0.810	1.400
2020/01/31 02:02:03.2	95.750	0.510	-0.770	1.440
2020/01/31 02:02:03.3	95.740	0.510	-0.730	1.470
2020/01/31 02:02:03.4	95.740	0.490	-0.690	1.500
2020/01/31 02:02:03.5	95.730	0.480	-0.640	1.530
2020/01/31 02:02:03.6	95.710	0.460	-0.580	1.560
2020/01/31 02:02:03.7	95.700	0.430	-0.530	1.600
2020/01/31 02:02:03.8	95.690	0.410	-0.460	1.630
2020/01/31 02:02:03.9	95.680	0.380	-0.400	1.660
2020/01/31 02:02:04.0	95.650	0.340	-0.330	1.690
2020/01/31 02:02:04.1	95.640	0.310	-0.270	1.720
2020/01/31 02:02:04.2	95.620	0.270	-0.200	1.750
2020/01/31 02:02:04.3	95.610	0.230	-0.130	1.780
2020/01/31 02:02:04.4	95.590	0.190	-0.060	1.810
2020/01/31 02:02:04.5	95.580	0.140	0.010	1.840
2020/01/31 02:02:04.6	95.570	0.100	0.070	1.860
2020/01/31 02:02:04.7	95.550	0.050	0.130	1.880
2020/01/31 02:02:04.8	95.540	0.010	0.190	1.900
2020/01/31 02:02:04.9	95.530	-0.040	0.240	1.910
2020/01/31 02:02:05.0	95.520	-0.080	0.300	1.930
2020/01/31 02:02:05.1	95.510	-0.130	0.340	1.940
2020/01/31 02:02:05.2	95.500	-0.170	0.380	1.940
2020/01/31 02:02:05.3	95.490	-0.210	0.410	1.940
2020/01/31 02:02:05.4	95.480	-0.250	0.440	1.940
2020/01/31 02:02:05.5	95.480	-0.290	0.460	1.940
2020/01/31 02:02:05.6	95.470	-0.320	0.470	1.930
2020/01/31 02:02:05.7	95.470	-0.350	0.480	1.920
2020/01/31 02:02:05.8	95.470	-0.380	0.480	1.910
2020/01/31 02:02:05.9	95.470	-0.400	0.470	1.890
2020/01/31 02:02:06.0	95.470	-0.420	0.450	1.870
2020/01/31 02:02:06.1	95.470	-0.440	0.430	1.850
2020/01/31 02:02:06.2	95.470	-0.450	0.400	1.820
2020/01/31 02:02:06.3	95.470	-0.460	0.370	1.790
2020/01/31 02:02:06.4	95.470	-0.470	0.330	1.760
2020/01/31 02:02:06.5	95.470	-0.470	0.290	1.720
2020/01/31 02:02:06.6	95.480	-0.470	0.250	1.690
2020/01/31 02:02:06.7	95.480	-0.470	0.200	1.650
2020/01/31 02:02:06.8	95.480	-0.460	0.140	1.610
2020/01/31 02:02:06.9	95.480	-0.450	0.090	1.580
2020/01/31 02:02:07.0	95.470	-0.430	0.030	1.540
2020/01/31 02:02:07.1	95.470	-0.420	-0.020	1.500
2020/01/31 02:02:07.2	95.470	-0.400	-0.080	1.460
2020/01/31 02:02:07.3	95.460	-0.380	-0.130	1.420
2020/01/31 02:02:07.4	95.460	-0.360	-0.190	1.380
2020/01/31 02:02:07.5	95.450	-0.340	-0.240	1.340
2020/01/31 02:02:07.6	95.440	-0.320	-0.290	1.310
2020/01/31 02:02:07.7	95.430	-0.300	-0.330	1.270
2020/01/31 02:02:07.8	95.420	-0.280	-0.370	1.240
2020/01/31 02:02:07.9	95.410	-0.260	-0.410	1.200
2020/01/31 02:02:08.0	95.400	-0.240	-0.450	1.180
2020/01/31 02:02:08.1	95.380	-0.220	-0.480	1.140
2020/01/31 02:02:08.2	95.370	-0.200	-0.500	1.110
2020/01/31 02:02:08.3	95.360	-0.190	-0.520	1.080
2020/01/31 02:02:08.4	95.340	-0.170	-0.530	1.050
2020/01/31 02:02:08.5	95.330	-0.160	-0.540	1.020
2020/01/31 02:02:08.6	95.310	-0.150	-0.540	0.990
2020/01/31 02:02:08.7	95.300	-0.140	-0.540	0.960
2020/01/31 02:02:08.8	95.280	-0.140	-0.530	0.930
2020/01/31 02:02:08.9	95.270	-0.140	-0.520	0.900
2020/01/31 02:02:09.0	95.260	-0.130	-0.500	0.870
2020/01/31 02:02:09.1	95.250	-0.130	-0.480	0.840
2020/01/31 02:02:09.2	95.240	-0.140	-0.450	0.800
2020/01/31 02:02:09.3	95.220	-0.140	-0.420	0.770
2020/01/31 02:02:09.4	95.210	-0.150	-0.390	0.740
2020/01/31 02:02:09.5	95.200	-0.160	-0.350	0.700
2020/01/31 02:02:09.6	95.190	-0.170	-0.320	0.670
2020/01/31 02:02:09.7	95.190	-0.180	-0.280	0.630
2020/01/31 02:02:09.8	95.180	-0.190	-0.240	0.590
2020/01/31 02:02:09.9	95.170	-0.200	-0.200	0.550
2020/01/31 02:02:10.0	95.180	-0.210	-0.150	0.520
2020/01/31 02:02:10.1	95.180	-0.220	-0.110	0.470
2020/01/31 02:02:10.2	95.180	-0.240	-0.070	0.420
2020/01/31 02:02:10.3	95.180	-0.250	-0.030	0.380
2020/01/31 02:02:10.4	95.180	-0.260	0.000	0.330
2020/01/31 02:02:10.5	95.190	-0.270	0.040	0.270
2020/01/31 02:02:10.6	95.190	-0.280	0.070	0.220
2020/01/31 02:02:10.7	95.200	-0.290	0.100	0.160
2020/01/31 02:02:10.8	95.210	-0.300	0.130	0.100
2020/01/31 02:02:10.9	95.230	-0.310	0.160	0.040
2020/01/31 02:02:11.0	95.240	-0.310	0.180	-0.020
2020/01/31 02:02:11.1	95.260	-0.310	0.200	-0.080
2020/01/31 02:02:11.2	95.280	-0.310	0.210	-0.140
2020/01/31 02:02:11.3	95.300	-0.310	0.220	-0.190
2020/01/31 02:02:11.4	95.320	-0.310	0.230	-0.250
2020/01/31 02:02:11.5	95.340	-0.300	0.230	-0.310
2020/01/31 02:02:11.6	95.360	-0.290	0.230	-0.360
2020/01/31 02:02:11.7	95.390	-0.280	0.220	-0.420
2020/01/31 02:02:11.8	95.410	-0.260	0.210	-0.460
2020/01/31 02:02:11.9	95.440	-0.240	0.200	-0.510
2020/01/31 02:02:12.0	95.470	-0.220	0.180	-0.550
2020/01/31 02:02:12.1	95.500	-0.200	0.160	-0.580
2020/01/31 02:02:12.2	95.520	-0.180	0.140	-0.610
2020/01/31 02:02:12.3	95.540	-0.150	0.120	-0.640
2020/01/31 02:02:12.4	95.570	-0.120	0.090	-0.660
2020/01/31 02:02:12.5	95.590	-0.090	0.060	-0.670
2020/01/31 02:02:12.6	95.610	-0.060	0.030	-0.680
2020/01/31 02:02:12.7	95.630	-0.020	-0.000	-0.680
2020/01/31 02:02:12.8	95.640	0.010	-0.040	-0.680
2020/01/31 02:02:12.9	95.660	0.040	-0.070	-0.660
2020/01/31 02:02:13.0	95.670	0.080	-0.100	-0.640
2020/01/31 02:02:13.1	95.680	0.110	-0.140	-0.620
2020/01/31 02:02:13.2	95.680	0.150	-0.170	-0.590
2020/01/31 02:02:13.3	95.690	0.180	-0.200	-0.560
2020/01/31 02:02:13.4	95.690	0.210	-0.230	-0.520
2020/01/31 02:02:13.5	95.690	0.240	-0.250	-0.480
2020/01/31 02:02:13.6	95.690	0.270	-0.280	-0.440
2020/01/31 02:02:13.7	95.680	0.290	-0.300	-0.390
2020/01/31 02:02:13.8	95.670	0.320	-0.320	-0.340
2020/01/31 02:02:13.9	95.660	0.340	-0.340	-0.290
2020/01/31 02:02:14.0	95.660	0.360	-0.340	-0.230
2020/01/31 02:02:14.1	95.640	0.370	-0.360	-0.170
2020/01/31 02:02:14.2	95.620	0.390	-0.370	-0.120
2020/01/31 02:02:14.3	95.600	0.400	-0.370	-0.060
2020/01/31 02:02:14.4	95.580	0.410	-0.380	-0.000
2020/01/31 02:02:14.5	95.560	0.410	-0.380	0.050
2020/01/31 02:02:14.6	95.540	0.420	-0.380	0.110
2020/01/31 02:02:14.7	95.510	0.420	-0.380	0.170
2020/01/31 02:02:14.8	95.480	0.420	-0.380	0.220
2020/01/31 02:02:14.9	95.460	0.410	-0.380	0.280
2020/01/31 02:02:15.0	95.430	0.410	-0.380	0.330
2020/01/31 02:02:15.1	95.400	0.400	-0.380	0.380
2020/01/31 02:02:15.2	95.380	0.390	-0.370	0.440
2020/01/31 02:02:15.3	95.350	0.380	-0.370	0.490
2020/01/31 02:02:15.4	95.320	0.370	-0.360	0.540
2020/01/31 02:02:15.5	95.300	0.350	-0.360	0.590
2020/01/31 02:02:15.6	95.270	0.340	-0.360	0.640
2020/01/31 02:02:15.7	95.250	0.330	-0.360	0.690
2020/01/31 02:02:15.8	95.220	0.320	-0.360	0.740
2020/01/31 02:02:15.9	95.200	0.300	-0.350	0.790
2020/01/31 02:02:16.0	95.190	0.290	-0.350	0.840
2020/01/31 02:02:16.1	95.170	0.280	-0.350	0.890
2020/01/31 02:02:16.2	95.150	0.270	-0.350	0.940
2020/01/31 02:02:16.3	95.130	0.260	-0.350	1.000
2020/01/31 02:02:16.4	95.110	0.250	-0.350	1.050
2020/01/31 02:02:16.5	95.090	0.240	-0.360	1.100
2020/01/31 02:02:16.6	95.070	0.230	-0.360	1.150
2020/01/31 02:02:16.7	95.050	0.230	-0.360	1.210
2020/01/31 02:02:16.8	95.030	0.220	-0.360	1.260
2020/01/31 02:02:16.9	95.020	0.220	-0.360	1.310
2020/01/31 02:02:17.0	95.000	0.210	-0.370	1.370
2020/01/31 02:02:17.1	94.990	0.210	-0.370	1.420
2020/01/31 02:02:17.2	94.980	0.210	-0.360	1.460
2020/01/31 02:02:17.3	94.970	0.210	-0.360	1.510
2020/01/31 02:02:17.4	94.960	0.210	-0.360	1.550
2020/01/31 02:02:17.5	94.960	0.210	-0.350	1.600
2020/01/31 02:02:17.6	94.960	0.200	-0.340	1.640
2020/01/31 02:02:17.7	94.960	0.200	-0.340	1.670
2020/01/31 02:02:17.8	94.960	0.200	-0.330	1.710
2020/01/31 02:02:17.9	94.970	0.200	-0.320	1.740
2020/01/31 02:02:18.0	94.980	0.200	-0.300	1.770
2020/01/31 02:02:18.1	94.990	0.190	-0.290	1.800
2020/01/31 02:02:18.2	95.000	0.190	-0.270	1.820
2020/01/31 02:02:18.3	95.020	0.180	-0.260	1.840
2020/01/31 02:02:18.4	95.040	0.180	-0.240	1.860
2020/01/31 02:02:18.5	95.050	0.170	-0.220	1.880
2020/01/31 02:02:18.6	95.070	0.160	-0.200	1.880
2020/01/31 02:02:18.7	95.090	0.160	-0.180	1.890
2020/01/31 02:02:18.8				
2020/01/31 02:02:18.9	95.110	0.150	-0.160	1.900
2020/01/31 02:02:19.0	95.140	0.120	-0.120	1.890
2020/01/31 02:02:19.1	95.170	0.110	-0.090	1.890
2020/01/31 02:02:19.2	95.190	0.100	-0.070	1.880
2020/01/31 02:02:19.3	95.210	0.080	-0.050	1.870
2020/01/31 02:02:19.4	95.230	0.060	-0.020	1.850
2020/01/31 02:02:19.5	95.260	0.050	-0.000	1.840
2020/01/31 02:02:19.6	95.280	0.030	0.020	1.820
2020/01/31 02:02:19.7	95.300	0.010	0.040	1.800
2020/01/31 02:02:19.8	95.310	-0.010	0.070	1.780
2020/01/31 02:02:19.9	95.330	-0.020	0.090	1.760
2020/01/31 02:02:20.0	95.350	-0.040	0.110	1.740
2020/01/31 02:02:20.1	95.360	-0.060	0.130	1.720
2020/01/31 02:02:20.2	95.370	-0.080	0.150	1.700
2020/01/31 02:02:20.3	95.390	-0.100	0.170	1.670
2020/01/31 02:02:20.4	95.400	-0.120	0.190	1.650
2020/01/31 02:02:20.5	95.400	-0.140	0.210	1.630
2020/01/31 02:02:20.6	95.410	-0.160	0.230	1.600
2020/01/31 02:02:20.7	95.420	-0.180	0.250	1.580
2020/01/31 02:02:20.8	95.420	-0.190	0.260	1.560
2020/01/31 02:02:20.9	95.420	-0.210	0.270	1.530
2020/01/31 02:02:21.0	95.420	-0.230	0.290	1.510
2020/01/31 02:02:21.1	95.420	-0.240	0.300	1.490
2020/01/31 02:02:21.2	95.420	-0.260	0.310	1.460
2020/01/31 02:02:21.3	95.410	-0.270	0.320	1.440
2020/01/31 02:02:21.4	95.410	-0.290	0.320	1.420
2020/01/31 02:02:21.5	95.400	-0.300	0.330	1.400
2020/01/31 02:02:21.6	95.400	-0.310	0.330	1.380
2020/01/31 02:02:21.7	95.390	-0.320	0.330	1.360
2020/01/31 02:02:21.8	95.380	-0.330	0.320	1.330
2020/01/31 02:02:21.9	95.370	-0.340	0.320	1.310
2020/01/31 02:02:22.0	95.350	-0.340	0.310	1.300
2020/01/31 02:02:22.1	95.340	-0.350	0.290	1.280
2020/01/31 02:02:22.2	95.330	-0.350	0.280	1.250
2020/01/31 02:02:22.3	95.320	-0.360	0.260	1.230
2020/01/31 02:02:22.4	95.310	-0.360	0.240	1.210
2020/01/31 02:02:22.5	95.290	-0.360	0.220	1.190
2020/01/31 02:02:22.6	95.280	-0.360	0.190	1.170
2020/01/31 02:02:22.7	95.270	-0.360	0.170	1.140
2020/01/31 02:02:22.8	95.260	-0.350	0.130	1.120
2020/01/31 02:02:22.9	95.240	-0.350	0.100	1.100
2020/01/31 02:02:23.0				
2020/01/31 02:02:23.1	95.220	-0.340	0.060	1.070
2020/01/31 02:02:23.2	95.200	-0.330	-0.020	1.020
2020/01/31 02:02:23.3	95.180	-0.320	-0.060	0.990
2020/01/31 02:02:23.4	95.170	-0.310	-0.110	0.970
2020/01/31 02:02:23.5	95.160	-0.300	-0.160	0.940
2020/01/31 02:02:23.6	95.150	-0.290	-0.210	0.910
2020/01/31 02:02:23.7	95.130	-0.280	-0.260	0.880
2020/01/31 02:02:23.8	95.120	-0.270	-0.320	0.860
2020/01/31 02:02:23.9	95.110	-0.250	-0.370	0.830
2020/01/31 02:02:24.0	95.100	-0.240	-0.420	0.800
2020/01/31 02:02:24.1	95.090	-0.230	-0.470	0.770
2020/01/31 02:02:24.2	95.070	-0.210	-0.520	0.740
2020/01/31 02:02:24.3	95.060	-0.200	-0.570	0.710
2020/01/31 02:02:24.4	95.050	-0.190	-0.620	0.670
2020/01/31 02:02:24.5	95.040	-0.170	-0.660	0.640
2020/01/31 02:02:24.6	95.030	-0.160	-0.710	0.610
2020/01/31 02:02:24.7	95.020	-0.150	-0.740	0.580
2020/01/31 02:02:24.8	95.010	-0.140	-0.780	0.550
2020/01/31 02:02:24.9	95.000	-0.120	-0.810	0.510
2020/01/31 02:02:25.0	95.000	-0.110	-0.830	0.480
2020/01/31 02:02:25.1				
2020/01/31 02:02:25.2	94.990	-0.100	-0.850	0.450
2020/01/31 02:02:25.3	94.970	-0.080	-0.880	0.390
2020/01/31 02:02:25.4	94.960	-0.070	-0.880	0.350
2020/01/31 02:02:25.5	94.960	-0.060	-0.890	0.320
2020/01/31 02:02:25.6	94.960	-0.060	-0.880	0.290
2020/01/31 02:02:25.7	94.950	-0.050	-0.870	0.260
2020/01/31 02:02:25.8	94.950	-0.040	-0.850	0.230
2020/01/31 02:02:25.9	94.950	-0.040	-0.830	0.200
2020/01/31 02:02:26.0	94.970	-0.040	-0.810	0.180
2020/01/31 02:02:26.1	94.970	-0.030	-0.770	0.150
2020/01/31 02:02:26.2	94.980	-0.030	-0.740	0.130
2020/01/31 02:02:26.3	94.980	-0.030	-0.690	0.100
2020/01/31 02:02:26.4	94.990	-0.030	-0.650	0.080
2020/01/31 02:02:26.5	95.000	-0.030	-0.600	0.060
2020/01/31 02:02:26.6	95.020	-0.040	-0.540	0.040
2020/01/31 02:02:26.7	95.030	-0.040	-0.480	0.020
2020/01/31 02:02:26.8	95.040	-0.040	-0.430	0.010
2020/01/31 02:02:26.9	95.050	-0.050	-0.360	-0.010
2020/01/31 02:02:27.0	95.060	-0.050	-0.300	-0.020
2020/01/31 02:02:27.1	95.070	-0.050	-0.230	-0.020
2020/01/31 02:02:27.2				
2020/01/31 02:02:27.3	95.090	-0.060	-0.170	-0.030
2020/01/31 02:02:27.4	95.120	-0.070	-0.040	-0.040
2020/01/31 02:02:27.5	95.130	-0.070	0.020	-0.030
2020/01/31 02:02:27.6	95.150	-0.070	0.070	-0.030
2020/01/31 02:02:27.7	95.160	-0.080	0.130	-0.030
2020/01/31 02:02:27.8	95.170	-0.080	0.180	-0.020
2020/01/31 02:02:27.9	95.190	-0.080	0.230	-0.020
2020/01/31 02:02:28.0	95.210	-0.080	0.280	-0.000
2020/01/31 02:02:28.1	95.220	-0.080	0.320	0.010
2020/01/31 02:02:28.2	95.230	-0.080	0.350	0.010
2020/01/31 02:02:28.3	95.250	-0.080	0.390	0.020
2020/01/31 02:02:28.4	95.260	-0.080	0.420	0.030
2020/01/31 02:02:28.5	95.270	-0.080	0.440	0.040
2020/01/31 02:02:28.6	95.290	-0.070	0.460	0.060
2020/01/31 02:02:28.7	95.300	-0.070	0.470	0.070
2020/01/31 02:02:28.8	95.310	-0.060	0.480	0.080
2020/01/31 02:02:28.9	95.330	-0.050	0.480	0.090
2020/01/31 02:02:29.0	95.350	-0.040	0.480	0.110
2020/01/31 02:02:29.1	95.360	-0.030	0.480	0.120
2020/01/31 02:02:29.2	95.370	-0.020	0.470	0.140
2020/01/31 02:02:29.3	95.380	-0.010	0.450	0.160
2020/01/31 02:02:29.4	95.390	0.010	0.430	0.180
2020/01/31 02:02:29.5	95.390	0.020	0.410	0.200
2020/01/31 02:02:29.6	95.400	0.040	0.380	0.220
2020/01/31 02:02:29.7	95.400	0.060	0.350	0.250
2020/01/31 02:02:29.8	95.400	0.070	0.310	0.270
2020/01/31 02:02:29.9	95.400	0.090	0.280	0.300
2020/01/31 02:02:30.0	95.390	0.110	0.230	0.340
2020/01/31 02:02:30.1	95.390	0.130	0.190	0.370
2020/01/31 02:02:30.2	95.380	0.150	0.150	0.410
2020/01/31 02:02:30.3	95.370	0.170	0.110	0.450
2020/01/31 02:02:30.4	95.350	0.190	0.060	0.500
2020/01/31 02:02:30.5	95.340	0.210	0.020	0.540
2020/01/31 02:02:30.6	95.320	0.230	-0.030	0.590
2020/01/31 02:02:30.7	95.300	0.250	-0.070	0.640
2020/01/31 02:02:30.8	95.270	0.270	-0.120	0.690
2020/01/31 02:02:30.9	95.250	0.290	-0.160	0.750
2020/01/31 02:02:31.0	95.230	0.300	-0.200	0.810
2020/01/31 02:02:31.1	95.200	0.320	-0.240	0.860
2020/01/31 02:02:31.2	95.170	0.330	-0.270	0.920
2020/01/31 02:02:31.3	95.140	0.340	-0.300	0.980
2020/01/31 02:02:31.4				
2020/01/31 02:02:31.5	95.110	0.360	-0.330	1.040
2020/01/31 02:02:31.6	95.060	0.370	-0.380	1.150
2020/01/31 02:02:31.7	95.030	0.380	-0.400	1.210
2020/01/31 02:02:31.8	95.000	0.380	-0.420	1.260
2020/01/31 02:02:31.9	94.980	0.380	-0.440	1.310
2020/01/31 02:02:32.0	94.960	0.380	-0.450	1.360
2020/01/31 02:02:32.1	94.940	0.380	-0.450	1.410
2020/01/31 02:02:32.2	94.930	0.370	-0.460	1.450
2020/01/31 02:02:32.3	94.910	0.370	-0.460	1.490
2020/01/31 02:02:32.4	94.900	0.360	-0.460	1.520
2020/01/31 02:02:32.5	94.890	0.350	-0.460	1.550
2020/01/31 02:02:32.6	94.880	0.340	-0.460	1.580
2020/01/31 02:02:32.7	94.880	0.330	-0.450	1.600
2020/01/31 02:02:32.8	94.880	0.310	-0.450	1.620
2020/01/31 02:02:32.9	94.880	0.300	-0.440	1.630
2020/01/31 02:02:33.0	94.890	0.280	-0.430	1.640
2020/01/31 02:02:33.1	94.900	0.260	-0.420	1.640
2020/01/31 02:02:33.2	94.910	0.240	-0.410	1.640
2020/01/31 02:02:33.3	94.930	0.230	-0.400	1.630
2020/01/31 02:02:33.4	94.950	0.210	-0.390	1.620
2020/01/31 02:02:33.5				
2020/01/31 02:02:33.6	94.970	0.190	-0.390	1.610
2020/01/31 02:02:33.7	95.010	0.150	-0.370	1.570
2020/01/31 02:02:33.8	95.040	0.130	-0.360	1.540
2020/01/31 02:02:33.9	95.070	0.120	-0.350	1.520
2020/01/31 02:02:34.0	95.080	0.100	-0.350	1.490
2020/01/31 02:02:34.1	95.110	0.080	-0.340	1.470
2020/01/31 02:02:34.2	95.150	0.070	-0.340	1.440
2020/01/31 02:02:34.3	95.180	0.050	-0.330	1.410
2020/01/31 02:02:34.4	95.210	0.040	-0.320	1.380
2020/01/31 02:02:34.5	95.240	0.030	-0.320	1.360
2020/01/31 02:02:34.6	95.270	0.020	-0.310	1.330
2020/01/31 02:02:34.7	95.300	0.000	-0.310	1.310
2020/01/31 02:02:34.8	95.330	-0.010	-0.300	1.290
2020/01/31 02:02:34.9	95.350	-0.020	-0.290	1.280
2020/01/31 02:02:35.0	95.370	-0.020	-0.290	1.260
2020/01/31 02:02:35.1	95.390	-0.030	-0.280	1.250
2020/01/31 02:02:35.2	95.410	-0.040	-0.270	1.250
2020/01/31 02:02:35.3	95.430	-0.050	-0.260	1.240
2020/01/31 02:02:35.4	95.440	-0.060	-0.250	1.240
2020/01/31 02:02:35.5	95.450	-0.060	-0.230	1.240
2020/01/31 02:02:35.6				
2020/01/31 02:02:35.7	95.460	-0.070	-0.220	1.250
2020/01/31 02:02:35.8	95.470	-0.090	-0.190	1.270
2020/01/31 02:02:35.9	95.470	-0.090	-0.170	1.280
2020/01/31 02:02:36.0	95.480	-0.100	-0.150	1.290
2020/01/31 02:02:36.1	95.470	-0.110	-0.130	1.310
2020/01/31 02:02:36.2	95.460	-0.110	-0.110	1.320
2020/01/31 02:02:36.3	95.450	-0.120	-0.090	1.340
2020/01/31 02:02:36.4	95.440	-0.130	-0.070	1.360
2020/01/31 02:02:36.5	95.420	-0.140	-0.050	1.370
2020/01/31 02:02:36.6	95.410	-0.150	-0.020	1.390
2020/01/31 02:02:36.7	95.390	-0.160	0.000	1.400
2020/01/31 02:02:36.8	95.370	-0.160	0.030	1.420
2020/01/31 02:02:36.9	95.360	-0.170	0.050	1.430
2020/01/31 02:02:37.0	95.340	-0.180	0.080	1.440
2020/01/31 02:02:37.1	95.310	-0.190	0.100	1.450
2020/01/31 02:02:37.2	95.290	-0.200	0.130	1.460
2020/01/31 02:02:37.3	95.270	-0.210	0.150	1.460
2020/01/31 02:02:37.4	95.250	-0.220	0.170	1.470
2020/01/31 02:02:37.5	95.230	-0.230	0.190	1.470
2020/01/31 02:02:37.6	95.210	-0.240	0.210	1.460
2020/01/31 02:02:37.7				
2020/01/31 02:02:37.8	95.180	-0.250	0.230	1.460
2020/01/31 02:02:37.9	95.140	-0.260	0.260	1.440
2020/01/31 02:02:38.0	95.120	-0.270	0.270	1.430
2020/01/31 02:02:38.1	95.100	-0.270	0.280	1.410
2020/01/31 02:02:38.2	95.070	-0.270	0.280	1.390
2020/01/31 02:02:38.3	95.060	-0.280	0.280	1.370
2020/01/31 02:02:38.4	95.040	-0.280	0.270	1.340
2020/01/31 02:02:38.5	95.020	-0.280	0.260	1.320
2020/01/31 02:02:38.6	95.010	-0.270	0.250	1.280
2020/01/31 02:02:38.7	94.990	-0.270	0.240	1.250
2020/01/31 02:02:38.8	94.980	-0.260	0.210	1.210
2020/01/31 02:02:38.9	94.970	-0.250	0.190	1.170
2020/01/31 02:02:39.0	94.980	-0.240	0.160	1.130
2020/01/31 02:02:39.1	94.980	-0.230	0.130	1.090
2020/01/31 02:02:39.2	94.970	-0.210	0.090	1.040
2020/01/31 02:02:39.3	94.970	-0.200	0.050	0.990
2020/01/31 02:02:39.4	94.980	-0.180	0.010	0.940
2020/01/31 02:02:39.5	94.980	-0.160	-0.040	0.890
2020/01/31 02:02:39.6	94.990	-0.130	-0.090	0.840
2020/01/31 02:02:39.7	94.990	-0.110	-0.140	0.790
2020/01/31 02:02:39.8	95.000	-0.080	-0.190	0.740
2020/01/31 02:02:39.9	95.010	-0.060	-0.240	0.690
2020/01/31 02:02:40.0	95.030	-0.030	-0.290	0.640
2020/01/31 02:02:40.1	95.040	-0.000	-0.340	0.590
2020/01/31 02:02:40.2	95.050	0.030	-0.380	0.540
2020/01/31 02:02:40.3	95.070	0.060	-0.430	0.490
2020/01/31 02:02:40.4	95.080	0.090	-0.480	0.440
2020/01/31 02:02:40.5	95.090	0.110	-0.520	0.390
2020/01/31 02:02:40.6	95.100	0.140	-0.560	0.340
2020/01/31 02:02:40.7	95.110	0.170	-0.590	0.290
2020/01/31 02:02:40.8	95.120	0.190	-0.620	0.240
2020/01/31 02:02:40.9	95.130	0.210	-0.640	0.190
2020/01/31 02:02:41.0	95.150	0.230	-0.670	0.150
2020/01/31 02:02:41.1	95.160	0.250	-0.680	0.100
2020/01/31 02:02:41.2	95.170	0.270	-0.690	0.050
2020/01/31 02:02:41.3	95.180	0.280	-0.690	0.010
2020/01/31 02:02:41.4	95.180	0.290	-0.690	-0.040
2020/01/31 02:02:41.5	95.190	0.300	-0.690	-0.080
2020/01/31 02:02:41.6	95.200	0.310	-0.670	-0.130
2020/01/31 02:02:41.7	95.210	0.310	-0.660	-0.170
2020/01/31 02:02:41.8	95.210	0.310	-0.630	-0.200
2020/01/31 02:02:41.9				
2020/01/31 02:02:42.0	95.220	0.300	-0.610	-0.240
2020/01/31 02:02:42.1	95.230	0.290	-0.540	-0.300
2020/01/31 02:02:42.2	95.230	0.270	-0.500	-0.330
2020/01/31 02:02:42.3	95.230	0.260	-0.460	-0.350
2020/01/31 02:02:42.4	95.230	0.240	-0.420	-0.370
2020/01/31 02:02:42.5	95.230	0.220	-0.370	-0.390
2020/01/31 02:02:42.6	95.220	0.190	-0.320	-0.400
2020/01/31 02:02:42.7	95.220	0.170	-0.270	-0.410
2020/01/31 02:02:42.8	95.210	0.140	-0.220	-0.410
2020/01/31 02:02:42.9	95.200	0.110	-0.160	-0.410
2020/01/31 02:02:43.0	95.200	0.080	-0.110	-0.410
2020/01/31 02:02:43.1	95.190	0.050	-0.050	-0.400
2020/01/31 02:02:43.2	95.180	0.010	-0.000	-0.380
2020/01/31 02:02:43.3	95.160	-0.020	0.050	-0.360
2020/01/31 02:02:43.4	95.150	-0.060	0.100	-0.340
2020/01/31 02:02:43.5	95.140	-0.090	0.140	-0.310
2020/01/31 02:02:43.6	95.120	-0.120	0.190	-0.280
2020/01/31 02:02:43.7	95.110	-0.160	0.220	-0.240
2020/01/31 02:02:43.8	95.090	-0.190	0.260	-0.210
2020/01/31 02:02:43.9	95.080	-0.220	0.290	-0.170
2020/01/31 02:02:44.0				
2020/01/31 02:02:44.1	95.060	-0.250	0.310	-0.110
2020/01/31 02:02:44.2	95.040	-0.300	0.350	-0.020
2020/01/31 02:02:44.3	95.030	-0.320	0.360	0.030
2020/01/31 02:02:44.4	95.020	-0.340	0.360	0.080
2020/01/31 02:02:44.5	95.010	-0.360	0.360	0.140
2020/01/31 02:02:44.6	95.000	-0.370	0.350	0.190
2020/01/31 02:02:44.7	94.990	-0.380	0.330	0.240
2020/01/31 02:02:44.8	94.990	-0.390	0.310	0.300
2020/01/31 02:02:44.9	94.980	-0.400	0.290	0.360
2020/01/31 02:02:45.0	94.990	-0.400	0.260	0.410
2020/01/31 02:02:45.1	94.980	-0.400	0.220	0.470
2020/01/31 02:02:45.2	94.980	-0.390	0.180	0.530
2020/01/31 02:02:45.3	94.990	-0.380	0.130	0.590
2020/01/31 02:02:45.4	94.990	-0.370	0.080	0.650
2020/01/31 02:02:45.5	94.990	-0.360	0.030	0.710
2020/01/31 02:02:45.6	94.990	-0.340	-0.020	0.770
2020/01/31 02:02:45.7	95.000	-0.320	-0.080	0.830
2020/01/31 02:02:45.8	95.010	-0.300	-0.140	0.890
2020/01/31 02:02:45.9	95.010	-0.280	-0.190	0.950
2020/01/31 02:02:46.0	95.020	-0.250	-0.250	1.010
2020/01/31 02:02:46.1				
2020/01/31 02:02:46.2	95.030	-0.230	-0.300	1.070
2020/01/31 02:02:46.3	95.040	-0.180	-0.410	1.180
2020/01/31 02:02:46.4	95.050	-0.150	-0.460	1.230
2020/01/31 02:02:46.5	95.060	-0.120	-0.500	1.280
2020/01/31 02:02:46.6	95.070	-0.100	-0.540	1.330
2020/01/31 02:02:46.7	95.070	-0.070	-0.570	1.380
2020/01/31 02:02:46.8	95.080	-0.050	-0.600	1.420
2020/01/31 02:02:46.9	95.090	-0.030	-0.620	1.470
2020/01/31 02:02:47.0	95.080	-0.010	-0.640	1.510
2020/01/31 02:02:47.1	95.090	0.010	-0.640	1.550
2020/01/31 02:02:47.2	95.090	0.030	-0.650	1.590
2020/01/31 02:02:47.3	95.090	0.040	-0.640	1.620
2020/01/31 02:02:47.4	95.100	0.050	-0.630	1.650
2020/01/31 02:02:47.5	95.100	0.060	-0.610	1.680
2020/01/31 02:02:47.6	95.100	0.070	-0.590	1.710
2020/01/31 02:02:47.7	95.090	0.080	-0.560	1.730
2020/01/31 02:02:47.8	95.090	0.080	-0.520	1.750
2020/01/31 02:02:47.9	95.090	0.080	-0.480	1.770
2020/01/31 02:02:48.0	95.080	0.080	-0.430	1.790
2020/01/31 02:02:48.1	95.070	0.080	-0.380	1.800
2020/01/31 02:02:48.2				
2020/01/31 02:02:48.3	95.070	0.080	-0.330	1.810
2020/01/31 02:02:48.4	95.050	0.060	-0.210	1.820
2020/01/31 02:02:48.5	95.040	0.060	-0.150	1.820
2020/01/31 02:02:48.6	95.040	0.050	-0.090	1.810
2020/01/31 02:02:48.7	95.030	0.040	-0.030	1.810
2020/01/31 02:02:48.8	95.020	0.030	0.030	1.800
2020/01/31 02:02:48.9	95.010	0.020	0.090	1.790
2020/01/31 02:02:49.0	94.990	0.010	0.150	1.780
2020/01/31 02:02:49.1	94.980	0.000	0.200	1.770
2020/01/31 02:02:49.2	94.970	-0.000	0.250	1.760
2020/01/31 02:02:49.3	94.960	-0.010	0.300	1.740
2020/01/31 02:02:49.4	94.940	-0.020	0.340	1.720
2020/01/31 02:02:49.5	94.930	-0.020	0.380	1.700
2020/01/31 02:02:49.6	94.920	-0.020	0.410	1.670
2020/01/31 02:02:49.7	94.910	-0.020	0.440	1.650
2020/01/31 02:02:49.8	94.900	-0.020	0.450	1.620
2020/01/31 02:02:49.9	94.890	-0.010	0.470	1.590
2020/01/31 02:02:50.0	94.880	-0.000	0.470	1.560
2020/01/31 02:02:50.1	94.870	0.010	0.470	1.530
2020/01/31 02:02:50.2	94.860	0.020	0.460	1.500
2020/01/31 02:02:50.3				
2020/01/31 02:02:50.4	94.850	0.030	0.440	1.460
2020/01/31 02:02:50.5	94.820	0.070	0.390	1.390
2020/01/31 02:02:50.6	94.820	0.090	0.360	1.350
2020/01/31 02:02:50.7	94.810	0.120	0.320	1.300
2020/01/31 02:02:50.8	94.800	0.140	0.270	1.260
2020/01/31 02:02:50.9	94.790	0.170	0.220	1.210
2020/01/31 02:02:51.0	94.790	0.200	0.160	1.160
2020/01/31 02:02:51.1	94.790	0.230	0.100	1.110
2020/01/31 02:02:51.2	94.790	0.260	0.040	1.050
2020/01/31 02:02:51.3	94.790	0.290	-0.020	1.000
2020/01/31 02:02:51.4	94.790	0.330	-0.090	0.940
2020/01/31 02:02:51.5	94.790	0.360	-0.160	0.880
2020/01/31 02:02:51.6	94.790	0.390	-0.230	0.820
2020/01/31 02:02:51.7	94.790	0.420	-0.300	0.760
2020/01/31 02:02:51.8	94.790	0.450	-0.360	0.700
2020/01/31 02:02:51.9	94.800	0.480	-0.430	0.650
2020/01/31 02:02:52.0	94.800	0.510	-0.490	0.590
2020/01/31 02:02:52.1	94.800	0.540	-0.550	0.530
2020/01/31 02:02:52.2	94.800	0.560	-0.610	0.480
2020/01/31 02:02:52.3	94.800	0.580	-0.660	0.420
2020/01/31 02:02:52.4				
2020/01/31 02:02:52.5	94.800	0.600	-0.710	0.370
2020/01/31 02:02:52.6	94.790	0.630	-0.780	0.280
2020/01/31 02:02:52.7	94.790	0.640	-0.810	0.230
2020/01/31 02:02:52.8	94.780	0.650	-0.840	0.190
2020/01/31 02:02:52.9	94.770	0.650	-0.850	0.150
2020/01/31 02:02:53.0	94.760	0.650	-0.860	0.120
2020/01/31 02:02:53.1	94.750	0.640	-0.870	0.090
2020/01/31 02:02:53.2	94.740	0.630	-0.870	0.060
2020/01/31 02:02:53.3	94.720	0.620	-0.860	0.030
2020/01/31 02:02:53.4	94.700	0.600	-0.850	0.010
2020/01/31 02:02:53.5	94.690	0.580	-0.830	-0.010
2020/01/31 02:02:53.6	94.670	0.560	-0.810	-0.020
2020/01/31 02:02:53.7	94.650	0.530	-0.780	-0.040
2020/01/31 02:02:53.8	94.630	0.500	-0.740	-0.050
2020/01/31 02:02:53.9	94.610	0.460	-0.710	-0.060
2020/01/31 02:02:54.0	94.590	0.430	-0.660	-0.060
2020/01/31 02:02:54.1	94.580	0.390	-0.620	-0.070
2020/01/31 02:02:54.2	94.560	0.350	-0.580	-0.070
2020/01/31 02:02:54.3	94.540	0.300	-0.530	-0.060
2020/01/31 02:02:54.4	94.530	0.260	-0.480	-0.060
2020/01/31 02:02:54.5				
2020/01/31 02:02:54.6	94.520	0.210	-0.430	-0.050
2020/01/31 02:02:54.7	94.500	0.110	-0.330	-0.040
2020/01/31 02:02:54.8	94.490	0.060	-0.280	-0.030
2020/01/31 02:02:54.9	94.490	0.010	-0.230	-0.020
2020/01/31 02:02:55.0	94.480	-0.030	-0.180	0.000
2020/01/31 02:02:55.1	94.480	-0.080	-0.130	0.020
2020/01/31 02:02:55.2	94.480	-0.130	-0.080	0.030
2020/01/31 02:02:55.3	94.480	-0.180	-0.040	0.050
2020/01/31 02:02:55.4	94.490	-0.220	0.010	0.070
2020/01/31 02:02:55.5	94.490	-0.260	0.050	0.090
2020/01/31 02:02:55.6	94.500	-0.300	0.090	0.110
2020/01/31 02:02:55.7	94.510	-0.340	0.130	0.130
2020/01/31 02:02:55.8	94.520	-0.380	0.160	0.160
2020/01/31 02:02:55.9	94.530	-0.410	0.200	0.190
2020/01/31 02:02:56.0	94.560	-0.440	0.230	0.220
2020/01/31 02:02:56.1	94.570	-0.470	0.260	0.250
2020/01/31 02:02:56.2	94.580	-0.500	0.280	0.280
2020/01/31 02:02:56.3	94.590	-0.520	0.310	0.320
2020/01/31 02:02:56.4	94.600	-0.540	0.330	0.360
2020/01/31 02:02:56.5	94.610	-0.560	0.350	0.400
2020/01/31 02:02:56.6				
2020/01/31 02:02:56.7	94.630	-0.570	0.360	0.440
2020/01/31 02:02:56.8	94.650	-0.600	0.390	0.530
2020/01/31 02:02:56.9	94.660	-0.600	0.390	0.580
2020/01/31 02:02:57.0	94.660	-0.610	0.400	0.630
2020/01/31 02:02:57.1	94.670	-0.610	0.400	0.680
2020/01/31 02:02:57.2	94.680	-0.620	0.400	0.730
2020/01/31 02:02:57.3	94.690	-0.620	0.400	0.780
2020/01/31 02:02:57.4	94.700	-0.610	0.400	0.840
2020/01/31 02:02:57.5	94.700	-0.610	0.390	0.890
2020/01/31 02:02:57.6	94.710	-0.610	0.380	0.940
2020/01/31 02:02:57.7	94.720	-0.600	0.370	1.000
2020/01/31 02:02:57.8	94.720	-0.590	0.360	1.050
2020/01/31 02:02:57.9	94.720	-0.580	0.340	1.100
2020/01/31 02:02:58.0				
2020/01/31 02:02:58.1	94.730	-0.580	0.320	1.160
2020/01/31 02:02:58.2	94.740	-0.560	0.280	1.260
2020/01/31 02:02:58.3	94.740	-0.550	0.260	1.310
2020/01/31 02:02:58.4	94.740	-0.530	0.230	1.360
2020/01/31 02:02:58.5				
2020/01/31 02:02:58.6	94.740	-0.520	0.210	1.410
2020/01/31 02:02:58.7				
2020/01/31 02:02:58.8	94.740	-0.500	0.150	1.500
2020/01/31 02:02:58.9	94.740	-0.470	0.080	1.580
2020/01/31 02:02:59.0	94.740	-0.460	0.050	1.620
2020/01/31 02:02:59.1	94.740	-0.450	0.020	1.660
2020/01/31 02:02:59.2	94.740	-0.430	-0.020	1.690
2020/01/31 02:02:59.3	94.740	-0.420	-0.050	1.710
2020/01/31 02:02:59.4	94.740	-0.410	-0.080	1.740
2020/01/31 02:02:59.5	94.740	-0.390	-0.110	1.760
2020/01/31 02:02:59.6	94.740	-0.380	-0.140	1.770
2020/01/31 02:02:59.7	94.740	-0.360	-0.170	1.780
2020/01/31 02:02:59.8	94.740	-0.350	-0.200	1.790
2020/01/31 02:02:59.9	94.740	-0.330	-0.230	1.790
2020/01/31 02:03:00.0				
2020/01/31 02:03:00.1	94.730	-0.320	-0.250	1.800
2020/01/31 02:03:00.2	94.740	-0.280	-0.300	1.790
2020/01/31 02:03:00.3	94.740	-0.260	-0.320	1.780
2020/01/31 02:03:00.4	94.740	-0.240	-0.330	1.770
2020/01/31 02:03:00.5	94.740	-0.220	-0.350	1.760
2020/01/31 02:03:00.6				
2020/01/31 02:03:00.7	94.740	-0.200	-0.360	1.740
2020/01/31 02:03:00.8				
2020/01/31 02:03:00.9	94.750	-0.160	-0.380	1.700
2020/01/31 02:03:01.0	94.750	-0.110	-0.390	1.660
2020/01/31 02:03:01.1	94.750	-0.080	-0.400	1.640
2020/01/31 02:03:01.2	94.750	-0.060	-0.400	1.610
2020/01/31 02:03:01.3	94.750	-0.030	-0.410	1.580
2020/01/31 02:03:01.4	94.750	0.000	-0.410	1.560
2020/01/31 02:03:01.5	94.750	0.030	-0.410	1.530
2020/01/31 02:03:01.6	94.750	0.060	-0.410	1.500
2020/01/31 02:03:01.7	94.750	0.090	-0.420	1.470
2020/01/31 02:03:01.8	94.740	0.120	-0.420	1.440
2020/01/31 02:03:01.9	94.740	0.150	-0.420	1.410
2020/01/31 02:03:02.0	94.740	0.180	-0.420	1.370
2020/01/31 02:03:02.1	94.730	0.210	-0.420	1.340
2020/01/31 02:03:02.2	94.730	0.240	-0.420	1.310
2020/01/31 02:03:02.3	94.720	0.270	-0.420	1.280
2020/01/31 02:03:02.4	94.710	0.300	-0.420	1.260
2020/01/31 02:03:02.5	94.700	0.330	-0.420	1.230
2020/01/31 02:03:02.6	94.690	0.360	-0.420	1.200
2020/01/31 02:03:02.7				
2020/01/31 02:03:02.8	94.680	0.380	-0.420	1.180
2020/01/31 02:03:02.9				
2020/01/31 02:03:03.0	94.650	0.430	-0.420	1.130
2020/01/31 02:03:03.1	94.630	0.460	-0.420	1.090
2020/01/31 02:03:03.2	94.610	0.480	-0.420	1.070
2020/01/31 02:03:03.3	94.600	0.490	-0.410	1.040
2020/01/31 02:03:03.4	94.580	0.510	-0.410	1.020
2020/01/31 02:03:03.5	94.560	0.510	-0.400	0.990
2020/01/31 02:03:03.6	94.540	0.520	-0.400	0.970
2020/01/31 02:03:03.7	94.520	0.520	-0.390	0.940
2020/01/31 02:03:03.8	94.500	0.530	-0.380	0.910
2020/01/31 02:03:03.9	94.490	0.520	-0.370	0.880
2020/01/31 02:03:04.0				
2020/01/31 02:03:04.1	94.470	0.520	-0.360	0.850
2020/01/31 02:03:04.2	94.430	0.500	-0.340	0.780
2020/01/31 02:03:04.3	94.420	0.490	-0.330	0.740
2020/01/31 02:03:04.4				
2020/01/31 02:03:04.5	94.400	0.480	-0.310	0.710
2020/01/31 02:03:04.6	94.370	0.440	-0.280	0.630
2020/01/31 02:03:04.7				
2020/01/31 02:03:04.8	94.360	0.420	-0.260	0.580
2020/01/31 02:03:04.9	94.350	0.400	-0.240	0.540
2020/01/31 02:03:05.0				
2020/01/31 02:03:05.1	94.350	0.350	-0.210	0.460
2020/01/31 02:03:05.2	94.340	0.300	-0.160	0.360
2020/01/31 02:03:05.3	94.330	0.270	-0.140	0.320
2020/01/31 02:03:05.4	94.330	0.250	-0.120	0.270
2020/01/31 02:03:05.5	94.330	0.220	-0.100	0.220
2020/01/31 02:03:05.6	94.330	0.190	-0.080	0.180
2020/01/31 02:03:05.7				
2020/01/31 02:03:05.8	94.330	0.170	-0.060	0.130
2020/01/31 02:03:05.9	94.340	0.110	-0.020	0.040
2020/01/31 02:03:06.0				
2020/01/31 02:03:06.1	94.350	0.090	0.010	0.000
2020/01/31 02:03:06.2	94.360	0.040	0.040	-0.070
2020/01/31 02:03:06.3	94.370	0.020	0.050	-0.110
2020/01/31 02:03:06.4	94.380	-0.000	0.060	-0.140
2020/01/31 02:03:06.5	94.390	-0.020	0.080	-0.170
2020/01/31 02:03:06.6	94.400	-0.040	0.090	-0.190
2020/01/31 02:03:06.7	94.410	-0.050	0.090	-0.210
2020/01/31 02:03:06.8	94.420	-0.060	0.100	-0.230
2020/01/31 02:03:06.9				
2020/01/31 02:03:07.0	94.430	-0.070	0.100	-0.250
2020/01/31 02:03:07.1				
2020/01/31 02:03:07.2	94.460	-0.090	0.100	-0.260
2020/01/31 02:03:07.3	94.490	-0.100	0.090	-0.270
2020/01/31 02:03:07.4	94.500	-0.100	0.080	-0.270
2020/01/31 02:03:07.5	94.510	-0.100	0.070	-0.270
2020/01/31 02:03:07.6	94.520	-0.090	0.060	-0.260
2020/01/31 02:03:07.7	94.540	-0.090	0.050	-0.250
2020/01/31 02:03:07.8	94.550	-0.080	0.030	-0.240
2020/01/31 02:03:07.9	94.570	-0.070	0.010	-0.220
2020/01/31 02:03:08.0				
2020/01/31 02:03:08.1	94.580	-0.060	-0.000	-0.200
2020/01/31 02:03:08.2	94.610	-0.030	-0.050	-0.160
2020/01/31 02:03:08.3	94.630	-0.010	-0.070	-0.140
2020/01/31 02:03:08.4	94.650	0.000	-0.100	-0.120
2020/01/31 02:03:08.5	94.660	0.020	-0.120	-0.100
2020/01/31 02:03:08.6	94.680	0.040	-0.150	-0.070
2020/01/31 02:03:08.7	94.700	0.060	-0.180	-0.050
2020/01/31 02:03:08.8	94.720	0.080	-0.210	-0.020
2020/01/31 02:03:08.9	94.740	0.100	-0.240	0.010
2020/01/31 02:03:09.0	94.760	0.120	-0.270	0.040
2020/01/31 02:03:09.1	94.780	0.140	-0.300	0.080
2020/01/31 02:03:09.2				
2020/01/31 02:03:09.3	94.800	0.150	-0.330	0.110
2020/01/31 02:03:09.4	94.840	0.190	-0.380	0.190
2020/01/31 02:03:09.5	94.860	0.200	-0.400	0.230
2020/01/31 02:03:09.6				
2020/01/31 02:03:09.7	94.880	0.210	-0.420	0.270
2020/01/31 02:03:09.8	94.910	0.230	-0.450	0.370
2020/01/31 02:03:09.9	94.920	0.240	-0.460	0.420
2020/01/31 02:03:10.0				
2020/01/31 02:03:10.1	94.930	0.240	-0.460	0.480
2020/01/31 02:03:10.2	94.940	0.240	-0.460	0.600
2020/01/31 02:03:10.3	94.950	0.240	-0.450	0.660
2020/01/31 02:03:10.4	94.950	0.230	-0.430	0.730
2020/01/31 02:03:10.5	94.950	0.220	-0.410	0.800
2020/01/31 02:03:10.6	94.950	0.210	-0.390	0.870
2020/01/31 02:03:10.7	94.950	0.190	-0.360	0.940
2020/01/31 02:03:10.8	94.940	0.170	-0.330	1.010
2020/01/31 02:03:10.9	94.930	0.150	-0.300	1.090
2020/01/31 02:03:11.0	94.910	0.130	-0.250	1.160
2020/01/31 02:03:11.1	94.900	0.100	-0.210	1.240
2020/01/31 02:03:11.2	94.880	0.080	-0.170	1.310
2020/01/31 02:03:11.3				
2020/01/31 02:03:11.4	94.870	0.050	-0.120	1.380
2020/01/31 02:03:11.5	94.850	0.020	-0.070	1.460
2020/01/31 02:03:11.6	94.810	-0.050	0.030	1.600
2020/01/31 02:03:11.7				
2020/01/31 02:03:11.8	94.780	-0.080	0.080	1.670
2020/01/31 02:03:11.9	94.730	-0.150	0.180	1.800
2020/01/31 02:03:12.0				
2020/01/31 02:03:12.1	94.700	-0.190	0.230	1.860
2020/01/31 02:03:12.2	94.650	-0.250	0.320	1.980
2020/01/31 02:03:12.3	94.620	-0.290	0.350	2.020
2020/01/31 02:03:12.4	94.590	-0.320	0.390	2.070
2020/01/31 02:03:12.5				
2020/01/31 02:03:12.6	94.570	-0.350	0.420	2.110
2020/01/31 02:03:12.7	94.520	-0.400	0.460	2.170
2020/01/31 02:03:12.8	94.490	-0.420	0.470	2.200
2020/01/31 02:03:12.9	94.470	-0.440	0.480	2.210
2020/01/31 02:03:13.0	94.450	-0.450	0.480	2.230
2020/01/31 02:03:13.1	94.430	-0.470	0.470	2.230
2020/01/31 02:03:13.2				
2020/01/31 02:03:13.3	94.410	-0.480	0.460	2.230
2020/01/31 02:03:13.4				
2020/01/31 02:03:13.5	94.380	-0.490	0.410	2.210
2020/01/31 02:03:13.6	94.360	-0.490	0.340	2.160
2020/01/31 02:03:13.7				
2020/01/31 02:03:13.8	94.350	-0.480	0.300	2.130
2020/01/31 02:03:13.9	94.340	-0.460	0.200	2.050
2020/01/31 02:03:14.0				
2020/01/31 02:03:14.1	94.330	-0.450	0.140	2.010
2020/01/31 02:03:14.2	94.330	-0.420	0.030	1.900
2020/01/31 02:03:14.3	94.340	-0.400	-0.030	1.840
2020/01/31 02:03:14.4				
2020/01/31 02:03:14.5	94.340	-0.370	-0.090	1.780
2020/01/31 02:03:14.6	94.360	-0.330	-0.220	1.660
2020/01/31 02:03:14.7	94.370	-0.300	-0.280	1.590
2020/01/31 02:03:14.8	94.380	-0.280	-0.340	1.530
2020/01/31 02:03:14.9	94.390	-0.250	-0.390	1.460
2020/01/31 02:03:15.0	94.420	-0.220	-0.450	1.390
2020/01/31 02:03:15.1	94.440	-0.200	-0.500	1.320
2020/01/31 02:03:15.2				
2020/01/31 02:03:15.3	94.450	-0.170	-0.540	1.250
2020/01/31 02:03:15.4	94.470	-0.140	-0.590	1.190
2020/01/31 02:03:15.5				
2020/01/31 02:03:15.6	94.510	-0.090	-0.660	1.050
2020/01/31 02:03:15.7	94.520	-0.070	-0.690	0.990
2020/01/31 02:03:15.8	94.560	-0.020	-0.730	0.860
2020/01/31 02:03:15.9	94.580	-0.000	-0.750	0.790
2020/01/31 02:03:16.0	94.580	0.020	-0.760	0.740
2020/01/31 02:03:16.1				
2020/01/31 02:03:16.2	94.600	0.040	-0.760	0.680
2020/01/31 02:03:16.3	94.630	0.070	-0.750	0.560
2020/01/31 02:03:16.4				
2020/01/31 02:03:16.5	94.650	0.080	-0.740	0.500
2020/01/31 02:03:16.6	94.680	0.100	-0.700	0.390
2020/01/31 02:03:16.7	94.690	0.110	-0.680	0.340
2020/01/31 02:03:16.8	94.700	0.120	-0.650	0.280
2020/01/31 02:03:16.9	94.710	0.120	-0.620	0.230
2020/01/31 02:03:17.0				
2020/01/31 02:03:17.1	94.720	0.130	-0.580	0.190
2020/01/31 02:03:17.2	94.730	0.130	-0.490	0.090
2020/01/31 02:03:17.3	94.740	0.130	-0.450	0.050
2020/01/31 02:03:17.4				
2020/01/31 02:03:17.5	94.750	0.120	-0.400	0.010
2020/01/31 02:03:17.6				
2020/01/31 02:03:17.7	94.760	0.110	-0.310	-0.070
2020/01/31 02:03:17.8	94.760	0.110	-0.260	-0.100
2020/01/31 02:03:17.9				
2020/01/31 02:03:18.0	94.770	0.090	-0.160	-0.160
2020/01/31 02:03:18.1				
2020/01/31 02:03:18.2	94.770	0.070	-0.070	-0.200
2020/01/31 02:03:18.3	94.770	0.060	-0.030	-0.220
2020/01/31 02:03:18.4				
2020/01/31 02:03:18.5	94.770	0.040	0.050	-0.240
2020/01/31 02:03:18.6	94.760	0.020	0.120	-0.250
2020/01/31 02:03:18.7	94.750	0.010	0.140	-0.260
2020/01/31 02:03:18.8	94.740	0.000	0.170	-0.250
2020/01/31 02:03:18.9	94.730	-0.010	0.190	-0.250
2020/01/31 02:03:19.0	94.730	-0.010	0.210	-0.230
2020/01/31 02:03:19.1				
2020/01/31 02:03:19.2	94.720	-0.020	0.220	-0.220
2020/01/31 02:03:19.3	94.710	-0.030	0.230	-0.210
2020/01/31 02:03:19.4	94.700	-0.040	0.240	-0.190
2020/01/31 02:03:19.5	94.670	-0.050	0.240	-0.140
2020/01/31 02:03:19.6				
2020/01/31 02:03:19.7	94.660	-0.050	0.230	-0.120
2020/01/31 02:03:19.8	94.640	-0.050	0.220	-0.090
2020/01/31 02:03:19.9				
2020/01/31 02:03:20.0	94.610	-0.060	0.200	-0.030
2020/01/31 02:03:20.1	94.580	-0.060	0.170	0.050
2020/01/31 02:03:20.2				
2020/01/31 02:03:20.3	94.560	-0.060	0.150	0.090
2020/01/31 02:03:20.4	94.530	-0.060	0.110	0.160
2020/01/31 02:03:20.5	94.510	-0.060	0.080	0.200
2020/01/31 02:03:20.6	94.500	-0.050	0.060	0.240
2020/01/31 02:03:20.7				
2020/01/31 02:03:20.8	94.480	-0.050	0.030	0.280
2020/01/31 02:03:20.9	94.460	-0.040	-0.020	0.360
2020/01/31 02:03:21.0				
2020/01/31 02:03:21.1	94.450	-0.030	-0.050	0.410
2020/01/31 02:03:21.2	94.430	-0.020	-0.110	0.480
2020/01/31 02:03:21.3	94.420	-0.010	-0.130	0.520
2020/01/31 02:03:21.4	94.410	-0.000	-0.160	0.560
2020/01/31 02:03:21.5				
2020/01/31 02:03:21.6	94.400	0.010	-0.190	0.600
2020/01/31 02:03:21.7	94.400	0.020	-0.210	0.630
2020/01/31 02:03:21.8				
2020/01/31 02:03:21.9	94.390	0.050	-0.270	0.700
2020/01/31 02:03:22.0				
2020/01/31 02:03:22.1	94.400	0.070	-0.310	0.760
2020/01/31 02:03:22.2	94.400	0.110	-0.360	0.820
2020/01/31 02:03:22.3	94.400	0.120	-0.380	0.850
2020/01/31 02:03:22.4	94.410	0.140	-0.400	0.870
2020/01/31 02:03:22.5	94.410	0.160	-0.430	0.900
2020/01/31 02:03:22.6	94.410	0.180	-0.450	0.930
2020/01/31 02:03:22.7				
2020/01/31 02:03:22.8	94.420	0.200	-0.470	0.950
2020/01/31 02:03:22.9	94.420	0.220	-0.490	0.980
2020/01/31 02:03:23.0	94.430	0.240	-0.500	1.010
2020/01/31 02:03:23.1	94.430	0.260	-0.530	1.030
2020/01/31 02:03:23.2	94.430	0.310	-0.560	1.090
2020/01/31 02:03:23.3	94.430	0.330	-0.570	1.120
2020/01/31 02:03:23.4	94.430	0.350	-0.580	1.140
2020/01/31 02:03:23.5	94.430	0.370	-0.590	1.170
2020/01/31 02:03:23.6	94.420	0.390	-0.590	1.200
2020/01/31 02:03:23.7				
2020/01/31 02:03:23.8	94.420	0.410	-0.600	1.220
2020/01/31 02:03:23.9				
2020/01/31 02:03:24.0	94.400	0.450	-0.600	1.270
2020/01/31 02:03:24.1	94.390	0.470	-0.590	1.300
2020/01/31 02:03:24.2	94.370	0.500	-0.570	1.340
2020/01/31 02:03:24.3	94.360	0.510	-0.560	1.360
2020/01/31 02:03:24.4	94.350	0.520	-0.540	1.380
2020/01/31 02:03:24.5	94.330	0.530	-0.520	1.390
2020/01/31 02:03:24.6	94.320	0.530	-0.500	1.410
2020/01/31 02:03:24.7	94.300	0.530	-0.480	1.420
2020/01/31 02:03:24.8	94.290	0.530	-0.450	1.430
2020/01/31 02:03:24.9	94.270	0.530	-0.420	1.440
2020/01/31 02:03:25.0				
2020/01/31 02:03:25.1	94.260	0.530	-0.390	1.450
2020/01/31 02:03:25.2	94.230	0.500	-0.310	1.460
2020/01/31 02:03:25.3	94.210	0.490	-0.270	1.460
2020/01/31 02:03:25.4	94.190	0.470	-0.220	1.460
2020/01/31 02:03:25.5				
2020/01/31 02:03:25.6	94.180	0.440	-0.180	1.460
2020/01/31 02:03:25.7	94.150	0.390	-0.070	1.460
2020/01/31 02:03:25.8	94.130	0.360	-0.020	1.460
2020/01/31 02:03:25.9				
2020/01/31 02:03:26.0	94.120	0.320	0.030	1.460
2020/01/31 02:03:26.1	94.110	0.280	0.090	1.450
2020/01/31 02:03:26.2	94.100	0.240	0.150	1.450
2020/01/31 02:03:26.3	94.090	0.200	0.200	1.440
2020/01/31 02:03:26.4	94.070	0.100	0.310	1.440
2020/01/31 02:03:26.5	94.060	0.050	0.360	1.430
2020/01/31 02:03:26.6				
2020/01/31 02:03:26.7	94.060	0.000	0.410	1.430
2020/01/31 02:03:26.8	94.050	-0.050	0.460	1.430
2020/01/31 02:03:26.9	94.050	-0.100	0.500	1.420
2020/01/31 02:03:27.0	94.060	-0.150	0.540	1.410
2020/01/31 02:03:27.1	94.060	-0.250	0.610	1.400
2020/01/31 02:03:27.2				
2020/01/31 02:03:27.3	94.070	-0.300	0.630	1.390
2020/01/31 02:03:27.4	94.080	-0.350	0.660	1.370
2020/01/31 02:03:27.5	94.120	-0.440	0.680	1.340
2020/01/31 02:03:27.6	94.140	-0.480	0.680	1.320
2020/01/31 02:03:27.7				
2020/01/31 02:03:27.8	94.160	-0.510	0.680	1.290
2020/01/31 02:03:27.9	94.190	-0.550	0.670	1.270
2020/01/31 02:03:28.0	94.220	-0.580	0.650	1.240
2020/01/31 02:03:28.1	94.250	-0.600	0.630	1.210
2020/01/31 02:03:28.2	94.290	-0.630	0.610	1.180
2020/01/31 02:03:28.3	94.320	-0.640	0.570	1.150
2020/01/31 02:03:28.4	94.360	-0.660	0.530	1.110
2020/01/31 02:03:28.5	94.400	-0.660	0.480	1.080
2020/01/31 02:03:28.6	94.470	-0.670	0.380	1.010
2020/01/31 02:03:28.7				
2020/01/31 02:03:28.8	94.510	-0.660	0.310	0.970
2020/01/31 02:03:28.9	94.540	-0.650	0.250	0.940
2020/01/31 02:03:29.0	94.610	-0.610	0.100	0.870
2020/01/31 02:03:29.1	94.640	-0.590	0.030	0.840
2020/01/31 02:03:29.2				
2020/01/31 02:03:29.3	94.670	-0.560	-0.050	0.810
2020/01/31 02:03:29.4	94.700	-0.530	-0.130	0.790
2020/01/31 02:03:29.5	94.740	-0.460	-0.280	0.750
2020/01/31 02:03:29.6				
2020/01/31 02:03:29.7	94.760	-0.420	-0.360	0.730
2020/01/31 02:03:29.8	94.770	-0.380	-0.440	0.710
2020/01/31 02:03:29.9	94.780	-0.330	-0.510	0.700
2020/01/31 02:03:30.0	94.790	-0.290	-0.580	0.700
2020/01/31 02:03:30.1	94.790	-0.250	-0.640	0.700
2020/01/31 02:03:30.2	94.790	-0.200	-0.700	0.700
2020/01/31 02:03:30.3	94.780	-0.160	-0.760	0.700
2020/01/31 02:03:30.4	94.780	-0.120	-0.810	0.710
2020/01/31 02:03:30.5	94.750	-0.040	-0.900	0.730
2020/01/31 02:03:30.6				
2020/01/31 02:03:30.7	94.740	0.000	-0.930	0.750
2020/01/31 02:03:30.8	94.720	0.040	-0.950	0.770
2020/01/31 02:03:30.9	94.700	0.070	-0.970	0.790
2020/01/31 02:03:31.0				
2020/01/31 02:03:31.1	94.640	0.120	-0.990	0.840
2020/01/31 02:03:31.2	94.590	0.160	-0.970	0.910
2020/01/31 02:03:31.3				
2020/01/31 02:03:31.4	94.560	0.170	-0.950	0.940
2020/01/31 02:03:31.5	94.530	0.180	-0.930	0.980
2020/01/31 02:03:31.6	94.500	0.190	-0.900	1.010
2020/01/31 02:03:31.7	94.440	0.190	-0.820	1.090
2020/01/31 02:03:31.8	94.410	0.190	-0.770	1.130
2020/01/31 02:03:31.9	94.380	0.180	-0.710	1.170
2020/01/31 02:03:32.0				
2020/01/31 02:03:32.1	94.340	0.170	-0.650	1.210
2020/01/31 02:03:32.2	94.310	0.160	-0.590	1.240
2020/01/31 02:03:32.3				
2020/01/31 02:03:32.4	94.250	0.130	-0.470	1.310
2020/01/31 02:03:32.5	94.230	0.110	-0.410	1.340
2020/01/31 02:03:32.6	94.200	0.090	-0.340	1.360
2020/01/31 02:03:32.7				
2020/01/31 02:03:32.8	94.150	0.050	-0.210	1.400
2020/01/31 02:03:32.9	94.130	0.030	-0.150	1.410
2020/01/31 02:03:33.0				
2020/01/31 02:03:33.1	94.100	-0.000	-0.030	1.430
2020/01/31 02:03:33.2	94.070	-0.020	0.030	1.430
2020/01/31 02:03:33.3	94.050	-0.040	0.080	1.430
2020/01/31 02:03:33.4	94.010	-0.070	0.170	1.400
2020/01/31 02:03:33.5				
2020/01/31 02:03:33.6	94.000	-0.080	0.210	1.380
2020/01/31 02:03:33.7	93.980	-0.090	0.250	1.350
2020/01/31 02:03:33.8	93.970	-0.100	0.280	1.320
2020/01/31 02:03:33.9	93.950	-0.100	0.300	1.290
2020/01/31 02:03:34.0				
2020/01/31 02:03:34.1	93.930	-0.100	0.340	1.200
2020/01/31 02:03:34.2				
2020/01/31 02:03:34.3	93.920	-0.090	0.350	1.090
2020/01/31 02:03:34.4	93.910	-0.090	0.350	1.030
2020/01/31 02:03:34.5	93.910	-0.070	0.340	0.970
2020/01/31 02:03:34.6	93.910	-0.050	0.320	0.840
2020/01/31 02:03:34.7				
2020/01/31 02:03:34.8	93.920	-0.030	0.300	0.760
2020/01/31 02:03:34.9	93.930	-0.010	0.270	0.690
2020/01/31 02:03:35.0				
2020/01/31 02:03:35.1	93.940	0.030	0.210	0.540
2020/01/31 02:03:35.2	93.960	0.060	0.180	0.460
2020/01/31 02:03:35.3	93.990	0.110	0.100	0.300
2020/01/31 02:03:35.4				
2020/01/31 02:03:35.5	94.010	0.130	0.060	0.220
2020/01/31 02:03:35.6	94.040	0.160	0.010	0.150
2020/01/31 02:03:35.7				
2020/01/31 02:03:35.8	94.090	0.210	-0.080	-0.000
2020/01/31 02:03:35.9	94.110	0.230	-0.120	-0.070
2020/01/31 02:03:36.0	94.140	0.260	-0.170	-0.140
2020/01/31 02:03:36.1				
2020/01/31 02:03:36.2	94.220	0.300	-0.260	-0.260
2020/01/31 02:03:36.3	94.250	0.320	-0.300	-0.320
2020/01/31 02:03:36.4	94.280	0.330	-0.340	-0.370
2020/01/31 02:03:36.5				
2020/01/31 02:03:36.6	94.330	0.360	-0.410	-0.450
2020/01/31 02:03:36.7	94.360	0.360	-0.440	-0.490
2020/01/31 02:03:36.8	94.390	0.370	-0.470	-0.510
2020/01/31 02:03:36.9	94.410	0.370	-0.490	-0.540
2020/01/31 02:03:37.0	94.430	0.360	-0.510	-0.550
2020/01/31 02:03:37.1	94.460	0.360	-0.520	-0.560
2020/01/31 02:03:37.2	94.470	0.350	-0.530	-0.570
2020/01/31 02:03:37.3	94.480	0.330	-0.540	-0.560
2020/01/31 02:03:37.4	94.490	0.320	-0.530	-0.560
2020/01/31 02:03:37.5	94.490	0.300	-0.530	-0.550
2020/01/31 02:03:37.6	94.490	0.270	-0.520	-0.530
2020/01/31 02:03:37.7				
2020/01/31 02:03:37.8	94.480	0.210	-0.480	-0.480
2020/01/31 02:03:37.9	94.470	0.180	-0.450	-0.450
2020/01/31 02:03:38.0	94.460	0.140	-0.420	-0.420
2020/01/31 02:03:38.1	94.440	0.100	-0.380	-0.380
2020/01/31 02:03:38.2	94.400	0.020	-0.300	-0.290
2020/01/31 02:03:38.3				
2020/01/31 02:03:38.4	94.370	-0.020	-0.260	-0.250
2020/01/31 02:03:38.5	94.340	-0.060	-0.210	-0.200
2020/01/31 02:03:38.6	94.310	-0.110	-0.160	-0.160
2020/01/31 02:03:38.7	94.280	-0.150	-0.110	-0.110
2020/01/31 02:03:38.8	94.210	-0.240	-0.010	-0.000
2020/01/31 02:03:38.9				
2020/01/31 02:03:39.0	94.180	-0.280	0.050	0.050
2020/01/31 02:03:39.1	94.110	-0.350	0.140	0.160
2020/01/31 02:03:39.2				
2020/01/31 02:03:39.3	94.070	-0.380	0.190	0.210
2020/01/31 02:03:39.4	94.040	-0.410	0.230	0.260
2020/01/31 02:03:39.5	94.000	-0.440	0.270	0.320
2020/01/31 02:03:39.6	93.970	-0.460	0.310	0.370
2020/01/31 02:03:39.7				
2020/01/31 02:03:39.8	93.910	-0.490	0.360	0.480
2020/01/31 02:03:39.9	93.890	-0.500	0.380	0.530
2020/01/31 02:03:40.0	93.860	-0.500	0.390	0.590
2020/01/31 02:03:40.1	93.840	-0.500	0.400	0.640
2020/01/31 02:03:40.2	93.820	-0.490	0.400	0.690
2020/01/31 02:03:40.3	93.810	-0.480	0.390	0.740
2020/01/31 02:03:40.4	93.780	-0.450	0.360	0.840
2020/01/31 02:03:40.5				
2020/01/31 02:03:40.6	93.780	-0.420	0.340	0.890
2020/01/31 02:03:40.7	93.770	-0.390	0.310	0.940
2020/01/31 02:03:40.8	93.770	-0.360	0.270	0.980
2020/01/31 02:03:40.9	93.770	-0.330	0.230	1.030
2020/01/31 02:03:41.0	93.780	-0.290	0.190	1.080
2020/01/31 02:03:41.1	93.800	-0.210	0.080	1.170
2020/01/31 02:03:41.2	93.810	-0.160	0.030	1.210
2020/01/31 02:03:41.3				
2020/01/31 02:03:41.4	93.820	-0.120	-0.020	1.250
2020/01/31 02:03:41.5	93.840	-0.070	-0.080	1.290
2020/01/31 02:03:41.6	93.860	-0.020	-0.140	1.330
2020/01/31 02:03:41.7	93.870	0.020	-0.200	1.370
2020/01/31 02:03:41.8	93.890	0.070	-0.250	1.400
2020/01/31 02:03:41.9	93.910	0.110	-0.310	1.430
2020/01/31 02:03:42.0	93.930	0.150	-0.360	1.460
2020/01/31 02:03:42.1	93.950	0.190	-0.410	1.490
2020/01/31 02:03:42.2	93.970	0.230	-0.460	1.520
2020/01/31 02:03:42.3	93.990	0.270	-0.500	1.540
2020/01/31 02:03:42.4	94.010	0.300	-0.540	1.550
2020/01/31 02:03:42.5	94.020	0.330	-0.580	1.570
2020/01/31 02:03:42.6	94.040	0.350	-0.610	1.580
2020/01/31 02:03:42.7	94.060	0.370	-0.640	1.580
2020/01/31 02:03:42.8	94.070	0.390	-0.660	1.580
2020/01/31 02:03:42.9	94.090	0.400	-0.670	1.580
2020/01/31 02:03:43.0	94.100	0.410	-0.680	1.570
2020/01/31 02:03:43.1	94.100	0.420	-0.690	1.560
2020/01/31 02:03:43.2	94.110	0.420	-0.690	1.550
2020/01/31 02:03:43.3	94.120	0.410	-0.680	1.530
2020/01/31 02:03:43.4	94.130	0.410	-0.670	1.510
2020/01/31 02:03:43.5	94.140	0.400	-0.660	1.490
2020/01/31 02:03:43.6	94.140	0.390	-0.640	1.470
2020/01/31 02:03:43.7	94.140	0.380	-0.620	1.450
2020/01/31 02:03:43.8	94.150	0.360	-0.600	1.430
2020/01/31 02:03:43.9	94.150	0.350	-0.570	1.400
2020/01/31 02:03:44.0	94.140	0.330	-0.540	1.380
2020/01/31 02:03:44.1	94.160	0.310	-0.500	1.360
2020/01/31 02:03:44.2	94.150	0.290	-0.460	1.340
2020/01/31 02:03:44.3	94.150	0.270	-0.430	1.320
2020/01/31 02:03:44.4	94.140	0.250	-0.390	1.300
2020/01/31 02:03:44.5	94.130	0.230	-0.350	1.280
2020/01/31 02:03:44.6	94.120	0.210	-0.310	1.260
2020/01/31 02:03:44.7				
2020/01/31 02:03:44.8	94.090	0.180	-0.240	1.230
2020/01/31 02:03:44.9	94.080	0.170	-0.210	1.220
2020/01/31 02:03:45.0	94.070	0.150	-0.170	1.200
2020/01/31 02:03:45.1	94.050	0.140	-0.140	1.190
2020/01/31 02:03:45.2	94.040	0.130	-0.120	1.180
2020/01/31 02:03:45.3				
2020/01/31 02:03:45.4	94.000	0.120	-0.060	1.160
2020/01/31 02:03:45.5	93.980	0.120	-0.040	1.150
2020/01/31 02:03:45.6	93.960	0.110	-0.030	1.150
2020/01/31 02:03:45.7	93.940	0.110	-0.010	1.140
2020/01/31 02:03:45.8	93.920	0.110	0.000	1.140
2020/01/31 02:03:45.9	93.900	0.110	0.010	1.130
2020/01/31 02:03:46.0	93.870	0.120	0.020	1.130
2020/01/31 02:03:46.1	93.840	0.120	0.020	1.130
2020/01/31 02:03:46.2	93.820	0.120	0.020	1.140
2020/01/31 02:03:46.3	93.790	0.130	0.020	1.140
2020/01/31 02:03:46.4	93.770	0.130	0.020	1.140
2020/01/31 02:03:46.5	93.740	0.140	0.010	1.150
2020/01/31 02:03:46.6	93.710	0.140	0.000	1.150
2020/01/31 02:03:46.7	93.690	0.140	-0.010	1.160
2020/01/31 02:03:46.8	93.660	0.140	-0.020	1.160
2020/01/31 02:03:46.9	93.630	0.140	-0.030	1.170
2020/01/31 02:03:47.0	93.610	0.140	-0.040	1.170
2020/01/31 02:03:47.1	93.580	0.140	-0.060	1.180
2020/01/31 02:03:47.2	93.560	0.140	-0.070	1.180
2020/01/31 02:03:47.3	93.530	0.130	-0.080	1.180
2020/01/31 02:03:47.4	93.500	0.120	-0.090	1.180
2020/01/31 02:03:47.5	93.480	0.110	-0.100	1.180
2020/01/31 02:03:47.6	93.460	0.100	-0.110	1.180
2020/01/31 02:03:47.7	93.440	0.080	-0.120	1.170
2020/01/31 02:03:47.8	93.420	0.060	-0.130	1.170
2020/01/31 02:03:47.9	93.400	0.040	-0.130	1.160
2020/01/31 02:03:48.0	93.380	0.020	-0.130	1.140
2020/01/31 02:03:48.1	93.370	-0.000	-0.140	1.130
2020/01/31 02:03:48.2	93.360	-0.030	-0.130	1.110
2020/01/31 02:03:48.3	93.350	-0.060	-0.130	1.090
2020/01/31 02:03:48.4	93.340	-0.090	-0.120	1.060
2020/01/31 02:03:48.5	93.330	-0.120	-0.120	1.040
2020/01/31 02:03:48.6	93.320	-0.160	-0.110	1.010
2020/01/31 02:03:48.7	93.320	-0.190	-0.090	0.980
2020/01/31 02:03:48.8	93.320	-0.220	-0.080	0.940
2020/01/31 02:03:48.9	93.320	-0.260	-0.070	0.900
2020/01/31 02:03:49.0	93.320	-0.290	-0.050	0.860
2020/01/31 02:03:49.1	93.320	-0.330	-0.040	0.820
2020/01/31 02:03:49.2	93.320	-0.360	-0.020	0.780
2020/01/31 02:03:49.3	93.330	-0.400	-0.010	0.730
2020/01/31 02:03:49.4	93.340	-0.430	0.010	0.680
2020/01/31 02:03:49.5	93.360	-0.460	0.020	0.630
2020/01/31 02:03:49.6	93.370	-0.480	0.040	0.580
2020/01/31 02:03:49.7	93.390	-0.510	0.050	0.520
2020/01/31 02:03:49.8	93.410	-0.530	0.070	0.470
2020/01/31 02:03:49.9	93.430	-0.550	0.080	0.420
2020/01/31 02:03:50.0	93.460	-0.570	0.090	0.360
2020/01/31 02:03:50.1	93.470	-0.580	0.100	0.310
2020/01/31 02:03:50.2	93.500	-0.590	0.110	0.260
2020/01/31 02:03:50.3	93.520	-0.600	0.120	0.210
2020/01/31 02:03:50.4	93.550	-0.600	0.130	0.160
2020/01/31 02:03:50.5	93.580	-0.600	0.130	0.120
2020/01/31 02:03:50.6	93.610	-0.600	0.140	0.080
2020/01/31 02:03:50.7	93.630	-0.600	0.140	0.040
2020/01/31 02:03:50.8	93.660	-0.590	0.140	0.000
2020/01/31 02:03:50.9	93.690	-0.580	0.150	-0.030
2020/01/31 02:03:51.0	93.710	-0.560	0.140	-0.060
2020/01/31 02:03:51.1	93.720	-0.540	0.140	-0.080
2020/01/31 02:03:51.2	93.740	-0.520	0.140	-0.100
2020/01/31 02:03:51.3	93.770	-0.500	0.140	-0.120
2020/01/31 02:03:51.4	93.790	-0.480	0.130	-0.130
2020/01/31 02:03:51.5	93.800	-0.450	0.130	-0.140
2020/01/31 02:03:51.6	93.820	-0.430	0.120	-0.140
2020/01/31 02:03:51.7	93.840	-0.400	0.110	-0.140
2020/01/31 02:03:51.8	93.850	-0.370	0.100	-0.130
2020/01/31 02:03:51.9	93.860	-0.340	0.100	-0.120
2020/01/31 02:03:52.0	93.870	-0.310	0.090	-0.110
2020/01/31 02:03:52.1	93.880	-0.280	0.070	-0.080
2020/01/31 02:03:52.2	93.880	-0.250	0.060	-0.060
2020/01/31 02:03:52.3	93.890	-0.220	0.050	-0.040
2020/01/31 02:03:52.4	93.890	-0.190	0.040	-0.010
2020/01/31 02:03:52.5	93.880	-0.160	0.020	0.020
2020/01/31 02:03:52.6	93.880	-0.130	0.010	0.050
2020/01/31 02:03:52.7	93.870	-0.100	-0.010	0.090
2020/01/31 02:03:52.8	93.870	-0.070	-0.020	0.130
2020/01/31 02:03:52.9	93.860	-0.050	-0.040	0.170
2020/01/31 02:03:53.0	93.850	-0.020	-0.060	0.210
2020/01/31 02:03:53.1	93.850	0.000	-0.070	0.260
2020/01/31 02:03:53.2	93.830	0.020	-0.090	0.300
2020/01/31 02:03:53.3	93.820	0.050	-0.110	0.350
2020/01/31 02:03:53.4	93.800	0.070	-0.130	0.390
2020/01/31 02:03:53.5	93.790	0.090	-0.150	0.430
2020/01/31 02:03:53.6	93.770	0.100	-0.180	0.480
2020/01/31 02:03:53.7	93.760	0.120	-0.200	0.520
2020/01/31 02:03:53.8	93.740	0.140	-0.220	0.570
2020/01/31 02:03:53.9	93.720	0.150	-0.250	0.610
2020/01/31 02:03:54.0	93.710	0.170	-0.280	0.650
2020/01/31 02:03:54.1	93.690	0.180	-0.310	0.690
2020/01/31 02:03:54.2	93.670	0.200	-0.340	0.730
2020/01/31 02:03:54.3	93.660	0.210	-0.370	0.770
2020/01/31 02:03:54.4	93.640	0.220	-0.400	0.810
2020/01/31 02:03:54.5	93.630	0.230	-0.430	0.840
2020/01/31 02:03:54.6	93.620	0.250	-0.460	0.870
2020/01/31 02:03:54.7	93.610	0.260	-0.490	0.900
2020/01/31 02:03:54.8	93.590	0.270	-0.520	0.930
2020/01/31 02:03:54.9	93.580	0.290	-0.550	0.960
2020/01/31 02:03:55.0	93.570	0.300	-0.580	0.990
2020/01/31 02:03:55.1	93.560	0.310	-0.610	1.010
2020/01/31 02:03:55.2	93.550	0.330	-0.640	1.040
2020/01/31 02:03:55.3	93.540	0.340	-0.670	1.060
2020/01/31 02:03:55.4	93.530	0.350	-0.690	1.080
2020/01/31 02:03:55.5	93.530	0.370	-0.720	1.110
2020/01/31 02:03:55.6	93.520	0.380	-0.740	1.130
2020/01/31 02:03:55.7	93.510	0.390	-0.770	1.150
2020/01/31 02:03:55.8	93.510	0.410	-0.790	1.170
2020/01/31 02:03:55.9	93.500	0.420	-0.800	1.190
2020/01/31 02:03:56.0	93.500	0.430	-0.820	1.210
2020/01/31 02:03:56.1	93.490	0.450	-0.830	1.230
2020/01/31 02:03:56.2	93.490	0.460	-0.840	1.250
2020/01/31 02:03:56.3	93.490	0.470	-0.840	1.270
2020/01/31 02:03:56.4	93.480	0.480	-0.850	1.280
2020/01/31 02:03:56.5	93.480	0.490	-0.840	1.300
2020/01/31 02:03:56.6	93.480	0.490	-0.830	1.310
2020/01/31 02:03:56.7	93.480	0.500	-0.820	1.320
2020/01/31 02:03:56.8	93.490	0.500	-0.800	1.330
2020/01/31 02:03:56.9	93.490	0.500	-0.780	1.340
2020/01/31 02:03:57.0	93.500	0.500	-0.760	1.350
2020/01/31 02:03:57.1	93.500	0.500	-0.730	1.350
2020/01/31 02:03:57.2	93.510	0.500	-0.690	1.350
2020/01/31 02:03:57.3	93.520	0.490	-0.650	1.360
2020/01/31 02:03:57.4	93.530	0.480	-0.610	1.360
2020/01/31 02:03:57.5	93.540	0.470	-0.560	1.360
2020/01/31 02:03:57.6	93.550	0.460	-0.510	1.350
2020/01/31 02:03:57.7	93.560	0.450	-0.450	1.350
2020/01/31 02:03:57.8	93.570	0.430	-0.400	1.350
2020/01/31 02:03:57.9	93.580	0.410	-0.330	1.350
2020/01/31 02:03:58.0	93.590	0.390	-0.270	1.340
2020/01/31 02:03:58.1	93.600	0.370	-0.210	1.340
2020/01/31 02:03:58.2	93.600	0.350	-0.140	1.340
2020/01/31 02:03:58.3	93.610	0.320	-0.070	1.340
2020/01/31 02:03:58.4	93.620	0.290	0.000	1.330
2020/01/31 02:03:58.5	93.620	0.270	0.070	1.330
2020/01/31 02:03:58.6	93.620	0.240	0.140	1.330
2020/01/31 02:03:58.7	93.620	0.210	0.210	1.330
2020/01/31 02:03:58.8	93.620	0.170	0.280	1.330
2020/01/31 02:03:58.9	93.620	0.140	0.350	1.330
2020/01/31 02:03:59.0	93.610	0.110	0.410	1.340
2020/01/31 02:03:59.1	93.600	0.080	0.470	1.340
2020/01/31 02:03:59.2	93.590	0.050	0.530	1.340
2020/01/31 02:03:59.3	93.580	0.010	0.580	1.350
2020/01/31 02:03:59.4	93.570	-0.020	0.620	1.350
2020/01/31 02:03:59.5	93.550	-0.050	0.660	1.360
2020/01/31 02:03:59.6	93.540	-0.080	0.690	1.360
2020/01/31 02:03:59.7	93.530	-0.100	0.720	1.360
2020/01/31 02:03:59.8	93.510	-0.130	0.740	1.370
2020/01/31 02:03:59.9	93.500	-0.150	0.750	1.370
2020/01/31 02:04:00.0	93.480	-0.180	0.750	1.360
2020/01/31 02:04:00.1	93.460	-0.200	0.750	1.360
2020/01/31 02:04:00.2	93.450	-0.210	0.730	1.360
2020/01/31 02:04:00.3	93.440	-0.230	0.710	1.350
2020/01/31 02:04:00.4	93.430	-0.240	0.690	1.340
2020/01/31 02:04:00.5	93.420	-0.250	0.650	1.330
2020/01/31 02:04:00.6	93.410	-0.250	0.610	1.310
2020/01/31 02:04:00.7	93.400	-0.260	0.560	1.290
2020/01/31 02:04:00.8	93.400	-0.260	0.510	1.270
2020/01/31 02:04:00.9	93.400	-0.260	0.450	1.240
2020/01/31 02:04:01.0	93.400	-0.250	0.390	1.210
2020/01/31 02:04:01.1	93.400	-0.240	0.320	1.190
2020/01/31 02:04:01.2	93.400	-0.240	0.250	1.150
2020/01/31 02:04:01.3	93.410	-0.220	0.170	1.120
2020/01/31 02:04:01.4	93.420	-0.210	0.100	1.080
2020/01/31 02:04:01.5	93.430	-0.200	0.020	1.040
2020/01/31 02:04:01.6	93.440	-0.180	-0.050	1.000
2020/01/31 02:04:01.7	93.450	-0.160	-0.130	0.950
2020/01/31 02:04:01.8	93.460	-0.150	-0.200	0.910
2020/01/31 02:04:01.9	93.480	-0.130	-0.270	0.860
2020/01/31 02:04:02.0	93.500	-0.110	-0.330	0.820
2020/01/31 02:04:02.1	93.520	-0.090	-0.400	0.770
2020/01/31 02:04:02.2	93.540	-0.080	-0.450	0.720
2020/01/31 02:04:02.3	93.560	-0.060	-0.500	0.680
2020/01/31 02:04:02.4	93.580	-0.050	-0.550	0.630
2020/01/31 02:04:02.5	93.600	-0.030	-0.580	0.580
2020/01/31 02:04:02.6	93.620	-0.020	-0.610	0.540
2020/01/31 02:04:02.7	93.640	-0.010	-0.630	0.490
2020/01/31 02:04:02.8	93.660	-0.010	-0.650	0.450
2020/01/31 02:04:02.9	93.680	0.000	-0.650	0.410
2020/01/31 02:04:03.0	93.690	0.000	-0.650	0.370
2020/01/31 02:04:03.1	93.710	0.000	-0.640	0.340
2020/01/31 02:04:03.2	93.730	0.000	-0.630	0.300
2020/01/31 02:04:03.3	93.740	-0.000	-0.610	0.270
2020/01/31 02:04:03.4	93.750	-0.010	-0.580	0.240
2020/01/31 02:04:03.5	93.760	-0.020	-0.540	0.210
2020/01/31 02:04:03.6	93.770	-0.030	-0.500	0.180
2020/01/31 02:04:03.7	93.780	-0.040	-0.460	0.160
2020/01/31 02:04:03.8	93.780	-0.060	-0.410	0.140
2020/01/31 02:04:03.9	93.790	-0.080	-0.360	0.120
2020/01/31 02:04:04.0	93.790	-0.100	-0.310	0.110
2020/01/31 02:04:04.1	93.790	-0.120	-0.250	0.090
2020/01/31 02:04:04.2	93.790	-0.140	-0.190	0.080
2020/01/31 02:04:04.3	93.790	-0.160	-0.140	0.080
2020/01/31 02:04:04.4	93.780	-0.180	-0.080	0.080
2020/01/31 02:04:04.5	93.780	-0.210	-0.030	0.080
2020/01/31 02:04:04.6	93.780	-0.230	0.030	0.080
2020/01/31 02:04:04.7	93.770	-0.260	0.080	0.080
2020/01/31 02:04:04.8	93.770	-0.280	0.120	0.090
2020/01/31 02:04:04.9	93.760	-0.300	0.160	0.100
2020/01/31 02:04:05.0	93.760	-0.320	0.200	0.100
2020/01/31 02:04:05.1	93.750	-0.340	0.230	0.120
2020/01/31 02:04:05.2	93.740	-0.360	0.260	0.130
2020/01/31 02:04:05.3	93.740	-0.370	0.280	0.140
2020/01/31 02:04:05.4	93.730	-0.390	0.290	0.160
2020/01/31 02:04:05.5	93.730	-0.400	0.300	0.170
2020/01/31 02:04:05.6	93.730	-0.400	0.290	0.190
2020/01/31 02:04:05.7	93.720	-0.410	0.290	0.200
2020/01/31 02:04:05.8	93.720	-0.410	0.270	0.220
2020/01/31 02:04:05.9	93.710	-0.410	0.250	0.240
2020/01/31 02:04:06.0	93.710	-0.400	0.220	0.250
2020/01/31 02:04:06.1	93.710	-0.390	0.190	0.270
2020/01/31 02:04:06.2	93.710	-0.380	0.150	0.290
2020/01/31 02:04:06.3	93.700	-0.370	0.110	0.310
2020/01/31 02:04:06.4	93.700	-0.350	0.060	0.330
2020/01/31 02:04:06.5	93.700	-0.330	0.000	0.350
2020/01/31 02:04:06.6	93.690	-0.300	-0.060	0.380
2020/01/31 02:04:06.7	93.690	-0.270	-0.120	0.400
2020/01/31 02:04:06.8	93.680	-0.240	-0.180	0.430
2020/01/31 02:04:06.9	93.680	-0.210	-0.240	0.450
2020/01/31 02:04:07.0	93.670	-0.170	-0.310	0.480
2020/01/31 02:04:07.1	93.670	-0.140	-0.380	0.510
2020/01/31 02:04:07.2	93.660	-0.100	-0.440	0.540
2020/01/31 02:04:07.3	93.660	-0.060	-0.510	0.570
2020/01/31 02:04:07.4	93.650	-0.020	-0.570	0.600
2020/01/31 02:04:07.5	93.650	0.020	-0.620	0.640
2020/01/31 02:04:07.6	93.640	0.060	-0.680	0.670
2020/01/31 02:04:07.7	93.640	0.110	-0.730	0.700
2020/01/31 02:04:07.8	93.640	0.150	-0.770	0.730
2020/01/31 02:04:07.9	93.630	0.190	-0.810	0.770
2020/01/31 02:04:08.0	93.630	0.230	-0.850	0.800
2020/01/31 02:04:08.1	93.630	0.260	-0.870	0.840
2020/01/31 02:04:08.2	93.630	0.300	-0.900	0.880
2020/01/31 02:04:08.3	93.630	0.330	-0.910	0.910
2020/01/31 02:04:08.4	93.630	0.370	-0.920	0.950
2020/01/31 02:04:08.5	93.630	0.390	-0.930	0.990
2020/01/31 02:04:08.6	93.630	0.420	-0.930	1.020
2020/01/31 02:04:08.7	93.630	0.440	-0.920	1.060
2020/01/31 02:04:08.8	93.630	0.460	-0.910	1.090
2020/01/31 02:04:08.9	93.630	0.480	-0.890	1.130
2020/01/31 02:04:09.0	93.630	0.490	-0.870	1.160
2020/01/31 02:04:09.1	93.640	0.500	-0.830	1.200
2020/01/31 02:04:09.2	93.640	0.510	-0.800	1.230
2020/01/31 02:04:09.3	93.640	0.510	-0.760	1.260
2020/01/31 02:04:09.4	93.640	0.510	-0.720	1.290
2020/01/31 02:04:09.5	93.640	0.510	-0.670	1.320
2020/01/31 02:04:09.6	93.650	0.500	-0.620	1.350
2020/01/31 02:04:09.7	93.650	0.490	-0.560	1.370
2020/01/31 02:04:09.8	93.650	0.470	-0.510	1.390
2020/01/31 02:04:09.9	93.650	0.460	-0.450	1.410
2020/01/31 02:04:10.0	93.650	0.440	-0.390	1.430
2020/01/31 02:04:10.1	93.660	0.410	-0.330	1.440
2020/01/31 02:04:10.2	93.660	0.390	-0.270	1.450
2020/01/31 02:04:10.3	93.660	0.360	-0.200	1.460
2020/01/31 02:04:10.4	93.660	0.330	-0.140	1.470
2020/01/31 02:04:10.5	93.670	0.300	-0.080	1.470
2020/01/31 02:04:10.6	93.670	0.270	-0.020	1.470
2020/01/31 02:04:10.7	93.670	0.230	0.040	1.470
2020/01/31 02:04:10.8	93.670	0.200	0.100	1.470
2020/01/31 02:04:10.9	93.680	0.160	0.150	1.460
2020/01/31 02:04:11.0	93.680	0.120	0.210	1.460
2020/01/31 02:04:11.1	93.700	0.090	0.270	1.450
2020/01/31 02:04:11.2	93.700	0.050	0.310	1.440
2020/01/31 02:04:11.3	93.710	0.020	0.360	1.430
2020/01/31 02:04:11.4	93.710	-0.020	0.400	1.410
2020/01/31 02:04:11.5	93.720	-0.050	0.440	1.400
2020/01/31 02:04:11.6	93.720	-0.090	0.480	1.380
2020/01/31 02:04:11.7	93.730	-0.120	0.510	1.360
2020/01/31 02:04:11.8	93.730	-0.150	0.540	1.340
2020/01/31 02:04:11.9	93.740	-0.180	0.570	1.320
2020/01/31 02:04:12.0	93.740	-0.210	0.590	1.300
2020/01/31 02:04:12.1	93.750	-0.240	0.610	1.280
2020/01/31 02:04:12.2	93.750	-0.270	0.620	1.260
2020/01/31 02:04:12.3	93.760	-0.290	0.630	1.240
2020/01/31 02:04:12.4	93.760	-0.310	0.640	1.220
2020/01/31 02:04:12.5	93.760	-0.330	0.640	1.200
2020/01/31 02:04:12.6	93.770	-0.350	0.640	1.180
2020/01/31 02:04:12.7	93.770	-0.370	0.640	1.160
2020/01/31 02:04:12.8	93.770	-0.380	0.630	1.140
2020/01/31 02:04:12.9	93.770	-0.390	0.620	1.120
2020/01/31 02:04:13.0	93.770	-0.400	0.610	1.100
2020/01/31 02:04:13.1	93.770	-0.410	0.600	1.090
2020/01/31 02:04:13.2	93.770	-0.420	0.580	1.070
2020/01/31 02:04:13.3	93.770	-0.420	0.550	1.050
2020/01/31 02:04:13.4	93.770	-0.420	0.530	1.030
2020/01/31 02:04:13.5	93.770	-0.420	0.500	1.010
2020/01/31 02:04:13.6	93.770	-0.420	0.460	0.990
2020/01/31 02:04:13.7	93.770	-0.420	0.430	0.960
2020/01/31 02:04:13.8	93.770	-0.420	0.390	0.940
2020/01/31 02:04:13.9	93.760	-0.410	0.350	0.920
2020/01/31 02:04:14.0	93.760	-0.400	0.310	0.890
2020/01/31 02:04:14.1	93.750	-0.390	0.260	0.870
2020/01/31 02:04:14.2	93.750	-0.380	0.220	0.840
2020/01/31 02:04:14.3	93.750	-0.370	0.170	0.820
2020/01/31 02:04:14.4	93.760	-0.350	0.130	0.790
2020/01/31 02:04:14.5	93.760	-0.340	0.080	0.770
2020/01/31 02:04:14.6	93.760	-0.320	0.030	0.740
2020/01/31 02:04:14.7	93.770	-0.310	-0.020	0.710
2020/01/31 02:04:14.8	93.770	-0.290	-0.070	0.680
2020/01/31 02:04:14.9	93.780	-0.270	-0.120	0.650
2020/01/31 02:04:15.0	93.790	-0.250	-0.180	0.620
2020/01/31 02:04:15.1	93.800	-0.230	-0.230	0.590
2020/01/31 02:04:15.2	93.820	-0.210	-0.280	0.560
2020/01/31 02:04:15.3	93.830	-0.180	-0.330	0.530
2020/01/31 02:04:15.4	93.850	-0.160	-0.390	0.500
2020/01/31 02:04:15.5	93.860	-0.130	-0.440	0.470
2020/01/31 02:04:15.6	93.880	-0.110	-0.490	0.440
2020/01/31 02:04:15.7	93.900	-0.080	-0.550	0.410
2020/01/31 02:04:15.8	93.920	-0.050	-0.600	0.390
2020/01/31 02:04:15.9	93.940	-0.030	-0.650	0.360
2020/01/31 02:04:16.0	93.960	0.000	-0.700	0.330
2020/01/31 02:04:16.1	93.970	0.030	-0.750	0.300
2020/01/31 02:04:16.2	93.990	0.060	-0.800	0.280
2020/01/31 02:04:16.3	94.010	0.090	-0.840	0.250
2020/01/31 02:04:16.4	94.030	0.130	-0.890	0.230
2020/01/31 02:04:16.5	94.060	0.160	-0.930	0.210
2020/01/31 02:04:16.6	94.080	0.190	-0.960	0.190
2020/01/31 02:04:16.7	94.100	0.220	-1.000	0.170
2020/01/31 02:04:16.8	94.120	0.250	-1.020	0.150
2020/01/31 02:04:16.9	94.130	0.280	-1.050	0.140
2020/01/31 02:04:17.0	94.150	0.310	-1.070	0.130
2020/01/31 02:04:17.1	94.170	0.340	-1.080	0.120
2020/01/31 02:04:17.2	94.190	0.370	-1.090	0.110
2020/01/31 02:04:17.3	94.200	0.400	-1.090	0.110
2020/01/31 02:04:17.4	94.210	0.430	-1.090	0.110
2020/01/31 02:04:17.5	94.220	0.450	-1.080	0.110
2020/01/31 02:04:17.6	94.230	0.480	-1.070	0.120
2020/01/31 02:04:17.7	94.240	0.500	-1.050	0.130
2020/01/31 02:04:17.8	94.240	0.520	-1.020	0.140
2020/01/31 02:04:17.9	94.240	0.530	-0.990	0.160
2020/01/31 02:04:18.0	94.240	0.550	-0.950	0.180
2020/01/31 02:04:18.1	94.250	0.560	-0.910	0.200
2020/01/31 02:04:18.2	94.240	0.570	-0.860	0.230
2020/01/31 02:04:18.3	94.240	0.580	-0.800	0.260
2020/01/31 02:04:18.4	94.230	0.580	-0.740	0.290
2020/01/31 02:04:18.5	94.220	0.580	-0.670	0.320
2020/01/31 02:04:18.6	94.210	0.580	-0.600	0.360
2020/01/31 02:04:18.7	94.200	0.570	-0.530	0.400
2020/01/31 02:04:18.8	94.190	0.560	-0.450	0.440
2020/01/31 02:04:18.9	94.170	0.550	-0.370	0.480
2020/01/31 02:04:19.0	94.160	0.530	-0.290	0.520
2020/01/31 02:04:19.1	94.150	0.520	-0.200	0.580
2020/01/31 02:04:19.2	94.130	0.490	-0.110	0.620
2020/01/31 02:04:19.3	94.120	0.470	-0.030	0.670
2020/01/31 02:04:19.4	94.100	0.440	0.050	0.720
2020/01/31 02:04:19.5	94.080	0.410	0.140	0.770
2020/01/31 02:04:19.6	94.060	0.380	0.220	0.820
2020/01/31 02:04:19.7	94.050	0.340	0.290	0.860
2020/01/31 02:04:19.8	94.030	0.310	0.370	0.910
2020/01/31 02:04:19.9	94.010	0.270	0.430	0.960
2020/01/31 02:04:20.0	94.000	0.230	0.500	1.000
2020/01/31 02:04:20.1	94.000	0.190	0.560	1.050
2020/01/31 02:04:20.2	93.980	0.150	0.610	1.090
2020/01/31 02:04:20.3	93.970	0.110	0.660	1.130
2020/01/31 02:04:20.4	93.950	0.060	0.700	1.170
2020/01/31 02:04:20.5	93.940	0.020	0.730	1.210
2020/01/31 02:04:20.6	93.930	-0.020	0.760	1.240
2020/01/31 02:04:20.7	93.920	-0.060	0.780	1.270
2020/01/31 02:04:20.8	93.910	-0.100	0.800	1.290
2020/01/31 02:04:20.9	93.910	-0.130	0.800	1.320
2020/01/31 02:04:21.0	93.900	-0.170	0.800	1.340
2020/01/31 02:04:21.1	93.930	-0.200	0.790	1.360
2020/01/31 02:04:21.2	93.930	-0.230	0.770	1.370
2020/01/31 02:04:21.3	93.930	-0.260	0.740	1.380
2020/01/31 02:04:21.4	93.930	-0.280	0.710	1.390
2020/01/31 02:04:21.5	93.940	-0.300	0.670	1.390
2020/01/31 02:04:21.6	93.940	-0.320	0.620	1.400
2020/01/31 02:04:21.7	93.950	-0.330	0.570	1.390
2020/01/31 02:04:21.8	93.960	-0.350	0.510	1.390
2020/01/31 02:04:21.9	93.970	-0.350	0.440	1.380
2020/01/31 02:04:22.0	93.990	-0.360	0.370	1.370
2020/01/31 02:04:22.1	94.010	-0.360	0.290	1.360
2020/01/31 02:04:22.2	94.030	-0.360	0.210	1.350
2020/01/31 02:04:22.3	94.050	-0.360	0.130	1.330
2020/01/31 02:04:22.4	94.070	-0.350	0.050	1.310
2020/01/31 02:04:22.5	94.100	-0.340	-0.040	1.290
2020/01/31 02:04:22.6	94.120	-0.330	-0.120	1.270
2020/01/31 02:04:22.7	94.150	-0.320	-0.210	1.250
2020/01/31 02:04:22.8	94.180	-0.300	-0.290	1.220
2020/01/31 02:04:22.9	94.210	-0.290	-0.380	1.200
2020/01/31 02:04:23.0	94.240	-0.270	-0.450	1.170
2020/01/31 02:04:23.1	94.250	-0.250	-0.530	1.150
2020/01/31 02:04:23.2	94.280	-0.230	-0.600	1.120
2020/01/31 02:04:23.3	94.320	-0.210	-0.670	1.100
2020/01/31 02:04:23.4	94.350	-0.190	-0.730	1.080
2020/01/31 02:04:23.5	94.380	-0.170	-0.780	1.050
2020/01/31 02:04:23.6	94.420	-0.150	-0.830	1.030
2020/01/31 02:04:23.7	94.450	-0.140	-0.870	1.010
2020/01/31 02:04:23.8	94.490	-0.120	-0.900	1.000
2020/01/31 02:04:23.9	94.520	-0.100	-0.930	0.980
2020/01/31 02:04:24.0	94.550	-0.090	-0.940	0.970
2020/01/31 02:04:24.1	94.570	-0.080	-0.950	0.960
2020/01/31 02:04:24.2	94.600	-0.070	-0.950	0.950
2020/01/31 02:04:24.3	94.630	-0.060	-0.940	0.940
2020/01/31 02:04:24.4	94.660	-0.050	-0.930	0.940
2020/01/31 02:04:24.5	94.680	-0.050	-0.900	0.940
2020/01/31 02:04:24.6	94.710	-0.040	-0.870	0.940
2020/01/31 02:04:24.7	94.730	-0.040	-0.830	0.950
2020/01/31 02:04:24.8	94.750	-0.040	-0.780	0.950
2020/01/31 02:04:24.9	94.770	-0.050	-0.730	0.960
2020/01/31 02:04:25.0	94.790	-0.050	-0.670	0.970
2020/01/31 02:04:25.1	94.790	-0.060	-0.600	0.980
2020/01/31 02:04:25.2	94.800	-0.070	-0.530	0.990
2020/01/31 02:04:25.3	94.810	-0.080	-0.450	1.010
2020/01/31 02:04:25.4	94.820	-0.100	-0.380	1.020
2020/01/31 02:04:25.5	94.820	-0.110	-0.300	1.030
2020/01/31 02:04:25.6	94.830	-0.130	-0.210	1.050
2020/01/31 02:04:25.7	94.830	-0.150	-0.130	1.060
2020/01/31 02:04:25.8	94.830	-0.170	-0.040	1.070
2020/01/31 02:04:25.9	94.820	-0.180	0.040	1.080
2020/01/31 02:04:26.0	94.820	-0.210	0.120	1.090
2020/01/31 02:04:26.1	94.810	-0.230	0.200	1.100
2020/01/31 02:04:26.2	94.790	-0.250	0.280	1.100
2020/01/31 02:04:26.3	94.780	-0.270	0.350	1.110
2020/01/31 02:04:26.4	94.770	-0.290	0.410	1.110
2020/01/31 02:04:26.5	94.750	-0.310	0.480	1.110
2020/01/31 02:04:26.6	94.740	-0.320	0.530	1.110
2020/01/31 02:04:26.7	94.720	-0.340	0.580	1.110
2020/01/31 02:04:26.8	94.700	-0.360	0.620	1.110
2020/01/31 02:04:26.9	94.670	-0.370	0.650	1.110
2020/01/31 02:04:27.0	94.650	-0.380	0.680	1.100
2020/01/31 02:04:27.1	94.620	-0.390	0.700	1.100
2020/01/31 02:04:27.2	94.590	-0.390	0.710	1.090
2020/01/31 02:04:27.3	94.570	-0.390	0.710	1.080
2020/01/31 02:04:27.4	94.550	-0.390	0.700	1.070
2020/01/31 02:04:27.5	94.520	-0.390	0.680	1.060
2020/01/31 02:04:27.6	94.500	-0.380	0.660	1.050
2020/01/31 02:04:27.7	94.470	-0.380	0.620	1.040
2020/01/31 02:04:27.8	94.450	-0.360	0.580	1.020
2020/01/31 02:04:27.9	94.430	-0.350	0.530	1.010
2020/01/31 02:04:28.0	94.410	-0.330	0.480	0.990
2020/01/31 02:04:28.1	94.400	-0.310	0.410	0.970
2020/01/31 02:04:28.2	94.380	-0.280	0.350	0.950
2020/01/31 02:04:28.3	94.370	-0.260	0.270	0.930
2020/01/31 02:04:28.4	94.360	-0.230	0.200	0.910
2020/01/31 02:04:28.5	94.360	-0.200	0.120	0.880
2020/01/31 02:04:28.6	94.350	-0.170	0.040	0.850
2020/01/31 02:04:28.7	94.350	-0.140	-0.040	0.830
2020/01/31 02:04:28.8	94.350	-0.110	-0.120	0.800
2020/01/31 02:04:28.9	94.350	-0.070	-0.200	0.770
2020/01/31 02:04:29.0	94.360	-0.040	-0.280	0.730
2020/01/31 02:04:29.1	94.360	-0.010	-0.360	0.710
2020/01/31 02:04:29.2	94.370	0.030	-0.430	0.670
2020/01/31 02:04:29.3	94.380	0.060	-0.510	0.630
2020/01/31 02:04:29.4	94.390	0.090	-0.580	0.600
2020/01/31 02:04:29.5	94.410	0.120	-0.640	0.560
2020/01/31 02:04:29.6	94.420	0.150	-0.700	0.520
2020/01/31 02:04:29.7	94.440	0.180	-0.750	0.480
2020/01/31 02:04:29.8	94.450	0.210	-0.800	0.440
2020/01/31 02:04:29.9	94.470	0.230	-0.840	0.400
2020/01/31 02:04:30.0	94.490	0.250	-0.880	0.360
2020/01/31 02:04:30.1	94.520	0.280	-0.910	0.320
2020/01/31 02:04:30.2	94.540	0.290	-0.930	0.280
2020/01/31 02:04:30.3	94.560	0.310	-0.950	0.240
2020/01/31 02:04:30.4	94.580	0.330	-0.960	0.200
2020/01/31 02:04:30.5	94.590	0.340	-0.960	0.160
2020/01/31 02:04:30.6	94.610	0.350	-0.960	0.110
2020/01/31 02:04:30.7	94.630	0.360	-0.950	0.080
2020/01/31 02:04:30.8	94.650	0.370	-0.940	0.040
2020/01/31 02:04:30.9	94.670	0.370	-0.910	-0.000
2020/01/31 02:04:31.0	94.690	0.380	-0.890	-0.040
2020/01/31 02:04:31.1	94.710	0.380	-0.850	-0.070
2020/01/31 02:04:31.2	94.730	0.380	-0.810	-0.100
2020/01/31 02:04:31.3	94.750	0.380	-0.770	-0.130
2020/01/31 02:04:31.4	94.770	0.380	-0.730	-0.160
2020/01/31 02:04:31.5	94.780	0.380	-0.680	-0.190
2020/01/31 02:04:31.6	94.800	0.370	-0.630	-0.210
2020/01/31 02:04:31.7	94.810	0.370	-0.580	-0.230
2020/01/31 02:04:31.8	94.820	0.360	-0.530	-0.250
2020/01/31 02:04:31.9	94.830	0.360	-0.480	-0.260
2020/01/31 02:04:32.0	94.840	0.350	-0.420	-0.270
2020/01/31 02:04:32.1	94.850	0.350	-0.370	-0.270
2020/01/31 02:04:32.2	94.860	0.340	-0.310	-0.270
2020/01/31 02:04:32.3	94.860	0.340	-0.260	-0.270
2020/01/31 02:04:32.4	94.860	0.330	-0.210	-0.260
2020/01/31 02:04:32.5	94.860	0.320	-0.160	-0.260
2020/01/31 02:04:32.6	94.860	0.320	-0.120	-0.240
2020/01/31 02:04:32.7	94.860	0.310	-0.080	-0.220
2020/01/31 02:04:32.8	94.860	0.310	-0.040	-0.200
2020/01/31 02:04:32.9	94.850	0.300	-0.000	-0.180
2020/01/31 02:04:33.0	94.840	0.300	0.030	-0.150
2020/01/31 02:04:33.1	94.830	0.300	0.060	-0.110
2020/01/31 02:04:33.2	94.820	0.300	0.080	-0.070
2020/01/31 02:04:33.3	94.810	0.290	0.100	-0.030
2020/01/31 02:04:33.4	94.800	0.290	0.120	0.010
2020/01/31 02:04:33.5	94.790	0.290	0.130	0.060
2020/01/31 02:04:33.6	94.770	0.290	0.140	0.110
2020/01/31 02:04:33.7	94.760	0.290	0.150	0.170
2020/01/31 02:04:33.8	94.750	0.280	0.150	0.220
2020/01/31 02:04:33.9	94.730	0.280	0.150	0.280
2020/01/31 02:04:34.0	94.710	0.280	0.150	0.350
2020/01/31 02:04:34.1	94.700	0.280	0.140	0.410
2020/01/31 02:04:34.2	94.680	0.270	0.130	0.470
2020/01/31 02:04:34.3	94.670	0.270	0.130	0.540
2020/01/31 02:04:34.4	94.650	0.260	0.120	0.600
2020/01/31 02:04:34.5	94.640	0.260	0.110	0.660
2020/01/31 02:04:34.6	94.630	0.250	0.100	0.730
2020/01/31 02:04:34.7	94.620	0.240	0.090	0.790
2020/01/31 02:04:34.8	94.610	0.220	0.080	0.850
2020/01/31 02:04:34.9	94.600	0.210	0.070	0.910
2020/01/31 02:04:35.0	94.590	0.200	0.070	0.960
2020/01/31 02:04:35.1	94.590	0.180	0.060	1.020
2020/01/31 02:04:35.2	94.590	0.160	0.060	1.070
2020/01/31 02:04:35.3	94.590	0.140	0.060	1.110
2020/01/31 02:04:35.4	94.590	0.120	0.050	1.160
2020/01/31 02:04:35.5	94.600	0.100	0.050	1.190
2020/01/31 02:04:35.6	94.610	0.070	0.060	1.230
2020/01/31 02:04:35.7	94.620	0.040	0.060	1.260
2020/01/31 02:04:35.8	94.630	0.020	0.060	1.290
2020/01/31 02:04:35.9	94.640	-0.010	0.070	1.320
2020/01/31 02:04:36.0	94.660	-0.040	0.080	1.340
2020/01/31 02:04:36.1	94.670	-0.070	0.090	1.360
2020/01/31 02:04:36.2	94.690	-0.110	0.110	1.380
2020/01/31 02:04:36.3	94.710	-0.140	0.120	1.390
2020/01/31 02:04:36.4	94.720	-0.170	0.130	1.410
2020/01/31 02:04:36.5	94.740	-0.200	0.150	1.420
2020/01/31 02:04:36.6	94.760	-0.240	0.170	1.430
2020/01/31 02:04:36.7	94.780	-0.270	0.190	1.440
2020/01/31 02:04:36.8	94.800	-0.300	0.200	1.450
2020/01/31 02:04:36.9	94.820	-0.330	0.220	1.450
2020/01/31 02:04:37.0	94.840	-0.360	0.240	1.460
2020/01/31 02:04:37.1	94.870	-0.390	0.250	1.470
2020/01/31 02:04:37.2	94.890	-0.420	0.260	1.470
2020/01/31 02:04:37.3	94.910	-0.440	0.270	1.480
2020/01/31 02:04:37.4	94.930	-0.460	0.280	1.480
2020/01/31 02:04:37.5	94.950	-0.480	0.290	1.490
2020/01/31 02:04:37.6	94.970	-0.500	0.290	1.490
2020/01/31 02:04:37.7	94.980	-0.520	0.290	1.500
2020/01/31 02:04:37.8	95.000	-0.530	0.280	1.500
2020/01/31 02:04:37.9	95.020	-0.540	0.270	1.500
2020/01/31 02:04:38.0	95.030	-0.540	0.260	1.510
2020/01/31 02:04:38.1	95.040	-0.550	0.240	1.510
2020/01/31 02:04:38.2	95.050	-0.550	0.220	1.520
2020/01/31 02:04:38.3	95.060	-0.540	0.190	1.520
2020/01/31 02:04:38.4	95.080	-0.530	0.160	1.530
2020/01/31 02:04:38.5	95.090	-0.520	0.120	1.530
2020/01/31 02:04:38.6	95.100	-0.510	0.070	1.540
2020/01/31 02:04:38.7	95.110	-0.490	0.030	1.540
2020/01/31 02:04:38.8	95.120	-0.470	-0.030	1.550
2020/01/31 02:04:38.9	95.130	-0.440	-0.080	1.550
2020/01/31 02:04:39.0	95.140	-0.410	-0.140	1.550
2020/01/31 02:04:39.1	95.130	-0.380	-0.210	1.550
2020/01/31 02:04:39.2	95.140	-0.340	-0.280	1.560
2020/01/31 02:04:39.3	95.150	-0.310	-0.350	1.560
2020/01/31 02:04:39.4	95.160	-0.270	-0.420	1.560
2020/01/31 02:04:39.5	95.160	-0.230	-0.490	1.550
2020/01/31 02:04:39.6	95.170	-0.180	-0.560	1.550
2020/01/31 02:04:39.7	95.180	-0.140	-0.630	1.550
2020/01/31 02:04:39.8	95.180	-0.100	-0.690	1.550
2020/01/31 02:04:39.9	95.180	-0.050	-0.760	1.540
2020/01/31 02:04:40.0	95.190	-0.000	-0.820	1.530
2020/01/31 02:04:40.1	95.170	0.040	-0.880	1.530
2020/01/31 02:04:40.2	95.180	0.080	-0.930	1.520
2020/01/31 02:04:40.3	95.180	0.130	-0.980	1.510
2020/01/31 02:04:40.4	95.180	0.170	-1.020	1.500
2020/01/31 02:04:40.5	95.180	0.200	-1.050	1.490
2020/01/31 02:04:40.6	95.180	0.240	-1.080	1.480
2020/01/31 02:04:40.7	95.170	0.270	-1.090	1.470
2020/01/31 02:04:40.8	95.170	0.300	-1.100	1.460
2020/01/31 02:04:40.9	95.170	0.330	-1.100	1.450
2020/01/31 02:04:41.0	95.160	0.350	-1.090	1.430
2020/01/31 02:04:41.1	95.150	0.360	-1.080	1.420
2020/01/31 02:04:41.2	95.140	0.380	-1.050	1.410
2020/01/31 02:04:41.3	95.130	0.380	-1.010	1.390
2020/01/31 02:04:41.4	95.130	0.390	-0.970	1.380
2020/01/31 02:04:41.5	95.120	0.380	-0.920	1.370
2020/01/31 02:04:41.6	95.110	0.380	-0.850	1.360
2020/01/31 02:04:41.7	95.100	0.370	-0.790	1.340
2020/01/31 02:04:41.8	95.090	0.350	-0.710	1.330
2020/01/31 02:04:41.9	95.080	0.330	-0.630	1.310
2020/01/31 02:04:42.0	95.060	0.300	-0.540	1.300
2020/01/31 02:04:42.1	95.050	0.280	-0.450	1.290
2020/01/31 02:04:42.2	95.040	0.250	-0.360	1.280
2020/01/31 02:04:42.3	95.020	0.210	-0.260	1.260
2020/01/31 02:04:42.4	95.010	0.170	-0.160	1.240
2020/01/31 02:04:42.5	95.000	0.130	-0.060	1.220
2020/01/31 02:04:42.6	94.980	0.090	0.040	1.200
2020/01/31 02:04:42.7	94.970	0.050	0.130	1.180
2020/01/31 02:04:42.8	94.960	0.000	0.230	1.150
2020/01/31 02:04:42.9	94.950	-0.040	0.320	1.130
2020/01/31 02:04:43.0	94.940	-0.080	0.410	1.100
2020/01/31 02:04:43.1	94.930	-0.130	0.490	1.070
2020/01/31 02:04:43.2	94.920	-0.170	0.570	1.030
2020/01/31 02:04:43.3	94.920	-0.210	0.640	1.000
2020/01/31 02:04:43.4	94.910	-0.260	0.700	0.960
2020/01/31 02:04:43.5	94.910	-0.290	0.760	0.910
2020/01/31 02:04:43.6	94.910	-0.330	0.810	0.870
2020/01/31 02:04:43.7	94.910	-0.360	0.850	0.820
2020/01/31 02:04:43.8	94.920	-0.390	0.880	0.770
2020/01/31 02:04:43.9	94.920	-0.420	0.900	0.720
2020/01/31 02:04:44.0	94.930	-0.440	0.910	0.660
2020/01/31 02:04:44.1	94.940	-0.460	0.910	0.610
2020/01/31 02:04:44.2	94.950	-0.470	0.900	0.550
2020/01/31 02:04:44.3	94.960	-0.480	0.880	0.490
2020/01/31 02:04:44.4	94.980	-0.480	0.860	0.420
2020/01/31 02:04:44.5	95.000	-0.480	0.820	0.360
2020/01/31 02:04:44.6	95.010	-0.470	0.770	0.300
2020/01/31 02:04:44.7	95.030	-0.460	0.720	0.230
2020/01/31 02:04:44.8	95.050	-0.450	0.650	0.170
2020/01/31 02:04:44.9	95.080	-0.430	0.580	0.110
2020/01/31 02:04:45.0	95.100	-0.410	0.500	0.040
2020/01/31 02:04:45.1	95.120	-0.380	0.420	-0.010
2020/01/31 02:04:45.2	95.140	-0.350	0.330	-0.070
2020/01/31 02:04:45.3	95.160	-0.310	0.240	-0.130
2020/01/31 02:04:45.4	95.180	-0.280	0.140	-0.180
2020/01/31 02:04:45.5	95.200	-0.240	0.040	-0.240
2020/01/31 02:04:45.6	95.220	-0.200	-0.060	-0.290
2020/01/31 02:04:45.7	95.240	-0.150	-0.160	-0.330
2020/01/31 02:04:45.8	95.250	-0.110	-0.250	-0.380
2020/01/31 02:04:45.9	95.270	-0.070	-0.350	-0.420
2020/01/31 02:04:46.0	95.280	-0.020	-0.440	-0.460
2020/01/31 02:04:46.1	95.300	0.020	-0.530	-0.490
2020/01/31 02:04:46.2	95.310	0.070	-0.610	-0.530
2020/01/31 02:04:46.3	95.320	0.110	-0.690	-0.550
2020/01/31 02:04:46.4	95.320	0.150	-0.760	-0.580
2020/01/31 02:04:46.5	95.330	0.190	-0.820	-0.600
2020/01/31 02:04:46.6	95.330	0.220	-0.880	-0.610
2020/01/31 02:04:46.7	95.330	0.250	-0.920	-0.630
2020/01/31 02:04:46.8	95.330	0.280	-0.960	-0.630
2020/01/31 02:04:46.9	95.330	0.310	-0.990	-0.640
2020/01/31 02:04:47.0	95.320	0.330	-1.010	-0.630
2020/01/31 02:04:47.1	95.330	0.350	-1.030	-0.620
2020/01/31 02:04:47.2	95.320	0.370	-1.030	-0.610
2020/01/31 02:04:47.3	95.320	0.380	-1.030	-0.590
2020/01/31 02:04:47.4	95.310	0.390	-1.020	-0.570
2020/01/31 02:04:47.5	95.310	0.400	-1.000	-0.550
2020/01/31 02:04:47.6	95.300	0.400	-0.980	-0.520
2020/01/31 02:04:47.7	95.290	0.400	-0.950	-0.490
2020/01/31 02:04:47.8	95.290	0.400	-0.910	-0.450
2020/01/31 02:04:47.9	95.280	0.390	-0.870	-0.410
2020/01/31 02:04:48.0	95.280	0.390	-0.830	-0.370
2020/01/31 02:04:48.1	95.280	0.380	-0.770	-0.320
2020/01/31 02:04:48.2	95.280	0.370	-0.720	-0.270
2020/01/31 02:04:48.3	95.270	0.350	-0.670	-0.220
2020/01/31 02:04:48.4	95.270	0.340	-0.610	-0.160
2020/01/31 02:04:48.5	95.270	0.330	-0.550	-0.110
2020/01/31 02:04:48.6	95.270	0.310	-0.490	-0.050
2020/01/31 02:04:48.7	95.270	0.300	-0.440	0.010
2020/01/31 02:04:48.8	95.270	0.280	-0.380	0.070
2020/01/31 02:04:48.9	95.270	0.270	-0.320	0.130
2020/01/31 02:04:49.0	95.270	0.250	-0.260	0.200
2020/01/31 02:04:49.1	95.270	0.240	-0.210	0.260
2020/01/31 02:04:49.2	95.270	0.220	-0.150	0.330
2020/01/31 02:04:49.3	95.270	0.210	-0.100	0.390
2020/01/31 02:04:49.4	95.280	0.200	-0.050	0.450
2020/01/31 02:04:49.5	95.280	0.190	-0.000	0.510
2020/01/31 02:04:49.6	95.290	0.180	0.040	0.580
2020/01/31 02:04:49.7	95.300	0.170	0.080	0.640
2020/01/31 02:04:49.8	95.300	0.160	0.120	0.700
2020/01/31 02:04:49.9	95.310	0.160	0.160	0.760
2020/01/31 02:04:50.0	95.320	0.150	0.190	0.820
2020/01/31 02:04:50.1	95.320	0.150	0.220	0.880
2020/01/31 02:04:50.2	95.330	0.140	0.250	0.930
2020/01/31 02:04:50.3	95.330	0.140	0.280	0.990
2020/01/31 02:04:50.4	95.340	0.140	0.300	1.040
2020/01/31 02:04:50.5	95.350	0.130	0.320	1.100
2020/01/31 02:04:50.6	95.350	0.130	0.340	1.150
2020/01/31 02:04:50.7	95.360	0.130	0.360	1.200
2020/01/31 02:04:50.8	95.370	0.130	0.370	1.250
2020/01/31 02:04:50.9	95.370	0.130	0.380	1.300
2020/01/31 02:04:51.0	95.370	0.130	0.380	1.350
2020/01/31 02:04:51.1	95.360	0.130	0.390	1.400
2020/01/31 02:04:51.2	95.360	0.120	0.390	1.450
2020/01/31 02:04:51.3	95.360	0.120	0.390	1.490
2020/01/31 02:04:51.4	95.360	0.120	0.390	1.540
2020/01/31 02:04:51.5	95.360	0.120	0.390	1.580
2020/01/31 02:04:51.6	95.350	0.120	0.380	1.620
2020/01/31 02:04:51.7	95.350	0.110	0.370	1.660
2020/01/31 02:04:51.8	95.340	0.110	0.360	1.700
2020/01/31 02:04:51.9	95.340	0.110	0.340	1.740
2020/01/31 02:04:52.0	95.330	0.100	0.330	1.770
2020/01/31 02:04:52.1	95.330	0.100	0.310	1.810
2020/01/31 02:04:52.2	95.320	0.090	0.290	1.840
2020/01/31 02:04:52.3	95.310	0.080	0.270	1.870
2020/01/31 02:04:52.4	95.310	0.080	0.240	1.900
2020/01/31 02:04:52.5	95.300	0.070	0.220	1.930
2020/01/31 02:04:52.6	95.290	0.060	0.190	1.950
2020/01/31 02:04:52.7	95.290	0.050	0.160	1.970
2020/01/31 02:04:52.8	95.280	0.040	0.140	1.990
2020/01/31 02:04:52.9	95.270	0.030	0.110	2.000
2020/01/31 02:04:53.0	95.270	0.020	0.070	2.020
2020/01/31 02:04:53.1	95.250	0.010	0.040	2.030
2020/01/31 02:04:53.2	95.250	-0.000	0.010	2.030
2020/01/31 02:04:53.3	95.250	-0.020	-0.020	2.030
2020/01/31 02:04:53.4	95.250	-0.030	-0.060	2.030
2020/01/31 02:04:53.5	95.250	-0.040	-0.090	2.030
2020/01/31 02:04:53.6	95.250	-0.050	-0.130	2.020
2020/01/31 02:04:53.7	95.250	-0.070	-0.160	2.010
2020/01/31 02:04:53.8	95.260	-0.080	-0.200	1.990
2020/01/31 02:04:53.9	95.260	-0.090	-0.230	1.970
2020/01/31 02:04:54.0	95.270	-0.100	-0.270	1.940
2020/01/31 02:04:54.1	95.270	-0.110	-0.310	1.920
2020/01/31 02:04:54.2	95.280	-0.120	-0.340	1.880
2020/01/31 02:04:54.3	95.290	-0.130	-0.380	1.850
2020/01/31 02:04:54.4	95.310	-0.140	-0.410	1.810
2020/01/31 02:04:54.5	95.320	-0.150	-0.440	1.770
2020/01/31 02:04:54.6	95.340	-0.160	-0.470	1.720
2020/01/31 02:04:54.7	95.350	-0.160	-0.500	1.680
2020/01/31 02:04:54.8	95.370	-0.170	-0.530	1.630
2020/01/31 02:04:54.9	95.390	-0.170	-0.560	1.580
2020/01/31 02:04:55.0	95.410	-0.170	-0.590	1.530
2020/01/31 02:04:55.1	95.420	-0.170	-0.610	1.480
2020/01/31 02:04:55.2	95.440	-0.170	-0.630	1.430
2020/01/31 02:04:55.3	95.470	-0.170	-0.650	1.380
2020/01/31 02:04:55.4	95.490	-0.170	-0.670	1.330
2020/01/31 02:04:55.5	95.510	-0.170	-0.680	1.290
2020/01/31 02:04:55.6	95.530	-0.160	-0.690	1.240
2020/01/31 02:04:55.7	95.550	-0.160	-0.700	1.200
2020/01/31 02:04:55.8	95.570	-0.150	-0.710	1.160
2020/01/31 02:04:55.9	95.590	-0.150	-0.710	1.130
2020/01/31 02:04:56.0	95.610	-0.140	-0.710	1.090
2020/01/31 02:04:56.1	95.630	-0.130	-0.710	1.070
2020/01/31 02:04:56.2	95.640	-0.120	-0.710	1.040
2020/01/31 02:04:56.3	95.650	-0.120	-0.690	1.020
2020/01/31 02:04:56.4	95.650	-0.110	-0.680	1.000
2020/01/31 02:04:56.5	95.660	-0.100	-0.660	0.980
2020/01/31 02:04:56.6	95.660	-0.090	-0.650	0.970
2020/01/31 02:04:56.7	95.660	-0.090	-0.620	0.960
2020/01/31 02:04:56.8	95.650	-0.080	-0.600	0.950
2020/01/31 02:04:56.9	95.650	-0.070	-0.570	0.950
2020/01/31 02:04:57.0	95.640	-0.070	-0.530	0.940
2020/01/31 02:04:57.1	95.610	-0.060	-0.500	0.940
2020/01/31 02:04:57.2	95.600	-0.060	-0.460	0.940
2020/01/31 02:04:57.3	95.590	-0.060	-0.420	0.930
2020/01/31 02:04:57.4	95.570	-0.060	-0.380	0.930
2020/01/31 02:04:57.5	95.550	-0.060	-0.340	0.920
2020/01/31 02:04:57.6	95.540	-0.060	-0.300	0.920
2020/01/31 02:04:57.7	95.520	-0.060	-0.250	0.910
2020/01/31 02:04:57.8	95.500	-0.060	-0.210	0.910
2020/01/31 02:04:57.9	95.480	-0.070	-0.160	0.900
2020/01/31 02:04:58.0	95.460	-0.070	-0.120	0.890
2020/01/31 02:04:58.1	95.450	-0.070	-0.070	0.880
2020/01/31 02:04:58.2	95.430	-0.080	-0.030	0.860
2020/01/31 02:04:58.3	95.410	-0.090	0.010	0.850
2020/01/31 02:04:58.4	95.400	-0.090	0.050	0.840
2020/01/31 02:04:58.5	95.380	-0.100	0.090	0.820
2020/01/31 02:04:58.6	95.360	-0.110	0.130	0.800
2020/01/31 02:04:58.7	95.350	-0.120	0.170	0.780
2020/01/31 02:04:58.8	95.330	-0.120	0.200	0.760
2020/01/31 02:04:58.9	95.320	-0.130	0.230	0.740
2020/01/31 02:04:59.0	95.300	-0.140	0.260	0.720
2020/01/31 02:04:59.1	95.290	-0.150	0.290	0.700
2020/01/31 02:04:59.2	95.280	-0.160	0.310	0.680
2020/01/31 02:04:59.3	95.270	-0.160	0.330	0.660
2020/01/31 02:04:59.4	95.260	-0.170	0.350	0.640
2020/01/31 02:04:59.5	95.250	-0.180	0.360	0.610
2020/01/31 02:04:59.6	95.240	-0.180	0.380	0.590
2020/01/31 02:04:59.7	95.230	-0.190	0.390	0.570
2020/01/31 02:04:59.8	95.220	-0.190	0.390	0.540
2020/01/31 02:04:59.9	95.210	-0.190	0.400	0.520
2020/01/31 02:05:00.0	95.210	-0.200	0.400	0.490
2020/01/31 02:05:00.1	95.220	-0.200	0.390	0.460
2020/01/31 02:05:00.2	95.220	-0.200	0.390	0.430
2020/01/31 02:05:00.3	95.210	-0.200	0.380	0.400
2020/01/31 02:05:00.4	95.220	-0.200	0.370	0.370
2020/01/31 02:05:00.5	95.220	-0.190	0.350	0.330
2020/01/31 02:05:00.6	95.220	-0.190	0.330	0.290
2020/01/31 02:05:00.7	95.230	-0.180	0.310	0.250
2020/01/31 02:05:00.8	95.240	-0.170	0.280	0.210
2020/01/31 02:05:00.9	95.250	-0.170	0.260	0.170
2020/01/31 02:05:01.0	95.260	-0.160	0.230	0.120
2020/01/31 02:05:01.1	95.290	-0.140	0.190	0.080
2020/01/31 02:05:01.2	95.310	-0.130	0.160	0.030
2020/01/31 02:05:01.3	95.320	-0.120	0.120	-0.020
2020/01/31 02:05:01.4	95.340	-0.100	0.080	-0.070
2020/01/31 02:05:01.5	95.370	-0.090	0.050	-0.120
2020/01/31 02:05:01.6	95.390	-0.070	0.010	-0.170
2020/01/31 02:05:01.7	95.420	-0.060	-0.040	-0.220
2020/01/31 02:05:01.8	95.440	-0.040	-0.080	-0.270
2020/01/31 02:05:01.9	95.470	-0.020	-0.120	-0.320
2020/01/31 02:05:02.0	95.500	-0.000	-0.160	-0.370
2020/01/31 02:05:02.1	95.520	0.020	-0.200	-0.420
2020/01/31 02:05:02.2	95.550	0.030	-0.240	-0.460
2020/01/31 02:05:02.3	95.580	0.050	-0.280	-0.500
2020/01/31 02:05:02.4	95.610	0.070	-0.310	-0.530
2020/01/31 02:05:02.5	95.640	0.090	-0.350	-0.570
2020/01/31 02:05:02.6	95.660	0.100	-0.380	-0.590
2020/01/31 02:05:02.7	95.690	0.120	-0.410	-0.610
2020/01/31 02:05:02.8	95.720	0.130	-0.440	-0.630
2020/01/31 02:05:02.9	95.740	0.150	-0.460	-0.640
2020/01/31 02:05:03.0	95.760	0.160	-0.480	-0.650
2020/01/31 02:05:03.1	95.780	0.170	-0.500	-0.650
2020/01/31 02:05:03.2	95.800	0.180	-0.510	-0.640
2020/01/31 02:05:03.3	95.820	0.180	-0.520	-0.630
2020/01/31 02:05:03.4	95.830	0.190	-0.530	-0.610
2020/01/31 02:05:03.5	95.840	0.190	-0.530	-0.590
2020/01/31 02:05:03.6	95.850	0.200	-0.530	-0.560
2020/01/31 02:05:03.7	95.860	0.200	-0.530	-0.530
2020/01/31 02:05:03.8	95.860	0.190	-0.530	-0.490
2020/01/31 02:05:03.9	95.860	0.190	-0.520	-0.440
2020/01/31 02:05:04.0	95.860	0.190	-0.510	-0.390
2020/01/31 02:05:04.1	95.870	0.180	-0.490	-0.330
2020/01/31 02:05:04.2	95.860	0.180	-0.480	-0.270
2020/01/31 02:05:04.3	95.850	0.170	-0.460	-0.200
2020/01/31 02:05:04.4	95.840	0.160	-0.440	-0.130
2020/01/31 02:05:04.5	95.830	0.150	-0.420	-0.050
2020/01/31 02:05:04.6	95.810	0.140	-0.400	0.030
2020/01/31 02:05:04.7	95.800	0.130	-0.380	0.110
2020/01/31 02:05:04.8	95.780	0.120	-0.350	0.200
2020/01/31 02:05:04.9	95.750	0.110	-0.330	0.290
2020/01/31 02:05:05.0	95.730	0.100	-0.300	0.380
2020/01/31 02:05:05.1	95.710	0.080	-0.280	0.480
2020/01/31 02:05:05.2	95.680	0.070	-0.250	0.570
2020/01/31 02:05:05.3	95.650	0.060	-0.230	0.670
2020/01/31 02:05:05.4	95.630	0.050	-0.210	0.770
2020/01/31 02:05:05.5	95.600	0.040	-0.190	0.860
2020/01/31 02:05:05.6	95.580	0.040	-0.170	0.960
2020/01/31 02:05:05.7	95.550	0.030	-0.150	1.050
2020/01/31 02:05:05.8	95.520	0.020	-0.140	1.150
2020/01/31 02:05:05.9	95.500	0.020	-0.130	1.240
2020/01/31 02:05:06.0	95.470	0.010	-0.110	1.320
2020/01/31 02:05:06.1	95.450	0.010	-0.110	1.410
2020/01/31 02:05:06.2	95.420	0.010	-0.100	1.490
2020/01/31 02:05:06.3	95.400	0.010	-0.090	1.570
2020/01/31 02:05:06.4	95.390	0.010	-0.090	1.640
2020/01/31 02:05:06.5	95.370	0.010	-0.080	1.710
2020/01/31 02:05:06.6	95.350	0.010	-0.080	1.770
2020/01/31 02:05:06.7	95.340	0.010	-0.080	1.830
2020/01/31 02:05:06.8	95.330	0.020	-0.090	1.880
2020/01/31 02:05:06.9	95.320	0.030	-0.090	1.930
2020/01/31 02:05:07.0	95.310	0.030	-0.090	1.970
2020/01/31 02:05:07.1	95.310	0.040	-0.100	2.010
2020/01/31 02:05:07.2	95.310	0.050	-0.100	2.040
2020/01/31 02:05:07.3	95.300	0.060	-0.110	2.070
2020/01/31 02:05:07.4	95.300	0.070	-0.120	2.090
2020/01/31 02:05:07.5	95.300	0.080	-0.120	2.110
2020/01/31 02:05:07.6	95.300	0.100	-0.130	2.120
2020/01/31 02:05:07.7	95.300	0.110	-0.140	2.130
2020/01/31 02:05:07.8	95.300	0.120	-0.150	2.130
2020/01/31 02:05:07.9	95.300	0.140	-0.150	2.130
2020/01/31 02:05:08.0	95.310	0.150	-0.160	2.120
2020/01/31 02:05:08.1	95.310	0.170	-0.170	2.120
2020/01/31 02:05:08.2	95.320	0.180	-0.170	2.100
2020/01/31 02:05:08.3	95.330	0.190	-0.180	2.080
2020/01/31 02:05:08.4	95.340	0.210	-0.180	2.060
2020/01/31 02:05:08.5	95.350	0.220	-0.190	2.030
2020/01/31 02:05:08.6	95.360	0.230	-0.190	2.000
2020/01/31 02:05:08.7	95.370	0.250	-0.200	1.970
2020/01/31 02:05:08.8	95.390	0.260	-0.200	1.930
2020/01/31 02:05:08.9	95.400	0.270	-0.200	1.900
2020/01/31 02:05:09.0	95.420	0.280	-0.200	1.850
2020/01/31 02:05:09.1	95.430	0.290	-0.190	1.810
2020/01/31 02:05:09.2	95.450	0.300	-0.190	1.760
2020/01/31 02:05:09.3	95.470	0.300	-0.190	1.720
2020/01/31 02:05:09.4	95.480	0.310	-0.190	1.670
2020/01/31 02:05:09.5	95.500	0.320	-0.190	1.620
2020/01/31 02:05:09.6	95.520	0.320	-0.190	1.570
2020/01/31 02:05:09.7	95.540	0.320	-0.180	1.510
2020/01/31 02:05:09.8	95.550	0.330	-0.180	1.460
2020/01/31 02:05:09.9	95.570	0.330	-0.180	1.410
2020/01/31 02:05:10.0	95.590	0.330	-0.180	1.360
2020/01/31 02:05:10.1	95.610	0.320	-0.180	1.310
2020/01/31 02:05:10.2	95.620	0.320	-0.180	1.260
2020/01/31 02:05:10.3	95.640	0.320	-0.180	1.200
2020/01/31 02:05:10.4	95.650	0.310	-0.180	1.150
2020/01/31 02:05:10.5	95.660	0.310	-0.180	1.100
2020/01/31 02:05:10.6	95.680	0.300	-0.180	1.050
2020/01/31 02:05:10.7	95.690	0.300	-0.180	1.000
2020/01/31 02:05:10.8	95.700	0.290	-0.190	0.950
2020/01/31 02:05:10.9	95.710	0.280	-0.190	0.900
2020/01/31 02:05:11.0	95.720	0.270	-0.190	0.850
2020/01/31 02:05:11.1	95.720	0.260	-0.190	0.800
2020/01/31 02:05:11.2	95.730	0.250	-0.190	0.760
2020/01/31 02:05:11.3	95.730	0.230	-0.200	0.720
2020/01/31 02:05:11.4	95.730	0.220	-0.200	0.680
2020/01/31 02:05:11.5	95.730	0.200	-0.200	0.640
2020/01/31 02:05:11.6	95.730	0.190	-0.190	0.600
2020/01/31 02:05:11.7	95.730	0.170	-0.190	0.570
2020/01/31 02:05:11.8	95.730	0.150	-0.190	0.540
2020/01/31 02:05:11.9	95.720	0.130	-0.180	0.510
2020/01/31 02:05:12.0	95.710	0.110	-0.170	0.480
2020/01/31 02:05:12.1	95.700	0.090	-0.170	0.460
2020/01/31 02:05:12.2	95.690	0.060	-0.150	0.430
2020/01/31 02:05:12.3	95.680	0.030	-0.140	0.410
2020/01/31 02:05:12.4	95.670	0.010	-0.120	0.390
2020/01/31 02:05:12.5	95.660	-0.020	-0.100	0.370
2020/01/31 02:05:12.6	95.650	-0.050	-0.080	0.360
2020/01/31 02:05:12.7	95.640	-0.080	-0.060	0.340
2020/01/31 02:05:12.8	95.620	-0.120	-0.040	0.330
2020/01/31 02:05:12.9	95.610	-0.150	-0.010	0.320
2020/01/31 02:05:13.0	95.600	-0.190	0.020	0.310
2020/01/31 02:05:13.1	95.580	-0.220	0.050	0.310
2020/01/31 02:05:13.2	95.570	-0.260	0.070	0.300
2020/01/31 02:05:13.3	95.560	-0.290	0.100	0.300
2020/01/31 02:05:13.4	95.550	-0.330	0.130	0.300
2020/01/31 02:05:13.5	95.540	-0.370	0.160	0.300
2020/01/31 02:05:13.6	95.530	-0.400	0.190	0.310
2020/01/31 02:05:13.7	95.520	-0.440	0.220	0.310
2020/01/31 02:05:13.8	95.510	-0.470	0.250	0.320
2020/01/31 02:05:13.9	95.500	-0.500	0.270	0.330
2020/01/31 02:05:14.0	95.490	-0.540	0.290	0.330
2020/01/31 02:05:14.1	95.480	-0.570	0.310	0.350
2020/01/31 02:05:14.2	95.470	-0.600	0.330	0.360
2020/01/31 02:05:14.3	95.460	-0.620	0.350	0.370
2020/01/31 02:05:14.4	95.460	-0.650	0.360	0.380
2020/01/31 02:05:14.5	95.450	-0.670	0.370	0.400
2020/01/31 02:05:14.6	95.440	-0.690	0.370	0.410
2020/01/31 02:05:14.7	95.440	-0.700	0.370	0.430
2020/01/31 02:05:14.8	95.430	-0.710	0.370	0.450
2020/01/31 02:05:14.9	95.430	-0.720	0.360	0.470
2020/01/31 02:05:15.0	95.420	-0.730	0.350	0.490
2020/01/31 02:05:15.1	95.420	-0.730	0.330	0.510
2020/01/31 02:05:15.2	95.420	-0.720	0.300	0.530
2020/01/31 02:05:15.3	95.410	-0.720	0.280	0.550
2020/01/31 02:05:15.4	95.410	-0.710	0.240	0.570
2020/01/31 02:05:15.5	95.410	-0.690	0.210	0.580
2020/01/31 02:05:15.6	95.410	-0.670	0.170	0.600
2020/01/31 02:05:15.7	95.410	-0.650	0.120	0.610
2020/01/31 02:05:15.8	95.410	-0.630	0.070	0.620
2020/01/31 02:05:15.9	95.420	-0.600	0.020	0.630
2020/01/31 02:05:16.0	95.420	-0.570	-0.030	0.640
2020/01/31 02:05:16.1	95.430	-0.540	-0.090	0.650
2020/01/31 02:05:16.2	95.440	-0.500	-0.150	0.650
2020/01/31 02:05:16.3	95.450	-0.470	-0.210	0.650
2020/01/31 02:05:16.4	95.460	-0.430	-0.270	0.650
2020/01/31 02:05:16.5	95.470	-0.390	-0.330	0.660
2020/01/31 02:05:16.6	95.480	-0.340	-0.390	0.650
2020/01/31 02:05:16.7	95.490	-0.300	-0.450	0.650
2020/01/31 02:05:16.8	95.500	-0.260	-0.510	0.650
2020/01/31 02:05:16.9	95.510	-0.220	-0.570	0.650
2020/01/31 02:05:17.0	95.520	-0.170	-0.620	0.650
2020/01/31 02:05:17.1	95.520	-0.130	-0.680	0.660
2020/01/31 02:05:17.2	95.530	-0.090	-0.730	0.660
2020/01/31 02:05:17.3	95.540	-0.050	-0.780	0.670
2020/01/31 02:05:17.4	95.540	-0.010	-0.820	0.670
2020/01/31 02:05:17.5	95.550	0.020	-0.860	0.680
2020/01/31 02:05:17.6	95.550	0.060	-0.890	0.690
2020/01/31 02:05:17.7	95.560	0.090	-0.920	0.700
2020/01/31 02:05:17.8	95.560	0.130	-0.950	0.720
2020/01/31 02:05:17.9	95.560	0.150	-0.970	0.730
2020/01/31 02:05:18.0	95.560	0.180	-0.980	0.750
2020/01/31 02:05:18.1	95.560	0.210	-0.990	0.770
2020/01/31 02:05:18.2	95.550	0.230	-0.990	0.790
2020/01/31 02:05:18.3	95.550	0.250	-0.990	0.810
2020/01/31 02:05:18.4	95.550	0.270	-0.990	0.830
2020/01/31 02:05:18.5	95.550	0.280	-0.980	0.860
2020/01/31 02:05:18.6	95.550	0.290	-0.960	0.880
2020/01/31 02:05:18.7	95.550	0.300	-0.940	0.900
2020/01/31 02:05:18.8	95.550	0.310	-0.910	0.920
2020/01/31 02:05:18.9	95.560	0.320	-0.880	0.940
2020/01/31 02:05:19.0	95.560	0.320	-0.850	0.960
2020/01/31 02:05:19.1	95.560	0.320	-0.810	0.980
2020/01/31 02:05:19.2	95.560	0.320	-0.770	1.000
2020/01/31 02:05:19.3	95.560	0.320	-0.720	1.010
2020/01/31 02:05:19.4	95.570	0.310	-0.670	1.030
2020/01/31 02:05:19.5	95.570	0.300	-0.610	1.040
2020/01/31 02:05:19.6	95.580	0.300	-0.560	1.050
2020/01/31 02:05:19.7	95.580	0.290	-0.500	1.060
2020/01/31 02:05:19.8	95.580	0.270	-0.430	1.070
2020/01/31 02:05:19.9	95.580	0.260	-0.370	1.080
2020/01/31 02:05:20.0	95.590	0.250	-0.300	1.080
2020/01/31 02:05:20.1	95.600	0.230	-0.230	1.090
2020/01/31 02:05:20.2	95.600	0.220	-0.160	1.090
2020/01/31 02:05:20.3	95.590	0.200	-0.090	1.090
2020/01/31 02:05:20.4	95.590	0.180	-0.020	1.090
2020/01/31 02:05:20.5	95.580	0.170	0.050	1.100
2020/01/31 02:05:20.6	95.570	0.150	0.120	1.090
2020/01/31 02:05:20.7	95.560	0.140	0.190	1.090
2020/01/31 02:05:20.8	95.550	0.120	0.250	1.090
2020/01/31 02:05:20.9	95.530	0.100	0.320	1.090
2020/01/31 02:05:21.0	95.520	0.090	0.380	1.090
2020/01/31 02:05:21.1	95.510	0.080	0.440	1.080
2020/01/31 02:05:21.2	95.490	0.070	0.490	1.080
2020/01/31 02:05:21.3	95.470	0.060	0.540	1.070
2020/01/31 02:05:21.4	95.450	0.050	0.590	1.070
2020/01/31 02:05:21.5	95.430	0.040	0.630	1.060
2020/01/31 02:05:21.6	95.400	0.030	0.660	1.050
2020/01/31 02:05:21.7	95.380	0.030	0.700	1.040
2020/01/31 02:05:21.8	95.360	0.030	0.720	1.030
2020/01/31 02:05:21.9	95.340	0.030	0.740	1.020
2020/01/31 02:05:22.0	95.320	0.030	0.750	1.010
2020/01/31 02:05:22.1	95.290	0.030	0.760	0.990
2020/01/31 02:05:22.2	95.270	0.030	0.770	0.980
2020/01/31 02:05:22.3	95.250	0.040	0.760	0.960
2020/01/31 02:05:22.4	95.240	0.050	0.750	0.940
2020/01/31 02:05:22.5	95.220	0.060	0.740	0.920
2020/01/31 02:05:22.6	95.200	0.070	0.720	0.900
2020/01/31 02:05:22.7	95.190	0.080	0.690	0.880
2020/01/31 02:05:22.8	95.180	0.090	0.660	0.860
2020/01/31 02:05:22.9	95.170	0.110	0.620	0.840
2020/01/31 02:05:23.0	95.160	0.120	0.580	0.820
2020/01/31 02:05:23.1	95.150	0.140	0.530	0.800
2020/01/31 02:05:23.2	95.150	0.160	0.480	0.770
2020/01/31 02:05:23.3	95.150	0.170	0.420	0.740
2020/01/31 02:05:23.4	95.150	0.190	0.370	0.710
2020/01/31 02:05:23.5	95.150	0.210	0.300	0.680
2020/01/31 02:05:23.6	95.150	0.220	0.240	0.650
2020/01/31 02:05:23.7	95.150	0.240	0.170	0.620
2020/01/31 02:05:23.8	95.160	0.260	0.100	0.580
2020/01/31 02:05:23.9	95.170	0.270	0.030	0.550
2020/01/31 02:05:24.0	95.180	0.290	-0.050	0.510
2020/01/31 02:05:24.1	95.200	0.300	-0.120	0.470
2020/01/31 02:05:24.2	95.210	0.320	-0.190	0.430
2020/01/31 02:05:24.3	95.230	0.330	-0.270	0.390
2020/01/31 02:05:24.4	95.240	0.340	-0.340	0.350
2020/01/31 02:05:24.5	95.260	0.350	-0.420	0.310
2020/01/31 02:05:24.6	95.280	0.360	-0.490	0.270
2020/01/31 02:05:24.7	95.290	0.370	-0.560	0.230
2020/01/31 02:05:24.8	95.310	0.380	-0.620	0.190
2020/01/31 02:05:24.9	95.330	0.390	-0.690	0.150
2020/01/31 02:05:25.0	95.350	0.390	-0.750	0.110
2020/01/31 02:05:25.1	95.370	0.390	-0.800	0.080
2020/01/31 02:05:25.2	95.390	0.390	-0.850	0.050
2020/01/31 02:05:25.3	95.410	0.390	-0.900	0.020
2020/01/31 02:05:25.4	95.420	0.390	-0.930	-0.010
2020/01/31 02:05:25.5	95.440	0.390	-0.960	-0.030
2020/01/31 02:05:25.6	95.450	0.380	-0.990	-0.040
2020/01/31 02:05:25.7	95.470	0.380	-1.010	-0.060
2020/01/31 02:05:25.8	95.480	0.370	-1.020	-0.060
2020/01/31 02:05:25.9	95.490	0.360	-1.020	-0.060
2020/01/31 02:05:26.0	95.500	0.340	-1.020	-0.060
2020/01/31 02:05:26.1	95.520	0.330	-1.010	-0.040
2020/01/31 02:05:26.2	95.530	0.320	-1.000	-0.030
2020/01/31 02:05:26.3	95.530	0.300	-0.980	-0.010
2020/01/31 02:05:26.4	95.530	0.280	-0.950	0.020
2020/01/31 02:05:26.5	95.530	0.260	-0.910	0.050
2020/01/31 02:05:26.6	95.530	0.240	-0.870	0.090
2020/01/31 02:05:26.7	95.530	0.220	-0.830	0.130
2020/01/31 02:05:26.8	95.520	0.200	-0.780	0.180
2020/01/31 02:05:26.9	95.510	0.170	-0.730	0.230
2020/01/31 02:05:27.0	95.500	0.150	-0.680	0.280
2020/01/31 02:05:27.1	95.490	0.130	-0.610	0.340
2020/01/31 02:05:27.2	95.480	0.100	-0.550	0.400
2020/01/31 02:05:27.3	95.460	0.080	-0.490	0.460
2020/01/31 02:05:27.4	95.450	0.050	-0.430	0.530
2020/01/31 02:05:27.5	95.430	0.030	-0.370	0.600
2020/01/31 02:05:27.6	95.410	0.010	-0.310	0.670
2020/01/31 02:05:27.7	95.390	-0.020	-0.260	0.740
2020/01/31 02:05:27.8	95.370	-0.040	-0.200	0.810
2020/01/31 02:05:27.9	95.350	-0.060	-0.140	0.890
2020/01/31 02:05:28.0	95.320	-0.080	-0.090	0.960
2020/01/31 02:05:28.1	95.300	-0.100	-0.050	1.040
2020/01/31 02:05:28.2	95.280	-0.110	-0.000	1.110
2020/01/31 02:05:28.3	95.250	-0.130	0.040	1.180
2020/01/31 02:05:28.4	95.230	-0.150	0.080	1.250
2020/01/31 02:05:28.5	95.210	-0.160	0.110	1.320
2020/01/31 02:05:28.6	95.190	-0.170	0.140	1.390
2020/01/31 02:05:28.7	95.170	-0.180	0.160	1.460
2020/01/31 02:05:28.8	95.150	-0.190	0.180	1.520
2020/01/31 02:05:28.9	95.130	-0.200	0.200	1.580
2020/01/31 02:05:29.0	95.110	-0.210	0.210	1.630
2020/01/31 02:05:29.1	95.100	-0.210	0.210	1.690
2020/01/31 02:05:29.2	95.090	-0.220	0.220	1.740
2020/01/31 02:05:29.3	95.080	-0.220	0.220	1.780
2020/01/31 02:05:29.4	95.070	-0.230	0.220	1.820
2020/01/31 02:05:29.5	95.070	-0.230	0.220	1.860
2020/01/31 02:05:29.6	95.070	-0.230	0.210	1.890
2020/01/31 02:05:29.7	95.070	-0.240	0.200	1.910
2020/01/31 02:05:29.8	95.070	-0.240	0.190	1.940
2020/01/31 02:05:29.9	95.070	-0.240	0.180	1.960
2020/01/31 02:05:30.0	95.080	-0.250	0.170	1.970
2020/01/31 02:05:30.1	95.080	-0.250	0.160	1.980
2020/01/31 02:05:30.2	95.100	-0.250	0.150	1.990
2020/01/31 02:05:30.3	95.110	-0.260	0.140	1.990
2020/01/31 02:05:30.4	95.120	-0.260	0.130	1.990
2020/01/31 02:05:30.5	95.130	-0.270	0.120	1.980
2020/01/31 02:05:30.6	95.150	-0.270	0.120	1.970
2020/01/31 02:05:30.7	95.160	-0.280	0.110	1.960
2020/01/31 02:05:30.8	95.180	-0.290	0.110	1.950
2020/01/31 02:05:30.9	95.190	-0.290	0.110	1.930
2020/01/31 02:05:31.0	95.210	-0.300	0.110	1.910
2020/01/31 02:05:31.1	95.240	-0.310	0.120	1.890
2020/01/31 02:05:31.2	95.250	-0.320	0.120	1.870
2020/01/31 02:05:31.3	95.270	-0.330	0.130	1.840
2020/01/31 02:05:31.4	95.280	-0.340	0.140	1.810
2020/01/31 02:05:31.5	95.300	-0.350	0.150	1.780
2020/01/31 02:05:31.6	95.310	-0.360	0.160	1.750
2020/01/31 02:05:31.7	95.320	-0.370	0.170	1.710
2020/01/31 02:05:31.8	95.330	-0.380	0.180	1.680
2020/01/31 02:05:31.9	95.350	-0.390	0.190	1.640
2020/01/31 02:05:32.0	95.360	-0.400	0.200	1.600
2020/01/31 02:05:32.1	95.370	-0.410	0.210	1.560
2020/01/31 02:05:32.2	95.380	-0.420	0.220	1.520
2020/01/31 02:05:32.3	95.390	-0.420	0.230	1.480
2020/01/31 02:05:32.4	95.400	-0.430	0.240	1.430
2020/01/31 02:05:32.5	95.410	-0.440	0.240	1.390
2020/01/31 02:05:32.6	95.420	-0.440	0.240	1.340
2020/01/31 02:05:32.7	95.430	-0.450	0.240	1.290
2020/01/31 02:05:32.8	95.440	-0.450	0.240	1.240
2020/01/31 02:05:32.9	95.450	-0.450	0.240	1.190
2020/01/31 02:05:33.0	95.460	-0.450	0.230	1.140
2020/01/31 02:05:33.1	95.470	-0.450	0.220	1.090
2020/01/31 02:05:33.2	95.480	-0.440	0.210	1.040
2020/01/31 02:05:33.3	95.490	-0.440	0.190	0.980
2020/01/31 02:05:33.4	95.490	-0.430	0.170	0.930
2020/01/31 02:05:33.5	95.500	-0.420	0.150	0.880
2020/01/31 02:05:33.6	95.500	-0.410	0.120	0.820
2020/01/31 02:05:33.7	95.510	-0.400	0.090	0.770
2020/01/31 02:05:33.8	95.510	-0.380	0.060	0.720
2020/01/31 02:05:33.9	95.510	-0.370	0.020	0.670
2020/01/31 02:05:34.0	95.510	-0.350	-0.020	0.620
2020/01/31 02:05:34.1	95.500	-0.330	-0.060	0.570
2020/01/31 02:05:34.2	95.500	-0.300	-0.110	0.530
2020/01/31 02:05:34.3	95.490	-0.280	-0.150	0.480
2020/01/31 02:05:34.4	95.480	-0.250	-0.200	0.440
2020/01/31 02:05:34.5	95.470	-0.220	-0.250	0.400
2020/01/31 02:05:34.6	95.460	-0.190	-0.300	0.360
2020/01/31 02:05:34.7	95.440	-0.160	-0.340	0.330
2020/01/31 02:05:34.8	95.430	-0.130	-0.390	0.300
2020/01/31 02:05:34.9	95.410	-0.100	-0.440	0.270
2020/01/31 02:05:35.0	95.380	-0.070	-0.490	0.250
2020/01/31 02:05:35.1	95.370	-0.040	-0.540	0.230
2020/01/31 02:05:35.2	95.340	-0.000	-0.590	0.220
2020/01/31 02:05:35.3	95.310	0.030	-0.630	0.210
2020/01/31 02:05:35.4	95.290	0.060	-0.670	0.200
2020/01/31 02:05:35.5	95.260	0.090	-0.710	0.190
2020/01/31 02:05:35.6	95.220	0.120	-0.740	0.180
2020/01/31 02:05:35.7	95.190	0.150	-0.770	0.180
2020/01/31 02:05:35.8	95.160	0.180	-0.800	0.180
2020/01/31 02:05:35.9	95.130	0.210	-0.830	0.190
2020/01/31 02:05:36.0	95.100	0.230	-0.850	0.190
2020/01/31 02:05:36.1	95.070	0.260	-0.860	0.200
2020/01/31 02:05:36.2	95.040	0.280	-0.880	0.210
2020/01/31 02:05:36.3	95.010	0.300	-0.880	0.210
2020/01/31 02:05:36.4	94.980	0.320	-0.880	0.220
2020/01/31 02:05:36.5	94.960	0.330	-0.880	0.230
2020/01/31 02:05:36.6	94.930	0.340	-0.870	0.240
2020/01/31 02:05:36.7	94.910	0.350	-0.860	0.250
2020/01/31 02:05:36.8	94.890	0.360	-0.840	0.260
2020/01/31 02:05:36.9	94.870	0.370	-0.820	0.260
2020/01/31 02:05:37.0	94.850	0.370	-0.800	0.270
2020/01/31 02:05:37.1	94.840	0.380	-0.760	0.280
2020/01/31 02:05:37.2	94.830	0.380	-0.730	0.290
2020/01/31 02:05:37.3	94.810	0.380	-0.690	0.290
2020/01/31 02:05:37.4	94.800	0.370	-0.660	0.300
2020/01/31 02:05:37.5	94.790	0.370	-0.610	0.300
2020/01/31 02:05:37.6	94.780	0.370	-0.570	0.300
2020/01/31 02:05:37.7	94.780	0.360	-0.520	0.300
2020/01/31 02:05:37.8	94.770	0.350	-0.480	0.300
2020/01/31 02:05:37.9	94.770	0.350	-0.430	0.300
2020/01/31 02:05:38.0	94.760	0.340	-0.380	0.300
2020/01/31 02:05:38.1	94.750	0.330	-0.330	0.300
2020/01/31 02:05:38.2	94.750	0.320	-0.280	0.300
2020/01/31 02:05:38.3	94.750	0.310	-0.230	0.290
2020/01/31 02:05:38.4	94.750	0.310	-0.180	0.290
2020/01/31 02:05:38.5	94.760	0.300	-0.140	0.280
2020/01/31 02:05:38.6	94.760	0.290	-0.090	0.270
2020/01/31 02:05:38.7	94.770	0.290	-0.050	0.260
2020/01/31 02:05:38.8	94.770	0.280	-0.010	0.250
2020/01/31 02:05:38.9	94.780	0.280	0.030	0.240
2020/01/31 02:05:39.0	94.790	0.270	0.060	0.220
2020/01/31 02:05:39.1	94.800	0.270	0.090	0.210
2020/01/31 02:05:39.2	94.810	0.270	0.120	0.200
2020/01/31 02:05:39.3	94.820	0.270	0.150	0.180
2020/01/31 02:05:39.4	94.830	0.270	0.170	0.170
2020/01/31 02:05:39.5	94.850	0.270	0.180	0.150
2020/01/31 02:05:39.6	94.860	0.270	0.200	0.140
2020/01/31 02:05:39.7	94.870	0.270	0.210	0.120
2020/01/31 02:05:39.8	94.880	0.280	0.210	0.110
2020/01/31 02:05:39.9	94.890	0.280	0.210	0.100
2020/01/31 02:05:40.0	94.910	0.290	0.210	0.100
2020/01/31 02:05:40.1	94.920	0.290	0.210	0.090
2020/01/31 02:05:40.2	94.930	0.300	0.200	0.090
2020/01/31 02:05:40.3	94.940	0.300	0.190	0.100
2020/01/31 02:05:40.4	94.950	0.310	0.180	0.100
2020/01/31 02:05:40.5	94.960	0.320	0.160	0.110
2020/01/31 02:05:40.6	94.970	0.320	0.150	0.120
2020/01/31 02:05:40.7	94.970	0.330	0.130	0.140
2020/01/31 02:05:40.8	94.980	0.330	0.110	0.160
2020/01/31 02:05:40.9	94.990	0.330	0.090	0.180
2020/01/31 02:05:41.0	94.990	0.340	0.070	0.210
2020/01/31 02:05:41.1	95.000	0.340	0.040	0.240
2020/01/31 02:05:41.2	95.010	0.340	0.020	0.270
2020/01/31 02:05:41.3	95.010	0.340	-0.000	0.310
2020/01/31 02:05:41.4	95.020	0.330	-0.030	0.350
2020/01/31 02:05:41.5	95.030	0.330	-0.050	0.390
2020/01/31 02:05:41.6	95.030	0.320	-0.070	0.430
2020/01/31 02:05:41.7	95.040	0.310	-0.080	0.480
2020/01/31 02:05:41.8	95.050	0.300	-0.100	0.520
2020/01/31 02:05:41.9	95.060	0.290	-0.120	0.570
2020/01/31 02:05:42.0	95.060	0.280	-0.130	0.620
2020/01/31 02:05:42.1	95.060	0.260	-0.140	0.670
2020/01/31 02:05:42.2	95.070	0.240	-0.150	0.720
2020/01/31 02:05:42.3	95.080	0.220	-0.150	0.780
2020/01/31 02:05:42.4	95.090	0.200	-0.160	0.830
2020/01/31 02:05:42.5	95.090	0.180	-0.160	0.880
2020/01/31 02:05:42.6	95.100	0.160	-0.150	0.930
2020/01/31 02:05:42.7	95.110	0.130	-0.150	0.990
2020/01/31 02:05:42.8	95.110	0.100	-0.140	1.040
2020/01/31 02:05:42.9	95.120	0.080	-0.130	1.090
2020/01/31 02:05:43.0	95.120	0.050	-0.110	1.140
2020/01/31 02:05:43.1	95.130	0.020	-0.090	1.200
2020/01/31 02:05:43.2	95.140	-0.010	-0.070	1.250
2020/01/31 02:05:43.3	95.140	-0.040	-0.050	1.300
2020/01/31 02:05:43.4	95.140	-0.070	-0.030	1.350
2020/01/31 02:05:43.5	95.140	-0.100	-0.010	1.390
2020/01/31 02:05:43.6	95.140	-0.130	0.020	1.440
2020/01/31 02:05:43.7	95.140	-0.160	0.050	1.490
2020/01/31 02:05:43.8	95.140	-0.190	0.080	1.530
2020/01/31 02:05:43.9	95.140	-0.220	0.100	1.570
2020/01/31 02:05:44.0	95.140	-0.250	0.130	1.610
2020/01/31 02:05:44.1	95.140	-0.280	0.160	1.660
2020/01/31 02:05:44.2	95.140	-0.300	0.180	1.690
2020/01/31 02:05:44.3	95.130	-0.330	0.210	1.730
2020/01/31 02:05:44.4	95.130	-0.350	0.230	1.770
2020/01/31 02:05:44.5	95.120	-0.370	0.260	1.800
2020/01/31 02:05:44.6	95.120	-0.390	0.270	1.830
2020/01/31 02:05:44.7	95.110	-0.410	0.290	1.870
2020/01/31 02:05:44.8	95.100	-0.430	0.300	1.890
2020/01/31 02:05:44.9	95.100	-0.440	0.310	1.920
2020/01/31 02:05:45.0	95.090	-0.450	0.320	1.950
2020/01/31 02:05:45.1	95.080	-0.460	0.330	1.980
2020/01/31 02:05:45.2	95.070	-0.470	0.320	2.000
2020/01/31 02:05:45.3	95.060	-0.470	0.320	2.020
2020/01/31 02:05:45.4	95.050	-0.470	0.310	2.030
2020/01/31 02:05:45.5	95.040	-0.470	0.290	2.050
2020/01/31 02:05:45.6	95.030	-0.470	0.270	2.060
2020/01/31 02:05:45.7	95.020	-0.460	0.250	2.070
2020/01/31 02:05:45.8	95.010	-0.460	0.220	2.080
2020/01/31 02:05:45.9	95.000	-0.450	0.180	2.080
2020/01/31 02:05:46.0	94.990	-0.430	0.140	2.080
2020/01/31 02:05:46.1	94.970	-0.420	0.090	2.080
2020/01/31 02:05:46.2	94.960	-0.400	0.050	2.080
2020/01/31 02:05:46.3	94.950	-0.380	-0.000	2.070
2020/01/31 02:05:46.4	94.940	-0.360	-0.060	2.060
2020/01/31 02:05:46.5	94.930	-0.340	-0.110	2.050
2020/01/31 02:05:46.6	94.930	-0.320	-0.170	2.030
2020/01/31 02:05:46.7	94.920	-0.290	-0.230	2.020
2020/01/31 02:05:46.8	94.910	-0.270	-0.290	2.000
2020/01/31 02:05:46.9	94.910	-0.240	-0.360	1.970
2020/01/31 02:05:47.0	94.900	-0.210	-0.420	1.950
2020/01/31 02:05:47.1	94.890	-0.190	-0.480	1.930
2020/01/31 02:05:47.2	94.890	-0.160	-0.540	1.900
2020/01/31 02:05:47.3	94.880	-0.130	-0.600	1.870
2020/01/31 02:05:47.4	94.880	-0.110	-0.650	1.840
2020/01/31 02:05:47.5	94.880	-0.080	-0.700	1.810
2020/01/31 02:05:47.6	94.880	-0.050	-0.750	1.770
2020/01/31 02:05:47.7	94.880	-0.030	-0.800	1.740
2020/01/31 02:05:47.8	94.880	-0.010	-0.840	1.700
2020/01/31 02:05:47.9	94.880	0.010	-0.880	1.670
2020/01/31 02:05:48.0	94.890	0.030	-0.910	1.630
2020/01/31 02:05:48.1	94.890	0.050	-0.940	1.590
2020/01/31 02:05:48.2	94.890	0.060	-0.960	1.550
2020/01/31 02:05:48.3	94.900	0.080	-0.970	1.510
2020/01/31 02:05:48.4	94.900	0.090	-0.980	1.470
2020/01/31 02:05:48.5	94.910	0.100	-0.980	1.420
2020/01/31 02:05:48.6	94.910	0.110	-0.980	1.370
2020/01/31 02:05:48.7	94.920	0.110	-0.970	1.330
2020/01/31 02:05:48.8	94.920	0.110	-0.960	1.280
2020/01/31 02:05:48.9	94.930	0.110	-0.930	1.220
2020/01/31 02:05:49.0	94.940	0.110	-0.910	1.170
2020/01/31 02:05:49.1	94.940	0.110	-0.870	1.120
2020/01/31 02:05:49.2	94.940	0.100	-0.840	1.060
2020/01/31 02:05:49.3	94.950	0.100	-0.800	1.010
2020/01/31 02:05:49.4	94.960	0.090	-0.750	0.950
2020/01/31 02:05:49.5	94.960	0.080	-0.700	0.900
2020/01/31 02:05:49.6	94.960	0.060	-0.650	0.840
2020/01/31 02:05:49.7	94.970	0.050	-0.590	0.790
2020/01/31 02:05:49.8	94.970	0.040	-0.530	0.730
2020/01/31 02:05:49.9	94.970	0.020	-0.470	0.680
2020/01/31 02:05:50.0	94.970	0.010	-0.400	0.630
2020/01/31 02:05:50.1	94.970	-0.010	-0.340	0.580
2020/01/31 02:05:50.2	94.970	-0.030	-0.270	0.530
2020/01/31 02:05:50.3	94.970	-0.040	-0.200	0.480
2020/01/31 02:05:50.4	94.960	-0.060	-0.130	0.430
2020/01/31 02:05:50.5	94.960	-0.080	-0.060	0.380
2020/01/31 02:05:50.6	94.950	-0.090	0.000	0.340
2020/01/31 02:05:50.7	94.940	-0.110	0.070	0.290
2020/01/31 02:05:50.8	94.930	-0.120	0.140	0.250
2020/01/31 02:05:50.9	94.920	-0.130	0.200	0.210
2020/01/31 02:05:51.0	94.910	-0.150	0.260	0.180
2020/01/31 02:05:51.1	94.900	-0.160	0.320	0.140
2020/01/31 02:05:51.2	94.880	-0.170	0.370	0.110
2020/01/31 02:05:51.3	94.870	-0.180	0.430	0.070
2020/01/31 02:05:51.4	94.850	-0.190	0.470	0.040
2020/01/31 02:05:51.5	94.840	-0.190	0.510	0.010
2020/01/31 02:05:51.6	94.820	-0.200	0.550	-0.020
2020/01/31 02:05:51.7	94.800	-0.200	0.580	-0.050
2020/01/31 02:05:51.8	94.790	-0.200	0.610	-0.070
2020/01/31 02:05:51.9	94.770	-0.210	0.630	-0.100
2020/01/31 02:05:52.0	94.750	-0.210	0.650	-0.120
2020/01/31 02:05:52.1	94.750	-0.200	0.660	-0.150
2020/01/31 02:05:52.2	94.730	-0.200	0.660	-0.170
2020/01/31 02:05:52.3	94.720	-0.200	0.670	-0.190
2020/01/31 02:05:52.4	94.700	-0.190	0.660	-0.220
2020/01/31 02:05:52.5	94.690	-0.190	0.650	-0.240
2020/01/31 02:05:52.6	94.680	-0.180	0.640	-0.260
2020/01/31 02:05:52.7	94.670	-0.170	0.620	-0.280
2020/01/31 02:05:52.8	94.660	-0.160	0.600	-0.300
2020/01/31 02:05:52.9	94.660	-0.160	0.570	-0.310
2020/01/31 02:05:53.0	94.650	-0.150	0.530	-0.330
2020/01/31 02:05:53.1	94.660	-0.140	0.500	-0.340
2020/01/31 02:05:53.2	94.660	-0.130	0.460	-0.350
2020/01/31 02:05:53.3	94.650	-0.120	0.410	-0.360
2020/01/31 02:05:53.4	94.650	-0.100	0.370	-0.370
2020/01/31 02:05:53.5	94.650	-0.090	0.320	-0.370
2020/01/31 02:05:53.6	94.650	-0.080	0.270	-0.380
2020/01/31 02:05:53.7	94.650	-0.070	0.210	-0.380
2020/01/31 02:05:53.8	94.650	-0.060	0.160	-0.380
2020/01/31 02:05:53.9	94.650	-0.050	0.100	-0.370
2020/01/31 02:05:54.0	94.650	-0.040	0.040	-0.360
2020/01/31 02:05:54.1	94.660	-0.030	-0.020	-0.350
2020/01/31 02:05:54.2	94.660	-0.020	-0.080	-0.340
2020/01/31 02:05:54.3	94.660	-0.000	-0.140	-0.330
2020/01/31 02:05:54.4	94.660	0.010	-0.200	-0.310
2020/01/31 02:05:54.5	94.660	0.020	-0.260	-0.290
2020/01/31 02:05:54.6	94.660	0.030	-0.320	-0.270
2020/01/31 02:05:54.7	94.660	0.040	-0.380	-0.240
2020/01/31 02:05:54.8	94.660	0.050	-0.440	-0.220
2020/01/31 02:05:54.9	94.660	0.070	-0.500	-0.190
2020/01/31 02:05:55.0	94.660	0.080	-0.560	-0.160
2020/01/31 02:05:55.1	94.680	0.090	-0.610	-0.120
2020/01/31 02:05:55.2	94.680	0.110	-0.670	-0.090
2020/01/31 02:05:55.3	94.680	0.130	-0.720	-0.060
2020/01/31 02:05:55.4	94.690	0.140	-0.770	-0.030
2020/01/31 02:05:55.5	94.690	0.160	-0.820	0.010
2020/01/31 02:05:55.6	94.700	0.180	-0.860	0.040
2020/01/31 02:05:55.7	94.700	0.200	-0.900	0.070
2020/01/31 02:05:55.8	94.710	0.220	-0.940	0.100
2020/01/31 02:05:55.9	94.720	0.240	-0.980	0.130
2020/01/31 02:05:56.0	94.730	0.270	-1.010	0.160
2020/01/31 02:05:56.1	94.760	0.290	-1.040	0.190
2020/01/31 02:05:56.2	94.770	0.310	-1.060	0.220
2020/01/31 02:05:56.3	94.780	0.340	-1.080	0.250
2020/01/31 02:05:56.4	94.800	0.360	-1.090	0.280
2020/01/31 02:05:56.5	94.810	0.390	-1.100	0.310
2020/01/31 02:05:56.6	94.830	0.410	-1.110	0.340
2020/01/31 02:05:56.7	94.850	0.440	-1.110	0.370
2020/01/31 02:05:56.8	94.860	0.460	-1.100	0.400
2020/01/31 02:05:56.9	94.880	0.490	-1.090	0.440
2020/01/31 02:05:57.0	94.900	0.510	-1.070	0.470
2020/01/31 02:05:57.1	94.910	0.530	-1.050	0.510
2020/01/31 02:05:57.2	94.920	0.550	-1.020	0.540
2020/01/31 02:05:57.3	94.940	0.560	-0.980	0.590
2020/01/31 02:05:57.4	94.960	0.580	-0.940	0.630
2020/01/31 02:05:57.5	94.970	0.590	-0.890	0.680
2020/01/31 02:05:57.6	94.980	0.600	-0.840	0.720
2020/01/31 02:05:57.7	95.000	0.610	-0.780	0.780
2020/01/31 02:05:57.8	95.010	0.610	-0.720	0.830
2020/01/31 02:05:57.9	95.020	0.610	-0.650	0.890
2020/01/31 02:05:58.0	95.030	0.610	-0.580	0.960
2020/01/31 02:05:58.1	95.030	0.600	-0.500	1.030
2020/01/31 02:05:58.2	95.040	0.590	-0.420	1.100
2020/01/31 02:05:58.3	95.040	0.570	-0.340	1.170
2020/01/31 02:05:58.4	95.040	0.550	-0.260	1.250
2020/01/31 02:05:58.5	95.040	0.530	-0.170	1.320
2020/01/31 02:05:58.6	95.040	0.510	-0.090	1.400
2020/01/31 02:05:58.7	95.040	0.480	0.000	1.490
2020/01/31 02:05:58.8	95.040	0.440	0.090	1.570
2020/01/31 02:05:58.9	95.030	0.400	0.180	1.650
2020/01/31 02:05:59.0	95.020	0.360	0.260	1.730
2020/01/31 02:05:59.1	95.010	0.320	0.350	1.820
2020/01/31 02:05:59.2	95.000	0.270	0.430	1.900
2020/01/31 02:05:59.3	94.990	0.220	0.510	1.980
2020/01/31 02:05:59.4	94.980	0.170	0.590	2.060
2020/01/31 02:05:59.5	94.970	0.120	0.660	2.140
2020/01/31 02:05:59.6	94.960	0.060	0.730	2.210
2020/01/31 02:05:59.7	94.940	0.010	0.790	2.280
2020/01/31 02:05:59.8	94.930	-0.050	0.850	2.350
2020/01/31 02:05:59.9	94.910	-0.110	0.900	2.410
2020/01/31 02:06:00.0	94.900	-0.170	0.950	2.470
2020/01/31 02:06:00.1	94.880	-0.220	0.990	2.530
2020/01/31 02:06:00.2	94.860	-0.280	1.020	2.580
2020/01/31 02:06:00.3	94.840	-0.340	1.050	2.620
2020/01/31 02:06:00.4	94.830	-0.390	1.070	2.660
2020/01/31 02:06:00.5	94.810	-0.450	1.080	2.690
2020/01/31 02:06:00.6	94.790	-0.500	1.080	2.720
2020/01/31 02:06:00.7	94.770	-0.540	1.080	2.740
2020/01/31 02:06:00.8	94.760	-0.590	1.070	2.750
2020/01/31 02:06:00.9	94.740	-0.630	1.050	2.760
2020/01/31 02:06:01.0	94.720	-0.670	1.020	2.760
2020/01/31 02:06:01.1	94.700	-0.710	0.990	2.750
2020/01/31 02:06:01.2	94.680	-0.740	0.950	2.740
2020/01/31 02:06:01.3	94.670	-0.760	0.900	2.720
2020/01/31 02:06:01.4	94.650	-0.790	0.840	2.700
2020/01/31 02:06:01.5	94.640	-0.800	0.780	2.670
2020/01/31 02:06:01.6	94.620	-0.820	0.720	2.640
2020/01/31 02:06:01.7	94.610	-0.820	0.650	2.600
2020/01/31 02:06:01.8	94.590	-0.830	0.570	2.560
2020/01/31 02:06:01.9	94.580	-0.830	0.490	2.510
2020/01/31 02:06:02.0	94.570	-0.820	0.410	2.460
2020/01/31 02:06:02.1	94.550	-0.810	0.320	2.400
2020/01/31 02:06:02.2	94.540	-0.790	0.230	2.340
2020/01/31 02:06:02.3	94.530	-0.770	0.140	2.270
2020/01/31 02:06:02.4	94.520	-0.750	0.040	2.210
2020/01/31 02:06:02.5	94.520	-0.720	-0.050	2.130
2020/01/31 02:06:02.6	94.510	-0.690	-0.140	2.060
2020/01/31 02:06:02.7	94.510	-0.650	-0.230	1.980
2020/01/31 02:06:02.8	94.510	-0.620	-0.320	1.900
2020/01/31 02:06:02.9	94.510	-0.570	-0.410	1.810
2020/01/31 02:06:03.0	94.510	-0.530	-0.500	1.720
2020/01/31 02:06:03.1	94.510	-0.480	-0.580	1.630
2020/01/31 02:06:03.2	94.510	-0.430	-0.670	1.540
2020/01/31 02:06:03.3	94.520	-0.380	-0.740	1.450
2020/01/31 02:06:03.4	94.530	-0.330	-0.820	1.360
2020/01/31 02:06:03.5	94.540	-0.270	-0.880	1.270
2020/01/31 02:06:03.6	94.550	-0.220	-0.950	1.170
2020/01/31 02:06:03.7	94.570	-0.160	-1.000	1.080
2020/01/31 02:06:03.8	94.580	-0.110	-1.060	0.980
2020/01/31 02:06:03.9	94.600	-0.050	-1.100	0.890
2020/01/31 02:06:04.0	94.610	0.000	-1.140	0.800
2020/01/31 02:06:04.1	94.630	0.050	-1.180	0.710
2020/01/31 02:06:04.2	94.650	0.110	-1.210	0.610
2020/01/31 02:06:04.3	94.670	0.160	-1.230	0.530
2020/01/31 02:06:04.4	94.690	0.210	-1.240	0.440
2020/01/31 02:06:04.5	94.710	0.250	-1.250	0.350
2020/01/31 02:06:04.6	94.720	0.300	-1.260	0.270
2020/01/31 02:06:04.7	94.740	0.340	-1.250	0.190
2020/01/31 02:06:04.8	94.760	0.380	-1.240	0.120
2020/01/31 02:06:04.9	94.780	0.410	-1.230	0.040
2020/01/31 02:06:05.0	94.800	0.440	-1.200	-0.030
2020/01/31 02:06:05.1	94.820	0.470	-1.180	-0.090
2020/01/31 02:06:05.2	94.830	0.500	-1.140	-0.160
2020/01/31 02:06:05.3	94.840	0.520	-1.100	-0.220
2020/01/31 02:06:05.4	94.860	0.540	-1.060	-0.270
2020/01/31 02:06:05.5	94.870	0.560	-1.010	-0.320
2020/01/31 02:06:05.6	94.880	0.570	-0.950	-0.370
2020/01/31 02:06:05.7	94.880	0.570	-0.890	-0.420
2020/01/31 02:06:05.8	94.890	0.580	-0.830	-0.460
2020/01/31 02:06:05.9	94.890	0.580	-0.770	-0.490
2020/01/31 02:06:06.0	94.890	0.570	-0.700	-0.520
2020/01/31 02:06:06.1	94.900	0.570	-0.620	-0.540
2020/01/31 02:06:06.2	94.890	0.560	-0.550	-0.560
2020/01/31 02:06:06.3	94.890	0.540	-0.480	-0.580
2020/01/31 02:06:06.4	94.880	0.530	-0.400	-0.590
2020/01/31 02:06:06.5	94.880	0.510	-0.330	-0.600
2020/01/31 02:06:06.6	94.870	0.480	-0.260	-0.610
2020/01/31 02:06:06.7	94.850	0.460	-0.180	-0.600
2020/01/31 02:06:06.8	94.840	0.430	-0.110	-0.600
2020/01/31 02:06:06.9	94.830	0.400	-0.040	-0.590
2020/01/31 02:06:07.0	94.810	0.370	0.030	-0.570
2020/01/31 02:06:07.1	94.790	0.340	0.100	-0.550
2020/01/31 02:06:07.2	94.770	0.300	0.160	-0.530
2020/01/31 02:06:07.3	94.750	0.270	0.220	-0.510
2020/01/31 02:06:07.4	94.730	0.230	0.280	-0.480
2020/01/31 02:06:07.5	94.710	0.200	0.330	-0.450
2020/01/31 02:06:07.6	94.690	0.160	0.380	-0.410
2020/01/31 02:06:07.7	94.670	0.120	0.420	-0.380
2020/01/31 02:06:07.8	94.640	0.080	0.460	-0.340
2020/01/31 02:06:07.9	94.620	0.050	0.500	-0.300
2020/01/31 02:06:08.0	94.600	0.010	0.530	-0.250
2020/01/31 02:06:08.1	94.590	-0.030	0.550	-0.200
2020/01/31 02:06:08.2	94.570	-0.060	0.570	-0.160
2020/01/31 02:06:08.3	94.540	-0.100	0.590	-0.110
2020/01/31 02:06:08.4	94.520	-0.130	0.600	-0.060
2020/01/31 02:06:08.5	94.500	-0.160	0.600	-0.020
2020/01/31 02:06:08.6	94.480	-0.190	0.600	0.030
2020/01/31 02:06:08.7	94.460	-0.210	0.590	0.080
2020/01/31 02:06:08.8	94.440	-0.240	0.580	0.130
2020/01/31 02:06:08.9	94.420	-0.260	0.560	0.170
2020/01/31 02:06:09.0	94.400	-0.280	0.540	0.220
2020/01/31 02:06:09.1	94.390	-0.300	0.510	0.270
2020/01/31 02:06:09.2	94.380	-0.320	0.480	0.320
2020/01/31 02:06:09.3	94.360	-0.330	0.450	0.360
2020/01/31 02:06:09.4	94.350	-0.340	0.410	0.400
2020/01/31 02:06:09.5	94.340	-0.350	0.370	0.440
2020/01/31 02:06:09.6	94.340	-0.360	0.330	0.480
2020/01/31 02:06:09.7	94.330	-0.360	0.290	0.520
2020/01/31 02:06:09.8	94.320	-0.360	0.240	0.560
2020/01/31 02:06:09.9	94.320	-0.360	0.200	0.600
2020/01/31 02:06:10.0	94.320	-0.360	0.150	0.640
2020/01/31 02:06:10.1	94.320	-0.360	0.100	0.680
2020/01/31 02:06:10.2	94.320	-0.350	0.050	0.720
2020/01/31 02:06:10.3	94.320	-0.350	0.000	0.750
2020/01/31 02:06:10.4	94.330	-0.340	-0.050	0.790
2020/01/31 02:06:10.5	94.330	-0.330	-0.090	0.830
2020/01/31 02:06:10.6	94.330	-0.320	-0.140	0.870
2020/01/31 02:06:10.7	94.340	-0.310	-0.180	0.910
2020/01/31 02:06:10.8	94.340	-0.290	-0.220	0.950
2020/01/31 02:06:10.9	94.350	-0.280	-0.260	0.990
2020/01/31 02:06:11.0	94.350	-0.270	-0.300	1.030
2020/01/31 02:06:11.1	94.350	-0.250	-0.340	1.080
2020/01/31 02:06:11.2	94.360	-0.240	-0.370	1.120
2020/01/31 02:06:11.3	94.360	-0.220	-0.390	1.160
2020/01/31 02:06:11.4	94.360	-0.210	-0.420	1.200
2020/01/31 02:06:11.5	94.370	-0.190	-0.440	1.240
2020/01/31 02:06:11.6	94.370	-0.180	-0.460	1.280
2020/01/31 02:06:11.7	94.380	-0.160	-0.480	1.330
2020/01/31 02:06:11.8	94.380	-0.150	-0.490	1.360
2020/01/31 02:06:11.9	94.380	-0.130	-0.500	1.400
2020/01/31 02:06:12.0	94.390	-0.120	-0.510	1.440
2020/01/31 02:06:12.1	94.380	-0.100	-0.520	1.480
2020/01/31 02:06:12.2	94.390	-0.090	-0.520	1.510
2020/01/31 02:06:12.3	94.390	-0.070	-0.520	1.540
2020/01/31 02:06:12.4	94.390	-0.050	-0.520	1.570
2020/01/31 02:06:12.5	94.400	-0.040	-0.520	1.600
2020/01/31 02:06:12.6	94.400	-0.020	-0.520	1.620
2020/01/31 02:06:12.7	94.400	-0.010	-0.520	1.650
2020/01/31 02:06:12.8	94.410	0.010	-0.520	1.660
2020/01/31 02:06:12.9	94.410	0.030	-0.510	1.680
2020/01/31 02:06:13.0	94.420	0.040	-0.510	1.700
2020/01/31 02:06:13.1	94.410	0.060	-0.500	1.710
2020/01/31 02:06:13.2	94.420	0.080	-0.490	1.720
2020/01/31 02:06:13.3	94.420	0.100	-0.480	1.720
2020/01/31 02:06:13.4	94.430	0.110	-0.480	1.730
2020/01/31 02:06:13.5	94.440	0.130	-0.470	1.730
2020/01/31 02:06:13.6	94.440	0.150	-0.460	1.730
2020/01/31 02:06:13.7	94.450	0.160	-0.450	1.730
2020/01/31 02:06:13.8	94.460	0.180	-0.440	1.720
2020/01/31 02:06:13.9	94.470	0.200	-0.430	1.720
2020/01/31 02:06:14.0	94.480	0.220	-0.420	1.710
2020/01/31 02:06:14.1	94.480	0.230	-0.400	1.700
2020/01/31 02:06:14.2	94.490	0.250	-0.390	1.700
2020/01/31 02:06:14.3	94.500	0.260	-0.370	1.690
2020/01/31 02:06:14.4	94.510	0.280	-0.360	1.680
2020/01/31 02:06:14.5	94.530	0.290	-0.340	1.670
2020/01/31 02:06:14.6	94.540	0.300	-0.320	1.660
2020/01/31 02:06:14.7	94.550	0.310	-0.300	1.650
2020/01/31 02:06:14.8	94.560	0.320	-0.280	1.640
2020/01/31 02:06:14.9	94.570	0.330	-0.260	1.630
2020/01/31 02:06:15.0	94.580	0.340	-0.240	1.620
2020/01/31 02:06:15.1	94.580	0.340	-0.210	1.610
2020/01/31 02:06:15.2	94.590	0.350	-0.190	1.600
2020/01/31 02:06:15.3	94.600	0.350	-0.170	1.590
2020/01/31 02:06:15.4	94.610	0.350	-0.140	1.580
2020/01/31 02:06:15.5	94.610	0.350	-0.120	1.570
2020/01/31 02:06:15.6	94.610	0.350	-0.090	1.560
2020/01/31 02:06:15.7	94.610	0.350	-0.070	1.550
2020/01/31 02:06:15.8	94.610	0.340	-0.040	1.540
2020/01/31 02:06:15.9	94.610	0.330	-0.010	1.540
2020/01/31 02:06:16.0	94.600	0.330	0.010	1.530
2020/01/31 02:06:16.1	94.590	0.310	0.040	1.520
2020/01/31 02:06:16.2	94.570	0.300	0.060	1.510
2020/01/31 02:06:16.3	94.560	0.290	0.090	1.500
2020/01/31 02:06:16.4	94.540	0.270	0.110	1.480
2020/01/31 02:06:16.5	94.520	0.250	0.140	1.470
2020/01/31 02:06:16.6	94.500	0.230	0.160	1.450
2020/01/31 02:06:16.7	94.480	0.210	0.180	1.430
2020/01/31 02:06:16.8	94.450	0.190	0.200	1.400
2020/01/31 02:06:16.9	94.430	0.170	0.220	1.370
2020/01/31 02:06:17.0	94.400	0.140	0.240	1.340
2020/01/31 02:06:17.1	94.380	0.120	0.260	1.300
2020/01/31 02:06:17.2	94.350	0.090	0.270	1.270
2020/01/31 02:06:17.3	94.320	0.060	0.280	1.220
2020/01/31 02:06:17.4	94.300	0.040	0.290	1.180
2020/01/31 02:06:17.5	94.270	0.010	0.300	1.130
2020/01/31 02:06:17.6	94.240	-0.010	0.300	1.080
2020/01/31 02:06:17.7	94.210	-0.040	0.300	1.020
2020/01/31 02:06:17.8	94.190	-0.070	0.300	0.970
2020/01/31 02:06:17.9	94.160	-0.090	0.290	0.910
2020/01/31 02:06:18.0	94.140	-0.110	0.280	0.850
2020/01/31 02:06:18.1	94.120	-0.130	0.270	0.780
2020/01/31 02:06:18.2	94.100	-0.150	0.250	0.720
2020/01/31 02:06:18.3	94.080	-0.170	0.230	0.660
2020/01/31 02:06:18.4	94.060	-0.190	0.210	0.600
2020/01/31 02:06:18.5	94.040	-0.200	0.180	0.530
2020/01/31 02:06:18.6	94.020	-0.220	0.160	0.470
2020/01/31 02:06:18.7	94.010	-0.230	0.120	0.410
2020/01/31 02:06:18.8	93.990	-0.230	0.090	0.360
2020/01/31 02:06:18.9	93.970	-0.240	0.050	0.300
2020/01/31 02:06:19.0	93.960	-0.240	0.010	0.250
2020/01/31 02:06:19.1	93.930	-0.240	-0.030	0.200
2020/01/31 02:06:19.2	93.920	-0.240	-0.070	0.150
2020/01/31 02:06:19.3	93.910	-0.240	-0.120	0.110
2020/01/31 02:06:19.4	93.900	-0.230	-0.160	0.070
2020/01/31 02:06:19.5	93.890	-0.230	-0.210	0.030
2020/01/31 02:06:19.6	93.880	-0.220	-0.250	0.000
2020/01/31 02:06:19.7	93.880	-0.210	-0.300	-0.030
2020/01/31 02:06:19.8	93.870	-0.190	-0.350	-0.060
2020/01/31 02:06:19.9	93.870	-0.180	-0.390	-0.080
2020/01/31 02:06:20.0	93.870	-0.160	-0.430	-0.100
2020/01/31 02:06:20.1	93.890	-0.150	-0.470	-0.120
2020/01/31 02:06:20.2	93.890	-0.130	-0.500	-0.140
2020/01/31 02:06:20.3	93.900	-0.120	-0.540	-0.150
2020/01/31 02:06:20.4	93.910	-0.100	-0.570	-0.170
2020/01/31 02:06:20.5	93.930	-0.080	-0.600	-0.190
2020/01/31 02:06:20.6	93.940	-0.070	-0.620	-0.210
2020/01/31 02:06:20.7	93.960	-0.050	-0.640	-0.220
2020/01/31 02:06:20.8	93.990	-0.040	-0.660	-0.240
2020/01/31 02:06:20.9	94.010	-0.030	-0.670	-0.260
2020/01/31 02:06:21.0	94.040	-0.020	-0.670	-0.270
2020/01/31 02:06:21.1	94.090	-0.010	-0.680	-0.290
2020/01/31 02:06:21.2	94.120	-0.000	-0.680	-0.310
2020/01/31 02:06:21.3	94.150	0.000	-0.670	-0.320
2020/01/31 02:06:21.4	94.190	0.010	-0.650	-0.330
2020/01/31 02:06:21.5	94.220	0.010	-0.640	-0.350
2020/01/31 02:06:21.6	94.260	0.010	-0.620	-0.360
2020/01/31 02:06:21.7	94.300	0.000	-0.590	-0.370
2020/01/31 02:06:21.8	94.330	-0.000	-0.560	-0.370
2020/01/31 02:06:21.9	94.370	-0.010	-0.530	-0.380
2020/01/31 02:06:22.0	94.400	-0.020	-0.500	-0.380
2020/01/31 02:06:22.1	94.440	-0.030	-0.460	-0.370
2020/01/31 02:06:22.2	94.470	-0.040	-0.420	-0.370
2020/01/31 02:06:22.3	94.500	-0.050	-0.380	-0.360
2020/01/31 02:06:22.4	94.530	-0.060	-0.340	-0.340
2020/01/31 02:06:22.5	94.560	-0.080	-0.300	-0.330
2020/01/31 02:06:22.6	94.580	-0.090	-0.250	-0.300
2020/01/31 02:06:22.7	94.610	-0.110	-0.210	-0.270
2020/01/31 02:06:22.8	94.630	-0.120	-0.170	-0.240
2020/01/31 02:06:22.9	94.640	-0.140	-0.130	-0.200
2020/01/31 02:06:23.0	94.660	-0.150	-0.090	-0.160
2020/01/31 02:06:23.1	94.670	-0.170	-0.050	-0.110
2020/01/31 02:06:23.2	94.680	-0.180	-0.010	-0.060
2020/01/31 02:06:23.3	94.690	-0.190	0.020	0.000
2020/01/31 02:06:23.4	94.690	-0.210	0.060	0.060
2020/01/31 02:06:23.5	94.690	-0.220	0.090	0.130
2020/01/31 02:06:23.6	94.680	-0.230	0.120	0.200
2020/01/31 02:06:23.7	94.670	-0.240	0.150	0.280
2020/01/31 02:06:23.8	94.660	-0.240	0.180	0.360
2020/01/31 02:06:23.9	94.650	-0.250	0.200	0.440
2020/01/31 02:06:24.0	94.630	-0.260	0.220	0.520
2020/01/31 02:06:24.1	94.620	-0.260	0.250	0.610
2020/01/31 02:06:24.2	94.590	-0.260	0.260	0.700
2020/01/31 02:06:24.3	94.570	-0.260	0.280	0.790
2020/01/31 02:06:24.4	94.540	-0.260	0.290	0.880
2020/01/31 02:06:24.5	94.510	-0.250	0.300	0.960
2020/01/31 02:06:24.6	94.480	-0.250	0.300	1.050
2020/01/31 02:06:24.7	94.450	-0.240	0.310	1.140
2020/01/31 02:06:24.8	94.410	-0.230	0.310	1.220
2020/01/31 02:06:24.9	94.380	-0.220	0.300	1.310
2020/01/31 02:06:25.0	94.340	-0.210	0.300	1.390
2020/01/31 02:06:25.1	94.310	-0.190	0.290	1.470
2020/01/31 02:06:25.2	94.270	-0.180	0.280	1.540
2020/01/31 02:06:25.3	94.240	-0.160	0.260	1.620
2020/01/31 02:06:25.4	94.200	-0.140	0.240	1.680
2020/01/31 02:06:25.5	94.160	-0.130	0.220	1.750
2020/01/31 02:06:25.6	94.130	-0.110	0.200	1.810
2020/01/31 02:06:25.7	94.090	-0.080	0.170	1.860
2020/01/31 02:06:25.8	94.060	-0.060	0.140	1.910
2020/01/31 02:06:25.9	94.030	-0.040	0.110	1.960
2020/01/31 02:06:26.0	94.000	-0.010	0.070	2.000
2020/01/31 02:06:26.1	93.970	0.010	0.040	2.040
2020/01/31 02:06:26.2	93.940	0.040	-0.000	2.080
2020/01/31 02:06:26.3	93.920	0.060	-0.040	2.110
2020/01/31 02:06:26.4	93.890	0.090	-0.090	2.130
2020/01/31 02:06:26.5	93.870	0.120	-0.130	2.150
2020/01/31 02:06:26.6	93.840	0.140	-0.180	2.170
2020/01/31 02:06:26.7	93.820	0.170	-0.220	2.180
2020/01/31 02:06:26.8	93.800	0.200	-0.270	2.180
2020/01/31 02:06:26.9	93.780	0.230	-0.310	2.190
2020/01/31 02:06:27.0	93.770	0.250	-0.360	2.180
2020/01/31 02:06:27.1	93.740	0.280	-0.410	2.170
2020/01/31 02:06:27.2	93.730	0.300	-0.450	2.160
2020/01/31 02:06:27.3	93.720	0.330	-0.490	2.140
2020/01/31 02:06:27.4	93.710	0.350	-0.530	2.120
2020/01/31 02:06:27.5	93.700	0.370	-0.570	2.090
2020/01/31 02:06:27.6	93.700	0.390	-0.600	2.060
2020/01/31 02:06:27.7	93.700	0.410	-0.630	2.030
2020/01/31 02:06:27.8	93.700	0.430	-0.660	1.990
2020/01/31 02:06:27.9	93.700	0.450	-0.690	1.940
2020/01/31 02:06:28.0	93.710	0.460	-0.710	1.890
2020/01/31 02:06:28.1	93.720	0.470	-0.730	1.830
2020/01/31 02:06:28.2	93.730	0.480	-0.740	1.780
2020/01/31 02:06:28.3	93.740	0.490	-0.750	1.710
2020/01/31 02:06:28.4	93.760	0.500	-0.760	1.650
2020/01/31 02:06:28.5	93.780	0.510	-0.760	1.580
2020/01/31 02:06:28.6	93.800	0.510	-0.760	1.510
2020/01/31 02:06:28.7	93.830	0.510	-0.760	1.440
2020/01/31 02:06:28.8	93.860	0.510	-0.750	1.370
2020/01/31 02:06:28.9	93.890	0.510	-0.740	1.300
2020/01/31 02:06:29.0	93.920	0.510	-0.720	1.220
2020/01/31 02:06:29.1	93.940	0.500	-0.700	1.150
2020/01/31 02:06:29.2	93.970	0.500	-0.680	1.070
2020/01/31 02:06:29.3	94.010	0.490	-0.650	1.000
2020/01/31 02:06:29.4	94.050	0.480	-0.630	0.930
2020/01/31 02:06:29.5	94.080	0.470	-0.600	0.860
2020/01/31 02:06:29.6	94.120	0.450	-0.560	0.790
2020/01/31 02:06:29.7	94.160	0.440	-0.530	0.720
2020/01/31 02:06:29.8	94.200	0.420	-0.490	0.660
2020/01/31 02:06:29.9	94.230	0.400	-0.460	0.600
2020/01/31 02:06:30.0	94.270	0.380	-0.420	0.540
2020/01/31 02:06:30.1	94.300	0.360	-0.370	0.490
2020/01/31 02:06:30.2	94.330	0.330	-0.330	0.440
2020/01/31 02:06:30.3	94.360	0.310	-0.280	0.390
2020/01/31 02:06:30.4	94.390	0.280	-0.240	0.360
2020/01/31 02:06:30.5	94.420	0.250	-0.200	0.320
2020/01/31 02:06:30.6	94.450	0.220	-0.150	0.290
2020/01/31 02:06:30.7	94.470	0.190	-0.110	0.270
2020/01/31 02:06:30.8	94.490	0.160	-0.060	0.250
2020/01/31 02:06:30.9	94.500	0.120	-0.020	0.240
2020/01/31 02:06:31.0	94.510	0.090	0.030	0.230
2020/01/31 02:06:31.1	94.510	0.050	0.070	0.230
2020/01/31 02:06:31.2	94.520	0.020	0.110	0.230
2020/01/31 02:06:31.3	94.520	-0.020	0.150	0.230
2020/01/31 02:06:31.4	94.520	-0.060	0.200	0.250
2020/01/31 02:06:31.5	94.520	-0.090	0.240	0.260
2020/01/31 02:06:31.6	94.510	-0.130	0.280	0.280
2020/01/31 02:06:31.7	94.500	-0.170	0.310	0.310
2020/01/31 02:06:31.8	94.490	-0.200	0.350	0.330
2020/01/31 02:06:31.9	94.470	-0.240	0.380	0.360
2020/01/31 02:06:32.0	94.450	-0.280	0.420	0.400
2020/01/31 02:06:32.1	94.430	-0.310	0.450	0.430
2020/01/31 02:06:32.2	94.400	-0.340	0.480	0.470
2020/01/31 02:06:32.3	94.380	-0.380	0.500	0.510
2020/01/31 02:06:32.4	94.350	-0.410	0.520	0.550
2020/01/31 02:06:32.5	94.330	-0.440	0.540	0.590
2020/01/31 02:06:32.6	94.300	-0.470	0.560	0.630
2020/01/31 02:06:32.7	94.270	-0.490	0.570	0.680
2020/01/31 02:06:32.8	94.240	-0.510	0.580	0.720
2020/01/31 02:06:32.9	94.210	-0.540	0.580	0.760
2020/01/31 02:06:33.0	94.180	-0.550	0.590	0.790
2020/01/31 02:06:33.1	94.150	-0.570	0.580	0.830
2020/01/31 02:06:33.2	94.120	-0.580	0.570	0.860
2020/01/31 02:06:33.3	94.090	-0.590	0.560	0.890
2020/01/31 02:06:33.4	94.070	-0.600	0.540	0.920
2020/01/31 02:06:33.5	94.040	-0.610	0.530	0.940
2020/01/31 02:06:33.6	94.020	-0.610	0.500	0.960
2020/01/31 02:06:33.7	93.990	-0.610	0.470	0.970
2020/01/31 02:06:33.8	93.970	-0.600	0.440	0.990
2020/01/31 02:06:33.9	93.950	-0.590	0.410	0.990
2020/01/31 02:06:34.0	93.930	-0.580	0.370	1.000
2020/01/31 02:06:34.1	93.920	-0.570	0.330	1.000
2020/01/31 02:06:34.2	93.900	-0.550	0.280	0.990
2020/01/31 02:06:34.3	93.890	-0.530	0.230	0.990
2020/01/31 02:06:34.4	93.870	-0.510	0.180	0.980
2020/01/31 02:06:34.5	93.860	-0.480	0.130	0.970
2020/01/31 02:06:34.6	93.850	-0.450	0.070	0.960
2020/01/31 02:06:34.7	93.840	-0.420	0.010	0.940
2020/01/31 02:06:34.8	93.830	-0.380	-0.040	0.930
2020/01/31 02:06:34.9	93.830	-0.350	-0.100	0.910
2020/01/31 02:06:35.0	93.830	-0.310	-0.160	0.890
2020/01/31 02:06:35.1	93.830	-0.270	-0.220	0.870
2020/01/31 02:06:35.2	93.830	-0.230	-0.280	0.850
2020/01/31 02:06:35.3	93.830	-0.190	-0.340	0.830
2020/01/31 02:06:35.4	93.830	-0.150	-0.400	0.810
2020/01/31 02:06:35.5	93.840	-0.100	-0.460	0.800
2020/01/31 02:06:35.6	93.850	-0.060	-0.510	0.780
2020/01/31 02:06:35.7	93.860	-0.020	-0.570	0.760
2020/01/31 02:06:35.8	93.870	0.030	-0.620	0.740
2020/01/31 02:06:35.9	93.880	0.070	-0.670	0.720
2020/01/31 02:06:36.0	93.900	0.110	-0.720	0.700
2020/01/31 02:06:36.1	93.910	0.150	-0.770	0.690
2020/01/31 02:06:36.2	93.930	0.190	-0.810	0.670
2020/01/31 02:06:36.3	93.950	0.230	-0.850	0.650
2020/01/31 02:06:36.4	93.970	0.270	-0.890	0.640
2020/01/31 02:06:36.5	93.980	0.300	-0.920	0.620
2020/01/31 02:06:36.6	94.000	0.330	-0.950	0.610
2020/01/31 02:06:36.7	94.020	0.360	-0.970	0.600
2020/01/31 02:06:36.8	94.040	0.390	-0.990	0.580
2020/01/31 02:06:36.9	94.060	0.420	-1.010	0.570
2020/01/31 02:06:37.0	94.070	0.440	-1.020	0.560
2020/01/31 02:06:37.1	94.100	0.460	-1.020	0.540
2020/01/31 02:06:37.2	94.120	0.470	-1.020	0.530
2020/01/31 02:06:37.3	94.130	0.490	-1.010	0.520
2020/01/31 02:06:37.4	94.150	0.500	-1.000	0.500
2020/01/31 02:06:37.5	94.160	0.500	-0.980	0.490
2020/01/31 02:06:37.6	94.170	0.510	-0.960	0.480
2020/01/31 02:06:37.7	94.190	0.510	-0.930	0.460
2020/01/31 02:06:37.8	94.200	0.500	-0.900	0.450
2020/01/31 02:06:37.9	94.210	0.500	-0.860	0.440
2020/01/31 02:06:38.0	94.220	0.490	-0.820	0.430
2020/01/31 02:06:38.1	94.240	0.480	-0.760	0.420
2020/01/31 02:06:38.2	94.250	0.470	-0.710	0.410
2020/01/31 02:06:38.3	94.250	0.450	-0.650	0.400
2020/01/31 02:06:38.4	94.260	0.430	-0.590	0.400
2020/01/31 02:06:38.5	94.260	0.410	-0.530	0.390
2020/01/31 02:06:38.6	94.260	0.390	-0.460	0.390
2020/01/31 02:06:38.7	94.260	0.360	-0.390	0.390
2020/01/31 02:06:38.8	94.250	0.340	-0.310	0.390
2020/01/31 02:06:38.9	94.250	0.310	-0.240	0.400
2020/01/31 02:06:39.0	94.250	0.280	-0.160	0.410
2020/01/31 02:06:39.1	94.250	0.250	-0.090	0.410
2020/01/31 02:06:39.2	94.240	0.210	-0.010	0.420
2020/01/31 02:06:39.3	94.240	0.180	0.070	0.440
2020/01/31 02:06:39.4	94.230	0.150	0.140	0.450
2020/01/31 02:06:39.5	94.220	0.120	0.220	0.470
2020/01/31 02:06:39.6	94.210	0.080	0.290	0.490
2020/01/31 02:06:39.7	94.200	0.050	0.360	0.510
2020/01/31 02:06:39.8	94.190	0.020	0.420	0.540
2020/01/31 02:06:39.9	94.180	-0.010	0.480	0.560
2020/01/31 02:06:40.0	94.160	-0.040	0.540	0.590
2020/01/31 02:06:40.1	94.160	-0.080	0.600	0.630
2020/01/31 02:06:40.2	94.150	-0.100	0.640	0.650
2020/01/31 02:06:40.3	94.140	-0.130	0.680	0.690
2020/01/31 02:06:40.4	94.140	-0.160	0.720	0.720
2020/01/31 02:06:40.5	94.130	-0.180	0.750	0.750
2020/01/31 02:06:40.6	94.120	-0.210	0.770	0.780
2020/01/31 02:06:40.7	94.110	-0.230	0.790	0.820
2020/01/31 02:06:40.8	94.110	-0.250	0.790	0.850
2020/01/31 02:06:40.9	94.100	-0.260	0.800	0.890
2020/01/31 02:06:41.0	94.090	-0.280	0.790	0.930
2020/01/31 02:06:41.1	94.100	-0.290	0.780	0.960
2020/01/31 02:06:41.2	94.090	-0.300	0.760	1.000
2020/01/31 02:06:41.3	94.090	-0.310	0.730	1.040
2020/01/31 02:06:41.4	94.080	-0.310	0.700	1.080
2020/01/31 02:06:41.5	94.080	-0.320	0.660	1.120
2020/01/31 02:06:41.6	94.070	-0.320	0.620	1.150
2020/01/31 02:06:41.7	94.070	-0.320	0.570	1.190
2020/01/31 02:06:41.8	94.060	-0.310	0.510	1.230
2020/01/31 02:06:41.9	94.060	-0.310	0.450	1.260
2020/01/31 02:06:42.0	94.050	-0.300	0.380	1.300
2020/01/31 02:06:42.1	94.050	-0.290	0.310	1.330
2020/01/31 02:06:42.2	94.050	-0.280	0.240	1.360
2020/01/31 02:06:42.3	94.040	-0.260	0.160	1.380
2020/01/31 02:06:42.4	94.040	-0.250	0.080	1.410
2020/01/31 02:06:42.5	94.040	-0.230	0.000	1.430
2020/01/31 02:06:42.6	94.040	-0.210	-0.080	1.440
2020/01/31 02:06:42.7	94.050	-0.190	-0.160	1.460
2020/01/31 02:06:42.8	94.050	-0.170	-0.240	1.470
2020/01/31 02:06:42.9	94.050	-0.150	-0.320	1.480
2020/01/31 02:06:43.0	94.050	-0.130	-0.400	1.480
2020/01/31 02:06:43.1	94.040	-0.110	-0.480	1.480
2020/01/31 02:06:43.2	94.040	-0.090	-0.550	1.480
2020/01/31 02:06:43.3	94.050	-0.070	-0.610	1.480
2020/01/31 02:06:43.4	94.050	-0.050	-0.680	1.480
2020/01/31 02:06:43.5	94.060	-0.030	-0.740	1.470
2020/01/31 02:06:43.6	94.060	-0.010	-0.790	1.460
2020/01/31 02:06:43.7	94.070	0.010	-0.840	1.460
2020/01/31 02:06:43.8	94.070	0.030	-0.880	1.450
2020/01/31 02:06:43.9	94.080	0.050	-0.920	1.440
2020/01/31 02:06:44.0	94.080	0.060	-0.940	1.420
2020/01/31 02:06:44.1	94.090	0.080	-0.960	1.410
2020/01/31 02:06:44.2	94.090	0.090	-0.980	1.400
2020/01/31 02:06:44.3	94.100	0.100	-0.990	1.390
2020/01/31 02:06:44.4	94.100	0.110	-0.990	1.380
2020/01/31 02:06:44.5	94.100	0.120	-0.990	1.370
2020/01/31 02:06:44.6	94.100	0.120	-0.980	1.360
2020/01/31 02:06:44.7	94.110	0.130	-0.960	1.350
2020/01/31 02:06:44.8	94.110	0.130	-0.940	1.340
2020/01/31 02:06:44.9	94.110	0.140	-0.920	1.330
2020/01/31 02:06:45.0	94.110	0.140	-0.880	1.320
2020/01/31 02:06:45.1	94.100	0.140	-0.850	1.320
2020/01/31 02:06:45.2	94.100	0.130	-0.810	1.310
2020/01/31 02:06:45.3	94.100	0.130	-0.770	1.300
2020/01/31 02:06:45.4	94.100	0.130	-0.720	1.300
2020/01/31 02:06:45.5	94.090	0.130	-0.680	1.290
2020/01/31 02:06:45.6	94.090	0.120	-0.630	1.290
2020/01/31 02:06:45.7	94.090	0.120	-0.580	1.280
2020/01/31 02:06:45.8	94.090	0.120	-0.530	1.280
2020/01/31 02:06:45.9	94.090	0.110	-0.480	1.270
2020/01/31 02:06:46.0	94.090	0.110	-0.430	1.260
2020/01/31 02:06:46.1	94.100	0.110	-0.380	1.250
2020/01/31 02:06:46.2	94.100	0.110	-0.340	1.250
2020/01/31 02:06:46.3	94.100	0.100	-0.290	1.240
2020/01/31 02:06:46.4	94.100	0.100	-0.250	1.230
2020/01/31 02:06:46.5	94.100	0.100	-0.210	1.220
2020/01/31 02:06:46.6	94.100	0.100	-0.170	1.200
2020/01/31 02:06:46.7	94.100	0.100	-0.130	1.190
2020/01/31 02:06:46.8	94.110	0.100	-0.090	1.170
2020/01/31 02:06:46.9	94.110	0.100	-0.060	1.160
2020/01/31 02:06:47.0	94.110	0.100	-0.030	1.140
2020/01/31 02:06:47.1	94.110	0.100	0.000	1.130
2020/01/31 02:06:47.2	94.120	0.100	0.030	1.110
2020/01/31 02:06:47.3	94.120	0.100	0.060	1.080
2020/01/31 02:06:47.4	94.120	0.100	0.080	1.060
2020/01/31 02:06:47.5	94.130	0.100	0.110	1.040
2020/01/31 02:06:47.6	94.130	0.100	0.130	1.010
2020/01/31 02:06:47.7	94.130	0.100	0.150	0.990
2020/01/31 02:06:47.8	94.140	0.100	0.170	0.960
2020/01/31 02:06:47.9	94.140	0.100	0.190	0.930
2020/01/31 02:06:48.0	94.140	0.090	0.210	0.900
2020/01/31 02:06:48.1	94.150	0.090	0.230	0.870
2020/01/31 02:06:48.2	94.150	0.080	0.250	0.840
2020/01/31 02:06:48.3	94.150	0.080	0.260	0.810
2020/01/31 02:06:48.4	94.150	0.070	0.280	0.780
2020/01/31 02:06:48.5	94.160	0.060	0.290	0.750
2020/01/31 02:06:48.6	94.160	0.050	0.310	0.710
2020/01/31 02:06:48.7	94.160	0.040	0.320	0.680
2020/01/31 02:06:48.8	94.160	0.030	0.330	0.650
2020/01/31 02:06:48.9	94.160	0.020	0.340	0.610
2020/01/31 02:06:49.0	94.170	0.010	0.350	0.580
2020/01/31 02:06:49.1	94.170	-0.010	0.350	0.540
2020/01/31 02:06:49.2	94.170	-0.020	0.360	0.510
2020/01/31 02:06:49.3	94.180	-0.040	0.360	0.470
2020/01/31 02:06:49.4	94.180	-0.050	0.370	0.440
2020/01/31 02:06:49.5	94.180	-0.070	0.370	0.410
2020/01/31 02:06:49.6	94.180	-0.090	0.370	0.380
2020/01/31 02:06:49.7	94.180	-0.100	0.360	0.350
2020/01/31 02:06:49.8	94.180	-0.120	0.360	0.320
2020/01/31 02:06:49.9	94.180	-0.130	0.350	0.290
2020/01/31 02:06:50.0	94.180	-0.150	0.340	0.270
2020/01/31 02:06:50.1	94.190	-0.170	0.340	0.250
2020/01/31 02:06:50.2	94.190	-0.180	0.320	0.230
2020/01/31 02:06:50.3	94.190	-0.190	0.310	0.220
2020/01/31 02:06:50.4	94.190	-0.210	0.290	0.200
2020/01/31 02:06:50.5	94.190	-0.220	0.270	0.190
2020/01/31 02:06:50.6	94.190	-0.230	0.250	0.190
2020/01/31 02:06:50.7	94.190	-0.240	0.220	0.180
2020/01/31 02:06:50.8	94.200	-0.250	0.190	0.180
2020/01/31 02:06:50.9	94.200	-0.250	0.160	0.180
2020/01/31 02:06:51.0	94.210	-0.260	0.130	0.180
2020/01/31 02:06:51.1	94.220	-0.260	0.090	0.180
2020/01/31 02:06:51.2	94.230	-0.270	0.050	0.190
2020/01/31 02:06:51.3	94.240	-0.270	0.010	0.190
2020/01/31 02:06:51.4	94.250	-0.260	-0.030	0.190
2020/01/31 02:06:51.5	94.270	-0.260	-0.070	0.200
2020/01/31 02:06:51.6	94.280	-0.250	-0.110	0.200
2020/01/31 02:06:51.7	94.300	-0.250	-0.160	0.210
2020/01/31 02:06:51.8	94.320	-0.240	-0.210	0.210
2020/01/31 02:06:51.9	94.330	-0.230	-0.250	0.210
2020/01/31 02:06:52.0	94.350	-0.220	-0.300	0.220
2020/01/31 02:06:52.1	94.370	-0.200	-0.350	0.220
2020/01/31 02:06:52.2	94.390	-0.190	-0.400	0.220
2020/01/31 02:06:52.3	94.410	-0.170	-0.450	0.230
2020/01/31 02:06:52.4	94.430	-0.150	-0.490	0.230
2020/01/31 02:06:52.5	94.450	-0.130	-0.540	0.230
2020/01/31 02:06:52.6	94.470	-0.110	-0.580	0.240
2020/01/31 02:06:52.7	94.490	-0.090	-0.620	0.250
2020/01/31 02:06:52.8	94.510	-0.070	-0.660	0.250
2020/01/31 02:06:52.9	94.520	-0.050	-0.690	0.260
2020/01/31 02:06:53.0	94.540	-0.030	-0.720	0.270
2020/01/31 02:06:53.1	94.550	-0.000	-0.750	0.290
2020/01/31 02:06:53.2	94.560	0.020	-0.770	0.310
2020/01/31 02:06:53.3	94.570	0.040	-0.780	0.330
2020/01/31 02:06:53.4	94.570	0.060	-0.800	0.360
2020/01/31 02:06:53.5	94.570	0.080	-0.800	0.380
2020/01/31 02:06:53.6	94.570	0.100	-0.800	0.410
2020/01/31 02:06:53.7	94.570	0.120	-0.800	0.450
2020/01/31 02:06:53.8	94.560	0.130	-0.790	0.490
2020/01/31 02:06:53.9	94.550	0.150	-0.780	0.530
2020/01/31 02:06:54.0	94.540	0.160	-0.760	0.570
2020/01/31 02:06:54.1	94.540	0.170	-0.730	0.620
2020/01/31 02:06:54.2	94.520	0.180	-0.700	0.670
2020/01/31 02:06:54.3	94.500	0.190	-0.670	0.720
2020/01/31 02:06:54.4	94.480	0.200	-0.630	0.770
2020/01/31 02:06:54.5	94.460	0.200	-0.590	0.820
2020/01/31 02:06:54.6	94.440	0.200	-0.540	0.870
2020/01/31 02:06:54.7	94.420	0.200	-0.490	0.920
2020/01/31 02:06:54.8	94.400	0.200	-0.440	0.980
2020/01/31 02:06:54.9	94.370	0.190	-0.390	1.030
2020/01/31 02:06:55.0	94.350	0.190	-0.330	1.080
2020/01/31 02:06:55.1	94.320	0.180	-0.280	1.120
2020/01/31 02:06:55.2	94.300	0.170	-0.220	1.170
2020/01/31 02:06:55.3	94.270	0.160	-0.170	1.210
2020/01/31 02:06:55.4	94.250	0.150	-0.120	1.260
2020/01/31 02:06:55.5	94.230	0.140	-0.060	1.290
2020/01/31 02:06:55.6	94.200	0.120	-0.010	1.330
2020/01/31 02:06:55.7	94.180	0.110	0.030	1.360
2020/01/31 02:06:55.8	94.160	0.100	0.070	1.390
2020/01/31 02:06:55.9	94.140	0.080	0.110	1.420
2020/01/31 02:06:56.0	94.120	0.070	0.150	1.440
2020/01/31 02:06:56.1	94.110	0.050	0.180	1.460
2020/01/31 02:06:56.2	94.090	0.040	0.210	1.470
2020/01/31 02:06:56.3	94.070	0.030	0.230	1.480
2020/01/31 02:06:56.4	94.060	0.020	0.250	1.490
2020/01/31 02:06:56.5	94.050	0.010	0.260	1.490
2020/01/31 02:06:56.6	94.040	-0.000	0.260	1.480
2020/01/31 02:06:56.7	94.040	-0.010	0.260	1.470
2020/01/31 02:06:56.8	94.030	-0.020	0.250	1.460
2020/01/31 02:06:56.9	94.040	-0.020	0.240	1.440
2020/01/31 02:06:57.0	94.040	-0.020	0.220	1.420
2020/01/31 02:06:57.1	94.050	-0.020	0.200	1.400
2020/01/31 02:06:57.2	94.060	-0.020	0.170	1.370
2020/01/31 02:06:57.3	94.070	-0.010	0.130	1.330
2020/01/31 02:06:57.4	94.080	-0.010	0.100	1.300
2020/01/31 02:06:57.5	94.100	0.000	0.060	1.260
2020/01/31 02:06:57.6	94.120	0.010	0.020	1.230
2020/01/31 02:06:57.7	94.140	0.020	-0.030	1.190
2020/01/31 02:06:57.8	94.160	0.040	-0.070	1.150
2020/01/31 02:06:57.9	94.180	0.050	-0.120	1.110
2020/01/31 02:06:58.0	94.200	0.070	-0.160	1.080
2020/01/31 02:06:58.1	94.220	0.090	-0.210	1.040
2020/01/31 02:06:58.2	94.240	0.110	-0.250	1.000
2020/01/31 02:06:58.3	94.270	0.120	-0.290	0.970
2020/01/31 02:06:58.4	94.290	0.140	-0.330	0.940
2020/01/31 02:06:58.5	94.310	0.160	-0.360	0.900
2020/01/31 02:06:58.6	94.330	0.180	-0.390	0.870
2020/01/31 02:06:58.7	94.350	0.200	-0.420	0.840
2020/01/31 02:06:58.8	94.370	0.210	-0.440	0.820
2020/01/31 02:06:58.9	94.390	0.230	-0.460	0.790
2020/01/31 02:06:59.0	94.410	0.240	-0.470	0.760
2020/01/31 02:06:59.1	94.420	0.250	-0.480	0.740
2020/01/31 02:06:59.2	94.430	0.260	-0.480	0.720
2020/01/31 02:06:59.3	94.450	0.270	-0.470	0.690
2020/01/31 02:06:59.4	94.460	0.270	-0.460	0.670
2020/01/31 02:06:59.5	94.470	0.280	-0.450	0.650
2020/01/31 02:06:59.6	94.480	0.280	-0.420	0.630
2020/01/31 02:06:59.7	94.490	0.270	-0.400	0.610
2020/01/31 02:06:59.8	94.500	0.270	-0.370	0.590
2020/01/31 02:06:59.9	94.510	0.260	-0.330	0.570
2020/01/31 02:07:00.0	94.520	0.250	-0.300	0.550
2020/01/31 02:07:00.1	94.530	0.230	-0.250	0.540
2020/01/31 02:07:00.2	94.540	0.210	-0.210	0.520
2020/01/31 02:07:00.3	94.540	0.190	-0.160	0.500
2020/01/31 02:07:00.4	94.540	0.170	-0.120	0.490
2020/01/31 02:07:00.5	94.550	0.140	-0.070	0.470
2020/01/31 02:07:00.6	94.550	0.120	-0.030	0.460
2020/01/31 02:07:00.7	94.550	0.090	0.020	0.450
2020/01/31 02:07:00.8	94.540	0.050	0.070	0.440
2020/01/31 02:07:00.9	94.540	0.020	0.110	0.440
2020/01/31 02:07:01.0	94.530	-0.010	0.150	0.430
2020/01/31 02:07:01.1	94.540	-0.050	0.190	0.430
2020/01/31 02:07:01.2	94.530	-0.090	0.230	0.440
2020/01/31 02:07:01.3	94.520	-0.120	0.260	0.440
2020/01/31 02:07:01.4	94.510	-0.160	0.290	0.450
2020/01/31 02:07:01.5	94.500	-0.200	0.320	0.450
2020/01/31 02:07:01.6	94.490	-0.230	0.340	0.470
2020/01/31 02:07:01.7	94.480	-0.270	0.350	0.480
2020/01/31 02:07:01.8	94.460	-0.300	0.360	0.500
2020/01/31 02:07:01.9	94.450	-0.330	0.370	0.520
2020/01/31 02:07:02.0	94.430	-0.360	0.370	0.540
2020/01/31 02:07:02.1	94.430	-0.390	0.370	0.560
2020/01/31 02:07:02.2	94.410	-0.420	0.360	0.590
2020/01/31 02:07:02.3	94.400	-0.440	0.340	0.610
2020/01/31 02:07:02.4	94.380	-0.460	0.320	0.640
2020/01/31 02:07:02.5	94.370	-0.470	0.290	0.670
2020/01/31 02:07:02.6	94.360	-0.490	0.260	0.700
2020/01/31 02:07:02.7	94.340	-0.500	0.230	0.730
2020/01/31 02:07:02.8	94.330	-0.500	0.190	0.750
2020/01/31 02:07:02.9	94.320	-0.500	0.150	0.780
2020/01/31 02:07:03.0	94.310	-0.500	0.100	0.800
2020/01/31 02:07:03.1	94.310	-0.500	0.050	0.830
2020/01/31 02:07:03.2	94.310	-0.490	-0.000	0.850
2020/01/31 02:07:03.3	94.300	-0.480	-0.050	0.870
2020/01/31 02:07:03.4	94.300	-0.460	-0.110	0.890
2020/01/31 02:07:03.5	94.300	-0.440	-0.160	0.910
2020/01/31 02:07:03.6	94.300	-0.420	-0.220	0.920
2020/01/31 02:07:03.7	94.300	-0.400	-0.270	0.940
2020/01/31 02:07:03.8	94.310	-0.370	-0.330	0.950
2020/01/31 02:07:03.9	94.310	-0.340	-0.380	0.960
2020/01/31 02:07:04.0	94.310	-0.310	-0.430	0.960
2020/01/31 02:07:04.1	94.330	-0.280	-0.480	0.970
2020/01/31 02:07:04.2	94.330	-0.240	-0.530	0.980
2020/01/31 02:07:04.3	94.340	-0.210	-0.570	0.980
2020/01/31 02:07:04.4	94.340	-0.170	-0.610	0.990
2020/01/31 02:07:04.5	94.350	-0.130	-0.640	0.990
2020/01/31 02:07:04.6	94.360	-0.100	-0.670	0.990
2020/01/31 02:07:04.7	94.360	-0.060	-0.700	0.990
2020/01/31 02:07:04.8	94.370	-0.030	-0.720	0.980
2020/01/31 02:07:04.9	94.370	0.010	-0.740	0.980
2020/01/31 02:07:05.0	94.380	0.040	-0.750	0.970
2020/01/31 02:07:05.1	94.390	0.070	-0.750	0.970
2020/01/31 02:07:05.2	94.390	0.100	-0.750	0.960
2020/01/31 02:07:05.3	94.400	0.120	-0.740	0.950
2020/01/31 02:07:05.4	94.410	0.150	-0.730	0.940
2020/01/31 02:07:05.5	94.410	0.170	-0.710	0.930
2020/01/31 02:07:05.6	94.420	0.190	-0.690	0.920
2020/01/31 02:07:05.7	94.430	0.200	-0.660	0.910
2020/01/31 02:07:05.8	94.440	0.220	-0.630	0.900
2020/01/31 02:07:05.9	94.450	0.230	-0.600	0.890
2020/01/31 02:07:06.0	94.460	0.230	-0.560	0.880
2020/01/31 02:07:06.1	94.460	0.240	-0.510	0.870
2020/01/31 02:07:06.2	94.470	0.240	-0.470	0.860
2020/01/31 02:07:06.3	94.480	0.240	-0.420	0.850
2020/01/31 02:07:06.4	94.490	0.230	-0.380	0.850
2020/01/31 02:07:06.5	94.500	0.230	-0.330	0.840
2020/01/31 02:07:06.6	94.510	0.220	-0.280	0.830
2020/01/31 02:07:06.7	94.520	0.210	-0.230	0.820
2020/01/31 02:07:06.8	94.530	0.200	-0.190	0.820
2020/01/31 02:07:06.9	94.540	0.190	-0.140	0.820
2020/01/31 02:07:07.0	94.540	0.170	-0.090	0.810
2020/01/31 02:07:07.1	94.550	0.150	-0.050	0.810
2020/01/31 02:07:07.2	94.550	0.140	-0.010	0.810
2020/01/31 02:07:07.3	94.560	0.120	0.030	0.810
2020/01/31 02:07:07.4	94.560	0.100	0.070	0.810
2020/01/31 02:07:07.5	94.570	0.080	0.110	0.820
2020/01/31 02:07:07.6	94.570	0.060	0.140	0.820
2020/01/31 02:07:07.7	94.570	0.040	0.170	0.830
2020/01/31 02:07:07.8	94.560	0.020	0.200	0.830
2020/01/31 02:07:07.9	94.560	-0.000	0.230	0.840
2020/01/31 02:07:08.0	94.550	-0.020	0.250	0.850
2020/01/31 02:07:08.1	94.540	-0.040	0.280	0.860
2020/01/31 02:07:08.2	94.530	-0.060	0.300	0.870
2020/01/31 02:07:08.3	94.520	-0.080	0.320	0.880
2020/01/31 02:07:08.4	94.510	-0.100	0.330	0.890
2020/01/31 02:07:08.5	94.490	-0.110	0.340	0.900
2020/01/31 02:07:08.6	94.480	-0.130	0.350	0.910
2020/01/31 02:07:08.7	94.460	-0.150	0.350	0.920
2020/01/31 02:07:08.8	94.440	-0.160	0.360	0.930
2020/01/31 02:07:08.9	94.430	-0.170	0.350	0.940
2020/01/31 02:07:09.0	94.410	-0.180	0.350	0.950
2020/01/31 02:07:09.1	94.380	-0.190	0.340	0.960
2020/01/31 02:07:09.2	94.360	-0.200	0.330	0.970
2020/01/31 02:07:09.3	94.340	-0.200	0.320	0.970
2020/01/31 02:07:09.4	94.320	-0.210	0.300	0.980
2020/01/31 02:07:09.5	94.300	-0.210	0.290	0.990
2020/01/31 02:07:09.6	94.280	-0.210	0.260	0.990
2020/01/31 02:07:09.7	94.270	-0.210	0.240	0.990
2020/01/31 02:07:09.8	94.250	-0.210	0.210	1.000
2020/01/31 02:07:09.9	94.240	-0.200	0.180	1.000
2020/01/31 02:07:10.0	94.220	-0.200	0.150	0.990
2020/01/31 02:07:10.1	94.200	-0.190	0.120	0.990
2020/01/31 02:07:10.2	94.200	-0.180	0.080	0.990
2020/01/31 02:07:10.3	94.190	-0.160	0.040	0.980
2020/01/31 02:07:10.4	94.180	-0.150	-0.010	0.970
2020/01/31 02:07:10.5	94.180	-0.130	-0.050	0.960
2020/01/31 02:07:10.6	94.180	-0.120	-0.100	0.940
2020/01/31 02:07:10.7	94.180	-0.100	-0.140	0.930
2020/01/31 02:07:10.8	94.180	-0.080	-0.190	0.910
2020/01/31 02:07:10.9	94.190	-0.050	-0.240	0.890
2020/01/31 02:07:11.0	94.190	-0.030	-0.280	0.880
2020/01/31 02:07:11.1	94.200	-0.000	-0.330	0.860
2020/01/31 02:07:11.2	94.200	0.020	-0.380	0.840
2020/01/31 02:07:11.3	94.210	0.050	-0.420	0.820
2020/01/31 02:07:11.4	94.220	0.070	-0.460	0.790
2020/01/31 02:07:11.5	94.230	0.100	-0.500	0.770
2020/01/31 02:07:11.6	94.240	0.130	-0.540	0.750
2020/01/31 02:07:11.7	94.250	0.150	-0.570	0.720
2020/01/31 02:07:11.8	94.260	0.180	-0.600	0.700
2020/01/31 02:07:11.9	94.270	0.210	-0.630	0.670
2020/01/31 02:07:12.0	94.290	0.230	-0.660	0.650
2020/01/31 02:07:12.1	94.300	0.260	-0.680	0.630
2020/01/31 02:07:12.2	94.310	0.280	-0.690	0.600
2020/01/31 02:07:12.3	94.320	0.300	-0.700	0.580
2020/01/31 02:07:12.4	94.330	0.320	-0.710	0.550
2020/01/31 02:07:12.5	94.340	0.340	-0.720	0.530
2020/01/31 02:07:12.6	94.360	0.360	-0.720	0.500
2020/01/31 02:07:12.7	94.370	0.370	-0.710	0.470
2020/01/31 02:07:12.8	94.380	0.390	-0.710	0.450
2020/01/31 02:07:12.9	94.400	0.400	-0.700	0.420
2020/01/31 02:07:13.0	94.410	0.410	-0.680	0.400
2020/01/31 02:07:13.1	94.440	0.420	-0.670	0.380
2020/01/31 02:07:13.2	94.450	0.430	-0.650	0.360
2020/01/31 02:07:13.3	94.470	0.430	-0.630	0.330
2020/01/31 02:07:13.4	94.480	0.440	-0.600	0.310
2020/01/31 02:07:13.5	94.500	0.440	-0.580	0.290
2020/01/31 02:07:13.6	94.520	0.440	-0.550	0.280
2020/01/31 02:07:13.7	94.530	0.440	-0.530	0.260
2020/01/31 02:07:13.8	94.550	0.430	-0.500	0.240
2020/01/31 02:07:13.9	94.560	0.430	-0.470	0.230
2020/01/31 02:07:14.0	94.580	0.420	-0.440	0.220
2020/01/31 02:07:14.1	94.600	0.420	-0.410	0.210
2020/01/31 02:07:14.2	94.610	0.410	-0.380	0.210
2020/01/31 02:07:14.3	94.620	0.400	-0.350	0.210
2020/01/31 02:07:14.4	94.630	0.390	-0.320	0.210
2020/01/31 02:07:14.5	94.640	0.380	-0.290	0.210
2020/01/31 02:07:14.6	94.650	0.370	-0.260	0.220
2020/01/31 02:07:14.7	94.650	0.350	-0.230	0.230
2020/01/31 02:07:14.8	94.660	0.340	-0.200	0.240
2020/01/31 02:07:14.9	94.660	0.320	-0.170	0.260
2020/01/31 02:07:15.0	94.660	0.310	-0.130	0.280
2020/01/31 02:07:15.1	94.650	0.290	-0.100	0.300
2020/01/31 02:07:15.2	94.650	0.270	-0.070	0.320
2020/01/31 02:07:15.3	94.640	0.250	-0.040	0.350
2020/01/31 02:07:15.4	94.630	0.230	-0.010	0.390
2020/01/31 02:07:15.5	94.620	0.210	0.030	0.420
2020/01/31 02:07:15.6	94.610	0.180	0.060	0.460
2020/01/31 02:07:15.7	94.590	0.160	0.090	0.500
2020/01/31 02:07:15.8	94.580	0.140	0.130	0.540
2020/01/31 02:07:15.9	94.560	0.110	0.160	0.580
2020/01/31 02:07:16.0	94.540	0.080	0.200	0.630
2020/01/31 02:07:16.1	94.530	0.050	0.230	0.680
2020/01/31 02:07:16.2	94.510	0.020	0.260	0.730
2020/01/31 02:07:16.3	94.480	-0.010	0.300	0.780
2020/01/31 02:07:16.4	94.460	-0.040	0.330	0.830
2020/01/31 02:07:16.5	94.430	-0.070	0.370	0.880
2020/01/31 02:07:16.6	94.410	-0.100	0.400	0.930
2020/01/31 02:07:16.7	94.380	-0.130	0.430	0.980
2020/01/31 02:07:16.8	94.360	-0.170	0.470	1.030
2020/01/31 02:07:16.9	94.340	-0.200	0.490	1.070
2020/01/31 02:07:17.0	94.310	-0.240	0.520	1.120
2020/01/31 02:07:17.1	94.290	-0.270	0.550	1.170
2020/01/31 02:07:17.2	94.270	-0.300	0.570	1.210
2020/01/31 02:07:17.3	94.250	-0.340	0.590	1.250
2020/01/31 02:07:17.4	94.230	-0.370	0.600	1.300
2020/01/31 02:07:17.5	94.220	-0.400	0.610	1.340
2020/01/31 02:07:17.6	94.200	-0.430	0.620	1.370
2020/01/31 02:07:17.7	94.190	-0.460	0.620	1.410
2020/01/31 02:07:17.8	94.170	-0.490	0.610	1.440
2020/01/31 02:07:17.9	94.160	-0.520	0.600	1.470
2020/01/31 02:07:18.0	94.150	-0.540	0.590	1.500
2020/01/31 02:07:18.1	94.130	-0.570	0.570	1.530
2020/01/31 02:07:18.2	94.120	-0.590	0.550	1.550
2020/01/31 02:07:18.3	94.110	-0.600	0.520	1.570
2020/01/31 02:07:18.4	94.100	-0.620	0.480	1.590
2020/01/31 02:07:18.5	94.100	-0.630	0.440	1.600
2020/01/31 02:07:18.6	94.090	-0.640	0.400	1.610
2020/01/31 02:07:18.7	94.090	-0.640	0.350	1.620
2020/01/31 02:07:18.8	94.090	-0.640	0.290	1.630
2020/01/31 02:07:18.9	94.090	-0.640	0.230	1.630
2020/01/31 02:07:19.0	94.090	-0.640	0.170	1.630
2020/01/31 02:07:19.1	94.100	-0.630	0.100	1.630
2020/01/31 02:07:19.2	94.110	-0.610	0.030	1.620
2020/01/31 02:07:19.3	94.120	-0.600	-0.050	1.610
2020/01/31 02:07:19.4	94.130	-0.580	-0.120	1.590
2020/01/31 02:07:19.5	94.140	-0.560	-0.190	1.570
2020/01/31 02:07:19.6	94.150	-0.530	-0.270	1.550
2020/01/31 02:07:19.7	94.170	-0.510	-0.350	1.530
2020/01/31 02:07:19.8	94.190	-0.480	-0.430	1.500
2020/01/31 02:07:19.9	94.210	-0.440	-0.500	1.470
2020/01/31 02:07:20.0	94.230	-0.410	-0.580	1.430
2020/01/31 02:07:20.1	94.260	-0.370	-0.650	1.400
2020/01/31 02:07:20.2	94.290	-0.330	-0.720	1.360
2020/01/31 02:07:20.3	94.320	-0.290	-0.790	1.320
2020/01/31 02:07:20.4	94.350	-0.250	-0.860	1.280
2020/01/31 02:07:20.5	94.380	-0.210	-0.920	1.230
2020/01/31 02:07:20.6	94.410	-0.160	-0.980	1.190
2020/01/31 02:07:20.7	94.450	-0.120	-1.030	1.140
2020/01/31 02:07:20.8	94.480	-0.080	-1.080	1.100
2020/01/31 02:07:20.9	94.510	-0.030	-1.120	1.050
2020/01/31 02:07:21.0	94.550	0.010	-1.150	1.010
2020/01/31 02:07:21.1	94.570	0.050	-1.180	0.960
2020/01/31 02:07:21.2	94.610	0.090	-1.200	0.920
2020/01/31 02:07:21.3	94.640	0.130	-1.220	0.880
2020/01/31 02:07:21.4	94.670	0.160	-1.230	0.840
2020/01/31 02:07:21.5	94.700	0.200	-1.230	0.810
2020/01/31 02:07:21.6	94.730	0.230	-1.230	0.770
2020/01/31 02:07:21.7	94.750	0.260	-1.220	0.740
2020/01/31 02:07:21.8	94.780	0.280	-1.200	0.710
2020/01/31 02:07:21.9	94.800	0.310	-1.180	0.680
2020/01/31 02:07:22.0	94.820	0.330	-1.150	0.650
2020/01/31 02:07:22.1	94.830	0.350	-1.110	0.630
2020/01/31 02:07:22.2	94.840	0.360	-1.070	0.610
2020/01/31 02:07:22.3	94.850	0.370	-1.020	0.590
2020/01/31 02:07:22.4	94.860	0.380	-0.970	0.570
2020/01/31 02:07:22.5	94.870	0.390	-0.910	0.550
2020/01/31 02:07:22.6	94.880	0.390	-0.840	0.540
2020/01/31 02:07:22.7	94.880	0.390	-0.770	0.530
2020/01/31 02:07:22.8	94.880	0.380	-0.700	0.520
2020/01/31 02:07:22.9	94.880	0.370	-0.620	0.510
2020/01/31 02:07:23.0	94.870	0.360	-0.540	0.510
2020/01/31 02:07:23.1	94.860	0.350	-0.450	0.510
2020/01/31 02:07:23.2	94.850	0.330	-0.360	0.510
2020/01/31 02:07:23.3	94.830	0.310	-0.270	0.520
2020/01/31 02:07:23.4	94.820	0.290	-0.180	0.520
2020/01/31 02:07:23.5	94.800	0.270	-0.090	0.530
2020/01/31 02:07:23.6	94.780	0.240	-0.000	0.540
2020/01/31 02:07:23.7	94.750	0.220	0.090	0.560
2020/01/31 02:07:23.8	94.730	0.190	0.180	0.580
2020/01/31 02:07:23.9	94.700	0.160	0.270	0.600
2020/01/31 02:07:24.0	94.670	0.130	0.350	0.620
2020/01/31 02:07:24.1	94.640	0.100	0.440	0.650
2020/01/31 02:07:24.2	94.610	0.060	0.520	0.670
2020/01/31 02:07:24.3	94.580	0.030	0.590	0.700
2020/01/31 02:07:24.4	94.550	0.000	0.660	0.720
2020/01/31 02:07:24.5	94.510	-0.030	0.730	0.750
2020/01/31 02:07:24.6	94.480	-0.060	0.790	0.770
2020/01/31 02:07:24.7	94.440	-0.090	0.850	0.800
2020/01/31 02:07:24.8	94.410	-0.120	0.900	0.820
2020/01/31 02:07:24.9	94.380	-0.150	0.940	0.840
2020/01/31 02:07:25.0	94.350	-0.180	0.980	0.860
2020/01/31 02:07:25.1	94.310	-0.200	1.010	0.880
2020/01/31 02:07:25.2	94.280	-0.230	1.030	0.900
2020/01/31 02:07:25.3	94.250	-0.250	1.040	0.910
2020/01/31 02:07:25.4	94.220	-0.270	1.050	0.930
2020/01/31 02:07:25.5	94.190	-0.280	1.050	0.940
2020/01/31 02:07:25.6	94.160	-0.300	1.040	0.950
2020/01/31 02:07:25.7	94.140	-0.310	1.030	0.950
2020/01/31 02:07:25.8	94.110	-0.320	1.000	0.960
2020/01/31 02:07:25.9	94.080	-0.320	0.970	0.960
2020/01/31 02:07:26.0	94.050	-0.320	0.940	0.960
2020/01/31 02:07:26.1	94.010	-0.320	0.890	0.960
2020/01/31 02:07:26.2	93.990	-0.320	0.840	0.960
2020/01/31 02:07:26.3	93.960	-0.310	0.780	0.950
2020/01/31 02:07:26.4	93.930	-0.300	0.720	0.940
2020/01/31 02:07:26.5	93.910	-0.290	0.640	0.930
2020/01/31 02:07:26.6	93.880	-0.280	0.570	0.910
2020/01/31 02:07:26.7	93.860	-0.260	0.490	0.900
2020/01/31 02:07:26.8	93.840	-0.240	0.400	0.880
2020/01/31 02:07:26.9	93.820	-0.220	0.310	0.850
2020/01/31 02:07:27.0	93.800	-0.190	0.220	0.830
2020/01/31 02:07:27.1	93.790	-0.170	0.130	0.800
2020/01/31 02:07:27.2	93.770	-0.140	0.030	0.770
2020/01/31 02:07:27.3	93.760	-0.110	-0.070	0.730
2020/01/31 02:07:27.4	93.750	-0.070	-0.170	0.690
2020/01/31 02:07:27.5	93.750	-0.040	-0.260	0.650
2020/01/31 02:07:27.6	93.750	-0.010	-0.360	0.610
2020/01/31 02:07:27.7	93.750	0.030	-0.460	0.560
2020/01/31 02:07:27.8	93.760	0.070	-0.550	0.510
2020/01/31 02:07:27.9	93.770	0.100	-0.650	0.460
2020/01/31 02:07:28.0	93.790	0.140	-0.740	0.400
2020/01/31 02:07:28.1	93.830	0.180	-0.830	0.350
2020/01/31 02:07:28.2	93.850	0.210	-0.910	0.300
2020/01/31 02:07:28.3	93.880	0.250	-0.990	0.240
2020/01/31 02:07:28.4	93.910	0.290	-1.060	0.180
2020/01/31 02:07:28.5	93.940	0.320	-1.130	0.120
2020/01/31 02:07:28.6	93.980	0.360	-1.190	0.060
2020/01/31 02:07:28.7	94.020	0.390	-1.250	0.000
2020/01/31 02:07:28.8	94.060	0.420	-1.300	-0.050
2020/01/31 02:07:28.9	94.100	0.450	-1.340	-0.100
2020/01/31 02:07:29.0	94.150	0.480	-1.380	-0.150
2020/01/31 02:07:29.1	94.190	0.500	-1.400	-0.200
2020/01/31 02:07:29.2	94.230	0.530	-1.420	-0.240
2020/01/31 02:07:29.3	94.280	0.550	-1.430	-0.280
2020/01/31 02:07:29.4	94.320	0.570	-1.440	-0.310
2020/01/31 02:07:29.5	94.360	0.580	-1.430	-0.330
2020/01/31 02:07:29.6	94.400	0.590	-1.420	-0.350
2020/01/31 02:07:29.7	94.440	0.600	-1.400	-0.360
2020/01/31 02:07:29.8	94.480	0.610	-1.370	-0.370
2020/01/31 02:07:29.9	94.520	0.610	-1.340	-0.370
2020/01/31 02:07:30.0	94.550	0.610	-1.300	-0.360
2020/01/31 02:07:30.1	94.580	0.610	-1.250	-0.340
2020/01/31 02:07:30.2	94.610	0.600	-1.190	-0.320
2020/01/31 02:07:30.3	94.640	0.590	-1.120	-0.290
2020/01/31 02:07:30.4	94.660	0.580	-1.050	-0.260
2020/01/31 02:07:30.5	94.680	0.560	-0.980	-0.220
2020/01/31 02:07:30.6	94.700	0.540	-0.900	-0.180
2020/01/31 02:07:30.7	94.710	0.510	-0.810	-0.130
2020/01/31 02:07:30.8	94.720	0.490	-0.720	-0.070
2020/01/31 02:07:30.9	94.730	0.460	-0.630	-0.010
2020/01/31 02:07:31.0	94.740	0.430	-0.530	0.060
2020/01/31 02:07:31.1	94.730	0.390	-0.440	0.130
2020/01/31 02:07:31.2	94.740	0.350	-0.340	0.210
2020/01/31 02:07:31.3	94.730	0.310	-0.240	0.290
2020/01/31 02:07:31.4	94.730	0.270	-0.140	0.370
2020/01/31 02:07:31.5	94.720	0.230	-0.040	0.460
2020/01/31 02:07:31.6	94.710	0.190	0.060	0.550
2020/01/31 02:07:31.7	94.690	0.140	0.160	0.640
2020/01/31 02:07:31.8	94.680	0.090	0.250	0.730
2020/01/31 02:07:31.9	94.660	0.040	0.340	0.830
2020/01/31 02:07:32.0	94.640	-0.000	0.430	0.920
2020/01/31 02:07:32.1	94.610	-0.050	0.510	1.020
2020/01/31 02:07:32.2	94.590	-0.100	0.590	1.120
2020/01/31 02:07:32.3	94.560	-0.150	0.660	1.210
2020/01/31 02:07:32.4	94.530	-0.200	0.730	1.310
2020/01/31 02:07:32.5	94.490	-0.240	0.790	1.400
2020/01/31 02:07:32.6	94.460	-0.290	0.840	1.500
2020/01/31 02:07:32.7	94.430	-0.330	0.890	1.590
2020/01/31 02:07:32.8	94.390	-0.380	0.940	1.670
2020/01/31 02:07:32.9	94.350	-0.420	0.980	1.760
2020/01/31 02:07:33.0	94.320	-0.460	1.010	1.840
2020/01/31 02:07:33.1	94.290	-0.500	1.030	1.920
2020/01/31 02:07:33.2	94.250	-0.530	1.050	2.000
2020/01/31 02:07:33.3	94.220	-0.570	1.060	2.070
2020/01/31 02:07:33.4	94.180	-0.600	1.070	2.130
2020/01/31 02:07:33.5	94.150	-0.630	1.070	2.190
2020/01/31 02:07:33.6	94.120	-0.650	1.060	2.250
2020/01/31 02:07:33.7	94.090	-0.670	1.040	2.290
2020/01/31 02:07:33.8	94.060	-0.690	1.020	2.340
2020/01/31 02:07:33.9	94.030	-0.710	1.000	2.370
2020/01/31 02:07:34.0	94.010	-0.720	0.960	2.410
2020/01/31 02:07:34.1	94.000	-0.720	0.920	2.430
2020/01/31 02:07:34.2	93.980	-0.730	0.880	2.450
2020/01/31 02:07:34.3	93.960	-0.730	0.820	2.470
2020/01/31 02:07:34.4	93.950	-0.720	0.770	2.480
2020/01/31 02:07:34.5	93.930	-0.710	0.700	2.480
2020/01/31 02:07:34.6	93.920	-0.700	0.640	2.480
2020/01/31 02:07:34.7	93.910	-0.680	0.560	2.470
2020/01/31 02:07:34.8	93.910	-0.660	0.490	2.460
2020/01/31 02:07:34.9	93.900	-0.630	0.400	2.440
2020/01/31 02:07:35.0	93.900	-0.600	0.320	2.420
2020/01/31 02:07:35.1	93.900	-0.570	0.220	2.390
2020/01/31 02:07:35.2	93.910	-0.530	0.130	2.360
2020/01/31 02:07:35.3	93.910	-0.490	0.040	2.330
2020/01/31 02:07:35.4	93.920	-0.450	-0.060	2.290
2020/01/31 02:07:35.5	93.930	-0.400	-0.150	2.250
2020/01/31 02:07:35.6	93.940	-0.350	-0.250	2.210
2020/01/31 02:07:35.7	93.960	-0.300	-0.340	2.160
2020/01/31 02:07:35.8	93.970	-0.250	-0.430	2.110
2020/01/31 02:07:35.9	93.990	-0.190	-0.520	2.050
2020/01/31 02:07:36.0	94.010	-0.140	-0.610	2.000
2020/01/31 02:07:36.1	94.040	-0.080	-0.700	1.940
2020/01/31 02:07:36.2	94.060	-0.030	-0.780	1.880
2020/01/31 02:07:36.3	94.080	0.030	-0.850	1.820
2020/01/31 02:07:36.4	94.110	0.080	-0.920	1.750
2020/01/31 02:07:36.5	94.140	0.140	-0.990	1.680
2020/01/31 02:07:36.6	94.160	0.190	-1.050	1.610
2020/01/31 02:07:36.7	94.190	0.240	-1.100	1.540
2020/01/31 02:07:36.8	94.210	0.290	-1.140	1.470
2020/01/31 02:07:36.9	94.230	0.330	-1.180	1.390
2020/01/31 02:07:37.0	94.250	0.380	-1.210	1.320
2020/01/31 02:07:37.1	94.270	0.420	-1.240	1.240
2020/01/31 02:07:37.2	94.290	0.460	-1.250	1.160
2020/01/31 02:07:37.3	94.310	0.490	-1.260	1.080
2020/01/31 02:07:37.4	94.320	0.520	-1.270	1.010
2020/01/31 02:07:37.5	94.330	0.550	-1.260	0.930
2020/01/31 02:07:37.6	94.340	0.570	-1.250	0.850
2020/01/31 02:07:37.7	94.340	0.590	-1.230	0.770
2020/01/31 02:07:37.8	94.350	0.610	-1.210	0.700
2020/01/31 02:07:37.9	94.350	0.620	-1.180	0.620
2020/01/31 02:07:38.0	94.340	0.620	-1.150	0.550
2020/01/31 02:07:38.1	94.340	0.630	-1.110	0.480
2020/01/31 02:07:38.2	94.330	0.630	-1.060	0.410
2020/01/31 02:07:38.3	94.320	0.620	-1.010	0.350
2020/01/31 02:07:38.4	94.310	0.610	-0.960	0.280
2020/01/31 02:07:38.5	94.290	0.600	-0.900	0.220
2020/01/31 02:07:38.6	94.280	0.580	-0.840	0.170
2020/01/31 02:07:38.7	94.260	0.560	-0.770	0.120
2020/01/31 02:07:38.8	94.240	0.540	-0.710	0.070
2020/01/31 02:07:38.9	94.220	0.520	-0.640	0.020
2020/01/31 02:07:39.0	94.200	0.490	-0.560	-0.020
2020/01/31 02:07:39.1	94.190	0.460	-0.490	-0.050
2020/01/31 02:07:39.2	94.170	0.430	-0.410	-0.080
2020/01/31 02:07:39.3	94.140	0.390	-0.330	-0.110
2020/01/31 02:07:39.4	94.120	0.360	-0.260	-0.130
2020/01/31 02:07:39.5	94.100	0.320	-0.180	-0.150
2020/01/31 02:07:39.6	94.080	0.280	-0.100	-0.160
2020/01/31 02:07:39.7	94.060	0.240	-0.020	-0.180
2020/01/31 02:07:39.8	94.040	0.200	0.050	-0.180
2020/01/31 02:07:39.9	94.020	0.160	0.130	-0.190
2020/01/31 02:07:40.0	94.000	0.120	0.210	-0.190
2020/01/31 02:07:40.1	93.980	0.080	0.280	-0.190
2020/01/31 02:07:40.2	93.960	0.040	0.350	-0.180
2020/01/31 02:07:40.3	93.940	-0.010	0.420	-0.180
2020/01/31 02:07:40.4	93.930	-0.050	0.480	-0.170
2020/01/31 02:07:40.5	93.910	-0.090	0.550	-0.160
2020/01/31 02:07:40.6	93.900	-0.130	0.600	-0.150
2020/01/31 02:07:40.7	93.880	-0.170	0.660	-0.140
2020/01/31 02:07:40.8	93.870	-0.210	0.710	-0.130
2020/01/31 02:07:40.9	93.860	-0.240	0.750	-0.110
2020/01/31 02:07:41.0	93.850	-0.280	0.790	-0.100
2020/01/31 02:07:41.1	93.840	-0.310	0.830	-0.080
2020/01/31 02:07:41.2	93.830	-0.340	0.860	-0.060
2020/01/31 02:07:41.3	93.830	-0.370	0.880	-0.040
2020/01/31 02:07:41.4	93.820	-0.400	0.900	-0.020
2020/01/31 02:07:41.5	93.810	-0.430	0.910	-0.010
2020/01/31 02:07:41.6	93.810	-0.450	0.910	0.010
2020/01/31 02:07:41.7	93.800	-0.470	0.900	0.030
2020/01/31 02:07:41.8	93.800	-0.490	0.890	0.060
2020/01/31 02:07:41.9	93.800	-0.500	0.870	0.080
2020/01/31 02:07:42.0	93.790	-0.520	0.850	0.100
2020/01/31 02:07:42.1	93.810	-0.530	0.810	0.120
2020/01/31 02:07:42.2	93.810	-0.540	0.770	0.140
2020/01/31 02:07:42.3	93.800	-0.540	0.730	0.170
2020/01/31 02:07:42.4	93.800	-0.550	0.680	0.190
2020/01/31 02:07:42.5	93.800	-0.550	0.620	0.210
2020/01/31 02:07:42.6	93.800	-0.550	0.560	0.240
2020/01/31 02:07:42.7	93.790	-0.540	0.490	0.260
2020/01/31 02:07:42.8	93.790	-0.540	0.420	0.280
2020/01/31 02:07:42.9	93.790	-0.530	0.340	0.310
2020/01/31 02:07:43.0	93.780	-0.520	0.260	0.330
2020/01/31 02:07:43.1	93.780	-0.510	0.180	0.360
2020/01/31 02:07:43.2	93.780	-0.490	0.090	0.390
2020/01/31 02:07:43.3	93.780	-0.470	0.010	0.410
2020/01/31 02:07:43.4	93.770	-0.460	-0.080	0.440
2020/01/31 02:07:43.5	93.760	-0.430	-0.170	0.470
2020/01/31 02:07:43.6	93.760	-0.410	-0.260	0.500
2020/01/31 02:07:43.7	93.750	-0.390	-0.350	0.530
2020/01/31 02:07:43.8	93.740	-0.360	-0.440	0.560
2020/01/31 02:07:43.9	93.740	-0.330	-0.520	0.600
2020/01/31 02:07:44.0	93.730	-0.300	-0.610	0.630
2020/01/31 02:07:44.1	93.740	-0.270	-0.690	0.670
2020/01/31 02:07:44.2	93.730	-0.240	-0.770	0.710
2020/01/31 02:07:44.3	93.720	-0.210	-0.840	0.750
2020/01/31 02:07:44.4	93.720	-0.170	-0.910	0.790
2020/01/31 02:07:44.5	93.710	-0.140	-0.980	0.830
2020/01/31 02:07:44.6	93.710	-0.100	-1.040	0.870
2020/01/31 02:07:44.7	93.700	-0.060	-1.100	0.910
2020/01/31 02:07:44.8	93.700	-0.020	-1.150	0.950
2020/01/31 02:07:44.9	93.700	0.020	-1.200	0.990
2020/01/31 02:07:45.0	93.700	0.060	-1.230	1.030
2020/01/31 02:07:45.1	93.720	0.110	-1.270	1.070
2020/01/31 02:07:45.2	93.720	0.150	-1.290	1.110
2020/01/31 02:07:45.3	93.720	0.190	-1.310	1.140
2020/01/31 02:07:45.4	93.720	0.230	-1.330	1.180
2020/01/31 02:07:45.5	93.720	0.270	-1.340	1.210
2020/01/31 02:07:45.6	93.730	0.310	-1.340	1.240
2020/01/31 02:07:45.7	93.740	0.360	-1.330	1.270
2020/01/31 02:07:45.8	93.740	0.400	-1.320	1.290
2020/01/31 02:07:45.9	93.750	0.430	-1.300	1.310
2020/01/31 02:07:46.0	93.760	0.470	-1.270	1.330
2020/01/31 02:07:46.1	93.780	0.510	-1.240	1.360
2020/01/31 02:07:46.2	93.790	0.540	-1.200	1.370
2020/01/31 02:07:46.3	93.800	0.570	-1.160	1.380
2020/01/31 02:07:46.4	93.820	0.600	-1.100	1.390
2020/01/31 02:07:46.5	93.830	0.630	-1.050	1.400
2020/01/31 02:07:46.6	93.840	0.650	-0.990	1.400
2020/01/31 02:07:46.7	93.860	0.670	-0.920	1.410
2020/01/31 02:07:46.8	93.870	0.690	-0.850	1.410
2020/01/31 02:07:46.9	93.880	0.710	-0.770	1.410
2020/01/31 02:07:47.0	93.900	0.720	-0.690	1.410
2020/01/31 02:07:47.1	93.900	0.730	-0.610	1.400
2020/01/31 02:07:47.2	93.910	0.740	-0.530	1.390
2020/01/31 02:07:47.3	93.920	0.740	-0.440	1.390
2020/01/31 02:07:47.4	93.930	0.740	-0.350	1.380
2020/01/31 02:07:47.5	93.930	0.730	-0.250	1.370
2020/01/31 02:07:47.6	93.940	0.730	-0.160	1.370
2020/01/31 02:07:47.7	93.940	0.710	-0.060	1.360
2020/01/31 02:07:47.8	93.940	0.700	0.030	1.350
2020/01/31 02:07:47.9	93.950	0.680	0.120	1.340
2020/01/31 02:07:48.0	93.950	0.660	0.220	1.340
2020/01/31 02:07:48.1	93.950	0.630	0.310	1.330
2020/01/31 02:07:48.2	93.940	0.600	0.400	1.330
2020/01/31 02:07:48.3	93.940	0.570	0.490	1.320
2020/01/31 02:07:48.4	93.940	0.530	0.570	1.310
2020/01/31 02:07:48.5	93.930	0.490	0.650	1.300
2020/01/31 02:07:48.6	93.920	0.450	0.730	1.300
2020/01/31 02:07:48.7	93.910	0.410	0.800	1.290
2020/01/31 02:07:48.8	93.910	0.360	0.870	1.280
2020/01/31 02:07:48.9	93.900	0.310	0.930	1.270
2020/01/31 02:07:49.0	93.890	0.260	0.980	1.260
2020/01/31 02:07:49.1	93.870	0.210	1.030	1.250
2020/01/31 02:07:49.2	93.860	0.160	1.080	1.240
2020/01/31 02:07:49.3	93.850	0.100	1.110	1.230
2020/01/31 02:07:49.4	93.840	0.050	1.140	1.220
2020/01/31 02:07:49.5	93.830	-0.000	1.170	1.210
2020/01/31 02:07:49.6	93.810	-0.060	1.180	1.200
2020/01/31 02:07:49.7	93.800	-0.110	1.190	1.180
2020/01/31 02:07:49.8	93.790	-0.160	1.190	1.170
2020/01/31 02:07:49.9	93.780	-0.210	1.190	1.150
2020/01/31 02:07:50.0	93.770	-0.260	1.180	1.140
2020/01/31 02:07:50.1	93.750	-0.310	1.160	1.120
2020/01/31 02:07:50.2	93.740	-0.360	1.140	1.100
2020/01/31 02:07:50.3	93.730	-0.410	1.110	1.080
2020/01/31 02:07:50.4	93.720	-0.450	1.070	1.060
2020/01/31 02:07:50.5	93.710	-0.490	1.030	1.030
2020/01/31 02:07:50.6	93.700	-0.530	0.980	1.010
2020/01/31 02:07:50.7	93.700	-0.570	0.930	0.980
2020/01/31 02:07:50.8	93.690	-0.600	0.880	0.960
2020/01/31 02:07:50.9	93.680	-0.630	0.820	0.930
2020/01/31 02:07:51.0	93.680	-0.660	0.760	0.910
2020/01/31 02:07:51.1	93.670	-0.680	0.680	0.880
2020/01/31 02:07:51.2	93.660	-0.700	0.610	0.860
2020/01/31 02:07:51.3	93.650	-0.720	0.540	0.840
2020/01/31 02:07:51.4	93.650	-0.730	0.460	0.810
2020/01/31 02:07:51.5	93.640	-0.740	0.380	0.790
2020/01/31 02:07:51.6	93.630	-0.750	0.300	0.770
2020/01/31 02:07:51.7	93.630	-0.750	0.210	0.750
2020/01/31 02:07:51.8	93.620	-0.750	0.130	0.730
2020/01/31 02:07:51.9	93.610	-0.750	0.040	0.710
2020/01/31 02:07:52.0	93.600	-0.740	-0.060	0.700
2020/01/31 02:07:52.1	93.610	-0.720	-0.150	0.690
2020/01/31 02:07:52.2	93.600	-0.710	-0.240	0.680
2020/01/31 02:07:52.3	93.590	-0.690	-0.340	0.660
2020/01/31 02:07:52.4	93.590	-0.660	-0.430	0.650
2020/01/31 02:07:52.5	93.580	-0.630	-0.530	0.640
2020/01/31 02:07:52.6	93.580	-0.600	-0.630	0.630
2020/01/31 02:07:52.7	93.570	-0.570	-0.720	0.620
2020/01/31 02:07:52.8	93.570	-0.530	-0.820	0.610
2020/01/31 02:07:52.9	93.570	-0.490	-0.910	0.600
2020/01/31 02:07:53.0	93.570	-0.450	-1.000	0.590
2020/01/31 02:07:53.1	93.570	-0.410	-1.100	0.570
2020/01/31 02:07:53.2	93.580	-0.360	-1.180	0.560
2020/01/31 02:07:53.3	93.580	-0.320	-1.260	0.550
2020/01/31 02:07:53.4	93.590	-0.270	-1.340	0.540
2020/01/31 02:07:53.5	93.600	-0.220	-1.410	0.520
2020/01/31 02:07:53.6	93.610	-0.180	-1.480	0.510
2020/01/31 02:07:53.7	93.630	-0.130	-1.540	0.500
2020/01/31 02:07:53.8	93.640	-0.080	-1.590	0.490
2020/01/31 02:07:53.9	93.650	-0.040	-1.640	0.480
2020/01/31 02:07:54.0	93.670	0.010	-1.680	0.470
2020/01/31 02:07:54.1	93.680	0.050	-1.700	0.470
2020/01/31 02:07:54.2	93.690	0.090	-1.720	0.470
2020/01/31 02:07:54.3	93.700	0.130	-1.740	0.470
2020/01/31 02:07:54.4	93.720	0.170	-1.740	0.470
2020/01/31 02:07:54.5	93.730	0.200	-1.730	0.480
2020/01/31 02:07:54.6	93.740	0.230	-1.710	0.480
2020/01/31 02:07:54.7	93.740	0.260	-1.690	0.490
2020/01/31 02:07:54.8	93.750	0.280	-1.650	0.500
2020/01/31 02:07:54.9	93.760	0.300	-1.610	0.520
2020/01/31 02:07:55.0	93.760	0.310	-1.550	0.540
2020/01/31 02:07:55.1	93.760	0.330	-1.490	0.560
2020/01/31 02:07:55.2	93.760	0.340	-1.420	0.580
2020/01/31 02:07:55.3	93.760	0.340	-1.340	0.600
2020/01/31 02:07:55.4	93.750	0.340	-1.260	0.620
2020/01/31 02:07:55.5	93.740	0.340	-1.160	0.640
2020/01/31 02:07:55.6	93.730	0.340	-1.070	0.670
2020/01/31 02:07:55.7	93.720	0.330	-0.960	0.690
2020/01/31 02:07:55.8	93.700	0.330	-0.850	0.710
2020/01/31 02:07:55.9	93.690	0.310	-0.740	0.730
2020/01/31 02:07:56.0	93.670	0.300	-0.630	0.750
2020/01/31 02:07:56.1	93.660	0.280	-0.510	0.770
2020/01/31 02:07:56.2	93.640	0.270	-0.390	0.790
2020/01/31 02:07:56.3	93.620	0.250	-0.260	0.800
2020/01/31 02:07:56.4	93.600	0.220	-0.140	0.820
2020/01/31 02:07:56.5	93.570	0.200	-0.020	0.830
2020/01/31 02:07:56.6	93.550	0.180	0.100	0.840
2020/01/31 02:07:56.7	93.520	0.160	0.220	0.840
2020/01/31 02:07:56.8	93.500	0.130	0.340	0.850
2020/01/31 02:07:56.9	93.470	0.110	0.450	0.850
2020/01/31 02:07:57.0	93.440	0.080	0.560	0.850
2020/01/31 02:07:57.1	93.420	0.060	0.670	0.840
2020/01/31 02:07:57.2	93.390	0.040	0.770	0.830
2020/01/31 02:07:57.3	93.370	0.010	0.860	0.820
2020/01/31 02:07:57.4	93.350	-0.010	0.950	0.810
2020/01/31 02:07:57.5	93.330	-0.030	1.030	0.790
2020/01/31 02:07:57.6	93.310	-0.050	1.110	0.780
2020/01/31 02:07:57.7	93.290	-0.070	1.170	0.750
2020/01/31 02:07:57.8	93.270	-0.080	1.230	0.730
2020/01/31 02:07:57.9	93.260	-0.100	1.280	0.710
2020/01/31 02:07:58.0	93.250	-0.110	1.310	0.680
2020/01/31 02:07:58.1	93.230	-0.120	1.350	0.650
2020/01/31 02:07:58.2	93.220	-0.130	1.360	0.620
2020/01/31 02:07:58.3	93.210	-0.130	1.370	0.590
2020/01/31 02:07:58.4	93.210	-0.130	1.370	0.560
2020/01/31 02:07:58.5	93.200	-0.130	1.350	0.530
2020/01/31 02:07:58.6	93.200	-0.130	1.330	0.490
2020/01/31 02:07:58.7	93.200	-0.120	1.290	0.460
2020/01/31 02:07:58.8	93.200	-0.120	1.240	0.430
2020/01/31 02:07:58.9	93.210	-0.100	1.190	0.400
2020/01/31 02:07:59.0	93.210	-0.090	1.120	0.370
2020/01/31 02:07:59.1	93.210	-0.070	1.040	0.340
2020/01/31 02:07:59.2	93.210	-0.060	0.950	0.310
2020/01/31 02:07:59.3	93.220	-0.040	0.860	0.280
2020/01/31 02:07:59.4	93.230	-0.010	0.760	0.250
2020/01/31 02:07:59.5	93.250	0.010	0.650	0.220
2020/01/31 02:07:59.6	93.260	0.030	0.540	0.190
2020/01/31 02:07:59.7	93.280	0.060	0.420	0.170
2020/01/31 02:07:59.8	93.290	0.090	0.300	0.140
2020/01/31 02:07:59.9	93.310	0.110	0.180	0.110
2020/01/31 02:08:00.0	93.330	0.140	0.050	0.080
2020/01/31 02:08:00.1	93.340	0.170	-0.070	0.060
2020/01/31 02:08:00.2	93.370	0.200	-0.200	0.030
2020/01/31 02:08:00.3	93.390	0.220	-0.320	0.010
2020/01/31 02:08:00.4	93.410	0.250	-0.440	-0.020
2020/01/31 02:08:00.5	93.440	0.280	-0.560	-0.040
2020/01/31 02:08:00.6	93.460	0.300	-0.670	-0.060
2020/01/31 02:08:00.7	93.490	0.330	-0.780	-0.080
2020/01/31 02:08:00.8	93.510	0.350	-0.880	-0.100
2020/01/31 02:08:00.9	93.540	0.370	-0.970	-0.120
2020/01/31 02:08:01.0	93.560	0.380	-1.060	-0.140
2020/01/31 02:08:01.1	93.590	0.400	-1.140	-0.150
2020/01/31 02:08:01.2	93.620	0.410	-1.200	-0.160
2020/01/31 02:08:01.3	93.640	0.430	-1.260	-0.160
2020/01/31 02:08:01.4	93.670	0.430	-1.310	-0.170
2020/01/31 02:08:01.5	93.690	0.440	-1.350	-0.170
2020/01/31 02:08:01.6	93.710	0.440	-1.380	-0.160
2020/01/31 02:08:01.7	93.730	0.440	-1.400	-0.150
2020/01/31 02:08:01.8	93.750	0.440	-1.410	-0.140
2020/01/31 02:08:01.9	93.770	0.440	-1.410	-0.120
2020/01/31 02:08:02.0	93.790	0.430	-1.390	-0.090
2020/01/31 02:08:02.1	93.800	0.420	-1.370	-0.060
2020/01/31 02:08:02.2	93.810	0.400	-1.340	-0.020
2020/01/31 02:08:02.3	93.820	0.390	-1.300	0.020
2020/01/31 02:08:02.4	93.830	0.370	-1.240	0.070
2020/01/31 02:08:02.5	93.840	0.340	-1.180	0.120
2020/01/31 02:08:02.6	93.840	0.320	-1.110	0.180
2020/01/31 02:08:02.7	93.840	0.290	-1.030	0.250
2020/01/31 02:08:02.8	93.830	0.260	-0.950	0.320
2020/01/31 02:08:02.9	93.830	0.230	-0.850	0.390
2020/01/31 02:08:03.0	93.820	0.190	-0.760	0.470
2020/01/31 02:08:03.1	93.810	0.150	-0.650	0.550
2020/01/31 02:08:03.2	93.800	0.110	-0.550	0.640
2020/01/31 02:08:03.3	93.780	0.070	-0.440	0.720
2020/01/31 02:08:03.4	93.770	0.030	-0.330	0.810
2020/01/31 02:08:03.5	93.750	-0.020	-0.210	0.910
2020/01/31 02:08:03.6	93.730	-0.060	-0.100	1.000
2020/01/31 02:08:03.7	93.710	-0.110	0.010	1.090
2020/01/31 02:08:03.8	93.690	-0.160	0.120	1.180
2020/01/31 02:08:03.9	93.660	-0.200	0.230	1.280
2020/01/31 02:08:04.0	93.640	-0.250	0.330	1.370
2020/01/31 02:08:04.1	93.610	-0.290	0.430	1.460
2020/01/31 02:08:04.2	93.590	-0.330	0.520	1.550
2020/01/31 02:08:04.3	93.560	-0.370	0.610	1.630
2020/01/31 02:08:04.4	93.540	-0.410	0.690	1.720
2020/01/31 02:08:04.5	93.520	-0.450	0.770	1.790
2020/01/31 02:08:04.6	93.500	-0.490	0.830	1.870
2020/01/31 02:08:04.7	93.470	-0.520	0.890	1.940
2020/01/31 02:08:04.8	93.460	-0.550	0.940	2.000
2020/01/31 02:08:04.9	93.440	-0.570	0.970	2.060
2020/01/31 02:08:05.0	93.420	-0.590	1.000	2.120
2020/01/31 02:08:05.1	93.410	-0.610	1.020	2.160
2020/01/31 02:08:05.2	93.400	-0.630	1.030	2.210
2020/01/31 02:08:05.3	93.390	-0.640	1.030	2.250
2020/01/31 02:08:05.4	93.370	-0.640	1.010	2.280
2020/01/31 02:08:05.5	93.360	-0.640	0.990	2.300
2020/01/31 02:08:05.6	93.360	-0.640	0.960	2.320
2020/01/31 02:08:05.7	93.350	-0.630	0.910	2.340
2020/01/31 02:08:05.8	93.340	-0.620	0.860	2.350
2020/01/31 02:08:05.9	93.340	-0.600	0.800	2.350
2020/01/31 02:08:06.0	93.340	-0.580	0.730	2.350
2020/01/31 02:08:06.1	93.350	-0.550	0.650	2.350
2020/01/31 02:08:06.2	93.350	-0.520	0.570	2.340
2020/01/31 02:08:06.3	93.350	-0.490	0.480	2.330
2020/01/31 02:08:06.4	93.350	-0.450	0.380	2.310
2020/01/31 02:08:06.5	93.360	-0.410	0.280	2.290
2020/01/31 02:08:06.6	93.360	-0.360	0.180	2.260
2020/01/31 02:08:06.7	93.370	-0.320	0.070	2.230
2020/01/31 02:08:06.8	93.380	-0.270	-0.040	2.200
2020/01/31 02:08:06.9	93.380	-0.220	-0.150	2.160
2020/01/31 02:08:07.0	93.390	-0.170	-0.260	2.120
2020/01/31 02:08:07.1	93.400	-0.110	-0.370	2.070
2020/01/31 02:08:07.2	93.410	-0.060	-0.470	2.030
2020/01/31 02:08:07.3	93.420	-0.010	-0.580	1.980
2020/01/31 02:08:07.4	93.430	0.050	-0.680	1.930
2020/01/31 02:08:07.5	93.440	0.100	-0.770	1.880
2020/01/31 02:08:07.6	93.450	0.150	-0.870	1.830
2020/01/31 02:08:07.7	93.460	0.200	-0.950	1.770
2020/01/31 02:08:07.8	93.480	0.250	-1.030	1.710
2020/01/31 02:08:07.9	93.490	0.290	-1.100	1.660
2020/01/31 02:08:08.0	93.500	0.340	-1.160	1.600
2020/01/31 02:08:08.1	93.530	0.380	-1.210	1.540
2020/01/31 02:08:08.2	93.550	0.410	-1.260	1.480
2020/01/31 02:08:08.3	93.560	0.450	-1.290	1.420
2020/01/31 02:08:08.4	93.570	0.480	-1.320	1.360
2020/01/31 02:08:08.5	93.580	0.510	-1.340	1.300
2020/01/31 02:08:08.6	93.600	0.530	-1.350	1.240
2020/01/31 02:08:08.7	93.610	0.550	-1.350	1.190
2020/01/31 02:08:08.8	93.620	0.560	-1.340	1.130
2020/01/31 02:08:08.9	93.630	0.570	-1.320	1.070
2020/01/31 02:08:09.0	93.640	0.580	-1.290	1.020
2020/01/31 02:08:09.1	93.640	0.580	-1.260	0.970
2020/01/31 02:08:09.2	93.650	0.580	-1.210	0.920
2020/01/31 02:08:09.3	93.660	0.570	-1.160	0.870
2020/01/31 02:08:09.4	93.670	0.560	-1.100	0.820
2020/01/31 02:08:09.5	93.680	0.550	-1.030	0.770
2020/01/31 02:08:09.6	93.680	0.530	-0.960	0.730
2020/01/31 02:08:09.7	93.690	0.510	-0.880	0.680
2020/01/31 02:08:09.8	93.700	0.490	-0.800	0.640
2020/01/31 02:08:09.9	93.700	0.460	-0.710	0.600
2020/01/31 02:08:10.0	93.710	0.430	-0.620	0.560
2020/01/31 02:08:10.1	93.720	0.400	-0.520	0.520
2020/01/31 02:08:10.2	93.720	0.360	-0.420	0.490
2020/01/31 02:08:10.3	93.730	0.330	-0.330	0.450
2020/01/31 02:08:10.4	93.730	0.290	-0.230	0.410
2020/01/31 02:08:10.5	93.730	0.250	-0.130	0.380
2020/01/31 02:08:10.6	93.740	0.210	-0.030	0.350
2020/01/31 02:08:10.7	93.740	0.160	0.070	0.320
2020/01/31 02:08:10.8	93.740	0.120	0.160	0.290
2020/01/31 02:08:10.9	93.740	0.080	0.250	0.260
2020/01/31 02:08:11.0	93.740	0.040	0.340	0.230
2020/01/31 02:08:11.1	93.740	-0.010	0.430	0.210
2020/01/31 02:08:11.2	93.740	-0.050	0.510	0.190
2020/01/31 02:08:11.3	93.740	-0.090	0.590	0.170
2020/01/31 02:08:11.4	93.740	-0.130	0.660	0.150
2020/01/31 02:08:11.5	93.740	-0.170	0.720	0.130
2020/01/31 02:08:11.6	93.730	-0.200	0.780	0.120
2020/01/31 02:08:11.7	93.730	-0.240	0.830	0.100
2020/01/31 02:08:11.8	93.730	-0.270	0.880	0.090
2020/01/31 02:08:11.9	93.730	-0.300	0.910	0.080
2020/01/31 02:08:12.0	93.730	-0.330	0.940	0.070
2020/01/31 02:08:12.1	93.720	-0.350	0.960	0.060
2020/01/31 02:08:12.2	93.720	-0.370	0.980	0.050
2020/01/31 02:08:12.3	93.710	-0.390	0.980	0.050
2020/01/31 02:08:12.4	93.710	-0.410	0.980	0.040
2020/01/31 02:08:12.5	93.710	-0.420	0.970	0.040
2020/01/31 02:08:12.6	93.710	-0.430	0.950	0.040
2020/01/31 02:08:12.7	93.710	-0.430	0.920	0.040
2020/01/31 02:08:12.8	93.700	-0.440	0.890	0.040
2020/01/31 02:08:12.9	93.700	-0.440	0.850	0.040
2020/01/31 02:08:13.0	93.700	-0.430	0.800	0.040
2020/01/31 02:08:13.1	93.700	-0.420	0.750	0.050
2020/01/31 02:08:13.2	93.700	-0.410	0.690	0.050
2020/01/31 02:08:13.3	93.690	-0.400	0.620	0.060
2020/01/31 02:08:13.4	93.690	-0.380	0.550	0.070
2020/01/31 02:08:13.5	93.680	-0.360	0.480	0.070
2020/01/31 02:08:13.6	93.680	-0.340	0.400	0.080
2020/01/31 02:08:13.7	93.680	-0.310	0.320	0.090
2020/01/31 02:08:13.8	93.670	-0.280	0.230	0.100
2020/01/31 02:08:13.9	93.670	-0.250	0.140	0.110
2020/01/31 02:08:14.0	93.670	-0.220	0.060	0.120
2020/01/31 02:08:14.1	93.650	-0.190	-0.040	0.130
2020/01/31 02:08:14.2	93.650	-0.150	-0.130	0.140
2020/01/31 02:08:14.3	93.650	-0.120	-0.220	0.150
2020/01/31 02:08:14.4	93.650	-0.080	-0.310	0.160
2020/01/31 02:08:14.5	93.660	-0.040	-0.400	0.180
2020/01/31 02:08:14.6	93.660	-0.000	-0.490	0.190
2020/01/31 02:08:14.7	93.670	0.030	-0.570	0.200
2020/01/31 02:08:14.8	93.670	0.070	-0.650	0.210
2020/01/31 02:08:14.9	93.680	0.110	-0.730	0.220
2020/01/31 02:08:15.0	93.690	0.140	-0.810	0.230
2020/01/31 02:08:15.1	93.690	0.180	-0.880	0.250
2020/01/31 02:08:15.2	93.700	0.210	-0.940	0.260
2020/01/31 02:08:15.3	93.710	0.240	-1.000	0.280
2020/01/31 02:08:15.4	93.720	0.270	-1.060	0.290
2020/01/31 02:08:15.5	93.730	0.300	-1.110	0.310
2020/01/31 02:08:15.6	93.750	0.330	-1.150	0.330
2020/01/31 02:08:15.7	93.760	0.350	-1.180	0.350
2020/01/31 02:08:15.8	93.780	0.370	-1.210	0.370
2020/01/31 02:08:15.9	93.790	0.380	-1.240	0.390
2020/01/31 02:08:16.0	93.810	0.400	-1.250	0.410
2020/01/31 02:08:16.1	93.810	0.410	-1.260	0.440
2020/01/31 02:08:16.2	93.830	0.420	-1.260	0.460
2020/01/31 02:08:16.3	93.850	0.420	-1.250	0.490
2020/01/31 02:08:16.4	93.860	0.420	-1.240	0.520
2020/01/31 02:08:16.5	93.880	0.420	-1.220	0.550
2020/01/31 02:08:16.6	93.890	0.410	-1.190	0.580
2020/01/31 02:08:16.7	93.900	0.410	-1.160	0.610
2020/01/31 02:08:16.8	93.920	0.390	-1.120	0.640
2020/01/31 02:08:16.9	93.930	0.380	-1.070	0.680
2020/01/31 02:08:17.0	93.940	0.360	-1.020	0.710
2020/01/31 02:08:17.1	93.940	0.340	-0.960	0.750
2020/01/31 02:08:17.2	93.940	0.320	-0.900	0.790
2020/01/31 02:08:17.3	93.950	0.290	-0.830	0.830
2020/01/31 02:08:17.4	93.950	0.270	-0.750	0.870
2020/01/31 02:08:17.5	93.960	0.240	-0.670	0.920
2020/01/31 02:08:17.6	93.960	0.200	-0.590	0.960
2020/01/31 02:08:17.7	93.960	0.170	-0.500	1.010
2020/01/31 02:08:17.8	93.950	0.140	-0.410	1.050
2020/01/31 02:08:17.9	93.950	0.100	-0.310	1.100
2020/01/31 02:08:18.0	93.950	0.060	-0.220	1.140
2020/01/31 02:08:18.1	93.930	0.020	-0.120	1.200
2020/01/31 02:08:18.2	93.920	-0.020	-0.020	1.240
2020/01/31 02:08:18.3	93.910	-0.060	0.080	1.290
2020/01/31 02:08:18.4	93.900	-0.090	0.170	1.330
2020/01/31 02:08:18.5	93.880	-0.130	0.270	1.380
2020/01/31 02:08:18.6	93.870	-0.170	0.370	1.420
2020/01/31 02:08:18.7	93.860	-0.210	0.460	1.460
2020/01/31 02:08:18.8	93.840	-0.250	0.550	1.500
2020/01/31 02:08:18.9	93.830	-0.280	0.630	1.540
2020/01/31 02:08:19.0	93.820	-0.320	0.710	1.570
2020/01/31 02:08:19.1	93.790	-0.350	0.780	1.610
2020/01/31 02:08:19.2	93.780	-0.380	0.850	1.640
2020/01/31 02:08:19.3	93.760	-0.400	0.910	1.660
2020/01/31 02:08:19.4	93.750	-0.430	0.960	1.680
2020/01/31 02:08:19.5	93.740	-0.450	1.010	1.700
2020/01/31 02:08:19.6	93.730	-0.470	1.050	1.720
2020/01/31 02:08:19.7	93.720	-0.480	1.070	1.730
2020/01/31 02:08:19.8	93.710	-0.500	1.090	1.730
2020/01/31 02:08:19.9	93.700	-0.500	1.100	1.740
2020/01/31 02:08:20.0	93.700	-0.510	1.100	1.730
2020/01/31 02:08:20.1	93.690	-0.510	1.090	1.730
2020/01/31 02:08:20.2	93.690	-0.500	1.070	1.720
2020/01/31 02:08:20.3	93.690	-0.500	1.040	1.710
2020/01/31 02:08:20.4	93.690	-0.480	1.000	1.680
2020/01/31 02:08:20.5	93.690	-0.470	0.950	1.660
2020/01/31 02:08:20.6	93.700	-0.450	0.900	1.630
2020/01/31 02:08:20.7	93.700	-0.420	0.830	1.590
2020/01/31 02:08:20.8	93.710	-0.400	0.750	1.550
2020/01/31 02:08:20.9	93.730	-0.370	0.670	1.510
2020/01/31 02:08:21.0	93.740	-0.330	0.580	1.460
2020/01/31 02:08:21.1	93.770	-0.300	0.490	1.410
2020/01/31 02:08:21.2	93.790	-0.260	0.390	1.350
2020/01/31 02:08:21.3	93.810	-0.220	0.280	1.300
2020/01/31 02:08:21.4	93.830	-0.170	0.180	1.230
2020/01/31 02:08:21.5	93.850	-0.130	0.070	1.170
2020/01/31 02:08:21.6	93.880	-0.080	-0.040	1.100
2020/01/31 02:08:21.7	93.910	-0.040	-0.150	1.040
2020/01/31 02:08:21.8	93.940	0.010	-0.270	0.970
2020/01/31 02:08:21.9	93.970	0.060	-0.370	0.900
2020/01/31 02:08:22.0	94.000	0.100	-0.480	0.830
2020/01/31 02:08:22.1	94.030	0.150	-0.580	0.770
2020/01/31 02:08:22.2	94.070	0.190	-0.680	0.700
2020/01/31 02:08:22.3	94.100	0.230	-0.770	0.640
2020/01/31 02:08:22.4	94.140	0.270	-0.850	0.570
2020/01/31 02:08:22.5	94.170	0.310	-0.930	0.520
2020/01/31 02:08:22.6	94.200	0.340	-1.000	0.460
2020/01/31 02:08:22.7	94.230	0.380	-1.050	0.410
2020/01/31 02:08:22.8	94.270	0.410	-1.100	0.360
2020/01/31 02:08:22.9	94.300	0.430	-1.140	0.320
2020/01/31 02:08:23.0	94.320	0.450	-1.170	0.280
2020/01/31 02:08:23.1	94.350	0.470	-1.190	0.250
2020/01/31 02:08:23.2	94.370	0.480	-1.200	0.220
2020/01/31 02:08:23.3	94.390	0.490	-1.190	0.190
2020/01/31 02:08:23.4	94.410	0.500	-1.180	0.170
2020/01/31 02:08:23.5	94.430	0.500	-1.160	0.160
2020/01/31 02:08:23.6	94.440	0.500	-1.130	0.150
2020/01/31 02:08:23.7	94.450	0.500	-1.090	0.140
2020/01/31 02:08:23.8	94.450	0.490	-1.040	0.140
2020/01/31 02:08:23.9	94.450	0.480	-0.990	0.150
2020/01/31 02:08:24.0	94.450	0.470	-0.930	0.160
2020/01/31 02:08:24.1	94.440	0.450	-0.860	0.170
2020/01/31 02:08:24.2	94.430	0.440	-0.790	0.190
2020/01/31 02:08:24.3	94.410	0.420	-0.720	0.210
2020/01/31 02:08:24.4	94.400	0.400	-0.640	0.240
2020/01/31 02:08:24.5	94.380	0.370	-0.570	0.270
2020/01/31 02:08:24.6	94.350	0.350	-0.490	0.300
2020/01/31 02:08:24.7	94.330	0.330	-0.410	0.330
2020/01/31 02:08:24.8	94.300	0.300	-0.340	0.360
2020/01/31 02:08:24.9	94.270	0.280	-0.260	0.400
2020/01/31 02:08:25.0	94.230	0.250	-0.190	0.430
2020/01/31 02:08:25.1	94.210	0.230	-0.130	0.470
2020/01/31 02:08:25.2	94.180	0.210	-0.060	0.510
2020/01/31 02:08:25.3	94.140	0.190	-0.010	0.540
2020/01/31 02:08:25.4	94.100	0.170	0.040	0.580
2020/01/31 02:08:25.5	94.060	0.150	0.090	0.610
2020/01/31 02:08:25.6	94.030	0.130	0.120	0.640
2020/01/31 02:08:25.7	93.990	0.120	0.150	0.670
2020/01/31 02:08:25.8	93.950	0.100	0.180	0.700
2020/01/31 02:08:25.9	93.920	0.090	0.190	0.730
2020/01/31 02:08:26.0	93.880	0.080	0.200	0.750
2020/01/31 02:08:26.1	93.850	0.080	0.210	0.770
2020/01/31 02:08:26.2	93.820	0.070	0.200	0.790
2020/01/31 02:08:26.3	93.790	0.070	0.190	0.810
2020/01/31 02:08:26.4	93.760	0.060	0.180	0.820
2020/01/31 02:08:26.5	93.740	0.060	0.160	0.830
2020/01/31 02:08:26.6	93.710	0.060	0.130	0.840
2020/01/31 02:08:26.7	93.690	0.060	0.100	0.850
2020/01/31 02:08:26.8	93.680	0.060	0.070	0.860
2020/01/31 02:08:26.9	93.660	0.060	0.040	0.860
2020/01/31 02:08:27.0	93.650	0.060	0.000	0.860
2020/01/31 02:08:27.1	93.650	0.060	-0.030	0.860
2020/01/31 02:08:27.2	93.640	0.060	-0.070	0.850
2020/01/31 02:08:27.3	93.640	0.060	-0.100	0.840
2020/01/31 02:08:27.4	93.640	0.050	-0.140	0.830
2020/01/31 02:08:27.5	93.640	0.050	-0.170	0.820
2020/01/31 02:08:27.6	93.650	0.040	-0.190	0.810
2020/01/31 02:08:27.7	93.650	0.040	-0.220	0.790
2020/01/31 02:08:27.8	93.660	0.030	-0.230	0.770
2020/01/31 02:08:27.9	93.680	0.010	-0.250	0.750
2020/01/31 02:08:28.0	93.690	0.000	-0.260	0.730
2020/01/31 02:08:28.1	93.730	-0.010	-0.260	0.710
2020/01/31 02:08:28.2	93.750	-0.030	-0.260	0.690
2020/01/31 02:08:28.3	93.770	-0.050	-0.250	0.670
2020/01/31 02:08:28.4	93.800	-0.070	-0.240	0.640
2020/01/31 02:08:28.5	93.830	-0.090	-0.220	0.620
2020/01/31 02:08:28.6	93.860	-0.120	-0.200	0.590
2020/01/31 02:08:28.7	93.890	-0.140	-0.180	0.570
2020/01/31 02:08:28.8	93.930	-0.170	-0.150	0.550
2020/01/31 02:08:28.9	93.960	-0.200	-0.110	0.520
2020/01/31 02:08:29.0	94.000	-0.230	-0.080	0.500
2020/01/31 02:08:29.1	94.040	-0.260	-0.040	0.480
2020/01/31 02:08:29.2	94.090	-0.290	0.000	0.460
2020/01/31 02:08:29.3	94.130	-0.320	0.040	0.440
2020/01/31 02:08:29.4	94.180	-0.350	0.090	0.420
2020/01/31 02:08:29.5	94.230	-0.380	0.130	0.410
2020/01/31 02:08:29.6	94.280	-0.410	0.180	0.390
2020/01/31 02:08:29.7	94.330	-0.440	0.220	0.380
2020/01/31 02:08:29.8	94.380	-0.470	0.260	0.370
2020/01/31 02:08:29.9	94.430	-0.500	0.290	0.360
2020/01/31 02:08:30.0	94.480	-0.520	0.330	0.350
2020/01/31 02:08:30.1	94.550	-0.550	0.360	0.360
2020/01/31 02:08:30.2	94.600	-0.570	0.390	0.350
2020/01/31 02:08:30.3	94.650	-0.590	0.410	0.360
2020/01/31 02:08:30.4	94.700	-0.600	0.430	0.360
2020/01/31 02:08:30.5	94.740	-0.610	0.440	0.370
2020/01/31 02:08:30.6	94.790	-0.620	0.450	0.380
2020/01/31 02:08:30.7	94.830	-0.630	0.450	0.390
2020/01/31 02:08:30.8	94.870	-0.640	0.440	0.400
2020/01/31 02:08:30.9	94.910	-0.640	0.430	0.420
2020/01/31 02:08:31.0	94.940	-0.630	0.410	0.440
2020/01/31 02:08:31.1	94.970	-0.630	0.380	0.460
2020/01/31 02:08:31.2	95.000	-0.620	0.350	0.490
2020/01/31 02:08:31.3	95.020	-0.600	0.320	0.510
2020/01/31 02:08:31.4	95.040	-0.580	0.280	0.540
2020/01/31 02:08:31.5	95.060	-0.560	0.230	0.580
2020/01/31 02:08:31.6	95.070	-0.540	0.190	0.610
2020/01/31 02:08:31.7	95.080	-0.510	0.130	0.650
2020/01/31 02:08:31.8	95.090	-0.480	0.080	0.690
2020/01/31 02:08:31.9	95.090	-0.450	0.020	0.740
2020/01/31 02:08:32.0	95.080	-0.410	-0.030	0.790
2020/01/31 02:08:32.1	95.080	-0.380	-0.090	0.840
2020/01/31 02:08:32.2	95.070	-0.340	-0.150	0.900
2020/01/31 02:08:32.3	95.050	-0.290	-0.210	0.960
2020/01/31 02:08:32.4	95.030	-0.250	-0.270	1.010
2020/01/31 02:08:32.5	95.010	-0.210	-0.330	1.080
2020/01/31 02:08:32.6	94.980	-0.170	-0.390	1.140
2020/01/31 02:08:32.7	94.950	-0.120	-0.440	1.210
2020/01/31 02:08:32.8	94.920	-0.080	-0.490	1.270
2020/01/31 02:08:32.9	94.880	-0.040	-0.540	1.340
2020/01/31 02:08:33.0	94.840	0.010	-0.580	1.410
2020/01/31 02:08:33.1	94.800	0.050	-0.620	1.480
2020/01/31 02:08:33.2	94.760	0.090	-0.660	1.550
2020/01/31 02:08:33.3	94.720	0.120	-0.690	1.620
2020/01/31 02:08:33.4	94.670	0.160	-0.710	1.680
2020/01/31 02:08:33.5	94.630	0.190	-0.730	1.750
2020/01/31 02:08:33.6	94.580	0.220	-0.750	1.810
2020/01/31 02:08:33.7	94.540	0.250	-0.750	1.860
2020/01/31 02:08:33.8	94.500	0.270	-0.760	1.920
2020/01/31 02:08:33.9	94.460	0.290	-0.750	1.970
2020/01/31 02:08:34.0	94.410	0.310	-0.750	2.010
2020/01/31 02:08:34.1	94.360	0.330	-0.730	2.050
2020/01/31 02:08:34.2	94.320	0.340	-0.710	2.080
2020/01/31 02:08:34.3	94.290	0.350	-0.690	2.110
2020/01/31 02:08:34.4	94.260	0.350	-0.660	2.130
2020/01/31 02:08:34.5	94.230	0.360	-0.630	2.150
2020/01/31 02:08:34.6	94.210	0.360	-0.590	2.160
2020/01/31 02:08:34.7	94.190	0.350	-0.560	2.160
2020/01/31 02:08:34.8	94.180	0.350	-0.510	2.160
2020/01/31 02:08:34.9	94.170	0.340	-0.470	2.140
2020/01/31 02:08:35.0	94.160	0.330	-0.430	2.130
2020/01/31 02:08:35.1	94.160	0.320	-0.380	2.100
2020/01/31 02:08:35.2	94.160	0.310	-0.340	2.070
2020/01/31 02:08:35.3	94.160	0.290	-0.290	2.030
2020/01/31 02:08:35.4	94.160	0.280	-0.250	1.990
2020/01/31 02:08:35.5	94.170	0.270	-0.210	1.940
2020/01/31 02:08:35.6	94.190	0.250	-0.170	1.890
2020/01/31 02:08:35.7	94.200	0.230	-0.130	1.830
2020/01/31 02:08:35.8	94.220	0.220	-0.090	1.760
2020/01/31 02:08:35.9	94.240	0.200	-0.060	1.700
2020/01/31 02:08:36.0	94.260	0.190	-0.040	1.620
2020/01/31 02:08:36.1	94.270	0.180	-0.020	1.550
2020/01/31 02:08:36.2	94.300	0.170	0.000	1.470
2020/01/31 02:08:36.3	94.330	0.160	0.010	1.390
2020/01/31 02:08:36.4	94.360	0.150	0.020	1.300
2020/01/31 02:08:36.5	94.390	0.140	0.030	1.210
2020/01/31 02:08:36.6	94.420	0.140	0.030	1.120
2020/01/31 02:08:36.7	94.460	0.140	0.020	1.030
2020/01/31 02:08:36.8	94.490	0.140	0.010	0.940
2020/01/31 02:08:36.9	94.530	0.140	-0.000	0.840
2020/01/31 02:08:37.0	94.570	0.140	-0.020	0.750
2020/01/31 02:08:37.1	94.600	0.150	-0.040	0.650
2020/01/31 02:08:37.2	94.640	0.160	-0.060	0.550
2020/01/31 02:08:37.3	94.680	0.170	-0.090	0.460
2020/01/31 02:08:37.4	94.720	0.190	-0.120	0.360
2020/01/31 02:08:37.5	94.760	0.200	-0.160	0.270
2020/01/31 02:08:37.6	94.800	0.220	-0.190	0.180
2020/01/31 02:08:37.7	94.840	0.240	-0.230	0.090
2020/01/31 02:08:37.8	94.880	0.250	-0.270	-0.000
2020/01/31 02:08:37.9	94.920	0.270	-0.310	-0.090
2020/01/31 02:08:38.0	94.960	0.290	-0.340	-0.170
2020/01/31 02:08:38.1	94.990	0.310	-0.380	-0.250
2020/01/31 02:08:38.2	95.030	0.340	-0.420	-0.330
2020/01/31 02:08:38.3	95.070	0.350	-0.450	-0.400
2020/01/31 02:08:38.4	95.100	0.370	-0.480	-0.460
2020/01/31 02:08:38.5	95.130	0.390	-0.500	-0.520
2020/01/31 02:08:38.6	95.170	0.410	-0.530	-0.580
2020/01/31 02:08:38.7	95.190	0.420	-0.540	-0.630
2020/01/31 02:08:38.8	95.220	0.440	-0.560	-0.670
2020/01/31 02:08:38.9	95.240	0.450	-0.560	-0.700
2020/01/31 02:08:39.0	95.260	0.450	-0.570	-0.730
2020/01/31 02:08:39.1	95.260	0.460	-0.560	-0.750
2020/01/31 02:08:39.2	95.270	0.460	-0.550	-0.760
2020/01/31 02:08:39.3	95.280	0.460	-0.540	-0.770
2020/01/31 02:08:39.4	95.290	0.450	-0.520	-0.770
2020/01/31 02:08:39.5	95.290	0.440	-0.490	-0.760
2020/01/31 02:08:39.6	95.280	0.430	-0.450	-0.740
2020/01/31 02:08:39.7	95.280	0.410	-0.420	-0.720
2020/01/31 02:08:39.8	95.270	0.390	-0.370	-0.700
2020/01/31 02:08:39.9	95.250	0.370	-0.320	-0.660
2020/01/31 02:08:40.0	95.240	0.340	-0.260	-0.630
2020/01/31 02:08:40.1	95.210	0.310	-0.200	-0.580
2020/01/31 02:08:40.2	95.190	0.270	-0.140	-0.530
2020/01/31 02:08:40.3	95.170	0.230	-0.070	-0.480
2020/01/31 02:08:40.4	95.140	0.190	0.000	-0.420
2020/01/31 02:08:40.5	95.110	0.150	0.070	-0.360
2020/01/31 02:08:40.6	95.090	0.100	0.150	-0.300
2020/01/31 02:08:40.7	95.060	0.060	0.220	-0.240
2020/01/31 02:08:40.8	95.030	0.010	0.290	-0.180
2020/01/31 02:08:40.9	94.990	-0.040	0.370	-0.110
2020/01/31 02:08:41.0	94.960	-0.090	0.440	-0.050
2020/01/31 02:08:41.1	94.930	-0.140	0.510	0.020
2020/01/31 02:08:41.2	94.900	-0.200	0.570	0.080
2020/01/31 02:08:41.3	94.870	-0.240	0.640	0.140
2020/01/31 02:08:41.4	94.850	-0.290	0.690	0.200
2020/01/31 02:08:41.5	94.830	-0.340	0.750	0.260
2020/01/31 02:08:41.6	94.800	-0.380	0.790	0.310
2020/01/31 02:08:41.7	94.780	-0.420	0.830	0.370
2020/01/31 02:08:41.8	94.760	-0.460	0.860	0.420
2020/01/31 02:08:41.9	94.750	-0.500	0.890	0.460
2020/01/31 02:08:42.0	94.740	-0.530	0.900	0.510
2020/01/31 02:08:42.1	94.730	-0.550	0.910	0.550
2020/01/31 02:08:42.2	94.720	-0.580	0.910	0.590
2020/01/31 02:08:42.3	94.710	-0.590	0.900	0.630
2020/01/31 02:08:42.4	94.710	-0.610	0.880	0.660
2020/01/31 02:08:42.5	94.700	-0.620	0.850	0.700
2020/01/31 02:08:42.6	94.710	-0.620	0.820	0.720
2020/01/31 02:08:42.7	94.710	-0.620	0.770	0.750
2020/01/31 02:08:42.8	94.710	-0.620	0.720	0.780
2020/01/31 02:08:42.9	94.720	-0.610	0.660	0.800
2020/01/31 02:08:43.0	94.740	-0.590	0.590	0.820
2020/01/31 02:08:43.1	94.750	-0.580	0.520	0.830
2020/01/31 02:08:43.2	94.770	-0.560	0.440	0.850
2020/01/31 02:08:43.3	94.790	-0.530	0.360	0.860
2020/01/31 02:08:43.4	94.810	-0.500	0.270	0.870
2020/01/31 02:08:43.5	94.830	-0.470	0.170	0.880
2020/01/31 02:08:43.6	94.850	-0.440	0.080	0.880
2020/01/31 02:08:43.7	94.880	-0.400	-0.020	0.890
2020/01/31 02:08:43.8	94.910	-0.370	-0.120	0.890
2020/01/31 02:08:43.9	94.930	-0.330	-0.220	0.900
2020/01/31 02:08:44.0	94.960	-0.290	-0.320	0.900
2020/01/31 02:08:44.1	95.000	-0.250	-0.430	0.910
2020/01/31 02:08:44.2	95.020	-0.200	-0.520	0.910
2020/01/31 02:08:44.3	95.050	-0.160	-0.620	0.920
2020/01/31 02:08:44.4	95.080	-0.120	-0.710	0.920
2020/01/31 02:08:44.5	95.100	-0.080	-0.800	0.920
2020/01/31 02:08:44.6	95.130	-0.040	-0.880	0.930
2020/01/31 02:08:44.7	95.160	0.000	-0.960	0.930
2020/01/31 02:08:44.8	95.180	0.040	-1.030	0.940
2020/01/31 02:08:44.9	95.200	0.080	-1.090	0.940
2020/01/31 02:08:45.0	95.220	0.110	-1.150	0.950
2020/01/31 02:08:45.1	95.230	0.150	-1.200	0.950
2020/01/31 02:08:45.2	95.250	0.180	-1.240	0.960
2020/01/31 02:08:45.3	95.270	0.210	-1.270	0.970
2020/01/31 02:08:45.4	95.280	0.230	-1.290	0.980
2020/01/31 02:08:45.5	95.300	0.250	-1.310	0.990
2020/01/31 02:08:45.6	95.310	0.270	-1.310	1.000
2020/01/31 02:08:45.7	95.330	0.290	-1.310	1.020
2020/01/31 02:08:45.8	95.340	0.310	-1.300	1.030
2020/01/31 02:08:45.9	95.350	0.320	-1.280	1.050
2020/01/31 02:08:46.0	95.360	0.320	-1.250	1.060
2020/01/31 02:08:46.1	95.370	0.330	-1.210	1.080
2020/01/31 02:08:46.2	95.380	0.330	-1.170	1.090
2020/01/31 02:08:46.3	95.390	0.330	-1.120	1.110
2020/01/31 02:08:46.4	95.400	0.330	-1.070	1.130
2020/01/31 02:08:46.5	95.410	0.320	-1.010	1.150
2020/01/31 02:08:46.6	95.420	0.320	-0.950	1.170
2020/01/31 02:08:46.7	95.430	0.300	-0.880	1.200
2020/01/31 02:08:46.8	95.430	0.290	-0.810	1.220
2020/01/31 02:08:46.9	95.440	0.280	-0.730	1.250
2020/01/31 02:08:47.0	95.440	0.260	-0.660	1.280
2020/01/31 02:08:47.1	95.450	0.250	-0.580	1.310
2020/01/31 02:08:47.2	95.460	0.230	-0.500	1.350
2020/01/31 02:08:47.3	95.460	0.210	-0.420	1.380
2020/01/31 02:08:47.4	95.450	0.190	-0.340	1.410
2020/01/31 02:08:47.5	95.450	0.160	-0.260	1.450
2020/01/31 02:08:47.6	95.440	0.140	-0.190	1.480
2020/01/31 02:08:47.7	95.430	0.120	-0.110	1.520
2020/01/31 02:08:47.8	95.430	0.090	-0.040	1.560
2020/01/31 02:08:47.9	95.410	0.070	0.040	1.600
2020/01/31 02:08:48.0	95.400	0.050	0.110	1.630
2020/01/31 02:08:48.1	95.380	0.020	0.170	1.670
2020/01/31 02:08:48.2	95.360	-0.000	0.240	1.710
2020/01/31 02:08:48.3	95.340	-0.020	0.300	1.740
2020/01/31 02:08:48.4	95.320	-0.050	0.350	1.780
2020/01/31 02:08:48.5	95.300	-0.070	0.410	1.810
2020/01/31 02:08:48.6	95.280	-0.090	0.460	1.840
2020/01/31 02:08:48.7	95.250	-0.110	0.500	1.870
2020/01/31 02:08:48.8	95.230	-0.140	0.540	1.890
2020/01/31 02:08:48.9	95.200	-0.160	0.580	1.910
2020/01/31 02:08:49.0	95.180	-0.170	0.610	1.930
2020/01/31 02:08:49.1	95.160	-0.190	0.630	1.950
2020/01/31 02:08:49.2	95.140	-0.210	0.650	1.960
2020/01/31 02:08:49.3	95.110	-0.230	0.670	1.960
2020/01/31 02:08:49.4	95.080	-0.240	0.680	1.960
2020/01/31 02:08:49.5	95.060	-0.250	0.680	1.960
2020/01/31 02:08:49.6	95.030	-0.260	0.680	1.950
2020/01/31 02:08:49.7	95.010	-0.270	0.670	1.940
2020/01/31 02:08:49.8	94.980	-0.280	0.660	1.920
2020/01/31 02:08:49.9	94.960	-0.290	0.640	1.890
2020/01/31 02:08:50.0	94.930	-0.290	0.620	1.860
2020/01/31 02:08:50.1	94.910	-0.300	0.590	1.830
2020/01/31 02:08:50.2	94.890	-0.300	0.560	1.790
2020/01/31 02:08:50.3	94.870	-0.300	0.520	1.740
2020/01/31 02:08:50.4	94.850	-0.290	0.480	1.690
2020/01/31 02:08:50.5	94.840	-0.290	0.440	1.640
2020/01/31 02:08:50.6	94.820	-0.280	0.390	1.580
2020/01/31 02:08:50.7	94.810	-0.270	0.340	1.520
2020/01/31 02:08:50.8	94.800	-0.260	0.280	1.450
2020/01/31 02:08:50.9	94.790	-0.250	0.220	1.380
2020/01/31 02:08:51.0	94.790	-0.230	0.160	1.300
2020/01/31 02:08:51.1	94.780	-0.220	0.100	1.220
2020/01/31 02:08:51.2	94.780	-0.200	0.040	1.140
2020/01/31 02:08:51.3	94.780	-0.180	-0.030	1.060
2020/01/31 02:08:51.4	94.780	-0.160	-0.090	0.970
2020/01/31 02:08:51.5	94.790	-0.140	-0.160	0.880
2020/01/31 02:08:51.6	94.800	-0.120	-0.220	0.790
2020/01/31 02:08:51.7	94.810	-0.100	-0.280	0.700
2020/01/31 02:08:51.8	94.830	-0.070	-0.340	0.610
2020/01/31 02:08:51.9	94.840	-0.050	-0.400	0.510
2020/01/31 02:08:52.0	94.860	-0.020	-0.450	0.420
2020/01/31 02:08:52.1	94.880	-0.000	-0.510	0.330
2020/01/31 02:08:52.2	94.890	0.020	-0.550	0.240
2020/01/31 02:08:52.3	94.910	0.050	-0.600	0.150
2020/01/31 02:08:52.4	94.940	0.070	-0.640	0.060
2020/01/31 02:08:52.5	94.960	0.090	-0.670	-0.020
2020/01/31 02:08:52.6	94.980	0.110	-0.700	-0.110
2020/01/31 02:08:52.7	95.000	0.140	-0.730	-0.190
2020/01/31 02:08:52.8	95.030	0.160	-0.750	-0.270
2020/01/31 02:08:52.9	95.050	0.180	-0.770	-0.350
2020/01/31 02:08:53.0	95.080	0.190	-0.780	-0.420
2020/01/31 02:08:53.1	95.090	0.210	-0.780	-0.490
2020/01/31 02:08:53.2	95.120	0.230	-0.780	-0.560
2020/01/31 02:08:53.3	95.150	0.240	-0.780	-0.620
2020/01/31 02:08:53.4	95.170	0.250	-0.770	-0.680
2020/01/31 02:08:53.5	95.200	0.260	-0.760	-0.740
2020/01/31 02:08:53.6	95.220	0.270	-0.740	-0.790
2020/01/31 02:08:53.7	95.250	0.280	-0.720	-0.840
2020/01/31 02:08:53.8	95.270	0.290	-0.690	-0.880
2020/01/31 02:08:53.9	95.290	0.290	-0.670	-0.920
2020/01/31 02:08:54.0	95.320	0.300	-0.630	-0.950
2020/01/31 02:08:54.1	95.340	0.300	-0.600	-0.980
2020/01/31 02:08:54.2	95.350	0.300	-0.560	-1.000
2020/01/31 02:08:54.3	95.370	0.300	-0.520	-1.020
2020/01/31 02:08:54.4	95.390	0.300	-0.480	-1.030
2020/01/31 02:08:54.5	95.410	0.300	-0.430	-1.040
2020/01/31 02:08:54.6	95.420	0.290	-0.390	-1.040
2020/01/31 02:08:54.7	95.430	0.280	-0.340	-1.040
2020/01/31 02:08:54.8	95.440	0.280	-0.290	-1.030
2020/01/31 02:08:54.9	95.450	0.270	-0.240	-1.020
2020/01/31 02:08:55.0	95.460	0.260	-0.200	-1.000
2020/01/31 02:08:55.1	95.470	0.250	-0.140	-0.980
2020/01/31 02:08:55.2	95.470	0.240	-0.100	-0.950
2020/01/31 02:08:55.3	95.480	0.230	-0.050	-0.920
2020/01/31 02:08:55.4	95.480	0.220	-0.000	-0.880
2020/01/31 02:08:55.5	95.480	0.200	0.040	-0.840
2020/01/31 02:08:55.6	95.470	0.190	0.080	-0.790
2020/01/31 02:08:55.7	95.470	0.180	0.120	-0.740
2020/01/31 02:08:55.8	95.460	0.160	0.160	-0.680
2020/01/31 02:08:55.9	95.460	0.150	0.200	-0.620
2020/01/31 02:08:56.0	95.450	0.140	0.230	-0.560
2020/01/31 02:08:56.1	95.420	0.130	0.250	-0.490
2020/01/31 02:08:56.2	95.410	0.110	0.280	-0.410
2020/01/31 02:08:56.3	95.400	0.100	0.300	-0.340
2020/01/31 02:08:56.4	95.390	0.090	0.320	-0.260
2020/01/31 02:08:56.5	95.380	0.080	0.330	-0.180
2020/01/31 02:08:56.6	95.370	0.070	0.340	-0.100
2020/01/31 02:08:56.7	95.350	0.060	0.350	-0.020
2020/01/31 02:08:56.8	95.340	0.050	0.350	0.070
2020/01/31 02:08:56.9	95.330	0.040	0.350	0.160
2020/01/31 02:08:57.0	95.310	0.040	0.340	0.250
2020/01/31 02:08:57.1	95.300	0.030	0.330	0.340
2020/01/31 02:08:57.2	95.290	0.020	0.320	0.440
2020/01/31 02:08:57.3	95.270	0.020	0.300	0.530
2020/01/31 02:08:57.4	95.260	0.010	0.280	0.620
2020/01/31 02:08:57.5	95.250	0.010	0.260	0.710
2020/01/31 02:08:57.6	95.240	0.000	0.240	0.810
2020/01/31 02:08:57.7	95.230	-0.000	0.210	0.900
2020/01/31 02:08:57.8	95.210	-0.000	0.180	0.990
2020/01/31 02:08:57.9	95.210	-0.010	0.150	1.080
2020/01/31 02:08:58.0	95.200	-0.010	0.120	1.170
2020/01/31 02:08:58.1	95.190	-0.010	0.090	1.260
2020/01/31 02:08:58.2	95.180	-0.020	0.050	1.350
2020/01/31 02:08:58.3	95.180	-0.020	0.020	1.430
2020/01/31 02:08:58.4	95.170	-0.030	-0.020	1.510
2020/01/31 02:08:58.5	95.160	-0.030	-0.050	1.590
2020/01/31 02:08:58.6	95.150	-0.030	-0.090	1.670
2020/01/31 02:08:58.7	95.150	-0.040	-0.120	1.750
2020/01/31 02:08:58.8	95.140	-0.040	-0.160	1.820
2020/01/31 02:08:58.9	95.130	-0.050	-0.190	1.890
2020/01/31 02:08:59.0	95.130	-0.050	-0.230	1.950
2020/01/31 02:08:59.1	95.130	-0.060	-0.260	2.020
2020/01/31 02:08:59.2	95.120	-0.060	-0.290	2.080
2020/01/31 02:08:59.3	95.110	-0.070	-0.320	2.140
2020/01/31 02:08:59.4	95.110	-0.070	-0.350	2.190
2020/01/31 02:08:59.5	95.100	-0.080	-0.370	2.240
2020/01/31 02:08:59.6	95.100	-0.080	-0.400	2.290
2020/01/31 02:08:59.7	95.090	-0.090	-0.420	2.330
2020/01/31 02:08:59.8	95.090	-0.100	-0.440	2.370
2020/01/31 02:08:59.9	95.080	-0.100	-0.460	2.400
2020/01/31 02:09:00.0	95.080	-0.110	-0.470	2.430
2020/01/31 02:09:00.1	95.080	-0.110	-0.480	2.460
2020/01/31 02:09:00.2	95.080	-0.120	-0.490	2.480
2020/01/31 02:09:00.3	95.080	-0.120	-0.500	2.500
2020/01/31 02:09:00.4	95.080	-0.130	-0.510	2.520
2020/01/31 02:09:00.5	95.080	-0.130	-0.510	2.530
2020/01/31 02:09:00.6	95.090	-0.130	-0.510	2.530
2020/01/31 02:09:00.7	95.090	-0.140	-0.510	2.530
2020/01/31 02:09:00.8	95.100	-0.140	-0.510	2.530
2020/01/31 02:09:00.9	95.110	-0.140	-0.500	2.530
2020/01/31 02:09:01.0	95.120	-0.150	-0.500	2.520
2020/01/31 02:09:01.1	95.140	-0.150	-0.490	2.500
2020/01/31 02:09:01.2	95.160	-0.150	-0.480	2.480
2020/01/31 02:09:01.3	95.180	-0.150	-0.460	2.460
2020/01/31 02:09:01.4	95.200	-0.150	-0.450	2.430
2020/01/31 02:09:01.5	95.220	-0.150	-0.430	2.400
2020/01/31 02:09:01.6	95.240	-0.150	-0.410	2.360
2020/01/31 02:09:01.7	95.270	-0.150	-0.400	2.320
2020/01/31 02:09:01.8	95.290	-0.150	-0.370	2.280
2020/01/31 02:09:01.9	95.320	-0.150	-0.350	2.240
2020/01/31 02:09:02.0	95.350	-0.150	-0.330	2.190
2020/01/31 02:09:02.1	95.380	-0.140	-0.310	2.140
2020/01/31 02:09:02.2	95.410	-0.140	-0.280	2.080
2020/01/31 02:09:02.3	95.440	-0.140	-0.260	2.020
2020/01/31 02:09:02.4	95.470	-0.130	-0.240	1.970
2020/01/31 02:09:02.5	95.500	-0.130	-0.220	1.910
2020/01/31 02:09:02.6	95.520	-0.130	-0.200	1.840
2020/01/31 02:09:02.7	95.550	-0.120	-0.180	1.780
2020/01/31 02:09:02.8	95.570	-0.110	-0.160	1.720
2020/01/31 02:09:02.9	95.600	-0.110	-0.140	1.650
2020/01/31 02:09:03.0	95.620	-0.100	-0.130	1.590
2020/01/31 02:09:03.1	95.650	-0.090	-0.120	1.530
2020/01/31 02:09:03.2	95.670	-0.080	-0.120	1.460
2020/01/31 02:09:03.3	95.690	-0.070	-0.110	1.400
2020/01/31 02:09:03.4	95.700	-0.060	-0.110	1.330
2020/01/31 02:09:03.5	95.720	-0.050	-0.110	1.270
2020/01/31 02:09:03.6	95.730	-0.040	-0.110	1.210
2020/01/31 02:09:03.7	95.740	-0.020	-0.110	1.150
2020/01/31 02:09:03.8	95.740	-0.010	-0.120	1.090
2020/01/31 02:09:03.9	95.750	0.010	-0.120	1.030
2020/01/31 02:09:04.0	95.750	0.020	-0.130	0.970
2020/01/31 02:09:04.1	95.760	0.040	-0.140	0.910
2020/01/31 02:09:04.2	95.750	0.060	-0.160	0.860
2020/01/31 02:09:04.3	95.750	0.070	-0.170	0.800
2020/01/31 02:09:04.4	95.740	0.090	-0.180	0.750
2020/01/31 02:09:04.5	95.740	0.110	-0.190	0.700
2020/01/31 02:09:04.6	95.730	0.120	-0.210	0.650
2020/01/31 02:09:04.7	95.720	0.140	-0.220	0.600
2020/01/31 02:09:04.8	95.700	0.160	-0.230	0.560
2020/01/31 02:09:04.9	95.690	0.170	-0.240	0.520
2020/01/31 02:09:05.0	95.670	0.180	-0.240	0.470
2020/01/31 02:09:05.1	95.660	0.190	-0.250	0.440
2020/01/31 02:09:05.2	95.640	0.200	-0.250	0.400
2020/01/31 02:09:05.3	95.620	0.210	-0.250	0.360
2020/01/31 02:09:05.4	95.600	0.220	-0.240	0.320
2020/01/31 02:09:05.5	95.580	0.220	-0.230	0.290
2020/01/31 02:09:05.6	95.560	0.220	-0.220	0.250
2020/01/31 02:09:05.7	95.540	0.220	-0.200	0.220
2020/01/31 02:09:05.8	95.520	0.210	-0.180	0.190
2020/01/31 02:09:05.9	95.500	0.210	-0.160	0.160
2020/01/31 02:09:06.0	95.480	0.200	-0.130	0.130
2020/01/31 02:09:06.1	95.450	0.190	-0.100	0.090
2020/01/31 02:09:06.2	95.430	0.170	-0.060	0.060
2020/01/31 02:09:06.3	95.410	0.160	-0.030	0.030
2020/01/31 02:09:06.4	95.390	0.140	0.010	0.010
2020/01/31 02:09:06.5	95.370	0.120	0.050	-0.020
2020/01/31 02:09:06.6	95.350	0.100	0.090	-0.040
2020/01/31 02:09:06.7	95.340	0.070	0.130	-0.070
2020/01/31 02:09:06.8	95.320	0.050	0.170	-0.090
2020/01/31 02:09:06.9	95.300	0.020	0.210	-0.110
2020/01/31 02:09:07.0	95.290	-0.010	0.250	-0.130
2020/01/31 02:09:07.1	95.270	-0.040	0.280	-0.150
2020/01/31 02:09:07.2	95.260	-0.070	0.320	-0.170
2020/01/31 02:09:07.3	95.250	-0.090	0.350	-0.180
2020/01/31 02:09:07.4	95.230	-0.120	0.380	-0.200
2020/01/31 02:09:07.5	95.220	-0.150	0.410	-0.220
2020/01/31 02:09:07.6	95.210	-0.170	0.430	-0.240
2020/01/31 02:09:07.7	95.210	-0.200	0.450	-0.250
2020/01/31 02:09:07.8	95.200	-0.220	0.460	-0.270
2020/01/31 02:09:07.9	95.190	-0.240	0.470	-0.290
2020/01/31 02:09:08.0	95.190	-0.260	0.470	-0.310
2020/01/31 02:09:08.1	95.190	-0.280	0.470	-0.320
2020/01/31 02:09:08.2	95.190	-0.290	0.460	-0.340
2020/01/31 02:09:08.3	95.200	-0.300	0.440	-0.360
2020/01/31 02:09:08.4	95.210	-0.310	0.420	-0.370
2020/01/31 02:09:08.5	95.210	-0.310	0.400	-0.390
2020/01/31 02:09:08.6	95.230	-0.320	0.370	-0.410
2020/01/31 02:09:08.7	95.240	-0.320	0.340	-0.430
2020/01/31 02:09:08.8	95.260	-0.310	0.300	-0.440
2020/01/31 02:09:08.9	95.280	-0.310	0.260	-0.460
2020/01/31 02:09:09.0	95.300	-0.300	0.220	-0.480
2020/01/31 02:09:09.1	95.340	-0.290	0.170	-0.490
2020/01/31 02:09:09.2	95.360	-0.270	0.120	-0.510
2020/01/31 02:09:09.3	95.390	-0.260	0.070	-0.520
2020/01/31 02:09:09.4	95.420	-0.240	0.020	-0.530
2020/01/31 02:09:09.5	95.450	-0.230	-0.030	-0.540
2020/01/31 02:09:09.6	95.480	-0.210	-0.090	-0.550
2020/01/31 02:09:09.7	95.520	-0.190	-0.140	-0.550
2020/01/31 02:09:09.8	95.550	-0.170	-0.190	-0.550
2020/01/31 02:09:09.9	95.590	-0.150	-0.240	-0.550
2020/01/31 02:09:10.0	95.620	-0.130	-0.290	-0.550
2020/01/31 02:09:10.1	95.660	-0.110	-0.330	-0.530
2020/01/31 02:09:10.2	95.700	-0.100	-0.380	-0.520
2020/01/31 02:09:10.3	95.740	-0.080	-0.420	-0.500
2020/01/31 02:09:10.4	95.770	-0.060	-0.460	-0.480
2020/01/31 02:09:10.5	95.810	-0.050	-0.490	-0.450
2020/01/31 02:09:10.6	95.840	-0.040	-0.530	-0.420
2020/01/31 02:09:10.7	95.880	-0.030	-0.560	-0.380
2020/01/31 02:09:10.8	95.910	-0.020	-0.580	-0.340
2020/01/31 02:09:10.9	95.940	-0.010	-0.600	-0.300
2020/01/31 02:09:11.0	95.970	-0.000	-0.620	-0.250
2020/01/31 02:09:11.1	96.000	0.000	-0.640	-0.190
2020/01/31 02:09:11.2	96.020	0.000	-0.650	-0.130
2020/01/31 02:09:11.3	96.040	0.010	-0.660	-0.070
2020/01/31 02:09:11.4	96.070	0.010	-0.670	-0.000
2020/01/31 02:09:11.5	96.080	0.010	-0.670	0.070
2020/01/31 02:09:11.6	96.100	0.000	-0.670	0.140
2020/01/31 02:09:11.7	96.110	0.000	-0.670	0.220
2020/01/31 02:09:11.8	96.130	-0.000	-0.670	0.290
2020/01/31 02:09:11.9	96.130	-0.000	-0.660	0.380
2020/01/31 02:09:12.0	96.140	-0.010	-0.650	0.460
2020/01/31 02:09:12.1	96.140	-0.010	-0.640	0.550
2020/01/31 02:09:12.2	96.140	-0.010	-0.630	0.630
2020/01/31 02:09:12.3	96.140	-0.010	-0.610	0.720
2020/01/31 02:09:12.4	96.140	-0.010	-0.600	0.810
2020/01/31 02:09:12.5	96.130	-0.010	-0.590	0.900
2020/01/31 02:09:12.6	96.120	-0.010	-0.570	0.990
2020/01/31 02:09:12.7	96.110	-0.000	-0.560	1.080
2020/01/31 02:09:12.8	96.100	0.010	-0.540	1.170
2020/01/31 02:09:12.9	96.080	0.010	-0.530	1.260
2020/01/31 02:09:13.0	96.070	0.020	-0.510	1.340
2020/01/31 02:09:13.1	96.060	0.040	-0.500	1.440
2020/01/31 02:09:13.2	96.050	0.050	-0.480	1.520
2020/01/31 02:09:13.3	96.030	0.070	-0.470	1.600
2020/01/31 02:09:13.4	96.010	0.080	-0.450	1.690
2020/01/31 02:09:13.5	95.980	0.100	-0.440	1.770
2020/01/31 02:09:13.6	95.960	0.120	-0.430	1.840
2020/01/31 02:09:13.7	95.940	0.150	-0.420	1.920
2020/01/31 02:09:13.8	95.920	0.170	-0.410	1.990
2020/01/31 02:09:13.9	95.890	0.200	-0.400	2.060
2020/01/31 02:09:14.0	95.870	0.220	-0.390	2.120
2020/01/31 02:09:14.1	95.870	0.250	-0.380	2.190
2020/01/31 02:09:14.2	95.840	0.280	-0.370	2.240
2020/01/31 02:09:14.3	95.820	0.310	-0.360	2.300
2020/01/31 02:09:14.4	95.800	0.340	-0.360	2.340
2020/01/31 02:09:14.5	95.780	0.360	-0.350	2.390
2020/01/31 02:09:14.6	95.760	0.390	-0.350	2.430
2020/01/31 02:09:14.7	95.740	0.420	-0.340	2.460
2020/01/31 02:09:14.8	95.720	0.450	-0.340	2.490
2020/01/31 02:09:14.9	95.710	0.470	-0.340	2.520
2020/01/31 02:09:15.0	95.690	0.500	-0.330	2.540
2020/01/31 02:09:15.1	95.690	0.520	-0.330	2.550
2020/01/31 02:09:15.2	95.680	0.540	-0.330	2.560
2020/01/31 02:09:15.3	95.670	0.560	-0.320	2.560
2020/01/31 02:09:15.4	95.660	0.570	-0.320	2.560
2020/01/31 02:09:15.5	95.650	0.580	-0.310	2.550
2020/01/31 02:09:15.6	95.650	0.600	-0.300	2.530
2020/01/31 02:09:15.7	95.640	0.600	-0.290	2.510
2020/01/31 02:09:15.8	95.640	0.610	-0.280	2.490
2020/01/31 02:09:15.9	95.650	0.610	-0.260	2.460
2020/01/31 02:09:16.0	95.650	0.610	-0.250	2.420
2020/01/31 02:09:16.1	95.660	0.600	-0.230	2.390
2020/01/31 02:09:16.2	95.660	0.590	-0.210	2.340
2020/01/31 02:09:16.3	95.670	0.580	-0.190	2.290
2020/01/31 02:09:16.4	95.680	0.560	-0.160	2.240
2020/01/31 02:09:16.5	95.690	0.540	-0.130	2.180
2020/01/31 02:09:16.6	95.710	0.520	-0.100	2.120
2020/01/31 02:09:16.7	95.720	0.490	-0.070	2.050
2020/01/31 02:09:16.8	95.740	0.470	-0.030	1.990
2020/01/31 02:09:16.9	95.760	0.430	0.000	1.920
2020/01/31 02:09:17.0	95.780	0.400	0.040	1.840
2020/01/31 02:09:17.1	95.790	0.360	0.080	1.760
2020/01/31 02:09:17.2	95.810	0.320	0.120	1.690
2020/01/31 02:09:17.3	95.830	0.280	0.160	1.610
2020/01/31 02:09:17.4	95.850	0.240	0.210	1.530
2020/01/31 02:09:17.5	95.870	0.190	0.250	1.440
2020/01/31 02:09:17.6	95.890	0.150	0.290	1.360
2020/01/31 02:09:17.7	95.910	0.100	0.330	1.280
2020/01/31 02:09:17.8	95.930	0.050	0.370	1.190
2020/01/31 02:09:17.9	95.940	0.000	0.410	1.110
2020/01/31 02:09:18.0	95.960	-0.050	0.450	1.020
2020/01/31 02:09:18.1	95.980	-0.090	0.480	0.940
2020/01/31 02:09:18.2	95.990	-0.140	0.520	0.850
2020/01/31 02:09:18.3	96.010	-0.190	0.550	0.770
2020/01/31 02:09:18.4	96.030	-0.240	0.580	0.680
2020/01/31 02:09:18.5	96.040	-0.280	0.610	0.600
2020/01/31 02:09:18.6	96.050	-0.330	0.630	0.520
2020/01/31 02:09:18.7	96.070	-0.370	0.650	0.430
2020/01/31 02:09:18.8	96.080	-0.410	0.660	0.360
2020/01/31 02:09:18.9	96.090	-0.450	0.680	0.280
2020/01/31 02:09:19.0	96.110	-0.490	0.690	0.210
2020/01/31 02:09:19.1	96.120	-0.520	0.690	0.140
2020/01/31 02:09:19.2	96.130	-0.560	0.690	0.070
2020/01/31 02:09:19.3	96.140	-0.590	0.690	0.010
2020/01/31 02:09:19.4	96.150	-0.620	0.680	-0.050
2020/01/31 02:09:19.5	96.160	-0.640	0.670	-0.110
2020/01/31 02:09:19.6	96.160	-0.670	0.650	-0.160
2020/01/31 02:09:19.7	96.160	-0.690	0.630	-0.210
2020/01/31 02:09:19.8	96.170	-0.710	0.610	-0.250
2020/01/31 02:09:19.9	96.170	-0.730	0.580	-0.290
2020/01/31 02:09:20.0	96.170	-0.740	0.550	-0.320
2020/01/31 02:09:20.1	96.160	-0.750	0.510	-0.360
2020/01/31 02:09:20.2	96.160	-0.760	0.470	-0.380
2020/01/31 02:09:20.3	96.160	-0.770	0.430	-0.410
2020/01/31 02:09:20.4	96.150	-0.770	0.390	-0.430
2020/01/31 02:09:20.5	96.150	-0.770	0.340	-0.440
2020/01/31 02:09:20.6	96.150	-0.770	0.290	-0.460
2020/01/31 02:09:20.7	96.140	-0.770	0.240	-0.470
2020/01/31 02:09:20.8	96.140	-0.760	0.190	-0.480
2020/01/31 02:09:20.9	96.140	-0.760	0.130	-0.480
2020/01/31 02:09:21.0	96.130	-0.750	0.070	-0.490
2020/01/31 02:09:21.1	96.120	-0.730	0.020	-0.480
2020/01/31 02:09:21.2	96.120	-0.720	-0.040	-0.480
2020/01/31 02:09:21.3	96.120	-0.700	-0.100	-0.480
2020/01/31 02:09:21.4	96.120	-0.680	-0.160	-0.470
2020/01/31 02:09:21.5	96.120	-0.660	-0.220	-0.470
2020/01/31 02:09:21.6	96.130	-0.630	-0.290	-0.460
2020/01/31 02:09:21.7	96.130	-0.610	-0.350	-0.450
2020/01/31 02:09:21.8	96.140	-0.580	-0.410	-0.430
2020/01/31 02:09:21.9	96.150	-0.550	-0.470	-0.420
2020/01/31 02:09:22.0	96.160	-0.520	-0.520	-0.400
2020/01/31 02:09:22.1	96.160	-0.480	-0.590	-0.380
2020/01/31 02:09:22.2	96.170	-0.450	-0.640	-0.360
2020/01/31 02:09:22.3	96.180	-0.410	-0.690	-0.340
2020/01/31 02:09:22.4	96.190	-0.370	-0.740	-0.310
2020/01/31 02:09:22.5	96.200	-0.340	-0.790	-0.290
2020/01/31 02:09:22.6	96.210	-0.290	-0.840	-0.260
2020/01/31 02:09:22.7	96.220	-0.250	-0.880	-0.230
2020/01/31 02:09:22.8	96.230	-0.210	-0.920	-0.200
2020/01/31 02:09:22.9	96.240	-0.170	-0.950	-0.170
2020/01/31 02:09:23.0	96.250	-0.120	-0.990	-0.130
2020/01/31 02:09:23.1	96.250	-0.080	-1.010	-0.090
2020/01/31 02:09:23.2	96.250	-0.030	-1.040	-0.060
2020/01/31 02:09:23.3	96.260	0.020	-1.060	-0.020
2020/01/31 02:09:23.4	96.270	0.060	-1.080	0.020
2020/01/31 02:09:23.5	96.280	0.110	-1.100	0.050
2020/01/31 02:09:23.6	96.280	0.150	-1.110	0.090
2020/01/31 02:09:23.7	96.290	0.200	-1.120	0.130
2020/01/31 02:09:23.8	96.300	0.240	-1.130	0.170
2020/01/31 02:09:23.9	96.310	0.280	-1.130	0.200
2020/01/31 02:09:24.0	96.310	0.330	-1.130	0.240
2020/01/31 02:09:24.1	96.320	0.370	-1.130	0.280
2020/01/31 02:09:24.2	96.330	0.410	-1.120	0.320
2020/01/31 02:09:24.3	96.330	0.450	-1.110	0.360
2020/01/31 02:09:24.4	96.340	0.480	-1.100	0.390
2020/01/31 02:09:24.5	96.350	0.520	-1.080	0.430
2020/01/31 02:09:24.6	96.360	0.550	-1.060	0.470
2020/01/31 02:09:24.7	96.370	0.580	-1.030	0.510
2020/01/31 02:09:24.8	96.380	0.600	-1.000	0.540
2020/01/31 02:09:24.9	96.380	0.630	-0.970	0.580
2020/01/31 02:09:25.0	96.390	0.650	-0.930	0.620
2020/01/31 02:09:25.1	96.400	0.670	-0.890	0.670
2020/01/31 02:09:25.2	96.400	0.680	-0.840	0.710
2020/01/31 02:09:25.3	96.400	0.690	-0.800	0.750
2020/01/31 02:09:25.4	96.400	0.700	-0.750	0.800
2020/01/31 02:09:25.5	96.400	0.710	-0.690	0.840
2020/01/31 02:09:25.6	96.390	0.710	-0.640	0.890
2020/01/31 02:09:25.7	96.380	0.700	-0.580	0.930
2020/01/31 02:09:25.8	96.370	0.700	-0.510	0.980
2020/01/31 02:09:25.9	96.360	0.690	-0.450	1.030
2020/01/31 02:09:26.0	96.350	0.680	-0.380	1.080
2020/01/31 02:09:26.1	96.330	0.660	-0.320	1.130
2020/01/31 02:09:26.2	96.310	0.640	-0.240	1.170
2020/01/31 02:09:26.3	96.300	0.620	-0.170	1.220
2020/01/31 02:09:26.4	96.280	0.600	-0.100	1.260
2020/01/31 02:09:26.5	96.260	0.570	-0.020	1.310
2020/01/31 02:09:26.6	96.240	0.540	0.050	1.350
2020/01/31 02:09:26.7	96.220	0.500	0.130	1.390
2020/01/31 02:09:26.8	96.200	0.470	0.200	1.430
2020/01/31 02:09:26.9	96.180	0.430	0.270	1.460
2020/01/31 02:09:27.0	96.160	0.390	0.340	1.490
2020/01/31 02:09:27.1	96.160	0.350	0.420	1.520
2020/01/31 02:09:27.2	96.140	0.310	0.490	1.550
2020/01/31 02:09:27.3	96.120	0.270	0.550	1.570
2020/01/31 02:09:27.4	96.110	0.220	0.610	1.590
2020/01/31 02:09:27.5	96.090	0.180	0.670	1.610
2020/01/31 02:09:27.6	96.080	0.130	0.720	1.620
2020/01/31 02:09:27.7	96.070	0.090	0.770	1.630
2020/01/31 02:09:27.8	96.070	0.040	0.810	1.630
2020/01/31 02:09:27.9	96.060	-0.000	0.850	1.630
2020/01/31 02:09:28.0	96.060	-0.040	0.880	1.630
2020/01/31 02:09:28.1	96.050	-0.090	0.900	1.630
2020/01/31 02:09:28.2	96.050	-0.130	0.920	1.630
2020/01/31 02:09:28.3	96.060	-0.170	0.930	1.620
2020/01/31 02:09:28.4	96.060	-0.210	0.940	1.610
2020/01/31 02:09:28.5	96.070	-0.240	0.940	1.590
2020/01/31 02:09:28.6	96.080	-0.280	0.930	1.580
2020/01/31 02:09:28.7	96.090	-0.310	0.920	1.560
2020/01/31 02:09:28.8	96.100	-0.340	0.910	1.540
2020/01/31 02:09:28.9	96.110	-0.370	0.880	1.520
2020/01/31 02:09:29.0	96.130	-0.390	0.850	1.500
2020/01/31 02:09:29.1	96.150	-0.410	0.820	1.480
2020/01/31 02:09:29.2	96.170	-0.430	0.780	1.450
2020/01/31 02:09:29.3	96.180	-0.450	0.740	1.420
2020/01/31 02:09:29.4	96.200	-0.460	0.690	1.390
2020/01/31 02:09:29.5	96.220	-0.470	0.640	1.360
2020/01/31 02:09:29.6	96.240	-0.480	0.580	1.330
2020/01/31 02:09:29.7	96.260	-0.480	0.520	1.300
2020/01/31 02:09:29.8	96.280	-0.480	0.460	1.270
2020/01/31 02:09:29.9	96.290	-0.480	0.400	1.230
2020/01/31 02:09:30.0	96.310	-0.470	0.330	1.200
2020/01/31 02:09:30.1	96.330	-0.460	0.260	1.160
2020/01/31 02:09:30.2	96.350	-0.450	0.190	1.120
2020/01/31 02:09:30.3	96.370	-0.440	0.110	1.090
2020/01/31 02:09:30.4	96.380	-0.420	0.040	1.050
2020/01/31 02:09:30.5	96.400	-0.400	-0.030	1.010
2020/01/31 02:09:30.6	96.420	-0.380	-0.110	0.970
2020/01/31 02:09:30.7	96.430	-0.350	-0.180	0.930
2020/01/31 02:09:30.8	96.450	-0.330	-0.250	0.890
2020/01/31 02:09:30.9	96.460	-0.300	-0.330	0.850
2020/01/31 02:09:31.0	96.470	-0.270	-0.400	0.810
2020/01/31 02:09:31.1	96.480	-0.240	-0.470	0.780
2020/01/31 02:09:31.2	96.500	-0.210	-0.540	0.740
2020/01/31 02:09:31.3	96.510	-0.180	-0.600	0.700
2020/01/31 02:09:31.4	96.520	-0.150	-0.670	0.660
2020/01/31 02:09:31.5	96.520	-0.110	-0.730	0.630
2020/01/31 02:09:31.6	96.530	-0.080	-0.790	0.590
2020/01/31 02:09:31.7	96.540	-0.050	-0.840	0.560
2020/01/31 02:09:31.8	96.550	-0.020	-0.890	0.530
2020/01/31 02:09:31.9	96.550	0.020	-0.940	0.500
2020/01/31 02:09:32.0	96.560	0.050	-0.980	0.470
2020/01/31 02:09:32.1	96.580	0.080	-1.010	0.450
2020/01/31 02:09:32.2	96.580	0.110	-1.050	0.420
2020/01/31 02:09:32.3	96.590	0.140	-1.070	0.400
2020/01/31 02:09:32.4	96.590	0.160	-1.090	0.380
2020/01/31 02:09:32.5	96.590	0.180	-1.100	0.370
2020/01/31 02:09:32.6	96.590	0.210	-1.110	0.350
2020/01/31 02:09:32.7	96.590	0.230	-1.110	0.340
2020/01/31 02:09:32.8	96.590	0.240	-1.100	0.330
2020/01/31 02:09:32.9	96.590	0.260	-1.090	0.320
2020/01/31 02:09:33.0	96.590	0.270	-1.070	0.310
2020/01/31 02:09:33.1	96.590	0.280	-1.040	0.310
2020/01/31 02:09:33.2	96.590	0.290	-1.010	0.310
2020/01/31 02:09:33.3	96.590	0.290	-0.960	0.310
2020/01/31 02:09:33.4	96.580	0.290	-0.920	0.310
2020/01/31 02:09:33.5	96.580	0.290	-0.870	0.320
2020/01/31 02:09:33.6	96.580	0.290	-0.810	0.320
2020/01/31 02:09:33.7	96.580	0.280	-0.740	0.330
2020/01/31 02:09:33.8	96.570	0.270	-0.680	0.340
2020/01/31 02:09:33.9	96.570	0.260	-0.610	0.360
2020/01/31 02:09:34.0	96.560	0.250	-0.530	0.370
2020/01/31 02:09:34.1	96.550	0.240	-0.450	0.390
2020/01/31 02:09:34.2	96.540	0.220	-0.370	0.410
2020/01/31 02:09:34.3	96.530	0.210	-0.290	0.430
2020/01/31 02:09:34.4	96.530	0.190	-0.210	0.450
2020/01/31 02:09:34.5	96.520	0.170	-0.130	0.470
2020/01/31 02:09:34.6	96.500	0.150	-0.050	0.490
2020/01/31 02:09:34.7	96.490	0.140	0.030	0.510
2020/01/31 02:09:34.8	96.480	0.120	0.100	0.540
2020/01/31 02:09:34.9	96.470	0.100	0.170	0.560
2020/01/31 02:09:35.0	96.450	0.080	0.240	0.590
2020/01/31 02:09:35.1	96.450	0.060	0.310	0.610
2020/01/31 02:09:35.2	96.440	0.050	0.360	0.630
2020/01/31 02:09:35.3	96.420	0.030	0.410	0.660
2020/01/31 02:09:35.4	96.410	0.020	0.460	0.680
2020/01/31 02:09:35.5	96.390	0.010	0.490	0.700
2020/01/31 02:09:35.6	96.380	-0.000	0.520	0.720
2020/01/31 02:09:35.7	96.360	-0.010	0.550	0.740
2020/01/31 02:09:35.8	96.350	-0.020	0.560	0.760
2020/01/31 02:09:35.9	96.330	-0.020	0.570	0.780
2020/01/31 02:09:36.0	96.320	-0.030	0.570	0.790
2020/01/31 02:09:36.1	96.310	-0.030	0.560	0.810
2020/01/31 02:09:36.2	96.300	-0.030	0.550	0.830
2020/01/31 02:09:36.3	96.290	-0.030	0.520	0.840
2020/01/31 02:09:36.4	96.270	-0.030	0.500	0.850
2020/01/31 02:09:36.5	96.260	-0.030	0.460	0.860
2020/01/31 02:09:36.6	96.250	-0.020	0.420	0.860
2020/01/31 02:09:36.7	96.230	-0.010	0.380	0.870
2020/01/31 02:09:36.8	96.220	-0.010	0.330	0.870
2020/01/31 02:09:36.9	96.210	-0.000	0.270	0.870
2020/01/31 02:09:37.0	96.210	0.010	0.220	0.880
2020/01/31 02:09:37.1	96.200	0.010	0.150	0.870
2020/01/31 02:09:37.2	96.190	0.020	0.090	0.870
2020/01/31 02:09:37.3	96.190	0.030	0.030	0.870
2020/01/31 02:09:37.4	96.190	0.040	-0.030	0.860
2020/01/31 02:09:37.5	96.190	0.050	-0.100	0.850
2020/01/31 02:09:37.6	96.190	0.050	-0.160	0.850
2020/01/31 02:09:37.7	96.200	0.060	-0.220	0.830
2020/01/31 02:09:37.8	96.210	0.060	-0.280	0.820
2020/01/31 02:09:37.9	96.210	0.070	-0.330	0.810
2020/01/31 02:09:38.0	96.230	0.070	-0.380	0.800
2020/01/31 02:09:38.1	96.240	0.070	-0.430	0.790
2020/01/31 02:09:38.2	96.260	0.070	-0.480	0.770
2020/01/31 02:09:38.3	96.280	0.070	-0.510	0.760
2020/01/31 02:09:38.4	96.300	0.060	-0.550	0.740
2020/01/31 02:09:38.5	96.330	0.060	-0.570	0.730
2020/01/31 02:09:38.6	96.350	0.050	-0.590	0.710
2020/01/31 02:09:38.7	96.380	0.040	-0.610	0.700
2020/01/31 02:09:38.8	96.410	0.030	-0.620	0.690
2020/01/31 02:09:38.9	96.440	0.020	-0.620	0.680
2020/01/31 02:09:39.0	96.470	0.010	-0.620	0.670
2020/01/31 02:09:39.1	96.500	-0.010	-0.610	0.660
2020/01/31 02:09:39.2	96.530	-0.020	-0.600	0.660
2020/01/31 02:09:39.3	96.570	-0.040	-0.580	0.660
2020/01/31 02:09:39.4	96.600	-0.060	-0.560	0.660
2020/01/31 02:09:39.5	96.630	-0.080	-0.530	0.660
2020/01/31 02:09:39.6	96.660	-0.100	-0.500	0.670
2020/01/31 02:09:39.7	96.690	-0.120	-0.460	0.680
2020/01/31 02:09:39.8	96.720	-0.140	-0.420	0.690
2020/01/31 02:09:39.9	96.750	-0.160	-0.380	0.710
2020/01/31 02:09:40.0	96.770	-0.180	-0.340	0.730
2020/01/31 02:09:40.1	96.800	-0.200	-0.290	0.760
2020/01/31 02:09:40.2	96.820	-0.220	-0.250	0.790
2020/01/31 02:09:40.3	96.840	-0.240	-0.200	0.820
2020/01/31 02:09:40.4	96.850	-0.260	-0.160	0.850
2020/01/31 02:09:40.5	96.860	-0.280	-0.110	0.880
2020/01/31 02:09:40.6	96.870	-0.290	-0.060	0.920
2020/01/31 02:09:40.7	96.870	-0.310	-0.020	0.960
2020/01/31 02:09:40.8	96.870	-0.320	0.020	1.000
2020/01/31 02:09:40.9	96.870	-0.330	0.060	1.040
2020/01/31 02:09:41.0	96.870	-0.350	0.100	1.080
2020/01/31 02:09:41.1	96.870	-0.350	0.130	1.130
2020/01/31 02:09:41.2	96.860	-0.360	0.160	1.170
2020/01/31 02:09:41.3	96.850	-0.360	0.190	1.200
2020/01/31 02:09:41.4	96.830	-0.370	0.210	1.240
2020/01/31 02:09:41.5	96.820	-0.370	0.230	1.270
2020/01/31 02:09:41.6	96.800	-0.370	0.250	1.300
2020/01/31 02:09:41.7	96.790	-0.360	0.260	1.330
2020/01/31 02:09:41.8	96.770	-0.350	0.270	1.350
2020/01/31 02:09:41.9	96.750	-0.340	0.280	1.370
2020/01/31 02:09:42.0	96.740	-0.330	0.280	1.390
2020/01/31 02:09:42.1	96.720	-0.320	0.270	1.400
2020/01/31 02:09:42.2	96.710	-0.300	0.270	1.410
2020/01/31 02:09:42.3	96.690	-0.280	0.250	1.420
2020/01/31 02:09:42.4	96.670	-0.260	0.240	1.420
2020/01/31 02:09:42.5	96.660	-0.240	0.220	1.420
2020/01/31 02:09:42.6	96.640	-0.220	0.190	1.420
2020/01/31 02:09:42.7	96.620	-0.190	0.170	1.410
2020/01/31 02:09:42.8	96.610	-0.170	0.140	1.400
2020/01/31 02:09:42.9	96.600	-0.140	0.110	1.390
2020/01/31 02:09:43.0	96.580	-0.110	0.070	1.370
2020/01/31 02:09:43.1	96.560	-0.080	0.030	1.360
2020/01/31 02:09:43.2	96.550	-0.050	-0.010	1.340
2020/01/31 02:09:43.3	96.540	-0.020	-0.040	1.320
2020/01/31 02:09:43.4	96.530	0.010	-0.080	1.300
2020/01/31 02:09:43.5	96.520	0.030	-0.120	1.270
2020/01/31 02:09:43.6	96.510	0.060	-0.160	1.250
2020/01/31 02:09:43.7	96.500	0.090	-0.200	1.220
2020/01/31 02:09:43.8	96.490	0.120	-0.230	1.200
2020/01/31 02:09:43.9	96.480	0.150	-0.270	1.170
2020/01/31 02:09:44.0	96.470	0.170	-0.300	1.140
2020/01/31 02:09:44.1	96.460	0.190	-0.330	1.110
2020/01/31 02:09:44.2	96.450	0.220	-0.360	1.080
2020/01/31 02:09:44.3	96.440	0.240	-0.380	1.050
2020/01/31 02:09:44.4	96.430	0.260	-0.410	1.010
2020/01/31 02:09:44.5	96.420	0.280	-0.430	0.980
2020/01/31 02:09:44.6	96.420	0.290	-0.450	0.940
2020/01/31 02:09:44.7	96.410	0.310	-0.460	0.910
2020/01/31 02:09:44.8	96.400	0.320	-0.470	0.870
2020/01/31 02:09:44.9	96.400	0.330	-0.480	0.830
2020/01/31 02:09:45.0	96.390	0.340	-0.490	0.790
2020/01/31 02:09:45.1	96.380	0.350	-0.490	0.750
2020/01/31 02:09:45.2	96.380	0.350	-0.490	0.710
2020/01/31 02:09:45.3	96.380	0.360	-0.490	0.670
2020/01/31 02:09:45.4	96.380	0.360	-0.480	0.620
2020/01/31 02:09:45.5	96.380	0.360	-0.480	0.580
2020/01/31 02:09:45.6	96.380	0.360	-0.470	0.530
2020/01/31 02:09:45.7	96.380	0.360	-0.460	0.480
2020/01/31 02:09:45.8	96.390	0.360	-0.440	0.430
2020/01/31 02:09:45.9	96.390	0.360	-0.430	0.380
2020/01/31 02:09:46.0	96.400	0.350	-0.410	0.320
2020/01/31 02:09:46.1	96.410	0.350	-0.400	0.270
2020/01/31 02:09:46.2	96.420	0.340	-0.380	0.220
2020/01/31 02:09:46.3	96.430	0.340	-0.370	0.160
2020/01/31 02:09:46.4	96.450	0.330	-0.350	0.100
2020/01/31 02:09:46.5	96.460	0.320	-0.330	0.050
2020/01/31 02:09:46.6	96.480	0.320	-0.320	-0.010
2020/01/31 02:09:46.7	96.500	0.310	-0.300	-0.060
2020/01/31 02:09:46.8	96.520	0.300	-0.290	-0.120
2020/01/31 02:09:46.9	96.540	0.290	-0.280	-0.170
2020/01/31 02:09:47.0	96.560	0.280	-0.260	-0.220
2020/01/31 02:09:47.1	96.560	0.270	-0.250	-0.260
2020/01/31 02:09:47.2	96.580	0.250	-0.240	-0.310
2020/01/31 02:09:47.3	96.600	0.240	-0.230	-0.340
2020/01/31 02:09:47.4	96.630	0.230	-0.220	-0.380
2020/01/31 02:09:47.5	96.650	0.220	-0.210	-0.400
2020/01/31 02:09:47.6	96.670	0.200	-0.200	-0.430
2020/01/31 02:09:47.7	96.680	0.190	-0.200	-0.440
2020/01/31 02:09:47.8	96.700	0.180	-0.190	-0.450
2020/01/31 02:09:47.9	96.720	0.160	-0.190	-0.460
2020/01/31 02:09:48.0	96.730	0.150	-0.190	-0.450
2020/01/31 02:09:48.1	96.730	0.130	-0.190	-0.440
2020/01/31 02:09:48.2	96.740	0.120	-0.180	-0.420
2020/01/31 02:09:48.3	96.750	0.100	-0.180	-0.400
2020/01/31 02:09:48.4	96.760	0.080	-0.180	-0.370
2020/01/31 02:09:48.5	96.760	0.070	-0.180	-0.330
2020/01/31 02:09:48.6	96.770	0.050	-0.170	-0.290
2020/01/31 02:09:48.7	96.770	0.030	-0.170	-0.250
2020/01/31 02:09:48.8	96.760	0.020	-0.170	-0.190
2020/01/31 02:09:48.9	96.760	-0.000	-0.160	-0.140
2020/01/31 02:09:49.0	96.760	-0.020	-0.160	-0.070
2020/01/31 02:09:49.1	96.760	-0.040	-0.150	-0.000
2020/01/31 02:09:49.2	96.750	-0.060	-0.140	0.070
2020/01/31 02:09:49.3	96.740	-0.070	-0.130	0.140
2020/01/31 02:09:49.4	96.730	-0.090	-0.120	0.210
2020/01/31 02:09:49.5	96.720	-0.110	-0.110	0.290
2020/01/31 02:09:49.6	96.710	-0.130	-0.100	0.370
2020/01/31 02:09:49.7	96.700	-0.150	-0.080	0.450
2020/01/31 02:09:49.8	96.690	-0.170	-0.070	0.520
2020/01/31 02:09:49.9	96.680	-0.190	-0.050	0.600
2020/01/31 02:09:50.0	96.670	-0.200	-0.030	0.680
2020/01/31 02:09:50.1	96.660	-0.220	-0.010	0.770
2020/01/31 02:09:50.2	96.650	-0.240	0.020	0.850
2020/01/31 02:09:50.3	96.640	-0.260	0.040	0.930
2020/01/31 02:09:50.4	96.630	-0.280	0.070	1.010
2020/01/31 02:09:50.5	96.620	-0.300	0.100	1.080
2020/01/31 02:09:50.6	96.610	-0.320	0.120	1.160
2020/01/31 02:09:50.7	96.600	-0.340	0.150	1.230
2020/01/31 02:09:50.8	96.590	-0.360	0.180	1.300
2020/01/31 02:09:50.9	96.580	-0.380	0.210	1.370
2020/01/31 02:09:51.0	96.570	-0.390	0.230	1.440
2020/01/31 02:09:51.1	96.580	-0.410	0.260	1.500
2020/01/31 02:09:51.2	96.570	-0.420	0.280	1.570
2020/01/31 02:09:51.3	96.560	-0.440	0.300	1.630
2020/01/31 02:09:51.4	96.560	-0.450	0.320	1.680
2020/01/31 02:09:51.5	96.550	-0.460	0.340	1.730
2020/01/31 02:09:51.6	96.550	-0.460	0.350	1.780
2020/01/31 02:09:51.7	96.540	-0.470	0.360	1.830
2020/01/31 02:09:51.8	96.540	-0.470	0.360	1.870
2020/01/31 02:09:51.9	96.540	-0.470	0.360	1.910
2020/01/31 02:09:52.0	96.540	-0.470	0.350	1.950
2020/01/31 02:09:52.1	96.540	-0.470	0.340	1.990
2020/01/31 02:09:52.2	96.540	-0.460	0.320	2.010
2020/01/31 02:09:52.3	96.540	-0.450	0.300	2.040
2020/01/31 02:09:52.4	96.540	-0.440	0.280	2.060
2020/01/31 02:09:52.5	96.540	-0.420	0.250	2.070
2020/01/31 02:09:52.6	96.550	-0.400	0.220	2.080
2020/01/31 02:09:52.7	96.550	-0.380	0.180	2.090
2020/01/31 02:09:52.8	96.550	-0.360	0.140	2.090
2020/01/31 02:09:52.9	96.560	-0.330	0.090	2.090
2020/01/31 02:09:53.0	96.570	-0.300	0.050	2.090
2020/01/31 02:09:53.1	96.570	-0.270	-0.010	2.080
2020/01/31 02:09:53.2	96.580	-0.230	-0.060	2.070
2020/01/31 02:09:53.3	96.580	-0.200	-0.110	2.050
2020/01/31 02:09:53.4	96.590	-0.160	-0.170	2.020
2020/01/31 02:09:53.5	96.600	-0.120	-0.230	2.000
2020/01/31 02:09:53.6	96.610	-0.080	-0.280	1.970
2020/01/31 02:09:53.7	96.620	-0.040	-0.340	1.930
2020/01/31 02:09:53.8	96.630	-0.000	-0.400	1.890
2020/01/31 02:09:53.9	96.640	0.040	-0.450	1.850
2020/01/31 02:09:54.0	96.650	0.080	-0.510	1.810
2020/01/31 02:09:54.1	96.650	0.120	-0.560	1.760
2020/01/31 02:09:54.2	96.660	0.170	-0.610	1.710
2020/01/31 02:09:54.3	96.670	0.210	-0.660	1.660
2020/01/31 02:09:54.4	96.670	0.250	-0.700	1.600
2020/01/31 02:09:54.5	96.670	0.280	-0.740	1.550
2020/01/31 02:09:54.6	96.670	0.320	-0.770	1.490
2020/01/31 02:09:54.7	96.670	0.360	-0.800	1.430
2020/01/31 02:09:54.8	96.670	0.390	-0.830	1.370
2020/01/31 02:09:54.9	96.670	0.420	-0.850	1.310
2020/01/31 02:09:55.0	96.660	0.450	-0.870	1.250
2020/01/31 02:09:55.1	96.650	0.480	-0.880	1.200
2020/01/31 02:09:55.2	96.640	0.500	-0.880	1.140
2020/01/31 02:09:55.3	96.640	0.520	-0.880	1.080
2020/01/31 02:09:55.4	96.620	0.540	-0.880	1.020
2020/01/31 02:09:55.5	96.610	0.550	-0.860	0.970
2020/01/31 02:09:55.6	96.600	0.560	-0.850	0.910
2020/01/31 02:09:55.7	96.590	0.570	-0.830	0.850
2020/01/31 02:09:55.8	96.580	0.570	-0.800	0.800
2020/01/31 02:09:55.9	96.570	0.570	-0.770	0.740
2020/01/31 02:09:56.0	96.560	0.570	-0.730	0.690
2020/01/31 02:09:56.1	96.530	0.560	-0.690	0.640
2020/01/31 02:09:56.2	96.520	0.540	-0.640	0.590
2020/01/31 02:09:56.3	96.510	0.530	-0.600	0.540
2020/01/31 02:09:56.4	96.500	0.510	-0.540	0.500
2020/01/31 02:09:56.5	96.490	0.490	-0.490	0.450
2020/01/31 02:09:56.6	96.490	0.460	-0.430	0.410
2020/01/31 02:09:56.7	96.480	0.430	-0.370	0.370
2020/01/31 02:09:56.8	96.470	0.400	-0.310	0.330
2020/01/31 02:09:56.9	96.460	0.360	-0.250	0.300
2020/01/31 02:09:57.0	96.450	0.330	-0.190	0.270
2020/01/31 02:09:57.1	96.440	0.290	-0.120	0.250
2020/01/31 02:09:57.2	96.430	0.250	-0.060	0.220
2020/01/31 02:09:57.3	96.420	0.210	0.000	0.200
2020/01/31 02:09:57.4	96.410	0.160	0.060	0.180
2020/01/31 02:09:57.5	96.400	0.120	0.120	0.160
2020/01/31 02:09:57.6	96.390	0.070	0.170	0.150
2020/01/31 02:09:57.7	96.380	0.030	0.230	0.140
2020/01/31 02:09:57.8	96.380	-0.020	0.280	0.130
2020/01/31 02:09:57.9	96.370	-0.060	0.320	0.120
2020/01/31 02:09:58.0	96.360	-0.110	0.360	0.110
2020/01/31 02:09:58.1	96.340	-0.150	0.400	0.110
2020/01/31 02:09:58.2	96.330	-0.190	0.430	0.100
2020/01/31 02:09:58.3	96.320	-0.240	0.460	0.100
2020/01/31 02:09:58.4	96.320	-0.270	0.490	0.090
2020/01/31 02:09:58.5	96.310	-0.310	0.510	0.090
2020/01/31 02:09:58.6	96.310	-0.350	0.520	0.080
2020/01/31 02:09:58.7	96.300	-0.380	0.530	0.080
2020/01/31 02:09:58.8	96.300	-0.410	0.540	0.070
2020/01/31 02:09:58.9	96.290	-0.440	0.540	0.070
2020/01/31 02:09:59.0	96.290	-0.460	0.530	0.060
2020/01/31 02:09:59.1	96.290	-0.480	0.520	0.060
2020/01/31 02:09:59.2	96.290	-0.500	0.510	0.050
2020/01/31 02:09:59.3	96.300	-0.510	0.490	0.050
2020/01/31 02:09:59.4	96.300	-0.520	0.460	0.040
2020/01/31 02:09:59.5	96.310	-0.530	0.430	0.030
2020/01/31 02:09:59.6	96.310	-0.530	0.400	0.020
2020/01/31 02:09:59.7	96.320	-0.530	0.360	0.020
2020/01/31 02:09:59.8	96.340	-0.530	0.320	0.010
2020/01/31 02:09:59.9	96.350	-0.520	0.280	0.000
2020/01/31 02:10:00.0	96.360	-0.510	0.230	-0.000
2020/01/31 02:10:00.1	96.390	-0.490	0.180	-0.000
2020/01/31 02:10:00.2	96.410	-0.480	0.130	-0.010
2020/01/31 02:10:00.3	96.430	-0.460	0.070	-0.010
2020/01/31 02:10:00.4	96.450	-0.430	0.020	-0.020
2020/01/31 02:10:00.5	96.470	-0.410	-0.040	-0.020
2020/01/31 02:10:00.6	96.500	-0.380	-0.090	-0.020
2020/01/31 02:10:00.7	96.530	-0.350	-0.150	-0.020
2020/01/31 02:10:00.8	96.560	-0.320	-0.200	-0.010
2020/01/31 02:10:00.9	96.590	-0.280	-0.250	-0.010
2020/01/31 02:10:01.0	96.620	-0.250	-0.300	0.000
2020/01/31 02:10:01.1	96.650	-0.210	-0.350	0.010
2020/01/31 02:10:01.2	96.680	-0.170	-0.400	0.020
2020/01/31 02:10:01.3	96.710	-0.130	-0.440	0.040
2020/01/31 02:10:01.4	96.740	-0.090	-0.480	0.060
2020/01/31 02:10:01.5	96.780	-0.050	-0.520	0.080
2020/01/31 02:10:01.6	96.810	-0.010	-0.560	0.100
2020/01/31 02:10:01.7	96.830	0.020	-0.590	0.130
2020/01/31 02:10:01.8	96.860	0.060	-0.620	0.160
2020/01/31 02:10:01.9	96.890	0.100	-0.640	0.190
2020/01/31 02:10:02.0	96.910	0.130	-0.660	0.230
2020/01/31 02:10:02.1	96.940	0.170	-0.680	0.270
2020/01/31 02:10:02.2	96.960	0.200	-0.690	0.310
2020/01/31 02:10:02.3	96.970	0.230	-0.700	0.360
2020/01/31 02:10:02.4	96.990	0.260	-0.700	0.410
2020/01/31 02:10:02.5	97.000	0.280	-0.700	0.460
2020/01/31 02:10:02.6	97.000	0.300	-0.690	0.510
2020/01/31 02:10:02.7	97.010	0.320	-0.680	0.560
2020/01/31 02:10:02.8	97.010	0.340	-0.670	0.620
2020/01/31 02:10:02.9	97.000	0.350	-0.650	0.680
2020/01/31 02:10:03.0	97.000	0.360	-0.630	0.740
2020/01/31 02:10:03.1	97.000	0.370	-0.600	0.800
2020/01/31 02:10:03.2	96.990	0.370	-0.570	0.870
2020/01/31 02:10:03.3	96.970	0.370	-0.530	0.930
2020/01/31 02:10:03.4	96.950	0.360	-0.490	1.000
2020/01/31 02:10:03.5	96.930	0.350	-0.450	1.060
2020/01/31 02:10:03.6	96.900	0.340	-0.410	1.130
2020/01/31 02:10:03.7	96.870	0.320	-0.360	1.190
2020/01/31 02:10:03.8	96.840	0.310	-0.310	1.260
2020/01/31 02:10:03.9	96.810	0.280	-0.260	1.320
2020/01/31 02:10:04.0	96.770	0.260	-0.210	1.380
2020/01/31 02:10:04.1	96.740	0.230	-0.150	1.450
2020/01/31 02:10:04.2	96.700	0.200	-0.100	1.510
2020/01/31 02:10:04.3	96.660	0.170	-0.040	1.560
2020/01/31 02:10:04.4	96.620	0.140	0.010	1.610
2020/01/31 02:10:04.5	96.570	0.110	0.070	1.670
2020/01/31 02:10:04.6	96.530	0.070	0.120	1.710
2020/01/31 02:10:04.7	96.490	0.040	0.170	1.760
2020/01/31 02:10:04.8	96.440	0.000	0.220	1.800
2020/01/31 02:10:04.9	96.400	-0.030	0.270	1.840
2020/01/31 02:10:05.0	96.360	-0.060	0.310	1.880
2020/01/31 02:10:05.1	96.330	-0.090	0.360	1.910
2020/01/31 02:10:05.2	96.290	-0.120	0.390	1.930
2020/01/31 02:10:05.3	96.250	-0.150	0.430	1.960
2020/01/31 02:10:05.4	96.210	-0.180	0.450	1.980
2020/01/31 02:10:05.5	96.170	-0.200	0.470	1.990
2020/01/31 02:10:05.6	96.140	-0.220	0.490	2.000
2020/01/31 02:10:05.7	96.110	-0.240	0.500	2.000
2020/01/31 02:10:05.8	96.080	-0.250	0.500	2.000
2020/01/31 02:10:05.9	96.060	-0.260	0.490	2.000
2020/01/31 02:10:06.0	96.040	-0.260	0.480	1.990
2020/01/31 02:10:06.1	96.020	-0.260	0.460	1.970
2020/01/31 02:10:06.2	96.010	-0.260	0.430	1.950
2020/01/31 02:10:06.3	96.000	-0.250	0.400	1.920
2020/01/31 02:10:06.4	95.990	-0.240	0.360	1.890
2020/01/31 02:10:06.5	95.990	-0.220	0.310	1.850
2020/01/31 02:10:06.6	95.980	-0.200	0.250	1.810
2020/01/31 02:10:06.7	95.990	-0.170	0.190	1.770
2020/01/31 02:10:06.8	95.990	-0.140	0.130	1.720
2020/01/31 02:10:06.9	96.000	-0.110	0.060	1.660
2020/01/31 02:10:07.0	96.020	-0.080	-0.010	1.600
2020/01/31 02:10:07.1	96.020	-0.040	-0.090	1.530
2020/01/31 02:10:07.2	96.040	-0.000	-0.170	1.470
2020/01/31 02:10:07.3	96.060	0.040	-0.250	1.400
2020/01/31 02:10:07.4	96.080	0.080	-0.330	1.330
2020/01/31 02:10:07.5	96.100	0.120	-0.410	1.260
2020/01/31 02:10:07.6	96.120	0.160	-0.480	1.190
2020/01/31 02:10:07.7	96.140	0.200	-0.560	1.110
2020/01/31 02:10:07.8	96.170	0.240	-0.630	1.030
2020/01/31 02:10:07.9	96.190	0.280	-0.690	0.960
2020/01/31 02:10:08.0	96.210	0.310	-0.750	0.880
2020/01/31 02:10:08.1	96.230	0.350	-0.800	0.810
2020/01/31 02:10:08.2	96.250	0.380	-0.850	0.730
2020/01/31 02:10:08.3	96.270	0.400	-0.890	0.650
2020/01/31 02:10:08.4	96.290	0.430	-0.920	0.570
2020/01/31 02:10:08.5	96.300	0.450	-0.940	0.500
2020/01/31 02:10:08.6	96.320	0.460	-0.950	0.420
2020/01/31 02:10:08.7	96.340	0.470	-0.960	0.340
2020/01/31 02:10:08.8	96.350	0.480	-0.950	0.270
2020/01/31 02:10:08.9	96.360	0.480	-0.940	0.200
2020/01/31 02:10:09.0	96.370	0.480	-0.920	0.130
2020/01/31 02:10:09.1	96.370	0.470	-0.890	0.050
2020/01/31 02:10:09.2	96.380	0.460	-0.860	-0.010
2020/01/31 02:10:09.3	96.380	0.440	-0.810	-0.070
2020/01/31 02:10:09.4	96.380	0.430	-0.760	-0.120
2020/01/31 02:10:09.5	96.390	0.400	-0.710	-0.170
2020/01/31 02:10:09.6	96.380	0.380	-0.650	-0.220
2020/01/31 02:10:09.7	96.380	0.350	-0.580	-0.260
2020/01/31 02:10:09.8	96.370	0.310	-0.520	-0.300
2020/01/31 02:10:09.9	96.370	0.280	-0.450	-0.330
2020/01/31 02:10:10.0	96.360	0.240	-0.370	-0.360
2020/01/31 02:10:10.1	96.340	0.200	-0.290	-0.370
2020/01/31 02:10:10.2	96.330	0.170	-0.220	-0.390
2020/01/31 02:10:10.3	96.310	0.130	-0.150	-0.390
2020/01/31 02:10:10.4	96.300	0.090	-0.080	-0.400
2020/01/31 02:10:10.5	96.280	0.050	-0.010	-0.400
2020/01/31 02:10:10.6	96.260	0.010	0.050	-0.390
2020/01/31 02:10:10.7	96.230	-0.030	0.110	-0.370
2020/01/31 02:10:10.8	96.210	-0.070	0.170	-0.360
2020/01/31 02:10:10.9	96.190	-0.100	0.220	-0.330
2020/01/31 02:10:11.0	96.160	-0.140	0.260	-0.300
2020/01/31 02:10:11.1	96.140	-0.170	0.300	-0.270
2020/01/31 02:10:11.2	96.110	-0.190	0.330	-0.240
2020/01/31 02:10:11.3	96.090	-0.220	0.350	-0.200
2020/01/31 02:10:11.4	96.060	-0.240	0.370	-0.150
2020/01/31 02:10:11.5	96.040	-0.250	0.380	-0.110
2020/01/31 02:10:11.6	96.020	-0.270	0.390	-0.060
2020/01/31 02:10:11.7	95.990	-0.280	0.380	-0.010
2020/01/31 02:10:11.8	95.970	-0.290	0.380	0.030
2020/01/31 02:10:11.9	95.950	-0.290	0.360	0.080
2020/01/31 02:10:12.0	95.940	-0.300	0.340	0.130
2020/01/31 02:10:12.1	95.920	-0.300	0.320	0.190
2020/01/31 02:10:12.2	95.910	-0.290	0.290	0.240
2020/01/31 02:10:12.3	95.900	-0.290	0.260	0.290
2020/01/31 02:10:12.4	95.890	-0.280	0.230	0.340
2020/01/31 02:10:12.5	95.880	-0.270	0.190	0.390
2020/01/31 02:10:12.6	95.870	-0.260	0.150	0.440
2020/01/31 02:10:12.7	95.860	-0.250	0.110	0.480
2020/01/31 02:10:12.8	95.860	-0.240	0.080	0.530
2020/01/31 02:10:12.9	95.850	-0.230	0.040	0.580
2020/01/31 02:10:13.0	95.850	-0.220	0.000	0.620
2020/01/31 02:10:13.1	95.850	-0.220	-0.030	0.660
2020/01/31 02:10:13.2	95.850	-0.210	-0.060	0.710
2020/01/31 02:10:13.3	95.850	-0.200	-0.090	0.750
2020/01/31 02:10:13.4	95.850	-0.190	-0.120	0.800
2020/01/31 02:10:13.5	95.850	-0.190	-0.140	0.840
2020/01/31 02:10:13.6	95.850	-0.190	-0.160	0.880
2020/01/31 02:10:13.7	95.850	-0.190	-0.180	0.920
2020/01/31 02:10:13.8	95.850	-0.190	-0.190	0.960
2020/01/31 02:10:13.9	95.850	-0.190	-0.200	1.000
2020/01/31 02:10:14.0	95.850	-0.200	-0.200	1.030
2020/01/31 02:10:14.1	95.860	-0.200	-0.200	1.080
2020/01/31 02:10:14.2	95.870	-0.210	-0.200	1.110
2020/01/31 02:10:14.3	95.870	-0.220	-0.190	1.140
2020/01/31 02:10:14.4	95.870	-0.230	-0.180	1.170
2020/01/31 02:10:14.5	95.880	-0.250	-0.170	1.190
2020/01/31 02:10:14.6	95.880	-0.260	-0.160	1.220
2020/01/31 02:10:14.7	95.890	-0.270	-0.140	1.240
2020/01/31 02:10:14.8	95.890	-0.290	-0.120	1.260
2020/01/31 02:10:14.9	95.900	-0.310	-0.090	1.280
2020/01/31 02:10:15.0	95.900	-0.320	-0.070	1.300
2020/01/31 02:10:15.1	95.890	-0.340	-0.040	1.310
2020/01/31 02:10:15.2	95.900	-0.350	-0.020	1.330
2020/01/31 02:10:15.3	95.900	-0.370	0.010	1.340
2020/01/31 02:10:15.4	95.900	-0.380	0.030	1.350
2020/01/31 02:10:15.5	95.900	-0.390	0.050	1.370
2020/01/31 02:10:15.6	95.900	-0.400	0.070	1.380
2020/01/31 02:10:15.7	95.900	-0.410	0.090	1.390
2020/01/31 02:10:15.8	95.900	-0.410	0.110	1.400
2020/01/31 02:10:15.9	95.890	-0.410	0.130	1.410
2020/01/31 02:10:16.0	95.890	-0.410	0.140	1.430
2020/01/31 02:10:16.1	95.890	-0.400	0.150	1.440
2020/01/31 02:10:16.2	95.890	-0.390	0.150	1.450
2020/01/31 02:10:16.3	95.880	-0.380	0.150	1.460
2020/01/31 02:10:16.4	95.880	-0.360	0.140	1.470
2020/01/31 02:10:16.5	95.870	-0.340	0.130	1.480
2020/01/31 02:10:16.6	95.860	-0.320	0.120	1.480
2020/01/31 02:10:16.7	95.850	-0.290	0.100	1.490
2020/01/31 02:10:16.8	95.850	-0.260	0.080	1.490
2020/01/31 02:10:16.9	95.840	-0.230	0.050	1.500
2020/01/31 02:10:17.0	95.830	-0.190	0.020	1.500
2020/01/31 02:10:17.1	95.830	-0.150	-0.020	1.500
2020/01/31 02:10:17.2	95.830	-0.110	-0.060	1.490
2020/01/31 02:10:17.3	95.820	-0.060	-0.100	1.480
2020/01/31 02:10:17.4	95.820	-0.020	-0.150	1.470
2020/01/31 02:10:17.5	95.810	0.030	-0.200	1.460
2020/01/31 02:10:17.6	95.810	0.080	-0.250	1.440
2020/01/31 02:10:17.7	95.810	0.130	-0.300	1.420
2020/01/31 02:10:17.8	95.810	0.180	-0.360	1.390
2020/01/31 02:10:17.9	95.810	0.230	-0.410	1.370
2020/01/31 02:10:18.0	95.810	0.280	-0.470	1.340
2020/01/31 02:10:18.1	95.800	0.330	-0.530	1.310
2020/01/31 02:10:18.2	95.800	0.370	-0.580	1.280
2020/01/31 02:10:18.3	95.800	0.420	-0.630	1.250
2020/01/31 02:10:18.4	95.800	0.460	-0.670	1.210
2020/01/31 02:10:18.5	95.790	0.510	-0.710	1.180
2020/01/31 02:10:18.6	95.790	0.540	-0.750	1.150
2020/01/31 02:10:18.7	95.780	0.580	-0.790	1.120
2020/01/31 02:10:18.8	95.780	0.610	-0.820	1.090
2020/01/31 02:10:18.9	95.770	0.640	-0.840	1.060
2020/01/31 02:10:19.0	95.760	0.660	-0.860	1.030
2020/01/31 02:10:19.1	95.750	0.680	-0.860	1.010
2020/01/31 02:10:19.2	95.740	0.700	-0.860	0.980
2020/01/31 02:10:19.3	95.720	0.710	-0.860	0.960
2020/01/31 02:10:19.4	95.700	0.720	-0.850	0.940
2020/01/31 02:10:19.5	95.680	0.720	-0.840	0.920
2020/01/31 02:10:19.6	95.660	0.720	-0.820	0.900
2020/01/31 02:10:19.7	95.640	0.710	-0.790	0.890
2020/01/31 02:10:19.8	95.620	0.700	-0.750	0.880
2020/01/31 02:10:19.9	95.590	0.680	-0.710	0.870
2020/01/31 02:10:20.0	95.570	0.660	-0.670	0.860
2020/01/31 02:10:20.1	95.530	0.640	-0.620	0.850
2020/01/31 02:10:20.2	95.500	0.610	-0.560	0.840
2020/01/31 02:10:20.3	95.480	0.580	-0.500	0.830
2020/01/31 02:10:20.4	95.450	0.550	-0.440	0.830
2020/01/31 02:10:20.5	95.430	0.520	-0.370	0.820
2020/01/31 02:10:20.6	95.400	0.480	-0.300	0.810
2020/01/31 02:10:20.7	95.380	0.440	-0.230	0.790
2020/01/31 02:10:20.8	95.350	0.400	-0.160	0.780
2020/01/31 02:10:20.9	95.330	0.350	-0.090	0.760
2020/01/31 02:10:21.0	95.310	0.310	-0.020	0.750
2020/01/31 02:10:21.1	95.290	0.260	0.050	0.730
2020/01/31 02:10:21.2	95.270	0.220	0.120	0.710
2020/01/31 02:10:21.3	95.250	0.170	0.190	0.690
2020/01/31 02:10:21.4	95.240	0.130	0.250	0.660
2020/01/31 02:10:21.5	95.220	0.080	0.310	0.630
2020/01/31 02:10:21.6	95.210	0.040	0.370	0.600
2020/01/31 02:10:21.7	95.200	-0.010	0.420	0.570
2020/01/31 02:10:21.8	95.200	-0.050	0.470	0.530
2020/01/31 02:10:21.9	95.190	-0.090	0.510	0.490
2020/01/31 02:10:22.0	95.190	-0.130	0.540	0.450
2020/01/31 02:10:22.1	95.180	-0.160	0.580	0.410
2020/01/31 02:10:22.2	95.180	-0.200	0.600	0.370
2020/01/31 02:10:22.3	95.180	-0.230	0.620	0.330
2020/01/31 02:10:22.4	95.190	-0.250	0.630	0.290
2020/01/31 02:10:22.5	95.190	-0.280	0.630	0.240
2020/01/31 02:10:22.6	95.200	-0.300	0.630	0.200
2020/01/31 02:10:22.7	95.210	-0.320	0.620	0.160
2020/01/31 02:10:22.8	95.220	-0.330	0.600	0.120
2020/01/31 02:10:22.9	95.230	-0.340	0.580	0.080
2020/01/31 02:10:23.0	95.250	-0.350	0.550	0.050
2020/01/31 02:10:23.1	95.260	-0.360	0.520	0.020
2020/01/31 02:10:23.2	95.270	-0.360	0.470	-0.010
2020/01/31 02:10:23.3	95.290	-0.360	0.430	-0.040
2020/01/31 02:10:23.4	95.300	-0.350	0.370	-0.060
2020/01/31 02:10:23.5	95.320	-0.350	0.320	-0.080
2020/01/31 02:10:23.6	95.330	-0.340	0.250	-0.090
2020/01/31 02:10:23.7	95.350	-0.320	0.190	-0.100
2020/01/31 02:10:23.8	95.360	-0.310	0.120	-0.110
2020/01/31 02:10:23.9	95.380	-0.290	0.040	-0.110
2020/01/31 02:10:24.0	95.390	-0.270	-0.030	-0.110
2020/01/31 02:10:24.1	95.420	-0.250	-0.110	-0.100
2020/01/31 02:10:24.2	95.440	-0.230	-0.190	-0.090
2020/01/31 02:10:24.3	95.450	-0.210	-0.260	-0.070
2020/01/31 02:10:24.4	95.470	-0.180	-0.340	-0.050
2020/01/31 02:10:24.5	95.480	-0.160	-0.420	-0.030
2020/01/31 02:10:24.6	95.490	-0.130	-0.490	-0.000
2020/01/31 02:10:24.7	95.510	-0.110	-0.560	0.030
2020/01/31 02:10:24.8	95.520	-0.090	-0.630	0.060
2020/01/31 02:10:24.9	95.530	-0.060	-0.700	0.100
2020/01/31 02:10:25.0	95.540	-0.040	-0.760	0.140
2020/01/31 02:10:25.1	95.550	-0.020	-0.810	0.180
2020/01/31 02:10:25.2	95.560	0.010	-0.860	0.220
2020/01/31 02:10:25.3	95.570	0.020	-0.900	0.270
2020/01/31 02:10:25.4	95.580	0.040	-0.930	0.310
2020/01/31 02:10:25.5	95.590	0.060	-0.960	0.360
2020/01/31 02:10:25.6	95.600	0.070	-0.980	0.410
2020/01/31 02:10:25.7	95.600	0.080	-0.990	0.460
2020/01/31 02:10:25.8	95.610	0.090	-0.990	0.510
2020/01/31 02:10:25.9	95.610	0.100	-0.990	0.560
2020/01/31 02:10:26.0	95.620	0.100	-0.970	0.610
2020/01/31 02:10:26.1	95.630	0.100	-0.950	0.670
2020/01/31 02:10:26.2	95.630	0.100	-0.920	0.720
2020/01/31 02:10:26.3	95.630	0.090	-0.880	0.770
2020/01/31 02:10:26.4	95.630	0.090	-0.830	0.830
2020/01/31 02:10:26.5	95.630	0.070	-0.780	0.880
2020/01/31 02:10:26.6	95.630	0.060	-0.710	0.930
2020/01/31 02:10:26.7	95.630	0.050	-0.650	0.980
2020/01/31 02:10:26.8	95.620	0.030	-0.570	1.030
2020/01/31 02:10:26.9	95.620	0.010	-0.490	1.080
2020/01/31 02:10:27.0	95.610	-0.020	-0.410	1.130
2020/01/31 02:10:27.1	95.610	-0.040	-0.320	1.180
2020/01/31 02:10:27.2	95.600	-0.070	-0.230	1.230
2020/01/31 02:10:27.3	95.590	-0.090	-0.130	1.280
2020/01/31 02:10:27.4	95.580	-0.120	-0.040	1.330
2020/01/31 02:10:27.5	95.560	-0.150	0.050	1.380
2020/01/31 02:10:27.6	95.550	-0.180	0.150	1.430
2020/01/31 02:10:27.7	95.530	-0.210	0.240	1.470
2020/01/31 02:10:27.8	95.510	-0.240	0.330	1.520
2020/01/31 02:10:27.9	95.490	-0.270	0.410	1.570
2020/01/31 02:10:28.0	95.470	-0.290	0.490	1.620
2020/01/31 02:10:28.1	95.440	-0.320	0.560	1.670
2020/01/31 02:10:28.2	95.410	-0.340	0.630	1.720
2020/01/31 02:10:28.3	95.390	-0.370	0.690	1.760
2020/01/31 02:10:28.4	95.360	-0.390	0.740	1.810
2020/01/31 02:10:28.5	95.330	-0.400	0.790	1.850
2020/01/31 02:10:28.6	95.300	-0.420	0.820	1.900
2020/01/31 02:10:28.7	95.270	-0.430	0.840	1.940
2020/01/31 02:10:28.8	95.240	-0.430	0.850	1.970
2020/01/31 02:10:28.9	95.210	-0.440	0.860	2.010
2020/01/31 02:10:29.0	95.190	-0.430	0.850	2.040
2020/01/31 02:10:29.1	95.180	-0.430	0.830	2.070
2020/01/31 02:10:29.2	95.160	-0.420	0.800	2.100
2020/01/31 02:10:29.3	95.130	-0.400	0.760	2.110
2020/01/31 02:10:29.4	95.110	-0.380	0.700	2.130
2020/01/31 02:10:29.5	95.100	-0.360	0.640	2.140
2020/01/31 02:10:29.6	95.080	-0.330	0.570	2.140
2020/01/31 02:10:29.7	95.070	-0.300	0.490	2.140
2020/01/31 02:10:29.8	95.060	-0.270	0.410	2.130
2020/01/31 02:10:29.9	95.060	-0.230	0.320	2.110
2020/01/31 02:10:30.0	95.060	-0.180	0.220	2.090
2020/01/31 02:10:30.1	95.060	-0.140	0.110	2.070
2020/01/31 02:10:30.2	95.070	-0.090	0.010	2.030
2020/01/31 02:10:30.3	95.080	-0.040	-0.100	2.000
2020/01/31 02:10:30.4	95.090	0.010	-0.210	1.950
2020/01/31 02:10:30.5	95.110	0.060	-0.320	1.900
2020/01/31 02:10:30.6	95.130	0.120	-0.430	1.850
2020/01/31 02:10:30.7	95.150	0.170	-0.540	1.790
2020/01/31 02:10:30.8	95.170	0.220	-0.640	1.730
2020/01/31 02:10:30.9	95.190	0.270	-0.740	1.660
2020/01/31 02:10:31.0	95.210	0.320	-0.830	1.590
2020/01/31 02:10:31.1	95.250	0.370	-0.910	1.520
2020/01/31 02:10:31.2	95.270	0.420	-0.990	1.440
2020/01/31 02:10:31.3	95.300	0.460	-1.060	1.360
2020/01/31 02:10:31.4	95.320	0.500	-1.110	1.280
2020/01/31 02:10:31.5	95.350	0.530	-1.160	1.200
2020/01/31 02:10:31.6	95.370	0.560	-1.190	1.120
2020/01/31 02:10:31.7	95.400	0.590	-1.210	1.040
2020/01/31 02:10:31.8	95.420	0.610	-1.220	0.950
2020/01/31 02:10:31.9	95.440	0.630	-1.220	0.870
2020/01/31 02:10:32.0	95.460	0.640	-1.210	0.790
2020/01/31 02:10:32.1	95.460	0.640	-1.180	0.710
2020/01/31 02:10:32.2	95.480	0.640	-1.140	0.630
2020/01/31 02:10:32.3	95.490	0.640	-1.090	0.560
2020/01/31 02:10:32.4	95.510	0.630	-1.030	0.480
2020/01/31 02:10:32.5	95.520	0.610	-0.960	0.420
2020/01/31 02:10:32.6	95.520	0.590	-0.880	0.350
2020/01/31 02:10:32.7	95.530	0.570	-0.800	0.290
2020/01/31 02:10:32.8	95.530	0.540	-0.700	0.240
2020/01/31 02:10:32.9	95.540	0.500	-0.600	0.190
2020/01/31 02:10:33.0	95.530	0.460	-0.490	0.140
2020/01/31 02:10:33.1	95.530	0.420	-0.370	0.100
2020/01/31 02:10:33.2	95.530	0.380	-0.260	0.070
2020/01/31 02:10:33.3	95.520	0.330	-0.150	0.030
2020/01/31 02:10:33.4	95.510	0.280	-0.030	0.010
2020/01/31 02:10:33.5	95.500	0.220	0.080	-0.010
2020/01/31 02:10:33.6	95.490	0.170	0.190	-0.030
2020/01/31 02:10:33.7	95.480	0.110	0.300	-0.040
2020/01/31 02:10:33.8	95.470	0.060	0.400	-0.050
2020/01/31 02:10:33.9	95.460	0.000	0.500	-0.060
2020/01/31 02:10:34.0	95.450	-0.050	0.590	-0.050
2020/01/31 02:10:34.1	95.430	-0.100	0.670	-0.050
2020/01/31 02:10:34.2	95.410	-0.160	0.740	-0.040
2020/01/31 02:10:34.3	95.400	-0.200	0.810	-0.030
2020/01/31 02:10:34.4	95.380	-0.250	0.860	-0.010
2020/01/31 02:10:34.5	95.360	-0.300	0.900	0.010
2020/01/31 02:10:34.6	95.340	-0.340	0.930	0.040
2020/01/31 02:10:34.7	95.330	-0.370	0.960	0.070
2020/01/31 02:10:34.8	95.310	-0.410	0.960	0.100
2020/01/31 02:10:34.9	95.290	-0.440	0.960	0.130
2020/01/31 02:10:35.0	95.270	-0.460	0.950	0.170
2020/01/31 02:10:35.1	95.240	-0.480	0.930	0.220
2020/01/31 02:10:35.2	95.220	-0.500	0.890	0.250
2020/01/31 02:10:35.3	95.200	-0.510	0.850	0.300
2020/01/31 02:10:35.4	95.180	-0.520	0.800	0.340
2020/01/31 02:10:35.5	95.170	-0.520	0.730	0.380
2020/01/31 02:10:35.6	95.150	-0.520	0.660	0.410
2020/01/31 02:10:35.7	95.140	-0.510	0.580	0.450
2020/01/31 02:10:35.8	95.130	-0.500	0.500	0.490
2020/01/31 02:10:35.9	95.130	-0.480	0.400	0.520
2020/01/31 02:10:36.0	95.120	-0.460	0.300	0.550
2020/01/31 02:10:36.1	95.110	-0.440	0.200	0.570
2020/01/31 02:10:36.2	95.120	-0.420	0.090	0.600
2020/01/31 02:10:36.3	95.120	-0.390	-0.020	0.610
2020/01/31 02:10:36.4	95.130	-0.360	-0.130	0.630
2020/01/31 02:10:36.5	95.140	-0.320	-0.240	0.650
2020/01/31 02:10:36.6	95.150	-0.290	-0.350	0.660
2020/01/31 02:10:36.7	95.160	-0.250	-0.460	0.670
2020/01/31 02:10:36.8	95.180	-0.210	-0.560	0.680
2020/01/31 02:10:36.9	95.200	-0.170	-0.670	0.680
2020/01/31 02:10:37.0	95.220	-0.130	-0.770	0.690
2020/01/31 02:10:37.1	95.240	-0.100	-0.860	0.700
2020/01/31 02:10:37.2	95.260	-0.060	-0.950	0.700
2020/01/31 02:10:37.3	95.280	-0.020	-1.030	0.710
2020/01/31 02:10:37.4	95.300	0.020	-1.100	0.720
2020/01/31 02:10:37.5	95.320	0.050	-1.170	0.730
2020/01/31 02:10:37.6	95.340	0.080	-1.220	0.740
2020/01/31 02:10:37.7	95.360	0.110	-1.270	0.750
2020/01/31 02:10:37.8	95.380	0.140	-1.310	0.770
2020/01/31 02:10:37.9	95.400	0.160	-1.330	0.790
2020/01/31 02:10:38.0	95.410	0.180	-1.340	0.810
2020/01/31 02:10:38.1	95.410	0.200	-1.350	0.850
2020/01/31 02:10:38.2	95.420	0.220	-1.340	0.870
2020/01/31 02:10:38.3	95.430	0.230	-1.320	0.910
2020/01/31 02:10:38.4	95.440	0.240	-1.300	0.940
2020/01/31 02:10:38.5	95.440	0.240	-1.260	0.980
2020/01/31 02:10:38.6	95.450	0.240	-1.210	1.020
2020/01/31 02:10:38.7	95.450	0.240	-1.150	1.060
2020/01/31 02:10:38.8	95.450	0.230	-1.080	1.100
2020/01/31 02:10:38.9	95.450	0.220	-1.000	1.150
2020/01/31 02:10:39.0	95.450	0.210	-0.920	1.190
2020/01/31 02:10:39.1	95.450	0.190	-0.820	1.240
2020/01/31 02:10:39.2	95.440	0.170	-0.720	1.290
2020/01/31 02:10:39.3	95.440	0.150	-0.620	1.330
2020/01/31 02:10:39.4	95.430	0.130	-0.510	1.380
2020/01/31 02:10:39.5	95.430	0.100	-0.400	1.420
2020/01/31 02:10:39.6	95.420	0.070	-0.280	1.470
2020/01/31 02:10:39.7	95.420	0.040	-0.170	1.510
2020/01/31 02:10:39.8	95.410	0.010	-0.050	1.550
2020/01/31 02:10:39.9	95.400	-0.020	0.060	1.590
2020/01/31 02:10:40.0	95.390	-0.050	0.170	1.630
2020/01/31 02:10:40.1	95.380	-0.080	0.280	1.670
2020/01/31 02:10:40.2	95.370	-0.110	0.390	1.700
2020/01/31 02:10:40.3	95.360	-0.140	0.490	1.730
2020/01/31 02:10:40.4	95.350	-0.170	0.580	1.750
2020/01/31 02:10:40.5	95.340	-0.200	0.660	1.780
2020/01/31 02:10:40.6	95.330	-0.220	0.740	1.800
2020/01/31 02:10:40.7	95.320	-0.240	0.810	1.810
2020/01/31 02:10:40.8	95.310	-0.260	0.870	1.830
2020/01/31 02:10:40.9	95.290	-0.280	0.920	1.840
2020/01/31 02:10:41.0	95.280	-0.290	0.960	1.840
2020/01/31 02:10:41.1	95.250	-0.290	0.990	1.850
2020/01/31 02:10:41.2	95.240	-0.300	1.000	1.850
2020/01/31 02:10:41.3	95.230	-0.300	1.010	1.840
2020/01/31 02:10:41.4	95.220	-0.290	1.000	1.830
2020/01/31 02:10:41.5	95.200	-0.280	0.980	1.820
2020/01/31 02:10:41.6	95.190	-0.260	0.960	1.800
2020/01/31 02:10:41.7	95.180	-0.240	0.920	1.780
2020/01/31 02:10:41.8	95.180	-0.220	0.870	1.750
2020/01/31 02:10:41.9	95.170	-0.190	0.810	1.710
2020/01/31 02:10:42.0	95.160	-0.160	0.740	1.670
2020/01/31 02:10:42.1	95.150	-0.120	0.660	1.630
2020/01/31 02:10:42.2	95.150	-0.080	0.580	1.580
2020/01/31 02:10:42.3	95.150	-0.040	0.490	1.530
2020/01/31 02:10:42.4	95.150	0.000	0.390	1.470
2020/01/31 02:10:42.5	95.160	0.050	0.290	1.410
2020/01/31 02:10:42.6	95.160	0.100	0.190	1.350
2020/01/31 02:10:42.7	95.170	0.150	0.080	1.280
2020/01/31 02:10:42.8	95.180	0.200	-0.020	1.210
2020/01/31 02:10:42.9	95.190	0.240	-0.130	1.140
2020/01/31 02:10:43.0	95.200	0.290	-0.240	1.070
2020/01/31 02:10:43.1	95.210	0.340	-0.350	1.000
2020/01/31 02:10:43.2	95.220	0.390	-0.450	0.930
2020/01/31 02:10:43.3	95.240	0.430	-0.540	0.860
2020/01/31 02:10:43.4	95.250	0.470	-0.630	0.790
2020/01/31 02:10:43.5	95.270	0.510	-0.720	0.730
2020/01/31 02:10:43.6	95.280	0.540	-0.800	0.660
2020/01/31 02:10:43.7	95.300	0.570	-0.870	0.590
2020/01/31 02:10:43.8	95.310	0.600	-0.930	0.530
2020/01/31 02:10:43.9	95.330	0.620	-0.980	0.470
2020/01/31 02:10:44.0	95.340	0.640	-1.030	0.410
2020/01/31 02:10:44.1	95.350	0.650	-1.060	0.350
2020/01/31 02:10:44.2	95.370	0.660	-1.090	0.300
2020/01/31 02:10:44.3	95.380	0.660	-1.100	0.250
2020/01/31 02:10:44.4	95.390	0.650	-1.110	0.200
2020/01/31 02:10:44.5	95.410	0.650	-1.110	0.150
2020/01/31 02:10:44.6	95.420	0.630	-1.090	0.110
2020/01/31 02:10:44.7	95.430	0.610	-1.070	0.070
2020/01/31 02:10:44.8	95.450	0.590	-1.040	0.040
2020/01/31 02:10:44.9	95.460	0.560	-0.990	0.010
2020/01/31 02:10:45.0	95.470	0.520	-0.950	-0.020
2020/01/31 02:10:45.1	95.470	0.490	-0.890	-0.040
2020/01/31 02:10:45.2	95.480	0.450	-0.820	-0.060
2020/01/31 02:10:45.3	95.490	0.400	-0.760	-0.070
2020/01/31 02:10:45.4	95.500	0.350	-0.680	-0.080
2020/01/31 02:10:45.5	95.520	0.300	-0.600	-0.090
2020/01/31 02:10:45.6	95.530	0.250	-0.520	-0.090
2020/01/31 02:10:45.7	95.540	0.200	-0.440	-0.090
2020/01/31 02:10:45.8	95.550	0.140	-0.350	-0.080
2020/01/31 02:10:45.9	95.570	0.090	-0.270	-0.070
2020/01/31 02:10:46.0	95.580	0.030	-0.180	-0.060
2020/01/31 02:10:46.1	95.610	-0.030	-0.090	-0.040
2020/01/31 02:10:46.2	95.620	-0.080	-0.010	-0.010
2020/01/31 02:10:46.3	95.630	-0.140	0.070	0.010
2020/01/31 02:10:46.4	95.650	-0.190	0.150	0.040
2020/01/31 02:10:46.5	95.660	-0.250	0.220	0.070
2020/01/31 02:10:46.6	95.670	-0.300	0.290	0.100
2020/01/31 02:10:46.7	95.690	-0.340	0.350	0.140
2020/01/31 02:10:46.8	95.700	-0.390	0.410	0.170
2020/01/31 02:10:46.9	95.710	-0.430	0.460	0.220
2020/01/31 02:10:47.0	95.720	-0.470	0.500	0.260
2020/01/31 02:10:47.1	95.740	-0.510	0.540	0.310
2020/01/31 02:10:47.2	95.750	-0.540	0.570	0.360
2020/01/31 02:10:47.3	95.760	-0.580	0.600	0.420
2020/01/31 02:10:47.4	95.760	-0.600	0.620	0.470
2020/01/31 02:10:47.5	95.770	-0.620	0.630	0.530
2020/01/31 02:10:47.6	95.780	-0.640	0.640	0.590
2020/01/31 02:10:47.7	95.780	-0.660	0.640	0.650
2020/01/31 02:10:47.8	95.780	-0.670	0.630	0.720
2020/01/31 02:10:47.9	95.780	-0.680	0.620	0.790
2020/01/31 02:10:48.0	95.780	-0.690	0.610	0.850
2020/01/31 02:10:48.1	95.790	-0.690	0.580	0.930
2020/01/31 02:10:48.2	95.780	-0.690	0.560	1.000
2020/01/31 02:10:48.3	95.780	-0.690	0.530	1.070
2020/01/31 02:10:48.4	95.770	-0.680	0.500	1.140
2020/01/31 02:10:48.5	95.760	-0.670	0.460	1.210
2020/01/31 02:10:48.6	95.750	-0.660	0.420	1.280
2020/01/31 02:10:48.7	95.740	-0.650	0.380	1.350
2020/01/31 02:10:48.8	95.730	-0.630	0.330	1.420
2020/01/31 02:10:48.9	95.720	-0.620	0.280	1.480
2020/01/31 02:10:49.0	95.710	-0.600	0.230	1.540
2020/01/31 02:10:49.1	95.700	-0.580	0.180	1.600
2020/01/31 02:10:49.2	95.690	-0.560	0.130	1.650
2020/01/31 02:10:49.3	95.680	-0.530	0.070	1.710
2020/01/31 02:10:49.4	95.670	-0.510	0.010	1.750
2020/01/31 02:10:49.5	95.660	-0.480	-0.040	1.790
2020/01/31 02:10:49.6	95.650	-0.460	-0.100	1.830
2020/01/31 02:10:49.7	95.650	-0.430	-0.160	1.870
2020/01/31 02:10:49.8	95.640	-0.400	-0.220	1.900
2020/01/31 02:10:49.9	95.640	-0.370	-0.280	1.920
2020/01/31 02:10:50.0	95.630	-0.340	-0.330	1.950
2020/01/31 02:10:50.1	95.640	-0.310	-0.390	1.960
2020/01/31 02:10:50.2	95.640	-0.270	-0.450	1.980
2020/01/31 02:10:50.3	95.640	-0.240	-0.500	1.980
2020/01/31 02:10:50.4	95.640	-0.210	-0.550	1.990
2020/01/31 02:10:50.5	95.650	-0.180	-0.600	1.990
2020/01/31 02:10:50.6	95.650	-0.140	-0.650	1.990
2020/01/31 02:10:50.7	95.660	-0.110	-0.700	1.980
2020/01/31 02:10:50.8	95.670	-0.080	-0.740	1.980
2020/01/31 02:10:50.9	95.680	-0.040	-0.780	1.960
2020/01/31 02:10:51.0	95.690	-0.010	-0.810	1.950
2020/01/31 02:10:51.1	95.710	0.020	-0.840	1.940
2020/01/31 02:10:51.2	95.720	0.050	-0.860	1.920
2020/01/31 02:10:51.3	95.730	0.080	-0.880	1.900
2020/01/31 02:10:51.4	95.740	0.110	-0.900	1.880
2020/01/31 02:10:51.5	95.760	0.140	-0.900	1.860
2020/01/31 02:10:51.6	95.770	0.170	-0.910	1.830
2020/01/31 02:10:51.7	95.780	0.190	-0.910	1.800
2020/01/31 02:10:51.8	95.790	0.220	-0.900	1.770
2020/01/31 02:10:51.9	95.800	0.240	-0.880	1.740
2020/01/31 02:10:52.0	95.810	0.260	-0.860	1.700
2020/01/31 02:10:52.1	95.810	0.280	-0.840	1.660
2020/01/31 02:10:52.2	95.820	0.290	-0.810	1.620
2020/01/31 02:10:52.3	95.820	0.300	-0.780	1.580
2020/01/31 02:10:52.4	95.830	0.320	-0.730	1.530
2020/01/31 02:10:52.5	95.840	0.330	-0.690	1.480
2020/01/31 02:10:52.6	95.840	0.330	-0.640	1.420
2020/01/31 02:10:52.7	95.850	0.340	-0.580	1.370
2020/01/31 02:10:52.8	95.850	0.340	-0.530	1.300
2020/01/31 02:10:52.9	95.860	0.340	-0.470	1.240
2020/01/31 02:10:53.0	95.860	0.340	-0.400	1.170
2020/01/31 02:10:53.1	95.860	0.340	-0.330	1.100
2020/01/31 02:10:53.2	95.870	0.340	-0.270	1.030
2020/01/31 02:10:53.3	95.870	0.330	-0.200	0.950
2020/01/31 02:10:53.4	95.880	0.330	-0.140	0.870
2020/01/31 02:10:53.5	95.890	0.320	-0.070	0.790
2020/01/31 02:10:53.6	95.900	0.320	-0.010	0.700
2020/01/31 02:10:53.7	95.900	0.310	0.050	0.620
2020/01/31 02:10:53.8	95.910	0.300	0.110	0.530
2020/01/31 02:10:53.9	95.920	0.290	0.160	0.440
2020/01/31 02:10:54.0	95.940	0.290	0.210	0.350
2020/01/31 02:10:54.1	95.940	0.280	0.260	0.250
2020/01/31 02:10:54.2	95.960	0.270	0.300	0.160
2020/01/31 02:10:54.3	95.970	0.270	0.340	0.070
2020/01/31 02:10:54.4	95.980	0.260	0.370	-0.030
2020/01/31 02:10:54.5	96.000	0.260	0.390	-0.120
2020/01/31 02:10:54.6	96.020	0.260	0.410	-0.200
2020/01/31 02:10:54.7	96.030	0.260	0.420	-0.290
2020/01/31 02:10:54.8	96.050	0.260	0.430	-0.370
2020/01/31 02:10:54.9	96.060	0.260	0.420	-0.450
2020/01/31 02:10:55.0	96.080	0.270	0.420	-0.530
2020/01/31 02:10:55.1	96.090	0.270	0.400	-0.600
2020/01/31 02:10:55.2	96.100	0.280	0.380	-0.660
2020/01/31 02:10:55.3	96.120	0.280	0.360	-0.730
2020/01/31 02:10:55.4	96.130	0.290	0.320	-0.780
2020/01/31 02:10:55.5	96.140	0.300	0.290	-0.830
2020/01/31 02:10:55.6	96.150	0.310	0.250	-0.870
2020/01/31 02:10:55.7	96.160	0.310	0.210	-0.910
2020/01/31 02:10:55.8	96.160	0.320	0.160	-0.940
2020/01/31 02:10:55.9	96.170	0.330	0.110	-0.960
2020/01/31 02:10:56.0	96.170	0.330	0.060	-0.970
2020/01/31 02:10:56.1	96.170	0.340	0.010	-0.980
2020/01/31 02:10:56.2	96.170	0.340	-0.040	-0.980
2020/01/31 02:10:56.3	96.170	0.350	-0.090	-0.980
2020/01/31 02:10:56.4	96.170	0.350	-0.130	-0.960
2020/01/31 02:10:56.5	96.160	0.340	-0.180	-0.950
2020/01/31 02:10:56.6	96.150	0.340	-0.220	-0.920
2020/01/31 02:10:56.7	96.140	0.330	-0.260	-0.890
2020/01/31 02:10:56.8	96.130	0.320	-0.300	-0.860
2020/01/31 02:10:56.9	96.120	0.310	-0.330	-0.810
2020/01/31 02:10:57.0	96.110	0.300	-0.360	-0.770
2020/01/31 02:10:57.1	96.100	0.280	-0.390	-0.710
2020/01/31 02:10:57.2	96.090	0.260	-0.410	-0.660
2020/01/31 02:10:57.3	96.070	0.230	-0.420	-0.600
2020/01/31 02:10:57.4	96.060	0.210	-0.430	-0.540
2020/01/31 02:10:57.5	96.050	0.180	-0.440	-0.470
2020/01/31 02:10:57.6	96.030	0.150	-0.440	-0.400
2020/01/31 02:10:57.7	96.020	0.110	-0.430	-0.330
2020/01/31 02:10:57.8	96.010	0.080	-0.430	-0.260
2020/01/31 02:10:57.9	96.000	0.040	-0.410	-0.190
2020/01/31 02:10:58.0	95.990	0.000	-0.390	-0.110
2020/01/31 02:10:58.1	95.980	-0.030	-0.370	-0.040
2020/01/31 02:10:58.2	95.970	-0.070	-0.340	0.040
2020/01/31 02:10:58.3	95.960	-0.110	-0.320	0.110
2020/01/31 02:10:58.4	95.950	-0.150	-0.290	0.190
2020/01/31 02:10:58.5	95.950	-0.190	-0.250	0.270
2020/01/31 02:10:58.6	95.950	-0.230	-0.220	0.340
2020/01/31 02:10:58.7	95.940	-0.270	-0.190	0.420
2020/01/31 02:10:58.8	95.940	-0.310	-0.150	0.490
2020/01/31 02:10:58.9	95.940	-0.340	-0.120	0.560
2020/01/31 02:10:59.0	95.940	-0.370	-0.090	0.630
2020/01/31 02:10:59.1	95.960	-0.400	-0.060	0.710
2020/01/31 02:10:59.2	95.970	-0.430	-0.030	0.780
2020/01/31 02:10:59.3	95.970	-0.460	0.000	0.840
2020/01/31 02:10:59.4	95.980	-0.480	0.030	0.900
2020/01/31 02:10:59.5	95.980	-0.500	0.050	0.970
2020/01/31 02:10:59.6	95.990	-0.510	0.080	1.030
2020/01/31 02:10:59.7	96.000	-0.530	0.090	1.080
2020/01/31 02:10:59.8	96.010	-0.540	0.110	1.140
2020/01/31 02:10:59.9	96.020	-0.540	0.120	1.190
2020/01/31 02:11:00.0	96.030	-0.540	0.130	1.250
2020/01/31 02:11:00.1	96.050	-0.540	0.140	1.300
2020/01/31 02:11:00.2	96.060	-0.540	0.140	1.350
2020/01/31 02:11:00.3	96.080	-0.530	0.130	1.400
2020/01/31 02:11:00.4	96.090	-0.520	0.120	1.440
2020/01/31 02:11:00.5	96.110	-0.500	0.110	1.490
2020/01/31 02:11:00.6	96.120	-0.480	0.100	1.530
2020/01/31 02:11:00.7	96.140	-0.460	0.080	1.570
2020/01/31 02:11:00.8	96.160	-0.440	0.060	1.610
2020/01/31 02:11:00.9	96.180	-0.410	0.040	1.650
2020/01/31 02:11:01.0	96.200	-0.390	0.010	1.680
2020/01/31 02:11:01.1	96.230	-0.360	-0.020	1.720
2020/01/31 02:11:01.2	96.250	-0.330	-0.050	1.750
2020/01/31 02:11:01.3	96.270	-0.290	-0.080	1.780
2020/01/31 02:11:01.4	96.300	-0.260	-0.110	1.810
2020/01/31 02:11:01.5	96.320	-0.220	-0.150	1.840
2020/01/31 02:11:01.6	96.350	-0.190	-0.180	1.870
2020/01/31 02:11:01.7	96.380	-0.150	-0.220	1.890
2020/01/31 02:11:01.8	96.400	-0.120	-0.250	1.920
2020/01/31 02:11:01.9	96.430	-0.090	-0.280	1.940
2020/01/31 02:11:02.0	96.460	-0.050	-0.320	1.960
2020/01/31 02:11:02.1	96.490	-0.020	-0.350	1.980
2020/01/31 02:11:02.2	96.510	0.010	-0.380	2.000
2020/01/31 02:11:02.3	96.540	0.040	-0.410	2.010
2020/01/31 02:11:02.4	96.560	0.070	-0.430	2.020
2020/01/31 02:11:02.5	96.580	0.090	-0.460	2.040
2020/01/31 02:11:02.6	96.600	0.120	-0.480	2.050
2020/01/31 02:11:02.7	96.610	0.140	-0.490	2.060
2020/01/31 02:11:02.8	96.630	0.150	-0.510	2.060
2020/01/31 02:11:02.9	96.640	0.170	-0.520	2.070
2020/01/31 02:11:03.0	96.650	0.180	-0.520	2.070
2020/01/31 02:11:03.1	96.670	0.190	-0.530	2.070
2020/01/31 02:11:03.2	96.670	0.200	-0.520	2.070
2020/01/31 02:11:03.3	96.670	0.200	-0.520	2.060
2020/01/31 02:11:03.4	96.680	0.200	-0.510	2.060
2020/01/31 02:11:03.5	96.670	0.200	-0.500	2.050
2020/01/31 02:11:03.6	96.670	0.190	-0.480	2.040
2020/01/31 02:11:03.7	96.660	0.190	-0.460	2.020
2020/01/31 02:11:03.8	96.650	0.180	-0.430	2.010
2020/01/31 02:11:03.9	96.640	0.160	-0.410	1.990
2020/01/31 02:11:04.0	96.630	0.150	-0.380	1.970
2020/01/31 02:11:04.1	96.620	0.130	-0.340	1.950
2020/01/31 02:11:04.2	96.610	0.110	-0.310	1.920
2020/01/31 02:11:04.3	96.590	0.090	-0.270	1.890
2020/01/31 02:11:04.4	96.580	0.070	-0.230	1.860
2020/01/31 02:11:04.5	96.560	0.050	-0.190	1.830
2020/01/31 02:11:04.6	96.540	0.030	-0.150	1.800
2020/01/31 02:11:04.7	96.520	0.010	-0.110	1.770
2020/01/31 02:11:04.8	96.510	-0.020	-0.060	1.730
2020/01/31 02:11:04.9	96.490	-0.040	-0.020	1.690
2020/01/31 02:11:05.0	96.470	-0.060	0.020	1.650
2020/01/31 02:11:05.1	96.470	-0.080	0.060	1.610
2020/01/31 02:11:05.2	96.450	-0.100	0.100	1.570
2020/01/31 02:11:05.3	96.430	-0.120	0.140	1.530
2020/01/31 02:11:05.4	96.410	-0.130	0.170	1.480
2020/01/31 02:11:05.5	96.400	-0.150	0.210	1.440
2020/01/31 02:11:05.6	96.380	-0.160	0.240	1.400
2020/01/31 02:11:05.7	96.360	-0.170	0.260	1.350
2020/01/31 02:11:05.8	96.350	-0.180	0.290	1.300
2020/01/31 02:11:05.9	96.330	-0.190	0.310	1.260
2020/01/31 02:11:06.0	96.310	-0.200	0.320	1.210
2020/01/31 02:11:06.1	96.300	-0.200	0.340	1.170
2020/01/31 02:11:06.2	96.280	-0.200	0.340	1.120
2020/01/31 02:11:06.3	96.270	-0.200	0.350	1.070
2020/01/31 02:11:06.4	96.250	-0.200	0.350	1.020
2020/01/31 02:11:06.5	96.240	-0.190	0.340	0.960
2020/01/31 02:11:06.6	96.230	-0.180	0.340	0.910
2020/01/31 02:11:06.7	96.220	-0.170	0.320	0.850
2020/01/31 02:11:06.8	96.210	-0.160	0.310	0.800
2020/01/31 02:11:06.9	96.210	-0.150	0.290	0.740
2020/01/31 02:11:07.0	96.200	-0.130	0.260	0.680
2020/01/31 02:11:07.1	96.200	-0.120	0.230	0.610
2020/01/31 02:11:07.2	96.190	-0.100	0.200	0.550
2020/01/31 02:11:07.3	96.190	-0.080	0.170	0.480
2020/01/31 02:11:07.4	96.200	-0.060	0.130	0.420
2020/01/31 02:11:07.5	96.200	-0.040	0.080	0.350
2020/01/31 02:11:07.6	96.210	-0.020	0.040	0.280
2020/01/31 02:11:07.7	96.210	0.000	-0.010	0.210
2020/01/31 02:11:07.8	96.220	0.020	-0.060	0.130
2020/01/31 02:11:07.9	96.230	0.040	-0.110	0.060
2020/01/31 02:11:08.0	96.240	0.070	-0.160	-0.010
2020/01/31 02:11:08.1	96.250	0.090	-0.220	-0.090
2020/01/31 02:11:08.2	96.270	0.110	-0.280	-0.160
2020/01/31 02:11:08.3	96.280	0.130	-0.330	-0.230
2020/01/31 02:11:08.4	96.300	0.150	-0.390	-0.300
2020/01/31 02:11:08.5	96.320	0.170	-0.440	-0.370
2020/01/31 02:11:08.6	96.340	0.190	-0.500	-0.440
2020/01/31 02:11:08.7	96.360	0.210	-0.550	-0.510
2020/01/31 02:11:08.8	96.390	0.230	-0.600	-0.570
2020/01/31 02:11:08.9	96.410	0.240	-0.650	-0.630
2020/01/31 02:11:09.0	96.430	0.260	-0.690	-0.690
2020/01/31 02:11:09.1	96.450	0.270	-0.730	-0.740
2020/01/31 02:11:09.2	96.480	0.290	-0.770	-0.780
2020/01/31 02:11:09.3	96.500	0.300	-0.800	-0.820
2020/01/31 02:11:09.4	96.520	0.310	-0.830	-0.860
2020/01/31 02:11:09.5	96.540	0.320	-0.850	-0.890
2020/01/31 02:11:09.6	96.560	0.330	-0.870	-0.920
2020/01/31 02:11:09.7	96.580	0.340	-0.880	-0.940
2020/01/31 02:11:09.8	96.600	0.340	-0.880	-0.950
2020/01/31 02:11:09.9	96.620	0.350	-0.880	-0.950
2020/01/31 02:11:10.0	96.640	0.350	-0.880	-0.950
2020/01/31 02:11:10.1	96.660	0.350	-0.870	-0.940
2020/01/31 02:11:10.2	96.680	0.350	-0.850	-0.920
2020/01/31 02:11:10.3	96.690	0.350	-0.820	-0.900
2020/01/31 02:11:10.4	96.700	0.340	-0.800	-0.880
2020/01/31 02:11:10.5	96.710	0.340	-0.760	-0.840
2020/01/31 02:11:10.6	96.710	0.330	-0.720	-0.810
2020/01/31 02:11:10.7	96.720	0.330	-0.680	-0.760
2020/01/31 02:11:10.8	96.720	0.320	-0.630	-0.710
2020/01/31 02:11:10.9	96.720	0.310	-0.580	-0.660
2020/01/31 02:11:11.0	96.720	0.300	-0.530	-0.600
2020/01/31 02:11:11.1	96.720	0.290	-0.460	-0.540
2020/01/31 02:11:11.2	96.710	0.280	-0.410	-0.470
2020/01/31 02:11:11.3	96.700	0.260	-0.340	-0.400
2020/01/31 02:11:11.4	96.700	0.250	-0.280	-0.330
2020/01/31 02:11:11.5	96.690	0.230	-0.220	-0.250
2020/01/31 02:11:11.6	96.680	0.220	-0.150	-0.180
2020/01/31 02:11:11.7	96.670	0.200	-0.090	-0.100
2020/01/31 02:11:11.8	96.660	0.190	-0.030	-0.020
2020/01/31 02:11:11.9	96.650	0.170	0.040	0.060
2020/01/31 02:11:12.0	96.640	0.150	0.100	0.140
2020/01/31 02:11:12.1	96.630	0.130	0.150	0.230
2020/01/31 02:11:12.2	96.620	0.120	0.210	0.310
2020/01/31 02:11:12.3	96.610	0.100	0.260	0.400
2020/01/31 02:11:12.4	96.600	0.080	0.310	0.480
2020/01/31 02:11:12.5	96.590	0.060	0.360	0.560
2020/01/31 02:11:12.6	96.580	0.040	0.400	0.640
2020/01/31 02:11:12.7	96.580	0.020	0.430	0.730
2020/01/31 02:11:12.8	96.570	0.010	0.470	0.810
2020/01/31 02:11:12.9	96.560	-0.010	0.490	0.890
2020/01/31 02:11:13.0	96.560	-0.030	0.520	0.970
2020/01/31 02:11:13.1	96.560	-0.050	0.540	1.050
2020/01/31 02:11:13.2	96.560	-0.060	0.550	1.130
2020/01/31 02:11:13.3	96.560	-0.080	0.560	1.200
2020/01/31 02:11:13.4	96.560	-0.100	0.560	1.280
2020/01/31 02:11:13.5	96.560	-0.110	0.560	1.360
2020/01/31 02:11:13.6	96.560	-0.130	0.550	1.430
2020/01/31 02:11:13.7	96.560	-0.140	0.540	1.510
2020/01/31 02:11:13.8	96.570	-0.160	0.530	1.580
2020/01/31 02:11:13.9	96.570	-0.170	0.510	1.650
2020/01/31 02:11:14.0	96.570	-0.180	0.490	1.720
2020/01/31 02:11:14.1	96.590	-0.200	0.460	1.790
2020/01/31 02:11:14.2	96.600	-0.210	0.440	1.850
2020/01/31 02:11:14.3	96.600	-0.220	0.410	1.920
2020/01/31 02:11:14.4	96.610	-0.230	0.370	1.980
2020/01/31 02:11:14.5	96.620	-0.240	0.340	2.030
2020/01/31 02:11:14.6	96.620	-0.250	0.300	2.090
2020/01/31 02:11:14.7	96.630	-0.260	0.260	2.140
2020/01/31 02:11:14.8	96.630	-0.270	0.220	2.180
2020/01/31 02:11:14.9	96.640	-0.280	0.180	2.220
2020/01/31 02:11:15.0	96.650	-0.280	0.140	2.260
2020/01/31 02:11:15.1	96.660	-0.290	0.090	2.300
2020/01/31 02:11:15.2	96.670	-0.290	0.050	2.330
2020/01/31 02:11:15.3	96.670	-0.290	0.010	2.350
2020/01/31 02:11:15.4	96.680	-0.290	-0.030	2.370
2020/01/31 02:11:15.5	96.690	-0.290	-0.080	2.390
2020/01/31 02:11:15.6	96.700	-0.290	-0.120	2.400
2020/01/31 02:11:15.7	96.710	-0.280	-0.160	2.410
2020/01/31 02:11:15.8	96.720	-0.280	-0.200	2.410
2020/01/31 02:11:15.9	96.730	-0.270	-0.240	2.410
2020/01/31 02:11:16.0	96.750	-0.260	-0.280	2.400
2020/01/31 02:11:16.1	96.760	-0.250	-0.310	2.400
2020/01/31 02:11:16.2	96.770	-0.230	-0.350	2.390
2020/01/31 02:11:16.3	96.790	-0.220	-0.380	2.370
2020/01/31 02:11:16.4	96.800	-0.200	-0.410	2.360
2020/01/31 02:11:16.5	96.810	-0.190	-0.440	2.340
2020/01/31 02:11:16.6	96.820	-0.170	-0.470	2.310
2020/01/31 02:11:16.7	96.830	-0.150	-0.500	2.290
2020/01/31 02:11:16.8	96.840	-0.130	-0.520	2.260
2020/01/31 02:11:16.9	96.860	-0.110	-0.540	2.230
2020/01/31 02:11:17.0	96.870	-0.090	-0.560	2.190
2020/01/31 02:11:17.1	96.860	-0.060	-0.580	2.160
2020/01/31 02:11:17.2	96.870	-0.040	-0.590	2.120
2020/01/31 02:11:17.3	96.880	-0.020	-0.600	2.080
2020/01/31 02:11:17.4	96.890	-0.000	-0.610	2.040
2020/01/31 02:11:17.5	96.900	0.020	-0.620	1.990
2020/01/31 02:11:17.6	96.910	0.040	-0.630	1.950
2020/01/31 02:11:17.7	96.920	0.060	-0.630	1.900
2020/01/31 02:11:17.8	96.920	0.080	-0.630	1.850
2020/01/31 02:11:17.9	96.930	0.090	-0.630	1.800
2020/01/31 02:11:18.0	96.930	0.110	-0.620	1.750
2020/01/31 02:11:18.1	96.940	0.120	-0.610	1.710
2020/01/31 02:11:18.2	96.940	0.140	-0.600	1.650
2020/01/31 02:11:18.3	96.940	0.150	-0.590	1.600
2020/01/31 02:11:18.4	96.940	0.160	-0.570	1.550
2020/01/31 02:11:18.5	96.940	0.160	-0.550	1.500
2020/01/31 02:11:18.6	96.940	0.170	-0.530	1.440
2020/01/31 02:11:18.7	96.940	0.170	-0.510	1.390
2020/01/31 02:11:18.8	96.940	0.180	-0.490	1.340
2020/01/31 02:11:18.9	96.940	0.180	-0.460	1.280
2020/01/31 02:11:19.0	96.930	0.180	-0.430	1.230
2020/01/31 02:11:19.1	96.920	0.170	-0.400	1.170
2020/01/31 02:11:19.2	96.920	0.170	-0.370	1.120
2020/01/31 02:11:19.3	96.910	0.160	-0.340	1.070
2020/01/31 02:11:19.4	96.910	0.150	-0.310	1.010
2020/01/31 02:11:19.5	96.910	0.150	-0.270	0.960
2020/01/31 02:11:19.6	96.910	0.140	-0.240	0.910
2020/01/31 02:11:19.7	96.910	0.120	-0.210	0.860
2020/01/31 02:11:19.8	96.900	0.110	-0.180	0.800
2020/01/31 02:11:19.9	96.900	0.100	-0.140	0.750
2020/01/31 02:11:20.0	96.900	0.090	-0.110	0.700
2020/01/31 02:11:20.1	96.900	0.070	-0.080	0.660
2020/01/31 02:11:20.2	96.890	0.060	-0.050	0.610
2020/01/31 02:11:20.3	96.890	0.040	-0.020	0.560
2020/01/31 02:11:20.4	96.890	0.030	0.000	0.510
2020/01/31 02:11:20.5	96.890	0.010	0.020	0.470
2020/01/31 02:11:20.6	96.880	-0.000	0.050	0.420
2020/01/31 02:11:20.7	96.880	-0.020	0.060	0.380
2020/01/31 02:11:20.8	96.870	-0.030	0.080	0.340
2020/01/31 02:11:20.9	96.870	-0.040	0.090	0.300
2020/01/31 02:11:21.0	96.870	-0.060	0.100	0.260
2020/01/31 02:11:21.1	96.860	-0.070	0.110	0.220
2020/01/31 02:11:21.2	96.850	-0.080	0.120	0.190
2020/01/31 02:11:21.3	96.850	-0.090	0.120	0.150
2020/01/31 02:11:21.4	96.840	-0.100	0.120	0.120
2020/01/31 02:11:21.5	96.840	-0.110	0.120	0.090
2020/01/31 02:11:21.6	96.830	-0.120	0.110	0.060
2020/01/31 02:11:21.7	96.820	-0.130	0.100	0.030
2020/01/31 02:11:21.8	96.810	-0.130	0.100	0.000
2020/01/31 02:11:21.9	96.800	-0.140	0.080	-0.020
2020/01/31 02:11:22.0	96.800	-0.140	0.070	-0.040
2020/01/31 02:11:22.1	96.790	-0.140	0.050	-0.060
2020/01/31 02:11:22.2	96.780	-0.150	0.040	-0.080
2020/01/31 02:11:22.3	96.770	-0.150	0.020	-0.100
2020/01/31 02:11:22.4	96.750	-0.150	0.000	-0.110
2020/01/31 02:11:22.5	96.740	-0.140	-0.020	-0.120
2020/01/31 02:11:22.6	96.730	-0.140	-0.040	-0.130
2020/01/31 02:11:22.7	96.720	-0.140	-0.060	-0.140
2020/01/31 02:11:22.8	96.700	-0.130	-0.080	-0.140
2020/01/31 02:11:22.9	96.690	-0.130	-0.100	-0.150
2020/01/31 02:11:23.0	96.680	-0.120	-0.120	-0.150
2020/01/31 02:11:23.1	96.660	-0.120	-0.130	-0.150
2020/01/31 02:11:23.2	96.650	-0.110	-0.150	-0.150
2020/01/31 02:11:23.3	96.640	-0.100	-0.170	-0.150
2020/01/31 02:11:23.4	96.630	-0.100	-0.180	-0.140
2020/01/31 02:11:23.5	96.620	-0.090	-0.200	-0.140
2020/01/31 02:11:23.6	96.610	-0.080	-0.210	-0.140
2020/01/31 02:11:23.7	96.600	-0.070	-0.230	-0.130
2020/01/31 02:11:23.8	96.600	-0.060	-0.240	-0.130
2020/01/31 02:11:23.9	96.590	-0.050	-0.250	-0.120
2020/01/31 02:11:24.0	96.590	-0.040	-0.260	-0.110
2020/01/31 02:11:24.1	96.590	-0.030	-0.260	-0.100
2020/01/31 02:11:24.2	96.590	-0.030	-0.270	-0.100
2020/01/31 02:11:24.3	96.590	-0.020	-0.280	-0.090
2020/01/31 02:11:24.4	96.590	-0.010	-0.280	-0.080
2020/01/31 02:11:24.5	96.590	0.000	-0.290	-0.070
2020/01/31 02:11:24.6	96.590	0.010	-0.290	-0.060
2020/01/31 02:11:24.7	96.600	0.020	-0.300	-0.050
2020/01/31 02:11:24.8	96.600	0.030	-0.300	-0.040
2020/01/31 02:11:24.9	96.610	0.040	-0.300	-0.030
2020/01/31 02:11:25.0	96.610	0.050	-0.300	-0.010
2020/01/31 02:11:25.1	96.610	0.060	-0.300	0.000
2020/01/31 02:11:25.2	96.620	0.070	-0.300	0.020
2020/01/31 02:11:25.3	96.620	0.080	-0.300	0.040
2020/01/31 02:11:25.4	96.630	0.090	-0.300	0.060
2020/01/31 02:11:25.5	96.640	0.100	-0.300	0.080
2020/01/31 02:11:25.6	96.650	0.110	-0.300	0.110
2020/01/31 02:11:25.7	96.660	0.120	-0.300	0.130
2020/01/31 02:11:25.8	96.670	0.130	-0.300	0.160
2020/01/31 02:11:25.9	96.680	0.130	-0.300	0.190
2020/01/31 02:11:26.0	96.690	0.140	-0.290	0.220
2020/01/31 02:11:26.1	96.700	0.150	-0.290	0.250
2020/01/31 02:11:26.2	96.710	0.160	-0.290	0.280
2020/01/31 02:11:26.3	96.730	0.160	-0.280	0.320
2020/01/31 02:11:26.4	96.740	0.170	-0.280	0.350
2020/01/31 02:11:26.5	96.760	0.180	-0.270	0.380
2020/01/31 02:11:26.6	96.770	0.180	-0.270	0.420
2020/01/31 02:11:26.7	96.790	0.190	-0.260	0.450
2020/01/31 02:11:26.8	96.810	0.190	-0.250	0.480
2020/01/31 02:11:26.9	96.840	0.190	-0.250	0.520
2020/01/31 02:11:27.0	96.860	0.200	-0.240	0.550
2020/01/31 02:11:27.1	96.880	0.200	-0.230	0.590
2020/01/31 02:11:27.2	96.900	0.200	-0.220	0.620
2020/01/31 02:11:27.3	96.920	0.190	-0.200	0.650
2020/01/31 02:11:27.4	96.950	0.190	-0.190	0.680
2020/01/31 02:11:27.5	96.970	0.190	-0.170	0.720
2020/01/31 02:11:27.6	96.990	0.180	-0.160	0.750
2020/01/31 02:11:27.7	97.010	0.170	-0.140	0.780
2020/01/31 02:11:27.8	97.030	0.160	-0.110	0.810
2020/01/31 02:11:27.9	97.050	0.150	-0.090	0.840
2020/01/31 02:11:28.0	97.060	0.140	-0.070	0.880
2020/01/31 02:11:28.1	97.080	0.120	-0.040	0.910
2020/01/31 02:11:28.2	97.100	0.110	-0.010	0.950
2020/01/31 02:11:28.3	97.110	0.090	0.020	0.980
2020/01/31 02:11:28.4	97.120	0.060	0.050	1.010
2020/01/31 02:11:28.5	97.120	0.040	0.090	1.050
2020/01/31 02:11:28.6	97.130	0.020	0.120	1.080
2020/01/31 02:11:28.7	97.130	-0.010	0.160	1.110
2020/01/31 02:11:28.8	97.130	-0.040	0.190	1.150
2020/01/31 02:11:28.9	97.130	-0.070	0.230	1.190
2020/01/31 02:11:29.0	97.120	-0.090	0.260	1.220
2020/01/31 02:11:29.1	97.120	-0.120	0.300	1.260
2020/01/31 02:11:29.2	97.120	-0.160	0.330	1.290
2020/01/31 02:11:29.3	97.110	-0.190	0.360	1.330
2020/01/31 02:11:29.4	97.090	-0.220	0.390	1.370
2020/01/31 02:11:29.5	97.080	-0.250	0.420	1.400
2020/01/31 02:11:29.6	97.060	-0.280	0.440	1.440
2020/01/31 02:11:29.7	97.050	-0.300	0.460	1.480
2020/01/31 02:11:29.8	97.030	-0.330	0.480	1.510
2020/01/31 02:11:29.9	97.010	-0.360	0.490	1.550
2020/01/31 02:11:30.0	96.980	-0.380	0.500	1.580
2020/01/31 02:11:30.1	96.960	-0.400	0.500	1.620
2020/01/31 02:11:30.2	96.930	-0.420	0.500	1.650
2020/01/31 02:11:30.3	96.910	-0.430	0.490	1.680
2020/01/31 02:11:30.4	96.880	-0.450	0.470	1.710
2020/01/31 02:11:30.5	96.850	-0.460	0.450	1.730
2020/01/31 02:11:30.6	96.820	-0.460	0.430	1.760
2020/01/31 02:11:30.7	96.800	-0.460	0.400	1.780
2020/01/31 02:11:30.8	96.770	-0.460	0.360	1.800
2020/01/31 02:11:30.9	96.750	-0.460	0.310	1.810
2020/01/31 02:11:31.0	96.720	-0.450	0.270	1.830
2020/01/31 02:11:31.1	96.710	-0.440	0.210	1.840
2020/01/31 02:11:31.2	96.690	-0.420	0.160	1.840
2020/01/31 02:11:31.3	96.670	-0.400	0.090	1.850
2020/01/31 02:11:31.4	96.650	-0.380	0.020	1.850
2020/01/31 02:11:31.5	96.640	-0.350	-0.050	1.840
2020/01/31 02:11:31.6	96.630	-0.320	-0.120	1.830
2020/01/31 02:11:31.7	96.620	-0.290	-0.200	1.820
2020/01/31 02:11:31.8	96.610	-0.250	-0.280	1.810
2020/01/31 02:11:31.9	96.610	-0.210	-0.360	1.790
2020/01/31 02:11:32.0	96.600	-0.170	-0.440	1.770
2020/01/31 02:11:32.1	96.600	-0.130	-0.520	1.750
2020/01/31 02:11:32.2	96.600	-0.090	-0.600	1.730
2020/01/31 02:11:32.3	96.610	-0.040	-0.670	1.700
2020/01/31 02:11:32.4	96.610	0.000	-0.750	1.670
2020/01/31 02:11:32.5	96.620	0.040	-0.820	1.630
2020/01/31 02:11:32.6	96.620	0.090	-0.890	1.600
2020/01/31 02:11:32.7	96.630	0.130	-0.950	1.560
2020/01/31 02:11:32.8	96.640	0.170	-1.010	1.520
2020/01/31 02:11:32.9	96.650	0.220	-1.060	1.470
2020/01/31 02:11:33.0	96.670	0.250	-1.100	1.430
2020/01/31 02:11:33.1	96.670	0.290	-1.140	1.390
2020/01/31 02:11:33.2	96.680	0.330	-1.170	1.340
2020/01/31 02:11:33.3	96.690	0.360	-1.190	1.290
2020/01/31 02:11:33.4	96.710	0.390	-1.210	1.240
2020/01/31 02:11:33.5	96.720	0.420	-1.220	1.200
2020/01/31 02:11:33.6	96.730	0.440	-1.210	1.150
2020/01/31 02:11:33.7	96.740	0.460	-1.200	1.100
2020/01/31 02:11:33.8	96.750	0.480	-1.190	1.050
2020/01/31 02:11:33.9	96.750	0.490	-1.160	1.000
2020/01/31 02:11:34.0	96.760	0.510	-1.130	0.950
2020/01/31 02:11:34.1	96.770	0.510	-1.080	0.900
2020/01/31 02:11:34.2	96.770	0.520	-1.040	0.860
2020/01/31 02:11:34.3	96.770	0.520	-0.990	0.810
2020/01/31 02:11:34.4	96.770	0.520	-0.930	0.770
2020/01/31 02:11:34.5	96.770	0.520	-0.870	0.720
2020/01/31 02:11:34.6	96.760	0.510	-0.800	0.680
2020/01/31 02:11:34.7	96.760	0.510	-0.730	0.640
2020/01/31 02:11:34.8	96.750	0.500	-0.660	0.600
2020/01/31 02:11:34.9	96.740	0.480	-0.580	0.560
2020/01/31 02:11:35.0	96.730	0.470	-0.500	0.520
2020/01/31 02:11:35.1	96.720	0.450	-0.420	0.490
2020/01/31 02:11:35.2	96.710	0.440	-0.350	0.450
2020/01/31 02:11:35.3	96.700	0.420	-0.270	0.420
2020/01/31 02:11:35.4	96.690	0.400	-0.190	0.380
2020/01/31 02:11:35.5	96.670	0.370	-0.110	0.350
2020/01/31 02:11:35.6	96.660	0.350	-0.040	0.320
2020/01/31 02:11:35.7	96.640	0.330	0.030	0.290
2020/01/31 02:11:35.8	96.630	0.300	0.100	0.270
2020/01/31 02:11:35.9	96.610	0.280	0.170	0.250
2020/01/31 02:11:36.0	96.590	0.250	0.230	0.230
2020/01/31 02:11:36.1	96.570	0.220	0.290	0.210
2020/01/31 02:11:36.2	96.550	0.190	0.350	0.200
2020/01/31 02:11:36.3	96.530	0.160	0.410	0.190
2020/01/31 02:11:36.4	96.510	0.130	0.460	0.180
2020/01/31 02:11:36.5	96.490	0.100	0.500	0.170
2020/01/31 02:11:36.6	96.460	0.070	0.540	0.170
2020/01/31 02:11:36.7	96.440	0.040	0.580	0.170
2020/01/31 02:11:36.8	96.420	0.010	0.610	0.170
2020/01/31 02:11:36.9	96.390	-0.030	0.640	0.170
2020/01/31 02:11:37.0	96.370	-0.060	0.670	0.180
2020/01/31 02:11:37.1	96.350	-0.090	0.690	0.180
2020/01/31 02:11:37.2	96.330	-0.120	0.710	0.190
2020/01/31 02:11:37.3	96.310	-0.160	0.720	0.200
2020/01/31 02:11:37.4	96.280	-0.190	0.720	0.200
2020/01/31 02:11:37.5	96.260	-0.220	0.720	0.210
2020/01/31 02:11:37.6	96.240	-0.250	0.720	0.220
2020/01/31 02:11:37.7	96.220	-0.290	0.720	0.230
2020/01/31 02:11:37.8	96.210	-0.320	0.710	0.240
2020/01/31 02:11:37.9	96.190	-0.350	0.700	0.240
2020/01/31 02:11:38.0	96.170	-0.380	0.680	0.250
2020/01/31 02:11:38.1	96.160	-0.400	0.660	0.260
2020/01/31 02:11:38.2	96.150	-0.430	0.640	0.270
2020/01/31 02:11:38.3	96.140	-0.450	0.610	0.270
2020/01/31 02:11:38.4	96.130	-0.480	0.580	0.270
2020/01/31 02:11:38.5	96.120	-0.500	0.550	0.270
2020/01/31 02:11:38.6	96.120	-0.520	0.520	0.270
2020/01/31 02:11:38.7	96.110	-0.530	0.480	0.270
2020/01/31 02:11:38.8	96.110	-0.550	0.440	0.260
2020/01/31 02:11:38.9	96.110	-0.560	0.400	0.260
2020/01/31 02:11:39.0	96.110	-0.570	0.350	0.250
2020/01/31 02:11:39.1	96.120	-0.570	0.300	0.250
2020/01/31 02:11:39.2	96.120	-0.570	0.250	0.240
2020/01/31 02:11:39.3	96.130	-0.570	0.200	0.230
2020/01/31 02:11:39.4	96.130	-0.570	0.140	0.220
2020/01/31 02:11:39.5	96.140	-0.560	0.080	0.210
2020/01/31 02:11:39.6	96.150	-0.540	0.020	0.200
2020/01/31 02:11:39.7	96.160	-0.530	-0.050	0.190
2020/01/31 02:11:39.8	96.180	-0.510	-0.110	0.170
2020/01/31 02:11:39.9	96.190	-0.480	-0.180	0.160
2020/01/31 02:11:40.0	96.210	-0.460	-0.250	0.150
2020/01/31 02:11:40.1	96.230	-0.430	-0.320	0.140
2020/01/31 02:11:40.2	96.250	-0.390	-0.390	0.140
2020/01/31 02:11:40.3	96.270	-0.360	-0.460	0.130
2020/01/31 02:11:40.4	96.300	-0.320	-0.530	0.120
2020/01/31 02:11:40.5	96.320	-0.280	-0.600	0.120
2020/01/31 02:11:40.6	96.350	-0.230	-0.670	0.120
2020/01/31 02:11:40.7	96.380	-0.190	-0.740	0.120
2020/01/31 02:11:40.8	96.410	-0.140	-0.800	0.130
2020/01/31 02:11:40.9	96.430	-0.090	-0.860	0.140
2020/01/31 02:11:41.0	96.460	-0.040	-0.920	0.150
2020/01/31 02:11:41.1	96.490	0.010	-0.980	0.180
2020/01/31 02:11:41.2	96.520	0.050	-1.030	0.200
2020/01/31 02:11:41.3	96.550	0.100	-1.070	0.230
2020/01/31 02:11:41.4	96.580	0.150	-1.110	0.260
2020/01/31 02:11:41.5	96.600	0.200	-1.140	0.300
2020/01/31 02:11:41.6	96.630	0.240	-1.160	0.340
2020/01/31 02:11:41.7	96.650	0.280	-1.180	0.390
2020/01/31 02:11:41.8	96.670	0.320	-1.190	0.440
2020/01/31 02:11:41.9	96.700	0.360	-1.190	0.490
2020/01/31 02:11:42.0	96.710	0.390	-1.190	0.550
2020/01/31 02:11:42.1	96.730	0.420	-1.170	0.620
2020/01/31 02:11:42.2	96.750	0.450	-1.150	0.680
2020/01/31 02:11:42.3	96.760	0.470	-1.130	0.750
2020/01/31 02:11:42.4	96.770	0.490	-1.090	0.820
2020/01/31 02:11:42.5	96.780	0.500	-1.050	0.890
2020/01/31 02:11:42.6	96.780	0.510	-1.000	0.960
2020/01/31 02:11:42.7	96.790	0.510	-0.950	1.030
2020/01/31 02:11:42.8	96.790	0.510	-0.890	1.100
2020/01/31 02:11:42.9	96.790	0.510	-0.820	1.170
2020/01/31 02:11:43.0	96.790	0.500	-0.750	1.240
2020/01/31 02:11:43.1	96.800	0.480	-0.660	1.310
2020/01/31 02:11:43.2	96.790	0.460	-0.580	1.380
2020/01/31 02:11:43.3	96.790	0.440	-0.500	1.440
2020/01/31 02:11:43.4	96.780	0.410	-0.400	1.510
2020/01/31 02:11:43.5	96.770	0.380	-0.310	1.570
2020/01/31 02:11:43.6	96.750	0.350	-0.210	1.630
2020/01/31 02:11:43.7	96.740	0.310	-0.120	1.680
2020/01/31 02:11:43.8	96.720	0.260	-0.020	1.730
2020/01/31 02:11:43.9	96.700	0.220	0.080	1.780
2020/01/31 02:11:44.0	96.680	0.170	0.180	1.830
2020/01/31 02:11:44.1	96.690	0.120	0.280	1.880
2020/01/31 02:11:44.2	96.660	0.070	0.380	1.920
2020/01/31 02:11:44.3	96.640	0.020	0.480	1.950
2020/01/31 02:11:44.4	96.610	-0.040	0.580	1.990
2020/01/31 02:11:44.5	96.580	-0.090	0.670	2.020
2020/01/31 02:11:44.6	96.550	-0.140	0.750	2.040
2020/01/31 02:11:44.7	96.520	-0.200	0.840	2.070
2020/01/31 02:11:44.8	96.490	-0.250	0.910	2.080
2020/01/31 02:11:44.9	96.460	-0.300	0.980	2.100
2020/01/31 02:11:45.0	96.420	-0.350	1.050	2.110
2020/01/31 02:11:45.1	96.390	-0.400	1.110	2.120
2020/01/31 02:11:45.2	96.360	-0.440	1.160	2.130
2020/01/31 02:11:45.3	96.320	-0.480	1.200	2.130
2020/01/31 02:11:45.4	96.280	-0.520	1.230	2.130
2020/01/31 02:11:45.5	96.230	-0.550	1.250	2.130
2020/01/31 02:11:45.6	96.190	-0.580	1.260	2.120
2020/01/31 02:11:45.7	96.150	-0.610	1.260	2.110
2020/01/31 02:11:45.8	96.110	-0.620	1.250	2.100
2020/01/31 02:11:45.9	96.070	-0.640	1.220	2.080
2020/01/31 02:11:46.0	96.030	-0.650	1.190	2.050
2020/01/31 02:11:46.1	96.000	-0.650	1.140	2.030
2020/01/31 02:11:46.2	95.960	-0.650	1.080	1.990
2020/01/31 02:11:46.3	95.930	-0.640	1.020	1.960
2020/01/31 02:11:46.4	95.890	-0.620	0.940	1.920
2020/01/31 02:11:46.5	95.860	-0.600	0.850	1.870
2020/01/31 02:11:46.6	95.830	-0.580	0.750	1.820
2020/01/31 02:11:46.7	95.810	-0.550	0.650	1.760
2020/01/31 02:11:46.8	95.790	-0.510	0.530	1.700
2020/01/31 02:11:46.9	95.770	-0.470	0.410	1.630
2020/01/31 02:11:47.0	95.760	-0.420	0.290	1.560
2020/01/31 02:11:47.1	95.750	-0.370	0.150	1.490
2020/01/31 02:11:47.2	95.740	-0.310	0.010	1.410
2020/01/31 02:11:47.3	95.740	-0.260	-0.130	1.320
2020/01/31 02:11:47.4	95.730	-0.190	-0.270	1.230
2020/01/31 02:11:47.5	95.740	-0.130	-0.420	1.140
2020/01/31 02:11:47.6	95.740	-0.060	-0.560	1.050
2020/01/31 02:11:47.7	95.750	0.010	-0.710	0.950
2020/01/31 02:11:47.8	95.750	0.080	-0.850	0.850
2020/01/31 02:11:47.9	95.770	0.150	-0.990	0.740
2020/01/31 02:11:48.0	95.780	0.220	-1.130	0.640
2020/01/31 02:11:48.1	95.780	0.290	-1.260	0.530
2020/01/31 02:11:48.2	95.800	0.360	-1.380	0.430
2020/01/31 02:11:48.3	95.820	0.430	-1.490	0.320
2020/01/31 02:11:48.4	95.830	0.500	-1.600	0.210
2020/01/31 02:11:48.5	95.850	0.560	-1.690	0.110
2020/01/31 02:11:48.6	95.870	0.620	-1.780	0.010
2020/01/31 02:11:48.7	95.890	0.680	-1.850	-0.090
2020/01/31 02:11:48.8	95.910	0.730	-1.910	-0.190
2020/01/31 02:11:48.9	95.930	0.780	-1.950	-0.290
2020/01/31 02:11:49.0	95.950	0.820	-1.980	-0.380
2020/01/31 02:11:49.1	95.950	0.850	-1.990	-0.460
2020/01/31 02:11:49.2	95.970	0.880	-2.000	-0.550
2020/01/31 02:11:49.3	95.980	0.910	-1.980	-0.620
2020/01/31 02:11:49.4	96.000	0.920	-1.950	-0.700
2020/01/31 02:11:49.5	96.010	0.930	-1.900	-0.760
2020/01/31 02:11:49.6	96.030	0.940	-1.840	-0.820
2020/01/31 02:11:49.7	96.040	0.930	-1.770	-0.870
2020/01/31 02:11:49.8	96.050	0.920	-1.680	-0.920
2020/01/31 02:11:49.9	96.060	0.900	-1.570	-0.960
2020/01/31 02:11:50.0	96.070	0.870	-1.460	-0.990
2020/01/31 02:11:50.1	96.070	0.840	-1.330	-1.010
2020/01/31 02:11:50.2	96.070	0.800	-1.190	-1.030
2020/01/31 02:11:50.3	96.080	0.750	-1.040	-1.030
2020/01/31 02:11:50.4	96.080	0.700	-0.890	-1.040
2020/01/31 02:11:50.5	96.080	0.640	-0.730	-1.030
2020/01/31 02:11:50.6	96.070	0.580	-0.560	-1.010
2020/01/31 02:11:50.7	96.070	0.510	-0.390	-0.990
2020/01/31 02:11:50.8	96.060	0.440	-0.220	-0.960
2020/01/31 02:11:50.9	96.060	0.360	-0.050	-0.930
2020/01/31 02:11:51.0	96.050	0.280	0.120	-0.880
2020/01/31 02:11:51.1	96.040	0.210	0.290	-0.820
2020/01/31 02:11:51.2	96.030	0.130	0.450	-0.770
2020/01/31 02:11:51.3	96.020	0.050	0.600	-0.700
2020/01/31 02:11:51.4	96.000	-0.030	0.750	-0.640
2020/01/31 02:11:51.5	95.990	-0.110	0.890	-0.560
2020/01/31 02:11:51.6	95.970	-0.190	1.020	-0.480
2020/01/31 02:11:51.7	95.960	-0.260	1.140	-0.400
2020/01/31 02:11:51.8	95.940	-0.330	1.240	-0.320
2020/01/31 02:11:51.9	95.920	-0.400	1.330	-0.230
2020/01/31 02:11:52.0	95.910	-0.460	1.410	-0.150
2020/01/31 02:11:52.1	95.910	-0.520	1.480	-0.050
2020/01/31 02:11:52.2	95.900	-0.580	1.530	0.040
2020/01/31 02:11:52.3	95.880	-0.630	1.560	0.130
2020/01/31 02:11:52.4	95.870	-0.670	1.580	0.220
2020/01/31 02:11:52.5	95.850	-0.710	1.590	0.310
2020/01/31 02:11:52.6	95.840	-0.740	1.580	0.410
2020/01/31 02:11:52.7	95.830	-0.760	1.560	0.500
2020/01/31 02:11:52.8	95.810	-0.780	1.530	0.590
2020/01/31 02:11:52.9	95.800	-0.790	1.480	0.680
2020/01/31 02:11:53.0	95.790	-0.790	1.420	0.770
2020/01/31 02:11:53.1	95.780	-0.790	1.360	0.870
2020/01/31 02:11:53.2	95.770	-0.790	1.280	0.960
2020/01/31 02:11:53.3	95.760	-0.770	1.190	1.050
2020/01/31 02:11:53.4	95.740	-0.760	1.100	1.130
2020/01/31 02:11:53.5	95.730	-0.730	0.990	1.220
2020/01/31 02:11:53.6	95.720	-0.700	0.890	1.300
2020/01/31 02:11:53.7	95.710	-0.670	0.770	1.390
2020/01/31 02:11:53.8	95.700	-0.630	0.660	1.470
2020/01/31 02:11:53.9	95.680	-0.590	0.540	1.550
2020/01/31 02:11:54.0	95.670	-0.550	0.420	1.620
2020/01/31 02:11:54.1	95.670	-0.500	0.290	1.700
2020/01/31 02:11:54.2	95.660	-0.450	0.170	1.770
2020/01/31 02:11:54.3	95.650	-0.400	0.050	1.840
2020/01/31 02:11:54.4	95.640	-0.350	-0.070	1.900
2020/01/31 02:11:54.5	95.630	-0.290	-0.190	1.970
2020/01/31 02:11:54.6	95.620	-0.240	-0.300	2.020
2020/01/31 02:11:54.7	95.610	-0.180	-0.410	2.080
2020/01/31 02:11:54.8	95.610	-0.130	-0.520	2.120
2020/01/31 02:11:54.9	95.600	-0.080	-0.610	2.170
2020/01/31 02:11:55.0	95.600	-0.020	-0.710	2.210
2020/01/31 02:11:55.1	95.600	0.030	-0.790	2.250
2020/01/31 02:11:55.2	95.600	0.080	-0.870	2.280
2020/01/31 02:11:55.3	95.590	0.120	-0.940	2.300
2020/01/31 02:11:55.4	95.590	0.170	-1.010	2.320
2020/01/31 02:11:55.5	95.590	0.210	-1.060	2.330
2020/01/31 02:11:55.6	95.600	0.250	-1.110	2.340
2020/01/31 02:11:55.7	95.600	0.280	-1.150	2.350
2020/01/31 02:11:55.8	95.600	0.310	-1.180	2.350
2020/01/31 02:11:55.9	95.610	0.340	-1.200	2.350
2020/01/31 02:11:56.0	95.610	0.370	-1.220	2.340
2020/01/31 02:11:56.1	95.610	0.390	-1.220	2.320
2020/01/31 02:11:56.2	95.620	0.410	-1.220	2.310
2020/01/31 02:11:56.3	95.630	0.420	-1.220	2.290
2020/01/31 02:11:56.4	95.630	0.430	-1.200	2.280
2020/01/31 02:11:56.5	95.640	0.440	-1.180	2.260
2020/01/31 02:11:56.6	95.650	0.450	-1.150	2.240
2020/01/31 02:11:56.7	95.660	0.450	-1.120	2.220
2020/01/31 02:11:56.8	95.670	0.450	-1.080	2.200
2020/01/31 02:11:56.9	95.670	0.440	-1.030	2.170
2020/01/31 02:11:57.0	95.680	0.440	-0.990	2.150
2020/01/31 02:11:57.1	95.680	0.430	-0.930	2.130
2020/01/31 02:11:57.2	95.690	0.420	-0.870	2.110
2020/01/31 02:11:57.3	95.700	0.400	-0.810	2.090
2020/01/31 02:11:57.4	95.700	0.390	-0.750	2.060
2020/01/31 02:11:57.5	95.710	0.370	-0.690	2.040
2020/01/31 02:11:57.6	95.710	0.350	-0.620	2.020
2020/01/31 02:11:57.7	95.720	0.330	-0.550	1.990
2020/01/31 02:11:57.8	95.720	0.310	-0.490	1.970
2020/01/31 02:11:57.9	95.720	0.290	-0.420	1.940
2020/01/31 02:11:58.0	95.720	0.270	-0.350	1.920
2020/01/31 02:11:58.1	95.720	0.250	-0.280	1.890
2020/01/31 02:11:58.2	95.720	0.230	-0.220	1.870
2020/01/31 02:11:58.3	95.710	0.210	-0.160	1.840
2020/01/31 02:11:58.4	95.710	0.180	-0.100	1.820
2020/01/31 02:11:58.5	95.710	0.160	-0.050	1.790
2020/01/31 02:11:58.6	95.700	0.140	0.010	1.760
2020/01/31 02:11:58.7	95.690	0.120	0.060	1.730
2020/01/31 02:11:58.8	95.680	0.100	0.100	1.700
2020/01/31 02:11:58.9	95.670	0.080	0.150	1.670
2020/01/31 02:11:59.0	95.660	0.060	0.190	1.630
2020/01/31 02:11:59.1	95.640	0.040	0.220	1.600
2020/01/31 02:11:59.2	95.630	0.020	0.250	1.560
2020/01/31 02:11:59.3	95.620	0.000	0.280	1.520
2020/01/31 02:11:59.4	95.600	-0.010	0.310	1.480
2020/01/31 02:11:59.5	95.590	-0.030	0.330	1.430
2020/01/31 02:11:59.6	95.570	-0.050	0.350	1.380
2020/01/31 02:11:59.7	95.560	-0.070	0.360	1.330
2020/01/31 02:11:59.8	95.550	-0.080	0.370	1.280
2020/01/31 02:11:59.9	95.530	-0.100	0.380	1.220
2020/01/31 02:12:00.0	95.520	-0.110	0.390	1.160
2020/01/31 02:12:00.1	95.490	-0.130	0.390	1.100
2020/01/31 02:12:00.2	95.480	-0.140	0.390	1.040
2020/01/31 02:12:00.3	95.470	-0.160	0.380	0.980
2020/01/31 02:12:00.4	95.460	-0.170	0.370	0.920
2020/01/31 02:12:00.5	95.450	-0.180	0.360	0.860
2020/01/31 02:12:00.6	95.440	-0.200	0.350	0.800
2020/01/31 02:12:00.7	95.430	-0.210	0.330	0.730
2020/01/31 02:12:00.8	95.430	-0.220	0.310	0.670
2020/01/31 02:12:00.9	95.420	-0.220	0.290	0.610
2020/01/31 02:12:01.0	95.410	-0.230	0.270	0.560
2020/01/31 02:12:01.1	95.390	-0.240	0.240	0.500
2020/01/31 02:12:01.2	95.390	-0.240	0.210	0.450
2020/01/31 02:12:01.3	95.380	-0.250	0.180	0.400
2020/01/31 02:12:01.4	95.370	-0.250	0.150	0.350
2020/01/31 02:12:01.5	95.360	-0.250	0.120	0.300
2020/01/31 02:12:01.6	95.360	-0.250	0.080	0.260
2020/01/31 02:12:01.7	95.350	-0.240	0.040	0.220
2020/01/31 02:12:01.8	95.340	-0.240	0.010	0.180
2020/01/31 02:12:01.9	95.330	-0.230	-0.030	0.150
2020/01/31 02:12:02.0	95.320	-0.220	-0.070	0.110
2020/01/31 02:12:02.1	95.340	-0.210	-0.110	0.090
2020/01/31 02:12:02.2	95.340	-0.200	-0.150	0.060
2020/01/31 02:12:02.3	95.330	-0.190	-0.190	0.030
2020/01/31 02:12:02.4	95.330	-0.180	-0.230	0.000
2020/01/31 02:12:02.5	95.320	-0.160	-0.270	-0.030
2020/01/31 02:12:02.6	95.320	-0.150	-0.300	-0.050
2020/01/31 02:12:02.7	95.320	-0.130	-0.340	-0.080
2020/01/31 02:12:02.8	95.320	-0.110	-0.370	-0.100
2020/01/31 02:12:02.9	95.320	-0.100	-0.400	-0.130
2020/01/31 02:12:03.0	95.330	-0.080	-0.430	-0.150
2020/01/31 02:12:03.1	95.340	-0.060	-0.450	-0.170
2020/01/31 02:12:03.2	95.350	-0.040	-0.470	-0.200
2020/01/31 02:12:03.3	95.370	-0.020	-0.490	-0.220
2020/01/31 02:12:03.4	95.380	-0.010	-0.510	-0.250
2020/01/31 02:12:03.5	95.390	0.010	-0.520	-0.270
2020/01/31 02:12:03.6	95.410	0.030	-0.530	-0.290
2020/01/31 02:12:03.7	95.430	0.050	-0.530	-0.310
2020/01/31 02:12:03.8	95.450	0.060	-0.540	-0.340
2020/01/31 02:12:03.9	95.470	0.080	-0.540	-0.350
2020/01/31 02:12:04.0	95.490	0.090	-0.530	-0.370
2020/01/31 02:12:04.1	95.520	0.110	-0.520	-0.380
2020/01/31 02:12:04.2	95.540	0.120	-0.510	-0.390
2020/01/31 02:12:04.3	95.560	0.130	-0.500	-0.400
2020/01/31 02:12:04.4	95.580	0.140	-0.480	-0.410
2020/01/31 02:12:04.5	95.600	0.150	-0.470	-0.410
2020/01/31 02:12:04.6	95.620	0.160	-0.450	-0.410
2020/01/31 02:12:04.7	95.640	0.170	-0.420	-0.400
2020/01/31 02:12:04.8	95.660	0.170	-0.400	-0.390
2020/01/31 02:12:04.9	95.670	0.180	-0.370	-0.380
2020/01/31 02:12:05.0	95.690	0.180	-0.340	-0.360
2020/01/31 02:12:05.1	95.700	0.180	-0.310	-0.340
2020/01/31 02:12:05.2	95.710	0.180	-0.280	-0.310
2020/01/31 02:12:05.3	95.720	0.170	-0.240	-0.280
2020/01/31 02:12:05.4	95.730	0.170	-0.210	-0.250
2020/01/31 02:12:05.5	95.730	0.160	-0.180	-0.220
2020/01/31 02:12:05.6	95.740	0.160	-0.140	-0.180
2020/01/31 02:12:05.7	95.740	0.150	-0.100	-0.130
2020/01/31 02:12:05.8	95.750	0.140	-0.070	-0.090
2020/01/31 02:12:05.9	95.750	0.130	-0.030	-0.040
2020/01/31 02:12:06.0	95.750	0.110	0.000	0.020
2020/01/31 02:12:06.1	95.750	0.100	0.040	0.070
2020/01/31 02:12:06.2	95.750	0.090	0.070	0.130
2020/01/31 02:12:06.3	95.750	0.070	0.100	0.190
2020/01/31 02:12:06.4	95.750	0.060	0.130	0.260
2020/01/31 02:12:06.5	95.750	0.040	0.150	0.330
2020/01/31 02:12:06.6	95.750	0.030	0.180	0.390
2020/01/31 02:12:06.7	95.750	0.010	0.200	0.460
2020/01/31 02:12:06.8	95.740	-0.000	0.220	0.530
2020/01/31 02:12:06.9	95.740	-0.020	0.230	0.610
2020/01/31 02:12:07.0	95.740	-0.030	0.250	0.680
2020/01/31 02:12:07.1	95.720	-0.040	0.260	0.750
2020/01/31 02:12:07.2	95.720	-0.050	0.260	0.830
2020/01/31 02:12:07.3	95.710	-0.060	0.270	0.900
2020/01/31 02:12:07.4	95.710	-0.070	0.270	0.970
2020/01/31 02:12:07.5	95.710	-0.080	0.260	1.030
2020/01/31 02:12:07.6	95.710	-0.090	0.250	1.100
2020/01/31 02:12:07.7	95.710	-0.090	0.240	1.160
2020/01/31 02:12:07.8	95.710	-0.100	0.220	1.220
2020/01/31 02:12:07.9	95.710	-0.100	0.210	1.280
2020/01/31 02:12:08.0	95.710	-0.100	0.180	1.330
2020/01/31 02:12:08.1	95.700	-0.090	0.160	1.380
2020/01/31 02:12:08.2	95.700	-0.090	0.130	1.430
2020/01/31 02:12:08.3	95.710	-0.080	0.090	1.470
2020/01/31 02:12:08.4	95.720	-0.080	0.060	1.510
2020/01/31 02:12:08.5	95.720	-0.070	0.020	1.550
2020/01/31 02:12:08.6	95.730	-0.060	-0.020	1.580
2020/01/31 02:12:08.7	95.740	-0.040	-0.060	1.610
2020/01/31 02:12:08.8	95.740	-0.030	-0.110	1.640
2020/01/31 02:12:08.9	95.750	-0.020	-0.150	1.670
2020/01/31 02:12:09.0	95.760	0.000	-0.200	1.700
2020/01/31 02:12:09.1	95.750	0.020	-0.250	1.730
2020/01/31 02:12:09.2	95.760	0.040	-0.290	1.750
2020/01/31 02:12:09.3	95.760	0.060	-0.340	1.780
2020/01/31 02:12:09.4	95.770	0.070	-0.390	1.800
2020/01/31 02:12:09.5	95.770	0.090	-0.440	1.830
2020/01/31 02:12:09.6	95.770	0.110	-0.480	1.850
2020/01/31 02:12:09.7	95.770	0.130	-0.530	1.870
2020/01/31 02:12:09.8	95.770	0.150	-0.570	1.890
2020/01/31 02:12:09.9	95.770	0.170	-0.600	1.910
2020/01/31 02:12:10.0	95.780	0.180	-0.640	1.930
2020/01/31 02:12:10.1	95.770	0.200	-0.670	1.950
2020/01/31 02:12:10.2	95.770	0.210	-0.690	1.970
2020/01/31 02:12:10.3	95.770	0.220	-0.710	1.980
2020/01/31 02:12:10.4	95.770	0.230	-0.730	2.000
2020/01/31 02:12:10.5	95.780	0.240	-0.740	2.010
2020/01/31 02:12:10.6	95.780	0.250	-0.750	2.020
2020/01/31 02:12:10.7	95.780	0.250	-0.750	2.030
2020/01/31 02:12:10.8	95.780	0.260	-0.740	2.030
2020/01/31 02:12:10.9	95.780	0.260	-0.730	2.030
2020/01/31 02:12:11.0	95.790	0.250	-0.720	2.030
2020/01/31 02:12:11.1	95.810	0.250	-0.700	2.040
2020/01/31 02:12:11.2	95.810	0.240	-0.670	2.030
2020/01/31 02:12:11.3	95.810	0.230	-0.640	2.030
2020/01/31 02:12:11.4	95.810	0.220	-0.610	2.020
2020/01/31 02:12:11.5	95.810	0.210	-0.570	2.010
2020/01/31 02:12:11.6	95.810	0.190	-0.530	1.990
2020/01/31 02:12:11.7	95.800	0.180	-0.490	1.970
2020/01/31 02:12:11.8	95.800	0.160	-0.440	1.950
2020/01/31 02:12:11.9	95.790	0.140	-0.390	1.930
2020/01/31 02:12:12.0	95.790	0.110	-0.340	1.910
2020/01/31 02:12:12.1	95.780	0.090	-0.290	1.880
2020/01/31 02:12:12.2	95.780	0.060	-0.240	1.850
2020/01/31 02:12:12.3	95.770	0.040	-0.180	1.810
2020/01/31 02:12:12.4	95.760	0.010	-0.130	1.770
2020/01/31 02:12:12.5	95.750	-0.020	-0.070	1.730
2020/01/31 02:12:12.6	95.740	-0.040	-0.020	1.690
2020/01/31 02:12:12.7	95.720	-0.070	0.040	1.650
2020/01/31 02:12:12.8	95.710	-0.100	0.090	1.600
2020/01/31 02:12:12.9	95.700	-0.130	0.140	1.560
2020/01/31 02:12:13.0	95.680	-0.160	0.190	1.510
2020/01/31 02:12:13.1	95.650	-0.190	0.240	1.460
2020/01/31 02:12:13.2	95.640	-0.220	0.290	1.410
2020/01/31 02:12:13.3	95.630	-0.240	0.330	1.350
2020/01/31 02:12:13.4	95.610	-0.270	0.370	1.300
2020/01/31 02:12:13.5	95.600	-0.290	0.410	1.250
2020/01/31 02:12:13.6	95.580	-0.320	0.440	1.190
2020/01/31 02:12:13.7	95.570	-0.340	0.470	1.130
2020/01/31 02:12:13.8	95.560	-0.360	0.490	1.070
2020/01/31 02:12:13.9	95.550	-0.370	0.510	1.020
2020/01/31 02:12:14.0	95.540	-0.380	0.520	0.960
2020/01/31 02:12:14.1	95.540	-0.400	0.530	0.900
2020/01/31 02:12:14.2	95.530	-0.400	0.530	0.840
2020/01/31 02:12:14.3	95.530	-0.410	0.520	0.780
2020/01/31 02:12:14.4	95.520	-0.410	0.510	0.720
2020/01/31 02:12:14.5	95.520	-0.410	0.500	0.650
2020/01/31 02:12:14.6	95.520	-0.400	0.470	0.590
2020/01/31 02:12:14.7	95.520	-0.390	0.440	0.530
2020/01/31 02:12:14.8	95.530	-0.380	0.410	0.460
2020/01/31 02:12:14.9	95.530	-0.360	0.370	0.400
2020/01/31 02:12:15.0	95.540	-0.350	0.330	0.330
2020/01/31 02:12:15.1	95.550	-0.320	0.280	0.270
2020/01/31 02:12:15.2	95.560	-0.300	0.220	0.210
2020/01/31 02:12:15.3	95.570	-0.270	0.160	0.140
2020/01/31 02:12:15.4	95.590	-0.240	0.100	0.070
2020/01/31 02:12:15.5	95.610	-0.210	0.040	0.010
2020/01/31 02:12:15.6	95.630	-0.170	-0.020	-0.060
2020/01/31 02:12:15.7	95.660	-0.140	-0.090	-0.120
2020/01/31 02:12:15.8	95.680	-0.100	-0.160	-0.180
2020/01/31 02:12:15.9	95.710	-0.060	-0.230	-0.240
2020/01/31 02:12:16.0	95.730	-0.020	-0.290	-0.300
2020/01/31 02:12:16.1	95.770	0.010	-0.360	-0.350
2020/01/31 02:12:16.2	95.790	0.050	-0.420	-0.400
2020/01/31 02:12:16.3	95.820	0.090	-0.480	-0.450
2020/01/31 02:12:16.4	95.840	0.130	-0.540	-0.490
2020/01/31 02:12:16.5	95.870	0.160	-0.590	-0.530
2020/01/31 02:12:16.6	95.890	0.200	-0.640	-0.570
2020/01/31 02:12:16.7	95.910	0.230	-0.690	-0.600
2020/01/31 02:12:16.8	95.920	0.260	-0.730	-0.620
2020/01/31 02:12:16.9	95.940	0.290	-0.760	-0.650
2020/01/31 02:12:17.0	95.950	0.310	-0.790	-0.660
2020/01/31 02:12:17.1	95.950	0.330	-0.810	-0.670
2020/01/31 02:12:17.2	95.960	0.350	-0.820	-0.680
2020/01/31 02:12:17.3	95.960	0.370	-0.830	-0.690
2020/01/31 02:12:17.4	95.960	0.380	-0.830	-0.690
2020/01/31 02:12:17.5	95.950	0.380	-0.820	-0.690
2020/01/31 02:12:17.6	95.950	0.390	-0.810	-0.690
2020/01/31 02:12:17.7	95.940	0.390	-0.790	-0.680
2020/01/31 02:12:17.8	95.920	0.380	-0.760	-0.680
2020/01/31 02:12:17.9	95.910	0.370	-0.720	-0.660
2020/01/31 02:12:18.0	95.900	0.360	-0.680	-0.650
2020/01/31 02:12:18.1	95.880	0.340	-0.640	-0.630
2020/01/31 02:12:18.2	95.860	0.330	-0.590	-0.600
2020/01/31 02:12:18.3	95.840	0.300	-0.530	-0.580
2020/01/31 02:12:18.4	95.820	0.280	-0.470	-0.560
2020/01/31 02:12:18.5	95.800	0.250	-0.410	-0.530
2020/01/31 02:12:18.6	95.780	0.220	-0.350	-0.490
2020/01/31 02:12:18.7	95.760	0.190	-0.280	-0.460
2020/01/31 02:12:18.8	95.740	0.160	-0.220	-0.420
2020/01/31 02:12:18.9	95.720	0.120	-0.150	-0.380
2020/01/31 02:12:19.0	95.700	0.090	-0.090	-0.340
2020/01/31 02:12:19.1	95.690	0.060	-0.020	-0.300
2020/01/31 02:12:19.2	95.670	0.020	0.040	-0.250
2020/01/31 02:12:19.3	95.650	-0.010	0.100	-0.200
2020/01/31 02:12:19.4	95.640	-0.040	0.160	-0.140
2020/01/31 02:12:19.5	95.630	-0.080	0.210	-0.090
2020/01/31 02:12:19.6	95.610	-0.110	0.260	-0.030
2020/01/31 02:12:19.7	95.600	-0.130	0.300	0.030
2020/01/31 02:12:19.8	95.590	-0.160	0.340	0.100
2020/01/31 02:12:19.9	95.580	-0.180	0.380	0.170
2020/01/31 02:12:20.0	95.580	-0.200	0.400	0.240
2020/01/31 02:12:20.1	95.580	-0.220	0.430	0.310
2020/01/31 02:12:20.2	95.580	-0.230	0.450	0.390
2020/01/31 02:12:20.3	95.570	-0.250	0.460	0.460
2020/01/31 02:12:20.4	95.570	-0.250	0.460	0.540
2020/01/31 02:12:20.5	95.570	-0.260	0.460	0.620
2020/01/31 02:12:20.6	95.560	-0.260	0.450	0.700
2020/01/31 02:12:20.7	95.560	-0.260	0.440	0.790
2020/01/31 02:12:20.8	95.560	-0.250	0.420	0.870
2020/01/31 02:12:20.9	95.570	-0.240	0.400	0.950
2020/01/31 02:12:21.0	95.570	-0.230	0.370	1.030
2020/01/31 02:12:21.1	95.590	-0.220	0.330	1.110
2020/01/31 02:12:21.2	95.600	-0.200	0.290	1.190
2020/01/31 02:12:21.3	95.600	-0.190	0.250	1.270
2020/01/31 02:12:21.4	95.610	-0.170	0.200	1.340
2020/01/31 02:12:21.5	95.610	-0.140	0.160	1.410
2020/01/31 02:12:21.6	95.620	-0.120	0.100	1.480
2020/01/31 02:12:21.7	95.620	-0.100	0.050	1.550
2020/01/31 02:12:21.8	95.630	-0.070	-0.010	1.610
2020/01/31 02:12:21.9	95.630	-0.050	-0.060	1.670
2020/01/31 02:12:22.0	95.640	-0.020	-0.120	1.730
2020/01/31 02:12:22.1	95.650	0.010	-0.180	1.790
2020/01/31 02:12:22.2	95.650	0.030	-0.240	1.840
2020/01/31 02:12:22.3	95.650	0.050	-0.290	1.890
2020/01/31 02:12:22.4	95.660	0.080	-0.350	1.940
2020/01/31 02:12:22.5	95.650	0.100	-0.400	1.990
2020/01/31 02:12:22.6	95.650	0.120	-0.450	2.030
2020/01/31 02:12:22.7	95.650	0.140	-0.500	2.070
2020/01/31 02:12:22.8	95.640	0.150	-0.540	2.110
2020/01/31 02:12:22.9	95.630	0.170	-0.580	2.150
2020/01/31 02:12:23.0	95.610	0.180	-0.620	2.180
2020/01/31 02:12:23.1	95.610	0.190	-0.650	2.220
2020/01/31 02:12:23.2	95.600	0.200	-0.680	2.250
2020/01/31 02:12:23.3	95.580	0.200	-0.700	2.270
2020/01/31 02:12:23.4	95.560	0.200	-0.720	2.300
2020/01/31 02:12:23.5	95.540	0.200	-0.740	2.320
2020/01/31 02:12:23.6	95.510	0.200	-0.750	2.340
2020/01/31 02:12:23.7	95.490	0.200	-0.750	2.360
2020/01/31 02:12:23.8	95.470	0.190	-0.750	2.370
2020/01/31 02:12:23.9	95.440	0.180	-0.750	2.380
2020/01/31 02:12:24.0	95.420	0.170	-0.730	2.390
2020/01/31 02:12:24.1	95.390	0.160	-0.720	2.390
2020/01/31 02:12:24.2	95.370	0.150	-0.700	2.400
2020/01/31 02:12:24.3	95.350	0.130	-0.670	2.400
2020/01/31 02:12:24.4	95.330	0.120	-0.640	2.400
2020/01/31 02:12:24.5	95.310	0.100	-0.610	2.390
2020/01/31 02:12:24.6	95.300	0.080	-0.570	2.380
2020/01/31 02:12:24.7	95.280	0.060	-0.530	2.370
2020/01/31 02:12:24.8	95.270	0.040	-0.480	2.360
2020/01/31 02:12:24.9	95.260	0.020	-0.430	2.340
2020/01/31 02:12:25.0	95.250	0.000	-0.380	2.320
2020/01/31 02:12:25.1	95.250	-0.020	-0.330	2.300
2020/01/31 02:12:25.2	95.240	-0.040	-0.270	2.270
2020/01/31 02:12:25.3	95.240	-0.060	-0.220	2.250
2020/01/31 02:12:25.4	95.240	-0.070	-0.160	2.220
2020/01/31 02:12:25.5	95.240	-0.090	-0.110	2.180
2020/01/31 02:12:25.6	95.240	-0.110	-0.050	2.150
2020/01/31 02:12:25.7	95.250	-0.120	-0.000	2.110
2020/01/31 02:12:25.8	95.250	-0.130	0.050	2.070
2020/01/31 02:12:25.9	95.260	-0.150	0.100	2.030
2020/01/31 02:12:26.0	95.260	-0.160	0.150	1.980
2020/01/31 02:12:26.1	95.270	-0.160	0.190	1.940
2020/01/31 02:12:26.2	95.280	-0.170	0.230	1.890
2020/01/31 02:12:26.3	95.290	-0.180	0.260	1.830
2020/01/31 02:12:26.4	95.300	-0.180	0.300	1.780
2020/01/31 02:12:26.5	95.310	-0.180	0.320	1.720
2020/01/31 02:12:26.6	95.320	-0.180	0.350	1.650
2020/01/31 02:12:26.7	95.340	-0.170	0.360	1.580
2020/01/31 02:12:26.8	95.350	-0.170	0.380	1.510
2020/01/31 02:12:26.9	95.370	-0.160	0.390	1.430
2020/01/31 02:12:27.0	95.390	-0.150	0.390	1.340
2020/01/31 02:12:27.1	95.400	-0.150	0.390	1.260
2020/01/31 02:12:27.2	95.430	-0.130	0.390	1.170
2020/01/31 02:12:27.3	95.450	-0.120	0.390	1.070
2020/01/31 02:12:27.4	95.480	-0.110	0.380	0.970
2020/01/31 02:12:27.5	95.500	-0.100	0.360	0.880
2020/01/31 02:12:27.6	95.530	-0.080	0.350	0.780
2020/01/31 02:12:27.7	95.560	-0.070	0.330	0.680
2020/01/31 02:12:27.8	95.590	-0.060	0.310	0.580
2020/01/31 02:12:27.9	95.610	-0.040	0.290	0.480
2020/01/31 02:12:28.0	95.640	-0.030	0.270	0.380
2020/01/31 02:12:28.1	95.670	-0.020	0.240	0.290
2020/01/31 02:12:28.2	95.690	-0.000	0.220	0.200
2020/01/31 02:12:28.3	95.710	0.010	0.190	0.110
2020/01/31 02:12:28.4	95.720	0.020	0.160	0.030
2020/01/31 02:12:28.5	95.730	0.030	0.140	-0.040
2020/01/31 02:12:28.6	95.740	0.040	0.110	-0.110
2020/01/31 02:12:28.7	95.750	0.050	0.080	-0.180
2020/01/31 02:12:28.8	95.750	0.060	0.050	-0.240
2020/01/31 02:12:28.9	95.750	0.070	0.020	-0.290
2020/01/31 02:12:29.0	95.740	0.070	-0.010	-0.340
2020/01/31 02:12:29.1	95.730	0.080	-0.050	-0.370
2020/01/31 02:12:29.2	95.720	0.090	-0.070	-0.410
2020/01/31 02:12:29.3	95.710	0.090	-0.100	-0.440
2020/01/31 02:12:29.4	95.690	0.090	-0.130	-0.460
2020/01/31 02:12:29.5	95.670	0.100	-0.160	-0.480
2020/01/31 02:12:29.6	95.650	0.100	-0.190	-0.500
2020/01/31 02:12:29.7	95.620	0.100	-0.220	-0.510
2020/01/31 02:12:29.8	95.600	0.110	-0.250	-0.520
2020/01/31 02:12:29.9	95.570	0.110	-0.270	-0.520
2020/01/31 02:12:30.0	95.540	0.110	-0.300	-0.520
2020/01/31 02:12:30.1	95.520	0.110	-0.320	-0.510
2020/01/31 02:12:30.2	95.490	0.110	-0.340	-0.510
2020/01/31 02:12:30.3	95.460	0.120	-0.370	-0.500
2020/01/31 02:12:30.4	95.430	0.120	-0.390	-0.480
2020/01/31 02:12:30.5	95.400	0.120	-0.410	-0.470
2020/01/31 02:12:30.6	95.370	0.120	-0.430	-0.450
2020/01/31 02:12:30.7	95.340	0.120	-0.450	-0.430
2020/01/31 02:12:30.8	95.310	0.130	-0.470	-0.400
2020/01/31 02:12:30.9	95.280	0.130	-0.480	-0.380
2020/01/31 02:12:31.0	95.250	0.140	-0.500	-0.350
2020/01/31 02:12:31.1	95.220	0.140	-0.520	-0.310
2020/01/31 02:12:31.2	95.190	0.150	-0.530	-0.280
2020/01/31 02:12:31.3	95.160	0.150	-0.550	-0.250
2020/01/31 02:12:31.4	95.140	0.160	-0.560	-0.220
2020/01/31 02:12:31.5	95.120	0.160	-0.580	-0.180
2020/01/31 02:12:31.6	95.090	0.170	-0.590	-0.150
2020/01/31 02:12:31.7	95.080	0.180	-0.610	-0.120
2020/01/31 02:12:31.8	95.060	0.190	-0.620	-0.080
2020/01/31 02:12:31.9	95.040	0.190	-0.630	-0.040
2020/01/31 02:12:32.0	95.030	0.200	-0.650	-0.010
2020/01/31 02:12:32.1	95.030	0.210	-0.660	0.030
2020/01/31 02:12:32.2	95.020	0.220	-0.670	0.060
2020/01/31 02:12:32.3	95.010	0.220	-0.680	0.100
2020/01/31 02:12:32.4	95.010	0.230	-0.690	0.140
2020/01/31 02:12:32.5	95.000	0.240	-0.700	0.170
2020/01/31 02:12:32.6	95.000	0.240	-0.700	0.210
2020/01/31 02:12:32.7	95.000	0.250	-0.710	0.250
2020/01/31 02:12:32.8	95.000	0.250	-0.710	0.280
2020/01/31 02:12:32.9	95.010	0.250	-0.710	0.320
2020/01/31 02:12:33.0	95.020	0.250	-0.700	0.360
2020/01/31 02:12:33.1	95.010	0.250	-0.690	0.410
2020/01/31 02:12:33.2	95.030	0.240	-0.680	0.440
2020/01/31 02:12:33.3	95.040	0.240	-0.670	0.480
2020/01/31 02:12:33.4	95.050	0.230	-0.650	0.520
2020/01/31 02:12:33.5	95.070	0.220	-0.620	0.560
2020/01/31 02:12:33.6	95.080	0.210	-0.590	0.610
2020/01/31 02:12:33.7	95.100	0.200	-0.560	0.650
2020/01/31 02:12:33.8	95.120	0.180	-0.530	0.690
2020/01/31 02:12:33.9	95.140	0.160	-0.480	0.730
2020/01/31 02:12:34.0	95.160	0.140	-0.440	0.770
2020/01/31 02:12:34.1	95.160	0.120	-0.390	0.820
2020/01/31 02:12:34.2	95.190	0.090	-0.330	0.870
2020/01/31 02:12:34.3	95.210	0.060	-0.280	0.910
2020/01/31 02:12:34.4	95.230	0.030	-0.220	0.950
2020/01/31 02:12:34.5	95.260	-0.000	-0.150	1.000
2020/01/31 02:12:34.6	95.280	-0.030	-0.090	1.040
2020/01/31 02:12:34.7	95.300	-0.070	-0.020	1.080
2020/01/31 02:12:34.8	95.330	-0.110	0.050	1.130
2020/01/31 02:12:34.9	95.350	-0.140	0.120	1.170
2020/01/31 02:12:35.0	95.370	-0.180	0.190	1.210
2020/01/31 02:12:35.1	95.390	-0.220	0.260	1.250
2020/01/31 02:12:35.2	95.420	-0.260	0.330	1.300
2020/01/31 02:12:35.3	95.430	-0.300	0.400	1.340
2020/01/31 02:12:35.4	95.450	-0.340	0.460	1.370
2020/01/31 02:12:35.5	95.470	-0.380	0.530	1.410
2020/01/31 02:12:35.6	95.490	-0.410	0.590	1.450
2020/01/31 02:12:35.7	95.500	-0.450	0.650	1.490
2020/01/31 02:12:35.8	95.520	-0.480	0.710	1.520
2020/01/31 02:12:35.9	95.530	-0.520	0.760	1.550
2020/01/31 02:12:36.0	95.540	-0.550	0.800	1.580
2020/01/31 02:12:36.1	95.560	-0.570	0.850	1.620
2020/01/31 02:12:36.2	95.570	-0.600	0.880	1.650
2020/01/31 02:12:36.3	95.570	-0.620	0.910	1.670
2020/01/31 02:12:36.4	95.580	-0.640	0.930	1.700
2020/01/31 02:12:36.5	95.580	-0.650	0.940	1.720
2020/01/31 02:12:36.6	95.580	-0.660	0.950	1.740
2020/01/31 02:12:36.7	95.590	-0.670	0.940	1.760
2020/01/31 02:12:36.8	95.590	-0.670	0.930	1.770
2020/01/31 02:12:36.9	95.580	-0.670	0.910	1.790
2020/01/31 02:12:37.0	95.580	-0.670	0.880	1.800
2020/01/31 02:12:37.1	95.600	-0.650	0.850	1.820
2020/01/31 02:12:37.2	95.590	-0.640	0.800	1.830
2020/01/31 02:12:37.3	95.590	-0.620	0.750	1.840
2020/01/31 02:12:37.4	95.580	-0.590	0.690	1.850
2020/01/31 02:12:37.5	95.570	-0.570	0.630	1.850
2020/01/31 02:12:37.6	95.570	-0.530	0.560	1.860
2020/01/31 02:12:37.7	95.560	-0.500	0.480	1.860
2020/01/31 02:12:37.8	95.550	-0.460	0.400	1.860
2020/01/31 02:12:37.9	95.540	-0.410	0.310	1.860
2020/01/31 02:12:38.0	95.540	-0.370	0.220	1.860
2020/01/31 02:12:38.1	95.530	-0.320	0.130	1.860
2020/01/31 02:12:38.2	95.520	-0.270	0.030	1.860
2020/01/31 02:12:38.3	95.510	-0.220	-0.060	1.850
2020/01/31 02:12:38.4	95.510	-0.170	-0.150	1.840
2020/01/31 02:12:38.5	95.510	-0.120	-0.250	1.830
2020/01/31 02:12:38.6	95.500	-0.060	-0.340	1.820
2020/01/31 02:12:38.7	95.500	-0.010	-0.420	1.800
2020/01/31 02:12:38.8	95.500	0.040	-0.510	1.780
2020/01/31 02:12:38.9	95.500	0.090	-0.590	1.760
2020/01/31 02:12:39.0	95.510	0.140	-0.660	1.730
2020/01/31 02:12:39.1	95.500	0.190	-0.730	1.700
2020/01/31 02:12:39.2	95.510	0.230	-0.790	1.670
2020/01/31 02:12:39.3	95.510	0.270	-0.850	1.630
2020/01/31 02:12:39.4	95.520	0.310	-0.900	1.590
2020/01/31 02:12:39.5	95.530	0.340	-0.940	1.550
2020/01/31 02:12:39.6	95.540	0.380	-0.970	1.510
2020/01/31 02:12:39.7	95.550	0.400	-1.000	1.460
2020/01/31 02:12:39.8	95.560	0.430	-1.020	1.410
2020/01/31 02:12:39.9	95.570	0.450	-1.040	1.350
2020/01/31 02:12:40.0	95.580	0.470	-1.040	1.300
2020/01/31 02:12:40.1	95.590	0.480	-1.040	1.240
2020/01/31 02:12:40.2	95.600	0.490	-1.040	1.180
2020/01/31 02:12:40.3	95.610	0.490	-1.030	1.120
2020/01/31 02:12:40.4	95.630	0.500	-1.010	1.060
2020/01/31 02:12:40.5	95.640	0.500	-0.990	0.990
2020/01/31 02:12:40.6	95.650	0.490	-0.970	0.930
2020/01/31 02:12:40.7	95.660	0.480	-0.940	0.860
2020/01/31 02:12:40.8	95.670	0.480	-0.900	0.800
2020/01/31 02:12:40.9	95.680	0.460	-0.870	0.730
2020/01/31 02:12:41.0	95.690	0.450	-0.830	0.670
2020/01/31 02:12:41.1	95.690	0.440	-0.780	0.610
2020/01/31 02:12:41.2	95.700	0.420	-0.740	0.550
2020/01/31 02:12:41.3	95.700	0.400	-0.700	0.490
2020/01/31 02:12:41.4	95.710	0.380	-0.650	0.440
2020/01/31 02:12:41.5	95.710	0.360	-0.610	0.390
2020/01/31 02:12:41.6	95.710	0.340	-0.560	0.340
2020/01/31 02:12:41.7	95.710	0.320	-0.520	0.300
2020/01/31 02:12:41.8	95.700	0.300	-0.480	0.250
2020/01/31 02:12:41.9	95.700	0.280	-0.430	0.220
2020/01/31 02:12:42.0	95.700	0.260	-0.390	0.180
2020/01/31 02:12:42.1	95.700	0.240	-0.360	0.150
2020/01/31 02:12:42.2	95.690	0.230	-0.320	0.130
2020/01/31 02:12:42.3	95.680	0.210	-0.280	0.100
2020/01/31 02:12:42.4	95.670	0.190	-0.250	0.080
2020/01/31 02:12:42.5	95.650	0.180	-0.220	0.060
2020/01/31 02:12:42.6	95.640	0.160	-0.190	0.050
2020/01/31 02:12:42.7	95.630	0.150	-0.170	0.040
2020/01/31 02:12:42.8	95.610	0.140	-0.140	0.030
2020/01/31 02:12:42.9	95.600	0.130	-0.120	0.020
2020/01/31 02:12:43.0	95.580	0.120	-0.100	0.020
2020/01/31 02:12:43.1	95.560	0.110	-0.080	0.010
2020/01/31 02:12:43.2	95.540	0.100	-0.070	0.020
2020/01/31 02:12:43.3	95.520	0.090	-0.050	0.020
2020/01/31 02:12:43.4	95.500	0.080	-0.040	0.030
2020/01/31 02:12:43.5	95.480	0.070	-0.030	0.030
2020/01/31 02:12:43.6	95.460	0.060	-0.020	0.040
2020/01/31 02:12:43.7	95.440	0.050	-0.010	0.060
2020/01/31 02:12:43.8	95.420	0.040	0.010	0.070
2020/01/31 02:12:43.9	95.410	0.030	0.020	0.080
2020/01/31 02:12:44.0	95.390	0.020	0.030	0.100
2020/01/31 02:12:44.1	95.360	0.010	0.040	0.130
2020/01/31 02:12:44.2	95.340	-0.000	0.050	0.140
2020/01/31 02:12:44.3	95.330	-0.010	0.060	0.160
2020/01/31 02:12:44.4	95.320	-0.030	0.070	0.180
2020/01/31 02:12:44.5	95.300	-0.040	0.080	0.190
2020/01/31 02:12:44.6	95.290	-0.050	0.090	0.210
2020/01/31 02:12:44.7	95.280	-0.070	0.110	0.230
2020/01/31 02:12:44.8	95.280	-0.080	0.120	0.240
2020/01/31 02:12:44.9	95.270	-0.100	0.130	0.260
2020/01/31 02:12:45.0	95.270	-0.110	0.140	0.270
2020/01/31 02:12:45.1	95.260	-0.130	0.150	0.290
2020/01/31 02:12:45.2	95.260	-0.150	0.170	0.300
2020/01/31 02:12:45.3	95.260	-0.160	0.170	0.310
2020/01/31 02:12:45.4	95.270	-0.180	0.180	0.320
2020/01/31 02:12:45.5	95.270	-0.200	0.190	0.340
2020/01/31 02:12:45.6	95.280	-0.210	0.200	0.350
2020/01/31 02:12:45.7	95.290	-0.230	0.200	0.360
2020/01/31 02:12:45.8	95.300	-0.240	0.210	0.370
2020/01/31 02:12:45.9	95.310	-0.250	0.210	0.390
2020/01/31 02:12:46.0	95.330	-0.270	0.210	0.400
2020/01/31 02:12:46.1	95.330	-0.280	0.200	0.410
2020/01/31 02:12:46.2	95.340	-0.290	0.200	0.430
2020/01/31 02:12:46.3	95.350	-0.290	0.200	0.440
2020/01/31 02:12:46.4	95.370	-0.300	0.190	0.460
2020/01/31 02:12:46.5	95.380	-0.310	0.180	0.470
2020/01/31 02:12:46.6	95.400	-0.310	0.170	0.490
2020/01/31 02:12:46.7	95.410	-0.310	0.160	0.510
2020/01/31 02:12:46.8	95.430	-0.310	0.150	0.520
2020/01/31 02:12:46.9	95.450	-0.310	0.130	0.540
2020/01/31 02:12:47.0	95.460	-0.300	0.120	0.560
2020/01/31 02:12:47.1	95.480	-0.300	0.100	0.580
2020/01/31 02:12:47.2	95.500	-0.290	0.080	0.600
2020/01/31 02:12:47.3	95.510	-0.280	0.060	0.620
2020/01/31 02:12:47.4	95.530	-0.270	0.040	0.640
2020/01/31 02:12:47.5	95.540	-0.260	0.020	0.650
2020/01/31 02:12:47.6	95.560	-0.240	-0.000	0.670
2020/01/31 02:12:47.7	95.580	-0.230	-0.030	0.680
2020/01/31 02:12:47.8	95.590	-0.210	-0.050	0.700
2020/01/31 02:12:47.9	95.610	-0.190	-0.070	0.710
2020/01/31 02:12:48.0	95.630	-0.170	-0.100	0.730
2020/01/31 02:12:48.1	95.630	-0.160	-0.120	0.740
2020/01/31 02:12:48.2	95.640	-0.140	-0.150	0.760
2020/01/31 02:12:48.3	95.660	-0.120	-0.170	0.770
2020/01/31 02:12:48.4	95.670	-0.100	-0.190	0.780
2020/01/31 02:12:48.5	95.690	-0.080	-0.210	0.800
2020/01/31 02:12:48.6	95.700	-0.060	-0.220	0.810
2020/01/31 02:12:48.7	95.720	-0.050	-0.240	0.820
2020/01/31 02:12:48.8	95.730	-0.030	-0.250	0.840
2020/01/31 02:12:48.9	95.750	-0.010	-0.270	0.850
2020/01/31 02:12:49.0	95.760	-0.000	-0.280	0.870
2020/01/31 02:12:49.1	95.780	0.010	-0.280	0.890
2020/01/31 02:12:49.2	95.790	0.020	-0.290	0.910
2020/01/31 02:12:49.3	95.800	0.030	-0.290	0.930
2020/01/31 02:12:49.4	95.810	0.040	-0.290	0.950
2020/01/31 02:12:49.5	95.810	0.050	-0.290	0.970
2020/01/31 02:12:49.6	95.820	0.050	-0.280	0.990
2020/01/31 02:12:49.7	95.820	0.050	-0.270	1.020
2020/01/31 02:12:49.8	95.830	0.050	-0.260	1.040
2020/01/31 02:12:49.9	95.830	0.050	-0.250	1.070
2020/01/31 02:12:50.0	95.840	0.040	-0.240	1.100
2020/01/31 02:12:50.1	95.840	0.040	-0.220	1.130
2020/01/31 02:12:50.2	95.850	0.030	-0.210	1.150
2020/01/31 02:12:50.3	95.850	0.020	-0.190	1.180
2020/01/31 02:12:50.4	95.850	0.010	-0.170	1.210
2020/01/31 02:12:50.5	95.860	0.000	-0.150	1.230
2020/01/31 02:12:50.6	95.860	-0.010	-0.140	1.260
2020/01/31 02:12:50.7	95.870	-0.020	-0.120	1.280
2020/01/31 02:12:50.8	95.870	-0.040	-0.100	1.300
2020/01/31 02:12:50.9	95.880	-0.050	-0.080	1.310
2020/01/31 02:12:51.0	95.890	-0.060	-0.070	1.330
2020/01/31 02:12:51.1	95.900	-0.080	-0.050	1.350
2020/01/31 02:12:51.2	95.910	-0.090	-0.030	1.360
2020/01/31 02:12:51.3	95.910	-0.100	-0.020	1.370
2020/01/31 02:12:51.4	95.920	-0.110	-0.010	1.370
2020/01/31 02:12:51.5	95.920	-0.120	-0.000	1.380
2020/01/31 02:12:51.6	95.920	-0.130	0.010	1.380
2020/01/31 02:12:51.7	95.930	-0.140	0.010	1.390
2020/01/31 02:12:51.8	95.930	-0.150	0.010	1.390
2020/01/31 02:12:51.9	95.930	-0.150	0.010	1.390
2020/01/31 02:12:52.0	95.920	-0.150	0.010	1.390
2020/01/31 02:12:52.1	95.910	-0.150	-0.000	1.390
2020/01/31 02:12:52.2	95.900	-0.150	-0.010	1.380
2020/01/31 02:12:52.3	95.890	-0.140	-0.020	1.380
2020/01/31 02:12:52.4	95.880	-0.130	-0.040	1.380
2020/01/31 02:12:52.5	95.870	-0.120	-0.050	1.370
2020/01/31 02:12:52.6	95.850	-0.110	-0.070	1.370
2020/01/31 02:12:52.7	95.830	-0.090	-0.100	1.360
2020/01/31 02:12:52.8	95.800	-0.070	-0.120	1.360
2020/01/31 02:12:52.9	95.780	-0.050	-0.150	1.350
2020/01/31 02:12:53.0	95.750	-0.030	-0.180	1.350
2020/01/31 02:12:53.1	95.720	-0.010	-0.210	1.340
2020/01/31 02:12:53.2	95.690	0.020	-0.240	1.340
2020/01/31 02:12:53.3	95.660	0.050	-0.280	1.330
2020/01/31 02:12:53.4	95.630	0.070	-0.310	1.320
2020/01/31 02:12:53.5	95.600	0.100	-0.350	1.300
2020/01/31 02:12:53.6	95.560	0.130	-0.380	1.290
2020/01/31 02:12:53.7	95.530	0.160	-0.420	1.270
2020/01/31 02:12:53.8	95.500	0.190	-0.460	1.260
2020/01/31 02:12:53.9	95.470	0.220	-0.490	1.240
2020/01/31 02:12:54.0	95.440	0.250	-0.530	1.220
2020/01/31 02:12:54.1	95.410	0.280	-0.560	1.200
2020/01/31 02:12:54.2	95.380	0.310	-0.590	1.180
2020/01/31 02:12:54.3	95.360	0.330	-0.620	1.150
2020/01/31 02:12:54.4	95.340	0.350	-0.650	1.130
2020/01/31 02:12:54.5	95.320	0.370	-0.670	1.110
2020/01/31 02:12:54.6	95.300	0.390	-0.690	1.080
2020/01/31 02:12:54.7	95.280	0.410	-0.710	1.060
2020/01/31 02:12:54.8	95.270	0.420	-0.720	1.030
2020/01/31 02:12:54.9	95.250	0.430	-0.720	1.000
2020/01/31 02:12:55.0	95.240	0.440	-0.730	0.980
2020/01/31 02:12:55.1	95.220	0.440	-0.720	0.950
2020/01/31 02:12:55.2	95.210	0.440	-0.720	0.920
2020/01/31 02:12:55.3	95.200	0.440	-0.710	0.890
2020/01/31 02:12:55.4	95.200	0.430	-0.690	0.870
2020/01/31 02:12:55.5	95.190	0.420	-0.670	0.840
2020/01/31 02:12:55.6	95.190	0.410	-0.650	0.810
2020/01/31 02:12:55.7	95.190	0.390	-0.620	0.790
2020/01/31 02:12:55.8	95.190	0.370	-0.580	0.760
2020/01/31 02:12:55.9	95.200	0.350	-0.550	0.730
2020/01/31 02:12:56.0	95.200	0.330	-0.510	0.700
2020/01/31 02:12:56.1	95.190	0.300	-0.460	0.680
2020/01/31 02:12:56.2	95.200	0.270	-0.420	0.650
2020/01/31 02:12:56.3	95.200	0.240	-0.370	0.620
2020/01/31 02:12:56.4	95.210	0.210	-0.320	0.590
2020/01/31 02:12:56.5	95.220	0.180	-0.270	0.560
2020/01/31 02:12:56.6	95.220	0.140	-0.210	0.530
2020/01/31 02:12:56.7	95.230	0.110	-0.160	0.500
2020/01/31 02:12:56.8	95.240	0.080	-0.110	0.470
2020/01/31 02:12:56.9	95.240	0.040	-0.060	0.440
2020/01/31 02:12:57.0	95.250	0.010	-0.000	0.410
2020/01/31 02:12:57.1	95.250	-0.020	0.050	0.380
2020/01/31 02:12:57.2	95.260	-0.050	0.100	0.360
2020/01/31 02:12:57.3	95.260	-0.080	0.140	0.330
2020/01/31 02:12:57.4	95.260	-0.110	0.180	0.310
2020/01/31 02:12:57.5	95.260	-0.140	0.220	0.290
2020/01/31 02:12:57.6	95.260	-0.160	0.260	0.270
2020/01/31 02:12:57.7	95.260	-0.180	0.290	0.250
2020/01/31 02:12:57.8	95.250	-0.200	0.320	0.240
2020/01/31 02:12:57.9	95.250	-0.220	0.340	0.230
2020/01/31 02:12:58.0	95.240	-0.240	0.370	0.220
2020/01/31 02:12:58.1	95.230	-0.250	0.380	0.220
2020/01/31 02:12:58.2	95.220	-0.260	0.390	0.210
2020/01/31 02:12:58.3	95.210	-0.260	0.400	0.210
2020/01/31 02:12:58.4	95.200	-0.270	0.400	0.210
2020/01/31 02:12:58.5	95.190	-0.270	0.410	0.210
2020/01/31 02:12:58.6	95.170	-0.270	0.400	0.210
2020/01/31 02:12:58.7	95.160	-0.270	0.390	0.220
2020/01/31 02:12:58.8	95.150	-0.260	0.380	0.220
2020/01/31 02:12:58.9	95.140	-0.250	0.370	0.230
2020/01/31 02:12:59.0	95.130	-0.250	0.350	0.230
2020/01/31 02:12:59.1	95.130	-0.240	0.340	0.240
2020/01/31 02:12:59.2	95.130	-0.230	0.310	0.250
2020/01/31 02:12:59.3	95.120	-0.210	0.290	0.250
2020/01/31 02:12:59.4	95.120	-0.200	0.260	0.260
2020/01/31 02:12:59.5	95.120	-0.190	0.240	0.270
2020/01/31 02:12:59.6	95.120	-0.180	0.210	0.270
2020/01/31 02:12:59.7	95.120	-0.160	0.180	0.280
2020/01/31 02:12:59.8	95.120	-0.150	0.150	0.290
2020/01/31 02:12:59.9	95.130	-0.140	0.110	0.300
2020/01/31 02:13:00.0	95.130	-0.130	0.080	0.310
2020/01/31 02:13:00.1	95.130	-0.120	0.050	0.330
2020/01/31 02:13:00.2	95.140	-0.110	0.010	0.340
2020/01/31 02:13:00.3	95.150	-0.100	-0.020	0.360
2020/01/31 02:13:00.4	95.160	-0.090	-0.050	0.380
2020/01/31 02:13:00.5	95.170	-0.090	-0.070	0.400
2020/01/31 02:13:00.6	95.180	-0.080	-0.100	0.420
2020/01/31 02:13:00.7	95.190	-0.080	-0.120	0.440
2020/01/31 02:13:00.8	95.200	-0.080	-0.150	0.460
2020/01/31 02:13:00.9	95.210	-0.080	-0.170	0.490
2020/01/31 02:13:01.0	95.220	-0.080	-0.190	0.520
2020/01/31 02:13:01.1	95.230	-0.090	-0.200	0.550
2020/01/31 02:13:01.2	95.240	-0.090	-0.210	0.580
2020/01/31 02:13:01.3	95.250	-0.100	-0.230	0.610
2020/01/31 02:13:01.4	95.260	-0.110	-0.240	0.640
2020/01/31 02:13:01.5	95.270	-0.120	-0.240	0.670
2020/01/31 02:13:01.6	95.270	-0.130	-0.250	0.700
2020/01/31 02:13:01.7	95.280	-0.140	-0.250	0.730
2020/01/31 02:13:01.8	95.290	-0.150	-0.250	0.760
2020/01/31 02:13:01.9	95.290	-0.160	-0.250	0.780
2020/01/31 02:13:02.0	95.300	-0.170	-0.250	0.810
2020/01/31 02:13:02.1	95.300	-0.180	-0.250	0.840
2020/01/31 02:13:02.2	95.310	-0.190	-0.240	0.870
2020/01/31 02:13:02.3	95.310	-0.200	-0.230	0.890
2020/01/31 02:13:02.4	95.310	-0.200	-0.220	0.920
2020/01/31 02:13:02.5	95.310	-0.210	-0.210	0.940
2020/01/31 02:13:02.6	95.310	-0.220	-0.200	0.960
2020/01/31 02:13:02.7	95.310	-0.220	-0.190	0.980
2020/01/31 02:13:02.8	95.310	-0.220	-0.180	1.000
2020/01/31 02:13:02.9	95.310	-0.220	-0.170	1.020
2020/01/31 02:13:03.0	95.310	-0.220	-0.160	1.040
2020/01/31 02:13:03.1	95.330	-0.220	-0.150	1.050
2020/01/31 02:13:03.2	95.320	-0.210	-0.140	1.070
2020/01/31 02:13:03.3	95.310	-0.200	-0.140	1.090
2020/01/31 02:13:03.4	95.310	-0.190	-0.130	1.120
2020/01/31 02:13:03.5	95.300	-0.180	-0.130	1.140
2020/01/31 02:13:03.6	95.290	-0.160	-0.130	1.160
2020/01/31 02:13:03.7	95.280	-0.150	-0.140	1.180
2020/01/31 02:13:03.8	95.260	-0.130	-0.150	1.210
2020/01/31 02:13:03.9	95.250	-0.110	-0.160	1.230
2020/01/31 02:13:04.0	95.240	-0.090	-0.170	1.260
2020/01/31 02:13:04.1	95.230	-0.060	-0.190	1.300
2020/01/31 02:13:04.2	95.220	-0.040	-0.210	1.320
2020/01/31 02:13:04.3	95.200	-0.020	-0.230	1.350
2020/01/31 02:13:04.4	95.180	0.010	-0.260	1.380
2020/01/31 02:13:04.5	95.160	0.040	-0.280	1.400
2020/01/31 02:13:04.6	95.150	0.060	-0.310	1.430
2020/01/31 02:13:04.7	95.130	0.090	-0.340	1.450
2020/01/31 02:13:04.8	95.120	0.120	-0.370	1.470
2020/01/31 02:13:04.9	95.100	0.140	-0.400	1.500
2020/01/31 02:13:05.0	95.080	0.170	-0.430	1.520
2020/01/31 02:13:05.1	95.080	0.190	-0.460	1.530
2020/01/31 02:13:05.2	95.070	0.220	-0.490	1.550
2020/01/31 02:13:05.3	95.050	0.240	-0.520	1.560
2020/01/31 02:13:05.4	95.040	0.260	-0.540	1.580
2020/01/31 02:13:05.5	95.030	0.280	-0.570	1.590
2020/01/31 02:13:05.6	95.020	0.300	-0.590	1.590
2020/01/31 02:13:05.7	95.010	0.310	-0.610	1.600
2020/01/31 02:13:05.8	95.000	0.320	-0.630	1.610
2020/01/31 02:13:05.9	94.990	0.330	-0.650	1.610
2020/01/31 02:13:06.0	94.980	0.340	-0.660	1.610
2020/01/31 02:13:06.1	94.990	0.350	-0.670	1.610
2020/01/31 02:13:06.2	94.990	0.350	-0.670	1.600
2020/01/31 02:13:06.3	94.990	0.350	-0.670	1.590
2020/01/31 02:13:06.4	94.980	0.350	-0.670	1.580
2020/01/31 02:13:06.5	94.980	0.340	-0.660	1.570
2020/01/31 02:13:06.6	94.980	0.330	-0.650	1.550
2020/01/31 02:13:06.7	94.980	0.320	-0.640	1.530
2020/01/31 02:13:06.8	94.980	0.310	-0.620	1.510
2020/01/31 02:13:06.9	94.980	0.300	-0.600	1.490
2020/01/31 02:13:07.0	94.980	0.280	-0.570	1.460
2020/01/31 02:13:07.1	94.990	0.260	-0.530	1.440
2020/01/31 02:13:07.2	94.990	0.240	-0.500	1.410
2020/01/31 02:13:07.3	94.990	0.220	-0.460	1.380
2020/01/31 02:13:07.4	94.990	0.190	-0.410	1.360
2020/01/31 02:13:07.5	94.990	0.170	-0.360	1.330
2020/01/31 02:13:07.6	94.990	0.140	-0.310	1.300
2020/01/31 02:13:07.7	94.990	0.120	-0.260	1.280
2020/01/31 02:13:07.8	94.980	0.090	-0.200	1.250
2020/01/31 02:13:07.9	94.980	0.060	-0.140	1.230
2020/01/31 02:13:08.0	94.970	0.030	-0.080	1.210
2020/01/31 02:13:08.1	94.990	-0.000	-0.020	1.190
2020/01/31 02:13:08.2	94.980	-0.030	0.050	1.170
2020/01/31 02:13:08.3	94.970	-0.060	0.110	1.150
2020/01/31 02:13:08.4	94.960	-0.090	0.180	1.130
2020/01/31 02:13:08.5	94.940	-0.120	0.240	1.110
2020/01/31 02:13:08.6	94.930	-0.140	0.310	1.090
2020/01/31 02:13:08.7	94.920	-0.170	0.370	1.070
2020/01/31 02:13:08.8	94.900	-0.200	0.430	1.050
2020/01/31 02:13:08.9	94.880	-0.220	0.480	1.030
2020/01/31 02:13:09.0	94.870	-0.240	0.540	1.010
2020/01/31 02:13:09.1	94.850	-0.260	0.580	0.990
2020/01/31 02:13:09.2	94.830	-0.280	0.630	0.970
2020/01/31 02:13:09.3	94.820	-0.300	0.660	0.940
2020/01/31 02:13:09.4	94.800	-0.310	0.690	0.920
2020/01/31 02:13:09.5	94.780	-0.320	0.710	0.890
2020/01/31 02:13:09.6	94.770	-0.330	0.720	0.860
2020/01/31 02:13:09.7	94.750	-0.330	0.730	0.830
2020/01/31 02:13:09.8	94.740	-0.330	0.730	0.790
2020/01/31 02:13:09.9	94.730	-0.330	0.720	0.760
2020/01/31 02:13:10.0	94.720	-0.330	0.700	0.720
2020/01/31 02:13:10.1	94.710	-0.320	0.680	0.680
2020/01/31 02:13:10.2	94.700	-0.310	0.640	0.640
2020/01/31 02:13:10.3	94.690	-0.290	0.600	0.600
2020/01/31 02:13:10.4	94.680	-0.280	0.560	0.560
2020/01/31 02:13:10.5	94.670	-0.260	0.500	0.520
2020/01/31 02:13:10.6	94.670	-0.240	0.450	0.470
2020/01/31 02:13:10.7	94.660	-0.210	0.380	0.430
2020/01/31 02:13:10.8	94.660	-0.190	0.320	0.380
2020/01/31 02:13:10.9	94.650	-0.160	0.240	0.340
2020/01/31 02:13:11.0	94.650	-0.130	0.170	0.290
2020/01/31 02:13:11.1	94.630	-0.100	0.090	0.250
2020/01/31 02:13:11.2	94.630	-0.070	0.010	0.200
2020/01/31 02:13:11.3	94.630	-0.040	-0.070	0.160
2020/01/31 02:13:11.4	94.630	-0.000	-0.140	0.120
2020/01/31 02:13:11.5	94.630	0.030	-0.220	0.080
2020/01/31 02:13:11.6	94.630	0.070	-0.300	0.050
2020/01/31 02:13:11.7	94.630	0.100	-0.380	0.020
2020/01/31 02:13:11.8	94.630	0.130	-0.450	-0.010
2020/01/31 02:13:11.9	94.640	0.170	-0.520	-0.040
2020/01/31 02:13:12.0	94.640	0.200	-0.590	-0.070
2020/01/31 02:13:12.1	94.630	0.230	-0.660	-0.080
2020/01/31 02:13:12.2	94.630	0.260	-0.710	-0.100
2020/01/31 02:13:12.3	94.640	0.290	-0.770	-0.120
2020/01/31 02:13:12.4	94.640	0.310	-0.820	-0.140
2020/01/31 02:13:12.5	94.650	0.340	-0.860	-0.150
2020/01/31 02:13:12.6	94.660	0.360	-0.900	-0.160
2020/01/31 02:13:12.7	94.660	0.380	-0.930	-0.160
2020/01/31 02:13:12.8	94.670	0.400	-0.950	-0.170
2020/01/31 02:13:12.9	94.680	0.410	-0.970	-0.170
2020/01/31 02:13:13.0	94.690	0.430	-0.990	-0.180
2020/01/31 02:13:13.1	94.690	0.440	-0.990	-0.170
2020/01/31 02:13:13.2	94.700	0.450	-0.990	-0.170
2020/01/31 02:13:13.3	94.720	0.450	-0.990	-0.170
2020/01/31 02:13:13.4	94.730	0.460	-0.980	-0.160
2020/01/31 02:13:13.5	94.740	0.460	-0.960	-0.150
2020/01/31 02:13:13.6	94.760	0.450	-0.940	-0.140
2020/01/31 02:13:13.7	94.770	0.450	-0.910	-0.130
2020/01/31 02:13:13.8	94.780	0.440	-0.870	-0.110
2020/01/31 02:13:13.9	94.800	0.430	-0.830	-0.090
2020/01/31 02:13:14.0	94.810	0.420	-0.790	-0.070
2020/01/31 02:13:14.1	94.830	0.400	-0.740	-0.040
2020/01/31 02:13:14.2	94.840	0.390	-0.690	-0.010
2020/01/31 02:13:14.3	94.850	0.370	-0.630	0.020
2020/01/31 02:13:14.4	94.860	0.340	-0.570	0.060
2020/01/31 02:13:14.5	94.870	0.320	-0.500	0.100
2020/01/31 02:13:14.6	94.870	0.290	-0.430	0.140
2020/01/31 02:13:14.7	94.880	0.260	-0.360	0.190
2020/01/31 02:13:14.8	94.880	0.230	-0.290	0.240
2020/01/31 02:13:14.9	94.880	0.200	-0.210	0.290
2020/01/31 02:13:15.0	94.880	0.170	-0.130	0.350
2020/01/31 02:13:15.1	94.880	0.130	-0.050	0.410
2020/01/31 02:13:15.2	94.880	0.100	0.030	0.470
2020/01/31 02:13:15.3	94.870	0.060	0.110	0.540
2020/01/31 02:13:15.4	94.860	0.020	0.180	0.610
2020/01/31 02:13:15.5	94.860	-0.020	0.260	0.670
2020/01/31 02:13:15.6	94.850	-0.060	0.330	0.740
2020/01/31 02:13:15.7	94.830	-0.100	0.390	0.810
2020/01/31 02:13:15.8	94.820	-0.140	0.460	0.890
2020/01/31 02:13:15.9	94.810	-0.180	0.520	0.960
2020/01/31 02:13:16.0	94.790	-0.220	0.570	1.030
2020/01/31 02:13:16.1	94.790	-0.260	0.620	1.110
2020/01/31 02:13:16.2	94.770	-0.290	0.660	1.180
2020/01/31 02:13:16.3	94.760	-0.330	0.700	1.250
2020/01/31 02:13:16.4	94.740	-0.370	0.730	1.320
2020/01/31 02:13:16.5	94.730	-0.400	0.750	1.390
2020/01/31 02:13:16.6	94.720	-0.430	0.770	1.450
2020/01/31 02:13:16.7	94.700	-0.460	0.780	1.520
2020/01/31 02:13:16.8	94.690	-0.490	0.780	1.580
2020/01/31 02:13:16.9	94.680	-0.520	0.770	1.640
2020/01/31 02:13:17.0	94.670	-0.540	0.760	1.700
2020/01/31 02:13:17.1	94.660	-0.560	0.740	1.760
2020/01/31 02:13:17.2	94.660	-0.580	0.710	1.810
2020/01/31 02:13:17.3	94.650	-0.590	0.670	1.860
2020/01/31 02:13:17.4	94.650	-0.600	0.630	1.900
2020/01/31 02:13:17.5	94.640	-0.610	0.580	1.940
2020/01/31 02:13:17.6	94.640	-0.620	0.520	1.970
2020/01/31 02:13:17.7	94.640	-0.620	0.460	2.000
2020/01/31 02:13:17.8	94.650	-0.620	0.390	2.030
2020/01/31 02:13:17.9	94.650	-0.610	0.320	2.050
2020/01/31 02:13:18.0	94.660	-0.600	0.250	2.070
2020/01/31 02:13:18.1	94.660	-0.590	0.160	2.080
2020/01/31 02:13:18.2	94.670	-0.570	0.080	2.090
2020/01/31 02:13:18.3	94.670	-0.550	-0.000	2.100
2020/01/31 02:13:18.4	94.680	-0.530	-0.090	2.100
2020/01/31 02:13:18.5	94.690	-0.500	-0.180	2.110
2020/01/31 02:13:18.6	94.700	-0.470	-0.270	2.110
2020/01/31 02:13:18.7	94.710	-0.440	-0.360	2.100
2020/01/31 02:13:18.8	94.720	-0.400	-0.440	2.100
2020/01/31 02:13:18.9	94.730	-0.360	-0.530	2.090
2020/01/31 02:13:19.0	94.730	-0.320	-0.610	2.090
2020/01/31 02:13:19.1	94.750	-0.280	-0.690	2.080
2020/01/31 02:13:19.2	94.750	-0.240	-0.770	2.070
2020/01/31 02:13:19.3	94.760	-0.190	-0.840	2.060
2020/01/31 02:13:19.4	94.760	-0.140	-0.910	2.050
2020/01/31 02:13:19.5	94.760	-0.100	-0.970	2.040
2020/01/31 02:13:19.6	94.760	-0.050	-1.020	2.030
2020/01/31 02:13:19.7	94.760	-0.000	-1.070	2.010
2020/01/31 02:13:19.8	94.760	0.040	-1.110	1.990
2020/01/31 02:13:19.9	94.760	0.090	-1.140	1.970
2020/01/31 02:13:20.0	94.750	0.130	-1.160	1.950
2020/01/31 02:13:20.1	94.760	0.170	-1.180	1.930
2020/01/31 02:13:20.2	94.760	0.210	-1.190	1.910
2020/01/31 02:13:20.3	94.750	0.240	-1.180	1.880
2020/01/31 02:13:20.4	94.750	0.270	-1.170	1.850
2020/01/31 02:13:20.5	94.740	0.300	-1.150	1.820
2020/01/31 02:13:20.6	94.740	0.330	-1.120	1.790
2020/01/31 02:13:20.7	94.730	0.350	-1.080	1.760
2020/01/31 02:13:20.8	94.730	0.370	-1.030	1.720
2020/01/31 02:13:20.9	94.720	0.380	-0.970	1.690
2020/01/31 02:13:21.0	94.720	0.390	-0.910	1.650
2020/01/31 02:13:21.1	94.720	0.400	-0.840	1.610
2020/01/31 02:13:21.2	94.710	0.400	-0.760	1.570
2020/01/31 02:13:21.3	94.700	0.400	-0.680	1.530
2020/01/31 02:13:21.4	94.690	0.400	-0.600	1.490
2020/01/31 02:13:21.5	94.690	0.390	-0.510	1.450
2020/01/31 02:13:21.6	94.670	0.380	-0.420	1.410
2020/01/31 02:13:21.7	94.660	0.360	-0.320	1.360
2020/01/31 02:13:21.8	94.650	0.350	-0.230	1.320
2020/01/31 02:13:21.9	94.630	0.330	-0.140	1.280
2020/01/31 02:13:22.0	94.620	0.310	-0.050	1.230
2020/01/31 02:13:22.1	94.600	0.290	0.040	1.190
2020/01/31 02:13:22.2	94.580	0.260	0.130	1.140
2020/01/31 02:13:22.3	94.560	0.240	0.210	1.100
2020/01/31 02:13:22.4	94.540	0.210	0.280	1.050
2020/01/31 02:13:22.5	94.510	0.190	0.350	1.000
2020/01/31 02:13:22.6	94.490	0.160	0.420	0.950
2020/01/31 02:13:22.7	94.470	0.140	0.470	0.900
2020/01/31 02:13:22.8	94.440	0.120	0.520	0.850
2020/01/31 02:13:22.9	94.420	0.100	0.560	0.790
2020/01/31 02:13:23.0	94.390	0.080	0.590	0.730
2020/01/31 02:13:23.1	94.360	0.060	0.620	0.680
2020/01/31 02:13:23.2	94.340	0.040	0.630	0.620
2020/01/31 02:13:23.3	94.320	0.030	0.640	0.560
2020/01/31 02:13:23.4	94.290	0.020	0.640	0.490
2020/01/31 02:13:23.5	94.270	0.010	0.630	0.430
2020/01/31 02:13:23.6	94.250	0.000	0.620	0.360
2020/01/31 02:13:23.7	94.230	-0.000	0.600	0.300
2020/01/31 02:13:23.8	94.210	-0.000	0.570	0.230
2020/01/31 02:13:23.9	94.190	-0.000	0.540	0.170
2020/01/31 02:13:24.0	94.170	-0.000	0.500	0.100
2020/01/31 02:13:24.1	94.150	0.000	0.460	0.040
2020/01/31 02:13:24.2	94.130	0.010	0.420	-0.020
2020/01/31 02:13:24.3	94.120	0.010	0.370	-0.080
2020/01/31 02:13:24.4	94.100	0.020	0.320	-0.140
2020/01/31 02:13:24.5	94.090	0.030	0.270	-0.190
2020/01/31 02:13:24.6	94.080	0.040	0.220	-0.250
2020/01/31 02:13:24.7	94.070	0.040	0.170	-0.300
2020/01/31 02:13:24.8	94.050	0.050	0.120	-0.350
2020/01/31 02:13:24.9	94.040	0.060	0.070	-0.390
2020/01/31 02:13:25.0	94.040	0.070	0.030	-0.440
2020/01/31 02:13:25.1	94.020	0.080	-0.020	-0.480
2020/01/31 02:13:25.2	94.020	0.080	-0.070	-0.520
2020/01/31 02:13:25.3	94.010	0.090	-0.110	-0.560
2020/01/31 02:13:25.4	94.000	0.090	-0.140	-0.590
2020/01/31 02:13:25.5	94.000	0.090	-0.180	-0.620
2020/01/31 02:13:25.6	94.000	0.090	-0.210	-0.650
2020/01/31 02:13:25.7	94.000	0.090	-0.250	-0.670
2020/01/31 02:13:25.8	94.000	0.090	-0.270	-0.700
2020/01/31 02:13:25.9	94.000	0.090	-0.300	-0.720
2020/01/31 02:13:26.0	94.000	0.080	-0.320	-0.740
2020/01/31 02:13:26.1	93.990	0.080	-0.340	-0.750
2020/01/31 02:13:26.2	94.000	0.070	-0.360	-0.760
2020/01/31 02:13:26.3	94.000	0.060	-0.380	-0.770
2020/01/31 02:13:26.4	94.010	0.050	-0.390	-0.770
2020/01/31 02:13:26.5	94.020	0.040	-0.410	-0.780
2020/01/31 02:13:26.6	94.030	0.030	-0.420	-0.780
2020/01/31 02:13:26.7	94.050	0.020	-0.430	-0.780
2020/01/31 02:13:26.8	94.060	0.010	-0.440	-0.770
2020/01/31 02:13:26.9	94.080	0.000	-0.450	-0.760
2020/01/31 02:13:27.0	94.100	-0.010	-0.460	-0.740
2020/01/31 02:13:27.1	94.120	-0.020	-0.480	-0.730
2020/01/31 02:13:27.2	94.140	-0.030	-0.480	-0.700
2020/01/31 02:13:27.3	94.160	-0.040	-0.490	-0.680
2020/01/31 02:13:27.4	94.190	-0.050	-0.500	-0.650
2020/01/31 02:13:27.5	94.220	-0.060	-0.500	-0.610
2020/01/31 02:13:27.6	94.250	-0.060	-0.510	-0.570
2020/01/31 02:13:27.7	94.270	-0.070	-0.510	-0.530
2020/01/31 02:13:27.8	94.300	-0.080	-0.510	-0.480
2020/01/31 02:13:27.9	94.340	-0.080	-0.510	-0.430
2020/01/31 02:13:28.0	94.370	-0.090	-0.510	-0.380
2020/01/31 02:13:28.1	94.400	-0.090	-0.500	-0.310
2020/01/31 02:13:28.2	94.430	-0.090	-0.490	-0.250
2020/01/31 02:13:28.3	94.460	-0.100	-0.480	-0.180
2020/01/31 02:13:28.4	94.490	-0.100	-0.470	-0.110
2020/01/31 02:13:28.5	94.520	-0.100	-0.450	-0.030
2020/01/31 02:13:28.6	94.540	-0.100	-0.430	0.040
2020/01/31 02:13:28.7	94.570	-0.100	-0.410	0.130
2020/01/31 02:13:28.8	94.590	-0.110	-0.380	0.210
2020/01/31 02:13:28.9	94.620	-0.110	-0.350	0.300
2020/01/31 02:13:29.0	94.630	-0.110	-0.320	0.390
2020/01/31 02:13:29.1	94.660	-0.110	-0.280	0.490
2020/01/31 02:13:29.2	94.670	-0.110	-0.250	0.590
2020/01/31 02:13:29.3	94.680	-0.120	-0.210	0.690
2020/01/31 02:13:29.4	94.690	-0.120	-0.170	0.790
2020/01/31 02:13:29.5	94.690	-0.120	-0.130	0.890
2020/01/31 02:13:29.6	94.690	-0.130	-0.090	1.000
2020/01/31 02:13:29.7	94.680	-0.130	-0.050	1.100
2020/01/31 02:13:29.8	94.670	-0.140	-0.000	1.210
2020/01/31 02:13:29.9	94.660	-0.140	0.040	1.320
2020/01/31 02:13:30.0	94.640	-0.150	0.070	1.430
2020/01/31 02:13:30.1	94.640	-0.150	0.120	1.530
2020/01/31 02:13:30.2	94.620	-0.160	0.150	1.640
2020/01/31 02:13:30.3	94.590	-0.160	0.180	1.750
2020/01/31 02:13:30.4	94.570	-0.170	0.210	1.860
2020/01/31 02:13:30.5	94.540	-0.180	0.240	1.960
2020/01/31 02:13:30.6	94.500	-0.180	0.260	2.060
2020/01/31 02:13:30.7	94.470	-0.180	0.280	2.160
2020/01/31 02:13:30.8	94.430	-0.190	0.290	2.260
2020/01/31 02:13:30.9	94.390	-0.190	0.300	2.350
2020/01/31 02:13:31.0	94.360	-0.190	0.300	2.440
2020/01/31 02:13:31.1	94.310	-0.190	0.300	2.540
2020/01/31 02:13:31.2	94.270	-0.190	0.290	2.620
2020/01/31 02:13:31.3	94.230	-0.190	0.280	2.690
2020/01/31 02:13:31.4	94.190	-0.190	0.260	2.760
2020/01/31 02:13:31.5	94.150	-0.180	0.240	2.830
2020/01/31 02:13:31.6	94.110	-0.180	0.220	2.890
2020/01/31 02:13:31.7	94.070	-0.170	0.180	2.940
2020/01/31 02:13:31.8	94.030	-0.160	0.150	2.990
2020/01/31 02:13:31.9	94.000	-0.140	0.110	3.030
2020/01/31 02:13:32.0	93.960	-0.130	0.060	3.060
2020/01/31 02:13:32.1	93.940	-0.110	0.010	3.080
2020/01/31 02:13:32.2	93.910	-0.100	-0.030	3.100
2020/01/31 02:13:32.3	93.880	-0.080	-0.090	3.110
2020/01/31 02:13:32.4	93.850	-0.060	-0.140	3.110
2020/01/31 02:13:32.5	93.830	-0.030	-0.190	3.100
2020/01/31 02:13:32.6	93.800	-0.010	-0.250	3.090
2020/01/31 02:13:32.7	93.780	0.010	-0.300	3.070
2020/01/31 02:13:32.8	93.760	0.040	-0.350	3.040
2020/01/31 02:13:32.9	93.750	0.060	-0.400	3.000
2020/01/31 02:13:33.0	93.740	0.090	-0.450	2.960
2020/01/31 02:13:33.1	93.730	0.110	-0.490	2.910
2020/01/31 02:13:33.2	93.720	0.130	-0.540	2.860
2020/01/31 02:13:33.3	93.710	0.160	-0.570	2.800
2020/01/31 02:13:33.4	93.710	0.180	-0.600	2.740
2020/01/31 02:13:33.5	93.700	0.200	-0.630	2.670
2020/01/31 02:13:33.6	93.700	0.220	-0.650	2.590
2020/01/31 02:13:33.7	93.700	0.230	-0.670	2.510
2020/01/31 02:13:33.8	93.700	0.250	-0.680	2.430
2020/01/31 02:13:33.9	93.710	0.260	-0.690	2.340
2020/01/31 02:13:34.0	93.710	0.270	-0.690	2.250
2020/01/31 02:13:34.1	93.710	0.280	-0.680	2.160
2020/01/31 02:13:34.2	93.710	0.290	-0.680	2.060
2020/01/31 02:13:34.3	93.720	0.290	-0.660	1.960
2020/01/31 02:13:34.4	93.730	0.300	-0.640	1.860
2020/01/31 02:13:34.5	93.730	0.300	-0.620	1.760
2020/01/31 02:13:34.6	93.740	0.290	-0.590	1.660
2020/01/31 02:13:34.7	93.750	0.290	-0.560	1.560
2020/01/31 02:13:34.8	93.750	0.280	-0.530	1.460
2020/01/31 02:13:34.9	93.760	0.280	-0.490	1.360
2020/01/31 02:13:35.0	93.770	0.270	-0.460	1.260
2020/01/31 02:13:35.1	93.780	0.260	-0.420	1.160
2020/01/31 02:13:35.2	93.780	0.250	-0.380	1.050
2020/01/31 02:13:35.3	93.780	0.230	-0.330	0.950
2020/01/31 02:13:35.4	93.790	0.220	-0.290	0.850
2020/01/31 02:13:35.5	93.790	0.200	-0.250	0.750
2020/01/31 02:13:35.6	93.790	0.190	-0.210	0.660
2020/01/31 02:13:35.7	93.790	0.170	-0.170	0.560
2020/01/31 02:13:35.8	93.790	0.160	-0.140	0.460
2020/01/31 02:13:35.9	93.790	0.140	-0.100	0.370
2020/01/31 02:13:36.0	93.790	0.130	-0.070	0.270
2020/01/31 02:13:36.1	93.790	0.110	-0.030	0.180
2020/01/31 02:13:36.2	93.780	0.100	-0.010	0.090
2020/01/31 02:13:36.3	93.780	0.080	0.020	0.000
2020/01/31 02:13:36.4	93.780	0.070	0.040	-0.080
2020/01/31 02:13:36.5	93.770	0.060	0.060	-0.170
2020/01/31 02:13:36.6	93.770	0.040	0.080	-0.250
2020/01/31 02:13:36.7	93.770	0.030	0.100	-0.320
2020/01/31 02:13:36.8	93.760	0.020	0.110	-0.400
2020/01/31 02:13:36.9	93.760	0.010	0.120	-0.470
2020/01/31 02:13:37.0	93.750	0.000	0.130	-0.540
2020/01/31 02:13:37.1	93.730	-0.000	0.140	-0.600
2020/01/31 02:13:37.2	93.730	-0.010	0.140	-0.650
2020/01/31 02:13:37.3	93.720	-0.020	0.150	-0.710
2020/01/31 02:13:37.4	93.710	-0.020	0.150	-0.750
2020/01/31 02:13:37.5	93.710	-0.030	0.150	-0.800
2020/01/31 02:13:37.6	93.700	-0.030	0.150	-0.830
2020/01/31 02:13:37.7	93.690	-0.040	0.160	-0.870
2020/01/31 02:13:37.8	93.680	-0.040	0.160	-0.890
2020/01/31 02:13:37.9	93.670	-0.040	0.150	-0.920
2020/01/31 02:13:38.0	93.670	-0.040	0.150	-0.930
2020/01/31 02:13:38.1	93.670	-0.050	0.160	-0.940
2020/01/31 02:13:38.2	93.660	-0.050	0.150	-0.950
2020/01/31 02:13:38.3	93.650	-0.050	0.150	-0.950
2020/01/31 02:13:38.4	93.650	-0.050	0.150	-0.950
2020/01/31 02:13:38.5	93.640	-0.060	0.150	-0.940
2020/01/31 02:13:38.6	93.640	-0.060	0.150	-0.930
2020/01/31 02:13:38.7	93.630	-0.060	0.150	-0.910
2020/01/31 02:13:38.8	93.630	-0.070	0.150	-0.890
2020/01/31 02:13:38.9	93.630	-0.070	0.150	-0.860
2020/01/31 02:13:39.0	93.620	-0.080	0.150	-0.830
2020/01/31 02:13:39.1	93.620	-0.090	0.150	-0.790
2020/01/31 02:13:39.2	93.620	-0.090	0.150	-0.760
2020/01/31 02:13:39.3	93.620	-0.100	0.140	-0.720
2020/01/31 02:13:39.4	93.620	-0.110	0.140	-0.670
2020/01/31 02:13:39.5	93.620	-0.120	0.140	-0.620
2020/01/31 02:13:39.6	93.620	-0.130	0.130	-0.570
2020/01/31 02:13:39.7	93.620	-0.140	0.130	-0.520
2020/01/31 02:13:39.8	93.630	-0.150	0.120	-0.460
2020/01/31 02:13:39.9	93.630	-0.170	0.110	-0.410
2020/01/31 02:13:40.0	93.630	-0.180	0.100	-0.350
2020/01/31 02:13:40.1	93.630	-0.190	0.080	-0.280
2020/01/31 02:13:40.2	93.630	-0.200	0.070	-0.220
2020/01/31 02:13:40.3	93.640	-0.210	0.050	-0.160
2020/01/31 02:13:40.4	93.640	-0.220	0.020	-0.100
2020/01/31 02:13:40.5	93.640	-0.230	-0.000	-0.030
2020/01/31 02:13:40.6	93.650	-0.230	-0.030	0.040
2020/01/31 02:13:40.7	93.650	-0.240	-0.070	0.100
2020/01/31 02:13:40.8	93.660	-0.240	-0.100	0.170
2020/01/31 02:13:40.9	93.660	-0.250	-0.140	0.240
2020/01/31 02:13:41.0	93.660	-0.250	-0.180	0.320
2020/01/31 02:13:41.1	93.670	-0.250	-0.220	0.390
2020/01/31 02:13:41.2	93.670	-0.240	-0.270	0.470
2020/01/31 02:13:41.3	93.670	-0.240	-0.320	0.550
2020/01/31 02:13:41.4	93.670	-0.230	-0.370	0.630
2020/01/31 02:13:41.5	93.670	-0.220	-0.420	0.710
2020/01/31 02:13:41.6	93.670	-0.210	-0.470	0.790
2020/01/31 02:13:41.7	93.670	-0.200	-0.520	0.870
2020/01/31 02:13:41.8	93.660	-0.190	-0.560	0.960
2020/01/31 02:13:41.9	93.660	-0.170	-0.600	1.050
2020/01/31 02:13:42.0	93.650	-0.160	-0.640	1.130
2020/01/31 02:13:42.1	93.640	-0.140	-0.690	1.230
2020/01/31 02:13:42.2	93.640	-0.130	-0.720	1.320
2020/01/31 02:13:42.3	93.630	-0.110	-0.740	1.410
2020/01/31 02:13:42.4	93.620	-0.100	-0.760	1.510
2020/01/31 02:13:42.5	93.600	-0.080	-0.770	1.600
2020/01/31 02:13:42.6	93.590	-0.070	-0.780	1.700
2020/01/31 02:13:42.7	93.580	-0.060	-0.780	1.790
2020/01/31 02:13:42.8	93.560	-0.050	-0.770	1.890
2020/01/31 02:13:42.9	93.540	-0.040	-0.750	1.990
2020/01/31 02:13:43.0	93.520	-0.030	-0.730	2.080
2020/01/31 02:13:43.1	93.520	-0.030	-0.690	2.180
2020/01/31 02:13:43.2	93.500	-0.020	-0.660	2.270
2020/01/31 02:13:43.3	93.480	-0.020	-0.620	2.360
2020/01/31 02:13:43.4	93.460	-0.020	-0.570	2.450
2020/01/31 02:13:43.5	93.440	-0.020	-0.520	2.530
2020/01/31 02:13:43.6	93.420	-0.020	-0.470	2.610
2020/01/31 02:13:43.7	93.400	-0.020	-0.420	2.690
2020/01/31 02:13:43.8	93.380	-0.030	-0.360	2.760
2020/01/31 02:13:43.9	93.360	-0.030	-0.310	2.830
2020/01/31 02:13:44.0	93.340	-0.030	-0.250	2.890
2020/01/31 02:13:44.1	93.320	-0.040	-0.200	2.950
2020/01/31 02:13:44.2	93.300	-0.040	-0.150	2.990
2020/01/31 02:13:44.3	93.290	-0.050	-0.100	3.030
2020/01/31 02:13:44.4	93.270	-0.050	-0.060	3.070
2020/01/31 02:13:44.5	93.260	-0.060	-0.020	3.090
2020/01/31 02:13:44.6	93.250	-0.060	0.020	3.110
2020/01/31 02:13:44.7	93.250	-0.060	0.050	3.120
2020/01/31 02:13:44.8	93.240	-0.060	0.070	3.120
2020/01/31 02:13:44.9	93.240	-0.050	0.090	3.120
2020/01/31 02:13:45.0	93.240	-0.050	0.100	3.100
2020/01/31 02:13:45.1	93.250	-0.040	0.120	3.080
2020/01/31 02:13:45.2	93.250	-0.030	0.110	3.050
2020/01/31 02:13:45.3	93.260	-0.020	0.110	3.020
2020/01/31 02:13:45.4	93.260	-0.000	0.100	2.980
2020/01/31 02:13:45.5	93.270	0.010	0.080	2.940
2020/01/31 02:13:45.6	93.280	0.030	0.060	2.890
2020/01/31 02:13:45.7	93.290	0.050	0.030	2.840
2020/01/31 02:13:45.8	93.300	0.070	0.010	2.780
2020/01/31 02:13:45.9	93.310	0.100	-0.020	2.720
2020/01/31 02:13:46.0	93.320	0.120	-0.060	2.660
2020/01/31 02:13:46.1	93.330	0.150	-0.090	2.590
2020/01/31 02:13:46.2	93.350	0.170	-0.130	2.510
2020/01/31 02:13:46.3	93.360	0.200	-0.160	2.440
2020/01/31 02:13:46.4	93.380	0.220	-0.190	2.360
2020/01/31 02:13:46.5	93.390	0.250	-0.220	2.280
2020/01/31 02:13:46.6	93.400	0.270	-0.240	2.200
2020/01/31 02:13:46.7	93.420	0.290	-0.260	2.120
2020/01/31 02:13:46.8	93.430	0.310	-0.280	2.030
2020/01/31 02:13:46.9	93.440	0.330	-0.290	1.940
2020/01/31 02:13:47.0	93.460	0.340	-0.300	1.850
2020/01/31 02:13:47.1	93.460	0.360	-0.300	1.760
2020/01/31 02:13:47.2	93.480	0.370	-0.300	1.670
2020/01/31 02:13:47.3	93.490	0.370	-0.300	1.580
2020/01/31 02:13:47.4	93.500	0.380	-0.290	1.480
2020/01/31 02:13:47.5	93.510	0.380	-0.270	1.380
2020/01/31 02:13:47.6	93.520	0.370	-0.250	1.290
2020/01/31 02:13:47.7	93.530	0.370	-0.230	1.190
2020/01/31 02:13:47.8	93.530	0.350	-0.200	1.090
2020/01/31 02:13:47.9	93.540	0.340	-0.170	1.000
2020/01/31 02:13:48.0	93.540	0.320	-0.140	0.900
2020/01/31 02:13:48.1	93.550	0.300	-0.100	0.800
2020/01/31 02:13:48.2	93.550	0.270	-0.060	0.710
2020/01/31 02:13:48.3	93.560	0.240	-0.020	0.620
2020/01/31 02:13:48.4	93.560	0.210	0.020	0.520
2020/01/31 02:13:48.5	93.570	0.170	0.060	0.430
2020/01/31 02:13:48.6	93.570	0.140	0.110	0.350
2020/01/31 02:13:48.7	93.570	0.100	0.150	0.260
2020/01/31 02:13:48.8	93.580	0.050	0.200	0.180
2020/01/31 02:13:48.9	93.580	0.010	0.240	0.110
2020/01/31 02:13:49.0	93.590	-0.030	0.280	0.030
2020/01/31 02:13:49.1	93.580	-0.080	0.320	-0.030
2020/01/31 02:13:49.2	93.580	-0.120	0.350	-0.100
2020/01/31 02:13:49.3	93.580	-0.170	0.380	-0.160
2020/01/31 02:13:49.4	93.590	-0.210	0.410	-0.220
2020/01/31 02:13:49.5	93.590	-0.260	0.430	-0.270
2020/01/31 02:13:49.6	93.590	-0.300	0.450	-0.320
2020/01/31 02:13:49.7	93.590	-0.340	0.470	-0.360
2020/01/31 02:13:49.8	93.590	-0.380	0.480	-0.400
2020/01/31 02:13:49.9	93.590	-0.420	0.480	-0.440
2020/01/31 02:13:50.0	93.590	-0.450	0.480	-0.460
2020/01/31 02:13:50.1	93.580	-0.480	0.480	-0.480
2020/01/31 02:13:50.2	93.580	-0.500	0.470	-0.500
2020/01/31 02:13:50.3	93.570	-0.530	0.450	-0.520
2020/01/31 02:13:50.4	93.570	-0.540	0.430	-0.530
2020/01/31 02:13:50.5	93.560	-0.560	0.400	-0.540
2020/01/31 02:13:50.6	93.560	-0.570	0.370	-0.550
2020/01/31 02:13:50.7	93.550	-0.570	0.330	-0.550
2020/01/31 02:13:50.8	93.550	-0.570	0.290	-0.550
2020/01/31 02:13:50.9	93.540	-0.560	0.240	-0.540
2020/01/31 02:13:51.0	93.540	-0.550	0.180	-0.540
2020/01/31 02:13:51.1	93.540	-0.540	0.120	-0.530
2020/01/31 02:13:51.2	93.540	-0.510	0.060	-0.520
2020/01/31 02:13:51.3	93.530	-0.490	-0.010	-0.510
2020/01/31 02:13:51.4	93.530	-0.460	-0.080	-0.500
2020/01/31 02:13:51.5	93.530	-0.420	-0.150	-0.490
2020/01/31 02:13:51.6	93.530	-0.380	-0.230	-0.480
2020/01/31 02:13:51.7	93.530	-0.340	-0.310	-0.470
2020/01/31 02:13:51.8	93.530	-0.290	-0.390	-0.460
2020/01/31 02:13:51.9	93.530	-0.240	-0.470	-0.450
2020/01/31 02:13:52.0	93.540	-0.190	-0.550	-0.430
2020/01/31 02:13:52.1	93.540	-0.130	-0.640	-0.420
2020/01/31 02:13:52.2	93.540	-0.070	-0.720	-0.410
2020/01/31 02:13:52.3	93.540	-0.010	-0.790	-0.400
2020/01/31 02:13:52.4	93.550	0.050	-0.870	-0.380
2020/01/31 02:13:52.5	93.560	0.120	-0.940	-0.360
2020/01/31 02:13:52.6	93.560	0.180	-1.010	-0.350
2020/01/31 02:13:52.7	93.560	0.240	-1.070	-0.330
2020/01/31 02:13:52.8	93.570	0.300	-1.120	-0.300
2020/01/31 02:13:52.9	93.570	0.360	-1.170	-0.280
2020/01/31 02:13:53.0	93.570	0.410	-1.210	-0.250
2020/01/31 02:13:53.1	93.580	0.470	-1.240	-0.210
2020/01/31 02:13:53.2	93.570	0.520	-1.260	-0.170
2020/01/31 02:13:53.3	93.570	0.560	-1.270	-0.130
2020/01/31 02:13:53.4	93.570	0.600	-1.280	-0.090
2020/01/31 02:13:53.5	93.560	0.640	-1.270	-0.050
2020/01/31 02:13:53.6	93.560	0.670	-1.260	0.000
2020/01/31 02:13:53.7	93.550	0.690	-1.240	0.050
2020/01/31 02:13:53.8	93.540	0.710	-1.200	0.100
2020/01/31 02:13:53.9	93.540	0.730	-1.160	0.160
2020/01/31 02:13:54.0	93.530	0.730	-1.110	0.210
2020/01/31 02:13:54.1	93.510	0.730	-1.050	0.270
2020/01/31 02:13:54.2	93.510	0.730	-0.980	0.330
2020/01/31 02:13:54.3	93.500	0.720	-0.910	0.390
2020/01/31 02:13:54.4	93.490	0.700	-0.820	0.460
2020/01/31 02:13:54.5	93.490	0.680	-0.730	0.520
2020/01/31 02:13:54.6	93.480	0.650	-0.640	0.580
2020/01/31 02:13:54.7	93.470	0.620	-0.540	0.650
2020/01/31 02:13:54.8	93.470	0.580	-0.440	0.710
2020/01/31 02:13:54.9	93.470	0.540	-0.330	0.780
2020/01/31 02:13:55.0	93.460	0.490	-0.230	0.840
2020/01/31 02:13:55.1	93.450	0.440	-0.110	0.910
2020/01/31 02:13:55.2	93.450	0.390	-0.000	0.970
2020/01/31 02:13:55.3	93.450	0.330	0.100	1.030
2020/01/31 02:13:55.4	93.450	0.280	0.200	1.090
2020/01/31 02:13:55.5	93.450	0.220	0.300	1.150
2020/01/31 02:13:55.6	93.440	0.160	0.390	1.200
2020/01/31 02:13:55.7	93.440	0.100	0.480	1.250
2020/01/31 02:13:55.8	93.450	0.040	0.570	1.300
2020/01/31 02:13:55.9	93.450	-0.020	0.650	1.350
2020/01/31 02:13:56.0	93.450	-0.070	0.720	1.400
2020/01/31 02:13:56.1	93.460	-0.130	0.780	1.440
2020/01/31 02:13:56.2	93.460	-0.180	0.830	1.480
2020/01/31 02:13:56.3	93.470	-0.230	0.880	1.520
2020/01/31 02:13:56.4	93.470	-0.280	0.910	1.550
2020/01/31 02:13:56.5	93.480	-0.320	0.940	1.570
2020/01/31 02:13:56.6	93.490	-0.360	0.960	1.590
2020/01/31 02:13:56.7	93.490	-0.400	0.970	1.610
2020/01/31 02:13:56.8	93.500	-0.430	0.970	1.630
2020/01/31 02:13:56.9	93.520	-0.460	0.960	1.640
2020/01/31 02:13:57.0	93.530	-0.480	0.940	1.650
2020/01/31 02:13:57.1	93.550	-0.500	0.910	1.660
2020/01/31 02:13:57.2	93.570	-0.510	0.870	1.660
2020/01/31 02:13:57.3	93.580	-0.520	0.830	1.660
2020/01/31 02:13:57.4	93.600	-0.520	0.770	1.660
2020/01/31 02:13:57.5	93.620	-0.520	0.710	1.660
2020/01/31 02:13:57.6	93.630	-0.520	0.650	1.660
2020/01/31 02:13:57.7	93.650	-0.510	0.580	1.660
2020/01/31 02:13:57.8	93.660	-0.500	0.500	1.660
2020/01/31 02:13:57.9	93.680	-0.480	0.420	1.660
2020/01/31 02:13:58.0	93.690	-0.460	0.330	1.660
2020/01/31 02:13:58.1	93.700	-0.440	0.240	1.660
2020/01/31 02:13:58.2	93.710	-0.410	0.150	1.660
2020/01/31 02:13:58.3	93.720	-0.390	0.060	1.660
2020/01/31 02:13:58.4	93.730	-0.360	-0.030	1.670
2020/01/31 02:13:58.5	93.740	-0.320	-0.120	1.670
2020/01/31 02:13:58.6	93.750	-0.290	-0.200	1.680
2020/01/31 02:13:58.7	93.760	-0.260	-0.290	1.680
2020/01/31 02:13:58.8	93.770	-0.230	-0.370	1.690
2020/01/31 02:13:58.9	93.770	-0.190	-0.450	1.700
2020/01/31 02:13:59.0	93.780	-0.160	-0.520	1.700
2020/01/31 02:13:59.1	93.780	-0.130	-0.580	1.720
2020/01/31 02:13:59.2	93.780	-0.100	-0.640	1.730
2020/01/31 02:13:59.3	93.780	-0.070	-0.700	1.730
2020/01/31 02:13:59.4	93.780	-0.050	-0.740	1.740
2020/01/31 02:13:59.5	93.780	-0.030	-0.780	1.750
2020/01/31 02:13:59.6	93.780	-0.010	-0.810	1.760
2020/01/31 02:13:59.7	93.780	0.010	-0.840	1.760
2020/01/31 02:13:59.8	93.770	0.020	-0.850	1.770
2020/01/31 02:13:59.9	93.770	0.030	-0.850	1.770
2020/01/31 02:14:00.0	93.760	0.040	-0.850	1.770
2020/01/31 02:14:00.1	93.740	0.040	-0.840	1.770
2020/01/31 02:14:00.2	93.730	0.040	-0.820	1.770
2020/01/31 02:14:00.3	93.720	0.030	-0.790	1.760
2020/01/31 02:14:00.4	93.700	0.020	-0.760	1.750
2020/01/31 02:14:00.5	93.680	0.000	-0.710	1.740
2020/01/31 02:14:00.6	93.660	-0.020	-0.660	1.720
2020/01/31 02:14:00.7	93.640	-0.040	-0.600	1.700
2020/01/31 02:14:00.8	93.610	-0.060	-0.540	1.680
2020/01/31 02:14:00.9	93.580	-0.090	-0.470	1.650
2020/01/31 02:14:01.0	93.550	-0.120	-0.400	1.620
2020/01/31 02:14:01.1	93.530	-0.150	-0.310	1.590
2020/01/31 02:14:01.2	93.500	-0.190	-0.240	1.560
2020/01/31 02:14:01.3	93.460	-0.220	-0.160	1.520
2020/01/31 02:14:01.4	93.430	-0.250	-0.090	1.480
2020/01/31 02:14:01.5	93.390	-0.290	-0.010	1.440
2020/01/31 02:14:01.6	93.360	-0.320	0.060	1.390
2020/01/31 02:14:01.7	93.320	-0.350	0.130	1.340
2020/01/31 02:14:01.8	93.280	-0.380	0.200	1.290
2020/01/31 02:14:01.9	93.250	-0.410	0.260	1.240
2020/01/31 02:14:02.0	93.220	-0.430	0.310	1.190
2020/01/31 02:14:02.1	93.190	-0.450	0.360	1.130
2020/01/31 02:14:02.2	93.160	-0.470	0.400	1.070
2020/01/31 02:14:02.3	93.130	-0.490	0.430	1.010
2020/01/31 02:14:02.4	93.100	-0.500	0.460	0.940
2020/01/31 02:14:02.5	93.080	-0.500	0.470	0.880
2020/01/31 02:14:02.6	93.060	-0.500	0.480	0.810
2020/01/31 02:14:02.7	93.040	-0.500	0.480	0.750
2020/01/31 02:14:02.8	93.020	-0.490	0.480	0.680
2020/01/31 02:14:02.9	93.000	-0.470	0.460	0.610
2020/01/31 02:14:03.0	92.990	-0.460	0.430	0.540
2020/01/31 02:14:03.1	92.970	-0.430	0.400	0.480
2020/01/31 02:14:03.2	92.960	-0.400	0.360	0.410
2020/01/31 02:14:03.3	92.950	-0.370	0.320	0.340
2020/01/31 02:14:03.4	92.950	-0.340	0.260	0.280
2020/01/31 02:14:03.5	92.940	-0.300	0.200	0.210
2020/01/31 02:14:03.6	92.930	-0.250	0.140	0.150
2020/01/31 02:14:03.7	92.930	-0.210	0.070	0.090
2020/01/31 02:14:03.8	92.920	-0.160	-0.010	0.030
2020/01/31 02:14:03.9	92.920	-0.100	-0.090	-0.030
2020/01/31 02:14:04.0	92.920	-0.050	-0.170	-0.080
2020/01/31 02:14:04.1	92.920	0.000	-0.250	-0.140
2020/01/31 02:14:04.2	92.920	0.060	-0.330	-0.200
2020/01/31 02:14:04.3	92.920	0.120	-0.420	-0.250
2020/01/31 02:14:04.4	92.920	0.170	-0.500	-0.300
2020/01/31 02:14:04.5	92.920	0.230	-0.590	-0.360
2020/01/31 02:14:04.6	92.930	0.290	-0.670	-0.410
2020/01/31 02:14:04.7	92.940	0.340	-0.750	-0.470
2020/01/31 02:14:04.8	92.950	0.390	-0.820	-0.520
2020/01/31 02:14:04.9	92.950	0.440	-0.900	-0.570
2020/01/31 02:14:05.0	92.960	0.490	-0.960	-0.620
2020/01/31 02:14:05.1	92.970	0.530	-1.020	-0.660
2020/01/31 02:14:05.2	92.980	0.570	-1.080	-0.710
2020/01/31 02:14:05.3	93.000	0.610	-1.130	-0.750
2020/01/31 02:14:05.4	93.010	0.650	-1.170	-0.790
2020/01/31 02:14:05.5	93.020	0.680	-1.200	-0.820
2020/01/31 02:14:05.6	93.040	0.700	-1.220	-0.850
2020/01/31 02:14:05.7	93.050	0.730	-1.240	-0.880
2020/01/31 02:14:05.8	93.060	0.740	-1.240	-0.900
2020/01/31 02:14:05.9	93.070	0.760	-1.240	-0.910
2020/01/31 02:14:06.0	93.080	0.770	-1.220	-0.920
2020/01/31 02:14:06.1	93.090	0.770	-1.200	-0.920
2020/01/31 02:14:06.2	93.100	0.770	-1.170	-0.910
2020/01/31 02:14:06.3	93.100	0.770	-1.130	-0.900
2020/01/31 02:14:06.4	93.110	0.760	-1.080	-0.870
2020/01/31 02:14:06.5	93.110	0.750	-1.030	-0.850
2020/01/31 02:14:06.6	93.110	0.740	-0.960	-0.810
2020/01/31 02:14:06.7	93.120	0.720	-0.890	-0.770
2020/01/31 02:14:06.8	93.120	0.700	-0.810	-0.720
2020/01/31 02:14:06.9	93.120	0.670	-0.720	-0.670
2020/01/31 02:14:07.0	93.120	0.640	-0.630	-0.610
2020/01/31 02:14:07.1	93.110	0.610	-0.530	-0.540
2020/01/31 02:14:07.2	93.110	0.580	-0.440	-0.470
2020/01/31 02:14:07.3	93.110	0.550	-0.330	-0.390
2020/01/31 02:14:07.4	93.110	0.510	-0.230	-0.310
2020/01/31 02:14:07.5	93.110	0.470	-0.130	-0.230
2020/01/31 02:14:07.6	93.100	0.440	-0.020	-0.150
2020/01/31 02:14:07.7	93.100	0.400	0.080	-0.060
2020/01/31 02:14:07.8	93.100	0.360	0.180	0.030
2020/01/31 02:14:07.9	93.100	0.320	0.280	0.120
2020/01/31 02:14:08.0	93.100	0.280	0.370	0.220
2020/01/31 02:14:08.1	93.110	0.250	0.460	0.320
2020/01/31 02:14:08.2	93.120	0.210	0.540	0.420
2020/01/31 02:14:08.3	93.120	0.170	0.620	0.520
2020/01/31 02:14:08.4	93.120	0.140	0.690	0.610
2020/01/31 02:14:08.5	93.130	0.100	0.750	0.710
2020/01/31 02:14:08.6	93.130	0.070	0.810	0.810
2020/01/31 02:14:08.7	93.140	0.040	0.860	0.910
2020/01/31 02:14:08.8	93.140	0.010	0.900	1.010
2020/01/31 02:14:08.9	93.150	-0.010	0.930	1.100
2020/01/31 02:14:09.0	93.160	-0.040	0.950	1.200
2020/01/31 02:14:09.1	93.170	-0.060	0.970	1.300
2020/01/31 02:14:09.2	93.180	-0.090	0.980	1.390
2020/01/31 02:14:09.3	93.190	-0.110	0.980	1.480
2020/01/31 02:14:09.4	93.200	-0.130	0.970	1.570
2020/01/31 02:14:09.5	93.220	-0.150	0.960	1.660
2020/01/31 02:14:09.6	93.230	-0.170	0.940	1.740
2020/01/31 02:14:09.7	93.240	-0.180	0.920	1.820
2020/01/31 02:14:09.8	93.250	-0.200	0.890	1.900
2020/01/31 02:14:09.9	93.260	-0.210	0.860	1.980
2020/01/31 02:14:10.0	93.280	-0.230	0.820	2.050
2020/01/31 02:14:10.1	93.300	-0.240	0.770	2.120
2020/01/31 02:14:10.2	93.310	-0.250	0.730	2.190
2020/01/31 02:14:10.3	93.330	-0.260	0.680	2.260
2020/01/31 02:14:10.4	93.340	-0.270	0.630	2.320
2020/01/31 02:14:10.5	93.350	-0.280	0.580	2.370
2020/01/31 02:14:10.6	93.360	-0.290	0.530	2.430
2020/01/31 02:14:10.7	93.370	-0.300	0.470	2.480
2020/01/31 02:14:10.8	93.380	-0.310	0.410	2.520
2020/01/31 02:14:10.9	93.390	-0.320	0.360	2.560
2020/01/31 02:14:11.0	93.400	-0.330	0.300	2.600
2020/01/31 02:14:11.1	93.420	-0.340	0.240	2.630
2020/01/31 02:14:11.2	93.430	-0.350	0.180	2.660
2020/01/31 02:14:11.3	93.440	-0.350	0.120	2.680
2020/01/31 02:14:11.4	93.460	-0.360	0.060	2.700
2020/01/31 02:14:11.5	93.470	-0.370	-0.000	2.710
2020/01/31 02:14:11.6	93.480	-0.370	-0.060	2.720
2020/01/31 02:14:11.7	93.500	-0.380	-0.120	2.720
2020/01/31 02:14:11.8	93.510	-0.380	-0.180	2.720
2020/01/31 02:14:11.9	93.530	-0.380	-0.230	2.710
2020/01/31 02:14:12.0	93.540	-0.380	-0.290	2.700
2020/01/31 02:14:12.1	93.560	-0.380	-0.350	2.680
2020/01/31 02:14:12.2	93.580	-0.380	-0.400	2.670
2020/01/31 02:14:12.3	93.600	-0.380	-0.450	2.650
2020/01/31 02:14:12.4	93.620	-0.380	-0.500	2.630
2020/01/31 02:14:12.5	93.640	-0.370	-0.550	2.600
2020/01/31 02:14:12.6	93.650	-0.360	-0.600	2.580
2020/01/31 02:14:12.7	93.670	-0.360	-0.640	2.550
2020/01/31 02:14:12.8	93.690	-0.350	-0.680	2.530
2020/01/31 02:14:12.9	93.700	-0.340	-0.720	2.500
2020/01/31 02:14:13.0	93.710	-0.320	-0.750	2.470
2020/01/31 02:14:13.1	93.720	-0.310	-0.790	2.440
2020/01/31 02:14:13.2	93.730	-0.290	-0.820	2.420
2020/01/31 02:14:13.3	93.730	-0.280	-0.840	2.390
2020/01/31 02:14:13.4	93.740	-0.260	-0.860	2.360
2020/01/31 02:14:13.5	93.740	-0.240	-0.880	2.330
2020/01/31 02:14:13.6	93.740	-0.220	-0.900	2.300
2020/01/31 02:14:13.7	93.740	-0.200	-0.910	2.280
2020/01/31 02:14:13.8	93.740	-0.180	-0.920	2.250
2020/01/31 02:14:13.9	93.730	-0.160	-0.930	2.220
2020/01/31 02:14:14.0	93.720	-0.140	-0.930	2.180
2020/01/31 02:14:14.1	93.720	-0.120	-0.930	2.150
2020/01/31 02:14:14.2	93.710	-0.090	-0.930	2.120
2020/01/31 02:14:14.3	93.700	-0.070	-0.930	2.080
2020/01/31 02:14:14.4	93.690	-0.050	-0.920	2.040
2020/01/31 02:14:14.5	93.680	-0.030	-0.920	2.000
2020/01/31 02:14:14.6	93.670	-0.000	-0.910	1.950
2020/01/31 02:14:14.7	93.660	0.020	-0.890	1.910
2020/01/31 02:14:14.8	93.650	0.040	-0.880	1.860
2020/01/31 02:14:14.9	93.640	0.060	-0.860	1.810
2020/01/31 02:14:15.0	93.630	0.080	-0.850	1.750
2020/01/31 02:14:15.1	93.620	0.100	-0.830	1.700
2020/01/31 02:14:15.2	93.620	0.120	-0.810	1.640
2020/01/31 02:14:15.3	93.610	0.140	-0.790	1.570
2020/01/31 02:14:15.4	93.610	0.160	-0.770	1.510
2020/01/31 02:14:15.5	93.610	0.180	-0.750	1.440
2020/01/31 02:14:15.6	93.610	0.190	-0.720	1.370
2020/01/31 02:14:15.7	93.610	0.210	-0.700	1.300
2020/01/31 02:14:15.8	93.610	0.220	-0.670	1.220
2020/01/31 02:14:15.9	93.610	0.240	-0.640	1.150
2020/01/31 02:14:16.0	93.610	0.250	-0.610	1.070
2020/01/31 02:14:16.1	93.610	0.260	-0.580	0.990
2020/01/31 02:14:16.2	93.610	0.260	-0.550	0.920
2020/01/31 02:14:16.3	93.610	0.270	-0.510	0.840
2020/01/31 02:14:16.4	93.610	0.280	-0.470	0.770
2020/01/31 02:14:16.5	93.610	0.280	-0.430	0.690
2020/01/31 02:14:16.6	93.610	0.280	-0.390	0.620
2020/01/31 02:14:16.7	93.610	0.280	-0.350	0.540
2020/01/31 02:14:16.8	93.610	0.280	-0.300	0.470
2020/01/31 02:14:16.9	93.610	0.270	-0.250	0.400
2020/01/31 02:14:17.0	93.610	0.260	-0.200	0.330
2020/01/31 02:14:17.1	93.600	0.250	-0.140	0.260
2020/01/31 02:14:17.2	93.590	0.240	-0.090	0.190
2020/01/31 02:14:17.3	93.590	0.230	-0.020	0.120
2020/01/31 02:14:17.4	93.580	0.210	0.040	0.050
2020/01/31 02:14:17.5	93.570	0.200	0.100	-0.020
2020/01/31 02:14:17.6	93.560	0.180	0.170	-0.090
2020/01/31 02:14:17.7	93.550	0.160	0.230	-0.160
2020/01/31 02:14:17.8	93.540	0.130	0.300	-0.230
2020/01/31 02:14:17.9	93.530	0.110	0.370	-0.300
2020/01/31 02:14:18.0	93.520	0.090	0.430	-0.370
2020/01/31 02:14:18.1	93.510	0.060	0.500	-0.440
2020/01/31 02:14:18.2	93.500	0.030	0.560	-0.510
2020/01/31 02:14:18.3	93.490	0.010	0.620	-0.580
2020/01/31 02:14:18.4	93.480	-0.020	0.680	-0.650
2020/01/31 02:14:18.5	93.470	-0.050	0.730	-0.720
2020/01/31 02:14:18.6	93.460	-0.070	0.780	-0.790
2020/01/31 02:14:18.7	93.460	-0.100	0.820	-0.850
2020/01/31 02:14:18.8	93.450	-0.120	0.860	-0.920
2020/01/31 02:14:18.9	93.440	-0.150	0.900	-0.980
2020/01/31 02:14:19.0	93.440	-0.170	0.920	-1.040
2020/01/31 02:14:19.1	93.440	-0.190	0.940	-1.090
2020/01/31 02:14:19.2	93.440	-0.210	0.950	-1.150
2020/01/31 02:14:19.3	93.440	-0.220	0.960	-1.210
2020/01/31 02:14:19.4	93.440	-0.240	0.960	-1.260
2020/01/31 02:14:19.5	93.450	-0.250	0.950	-1.310
2020/01/31 02:14:19.6	93.460	-0.250	0.930	-1.350
2020/01/31 02:14:19.7	93.470	-0.260	0.900	-1.400
2020/01/31 02:14:19.8	93.480	-0.260	0.860	-1.430
2020/01/31 02:14:19.9	93.500	-0.260	0.820	-1.470
2020/01/31 02:14:20.0	93.510	-0.250	0.770	-1.500
2020/01/31 02:14:20.1	93.530	-0.240	0.710	-1.520
2020/01/31 02:14:20.2	93.550	-0.230	0.640	-1.550
2020/01/31 02:14:20.3	93.580	-0.220	0.570	-1.560
2020/01/31 02:14:20.4	93.600	-0.200	0.490	-1.580
2020/01/31 02:14:20.5	93.630	-0.180	0.410	-1.580
2020/01/31 02:14:20.6	93.660	-0.150	0.320	-1.580
2020/01/31 02:14:20.7	93.690	-0.130	0.230	-1.580
2020/01/31 02:14:20.8	93.710	-0.100	0.130	-1.570
2020/01/31 02:14:20.9	93.740	-0.070	0.030	-1.550
2020/01/31 02:14:21.0	93.770	-0.040	-0.060	-1.530
2020/01/31 02:14:21.1	93.810	-0.000	-0.170	-1.500
2020/01/31 02:14:21.2	93.830	0.030	-0.260	-1.470
2020/01/31 02:14:21.3	93.860	0.070	-0.360	-1.430
2020/01/31 02:14:21.4	93.890	0.100	-0.460	-1.390
2020/01/31 02:14:21.5	93.910	0.140	-0.560	-1.340
2020/01/31 02:14:21.6	93.930	0.170	-0.650	-1.290
2020/01/31 02:14:21.7	93.950	0.200	-0.730	-1.240
2020/01/31 02:14:21.8	93.970	0.240	-0.820	-1.180
2020/01/31 02:14:21.9	93.990	0.270	-0.900	-1.110
2020/01/31 02:14:22.0	94.000	0.300	-0.970	-1.040
2020/01/31 02:14:22.1	94.000	0.330	-1.040	-0.960
2020/01/31 02:14:22.2	94.010	0.350	-1.100	-0.890
2020/01/31 02:14:22.3	94.010	0.380	-1.150	-0.800
2020/01/31 02:14:22.4	94.010	0.400	-1.200	-0.720
2020/01/31 02:14:22.5	94.000	0.410	-1.240	-0.630
2020/01/31 02:14:22.6	94.000	0.430	-1.270	-0.530
2020/01/31 02:14:22.7	93.980	0.440	-1.290	-0.430
2020/01/31 02:14:22.8	93.970	0.450	-1.300	-0.320
2020/01/31 02:14:22.9	93.950	0.460	-1.310	-0.210
2020/01/31 02:14:23.0	93.930	0.460	-1.300	-0.090
2020/01/31 02:14:23.1	93.920	0.460	-1.290	0.030
2020/01/31 02:14:23.2	93.890	0.460	-1.270	0.150
2020/01/31 02:14:23.3	93.870	0.450	-1.240	0.280
2020/01/31 02:14:23.4	93.850	0.440	-1.210	0.410
2020/01/31 02:14:23.5	93.820	0.430	-1.170	0.550
2020/01/31 02:14:23.6	93.800	0.420	-1.120	0.680
2020/01/31 02:14:23.7	93.780	0.400	-1.070	0.830
2020/01/31 02:14:23.8	93.760	0.380	-1.010	0.970
2020/01/31 02:14:23.9	93.730	0.360	-0.950	1.110
2020/01/31 02:14:24.0	93.710	0.340	-0.880	1.260
2020/01/31 02:14:24.1	93.680	0.310	-0.810	1.410
2020/01/31 02:14:24.2	93.660	0.280	-0.730	1.560
2020/01/31 02:14:24.3	93.640	0.250	-0.660	1.710
2020/01/31 02:14:24.4	93.630	0.220	-0.580	1.850
2020/01/31 02:14:24.5	93.610	0.190	-0.500	2.000
2020/01/31 02:14:24.6	93.590	0.160	-0.420	2.140
2020/01/31 02:14:24.7	93.580	0.120	-0.340	2.280
2020/01/31 02:14:24.8	93.560	0.090	-0.260	2.420
2020/01/31 02:14:24.9	93.550	0.060	-0.180	2.560
2020/01/31 02:14:25.0	93.540	0.020	-0.100	2.690
2020/01/31 02:14:25.1	93.530	-0.020	-0.020	2.820
2020/01/31 02:14:25.2	93.520	-0.050	0.050	2.940
2020/01/31 02:14:25.3	93.510	-0.090	0.130	3.050
2020/01/31 02:14:25.4	93.500	-0.120	0.200	3.160
2020/01/31 02:14:25.5	93.490	-0.160	0.270	3.260
2020/01/31 02:14:25.6	93.480	-0.190	0.330	3.350
2020/01/31 02:14:25.7	93.470	-0.230	0.390	3.430
2020/01/31 02:14:25.8	93.470	-0.260	0.450	3.510
2020/01/31 02:14:25.9	93.460	-0.290	0.500	3.570
2020/01/31 02:14:26.0	93.460	-0.320	0.550	3.620
2020/01/31 02:14:26.1	93.470	-0.350	0.600	3.670
2020/01/31 02:14:26.2	93.470	-0.380	0.630	3.700
2020/01/31 02:14:26.3	93.470	-0.410	0.670	3.720
2020/01/31 02:14:26.4	93.470	-0.430	0.700	3.730
2020/01/31 02:14:26.5	93.470	-0.450	0.720	3.730
2020/01/31 02:14:26.6	93.470	-0.480	0.740	3.720
2020/01/31 02:14:26.7	93.470	-0.490	0.750	3.700
2020/01/31 02:14:26.8	93.470	-0.510	0.760	3.670
2020/01/31 02:14:26.9	93.470	-0.530	0.770	3.630
2020/01/31 02:14:27.0	93.470	-0.540	0.770	3.580
2020/01/31 02:14:27.1	93.480	-0.550	0.760	3.530
2020/01/31 02:14:27.2	93.490	-0.550	0.750	3.460
2020/01/31 02:14:27.3	93.490	-0.560	0.730	3.390
2020/01/31 02:14:27.4	93.490	-0.560	0.710	3.310
2020/01/31 02:14:27.5	93.500	-0.560	0.690	3.230
2020/01/31 02:14:27.6	93.500	-0.550	0.660	3.140
2020/01/31 02:14:27.7	93.500	-0.540	0.620	3.050
2020/01/31 02:14:27.8	93.510	-0.530	0.590	2.950
2020/01/31 02:14:27.9	93.510	-0.520	0.550	2.850
2020/01/31 02:14:28.0	93.510	-0.500	0.500	2.750
2020/01/31 02:14:28.1	93.510	-0.480	0.450	2.640
2020/01/31 02:14:28.2	93.510	-0.460	0.400	2.530
2020/01/31 02:14:28.3	93.520	-0.440	0.340	2.420
2020/01/31 02:14:28.4	93.520	-0.410	0.280	2.310
2020/01/31 02:14:28.5	93.520	-0.380	0.220	2.200
2020/01/31 02:14:28.6	93.520	-0.350	0.150	2.080
2020/01/31 02:14:28.7	93.530	-0.310	0.090	1.970
2020/01/31 02:14:28.8	93.530	-0.280	0.010	1.850
2020/01/31 02:14:28.9	93.530	-0.240	-0.060	1.730
2020/01/31 02:14:29.0	93.540	-0.200	-0.140	1.620
2020/01/31 02:14:29.1	93.540	-0.150	-0.210	1.500
2020/01/31 02:14:29.2	93.550	-0.110	-0.290	1.390
2020/01/31 02:14:29.3	93.550	-0.070	-0.370	1.270
2020/01/31 02:14:29.4	93.560	-0.020	-0.450	1.160
2020/01/31 02:14:29.5	93.570	0.030	-0.530	1.040
2020/01/31 02:14:29.6	93.570	0.070	-0.600	0.930
2020/01/31 02:14:29.7	93.580	0.120	-0.680	0.830
2020/01/31 02:14:29.8	93.580	0.170	-0.750	0.720
2020/01/31 02:14:29.9	93.580	0.210	-0.820	0.620
2020/01/31 02:14:30.0	93.590	0.250	-0.880	0.510
2020/01/31 02:14:30.1	93.580	0.300	-0.950	0.410
2020/01/31 02:14:30.2	93.580	0.330	-1.000	0.320
2020/01/31 02:14:30.3	93.580	0.370	-1.050	0.220
2020/01/31 02:14:30.4	93.580	0.410	-1.090	0.130
2020/01/31 02:14:30.5	93.580	0.440	-1.120	0.040
2020/01/31 02:14:30.6	93.570	0.470	-1.150	-0.040
2020/01/31 02:14:30.7	93.570	0.490	-1.160	-0.130
2020/01/31 02:14:30.8	93.570	0.510	-1.170	-0.210
2020/01/31 02:14:30.9	93.570	0.530	-1.170	-0.290
2020/01/31 02:14:31.0	93.570	0.540	-1.170	-0.360
2020/01/31 02:14:31.1	93.570	0.550	-1.140	-0.430
2020/01/31 02:14:31.2	93.570	0.550	-1.120	-0.500
2020/01/31 02:14:31.3	93.570	0.550	-1.080	-0.570
2020/01/31 02:14:31.4	93.570	0.550	-1.040	-0.630
2020/01/31 02:14:31.5	93.570	0.540	-0.990	-0.690
2020/01/31 02:14:31.6	93.570	0.530	-0.940	-0.740
2020/01/31 02:14:31.7	93.580	0.510	-0.870	-0.790
2020/01/31 02:14:31.8	93.580	0.490	-0.800	-0.840
2020/01/31 02:14:31.9	93.590	0.470	-0.730	-0.880
2020/01/31 02:14:32.0	93.590	0.440	-0.650	-0.910
2020/01/31 02:14:32.1	93.610	0.410	-0.570	-0.940
2020/01/31 02:14:32.2	93.620	0.380	-0.480	-0.960
2020/01/31 02:14:32.3	93.630	0.350	-0.390	-0.980
2020/01/31 02:14:32.4	93.640	0.310	-0.300	-0.990
2020/01/31 02:14:32.5	93.650	0.270	-0.210	-0.990
2020/01/31 02:14:32.6	93.660	0.230	-0.120	-0.990
2020/01/31 02:14:32.7	93.670	0.190	-0.040	-0.990
2020/01/31 02:14:32.8	93.680	0.150	0.050	-0.970
2020/01/31 02:14:32.9	93.690	0.110	0.130	-0.950
2020/01/31 02:14:33.0	93.700	0.070	0.210	-0.930
2020/01/31 02:14:33.1	93.710	0.030	0.290	-0.890
2020/01/31 02:14:33.2	93.720	-0.010	0.350	-0.860
2020/01/31 02:14:33.3	93.730	-0.050	0.420	-0.820
2020/01/31 02:14:33.4	93.750	-0.080	0.480	-0.780
2020/01/31 02:14:33.5	93.760	-0.120	0.530	-0.730
2020/01/31 02:14:33.6	93.770	-0.150	0.570	-0.680
2020/01/31 02:14:33.7	93.780	-0.180	0.610	-0.620
2020/01/31 02:14:33.8	93.800	-0.210	0.640	-0.570
2020/01/31 02:14:33.9	93.810	-0.230	0.660	-0.510
2020/01/31 02:14:34.0	93.820	-0.250	0.670	-0.450
2020/01/31 02:14:34.1	93.840	-0.270	0.680	-0.380
2020/01/31 02:14:34.2	93.850	-0.280	0.680	-0.320
2020/01/31 02:14:34.3	93.870	-0.300	0.670	-0.250
2020/01/31 02:14:34.4	93.880	-0.300	0.650	-0.190
2020/01/31 02:14:34.5	93.890	-0.310	0.620	-0.120
2020/01/31 02:14:34.6	93.910	-0.310	0.590	-0.060
2020/01/31 02:14:34.7	93.920	-0.310	0.560	0.010
2020/01/31 02:14:34.8	93.930	-0.310	0.510	0.080
2020/01/31 02:14:34.9	93.940	-0.300	0.460	0.150
2020/01/31 02:14:35.0	93.960	-0.290	0.410	0.220
2020/01/31 02:14:35.1	93.980	-0.280	0.350	0.290
2020/01/31 02:14:35.2	93.990	-0.270	0.290	0.360
2020/01/31 02:14:35.3	94.000	-0.250	0.220	0.440
2020/01/31 02:14:35.4	94.010	-0.230	0.160	0.510
2020/01/31 02:14:35.5	94.020	-0.210	0.090	0.580
2020/01/31 02:14:35.6	94.030	-0.190	0.020	0.650
2020/01/31 02:14:35.7	94.030	-0.170	-0.050	0.720
2020/01/31 02:14:35.8	94.040	-0.150	-0.110	0.800
2020/01/31 02:14:35.9	94.050	-0.120	-0.180	0.870
2020/01/31 02:14:36.0	94.050	-0.100	-0.240	0.940
2020/01/31 02:14:36.1	94.060	-0.080	-0.310	1.010
2020/01/31 02:14:36.2	94.070	-0.050	-0.370	1.080
2020/01/31 02:14:36.3	94.080	-0.030	-0.420	1.150
2020/01/31 02:14:36.4	94.090	-0.010	-0.480	1.220
2020/01/31 02:14:36.5	94.100	0.010	-0.520	1.290
2020/01/31 02:14:36.6	94.110	0.030	-0.570	1.350
2020/01/31 02:14:36.7	94.120	0.050	-0.600	1.420
2020/01/31 02:14:36.8	94.130	0.060	-0.630	1.480
2020/01/31 02:14:36.9	94.140	0.070	-0.660	1.540
2020/01/31 02:14:37.0	94.160	0.090	-0.680	1.600
2020/01/31 02:14:37.1	94.180	0.100	-0.700	1.660
2020/01/31 02:14:37.2	94.200	0.100	-0.710	1.720
2020/01/31 02:14:37.3	94.220	0.110	-0.720	1.770
2020/01/31 02:14:37.4	94.230	0.120	-0.720	1.830
2020/01/31 02:14:37.5	94.250	0.120	-0.710	1.880
2020/01/31 02:14:37.6	94.270	0.120	-0.700	1.930
2020/01/31 02:14:37.7	94.290	0.120	-0.690	1.980
2020/01/31 02:14:37.8	94.310	0.120	-0.680	2.020
2020/01/31 02:14:37.9	94.330	0.110	-0.650	2.070
2020/01/31 02:14:38.0	94.350	0.110	-0.630	2.110
2020/01/31 02:14:38.1	94.390	0.100	-0.600	2.160
2020/01/31 02:14:38.2	94.410	0.100	-0.570	2.200
2020/01/31 02:14:38.3	94.430	0.090	-0.540	2.240
2020/01/31 02:14:38.4	94.450	0.080	-0.510	2.270
2020/01/31 02:14:38.5	94.470	0.080	-0.470	2.310
2020/01/31 02:14:38.6	94.500	0.070	-0.440	2.340
2020/01/31 02:14:38.7	94.520	0.060	-0.400	2.370
2020/01/31 02:14:38.8	94.540	0.050	-0.360	2.400
2020/01/31 02:14:38.9	94.560	0.050	-0.320	2.420
2020/01/31 02:14:39.0	94.570	0.040	-0.280	2.450
2020/01/31 02:14:39.1	94.570	0.030	-0.240	2.470
2020/01/31 02:14:39.2	94.590	0.030	-0.200	2.480
2020/01/31 02:14:39.3	94.600	0.020	-0.160	2.490
2020/01/31 02:14:39.4	94.620	0.020	-0.120	2.500
2020/01/31 02:14:39.5	94.630	0.010	-0.080	2.500
2020/01/31 02:14:39.6	94.650	0.010	-0.040	2.500
2020/01/31 02:14:39.7	94.660	0.000	-0.000	2.490
2020/01/31 02:14:39.8	94.670	-0.000	0.040	2.480
2020/01/31 02:14:39.9	94.680	-0.010	0.070	2.460
2020/01/31 02:14:40.0	94.690	-0.010	0.110	2.440
2020/01/31 02:14:40.1	94.690	-0.010	0.140	2.420
2020/01/31 02:14:40.2	94.700	-0.020	0.170	2.390
2020/01/31 02:14:40.3	94.710	-0.020	0.200	2.350
2020/01/31 02:14:40.4	94.710	-0.020	0.230	2.310
2020/01/31 02:14:40.5	94.720	-0.030	0.250	2.270
2020/01/31 02:14:40.6	94.730	-0.030	0.270	2.220
2020/01/31 02:14:40.7	94.730	-0.030	0.280	2.170
2020/01/31 02:14:40.8	94.740	-0.030	0.300	2.120
2020/01/31 02:14:40.9	94.750	-0.030	0.300	2.060
2020/01/31 02:14:41.0	94.750	-0.030	0.310	1.990
2020/01/31 02:14:41.1	94.750	-0.030	0.310	1.930
2020/01/31 02:14:41.2	94.750	-0.030	0.300	1.860
2020/01/31 02:14:41.3	94.760	-0.030	0.290	1.790
2020/01/31 02:14:41.4	94.760	-0.030	0.280	1.710
2020/01/31 02:14:41.5	94.760	-0.030	0.260	1.630
2020/01/31 02:14:41.6	94.770	-0.030	0.240	1.550
2020/01/31 02:14:41.7	94.770	-0.020	0.210	1.470
2020/01/31 02:14:41.8	94.770	-0.020	0.180	1.390
2020/01/31 02:14:41.9	94.770	-0.010	0.150	1.310
2020/01/31 02:14:42.0	94.760	-0.010	0.110	1.220
2020/01/31 02:14:42.1	94.750	0.000	0.080	1.140
2020/01/31 02:14:42.2	94.750	0.010	0.030	1.050
2020/01/31 02:14:42.3	94.740	0.020	-0.010	0.970
2020/01/31 02:14:42.4	94.730	0.030	-0.060	0.880
2020/01/31 02:14:42.5	94.730	0.040	-0.100	0.800
2020/01/31 02:14:42.6	94.720	0.050	-0.150	0.720
2020/01/31 02:14:42.7	94.710	0.060	-0.200	0.630
2020/01/31 02:14:42.8	94.700	0.070	-0.240	0.550
2020/01/31 02:14:42.9	94.690	0.080	-0.290	0.470
2020/01/31 02:14:43.0	94.680	0.090	-0.330	0.390
2020/01/31 02:14:43.1	94.670	0.100	-0.380	0.310
2020/01/31 02:14:43.2	94.670	0.110	-0.410	0.230
2020/01/31 02:14:43.3	94.660	0.120	-0.450	0.150
2020/01/31 02:14:43.4	94.650	0.120	-0.480	0.070
2020/01/31 02:14:43.5	94.650	0.130	-0.500	-0.010
2020/01/31 02:14:43.6	94.650	0.130	-0.520	-0.090
2020/01/31 02:14:43.7	94.640	0.140	-0.540	-0.160
2020/01/31 02:14:43.8	94.640	0.140	-0.550	-0.240
2020/01/31 02:14:43.9	94.640	0.140	-0.560	-0.310
2020/01/31 02:14:44.0	94.640	0.140	-0.560	-0.390
2020/01/31 02:14:44.1	94.630	0.130	-0.560	-0.450
2020/01/31 02:14:44.2	94.630	0.130	-0.550	-0.520
2020/01/31 02:14:44.3	94.640	0.120	-0.540	-0.590
2020/01/31 02:14:44.4	94.640	0.110	-0.520	-0.650
2020/01/31 02:14:44.5	94.640	0.100	-0.500	-0.710
2020/01/31 02:14:44.6	94.640	0.090	-0.480	-0.760
2020/01/31 02:14:44.7	94.640	0.080	-0.450	-0.810
2020/01/31 02:14:44.8	94.630	0.060	-0.420	-0.860
2020/01/31 02:14:44.9	94.630	0.040	-0.390	-0.900
2020/01/31 02:14:45.0	94.630	0.030	-0.360	-0.940
2020/01/31 02:14:45.1	94.650	0.010	-0.320	-0.970
2020/01/31 02:14:45.2	94.640	-0.020	-0.290	-0.990
2020/01/31 02:14:45.3	94.630	-0.040	-0.250	-1.010
2020/01/31 02:14:45.4	94.630	-0.060	-0.220	-1.030
2020/01/31 02:14:45.5	94.620	-0.080	-0.180	-1.040
2020/01/31 02:14:45.6	94.610	-0.110	-0.140	-1.050
2020/01/31 02:14:45.7	94.590	-0.130	-0.110	-1.050
2020/01/31 02:14:45.8	94.580	-0.160	-0.080	-1.050
2020/01/31 02:14:45.9	94.570	-0.180	-0.050	-1.040
2020/01/31 02:14:46.0	94.550	-0.200	-0.020	-1.020
2020/01/31 02:14:46.1	94.550	-0.230	0.010	-1.000
2020/01/31 02:14:46.2	94.530	-0.250	0.040	-0.980
2020/01/31 02:14:46.3	94.520	-0.270	0.060	-0.960
2020/01/31 02:14:46.4	94.500	-0.290	0.080	-0.930
2020/01/31 02:14:46.5	94.490	-0.310	0.100	-0.900
2020/01/31 02:14:46.6	94.470	-0.330	0.110	-0.870
2020/01/31 02:14:46.7	94.450	-0.340	0.120	-0.830
2020/01/31 02:14:46.8	94.440	-0.360	0.130	-0.800
2020/01/31 02:14:46.9	94.420	-0.370	0.130	-0.760
2020/01/31 02:14:47.0	94.410	-0.380	0.140	-0.710
2020/01/31 02:14:47.1	94.410	-0.390	0.140	-0.660
2020/01/31 02:14:47.2	94.390	-0.390	0.130	-0.620
2020/01/31 02:14:47.3	94.380	-0.400	0.130	-0.570
2020/01/31 02:14:47.4	94.370	-0.400	0.120	-0.520
2020/01/31 02:14:47.5	94.360	-0.400	0.110	-0.470
2020/01/31 02:14:47.6	94.340	-0.400	0.100	-0.410
2020/01/31 02:14:47.7	94.330	-0.390	0.090	-0.360
2020/01/31 02:14:47.8	94.320	-0.390	0.080	-0.300
2020/01/31 02:14:47.9	94.310	-0.380	0.060	-0.240
2020/01/31 02:14:48.0	94.300	-0.370	0.040	-0.180
2020/01/31 02:14:48.1	94.310	-0.350	0.020	-0.120
2020/01/31 02:14:48.2	94.300	-0.340	0.000	-0.060
2020/01/31 02:14:48.3	94.290	-0.320	-0.020	0.010
2020/01/31 02:14:48.4	94.290	-0.300	-0.040	0.070
2020/01/31 02:14:48.5	94.280	-0.280	-0.070	0.140
2020/01/31 02:14:48.6	94.280	-0.260	-0.090	0.210
2020/01/31 02:14:48.7	94.270	-0.240	-0.120	0.270
2020/01/31 02:14:48.8	94.270	-0.210	-0.140	0.340
2020/01/31 02:14:48.9	94.270	-0.190	-0.170	0.400
2020/01/31 02:14:49.0	94.260	-0.160	-0.200	0.470
2020/01/31 02:14:49.1	94.270	-0.130	-0.220	0.530
2020/01/31 02:14:49.2	94.270	-0.100	-0.250	0.600
2020/01/31 02:14:49.3	94.270	-0.070	-0.280	0.660
2020/01/31 02:14:49.4	94.270	-0.040	-0.300	0.730
2020/01/31 02:14:49.5	94.260	-0.010	-0.330	0.790
2020/01/31 02:14:49.6	94.260	0.020	-0.360	0.850
2020/01/31 02:14:49.7	94.260	0.050	-0.380	0.910
2020/01/31 02:14:49.8	94.250	0.080	-0.400	0.970
2020/01/31 02:14:49.9	94.250	0.110	-0.430	1.040
2020/01/31 02:14:50.0	94.240	0.140	-0.450	1.100
2020/01/31 02:14:50.1	94.240	0.160	-0.470	1.160
2020/01/31 02:14:50.2	94.230	0.190	-0.490	1.220
2020/01/31 02:14:50.3	94.220	0.220	-0.500	1.270
2020/01/31 02:14:50.4	94.210	0.240	-0.510	1.330
2020/01/31 02:14:50.5	94.200	0.260	-0.520	1.390
2020/01/31 02:14:50.6	94.190	0.280	-0.530	1.450
2020/01/31 02:14:50.7	94.170	0.300	-0.540	1.510
2020/01/31 02:14:50.8	94.160	0.320	-0.540	1.560
2020/01/31 02:14:50.9	94.140	0.340	-0.540	1.620
2020/01/31 02:14:51.0	94.120	0.350	-0.530	1.680
2020/01/31 02:14:51.1	94.110	0.360	-0.530	1.730
2020/01/31 02:14:51.2	94.090	0.370	-0.520	1.790
2020/01/31 02:14:51.3	94.070	0.380	-0.500	1.840
2020/01/31 02:14:51.4	94.050	0.390	-0.490	1.890
2020/01/31 02:14:51.5	94.030	0.390	-0.470	1.930
2020/01/31 02:14:51.6	94.010	0.390	-0.440	1.980
2020/01/31 02:14:51.7	93.980	0.390	-0.420	2.020
2020/01/31 02:14:51.8	93.960	0.380	-0.390	2.070
2020/01/31 02:14:51.9	93.940	0.380	-0.360	2.110
2020/01/31 02:14:52.0	93.920	0.370	-0.330	2.140
2020/01/31 02:14:52.1	93.890	0.360	-0.300	2.170
2020/01/31 02:14:52.2	93.870	0.350	-0.260	2.200
2020/01/31 02:14:52.3	93.850	0.340	-0.230	2.230
2020/01/31 02:14:52.4	93.830	0.320	-0.200	2.260
2020/01/31 02:14:52.5	93.810	0.310	-0.160	2.280
2020/01/31 02:14:52.6	93.790	0.290	-0.130	2.290
2020/01/31 02:14:52.7	93.770	0.270	-0.100	2.310
2020/01/31 02:14:52.8	93.760	0.250	-0.070	2.320
2020/01/31 02:14:52.9	93.740	0.230	-0.040	2.320
2020/01/31 02:14:53.0	93.730	0.220	-0.010	2.330
2020/01/31 02:14:53.1	93.710	0.200	0.010	2.330
2020/01/31 02:14:53.2	93.700	0.180	0.030	2.320
2020/01/31 02:14:53.3	93.700	0.160	0.050	2.310
2020/01/31 02:14:53.4	93.690	0.140	0.070	2.300
2020/01/31 02:14:53.5	93.680	0.120	0.080	2.280
2020/01/31 02:14:53.6	93.680	0.110	0.090	2.260
2020/01/31 02:14:53.7	93.680	0.090	0.090	2.240
2020/01/31 02:14:53.8	93.680	0.080	0.090	2.210
2020/01/31 02:14:53.9	93.680	0.070	0.090	2.180
2020/01/31 02:14:54.0	93.690	0.060	0.090	2.150
2020/01/31 02:14:54.1	93.700	0.050	0.080	2.110
2020/01/31 02:14:54.2	93.700	0.040	0.070	2.070
2020/01/31 02:14:54.3	93.710	0.030	0.060	2.030
2020/01/31 02:14:54.4	93.720	0.020	0.050	1.980
2020/01/31 02:14:54.5	93.740	0.020	0.030	1.940
2020/01/31 02:14:54.6	93.750	0.020	0.010	1.890
2020/01/31 02:14:54.7	93.760	0.010	-0.000	1.840
2020/01/31 02:14:54.8	93.780	0.010	-0.020	1.790
2020/01/31 02:14:54.9	93.800	0.010	-0.040	1.740
2020/01/31 02:14:55.0	93.810	0.010	-0.060	1.680
2020/01/31 02:14:55.1	93.820	0.010	-0.080	1.630
2020/01/31 02:14:55.2	93.840	0.010	-0.090	1.580
2020/01/31 02:14:55.3	93.850	0.010	-0.110	1.530
2020/01/31 02:14:55.4	93.870	0.010	-0.120	1.480
2020/01/31 02:14:55.5	93.880	0.010	-0.140	1.430
2020/01/31 02:14:55.6	93.890	0.010	-0.150	1.370
2020/01/31 02:14:55.7	93.910	0.010	-0.160	1.330
2020/01/31 02:14:55.8	93.920	0.000	-0.160	1.280
2020/01/31 02:14:55.9	93.930	0.000	-0.170	1.230
2020/01/31 02:14:56.0	93.940	-0.000	-0.170	1.180
2020/01/31 02:14:56.1	93.940	-0.010	-0.170	1.140
2020/01/31 02:14:56.2	93.940	-0.020	-0.170	1.090
2020/01/31 02:14:56.3	93.950	-0.020	-0.160	1.050
2020/01/31 02:14:56.4	93.960	-0.030	-0.150	1.010
2020/01/31 02:14:56.5	93.960	-0.040	-0.140	0.970
2020/01/31 02:14:56.6	93.960	-0.060	-0.130	0.930
2020/01/31 02:14:56.7	93.960	-0.070	-0.120	0.890
2020/01/31 02:14:56.8	93.960	-0.080	-0.100	0.860
2020/01/31 02:14:56.9	93.960	-0.100	-0.080	0.830
2020/01/31 02:14:57.0	93.960	-0.120	-0.060	0.800
2020/01/31 02:14:57.1	93.960	-0.140	-0.040	0.780
2020/01/31 02:14:57.2	93.960	-0.160	-0.010	0.760
2020/01/31 02:14:57.3	93.950	-0.180	0.010	0.740
2020/01/31 02:14:57.4	93.950	-0.200	0.040	0.720
2020/01/31 02:14:57.5	93.940	-0.220	0.070	0.700
2020/01/31 02:14:57.6	93.940	-0.250	0.090	0.690
2020/01/31 02:14:57.7	93.930	-0.270	0.120	0.680
2020/01/31 02:14:57.8	93.930	-0.300	0.150	0.670
2020/01/31 02:14:57.9	93.930	-0.320	0.180	0.670
2020/01/31 02:14:58.0	93.920	-0.350	0.200	0.660
2020/01/31 02:14:58.1	93.920	-0.370	0.230	0.660
2020/01/31 02:14:58.2	93.920	-0.400	0.250	0.660
2020/01/31 02:14:58.3	93.920	-0.420	0.280	0.650
2020/01/31 02:14:58.4	93.910	-0.440	0.300	0.650
2020/01/31 02:14:58.5	93.910	-0.460	0.310	0.650
2020/01/31 02:14:58.6	93.910	-0.480	0.330	0.650
2020/01/31 02:14:58.7	93.910	-0.500	0.340	0.650
2020/01/31 02:14:58.8	93.910	-0.520	0.340	0.650
2020/01/31 02:14:58.9	93.920	-0.530	0.350	0.650
2020/01/31 02:14:59.0	93.920	-0.540	0.340	0.650
2020/01/31 02:14:59.1	93.920	-0.550	0.330	0.650
2020/01/31 02:14:59.2	93.930	-0.560	0.320	0.650
2020/01/31 02:14:59.3	93.940	-0.560	0.300	0.640
2020/01/31 02:14:59.4	93.950	-0.560	0.280	0.640
2020/01/31 02:14:59.5	93.960	-0.550	0.250	0.630
2020/01/31 02:14:59.6	93.970	-0.550	0.210	0.620
2020/01/31 02:14:59.7	93.980	-0.540	0.170	0.610
2020/01/31 02:14:59.8	93.990	-0.520	0.130	0.600
2020/01/31 02:14:59.9	94.010	-0.500	0.070	0.580
2020/01/31 02:15:00.0	94.020	-0.480	0.010	0.570
2020/01/31 02:15:00.1	94.040	-0.450	-0.050	0.550
2020/01/31 02:15:00.2	94.050	-0.420	-0.120	0.540
2020/01/31 02:15:00.3	94.070	-0.390	-0.190	0.520
2020/01/31 02:15:00.4	94.080	-0.350	-0.270	0.500
2020/01/31 02:15:00.5	94.100	-0.310	-0.350	0.480
2020/01/31 02:15:00.6	94.110	-0.270	-0.430	0.460
2020/01/31 02:15:00.7	94.120	-0.220	-0.520	0.450
2020/01/31 02:15:00.8	94.140	-0.170	-0.600	0.430
2020/01/31 02:15:00.9	94.150	-0.120	-0.690	0.410
2020/01/31 02:15:01.0	94.160	-0.070	-0.770	0.390
2020/01/31 02:15:01.1	94.170	-0.010	-0.850	0.380
2020/01/31 02:15:01.2	94.180	0.040	-0.930	0.370
2020/01/31 02:15:01.3	94.190	0.100	-1.010	0.360
2020/01/31 02:15:01.4	94.200	0.160	-1.080	0.340
2020/01/31 02:15:01.5	94.210	0.210	-1.140	0.340
2020/01/31 02:15:01.6	94.210	0.270	-1.200	0.330
2020/01/31 02:15:01.7	94.220	0.320	-1.260	0.330
2020/01/31 02:15:01.8	94.220	0.370	-1.300	0.320
2020/01/31 02:15:01.9	94.230	0.420	-1.340	0.330
2020/01/31 02:15:02.0	94.230	0.470	-1.380	0.330
2020/01/31 02:15:02.1	94.220	0.520	-1.400	0.340
2020/01/31 02:15:02.2	94.230	0.560	-1.410	0.350
2020/01/31 02:15:02.3	94.230	0.600	-1.420	0.360
2020/01/31 02:15:02.4	94.230	0.630	-1.420	0.380
2020/01/31 02:15:02.5	94.230	0.670	-1.410	0.390
2020/01/31 02:15:02.6	94.230	0.690	-1.390	0.420
2020/01/31 02:15:02.7	94.230	0.720	-1.360	0.440
2020/01/31 02:15:02.8	94.230	0.730	-1.320	0.470
2020/01/31 02:15:02.9	94.220	0.750	-1.280	0.500
2020/01/31 02:15:03.0	94.220	0.760	-1.220	0.530
2020/01/31 02:15:03.1	94.210	0.760	-1.160	0.560
2020/01/31 02:15:03.2	94.200	0.760	-1.080	0.590
2020/01/31 02:15:03.3	94.200	0.750	-1.000	0.630
2020/01/31 02:15:03.4	94.190	0.740	-0.910	0.660
2020/01/31 02:15:03.5	94.180	0.720	-0.820	0.700
2020/01/31 02:15:03.6	94.170	0.700	-0.720	0.730
2020/01/31 02:15:03.7	94.160	0.670	-0.610	0.760
2020/01/31 02:15:03.8	94.150	0.640	-0.490	0.800
2020/01/31 02:15:03.9	94.150	0.600	-0.380	0.830
2020/01/31 02:15:04.0	94.140	0.560	-0.250	0.850
2020/01/31 02:15:04.1	94.130	0.520	-0.130	0.890
2020/01/31 02:15:04.2	94.120	0.470	-0.000	0.910
2020/01/31 02:15:04.3	94.110	0.420	0.120	0.930
2020/01/31 02:15:04.4	94.110	0.370	0.250	0.950
2020/01/31 02:15:04.5	94.110	0.310	0.370	0.960
2020/01/31 02:15:04.6	94.100	0.260	0.490	0.980
2020/01/31 02:15:04.7	94.100	0.200	0.600	0.990
2020/01/31 02:15:04.8	94.100	0.140	0.710	0.990
2020/01/31 02:15:04.9	94.110	0.080	0.820	1.000
2020/01/31 02:15:05.0	94.110	0.020	0.920	1.000
2020/01/31 02:15:05.1	94.120	-0.030	1.010	1.000
2020/01/31 02:15:05.2	94.120	-0.090	1.090	0.990
2020/01/31 02:15:05.3	94.130	-0.140	1.170	0.990
2020/01/31 02:15:05.4	94.140	-0.200	1.230	0.980
2020/01/31 02:15:05.5	94.150	-0.250	1.290	0.970
2020/01/31 02:15:05.6	94.160	-0.300	1.330	0.950
2020/01/31 02:15:05.7	94.170	-0.340	1.370	0.940
2020/01/31 02:15:05.8	94.190	-0.390	1.390	0.920
2020/01/31 02:15:05.9	94.200	-0.430	1.400	0.900
2020/01/31 02:15:06.0	94.210	-0.470	1.410	0.880
2020/01/31 02:15:06.1	94.230	-0.500	1.400	0.860
2020/01/31 02:15:06.2	94.250	-0.530	1.380	0.840
2020/01/31 02:15:06.3	94.260	-0.560	1.360	0.820
2020/01/31 02:15:06.4	94.280	-0.580	1.320	0.800
2020/01/31 02:15:06.5	94.290	-0.600	1.280	0.770
2020/01/31 02:15:06.6	94.310	-0.610	1.220	0.750
2020/01/31 02:15:06.7	94.330	-0.620	1.160	0.730
2020/01/31 02:15:06.8	94.340	-0.630	1.090	0.700
2020/01/31 02:15:06.9	94.360	-0.630	1.010	0.680
2020/01/31 02:15:07.0	94.380	-0.630	0.920	0.650
2020/01/31 02:15:07.1	94.400	-0.620	0.830	0.630
2020/01/31 02:15:07.2	94.410	-0.610	0.730	0.610
2020/01/31 02:15:07.3	94.430	-0.600	0.630	0.590
2020/01/31 02:15:07.4	94.450	-0.580	0.520	0.560
2020/01/31 02:15:07.5	94.470	-0.560	0.400	0.540
2020/01/31 02:15:07.6	94.490	-0.540	0.290	0.520
2020/01/31 02:15:07.7	94.510	-0.510	0.170	0.490
2020/01/31 02:15:07.8	94.530	-0.480	0.050	0.470
2020/01/31 02:15:07.9	94.560	-0.450	-0.070	0.440
2020/01/31 02:15:08.0	94.580	-0.420	-0.190	0.420
2020/01/31 02:15:08.1	94.610	-0.390	-0.310	0.400
2020/01/31 02:15:08.2	94.640	-0.350	-0.430	0.380
2020/01/31 02:15:08.3	94.660	-0.310	-0.540	0.360
2020/01/31 02:15:08.4	94.680	-0.270	-0.660	0.340
2020/01/31 02:15:08.5	94.710	-0.240	-0.760	0.320
2020/01/31 02:15:08.6	94.730	-0.200	-0.870	0.310
2020/01/31 02:15:08.7	94.750	-0.160	-0.960	0.300
2020/01/31 02:15:08.8	94.760	-0.120	-1.050	0.290
2020/01/31 02:15:08.9	94.780	-0.080	-1.130	0.290
2020/01/31 02:15:09.0	94.790	-0.050	-1.210	0.290
2020/01/31 02:15:09.1	94.790	-0.010	-1.280	0.300
2020/01/31 02:15:09.2	94.800	0.020	-1.340	0.300
2020/01/31 02:15:09.3	94.800	0.050	-1.380	0.320
2020/01/31 02:15:09.4	94.800	0.080	-1.420	0.330
2020/01/31 02:15:09.5	94.800	0.110	-1.450	0.350
2020/01/31 02:15:09.6	94.800	0.140	-1.470	0.380
2020/01/31 02:15:09.7	94.790	0.160	-1.480	0.400
2020/01/31 02:15:09.8	94.770	0.190	-1.480	0.440
2020/01/31 02:15:09.9	94.760	0.210	-1.470	0.470
2020/01/31 02:15:10.0	94.740	0.220	-1.450	0.500
2020/01/31 02:15:10.1	94.710	0.240	-1.420	0.550
2020/01/31 02:15:10.2	94.690	0.250	-1.390	0.590
2020/01/31 02:15:10.3	94.660	0.260	-1.350	0.630
2020/01/31 02:15:10.4	94.620	0.270	-1.300	0.680
2020/01/31 02:15:10.5	94.590	0.280	-1.240	0.720
2020/01/31 02:15:10.6	94.550	0.280	-1.180	0.770
2020/01/31 02:15:10.7	94.510	0.290	-1.110	0.820
2020/01/31 02:15:10.8	94.460	0.290	-1.030	0.870
2020/01/31 02:15:10.9	94.410	0.290	-0.960	0.910
2020/01/31 02:15:11.0	94.370	0.280	-0.880	0.960
2020/01/31 02:15:11.1	94.310	0.280	-0.790	1.000
2020/01/31 02:15:11.2	94.260	0.280	-0.710	1.050
2020/01/31 02:15:11.3	94.200	0.270	-0.620	1.090
2020/01/31 02:15:11.4	94.150	0.260	-0.540	1.130
2020/01/31 02:15:11.5	94.100	0.250	-0.450	1.160
2020/01/31 02:15:11.6	94.050	0.240	-0.370	1.200
2020/01/31 02:15:11.7	94.000	0.230	-0.290	1.220
2020/01/31 02:15:11.8	93.960	0.220	-0.200	1.250
2020/01/31 02:15:11.9	93.910	0.210	-0.130	1.270
2020/01/31 02:15:12.0	93.860	0.200	-0.050	1.290
2020/01/31 02:15:12.1	93.830	0.180	0.020	1.300
2020/01/31 02:15:12.2	93.780	0.170	0.100	1.310
2020/01/31 02:15:12.3	93.740	0.150	0.160	1.320
2020/01/31 02:15:12.4	93.710	0.130	0.230	1.320
2020/01/31 02:15:12.5	93.670	0.120	0.280	1.310
2020/01/31 02:15:12.6	93.640	0.100	0.340	1.310
2020/01/31 02:15:12.7	93.610	0.080	0.390	1.290
2020/01/31 02:15:12.8	93.580	0.060	0.430	1.270
2020/01/31 02:15:12.9	93.550	0.040	0.470	1.250
2020/01/31 02:15:13.0	93.530	0.020	0.500	1.230
2020/01/31 02:15:13.1	93.520	0.000	0.530	1.200
2020/01/31 02:15:13.2	93.500	-0.020	0.560	1.160
2020/01/31 02:15:13.3	93.490	-0.030	0.570	1.120
2020/01/31 02:15:13.4	93.480	-0.050	0.580	1.070
2020/01/31 02:15:13.5	93.470	-0.070	0.580	1.020
2020/01/31 02:15:13.6	93.470	-0.080	0.580	0.970
2020/01/31 02:15:13.7	93.460	-0.090	0.560	0.910
2020/01/31 02:15:13.8	93.460	-0.100	0.550	0.850
2020/01/31 02:15:13.9	93.470	-0.110	0.520	0.790
2020/01/31 02:15:14.0	93.470	-0.120	0.500	0.720
2020/01/31 02:15:14.1	93.480	-0.130	0.460	0.650
2020/01/31 02:15:14.2	93.490	-0.130	0.420	0.580
2020/01/31 02:15:14.3	93.500	-0.130	0.370	0.500
2020/01/31 02:15:14.4	93.510	-0.130	0.320	0.430
2020/01/31 02:15:14.5	93.520	-0.120	0.270	0.360
2020/01/31 02:15:14.6	93.540	-0.120	0.210	0.290
2020/01/31 02:15:14.7	93.550	-0.110	0.160	0.220
2020/01/31 02:15:14.8	93.570	-0.090	0.100	0.150
2020/01/31 02:15:14.9	93.580	-0.080	0.030	0.080
2020/01/31 02:15:15.0	93.600	-0.070	-0.030	0.020
2020/01/31 02:15:15.1	93.610	-0.050	-0.090	-0.030
2020/01/31 02:15:15.2	93.620	-0.030	-0.150	-0.090
2020/01/31 02:15:15.3	93.630	-0.010	-0.210	-0.140
2020/01/31 02:15:15.4	93.650	0.010	-0.260	-0.180
2020/01/31 02:15:15.5	93.660	0.030	-0.320	-0.230
2020/01/31 02:15:15.6	93.660	0.050	-0.370	-0.260
2020/01/31 02:15:15.7	93.670	0.070	-0.410	-0.290
2020/01/31 02:15:15.8	93.680	0.090	-0.450	-0.320
2020/01/31 02:15:15.9	93.680	0.110	-0.480	-0.340
2020/01/31 02:15:16.0	93.690	0.120	-0.510	-0.350
2020/01/31 02:15:16.1	93.690	0.140	-0.530	-0.360
2020/01/31 02:15:16.2	93.690	0.150	-0.550	-0.370
2020/01/31 02:15:16.3	93.690	0.160	-0.550	-0.360
2020/01/31 02:15:16.4	93.690	0.160	-0.560	-0.350
2020/01/31 02:15:16.5	93.680	0.160	-0.550	-0.340
2020/01/31 02:15:16.6	93.670	0.160	-0.530	-0.310
2020/01/31 02:15:16.7	93.660	0.160	-0.510	-0.290
2020/01/31 02:15:16.8	93.650	0.150	-0.490	-0.250
2020/01/31 02:15:16.9	93.630	0.130	-0.450	-0.210
2020/01/31 02:15:17.0	93.610	0.120	-0.420	-0.170
2020/01/31 02:15:17.1	93.590	0.090	-0.370	-0.110
2020/01/31 02:15:17.2	93.570	0.070	-0.320	-0.060
2020/01/31 02:15:17.3	93.550	0.040	-0.270	0.000
2020/01/31 02:15:17.4	93.520	0.010	-0.210	0.070
2020/01/31 02:15:17.5	93.490	-0.030	-0.150	0.140
2020/01/31 02:15:17.6	93.460	-0.060	-0.090	0.210
2020/01/31 02:15:17.7	93.430	-0.100	-0.030	0.280
2020/01/31 02:15:17.8	93.400	-0.150	0.040	0.360
2020/01/31 02:15:17.9	93.360	-0.190	0.100	0.440
2020/01/31 02:15:18.0	93.330	-0.230	0.160	0.520
2020/01/31 02:15:18.1	93.300	-0.280	0.220	0.610
2020/01/31 02:15:18.2	93.260	-0.320	0.280	0.700
2020/01/31 02:15:18.3	93.230	-0.370	0.340	0.780
2020/01/31 02:15:18.4	93.190	-0.410	0.390	0.870
2020/01/31 02:15:18.5	93.160	-0.460	0.440	0.950
2020/01/31 02:15:18.6	93.120	-0.500	0.480	1.040
2020/01/31 02:15:18.7	93.090	-0.540	0.520	1.120
2020/01/31 02:15:18.8	93.060	-0.570	0.560	1.200
2020/01/31 02:15:18.9	93.030	-0.600	0.580	1.270
2020/01/31 02:15:19.0	93.000	-0.630	0.600	1.350
2020/01/31 02:15:19.1	92.980	-0.660	0.620	1.420
2020/01/31 02:15:19.2	92.950	-0.680	0.620	1.490
2020/01/31 02:15:19.3	92.930	-0.690	0.620	1.550
2020/01/31 02:15:19.4	92.910	-0.700	0.610	1.610
2020/01/31 02:15:19.5	92.900	-0.700	0.590	1.660
2020/01/31 02:15:19.6	92.880	-0.700	0.560	1.720
2020/01/31 02:15:19.7	92.870	-0.690	0.530	1.760
2020/01/31 02:15:19.8	92.860	-0.680	0.480	1.800
2020/01/31 02:15:19.9	92.850	-0.660	0.430	1.840
2020/01/31 02:15:20.0	92.850	-0.630	0.360	1.880
2020/01/31 02:15:20.1	92.850	-0.590	0.300	1.910
2020/01/31 02:15:20.2	92.850	-0.550	0.220	1.940
2020/01/31 02:15:20.3	92.850	-0.510	0.130	1.960
2020/01/31 02:15:20.4	92.850	-0.450	0.040	1.980
2020/01/31 02:15:20.5	92.860	-0.390	-0.060	1.990
2020/01/31 02:15:20.6	92.870	-0.330	-0.160	2.010
2020/01/31 02:15:20.7	92.870	-0.260	-0.270	2.010
2020/01/31 02:15:20.8	92.880	-0.190	-0.380	2.020
2020/01/31 02:15:20.9	92.900	-0.110	-0.490	2.020
2020/01/31 02:15:21.0	92.910	-0.030	-0.600	2.020
2020/01/31 02:15:21.1	92.920	0.050	-0.720	2.010
2020/01/31 02:15:21.2	92.940	0.130	-0.830	2.000
2020/01/31 02:15:21.3	92.950	0.220	-0.940	2.000
2020/01/31 02:15:21.4	92.970	0.300	-1.040	1.990
2020/01/31 02:15:21.5	92.980	0.390	-1.140	1.980
2020/01/31 02:15:21.6	92.990	0.470	-1.230	1.960
2020/01/31 02:15:21.7	93.010	0.550	-1.320	1.950
2020/01/31 02:15:21.8	93.020	0.630	-1.390	1.940
2020/01/31 02:15:21.9	93.030	0.710	-1.460	1.930
2020/01/31 02:15:22.0	93.030	0.780	-1.520	1.920
2020/01/31 02:15:22.1	93.040	0.850	-1.570	1.910
2020/01/31 02:15:22.2	93.050	0.910	-1.600	1.900
2020/01/31 02:15:22.3	93.050	0.970	-1.630	1.900
2020/01/31 02:15:22.4	93.050	1.020	-1.640	1.890
2020/01/31 02:15:22.5	93.040	1.060	-1.640	1.890
2020/01/31 02:15:22.6	93.040	1.100	-1.620	1.880
2020/01/31 02:15:22.7	93.030	1.130	-1.600	1.880
2020/01/31 02:15:22.8	93.020	1.150	-1.560	1.880
2020/01/31 02:15:22.9	93.010	1.160	-1.500	1.880
2020/01/31 02:15:23.0	92.990	1.170	-1.440	1.880
2020/01/31 02:15:23.1	92.960	1.160	-1.360	1.880
2020/01/31 02:15:23.2	92.950	1.150	-1.270	1.880
2020/01/31 02:15:23.3	92.930	1.130	-1.170	1.880
2020/01/31 02:15:23.4	92.900	1.100	-1.070	1.890
2020/01/31 02:15:23.5	92.880	1.060	-0.950	1.890
2020/01/31 02:15:23.6	92.860	1.020	-0.820	1.890
2020/01/31 02:15:23.7	92.830	0.960	-0.690	1.900
2020/01/31 02:15:23.8	92.800	0.910	-0.550	1.900
2020/01/31 02:15:23.9	92.780	0.840	-0.410	1.900
2020/01/31 02:15:24.0	92.750	0.770	-0.270	1.900
2020/01/31 02:15:24.1	92.720	0.690	-0.110	1.900
2020/01/31 02:15:24.2	92.690	0.610	0.030	1.900
2020/01/31 02:15:24.3	92.660	0.530	0.180	1.900
2020/01/31 02:15:24.4	92.630	0.440	0.320	1.890
2020/01/31 02:15:24.5	92.600	0.350	0.460	1.880
2020/01/31 02:15:24.6	92.570	0.260	0.600	1.870
2020/01/31 02:15:24.7	92.550	0.170	0.730	1.860
2020/01/31 02:15:24.8	92.520	0.080	0.850	1.840
2020/01/31 02:15:24.9	92.500	-0.010	0.960	1.830
2020/01/31 02:15:25.0	92.480	-0.100	1.060	1.800
2020/01/31 02:15:25.1	92.460	-0.190	1.160	1.780
2020/01/31 02:15:25.2	92.440	-0.270	1.240	1.750
2020/01/31 02:15:25.3	92.430	-0.350	1.310	1.720
2020/01/31 02:15:25.4	92.420	-0.430	1.370	1.680
2020/01/31 02:15:25.5	92.420	-0.500	1.410	1.640
2020/01/31 02:15:25.6	92.420	-0.570	1.440	1.590
2020/01/31 02:15:25.7	92.420	-0.630	1.460	1.540
2020/01/31 02:15:25.8	92.430	-0.680	1.460	1.480
2020/01/31 02:15:25.9	92.440	-0.730	1.450	1.420
2020/01/31 02:15:26.0	92.450	-0.770	1.430	1.350
2020/01/31 02:15:26.1	92.470	-0.810	1.390	1.280
2020/01/31 02:15:26.2	92.490	-0.840	1.340	1.210
2020/01/31 02:15:26.3	92.520	-0.860	1.280	1.130
2020/01/31 02:15:26.4	92.550	-0.870	1.210	1.050
2020/01/31 02:15:26.5	92.590	-0.880	1.120	0.960
2020/01/31 02:15:26.6	92.630	-0.880	1.030	0.870
2020/01/31 02:15:26.7	92.680	-0.870	0.930	0.770
2020/01/31 02:15:26.8	92.720	-0.850	0.810	0.680
2020/01/31 02:15:26.9	92.780	-0.830	0.690	0.580
2020/01/31 02:15:27.0	92.830	-0.810	0.570	0.480
2020/01/31 02:15:27.1	92.880	-0.770	0.440	0.390
2020/01/31 02:15:27.2	92.940	-0.740	0.310	0.290
2020/01/31 02:15:27.3	93.000	-0.700	0.170	0.200
2020/01/31 02:15:27.4	93.060	-0.650	0.030	0.110
2020/01/31 02:15:27.5	93.110	-0.600	-0.100	0.020
2020/01/31 02:15:27.6	93.170	-0.550	-0.240	-0.070
2020/01/31 02:15:27.7	93.230	-0.490	-0.370	-0.140
2020/01/31 02:15:27.8	93.290	-0.440	-0.500	-0.220
2020/01/31 02:15:27.9	93.340	-0.380	-0.620	-0.290
2020/01/31 02:15:28.0	93.400	-0.320	-0.740	-0.350
2020/01/31 02:15:28.1	93.450	-0.260	-0.850	-0.400
2020/01/31 02:15:28.2	93.500	-0.200	-0.950	-0.450
2020/01/31 02:15:28.3	93.550	-0.140	-1.040	-0.490
2020/01/31 02:15:28.4	93.600	-0.090	-1.120	-0.530
2020/01/31 02:15:28.5	93.640	-0.030	-1.190	-0.560
2020/01/31 02:15:28.6	93.680	0.020	-1.250	-0.580
2020/01/31 02:15:28.7	93.710	0.070	-1.300	-0.600
2020/01/31 02:15:28.8	93.740	0.110	-1.340	-0.610
2020/01/31 02:15:28.9	93.770	0.150	-1.360	-0.610
2020/01/31 02:15:29.0	93.790	0.190	-1.370	-0.600
2020/01/31 02:15:29.1	93.820	0.220	-1.370	-0.580
2020/01/31 02:15:29.2	93.840	0.250	-1.350	-0.570
2020/01/31 02:15:29.3	93.850	0.270	-1.330	-0.540
2020/01/31 02:15:29.4	93.860	0.290	-1.290	-0.510
2020/01/31 02:15:29.5	93.870	0.300	-1.240	-0.470
2020/01/31 02:15:29.6	93.870	0.310	-1.180	-0.430
2020/01/31 02:15:29.7	93.870	0.310	-1.110	-0.380
2020/01/31 02:15:29.8	93.870	0.310	-1.040	-0.330
2020/01/31 02:15:29.9	93.860	0.300	-0.950	-0.270
2020/01/31 02:15:30.0	93.850	0.290	-0.860	-0.200
2020/01/31 02:15:30.1	93.850	0.280	-0.760	-0.130
2020/01/31 02:15:30.2	93.830	0.260	-0.650	-0.060
2020/01/31 02:15:30.3	93.820	0.240	-0.550	0.020
2020/01/31 02:15:30.4	93.800	0.210	-0.440	0.090
2020/01/31 02:15:30.5	93.770	0.180	-0.320	0.170
2020/01/31 02:15:30.6	93.750	0.150	-0.210	0.250
2020/01/31 02:15:30.7	93.720	0.120	-0.100	0.340
2020/01/31 02:15:30.8	93.700	0.080	0.010	0.420
2020/01/31 02:15:30.9	93.670	0.050	0.120	0.510
2020/01/31 02:15:31.0	93.640	0.010	0.220	0.600
2020/01/31 02:15:31.1	93.620	-0.030	0.320	0.680
2020/01/31 02:15:31.2	93.590	-0.060	0.420	0.770
2020/01/31 02:15:31.3	93.560	-0.100	0.510	0.850
2020/01/31 02:15:31.4	93.530	-0.140	0.590	0.930
2020/01/31 02:15:31.5	93.490	-0.170	0.660	1.010
2020/01/31 02:15:31.6	93.460	-0.210	0.720	1.090
2020/01/31 02:15:31.7	93.430	-0.240	0.780	1.160
2020/01/31 02:15:31.8	93.400	-0.270	0.830	1.220
2020/01/31 02:15:31.9	93.370	-0.300	0.860	1.280
2020/01/31 02:15:32.0	93.340	-0.320	0.890	1.340
2020/01/31 02:15:32.1	93.310	-0.340	0.900	1.390
2020/01/31 02:15:32.2	93.290	-0.360	0.910	1.430
2020/01/31 02:15:32.3	93.270	-0.370	0.900	1.460
2020/01/31 02:15:32.4	93.260	-0.380	0.880	1.490
2020/01/31 02:15:32.5	93.240	-0.390	0.850	1.510
2020/01/31 02:15:32.6	93.240	-0.390	0.810	1.520
2020/01/31 02:15:32.7	93.230	-0.390	0.760	1.520
2020/01/31 02:15:32.8	93.230	-0.380	0.700	1.510
2020/01/31 02:15:32.9	93.230	-0.370	0.630	1.500
2020/01/31 02:15:33.0	93.230	-0.360	0.550	1.480
2020/01/31 02:15:33.1	93.240	-0.340	0.460	1.450
2020/01/31 02:15:33.2	93.260	-0.320	0.360	1.420
2020/01/31 02:15:33.3	93.270	-0.290	0.260	1.390
2020/01/31 02:15:33.4	93.290	-0.260	0.160	1.350
2020/01/31 02:15:33.5	93.310	-0.230	0.040	1.300
2020/01/31 02:15:33.6	93.330	-0.190	-0.070	1.260
2020/01/31 02:15:33.7	93.350	-0.150	-0.190	1.210
2020/01/31 02:15:33.8	93.380	-0.110	-0.310	1.150
2020/01/31 02:15:33.9	93.410	-0.060	-0.430	1.100
2020/01/31 02:15:34.0	93.440	-0.020	-0.550	1.050
2020/01/31 02:15:34.1	93.470	0.030	-0.670	1.000
2020/01/31 02:15:34.2	93.500	0.080	-0.780	0.940
2020/01/31 02:15:34.3	93.530	0.130	-0.890	0.890
2020/01/31 02:15:34.4	93.570	0.170	-1.000	0.830
2020/01/31 02:15:34.5	93.600	0.220	-1.100	0.780
2020/01/31 02:15:34.6	93.640	0.270	-1.190	0.730
2020/01/31 02:15:34.7	93.670	0.320	-1.270	0.680
2020/01/31 02:15:34.8	93.700	0.360	-1.350	0.630
2020/01/31 02:15:34.9	93.730	0.410	-1.410	0.590
2020/01/31 02:15:35.0	93.760	0.450	-1.470	0.550
2020/01/31 02:15:35.1	93.780	0.490	-1.520	0.510
2020/01/31 02:15:35.2	93.810	0.520	-1.550	0.470
2020/01/31 02:15:35.3	93.830	0.550	-1.570	0.440
2020/01/31 02:15:35.4	93.850	0.580	-1.580	0.410
2020/01/31 02:15:35.5	93.860	0.610	-1.580	0.380
2020/01/31 02:15:35.6	93.880	0.630	-1.560	0.360
2020/01/31 02:15:35.7	93.890	0.640	-1.530	0.340
2020/01/31 02:15:35.8	93.890	0.650	-1.490	0.320
2020/01/31 02:15:35.9	93.890	0.660	-1.440	0.300
2020/01/31 02:15:36.0	93.890	0.660	-1.370	0.280
2020/01/31 02:15:36.1	93.880	0.660	-1.300	0.270
2020/01/31 02:15:36.2	93.880	0.650	-1.210	0.260
2020/01/31 02:15:36.3	93.870	0.640	-1.110	0.250
2020/01/31 02:15:36.4	93.850	0.620	-1.010	0.240
2020/01/31 02:15:36.5	93.840	0.590	-0.900	0.240
2020/01/31 02:15:36.6	93.820	0.570	-0.780	0.240
2020/01/31 02:15:36.7	93.800	0.540	-0.650	0.230
2020/01/31 02:15:36.8	93.780	0.500	-0.520	0.240
2020/01/31 02:15:36.9	93.760	0.460	-0.390	0.240
2020/01/31 02:15:37.0	93.730	0.420	-0.250	0.240
2020/01/31 02:15:37.1	93.710	0.380	-0.110	0.250
2020/01/31 02:15:37.2	93.680	0.330	0.020	0.260
2020/01/31 02:15:37.3	93.650	0.280	0.160	0.270
2020/01/31 02:15:37.4	93.620	0.230	0.290	0.280
2020/01/31 02:15:37.5	93.590	0.180	0.420	0.300
2020/01/31 02:15:37.6	93.570	0.130	0.550	0.310
2020/01/31 02:15:37.7	93.540	0.080	0.670	0.330
2020/01/31 02:15:37.8	93.510	0.020	0.790	0.350
2020/01/31 02:15:37.9	93.480	-0.030	0.890	0.360
2020/01/31 02:15:38.0	93.450	-0.080	0.990	0.380
2020/01/31 02:15:38.1	93.420	-0.130	1.080	0.400
2020/01/31 02:15:38.2	93.390	-0.180	1.160	0.420
2020/01/31 02:15:38.3	93.370	-0.220	1.220	0.440
2020/01/31 02:15:38.4	93.340	-0.270	1.280	0.460
2020/01/31 02:15:38.5	93.320	-0.310	1.330	0.480
2020/01/31 02:15:38.6	93.290	-0.350	1.360	0.490
2020/01/31 02:15:38.7	93.270	-0.380	1.380	0.510
2020/01/31 02:15:38.8	93.250	-0.410	1.390	0.530
2020/01/31 02:15:38.9	93.230	-0.440	1.390	0.540
2020/01/31 02:15:39.0	93.210	-0.460	1.370	0.550
2020/01/31 02:15:39.1	93.180	-0.480	1.340	0.570
2020/01/31 02:15:39.2	93.160	-0.490	1.300	0.580
2020/01/31 02:15:39.3	93.150	-0.500	1.250	0.590
2020/01/31 02:15:39.4	93.130	-0.500	1.190	0.600
2020/01/31 02:15:39.5	93.120	-0.500	1.120	0.600
2020/01/31 02:15:39.6	93.100	-0.500	1.040	0.600
2020/01/31 02:15:39.7	93.090	-0.490	0.950	0.600
2020/01/31 02:15:39.8	93.080	-0.480	0.850	0.590
2020/01/31 02:15:39.9	93.070	-0.460	0.750	0.590
2020/01/31 02:15:40.0	93.060	-0.440	0.640	0.570
2020/01/31 02:15:40.1	93.050	-0.420	0.520	0.560
2020/01/31 02:15:40.2	93.040	-0.390	0.400	0.540
2020/01/31 02:15:40.3	93.030	-0.370	0.280	0.520
2020/01/31 02:15:40.4	93.030	-0.340	0.160	0.500
2020/01/31 02:15:40.5	93.030	-0.300	0.040	0.470
2020/01/31 02:15:40.6	93.020	-0.270	-0.080	0.440
2020/01/31 02:15:40.7	93.020	-0.230	-0.190	0.410
2020/01/31 02:15:40.8	93.020	-0.200	-0.300	0.380
2020/01/31 02:15:40.9	93.020	-0.160	-0.410	0.350
2020/01/31 02:15:41.0	93.020	-0.130	-0.510	0.330
2020/01/31 02:15:41.1	93.020	-0.090	-0.610	0.300
2020/01/31 02:15:41.2	93.020	-0.050	-0.700	0.280
2020/01/31 02:15:41.3	93.020	-0.020	-0.780	0.260
2020/01/31 02:15:41.4	93.020	0.020	-0.860	0.240
2020/01/31 02:15:41.5	93.030	0.050	-0.920	0.220
2020/01/31 02:15:41.6	93.030	0.080	-0.980	0.210
2020/01/31 02:15:41.7	93.030	0.110	-1.030	0.190
2020/01/31 02:15:41.8	93.030	0.130	-1.070	0.190
2020/01/31 02:15:41.9	93.030	0.160	-1.110	0.180
2020/01/31 02:15:42.0	93.040	0.180	-1.130	0.180
2020/01/31 02:15:42.1	93.040	0.200	-1.150	0.190
2020/01/31 02:15:42.2	93.040	0.220	-1.160	0.200
2020/01/31 02:15:42.3	93.040	0.230	-1.160	0.210
2020/01/31 02:15:42.4	93.050	0.250	-1.160	0.220
2020/01/31 02:15:42.5	93.050	0.260	-1.150	0.240
2020/01/31 02:15:42.6	93.050	0.270	-1.130	0.250
2020/01/31 02:15:42.7	93.050	0.270	-1.110	0.280
2020/01/31 02:15:42.8	93.050	0.280	-1.080	0.300
2020/01/31 02:15:42.9	93.050	0.280	-1.050	0.320
2020/01/31 02:15:43.0	93.050	0.280	-1.020	0.350
2020/01/31 02:15:43.1	93.050	0.280	-0.980	0.380
2020/01/31 02:15:43.2	93.050	0.280	-0.940	0.410
2020/01/31 02:15:43.3	93.050	0.280	-0.900	0.440
2020/01/31 02:15:43.4	93.040	0.280	-0.850	0.480
2020/01/31 02:15:43.5	93.040	0.270	-0.810	0.510
2020/01/31 02:15:43.6	93.040	0.270	-0.760	0.540
2020/01/31 02:15:43.7	93.030	0.260	-0.710	0.580
2020/01/31 02:15:43.8	93.030	0.260	-0.660	0.620
2020/01/31 02:15:43.9	93.020	0.250	-0.610	0.660
2020/01/31 02:15:44.0	93.010	0.250	-0.560	0.700
2020/01/31 02:15:44.1	93.010	0.240	-0.510	0.750
2020/01/31 02:15:44.2	93.000	0.230	-0.470	0.790
2020/01/31 02:15:44.3	92.990	0.220	-0.420	0.840
2020/01/31 02:15:44.4	92.980	0.210	-0.370	0.890
2020/01/31 02:15:44.5	92.960	0.210	-0.330	0.940
2020/01/31 02:15:44.6	92.940	0.190	-0.290	1.000
2020/01/31 02:15:44.7	92.920	0.180	-0.240	1.050
2020/01/31 02:15:44.8	92.900	0.170	-0.200	1.110
2020/01/31 02:15:44.9	92.870	0.160	-0.160	1.170
2020/01/31 02:15:45.0	92.850	0.140	-0.120	1.240
2020/01/31 02:15:45.1	92.820	0.130	-0.080	1.300
2020/01/31 02:15:45.2	92.790	0.110	-0.040	1.370
2020/01/31 02:15:45.3	92.760	0.090	-0.000	1.440
2020/01/31 02:15:45.4	92.730	0.070	0.040	1.510
2020/01/31 02:15:45.5	92.700	0.040	0.080	1.580
2020/01/31 02:15:45.6	92.670	0.020	0.120	1.650
2020/01/31 02:15:45.7	92.630	-0.010	0.160	1.720
2020/01/31 02:15:45.8	92.600	-0.040	0.200	1.790
2020/01/31 02:15:45.9	92.570	-0.070	0.230	1.860
2020/01/31 02:15:46.0	92.530	-0.100	0.270	1.920
2020/01/31 02:15:46.1	92.510	-0.140	0.310	2.000
2020/01/31 02:15:46.2	92.480	-0.170	0.350	2.060
2020/01/31 02:15:46.3	92.450	-0.210	0.380	2.110
2020/01/31 02:15:46.4	92.420	-0.240	0.410	2.170
2020/01/31 02:15:46.5	92.400	-0.280	0.440	2.210
2020/01/31 02:15:46.6	92.380	-0.320	0.470	2.260
2020/01/31 02:15:46.7	92.350	-0.360	0.500	2.290
2020/01/31 02:15:46.8	92.330	-0.400	0.520	2.330
2020/01/31 02:15:46.9	92.320	-0.430	0.530	2.350
2020/01/31 02:15:47.0	92.300	-0.470	0.550	2.370
2020/01/31 02:15:47.1	92.290	-0.500	0.560	2.380
2020/01/31 02:15:47.2	92.280	-0.540	0.570	2.390
2020/01/31 02:15:47.3	92.280	-0.570	0.570	2.390
2020/01/31 02:15:47.4	92.270	-0.600	0.560	2.390
2020/01/31 02:15:47.5	92.270	-0.620	0.550	2.380
2020/01/31 02:15:47.6	92.270	-0.650	0.540	2.360
2020/01/31 02:15:47.7	92.280	-0.660	0.520	2.340
2020/01/31 02:15:47.8	92.280	-0.680	0.500	2.320
2020/01/31 02:15:47.9	92.290	-0.690	0.470	2.280
2020/01/31 02:15:48.0	92.310	-0.700	0.440	2.250
2020/01/31 02:15:48.1	92.320	-0.700	0.400	2.210
2020/01/31 02:15:48.2	92.330	-0.700	0.350	2.170
2020/01/31 02:15:48.3	92.350	-0.690	0.300	2.130
2020/01/31 02:15:48.4	92.370	-0.680	0.250	2.080
2020/01/31 02:15:48.5	92.390	-0.660	0.200	2.030
2020/01/31 02:15:48.6	92.420	-0.630	0.140	1.980
2020/01/31 02:15:48.7	92.440	-0.610	0.080	1.930
2020/01/31 02:15:48.8	92.460	-0.570	0.010	1.880
2020/01/31 02:15:48.9	92.490	-0.530	-0.060	1.830
2020/01/31 02:15:49.0	92.510	-0.490	-0.130	1.770
2020/01/31 02:15:49.1	92.540	-0.440	-0.200	1.720
2020/01/31 02:15:49.2	92.570	-0.390	-0.270	1.660
2020/01/31 02:15:49.3	92.590	-0.340	-0.340	1.610
2020/01/31 02:15:49.4	92.620	-0.280	-0.410	1.550
2020/01/31 02:15:49.5	92.640	-0.230	-0.470	1.490
2020/01/31 02:15:49.6	92.670	-0.160	-0.540	1.430
2020/01/31 02:15:49.7	92.690	-0.100	-0.600	1.370
2020/01/31 02:15:49.8	92.720	-0.040	-0.660	1.310
2020/01/31 02:15:49.9	92.740	0.020	-0.720	1.250
2020/01/31 02:15:50.0	92.770	0.090	-0.770	1.190
2020/01/31 02:15:50.1	92.790	0.150	-0.820	1.140
2020/01/31 02:15:50.2	92.810	0.210	-0.860	1.080
2020/01/31 02:15:50.3	92.830	0.270	-0.900	1.020
2020/01/31 02:15:50.4	92.850	0.330	-0.930	0.970
2020/01/31 02:15:50.5	92.870	0.380	-0.950	0.910
2020/01/31 02:15:50.6	92.890	0.440	-0.970	0.860
2020/01/31 02:15:50.7	92.900	0.490	-0.980	0.810
2020/01/31 02:15:50.8	92.920	0.530	-0.980	0.760
2020/01/31 02:15:50.9	92.930	0.570	-0.970	0.720
2020/01/31 02:15:51.0	92.940	0.610	-0.960	0.670
2020/01/31 02:15:51.1	92.970	0.640	-0.940	0.630
2020/01/31 02:15:51.2	92.980	0.670	-0.920	0.590
2020/01/31 02:15:51.3	92.990	0.700	-0.890	0.560
2020/01/31 02:15:51.4	93.000	0.720	-0.860	0.520
2020/01/31 02:15:51.5	93.000	0.730	-0.820	0.490
2020/01/31 02:15:51.6	93.010	0.750	-0.770	0.460
2020/01/31 02:15:51.7	93.020	0.750	-0.720	0.430
2020/01/31 02:15:51.8	93.020	0.760	-0.670	0.410
2020/01/31 02:15:51.9	93.030	0.760	-0.610	0.380
2020/01/31 02:15:52.0	93.030	0.750	-0.550	0.360
2020/01/31 02:15:52.1	93.040	0.740	-0.490	0.350
2020/01/31 02:15:52.2	93.040	0.730	-0.430	0.330
2020/01/31 02:15:52.3	93.040	0.710	-0.360	0.310
2020/01/31 02:15:52.4	93.050	0.700	-0.300	0.300
2020/01/31 02:15:52.5	93.050	0.670	-0.230	0.290
2020/01/31 02:15:52.6	93.050	0.650	-0.160	0.270
2020/01/31 02:15:52.7	93.060	0.630	-0.090	0.260
2020/01/31 02:15:52.8	93.060	0.600	-0.030	0.250
2020/01/31 02:15:52.9	93.070	0.570	0.040	0.250
2020/01/31 02:15:53.0	93.070	0.540	0.100	0.240
2020/01/31 02:15:53.1	93.060	0.510	0.160	0.230
2020/01/31 02:15:53.2	93.070	0.480	0.210	0.230
2020/01/31 02:15:53.3	93.070	0.450	0.260	0.230
2020/01/31 02:15:53.4	93.080	0.420	0.310	0.230
2020/01/31 02:15:53.5	93.080	0.380	0.350	0.230
2020/01/31 02:15:53.6	93.090	0.350	0.390	0.230
2020/01/31 02:15:53.7	93.090	0.320	0.410	0.230
2020/01/31 02:15:53.8	93.100	0.290	0.440	0.240
2020/01/31 02:15:53.9	93.110	0.260	0.450	0.240
2020/01/31 02:15:54.0	93.120	0.240	0.460	0.240
2020/01/31 02:15:54.1	93.130	0.210	0.460	0.250
2020/01/31 02:15:54.2	93.140	0.180	0.460	0.250
2020/01/31 02:15:54.3	93.160	0.160	0.450	0.250
2020/01/31 02:15:54.4	93.180	0.140	0.430	0.250
2020/01/31 02:15:54.5	93.200	0.120	0.410	0.250
2020/01/31 02:15:54.6	93.220	0.090	0.380	0.250
2020/01/31 02:15:54.7	93.250	0.080	0.350	0.240
2020/01/31 02:15:54.8	93.280	0.060	0.310	0.240
2020/01/31 02:15:54.9	93.310	0.040	0.260	0.230
2020/01/31 02:15:55.0	93.340	0.030	0.210	0.230
2020/01/31 02:15:55.1	93.380	0.010	0.160	0.230
2020/01/31 02:15:55.2	93.420	-0.000	0.100	0.220
2020/01/31 02:15:55.3	93.460	-0.010	0.040	0.220
2020/01/31 02:15:55.4	93.500	-0.020	-0.020	0.210
2020/01/31 02:15:55.5	93.540	-0.030	-0.080	0.210
2020/01/31 02:15:55.6	93.580	-0.040	-0.140	0.210
2020/01/31 02:15:55.7	93.620	-0.050	-0.200	0.220
2020/01/31 02:15:55.8	93.660	-0.060	-0.260	0.230
2020/01/31 02:15:55.9	93.700	-0.060	-0.320	0.240
2020/01/31 02:15:56.0	93.740	-0.070	-0.370	0.260
2020/01/31 02:15:56.1	93.780	-0.080	-0.430	0.280
2020/01/31 02:15:56.2	93.810	-0.090	-0.480	0.310
2020/01/31 02:15:56.3	93.840	-0.090	-0.520	0.340
2020/01/31 02:15:56.4	93.870	-0.100	-0.560	0.370
2020/01/31 02:15:56.5	93.890	-0.110	-0.590	0.410
2020/01/31 02:15:56.6	93.910	-0.120	-0.610	0.460
2020/01/31 02:15:56.7	93.930	-0.130	-0.630	0.510
2020/01/31 02:15:56.8	93.940	-0.150	-0.640	0.560
2020/01/31 02:15:56.9	93.950	-0.160	-0.640	0.610
2020/01/31 02:15:57.0	93.960	-0.180	-0.630	0.660
2020/01/31 02:15:57.1	93.960	-0.190	-0.610	0.730
2020/01/31 02:15:57.2	93.970	-0.210	-0.590	0.790
2020/01/31 02:15:57.3	93.970	-0.230	-0.560	0.840
2020/01/31 02:15:57.4	93.970	-0.250	-0.520	0.900
2020/01/31 02:15:57.5	93.970	-0.280	-0.480	0.960
2020/01/31 02:15:57.6	93.960	-0.300	-0.430	1.010
2020/01/31 02:15:57.7	93.960	-0.330	-0.380	1.070
2020/01/31 02:15:57.8	93.950	-0.350	-0.320	1.120
2020/01/31 02:15:57.9	93.940	-0.380	-0.260	1.170
2020/01/31 02:15:58.0	93.940	-0.400	-0.200	1.220
2020/01/31 02:15:58.1	93.920	-0.430	-0.130	1.280
2020/01/31 02:15:58.2	93.920	-0.460	-0.070	1.320
2020/01/31 02:15:58.3	93.910	-0.480	-0.010	1.360
2020/01/31 02:15:58.4	93.910	-0.510	0.060	1.400
2020/01/31 02:15:58.5	93.910	-0.530	0.120	1.430
2020/01/31 02:15:58.6	93.910	-0.550	0.180	1.460
2020/01/31 02:15:58.7	93.910	-0.570	0.230	1.490
2020/01/31 02:15:58.8	93.910	-0.590	0.280	1.510
2020/01/31 02:15:58.9	93.920	-0.600	0.330	1.530
2020/01/31 02:15:59.0	93.930	-0.610	0.370	1.540
2020/01/31 02:15:59.1	93.950	-0.620	0.400	1.550
2020/01/31 02:15:59.2	93.960	-0.630	0.430	1.560
2020/01/31 02:15:59.3	93.970	-0.630	0.450	1.560
2020/01/31 02:15:59.4	93.990	-0.630	0.470	1.550
2020/01/31 02:15:59.5	94.000	-0.620	0.470	1.550
2020/01/31 02:15:59.6	94.020	-0.620	0.470	1.530
2020/01/31 02:15:59.7	94.040	-0.600	0.460	1.520
2020/01/31 02:15:59.8	94.060	-0.590	0.450	1.490
2020/01/31 02:15:59.9	94.090	-0.570	0.430	1.470
2020/01/31 02:16:00.0	94.110	-0.540	0.400	1.440
2020/01/31 02:16:00.1	94.130	-0.510	0.360	1.400
2020/01/31 02:16:00.2	94.160	-0.480	0.320	1.370
2020/01/31 02:16:00.3	94.190	-0.440	0.270	1.320
2020/01/31 02:16:00.4	94.220	-0.410	0.220	1.270
2020/01/31 02:16:00.5	94.240	-0.360	0.160	1.220
2020/01/31 02:16:00.6	94.270	-0.320	0.100	1.170
2020/01/31 02:16:00.7	94.310	-0.270	0.040	1.110
2020/01/31 02:16:00.8	94.340	-0.220	-0.030	1.050
2020/01/31 02:16:00.9	94.370	-0.170	-0.100	0.980
2020/01/31 02:16:01.0	94.400	-0.120	-0.170	0.920
2020/01/31 02:16:01.1	94.430	-0.070	-0.240	0.850
2020/01/31 02:16:01.2	94.460	-0.020	-0.310	0.770
2020/01/31 02:16:01.3	94.490	0.040	-0.370	0.700
2020/01/31 02:16:01.4	94.520	0.090	-0.440	0.630
2020/01/31 02:16:01.5	94.540	0.140	-0.500	0.560
2020/01/31 02:16:01.6	94.570	0.190	-0.560	0.480
2020/01/31 02:16:01.7	94.590	0.240	-0.610	0.410
2020/01/31 02:16:01.8	94.610	0.280	-0.660	0.340
2020/01/31 02:16:01.9	94.630	0.320	-0.700	0.270
2020/01/31 02:16:02.0	94.650	0.360	-0.740	0.210
2020/01/31 02:16:02.1	94.660	0.400	-0.770	0.150
2020/01/31 02:16:02.2	94.670	0.430	-0.790	0.090
2020/01/31 02:16:02.3	94.680	0.460	-0.810	0.030
2020/01/31 02:16:02.4	94.680	0.480	-0.820	-0.020
2020/01/31 02:16:02.5	94.680	0.500	-0.820	-0.070
2020/01/31 02:16:02.6	94.680	0.510	-0.810	-0.110
2020/01/31 02:16:02.7	94.670	0.520	-0.800	-0.150
2020/01/31 02:16:02.8	94.670	0.520	-0.790	-0.180
2020/01/31 02:16:02.9	94.650	0.520	-0.760	-0.210
2020/01/31 02:16:03.0	94.640	0.510	-0.730	-0.230
2020/01/31 02:16:03.1	94.620	0.500	-0.700	-0.240
2020/01/31 02:16:03.2	94.600	0.480	-0.660	-0.250
2020/01/31 02:16:03.3	94.580	0.460	-0.610	-0.260
2020/01/31 02:16:03.4	94.550	0.430	-0.570	-0.260
2020/01/31 02:16:03.5	94.520	0.400	-0.510	-0.260
2020/01/31 02:16:03.6	94.500	0.360	-0.460	-0.250
2020/01/31 02:16:03.7	94.470	0.330	-0.400	-0.240
2020/01/31 02:16:03.8	94.430	0.290	-0.350	-0.230
2020/01/31 02:16:03.9	94.400	0.240	-0.290	-0.210
2020/01/31 02:16:04.0	94.370	0.200	-0.230	-0.200
2020/01/31 02:16:04.1	94.340	0.150	-0.170	-0.180
2020/01/31 02:16:04.2	94.300	0.110	-0.110	-0.160
2020/01/31 02:16:04.3	94.270	0.060	-0.050	-0.150
2020/01/31 02:16:04.4	94.240	0.010	0.000	-0.130
2020/01/31 02:16:04.5	94.200	-0.040	0.060	-0.120
2020/01/31 02:16:04.6	94.170	-0.080	0.110	-0.100
2020/01/31 02:16:04.7	94.140	-0.130	0.150	-0.090
2020/01/31 02:16:04.8	94.110	-0.170	0.200	-0.080
2020/01/31 02:16:04.9	94.080	-0.210	0.230	-0.070
2020/01/31 02:16:05.0	94.050	-0.250	0.270	-0.060
2020/01/31 02:16:05.1	94.030	-0.280	0.300	-0.060
2020/01/31 02:16:05.2	94.000	-0.310	0.320	-0.050
2020/01/31 02:16:05.3	93.970	-0.340	0.340	-0.050
2020/01/31 02:16:05.4	93.950	-0.360	0.360	-0.050
2020/01/31 02:16:05.5	93.930	-0.380	0.360	-0.050
2020/01/31 02:16:05.6	93.910	-0.390	0.370	-0.050
2020/01/31 02:16:05.7	93.880	-0.400	0.360	-0.050
2020/01/31 02:16:05.8	93.870	-0.410	0.360	-0.050
2020/01/31 02:16:05.9	93.850	-0.410	0.340	-0.060
2020/01/31 02:16:06.0	93.830	-0.400	0.320	-0.060
2020/01/31 02:16:06.1	93.820	-0.400	0.290	-0.060
2020/01/31 02:16:06.2	93.810	-0.380	0.260	-0.060
2020/01/31 02:16:06.3	93.800	-0.360	0.220	-0.060
2020/01/31 02:16:06.4	93.780	-0.340	0.180	-0.070
2020/01/31 02:16:06.5	93.770	-0.310	0.130	-0.070
2020/01/31 02:16:06.6	93.760	-0.280	0.080	-0.070
2020/01/31 02:16:06.7	93.750	-0.250	0.020	-0.070
2020/01/31 02:16:06.8	93.740	-0.210	-0.040	-0.070
2020/01/31 02:16:06.9	93.730	-0.160	-0.110	-0.060
2020/01/31 02:16:07.0	93.730	-0.120	-0.180	-0.060
2020/01/31 02:16:07.1	93.730	-0.070	-0.240	-0.050
2020/01/31 02:16:07.2	93.720	-0.020	-0.310	-0.050
2020/01/31 02:16:07.3	93.720	0.030	-0.390	-0.040
2020/01/31 02:16:07.4	93.720	0.080	-0.460	-0.040
2020/01/31 02:16:07.5	93.720	0.130	-0.530	-0.030
2020/01/31 02:16:07.6	93.720	0.180	-0.590	-0.020
2020/01/31 02:16:07.7	93.720	0.230	-0.660	-0.010
2020/01/31 02:16:07.8	93.720	0.280	-0.710	-0.000
2020/01/31 02:16:07.9	93.720	0.330	-0.770	0.010
2020/01/31 02:16:08.0	93.720	0.380	-0.820	0.020
2020/01/31 02:16:08.1	93.730	0.420	-0.860	0.040
2020/01/31 02:16:08.2	93.730	0.460	-0.900	0.050
2020/01/31 02:16:08.3	93.740	0.490	-0.920	0.070
2020/01/31 02:16:08.4	93.740	0.530	-0.940	0.090
2020/01/31 02:16:08.5	93.740	0.550	-0.950	0.120
2020/01/31 02:16:08.6	93.740	0.580	-0.950	0.140
2020/01/31 02:16:08.7	93.740	0.600	-0.940	0.170
2020/01/31 02:16:08.8	93.740	0.610	-0.920	0.200
2020/01/31 02:16:08.9	93.740	0.620	-0.890	0.240
2020/01/31 02:16:09.0	93.740	0.620	-0.860	0.270
2020/01/31 02:16:09.1	93.760	0.620	-0.810	0.320
2020/01/31 02:16:09.2	93.750	0.620	-0.750	0.360
2020/01/31 02:16:09.3	93.750	0.610	-0.690	0.400
2020/01/31 02:16:09.4	93.750	0.590	-0.620	0.450
2020/01/31 02:16:09.5	93.740	0.570	-0.550	0.500
2020/01/31 02:16:09.6	93.740	0.550	-0.470	0.560
2020/01/31 02:16:09.7	93.730	0.520	-0.380	0.610
2020/01/31 02:16:09.8	93.730	0.490	-0.290	0.670
2020/01/31 02:16:09.9	93.720	0.450	-0.200	0.730
2020/01/31 02:16:10.0	93.720	0.410	-0.100	0.790
2020/01/31 02:16:10.1	93.700	0.370	-0.010	0.850
2020/01/31 02:16:10.2	93.690	0.330	0.080	0.910
2020/01/31 02:16:10.3	93.680	0.290	0.180	0.980
2020/01/31 02:16:10.4	93.670	0.240	0.260	1.040
2020/01/31 02:16:10.5	93.660	0.200	0.350	1.110
2020/01/31 02:16:10.6	93.650	0.150	0.430	1.180
2020/01/31 02:16:10.7	93.630	0.110	0.500	1.240
2020/01/31 02:16:10.8	93.620	0.060	0.570	1.310
2020/01/31 02:16:10.9	93.610	0.020	0.630	1.380
2020/01/31 02:16:11.0	93.590	-0.020	0.680	1.450
2020/01/31 02:16:11.1	93.580	-0.060	0.730	1.510
2020/01/31 02:16:11.2	93.560	-0.090	0.760	1.580
2020/01/31 02:16:11.3	93.550	-0.120	0.780	1.640
2020/01/31 02:16:11.4	93.540	-0.150	0.800	1.700
2020/01/31 02:16:11.5	93.530	-0.180	0.800	1.750
2020/01/31 02:16:11.6	93.520	-0.200	0.800	1.810
2020/01/31 02:16:11.7	93.500	-0.220	0.780	1.860
2020/01/31 02:16:11.8	93.490	-0.240	0.760	1.910
2020/01/31 02:16:11.9	93.490	-0.250	0.720	1.950
2020/01/31 02:16:12.0	93.480	-0.260	0.680	1.990
2020/01/31 02:16:12.1	93.490	-0.260	0.630	2.030
2020/01/31 02:16:12.2	93.480	-0.270	0.570	2.060
2020/01/31 02:16:12.3	93.470	-0.270	0.510	2.090
2020/01/31 02:16:12.4	93.470	-0.260	0.440	2.120
2020/01/31 02:16:12.5	93.460	-0.260	0.370	2.140
2020/01/31 02:16:12.6	93.460	-0.250	0.300	2.160
2020/01/31 02:16:12.7	93.460	-0.240	0.220	2.180
2020/01/31 02:16:12.8	93.450	-0.230	0.140	2.190
2020/01/31 02:16:12.9	93.450	-0.220	0.060	2.210
2020/01/31 02:16:13.0	93.450	-0.210	-0.020	2.220
2020/01/31 02:16:13.1	93.450	-0.190	-0.100	2.220
2020/01/31 02:16:13.2	93.450	-0.180	-0.180	2.230
2020/01/31 02:16:13.3	93.450	-0.170	-0.250	2.240
2020/01/31 02:16:13.4	93.450	-0.150	-0.320	2.240
2020/01/31 02:16:13.5	93.450	-0.140	-0.390	2.240
2020/01/31 02:16:13.6	93.450	-0.130	-0.450	2.240
2020/01/31 02:16:13.7	93.460	-0.120	-0.510	2.240
2020/01/31 02:16:13.8	93.460	-0.110	-0.560	2.240
2020/01/31 02:16:13.9	93.470	-0.100	-0.600	2.230
2020/01/31 02:16:14.0	93.470	-0.090	-0.640	2.230
2020/01/31 02:16:14.1	93.480	-0.090	-0.680	2.220
2020/01/31 02:16:14.2	93.490	-0.080	-0.700	2.210
2020/01/31 02:16:14.3	93.490	-0.080	-0.720	2.200
2020/01/31 02:16:14.4	93.500	-0.080	-0.730	2.190
2020/01/31 02:16:14.5	93.510	-0.080	-0.730	2.170
2020/01/31 02:16:14.6	93.520	-0.080	-0.730	2.160
2020/01/31 02:16:14.7	93.530	-0.080	-0.720	2.140
2020/01/31 02:16:14.8	93.540	-0.080	-0.710	2.110
2020/01/31 02:16:14.9	93.550	-0.090	-0.690	2.090
2020/01/31 02:16:15.0	93.550	-0.090	-0.660	2.060
2020/01/31 02:16:15.1	93.560	-0.100	-0.630	2.030
2020/01/31 02:16:15.2	93.570	-0.100	-0.590	2.000
2020/01/31 02:16:15.3	93.580	-0.110	-0.550	1.970
2020/01/31 02:16:15.4	93.590	-0.120	-0.510	1.930
2020/01/31 02:16:15.5	93.600	-0.120	-0.460	1.890
2020/01/31 02:16:15.6	93.600	-0.130	-0.420	1.850
2020/01/31 02:16:15.7	93.610	-0.140	-0.370	1.810
2020/01/31 02:16:15.8	93.620	-0.140	-0.320	1.760
2020/01/31 02:16:15.9	93.630	-0.140	-0.280	1.720
2020/01/31 02:16:16.0	93.640	-0.150	-0.230	1.670
2020/01/31 02:16:16.1	93.640	-0.150	-0.190	1.630
2020/01/31 02:16:16.2	93.650	-0.140	-0.150	1.570
2020/01/31 02:16:16.3	93.660	-0.140	-0.120	1.520
2020/01/31 02:16:16.4	93.660	-0.140	-0.090	1.470
2020/01/31 02:16:16.5	93.670	-0.130	-0.060	1.410
2020/01/31 02:16:16.6	93.670	-0.120	-0.040	1.360
2020/01/31 02:16:16.7	93.670	-0.110	-0.020	1.300
2020/01/31 02:16:16.8	93.680	-0.090	-0.010	1.250
2020/01/31 02:16:16.9	93.680	-0.080	-0.010	1.190
2020/01/31 02:16:17.0	93.680	-0.060	-0.010	1.140
2020/01/31 02:16:17.1	93.680	-0.040	-0.010	1.080
2020/01/31 02:16:17.2	93.680	-0.020	-0.030	1.020
2020/01/31 02:16:17.3	93.680	0.010	-0.050	0.970
2020/01/31 02:16:17.4	93.690	0.030	-0.070	0.910
2020/01/31 02:16:17.5	93.700	0.050	-0.100	0.860
2020/01/31 02:16:17.6	93.710	0.080	-0.130	0.800
2020/01/31 02:16:17.7	93.720	0.110	-0.170	0.740
2020/01/31 02:16:17.8	93.730	0.130	-0.210	0.690
2020/01/31 02:16:17.9	93.740	0.150	-0.250	0.640
2020/01/31 02:16:18.0	93.750	0.180	-0.290	0.580
2020/01/31 02:16:18.1	93.780	0.200	-0.330	0.540
2020/01/31 02:16:18.2	93.790	0.220	-0.370	0.490
2020/01/31 02:16:18.3	93.810	0.240	-0.410	0.440
2020/01/31 02:16:18.4	93.830	0.250	-0.440	0.390
2020/01/31 02:16:18.5	93.850	0.270	-0.470	0.340
2020/01/31 02:16:18.6	93.860	0.280	-0.500	0.300
2020/01/31 02:16:18.7	93.880	0.280	-0.520	0.260
2020/01/31 02:16:18.8	93.900	0.280	-0.530	0.210
2020/01/31 02:16:18.9	93.920	0.280	-0.540	0.170
2020/01/31 02:16:19.0	93.940	0.280	-0.550	0.130
2020/01/31 02:16:19.1	93.960	0.270	-0.540	0.080
2020/01/31 02:16:19.2	93.980	0.260	-0.530	0.040
2020/01/31 02:16:19.3	94.000	0.240	-0.520	0.000
2020/01/31 02:16:19.4	94.020	0.220	-0.500	-0.040
2020/01/31 02:16:19.5	94.030	0.200	-0.470	-0.070
2020/01/31 02:16:19.6	94.050	0.170	-0.430	-0.110
2020/01/31 02:16:19.7	94.070	0.140	-0.390	-0.150
2020/01/31 02:16:19.8	94.080	0.110	-0.350	-0.180
2020/01/31 02:16:19.9	94.100	0.080	-0.300	-0.210
2020/01/31 02:16:20.0	94.110	0.040	-0.240	-0.240
2020/01/31 02:16:20.1	94.120	0.010	-0.190	-0.260
2020/01/31 02:16:20.2	94.130	-0.030	-0.130	-0.280
2020/01/31 02:16:20.3	94.140	-0.070	-0.070	-0.300
2020/01/31 02:16:20.4	94.150	-0.110	-0.000	-0.320
2020/01/31 02:16:20.5	94.150	-0.150	0.060	-0.340
2020/01/31 02:16:20.6	94.160	-0.190	0.120	-0.350
2020/01/31 02:16:20.7	94.160	-0.220	0.180	-0.360
2020/01/31 02:16:20.8	94.170	-0.260	0.240	-0.370
2020/01/31 02:16:20.9	94.170	-0.290	0.290	-0.370
2020/01/31 02:16:21.0	94.170	-0.320	0.340	-0.370
2020/01/31 02:16:21.1	94.180	-0.350	0.390	-0.370
2020/01/31 02:16:21.2	94.180	-0.380	0.430	-0.360
2020/01/31 02:16:21.3	94.180	-0.400	0.470	-0.360
2020/01/31 02:16:21.4	94.180	-0.420	0.500	-0.350
2020/01/31 02:16:21.5	94.180	-0.430	0.520	-0.340
2020/01/31 02:16:21.6	94.190	-0.440	0.530	-0.330
2020/01/31 02:16:21.7	94.190	-0.450	0.530	-0.320
2020/01/31 02:16:21.8	94.190	-0.450	0.530	-0.310
2020/01/31 02:16:21.9	94.200	-0.450	0.520	-0.290
2020/01/31 02:16:22.0	94.200	-0.440	0.500	-0.270
2020/01/31 02:16:22.1	94.210	-0.430	0.470	-0.260
2020/01/31 02:16:22.2	94.220	-0.410	0.430	-0.240
2020/01/31 02:16:22.3	94.230	-0.390	0.390	-0.220
2020/01/31 02:16:22.4	94.240	-0.360	0.340	-0.200
2020/01/31 02:16:22.5	94.250	-0.330	0.290	-0.180
2020/01/31 02:16:22.6	94.270	-0.300	0.220	-0.160
2020/01/31 02:16:22.7	94.290	-0.260	0.160	-0.140
2020/01/31 02:16:22.8	94.300	-0.220	0.090	-0.120
2020/01/31 02:16:22.9	94.320	-0.180	0.010	-0.100
2020/01/31 02:16:23.0	94.350	-0.140	-0.070	-0.080
2020/01/31 02:16:23.1	94.360	-0.090	-0.150	-0.060
2020/01/31 02:16:23.2	94.380	-0.050	-0.230	-0.050
2020/01/31 02:16:23.3	94.410	0.000	-0.310	-0.030
2020/01/31 02:16:23.4	94.430	0.050	-0.380	-0.020
2020/01/31 02:16:23.5	94.460	0.100	-0.460	-0.000
2020/01/31 02:16:23.6	94.490	0.140	-0.530	0.010
2020/01/31 02:16:23.7	94.510	0.190	-0.600	0.020
2020/01/31 02:16:23.8	94.540	0.230	-0.670	0.040
2020/01/31 02:16:23.9	94.570	0.270	-0.720	0.050
2020/01/31 02:16:24.0	94.590	0.310	-0.770	0.070
2020/01/31 02:16:24.1	94.610	0.340	-0.820	0.090
2020/01/31 02:16:24.2	94.630	0.370	-0.860	0.100
2020/01/31 02:16:24.3	94.660	0.400	-0.890	0.120
2020/01/31 02:16:24.4	94.680	0.430	-0.910	0.140
2020/01/31 02:16:24.5	94.690	0.450	-0.920	0.160
2020/01/31 02:16:24.6	94.710	0.460	-0.920	0.190
2020/01/31 02:16:24.7	94.720	0.470	-0.910	0.210
2020/01/31 02:16:24.8	94.740	0.480	-0.900	0.230
2020/01/31 02:16:24.9	94.750	0.480	-0.880	0.260
2020/01/31 02:16:25.0	94.750	0.480	-0.850	0.290
2020/01/31 02:16:25.1	94.760	0.470	-0.800	0.320
2020/01/31 02:16:25.2	94.760	0.460	-0.760	0.350
2020/01/31 02:16:25.3	94.760	0.450	-0.700	0.380
2020/01/31 02:16:25.4	94.760	0.430	-0.650	0.410
2020/01/31 02:16:25.5	94.760	0.410	-0.580	0.440
2020/01/31 02:16:25.6	94.750	0.380	-0.510	0.470
2020/01/31 02:16:25.7	94.740	0.350	-0.440	0.500
2020/01/31 02:16:25.8	94.730	0.320	-0.370	0.530
2020/01/31 02:16:25.9	94.720	0.290	-0.290	0.560
2020/01/31 02:16:26.0	94.710	0.260	-0.220	0.590
2020/01/31 02:16:26.1	94.700	0.220	-0.140	0.630
2020/01/31 02:16:26.2	94.680	0.190	-0.070	0.660
2020/01/31 02:16:26.3	94.670	0.150	0.010	0.690
2020/01/31 02:16:26.4	94.650	0.110	0.080	0.720
2020/01/31 02:16:26.5	94.630	0.080	0.150	0.740
2020/01/31 02:16:26.6	94.610	0.040	0.210	0.770
2020/01/31 02:16:26.7	94.590	0.010	0.270	0.800
2020/01/31 02:16:26.8	94.570	-0.020	0.330	0.830
2020/01/31 02:16:26.9	94.550	-0.060	0.380	0.850
2020/01/31 02:16:27.0	94.530	-0.080	0.420	0.880
2020/01/31 02:16:27.1	94.500	-0.110	0.470	0.900
2020/01/31 02:16:27.2	94.480	-0.140	0.500	0.930
2020/01/31 02:16:27.3	94.460	-0.160	0.520	0.950
2020/01/31 02:16:27.4	94.440	-0.180	0.540	0.970
2020/01/31 02:16:27.5	94.420	-0.200	0.550	0.990
2020/01/31 02:16:27.6	94.410	-0.210	0.560	1.000
2020/01/31 02:16:27.7	94.390	-0.220	0.550	1.020
2020/01/31 02:16:27.8	94.380	-0.230	0.540	1.030
2020/01/31 02:16:27.9	94.360	-0.240	0.520	1.040
2020/01/31 02:16:28.0	94.350	-0.240	0.500	1.050
2020/01/31 02:16:28.1	94.340	-0.240	0.460	1.060
2020/01/31 02:16:28.2	94.330	-0.240	0.420	1.070
2020/01/31 02:16:28.3	94.320	-0.230	0.380	1.070
2020/01/31 02:16:28.4	94.300	-0.220	0.330	1.070
2020/01/31 02:16:28.5	94.290	-0.210	0.280	1.070
2020/01/31 02:16:28.6	94.280	-0.200	0.220	1.070
2020/01/31 02:16:28.7	94.270	-0.180	0.160	1.060
2020/01/31 02:16:28.8	94.260	-0.170	0.090	1.050
2020/01/31 02:16:28.9	94.250	-0.150	0.020	1.040
2020/01/31 02:16:29.0	94.240	-0.130	-0.050	1.030
2020/01/31 02:16:29.1	94.230	-0.110	-0.120	1.020
2020/01/31 02:16:29.2	94.220	-0.090	-0.190	1.000
2020/01/31 02:16:29.3	94.210	-0.070	-0.260	0.990
2020/01/31 02:16:29.4	94.200	-0.050	-0.330	0.970
2020/01/31 02:16:29.5	94.190	-0.030	-0.400	0.950
2020/01/31 02:16:29.6	94.180	-0.010	-0.470	0.930
2020/01/31 02:16:29.7	94.170	0.010	-0.530	0.900
2020/01/31 02:16:29.8	94.170	0.030	-0.600	0.880
2020/01/31 02:16:29.9	94.160	0.050	-0.650	0.850
2020/01/31 02:16:30.0	94.150	0.070	-0.700	0.830
2020/01/31 02:16:30.1	94.140	0.090	-0.750	0.800
2020/01/31 02:16:30.2	94.140	0.100	-0.790	0.780
2020/01/31 02:16:30.3	94.130	0.110	-0.820	0.750
2020/01/31 02:16:30.4	94.130	0.120	-0.850	0.730
2020/01/31 02:16:30.5	94.120	0.130	-0.870	0.710
2020/01/31 02:16:30.6	94.120	0.140	-0.890	0.690
2020/01/31 02:16:30.7	94.110	0.150	-0.900	0.670
2020/01/31 02:16:30.8	94.110	0.150	-0.900	0.650
2020/01/31 02:16:30.9	94.100	0.150	-0.890	0.640
2020/01/31 02:16:31.0	94.090	0.150	-0.880	0.620
2020/01/31 02:16:31.1	94.090	0.150	-0.860	0.620
2020/01/31 02:16:31.2	94.070	0.140	-0.840	0.610
2020/01/31 02:16:31.3	94.060	0.140	-0.800	0.600
2020/01/31 02:16:31.4	94.050	0.130	-0.770	0.600
2020/01/31 02:16:31.5	94.030	0.120	-0.730	0.600
2020/01/31 02:16:31.6	94.020	0.110	-0.680	0.600
2020/01/31 02:16:31.7	94.000	0.100	-0.630	0.600
2020/01/31 02:16:31.8	93.980	0.090	-0.580	0.610
2020/01/31 02:16:31.9	93.960	0.070	-0.520	0.610
2020/01/31 02:16:32.0	93.940	0.060	-0.460	0.620
2020/01/31 02:16:32.1	93.920	0.040	-0.400	0.630
2020/01/31 02:16:32.2	93.900	0.030	-0.340	0.640
2020/01/31 02:16:32.3	93.880	0.010	-0.280	0.650
2020/01/31 02:16:32.4	93.850	-0.000	-0.220	0.660
2020/01/31 02:16:32.5	93.830	-0.020	-0.160	0.670
2020/01/31 02:16:32.6	93.810	-0.040	-0.110	0.690
2020/01/31 02:16:32.7	93.790	-0.050	-0.050	0.700
2020/01/31 02:16:32.8	93.770	-0.070	-0.000	0.710
2020/01/31 02:16:32.9	93.740	-0.090	0.050	0.720
2020/01/31 02:16:33.0	93.720	-0.100	0.100	0.740
2020/01/31 02:16:33.1	93.710	-0.120	0.140	0.750
2020/01/31 02:16:33.2	93.690	-0.130	0.170	0.770
2020/01/31 02:16:33.3	93.670	-0.140	0.210	0.780
2020/01/31 02:16:33.4	93.660	-0.160	0.240	0.790
2020/01/31 02:16:33.5	93.640	-0.170	0.270	0.800
2020/01/31 02:16:33.6	93.630	-0.180	0.290	0.810
2020/01/31 02:16:33.7	93.620	-0.190	0.310	0.820
2020/01/31 02:16:33.8	93.610	-0.200	0.320	0.820
2020/01/31 02:16:33.9	93.600	-0.210	0.330	0.830
2020/01/31 02:16:34.0	93.590	-0.220	0.330	0.830
2020/01/31 02:16:34.1	93.610	-0.220	0.330	0.840
2020/01/31 02:16:34.2	93.600	-0.230	0.330	0.840
2020/01/31 02:16:34.3	93.600	-0.230	0.330	0.830
2020/01/31 02:16:34.4	93.600	-0.240	0.320	0.830
2020/01/31 02:16:34.5	93.600	-0.240	0.310	0.820
2020/01/31 02:16:34.6	93.600	-0.240	0.290	0.810
2020/01/31 02:16:34.7	93.600	-0.240	0.270	0.800
2020/01/31 02:16:34.8	93.600	-0.240	0.260	0.790
2020/01/31 02:16:34.9	93.600	-0.240	0.230	0.780
2020/01/31 02:16:35.0	93.600	-0.240	0.210	0.770
2020/01/31 02:16:35.1	93.620	-0.240	0.190	0.750
2020/01/31 02:16:35.2	93.620	-0.230	0.160	0.740
2020/01/31 02:16:35.3	93.610	-0.230	0.140	0.720
2020/01/31 02:16:35.4	93.610	-0.220	0.110	0.710
2020/01/31 02:16:35.5	93.610	-0.210	0.080	0.700
2020/01/31 02:16:35.6	93.600	-0.210	0.060	0.680
2020/01/31 02:16:35.7	93.600	-0.200	0.030	0.670
2020/01/31 02:16:35.8	93.600	-0.190	-0.000	0.660
2020/01/31 02:16:35.9	93.590	-0.170	-0.030	0.650
2020/01/31 02:16:36.0	93.590	-0.160	-0.060	0.640
2020/01/31 02:16:36.1	93.580	-0.150	-0.080	0.630
2020/01/31 02:16:36.2	93.570	-0.140	-0.110	0.620
2020/01/31 02:16:36.3	93.570	-0.130	-0.130	0.610
2020/01/31 02:16:36.4	93.570	-0.110	-0.150	0.610
2020/01/31 02:16:36.5	93.570	-0.100	-0.170	0.600
2020/01/31 02:16:36.6	93.560	-0.090	-0.190	0.600
2020/01/31 02:16:36.7	93.560	-0.080	-0.200	0.600
2020/01/31 02:16:36.8	93.560	-0.070	-0.210	0.600
2020/01/31 02:16:36.9	93.550	-0.060	-0.220	0.600
2020/01/31 02:16:37.0	93.550	-0.050	-0.230	0.610
2020/01/31 02:16:37.1	93.540	-0.040	-0.230	0.620
2020/01/31 02:16:37.2	93.540	-0.030	-0.230	0.630
2020/01/31 02:16:37.3	93.530	-0.030	-0.230	0.640
2020/01/31 02:16:37.4	93.530	-0.030	-0.220	0.660
2020/01/31 02:16:37.5	93.520	-0.020	-0.210	0.680
2020/01/31 02:16:37.6	93.520	-0.020	-0.200	0.700
2020/01/31 02:16:37.7	93.520	-0.020	-0.190	0.720
2020/01/31 02:16:37.8	93.510	-0.020	-0.180	0.740
2020/01/31 02:16:37.9	93.510	-0.030	-0.170	0.770
2020/01/31 02:16:38.0	93.500	-0.030	-0.150	0.800
2020/01/31 02:16:38.1	93.490	-0.030	-0.140	0.830
2020/01/31 02:16:38.2	93.490	-0.040	-0.120	0.860
2020/01/31 02:16:38.3	93.480	-0.040	-0.110	0.890
2020/01/31 02:16:38.4	93.480	-0.040	-0.100	0.920
2020/01/31 02:16:38.5	93.470	-0.050	-0.090	0.960
2020/01/31 02:16:38.6	93.460	-0.050	-0.080	0.990
2020/01/31 02:16:38.7	93.460	-0.060	-0.070	1.020
2020/01/31 02:16:38.8	93.450	-0.060	-0.070	1.050
2020/01/31 02:16:38.9	93.450	-0.060	-0.060	1.080
2020/01/31 02:16:39.0	93.440	-0.060	-0.060	1.110
2020/01/31 02:16:39.1	93.440	-0.060	-0.070	1.140
2020/01/31 02:16:39.2	93.440	-0.060	-0.070	1.170
2020/01/31 02:16:39.3	93.430	-0.060	-0.080	1.200
2020/01/31 02:16:39.4	93.430	-0.060	-0.100	1.220
2020/01/31 02:16:39.5	93.420	-0.060	-0.110	1.240
2020/01/31 02:16:39.6	93.420	-0.050	-0.130	1.260
2020/01/31 02:16:39.7	93.410	-0.040	-0.150	1.280
2020/01/31 02:16:39.8	93.410	-0.030	-0.170	1.290
2020/01/31 02:16:39.9	93.410	-0.020	-0.200	1.300
2020/01/31 02:16:40.0	93.410	-0.010	-0.220	1.310
2020/01/31 02:16:40.1	93.400	-0.000	-0.260	1.330
2020/01/31 02:16:40.2	93.400	0.010	-0.290	1.330
2020/01/31 02:16:40.3	93.400	0.030	-0.320	1.340
2020/01/31 02:16:40.4	93.400	0.050	-0.350	1.340
2020/01/31 02:16:40.5	93.400	0.060	-0.390	1.350
2020/01/31 02:16:40.6	93.410	0.080	-0.420	1.350
2020/01/31 02:16:40.7	93.410	0.100	-0.450	1.350
2020/01/31 02:16:40.8	93.410	0.120	-0.490	1.350
2020/01/31 02:16:40.9	93.420	0.150	-0.520	1.360
2020/01/31 02:16:41.0	93.420	0.170	-0.560	1.360
2020/01/31 02:16:41.1	93.440	0.190	-0.590	1.360
2020/01/31 02:16:41.2	93.440	0.220	-0.620	1.360
2020/01/31 02:16:41.3	93.450	0.240	-0.650	1.360
2020/01/31 02:16:41.4	93.450	0.270	-0.680	1.360
2020/01/31 02:16:41.5	93.460	0.290	-0.710	1.360
2020/01/31 02:16:41.6	93.460	0.320	-0.740	1.360
2020/01/31 02:16:41.7	93.460	0.350	-0.770	1.360
2020/01/31 02:16:41.8	93.470	0.370	-0.790	1.360
2020/01/31 02:16:41.9	93.480	0.400	-0.810	1.360
2020/01/31 02:16:42.0	93.480	0.420	-0.830	1.360
2020/01/31 02:16:42.1	93.480	0.440	-0.840	1.360
2020/01/31 02:16:42.2	93.490	0.470	-0.850	1.360
2020/01/31 02:16:42.3	93.490	0.490	-0.860	1.360
2020/01/31 02:16:42.4	93.500	0.510	-0.860	1.350
2020/01/31 02:16:42.5	93.500	0.520	-0.860	1.350
2020/01/31 02:16:42.6	93.510	0.540	-0.860	1.350
2020/01/31 02:16:42.7	93.510	0.550	-0.850	1.340
2020/01/31 02:16:42.8	93.520	0.560	-0.830	1.330
2020/01/31 02:16:42.9	93.520	0.570	-0.810	1.330
2020/01/31 02:16:43.0	93.520	0.570	-0.790	1.320
2020/01/31 02:16:43.1	93.520	0.580	-0.750	1.310
2020/01/31 02:16:43.2	93.520	0.570	-0.720	1.300
2020/01/31 02:16:43.3	93.520	0.570	-0.680	1.290
2020/01/31 02:16:43.4	93.530	0.560	-0.630	1.280
2020/01/31 02:16:43.5	93.530	0.550	-0.580	1.270
2020/01/31 02:16:43.6	93.530	0.530	-0.530	1.250
2020/01/31 02:16:43.7	93.540	0.520	-0.470	1.240
2020/01/31 02:16:43.8	93.540	0.490	-0.410	1.230
2020/01/31 02:16:43.9	93.540	0.470	-0.350	1.210
2020/01/31 02:16:44.0	93.550	0.440	-0.280	1.200
2020/01/31 02:16:44.1	93.540	0.410	-0.210	1.190
2020/01/31 02:16:44.2	93.550	0.380	-0.140	1.170
2020/01/31 02:16:44.3	93.560	0.350	-0.070	1.150
2020/01/31 02:16:44.4	93.570	0.310	0.010	1.130
2020/01/31 02:16:44.5	93.580	0.270	0.080	1.110
2020/01/31 02:16:44.6	93.590	0.230	0.150	1.090
2020/01/31 02:16:44.7	93.600	0.190	0.220	1.070
2020/01/31 02:16:44.8	93.620	0.150	0.280	1.050
2020/01/31 02:16:44.9	93.630	0.100	0.350	1.020
2020/01/31 02:16:45.0	93.650	0.060	0.410	1.000
2020/01/31 02:16:45.1	93.660	0.020	0.460	0.970
2020/01/31 02:16:45.2	93.680	-0.030	0.510	0.940
2020/01/31 02:16:45.3	93.690	-0.070	0.560	0.910
2020/01/31 02:16:45.4	93.710	-0.110	0.600	0.890
2020/01/31 02:16:45.5	93.730	-0.150	0.630	0.860
2020/01/31 02:16:45.6	93.750	-0.190	0.660	0.830
2020/01/31 02:16:45.7	93.770	-0.230	0.680	0.800
2020/01/31 02:16:45.8	93.790	-0.270	0.700	0.770
2020/01/31 02:16:45.9	93.810	-0.300	0.710	0.740
2020/01/31 02:16:46.0	93.830	-0.340	0.720	0.710
2020/01/31 02:16:46.1	93.850	-0.370	0.720	0.680
2020/01/31 02:16:46.2	93.870	-0.400	0.710	0.650
2020/01/31 02:16:46.3	93.890	-0.430	0.700	0.630
2020/01/31 02:16:46.4	93.910	-0.450	0.680	0.600
2020/01/31 02:16:46.5	93.930	-0.470	0.650	0.570
2020/01/31 02:16:46.6	93.940	-0.490	0.620	0.540
2020/01/31 02:16:46.7	93.960	-0.510	0.590	0.520
2020/01/31 02:16:46.8	93.970	-0.530	0.550	0.490
2020/01/31 02:16:46.9	93.990	-0.540	0.510	0.460
2020/01/31 02:16:47.0	94.000	-0.550	0.460	0.440
2020/01/31 02:16:47.1	94.020	-0.560	0.410	0.410
2020/01/31 02:16:47.2	94.030	-0.560	0.360	0.390
2020/01/31 02:16:47.3	94.050	-0.570	0.300	0.360
2020/01/31 02:16:47.4	94.060	-0.570	0.250	0.330
2020/01/31 02:16:47.5	94.070	-0.560	0.190	0.300
2020/01/31 02:16:47.6	94.090	-0.560	0.130	0.270
2020/01/31 02:16:47.7	94.100	-0.550	0.060	0.240
2020/01/31 02:16:47.8	94.110	-0.540	0.000	0.210
2020/01/31 02:16:47.9	94.130	-0.530	-0.060	0.180
2020/01/31 02:16:48.0	94.140	-0.520	-0.120	0.160
2020/01/31 02:16:48.1	94.170	-0.510	-0.180	0.140
2020/01/31 02:16:48.2	94.180	-0.490	-0.240	0.110
2020/01/31 02:16:48.3	94.190	-0.470	-0.300	0.090
2020/01/31 02:16:48.4	94.190	-0.450	-0.360	0.080
2020/01/31 02:16:48.5	94.200	-0.430	-0.410	0.070
2020/01/31 02:16:48.6	94.200	-0.410	-0.470	0.060
2020/01/31 02:16:48.7	94.210	-0.380	-0.510	0.050
2020/01/31 02:16:48.8	94.210	-0.360	-0.560	0.050
2020/01/31 02:16:48.9	94.210	-0.330	-0.600	0.060
2020/01/31 02:16:49.0	94.210	-0.310	-0.630	0.070
2020/01/31 02:16:49.1	94.200	-0.280	-0.670	0.080
2020/01/31 02:16:49.2	94.200	-0.260	-0.690	0.090
2020/01/31 02:16:49.3	94.200	-0.230	-0.710	0.110
2020/01/31 02:16:49.4	94.200	-0.210	-0.730	0.130
2020/01/31 02:16:49.5	94.200	-0.190	-0.740	0.150
2020/01/31 02:16:49.6	94.200	-0.170	-0.740	0.170
2020/01/31 02:16:49.7	94.200	-0.150	-0.740	0.200
2020/01/31 02:16:49.8	94.200	-0.130	-0.730	0.220
2020/01/31 02:16:49.9	94.200	-0.110	-0.720	0.240
2020/01/31 02:16:50.0	94.210	-0.100	-0.700	0.260
2020/01/31 02:16:50.1	94.220	-0.090	-0.680	0.280
2020/01/31 02:16:50.2	94.220	-0.070	-0.650	0.300
2020/01/31 02:16:50.3	94.230	-0.070	-0.620	0.310
2020/01/31 02:16:50.4	94.240	-0.060	-0.590	0.320
2020/01/31 02:16:50.5	94.260	-0.050	-0.550	0.330
2020/01/31 02:16:50.6	94.270	-0.050	-0.510	0.340
2020/01/31 02:16:50.7	94.290	-0.050	-0.470	0.340
2020/01/31 02:16:50.8	94.310	-0.050	-0.430	0.340
2020/01/31 02:16:50.9	94.320	-0.050	-0.390	0.340
2020/01/31 02:16:51.0	94.340	-0.050	-0.340	0.330
2020/01/31 02:16:51.1	94.360	-0.050	-0.300	0.320
2020/01/31 02:16:51.2	94.390	-0.050	-0.250	0.310
2020/01/31 02:16:51.3	94.410	-0.050	-0.210	0.300
2020/01/31 02:16:51.4	94.430	-0.060	-0.170	0.290
2020/01/31 02:16:51.5	94.450	-0.060	-0.130	0.280
2020/01/31 02:16:51.6	94.470	-0.060	-0.090	0.270
2020/01/31 02:16:51.7	94.490	-0.070	-0.050	0.260
2020/01/31 02:16:51.8	94.510	-0.070	-0.010	0.250
2020/01/31 02:16:51.9	94.520	-0.070	0.030	0.240
2020/01/31 02:16:52.0	94.530	-0.070	0.060	0.240
2020/01/31 02:16:52.1	94.550	-0.070	0.090	0.240
2020/01/31 02:16:52.2	94.560	-0.070	0.120	0.240
2020/01/31 02:16:52.3	94.570	-0.060	0.150	0.240
2020/01/31 02:16:52.4	94.570	-0.060	0.170	0.240
2020/01/31 02:16:52.5	94.570	-0.050	0.190	0.250
2020/01/31 02:16:52.6	94.560	-0.050	0.210	0.260
2020/01/31 02:16:52.7	94.550	-0.040	0.230	0.270
2020/01/31 02:16:52.8	94.540	-0.030	0.240	0.290
2020/01/31 02:16:52.9	94.520	-0.020	0.240	0.310
2020/01/31 02:16:53.0	94.500	-0.010	0.250	0.330
2020/01/31 02:16:53.1	94.480	0.000	0.250	0.350
2020/01/31 02:16:53.2	94.450	0.020	0.240	0.380
2020/01/31 02:16:53.3	94.420	0.030	0.230	0.400
2020/01/31 02:16:53.4	94.390	0.050	0.210	0.430
2020/01/31 02:16:53.5	94.350	0.060	0.190	0.450
2020/01/31 02:16:53.6	94.320	0.080	0.170	0.480
2020/01/31 02:16:53.7	94.270	0.100	0.140	0.510
2020/01/31 02:16:53.8	94.230	0.120	0.100	0.540
2020/01/31 02:16:53.9	94.190	0.140	0.060	0.560
2020/01/31 02:16:54.0	94.140	0.160	0.010	0.590
2020/01/31 02:16:54.1	94.100	0.180	-0.040	0.620
2020/01/31 02:16:54.2	94.060	0.200	-0.100	0.640
2020/01/31 02:16:54.3	94.010	0.230	-0.160	0.660
2020/01/31 02:16:54.4	93.970	0.250	-0.220	0.680
2020/01/31 02:16:54.5	93.930	0.270	-0.290	0.700
2020/01/31 02:16:54.6	93.880	0.290	-0.360	0.710
2020/01/31 02:16:54.7	93.840	0.320	-0.440	0.720
2020/01/31 02:16:54.8	93.810	0.340	-0.510	0.730
2020/01/31 02:16:54.9	93.770	0.360	-0.590	0.740
2020/01/31 02:16:55.0	93.740	0.390	-0.660	0.740
2020/01/31 02:16:55.1	93.720	0.410	-0.730	0.730
2020/01/31 02:16:55.2	93.690	0.430	-0.800	0.730
2020/01/31 02:16:55.3	93.660	0.450	-0.870	0.720
2020/01/31 02:16:55.4	93.640	0.460	-0.930	0.710
2020/01/31 02:16:55.5	93.620	0.480	-0.990	0.700
2020/01/31 02:16:55.6	93.600	0.490	-1.040	0.690
2020/01/31 02:16:55.7	93.580	0.500	-1.080	0.670
2020/01/31 02:16:55.8	93.570	0.510	-1.110	0.660
2020/01/31 02:16:55.9	93.560	0.520	-1.130	0.640
2020/01/31 02:16:56.0	93.540	0.520	-1.150	0.620
2020/01/31 02:16:56.1	93.540	0.520	-1.150	0.610
2020/01/31 02:16:56.2	93.530	0.510	-1.140	0.590
2020/01/31 02:16:56.3	93.520	0.510	-1.130	0.570
2020/01/31 02:16:56.4	93.510	0.500	-1.100	0.560
2020/01/31 02:16:56.5	93.500	0.480	-1.070	0.540
2020/01/31 02:16:56.6	93.490	0.470	-1.020	0.520
2020/01/31 02:16:56.7	93.490	0.450	-0.970	0.510
2020/01/31 02:16:56.8	93.480	0.430	-0.910	0.490
2020/01/31 02:16:56.9	93.470	0.400	-0.840	0.480
2020/01/31 02:16:57.0	93.470	0.370	-0.760	0.470
2020/01/31 02:16:57.1	93.460	0.340	-0.670	0.460
2020/01/31 02:16:57.2	93.450	0.310	-0.590	0.450
2020/01/31 02:16:57.3	93.450	0.270	-0.490	0.440
2020/01/31 02:16:57.4	93.440	0.240	-0.390	0.440
2020/01/31 02:16:57.5	93.440	0.200	-0.290	0.430
2020/01/31 02:16:57.6	93.440	0.160	-0.190	0.430
2020/01/31 02:16:57.7	93.440	0.120	-0.090	0.430
2020/01/31 02:16:57.8	93.440	0.080	0.010	0.430
2020/01/31 02:16:57.9	93.450	0.040	0.110	0.430
2020/01/31 02:16:58.0	93.450	-0.000	0.210	0.430
2020/01/31 02:16:58.1	93.460	-0.040	0.310	0.440
2020/01/31 02:16:58.2	93.470	-0.080	0.390	0.440
2020/01/31 02:16:58.3	93.470	-0.120	0.470	0.450
2020/01/31 02:16:58.4	93.480	-0.150	0.550	0.450
2020/01/31 02:16:58.5	93.490	-0.190	0.620	0.460
2020/01/31 02:16:58.6	93.510	-0.220	0.670	0.470
2020/01/31 02:16:58.7	93.520	-0.240	0.730	0.470
2020/01/31 02:16:58.8	93.530	-0.270	0.770	0.480
2020/01/31 02:16:58.9	93.540	-0.290	0.800	0.500
2020/01/31 02:16:59.0	93.550	-0.310	0.820	0.510
2020/01/31 02:16:59.1	93.560	-0.320	0.830	0.530
2020/01/31 02:16:59.2	93.570	-0.340	0.830	0.540
2020/01/31 02:16:59.3	93.580	-0.340	0.820	0.560
2020/01/31 02:16:59.4	93.580	-0.350	0.810	0.580
2020/01/31 02:16:59.5	93.590	-0.350	0.780	0.610
2020/01/31 02:16:59.6	93.590	-0.340	0.750	0.640
2020/01/31 02:16:59.7	93.590	-0.340	0.710	0.670
2020/01/31 02:16:59.8	93.580	-0.330	0.660	0.700
2020/01/31 02:16:59.9	93.570	-0.320	0.610	0.730
2020/01/31 02:17:00.0	93.560	-0.310	0.560	0.770
2020/01/31 02:17:00.1	93.540	-0.300	0.490	0.810
2020/01/31 02:17:00.2	93.520	-0.280	0.430	0.850
2020/01/31 02:17:00.3	93.500	-0.270	0.370	0.900
2020/01/31 02:17:00.4	93.480	-0.250	0.310	0.940
2020/01/31 02:17:00.5	93.460	-0.230	0.240	0.990
2020/01/31 02:17:00.6	93.440	-0.220	0.180	1.030
2020/01/31 02:17:00.7	93.410	-0.200	0.120	1.080
2020/01/31 02:17:00.8	93.380	-0.190	0.060	1.130
2020/01/31 02:17:00.9	93.350	-0.170	0.010	1.180
2020/01/31 02:17:01.0	93.320	-0.160	-0.040	1.230
2020/01/31 02:17:01.1	93.290	-0.150	-0.090	1.280
2020/01/31 02:17:01.2	93.260	-0.140	-0.130	1.330
2020/01/31 02:17:01.3	93.220	-0.140	-0.170	1.380
2020/01/31 02:17:01.4	93.190	-0.130	-0.210	1.430
2020/01/31 02:17:01.5	93.160	-0.130	-0.240	1.470
2020/01/31 02:17:01.6	93.130	-0.130	-0.260	1.520
2020/01/31 02:17:01.7	93.090	-0.130	-0.290	1.560
2020/01/31 02:17:01.8	93.070	-0.130	-0.300	1.600
2020/01/31 02:17:01.9	93.040	-0.140	-0.320	1.640
2020/01/31 02:17:02.0	93.010	-0.140	-0.330	1.680
2020/01/31 02:17:02.1	92.990	-0.150	-0.340	1.710
2020/01/31 02:17:02.2	92.970	-0.160	-0.340	1.740
2020/01/31 02:17:02.3	92.950	-0.170	-0.350	1.770
2020/01/31 02:17:02.4	92.940	-0.170	-0.350	1.800
2020/01/31 02:17:02.5	92.920	-0.180	-0.350	1.820
2020/01/31 02:17:02.6	92.910	-0.190	-0.350	1.840
2020/01/31 02:17:02.7	92.900	-0.200	-0.350	1.850
2020/01/31 02:17:02.8	92.900	-0.210	-0.350	1.860
2020/01/31 02:17:02.9	92.890	-0.210	-0.350	1.870
2020/01/31 02:17:03.0	92.890	-0.220	-0.350	1.870
2020/01/31 02:17:03.1	92.870	-0.220	-0.350	1.870
2020/01/31 02:17:03.2	92.870	-0.220	-0.350	1.860
2020/01/31 02:17:03.3	92.870	-0.220	-0.360	1.850
2020/01/31 02:17:03.4	92.870	-0.210	-0.370	1.840
2020/01/31 02:17:03.5	92.870	-0.200	-0.390	1.820
2020/01/31 02:17:03.6	92.870	-0.190	-0.400	1.800
2020/01/31 02:17:03.7	92.880	-0.180	-0.420	1.780
2020/01/31 02:17:03.8	92.880	-0.160	-0.450	1.760
2020/01/31 02:17:03.9	92.890	-0.140	-0.470	1.730
2020/01/31 02:17:04.0	92.890	-0.110	-0.500	1.700
2020/01/31 02:17:04.1	92.880	-0.090	-0.540	1.660
2020/01/31 02:17:04.2	92.890	-0.060	-0.570	1.630
2020/01/31 02:17:04.3	92.900	-0.030	-0.610	1.600
2020/01/31 02:17:04.4	92.900	0.010	-0.640	1.560
2020/01/31 02:17:04.5	92.910	0.040	-0.670	1.520
2020/01/31 02:17:04.6	92.910	0.080	-0.710	1.490
2020/01/31 02:17:04.7	92.920	0.110	-0.740	1.460
2020/01/31 02:17:04.8	92.920	0.150	-0.770	1.420
2020/01/31 02:17:04.9	92.930	0.180	-0.790	1.390
2020/01/31 02:17:05.0	92.930	0.220	-0.810	1.360
2020/01/31 02:17:05.1	92.920	0.250	-0.830	1.340
2020/01/31 02:17:05.2	92.930	0.280	-0.840	1.310
2020/01/31 02:17:05.3	92.920	0.310	-0.840	1.290
2020/01/31 02:17:05.4	92.920	0.340	-0.840	1.270
2020/01/31 02:17:05.5	92.920	0.360	-0.840	1.250
2020/01/31 02:17:05.6	92.920	0.380	-0.830	1.230
2020/01/31 02:17:05.7	92.910	0.400	-0.810	1.220
2020/01/31 02:17:05.8	92.910	0.410	-0.780	1.200
2020/01/31 02:17:05.9	92.900	0.420	-0.750	1.190
2020/01/31 02:17:06.0	92.890	0.420	-0.710	1.180
2020/01/31 02:17:06.1	92.890	0.420	-0.670	1.170
2020/01/31 02:17:06.2	92.880	0.420	-0.620	1.160
2020/01/31 02:17:06.3	92.870	0.410	-0.560	1.160
2020/01/31 02:17:06.4	92.850	0.400	-0.500	1.150
2020/01/31 02:17:06.5	92.840	0.380	-0.440	1.150
2020/01/31 02:17:06.6	92.820	0.360	-0.370	1.140
2020/01/31 02:17:06.7	92.800	0.340	-0.290	1.140
2020/01/31 02:17:06.8	92.780	0.310	-0.220	1.130
2020/01/31 02:17:06.9	92.760	0.280	-0.140	1.130
2020/01/31 02:17:07.0	92.740	0.250	-0.070	1.120
2020/01/31 02:17:07.1	92.720	0.210	0.020	1.120
2020/01/31 02:17:07.2	92.690	0.170	0.100	1.110
2020/01/31 02:17:07.3	92.670	0.130	0.180	1.110
2020/01/31 02:17:07.4	92.650	0.090	0.250	1.100
2020/01/31 02:17:07.5	92.630	0.050	0.330	1.080
2020/01/31 02:17:07.6	92.610	0.010	0.400	1.070
2020/01/31 02:17:07.7	92.580	-0.040	0.470	1.060
2020/01/31 02:17:07.8	92.560	-0.080	0.530	1.040
2020/01/31 02:17:07.9	92.550	-0.130	0.580	1.020
2020/01/31 02:17:08.0	92.530	-0.170	0.630	1.000
2020/01/31 02:17:08.1	92.500	-0.210	0.670	0.980
2020/01/31 02:17:08.2	92.490	-0.250	0.710	0.950
2020/01/31 02:17:08.3	92.480	-0.290	0.740	0.930
2020/01/31 02:17:08.4	92.470	-0.330	0.760	0.900
2020/01/31 02:17:08.5	92.460	-0.360	0.780	0.870
2020/01/31 02:17:08.6	92.460	-0.390	0.780	0.830
2020/01/31 02:17:08.7	92.460	-0.420	0.780	0.800
2020/01/31 02:17:08.8	92.460	-0.450	0.760	0.760
2020/01/31 02:17:08.9	92.470	-0.470	0.740	0.720
2020/01/31 02:17:09.0	92.480	-0.490	0.710	0.680
2020/01/31 02:17:09.1	92.480	-0.500	0.670	0.640
2020/01/31 02:17:09.2	92.500	-0.510	0.630	0.590
2020/01/31 02:17:09.3	92.510	-0.510	0.570	0.550
2020/01/31 02:17:09.4	92.540	-0.510	0.510	0.500
2020/01/31 02:17:09.5	92.560	-0.500	0.440	0.460
2020/01/31 02:17:09.6	92.590	-0.490	0.370	0.410
2020/01/31 02:17:09.7	92.620	-0.470	0.280	0.360
2020/01/31 02:17:09.8	92.650	-0.450	0.200	0.310
2020/01/31 02:17:09.9	92.680	-0.430	0.100	0.270
2020/01/31 02:17:10.0	92.710	-0.400	0.010	0.220
2020/01/31 02:17:10.1	92.750	-0.360	-0.100	0.180
2020/01/31 02:17:10.2	92.790	-0.320	-0.200	0.130
2020/01/31 02:17:10.3	92.820	-0.280	-0.300	0.090
2020/01/31 02:17:10.4	92.850	-0.230	-0.410	0.050
2020/01/31 02:17:10.5	92.880	-0.180	-0.510	0.020
2020/01/31 02:17:10.6	92.920	-0.120	-0.620	-0.020
2020/01/31 02:17:10.7	92.940	-0.070	-0.720	-0.040
2020/01/31 02:17:10.8	92.970	-0.010	-0.810	-0.070
2020/01/31 02:17:10.9	93.000	0.050	-0.900	-0.090
2020/01/31 02:17:11.0	93.020	0.100	-0.980	-0.100
2020/01/31 02:17:11.1	93.040	0.160	-1.060	-0.100
2020/01/31 02:17:11.2	93.060	0.210	-1.120	-0.110
2020/01/31 02:17:11.3	93.070	0.260	-1.180	-0.110
2020/01/31 02:17:11.4	93.080	0.310	-1.220	-0.110
2020/01/31 02:17:11.5	93.090	0.360	-1.250	-0.100
2020/01/31 02:17:11.6	93.100	0.400	-1.270	-0.090
2020/01/31 02:17:11.7	93.110	0.430	-1.280	-0.070
2020/01/31 02:17:11.8	93.110	0.470	-1.270	-0.050
2020/01/31 02:17:11.9	93.110	0.490	-1.250	-0.020
2020/01/31 02:17:12.0	93.110	0.510	-1.220	0.000
2020/01/31 02:17:12.1	93.120	0.520	-1.180	0.040
2020/01/31 02:17:12.2	93.110	0.530	-1.120	0.080
2020/01/31 02:17:12.3	93.100	0.530	-1.050	0.110
2020/01/31 02:17:12.4	93.090	0.530	-0.970	0.160
2020/01/31 02:17:12.5	93.080	0.510	-0.890	0.200
2020/01/31 02:17:12.6	93.070	0.500	-0.790	0.250
2020/01/31 02:17:12.7	93.050	0.470	-0.690	0.300
2020/01/31 02:17:12.8	93.040	0.440	-0.580	0.350
2020/01/31 02:17:12.9	93.020	0.410	-0.470	0.400
2020/01/31 02:17:13.0	93.000	0.370	-0.360	0.450
2020/01/31 02:17:13.1	92.980	0.330	-0.240	0.510
2020/01/31 02:17:13.2	92.960	0.280	-0.130	0.560
2020/01/31 02:17:13.3	92.940	0.230	-0.010	0.610
2020/01/31 02:17:13.4	92.920	0.180	0.100	0.660
2020/01/31 02:17:13.5	92.900	0.130	0.200	0.710
2020/01/31 02:17:13.6	92.880	0.080	0.300	0.760
2020/01/31 02:17:13.7	92.860	0.030	0.390	0.810
2020/01/31 02:17:13.8	92.840	-0.030	0.480	0.860
2020/01/31 02:17:13.9	92.820	-0.080	0.550	0.900
2020/01/31 02:17:14.0	92.800	-0.120	0.620	0.940
2020/01/31 02:17:14.1	92.780	-0.170	0.670	0.980
2020/01/31 02:17:14.2	92.760	-0.210	0.720	1.010
2020/01/31 02:17:14.3	92.750	-0.250	0.750	1.040
2020/01/31 02:17:14.4	92.730	-0.290	0.770	1.060
2020/01/31 02:17:14.5	92.720	-0.320	0.780	1.080
2020/01/31 02:17:14.6	92.710	-0.340	0.780	1.100
2020/01/31 02:17:14.7	92.710	-0.360	0.770	1.110
2020/01/31 02:17:14.8	92.700	-0.370	0.750	1.120
2020/01/31 02:17:14.9	92.700	-0.380	0.710	1.120
2020/01/31 02:17:15.0	92.700	-0.390	0.670	1.120
2020/01/31 02:17:15.1	92.690	-0.390	0.620	1.110
2020/01/31 02:17:15.2	92.690	-0.380	0.560	1.110
2020/01/31 02:17:15.3	92.700	-0.370	0.490	1.100
2020/01/31 02:17:15.4	92.700	-0.350	0.410	1.080
2020/01/31 02:17:15.5	92.710	-0.330	0.330	1.060
2020/01/31 02:17:15.6	92.720	-0.300	0.240	1.040
2020/01/31 02:17:15.7	92.730	-0.270	0.150	1.020
2020/01/31 02:17:15.8	92.740	-0.230	0.050	0.990
2020/01/31 02:17:15.9	92.760	-0.190	-0.050	0.970
2020/01/31 02:17:16.0	92.770	-0.150	-0.150	0.940
2020/01/31 02:17:16.1	92.780	-0.110	-0.250	0.910
2020/01/31 02:17:16.2	92.800	-0.060	-0.350	0.890
2020/01/31 02:17:16.3	92.810	-0.020	-0.440	0.860
2020/01/31 02:17:16.4	92.820	0.030	-0.540	0.830
2020/01/31 02:17:16.5	92.840	0.070	-0.630	0.810
2020/01/31 02:17:16.6	92.850	0.120	-0.710	0.790
2020/01/31 02:17:16.7	92.860	0.160	-0.790	0.770
2020/01/31 02:17:16.8	92.870	0.210	-0.860	0.750
2020/01/31 02:17:16.9	92.880	0.240	-0.920	0.730
2020/01/31 02:17:17.0	92.880	0.280	-0.980	0.720
2020/01/31 02:17:17.1	92.900	0.310	-1.020	0.710
2020/01/31 02:17:17.2	92.910	0.340	-1.050	0.710
2020/01/31 02:17:17.3	92.920	0.370	-1.080	0.700
2020/01/31 02:17:17.4	92.920	0.390	-1.090	0.700
2020/01/31 02:17:17.5	92.920	0.400	-1.100	0.710
2020/01/31 02:17:17.6	92.930	0.410	-1.090	0.720
2020/01/31 02:17:17.7	92.930	0.410	-1.070	0.730
2020/01/31 02:17:17.8	92.930	0.410	-1.040	0.740
2020/01/31 02:17:17.9	92.940	0.400	-1.000	0.760
2020/01/31 02:17:18.0	92.940	0.390	-0.950	0.780
2020/01/31 02:17:18.1	92.950	0.370	-0.890	0.810
2020/01/31 02:17:18.2	92.950	0.350	-0.820	0.840
2020/01/31 02:17:18.3	92.950	0.320	-0.740	0.870
2020/01/31 02:17:18.4	92.950	0.290	-0.660	0.890
2020/01/31 02:17:18.5	92.960	0.250	-0.570	0.930
2020/01/31 02:17:18.6	92.960	0.210	-0.470	0.960
2020/01/31 02:17:18.7	92.960	0.160	-0.370	0.990
2020/01/31 02:17:18.8	92.970	0.120	-0.270	1.020
2020/01/31 02:17:18.9	92.970	0.070	-0.160	1.050
2020/01/31 02:17:19.0	92.970	0.010	-0.060	1.080
2020/01/31 02:17:19.1	92.970	-0.040	0.050	1.110
2020/01/31 02:17:19.2	92.980	-0.100	0.160	1.130
2020/01/31 02:17:19.3	92.980	-0.160	0.260	1.160
2020/01/31 02:17:19.4	92.980	-0.210	0.350	1.180
2020/01/31 02:17:19.5	92.980	-0.270	0.440	1.190
2020/01/31 02:17:19.6	92.980	-0.330	0.530	1.210
2020/01/31 02:17:19.7	92.980	-0.380	0.610	1.220
2020/01/31 02:17:19.8	92.980	-0.430	0.680	1.220
2020/01/31 02:17:19.9	92.980	-0.480	0.740	1.230
2020/01/31 02:17:20.0	92.980	-0.530	0.800	1.230
2020/01/31 02:17:20.1	92.970	-0.570	0.840	1.230
2020/01/31 02:17:20.2	92.960	-0.610	0.870	1.220
2020/01/31 02:17:20.3	92.950	-0.640	0.900	1.220
2020/01/31 02:17:20.4	92.940	-0.670	0.910	1.210
2020/01/31 02:17:20.5	92.930	-0.690	0.910	1.190
2020/01/31 02:17:20.6	92.920	-0.710	0.910	1.180
2020/01/31 02:17:20.7	92.900	-0.720	0.890	1.170
2020/01/31 02:17:20.8	92.890	-0.730	0.860	1.150
2020/01/31 02:17:20.9	92.870	-0.730	0.820	1.140
2020/01/31 02:17:21.0	92.850	-0.730	0.780	1.120
2020/01/31 02:17:21.1	92.820	-0.720	0.720	1.100
2020/01/31 02:17:21.2	92.800	-0.700	0.660	1.090
2020/01/31 02:17:21.3	92.780	-0.680	0.590	1.070
2020/01/31 02:17:21.4	92.760	-0.660	0.520	1.060
2020/01/31 02:17:21.5	92.730	-0.630	0.440	1.040
2020/01/31 02:17:21.6	92.710	-0.600	0.360	1.030
2020/01/31 02:17:21.7	92.680	-0.560	0.270	1.010
2020/01/31 02:17:21.8	92.660	-0.520	0.180	1.000
2020/01/31 02:17:21.9	92.630	-0.480	0.090	0.980
2020/01/31 02:17:22.0	92.610	-0.440	-0.000	0.970
2020/01/31 02:17:22.1	92.570	-0.390	-0.100	0.960
2020/01/31 02:17:22.2	92.550	-0.340	-0.190	0.940
2020/01/31 02:17:22.3	92.520	-0.290	-0.280	0.930
2020/01/31 02:17:22.4	92.500	-0.240	-0.380	0.910
2020/01/31 02:17:22.5	92.470	-0.190	-0.470	0.890
2020/01/31 02:17:22.6	92.450	-0.140	-0.550	0.870
2020/01/31 02:17:22.7	92.430	-0.090	-0.640	0.850
2020/01/31 02:17:22.8	92.410	-0.040	-0.710	0.830
2020/01/31 02:17:22.9	92.390	0.000	-0.790	0.810
2020/01/31 02:17:23.0	92.380	0.050	-0.860	0.780
2020/01/31 02:17:23.1	92.360	0.100	-0.930	0.760
2020/01/31 02:17:23.2	92.350	0.140	-0.990	0.730
2020/01/31 02:17:23.3	92.330	0.180	-1.040	0.700
2020/01/31 02:17:23.4	92.320	0.220	-1.090	0.670
2020/01/31 02:17:23.5	92.310	0.260	-1.130	0.640
2020/01/31 02:17:23.6	92.310	0.290	-1.160	0.610
2020/01/31 02:17:23.7	92.300	0.330	-1.180	0.570
2020/01/31 02:17:23.8	92.300	0.360	-1.200	0.540
2020/01/31 02:17:23.9	92.290	0.390	-1.210	0.510
2020/01/31 02:17:24.0	92.290	0.410	-1.220	0.480
2020/01/31 02:17:24.1	92.290	0.430	-1.210	0.450
2020/01/31 02:17:24.2	92.290	0.450	-1.200	0.420
2020/01/31 02:17:24.3	92.290	0.470	-1.180	0.390
2020/01/31 02:17:24.4	92.290	0.490	-1.160	0.360
2020/01/31 02:17:24.5	92.290	0.500	-1.130	0.330
2020/01/31 02:17:24.6	92.300	0.510	-1.100	0.310
2020/01/31 02:17:24.7	92.300	0.510	-1.050	0.290
2020/01/31 02:17:24.8	92.300	0.520	-1.010	0.270
2020/01/31 02:17:24.9	92.300	0.520	-0.950	0.250
2020/01/31 02:17:25.0	92.310	0.520	-0.900	0.240
2020/01/31 02:17:25.1	92.310	0.510	-0.830	0.230
2020/01/31 02:17:25.2	92.310	0.500	-0.770	0.220
2020/01/31 02:17:25.3	92.310	0.500	-0.700	0.210
2020/01/31 02:17:25.4	92.310	0.480	-0.630	0.210
2020/01/31 02:17:25.5	92.310	0.470	-0.550	0.210
2020/01/31 02:17:25.6	92.310	0.460	-0.480	0.210
2020/01/31 02:17:25.7	92.310	0.440	-0.400	0.210
2020/01/31 02:17:25.8	92.310	0.420	-0.330	0.220
2020/01/31 02:17:25.9	92.310	0.400	-0.250	0.220
2020/01/31 02:17:26.0	92.310	0.380	-0.180	0.230
2020/01/31 02:17:26.1	92.310	0.350	-0.100	0.240
2020/01/31 02:17:26.2	92.310	0.330	-0.030	0.260
2020/01/31 02:17:26.3	92.310	0.300	0.030	0.270
2020/01/31 02:17:26.4	92.310	0.280	0.090	0.290
2020/01/31 02:17:26.5	92.310	0.260	0.150	0.300
2020/01/31 02:17:26.6	92.310	0.230	0.200	0.320
2020/01/31 02:17:26.7	92.320	0.210	0.250	0.340
2020/01/31 02:17:26.8	92.320	0.180	0.290	0.360
2020/01/31 02:17:26.9	92.330	0.160	0.320	0.380
2020/01/31 02:17:27.0	92.330	0.140	0.350	0.400
2020/01/31 02:17:27.1	92.340	0.120	0.370	0.420
2020/01/31 02:17:27.2	92.350	0.100	0.390	0.440
2020/01/31 02:17:27.3	92.350	0.080	0.400	0.470
2020/01/31 02:17:27.4	92.360	0.060	0.410	0.490
2020/01/31 02:17:27.5	92.370	0.050	0.420	0.510
2020/01/31 02:17:27.6	92.380	0.030	0.420	0.530
2020/01/31 02:17:27.7	92.390	0.020	0.410	0.560
2020/01/31 02:17:27.8	92.390	0.010	0.410	0.580
2020/01/31 02:17:27.9	92.400	-0.000	0.400	0.610
2020/01/31 02:17:28.0	92.410	-0.010	0.380	0.640
2020/01/31 02:17:28.1	92.420	-0.020	0.370	0.680
2020/01/31 02:17:28.2	92.430	-0.030	0.350	0.710
2020/01/31 02:17:28.3	92.430	-0.040	0.340	0.740
2020/01/31 02:17:28.4	92.430	-0.040	0.320	0.780
2020/01/31 02:17:28.5	92.440	-0.050	0.300	0.820
2020/01/31 02:17:28.6	92.440	-0.060	0.280	0.850
2020/01/31 02:17:28.7	92.440	-0.060	0.260	0.900
2020/01/31 02:17:28.8	92.440	-0.070	0.240	0.940
2020/01/31 02:17:28.9	92.430	-0.070	0.220	0.980
2020/01/31 02:17:29.0	92.430	-0.080	0.200	1.030
2020/01/31 02:17:29.1	92.430	-0.080	0.190	1.080
2020/01/31 02:17:29.2	92.420	-0.090	0.170	1.120
2020/01/31 02:17:29.3	92.420	-0.100	0.150	1.170
2020/01/31 02:17:29.4	92.410	-0.110	0.140	1.220
2020/01/31 02:17:29.5	92.400	-0.110	0.120	1.260
2020/01/31 02:17:29.6	92.390	-0.120	0.110	1.310
2020/01/31 02:17:29.7	92.380	-0.130	0.090	1.350
2020/01/31 02:17:29.8	92.370	-0.140	0.070	1.400
2020/01/31 02:17:29.9	92.350	-0.150	0.060	1.440
2020/01/31 02:17:30.0	92.340	-0.160	0.040	1.480
2020/01/31 02:17:30.1	92.320	-0.170	0.020	1.520
2020/01/31 02:17:30.2	92.310	-0.180	0.000	1.550
2020/01/31 02:17:30.3	92.290	-0.190	-0.020	1.580
2020/01/31 02:17:30.4	92.280	-0.200	-0.040	1.610
2020/01/31 02:17:30.5	92.260	-0.210	-0.060	1.630
2020/01/31 02:17:30.6	92.240	-0.220	-0.080	1.650
2020/01/31 02:17:30.7	92.230	-0.230	-0.100	1.670
2020/01/31 02:17:30.8	92.210	-0.240	-0.130	1.680
2020/01/31 02:17:30.9	92.200	-0.250	-0.160	1.690
2020/01/31 02:17:31.0	92.180	-0.250	-0.180	1.700
2020/01/31 02:17:31.1	92.170	-0.260	-0.210	1.700
2020/01/31 02:17:31.2	92.150	-0.260	-0.240	1.700
2020/01/31 02:17:31.3	92.140	-0.260	-0.270	1.700
2020/01/31 02:17:31.4	92.120	-0.260	-0.300	1.700
2020/01/31 02:17:31.5	92.110	-0.260	-0.330	1.690
2020/01/31 02:17:31.6	92.100	-0.260	-0.360	1.680
2020/01/31 02:17:31.7	92.090	-0.250	-0.390	1.670
2020/01/31 02:17:31.8	92.080	-0.240	-0.430	1.660
2020/01/31 02:17:31.9	92.070	-0.230	-0.460	1.650
2020/01/31 02:17:32.0	92.060	-0.220	-0.490	1.640
2020/01/31 02:17:32.1	92.070	-0.200	-0.510	1.620
2020/01/31 02:17:32.2	92.060	-0.190	-0.540	1.610
2020/01/31 02:17:32.3	92.060	-0.170	-0.570	1.590
2020/01/31 02:17:32.4	92.050	-0.150	-0.590	1.570
2020/01/31 02:17:32.5	92.050	-0.130	-0.620	1.550
2020/01/31 02:17:32.6	92.060	-0.110	-0.640	1.530
2020/01/31 02:17:32.7	92.060	-0.080	-0.660	1.510
2020/01/31 02:17:32.8	92.060	-0.060	-0.680	1.490
2020/01/31 02:17:32.9	92.070	-0.030	-0.690	1.460
2020/01/31 02:17:33.0	92.070	-0.000	-0.700	1.440
2020/01/31 02:17:33.1	92.070	0.020	-0.720	1.420
2020/01/31 02:17:33.2	92.080	0.050	-0.720	1.390
2020/01/31 02:17:33.3	92.090	0.080	-0.730	1.360
2020/01/31 02:17:33.4	92.100	0.100	-0.730	1.330
2020/01/31 02:17:33.5	92.110	0.130	-0.720	1.300
2020/01/31 02:17:33.6	92.120	0.150	-0.710	1.260
2020/01/31 02:17:33.7	92.130	0.180	-0.700	1.230
2020/01/31 02:17:33.8	92.140	0.200	-0.690	1.200
2020/01/31 02:17:33.9	92.150	0.220	-0.670	1.160
2020/01/31 02:17:34.0	92.160	0.230	-0.650	1.130
2020/01/31 02:17:34.1	92.160	0.250	-0.620	1.090
2020/01/31 02:17:34.2	92.170	0.260	-0.590	1.060
2020/01/31 02:17:34.3	92.180	0.270	-0.550	1.020
2020/01/31 02:17:34.4	92.180	0.270	-0.510	0.990
2020/01/31 02:17:34.5	92.190	0.270	-0.470	0.950
2020/01/31 02:17:34.6	92.190	0.270	-0.420	0.920
2020/01/31 02:17:34.7	92.190	0.260	-0.370	0.880
2020/01/31 02:17:34.8	92.190	0.250	-0.310	0.850
2020/01/31 02:17:34.9	92.190	0.240	-0.250	0.820
2020/01/31 02:17:35.0	92.190	0.220	-0.190	0.790
2020/01/31 02:17:35.1	92.190	0.200	-0.130	0.760
2020/01/31 02:17:35.2	92.190	0.180	-0.070	0.730
2020/01/31 02:17:35.3	92.190	0.150	-0.000	0.710
2020/01/31 02:17:35.4	92.180	0.130	0.060	0.680
2020/01/31 02:17:35.5	92.180	0.100	0.120	0.660
2020/01/31 02:17:35.6	92.170	0.060	0.190	0.640
2020/01/31 02:17:35.7	92.170	0.030	0.250	0.620
2020/01/31 02:17:35.8	92.160	-0.010	0.300	0.600
2020/01/31 02:17:35.9	92.150	-0.050	0.360	0.580
2020/01/31 02:17:36.0	92.150	-0.080	0.410	0.570
2020/01/31 02:17:36.1	92.140	-0.120	0.450	0.560
2020/01/31 02:17:36.2	92.140	-0.160	0.490	0.550
2020/01/31 02:17:36.3	92.130	-0.190	0.520	0.540
2020/01/31 02:17:36.4	92.130	-0.220	0.550	0.530
2020/01/31 02:17:36.5	92.120	-0.260	0.570	0.520
2020/01/31 02:17:36.6	92.120	-0.280	0.580	0.510
2020/01/31 02:17:36.7	92.110	-0.310	0.580	0.500
2020/01/31 02:17:36.8	92.110	-0.330	0.580	0.490
2020/01/31 02:17:36.9	92.110	-0.350	0.560	0.480
2020/01/31 02:17:37.0	92.100	-0.370	0.540	0.470
2020/01/31 02:17:37.1	92.100	-0.380	0.510	0.460
2020/01/31 02:17:37.2	92.100	-0.390	0.480	0.450
2020/01/31 02:17:37.3	92.100	-0.400	0.440	0.440
2020/01/31 02:17:37.4	92.100	-0.400	0.390	0.430
2020/01/31 02:17:37.5	92.110	-0.390	0.340	0.410
2020/01/31 02:17:37.6	92.110	-0.390	0.280	0.400
2020/01/31 02:17:37.7	92.110	-0.380	0.210	0.380
2020/01/31 02:17:37.8	92.110	-0.360	0.150	0.370
2020/01/31 02:17:37.9	92.120	-0.340	0.070	0.360
2020/01/31 02:17:38.0	92.120	-0.320	0.000	0.340
2020/01/31 02:17:38.1	92.130	-0.300	-0.080	0.330
2020/01/31 02:17:38.2	92.130	-0.270	-0.150	0.310
2020/01/31 02:17:38.3	92.140	-0.240	-0.230	0.300
2020/01/31 02:17:38.4	92.140	-0.200	-0.310	0.280
2020/01/31 02:17:38.5	92.150	-0.170	-0.390	0.270
2020/01/31 02:17:38.6	92.160	-0.130	-0.470	0.250
2020/01/31 02:17:38.7	92.170	-0.090	-0.550	0.240
2020/01/31 02:17:38.8	92.180	-0.050	-0.620	0.230
2020/01/31 02:17:38.9	92.190	-0.010	-0.690	0.220
2020/01/31 02:17:39.0	92.200	0.030	-0.760	0.210
2020/01/31 02:17:39.1	92.210	0.080	-0.830	0.210
2020/01/31 02:17:39.2	92.230	0.120	-0.890	0.200
2020/01/31 02:17:39.3	92.240	0.160	-0.950	0.190
2020/01/31 02:17:39.4	92.250	0.210	-1.000	0.190
2020/01/31 02:17:39.5	92.270	0.250	-1.040	0.190
2020/01/31 02:17:39.6	92.280	0.290	-1.080	0.190
2020/01/31 02:17:39.7	92.290	0.330	-1.120	0.200
2020/01/31 02:17:39.8	92.310	0.370	-1.140	0.200
2020/01/31 02:17:39.9	92.320	0.400	-1.160	0.210
2020/01/31 02:17:40.0	92.330	0.440	-1.170	0.220
2020/01/31 02:17:40.1	92.340	0.470	-1.170	0.230
2020/01/31 02:17:40.2	92.350	0.500	-1.170	0.250
2020/01/31 02:17:40.3	92.360	0.520	-1.160	0.260
2020/01/31 02:17:40.4	92.370	0.540	-1.130	0.280
2020/01/31 02:17:40.5	92.370	0.560	-1.110	0.300
2020/01/31 02:17:40.6	92.380	0.580	-1.070	0.320
2020/01/31 02:17:40.7	92.380	0.590	-1.030	0.340
2020/01/31 02:17:40.8	92.380	0.600	-0.980	0.360
2020/01/31 02:17:40.9	92.380	0.600	-0.920	0.380
2020/01/31 02:17:41.0	92.380	0.600	-0.850	0.410
2020/01/31 02:17:41.1	92.390	0.600	-0.780	0.430
2020/01/31 02:17:41.2	92.390	0.590	-0.710	0.460
2020/01/31 02:17:41.3	92.380	0.580	-0.630	0.480
2020/01/31 02:17:41.4	92.380	0.570	-0.550	0.510
2020/01/31 02:17:41.5	92.370	0.550	-0.460	0.540
2020/01/31 02:17:41.6	92.360	0.520	-0.370	0.570
2020/01/31 02:17:41.7	92.360	0.500	-0.280	0.600
2020/01/31 02:17:41.8	92.350	0.470	-0.190	0.630
2020/01/31 02:17:41.9	92.340	0.430	-0.090	0.660
2020/01/31 02:17:42.0	92.330	0.390	0.000	0.700
2020/01/31 02:17:42.1	92.330	0.350	0.100	0.740
2020/01/31 02:17:42.2	92.320	0.310	0.190	0.780
2020/01/31 02:17:42.3	92.310	0.270	0.280	0.820
2020/01/31 02:17:42.4	92.300	0.220	0.370	0.850
2020/01/31 02:17:42.5	92.300	0.170	0.460	0.890
2020/01/31 02:17:42.6	92.290	0.120	0.540	0.930
2020/01/31 02:17:42.7	92.280	0.070	0.620	0.970
2020/01/31 02:17:42.8	92.280	0.020	0.690	1.010
2020/01/31 02:17:42.9	92.270	-0.030	0.760	1.050
2020/01/31 02:17:43.0	92.260	-0.090	0.820	1.080
2020/01/31 02:17:43.1	92.250	-0.140	0.880	1.120
2020/01/31 02:17:43.2	92.240	-0.190	0.930	1.150
2020/01/31 02:17:43.3	92.240	-0.240	0.970	1.190
2020/01/31 02:17:43.4	92.230	-0.290	1.000	1.220
2020/01/31 02:17:43.5	92.220	-0.340	1.030	1.250
2020/01/31 02:17:43.6	92.220	-0.380	1.050	1.280
2020/01/31 02:17:43.7	92.210	-0.420	1.060	1.310
2020/01/31 02:17:43.8	92.200	-0.460	1.060	1.340
2020/01/31 02:17:43.9	92.190	-0.500	1.050	1.360
2020/01/31 02:17:44.0	92.190	-0.530	1.030	1.370
2020/01/31 02:17:44.1	92.170	-0.560	1.000	1.390
2020/01/31 02:17:44.2	92.170	-0.580	0.960	1.400
2020/01/31 02:17:44.3	92.160	-0.600	0.920	1.410
2020/01/31 02:17:44.4	92.160	-0.610	0.860	1.410
2020/01/31 02:17:44.5	92.160	-0.620	0.790	1.400
2020/01/31 02:17:44.6	92.160	-0.620	0.710	1.390
2020/01/31 02:17:44.7	92.160	-0.620	0.630	1.380
2020/01/31 02:17:44.8	92.160	-0.610	0.530	1.360
2020/01/31 02:17:44.9	92.160	-0.600	0.440	1.340
2020/01/31 02:17:45.0	92.170	-0.580	0.330	1.320
2020/01/31 02:17:45.1	92.180	-0.550	0.210	1.290
2020/01/31 02:17:45.2	92.190	-0.530	0.100	1.260
2020/01/31 02:17:45.3	92.190	-0.490	-0.020	1.240
2020/01/31 02:17:45.4	92.200	-0.460	-0.140	1.210
2020/01/31 02:17:45.5	92.220	-0.420	-0.260	1.180
2020/01/31 02:17:45.6	92.230	-0.370	-0.390	1.150
2020/01/31 02:17:45.7	92.240	-0.320	-0.510	1.120
2020/01/31 02:17:45.8	92.250	-0.270	-0.620	1.090
2020/01/31 02:17:45.9	92.260	-0.220	-0.740	1.070
2020/01/31 02:17:46.0	92.270	-0.170	-0.840	1.040
2020/01/31 02:17:46.1	92.290	-0.120	-0.950	1.030
2020/01/31 02:17:46.2	92.300	-0.070	-1.040	1.010
2020/01/31 02:17:46.3	92.310	-0.010	-1.130	1.000
2020/01/31 02:17:46.4	92.310	0.040	-1.210	0.990
2020/01/31 02:17:46.5	92.320	0.090	-1.270	0.980
2020/01/31 02:17:46.6	92.320	0.130	-1.330	0.970
2020/01/31 02:17:46.7	92.320	0.180	-1.380	0.970
2020/01/31 02:17:46.8	92.320	0.220	-1.410	0.960
2020/01/31 02:17:46.9	92.320	0.250	-1.440	0.960
2020/01/31 02:17:47.0	92.320	0.280	-1.450	0.960
2020/01/31 02:17:47.1	92.320	0.310	-1.450	0.970
2020/01/31 02:17:47.2	92.310	0.340	-1.440	0.970
2020/01/31 02:17:47.3	92.310	0.350	-1.420	0.970
2020/01/31 02:17:47.4	92.300	0.370	-1.390	0.980
2020/01/31 02:17:47.5	92.300	0.380	-1.340	0.980
2020/01/31 02:17:47.6	92.290	0.380	-1.290	0.990
2020/01/31 02:17:47.7	92.280	0.380	-1.230	1.000
2020/01/31 02:17:47.8	92.280	0.370	-1.160	1.000
2020/01/31 02:17:47.9	92.270	0.360	-1.080	1.010
2020/01/31 02:17:48.0	92.270	0.340	-1.000	1.020
2020/01/31 02:17:48.1	92.280	0.320	-0.910	1.030
2020/01/31 02:17:48.2	92.280	0.300	-0.810	1.030
2020/01/31 02:17:48.3	92.280	0.270	-0.710	1.040
2020/01/31 02:17:48.4	92.280	0.240	-0.610	1.050
2020/01/31 02:17:48.5	92.280	0.200	-0.500	1.050
2020/01/31 02:17:48.6	92.280	0.170	-0.400	1.050
2020/01/31 02:17:48.7	92.290	0.130	-0.290	1.060
2020/01/31 02:17:48.8	92.300	0.090	-0.190	1.060
2020/01/31 02:17:48.9	92.300	0.050	-0.090	1.060
2020/01/31 02:17:49.0	92.310	0.000	0.010	1.060
2020/01/31 02:17:49.1	92.320	-0.040	0.110	1.060
2020/01/31 02:17:49.2	92.330	-0.080	0.200	1.060
2020/01/31 02:17:49.3	92.340	-0.120	0.280	1.070
2020/01/31 02:17:49.4	92.350	-0.160	0.360	1.070
2020/01/31 02:17:49.5	92.350	-0.200	0.440	1.070
2020/01/31 02:17:49.6	92.360	-0.240	0.500	1.070
2020/01/31 02:17:49.7	92.360	-0.270	0.560	1.070
2020/01/31 02:17:49.8	92.360	-0.310	0.610	1.070
2020/01/31 02:17:49.9	92.370	-0.340	0.650	1.070
2020/01/31 02:17:50.0	92.370	-0.360	0.690	1.070
2020/01/31 02:17:50.1	92.370	-0.390	0.720	1.070
2020/01/31 02:17:50.2	92.370	-0.400	0.730	1.060
2020/01/31 02:17:50.3	92.370	-0.420	0.740	1.050
2020/01/31 02:17:50.4	92.360	-0.430	0.730	1.040
2020/01/31 02:17:50.5	92.360	-0.430	0.720	1.030
2020/01/31 02:17:50.6	92.350	-0.430	0.690	1.010
2020/01/31 02:17:50.7	92.350	-0.430	0.660	1.000
2020/01/31 02:17:50.8	92.340	-0.420	0.620	0.980
2020/01/31 02:17:50.9	92.330	-0.410	0.570	0.960
2020/01/31 02:17:51.0	92.320	-0.390	0.510	0.940
2020/01/31 02:17:51.1	92.320	-0.370	0.450	0.910
2020/01/31 02:17:51.2	92.310	-0.340	0.380	0.880
2020/01/31 02:17:51.3	92.300	-0.310	0.300	0.850
2020/01/31 02:17:51.4	92.290	-0.270	0.220	0.820
2020/01/31 02:17:51.5	92.280	-0.240	0.140	0.790
2020/01/31 02:17:51.6	92.280	-0.200	0.050	0.760
2020/01/31 02:17:51.7	92.270	-0.150	-0.040	0.730
2020/01/31 02:17:51.8	92.260	-0.110	-0.120	0.700
2020/01/31 02:17:51.9	92.260	-0.060	-0.210	0.670
2020/01/31 02:17:52.0	92.260	-0.010	-0.300	0.640
2020/01/31 02:17:52.1	92.260	0.030	-0.390	0.610
2020/01/31 02:17:52.2	92.260	0.080	-0.470	0.590
2020/01/31 02:17:52.3	92.260	0.130	-0.550	0.570
2020/01/31 02:17:52.4	92.260	0.180	-0.620	0.550
2020/01/31 02:17:52.5	92.250	0.220	-0.690	0.530
2020/01/31 02:17:52.6	92.250	0.260	-0.750	0.520
2020/01/31 02:17:52.7	92.250	0.300	-0.810	0.510
2020/01/31 02:17:52.8	92.250	0.340	-0.850	0.500
2020/01/31 02:17:52.9	92.250	0.370	-0.890	0.490
2020/01/31 02:17:53.0	92.250	0.400	-0.920	0.490
2020/01/31 02:17:53.1	92.250	0.420	-0.940	0.490
2020/01/31 02:17:53.2	92.240	0.440	-0.950	0.490
2020/01/31 02:17:53.3	92.240	0.460	-0.950	0.490
2020/01/31 02:17:53.4	92.230	0.470	-0.940	0.490
2020/01/31 02:17:53.5	92.230	0.470	-0.920	0.490
2020/01/31 02:17:53.6	92.220	0.470	-0.900	0.480
2020/01/31 02:17:53.7	92.220	0.470	-0.860	0.480
2020/01/31 02:17:53.8	92.210	0.460	-0.810	0.470
2020/01/31 02:17:53.9	92.200	0.440	-0.760	0.470
2020/01/31 02:17:54.0	92.190	0.420	-0.700	0.460
2020/01/31 02:17:54.1	92.180	0.400	-0.630	0.450
2020/01/31 02:17:54.2	92.170	0.370	-0.560	0.440
2020/01/31 02:17:54.3	92.150	0.350	-0.480	0.420
2020/01/31 02:17:54.4	92.140	0.310	-0.400	0.410
2020/01/31 02:17:54.5	92.130	0.280	-0.320	0.400
2020/01/31 02:17:54.6	92.120	0.240	-0.230	0.390
2020/01/31 02:17:54.7	92.100	0.200	-0.140	0.370
2020/01/31 02:17:54.8	92.090	0.170	-0.060	0.360
2020/01/31 02:17:54.9	92.070	0.130	0.030	0.350
2020/01/31 02:17:55.0	92.060	0.090	0.110	0.340
2020/01/31 02:17:55.1	92.040	0.050	0.190	0.330
2020/01/31 02:17:55.2	92.030	0.020	0.260	0.330
2020/01/31 02:17:55.3	92.010	-0.010	0.320	0.320
2020/01/31 02:17:55.4	92.000	-0.050	0.380	0.320
2020/01/31 02:17:55.5	91.990	-0.070	0.420	0.320
2020/01/31 02:17:55.6	91.980	-0.100	0.460	0.320
2020/01/31 02:17:55.7	91.970	-0.120	0.490	0.330
2020/01/31 02:17:55.8	91.960	-0.130	0.510	0.330
2020/01/31 02:17:55.9	91.960	-0.140	0.520	0.340
2020/01/31 02:17:56.0	91.950	-0.150	0.510	0.350
2020/01/31 02:17:56.1	91.940	-0.160	0.500	0.360
2020/01/31 02:17:56.2	91.940	-0.160	0.490	0.380
2020/01/31 02:17:56.3	91.930	-0.150	0.460	0.390
2020/01/31 02:17:56.4	91.930	-0.150	0.430	0.410
2020/01/31 02:17:56.5	91.930	-0.140	0.390	0.420
2020/01/31 02:17:56.6	91.930	-0.130	0.340	0.440
2020/01/31 02:17:56.7	91.930	-0.120	0.290	0.460
2020/01/31 02:17:56.8	91.930	-0.100	0.240	0.480
2020/01/31 02:17:56.9	91.930	-0.090	0.180	0.500
2020/01/31 02:17:57.0	91.930	-0.070	0.120	0.510
2020/01/31 02:17:57.1	91.940	-0.060	0.050	0.530
2020/01/31 02:17:57.2	91.940	-0.040	-0.010	0.540
2020/01/31 02:17:57.3	91.940	-0.020	-0.070	0.560
2020/01/31 02:17:57.4	91.950	-0.000	-0.130	0.570
2020/01/31 02:17:57.5	91.960	0.010	-0.200	0.580
2020/01/31 02:17:57.6	91.960	0.030	-0.260	0.590
2020/01/31 02:17:57.7	91.970	0.040	-0.310	0.590
2020/01/31 02:17:57.8	91.980	0.060	-0.370	0.600
2020/01/31 02:17:57.9	91.990	0.070	-0.420	0.600
2020/01/31 02:17:58.0	92.000	0.080	-0.470	0.610
2020/01/31 02:17:58.1	92.010	0.090	-0.510	0.620
2020/01/31 02:17:58.2	92.030	0.100	-0.550	0.630
2020/01/31 02:17:58.3	92.040	0.100	-0.580	0.630
2020/01/31 02:17:58.4	92.050	0.110	-0.610	0.640
2020/01/31 02:17:58.5	92.070	0.110	-0.640	0.650
2020/01/31 02:17:58.6	92.080	0.110	-0.660	0.660
2020/01/31 02:17:58.7	92.100	0.110	-0.670	0.680
2020/01/31 02:17:58.8	92.110	0.100	-0.680	0.700
2020/01/31 02:17:58.9	92.120	0.100	-0.680	0.720
2020/01/31 02:17:59.0	92.140	0.090	-0.680	0.740
2020/01/31 02:17:59.1	92.150	0.090	-0.680	0.760
2020/01/31 02:17:59.2	92.160	0.080	-0.670	0.790
2020/01/31 02:17:59.3	92.180	0.070	-0.650	0.820
2020/01/31 02:17:59.4	92.190	0.060	-0.640	0.850
2020/01/31 02:17:59.5	92.200	0.050	-0.610	0.880
2020/01/31 02:17:59.6	92.210	0.040	-0.590	0.920
2020/01/31 02:17:59.7	92.210	0.030	-0.560	0.960
2020/01/31 02:17:59.8	92.220	0.010	-0.530	1.000
2020/01/31 02:17:59.9	92.230	0.000	-0.490	1.040
2020/01/31 02:18:00.0	92.240	-0.010	-0.460	1.080
2020/01/31 02:18:00.1	92.250	-0.020	-0.410	1.120
2020/01/31 02:18:00.2	92.260	-0.040	-0.370	1.160
2020/01/31 02:18:00.3	92.260	-0.050	-0.330	1.200
2020/01/31 02:18:00.4	92.270	-0.060	-0.290	1.240
2020/01/31 02:18:00.5	92.270	-0.080	-0.250	1.270
2020/01/31 02:18:00.6	92.280	-0.090	-0.210	1.310
2020/01/31 02:18:00.7	92.280	-0.110	-0.170	1.350
2020/01/31 02:18:00.8	92.280	-0.120	-0.130	1.380
2020/01/31 02:18:00.9	92.280	-0.130	-0.090	1.410
2020/01/31 02:18:01.0	92.280	-0.150	-0.050	1.450
2020/01/31 02:18:01.1	92.270	-0.160	-0.020	1.480
2020/01/31 02:18:01.2	92.270	-0.180	0.020	1.510
2020/01/31 02:18:01.3	92.270	-0.190	0.050	1.530
2020/01/31 02:18:01.4	92.270	-0.210	0.090	1.560
2020/01/31 02:18:01.5	92.260	-0.220	0.120	1.590
2020/01/31 02:18:01.6	92.260	-0.240	0.150	1.610
2020/01/31 02:18:01.7	92.260	-0.250	0.180	1.630
2020/01/31 02:18:01.8	92.250	-0.270	0.200	1.660
2020/01/31 02:18:01.9	92.250	-0.280	0.220	1.670
2020/01/31 02:18:02.0	92.250	-0.300	0.250	1.690
2020/01/31 02:18:02.1	92.240	-0.310	0.270	1.710
2020/01/31 02:18:02.2	92.240	-0.330	0.280	1.720
2020/01/31 02:18:02.3	92.240	-0.340	0.300	1.730
2020/01/31 02:18:02.4	92.240	-0.360	0.310	1.740
2020/01/31 02:18:02.5	92.240	-0.370	0.310	1.750
2020/01/31 02:18:02.6	92.240	-0.380	0.310	1.750
2020/01/31 02:18:02.7	92.240	-0.390	0.310	1.750
2020/01/31 02:18:02.8	92.240	-0.400	0.310	1.740
2020/01/31 02:18:02.9	92.250	-0.400	0.300	1.730
2020/01/31 02:18:03.0	92.250	-0.410	0.280	1.720
2020/01/31 02:18:03.1	92.260	-0.410	0.270	1.710
2020/01/31 02:18:03.2	92.260	-0.410	0.240	1.690
2020/01/31 02:18:03.3	92.270	-0.410	0.210	1.660
2020/01/31 02:18:03.4	92.270	-0.400	0.180	1.640
2020/01/31 02:18:03.5	92.280	-0.390	0.140	1.610
2020/01/31 02:18:03.6	92.290	-0.380	0.100	1.570
2020/01/31 02:18:03.7	92.290	-0.360	0.050	1.530
2020/01/31 02:18:03.8	92.300	-0.340	0.000	1.490
2020/01/31 02:18:03.9	92.310	-0.320	-0.050	1.450
2020/01/31 02:18:04.0	92.330	-0.290	-0.110	1.400
2020/01/31 02:18:04.1	92.330	-0.260	-0.170	1.350
2020/01/31 02:18:04.2	92.350	-0.220	-0.240	1.300
2020/01/31 02:18:04.3	92.360	-0.190	-0.310	1.250
2020/01/31 02:18:04.4	92.380	-0.150	-0.370	1.190
2020/01/31 02:18:04.5	92.390	-0.100	-0.440	1.140
2020/01/31 02:18:04.6	92.400	-0.060	-0.510	1.090
2020/01/31 02:18:04.7	92.420	-0.010	-0.580	1.030
2020/01/31 02:18:04.8	92.430	0.030	-0.640	0.980
2020/01/31 02:18:04.9	92.440	0.080	-0.700	0.930
2020/01/31 02:18:05.0	92.450	0.130	-0.760	0.880
2020/01/31 02:18:05.1	92.460	0.180	-0.820	0.820
2020/01/31 02:18:05.2	92.470	0.230	-0.860	0.770
2020/01/31 02:18:05.3	92.470	0.270	-0.910	0.730
2020/01/31 02:18:05.4	92.480	0.320	-0.940	0.680
2020/01/31 02:18:05.5	92.480	0.360	-0.970	0.640
2020/01/31 02:18:05.6	92.480	0.400	-0.990	0.590
2020/01/31 02:18:05.7	92.470	0.440	-1.000	0.550
2020/01/31 02:18:05.8	92.470	0.470	-1.010	0.510
2020/01/31 02:18:05.9	92.460	0.500	-1.000	0.470
2020/01/31 02:18:06.0	92.450	0.520	-0.990	0.430
2020/01/31 02:18:06.1	92.440	0.540	-0.970	0.400
2020/01/31 02:18:06.2	92.420	0.550	-0.940	0.370
2020/01/31 02:18:06.3	92.400	0.560	-0.900	0.330
2020/01/31 02:18:06.4	92.380	0.570	-0.850	0.300
2020/01/31 02:18:06.5	92.360	0.570	-0.800	0.270
2020/01/31 02:18:06.6	92.340	0.560	-0.740	0.240
2020/01/31 02:18:06.7	92.320	0.550	-0.670	0.210
2020/01/31 02:18:06.8	92.290	0.540	-0.600	0.190
2020/01/31 02:18:06.9	92.260	0.520	-0.520	0.160
2020/01/31 02:18:07.0	92.240	0.500	-0.440	0.140
2020/01/31 02:18:07.1	92.210	0.470	-0.340	0.120
2020/01/31 02:18:07.2	92.180	0.440	-0.260	0.100
2020/01/31 02:18:07.3	92.160	0.410	-0.170	0.080
2020/01/31 02:18:07.4	92.130	0.370	-0.080	0.070
2020/01/31 02:18:07.5	92.100	0.330	0.010	0.050
2020/01/31 02:18:07.6	92.070	0.290	0.100	0.040
2020/01/31 02:18:07.7	92.050	0.250	0.190	0.030
2020/01/31 02:18:07.8	92.020	0.210	0.270	0.020
2020/01/31 02:18:07.9	92.000	0.160	0.350	0.010
2020/01/31 02:18:08.0	91.980	0.120	0.420	-0.010
2020/01/31 02:18:08.1	91.970	0.080	0.490	-0.010
2020/01/31 02:18:08.2	91.950	0.030	0.550	-0.020
2020/01/31 02:18:08.3	91.940	-0.010	0.600	-0.030
2020/01/31 02:18:08.4	91.930	-0.050	0.640	-0.050
2020/01/31 02:18:08.5	91.920	-0.080	0.680	-0.060
2020/01/31 02:18:08.6	91.920	-0.120	0.700	-0.070
2020/01/31 02:18:08.7	91.910	-0.150	0.720	-0.080
2020/01/31 02:18:08.8	91.910	-0.170	0.720	-0.100
2020/01/31 02:18:08.9	91.910	-0.200	0.720	-0.110
2020/01/31 02:18:09.0	91.920	-0.220	0.700	-0.130
2020/01/31 02:18:09.1	91.930	-0.230	0.670	-0.140
2020/01/31 02:18:09.2	91.940	-0.240	0.630	-0.150
2020/01/31 02:18:09.3	91.950	-0.240	0.590	-0.160
2020/01/31 02:18:09.4	91.960	-0.250	0.530	-0.170
2020/01/31 02:18:09.5	91.980	-0.240	0.470	-0.180
2020/01/31 02:18:09.6	91.990	-0.230	0.390	-0.190
2020/01/31 02:18:09.7	92.010	-0.220	0.310	-0.200
2020/01/31 02:18:09.8	92.030	-0.210	0.230	-0.200
2020/01/31 02:18:09.9	92.050	-0.190	0.140	-0.210
2020/01/31 02:18:10.0	92.070	-0.160	0.040	-0.210
2020/01/31 02:18:10.1	92.080	-0.140	-0.060	-0.200
2020/01/31 02:18:10.2	92.110	-0.110	-0.160	-0.200
2020/01/31 02:18:10.3	92.130	-0.080	-0.270	-0.190
2020/01/31 02:18:10.4	92.150	-0.050	-0.380	-0.180
2020/01/31 02:18:10.5	92.180	-0.010	-0.480	-0.170
2020/01/31 02:18:10.6	92.200	0.030	-0.590	-0.150
2020/01/31 02:18:10.7	92.230	0.060	-0.690	-0.130
2020/01/31 02:18:10.8	92.250	0.100	-0.790	-0.110
2020/01/31 02:18:10.9	92.280	0.140	-0.890	-0.080
2020/01/31 02:18:11.0	92.300	0.180	-0.980	-0.050
2020/01/31 02:18:11.1	92.320	0.210	-1.070	-0.020
2020/01/31 02:18:11.2	92.340	0.250	-1.140	0.020
2020/01/31 02:18:11.3	92.360	0.290	-1.210	0.070
2020/01/31 02:18:11.4	92.380	0.320	-1.270	0.120
2020/01/31 02:18:11.5	92.390	0.350	-1.310	0.170
2020/01/31 02:18:11.6	92.400	0.380	-1.350	0.230
2020/01/31 02:18:11.7	92.410	0.400	-1.370	0.290
2020/01/31 02:18:11.8	92.420	0.420	-1.380	0.360
2020/01/31 02:18:11.9	92.420	0.430	-1.370	0.430
2020/01/31 02:18:12.0	92.420	0.440	-1.350	0.490
2020/01/31 02:18:12.1	92.430	0.450	-1.310	0.580
2020/01/31 02:18:12.2	92.430	0.450	-1.260	0.650
2020/01/31 02:18:12.3	92.420	0.440	-1.200	0.730
2020/01/31 02:18:12.4	92.420	0.430	-1.120	0.800
2020/01/31 02:18:12.5	92.410	0.410	-1.030	0.870
2020/01/31 02:18:12.6	92.400	0.390	-0.920	0.950
2020/01/31 02:18:12.7	92.390	0.360	-0.810	1.020
2020/01/31 02:18:12.8	92.380	0.330	-0.680	1.090
2020/01/31 02:18:12.9	92.370	0.290	-0.550	1.150
2020/01/31 02:18:13.0	92.360	0.240	-0.410	1.220
2020/01/31 02:18:13.1	92.350	0.190	-0.260	1.280
2020/01/31 02:18:13.2	92.340	0.130	-0.110	1.340
2020/01/31 02:18:13.3	92.320	0.070	0.040	1.390
2020/01/31 02:18:13.4	92.310	0.010	0.190	1.440
2020/01/31 02:18:13.5	92.300	-0.050	0.340	1.490
2020/01/31 02:18:13.6	92.290	-0.120	0.490	1.540
2020/01/31 02:18:13.7	92.280	-0.190	0.630	1.570
2020/01/31 02:18:13.8	92.280	-0.260	0.770	1.610
2020/01/31 02:18:13.9	92.270	-0.340	0.890	1.640
2020/01/31 02:18:14.0	92.260	-0.410	1.010	1.660
2020/01/31 02:18:14.1	92.260	-0.480	1.120	1.680
2020/01/31 02:18:14.2	92.250	-0.540	1.220	1.690
2020/01/31 02:18:14.3	92.250	-0.610	1.300	1.690
2020/01/31 02:18:14.4	92.240	-0.670	1.370	1.690
2020/01/31 02:18:14.5	92.240	-0.730	1.420	1.680
2020/01/31 02:18:14.6	92.230	-0.780	1.450	1.670
2020/01/31 02:18:14.7	92.230	-0.830	1.470	1.650
2020/01/31 02:18:14.8	92.230	-0.870	1.470	1.620
2020/01/31 02:18:14.9	92.230	-0.900	1.460	1.590
2020/01/31 02:18:15.0	92.230	-0.930	1.430	1.550
2020/01/31 02:18:15.1	92.230	-0.950	1.380	1.510
2020/01/31 02:18:15.2	92.230	-0.960	1.310	1.460
2020/01/31 02:18:15.3	92.230	-0.960	1.230	1.410
2020/01/31 02:18:15.4	92.240	-0.960	1.140	1.350
2020/01/31 02:18:15.5	92.240	-0.940	1.030	1.290
2020/01/31 02:18:15.6	92.250	-0.920	0.910	1.230
2020/01/31 02:18:15.7	92.260	-0.890	0.790	1.170
2020/01/31 02:18:15.8	92.260	-0.850	0.650	1.100
2020/01/31 02:18:15.9	92.270	-0.810	0.500	1.040
2020/01/31 02:18:16.0	92.280	-0.750	0.350	0.970
2020/01/31 02:18:16.1	92.290	-0.700	0.190	0.910
2020/01/31 02:18:16.2	92.310	-0.630	0.030	0.840
2020/01/31 02:18:16.3	92.320	-0.560	-0.130	0.780
2020/01/31 02:18:16.4	92.330	-0.480	-0.290	0.730
2020/01/31 02:18:16.5	92.350	-0.400	-0.450	0.670
2020/01/31 02:18:16.6	92.360	-0.320	-0.610	0.620
2020/01/31 02:18:16.7	92.380	-0.240	-0.760	0.580
2020/01/31 02:18:16.8	92.390	-0.150	-0.900	0.540
2020/01/31 02:18:16.9	92.400	-0.070	-1.040	0.500
2020/01/31 02:18:17.0	92.410	0.020	-1.160	0.470
2020/01/31 02:18:17.1	92.420	0.100	-1.280	0.450
2020/01/31 02:18:17.2	92.420	0.180	-1.390	0.430
2020/01/31 02:18:17.3	92.420	0.260	-1.490	0.410
2020/01/31 02:18:17.4	92.420	0.340	-1.570	0.400
2020/01/31 02:18:17.5	92.420	0.400	-1.630	0.400
2020/01/31 02:18:17.6	92.410	0.470	-1.690	0.390
2020/01/31 02:18:17.7	92.400	0.520	-1.720	0.390
2020/01/31 02:18:17.8	92.390	0.570	-1.740	0.390
2020/01/31 02:18:17.9	92.380	0.610	-1.750	0.390
2020/01/31 02:18:18.0	92.360	0.640	-1.740	0.390
2020/01/31 02:18:18.1	92.340	0.670	-1.720	0.400
2020/01/31 02:18:18.2	92.320	0.680	-1.680	0.400
2020/01/31 02:18:18.3	92.300	0.690	-1.630	0.410
2020/01/31 02:18:18.4	92.270	0.690	-1.560	0.410
2020/01/31 02:18:18.5	92.250	0.680	-1.480	0.410
2020/01/31 02:18:18.6	92.220	0.670	-1.390	0.410
2020/01/31 02:18:18.7	92.190	0.640	-1.290	0.410
2020/01/31 02:18:18.8	92.150	0.610	-1.180	0.420
2020/01/31 02:18:18.9	92.120	0.570	-1.060	0.420
2020/01/31 02:18:19.0	92.080	0.530	-0.940	0.420
2020/01/31 02:18:19.1	92.050	0.480	-0.800	0.420
2020/01/31 02:18:19.2	92.010	0.430	-0.660	0.420
2020/01/31 02:18:19.3	91.970	0.370	-0.520	0.430
2020/01/31 02:18:19.4	91.940	0.310	-0.380	0.430
2020/01/31 02:18:19.5	91.900	0.240	-0.240	0.440
2020/01/31 02:18:19.6	91.870	0.180	-0.100	0.440
2020/01/31 02:18:19.7	91.830	0.110	0.040	0.450
2020/01/31 02:18:19.8	91.800	0.050	0.170	0.450
2020/01/31 02:18:19.9	91.770	-0.020	0.290	0.450
2020/01/31 02:18:20.0	91.750	-0.080	0.410	0.450
2020/01/31 02:18:20.1	91.710	-0.140	0.520	0.460
2020/01/31 02:18:20.2	91.690	-0.200	0.620	0.450
2020/01/31 02:18:20.3	91.670	-0.250	0.710	0.450
2020/01/31 02:18:20.4	91.650	-0.300	0.790	0.450
2020/01/31 02:18:20.5	91.640	-0.340	0.850	0.440
2020/01/31 02:18:20.6	91.620	-0.380	0.900	0.430
2020/01/31 02:18:20.7	91.620	-0.410	0.940	0.420
2020/01/31 02:18:20.8	91.610	-0.440	0.960	0.410
2020/01/31 02:18:20.9	91.610	-0.460	0.970	0.400
2020/01/31 02:18:21.0	91.610	-0.470	0.960	0.380
2020/01/31 02:18:21.1	91.610	-0.470	0.930	0.370
2020/01/31 02:18:21.2	91.610	-0.470	0.900	0.350
2020/01/31 02:18:21.3	91.620	-0.460	0.850	0.330
2020/01/31 02:18:21.4	91.620	-0.440	0.790	0.310
2020/01/31 02:18:21.5	91.630	-0.420	0.720	0.290
2020/01/31 02:18:21.6	91.650	-0.390	0.640	0.260
2020/01/31 02:18:21.7	91.660	-0.350	0.550	0.240
2020/01/31 02:18:21.8	91.680	-0.310	0.460	0.210
2020/01/31 02:18:21.9	91.700	-0.270	0.360	0.180
2020/01/31 02:18:22.0	91.720	-0.220	0.250	0.150
2020/01/31 02:18:22.1	91.760	-0.170	0.140	0.130
2020/01/31 02:18:22.2	91.790	-0.120	0.030	0.110
2020/01/31 02:18:22.3	91.810	-0.070	-0.080	0.090
2020/01/31 02:18:22.4	91.840	-0.010	-0.180	0.070
2020/01/31 02:18:22.5	91.870	0.040	-0.290	0.050
2020/01/31 02:18:22.6	91.900	0.100	-0.390	0.040
2020/01/31 02:18:22.7	91.930	0.150	-0.490	0.030
2020/01/31 02:18:22.8	91.950	0.210	-0.580	0.020
2020/01/31 02:18:22.9	91.980	0.260	-0.670	0.020
2020/01/31 02:18:23.0	92.010	0.310	-0.750	0.030
2020/01/31 02:18:23.1	92.030	0.350	-0.820	0.040
2020/01/31 02:18:23.2	92.050	0.400	-0.880	0.050
2020/01/31 02:18:23.3	92.070	0.440	-0.930	0.070
2020/01/31 02:18:23.4	92.090	0.470	-0.970	0.090
2020/01/31 02:18:23.5	92.110	0.500	-1.000	0.120
2020/01/31 02:18:23.6	92.120	0.530	-1.020	0.160
2020/01/31 02:18:23.7	92.130	0.550	-1.040	0.190
2020/01/31 02:18:23.8	92.140	0.570	-1.040	0.230
2020/01/31 02:18:23.9	92.140	0.590	-1.030	0.280
2020/01/31 02:18:24.0	92.150	0.590	-1.010	0.320
2020/01/31 02:18:24.1	92.150	0.600	-0.990	0.370
2020/01/31 02:18:24.2	92.150	0.600	-0.960	0.420
2020/01/31 02:18:24.3	92.140	0.590	-0.920	0.460
2020/01/31 02:18:24.4	92.130	0.580	-0.860	0.510
2020/01/31 02:18:24.5	92.120	0.560	-0.810	0.560
2020/01/31 02:18:24.6	92.110	0.540	-0.740	0.600
2020/01/31 02:18:24.7	92.100	0.520	-0.670	0.650
2020/01/31 02:18:24.8	92.080	0.490	-0.600	0.700
2020/01/31 02:18:24.9	92.060	0.460	-0.520	0.750
2020/01/31 02:18:25.0	92.040	0.430	-0.430	0.790
2020/01/31 02:18:25.1	92.030	0.390	-0.340	0.840
2020/01/31 02:18:25.2	92.010	0.350	-0.250	0.880
2020/01/31 02:18:25.3	91.990	0.310	-0.160	0.930
2020/01/31 02:18:25.4	91.970	0.270	-0.080	0.970
2020/01/31 02:18:25.5	91.950	0.230	0.010	1.010
2020/01/31 02:18:25.6	91.920	0.180	0.090	1.050
2020/01/31 02:18:25.7	91.900	0.140	0.170	1.090
2020/01/31 02:18:25.8	91.880	0.100	0.250	1.130
2020/01/31 02:18:25.9	91.870	0.050	0.320	1.170
2020/01/31 02:18:26.0	91.850	0.010	0.380	1.200
2020/01/31 02:18:26.1	91.830	-0.030	0.440	1.240
2020/01/31 02:18:26.2	91.820	-0.060	0.490	1.270
2020/01/31 02:18:26.3	91.810	-0.100	0.540	1.290
2020/01/31 02:18:26.4	91.800	-0.130	0.570	1.320
2020/01/31 02:18:26.5	91.790	-0.160	0.600	1.340
2020/01/31 02:18:26.6	91.780	-0.180	0.620	1.350
2020/01/31 02:18:26.7	91.780	-0.200	0.640	1.360
2020/01/31 02:18:26.8	91.780	-0.220	0.640	1.370
2020/01/31 02:18:26.9	91.790	-0.240	0.640	1.370
2020/01/31 02:18:27.0	91.800	-0.250	0.620	1.360
2020/01/31 02:18:27.1	91.810	-0.260	0.600	1.360
2020/01/31 02:18:27.2	91.820	-0.260	0.570	1.340
2020/01/31 02:18:27.3	91.840	-0.260	0.540	1.320
2020/01/31 02:18:27.4	91.860	-0.260	0.500	1.290
2020/01/31 02:18:27.5	91.880	-0.260	0.450	1.260
2020/01/31 02:18:27.6	91.910	-0.250	0.400	1.230
2020/01/31 02:18:27.7	91.930	-0.240	0.340	1.190
2020/01/31 02:18:27.8	91.960	-0.230	0.280	1.150
2020/01/31 02:18:27.9	91.990	-0.210	0.220	1.110
2020/01/31 02:18:28.0	92.020	-0.200	0.150	1.070
2020/01/31 02:18:28.1	92.050	-0.180	0.080	1.020
2020/01/31 02:18:28.2	92.070	-0.160	0.010	0.970
2020/01/31 02:18:28.3	92.100	-0.140	-0.050	0.920
2020/01/31 02:18:28.4	92.130	-0.120	-0.120	0.880
2020/01/31 02:18:28.5	92.150	-0.100	-0.180	0.830
2020/01/31 02:18:28.6	92.170	-0.080	-0.240	0.780
2020/01/31 02:18:28.7	92.190	-0.060	-0.300	0.740
2020/01/31 02:18:28.8	92.210	-0.040	-0.350	0.700
2020/01/31 02:18:28.9	92.230	-0.020	-0.400	0.660
2020/01/31 02:18:29.0	92.240	-0.000	-0.440	0.620
2020/01/31 02:18:29.1	92.270	0.010	-0.480	0.600
2020/01/31 02:18:29.2	92.280	0.030	-0.520	0.570
2020/01/31 02:18:29.3	92.290	0.040	-0.550	0.540
2020/01/31 02:18:29.4	92.290	0.060	-0.570	0.520
2020/01/31 02:18:29.5	92.300	0.070	-0.590	0.500
2020/01/31 02:18:29.6	92.300	0.080	-0.600	0.490
2020/01/31 02:18:29.7	92.300	0.080	-0.610	0.480
2020/01/31 02:18:29.8	92.300	0.090	-0.610	0.470
2020/01/31 02:18:29.9	92.300	0.090	-0.610	0.470
2020/01/31 02:18:30.0	92.290	0.090	-0.610	0.470
2020/01/31 02:18:30.1	92.300	0.090	-0.600	0.480
2020/01/31 02:18:30.2	92.290	0.090	-0.590	0.490
2020/01/31 02:18:30.3	92.280	0.090	-0.570	0.510
2020/01/31 02:18:30.4	92.280	0.080	-0.560	0.530
2020/01/31 02:18:30.5	92.270	0.070	-0.540	0.550
2020/01/31 02:18:30.6	92.260	0.060	-0.520	0.580
2020/01/31 02:18:30.7	92.250	0.050	-0.500	0.610
2020/01/31 02:18:30.8	92.240	0.040	-0.490	0.630
2020/01/31 02:18:30.9	92.240	0.020	-0.470	0.660
2020/01/31 02:18:31.0	92.230	0.000	-0.450	0.700
2020/01/31 02:18:31.1	92.230	-0.010	-0.420	0.730
2020/01/31 02:18:31.2	92.220	-0.030	-0.400	0.760
2020/01/31 02:18:31.3	92.220	-0.050	-0.390	0.780
2020/01/31 02:18:31.4	92.210	-0.070	-0.370	0.810
2020/01/31 02:18:31.5	92.210	-0.100	-0.350	0.830
2020/01/31 02:18:31.6	92.210	-0.120	-0.340	0.850
2020/01/31 02:18:31.7	92.210	-0.140	-0.320	0.870
2020/01/31 02:18:31.8	92.210	-0.170	-0.310	0.880
2020/01/31 02:18:31.9	92.210	-0.190	-0.290	0.890
2020/01/31 02:18:32.0	92.220	-0.220	-0.280	0.900
2020/01/31 02:18:32.1	92.230	-0.240	-0.270	0.900
2020/01/31 02:18:32.2	92.230	-0.270	-0.250	0.900
2020/01/31 02:18:32.3	92.240	-0.300	-0.240	0.900
2020/01/31 02:18:32.4	92.250	-0.320	-0.230	0.900
2020/01/31 02:18:32.5	92.260	-0.350	-0.210	0.890
2020/01/31 02:18:32.6	92.270	-0.370	-0.200	0.890
2020/01/31 02:18:32.7	92.280	-0.390	-0.180	0.880
2020/01/31 02:18:32.8	92.290	-0.410	-0.170	0.870
2020/01/31 02:18:32.9	92.300	-0.430	-0.160	0.860
2020/01/31 02:18:33.0	92.310	-0.450	-0.140	0.860
2020/01/31 02:18:33.1	92.310	-0.470	-0.130	0.850
2020/01/31 02:18:33.2	92.320	-0.480	-0.110	0.850
2020/01/31 02:18:33.3	92.320	-0.490	-0.100	0.840
2020/01/31 02:18:33.4	92.320	-0.500	-0.090	0.840
2020/01/31 02:18:33.5	92.330	-0.510	-0.070	0.830
2020/01/31 02:18:33.6	92.330	-0.510	-0.060	0.830
2020/01/31 02:18:33.7	92.330	-0.510	-0.060	0.830
2020/01/31 02:18:33.8	92.330	-0.510	-0.050	0.820
2020/01/31 02:18:33.9	92.330	-0.500	-0.050	0.820
2020/01/31 02:18:34.0	92.330	-0.490	-0.050	0.820
2020/01/31 02:18:34.1	92.320	-0.480	-0.050	0.810
2020/01/31 02:18:34.2	92.320	-0.470	-0.060	0.800
2020/01/31 02:18:34.3	92.320	-0.450	-0.070	0.790
2020/01/31 02:18:34.4	92.320	-0.420	-0.080	0.780
2020/01/31 02:18:34.5	92.320	-0.400	-0.100	0.760
2020/01/31 02:18:34.6	92.320	-0.370	-0.130	0.740
2020/01/31 02:18:34.7	92.330	-0.330	-0.150	0.730
2020/01/31 02:18:34.8	92.330	-0.300	-0.180	0.700
2020/01/31 02:18:34.9	92.340	-0.260	-0.220	0.680
2020/01/31 02:18:35.0	92.340	-0.220	-0.260	0.660
2020/01/31 02:18:35.1	92.350	-0.170	-0.300	0.630
2020/01/31 02:18:35.2	92.360	-0.130	-0.340	0.610
2020/01/31 02:18:35.3	92.370	-0.080	-0.390	0.590
2020/01/31 02:18:35.4	92.370	-0.030	-0.440	0.570
2020/01/31 02:18:35.5	92.380	0.020	-0.480	0.550
2020/01/31 02:18:35.6	92.380	0.070	-0.530	0.540
2020/01/31 02:18:35.7	92.390	0.120	-0.580	0.520
2020/01/31 02:18:35.8	92.390	0.170	-0.620	0.510
2020/01/31 02:18:35.9	92.390	0.210	-0.660	0.510
2020/01/31 02:18:36.0	92.400	0.260	-0.690	0.500
2020/01/31 02:18:36.1	92.400	0.300	-0.730	0.500
2020/01/31 02:18:36.2	92.400	0.350	-0.750	0.500
2020/01/31 02:18:36.3	92.400	0.390	-0.770	0.490
2020/01/31 02:18:36.4	92.400	0.420	-0.780	0.490
2020/01/31 02:18:36.5	92.400	0.450	-0.790	0.490
2020/01/31 02:18:36.6	92.400	0.480	-0.780	0.480
2020/01/31 02:18:36.7	92.400	0.500	-0.770	0.480
2020/01/31 02:18:36.8	92.400	0.520	-0.750	0.470
2020/01/31 02:18:36.9	92.410	0.540	-0.720	0.460
2020/01/31 02:18:37.0	92.410	0.550	-0.680	0.450
2020/01/31 02:18:37.1	92.400	0.550	-0.640	0.450
2020/01/31 02:18:37.2	92.410	0.550	-0.580	0.430
2020/01/31 02:18:37.3	92.410	0.550	-0.520	0.420
2020/01/31 02:18:37.4	92.420	0.540	-0.450	0.400
2020/01/31 02:18:37.5	92.420	0.520	-0.370	0.380
2020/01/31 02:18:37.6	92.430	0.510	-0.290	0.360
2020/01/31 02:18:37.7	92.430	0.480	-0.200	0.340
2020/01/31 02:18:37.8	92.440	0.460	-0.110	0.320
2020/01/31 02:18:37.9	92.440	0.430	-0.010	0.300
2020/01/31 02:18:38.0	92.450	0.400	0.080	0.280
2020/01/31 02:18:38.1	92.450	0.370	0.180	0.260
2020/01/31 02:18:38.2	92.460	0.340	0.280	0.240
2020/01/31 02:18:38.3	92.460	0.300	0.380	0.220
2020/01/31 02:18:38.4	92.460	0.260	0.470	0.200
2020/01/31 02:18:38.5	92.470	0.230	0.560	0.180
2020/01/31 02:18:38.6	92.470	0.190	0.650	0.170
2020/01/31 02:18:38.7	92.470	0.150	0.730	0.150
2020/01/31 02:18:38.8	92.460	0.120	0.800	0.140
2020/01/31 02:18:38.9	92.460	0.090	0.870	0.130
2020/01/31 02:18:39.0	92.460	0.050	0.920	0.120
2020/01/31 02:18:39.1	92.450	0.030	0.980	0.110
2020/01/31 02:18:39.2	92.440	0.000	1.010	0.110
2020/01/31 02:18:39.3	92.430	-0.020	1.030	0.100
2020/01/31 02:18:39.4	92.420	-0.040	1.050	0.100
2020/01/31 02:18:39.5	92.420	-0.050	1.040	0.100
2020/01/31 02:18:39.6	92.410	-0.060	1.030	0.110
2020/01/31 02:18:39.7	92.400	-0.070	1.000	0.110
2020/01/31 02:18:39.8	92.390	-0.070	0.970	0.110
2020/01/31 02:18:39.9	92.380	-0.060	0.920	0.120
2020/01/31 02:18:40.0	92.370	-0.060	0.850	0.130
2020/01/31 02:18:40.1	92.360	-0.040	0.780	0.140
2020/01/31 02:18:40.2	92.360	-0.030	0.700	0.140
2020/01/31 02:18:40.3	92.350	-0.010	0.600	0.150
2020/01/31 02:18:40.4	92.350	0.010	0.500	0.160
2020/01/31 02:18:40.5	92.350	0.040	0.400	0.160
2020/01/31 02:18:40.6	92.350	0.070	0.280	0.170
2020/01/31 02:18:40.7	92.360	0.100	0.160	0.180
2020/01/31 02:18:40.8	92.360	0.130	0.040	0.180
2020/01/31 02:18:40.9	92.370	0.170	-0.080	0.180
2020/01/31 02:18:41.0	92.380	0.200	-0.210	0.190
2020/01/31 02:18:41.1	92.380	0.240	-0.330	0.190
2020/01/31 02:18:41.2	92.390	0.280	-0.460	0.200
2020/01/31 02:18:41.3	92.410	0.310	-0.580	0.200
2020/01/31 02:18:41.4	92.420	0.350	-0.700	0.210
2020/01/31 02:18:41.5	92.430	0.390	-0.820	0.220
2020/01/31 02:18:41.6	92.450	0.420	-0.920	0.230
2020/01/31 02:18:41.7	92.460	0.450	-1.030	0.240
2020/01/31 02:18:41.8	92.470	0.490	-1.120	0.250
2020/01/31 02:18:41.9	92.480	0.510	-1.210	0.270
2020/01/31 02:18:42.0	92.490	0.540	-1.280	0.290
2020/01/31 02:18:42.1	92.510	0.560	-1.350	0.320
2020/01/31 02:18:42.2	92.520	0.580	-1.400	0.350
2020/01/31 02:18:42.3	92.520	0.600	-1.440	0.380
2020/01/31 02:18:42.4	92.530	0.610	-1.470	0.410
2020/01/31 02:18:42.5	92.540	0.610	-1.490	0.450
2020/01/31 02:18:42.6	92.540	0.620	-1.500	0.490
2020/01/31 02:18:42.7	92.540	0.610	-1.490	0.540
2020/01/31 02:18:42.8	92.550	0.600	-1.470	0.590
2020/01/31 02:18:42.9	92.550	0.590	-1.440	0.640
2020/01/31 02:18:43.0	92.550	0.570	-1.390	0.690
2020/01/31 02:18:43.1	92.550	0.550	-1.340	0.750
2020/01/31 02:18:43.2	92.550	0.520	-1.270	0.810
2020/01/31 02:18:43.3	92.550	0.490	-1.190	0.870
2020/01/31 02:18:43.4	92.540	0.450	-1.110	0.930
2020/01/31 02:18:43.5	92.530	0.410	-1.020	0.990
2020/01/31 02:18:43.6	92.530	0.360	-0.920	1.060
2020/01/31 02:18:43.7	92.520	0.300	-0.810	1.120
2020/01/31 02:18:43.8	92.510	0.250	-0.700	1.180
2020/01/31 02:18:43.9	92.510	0.190	-0.580	1.240
2020/01/31 02:18:44.0	92.500	0.120	-0.460	1.300
2020/01/31 02:18:44.1	92.500	0.050	-0.340	1.370
2020/01/31 02:18:44.2	92.500	-0.010	-0.220	1.420
2020/01/31 02:18:44.3	92.490	-0.090	-0.100	1.470
2020/01/31 02:18:44.4	92.480	-0.160	0.020	1.520
2020/01/31 02:18:44.5	92.470	-0.230	0.130	1.560
2020/01/31 02:18:44.6	92.460	-0.310	0.240	1.610
2020/01/31 02:18:44.7	92.450	-0.380	0.340	1.640
2020/01/31 02:18:44.8	92.440	-0.450	0.440	1.680
2020/01/31 02:18:44.9	92.430	-0.520	0.530	1.710
2020/01/31 02:18:45.0	92.420	-0.590	0.610	1.730
2020/01/31 02:18:45.1	92.410	-0.660	0.680	1.750
2020/01/31 02:18:45.2	92.400	-0.720	0.740	1.770
2020/01/31 02:18:45.3	92.390	-0.780	0.780	1.780
2020/01/31 02:18:45.4	92.390	-0.830	0.820	1.790
2020/01/31 02:18:45.5	92.380	-0.870	0.840	1.790
2020/01/31 02:18:45.6	92.370	-0.920	0.860	1.790
2020/01/31 02:18:45.7	92.360	-0.950	0.860	1.790
2020/01/31 02:18:45.8	92.360	-0.980	0.840	1.790
2020/01/31 02:18:45.9	92.350	-1.000	0.820	1.780
2020/01/31 02:18:46.0	92.350	-1.020	0.780	1.760
2020/01/31 02:18:46.1	92.350	-1.020	0.730	1.760
2020/01/31 02:18:46.2	92.350	-1.020	0.670	1.740
2020/01/31 02:18:46.3	92.350	-1.010	0.600	1.720
2020/01/31 02:18:46.4	92.350	-1.000	0.520	1.700
2020/01/31 02:18:46.5	92.350	-0.980	0.440	1.670
2020/01/31 02:18:46.6	92.360	-0.950	0.340	1.650
2020/01/31 02:18:46.7	92.360	-0.920	0.240	1.620
2020/01/31 02:18:46.8	92.370	-0.880	0.140	1.590
2020/01/31 02:18:46.9	92.380	-0.830	0.030	1.560
2020/01/31 02:18:47.0	92.380	-0.780	-0.080	1.530
2020/01/31 02:18:47.1	92.380	-0.730	-0.190	1.490
2020/01/31 02:18:47.2	92.390	-0.670	-0.300	1.450
2020/01/31 02:18:47.3	92.400	-0.610	-0.410	1.410
2020/01/31 02:18:47.4	92.410	-0.550	-0.520	1.370
2020/01/31 02:18:47.5	92.410	-0.480	-0.620	1.330
2020/01/31 02:18:47.6	92.420	-0.420	-0.720	1.290
2020/01/31 02:18:47.7	92.420	-0.350	-0.810	1.250
2020/01/31 02:18:47.8	92.430	-0.290	-0.890	1.200
2020/01/31 02:18:47.9	92.430	-0.230	-0.960	1.160
2020/01/31 02:18:48.0	92.430	-0.170	-1.020	1.110
2020/01/31 02:18:48.1	92.430	-0.110	-1.080	1.080
2020/01/31 02:18:48.2	92.430	-0.060	-1.120	1.030
2020/01/31 02:18:48.3	92.430	-0.000	-1.140	0.980
2020/01/31 02:18:48.4	92.420	0.040	-1.160	0.930
2020/01/31 02:18:48.5	92.420	0.080	-1.170	0.890
2020/01/31 02:18:48.6	92.410	0.120	-1.160	0.840
2020/01/31 02:18:48.7	92.410	0.160	-1.140	0.790
2020/01/31 02:18:48.8	92.400	0.190	-1.110	0.750
2020/01/31 02:18:48.9	92.390	0.210	-1.070	0.700
2020/01/31 02:18:49.0	92.380	0.230	-1.010	0.660
2020/01/31 02:18:49.1	92.370	0.240	-0.950	0.620
2020/01/31 02:18:49.2	92.360	0.250	-0.880	0.580
2020/01/31 02:18:49.3	92.350	0.260	-0.800	0.540
2020/01/31 02:18:49.4	92.330	0.260	-0.710	0.510
2020/01/31 02:18:49.5	92.310	0.250	-0.610	0.470
2020/01/31 02:18:49.6	92.290	0.240	-0.510	0.440
2020/01/31 02:18:49.7	92.270	0.230	-0.400	0.400
2020/01/31 02:18:49.8	92.260	0.210	-0.290	0.370
2020/01/31 02:18:49.9	92.240	0.200	-0.170	0.340
2020/01/31 02:18:50.0	92.220	0.170	-0.060	0.320
2020/01/31 02:18:50.1	92.200	0.150	0.060	0.290
2020/01/31 02:18:50.2	92.180	0.130	0.170	0.270
2020/01/31 02:18:50.3	92.160	0.100	0.280	0.240
2020/01/31 02:18:50.4	92.140	0.070	0.380	0.220
2020/01/31 02:18:50.5	92.130	0.050	0.480	0.200
2020/01/31 02:18:50.6	92.110	0.020	0.580	0.190
2020/01/31 02:18:50.7	92.090	-0.000	0.660	0.170
2020/01/31 02:18:50.8	92.080	-0.030	0.740	0.150
2020/01/31 02:18:50.9	92.060	-0.050	0.810	0.140
2020/01/31 02:18:51.0	92.050	-0.070	0.870	0.130
2020/01/31 02:18:51.1	92.040	-0.090	0.920	0.120
2020/01/31 02:18:51.2	92.030	-0.100	0.950	0.100
2020/01/31 02:18:51.3	92.020	-0.110	0.970	0.090
2020/01/31 02:18:51.4	92.020	-0.120	0.980	0.070
2020/01/31 02:18:51.5	92.010	-0.120	0.980	0.060
2020/01/31 02:18:51.6	92.010	-0.120	0.960	0.040
2020/01/31 02:18:51.7	92.010	-0.110	0.930	0.020
2020/01/31 02:18:51.8	92.010	-0.100	0.880	0.000
2020/01/31 02:18:51.9	92.010	-0.090	0.830	-0.020
2020/01/31 02:18:52.0	92.010	-0.070	0.760	-0.040
2020/01/31 02:18:52.1	92.020	-0.040	0.670	-0.070
2020/01/31 02:18:52.2	92.030	-0.020	0.580	-0.090
2020/01/31 02:18:52.3	92.040	0.020	0.490	-0.120
2020/01/31 02:18:52.4	92.050	0.050	0.380	-0.140
2020/01/31 02:18:52.5	92.060	0.090	0.270	-0.170
2020/01/31 02:18:52.6	92.080	0.130	0.150	-0.200
2020/01/31 02:18:52.7	92.090	0.180	0.030	-0.220
2020/01/31 02:18:52.8	92.110	0.230	-0.100	-0.240
2020/01/31 02:18:52.9	92.130	0.280	-0.220	-0.260
2020/01/31 02:18:53.0	92.150	0.330	-0.340	-0.280
2020/01/31 02:18:53.1	92.170	0.380	-0.470	-0.290
2020/01/31 02:18:53.2	92.190	0.430	-0.590	-0.290
2020/01/31 02:18:53.3	92.210	0.480	-0.700	-0.290
2020/01/31 02:18:53.4	92.240	0.530	-0.810	-0.290
2020/01/31 02:18:53.5	92.260	0.570	-0.910	-0.270
2020/01/31 02:18:53.6	92.280	0.620	-1.000	-0.250
2020/01/31 02:18:53.7	92.300	0.660	-1.080	-0.230
2020/01/31 02:18:53.8	92.320	0.700	-1.160	-0.190
2020/01/31 02:18:53.9	92.340	0.730	-1.220	-0.150
2020/01/31 02:18:54.0	92.350	0.760	-1.270	-0.110
2020/01/31 02:18:54.1	92.370	0.780	-1.310	-0.050
2020/01/31 02:18:54.2	92.380	0.800	-1.340	0.000
2020/01/31 02:18:54.3	92.390	0.810	-1.350	0.060
2020/01/31 02:18:54.4	92.400	0.820	-1.360	0.130
2020/01/31 02:18:54.5	92.410	0.820	-1.350	0.200
2020/01/31 02:18:54.6	92.410	0.820	-1.320	0.270
2020/01/31 02:18:54.7	92.410	0.810	-1.290	0.340
2020/01/31 02:18:54.8	92.410	0.790	-1.240	0.410
2020/01/31 02:18:54.9	92.400	0.760	-1.190	0.490
2020/01/31 02:18:55.0	92.390	0.740	-1.120	0.570
2020/01/31 02:18:55.1	92.380	0.700	-1.040	0.650
2020/01/31 02:18:55.2	92.370	0.660	-0.960	0.730
2020/01/31 02:18:55.3	92.350	0.620	-0.870	0.800
2020/01/31 02:18:55.4	92.330	0.570	-0.770	0.880
2020/01/31 02:18:55.5	92.310	0.510	-0.670	0.960
2020/01/31 02:18:55.6	92.280	0.460	-0.560	1.040
2020/01/31 02:18:55.7	92.260	0.400	-0.460	1.110
2020/01/31 02:18:55.8	92.230	0.340	-0.350	1.190
2020/01/31 02:18:55.9	92.200	0.280	-0.240	1.260
2020/01/31 02:18:56.0	92.170	0.210	-0.130	1.330
2020/01/31 02:18:56.1	92.120	0.150	-0.030	1.410
2020/01/31 02:18:56.2	92.080	0.090	0.070	1.480
2020/01/31 02:18:56.3	92.040	0.020	0.170	1.540
2020/01/31 02:18:56.4	92.010	-0.040	0.250	1.610
2020/01/31 02:18:56.5	91.970	-0.090	0.330	1.670
2020/01/31 02:18:56.6	91.930	-0.150	0.400	1.730
2020/01/31 02:18:56.7	91.890	-0.200	0.470	1.780
2020/01/31 02:18:56.8	91.860	-0.250	0.520	1.830
2020/01/31 02:18:56.9	91.820	-0.290	0.560	1.870
2020/01/31 02:18:57.0	91.790	-0.330	0.590	1.910
2020/01/31 02:18:57.1	91.770	-0.370	0.610	1.950
2020/01/31 02:18:57.2	91.740	-0.400	0.620	1.970
2020/01/31 02:18:57.3	91.720	-0.420	0.620	1.990
2020/01/31 02:18:57.4	91.700	-0.440	0.610	2.000
2020/01/31 02:18:57.5	91.680	-0.460	0.590	2.000
2020/01/31 02:18:57.6	91.670	-0.470	0.560	2.000
2020/01/31 02:18:57.7	91.660	-0.470	0.520	1.990
2020/01/31 02:18:57.8	91.660	-0.470	0.470	1.970
2020/01/31 02:18:57.9	91.660	-0.460	0.410	1.940
2020/01/31 02:18:58.0	91.660	-0.450	0.350	1.910
2020/01/31 02:18:58.1	91.660	-0.440	0.280	1.880
2020/01/31 02:18:58.2	91.670	-0.420	0.210	1.840
2020/01/31 02:18:58.3	91.680	-0.400	0.130	1.790
2020/01/31 02:18:58.4	91.700	-0.380	0.060	1.740
2020/01/31 02:18:58.5	91.720	-0.350	-0.020	1.680
2020/01/31 02:18:58.6	91.740	-0.330	-0.100	1.620
2020/01/31 02:18:58.7	91.770	-0.300	-0.180	1.560
2020/01/31 02:18:58.8	91.790	-0.270	-0.250	1.500
2020/01/31 02:18:58.9	91.820	-0.240	-0.320	1.440
2020/01/31 02:18:59.0	91.850	-0.200	-0.390	1.380
2020/01/31 02:18:59.1	91.880	-0.170	-0.450	1.320
2020/01/31 02:18:59.2	91.910	-0.140	-0.510	1.260
2020/01/31 02:18:59.3	91.950	-0.110	-0.560	1.200
2020/01/31 02:18:59.4	91.980	-0.090	-0.600	1.150
2020/01/31 02:18:59.5	92.010	-0.060	-0.640	1.100
2020/01/31 02:18:59.6	92.040	-0.030	-0.660	1.050
2020/01/31 02:18:59.7	92.070	-0.010	-0.680	1.000
2020/01/31 02:18:59.8	92.100	0.010	-0.690	0.960
2020/01/31 02:18:59.9	92.130	0.030	-0.700	0.920
2020/01/31 02:19:00.0	92.160	0.040	-0.690	0.880
2020/01/31 02:19:00.1	92.180	0.050	-0.680	0.860
2020/01/31 02:19:00.2	92.210	0.060	-0.660	0.830
2020/01/31 02:19:00.3	92.230	0.070	-0.640	0.800
2020/01/31 02:19:00.4	92.240	0.070	-0.610	0.770
2020/01/31 02:19:00.5	92.260	0.070	-0.580	0.750
2020/01/31 02:19:00.6	92.270	0.070	-0.540	0.730
2020/01/31 02:19:00.7	92.280	0.070	-0.500	0.710
2020/01/31 02:19:00.8	92.290	0.060	-0.450	0.690
2020/01/31 02:19:00.9	92.300	0.050	-0.410	0.680
2020/01/31 02:19:01.0	92.310	0.040	-0.360	0.660
2020/01/31 02:19:01.1	92.320	0.030	-0.310	0.650
2020/01/31 02:19:01.2	92.320	0.020	-0.260	0.630
2020/01/31 02:19:01.3	92.320	0.000	-0.220	0.620
2020/01/31 02:19:01.4	92.320	-0.010	-0.170	0.610
2020/01/31 02:19:01.5	92.320	-0.030	-0.130	0.600
2020/01/31 02:19:01.6	92.320	-0.050	-0.090	0.580
2020/01/31 02:19:01.7	92.310	-0.060	-0.050	0.570
2020/01/31 02:19:01.8	92.310	-0.080	-0.020	0.560
2020/01/31 02:19:01.9	92.300	-0.090	0.010	0.560
2020/01/31 02:19:02.0	92.290	-0.110	0.040	0.550
2020/01/31 02:19:02.1	92.280	-0.120	0.060	0.540
2020/01/31 02:19:02.2	92.270	-0.130	0.080	0.540
2020/01/31 02:19:02.3	92.250	-0.150	0.090	0.530
2020/01/31 02:19:02.4	92.240	-0.160	0.100	0.530
2020/01/31 02:19:02.5	92.230	-0.160	0.110	0.530
2020/01/31 02:19:02.6	92.220	-0.170	0.110	0.530
2020/01/31 02:19:02.7	92.200	-0.180	0.110	0.530
2020/01/31 02:19:02.8	92.190	-0.180	0.100	0.530
2020/01/31 02:19:02.9	92.180	-0.180	0.090	0.540
2020/01/31 02:19:03.0	92.160	-0.190	0.080	0.540
2020/01/31 02:19:03.1	92.160	-0.190	0.070	0.550
2020/01/31 02:19:03.2	92.140	-0.190	0.060	0.550
2020/01/31 02:19:03.3	92.140	-0.180	0.040	0.550
2020/01/31 02:19:03.4	92.130	-0.180	0.030	0.550
2020/01/31 02:19:03.5	92.120	-0.180	0.010	0.540
2020/01/31 02:19:03.6	92.120	-0.180	0.000	0.540
2020/01/31 02:19:03.7	92.120	-0.170	-0.010	0.530
2020/01/31 02:19:03.8	92.120	-0.170	-0.020	0.520
2020/01/31 02:19:03.9	92.120	-0.170	-0.030	0.510
2020/01/31 02:19:04.0	92.120	-0.160	-0.040	0.500
2020/01/31 02:19:04.1	92.130	-0.160	-0.050	0.480
2020/01/31 02:19:04.2	92.140	-0.160	-0.060	0.460
2020/01/31 02:19:04.3	92.150	-0.160	-0.060	0.440
2020/01/31 02:19:04.4	92.160	-0.160	-0.070	0.420
2020/01/31 02:19:04.5	92.180	-0.150	-0.070	0.390
2020/01/31 02:19:04.6	92.190	-0.150	-0.070	0.370
2020/01/31 02:19:04.7	92.210	-0.150	-0.070	0.340
2020/01/31 02:19:04.8	92.230	-0.150	-0.070	0.320
2020/01/31 02:19:04.9	92.250	-0.150	-0.070	0.290
2020/01/31 02:19:05.0	92.260	-0.150	-0.070	0.270
2020/01/31 02:19:05.1	92.290	-0.150	-0.070	0.250
2020/01/31 02:19:05.2	92.310	-0.150	-0.070	0.220
2020/01/31 02:19:05.3	92.320	-0.140	-0.070	0.200
2020/01/31 02:19:05.4	92.340	-0.140	-0.080	0.180
2020/01/31 02:19:05.5	92.360	-0.140	-0.090	0.160
2020/01/31 02:19:05.6	92.370	-0.130	-0.100	0.150
2020/01/31 02:19:05.7	92.380	-0.130	-0.110	0.140
2020/01/31 02:19:05.8	92.390	-0.120	-0.130	0.130
2020/01/31 02:19:05.9	92.400	-0.110	-0.140	0.130
2020/01/31 02:19:06.0	92.410	-0.100	-0.170	0.130
2020/01/31 02:19:06.1	92.410	-0.090	-0.200	0.140
2020/01/31 02:19:06.2	92.420	-0.070	-0.220	0.140
2020/01/31 02:19:06.3	92.420	-0.060	-0.250	0.160
2020/01/31 02:19:06.4	92.420	-0.040	-0.280	0.170
2020/01/31 02:19:06.5	92.420	-0.020	-0.320	0.190
2020/01/31 02:19:06.6	92.420	-0.010	-0.350	0.210
2020/01/31 02:19:06.7	92.420	0.010	-0.380	0.230
2020/01/31 02:19:06.8	92.420	0.030	-0.420	0.250
2020/01/31 02:19:06.9	92.430	0.050	-0.450	0.280
2020/01/31 02:19:07.0	92.430	0.070	-0.480	0.300
2020/01/31 02:19:07.1	92.430	0.080	-0.500	0.330
2020/01/31 02:19:07.2	92.430	0.100	-0.520	0.360
2020/01/31 02:19:07.3	92.440	0.110	-0.540	0.390
2020/01/31 02:19:07.4	92.450	0.130	-0.560	0.420
2020/01/31 02:19:07.5	92.450	0.140	-0.570	0.450
2020/01/31 02:19:07.6	92.460	0.150	-0.580	0.480
2020/01/31 02:19:07.7	92.470	0.150	-0.580	0.510
2020/01/31 02:19:07.8	92.480	0.160	-0.580	0.550
2020/01/31 02:19:07.9	92.490	0.160	-0.570	0.580
2020/01/31 02:19:08.0	92.500	0.160	-0.560	0.610
2020/01/31 02:19:08.1	92.510	0.160	-0.550	0.650
2020/01/31 02:19:08.2	92.520	0.160	-0.540	0.680
2020/01/31 02:19:08.3	92.530	0.150	-0.520	0.710
2020/01/31 02:19:08.4	92.540	0.150	-0.490	0.740
2020/01/31 02:19:08.5	92.560	0.140	-0.460	0.760
2020/01/31 02:19:08.6	92.570	0.130	-0.430	0.790
2020/01/31 02:19:08.7	92.580	0.120	-0.400	0.810
2020/01/31 02:19:08.8	92.590	0.110	-0.370	0.830
2020/01/31 02:19:08.9	92.600	0.090	-0.340	0.850
2020/01/31 02:19:09.0	92.610	0.080	-0.310	0.870
2020/01/31 02:19:09.1	92.620	0.070	-0.270	0.880
2020/01/31 02:19:09.2	92.630	0.060	-0.240	0.890
2020/01/31 02:19:09.3	92.640	0.050	-0.210	0.900
2020/01/31 02:19:09.4	92.650	0.040	-0.170	0.910
2020/01/31 02:19:09.5	92.650	0.030	-0.150	0.920
2020/01/31 02:19:09.6	92.660	0.020	-0.120	0.920
2020/01/31 02:19:09.7	92.660	0.010	-0.090	0.930
2020/01/31 02:19:09.8	92.670	0.010	-0.070	0.930
2020/01/31 02:19:09.9	92.670	0.010	-0.050	0.930
2020/01/31 02:19:10.0	92.670	0.000	-0.030	0.940
2020/01/31 02:19:10.1	92.670	0.000	-0.010	0.940
2020/01/31 02:19:10.2	92.670	0.010	0.010	0.950
2020/01/31 02:19:10.3	92.660	0.010	0.020	0.950
2020/01/31 02:19:10.4	92.660	0.010	0.030	0.950
2020/01/31 02:19:10.5	92.650	0.020	0.040	0.950
2020/01/31 02:19:10.6	92.630	0.030	0.040	0.950
2020/01/31 02:19:10.7	92.620	0.040	0.040	0.960
2020/01/31 02:19:10.8	92.600	0.050	0.050	0.960
2020/01/31 02:19:10.9	92.580	0.060	0.040	0.960
2020/01/31 02:19:11.0	92.560	0.070	0.040	0.960
2020/01/31 02:19:11.1	92.550	0.080	0.030	0.960
2020/01/31 02:19:11.2	92.520	0.090	0.020	0.960
2020/01/31 02:19:11.3	92.500	0.110	0.010	0.950
2020/01/31 02:19:11.4	92.470	0.120	-0.000	0.940
2020/01/31 02:19:11.5	92.440	0.130	-0.020	0.930
2020/01/31 02:19:11.6	92.410	0.140	-0.040	0.910
2020/01/31 02:19:11.7	92.390	0.160	-0.060	0.890
2020/01/31 02:19:11.8	92.360	0.170	-0.080	0.870
2020/01/31 02:19:11.9	92.330	0.180	-0.110	0.840
2020/01/31 02:19:12.0	92.310	0.190	-0.130	0.810
2020/01/31 02:19:12.1	92.280	0.200	-0.160	0.780
2020/01/31 02:19:12.2	92.260	0.210	-0.180	0.750
2020/01/31 02:19:12.3	92.240	0.220	-0.210	0.710
2020/01/31 02:19:12.4	92.220	0.230	-0.240	0.680
2020/01/31 02:19:12.5	92.200	0.240	-0.270	0.640
2020/01/31 02:19:12.6	92.180	0.240	-0.300	0.600
2020/01/31 02:19:12.7	92.170	0.250	-0.320	0.560
2020/01/31 02:19:12.8	92.150	0.250	-0.350	0.520
2020/01/31 02:19:12.9	92.140	0.260	-0.380	0.480
2020/01/31 02:19:13.0	92.130	0.260	-0.400	0.440
2020/01/31 02:19:13.1	92.120	0.270	-0.420	0.400
2020/01/31 02:19:13.2	92.110	0.270	-0.440	0.370
2020/01/31 02:19:13.3	92.110	0.270	-0.460	0.330
2020/01/31 02:19:13.4	92.110	0.280	-0.480	0.300
2020/01/31 02:19:13.5	92.110	0.280	-0.490	0.270
2020/01/31 02:19:13.6	92.120	0.280	-0.500	0.240
2020/01/31 02:19:13.7	92.120	0.280	-0.510	0.210
2020/01/31 02:19:13.8	92.130	0.280	-0.520	0.180
2020/01/31 02:19:13.9	92.150	0.290	-0.520	0.160
2020/01/31 02:19:14.0	92.160	0.290	-0.530	0.140
2020/01/31 02:19:14.1	92.180	0.290	-0.530	0.120
2020/01/31 02:19:14.2	92.200	0.290	-0.530	0.100
2020/01/31 02:19:14.3	92.220	0.290	-0.530	0.090
2020/01/31 02:19:14.4	92.240	0.300	-0.520	0.080
2020/01/31 02:19:14.5	92.270	0.300	-0.520	0.070
2020/01/31 02:19:14.6	92.290	0.300	-0.510	0.060
2020/01/31 02:19:14.7	92.320	0.300	-0.510	0.060
2020/01/31 02:19:14.8	92.350	0.300	-0.500	0.060
2020/01/31 02:19:14.9	92.380	0.300	-0.490	0.060
2020/01/31 02:19:15.0	92.410	0.300	-0.480	0.070
2020/01/31 02:19:15.1	92.440	0.300	-0.470	0.090
2020/01/31 02:19:15.2	92.470	0.290	-0.460	0.100
2020/01/31 02:19:15.3	92.500	0.290	-0.450	0.110
2020/01/31 02:19:15.4	92.530	0.290	-0.440	0.130
2020/01/31 02:19:15.5	92.560	0.280	-0.430	0.150
2020/01/31 02:19:15.6	92.590	0.280	-0.420	0.170
2020/01/31 02:19:15.7	92.620	0.270	-0.410	0.190
2020/01/31 02:19:15.8	92.640	0.260	-0.400	0.220
2020/01/31 02:19:15.9	92.670	0.250	-0.380	0.250
2020/01/31 02:19:16.0	92.690	0.240	-0.370	0.280
2020/01/31 02:19:16.1	92.720	0.220	-0.360	0.320
2020/01/31 02:19:16.2	92.740	0.200	-0.340	0.360
2020/01/31 02:19:16.3	92.760	0.190	-0.320	0.400
2020/01/31 02:19:16.4	92.770	0.170	-0.300	0.440
2020/01/31 02:19:16.5	92.790	0.140	-0.270	0.490
2020/01/31 02:19:16.6	92.800	0.120	-0.250	0.540
2020/01/31 02:19:16.7	92.800	0.090	-0.220	0.590
2020/01/31 02:19:16.8	92.810	0.060	-0.190	0.640
2020/01/31 02:19:16.9	92.810	0.020	-0.160	0.690
2020/01/31 02:19:17.0	92.800	-0.010	-0.120	0.750
2020/01/31 02:19:17.1	92.800	-0.050	-0.080	0.810
2020/01/31 02:19:17.2	92.790	-0.090	-0.040	0.870
2020/01/31 02:19:17.3	92.780	-0.130	0.010	0.920
2020/01/31 02:19:17.4	92.770	-0.180	0.060	0.980
2020/01/31 02:19:17.5	92.750	-0.220	0.110	1.030
2020/01/31 02:19:17.6	92.740	-0.270	0.160	1.090
2020/01/31 02:19:17.7	92.720	-0.320	0.220	1.140
2020/01/31 02:19:17.8	92.700	-0.380	0.270	1.190
2020/01/31 02:19:17.9	92.680	-0.430	0.330	1.240
2020/01/31 02:19:18.0	92.660	-0.480	0.390	1.290
2020/01/31 02:19:18.1	92.650	-0.540	0.460	1.340
2020/01/31 02:19:18.2	92.620	-0.590	0.520	1.380
2020/01/31 02:19:18.3	92.600	-0.650	0.580	1.420
2020/01/31 02:19:18.4	92.570	-0.700	0.630	1.450
2020/01/31 02:19:18.5	92.550	-0.750	0.690	1.480
2020/01/31 02:19:18.6	92.520	-0.800	0.740	1.510
2020/01/31 02:19:18.7	92.500	-0.850	0.790	1.540
2020/01/31 02:19:18.8	92.480	-0.890	0.830	1.550
2020/01/31 02:19:18.9	92.460	-0.930	0.870	1.570
2020/01/31 02:19:19.0	92.440	-0.970	0.900	1.580
2020/01/31 02:19:19.1	92.410	-1.010	0.930	1.580
2020/01/31 02:19:19.2	92.390	-1.030	0.950	1.580
2020/01/31 02:19:19.3	92.380	-1.060	0.950	1.570
2020/01/31 02:19:19.4	92.360	-1.080	0.950	1.560
2020/01/31 02:19:19.5	92.350	-1.090	0.940	1.540
2020/01/31 02:19:19.6	92.350	-1.100	0.920	1.520
2020/01/31 02:19:19.7	92.340	-1.100	0.890	1.490
2020/01/31 02:19:19.8	92.340	-1.090	0.850	1.460
2020/01/31 02:19:19.9	92.330	-1.080	0.790	1.420
2020/01/31 02:19:20.0	92.330	-1.060	0.730	1.380
2020/01/31 02:19:20.1	92.340	-1.040	0.660	1.330
2020/01/31 02:19:20.2	92.340	-1.010	0.580	1.290
2020/01/31 02:19:20.3	92.350	-0.970	0.480	1.240
2020/01/31 02:19:20.4	92.350	-0.920	0.380	1.190
2020/01/31 02:19:20.5	92.360	-0.870	0.270	1.130
2020/01/31 02:19:20.6	92.370	-0.810	0.150	1.080
2020/01/31 02:19:20.7	92.380	-0.750	0.030	1.030
2020/01/31 02:19:20.8	92.390	-0.680	-0.100	0.980
2020/01/31 02:19:20.9	92.400	-0.600	-0.230	0.930
2020/01/31 02:19:21.0	92.410	-0.520	-0.370	0.880
2020/01/31 02:19:21.1	92.410	-0.440	-0.510	0.830
2020/01/31 02:19:21.2	92.410	-0.360	-0.640	0.790
2020/01/31 02:19:21.3	92.420	-0.270	-0.780	0.740
2020/01/31 02:19:21.4	92.430	-0.180	-0.920	0.700
2020/01/31 02:19:21.5	92.430	-0.090	-1.050	0.660
2020/01/31 02:19:21.6	92.440	0.000	-1.170	0.620
2020/01/31 02:19:21.7	92.440	0.090	-1.290	0.590
2020/01/31 02:19:21.8	92.450	0.180	-1.400	0.550
2020/01/31 02:19:21.9	92.460	0.270	-1.510	0.520
2020/01/31 02:19:22.0	92.460	0.350	-1.600	0.490
2020/01/31 02:19:22.1	92.460	0.430	-1.680	0.460
2020/01/31 02:19:22.2	92.470	0.510	-1.750	0.430
2020/01/31 02:19:22.3	92.470	0.580	-1.810	0.410
2020/01/31 02:19:22.4	92.480	0.650	-1.850	0.390
2020/01/31 02:19:22.5	92.490	0.710	-1.880	0.370
2020/01/31 02:19:22.6	92.490	0.760	-1.890	0.360
2020/01/31 02:19:22.7	92.500	0.810	-1.900	0.350
2020/01/31 02:19:22.8	92.500	0.850	-1.880	0.350
2020/01/31 02:19:22.9	92.500	0.890	-1.860	0.360
2020/01/31 02:19:23.0	92.500	0.920	-1.820	0.360
2020/01/31 02:19:23.1	92.520	0.930	-1.760	0.390
2020/01/31 02:19:23.2	92.520	0.950	-1.700	0.410
2020/01/31 02:19:23.3	92.510	0.950	-1.620	0.430
2020/01/31 02:19:23.4	92.510	0.950	-1.530	0.450
2020/01/31 02:19:23.5	92.500	0.940	-1.430	0.480
2020/01/31 02:19:23.6	92.490	0.920	-1.330	0.520
2020/01/31 02:19:23.7	92.470	0.900	-1.210	0.550
2020/01/31 02:19:23.8	92.460	0.870	-1.090	0.590
2020/01/31 02:19:23.9	92.440	0.840	-0.960	0.630
2020/01/31 02:19:24.0	92.420	0.800	-0.830	0.670
2020/01/31 02:19:24.1	92.400	0.760	-0.690	0.710
2020/01/31 02:19:24.2	92.370	0.710	-0.550	0.750
2020/01/31 02:19:24.3	92.350	0.660	-0.410	0.790
2020/01/31 02:19:24.4	92.320	0.600	-0.270	0.830
2020/01/31 02:19:24.5	92.290	0.540	-0.140	0.860
2020/01/31 02:19:24.6	92.260	0.490	-0.010	0.890
2020/01/31 02:19:24.7	92.230	0.430	0.120	0.920
2020/01/31 02:19:24.8	92.210	0.360	0.240	0.940
2020/01/31 02:19:24.9	92.180	0.300	0.360	0.960
2020/01/31 02:19:25.0	92.150	0.240	0.470	0.970
2020/01/31 02:19:25.1	92.130	0.190	0.580	0.980
2020/01/31 02:19:25.2	92.100	0.130	0.670	0.980
2020/01/31 02:19:25.3	92.080	0.070	0.750	0.980
2020/01/31 02:19:25.4	92.060	0.020	0.820	0.970
2020/01/31 02:19:25.5	92.040	-0.030	0.890	0.950
2020/01/31 02:19:25.6	92.030	-0.070	0.940	0.940
2020/01/31 02:19:25.7	92.010	-0.110	0.980	0.920
2020/01/31 02:19:25.8	92.000	-0.150	1.010	0.890
2020/01/31 02:19:25.9	91.990	-0.180	1.030	0.870
2020/01/31 02:19:26.0	91.980	-0.210	1.040	0.840
2020/01/31 02:19:26.1	91.970	-0.230	1.040	0.820
2020/01/31 02:19:26.2	91.970	-0.250	1.020	0.790
2020/01/31 02:19:26.3	91.960	-0.270	1.000	0.770
2020/01/31 02:19:26.4	91.960	-0.280	0.970	0.740
2020/01/31 02:19:26.5	91.960	-0.280	0.930	0.710
2020/01/31 02:19:26.6	91.960	-0.290	0.890	0.690
2020/01/31 02:19:26.7	91.960	-0.280	0.840	0.660
2020/01/31 02:19:26.8	91.970	-0.280	0.780	0.640
2020/01/31 02:19:26.9	91.980	-0.270	0.720	0.610
2020/01/31 02:19:27.0	91.990	-0.260	0.650	0.590
2020/01/31 02:19:27.1	92.010	-0.250	0.580	0.560
2020/01/31 02:19:27.2	92.020	-0.230	0.510	0.530
2020/01/31 02:19:27.3	92.040	-0.210	0.440	0.510
2020/01/31 02:19:27.4	92.060	-0.200	0.370	0.480
2020/01/31 02:19:27.5	92.080	-0.180	0.290	0.460
2020/01/31 02:19:27.6	92.100	-0.150	0.220	0.440
2020/01/31 02:19:27.7	92.130	-0.130	0.150	0.410
2020/01/31 02:19:27.8	92.150	-0.110	0.080	0.390
2020/01/31 02:19:27.9	92.180	-0.080	0.010	0.360
2020/01/31 02:19:28.0	92.210	-0.060	-0.060	0.340
2020/01/31 02:19:28.1	92.240	-0.040	-0.120	0.320
2020/01/31 02:19:28.2	92.270	-0.010	-0.190	0.300
2020/01/31 02:19:28.3	92.300	0.010	-0.250	0.270
2020/01/31 02:19:28.4	92.330	0.030	-0.300	0.250
2020/01/31 02:19:28.5	92.360	0.050	-0.360	0.230
2020/01/31 02:19:28.6	92.390	0.070	-0.410	0.220
2020/01/31 02:19:28.7	92.420	0.090	-0.460	0.200
2020/01/31 02:19:28.8	92.450	0.110	-0.510	0.190
2020/01/31 02:19:28.9	92.480	0.130	-0.560	0.180
2020/01/31 02:19:29.0	92.510	0.150	-0.600	0.180
2020/01/31 02:19:29.1	92.520	0.160	-0.640	0.180
2020/01/31 02:19:29.2	92.540	0.180	-0.680	0.190
2020/01/31 02:19:29.3	92.560	0.190	-0.710	0.200
2020/01/31 02:19:29.4	92.580	0.200	-0.740	0.210
2020/01/31 02:19:29.5	92.600	0.210	-0.770	0.240
2020/01/31 02:19:29.6	92.610	0.220	-0.790	0.260
2020/01/31 02:19:29.7	92.620	0.230	-0.810	0.300
2020/01/31 02:19:29.8	92.630	0.230	-0.830	0.340
2020/01/31 02:19:29.9	92.630	0.230	-0.840	0.380
2020/01/31 02:19:30.0	92.630	0.240	-0.850	0.430
2020/01/31 02:19:30.1	92.630	0.230	-0.850	0.490
2020/01/31 02:19:30.2	92.630	0.230	-0.850	0.540
2020/01/31 02:19:30.3	92.620	0.220	-0.840	0.590
2020/01/31 02:19:30.4	92.620	0.220	-0.830	0.650
2020/01/31 02:19:30.5	92.610	0.210	-0.820	0.710
2020/01/31 02:19:30.6	92.600	0.190	-0.800	0.770
2020/01/31 02:19:30.7	92.580	0.180	-0.780	0.830
2020/01/31 02:19:30.8	92.570	0.160	-0.750	0.890
2020/01/31 02:19:30.9	92.550	0.150	-0.720	0.960
2020/01/31 02:19:31.0	92.540	0.130	-0.690	1.020
2020/01/31 02:19:31.1	92.530	0.110	-0.650	1.080
2020/01/31 02:19:31.2	92.510	0.080	-0.610	1.130
2020/01/31 02:19:31.3	92.500	0.060	-0.570	1.190
2020/01/31 02:19:31.4	92.480	0.030	-0.530	1.240
2020/01/31 02:19:31.5	92.470	0.010	-0.480	1.290
2020/01/31 02:19:31.6	92.460	-0.020	-0.440	1.340
2020/01/31 02:19:31.7	92.440	-0.040	-0.390	1.390
2020/01/31 02:19:31.8	92.430	-0.070	-0.350	1.430
2020/01/31 02:19:31.9	92.420	-0.090	-0.300	1.470
2020/01/31 02:19:32.0	92.410	-0.120	-0.260	1.500
2020/01/31 02:19:32.1	92.400	-0.140	-0.210	1.540
2020/01/31 02:19:32.2	92.390	-0.170	-0.170	1.570
2020/01/31 02:19:32.3	92.380	-0.190	-0.130	1.600
2020/01/31 02:19:32.4	92.370	-0.220	-0.080	1.620
2020/01/31 02:19:32.5	92.350	-0.240	-0.040	1.630
2020/01/31 02:19:32.6	92.340	-0.260	-0.010	1.650
2020/01/31 02:19:32.7	92.330	-0.280	0.030	1.660
2020/01/31 02:19:32.8	92.320	-0.300	0.060	1.660
2020/01/31 02:19:32.9	92.300	-0.320	0.100	1.660
2020/01/31 02:19:33.0	92.290	-0.330	0.130	1.660
2020/01/31 02:19:33.1	92.270	-0.350	0.150	1.650
2020/01/31 02:19:33.2	92.260	-0.360	0.180	1.640
2020/01/31 02:19:33.3	92.250	-0.370	0.200	1.630
2020/01/31 02:19:33.4	92.240	-0.380	0.210	1.610
2020/01/31 02:19:33.5	92.220	-0.390	0.220	1.590
2020/01/31 02:19:33.6	92.210	-0.400	0.230	1.560
2020/01/31 02:19:33.7	92.210	-0.410	0.240	1.530
2020/01/31 02:19:33.8	92.200	-0.410	0.240	1.500
2020/01/31 02:19:33.9	92.190	-0.410	0.240	1.470
2020/01/31 02:19:34.0	92.190	-0.410	0.240	1.440
2020/01/31 02:19:34.1	92.170	-0.410	0.230	1.400
2020/01/31 02:19:34.2	92.170	-0.410	0.220	1.360
2020/01/31 02:19:34.3	92.170	-0.400	0.210	1.320
2020/01/31 02:19:34.4	92.170	-0.400	0.190	1.270
2020/01/31 02:19:34.5	92.170	-0.390	0.180	1.220
2020/01/31 02:19:34.6	92.180	-0.380	0.160	1.170
2020/01/31 02:19:34.7	92.180	-0.370	0.140	1.120
2020/01/31 02:19:34.8	92.190	-0.360	0.120	1.070
2020/01/31 02:19:34.9	92.190	-0.350	0.090	1.020
2020/01/31 02:19:35.0	92.200	-0.330	0.070	0.970
2020/01/31 02:19:35.1	92.210	-0.320	0.040	0.920
2020/01/31 02:19:35.2	92.220	-0.300	0.010	0.870
2020/01/31 02:19:35.3	92.230	-0.290	-0.020	0.820
2020/01/31 02:19:35.4	92.240	-0.270	-0.050	0.770
2020/01/31 02:19:35.5	92.250	-0.250	-0.080	0.720
2020/01/31 02:19:35.6	92.260	-0.230	-0.110	0.680
2020/01/31 02:19:35.7	92.270	-0.200	-0.140	0.630
2020/01/31 02:19:35.8	92.290	-0.180	-0.170	0.590
2020/01/31 02:19:35.9	92.300	-0.160	-0.200	0.550
2020/01/31 02:19:36.0	92.310	-0.130	-0.240	0.520
2020/01/31 02:19:36.1	92.320	-0.100	-0.270	0.480
2020/01/31 02:19:36.2	92.330	-0.080	-0.310	0.450
2020/01/31 02:19:36.3	92.340	-0.050	-0.340	0.420
2020/01/31 02:19:36.4	92.350	-0.020	-0.380	0.390
2020/01/31 02:19:36.5	92.360	0.010	-0.420	0.370
2020/01/31 02:19:36.6	92.370	0.040	-0.450	0.340
2020/01/31 02:19:36.7	92.380	0.070	-0.490	0.320
2020/01/31 02:19:36.8	92.390	0.100	-0.520	0.300
2020/01/31 02:19:36.9	92.390	0.130	-0.560	0.290
2020/01/31 02:19:37.0	92.400	0.160	-0.590	0.270
2020/01/31 02:19:37.1	92.410	0.190	-0.620	0.260
2020/01/31 02:19:37.2	92.410	0.220	-0.650	0.250
2020/01/31 02:19:37.3	92.420	0.240	-0.670	0.240
2020/01/31 02:19:37.4	92.420	0.260	-0.690	0.230
2020/01/31 02:19:37.5	92.420	0.280	-0.710	0.230
2020/01/31 02:19:37.6	92.410	0.300	-0.720	0.220
2020/01/31 02:19:37.7	92.410	0.310	-0.720	0.220
2020/01/31 02:19:37.8	92.400	0.320	-0.720	0.220
2020/01/31 02:19:37.9	92.390	0.330	-0.710	0.210
2020/01/31 02:19:38.0	92.390	0.330	-0.700	0.210
2020/01/31 02:19:38.1	92.380	0.330	-0.680	0.210
2020/01/31 02:19:38.2	92.380	0.330	-0.650	0.210
2020/01/31 02:19:38.3	92.370	0.320	-0.620	0.200
2020/01/31 02:19:38.4	92.360	0.300	-0.580	0.200
2020/01/31 02:19:38.5	92.350	0.290	-0.530	0.200
2020/01/31 02:19:38.6	92.340	0.260	-0.480	0.210
2020/01/31 02:19:38.7	92.330	0.240	-0.430	0.210
2020/01/31 02:19:38.8	92.320	0.210	-0.370	0.220
2020/01/31 02:19:38.9	92.310	0.180	-0.310	0.230
2020/01/31 02:19:39.0	92.310	0.150	-0.250	0.240
2020/01/31 02:19:39.1	92.300	0.110	-0.180	0.250
2020/01/31 02:19:39.2	92.290	0.070	-0.120	0.270
2020/01/31 02:19:39.3	92.290	0.040	-0.060	0.290
2020/01/31 02:19:39.4	92.280	-0.000	0.010	0.310
2020/01/31 02:19:39.5	92.280	-0.040	0.060	0.340
2020/01/31 02:19:39.6	92.280	-0.080	0.120	0.370
2020/01/31 02:19:39.7	92.270	-0.110	0.170	0.390
2020/01/31 02:19:39.8	92.270	-0.150	0.220	0.430
2020/01/31 02:19:39.9	92.270	-0.180	0.250	0.460
2020/01/31 02:19:40.0	92.270	-0.210	0.290	0.490
2020/01/31 02:19:40.1	92.260	-0.230	0.310	0.530
2020/01/31 02:19:40.2	92.260	-0.250	0.320	0.570
2020/01/31 02:19:40.3	92.260	-0.270	0.330	0.600
2020/01/31 02:19:40.4	92.260	-0.280	0.330	0.640
2020/01/31 02:19:40.5	92.260	-0.290	0.320	0.670
2020/01/31 02:19:40.6	92.260	-0.290	0.300	0.700
2020/01/31 02:19:40.7	92.260	-0.280	0.270	0.740
2020/01/31 02:19:40.8	92.270	-0.270	0.240	0.770
2020/01/31 02:19:40.9	92.270	-0.260	0.200	0.790
2020/01/31 02:19:41.0	92.270	-0.240	0.150	0.820
2020/01/31 02:19:41.1	92.270	-0.220	0.090	0.840
2020/01/31 02:19:41.2	92.280	-0.190	0.030	0.860
2020/01/31 02:19:41.3	92.280	-0.160	-0.030	0.880
2020/01/31 02:19:41.4	92.280	-0.120	-0.090	0.900
2020/01/31 02:19:41.5	92.280	-0.090	-0.160	0.910
2020/01/31 02:19:41.6	92.280	-0.050	-0.220	0.930
2020/01/31 02:19:41.7	92.270	-0.010	-0.290	0.940
2020/01/31 02:19:41.8	92.270	0.040	-0.350	0.950
2020/01/31 02:19:41.9	92.260	0.080	-0.410	0.970
2020/01/31 02:19:42.0	92.250	0.120	-0.470	0.980
2020/01/31 02:19:42.1	92.240	0.160	-0.520	1.000
2020/01/31 02:19:42.2	92.220	0.200	-0.570	1.020
2020/01/31 02:19:42.3	92.200	0.240	-0.610	1.030
2020/01/31 02:19:42.4	92.180	0.270	-0.640	1.050
2020/01/31 02:19:42.5	92.160	0.300	-0.670	1.060
2020/01/31 02:19:42.6	92.140	0.330	-0.690	1.080
2020/01/31 02:19:42.7	92.110	0.350	-0.700	1.090
2020/01/31 02:19:42.8	92.080	0.370	-0.700	1.100
2020/01/31 02:19:42.9	92.050	0.390	-0.700	1.120
2020/01/31 02:19:43.0	92.020	0.400	-0.680	1.130
2020/01/31 02:19:43.1	91.980	0.400	-0.660	1.150
2020/01/31 02:19:43.2	91.950	0.410	-0.640	1.160
2020/01/31 02:19:43.3	91.920	0.410	-0.600	1.160
2020/01/31 02:19:43.4	91.900	0.400	-0.570	1.170
2020/01/31 02:19:43.5	91.870	0.390	-0.530	1.180
2020/01/31 02:19:43.6	91.850	0.370	-0.480	1.180
2020/01/31 02:19:43.7	91.820	0.360	-0.430	1.180
2020/01/31 02:19:43.8	91.800	0.340	-0.380	1.180
2020/01/31 02:19:43.9	91.780	0.310	-0.320	1.180
2020/01/31 02:19:44.0	91.770	0.280	-0.260	1.170
2020/01/31 02:19:44.1	91.750	0.250	-0.200	1.170
2020/01/31 02:19:44.2	91.740	0.220	-0.140	1.160
2020/01/31 02:19:44.3	91.730	0.190	-0.080	1.160
2020/01/31 02:19:44.4	91.720	0.160	-0.030	1.150
2020/01/31 02:19:44.5	91.720	0.120	0.030	1.140
2020/01/31 02:19:44.6	91.720	0.090	0.080	1.130
2020/01/31 02:19:44.7	91.730	0.050	0.120	1.120
2020/01/31 02:19:44.8	91.730	0.020	0.170	1.110
2020/01/31 02:19:44.9	91.740	-0.010	0.200	1.100
2020/01/31 02:19:45.0	91.750	-0.040	0.230	1.090
2020/01/31 02:19:45.1	91.770	-0.070	0.260	1.080
2020/01/31 02:19:45.2	91.780	-0.100	0.280	1.060
2020/01/31 02:19:45.3	91.800	-0.120	0.290	1.050
2020/01/31 02:19:45.4	91.810	-0.140	0.300	1.030
2020/01/31 02:19:45.5	91.830	-0.160	0.290	1.020
2020/01/31 02:19:45.6	91.850	-0.180	0.290	1.000
2020/01/31 02:19:45.7	91.870	-0.190	0.270	0.990
2020/01/31 02:19:45.8	91.880	-0.200	0.250	0.970
2020/01/31 02:19:45.9	91.900	-0.200	0.220	0.960
2020/01/31 02:19:46.0	91.920	-0.210	0.190	0.940
2020/01/31 02:19:46.1	91.940	-0.210	0.160	0.930
2020/01/31 02:19:46.2	91.950	-0.200	0.120	0.910
2020/01/31 02:19:46.3	91.960	-0.200	0.070	0.890
2020/01/31 02:19:46.4	91.970	-0.190	0.030	0.870
2020/01/31 02:19:46.5	91.980	-0.180	-0.020	0.850
2020/01/31 02:19:46.6	91.990	-0.170	-0.060	0.840
2020/01/31 02:19:46.7	92.000	-0.160	-0.110	0.810
2020/01/31 02:19:46.8	92.010	-0.150	-0.150	0.790
2020/01/31 02:19:46.9	92.010	-0.140	-0.200	0.770
2020/01/31 02:19:47.0	92.020	-0.130	-0.240	0.750
2020/01/31 02:19:47.1	92.020	-0.120	-0.280	0.740
2020/01/31 02:19:47.2	92.020	-0.100	-0.310	0.720
2020/01/31 02:19:47.3	92.020	-0.090	-0.340	0.700
2020/01/31 02:19:47.4	92.020	-0.090	-0.360	0.690
2020/01/31 02:19:47.5	92.020	-0.080	-0.380	0.680
2020/01/31 02:19:47.6	92.020	-0.070	-0.400	0.670
2020/01/31 02:19:47.7	92.020	-0.070	-0.410	0.660
2020/01/31 02:19:47.8	92.020	-0.060	-0.410	0.660
2020/01/31 02:19:47.9	92.010	-0.060	-0.410	0.660
2020/01/31 02:19:48.0	92.010	-0.060	-0.400	0.670
2020/01/31 02:19:48.1	92.020	-0.060	-0.390	0.680
2020/01/31 02:19:48.2	92.020	-0.070	-0.380	0.700
2020/01/31 02:19:48.3	92.020	-0.070	-0.360	0.710
2020/01/31 02:19:48.4	92.010	-0.080	-0.340	0.730
2020/01/31 02:19:48.5	92.010	-0.090	-0.310	0.760
2020/01/31 02:19:48.6	92.010	-0.100	-0.290	0.790
2020/01/31 02:19:48.7	92.000	-0.110	-0.260	0.820
2020/01/31 02:19:48.8	92.000	-0.120	-0.230	0.850
2020/01/31 02:19:48.9	92.000	-0.130	-0.200	0.880
2020/01/31 02:19:49.0	92.000	-0.150	-0.170	0.920
2020/01/31 02:19:49.1	92.010	-0.160	-0.150	0.960
2020/01/31 02:19:49.2	92.010	-0.170	-0.120	0.990
2020/01/31 02:19:49.3	92.010	-0.180	-0.100	1.020
2020/01/31 02:19:49.4	92.000	-0.200	-0.080	1.050
2020/01/31 02:19:49.5	92.000	-0.210	-0.070	1.080
2020/01/31 02:19:49.6	92.000	-0.210	-0.060	1.100
2020/01/31 02:19:49.7	92.000	-0.220	-0.050	1.120
2020/01/31 02:19:49.8	92.000	-0.230	-0.050	1.140
2020/01/31 02:19:49.9	92.010	-0.230	-0.050	1.150
2020/01/31 02:19:50.0	92.010	-0.230	-0.060	1.160
2020/01/31 02:19:50.1	92.000	-0.230	-0.080	1.160
2020/01/31 02:19:50.2	92.000	-0.230	-0.110	1.160
2020/01/31 02:19:50.3	92.000	-0.220	-0.130	1.150
2020/01/31 02:19:50.4	92.000	-0.210	-0.170	1.140
2020/01/31 02:19:50.5	92.010	-0.200	-0.200	1.120
2020/01/31 02:19:50.6	92.010	-0.180	-0.240	1.100
2020/01/31 02:19:50.7	92.010	-0.160	-0.290	1.090
2020/01/31 02:19:50.8	92.010	-0.140	-0.330	1.070
2020/01/31 02:19:50.9	92.010	-0.120	-0.380	1.050
2020/01/31 02:19:51.0	92.010	-0.090	-0.430	1.030
2020/01/31 02:19:51.1	92.000	-0.060	-0.480	1.020
2020/01/31 02:19:51.2	91.990	-0.030	-0.530	1.010
2020/01/31 02:19:51.3	91.990	-0.000	-0.570	1.000
2020/01/31 02:19:51.4	91.980	0.030	-0.610	1.000
2020/01/31 02:19:51.5	91.980	0.060	-0.650	1.000
2020/01/31 02:19:51.6	91.970	0.090	-0.680	1.000
2020/01/31 02:19:51.7	91.960	0.120	-0.710	1.000
2020/01/31 02:19:51.8	91.950	0.150	-0.730	1.010
2020/01/31 02:19:51.9	91.930	0.180	-0.740	1.020
2020/01/31 02:19:52.0	91.920	0.200	-0.750	1.040
2020/01/31 02:19:52.1	91.910	0.230	-0.760	1.060
2020/01/31 02:19:52.2	91.900	0.250	-0.750	1.080
2020/01/31 02:19:52.3	91.880	0.270	-0.750	1.090
2020/01/31 02:19:52.4	91.860	0.280	-0.730	1.110
2020/01/31 02:19:52.5	91.850	0.300	-0.710	1.130
2020/01/31 02:19:52.6	91.830	0.310	-0.680	1.140
2020/01/31 02:19:52.7	91.810	0.310	-0.650	1.160
2020/01/31 02:19:52.8	91.800	0.320	-0.620	1.170
2020/01/31 02:19:52.9	91.780	0.320	-0.580	1.190
2020/01/31 02:19:53.0	91.770	0.310	-0.530	1.200
2020/01/31 02:19:53.1	91.750	0.310	-0.490	1.210
2020/01/31 02:19:53.2	91.740	0.300	-0.440	1.210
2020/01/31 02:19:53.3	91.720	0.290	-0.390	1.220
2020/01/31 02:19:53.4	91.710	0.270	-0.340	1.220
2020/01/31 02:19:53.5	91.700	0.260	-0.280	1.220
2020/01/31 02:19:53.6	91.690	0.240	-0.230	1.220
2020/01/31 02:19:53.7	91.680	0.220	-0.180	1.210
2020/01/31 02:19:53.8	91.680	0.190	-0.130	1.210
2020/01/31 02:19:53.9	91.670	0.170	-0.090	1.200
2020/01/31 02:19:54.0	91.660	0.140	-0.040	1.190
2020/01/31 02:19:54.1	91.660	0.120	0.010	1.180
2020/01/31 02:19:54.2	91.650	0.090	0.050	1.170
2020/01/31 02:19:54.3	91.650	0.060	0.090	1.160
2020/01/31 02:19:54.4	91.650	0.030	0.120	1.150
2020/01/31 02:19:54.5	91.650	-0.000	0.150	1.130
2020/01/31 02:19:54.6	91.650	-0.030	0.180	1.110
2020/01/31 02:19:54.7	91.650	-0.060	0.200	1.100
2020/01/31 02:19:54.8	91.660	-0.090	0.220	1.070
2020/01/31 02:19:54.9	91.660	-0.120	0.230	1.050
2020/01/31 02:19:55.0	91.670	-0.140	0.240	1.030
2020/01/31 02:19:55.1	91.690	-0.170	0.240	1.010
2020/01/31 02:19:55.2	91.700	-0.190	0.240	0.980
2020/01/31 02:19:55.3	91.720	-0.210	0.240	0.950
2020/01/31 02:19:55.4	91.730	-0.230	0.230	0.920
2020/01/31 02:19:55.5	91.750	-0.250	0.220	0.890
2020/01/31 02:19:55.6	91.770	-0.270	0.200	0.860
2020/01/31 02:19:55.7	91.790	-0.280	0.190	0.830
2020/01/31 02:19:55.8	91.810	-0.290	0.170	0.800
2020/01/31 02:19:55.9	91.830	-0.300	0.140	0.770
2020/01/31 02:19:56.0	91.850	-0.300	0.120	0.740
2020/01/31 02:19:56.1	91.880	-0.300	0.090	0.720
2020/01/31 02:19:56.2	91.900	-0.300	0.060	0.690
2020/01/31 02:19:56.3	91.910	-0.290	0.030	0.670
2020/01/31 02:19:56.4	91.930	-0.290	-0.000	0.650
2020/01/31 02:19:56.5	91.950	-0.280	-0.040	0.640
2020/01/31 02:19:56.6	91.960	-0.260	-0.070	0.620
2020/01/31 02:19:56.7	91.980	-0.250	-0.100	0.610
2020/01/31 02:19:56.8	91.990	-0.230	-0.140	0.600
2020/01/31 02:19:56.9	92.000	-0.210	-0.170	0.600
2020/01/31 02:19:57.0	92.010	-0.190	-0.200	0.590
2020/01/31 02:19:57.1	92.020	-0.170	-0.220	0.600
2020/01/31 02:19:57.2	92.030	-0.140	-0.250	0.600
2020/01/31 02:19:57.3	92.040	-0.120	-0.270	0.600
2020/01/31 02:19:57.4	92.040	-0.100	-0.290	0.600
2020/01/31 02:19:57.5	92.040	-0.070	-0.310	0.600
2020/01/31 02:19:57.6	92.050	-0.050	-0.320	0.610
2020/01/31 02:19:57.7	92.050	-0.030	-0.330	0.610
2020/01/31 02:19:57.8	92.050	-0.010	-0.330	0.620
2020/01/31 02:19:57.9	92.050	0.010	-0.330	0.630
2020/01/31 02:19:58.0	92.050	0.030	-0.330	0.640
2020/01/31 02:19:58.1	92.060	0.040	-0.320	0.650
2020/01/31 02:19:58.2	92.050	0.060	-0.310	0.660
2020/01/31 02:19:58.3	92.050	0.070	-0.300	0.670
2020/01/31 02:19:58.4	92.050	0.080	-0.290	0.690
2020/01/31 02:19:58.5	92.040	0.090	-0.280	0.700
2020/01/31 02:19:58.6	92.040	0.090	-0.260	0.720
2020/01/31 02:19:58.7	92.030	0.100	-0.240	0.730
2020/01/31 02:19:58.8	92.020	0.100	-0.230	0.750
2020/01/31 02:19:58.9	92.010	0.100	-0.210	0.770
2020/01/31 02:19:59.0	92.000	0.100	-0.200	0.790
2020/01/31 02:19:59.1	91.990	0.100	-0.180	0.810
2020/01/31 02:19:59.2	91.980	0.100	-0.170	0.830
2020/01/31 02:19:59.3	91.970	0.100	-0.160	0.850
2020/01/31 02:19:59.4	91.960	0.100	-0.150	0.870
2020/01/31 02:19:59.5	91.950	0.090	-0.150	0.890
2020/01/31 02:19:59.6	91.940	0.090	-0.140	0.910
2020/01/31 02:19:59.7	91.930	0.090	-0.150	0.920
2020/01/31 02:19:59.8	91.920	0.090	-0.150	0.940
2020/01/31 02:19:59.9	91.920	0.090	-0.160	0.960
2020/01/31 02:20:00.0	91.910	0.090	-0.170	0.970
2020/01/31 02:20:00.1	91.900	0.090	-0.180	0.980
2020/01/31 02:20:00.2	91.900	0.090	-0.190	0.990
2020/01/31 02:20:00.3	91.890	0.090	-0.210	0.990
2020/01/31 02:20:00.4	91.900	0.100	-0.220	0.990
2020/01/31 02:20:00.5	91.900	0.100	-0.240	0.990
2020/01/31 02:20:00.6	91.900	0.110	-0.260	0.990
2020/01/31 02:20:00.7	91.900	0.110	-0.270	0.980
2020/01/31 02:20:00.8	91.910	0.120	-0.290	0.970
2020/01/31 02:20:00.9	91.910	0.130	-0.300	0.960
2020/01/31 02:20:01.0	91.920	0.130	-0.310	0.950
2020/01/31 02:20:01.1	91.920	0.140	-0.320	0.930
2020/01/31 02:20:01.2	91.930	0.150	-0.330	0.920
2020/01/31 02:20:01.3	91.940	0.150	-0.340	0.910
2020/01/31 02:20:01.4	91.940	0.160	-0.350	0.890
2020/01/31 02:20:01.5	91.950	0.170	-0.350	0.870
2020/01/31 02:20:01.6	91.950	0.180	-0.360	0.860
2020/01/31 02:20:01.7	91.960	0.180	-0.360	0.850
2020/01/31 02:20:01.8	91.960	0.190	-0.360	0.840
2020/01/31 02:20:01.9	91.960	0.190	-0.360	0.830
2020/01/31 02:20:02.0	91.970	0.200	-0.360	0.820
2020/01/31 02:20:02.1	91.960	0.200	-0.360	0.830
2020/01/31 02:20:02.2	91.960	0.200	-0.360	0.830
2020/01/31 02:20:02.3	91.950	0.200	-0.350	0.830
2020/01/31 02:20:02.4	91.940	0.200	-0.350	0.840
2020/01/31 02:20:02.5	91.930	0.200	-0.340	0.850
2020/01/31 02:20:02.6	91.920	0.190	-0.330	0.860
2020/01/31 02:20:02.7	91.910	0.190	-0.330	0.870
2020/01/31 02:20:02.8	91.900	0.180	-0.320	0.880
2020/01/31 02:20:02.9	91.880	0.170	-0.300	0.900
2020/01/31 02:20:03.0	91.870	0.150	-0.290	0.910
2020/01/31 02:20:03.1	91.860	0.140	-0.270	0.930
2020/01/31 02:20:03.2	91.850	0.120	-0.260	0.940
2020/01/31 02:20:03.3	91.840	0.100	-0.240	0.950
2020/01/31 02:20:03.4	91.820	0.080	-0.220	0.960
2020/01/31 02:20:03.5	91.810	0.060	-0.200	0.970
2020/01/31 02:20:03.6	91.800	0.030	-0.180	0.970
2020/01/31 02:20:03.7	91.790	0.010	-0.160	0.980
2020/01/31 02:20:03.8	91.780	-0.020	-0.140	0.980
2020/01/31 02:20:03.9	91.770	-0.050	-0.120	0.980
2020/01/31 02:20:04.0	91.760	-0.080	-0.100	0.980
2020/01/31 02:20:04.1	91.750	-0.110	-0.080	0.970
2020/01/31 02:20:04.2	91.740	-0.140	-0.070	0.970
2020/01/31 02:20:04.3	91.740	-0.160	-0.050	0.960
2020/01/31 02:20:04.4	91.730	-0.190	-0.030	0.960
2020/01/31 02:20:04.5	91.720	-0.210	-0.020	0.950
2020/01/31 02:20:04.6	91.720	-0.240	-0.010	0.940
2020/01/31 02:20:04.7	91.710	-0.260	-0.000	0.930
2020/01/31 02:20:04.8	91.700	-0.280	0.010	0.920
2020/01/31 02:20:04.9	91.700	-0.290	0.010	0.920
2020/01/31 02:20:05.0	91.690	-0.310	0.010	0.910
2020/01/31 02:20:05.1	91.680	-0.320	0.010	0.910
2020/01/31 02:20:05.2	91.680	-0.330	0.000	0.900
2020/01/31 02:20:05.3	91.680	-0.330	-0.010	0.900
2020/01/31 02:20:05.4	91.670	-0.340	-0.020	0.890
2020/01/31 02:20:05.5	91.670	-0.340	-0.040	0.890
2020/01/31 02:20:05.6	91.670	-0.330	-0.050	0.880
2020/01/31 02:20:05.7	91.670	-0.330	-0.070	0.880
2020/01/31 02:20:05.8	91.680	-0.320	-0.090	0.870
2020/01/31 02:20:05.9	91.680	-0.310	-0.110	0.860
2020/01/31 02:20:06.0	91.680	-0.300	-0.140	0.850
2020/01/31 02:20:06.1	91.700	-0.290	-0.170	0.840
2020/01/31 02:20:06.2	91.700	-0.270	-0.190	0.830
2020/01/31 02:20:06.3	91.710	-0.260	-0.210	0.820
2020/01/31 02:20:06.4	91.720	-0.240	-0.240	0.800
2020/01/31 02:20:06.5	91.730	-0.220	-0.260	0.790
2020/01/31 02:20:06.6	91.750	-0.200	-0.280	0.770
2020/01/31 02:20:06.7	91.760	-0.180	-0.300	0.750
2020/01/31 02:20:06.8	91.770	-0.160	-0.320	0.740
2020/01/31 02:20:06.9	91.780	-0.150	-0.340	0.720
2020/01/31 02:20:07.0	91.790	-0.130	-0.360	0.710
2020/01/31 02:20:07.1	91.800	-0.110	-0.370	0.700
2020/01/31 02:20:07.2	91.810	-0.090	-0.390	0.680
2020/01/31 02:20:07.3	91.820	-0.070	-0.400	0.670
2020/01/31 02:20:07.4	91.830	-0.060	-0.410	0.660
2020/01/31 02:20:07.5	91.840	-0.040	-0.420	0.650
2020/01/31 02:20:07.6	91.840	-0.030	-0.430	0.650
2020/01/31 02:20:07.7	91.850	-0.010	-0.440	0.640
2020/01/31 02:20:07.8	91.850	-0.000	-0.440	0.640
2020/01/31 02:20:07.9	91.850	0.010	-0.440	0.630
2020/01/31 02:20:08.0	91.850	0.020	-0.440	0.640
2020/01/31 02:20:08.1	91.850	0.020	-0.440	0.640
2020/01/31 02:20:08.2	91.850	0.030	-0.440	0.640
2020/01/31 02:20:08.3	91.840	0.040	-0.430	0.650
2020/01/31 02:20:08.4	91.840	0.040	-0.420	0.660
2020/01/31 02:20:08.5	91.830	0.040	-0.420	0.680
2020/01/31 02:20:08.6	91.820	0.050	-0.410	0.690
2020/01/31 02:20:08.7	91.810	0.050	-0.390	0.710
2020/01/31 02:20:08.8	91.800	0.050	-0.380	0.730
2020/01/31 02:20:08.9	91.790	0.050	-0.370	0.750
2020/01/31 02:20:09.0	91.770	0.050	-0.350	0.770
2020/01/31 02:20:09.1	91.760	0.050	-0.340	0.810
2020/01/31 02:20:09.2	91.740	0.050	-0.320	0.830
2020/01/31 02:20:09.3	91.730	0.050	-0.310	0.850
2020/01/31 02:20:09.4	91.710	0.040	-0.290	0.870
2020/01/31 02:20:09.5	91.690	0.040	-0.280	0.890
2020/01/31 02:20:09.6	91.680	0.040	-0.260	0.910
2020/01/31 02:20:09.7	91.660	0.040	-0.240	0.930
2020/01/31 02:20:09.8	91.640	0.040	-0.230	0.950
2020/01/31 02:20:09.9	91.620	0.040	-0.210	0.970
2020/01/31 02:20:10.0	91.610	0.040	-0.200	0.980
2020/01/31 02:20:10.1	91.590	0.040	-0.180	0.990
2020/01/31 02:20:10.2	91.580	0.040	-0.170	1.000
2020/01/31 02:20:10.3	91.560	0.040	-0.160	1.010
2020/01/31 02:20:10.4	91.550	0.040	-0.140	1.020
2020/01/31 02:20:10.5	91.540	0.040	-0.130	1.020
2020/01/31 02:20:10.6	91.530	0.040	-0.120	1.020
2020/01/31 02:20:10.7	91.520	0.040	-0.110	1.020
2020/01/31 02:20:10.8	91.510	0.050	-0.100	1.020
2020/01/31 02:20:10.9	91.510	0.050	-0.100	1.010
2020/01/31 02:20:11.0	91.500	0.050	-0.090	1.010
2020/01/31 02:20:11.1	91.490	0.050	-0.080	1.010
2020/01/31 02:20:11.2	91.490	0.050	-0.080	1.000
2020/01/31 02:20:11.3	91.490	0.050	-0.080	0.990
2020/01/31 02:20:11.4	91.490	0.050	-0.080	0.980
2020/01/31 02:20:11.5	91.490	0.050	-0.080	0.980
2020/01/31 02:20:11.6	91.500	0.050	-0.090	0.970
2020/01/31 02:20:11.7	91.500	0.050	-0.090	0.970
2020/01/31 02:20:11.8	91.510	0.050	-0.100	0.960
2020/01/31 02:20:11.9	91.510	0.060	-0.110	0.960
2020/01/31 02:20:12.0	91.510	0.060	-0.120	0.960
2020/01/31 02:20:12.1	91.510	0.060	-0.130	0.960
2020/01/31 02:20:12.2	91.520	0.060	-0.150	0.960
2020/01/31 02:20:12.3	91.520	0.060	-0.160	0.960
2020/01/31 02:20:12.4	91.520	0.060	-0.170	0.960
2020/01/31 02:20:12.5	91.530	0.060	-0.190	0.960
2020/01/31 02:20:12.6	91.530	0.060	-0.200	0.960
2020/01/31 02:20:12.7	91.530	0.060	-0.220	0.970
2020/01/31 02:20:12.8	91.530	0.060	-0.230	0.970
2020/01/31 02:20:12.9	91.520	0.070	-0.240	0.970
2020/01/31 02:20:13.0	91.520	0.070	-0.250	0.980
2020/01/31 02:20:13.1	91.510	0.070	-0.260	0.980
2020/01/31 02:20:13.2	91.510	0.070	-0.260	0.980
2020/01/31 02:20:13.3	91.500	0.070	-0.270	0.990
2020/01/31 02:20:13.4	91.500	0.070	-0.270	0.990
2020/01/31 02:20:13.5	91.490	0.070	-0.270	0.990
2020/01/31 02:20:13.6	91.480	0.060	-0.270	0.990
2020/01/31 02:20:13.7	91.470	0.060	-0.270	1.000
2020/01/31 02:20:13.8	91.460	0.060	-0.260	1.000
2020/01/31 02:20:13.9	91.450	0.060	-0.260	1.000
2020/01/31 02:20:14.0	91.440	0.050	-0.250	1.000
2020/01/31 02:20:14.1	91.450	0.050	-0.240	1.010
2020/01/31 02:20:14.2	91.430	0.050	-0.220	1.010
2020/01/31 02:20:14.3	91.420	0.040	-0.210	1.020
2020/01/31 02:20:14.4	91.410	0.040	-0.190	1.030
2020/01/31 02:20:14.5	91.400	0.030	-0.170	1.040
2020/01/31 02:20:14.6	91.380	0.030	-0.160	1.050
2020/01/31 02:20:14.7	91.370	0.030	-0.140	1.060
2020/01/31 02:20:14.8	91.360	0.020	-0.120	1.070
2020/01/31 02:20:14.9	91.350	0.010	-0.110	1.080
2020/01/31 02:20:15.0	91.330	0.010	-0.090	1.090
2020/01/31 02:20:15.1	91.330	0.000	-0.070	1.110
2020/01/31 02:20:15.2	91.320	-0.000	-0.060	1.130
2020/01/31 02:20:15.3	91.310	-0.010	-0.050	1.140
2020/01/31 02:20:15.4	91.300	-0.010	-0.040	1.160
2020/01/31 02:20:15.5	91.290	-0.020	-0.040	1.170
2020/01/31 02:20:15.6	91.290	-0.020	-0.030	1.180
2020/01/31 02:20:15.7	91.280	-0.020	-0.030	1.190
2020/01/31 02:20:15.8	91.280	-0.030	-0.040	1.210
2020/01/31 02:20:15.9	91.280	-0.030	-0.040	1.210
2020/01/31 02:20:16.0	91.290	-0.040	-0.050	1.220
2020/01/31 02:20:16.1	91.310	-0.040	-0.060	1.230
2020/01/31 02:20:16.2	91.320	-0.040	-0.070	1.230
2020/01/31 02:20:16.3	91.330	-0.040	-0.080	1.230
2020/01/31 02:20:16.4	91.340	-0.050	-0.090	1.230
2020/01/31 02:20:16.5	91.350	-0.050	-0.110	1.220
2020/01/31 02:20:16.6	91.370	-0.050	-0.120	1.210
2020/01/31 02:20:16.7	91.380	-0.060	-0.140	1.200
2020/01/31 02:20:16.8	91.400	-0.060	-0.160	1.190
2020/01/31 02:20:16.9	91.420	-0.060	-0.170	1.180
2020/01/31 02:20:17.0	91.440	-0.060	-0.190	1.160
2020/01/31 02:20:17.1	91.450	-0.070	-0.200	1.150
2020/01/31 02:20:17.2	91.470	-0.070	-0.220	1.140
2020/01/31 02:20:17.3	91.490	-0.070	-0.230	1.130
2020/01/31 02:20:17.4	91.510	-0.080	-0.240	1.110
2020/01/31 02:20:17.5	91.520	-0.080	-0.250	1.100
2020/01/31 02:20:17.6	91.540	-0.080	-0.260	1.090
2020/01/31 02:20:17.7	91.550	-0.090	-0.270	1.090
2020/01/31 02:20:17.8	91.560	-0.090	-0.280	1.080
2020/01/31 02:20:17.9	91.570	-0.100	-0.280	1.080
2020/01/31 02:20:18.0	91.580	-0.100	-0.280	1.080
2020/01/31 02:20:18.1	91.590	-0.100	-0.290	1.080
2020/01/31 02:20:18.2	91.600	-0.110	-0.290	1.080
2020/01/31 02:20:18.3	91.610	-0.110	-0.280	1.090
2020/01/31 02:20:18.4	91.610	-0.120	-0.280	1.100
2020/01/31 02:20:18.5	91.620	-0.120	-0.280	1.100
2020/01/31 02:20:18.6	91.620	-0.120	-0.280	1.110
2020/01/31 02:20:18.7	91.630	-0.130	-0.280	1.110
2020/01/31 02:20:18.8	91.630	-0.130	-0.270	1.120
2020/01/31 02:20:18.9	91.640	-0.130	-0.270	1.120
2020/01/31 02:20:19.0	91.640	-0.130	-0.270	1.130
2020/01/31 02:20:19.1	91.650	-0.130	-0.260	1.140
2020/01/31 02:20:19.2	91.650	-0.130	-0.260	1.140
2020/01/31 02:20:19.3	91.660	-0.130	-0.270	1.140
2020/01/31 02:20:19.4	91.660	-0.130	-0.270	1.130
2020/01/31 02:20:19.5	91.670	-0.120	-0.270	1.130
2020/01/31 02:20:19.6	91.670	-0.120	-0.270	1.120
2020/01/31 02:20:19.7	91.670	-0.110	-0.280	1.120
2020/01/31 02:20:19.8	91.680	-0.100	-0.290	1.110
2020/01/31 02:20:19.9	91.680	-0.090	-0.300	1.100
2020/01/31 02:20:20.0	91.680	-0.080	-0.310	1.100
2020/01/31 02:20:20.1	91.680	-0.070	-0.320	1.090
2020/01/31 02:20:20.2	91.680	-0.050	-0.330	1.090
2020/01/31 02:20:20.3	91.670	-0.040	-0.340	1.090
2020/01/31 02:20:20.4	91.670	-0.020	-0.360	1.090
2020/01/31 02:20:20.5	91.660	-0.010	-0.370	1.090
2020/01/31 02:20:20.6	91.650	0.010	-0.380	1.090
2020/01/31 02:20:20.7	91.640	0.030	-0.400	1.100
2020/01/31 02:20:20.8	91.630	0.050	-0.410	1.100
2020/01/31 02:20:20.9	91.620	0.070	-0.420	1.110
2020/01/31 02:20:21.0	91.600	0.080	-0.430	1.120
2020/01/31 02:20:21.1	91.600	0.100	-0.440	1.130
2020/01/31 02:20:21.2	91.590	0.120	-0.450	1.140
2020/01/31 02:20:21.3	91.570	0.140	-0.450	1.150
2020/01/31 02:20:21.4	91.560	0.150	-0.460	1.150
2020/01/31 02:20:21.5	91.550	0.160	-0.460	1.160
2020/01/31 02:20:21.6	91.540	0.180	-0.460	1.160
2020/01/31 02:20:21.7	91.530	0.190	-0.460	1.160
2020/01/31 02:20:21.8	91.530	0.190	-0.450	1.160
2020/01/31 02:20:21.9	91.520	0.200	-0.440	1.150
2020/01/31 02:20:22.0	91.510	0.200	-0.430	1.140
2020/01/31 02:20:22.1	91.500	0.200	-0.420	1.130
2020/01/31 02:20:22.2	91.500	0.200	-0.400	1.110
2020/01/31 02:20:22.3	91.500	0.200	-0.380	1.090
2020/01/31 02:20:22.4	91.500	0.200	-0.360	1.070
2020/01/31 02:20:22.5	91.500	0.190	-0.330	1.040
2020/01/31 02:20:22.6	91.500	0.180	-0.310	1.010
2020/01/31 02:20:22.7	91.500	0.170	-0.280	0.980
2020/01/31 02:20:22.8	91.500	0.160	-0.250	0.950
2020/01/31 02:20:22.9	91.500	0.140	-0.220	0.920
2020/01/31 02:20:23.0	91.500	0.120	-0.190	0.890
2020/01/31 02:20:23.1	91.490	0.110	-0.160	0.860
2020/01/31 02:20:23.2	91.490	0.090	-0.130	0.840
2020/01/31 02:20:23.3	91.490	0.070	-0.100	0.810
2020/01/31 02:20:23.4	91.490	0.050	-0.070	0.780
2020/01/31 02:20:23.5	91.490	0.030	-0.040	0.760
2020/01/31 02:20:23.6	91.490	0.010	-0.010	0.740
2020/01/31 02:20:23.7	91.480	-0.000	0.020	0.720
2020/01/31 02:20:23.8	91.480	-0.020	0.040	0.710
2020/01/31 02:20:23.9	91.470	-0.040	0.070	0.690
2020/01/31 02:20:24.0	91.470	-0.050	0.080	0.680
2020/01/31 02:20:24.1	91.470	-0.070	0.100	0.670
2020/01/31 02:20:24.2	91.470	-0.080	0.110	0.660
2020/01/31 02:20:24.3	91.470	-0.090	0.120	0.650
2020/01/31 02:20:24.4	91.460	-0.090	0.120	0.640
2020/01/31 02:20:24.5	91.460	-0.100	0.120	0.630
2020/01/31 02:20:24.6	91.460	-0.100	0.110	0.620
2020/01/31 02:20:24.7	91.460	-0.100	0.100	0.620
2020/01/31 02:20:24.8	91.460	-0.090	0.080	0.610
2020/01/31 02:20:24.9	91.460	-0.090	0.060	0.600
2020/01/31 02:20:25.0	91.450	-0.080	0.030	0.590
2020/01/31 02:20:25.1	91.460	-0.070	0.000	0.590
2020/01/31 02:20:25.2	91.460	-0.050	-0.040	0.580
2020/01/31 02:20:25.3	91.460	-0.040	-0.080	0.570
2020/01/31 02:20:25.4	91.460	-0.020	-0.120	0.570
2020/01/31 02:20:25.5	91.460	0.000	-0.170	0.560
2020/01/31 02:20:25.6	91.460	0.020	-0.220	0.560
2020/01/31 02:20:25.7	91.460	0.050	-0.270	0.560
2020/01/31 02:20:25.8	91.460	0.070	-0.330	0.560
2020/01/31 02:20:25.9	91.450	0.100	-0.380	0.560
2020/01/31 02:20:26.0	91.450	0.130	-0.440	0.560
2020/01/31 02:20:26.1	91.450	0.150	-0.490	0.570
2020/01/31 02:20:26.2	91.450	0.180	-0.550	0.580
2020/01/31 02:20:26.3	91.450	0.200	-0.600	0.590
2020/01/31 02:20:26.4	91.440	0.230	-0.640	0.610
2020/01/31 02:20:26.5	91.440	0.250	-0.690	0.620
2020/01/31 02:20:26.6	91.440	0.270	-0.720	0.640
2020/01/31 02:20:26.7	91.430	0.280	-0.750	0.670
2020/01/31 02:20:26.8	91.430	0.300	-0.770	0.690
2020/01/31 02:20:26.9	91.430	0.300	-0.780	0.710
2020/01/31 02:20:27.0	91.430	0.310	-0.780	0.740
2020/01/31 02:20:27.1	91.430	0.310	-0.780	0.770
2020/01/31 02:20:27.2	91.430	0.300	-0.760	0.790
2020/01/31 02:20:27.3	91.440	0.290	-0.730	0.820
2020/01/31 02:20:27.4	91.450	0.270	-0.690	0.840
2020/01/31 02:20:27.5	91.460	0.250	-0.650	0.870
2020/01/31 02:20:27.6	91.470	0.230	-0.590	0.890
2020/01/31 02:20:27.7	91.480	0.190	-0.530	0.920
2020/01/31 02:20:27.8	91.490	0.160	-0.450	0.940
2020/01/31 02:20:27.9	91.500	0.120	-0.370	0.970
2020/01/31 02:20:28.0	91.520	0.070	-0.290	0.990
2020/01/31 02:20:28.1	91.520	0.020	-0.190	1.020
2020/01/31 02:20:28.2	91.530	-0.030	-0.090	1.040
2020/01/31 02:20:28.3	91.550	-0.080	0.010	1.070
2020/01/31 02:20:28.4	91.560	-0.140	0.100	1.090
2020/01/31 02:20:28.5	91.570	-0.200	0.200	1.110
2020/01/31 02:20:28.6	91.590	-0.250	0.300	1.140
2020/01/31 02:20:28.7	91.600	-0.310	0.400	1.160
2020/01/31 02:20:28.8	91.610	-0.370	0.490	1.180
2020/01/31 02:20:28.9	91.630	-0.430	0.580	1.210
2020/01/31 02:20:29.0	91.640	-0.480	0.660	1.230
2020/01/31 02:20:29.1	91.650	-0.540	0.730	1.260
2020/01/31 02:20:29.2	91.660	-0.590	0.790	1.280
2020/01/31 02:20:29.3	91.680	-0.630	0.840	1.300
2020/01/31 02:20:29.4	91.690	-0.670	0.880	1.310
2020/01/31 02:20:29.5	91.700	-0.710	0.910	1.330
2020/01/31 02:20:29.6	91.710	-0.740	0.930	1.350
2020/01/31 02:20:29.7	91.720	-0.760	0.930	1.360
2020/01/31 02:20:29.8	91.730	-0.780	0.920	1.380
2020/01/31 02:20:29.9	91.750	-0.790	0.900	1.380
2020/01/31 02:20:30.0	91.760	-0.800	0.870	1.390
2020/01/31 02:20:30.1	91.770	-0.790	0.820	1.400
2020/01/31 02:20:30.2	91.780	-0.780	0.760	1.390
2020/01/31 02:20:30.3	91.800	-0.760	0.690	1.390
2020/01/31 02:20:30.4	91.810	-0.740	0.610	1.380
2020/01/31 02:20:30.5	91.830	-0.710	0.520	1.370
2020/01/31 02:20:30.6	91.840	-0.670	0.420	1.360
2020/01/31 02:20:30.7	91.850	-0.630	0.310	1.340
2020/01/31 02:20:30.8	91.870	-0.580	0.200	1.320
2020/01/31 02:20:30.9	91.880	-0.530	0.080	1.300
2020/01/31 02:20:31.0	91.900	-0.470	-0.040	1.270
2020/01/31 02:20:31.1	91.910	-0.410	-0.170	1.250
2020/01/31 02:20:31.2	91.930	-0.340	-0.290	1.220
2020/01/31 02:20:31.3	91.940	-0.280	-0.410	1.200
2020/01/31 02:20:31.4	91.950	-0.210	-0.530	1.170
2020/01/31 02:20:31.5	91.960	-0.140	-0.640	1.140
2020/01/31 02:20:31.6	91.960	-0.070	-0.750	1.110
2020/01/31 02:20:31.7	91.970	-0.010	-0.860	1.080
2020/01/31 02:20:31.8	91.970	0.060	-0.960	1.050
2020/01/31 02:20:31.9	91.970	0.120	-1.050	1.020
2020/01/31 02:20:32.0	91.970	0.180	-1.130	0.990
2020/01/31 02:20:32.1	91.970	0.240	-1.200	0.960
2020/01/31 02:20:32.2	91.960	0.300	-1.270	0.940
2020/01/31 02:20:32.3	91.950	0.350	-1.320	0.910
2020/01/31 02:20:32.4	91.950	0.400	-1.360	0.880
2020/01/31 02:20:32.5	91.940	0.440	-1.390	0.860
2020/01/31 02:20:32.6	91.920	0.470	-1.410	0.830
2020/01/31 02:20:32.7	91.910	0.510	-1.420	0.810
2020/01/31 02:20:32.8	91.900	0.530	-1.420	0.790
2020/01/31 02:20:32.9	91.880	0.550	-1.400	0.770
2020/01/31 02:20:33.0	91.860	0.570	-1.380	0.750
2020/01/31 02:20:33.1	91.840	0.580	-1.340	0.730
2020/01/31 02:20:33.2	91.820	0.580	-1.300	0.710
2020/01/31 02:20:33.3	91.800	0.580	-1.240	0.690
2020/01/31 02:20:33.4	91.780	0.580	-1.180	0.680
2020/01/31 02:20:33.5	91.760	0.570	-1.110	0.660
2020/01/31 02:20:33.6	91.740	0.560	-1.030	0.650
2020/01/31 02:20:33.7	91.720	0.540	-0.940	0.630
2020/01/31 02:20:33.8	91.690	0.520	-0.850	0.620
2020/01/31 02:20:33.9	91.670	0.490	-0.750	0.600
2020/01/31 02:20:34.0	91.650	0.460	-0.650	0.590
2020/01/31 02:20:34.1	91.620	0.430	-0.550	0.590
2020/01/31 02:20:34.2	91.600	0.400	-0.440	0.580
2020/01/31 02:20:34.3	91.580	0.360	-0.330	0.570
2020/01/31 02:20:34.4	91.560	0.330	-0.230	0.570
2020/01/31 02:20:34.5	91.530	0.290	-0.130	0.570
2020/01/31 02:20:34.6	91.510	0.250	-0.030	0.570
2020/01/31 02:20:34.7	91.480	0.210	0.070	0.570
2020/01/31 02:20:34.8	91.450	0.170	0.160	0.570
2020/01/31 02:20:34.9	91.420	0.130	0.250	0.580
2020/01/31 02:20:35.0	91.400	0.090	0.330	0.580
2020/01/31 02:20:35.1	91.380	0.060	0.410	0.590
2020/01/31 02:20:35.2	91.350	0.020	0.470	0.590
2020/01/31 02:20:35.3	91.330	-0.010	0.530	0.590
2020/01/31 02:20:35.4	91.300	-0.050	0.570	0.590
2020/01/31 02:20:35.5	91.280	-0.080	0.610	0.590
2020/01/31 02:20:35.6	91.260	-0.110	0.640	0.590
2020/01/31 02:20:35.7	91.240	-0.130	0.660	0.590
2020/01/31 02:20:35.8	91.230	-0.160	0.670	0.580
2020/01/31 02:20:35.9	91.220	-0.180	0.670	0.560
2020/01/31 02:20:36.0	91.210	-0.190	0.650	0.550
2020/01/31 02:20:36.1	91.210	-0.210	0.630	0.540
2020/01/31 02:20:36.2	91.210	-0.220	0.600	0.520
2020/01/31 02:20:36.3	91.210	-0.220	0.560	0.490
2020/01/31 02:20:36.4	91.210	-0.220	0.510	0.470
2020/01/31 02:20:36.5	91.210	-0.220	0.450	0.450
2020/01/31 02:20:36.6	91.220	-0.220	0.390	0.420
2020/01/31 02:20:36.7	91.230	-0.210	0.320	0.400
2020/01/31 02:20:36.8	91.240	-0.190	0.240	0.380
2020/01/31 02:20:36.9	91.250	-0.180	0.160	0.360
2020/01/31 02:20:37.0	91.260	-0.160	0.070	0.350
2020/01/31 02:20:37.1	91.270	-0.140	-0.020	0.340
2020/01/31 02:20:37.2	91.290	-0.110	-0.110	0.340
2020/01/31 02:20:37.3	91.300	-0.090	-0.210	0.330
2020/01/31 02:20:37.4	91.310	-0.060	-0.300	0.340
2020/01/31 02:20:37.5	91.320	-0.030	-0.380	0.340
2020/01/31 02:20:37.6	91.330	0.010	-0.470	0.360
2020/01/31 02:20:37.7	91.350	0.040	-0.550	0.370
2020/01/31 02:20:37.8	91.360	0.070	-0.630	0.390
2020/01/31 02:20:37.9	91.370	0.100	-0.700	0.410
2020/01/31 02:20:38.0	91.380	0.130	-0.770	0.440
2020/01/31 02:20:38.1	91.390	0.160	-0.830	0.470
2020/01/31 02:20:38.2	91.400	0.190	-0.880	0.500
2020/01/31 02:20:38.3	91.410	0.220	-0.920	0.530
2020/01/31 02:20:38.4	91.410	0.240	-0.960	0.560
2020/01/31 02:20:38.5	91.420	0.270	-0.990	0.590
2020/01/31 02:20:38.6	91.430	0.280	-1.010	0.630
2020/01/31 02:20:38.7	91.440	0.300	-1.020	0.660
2020/01/31 02:20:38.8	91.440	0.310	-1.020	0.700
2020/01/31 02:20:38.9	91.450	0.320	-1.010	0.730
2020/01/31 02:20:39.0	91.460	0.320	-0.990	0.770
2020/01/31 02:20:39.1	91.450	0.320	-0.960	0.800
2020/01/31 02:20:39.2	91.460	0.320	-0.930	0.830
2020/01/31 02:20:39.3	91.460	0.310	-0.880	0.870
2020/01/31 02:20:39.4	91.470	0.300	-0.830	0.900
2020/01/31 02:20:39.5	91.480	0.280	-0.770	0.930
2020/01/31 02:20:39.6	91.480	0.260	-0.710	0.960
2020/01/31 02:20:39.7	91.490	0.230	-0.630	0.990
2020/01/31 02:20:39.8	91.500	0.200	-0.550	1.020
2020/01/31 02:20:39.9	91.500	0.170	-0.470	1.050
2020/01/31 02:20:40.0	91.510	0.130	-0.380	1.070
2020/01/31 02:20:40.1	91.520	0.090	-0.290	1.100
2020/01/31 02:20:40.2	91.530	0.050	-0.190	1.130
2020/01/31 02:20:40.3	91.530	0.000	-0.090	1.160
2020/01/31 02:20:40.4	91.540	-0.040	0.000	1.180
2020/01/31 02:20:40.5	91.540	-0.090	0.100	1.210
2020/01/31 02:20:40.6	91.550	-0.140	0.200	1.240
2020/01/31 02:20:40.7	91.550	-0.190	0.290	1.260
2020/01/31 02:20:40.8	91.550	-0.240	0.390	1.290
2020/01/31 02:20:40.9	91.560	-0.280	0.480	1.310
2020/01/31 02:20:41.0	91.560	-0.330	0.560	1.340
2020/01/31 02:20:41.1	91.560	-0.380	0.650	1.370
2020/01/31 02:20:41.2	91.560	-0.420	0.720	1.390
2020/01/31 02:20:41.3	91.560	-0.460	0.790	1.410
2020/01/31 02:20:41.4	91.560	-0.500	0.860	1.430
2020/01/31 02:20:41.5	91.560	-0.540	0.910	1.440
2020/01/31 02:20:41.6	91.560	-0.570	0.960	1.450
2020/01/31 02:20:41.7	91.560	-0.600	0.990	1.460
2020/01/31 02:20:41.8	91.570	-0.630	1.020	1.460
2020/01/31 02:20:41.9	91.570	-0.650	1.040	1.450
2020/01/31 02:20:42.0	91.570	-0.660	1.050	1.440
2020/01/31 02:20:42.1	91.570	-0.670	1.050	1.440
2020/01/31 02:20:42.2	91.570	-0.680	1.030	1.420
2020/01/31 02:20:42.3	91.570	-0.680	1.010	1.400
2020/01/31 02:20:42.4	91.580	-0.680	0.970	1.370
2020/01/31 02:20:42.5	91.580	-0.670	0.920	1.340
2020/01/31 02:20:42.6	91.580	-0.650	0.860	1.310
2020/01/31 02:20:42.7	91.590	-0.630	0.790	1.280
2020/01/31 02:20:42.8	91.590	-0.600	0.720	1.240
2020/01/31 02:20:42.9	91.590	-0.570	0.630	1.210
2020/01/31 02:20:43.0	91.590	-0.540	0.530	1.170
2020/01/31 02:20:43.1	91.590	-0.500	0.420	1.140
2020/01/31 02:20:43.2	91.590	-0.450	0.310	1.110
2020/01/31 02:20:43.3	91.590	-0.400	0.190	1.080
2020/01/31 02:20:43.4	91.580	-0.350	0.070	1.060
2020/01/31 02:20:43.5	91.580	-0.300	-0.050	1.030
2020/01/31 02:20:43.6	91.570	-0.240	-0.180	1.010
2020/01/31 02:20:43.7	91.560	-0.180	-0.310	0.990
2020/01/31 02:20:43.8	91.550	-0.120	-0.440	0.980
2020/01/31 02:20:43.9	91.540	-0.050	-0.570	0.970
2020/01/31 02:20:44.0	91.530	0.010	-0.700	0.950
2020/01/31 02:20:44.1	91.520	0.070	-0.820	0.940
2020/01/31 02:20:44.2	91.510	0.140	-0.940	0.930
2020/01/31 02:20:44.3	91.490	0.200	-1.060	0.920
2020/01/31 02:20:44.4	91.480	0.260	-1.170	0.910
2020/01/31 02:20:44.5	91.470	0.320	-1.270	0.900
2020/01/31 02:20:44.6	91.450	0.380	-1.360	0.890
2020/01/31 02:20:44.7	91.440	0.440	-1.450	0.880
2020/01/31 02:20:44.8	91.430	0.490	-1.520	0.870
2020/01/31 02:20:44.9	91.420	0.540	-1.590	0.860
2020/01/31 02:20:45.0	91.410	0.590	-1.650	0.850
2020/01/31 02:20:45.1	91.410	0.630	-1.690	0.840
2020/01/31 02:20:45.2	91.400	0.670	-1.720	0.830
2020/01/31 02:20:45.3	91.400	0.710	-1.740	0.810
2020/01/31 02:20:45.4	91.390	0.740	-1.750	0.800
2020/01/31 02:20:45.5	91.380	0.760	-1.750	0.790
2020/01/31 02:20:45.6	91.380	0.780	-1.730	0.780
2020/01/31 02:20:45.7	91.370	0.800	-1.700	0.770
2020/01/31 02:20:45.8	91.360	0.810	-1.660	0.760
2020/01/31 02:20:45.9	91.360	0.810	-1.610	0.750
2020/01/31 02:20:46.0	91.350	0.810	-1.540	0.750
2020/01/31 02:20:46.1	91.350	0.800	-1.460	0.740
2020/01/31 02:20:46.2	91.340	0.790	-1.370	0.750
2020/01/31 02:20:46.3	91.330	0.770	-1.280	0.750
2020/01/31 02:20:46.4	91.320	0.750	-1.170	0.760
2020/01/31 02:20:46.5	91.320	0.720	-1.060	0.770
2020/01/31 02:20:46.6	91.310	0.690	-0.940	0.780
2020/01/31 02:20:46.7	91.300	0.650	-0.810	0.800
2020/01/31 02:20:46.8	91.300	0.610	-0.680	0.820
2020/01/31 02:20:46.9	91.290	0.560	-0.540	0.840
2020/01/31 02:20:47.0	91.290	0.510	-0.410	0.870
2020/01/31 02:20:47.1	91.280	0.460	-0.270	0.900
2020/01/31 02:20:47.2	91.280	0.400	-0.130	0.930
2020/01/31 02:20:47.3	91.280	0.340	0.000	0.960
2020/01/31 02:20:47.4	91.280	0.280	0.130	0.980
2020/01/31 02:20:47.5	91.280	0.210	0.260	1.010
2020/01/31 02:20:47.6	91.280	0.150	0.380	1.030
2020/01/31 02:20:47.7	91.280	0.080	0.500	1.060
2020/01/31 02:20:47.8	91.280	0.020	0.610	1.080
2020/01/31 02:20:47.9	91.280	-0.050	0.710	1.090
2020/01/31 02:20:48.0	91.280	-0.120	0.800	1.110
2020/01/31 02:20:48.1	91.300	-0.180	0.880	1.120
2020/01/31 02:20:48.2	91.300	-0.250	0.950	1.130
2020/01/31 02:20:48.3	91.310	-0.310	1.010	1.130
2020/01/31 02:20:48.4	91.320	-0.370	1.060	1.130
2020/01/31 02:20:48.5	91.330	-0.420	1.090	1.120
2020/01/31 02:20:48.6	91.340	-0.480	1.110	1.110
2020/01/31 02:20:48.7	91.350	-0.530	1.120	1.100
2020/01/31 02:20:48.8	91.360	-0.570	1.120	1.090
2020/01/31 02:20:48.9	91.370	-0.610	1.100	1.070
2020/01/31 02:20:49.0	91.390	-0.650	1.080	1.050
2020/01/31 02:20:49.1	91.400	-0.680	1.040	1.040
2020/01/31 02:20:49.2	91.420	-0.700	0.990	1.020
2020/01/31 02:20:49.3	91.440	-0.720	0.930	1.000
2020/01/31 02:20:49.4	91.460	-0.740	0.860	0.980
2020/01/31 02:20:49.5	91.480	-0.750	0.780	0.960
2020/01/31 02:20:49.6	91.510	-0.750	0.700	0.940
2020/01/31 02:20:49.7	91.530	-0.750	0.610	0.920
2020/01/31 02:20:49.8	91.550	-0.740	0.510	0.910
2020/01/31 02:20:49.9	91.580	-0.730	0.410	0.890
2020/01/31 02:20:50.0	91.610	-0.720	0.300	0.880
2020/01/31 02:20:50.1	91.640	-0.700	0.190	0.880
2020/01/31 02:20:50.2	91.670	-0.680	0.080	0.880
2020/01/31 02:20:50.3	91.690	-0.650	-0.020	0.870
2020/01/31 02:20:50.4	91.720	-0.630	-0.130	0.870
2020/01/31 02:20:50.5	91.740	-0.590	-0.230	0.870
2020/01/31 02:20:50.6	91.770	-0.560	-0.330	0.880
2020/01/31 02:20:50.7	91.790	-0.520	-0.420	0.880
2020/01/31 02:20:50.8	91.810	-0.490	-0.510	0.890
2020/01/31 02:20:50.9	91.830	-0.450	-0.600	0.890
2020/01/31 02:20:51.0	91.850	-0.410	-0.680	0.900
2020/01/31 02:20:51.1	91.880	-0.370	-0.750	0.910
2020/01/31 02:20:51.2	91.890	-0.330	-0.820	0.910
2020/01/31 02:20:51.3	91.900	-0.290	-0.880	0.920
2020/01/31 02:20:51.4	91.910	-0.250	-0.930	0.930
2020/01/31 02:20:51.5	91.920	-0.210	-0.970	0.930
2020/01/31 02:20:51.6	91.920	-0.170	-1.010	0.940
2020/01/31 02:20:51.7	91.920	-0.130	-1.030	0.950
2020/01/31 02:20:51.8	91.910	-0.090	-1.050	0.960
2020/01/31 02:20:51.9	91.910	-0.060	-1.060	0.970
2020/01/31 02:20:52.0	91.890	-0.030	-1.060	0.980
2020/01/31 02:20:52.1	91.890	0.000	-1.050	0.990
2020/01/31 02:20:52.2	91.870	0.030	-1.030	1.000
2020/01/31 02:20:52.3	91.850	0.050	-1.010	1.010
2020/01/31 02:20:52.4	91.830	0.080	-0.970	1.020
2020/01/31 02:20:52.5	91.810	0.090	-0.930	1.030
2020/01/31 02:20:52.6	91.790	0.110	-0.870	1.040
2020/01/31 02:20:52.7	91.770	0.120	-0.820	1.050
2020/01/31 02:20:52.8	91.740	0.130	-0.750	1.060
2020/01/31 02:20:52.9	91.720	0.140	-0.680	1.060
2020/01/31 02:20:53.0	91.690	0.140	-0.600	1.060
2020/01/31 02:20:53.1	91.660	0.150	-0.520	1.070
2020/01/31 02:20:53.2	91.640	0.140	-0.430	1.070
2020/01/31 02:20:53.3	91.610	0.140	-0.350	1.060
2020/01/31 02:20:53.4	91.590	0.140	-0.260	1.050
2020/01/31 02:20:53.5	91.560	0.130	-0.180	1.040
2020/01/31 02:20:53.6	91.540	0.120	-0.090	1.030
2020/01/31 02:20:53.7	91.510	0.110	-0.010	1.010
2020/01/31 02:20:53.8	91.490	0.100	0.070	0.990
2020/01/31 02:20:53.9	91.470	0.090	0.150	0.970
2020/01/31 02:20:54.0	91.450	0.080	0.220	0.950
2020/01/31 02:20:54.1	91.440	0.080	0.290	0.910
2020/01/31 02:20:54.2	91.420	0.070	0.340	0.880
2020/01/31 02:20:54.3	91.410	0.060	0.390	0.850
2020/01/31 02:20:54.4	91.390	0.060	0.430	0.810
2020/01/31 02:20:54.5	91.380	0.060	0.450	0.770
2020/01/31 02:20:54.6	91.370	0.060	0.470	0.720
2020/01/31 02:20:54.7	91.370	0.070	0.470	0.680
2020/01/31 02:20:54.8	91.360	0.080	0.460	0.630
2020/01/31 02:20:54.9	91.350	0.090	0.440	0.580
2020/01/31 02:20:55.0	91.350	0.110	0.410	0.540
2020/01/31 02:20:55.1	91.340	0.130	0.360	0.490
2020/01/31 02:20:55.2	91.340	0.150	0.310	0.440
2020/01/31 02:20:55.3	91.350	0.180	0.240	0.390
2020/01/31 02:20:55.4	91.350	0.210	0.170	0.340
2020/01/31 02:20:55.5	91.350	0.250	0.090	0.290
2020/01/31 02:20:55.6	91.360	0.280	0.000	0.240
2020/01/31 02:20:55.7	91.370	0.320	-0.090	0.190
2020/01/31 02:20:55.8	91.370	0.360	-0.190	0.150
2020/01/31 02:20:55.9	91.380	0.410	-0.280	0.110
2020/01/31 02:20:56.0	91.390	0.450	-0.380	0.070
2020/01/31 02:20:56.1	91.410	0.490	-0.480	0.040
2020/01/31 02:20:56.2	91.410	0.530	-0.570	0.010
2020/01/31 02:20:56.3	91.420	0.570	-0.650	-0.020
2020/01/31 02:20:56.4	91.430	0.600	-0.730	-0.040
2020/01/31 02:20:56.5	91.440	0.640	-0.810	-0.060
2020/01/31 02:20:56.6	91.450	0.670	-0.870	-0.070
2020/01/31 02:20:56.7	91.460	0.690	-0.920	-0.080
2020/01/31 02:20:56.8	91.460	0.710	-0.970	-0.090
2020/01/31 02:20:56.9	91.470	0.730	-1.000	-0.090
2020/01/31 02:20:57.0	91.480	0.740	-1.020	-0.090
2020/01/31 02:20:57.1	91.500	0.750	-1.030	-0.080
2020/01/31 02:20:57.2	91.510	0.750	-1.030	-0.070
2020/01/31 02:20:57.3	91.520	0.750	-1.020	-0.050
2020/01/31 02:20:57.4	91.530	0.740	-0.990	-0.040
2020/01/31 02:20:57.5	91.540	0.730	-0.960	-0.020
2020/01/31 02:20:57.6	91.560	0.710	-0.920	0.000
2020/01/31 02:20:57.7	91.570	0.680	-0.860	0.030
2020/01/31 02:20:57.8	91.580	0.650	-0.800	0.060
2020/01/31 02:20:57.9	91.600	0.620	-0.730	0.090
2020/01/31 02:20:58.0	91.610	0.580	-0.650	0.120
2020/01/31 02:20:58.1	91.620	0.540	-0.560	0.160
2020/01/31 02:20:58.2	91.640	0.490	-0.470	0.200
2020/01/31 02:20:58.3	91.650	0.440	-0.380	0.240
2020/01/31 02:20:58.4	91.660	0.380	-0.290	0.290
2020/01/31 02:20:58.5	91.680	0.330	-0.190	0.340
2020/01/31 02:20:58.6	91.690	0.270	-0.100	0.390
2020/01/31 02:20:58.7	91.700	0.210	-0.000	0.450
2020/01/31 02:20:58.8	91.710	0.150	0.090	0.510
2020/01/31 02:20:58.9	91.720	0.090	0.180	0.570
2020/01/31 02:20:59.0	91.730	0.030	0.270	0.640
2020/01/31 02:20:59.1	91.750	-0.030	0.350	0.720
2020/01/31 02:20:59.2	91.760	-0.090	0.430	0.790
2020/01/31 02:20:59.3	91.760	-0.150	0.500	0.860
2020/01/31 02:20:59.4	91.770	-0.210	0.560	0.940
2020/01/31 02:20:59.5	91.780	-0.260	0.620	1.010
2020/01/31 02:20:59.6	91.780	-0.310	0.670	1.090
2020/01/31 02:20:59.7	91.790	-0.360	0.710	1.160
2020/01/31 02:20:59.8	91.800	-0.410	0.740	1.230
2020/01/31 02:20:59.9	91.800	-0.450	0.760	1.300
2020/01/31 02:21:00.0	91.810	-0.490	0.770	1.370
2020/01/31 02:21:00.1	91.810	-0.530	0.770	1.440
2020/01/31 02:21:00.2	91.820	-0.560	0.760	1.500
2020/01/31 02:21:00.3	91.820	-0.590	0.740	1.550
2020/01/31 02:21:00.4	91.830	-0.610	0.720	1.600
2020/01/31 02:21:00.5	91.840	-0.630	0.680	1.640
2020/01/31 02:21:00.6	91.840	-0.640	0.640	1.680
2020/01/31 02:21:00.7	91.850	-0.650	0.590	1.720
2020/01/31 02:21:00.8	91.860	-0.660	0.530	1.740
2020/01/31 02:21:00.9	91.860	-0.660	0.470	1.760
2020/01/31 02:21:01.0	91.860	-0.660	0.400	1.780
2020/01/31 02:21:01.1	91.870	-0.660	0.320	1.800
2020/01/31 02:21:01.2	91.870	-0.650	0.240	1.810
2020/01/31 02:21:01.3	91.870	-0.640	0.150	1.810
2020/01/31 02:21:01.4	91.860	-0.620	0.060	1.810
2020/01/31 02:21:01.5	91.860	-0.600	-0.030	1.800
2020/01/31 02:21:01.6	91.850	-0.580	-0.120	1.800
2020/01/31 02:21:01.7	91.840	-0.560	-0.210	1.790
2020/01/31 02:21:01.8	91.830	-0.530	-0.310	1.790
2020/01/31 02:21:01.9	91.810	-0.500	-0.400	1.780
2020/01/31 02:21:02.0	91.790	-0.470	-0.490	1.770
2020/01/31 02:21:02.1	91.780	-0.440	-0.590	1.770
2020/01/31 02:21:02.2	91.760	-0.400	-0.670	1.760
2020/01/31 02:21:02.3	91.730	-0.370	-0.760	1.760
2020/01/31 02:21:02.4	91.710	-0.330	-0.830	1.750
2020/01/31 02:21:02.5	91.680	-0.290	-0.910	1.750
2020/01/31 02:21:02.6	91.650	-0.250	-0.970	1.740
2020/01/31 02:21:02.7	91.630	-0.220	-1.030	1.740
2020/01/31 02:21:02.8	91.600	-0.180	-1.090	1.740
2020/01/31 02:21:02.9	91.570	-0.140	-1.130	1.730
2020/01/31 02:21:03.0	91.550	-0.100	-1.170	1.730
2020/01/31 02:21:03.1	91.520	-0.070	-1.190	1.720
2020/01/31 02:21:03.2	91.490	-0.040	-1.210	1.710
2020/01/31 02:21:03.3	91.470	-0.000	-1.230	1.700
2020/01/31 02:21:03.4	91.450	0.030	-1.230	1.690
2020/01/31 02:21:03.5	91.430	0.050	-1.230	1.680
2020/01/31 02:21:03.6	91.410	0.080	-1.210	1.660
2020/01/31 02:21:03.7	91.400	0.100	-1.190	1.650
2020/01/31 02:21:03.8	91.380	0.120	-1.170	1.630
2020/01/31 02:21:03.9	91.370	0.140	-1.130	1.610
2020/01/31 02:21:04.0	91.370	0.150	-1.090	1.580
2020/01/31 02:21:04.1	91.360	0.160	-1.040	1.560
2020/01/31 02:21:04.2	91.360	0.170	-0.990	1.530
2020/01/31 02:21:04.3	91.360	0.180	-0.930	1.500
2020/01/31 02:21:04.4	91.360	0.180	-0.860	1.460
2020/01/31 02:21:04.5	91.370	0.180	-0.800	1.430
2020/01/31 02:21:04.6	91.380	0.180	-0.730	1.390
2020/01/31 02:21:04.7	91.390	0.170	-0.660	1.350
2020/01/31 02:21:04.8	91.400	0.160	-0.580	1.300
2020/01/31 02:21:04.9	91.420	0.150	-0.510	1.250
2020/01/31 02:21:05.0	91.440	0.140	-0.430	1.200
2020/01/31 02:21:05.1	91.470	0.120	-0.350	1.160
2020/01/31 02:21:05.2	91.490	0.110	-0.280	1.100
2020/01/31 02:21:05.3	91.520	0.090	-0.210	1.050
2020/01/31 02:21:05.4	91.550	0.070	-0.140	0.990
2020/01/31 02:21:05.5	91.580	0.050	-0.070	0.940
2020/01/31 02:21:05.6	91.610	0.040	-0.010	0.880
2020/01/31 02:21:05.7	91.640	0.020	0.050	0.820
2020/01/31 02:21:05.8	91.670	-0.000	0.110	0.760
2020/01/31 02:21:05.9	91.710	-0.020	0.160	0.700
2020/01/31 02:21:06.0	91.740	-0.030	0.210	0.640
2020/01/31 02:21:06.1	91.770	-0.050	0.250	0.580
2020/01/31 02:21:06.2	91.800	-0.060	0.290	0.530
2020/01/31 02:21:06.3	91.830	-0.070	0.320	0.480
2020/01/31 02:21:06.4	91.860	-0.080	0.340	0.430
2020/01/31 02:21:06.5	91.890	-0.080	0.360	0.380
2020/01/31 02:21:06.6	91.910	-0.090	0.380	0.340
2020/01/31 02:21:06.7	91.940	-0.090	0.390	0.300
2020/01/31 02:21:06.8	91.960	-0.090	0.400	0.270
2020/01/31 02:21:06.9	91.980	-0.080	0.400	0.240
2020/01/31 02:21:07.0	92.000	-0.080	0.390	0.220
2020/01/31 02:21:07.1	92.010	-0.070	0.390	0.200
2020/01/31 02:21:07.2	92.030	-0.060	0.380	0.190
2020/01/31 02:21:07.3	92.040	-0.050	0.360	0.180
2020/01/31 02:21:07.4	92.060	-0.040	0.350	0.180
2020/01/31 02:21:07.5	92.070	-0.030	0.330	0.180
2020/01/31 02:21:07.6	92.070	-0.010	0.310	0.190
2020/01/31 02:21:07.7	92.080	-0.000	0.290	0.200
2020/01/31 02:21:07.8	92.080	0.010	0.270	0.210
2020/01/31 02:21:07.9	92.090	0.020	0.250	0.230
2020/01/31 02:21:08.0	92.080	0.030	0.220	0.250
2020/01/31 02:21:08.1	92.080	0.040	0.200	0.280
2020/01/31 02:21:08.2	92.070	0.050	0.180	0.300
2020/01/31 02:21:08.3	92.070	0.060	0.160	0.320
2020/01/31 02:21:08.4	92.060	0.060	0.140	0.350
2020/01/31 02:21:08.5	92.060	0.060	0.130	0.380
2020/01/31 02:21:08.6	92.050	0.070	0.110	0.400
2020/01/31 02:21:08.7	92.040	0.060	0.100	0.430
2020/01/31 02:21:08.8	92.030	0.060	0.090	0.460
2020/01/31 02:21:08.9	92.020	0.050	0.090	0.480
2020/01/31 02:21:09.0	92.010	0.050	0.080	0.510
2020/01/31 02:21:09.1	92.010	0.040	0.080	0.540
2020/01/31 02:21:09.2	92.000	0.020	0.080	0.570
2020/01/31 02:21:09.3	91.990	0.010	0.080	0.590
2020/01/31 02:21:09.4	91.980	-0.000	0.080	0.620
2020/01/31 02:21:09.5	91.960	-0.020	0.080	0.640
2020/01/31 02:21:09.6	91.950	-0.040	0.080	0.670
2020/01/31 02:21:09.7	91.940	-0.050	0.080	0.690
2020/01/31 02:21:09.8	91.930	-0.070	0.080	0.710
2020/01/31 02:21:09.9	91.910	-0.090	0.080	0.730
2020/01/31 02:21:10.0	91.900	-0.110	0.080	0.750
2020/01/31 02:21:10.1	91.900	-0.120	0.070	0.770
2020/01/31 02:21:10.2	91.890	-0.140	0.070	0.790
2020/01/31 02:21:10.3	91.880	-0.150	0.060	0.800
2020/01/31 02:21:10.4	91.880	-0.160	0.050	0.820
2020/01/31 02:21:10.5	91.870	-0.170	0.040	0.830
2020/01/31 02:21:10.6	91.870	-0.180	0.020	0.830
2020/01/31 02:21:10.7	91.870	-0.190	-0.000	0.840
2020/01/31 02:21:10.8	91.860	-0.190	-0.020	0.840
2020/01/31 02:21:10.9	91.860	-0.190	-0.050	0.840
2020/01/31 02:21:11.0	91.860	-0.190	-0.080	0.840
2020/01/31 02:21:11.1	91.870	-0.180	-0.110	0.840
2020/01/31 02:21:11.2	91.870	-0.170	-0.150	0.830
2020/01/31 02:21:11.3	91.870	-0.160	-0.190	0.830
2020/01/31 02:21:11.4	91.880	-0.150	-0.230	0.820
2020/01/31 02:21:11.5	91.880	-0.130	-0.280	0.800
2020/01/31 02:21:11.6	91.890	-0.110	-0.330	0.780
2020/01/31 02:21:11.7	91.900	-0.080	-0.390	0.760
2020/01/31 02:21:11.8	91.910	-0.050	-0.440	0.740
2020/01/31 02:21:11.9	91.920	-0.020	-0.500	0.720
2020/01/31 02:21:12.0	91.930	0.010	-0.570	0.700
2020/01/31 02:21:12.1	91.950	0.050	-0.640	0.670
2020/01/31 02:21:12.2	91.960	0.090	-0.710	0.650
2020/01/31 02:21:12.3	91.980	0.130	-0.780	0.620
2020/01/31 02:21:12.4	91.990	0.180	-0.850	0.590
2020/01/31 02:21:12.5	92.010	0.220	-0.920	0.570
2020/01/31 02:21:12.6	92.030	0.270	-0.990	0.550
2020/01/31 02:21:12.7	92.040	0.330	-1.060	0.530
2020/01/31 02:21:12.8	92.060	0.380	-1.120	0.510
2020/01/31 02:21:12.9	92.080	0.430	-1.190	0.500
2020/01/31 02:21:13.0	92.090	0.480	-1.250	0.490
2020/01/31 02:21:13.1	92.090	0.540	-1.300	0.490
2020/01/31 02:21:13.2	92.100	0.590	-1.360	0.500
2020/01/31 02:21:13.3	92.110	0.640	-1.400	0.510
2020/01/31 02:21:13.4	92.120	0.690	-1.440	0.530
2020/01/31 02:21:13.5	92.120	0.730	-1.470	0.550
2020/01/31 02:21:13.6	92.130	0.780	-1.490	0.580
2020/01/31 02:21:13.7	92.130	0.810	-1.500	0.610
2020/01/31 02:21:13.8	92.130	0.850	-1.500	0.650
2020/01/31 02:21:13.9	92.130	0.870	-1.490	0.690
2020/01/31 02:21:14.0	92.130	0.890	-1.460	0.730
2020/01/31 02:21:14.1	92.120	0.910	-1.430	0.780
2020/01/31 02:21:14.2	92.120	0.910	-1.370	0.820
2020/01/31 02:21:14.3	92.110	0.910	-1.310	0.860
2020/01/31 02:21:14.4	92.110	0.900	-1.230	0.910
2020/01/31 02:21:14.5	92.100	0.890	-1.150	0.950
2020/01/31 02:21:14.6	92.090	0.860	-1.050	0.990
2020/01/31 02:21:14.7	92.080	0.830	-0.940	1.030
2020/01/31 02:21:14.8	92.070	0.790	-0.820	1.070
2020/01/31 02:21:14.9	92.050	0.750	-0.690	1.100
2020/01/31 02:21:15.0	92.040	0.690	-0.550	1.130
2020/01/31 02:21:15.1	92.020	0.630	-0.400	1.160
2020/01/31 02:21:15.2	92.000	0.560	-0.250	1.180
2020/01/31 02:21:15.3	91.980	0.490	-0.090	1.210
2020/01/31 02:21:15.4	91.970	0.410	0.070	1.220
2020/01/31 02:21:15.5	91.950	0.320	0.220	1.240
2020/01/31 02:21:15.6	91.920	0.230	0.380	1.250
2020/01/31 02:21:15.7	91.900	0.140	0.540	1.260
2020/01/31 02:21:15.8	91.880	0.050	0.690	1.260
2020/01/31 02:21:15.9	91.850	-0.050	0.830	1.270
2020/01/31 02:21:16.0	91.830	-0.150	0.970	1.270
2020/01/31 02:21:16.1	91.810	-0.240	1.100	1.270
2020/01/31 02:21:16.2	91.790	-0.340	1.220	1.260
2020/01/31 02:21:16.3	91.760	-0.430	1.330	1.260
2020/01/31 02:21:16.4	91.740	-0.520	1.430	1.240
2020/01/31 02:21:16.5	91.720	-0.610	1.510	1.230
2020/01/31 02:21:16.6	91.700	-0.690	1.580	1.210
2020/01/31 02:21:16.7	91.680	-0.770	1.630	1.190
2020/01/31 02:21:16.8	91.660	-0.840	1.670	1.160
2020/01/31 02:21:16.9	91.650	-0.900	1.680	1.140
2020/01/31 02:21:17.0	91.640	-0.950	1.680	1.100
2020/01/31 02:21:17.1	91.630	-1.000	1.660	1.070
2020/01/31 02:21:17.2	91.630	-1.040	1.620	1.030
2020/01/31 02:21:17.3	91.630	-1.070	1.570	0.990
2020/01/31 02:21:17.4	91.630	-1.090	1.500	0.940
2020/01/31 02:21:17.5	91.640	-1.100	1.410	0.900
2020/01/31 02:21:17.6	91.650	-1.100	1.300	0.850
2020/01/31 02:21:17.7	91.660	-1.090	1.180	0.800
2020/01/31 02:21:17.8	91.680	-1.070	1.040	0.750
2020/01/31 02:21:17.9	91.700	-1.050	0.900	0.710
2020/01/31 02:21:18.0	91.720	-1.020	0.740	0.650
2020/01/31 02:21:18.1	91.750	-0.970	0.580	0.610
2020/01/31 02:21:18.2	91.780	-0.930	0.410	0.560
2020/01/31 02:21:18.3	91.800	-0.870	0.230	0.510
2020/01/31 02:21:18.4	91.830	-0.810	0.050	0.460
2020/01/31 02:21:18.5	91.850	-0.750	-0.130	0.410
2020/01/31 02:21:18.6	91.880	-0.680	-0.310	0.370
2020/01/31 02:21:18.7	91.910	-0.610	-0.480	0.330
2020/01/31 02:21:18.8	91.940	-0.530	-0.650	0.290
2020/01/31 02:21:18.9	91.960	-0.460	-0.820	0.250
2020/01/31 02:21:19.0	91.990	-0.380	-0.980	0.220
2020/01/31 02:21:19.1	92.010	-0.310	-1.130	0.190
2020/01/31 02:21:19.2	92.030	-0.230	-1.270	0.160
2020/01/31 02:21:19.3	92.050	-0.160	-1.400	0.140
2020/01/31 02:21:19.4	92.070	-0.080	-1.520	0.120
2020/01/31 02:21:19.5	92.100	-0.010	-1.620	0.110
2020/01/31 02:21:19.6	92.110	0.050	-1.700	0.100
2020/01/31 02:21:19.7	92.130	0.110	-1.780	0.100
2020/01/31 02:21:19.8	92.150	0.170	-1.830	0.100
2020/01/31 02:21:19.9	92.160	0.230	-1.870	0.110
2020/01/31 02:21:20.0	92.170	0.270	-1.890	0.120
2020/01/31 02:21:20.1	92.190	0.310	-1.890	0.150
2020/01/31 02:21:20.2	92.200	0.350	-1.880	0.180
2020/01/31 02:21:20.3	92.200	0.380	-1.850	0.210
2020/01/31 02:21:20.4	92.210	0.400	-1.800	0.240
2020/01/31 02:21:20.5	92.210	0.420	-1.740	0.280
2020/01/31 02:21:20.6	92.210	0.430	-1.670	0.320
2020/01/31 02:21:20.7	92.200	0.430	-1.580	0.360
2020/01/31 02:21:20.8	92.200	0.430	-1.480	0.410
2020/01/31 02:21:20.9	92.190	0.420	-1.370	0.460
2020/01/31 02:21:21.0	92.180	0.400	-1.240	0.510
2020/01/31 02:21:21.1	92.180	0.380	-1.110	0.570
2020/01/31 02:21:21.2	92.170	0.350	-0.970	0.620
2020/01/31 02:21:21.3	92.150	0.320	-0.820	0.680
2020/01/31 02:21:21.4	92.140	0.280	-0.680	0.730
2020/01/31 02:21:21.5	92.120	0.240	-0.530	0.780
2020/01/31 02:21:21.6	92.100	0.200	-0.380	0.830
2020/01/31 02:21:21.7	92.080	0.150	-0.230	0.890
2020/01/31 02:21:21.8	92.060	0.100	-0.080	0.930
2020/01/31 02:21:21.9	92.040	0.040	0.060	0.980
2020/01/31 02:21:22.0	92.010	-0.010	0.200	1.030
2020/01/31 02:21:22.1	91.980	-0.070	0.340	1.070
2020/01/31 02:21:22.2	91.950	-0.120	0.460	1.110
2020/01/31 02:21:22.3	91.920	-0.180	0.570	1.140
2020/01/31 02:21:22.4	91.890	-0.230	0.680	1.180
2020/01/31 02:21:22.5	91.850	-0.290	0.770	1.200
2020/01/31 02:21:22.6	91.820	-0.340	0.850	1.230
2020/01/31 02:21:22.7	91.780	-0.380	0.920	1.250
2020/01/31 02:21:22.8	91.750	-0.430	0.980	1.260
2020/01/31 02:21:22.9	91.720	-0.470	1.020	1.270
2020/01/31 02:21:23.0	91.680	-0.500	1.050	1.280
2020/01/31 02:21:23.1	91.650	-0.530	1.070	1.280
2020/01/31 02:21:23.2	91.620	-0.560	1.070	1.270
2020/01/31 02:21:23.3	91.590	-0.570	1.060	1.260
2020/01/31 02:21:23.4	91.570	-0.590	1.030	1.240
2020/01/31 02:21:23.5	91.550	-0.590	0.990	1.220
2020/01/31 02:21:23.6	91.530	-0.590	0.940	1.190
2020/01/31 02:21:23.7	91.510	-0.580	0.880	1.160
2020/01/31 02:21:23.8	91.500	-0.570	0.810	1.130
2020/01/31 02:21:23.9	91.490	-0.540	0.730	1.090
2020/01/31 02:21:24.0	91.480	-0.520	0.640	1.050
2020/01/31 02:21:24.1	91.480	-0.480	0.540	1.000
2020/01/31 02:21:24.2	91.480	-0.440	0.440	0.950
2020/01/31 02:21:24.3	91.490	-0.400	0.330	0.910
2020/01/31 02:21:24.4	91.500	-0.350	0.220	0.860
2020/01/31 02:21:24.5	91.510	-0.300	0.110	0.810
2020/01/31 02:21:24.6	91.530	-0.240	0.010	0.770
2020/01/31 02:21:24.7	91.550	-0.180	-0.100	0.730
2020/01/31 02:21:24.8	91.560	-0.120	-0.210	0.690
2020/01/31 02:21:24.9	91.580	-0.060	-0.310	0.650
2020/01/31 02:21:25.0	91.600	0.010	-0.410	0.610
2020/01/31 02:21:25.1	91.630	0.070	-0.510	0.580
2020/01/31 02:21:25.2	91.650	0.140	-0.590	0.550
2020/01/31 02:21:25.3	91.670	0.200	-0.680	0.520
2020/01/31 02:21:25.4	91.690	0.260	-0.750	0.490
2020/01/31 02:21:25.5	91.710	0.320	-0.820	0.470
2020/01/31 02:21:25.6	91.740	0.380	-0.880	0.440
2020/01/31 02:21:25.7	91.760	0.430	-0.930	0.420
2020/01/31 02:21:25.8	91.780	0.480	-0.970	0.400
2020/01/31 02:21:25.9	91.790	0.520	-1.010	0.380
2020/01/31 02:21:26.0	91.810	0.560	-1.030	0.370
2020/01/31 02:21:26.1	91.830	0.600	-1.050	0.350
2020/01/31 02:21:26.2	91.840	0.630	-1.060	0.340
2020/01/31 02:21:26.3	91.850	0.660	-1.060	0.330
2020/01/31 02:21:26.4	91.860	0.680	-1.050	0.320
2020/01/31 02:21:26.5	91.870	0.700	-1.030	0.320
2020/01/31 02:21:26.6	91.870	0.710	-1.010	0.320
2020/01/31 02:21:26.7	91.870	0.720	-0.980	0.320
2020/01/31 02:21:26.8	91.870	0.720	-0.940	0.330
2020/01/31 02:21:26.9	91.870	0.710	-0.900	0.340
2020/01/31 02:21:27.0	91.860	0.710	-0.850	0.360
2020/01/31 02:21:27.1	91.860	0.690	-0.780	0.380
2020/01/31 02:21:27.2	91.850	0.680	-0.720	0.410
2020/01/31 02:21:27.3	91.830	0.650	-0.660	0.430
2020/01/31 02:21:27.4	91.820	0.630	-0.590	0.460
2020/01/31 02:21:27.5	91.800	0.600	-0.530	0.500
2020/01/31 02:21:27.6	91.780	0.570	-0.460	0.530
2020/01/31 02:21:27.7	91.760	0.540	-0.390	0.570
2020/01/31 02:21:27.8	91.740	0.500	-0.320	0.610
2020/01/31 02:21:27.9	91.710	0.470	-0.250	0.650
2020/01/31 02:21:28.0	91.690	0.430	-0.180	0.690
2020/01/31 02:21:28.1	91.680	0.390	-0.110	0.740
2020/01/31 02:21:28.2	91.660	0.350	-0.050	0.780
2020/01/31 02:21:28.3	91.640	0.310	0.010	0.820
2020/01/31 02:21:28.4	91.620	0.270	0.060	0.850
2020/01/31 02:21:28.5	91.600	0.230	0.110	0.890
2020/01/31 02:21:28.6	91.590	0.190	0.150	0.920
2020/01/31 02:21:28.7	91.580	0.160	0.190	0.950
2020/01/31 02:21:28.8	91.570	0.120	0.220	0.970
2020/01/31 02:21:28.9	91.560	0.090	0.240	0.990
2020/01/31 02:21:29.0	91.550	0.060	0.250	1.010
2020/01/31 02:21:29.1	91.560	0.030	0.260	1.030
2020/01/31 02:21:29.2	91.560	-0.000	0.270	1.040
2020/01/31 02:21:29.3	91.560	-0.030	0.260	1.040
2020/01/31 02:21:29.4	91.560	-0.050	0.250	1.040
2020/01/31 02:21:29.5	91.570	-0.070	0.230	1.040
2020/01/31 02:21:29.6	91.570	-0.080	0.200	1.040
2020/01/31 02:21:29.7	91.580	-0.100	0.170	1.030
2020/01/31 02:21:29.8	91.590	-0.110	0.140	1.020
2020/01/31 02:21:29.9	91.590	-0.120	0.100	1.010
2020/01/31 02:21:30.0	91.610	-0.130	0.060	0.990
2020/01/31 02:21:30.1	91.610	-0.130	0.010	0.980
2020/01/31 02:21:30.2	91.630	-0.130	-0.040	0.960
2020/01/31 02:21:30.3	91.640	-0.140	-0.090	0.940
2020/01/31 02:21:30.4	91.650	-0.140	-0.130	0.930
2020/01/31 02:21:30.5	91.660	-0.140	-0.180	0.920
2020/01/31 02:21:30.6	91.680	-0.140	-0.230	0.900
2020/01/31 02:21:30.7	91.690	-0.130	-0.270	0.890
2020/01/31 02:21:30.8	91.700	-0.130	-0.310	0.880
2020/01/31 02:21:30.9	91.720	-0.130	-0.340	0.880
2020/01/31 02:21:31.0	91.730	-0.130	-0.380	0.870
2020/01/31 02:21:31.1	91.730	-0.130	-0.400	0.870
2020/01/31 02:21:31.2	91.740	-0.130	-0.420	0.860
2020/01/31 02:21:31.3	91.750	-0.130	-0.440	0.860
2020/01/31 02:21:31.4	91.760	-0.130	-0.450	0.860
2020/01/31 02:21:31.5	91.770	-0.130	-0.460	0.870
2020/01/31 02:21:31.6	91.780	-0.130	-0.460	0.870
2020/01/31 02:21:31.7	91.790	-0.140	-0.450	0.870
2020/01/31 02:21:31.8	91.810	-0.140	-0.440	0.880
2020/01/31 02:21:31.9	91.820	-0.150	-0.430	0.880
2020/01/31 02:21:32.0	91.830	-0.160	-0.410	0.880
2020/01/31 02:21:32.1	91.850	-0.170	-0.380	0.900
2020/01/31 02:21:32.2	91.860	-0.180	-0.350	0.900
2020/01/31 02:21:32.3	91.870	-0.190	-0.320	0.910
2020/01/31 02:21:32.4	91.880	-0.200	-0.280	0.910
2020/01/31 02:21:32.5	91.900	-0.220	-0.240	0.920
2020/01/31 02:21:32.6	91.910	-0.230	-0.200	0.920
2020/01/31 02:21:32.7	91.920	-0.250	-0.160	0.930
2020/01/31 02:21:32.8	91.930	-0.260	-0.120	0.940
2020/01/31 02:21:32.9	91.940	-0.280	-0.080	0.950
2020/01/31 02:21:33.0	91.950	-0.290	-0.030	0.960
2020/01/31 02:21:33.1	91.960	-0.310	0.000	0.970
2020/01/31 02:21:33.2	91.970	-0.320	0.040	0.980
2020/01/31 02:21:33.3	91.980	-0.340	0.080	0.990
2020/01/31 02:21:33.4	91.990	-0.350	0.110	1.000
2020/01/31 02:21:33.5	92.000	-0.360	0.140	1.010
2020/01/31 02:21:33.6	92.010	-0.370	0.170	1.020
2020/01/31 02:21:33.7	92.020	-0.380	0.190	1.030
2020/01/31 02:21:33.8	92.030	-0.380	0.210	1.040
2020/01/31 02:21:33.9	92.050	-0.390	0.220	1.050
2020/01/31 02:21:34.0	92.060	-0.390	0.220	1.050
2020/01/31 02:21:34.1	92.070	-0.380	0.230	1.060
2020/01/31 02:21:34.2	92.090	-0.380	0.220	1.070
2020/01/31 02:21:34.3	92.100	-0.370	0.210	1.070
2020/01/31 02:21:34.4	92.120	-0.350	0.190	1.070
2020/01/31 02:21:34.5	92.130	-0.340	0.160	1.070
2020/01/31 02:21:34.6	92.150	-0.320	0.130	1.070
2020/01/31 02:21:34.7	92.160	-0.300	0.090	1.070
2020/01/31 02:21:34.8	92.180	-0.270	0.050	1.070
2020/01/31 02:21:34.9	92.200	-0.250	0.000	1.070
2020/01/31 02:21:35.0	92.210	-0.220	-0.050	1.070
2020/01/31 02:21:35.1	92.220	-0.190	-0.100	1.070
2020/01/31 02:21:35.2	92.230	-0.150	-0.160	1.070
2020/01/31 02:21:35.3	92.240	-0.120	-0.210	1.080
2020/01/31 02:21:35.4	92.240	-0.090	-0.270	1.080
2020/01/31 02:21:35.5	92.240	-0.050	-0.320	1.080
2020/01/31 02:21:35.6	92.240	-0.020	-0.370	1.080
2020/01/31 02:21:35.7	92.240	0.020	-0.420	1.080
2020/01/31 02:21:35.8	92.230	0.050	-0.460	1.080
2020/01/31 02:21:35.9	92.220	0.080	-0.500	1.070
2020/01/31 02:21:36.0	92.210	0.110	-0.530	1.070
2020/01/31 02:21:36.1	92.210	0.130	-0.560	1.060
2020/01/31 02:21:36.2	92.200	0.160	-0.580	1.050
2020/01/31 02:21:36.3	92.190	0.180	-0.590	1.030
2020/01/31 02:21:36.4	92.170	0.200	-0.600	1.010
2020/01/31 02:21:36.5	92.160	0.210	-0.600	0.990
2020/01/31 02:21:36.6	92.140	0.220	-0.600	0.970
2020/01/31 02:21:36.7	92.130	0.230	-0.590	0.940
2020/01/31 02:21:36.8	92.110	0.230	-0.570	0.910
2020/01/31 02:21:36.9	92.100	0.230	-0.550	0.870
2020/01/31 02:21:37.0	92.080	0.230	-0.520	0.840
2020/01/31 02:21:37.1	92.070	0.220	-0.490	0.800
2020/01/31 02:21:37.2	92.060	0.210	-0.450	0.760
2020/01/31 02:21:37.3	92.040	0.200	-0.420	0.720
2020/01/31 02:21:37.4	92.030	0.190	-0.380	0.680
2020/01/31 02:21:37.5	92.010	0.170	-0.350	0.640
2020/01/31 02:21:37.6	92.000	0.160	-0.310	0.610
2020/01/31 02:21:37.7	91.990	0.140	-0.270	0.570
2020/01/31 02:21:37.8	91.980	0.120	-0.240	0.530
2020/01/31 02:21:37.9	91.970	0.100	-0.210	0.500
2020/01/31 02:21:38.0	91.960	0.080	-0.180	0.470
2020/01/31 02:21:38.1	91.940	0.060	-0.150	0.440
2020/01/31 02:21:38.2	91.940	0.050	-0.130	0.420
2020/01/31 02:21:38.3	91.930	0.030	-0.120	0.400
2020/01/31 02:21:38.4	91.920	0.020	-0.100	0.380
2020/01/31 02:21:38.5	91.920	0.010	-0.100	0.370
2020/01/31 02:21:38.6	91.910	-0.000	-0.100	0.360
2020/01/31 02:21:38.7	91.910	-0.010	-0.100	0.350
2020/01/31 02:21:38.8	91.900	-0.010	-0.120	0.340
2020/01/31 02:21:38.9	91.900	-0.010	-0.130	0.340
2020/01/31 02:21:39.0	91.900	-0.010	-0.150	0.340
2020/01/31 02:21:39.1	91.900	0.000	-0.170	0.340
2020/01/31 02:21:39.2	91.900	0.010	-0.200	0.340
2020/01/31 02:21:39.3	91.910	0.020	-0.230	0.340
2020/01/31 02:21:39.4	91.910	0.030	-0.260	0.350
2020/01/31 02:21:39.5	91.920	0.050	-0.300	0.350
2020/01/31 02:21:39.6	91.930	0.070	-0.340	0.350
2020/01/31 02:21:39.7	91.930	0.080	-0.370	0.350
2020/01/31 02:21:39.8	91.940	0.100	-0.410	0.350
2020/01/31 02:21:39.9	91.950	0.120	-0.450	0.350
2020/01/31 02:21:40.0	91.960	0.140	-0.490	0.350
2020/01/31 02:21:40.1	91.960	0.160	-0.530	0.360
2020/01/31 02:21:40.2	91.970	0.180	-0.560	0.360
2020/01/31 02:21:40.3	91.970	0.200	-0.590	0.360
2020/01/31 02:21:40.4	91.980	0.220	-0.620	0.370
2020/01/31 02:21:40.5	91.980	0.240	-0.650	0.380
2020/01/31 02:21:40.6	91.980	0.250	-0.670	0.390
2020/01/31 02:21:40.7	91.980	0.260	-0.690	0.400
2020/01/31 02:21:40.8	91.980	0.270	-0.700	0.410
2020/01/31 02:21:40.9	91.980	0.280	-0.710	0.430
2020/01/31 02:21:41.0	91.970	0.290	-0.720	0.450
2020/01/31 02:21:41.1	91.980	0.290	-0.710	0.480
2020/01/31 02:21:41.2	91.970	0.280	-0.710	0.500
2020/01/31 02:21:41.3	91.960	0.280	-0.690	0.530
2020/01/31 02:21:41.4	91.960	0.270	-0.680	0.550
2020/01/31 02:21:41.5	91.950	0.260	-0.650	0.580
2020/01/31 02:21:41.6	91.940	0.240	-0.620	0.620
2020/01/31 02:21:41.7	91.930	0.220	-0.590	0.660
2020/01/31 02:21:41.8	91.920	0.200	-0.550	0.690
2020/01/31 02:21:41.9	91.910	0.170	-0.500	0.730
2020/01/31 02:21:42.0	91.900	0.150	-0.450	0.780
2020/01/31 02:21:42.1	91.890	0.120	-0.400	0.820
2020/01/31 02:21:42.2	91.890	0.080	-0.340	0.860
2020/01/31 02:21:42.3	91.880	0.050	-0.280	0.910
2020/01/31 02:21:42.4	91.870	0.010	-0.210	0.950
2020/01/31 02:21:42.5	91.870	-0.030	-0.140	0.990
2020/01/31 02:21:42.6	91.870	-0.070	-0.070	1.030
2020/01/31 02:21:42.7	91.860	-0.110	0.000	1.070
2020/01/31 02:21:42.8	91.860	-0.150	0.080	1.110
2020/01/31 02:21:42.9	91.860	-0.190	0.150	1.140
2020/01/31 02:21:43.0	91.850	-0.230	0.230	1.170
2020/01/31 02:21:43.1	91.850	-0.270	0.310	1.210
2020/01/31 02:21:43.2	91.850	-0.310	0.380	1.230
2020/01/31 02:21:43.3	91.840	-0.350	0.450	1.250
2020/01/31 02:21:43.4	91.840	-0.390	0.520	1.270
2020/01/31 02:21:43.5	91.850	-0.420	0.590	1.280
2020/01/31 02:21:43.6	91.850	-0.450	0.640	1.290
2020/01/31 02:21:43.7	91.850	-0.480	0.700	1.290
2020/01/31 02:21:43.8	91.850	-0.500	0.740	1.290
2020/01/31 02:21:43.9	91.850	-0.530	0.780	1.280
2020/01/31 02:21:44.0	91.860	-0.540	0.810	1.270
2020/01/31 02:21:44.1	91.870	-0.560	0.830	1.260
2020/01/31 02:21:44.2	91.870	-0.570	0.840	1.240
2020/01/31 02:21:44.3	91.880	-0.570	0.850	1.220
2020/01/31 02:21:44.4	91.890	-0.570	0.840	1.190
2020/01/31 02:21:44.5	91.900	-0.560	0.820	1.160
2020/01/31 02:21:44.6	91.910	-0.550	0.790	1.120
2020/01/31 02:21:44.7	91.930	-0.530	0.750	1.080
2020/01/31 02:21:44.8	91.950	-0.510	0.700	1.040
2020/01/31 02:21:44.9	91.960	-0.480	0.640	1.000
2020/01/31 02:21:45.0	91.980	-0.450	0.580	0.950
2020/01/31 02:21:45.1	92.010	-0.410	0.500	0.910
2020/01/31 02:21:45.2	92.030	-0.370	0.420	0.860
2020/01/31 02:21:45.3	92.050	-0.320	0.330	0.810
2020/01/31 02:21:45.4	92.080	-0.270	0.230	0.760
2020/01/31 02:21:45.5	92.100	-0.220	0.130	0.710
2020/01/31 02:21:45.6	92.130	-0.160	0.030	0.660
2020/01/31 02:21:45.7	92.160	-0.100	-0.070	0.610
2020/01/31 02:21:45.8	92.190	-0.040	-0.180	0.560
2020/01/31 02:21:45.9	92.230	0.030	-0.280	0.510
2020/01/31 02:21:46.0	92.260	0.090	-0.390	0.470
2020/01/31 02:21:46.1	92.290	0.160	-0.500	0.430
2020/01/31 02:21:46.2	92.320	0.220	-0.600	0.400
2020/01/31 02:21:46.3	92.350	0.280	-0.690	0.360
2020/01/31 02:21:46.4	92.380	0.340	-0.780	0.340
2020/01/31 02:21:46.5	92.410	0.400	-0.860	0.310
2020/01/31 02:21:46.6	92.430	0.460	-0.940	0.300
2020/01/31 02:21:46.7	92.450	0.510	-1.000	0.280
2020/01/31 02:21:46.8	92.470	0.550	-1.060	0.280
2020/01/31 02:21:46.9	92.490	0.600	-1.110	0.270
2020/01/31 02:21:47.0	92.500	0.630	-1.150	0.280
2020/01/31 02:21:47.1	92.520	0.670	-1.180	0.290
2020/01/31 02:21:47.2	92.530	0.690	-1.200	0.300
2020/01/31 02:21:47.3	92.530	0.710	-1.210	0.310
2020/01/31 02:21:47.4	92.530	0.720	-1.200	0.330
2020/01/31 02:21:47.5	92.530	0.730	-1.190	0.350
2020/01/31 02:21:47.6	92.520	0.730	-1.170	0.370
2020/01/31 02:21:47.7	92.510	0.730	-1.140	0.390
2020/01/31 02:21:47.8	92.500	0.710	-1.100	0.410
2020/01/31 02:21:47.9	92.480	0.690	-1.050	0.440
2020/01/31 02:21:48.0	92.460	0.670	-0.990	0.460
2020/01/31 02:21:48.1	92.450	0.640	-0.920	0.500
2020/01/31 02:21:48.2	92.420	0.600	-0.850	0.520
2020/01/31 02:21:48.3	92.400	0.560	-0.770	0.550
2020/01/31 02:21:48.4	92.370	0.510	-0.690	0.580
2020/01/31 02:21:48.5	92.340	0.460	-0.600	0.620
2020/01/31 02:21:48.6	92.310	0.410	-0.510	0.650
2020/01/31 02:21:48.7	92.290	0.360	-0.420	0.680
2020/01/31 02:21:48.8	92.260	0.300	-0.320	0.720
2020/01/31 02:21:48.9	92.230	0.240	-0.230	0.750
2020/01/31 02:21:49.0	92.200	0.180	-0.140	0.790
2020/01/31 02:21:49.1	92.170	0.120	-0.050	0.820
2020/01/31 02:21:49.2	92.140	0.060	0.030	0.850
2020/01/31 02:21:49.3	92.110	-0.000	0.110	0.890
2020/01/31 02:21:49.4	92.080	-0.060	0.180	0.920
2020/01/31 02:21:49.5	92.050	-0.120	0.250	0.950
2020/01/31 02:21:49.6	92.020	-0.170	0.300	0.980
2020/01/31 02:21:49.7	92.000	-0.220	0.350	1.010
2020/01/31 02:21:49.8	91.970	-0.270	0.390	1.030
2020/01/31 02:21:49.9	91.940	-0.310	0.420	1.060
2020/01/31 02:21:50.0	91.920	-0.350	0.440	1.070
2020/01/31 02:21:50.1	91.900	-0.380	0.450	1.090
2020/01/31 02:21:50.2	91.880	-0.410	0.450	1.100
2020/01/31 02:21:50.3	91.860	-0.430	0.440	1.110
2020/01/31 02:21:50.4	91.850	-0.450	0.420	1.110
2020/01/31 02:21:50.5	91.830	-0.460	0.380	1.110
2020/01/31 02:21:50.6	91.820	-0.470	0.340	1.100
2020/01/31 02:21:50.7	91.810	-0.470	0.300	1.100
2020/01/31 02:21:50.8	91.800	-0.470	0.240	1.080
2020/01/31 02:21:50.9	91.800	-0.460	0.180	1.070
2020/01/31 02:21:51.0	91.790	-0.450	0.110	1.050
2020/01/31 02:21:51.1	91.780	-0.430	0.040	1.040
2020/01/31 02:21:51.2	91.780	-0.410	-0.040	1.020
2020/01/31 02:21:51.3	91.780	-0.380	-0.110	1.000
2020/01/31 02:21:51.4	91.770	-0.350	-0.190	0.980
2020/01/31 02:21:51.5	91.770	-0.320	-0.260	0.960
2020/01/31 02:21:51.6	91.770	-0.290	-0.340	0.940
2020/01/31 02:21:51.7	91.780	-0.260	-0.410	0.910
2020/01/31 02:21:51.8	91.780	-0.220	-0.480	0.890
2020/01/31 02:21:51.9	91.790	-0.190	-0.540	0.870
2020/01/31 02:21:52.0	91.790	-0.150	-0.590	0.850
2020/01/31 02:21:52.1	91.790	-0.120	-0.650	0.820
2020/01/31 02:21:52.2	91.810	-0.080	-0.690	0.800
2020/01/31 02:21:52.3	91.820	-0.050	-0.730	0.780
2020/01/31 02:21:52.4	91.840	-0.020	-0.760	0.760
2020/01/31 02:21:52.5	91.860	0.010	-0.770	0.740
2020/01/31 02:21:52.6	91.880	0.030	-0.790	0.720
2020/01/31 02:21:52.7	91.900	0.060	-0.790	0.700
2020/01/31 02:21:52.8	91.920	0.070	-0.780	0.690
2020/01/31 02:21:52.9	91.940	0.090	-0.770	0.680
2020/01/31 02:21:53.0	91.960	0.100	-0.750	0.670
2020/01/31 02:21:53.1	91.970	0.110	-0.710	0.660
2020/01/31 02:21:53.2	92.000	0.110	-0.680	0.660
2020/01/31 02:21:53.3	92.020	0.110	-0.640	0.660
2020/01/31 02:21:53.4	92.040	0.110	-0.590	0.660
2020/01/31 02:21:53.5	92.060	0.100	-0.530	0.660
2020/01/31 02:21:53.6	92.080	0.090	-0.480	0.660
2020/01/31 02:21:53.7	92.100	0.070	-0.410	0.670
2020/01/31 02:21:53.8	92.110	0.050	-0.350	0.680
2020/01/31 02:21:53.9	92.130	0.030	-0.280	0.690
2020/01/31 02:21:54.0	92.140	0.010	-0.210	0.700
2020/01/31 02:21:54.1	92.140	-0.010	-0.140	0.710
2020/01/31 02:21:54.2	92.160	-0.040	-0.070	0.730
2020/01/31 02:21:54.3	92.160	-0.070	0.010	0.740
2020/01/31 02:21:54.4	92.170	-0.100	0.080	0.750
2020/01/31 02:21:54.5	92.180	-0.130	0.140	0.760
2020/01/31 02:21:54.6	92.180	-0.160	0.210	0.770
2020/01/31 02:21:54.7	92.190	-0.190	0.270	0.780
2020/01/31 02:21:54.8	92.190	-0.220	0.330	0.790
2020/01/31 02:21:54.9	92.190	-0.250	0.390	0.800
2020/01/31 02:21:55.0	92.190	-0.280	0.430	0.810
2020/01/31 02:21:55.1	92.200	-0.310	0.480	0.820
2020/01/31 02:21:55.2	92.200	-0.330	0.520	0.820
2020/01/31 02:21:55.3	92.200	-0.360	0.550	0.830
2020/01/31 02:21:55.4	92.200	-0.370	0.570	0.830
2020/01/31 02:21:55.5	92.200	-0.390	0.590	0.830
2020/01/31 02:21:55.6	92.200	-0.400	0.590	0.830
2020/01/31 02:21:55.7	92.200	-0.410	0.590	0.830
2020/01/31 02:21:55.8	92.200	-0.410	0.580	0.830
2020/01/31 02:21:55.9	92.200	-0.410	0.560	0.830
2020/01/31 02:21:56.0	92.200	-0.400	0.530	0.820
2020/01/31 02:21:56.1	92.210	-0.390	0.490	0.820
2020/01/31 02:21:56.2	92.220	-0.380	0.450	0.820
2020/01/31 02:21:56.3	92.220	-0.360	0.390	0.810
2020/01/31 02:21:56.4	92.230	-0.330	0.330	0.800
2020/01/31 02:21:56.5	92.240	-0.300	0.270	0.790
2020/01/31 02:21:56.6	92.250	-0.270	0.190	0.780
2020/01/31 02:21:56.7	92.260	-0.230	0.120	0.770
2020/01/31 02:21:56.8	92.270	-0.190	0.030	0.750
2020/01/31 02:21:56.9	92.280	-0.140	-0.050	0.740
2020/01/31 02:21:57.0	92.300	-0.090	-0.150	0.730
2020/01/31 02:21:57.1	92.320	-0.040	-0.240	0.710
2020/01/31 02:21:57.2	92.340	0.010	-0.330	0.700
2020/01/31 02:21:57.3	92.350	0.070	-0.430	0.680
2020/01/31 02:21:57.4	92.370	0.120	-0.530	0.660
2020/01/31 02:21:57.5	92.390	0.180	-0.620	0.640
2020/01/31 02:21:57.6	92.410	0.240	-0.710	0.630
2020/01/31 02:21:57.7	92.430	0.290	-0.800	0.610
2020/01/31 02:21:57.8	92.440	0.350	-0.880	0.590
2020/01/31 02:21:57.9	92.460	0.410	-0.960	0.570
2020/01/31 02:21:58.0	92.480	0.460	-1.030	0.550
2020/01/31 02:21:58.1	92.490	0.510	-1.100	0.530
2020/01/31 02:21:58.2	92.510	0.560	-1.160	0.510
2020/01/31 02:21:58.3	92.520	0.600	-1.200	0.500
2020/01/31 02:21:58.4	92.530	0.640	-1.240	0.480
2020/01/31 02:21:58.5	92.540	0.680	-1.270	0.460
2020/01/31 02:21:58.6	92.550	0.710	-1.280	0.450
2020/01/31 02:21:58.7	92.560	0.740	-1.290	0.430
2020/01/31 02:21:58.8	92.560	0.760	-1.280	0.420
2020/01/31 02:21:58.9	92.560	0.780	-1.260	0.420
2020/01/31 02:21:59.0	92.560	0.790	-1.230	0.410
2020/01/31 02:21:59.1	92.560	0.790	-1.180	0.410
2020/01/31 02:21:59.2	92.550	0.790	-1.130	0.410
2020/01/31 02:21:59.3	92.550	0.780	-1.060	0.420
2020/01/31 02:21:59.4	92.540	0.770	-0.990	0.430
2020/01/31 02:21:59.5	92.530	0.750	-0.900	0.440
2020/01/31 02:21:59.6	92.520	0.730	-0.810	0.450
2020/01/31 02:21:59.7	92.510	0.690	-0.710	0.470
2020/01/31 02:21:59.8	92.490	0.660	-0.610	0.500
2020/01/31 02:21:59.9	92.470	0.620	-0.500	0.520
2020/01/31 02:22:00.0	92.460	0.570	-0.380	0.550
2020/01/31 02:22:00.1	92.430	0.520	-0.260	0.580
2020/01/31 02:22:00.2	92.410	0.460	-0.140	0.610
2020/01/31 02:22:00.3	92.390	0.410	-0.020	0.650
2020/01/31 02:22:00.4	92.370	0.340	0.100	0.680
2020/01/31 02:22:00.5	92.340	0.280	0.220	0.720
2020/01/31 02:22:00.6	92.320	0.210	0.330	0.750
2020/01/31 02:22:00.7	92.290	0.150	0.440	0.790
2020/01/31 02:22:00.8	92.270	0.080	0.540	0.820
2020/01/31 02:22:00.9	92.240	0.010	0.630	0.850
2020/01/31 02:22:01.0	92.220	-0.060	0.720	0.880
2020/01/31 02:22:01.1	92.200	-0.130	0.800	0.900
2020/01/31 02:22:01.2	92.180	-0.200	0.870	0.920
2020/01/31 02:22:01.3	92.160	-0.260	0.930	0.930
2020/01/31 02:22:01.4	92.140	-0.320	0.980	0.940
2020/01/31 02:22:01.5	92.120	-0.380	1.010	0.950
2020/01/31 02:22:01.6	92.110	-0.440	1.040	0.950
2020/01/31 02:22:01.7	92.100	-0.490	1.050	0.940
2020/01/31 02:22:01.8	92.100	-0.540	1.050	0.930
2020/01/31 02:22:01.9	92.090	-0.580	1.040	0.910
2020/01/31 02:22:02.0	92.090	-0.620	1.020	0.890
2020/01/31 02:22:02.1	92.090	-0.650	0.990	0.870
2020/01/31 02:22:02.2	92.090	-0.680	0.940	0.840
2020/01/31 02:22:02.3	92.100	-0.700	0.890	0.810
2020/01/31 02:22:02.4	92.110	-0.720	0.820	0.780
2020/01/31 02:22:02.5	92.110	-0.730	0.750	0.740
2020/01/31 02:22:02.6	92.120	-0.730	0.660	0.710
2020/01/31 02:22:02.7	92.140	-0.720	0.570	0.670
2020/01/31 02:22:02.8	92.150	-0.710	0.470	0.640
2020/01/31 02:22:02.9	92.170	-0.690	0.360	0.600
2020/01/31 02:22:03.0	92.180	-0.670	0.250	0.570
2020/01/31 02:22:03.1	92.200	-0.640	0.130	0.540
2020/01/31 02:22:03.2	92.220	-0.600	0.010	0.510
2020/01/31 02:22:03.3	92.240	-0.560	-0.120	0.480
2020/01/31 02:22:03.4	92.260	-0.510	-0.240	0.450
2020/01/31 02:22:03.5	92.290	-0.460	-0.370	0.420
2020/01/31 02:22:03.6	92.310	-0.400	-0.500	0.400
2020/01/31 02:22:03.7	92.340	-0.340	-0.620	0.370
2020/01/31 02:22:03.8	92.360	-0.280	-0.750	0.350
2020/01/31 02:22:03.9	92.390	-0.210	-0.870	0.330
2020/01/31 02:22:04.0	92.420	-0.140	-0.980	0.310
2020/01/31 02:22:04.1	92.450	-0.080	-1.090	0.300
2020/01/31 02:22:04.2	92.470	-0.010	-1.200	0.290
2020/01/31 02:22:04.3	92.500	0.060	-1.290	0.270
2020/01/31 02:22:04.4	92.530	0.120	-1.370	0.270
2020/01/31 02:22:04.5	92.560	0.190	-1.450	0.260
2020/01/31 02:22:04.6	92.580	0.250	-1.520	0.260
2020/01/31 02:22:04.7	92.600	0.310	-1.570	0.270
2020/01/31 02:22:04.8	92.620	0.360	-1.610	0.280
2020/01/31 02:22:04.9	92.640	0.400	-1.640	0.290
2020/01/31 02:22:05.0	92.660	0.450	-1.650	0.310
2020/01/31 02:22:05.1	92.680	0.480	-1.650	0.330
2020/01/31 02:22:05.2	92.690	0.510	-1.640	0.350
2020/01/31 02:22:05.3	92.690	0.520	-1.600	0.380
2020/01/31 02:22:05.4	92.700	0.530	-1.560	0.410
2020/01/31 02:22:05.5	92.700	0.530	-1.490	0.440
2020/01/31 02:22:05.6	92.690	0.530	-1.410	0.470
2020/01/31 02:22:05.7	92.690	0.510	-1.320	0.500
2020/01/31 02:22:05.8	92.680	0.490	-1.220	0.540
2020/01/31 02:22:05.9	92.670	0.450	-1.100	0.570
2020/01/31 02:22:06.0	92.660	0.410	-0.970	0.600
2020/01/31 02:22:06.1	92.640	0.370	-0.830	0.640
2020/01/31 02:22:06.2	92.620	0.310	-0.680	0.670
2020/01/31 02:22:06.3	92.610	0.250	-0.530	0.710
2020/01/31 02:22:06.4	92.580	0.190	-0.360	0.740
2020/01/31 02:22:06.5	92.560	0.110	-0.200	0.770
2020/01/31 02:22:06.6	92.540	0.040	-0.030	0.800
2020/01/31 02:22:06.7	92.510	-0.040	0.140	0.830
2020/01/31 02:22:06.8	92.480	-0.130	0.310	0.860
2020/01/31 02:22:06.9	92.450	-0.210	0.480	0.890
2020/01/31 02:22:07.0	92.420	-0.300	0.640	0.920
2020/01/31 02:22:07.1	92.390	-0.390	0.800	0.950
2020/01/31 02:22:07.2	92.360	-0.470	0.950	0.970
2020/01/31 02:22:07.3	92.330	-0.560	1.090	0.990
2020/01/31 02:22:07.4	92.300	-0.640	1.210	1.010
2020/01/31 02:22:07.5	92.270	-0.710	1.330	1.030
2020/01/31 02:22:07.6	92.240	-0.780	1.430	1.040
2020/01/31 02:22:07.7	92.210	-0.850	1.510	1.050
2020/01/31 02:22:07.8	92.180	-0.900	1.570	1.060
2020/01/31 02:22:07.9	92.150	-0.950	1.610	1.060
2020/01/31 02:22:08.0	92.130	-0.990	1.630	1.060
2020/01/31 02:22:08.1	92.110	-1.020	1.630	1.060
2020/01/31 02:22:08.2	92.090	-1.040	1.610	1.050
2020/01/31 02:22:08.3	92.070	-1.040	1.560	1.030
2020/01/31 02:22:08.4	92.060	-1.040	1.500	1.010
2020/01/31 02:22:08.5	92.040	-1.020	1.410	0.990
2020/01/31 02:22:08.6	92.030	-0.990	1.300	0.960
2020/01/31 02:22:08.7	92.020	-0.950	1.170	0.930
2020/01/31 02:22:08.8	92.020	-0.900	1.020	0.890
2020/01/31 02:22:08.9	92.010	-0.840	0.860	0.850
2020/01/31 02:22:09.0	92.010	-0.770	0.680	0.810
2020/01/31 02:22:09.1	92.010	-0.690	0.500	0.770
2020/01/31 02:22:09.2	92.010	-0.600	0.300	0.730
2020/01/31 02:22:09.3	92.010	-0.500	0.100	0.680
2020/01/31 02:22:09.4	92.020	-0.400	-0.110	0.630
2020/01/31 02:22:09.5	92.020	-0.290	-0.320	0.580
2020/01/31 02:22:09.6	92.030	-0.180	-0.530	0.540
2020/01/31 02:22:09.7	92.040	-0.070	-0.740	0.480
2020/01/31 02:22:09.8	92.050	0.050	-0.940	0.430
2020/01/31 02:22:09.9	92.060	0.170	-1.140	0.380
2020/01/31 02:22:10.0	92.070	0.290	-1.320	0.330
2020/01/31 02:22:10.1	92.080	0.400	-1.510	0.280
2020/01/31 02:22:10.2	92.090	0.520	-1.670	0.220
2020/01/31 02:22:10.3	92.110	0.620	-1.810	0.170
2020/01/31 02:22:10.4	92.120	0.730	-1.940	0.130
2020/01/31 02:22:10.5	92.130	0.830	-2.040	0.080
2020/01/31 02:22:10.6	92.150	0.920	-2.130	0.050
2020/01/31 02:22:10.7	92.160	1.000	-2.190	0.010
2020/01/31 02:22:10.8	92.160	1.070	-2.240	-0.020
2020/01/31 02:22:10.9	92.170	1.140	-2.260	-0.040
2020/01/31 02:22:11.0	92.170	1.190	-2.250	-0.060
2020/01/31 02:22:11.1	92.190	1.240	-2.220	-0.060
2020/01/31 02:22:11.2	92.190	1.280	-2.170	-0.070
2020/01/31 02:22:11.3	92.190	1.300	-2.100	-0.070
2020/01/31 02:22:11.4	92.180	1.320	-2.010	-0.070
2020/01/31 02:22:11.5	92.180	1.320	-1.900	-0.060
2020/01/31 02:22:11.6	92.170	1.310	-1.770	-0.040
2020/01/31 02:22:11.7	92.170	1.290	-1.620	-0.030
2020/01/31 02:22:11.8	92.160	1.270	-1.450	-0.000
2020/01/31 02:22:11.9	92.140	1.230	-1.270	0.020
2020/01/31 02:22:12.0	92.130	1.180	-1.080	0.050
2020/01/31 02:22:12.1	92.120	1.130	-0.870	0.090
2020/01/31 02:22:12.2	92.110	1.060	-0.660	0.120
2020/01/31 02:22:12.3	92.090	0.990	-0.450	0.150
2020/01/31 02:22:12.4	92.080	0.910	-0.230	0.190
2020/01/31 02:22:12.5	92.060	0.830	-0.020	0.220
2020/01/31 02:22:12.6	92.040	0.740	0.200	0.260
2020/01/31 02:22:12.7	92.030	0.650	0.410	0.290
2020/01/31 02:22:12.8	92.010	0.550	0.610	0.330
2020/01/31 02:22:12.9	92.000	0.450	0.810	0.360
2020/01/31 02:22:13.0	91.990	0.350	0.990	0.390
2020/01/31 02:22:13.1	91.970	0.250	1.170	0.420
2020/01/31 02:22:13.2	91.960	0.150	1.330	0.450
2020/01/31 02:22:13.3	91.960	0.050	1.470	0.480
2020/01/31 02:22:13.4	91.950	-0.040	1.590	0.510
2020/01/31 02:22:13.5	91.950	-0.130	1.700	0.530
2020/01/31 02:22:13.6	91.940	-0.220	1.780	0.560
2020/01/31 02:22:13.7	91.940	-0.310	1.850	0.580
2020/01/31 02:22:13.8	91.940	-0.380	1.890	0.610
2020/01/31 02:22:13.9	91.940	-0.460	1.910	0.630
2020/01/31 02:22:14.0	91.940	-0.520	1.910	0.650
2020/01/31 02:22:14.1	91.950	-0.580	1.880	0.680
2020/01/31 02:22:14.2	91.960	-0.620	1.840	0.700
2020/01/31 02:22:14.3	91.960	-0.660	1.770	0.720
2020/01/31 02:22:14.4	91.970	-0.690	1.680	0.740
2020/01/31 02:22:14.5	91.970	-0.720	1.570	0.760
2020/01/31 02:22:14.6	91.980	-0.730	1.450	0.780
2020/01/31 02:22:14.7	91.990	-0.740	1.310	0.800
2020/01/31 02:22:14.8	92.000	-0.740	1.160	0.820
2020/01/31 02:22:14.9	92.010	-0.740	1.000	0.830
2020/01/31 02:22:15.0	92.020	-0.720	0.830	0.850
2020/01/31 02:22:15.1	92.030	-0.710	0.640	0.860
2020/01/31 02:22:15.2	92.040	-0.680	0.460	0.880
2020/01/31 02:22:15.3	92.050	-0.650	0.280	0.900
2020/01/31 02:22:15.4	92.060	-0.620	0.100	0.920
2020/01/31 02:22:15.5	92.070	-0.590	-0.070	0.930
2020/01/31 02:22:15.6	92.080	-0.550	-0.250	0.950
2020/01/31 02:22:15.7	92.090	-0.510	-0.420	0.970
2020/01/31 02:22:15.8	92.100	-0.470	-0.580	0.990
2020/01/31 02:22:15.9	92.110	-0.430	-0.730	1.010
2020/01/31 02:22:16.0	92.120	-0.390	-0.870	1.030
2020/01/31 02:22:16.1	92.130	-0.350	-1.000	1.050
2020/01/31 02:22:16.2	92.140	-0.310	-1.120	1.080
2020/01/31 02:22:16.3	92.140	-0.280	-1.220	1.100
2020/01/31 02:22:16.4	92.150	-0.240	-1.320	1.120
2020/01/31 02:22:16.5	92.150	-0.210	-1.390	1.150
2020/01/31 02:22:16.6	92.150	-0.180	-1.450	1.170
2020/01/31 02:22:16.7	92.150	-0.150	-1.500	1.200
2020/01/31 02:22:16.8	92.150	-0.120	-1.530	1.220
2020/01/31 02:22:16.9	92.150	-0.100	-1.550	1.250
2020/01/31 02:22:17.0	92.150	-0.090	-1.560	1.270
2020/01/31 02:22:17.1	92.150	-0.070	-1.550	1.300
2020/01/31 02:22:17.2	92.150	-0.060	-1.530	1.330
2020/01/31 02:22:17.3	92.140	-0.050	-1.500	1.350
2020/01/31 02:22:17.4	92.140	-0.050	-1.460	1.370
2020/01/31 02:22:17.5	92.140	-0.040	-1.410	1.380
2020/01/31 02:22:17.6	92.140	-0.050	-1.350	1.400
2020/01/31 02:22:17.7	92.140	-0.050	-1.280	1.420
2020/01/31 02:22:17.8	92.150	-0.060	-1.210	1.430
2020/01/31 02:22:17.9	92.150	-0.060	-1.130	1.440
2020/01/31 02:22:18.0	92.150	-0.070	-1.040	1.450
2020/01/31 02:22:18.1	92.160	-0.080	-0.950	1.450
2020/01/31 02:22:18.2	92.160	-0.100	-0.860	1.460
2020/01/31 02:22:18.3	92.170	-0.110	-0.770	1.460
2020/01/31 02:22:18.4	92.180	-0.120	-0.680	1.450
2020/01/31 02:22:18.5	92.180	-0.130	-0.580	1.450
2020/01/31 02:22:18.6	92.190	-0.150	-0.490	1.440
2020/01/31 02:22:18.7	92.200	-0.160	-0.410	1.430
2020/01/31 02:22:18.8	92.200	-0.170	-0.320	1.420
2020/01/31 02:22:18.9	92.210	-0.180	-0.240	1.410
2020/01/31 02:22:19.0	92.210	-0.180	-0.170	1.390
2020/01/31 02:22:19.1	92.220	-0.190	-0.090	1.380
2020/01/31 02:22:19.2	92.230	-0.190	-0.030	1.360
2020/01/31 02:22:19.3	92.230	-0.190	0.030	1.340
2020/01/31 02:22:19.4	92.230	-0.180	0.090	1.320
2020/01/31 02:22:19.5	92.220	-0.180	0.130	1.300
2020/01/31 02:22:19.6	92.220	-0.170	0.170	1.270
2020/01/31 02:22:19.7	92.220	-0.160	0.210	1.240
2020/01/31 02:22:19.8	92.210	-0.150	0.230	1.210
2020/01/31 02:22:19.9	92.210	-0.130	0.250	1.180
2020/01/31 02:22:20.0	92.200	-0.110	0.270	1.140
2020/01/31 02:22:20.1	92.200	-0.100	0.280	1.110
2020/01/31 02:22:20.2	92.200	-0.080	0.280	1.070
2020/01/31 02:22:20.3	92.200	-0.050	0.290	1.020
2020/01/31 02:22:20.4	92.200	-0.030	0.290	0.970
2020/01/31 02:22:20.5	92.190	-0.010	0.280	0.910
2020/01/31 02:22:20.6	92.190	0.010	0.280	0.860
2020/01/31 02:22:20.7	92.200	0.030	0.270	0.800
2020/01/31 02:22:20.8	92.200	0.050	0.250	0.740
2020/01/31 02:22:20.9	92.200	0.080	0.240	0.670
2020/01/31 02:22:21.0	92.210	0.100	0.230	0.610
2020/01/31 02:22:21.1	92.220	0.120	0.210	0.540
2020/01/31 02:22:21.2	92.230	0.140	0.200	0.480
2020/01/31 02:22:21.3	92.240	0.150	0.180	0.410
2020/01/31 02:22:21.4	92.250	0.170	0.160	0.350
2020/01/31 02:22:21.5	92.260	0.190	0.140	0.290
2020/01/31 02:22:21.6	92.280	0.200	0.120	0.230
2020/01/31 02:22:21.7	92.290	0.220	0.100	0.170
2020/01/31 02:22:21.8	92.310	0.230	0.080	0.110
2020/01/31 02:22:21.9	92.320	0.240	0.060	0.060
2020/01/31 02:22:22.0	92.340	0.250	0.030	0.010
2020/01/31 02:22:22.1	92.360	0.260	0.010	-0.030
2020/01/31 02:22:22.2	92.380	0.270	-0.020	-0.070
2020/01/31 02:22:22.3	92.390	0.280	-0.040	-0.110
2020/01/31 02:22:22.4	92.410	0.290	-0.070	-0.150
2020/01/31 02:22:22.5	92.430	0.290	-0.100	-0.180
2020/01/31 02:22:22.6	92.450	0.300	-0.130	-0.210
2020/01/31 02:22:22.7	92.470	0.310	-0.160	-0.230
2020/01/31 02:22:22.8	92.490	0.310	-0.190	-0.250
2020/01/31 02:22:22.9	92.510	0.320	-0.230	-0.260
2020/01/31 02:22:23.0	92.530	0.320	-0.260	-0.270
2020/01/31 02:22:23.1	92.550	0.330	-0.300	-0.280
2020/01/31 02:22:23.2	92.560	0.330	-0.340	-0.290
2020/01/31 02:22:23.3	92.580	0.340	-0.380	-0.290
2020/01/31 02:22:23.4	92.600	0.340	-0.420	-0.280
2020/01/31 02:22:23.5	92.610	0.340	-0.460	-0.280
2020/01/31 02:22:23.6	92.630	0.350	-0.500	-0.270
2020/01/31 02:22:23.7	92.640	0.350	-0.540	-0.250
2020/01/31 02:22:23.8	92.660	0.360	-0.570	-0.240
2020/01/31 02:22:23.9	92.670	0.360	-0.610	-0.230
2020/01/31 02:22:24.0	92.680	0.360	-0.640	-0.210
2020/01/31 02:22:24.1	92.710	0.360	-0.670	-0.180
2020/01/31 02:22:24.2	92.720	0.360	-0.700	-0.160
2020/01/31 02:22:24.3	92.730	0.360	-0.730	-0.140
2020/01/31 02:22:24.4	92.740	0.360	-0.750	-0.120
2020/01/31 02:22:24.5	92.750	0.360	-0.770	-0.090
2020/01/31 02:22:24.6	92.760	0.360	-0.780	-0.060
2020/01/31 02:22:24.7	92.770	0.350	-0.790	-0.030
2020/01/31 02:22:24.8	92.770	0.350	-0.790	-0.000
2020/01/31 02:22:24.9	92.780	0.340	-0.780	0.030
2020/01/31 02:22:25.0	92.780	0.330	-0.770	0.070
2020/01/31 02:22:25.1	92.790	0.320	-0.750	0.110
2020/01/31 02:22:25.2	92.790	0.300	-0.730	0.150
2020/01/31 02:22:25.3	92.790	0.290	-0.700	0.190
2020/01/31 02:22:25.4	92.790	0.270	-0.660	0.230
2020/01/31 02:22:25.5	92.790	0.250	-0.620	0.280
2020/01/31 02:22:25.6	92.790	0.230	-0.570	0.330
2020/01/31 02:22:25.7	92.780	0.210	-0.520	0.370
2020/01/31 02:22:25.8	92.780	0.180	-0.460	0.420
2020/01/31 02:22:25.9	92.770	0.160	-0.390	0.480
2020/01/31 02:22:26.0	92.760	0.130	-0.330	0.530
2020/01/31 02:22:26.1	92.750	0.110	-0.260	0.590
2020/01/31 02:22:26.2	92.740	0.080	-0.180	0.640
2020/01/31 02:22:26.3	92.730	0.050	-0.110	0.690
2020/01/31 02:22:26.4	92.720	0.020	-0.040	0.740
2020/01/31 02:22:26.5	92.720	-0.010	0.030	0.800
2020/01/31 02:22:26.6	92.710	-0.040	0.100	0.850
2020/01/31 02:22:26.7	92.700	-0.070	0.170	0.900
2020/01/31 02:22:26.8	92.690	-0.100	0.240	0.940
2020/01/31 02:22:26.9	92.690	-0.130	0.300	0.990
2020/01/31 02:22:27.0	92.680	-0.160	0.360	1.030
2020/01/31 02:22:27.1	92.690	-0.190	0.410	1.070
2020/01/31 02:22:27.2	92.690	-0.220	0.460	1.110
2020/01/31 02:22:27.3	92.690	-0.240	0.490	1.140
2020/01/31 02:22:27.4	92.690	-0.270	0.530	1.170
2020/01/31 02:22:27.5	92.690	-0.290	0.550	1.200
2020/01/31 02:22:27.6	92.690	-0.310	0.570	1.220
2020/01/31 02:22:27.7	92.700	-0.330	0.580	1.240
2020/01/31 02:22:27.8	92.710	-0.340	0.580	1.250
2020/01/31 02:22:27.9	92.720	-0.360	0.570	1.260
2020/01/31 02:22:28.0	92.730	-0.370	0.560	1.260
2020/01/31 02:22:28.1	92.740	-0.380	0.530	1.270
2020/01/31 02:22:28.2	92.760	-0.390	0.500	1.260
2020/01/31 02:22:28.3	92.780	-0.390	0.470	1.250
2020/01/31 02:22:28.4	92.800	-0.390	0.430	1.240
2020/01/31 02:22:28.5	92.820	-0.390	0.380	1.230
2020/01/31 02:22:28.6	92.840	-0.390	0.320	1.210
2020/01/31 02:22:28.7	92.870	-0.380	0.260	1.190
2020/01/31 02:22:28.8	92.890	-0.370	0.200	1.170
2020/01/31 02:22:28.9	92.920	-0.360	0.140	1.140
2020/01/31 02:22:29.0	92.940	-0.340	0.070	1.120
2020/01/31 02:22:29.1	92.970	-0.320	-0.010	1.090
2020/01/31 02:22:29.2	92.990	-0.310	-0.080	1.070
2020/01/31 02:22:29.3	93.020	-0.280	-0.150	1.040
2020/01/31 02:22:29.4	93.040	-0.260	-0.220	1.010
2020/01/31 02:22:29.5	93.070	-0.240	-0.290	0.980
2020/01/31 02:22:29.6	93.090	-0.210	-0.360	0.950
2020/01/31 02:22:29.7	93.120	-0.180	-0.420	0.920
2020/01/31 02:22:29.8	93.140	-0.160	-0.480	0.890
2020/01/31 02:22:29.9	93.160	-0.130	-0.540	0.860
2020/01/31 02:22:30.0	93.190	-0.100	-0.590	0.830
2020/01/31 02:22:30.1	93.210	-0.070	-0.640	0.810
2020/01/31 02:22:30.2	93.230	-0.040	-0.680	0.780
2020/01/31 02:22:30.3	93.250	-0.010	-0.720	0.750
2020/01/31 02:22:30.4	93.270	0.020	-0.750	0.730
2020/01/31 02:22:30.5	93.280	0.050	-0.770	0.700
2020/01/31 02:22:30.6	93.300	0.070	-0.780	0.680
2020/01/31 02:22:30.7	93.310	0.100	-0.800	0.660
2020/01/31 02:22:30.8	93.320	0.120	-0.800	0.640
2020/01/31 02:22:30.9	93.330	0.140	-0.800	0.630
2020/01/31 02:22:31.0	93.330	0.170	-0.790	0.610
2020/01/31 02:22:31.1	93.350	0.190	-0.780	0.600
2020/01/31 02:22:31.2	93.350	0.200	-0.760	0.590
2020/01/31 02:22:31.3	93.350	0.220	-0.740	0.580
2020/01/31 02:22:31.4	93.350	0.230	-0.710	0.570
2020/01/31 02:22:31.5	93.340	0.250	-0.680	0.570
2020/01/31 02:22:31.6	93.340	0.260	-0.650	0.560
2020/01/31 02:22:31.7	93.330	0.270	-0.620	0.560
2020/01/31 02:22:31.8	93.320	0.270	-0.580	0.560
2020/01/31 02:22:31.9	93.310	0.280	-0.540	0.560
2020/01/31 02:22:32.0	93.300	0.280	-0.500	0.560
2020/01/31 02:22:32.1	93.280	0.290	-0.450	0.560
2020/01/31 02:22:32.2	93.270	0.290	-0.410	0.560
2020/01/31 02:22:32.3	93.260	0.290	-0.370	0.560
2020/01/31 02:22:32.4	93.240	0.290	-0.330	0.560
2020/01/31 02:22:32.5	93.230	0.280	-0.280	0.560
2020/01/31 02:22:32.6	93.220	0.280	-0.240	0.560
2020/01/31 02:22:32.7	93.200	0.270	-0.200	0.560
2020/01/31 02:22:32.8	93.190	0.270	-0.170	0.560
2020/01/31 02:22:32.9	93.180	0.260	-0.130	0.560
2020/01/31 02:22:33.0	93.170	0.250	-0.100	0.550
2020/01/31 02:22:33.1	93.160	0.240	-0.070	0.550
2020/01/31 02:22:33.2	93.150	0.230	-0.040	0.550
2020/01/31 02:22:33.3	93.140	0.220	-0.010	0.540
2020/01/31 02:22:33.4	93.130	0.210	0.010	0.540
2020/01/31 02:22:33.5	93.130	0.200	0.030	0.530
2020/01/31 02:22:33.6	93.120	0.190	0.040	0.530
2020/01/31 02:22:33.7	93.110	0.180	0.060	0.520
2020/01/31 02:22:33.8	93.100	0.160	0.060	0.510
2020/01/31 02:22:33.9	93.100	0.150	0.070	0.500
2020/01/31 02:22:34.0	93.090	0.140	0.070	0.490
2020/01/31 02:22:34.1	93.080	0.120	0.070	0.480
2020/01/31 02:22:34.2	93.080	0.110	0.070	0.470
2020/01/31 02:22:34.3	93.070	0.100	0.070	0.450
2020/01/31 02:22:34.4	93.070	0.080	0.060	0.440
2020/01/31 02:22:34.5	93.070	0.070	0.050	0.430
2020/01/31 02:22:34.6	93.070	0.050	0.030	0.410
2020/01/31 02:22:34.7	93.070	0.030	0.020	0.400
2020/01/31 02:22:34.8	93.080	0.020	0.000	0.380
2020/01/31 02:22:34.9	93.080	0.000	-0.010	0.370
2020/01/31 02:22:35.0	93.080	-0.010	-0.030	0.360
2020/01/31 02:22:35.1	93.100	-0.030	-0.050	0.350
2020/01/31 02:22:35.2	93.100	-0.040	-0.070	0.340
2020/01/31 02:22:35.3	93.110	-0.050	-0.080	0.340
2020/01/31 02:22:35.4	93.120	-0.070	-0.100	0.330
2020/01/31 02:22:35.5	93.130	-0.080	-0.120	0.330
2020/01/31 02:22:35.6	93.140	-0.090	-0.130	0.340
2020/01/31 02:22:35.7	93.160	-0.110	-0.150	0.340
2020/01/31 02:22:35.8	93.170	-0.120	-0.160	0.350
2020/01/31 02:22:35.9	93.180	-0.130	-0.180	0.360
2020/01/31 02:22:36.0	93.190	-0.140	-0.190	0.380
2020/01/31 02:22:36.1	93.210	-0.150	-0.200	0.400
2020/01/31 02:22:36.2	93.220	-0.150	-0.210	0.410
2020/01/31 02:22:36.3	93.230	-0.160	-0.210	0.440
2020/01/31 02:22:36.4	93.240	-0.170	-0.220	0.460
2020/01/31 02:22:36.5	93.240	-0.180	-0.220	0.490
2020/01/31 02:22:36.6	93.250	-0.180	-0.230	0.510
2020/01/31 02:22:36.7	93.260	-0.190	-0.230	0.540
2020/01/31 02:22:36.8	93.260	-0.190	-0.230	0.570
2020/01/31 02:22:36.9	93.270	-0.200	-0.230	0.590
2020/01/31 02:22:37.0	93.270	-0.200	-0.240	0.620
2020/01/31 02:22:37.1	93.270	-0.200	-0.240	0.650
2020/01/31 02:22:37.2	93.280	-0.210	-0.240	0.680
2020/01/31 02:22:37.3	93.280	-0.210	-0.250	0.700
2020/01/31 02:22:37.4	93.280	-0.210	-0.250	0.720
2020/01/31 02:22:37.5	93.280	-0.210	-0.260	0.740
2020/01/31 02:22:37.6	93.270	-0.210	-0.270	0.750
2020/01/31 02:22:37.7	93.270	-0.210	-0.280	0.770
2020/01/31 02:22:37.8	93.270	-0.200	-0.290	0.790
2020/01/31 02:22:37.9	93.260	-0.200	-0.300	0.800
2020/01/31 02:22:38.0	93.260	-0.190	-0.320	0.810
2020/01/31 02:22:38.1	93.260	-0.190	-0.330	0.820
2020/01/31 02:22:38.2	93.250	-0.180	-0.350	0.840
2020/01/31 02:22:38.3	93.240	-0.170	-0.370	0.850
2020/01/31 02:22:38.4	93.220	-0.160	-0.380	0.860
2020/01/31 02:22:38.5	93.210	-0.150	-0.400	0.870
2020/01/31 02:22:38.6	93.200	-0.140	-0.420	0.880
2020/01/31 02:22:38.7	93.180	-0.130	-0.440	0.900
2020/01/31 02:22:38.8	93.170	-0.110	-0.450	0.910
2020/01/31 02:22:38.9	93.150	-0.100	-0.460	0.920
2020/01/31 02:22:39.0	93.130	-0.090	-0.470	0.930
2020/01/31 02:22:39.1	93.120	-0.080	-0.490	0.940
2020/01/31 02:22:39.2	93.110	-0.060	-0.490	0.950
2020/01/31 02:22:39.3	93.090	-0.050	-0.490	0.960
2020/01/31 02:22:39.4	93.080	-0.040	-0.490	0.970
2020/01/31 02:22:39.5	93.060	-0.030	-0.490	0.970
2020/01/31 02:22:39.6	93.050	-0.020	-0.480	0.980
2020/01/31 02:22:39.7	93.040	-0.010	-0.470	0.990
2020/01/31 02:22:39.8	93.030	0.000	-0.460	0.990
2020/01/31 02:22:39.9	93.030	0.010	-0.450	1.000
2020/01/31 02:22:40.0	93.020	0.020	-0.430	1.000
2020/01/31 02:22:40.1	93.020	0.030	-0.400	1.000
2020/01/31 02:22:40.2	93.010	0.040	-0.380	1.000
2020/01/31 02:22:40.3	93.020	0.040	-0.360	0.990
2020/01/31 02:22:40.4	93.020	0.050	-0.330	0.990
2020/01/31 02:22:40.5	93.020	0.060	-0.300	0.980
2020/01/31 02:22:40.6	93.030	0.070	-0.280	0.970
2020/01/31 02:22:40.7	93.040	0.070	-0.250	0.960
2020/01/31 02:22:40.8	93.050	0.080	-0.230	0.950
2020/01/31 02:22:40.9	93.060	0.090	-0.200	0.930
2020/01/31 02:22:41.0	93.070	0.100	-0.180	0.910
2020/01/31 02:22:41.1	93.090	0.110	-0.150	0.900
2020/01/31 02:22:41.2	93.110	0.110	-0.130	0.880
2020/01/31 02:22:41.3	93.120	0.120	-0.120	0.860
2020/01/31 02:22:41.4	93.140	0.130	-0.100	0.830
2020/01/31 02:22:41.5	93.150	0.140	-0.090	0.810
2020/01/31 02:22:41.6	93.160	0.150	-0.070	0.790
2020/01/31 02:22:41.7	93.180	0.160	-0.060	0.760
2020/01/31 02:22:41.8	93.190	0.170	-0.050	0.740
2020/01/31 02:22:41.9	93.190	0.180	-0.050	0.720
2020/01/31 02:22:42.0	93.200	0.180	-0.040	0.690
2020/01/31 02:22:42.1	93.210	0.190	-0.030	0.670
2020/01/31 02:22:42.2	93.210	0.200	-0.030	0.650
2020/01/31 02:22:42.3	93.210	0.200	-0.030	0.620
2020/01/31 02:22:42.4	93.200	0.210	-0.030	0.600
2020/01/31 02:22:42.5	93.200	0.210	-0.030	0.580
2020/01/31 02:22:42.6	93.190	0.210	-0.030	0.550
2020/01/31 02:22:42.7	93.190	0.210	-0.030	0.530
2020/01/31 02:22:42.8	93.170	0.210	-0.030	0.500
2020/01/31 02:22:42.9	93.160	0.210	-0.030	0.470
2020/01/31 02:22:43.0	93.150	0.200	-0.040	0.450
2020/01/31 02:22:43.1	93.140	0.200	-0.040	0.430
2020/01/31 02:22:43.2	93.120	0.190	-0.050	0.400
2020/01/31 02:22:43.3	93.100	0.190	-0.050	0.380
2020/01/31 02:22:43.4	93.090	0.180	-0.060	0.360
2020/01/31 02:22:43.5	93.070	0.170	-0.070	0.330
2020/01/31 02:22:43.6	93.050	0.160	-0.070	0.310
2020/01/31 02:22:43.7	93.040	0.140	-0.080	0.300
2020/01/31 02:22:43.8	93.020	0.130	-0.090	0.280
2020/01/31 02:22:43.9	93.010	0.120	-0.100	0.270
2020/01/31 02:22:44.0	92.990	0.110	-0.110	0.260
2020/01/31 02:22:44.1	92.970	0.090	-0.120	0.250
2020/01/31 02:22:44.2	92.960	0.080	-0.130	0.240
2020/01/31 02:22:44.3	92.950	0.070	-0.130	0.240
2020/01/31 02:22:44.4	92.940	0.050	-0.140	0.240
2020/01/31 02:22:44.5	92.930	0.040	-0.150	0.240
2020/01/31 02:22:44.6	92.930	0.030	-0.150	0.240
2020/01/31 02:22:44.7	92.930	0.010	-0.160	0.250
2020/01/31 02:22:44.8	92.920	0.000	-0.160	0.250
2020/01/31 02:22:44.9	92.920	-0.010	-0.170	0.260
2020/01/31 02:22:45.0	92.920	-0.020	-0.170	0.270
2020/01/31 02:22:45.1	92.920	-0.030	-0.180	0.280
2020/01/31 02:22:45.2	92.930	-0.030	-0.180	0.300
2020/01/31 02:22:45.3	92.930	-0.040	-0.190	0.310
2020/01/31 02:22:45.4	92.940	-0.050	-0.190	0.320
2020/01/31 02:22:45.5	92.950	-0.050	-0.200	0.330
2020/01/31 02:22:45.6	92.960	-0.050	-0.200	0.340
2020/01/31 02:22:45.7	92.970	-0.060	-0.210	0.360
2020/01/31 02:22:45.8	92.980	-0.060	-0.210	0.370
2020/01/31 02:22:45.9	93.000	-0.050	-0.220	0.380
2020/01/31 02:22:46.0	93.010	-0.050	-0.230	0.400
2020/01/31 02:22:46.1	93.040	-0.050	-0.230	0.410
2020/01/31 02:22:46.2	93.060	-0.050	-0.240	0.420
2020/01/31 02:22:46.3	93.080	-0.040	-0.250	0.440
2020/01/31 02:22:46.4	93.100	-0.030	-0.260	0.450
2020/01/31 02:22:46.5	93.120	-0.030	-0.270	0.470
2020/01/31 02:22:46.6	93.130	-0.020	-0.280	0.490
2020/01/31 02:22:46.7	93.150	-0.010	-0.300	0.510
2020/01/31 02:22:46.8	93.170	-0.000	-0.310	0.530
2020/01/31 02:22:46.9	93.180	0.000	-0.320	0.550
2020/01/31 02:22:47.0	93.190	0.010	-0.340	0.580
2020/01/31 02:22:47.1	93.200	0.020	-0.350	0.610
2020/01/31 02:22:47.2	93.200	0.030	-0.360	0.630
2020/01/31 02:22:47.3	93.200	0.030	-0.370	0.660
2020/01/31 02:22:47.4	93.200	0.040	-0.380	0.690
2020/01/31 02:22:47.5	93.200	0.040	-0.380	0.720
2020/01/31 02:22:47.6	93.180	0.040	-0.380	0.750
2020/01/31 02:22:47.7	93.170	0.040	-0.370	0.790
2020/01/31 02:22:47.8	93.150	0.030	-0.360	0.820
2020/01/31 02:22:47.9	93.130	0.020	-0.350	0.850
2020/01/31 02:22:48.0	93.110	0.010	-0.330	0.880
2020/01/31 02:22:48.1	93.100	0.000	-0.300	0.910
2020/01/31 02:22:48.2	93.070	-0.010	-0.280	0.950
2020/01/31 02:22:48.3	93.040	-0.030	-0.240	0.980
2020/01/31 02:22:48.4	93.010	-0.050	-0.210	1.010
2020/01/31 02:22:48.5	92.980	-0.080	-0.170	1.050
2020/01/31 02:22:48.6	92.950	-0.100	-0.130	1.080
2020/01/31 02:22:48.7	92.920	-0.130	-0.090	1.110
2020/01/31 02:22:48.8	92.890	-0.160	-0.050	1.140
2020/01/31 02:22:48.9	92.860	-0.190	0.000	1.180
2020/01/31 02:22:49.0	92.830	-0.220	0.050	1.210
2020/01/31 02:22:49.1	92.800	-0.250	0.090	1.240
2020/01/31 02:22:49.2	92.770	-0.280	0.130	1.260
2020/01/31 02:22:49.3	92.750	-0.310	0.170	1.290
2020/01/31 02:22:49.4	92.730	-0.350	0.210	1.310
2020/01/31 02:22:49.5	92.710	-0.370	0.240	1.320
2020/01/31 02:22:49.6	92.690	-0.400	0.270	1.340
2020/01/31 02:22:49.7	92.680	-0.430	0.300	1.350
2020/01/31 02:22:49.8	92.670	-0.450	0.310	1.360
2020/01/31 02:22:49.9	92.660	-0.470	0.320	1.360
2020/01/31 02:22:50.0	92.660	-0.490	0.320	1.360
2020/01/31 02:22:50.1	92.660	-0.500	0.320	1.360
2020/01/31 02:22:50.2	92.660	-0.510	0.310	1.350
2020/01/31 02:22:50.3	92.670	-0.510	0.290	1.330
2020/01/31 02:22:50.4	92.680	-0.510	0.250	1.320
2020/01/31 02:22:50.5	92.690	-0.500	0.210	1.290
2020/01/31 02:22:50.6	92.710	-0.490	0.160	1.270
2020/01/31 02:22:50.7	92.730	-0.470	0.110	1.240
2020/01/31 02:22:50.8	92.750	-0.450	0.040	1.200
2020/01/31 02:22:50.9	92.770	-0.420	-0.030	1.170
2020/01/31 02:22:51.0	92.800	-0.390	-0.110	1.130
2020/01/31 02:22:51.1	92.830	-0.360	-0.200	1.090
2020/01/31 02:22:51.2	92.860	-0.320	-0.290	1.050
2020/01/31 02:22:51.3	92.890	-0.270	-0.380	1.010
2020/01/31 02:22:51.4	92.910	-0.230	-0.470	0.960
2020/01/31 02:22:51.5	92.940	-0.180	-0.570	0.920
2020/01/31 02:22:51.6	92.970	-0.120	-0.660	0.880
2020/01/31 02:22:51.7	92.990	-0.070	-0.760	0.840
2020/01/31 02:22:51.8	93.010	-0.010	-0.850	0.800
2020/01/31 02:22:51.9	93.030	0.040	-0.930	0.770
2020/01/31 02:22:52.0	93.050	0.100	-1.010	0.740
2020/01/31 02:22:52.1	93.070	0.160	-1.090	0.700
2020/01/31 02:22:52.2	93.080	0.220	-1.160	0.680
2020/01/31 02:22:52.3	93.090	0.270	-1.220	0.660
2020/01/31 02:22:52.4	93.100	0.320	-1.260	0.640
2020/01/31 02:22:52.5	93.100	0.370	-1.300	0.630
2020/01/31 02:22:52.6	93.100	0.420	-1.330	0.620
2020/01/31 02:22:52.7	93.100	0.460	-1.340	0.620
2020/01/31 02:22:52.8	93.100	0.500	-1.340	0.620
2020/01/31 02:22:52.9	93.090	0.540	-1.330	0.620
2020/01/31 02:22:53.0	93.080	0.560	-1.310	0.630
2020/01/31 02:22:53.1	93.080	0.590	-1.270	0.660
2020/01/31 02:22:53.2	93.060	0.600	-1.220	0.680
2020/01/31 02:22:53.3	93.040	0.620	-1.160	0.700
2020/01/31 02:22:53.4	93.020	0.620	-1.090	0.720
2020/01/31 02:22:53.5	93.000	0.620	-1.010	0.750
2020/01/31 02:22:53.6	92.970	0.610	-0.910	0.780
2020/01/31 02:22:53.7	92.940	0.600	-0.810	0.810
2020/01/31 02:22:53.8	92.920	0.580	-0.700	0.850
2020/01/31 02:22:53.9	92.890	0.560	-0.580	0.880
2020/01/31 02:22:54.0	92.860	0.520	-0.460	0.910
2020/01/31 02:22:54.1	92.820	0.490	-0.330	0.940
2020/01/31 02:22:54.2	92.790	0.450	-0.200	0.970
2020/01/31 02:22:54.3	92.760	0.400	-0.060	1.000
2020/01/31 02:22:54.4	92.730	0.350	0.070	1.030
2020/01/31 02:22:54.5	92.690	0.290	0.210	1.060
2020/01/31 02:22:54.6	92.660	0.230	0.340	1.080
2020/01/31 02:22:54.7	92.630	0.170	0.470	1.100
2020/01/31 02:22:54.8	92.600	0.110	0.600	1.120
2020/01/31 02:22:54.9	92.570	0.050	0.710	1.130
2020/01/31 02:22:55.0	92.540	-0.020	0.830	1.140
2020/01/31 02:22:55.1	92.510	-0.090	0.930	1.150
2020/01/31 02:22:55.2	92.480	-0.150	1.020	1.140
2020/01/31 02:22:55.3	92.460	-0.220	1.100	1.140
2020/01/31 02:22:55.4	92.440	-0.280	1.170	1.120
2020/01/31 02:22:55.5	92.420	-0.340	1.220	1.110
2020/01/31 02:22:55.6	92.410	-0.390	1.260	1.080
2020/01/31 02:22:55.7	92.390	-0.440	1.290	1.060
2020/01/31 02:22:55.8	92.380	-0.490	1.300	1.020
2020/01/31 02:22:55.9	92.370	-0.540	1.300	0.990
2020/01/31 02:22:56.0	92.370	-0.570	1.280	0.950
2020/01/31 02:22:56.1	92.370	-0.600	1.240	0.900
2020/01/31 02:22:56.2	92.370	-0.630	1.190	0.850
2020/01/31 02:22:56.3	92.370	-0.640	1.130	0.800
2020/01/31 02:22:56.4	92.380	-0.660	1.050	0.750
2020/01/31 02:22:56.5	92.390	-0.660	0.950	0.700
2020/01/31 02:22:56.6	92.400	-0.650	0.850	0.640
2020/01/31 02:22:56.7	92.410	-0.640	0.730	0.590
2020/01/31 02:22:56.8	92.430	-0.630	0.610	0.530
2020/01/31 02:22:56.9	92.450	-0.600	0.470	0.470
2020/01/31 02:22:57.0	92.470	-0.570	0.330	0.420
2020/01/31 02:22:57.1	92.490	-0.530	0.170	0.370
2020/01/31 02:22:57.2	92.510	-0.480	0.020	0.320
2020/01/31 02:22:57.3	92.540	-0.430	-0.140	0.260
2020/01/31 02:22:57.4	92.560	-0.370	-0.300	0.220
2020/01/31 02:22:57.5	92.590	-0.310	-0.450	0.170
2020/01/31 02:22:57.6	92.610	-0.250	-0.600	0.130
2020/01/31 02:22:57.7	92.640	-0.180	-0.750	0.090
2020/01/31 02:22:57.8	92.660	-0.110	-0.890	0.060
2020/01/31 02:22:57.9	92.690	-0.040	-1.020	0.030
2020/01/31 02:22:58.0	92.710	0.030	-1.140	0.010
2020/01/31 02:22:58.1	92.730	0.110	-1.260	-0.010
2020/01/31 02:22:58.2	92.750	0.180	-1.360	-0.020
2020/01/31 02:22:58.3	92.770	0.250	-1.450	-0.020
2020/01/31 02:22:58.4	92.780	0.320	-1.530	-0.020
2020/01/31 02:22:58.5	92.800	0.380	-1.590	-0.010
2020/01/31 02:22:58.6	92.810	0.450	-1.640	0.000
2020/01/31 02:22:58.7	92.820	0.500	-1.670	0.020
2020/01/31 02:22:58.8	92.820	0.550	-1.690	0.040
2020/01/31 02:22:58.9	92.830	0.600	-1.690	0.070
2020/01/31 02:22:59.0	92.830	0.640	-1.680	0.100
2020/01/31 02:22:59.1	92.830	0.680	-1.660	0.140
2020/01/31 02:22:59.2	92.830	0.700	-1.620	0.170
2020/01/31 02:22:59.3	92.830	0.720	-1.570	0.210
2020/01/31 02:22:59.4	92.820	0.740	-1.500	0.260
2020/01/31 02:22:59.5	92.820	0.740	-1.420	0.300
2020/01/31 02:22:59.6	92.810	0.740	-1.330	0.350
2020/01/31 02:22:59.7	92.800	0.730	-1.230	0.390
2020/01/31 02:22:59.8	92.790	0.720	-1.130	0.440
2020/01/31 02:22:59.9	92.780	0.700	-1.010	0.490
2020/01/31 02:23:00.0	92.760	0.670	-0.890	0.540
2020/01/31 02:23:00.1	92.750	0.630	-0.760	0.600
2020/01/31 02:23:00.2	92.740	0.590	-0.630	0.650
2020/01/31 02:23:00.3	92.720	0.550	-0.490	0.700
2020/01/31 02:23:00.4	92.710	0.500	-0.360	0.740
2020/01/31 02:23:00.5	92.700	0.440	-0.220	0.790
2020/01/31 02:23:00.6	92.690	0.380	-0.090	0.840
2020/01/31 02:23:00.7	92.670	0.320	0.040	0.880
2020/01/31 02:23:00.8	92.660	0.260	0.160	0.920
2020/01/31 02:23:00.9	92.650	0.190	0.290	0.960
2020/01/31 02:23:01.0	92.640	0.120	0.400	0.990
2020/01/31 02:23:01.1	92.640	0.060	0.510	1.030
2020/01/31 02:23:01.2	92.630	-0.010	0.610	1.060
2020/01/31 02:23:01.3	92.620	-0.080	0.700	1.080
2020/01/31 02:23:01.4	92.620	-0.140	0.780	1.100
2020/01/31 02:23:01.5	92.610	-0.200	0.850	1.120
2020/01/31 02:23:01.6	92.610	-0.260	0.910	1.130
2020/01/31 02:23:01.7	92.610	-0.320	0.950	1.140
2020/01/31 02:23:01.8	92.610	-0.370	0.980	1.140
2020/01/31 02:23:01.9	92.610	-0.420	1.000	1.140
2020/01/31 02:23:02.0	92.610	-0.460	1.010	1.130
2020/01/31 02:23:02.1	92.610	-0.500	1.000	1.120
2020/01/31 02:23:02.2	92.620	-0.530	0.980	1.110
2020/01/31 02:23:02.3	92.630	-0.560	0.950	1.090
2020/01/31 02:23:02.4	92.640	-0.580	0.910	1.070
2020/01/31 02:23:02.5	92.650	-0.590	0.870	1.050
2020/01/31 02:23:02.6	92.670	-0.600	0.810	1.030
2020/01/31 02:23:02.7	92.680	-0.610	0.740	1.000
2020/01/31 02:23:02.8	92.700	-0.610	0.660	0.980
2020/01/31 02:23:02.9	92.720	-0.600	0.580	0.950
2020/01/31 02:23:03.0	92.740	-0.590	0.500	0.920
2020/01/31 02:23:03.1	92.750	-0.570	0.400	0.900
2020/01/31 02:23:03.2	92.770	-0.550	0.310	0.870
2020/01/31 02:23:03.3	92.800	-0.530	0.220	0.840
2020/01/31 02:23:03.4	92.820	-0.510	0.120	0.810
2020/01/31 02:23:03.5	92.840	-0.480	0.030	0.780
2020/01/31 02:23:03.6	92.860	-0.450	-0.060	0.750
2020/01/31 02:23:03.7	92.880	-0.410	-0.150	0.720
2020/01/31 02:23:03.8	92.900	-0.380	-0.240	0.690
2020/01/31 02:23:03.9	92.930	-0.340	-0.320	0.670
2020/01/31 02:23:04.0	92.950	-0.310	-0.400	0.650
2020/01/31 02:23:04.1	92.960	-0.270	-0.480	0.630
2020/01/31 02:23:04.2	92.980	-0.240	-0.550	0.610
2020/01/31 02:23:04.3	93.000	-0.200	-0.610	0.600
2020/01/31 02:23:04.4	93.020	-0.170	-0.660	0.590
2020/01/31 02:23:04.5	93.030	-0.130	-0.710	0.590
2020/01/31 02:23:04.6	93.040	-0.100	-0.750	0.580
2020/01/31 02:23:04.7	93.060	-0.070	-0.780	0.590
2020/01/31 02:23:04.8	93.070	-0.050	-0.810	0.590
2020/01/31 02:23:04.9	93.070	-0.020	-0.830	0.600
2020/01/31 02:23:05.0	93.080	0.000	-0.840	0.620
2020/01/31 02:23:05.1	93.090	0.020	-0.840	0.640
2020/01/31 02:23:05.2	93.090	0.040	-0.840	0.660
2020/01/31 02:23:05.3	93.090	0.050	-0.830	0.680
2020/01/31 02:23:05.4	93.080	0.060	-0.810	0.710
2020/01/31 02:23:05.5	93.080	0.070	-0.790	0.730
2020/01/31 02:23:05.6	93.070	0.080	-0.760	0.760
2020/01/31 02:23:05.7	93.060	0.080	-0.720	0.790
2020/01/31 02:23:05.8	93.040	0.080	-0.680	0.820
2020/01/31 02:23:05.9	93.030	0.070	-0.630	0.850
2020/01/31 02:23:06.0	93.010	0.060	-0.580	0.870
2020/01/31 02:23:06.1	92.990	0.050	-0.530	0.900
2020/01/31 02:23:06.2	92.970	0.040	-0.480	0.920
2020/01/31 02:23:06.3	92.950	0.020	-0.410	0.940
2020/01/31 02:23:06.4	92.920	0.000	-0.350	0.960
2020/01/31 02:23:06.5	92.900	-0.020	-0.290	0.970
2020/01/31 02:23:06.6	92.870	-0.040	-0.230	0.990
2020/01/31 02:23:06.7	92.850	-0.060	-0.160	0.990
2020/01/31 02:23:06.8	92.820	-0.090	-0.100	1.000
2020/01/31 02:23:06.9	92.800	-0.110	-0.040	1.000
2020/01/31 02:23:07.0	92.770	-0.140	0.020	1.000
2020/01/31 02:23:07.1	92.740	-0.160	0.080	0.990
2020/01/31 02:23:07.2	92.720	-0.190	0.130	0.980
2020/01/31 02:23:07.3	92.690	-0.210	0.170	0.970
2020/01/31 02:23:07.4	92.670	-0.230	0.210	0.950
2020/01/31 02:23:07.5	92.650	-0.250	0.240	0.930
2020/01/31 02:23:07.6	92.630	-0.270	0.260	0.910
2020/01/31 02:23:07.7	92.610	-0.280	0.280	0.890
2020/01/31 02:23:07.8	92.590	-0.300	0.290	0.860
2020/01/31 02:23:07.9	92.580	-0.300	0.290	0.840
2020/01/31 02:23:08.0	92.560	-0.310	0.280	0.810
2020/01/31 02:23:08.1	92.550	-0.310	0.260	0.780
2020/01/31 02:23:08.2	92.540	-0.300	0.230	0.750
2020/01/31 02:23:08.3	92.530	-0.290	0.200	0.720
2020/01/31 02:23:08.4	92.520	-0.280	0.160	0.690
2020/01/31 02:23:08.5	92.520	-0.260	0.110	0.660
2020/01/31 02:23:08.6	92.510	-0.240	0.050	0.630
2020/01/31 02:23:08.7	92.510	-0.210	-0.010	0.600
2020/01/31 02:23:08.8	92.510	-0.180	-0.070	0.580
2020/01/31 02:23:08.9	92.510	-0.150	-0.140	0.550
2020/01/31 02:23:09.0	92.510	-0.110	-0.220	0.520
2020/01/31 02:23:09.1	92.500	-0.070	-0.300	0.500
2020/01/31 02:23:09.2	92.510	-0.020	-0.370	0.470
2020/01/31 02:23:09.3	92.510	0.020	-0.450	0.440
2020/01/31 02:23:09.4	92.520	0.070	-0.530	0.410
2020/01/31 02:23:09.5	92.530	0.120	-0.610	0.380
2020/01/31 02:23:09.6	92.540	0.170	-0.690	0.350
2020/01/31 02:23:09.7	92.560	0.220	-0.760	0.320
2020/01/31 02:23:09.8	92.570	0.270	-0.830	0.290
2020/01/31 02:23:09.9	92.590	0.320	-0.900	0.260
2020/01/31 02:23:10.0	92.600	0.370	-0.960	0.230
2020/01/31 02:23:10.1	92.630	0.420	-1.020	0.200
2020/01/31 02:23:10.2	92.650	0.470	-1.070	0.170
2020/01/31 02:23:10.3	92.670	0.510	-1.120	0.150
2020/01/31 02:23:10.4	92.690	0.550	-1.150	0.120
2020/01/31 02:23:10.5	92.710	0.600	-1.180	0.090
2020/01/31 02:23:10.6	92.740	0.630	-1.200	0.070
2020/01/31 02:23:10.7	92.760	0.670	-1.200	0.060
2020/01/31 02:23:10.8	92.780	0.700	-1.200	0.040
2020/01/31 02:23:10.9	92.800	0.720	-1.190	0.030
2020/01/31 02:23:11.0	92.810	0.740	-1.170	0.020
2020/01/31 02:23:11.1	92.830	0.760	-1.140	0.030
2020/01/31 02:23:11.2	92.840	0.770	-1.090	0.030
2020/01/31 02:23:11.3	92.860	0.780	-1.040	0.040
2020/01/31 02:23:11.4	92.870	0.780	-0.980	0.050
2020/01/31 02:23:11.5	92.870	0.770	-0.910	0.070
2020/01/31 02:23:11.6	92.880	0.760	-0.820	0.100
2020/01/31 02:23:11.7	92.880	0.750	-0.730	0.130
2020/01/31 02:23:11.8	92.880	0.720	-0.630	0.170
2020/01/31 02:23:11.9	92.880	0.700	-0.530	0.210
2020/01/31 02:23:12.0	92.880	0.660	-0.420	0.250
2020/01/31 02:23:12.1	92.880	0.630	-0.300	0.290
2020/01/31 02:23:12.2	92.870	0.590	-0.180	0.340
2020/01/31 02:23:12.3	92.870	0.540	-0.060	0.390
2020/01/31 02:23:12.4	92.860	0.490	0.060	0.440
2020/01/31 02:23:12.5	92.850	0.430	0.190	0.480
2020/01/31 02:23:12.6	92.840	0.380	0.310	0.530
2020/01/31 02:23:12.7	92.830	0.320	0.430	0.580
2020/01/31 02:23:12.8	92.820	0.260	0.540	0.620
2020/01/31 02:23:12.9	92.810	0.190	0.650	0.660
2020/01/31 02:23:13.0	92.800	0.130	0.750	0.700
2020/01/31 02:23:13.1	92.790	0.070	0.850	0.740
2020/01/31 02:23:13.2	92.790	0.000	0.940	0.770
2020/01/31 02:23:13.3	92.780	-0.060	1.010	0.800
2020/01/31 02:23:13.4	92.770	-0.120	1.070	0.820
2020/01/31 02:23:13.5	92.770	-0.170	1.120	0.840
2020/01/31 02:23:13.6	92.760	-0.230	1.160	0.860
2020/01/31 02:23:13.7	92.760	-0.280	1.180	0.870
2020/01/31 02:23:13.8	92.760	-0.330	1.190	0.880
2020/01/31 02:23:13.9	92.750	-0.370	1.190	0.880
2020/01/31 02:23:14.0	92.750	-0.400	1.170	0.880
2020/01/31 02:23:14.1	92.760	-0.440	1.120	0.870
2020/01/31 02:23:14.2	92.760	-0.460	1.080	0.870
2020/01/31 02:23:14.3	92.760	-0.480	1.020	0.860
2020/01/31 02:23:14.4	92.760	-0.500	0.950	0.850
2020/01/31 02:23:14.5	92.760	-0.500	0.860	0.840
2020/01/31 02:23:14.6	92.760	-0.510	0.770	0.830
2020/01/31 02:23:14.7	92.770	-0.510	0.670	0.830
2020/01/31 02:23:14.8	92.770	-0.500	0.570	0.820
2020/01/31 02:23:14.9	92.770	-0.490	0.460	0.810
2020/01/31 02:23:15.0	92.770	-0.480	0.340	0.800
2020/01/31 02:23:15.1	92.780	-0.460	0.220	0.790
2020/01/31 02:23:15.2	92.780	-0.440	0.100	0.780
2020/01/31 02:23:15.3	92.790	-0.420	-0.020	0.770
2020/01/31 02:23:15.4	92.800	-0.390	-0.140	0.760
2020/01/31 02:23:15.5	92.800	-0.360	-0.250	0.750
2020/01/31 02:23:15.6	92.810	-0.330	-0.370	0.740
2020/01/31 02:23:15.7	92.820	-0.300	-0.480	0.740
2020/01/31 02:23:15.8	92.830	-0.270	-0.580	0.730
2020/01/31 02:23:15.9	92.840	-0.240	-0.680	0.730
2020/01/31 02:23:16.0	92.850	-0.210	-0.770	0.730
2020/01/31 02:23:16.1	92.860	-0.180	-0.860	0.730
2020/01/31 02:23:16.2	92.870	-0.140	-0.940	0.740
2020/01/31 02:23:16.3	92.880	-0.110	-1.010	0.750
2020/01/31 02:23:16.4	92.890	-0.090	-1.080	0.760
2020/01/31 02:23:16.5	92.890	-0.060	-1.130	0.770
2020/01/31 02:23:16.6	92.900	-0.030	-1.180	0.790
2020/01/31 02:23:16.7	92.910	-0.010	-1.210	0.810
2020/01/31 02:23:16.8	92.910	0.010	-1.240	0.830
2020/01/31 02:23:16.9	92.920	0.030	-1.260	0.850
2020/01/31 02:23:17.0	92.920	0.050	-1.270	0.880
2020/01/31 02:23:17.1	92.920	0.070	-1.270	0.910
2020/01/31 02:23:17.2	92.930	0.080	-1.260	0.930
2020/01/31 02:23:17.3	92.930	0.090	-1.240	0.960
2020/01/31 02:23:17.4	92.940	0.100	-1.220	0.990
2020/01/31 02:23:17.5	92.940	0.100	-1.180	1.020
2020/01/31 02:23:17.6	92.950	0.110	-1.140	1.040
2020/01/31 02:23:17.7	92.950	0.100	-1.090	1.070
2020/01/31 02:23:17.8	92.960	0.100	-1.030	1.100
2020/01/31 02:23:17.9	92.960	0.090	-0.970	1.130
2020/01/31 02:23:18.0	92.960	0.080	-0.900	1.160
2020/01/31 02:23:18.1	92.970	0.070	-0.820	1.190
2020/01/31 02:23:18.2	92.970	0.060	-0.740	1.220
2020/01/31 02:23:18.3	92.970	0.040	-0.650	1.250
2020/01/31 02:23:18.4	92.960	0.020	-0.560	1.280
2020/01/31 02:23:18.5	92.960	-0.010	-0.470	1.310
2020/01/31 02:23:18.6	92.960	-0.030	-0.370	1.330
2020/01/31 02:23:18.7	92.950	-0.060	-0.280	1.360
2020/01/31 02:23:18.8	92.940	-0.090	-0.180	1.390
2020/01/31 02:23:18.9	92.930	-0.120	-0.090	1.420
2020/01/31 02:23:19.0	92.920	-0.150	0.010	1.440
2020/01/31 02:23:19.1	92.900	-0.180	0.100	1.460
2020/01/31 02:23:19.2	92.890	-0.220	0.180	1.490
2020/01/31 02:23:19.3	92.880	-0.250	0.260	1.510
2020/01/31 02:23:19.4	92.860	-0.280	0.340	1.530
2020/01/31 02:23:19.5	92.850	-0.310	0.400	1.550
2020/01/31 02:23:19.6	92.830	-0.340	0.460	1.560
2020/01/31 02:23:19.7	92.810	-0.360	0.510	1.570
2020/01/31 02:23:19.8	92.800	-0.390	0.550	1.580
2020/01/31 02:23:19.9	92.780	-0.410	0.580	1.590
2020/01/31 02:23:20.0	92.770	-0.430	0.600	1.590
2020/01/31 02:23:20.1	92.750	-0.440	0.610	1.590
2020/01/31 02:23:20.2	92.740	-0.450	0.610	1.590
2020/01/31 02:23:20.3	92.730	-0.460	0.600	1.580
2020/01/31 02:23:20.4	92.720	-0.460	0.580	1.560
2020/01/31 02:23:20.5	92.710	-0.460	0.550	1.540
2020/01/31 02:23:20.6	92.710	-0.460	0.510	1.510
2020/01/31 02:23:20.7	92.710	-0.450	0.470	1.480
2020/01/31 02:23:20.8	92.710	-0.440	0.420	1.440
2020/01/31 02:23:20.9	92.710	-0.420	0.360	1.400
2020/01/31 02:23:21.0	92.710	-0.400	0.300	1.350
2020/01/31 02:23:21.1	92.720	-0.380	0.230	1.300
2020/01/31 02:23:21.2	92.730	-0.350	0.170	1.250
2020/01/31 02:23:21.3	92.730	-0.330	0.100	1.190
2020/01/31 02:23:21.4	92.740	-0.300	0.030	1.130
2020/01/31 02:23:21.5	92.750	-0.260	-0.040	1.070
2020/01/31 02:23:21.6	92.760	-0.230	-0.100	1.010
2020/01/31 02:23:21.7	92.770	-0.190	-0.170	0.950
2020/01/31 02:23:21.8	92.780	-0.160	-0.230	0.890
2020/01/31 02:23:21.9	92.790	-0.120	-0.290	0.830
2020/01/31 02:23:22.0	92.800	-0.080	-0.340	0.770
2020/01/31 02:23:22.1	92.810	-0.040	-0.400	0.710
2020/01/31 02:23:22.2	92.820	-0.010	-0.450	0.660
2020/01/31 02:23:22.3	92.830	0.030	-0.490	0.600
2020/01/31 02:23:22.4	92.840	0.070	-0.530	0.550
2020/01/31 02:23:22.5	92.850	0.110	-0.570	0.500
2020/01/31 02:23:22.6	92.850	0.140	-0.600	0.450
2020/01/31 02:23:22.7	92.860	0.180	-0.630	0.410
2020/01/31 02:23:22.8	92.870	0.210	-0.650	0.370
2020/01/31 02:23:22.9	92.880	0.250	-0.670	0.330
2020/01/31 02:23:23.0	92.890	0.280	-0.680	0.290
2020/01/31 02:23:23.1	92.890	0.310	-0.690	0.260
2020/01/31 02:23:23.2	92.900	0.340	-0.700	0.240
2020/01/31 02:23:23.3	92.910	0.370	-0.710	0.210
2020/01/31 02:23:23.4	92.920	0.400	-0.710	0.190
2020/01/31 02:23:23.5	92.920	0.420	-0.710	0.170
2020/01/31 02:23:23.6	92.930	0.440	-0.710	0.150
2020/01/31 02:23:23.7	92.940	0.460	-0.700	0.140
2020/01/31 02:23:23.8	92.940	0.480	-0.690	0.130
2020/01/31 02:23:23.9	92.950	0.500	-0.670	0.120
2020/01/31 02:23:24.0	92.960	0.520	-0.660	0.110
2020/01/31 02:23:24.1	92.970	0.530	-0.640	0.110
2020/01/31 02:23:24.2	92.980	0.540	-0.620	0.110
2020/01/31 02:23:24.3	92.980	0.550	-0.590	0.110
2020/01/31 02:23:24.4	92.990	0.550	-0.560	0.110
2020/01/31 02:23:24.5	93.000	0.550	-0.530	0.120
2020/01/31 02:23:24.6	93.010	0.550	-0.500	0.130
2020/01/31 02:23:24.7	93.010	0.550	-0.460	0.140
2020/01/31 02:23:24.8	93.020	0.540	-0.420	0.150
2020/01/31 02:23:24.9	93.030	0.530	-0.380	0.160
2020/01/31 02:23:25.0	93.040	0.520	-0.340	0.180
2020/01/31 02:23:25.1	93.050	0.500	-0.290	0.200
2020/01/31 02:23:25.2	93.060	0.480	-0.250	0.220
2020/01/31 02:23:25.3	93.070	0.460	-0.210	0.240
2020/01/31 02:23:25.4	93.080	0.440	-0.170	0.260
2020/01/31 02:23:25.5	93.080	0.410	-0.130	0.290
2020/01/31 02:23:25.6	93.090	0.380	-0.090	0.310
2020/01/31 02:23:25.7	93.090	0.350	-0.060	0.340
2020/01/31 02:23:25.8	93.100	0.320	-0.020	0.370
2020/01/31 02:23:25.9	93.100	0.290	0.010	0.400
2020/01/31 02:23:26.0	93.100	0.260	0.030	0.430
2020/01/31 02:23:26.1	93.090	0.230	0.050	0.470
2020/01/31 02:23:26.2	93.090	0.200	0.070	0.510
2020/01/31 02:23:26.3	93.080	0.160	0.080	0.540
2020/01/31 02:23:26.4	93.080	0.130	0.090	0.580
2020/01/31 02:23:26.5	93.070	0.100	0.100	0.620
2020/01/31 02:23:26.6	93.060	0.070	0.100	0.670
2020/01/31 02:23:26.7	93.050	0.040	0.100	0.710
2020/01/31 02:23:26.8	93.040	0.010	0.100	0.750
2020/01/31 02:23:26.9	93.030	-0.020	0.090	0.790
2020/01/31 02:23:27.0	93.010	-0.040	0.080	0.830
2020/01/31 02:23:27.1	92.990	-0.060	0.070	0.870
2020/01/31 02:23:27.2	92.970	-0.090	0.050	0.910
2020/01/31 02:23:27.3	92.950	-0.110	0.040	0.950
2020/01/31 02:23:27.4	92.930	-0.120	0.020	0.980
2020/01/31 02:23:27.5	92.910	-0.140	0.000	1.020
2020/01/31 02:23:27.6	92.890	-0.150	-0.010	1.050
2020/01/31 02:23:27.7	92.870	-0.160	-0.030	1.080
2020/01/31 02:23:27.8	92.850	-0.170	-0.050	1.110
2020/01/31 02:23:27.9	92.830	-0.170	-0.070	1.140
2020/01/31 02:23:28.0	92.810	-0.170	-0.090	1.160
2020/01/31 02:23:28.1	92.790	-0.180	-0.110	1.190
2020/01/31 02:23:28.2	92.770	-0.170	-0.130	1.210
2020/01/31 02:23:28.3	92.750	-0.170	-0.150	1.230
2020/01/31 02:23:28.4	92.730	-0.160	-0.180	1.250
2020/01/31 02:23:28.5	92.710	-0.160	-0.200	1.260
2020/01/31 02:23:28.6	92.690	-0.150	-0.220	1.270
2020/01/31 02:23:28.7	92.680	-0.140	-0.240	1.280
2020/01/31 02:23:28.8	92.660	-0.130	-0.260	1.280
2020/01/31 02:23:28.9	92.650	-0.110	-0.280	1.280
2020/01/31 02:23:29.0	92.640	-0.100	-0.300	1.280
2020/01/31 02:23:29.1	92.630	-0.090	-0.320	1.280
2020/01/31 02:23:29.2	92.620	-0.080	-0.340	1.270
2020/01/31 02:23:29.3	92.620	-0.060	-0.350	1.260
2020/01/31 02:23:29.4	92.610	-0.050	-0.370	1.250
2020/01/31 02:23:29.5	92.610	-0.040	-0.380	1.230
2020/01/31 02:23:29.6	92.610	-0.030	-0.400	1.210
2020/01/31 02:23:29.7	92.620	-0.020	-0.410	1.190
2020/01/31 02:23:29.8	92.620	-0.010	-0.420	1.170
2020/01/31 02:23:29.9	92.630	-0.010	-0.430	1.150
2020/01/31 02:23:30.0	92.640	-0.000	-0.440	1.120
2020/01/31 02:23:30.1	92.660	0.000	-0.440	1.100
2020/01/31 02:23:30.2	92.670	0.000	-0.440	1.080
2020/01/31 02:23:30.3	92.690	0.000	-0.450	1.050
2020/01/31 02:23:30.4	92.710	-0.000	-0.440	1.030
2020/01/31 02:23:30.5	92.730	-0.000	-0.440	1.000
2020/01/31 02:23:30.6	92.750	-0.010	-0.430	0.980
2020/01/31 02:23:30.7	92.770	-0.020	-0.430	0.950
2020/01/31 02:23:30.8	92.790	-0.020	-0.410	0.930
2020/01/31 02:23:30.9	92.810	-0.030	-0.400	0.900
2020/01/31 02:23:31.0	92.840	-0.040	-0.380	0.880
2020/01/31 02:23:31.1	92.860	-0.060	-0.360	0.860
2020/01/31 02:23:31.2	92.890	-0.070	-0.340	0.840
2020/01/31 02:23:31.3	92.910	-0.090	-0.310	0.810
2020/01/31 02:23:31.4	92.930	-0.100	-0.280	0.790
2020/01/31 02:23:31.5	92.950	-0.120	-0.250	0.770
2020/01/31 02:23:31.6	92.970	-0.140	-0.210	0.750
2020/01/31 02:23:31.7	92.980	-0.150	-0.170	0.740
2020/01/31 02:23:31.8	93.000	-0.170	-0.130	0.720
2020/01/31 02:23:31.9	93.010	-0.190	-0.090	0.710
2020/01/31 02:23:32.0	93.020	-0.210	-0.050	0.700
2020/01/31 02:23:32.1	93.020	-0.230	-0.010	0.690
2020/01/31 02:23:32.2	93.030	-0.250	0.030	0.680
2020/01/31 02:23:32.3	93.030	-0.270	0.080	0.670
2020/01/31 02:23:32.4	93.030	-0.290	0.120	0.670
2020/01/31 02:23:32.5	93.030	-0.300	0.150	0.670
2020/01/31 02:23:32.6	93.040	-0.320	0.190	0.670
2020/01/31 02:23:32.7	93.030	-0.340	0.220	0.680
2020/01/31 02:23:32.8	93.030	-0.350	0.250	0.690
2020/01/31 02:23:32.9	93.030	-0.360	0.270	0.700
2020/01/31 02:23:33.0	93.020	-0.370	0.290	0.710
2020/01/31 02:23:33.1	93.010	-0.380	0.300	0.730
2020/01/31 02:23:33.2	93.000	-0.390	0.310	0.750
2020/01/31 02:23:33.3	92.990	-0.390	0.310	0.770
2020/01/31 02:23:33.4	92.980	-0.390	0.310	0.790
2020/01/31 02:23:33.5	92.970	-0.390	0.290	0.810
2020/01/31 02:23:33.6	92.950	-0.390	0.280	0.840
2020/01/31 02:23:33.7	92.930	-0.380	0.250	0.870
2020/01/31 02:23:33.8	92.920	-0.370	0.220	0.890
2020/01/31 02:23:33.9	92.900	-0.360	0.180	0.920
2020/01/31 02:23:34.0	92.880	-0.350	0.140	0.940
2020/01/31 02:23:34.1	92.870	-0.330	0.090	0.960
2020/01/31 02:23:34.2	92.850	-0.310	0.040	0.980
2020/01/31 02:23:34.3	92.830	-0.290	-0.020	1.000
2020/01/31 02:23:34.4	92.810	-0.270	-0.070	1.010
2020/01/31 02:23:34.5	92.800	-0.240	-0.140	1.020
2020/01/31 02:23:34.6	92.780	-0.220	-0.200	1.030
2020/01/31 02:23:34.7	92.770	-0.190	-0.270	1.030
2020/01/31 02:23:34.8	92.760	-0.150	-0.340	1.030
2020/01/31 02:23:34.9	92.750	-0.120	-0.410	1.020
2020/01/31 02:23:35.0	92.740	-0.090	-0.480	1.010
2020/01/31 02:23:35.1	92.730	-0.050	-0.550	1.000
2020/01/31 02:23:35.2	92.720	-0.010	-0.620	0.990
2020/01/31 02:23:35.3	92.710	0.020	-0.680	0.970
2020/01/31 02:23:35.4	92.710	0.060	-0.750	0.950
2020/01/31 02:23:35.5	92.700	0.100	-0.810	0.930
2020/01/31 02:23:35.6	92.700	0.140	-0.860	0.910
2020/01/31 02:23:35.7	92.700	0.180	-0.920	0.890
2020/01/31 02:23:35.8	92.700	0.220	-0.960	0.870
2020/01/31 02:23:35.9	92.700	0.260	-1.000	0.850
2020/01/31 02:23:36.0	92.700	0.300	-1.030	0.830
2020/01/31 02:23:36.1	92.710	0.330	-1.060	0.810
2020/01/31 02:23:36.2	92.710	0.360	-1.080	0.790
2020/01/31 02:23:36.3	92.710	0.390	-1.090	0.770
2020/01/31 02:23:36.4	92.720	0.420	-1.090	0.760
2020/01/31 02:23:36.5	92.720	0.450	-1.080	0.750
2020/01/31 02:23:36.6	92.720	0.470	-1.060	0.740
2020/01/31 02:23:36.7	92.720	0.490	-1.040	0.730
2020/01/31 02:23:36.8	92.720	0.500	-1.000	0.720
2020/01/31 02:23:36.9	92.710	0.510	-0.960	0.720
2020/01/31 02:23:37.0	92.710	0.520	-0.910	0.710
2020/01/31 02:23:37.1	92.710	0.520	-0.840	0.710
2020/01/31 02:23:37.2	92.700	0.510	-0.780	0.710
2020/01/31 02:23:37.3	92.700	0.510	-0.710	0.700
2020/01/31 02:23:37.4	92.690	0.490	-0.630	0.700
2020/01/31 02:23:37.5	92.680	0.480	-0.540	0.690
2020/01/31 02:23:37.6	92.670	0.450	-0.460	0.690
2020/01/31 02:23:37.7	92.660	0.430	-0.370	0.680
2020/01/31 02:23:37.8	92.640	0.400	-0.280	0.680
2020/01/31 02:23:37.9	92.630	0.370	-0.190	0.670
2020/01/31 02:23:38.0	92.610	0.330	-0.100	0.660
2020/01/31 02:23:38.1	92.590	0.290	-0.010	0.660
2020/01/31 02:23:38.2	92.580	0.250	0.080	0.650
2020/01/31 02:23:38.3	92.560	0.210	0.170	0.640
2020/01/31 02:23:38.4	92.540	0.160	0.250	0.640
2020/01/31 02:23:38.5	92.530	0.110	0.320	0.630
2020/01/31 02:23:38.6	92.510	0.070	0.390	0.620
2020/01/31 02:23:38.7	92.490	0.020	0.450	0.620
2020/01/31 02:23:38.8	92.480	-0.030	0.510	0.620
2020/01/31 02:23:38.9	92.460	-0.070	0.560	0.610
2020/01/31 02:23:39.0	92.450	-0.120	0.600	0.610
2020/01/31 02:23:39.1	92.430	-0.160	0.640	0.610
2020/01/31 02:23:39.2	92.420	-0.200	0.670	0.620
2020/01/31 02:23:39.3	92.410	-0.240	0.690	0.620
2020/01/31 02:23:39.4	92.400	-0.270	0.700	0.630
2020/01/31 02:23:39.5	92.390	-0.310	0.700	0.630
2020/01/31 02:23:39.6	92.380	-0.330	0.700	0.640
2020/01/31 02:23:39.7	92.380	-0.360	0.690	0.640
2020/01/31 02:23:39.8	92.380	-0.380	0.670	0.650
2020/01/31 02:23:39.9	92.380	-0.400	0.650	0.660
2020/01/31 02:23:40.0	92.380	-0.420	0.620	0.660
2020/01/31 02:23:40.1	92.390	-0.430	0.590	0.660
2020/01/31 02:23:40.2	92.390	-0.440	0.550	0.660
2020/01/31 02:23:40.3	92.400	-0.440	0.500	0.660
2020/01/31 02:23:40.4	92.420	-0.440	0.450	0.660
2020/01/31 02:23:40.5	92.430	-0.440	0.400	0.650
2020/01/31 02:23:40.6	92.450	-0.430	0.340	0.640
2020/01/31 02:23:40.7	92.470	-0.430	0.280	0.630
2020/01/31 02:23:40.8	92.490	-0.410	0.220	0.610
2020/01/31 02:23:40.9	92.520	-0.400	0.160	0.600
2020/01/31 02:23:41.0	92.540	-0.380	0.090	0.580
2020/01/31 02:23:41.1	92.570	-0.360	0.020	0.570
2020/01/31 02:23:41.2	92.590	-0.340	-0.040	0.550
2020/01/31 02:23:41.3	92.620	-0.310	-0.110	0.530
2020/01/31 02:23:41.4	92.650	-0.290	-0.180	0.510
2020/01/31 02:23:41.5	92.670	-0.260	-0.240	0.500
2020/01/31 02:23:41.6	92.700	-0.230	-0.300	0.490
2020/01/31 02:23:41.7	92.720	-0.200	-0.370	0.480
2020/01/31 02:23:41.8	92.740	-0.160	-0.430	0.470
2020/01/31 02:23:41.9	92.750	-0.130	-0.480	0.470
2020/01/31 02:23:42.0	92.770	-0.100	-0.540	0.470
2020/01/31 02:23:42.1	92.770	-0.060	-0.590	0.480
2020/01/31 02:23:42.2	92.780	-0.030	-0.630	0.480
2020/01/31 02:23:42.3	92.790	0.000	-0.680	0.500
2020/01/31 02:23:42.4	92.790	0.030	-0.710	0.510
2020/01/31 02:23:42.5	92.790	0.070	-0.750	0.530
2020/01/31 02:23:42.6	92.790	0.100	-0.780	0.550
2020/01/31 02:23:42.7	92.780	0.130	-0.800	0.570
2020/01/31 02:23:42.8	92.780	0.160	-0.830	0.600
2020/01/31 02:23:42.9	92.770	0.190	-0.840	0.630
2020/01/31 02:23:43.0	92.760	0.220	-0.850	0.660
2020/01/31 02:23:43.1	92.750	0.240	-0.860	0.700
2020/01/31 02:23:43.2	92.730	0.270	-0.870	0.730
2020/01/31 02:23:43.3	92.720	0.290	-0.870	0.760
2020/01/31 02:23:43.4	92.710	0.320	-0.860	0.800
2020/01/31 02:23:43.5	92.690	0.340	-0.860	0.830
2020/01/31 02:23:43.6	92.670	0.360	-0.850	0.860
2020/01/31 02:23:43.7	92.650	0.380	-0.830	0.890
2020/01/31 02:23:43.8	92.640	0.390	-0.820	0.920
2020/01/31 02:23:43.9	92.620	0.410	-0.800	0.950
2020/01/31 02:23:44.0	92.600	0.430	-0.780	0.980
2020/01/31 02:23:44.1	92.590	0.440	-0.750	1.000
2020/01/31 02:23:44.2	92.570	0.450	-0.730	1.020
2020/01/31 02:23:44.3	92.550	0.460	-0.710	1.040
2020/01/31 02:23:44.4	92.530	0.470	-0.680	1.060
2020/01/31 02:23:44.5	92.510	0.480	-0.660	1.080
2020/01/31 02:23:44.6	92.490	0.490	-0.630	1.090
2020/01/31 02:23:44.7	92.470	0.500	-0.600	1.110
2020/01/31 02:23:44.8	92.450	0.500	-0.570	1.120
2020/01/31 02:23:44.9	92.430	0.500	-0.550	1.130
2020/01/31 02:23:45.0	92.410	0.500	-0.520	1.140
2020/01/31 02:23:45.1	92.380	0.500	-0.490	1.150
2020/01/31 02:23:45.2	92.360	0.490	-0.460	1.150
2020/01/31 02:23:45.3	92.340	0.490	-0.430	1.150
2020/01/31 02:23:45.4	92.320	0.480	-0.400	1.150
2020/01/31 02:23:45.5	92.300	0.460	-0.360	1.160
2020/01/31 02:23:45.6	92.280	0.450	-0.330	1.150
2020/01/31 02:23:45.7	92.260	0.430	-0.290	1.150
2020/01/31 02:23:45.8	92.240	0.410	-0.260	1.150
2020/01/31 02:23:45.9	92.220	0.390	-0.220	1.150
2020/01/31 02:23:46.0	92.200	0.360	-0.180	1.140
2020/01/31 02:23:46.1	92.190	0.340	-0.140	1.140
2020/01/31 02:23:46.2	92.180	0.310	-0.100	1.130
2020/01/31 02:23:46.3	92.160	0.270	-0.060	1.130
2020/01/31 02:23:46.4	92.150	0.240	-0.020	1.120
2020/01/31 02:23:46.5	92.140	0.200	0.020	1.120
2020/01/31 02:23:46.6	92.130	0.160	0.050	1.110
2020/01/31 02:23:46.7	92.110	0.120	0.090	1.110
2020/01/31 02:23:46.8	92.100	0.080	0.130	1.100
2020/01/31 02:23:46.9	92.090	0.030	0.160	1.100
2020/01/31 02:23:47.0	92.080	-0.010	0.200	1.100
2020/01/31 02:23:47.1	92.070	-0.060	0.230	1.100
2020/01/31 02:23:47.2	92.060	-0.110	0.260	1.090
2020/01/31 02:23:47.3	92.060	-0.160	0.290	1.090
2020/01/31 02:23:47.4	92.050	-0.200	0.310	1.090
2020/01/31 02:23:47.5	92.040	-0.250	0.340	1.080
2020/01/31 02:23:47.6	92.040	-0.300	0.360	1.080
2020/01/31 02:23:47.7	92.040	-0.340	0.380	1.070
2020/01/31 02:23:47.8	92.030	-0.390	0.390	1.070
2020/01/31 02:23:47.9	92.030	-0.430	0.400	1.060
2020/01/31 02:23:48.0	92.030	-0.470	0.400	1.050
2020/01/31 02:23:48.1	92.040	-0.510	0.410	1.040
2020/01/31 02:23:48.2	92.040	-0.550	0.410	1.030
2020/01/31 02:23:48.3	92.050	-0.590	0.400	1.010
2020/01/31 02:23:48.4	92.060	-0.620	0.390	0.990
2020/01/31 02:23:48.5	92.070	-0.650	0.380	0.970
2020/01/31 02:23:48.6	92.080	-0.670	0.360	0.950
2020/01/31 02:23:48.7	92.090	-0.700	0.340	0.930
2020/01/31 02:23:48.8	92.110	-0.710	0.320	0.910
2020/01/31 02:23:48.9	92.130	-0.730	0.290	0.890
2020/01/31 02:23:49.0	92.140	-0.740	0.260	0.870
2020/01/31 02:23:49.1	92.160	-0.750	0.220	0.850
2020/01/31 02:23:49.2	92.180	-0.750	0.180	0.830
2020/01/31 02:23:49.3	92.200	-0.750	0.140	0.810
2020/01/31 02:23:49.4	92.220	-0.750	0.100	0.790
2020/01/31 02:23:49.5	92.240	-0.740	0.050	0.770
2020/01/31 02:23:49.6	92.260	-0.730	0.000	0.760
2020/01/31 02:23:49.7	92.280	-0.720	-0.050	0.740
2020/01/31 02:23:49.8	92.300	-0.700	-0.100	0.730
2020/01/31 02:23:49.9	92.330	-0.680	-0.160	0.720
2020/01/31 02:23:50.0	92.350	-0.650	-0.210	0.710
2020/01/31 02:23:50.1	92.370	-0.630	-0.270	0.710
2020/01/31 02:23:50.2	92.390	-0.600	-0.320	0.700
2020/01/31 02:23:50.3	92.410	-0.560	-0.370	0.700
2020/01/31 02:23:50.4	92.430	-0.530	-0.430	0.700
2020/01/31 02:23:50.5	92.450	-0.490	-0.480	0.700
2020/01/31 02:23:50.6	92.470	-0.450	-0.530	0.700
2020/01/31 02:23:50.7	92.490	-0.410	-0.570	0.700
2020/01/31 02:23:50.8	92.500	-0.360	-0.610	0.710
2020/01/31 02:23:50.9	92.510	-0.320	-0.650	0.710
2020/01/31 02:23:51.0	92.530	-0.280	-0.690	0.720
2020/01/31 02:23:51.1	92.530	-0.230	-0.730	0.720
2020/01/31 02:23:51.2	92.540	-0.190	-0.750	0.730
2020/01/31 02:23:51.3	92.550	-0.140	-0.780	0.740
2020/01/31 02:23:51.4	92.560	-0.100	-0.790	0.750
2020/01/31 02:23:51.5	92.560	-0.050	-0.810	0.760
2020/01/31 02:23:51.6	92.560	-0.010	-0.810	0.770
2020/01/31 02:23:51.7	92.560	0.030	-0.820	0.780
2020/01/31 02:23:51.8	92.560	0.070	-0.820	0.790
2020/01/31 02:23:51.9	92.560	0.110	-0.810	0.800
2020/01/31 02:23:52.0	92.550	0.150	-0.800	0.810
2020/01/31 02:23:52.1	92.540	0.190	-0.780	0.830
2020/01/31 02:23:52.2	92.530	0.220	-0.760	0.850
2020/01/31 02:23:52.3	92.520	0.260	-0.730	0.860
2020/01/31 02:23:52.4	92.510	0.290	-0.710	0.880
2020/01/31 02:23:52.5	92.490	0.320	-0.680	0.890
2020/01/31 02:23:52.6	92.470	0.350	-0.640	0.910
2020/01/31 02:23:52.7	92.450	0.370	-0.610	0.930
2020/01/31 02:23:52.8	92.430	0.400	-0.570	0.950
2020/01/31 02:23:52.9	92.400	0.420	-0.530	0.980
2020/01/31 02:23:53.0	92.370	0.440	-0.490	1.000
2020/01/31 02:23:53.1	92.330	0.460	-0.450	1.020
2020/01/31 02:23:53.2	92.300	0.470	-0.410	1.040
2020/01/31 02:23:53.3	92.260	0.490	-0.360	1.070
2020/01/31 02:23:53.4	92.230	0.500	-0.320	1.090
2020/01/31 02:23:53.5	92.190	0.510	-0.280	1.100
2020/01/31 02:23:53.6	92.150	0.510	-0.240	1.120
2020/01/31 02:23:53.7	92.120	0.520	-0.200	1.130
2020/01/31 02:23:53.8	92.080	0.520	-0.160	1.130
2020/01/31 02:23:53.9	92.040	0.520	-0.120	1.140
2020/01/31 02:23:54.0	92.000	0.520	-0.080	1.140
2020/01/31 02:23:54.1	91.970	0.510	-0.050	1.140
2020/01/31 02:23:54.2	91.930	0.500	-0.020	1.130
2020/01/31 02:23:54.3	91.900	0.500	0.010	1.120
2020/01/31 02:23:54.4	91.870	0.490	0.030	1.100
2020/01/31 02:23:54.5	91.840	0.480	0.050	1.070
2020/01/31 02:23:54.6	91.820	0.470	0.070	1.040
2020/01/31 02:23:54.7	91.790	0.450	0.080	1.010
2020/01/31 02:23:54.8	91.770	0.440	0.090	0.980
2020/01/31 02:23:54.9	91.760	0.420	0.090	0.940
2020/01/31 02:23:55.0	91.740	0.410	0.090	0.900
2020/01/31 02:23:55.1	91.740	0.400	0.090	0.850
2020/01/31 02:23:55.2	91.730	0.380	0.080	0.810
2020/01/31 02:23:55.3	91.720	0.370	0.070	0.770
2020/01/31 02:23:55.4	91.720	0.350	0.060	0.720
2020/01/31 02:23:55.5	91.720	0.340	0.050	0.680
2020/01/31 02:23:55.6	91.730	0.320	0.030	0.640
2020/01/31 02:23:55.7	91.730	0.310	0.010	0.600
2020/01/31 02:23:55.8	91.740	0.290	-0.010	0.560
2020/01/31 02:23:55.9	91.750	0.280	-0.030	0.530
2020/01/31 02:23:56.0	91.760	0.270	-0.050	0.490
2020/01/31 02:23:56.1	91.780	0.260	-0.070	0.470
2020/01/31 02:23:56.2	91.790	0.240	-0.100	0.430
2020/01/31 02:23:56.3	91.800	0.230	-0.120	0.410
2020/01/31 02:23:56.4	91.820	0.220	-0.140	0.380
2020/01/31 02:23:56.5	91.840	0.220	-0.160	0.360
2020/01/31 02:23:56.6	91.850	0.210	-0.180	0.330
2020/01/31 02:23:56.7	91.870	0.200	-0.200	0.310
2020/01/31 02:23:56.8	91.890	0.190	-0.220	0.290
2020/01/31 02:23:56.9	91.910	0.180	-0.230	0.280
2020/01/31 02:23:57.0	91.930	0.180	-0.250	0.270
2020/01/31 02:23:57.1	91.950	0.170	-0.260	0.250
2020/01/31 02:23:57.2	91.970	0.160	-0.270	0.240
2020/01/31 02:23:57.3	92.000	0.150	-0.270	0.240
2020/01/31 02:23:57.4	92.020	0.140	-0.280	0.240
2020/01/31 02:23:57.5	92.040	0.130	-0.280	0.240
2020/01/31 02:23:57.6	92.070	0.120	-0.280	0.250
2020/01/31 02:23:57.7	92.090	0.110	-0.280	0.260
2020/01/31 02:23:57.8	92.120	0.090	-0.270	0.280
2020/01/31 02:23:57.9	92.140	0.070	-0.260	0.300
2020/01/31 02:23:58.0	92.160	0.060	-0.250	0.320
2020/01/31 02:23:58.1	92.190	0.040	-0.240	0.360
2020/01/31 02:23:58.2	92.210	0.020	-0.230	0.390
2020/01/31 02:23:58.3	92.230	-0.010	-0.220	0.430
2020/01/31 02:23:58.4	92.250	-0.030	-0.200	0.480
2020/01/31 02:23:58.5	92.270	-0.060	-0.190	0.520
2020/01/31 02:23:58.6	92.280	-0.080	-0.170	0.570
2020/01/31 02:23:58.7	92.300	-0.110	-0.160	0.620
2020/01/31 02:23:58.8	92.320	-0.140	-0.150	0.670
2020/01/31 02:23:58.9	92.330	-0.170	-0.130	0.730
2020/01/31 02:23:59.0	92.340	-0.190	-0.120	0.780
2020/01/31 02:23:59.1	92.350	-0.220	-0.110	0.840
2020/01/31 02:23:59.2	92.360	-0.250	-0.100	0.900
2020/01/31 02:23:59.3	92.380	-0.280	-0.100	0.950
2020/01/31 02:23:59.4	92.390	-0.300	-0.090	1.010
2020/01/31 02:23:59.5	92.400	-0.330	-0.090	1.060
2020/01/31 02:23:59.6	92.400	-0.350	-0.090	1.110
2020/01/31 02:23:59.7	92.410	-0.370	-0.090	1.160
2020/01/31 02:23:59.8	92.420	-0.390	-0.100	1.210
2020/01/31 02:23:59.9	92.430	-0.410	-0.100	1.260
2020/01/31 02:24:00.0	92.430	-0.420	-0.110	1.310
2020/01/31 02:24:00.1	92.440	-0.430	-0.120	1.350
2020/01/31 02:24:00.2	92.440	-0.440	-0.130	1.400
2020/01/31 02:24:00.3	92.450	-0.450	-0.140	1.440
2020/01/31 02:24:00.4	92.450	-0.450	-0.150	1.480
2020/01/31 02:24:00.5	92.450	-0.460	-0.160	1.510
2020/01/31 02:24:00.6	92.450	-0.460	-0.170	1.550
2020/01/31 02:24:00.7	92.440	-0.450	-0.170	1.580
2020/01/31 02:24:00.8	92.430	-0.450	-0.180	1.610
2020/01/31 02:24:00.9	92.430	-0.450	-0.190	1.640
2020/01/31 02:24:01.0	92.420	-0.440	-0.190	1.670
2020/01/31 02:24:01.1	92.410	-0.430	-0.190	1.690
2020/01/31 02:24:01.2	92.400	-0.430	-0.190	1.710
2020/01/31 02:24:01.3	92.380	-0.420	-0.190	1.730
2020/01/31 02:24:01.4	92.350	-0.410	-0.190	1.750
2020/01/31 02:24:01.5	92.330	-0.400	-0.190	1.760
2020/01/31 02:24:01.6	92.300	-0.390	-0.180	1.760
2020/01/31 02:24:01.7	92.270	-0.380	-0.180	1.770
2020/01/31 02:24:01.8	92.240	-0.370	-0.170	1.760
2020/01/31 02:24:01.9	92.210	-0.360	-0.160	1.760
2020/01/31 02:24:02.0	92.180	-0.350	-0.160	1.750
2020/01/31 02:24:02.1	92.150	-0.350	-0.150	1.740
2020/01/31 02:24:02.2	92.110	-0.340	-0.150	1.720
2020/01/31 02:24:02.3	92.070	-0.330	-0.150	1.700
2020/01/31 02:24:02.4	92.040	-0.320	-0.150	1.670
2020/01/31 02:24:02.5	92.000	-0.310	-0.150	1.640
2020/01/31 02:24:02.6	91.960	-0.300	-0.150	1.610
2020/01/31 02:24:02.7	91.920	-0.280	-0.160	1.570
2020/01/31 02:24:02.8	91.880	-0.270	-0.170	1.540
2020/01/31 02:24:02.9	91.840	-0.260	-0.180	1.490
2020/01/31 02:24:03.0	91.800	-0.240	-0.200	1.450
2020/01/31 02:24:03.1	91.770	-0.220	-0.220	1.400
2020/01/31 02:24:03.2	91.730	-0.200	-0.240	1.350
2020/01/31 02:24:03.3	91.700	-0.180	-0.260	1.300
2020/01/31 02:24:03.4	91.670	-0.160	-0.290	1.250
2020/01/31 02:24:03.5	91.640	-0.140	-0.320	1.190
2020/01/31 02:24:03.6	91.610	-0.110	-0.350	1.140
2020/01/31 02:24:03.7	91.590	-0.080	-0.380	1.080
2020/01/31 02:24:03.8	91.570	-0.050	-0.410	1.020
2020/01/31 02:24:03.9	91.550	-0.020	-0.440	0.960
2020/01/31 02:24:04.0	91.530	0.020	-0.480	0.900
2020/01/31 02:24:04.1	91.520	0.050	-0.510	0.850
2020/01/31 02:24:04.2	91.510	0.090	-0.540	0.790
2020/01/31 02:24:04.3	91.500	0.130	-0.570	0.730
2020/01/31 02:24:04.4	91.490	0.170	-0.600	0.670
2020/01/31 02:24:04.5	91.490	0.210	-0.640	0.610
2020/01/31 02:24:04.6	91.480	0.250	-0.670	0.560
2020/01/31 02:24:04.7	91.490	0.290	-0.690	0.500
2020/01/31 02:24:04.8	91.490	0.330	-0.720	0.450
2020/01/31 02:24:04.9	91.490	0.370	-0.750	0.390
2020/01/31 02:24:05.0	91.500	0.410	-0.770	0.340
2020/01/31 02:24:05.1	91.510	0.450	-0.790	0.290
2020/01/31 02:24:05.2	91.530	0.490	-0.810	0.250
2020/01/31 02:24:05.3	91.540	0.520	-0.830	0.200
2020/01/31 02:24:05.4	91.550	0.560	-0.840	0.160
2020/01/31 02:24:05.5	91.570	0.590	-0.850	0.120
2020/01/31 02:24:05.6	91.580	0.620	-0.860	0.080
2020/01/31 02:24:05.7	91.600	0.650	-0.860	0.050
2020/01/31 02:24:05.8	91.620	0.670	-0.850	0.010
2020/01/31 02:24:05.9	91.630	0.690	-0.850	-0.020
2020/01/31 02:24:06.0	91.650	0.710	-0.840	-0.040
2020/01/31 02:24:06.1	91.660	0.720	-0.820	-0.060
2020/01/31 02:24:06.2	91.680	0.730	-0.800	-0.080
2020/01/31 02:24:06.3	91.700	0.730	-0.780	-0.090
2020/01/31 02:24:06.4	91.710	0.730	-0.740	-0.100
2020/01/31 02:24:06.5	91.720	0.730	-0.710	-0.100
2020/01/31 02:24:06.6	91.740	0.720	-0.660	-0.100
2020/01/31 02:24:06.7	91.750	0.710	-0.610	-0.090
2020/01/31 02:24:06.8	91.760	0.690	-0.560	-0.080
2020/01/31 02:24:06.9	91.770	0.670	-0.500	-0.060
2020/01/31 02:24:07.0	91.780	0.640	-0.430	-0.040
2020/01/31 02:24:07.1	91.790	0.610	-0.350	-0.010
2020/01/31 02:24:07.2	91.800	0.570	-0.280	0.020
2020/01/31 02:24:07.3	91.800	0.540	-0.200	0.060
2020/01/31 02:24:07.4	91.810	0.490	-0.110	0.100
2020/01/31 02:24:07.5	91.810	0.450	-0.020	0.140
2020/01/31 02:24:07.6	91.810	0.400	0.070	0.190
2020/01/31 02:24:07.7	91.810	0.350	0.160	0.240
2020/01/31 02:24:07.8	91.810	0.290	0.250	0.290
2020/01/31 02:24:07.9	91.810	0.240	0.340	0.350
2020/01/31 02:24:08.0	91.810	0.180	0.430	0.400
2020/01/31 02:24:08.1	91.800	0.120	0.520	0.460
2020/01/31 02:24:08.2	91.800	0.060	0.600	0.520
2020/01/31 02:24:08.3	91.800	0.000	0.680	0.570
2020/01/31 02:24:08.4	91.800	-0.060	0.760	0.630
2020/01/31 02:24:08.5	91.790	-0.120	0.830	0.690
2020/01/31 02:24:08.6	91.790	-0.170	0.900	0.740
2020/01/31 02:24:08.7	91.790	-0.230	0.960	0.790
2020/01/31 02:24:08.8	91.790	-0.290	1.010	0.850
2020/01/31 02:24:08.9	91.780	-0.340	1.050	0.900
2020/01/31 02:24:09.0	91.780	-0.390	1.090	0.940
2020/01/31 02:24:09.1	91.770	-0.440	1.120	0.990
2020/01/31 02:24:09.2	91.770	-0.480	1.140	1.040
2020/01/31 02:24:09.3	91.770	-0.520	1.150	1.080
2020/01/31 02:24:09.4	91.770	-0.560	1.140	1.110
2020/01/31 02:24:09.5	91.760	-0.600	1.130	1.140
2020/01/31 02:24:09.6	91.760	-0.630	1.110	1.170
2020/01/31 02:24:09.7	91.760	-0.650	1.080	1.200
2020/01/31 02:24:09.8	91.760	-0.670	1.040	1.220
2020/01/31 02:24:09.9	91.760	-0.690	0.990	1.230
2020/01/31 02:24:10.0	91.760	-0.700	0.930	1.240
2020/01/31 02:24:10.1	91.770	-0.710	0.850	1.250
2020/01/31 02:24:10.2	91.770	-0.710	0.770	1.250
2020/01/31 02:24:10.3	91.770	-0.700	0.690	1.250
2020/01/31 02:24:10.4	91.780	-0.690	0.590	1.250
2020/01/31 02:24:10.5	91.780	-0.680	0.480	1.240
2020/01/31 02:24:10.6	91.780	-0.660	0.370	1.230
2020/01/31 02:24:10.7	91.780	-0.630	0.250	1.220
2020/01/31 02:24:10.8	91.780	-0.600	0.130	1.210
2020/01/31 02:24:10.9	91.780	-0.570	0.000	1.200
2020/01/31 02:24:11.0	91.780	-0.530	-0.130	1.190
2020/01/31 02:24:11.1	91.780	-0.480	-0.270	1.180
2020/01/31 02:24:11.2	91.780	-0.430	-0.400	1.170
2020/01/31 02:24:11.3	91.780	-0.380	-0.540	1.160
2020/01/31 02:24:11.4	91.780	-0.330	-0.670	1.150
2020/01/31 02:24:11.5	91.770	-0.270	-0.810	1.140
2020/01/31 02:24:11.6	91.770	-0.210	-0.930	1.140
2020/01/31 02:24:11.7	91.770	-0.150	-1.060	1.140
2020/01/31 02:24:11.8	91.770	-0.090	-1.180	1.140
2020/01/31 02:24:11.9	91.760	-0.030	-1.290	1.140
2020/01/31 02:24:12.0	91.760	0.030	-1.390	1.140
2020/01/31 02:24:12.1	91.760	0.090	-1.480	1.150
2020/01/31 02:24:12.2	91.760	0.150	-1.570	1.160
2020/01/31 02:24:12.3	91.760	0.200	-1.640	1.160
2020/01/31 02:24:12.4	91.760	0.250	-1.700	1.170
2020/01/31 02:24:12.5	91.750	0.300	-1.750	1.180
2020/01/31 02:24:12.6	91.750	0.350	-1.780	1.200
2020/01/31 02:24:12.7	91.740	0.390	-1.810	1.210
2020/01/31 02:24:12.8	91.740	0.430	-1.820	1.220
2020/01/31 02:24:12.9	91.730	0.460	-1.820	1.240
2020/01/31 02:24:13.0	91.730	0.480	-1.800	1.250
2020/01/31 02:24:13.1	91.720	0.510	-1.770	1.260
2020/01/31 02:24:13.2	91.720	0.520	-1.730	1.280
2020/01/31 02:24:13.3	91.710	0.530	-1.680	1.290
2020/01/31 02:24:13.4	91.710	0.530	-1.620	1.300
2020/01/31 02:24:13.5	91.700	0.530	-1.540	1.310
2020/01/31 02:24:13.6	91.700	0.520	-1.460	1.320
2020/01/31 02:24:13.7	91.690	0.510	-1.370	1.330
2020/01/31 02:24:13.8	91.680	0.490	-1.270	1.340
2020/01/31 02:24:13.9	91.670	0.460	-1.160	1.350
2020/01/31 02:24:14.0	91.660	0.430	-1.040	1.370
2020/01/31 02:24:14.1	91.650	0.400	-0.920	1.380
2020/01/31 02:24:14.2	91.640	0.360	-0.790	1.390
2020/01/31 02:24:14.3	91.630	0.310	-0.670	1.400
2020/01/31 02:24:14.4	91.620	0.270	-0.540	1.420
2020/01/31 02:24:14.5	91.610	0.220	-0.410	1.430
2020/01/31 02:24:14.6	91.600	0.170	-0.280	1.440
2020/01/31 02:24:14.7	91.580	0.110	-0.150	1.460
2020/01/31 02:24:14.8	91.570	0.050	-0.020	1.470
2020/01/31 02:24:14.9	91.560	-0.000	0.110	1.490
2020/01/31 02:24:15.0	91.540	-0.060	0.230	1.500
2020/01/31 02:24:15.1	91.530	-0.120	0.350	1.520
2020/01/31 02:24:15.2	91.520	-0.180	0.460	1.530
2020/01/31 02:24:15.3	91.500	-0.230	0.570	1.540
2020/01/31 02:24:15.4	91.490	-0.290	0.660	1.550
2020/01/31 02:24:15.5	91.470	-0.340	0.750	1.560
2020/01/31 02:24:15.6	91.460	-0.390	0.830	1.570
2020/01/31 02:24:15.7	91.440	-0.440	0.900	1.570
2020/01/31 02:24:15.8	91.430	-0.490	0.960	1.570
2020/01/31 02:24:15.9	91.410	-0.530	1.000	1.570
2020/01/31 02:24:16.0	91.400	-0.560	1.040	1.570
2020/01/31 02:24:16.1	91.380	-0.590	1.060	1.560
2020/01/31 02:24:16.2	91.360	-0.620	1.070	1.550
2020/01/31 02:24:16.3	91.350	-0.640	1.070	1.530
2020/01/31 02:24:16.4	91.340	-0.660	1.050	1.510
2020/01/31 02:24:16.5	91.320	-0.660	1.020	1.490
2020/01/31 02:24:16.6	91.310	-0.670	0.980	1.460
2020/01/31 02:24:16.7	91.300	-0.660	0.930	1.420
2020/01/31 02:24:16.8	91.300	-0.660	0.870	1.380
2020/01/31 02:24:16.9	91.290	-0.640	0.800	1.330
2020/01/31 02:24:17.0	91.290	-0.620	0.710	1.280
2020/01/31 02:24:17.1	91.290	-0.590	0.620	1.230
2020/01/31 02:24:17.2	91.290	-0.560	0.520	1.170
2020/01/31 02:24:17.3	91.300	-0.520	0.410	1.110
2020/01/31 02:24:17.4	91.300	-0.480	0.290	1.050
2020/01/31 02:24:17.5	91.310	-0.430	0.170	0.980
2020/01/31 02:24:17.6	91.320	-0.380	0.050	0.910
2020/01/31 02:24:17.7	91.330	-0.320	-0.080	0.850
2020/01/31 02:24:17.8	91.340	-0.260	-0.200	0.780
2020/01/31 02:24:17.9	91.360	-0.200	-0.330	0.720
2020/01/31 02:24:18.0	91.370	-0.140	-0.450	0.660
2020/01/31 02:24:18.1	91.380	-0.070	-0.570	0.610
2020/01/31 02:24:18.2	91.400	-0.000	-0.680	0.560
2020/01/31 02:24:18.3	91.410	0.070	-0.790	0.510
2020/01/31 02:24:18.4	91.430	0.140	-0.890	0.470
2020/01/31 02:24:18.5	91.440	0.200	-0.980	0.430
2020/01/31 02:24:18.6	91.460	0.270	-1.050	0.400
2020/01/31 02:24:18.7	91.470	0.340	-1.120	0.380
2020/01/31 02:24:18.8	91.490	0.400	-1.170	0.350
2020/01/31 02:24:18.9	91.500	0.460	-1.220	0.340
2020/01/31 02:24:19.0	91.510	0.510	-1.250	0.320
2020/01/31 02:24:19.1	91.510	0.560	-1.270	0.320
2020/01/31 02:24:19.2	91.520	0.610	-1.270	0.310
2020/01/31 02:24:19.3	91.530	0.650	-1.260	0.310
2020/01/31 02:24:19.4	91.540	0.690	-1.240	0.320
2020/01/31 02:24:19.5	91.550	0.720	-1.210	0.320
2020/01/31 02:24:19.6	91.560	0.750	-1.170	0.320
2020/01/31 02:24:19.7	91.560	0.770	-1.120	0.330
2020/01/31 02:24:19.8	91.570	0.780	-1.060	0.340
2020/01/31 02:24:19.9	91.580	0.790	-0.990	0.340
2020/01/31 02:24:20.0	91.590	0.790	-0.920	0.350
2020/01/31 02:24:20.1	91.610	0.790	-0.830	0.370
2020/01/31 02:24:20.2	91.620	0.780	-0.740	0.380
2020/01/31 02:24:20.3	91.630	0.760	-0.650	0.390
2020/01/31 02:24:20.4	91.650	0.740	-0.560	0.390
2020/01/31 02:24:20.5	91.660	0.710	-0.460	0.400
2020/01/31 02:24:20.6	91.670	0.680	-0.370	0.410
2020/01/31 02:24:20.7	91.690	0.650	-0.270	0.420
2020/01/31 02:24:20.8	91.700	0.610	-0.170	0.430
2020/01/31 02:24:20.9	91.720	0.560	-0.080	0.440
2020/01/31 02:24:21.0	91.730	0.510	0.020	0.450
2020/01/31 02:24:21.1	91.740	0.460	0.110	0.460
2020/01/31 02:24:21.2	91.750	0.410	0.200	0.480
2020/01/31 02:24:21.3	91.760	0.350	0.280	0.500
2020/01/31 02:24:21.4	91.780	0.290	0.360	0.520
2020/01/31 02:24:21.5	91.790	0.230	0.430	0.540
2020/01/31 02:24:21.6	91.800	0.170	0.500	0.570
2020/01/31 02:24:21.7	91.810	0.120	0.560	0.590
2020/01/31 02:24:21.8	91.810	0.060	0.610	0.620
2020/01/31 02:24:21.9	91.820	-0.000	0.660	0.650
2020/01/31 02:24:22.0	91.830	-0.060	0.700	0.680
2020/01/31 02:24:22.1	91.830	-0.120	0.740	0.720
2020/01/31 02:24:22.2	91.830	-0.170	0.760	0.750
2020/01/31 02:24:22.3	91.840	-0.220	0.780	0.780
2020/01/31 02:24:22.4	91.840	-0.280	0.800	0.810
2020/01/31 02:24:22.5	91.840	-0.320	0.810	0.840
2020/01/31 02:24:22.6	91.840	-0.370	0.810	0.860
2020/01/31 02:24:22.7	91.840	-0.410	0.800	0.890
2020/01/31 02:24:22.8	91.840	-0.450	0.790	0.920
2020/01/31 02:24:22.9	91.840	-0.480	0.760	0.940
2020/01/31 02:24:23.0	91.840	-0.510	0.740	0.970
2020/01/31 02:24:23.1	91.840	-0.530	0.700	0.990
2020/01/31 02:24:23.2	91.840	-0.560	0.660	1.020
2020/01/31 02:24:23.3	91.830	-0.570	0.620	1.040
2020/01/31 02:24:23.4	91.830	-0.580	0.560	1.060
2020/01/31 02:24:23.5	91.830	-0.590	0.500	1.070
2020/01/31 02:24:23.6	91.820	-0.590	0.440	1.090
2020/01/31 02:24:23.7	91.820	-0.590	0.360	1.110
2020/01/31 02:24:23.8	91.820	-0.580	0.290	1.120
2020/01/31 02:24:23.9	91.810	-0.570	0.200	1.130
2020/01/31 02:24:24.0	91.810	-0.550	0.110	1.140
2020/01/31 02:24:24.1	91.810	-0.530	0.020	1.150
2020/01/31 02:24:24.2	91.810	-0.500	-0.080	1.150
2020/01/31 02:24:24.3	91.810	-0.470	-0.180	1.160
2020/01/31 02:24:24.4	91.820	-0.440	-0.280	1.160
2020/01/31 02:24:24.5	91.820	-0.400	-0.380	1.150
2020/01/31 02:24:24.6	91.830	-0.360	-0.480	1.150
2020/01/31 02:24:24.7	91.830	-0.310	-0.590	1.140
2020/01/31 02:24:24.8	91.840	-0.270	-0.690	1.140
2020/01/31 02:24:24.9	91.840	-0.220	-0.790	1.130
2020/01/31 02:24:25.0	91.850	-0.170	-0.890	1.120
2020/01/31 02:24:25.1	91.860	-0.120	-0.980	1.120
2020/01/31 02:24:25.2	91.870	-0.070	-1.070	1.110
2020/01/31 02:24:25.3	91.870	-0.020	-1.150	1.110
2020/01/31 02:24:25.4	91.870	0.030	-1.230	1.100
2020/01/31 02:24:25.5	91.880	0.070	-1.290	1.090
2020/01/31 02:24:25.6	91.880	0.120	-1.350	1.080
2020/01/31 02:24:25.7	91.880	0.160	-1.400	1.070
2020/01/31 02:24:25.8	91.870	0.200	-1.440	1.060
2020/01/31 02:24:25.9	91.870	0.240	-1.460	1.050
2020/01/31 02:24:26.0	91.870	0.270	-1.480	1.040
2020/01/31 02:24:26.1	91.870	0.300	-1.490	1.030
2020/01/31 02:24:26.2	91.860	0.330	-1.480	1.020
2020/01/31 02:24:26.3	91.850	0.350	-1.460	1.010
2020/01/31 02:24:26.4	91.840	0.370	-1.430	1.000
2020/01/31 02:24:26.5	91.830	0.380	-1.390	0.980
2020/01/31 02:24:26.6	91.820	0.380	-1.330	0.970
2020/01/31 02:24:26.7	91.810	0.380	-1.270	0.960
2020/01/31 02:24:26.8	91.800	0.380	-1.200	0.950
2020/01/31 02:24:26.9	91.780	0.370	-1.110	0.930
2020/01/31 02:24:27.0	91.770	0.360	-1.020	0.920
2020/01/31 02:24:27.1	91.750	0.340	-0.920	0.910
2020/01/31 02:24:27.2	91.740	0.320	-0.820	0.900
2020/01/31 02:24:27.3	91.720	0.290	-0.700	0.900
2020/01/31 02:24:27.4	91.700	0.260	-0.590	0.890
2020/01/31 02:24:27.5	91.680	0.230	-0.470	0.880
2020/01/31 02:24:27.6	91.660	0.200	-0.350	0.880
2020/01/31 02:24:27.7	91.640	0.160	-0.230	0.870
2020/01/31 02:24:27.8	91.620	0.120	-0.110	0.870
2020/01/31 02:24:27.9	91.600	0.080	0.000	0.870
2020/01/31 02:24:28.0	91.570	0.030	0.120	0.870
2020/01/31 02:24:28.1	91.560	-0.010	0.230	0.870
2020/01/31 02:24:28.2	91.540	-0.050	0.330	0.870
2020/01/31 02:24:28.3	91.510	-0.100	0.430	0.870
2020/01/31 02:24:28.4	91.490	-0.140	0.520	0.870
2020/01/31 02:24:28.5	91.470	-0.180	0.600	0.870
2020/01/31 02:24:28.6	91.440	-0.220	0.660	0.860
2020/01/31 02:24:28.7	91.420	-0.250	0.720	0.860
2020/01/31 02:24:28.8	91.400	-0.280	0.770	0.850
2020/01/31 02:24:28.9	91.380	-0.310	0.800	0.840
2020/01/31 02:24:29.0	91.360	-0.340	0.820	0.820
2020/01/31 02:24:29.1	91.350	-0.360	0.830	0.810
2020/01/31 02:24:29.2	91.340	-0.380	0.820	0.790
2020/01/31 02:24:29.3	91.330	-0.390	0.810	0.760
2020/01/31 02:24:29.4	91.330	-0.400	0.780	0.730
2020/01/31 02:24:29.5	91.320	-0.400	0.740	0.700
2020/01/31 02:24:29.6	91.320	-0.400	0.690	0.670
2020/01/31 02:24:29.7	91.330	-0.390	0.630	0.630
2020/01/31 02:24:29.8	91.340	-0.380	0.570	0.600
2020/01/31 02:24:29.9	91.350	-0.370	0.490	0.560
2020/01/31 02:24:30.0	91.360	-0.350	0.410	0.520
2020/01/31 02:24:30.1	91.380	-0.330	0.320	0.470
2020/01/31 02:24:30.2	91.400	-0.310	0.230	0.440
2020/01/31 02:24:30.3	91.420	-0.280	0.140	0.400
2020/01/31 02:24:30.4	91.450	-0.250	0.040	0.360
2020/01/31 02:24:30.5	91.470	-0.220	-0.060	0.330
2020/01/31 02:24:30.6	91.500	-0.190	-0.150	0.300
2020/01/31 02:24:30.7	91.530	-0.150	-0.250	0.270
2020/01/31 02:24:30.8	91.560	-0.120	-0.340	0.250
2020/01/31 02:24:30.9	91.590	-0.080	-0.430	0.230
2020/01/31 02:24:31.0	91.620	-0.050	-0.510	0.220
2020/01/31 02:24:31.1	91.640	-0.010	-0.600	0.210
2020/01/31 02:24:31.2	91.670	0.020	-0.670	0.200
2020/01/31 02:24:31.3	91.700	0.050	-0.730	0.200
2020/01/31 02:24:31.4	91.720	0.080	-0.780	0.200
2020/01/31 02:24:31.5	91.750	0.110	-0.830	0.200
2020/01/31 02:24:31.6	91.770	0.140	-0.860	0.210
2020/01/31 02:24:31.7	91.790	0.160	-0.880	0.220
2020/01/31 02:24:31.8	91.810	0.180	-0.900	0.230
2020/01/31 02:24:31.9	91.830	0.200	-0.900	0.250
2020/01/31 02:24:32.0	91.850	0.210	-0.890	0.270
2020/01/31 02:24:32.1	91.860	0.220	-0.870	0.290
2020/01/31 02:24:32.2	91.870	0.230	-0.840	0.320
2020/01/31 02:24:32.3	91.870	0.230	-0.800	0.350
2020/01/31 02:24:32.4	91.880	0.230	-0.750	0.380
2020/01/31 02:24:32.5	91.880	0.230	-0.690	0.410
2020/01/31 02:24:32.6	91.880	0.220	-0.620	0.450
2020/01/31 02:24:32.7	91.880	0.210	-0.550	0.480
2020/01/31 02:24:32.8	91.870	0.200	-0.470	0.520
2020/01/31 02:24:32.9	91.860	0.190	-0.390	0.550
2020/01/31 02:24:33.0	91.850	0.170	-0.300	0.590
2020/01/31 02:24:33.1	91.840	0.150	-0.210	0.630
2020/01/31 02:24:33.2	91.820	0.130	-0.120	0.670
2020/01/31 02:24:33.3	91.810	0.110	-0.030	0.710
2020/01/31 02:24:33.4	91.790	0.080	0.060	0.750
2020/01/31 02:24:33.5	91.770	0.060	0.140	0.800
2020/01/31 02:24:33.6	91.740	0.030	0.220	0.840
2020/01/31 02:24:33.7	91.720	0.010	0.290	0.880
2020/01/31 02:24:33.8	91.690	-0.020	0.350	0.920
2020/01/31 02:24:33.9	91.670	-0.040	0.410	0.960
2020/01/31 02:24:34.0	91.640	-0.060	0.460	0.990
2020/01/31 02:24:34.1	91.610	-0.080	0.500	1.030
2020/01/31 02:24:34.2	91.580	-0.100	0.530	1.060
2020/01/31 02:24:34.3	91.550	-0.110	0.550	1.090
2020/01/31 02:24:34.4	91.530	-0.130	0.550	1.120
2020/01/31 02:24:34.5	91.500	-0.140	0.550	1.140
2020/01/31 02:24:34.6	91.480	-0.140	0.530	1.160
2020/01/31 02:24:34.7	91.450	-0.150	0.510	1.180
2020/01/31 02:24:34.8	91.430	-0.150	0.470	1.190
2020/01/31 02:24:34.9	91.410	-0.140	0.420	1.200
2020/01/31 02:24:35.0	91.390	-0.140	0.360	1.210
2020/01/31 02:24:35.1	91.380	-0.120	0.280	1.210
2020/01/31 02:24:35.2	91.370	-0.110	0.200	1.200
2020/01/31 02:24:35.3	91.350	-0.090	0.120	1.200
2020/01/31 02:24:35.4	91.340	-0.070	0.030	1.180
2020/01/31 02:24:35.5	91.340	-0.040	-0.070	1.170
2020/01/31 02:24:35.6	91.330	-0.010	-0.170	1.150
2020/01/31 02:24:35.7	91.330	0.020	-0.270	1.120
2020/01/31 02:24:35.8	91.320	0.050	-0.380	1.100
2020/01/31 02:24:35.9	91.330	0.090	-0.480	1.070
2020/01/31 02:24:36.0	91.330	0.120	-0.580	1.040
2020/01/31 02:24:36.1	91.330	0.160	-0.680	1.000
2020/01/31 02:24:36.2	91.340	0.200	-0.770	0.970
2020/01/31 02:24:36.3	91.350	0.240	-0.860	0.940
2020/01/31 02:24:36.4	91.360	0.270	-0.940	0.910
2020/01/31 02:24:36.5	91.370	0.310	-1.010	0.890
2020/01/31 02:24:36.6	91.380	0.350	-1.070	0.860
2020/01/31 02:24:36.7	91.390	0.380	-1.130	0.840
2020/01/31 02:24:36.8	91.410	0.410	-1.170	0.820
2020/01/31 02:24:36.9	91.420	0.440	-1.200	0.800
2020/01/31 02:24:37.0	91.430	0.460	-1.220	0.790
2020/01/31 02:24:37.1	91.450	0.480	-1.220	0.780
2020/01/31 02:24:37.2	91.460	0.500	-1.210	0.770
2020/01/31 02:24:37.3	91.470	0.510	-1.200	0.770
2020/01/31 02:24:37.4	91.480	0.510	-1.170	0.770
2020/01/31 02:24:37.5	91.490	0.520	-1.130	0.770
2020/01/31 02:24:37.6	91.500	0.510	-1.080	0.770
2020/01/31 02:24:37.7	91.500	0.500	-1.020	0.780
2020/01/31 02:24:37.8	91.500	0.490	-0.950	0.790
2020/01/31 02:24:37.9	91.500	0.470	-0.870	0.800
2020/01/31 02:24:38.0	91.500	0.450	-0.790	0.820
2020/01/31 02:24:38.1	91.490	0.420	-0.700	0.850
2020/01/31 02:24:38.2	91.490	0.390	-0.600	0.870
2020/01/31 02:24:38.3	91.480	0.360	-0.500	0.890
2020/01/31 02:24:38.4	91.470	0.320	-0.400	0.910
2020/01/31 02:24:38.5	91.460	0.280	-0.300	0.930
2020/01/31 02:24:38.6	91.450	0.230	-0.190	0.960
2020/01/31 02:24:38.7	91.440	0.190	-0.090	0.980
2020/01/31 02:24:38.8	91.430	0.140	0.010	1.000
2020/01/31 02:24:38.9	91.410	0.090	0.100	1.020
2020/01/31 02:24:39.0	91.400	0.040	0.190	1.040
2020/01/31 02:24:39.1	91.390	-0.010	0.280	1.060
2020/01/31 02:24:39.2	91.380	-0.050	0.360	1.070
2020/01/31 02:24:39.3	91.370	-0.100	0.430	1.080
2020/01/31 02:24:39.4	91.370	-0.150	0.490	1.090
2020/01/31 02:24:39.5	91.360	-0.190	0.540	1.090
2020/01/31 02:24:39.6	91.360	-0.230	0.580	1.100
2020/01/31 02:24:39.7	91.360	-0.260	0.610	1.100
2020/01/31 02:24:39.8	91.370	-0.290	0.630	1.090
2020/01/31 02:24:39.9	91.380	-0.320	0.630	1.090
2020/01/31 02:24:40.0	91.380	-0.350	0.630	1.080
2020/01/31 02:24:40.1	91.400	-0.370	0.620	1.080
2020/01/31 02:24:40.2	91.410	-0.380	0.600	1.070
2020/01/31 02:24:40.3	91.430	-0.390	0.570	1.060
2020/01/31 02:24:40.4	91.440	-0.400	0.530	1.050
2020/01/31 02:24:40.5	91.450	-0.400	0.480	1.040
2020/01/31 02:24:40.6	91.470	-0.400	0.430	1.030
2020/01/31 02:24:40.7	91.480	-0.390	0.370	1.020
2020/01/31 02:24:40.8	91.490	-0.380	0.310	1.010
2020/01/31 02:24:40.9	91.510	-0.370	0.240	1.000
2020/01/31 02:24:41.0	91.520	-0.360	0.180	0.980
2020/01/31 02:24:41.1	91.530	-0.340	0.100	0.970
2020/01/31 02:24:41.2	91.540	-0.320	0.040	0.960
2020/01/31 02:24:41.3	91.550	-0.300	-0.030	0.940
2020/01/31 02:24:41.4	91.560	-0.280	-0.100	0.930
2020/01/31 02:24:41.5	91.570	-0.260	-0.170	0.910
2020/01/31 02:24:41.6	91.570	-0.240	-0.230	0.900
2020/01/31 02:24:41.7	91.580	-0.210	-0.290	0.880
2020/01/31 02:24:41.8	91.580	-0.190	-0.340	0.860
2020/01/31 02:24:41.9	91.590	-0.170	-0.390	0.850
2020/01/31 02:24:42.0	91.590	-0.150	-0.440	0.830
2020/01/31 02:24:42.1	91.590	-0.120	-0.480	0.820
2020/01/31 02:24:42.2	91.580	-0.110	-0.520	0.800
2020/01/31 02:24:42.3	91.580	-0.090	-0.540	0.780
2020/01/31 02:24:42.4	91.580	-0.070	-0.570	0.770
2020/01/31 02:24:42.5	91.570	-0.060	-0.580	0.750
2020/01/31 02:24:42.6	91.560	-0.040	-0.590	0.740
2020/01/31 02:24:42.7	91.560	-0.030	-0.600	0.720
2020/01/31 02:24:42.8	91.550	-0.030	-0.590	0.710
2020/01/31 02:24:42.9	91.540	-0.020	-0.580	0.700
2020/01/31 02:24:43.0	91.520	-0.020	-0.570	0.700
2020/01/31 02:24:43.1	91.510	-0.020	-0.550	0.690
2020/01/31 02:24:43.2	91.500	-0.020	-0.520	0.680
2020/01/31 02:24:43.3	91.480	-0.020	-0.490	0.680
2020/01/31 02:24:43.4	91.470	-0.030	-0.460	0.680
2020/01/31 02:24:43.5	91.450	-0.040	-0.420	0.690
2020/01/31 02:24:43.6	91.430	-0.050	-0.380	0.690
2020/01/31 02:24:43.7	91.420	-0.060	-0.340	0.700
2020/01/31 02:24:43.8	91.400	-0.080	-0.290	0.700
2020/01/31 02:24:43.9	91.380	-0.100	-0.250	0.710
2020/01/31 02:24:44.0	91.370	-0.120	-0.200	0.720
2020/01/31 02:24:44.1	91.360	-0.130	-0.160	0.740
2020/01/31 02:24:44.2	91.340	-0.150	-0.110	0.740
2020/01/31 02:24:44.3	91.330	-0.170	-0.070	0.750
2020/01/31 02:24:44.4	91.320	-0.200	-0.030	0.760
2020/01/31 02:24:44.5	91.320	-0.220	-0.000	0.760
2020/01/31 02:24:44.6	91.310	-0.230	0.030	0.770
2020/01/31 02:24:44.7	91.310	-0.250	0.050	0.770
2020/01/31 02:24:44.8	91.310	-0.270	0.070	0.770
2020/01/31 02:24:44.9	91.310	-0.290	0.090	0.760
2020/01/31 02:24:45.0	91.310	-0.300	0.100	0.760
2020/01/31 02:24:45.1	91.330	-0.310	0.100	0.740
2020/01/31 02:24:45.2	91.340	-0.320	0.100	0.730
2020/01/31 02:24:45.3	91.340	-0.320	0.090	0.720
2020/01/31 02:24:45.4	91.350	-0.320	0.070	0.710
2020/01/31 02:24:45.5	91.360	-0.320	0.050	0.690
2020/01/31 02:24:45.6	91.380	-0.320	0.020	0.680
2020/01/31 02:24:45.7	91.390	-0.310	-0.010	0.660
2020/01/31 02:24:45.8	91.410	-0.300	-0.050	0.640
2020/01/31 02:24:45.9	91.420	-0.280	-0.090	0.620
2020/01/31 02:24:46.0	91.440	-0.260	-0.140	0.610
2020/01/31 02:24:46.1	91.450	-0.230	-0.190	0.600
2020/01/31 02:24:46.2	91.470	-0.210	-0.240	0.580
2020/01/31 02:24:46.3	91.490	-0.180	-0.290	0.560
2020/01/31 02:24:46.4	91.510	-0.150	-0.350	0.550
2020/01/31 02:24:46.5	91.530	-0.110	-0.400	0.530
2020/01/31 02:24:46.6	91.550	-0.070	-0.450	0.520
2020/01/31 02:24:46.7	91.580	-0.040	-0.500	0.510
2020/01/31 02:24:46.8	91.590	0.000	-0.550	0.500
2020/01/31 02:24:46.9	91.610	0.040	-0.590	0.490
2020/01/31 02:24:47.0	91.630	0.080	-0.630	0.490
2020/01/31 02:24:47.1	91.650	0.120	-0.670	0.480
2020/01/31 02:24:47.2	91.660	0.160	-0.700	0.480
2020/01/31 02:24:47.3	91.670	0.190	-0.720	0.480
2020/01/31 02:24:47.4	91.680	0.220	-0.740	0.480
2020/01/31 02:24:47.5	91.690	0.260	-0.750	0.490
2020/01/31 02:24:47.6	91.700	0.280	-0.750	0.490
2020/01/31 02:24:47.7	91.700	0.310	-0.750	0.490
2020/01/31 02:24:47.8	91.700	0.330	-0.740	0.500
2020/01/31 02:24:47.9	91.710	0.350	-0.730	0.510
2020/01/31 02:24:48.0	91.710	0.360	-0.710	0.510
2020/01/31 02:24:48.1	91.710	0.370	-0.670	0.520
2020/01/31 02:24:48.2	91.710	0.380	-0.640	0.530
2020/01/31 02:24:48.3	91.710	0.380	-0.610	0.540
2020/01/31 02:24:48.4	91.700	0.380	-0.560	0.550
2020/01/31 02:24:48.5	91.700	0.370	-0.520	0.570
2020/01/31 02:24:48.6	91.690	0.360	-0.470	0.580
2020/01/31 02:24:48.7	91.680	0.350	-0.420	0.600
2020/01/31 02:24:48.8	91.670	0.340	-0.360	0.610
2020/01/31 02:24:48.9	91.660	0.320	-0.310	0.630
2020/01/31 02:24:49.0	91.650	0.290	-0.250	0.650
2020/01/31 02:24:49.1	91.630	0.270	-0.200	0.670
2020/01/31 02:24:49.2	91.620	0.240	-0.140	0.690
2020/01/31 02:24:49.3	91.610	0.220	-0.090	0.710
2020/01/31 02:24:49.4	91.590	0.190	-0.030	0.730
2020/01/31 02:24:49.5	91.580	0.160	0.020	0.750
2020/01/31 02:24:49.6	91.570	0.130	0.070	0.760
2020/01/31 02:24:49.7	91.550	0.100	0.120	0.770
2020/01/31 02:24:49.8	91.540	0.070	0.170	0.780
2020/01/31 02:24:49.9	91.520	0.040	0.210	0.790
2020/01/31 02:24:50.0	91.510	0.010	0.250	0.800
2020/01/31 02:24:50.1	91.500	-0.020	0.290	0.800
2020/01/31 02:24:50.2	91.490	-0.040	0.320	0.800
2020/01/31 02:24:50.3	91.480	-0.060	0.340	0.800
2020/01/31 02:24:50.4	91.470	-0.080	0.360	0.790
2020/01/31 02:24:50.5	91.460	-0.100	0.380	0.780
2020/01/31 02:24:50.6	91.450	-0.110	0.380	0.770
2020/01/31 02:24:50.7	91.450	-0.120	0.380	0.750
2020/01/31 02:24:50.8	91.440	-0.120	0.380	0.740
2020/01/31 02:24:50.9	91.440	-0.120	0.360	0.720
2020/01/31 02:24:51.0	91.440	-0.120	0.340	0.690
2020/01/31 02:24:51.1	91.440	-0.110	0.310	0.670
2020/01/31 02:24:51.2	91.450	-0.100	0.280	0.650
2020/01/31 02:24:51.3	91.450	-0.080	0.240	0.620
2020/01/31 02:24:51.4	91.460	-0.060	0.190	0.590
2020/01/31 02:24:51.5	91.470	-0.040	0.140	0.570
2020/01/31 02:24:51.6	91.480	-0.010	0.080	0.540
2020/01/31 02:24:51.7	91.490	0.020	0.020	0.520
2020/01/31 02:24:51.8	91.500	0.050	-0.050	0.500
2020/01/31 02:24:51.9	91.510	0.090	-0.120	0.480
2020/01/31 02:24:52.0	91.530	0.130	-0.190	0.460
2020/01/31 02:24:52.1	91.530	0.160	-0.260	0.440
2020/01/31 02:24:52.2	91.540	0.200	-0.330	0.430
2020/01/31 02:24:52.3	91.560	0.240	-0.400	0.420
2020/01/31 02:24:52.4	91.570	0.280	-0.470	0.420
2020/01/31 02:24:52.5	91.580	0.320	-0.540	0.410
2020/01/31 02:24:52.6	91.600	0.350	-0.600	0.410
2020/01/31 02:24:52.7	91.610	0.390	-0.660	0.410
2020/01/31 02:24:52.8	91.620	0.420	-0.710	0.420
2020/01/31 02:24:52.9	91.630	0.450	-0.760	0.420
2020/01/31 02:24:53.0	91.640	0.470	-0.800	0.430
2020/01/31 02:24:53.1	91.660	0.490	-0.830	0.440
2020/01/31 02:24:53.2	91.670	0.510	-0.850	0.450
2020/01/31 02:24:53.3	91.670	0.520	-0.870	0.460
2020/01/31 02:24:53.4	91.680	0.530	-0.880	0.480
2020/01/31 02:24:53.5	91.680	0.530	-0.880	0.490
2020/01/31 02:24:53.6	91.680	0.520	-0.870	0.510
2020/01/31 02:24:53.7	91.680	0.520	-0.860	0.530
2020/01/31 02:24:53.8	91.680	0.500	-0.840	0.550
2020/01/31 02:24:53.9	91.680	0.490	-0.800	0.570
2020/01/31 02:24:54.0	91.680	0.460	-0.770	0.590
2020/01/31 02:24:54.1	91.670	0.440	-0.720	0.620
2020/01/31 02:24:54.2	91.660	0.400	-0.670	0.650
2020/01/31 02:24:54.3	91.650	0.370	-0.610	0.680
2020/01/31 02:24:54.4	91.640	0.330	-0.550	0.710
2020/01/31 02:24:54.5	91.630	0.280	-0.480	0.750
2020/01/31 02:24:54.6	91.610	0.240	-0.410	0.780
2020/01/31 02:24:54.7	91.600	0.190	-0.340	0.820
2020/01/31 02:24:54.8	91.580	0.130	-0.260	0.860
2020/01/31 02:24:54.9	91.560	0.080	-0.180	0.900
2020/01/31 02:24:55.0	91.540	0.020	-0.110	0.940
2020/01/31 02:24:55.1	91.520	-0.030	-0.030	0.980
2020/01/31 02:24:55.2	91.490	-0.090	0.050	1.030
2020/01/31 02:24:55.3	91.470	-0.150	0.120	1.070
2020/01/31 02:24:55.4	91.440	-0.210	0.190	1.100
2020/01/31 02:24:55.5	91.420	-0.270	0.250	1.140
2020/01/31 02:24:55.6	91.390	-0.320	0.310	1.180
2020/01/31 02:24:55.7	91.370	-0.370	0.360	1.210
2020/01/31 02:24:55.8	91.350	-0.430	0.400	1.240
2020/01/31 02:24:55.9	91.330	-0.470	0.440	1.260
2020/01/31 02:24:56.0	91.310	-0.520	0.470	1.280
2020/01/31 02:24:56.1	91.280	-0.560	0.490	1.300
2020/01/31 02:24:56.2	91.270	-0.590	0.500	1.310
2020/01/31 02:24:56.3	91.260	-0.620	0.500	1.320
2020/01/31 02:24:56.4	91.250	-0.650	0.490	1.320
2020/01/31 02:24:56.5	91.240	-0.670	0.460	1.320
2020/01/31 02:24:56.6	91.240	-0.680	0.430	1.320
2020/01/31 02:24:56.7	91.230	-0.680	0.390	1.310
2020/01/31 02:24:56.8	91.230	-0.680	0.340	1.300
2020/01/31 02:24:56.9	91.240	-0.680	0.280	1.280
2020/01/31 02:24:57.0	91.240	-0.660	0.210	1.270
2020/01/31 02:24:57.1	91.250	-0.650	0.130	1.250
2020/01/31 02:24:57.2	91.260	-0.620	0.050	1.230
2020/01/31 02:24:57.3	91.270	-0.590	-0.040	1.200
2020/01/31 02:24:57.4	91.280	-0.560	-0.120	1.180
2020/01/31 02:24:57.5	91.290	-0.520	-0.220	1.160
2020/01/31 02:24:57.6	91.310	-0.480	-0.310	1.130
2020/01/31 02:24:57.7	91.320	-0.430	-0.400	1.110
2020/01/31 02:24:57.8	91.340	-0.390	-0.490	1.080
2020/01/31 02:24:57.9	91.350	-0.340	-0.570	1.060
2020/01/31 02:24:58.0	91.370	-0.290	-0.650	1.040
2020/01/31 02:24:58.1	91.390	-0.240	-0.730	1.020
2020/01/31 02:24:58.2	91.410	-0.190	-0.790	1.000
2020/01/31 02:24:58.3	91.430	-0.140	-0.850	0.980
2020/01/31 02:24:58.4	91.450	-0.090	-0.900	0.960
2020/01/31 02:24:58.5	91.470	-0.050	-0.930	0.940
2020/01/31 02:24:58.6	91.490	-0.010	-0.960	0.920
2020/01/31 02:24:58.7	91.500	0.030	-0.980	0.910
2020/01/31 02:24:58.8	91.520	0.070	-0.980	0.890
2020/01/31 02:24:58.9	91.530	0.100	-0.980	0.880
2020/01/31 02:24:59.0	91.550	0.130	-0.960	0.870
2020/01/31 02:24:59.1	91.570	0.150	-0.940	0.870
2020/01/31 02:24:59.2	91.580	0.170	-0.900	0.860
2020/01/31 02:24:59.3	91.580	0.190	-0.860	0.850
2020/01/31 02:24:59.4	91.590	0.190	-0.800	0.850
2020/01/31 02:24:59.5	91.590	0.200	-0.740	0.850
2020/01/31 02:24:59.6	91.590	0.200	-0.670	0.850
2020/01/31 02:24:59.7	91.590	0.190	-0.590	0.850
2020/01/31 02:24:59.8	91.590	0.180	-0.500	0.850
2020/01/31 02:24:59.9	91.590	0.170	-0.420	0.860
2020/01/31 02:25:00.0	91.580	0.150	-0.330	0.860
2020/01/31 02:25:00.1	91.570	0.130	-0.230	0.870
2020/01/31 02:25:00.2	91.560	0.110	-0.140	0.880
2020/01/31 02:25:00.3	91.550	0.080	-0.040	0.880
2020/01/31 02:25:00.4	91.540	0.050	0.050	0.890
2020/01/31 02:25:00.5	91.530	0.020	0.140	0.890
2020/01/31 02:25:00.6	91.520	-0.010	0.220	0.900
2020/01/31 02:25:00.7	91.500	-0.050	0.300	0.910
2020/01/31 02:25:00.8	91.490	-0.080	0.380	0.910
2020/01/31 02:25:00.9	91.480	-0.120	0.440	0.920
2020/01/31 02:25:01.0	91.470	-0.150	0.500	0.920
2020/01/31 02:25:01.1	91.460	-0.190	0.550	0.920
2020/01/31 02:25:01.2	91.450	-0.220	0.600	0.920
2020/01/31 02:25:01.3	91.440	-0.250	0.630	0.920
2020/01/31 02:25:01.4	91.440	-0.280	0.660	0.920
2020/01/31 02:25:01.5	91.430	-0.310	0.680	0.920
2020/01/31 02:25:01.6	91.430	-0.340	0.680	0.920
2020/01/31 02:25:01.7	91.430	-0.360	0.680	0.910
2020/01/31 02:25:01.8	91.430	-0.380	0.670	0.910
2020/01/31 02:25:01.9	91.430	-0.400	0.650	0.900
2020/01/31 02:25:02.0	91.440	-0.410	0.630	0.890
2020/01/31 02:25:02.1	91.430	-0.420	0.590	0.880
2020/01/31 02:25:02.2	91.440	-0.430	0.550	0.860
2020/01/31 02:25:02.3	91.450	-0.430	0.500	0.840
2020/01/31 02:25:02.4	91.460	-0.430	0.440	0.810
2020/01/31 02:25:02.5	91.470	-0.430	0.380	0.780
2020/01/31 02:25:02.6	91.490	-0.420	0.310	0.750
2020/01/31 02:25:02.7	91.500	-0.410	0.230	0.710
2020/01/31 02:25:02.8	91.520	-0.390	0.160	0.680
2020/01/31 02:25:02.9	91.540	-0.370	0.070	0.630
2020/01/31 02:25:03.0	91.560	-0.350	-0.010	0.590
2020/01/31 02:25:03.1	91.590	-0.320	-0.100	0.550
2020/01/31 02:25:03.2	91.610	-0.290	-0.190	0.510
2020/01/31 02:25:03.3	91.630	-0.260	-0.270	0.460
2020/01/31 02:25:03.4	91.650	-0.220	-0.360	0.420
2020/01/31 02:25:03.5	91.680	-0.180	-0.440	0.390
2020/01/31 02:25:03.6	91.700	-0.140	-0.530	0.350
2020/01/31 02:25:03.7	91.720	-0.100	-0.600	0.320
2020/01/31 02:25:03.8	91.730	-0.050	-0.680	0.300
2020/01/31 02:25:03.9	91.750	-0.000	-0.750	0.280
2020/01/31 02:25:04.0	91.760	0.050	-0.810	0.260
2020/01/31 02:25:04.1	91.770	0.100	-0.870	0.260
2020/01/31 02:25:04.2	91.770	0.150	-0.920	0.250
2020/01/31 02:25:04.3	91.780	0.200	-0.960	0.250
2020/01/31 02:25:04.4	91.780	0.250	-1.000	0.260
2020/01/31 02:25:04.5	91.780	0.290	-1.030	0.270
2020/01/31 02:25:04.6	91.780	0.340	-1.060	0.290
2020/01/31 02:25:04.7	91.770	0.390	-1.070	0.310
2020/01/31 02:25:04.8	91.770	0.430	-1.080	0.330
2020/01/31 02:25:04.9	91.760	0.470	-1.090	0.350
2020/01/31 02:25:05.0	91.750	0.510	-1.080	0.380
2020/01/31 02:25:05.1	91.740	0.540	-1.070	0.410
2020/01/31 02:25:05.2	91.730	0.570	-1.050	0.440
2020/01/31 02:25:05.3	91.710	0.600	-1.020	0.470
2020/01/31 02:25:05.4	91.700	0.620	-0.990	0.500
2020/01/31 02:25:05.5	91.680	0.640	-0.960	0.520
2020/01/31 02:25:05.6	91.670	0.650	-0.910	0.550
2020/01/31 02:25:05.7	91.650	0.650	-0.870	0.580
2020/01/31 02:25:05.8	91.630	0.660	-0.810	0.600
2020/01/31 02:25:05.9	91.620	0.650	-0.760	0.620
2020/01/31 02:25:06.0	91.600	0.650	-0.700	0.640
2020/01/31 02:25:06.1	91.580	0.630	-0.630	0.670
2020/01/31 02:25:06.2	91.570	0.620	-0.570	0.680
2020/01/31 02:25:06.3	91.550	0.590	-0.500	0.700
2020/01/31 02:25:06.4	91.540	0.570	-0.430	0.720
2020/01/31 02:25:06.5	91.520	0.540	-0.350	0.730
2020/01/31 02:25:06.6	91.510	0.510	-0.280	0.750
2020/01/31 02:25:06.7	91.500	0.470	-0.200	0.760
2020/01/31 02:25:06.8	91.480	0.430	-0.130	0.770
2020/01/31 02:25:06.9	91.470	0.390	-0.060	0.780
2020/01/31 02:25:07.0	91.460	0.350	0.020	0.800
2020/01/31 02:25:07.1	91.460	0.300	0.090	0.810
2020/01/31 02:25:07.2	91.450	0.250	0.160	0.820
2020/01/31 02:25:07.3	91.450	0.210	0.220	0.830
2020/01/31 02:25:07.4	91.440	0.160	0.280	0.830
2020/01/31 02:25:07.5	91.440	0.110	0.340	0.840
2020/01/31 02:25:07.6	91.430	0.070	0.390	0.850
2020/01/31 02:25:07.7	91.430	0.020	0.440	0.860
2020/01/31 02:25:07.8	91.420	-0.020	0.470	0.860
2020/01/31 02:25:07.9	91.420	-0.060	0.510	0.860
2020/01/31 02:25:08.0	91.420	-0.090	0.530	0.860
2020/01/31 02:25:08.1	91.410	-0.130	0.550	0.860
2020/01/31 02:25:08.2	91.410	-0.150	0.560	0.860
2020/01/31 02:25:08.3	91.410	-0.180	0.550	0.850
2020/01/31 02:25:08.4	91.410	-0.200	0.540	0.840
2020/01/31 02:25:08.5	91.420	-0.210	0.530	0.820
2020/01/31 02:25:08.6	91.420	-0.230	0.500	0.800
2020/01/31 02:25:08.7	91.430	-0.230	0.460	0.770
2020/01/31 02:25:08.8	91.440	-0.230	0.420	0.740
2020/01/31 02:25:08.9	91.450	-0.230	0.370	0.710
2020/01/31 02:25:09.0	91.470	-0.220	0.310	0.680
2020/01/31 02:25:09.1	91.490	-0.200	0.240	0.640
2020/01/31 02:25:09.2	91.510	-0.180	0.170	0.600
2020/01/31 02:25:09.3	91.530	-0.160	0.100	0.570
2020/01/31 02:25:09.4	91.550	-0.140	0.020	0.530
2020/01/31 02:25:09.5	91.570	-0.100	-0.060	0.500
2020/01/31 02:25:09.6	91.590	-0.070	-0.150	0.460
2020/01/31 02:25:09.7	91.620	-0.040	-0.230	0.430
2020/01/31 02:25:09.8	91.640	0.000	-0.320	0.410
2020/01/31 02:25:09.9	91.670	0.040	-0.400	0.390
2020/01/31 02:25:10.0	91.690	0.080	-0.480	0.370
2020/01/31 02:25:10.1	91.700	0.120	-0.570	0.360
2020/01/31 02:25:10.2	91.720	0.160	-0.640	0.360
2020/01/31 02:25:10.3	91.740	0.200	-0.710	0.350
2020/01/31 02:25:10.4	91.760	0.230	-0.770	0.360
2020/01/31 02:25:10.5	91.770	0.270	-0.830	0.370
2020/01/31 02:25:10.6	91.790	0.300	-0.880	0.380
2020/01/31 02:25:10.7	91.800	0.320	-0.910	0.390
2020/01/31 02:25:10.8	91.820	0.350	-0.940	0.410
2020/01/31 02:25:10.9	91.830	0.370	-0.970	0.440
2020/01/31 02:25:11.0	91.840	0.380	-0.980	0.460
2020/01/31 02:25:11.1	91.840	0.390	-0.980	0.490
2020/01/31 02:25:11.2	91.850	0.390	-0.970	0.520
2020/01/31 02:25:11.3	91.860	0.390	-0.960	0.550
2020/01/31 02:25:11.4	91.860	0.380	-0.940	0.580
2020/01/31 02:25:11.5	91.870	0.370	-0.910	0.610
2020/01/31 02:25:11.6	91.870	0.360	-0.870	0.640
2020/01/31 02:25:11.7	91.870	0.330	-0.820	0.670
2020/01/31 02:25:11.8	91.870	0.310	-0.760	0.710
2020/01/31 02:25:11.9	91.870	0.280	-0.700	0.740
2020/01/31 02:25:12.0	91.870	0.240	-0.640	0.770
2020/01/31 02:25:12.1	91.880	0.200	-0.570	0.810
2020/01/31 02:25:12.2	91.880	0.160	-0.490	0.840
2020/01/31 02:25:12.3	91.870	0.120	-0.410	0.870
2020/01/31 02:25:12.4	91.870	0.070	-0.330	0.900
2020/01/31 02:25:12.5	91.870	0.020	-0.240	0.920
2020/01/31 02:25:12.6	91.870	-0.030	-0.160	0.950
2020/01/31 02:25:12.7	91.870	-0.080	-0.070	0.980
2020/01/31 02:25:12.8	91.860	-0.140	0.010	1.000
2020/01/31 02:25:12.9	91.860	-0.190	0.090	1.020
2020/01/31 02:25:13.0	91.860	-0.240	0.170	1.050
2020/01/31 02:25:13.1	91.850	-0.290	0.250	1.070
2020/01/31 02:25:13.2	91.850	-0.340	0.320	1.090
2020/01/31 02:25:13.3	91.840	-0.390	0.390	1.110
2020/01/31 02:25:13.4	91.840	-0.440	0.450	1.130
2020/01/31 02:25:13.5	91.840	-0.480	0.510	1.150
2020/01/31 02:25:13.6	91.830	-0.520	0.560	1.170
2020/01/31 02:25:13.7	91.830	-0.560	0.610	1.180
2020/01/31 02:25:13.8	91.830	-0.600	0.650	1.200
2020/01/31 02:25:13.9	91.830	-0.630	0.680	1.210
2020/01/31 02:25:14.0	91.830	-0.660	0.700	1.210
2020/01/31 02:25:14.1	91.830	-0.690	0.720	1.220
2020/01/31 02:25:14.2	91.830	-0.710	0.730	1.220
2020/01/31 02:25:14.3	91.840	-0.730	0.730	1.220
2020/01/31 02:25:14.4	91.840	-0.740	0.730	1.210
2020/01/31 02:25:14.5	91.850	-0.750	0.710	1.190
2020/01/31 02:25:14.6	91.860	-0.760	0.690	1.170
2020/01/31 02:25:14.7	91.870	-0.770	0.660	1.150
2020/01/31 02:25:14.8	91.880	-0.770	0.630	1.120
2020/01/31 02:25:14.9	91.900	-0.760	0.590	1.090
2020/01/31 02:25:15.0	91.920	-0.750	0.540	1.050
2020/01/31 02:25:15.1	91.930	-0.740	0.480	1.010
2020/01/31 02:25:15.2	91.950	-0.730	0.420	0.970
2020/01/31 02:25:15.3	91.970	-0.710	0.360	0.930
2020/01/31 02:25:15.4	91.990	-0.690	0.290	0.880
2020/01/31 02:25:15.5	92.010	-0.660	0.220	0.840
2020/01/31 02:25:15.6	92.030	-0.630	0.140	0.790
2020/01/31 02:25:15.7	92.050	-0.600	0.070	0.750
2020/01/31 02:25:15.8	92.070	-0.570	-0.010	0.700
2020/01/31 02:25:15.9	92.090	-0.530	-0.090	0.660
2020/01/31 02:25:16.0	92.110	-0.490	-0.170	0.630
2020/01/31 02:25:16.1	92.130	-0.440	-0.260	0.590
2020/01/31 02:25:16.2	92.140	-0.400	-0.340	0.560
2020/01/31 02:25:16.3	92.150	-0.350	-0.410	0.530
2020/01/31 02:25:16.4	92.160	-0.310	-0.490	0.500
2020/01/31 02:25:16.5	92.170	-0.260	-0.560	0.480
2020/01/31 02:25:16.6	92.170	-0.210	-0.630	0.460
2020/01/31 02:25:16.7	92.180	-0.160	-0.700	0.450
2020/01/31 02:25:16.8	92.180	-0.110	-0.760	0.440
2020/01/31 02:25:16.9	92.180	-0.060	-0.820	0.430
2020/01/31 02:25:17.0	92.170	-0.010	-0.870	0.420
2020/01/31 02:25:17.1	92.170	0.040	-0.930	0.420
2020/01/31 02:25:17.2	92.160	0.090	-0.970	0.420
2020/01/31 02:25:17.3	92.160	0.140	-1.010	0.410
2020/01/31 02:25:17.4	92.150	0.190	-1.040	0.410
2020/01/31 02:25:17.5	92.140	0.230	-1.070	0.410
2020/01/31 02:25:17.6	92.130	0.280	-1.090	0.420
2020/01/31 02:25:17.7	92.120	0.320	-1.100	0.420
2020/01/31 02:25:17.8	92.110	0.350	-1.110	0.420
2020/01/31 02:25:17.9	92.100	0.390	-1.120	0.430
2020/01/31 02:25:18.0	92.090	0.420	-1.110	0.430
2020/01/31 02:25:18.1	92.070	0.450	-1.100	0.440
2020/01/31 02:25:18.2	92.060	0.480	-1.080	0.450
2020/01/31 02:25:18.3	92.040	0.510	-1.060	0.460
2020/01/31 02:25:18.4	92.020	0.530	-1.040	0.470
2020/01/31 02:25:18.5	92.010	0.540	-1.010	0.480
2020/01/31 02:25:18.6	91.990	0.560	-0.980	0.500
2020/01/31 02:25:18.7	91.970	0.570	-0.940	0.510
2020/01/31 02:25:18.8	91.950	0.580	-0.900	0.530
2020/01/31 02:25:18.9	91.930	0.590	-0.850	0.540
2020/01/31 02:25:19.0	91.920	0.590	-0.800	0.560
2020/01/31 02:25:19.1	91.900	0.590	-0.760	0.580
2020/01/31 02:25:19.2	91.880	0.590	-0.710	0.590
2020/01/31 02:25:19.3	91.860	0.580	-0.650	0.610
2020/01/31 02:25:19.4	91.850	0.570	-0.600	0.620
2020/01/31 02:25:19.5	91.830	0.570	-0.540	0.640
2020/01/31 02:25:19.6	91.810	0.550	-0.490	0.650
2020/01/31 02:25:19.7	91.800	0.540	-0.440	0.660
2020/01/31 02:25:19.8	91.780	0.530	-0.380	0.670
2020/01/31 02:25:19.9	91.770	0.510	-0.330	0.680
2020/01/31 02:25:20.0	91.750	0.490	-0.280	0.680
2020/01/31 02:25:20.1	91.740	0.470	-0.230	0.690
2020/01/31 02:25:20.2	91.730	0.460	-0.180	0.690
2020/01/31 02:25:20.3	91.720	0.440	-0.140	0.690
2020/01/31 02:25:20.4	91.710	0.410	-0.090	0.690
2020/01/31 02:25:20.5	91.700	0.390	-0.050	0.690
2020/01/31 02:25:20.6	91.690	0.370	-0.010	0.680
2020/01/31 02:25:20.7	91.680	0.350	0.030	0.680
2020/01/31 02:25:20.8	91.680	0.320	0.060	0.670
2020/01/31 02:25:20.9	91.670	0.300	0.100	0.670
2020/01/31 02:25:21.0	91.660	0.270	0.130	0.660
2020/01/31 02:25:21.1	91.650	0.250	0.160	0.660
2020/01/31 02:25:21.2	91.650	0.220	0.180	0.650
2020/01/31 02:25:21.3	91.650	0.200	0.210	0.640
2020/01/31 02:25:21.4	91.650	0.170	0.230	0.630
2020/01/31 02:25:21.5	91.650	0.150	0.250	0.620
2020/01/31 02:25:21.6	91.660	0.120	0.260	0.610
2020/01/31 02:25:21.7	91.660	0.100	0.280	0.590
2020/01/31 02:25:21.8	91.670	0.070	0.290	0.580
2020/01/31 02:25:21.9	91.680	0.040	0.290	0.570
2020/01/31 02:25:22.0	91.700	0.020	0.300	0.550
2020/01/31 02:25:22.1	91.710	-0.010	0.300	0.540
2020/01/31 02:25:22.2	91.730	-0.030	0.300	0.530
2020/01/31 02:25:22.3	91.750	-0.060	0.300	0.520
2020/01/31 02:25:22.4	91.770	-0.080	0.290	0.510
2020/01/31 02:25:22.5	91.790	-0.100	0.280	0.500
2020/01/31 02:25:22.6	91.820	-0.130	0.270	0.480
2020/01/31 02:25:22.7	91.840	-0.150	0.260	0.480
2020/01/31 02:25:22.8	91.860	-0.170	0.250	0.470
2020/01/31 02:25:22.9	91.890	-0.190	0.230	0.470
2020/01/31 02:25:23.0	91.910	-0.210	0.210	0.460
2020/01/31 02:25:23.1	91.930	-0.220	0.190	0.470
2020/01/31 02:25:23.2	91.950	-0.240	0.170	0.470
2020/01/31 02:25:23.3	91.970	-0.250	0.140	0.470
2020/01/31 02:25:23.4	91.990	-0.260	0.120	0.480
2020/01/31 02:25:23.5	92.000	-0.270	0.090	0.490
2020/01/31 02:25:23.6	92.020	-0.280	0.060	0.500
2020/01/31 02:25:23.7	92.030	-0.290	0.040	0.520
2020/01/31 02:25:23.8	92.040	-0.300	0.010	0.530
2020/01/31 02:25:23.9	92.050	-0.300	-0.020	0.550
2020/01/31 02:25:24.0	92.060	-0.310	-0.040	0.570
2020/01/31 02:25:24.1	92.070	-0.310	-0.070	0.590
2020/01/31 02:25:24.2	92.070	-0.310	-0.090	0.610
2020/01/31 02:25:24.3	92.080	-0.320	-0.110	0.620
2020/01/31 02:25:24.4	92.090	-0.320	-0.120	0.640
2020/01/31 02:25:24.5	92.090	-0.320	-0.140	0.660
2020/01/31 02:25:24.6	92.100	-0.320	-0.150	0.680
2020/01/31 02:25:24.7	92.100	-0.320	-0.160	0.700
2020/01/31 02:25:24.8	92.100	-0.320	-0.170	0.720
2020/01/31 02:25:24.9	92.110	-0.320	-0.180	0.740
2020/01/31 02:25:25.0	92.110	-0.310	-0.180	0.760
2020/01/31 02:25:25.1	92.120	-0.310	-0.180	0.780
2020/01/31 02:25:25.2	92.130	-0.310	-0.190	0.790
2020/01/31 02:25:25.3	92.130	-0.310	-0.190	0.810
2020/01/31 02:25:25.4	92.130	-0.300	-0.190	0.820
2020/01/31 02:25:25.5	92.140	-0.300	-0.180	0.840
2020/01/31 02:25:25.6	92.140	-0.290	-0.180	0.850
2020/01/31 02:25:25.7	92.150	-0.290	-0.180	0.860
2020/01/31 02:25:25.8	92.150	-0.280	-0.180	0.870
2020/01/31 02:25:25.9	92.150	-0.270	-0.180	0.890
2020/01/31 02:25:26.0	92.150	-0.260	-0.180	0.900
2020/01/31 02:25:26.1	92.160	-0.250	-0.180	0.910
2020/01/31 02:25:26.2	92.170	-0.240	-0.190	0.930
2020/01/31 02:25:26.3	92.170	-0.230	-0.190	0.940
2020/01/31 02:25:26.4	92.170	-0.210	-0.200	0.950
2020/01/31 02:25:26.5	92.170	-0.200	-0.210	0.960
2020/01/31 02:25:26.6	92.170	-0.180	-0.220	0.970
2020/01/31 02:25:26.7	92.170	-0.160	-0.230	0.980
2020/01/31 02:25:26.8	92.170	-0.140	-0.250	0.990
2020/01/31 02:25:26.9	92.170	-0.120	-0.270	1.000
2020/01/31 02:25:27.0	92.170	-0.090	-0.290	1.000
2020/01/31 02:25:27.1	92.170	-0.070	-0.320	1.010
2020/01/31 02:25:27.2	92.170	-0.040	-0.340	1.010
2020/01/31 02:25:27.3	92.180	-0.010	-0.370	1.010
2020/01/31 02:25:27.4	92.180	0.020	-0.410	1.000
2020/01/31 02:25:27.5	92.190	0.060	-0.440	0.990
2020/01/31 02:25:27.6	92.190	0.090	-0.480	0.980
2020/01/31 02:25:27.7	92.190	0.130	-0.510	0.960
2020/01/31 02:25:27.8	92.200	0.160	-0.550	0.940
2020/01/31 02:25:27.9	92.200	0.200	-0.580	0.920
2020/01/31 02:25:28.0	92.200	0.240	-0.620	0.900
2020/01/31 02:25:28.1	92.210	0.270	-0.650	0.870
2020/01/31 02:25:28.2	92.210	0.310	-0.680	0.850
2020/01/31 02:25:28.3	92.210	0.350	-0.710	0.820
2020/01/31 02:25:28.4	92.210	0.380	-0.730	0.790
2020/01/31 02:25:28.5	92.210	0.410	-0.750	0.760
2020/01/31 02:25:28.6	92.210	0.440	-0.760	0.720
2020/01/31 02:25:28.7	92.220	0.460	-0.770	0.690
2020/01/31 02:25:28.8	92.220	0.480	-0.760	0.660
2020/01/31 02:25:28.9	92.220	0.500	-0.750	0.630
2020/01/31 02:25:29.0	92.220	0.510	-0.740	0.590
2020/01/31 02:25:29.1	92.220	0.520	-0.710	0.560
2020/01/31 02:25:29.2	92.220	0.530	-0.680	0.540
2020/01/31 02:25:29.3	92.220	0.530	-0.650	0.510
2020/01/31 02:25:29.4	92.220	0.520	-0.600	0.490
2020/01/31 02:25:29.5	92.220	0.510	-0.550	0.460
2020/01/31 02:25:29.6	92.220	0.500	-0.500	0.440
2020/01/31 02:25:29.7	92.210	0.480	-0.440	0.430
2020/01/31 02:25:29.8	92.210	0.450	-0.380	0.410
2020/01/31 02:25:29.9	92.210	0.420	-0.310	0.400
2020/01/31 02:25:30.0	92.200	0.390	-0.240	0.390
2020/01/31 02:25:30.1	92.200	0.360	-0.170	0.390
2020/01/31 02:25:30.2	92.190	0.320	-0.100	0.380
2020/01/31 02:25:30.3	92.190	0.280	-0.030	0.380
2020/01/31 02:25:30.4	92.180	0.240	0.030	0.380
2020/01/31 02:25:30.5	92.170	0.190	0.100	0.380
2020/01/31 02:25:30.6	92.160	0.150	0.160	0.390
2020/01/31 02:25:30.7	92.140	0.100	0.210	0.400
2020/01/31 02:25:30.8	92.130	0.060	0.260	0.400
2020/01/31 02:25:30.9	92.120	0.010	0.310	0.420
2020/01/31 02:25:31.0	92.100	-0.030	0.350	0.430
2020/01/31 02:25:31.1	92.090	-0.070	0.380	0.450
2020/01/31 02:25:31.2	92.070	-0.110	0.400	0.470
2020/01/31 02:25:31.3	92.060	-0.140	0.410	0.490
2020/01/31 02:25:31.4	92.040	-0.170	0.420	0.510
2020/01/31 02:25:31.5	92.030	-0.200	0.410	0.530
2020/01/31 02:25:31.6	92.010	-0.220	0.400	0.550
2020/01/31 02:25:31.7	92.000	-0.230	0.370	0.570
2020/01/31 02:25:31.8	91.990	-0.240	0.340	0.590
2020/01/31 02:25:31.9	91.990	-0.250	0.300	0.610
2020/01/31 02:25:32.0	91.980	-0.250	0.250	0.620
2020/01/31 02:25:32.1	91.990	-0.240	0.180	0.640
2020/01/31 02:25:32.2	91.990	-0.230	0.120	0.650
2020/01/31 02:25:32.3	92.000	-0.220	0.050	0.660
2020/01/31 02:25:32.4	92.000	-0.200	-0.030	0.660
2020/01/31 02:25:32.5	92.010	-0.180	-0.120	0.670
2020/01/31 02:25:32.6	92.020	-0.150	-0.210	0.670
2020/01/31 02:25:32.7	92.040	-0.120	-0.300	0.670
2020/01/31 02:25:32.8	92.050	-0.080	-0.390	0.670
2020/01/31 02:25:32.9	92.070	-0.050	-0.480	0.670
2020/01/31 02:25:33.0	92.080	-0.010	-0.570	0.670
2020/01/31 02:25:33.1	92.100	0.020	-0.660	0.670
2020/01/31 02:25:33.2	92.120	0.060	-0.750	0.680
2020/01/31 02:25:33.3	92.130	0.100	-0.830	0.690
2020/01/31 02:25:33.4	92.140	0.130	-0.900	0.700
2020/01/31 02:25:33.5	92.150	0.170	-0.970	0.710
2020/01/31 02:25:33.6	92.160	0.200	-1.030	0.730
2020/01/31 02:25:33.7	92.170	0.230	-1.080	0.750
2020/01/31 02:25:33.8	92.180	0.250	-1.120	0.770
2020/01/31 02:25:33.9	92.180	0.270	-1.150	0.800
2020/01/31 02:25:34.0	92.180	0.290	-1.170	0.820
2020/01/31 02:25:34.1	92.180	0.300	-1.180	0.860
2020/01/31 02:25:34.2	92.180	0.310	-1.170	0.890
2020/01/31 02:25:34.3	92.170	0.310	-1.160	0.920
2020/01/31 02:25:34.4	92.160	0.310	-1.130	0.950
2020/01/31 02:25:34.5	92.150	0.290	-1.080	0.980
2020/01/31 02:25:34.6	92.140	0.280	-1.030	1.020
2020/01/31 02:25:34.7	92.130	0.260	-0.960	1.050
2020/01/31 02:25:34.8	92.110	0.230	-0.880	1.080
2020/01/31 02:25:34.9	92.100	0.200	-0.790	1.110
2020/01/31 02:25:35.0	92.080	0.160	-0.690	1.140
2020/01/31 02:25:35.1	92.060	0.110	-0.570	1.170
2020/01/31 02:25:35.2	92.040	0.070	-0.450	1.200
2020/01/31 02:25:35.3	92.020	0.010	-0.330	1.220
2020/01/31 02:25:35.4	92.000	-0.040	-0.200	1.250
2020/01/31 02:25:35.5	91.980	-0.100	-0.060	1.270
2020/01/31 02:25:35.6	91.960	-0.160	0.070	1.290
2020/01/31 02:25:35.7	91.930	-0.220	0.210	1.310
2020/01/31 02:25:35.8	91.910	-0.290	0.350	1.330
2020/01/31 02:25:35.9	91.890	-0.350	0.480	1.340
2020/01/31 02:25:36.0	91.870	-0.410	0.610	1.360
2020/01/31 02:25:36.1	91.850	-0.480	0.740	1.370
2020/01/31 02:25:36.2	91.830	-0.540	0.860	1.370
2020/01/31 02:25:36.3	91.810	-0.600	0.970	1.370
2020/01/31 02:25:36.4	91.790	-0.650	1.070	1.370
2020/01/31 02:25:36.5	91.780	-0.700	1.160	1.360
2020/01/31 02:25:36.6	91.760	-0.750	1.240	1.350
2020/01/31 02:25:36.7	91.750	-0.790	1.300	1.330
2020/01/31 02:25:36.8	91.730	-0.830	1.350	1.310
2020/01/31 02:25:36.9	91.720	-0.860	1.390	1.280
2020/01/31 02:25:37.0	91.720	-0.880	1.400	1.250
2020/01/31 02:25:37.1	91.700	-0.890	1.400	1.220
2020/01/31 02:25:37.2	91.700	-0.900	1.380	1.170
2020/01/31 02:25:37.3	91.690	-0.900	1.340	1.130
2020/01/31 02:25:37.4	91.690	-0.890	1.290	1.080
2020/01/31 02:25:37.5	91.700	-0.870	1.220	1.020
2020/01/31 02:25:37.6	91.700	-0.830	1.130	0.970
2020/01/31 02:25:37.7	91.710	-0.800	1.020	0.910
2020/01/31 02:25:37.8	91.720	-0.750	0.900	0.850
2020/01/31 02:25:37.9	91.730	-0.690	0.760	0.790
2020/01/31 02:25:38.0	91.740	-0.630	0.610	0.720
2020/01/31 02:25:38.1	91.750	-0.560	0.450	0.650
2020/01/31 02:25:38.2	91.770	-0.480	0.290	0.580
2020/01/31 02:25:38.3	91.780	-0.400	0.110	0.520
2020/01/31 02:25:38.4	91.800	-0.310	-0.060	0.450
2020/01/31 02:25:38.5	91.820	-0.220	-0.240	0.390
2020/01/31 02:25:38.6	91.840	-0.130	-0.420	0.320
2020/01/31 02:25:38.7	91.850	-0.030	-0.600	0.260
2020/01/31 02:25:38.8	91.870	0.060	-0.770	0.200
2020/01/31 02:25:38.9	91.890	0.160	-0.930	0.140
2020/01/31 02:25:39.0	91.900	0.250	-1.090	0.090
2020/01/31 02:25:39.1	91.920	0.340	-1.240	0.040
2020/01/31 02:25:39.2	91.930	0.430	-1.380	-0.010
2020/01/31 02:25:39.3	91.950	0.520	-1.500	-0.050
2020/01/31 02:25:39.4	91.960	0.590	-1.600	-0.090
2020/01/31 02:25:39.5	91.970	0.670	-1.700	-0.120
2020/01/31 02:25:39.6	91.990	0.730	-1.770	-0.150
2020/01/31 02:25:39.7	92.000	0.790	-1.830	-0.170
2020/01/31 02:25:39.8	92.010	0.850	-1.870	-0.190
2020/01/31 02:25:39.9	92.020	0.890	-1.890	-0.200
2020/01/31 02:25:40.0	92.020	0.930	-1.900	-0.210
2020/01/31 02:25:40.1	92.040	0.950	-1.880	-0.200
2020/01/31 02:25:40.2	92.050	0.970	-1.850	-0.190
2020/01/31 02:25:40.3	92.050	0.980	-1.800	-0.180
2020/01/31 02:25:40.4	92.050	0.990	-1.730	-0.160
2020/01/31 02:25:40.5	92.060	0.980	-1.650	-0.130
2020/01/31 02:25:40.6	92.060	0.970	-1.560	-0.090
2020/01/31 02:25:40.7	92.060	0.940	-1.450	-0.050
2020/01/31 02:25:40.8	92.060	0.910	-1.330	-0.000
2020/01/31 02:25:40.9	92.060	0.880	-1.200	0.050
2020/01/31 02:25:41.0	92.060	0.840	-1.060	0.110
2020/01/31 02:25:41.1	92.060	0.790	-0.910	0.170
2020/01/31 02:25:41.2	92.050	0.730	-0.770	0.240
2020/01/31 02:25:41.3	92.050	0.680	-0.620	0.300
2020/01/31 02:25:41.4	92.050	0.610	-0.460	0.370
2020/01/31 02:25:41.5	92.050	0.550	-0.310	0.440
2020/01/31 02:25:41.6	92.050	0.480	-0.170	0.520
2020/01/31 02:25:41.7	92.050	0.410	-0.020	0.590
2020/01/31 02:25:41.8	92.060	0.340	0.110	0.660
2020/01/31 02:25:41.9	92.060	0.270	0.240	0.730
2020/01/31 02:25:42.0	92.060	0.200	0.360	0.790
2020/01/31 02:25:42.1	92.060	0.130	0.480	0.860
2020/01/31 02:25:42.2	92.060	0.060	0.580	0.920
2020/01/31 02:25:42.3	92.070	-0.000	0.670	0.980
2020/01/31 02:25:42.4	92.070	-0.070	0.740	1.040
2020/01/31 02:25:42.5	92.070	-0.130	0.810	1.090
2020/01/31 02:25:42.6	92.070	-0.190	0.860	1.130
2020/01/31 02:25:42.7	92.070	-0.250	0.890	1.170
2020/01/31 02:25:42.8	92.060	-0.300	0.920	1.210
2020/01/31 02:25:42.9	92.060	-0.350	0.930	1.240
2020/01/31 02:25:43.0	92.050	-0.390	0.940	1.260
2020/01/31 02:25:43.1	92.040	-0.430	0.920	1.290
2020/01/31 02:25:43.2	92.040	-0.470	0.900	1.300
2020/01/31 02:25:43.3	92.030	-0.500	0.870	1.310
2020/01/31 02:25:43.4	92.020	-0.530	0.830	1.320
2020/01/31 02:25:43.5	92.010	-0.550	0.780	1.320
2020/01/31 02:25:43.6	92.000	-0.570	0.720	1.320
2020/01/31 02:25:43.7	91.990	-0.590	0.650	1.320
2020/01/31 02:25:43.8	91.980	-0.600	0.580	1.320
2020/01/31 02:25:43.9	91.960	-0.600	0.510	1.310
2020/01/31 02:25:44.0	91.950	-0.600	0.430	1.310
2020/01/31 02:25:44.1	91.940	-0.600	0.350	1.310
2020/01/31 02:25:44.2	91.930	-0.590	0.270	1.310
2020/01/31 02:25:44.3	91.920	-0.580	0.180	1.310
2020/01/31 02:25:44.4	91.910	-0.570	0.100	1.320
2020/01/31 02:25:44.5	91.900	-0.550	0.010	1.320
2020/01/31 02:25:44.6	91.890	-0.530	-0.070	1.320
2020/01/31 02:25:44.7	91.880	-0.510	-0.150	1.320
2020/01/31 02:25:44.8	91.870	-0.480	-0.220	1.320
2020/01/31 02:25:44.9	91.870	-0.460	-0.290	1.320
2020/01/31 02:25:45.0	91.860	-0.430	-0.360	1.320
2020/01/31 02:25:45.1	91.870	-0.400	-0.430	1.320
2020/01/31 02:25:45.2	91.870	-0.360	-0.490	1.320
2020/01/31 02:25:45.3	91.870	-0.330	-0.540	1.310
2020/01/31 02:25:45.4	91.870	-0.300	-0.590	1.310
2020/01/31 02:25:45.5	91.880	-0.260	-0.630	1.300
2020/01/31 02:25:45.6	91.890	-0.230	-0.660	1.280
2020/01/31 02:25:45.7	91.900	-0.190	-0.690	1.270
2020/01/31 02:25:45.8	91.910	-0.160	-0.720	1.250
2020/01/31 02:25:45.9	91.920	-0.120	-0.740	1.230
2020/01/31 02:25:46.0	91.940	-0.090	-0.750	1.210
2020/01/31 02:25:46.1	91.960	-0.050	-0.760	1.190
2020/01/31 02:25:46.2	91.970	-0.020	-0.760	1.160
2020/01/31 02:25:46.3	91.990	0.010	-0.770	1.130
2020/01/31 02:25:46.4	92.020	0.040	-0.760	1.090
2020/01/31 02:25:46.5	92.040	0.070	-0.760	1.060
2020/01/31 02:25:46.6	92.060	0.100	-0.750	1.030
2020/01/31 02:25:46.7	92.080	0.130	-0.730	0.990
2020/01/31 02:25:46.8	92.100	0.150	-0.720	0.960
2020/01/31 02:25:46.9	92.120	0.180	-0.700	0.920
2020/01/31 02:25:47.0	92.140	0.200	-0.690	0.890
2020/01/31 02:25:47.1	92.160	0.230	-0.670	0.850
2020/01/31 02:25:47.2	92.180	0.250	-0.650	0.820
2020/01/31 02:25:47.3	92.200	0.270	-0.620	0.780
2020/01/31 02:25:47.4	92.210	0.280	-0.600	0.750
2020/01/31 02:25:47.5	92.230	0.300	-0.570	0.720
2020/01/31 02:25:47.6	92.240	0.310	-0.550	0.690
2020/01/31 02:25:47.7	92.260	0.330	-0.520	0.660
2020/01/31 02:25:47.8	92.270	0.340	-0.490	0.620
2020/01/31 02:25:47.9	92.280	0.340	-0.450	0.590
2020/01/31 02:25:48.0	92.300	0.350	-0.420	0.560
2020/01/31 02:25:48.1	92.310	0.350	-0.380	0.540
2020/01/31 02:25:48.2	92.320	0.350	-0.340	0.510
2020/01/31 02:25:48.3	92.340	0.350	-0.300	0.480
2020/01/31 02:25:48.4	92.350	0.340	-0.260	0.460
2020/01/31 02:25:48.5	92.360	0.340	-0.220	0.430
2020/01/31 02:25:48.6	92.380	0.330	-0.180	0.410
2020/01/31 02:25:48.7	92.390	0.320	-0.140	0.400
2020/01/31 02:25:48.8	92.400	0.300	-0.090	0.380
2020/01/31 02:25:48.9	92.410	0.290	-0.050	0.370
2020/01/31 02:25:49.0	92.420	0.270	-0.010	0.360
2020/01/31 02:25:49.1	92.420	0.250	0.030	0.350
2020/01/31 02:25:49.2	92.430	0.230	0.070	0.350
2020/01/31 02:25:49.3	92.430	0.210	0.100	0.350
2020/01/31 02:25:49.4	92.440	0.190	0.140	0.350
2020/01/31 02:25:49.5	92.440	0.170	0.160	0.360
2020/01/31 02:25:49.6	92.440	0.150	0.190	0.370
2020/01/31 02:25:49.7	92.450	0.120	0.210	0.380
2020/01/31 02:25:49.8	92.450	0.100	0.230	0.390
2020/01/31 02:25:49.9	92.450	0.080	0.240	0.400
2020/01/31 02:25:50.0	92.450	0.060	0.250	0.420
2020/01/31 02:25:50.1	92.450	0.040	0.250	0.440
2020/01/31 02:25:50.2	92.450	0.020	0.250	0.460
2020/01/31 02:25:50.3	92.440	0.000	0.250	0.480
2020/01/31 02:25:50.4	92.440	-0.010	0.240	0.500
2020/01/31 02:25:50.5	92.440	-0.030	0.230	0.510
2020/01/31 02:25:50.6	92.430	-0.040	0.210	0.530
2020/01/31 02:25:50.7	92.430	-0.050	0.190	0.550
2020/01/31 02:25:50.8	92.430	-0.070	0.170	0.560
2020/01/31 02:25:50.9	92.420	-0.080	0.140	0.580
2020/01/31 02:25:51.0	92.420	-0.090	0.110	0.590
2020/01/31 02:25:51.1	92.410	-0.100	0.080	0.600
2020/01/31 02:25:51.2	92.410	-0.110	0.050	0.610
2020/01/31 02:25:51.3	92.400	-0.110	0.020	0.620
2020/01/31 02:25:51.4	92.400	-0.120	-0.020	0.620
2020/01/31 02:25:51.5	92.400	-0.130	-0.050	0.630
2020/01/31 02:25:51.6	92.390	-0.130	-0.080	0.630
2020/01/31 02:25:51.7	92.390	-0.140	-0.110	0.640
2020/01/31 02:25:51.8	92.390	-0.140	-0.150	0.640
2020/01/31 02:25:51.9	92.390	-0.150	-0.180	0.640
2020/01/31 02:25:52.0	92.380	-0.160	-0.210	0.650
2020/01/31 02:25:52.1	92.380	-0.160	-0.230	0.650
2020/01/31 02:25:52.2	92.380	-0.170	-0.260	0.650
2020/01/31 02:25:52.3	92.380	-0.170	-0.280	0.650
2020/01/31 02:25:52.4	92.370	-0.180	-0.310	0.660
2020/01/31 02:25:52.5	92.370	-0.190	-0.330	0.660
2020/01/31 02:25:52.6	92.370	-0.190	-0.350	0.670
2020/01/31 02:25:52.7	92.370	-0.200	-0.360	0.680
2020/01/31 02:25:52.8	92.370	-0.200	-0.380	0.690
2020/01/31 02:25:52.9	92.370	-0.210	-0.390	0.700
2020/01/31 02:25:53.0	92.380	-0.220	-0.400	0.710
2020/01/31 02:25:53.1	92.370	-0.220	-0.410	0.720
2020/01/31 02:25:53.2	92.380	-0.230	-0.420	0.730
2020/01/31 02:25:53.3	92.380	-0.230	-0.430	0.740
2020/01/31 02:25:53.4	92.390	-0.230	-0.440	0.750
2020/01/31 02:25:53.5	92.400	-0.230	-0.440	0.760
2020/01/31 02:25:53.6	92.410	-0.230	-0.450	0.770
2020/01/31 02:25:53.7	92.420	-0.230	-0.460	0.780
2020/01/31 02:25:53.8	92.440	-0.230	-0.470	0.780
2020/01/31 02:25:53.9	92.450	-0.220	-0.480	0.790
2020/01/31 02:25:54.0	92.470	-0.210	-0.490	0.790
2020/01/31 02:25:54.1	92.480	-0.200	-0.500	0.780
2020/01/31 02:25:54.2	92.500	-0.190	-0.510	0.780
2020/01/31 02:25:54.3	92.520	-0.170	-0.520	0.780
2020/01/31 02:25:54.4	92.540	-0.150	-0.540	0.770
2020/01/31 02:25:54.5	92.560	-0.130	-0.550	0.770
2020/01/31 02:25:54.6	92.580	-0.110	-0.570	0.760
2020/01/31 02:25:54.7	92.600	-0.090	-0.580	0.750
2020/01/31 02:25:54.8	92.610	-0.060	-0.600	0.750
2020/01/31 02:25:54.9	92.630	-0.030	-0.610	0.740
2020/01/31 02:25:55.0	92.640	-0.000	-0.630	0.740
2020/01/31 02:25:55.1	92.640	0.030	-0.630	0.740
2020/01/31 02:25:55.2	92.650	0.060	-0.640	0.740
2020/01/31 02:25:55.3	92.660	0.080	-0.640	0.740
2020/01/31 02:25:55.4	92.660	0.110	-0.640	0.740
2020/01/31 02:25:55.5	92.660	0.140	-0.630	0.740
2020/01/31 02:25:55.6	92.660	0.160	-0.620	0.750
2020/01/31 02:25:55.7	92.660	0.190	-0.610	0.750
2020/01/31 02:25:55.8	92.650	0.210	-0.590	0.760
2020/01/31 02:25:55.9	92.640	0.230	-0.560	0.760
2020/01/31 02:25:56.0	92.630	0.240	-0.530	0.770
2020/01/31 02:25:56.1	92.620	0.250	-0.490	0.790
2020/01/31 02:25:56.2	92.610	0.260	-0.450	0.800
2020/01/31 02:25:56.3	92.590	0.270	-0.410	0.810
2020/01/31 02:25:56.4	92.570	0.270	-0.360	0.820
2020/01/31 02:25:56.5	92.550	0.280	-0.310	0.830
2020/01/31 02:25:56.6	92.530	0.270	-0.260	0.850
2020/01/31 02:25:56.7	92.510	0.270	-0.200	0.860
2020/01/31 02:25:56.8	92.490	0.260	-0.150	0.870
2020/01/31 02:25:56.9	92.470	0.250	-0.090	0.880
2020/01/31 02:25:57.0	92.450	0.230	-0.030	0.880
2020/01/31 02:25:57.1	92.440	0.220	0.020	0.890
2020/01/31 02:25:57.2	92.420	0.200	0.080	0.890
2020/01/31 02:25:57.3	92.400	0.180	0.130	0.890
2020/01/31 02:25:57.4	92.390	0.160	0.180	0.880
2020/01/31 02:25:57.5	92.380	0.140	0.230	0.870
2020/01/31 02:25:57.6	92.370	0.120	0.270	0.860
2020/01/31 02:25:57.7	92.370	0.100	0.310	0.840
2020/01/31 02:25:57.8	92.370	0.070	0.340	0.820
2020/01/31 02:25:57.9	92.370	0.050	0.370	0.790
2020/01/31 02:25:58.0	92.380	0.030	0.400	0.760
2020/01/31 02:25:58.1	92.370	0.010	0.420	0.730
2020/01/31 02:25:58.2	92.390	-0.010	0.430	0.690
2020/01/31 02:25:58.3	92.400	-0.030	0.440	0.650
2020/01/31 02:25:58.4	92.420	-0.040	0.440	0.600
2020/01/31 02:25:58.5	92.440	-0.050	0.430	0.560
2020/01/31 02:25:58.6	92.460	-0.070	0.420	0.510
2020/01/31 02:25:58.7	92.480	-0.080	0.400	0.460
2020/01/31 02:25:58.8	92.510	-0.080	0.380	0.410
2020/01/31 02:25:58.9	92.530	-0.090	0.350	0.360
2020/01/31 02:25:59.0	92.560	-0.090	0.320	0.320
2020/01/31 02:25:59.1	92.590	-0.090	0.280	0.270
2020/01/31 02:25:59.2	92.610	-0.090	0.240	0.230
2020/01/31 02:25:59.3	92.630	-0.090	0.190	0.190
2020/01/31 02:25:59.4	92.650	-0.080	0.150	0.150
2020/01/31 02:25:59.5	92.660	-0.080	0.100	0.120
2020/01/31 02:25:59.6	92.680	-0.070	0.050	0.090
2020/01/31 02:25:59.7	92.680	-0.060	-0.000	0.060
2020/01/31 02:25:59.8	92.690	-0.050	-0.060	0.040
2020/01/31 02:25:59.9	92.690	-0.030	-0.110	0.030
2020/01/31 02:26:00.0	92.680	-0.020	-0.160	0.020
2020/01/31 02:26:00.1	92.670	-0.010	-0.210	0.020
2020/01/31 02:26:00.2	92.660	0.000	-0.260	0.020
2020/01/31 02:26:00.3	92.640	0.020	-0.310	0.020
2020/01/31 02:26:00.4	92.620	0.030	-0.360	0.030
2020/01/31 02:26:00.5	92.600	0.040	-0.400	0.050
2020/01/31 02:26:00.6	92.570	0.050	-0.440	0.070
2020/01/31 02:26:00.7	92.540	0.060	-0.480	0.090
2020/01/31 02:26:00.8	92.510	0.070	-0.510	0.120
2020/01/31 02:26:00.9	92.480	0.080	-0.540	0.150
2020/01/31 02:26:01.0	92.450	0.080	-0.560	0.180
2020/01/31 02:26:01.1	92.420	0.090	-0.580	0.210
2020/01/31 02:26:01.2	92.390	0.090	-0.590	0.240
2020/01/31 02:26:01.3	92.350	0.090	-0.610	0.280
2020/01/31 02:26:01.4	92.320	0.090	-0.610	0.320
2020/01/31 02:26:01.5	92.300	0.080	-0.620	0.360
2020/01/31 02:26:01.6	92.270	0.080	-0.620	0.400
2020/01/31 02:26:01.7	92.250	0.070	-0.620	0.440
2020/01/31 02:26:01.8	92.230	0.060	-0.610	0.480
2020/01/31 02:26:01.9	92.210	0.050	-0.600	0.510
2020/01/31 02:26:02.0	92.190	0.040	-0.590	0.550
2020/01/31 02:26:02.1	92.190	0.030	-0.580	0.590
2020/01/31 02:26:02.2	92.180	0.020	-0.570	0.620
2020/01/31 02:26:02.3	92.180	0.000	-0.560	0.650
2020/01/31 02:26:02.4	92.180	-0.010	-0.540	0.680
2020/01/31 02:26:02.5	92.180	-0.020	-0.530	0.710
2020/01/31 02:26:02.6	92.190	-0.040	-0.520	0.730
2020/01/31 02:26:02.7	92.200	-0.050	-0.510	0.750
2020/01/31 02:26:02.8	92.220	-0.060	-0.490	0.770
2020/01/31 02:26:02.9	92.230	-0.070	-0.480	0.780
2020/01/31 02:26:03.0	92.260	-0.080	-0.480	0.800
2020/01/31 02:26:03.1	92.280	-0.090	-0.470	0.810
2020/01/31 02:26:03.2	92.310	-0.100	-0.460	0.820
2020/01/31 02:26:03.3	92.340	-0.110	-0.460	0.830
2020/01/31 02:26:03.4	92.370	-0.110	-0.460	0.840
2020/01/31 02:26:03.5	92.390	-0.110	-0.450	0.850
2020/01/31 02:26:03.6	92.420	-0.120	-0.450	0.850
2020/01/31 02:26:03.7	92.450	-0.120	-0.450	0.860
2020/01/31 02:26:03.8	92.480	-0.120	-0.440	0.870
2020/01/31 02:26:03.9	92.510	-0.110	-0.440	0.880
2020/01/31 02:26:04.0	92.530	-0.110	-0.430	0.890
2020/01/31 02:26:04.1	92.550	-0.110	-0.420	0.900
2020/01/31 02:26:04.2	92.570	-0.100	-0.410	0.910
2020/01/31 02:26:04.3	92.580	-0.100	-0.400	0.930
2020/01/31 02:26:04.4	92.590	-0.090	-0.390	0.940
2020/01/31 02:26:04.5	92.600	-0.090	-0.370	0.960
2020/01/31 02:26:04.6	92.610	-0.080	-0.360	0.970
2020/01/31 02:26:04.7	92.610	-0.080	-0.340	0.990
2020/01/31 02:26:04.8	92.610	-0.080	-0.310	1.000
2020/01/31 02:26:04.9	92.600	-0.070	-0.290	1.020
2020/01/31 02:26:05.0	92.590	-0.070	-0.260	1.040
2020/01/31 02:26:05.1	92.590	-0.070	-0.240	1.060
2020/01/31 02:26:05.2	92.570	-0.070	-0.210	1.070
2020/01/31 02:26:05.3	92.560	-0.080	-0.180	1.090
2020/01/31 02:26:05.4	92.550	-0.080	-0.150	1.110
2020/01/31 02:26:05.5	92.530	-0.090	-0.120	1.130
2020/01/31 02:26:05.6	92.510	-0.090	-0.090	1.140
2020/01/31 02:26:05.7	92.500	-0.100	-0.060	1.160
2020/01/31 02:26:05.8	92.480	-0.110	-0.040	1.180
2020/01/31 02:26:05.9	92.460	-0.120	-0.010	1.200
2020/01/31 02:26:06.0	92.440	-0.130	0.010	1.220
2020/01/31 02:26:06.1	92.420	-0.140	0.040	1.240
2020/01/31 02:26:06.2	92.400	-0.150	0.060	1.260
2020/01/31 02:26:06.3	92.390	-0.170	0.070	1.270
2020/01/31 02:26:06.4	92.370	-0.180	0.090	1.290
2020/01/31 02:26:06.5	92.350	-0.190	0.100	1.300
2020/01/31 02:26:06.6	92.340	-0.200	0.100	1.320
2020/01/31 02:26:06.7	92.320	-0.210	0.110	1.330
2020/01/31 02:26:06.8	92.310	-0.220	0.110	1.330
2020/01/31 02:26:06.9	92.300	-0.220	0.110	1.340
2020/01/31 02:26:07.0	92.290	-0.230	0.100	1.340
2020/01/31 02:26:07.1	92.270	-0.230	0.090	1.340
2020/01/31 02:26:07.2	92.260	-0.240	0.080	1.330
2020/01/31 02:26:07.3	92.250	-0.240	0.070	1.320
2020/01/31 02:26:07.4	92.240	-0.230	0.050	1.310
2020/01/31 02:26:07.5	92.230	-0.230	0.040	1.290
2020/01/31 02:26:07.6	92.220	-0.220	0.020	1.270
2020/01/31 02:26:07.7	92.210	-0.220	0.000	1.240
2020/01/31 02:26:07.8	92.210	-0.210	-0.010	1.210
2020/01/31 02:26:07.9	92.200	-0.190	-0.030	1.180
2020/01/31 02:26:08.0	92.190	-0.180	-0.040	1.140
2020/01/31 02:26:08.1	92.180	-0.160	-0.060	1.100
2020/01/31 02:26:08.2	92.180	-0.150	-0.070	1.050
2020/01/31 02:26:08.3	92.170	-0.130	-0.090	1.000
2020/01/31 02:26:08.4	92.170	-0.110	-0.100	0.950
2020/01/31 02:26:08.5	92.170	-0.090	-0.110	0.890
2020/01/31 02:26:08.6	92.160	-0.070	-0.110	0.840
2020/01/31 02:26:08.7	92.160	-0.050	-0.120	0.780
2020/01/31 02:26:08.8	92.160	-0.030	-0.120	0.720
2020/01/31 02:26:08.9	92.160	-0.010	-0.130	0.670
2020/01/31 02:26:09.0	92.160	0.020	-0.130	0.610
2020/01/31 02:26:09.1	92.150	0.040	-0.130	0.560
2020/01/31 02:26:09.2	92.150	0.060	-0.130	0.510
2020/01/31 02:26:09.3	92.140	0.080	-0.130	0.460
2020/01/31 02:26:09.4	92.140	0.100	-0.120	0.420
2020/01/31 02:26:09.5	92.130	0.120	-0.120	0.380
2020/01/31 02:26:09.6	92.120	0.140	-0.120	0.340
2020/01/31 02:26:09.7	92.110	0.160	-0.120	0.310
2020/01/31 02:26:09.8	92.110	0.180	-0.120	0.280
2020/01/31 02:26:09.9	92.100	0.190	-0.120	0.260
2020/01/31 02:26:10.0	92.080	0.210	-0.120	0.240
2020/01/31 02:26:10.1	92.070	0.220	-0.130	0.230
2020/01/31 02:26:10.2	92.060	0.240	-0.130	0.220
2020/01/31 02:26:10.3	92.050	0.250	-0.140	0.220
2020/01/31 02:26:10.4	92.040	0.260	-0.150	0.210
2020/01/31 02:26:10.5	92.030	0.280	-0.160	0.210
2020/01/31 02:26:10.6	92.020	0.290	-0.170	0.220
2020/01/31 02:26:10.7	92.020	0.300	-0.180	0.220
2020/01/31 02:26:10.8	92.010	0.310	-0.200	0.220
2020/01/31 02:26:10.9	92.010	0.310	-0.220	0.220
2020/01/31 02:26:11.0	92.010	0.320	-0.240	0.230
2020/01/31 02:26:11.1	92.020	0.330	-0.260	0.230
2020/01/31 02:26:11.2	92.020	0.340	-0.280	0.240
2020/01/31 02:26:11.3	92.030	0.340	-0.310	0.240
2020/01/31 02:26:11.4	92.050	0.350	-0.330	0.240
2020/01/31 02:26:11.5	92.060	0.350	-0.360	0.250
2020/01/31 02:26:11.6	92.070	0.360	-0.390	0.250
2020/01/31 02:26:11.7	92.090	0.360	-0.420	0.260
2020/01/31 02:26:11.8	92.110	0.370	-0.450	0.260
2020/01/31 02:26:11.9	92.130	0.370	-0.480	0.270
2020/01/31 02:26:12.0	92.140	0.370	-0.510	0.290
2020/01/31 02:26:12.1	92.160	0.380	-0.530	0.300
2020/01/31 02:26:12.2	92.180	0.380	-0.560	0.320
2020/01/31 02:26:12.3	92.200	0.380	-0.580	0.340
2020/01/31 02:26:12.4	92.220	0.370	-0.600	0.370
2020/01/31 02:26:12.5	92.230	0.370	-0.620	0.400
2020/01/31 02:26:12.6	92.250	0.360	-0.630	0.430
2020/01/31 02:26:12.7	92.260	0.360	-0.640	0.460
2020/01/31 02:26:12.8	92.270	0.350	-0.640	0.500
2020/01/31 02:26:12.9	92.280	0.340	-0.640	0.540
2020/01/31 02:26:13.0	92.290	0.320	-0.630	0.580
2020/01/31 02:26:13.1	92.310	0.310	-0.630	0.620
2020/01/31 02:26:13.2	92.310	0.290	-0.610	0.660
2020/01/31 02:26:13.3	92.320	0.270	-0.590	0.710
2020/01/31 02:26:13.4	92.320	0.250	-0.560	0.750
2020/01/31 02:26:13.5	92.330	0.220	-0.530	0.790
2020/01/31 02:26:13.6	92.330	0.190	-0.500	0.840
2020/01/31 02:26:13.7	92.330	0.160	-0.460	0.880
2020/01/31 02:26:13.8	92.330	0.130	-0.420	0.920
2020/01/31 02:26:13.9	92.320	0.100	-0.370	0.970
2020/01/31 02:26:14.0	92.320	0.070	-0.330	1.010
2020/01/31 02:26:14.1	92.320	0.030	-0.280	1.050
2020/01/31 02:26:14.2	92.310	-0.000	-0.230	1.090
2020/01/31 02:26:14.3	92.300	-0.040	-0.180	1.120
2020/01/31 02:26:14.4	92.300	-0.070	-0.130	1.160
2020/01/31 02:26:14.5	92.290	-0.110	-0.080	1.190
2020/01/31 02:26:14.6	92.280	-0.150	-0.040	1.230
2020/01/31 02:26:14.7	92.270	-0.180	0.010	1.260
2020/01/31 02:26:14.8	92.260	-0.220	0.050	1.290
2020/01/31 02:26:14.9	92.250	-0.250	0.090	1.320
2020/01/31 02:26:15.0	92.240	-0.280	0.120	1.350
2020/01/31 02:26:15.1	92.240	-0.310	0.160	1.380
2020/01/31 02:26:15.2	92.230	-0.340	0.180	1.400
2020/01/31 02:26:15.3	92.230	-0.370	0.210	1.420
2020/01/31 02:26:15.4	92.220	-0.390	0.230	1.440
2020/01/31 02:26:15.5	92.220	-0.410	0.240	1.460
2020/01/31 02:26:15.6	92.220	-0.430	0.250	1.470
2020/01/31 02:26:15.7	92.220	-0.450	0.260	1.480
2020/01/31 02:26:15.8	92.220	-0.460	0.260	1.490
2020/01/31 02:26:15.9	92.230	-0.470	0.250	1.490
2020/01/31 02:26:16.0	92.230	-0.480	0.240	1.480
2020/01/31 02:26:16.1	92.230	-0.490	0.230	1.480
2020/01/31 02:26:16.2	92.250	-0.490	0.210	1.460
2020/01/31 02:26:16.3	92.260	-0.490	0.190	1.450
2020/01/31 02:26:16.4	92.270	-0.490	0.160	1.430
2020/01/31 02:26:16.5	92.290	-0.480	0.130	1.400
2020/01/31 02:26:16.6	92.310	-0.480	0.090	1.370
2020/01/31 02:26:16.7	92.330	-0.470	0.060	1.340
2020/01/31 02:26:16.8	92.350	-0.450	0.020	1.300
2020/01/31 02:26:16.9	92.370	-0.440	-0.030	1.260
2020/01/31 02:26:17.0	92.390	-0.420	-0.070	1.220
2020/01/31 02:26:17.1	92.420	-0.410	-0.120	1.170
2020/01/31 02:26:17.2	92.440	-0.390	-0.170	1.130
2020/01/31 02:26:17.3	92.460	-0.360	-0.220	1.080
2020/01/31 02:26:17.4	92.480	-0.340	-0.270	1.040
2020/01/31 02:26:17.5	92.500	-0.320	-0.320	1.000
2020/01/31 02:26:17.6	92.510	-0.290	-0.360	0.960
2020/01/31 02:26:17.7	92.520	-0.260	-0.410	0.920
2020/01/31 02:26:17.8	92.530	-0.240	-0.460	0.890
2020/01/31 02:26:17.9	92.530	-0.210	-0.500	0.850
2020/01/31 02:26:18.0	92.530	-0.180	-0.540	0.820
2020/01/31 02:26:18.1	92.540	-0.160	-0.580	0.800
2020/01/31 02:26:18.2	92.530	-0.130	-0.620	0.780
2020/01/31 02:26:18.3	92.530	-0.100	-0.650	0.760
2020/01/31 02:26:18.4	92.520	-0.080	-0.670	0.740
2020/01/31 02:26:18.5	92.500	-0.050	-0.700	0.730
2020/01/31 02:26:18.6	92.490	-0.030	-0.720	0.730
2020/01/31 02:26:18.7	92.470	-0.010	-0.730	0.720
2020/01/31 02:26:18.8	92.440	0.010	-0.740	0.720
2020/01/31 02:26:18.9	92.420	0.030	-0.740	0.720
2020/01/31 02:26:19.0	92.390	0.050	-0.740	0.730
2020/01/31 02:26:19.1	92.360	0.070	-0.730	0.740
2020/01/31 02:26:19.2	92.330	0.090	-0.720	0.740
2020/01/31 02:26:19.3	92.300	0.100	-0.710	0.750
2020/01/31 02:26:19.4	92.270	0.120	-0.690	0.760
2020/01/31 02:26:19.5	92.230	0.130	-0.670	0.770
2020/01/31 02:26:19.6	92.200	0.140	-0.640	0.780
2020/01/31 02:26:19.7	92.170	0.150	-0.610	0.790
2020/01/31 02:26:19.8	92.140	0.160	-0.580	0.790
2020/01/31 02:26:19.9	92.110	0.170	-0.550	0.800
2020/01/31 02:26:20.0	92.080	0.180	-0.520	0.800
2020/01/31 02:26:20.1	92.070	0.190	-0.480	0.790
2020/01/31 02:26:20.2	92.040	0.190	-0.440	0.790
2020/01/31 02:26:20.3	92.020	0.200	-0.410	0.780
2020/01/31 02:26:20.4	92.000	0.210	-0.380	0.770
2020/01/31 02:26:20.5	91.980	0.220	-0.340	0.760
2020/01/31 02:26:20.6	91.970	0.220	-0.310	0.740
2020/01/31 02:26:20.7	91.960	0.230	-0.280	0.720
2020/01/31 02:26:20.8	91.950	0.230	-0.250	0.690
2020/01/31 02:26:20.9	91.940	0.240	-0.220	0.670
2020/01/31 02:26:21.0	91.940	0.240	-0.200	0.640
2020/01/31 02:26:21.1	91.940	0.250	-0.170	0.610
2020/01/31 02:26:21.2	91.950	0.260	-0.150	0.570
2020/01/31 02:26:21.3	91.950	0.260	-0.130	0.530
2020/01/31 02:26:21.4	91.960	0.260	-0.110	0.490
2020/01/31 02:26:21.5	91.980	0.270	-0.100	0.450
2020/01/31 02:26:21.6	91.990	0.270	-0.080	0.410
2020/01/31 02:26:21.7	92.010	0.280	-0.070	0.370
2020/01/31 02:26:21.8	92.030	0.280	-0.050	0.340
2020/01/31 02:26:21.9	92.050	0.280	-0.040	0.300
2020/01/31 02:26:22.0	92.070	0.280	-0.030	0.270
2020/01/31 02:26:22.1	92.080	0.280	-0.010	0.240
2020/01/31 02:26:22.2	92.110	0.280	-0.000	0.210
2020/01/31 02:26:22.3	92.130	0.270	0.010	0.180
2020/01/31 02:26:22.4	92.160	0.270	0.020	0.160
2020/01/31 02:26:22.5	92.180	0.260	0.040	0.140
2020/01/31 02:26:22.6	92.200	0.250	0.050	0.120
2020/01/31 02:26:22.7	92.220	0.240	0.070	0.100
2020/01/31 02:26:22.8	92.250	0.230	0.080	0.090
2020/01/31 02:26:22.9	92.260	0.220	0.090	0.080
2020/01/31 02:26:23.0	92.280	0.200	0.110	0.070
2020/01/31 02:26:23.1	92.300	0.190	0.120	0.060
2020/01/31 02:26:23.2	92.320	0.170	0.140	0.050
2020/01/31 02:26:23.3	92.330	0.150	0.150	0.050
2020/01/31 02:26:23.4	92.340	0.130	0.160	0.040
2020/01/31 02:26:23.5	92.340	0.110	0.170	0.040
2020/01/31 02:26:23.6	92.350	0.090	0.170	0.040
2020/01/31 02:26:23.7	92.350	0.070	0.180	0.040
2020/01/31 02:26:23.8	92.350	0.050	0.180	0.050
2020/01/31 02:26:23.9	92.350	0.020	0.170	0.060
2020/01/31 02:26:24.0	92.350	0.000	0.170	0.070
2020/01/31 02:26:24.1	92.350	-0.020	0.160	0.080
2020/01/31 02:26:24.2	92.350	-0.040	0.150	0.100
2020/01/31 02:26:24.3	92.350	-0.050	0.140	0.120
2020/01/31 02:26:24.4	92.340	-0.070	0.120	0.140
2020/01/31 02:26:24.5	92.340	-0.090	0.100	0.160
2020/01/31 02:26:24.6	92.340	-0.100	0.070	0.190
2020/01/31 02:26:24.7	92.340	-0.120	0.050	0.220
2020/01/31 02:26:24.8	92.340	-0.130	0.020	0.260
2020/01/31 02:26:24.9	92.340	-0.140	-0.010	0.300
2020/01/31 02:26:25.0	92.340	-0.150	-0.050	0.340
2020/01/31 02:26:25.1	92.350	-0.150	-0.080	0.390
2020/01/31 02:26:25.2	92.350	-0.160	-0.120	0.430
2020/01/31 02:26:25.3	92.360	-0.170	-0.150	0.480
2020/01/31 02:26:25.4	92.370	-0.170	-0.190	0.530
2020/01/31 02:26:25.5	92.370	-0.170	-0.230	0.580
2020/01/31 02:26:25.6	92.380	-0.170	-0.270	0.630
2020/01/31 02:26:25.7	92.400	-0.180	-0.310	0.680
2020/01/31 02:26:25.8	92.410	-0.180	-0.340	0.730
2020/01/31 02:26:25.9	92.420	-0.180	-0.380	0.780
2020/01/31 02:26:26.0	92.440	-0.180	-0.420	0.830
2020/01/31 02:26:26.1	92.450	-0.180	-0.450	0.880
2020/01/31 02:26:26.2	92.470	-0.180	-0.480	0.920
2020/01/31 02:26:26.3	92.480	-0.180	-0.510	0.960
2020/01/31 02:26:26.4	92.500	-0.180	-0.540	1.000
2020/01/31 02:26:26.5	92.510	-0.180	-0.560	1.040
2020/01/31 02:26:26.6	92.530	-0.180	-0.580	1.070
2020/01/31 02:26:26.7	92.540	-0.190	-0.590	1.100
2020/01/31 02:26:26.8	92.550	-0.190	-0.600	1.130
2020/01/31 02:26:26.9	92.560	-0.200	-0.600	1.150
2020/01/31 02:26:27.0	92.570	-0.200	-0.600	1.170
2020/01/31 02:26:27.1	92.590	-0.210	-0.590	1.190
2020/01/31 02:26:27.2	92.600	-0.220	-0.570	1.200
2020/01/31 02:26:27.3	92.600	-0.230	-0.550	1.210
2020/01/31 02:26:27.4	92.610	-0.240	-0.530	1.220
2020/01/31 02:26:27.5	92.600	-0.250	-0.500	1.220
2020/01/31 02:26:27.6	92.600	-0.260	-0.460	1.230
2020/01/31 02:26:27.7	92.590	-0.270	-0.420	1.230
2020/01/31 02:26:27.8	92.590	-0.280	-0.380	1.230
2020/01/31 02:26:27.9	92.570	-0.290	-0.330	1.230
2020/01/31 02:26:28.0	92.560	-0.310	-0.280	1.240
2020/01/31 02:26:28.1	92.550	-0.320	-0.220	1.240
2020/01/31 02:26:28.2	92.530	-0.330	-0.170	1.240
2020/01/31 02:26:28.3	92.510	-0.340	-0.110	1.250
2020/01/31 02:26:28.4	92.480	-0.350	-0.060	1.250
2020/01/31 02:26:28.5	92.460	-0.350	-0.010	1.250
2020/01/31 02:26:28.6	92.440	-0.360	0.040	1.260
2020/01/31 02:26:28.7	92.410	-0.370	0.090	1.260
2020/01/31 02:26:28.8	92.390	-0.370	0.130	1.270
2020/01/31 02:26:28.9	92.360	-0.370	0.170	1.270
2020/01/31 02:26:29.0	92.340	-0.370	0.200	1.280
2020/01/31 02:26:29.1	92.310	-0.370	0.230	1.280
2020/01/31 02:26:29.2	92.280	-0.360	0.240	1.280
2020/01/31 02:26:29.3	92.260	-0.360	0.260	1.280
2020/01/31 02:26:29.4	92.230	-0.350	0.260	1.270
2020/01/31 02:26:29.5	92.210	-0.330	0.260	1.270
2020/01/31 02:26:29.6	92.190	-0.320	0.250	1.260
2020/01/31 02:26:29.7	92.170	-0.300	0.230	1.250
2020/01/31 02:26:29.8	92.150	-0.280	0.200	1.230
2020/01/31 02:26:29.9	92.130	-0.260	0.160	1.220
2020/01/31 02:26:30.0	92.110	-0.230	0.120	1.190
2020/01/31 02:26:30.1	92.100	-0.200	0.070	1.170
2020/01/31 02:26:30.2	92.090	-0.170	0.010	1.140
2020/01/31 02:26:30.3	92.070	-0.130	-0.060	1.100
2020/01/31 02:26:30.4	92.070	-0.100	-0.130	1.060
2020/01/31 02:26:30.5	92.060	-0.060	-0.200	1.010
2020/01/31 02:26:30.6	92.050	-0.020	-0.280	0.960
2020/01/31 02:26:30.7	92.050	0.030	-0.360	0.910
2020/01/31 02:26:30.8	92.050	0.070	-0.440	0.850
2020/01/31 02:26:30.9	92.050	0.120	-0.520	0.780
2020/01/31 02:26:31.0	92.050	0.160	-0.600	0.720
2020/01/31 02:26:31.1	92.060	0.210	-0.690	0.650
2020/01/31 02:26:31.2	92.060	0.250	-0.760	0.580
2020/01/31 02:26:31.3	92.080	0.300	-0.830	0.510
2020/01/31 02:26:31.4	92.090	0.340	-0.900	0.440
2020/01/31 02:26:31.5	92.110	0.380	-0.960	0.370
2020/01/31 02:26:31.6	92.130	0.420	-1.010	0.300
2020/01/31 02:26:31.7	92.150	0.460	-1.050	0.230
2020/01/31 02:26:31.8	92.170	0.490	-1.080	0.170
2020/01/31 02:26:31.9	92.190	0.530	-1.100	0.120
2020/01/31 02:26:32.0	92.210	0.550	-1.110	0.070
2020/01/31 02:26:32.1	92.240	0.580	-1.110	0.030
2020/01/31 02:26:32.2	92.260	0.600	-1.100	-0.010
2020/01/31 02:26:32.3	92.280	0.620	-1.080	-0.050
2020/01/31 02:26:32.4	92.300	0.630	-1.060	-0.070
2020/01/31 02:26:32.5	92.320	0.640	-1.020	-0.090
2020/01/31 02:26:32.6	92.340	0.650	-0.980	-0.110
2020/01/31 02:26:32.7	92.360	0.650	-0.920	-0.110
2020/01/31 02:26:32.8	92.380	0.650	-0.860	-0.120
2020/01/31 02:26:32.9	92.390	0.640	-0.800	-0.110
2020/01/31 02:26:33.0	92.400	0.630	-0.720	-0.100
2020/01/31 02:26:33.1	92.420	0.610	-0.650	-0.080
2020/01/31 02:26:33.2	92.430	0.590	-0.570	-0.060
2020/01/31 02:26:33.3	92.430	0.570	-0.480	-0.030
2020/01/31 02:26:33.4	92.440	0.550	-0.400	-0.000
2020/01/31 02:26:33.5	92.440	0.520	-0.310	0.030
2020/01/31 02:26:33.6	92.450	0.490	-0.230	0.070
2020/01/31 02:26:33.7	92.450	0.460	-0.150	0.100
2020/01/31 02:26:33.8	92.450	0.420	-0.070	0.140
2020/01/31 02:26:33.9	92.440	0.380	0.010	0.190
2020/01/31 02:26:34.0	92.440	0.340	0.090	0.230
2020/01/31 02:26:34.1	92.440	0.300	0.160	0.270
2020/01/31 02:26:34.2	92.430	0.260	0.220	0.320
2020/01/31 02:26:34.3	92.420	0.220	0.280	0.360
2020/01/31 02:26:34.4	92.420	0.180	0.330	0.410
2020/01/31 02:26:34.5	92.410	0.140	0.380	0.450
2020/01/31 02:26:34.6	92.400	0.090	0.420	0.500
2020/01/31 02:26:34.7	92.390	0.050	0.460	0.540
2020/01/31 02:26:34.8	92.380	0.010	0.490	0.580
2020/01/31 02:26:34.9	92.360	-0.030	0.510	0.620
2020/01/31 02:26:35.0	92.350	-0.070	0.520	0.660
2020/01/31 02:26:35.1	92.350	-0.110	0.530	0.710
2020/01/31 02:26:35.2	92.330	-0.140	0.530	0.750
2020/01/31 02:26:35.3	92.320	-0.180	0.530	0.780
2020/01/31 02:26:35.4	92.310	-0.210	0.520	0.810
2020/01/31 02:26:35.5	92.300	-0.240	0.510	0.850
2020/01/31 02:26:35.6	92.290	-0.270	0.490	0.880
2020/01/31 02:26:35.7	92.280	-0.300	0.460	0.910
2020/01/31 02:26:35.8	92.280	-0.320	0.440	0.930
2020/01/31 02:26:35.9	92.270	-0.340	0.410	0.950
2020/01/31 02:26:36.0	92.270	-0.360	0.370	0.980
2020/01/31 02:26:36.1	92.270	-0.380	0.340	0.990
2020/01/31 02:26:36.2	92.260	-0.400	0.300	1.010
2020/01/31 02:26:36.3	92.260	-0.420	0.260	1.020
2020/01/31 02:26:36.4	92.270	-0.430	0.220	1.040
2020/01/31 02:26:36.5	92.270	-0.440	0.190	1.050
2020/01/31 02:26:36.6	92.270	-0.450	0.150	1.060
2020/01/31 02:26:36.7	92.280	-0.460	0.110	1.070
2020/01/31 02:26:36.8	92.280	-0.470	0.080	1.080
2020/01/31 02:26:36.9	92.290	-0.480	0.050	1.090
2020/01/31 02:26:37.0	92.290	-0.490	0.020	1.100
2020/01/31 02:26:37.1	92.300	-0.500	-0.010	1.110
2020/01/31 02:26:37.2	92.310	-0.500	-0.040	1.120
2020/01/31 02:26:37.3	92.310	-0.510	-0.060	1.120
2020/01/31 02:26:37.4	92.320	-0.510	-0.080	1.120
2020/01/31 02:26:37.5	92.320	-0.520	-0.100	1.130
2020/01/31 02:26:37.6	92.320	-0.520	-0.120	1.130
2020/01/31 02:26:37.7	92.330	-0.520	-0.130	1.130
2020/01/31 02:26:37.8	92.330	-0.520	-0.150	1.140
2020/01/31 02:26:37.9	92.330	-0.520	-0.160	1.140
2020/01/31 02:26:38.0	92.330	-0.510	-0.180	1.140
2020/01/31 02:26:38.1	92.320	-0.510	-0.200	1.140
2020/01/31 02:26:38.2	92.320	-0.500	-0.210	1.140
2020/01/31 02:26:38.3	92.320	-0.490	-0.230	1.150
2020/01/31 02:26:38.4	92.320	-0.480	-0.250	1.150
2020/01/31 02:26:38.5	92.310	-0.470	-0.280	1.150
2020/01/31 02:26:38.6	92.310	-0.450	-0.300	1.150
2020/01/31 02:26:38.7	92.310	-0.430	-0.330	1.150
2020/01/31 02:26:38.8	92.300	-0.410	-0.360	1.150
2020/01/31 02:26:38.9	92.300	-0.380	-0.400	1.150
2020/01/31 02:26:39.0	92.300	-0.350	-0.440	1.140
2020/01/31 02:26:39.1	92.290	-0.320	-0.480	1.140
2020/01/31 02:26:39.2	92.290	-0.290	-0.520	1.130
2020/01/31 02:26:39.3	92.290	-0.250	-0.570	1.110
2020/01/31 02:26:39.4	92.280	-0.200	-0.620	1.100
2020/01/31 02:26:39.5	92.280	-0.160	-0.670	1.080
2020/01/31 02:26:39.6	92.280	-0.110	-0.730	1.070
2020/01/31 02:26:39.7	92.280	-0.060	-0.780	1.040
2020/01/31 02:26:39.8	92.280	-0.010	-0.840	1.020
2020/01/31 02:26:39.9	92.280	0.040	-0.890	1.000
2020/01/31 02:26:40.0	92.280	0.100	-0.940	0.970
2020/01/31 02:26:40.1	92.290	0.150	-0.990	0.950
2020/01/31 02:26:40.2	92.290	0.210	-1.040	0.920
2020/01/31 02:26:40.3	92.290	0.260	-1.070	0.890
2020/01/31 02:26:40.4	92.290	0.310	-1.100	0.870
2020/01/31 02:26:40.5	92.290	0.360	-1.130	0.840
2020/01/31 02:26:40.6	92.280	0.400	-1.140	0.810
2020/01/31 02:26:40.7	92.280	0.450	-1.140	0.790
2020/01/31 02:26:40.8	92.280	0.490	-1.140	0.760
2020/01/31 02:26:40.9	92.270	0.520	-1.120	0.740
2020/01/31 02:26:41.0	92.270	0.550	-1.090	0.720
2020/01/31 02:26:41.1	92.260	0.570	-1.050	0.700
2020/01/31 02:26:41.2	92.260	0.590	-1.000	0.690
2020/01/31 02:26:41.3	92.250	0.600	-0.940	0.670
2020/01/31 02:26:41.4	92.240	0.600	-0.870	0.660
2020/01/31 02:26:41.5	92.230	0.600	-0.790	0.660
2020/01/31 02:26:41.6	92.220	0.590	-0.700	0.650
2020/01/31 02:26:41.7	92.210	0.580	-0.600	0.650
2020/01/31 02:26:41.8	92.200	0.560	-0.500	0.640
2020/01/31 02:26:41.9	92.190	0.530	-0.380	0.640
2020/01/31 02:26:42.0	92.180	0.500	-0.270	0.640
2020/01/31 02:26:42.1	92.170	0.470	-0.140	0.650
2020/01/31 02:26:42.2	92.170	0.430	-0.020	0.650
2020/01/31 02:26:42.3	92.160	0.380	0.100	0.650
2020/01/31 02:26:42.4	92.150	0.330	0.220	0.650
2020/01/31 02:26:42.5	92.150	0.280	0.340	0.640
2020/01/31 02:26:42.6	92.140	0.230	0.460	0.640
2020/01/31 02:26:42.7	92.140	0.170	0.570	0.640
2020/01/31 02:26:42.8	92.140	0.110	0.670	0.630
2020/01/31 02:26:42.9	92.140	0.060	0.770	0.620
2020/01/31 02:26:43.0	92.140	0.000	0.860	0.610
2020/01/31 02:26:43.1	92.140	-0.060	0.930	0.600
2020/01/31 02:26:43.2	92.140	-0.110	1.000	0.590
2020/01/31 02:26:43.3	92.140	-0.160	1.050	0.580
2020/01/31 02:26:43.4	92.150	-0.210	1.090	0.560
2020/01/31 02:26:43.5	92.150	-0.250	1.120	0.540
2020/01/31 02:26:43.6	92.160	-0.290	1.130	0.520
2020/01/31 02:26:43.7	92.160	-0.320	1.130	0.510
2020/01/31 02:26:43.8	92.170	-0.350	1.110	0.490
2020/01/31 02:26:43.9	92.180	-0.370	1.070	0.470
2020/01/31 02:26:44.0	92.190	-0.390	1.020	0.450
2020/01/31 02:26:44.1	92.200	-0.400	0.960	0.430
2020/01/31 02:26:44.2	92.210	-0.400	0.880	0.410
2020/01/31 02:26:44.3	92.210	-0.400	0.790	0.400
2020/01/31 02:26:44.4	92.220	-0.390	0.690	0.380
2020/01/31 02:26:44.5	92.220	-0.370	0.570	0.370
2020/01/31 02:26:44.6	92.230	-0.350	0.450	0.360
2020/01/31 02:26:44.7	92.230	-0.320	0.320	0.350
2020/01/31 02:26:44.8	92.240	-0.290	0.190	0.350
2020/01/31 02:26:44.9	92.240	-0.260	0.040	0.340
2020/01/31 02:26:45.0	92.240	-0.220	-0.100	0.340
2020/01/31 02:26:45.1	92.240	-0.170	-0.250	0.350
2020/01/31 02:26:45.2	92.240	-0.130	-0.390	0.360
2020/01/31 02:26:45.3	92.240	-0.080	-0.530	0.360
2020/01/31 02:26:45.4	92.230	-0.030	-0.670	0.370
2020/01/31 02:26:45.5	92.230	0.020	-0.810	0.390
2020/01/31 02:26:45.6	92.220	0.070	-0.930	0.400
2020/01/31 02:26:45.7	92.210	0.120	-1.050	0.420
2020/01/31 02:26:45.8	92.200	0.160	-1.160	0.450
2020/01/31 02:26:45.9	92.190	0.210	-1.260	0.480
2020/01/31 02:26:46.0	92.180	0.250	-1.350	0.510
2020/01/31 02:26:46.1	92.170	0.290	-1.430	0.540
2020/01/31 02:26:46.2	92.150	0.330	-1.490	0.580
2020/01/31 02:26:46.3	92.140	0.360	-1.540	0.620
2020/01/31 02:26:46.4	92.130	0.390	-1.570	0.660
2020/01/31 02:26:46.5	92.110	0.410	-1.590	0.710
2020/01/31 02:26:46.6	92.100	0.420	-1.590	0.760
2020/01/31 02:26:46.7	92.080	0.440	-1.580	0.800
2020/01/31 02:26:46.8	92.060	0.440	-1.560	0.850
2020/01/31 02:26:46.9	92.050	0.440	-1.520	0.900
2020/01/31 02:26:47.0	92.030	0.440	-1.470	0.960
2020/01/31 02:26:47.1	92.020	0.420	-1.400	1.010
2020/01/31 02:26:47.2	92.010	0.410	-1.320	1.070
2020/01/31 02:26:47.3	91.990	0.380	-1.240	1.120
2020/01/31 02:26:47.4	91.980	0.360	-1.140	1.180
2020/01/31 02:26:47.5	91.970	0.320	-1.030	1.230
2020/01/31 02:26:47.6	91.950	0.290	-0.920	1.280
2020/01/31 02:26:47.7	91.940	0.240	-0.800	1.340
2020/01/31 02:26:47.8	91.930	0.200	-0.670	1.390
2020/01/31 02:26:47.9	91.920	0.150	-0.550	1.440
2020/01/31 02:26:48.0	91.900	0.090	-0.420	1.480
2020/01/31 02:26:48.1	91.890	0.040	-0.280	1.530
2020/01/31 02:26:48.2	91.880	-0.020	-0.150	1.560
2020/01/31 02:26:48.3	91.870	-0.080	-0.030	1.600
2020/01/31 02:26:48.4	91.860	-0.140	0.100	1.630
2020/01/31 02:26:48.5	91.850	-0.210	0.210	1.650
2020/01/31 02:26:48.6	91.840	-0.270	0.330	1.670
2020/01/31 02:26:48.7	91.830	-0.330	0.430	1.690
2020/01/31 02:26:48.8	91.830	-0.390	0.530	1.700
2020/01/31 02:26:48.9	91.820	-0.450	0.620	1.700
2020/01/31 02:26:49.0	91.810	-0.510	0.690	1.700
2020/01/31 02:26:49.1	91.800	-0.560	0.760	1.690
2020/01/31 02:26:49.2	91.800	-0.610	0.820	1.680
2020/01/31 02:26:49.3	91.800	-0.650	0.860	1.660
2020/01/31 02:26:49.4	91.790	-0.690	0.880	1.640
2020/01/31 02:26:49.5	91.790	-0.730	0.900	1.620
2020/01/31 02:26:49.6	91.790	-0.760	0.900	1.590
2020/01/31 02:26:49.7	91.780	-0.780	0.890	1.560
2020/01/31 02:26:49.8	91.780	-0.790	0.870	1.530
2020/01/31 02:26:49.9	91.780	-0.800	0.830	1.490
2020/01/31 02:26:50.0	91.780	-0.810	0.790	1.450
2020/01/31 02:26:50.1	91.780	-0.800	0.730	1.410
2020/01/31 02:26:50.2	91.780	-0.790	0.670	1.370
2020/01/31 02:26:50.3	91.780	-0.780	0.600	1.330
2020/01/31 02:26:50.4	91.790	-0.760	0.520	1.290
2020/01/31 02:26:50.5	91.790	-0.730	0.440	1.250
2020/01/31 02:26:50.6	91.800	-0.690	0.350	1.210
2020/01/31 02:26:50.7	91.800	-0.650	0.260	1.170
2020/01/31 02:26:50.8	91.810	-0.610	0.160	1.120
2020/01/31 02:26:50.9	91.820	-0.560	0.070	1.080
2020/01/31 02:26:51.0	91.830	-0.510	-0.020	1.030
2020/01/31 02:26:51.1	91.840	-0.450	-0.120	0.990
2020/01/31 02:26:51.2	91.850	-0.390	-0.210	0.950
2020/01/31 02:26:51.3	91.860	-0.330	-0.300	0.900
2020/01/31 02:26:51.4	91.870	-0.260	-0.380	0.860
2020/01/31 02:26:51.5	91.880	-0.200	-0.460	0.810
2020/01/31 02:26:51.6	91.890	-0.130	-0.530	0.770
2020/01/31 02:26:51.7	91.900	-0.070	-0.600	0.730
2020/01/31 02:26:51.8	91.910	-0.000	-0.660	0.690
2020/01/31 02:26:51.9	91.920	0.060	-0.710	0.650
2020/01/31 02:26:52.0	91.930	0.130	-0.760	0.610
2020/01/31 02:26:52.1	91.930	0.190	-0.790	0.580
2020/01/31 02:26:52.2	91.940	0.250	-0.820	0.550
2020/01/31 02:26:52.3	91.940	0.300	-0.850	0.520
2020/01/31 02:26:52.4	91.950	0.350	-0.860	0.500
2020/01/31 02:26:52.5	91.950	0.400	-0.860	0.480
2020/01/31 02:26:52.6	91.960	0.450	-0.860	0.460
2020/01/31 02:26:52.7	91.960	0.490	-0.850	0.450
2020/01/31 02:26:52.8	91.960	0.520	-0.830	0.440
2020/01/31 02:26:52.9	91.960	0.550	-0.810	0.430
2020/01/31 02:26:53.0	91.960	0.580	-0.780	0.430
2020/01/31 02:26:53.1	91.960	0.600	-0.740	0.430
2020/01/31 02:26:53.2	91.950	0.610	-0.700	0.430
2020/01/31 02:26:53.3	91.950	0.620	-0.650	0.430
2020/01/31 02:26:53.4	91.950	0.620	-0.600	0.430
2020/01/31 02:26:53.5	91.950	0.620	-0.540	0.440
2020/01/31 02:26:53.6	91.950	0.620	-0.480	0.440
2020/01/31 02:26:53.7	91.950	0.610	-0.420	0.450
2020/01/31 02:26:53.8	91.940	0.600	-0.360	0.460
2020/01/31 02:26:53.9	91.940	0.580	-0.290	0.470
2020/01/31 02:26:54.0	91.940	0.560	-0.230	0.470
2020/01/31 02:26:54.1	91.930	0.540	-0.160	0.480
2020/01/31 02:26:54.2	91.920	0.510	-0.100	0.490
2020/01/31 02:26:54.3	91.920	0.490	-0.040	0.490
2020/01/31 02:26:54.4	91.920	0.460	0.010	0.490
2020/01/31 02:26:54.5	91.910	0.430	0.070	0.500
2020/01/31 02:26:54.6	91.910	0.400	0.110	0.500
2020/01/31 02:26:54.7	91.910	0.370	0.150	0.500
2020/01/31 02:26:54.8	91.900	0.340	0.190	0.500
2020/01/31 02:26:54.9	91.900	0.310	0.220	0.500
2020/01/31 02:26:55.0	91.900	0.290	0.240	0.490
2020/01/31 02:26:55.1	91.890	0.260	0.260	0.500
2020/01/31 02:26:55.2	91.890	0.240	0.270	0.500
2020/01/31 02:26:55.3	91.890	0.220	0.280	0.500
2020/01/31 02:26:55.4	91.880	0.200	0.270	0.500
2020/01/31 02:26:55.5	91.880	0.190	0.260	0.500
2020/01/31 02:26:55.6	91.870	0.170	0.250	0.510
2020/01/31 02:26:55.7	91.870	0.160	0.220	0.510
2020/01/31 02:26:55.8	91.860	0.160	0.190	0.530
2020/01/31 02:26:55.9	91.860	0.150	0.160	0.540
2020/01/31 02:26:56.0	91.850	0.140	0.120	0.560
2020/01/31 02:26:56.1	91.840	0.140	0.080	0.580
2020/01/31 02:26:56.2	91.830	0.140	0.030	0.600
2020/01/31 02:26:56.3	91.830	0.140	-0.010	0.620
2020/01/31 02:26:56.4	91.820	0.140	-0.060	0.640
2020/01/31 02:26:56.5	91.820	0.140	-0.110	0.670
2020/01/31 02:26:56.6	91.810	0.140	-0.160	0.700
2020/01/31 02:26:56.7	91.810	0.130	-0.210	0.720
2020/01/31 02:26:56.8	91.810	0.130	-0.260	0.750
2020/01/31 02:26:56.9	91.810	0.130	-0.300	0.780
2020/01/31 02:26:57.0	91.810	0.130	-0.350	0.810
2020/01/31 02:26:57.1	91.830	0.120	-0.390	0.850
2020/01/31 02:26:57.2	91.830	0.110	-0.430	0.880
2020/01/31 02:26:57.3	91.830	0.100	-0.470	0.900
2020/01/31 02:26:57.4	91.830	0.090	-0.500	0.930
2020/01/31 02:26:57.5	91.830	0.080	-0.530	0.950
2020/01/31 02:26:57.6	91.840	0.070	-0.550	0.980
2020/01/31 02:26:57.7	91.840	0.060	-0.580	1.000
2020/01/31 02:26:57.8	91.840	0.040	-0.600	1.010
2020/01/31 02:26:57.9	91.850	0.020	-0.610	1.030
2020/01/31 02:26:58.0	91.850	0.010	-0.630	1.050
2020/01/31 02:26:58.1	91.840	-0.010	-0.640	1.070
2020/01/31 02:26:58.2	91.840	-0.030	-0.640	1.080
2020/01/31 02:26:58.3	91.840	-0.050	-0.650	1.090
2020/01/31 02:26:58.4	91.840	-0.070	-0.650	1.110
2020/01/31 02:26:58.5	91.840	-0.090	-0.650	1.120
2020/01/31 02:26:58.6	91.830	-0.110	-0.640	1.140
2020/01/31 02:26:58.7	91.830	-0.130	-0.640	1.150
2020/01/31 02:26:58.8	91.830	-0.140	-0.630	1.170
2020/01/31 02:26:58.9	91.820	-0.160	-0.610	1.190
2020/01/31 02:26:59.0	91.820	-0.180	-0.590	1.210
2020/01/31 02:26:59.1	91.810	-0.190	-0.570	1.220
2020/01/31 02:26:59.2	91.810	-0.210	-0.550	1.240
2020/01/31 02:26:59.3	91.800	-0.220	-0.530	1.260
2020/01/31 02:26:59.4	91.790	-0.230	-0.500	1.280
2020/01/31 02:26:59.5	91.790	-0.250	-0.470	1.300
2020/01/31 02:26:59.6	91.780	-0.260	-0.430	1.310
2020/01/31 02:26:59.7	91.770	-0.270	-0.400	1.330
2020/01/31 02:26:59.8	91.760	-0.280	-0.360	1.350
2020/01/31 02:26:59.9	91.760	-0.290	-0.320	1.360
2020/01/31 02:27:00.0	91.750	-0.310	-0.280	1.370
2020/01/31 02:27:00.1	91.750	-0.320	-0.240	1.390
2020/01/31 02:27:00.2	91.740	-0.330	-0.190	1.390
2020/01/31 02:27:00.3	91.730	-0.340	-0.150	1.400
2020/01/31 02:27:00.4	91.730	-0.350	-0.110	1.400
2020/01/31 02:27:00.5	91.720	-0.360	-0.070	1.400
2020/01/31 02:27:00.6	91.720	-0.370	-0.030	1.400
2020/01/31 02:27:00.7	91.710	-0.380	0.000	1.390
2020/01/31 02:27:00.8	91.710	-0.380	0.040	1.380
2020/01/31 02:27:00.9	91.710	-0.390	0.070	1.370
2020/01/31 02:27:01.0	91.700	-0.400	0.090	1.350
2020/01/31 02:27:01.1	91.700	-0.400	0.110	1.340
2020/01/31 02:27:01.2	91.700	-0.410	0.130	1.320
2020/01/31 02:27:01.3	91.700	-0.410	0.150	1.290
2020/01/31 02:27:01.4	91.700	-0.420	0.160	1.270
2020/01/31 02:27:01.5	91.700	-0.420	0.170	1.240
2020/01/31 02:27:01.6	91.710	-0.420	0.170	1.210
2020/01/31 02:27:01.7	91.710	-0.410	0.170	1.180
2020/01/31 02:27:01.8	91.710	-0.410	0.170	1.140
2020/01/31 02:27:01.9	91.720	-0.400	0.160	1.110
2020/01/31 02:27:02.0	91.720	-0.400	0.150	1.070
2020/01/31 02:27:02.1	91.720	-0.390	0.140	1.040
2020/01/31 02:27:02.2	91.730	-0.380	0.130	1.000
2020/01/31 02:27:02.3	91.730	-0.360	0.110	0.960
2020/01/31 02:27:02.4	91.730	-0.350	0.100	0.920
2020/01/31 02:27:02.5	91.730	-0.330	0.080	0.880
2020/01/31 02:27:02.6	91.730	-0.310	0.060	0.840
2020/01/31 02:27:02.7	91.730	-0.300	0.040	0.800
2020/01/31 02:27:02.8	91.730	-0.270	0.020	0.760
2020/01/31 02:27:02.9	91.720	-0.250	-0.010	0.730
2020/01/31 02:27:03.0	91.720	-0.230	-0.030	0.690
2020/01/31 02:27:03.1	91.710	-0.210	-0.050	0.650
2020/01/31 02:27:03.2	91.700	-0.180	-0.080	0.620
2020/01/31 02:27:03.3	91.690	-0.160	-0.100	0.590
2020/01/31 02:27:03.4	91.680	-0.130	-0.130	0.570
2020/01/31 02:27:03.5	91.680	-0.100	-0.160	0.540
2020/01/31 02:27:03.6	91.670	-0.070	-0.190	0.520
2020/01/31 02:27:03.7	91.660	-0.050	-0.220	0.500
2020/01/31 02:27:03.8	91.650	-0.020	-0.240	0.480
2020/01/31 02:27:03.9	91.640	0.010	-0.280	0.460
2020/01/31 02:27:04.0	91.630	0.040	-0.310	0.450
2020/01/31 02:27:04.1	91.620	0.070	-0.340	0.440
2020/01/31 02:27:04.2	91.610	0.100	-0.370	0.430
2020/01/31 02:27:04.3	91.600	0.120	-0.400	0.420
2020/01/31 02:27:04.4	91.590	0.150	-0.430	0.420
2020/01/31 02:27:04.5	91.580	0.180	-0.460	0.410
2020/01/31 02:27:04.6	91.570	0.200	-0.490	0.410
2020/01/31 02:27:04.7	91.560	0.220	-0.520	0.400
2020/01/31 02:27:04.8	91.550	0.250	-0.540	0.400
2020/01/31 02:27:04.9	91.540	0.270	-0.560	0.400
2020/01/31 02:27:05.0	91.540	0.280	-0.580	0.400
2020/01/31 02:27:05.1	91.530	0.300	-0.600	0.400
2020/01/31 02:27:05.2	91.520	0.310	-0.610	0.400
2020/01/31 02:27:05.3	91.520	0.320	-0.620	0.400
2020/01/31 02:27:05.4	91.510	0.330	-0.620	0.400
2020/01/31 02:27:05.5	91.510	0.340	-0.620	0.400
2020/01/31 02:27:05.6	91.500	0.340	-0.610	0.400
2020/01/31 02:27:05.7	91.500	0.340	-0.600	0.410
2020/01/31 02:27:05.8	91.500	0.340	-0.590	0.410
2020/01/31 02:27:05.9	91.500	0.340	-0.570	0.410
2020/01/31 02:27:06.0	91.500	0.330	-0.540	0.420
2020/01/31 02:27:06.1	91.500	0.330	-0.510	0.430
2020/01/31 02:27:06.2	91.500	0.320	-0.480	0.440
2020/01/31 02:27:06.3	91.500	0.310	-0.440	0.450
2020/01/31 02:27:06.4	91.510	0.290	-0.400	0.460
2020/01/31 02:27:06.5	91.510	0.280	-0.350	0.480
2020/01/31 02:27:06.6	91.510	0.260	-0.310	0.490
2020/01/31 02:27:06.7	91.520	0.250	-0.250	0.510
2020/01/31 02:27:06.8	91.520	0.230	-0.200	0.530
2020/01/31 02:27:06.9	91.530	0.210	-0.150	0.550
2020/01/31 02:27:07.0	91.530	0.190	-0.090	0.570
2020/01/31 02:27:07.1	91.550	0.170	-0.040	0.610
2020/01/31 02:27:07.2	91.550	0.150	0.020	0.630
2020/01/31 02:27:07.3	91.560	0.130	0.070	0.660
2020/01/31 02:27:07.4	91.570	0.110	0.110	0.690
2020/01/31 02:27:07.5	91.570	0.090	0.160	0.720
2020/01/31 02:27:07.6	91.580	0.070	0.200	0.750
2020/01/31 02:27:07.7	91.590	0.060	0.240	0.780
2020/01/31 02:27:07.8	91.600	0.040	0.270	0.810
2020/01/31 02:27:07.9	91.610	0.030	0.290	0.840
2020/01/31 02:27:08.0	91.610	0.020	0.310	0.860
2020/01/31 02:27:08.1	91.620	0.010	0.320	0.890
2020/01/31 02:27:08.2	91.630	0.000	0.320	0.920
2020/01/31 02:27:08.3	91.640	-0.000	0.310	0.950
2020/01/31 02:27:08.4	91.640	-0.000	0.300	0.970
2020/01/31 02:27:08.5	91.650	-0.000	0.270	0.990
2020/01/31 02:27:08.6	91.650	0.000	0.240	1.010
2020/01/31 02:27:08.7	91.660	0.010	0.210	1.030
2020/01/31 02:27:08.8	91.660	0.020	0.160	1.050
2020/01/31 02:27:08.9	91.670	0.030	0.110	1.060
2020/01/31 02:27:09.0	91.670	0.050	0.060	1.070
2020/01/31 02:27:09.1	91.680	0.060	-0.000	1.080
2020/01/31 02:27:09.2	91.680	0.080	-0.060	1.090
2020/01/31 02:27:09.3	91.680	0.100	-0.130	1.090
2020/01/31 02:27:09.4	91.680	0.120	-0.190	1.090
2020/01/31 02:27:09.5	91.680	0.140	-0.260	1.090
2020/01/31 02:27:09.6	91.680	0.160	-0.320	1.090
2020/01/31 02:27:09.7	91.680	0.180	-0.380	1.090
2020/01/31 02:27:09.8	91.670	0.200	-0.440	1.100
2020/01/31 02:27:09.9	91.670	0.220	-0.490	1.100
2020/01/31 02:27:10.0	91.660	0.230	-0.530	1.100
2020/01/31 02:27:10.1	91.640	0.250	-0.580	1.110
2020/01/31 02:27:10.2	91.630	0.260	-0.610	1.110
2020/01/31 02:27:10.3	91.610	0.270	-0.630	1.120
2020/01/31 02:27:10.4	91.600	0.270	-0.650	1.130
2020/01/31 02:27:10.5	91.580	0.270	-0.650	1.130
2020/01/31 02:27:10.6	91.570	0.270	-0.660	1.140
2020/01/31 02:27:10.7	91.550	0.270	-0.650	1.150
2020/01/31 02:27:10.8	91.530	0.260	-0.640	1.160
2020/01/31 02:27:10.9	91.510	0.250	-0.620	1.170
2020/01/31 02:27:11.0	91.490	0.240	-0.600	1.180
2020/01/31 02:27:11.1	91.470	0.220	-0.560	1.190
2020/01/31 02:27:11.2	91.440	0.200	-0.530	1.200
2020/01/31 02:27:11.3	91.420	0.180	-0.490	1.210
2020/01/31 02:27:11.4	91.400	0.160	-0.450	1.220
2020/01/31 02:27:11.5	91.380	0.130	-0.410	1.220
2020/01/31 02:27:11.6	91.360	0.110	-0.370	1.230
2020/01/31 02:27:11.7	91.340	0.080	-0.330	1.230
2020/01/31 02:27:11.8	91.320	0.050	-0.290	1.230
2020/01/31 02:27:11.9	91.300	0.030	-0.250	1.230
2020/01/31 02:27:12.0	91.280	-0.000	-0.210	1.220
2020/01/31 02:27:12.1	91.270	-0.030	-0.180	1.210
2020/01/31 02:27:12.2	91.260	-0.050	-0.150	1.200
2020/01/31 02:27:12.3	91.250	-0.080	-0.130	1.190
2020/01/31 02:27:12.4	91.240	-0.100	-0.110	1.170
2020/01/31 02:27:12.5	91.230	-0.120	-0.100	1.150
2020/01/31 02:27:12.6	91.230	-0.130	-0.090	1.130
2020/01/31 02:27:12.7	91.230	-0.150	-0.090	1.100
2020/01/31 02:27:12.8	91.230	-0.160	-0.100	1.080
2020/01/31 02:27:12.9	91.230	-0.160	-0.110	1.050
2020/01/31 02:27:13.0	91.230	-0.170	-0.130	1.020
2020/01/31 02:27:13.1	91.240	-0.170	-0.150	0.990
2020/01/31 02:27:13.2	91.250	-0.170	-0.180	0.960
2020/01/31 02:27:13.3	91.250	-0.170	-0.210	0.930
2020/01/31 02:27:13.4	91.260	-0.160	-0.240	0.900
2020/01/31 02:27:13.5	91.270	-0.150	-0.270	0.870
2020/01/31 02:27:13.6	91.280	-0.150	-0.310	0.840
2020/01/31 02:27:13.7	91.290	-0.140	-0.340	0.810
2020/01/31 02:27:13.8	91.290	-0.130	-0.370	0.790
2020/01/31 02:27:13.9	91.300	-0.120	-0.400	0.760
2020/01/31 02:27:14.0	91.310	-0.110	-0.430	0.740
2020/01/31 02:27:14.1	91.330	-0.100	-0.450	0.730
2020/01/31 02:27:14.2	91.340	-0.090	-0.480	0.710
2020/01/31 02:27:14.3	91.340	-0.080	-0.490	0.690
2020/01/31 02:27:14.4	91.350	-0.080	-0.510	0.680
2020/01/31 02:27:14.5	91.350	-0.070	-0.520	0.670
2020/01/31 02:27:14.6	91.350	-0.070	-0.520	0.660
2020/01/31 02:27:14.7	91.360	-0.070	-0.520	0.650
2020/01/31 02:27:14.8	91.360	-0.070	-0.510	0.650
2020/01/31 02:27:14.9	91.360	-0.080	-0.490	0.640
2020/01/31 02:27:15.0	91.360	-0.080	-0.470	0.650
2020/01/31 02:27:15.1	91.350	-0.090	-0.450	0.650
2020/01/31 02:27:15.2	91.350	-0.100	-0.420	0.660
2020/01/31 02:27:15.3	91.340	-0.110	-0.390	0.670
2020/01/31 02:27:15.4	91.340	-0.130	-0.350	0.680
2020/01/31 02:27:15.5	91.330	-0.140	-0.310	0.700
2020/01/31 02:27:15.6	91.330	-0.160	-0.260	0.710
2020/01/31 02:27:15.7	91.320	-0.180	-0.220	0.730
2020/01/31 02:27:15.8	91.310	-0.200	-0.160	0.750
2020/01/31 02:27:15.9	91.300	-0.220	-0.110	0.780
2020/01/31 02:27:16.0	91.290	-0.240	-0.060	0.800
2020/01/31 02:27:16.1	91.280	-0.260	0.000	0.820
2020/01/31 02:27:16.2	91.270	-0.280	0.060	0.850
2020/01/31 02:27:16.3	91.260	-0.300	0.110	0.870
2020/01/31 02:27:16.4	91.240	-0.320	0.160	0.890
2020/01/31 02:27:16.5	91.230	-0.340	0.210	0.910
2020/01/31 02:27:16.6	91.220	-0.350	0.250	0.930
2020/01/31 02:27:16.7	91.200	-0.370	0.300	0.950
2020/01/31 02:27:16.8	91.190	-0.380	0.330	0.960
2020/01/31 02:27:16.9	91.170	-0.400	0.360	0.970
2020/01/31 02:27:17.0	91.160	-0.410	0.390	0.980
2020/01/31 02:27:17.1	91.160	-0.410	0.400	0.990
2020/01/31 02:27:17.2	91.140	-0.410	0.410	1.000
2020/01/31 02:27:17.3	91.130	-0.410	0.420	1.000
2020/01/31 02:27:17.4	91.120	-0.410	0.410	1.000
2020/01/31 02:27:17.5	91.110	-0.410	0.400	1.000
2020/01/31 02:27:17.6	91.090	-0.400	0.380	1.000
2020/01/31 02:27:17.7	91.080	-0.380	0.360	1.000
2020/01/31 02:27:17.8	91.070	-0.370	0.330	1.000
2020/01/31 02:27:17.9	91.060	-0.350	0.290	1.000
2020/01/31 02:27:18.0	91.050	-0.330	0.250	0.990
2020/01/31 02:27:18.1	91.050	-0.310	0.210	0.990
2020/01/31 02:27:18.2	91.040	-0.280	0.160	0.980
2020/01/31 02:27:18.3	91.040	-0.250	0.100	0.980
2020/01/31 02:27:18.4	91.030	-0.220	0.050	0.970
2020/01/31 02:27:18.5	91.030	-0.190	-0.010	0.960
2020/01/31 02:27:18.6	91.030	-0.160	-0.070	0.950
2020/01/31 02:27:18.7	91.030	-0.130	-0.130	0.940
2020/01/31 02:27:18.8	91.030	-0.090	-0.190	0.930
2020/01/31 02:27:18.9	91.030	-0.060	-0.240	0.910
2020/01/31 02:27:19.0	91.040	-0.020	-0.300	0.890
2020/01/31 02:27:19.1	91.030	0.010	-0.360	0.870
2020/01/31 02:27:19.2	91.040	0.050	-0.420	0.850
2020/01/31 02:27:19.3	91.050	0.090	-0.470	0.820
2020/01/31 02:27:19.4	91.060	0.120	-0.510	0.800
2020/01/31 02:27:19.5	91.080	0.160	-0.560	0.770
2020/01/31 02:27:19.6	91.090	0.190	-0.600	0.730
2020/01/31 02:27:19.7	91.110	0.230	-0.640	0.700
2020/01/31 02:27:19.8	91.120	0.260	-0.670	0.660
2020/01/31 02:27:19.9	91.140	0.290	-0.690	0.630
2020/01/31 02:27:20.0	91.150	0.320	-0.720	0.590
2020/01/31 02:27:20.1	91.170	0.350	-0.730	0.560
2020/01/31 02:27:20.2	91.190	0.380	-0.740	0.530
2020/01/31 02:27:20.3	91.200	0.400	-0.750	0.500
2020/01/31 02:27:20.4	91.220	0.430	-0.750	0.470
2020/01/31 02:27:20.5	91.230	0.450	-0.750	0.440
2020/01/31 02:27:20.6	91.250	0.470	-0.740	0.420
2020/01/31 02:27:20.7	91.260	0.490	-0.720	0.400
2020/01/31 02:27:20.8	91.270	0.500	-0.700	0.390
2020/01/31 02:27:20.9	91.280	0.510	-0.670	0.380
2020/01/31 02:27:21.0	91.290	0.520	-0.640	0.370
2020/01/31 02:27:21.1	91.280	0.530	-0.610	0.380
2020/01/31 02:27:21.2	91.290	0.530	-0.570	0.380
2020/01/31 02:27:21.3	91.290	0.530	-0.530	0.380
2020/01/31 02:27:21.4	91.290	0.530	-0.490	0.390
2020/01/31 02:27:21.5	91.290	0.530	-0.440	0.410
2020/01/31 02:27:21.6	91.290	0.520	-0.390	0.420
2020/01/31 02:27:21.7	91.280	0.510	-0.340	0.440
2020/01/31 02:27:21.8	91.280	0.500	-0.290	0.460
2020/01/31 02:27:21.9	91.270	0.480	-0.250	0.490
2020/01/31 02:27:22.0	91.260	0.460	-0.200	0.520
2020/01/31 02:27:22.1	91.260	0.450	-0.150	0.540
2020/01/31 02:27:22.2	91.240	0.420	-0.110	0.570
2020/01/31 02:27:22.3	91.230	0.400	-0.070	0.600
2020/01/31 02:27:22.4	91.210	0.380	-0.030	0.630
2020/01/31 02:27:22.5	91.200	0.350	-0.000	0.670
2020/01/31 02:27:22.6	91.180	0.320	0.020	0.700
2020/01/31 02:27:22.7	91.160	0.300	0.040	0.730
2020/01/31 02:27:22.8	91.140	0.270	0.060	0.760
2020/01/31 02:27:22.9	91.120	0.240	0.070	0.800
2020/01/31 02:27:23.0	91.100	0.210	0.070	0.830
2020/01/31 02:27:23.1	91.080	0.190	0.070	0.870
2020/01/31 02:27:23.2	91.060	0.160	0.070	0.900
2020/01/31 02:27:23.3	91.040	0.130	0.060	0.930
2020/01/31 02:27:23.4	91.020	0.110	0.050	0.960
2020/01/31 02:27:23.5	91.000	0.080	0.030	0.990
2020/01/31 02:27:23.6	90.980	0.050	0.020	1.020
2020/01/31 02:27:23.7	90.950	0.030	-0.000	1.050
2020/01/31 02:27:23.8	90.930	0.000	-0.020	1.080
2020/01/31 02:27:23.9	90.910	-0.020	-0.040	1.100
2020/01/31 02:27:24.0	90.890	-0.050	-0.060	1.130
2020/01/31 02:27:24.1	90.870	-0.070	-0.080	1.150
2020/01/31 02:27:24.2	90.860	-0.090	-0.100	1.170
2020/01/31 02:27:24.3	90.840	-0.110	-0.120	1.190
2020/01/31 02:27:24.4	90.820	-0.130	-0.130	1.210
2020/01/31 02:27:24.5	90.800	-0.150	-0.150	1.230
2020/01/31 02:27:24.6	90.790	-0.170	-0.160	1.240
2020/01/31 02:27:24.7	90.770	-0.190	-0.170	1.250
2020/01/31 02:27:24.8	90.760	-0.210	-0.180	1.260
2020/01/31 02:27:24.9	90.740	-0.220	-0.190	1.270
2020/01/31 02:27:25.0	90.730	-0.240	-0.200	1.280
2020/01/31 02:27:25.1	90.720	-0.250	-0.210	1.290
2020/01/31 02:27:25.2	90.710	-0.260	-0.220	1.290
2020/01/31 02:27:25.3	90.710	-0.270	-0.220	1.290
2020/01/31 02:27:25.4	90.700	-0.280	-0.230	1.290
2020/01/31 02:27:25.5	90.700	-0.280	-0.240	1.280
2020/01/31 02:27:25.6	90.700	-0.280	-0.250	1.270
2020/01/31 02:27:25.7	90.700	-0.280	-0.260	1.270
2020/01/31 02:27:25.8	90.710	-0.280	-0.270	1.250
2020/01/31 02:27:25.9	90.710	-0.280	-0.280	1.240
2020/01/31 02:27:26.0	90.720	-0.270	-0.290	1.230
2020/01/31 02:27:26.1	90.740	-0.260	-0.310	1.210
2020/01/31 02:27:26.2	90.750	-0.250	-0.320	1.190
2020/01/31 02:27:26.3	90.760	-0.240	-0.340	1.170
2020/01/31 02:27:26.4	90.780	-0.220	-0.360	1.160
2020/01/31 02:27:26.5	90.790	-0.210	-0.380	1.140
2020/01/31 02:27:26.6	90.810	-0.190	-0.400	1.120
2020/01/31 02:27:26.7	90.830	-0.170	-0.420	1.100
2020/01/31 02:27:26.8	90.850	-0.150	-0.440	1.080
2020/01/31 02:27:26.9	90.870	-0.130	-0.460	1.070
2020/01/31 02:27:27.0	90.890	-0.100	-0.480	1.060
2020/01/31 02:27:27.1	90.910	-0.080	-0.510	1.040
2020/01/31 02:27:27.2	90.930	-0.050	-0.520	1.030
2020/01/31 02:27:27.3	90.940	-0.030	-0.540	1.030
2020/01/31 02:27:27.4	90.960	-0.000	-0.550	1.020
2020/01/31 02:27:27.5	90.980	0.020	-0.570	1.020
2020/01/31 02:27:27.6	90.990	0.040	-0.580	1.010
2020/01/31 02:27:27.7	91.010	0.060	-0.580	1.010
2020/01/31 02:27:27.8	91.020	0.080	-0.590	1.010
2020/01/31 02:27:27.9	91.040	0.100	-0.590	1.010
2020/01/31 02:27:28.0	91.050	0.120	-0.580	1.020
2020/01/31 02:27:28.1	91.060	0.140	-0.570	1.030
2020/01/31 02:27:28.2	91.070	0.150	-0.560	1.030
2020/01/31 02:27:28.3	91.080	0.160	-0.540	1.040
2020/01/31 02:27:28.4	91.090	0.170	-0.530	1.040
2020/01/31 02:27:28.5	91.100	0.180	-0.510	1.050
2020/01/31 02:27:28.6	91.110	0.180	-0.480	1.060
2020/01/31 02:27:28.7	91.120	0.180	-0.450	1.070
2020/01/31 02:27:28.8	91.120	0.180	-0.430	1.070
2020/01/31 02:27:28.9	91.130	0.180	-0.390	1.080
2020/01/31 02:27:29.0	91.140	0.170	-0.360	1.080
2020/01/31 02:27:29.1	91.140	0.160	-0.330	1.090
2020/01/31 02:27:29.2	91.150	0.150	-0.290	1.090
2020/01/31 02:27:29.3	91.150	0.140	-0.260	1.090
2020/01/31 02:27:29.4	91.160	0.130	-0.220	1.090
2020/01/31 02:27:29.5	91.160	0.110	-0.180	1.090
2020/01/31 02:27:29.6	91.170	0.090	-0.150	1.090
2020/01/31 02:27:29.7	91.170	0.070	-0.110	1.090
2020/01/31 02:27:29.8	91.180	0.050	-0.070	1.090
2020/01/31 02:27:29.9	91.180	0.030	-0.030	1.080
2020/01/31 02:27:30.0	91.180	0.010	0.000	1.080
2020/01/31 02:27:30.1	91.170	-0.010	0.050	1.080
2020/01/31 02:27:30.2	91.170	-0.030	0.080	1.070
2020/01/31 02:27:30.3	91.160	-0.060	0.120	1.070
2020/01/31 02:27:30.4	91.160	-0.080	0.150	1.070
2020/01/31 02:27:30.5	91.150	-0.110	0.190	1.060
2020/01/31 02:27:30.6	91.140	-0.130	0.220	1.060
2020/01/31 02:27:30.7	91.130	-0.160	0.260	1.050
2020/01/31 02:27:30.8	91.110	-0.190	0.290	1.050
2020/01/31 02:27:30.9	91.100	-0.210	0.320	1.040
2020/01/31 02:27:31.0	91.090	-0.240	0.360	1.040
2020/01/31 02:27:31.1	91.080	-0.260	0.380	1.040
2020/01/31 02:27:31.2	91.070	-0.290	0.410	1.030
2020/01/31 02:27:31.3	91.050	-0.310	0.430	1.030
2020/01/31 02:27:31.4	91.040	-0.340	0.460	1.020
2020/01/31 02:27:31.5	91.020	-0.360	0.480	1.020
2020/01/31 02:27:31.6	91.010	-0.380	0.490	1.010
2020/01/31 02:27:31.7	91.000	-0.390	0.500	1.000
2020/01/31 02:27:31.8	90.990	-0.410	0.510	1.000
2020/01/31 02:27:31.9	90.970	-0.420	0.500	0.990
2020/01/31 02:27:32.0	90.960	-0.430	0.500	0.970
2020/01/31 02:27:32.1	90.950	-0.440	0.490	0.960
2020/01/31 02:27:32.2	90.940	-0.440	0.470	0.950
2020/01/31 02:27:32.3	90.940	-0.440	0.440	0.930
2020/01/31 02:27:32.4	90.930	-0.430	0.400	0.920
2020/01/31 02:27:32.5	90.930	-0.420	0.360	0.900
2020/01/31 02:27:32.6	90.920	-0.410	0.310	0.880
2020/01/31 02:27:32.7	90.920	-0.390	0.260	0.860
2020/01/31 02:27:32.8	90.920	-0.370	0.200	0.830
2020/01/31 02:27:32.9	90.920	-0.350	0.130	0.810
2020/01/31 02:27:33.0	90.920	-0.320	0.060	0.790
2020/01/31 02:27:33.1	90.910	-0.290	-0.020	0.770
2020/01/31 02:27:33.2	90.910	-0.250	-0.100	0.740
2020/01/31 02:27:33.3	90.910	-0.210	-0.180	0.720
2020/01/31 02:27:33.4	90.920	-0.170	-0.260	0.700
2020/01/31 02:27:33.5	90.920	-0.130	-0.340	0.670
2020/01/31 02:27:33.6	90.920	-0.080	-0.430	0.650
2020/01/31 02:27:33.7	90.930	-0.040	-0.510	0.630
2020/01/31 02:27:33.8	90.930	0.010	-0.590	0.610
2020/01/31 02:27:33.9	90.930	0.060	-0.670	0.590
2020/01/31 02:27:34.0	90.940	0.100	-0.750	0.570
2020/01/31 02:27:34.1	90.940	0.150	-0.830	0.560
2020/01/31 02:27:34.2	90.950	0.200	-0.900	0.540
2020/01/31 02:27:34.3	90.950	0.240	-0.960	0.520
2020/01/31 02:27:34.4	90.960	0.290	-1.010	0.510
2020/01/31 02:27:34.5	90.970	0.330	-1.060	0.490
2020/01/31 02:27:34.6	90.980	0.370	-1.110	0.480
2020/01/31 02:27:34.7	90.990	0.400	-1.140	0.460
2020/01/31 02:27:34.8	91.000	0.430	-1.170	0.450
2020/01/31 02:27:34.9	91.010	0.460	-1.190	0.440
2020/01/31 02:27:35.0	91.020	0.490	-1.200	0.440
2020/01/31 02:27:35.1	91.030	0.510	-1.200	0.440
2020/01/31 02:27:35.2	91.040	0.530	-1.200	0.440
2020/01/31 02:27:35.3	91.050	0.540	-1.190	0.440
2020/01/31 02:27:35.4	91.060	0.550	-1.170	0.440
2020/01/31 02:27:35.5	91.070	0.550	-1.140	0.460
2020/01/31 02:27:35.6	91.080	0.550	-1.110	0.470
2020/01/31 02:27:35.7	91.090	0.540	-1.070	0.490
2020/01/31 02:27:35.8	91.100	0.530	-1.020	0.510
2020/01/31 02:27:35.9	91.100	0.520	-0.960	0.540
2020/01/31 02:27:36.0	91.110	0.500	-0.900	0.570
2020/01/31 02:27:36.1	91.110	0.470	-0.840	0.600
2020/01/31 02:27:36.2	91.110	0.450	-0.770	0.640
2020/01/31 02:27:36.3	91.110	0.420	-0.690	0.680
2020/01/31 02:27:36.4	91.100	0.380	-0.620	0.730
2020/01/31 02:27:36.5	91.100	0.340	-0.540	0.770
2020/01/31 02:27:36.6	91.090	0.300	-0.460	0.820
2020/01/31 02:27:36.7	91.070	0.260	-0.380	0.870
2020/01/31 02:27:36.8	91.060	0.220	-0.290	0.910
2020/01/31 02:27:36.9	91.040	0.170	-0.210	0.960
2020/01/31 02:27:37.0	91.030	0.130	-0.130	1.010
2020/01/31 02:27:37.1	91.010	0.080	-0.040	1.060
2020/01/31 02:27:37.2	90.990	0.030	0.040	1.100
2020/01/31 02:27:37.3	90.970	-0.020	0.110	1.140
2020/01/31 02:27:37.4	90.940	-0.070	0.190	1.180
2020/01/31 02:27:37.5	90.910	-0.120	0.260	1.210
2020/01/31 02:27:37.6	90.890	-0.170	0.330	1.240
2020/01/31 02:27:37.7	90.860	-0.210	0.400	1.270
2020/01/31 02:27:37.8	90.830	-0.260	0.450	1.300
2020/01/31 02:27:37.9	90.810	-0.300	0.510	1.320
2020/01/31 02:27:38.0	90.780	-0.340	0.560	1.340
2020/01/31 02:27:38.1	90.760	-0.380	0.600	1.360
2020/01/31 02:27:38.2	90.740	-0.420	0.640	1.380
2020/01/31 02:27:38.3	90.710	-0.450	0.670	1.390
2020/01/31 02:27:38.4	90.690	-0.480	0.690	1.390
2020/01/31 02:27:38.5	90.660	-0.510	0.700	1.400
2020/01/31 02:27:38.6	90.640	-0.530	0.700	1.390
2020/01/31 02:27:38.7	90.630	-0.550	0.700	1.390
2020/01/31 02:27:38.8	90.610	-0.570	0.690	1.380
2020/01/31 02:27:38.9	90.600	-0.580	0.680	1.370
2020/01/31 02:27:39.0	90.580	-0.590	0.650	1.350
2020/01/31 02:27:39.1	90.590	-0.590	0.620	1.330
2020/01/31 02:27:39.2	90.580	-0.590	0.580	1.300
2020/01/31 02:27:39.3	90.580	-0.590	0.530	1.280
2020/01/31 02:27:39.4	90.580	-0.580	0.480	1.250
2020/01/31 02:27:39.5	90.580	-0.560	0.420	1.220
2020/01/31 02:27:39.6	90.580	-0.540	0.360	1.180
2020/01/31 02:27:39.7	90.590	-0.520	0.290	1.150
2020/01/31 02:27:39.8	90.600	-0.490	0.220	1.110
2020/01/31 02:27:39.9	90.610	-0.460	0.140	1.070
2020/01/31 02:27:40.0	90.620	-0.420	0.060	1.030
2020/01/31 02:27:40.1	90.650	-0.380	-0.020	0.990
2020/01/31 02:27:40.2	90.660	-0.330	-0.110	0.950
2020/01/31 02:27:40.3	90.680	-0.280	-0.190	0.910
2020/01/31 02:27:40.4	90.700	-0.230	-0.280	0.870
2020/01/31 02:27:40.5	90.720	-0.170	-0.370	0.820
2020/01/31 02:27:40.6	90.740	-0.120	-0.460	0.780
2020/01/31 02:27:40.7	90.760	-0.060	-0.550	0.740
2020/01/31 02:27:40.8	90.780	0.010	-0.630	0.700
2020/01/31 02:27:40.9	90.800	0.070	-0.710	0.660
2020/01/31 02:27:41.0	90.830	0.130	-0.790	0.620
2020/01/31 02:27:41.1	90.850	0.190	-0.870	0.590
2020/01/31 02:27:41.2	90.870	0.250	-0.930	0.550
2020/01/31 02:27:41.3	90.890	0.310	-0.990	0.520
2020/01/31 02:27:41.4	90.910	0.370	-1.040	0.490
2020/01/31 02:27:41.5	90.940	0.420	-1.080	0.460
2020/01/31 02:27:41.6	90.960	0.470	-1.110	0.440
2020/01/31 02:27:41.7	90.980	0.510	-1.140	0.410
2020/01/31 02:27:41.8	91.000	0.550	-1.150	0.390
2020/01/31 02:27:41.9	91.020	0.590	-1.150	0.370
2020/01/31 02:27:42.0	91.050	0.620	-1.150	0.350
2020/01/31 02:27:42.1	91.060	0.640	-1.120	0.340
2020/01/31 02:27:42.2	91.090	0.660	-1.090	0.330
2020/01/31 02:27:42.3	91.110	0.670	-1.050	0.320
2020/01/31 02:27:42.4	91.130	0.680	-1.010	0.310
2020/01/31 02:27:42.5	91.150	0.680	-0.950	0.310
2020/01/31 02:27:42.6	91.170	0.670	-0.880	0.310
2020/01/31 02:27:42.7	91.190	0.660	-0.800	0.310
2020/01/31 02:27:42.8	91.210	0.640	-0.720	0.310
2020/01/31 02:27:42.9	91.220	0.610	-0.630	0.320
2020/01/31 02:27:43.0	91.240	0.580	-0.530	0.330
2020/01/31 02:27:43.1	91.250	0.550	-0.440	0.340
2020/01/31 02:27:43.2	91.260	0.510	-0.330	0.360
2020/01/31 02:27:43.3	91.270	0.460	-0.230	0.380
2020/01/31 02:27:43.4	91.280	0.420	-0.120	0.400
2020/01/31 02:27:43.5	91.280	0.360	-0.010	0.430
2020/01/31 02:27:43.6	91.290	0.310	0.090	0.460
2020/01/31 02:27:43.7	91.290	0.260	0.190	0.490
2020/01/31 02:27:43.8	91.300	0.200	0.290	0.520
2020/01/31 02:27:43.9	91.300	0.140	0.380	0.560
2020/01/31 02:27:44.0	91.290	0.090	0.470	0.590
2020/01/31 02:27:44.1	91.290	0.030	0.550	0.640
2020/01/31 02:27:44.2	91.290	-0.030	0.620	0.670
2020/01/31 02:27:44.3	91.280	-0.080	0.680	0.710
2020/01/31 02:27:44.4	91.270	-0.130	0.740	0.750
2020/01/31 02:27:44.5	91.260	-0.180	0.780	0.780
2020/01/31 02:27:44.6	91.250	-0.220	0.810	0.820
2020/01/31 02:27:44.7	91.230	-0.270	0.820	0.860
2020/01/31 02:27:44.8	91.220	-0.300	0.830	0.890
2020/01/31 02:27:44.9	91.200	-0.330	0.820	0.920
2020/01/31 02:27:45.0	91.190	-0.360	0.800	0.950
2020/01/31 02:27:45.1	91.160	-0.380	0.760	0.980
2020/01/31 02:27:45.2	91.150	-0.400	0.720	1.010
2020/01/31 02:27:45.3	91.140	-0.410	0.660	1.030
2020/01/31 02:27:45.4	91.120	-0.410	0.590	1.050
2020/01/31 02:27:45.5	91.110	-0.410	0.520	1.070
2020/01/31 02:27:45.6	91.100	-0.410	0.430	1.090
2020/01/31 02:27:45.7	91.090	-0.400	0.330	1.100
2020/01/31 02:27:45.8	91.080	-0.380	0.230	1.110
2020/01/31 02:27:45.9	91.080	-0.360	0.120	1.120
2020/01/31 02:27:46.0	91.070	-0.340	0.010	1.130
2020/01/31 02:27:46.1	91.070	-0.320	-0.100	1.150
2020/01/31 02:27:46.2	91.070	-0.290	-0.220	1.160
2020/01/31 02:27:46.3	91.060	-0.260	-0.330	1.160
2020/01/31 02:27:46.4	91.050	-0.230	-0.450	1.170
2020/01/31 02:27:46.5	91.050	-0.200	-0.560	1.170
2020/01/31 02:27:46.6	91.040	-0.170	-0.670	1.180
2020/01/31 02:27:46.7	91.030	-0.130	-0.770	1.180
2020/01/31 02:27:46.8	91.030	-0.100	-0.860	1.180
2020/01/31 02:27:46.9	91.020	-0.070	-0.950	1.180
2020/01/31 02:27:47.0	91.010	-0.040	-1.030	1.180
2020/01/31 02:27:47.1	91.000	-0.020	-1.110	1.180
2020/01/31 02:27:47.2	90.990	0.000	-1.160	1.180
2020/01/31 02:27:47.3	90.980	0.020	-1.210	1.180
2020/01/31 02:27:47.4	90.970	0.040	-1.250	1.180
2020/01/31 02:27:47.5	90.960	0.050	-1.270	1.180
2020/01/31 02:27:47.6	90.950	0.060	-1.280	1.180
2020/01/31 02:27:47.7	90.940	0.060	-1.270	1.180
2020/01/31 02:27:47.8	90.920	0.060	-1.250	1.180
2020/01/31 02:27:47.9	90.910	0.060	-1.220	1.180
2020/01/31 02:27:48.0	90.900	0.050	-1.180	1.180
2020/01/31 02:27:48.1	90.890	0.040	-1.120	1.190
2020/01/31 02:27:48.2	90.880	0.030	-1.050	1.190
2020/01/31 02:27:48.3	90.870	0.010	-0.970	1.190
2020/01/31 02:27:48.4	90.860	-0.020	-0.890	1.200
2020/01/31 02:27:48.5	90.850	-0.040	-0.790	1.200
2020/01/31 02:27:48.6	90.840	-0.070	-0.690	1.200
2020/01/31 02:27:48.7	90.840	-0.100	-0.580	1.200
2020/01/31 02:27:48.8	90.830	-0.130	-0.470	1.200
2020/01/31 02:27:48.9	90.820	-0.170	-0.350	1.200
2020/01/31 02:27:49.0	90.820	-0.200	-0.240	1.200
2020/01/31 02:27:49.1	90.810	-0.240	-0.120	1.200
2020/01/31 02:27:49.2	90.810	-0.270	-0.010	1.200
2020/01/31 02:27:49.3	90.810	-0.300	0.100	1.190
2020/01/31 02:27:49.4	90.810	-0.340	0.200	1.180
2020/01/31 02:27:49.5	90.810	-0.370	0.290	1.160
2020/01/31 02:27:49.6	90.810	-0.390	0.380	1.140
2020/01/31 02:27:49.7	90.810	-0.420	0.450	1.120
2020/01/31 02:27:49.8	90.810	-0.430	0.510	1.100
2020/01/31 02:27:49.9	90.820	-0.450	0.570	1.070
2020/01/31 02:27:50.0	90.820	-0.460	0.610	1.040
2020/01/31 02:27:50.1	90.830	-0.470	0.640	1.000
2020/01/31 02:27:50.2	90.840	-0.470	0.650	0.970
2020/01/31 02:27:50.3	90.850	-0.460	0.650	0.930
2020/01/31 02:27:50.4	90.860	-0.450	0.640	0.880
2020/01/31 02:27:50.5	90.870	-0.440	0.620	0.840
2020/01/31 02:27:50.6	90.890	-0.420	0.580	0.800
2020/01/31 02:27:50.7	90.900	-0.390	0.540	0.750
2020/01/31 02:27:50.8	90.920	-0.360	0.480	0.710
2020/01/31 02:27:50.9	90.940	-0.330	0.420	0.670
2020/01/31 02:27:51.0	90.950	-0.290	0.350	0.630
2020/01/31 02:27:51.1	90.970	-0.250	0.260	0.600
2020/01/31 02:27:51.2	90.980	-0.200	0.180	0.560
2020/01/31 02:27:51.3	91.000	-0.150	0.090	0.530
2020/01/31 02:27:51.4	91.010	-0.100	0.000	0.500
2020/01/31 02:27:51.5	91.020	-0.050	-0.090	0.470
2020/01/31 02:27:51.6	91.040	0.010	-0.180	0.450
2020/01/31 02:27:51.7	91.050	0.060	-0.280	0.430
2020/01/31 02:27:51.8	91.060	0.120	-0.370	0.410
2020/01/31 02:27:51.9	91.070	0.170	-0.450	0.390
2020/01/31 02:27:52.0	91.080	0.230	-0.530	0.370
2020/01/31 02:27:52.1	91.100	0.280	-0.610	0.360
2020/01/31 02:27:52.2	91.110	0.330	-0.680	0.340
2020/01/31 02:27:52.3	91.120	0.380	-0.740	0.330
2020/01/31 02:27:52.4	91.130	0.430	-0.790	0.310
2020/01/31 02:27:52.5	91.140	0.470	-0.840	0.300
2020/01/31 02:27:52.6	91.160	0.510	-0.870	0.280
2020/01/31 02:27:52.7	91.170	0.540	-0.900	0.260
2020/01/31 02:27:52.8	91.190	0.570	-0.910	0.250
2020/01/31 02:27:52.9	91.200	0.600	-0.920	0.230
2020/01/31 02:27:53.0	91.220	0.620	-0.910	0.220
2020/01/31 02:27:53.1	91.240	0.630	-0.900	0.210
2020/01/31 02:27:53.2	91.260	0.640	-0.870	0.190
2020/01/31 02:27:53.3	91.280	0.650	-0.830	0.180
2020/01/31 02:27:53.4	91.300	0.650	-0.790	0.170
2020/01/31 02:27:53.5	91.320	0.650	-0.740	0.160
2020/01/31 02:27:53.6	91.340	0.640	-0.680	0.160
2020/01/31 02:27:53.7	91.360	0.630	-0.610	0.160
2020/01/31 02:27:53.8	91.380	0.610	-0.540	0.160
2020/01/31 02:27:53.9	91.400	0.590	-0.470	0.170
2020/01/31 02:27:54.0	91.420	0.570	-0.390	0.180
2020/01/31 02:27:54.1	91.430	0.540	-0.300	0.200
2020/01/31 02:27:54.2	91.450	0.510	-0.220	0.220
2020/01/31 02:27:54.3	91.470	0.470	-0.140	0.250
2020/01/31 02:27:54.4	91.480	0.440	-0.060	0.280
2020/01/31 02:27:54.5	91.490	0.400	0.020	0.320
2020/01/31 02:27:54.6	91.500	0.360	0.100	0.360
2020/01/31 02:27:54.7	91.510	0.320	0.180	0.410
2020/01/31 02:27:54.8	91.520	0.280	0.250	0.460
2020/01/31 02:27:54.9	91.530	0.230	0.310	0.510
2020/01/31 02:27:55.0	91.530	0.190	0.370	0.560
2020/01/31 02:27:55.1	91.540	0.140	0.430	0.620
2020/01/31 02:27:55.2	91.540	0.100	0.480	0.670
2020/01/31 02:27:55.3	91.550	0.050	0.520	0.720
2020/01/31 02:27:55.4	91.550	0.010	0.560	0.780
2020/01/31 02:27:55.5	91.550	-0.030	0.580	0.830
2020/01/31 02:27:55.6	91.550	-0.070	0.600	0.880
2020/01/31 02:27:55.7	91.540	-0.120	0.620	0.920
2020/01/31 02:27:55.8	91.540	-0.150	0.620	0.970
2020/01/31 02:27:55.9	91.540	-0.190	0.620	1.010
2020/01/31 02:27:56.0	91.530	-0.230	0.610	1.050
2020/01/31 02:27:56.1	91.530	-0.260	0.590	1.090
2020/01/31 02:27:56.2	91.520	-0.290	0.560	1.120
2020/01/31 02:27:56.3	91.510	-0.320	0.530	1.160
2020/01/31 02:27:56.4	91.500	-0.350	0.490	1.190
2020/01/31 02:27:56.5	91.490	-0.370	0.450	1.210
2020/01/31 02:27:56.6	91.470	-0.390	0.400	1.240
2020/01/31 02:27:56.7	91.450	-0.410	0.350	1.260
2020/01/31 02:27:56.8	91.440	-0.430	0.290	1.280
2020/01/31 02:27:56.9	91.420	-0.440	0.220	1.290
2020/01/31 02:27:57.0	91.400	-0.450	0.160	1.310
2020/01/31 02:27:57.1	91.370	-0.460	0.090	1.320
2020/01/31 02:27:57.2	91.360	-0.460	0.020	1.330
2020/01/31 02:27:57.3	91.340	-0.470	-0.050	1.340
2020/01/31 02:27:57.4	91.320	-0.470	-0.120	1.340
2020/01/31 02:27:57.5	91.300	-0.460	-0.200	1.340
2020/01/31 02:27:57.6	91.280	-0.460	-0.270	1.340
2020/01/31 02:27:57.7	91.260	-0.450	-0.340	1.350
2020/01/31 02:27:57.8	91.240	-0.440	-0.410	1.350
2020/01/31 02:27:57.9	91.230	-0.430	-0.470	1.340
2020/01/31 02:27:58.0	91.220	-0.410	-0.530	1.340
2020/01/31 02:27:58.1	91.220	-0.400	-0.590	1.340
2020/01/31 02:27:58.2	91.210	-0.380	-0.650	1.340
2020/01/31 02:27:58.3	91.200	-0.350	-0.710	1.340
2020/01/31 02:27:58.4	91.200	-0.330	-0.760	1.340
2020/01/31 02:27:58.5	91.200	-0.300	-0.810	1.340
2020/01/31 02:27:58.6	91.200	-0.270	-0.850	1.340
2020/01/31 02:27:58.7	91.200	-0.240	-0.890	1.340
2020/01/31 02:27:58.8	91.210	-0.210	-0.930	1.330
2020/01/31 02:27:58.9	91.210	-0.170	-0.960	1.330
2020/01/31 02:27:59.0	91.220	-0.140	-0.990	1.320
2020/01/31 02:27:59.1	91.230	-0.100	-1.020	1.320
2020/01/31 02:27:59.2	91.240	-0.060	-1.040	1.310
2020/01/31 02:27:59.3	91.250	-0.020	-1.060	1.300
2020/01/31 02:27:59.4	91.260	0.020	-1.080	1.290
2020/01/31 02:27:59.5	91.270	0.060	-1.090	1.270
2020/01/31 02:27:59.6	91.290	0.100	-1.100	1.250
2020/01/31 02:27:59.7	91.300	0.140	-1.100	1.230
2020/01/31 02:27:59.8	91.310	0.180	-1.100	1.200
2020/01/31 02:27:59.9	91.330	0.220	-1.100	1.170
2020/01/31 02:28:00.0	91.340	0.250	-1.100	1.140
2020/01/31 02:28:00.1	91.340	0.290	-1.090	1.110
2020/01/31 02:28:00.2	91.360	0.320	-1.070	1.080
2020/01/31 02:28:00.3	91.370	0.350	-1.050	1.040
2020/01/31 02:28:00.4	91.380	0.380	-1.030	1.000
2020/01/31 02:28:00.5	91.390	0.410	-1.010	0.960
2020/01/31 02:28:00.6	91.400	0.430	-0.980	0.930
2020/01/31 02:28:00.7	91.410	0.450	-0.940	0.890
2020/01/31 02:28:00.8	91.420	0.470	-0.900	0.850
2020/01/31 02:28:00.9	91.420	0.480	-0.850	0.820
2020/01/31 02:28:01.0	91.420	0.490	-0.800	0.790
2020/01/31 02:28:01.1	91.430	0.500	-0.740	0.760
2020/01/31 02:28:01.2	91.420	0.500	-0.680	0.730
2020/01/31 02:28:01.3	91.420	0.500	-0.620	0.700
2020/01/31 02:28:01.4	91.410	0.500	-0.550	0.680
2020/01/31 02:28:01.5	91.400	0.490	-0.470	0.660
2020/01/31 02:28:01.6	91.390	0.480	-0.390	0.650
2020/01/31 02:28:01.7	91.380	0.470	-0.310	0.630
2020/01/31 02:28:01.8	91.360	0.450	-0.230	0.620
2020/01/31 02:28:01.9	91.350	0.430	-0.140	0.610
2020/01/31 02:28:02.0	91.330	0.400	-0.050	0.600
2020/01/31 02:28:02.1	91.310	0.370	0.030	0.590
2020/01/31 02:28:02.2	91.300	0.340	0.120	0.590
2020/01/31 02:28:02.3	91.280	0.310	0.210	0.580
2020/01/31 02:28:02.4	91.260	0.280	0.300	0.570
2020/01/31 02:28:02.5	91.250	0.240	0.380	0.570
2020/01/31 02:28:02.6	91.230	0.210	0.460	0.560
2020/01/31 02:28:02.7	91.220	0.170	0.540	0.550
2020/01/31 02:28:02.8	91.210	0.130	0.610	0.540
2020/01/31 02:28:02.9	91.200	0.090	0.670	0.530
2020/01/31 02:28:03.0	91.200	0.050	0.730	0.520
2020/01/31 02:28:03.1	91.200	0.020	0.780	0.520
2020/01/31 02:28:03.2	91.200	-0.020	0.820	0.500
2020/01/31 02:28:03.3	91.200	-0.050	0.860	0.490
2020/01/31 02:28:03.4	91.210	-0.090	0.880	0.470
2020/01/31 02:28:03.5	91.210	-0.120	0.900	0.460
2020/01/31 02:28:03.6	91.220	-0.150	0.900	0.450
2020/01/31 02:28:03.7	91.240	-0.170	0.900	0.430
2020/01/31 02:28:03.8	91.250	-0.200	0.890	0.420
2020/01/31 02:28:03.9	91.270	-0.220	0.870	0.410
2020/01/31 02:28:04.0	91.290	-0.240	0.840	0.390
2020/01/31 02:28:04.1	91.310	-0.250	0.810	0.390
2020/01/31 02:28:04.2	91.330	-0.270	0.770	0.380
2020/01/31 02:28:04.3	91.360	-0.280	0.720	0.370
2020/01/31 02:28:04.4	91.380	-0.290	0.660	0.360
2020/01/31 02:28:04.5	91.400	-0.290	0.600	0.360
2020/01/31 02:28:04.6	91.430	-0.300	0.530	0.360
2020/01/31 02:28:04.7	91.450	-0.300	0.460	0.360
2020/01/31 02:28:04.8	91.480	-0.300	0.380	0.360
2020/01/31 02:28:04.9	91.500	-0.300	0.300	0.360
2020/01/31 02:28:05.0	91.520	-0.290	0.220	0.370
2020/01/31 02:28:05.1	91.550	-0.290	0.130	0.370
2020/01/31 02:28:05.2	91.570	-0.280	0.050	0.380
2020/01/31 02:28:05.3	91.580	-0.270	-0.040	0.390
2020/01/31 02:28:05.4	91.600	-0.260	-0.120	0.390
2020/01/31 02:28:05.5	91.620	-0.250	-0.210	0.400
2020/01/31 02:28:05.6	91.630	-0.240	-0.290	0.400
2020/01/31 02:28:05.7	91.640	-0.230	-0.370	0.410
2020/01/31 02:28:05.8	91.650	-0.220	-0.450	0.410
2020/01/31 02:28:05.9	91.660	-0.200	-0.520	0.420
2020/01/31 02:28:06.0	91.670	-0.190	-0.590	0.430
2020/01/31 02:28:06.1	91.680	-0.170	-0.660	0.450
2020/01/31 02:28:06.2	91.690	-0.160	-0.720	0.460
2020/01/31 02:28:06.3	91.690	-0.140	-0.780	0.480
2020/01/31 02:28:06.4	91.690	-0.130	-0.830	0.500
2020/01/31 02:28:06.5	91.690	-0.110	-0.870	0.530
2020/01/31 02:28:06.6	91.700	-0.100	-0.900	0.550
2020/01/31 02:28:06.7	91.690	-0.090	-0.930	0.580
2020/01/31 02:28:06.8	91.690	-0.070	-0.950	0.620
2020/01/31 02:28:06.9	91.690	-0.060	-0.960	0.660
2020/01/31 02:28:07.0	91.680	-0.050	-0.970	0.700
2020/01/31 02:28:07.1	91.680	-0.040	-0.960	0.750
2020/01/31 02:28:07.2	91.680	-0.040	-0.950	0.800
2020/01/31 02:28:07.3	91.670	-0.030	-0.930	0.850
2020/01/31 02:28:07.4	91.660	-0.030	-0.900	0.900
2020/01/31 02:28:07.5	91.650	-0.030	-0.870	0.960
2020/01/31 02:28:07.6	91.640	-0.020	-0.830	1.020
2020/01/31 02:28:07.7	91.640	-0.030	-0.790	1.080
2020/01/31 02:28:07.8	91.630	-0.030	-0.740	1.140
2020/01/31 02:28:07.9	91.620	-0.030	-0.690	1.200
2020/01/31 02:28:08.0	91.620	-0.040	-0.630	1.260
2020/01/31 02:28:08.1	91.610	-0.040	-0.570	1.320
2020/01/31 02:28:08.2	91.610	-0.050	-0.510	1.370
2020/01/31 02:28:08.3	91.610	-0.060	-0.460	1.410
2020/01/31 02:28:08.4	91.600	-0.070	-0.400	1.460
2020/01/31 02:28:08.5	91.600	-0.070	-0.350	1.500
2020/01/31 02:28:08.6	91.600	-0.080	-0.290	1.530
2020/01/31 02:28:08.7	91.600	-0.090	-0.250	1.560
2020/01/31 02:28:08.8	91.600	-0.090	-0.200	1.580
2020/01/31 02:28:08.9	91.610	-0.100	-0.170	1.590
2020/01/31 02:28:09.0	91.610	-0.100	-0.130	1.600
2020/01/31 02:28:09.1	91.610	-0.100	-0.110	1.600
2020/01/31 02:28:09.2	91.620	-0.100	-0.090	1.590
2020/01/31 02:28:09.3	91.620	-0.100	-0.070	1.580
2020/01/31 02:28:09.4	91.630	-0.090	-0.070	1.560
2020/01/31 02:28:09.5	91.630	-0.080	-0.070	1.540
2020/01/31 02:28:09.6	91.640	-0.070	-0.070	1.510
2020/01/31 02:28:09.7	91.640	-0.060	-0.080	1.480
2020/01/31 02:28:09.8	91.650	-0.040	-0.100	1.450
2020/01/31 02:28:09.9	91.650	-0.020	-0.120	1.420
2020/01/31 02:28:10.0	91.650	-0.000	-0.140	1.380
2020/01/31 02:28:10.1	91.660	0.020	-0.170	1.350
2020/01/31 02:28:10.2	91.660	0.040	-0.200	1.310
2020/01/31 02:28:10.3	91.660	0.070	-0.230	1.280
2020/01/31 02:28:10.4	91.660	0.090	-0.260	1.240
2020/01/31 02:28:10.5	91.660	0.120	-0.300	1.210
2020/01/31 02:28:10.6	91.660	0.150	-0.330	1.170
2020/01/31 02:28:10.7	91.660	0.170	-0.360	1.140
2020/01/31 02:28:10.8	91.650	0.200	-0.390	1.110
2020/01/31 02:28:10.9	91.650	0.220	-0.410	1.080
2020/01/31 02:28:11.0	91.650	0.250	-0.430	1.050
2020/01/31 02:28:11.1	91.630	0.270	-0.450	1.020
2020/01/31 02:28:11.2	91.630	0.290	-0.470	1.000
2020/01/31 02:28:11.3	91.630	0.300	-0.480	0.970
2020/01/31 02:28:11.4	91.620	0.320	-0.480	0.950
2020/01/31 02:28:11.5	91.620	0.330	-0.480	0.920
2020/01/31 02:28:11.6	91.610	0.330	-0.480	0.900
2020/01/31 02:28:11.7	91.610	0.340	-0.470	0.870
2020/01/31 02:28:11.8	91.610	0.340	-0.460	0.850
2020/01/31 02:28:11.9	91.600	0.340	-0.450	0.830
2020/01/31 02:28:12.0	91.600	0.330	-0.430	0.810
2020/01/31 02:28:12.1	91.590	0.320	-0.400	0.790
2020/01/31 02:28:12.2	91.590	0.310	-0.380	0.770
2020/01/31 02:28:12.3	91.580	0.300	-0.350	0.750
2020/01/31 02:28:12.4	91.580	0.280	-0.320	0.730
2020/01/31 02:28:12.5	91.570	0.260	-0.280	0.720
2020/01/31 02:28:12.6	91.560	0.240	-0.240	0.710
2020/01/31 02:28:12.7	91.560	0.210	-0.210	0.690
2020/01/31 02:28:12.8	91.550	0.190	-0.170	0.680
2020/01/31 02:28:12.9	91.550	0.160	-0.120	0.670
2020/01/31 02:28:13.0	91.540	0.130	-0.080	0.660
2020/01/31 02:28:13.1	91.550	0.100	-0.040	0.650
2020/01/31 02:28:13.2	91.540	0.070	0.000	0.640
2020/01/31 02:28:13.3	91.540	0.040	0.040	0.630
2020/01/31 02:28:13.4	91.540	0.010	0.080	0.630
2020/01/31 02:28:13.5	91.540	-0.020	0.120	0.620
2020/01/31 02:28:13.6	91.550	-0.040	0.160	0.610
2020/01/31 02:28:13.7	91.550	-0.070	0.190	0.600
2020/01/31 02:28:13.8	91.550	-0.100	0.220	0.600
2020/01/31 02:28:13.9	91.560	-0.120	0.250	0.590
2020/01/31 02:28:14.0	91.570	-0.140	0.280	0.580
2020/01/31 02:28:14.1	91.580	-0.160	0.300	0.570
2020/01/31 02:28:14.2	91.590	-0.180	0.320	0.560
2020/01/31 02:28:14.3	91.610	-0.200	0.330	0.550
2020/01/31 02:28:14.4	91.620	-0.210	0.340	0.540
2020/01/31 02:28:14.5	91.640	-0.220	0.340	0.520
2020/01/31 02:28:14.6	91.650	-0.230	0.340	0.510
2020/01/31 02:28:14.7	91.670	-0.240	0.340	0.500
2020/01/31 02:28:14.8	91.690	-0.240	0.330	0.480
2020/01/31 02:28:14.9	91.710	-0.230	0.310	0.470
2020/01/31 02:28:15.0	91.720	-0.230	0.280	0.450
2020/01/31 02:28:15.1	91.740	-0.220	0.260	0.440
2020/01/31 02:28:15.2	91.760	-0.210	0.220	0.430
2020/01/31 02:28:15.3	91.780	-0.190	0.180	0.420
2020/01/31 02:28:15.4	91.800	-0.170	0.130	0.400
2020/01/31 02:28:15.5	91.820	-0.150	0.080	0.390
2020/01/31 02:28:15.6	91.840	-0.130	0.020	0.380
2020/01/31 02:28:15.7	91.860	-0.100	-0.040	0.380
2020/01/31 02:28:15.8	91.880	-0.070	-0.100	0.370
2020/01/31 02:28:15.9	91.900	-0.040	-0.170	0.370
2020/01/31 02:28:16.0	91.920	-0.010	-0.240	0.370
2020/01/31 02:28:16.1	91.930	0.030	-0.310	0.370
2020/01/31 02:28:16.2	91.950	0.060	-0.380	0.380
2020/01/31 02:28:16.3	91.970	0.090	-0.450	0.380
2020/01/31 02:28:16.4	91.980	0.130	-0.510	0.390
2020/01/31 02:28:16.5	92.000	0.160	-0.580	0.400
2020/01/31 02:28:16.6	92.010	0.190	-0.640	0.410
2020/01/31 02:28:16.7	92.030	0.220	-0.700	0.420
2020/01/31 02:28:16.8	92.040	0.250	-0.750	0.430
2020/01/31 02:28:16.9	92.060	0.280	-0.790	0.450
2020/01/31 02:28:17.0	92.070	0.300	-0.830	0.460
2020/01/31 02:28:17.1	92.090	0.320	-0.860	0.480
2020/01/31 02:28:17.2	92.100	0.340	-0.880	0.490
2020/01/31 02:28:17.3	92.110	0.350	-0.890	0.510
2020/01/31 02:28:17.4	92.120	0.360	-0.890	0.530
2020/01/31 02:28:17.5	92.130	0.360	-0.880	0.550
2020/01/31 02:28:17.6	92.140	0.360	-0.870	0.570
2020/01/31 02:28:17.7	92.150	0.360	-0.840	0.600
2020/01/31 02:28:17.8	92.160	0.350	-0.800	0.620
2020/01/31 02:28:17.9	92.170	0.340	-0.760	0.650
2020/01/31 02:28:18.0	92.170	0.330	-0.700	0.680
2020/01/31 02:28:18.1	92.170	0.310	-0.630	0.710
2020/01/31 02:28:18.2	92.180	0.280	-0.560	0.750
2020/01/31 02:28:18.3	92.180	0.250	-0.480	0.780
2020/01/31 02:28:18.4	92.180	0.220	-0.400	0.820
2020/01/31 02:28:18.5	92.180	0.190	-0.310	0.860
2020/01/31 02:28:18.6	92.190	0.150	-0.220	0.890
2020/01/31 02:28:18.7	92.180	0.110	-0.120	0.930
2020/01/31 02:28:18.8	92.180	0.070	-0.030	0.970
2020/01/31 02:28:18.9	92.180	0.030	0.070	1.010
2020/01/31 02:28:19.0	92.180	-0.010	0.160	1.040
2020/01/31 02:28:19.1	92.170	-0.060	0.260	1.090
2020/01/31 02:28:19.2	92.160	-0.110	0.340	1.120
2020/01/31 02:28:19.3	92.150	-0.150	0.430	1.150
2020/01/31 02:28:19.4	92.140	-0.200	0.500	1.180
2020/01/31 02:28:19.5	92.130	-0.240	0.570	1.200
2020/01/31 02:28:19.6	92.120	-0.280	0.620	1.220
2020/01/31 02:28:19.7	92.110	-0.320	0.670	1.240
2020/01/31 02:28:19.8	92.090	-0.360	0.710	1.260
2020/01/31 02:28:19.9	92.080	-0.400	0.730	1.270
2020/01/31 02:28:20.0	92.060	-0.430	0.750	1.280
2020/01/31 02:28:20.1	92.050	-0.460	0.750	1.290
2020/01/31 02:28:20.2	92.030	-0.480	0.740	1.290
2020/01/31 02:28:20.3	92.010	-0.500	0.720	1.290
2020/01/31 02:28:20.4	92.000	-0.520	0.690	1.290
2020/01/31 02:28:20.5	91.980	-0.530	0.640	1.280
2020/01/31 02:28:20.6	91.960	-0.530	0.590	1.270
2020/01/31 02:28:20.7	91.940	-0.530	0.520	1.250
2020/01/31 02:28:20.8	91.920	-0.530	0.440	1.240
2020/01/31 02:28:20.9	91.910	-0.520	0.360	1.220
2020/01/31 02:28:21.0	91.890	-0.510	0.260	1.190
2020/01/31 02:28:21.1	91.870	-0.490	0.160	1.170
2020/01/31 02:28:21.2	91.860	-0.470	0.050	1.150
2020/01/31 02:28:21.3	91.850	-0.440	-0.060	1.120
2020/01/31 02:28:21.4	91.840	-0.410	-0.180	1.090
2020/01/31 02:28:21.5	91.830	-0.380	-0.300	1.060
2020/01/31 02:28:21.6	91.820	-0.340	-0.420	1.030
2020/01/31 02:28:21.7	91.810	-0.300	-0.550	1.000
2020/01/31 02:28:21.8	91.810	-0.250	-0.670	0.980
2020/01/31 02:28:21.9	91.810	-0.210	-0.790	0.950
2020/01/31 02:28:22.0	91.800	-0.160	-0.910	0.920
2020/01/31 02:28:22.1	91.800	-0.110	-1.020	0.890
2020/01/31 02:28:22.2	91.800	-0.050	-1.130	0.870
2020/01/31 02:28:22.3	91.810	-0.000	-1.230	0.840
2020/01/31 02:28:22.4	91.820	0.050	-1.320	0.810
2020/01/31 02:28:22.5	91.830	0.110	-1.400	0.780
2020/01/31 02:28:22.6	91.840	0.160	-1.470	0.750
2020/01/31 02:28:22.7	91.860	0.210	-1.530	0.720
2020/01/31 02:28:22.8	91.880	0.260	-1.580	0.690
2020/01/31 02:28:22.9	91.900	0.310	-1.620	0.670
2020/01/31 02:28:23.0	91.920	0.350	-1.640	0.640
2020/01/31 02:28:23.1	91.940	0.390	-1.650	0.620
2020/01/31 02:28:23.2	91.970	0.430	-1.640	0.600
2020/01/31 02:28:23.3	92.000	0.460	-1.620	0.590
2020/01/31 02:28:23.4	92.020	0.490	-1.590	0.580
2020/01/31 02:28:23.5	92.050	0.520	-1.550	0.570
2020/01/31 02:28:23.6	92.070	0.540	-1.490	0.570
2020/01/31 02:28:23.7	92.100	0.560	-1.410	0.570
2020/01/31 02:28:23.8	92.120	0.570	-1.330	0.570
2020/01/31 02:28:23.9	92.150	0.570	-1.230	0.580
2020/01/31 02:28:24.0	92.170	0.570	-1.130	0.590
2020/01/31 02:28:24.1	92.180	0.560	-1.010	0.610
2020/01/31 02:28:24.2	92.200	0.550	-0.890	0.630
2020/01/31 02:28:24.3	92.220	0.530	-0.760	0.640
2020/01/31 02:28:24.4	92.230	0.510	-0.630	0.660
2020/01/31 02:28:24.5	92.240	0.480	-0.490	0.690
2020/01/31 02:28:24.6	92.240	0.450	-0.360	0.710
2020/01/31 02:28:24.7	92.250	0.410	-0.220	0.730
2020/01/31 02:28:24.8	92.250	0.370	-0.080	0.760
2020/01/31 02:28:24.9	92.250	0.320	0.050	0.780
2020/01/31 02:28:25.0	92.250	0.270	0.180	0.800
2020/01/31 02:28:25.1	92.250	0.220	0.310	0.820
2020/01/31 02:28:25.2	92.250	0.170	0.430	0.840
2020/01/31 02:28:25.3	92.240	0.110	0.540	0.860
2020/01/31 02:28:25.4	92.240	0.060	0.650	0.880
2020/01/31 02:28:25.5	92.230	-0.000	0.750	0.890
2020/01/31 02:28:25.6	92.220	-0.060	0.830	0.900
2020/01/31 02:28:25.7	92.210	-0.120	0.910	0.910
2020/01/31 02:28:25.8	92.200	-0.170	0.980	0.910
2020/01/31 02:28:25.9	92.190	-0.230	1.030	0.920
2020/01/31 02:28:26.0	92.180	-0.280	1.080	0.920
2020/01/31 02:28:26.1	92.170	-0.330	1.110	0.920
2020/01/31 02:28:26.2	92.160	-0.370	1.130	0.910
2020/01/31 02:28:26.3	92.150	-0.420	1.140	0.900
2020/01/31 02:28:26.4	92.140	-0.460	1.140	0.890
2020/01/31 02:28:26.5	92.130	-0.490	1.130	0.870
2020/01/31 02:28:26.6	92.120	-0.520	1.110	0.860
2020/01/31 02:28:26.7	92.110	-0.540	1.080	0.840
2020/01/31 02:28:26.8	92.110	-0.560	1.040	0.810
2020/01/31 02:28:26.9	92.100	-0.580	0.990	0.790
2020/01/31 02:28:27.0	92.100	-0.590	0.930	0.760
2020/01/31 02:28:27.1	92.100	-0.590	0.860	0.730
2020/01/31 02:28:27.2	92.100	-0.590	0.790	0.700
2020/01/31 02:28:27.3	92.100	-0.580	0.710	0.660
2020/01/31 02:28:27.4	92.110	-0.570	0.630	0.630
2020/01/31 02:28:27.5	92.110	-0.550	0.540	0.600
2020/01/31 02:28:27.6	92.120	-0.520	0.450	0.560
2020/01/31 02:28:27.7	92.130	-0.500	0.360	0.530
2020/01/31 02:28:27.8	92.140	-0.460	0.260	0.500
2020/01/31 02:28:27.9	92.150	-0.430	0.160	0.470
2020/01/31 02:28:28.0	92.160	-0.390	0.060	0.440
2020/01/31 02:28:28.1	92.170	-0.340	-0.040	0.410
2020/01/31 02:28:28.2	92.180	-0.300	-0.140	0.390
2020/01/31 02:28:28.3	92.190	-0.250	-0.230	0.360
2020/01/31 02:28:28.4	92.200	-0.200	-0.330	0.340
2020/01/31 02:28:28.5	92.220	-0.140	-0.420	0.320
2020/01/31 02:28:28.6	92.230	-0.090	-0.510	0.300
2020/01/31 02:28:28.7	92.240	-0.040	-0.590	0.280
2020/01/31 02:28:28.8	92.250	0.010	-0.670	0.260
2020/01/31 02:28:28.9	92.260	0.060	-0.740	0.240
2020/01/31 02:28:29.0	92.270	0.110	-0.800	0.230
2020/01/31 02:28:29.1	92.280	0.160	-0.860	0.210
2020/01/31 02:28:29.2	92.290	0.200	-0.910	0.190
2020/01/31 02:28:29.3	92.300	0.250	-0.950	0.180
2020/01/31 02:28:29.4	92.310	0.290	-0.990	0.160
2020/01/31 02:28:29.5	92.320	0.320	-1.010	0.150
2020/01/31 02:28:29.6	92.320	0.350	-1.030	0.140
2020/01/31 02:28:29.7	92.330	0.380	-1.040	0.130
2020/01/31 02:28:29.8	92.330	0.400	-1.040	0.120
2020/01/31 02:28:29.9	92.340	0.420	-1.030	0.120
2020/01/31 02:28:30.0	92.340	0.440	-1.010	0.120
2020/01/31 02:28:30.1	92.340	0.450	-0.990	0.120
2020/01/31 02:28:30.2	92.340	0.460	-0.960	0.120
2020/01/31 02:28:30.3	92.340	0.460	-0.930	0.130
2020/01/31 02:28:30.4	92.340	0.460	-0.890	0.140
2020/01/31 02:28:30.5	92.340	0.450	-0.840	0.160
2020/01/31 02:28:30.6	92.330	0.440	-0.790	0.180
2020/01/31 02:28:30.7	92.330	0.430	-0.740	0.200
2020/01/31 02:28:30.8	92.330	0.420	-0.680	0.230
2020/01/31 02:28:30.9	92.330	0.400	-0.630	0.260
2020/01/31 02:28:31.0	92.330	0.380	-0.570	0.290
2020/01/31 02:28:31.1	92.320	0.360	-0.510	0.340
2020/01/31 02:28:31.2	92.320	0.340	-0.450	0.380
2020/01/31 02:28:31.3	92.320	0.310	-0.390	0.420
2020/01/31 02:28:31.4	92.320	0.290	-0.340	0.470
2020/01/31 02:28:31.5	92.330	0.260	-0.290	0.520
2020/01/31 02:28:31.6	92.330	0.240	-0.240	0.560
2020/01/31 02:28:31.7	92.340	0.210	-0.200	0.610
2020/01/31 02:28:31.8	92.340	0.190	-0.160	0.660
2020/01/31 02:28:31.9	92.350	0.170	-0.130	0.710
2020/01/31 02:28:32.0	92.360	0.140	-0.100	0.760
2020/01/31 02:28:32.1	92.360	0.130	-0.070	0.800
2020/01/31 02:28:32.2	92.380	0.110	-0.060	0.850
2020/01/31 02:28:32.3	92.390	0.090	-0.050	0.890
2020/01/31 02:28:32.4	92.400	0.080	-0.040	0.930
2020/01/31 02:28:32.5	92.420	0.070	-0.040	0.960
2020/01/31 02:28:32.6	92.430	0.060	-0.050	0.990
2020/01/31 02:28:32.7	92.450	0.060	-0.070	1.020
2020/01/31 02:28:32.8	92.460	0.060	-0.090	1.050
2020/01/31 02:28:32.9	92.480	0.060	-0.110	1.070
2020/01/31 02:28:33.0	92.490	0.060	-0.140	1.090
2020/01/31 02:28:33.1	92.500	0.060	-0.170	1.110
2020/01/31 02:28:33.2	92.520	0.070	-0.210	1.120
2020/01/31 02:28:33.3	92.530	0.070	-0.240	1.130
2020/01/31 02:28:33.4	92.540	0.080	-0.280	1.140
2020/01/31 02:28:33.5	92.560	0.090	-0.310	1.150
2020/01/31 02:28:33.6	92.570	0.090	-0.340	1.160
2020/01/31 02:28:33.7	92.570	0.100	-0.370	1.170
2020/01/31 02:28:33.8	92.580	0.100	-0.400	1.180
2020/01/31 02:28:33.9	92.580	0.110	-0.420	1.200
2020/01/31 02:28:34.0	92.580	0.110	-0.440	1.210
2020/01/31 02:28:34.1	92.570	0.110	-0.450	1.220
2020/01/31 02:28:34.2	92.570	0.100	-0.460	1.230
2020/01/31 02:28:34.3	92.560	0.100	-0.460	1.250
2020/01/31 02:28:34.4	92.540	0.090	-0.460	1.260
2020/01/31 02:28:34.5	92.530	0.070	-0.440	1.280
2020/01/31 02:28:34.6	92.510	0.060	-0.420	1.300
2020/01/31 02:28:34.7	92.490	0.040	-0.400	1.320
2020/01/31 02:28:34.8	92.470	0.020	-0.360	1.330
2020/01/31 02:28:34.9	92.450	-0.010	-0.330	1.350
2020/01/31 02:28:35.0	92.430	-0.040	-0.280	1.370
2020/01/31 02:28:35.1	92.410	-0.070	-0.230	1.400
2020/01/31 02:28:35.2	92.380	-0.100	-0.170	1.410
2020/01/31 02:28:35.3	92.350	-0.140	-0.110	1.430
2020/01/31 02:28:35.4	92.330	-0.180	-0.050	1.450
2020/01/31 02:28:35.5	92.300	-0.220	0.020	1.460
2020/01/31 02:28:35.6	92.280	-0.260	0.090	1.480
2020/01/31 02:28:35.7	92.250	-0.310	0.160	1.490
2020/01/31 02:28:35.8	92.230	-0.350	0.220	1.500
2020/01/31 02:28:35.9	92.200	-0.390	0.290	1.510
2020/01/31 02:28:36.0	92.180	-0.430	0.350	1.510
2020/01/31 02:28:36.1	92.170	-0.480	0.410	1.510
2020/01/31 02:28:36.2	92.150	-0.510	0.460	1.510
2020/01/31 02:28:36.3	92.130	-0.550	0.500	1.510
2020/01/31 02:28:36.4	92.120	-0.580	0.540	1.490
2020/01/31 02:28:36.5	92.110	-0.610	0.570	1.480
2020/01/31 02:28:36.6	92.100	-0.640	0.590	1.460
2020/01/31 02:28:36.7	92.090	-0.660	0.600	1.440
2020/01/31 02:28:36.8	92.080	-0.670	0.600	1.410
2020/01/31 02:28:36.9	92.080	-0.680	0.590	1.370
2020/01/31 02:28:37.0	92.080	-0.680	0.570	1.340
2020/01/31 02:28:37.1	92.080	-0.680	0.540	1.290
2020/01/31 02:28:37.2	92.090	-0.670	0.490	1.250
2020/01/31 02:28:37.3	92.090	-0.650	0.430	1.200
2020/01/31 02:28:37.4	92.090	-0.630	0.370	1.150
2020/01/31 02:28:37.5	92.100	-0.600	0.290	1.100
2020/01/31 02:28:37.6	92.110	-0.560	0.210	1.040
2020/01/31 02:28:37.7	92.110	-0.510	0.120	0.990
2020/01/31 02:28:37.8	92.120	-0.460	0.020	0.930
2020/01/31 02:28:37.9	92.140	-0.410	-0.080	0.870
2020/01/31 02:28:38.0	92.150	-0.350	-0.190	0.820
2020/01/31 02:28:38.1	92.160	-0.280	-0.300	0.760
2020/01/31 02:28:38.2	92.170	-0.210	-0.410	0.710
2020/01/31 02:28:38.3	92.180	-0.140	-0.510	0.660
2020/01/31 02:28:38.4	92.190	-0.070	-0.620	0.610
2020/01/31 02:28:38.5	92.200	-0.000	-0.710	0.560
2020/01/31 02:28:38.6	92.210	0.070	-0.800	0.520
2020/01/31 02:28:38.7	92.220	0.140	-0.890	0.480
2020/01/31 02:28:38.8	92.230	0.210	-0.960	0.440
2020/01/31 02:28:38.9	92.240	0.280	-1.030	0.400
2020/01/31 02:28:39.0	92.240	0.340	-1.080	0.360
2020/01/31 02:28:39.1	92.250	0.400	-1.130	0.330
2020/01/31 02:28:39.2	92.260	0.460	-1.170	0.300
2020/01/31 02:28:39.3	92.260	0.510	-1.190	0.270
2020/01/31 02:28:39.4	92.270	0.560	-1.200	0.240
2020/01/31 02:28:39.5	92.270	0.600	-1.210	0.220
2020/01/31 02:28:39.6	92.270	0.630	-1.200	0.190
2020/01/31 02:28:39.7	92.270	0.660	-1.180	0.170
2020/01/31 02:28:39.8	92.270	0.680	-1.150	0.150
2020/01/31 02:28:39.9	92.270	0.700	-1.110	0.140
2020/01/31 02:28:40.0	92.260	0.710	-1.060	0.120
2020/01/31 02:28:40.1	92.260	0.710	-1.000	0.110
2020/01/31 02:28:40.2	92.260	0.710	-0.930	0.100
2020/01/31 02:28:40.3	92.250	0.700	-0.860	0.100
2020/01/31 02:28:40.4	92.250	0.690	-0.780	0.100
2020/01/31 02:28:40.5	92.250	0.670	-0.690	0.110
2020/01/31 02:28:40.6	92.250	0.650	-0.600	0.120
2020/01/31 02:28:40.7	92.240	0.620	-0.510	0.130
2020/01/31 02:28:40.8	92.240	0.590	-0.410	0.150
2020/01/31 02:28:40.9	92.240	0.550	-0.320	0.170
2020/01/31 02:28:41.0	92.240	0.510	-0.220	0.190
2020/01/31 02:28:41.1	92.240	0.470	-0.120	0.230
2020/01/31 02:28:41.2	92.240	0.430	-0.030	0.260
2020/01/31 02:28:41.3	92.240	0.390	0.060	0.290
2020/01/31 02:28:41.4	92.240	0.340	0.140	0.320
2020/01/31 02:28:41.5	92.240	0.300	0.220	0.360
2020/01/31 02:28:41.6	92.240	0.250	0.300	0.390
2020/01/31 02:28:41.7	92.250	0.200	0.370	0.430
2020/01/31 02:28:41.8	92.250	0.160	0.430	0.460
2020/01/31 02:28:41.9	92.260	0.110	0.490	0.500
2020/01/31 02:28:42.0	92.260	0.070	0.540	0.530
2020/01/31 02:28:42.1	92.280	0.030	0.580	0.570
2020/01/31 02:28:42.2	92.280	-0.010	0.620	0.600
2020/01/31 02:28:42.3	92.290	-0.050	0.640	0.630
2020/01/31 02:28:42.4	92.300	-0.090	0.660	0.660
2020/01/31 02:28:42.5	92.300	-0.130	0.670	0.690
2020/01/31 02:28:42.6	92.310	-0.160	0.680	0.710
2020/01/31 02:28:42.7	92.310	-0.190	0.680	0.730
2020/01/31 02:28:42.8	92.320	-0.220	0.670	0.750
2020/01/31 02:28:42.9	92.320	-0.250	0.650	0.770
2020/01/31 02:28:43.0	92.330	-0.270	0.630	0.790
2020/01/31 02:28:43.1	92.320	-0.300	0.590	0.810
2020/01/31 02:28:43.2	92.330	-0.320	0.560	0.820
2020/01/31 02:28:43.3	92.330	-0.340	0.520	0.830
2020/01/31 02:28:43.4	92.330	-0.360	0.470	0.830
2020/01/31 02:28:43.5	92.330	-0.370	0.430	0.840
2020/01/31 02:28:43.6	92.320	-0.380	0.370	0.850
2020/01/31 02:28:43.7	92.320	-0.390	0.320	0.850
2020/01/31 02:28:43.8	92.320	-0.400	0.260	0.860
2020/01/31 02:28:43.9	92.310	-0.400	0.190	0.860
2020/01/31 02:28:44.0	92.300	-0.410	0.130	0.870
2020/01/31 02:28:44.1	92.300	-0.410	0.070	0.870
2020/01/31 02:28:44.2	92.300	-0.410	0.000	0.880
2020/01/31 02:28:44.3	92.290	-0.400	-0.060	0.890
2020/01/31 02:28:44.4	92.280	-0.400	-0.130	0.890
2020/01/31 02:28:44.5	92.270	-0.390	-0.190	0.900
2020/01/31 02:28:44.6	92.270	-0.380	-0.250	0.910
2020/01/31 02:28:44.7	92.260	-0.370	-0.310	0.910
2020/01/31 02:28:44.8	92.250	-0.360	-0.360	0.920
2020/01/31 02:28:44.9	92.250	-0.340	-0.420	0.930
2020/01/31 02:28:45.0	92.240	-0.330	-0.460	0.940
2020/01/31 02:28:45.1	92.220	-0.310	-0.510	0.950
2020/01/31 02:28:45.2	92.210	-0.300	-0.550	0.960
2020/01/31 02:28:45.3	92.210	-0.280	-0.590	0.970
2020/01/31 02:28:45.4	92.200	-0.260	-0.620	0.980
2020/01/31 02:28:45.5	92.200	-0.240	-0.650	0.990
2020/01/31 02:28:45.6	92.190	-0.220	-0.670	1.000
2020/01/31 02:28:45.7	92.190	-0.200	-0.690	1.010
2020/01/31 02:28:45.8	92.190	-0.180	-0.700	1.020
2020/01/31 02:28:45.9	92.180	-0.160	-0.720	1.020
2020/01/31 02:28:46.0	92.180	-0.140	-0.730	1.030
2020/01/31 02:28:46.1	92.170	-0.120	-0.730	1.030
2020/01/31 02:28:46.2	92.170	-0.090	-0.740	1.030
2020/01/31 02:28:46.3	92.170	-0.070	-0.740	1.030
2020/01/31 02:28:46.4	92.170	-0.050	-0.740	1.020
2020/01/31 02:28:46.5	92.170	-0.020	-0.750	1.020
2020/01/31 02:28:46.6	92.170	-0.000	-0.750	1.010
2020/01/31 02:28:46.7	92.170	0.020	-0.750	1.000
2020/01/31 02:28:46.8	92.170	0.050	-0.750	0.980
2020/01/31 02:28:46.9	92.180	0.070	-0.750	0.960
2020/01/31 02:28:47.0	92.180	0.100	-0.750	0.940
2020/01/31 02:28:47.1	92.180	0.120	-0.740	0.930
2020/01/31 02:28:47.2	92.190	0.150	-0.750	0.910
2020/01/31 02:28:47.3	92.190	0.180	-0.750	0.890
2020/01/31 02:28:47.4	92.190	0.210	-0.750	0.870
2020/01/31 02:28:47.5	92.190	0.230	-0.750	0.850
2020/01/31 02:28:47.6	92.200	0.260	-0.760	0.820
2020/01/31 02:28:47.7	92.200	0.290	-0.760	0.810
2020/01/31 02:28:47.8	92.190	0.320	-0.760	0.790
2020/01/31 02:28:47.9	92.190	0.340	-0.760	0.770
2020/01/31 02:28:48.0	92.190	0.370	-0.750	0.760
2020/01/31 02:28:48.1	92.180	0.390	-0.750	0.740
2020/01/31 02:28:48.2	92.170	0.420	-0.740	0.740
2020/01/31 02:28:48.3	92.160	0.440	-0.730	0.730
2020/01/31 02:28:48.4	92.150	0.460	-0.720	0.720
2020/01/31 02:28:48.5	92.140	0.470	-0.700	0.720
2020/01/31 02:28:48.6	92.120	0.490	-0.670	0.710
2020/01/31 02:28:48.7	92.110	0.500	-0.640	0.710
2020/01/31 02:28:48.8	92.090	0.500	-0.610	0.710
2020/01/31 02:28:48.9	92.070	0.510	-0.570	0.720
2020/01/31 02:28:49.0	92.040	0.510	-0.530	0.720
2020/01/31 02:28:49.1	92.030	0.500	-0.480	0.730
2020/01/31 02:28:49.2	92.000	0.500	-0.430	0.730
2020/01/31 02:28:49.3	91.980	0.490	-0.370	0.740
2020/01/31 02:28:49.4	91.950	0.470	-0.310	0.740
2020/01/31 02:28:49.5	91.920	0.450	-0.250	0.750
2020/01/31 02:28:49.6	91.890	0.430	-0.190	0.760
2020/01/31 02:28:49.7	91.860	0.400	-0.130	0.760
2020/01/31 02:28:49.8	91.840	0.370	-0.060	0.770
2020/01/31 02:28:49.9	91.810	0.340	0.000	0.770
2020/01/31 02:28:50.0	91.780	0.310	0.070	0.770
2020/01/31 02:28:50.1	91.760	0.270	0.130	0.780
2020/01/31 02:28:50.2	91.740	0.230	0.190	0.780
2020/01/31 02:28:50.3	91.720	0.190	0.250	0.780
2020/01/31 02:28:50.4	91.700	0.140	0.310	0.780
2020/01/31 02:28:50.5	91.690	0.100	0.360	0.780
2020/01/31 02:28:50.6	91.670	0.050	0.410	0.780
2020/01/31 02:28:50.7	91.670	0.010	0.450	0.780
2020/01/31 02:28:50.8	91.660	-0.030	0.480	0.780
2020/01/31 02:28:50.9	91.660	-0.080	0.520	0.770
2020/01/31 02:28:51.0	91.660	-0.120	0.540	0.770
2020/01/31 02:28:51.1	91.650	-0.160	0.560	0.770
2020/01/31 02:28:51.2	91.660	-0.200	0.570	0.760
2020/01/31 02:28:51.3	91.670	-0.240	0.570	0.760
2020/01/31 02:28:51.4	91.690	-0.270	0.570	0.750
2020/01/31 02:28:51.5	91.710	-0.300	0.560	0.750
2020/01/31 02:28:51.6	91.730	-0.330	0.540	0.740
2020/01/31 02:28:51.7	91.750	-0.350	0.520	0.730
2020/01/31 02:28:51.8	91.780	-0.370	0.490	0.720
2020/01/31 02:28:51.9	91.810	-0.390	0.450	0.720
2020/01/31 02:28:52.0	91.840	-0.400	0.410	0.710
2020/01/31 02:28:52.1	91.890	-0.410	0.360	0.700
2020/01/31 02:28:52.2	91.920	-0.420	0.320	0.690
2020/01/31 02:28:52.3	91.960	-0.420	0.260	0.680
2020/01/31 02:28:52.4	92.000	-0.420	0.210	0.670
2020/01/31 02:28:52.5	92.040	-0.410	0.150	0.660
2020/01/31 02:28:52.6	92.080	-0.410	0.090	0.650
2020/01/31 02:28:52.7	92.110	-0.400	0.030	0.640
2020/01/31 02:28:52.8	92.150	-0.380	-0.040	0.640
2020/01/31 02:28:52.9	92.190	-0.370	-0.100	0.630
2020/01/31 02:28:53.0	92.220	-0.350	-0.160	0.630
2020/01/31 02:28:53.1	92.260	-0.330	-0.220	0.630
2020/01/31 02:28:53.2	92.290	-0.310	-0.280	0.630
2020/01/31 02:28:53.3	92.320	-0.290	-0.330	0.640
2020/01/31 02:28:53.4	92.350	-0.270	-0.380	0.650
2020/01/31 02:28:53.5	92.370	-0.250	-0.430	0.660
2020/01/31 02:28:53.6	92.390	-0.220	-0.470	0.670
2020/01/31 02:28:53.7	92.400	-0.200	-0.510	0.690
2020/01/31 02:28:53.8	92.410	-0.180	-0.540	0.710
2020/01/31 02:28:53.9	92.420	-0.150	-0.570	0.730
2020/01/31 02:28:54.0	92.420	-0.130	-0.590	0.760
2020/01/31 02:28:54.1	92.430	-0.110	-0.610	0.790
2020/01/31 02:28:54.2	92.430	-0.090	-0.620	0.820
2020/01/31 02:28:54.3	92.420	-0.070	-0.630	0.850
2020/01/31 02:28:54.4	92.410	-0.050	-0.630	0.880
2020/01/31 02:28:54.5	92.400	-0.040	-0.630	0.910
2020/01/31 02:28:54.6	92.390	-0.020	-0.630	0.950
2020/01/31 02:28:54.7	92.370	-0.010	-0.610	0.980
2020/01/31 02:28:54.8	92.350	0.010	-0.600	1.010
2020/01/31 02:28:54.9	92.330	0.020	-0.580	1.040
2020/01/31 02:28:55.0	92.310	0.030	-0.550	1.070
2020/01/31 02:28:55.1	92.280	0.030	-0.530	1.100
2020/01/31 02:28:55.2	92.250	0.040	-0.500	1.130
2020/01/31 02:28:55.3	92.230	0.040	-0.460	1.160
2020/01/31 02:28:55.4	92.210	0.050	-0.430	1.180
2020/01/31 02:28:55.5	92.180	0.050	-0.390	1.210
2020/01/31 02:28:55.6	92.160	0.050	-0.350	1.230
2020/01/31 02:28:55.7	92.140	0.050	-0.310	1.250
2020/01/31 02:28:55.8	92.120	0.040	-0.270	1.270
2020/01/31 02:28:55.9	92.100	0.040	-0.230	1.280
2020/01/31 02:28:56.0	92.080	0.040	-0.190	1.290
2020/01/31 02:28:56.1	92.060	0.030	-0.150	1.300
2020/01/31 02:28:56.2	92.040	0.030	-0.110	1.300
2020/01/31 02:28:56.3	92.030	0.020	-0.080	1.300
2020/01/31 02:28:56.4	92.020	0.010	-0.050	1.290
2020/01/31 02:28:56.5	92.010	0.010	-0.020	1.290
2020/01/31 02:28:56.6	92.010	0.000	0.000	1.270
2020/01/31 02:28:56.7	92.000	-0.000	0.020	1.260
2020/01/31 02:28:56.8	92.000	-0.010	0.040	1.240
2020/01/31 02:28:56.9	92.000	-0.010	0.060	1.220
2020/01/31 02:28:57.0	92.000	-0.020	0.070	1.190
2020/01/31 02:28:57.1	91.990	-0.020	0.070	1.170
2020/01/31 02:28:57.2	91.990	-0.020	0.080	1.140
2020/01/31 02:28:57.3	92.000	-0.030	0.070	1.110
2020/01/31 02:28:57.4	92.000	-0.030	0.070	1.080
2020/01/31 02:28:57.5	92.010	-0.030	0.060	1.040
2020/01/31 02:28:57.6	92.010	-0.030	0.050	1.000
2020/01/31 02:28:57.7	92.020	-0.030	0.030	0.970
2020/01/31 02:28:57.8	92.020	-0.030	0.010	0.930
2020/01/31 02:28:57.9	92.030	-0.020	-0.010	0.890
2020/01/31 02:28:58.0	92.040	-0.020	-0.030	0.850
2020/01/31 02:28:58.1	92.050	-0.020	-0.060	0.810
2020/01/31 02:28:58.2	92.050	-0.010	-0.080	0.770
2020/01/31 02:28:58.3	92.060	-0.010	-0.110	0.730
2020/01/31 02:28:58.4	92.070	-0.000	-0.130	0.690
2020/01/31 02:28:58.5	92.080	0.000	-0.160	0.640
2020/01/31 02:28:58.6	92.090	0.010	-0.180	0.600
2020/01/31 02:28:58.7	92.100	0.020	-0.210	0.560
2020/01/31 02:28:58.8	92.110	0.020	-0.230	0.520
2020/01/31 02:28:58.9	92.120	0.030	-0.250	0.480
2020/01/31 02:28:59.0	92.120	0.040	-0.270	0.440
2020/01/31 02:28:59.1	92.130	0.050	-0.290	0.410
2020/01/31 02:28:59.2	92.130	0.050	-0.310	0.380
2020/01/31 02:28:59.3	92.140	0.060	-0.330	0.350
2020/01/31 02:28:59.4	92.140	0.070	-0.350	0.320
2020/01/31 02:28:59.5	92.150	0.080	-0.370	0.290
2020/01/31 02:28:59.6	92.150	0.100	-0.380	0.270
2020/01/31 02:28:59.7	92.150	0.110	-0.400	0.250
2020/01/31 02:28:59.8	92.160	0.120	-0.420	0.230
2020/01/31 02:28:59.9	92.160	0.140	-0.440	0.220
2020/01/31 02:29:00.0	92.160	0.150	-0.460	0.210
2020/01/31 02:29:00.1	92.170	0.170	-0.470	0.200
2020/01/31 02:29:00.2	92.170	0.190	-0.490	0.200
2020/01/31 02:29:00.3	92.170	0.210	-0.510	0.200
2020/01/31 02:29:00.4	92.170	0.230	-0.540	0.200
2020/01/31 02:29:00.5	92.170	0.250	-0.560	0.210
2020/01/31 02:29:00.6	92.160	0.270	-0.580	0.220
2020/01/31 02:29:00.7	92.160	0.290	-0.600	0.240
2020/01/31 02:29:00.8	92.160	0.320	-0.620	0.250
2020/01/31 02:29:00.9	92.150	0.340	-0.640	0.270
2020/01/31 02:29:01.0	92.140	0.360	-0.660	0.290
2020/01/31 02:29:01.1	92.140	0.380	-0.680	0.320
2020/01/31 02:29:01.2	92.130	0.400	-0.700	0.350
2020/01/31 02:29:01.3	92.120	0.420	-0.710	0.370
2020/01/31 02:29:01.4	92.120	0.430	-0.720	0.400
2020/01/31 02:29:01.5	92.110	0.440	-0.720	0.420
2020/01/31 02:29:01.6	92.100	0.450	-0.730	0.450
2020/01/31 02:29:01.7	92.090	0.460	-0.720	0.470
2020/01/31 02:29:01.8	92.080	0.460	-0.720	0.490
2020/01/31 02:29:01.9	92.070	0.470	-0.710	0.510
2020/01/31 02:29:02.0	92.070	0.460	-0.690	0.530
2020/01/31 02:29:02.1	92.050	0.460	-0.670	0.550
2020/01/31 02:29:02.2	92.040	0.450	-0.640	0.570
2020/01/31 02:29:02.3	92.040	0.440	-0.610	0.590
2020/01/31 02:29:02.4	92.030	0.420	-0.580	0.610
2020/01/31 02:29:02.5	92.030	0.400	-0.540	0.620
2020/01/31 02:29:02.6	92.030	0.380	-0.490	0.640
2020/01/31 02:29:02.7	92.030	0.350	-0.440	0.650
2020/01/31 02:29:02.8	92.030	0.330	-0.390	0.670
2020/01/31 02:29:02.9	92.030	0.300	-0.340	0.690
2020/01/31 02:29:03.0	92.030	0.270	-0.280	0.700
2020/01/31 02:29:03.1	92.040	0.230	-0.220	0.720
2020/01/31 02:29:03.2	92.040	0.200	-0.160	0.730
2020/01/31 02:29:03.3	92.040	0.160	-0.100	0.750
2020/01/31 02:29:03.4	92.050	0.130	-0.030	0.770
2020/01/31 02:29:03.5	92.050	0.090	0.030	0.790
2020/01/31 02:29:03.6	92.050	0.050	0.090	0.810
2020/01/31 02:29:03.7	92.060	0.010	0.140	0.830
2020/01/31 02:29:03.8	92.060	-0.020	0.200	0.850
2020/01/31 02:29:03.9	92.060	-0.060	0.250	0.870
2020/01/31 02:29:04.0	92.070	-0.090	0.300	0.890
2020/01/31 02:29:04.1	92.080	-0.120	0.340	0.920
2020/01/31 02:29:04.2	92.080	-0.160	0.380	0.940
2020/01/31 02:29:04.3	92.080	-0.190	0.410	0.960
2020/01/31 02:29:04.4	92.080	-0.210	0.440	0.980
2020/01/31 02:29:04.5	92.080	-0.240	0.460	1.000
2020/01/31 02:29:04.6	92.090	-0.260	0.470	1.010
2020/01/31 02:29:04.7	92.090	-0.280	0.480	1.030
2020/01/31 02:29:04.8	92.090	-0.300	0.480	1.040
2020/01/31 02:29:04.9	92.090	-0.320	0.470	1.050
2020/01/31 02:29:05.0	92.090	-0.330	0.450	1.060
2020/01/31 02:29:05.1	92.100	-0.340	0.440	1.060
2020/01/31 02:29:05.2	92.100	-0.350	0.410	1.060
2020/01/31 02:29:05.3	92.100	-0.360	0.370	1.060
2020/01/31 02:29:05.4	92.110	-0.360	0.330	1.060
2020/01/31 02:29:05.5	92.110	-0.360	0.290	1.060
2020/01/31 02:29:05.6	92.110	-0.360	0.240	1.050
2020/01/31 02:29:05.7	92.110	-0.360	0.190	1.050
2020/01/31 02:29:05.8	92.110	-0.350	0.130	1.040
2020/01/31 02:29:05.9	92.120	-0.350	0.070	1.040
2020/01/31 02:29:06.0	92.120	-0.340	0.010	1.030
2020/01/31 02:29:06.1	92.120	-0.330	-0.060	1.030
2020/01/31 02:29:06.2	92.120	-0.320	-0.130	1.020
2020/01/31 02:29:06.3	92.120	-0.300	-0.190	1.010
2020/01/31 02:29:06.4	92.120	-0.290	-0.250	1.010
2020/01/31 02:29:06.5	92.120	-0.270	-0.310	1.000
2020/01/31 02:29:06.6	92.120	-0.260	-0.370	0.990
2020/01/31 02:29:06.7	92.130	-0.240	-0.420	0.980
2020/01/31 02:29:06.8	92.130	-0.220	-0.470	0.970
2020/01/31 02:29:06.9	92.130	-0.210	-0.520	0.960
2020/01/31 02:29:07.0	92.140	-0.190	-0.550	0.940
2020/01/31 02:29:07.1	92.150	-0.170	-0.590	0.930
2020/01/31 02:29:07.2	92.160	-0.160	-0.610	0.920
2020/01/31 02:29:07.3	92.160	-0.140	-0.630	0.900
2020/01/31 02:29:07.4	92.170	-0.130	-0.650	0.880
2020/01/31 02:29:07.5	92.180	-0.110	-0.660	0.860
2020/01/31 02:29:07.6	92.190	-0.100	-0.660	0.840
2020/01/31 02:29:07.7	92.200	-0.090	-0.650	0.820
2020/01/31 02:29:07.8	92.210	-0.080	-0.640	0.800
2020/01/31 02:29:07.9	92.220	-0.070	-0.620	0.770
2020/01/31 02:29:08.0	92.230	-0.060	-0.600	0.750
2020/01/31 02:29:08.1	92.250	-0.050	-0.570	0.730
2020/01/31 02:29:08.2	92.260	-0.050	-0.540	0.710
2020/01/31 02:29:08.3	92.280	-0.040	-0.500	0.680
2020/01/31 02:29:08.4	92.290	-0.040	-0.460	0.660
2020/01/31 02:29:08.5	92.310	-0.040	-0.410	0.640
2020/01/31 02:29:08.6	92.320	-0.030	-0.360	0.620
2020/01/31 02:29:08.7	92.340	-0.030	-0.310	0.610
2020/01/31 02:29:08.8	92.350	-0.040	-0.270	0.590
2020/01/31 02:29:08.9	92.370	-0.040	-0.220	0.580
2020/01/31 02:29:09.0	92.380	-0.040	-0.170	0.570
2020/01/31 02:29:09.1	92.390	-0.040	-0.120	0.560
2020/01/31 02:29:09.2	92.400	-0.050	-0.070	0.550
2020/01/31 02:29:09.3	92.410	-0.050	-0.030	0.550
2020/01/31 02:29:09.4	92.420	-0.060	0.010	0.540
2020/01/31 02:29:09.5	92.420	-0.060	0.050	0.540
2020/01/31 02:29:09.6	92.430	-0.070	0.090	0.540
2020/01/31 02:29:09.7	92.430	-0.070	0.110	0.540
2020/01/31 02:29:09.8	92.430	-0.080	0.140	0.540
2020/01/31 02:29:09.9	92.430	-0.080	0.150	0.540
2020/01/31 02:29:10.0	92.420	-0.080	0.170	0.550
2020/01/31 02:29:10.1	92.410	-0.080	0.170	0.550
2020/01/31 02:29:10.2	92.410	-0.080	0.170	0.550
2020/01/31 02:29:10.3	92.400	-0.080	0.160	0.560
2020/01/31 02:29:10.4	92.400	-0.080	0.150	0.560
2020/01/31 02:29:10.5	92.390	-0.080	0.130	0.570
2020/01/31 02:29:10.6	92.380	-0.070	0.110	0.570
2020/01/31 02:29:10.7	92.370	-0.060	0.080	0.570
2020/01/31 02:29:10.8	92.360	-0.050	0.040	0.570
2020/01/31 02:29:10.9	92.360	-0.040	0.000	0.570
2020/01/31 02:29:11.0	92.350	-0.030	-0.040	0.570
2020/01/31 02:29:11.1	92.340	-0.020	-0.090	0.580
2020/01/31 02:29:11.2	92.330	-0.000	-0.130	0.580
2020/01/31 02:29:11.3	92.320	0.010	-0.180	0.580
2020/01/31 02:29:11.4	92.310	0.030	-0.230	0.580
2020/01/31 02:29:11.5	92.300	0.050	-0.280	0.590
2020/01/31 02:29:11.6	92.280	0.060	-0.330	0.590
2020/01/31 02:29:11.7	92.270	0.080	-0.380	0.600
2020/01/31 02:29:11.8	92.260	0.100	-0.420	0.610
2020/01/31 02:29:11.9	92.240	0.120	-0.460	0.620
2020/01/31 02:29:12.0	92.230	0.130	-0.500	0.630
2020/01/31 02:29:12.1	92.200	0.150	-0.530	0.640
2020/01/31 02:29:12.2	92.190	0.160	-0.560	0.650
2020/01/31 02:29:12.3	92.170	0.180	-0.580	0.670
2020/01/31 02:29:12.4	92.160	0.190	-0.590	0.680
2020/01/31 02:29:12.5	92.150	0.200	-0.600	0.700
2020/01/31 02:29:12.6	92.130	0.210	-0.610	0.710
2020/01/31 02:29:12.7	92.120	0.210	-0.610	0.730
2020/01/31 02:29:12.8	92.110	0.220	-0.600	0.750
2020/01/31 02:29:12.9	92.090	0.220	-0.600	0.760
2020/01/31 02:29:13.0	92.080	0.220	-0.580	0.780
2020/01/31 02:29:13.1	92.070	0.220	-0.560	0.800
2020/01/31 02:29:13.2	92.070	0.220	-0.540	0.810
2020/01/31 02:29:13.3	92.060	0.210	-0.520	0.820
2020/01/31 02:29:13.4	92.050	0.200	-0.490	0.830
2020/01/31 02:29:13.5	92.050	0.200	-0.470	0.850
2020/01/31 02:29:13.6	92.040	0.190	-0.440	0.850
2020/01/31 02:29:13.7	92.040	0.170	-0.410	0.860
2020/01/31 02:29:13.8	92.040	0.160	-0.390	0.870
2020/01/31 02:29:13.9	92.040	0.150	-0.360	0.870
2020/01/31 02:29:14.0	92.040	0.140	-0.330	0.880
2020/01/31 02:29:14.1	92.060	0.130	-0.310	0.880
2020/01/31 02:29:14.2	92.070	0.120	-0.290	0.880
2020/01/31 02:29:14.3	92.070	0.110	-0.270	0.880
2020/01/31 02:29:14.4	92.080	0.100	-0.250	0.880
2020/01/31 02:29:14.5	92.080	0.090	-0.240	0.880
2020/01/31 02:29:14.6	92.080	0.080	-0.220	0.870
2020/01/31 02:29:14.7	92.090	0.070	-0.210	0.870
2020/01/31 02:29:14.8	92.090	0.070	-0.210	0.870
2020/01/31 02:29:14.9	92.100	0.070	-0.200	0.870
2020/01/31 02:29:15.0	92.100	0.070	-0.200	0.870
2020/01/31 02:29:15.1	92.100	0.070	-0.200	0.870
2020/01/31 02:29:15.2	92.110	0.080	-0.200	0.880
2020/01/31 02:29:15.3	92.120	0.090	-0.210	0.880
2020/01/31 02:29:15.4	92.120	0.100	-0.220	0.880
2020/01/31 02:29:15.5	92.130	0.110	-0.230	0.880
2020/01/31 02:29:15.6	92.140	0.130	-0.250	0.880
2020/01/31 02:29:15.7	92.150	0.150	-0.270	0.880
2020/01/31 02:29:15.8	92.160	0.170	-0.280	0.880
2020/01/31 02:29:15.9	92.170	0.190	-0.310	0.880
2020/01/31 02:29:16.0	92.190	0.220	-0.330	0.880
2020/01/31 02:29:16.1	92.210	0.240	-0.350	0.880
2020/01/31 02:29:16.2	92.220	0.270	-0.370	0.880
2020/01/31 02:29:16.3	92.230	0.290	-0.400	0.890
2020/01/31 02:29:16.4	92.250	0.320	-0.420	0.900
2020/01/31 02:29:16.5	92.260	0.350	-0.440	0.910
2020/01/31 02:29:16.6	92.270	0.370	-0.450	0.920
2020/01/31 02:29:16.7	92.280	0.390	-0.460	0.930
2020/01/31 02:29:16.8	92.280	0.410	-0.470	0.950
2020/01/31 02:29:16.9	92.290	0.420	-0.470	0.960
2020/01/31 02:29:17.0	92.300	0.440	-0.470	0.980
2020/01/31 02:29:17.1	92.300	0.440	-0.470	1.000
2020/01/31 02:29:17.2	92.310	0.450	-0.450	1.020
2020/01/31 02:29:17.3	92.310	0.450	-0.430	1.030
2020/01/31 02:29:17.4	92.310	0.440	-0.410	1.050
2020/01/31 02:29:17.5	92.310	0.430	-0.380	1.060
2020/01/31 02:29:17.6	92.310	0.410	-0.340	1.070
2020/01/31 02:29:17.7	92.310	0.390	-0.300	1.080
2020/01/31 02:29:17.8	92.310	0.360	-0.250	1.090
2020/01/31 02:29:17.9	92.310	0.320	-0.200	1.100
2020/01/31 02:29:18.0	92.310	0.290	-0.140	1.100
2020/01/31 02:29:18.1	92.310	0.240	-0.080	1.110
2020/01/31 02:29:18.2	92.310	0.190	-0.020	1.110
2020/01/31 02:29:18.3	92.300	0.140	0.050	1.110
2020/01/31 02:29:18.4	92.300	0.080	0.120	1.110
2020/01/31 02:29:18.5	92.300	0.020	0.190	1.110
2020/01/31 02:29:18.6	92.290	-0.040	0.260	1.110
2020/01/31 02:29:18.7	92.290	-0.110	0.330	1.110
2020/01/31 02:29:18.8	92.290	-0.180	0.400	1.100
2020/01/31 02:29:18.9	92.280	-0.250	0.470	1.100
2020/01/31 02:29:19.0	92.280	-0.310	0.530	1.100
2020/01/31 02:29:19.1	92.280	-0.380	0.600	1.100
2020/01/31 02:29:19.2	92.270	-0.450	0.650	1.090
2020/01/31 02:29:19.3	92.270	-0.520	0.700	1.090
2020/01/31 02:29:19.4	92.260	-0.580	0.740	1.090
2020/01/31 02:29:19.5	92.260	-0.640	0.780	1.080
2020/01/31 02:29:19.6	92.260	-0.700	0.800	1.080
2020/01/31 02:29:19.7	92.250	-0.760	0.820	1.070
2020/01/31 02:29:19.8	92.250	-0.800	0.830	1.070
2020/01/31 02:29:19.9	92.250	-0.850	0.830	1.060
2020/01/31 02:29:20.0	92.250	-0.890	0.810	1.050
2020/01/31 02:29:20.1	92.240	-0.920	0.790	1.040
2020/01/31 02:29:20.2	92.240	-0.940	0.760	1.020
2020/01/31 02:29:20.3	92.240	-0.960	0.710	1.010
2020/01/31 02:29:20.4	92.240	-0.970	0.650	0.990
2020/01/31 02:29:20.5	92.240	-0.970	0.590	0.970
2020/01/31 02:29:20.6	92.240	-0.970	0.510	0.950
2020/01/31 02:29:20.7	92.240	-0.960	0.430	0.930
2020/01/31 02:29:20.8	92.240	-0.940	0.340	0.910
2020/01/31 02:29:20.9	92.250	-0.910	0.240	0.880
2020/01/31 02:29:21.0	92.250	-0.880	0.130	0.850
2020/01/31 02:29:21.1	92.240	-0.840	0.010	0.820
2020/01/31 02:29:21.2	92.240	-0.800	-0.100	0.790
2020/01/31 02:29:21.3	92.240	-0.740	-0.220	0.760
2020/01/31 02:29:21.4	92.240	-0.690	-0.350	0.730
2020/01/31 02:29:21.5	92.240	-0.620	-0.470	0.690
2020/01/31 02:29:21.6	92.240	-0.550	-0.590	0.660
2020/01/31 02:29:21.7	92.240	-0.480	-0.720	0.620
2020/01/31 02:29:21.8	92.240	-0.400	-0.840	0.590
2020/01/31 02:29:21.9	92.230	-0.320	-0.950	0.550
2020/01/31 02:29:22.0	92.230	-0.240	-1.060	0.520
2020/01/31 02:29:22.1	92.220	-0.160	-1.170	0.500
2020/01/31 02:29:22.2	92.220	-0.080	-1.270	0.470
2020/01/31 02:29:22.3	92.220	0.010	-1.360	0.450
2020/01/31 02:29:22.4	92.210	0.090	-1.440	0.430
2020/01/31 02:29:22.5	92.210	0.170	-1.510	0.410
2020/01/31 02:29:22.6	92.200	0.250	-1.570	0.400
2020/01/31 02:29:22.7	92.200	0.320	-1.610	0.400
2020/01/31 02:29:22.8	92.190	0.400	-1.640	0.390
2020/01/31 02:29:22.9	92.180	0.460	-1.660	0.390
2020/01/31 02:29:23.0	92.170	0.520	-1.660	0.400
2020/01/31 02:29:23.1	92.160	0.580	-1.650	0.410
2020/01/31 02:29:23.2	92.150	0.630	-1.620	0.420
2020/01/31 02:29:23.3	92.140	0.670	-1.580	0.440
2020/01/31 02:29:23.4	92.130	0.710	-1.530	0.450
2020/01/31 02:29:23.5	92.120	0.740	-1.460	0.470
2020/01/31 02:29:23.6	92.100	0.760	-1.370	0.480
2020/01/31 02:29:23.7	92.090	0.770	-1.280	0.500
2020/01/31 02:29:23.8	92.070	0.780	-1.170	0.520
2020/01/31 02:29:23.9	92.060	0.770	-1.050	0.540
2020/01/31 02:29:24.0	92.040	0.760	-0.930	0.550
2020/01/31 02:29:24.1	92.030	0.750	-0.790	0.570
2020/01/31 02:29:24.2	92.010	0.730	-0.650	0.580
2020/01/31 02:29:24.3	91.990	0.700	-0.510	0.590
2020/01/31 02:29:24.4	91.970	0.660	-0.360	0.600
2020/01/31 02:29:24.5	91.940	0.620	-0.220	0.610
2020/01/31 02:29:24.6	91.920	0.570	-0.070	0.610
2020/01/31 02:29:24.7	91.900	0.520	0.070	0.620
2020/01/31 02:29:24.8	91.870	0.470	0.210	0.620
2020/01/31 02:29:24.9	91.850	0.420	0.340	0.620
2020/01/31 02:29:25.0	91.830	0.360	0.470	0.610
2020/01/31 02:29:25.1	91.820	0.300	0.590	0.610
2020/01/31 02:29:25.2	91.800	0.240	0.700	0.610
2020/01/31 02:29:25.3	91.770	0.190	0.800	0.600
2020/01/31 02:29:25.4	91.750	0.130	0.880	0.590
2020/01/31 02:29:25.5	91.730	0.070	0.950	0.580
2020/01/31 02:29:25.6	91.720	0.020	1.010	0.570
2020/01/31 02:29:25.7	91.700	-0.030	1.050	0.560
2020/01/31 02:29:25.8	91.680	-0.070	1.080	0.550
2020/01/31 02:29:25.9	91.670	-0.110	1.090	0.540
2020/01/31 02:29:26.0	91.650	-0.150	1.090	0.520
2020/01/31 02:29:26.1	91.650	-0.180	1.080	0.510
2020/01/31 02:29:26.2	91.640	-0.210	1.050	0.490
2020/01/31 02:29:26.3	91.620	-0.230	1.010	0.470
2020/01/31 02:29:26.4	91.620	-0.240	0.950	0.450
2020/01/31 02:29:26.5	91.610	-0.250	0.880	0.430
2020/01/31 02:29:26.6	91.600	-0.250	0.800	0.400
2020/01/31 02:29:26.7	91.600	-0.250	0.710	0.370
2020/01/31 02:29:26.8	91.590	-0.240	0.610	0.340
2020/01/31 02:29:26.9	91.590	-0.230	0.500	0.310
2020/01/31 02:29:27.0	91.590	-0.210	0.390	0.280
2020/01/31 02:29:27.1	91.600	-0.190	0.270	0.250
2020/01/31 02:29:27.2	91.600	-0.160	0.140	0.220
2020/01/31 02:29:27.3	91.610	-0.130	0.010	0.190
2020/01/31 02:29:27.4	91.610	-0.090	-0.120	0.160
2020/01/31 02:29:27.5	91.620	-0.050	-0.250	0.130
2020/01/31 02:29:27.6	91.620	-0.010	-0.370	0.110
2020/01/31 02:29:27.7	91.630	0.030	-0.490	0.090
2020/01/31 02:29:27.8	91.640	0.070	-0.610	0.070
2020/01/31 02:29:27.9	91.650	0.120	-0.720	0.060
2020/01/31 02:29:28.0	91.660	0.160	-0.830	0.050
2020/01/31 02:29:28.1	91.670	0.200	-0.920	0.040
2020/01/31 02:29:28.2	91.680	0.230	-1.000	0.040
2020/01/31 02:29:28.3	91.690	0.270	-1.070	0.050
2020/01/31 02:29:28.4	91.700	0.300	-1.130	0.050
2020/01/31 02:29:28.5	91.700	0.330	-1.180	0.060
2020/01/31 02:29:28.6	91.710	0.350	-1.210	0.080
2020/01/31 02:29:28.7	91.720	0.370	-1.230	0.100
2020/01/31 02:29:28.8	91.730	0.380	-1.230	0.120
2020/01/31 02:29:28.9	91.740	0.390	-1.230	0.150
2020/01/31 02:29:29.0	91.740	0.390	-1.210	0.180
2020/01/31 02:29:29.1	91.750	0.390	-1.170	0.220
2020/01/31 02:29:29.2	91.750	0.380	-1.130	0.260
2020/01/31 02:29:29.3	91.750	0.370	-1.070	0.300
2020/01/31 02:29:29.4	91.760	0.340	-1.000	0.350
2020/01/31 02:29:29.5	91.760	0.320	-0.920	0.390
2020/01/31 02:29:29.6	91.760	0.290	-0.840	0.440
2020/01/31 02:29:29.7	91.760	0.250	-0.740	0.490
2020/01/31 02:29:29.8	91.760	0.210	-0.640	0.550
2020/01/31 02:29:29.9	91.750	0.170	-0.540	0.600
2020/01/31 02:29:30.0	91.750	0.120	-0.430	0.660
2020/01/31 02:29:30.1	91.750	0.070	-0.320	0.720
2020/01/31 02:29:30.2	91.740	0.010	-0.210	0.770
2020/01/31 02:29:30.3	91.740	-0.040	-0.100	0.830
2020/01/31 02:29:30.4	91.730	-0.100	0.010	0.890
2020/01/31 02:29:30.5	91.730	-0.160	0.120	0.940
2020/01/31 02:29:30.6	91.720	-0.220	0.220	1.000
2020/01/31 02:29:30.7	91.710	-0.270	0.320	1.050
2020/01/31 02:29:30.8	91.700	-0.330	0.410	1.100
2020/01/31 02:29:30.9	91.700	-0.380	0.490	1.150
2020/01/31 02:29:31.0	91.690	-0.440	0.560	1.200
2020/01/31 02:29:31.1	91.690	-0.490	0.630	1.240
2020/01/31 02:29:31.2	91.680	-0.530	0.690	1.280
2020/01/31 02:29:31.3	91.680	-0.570	0.730	1.320
2020/01/31 02:29:31.4	91.680	-0.610	0.770	1.350
2020/01/31 02:29:31.5	91.680	-0.650	0.790	1.370
2020/01/31 02:29:31.6	91.680	-0.670	0.800	1.400
2020/01/31 02:29:31.7	91.690	-0.700	0.800	1.410
2020/01/31 02:29:31.8	91.700	-0.710	0.790	1.430
2020/01/31 02:29:31.9	91.700	-0.730	0.770	1.440
2020/01/31 02:29:32.0	91.710	-0.730	0.730	1.440
2020/01/31 02:29:32.1	91.730	-0.730	0.680	1.450
2020/01/31 02:29:32.2	91.750	-0.720	0.620	1.450
2020/01/31 02:29:32.3	91.760	-0.710	0.550	1.450
2020/01/31 02:29:32.4	91.770	-0.690	0.470	1.450
2020/01/31 02:29:32.5	91.780	-0.660	0.390	1.450
2020/01/31 02:29:32.6	91.790	-0.630	0.290	1.450
2020/01/31 02:29:32.7	91.800	-0.600	0.190	1.450
2020/01/31 02:29:32.8	91.810	-0.550	0.080	1.450
2020/01/31 02:29:32.9	91.820	-0.510	-0.040	1.440
2020/01/31 02:29:33.0	91.820	-0.460	-0.150	1.440
2020/01/31 02:29:33.1	91.820	-0.400	-0.270	1.440
2020/01/31 02:29:33.2	91.820	-0.350	-0.390	1.430
2020/01/31 02:29:33.3	91.820	-0.290	-0.510	1.430
2020/01/31 02:29:33.4	91.810	-0.230	-0.620	1.430
2020/01/31 02:29:33.5	91.800	-0.170	-0.730	1.420
2020/01/31 02:29:33.6	91.790	-0.110	-0.830	1.410
2020/01/31 02:29:33.7	91.780	-0.060	-0.920	1.390
2020/01/31 02:29:33.8	91.770	0.000	-1.000	1.380
2020/01/31 02:29:33.9	91.750	0.050	-1.070	1.360
2020/01/31 02:29:34.0	91.740	0.100	-1.130	1.340
2020/01/31 02:29:34.1	91.710	0.150	-1.170	1.320
2020/01/31 02:29:34.2	91.690	0.190	-1.200	1.290
2020/01/31 02:29:34.3	91.670	0.230	-1.220	1.270
2020/01/31 02:29:34.4	91.650	0.270	-1.220	1.240
2020/01/31 02:29:34.5	91.630	0.290	-1.210	1.210
2020/01/31 02:29:34.6	91.610	0.320	-1.190	1.190
2020/01/31 02:29:34.7	91.590	0.340	-1.160	1.160
2020/01/31 02:29:34.8	91.570	0.350	-1.110	1.130
2020/01/31 02:29:34.9	91.550	0.360	-1.050	1.110
2020/01/31 02:29:35.0	91.530	0.360	-0.980	1.080
2020/01/31 02:29:35.1	91.510	0.360	-0.900	1.060
2020/01/31 02:29:35.2	91.490	0.350	-0.810	1.040
2020/01/31 02:29:35.3	91.480	0.340	-0.720	1.020
2020/01/31 02:29:35.4	91.460	0.320	-0.620	1.000
2020/01/31 02:29:35.5	91.440	0.300	-0.520	0.980
2020/01/31 02:29:35.6	91.430	0.280	-0.410	0.970
2020/01/31 02:29:35.7	91.420	0.250	-0.310	0.960
2020/01/31 02:29:35.8	91.410	0.230	-0.210	0.950
2020/01/31 02:29:35.9	91.400	0.200	-0.120	0.940
2020/01/31 02:29:36.0	91.400	0.170	-0.020	0.930
2020/01/31 02:29:36.1	91.390	0.140	0.070	0.930
2020/01/31 02:29:36.2	91.390	0.110	0.150	0.920
2020/01/31 02:29:36.3	91.390	0.090	0.220	0.910
2020/01/31 02:29:36.4	91.390	0.060	0.280	0.900
2020/01/31 02:29:36.5	91.400	0.040	0.330	0.890
2020/01/31 02:29:36.6	91.400	0.020	0.370	0.880
2020/01/31 02:29:36.7	91.410	-0.000	0.390	0.870
2020/01/31 02:29:36.8	91.420	-0.020	0.410	0.850
2020/01/31 02:29:36.9	91.430	-0.030	0.420	0.840
2020/01/31 02:29:37.0	91.450	-0.040	0.420	0.820
2020/01/31 02:29:37.1	91.460	-0.050	0.400	0.790
2020/01/31 02:29:37.2	91.480	-0.050	0.380	0.760
2020/01/31 02:29:37.3	91.500	-0.050	0.360	0.740
2020/01/31 02:29:37.4	91.520	-0.050	0.320	0.700
2020/01/31 02:29:37.5	91.530	-0.050	0.280	0.670
2020/01/31 02:29:37.6	91.550	-0.040	0.230	0.640
2020/01/31 02:29:37.7	91.570	-0.030	0.190	0.600
2020/01/31 02:29:37.8	91.590	-0.020	0.130	0.570
2020/01/31 02:29:37.9	91.610	-0.010	0.080	0.530
2020/01/31 02:29:38.0	91.630	0.010	0.030	0.500
2020/01/31 02:29:38.1	91.650	0.020	-0.030	0.470
2020/01/31 02:29:38.2	91.660	0.040	-0.080	0.440
2020/01/31 02:29:38.3	91.680	0.050	-0.130	0.410
2020/01/31 02:29:38.4	91.690	0.070	-0.180	0.380
2020/01/31 02:29:38.5	91.700	0.090	-0.230	0.360
2020/01/31 02:29:38.6	91.700	0.110	-0.280	0.350
2020/01/31 02:29:38.7	91.710	0.120	-0.320	0.340
2020/01/31 02:29:38.8	91.710	0.140	-0.360	0.330
2020/01/31 02:29:38.9	91.710	0.160	-0.390	0.330
2020/01/31 02:29:39.0	91.710	0.170	-0.420	0.340
2020/01/31 02:29:39.1	91.710	0.190	-0.450	0.350
2020/01/31 02:29:39.2	91.700	0.200	-0.470	0.360
2020/01/31 02:29:39.3	91.700	0.210	-0.490	0.380
2020/01/31 02:29:39.4	91.690	0.220	-0.510	0.400
2020/01/31 02:29:39.5	91.680	0.230	-0.520	0.430
2020/01/31 02:29:39.6	91.680	0.240	-0.530	0.460
2020/01/31 02:29:39.7	91.670	0.250	-0.530	0.490
2020/01/31 02:29:39.8	91.660	0.250	-0.530	0.520
2020/01/31 02:29:39.9	91.660	0.250	-0.520	0.560
2020/01/31 02:29:40.0	91.650	0.260	-0.520	0.590
2020/01/31 02:29:40.1	91.660	0.260	-0.500	0.630
2020/01/31 02:29:40.2	91.660	0.250	-0.480	0.670
2020/01/31 02:29:40.3	91.650	0.250	-0.460	0.700
2020/01/31 02:29:40.4	91.650	0.250	-0.440	0.730
2020/01/31 02:29:40.5	91.640	0.240	-0.410	0.750
2020/01/31 02:29:40.6	91.640	0.230	-0.380	0.780
2020/01/31 02:29:40.7	91.640	0.220	-0.340	0.800
2020/01/31 02:29:40.8	91.630	0.210	-0.310	0.820
2020/01/31 02:29:40.9	91.630	0.190	-0.270	0.840
2020/01/31 02:29:41.0	91.630	0.180	-0.230	0.860
2020/01/31 02:29:41.1	91.610	0.160	-0.180	0.870
2020/01/31 02:29:41.2	91.610	0.140	-0.140	0.880
2020/01/31 02:29:41.3	91.610	0.120	-0.090	0.890
2020/01/31 02:29:41.4	91.610	0.100	-0.050	0.890
2020/01/31 02:29:41.5	91.610	0.080	-0.000	0.890
2020/01/31 02:29:41.6	91.610	0.060	0.040	0.890
2020/01/31 02:29:41.7	91.620	0.040	0.080	0.890
2020/01/31 02:29:41.8	91.620	0.010	0.120	0.880
2020/01/31 02:29:41.9	91.620	-0.010	0.160	0.880
2020/01/31 02:29:42.0	91.620	-0.030	0.200	0.870
2020/01/31 02:29:42.1	91.630	-0.060	0.230	0.860
2020/01/31 02:29:42.2	91.630	-0.080	0.250	0.850
2020/01/31 02:29:42.3	91.640	-0.100	0.280	0.830
2020/01/31 02:29:42.4	91.640	-0.120	0.290	0.820
2020/01/31 02:29:42.5	91.640	-0.140	0.300	0.800
2020/01/31 02:29:42.6	91.650	-0.150	0.310	0.790
2020/01/31 02:29:42.7	91.650	-0.170	0.300	0.770
2020/01/31 02:29:42.8	91.650	-0.180	0.300	0.750
2020/01/31 02:29:42.9	91.660	-0.190	0.280	0.740
2020/01/31 02:29:43.0	91.660	-0.200	0.260	0.720
2020/01/31 02:29:43.1	91.680	-0.200	0.230	0.700
2020/01/31 02:29:43.2	91.680	-0.200	0.200	0.690
2020/01/31 02:29:43.3	91.690	-0.200	0.160	0.670
2020/01/31 02:29:43.4	91.700	-0.200	0.120	0.650
2020/01/31 02:29:43.5	91.700	-0.190	0.080	0.640
2020/01/31 02:29:43.6	91.710	-0.180	0.030	0.620
2020/01/31 02:29:43.7	91.720	-0.170	-0.030	0.610
2020/01/31 02:29:43.8	91.720	-0.160	-0.080	0.600
2020/01/31 02:29:43.9	91.730	-0.140	-0.130	0.580
2020/01/31 02:29:44.0	91.740	-0.130	-0.190	0.570
2020/01/31 02:29:44.1	91.740	-0.110	-0.250	0.570
2020/01/31 02:29:44.2	91.750	-0.090	-0.300	0.560
2020/01/31 02:29:44.3	91.750	-0.070	-0.350	0.550
2020/01/31 02:29:44.4	91.750	-0.050	-0.400	0.550
2020/01/31 02:29:44.5	91.760	-0.030	-0.450	0.540
2020/01/31 02:29:44.6	91.760	-0.010	-0.500	0.540
2020/01/31 02:29:44.7	91.760	0.010	-0.540	0.540
2020/01/31 02:29:44.8	91.760	0.030	-0.580	0.540
2020/01/31 02:29:44.9	91.760	0.050	-0.620	0.540
2020/01/31 02:29:45.0	91.750	0.070	-0.650	0.540
2020/01/31 02:29:45.1	91.760	0.090	-0.680	0.540
2020/01/31 02:29:45.2	91.750	0.100	-0.710	0.540
2020/01/31 02:29:45.3	91.750	0.120	-0.730	0.540
2020/01/31 02:29:45.4	91.740	0.130	-0.740	0.550
2020/01/31 02:29:45.5	91.730	0.140	-0.760	0.550
2020/01/31 02:29:45.6	91.730	0.150	-0.770	0.560
2020/01/31 02:29:45.7	91.720	0.160	-0.770	0.560
2020/01/31 02:29:45.8	91.710	0.170	-0.780	0.570
2020/01/31 02:29:45.9	91.700	0.180	-0.770	0.580
2020/01/31 02:29:46.0	91.690	0.180	-0.770	0.590
2020/01/31 02:29:46.1	91.690	0.190	-0.760	0.600
2020/01/31 02:29:46.2	91.680	0.190	-0.750	0.620
2020/01/31 02:29:46.3	91.670	0.200	-0.740	0.630
2020/01/31 02:29:46.4	91.670	0.200	-0.720	0.640
2020/01/31 02:29:46.5	91.660	0.200	-0.700	0.660
2020/01/31 02:29:46.6	91.650	0.200	-0.680	0.670
2020/01/31 02:29:46.7	91.640	0.200	-0.660	0.690
2020/01/31 02:29:46.8	91.630	0.190	-0.630	0.710
2020/01/31 02:29:46.9	91.630	0.190	-0.600	0.720
2020/01/31 02:29:47.0	91.620	0.190	-0.570	0.740
2020/01/31 02:29:47.1	91.620	0.180	-0.540	0.760
2020/01/31 02:29:47.2	91.620	0.170	-0.510	0.790
2020/01/31 02:29:47.3	91.610	0.170	-0.470	0.810
2020/01/31 02:29:47.4	91.610	0.160	-0.430	0.830
2020/01/31 02:29:47.5	91.610	0.150	-0.400	0.860
2020/01/31 02:29:47.6	91.600	0.140	-0.360	0.880
2020/01/31 02:29:47.7	91.600	0.130	-0.320	0.910
2020/01/31 02:29:47.8	91.600	0.120	-0.280	0.940
2020/01/31 02:29:47.9	91.600	0.110	-0.240	0.960
2020/01/31 02:29:48.0	91.600	0.100	-0.200	0.990
2020/01/31 02:29:48.1	91.600	0.080	-0.150	1.020
2020/01/31 02:29:48.2	91.600	0.070	-0.120	1.040
2020/01/31 02:29:48.3	91.600	0.050	-0.080	1.070
2020/01/31 02:29:48.4	91.600	0.030	-0.040	1.090
2020/01/31 02:29:48.5	91.610	0.020	-0.010	1.110
2020/01/31 02:29:48.6	91.610	-0.000	0.030	1.130
2020/01/31 02:29:48.7	91.620	-0.020	0.060	1.140
2020/01/31 02:29:48.8	91.620	-0.040	0.090	1.160
2020/01/31 02:29:48.9	91.630	-0.060	0.120	1.170
2020/01/31 02:29:49.0	91.640	-0.090	0.140	1.180
2020/01/31 02:29:49.1	91.640	-0.110	0.170	1.190
2020/01/31 02:29:49.2	91.650	-0.130	0.190	1.190
2020/01/31 02:29:49.3	91.660	-0.150	0.200	1.190
2020/01/31 02:29:49.4	91.670	-0.180	0.220	1.190
2020/01/31 02:29:49.5	91.680	-0.200	0.230	1.190
2020/01/31 02:29:49.6	91.690	-0.230	0.240	1.190
2020/01/31 02:29:49.7	91.700	-0.250	0.250	1.180
2020/01/31 02:29:49.8	91.710	-0.270	0.260	1.180
2020/01/31 02:29:49.9	91.720	-0.300	0.260	1.170
2020/01/31 02:29:50.0	91.720	-0.320	0.270	1.170
2020/01/31 02:29:50.1	91.720	-0.340	0.270	1.180
2020/01/31 02:29:50.2	91.720	-0.360	0.270	1.180
2020/01/31 02:29:50.3	91.720	-0.380	0.270	1.180
2020/01/31 02:29:50.4	91.720	-0.400	0.270	1.190
2020/01/31 02:29:50.5	91.710	-0.420	0.260	1.200
2020/01/31 02:29:50.6	91.710	-0.440	0.260	1.210
2020/01/31 02:29:50.7	91.700	-0.450	0.250	1.220
2020/01/31 02:29:50.8	91.690	-0.470	0.250	1.230
2020/01/31 02:29:50.9	91.670	-0.480	0.240	1.240
2020/01/31 02:29:51.0	91.660	-0.490	0.230	1.250
2020/01/31 02:29:51.1	91.640	-0.500	0.230	1.260
2020/01/31 02:29:51.2	91.620	-0.510	0.220	1.260
2020/01/31 02:29:51.3	91.600	-0.520	0.210	1.270
2020/01/31 02:29:51.4	91.590	-0.520	0.190	1.270
2020/01/31 02:29:51.5	91.570	-0.520	0.180	1.270
2020/01/31 02:29:51.6	91.550	-0.520	0.160	1.260
2020/01/31 02:29:51.7	91.540	-0.520	0.140	1.250
2020/01/31 02:29:51.8	91.520	-0.510	0.120	1.240
2020/01/31 02:29:51.9	91.500	-0.510	0.090	1.220
2020/01/31 02:29:52.0	91.490	-0.490	0.060	1.200
2020/01/31 02:29:52.1	91.470	-0.480	0.020	1.170
2020/01/31 02:29:52.2	91.460	-0.460	-0.020	1.140
2020/01/31 02:29:52.3	91.450	-0.430	-0.060	1.110
2020/01/31 02:29:52.4	91.430	-0.410	-0.110	1.070
2020/01/31 02:29:52.5	91.420	-0.380	-0.170	1.030
2020/01/31 02:29:52.6	91.420	-0.340	-0.230	0.990
2020/01/31 02:29:52.7	91.410	-0.300	-0.290	0.940
2020/01/31 02:29:52.8	91.400	-0.260	-0.360	0.900
2020/01/31 02:29:52.9	91.400	-0.210	-0.430	0.850
2020/01/31 02:29:53.0	91.390	-0.160	-0.510	0.800
2020/01/31 02:29:53.1	91.390	-0.100	-0.590	0.760
2020/01/31 02:29:53.2	91.390	-0.050	-0.670	0.710
2020/01/31 02:29:53.3	91.390	0.010	-0.750	0.670
2020/01/31 02:29:53.4	91.390	0.080	-0.830	0.630
2020/01/31 02:29:53.5	91.400	0.140	-0.910	0.590
2020/01/31 02:29:53.6	91.410	0.200	-0.980	0.560
2020/01/31 02:29:53.7	91.420	0.270	-1.050	0.520
2020/01/31 02:29:53.8	91.430	0.330	-1.110	0.500
2020/01/31 02:29:53.9	91.440	0.390	-1.170	0.470
2020/01/31 02:29:54.0	91.460	0.450	-1.220	0.440
2020/01/31 02:29:54.1	91.470	0.510	-1.260	0.430
2020/01/31 02:29:54.2	91.480	0.560	-1.290	0.410
2020/01/31 02:29:54.3	91.500	0.610	-1.310	0.390
2020/01/31 02:29:54.4	91.520	0.660	-1.310	0.380
2020/01/31 02:29:54.5	91.540	0.700	-1.310	0.360
2020/01/31 02:29:54.6	91.550	0.730	-1.290	0.350
2020/01/31 02:29:54.7	91.570	0.760	-1.260	0.340
2020/01/31 02:29:54.8	91.580	0.780	-1.220	0.330
2020/01/31 02:29:54.9	91.590	0.790	-1.170	0.330
2020/01/31 02:29:55.0	91.600	0.800	-1.100	0.320
2020/01/31 02:29:55.1	91.620	0.800	-1.030	0.320
2020/01/31 02:29:55.2	91.620	0.790	-0.950	0.320
2020/01/31 02:29:55.3	91.630	0.780	-0.850	0.310
2020/01/31 02:29:55.4	91.630	0.760	-0.750	0.310
2020/01/31 02:29:55.5	91.630	0.730	-0.640	0.310
2020/01/31 02:29:55.6	91.630	0.700	-0.520	0.310
2020/01/31 02:29:55.7	91.620	0.660	-0.400	0.320
2020/01/31 02:29:55.8	91.620	0.620	-0.280	0.320
2020/01/31 02:29:55.9	91.610	0.570	-0.150	0.330
2020/01/31 02:29:56.0	91.590	0.520	-0.020	0.340
2020/01/31 02:29:56.1	91.580	0.460	0.110	0.360
2020/01/31 02:29:56.2	91.560	0.410	0.240	0.370
2020/01/31 02:29:56.3	91.540	0.350	0.360	0.390
2020/01/31 02:29:56.4	91.520	0.280	0.480	0.420
2020/01/31 02:29:56.5	91.500	0.220	0.590	0.440
2020/01/31 02:29:56.6	91.480	0.160	0.690	0.470
2020/01/31 02:29:56.7	91.450	0.100	0.790	0.490
2020/01/31 02:29:56.8	91.430	0.040	0.870	0.520
2020/01/31 02:29:56.9	91.400	-0.020	0.940	0.550
2020/01/31 02:29:57.0	91.380	-0.080	1.000	0.580
2020/01/31 02:29:57.1	91.380	-0.130	1.050	0.620
2020/01/31 02:29:57.2	91.360	-0.180	1.080	0.660
2020/01/31 02:29:57.3	91.330	-0.220	1.100	0.690
2020/01/31 02:29:57.4	91.310	-0.260	1.110	0.720
2020/01/31 02:29:57.5	91.290	-0.290	1.100	0.750
2020/01/31 02:29:57.6	91.280	-0.320	1.080	0.780
2020/01/31 02:29:57.7	91.260	-0.340	1.040	0.810
2020/01/31 02:29:57.8	91.250	-0.360	1.000	0.830
2020/01/31 02:29:57.9	91.230	-0.370	0.940	0.860
2020/01/31 02:29:58.0	91.220	-0.380	0.870	0.880
2020/01/31 02:29:58.1	91.220	-0.380	0.780	0.900
2020/01/31 02:29:58.2	91.210	-0.380	0.690	0.920
2020/01/31 02:29:58.3	91.200	-0.370	0.590	0.930
2020/01/31 02:29:58.4	91.190	-0.360	0.490	0.940
2020/01/31 02:29:58.5	91.190	-0.340	0.380	0.950
2020/01/31 02:29:58.6	91.190	-0.320	0.260	0.960
2020/01/31 02:29:58.7	91.190	-0.300	0.140	0.960
2020/01/31 02:29:58.8	91.190	-0.270	0.020	0.950
2020/01/31 02:29:58.9	91.190	-0.250	-0.100	0.940
2020/01/31 02:29:59.0	91.200	-0.220	-0.220	0.930
2020/01/31 02:29:59.1	91.200	-0.190	-0.340	0.920
2020/01/31 02:29:59.2	91.210	-0.160	-0.450	0.910
2020/01/31 02:29:59.3	91.220	-0.130	-0.560	0.890
2020/01/31 02:29:59.4	91.240	-0.100	-0.660	0.860
2020/01/31 02:29:59.5	91.250	-0.070	-0.760	0.840
2020/01/31 02:29:59.6	91.270	-0.040	-0.840	0.820
2020/01/31 02:29:59.7	91.280	-0.020	-0.920	0.800
2020/01/31 02:29:59.8	91.300	0.010	-0.990	0.770
2020/01/31 02:29:59.9	91.310	0.030	-1.060	0.750
2020/01/31 02:30:00.0	91.330	0.050	-1.110	0.730
2020/01/31 02:30:00.1	91.350	0.070	-1.150	0.710
2020/01/31 02:30:00.2	91.360	0.090	-1.180	0.700
2020/01/31 02:30:00.3	91.380	0.100	-1.200	0.690
2020/01/31 02:30:00.4	91.400	0.110	-1.200	0.680
2020/01/31 02:30:00.5	91.410	0.120	-1.200	0.670
2020/01/31 02:30:00.6	91.430	0.130	-1.190	0.670
2020/01/31 02:30:00.7	91.450	0.140	-1.160	0.680
2020/01/31 02:30:00.8	91.460	0.140	-1.130	0.680
2020/01/31 02:30:00.9	91.480	0.140	-1.080	0.690
2020/01/31 02:30:01.0	91.490	0.140	-1.030	0.710
2020/01/31 02:30:01.1	91.500	0.130	-0.970	0.730
2020/01/31 02:30:01.2	91.520	0.130	-0.900	0.750
2020/01/31 02:30:01.3	91.530	0.120	-0.830	0.770
2020/01/31 02:30:01.4	91.540	0.110	-0.750	0.800
2020/01/31 02:30:01.5	91.550	0.110	-0.670	0.830
2020/01/31 02:30:01.6	91.560	0.100	-0.590	0.860
2020/01/31 02:30:01.7	91.580	0.080	-0.510	0.890
2020/01/31 02:30:01.8	91.590	0.070	-0.430	0.920
2020/01/31 02:30:01.9	91.600	0.060	-0.340	0.950
2020/01/31 02:30:02.0	91.610	0.050	-0.260	0.980
2020/01/31 02:30:02.1	91.630	0.040	-0.190	1.020
2020/01/31 02:30:02.2	91.630	0.030	-0.110	1.050
2020/01/31 02:30:02.3	91.640	0.020	-0.040	1.080
2020/01/31 02:30:02.4	91.640	0.000	0.030	1.110
2020/01/31 02:30:02.5	91.650	-0.010	0.090	1.140
2020/01/31 02:30:02.6	91.650	-0.020	0.150	1.160
2020/01/31 02:30:02.7	91.650	-0.030	0.200	1.190
2020/01/31 02:30:02.8	91.650	-0.040	0.250	1.210
2020/01/31 02:30:02.9	91.650	-0.050	0.290	1.230
2020/01/31 02:30:03.0	91.650	-0.070	0.330	1.250
2020/01/31 02:30:03.1	91.650	-0.080	0.360	1.260
2020/01/31 02:30:03.2	91.650	-0.090	0.380	1.270
2020/01/31 02:30:03.3	91.650	-0.100	0.390	1.280
2020/01/31 02:30:03.4	91.650	-0.100	0.400	1.280
2020/01/31 02:30:03.5	91.640	-0.110	0.400	1.280
2020/01/31 02:30:03.6	91.640	-0.120	0.390	1.280
2020/01/31 02:30:03.7	91.630	-0.130	0.380	1.270
2020/01/31 02:30:03.8	91.630	-0.130	0.360	1.260
2020/01/31 02:30:03.9	91.620	-0.140	0.330	1.250
2020/01/31 02:30:04.0	91.620	-0.140	0.300	1.230
2020/01/31 02:30:04.1	91.610	-0.150	0.270	1.220
2020/01/31 02:30:04.2	91.610	-0.150	0.230	1.200
2020/01/31 02:30:04.3	91.600	-0.150	0.200	1.170
2020/01/31 02:30:04.4	91.600	-0.150	0.160	1.150
2020/01/31 02:30:04.5	91.590	-0.150	0.110	1.130
2020/01/31 02:30:04.6	91.590	-0.150	0.070	1.100
2020/01/31 02:30:04.7	91.580	-0.150	0.030	1.070
2020/01/31 02:30:04.8	91.580	-0.150	-0.010	1.040
2020/01/31 02:30:04.9	91.570	-0.150	-0.050	1.020
2020/01/31 02:30:05.0	91.560	-0.150	-0.090	0.980
2020/01/31 02:30:05.1	91.550	-0.140	-0.120	0.950
2020/01/31 02:30:05.2	91.550	-0.140	-0.160	0.920
2020/01/31 02:30:05.3	91.540	-0.140	-0.190	0.890
2020/01/31 02:30:05.4	91.530	-0.130	-0.220	0.850
2020/01/31 02:30:05.5	91.530	-0.130	-0.250	0.810
2020/01/31 02:30:05.6	91.520	-0.120	-0.280	0.780
2020/01/31 02:30:05.7	91.520	-0.120	-0.300	0.740
2020/01/31 02:30:05.8	91.510	-0.110	-0.330	0.700
2020/01/31 02:30:05.9	91.510	-0.100	-0.350	0.660
2020/01/31 02:30:06.0	91.510	-0.100	-0.370	0.610
2020/01/31 02:30:06.1	91.510	-0.090	-0.390	0.580
2020/01/31 02:30:06.2	91.510	-0.080	-0.420	0.530
2020/01/31 02:30:06.3	91.510	-0.070	-0.440	0.490
2020/01/31 02:30:06.4	91.510	-0.050	-0.470	0.450
2020/01/31 02:30:06.5	91.510	-0.040	-0.490	0.410
2020/01/31 02:30:06.6	91.520	-0.020	-0.520	0.360
2020/01/31 02:30:06.7	91.520	-0.010	-0.540	0.320
2020/01/31 02:30:06.8	91.530	0.010	-0.570	0.290
2020/01/31 02:30:06.9	91.540	0.030	-0.590	0.250
2020/01/31 02:30:07.0	91.550	0.050	-0.620	0.210
2020/01/31 02:30:07.1	91.550	0.070	-0.650	0.170
2020/01/31 02:30:07.2	91.560	0.090	-0.680	0.140
2020/01/31 02:30:07.3	91.570	0.110	-0.700	0.110
2020/01/31 02:30:07.4	91.580	0.140	-0.720	0.070
2020/01/31 02:30:07.5	91.600	0.160	-0.750	0.050
2020/01/31 02:30:07.6	91.610	0.190	-0.760	0.020
2020/01/31 02:30:07.7	91.630	0.210	-0.780	-0.010
2020/01/31 02:30:07.8	91.640	0.230	-0.790	-0.030
2020/01/31 02:30:07.9	91.660	0.260	-0.790	-0.050
2020/01/31 02:30:08.0	91.670	0.280	-0.790	-0.070
2020/01/31 02:30:08.1	91.690	0.300	-0.790	-0.080
2020/01/31 02:30:08.2	91.710	0.320	-0.780	-0.090
2020/01/31 02:30:08.3	91.720	0.340	-0.760	-0.090
2020/01/31 02:30:08.4	91.740	0.350	-0.740	-0.090
2020/01/31 02:30:08.5	91.750	0.370	-0.710	-0.090
2020/01/31 02:30:08.6	91.770	0.380	-0.680	-0.080
2020/01/31 02:30:08.7	91.780	0.390	-0.640	-0.070
2020/01/31 02:30:08.8	91.790	0.390	-0.600	-0.050
2020/01/31 02:30:08.9	91.810	0.400	-0.560	-0.020
2020/01/31 02:30:09.0	91.820	0.400	-0.500	0.010
2020/01/31 02:30:09.1	91.820	0.400	-0.450	0.040
2020/01/31 02:30:09.2	91.820	0.390	-0.400	0.080
2020/01/31 02:30:09.3	91.830	0.380	-0.340	0.120
2020/01/31 02:30:09.4	91.840	0.370	-0.280	0.160
2020/01/31 02:30:09.5	91.840	0.360	-0.220	0.210
2020/01/31 02:30:09.6	91.850	0.350	-0.160	0.260
2020/01/31 02:30:09.7	91.850	0.330	-0.100	0.310
2020/01/31 02:30:09.8	91.850	0.310	-0.040	0.360
2020/01/31 02:30:09.9	91.850	0.280	0.020	0.410
2020/01/31 02:30:10.0	91.850	0.260	0.080	0.460
2020/01/31 02:30:10.1	91.850	0.230	0.130	0.510
2020/01/31 02:30:10.2	91.840	0.210	0.180	0.560
2020/01/31 02:30:10.3	91.840	0.180	0.220	0.610
2020/01/31 02:30:10.4	91.840	0.150	0.260	0.660
2020/01/31 02:30:10.5	91.830	0.120	0.300	0.700
2020/01/31 02:30:10.6	91.830	0.090	0.330	0.750
2020/01/31 02:30:10.7	91.830	0.050	0.350	0.790
2020/01/31 02:30:10.8	91.820	0.020	0.370	0.830
2020/01/31 02:30:10.9	91.820	-0.010	0.390	0.860
2020/01/31 02:30:11.0	91.810	-0.040	0.400	0.900
2020/01/31 02:30:11.1	91.820	-0.070	0.400	0.930
2020/01/31 02:30:11.2	91.810	-0.110	0.400	0.970
2020/01/31 02:30:11.3	91.800	-0.140	0.390	1.000
2020/01/31 02:30:11.4	91.800	-0.170	0.380	1.030
2020/01/31 02:30:11.5	91.790	-0.200	0.370	1.050
2020/01/31 02:30:11.6	91.780	-0.230	0.350	1.080
2020/01/31 02:30:11.7	91.780	-0.260	0.330	1.100
2020/01/31 02:30:11.8	91.770	-0.280	0.300	1.120
2020/01/31 02:30:11.9	91.760	-0.310	0.280	1.140
2020/01/31 02:30:12.0	91.760	-0.330	0.250	1.160
2020/01/31 02:30:12.1	91.750	-0.360	0.220	1.180
2020/01/31 02:30:12.2	91.750	-0.380	0.180	1.200
2020/01/31 02:30:12.3	91.740	-0.400	0.150	1.210
2020/01/31 02:30:12.4	91.740	-0.420	0.110	1.220
2020/01/31 02:30:12.5	91.740	-0.430	0.070	1.230
2020/01/31 02:30:12.6	91.740	-0.450	0.030	1.240
2020/01/31 02:30:12.7	91.740	-0.460	-0.010	1.250
2020/01/31 02:30:12.8	91.740	-0.470	-0.040	1.250
2020/01/31 02:30:12.9	91.740	-0.480	-0.080	1.250
2020/01/31 02:30:13.0	91.740	-0.480	-0.120	1.250
2020/01/31 02:30:13.1	91.740	-0.490	-0.160	1.250
2020/01/31 02:30:13.2	91.750	-0.490	-0.190	1.240
2020/01/31 02:30:13.3	91.760	-0.490	-0.230	1.230
2020/01/31 02:30:13.4	91.770	-0.480	-0.260	1.220
2020/01/31 02:30:13.5	91.780	-0.480	-0.290	1.210
2020/01/31 02:30:13.6	91.790	-0.470	-0.320	1.190
2020/01/31 02:30:13.7	91.810	-0.460	-0.340	1.170
2020/01/31 02:30:13.8	91.820	-0.450	-0.370	1.150
2020/01/31 02:30:13.9	91.840	-0.440	-0.390	1.130
2020/01/31 02:30:14.0	91.860	-0.420	-0.410	1.100
2020/01/31 02:30:14.1	91.890	-0.410	-0.420	1.080
2020/01/31 02:30:14.2	91.910	-0.390	-0.440	1.050
2020/01/31 02:30:14.3	91.930	-0.370	-0.450	1.020
2020/01/31 02:30:14.4	91.950	-0.350	-0.460	0.990
2020/01/31 02:30:14.5	91.970	-0.320	-0.470	0.960
2020/01/31 02:30:14.6	92.000	-0.300	-0.470	0.920
2020/01/31 02:30:14.7	92.020	-0.270	-0.480	0.890
2020/01/31 02:30:14.8	92.040	-0.250	-0.480	0.860
2020/01/31 02:30:14.9	92.060	-0.220	-0.480	0.830
2020/01/31 02:30:15.0	92.080	-0.190	-0.470	0.790
2020/01/31 02:30:15.1	92.110	-0.160	-0.470	0.770
2020/01/31 02:30:15.2	92.130	-0.130	-0.470	0.740
2020/01/31 02:30:15.3	92.140	-0.110	-0.460	0.710
2020/01/31 02:30:15.4	92.160	-0.080	-0.450	0.680
2020/01/31 02:30:15.5	92.170	-0.050	-0.440	0.660
2020/01/31 02:30:15.6	92.180	-0.020	-0.430	0.630
2020/01/31 02:30:15.7	92.180	0.010	-0.420	0.610
2020/01/31 02:30:15.8	92.190	0.040	-0.410	0.590
2020/01/31 02:30:15.9	92.190	0.060	-0.400	0.570
2020/01/31 02:30:16.0	92.190	0.090	-0.390	0.550
2020/01/31 02:30:16.1	92.160	0.110	-0.370	0.530
2020/01/31 02:30:16.2	92.160	0.130	-0.360	0.520
2020/01/31 02:30:16.3	92.150	0.150	-0.340	0.500
2020/01/31 02:30:16.4	92.140	0.170	-0.330	0.480
2020/01/31 02:30:16.5	92.130	0.190	-0.310	0.470
2020/01/31 02:30:16.6	92.110	0.200	-0.300	0.460
2020/01/31 02:30:16.7	92.100	0.220	-0.280	0.440
2020/01/31 02:30:16.8	92.080	0.230	-0.270	0.430
2020/01/31 02:30:16.9	92.060	0.240	-0.250	0.420
2020/01/31 02:30:17.0	92.040	0.250	-0.230	0.410
2020/01/31 02:30:17.1	92.030	0.250	-0.220	0.400
2020/01/31 02:30:17.2	92.010	0.260	-0.210	0.400
2020/01/31 02:30:17.3	91.980	0.260	-0.200	0.390
2020/01/31 02:30:17.4	91.960	0.270	-0.190	0.390
2020/01/31 02:30:17.5	91.940	0.270	-0.180	0.390
2020/01/31 02:30:17.6	91.920	0.270	-0.170	0.400
2020/01/31 02:30:17.7	91.900	0.270	-0.160	0.400
2020/01/31 02:30:17.8	91.870	0.270	-0.160	0.410
2020/01/31 02:30:17.9	91.860	0.270	-0.160	0.410
2020/01/31 02:30:18.0	91.840	0.270	-0.160	0.420
2020/01/31 02:30:18.1	91.820	0.270	-0.160	0.430
2020/01/31 02:30:18.2	91.810	0.270	-0.160	0.440
2020/01/31 02:30:18.3	91.800	0.270	-0.170	0.450
2020/01/31 02:30:18.4	91.790	0.270	-0.180	0.460
2020/01/31 02:30:18.5	91.780	0.270	-0.190	0.470
2020/01/31 02:30:18.6	91.780	0.270	-0.200	0.480
2020/01/31 02:30:18.7	91.780	0.270	-0.220	0.490
2020/01/31 02:30:18.8	91.780	0.270	-0.240	0.500
2020/01/31 02:30:18.9	91.780	0.280	-0.250	0.500
2020/01/31 02:30:19.0	91.790	0.280	-0.270	0.510
2020/01/31 02:30:19.1	91.810	0.280	-0.290	0.510
2020/01/31 02:30:19.2	91.820	0.290	-0.310	0.520
2020/01/31 02:30:19.3	91.830	0.290	-0.330	0.520
2020/01/31 02:30:19.4	91.840	0.300	-0.350	0.520
2020/01/31 02:30:19.5	91.850	0.300	-0.360	0.530
2020/01/31 02:30:19.6	91.860	0.310	-0.380	0.530
2020/01/31 02:30:19.7	91.870	0.310	-0.390	0.540
2020/01/31 02:30:19.8	91.880	0.310	-0.400	0.540
2020/01/31 02:30:19.9	91.890	0.310	-0.410	0.550
2020/01/31 02:30:20.0	91.900	0.310	-0.410	0.550
2020/01/31 02:30:20.1	91.920	0.310	-0.410	0.570
2020/01/31 02:30:20.2	91.920	0.310	-0.410	0.570
2020/01/31 02:30:20.3	91.920	0.300	-0.410	0.590
2020/01/31 02:30:20.4	91.920	0.300	-0.400	0.600
2020/01/31 02:30:20.5	91.920	0.290	-0.390	0.610
2020/01/31 02:30:20.6	91.910	0.280	-0.380	0.630
2020/01/31 02:30:20.7	91.910	0.270	-0.360	0.650
2020/01/31 02:30:20.8	91.900	0.250	-0.340	0.670
2020/01/31 02:30:20.9	91.890	0.240	-0.320	0.690
2020/01/31 02:30:21.0	91.880	0.220	-0.300	0.720
2020/01/31 02:30:21.1	91.860	0.200	-0.280	0.740
2020/01/31 02:30:21.2	91.850	0.180	-0.260	0.770
2020/01/31 02:30:21.3	91.830	0.160	-0.240	0.800
2020/01/31 02:30:21.4	91.820	0.130	-0.210	0.830
2020/01/31 02:30:21.5	91.800	0.110	-0.190	0.870
2020/01/31 02:30:21.6	91.780	0.090	-0.170	0.900
2020/01/31 02:30:21.7	91.760	0.060	-0.150	0.940
2020/01/31 02:30:21.8	91.750	0.030	-0.130	0.970
2020/01/31 02:30:21.9	91.730	0.010	-0.110	1.010
2020/01/31 02:30:22.0	91.710	-0.020	-0.100	1.040
2020/01/31 02:30:22.1	91.690	-0.040	-0.080	1.080
2020/01/31 02:30:22.2	91.670	-0.070	-0.070	1.120
2020/01/31 02:30:22.3	91.650	-0.090	-0.050	1.160
2020/01/31 02:30:22.4	91.630	-0.110	-0.040	1.190
2020/01/31 02:30:22.5	91.610	-0.140	-0.030	1.220
2020/01/31 02:30:22.6	91.600	-0.160	-0.020	1.250
2020/01/31 02:30:22.7	91.580	-0.180	-0.010	1.280
2020/01/31 02:30:22.8	91.560	-0.190	-0.000	1.310
2020/01/31 02:30:22.9	91.550	-0.210	0.000	1.330
2020/01/31 02:30:23.0	91.540	-0.220	0.010	1.350
2020/01/31 02:30:23.1	91.530	-0.240	0.010	1.370
2020/01/31 02:30:23.2	91.520	-0.250	0.020	1.380
2020/01/31 02:30:23.3	91.510	-0.250	0.020	1.400
2020/01/31 02:30:23.4	91.510	-0.260	0.030	1.400
2020/01/31 02:30:23.5	91.510	-0.270	0.030	1.410
2020/01/31 02:30:23.6	91.510	-0.270	0.030	1.410
2020/01/31 02:30:23.7	91.510	-0.270	0.030	1.410
2020/01/31 02:30:23.8	91.510	-0.270	0.030	1.410
2020/01/31 02:30:23.9	91.520	-0.270	0.020	1.410
2020/01/31 02:30:24.0	91.530	-0.260	0.020	1.400
2020/01/31 02:30:24.1	91.520	-0.260	0.010	1.390
2020/01/31 02:30:24.2	91.540	-0.250	0.010	1.370
2020/01/31 02:30:24.3	91.550	-0.240	-0.000	1.360
2020/01/31 02:30:24.4	91.560	-0.230	-0.010	1.340
2020/01/31 02:30:24.5	91.580	-0.220	-0.020	1.320
2020/01/31 02:30:24.6	91.600	-0.210	-0.040	1.290
2020/01/31 02:30:24.7	91.610	-0.200	-0.050	1.270
2020/01/31 02:30:24.8	91.630	-0.180	-0.070	1.240
2020/01/31 02:30:24.9	91.650	-0.170	-0.090	1.210
2020/01/31 02:30:25.0	91.670	-0.160	-0.110	1.180
2020/01/31 02:30:25.1	91.690	-0.140	-0.130	1.150
2020/01/31 02:30:25.2	91.710	-0.130	-0.150	1.110
2020/01/31 02:30:25.3	91.730	-0.110	-0.170	1.070
2020/01/31 02:30:25.4	91.750	-0.100	-0.190	1.030
2020/01/31 02:30:25.5	91.770	-0.080	-0.200	0.990
2020/01/31 02:30:25.6	91.790	-0.070	-0.220	0.950
2020/01/31 02:30:25.7	91.810	-0.060	-0.240	0.910
2020/01/31 02:30:25.8	91.830	-0.050	-0.250	0.870
2020/01/31 02:30:25.9	91.840	-0.040	-0.270	0.830
2020/01/31 02:30:26.0	91.860	-0.030	-0.270	0.790
2020/01/31 02:30:26.1	91.870	-0.020	-0.290	0.750
2020/01/31 02:30:26.2	91.890	-0.020	-0.290	0.720
2020/01/31 02:30:26.3	91.900	-0.020	-0.290	0.690
2020/01/31 02:30:26.4	91.910	-0.010	-0.290	0.660
2020/01/31 02:30:26.5	91.920	-0.010	-0.290	0.640
2020/01/31 02:30:26.6	91.930	-0.010	-0.290	0.620
2020/01/31 02:30:26.7	91.930	-0.020	-0.280	0.610
2020/01/31 02:30:26.8	91.940	-0.020	-0.280	0.600
2020/01/31 02:30:26.9	91.940	-0.020	-0.270	0.600
2020/01/31 02:30:27.0	91.940	-0.030	-0.260	0.600
2020/01/31 02:30:27.1	91.930	-0.040	-0.240	0.610
2020/01/31 02:30:27.2	91.920	-0.040	-0.230	0.620
2020/01/31 02:30:27.3	91.920	-0.050	-0.230	0.640
2020/01/31 02:30:27.4	91.910	-0.060	-0.220	0.660
2020/01/31 02:30:27.5	91.890	-0.070	-0.220	0.680
2020/01/31 02:30:27.6	91.880	-0.070	-0.210	0.700
2020/01/31 02:30:27.7	91.860	-0.080	-0.210	0.730
2020/01/31 02:30:27.8	91.840	-0.090	-0.210	0.750
2020/01/31 02:30:27.9	91.820	-0.090	-0.220	0.780
2020/01/31 02:30:28.0	91.800	-0.100	-0.230	0.800
2020/01/31 02:30:28.1	91.790	-0.100	-0.240	0.830
2020/01/31 02:30:28.2	91.770	-0.100	-0.250	0.850
2020/01/31 02:30:28.3	91.740	-0.100	-0.270	0.870
2020/01/31 02:30:28.4	91.720	-0.100	-0.290	0.890
2020/01/31 02:30:28.5	91.700	-0.090	-0.310	0.900
2020/01/31 02:30:28.6	91.680	-0.090	-0.340	0.920
2020/01/31 02:30:28.7	91.660	-0.080	-0.360	0.930
2020/01/31 02:30:28.8	91.640	-0.070	-0.390	0.930
2020/01/31 02:30:28.9	91.620	-0.070	-0.420	0.930
2020/01/31 02:30:29.0	91.600	-0.050	-0.450	0.930
2020/01/31 02:30:29.1	91.570	-0.040	-0.480	0.930
2020/01/31 02:30:29.2	91.560	-0.030	-0.510	0.920
2020/01/31 02:30:29.3	91.550	-0.020	-0.530	0.910
2020/01/31 02:30:29.4	91.530	-0.000	-0.560	0.900
2020/01/31 02:30:29.5	91.520	0.010	-0.580	0.880
2020/01/31 02:30:29.6	91.520	0.030	-0.600	0.870
2020/01/31 02:30:29.7	91.510	0.050	-0.620	0.850
2020/01/31 02:30:29.8	91.500	0.060	-0.630	0.840
2020/01/31 02:30:29.9	91.500	0.080	-0.640	0.820
2020/01/31 02:30:30.0	91.490	0.090	-0.640	0.800
2020/01/31 02:30:30.1	91.490	0.100	-0.640	0.790
2020/01/31 02:30:30.2	91.480	0.120	-0.640	0.770
2020/01/31 02:30:30.3	91.480	0.130	-0.630	0.760
2020/01/31 02:30:30.4	91.480	0.140	-0.620	0.740
2020/01/31 02:30:30.5	91.490	0.150	-0.600	0.730
2020/01/31 02:30:30.6	91.490	0.150	-0.580	0.720
2020/01/31 02:30:30.7	91.500	0.160	-0.550	0.710
2020/01/31 02:30:30.8	91.500	0.160	-0.520	0.690
2020/01/31 02:30:30.9	91.510	0.160	-0.490	0.680
2020/01/31 02:30:31.0	91.520	0.160	-0.450	0.670
2020/01/31 02:30:31.1	91.530	0.150	-0.410	0.660
2020/01/31 02:30:31.2	91.550	0.140	-0.370	0.650
2020/01/31 02:30:31.3	91.560	0.140	-0.330	0.640
2020/01/31 02:30:31.4	91.580	0.130	-0.290	0.630
2020/01/31 02:30:31.5	91.600	0.110	-0.240	0.620
2020/01/31 02:30:31.6	91.610	0.100	-0.200	0.610
2020/01/31 02:30:31.7	91.630	0.080	-0.150	0.600
2020/01/31 02:30:31.8	91.650	0.070	-0.110	0.590
2020/01/31 02:30:31.9	91.670	0.050	-0.060	0.580
2020/01/31 02:30:32.0	91.690	0.030	-0.020	0.570
2020/01/31 02:30:32.1	91.700	0.010	0.020	0.560
2020/01/31 02:30:32.2	91.720	-0.010	0.060	0.550
2020/01/31 02:30:32.3	91.730	-0.030	0.090	0.540
2020/01/31 02:30:32.4	91.750	-0.050	0.130	0.530
2020/01/31 02:30:32.5	91.770	-0.060	0.160	0.530
2020/01/31 02:30:32.6	91.780	-0.080	0.190	0.520
2020/01/31 02:30:32.7	91.800	-0.100	0.210	0.510
2020/01/31 02:30:32.8	91.810	-0.120	0.230	0.510
2020/01/31 02:30:32.9	91.820	-0.130	0.250	0.510
2020/01/31 02:30:33.0	91.830	-0.140	0.270	0.510
2020/01/31 02:30:33.1	91.840	-0.160	0.280	0.500
2020/01/31 02:30:33.2	91.840	-0.170	0.290	0.510
2020/01/31 02:30:33.3	91.850	-0.170	0.290	0.510
2020/01/31 02:30:33.4	91.860	-0.180	0.290	0.520
2020/01/31 02:30:33.5	91.860	-0.180	0.290	0.530
2020/01/31 02:30:33.6	91.860	-0.190	0.280	0.540
2020/01/31 02:30:33.7	91.860	-0.180	0.270	0.550
2020/01/31 02:30:33.8	91.870	-0.180	0.250	0.570
2020/01/31 02:30:33.9	91.870	-0.180	0.230	0.580
2020/01/31 02:30:34.0	91.870	-0.170	0.200	0.600
2020/01/31 02:30:34.1	91.860	-0.160	0.180	0.630
2020/01/31 02:30:34.2	91.860	-0.150	0.140	0.650
2020/01/31 02:30:34.3	91.850	-0.130	0.110	0.680
2020/01/31 02:30:34.4	91.850	-0.120	0.080	0.700
2020/01/31 02:30:34.5	91.850	-0.100	0.040	0.720
2020/01/31 02:30:34.6	91.850	-0.080	-0.000	0.750
2020/01/31 02:30:34.7	91.850	-0.060	-0.040	0.770
2020/01/31 02:30:34.8	91.850	-0.040	-0.080	0.790
2020/01/31 02:30:34.9	91.860	-0.020	-0.130	0.810
2020/01/31 02:30:35.0	91.860	-0.000	-0.170	0.830
2020/01/31 02:30:35.1	91.870	0.020	-0.210	0.850
2020/01/31 02:30:35.2	91.880	0.040	-0.250	0.860
2020/01/31 02:30:35.3	91.890	0.050	-0.280	0.870
2020/01/31 02:30:35.4	91.910	0.070	-0.320	0.880
2020/01/31 02:30:35.5	91.920	0.090	-0.350	0.890
2020/01/31 02:30:35.6	91.940	0.110	-0.380	0.890
2020/01/31 02:30:35.7	91.950	0.120	-0.410	0.890
2020/01/31 02:30:35.8	91.970	0.140	-0.440	0.880
2020/01/31 02:30:35.9	91.990	0.150	-0.460	0.880
2020/01/31 02:30:36.0	92.010	0.160	-0.480	0.870
2020/01/31 02:30:36.1	92.030	0.170	-0.490	0.860
2020/01/31 02:30:36.2	92.040	0.180	-0.500	0.840
2020/01/31 02:30:36.3	92.060	0.190	-0.510	0.830
2020/01/31 02:30:36.4	92.070	0.200	-0.510	0.820
2020/01/31 02:30:36.5	92.080	0.200	-0.510	0.810
2020/01/31 02:30:36.6	92.090	0.200	-0.500	0.800
2020/01/31 02:30:36.7	92.100	0.210	-0.500	0.800
2020/01/31 02:30:36.8	92.100	0.210	-0.480	0.790
2020/01/31 02:30:36.9	92.100	0.200	-0.470	0.790
2020/01/31 02:30:37.0	92.090	0.200	-0.450	0.790
2020/01/31 02:30:37.1	92.100	0.200	-0.420	0.790
2020/01/31 02:30:37.2	92.090	0.190	-0.400	0.800
2020/01/31 02:30:37.3	92.080	0.180	-0.370	0.810
2020/01/31 02:30:37.4	92.070	0.170	-0.340	0.820
2020/01/31 02:30:37.5	92.050	0.160	-0.310	0.830
2020/01/31 02:30:37.6	92.040	0.150	-0.270	0.840
2020/01/31 02:30:37.7	92.020	0.140	-0.240	0.860
2020/01/31 02:30:37.8	92.000	0.130	-0.210	0.870
2020/01/31 02:30:37.9	91.980	0.110	-0.170	0.890
2020/01/31 02:30:38.0	91.960	0.100	-0.140	0.900
2020/01/31 02:30:38.1	91.950	0.080	-0.110	0.920
2020/01/31 02:30:38.2	91.930	0.070	-0.090	0.930
2020/01/31 02:30:38.3	91.910	0.050	-0.060	0.950
2020/01/31 02:30:38.4	91.890	0.040	-0.040	0.960
2020/01/31 02:30:38.5	91.880	0.020	-0.030	0.960
2020/01/31 02:30:38.6	91.860	0.010	-0.010	0.970
2020/01/31 02:30:38.7	91.850	-0.010	-0.010	0.970
2020/01/31 02:30:38.8	91.840	-0.020	-0.000	0.970
2020/01/31 02:30:38.9	91.820	-0.030	-0.000	0.970
2020/01/31 02:30:39.0	91.810	-0.040	-0.010	0.970
2020/01/31 02:30:39.1	91.810	-0.050	-0.020	0.960
2020/01/31 02:30:39.2	91.800	-0.060	-0.030	0.950
2020/01/31 02:30:39.3	91.790	-0.070	-0.050	0.940
2020/01/31 02:30:39.4	91.780	-0.070	-0.070	0.920
2020/01/31 02:30:39.5	91.780	-0.080	-0.100	0.910
2020/01/31 02:30:39.6	91.770	-0.080	-0.130	0.890
2020/01/31 02:30:39.7	91.770	-0.070	-0.160	0.870
2020/01/31 02:30:39.8	91.770	-0.070	-0.190	0.850
2020/01/31 02:30:39.9	91.770	-0.060	-0.230	0.830
2020/01/31 02:30:40.0	91.780	-0.060	-0.270	0.800
2020/01/31 02:30:40.1	91.790	-0.050	-0.310	0.770
2020/01/31 02:30:40.2	91.800	-0.030	-0.350	0.750
2020/01/31 02:30:40.3	91.810	-0.020	-0.390	0.730
2020/01/31 02:30:40.4	91.820	-0.000	-0.430	0.700
2020/01/31 02:30:40.5	91.830	0.020	-0.470	0.670
2020/01/31 02:30:40.6	91.840	0.040	-0.510	0.650
2020/01/31 02:30:40.7	91.860	0.060	-0.550	0.630
2020/01/31 02:30:40.8	91.880	0.080	-0.590	0.600
2020/01/31 02:30:40.9	91.900	0.100	-0.620	0.580
2020/01/31 02:30:41.0	91.920	0.120	-0.650	0.560
2020/01/31 02:30:41.1	91.930	0.150	-0.680	0.540
2020/01/31 02:30:41.2	91.960	0.170	-0.710	0.530
2020/01/31 02:30:41.3	91.980	0.190	-0.730	0.510
2020/01/31 02:30:41.4	92.010	0.220	-0.750	0.500
2020/01/31 02:30:41.5	92.030	0.240	-0.760	0.490
2020/01/31 02:30:41.6	92.050	0.260	-0.770	0.480
2020/01/31 02:30:41.7	92.080	0.280	-0.780	0.470
2020/01/31 02:30:41.8	92.100	0.290	-0.780	0.470
2020/01/31 02:30:41.9	92.120	0.310	-0.780	0.470
2020/01/31 02:30:42.0	92.140	0.320	-0.770	0.470
2020/01/31 02:30:42.1	92.150	0.330	-0.760	0.480
2020/01/31 02:30:42.2	92.170	0.330	-0.740	0.480
2020/01/31 02:30:42.3	92.180	0.330	-0.720	0.490
2020/01/31 02:30:42.4	92.190	0.330	-0.700	0.500
2020/01/31 02:30:42.5	92.200	0.330	-0.670	0.520
2020/01/31 02:30:42.6	92.200	0.320	-0.630	0.540
2020/01/31 02:30:42.7	92.200	0.310	-0.590	0.560
2020/01/31 02:30:42.8	92.200	0.290	-0.550	0.590
2020/01/31 02:30:42.9	92.200	0.270	-0.500	0.620
2020/01/31 02:30:43.0	92.200	0.240	-0.450	0.650
2020/01/31 02:30:43.1	92.180	0.220	-0.390	0.680
2020/01/31 02:30:43.2	92.170	0.180	-0.330	0.720
2020/01/31 02:30:43.3	92.160	0.150	-0.270	0.750
2020/01/31 02:30:43.4	92.140	0.110	-0.200	0.790
2020/01/31 02:30:43.5	92.130	0.060	-0.140	0.840
2020/01/31 02:30:43.6	92.110	0.020	-0.070	0.880
2020/01/31 02:30:43.7	92.090	-0.030	0.000	0.920
2020/01/31 02:30:43.8	92.070	-0.080	0.070	0.960
2020/01/31 02:30:43.9	92.060	-0.140	0.140	1.000
2020/01/31 02:30:44.0	92.040	-0.190	0.210	1.050
2020/01/31 02:30:44.1	92.020	-0.250	0.270	1.090
2020/01/31 02:30:44.2	92.000	-0.310	0.340	1.130
2020/01/31 02:30:44.3	91.980	-0.370	0.400	1.170
2020/01/31 02:30:44.4	91.960	-0.430	0.460	1.200
2020/01/31 02:30:44.5	91.950	-0.480	0.510	1.240
2020/01/31 02:30:44.6	91.930	-0.540	0.570	1.260
2020/01/31 02:30:44.7	91.920	-0.600	0.620	1.290
2020/01/31 02:30:44.8	91.910	-0.660	0.660	1.310
2020/01/31 02:30:44.9	91.900	-0.710	0.700	1.320
2020/01/31 02:30:45.0	91.890	-0.770	0.730	1.330
2020/01/31 02:30:45.1	91.880	-0.820	0.770	1.330
2020/01/31 02:30:45.2	91.880	-0.860	0.790	1.330
2020/01/31 02:30:45.3	91.870	-0.910	0.810	1.320
2020/01/31 02:30:45.4	91.870	-0.940	0.820	1.300
2020/01/31 02:30:45.5	91.880	-0.980	0.820	1.280
2020/01/31 02:30:45.6	91.880	-1.010	0.820	1.250
2020/01/31 02:30:45.7	91.890	-1.030	0.810	1.220
2020/01/31 02:30:45.8	91.890	-1.050	0.790	1.190
2020/01/31 02:30:45.9	91.900	-1.070	0.770	1.150
2020/01/31 02:30:46.0	91.910	-1.070	0.740	1.100
2020/01/31 02:30:46.1	91.930	-1.070	0.700	1.060
2020/01/31 02:30:46.2	91.940	-1.070	0.660	1.010
2020/01/31 02:30:46.3	91.960	-1.050	0.610	0.960
2020/01/31 02:30:46.4	91.970	-1.030	0.550	0.920
2020/01/31 02:30:46.5	91.980	-1.010	0.490	0.870
2020/01/31 02:30:46.6	92.000	-0.970	0.420	0.830
2020/01/31 02:30:46.7	92.010	-0.930	0.340	0.790
2020/01/31 02:30:46.8	92.020	-0.880	0.260	0.740
2020/01/31 02:30:46.9	92.030	-0.830	0.170	0.710
2020/01/31 02:30:47.0	92.040	-0.770	0.080	0.670
2020/01/31 02:30:47.1	92.040	-0.700	-0.020	0.640
2020/01/31 02:30:47.2	92.050	-0.620	-0.120	0.600
2020/01/31 02:30:47.3	92.060	-0.540	-0.230	0.570
2020/01/31 02:30:47.4	92.060	-0.460	-0.340	0.540
2020/01/31 02:30:47.5	92.070	-0.370	-0.450	0.510
2020/01/31 02:30:47.6	92.070	-0.270	-0.560	0.480
2020/01/31 02:30:47.7	92.080	-0.170	-0.670	0.450
2020/01/31 02:30:47.8	92.080	-0.070	-0.790	0.430
2020/01/31 02:30:47.9	92.080	0.030	-0.900	0.400
2020/01/31 02:30:48.0	92.080	0.140	-1.010	0.380
2020/01/31 02:30:48.1	92.060	0.250	-1.120	0.360
2020/01/31 02:30:48.2	92.060	0.350	-1.220	0.340
2020/01/31 02:30:48.3	92.060	0.460	-1.310	0.320
2020/01/31 02:30:48.4	92.050	0.560	-1.400	0.310
2020/01/31 02:30:48.5	92.050	0.660	-1.480	0.290
2020/01/31 02:30:48.6	92.040	0.760	-1.550	0.280
2020/01/31 02:30:48.7	92.030	0.850	-1.610	0.270
2020/01/31 02:30:48.8	92.020	0.930	-1.660	0.270
2020/01/31 02:30:48.9	92.010	1.010	-1.700	0.260
2020/01/31 02:30:49.0	91.990	1.090	-1.720	0.260
2020/01/31 02:30:49.1	91.960	1.150	-1.740	0.260
2020/01/31 02:30:49.2	91.950	1.210	-1.730	0.260
2020/01/31 02:30:49.3	91.930	1.260	-1.720	0.270
2020/01/31 02:30:49.4	91.910	1.300	-1.690	0.280
2020/01/31 02:30:49.5	91.890	1.330	-1.640	0.290
2020/01/31 02:30:49.6	91.870	1.350	-1.580	0.310
2020/01/31 02:30:49.7	91.840	1.360	-1.510	0.330
2020/01/31 02:30:49.8	91.820	1.360	-1.420	0.350
2020/01/31 02:30:49.9	91.800	1.350	-1.330	0.370
2020/01/31 02:30:50.0	91.770	1.330	-1.220	0.400
2020/01/31 02:30:50.1	91.750	1.310	-1.100	0.430
2020/01/31 02:30:50.2	91.720	1.270	-0.970	0.460
2020/01/31 02:30:50.3	91.700	1.230	-0.840	0.490
2020/01/31 02:30:50.4	91.670	1.170	-0.700	0.530
2020/01/31 02:30:50.5	91.650	1.110	-0.550	0.560
2020/01/31 02:30:50.6	91.620	1.050	-0.410	0.590
2020/01/31 02:30:50.7	91.600	0.980	-0.260	0.610
2020/01/31 02:30:50.8	91.580	0.900	-0.110	0.640
2020/01/31 02:30:50.9	91.560	0.820	0.040	0.670
2020/01/31 02:30:51.0	91.540	0.730	0.190	0.690
2020/01/31 02:30:51.1	91.540	0.640	0.340	0.710
2020/01/31 02:30:51.2	91.520	0.550	0.470	0.730
2020/01/31 02:30:51.3	91.510	0.460	0.610	0.740
2020/01/31 02:30:51.4	91.490	0.360	0.730	0.760
2020/01/31 02:30:51.5	91.480	0.270	0.840	0.770
2020/01/31 02:30:51.6	91.470	0.180	0.940	0.770
2020/01/31 02:30:51.7	91.460	0.090	1.040	0.770
2020/01/31 02:30:51.8	91.450	0.000	1.120	0.780
2020/01/31 02:30:51.9	91.440	-0.080	1.180	0.770
2020/01/31 02:30:52.0	91.440	-0.170	1.240	0.770
2020/01/31 02:30:52.1	91.450	-0.240	1.280	0.770
2020/01/31 02:30:52.2	91.450	-0.320	1.310	0.760
2020/01/31 02:30:52.3	91.450	-0.380	1.320	0.750
2020/01/31 02:30:52.4	91.450	-0.450	1.320	0.740
2020/01/31 02:30:52.5	91.460	-0.500	1.300	0.730
2020/01/31 02:30:52.6	91.460	-0.550	1.280	0.720
2020/01/31 02:30:52.7	91.470	-0.600	1.230	0.700
2020/01/31 02:30:52.8	91.490	-0.630	1.180	0.690
2020/01/31 02:30:52.9	91.500	-0.670	1.120	0.680
2020/01/31 02:30:53.0	91.520	-0.690	1.040	0.660
2020/01/31 02:30:53.1	91.540	-0.710	0.950	0.650
2020/01/31 02:30:53.2	91.570	-0.720	0.850	0.630
2020/01/31 02:30:53.3	91.590	-0.730	0.750	0.620
2020/01/31 02:30:53.4	91.610	-0.730	0.640	0.610
2020/01/31 02:30:53.5	91.640	-0.730	0.520	0.600
2020/01/31 02:30:53.6	91.660	-0.720	0.400	0.590
2020/01/31 02:30:53.7	91.690	-0.710	0.270	0.590
2020/01/31 02:30:53.8	91.720	-0.690	0.140	0.580
2020/01/31 02:30:53.9	91.750	-0.670	0.010	0.580
2020/01/31 02:30:54.0	91.770	-0.650	-0.120	0.580
2020/01/31 02:30:54.1	91.790	-0.620	-0.260	0.590
2020/01/31 02:30:54.2	91.810	-0.590	-0.390	0.590
2020/01/31 02:30:54.3	91.840	-0.550	-0.510	0.600
2020/01/31 02:30:54.4	91.860	-0.520	-0.630	0.610
2020/01/31 02:30:54.5	91.880	-0.480	-0.750	0.630
2020/01/31 02:30:54.6	91.890	-0.450	-0.850	0.650
2020/01/31 02:30:54.7	91.910	-0.410	-0.950	0.670
2020/01/31 02:30:54.8	91.920	-0.370	-1.040	0.690
2020/01/31 02:30:54.9	91.920	-0.340	-1.120	0.720
2020/01/31 02:30:55.0	91.920	-0.310	-1.190	0.750
2020/01/31 02:30:55.1	91.910	-0.270	-1.250	0.780
2020/01/31 02:30:55.2	91.900	-0.240	-1.290	0.820
2020/01/31 02:30:55.3	91.890	-0.220	-1.320	0.860
2020/01/31 02:30:55.4	91.880	-0.190	-1.340	0.890
2020/01/31 02:30:55.5	91.860	-0.170	-1.340	0.930
2020/01/31 02:30:55.6	91.840	-0.150	-1.330	0.970
2020/01/31 02:30:55.7	91.820	-0.140	-1.310	1.010
2020/01/31 02:30:55.8	91.790	-0.130	-1.280	1.050
2020/01/31 02:30:55.9	91.760	-0.120	-1.230	1.090
2020/01/31 02:30:56.0	91.730	-0.110	-1.180	1.130
2020/01/31 02:30:56.1	91.690	-0.110	-1.110	1.170
2020/01/31 02:30:56.2	91.660	-0.110	-1.040	1.210
2020/01/31 02:30:56.3	91.620	-0.120	-0.960	1.240
2020/01/31 02:30:56.4	91.590	-0.130	-0.870	1.280
2020/01/31 02:30:56.5	91.550	-0.140	-0.780	1.310
2020/01/31 02:30:56.6	91.510	-0.150	-0.690	1.340
2020/01/31 02:30:56.7	91.470	-0.160	-0.590	1.360
2020/01/31 02:30:56.8	91.430	-0.180	-0.490	1.380
2020/01/31 02:30:56.9	91.400	-0.190	-0.390	1.400
2020/01/31 02:30:57.0	91.360	-0.210	-0.290	1.420
2020/01/31 02:30:57.1	91.330	-0.230	-0.200	1.430
2020/01/31 02:30:57.2	91.300	-0.240	-0.100	1.430
2020/01/31 02:30:57.3	91.270	-0.260	-0.020	1.430
2020/01/31 02:30:57.4	91.240	-0.270	0.060	1.430
2020/01/31 02:30:57.5	91.210	-0.290	0.130	1.420
2020/01/31 02:30:57.6	91.180	-0.300	0.200	1.410
2020/01/31 02:30:57.7	91.150	-0.300	0.250	1.390
2020/01/31 02:30:57.8	91.130	-0.310	0.300	1.370
2020/01/31 02:30:57.9	91.110	-0.310	0.340	1.340
2020/01/31 02:30:58.0	91.090	-0.310	0.370	1.310
2020/01/31 02:30:58.1	91.080	-0.300	0.390	1.280
2020/01/31 02:30:58.2	91.060	-0.290	0.400	1.240
2020/01/31 02:30:58.3	91.040	-0.280	0.400	1.200
2020/01/31 02:30:58.4	91.030	-0.260	0.390	1.150
2020/01/31 02:30:58.5	91.020	-0.240	0.370	1.100
2020/01/31 02:30:58.6	91.010	-0.210	0.350	1.050
2020/01/31 02:30:58.7	91.000	-0.180	0.310	0.990
2020/01/31 02:30:58.8	90.990	-0.150	0.270	0.940
2020/01/31 02:30:58.9	90.990	-0.120	0.230	0.880
2020/01/31 02:30:59.0	90.980	-0.080	0.180	0.810
2020/01/31 02:30:59.1	90.990	-0.040	0.120	0.750
2020/01/31 02:30:59.2	90.990	-0.000	0.060	0.680
2020/01/31 02:30:59.3	91.000	0.040	-0.000	0.620
2020/01/31 02:30:59.4	91.000	0.090	-0.070	0.560
2020/01/31 02:30:59.5	91.010	0.130	-0.130	0.490
2020/01/31 02:30:59.6	91.020	0.170	-0.200	0.430
2020/01/31 02:30:59.7	91.030	0.220	-0.260	0.370
2020/01/31 02:30:59.8	91.040	0.260	-0.320	0.310
2020/01/31 02:30:59.9	91.050	0.300	-0.370	0.250
2020/01/31 02:31:00.0	91.070	0.340	-0.430	0.190
2020/01/31 02:31:00.1	91.090	0.380	-0.480	0.150
2020/01/31 02:31:00.2	91.110	0.410	-0.520	0.100
2020/01/31 02:31:00.3	91.120	0.440	-0.560	0.060
2020/01/31 02:31:00.4	91.130	0.470	-0.590	0.030
2020/01/31 02:31:00.5	91.150	0.490	-0.610	-0.000
2020/01/31 02:31:00.6	91.160	0.510	-0.630	-0.030
2020/01/31 02:31:00.7	91.170	0.530	-0.640	-0.040
2020/01/31 02:31:00.8	91.180	0.540	-0.640	-0.060
2020/01/31 02:31:00.9	91.190	0.540	-0.630	-0.060
2020/01/31 02:31:01.0	91.190	0.540	-0.620	-0.070
2020/01/31 02:31:01.1	91.210	0.540	-0.600	-0.060
2020/01/31 02:31:01.2	91.210	0.530	-0.570	-0.050
2020/01/31 02:31:01.3	91.210	0.510	-0.530	-0.040
2020/01/31 02:31:01.4	91.220	0.490	-0.490	-0.030
2020/01/31 02:31:01.5	91.220	0.470	-0.450	-0.010
2020/01/31 02:31:01.6	91.220	0.440	-0.390	0.010
2020/01/31 02:31:01.7	91.220	0.410	-0.340	0.030
2020/01/31 02:31:01.8	91.220	0.380	-0.280	0.060
2020/01/31 02:31:01.9	91.210	0.340	-0.220	0.080
2020/01/31 02:31:02.0	91.210	0.290	-0.150	0.110
2020/01/31 02:31:02.1	91.200	0.250	-0.080	0.140
2020/01/31 02:31:02.2	91.200	0.200	-0.010	0.180
2020/01/31 02:31:02.3	91.190	0.160	0.050	0.210
2020/01/31 02:31:02.4	91.190	0.110	0.120	0.240
2020/01/31 02:31:02.5	91.180	0.060	0.180	0.280
2020/01/31 02:31:02.6	91.170	0.010	0.240	0.320
2020/01/31 02:31:02.7	91.170	-0.040	0.300	0.360
2020/01/31 02:31:02.8	91.160	-0.080	0.360	0.390
2020/01/31 02:31:02.9	91.150	-0.130	0.400	0.430
2020/01/31 02:31:03.0	91.140	-0.170	0.440	0.470
2020/01/31 02:31:03.1	91.130	-0.210	0.480	0.520
2020/01/31 02:31:03.2	91.120	-0.250	0.510	0.560
2020/01/31 02:31:03.3	91.110	-0.280	0.530	0.600
2020/01/31 02:31:03.4	91.100	-0.310	0.540	0.630
2020/01/31 02:31:03.5	91.090	-0.330	0.540	0.670
2020/01/31 02:31:03.6	91.080	-0.350	0.540	0.710
2020/01/31 02:31:03.7	91.070	-0.360	0.520	0.750
2020/01/31 02:31:03.8	91.060	-0.370	0.500	0.780
2020/01/31 02:31:03.9	91.050	-0.380	0.470	0.810
2020/01/31 02:31:04.0	91.040	-0.370	0.420	0.840
2020/01/31 02:31:04.1	91.030	-0.360	0.370	0.880
2020/01/31 02:31:04.2	91.030	-0.350	0.310	0.900
2020/01/31 02:31:04.3	91.020	-0.330	0.240	0.930
2020/01/31 02:31:04.4	91.020	-0.300	0.160	0.950
2020/01/31 02:31:04.5	91.020	-0.260	0.070	0.970
2020/01/31 02:31:04.6	91.020	-0.230	-0.020	0.980
2020/01/31 02:31:04.7	91.020	-0.180	-0.130	1.000
2020/01/31 02:31:04.8	91.030	-0.130	-0.230	1.000
2020/01/31 02:31:04.9	91.040	-0.080	-0.340	1.010
2020/01/31 02:31:05.0	91.050	-0.030	-0.450	1.010
2020/01/31 02:31:05.1	91.070	0.030	-0.570	1.020
2020/01/31 02:31:05.2	91.090	0.090	-0.680	1.010
2020/01/31 02:31:05.3	91.100	0.150	-0.790	1.010
2020/01/31 02:31:05.4	91.120	0.210	-0.900	1.010
2020/01/31 02:31:05.5	91.140	0.280	-1.010	1.010
2020/01/31 02:31:05.6	91.160	0.340	-1.100	1.010
2020/01/31 02:31:05.7	91.170	0.390	-1.190	1.000
2020/01/31 02:31:05.8	91.190	0.450	-1.270	1.000
2020/01/31 02:31:05.9	91.210	0.500	-1.340	1.000
2020/01/31 02:31:06.0	91.230	0.550	-1.390	1.000
2020/01/31 02:31:06.1	91.210	0.590	-1.440	1.010
2020/01/31 02:31:06.2	91.230	0.630	-1.470	1.010
2020/01/31 02:31:06.3	91.240	0.660	-1.480	1.010
2020/01/31 02:31:06.4	91.260	0.680	-1.480	1.010
2020/01/31 02:31:06.5	91.280	0.700	-1.470	1.010
2020/01/31 02:31:06.6	91.300	0.710	-1.450	1.020
2020/01/31 02:31:06.7	91.310	0.710	-1.400	1.020
2020/01/31 02:31:06.8	91.330	0.700	-1.350	1.030
2020/01/31 02:31:06.9	91.340	0.690	-1.280	1.030
2020/01/31 02:31:07.0	91.360	0.670	-1.200	1.040
2020/01/31 02:31:07.1	91.370	0.640	-1.100	1.050
2020/01/31 02:31:07.2	91.380	0.610	-1.000	1.060
2020/01/31 02:31:07.3	91.390	0.570	-0.890	1.080
2020/01/31 02:31:07.4	91.400	0.520	-0.770	1.090
2020/01/31 02:31:07.5	91.400	0.470	-0.640	1.100
2020/01/31 02:31:07.6	91.410	0.410	-0.500	1.120
2020/01/31 02:31:07.7	91.410	0.350	-0.360	1.130
2020/01/31 02:31:07.8	91.420	0.290	-0.220	1.150
2020/01/31 02:31:07.9	91.420	0.220	-0.080	1.170
2020/01/31 02:31:08.0	91.420	0.150	0.060	1.180
2020/01/31 02:31:08.1	91.430	0.080	0.210	1.200
2020/01/31 02:31:08.2	91.430	0.000	0.350	1.220
2020/01/31 02:31:08.3	91.430	-0.070	0.480	1.240
2020/01/31 02:31:08.4	91.420	-0.140	0.600	1.250
2020/01/31 02:31:08.5	91.410	-0.220	0.720	1.270
2020/01/31 02:31:08.6	91.410	-0.290	0.830	1.280
2020/01/31 02:31:08.7	91.400	-0.350	0.930	1.290
2020/01/31 02:31:08.8	91.390	-0.420	1.020	1.300
2020/01/31 02:31:08.9	91.380	-0.480	1.100	1.310
2020/01/31 02:31:09.0	91.370	-0.540	1.160	1.310
2020/01/31 02:31:09.1	91.350	-0.590	1.210	1.320
2020/01/31 02:31:09.2	91.340	-0.640	1.240	1.320
2020/01/31 02:31:09.3	91.330	-0.680	1.260	1.310
2020/01/31 02:31:09.4	91.320	-0.720	1.270	1.300
2020/01/31 02:31:09.5	91.310	-0.750	1.260	1.290
2020/01/31 02:31:09.6	91.310	-0.770	1.240	1.270
2020/01/31 02:31:09.7	91.300	-0.790	1.200	1.250
2020/01/31 02:31:09.8	91.290	-0.800	1.150	1.230
2020/01/31 02:31:09.9	91.290	-0.810	1.090	1.200
2020/01/31 02:31:10.0	91.290	-0.810	1.010	1.170
2020/01/31 02:31:10.1	91.290	-0.800	0.920	1.140
2020/01/31 02:31:10.2	91.290	-0.790	0.820	1.100
2020/01/31 02:31:10.3	91.290	-0.770	0.720	1.070
2020/01/31 02:31:10.4	91.290	-0.750	0.600	1.030
2020/01/31 02:31:10.5	91.290	-0.720	0.480	0.990
2020/01/31 02:31:10.6	91.300	-0.690	0.360	0.940
2020/01/31 02:31:10.7	91.300	-0.650	0.230	0.900
2020/01/31 02:31:10.8	91.300	-0.610	0.100	0.860
2020/01/31 02:31:10.9	91.310	-0.570	-0.030	0.810
2020/01/31 02:31:11.0	91.310	-0.520	-0.160	0.770
2020/01/31 02:31:11.1	91.320	-0.470	-0.300	0.730
2020/01/31 02:31:11.2	91.320	-0.430	-0.420	0.680
2020/01/31 02:31:11.3	91.330	-0.380	-0.540	0.640
2020/01/31 02:31:11.4	91.330	-0.330	-0.650	0.590
2020/01/31 02:31:11.5	91.340	-0.280	-0.760	0.550
2020/01/31 02:31:11.6	91.350	-0.230	-0.860	0.500
2020/01/31 02:31:11.7	91.360	-0.180	-0.950	0.460
2020/01/31 02:31:11.8	91.370	-0.130	-1.030	0.410
2020/01/31 02:31:11.9	91.380	-0.080	-1.100	0.370
2020/01/31 02:31:12.0	91.390	-0.040	-1.170	0.320
2020/01/31 02:31:12.1	91.390	0.000	-1.220	0.290
2020/01/31 02:31:12.2	91.400	0.040	-1.260	0.250
2020/01/31 02:31:12.3	91.410	0.080	-1.290	0.210
2020/01/31 02:31:12.4	91.430	0.120	-1.320	0.180
2020/01/31 02:31:12.5	91.440	0.150	-1.330	0.140
2020/01/31 02:31:12.6	91.460	0.180	-1.330	0.110
2020/01/31 02:31:12.7	91.470	0.210	-1.320	0.090
2020/01/31 02:31:12.8	91.480	0.240	-1.310	0.070
2020/01/31 02:31:12.9	91.500	0.260	-1.280	0.050
2020/01/31 02:31:13.0	91.510	0.280	-1.250	0.040
2020/01/31 02:31:13.1	91.530	0.310	-1.210	0.030
2020/01/31 02:31:13.2	91.540	0.320	-1.160	0.020
2020/01/31 02:31:13.3	91.560	0.340	-1.110	0.020
2020/01/31 02:31:13.4	91.570	0.350	-1.050	0.020
2020/01/31 02:31:13.5	91.590	0.370	-0.990	0.030
2020/01/31 02:31:13.6	91.600	0.380	-0.930	0.040
2020/01/31 02:31:13.7	91.610	0.390	-0.860	0.050
2020/01/31 02:31:13.8	91.620	0.400	-0.790	0.070
2020/01/31 02:31:13.9	91.630	0.410	-0.720	0.090
2020/01/31 02:31:14.0	91.640	0.410	-0.650	0.110
2020/01/31 02:31:14.1	91.650	0.420	-0.580	0.140
2020/01/31 02:31:14.2	91.660	0.420	-0.500	0.160
2020/01/31 02:31:14.3	91.660	0.420	-0.430	0.190
2020/01/31 02:31:14.4	91.660	0.420	-0.370	0.220
2020/01/31 02:31:14.5	91.660	0.420	-0.300	0.250
2020/01/31 02:31:14.6	91.660	0.420	-0.240	0.270
2020/01/31 02:31:14.7	91.650	0.420	-0.170	0.300
2020/01/31 02:31:14.8	91.650	0.420	-0.120	0.330
2020/01/31 02:31:14.9	91.640	0.410	-0.060	0.360
2020/01/31 02:31:15.0	91.630	0.400	-0.010	0.390
2020/01/31 02:31:15.1	91.620	0.390	0.040	0.420
2020/01/31 02:31:15.2	91.600	0.380	0.090	0.440
2020/01/31 02:31:15.3	91.590	0.370	0.130	0.460
2020/01/31 02:31:15.4	91.570	0.360	0.160	0.490
2020/01/31 02:31:15.5	91.560	0.350	0.200	0.510
2020/01/31 02:31:15.6	91.540	0.330	0.230	0.530
2020/01/31 02:31:15.7	91.520	0.320	0.260	0.550
2020/01/31 02:31:15.8	91.500	0.300	0.280	0.560
2020/01/31 02:31:15.9	91.490	0.280	0.300	0.580
2020/01/31 02:31:16.0	91.470	0.260	0.320	0.590
2020/01/31 02:31:16.1	91.460	0.240	0.340	0.610
2020/01/31 02:31:16.2	91.450	0.220	0.350	0.620
2020/01/31 02:31:16.3	91.440	0.190	0.360	0.630
2020/01/31 02:31:16.4	91.430	0.170	0.370	0.640
2020/01/31 02:31:16.5	91.430	0.140	0.380	0.640
2020/01/31 02:31:16.6	91.420	0.120	0.390	0.650
2020/01/31 02:31:16.7	91.420	0.090	0.390	0.650
2020/01/31 02:31:16.8	91.420	0.060	0.400	0.650
2020/01/31 02:31:16.9	91.430	0.040	0.400	0.650
2020/01/31 02:31:17.0	91.440	0.010	0.400	0.650
2020/01/31 02:31:17.1	91.460	-0.020	0.400	0.650
2020/01/31 02:31:17.2	91.470	-0.040	0.390	0.640
2020/01/31 02:31:17.3	91.480	-0.070	0.390	0.640
2020/01/31 02:31:17.4	91.500	-0.090	0.380	0.630
2020/01/31 02:31:17.5	91.520	-0.120	0.370	0.610
2020/01/31 02:31:17.6	91.540	-0.140	0.360	0.600
2020/01/31 02:31:17.7	91.560	-0.160	0.340	0.590
2020/01/31 02:31:17.8	91.590	-0.180	0.320	0.570
2020/01/31 02:31:17.9	91.610	-0.200	0.300	0.560
2020/01/31 02:31:18.0	91.640	-0.210	0.270	0.540
2020/01/31 02:31:18.1	91.650	-0.220	0.240	0.530
2020/01/31 02:31:18.2	91.680	-0.230	0.200	0.510
2020/01/31 02:31:18.3	91.700	-0.240	0.160	0.500
2020/01/31 02:31:18.4	91.730	-0.240	0.120	0.480
2020/01/31 02:31:18.5	91.750	-0.240	0.070	0.470
2020/01/31 02:31:18.6	91.780	-0.240	0.020	0.460
2020/01/31 02:31:18.7	91.800	-0.230	-0.030	0.450
2020/01/31 02:31:18.8	91.820	-0.220	-0.080	0.450
2020/01/31 02:31:18.9	91.830	-0.210	-0.140	0.450
2020/01/31 02:31:19.0	91.850	-0.200	-0.200	0.450
2020/01/31 02:31:19.1	91.870	-0.180	-0.250	0.450
2020/01/31 02:31:19.2	91.870	-0.160	-0.310	0.460
2020/01/31 02:31:19.3	91.880	-0.140	-0.370	0.460
2020/01/31 02:31:19.4	91.880	-0.120	-0.420	0.470
2020/01/31 02:31:19.5	91.890	-0.090	-0.470	0.490
2020/01/31 02:31:19.6	91.880	-0.070	-0.520	0.500
2020/01/31 02:31:19.7	91.880	-0.050	-0.570	0.520
2020/01/31 02:31:19.8	91.870	-0.020	-0.610	0.540
2020/01/31 02:31:19.9	91.860	0.000	-0.640	0.560
2020/01/31 02:31:20.0	91.850	0.030	-0.670	0.580
2020/01/31 02:31:20.1	91.810	0.050	-0.700	0.600
2020/01/31 02:31:20.2	91.790	0.070	-0.720	0.620
2020/01/31 02:31:20.3	91.770	0.100	-0.740	0.650
2020/01/31 02:31:20.4	91.750	0.120	-0.750	0.670
2020/01/31 02:31:20.5	91.730	0.140	-0.750	0.690
2020/01/31 02:31:20.6	91.710	0.150	-0.750	0.720
2020/01/31 02:31:20.7	91.680	0.170	-0.740	0.740
2020/01/31 02:31:20.8	91.660	0.180	-0.730	0.760
2020/01/31 02:31:20.9	91.630	0.200	-0.720	0.790
2020/01/31 02:31:21.0	91.610	0.210	-0.690	0.810
2020/01/31 02:31:21.1	91.590	0.220	-0.670	0.830
2020/01/31 02:31:21.2	91.570	0.220	-0.640	0.850
2020/01/31 02:31:21.3	91.540	0.230	-0.610	0.870
2020/01/31 02:31:21.4	91.520	0.230	-0.570	0.890
2020/01/31 02:31:21.5	91.500	0.230	-0.540	0.910
2020/01/31 02:31:21.6	91.470	0.240	-0.500	0.920
2020/01/31 02:31:21.7	91.450	0.240	-0.460	0.940
2020/01/31 02:31:21.8	91.440	0.230	-0.430	0.950
2020/01/31 02:31:21.9	91.420	0.230	-0.390	0.960
2020/01/31 02:31:22.0	91.400	0.230	-0.350	0.970
2020/01/31 02:31:22.1	91.390	0.230	-0.320	0.990
2020/01/31 02:31:22.2	91.370	0.220	-0.290	0.990
2020/01/31 02:31:22.3	91.360	0.220	-0.260	0.990
2020/01/31 02:31:22.4	91.360	0.210	-0.240	0.990
2020/01/31 02:31:22.5	91.350	0.210	-0.220	0.990
2020/01/31 02:31:22.6	91.350	0.200	-0.200	0.980
2020/01/31 02:31:22.7	91.360	0.200	-0.190	0.970
2020/01/31 02:31:22.8	91.360	0.200	-0.180	0.960
2020/01/31 02:31:22.9	91.370	0.190	-0.170	0.940
2020/01/31 02:31:23.0	91.380	0.190	-0.170	0.920
2020/01/31 02:31:23.1	91.390	0.180	-0.180	0.890
2020/01/31 02:31:23.2	91.400	0.180	-0.180	0.870
2020/01/31 02:31:23.3	91.420	0.170	-0.190	0.830
2020/01/31 02:31:23.4	91.430	0.170	-0.210	0.800
2020/01/31 02:31:23.5	91.450	0.160	-0.220	0.760
2020/01/31 02:31:23.6	91.470	0.160	-0.240	0.730
2020/01/31 02:31:23.7	91.490	0.150	-0.250	0.690
2020/01/31 02:31:23.8	91.500	0.150	-0.270	0.650
2020/01/31 02:31:23.9	91.520	0.140	-0.290	0.610
2020/01/31 02:31:24.0	91.540	0.130	-0.300	0.570
2020/01/31 02:31:24.1	91.560	0.120	-0.320	0.530
2020/01/31 02:31:24.2	91.580	0.110	-0.330	0.490
2020/01/31 02:31:24.3	91.600	0.100	-0.340	0.450
2020/01/31 02:31:24.4	91.610	0.080	-0.350	0.420
2020/01/31 02:31:24.5	91.630	0.070	-0.350	0.390
2020/01/31 02:31:24.6	91.640	0.050	-0.350	0.370
2020/01/31 02:31:24.7	91.660	0.030	-0.350	0.350
2020/01/31 02:31:24.8	91.670	0.010	-0.340	0.330
2020/01/31 02:31:24.9	91.680	-0.010	-0.330	0.320
2020/01/31 02:31:25.0	91.690	-0.040	-0.320	0.310
2020/01/31 02:31:25.1	91.700	-0.060	-0.290	0.310
2020/01/31 02:31:25.2	91.710	-0.090	-0.270	0.320
2020/01/31 02:31:25.3	91.710	-0.110	-0.240	0.330
2020/01/31 02:31:25.4	91.710	-0.140	-0.210	0.350
2020/01/31 02:31:25.5	91.720	-0.170	-0.180	0.370
2020/01/31 02:31:25.6	91.720	-0.200	-0.140	0.400
2020/01/31 02:31:25.7	91.710	-0.230	-0.100	0.430
2020/01/31 02:31:25.8	91.710	-0.270	-0.060	0.470
2020/01/31 02:31:25.9	91.710	-0.300	-0.020	0.500
2020/01/31 02:31:26.0	91.710	-0.330	0.030	0.540
2020/01/31 02:31:26.1	91.710	-0.360	0.070	0.590
2020/01/31 02:31:26.2	91.710	-0.390	0.110	0.630
2020/01/31 02:31:26.3	91.700	-0.420	0.160	0.670
2020/01/31 02:31:26.4	91.700	-0.450	0.200	0.710
2020/01/31 02:31:26.5	91.690	-0.480	0.240	0.750
2020/01/31 02:31:26.6	91.690	-0.500	0.280	0.790
2020/01/31 02:31:26.7	91.680	-0.530	0.310	0.830
2020/01/31 02:31:26.8	91.680	-0.550	0.340	0.870
2020/01/31 02:31:26.9	91.670	-0.570	0.360	0.900
2020/01/31 02:31:27.0	91.670	-0.580	0.380	0.930
2020/01/31 02:31:27.1	91.670	-0.590	0.400	0.960
2020/01/31 02:31:27.2	91.670	-0.600	0.400	0.990
2020/01/31 02:31:27.3	91.660	-0.610	0.400	1.010
2020/01/31 02:31:27.4	91.660	-0.610	0.390	1.020
2020/01/31 02:31:27.5	91.660	-0.600	0.380	1.030
2020/01/31 02:31:27.6	91.650	-0.600	0.350	1.040
2020/01/31 02:31:27.7	91.650	-0.580	0.320	1.050
2020/01/31 02:31:27.8	91.650	-0.570	0.280	1.050
2020/01/31 02:31:27.9	91.640	-0.540	0.230	1.050
2020/01/31 02:31:28.0	91.640	-0.520	0.170	1.040
2020/01/31 02:31:28.1	91.630	-0.490	0.110	1.030
2020/01/31 02:31:28.2	91.630	-0.450	0.040	1.020
2020/01/31 02:31:28.3	91.620	-0.410	-0.030	1.010
2020/01/31 02:31:28.4	91.620	-0.370	-0.110	1.000
2020/01/31 02:31:28.5	91.620	-0.330	-0.190	0.980
2020/01/31 02:31:28.6	91.610	-0.280	-0.270	0.970
2020/01/31 02:31:28.7	91.610	-0.230	-0.350	0.960
2020/01/31 02:31:28.8	91.600	-0.170	-0.430	0.940
2020/01/31 02:31:28.9	91.600	-0.120	-0.520	0.920
2020/01/31 02:31:29.0	91.600	-0.060	-0.590	0.910
2020/01/31 02:31:29.1	91.580	-0.010	-0.670	0.890
2020/01/31 02:31:29.2	91.580	0.050	-0.740	0.870
2020/01/31 02:31:29.3	91.580	0.100	-0.810	0.860
2020/01/31 02:31:29.4	91.580	0.160	-0.870	0.840
2020/01/31 02:31:29.5	91.580	0.210	-0.920	0.820
2020/01/31 02:31:29.6	91.580	0.270	-0.960	0.800
2020/01/31 02:31:29.7	91.580	0.320	-1.000	0.780
2020/01/31 02:31:29.8	91.590	0.370	-1.030	0.760
2020/01/31 02:31:29.9	91.590	0.410	-1.040	0.730
2020/01/31 02:31:30.0	91.590	0.450	-1.050	0.710
2020/01/31 02:31:30.1	91.590	0.490	-1.050	0.690
2020/01/31 02:31:30.2	91.600	0.530	-1.040	0.670
2020/01/31 02:31:30.3	91.600	0.560	-1.020	0.640
2020/01/31 02:31:30.4	91.610	0.580	-0.990	0.620
2020/01/31 02:31:30.5	91.620	0.610	-0.950	0.590
2020/01/31 02:31:30.6	91.620	0.620	-0.900	0.570
2020/01/31 02:31:30.7	91.630	0.640	-0.840	0.550
2020/01/31 02:31:30.8	91.640	0.640	-0.770	0.520
2020/01/31 02:31:30.9	91.650	0.650	-0.700	0.500
2020/01/31 02:31:31.0	91.660	0.650	-0.630	0.480
2020/01/31 02:31:31.1	91.670	0.640	-0.540	0.470
2020/01/31 02:31:31.2	91.670	0.630	-0.450	0.450
2020/01/31 02:31:31.3	91.680	0.620	-0.360	0.430
2020/01/31 02:31:31.4	91.690	0.600	-0.270	0.410
2020/01/31 02:31:31.5	91.690	0.580	-0.180	0.390
2020/01/31 02:31:31.6	91.700	0.550	-0.090	0.370
2020/01/31 02:31:31.7	91.700	0.530	0.010	0.360
2020/01/31 02:31:31.8	91.710	0.490	0.090	0.340
2020/01/31 02:31:31.9	91.710	0.460	0.180	0.330
2020/01/31 02:31:32.0	91.720	0.430	0.260	0.320
2020/01/31 02:31:32.1	91.720	0.390	0.340	0.300
2020/01/31 02:31:32.2	91.730	0.350	0.410	0.290
2020/01/31 02:31:32.3	91.730	0.310	0.480	0.280
2020/01/31 02:31:32.4	91.740	0.270	0.540	0.270
2020/01/31 02:31:32.5	91.740	0.230	0.590	0.260
2020/01/31 02:31:32.6	91.740	0.190	0.630	0.250
2020/01/31 02:31:32.7	91.750	0.150	0.660	0.250
2020/01/31 02:31:32.8	91.750	0.110	0.690	0.240
2020/01/31 02:31:32.9	91.760	0.070	0.710	0.230
2020/01/31 02:31:33.0	91.760	0.030	0.710	0.220
2020/01/31 02:31:33.1	91.760	-0.000	0.710	0.220
2020/01/31 02:31:33.2	91.770	-0.040	0.700	0.220
2020/01/31 02:31:33.3	91.770	-0.070	0.680	0.210
2020/01/31 02:31:33.4	91.780	-0.090	0.650	0.200
2020/01/31 02:31:33.5	91.790	-0.120	0.610	0.200
2020/01/31 02:31:33.6	91.800	-0.140	0.560	0.190
2020/01/31 02:31:33.7	91.810	-0.160	0.500	0.180
2020/01/31 02:31:33.8	91.820	-0.180	0.440	0.170
2020/01/31 02:31:33.9	91.840	-0.190	0.370	0.170
2020/01/31 02:31:34.0	91.850	-0.200	0.290	0.160
2020/01/31 02:31:34.1	91.860	-0.200	0.210	0.150
2020/01/31 02:31:34.2	91.880	-0.210	0.120	0.150
2020/01/31 02:31:34.3	91.890	-0.210	0.040	0.150
2020/01/31 02:31:34.4	91.910	-0.200	-0.050	0.150
2020/01/31 02:31:34.5	91.920	-0.200	-0.140	0.150
2020/01/31 02:31:34.6	91.940	-0.190	-0.230	0.160
2020/01/31 02:31:34.7	91.950	-0.180	-0.320	0.170
2020/01/31 02:31:34.8	91.960	-0.160	-0.400	0.190
2020/01/31 02:31:34.9	91.970	-0.150	-0.480	0.210
2020/01/31 02:31:35.0	91.990	-0.130	-0.560	0.240
2020/01/31 02:31:35.1	91.990	-0.110	-0.630	0.280
2020/01/31 02:31:35.2	92.000	-0.090	-0.700	0.310
2020/01/31 02:31:35.3	92.010	-0.070	-0.760	0.350
2020/01/31 02:31:35.4	92.010	-0.060	-0.820	0.390
2020/01/31 02:31:35.5	92.020	-0.040	-0.870	0.430
2020/01/31 02:31:35.6	92.020	-0.020	-0.910	0.480
2020/01/31 02:31:35.7	92.030	-0.000	-0.940	0.530
2020/01/31 02:31:35.8	92.030	0.020	-0.960	0.580
2020/01/31 02:31:35.9	92.030	0.030	-0.980	0.640
2020/01/31 02:31:36.0	92.030	0.040	-0.990	0.690
2020/01/31 02:31:36.1	92.030	0.050	-1.000	0.750
2020/01/31 02:31:36.2	92.030	0.060	-0.990	0.810
2020/01/31 02:31:36.3	92.030	0.070	-0.980	0.870
2020/01/31 02:31:36.4	92.030	0.080	-0.950	0.930
2020/01/31 02:31:36.5	92.020	0.080	-0.930	0.980
2020/01/31 02:31:36.6	92.020	0.080	-0.890	1.040
2020/01/31 02:31:36.7	92.010	0.080	-0.850	1.090
2020/01/31 02:31:36.8	92.000	0.070	-0.810	1.140
2020/01/31 02:31:36.9	91.990	0.070	-0.760	1.190
2020/01/31 02:31:37.0	91.980	0.060	-0.710	1.230
2020/01/31 02:31:37.1	91.960	0.050	-0.650	1.280
2020/01/31 02:31:37.2	91.950	0.040	-0.590	1.320
2020/01/31 02:31:37.3	91.940	0.020	-0.530	1.350
2020/01/31 02:31:37.4	91.920	0.010	-0.470	1.380
2020/01/31 02:31:37.5	91.910	-0.010	-0.410	1.400
2020/01/31 02:31:37.6	91.900	-0.030	-0.340	1.420
2020/01/31 02:31:37.7	91.890	-0.040	-0.280	1.430
2020/01/31 02:31:37.8	91.870	-0.060	-0.230	1.440
2020/01/31 02:31:37.9	91.860	-0.080	-0.170	1.450
2020/01/31 02:31:38.0	91.850	-0.100	-0.120	1.450
2020/01/31 02:31:38.1	91.840	-0.120	-0.060	1.450
2020/01/31 02:31:38.2	91.830	-0.140	-0.020	1.440
2020/01/31 02:31:38.3	91.820	-0.150	0.030	1.430
2020/01/31 02:31:38.4	91.820	-0.170	0.070	1.420
2020/01/31 02:31:38.5	91.810	-0.190	0.100	1.400
2020/01/31 02:31:38.6	91.810	-0.200	0.130	1.380
2020/01/31 02:31:38.7	91.810	-0.210	0.150	1.360
2020/01/31 02:31:38.8	91.810	-0.220	0.170	1.330
2020/01/31 02:31:38.9	91.810	-0.230	0.180	1.300
2020/01/31 02:31:39.0	91.820	-0.240	0.180	1.270
2020/01/31 02:31:39.1	91.840	-0.240	0.180	1.240
2020/01/31 02:31:39.2	91.850	-0.240	0.180	1.200
2020/01/31 02:31:39.3	91.860	-0.240	0.160	1.170
2020/01/31 02:31:39.4	91.870	-0.230	0.140	1.130
2020/01/31 02:31:39.5	91.890	-0.230	0.120	1.090
2020/01/31 02:31:39.6	91.900	-0.210	0.090	1.040
2020/01/31 02:31:39.7	91.920	-0.200	0.050	1.000
2020/01/31 02:31:39.8	91.940	-0.190	0.010	0.960
2020/01/31 02:31:39.9	91.950	-0.170	-0.030	0.910
2020/01/31 02:31:40.0	91.970	-0.150	-0.080	0.870
2020/01/31 02:31:40.1	91.980	-0.120	-0.130	0.830
2020/01/31 02:31:40.2	92.000	-0.100	-0.180	0.790
2020/01/31 02:31:40.3	92.010	-0.070	-0.230	0.750
2020/01/31 02:31:40.4	92.030	-0.040	-0.280	0.710
2020/01/31 02:31:40.5	92.040	-0.010	-0.330	0.660
2020/01/31 02:31:40.6	92.060	0.020	-0.380	0.620
2020/01/31 02:31:40.7	92.070	0.050	-0.420	0.590
2020/01/31 02:31:40.8	92.080	0.080	-0.460	0.550
2020/01/31 02:31:40.9	92.090	0.110	-0.490	0.510
2020/01/31 02:31:41.0	92.100	0.140	-0.520	0.470
2020/01/31 02:31:41.1	92.110	0.170	-0.550	0.440
2020/01/31 02:31:41.2	92.120	0.190	-0.570	0.400
2020/01/31 02:31:41.3	92.120	0.220	-0.580	0.370
2020/01/31 02:31:41.4	92.130	0.240	-0.580	0.340
2020/01/31 02:31:41.5	92.130	0.250	-0.570	0.310
2020/01/31 02:31:41.6	92.140	0.270	-0.560	0.290
2020/01/31 02:31:41.7	92.140	0.280	-0.540	0.260
2020/01/31 02:31:41.8	92.140	0.290	-0.520	0.240
2020/01/31 02:31:41.9	92.140	0.290	-0.480	0.220
2020/01/31 02:31:42.0	92.150	0.290	-0.440	0.210
2020/01/31 02:31:42.1	92.160	0.290	-0.400	0.200
2020/01/31 02:31:42.2	92.160	0.280	-0.350	0.200
2020/01/31 02:31:42.3	92.160	0.270	-0.300	0.190
2020/01/31 02:31:42.4	92.160	0.260	-0.240	0.190
2020/01/31 02:31:42.5	92.170	0.240	-0.180	0.190
2020/01/31 02:31:42.6	92.170	0.220	-0.120	0.200
2020/01/31 02:31:42.7	92.170	0.190	-0.050	0.210
2020/01/31 02:31:42.8	92.180	0.160	0.010	0.230
2020/01/31 02:31:42.9	92.180	0.140	0.070	0.240
2020/01/31 02:31:43.0	92.190	0.100	0.130	0.260
2020/01/31 02:31:43.1	92.200	0.070	0.200	0.290
2020/01/31 02:31:43.2	92.200	0.040	0.260	0.310
2020/01/31 02:31:43.3	92.210	-0.000	0.310	0.340
2020/01/31 02:31:43.4	92.220	-0.040	0.350	0.370
2020/01/31 02:31:43.5	92.230	-0.070	0.390	0.390
2020/01/31 02:31:43.6	92.240	-0.110	0.420	0.420
2020/01/31 02:31:43.7	92.250	-0.140	0.450	0.450
2020/01/31 02:31:43.8	92.260	-0.170	0.470	0.480
2020/01/31 02:31:43.9	92.270	-0.200	0.480	0.510
2020/01/31 02:31:44.0	92.280	-0.230	0.480	0.530
2020/01/31 02:31:44.1	92.290	-0.250	0.460	0.560
2020/01/31 02:31:44.2	92.300	-0.270	0.450	0.590
2020/01/31 02:31:44.3	92.310	-0.290	0.430	0.610
2020/01/31 02:31:44.4	92.320	-0.300	0.390	0.630
2020/01/31 02:31:44.5	92.330	-0.310	0.360	0.650
2020/01/31 02:31:44.6	92.340	-0.320	0.310	0.670
2020/01/31 02:31:44.7	92.350	-0.320	0.260	0.690
2020/01/31 02:31:44.8	92.360	-0.320	0.200	0.700
2020/01/31 02:31:44.9	92.370	-0.310	0.130	0.710
2020/01/31 02:31:45.0	92.370	-0.300	0.070	0.720
2020/01/31 02:31:45.1	92.370	-0.280	-0.000	0.730
2020/01/31 02:31:45.2	92.380	-0.260	-0.070	0.740
2020/01/31 02:31:45.3	92.380	-0.240	-0.150	0.750
2020/01/31 02:31:45.4	92.390	-0.220	-0.220	0.750
2020/01/31 02:31:45.5	92.390	-0.190	-0.300	0.760
2020/01/31 02:31:45.6	92.400	-0.160	-0.370	0.760
2020/01/31 02:31:45.7	92.400	-0.130	-0.440	0.770
2020/01/31 02:31:45.8	92.400	-0.100	-0.500	0.770
2020/01/31 02:31:45.9	92.390	-0.060	-0.570	0.780
2020/01/31 02:31:46.0	92.390	-0.030	-0.620	0.790
2020/01/31 02:31:46.1	92.370	0.000	-0.680	0.800
2020/01/31 02:31:46.2	92.370	0.040	-0.720	0.810
2020/01/31 02:31:46.3	92.360	0.070	-0.760	0.830
2020/01/31 02:31:46.4	92.350	0.100	-0.790	0.840
2020/01/31 02:31:46.5	92.340	0.130	-0.810	0.860
2020/01/31 02:31:46.6	92.320	0.160	-0.830	0.880
2020/01/31 02:31:46.7	92.310	0.180	-0.840	0.900
2020/01/31 02:31:46.8	92.290	0.200	-0.840	0.920
2020/01/31 02:31:46.9	92.280	0.230	-0.840	0.940
2020/01/31 02:31:47.0	92.260	0.240	-0.820	0.960
2020/01/31 02:31:47.1	92.250	0.260	-0.810	0.990
2020/01/31 02:31:47.2	92.230	0.270	-0.780	1.010
2020/01/31 02:31:47.3	92.210	0.280	-0.760	1.030
2020/01/31 02:31:47.4	92.200	0.290	-0.730	1.050
2020/01/31 02:31:47.5	92.180	0.300	-0.690	1.060
2020/01/31 02:31:47.6	92.170	0.300	-0.650	1.070
2020/01/31 02:31:47.7	92.160	0.300	-0.610	1.080
2020/01/31 02:31:47.8	92.150	0.300	-0.570	1.080
2020/01/31 02:31:47.9	92.140	0.290	-0.530	1.080
2020/01/31 02:31:48.0	92.130	0.290	-0.490	1.070
2020/01/31 02:31:48.1	92.140	0.280	-0.440	1.060
2020/01/31 02:31:48.2	92.130	0.270	-0.400	1.050
2020/01/31 02:31:48.3	92.130	0.260	-0.360	1.030
2020/01/31 02:31:48.4	92.130	0.260	-0.320	1.010
2020/01/31 02:31:48.5	92.130	0.250	-0.290	0.990
2020/01/31 02:31:48.6	92.130	0.240	-0.250	0.960
2020/01/31 02:31:48.7	92.130	0.230	-0.220	0.930
2020/01/31 02:31:48.8	92.140	0.220	-0.200	0.900
2020/01/31 02:31:48.9	92.140	0.210	-0.170	0.870
2020/01/31 02:31:49.0	92.150	0.200	-0.150	0.840
2020/01/31 02:31:49.1	92.150	0.190	-0.140	0.820
2020/01/31 02:31:49.2	92.160	0.190	-0.130	0.780
2020/01/31 02:31:49.3	92.170	0.180	-0.130	0.750
2020/01/31 02:31:49.4	92.180	0.180	-0.120	0.720
2020/01/31 02:31:49.5	92.190	0.180	-0.130	0.700
2020/01/31 02:31:49.6	92.200	0.170	-0.130	0.670
2020/01/31 02:31:49.7	92.210	0.170	-0.140	0.640
2020/01/31 02:31:49.8	92.220	0.180	-0.150	0.610
2020/01/31 02:31:49.9	92.240	0.180	-0.170	0.590
2020/01/31 02:31:50.0	92.250	0.180	-0.180	0.560
2020/01/31 02:31:50.1	92.270	0.180	-0.200	0.540
2020/01/31 02:31:50.2	92.290	0.180	-0.220	0.520
2020/01/31 02:31:50.3	92.300	0.190	-0.230	0.500
2020/01/31 02:31:50.4	92.310	0.190	-0.250	0.480
2020/01/31 02:31:50.5	92.320	0.190	-0.270	0.460
2020/01/31 02:31:50.6	92.330	0.190	-0.280	0.440
2020/01/31 02:31:50.7	92.340	0.190	-0.290	0.420
2020/01/31 02:31:50.8	92.340	0.180	-0.300	0.410
2020/01/31 02:31:50.9	92.350	0.180	-0.310	0.400
2020/01/31 02:31:51.0	92.350	0.170	-0.310	0.390
2020/01/31 02:31:51.1	92.350	0.160	-0.310	0.380
2020/01/31 02:31:51.2	92.350	0.150	-0.310	0.380
2020/01/31 02:31:51.3	92.350	0.140	-0.300	0.380
2020/01/31 02:31:51.4	92.350	0.120	-0.290	0.380
2020/01/31 02:31:51.5	92.350	0.100	-0.270	0.380
2020/01/31 02:31:51.6	92.340	0.080	-0.250	0.380
2020/01/31 02:31:51.7	92.340	0.060	-0.230	0.390
2020/01/31 02:31:51.8	92.330	0.030	-0.200	0.400
2020/01/31 02:31:51.9	92.330	0.000	-0.170	0.410
2020/01/31 02:31:52.0	92.320	-0.020	-0.130	0.420
2020/01/31 02:31:52.1	92.320	-0.060	-0.090	0.430
2020/01/31 02:31:52.2	92.320	-0.090	-0.050	0.450
2020/01/31 02:31:52.3	92.320	-0.120	-0.010	0.470
2020/01/31 02:31:52.4	92.310	-0.160	0.040	0.490
2020/01/31 02:31:52.5	92.310	-0.190	0.090	0.510
2020/01/31 02:31:52.6	92.310	-0.230	0.130	0.530
2020/01/31 02:31:52.7	92.310	-0.260	0.180	0.550
2020/01/31 02:31:52.8	92.310	-0.300	0.230	0.570
2020/01/31 02:31:52.9	92.320	-0.330	0.270	0.590
2020/01/31 02:31:53.0	92.320	-0.370	0.310	0.620
2020/01/31 02:31:53.1	92.340	-0.400	0.360	0.640
2020/01/31 02:31:53.2	92.340	-0.430	0.390	0.670
2020/01/31 02:31:53.3	92.350	-0.470	0.420	0.690
2020/01/31 02:31:53.4	92.360	-0.490	0.450	0.710
2020/01/31 02:31:53.5	92.370	-0.520	0.470	0.730
2020/01/31 02:31:53.6	92.380	-0.550	0.490	0.750
2020/01/31 02:31:53.7	92.390	-0.570	0.500	0.770
2020/01/31 02:31:53.8	92.400	-0.590	0.510	0.790
2020/01/31 02:31:53.9	92.410	-0.610	0.510	0.810
2020/01/31 02:31:54.0	92.420	-0.630	0.500	0.820
2020/01/31 02:31:54.1	92.430	-0.640	0.480	0.840
2020/01/31 02:31:54.2	92.440	-0.650	0.470	0.850
2020/01/31 02:31:54.3	92.460	-0.660	0.440	0.860
2020/01/31 02:31:54.4	92.470	-0.660	0.410	0.870
2020/01/31 02:31:54.5	92.490	-0.660	0.380	0.870
2020/01/31 02:31:54.6	92.500	-0.660	0.330	0.880
2020/01/31 02:31:54.7	92.520	-0.650	0.290	0.880
2020/01/31 02:31:54.8	92.530	-0.640	0.230	0.880
2020/01/31 02:31:54.9	92.550	-0.630	0.180	0.880
2020/01/31 02:31:55.0	92.570	-0.610	0.110	0.880
2020/01/31 02:31:55.1	92.580	-0.590	0.050	0.880
2020/01/31 02:31:55.2	92.590	-0.560	-0.020	0.880
2020/01/31 02:31:55.3	92.610	-0.530	-0.100	0.880
2020/01/31 02:31:55.4	92.620	-0.500	-0.180	0.880
2020/01/31 02:31:55.5	92.630	-0.460	-0.260	0.880
2020/01/31 02:31:55.6	92.630	-0.420	-0.340	0.880
2020/01/31 02:31:55.7	92.640	-0.370	-0.430	0.890
2020/01/31 02:31:55.8	92.640	-0.330	-0.510	0.890
2020/01/31 02:31:55.9	92.640	-0.270	-0.600	0.900
2020/01/31 02:31:56.0	92.640	-0.220	-0.680	0.910
2020/01/31 02:31:56.1	92.630	-0.160	-0.770	0.920
2020/01/31 02:31:56.2	92.620	-0.100	-0.850	0.940
2020/01/31 02:31:56.3	92.610	-0.040	-0.920	0.950
2020/01/31 02:31:56.4	92.600	0.020	-0.990	0.960
2020/01/31 02:31:56.5	92.590	0.080	-1.060	0.980
2020/01/31 02:31:56.6	92.570	0.140	-1.120	0.990
2020/01/31 02:31:56.7	92.550	0.200	-1.180	1.010
2020/01/31 02:31:56.8	92.530	0.260	-1.220	1.020
2020/01/31 02:31:56.9	92.510	0.320	-1.260	1.030
2020/01/31 02:31:57.0	92.490	0.380	-1.290	1.040
2020/01/31 02:31:57.1	92.450	0.430	-1.320	1.060
2020/01/31 02:31:57.2	92.430	0.480	-1.330	1.070
2020/01/31 02:31:57.3	92.410	0.530	-1.330	1.080
2020/01/31 02:31:57.4	92.380	0.570	-1.330	1.090
2020/01/31 02:31:57.5	92.360	0.610	-1.310	1.090
2020/01/31 02:31:57.6	92.330	0.650	-1.290	1.100
2020/01/31 02:31:57.7	92.310	0.670	-1.250	1.100
2020/01/31 02:31:57.8	92.280	0.700	-1.210	1.110
2020/01/31 02:31:57.9	92.260	0.720	-1.150	1.110
2020/01/31 02:31:58.0	92.240	0.730	-1.090	1.110
2020/01/31 02:31:58.1	92.200	0.740	-1.020	1.110
2020/01/31 02:31:58.2	92.180	0.740	-0.940	1.100
2020/01/31 02:31:58.3	92.160	0.730	-0.860	1.100
2020/01/31 02:31:58.4	92.150	0.720	-0.760	1.090
2020/01/31 02:31:58.5	92.130	0.710	-0.670	1.080
2020/01/31 02:31:58.6	92.120	0.690	-0.560	1.070
2020/01/31 02:31:58.7	92.100	0.660	-0.460	1.050
2020/01/31 02:31:58.8	92.090	0.630	-0.350	1.030
2020/01/31 02:31:58.9	92.080	0.600	-0.240	1.010
2020/01/31 02:31:59.0	92.070	0.560	-0.130	0.990
2020/01/31 02:31:59.1	92.060	0.520	-0.020	0.970
2020/01/31 02:31:59.2	92.050	0.480	0.090	0.940
2020/01/31 02:31:59.3	92.040	0.430	0.190	0.910
2020/01/31 02:31:59.4	92.030	0.380	0.290	0.880
2020/01/31 02:31:59.5	92.020	0.340	0.390	0.840
2020/01/31 02:31:59.6	92.010	0.290	0.480	0.800
2020/01/31 02:31:59.7	92.000	0.240	0.560	0.760
2020/01/31 02:31:59.8	91.990	0.190	0.640	0.720
2020/01/31 02:31:59.9	91.990	0.140	0.700	0.670
2020/01/31 02:32:00.0	91.980	0.090	0.760	0.630
2020/01/31 02:32:00.1	91.990	0.050	0.810	0.580
2020/01/31 02:32:00.2	91.980	0.000	0.850	0.530
2020/01/31 02:32:00.3	91.980	-0.040	0.870	0.480
2020/01/31 02:32:00.4	91.980	-0.070	0.880	0.430
2020/01/31 02:32:00.5	91.980	-0.110	0.890	0.380
2020/01/31 02:32:00.6	91.990	-0.140	0.880	0.330
2020/01/31 02:32:00.7	91.990	-0.160	0.850	0.280
2020/01/31 02:32:00.8	92.000	-0.180	0.820	0.240
2020/01/31 02:32:00.9	92.010	-0.190	0.770	0.190
2020/01/31 02:32:01.0	92.020	-0.200	0.710	0.150
2020/01/31 02:32:01.1	92.030	-0.200	0.640	0.110
2020/01/31 02:32:01.2	92.050	-0.200	0.560	0.070
2020/01/31 02:32:01.3	92.060	-0.200	0.480	0.040
2020/01/31 02:32:01.4	92.080	-0.190	0.380	0.000
2020/01/31 02:32:01.5	92.100	-0.170	0.280	-0.020
2020/01/31 02:32:01.6	92.110	-0.150	0.170	-0.050
2020/01/31 02:32:01.7	92.140	-0.130	0.060	-0.060
2020/01/31 02:32:01.8	92.160	-0.100	-0.050	-0.080
2020/01/31 02:32:01.9	92.180	-0.070	-0.160	-0.090
2020/01/31 02:32:02.0	92.200	-0.040	-0.270	-0.100
2020/01/31 02:32:02.1	92.230	-0.010	-0.390	-0.100
2020/01/31 02:32:02.2	92.260	0.020	-0.490	-0.110
2020/01/31 02:32:02.3	92.290	0.060	-0.600	-0.100
2020/01/31 02:32:02.4	92.310	0.090	-0.690	-0.100
2020/01/31 02:32:02.5	92.340	0.120	-0.790	-0.090
2020/01/31 02:32:02.6	92.370	0.150	-0.870	-0.090
2020/01/31 02:32:02.7	92.390	0.180	-0.940	-0.070
2020/01/31 02:32:02.8	92.420	0.210	-1.010	-0.060
2020/01/31 02:32:02.9	92.440	0.230	-1.060	-0.040
2020/01/31 02:32:03.0	92.470	0.260	-1.100	-0.020
2020/01/31 02:32:03.1	92.480	0.270	-1.140	0.010
2020/01/31 02:32:03.2	92.500	0.290	-1.160	0.030
2020/01/31 02:32:03.3	92.520	0.300	-1.160	0.060
2020/01/31 02:32:03.4	92.540	0.300	-1.160	0.090
2020/01/31 02:32:03.5	92.550	0.310	-1.140	0.130
2020/01/31 02:32:03.6	92.560	0.300	-1.110	0.170
2020/01/31 02:32:03.7	92.570	0.300	-1.070	0.210
2020/01/31 02:32:03.8	92.580	0.290	-1.020	0.260
2020/01/31 02:32:03.9	92.580	0.270	-0.960	0.310
2020/01/31 02:32:04.0	92.580	0.250	-0.890	0.360
2020/01/31 02:32:04.1	92.580	0.220	-0.810	0.420
2020/01/31 02:32:04.2	92.570	0.200	-0.730	0.480
2020/01/31 02:32:04.3	92.560	0.160	-0.640	0.550
2020/01/31 02:32:04.4	92.550	0.130	-0.540	0.620
2020/01/31 02:32:04.5	92.530	0.090	-0.440	0.680
2020/01/31 02:32:04.6	92.510	0.040	-0.330	0.750
2020/01/31 02:32:04.7	92.490	-0.000	-0.220	0.830
2020/01/31 02:32:04.8	92.470	-0.050	-0.120	0.890
2020/01/31 02:32:04.9	92.440	-0.110	-0.010	0.960
2020/01/31 02:32:05.0	92.420	-0.160	0.090	1.030
2020/01/31 02:32:05.1	92.410	-0.210	0.200	1.100
2020/01/31 02:32:05.2	92.390	-0.270	0.300	1.160
2020/01/31 02:32:05.3	92.360	-0.330	0.390	1.220
2020/01/31 02:32:05.4	92.340	-0.380	0.480	1.280
2020/01/31 02:32:05.5	92.320	-0.440	0.560	1.330
2020/01/31 02:32:05.6	92.310	-0.490	0.630	1.370
2020/01/31 02:32:05.7	92.290	-0.550	0.690	1.420
2020/01/31 02:32:05.8	92.270	-0.600	0.750	1.450
2020/01/31 02:32:05.9	92.260	-0.650	0.790	1.480
2020/01/31 02:32:06.0	92.250	-0.700	0.830	1.510
2020/01/31 02:32:06.1	92.240	-0.740	0.850	1.530
2020/01/31 02:32:06.2	92.230	-0.780	0.860	1.540
2020/01/31 02:32:06.3	92.230	-0.810	0.870	1.550
2020/01/31 02:32:06.4	92.220	-0.840	0.860	1.550
2020/01/31 02:32:06.5	92.220	-0.870	0.840	1.550
2020/01/31 02:32:06.6	92.220	-0.890	0.810	1.530
2020/01/31 02:32:06.7	92.220	-0.900	0.770	1.520
2020/01/31 02:32:06.8	92.220	-0.900	0.720	1.490
2020/01/31 02:32:06.9	92.230	-0.900	0.660	1.470
2020/01/31 02:32:07.0	92.230	-0.900	0.590	1.440
2020/01/31 02:32:07.1	92.250	-0.880	0.510	1.400
2020/01/31 02:32:07.2	92.260	-0.860	0.420	1.360
2020/01/31 02:32:07.3	92.270	-0.830	0.330	1.310
2020/01/31 02:32:07.4	92.280	-0.800	0.230	1.260
2020/01/31 02:32:07.5	92.290	-0.760	0.130	1.210
2020/01/31 02:32:07.6	92.300	-0.710	0.030	1.160
2020/01/31 02:32:07.7	92.310	-0.660	-0.080	1.100
2020/01/31 02:32:07.8	92.330	-0.600	-0.190	1.050
2020/01/31 02:32:07.9	92.340	-0.540	-0.290	0.990
2020/01/31 02:32:08.0	92.350	-0.470	-0.400	0.940
2020/01/31 02:32:08.1	92.350	-0.410	-0.500	0.880
2020/01/31 02:32:08.2	92.360	-0.330	-0.600	0.820
2020/01/31 02:32:08.3	92.370	-0.260	-0.690	0.770
2020/01/31 02:32:08.4	92.390	-0.190	-0.770	0.720
2020/01/31 02:32:08.5	92.400	-0.110	-0.850	0.670
2020/01/31 02:32:08.6	92.410	-0.040	-0.920	0.630
2020/01/31 02:32:08.7	92.420	0.030	-0.980	0.580
2020/01/31 02:32:08.8	92.430	0.110	-1.030	0.540
2020/01/31 02:32:08.9	92.440	0.170	-1.070	0.510
2020/01/31 02:32:09.0	92.450	0.240	-1.110	0.470
2020/01/31 02:32:09.1	92.440	0.300	-1.130	0.450
2020/01/31 02:32:09.2	92.450	0.360	-1.150	0.420
2020/01/31 02:32:09.3	92.460	0.410	-1.160	0.400
2020/01/31 02:32:09.4	92.470	0.460	-1.160	0.390
2020/01/31 02:32:09.5	92.470	0.500	-1.150	0.370
2020/01/31 02:32:09.6	92.480	0.540	-1.130	0.370
2020/01/31 02:32:09.7	92.480	0.570	-1.110	0.370
2020/01/31 02:32:09.8	92.490	0.590	-1.080	0.370
2020/01/31 02:32:09.9	92.490	0.610	-1.040	0.370
2020/01/31 02:32:10.0	92.490	0.630	-1.000	0.380
2020/01/31 02:32:10.1	92.490	0.630	-0.950	0.400
2020/01/31 02:32:10.2	92.490	0.630	-0.900	0.420
2020/01/31 02:32:10.3	92.490	0.630	-0.850	0.430
2020/01/31 02:32:10.4	92.490	0.620	-0.790	0.450
2020/01/31 02:32:10.5	92.490	0.610	-0.740	0.470
2020/01/31 02:32:10.6	92.490	0.590	-0.680	0.490
2020/01/31 02:32:10.7	92.490	0.560	-0.620	0.510
2020/01/31 02:32:10.8	92.480	0.540	-0.550	0.540
2020/01/31 02:32:10.9	92.480	0.500	-0.490	0.560
2020/01/31 02:32:11.0	92.470	0.470	-0.430	0.580
2020/01/31 02:32:11.1	92.470	0.430	-0.370	0.610
2020/01/31 02:32:11.2	92.460	0.390	-0.300	0.630
2020/01/31 02:32:11.3	92.450	0.350	-0.250	0.650
2020/01/31 02:32:11.4	92.440	0.300	-0.190	0.670
2020/01/31 02:32:11.5	92.420	0.260	-0.130	0.680
2020/01/31 02:32:11.6	92.410	0.210	-0.080	0.700
2020/01/31 02:32:11.7	92.390	0.170	-0.020	0.720
2020/01/31 02:32:11.8	92.370	0.120	0.030	0.740
2020/01/31 02:32:11.9	92.360	0.080	0.070	0.750
2020/01/31 02:32:12.0	92.330	0.030	0.120	0.770
2020/01/31 02:32:12.1	92.320	-0.010	0.160	0.780
2020/01/31 02:32:12.2	92.290	-0.050	0.200	0.800
2020/01/31 02:32:12.3	92.270	-0.080	0.230	0.810
2020/01/31 02:32:12.4	92.250	-0.120	0.260	0.830
2020/01/31 02:32:12.5	92.220	-0.150	0.280	0.840
2020/01/31 02:32:12.6	92.200	-0.170	0.300	0.850
2020/01/31 02:32:12.7	92.180	-0.200	0.320	0.860
2020/01/31 02:32:12.8	92.150	-0.210	0.330	0.870
2020/01/31 02:32:12.9	92.130	-0.230	0.330	0.880
2020/01/31 02:32:13.0	92.120	-0.240	0.330	0.880
2020/01/31 02:32:13.1	92.110	-0.240	0.330	0.890
2020/01/31 02:32:13.2	92.090	-0.240	0.310	0.890
2020/01/31 02:32:13.3	92.080	-0.240	0.300	0.890
2020/01/31 02:32:13.4	92.070	-0.230	0.280	0.890
2020/01/31 02:32:13.5	92.060	-0.220	0.250	0.880
2020/01/31 02:32:13.6	92.050	-0.200	0.220	0.870
2020/01/31 02:32:13.7	92.050	-0.180	0.180	0.860
2020/01/31 02:32:13.8	92.050	-0.160	0.140	0.840
2020/01/31 02:32:13.9	92.050	-0.130	0.100	0.830
2020/01/31 02:32:14.0	92.050	-0.100	0.050	0.810
2020/01/31 02:32:14.1	92.060	-0.070	-0.000	0.780
2020/01/31 02:32:14.2	92.070	-0.030	-0.050	0.760
2020/01/31 02:32:14.3	92.070	0.010	-0.110	0.740
2020/01/31 02:32:14.4	92.080	0.050	-0.160	0.710
2020/01/31 02:32:14.5	92.100	0.090	-0.220	0.680
2020/01/31 02:32:14.6	92.110	0.130	-0.270	0.660
2020/01/31 02:32:14.7	92.130	0.170	-0.320	0.630
2020/01/31 02:32:14.8	92.140	0.210	-0.370	0.600
2020/01/31 02:32:14.9	92.160	0.250	-0.420	0.570
2020/01/31 02:32:15.0	92.180	0.290	-0.460	0.540
2020/01/31 02:32:15.1	92.190	0.330	-0.510	0.510
2020/01/31 02:32:15.2	92.210	0.370	-0.540	0.480
2020/01/31 02:32:15.3	92.230	0.400	-0.570	0.460
2020/01/31 02:32:15.4	92.250	0.430	-0.590	0.430
2020/01/31 02:32:15.5	92.270	0.450	-0.600	0.410
2020/01/31 02:32:15.6	92.290	0.480	-0.610	0.390
2020/01/31 02:32:15.7	92.310	0.490	-0.610	0.360
2020/01/31 02:32:15.8	92.320	0.510	-0.600	0.340
2020/01/31 02:32:15.9	92.340	0.520	-0.590	0.330
2020/01/31 02:32:16.0	92.350	0.520	-0.570	0.310
2020/01/31 02:32:16.1	92.350	0.530	-0.540	0.300
2020/01/31 02:32:16.2	92.360	0.520	-0.510	0.280
2020/01/31 02:32:16.3	92.370	0.520	-0.470	0.280
2020/01/31 02:32:16.4	92.370	0.500	-0.430	0.270
2020/01/31 02:32:16.5	92.370	0.490	-0.380	0.270
2020/01/31 02:32:16.6	92.370	0.470	-0.330	0.270
2020/01/31 02:32:16.7	92.370	0.450	-0.280	0.270
2020/01/31 02:32:16.8	92.360	0.420	-0.220	0.270
2020/01/31 02:32:16.9	92.350	0.390	-0.170	0.280
2020/01/31 02:32:17.0	92.340	0.360	-0.110	0.290
2020/01/31 02:32:17.1	92.330	0.320	-0.060	0.310
2020/01/31 02:32:17.2	92.310	0.280	-0.000	0.320
2020/01/31 02:32:17.3	92.300	0.250	0.050	0.340
2020/01/31 02:32:17.4	92.280	0.200	0.100	0.360
2020/01/31 02:32:17.5	92.270	0.160	0.140	0.370
2020/01/31 02:32:17.6	92.250	0.120	0.180	0.390
2020/01/31 02:32:17.7	92.240	0.070	0.220	0.410
2020/01/31 02:32:17.8	92.220	0.020	0.260	0.430
2020/01/31 02:32:17.9	92.210	-0.020	0.290	0.450
2020/01/31 02:32:18.0	92.200	-0.070	0.310	0.480
2020/01/31 02:32:18.1	92.190	-0.110	0.340	0.500
2020/01/31 02:32:18.2	92.170	-0.160	0.350	0.530
2020/01/31 02:32:18.3	92.160	-0.200	0.360	0.550
2020/01/31 02:32:18.4	92.160	-0.240	0.360	0.580
2020/01/31 02:32:18.5	92.150	-0.280	0.360	0.610
2020/01/31 02:32:18.6	92.140	-0.320	0.350	0.640
2020/01/31 02:32:18.7	92.140	-0.350	0.340	0.670
2020/01/31 02:32:18.8	92.130	-0.380	0.320	0.700
2020/01/31 02:32:18.9	92.130	-0.410	0.290	0.730
2020/01/31 02:32:19.0	92.130	-0.440	0.260	0.760
2020/01/31 02:32:19.1	92.130	-0.460	0.220	0.790
2020/01/31 02:32:19.2	92.130	-0.480	0.180	0.820
2020/01/31 02:32:19.3	92.130	-0.490	0.130	0.840
2020/01/31 02:32:19.4	92.140	-0.500	0.080	0.870
2020/01/31 02:32:19.5	92.140	-0.510	0.020	0.900
2020/01/31 02:32:19.6	92.150	-0.510	-0.040	0.920
2020/01/31 02:32:19.7	92.160	-0.510	-0.100	0.940
2020/01/31 02:32:19.8	92.170	-0.510	-0.170	0.960
2020/01/31 02:32:19.9	92.180	-0.500	-0.230	0.980
2020/01/31 02:32:20.0	92.190	-0.490	-0.300	1.000
2020/01/31 02:32:20.1	92.200	-0.480	-0.360	1.020
2020/01/31 02:32:20.2	92.220	-0.460	-0.430	1.040
2020/01/31 02:32:20.3	92.230	-0.450	-0.490	1.050
2020/01/31 02:32:20.4	92.240	-0.430	-0.540	1.060
2020/01/31 02:32:20.5	92.250	-0.410	-0.600	1.070
2020/01/31 02:32:20.6	92.250	-0.380	-0.650	1.080
2020/01/31 02:32:20.7	92.260	-0.360	-0.690	1.090
2020/01/31 02:32:20.8	92.260	-0.340	-0.730	1.100
2020/01/31 02:32:20.9	92.270	-0.320	-0.760	1.110
2020/01/31 02:32:21.0	92.270	-0.290	-0.790	1.120
2020/01/31 02:32:21.1	92.250	-0.270	-0.810	1.120
2020/01/31 02:32:21.2	92.250	-0.250	-0.820	1.130
2020/01/31 02:32:21.3	92.240	-0.230	-0.820	1.130
2020/01/31 02:32:21.4	92.230	-0.210	-0.820	1.130
2020/01/31 02:32:21.5	92.220	-0.190	-0.810	1.140
2020/01/31 02:32:21.6	92.210	-0.170	-0.800	1.140
2020/01/31 02:32:21.7	92.200	-0.160	-0.780	1.140
2020/01/31 02:32:21.8	92.180	-0.140	-0.750	1.140
2020/01/31 02:32:21.9	92.160	-0.130	-0.720	1.140
2020/01/31 02:32:22.0	92.150	-0.120	-0.680	1.150
2020/01/31 02:32:22.1	92.130	-0.110	-0.640	1.150
2020/01/31 02:32:22.2	92.110	-0.100	-0.600	1.150
2020/01/31 02:32:22.3	92.080	-0.090	-0.560	1.150
2020/01/31 02:32:22.4	92.060	-0.080	-0.520	1.150
2020/01/31 02:32:22.5	92.040	-0.070	-0.480	1.150
2020/01/31 02:32:22.6	92.020	-0.070	-0.440	1.150
2020/01/31 02:32:22.7	91.990	-0.060	-0.400	1.150
2020/01/31 02:32:22.8	91.970	-0.050	-0.360	1.150
2020/01/31 02:32:22.9	91.950	-0.050	-0.320	1.140
2020/01/31 02:32:23.0	91.930	-0.040	-0.290	1.140
2020/01/31 02:32:23.1	91.940	-0.030	-0.260	1.130
2020/01/31 02:32:23.2	91.920	-0.020	-0.230	1.130
2020/01/31 02:32:23.3	91.900	-0.020	-0.210	1.120
2020/01/31 02:32:23.4	91.890	-0.010	-0.180	1.110
2020/01/31 02:32:23.5	91.880	0.000	-0.170	1.100
2020/01/31 02:32:23.6	91.870	0.010	-0.150	1.090
2020/01/31 02:32:23.7	91.860	0.020	-0.140	1.080
2020/01/31 02:32:23.8	91.850	0.030	-0.130	1.060
2020/01/31 02:32:23.9	91.840	0.040	-0.120	1.050
2020/01/31 02:32:24.0	91.830	0.050	-0.110	1.030
2020/01/31 02:32:24.1	91.840	0.050	-0.100	1.020
2020/01/31 02:32:24.2	91.830	0.060	-0.100	0.990
2020/01/31 02:32:24.3	91.830	0.070	-0.090	0.970
2020/01/31 02:32:24.4	91.830	0.080	-0.090	0.940
2020/01/31 02:32:24.5	91.830	0.080	-0.080	0.910
2020/01/31 02:32:24.6	91.820	0.090	-0.080	0.870
2020/01/31 02:32:24.7	91.820	0.090	-0.080	0.840
2020/01/31 02:32:24.8	91.820	0.090	-0.070	0.800
2020/01/31 02:32:24.9	91.820	0.090	-0.070	0.760
2020/01/31 02:32:25.0	91.820	0.090	-0.060	0.710
2020/01/31 02:32:25.1	91.830	0.090	-0.060	0.660
2020/01/31 02:32:25.2	91.830	0.090	-0.050	0.610
2020/01/31 02:32:25.3	91.820	0.080	-0.050	0.560
2020/01/31 02:32:25.4	91.820	0.080	-0.040	0.510
2020/01/31 02:32:25.5	91.820	0.070	-0.040	0.460
2020/01/31 02:32:25.6	91.820	0.060	-0.030	0.410
2020/01/31 02:32:25.7	91.820	0.050	-0.030	0.360
2020/01/31 02:32:25.8	91.820	0.040	-0.030	0.310
2020/01/31 02:32:25.9	91.820	0.030	-0.030	0.260
2020/01/31 02:32:26.0	91.810	0.020	-0.030	0.220
2020/01/31 02:32:26.1	91.800	0.010	-0.030	0.180
2020/01/31 02:32:26.2	91.800	0.000	-0.030	0.140
2020/01/31 02:32:26.3	91.800	-0.000	-0.040	0.110
2020/01/31 02:32:26.4	91.790	-0.010	-0.040	0.070
2020/01/31 02:32:26.5	91.790	-0.010	-0.050	0.050
2020/01/31 02:32:26.6	91.790	-0.020	-0.060	0.020
2020/01/31 02:32:26.7	91.790	-0.020	-0.080	0.010
2020/01/31 02:32:26.8	91.780	-0.020	-0.090	-0.010
2020/01/31 02:32:26.9	91.780	-0.010	-0.110	-0.020
2020/01/31 02:32:27.0	91.780	-0.010	-0.130	-0.030
2020/01/31 02:32:27.1	91.780	-0.000	-0.150	-0.040
2020/01/31 02:32:27.2	91.780	0.010	-0.170	-0.040
2020/01/31 02:32:27.3	91.780	0.020	-0.190	-0.040
2020/01/31 02:32:27.4	91.790	0.040	-0.210	-0.030
2020/01/31 02:32:27.5	91.790	0.050	-0.240	-0.020
2020/01/31 02:32:27.6	91.800	0.070	-0.260	-0.010
2020/01/31 02:32:27.7	91.800	0.090	-0.290	0.010
2020/01/31 02:32:27.8	91.810	0.110	-0.310	0.030
2020/01/31 02:32:27.9	91.810	0.130	-0.340	0.050
2020/01/31 02:32:28.0	91.820	0.160	-0.360	0.080
2020/01/31 02:32:28.1	91.820	0.180	-0.390	0.100
2020/01/31 02:32:28.2	91.830	0.200	-0.410	0.130
2020/01/31 02:32:28.3	91.830	0.230	-0.430	0.160
2020/01/31 02:32:28.4	91.840	0.250	-0.450	0.180
2020/01/31 02:32:28.5	91.840	0.270	-0.460	0.210
2020/01/31 02:32:28.6	91.850	0.290	-0.480	0.240
2020/01/31 02:32:28.7	91.850	0.300	-0.490	0.280
2020/01/31 02:32:28.8	91.850	0.320	-0.500	0.310
2020/01/31 02:32:28.9	91.860	0.330	-0.510	0.340
2020/01/31 02:32:29.0	91.860	0.350	-0.520	0.370
2020/01/31 02:32:29.1	91.850	0.350	-0.520	0.410
2020/01/31 02:32:29.2	91.850	0.360	-0.520	0.440
2020/01/31 02:32:29.3	91.850	0.360	-0.510	0.470
2020/01/31 02:32:29.4	91.850	0.360	-0.500	0.500
2020/01/31 02:32:29.5	91.840	0.360	-0.490	0.530
2020/01/31 02:32:29.6	91.840	0.350	-0.480	0.560
2020/01/31 02:32:29.7	91.830	0.340	-0.460	0.590
2020/01/31 02:32:29.8	91.830	0.330	-0.430	0.620
2020/01/31 02:32:29.9	91.820	0.310	-0.410	0.650
2020/01/31 02:32:30.0	91.810	0.290	-0.380	0.680
2020/01/31 02:32:30.1	91.810	0.270	-0.340	0.710
2020/01/31 02:32:30.2	91.800	0.240	-0.300	0.730
2020/01/31 02:32:30.3	91.790	0.210	-0.260	0.760
2020/01/31 02:32:30.4	91.780	0.180	-0.210	0.790
2020/01/31 02:32:30.5	91.770	0.150	-0.160	0.810
2020/01/31 02:32:30.6	91.760	0.110	-0.100	0.840
2020/01/31 02:32:30.7	91.750	0.080	-0.050	0.870
2020/01/31 02:32:30.8	91.740	0.040	0.010	0.890
2020/01/31 02:32:30.9	91.740	-0.000	0.060	0.920
2020/01/31 02:32:31.0	91.730	-0.050	0.120	0.940
2020/01/31 02:32:31.1	91.720	-0.090	0.180	0.970
2020/01/31 02:32:31.2	91.710	-0.130	0.240	0.990
2020/01/31 02:32:31.3	91.700	-0.170	0.290	1.010
2020/01/31 02:32:31.4	91.700	-0.210	0.340	1.040
2020/01/31 02:32:31.5	91.690	-0.250	0.380	1.060
2020/01/31 02:32:31.6	91.690	-0.280	0.420	1.080
2020/01/31 02:32:31.7	91.690	-0.310	0.460	1.100
2020/01/31 02:32:31.8	91.690	-0.340	0.480	1.110
2020/01/31 02:32:31.9	91.690	-0.370	0.500	1.130
2020/01/31 02:32:32.0	91.690	-0.390	0.510	1.140
2020/01/31 02:32:32.1	91.700	-0.400	0.510	1.150
2020/01/31 02:32:32.2	91.700	-0.410	0.500	1.160
2020/01/31 02:32:32.3	91.710	-0.420	0.480	1.160
2020/01/31 02:32:32.4	91.720	-0.420	0.460	1.160
2020/01/31 02:32:32.5	91.740	-0.410	0.420	1.160
2020/01/31 02:32:32.6	91.750	-0.400	0.370	1.150
2020/01/31 02:32:32.7	91.770	-0.380	0.310	1.140
2020/01/31 02:32:32.8	91.790	-0.360	0.240	1.120
2020/01/31 02:32:32.9	91.810	-0.330	0.160	1.100
2020/01/31 02:32:33.0	91.840	-0.290	0.080	1.080
2020/01/31 02:32:33.1	91.870	-0.250	-0.010	1.060
2020/01/31 02:32:33.2	91.900	-0.210	-0.100	1.030
2020/01/31 02:32:33.3	91.930	-0.160	-0.200	1.000
2020/01/31 02:32:33.4	91.960	-0.110	-0.300	0.970
2020/01/31 02:32:33.5	91.980	-0.060	-0.400	0.940
2020/01/31 02:32:33.6	92.010	-0.010	-0.500	0.910
2020/01/31 02:32:33.7	92.030	0.040	-0.590	0.880
2020/01/31 02:32:33.8	92.050	0.100	-0.690	0.860
2020/01/31 02:32:33.9	92.070	0.150	-0.780	0.830
2020/01/31 02:32:34.0	92.080	0.200	-0.860	0.810
2020/01/31 02:32:34.1	92.070	0.250	-0.940	0.780
2020/01/31 02:32:34.2	92.080	0.300	-1.000	0.760
2020/01/31 02:32:34.3	92.080	0.340	-1.050	0.740
2020/01/31 02:32:34.4	92.080	0.380	-1.100	0.720
2020/01/31 02:32:34.5	92.080	0.410	-1.130	0.700
2020/01/31 02:32:34.6	92.070	0.440	-1.150	0.680
2020/01/31 02:32:34.7	92.060	0.470	-1.160	0.670
2020/01/31 02:32:34.8	92.050	0.490	-1.150	0.650
2020/01/31 02:32:34.9	92.040	0.500	-1.140	0.640
2020/01/31 02:32:35.0	92.030	0.510	-1.110	0.630
2020/01/31 02:32:35.1	92.000	0.510	-1.070	0.630
2020/01/31 02:32:35.2	91.980	0.510	-1.010	0.620
2020/01/31 02:32:35.3	91.960	0.500	-0.950	0.620
2020/01/31 02:32:35.4	91.940	0.490	-0.880	0.620
2020/01/31 02:32:35.5	91.910	0.470	-0.800	0.630
2020/01/31 02:32:35.6	91.890	0.440	-0.710	0.630
2020/01/31 02:32:35.7	91.860	0.410	-0.620	0.640
2020/01/31 02:32:35.8	91.840	0.380	-0.520	0.650
2020/01/31 02:32:35.9	91.810	0.340	-0.420	0.660
2020/01/31 02:32:36.0	91.790	0.300	-0.310	0.670
2020/01/31 02:32:36.1	91.770	0.260	-0.210	0.680
2020/01/31 02:32:36.2	91.740	0.210	-0.110	0.690
2020/01/31 02:32:36.3	91.720	0.160	-0.010	0.700
2020/01/31 02:32:36.4	91.700	0.120	0.090	0.710
2020/01/31 02:32:36.5	91.680	0.070	0.180	0.720
2020/01/31 02:32:36.6	91.660	0.020	0.270	0.730
2020/01/31 02:32:36.7	91.640	-0.020	0.340	0.740
2020/01/31 02:32:36.8	91.620	-0.070	0.410	0.740
2020/01/31 02:32:36.9	91.610	-0.110	0.470	0.750
2020/01/31 02:32:37.0	91.590	-0.150	0.520	0.750
2020/01/31 02:32:37.1	91.580	-0.190	0.570	0.750
2020/01/31 02:32:37.2	91.570	-0.220	0.600	0.750
2020/01/31 02:32:37.3	91.560	-0.260	0.620	0.750
2020/01/31 02:32:37.4	91.560	-0.280	0.620	0.750
2020/01/31 02:32:37.5	91.550	-0.310	0.620	0.740
2020/01/31 02:32:37.6	91.550	-0.330	0.610	0.730
2020/01/31 02:32:37.7	91.560	-0.340	0.590	0.720
2020/01/31 02:32:37.8	91.560	-0.360	0.570	0.710
2020/01/31 02:32:37.9	91.570	-0.370	0.530	0.700
2020/01/31 02:32:38.0	91.570	-0.370	0.490	0.680
2020/01/31 02:32:38.1	91.590	-0.380	0.430	0.670
2020/01/31 02:32:38.2	91.600	-0.380	0.380	0.650
2020/01/31 02:32:38.3	91.610	-0.370	0.320	0.630
2020/01/31 02:32:38.4	91.630	-0.370	0.260	0.610
2020/01/31 02:32:38.5	91.640	-0.360	0.190	0.590
2020/01/31 02:32:38.6	91.660	-0.350	0.130	0.570
2020/01/31 02:32:38.7	91.680	-0.340	0.060	0.550
2020/01/31 02:32:38.8	91.700	-0.330	-0.010	0.530
2020/01/31 02:32:38.9	91.720	-0.310	-0.080	0.520
2020/01/31 02:32:39.0	91.740	-0.300	-0.140	0.500
2020/01/31 02:32:39.1	91.770	-0.280	-0.200	0.490
2020/01/31 02:32:39.2	91.790	-0.260	-0.270	0.490
2020/01/31 02:32:39.3	91.810	-0.250	-0.330	0.480
2020/01/31 02:32:39.4	91.820	-0.230	-0.380	0.480
2020/01/31 02:32:39.5	91.840	-0.210	-0.430	0.480
2020/01/31 02:32:39.6	91.850	-0.200	-0.480	0.480
2020/01/31 02:32:39.7	91.870	-0.180	-0.520	0.490
2020/01/31 02:32:39.8	91.880	-0.160	-0.560	0.500
2020/01/31 02:32:39.9	91.890	-0.150	-0.590	0.510
2020/01/31 02:32:40.0	91.900	-0.140	-0.620	0.530
2020/01/31 02:32:40.1	91.910	-0.130	-0.640	0.550
2020/01/31 02:32:40.2	91.910	-0.120	-0.660	0.570
2020/01/31 02:32:40.3	91.920	-0.110	-0.670	0.600
2020/01/31 02:32:40.4	91.920	-0.100	-0.670	0.620
2020/01/31 02:32:40.5	91.920	-0.100	-0.670	0.650
2020/01/31 02:32:40.6	91.920	-0.090	-0.670	0.670
2020/01/31 02:32:40.7	91.910	-0.090	-0.660	0.700
2020/01/31 02:32:40.8	91.910	-0.100	-0.650	0.720
2020/01/31 02:32:40.9	91.900	-0.100	-0.630	0.740
2020/01/31 02:32:41.0	91.890	-0.100	-0.610	0.770
2020/01/31 02:32:41.1	91.880	-0.110	-0.590	0.790
2020/01/31 02:32:41.2	91.860	-0.120	-0.560	0.810
2020/01/31 02:32:41.3	91.850	-0.130	-0.530	0.830
2020/01/31 02:32:41.4	91.840	-0.140	-0.500	0.850
2020/01/31 02:32:41.5	91.820	-0.150	-0.470	0.860
2020/01/31 02:32:41.6	91.810	-0.160	-0.440	0.880
2020/01/31 02:32:41.7	91.790	-0.180	-0.410	0.890
2020/01/31 02:32:41.8	91.780	-0.190	-0.380	0.900
2020/01/31 02:32:41.9	91.760	-0.200	-0.350	0.910
2020/01/31 02:32:42.0	91.750	-0.210	-0.320	0.920
2020/01/31 02:32:42.1	91.720	-0.220	-0.280	0.930
2020/01/31 02:32:42.2	91.710	-0.220	-0.260	0.930
2020/01/31 02:32:42.3	91.690	-0.230	-0.230	0.940
2020/01/31 02:32:42.4	91.680	-0.230	-0.210	0.940
2020/01/31 02:32:42.5	91.670	-0.240	-0.190	0.950
2020/01/31 02:32:42.6	91.660	-0.230	-0.170	0.950
2020/01/31 02:32:42.7	91.640	-0.230	-0.160	0.960
2020/01/31 02:32:42.8	91.630	-0.230	-0.150	0.960
2020/01/31 02:32:42.9	91.630	-0.220	-0.140	0.960
2020/01/31 02:32:43.0	91.620	-0.210	-0.130	0.960
2020/01/31 02:32:43.1	91.630	-0.190	-0.130	0.950
2020/01/31 02:32:43.2	91.620	-0.170	-0.130	0.950
2020/01/31 02:32:43.3	91.620	-0.160	-0.130	0.940
2020/01/31 02:32:43.4	91.620	-0.130	-0.140	0.920
2020/01/31 02:32:43.5	91.620	-0.110	-0.150	0.900
2020/01/31 02:32:43.6	91.630	-0.080	-0.160	0.880
2020/01/31 02:32:43.7	91.630	-0.050	-0.180	0.860
2020/01/31 02:32:43.8	91.640	-0.020	-0.200	0.830
2020/01/31 02:32:43.9	91.650	0.010	-0.220	0.800
2020/01/31 02:32:44.0	91.660	0.040	-0.240	0.760
2020/01/31 02:32:44.1	91.670	0.080	-0.260	0.730
2020/01/31 02:32:44.2	91.680	0.120	-0.280	0.690
2020/01/31 02:32:44.3	91.690	0.150	-0.310	0.650
2020/01/31 02:32:44.4	91.700	0.190	-0.330	0.610
2020/01/31 02:32:44.5	91.710	0.220	-0.360	0.580
2020/01/31 02:32:44.6	91.720	0.260	-0.380	0.540
2020/01/31 02:32:44.7	91.730	0.300	-0.400	0.500
2020/01/31 02:32:44.8	91.740	0.330	-0.420	0.470
2020/01/31 02:32:44.9	91.740	0.360	-0.430	0.440
2020/01/31 02:32:45.0	91.750	0.390	-0.440	0.410
2020/01/31 02:32:45.1	91.750	0.410	-0.450	0.380
2020/01/31 02:32:45.2	91.750	0.440	-0.450	0.360
2020/01/31 02:32:45.3	91.750	0.460	-0.450	0.340
2020/01/31 02:32:45.4	91.750	0.470	-0.440	0.310
2020/01/31 02:32:45.5	91.750	0.490	-0.430	0.300
2020/01/31 02:32:45.6	91.750	0.490	-0.410	0.280
2020/01/31 02:32:45.7	91.750	0.500	-0.390	0.260
2020/01/31 02:32:45.8	91.750	0.500	-0.360	0.250
2020/01/31 02:32:45.9	91.750	0.500	-0.330	0.240
2020/01/31 02:32:46.0	91.750	0.490	-0.300	0.230
2020/01/31 02:32:46.1	91.760	0.480	-0.260	0.230
2020/01/31 02:32:46.2	91.760	0.460	-0.220	0.230
2020/01/31 02:32:46.3	91.760	0.440	-0.180	0.230
2020/01/31 02:32:46.4	91.760	0.420	-0.140	0.230
2020/01/31 02:32:46.5	91.760	0.400	-0.100	0.230
2020/01/31 02:32:46.6	91.760	0.370	-0.050	0.240
2020/01/31 02:32:46.7	91.760	0.350	-0.010	0.250
2020/01/31 02:32:46.8	91.770	0.320	0.030	0.260
2020/01/31 02:32:46.9	91.770	0.280	0.070	0.270
2020/01/31 02:32:47.0	91.770	0.250	0.110	0.280
2020/01/31 02:32:47.1	91.770	0.220	0.150	0.300
2020/01/31 02:32:47.2	91.780	0.190	0.180	0.320
2020/01/31 02:32:47.3	91.780	0.160	0.200	0.340
2020/01/31 02:32:47.4	91.780	0.130	0.230	0.360
2020/01/31 02:32:47.5	91.780	0.100	0.250	0.380
2020/01/31 02:32:47.6	91.780	0.070	0.260	0.400
2020/01/31 02:32:47.7	91.780	0.050	0.270	0.420
2020/01/31 02:32:47.8	91.780	0.030	0.280	0.440
2020/01/31 02:32:47.9	91.780	0.010	0.280	0.470
2020/01/31 02:32:48.0	91.770	-0.010	0.270	0.490
2020/01/31 02:32:48.1	91.780	-0.030	0.260	0.510
2020/01/31 02:32:48.2	91.770	-0.040	0.240	0.530
2020/01/31 02:32:48.3	91.770	-0.050	0.220	0.550
2020/01/31 02:32:48.4	91.760	-0.050	0.200	0.570
2020/01/31 02:32:48.5	91.750	-0.060	0.180	0.580
2020/01/31 02:32:48.6	91.750	-0.060	0.150	0.600
2020/01/31 02:32:48.7	91.740	-0.060	0.110	0.610
2020/01/31 02:32:48.8	91.730	-0.050	0.080	0.630
2020/01/31 02:32:48.9	91.720	-0.040	0.040	0.650
2020/01/31 02:32:49.0	91.700	-0.030	0.000	0.660
2020/01/31 02:32:49.1	91.690	-0.020	-0.040	0.680
2020/01/31 02:32:49.2	91.680	-0.010	-0.080	0.700
2020/01/31 02:32:49.3	91.670	0.010	-0.120	0.710
2020/01/31 02:32:49.4	91.650	0.020	-0.160	0.730
2020/01/31 02:32:49.5	91.640	0.040	-0.210	0.750
2020/01/31 02:32:49.6	91.630	0.060	-0.250	0.770
2020/01/31 02:32:49.7	91.620	0.080	-0.290	0.790
2020/01/31 02:32:49.8	91.610	0.090	-0.330	0.810
2020/01/31 02:32:49.9	91.600	0.110	-0.370	0.830
2020/01/31 02:32:50.0	91.590	0.130	-0.410	0.860
2020/01/31 02:32:50.1	91.570	0.140	-0.450	0.880
2020/01/31 02:32:50.2	91.570	0.150	-0.480	0.900
2020/01/31 02:32:50.3	91.570	0.170	-0.510	0.920
2020/01/31 02:32:50.4	91.570	0.180	-0.540	0.940
2020/01/31 02:32:50.5	91.570	0.180	-0.570	0.960
2020/01/31 02:32:50.6	91.580	0.190	-0.590	0.980
2020/01/31 02:32:50.7	91.580	0.190	-0.610	0.990
2020/01/31 02:32:50.8	91.590	0.190	-0.630	1.010
2020/01/31 02:32:50.9	91.600	0.190	-0.640	1.020
2020/01/31 02:32:51.0	91.620	0.180	-0.650	1.030
2020/01/31 02:32:51.1	91.650	0.180	-0.660	1.040
2020/01/31 02:32:51.2	91.660	0.170	-0.660	1.040
2020/01/31 02:32:51.3	91.680	0.150	-0.660	1.050
2020/01/31 02:32:51.4	91.700	0.140	-0.660	1.050
2020/01/31 02:32:51.5	91.710	0.120	-0.660	1.050
2020/01/31 02:32:51.6	91.730	0.100	-0.650	1.050
2020/01/31 02:32:51.7	91.750	0.080	-0.630	1.050
2020/01/31 02:32:51.8	91.770	0.060	-0.610	1.050
2020/01/31 02:32:51.9	91.780	0.040	-0.590	1.040
2020/01/31 02:32:52.0	91.800	0.010	-0.570	1.040
2020/01/31 02:32:52.1	91.810	-0.020	-0.540	1.040
2020/01/31 02:32:52.2	91.830	-0.050	-0.500	1.030
2020/01/31 02:32:52.3	91.840	-0.080	-0.460	1.030
2020/01/31 02:32:52.4	91.860	-0.110	-0.420	1.030
2020/01/31 02:32:52.5	91.870	-0.140	-0.370	1.020
2020/01/31 02:32:52.6	91.890	-0.170	-0.320	1.020
2020/01/31 02:32:52.7	91.900	-0.210	-0.260	1.020
2020/01/31 02:32:52.8	91.910	-0.240	-0.200	1.020
2020/01/31 02:32:52.9	91.920	-0.280	-0.140	1.020
2020/01/31 02:32:53.0	91.930	-0.310	-0.080	1.020
2020/01/31 02:32:53.1	91.940	-0.340	-0.020	1.030
2020/01/31 02:32:53.2	91.950	-0.380	0.050	1.030
2020/01/31 02:32:53.3	91.960	-0.410	0.110	1.040
2020/01/31 02:32:53.4	91.970	-0.440	0.170	1.040
2020/01/31 02:32:53.5	91.980	-0.470	0.220	1.040
2020/01/31 02:32:53.6	91.980	-0.500	0.280	1.050
2020/01/31 02:32:53.7	91.980	-0.530	0.330	1.050
2020/01/31 02:32:53.8	91.990	-0.560	0.370	1.050
2020/01/31 02:32:53.9	91.990	-0.580	0.410	1.060
2020/01/31 02:32:54.0	91.990	-0.600	0.440	1.060
2020/01/31 02:32:54.1	92.000	-0.610	0.470	1.050
2020/01/31 02:32:54.2	92.000	-0.620	0.490	1.050
2020/01/31 02:32:54.3	92.000	-0.630	0.500	1.050
2020/01/31 02:32:54.4	92.000	-0.630	0.500	1.040
2020/01/31 02:32:54.5	92.000	-0.630	0.490	1.030
2020/01/31 02:32:54.6	92.000	-0.630	0.470	1.020
2020/01/31 02:32:54.7	91.990	-0.620	0.450	1.010
2020/01/31 02:32:54.8	91.990	-0.600	0.420	0.990
2020/01/31 02:32:54.9	91.990	-0.580	0.380	0.970
2020/01/31 02:32:55.0	91.990	-0.560	0.330	0.950
2020/01/31 02:32:55.1	91.990	-0.530	0.280	0.930
2020/01/31 02:32:55.2	91.980	-0.500	0.220	0.900
2020/01/31 02:32:55.3	91.980	-0.460	0.150	0.870
2020/01/31 02:32:55.4	91.980	-0.420	0.080	0.840
2020/01/31 02:32:55.5	91.980	-0.380	0.010	0.810
2020/01/31 02:32:55.6	91.980	-0.340	-0.060	0.780
2020/01/31 02:32:55.7	91.980	-0.290	-0.140	0.740
2020/01/31 02:32:55.8	91.970	-0.240	-0.210	0.710
2020/01/31 02:32:55.9	91.970	-0.180	-0.290	0.670
2020/01/31 02:32:56.0	91.970	-0.130	-0.370	0.630
2020/01/31 02:32:56.1	91.970	-0.070	-0.440	0.590
2020/01/31 02:32:56.2	91.970	-0.020	-0.510	0.550
2020/01/31 02:32:56.3	91.970	0.040	-0.580	0.520
2020/01/31 02:32:56.4	91.970	0.090	-0.640	0.480
2020/01/31 02:32:56.5	91.980	0.150	-0.700	0.440
2020/01/31 02:32:56.6	91.980	0.200	-0.760	0.400
2020/01/31 02:32:56.7	91.980	0.250	-0.810	0.360
2020/01/31 02:32:56.8	91.990	0.300	-0.850	0.320
2020/01/31 02:32:56.9	91.990	0.350	-0.890	0.280
2020/01/31 02:32:57.0	92.000	0.400	-0.920	0.240
2020/01/31 02:32:57.1	92.000	0.440	-0.940	0.200
2020/01/31 02:32:57.2	92.010	0.480	-0.970	0.160
2020/01/31 02:32:57.3	92.010	0.510	-0.980	0.130
2020/01/31 02:32:57.4	92.020	0.550	-0.990	0.090
2020/01/31 02:32:57.5	92.020	0.580	-0.990	0.050
2020/01/31 02:32:57.6	92.030	0.600	-0.990	0.020
2020/01/31 02:32:57.7	92.040	0.620	-0.980	-0.010
2020/01/31 02:32:57.8	92.050	0.640	-0.970	-0.040
2020/01/31 02:32:57.9	92.060	0.650	-0.950	-0.070
2020/01/31 02:32:58.0	92.070	0.660	-0.930	-0.100
2020/01/31 02:32:58.1	92.080	0.670	-0.910	-0.130
2020/01/31 02:32:58.2	92.090	0.670	-0.880	-0.150
2020/01/31 02:32:58.3	92.100	0.660	-0.840	-0.170
2020/01/31 02:32:58.4	92.120	0.650	-0.800	-0.190
2020/01/31 02:32:58.5	92.130	0.640	-0.760	-0.200
2020/01/31 02:32:58.6	92.150	0.630	-0.710	-0.210
2020/01/31 02:32:58.7	92.170	0.610	-0.660	-0.220
2020/01/31 02:32:58.8	92.180	0.580	-0.610	-0.220
2020/01/31 02:32:58.9	92.200	0.560	-0.560	-0.220
2020/01/31 02:32:59.0	92.220	0.530	-0.500	-0.220
2020/01/31 02:32:59.1	92.230	0.490	-0.440	-0.210
2020/01/31 02:32:59.2	92.240	0.450	-0.380	-0.190
2020/01/31 02:32:59.3	92.250	0.420	-0.320	-0.180
2020/01/31 02:32:59.4	92.260	0.370	-0.260	-0.150
2020/01/31 02:32:59.5	92.270	0.330	-0.190	-0.130
2020/01/31 02:32:59.6	92.280	0.280	-0.130	-0.100
2020/01/31 02:32:59.7	92.290	0.240	-0.070	-0.070
2020/01/31 02:32:59.8	92.290	0.190	-0.010	-0.030
2020/01/31 02:32:59.9	92.290	0.140	0.050	0.010
2020/01/31 02:33:00.0	92.300	0.090	0.110	0.050
2020/01/31 02:33:00.1	92.310	0.040	0.160	0.100
2020/01/31 02:33:00.2	92.310	-0.010	0.210	0.140
2020/01/31 02:33:00.3	92.300	-0.060	0.260	0.190
2020/01/31 02:33:00.4	92.300	-0.110	0.310	0.240
2020/01/31 02:33:00.5	92.290	-0.160	0.360	0.290
2020/01/31 02:33:00.6	92.280	-0.210	0.390	0.330
2020/01/31 02:33:00.7	92.270	-0.250	0.430	0.380
2020/01/31 02:33:00.8	92.260	-0.290	0.460	0.430
2020/01/31 02:33:00.9	92.250	-0.330	0.490	0.470
2020/01/31 02:33:01.0	92.240	-0.370	0.510	0.520
2020/01/31 02:33:01.1	92.220	-0.400	0.530	0.560
2020/01/31 02:33:01.2	92.210	-0.430	0.540	0.610
2020/01/31 02:33:01.3	92.200	-0.460	0.540	0.650
2020/01/31 02:33:01.4	92.190	-0.490	0.540	0.680
2020/01/31 02:33:01.5	92.190	-0.500	0.530	0.720
2020/01/31 02:33:01.6	92.180	-0.520	0.520	0.750
2020/01/31 02:33:01.7	92.170	-0.530	0.500	0.790
2020/01/31 02:33:01.8	92.170	-0.540	0.480	0.820
2020/01/31 02:33:01.9	92.160	-0.550	0.450	0.860
2020/01/31 02:33:02.0	92.160	-0.550	0.420	0.890
2020/01/31 02:33:02.1	92.160	-0.550	0.380	0.930
2020/01/31 02:33:02.2	92.150	-0.540	0.340	0.960
2020/01/31 02:33:02.3	92.140	-0.530	0.300	1.000
2020/01/31 02:33:02.4	92.140	-0.520	0.250	1.030
2020/01/31 02:33:02.5	92.130	-0.500	0.200	1.060
2020/01/31 02:33:02.6	92.120	-0.490	0.150	1.100
2020/01/31 02:33:02.7	92.110	-0.460	0.100	1.130
2020/01/31 02:33:02.8	92.110	-0.440	0.040	1.160
2020/01/31 02:33:02.9	92.100	-0.420	-0.020	1.180
2020/01/31 02:33:03.0	92.090	-0.390	-0.080	1.200
2020/01/31 02:33:03.1	92.070	-0.360	-0.140	1.220
2020/01/31 02:33:03.2	92.070	-0.330	-0.210	1.230
2020/01/31 02:33:03.3	92.070	-0.300	-0.270	1.240
2020/01/31 02:33:03.4	92.060	-0.260	-0.330	1.250
2020/01/31 02:33:03.5	92.060	-0.230	-0.390	1.240
2020/01/31 02:33:03.6	92.060	-0.190	-0.450	1.240
2020/01/31 02:33:03.7	92.070	-0.150	-0.520	1.230
2020/01/31 02:33:03.8	92.070	-0.110	-0.580	1.210
2020/01/31 02:33:03.9	92.070	-0.070	-0.630	1.190
2020/01/31 02:33:04.0	92.080	-0.040	-0.690	1.170
2020/01/31 02:33:04.1	92.070	0.000	-0.740	1.150
2020/01/31 02:33:04.2	92.080	0.040	-0.790	1.120
2020/01/31 02:33:04.3	92.090	0.080	-0.840	1.090
2020/01/31 02:33:04.4	92.090	0.120	-0.880	1.060
2020/01/31 02:33:04.5	92.100	0.150	-0.910	1.030
2020/01/31 02:33:04.6	92.110	0.180	-0.940	0.990
2020/01/31 02:33:04.7	92.120	0.220	-0.960	0.960
2020/01/31 02:33:04.8	92.130	0.250	-0.980	0.930
2020/01/31 02:33:04.9	92.140	0.270	-0.990	0.900
2020/01/31 02:33:05.0	92.150	0.300	-0.990	0.860
2020/01/31 02:33:05.1	92.160	0.320	-0.990	0.830
2020/01/31 02:33:05.2	92.170	0.340	-0.980	0.800
2020/01/31 02:33:05.3	92.180	0.360	-0.950	0.780
2020/01/31 02:33:05.4	92.190	0.370	-0.930	0.750
2020/01/31 02:33:05.5	92.200	0.380	-0.890	0.730
2020/01/31 02:33:05.6	92.210	0.380	-0.850	0.700
2020/01/31 02:33:05.7	92.220	0.390	-0.800	0.680
2020/01/31 02:33:05.8	92.230	0.380	-0.750	0.660
2020/01/31 02:33:05.9	92.230	0.380	-0.690	0.640
2020/01/31 02:33:06.0	92.240	0.370	-0.620	0.620
2020/01/31 02:33:06.1	92.240	0.360	-0.550	0.600
2020/01/31 02:33:06.2	92.240	0.350	-0.470	0.580
2020/01/31 02:33:06.3	92.250	0.330	-0.400	0.560
2020/01/31 02:33:06.4	92.250	0.310	-0.320	0.540
2020/01/31 02:33:06.5	92.250	0.290	-0.230	0.520
2020/01/31 02:33:06.6	92.260	0.270	-0.150	0.510
2020/01/31 02:33:06.7	92.250	0.240	-0.070	0.490
2020/01/31 02:33:06.8	92.250	0.210	0.020	0.470
2020/01/31 02:33:06.9	92.250	0.180	0.100	0.450
2020/01/31 02:33:07.0	92.250	0.150	0.180	0.430
2020/01/31 02:33:07.1	92.260	0.120	0.260	0.410
2020/01/31 02:33:07.2	92.250	0.090	0.330	0.390
2020/01/31 02:33:07.3	92.240	0.050	0.400	0.380
2020/01/31 02:33:07.4	92.230	0.020	0.470	0.360
2020/01/31 02:33:07.5	92.220	-0.010	0.530	0.350
2020/01/31 02:33:07.6	92.210	-0.040	0.580	0.340
2020/01/31 02:33:07.7	92.200	-0.070	0.630	0.330
2020/01/31 02:33:07.8	92.190	-0.100	0.670	0.320
2020/01/31 02:33:07.9	92.170	-0.130	0.700	0.320
2020/01/31 02:33:08.0	92.160	-0.150	0.730	0.310
2020/01/31 02:33:08.1	92.150	-0.170	0.740	0.320
2020/01/31 02:33:08.2	92.140	-0.190	0.750	0.320
2020/01/31 02:33:08.3	92.120	-0.210	0.750	0.320
2020/01/31 02:33:08.4	92.110	-0.230	0.740	0.320
2020/01/31 02:33:08.5	92.100	-0.240	0.730	0.330
2020/01/31 02:33:08.6	92.090	-0.250	0.700	0.330
2020/01/31 02:33:08.7	92.090	-0.260	0.660	0.340
2020/01/31 02:33:08.8	92.080	-0.260	0.620	0.350
2020/01/31 02:33:08.9	92.070	-0.260	0.570	0.350
2020/01/31 02:33:09.0	92.070	-0.260	0.510	0.360
2020/01/31 02:33:09.1	92.070	-0.250	0.440	0.370
2020/01/31 02:33:09.2	92.070	-0.240	0.370	0.370
2020/01/31 02:33:09.3	92.060	-0.230	0.280	0.380
2020/01/31 02:33:09.4	92.060	-0.210	0.200	0.380
2020/01/31 02:33:09.5	92.060	-0.200	0.110	0.390
2020/01/31 02:33:09.6	92.060	-0.180	0.010	0.390
2020/01/31 02:33:09.7	92.060	-0.150	-0.090	0.400
2020/01/31 02:33:09.8	92.060	-0.130	-0.190	0.400
2020/01/31 02:33:09.9	92.060	-0.100	-0.300	0.410
2020/01/31 02:33:10.0	92.060	-0.070	-0.410	0.410
2020/01/31 02:33:10.1	92.070	-0.040	-0.520	0.420
2020/01/31 02:33:10.2	92.070	-0.010	-0.620	0.420
2020/01/31 02:33:10.3	92.070	0.020	-0.730	0.430
2020/01/31 02:33:10.4	92.070	0.060	-0.830	0.440
2020/01/31 02:33:10.5	92.070	0.090	-0.930	0.450
2020/01/31 02:33:10.6	92.070	0.130	-1.020	0.460
2020/01/31 02:33:10.7	92.080	0.160	-1.100	0.470
2020/01/31 02:33:10.8	92.080	0.190	-1.180	0.480
2020/01/31 02:33:10.9	92.090	0.230	-1.250	0.500
2020/01/31 02:33:11.0	92.100	0.260	-1.310	0.510
2020/01/31 02:33:11.1	92.100	0.280	-1.370	0.530
2020/01/31 02:33:11.2	92.110	0.310	-1.410	0.550
2020/01/31 02:33:11.3	92.120	0.330	-1.440	0.580
2020/01/31 02:33:11.4	92.130	0.350	-1.450	0.600
2020/01/31 02:33:11.5	92.140	0.370	-1.460	0.630
2020/01/31 02:33:11.6	92.160	0.380	-1.450	0.660
2020/01/31 02:33:11.7	92.170	0.390	-1.430	0.690
2020/01/31 02:33:11.8	92.180	0.390	-1.390	0.730
2020/01/31 02:33:11.9	92.190	0.390	-1.350	0.760
2020/01/31 02:33:12.0	92.200	0.390	-1.290	0.790
2020/01/31 02:33:12.1	92.190	0.380	-1.210	0.830
2020/01/31 02:33:12.2	92.200	0.360	-1.130	0.860
2020/01/31 02:33:12.3	92.210	0.340	-1.040	0.890
2020/01/31 02:33:12.4	92.220	0.320	-0.950	0.930
2020/01/31 02:33:12.5	92.220	0.290	-0.840	0.960
2020/01/31 02:33:12.6	92.220	0.260	-0.730	0.990
2020/01/31 02:33:12.7	92.230	0.230	-0.610	1.020
2020/01/31 02:33:12.8	92.220	0.190	-0.490	1.050
2020/01/31 02:33:12.9	92.220	0.160	-0.370	1.080
2020/01/31 02:33:13.0	92.210	0.110	-0.250	1.110
2020/01/31 02:33:13.1	92.220	0.070	-0.120	1.140
2020/01/31 02:33:13.2	92.210	0.030	-0.000	1.170
2020/01/31 02:33:13.3	92.200	-0.010	0.120	1.190
2020/01/31 02:33:13.4	92.180	-0.060	0.230	1.220
2020/01/31 02:33:13.5	92.160	-0.100	0.340	1.240
2020/01/31 02:33:13.6	92.140	-0.140	0.440	1.260
2020/01/31 02:33:13.7	92.110	-0.180	0.530	1.280
2020/01/31 02:33:13.8	92.080	-0.220	0.610	1.300
2020/01/31 02:33:13.9	92.060	-0.250	0.690	1.310
2020/01/31 02:33:14.0	92.030	-0.290	0.750	1.320
2020/01/31 02:33:14.1	92.010	-0.310	0.810	1.340
2020/01/31 02:33:14.2	91.980	-0.340	0.840	1.340
2020/01/31 02:33:14.3	91.950	-0.360	0.870	1.350
2020/01/31 02:33:14.4	91.920	-0.380	0.880	1.350
2020/01/31 02:33:14.5	91.880	-0.390	0.880	1.340
2020/01/31 02:33:14.6	91.850	-0.390	0.870	1.340
2020/01/31 02:33:14.7	91.820	-0.400	0.850	1.330
2020/01/31 02:33:14.8	91.790	-0.400	0.810	1.310
2020/01/31 02:33:14.9	91.770	-0.390	0.770	1.300
2020/01/31 02:33:15.0	91.740	-0.380	0.710	1.280
2020/01/31 02:33:15.1	91.710	-0.370	0.640	1.250
2020/01/31 02:33:15.2	91.700	-0.350	0.570	1.230
2020/01/31 02:33:15.3	91.680	-0.330	0.500	1.200
2020/01/31 02:33:15.4	91.670	-0.310	0.420	1.170
2020/01/31 02:33:15.5	91.660	-0.290	0.340	1.130
2020/01/31 02:33:15.6	91.660	-0.270	0.250	1.090
2020/01/31 02:33:15.7	91.650	-0.240	0.170	1.050
2020/01/31 02:33:15.8	91.660	-0.220	0.080	1.010
2020/01/31 02:33:15.9	91.670	-0.200	-0.010	0.960
2020/01/31 02:33:16.0	91.680	-0.170	-0.090	0.910
2020/01/31 02:33:16.1	91.700	-0.150	-0.170	0.860
2020/01/31 02:33:16.2	91.720	-0.120	-0.250	0.810
2020/01/31 02:33:16.3	91.740	-0.100	-0.320	0.760
2020/01/31 02:33:16.4	91.760	-0.080	-0.400	0.700
2020/01/31 02:33:16.5	91.790	-0.060	-0.460	0.640
2020/01/31 02:33:16.6	91.820	-0.050	-0.530	0.590
2020/01/31 02:33:16.7	91.860	-0.030	-0.580	0.530
2020/01/31 02:33:16.8	91.890	-0.020	-0.630	0.470
2020/01/31 02:33:16.9	91.930	-0.010	-0.670	0.420
2020/01/31 02:33:17.0	91.970	0.000	-0.710	0.370
2020/01/31 02:33:17.1	92.000	0.010	-0.740	0.310
2020/01/31 02:33:17.2	92.040	0.010	-0.760	0.270
2020/01/31 02:33:17.3	92.080	0.010	-0.770	0.220
2020/01/31 02:33:17.4	92.120	0.010	-0.780	0.180
2020/01/31 02:33:17.5	92.160	0.010	-0.770	0.150
2020/01/31 02:33:17.6	92.200	0.000	-0.760	0.110
2020/01/31 02:33:17.7	92.240	-0.010	-0.740	0.090
2020/01/31 02:33:17.8	92.280	-0.010	-0.710	0.070
2020/01/31 02:33:17.9	92.310	-0.030	-0.670	0.050
2020/01/31 02:33:18.0	92.350	-0.040	-0.630	0.040
2020/01/31 02:33:18.1	92.380	-0.050	-0.580	0.040
2020/01/31 02:33:18.2	92.400	-0.070	-0.530	0.040
2020/01/31 02:33:18.3	92.430	-0.080	-0.480	0.040
2020/01/31 02:33:18.4	92.460	-0.100	-0.420	0.050
2020/01/31 02:33:18.5	92.480	-0.110	-0.360	0.070
2020/01/31 02:33:18.6	92.490	-0.130	-0.310	0.090
2020/01/31 02:33:18.7	92.510	-0.150	-0.250	0.110
2020/01/31 02:33:18.8	92.520	-0.160	-0.200	0.140
2020/01/31 02:33:18.9	92.530	-0.170	-0.150	0.170
2020/01/31 02:33:19.0	92.540	-0.180	-0.100	0.210
2020/01/31 02:33:19.1	92.570	-0.190	-0.060	0.250
2020/01/31 02:33:19.2	92.570	-0.200	-0.020	0.290
2020/01/31 02:33:19.3	92.570	-0.210	0.010	0.330
2020/01/31 02:33:19.4	92.570	-0.210	0.030	0.370
2020/01/31 02:33:19.5	92.570	-0.210	0.050	0.410
2020/01/31 02:33:19.6	92.570	-0.210	0.060	0.460
2020/01/31 02:33:19.7	92.570	-0.200	0.060	0.500
2020/01/31 02:33:19.8	92.560	-0.190	0.050	0.540
2020/01/31 02:33:19.9	92.560	-0.170	0.040	0.580
2020/01/31 02:33:20.0	92.560	-0.160	0.020	0.610
2020/01/31 02:33:20.1	92.540	-0.140	-0.010	0.650
2020/01/31 02:33:20.2	92.540	-0.110	-0.040	0.680
2020/01/31 02:33:20.3	92.530	-0.090	-0.070	0.700
2020/01/31 02:33:20.4	92.530	-0.060	-0.110	0.720
2020/01/31 02:33:20.5	92.520	-0.030	-0.160	0.740
2020/01/31 02:33:20.6	92.520	0.000	-0.200	0.760
2020/01/31 02:33:20.7	92.510	0.030	-0.250	0.770
2020/01/31 02:33:20.8	92.510	0.070	-0.290	0.780
2020/01/31 02:33:20.9	92.510	0.100	-0.340	0.790
2020/01/31 02:33:21.0	92.500	0.140	-0.380	0.790
2020/01/31 02:33:21.1	92.500	0.170	-0.420	0.790
2020/01/31 02:33:21.2	92.500	0.210	-0.460	0.790
2020/01/31 02:33:21.3	92.490	0.240	-0.490	0.790
2020/01/31 02:33:21.4	92.490	0.270	-0.520	0.790
2020/01/31 02:33:21.5	92.480	0.300	-0.550	0.790
2020/01/31 02:33:21.6	92.470	0.330	-0.560	0.780
2020/01/31 02:33:21.7	92.470	0.360	-0.580	0.780
2020/01/31 02:33:21.8	92.460	0.380	-0.580	0.780
2020/01/31 02:33:21.9	92.450	0.400	-0.580	0.770
2020/01/31 02:33:22.0	92.440	0.420	-0.580	0.770
2020/01/31 02:33:22.1	92.430	0.430	-0.570	0.770
2020/01/31 02:33:22.2	92.410	0.440	-0.550	0.760
2020/01/31 02:33:22.3	92.400	0.450	-0.530	0.760
2020/01/31 02:33:22.4	92.390	0.450	-0.510	0.750
2020/01/31 02:33:22.5	92.380	0.460	-0.480	0.740
2020/01/31 02:33:22.6	92.360	0.450	-0.450	0.740
2020/01/31 02:33:22.7	92.350	0.450	-0.410	0.730
2020/01/31 02:33:22.8	92.330	0.440	-0.380	0.720
2020/01/31 02:33:22.9	92.320	0.430	-0.340	0.710
2020/01/31 02:33:23.0	92.300	0.420	-0.300	0.700
2020/01/31 02:33:23.1	92.290	0.400	-0.260	0.680
2020/01/31 02:33:23.2	92.280	0.380	-0.220	0.670
2020/01/31 02:33:23.3	92.260	0.360	-0.180	0.660
2020/01/31 02:33:23.4	92.250	0.340	-0.140	0.640
2020/01/31 02:33:23.5	92.230	0.320	-0.100	0.620
2020/01/31 02:33:23.6	92.220	0.300	-0.060	0.600
2020/01/31 02:33:23.7	92.210	0.270	-0.030	0.580
2020/01/31 02:33:23.8	92.200	0.250	0.000	0.560
2020/01/31 02:33:23.9	92.190	0.220	0.030	0.540
2020/01/31 02:33:24.0	92.180	0.200	0.050	0.520
2020/01/31 02:33:24.1	92.190	0.170	0.080	0.500
2020/01/31 02:33:24.2	92.190	0.150	0.090	0.470
2020/01/31 02:33:24.3	92.190	0.120	0.110	0.450
2020/01/31 02:33:24.4	92.190	0.100	0.110	0.420
2020/01/31 02:33:24.5	92.200	0.080	0.120	0.400
2020/01/31 02:33:24.6	92.200	0.060	0.120	0.370
2020/01/31 02:33:24.7	92.210	0.040	0.120	0.350
2020/01/31 02:33:24.8	92.220	0.020	0.110	0.330
2020/01/31 02:33:24.9	92.230	-0.000	0.100	0.310
2020/01/31 02:33:25.0	92.240	-0.020	0.090	0.280
2020/01/31 02:33:25.1	92.260	-0.030	0.070	0.260
2020/01/31 02:33:25.2	92.270	-0.050	0.050	0.240
2020/01/31 02:33:25.3	92.290	-0.060	0.030	0.230
2020/01/31 02:33:25.4	92.310	-0.070	0.010	0.210
2020/01/31 02:33:25.5	92.320	-0.080	-0.010	0.200
2020/01/31 02:33:25.6	92.340	-0.090	-0.030	0.180
2020/01/31 02:33:25.7	92.360	-0.100	-0.060	0.170
2020/01/31 02:33:25.8	92.380	-0.110	-0.080	0.160
2020/01/31 02:33:25.9	92.390	-0.110	-0.100	0.150
2020/01/31 02:33:26.0	92.410	-0.120	-0.130	0.150
2020/01/31 02:33:26.1	92.430	-0.120	-0.150	0.150
2020/01/31 02:33:26.2	92.450	-0.130	-0.170	0.150
2020/01/31 02:33:26.3	92.460	-0.130	-0.190	0.150
2020/01/31 02:33:26.4	92.480	-0.130	-0.210	0.160
2020/01/31 02:33:26.5	92.490	-0.140	-0.230	0.160
2020/01/31 02:33:26.6	92.510	-0.140	-0.240	0.180
2020/01/31 02:33:26.7	92.520	-0.140	-0.250	0.190
2020/01/31 02:33:26.8	92.530	-0.140	-0.260	0.210
2020/01/31 02:33:26.9	92.550	-0.150	-0.270	0.230
2020/01/31 02:33:27.0	92.560	-0.150	-0.270	0.250
2020/01/31 02:33:27.1	92.560	-0.160	-0.280	0.270
2020/01/31 02:33:27.2	92.570	-0.160	-0.280	0.300
2020/01/31 02:33:27.3	92.580	-0.170	-0.280	0.340
2020/01/31 02:33:27.4	92.580	-0.180	-0.280	0.380
2020/01/31 02:33:27.5	92.590	-0.180	-0.270	0.420
2020/01/31 02:33:27.6	92.590	-0.190	-0.270	0.460
2020/01/31 02:33:27.7	92.590	-0.200	-0.260	0.500
2020/01/31 02:33:27.8	92.600	-0.210	-0.250	0.550
2020/01/31 02:33:27.9	92.590	-0.220	-0.240	0.600
2020/01/31 02:33:28.0	92.590	-0.240	-0.230	0.650
2020/01/31 02:33:28.1	92.580	-0.250	-0.220	0.700
2020/01/31 02:33:28.2	92.580	-0.260	-0.210	0.750
2020/01/31 02:33:28.3	92.570	-0.280	-0.200	0.800
2020/01/31 02:33:28.4	92.570	-0.290	-0.190	0.840
2020/01/31 02:33:28.5	92.570	-0.310	-0.190	0.890
2020/01/31 02:33:28.6	92.570	-0.320	-0.180	0.930
2020/01/31 02:33:28.7	92.560	-0.330	-0.180	0.970
2020/01/31 02:33:28.8	92.560	-0.340	-0.180	1.010
2020/01/31 02:33:28.9	92.560	-0.360	-0.180	1.050
2020/01/31 02:33:29.0	92.560	-0.370	-0.180	1.080
2020/01/31 02:33:29.1	92.550	-0.380	-0.190	1.110
2020/01/31 02:33:29.2	92.560	-0.380	-0.200	1.130
2020/01/31 02:33:29.3	92.560	-0.390	-0.210	1.160
2020/01/31 02:33:29.4	92.560	-0.390	-0.220	1.170
2020/01/31 02:33:29.5	92.560	-0.390	-0.230	1.190
2020/01/31 02:33:29.6	92.570	-0.390	-0.240	1.200
2020/01/31 02:33:29.7	92.570	-0.390	-0.250	1.210
2020/01/31 02:33:29.8	92.580	-0.380	-0.270	1.210
2020/01/31 02:33:29.9	92.580	-0.370	-0.290	1.210
2020/01/31 02:33:30.0	92.580	-0.360	-0.300	1.210
2020/01/31 02:33:30.1	92.570	-0.340	-0.320	1.210
2020/01/31 02:33:30.2	92.570	-0.320	-0.330	1.200
2020/01/31 02:33:30.3	92.570	-0.300	-0.350	1.200
2020/01/31 02:33:30.4	92.570	-0.270	-0.360	1.190
2020/01/31 02:33:30.5	92.560	-0.240	-0.380	1.170
2020/01/31 02:33:30.6	92.560	-0.210	-0.390	1.160
2020/01/31 02:33:30.7	92.550	-0.180	-0.410	1.150
2020/01/31 02:33:30.8	92.540	-0.140	-0.420	1.140
2020/01/31 02:33:30.9	92.530	-0.110	-0.430	1.120
2020/01/31 02:33:31.0	92.510	-0.070	-0.430	1.110
2020/01/31 02:33:31.1	92.480	-0.020	-0.450	1.100
2020/01/31 02:33:31.2	92.460	0.020	-0.450	1.080
2020/01/31 02:33:31.3	92.440	0.060	-0.450	1.070
2020/01/31 02:33:31.4	92.430	0.100	-0.450	1.050
2020/01/31 02:33:31.5	92.400	0.150	-0.450	1.040
2020/01/31 02:33:31.6	92.380	0.190	-0.440	1.020
2020/01/31 02:33:31.7	92.360	0.230	-0.430	1.000
2020/01/31 02:33:31.8	92.340	0.270	-0.420	0.980
2020/01/31 02:33:31.9	92.320	0.310	-0.410	0.960
2020/01/31 02:33:32.0	92.300	0.340	-0.390	0.950
2020/01/31 02:33:32.1	92.280	0.370	-0.360	0.930
2020/01/31 02:33:32.2	92.260	0.400	-0.340	0.910
2020/01/31 02:33:32.3	92.230	0.430	-0.310	0.890
2020/01/31 02:33:32.4	92.210	0.450	-0.290	0.860
2020/01/31 02:33:32.5	92.190	0.460	-0.260	0.840
2020/01/31 02:33:32.6	92.170	0.480	-0.220	0.820
2020/01/31 02:33:32.7	92.150	0.490	-0.190	0.790
2020/01/31 02:33:32.8	92.130	0.490	-0.160	0.760
2020/01/31 02:33:32.9	92.110	0.490	-0.120	0.740
2020/01/31 02:33:33.0	92.100	0.480	-0.090	0.710
2020/01/31 02:33:33.1	92.100	0.470	-0.050	0.680
2020/01/31 02:33:33.2	92.090	0.460	-0.020	0.640
2020/01/31 02:33:33.3	92.080	0.440	0.010	0.610
2020/01/31 02:33:33.4	92.070	0.420	0.040	0.570
2020/01/31 02:33:33.5	92.060	0.400	0.070	0.530
2020/01/31 02:33:33.6	92.050	0.380	0.090	0.490
2020/01/31 02:33:33.7	92.040	0.350	0.110	0.450
2020/01/31 02:33:33.8	92.040	0.320	0.130	0.410
2020/01/31 02:33:33.9	92.040	0.290	0.140	0.370
2020/01/31 02:33:34.0	92.040	0.250	0.150	0.320
2020/01/31 02:33:34.1	92.030	0.220	0.150	0.280
2020/01/31 02:33:34.2	92.030	0.190	0.150	0.240
2020/01/31 02:33:34.3	92.040	0.150	0.140	0.200
2020/01/31 02:33:34.4	92.040	0.120	0.130	0.160
2020/01/31 02:33:34.5	92.050	0.090	0.110	0.130
2020/01/31 02:33:34.6	92.060	0.060	0.090	0.090
2020/01/31 02:33:34.7	92.070	0.040	0.070	0.060
2020/01/31 02:33:34.8	92.080	0.010	0.040	0.030
2020/01/31 02:33:34.9	92.090	-0.010	0.010	0.010
2020/01/31 02:33:35.0	92.100	-0.020	-0.030	-0.010
2020/01/31 02:33:35.1	92.130	-0.040	-0.080	-0.030
2020/01/31 02:33:35.2	92.140	-0.050	-0.120	-0.040
2020/01/31 02:33:35.3	92.160	-0.060	-0.170	-0.050
2020/01/31 02:33:35.4	92.170	-0.060	-0.220	-0.050
2020/01/31 02:33:35.5	92.190	-0.070	-0.280	-0.050
2020/01/31 02:33:35.6	92.200	-0.060	-0.330	-0.040
2020/01/31 02:33:35.7	92.220	-0.060	-0.390	-0.030
2020/01/31 02:33:35.8	92.230	-0.050	-0.440	-0.010
2020/01/31 02:33:35.9	92.240	-0.040	-0.500	0.010
2020/01/31 02:33:36.0	92.250	-0.030	-0.550	0.030
2020/01/31 02:33:36.1	92.290	-0.020	-0.600	0.070
2020/01/31 02:33:36.2	92.300	-0.000	-0.650	0.100
2020/01/31 02:33:36.3	92.300	0.010	-0.700	0.140
2020/01/31 02:33:36.4	92.310	0.030	-0.740	0.180
2020/01/31 02:33:36.5	92.310	0.040	-0.780	0.220
2020/01/31 02:33:36.6	92.310	0.060	-0.810	0.260
2020/01/31 02:33:36.7	92.310	0.070	-0.830	0.310
2020/01/31 02:33:36.8	92.310	0.080	-0.840	0.360
2020/01/31 02:33:36.9	92.310	0.090	-0.850	0.410
2020/01/31 02:33:37.0	92.300	0.100	-0.850	0.460
2020/01/31 02:33:37.1	92.290	0.100	-0.840	0.520
2020/01/31 02:33:37.2	92.280	0.100	-0.830	0.580
2020/01/31 02:33:37.3	92.270	0.100	-0.800	0.630
2020/01/31 02:33:37.4	92.260	0.100	-0.770	0.690
2020/01/31 02:33:37.5	92.250	0.090	-0.720	0.740
2020/01/31 02:33:37.6	92.230	0.070	-0.670	0.800
2020/01/31 02:33:37.7	92.220	0.060	-0.620	0.850
2020/01/31 02:33:37.8	92.210	0.040	-0.550	0.910
2020/01/31 02:33:37.9	92.190	0.020	-0.490	0.960
2020/01/31 02:33:38.0	92.180	-0.010	-0.410	1.010
2020/01/31 02:33:38.1	92.150	-0.040	-0.330	1.070
2020/01/31 02:33:38.2	92.130	-0.070	-0.250	1.120
2020/01/31 02:33:38.3	92.120	-0.100	-0.170	1.160
2020/01/31 02:33:38.4	92.100	-0.130	-0.090	1.210
2020/01/31 02:33:38.5	92.090	-0.170	-0.010	1.250
2020/01/31 02:33:38.6	92.080	-0.200	0.070	1.290
2020/01/31 02:33:38.7	92.070	-0.240	0.150	1.320
2020/01/31 02:33:38.8	92.060	-0.270	0.230	1.350
2020/01/31 02:33:38.9	92.060	-0.310	0.300	1.380
2020/01/31 02:33:39.0	92.050	-0.340	0.370	1.400
2020/01/31 02:33:39.1	92.060	-0.370	0.430	1.420
2020/01/31 02:33:39.2	92.050	-0.400	0.480	1.430
2020/01/31 02:33:39.3	92.050	-0.420	0.530	1.440
2020/01/31 02:33:39.4	92.050	-0.440	0.570	1.450
2020/01/31 02:33:39.5	92.050	-0.460	0.590	1.440
2020/01/31 02:33:39.6	92.050	-0.470	0.610	1.440
2020/01/31 02:33:39.7	92.050	-0.480	0.620	1.430
2020/01/31 02:33:39.8	92.050	-0.490	0.620	1.410
2020/01/31 02:33:39.9	92.050	-0.480	0.610	1.390
2020/01/31 02:33:40.0	92.060	-0.480	0.590	1.370
2020/01/31 02:33:40.1	92.060	-0.460	0.560	1.340
2020/01/31 02:33:40.2	92.060	-0.440	0.520	1.320
2020/01/31 02:33:40.3	92.070	-0.420	0.470	1.280
2020/01/31 02:33:40.4	92.070	-0.390	0.410	1.250
2020/01/31 02:33:40.5	92.080	-0.360	0.350	1.220
2020/01/31 02:33:40.6	92.080	-0.320	0.280	1.180
2020/01/31 02:33:40.7	92.080	-0.280	0.200	1.150
2020/01/31 02:33:40.8	92.080	-0.230	0.130	1.110
2020/01/31 02:33:40.9	92.080	-0.180	0.040	1.070
2020/01/31 02:33:41.0	92.080	-0.130	-0.040	1.030
2020/01/31 02:33:41.1	92.090	-0.080	-0.140	1.000
2020/01/31 02:33:41.2	92.090	-0.020	-0.220	0.960
2020/01/31 02:33:41.3	92.080	0.040	-0.310	0.930
2020/01/31 02:33:41.4	92.080	0.090	-0.400	0.890
2020/01/31 02:33:41.5	92.080	0.150	-0.480	0.860
2020/01/31 02:33:41.6	92.070	0.210	-0.560	0.830
2020/01/31 02:33:41.7	92.060	0.260	-0.640	0.800
2020/01/31 02:33:41.8	92.060	0.310	-0.710	0.760
2020/01/31 02:33:41.9	92.060	0.360	-0.780	0.730
2020/01/31 02:33:42.0	92.050	0.410	-0.840	0.700
2020/01/31 02:33:42.1	92.060	0.450	-0.880	0.680
2020/01/31 02:33:42.2	92.060	0.490	-0.930	0.650
2020/01/31 02:33:42.3	92.060	0.520	-0.960	0.630
2020/01/31 02:33:42.4	92.050	0.550	-0.990	0.600
2020/01/31 02:33:42.5	92.050	0.580	-1.010	0.580
2020/01/31 02:33:42.6	92.050	0.590	-1.010	0.560
2020/01/31 02:33:42.7	92.050	0.600	-1.010	0.550
2020/01/31 02:33:42.8	92.050	0.610	-1.000	0.540
2020/01/31 02:33:42.9	92.050	0.610	-0.970	0.530
2020/01/31 02:33:43.0	92.050	0.600	-0.940	0.520
2020/01/31 02:33:43.1	92.050	0.590	-0.890	0.520
2020/01/31 02:33:43.2	92.050	0.570	-0.840	0.510
2020/01/31 02:33:43.3	92.050	0.550	-0.780	0.510
2020/01/31 02:33:43.4	92.060	0.520	-0.710	0.510
2020/01/31 02:33:43.5	92.060	0.480	-0.630	0.510
2020/01/31 02:33:43.6	92.060	0.440	-0.550	0.520
2020/01/31 02:33:43.7	92.060	0.400	-0.460	0.520
2020/01/31 02:33:43.8	92.060	0.350	-0.360	0.530
2020/01/31 02:33:43.9	92.060	0.290	-0.270	0.530
2020/01/31 02:33:44.0	92.060	0.240	-0.170	0.540
2020/01/31 02:33:44.1	92.060	0.180	-0.060	0.540
2020/01/31 02:33:44.2	92.060	0.120	0.030	0.550
2020/01/31 02:33:44.3	92.060	0.060	0.130	0.560
2020/01/31 02:33:44.4	92.060	-0.000	0.220	0.560
2020/01/31 02:33:44.5	92.050	-0.060	0.310	0.570
2020/01/31 02:33:44.6	92.050	-0.130	0.390	0.570
2020/01/31 02:33:44.7	92.040	-0.190	0.470	0.580
2020/01/31 02:33:44.8	92.040	-0.240	0.530	0.590
2020/01/31 02:33:44.9	92.030	-0.300	0.590	0.590
2020/01/31 02:33:45.0	92.030	-0.350	0.640	0.600
2020/01/31 02:33:45.1	92.030	-0.400	0.690	0.610
2020/01/31 02:33:45.2	92.020	-0.440	0.720	0.620
2020/01/31 02:33:45.3	92.020	-0.480	0.730	0.620
2020/01/31 02:33:45.4	92.010	-0.510	0.740	0.630
2020/01/31 02:33:45.5	92.000	-0.540	0.740	0.650
2020/01/31 02:33:45.6	91.990	-0.560	0.720	0.660
2020/01/31 02:33:45.7	91.990	-0.580	0.690	0.670
2020/01/31 02:33:45.8	91.980	-0.590	0.650	0.690
2020/01/31 02:33:45.9	91.970	-0.590	0.600	0.700
2020/01/31 02:33:46.0	91.970	-0.590	0.550	0.720
2020/01/31 02:33:46.1	91.970	-0.580	0.480	0.740
2020/01/31 02:33:46.2	91.960	-0.570	0.400	0.760
2020/01/31 02:33:46.3	91.960	-0.550	0.310	0.780
2020/01/31 02:33:46.4	91.950	-0.530	0.220	0.790
2020/01/31 02:33:46.5	91.950	-0.500	0.130	0.810
2020/01/31 02:33:46.6	91.950	-0.460	0.030	0.840
2020/01/31 02:33:46.7	91.940	-0.420	-0.070	0.860
2020/01/31 02:33:46.8	91.940	-0.380	-0.170	0.880
2020/01/31 02:33:46.9	91.940	-0.340	-0.280	0.900
2020/01/31 02:33:47.0	91.940	-0.290	-0.380	0.920
2020/01/31 02:33:47.1	91.920	-0.240	-0.490	0.940
2020/01/31 02:33:47.2	91.920	-0.190	-0.580	0.950
2020/01/31 02:33:47.3	91.920	-0.140	-0.680	0.970
2020/01/31 02:33:47.4	91.920	-0.090	-0.760	0.990
2020/01/31 02:33:47.5	91.920	-0.040	-0.850	1.000
2020/01/31 02:33:47.6	91.920	0.010	-0.920	1.010
2020/01/31 02:33:47.7	91.920	0.050	-0.990	1.020
2020/01/31 02:33:47.8	91.920	0.100	-1.050	1.020
2020/01/31 02:33:47.9	91.930	0.140	-1.090	1.020
2020/01/31 02:33:48.0	91.930	0.180	-1.130	1.020
2020/01/31 02:33:48.1	91.920	0.220	-1.160	1.020
2020/01/31 02:33:48.2	91.920	0.250	-1.180	1.010
2020/01/31 02:33:48.3	91.930	0.280	-1.180	1.000
2020/01/31 02:33:48.4	91.930	0.310	-1.180	0.990
2020/01/31 02:33:48.5	91.940	0.330	-1.160	0.980
2020/01/31 02:33:48.6	91.950	0.340	-1.140	0.970
2020/01/31 02:33:48.7	91.950	0.360	-1.100	0.960
2020/01/31 02:33:48.8	91.960	0.360	-1.050	0.940
2020/01/31 02:33:48.9	91.970	0.360	-1.000	0.930
2020/01/31 02:33:49.0	91.970	0.360	-0.930	0.920
2020/01/31 02:33:49.1	91.980	0.360	-0.860	0.910
2020/01/31 02:33:49.2	91.990	0.350	-0.780	0.900
2020/01/31 02:33:49.3	91.990	0.330	-0.700	0.890
2020/01/31 02:33:49.4	92.000	0.320	-0.610	0.880
2020/01/31 02:33:49.5	92.000	0.300	-0.510	0.870
2020/01/31 02:33:49.6	92.010	0.280	-0.420	0.870
2020/01/31 02:33:49.7	92.010	0.250	-0.320	0.870
2020/01/31 02:33:49.8	92.010	0.230	-0.230	0.860
2020/01/31 02:33:49.9	92.020	0.200	-0.140	0.860
2020/01/31 02:33:50.0	92.020	0.170	-0.050	0.860
2020/01/31 02:33:50.1	92.040	0.150	0.040	0.860
2020/01/31 02:33:50.2	92.030	0.120	0.120	0.870
2020/01/31 02:33:50.3	92.030	0.090	0.200	0.870
2020/01/31 02:33:50.4	92.030	0.070	0.260	0.870
2020/01/31 02:33:50.5	92.030	0.050	0.320	0.870
2020/01/31 02:33:50.6	92.020	0.030	0.370	0.870
2020/01/31 02:33:50.7	92.010	0.010	0.400	0.870
2020/01/31 02:33:50.8	92.010	0.000	0.430	0.870
2020/01/31 02:33:50.9	92.000	-0.010	0.440	0.870
2020/01/31 02:33:51.0	91.990	-0.010	0.440	0.870
2020/01/31 02:33:51.1	91.980	-0.010	0.430	0.870
2020/01/31 02:33:51.2	91.960	-0.010	0.410	0.870
2020/01/31 02:33:51.3	91.950	0.000	0.380	0.870
2020/01/31 02:33:51.4	91.940	0.010	0.340	0.860
2020/01/31 02:33:51.5	91.930	0.030	0.290	0.860
2020/01/31 02:33:51.6	91.920	0.050	0.230	0.850
2020/01/31 02:33:51.7	91.900	0.070	0.170	0.850
2020/01/31 02:33:51.8	91.890	0.100	0.100	0.840
2020/01/31 02:33:51.9	91.870	0.130	0.020	0.840
2020/01/31 02:33:52.0	91.860	0.160	-0.060	0.840
2020/01/31 02:33:52.1	91.840	0.200	-0.140	0.840
2020/01/31 02:33:52.2	91.820	0.230	-0.220	0.840
2020/01/31 02:33:52.3	91.800	0.270	-0.300	0.840
2020/01/31 02:33:52.4	91.780	0.300	-0.380	0.840
2020/01/31 02:33:52.5	91.760	0.340	-0.460	0.850
2020/01/31 02:33:52.6	91.740	0.370	-0.520	0.850
2020/01/31 02:33:52.7	91.720	0.400	-0.590	0.850
2020/01/31 02:33:52.8	91.700	0.430	-0.640	0.850
2020/01/31 02:33:52.9	91.690	0.450	-0.690	0.850
2020/01/31 02:33:53.0	91.680	0.470	-0.720	0.850
2020/01/31 02:33:53.1	91.660	0.490	-0.750	0.850
2020/01/31 02:33:53.2	91.650	0.500	-0.770	0.850
2020/01/31 02:33:53.3	91.640	0.510	-0.780	0.850
2020/01/31 02:33:53.4	91.640	0.510	-0.770	0.840
2020/01/31 02:33:53.5	91.630	0.500	-0.760	0.840
2020/01/31 02:33:53.6	91.630	0.490	-0.740	0.840
2020/01/31 02:33:53.7	91.630	0.480	-0.700	0.830
2020/01/31 02:33:53.8	91.620	0.460	-0.660	0.820
2020/01/31 02:33:53.9	91.620	0.430	-0.610	0.820
2020/01/31 02:33:54.0	91.620	0.400	-0.550	0.810
2020/01/31 02:33:54.1	91.620	0.360	-0.490	0.810
2020/01/31 02:33:54.2	91.620	0.320	-0.420	0.810
2020/01/31 02:33:54.3	91.620	0.270	-0.340	0.800
2020/01/31 02:33:54.4	91.620	0.220	-0.260	0.800
2020/01/31 02:33:54.5	91.620	0.170	-0.180	0.810
2020/01/31 02:33:54.6	91.620	0.120	-0.100	0.810
2020/01/31 02:33:54.7	91.620	0.060	-0.020	0.820
2020/01/31 02:33:54.8	91.620	-0.000	0.060	0.830
2020/01/31 02:33:54.9	91.610	-0.060	0.150	0.840
2020/01/31 02:33:55.0	91.610	-0.120	0.220	0.850
2020/01/31 02:33:55.1	91.600	-0.180	0.300	0.870
2020/01/31 02:33:55.2	91.600	-0.240	0.370	0.880
2020/01/31 02:33:55.3	91.600	-0.300	0.440	0.900
2020/01/31 02:33:55.4	91.590	-0.360	0.490	0.920
2020/01/31 02:33:55.5	91.590	-0.410	0.540	0.940
2020/01/31 02:33:55.6	91.590	-0.460	0.580	0.960
2020/01/31 02:33:55.7	91.590	-0.510	0.620	0.990
2020/01/31 02:33:55.8	91.590	-0.550	0.640	1.010
2020/01/31 02:33:55.9	91.600	-0.590	0.660	1.020
2020/01/31 02:33:56.0	91.600	-0.630	0.670	1.040
2020/01/31 02:33:56.1	91.610	-0.660	0.660	1.060
2020/01/31 02:33:56.2	91.610	-0.680	0.650	1.070
2020/01/31 02:33:56.3	91.620	-0.710	0.630	1.090
2020/01/31 02:33:56.4	91.620	-0.720	0.600	1.090
2020/01/31 02:33:56.5	91.630	-0.730	0.570	1.100
2020/01/31 02:33:56.6	91.640	-0.740	0.530	1.100
2020/01/31 02:33:56.7	91.650	-0.740	0.480	1.100
2020/01/31 02:33:56.8	91.660	-0.740	0.420	1.100
2020/01/31 02:33:56.9	91.680	-0.730	0.360	1.090
2020/01/31 02:33:57.0	91.690	-0.720	0.290	1.080
2020/01/31 02:33:57.1	91.730	-0.700	0.220	1.070
2020/01/31 02:33:57.2	91.750	-0.680	0.150	1.050
2020/01/31 02:33:57.3	91.770	-0.660	0.070	1.030
2020/01/31 02:33:57.4	91.790	-0.630	-0.010	1.020
2020/01/31 02:33:57.5	91.810	-0.600	-0.090	1.000
2020/01/31 02:33:57.6	91.830	-0.560	-0.170	0.980
2020/01/31 02:33:57.7	91.850	-0.520	-0.250	0.960
2020/01/31 02:33:57.8	91.860	-0.480	-0.330	0.940
2020/01/31 02:33:57.9	91.880	-0.440	-0.410	0.920
2020/01/31 02:33:58.0	91.900	-0.390	-0.490	0.910
2020/01/31 02:33:58.1	91.910	-0.340	-0.560	0.890
2020/01/31 02:33:58.2	91.930	-0.290	-0.630	0.880
2020/01/31 02:33:58.3	91.950	-0.240	-0.690	0.870
2020/01/31 02:33:58.4	91.960	-0.200	-0.750	0.860
2020/01/31 02:33:58.5	91.970	-0.150	-0.800	0.850
2020/01/31 02:33:58.6	91.980	-0.100	-0.850	0.850
2020/01/31 02:33:58.7	91.990	-0.050	-0.890	0.840
2020/01/31 02:33:58.8	92.000	-0.000	-0.920	0.840
2020/01/31 02:33:58.9	92.010	0.040	-0.940	0.840
2020/01/31 02:33:59.0	92.020	0.090	-0.950	0.840
2020/01/31 02:33:59.1	92.020	0.130	-0.960	0.850
2020/01/31 02:33:59.2	92.030	0.170	-0.960	0.850
2020/01/31 02:33:59.3	92.030	0.200	-0.950	0.860
2020/01/31 02:33:59.4	92.030	0.230	-0.930	0.860
2020/01/31 02:33:59.5	92.030	0.260	-0.900	0.860
2020/01/31 02:33:59.6	92.020	0.280	-0.870	0.870
2020/01/31 02:33:59.7	92.020	0.300	-0.820	0.870
2020/01/31 02:33:59.8	92.010	0.320	-0.780	0.870
2020/01/31 02:33:59.9	92.010	0.330	-0.720	0.870
2020/01/31 02:34:00.0	92.000	0.340	-0.670	0.860
2020/01/31 02:34:00.1	92.000	0.340	-0.600	0.860
2020/01/31 02:34:00.2	91.990	0.340	-0.540	0.850
2020/01/31 02:34:00.3	91.970	0.340	-0.470	0.840
2020/01/31 02:34:00.4	91.960	0.330	-0.410	0.830
2020/01/31 02:34:00.5	91.940	0.320	-0.340	0.820
2020/01/31 02:34:00.6	91.930	0.310	-0.280	0.810
2020/01/31 02:34:00.7	91.910	0.290	-0.210	0.800
2020/01/31 02:34:00.8	91.890	0.280	-0.150	0.780
2020/01/31 02:34:00.9	91.870	0.260	-0.090	0.770
2020/01/31 02:34:01.0	91.850	0.230	-0.040	0.750
2020/01/31 02:34:01.1	91.840	0.210	0.010	0.740
2020/01/31 02:34:01.2	91.820	0.190	0.060	0.720
2020/01/31 02:34:01.3	91.800	0.160	0.090	0.710
2020/01/31 02:34:01.4	91.780	0.140	0.130	0.700
2020/01/31 02:34:01.5	91.760	0.120	0.150	0.690
2020/01/31 02:34:01.6	91.740	0.090	0.170	0.680
2020/01/31 02:34:01.7	91.730	0.070	0.180	0.670
2020/01/31 02:34:01.8	91.710	0.050	0.180	0.660
2020/01/31 02:34:01.9	91.700	0.040	0.180	0.660
2020/01/31 02:34:02.0	91.680	0.020	0.170	0.650
2020/01/31 02:34:02.1	91.670	0.010	0.150	0.650
2020/01/31 02:34:02.2	91.660	-0.000	0.120	0.650
2020/01/31 02:34:02.3	91.640	-0.010	0.090	0.650
2020/01/31 02:34:02.4	91.630	-0.010	0.060	0.650
2020/01/31 02:34:02.5	91.620	-0.010	0.010	0.650
2020/01/31 02:34:02.6	91.610	-0.010	-0.030	0.640
2020/01/31 02:34:02.7	91.600	-0.010	-0.080	0.640
2020/01/31 02:34:02.8	91.600	0.000	-0.140	0.640
2020/01/31 02:34:02.9	91.590	0.010	-0.190	0.640
2020/01/31 02:34:03.0	91.580	0.030	-0.250	0.640
2020/01/31 02:34:03.1	91.570	0.040	-0.310	0.640
2020/01/31 02:34:03.2	91.570	0.060	-0.370	0.630
2020/01/31 02:34:03.3	91.560	0.080	-0.430	0.630
2020/01/31 02:34:03.4	91.560	0.100	-0.480	0.620
2020/01/31 02:34:03.5	91.550	0.120	-0.540	0.610
2020/01/31 02:34:03.6	91.550	0.150	-0.590	0.610
2020/01/31 02:34:03.7	91.540	0.170	-0.640	0.600
2020/01/31 02:34:03.8	91.540	0.190	-0.680	0.600
2020/01/31 02:34:03.9	91.530	0.220	-0.720	0.600
2020/01/31 02:34:04.0	91.520	0.240	-0.750	0.600
2020/01/31 02:34:04.1	91.510	0.260	-0.780	0.590
2020/01/31 02:34:04.2	91.500	0.280	-0.800	0.600
2020/01/31 02:34:04.3	91.480	0.300	-0.810	0.600
2020/01/31 02:34:04.4	91.470	0.320	-0.820	0.620
2020/01/31 02:34:04.5	91.450	0.330	-0.820	0.630
2020/01/31 02:34:04.6	91.430	0.350	-0.810	0.650
2020/01/31 02:34:04.7	91.410	0.360	-0.790	0.670
2020/01/31 02:34:04.8	91.380	0.370	-0.770	0.690
2020/01/31 02:34:04.9	91.360	0.370	-0.740	0.710
2020/01/31 02:34:05.0	91.330	0.370	-0.710	0.740
2020/01/31 02:34:05.1	91.300	0.370	-0.670	0.780
2020/01/31 02:34:05.2	91.280	0.370	-0.630	0.810
2020/01/31 02:34:05.3	91.250	0.360	-0.580	0.840
2020/01/31 02:34:05.4	91.220	0.350	-0.520	0.870
2020/01/31 02:34:05.5	91.190	0.340	-0.460	0.900
2020/01/31 02:34:05.6	91.170	0.330	-0.400	0.930
2020/01/31 02:34:05.7	91.140	0.310	-0.340	0.950
2020/01/31 02:34:05.8	91.120	0.290	-0.270	0.980
2020/01/31 02:34:05.9	91.100	0.260	-0.200	1.000
2020/01/31 02:34:06.0	91.080	0.240	-0.140	1.020
2020/01/31 02:34:06.1	91.070	0.210	-0.070	1.030
2020/01/31 02:34:06.2	91.050	0.180	0.000	1.050
2020/01/31 02:34:06.3	91.040	0.150	0.070	1.060
2020/01/31 02:34:06.4	91.020	0.120	0.130	1.070
2020/01/31 02:34:06.5	91.010	0.090	0.200	1.080
2020/01/31 02:34:06.6	91.000	0.060	0.260	1.090
2020/01/31 02:34:06.7	91.000	0.020	0.320	1.090
2020/01/31 02:34:06.8	90.990	-0.010	0.370	1.100
2020/01/31 02:34:06.9	90.990	-0.040	0.420	1.100
2020/01/31 02:34:07.0	90.990	-0.080	0.460	1.100
2020/01/31 02:34:07.1	90.980	-0.110	0.510	1.100
2020/01/31 02:34:07.2	90.980	-0.150	0.540	1.100
2020/01/31 02:34:07.3	90.990	-0.180	0.570	1.090
2020/01/31 02:34:07.4	91.000	-0.210	0.590	1.080
2020/01/31 02:34:07.5	91.010	-0.240	0.610	1.070
2020/01/31 02:34:07.6	91.020	-0.270	0.620	1.050
2020/01/31 02:34:07.7	91.030	-0.300	0.620	1.030
2020/01/31 02:34:07.8	91.050	-0.320	0.620	1.010
2020/01/31 02:34:07.9	91.070	-0.340	0.610	0.990
2020/01/31 02:34:08.0	91.090	-0.360	0.590	0.960
2020/01/31 02:34:08.1	91.120	-0.380	0.570	0.920
2020/01/31 02:34:08.2	91.150	-0.390	0.540	0.890
2020/01/31 02:34:08.3	91.180	-0.400	0.500	0.850
2020/01/31 02:34:08.4	91.200	-0.410	0.460	0.810
2020/01/31 02:34:08.5	91.240	-0.410	0.410	0.770
2020/01/31 02:34:08.6	91.270	-0.410	0.360	0.730
2020/01/31 02:34:08.7	91.300	-0.410	0.300	0.690
2020/01/31 02:34:08.8	91.330	-0.400	0.240	0.650
2020/01/31 02:34:08.9	91.360	-0.390	0.180	0.610
2020/01/31 02:34:09.0	91.390	-0.370	0.110	0.570
2020/01/31 02:34:09.1	91.430	-0.360	0.040	0.540
2020/01/31 02:34:09.2	91.450	-0.340	-0.030	0.500
2020/01/31 02:34:09.3	91.480	-0.310	-0.100	0.470
2020/01/31 02:34:09.4	91.510	-0.290	-0.180	0.440
2020/01/31 02:34:09.5	91.540	-0.260	-0.250	0.420
2020/01/31 02:34:09.6	91.560	-0.230	-0.320	0.390
2020/01/31 02:34:09.7	91.580	-0.200	-0.380	0.380
2020/01/31 02:34:09.8	91.600	-0.160	-0.450	0.360
2020/01/31 02:34:09.9	91.620	-0.130	-0.510	0.350
2020/01/31 02:34:10.0	91.640	-0.100	-0.570	0.350
2020/01/31 02:34:10.1	91.650	-0.060	-0.620	0.350
2020/01/31 02:34:10.2	91.660	-0.030	-0.670	0.360
2020/01/31 02:34:10.3	91.670	0.000	-0.710	0.370
2020/01/31 02:34:10.4	91.680	0.040	-0.750	0.390
2020/01/31 02:34:10.5	91.680	0.060	-0.780	0.410
2020/01/31 02:34:10.6	91.690	0.090	-0.800	0.440
2020/01/31 02:34:10.7	91.680	0.120	-0.820	0.470
2020/01/31 02:34:10.8	91.680	0.140	-0.830	0.510
2020/01/31 02:34:10.9	91.680	0.160	-0.840	0.550
2020/01/31 02:34:11.0	91.670	0.170	-0.840	0.590
2020/01/31 02:34:11.1	91.650	0.180	-0.830	0.650
2020/01/31 02:34:11.2	91.640	0.190	-0.820	0.690
2020/01/31 02:34:11.3	91.630	0.200	-0.800	0.740
2020/01/31 02:34:11.4	91.620	0.200	-0.780	0.790
2020/01/31 02:34:11.5	91.600	0.200	-0.750	0.840
2020/01/31 02:34:11.6	91.590	0.190	-0.720	0.890
2020/01/31 02:34:11.7	91.570	0.180	-0.680	0.940
2020/01/31 02:34:11.8	91.550	0.170	-0.640	0.990
2020/01/31 02:34:11.9	91.530	0.160	-0.600	1.030
2020/01/31 02:34:12.0	91.510	0.140	-0.560	1.070
2020/01/31 02:34:12.1	91.490	0.120	-0.510	1.110
2020/01/31 02:34:12.2	91.470	0.100	-0.460	1.150
2020/01/31 02:34:12.3	91.450	0.070	-0.410	1.180
2020/01/31 02:34:12.4	91.430	0.050	-0.360	1.210
2020/01/31 02:34:12.5	91.410	0.020	-0.320	1.230
2020/01/31 02:34:12.6	91.380	-0.000	-0.270	1.250
2020/01/31 02:34:12.7	91.360	-0.030	-0.220	1.260
2020/01/31 02:34:12.8	91.340	-0.060	-0.180	1.270
2020/01/31 02:34:12.9	91.310	-0.090	-0.140	1.280
2020/01/31 02:34:13.0	91.290	-0.110	-0.100	1.280
2020/01/31 02:34:13.1	91.260	-0.140	-0.070	1.280
2020/01/31 02:34:13.2	91.240	-0.160	-0.040	1.280
2020/01/31 02:34:13.3	91.220	-0.180	-0.010	1.270
2020/01/31 02:34:13.4	91.200	-0.200	0.010	1.250
2020/01/31 02:34:13.5	91.180	-0.220	0.030	1.240
2020/01/31 02:34:13.6	91.160	-0.230	0.050	1.220
2020/01/31 02:34:13.7	91.150	-0.240	0.060	1.190
2020/01/31 02:34:13.8	91.130	-0.250	0.070	1.170
2020/01/31 02:34:13.9	91.130	-0.260	0.070	1.140
2020/01/31 02:34:14.0	91.120	-0.260	0.070	1.110
2020/01/31 02:34:14.1	91.130	-0.260	0.070	1.070
2020/01/31 02:34:14.2	91.130	-0.260	0.060	1.040
2020/01/31 02:34:14.3	91.130	-0.250	0.050	1.000
2020/01/31 02:34:14.4	91.130	-0.240	0.030	0.960
2020/01/31 02:34:14.5	91.140	-0.230	0.010	0.920
2020/01/31 02:34:14.6	91.150	-0.220	-0.010	0.880
2020/01/31 02:34:14.7	91.160	-0.200	-0.030	0.840
2020/01/31 02:34:14.8	91.170	-0.180	-0.060	0.810
2020/01/31 02:34:14.9	91.180	-0.160	-0.090	0.770
2020/01/31 02:34:15.0	91.190	-0.140	-0.130	0.730
2020/01/31 02:34:15.1	91.200	-0.110	-0.170	0.700
2020/01/31 02:34:15.2	91.210	-0.080	-0.210	0.660
2020/01/31 02:34:15.3	91.230	-0.050	-0.250	0.630
2020/01/31 02:34:15.4	91.240	-0.020	-0.290	0.590
2020/01/31 02:34:15.5	91.260	0.010	-0.340	0.560
2020/01/31 02:34:15.6	91.270	0.040	-0.380	0.530
2020/01/31 02:34:15.7	91.290	0.070	-0.420	0.510
2020/01/31 02:34:15.8	91.300	0.110	-0.470	0.480
2020/01/31 02:34:15.9	91.310	0.140	-0.510	0.460
2020/01/31 02:34:16.0	91.320	0.170	-0.550	0.440
2020/01/31 02:34:16.1	91.330	0.200	-0.580	0.420
2020/01/31 02:34:16.2	91.340	0.220	-0.610	0.400
2020/01/31 02:34:16.3	91.350	0.250	-0.640	0.380
2020/01/31 02:34:16.4	91.350	0.270	-0.660	0.370
2020/01/31 02:34:16.5	91.350	0.290	-0.680	0.360
2020/01/31 02:34:16.6	91.350	0.310	-0.690	0.340
2020/01/31 02:34:16.7	91.350	0.320	-0.690	0.330
2020/01/31 02:34:16.8	91.350	0.330	-0.690	0.330
2020/01/31 02:34:16.9	91.350	0.340	-0.680	0.320
2020/01/31 02:34:17.0	91.340	0.340	-0.660	0.310
2020/01/31 02:34:17.1	91.330	0.340	-0.640	0.310
2020/01/31 02:34:17.2	91.320	0.330	-0.610	0.310
2020/01/31 02:34:17.3	91.310	0.320	-0.570	0.310
2020/01/31 02:34:17.4	91.290	0.310	-0.530	0.310
2020/01/31 02:34:17.5	91.280	0.290	-0.480	0.320
2020/01/31 02:34:17.6	91.270	0.270	-0.420	0.330
2020/01/31 02:34:17.7	91.250	0.250	-0.360	0.350
2020/01/31 02:34:17.8	91.240	0.220	-0.300	0.360
2020/01/31 02:34:17.9	91.220	0.200	-0.230	0.380
2020/01/31 02:34:18.0	91.210	0.170	-0.170	0.400
2020/01/31 02:34:18.1	91.200	0.130	-0.090	0.420
2020/01/31 02:34:18.2	91.190	0.100	-0.030	0.450
2020/01/31 02:34:18.3	91.180	0.060	0.040	0.480
2020/01/31 02:34:18.4	91.170	0.030	0.100	0.500
2020/01/31 02:34:18.5	91.160	-0.010	0.160	0.530
2020/01/31 02:34:18.6	91.150	-0.050	0.220	0.560
2020/01/31 02:34:18.7	91.150	-0.080	0.270	0.590
2020/01/31 02:34:18.8	91.150	-0.120	0.320	0.620
2020/01/31 02:34:18.9	91.150	-0.150	0.360	0.640
2020/01/31 02:34:19.0	91.150	-0.180	0.400	0.670
2020/01/31 02:34:19.1	91.150	-0.220	0.430	0.700
2020/01/31 02:34:19.2	91.160	-0.250	0.460	0.730
2020/01/31 02:34:19.3	91.160	-0.270	0.470	0.750
2020/01/31 02:34:19.4	91.170	-0.300	0.490	0.770
2020/01/31 02:34:19.5	91.170	-0.320	0.490	0.790
2020/01/31 02:34:19.6	91.180	-0.340	0.490	0.810
2020/01/31 02:34:19.7	91.180	-0.360	0.480	0.830
2020/01/31 02:34:19.8	91.190	-0.370	0.470	0.840
2020/01/31 02:34:19.9	91.190	-0.380	0.460	0.860
2020/01/31 02:34:20.0	91.190	-0.390	0.430	0.870
2020/01/31 02:34:20.1	91.190	-0.390	0.410	0.880
2020/01/31 02:34:20.2	91.190	-0.400	0.370	0.890
2020/01/31 02:34:20.3	91.190	-0.390	0.330	0.900
2020/01/31 02:34:20.4	91.190	-0.390	0.290	0.910
2020/01/31 02:34:20.5	91.190	-0.380	0.240	0.910
2020/01/31 02:34:20.6	91.190	-0.370	0.190	0.910
2020/01/31 02:34:20.7	91.190	-0.360	0.140	0.910
2020/01/31 02:34:20.8	91.190	-0.350	0.080	0.910
2020/01/31 02:34:20.9	91.200	-0.330	0.020	0.900
2020/01/31 02:34:21.0	91.200	-0.310	-0.040	0.900
2020/01/31 02:34:21.1	91.220	-0.280	-0.110	0.900
2020/01/31 02:34:21.2	91.220	-0.260	-0.180	0.890
2020/01/31 02:34:21.3	91.230	-0.230	-0.240	0.880
2020/01/31 02:34:21.4	91.230	-0.200	-0.310	0.880
2020/01/31 02:34:21.5	91.240	-0.170	-0.380	0.870
2020/01/31 02:34:21.6	91.240	-0.140	-0.450	0.860
2020/01/31 02:34:21.7	91.250	-0.110	-0.510	0.860
2020/01/31 02:34:21.8	91.260	-0.070	-0.580	0.850
2020/01/31 02:34:21.9	91.260	-0.040	-0.640	0.850
2020/01/31 02:34:22.0	91.270	-0.010	-0.700	0.850
2020/01/31 02:34:22.1	91.270	0.030	-0.760	0.850
2020/01/31 02:34:22.2	91.270	0.070	-0.810	0.850
2020/01/31 02:34:22.3	91.280	0.100	-0.860	0.850
2020/01/31 02:34:22.4	91.280	0.130	-0.900	0.850
2020/01/31 02:34:22.5	91.290	0.170	-0.940	0.850
2020/01/31 02:34:22.6	91.290	0.200	-0.970	0.860
2020/01/31 02:34:22.7	91.300	0.230	-1.000	0.860
2020/01/31 02:34:22.8	91.300	0.260	-1.020	0.870
2020/01/31 02:34:22.9	91.300	0.290	-1.030	0.870
2020/01/31 02:34:23.0	91.300	0.320	-1.030	0.870
2020/01/31 02:34:23.1	91.320	0.340	-1.020	0.880
2020/01/31 02:34:23.2	91.320	0.360	-1.010	0.890
2020/01/31 02:34:23.3	91.320	0.380	-0.990	0.890
2020/01/31 02:34:23.4	91.320	0.400	-0.960	0.890
2020/01/31 02:34:23.5	91.310	0.410	-0.920	0.900
2020/01/31 02:34:23.6	91.310	0.420	-0.870	0.900
2020/01/31 02:34:23.7	91.300	0.420	-0.810	0.900
2020/01/31 02:34:23.8	91.300	0.430	-0.750	0.900
2020/01/31 02:34:23.9	91.290	0.420	-0.680	0.900
2020/01/31 02:34:24.0	91.280	0.420	-0.600	0.900
2020/01/31 02:34:24.1	91.270	0.410	-0.520	0.900
2020/01/31 02:34:24.2	91.260	0.400	-0.430	0.900
2020/01/31 02:34:24.3	91.240	0.380	-0.350	0.890
2020/01/31 02:34:24.4	91.230	0.370	-0.260	0.890
2020/01/31 02:34:24.5	91.220	0.350	-0.160	0.880
2020/01/31 02:34:24.6	91.200	0.320	-0.070	0.870
2020/01/31 02:34:24.7	91.190	0.300	0.010	0.870
2020/01/31 02:34:24.8	91.170	0.270	0.100	0.860
2020/01/31 02:34:24.9	91.150	0.250	0.180	0.850
2020/01/31 02:34:25.0	91.130	0.220	0.260	0.840
2020/01/31 02:34:25.1	91.110	0.190	0.340	0.830
2020/01/31 02:34:25.2	91.090	0.160	0.410	0.820
2020/01/31 02:34:25.3	91.070	0.130	0.470	0.810
2020/01/31 02:34:25.4	91.050	0.100	0.520	0.790
2020/01/31 02:34:25.5	91.040	0.080	0.560	0.780
2020/01/31 02:34:25.6	91.020	0.050	0.590	0.760
2020/01/31 02:34:25.7	91.010	0.020	0.620	0.740
2020/01/31 02:34:25.8	90.990	0.000	0.640	0.720
2020/01/31 02:34:25.9	90.990	-0.020	0.640	0.690
2020/01/31 02:34:26.0	90.980	-0.040	0.640	0.660
2020/01/31 02:34:26.1	90.960	-0.050	0.630	0.630
2020/01/31 02:34:26.2	90.950	-0.070	0.610	0.600
2020/01/31 02:34:26.3	90.950	-0.080	0.580	0.570
2020/01/31 02:34:26.4	90.950	-0.080	0.540	0.530
2020/01/31 02:34:26.5	90.960	-0.090	0.490	0.490
2020/01/31 02:34:26.6	90.970	-0.090	0.440	0.450
2020/01/31 02:34:26.7	90.970	-0.090	0.380	0.410
2020/01/31 02:34:26.8	90.990	-0.090	0.320	0.370
2020/01/31 02:34:26.9	91.000	-0.090	0.250	0.330
2020/01/31 02:34:27.0	91.020	-0.080	0.170	0.290
2020/01/31 02:34:27.1	91.050	-0.070	0.090	0.240
2020/01/31 02:34:27.2	91.070	-0.060	0.010	0.200
2020/01/31 02:34:27.3	91.090	-0.050	-0.070	0.160
2020/01/31 02:34:27.4	91.110	-0.030	-0.150	0.120
2020/01/31 02:34:27.5	91.130	-0.020	-0.240	0.090
2020/01/31 02:34:27.6	91.160	-0.000	-0.320	0.060
2020/01/31 02:34:27.7	91.180	0.010	-0.400	0.030
2020/01/31 02:34:27.8	91.200	0.030	-0.480	0.010
2020/01/31 02:34:27.9	91.220	0.040	-0.550	-0.010
2020/01/31 02:34:28.0	91.240	0.060	-0.620	-0.020
2020/01/31 02:34:28.1	91.250	0.070	-0.690	-0.020
2020/01/31 02:34:28.2	91.260	0.090	-0.740	-0.020
2020/01/31 02:34:28.3	91.280	0.100	-0.800	-0.010
2020/01/31 02:34:28.4	91.290	0.110	-0.840	-0.000
2020/01/31 02:34:28.5	91.300	0.110	-0.880	0.010
2020/01/31 02:34:28.6	91.300	0.120	-0.910	0.030
2020/01/31 02:34:28.7	91.310	0.120	-0.930	0.060
2020/01/31 02:34:28.8	91.310	0.130	-0.950	0.090
2020/01/31 02:34:28.9	91.310	0.120	-0.960	0.120
2020/01/31 02:34:29.0	91.300	0.120	-0.950	0.160
2020/01/31 02:34:29.1	91.290	0.110	-0.940	0.200
2020/01/31 02:34:29.2	91.280	0.100	-0.930	0.240
2020/01/31 02:34:29.3	91.270	0.090	-0.900	0.280
2020/01/31 02:34:29.4	91.250	0.080	-0.870	0.330
2020/01/31 02:34:29.5	91.240	0.060	-0.840	0.380
2020/01/31 02:34:29.6	91.220	0.040	-0.790	0.430
2020/01/31 02:34:29.7	91.200	0.010	-0.740	0.480
2020/01/31 02:34:29.8	91.180	-0.010	-0.690	0.540
2020/01/31 02:34:29.9	91.150	-0.040	-0.630	0.590
2020/01/31 02:34:30.0	91.130	-0.070	-0.570	0.650
2020/01/31 02:34:30.1	91.100	-0.100	-0.510	0.700
2020/01/31 02:34:30.2	91.080	-0.130	-0.450	0.760
2020/01/31 02:34:30.3	91.050	-0.160	-0.380	0.820
2020/01/31 02:34:30.4	91.030	-0.190	-0.320	0.870
2020/01/31 02:34:30.5	91.000	-0.230	-0.250	0.920
2020/01/31 02:34:30.6	90.980	-0.260	-0.190	0.980
2020/01/31 02:34:30.7	90.960	-0.300	-0.130	1.030
2020/01/31 02:34:30.8	90.940	-0.330	-0.070	1.070
2020/01/31 02:34:30.9	90.920	-0.360	-0.010	1.110
2020/01/31 02:34:31.0	90.900	-0.390	0.040	1.150
2020/01/31 02:34:31.1	90.900	-0.420	0.090	1.190
2020/01/31 02:34:31.2	90.890	-0.450	0.130	1.220
2020/01/31 02:34:31.3	90.890	-0.470	0.170	1.240
2020/01/31 02:34:31.4	90.890	-0.500	0.200	1.260
2020/01/31 02:34:31.5	90.890	-0.520	0.230	1.270
2020/01/31 02:34:31.6	90.900	-0.530	0.240	1.280
2020/01/31 02:34:31.7	90.920	-0.550	0.260	1.280
2020/01/31 02:34:31.8	90.930	-0.560	0.260	1.280
2020/01/31 02:34:31.9	90.950	-0.560	0.260	1.270
2020/01/31 02:34:32.0	90.970	-0.570	0.260	1.260
2020/01/31 02:34:32.1	91.000	-0.570	0.240	1.250
2020/01/31 02:34:32.2	91.020	-0.560	0.230	1.240
2020/01/31 02:34:32.3	91.050	-0.560	0.210	1.230
2020/01/31 02:34:32.4	91.070	-0.550	0.190	1.220
2020/01/31 02:34:32.5	91.100	-0.540	0.160	1.210
2020/01/31 02:34:32.6	91.120	-0.520	0.130	1.200
2020/01/31 02:34:32.7	91.140	-0.510	0.100	1.190
2020/01/31 02:34:32.8	91.150	-0.490	0.070	1.180
2020/01/31 02:34:32.9	91.170	-0.470	0.030	1.160
2020/01/31 02:34:33.0	91.180	-0.450	-0.000	1.150
2020/01/31 02:34:33.1	91.220	-0.420	-0.040	1.140
2020/01/31 02:34:33.2	91.230	-0.400	-0.070	1.120
2020/01/31 02:34:33.3	91.240	-0.370	-0.110	1.110
2020/01/31 02:34:33.4	91.240	-0.350	-0.140	1.090
2020/01/31 02:34:33.5	91.240	-0.320	-0.170	1.060
2020/01/31 02:34:33.6	91.250	-0.300	-0.200	1.040
2020/01/31 02:34:33.7	91.240	-0.270	-0.230	1.010
2020/01/31 02:34:33.8	91.240	-0.250	-0.250	0.990
2020/01/31 02:34:33.9	91.240	-0.220	-0.270	0.960
2020/01/31 02:34:34.0	91.230	-0.200	-0.290	0.930
2020/01/31 02:34:34.1	91.250	-0.170	-0.310	0.900
2020/01/31 02:34:34.2	91.240	-0.150	-0.330	0.870
2020/01/31 02:34:34.3	91.230	-0.120	-0.340	0.840
2020/01/31 02:34:34.4	91.220	-0.100	-0.350	0.820
2020/01/31 02:34:34.5	91.210	-0.080	-0.350	0.790
2020/01/31 02:34:34.6	91.200	-0.050	-0.360	0.770
2020/01/31 02:34:34.7	91.190	-0.030	-0.360	0.750
2020/01/31 02:34:34.8	91.170	-0.010	-0.350	0.730
2020/01/31 02:34:34.9	91.160	0.010	-0.350	0.710
2020/01/31 02:34:35.0	91.150	0.030	-0.340	0.700
2020/01/31 02:34:35.1	91.130	0.060	-0.330	0.690
2020/01/31 02:34:35.2	91.120	0.080	-0.320	0.690
2020/01/31 02:34:35.3	91.100	0.100	-0.310	0.680
2020/01/31 02:34:35.4	91.090	0.120	-0.290	0.680
2020/01/31 02:34:35.5	91.080	0.140	-0.280	0.680
2020/01/31 02:34:35.6	91.060	0.160	-0.260	0.680
2020/01/31 02:34:35.7	91.050	0.180	-0.250	0.690
2020/01/31 02:34:35.8	91.040	0.200	-0.230	0.690
2020/01/31 02:34:35.9	91.030	0.230	-0.210	0.700
2020/01/31 02:34:36.0	91.020	0.250	-0.200	0.700
2020/01/31 02:34:36.1	91.020	0.270	-0.180	0.710
2020/01/31 02:34:36.2	91.010	0.290	-0.170	0.710
2020/01/31 02:34:36.3	91.000	0.310	-0.160	0.710
2020/01/31 02:34:36.4	91.000	0.330	-0.150	0.710
2020/01/31 02:34:36.5	90.990	0.350	-0.140	0.710
2020/01/31 02:34:36.6	90.980	0.370	-0.130	0.700
2020/01/31 02:34:36.7	90.980	0.390	-0.130	0.680
2020/01/31 02:34:36.8	90.970	0.410	-0.120	0.670
2020/01/31 02:34:36.9	90.970	0.430	-0.120	0.650
2020/01/31 02:34:37.0	90.970	0.450	-0.120	0.620
2020/01/31 02:34:37.1	90.970	0.470	-0.120	0.590
2020/01/31 02:34:37.2	90.970	0.490	-0.130	0.560
2020/01/31 02:34:37.3	90.970	0.500	-0.130	0.520
2020/01/31 02:34:37.4	90.980	0.520	-0.140	0.490
2020/01/31 02:34:37.5	90.980	0.530	-0.150	0.450
2020/01/31 02:34:37.6	90.980	0.550	-0.160	0.400
2020/01/31 02:34:37.7	90.990	0.560	-0.170	0.360
2020/01/31 02:34:37.8	91.000	0.570	-0.180	0.320
2020/01/31 02:34:37.9	91.010	0.580	-0.200	0.280
2020/01/31 02:34:38.0	91.010	0.590	-0.210	0.240
2020/01/31 02:34:38.1	91.000	0.600	-0.230	0.200
2020/01/31 02:34:38.2	91.010	0.610	-0.250	0.170
2020/01/31 02:34:38.3	91.020	0.620	-0.260	0.140
2020/01/31 02:34:38.4	91.040	0.630	-0.280	0.110
2020/01/31 02:34:38.5	91.050	0.630	-0.300	0.090
2020/01/31 02:34:38.6	91.060	0.640	-0.320	0.070
2020/01/31 02:34:38.7	91.070	0.640	-0.340	0.060
2020/01/31 02:34:38.8	91.090	0.640	-0.360	0.050
2020/01/31 02:34:38.9	91.100	0.640	-0.380	0.040
2020/01/31 02:34:39.0	91.120	0.640	-0.400	0.040
2020/01/31 02:34:39.1	91.120	0.640	-0.420	0.050
2020/01/31 02:34:39.2	91.130	0.630	-0.430	0.050
2020/01/31 02:34:39.3	91.150	0.630	-0.450	0.070
2020/01/31 02:34:39.4	91.160	0.620	-0.460	0.080
2020/01/31 02:34:39.5	91.170	0.600	-0.470	0.100
2020/01/31 02:34:39.6	91.190	0.590	-0.480	0.120
2020/01/31 02:34:39.7	91.200	0.570	-0.480	0.150
2020/01/31 02:34:39.8	91.210	0.550	-0.490	0.180
2020/01/31 02:34:39.9	91.210	0.520	-0.490	0.210
2020/01/31 02:34:40.0	91.220	0.490	-0.480	0.240
2020/01/31 02:34:40.1	91.230	0.460	-0.480	0.280
2020/01/31 02:34:40.2	91.240	0.430	-0.470	0.320
2020/01/31 02:34:40.3	91.240	0.390	-0.450	0.360
2020/01/31 02:34:40.4	91.250	0.350	-0.440	0.400
2020/01/31 02:34:40.5	91.250	0.310	-0.420	0.440
2020/01/31 02:34:40.6	91.250	0.270	-0.400	0.480
2020/01/31 02:34:40.7	91.260	0.220	-0.380	0.530
2020/01/31 02:34:40.8	91.260	0.170	-0.360	0.570
2020/01/31 02:34:40.9	91.260	0.120	-0.330	0.620
2020/01/31 02:34:41.0	91.260	0.070	-0.310	0.660
2020/01/31 02:34:41.1	91.250	0.020	-0.280	0.710
2020/01/31 02:34:41.2	91.250	-0.040	-0.250	0.750
2020/01/31 02:34:41.3	91.260	-0.090	-0.220	0.800
2020/01/31 02:34:41.4	91.260	-0.150	-0.200	0.840
2020/01/31 02:34:41.5	91.260	-0.200	-0.170	0.880
2020/01/31 02:34:41.6	91.260	-0.250	-0.150	0.920
2020/01/31 02:34:41.7	91.260	-0.310	-0.120	0.960
2020/01/31 02:34:41.8	91.260	-0.360	-0.100	0.990
2020/01/31 02:34:41.9	91.260	-0.410	-0.080	1.020
2020/01/31 02:34:42.0	91.270	-0.450	-0.060	1.060
2020/01/31 02:34:42.1	91.260	-0.500	-0.040	1.090
2020/01/31 02:34:42.2	91.270	-0.540	-0.020	1.110
2020/01/31 02:34:42.3	91.280	-0.580	-0.010	1.140
2020/01/31 02:34:42.4	91.280	-0.610	0.000	1.170
2020/01/31 02:34:42.5	91.290	-0.640	0.010	1.190
2020/01/31 02:34:42.6	91.300	-0.670	0.020	1.220
2020/01/31 02:34:42.7	91.310	-0.700	0.030	1.240
2020/01/31 02:34:42.8	91.320	-0.720	0.030	1.260
2020/01/31 02:34:42.9	91.330	-0.730	0.030	1.280
2020/01/31 02:34:43.0	91.330	-0.750	0.030	1.300
2020/01/31 02:34:43.1	91.330	-0.750	0.030	1.320
2020/01/31 02:34:43.2	91.340	-0.760	0.020	1.340
2020/01/31 02:34:43.3	91.350	-0.760	0.020	1.360
2020/01/31 02:34:43.4	91.360	-0.760	0.010	1.380
2020/01/31 02:34:43.5	91.360	-0.750	-0.000	1.400
2020/01/31 02:34:43.6	91.370	-0.740	-0.020	1.410
2020/01/31 02:34:43.7	91.370	-0.730	-0.030	1.430
2020/01/31 02:34:43.8	91.380	-0.710	-0.050	1.440
2020/01/31 02:34:43.9	91.380	-0.690	-0.070	1.460
2020/01/31 02:34:44.0	91.380	-0.670	-0.090	1.470
2020/01/31 02:34:44.1	91.380	-0.640	-0.110	1.470
2020/01/31 02:34:44.2	91.380	-0.620	-0.130	1.480
2020/01/31 02:34:44.3	91.380	-0.590	-0.150	1.480
2020/01/31 02:34:44.4	91.380	-0.560	-0.170	1.470
2020/01/31 02:34:44.5	91.390	-0.530	-0.200	1.470
2020/01/31 02:34:44.6	91.390	-0.500	-0.220	1.450
2020/01/31 02:34:44.7	91.390	-0.460	-0.240	1.440
2020/01/31 02:34:44.8	91.390	-0.430	-0.270	1.420
2020/01/31 02:34:44.9	91.390	-0.400	-0.290	1.400
2020/01/31 02:34:45.0	91.390	-0.360	-0.310	1.370
2020/01/31 02:34:45.1	91.380	-0.330	-0.330	1.340
2020/01/31 02:34:45.2	91.390	-0.300	-0.350	1.310
2020/01/31 02:34:45.3	91.390	-0.260	-0.370	1.270
2020/01/31 02:34:45.4	91.390	-0.230	-0.390	1.230
2020/01/31 02:34:45.5	91.400	-0.200	-0.410	1.190
2020/01/31 02:34:45.6	91.410	-0.170	-0.420	1.150
2020/01/31 02:34:45.7	91.420	-0.150	-0.440	1.100
2020/01/31 02:34:45.8	91.430	-0.120	-0.440	1.050
2020/01/31 02:34:45.9	91.440	-0.100	-0.450	1.000
2020/01/31 02:34:46.0	91.450	-0.070	-0.450	0.950
2020/01/31 02:34:46.1	91.490	-0.050	-0.460	0.890
2020/01/31 02:34:46.2	91.510	-0.040	-0.450	0.840
2020/01/31 02:34:46.3	91.520	-0.020	-0.440	0.780
2020/01/31 02:34:46.4	91.540	-0.010	-0.430	0.730
2020/01/31 02:34:46.5	91.550	0.000	-0.410	0.670
2020/01/31 02:34:46.6	91.570	0.010	-0.390	0.620
2020/01/31 02:34:46.7	91.580	0.020	-0.360	0.570
2020/01/31 02:34:46.8	91.600	0.020	-0.330	0.510
2020/01/31 02:34:46.9	91.620	0.030	-0.300	0.460
2020/01/31 02:34:47.0	91.630	0.030	-0.270	0.410
2020/01/31 02:34:47.1	91.650	0.030	-0.220	0.360
2020/01/31 02:34:47.2	91.660	0.030	-0.190	0.310
2020/01/31 02:34:47.3	91.680	0.030	-0.140	0.260
2020/01/31 02:34:47.4	91.700	0.020	-0.100	0.220
2020/01/31 02:34:47.5	91.720	0.020	-0.060	0.170
2020/01/31 02:34:47.6	91.730	0.020	-0.020	0.130
2020/01/31 02:34:47.7	91.750	0.010	0.020	0.080
2020/01/31 02:34:47.8	91.770	0.010	0.060	0.040
2020/01/31 02:34:47.9	91.790	0.010	0.090	0.000
2020/01/31 02:34:48.0	91.800	0.010	0.130	-0.040
2020/01/31 02:34:48.1	91.820	0.000	0.160	-0.080
2020/01/31 02:34:48.2	91.830	0.000	0.180	-0.110
2020/01/31 02:34:48.3	91.850	0.010	0.210	-0.150
2020/01/31 02:34:48.4	91.870	0.010	0.230	-0.180
2020/01/31 02:34:48.5	91.880	0.010	0.240	-0.210
2020/01/31 02:34:48.6	91.900	0.020	0.250	-0.240
2020/01/31 02:34:48.7	91.910	0.020	0.260	-0.260
2020/01/31 02:34:48.8	91.930	0.030	0.250	-0.290
2020/01/31 02:34:48.9	91.940	0.040	0.250	-0.310
2020/01/31 02:34:49.0	91.960	0.060	0.230	-0.330
2020/01/31 02:34:49.1	91.980	0.070	0.220	-0.340
2020/01/31 02:34:49.2	92.000	0.090	0.200	-0.360
2020/01/31 02:34:49.3	92.010	0.110	0.170	-0.370
2020/01/31 02:34:49.4	92.020	0.130	0.130	-0.370
2020/01/31 02:34:49.5	92.030	0.150	0.090	-0.380
2020/01/31 02:34:49.6	92.040	0.170	0.050	-0.380
2020/01/31 02:34:49.7	92.050	0.200	-0.000	-0.380
2020/01/31 02:34:49.8	92.050	0.230	-0.050	-0.370
2020/01/31 02:34:49.9	92.060	0.250	-0.110	-0.360
2020/01/31 02:34:50.0	92.060	0.280	-0.160	-0.350
2020/01/31 02:34:50.1	92.070	0.310	-0.230	-0.330
2020/01/31 02:34:50.2	92.070	0.330	-0.280	-0.320
2020/01/31 02:34:50.3	92.070	0.360	-0.340	-0.300
2020/01/31 02:34:50.4	92.070	0.380	-0.390	-0.280
2020/01/31 02:34:50.5	92.060	0.400	-0.440	-0.250
2020/01/31 02:34:50.6	92.060	0.420	-0.490	-0.220
2020/01/31 02:34:50.7	92.050	0.440	-0.530	-0.190
2020/01/31 02:34:50.8	92.050	0.450	-0.570	-0.160
2020/01/31 02:34:50.9	92.040	0.460	-0.600	-0.120
2020/01/31 02:34:51.0	92.030	0.470	-0.630	-0.070
2020/01/31 02:34:51.1	92.030	0.470	-0.650	-0.030
2020/01/31 02:34:51.2	92.010	0.470	-0.670	0.020
2020/01/31 02:34:51.3	92.000	0.470	-0.680	0.070
2020/01/31 02:34:51.4	91.980	0.460	-0.680	0.120
2020/01/31 02:34:51.5	91.960	0.450	-0.680	0.180
2020/01/31 02:34:51.6	91.950	0.430	-0.670	0.230
2020/01/31 02:34:51.7	91.930	0.410	-0.660	0.290
2020/01/31 02:34:51.8	91.910	0.390	-0.640	0.350
2020/01/31 02:34:51.9	91.890	0.370	-0.620	0.410
2020/01/31 02:34:52.0	91.870	0.340	-0.590	0.460
2020/01/31 02:34:52.1	91.830	0.310	-0.560	0.520
2020/01/31 02:34:52.2	91.820	0.280	-0.530	0.580
2020/01/31 02:34:52.3	91.800	0.250	-0.490	0.630
2020/01/31 02:34:52.4	91.780	0.210	-0.460	0.680
2020/01/31 02:34:52.5	91.760	0.180	-0.430	0.720
2020/01/31 02:34:52.6	91.750	0.140	-0.390	0.760
2020/01/31 02:34:52.7	91.740	0.110	-0.360	0.800
2020/01/31 02:34:52.8	91.720	0.070	-0.330	0.830
2020/01/31 02:34:52.9	91.710	0.040	-0.300	0.850
2020/01/31 02:34:53.0	91.710	0.010	-0.270	0.880
2020/01/31 02:34:53.1	91.700	-0.020	-0.250	0.900
2020/01/31 02:34:53.2	91.700	-0.050	-0.230	0.910
2020/01/31 02:34:53.3	91.700	-0.070	-0.220	0.910
2020/01/31 02:34:53.4	91.700	-0.090	-0.210	0.910
2020/01/31 02:34:53.5	91.710	-0.110	-0.200	0.910
2020/01/31 02:34:53.6	91.720	-0.120	-0.200	0.900
2020/01/31 02:34:53.7	91.730	-0.130	-0.210	0.890
2020/01/31 02:34:53.8	91.740	-0.130	-0.210	0.880
2020/01/31 02:34:53.9	91.760	-0.130	-0.220	0.860
2020/01/31 02:34:54.0	91.780	-0.130	-0.240	0.850
2020/01/31 02:34:54.1	91.800	-0.130	-0.250	0.830
2020/01/31 02:34:54.2	91.820	-0.120	-0.270	0.810
2020/01/31 02:34:54.3	91.840	-0.110	-0.290	0.800
2020/01/31 02:34:54.4	91.860	-0.090	-0.310	0.780
2020/01/31 02:34:54.5	91.880	-0.070	-0.330	0.760
2020/01/31 02:34:54.6	91.910	-0.050	-0.350	0.750
2020/01/31 02:34:54.7	91.930	-0.030	-0.370	0.730
2020/01/31 02:34:54.8	91.960	-0.010	-0.390	0.720
2020/01/31 02:34:54.9	91.980	0.020	-0.410	0.710
2020/01/31 02:34:55.0	92.000	0.040	-0.420	0.700
2020/01/31 02:34:55.1	92.030	0.070	-0.440	0.700
2020/01/31 02:34:55.2	92.050	0.090	-0.450	0.690
2020/01/31 02:34:55.3	92.070	0.120	-0.460	0.690
2020/01/31 02:34:55.4	92.080	0.150	-0.460	0.680
2020/01/31 02:34:55.5	92.100	0.170	-0.460	0.680
2020/01/31 02:34:55.6	92.110	0.190	-0.460	0.680
2020/01/31 02:34:55.7	92.120	0.220	-0.450	0.690
2020/01/31 02:34:55.8	92.130	0.230	-0.440	0.690
2020/01/31 02:34:55.9	92.130	0.250	-0.430	0.700
2020/01/31 02:34:56.0	92.130	0.270	-0.410	0.710
2020/01/31 02:34:56.1	92.130	0.280	-0.390	0.720
2020/01/31 02:34:56.2	92.120	0.290	-0.360	0.730
2020/01/31 02:34:56.3	92.120	0.300	-0.330	0.750
2020/01/31 02:34:56.4	92.100	0.300	-0.300	0.760
2020/01/31 02:34:56.5	92.090	0.300	-0.260	0.780
2020/01/31 02:34:56.6	92.080	0.290	-0.220	0.800
2020/01/31 02:34:56.7	92.060	0.290	-0.180	0.820
2020/01/31 02:34:56.8	92.040	0.270	-0.130	0.830
2020/01/31 02:34:56.9	92.020	0.260	-0.080	0.850
2020/01/31 02:34:57.0	92.000	0.240	-0.030	0.870
2020/01/31 02:34:57.1	91.980	0.220	0.020	0.890
2020/01/31 02:34:57.2	91.960	0.200	0.070	0.910
2020/01/31 02:34:57.3	91.930	0.170	0.110	0.930
2020/01/31 02:34:57.4	91.910	0.140	0.160	0.940
2020/01/31 02:34:57.5	91.890	0.110	0.210	0.960
2020/01/31 02:34:57.6	91.860	0.070	0.250	0.970
2020/01/31 02:34:57.7	91.840	0.040	0.290	0.980
2020/01/31 02:34:57.8	91.820	-0.000	0.330	0.990
2020/01/31 02:34:57.9	91.800	-0.040	0.360	1.000
2020/01/31 02:34:58.0	91.780	-0.080	0.390	1.000
2020/01/31 02:34:58.1	91.790	-0.120	0.410	1.000
2020/01/31 02:34:58.2	91.770	-0.150	0.430	1.000
2020/01/31 02:34:58.3	91.770	-0.190	0.440	1.000
2020/01/31 02:34:58.4	91.760	-0.230	0.450	0.990
2020/01/31 02:34:58.5	91.760	-0.260	0.450	0.980
2020/01/31 02:34:58.6	91.760	-0.300	0.440	0.970
2020/01/31 02:34:58.7	91.760	-0.330	0.430	0.950
2020/01/31 02:34:58.8	91.770	-0.360	0.410	0.930
2020/01/31 02:34:58.9	91.780	-0.390	0.390	0.910
2020/01/31 02:34:59.0	91.790	-0.410	0.360	0.890
2020/01/31 02:34:59.1	91.800	-0.440	0.320	0.870
2020/01/31 02:34:59.2	91.820	-0.460	0.280	0.840
2020/01/31 02:34:59.3	91.850	-0.470	0.240	0.810
2020/01/31 02:34:59.4	91.870	-0.490	0.190	0.780
2020/01/31 02:34:59.5	91.900	-0.500	0.130	0.750
2020/01/31 02:34:59.6	91.920	-0.500	0.070	0.720
2020/01/31 02:34:59.7	91.950	-0.510	0.010	0.680
2020/01/31 02:34:59.8	91.990	-0.510	-0.050	0.650
2020/01/31 02:34:59.9	92.020	-0.500	-0.110	0.620
2020/01/31 02:35:00.0	92.050	-0.490	-0.180	0.590
2020/01/31 02:35:00.1	92.090	-0.480	-0.250	0.560
2020/01/31 02:35:00.2	92.120	-0.470	-0.320	0.540
2020/01/31 02:35:00.3	92.150	-0.450	-0.380	0.510
2020/01/31 02:35:00.4	92.180	-0.430	-0.440	0.490
2020/01/31 02:35:00.5	92.210	-0.410	-0.500	0.480
2020/01/31 02:35:00.6	92.240	-0.390	-0.560	0.460
2020/01/31 02:35:00.7	92.260	-0.360	-0.610	0.450
2020/01/31 02:35:00.8	92.290	-0.330	-0.660	0.450
2020/01/31 02:35:00.9	92.310	-0.300	-0.700	0.440
2020/01/31 02:35:01.0	92.330	-0.270	-0.740	0.440
2020/01/31 02:35:01.1	92.330	-0.240	-0.770	0.450
2020/01/31 02:35:01.2	92.340	-0.210	-0.790	0.450
2020/01/31 02:35:01.3	92.360	-0.180	-0.810	0.460
2020/01/31 02:35:01.4	92.360	-0.150	-0.810	0.470
2020/01/31 02:35:01.5	92.370	-0.130	-0.810	0.480
2020/01/31 02:35:01.6	92.370	-0.100	-0.800	0.500
2020/01/31 02:35:01.7	92.370	-0.080	-0.790	0.520
2020/01/31 02:35:01.8	92.360	-0.060	-0.760	0.540
2020/01/31 02:35:01.9	92.350	-0.040	-0.730	0.570
2020/01/31 02:35:02.0	92.340	-0.020	-0.700	0.600
2020/01/31 02:35:02.1	92.340	-0.010	-0.650	0.620
2020/01/31 02:35:02.2	92.320	0.000	-0.610	0.650
2020/01/31 02:35:02.3	92.310	0.010	-0.560	0.690
2020/01/31 02:35:02.4	92.290	0.020	-0.500	0.720
2020/01/31 02:35:02.5	92.270	0.020	-0.440	0.750
2020/01/31 02:35:02.6	92.240	0.020	-0.390	0.780
2020/01/31 02:35:02.7	92.220	0.020	-0.330	0.810
2020/01/31 02:35:02.8	92.190	0.020	-0.270	0.840
2020/01/31 02:35:02.9	92.160	0.010	-0.210	0.870
2020/01/31 02:35:03.0	92.140	0.010	-0.150	0.900
2020/01/31 02:35:03.1	92.080	-0.000	-0.090	0.930
2020/01/31 02:35:03.2	92.050	-0.010	-0.040	0.950
2020/01/31 02:35:03.3	92.030	-0.020	0.010	0.970
2020/01/31 02:35:03.4	92.000	-0.030	0.050	0.990
2020/01/31 02:35:03.5	91.980	-0.040	0.090	1.010
2020/01/31 02:35:03.6	91.950	-0.050	0.130	1.020
2020/01/31 02:35:03.7	91.930	-0.060	0.150	1.020
2020/01/31 02:35:03.8	91.910	-0.070	0.180	1.020
2020/01/31 02:35:03.9	91.900	-0.080	0.190	1.020
2020/01/31 02:35:04.0	91.890	-0.080	0.200	1.010
2020/01/31 02:35:04.1	91.860	-0.090	0.200	1.000
2020/01/31 02:35:04.2	91.850	-0.090	0.200	0.980
2020/01/31 02:35:04.3	91.850	-0.090	0.190	0.960
2020/01/31 02:35:04.4	91.850	-0.090	0.170	0.940
2020/01/31 02:35:04.5	91.840	-0.080	0.140	0.910
2020/01/31 02:35:04.6	91.850	-0.070	0.110	0.880
2020/01/31 02:35:04.7	91.850	-0.060	0.070	0.850
2020/01/31 02:35:04.8	91.860	-0.050	0.030	0.810
2020/01/31 02:35:04.9	91.870	-0.030	-0.020	0.770
2020/01/31 02:35:05.0	91.880	-0.010	-0.070	0.730
2020/01/31 02:35:05.1	91.870	0.010	-0.120	0.680
2020/01/31 02:35:05.2	91.880	0.040	-0.180	0.640
2020/01/31 02:35:05.3	91.890	0.060	-0.240	0.590
2020/01/31 02:35:05.4	91.900	0.090	-0.300	0.550
2020/01/31 02:35:05.5	91.920	0.120	-0.360	0.500
2020/01/31 02:35:05.6	91.930	0.150	-0.420	0.460
2020/01/31 02:35:05.7	91.940	0.180	-0.480	0.410
2020/01/31 02:35:05.8	91.950	0.210	-0.540	0.380
2020/01/31 02:35:05.9	91.960	0.240	-0.580	0.340
2020/01/31 02:35:06.0	91.970	0.270	-0.630	0.310
2020/01/31 02:35:06.1	92.000	0.300	-0.670	0.280
2020/01/31 02:35:06.2	92.000	0.330	-0.700	0.250
2020/01/31 02:35:06.3	92.000	0.360	-0.730	0.230
2020/01/31 02:35:06.4	92.010	0.380	-0.750	0.210
2020/01/31 02:35:06.5	92.010	0.400	-0.760	0.200
2020/01/31 02:35:06.6	92.010	0.420	-0.760	0.190
2020/01/31 02:35:06.7	92.000	0.440	-0.750	0.190
2020/01/31 02:35:06.8	92.000	0.450	-0.740	0.190
2020/01/31 02:35:06.9	91.990	0.470	-0.720	0.190
2020/01/31 02:35:07.0	91.990	0.470	-0.690	0.200
2020/01/31 02:35:07.1	91.980	0.480	-0.660	0.220
2020/01/31 02:35:07.2	91.970	0.480	-0.620	0.240
2020/01/31 02:35:07.3	91.970	0.480	-0.580	0.260
2020/01/31 02:35:07.4	91.960	0.470	-0.530	0.280
2020/01/31 02:35:07.5	91.950	0.470	-0.480	0.300
2020/01/31 02:35:07.6	91.940	0.460	-0.430	0.330
2020/01/31 02:35:07.7	91.930	0.440	-0.370	0.350
2020/01/31 02:35:07.8	91.920	0.430	-0.320	0.380
2020/01/31 02:35:07.9	91.910	0.410	-0.270	0.400
2020/01/31 02:35:08.0	91.900	0.400	-0.210	0.430
2020/01/31 02:35:08.1	91.900	0.380	-0.160	0.450
2020/01/31 02:35:08.2	91.890	0.360	-0.120	0.480
2020/01/31 02:35:08.3	91.890	0.340	-0.080	0.500
2020/01/31 02:35:08.4	91.890	0.320	-0.040	0.520
2020/01/31 02:35:08.5	91.890	0.310	-0.010	0.540
2020/01/31 02:35:08.6	91.890	0.290	0.020	0.550
2020/01/31 02:35:08.7	91.900	0.270	0.040	0.570
2020/01/31 02:35:08.8	91.910	0.260	0.050	0.580
2020/01/31 02:35:08.9	91.920	0.240	0.060	0.590
2020/01/31 02:35:09.0	91.940	0.230	0.060	0.600
2020/01/31 02:35:09.1	91.950	0.220	0.050	0.610
2020/01/31 02:35:09.2	91.970	0.210	0.040	0.620
2020/01/31 02:35:09.3	92.000	0.200	0.030	0.620
2020/01/31 02:35:09.4	92.020	0.200	0.000	0.620
2020/01/31 02:35:09.5	92.050	0.190	-0.020	0.620
2020/01/31 02:35:09.6	92.080	0.190	-0.050	0.620
2020/01/31 02:35:09.7	92.110	0.190	-0.080	0.630
2020/01/31 02:35:09.8	92.150	0.190	-0.120	0.620
2020/01/31 02:35:09.9	92.180	0.190	-0.150	0.620
2020/01/31 02:35:10.0	92.210	0.190	-0.190	0.620
2020/01/31 02:35:10.1	92.240	0.190	-0.230	0.620
2020/01/31 02:35:10.2	92.270	0.190	-0.260	0.630
2020/01/31 02:35:10.3	92.300	0.190	-0.300	0.630
2020/01/31 02:35:10.4	92.330	0.190	-0.330	0.630
2020/01/31 02:35:10.5	92.350	0.190	-0.350	0.640
2020/01/31 02:35:10.6	92.370	0.190	-0.380	0.640
2020/01/31 02:35:10.7	92.390	0.190	-0.400	0.650
2020/01/31 02:35:10.8	92.410	0.180	-0.410	0.660
2020/01/31 02:35:10.9	92.420	0.180	-0.420	0.680
2020/01/31 02:35:11.0	92.430	0.170	-0.420	0.690
2020/01/31 02:35:11.1	92.440	0.160	-0.420	0.710
2020/01/31 02:35:11.2	92.440	0.150	-0.410	0.730
2020/01/31 02:35:11.3	92.450	0.130	-0.390	0.740
2020/01/31 02:35:11.4	92.450	0.110	-0.370	0.760
2020/01/31 02:35:11.5	92.450	0.090	-0.340	0.780
2020/01/31 02:35:11.6	92.440	0.060	-0.300	0.800
2020/01/31 02:35:11.7	92.440	0.040	-0.260	0.810
2020/01/31 02:35:11.8	92.430	0.000	-0.210	0.830
2020/01/31 02:35:11.9	92.430	-0.030	-0.160	0.850
2020/01/31 02:35:12.0	92.420	-0.070	-0.100	0.870
2020/01/31 02:35:12.1	92.420	-0.110	-0.040	0.890
2020/01/31 02:35:12.2	92.410	-0.150	0.030	0.900
2020/01/31 02:35:12.3	92.400	-0.200	0.100	0.920
2020/01/31 02:35:12.4	92.390	-0.240	0.170	0.940
2020/01/31 02:35:12.5	92.380	-0.290	0.240	0.950
2020/01/31 02:35:12.6	92.370	-0.340	0.310	0.970
2020/01/31 02:35:12.7	92.360	-0.390	0.380	0.980
2020/01/31 02:35:12.8	92.350	-0.440	0.450	1.000
2020/01/31 02:35:12.9	92.340	-0.500	0.520	1.010
2020/01/31 02:35:13.0	92.320	-0.550	0.580	1.020
2020/01/31 02:35:13.1	92.330	-0.600	0.630	1.040
2020/01/31 02:35:13.2	92.320	-0.640	0.680	1.050
2020/01/31 02:35:13.3	92.300	-0.690	0.730	1.060
2020/01/31 02:35:13.4	92.290	-0.730	0.760	1.070
2020/01/31 02:35:13.5	92.290	-0.770	0.790	1.080
2020/01/31 02:35:13.6	92.280	-0.810	0.800	1.080
2020/01/31 02:35:13.7	92.270	-0.840	0.810	1.090
2020/01/31 02:35:13.8	92.260	-0.860	0.810	1.090
2020/01/31 02:35:13.9	92.260	-0.880	0.790	1.090
2020/01/31 02:35:14.0	92.250	-0.900	0.760	1.090
2020/01/31 02:35:14.1	92.250	-0.910	0.730	1.080
2020/01/31 02:35:14.2	92.250	-0.910	0.670	1.060
2020/01/31 02:35:14.3	92.250	-0.900	0.610	1.050
2020/01/31 02:35:14.4	92.250	-0.890	0.540	1.030
2020/01/31 02:35:14.5	92.260	-0.870	0.450	1.000
2020/01/31 02:35:14.6	92.260	-0.840	0.360	0.970
2020/01/31 02:35:14.7	92.270	-0.810	0.250	0.930
2020/01/31 02:35:14.8	92.280	-0.780	0.140	0.890
2020/01/31 02:35:14.9	92.300	-0.730	0.030	0.840
2020/01/31 02:35:15.0	92.310	-0.680	-0.090	0.790
2020/01/31 02:35:15.1	92.320	-0.630	-0.220	0.730
2020/01/31 02:35:15.2	92.340	-0.570	-0.350	0.680
2020/01/31 02:35:15.3	92.360	-0.510	-0.480	0.620
2020/01/31 02:35:15.4	92.380	-0.440	-0.610	0.570
2020/01/31 02:35:15.5	92.400	-0.370	-0.730	0.510
2020/01/31 02:35:15.6	92.410	-0.300	-0.850	0.450
2020/01/31 02:35:15.7	92.430	-0.230	-0.970	0.400
2020/01/31 02:35:15.8	92.450	-0.150	-1.090	0.350
2020/01/31 02:35:15.9	92.470	-0.080	-1.190	0.310
2020/01/31 02:35:16.0	92.490	-0.000	-1.290	0.260
2020/01/31 02:35:16.1	92.480	0.070	-1.380	0.230
2020/01/31 02:35:16.2	92.500	0.150	-1.470	0.200
2020/01/31 02:35:16.3	92.510	0.220	-1.540	0.170
2020/01/31 02:35:16.4	92.530	0.290	-1.600	0.150
2020/01/31 02:35:16.5	92.540	0.360	-1.650	0.140
2020/01/31 02:35:16.6	92.550	0.430	-1.690	0.130
2020/01/31 02:35:16.7	92.560	0.490	-1.720	0.130
2020/01/31 02:35:16.8	92.570	0.540	-1.730	0.130
2020/01/31 02:35:16.9	92.580	0.600	-1.740	0.140
2020/01/31 02:35:17.0	92.590	0.640	-1.730	0.150
2020/01/31 02:35:17.1	92.590	0.690	-1.710	0.170
2020/01/31 02:35:17.2	92.600	0.720	-1.670	0.190
2020/01/31 02:35:17.3	92.610	0.750	-1.630	0.220
2020/01/31 02:35:17.4	92.610	0.780	-1.570	0.240
2020/01/31 02:35:17.5	92.620	0.790	-1.510	0.270
2020/01/31 02:35:17.6	92.620	0.810	-1.430	0.300
2020/01/31 02:35:17.7	92.620	0.810	-1.340	0.330
2020/01/31 02:35:17.8	92.620	0.810	-1.240	0.360
2020/01/31 02:35:17.9	92.620	0.800	-1.140	0.390
2020/01/31 02:35:18.0	92.610	0.790	-1.020	0.420
2020/01/31 02:35:18.1	92.620	0.770	-0.890	0.460
2020/01/31 02:35:18.2	92.610	0.740	-0.760	0.490
2020/01/31 02:35:18.3	92.600	0.710	-0.630	0.520
2020/01/31 02:35:18.4	92.590	0.670	-0.490	0.550
2020/01/31 02:35:18.5	92.570	0.630	-0.350	0.570
2020/01/31 02:35:18.6	92.560	0.580	-0.210	0.600
2020/01/31 02:35:18.7	92.540	0.530	-0.060	0.620
2020/01/31 02:35:18.8	92.520	0.480	0.080	0.640
2020/01/31 02:35:18.9	92.500	0.420	0.230	0.660
2020/01/31 02:35:19.0	92.480	0.360	0.370	0.670
2020/01/31 02:35:19.1	92.460	0.300	0.500	0.680
2020/01/31 02:35:19.2	92.440	0.240	0.630	0.700
2020/01/31 02:35:19.3	92.420	0.170	0.750	0.700
2020/01/31 02:35:19.4	92.400	0.110	0.870	0.710
2020/01/31 02:35:19.5	92.380	0.040	0.980	0.710
2020/01/31 02:35:19.6	92.350	-0.020	1.070	0.720
2020/01/31 02:35:19.7	92.330	-0.080	1.160	0.710
2020/01/31 02:35:19.8	92.310	-0.140	1.240	0.710
2020/01/31 02:35:19.9	92.300	-0.200	1.300	0.700
2020/01/31 02:35:20.0	92.280	-0.250	1.350	0.690
2020/01/31 02:35:20.1	92.270	-0.300	1.400	0.680
2020/01/31 02:35:20.2	92.260	-0.350	1.420	0.670
2020/01/31 02:35:20.3	92.250	-0.390	1.430	0.650
2020/01/31 02:35:20.4	92.240	-0.420	1.420	0.630
2020/01/31 02:35:20.5	92.230	-0.450	1.400	0.600
2020/01/31 02:35:20.6	92.230	-0.470	1.360	0.580
2020/01/31 02:35:20.7	92.220	-0.490	1.310	0.550
2020/01/31 02:35:20.8	92.220	-0.500	1.240	0.520
2020/01/31 02:35:20.9	92.220	-0.500	1.160	0.490
2020/01/31 02:35:21.0	92.230	-0.500	1.070	0.460
2020/01/31 02:35:21.1	92.230	-0.480	0.960	0.430
2020/01/31 02:35:21.2	92.230	-0.470	0.840	0.400
2020/01/31 02:35:21.3	92.240	-0.440	0.710	0.370
2020/01/31 02:35:21.4	92.250	-0.410	0.570	0.340
2020/01/31 02:35:21.5	92.260	-0.380	0.420	0.310
2020/01/31 02:35:21.6	92.270	-0.330	0.260	0.280
2020/01/31 02:35:21.7	92.290	-0.290	0.110	0.250
2020/01/31 02:35:21.8	92.300	-0.240	-0.060	0.220
2020/01/31 02:35:21.9	92.320	-0.190	-0.220	0.190
2020/01/31 02:35:22.0	92.340	-0.130	-0.380	0.160
2020/01/31 02:35:22.1	92.350	-0.070	-0.550	0.130
2020/01/31 02:35:22.2	92.370	-0.010	-0.710	0.100
2020/01/31 02:35:22.3	92.400	0.050	-0.860	0.080
2020/01/31 02:35:22.4	92.420	0.110	-1.000	0.060
2020/01/31 02:35:22.5	92.440	0.160	-1.140	0.040
2020/01/31 02:35:22.6	92.470	0.220	-1.270	0.020
2020/01/31 02:35:22.7	92.490	0.270	-1.380	0.010
2020/01/31 02:35:22.8	92.510	0.320	-1.480	-0.000
2020/01/31 02:35:22.9	92.530	0.370	-1.570	-0.010
2020/01/31 02:35:23.0	92.550	0.410	-1.640	-0.010
2020/01/31 02:35:23.1	92.580	0.440	-1.700	-0.000
2020/01/31 02:35:23.2	92.590	0.470	-1.740	0.010
2020/01/31 02:35:23.3	92.610	0.490	-1.770	0.020
2020/01/31 02:35:23.4	92.620	0.510	-1.770	0.030
2020/01/31 02:35:23.5	92.640	0.520	-1.770	0.060
2020/01/31 02:35:23.6	92.650	0.520	-1.740	0.080
2020/01/31 02:35:23.7	92.650	0.520	-1.700	0.110
2020/01/31 02:35:23.8	92.660	0.510	-1.650	0.150
2020/01/31 02:35:23.9	92.670	0.490	-1.580	0.190
2020/01/31 02:35:24.0	92.670	0.460	-1.490	0.240
2020/01/31 02:35:24.1	92.670	0.430	-1.390	0.290
2020/01/31 02:35:24.2	92.670	0.390	-1.290	0.340
2020/01/31 02:35:24.3	92.670	0.350	-1.170	0.390
2020/01/31 02:35:24.4	92.670	0.300	-1.040	0.450
2020/01/31 02:35:24.5	92.660	0.240	-0.900	0.510
2020/01/31 02:35:24.6	92.660	0.190	-0.760	0.570
2020/01/31 02:35:24.7	92.650	0.130	-0.610	0.630
2020/01/31 02:35:24.8	92.640	0.060	-0.460	0.690
2020/01/31 02:35:24.9	92.630	-0.000	-0.310	0.750
2020/01/31 02:35:25.0	92.620	-0.070	-0.160	0.810
2020/01/31 02:35:25.1	92.610	-0.140	0.000	0.870
2020/01/31 02:35:25.2	92.600	-0.210	0.150	0.920
2020/01/31 02:35:25.3	92.580	-0.270	0.300	0.970
2020/01/31 02:35:25.4	92.570	-0.340	0.440	1.020
2020/01/31 02:35:25.5	92.560	-0.400	0.580	1.060
2020/01/31 02:35:25.6	92.540	-0.460	0.710	1.100
2020/01/31 02:35:25.7	92.520	-0.520	0.830	1.140
2020/01/31 02:35:25.8	92.510	-0.580	0.940	1.170
2020/01/31 02:35:25.9	92.490	-0.620	1.040	1.200
2020/01/31 02:35:26.0	92.480	-0.670	1.120	1.220
2020/01/31 02:35:26.1	92.450	-0.710	1.200	1.240
2020/01/31 02:35:26.2	92.440	-0.740	1.250	1.250
2020/01/31 02:35:26.3	92.420	-0.760	1.300	1.260
2020/01/31 02:35:26.4	92.410	-0.780	1.320	1.270
2020/01/31 02:35:26.5	92.390	-0.790	1.330	1.260
2020/01/31 02:35:26.6	92.380	-0.800	1.330	1.260
2020/01/31 02:35:26.7	92.370	-0.800	1.310	1.250
2020/01/31 02:35:26.8	92.360	-0.780	1.270	1.230
2020/01/31 02:35:26.9	92.360	-0.770	1.220	1.210
2020/01/31 02:35:27.0	92.350	-0.740	1.150	1.190
2020/01/31 02:35:27.1	92.350	-0.710	1.060	1.160
2020/01/31 02:35:27.2	92.350	-0.670	0.960	1.130
2020/01/31 02:35:27.3	92.360	-0.620	0.850	1.090
2020/01/31 02:35:27.4	92.360	-0.570	0.730	1.050
2020/01/31 02:35:27.5	92.370	-0.510	0.600	1.010
2020/01/31 02:35:27.6	92.380	-0.440	0.460	0.970
2020/01/31 02:35:27.7	92.400	-0.380	0.320	0.930
2020/01/31 02:35:27.8	92.410	-0.300	0.160	0.890
2020/01/31 02:35:27.9	92.430	-0.230	0.010	0.850
2020/01/31 02:35:28.0	92.440	-0.150	-0.140	0.810
2020/01/31 02:35:28.1	92.470	-0.070	-0.300	0.780
2020/01/31 02:35:28.2	92.480	0.010	-0.460	0.740
2020/01/31 02:35:28.3	92.500	0.090	-0.600	0.700
2020/01/31 02:35:28.4	92.510	0.170	-0.750	0.660
2020/01/31 02:35:28.5	92.530	0.240	-0.880	0.630
2020/01/31 02:35:28.6	92.550	0.320	-1.010	0.590
2020/01/31 02:35:28.7	92.560	0.390	-1.120	0.550
2020/01/31 02:35:28.8	92.580	0.450	-1.230	0.520
2020/01/31 02:35:28.9	92.590	0.520	-1.320	0.480
2020/01/31 02:35:29.0	92.610	0.570	-1.390	0.440
2020/01/31 02:35:29.1	92.620	0.620	-1.450	0.400
2020/01/31 02:35:29.2	92.630	0.670	-1.490	0.360
2020/01/31 02:35:29.3	92.650	0.700	-1.520	0.330
2020/01/31 02:35:29.4	92.660	0.730	-1.530	0.290
2020/01/31 02:35:29.5	92.670	0.750	-1.530	0.250
2020/01/31 02:35:29.6	92.680	0.770	-1.500	0.220
2020/01/31 02:35:29.7	92.690	0.780	-1.460	0.190
2020/01/31 02:35:29.8	92.700	0.770	-1.400	0.170
2020/01/31 02:35:29.9	92.710	0.770	-1.330	0.150
2020/01/31 02:35:30.0	92.720	0.750	-1.250	0.130
2020/01/31 02:35:30.1	92.730	0.730	-1.150	0.120
2020/01/31 02:35:30.2	92.730	0.690	-1.040	0.110
2020/01/31 02:35:30.3	92.730	0.660	-0.920	0.110
2020/01/31 02:35:30.4	92.740	0.610	-0.790	0.120
2020/01/31 02:35:30.5	92.740	0.570	-0.650	0.130
2020/01/31 02:35:30.6	92.740	0.510	-0.510	0.140
2020/01/31 02:35:30.7	92.740	0.450	-0.370	0.160
2020/01/31 02:35:30.8	92.740	0.390	-0.220	0.190
2020/01/31 02:35:30.9	92.730	0.330	-0.070	0.220
2020/01/31 02:35:31.0	92.730	0.260	0.070	0.250
2020/01/31 02:35:31.1	92.720	0.190	0.210	0.290
2020/01/31 02:35:31.2	92.710	0.130	0.350	0.330
2020/01/31 02:35:31.3	92.700	0.060	0.480	0.370
2020/01/31 02:35:31.4	92.700	-0.010	0.590	0.410
2020/01/31 02:35:31.5	92.690	-0.080	0.700	0.460
2020/01/31 02:35:31.6	92.680	-0.140	0.800	0.500
2020/01/31 02:35:31.7	92.670	-0.200	0.880	0.540
2020/01/31 02:35:31.8	92.660	-0.260	0.950	0.580
2020/01/31 02:35:31.9	92.650	-0.310	1.010	0.620
2020/01/31 02:35:32.0	92.640	-0.360	1.050	0.660
2020/01/31 02:35:32.1	92.630	-0.410	1.070	0.690
2020/01/31 02:35:32.2	92.620	-0.440	1.070	0.720
2020/01/31 02:35:32.3	92.610	-0.470	1.060	0.740
2020/01/31 02:35:32.4	92.610	-0.500	1.030	0.760
2020/01/31 02:35:32.5	92.600	-0.510	0.990	0.780
2020/01/31 02:35:32.6	92.600	-0.520	0.920	0.790
2020/01/31 02:35:32.7	92.600	-0.520	0.850	0.800
2020/01/31 02:35:32.8	92.590	-0.520	0.760	0.810
2020/01/31 02:35:32.9	92.590	-0.510	0.650	0.810
2020/01/31 02:35:33.0	92.590	-0.490	0.540	0.810
2020/01/31 02:35:33.1	92.590	-0.470	0.410	0.820
2020/01/31 02:35:33.2	92.580	-0.440	0.280	0.820
2020/01/31 02:35:33.3	92.580	-0.400	0.140	0.810
2020/01/31 02:35:33.4	92.570	-0.360	0.000	0.820
2020/01/31 02:35:33.5	92.570	-0.320	-0.140	0.820
2020/01/31 02:35:33.6	92.560	-0.280	-0.280	0.820
2020/01/31 02:35:33.7	92.550	-0.230	-0.420	0.830
2020/01/31 02:35:33.8	92.540	-0.180	-0.560	0.840
2020/01/31 02:35:33.9	92.530	-0.120	-0.690	0.850
2020/01/31 02:35:34.0	92.510	-0.070	-0.820	0.860
2020/01/31 02:35:34.1	92.490	-0.020	-0.940	0.870
2020/01/31 02:35:34.2	92.470	0.030	-1.050	0.890
2020/01/31 02:35:34.3	92.460	0.080	-1.150	0.900
2020/01/31 02:35:34.4	92.450	0.130	-1.240	0.920
2020/01/31 02:35:34.5	92.430	0.180	-1.310	0.940
2020/01/31 02:35:34.6	92.420	0.220	-1.380	0.950
2020/01/31 02:35:34.7	92.400	0.270	-1.440	0.970
2020/01/31 02:35:34.8	92.390	0.300	-1.480	0.990
2020/01/31 02:35:34.9	92.380	0.340	-1.510	1.010
2020/01/31 02:35:35.0	92.370	0.370	-1.520	1.020
2020/01/31 02:35:35.1	92.360	0.390	-1.530	1.040
2020/01/31 02:35:35.2	92.350	0.420	-1.520	1.060
2020/01/31 02:35:35.3	92.350	0.430	-1.490	1.080
2020/01/31 02:35:35.4	92.340	0.440	-1.460	1.090
2020/01/31 02:35:35.5	92.340	0.450	-1.410	1.100
2020/01/31 02:35:35.6	92.330	0.450	-1.350	1.120
2020/01/31 02:35:35.7	92.330	0.450	-1.280	1.130
2020/01/31 02:35:35.8	92.330	0.440	-1.200	1.140
2020/01/31 02:35:35.9	92.330	0.420	-1.120	1.150
2020/01/31 02:35:36.0	92.330	0.410	-1.020	1.160
2020/01/31 02:35:36.1	92.330	0.390	-0.910	1.170
2020/01/31 02:35:36.2	92.330	0.360	-0.800	1.180
2020/01/31 02:35:36.3	92.340	0.330	-0.680	1.190
2020/01/31 02:35:36.4	92.340	0.300	-0.560	1.200
2020/01/31 02:35:36.5	92.340	0.260	-0.440	1.200
2020/01/31 02:35:36.6	92.350	0.220	-0.310	1.210
2020/01/31 02:35:36.7	92.350	0.180	-0.180	1.210
2020/01/31 02:35:36.8	92.360	0.140	-0.060	1.210
2020/01/31 02:35:36.9	92.360	0.090	0.070	1.210
2020/01/31 02:35:37.0	92.360	0.050	0.190	1.210
2020/01/31 02:35:37.1	92.360	0.000	0.310	1.200
2020/01/31 02:35:37.2	92.370	-0.050	0.430	1.190
2020/01/31 02:35:37.3	92.370	-0.090	0.540	1.180
2020/01/31 02:35:37.4	92.370	-0.140	0.640	1.160
2020/01/31 02:35:37.5	92.360	-0.180	0.730	1.140
2020/01/31 02:35:37.6	92.360	-0.230	0.820	1.120
2020/01/31 02:35:37.7	92.360	-0.270	0.890	1.090
2020/01/31 02:35:37.8	92.360	-0.310	0.950	1.070
2020/01/31 02:35:37.9	92.350	-0.340	1.010	1.040
2020/01/31 02:35:38.0	92.350	-0.370	1.040	1.000
2020/01/31 02:35:38.1	92.350	-0.400	1.070	0.970
2020/01/31 02:35:38.2	92.350	-0.420	1.080	0.930
2020/01/31 02:35:38.3	92.350	-0.430	1.080	0.890
2020/01/31 02:35:38.4	92.340	-0.450	1.070	0.850
2020/01/31 02:35:38.5	92.340	-0.450	1.040	0.800
2020/01/31 02:35:38.6	92.340	-0.450	1.000	0.760
2020/01/31 02:35:38.7	92.340	-0.450	0.950	0.710
2020/01/31 02:35:38.8	92.340	-0.440	0.890	0.670
2020/01/31 02:35:38.9	92.350	-0.420	0.820	0.620
2020/01/31 02:35:39.0	92.350	-0.400	0.730	0.570
2020/01/31 02:35:39.1	92.370	-0.380	0.640	0.530
2020/01/31 02:35:39.2	92.380	-0.350	0.540	0.480
2020/01/31 02:35:39.3	92.390	-0.310	0.440	0.440
2020/01/31 02:35:39.4	92.400	-0.280	0.330	0.400
2020/01/31 02:35:39.5	92.420	-0.240	0.220	0.350
2020/01/31 02:35:39.6	92.440	-0.200	0.110	0.310
2020/01/31 02:35:39.7	92.460	-0.150	-0.000	0.280
2020/01/31 02:35:39.8	92.480	-0.100	-0.120	0.240
2020/01/31 02:35:39.9	92.500	-0.060	-0.220	0.200
2020/01/31 02:35:40.0	92.530	-0.010	-0.330	0.170
2020/01/31 02:35:40.1	92.560	0.040	-0.430	0.140
2020/01/31 02:35:40.2	92.580	0.090	-0.520	0.120
2020/01/31 02:35:40.3	92.610	0.130	-0.610	0.090
2020/01/31 02:35:40.4	92.640	0.180	-0.690	0.070
2020/01/31 02:35:40.5	92.660	0.220	-0.760	0.050
2020/01/31 02:35:40.6	92.690	0.260	-0.820	0.040
2020/01/31 02:35:40.7	92.710	0.300	-0.870	0.020
2020/01/31 02:35:40.8	92.730	0.330	-0.920	0.010
2020/01/31 02:35:40.9	92.760	0.370	-0.950	0.010
2020/01/31 02:35:41.0	92.780	0.390	-0.980	0.010
2020/01/31 02:35:41.1	92.800	0.420	-0.990	0.010
2020/01/31 02:35:41.2	92.810	0.440	-1.000	0.010
2020/01/31 02:35:41.3	92.830	0.450	-0.990	0.020
2020/01/31 02:35:41.4	92.840	0.460	-0.980	0.020
2020/01/31 02:35:41.5	92.850	0.470	-0.960	0.030
2020/01/31 02:35:41.6	92.850	0.470	-0.930	0.050
2020/01/31 02:35:41.7	92.860	0.470	-0.890	0.060
2020/01/31 02:35:41.8	92.860	0.470	-0.850	0.080
2020/01/31 02:35:41.9	92.850	0.460	-0.800	0.100
2020/01/31 02:35:42.0	92.850	0.440	-0.740	0.120
2020/01/31 02:35:42.1	92.830	0.430	-0.680	0.150
2020/01/31 02:35:42.2	92.820	0.400	-0.610	0.180
2020/01/31 02:35:42.3	92.800	0.380	-0.550	0.210
2020/01/31 02:35:42.4	92.790	0.350	-0.470	0.240
2020/01/31 02:35:42.5	92.770	0.320	-0.400	0.280
2020/01/31 02:35:42.6	92.750	0.290	-0.320	0.320
2020/01/31 02:35:42.7	92.720	0.260	-0.250	0.360
2020/01/31 02:35:42.8	92.700	0.220	-0.180	0.400
2020/01/31 02:35:42.9	92.670	0.180	-0.110	0.440
2020/01/31 02:35:43.0	92.650	0.150	-0.040	0.480
2020/01/31 02:35:43.1	92.600	0.110	0.030	0.520
2020/01/31 02:35:43.2	92.570	0.070	0.090	0.570
2020/01/31 02:35:43.3	92.540	0.040	0.140	0.610
2020/01/31 02:35:43.4	92.510	-0.000	0.190	0.650
2020/01/31 02:35:43.5	92.480	-0.040	0.230	0.690
2020/01/31 02:35:43.6	92.450	-0.070	0.260	0.730
2020/01/31 02:35:43.7	92.420	-0.100	0.280	0.770
2020/01/31 02:35:43.8	92.400	-0.130	0.300	0.800
2020/01/31 02:35:43.9	92.370	-0.150	0.300	0.840
2020/01/31 02:35:44.0	92.350	-0.180	0.300	0.870
2020/01/31 02:35:44.1	92.330	-0.200	0.290	0.900
2020/01/31 02:35:44.2	92.320	-0.210	0.270	0.920
2020/01/31 02:35:44.3	92.300	-0.230	0.240	0.940
2020/01/31 02:35:44.4	92.290	-0.240	0.210	0.960
2020/01/31 02:35:44.5	92.290	-0.250	0.160	0.970
2020/01/31 02:35:44.6	92.280	-0.250	0.120	0.990
2020/01/31 02:35:44.7	92.270	-0.250	0.060	1.000
2020/01/31 02:35:44.8	92.270	-0.250	0.000	1.010
2020/01/31 02:35:44.9	92.270	-0.240	-0.060	1.020
2020/01/31 02:35:45.0	92.270	-0.230	-0.120	1.020
2020/01/31 02:35:45.1	92.250	-0.220	-0.190	1.030
2020/01/31 02:35:45.2	92.250	-0.210	-0.260	1.040
2020/01/31 02:35:45.3	92.260	-0.200	-0.330	1.040
2020/01/31 02:35:45.4	92.260	-0.180	-0.390	1.040
2020/01/31 02:35:45.5	92.270	-0.160	-0.450	1.050
2020/01/31 02:35:45.6	92.270	-0.140	-0.520	1.050
2020/01/31 02:35:45.7	92.280	-0.120	-0.570	1.040
2020/01/31 02:35:45.8	92.280	-0.090	-0.630	1.040
2020/01/31 02:35:45.9	92.290	-0.070	-0.680	1.040
2020/01/31 02:35:46.0	92.300	-0.050	-0.720	1.030
2020/01/31 02:35:46.1	92.290	-0.020	-0.760	1.020
2020/01/31 02:35:46.2	92.300	0.000	-0.790	1.020
2020/01/31 02:35:46.3	92.310	0.030	-0.820	1.010
2020/01/31 02:35:46.4	92.320	0.050	-0.840	1.000
2020/01/31 02:35:46.5	92.320	0.070	-0.860	0.990
2020/01/31 02:35:46.6	92.330	0.090	-0.870	0.980
2020/01/31 02:35:46.7	92.340	0.110	-0.870	0.970
2020/01/31 02:35:46.8	92.340	0.130	-0.860	0.950
2020/01/31 02:35:46.9	92.350	0.150	-0.850	0.940
2020/01/31 02:35:47.0	92.350	0.170	-0.840	0.930
2020/01/31 02:35:47.1	92.350	0.180	-0.820	0.930
2020/01/31 02:35:47.2	92.350	0.200	-0.790	0.920
2020/01/31 02:35:47.3	92.350	0.210	-0.760	0.910
2020/01/31 02:35:47.4	92.350	0.220	-0.720	0.910
2020/01/31 02:35:47.5	92.350	0.230	-0.680	0.900
2020/01/31 02:35:47.6	92.350	0.230	-0.630	0.900
2020/01/31 02:35:47.7	92.350	0.240	-0.580	0.900
2020/01/31 02:35:47.8	92.350	0.240	-0.520	0.900
2020/01/31 02:35:47.9	92.350	0.240	-0.470	0.910
2020/01/31 02:35:48.0	92.340	0.230	-0.400	0.920
2020/01/31 02:35:48.1	92.350	0.230	-0.340	0.930
2020/01/31 02:35:48.2	92.350	0.220	-0.270	0.950
2020/01/31 02:35:48.3	92.350	0.210	-0.200	0.960
2020/01/31 02:35:48.4	92.340	0.200	-0.130	0.980
2020/01/31 02:35:48.5	92.340	0.180	-0.060	0.990
2020/01/31 02:35:48.6	92.330	0.170	0.020	1.010
2020/01/31 02:35:48.7	92.330	0.150	0.090	1.020
2020/01/31 02:35:48.8	92.320	0.130	0.170	1.040
2020/01/31 02:35:48.9	92.320	0.100	0.240	1.060
2020/01/31 02:35:49.0	92.310	0.080	0.310	1.070
2020/01/31 02:35:49.1	92.320	0.050	0.380	1.090
2020/01/31 02:35:49.2	92.320	0.020	0.450	1.100
2020/01/31 02:35:49.3	92.320	-0.010	0.510	1.110
2020/01/31 02:35:49.4	92.320	-0.040	0.560	1.120
2020/01/31 02:35:49.5	92.310	-0.070	0.610	1.120
2020/01/31 02:35:49.6	92.310	-0.100	0.660	1.130
2020/01/31 02:35:49.7	92.310	-0.130	0.700	1.120
2020/01/31 02:35:49.8	92.310	-0.160	0.730	1.120
2020/01/31 02:35:49.9	92.310	-0.190	0.750	1.110
2020/01/31 02:35:50.0	92.310	-0.210	0.770	1.100
2020/01/31 02:35:50.1	92.310	-0.240	0.780	1.080
2020/01/31 02:35:50.2	92.310	-0.260	0.770	1.060
2020/01/31 02:35:50.3	92.310	-0.290	0.760	1.040
2020/01/31 02:35:50.4	92.310	-0.300	0.750	1.010
2020/01/31 02:35:50.5	92.310	-0.320	0.720	0.980
2020/01/31 02:35:50.6	92.310	-0.330	0.690	0.950
2020/01/31 02:35:50.7	92.310	-0.340	0.640	0.910
2020/01/31 02:35:50.8	92.310	-0.350	0.590	0.870
2020/01/31 02:35:50.9	92.310	-0.350	0.540	0.830
2020/01/31 02:35:51.0	92.320	-0.350	0.470	0.790
2020/01/31 02:35:51.1	92.330	-0.350	0.400	0.740
2020/01/31 02:35:51.2	92.330	-0.340	0.320	0.700
2020/01/31 02:35:51.3	92.330	-0.320	0.240	0.650
2020/01/31 02:35:51.4	92.340	-0.310	0.160	0.610
2020/01/31 02:35:51.5	92.340	-0.290	0.070	0.560
2020/01/31 02:35:51.6	92.350	-0.260	-0.020	0.520
2020/01/31 02:35:51.7	92.350	-0.240	-0.110	0.470
2020/01/31 02:35:51.8	92.360	-0.200	-0.200	0.430
2020/01/31 02:35:51.9	92.360	-0.170	-0.290	0.390
2020/01/31 02:35:52.0	92.370	-0.130	-0.390	0.350
2020/01/31 02:35:52.1	92.380	-0.090	-0.480	0.310
2020/01/31 02:35:52.2	92.390	-0.050	-0.570	0.280
2020/01/31 02:35:52.3	92.400	-0.010	-0.660	0.250
2020/01/31 02:35:52.4	92.410	0.040	-0.740	0.220
2020/01/31 02:35:52.5	92.430	0.090	-0.820	0.200
2020/01/31 02:35:52.6	92.440	0.140	-0.900	0.180
2020/01/31 02:35:52.7	92.460	0.180	-0.970	0.160
2020/01/31 02:35:52.8	92.480	0.230	-1.030	0.150
2020/01/31 02:35:52.9	92.490	0.280	-1.090	0.150
2020/01/31 02:35:53.0	92.510	0.330	-1.140	0.140
2020/01/31 02:35:53.1	92.520	0.370	-1.190	0.150
2020/01/31 02:35:53.2	92.540	0.410	-1.230	0.150
2020/01/31 02:35:53.3	92.550	0.450	-1.250	0.160
2020/01/31 02:35:53.4	92.570	0.490	-1.280	0.170
2020/01/31 02:35:53.5	92.580	0.520	-1.290	0.190
2020/01/31 02:35:53.6	92.590	0.550	-1.290	0.210
2020/01/31 02:35:53.7	92.600	0.580	-1.280	0.230
2020/01/31 02:35:53.8	92.610	0.600	-1.270	0.260
2020/01/31 02:35:53.9	92.620	0.620	-1.250	0.280
2020/01/31 02:35:54.0	92.620	0.630	-1.220	0.310
2020/01/31 02:35:54.1	92.600	0.640	-1.180	0.350
2020/01/31 02:35:54.2	92.600	0.650	-1.130	0.380
2020/01/31 02:35:54.3	92.600	0.650	-1.070	0.410
2020/01/31 02:35:54.4	92.600	0.640	-1.010	0.440
2020/01/31 02:35:54.5	92.590	0.630	-0.940	0.470
2020/01/31 02:35:54.6	92.580	0.610	-0.870	0.510
2020/01/31 02:35:54.7	92.570	0.590	-0.790	0.540
2020/01/31 02:35:54.8	92.560	0.560	-0.700	0.570
2020/01/31 02:35:54.9	92.550	0.530	-0.610	0.600
2020/01/31 02:35:55.0	92.530	0.500	-0.520	0.640
2020/01/31 02:35:55.1	92.530	0.460	-0.420	0.670
2020/01/31 02:35:55.2	92.510	0.420	-0.320	0.700
2020/01/31 02:35:55.3	92.490	0.370	-0.220	0.730
2020/01/31 02:35:55.4	92.470	0.330	-0.130	0.760
2020/01/31 02:35:55.5	92.460	0.280	-0.030	0.790
2020/01/31 02:35:55.6	92.440	0.220	0.060	0.830
2020/01/31 02:35:55.7	92.420	0.170	0.150	0.860
2020/01/31 02:35:55.8	92.400	0.110	0.230	0.890
2020/01/31 02:35:55.9	92.380	0.060	0.310	0.920
2020/01/31 02:35:56.0	92.360	0.000	0.380	0.940
2020/01/31 02:35:56.1	92.340	-0.050	0.450	0.980
2020/01/31 02:35:56.2	92.320	-0.110	0.510	1.000
2020/01/31 02:35:56.3	92.310	-0.160	0.560	1.030
2020/01/31 02:35:56.4	92.290	-0.210	0.610	1.050
2020/01/31 02:35:56.5	92.280	-0.260	0.650	1.070
2020/01/31 02:35:56.6	92.260	-0.310	0.680	1.090
2020/01/31 02:35:56.7	92.250	-0.360	0.700	1.110
2020/01/31 02:35:56.8	92.240	-0.400	0.710	1.120
2020/01/31 02:35:56.9	92.230	-0.440	0.720	1.140
2020/01/31 02:35:57.0	92.220	-0.470	0.710	1.150
2020/01/31 02:35:57.1	92.230	-0.500	0.710	1.160
2020/01/31 02:35:57.2	92.220	-0.530	0.690	1.160
2020/01/31 02:35:57.3	92.210	-0.550	0.670	1.160
2020/01/31 02:35:57.4	92.210	-0.570	0.640	1.160
2020/01/31 02:35:57.5	92.210	-0.590	0.600	1.160
2020/01/31 02:35:57.6	92.200	-0.600	0.560	1.150
2020/01/31 02:35:57.7	92.200	-0.610	0.520	1.140
2020/01/31 02:35:57.8	92.200	-0.610	0.470	1.120
2020/01/31 02:35:57.9	92.200	-0.610	0.410	1.110
2020/01/31 02:35:58.0	92.210	-0.600	0.350	1.090
2020/01/31 02:35:58.1	92.210	-0.590	0.280	1.060
2020/01/31 02:35:58.2	92.210	-0.570	0.220	1.040
2020/01/31 02:35:58.3	92.220	-0.560	0.150	1.010
2020/01/31 02:35:58.4	92.220	-0.540	0.090	0.980
2020/01/31 02:35:58.5	92.230	-0.510	0.020	0.950
2020/01/31 02:35:58.6	92.240	-0.480	-0.050	0.920
2020/01/31 02:35:58.7	92.250	-0.450	-0.120	0.890
2020/01/31 02:35:58.8	92.260	-0.420	-0.190	0.860
2020/01/31 02:35:58.9	92.270	-0.390	-0.260	0.830
2020/01/31 02:35:59.0	92.280	-0.350	-0.330	0.800
2020/01/31 02:35:59.1	92.270	-0.310	-0.390	0.770
2020/01/31 02:35:59.2	92.280	-0.270	-0.450	0.740
2020/01/31 02:35:59.3	92.300	-0.230	-0.520	0.710
2020/01/31 02:35:59.4	92.310	-0.190	-0.570	0.690
2020/01/31 02:35:59.5	92.320	-0.140	-0.620	0.670
2020/01/31 02:35:59.6	92.340	-0.100	-0.670	0.650
2020/01/31 02:35:59.7	92.350	-0.060	-0.720	0.630
2020/01/31 02:35:59.8	92.360	-0.020	-0.760	0.610
2020/01/31 02:35:59.9	92.380	0.020	-0.800	0.600
2020/01/31 02:36:00.0	92.390	0.060	-0.830	0.590
2020/01/31 02:36:00.1	92.410	0.100	-0.850	0.580
2020/01/31 02:36:00.2	92.430	0.130	-0.870	0.570
2020/01/31 02:36:00.3	92.440	0.170	-0.880	0.560
2020/01/31 02:36:00.4	92.450	0.200	-0.890	0.560
2020/01/31 02:36:00.5	92.470	0.230	-0.900	0.550
2020/01/31 02:36:00.6	92.480	0.250	-0.890	0.550
2020/01/31 02:36:00.7	92.490	0.280	-0.890	0.540
2020/01/31 02:36:00.8	92.510	0.300	-0.870	0.540
2020/01/31 02:36:00.9	92.520	0.320	-0.860	0.540
2020/01/31 02:36:01.0	92.530	0.340	-0.830	0.540
2020/01/31 02:36:01.1	92.540	0.350	-0.810	0.540
2020/01/31 02:36:01.2	92.550	0.360	-0.780	0.550
2020/01/31 02:36:01.3	92.550	0.370	-0.740	0.550
2020/01/31 02:36:01.4	92.560	0.380	-0.710	0.560
2020/01/31 02:36:01.5	92.560	0.390	-0.670	0.580
2020/01/31 02:36:01.6	92.570	0.390	-0.620	0.590
2020/01/31 02:36:01.7	92.570	0.390	-0.580	0.610
2020/01/31 02:36:01.8	92.570	0.390	-0.530	0.620
2020/01/31 02:36:01.9	92.560	0.380	-0.480	0.640
2020/01/31 02:36:02.0	92.560	0.380	-0.440	0.660
2020/01/31 02:36:02.1	92.550	0.370	-0.390	0.690
2020/01/31 02:36:02.2	92.540	0.360	-0.340	0.720
2020/01/31 02:36:02.3	92.530	0.340	-0.290	0.740
2020/01/31 02:36:02.4	92.520	0.330	-0.240	0.760
2020/01/31 02:36:02.5	92.510	0.310	-0.190	0.780
2020/01/31 02:36:02.6	92.500	0.300	-0.140	0.800
2020/01/31 02:36:02.7	92.480	0.280	-0.090	0.820
2020/01/31 02:36:02.8	92.470	0.260	-0.050	0.840
2020/01/31 02:36:02.9	92.450	0.230	-0.000	0.860
2020/01/31 02:36:03.0	92.430	0.210	0.040	0.870
2020/01/31 02:36:03.1	92.440	0.180	0.090	0.880
2020/01/31 02:36:03.2	92.420	0.160	0.130	0.890
2020/01/31 02:36:03.3	92.400	0.130	0.170	0.890
2020/01/31 02:36:03.4	92.380	0.110	0.200	0.890
2020/01/31 02:36:03.5	92.360	0.080	0.230	0.890
2020/01/31 02:36:03.6	92.340	0.050	0.260	0.880
2020/01/31 02:36:03.7	92.330	0.030	0.290	0.870
2020/01/31 02:36:03.8	92.310	0.000	0.310	0.860
2020/01/31 02:36:03.9	92.290	-0.020	0.330	0.850
2020/01/31 02:36:04.0	92.280	-0.050	0.350	0.840
2020/01/31 02:36:04.1	92.270	-0.070	0.370	0.830
2020/01/31 02:36:04.2	92.250	-0.090	0.370	0.810
2020/01/31 02:36:04.3	92.240	-0.110	0.380	0.800
2020/01/31 02:36:04.4	92.230	-0.130	0.380	0.780
2020/01/31 02:36:04.5	92.220	-0.150	0.370	0.770
2020/01/31 02:36:04.6	92.200	-0.170	0.360	0.760
2020/01/31 02:36:04.7	92.190	-0.180	0.350	0.750
2020/01/31 02:36:04.8	92.190	-0.190	0.330	0.740
2020/01/31 02:36:04.9	92.180	-0.200	0.310	0.730
2020/01/31 02:36:05.0	92.180	-0.210	0.280	0.720
2020/01/31 02:36:05.1	92.160	-0.210	0.240	0.700
2020/01/31 02:36:05.2	92.160	-0.210	0.210	0.690
2020/01/31 02:36:05.3	92.160	-0.210	0.170	0.680
2020/01/31 02:36:05.4	92.170	-0.210	0.130	0.670
2020/01/31 02:36:05.5	92.170	-0.210	0.090	0.660
2020/01/31 02:36:05.6	92.180	-0.210	0.040	0.650
2020/01/31 02:36:05.7	92.200	-0.200	-0.010	0.640
2020/01/31 02:36:05.8	92.210	-0.190	-0.060	0.620
2020/01/31 02:36:05.9	92.230	-0.190	-0.110	0.610
2020/01/31 02:36:06.0	92.240	-0.180	-0.160	0.590
2020/01/31 02:36:06.1	92.270	-0.170	-0.210	0.580
2020/01/31 02:36:06.2	92.290	-0.160	-0.260	0.560
2020/01/31 02:36:06.3	92.320	-0.150	-0.310	0.540
2020/01/31 02:36:06.4	92.340	-0.140	-0.360	0.520
2020/01/31 02:36:06.5	92.360	-0.130	-0.410	0.500
2020/01/31 02:36:06.6	92.380	-0.120	-0.450	0.470
2020/01/31 02:36:06.7	92.400	-0.110	-0.490	0.450
2020/01/31 02:36:06.8	92.430	-0.100	-0.530	0.420
2020/01/31 02:36:06.9	92.450	-0.090	-0.560	0.400
2020/01/31 02:36:07.0	92.470	-0.080	-0.590	0.370
2020/01/31 02:36:07.1	92.490	-0.080	-0.620	0.350
2020/01/31 02:36:07.2	92.510	-0.070	-0.650	0.330
2020/01/31 02:36:07.3	92.530	-0.060	-0.670	0.300
2020/01/31 02:36:07.4	92.540	-0.050	-0.680	0.280
2020/01/31 02:36:07.5	92.560	-0.050	-0.700	0.270
2020/01/31 02:36:07.6	92.570	-0.040	-0.710	0.250
2020/01/31 02:36:07.7	92.580	-0.030	-0.710	0.240
2020/01/31 02:36:07.8	92.590	-0.020	-0.710	0.240
2020/01/31 02:36:07.9	92.590	-0.020	-0.710	0.240
2020/01/31 02:36:08.0	92.600	-0.010	-0.710	0.240
2020/01/31 02:36:08.1	92.590	0.000	-0.700	0.250
2020/01/31 02:36:08.2	92.600	0.010	-0.690	0.270
2020/01/31 02:36:08.3	92.600	0.020	-0.670	0.280
2020/01/31 02:36:08.4	92.600	0.040	-0.660	0.310
2020/01/31 02:36:08.5	92.590	0.050	-0.640	0.340
2020/01/31 02:36:08.6	92.590	0.060	-0.620	0.370
2020/01/31 02:36:08.7	92.590	0.080	-0.600	0.400
2020/01/31 02:36:08.8	92.580	0.090	-0.580	0.440
2020/01/31 02:36:08.9	92.570	0.110	-0.560	0.490
2020/01/31 02:36:09.0	92.560	0.130	-0.540	0.530
2020/01/31 02:36:09.1	92.550	0.150	-0.520	0.580
2020/01/31 02:36:09.2	92.540	0.170	-0.500	0.630
2020/01/31 02:36:09.3	92.530	0.180	-0.480	0.690
2020/01/31 02:36:09.4	92.510	0.200	-0.460	0.740
2020/01/31 02:36:09.5	92.490	0.220	-0.440	0.790
2020/01/31 02:36:09.6	92.480	0.240	-0.420	0.840
2020/01/31 02:36:09.7	92.460	0.260	-0.400	0.890
2020/01/31 02:36:09.8	92.430	0.270	-0.380	0.940
2020/01/31 02:36:09.9	92.410	0.280	-0.360	0.980
2020/01/31 02:36:10.0	92.380	0.300	-0.330	1.020
2020/01/31 02:36:10.1	92.360	0.300	-0.310	1.060
2020/01/31 02:36:10.2	92.330	0.310	-0.280	1.100
2020/01/31 02:36:10.3	92.300	0.310	-0.250	1.130
2020/01/31 02:36:10.4	92.270	0.310	-0.220	1.150
2020/01/31 02:36:10.5	92.250	0.310	-0.190	1.170
2020/01/31 02:36:10.6	92.220	0.300	-0.160	1.190
2020/01/31 02:36:10.7	92.190	0.290	-0.130	1.190
2020/01/31 02:36:10.8	92.160	0.280	-0.100	1.200
2020/01/31 02:36:10.9	92.130	0.260	-0.060	1.190
2020/01/31 02:36:11.0	92.110	0.240	-0.030	1.190
2020/01/31 02:36:11.1	92.100	0.210	0.010	1.170
2020/01/31 02:36:11.2	92.080	0.190	0.040	1.160
2020/01/31 02:36:11.3	92.060	0.160	0.070	1.140
2020/01/31 02:36:11.4	92.040	0.130	0.110	1.110
2020/01/31 02:36:11.5	92.030	0.100	0.140	1.080
2020/01/31 02:36:11.6	92.020	0.060	0.170	1.050
2020/01/31 02:36:11.7	92.010	0.030	0.200	1.020
2020/01/31 02:36:11.8	92.010	-0.010	0.220	0.990
2020/01/31 02:36:11.9	92.010	-0.040	0.240	0.950
2020/01/31 02:36:12.0	92.010	-0.080	0.260	0.910
2020/01/31 02:36:12.1	92.030	-0.110	0.280	0.870
2020/01/31 02:36:12.2	92.040	-0.150	0.290	0.830
2020/01/31 02:36:12.3	92.050	-0.180	0.290	0.790
2020/01/31 02:36:12.4	92.070	-0.210	0.300	0.750
2020/01/31 02:36:12.5	92.080	-0.230	0.300	0.710
2020/01/31 02:36:12.6	92.100	-0.260	0.290	0.670
2020/01/31 02:36:12.7	92.120	-0.280	0.280	0.630
2020/01/31 02:36:12.8	92.150	-0.300	0.270	0.600
2020/01/31 02:36:12.9	92.170	-0.310	0.250	0.570
2020/01/31 02:36:13.0	92.190	-0.320	0.230	0.540
2020/01/31 02:36:13.1	92.220	-0.330	0.200	0.510
2020/01/31 02:36:13.2	92.240	-0.330	0.170	0.490
2020/01/31 02:36:13.3	92.270	-0.330	0.140	0.480
2020/01/31 02:36:13.4	92.290	-0.320	0.100	0.460
2020/01/31 02:36:13.5	92.310	-0.320	0.060	0.450
2020/01/31 02:36:13.6	92.330	-0.310	0.020	0.450
2020/01/31 02:36:13.7	92.340	-0.290	-0.020	0.440
2020/01/31 02:36:13.8	92.360	-0.280	-0.060	0.440
2020/01/31 02:36:13.9	92.370	-0.260	-0.110	0.450
2020/01/31 02:36:14.0	92.390	-0.240	-0.150	0.450
2020/01/31 02:36:14.1	92.390	-0.220	-0.200	0.470
2020/01/31 02:36:14.2	92.400	-0.200	-0.250	0.480
2020/01/31 02:36:14.3	92.400	-0.180	-0.290	0.490
2020/01/31 02:36:14.4	92.410	-0.150	-0.330	0.510
2020/01/31 02:36:14.5	92.410	-0.130	-0.370	0.530
2020/01/31 02:36:14.6	92.410	-0.110	-0.410	0.550
2020/01/31 02:36:14.7	92.410	-0.090	-0.450	0.570
2020/01/31 02:36:14.8	92.410	-0.070	-0.480	0.590
2020/01/31 02:36:14.9	92.410	-0.050	-0.500	0.620
2020/01/31 02:36:15.0	92.410	-0.030	-0.520	0.640
2020/01/31 02:36:15.1	92.410	-0.020	-0.540	0.670
2020/01/31 02:36:15.2	92.400	-0.010	-0.550	0.690
2020/01/31 02:36:15.3	92.400	0.000	-0.560	0.720
2020/01/31 02:36:15.4	92.390	0.010	-0.560	0.750
2020/01/31 02:36:15.5	92.380	0.010	-0.550	0.790
2020/01/31 02:36:15.6	92.380	0.010	-0.550	0.820
2020/01/31 02:36:15.7	92.370	0.000	-0.530	0.850
2020/01/31 02:36:15.8	92.360	-0.000	-0.510	0.890
2020/01/31 02:36:15.9	92.350	-0.010	-0.490	0.920
2020/01/31 02:36:16.0	92.340	-0.030	-0.460	0.960
2020/01/31 02:36:16.1	92.310	-0.040	-0.430	1.000
2020/01/31 02:36:16.2	92.300	-0.060	-0.390	1.030
2020/01/31 02:36:16.3	92.290	-0.080	-0.350	1.070
2020/01/31 02:36:16.4	92.280	-0.110	-0.310	1.100
2020/01/31 02:36:16.5	92.270	-0.130	-0.270	1.130
2020/01/31 02:36:16.6	92.260	-0.160	-0.230	1.160
2020/01/31 02:36:16.7	92.250	-0.180	-0.180	1.180
2020/01/31 02:36:16.8	92.240	-0.210	-0.140	1.210
2020/01/31 02:36:16.9	92.230	-0.240	-0.090	1.230
2020/01/31 02:36:17.0	92.230	-0.260	-0.050	1.240
2020/01/31 02:36:17.1	92.230	-0.290	-0.010	1.250
2020/01/31 02:36:17.2	92.220	-0.310	0.020	1.260
2020/01/31 02:36:17.3	92.210	-0.340	0.060	1.260
2020/01/31 02:36:17.4	92.200	-0.360	0.090	1.260
2020/01/31 02:36:17.5	92.200	-0.370	0.120	1.250
2020/01/31 02:36:17.6	92.190	-0.390	0.150	1.230
2020/01/31 02:36:17.7	92.190	-0.400	0.170	1.220
2020/01/31 02:36:17.8	92.180	-0.410	0.180	1.190
2020/01/31 02:36:17.9	92.180	-0.420	0.190	1.170
2020/01/31 02:36:18.0	92.180	-0.420	0.200	1.130
2020/01/31 02:36:18.1	92.160	-0.420	0.200	1.100
2020/01/31 02:36:18.2	92.170	-0.420	0.200	1.060
2020/01/31 02:36:18.3	92.170	-0.410	0.190	1.020
2020/01/31 02:36:18.4	92.180	-0.400	0.180	0.980
2020/01/31 02:36:18.5	92.180	-0.380	0.160	0.930
2020/01/31 02:36:18.6	92.190	-0.360	0.130	0.890
2020/01/31 02:36:18.7	92.200	-0.340	0.100	0.840
2020/01/31 02:36:18.8	92.200	-0.320	0.070	0.800
2020/01/31 02:36:18.9	92.210	-0.290	0.030	0.760
2020/01/31 02:36:19.0	92.220	-0.260	-0.010	0.720
2020/01/31 02:36:19.1	92.220	-0.230	-0.050	0.690
2020/01/31 02:36:19.2	92.230	-0.190	-0.100	0.650
2020/01/31 02:36:19.3	92.230	-0.160	-0.150	0.630
2020/01/31 02:36:19.4	92.230	-0.120	-0.200	0.600
2020/01/31 02:36:19.5	92.240	-0.080	-0.260	0.580
2020/01/31 02:36:19.6	92.240	-0.030	-0.310	0.560
2020/01/31 02:36:19.7	92.240	0.010	-0.370	0.550
2020/01/31 02:36:19.8	92.240	0.050	-0.420	0.540
2020/01/31 02:36:19.9	92.230	0.100	-0.470	0.530
2020/01/31 02:36:20.0	92.230	0.140	-0.530	0.530
2020/01/31 02:36:20.1	92.210	0.190	-0.580	0.530
2020/01/31 02:36:20.2	92.200	0.230	-0.630	0.530
2020/01/31 02:36:20.3	92.200	0.270	-0.680	0.530
2020/01/31 02:36:20.4	92.190	0.320	-0.730	0.540
2020/01/31 02:36:20.5	92.180	0.360	-0.770	0.540
2020/01/31 02:36:20.6	92.170	0.400	-0.810	0.540
2020/01/31 02:36:20.7	92.160	0.440	-0.840	0.540
2020/01/31 02:36:20.8	92.150	0.480	-0.880	0.550
2020/01/31 02:36:20.9	92.140	0.510	-0.900	0.550
2020/01/31 02:36:21.0	92.130	0.550	-0.930	0.550
2020/01/31 02:36:21.1	92.140	0.580	-0.940	0.540
2020/01/31 02:36:21.2	92.120	0.610	-0.950	0.540
2020/01/31 02:36:21.3	92.110	0.630	-0.960	0.540
2020/01/31 02:36:21.4	92.100	0.660	-0.960	0.540
2020/01/31 02:36:21.5	92.090	0.680	-0.960	0.540
2020/01/31 02:36:21.6	92.070	0.700	-0.950	0.540
2020/01/31 02:36:21.7	92.060	0.710	-0.940	0.540
2020/01/31 02:36:21.8	92.040	0.720	-0.920	0.540
2020/01/31 02:36:21.9	92.030	0.730	-0.890	0.540
2020/01/31 02:36:22.0	92.010	0.740	-0.860	0.540
2020/01/31 02:36:22.1	92.000	0.740	-0.830	0.550
2020/01/31 02:36:22.2	91.980	0.740	-0.790	0.560
2020/01/31 02:36:22.3	91.970	0.740	-0.750	0.570
2020/01/31 02:36:22.4	91.960	0.730	-0.700	0.570
2020/01/31 02:36:22.5	91.950	0.710	-0.650	0.580
2020/01/31 02:36:22.6	91.950	0.700	-0.590	0.600
2020/01/31 02:36:22.7	91.940	0.680	-0.530	0.610
2020/01/31 02:36:22.8	91.930	0.660	-0.470	0.630
2020/01/31 02:36:22.9	91.930	0.630	-0.400	0.650
2020/01/31 02:36:23.0	91.930	0.600	-0.340	0.670
2020/01/31 02:36:23.1	91.920	0.570	-0.270	0.700
2020/01/31 02:36:23.2	91.920	0.530	-0.210	0.720
2020/01/31 02:36:23.3	91.930	0.500	-0.140	0.750
2020/01/31 02:36:23.4	91.930	0.460	-0.080	0.780
2020/01/31 02:36:23.5	91.930	0.410	-0.010	0.810
2020/01/31 02:36:23.6	91.940	0.370	0.050	0.840
2020/01/31 02:36:23.7	91.940	0.320	0.110	0.860
2020/01/31 02:36:23.8	91.950	0.270	0.170	0.890
2020/01/31 02:36:23.9	91.960	0.220	0.220	0.910
2020/01/31 02:36:24.0	91.960	0.170	0.270	0.940
2020/01/31 02:36:24.1	91.970	0.120	0.320	0.970
2020/01/31 02:36:24.2	91.970	0.070	0.360	0.980
2020/01/31 02:36:24.3	91.980	0.020	0.400	1.000
2020/01/31 02:36:24.4	91.990	-0.030	0.440	1.020
2020/01/31 02:36:24.5	91.990	-0.080	0.470	1.030
2020/01/31 02:36:24.6	92.000	-0.130	0.500	1.040
2020/01/31 02:36:24.7	92.000	-0.180	0.530	1.040
2020/01/31 02:36:24.8	92.010	-0.230	0.550	1.040
2020/01/31 02:36:24.9	92.020	-0.280	0.570	1.040
2020/01/31 02:36:25.0	92.020	-0.320	0.580	1.040
2020/01/31 02:36:25.1	92.030	-0.370	0.590	1.030
2020/01/31 02:36:25.2	92.030	-0.410	0.600	1.030
2020/01/31 02:36:25.3	92.040	-0.450	0.610	1.020
2020/01/31 02:36:25.4	92.040	-0.490	0.610	1.010
2020/01/31 02:36:25.5	92.050	-0.530	0.610	1.000
2020/01/31 02:36:25.6	92.050	-0.560	0.600	0.990
2020/01/31 02:36:25.7	92.050	-0.590	0.590	0.970
2020/01/31 02:36:25.8	92.060	-0.620	0.580	0.960
2020/01/31 02:36:25.9	92.060	-0.650	0.560	0.950
2020/01/31 02:36:26.0	92.060	-0.670	0.540	0.940
2020/01/31 02:36:26.1	92.070	-0.690	0.510	0.930
2020/01/31 02:36:26.2	92.070	-0.710	0.480	0.930
2020/01/31 02:36:26.3	92.070	-0.720	0.440	0.920
2020/01/31 02:36:26.4	92.070	-0.730	0.400	0.910
2020/01/31 02:36:26.5	92.070	-0.730	0.360	0.910
2020/01/31 02:36:26.6	92.080	-0.730	0.310	0.910
2020/01/31 02:36:26.7	92.080	-0.730	0.250	0.910
2020/01/31 02:36:26.8	92.080	-0.730	0.200	0.910
2020/01/31 02:36:26.9	92.080	-0.720	0.140	0.920
2020/01/31 02:36:27.0	92.080	-0.700	0.070	0.930
2020/01/31 02:36:27.1	92.100	-0.690	0.010	0.930
2020/01/31 02:36:27.2	92.100	-0.670	-0.060	0.940
2020/01/31 02:36:27.3	92.110	-0.640	-0.130	0.940
2020/01/31 02:36:27.4	92.120	-0.620	-0.200	0.950
2020/01/31 02:36:27.5	92.120	-0.590	-0.260	0.960
2020/01/31 02:36:27.6	92.130	-0.560	-0.330	0.960
2020/01/31 02:36:27.7	92.140	-0.530	-0.400	0.970
2020/01/31 02:36:27.8	92.150	-0.490	-0.460	0.970
2020/01/31 02:36:27.9	92.170	-0.460	-0.530	0.970
2020/01/31 02:36:28.0	92.180	-0.420	-0.590	0.970
2020/01/31 02:36:28.1	92.190	-0.380	-0.650	0.970
2020/01/31 02:36:28.2	92.200	-0.350	-0.700	0.970
2020/01/31 02:36:28.3	92.210	-0.310	-0.750	0.960
2020/01/31 02:36:28.4	92.220	-0.270	-0.800	0.950
2020/01/31 02:36:28.5	92.230	-0.230	-0.840	0.940
2020/01/31 02:36:28.6	92.240	-0.190	-0.880	0.930
2020/01/31 02:36:28.7	92.250	-0.150	-0.910	0.920
2020/01/31 02:36:28.8	92.250	-0.120	-0.940	0.900
2020/01/31 02:36:28.9	92.260	-0.080	-0.960	0.890
2020/01/31 02:36:29.0	92.260	-0.040	-0.980	0.870
2020/01/31 02:36:29.1	92.270	-0.010	-0.990	0.850
2020/01/31 02:36:29.2	92.270	0.020	-0.990	0.840
2020/01/31 02:36:29.3	92.270	0.050	-0.990	0.820
2020/01/31 02:36:29.4	92.260	0.080	-0.990	0.810
2020/01/31 02:36:29.5	92.260	0.110	-0.980	0.800
2020/01/31 02:36:29.6	92.250	0.140	-0.960	0.800
2020/01/31 02:36:29.7	92.240	0.160	-0.940	0.790
2020/01/31 02:36:29.8	92.220	0.180	-0.920	0.790
2020/01/31 02:36:29.9	92.210	0.200	-0.890	0.800
2020/01/31 02:36:30.0	92.190	0.220	-0.850	0.800
2020/01/31 02:36:30.1	92.170	0.230	-0.810	0.810
2020/01/31 02:36:30.2	92.150	0.240	-0.770	0.820
2020/01/31 02:36:30.3	92.130	0.250	-0.720	0.830
2020/01/31 02:36:30.4	92.120	0.260	-0.670	0.840
2020/01/31 02:36:30.5	92.100	0.260	-0.620	0.850
2020/01/31 02:36:30.6	92.080	0.270	-0.560	0.860
2020/01/31 02:36:30.7	92.060	0.260	-0.500	0.870
2020/01/31 02:36:30.8	92.050	0.260	-0.440	0.880
2020/01/31 02:36:30.9	92.030	0.250	-0.370	0.890
2020/01/31 02:36:31.0	92.020	0.250	-0.310	0.900
2020/01/31 02:36:31.1	92.020	0.240	-0.240	0.910
2020/01/31 02:36:31.2	92.010	0.220	-0.180	0.920
2020/01/31 02:36:31.3	92.000	0.210	-0.120	0.920
2020/01/31 02:36:31.4	92.000	0.190	-0.060	0.920
2020/01/31 02:36:31.5	91.990	0.180	-0.000	0.920
2020/01/31 02:36:31.6	91.990	0.160	0.050	0.910
2020/01/31 02:36:31.7	92.000	0.140	0.100	0.900
2020/01/31 02:36:31.8	92.000	0.120	0.150	0.890
2020/01/31 02:36:31.9	92.010	0.100	0.190	0.880
2020/01/31 02:36:32.0	92.010	0.090	0.220	0.870
2020/01/31 02:36:32.1	92.000	0.070	0.250	0.850
2020/01/31 02:36:32.2	92.010	0.050	0.270	0.830
2020/01/31 02:36:32.3	92.030	0.040	0.290	0.800
2020/01/31 02:36:32.4	92.040	0.020	0.300	0.780
2020/01/31 02:36:32.5	92.050	0.010	0.310	0.750
2020/01/31 02:36:32.6	92.070	-0.000	0.310	0.720
2020/01/31 02:36:32.7	92.090	-0.010	0.300	0.690
2020/01/31 02:36:32.8	92.100	-0.020	0.290	0.660
2020/01/31 02:36:32.9	92.120	-0.020	0.270	0.630
2020/01/31 02:36:33.0	92.130	-0.020	0.240	0.600
2020/01/31 02:36:33.1	92.130	-0.020	0.220	0.560
2020/01/31 02:36:33.2	92.140	-0.020	0.180	0.530
2020/01/31 02:36:33.3	92.150	-0.010	0.150	0.500
2020/01/31 02:36:33.4	92.160	-0.000	0.110	0.470
2020/01/31 02:36:33.5	92.170	0.010	0.070	0.440
2020/01/31 02:36:33.6	92.180	0.020	0.030	0.410
2020/01/31 02:36:33.7	92.190	0.040	-0.020	0.390
2020/01/31 02:36:33.8	92.200	0.050	-0.060	0.360
2020/01/31 02:36:33.9	92.200	0.070	-0.100	0.340
2020/01/31 02:36:34.0	92.200	0.090	-0.140	0.320
2020/01/31 02:36:34.1	92.220	0.110	-0.190	0.300
2020/01/31 02:36:34.2	92.220	0.130	-0.220	0.290
2020/01/31 02:36:34.3	92.220	0.150	-0.260	0.270
2020/01/31 02:36:34.4	92.220	0.170	-0.290	0.260
2020/01/31 02:36:34.5	92.210	0.190	-0.310	0.250
2020/01/31 02:36:34.6	92.210	0.210	-0.340	0.250
2020/01/31 02:36:34.7	92.200	0.230	-0.360	0.240
2020/01/31 02:36:34.8	92.200	0.250	-0.380	0.240
2020/01/31 02:36:34.9	92.190	0.270	-0.390	0.240
2020/01/31 02:36:35.0	92.190	0.280	-0.410	0.250
2020/01/31 02:36:35.1	92.180	0.300	-0.420	0.250
2020/01/31 02:36:35.2	92.170	0.310	-0.420	0.260
2020/01/31 02:36:35.3	92.170	0.320	-0.430	0.270
2020/01/31 02:36:35.4	92.160	0.320	-0.430	0.290
2020/01/31 02:36:35.5	92.150	0.330	-0.430	0.310
2020/01/31 02:36:35.6	92.150	0.330	-0.420	0.330
2020/01/31 02:36:35.7	92.140	0.330	-0.420	0.350
2020/01/31 02:36:35.8	92.130	0.330	-0.410	0.370
2020/01/31 02:36:35.9	92.130	0.330	-0.400	0.400
2020/01/31 02:36:36.0	92.120	0.320	-0.390	0.430
2020/01/31 02:36:36.1	92.120	0.310	-0.370	0.460
2020/01/31 02:36:36.2	92.120	0.300	-0.360	0.490
2020/01/31 02:36:36.3	92.110	0.290	-0.350	0.520
2020/01/31 02:36:36.4	92.100	0.270	-0.330	0.550
2020/01/31 02:36:36.5	92.100	0.260	-0.310	0.580
2020/01/31 02:36:36.6	92.090	0.240	-0.300	0.610
2020/01/31 02:36:36.7	92.080	0.220	-0.280	0.640
2020/01/31 02:36:36.8	92.080	0.200	-0.260	0.670
2020/01/31 02:36:36.9	92.070	0.180	-0.240	0.700
2020/01/31 02:36:37.0	92.060	0.160	-0.230	0.720
2020/01/31 02:36:37.1	92.050	0.130	-0.210	0.750
2020/01/31 02:36:37.2	92.040	0.110	-0.190	0.770
2020/01/31 02:36:37.3	92.030	0.090	-0.170	0.800
2020/01/31 02:36:37.4	92.020	0.060	-0.150	0.830
2020/01/31 02:36:37.5	92.010	0.040	-0.140	0.850
2020/01/31 02:36:37.6	92.010	0.020	-0.120	0.870
2020/01/31 02:36:37.7	92.000	-0.010	-0.110	0.900
2020/01/31 02:36:37.8	91.990	-0.030	-0.090	0.920
2020/01/31 02:36:37.9	91.980	-0.050	-0.080	0.940
2020/01/31 02:36:38.0	91.980	-0.070	-0.070	0.950
2020/01/31 02:36:38.1	91.970	-0.100	-0.060	0.970
2020/01/31 02:36:38.2	91.970	-0.120	-0.050	0.990
2020/01/31 02:36:38.3	91.970	-0.140	-0.040	1.000
2020/01/31 02:36:38.4	91.970	-0.150	-0.030	1.010
2020/01/31 02:36:38.5	91.970	-0.170	-0.020	1.020
2020/01/31 02:36:38.6	91.970	-0.190	-0.020	1.020
2020/01/31 02:36:38.7	91.970	-0.210	-0.020	1.030
2020/01/31 02:36:38.8	91.980	-0.220	-0.020	1.030
2020/01/31 02:36:38.9	91.990	-0.240	-0.020	1.030
2020/01/31 02:36:39.0	92.000	-0.250	-0.020	1.030
2020/01/31 02:36:39.1	92.000	-0.260	-0.030	1.020
2020/01/31 02:36:39.2	92.020	-0.270	-0.030	1.020
2020/01/31 02:36:39.3	92.030	-0.290	-0.040	1.010
2020/01/31 02:36:39.4	92.050	-0.300	-0.050	1.010
2020/01/31 02:36:39.5	92.070	-0.310	-0.050	1.000
2020/01/31 02:36:39.6	92.090	-0.310	-0.060	0.990
2020/01/31 02:36:39.7	92.110	-0.320	-0.070	0.980
2020/01/31 02:36:39.8	92.130	-0.330	-0.090	0.980
2020/01/31 02:36:39.9	92.160	-0.330	-0.100	0.970
2020/01/31 02:36:40.0	92.180	-0.340	-0.110	0.970
2020/01/31 02:36:40.1	92.210	-0.340	-0.120	0.960
2020/01/31 02:36:40.2	92.230	-0.350	-0.140	0.960
2020/01/31 02:36:40.3	92.250	-0.350	-0.150	0.960
2020/01/31 02:36:40.4	92.270	-0.350	-0.160	0.970
2020/01/31 02:36:40.5	92.290	-0.350	-0.170	0.970
2020/01/31 02:36:40.6	92.300	-0.340	-0.190	0.980
2020/01/31 02:36:40.7	92.310	-0.340	-0.200	0.990
2020/01/31 02:36:40.8	92.320	-0.330	-0.210	1.000
2020/01/31 02:36:40.9	92.330	-0.330	-0.220	1.010
2020/01/31 02:36:41.0	92.330	-0.320	-0.230	1.020
2020/01/31 02:36:41.1	92.340	-0.310	-0.250	1.030
2020/01/31 02:36:41.2	92.340	-0.300	-0.260	1.040
2020/01/31 02:36:41.3	92.340	-0.280	-0.270	1.050
2020/01/31 02:36:41.4	92.330	-0.270	-0.280	1.060
2020/01/31 02:36:41.5	92.320	-0.250	-0.280	1.070
2020/01/31 02:36:41.6	92.310	-0.240	-0.290	1.080
2020/01/31 02:36:41.7	92.300	-0.220	-0.300	1.090
2020/01/31 02:36:41.8	92.290	-0.200	-0.310	1.090
2020/01/31 02:36:41.9	92.280	-0.180	-0.320	1.090
2020/01/31 02:36:42.0	92.260	-0.160	-0.330	1.090
2020/01/31 02:36:42.1	92.240	-0.130	-0.340	1.090
2020/01/31 02:36:42.2	92.230	-0.110	-0.350	1.080
2020/01/31 02:36:42.3	92.210	-0.080	-0.370	1.070
2020/01/31 02:36:42.4	92.200	-0.060	-0.380	1.060
2020/01/31 02:36:42.5	92.180	-0.030	-0.400	1.050
2020/01/31 02:36:42.6	92.170	-0.000	-0.410	1.040
2020/01/31 02:36:42.7	92.150	0.020	-0.430	1.020
2020/01/31 02:36:42.8	92.140	0.050	-0.440	1.010
2020/01/31 02:36:42.9	92.130	0.080	-0.460	0.990
2020/01/31 02:36:43.0	92.120	0.110	-0.480	0.970
2020/01/31 02:36:43.1	92.110	0.140	-0.500	0.950
2020/01/31 02:36:43.2	92.100	0.170	-0.520	0.940
2020/01/31 02:36:43.3	92.090	0.190	-0.530	0.930
2020/01/31 02:36:43.4	92.080	0.220	-0.550	0.910
2020/01/31 02:36:43.5	92.080	0.250	-0.570	0.900
2020/01/31 02:36:43.6	92.070	0.280	-0.580	0.890
2020/01/31 02:36:43.7	92.070	0.300	-0.590	0.870
2020/01/31 02:36:43.8	92.070	0.320	-0.600	0.860
2020/01/31 02:36:43.9	92.070	0.350	-0.610	0.840
2020/01/31 02:36:44.0	92.070	0.370	-0.620	0.830
2020/01/31 02:36:44.1	92.060	0.390	-0.620	0.820
2020/01/31 02:36:44.2	92.070	0.400	-0.620	0.810
2020/01/31 02:36:44.3	92.070	0.420	-0.610	0.790
2020/01/31 02:36:44.4	92.070	0.430	-0.600	0.780
2020/01/31 02:36:44.5	92.070	0.440	-0.580	0.760
2020/01/31 02:36:44.6	92.070	0.440	-0.570	0.740
2020/01/31 02:36:44.7	92.080	0.450	-0.540	0.720
2020/01/31 02:36:44.8	92.080	0.450	-0.510	0.690
2020/01/31 02:36:44.9	92.080	0.440	-0.480	0.670
2020/01/31 02:36:45.0	92.080	0.440	-0.440	0.640
2020/01/31 02:36:45.1	92.090	0.430	-0.400	0.610
2020/01/31 02:36:45.2	92.080	0.420	-0.350	0.580
2020/01/31 02:36:45.3	92.080	0.400	-0.310	0.550
2020/01/31 02:36:45.4	92.080	0.380	-0.250	0.520
2020/01/31 02:36:45.5	92.070	0.360	-0.200	0.490
2020/01/31 02:36:45.6	92.070	0.340	-0.140	0.460
2020/01/31 02:36:45.7	92.060	0.310	-0.090	0.430
2020/01/31 02:36:45.8	92.050	0.280	-0.030	0.400
2020/01/31 02:36:45.9	92.040	0.250	0.030	0.380
2020/01/31 02:36:46.0	92.030	0.220	0.090	0.350
2020/01/31 02:36:46.1	92.020	0.180	0.150	0.330
2020/01/31 02:36:46.2	92.010	0.140	0.210	0.310
2020/01/31 02:36:46.3	91.990	0.110	0.270	0.290
2020/01/31 02:36:46.4	91.980	0.070	0.320	0.280
2020/01/31 02:36:46.5	91.960	0.030	0.370	0.270
2020/01/31 02:36:46.6	91.950	-0.010	0.420	0.260
2020/01/31 02:36:46.7	91.930	-0.050	0.460	0.260
2020/01/31 02:36:46.8	91.910	-0.080	0.500	0.260
2020/01/31 02:36:46.9	91.890	-0.120	0.530	0.270
2020/01/31 02:36:47.0	91.880	-0.160	0.560	0.280
2020/01/31 02:36:47.1	91.850	-0.190	0.580	0.290
2020/01/31 02:36:47.2	91.830	-0.220	0.600	0.300
2020/01/31 02:36:47.3	91.820	-0.260	0.610	0.330
2020/01/31 02:36:47.4	91.800	-0.280	0.610	0.350
2020/01/31 02:36:47.5	91.780	-0.310	0.600	0.370
2020/01/31 02:36:47.6	91.760	-0.330	0.590	0.400
2020/01/31 02:36:47.7	91.750	-0.350	0.560	0.430
2020/01/31 02:36:47.8	91.740	-0.370	0.530	0.450
2020/01/31 02:36:47.9	91.730	-0.390	0.490	0.480
2020/01/31 02:36:48.0	91.720	-0.400	0.450	0.500
2020/01/31 02:36:48.1	91.740	-0.400	0.400	0.530
2020/01/31 02:36:48.2	91.740	-0.410	0.340	0.540
2020/01/31 02:36:48.3	91.740	-0.410	0.270	0.550
2020/01/31 02:36:48.4	91.740	-0.410	0.200	0.560
2020/01/31 02:36:48.5	91.750	-0.400	0.120	0.560
2020/01/31 02:36:48.6	91.760	-0.390	0.040	0.560
2020/01/31 02:36:48.7	91.770	-0.380	-0.040	0.550
2020/01/31 02:36:48.8	91.790	-0.360	-0.130	0.540
2020/01/31 02:36:48.9	91.800	-0.340	-0.220	0.530
2020/01/31 02:36:49.0	91.820	-0.320	-0.310	0.520
2020/01/31 02:36:49.1	91.840	-0.300	-0.410	0.500
2020/01/31 02:36:49.2	91.860	-0.270	-0.500	0.480
2020/01/31 02:36:49.3	91.880	-0.240	-0.590	0.470
2020/01/31 02:36:49.4	91.900	-0.210	-0.670	0.450
2020/01/31 02:36:49.5	91.920	-0.180	-0.750	0.440
2020/01/31 02:36:49.6	91.930	-0.140	-0.830	0.430
2020/01/31 02:36:49.7	91.950	-0.110	-0.900	0.420
2020/01/31 02:36:49.8	91.960	-0.070	-0.960	0.410
2020/01/31 02:36:49.9	91.980	-0.040	-1.020	0.400
2020/01/31 02:36:50.0	91.990	-0.000	-1.070	0.400
2020/01/31 02:36:50.1	91.970	0.030	-1.120	0.400
2020/01/31 02:36:50.2	91.970	0.060	-1.150	0.410
2020/01/31 02:36:50.3	91.980	0.090	-1.170	0.420
2020/01/31 02:36:50.4	91.980	0.120	-1.180	0.430
2020/01/31 02:36:50.5	91.980	0.150	-1.190	0.440
2020/01/31 02:36:50.6	91.980	0.170	-1.190	0.460
2020/01/31 02:36:50.7	91.980	0.190	-1.170	0.480
2020/01/31 02:36:50.8	91.980	0.210	-1.150	0.500
2020/01/31 02:36:50.9	91.980	0.230	-1.120	0.530
2020/01/31 02:36:51.0	91.970	0.240	-1.090	0.550
2020/01/31 02:36:51.1	91.980	0.250	-1.040	0.580
2020/01/31 02:36:51.2	91.970	0.250	-0.990	0.610
2020/01/31 02:36:51.3	91.970	0.250	-0.940	0.650
2020/01/31 02:36:51.4	91.960	0.250	-0.880	0.680
2020/01/31 02:36:51.5	91.960	0.250	-0.820	0.720
2020/01/31 02:36:51.6	91.950	0.240	-0.750	0.750
2020/01/31 02:36:51.7	91.950	0.230	-0.680	0.790
2020/01/31 02:36:51.8	91.940	0.220	-0.610	0.830
2020/01/31 02:36:51.9	91.940	0.210	-0.540	0.860
2020/01/31 02:36:52.0	91.940	0.190	-0.460	0.900
2020/01/31 02:36:52.1	91.930	0.170	-0.390	0.940
2020/01/31 02:36:52.2	91.930	0.150	-0.320	0.970
2020/01/31 02:36:52.3	91.940	0.130	-0.240	1.000
2020/01/31 02:36:52.4	91.940	0.100	-0.170	1.030
2020/01/31 02:36:52.5	91.940	0.080	-0.100	1.060
2020/01/31 02:36:52.6	91.950	0.050	-0.030	1.080
2020/01/31 02:36:52.7	91.950	0.030	0.030	1.100
2020/01/31 02:36:52.8	91.960	-0.000	0.100	1.120
2020/01/31 02:36:52.9	91.970	-0.030	0.160	1.130
2020/01/31 02:36:53.0	91.970	-0.060	0.210	1.150
2020/01/31 02:36:53.1	92.000	-0.080	0.270	1.160
2020/01/31 02:36:53.2	92.000	-0.110	0.320	1.170
2020/01/31 02:36:53.3	92.010	-0.140	0.370	1.170
2020/01/31 02:36:53.4	92.010	-0.170	0.410	1.180
2020/01/31 02:36:53.5	92.010	-0.190	0.450	1.180
2020/01/31 02:36:53.6	92.010	-0.220	0.480	1.180
2020/01/31 02:36:53.7	92.010	-0.240	0.510	1.180
2020/01/31 02:36:53.8	92.010	-0.260	0.530	1.170
2020/01/31 02:36:53.9	92.000	-0.280	0.560	1.170
2020/01/31 02:36:54.0	91.990	-0.310	0.570	1.160
2020/01/31 02:36:54.1	91.980	-0.320	0.580	1.150
2020/01/31 02:36:54.2	91.960	-0.340	0.590	1.140
2020/01/31 02:36:54.3	91.940	-0.360	0.590	1.130
2020/01/31 02:36:54.4	91.920	-0.370	0.590	1.120
2020/01/31 02:36:54.5	91.900	-0.380	0.590	1.100
2020/01/31 02:36:54.6	91.880	-0.390	0.580	1.080
2020/01/31 02:36:54.7	91.850	-0.400	0.560	1.070
2020/01/31 02:36:54.8	91.830	-0.400	0.540	1.050
2020/01/31 02:36:54.9	91.800	-0.410	0.520	1.030
2020/01/31 02:36:55.0	91.770	-0.410	0.500	1.020
2020/01/31 02:36:55.1	91.780	-0.410	0.470	1.000
2020/01/31 02:36:55.2	91.750	-0.400	0.430	0.980
2020/01/31 02:36:55.3	91.720	-0.390	0.390	0.960
2020/01/31 02:36:55.4	91.700	-0.380	0.350	0.940
2020/01/31 02:36:55.5	91.670	-0.370	0.310	0.920
2020/01/31 02:36:55.6	91.650	-0.350	0.260	0.900
2020/01/31 02:36:55.7	91.630	-0.330	0.200	0.880
2020/01/31 02:36:55.8	91.610	-0.310	0.150	0.850
2020/01/31 02:36:55.9	91.590	-0.290	0.090	0.830
2020/01/31 02:36:56.0	91.580	-0.260	0.020	0.800
2020/01/31 02:36:56.1	91.540	-0.230	-0.040	0.780
2020/01/31 02:36:56.2	91.530	-0.200	-0.110	0.760
2020/01/31 02:36:56.3	91.520	-0.160	-0.190	0.730
2020/01/31 02:36:56.4	91.520	-0.120	-0.260	0.700
2020/01/31 02:36:56.5	91.520	-0.080	-0.340	0.680
2020/01/31 02:36:56.6	91.510	-0.040	-0.420	0.650
2020/01/31 02:36:56.7	91.510	0.010	-0.490	0.620
2020/01/31 02:36:56.8	91.520	0.050	-0.570	0.590
2020/01/31 02:36:56.9	91.520	0.100	-0.650	0.560
2020/01/31 02:36:57.0	91.530	0.150	-0.730	0.530
2020/01/31 02:36:57.1	91.530	0.190	-0.810	0.500
2020/01/31 02:36:57.2	91.540	0.240	-0.890	0.460
2020/01/31 02:36:57.3	91.550	0.290	-0.960	0.430
2020/01/31 02:36:57.4	91.560	0.340	-1.030	0.400
2020/01/31 02:36:57.5	91.570	0.380	-1.090	0.370
2020/01/31 02:36:57.6	91.580	0.430	-1.150	0.340
2020/01/31 02:36:57.7	91.600	0.470	-1.200	0.310
2020/01/31 02:36:57.8	91.610	0.510	-1.250	0.280
2020/01/31 02:36:57.9	91.630	0.550	-1.280	0.250
2020/01/31 02:36:58.0	91.640	0.580	-1.310	0.230
2020/01/31 02:36:58.1	91.650	0.620	-1.330	0.210
2020/01/31 02:36:58.2	91.660	0.640	-1.330	0.200
2020/01/31 02:36:58.3	91.670	0.660	-1.330	0.180
2020/01/31 02:36:58.4	91.680	0.680	-1.310	0.170
2020/01/31 02:36:58.5	91.690	0.690	-1.280	0.170
2020/01/31 02:36:58.6	91.700	0.700	-1.240	0.170
2020/01/31 02:36:58.7	91.710	0.700	-1.190	0.170
2020/01/31 02:36:58.8	91.710	0.700	-1.120	0.180
2020/01/31 02:36:58.9	91.710	0.690	-1.050	0.190
2020/01/31 02:36:59.0	91.720	0.670	-0.960	0.210
2020/01/31 02:36:59.1	91.720	0.650	-0.860	0.230
2020/01/31 02:36:59.2	91.720	0.620	-0.760	0.250
2020/01/31 02:36:59.3	91.720	0.580	-0.650	0.280
2020/01/31 02:36:59.4	91.720	0.550	-0.530	0.310
2020/01/31 02:36:59.5	91.710	0.500	-0.410	0.340
2020/01/31 02:36:59.6	91.710	0.450	-0.280	0.380
2020/01/31 02:36:59.7	91.700	0.400	-0.160	0.420
2020/01/31 02:36:59.8	91.700	0.340	-0.030	0.460
2020/01/31 02:36:59.9	91.690	0.280	0.100	0.500
2020/01/31 02:37:00.0	91.680	0.220	0.230	0.540
2020/01/31 02:37:00.1	91.690	0.160	0.350	0.590
2020/01/31 02:37:00.2	91.680	0.090	0.470	0.630
2020/01/31 02:37:00.3	91.670	0.020	0.580	0.680
2020/01/31 02:37:00.4	91.670	-0.040	0.690	0.720
2020/01/31 02:37:00.5	91.660	-0.110	0.780	0.760
2020/01/31 02:37:00.6	91.660	-0.180	0.870	0.800
2020/01/31 02:37:00.7	91.660	-0.240	0.950	0.840
2020/01/31 02:37:00.8	91.660	-0.300	1.010	0.880
2020/01/31 02:37:00.9	91.660	-0.360	1.060	0.910
2020/01/31 02:37:01.0	91.660	-0.410	1.100	0.950
2020/01/31 02:37:01.1	91.650	-0.460	1.120	0.980
2020/01/31 02:37:01.2	91.660	-0.510	1.120	1.000
2020/01/31 02:37:01.3	91.670	-0.550	1.120	1.030
2020/01/31 02:37:01.4	91.680	-0.580	1.090	1.040
2020/01/31 02:37:01.5	91.690	-0.610	1.060	1.060
2020/01/31 02:37:01.6	91.710	-0.630	1.000	1.070
2020/01/31 02:37:01.7	91.720	-0.640	0.940	1.080
2020/01/31 02:37:01.8	91.740	-0.650	0.860	1.080
2020/01/31 02:37:01.9	91.760	-0.640	0.760	1.080
2020/01/31 02:37:02.0	91.780	-0.640	0.660	1.080
2020/01/31 02:37:02.1	91.810	-0.620	0.550	1.080
2020/01/31 02:37:02.2	91.830	-0.610	0.430	1.080
2020/01/31 02:37:02.3	91.850	-0.580	0.300	1.070
2020/01/31 02:37:02.4	91.870	-0.550	0.170	1.070
2020/01/31 02:37:02.5	91.880	-0.520	0.040	1.070
2020/01/31 02:37:02.6	91.890	-0.480	-0.100	1.070
2020/01/31 02:37:02.7	91.900	-0.440	-0.230	1.070
2020/01/31 02:37:02.8	91.910	-0.400	-0.360	1.080
2020/01/31 02:37:02.9	91.910	-0.350	-0.490	1.080
2020/01/31 02:37:03.0	91.910	-0.310	-0.610	1.080
2020/01/31 02:37:03.1	91.910	-0.260	-0.730	1.090
2020/01/31 02:37:03.2	91.910	-0.210	-0.840	1.090
2020/01/31 02:37:03.3	91.900	-0.170	-0.940	1.090
2020/01/31 02:37:03.4	91.890	-0.120	-1.020	1.090
2020/01/31 02:37:03.5	91.880	-0.080	-1.100	1.090
2020/01/31 02:37:03.6	91.860	-0.040	-1.160	1.090
2020/01/31 02:37:03.7	91.850	-0.000	-1.210	1.100
2020/01/31 02:37:03.8	91.830	0.030	-1.250	1.100
2020/01/31 02:37:03.9	91.810	0.070	-1.270	1.100
2020/01/31 02:37:04.0	91.780	0.100	-1.290	1.110
2020/01/31 02:37:04.1	91.770	0.120	-1.280	1.120
2020/01/31 02:37:04.2	91.740	0.140	-1.270	1.120
2020/01/31 02:37:04.3	91.720	0.160	-1.250	1.130
2020/01/31 02:37:04.4	91.690	0.180	-1.210	1.140
2020/01/31 02:37:04.5	91.660	0.190	-1.170	1.140
2020/01/31 02:37:04.6	91.630	0.190	-1.110	1.150
2020/01/31 02:37:04.7	91.600	0.200	-1.050	1.160
2020/01/31 02:37:04.8	91.570	0.190	-0.980	1.170
2020/01/31 02:37:04.9	91.540	0.190	-0.910	1.170
2020/01/31 02:37:05.0	91.510	0.180	-0.820	1.180
2020/01/31 02:37:05.1	91.460	0.170	-0.740	1.190
2020/01/31 02:37:05.2	91.430	0.160	-0.650	1.200
2020/01/31 02:37:05.3	91.400	0.150	-0.560	1.200
2020/01/31 02:37:05.4	91.380	0.130	-0.470	1.210
2020/01/31 02:37:05.5	91.350	0.110	-0.380	1.210
2020/01/31 02:37:05.6	91.320	0.090	-0.290	1.210
2020/01/31 02:37:05.7	91.300	0.070	-0.200	1.210
2020/01/31 02:37:05.8	91.280	0.050	-0.120	1.210
2020/01/31 02:37:05.9	91.250	0.030	-0.040	1.200
2020/01/31 02:37:06.0	91.230	0.010	0.040	1.190
2020/01/31 02:37:06.1	91.240	-0.010	0.110	1.180
2020/01/31 02:37:06.2	91.230	-0.030	0.170	1.150
2020/01/31 02:37:06.3	91.210	-0.050	0.220	1.130
2020/01/31 02:37:06.4	91.200	-0.070	0.270	1.100
2020/01/31 02:37:06.5	91.190	-0.090	0.300	1.060
2020/01/31 02:37:06.6	91.190	-0.100	0.330	1.020
2020/01/31 02:37:06.7	91.180	-0.110	0.350	0.980
2020/01/31 02:37:06.8	91.180	-0.120	0.360	0.930
2020/01/31 02:37:06.9	91.180	-0.130	0.360	0.880
2020/01/31 02:37:07.0	91.180	-0.140	0.360	0.820
2020/01/31 02:37:07.1	91.180	-0.140	0.340	0.750
2020/01/31 02:37:07.2	91.190	-0.140	0.320	0.690
2020/01/31 02:37:07.3	91.200	-0.140	0.290	0.630
2020/01/31 02:37:07.4	91.210	-0.130	0.250	0.560
2020/01/31 02:37:07.5	91.220	-0.120	0.210	0.490
2020/01/31 02:37:07.6	91.240	-0.110	0.160	0.430
2020/01/31 02:37:07.7	91.250	-0.100	0.110	0.360
2020/01/31 02:37:07.8	91.260	-0.080	0.050	0.300
2020/01/31 02:37:07.9	91.280	-0.060	-0.010	0.240
2020/01/31 02:37:08.0	91.300	-0.040	-0.070	0.180
2020/01/31 02:37:08.1	91.300	-0.010	-0.130	0.130
2020/01/31 02:37:08.2	91.320	0.020	-0.200	0.080
2020/01/31 02:37:08.3	91.330	0.050	-0.260	0.040
2020/01/31 02:37:08.4	91.350	0.080	-0.330	-0.000
2020/01/31 02:37:08.5	91.370	0.110	-0.390	-0.030
2020/01/31 02:37:08.6	91.390	0.150	-0.450	-0.060
2020/01/31 02:37:08.7	91.400	0.180	-0.510	-0.080
2020/01/31 02:37:08.8	91.420	0.220	-0.560	-0.090
2020/01/31 02:37:08.9	91.430	0.250	-0.610	-0.100
2020/01/31 02:37:09.0	91.450	0.290	-0.650	-0.100
2020/01/31 02:37:09.1	91.460	0.320	-0.700	-0.090
2020/01/31 02:37:09.2	91.470	0.360	-0.730	-0.080
2020/01/31 02:37:09.3	91.480	0.390	-0.750	-0.060
2020/01/31 02:37:09.4	91.490	0.420	-0.760	-0.040
2020/01/31 02:37:09.5	91.500	0.450	-0.760	-0.020
2020/01/31 02:37:09.6	91.500	0.470	-0.760	0.010
2020/01/31 02:37:09.7	91.500	0.490	-0.740	0.040
2020/01/31 02:37:09.8	91.500	0.500	-0.720	0.080
2020/01/31 02:37:09.9	91.500	0.510	-0.680	0.120
2020/01/31 02:37:10.0	91.500	0.520	-0.640	0.160
2020/01/31 02:37:10.1	91.510	0.520	-0.590	0.200
2020/01/31 02:37:10.2	91.500	0.510	-0.530	0.240
2020/01/31 02:37:10.3	91.500	0.500	-0.460	0.280
2020/01/31 02:37:10.4	91.490	0.480	-0.390	0.320
2020/01/31 02:37:10.5	91.490	0.460	-0.310	0.360
2020/01/31 02:37:10.6	91.480	0.440	-0.220	0.410
2020/01/31 02:37:10.7	91.470	0.400	-0.140	0.450
2020/01/31 02:37:10.8	91.470	0.370	-0.050	0.490
2020/01/31 02:37:10.9	91.460	0.330	0.040	0.520
2020/01/31 02:37:11.0	91.450	0.280	0.130	0.560
2020/01/31 02:37:11.1	91.440	0.240	0.230	0.600
2020/01/31 02:37:11.2	91.440	0.190	0.310	0.630
2020/01/31 02:37:11.3	91.430	0.130	0.400	0.660
2020/01/31 02:37:11.4	91.420	0.080	0.470	0.690
2020/01/31 02:37:11.5	91.420	0.020	0.550	0.720
2020/01/31 02:37:11.6	91.410	-0.030	0.610	0.740
2020/01/31 02:37:11.7	91.410	-0.090	0.670	0.770
2020/01/31 02:37:11.8	91.400	-0.150	0.720	0.790
2020/01/31 02:37:11.9	91.400	-0.200	0.770	0.810
2020/01/31 02:37:12.0	91.400	-0.250	0.800	0.830
2020/01/31 02:37:12.1	91.420	-0.300	0.820	0.850
2020/01/31 02:37:12.2	91.430	-0.350	0.830	0.870
2020/01/31 02:37:12.3	91.430	-0.390	0.830	0.880
2020/01/31 02:37:12.4	91.440	-0.420	0.810	0.890
2020/01/31 02:37:12.5	91.440	-0.450	0.790	0.890
2020/01/31 02:37:12.6	91.450	-0.480	0.750	0.900
2020/01/31 02:37:12.7	91.470	-0.500	0.700	0.900
2020/01/31 02:37:12.8	91.480	-0.510	0.640	0.900
2020/01/31 02:37:12.9	91.500	-0.520	0.570	0.890
2020/01/31 02:37:13.0	91.520	-0.520	0.480	0.890
2020/01/31 02:37:13.1	91.520	-0.520	0.390	0.880
2020/01/31 02:37:13.2	91.540	-0.500	0.280	0.870
2020/01/31 02:37:13.3	91.560	-0.480	0.170	0.860
2020/01/31 02:37:13.4	91.580	-0.460	0.060	0.850
2020/01/31 02:37:13.5	91.600	-0.430	-0.060	0.840
2020/01/31 02:37:13.6	91.620	-0.400	-0.190	0.830
2020/01/31 02:37:13.7	91.640	-0.360	-0.310	0.820
2020/01/31 02:37:13.8	91.650	-0.310	-0.440	0.820
2020/01/31 02:37:13.9	91.670	-0.270	-0.560	0.810
2020/01/31 02:37:14.0	91.680	-0.220	-0.690	0.810
2020/01/31 02:37:14.1	91.690	-0.170	-0.810	0.810
2020/01/31 02:37:14.2	91.690	-0.120	-0.920	0.810
2020/01/31 02:37:14.3	91.700	-0.060	-1.030	0.810
2020/01/31 02:37:14.4	91.700	-0.010	-1.120	0.810
2020/01/31 02:37:14.5	91.700	0.040	-1.210	0.820
2020/01/31 02:37:14.6	91.700	0.090	-1.290	0.820
2020/01/31 02:37:14.7	91.700	0.140	-1.360	0.820
2020/01/31 02:37:14.8	91.690	0.180	-1.410	0.820
2020/01/31 02:37:14.9	91.690	0.220	-1.450	0.830
2020/01/31 02:37:15.0	91.670	0.260	-1.470	0.840
2020/01/31 02:37:15.1	91.670	0.290	-1.490	0.850
2020/01/31 02:37:15.2	91.660	0.320	-1.480	0.860
2020/01/31 02:37:15.3	91.640	0.340	-1.470	0.870
2020/01/31 02:37:15.4	91.620	0.360	-1.430	0.890
2020/01/31 02:37:15.5	91.600	0.370	-1.390	0.910
2020/01/31 02:37:15.6	91.580	0.380	-1.330	0.930
2020/01/31 02:37:15.7	91.560	0.380	-1.260	0.950
2020/01/31 02:37:15.8	91.530	0.370	-1.170	0.970
2020/01/31 02:37:15.9	91.510	0.360	-1.080	1.000
2020/01/31 02:37:16.0	91.490	0.340	-0.970	1.020
2020/01/31 02:37:16.1	91.460	0.310	-0.850	1.050
2020/01/31 02:37:16.2	91.440	0.290	-0.730	1.080
2020/01/31 02:37:16.3	91.420	0.250	-0.600	1.100
2020/01/31 02:37:16.4	91.390	0.210	-0.470	1.120
2020/01/31 02:37:16.5	91.370	0.170	-0.330	1.150
2020/01/31 02:37:16.6	91.350	0.120	-0.190	1.170
2020/01/31 02:37:16.7	91.330	0.080	-0.060	1.190
2020/01/31 02:37:16.8	91.310	0.020	0.080	1.210
2020/01/31 02:37:16.9	91.290	-0.030	0.210	1.220
2020/01/31 02:37:17.0	91.270	-0.080	0.330	1.230
2020/01/31 02:37:17.1	91.240	-0.140	0.460	1.240
2020/01/31 02:37:17.2	91.230	-0.190	0.570	1.240
2020/01/31 02:37:17.3	91.220	-0.250	0.670	1.240
2020/01/31 02:37:17.4	91.210	-0.300	0.770	1.240
2020/01/31 02:37:17.5	91.200	-0.350	0.850	1.220
2020/01/31 02:37:17.6	91.190	-0.390	0.920	1.210
2020/01/31 02:37:17.7	91.190	-0.440	0.980	1.190
2020/01/31 02:37:17.8	91.190	-0.480	1.020	1.160
2020/01/31 02:37:17.9	91.190	-0.510	1.050	1.120
2020/01/31 02:37:18.0	91.190	-0.540	1.070	1.090
2020/01/31 02:37:18.1	91.190	-0.560	1.070	1.040
2020/01/31 02:37:18.2	91.200	-0.570	1.050	0.990
2020/01/31 02:37:18.3	91.210	-0.580	1.020	0.940
2020/01/31 02:37:18.4	91.220	-0.580	0.980	0.880
2020/01/31 02:37:18.5	91.230	-0.580	0.920	0.820
2020/01/31 02:37:18.6	91.240	-0.570	0.850	0.760
2020/01/31 02:37:18.7	91.260	-0.550	0.760	0.700
2020/01/31 02:37:18.8	91.270	-0.520	0.670	0.640
2020/01/31 02:37:18.9	91.290	-0.480	0.560	0.580
2020/01/31 02:37:19.0	91.310	-0.440	0.450	0.510
2020/01/31 02:37:19.1	91.340	-0.390	0.320	0.450
2020/01/31 02:37:19.2	91.360	-0.340	0.200	0.390
2020/01/31 02:37:19.3	91.380	-0.280	0.060	0.330
2020/01/31 02:37:19.4	91.410	-0.220	-0.070	0.280
2020/01/31 02:37:19.5	91.430	-0.160	-0.200	0.220
2020/01/31 02:37:19.6	91.450	-0.090	-0.340	0.170
2020/01/31 02:37:19.7	91.480	-0.020	-0.470	0.120
2020/01/31 02:37:19.8	91.510	0.050	-0.600	0.080
2020/01/31 02:37:19.9	91.530	0.130	-0.720	0.040
2020/01/31 02:37:20.0	91.560	0.200	-0.840	0.000
2020/01/31 02:37:20.1	91.580	0.270	-0.960	-0.020
2020/01/31 02:37:20.2	91.600	0.340	-1.060	-0.050
2020/01/31 02:37:20.3	91.620	0.410	-1.160	-0.070
2020/01/31 02:37:20.4	91.640	0.480	-1.250	-0.080
2020/01/31 02:37:20.5	91.660	0.540	-1.320	-0.090
2020/01/31 02:37:20.6	91.680	0.590	-1.390	-0.100
2020/01/31 02:37:20.7	91.700	0.640	-1.440	-0.100
2020/01/31 02:37:20.8	91.710	0.690	-1.480	-0.100
2020/01/31 02:37:20.9	91.720	0.730	-1.510	-0.090
2020/01/31 02:37:21.0	91.740	0.760	-1.520	-0.080
2020/01/31 02:37:21.1	91.730	0.790	-1.530	-0.070
2020/01/31 02:37:21.2	91.740	0.800	-1.520	-0.050
2020/01/31 02:37:21.3	91.740	0.810	-1.490	-0.030
2020/01/31 02:37:21.4	91.750	0.820	-1.460	-0.010
2020/01/31 02:37:21.5	91.750	0.810	-1.410	0.010
2020/01/31 02:37:21.6	91.750	0.800	-1.350	0.040
2020/01/31 02:37:21.7	91.750	0.780	-1.270	0.070
2020/01/31 02:37:21.8	91.750	0.750	-1.190	0.110
2020/01/31 02:37:21.9	91.740	0.710	-1.090	0.150
2020/01/31 02:37:22.0	91.730	0.670	-0.990	0.190
2020/01/31 02:37:22.1	91.720	0.620	-0.870	0.240
2020/01/31 02:37:22.2	91.710	0.560	-0.750	0.280
2020/01/31 02:37:22.3	91.700	0.500	-0.620	0.330
2020/01/31 02:37:22.4	91.680	0.440	-0.490	0.390
2020/01/31 02:37:22.5	91.670	0.370	-0.350	0.440
2020/01/31 02:37:22.6	91.650	0.290	-0.210	0.500
2020/01/31 02:37:22.7	91.630	0.220	-0.060	0.560
2020/01/31 02:37:22.8	91.610	0.140	0.080	0.620
2020/01/31 02:37:22.9	91.580	0.060	0.220	0.680
2020/01/31 02:37:23.0	91.560	-0.020	0.360	0.740
2020/01/31 02:37:23.1	91.540	-0.110	0.510	0.800
2020/01/31 02:37:23.2	91.510	-0.190	0.640	0.850
2020/01/31 02:37:23.3	91.490	-0.270	0.760	0.910
2020/01/31 02:37:23.4	91.460	-0.340	0.880	0.960
2020/01/31 02:37:23.5	91.440	-0.420	0.990	1.000
2020/01/31 02:37:23.6	91.420	-0.490	1.080	1.040
2020/01/31 02:37:23.7	91.400	-0.550	1.170	1.070
2020/01/31 02:37:23.8	91.380	-0.610	1.240	1.100
2020/01/31 02:37:23.9	91.360	-0.660	1.300	1.120
2020/01/31 02:37:24.0	91.340	-0.710	1.340	1.140
2020/01/31 02:37:24.1	91.330	-0.750	1.360	1.150
2020/01/31 02:37:24.2	91.320	-0.780	1.370	1.150
2020/01/31 02:37:24.3	91.310	-0.800	1.370	1.140
2020/01/31 02:37:24.4	91.300	-0.820	1.350	1.120
2020/01/31 02:37:24.5	91.300	-0.820	1.310	1.100
2020/01/31 02:37:24.6	91.300	-0.820	1.260	1.080
2020/01/31 02:37:24.7	91.300	-0.810	1.190	1.050
2020/01/31 02:37:24.8	91.310	-0.790	1.100	1.010
2020/01/31 02:37:24.9	91.310	-0.760	1.010	0.980
2020/01/31 02:37:25.0	91.320	-0.720	0.900	0.940
2020/01/31 02:37:25.1	91.330	-0.680	0.770	0.900
2020/01/31 02:37:25.2	91.340	-0.630	0.640	0.860
2020/01/31 02:37:25.3	91.360	-0.570	0.500	0.820
2020/01/31 02:37:25.4	91.370	-0.500	0.350	0.790
2020/01/31 02:37:25.5	91.390	-0.430	0.200	0.750
2020/01/31 02:37:25.6	91.410	-0.360	0.040	0.720
2020/01/31 02:37:25.7	91.430	-0.280	-0.110	0.690
2020/01/31 02:37:25.8	91.450	-0.200	-0.270	0.660
2020/01/31 02:37:25.9	91.470	-0.120	-0.430	0.630
2020/01/31 02:37:26.0	91.490	-0.040	-0.580	0.600
2020/01/31 02:37:26.1	91.510	0.040	-0.730	0.580
2020/01/31 02:37:26.2	91.530	0.130	-0.870	0.560
2020/01/31 02:37:26.3	91.560	0.200	-1.000	0.540
2020/01/31 02:37:26.4	91.580	0.280	-1.110	0.520
2020/01/31 02:37:26.5	91.600	0.350	-1.220	0.500
2020/01/31 02:37:26.6	91.620	0.420	-1.310	0.490
2020/01/31 02:37:26.7	91.640	0.480	-1.380	0.480
2020/01/31 02:37:26.8	91.660	0.530	-1.440	0.460
2020/01/31 02:37:26.9	91.670	0.580	-1.480	0.450
2020/01/31 02:37:27.0	91.690	0.620	-1.510	0.440
2020/01/31 02:37:27.1	91.700	0.660	-1.520	0.440
2020/01/31 02:37:27.2	91.720	0.680	-1.510	0.430
2020/01/31 02:37:27.3	91.730	0.700	-1.490	0.430
2020/01/31 02:37:27.4	91.750	0.710	-1.450	0.430
2020/01/31 02:37:27.5	91.760	0.710	-1.390	0.430
2020/01/31 02:37:27.6	91.770	0.700	-1.330	0.430
2020/01/31 02:37:27.7	91.780	0.690	-1.250	0.440
2020/01/31 02:37:27.8	91.790	0.670	-1.150	0.440
2020/01/31 02:37:27.9	91.800	0.640	-1.050	0.460
2020/01/31 02:37:28.0	91.810	0.600	-0.940	0.470
2020/01/31 02:37:28.1	91.820	0.560	-0.820	0.490
2020/01/31 02:37:28.2	91.820	0.510	-0.690	0.510
2020/01/31 02:37:28.3	91.830	0.460	-0.560	0.540
2020/01/31 02:37:28.4	91.830	0.410	-0.430	0.560
2020/01/31 02:37:28.5	91.830	0.350	-0.290	0.590
2020/01/31 02:37:28.6	91.830	0.280	-0.160	0.610
2020/01/31 02:37:28.7	91.830	0.220	-0.030	0.640
2020/01/31 02:37:28.8	91.820	0.150	0.100	0.670
2020/01/31 02:37:28.9	91.820	0.090	0.220	0.700
2020/01/31 02:37:29.0	91.820	0.020	0.330	0.730
2020/01/31 02:37:29.1	91.800	-0.040	0.440	0.760
2020/01/31 02:37:29.2	91.800	-0.100	0.530	0.790
2020/01/31 02:37:29.3	91.790	-0.160	0.610	0.820
2020/01/31 02:37:29.4	91.790	-0.220	0.680	0.840
2020/01/31 02:37:29.5	91.790	-0.270	0.740	0.870
2020/01/31 02:37:29.6	91.790	-0.310	0.780	0.890
2020/01/31 02:37:29.7	91.790	-0.350	0.800	0.910
2020/01/31 02:37:29.8	91.780	-0.380	0.810	0.930
2020/01/31 02:37:29.9	91.780	-0.410	0.810	0.940
2020/01/31 02:37:30.0	91.780	-0.430	0.790	0.960
2020/01/31 02:37:30.1	91.790	-0.440	0.750	0.970
2020/01/31 02:37:30.2	91.790	-0.450	0.700	0.980
2020/01/31 02:37:30.3	91.780	-0.450	0.640	0.990
2020/01/31 02:37:30.4	91.780	-0.440	0.570	0.990
2020/01/31 02:37:30.5	91.780	-0.420	0.480	0.990
2020/01/31 02:37:30.6	91.770	-0.410	0.390	1.000
2020/01/31 02:37:30.7	91.760	-0.380	0.290	1.000
2020/01/31 02:37:30.8	91.760	-0.350	0.180	1.000
2020/01/31 02:37:30.9	91.750	-0.320	0.070	0.990
2020/01/31 02:37:31.0	91.740	-0.280	-0.050	0.990
2020/01/31 02:37:31.1	91.730	-0.240	-0.170	0.990
2020/01/31 02:37:31.2	91.720	-0.190	-0.290	0.990
2020/01/31 02:37:31.3	91.710	-0.150	-0.400	0.980
2020/01/31 02:37:31.4	91.690	-0.100	-0.520	0.980
2020/01/31 02:37:31.5	91.680	-0.060	-0.620	0.980
2020/01/31 02:37:31.6	91.660	-0.010	-0.730	0.970
2020/01/31 02:37:31.7	91.650	0.030	-0.820	0.970
2020/01/31 02:37:31.8	91.630	0.080	-0.910	0.970
2020/01/31 02:37:31.9	91.620	0.120	-0.980	0.970
2020/01/31 02:37:32.0	91.600	0.160	-1.050	0.970
2020/01/31 02:37:32.1	91.610	0.190	-1.100	0.960
2020/01/31 02:37:32.2	91.600	0.220	-1.140	0.960
2020/01/31 02:37:32.3	91.590	0.250	-1.170	0.950
2020/01/31 02:37:32.4	91.580	0.270	-1.190	0.950
2020/01/31 02:37:32.5	91.570	0.280	-1.190	0.950
2020/01/31 02:37:32.6	91.570	0.300	-1.180	0.940
2020/01/31 02:37:32.7	91.560	0.300	-1.160	0.940
2020/01/31 02:37:32.8	91.560	0.300	-1.120	0.930
2020/01/31 02:37:32.9	91.550	0.290	-1.070	0.930
2020/01/31 02:37:33.0	91.550	0.280	-1.010	0.920
2020/01/31 02:37:33.1	91.570	0.270	-0.940	0.920
2020/01/31 02:37:33.2	91.570	0.240	-0.860	0.910
2020/01/31 02:37:33.3	91.570	0.220	-0.780	0.910
2020/01/31 02:37:33.4	91.580	0.190	-0.680	0.900
2020/01/31 02:37:33.5	91.580	0.150	-0.580	0.890
2020/01/31 02:37:33.6	91.590	0.110	-0.470	0.880
2020/01/31 02:37:33.7	91.600	0.070	-0.360	0.870
2020/01/31 02:37:33.8	91.610	0.030	-0.240	0.860
2020/01/31 02:37:33.9	91.620	-0.020	-0.130	0.850
2020/01/31 02:37:34.0	91.640	-0.070	-0.020	0.830
2020/01/31 02:37:34.1	91.650	-0.110	0.100	0.820
2020/01/31 02:37:34.2	91.670	-0.160	0.210	0.800
2020/01/31 02:37:34.3	91.690	-0.210	0.310	0.780
2020/01/31 02:37:34.4	91.710	-0.250	0.410	0.760
2020/01/31 02:37:34.5	91.740	-0.300	0.500	0.740
2020/01/31 02:37:34.6	91.760	-0.340	0.580	0.720
2020/01/31 02:37:34.7	91.790	-0.380	0.660	0.690
2020/01/31 02:37:34.8	91.820	-0.410	0.720	0.660
2020/01/31 02:37:34.9	91.850	-0.440	0.770	0.630
2020/01/31 02:37:35.0	91.880	-0.460	0.810	0.600
2020/01/31 02:37:35.1	91.920	-0.480	0.840	0.570
2020/01/31 02:37:35.2	91.960	-0.500	0.860	0.530
2020/01/31 02:37:35.3	91.990	-0.500	0.860	0.490
2020/01/31 02:37:35.4	92.030	-0.510	0.850	0.450
2020/01/31 02:37:35.5	92.060	-0.500	0.830	0.420
2020/01/31 02:37:35.6	92.100	-0.490	0.790	0.380
2020/01/31 02:37:35.7	92.130	-0.470	0.740	0.340
2020/01/31 02:37:35.8	92.160	-0.450	0.690	0.300
2020/01/31 02:37:35.9	92.190	-0.420	0.620	0.260
2020/01/31 02:37:36.0	92.220	-0.390	0.550	0.230
2020/01/31 02:37:36.1	92.240	-0.350	0.460	0.200
2020/01/31 02:37:36.2	92.260	-0.310	0.370	0.170
2020/01/31 02:37:36.3	92.290	-0.260	0.280	0.140
2020/01/31 02:37:36.4	92.310	-0.210	0.190	0.120
2020/01/31 02:37:36.5	92.330	-0.160	0.090	0.100
2020/01/31 02:37:36.6	92.340	-0.100	-0.000	0.090
2020/01/31 02:37:36.7	92.350	-0.050	-0.100	0.080
2020/01/31 02:37:36.8	92.360	0.010	-0.190	0.070
2020/01/31 02:37:36.9	92.370	0.070	-0.280	0.070
2020/01/31 02:37:37.0	92.380	0.120	-0.360	0.070
2020/01/31 02:37:37.1	92.370	0.180	-0.440	0.070
2020/01/31 02:37:37.2	92.370	0.230	-0.510	0.080
2020/01/31 02:37:37.3	92.370	0.280	-0.580	0.090
2020/01/31 02:37:37.4	92.360	0.330	-0.630	0.100
2020/01/31 02:37:37.5	92.360	0.380	-0.680	0.110
2020/01/31 02:37:37.6	92.350	0.420	-0.720	0.130
2020/01/31 02:37:37.7	92.340	0.460	-0.750	0.150
2020/01/31 02:37:37.8	92.330	0.490	-0.770	0.170
2020/01/31 02:37:37.9	92.320	0.520	-0.790	0.190
2020/01/31 02:37:38.0	92.310	0.540	-0.800	0.210
2020/01/31 02:37:38.1	92.300	0.560	-0.800	0.230
2020/01/31 02:37:38.2	92.280	0.580	-0.800	0.250
2020/01/31 02:37:38.3	92.270	0.590	-0.790	0.270
2020/01/31 02:37:38.4	92.260	0.600	-0.770	0.290
2020/01/31 02:37:38.5	92.250	0.600	-0.750	0.310
2020/01/31 02:37:38.6	92.240	0.600	-0.730	0.330
2020/01/31 02:37:38.7	92.220	0.600	-0.710	0.350
2020/01/31 02:37:38.8	92.220	0.590	-0.680	0.370
2020/01/31 02:37:38.9	92.210	0.580	-0.650	0.390
2020/01/31 02:37:39.0	92.200	0.570	-0.620	0.410
2020/01/31 02:37:39.1	92.180	0.560	-0.590	0.430
2020/01/31 02:37:39.2	92.180	0.540	-0.560	0.440
2020/01/31 02:37:39.3	92.180	0.520	-0.530	0.460
2020/01/31 02:37:39.4	92.170	0.510	-0.500	0.470
2020/01/31 02:37:39.5	92.180	0.490	-0.480	0.480
2020/01/31 02:37:39.6	92.180	0.470	-0.450	0.490
2020/01/31 02:37:39.7	92.180	0.450	-0.430	0.500
2020/01/31 02:37:39.8	92.190	0.440	-0.410	0.510
2020/01/31 02:37:39.9	92.200	0.420	-0.400	0.520
2020/01/31 02:37:40.0	92.210	0.400	-0.390	0.530
2020/01/31 02:37:40.1	92.220	0.390	-0.380	0.550
2020/01/31 02:37:40.2	92.230	0.380	-0.370	0.550
2020/01/31 02:37:40.3	92.240	0.360	-0.370	0.560
2020/01/31 02:37:40.4	92.260	0.350	-0.370	0.570
2020/01/31 02:37:40.5	92.270	0.340	-0.370	0.580
2020/01/31 02:37:40.6	92.280	0.320	-0.370	0.590
2020/01/31 02:37:40.7	92.300	0.310	-0.370	0.600
2020/01/31 02:37:40.8	92.310	0.300	-0.370	0.610
2020/01/31 02:37:40.9	92.330	0.290	-0.370	0.620
2020/01/31 02:37:41.0	92.340	0.270	-0.370	0.640
2020/01/31 02:37:41.1	92.350	0.260	-0.370	0.650
2020/01/31 02:37:41.2	92.360	0.240	-0.370	0.660
2020/01/31 02:37:41.3	92.380	0.220	-0.360	0.680
2020/01/31 02:37:41.4	92.390	0.200	-0.350	0.690
2020/01/31 02:37:41.5	92.400	0.170	-0.330	0.700
2020/01/31 02:37:41.6	92.410	0.150	-0.310	0.720
2020/01/31 02:37:41.7	92.420	0.120	-0.290	0.730
2020/01/31 02:37:41.8	92.430	0.080	-0.270	0.750
2020/01/31 02:37:41.9	92.430	0.050	-0.240	0.770
2020/01/31 02:37:42.0	92.440	0.010	-0.200	0.780
2020/01/31 02:37:42.1	92.440	-0.030	-0.160	0.800
2020/01/31 02:37:42.2	92.440	-0.070	-0.120	0.820
2020/01/31 02:37:42.3	92.450	-0.110	-0.080	0.840
2020/01/31 02:37:42.4	92.450	-0.160	-0.030	0.860
2020/01/31 02:37:42.5	92.450	-0.200	0.020	0.880
2020/01/31 02:37:42.6	92.450	-0.250	0.060	0.910
2020/01/31 02:37:42.7	92.440	-0.300	0.120	0.930
2020/01/31 02:37:42.8	92.440	-0.350	0.170	0.950
2020/01/31 02:37:42.9	92.430	-0.400	0.220	0.980
2020/01/31 02:37:43.0	92.420	-0.450	0.270	1.000
2020/01/31 02:37:43.1	92.400	-0.500	0.320	1.030
2020/01/31 02:37:43.2	92.390	-0.540	0.370	1.050
2020/01/31 02:37:43.3	92.380	-0.590	0.410	1.070
2020/01/31 02:37:43.4	92.370	-0.630	0.450	1.090
2020/01/31 02:37:43.5	92.360	-0.670	0.490	1.110
2020/01/31 02:37:43.6	92.340	-0.710	0.530	1.120
2020/01/31 02:37:43.7	92.330	-0.740	0.560	1.130
2020/01/31 02:37:43.8	92.320	-0.770	0.580	1.140
2020/01/31 02:37:43.9	92.310	-0.800	0.600	1.150
2020/01/31 02:37:44.0	92.310	-0.820	0.610	1.150
2020/01/31 02:37:44.1	92.320	-0.840	0.620	1.150
2020/01/31 02:37:44.2	92.310	-0.850	0.620	1.140
2020/01/31 02:37:44.3	92.310	-0.860	0.620	1.140
2020/01/31 02:37:44.4	92.310	-0.860	0.600	1.120
2020/01/31 02:37:44.5	92.310	-0.860	0.590	1.110
2020/01/31 02:37:44.6	92.320	-0.860	0.560	1.090
2020/01/31 02:37:44.7	92.330	-0.840	0.530	1.070
2020/01/31 02:37:44.8	92.340	-0.830	0.490	1.040
2020/01/31 02:37:44.9	92.350	-0.810	0.440	1.010
2020/01/31 02:37:45.0	92.370	-0.780	0.390	0.980
2020/01/31 02:37:45.1	92.390	-0.750	0.340	0.940
2020/01/31 02:37:45.2	92.410	-0.720	0.270	0.900
2020/01/31 02:37:45.3	92.440	-0.680	0.200	0.860
2020/01/31 02:37:45.4	92.460	-0.640	0.130	0.820
2020/01/31 02:37:45.5	92.490	-0.590	0.050	0.770
2020/01/31 02:37:45.6	92.510	-0.540	-0.040	0.720
2020/01/31 02:37:45.7	92.540	-0.490	-0.120	0.670
2020/01/31 02:37:45.8	92.570	-0.430	-0.210	0.610
2020/01/31 02:37:45.9	92.600	-0.370	-0.300	0.560
2020/01/31 02:37:46.0	92.630	-0.310	-0.390	0.500
2020/01/31 02:37:46.1	92.670	-0.240	-0.490	0.450
2020/01/31 02:37:46.2	92.700	-0.180	-0.580	0.400
2020/01/31 02:37:46.3	92.730	-0.110	-0.670	0.340
2020/01/31 02:37:46.4	92.760	-0.040	-0.760	0.290
2020/01/31 02:37:46.5	92.790	0.030	-0.840	0.240
2020/01/31 02:37:46.6	92.810	0.100	-0.920	0.180
2020/01/31 02:37:46.7	92.840	0.170	-0.990	0.140
2020/01/31 02:37:46.8	92.860	0.240	-1.060	0.090
2020/01/31 02:37:46.9	92.880	0.310	-1.120	0.050
2020/01/31 02:37:47.0	92.900	0.370	-1.170	0.020
2020/01/31 02:37:47.1	92.900	0.440	-1.220	-0.020
2020/01/31 02:37:47.2	92.910	0.500	-1.260	-0.040
2020/01/31 02:37:47.3	92.920	0.560	-1.280	-0.060
2020/01/31 02:37:47.4	92.930	0.620	-1.300	-0.080
2020/01/31 02:37:47.5	92.930	0.670	-1.310	-0.090
2020/01/31 02:37:47.6	92.930	0.720	-1.320	-0.100
2020/01/31 02:37:47.7	92.920	0.770	-1.310	-0.100
2020/01/31 02:37:47.8	92.910	0.810	-1.290	-0.090
2020/01/31 02:37:47.9	92.910	0.840	-1.260	-0.080
2020/01/31 02:37:48.0	92.890	0.870	-1.230	-0.070
2020/01/31 02:37:48.1	92.900	0.900	-1.190	-0.060
2020/01/31 02:37:48.2	92.880	0.920	-1.140	-0.040
2020/01/31 02:37:48.3	92.870	0.930	-1.090	-0.020
2020/01/31 02:37:48.4	92.850	0.940	-1.020	0.000
2020/01/31 02:37:48.5	92.830	0.940	-0.960	0.030
2020/01/31 02:37:48.6	92.810	0.940	-0.890	0.050
2020/01/31 02:37:48.7	92.790	0.930	-0.810	0.080
2020/01/31 02:37:48.8	92.770	0.920	-0.740	0.110
2020/01/31 02:37:48.9	92.750	0.900	-0.660	0.130
2020/01/31 02:37:49.0	92.730	0.880	-0.580	0.160
2020/01/31 02:37:49.1	92.700	0.850	-0.500	0.190
2020/01/31 02:37:49.2	92.680	0.820	-0.410	0.210
2020/01/31 02:37:49.3	92.660	0.790	-0.330	0.240
2020/01/31 02:37:49.4	92.640	0.750	-0.250	0.270
2020/01/31 02:37:49.5	92.620	0.710	-0.170	0.290
2020/01/31 02:37:49.6	92.590	0.660	-0.100	0.310
2020/01/31 02:37:49.7	92.570	0.620	-0.020	0.330
2020/01/31 02:37:49.8	92.550	0.570	0.050	0.350
2020/01/31 02:37:49.9	92.530	0.520	0.110	0.370
2020/01/31 02:37:50.0	92.520	0.470	0.180	0.390
2020/01/31 02:37:50.1	92.480	0.410	0.240	0.400
2020/01/31 02:37:50.2	92.470	0.360	0.300	0.420
2020/01/31 02:37:50.3	92.450	0.310	0.350	0.430
2020/01/31 02:37:50.4	92.440	0.260	0.400	0.440
2020/01/31 02:37:50.5	92.430	0.210	0.440	0.450
2020/01/31 02:37:50.6	92.420	0.160	0.480	0.460
2020/01/31 02:37:50.7	92.420	0.110	0.510	0.460
2020/01/31 02:37:50.8	92.410	0.060	0.530	0.470
2020/01/31 02:37:50.9	92.410	0.010	0.550	0.470
2020/01/31 02:37:51.0	92.410	-0.030	0.570	0.470
2020/01/31 02:37:51.1	92.420	-0.070	0.580	0.470
2020/01/31 02:37:51.2	92.420	-0.110	0.580	0.470
2020/01/31 02:37:51.3	92.430	-0.140	0.580	0.470
2020/01/31 02:37:51.4	92.440	-0.180	0.570	0.470
2020/01/31 02:37:51.5	92.450	-0.210	0.560	0.470
2020/01/31 02:37:51.6	92.470	-0.230	0.540	0.470
2020/01/31 02:37:51.7	92.490	-0.260	0.520	0.470
2020/01/31 02:37:51.8	92.510	-0.280	0.500	0.470
2020/01/31 02:37:51.9	92.530	-0.300	0.470	0.470
2020/01/31 02:37:52.0	92.550	-0.310	0.430	0.470
2020/01/31 02:37:52.1	92.600	-0.330	0.400	0.470
2020/01/31 02:37:52.2	92.630	-0.340	0.360	0.470
2020/01/31 02:37:52.3	92.660	-0.350	0.320	0.470
2020/01/31 02:37:52.4	92.690	-0.360	0.280	0.470
2020/01/31 02:37:52.5	92.720	-0.360	0.230	0.480
2020/01/31 02:37:52.6	92.760	-0.370	0.190	0.480
2020/01/31 02:37:52.7	92.800	-0.370	0.140	0.480
2020/01/31 02:37:52.8	92.830	-0.370	0.100	0.480
2020/01/31 02:37:52.9	92.870	-0.380	0.060	0.490
2020/01/31 02:37:53.0	92.910	-0.380	0.010	0.490
2020/01/31 02:37:53.1	92.960	-0.380	-0.030	0.500
2020/01/31 02:37:53.2	92.990	-0.380	-0.080	0.510
2020/01/31 02:37:53.3	93.030	-0.380	-0.120	0.520
2020/01/31 02:37:53.4	93.070	-0.380	-0.160	0.540
2020/01/31 02:37:53.5	93.100	-0.380	-0.200	0.550
2020/01/31 02:37:53.6	93.130	-0.380	-0.240	0.570
2020/01/31 02:37:53.7	93.160	-0.380	-0.280	0.590
2020/01/31 02:37:53.8	93.180	-0.380	-0.310	0.620
2020/01/31 02:37:53.9	93.210	-0.380	-0.340	0.640
2020/01/31 02:37:54.0	93.230	-0.370	-0.370	0.670
2020/01/31 02:37:54.1	93.260	-0.370	-0.400	0.710
2020/01/31 02:37:54.2	93.270	-0.370	-0.430	0.740
2020/01/31 02:37:54.3	93.280	-0.360	-0.450	0.780
2020/01/31 02:37:54.4	93.280	-0.360	-0.470	0.810
2020/01/31 02:37:54.5	93.290	-0.350	-0.490	0.850
2020/01/31 02:37:54.6	93.290	-0.350	-0.510	0.890
2020/01/31 02:37:54.7	93.280	-0.340	-0.520	0.940
2020/01/31 02:37:54.8	93.270	-0.340	-0.520	0.980
2020/01/31 02:37:54.9	93.260	-0.330	-0.530	1.020
2020/01/31 02:37:55.0	93.250	-0.320	-0.530	1.060
2020/01/31 02:37:55.1	93.240	-0.310	-0.530	1.110
2020/01/31 02:37:55.2	93.220	-0.300	-0.520	1.140
2020/01/31 02:37:55.3	93.200	-0.290	-0.510	1.180
2020/01/31 02:37:55.4	93.180	-0.280	-0.500	1.220
2020/01/31 02:37:55.5	93.160	-0.270	-0.480	1.250
2020/01/31 02:37:55.6	93.140	-0.260	-0.470	1.280
2020/01/31 02:37:55.7	93.120	-0.250	-0.450	1.300
2020/01/31 02:37:55.8	93.100	-0.240	-0.430	1.330
2020/01/31 02:37:55.9	93.070	-0.220	-0.410	1.350
2020/01/31 02:37:56.0	93.050	-0.210	-0.380	1.360
2020/01/31 02:37:56.1	93.010	-0.190	-0.360	1.370
2020/01/31 02:37:56.2	92.990	-0.170	-0.340	1.380
2020/01/31 02:37:56.3	92.970	-0.150	-0.330	1.380
2020/01/31 02:37:56.4	92.950	-0.130	-0.310	1.370
2020/01/31 02:37:56.5	92.930	-0.110	-0.290	1.360
2020/01/31 02:37:56.6	92.920	-0.090	-0.280	1.350
2020/01/31 02:37:56.7	92.910	-0.070	-0.270	1.330
2020/01/31 02:37:56.8	92.890	-0.040	-0.260	1.310
2020/01/31 02:37:56.9	92.880	-0.010	-0.260	1.280
2020/01/31 02:37:57.0	92.870	0.010	-0.260	1.240
2020/01/31 02:37:57.1	92.870	0.040	-0.260	1.200
2020/01/31 02:37:57.2	92.860	0.070	-0.260	1.160
2020/01/31 02:37:57.3	92.860	0.100	-0.270	1.110
2020/01/31 02:37:57.4	92.850	0.140	-0.270	1.060
2020/01/31 02:37:57.5	92.850	0.170	-0.280	1.010
2020/01/31 02:37:57.6	92.850	0.200	-0.290	0.950
2020/01/31 02:37:57.7	92.850	0.230	-0.300	0.890
2020/01/31 02:37:57.8	92.850	0.270	-0.310	0.830
2020/01/31 02:37:57.9	92.850	0.300	-0.330	0.770
2020/01/31 02:37:58.0	92.860	0.330	-0.340	0.700
2020/01/31 02:37:58.1	92.850	0.360	-0.350	0.630
2020/01/31 02:37:58.2	92.860	0.390	-0.360	0.560
2020/01/31 02:37:58.3	92.860	0.420	-0.360	0.490
2020/01/31 02:37:58.4	92.870	0.440	-0.370	0.420
2020/01/31 02:37:58.5	92.880	0.470	-0.370	0.360
2020/01/31 02:37:58.6	92.890	0.490	-0.370	0.290
2020/01/31 02:37:58.7	92.900	0.510	-0.370	0.220
2020/01/31 02:37:58.8	92.910	0.530	-0.370	0.150
2020/01/31 02:37:58.9	92.930	0.550	-0.370	0.090
2020/01/31 02:37:59.0	92.940	0.560	-0.370	0.030
2020/01/31 02:37:59.1	92.950	0.570	-0.360	-0.030
2020/01/31 02:37:59.2	92.970	0.580	-0.350	-0.080
2020/01/31 02:37:59.3	92.980	0.580	-0.350	-0.130
2020/01/31 02:37:59.4	93.000	0.580	-0.340	-0.180
2020/01/31 02:37:59.5	93.020	0.580	-0.330	-0.220
2020/01/31 02:37:59.6	93.040	0.580	-0.320	-0.260
2020/01/31 02:37:59.7	93.050	0.570	-0.310	-0.290
2020/01/31 02:37:59.8	93.070	0.560	-0.300	-0.320
2020/01/31 02:37:59.9	93.090	0.550	-0.290	-0.340
2020/01/31 02:38:00.0	93.110	0.530	-0.280	-0.350
2020/01/31 02:38:00.1	93.140	0.520	-0.270	-0.360
2020/01/31 02:38:00.2	93.160	0.500	-0.260	-0.360
2020/01/31 02:38:00.3	93.180	0.470	-0.250	-0.360
2020/01/31 02:38:00.4	93.190	0.450	-0.240	-0.350
2020/01/31 02:38:00.5	93.210	0.420	-0.230	-0.330
2020/01/31 02:38:00.6	93.220	0.390	-0.220	-0.310
2020/01/31 02:38:00.7	93.230	0.360	-0.210	-0.280
2020/01/31 02:38:00.8	93.250	0.330	-0.200	-0.250
2020/01/31 02:38:00.9	93.250	0.290	-0.190	-0.210
2020/01/31 02:38:01.0	93.260	0.250	-0.180	-0.170
2020/01/31 02:38:01.1	93.270	0.220	-0.170	-0.120
2020/01/31 02:38:01.2	93.270	0.180	-0.160	-0.070
2020/01/31 02:38:01.3	93.280	0.130	-0.150	-0.010
2020/01/31 02:38:01.4	93.280	0.090	-0.130	0.040
2020/01/31 02:38:01.5	93.280	0.050	-0.120	0.100
2020/01/31 02:38:01.6	93.280	0.000	-0.100	0.150
2020/01/31 02:38:01.7	93.280	-0.040	-0.080	0.210
2020/01/31 02:38:01.8	93.280	-0.080	-0.070	0.270
2020/01/31 02:38:01.9	93.280	-0.130	-0.050	0.330
2020/01/31 02:38:02.0	93.280	-0.180	-0.030	0.390
2020/01/31 02:38:02.1	93.290	-0.220	-0.010	0.450
2020/01/31 02:38:02.2	93.290	-0.270	0.010	0.500
2020/01/31 02:38:02.3	93.290	-0.310	0.030	0.560
2020/01/31 02:38:02.4	93.290	-0.350	0.050	0.610
2020/01/31 02:38:02.5	93.290	-0.390	0.070	0.670
2020/01/31 02:38:02.6	93.290	-0.430	0.090	0.720
2020/01/31 02:38:02.7	93.290	-0.470	0.100	0.770
2020/01/31 02:38:02.8	93.290	-0.510	0.120	0.820
2020/01/31 02:38:02.9	93.290	-0.550	0.130	0.870
2020/01/31 02:38:03.0	93.290	-0.580	0.150	0.910
2020/01/31 02:38:03.1	93.290	-0.610	0.160	0.960
2020/01/31 02:38:03.2	93.290	-0.630	0.170	1.000
2020/01/31 02:38:03.3	93.300	-0.660	0.170	1.040
2020/01/31 02:38:03.4	93.300	-0.680	0.180	1.080
2020/01/31 02:38:03.5	93.300	-0.700	0.180	1.120
2020/01/31 02:38:03.6	93.310	-0.710	0.180	1.150
2020/01/31 02:38:03.7	93.310	-0.720	0.170	1.180
2020/01/31 02:38:03.8	93.320	-0.720	0.160	1.210
2020/01/31 02:38:03.9	93.330	-0.720	0.150	1.230
2020/01/31 02:38:04.0	93.340	-0.720	0.130	1.250
2020/01/31 02:38:04.1	93.330	-0.710	0.110	1.270
2020/01/31 02:38:04.2	93.340	-0.700	0.090	1.280
2020/01/31 02:38:04.3	93.350	-0.680	0.060	1.290
2020/01/31 02:38:04.4	93.360	-0.660	0.030	1.300
2020/01/31 02:38:04.5	93.370	-0.640	0.000	1.300
2020/01/31 02:38:04.6	93.380	-0.610	-0.030	1.300
2020/01/31 02:38:04.7	93.390	-0.570	-0.070	1.290
2020/01/31 02:38:04.8	93.400	-0.540	-0.110	1.290
2020/01/31 02:38:04.9	93.410	-0.500	-0.150	1.280
2020/01/31 02:38:05.0	93.420	-0.450	-0.200	1.270
2020/01/31 02:38:05.1	93.430	-0.410	-0.240	1.260
2020/01/31 02:38:05.2	93.440	-0.360	-0.290	1.250
2020/01/31 02:38:05.3	93.440	-0.310	-0.330	1.230
2020/01/31 02:38:05.4	93.430	-0.250	-0.370	1.220
2020/01/31 02:38:05.5	93.430	-0.200	-0.420	1.210
2020/01/31 02:38:05.6	93.420	-0.150	-0.460	1.190
2020/01/31 02:38:05.7	93.410	-0.090	-0.500	1.170
2020/01/31 02:38:05.8	93.390	-0.030	-0.530	1.160
2020/01/31 02:38:05.9	93.380	0.020	-0.570	1.140
2020/01/31 02:38:06.0	93.360	0.080	-0.600	1.120
2020/01/31 02:38:06.1	93.320	0.130	-0.630	1.100
2020/01/31 02:38:06.2	93.300	0.180	-0.660	1.080
2020/01/31 02:38:06.3	93.280	0.230	-0.680	1.060
2020/01/31 02:38:06.4	93.260	0.280	-0.690	1.040
2020/01/31 02:38:06.5	93.230	0.320	-0.700	1.020
2020/01/31 02:38:06.6	93.210	0.360	-0.710	1.000
2020/01/31 02:38:06.7	93.190	0.400	-0.710	0.980
2020/01/31 02:38:06.8	93.170	0.440	-0.710	0.950
2020/01/31 02:38:06.9	93.150	0.470	-0.700	0.930
2020/01/31 02:38:07.0	93.130	0.500	-0.690	0.900
2020/01/31 02:38:07.1	93.110	0.520	-0.670	0.880
2020/01/31 02:38:07.2	93.100	0.540	-0.650	0.850
2020/01/31 02:38:07.3	93.080	0.560	-0.630	0.830
2020/01/31 02:38:07.4	93.070	0.570	-0.600	0.800
2020/01/31 02:38:07.5	93.060	0.580	-0.570	0.770
2020/01/31 02:38:07.6	93.050	0.580	-0.540	0.750
2020/01/31 02:38:07.7	93.050	0.580	-0.510	0.720
2020/01/31 02:38:07.8	93.040	0.580	-0.480	0.700
2020/01/31 02:38:07.9	93.040	0.570	-0.440	0.680
2020/01/31 02:38:08.0	93.040	0.560	-0.400	0.650
2020/01/31 02:38:08.1	93.040	0.550	-0.370	0.630
2020/01/31 02:38:08.2	93.050	0.540	-0.330	0.610
2020/01/31 02:38:08.3	93.050	0.520	-0.290	0.590
2020/01/31 02:38:08.4	93.050	0.500	-0.260	0.570
2020/01/31 02:38:08.5	93.060	0.480	-0.230	0.550
2020/01/31 02:38:08.6	93.060	0.460	-0.200	0.530
2020/01/31 02:38:08.7	93.070	0.440	-0.170	0.510
2020/01/31 02:38:08.8	93.080	0.420	-0.150	0.490
2020/01/31 02:38:08.9	93.090	0.390	-0.130	0.470
2020/01/31 02:38:09.0	93.090	0.370	-0.110	0.450
2020/01/31 02:38:09.1	93.110	0.350	-0.090	0.430
2020/01/31 02:38:09.2	93.120	0.330	-0.080	0.400
2020/01/31 02:38:09.3	93.130	0.310	-0.070	0.380
2020/01/31 02:38:09.4	93.140	0.290	-0.070	0.350
2020/01/31 02:38:09.5	93.150	0.270	-0.060	0.330
2020/01/31 02:38:09.6	93.170	0.250	-0.060	0.300
2020/01/31 02:38:09.7	93.180	0.230	-0.070	0.280
2020/01/31 02:38:09.8	93.190	0.210	-0.070	0.250
2020/01/31 02:38:09.9	93.210	0.200	-0.070	0.230
2020/01/31 02:38:10.0	93.220	0.190	-0.080	0.200
2020/01/31 02:38:10.1	93.230	0.170	-0.080	0.180
2020/01/31 02:38:10.2	93.250	0.160	-0.090	0.170
2020/01/31 02:38:10.3	93.260	0.150	-0.090	0.160
2020/01/31 02:38:10.4	93.280	0.130	-0.100	0.150
2020/01/31 02:38:10.5	93.290	0.120	-0.100	0.150
2020/01/31 02:38:10.6	93.300	0.110	-0.100	0.150
2020/01/31 02:38:10.7	93.310	0.090	-0.100	0.160
2020/01/31 02:38:10.8	93.330	0.080	-0.100	0.170
2020/01/31 02:38:10.9	93.340	0.060	-0.090	0.190
2020/01/31 02:38:11.0	93.350	0.050	-0.080	0.210
2020/01/31 02:38:11.1	93.350	0.030	-0.080	0.240
2020/01/31 02:38:11.2	93.360	0.010	-0.070	0.270
2020/01/31 02:38:11.3	93.380	-0.010	-0.050	0.300
2020/01/31 02:38:11.4	93.390	-0.030	-0.040	0.340
2020/01/31 02:38:11.5	93.400	-0.050	-0.020	0.380
2020/01/31 02:38:11.6	93.410	-0.080	0.000	0.420
2020/01/31 02:38:11.7	93.420	-0.100	0.030	0.460
2020/01/31 02:38:11.8	93.430	-0.130	0.050	0.510
2020/01/31 02:38:11.9	93.440	-0.160	0.070	0.550
2020/01/31 02:38:12.0	93.440	-0.180	0.090	0.590
2020/01/31 02:38:12.1	93.450	-0.210	0.120	0.640
2020/01/31 02:38:12.2	93.460	-0.240	0.140	0.670
2020/01/31 02:38:12.3	93.460	-0.270	0.160	0.710
2020/01/31 02:38:12.4	93.460	-0.300	0.180	0.750
2020/01/31 02:38:12.5	93.470	-0.330	0.200	0.780
2020/01/31 02:38:12.6	93.460	-0.360	0.210	0.810
2020/01/31 02:38:12.7	93.460	-0.390	0.220	0.840
2020/01/31 02:38:12.8	93.460	-0.410	0.230	0.870
2020/01/31 02:38:12.9	93.450	-0.440	0.240	0.900
2020/01/31 02:38:13.0	93.440	-0.460	0.240	0.930
2020/01/31 02:38:13.1	93.430	-0.480	0.240	0.960
2020/01/31 02:38:13.2	93.420	-0.500	0.230	0.980
2020/01/31 02:38:13.3	93.400	-0.520	0.230	1.010
2020/01/31 02:38:13.4	93.390	-0.530	0.210	1.030
2020/01/31 02:38:13.5	93.380	-0.540	0.200	1.060
2020/01/31 02:38:13.6	93.360	-0.540	0.180	1.080
2020/01/31 02:38:13.7	93.350	-0.540	0.150	1.110
2020/01/31 02:38:13.8	93.340	-0.540	0.120	1.130
2020/01/31 02:38:13.9	93.320	-0.540	0.090	1.150
2020/01/31 02:38:14.0	93.310	-0.530	0.050	1.170
2020/01/31 02:38:14.1	93.280	-0.520	0.010	1.190
2020/01/31 02:38:14.2	93.270	-0.500	-0.040	1.200
2020/01/31 02:38:14.3	93.260	-0.480	-0.090	1.210
2020/01/31 02:38:14.4	93.250	-0.450	-0.140	1.220
2020/01/31 02:38:14.5	93.250	-0.420	-0.200	1.230
2020/01/31 02:38:14.6	93.240	-0.390	-0.260	1.230
2020/01/31 02:38:14.7	93.240	-0.360	-0.320	1.230
2020/01/31 02:38:14.8	93.230	-0.320	-0.380	1.230
2020/01/31 02:38:14.9	93.230	-0.280	-0.440	1.220
2020/01/31 02:38:15.0	93.230	-0.230	-0.510	1.210
2020/01/31 02:38:15.1	93.230	-0.190	-0.570	1.200
2020/01/31 02:38:15.2	93.220	-0.140	-0.640	1.180
2020/01/31 02:38:15.3	93.220	-0.090	-0.700	1.160
2020/01/31 02:38:15.4	93.220	-0.050	-0.760	1.140
2020/01/31 02:38:15.5	93.220	0.000	-0.810	1.120
2020/01/31 02:38:15.6	93.220	0.050	-0.870	1.100
2020/01/31 02:38:15.7	93.210	0.100	-0.910	1.080
2020/01/31 02:38:15.8	93.210	0.150	-0.960	1.050
2020/01/31 02:38:15.9	93.200	0.200	-1.000	1.030
2020/01/31 02:38:16.0	93.200	0.250	-1.030	1.010
2020/01/31 02:38:16.1	93.200	0.290	-1.060	0.990
2020/01/31 02:38:16.2	93.190	0.330	-1.080	0.970
2020/01/31 02:38:16.3	93.180	0.370	-1.090	0.950
2020/01/31 02:38:16.4	93.170	0.410	-1.100	0.930
2020/01/31 02:38:16.5	93.150	0.440	-1.100	0.920
2020/01/31 02:38:16.6	93.140	0.470	-1.090	0.900
2020/01/31 02:38:16.7	93.120	0.500	-1.080	0.890
2020/01/31 02:38:16.8	93.100	0.520	-1.060	0.880
2020/01/31 02:38:16.9	93.090	0.540	-1.030	0.860
2020/01/31 02:38:17.0	93.070	0.550	-1.000	0.850
2020/01/31 02:38:17.1	93.050	0.560	-0.960	0.840
2020/01/31 02:38:17.2	93.030	0.570	-0.910	0.830
2020/01/31 02:38:17.3	93.020	0.570	-0.860	0.820
2020/01/31 02:38:17.4	93.000	0.570	-0.800	0.800
2020/01/31 02:38:17.5	92.990	0.560	-0.740	0.790
2020/01/31 02:38:17.6	92.970	0.550	-0.680	0.770
2020/01/31 02:38:17.7	92.960	0.540	-0.610	0.760
2020/01/31 02:38:17.8	92.950	0.520	-0.530	0.740
2020/01/31 02:38:17.9	92.940	0.500	-0.460	0.720
2020/01/31 02:38:18.0	92.930	0.480	-0.380	0.710
2020/01/31 02:38:18.1	92.910	0.450	-0.300	0.690
2020/01/31 02:38:18.2	92.900	0.420	-0.220	0.660
2020/01/31 02:38:18.3	92.890	0.390	-0.130	0.640
2020/01/31 02:38:18.4	92.890	0.350	-0.050	0.620
2020/01/31 02:38:18.5	92.890	0.320	0.030	0.590
2020/01/31 02:38:18.6	92.880	0.280	0.110	0.570
2020/01/31 02:38:18.7	92.880	0.240	0.180	0.540
2020/01/31 02:38:18.8	92.880	0.200	0.260	0.520
2020/01/31 02:38:18.9	92.880	0.150	0.330	0.490
2020/01/31 02:38:19.0	92.880	0.110	0.400	0.470
2020/01/31 02:38:19.1	92.890	0.070	0.470	0.450
2020/01/31 02:38:19.2	92.890	0.020	0.530	0.430
2020/01/31 02:38:19.3	92.890	-0.020	0.580	0.410
2020/01/31 02:38:19.4	92.890	-0.060	0.630	0.390
2020/01/31 02:38:19.5	92.890	-0.100	0.670	0.380
2020/01/31 02:38:19.6	92.890	-0.150	0.710	0.360
2020/01/31 02:38:19.7	92.890	-0.190	0.740	0.350
2020/01/31 02:38:19.8	92.890	-0.230	0.770	0.340
2020/01/31 02:38:19.9	92.900	-0.260	0.790	0.330
2020/01/31 02:38:20.0	92.900	-0.300	0.800	0.330
2020/01/31 02:38:20.1	92.910	-0.330	0.800	0.320
2020/01/31 02:38:20.2	92.910	-0.370	0.800	0.320
2020/01/31 02:38:20.3	92.920	-0.400	0.800	0.320
2020/01/31 02:38:20.4	92.920	-0.420	0.780	0.320
2020/01/31 02:38:20.5	92.930	-0.450	0.760	0.320
2020/01/31 02:38:20.6	92.930	-0.470	0.740	0.320
2020/01/31 02:38:20.7	92.940	-0.480	0.710	0.320
2020/01/31 02:38:20.8	92.950	-0.500	0.670	0.330
2020/01/31 02:38:20.9	92.960	-0.510	0.620	0.330
2020/01/31 02:38:21.0	92.970	-0.510	0.570	0.340
2020/01/31 02:38:21.1	92.980	-0.520	0.520	0.340
2020/01/31 02:38:21.2	92.990	-0.510	0.460	0.350
2020/01/31 02:38:21.3	93.000	-0.510	0.390	0.360
2020/01/31 02:38:21.4	93.000	-0.500	0.320	0.370
2020/01/31 02:38:21.5	93.010	-0.480	0.250	0.380
2020/01/31 02:38:21.6	93.020	-0.460	0.170	0.390
2020/01/31 02:38:21.7	93.030	-0.440	0.090	0.400
2020/01/31 02:38:21.8	93.030	-0.420	0.010	0.420
2020/01/31 02:38:21.9	93.040	-0.390	-0.070	0.430
2020/01/31 02:38:22.0	93.050	-0.350	-0.160	0.450
2020/01/31 02:38:22.1	93.060	-0.320	-0.250	0.470
2020/01/31 02:38:22.2	93.060	-0.280	-0.330	0.490
2020/01/31 02:38:22.3	93.070	-0.240	-0.420	0.510
2020/01/31 02:38:22.4	93.070	-0.190	-0.500	0.530
2020/01/31 02:38:22.5	93.070	-0.140	-0.590	0.560
2020/01/31 02:38:22.6	93.070	-0.100	-0.670	0.580
2020/01/31 02:38:22.7	93.070	-0.050	-0.740	0.610
2020/01/31 02:38:22.8	93.070	0.000	-0.820	0.630
2020/01/31 02:38:22.9	93.070	0.050	-0.890	0.660
2020/01/31 02:38:23.0	93.070	0.110	-0.960	0.690
2020/01/31 02:38:23.1	93.080	0.160	-1.020	0.720
2020/01/31 02:38:23.2	93.070	0.210	-1.080	0.750
2020/01/31 02:38:23.3	93.070	0.260	-1.130	0.780
2020/01/31 02:38:23.4	93.060	0.300	-1.180	0.810
2020/01/31 02:38:23.5	93.060	0.350	-1.220	0.850
2020/01/31 02:38:23.6	93.050	0.390	-1.250	0.880
2020/01/31 02:38:23.7	93.040	0.430	-1.280	0.910
2020/01/31 02:38:23.8	93.040	0.470	-1.290	0.950
2020/01/31 02:38:23.9	93.030	0.500	-1.300	0.980
2020/01/31 02:38:24.0	93.020	0.530	-1.300	1.020
2020/01/31 02:38:24.1	92.990	0.550	-1.280	1.060
2020/01/31 02:38:24.2	92.980	0.560	-1.260	1.090
2020/01/31 02:38:24.3	92.970	0.570	-1.230	1.130
2020/01/31 02:38:24.4	92.960	0.580	-1.180	1.170
2020/01/31 02:38:24.5	92.940	0.570	-1.130	1.210
2020/01/31 02:38:24.6	92.930	0.560	-1.060	1.240
2020/01/31 02:38:24.7	92.920	0.550	-0.990	1.280
2020/01/31 02:38:24.8	92.900	0.530	-0.910	1.320
2020/01/31 02:38:24.9	92.890	0.500	-0.820	1.350
2020/01/31 02:38:25.0	92.880	0.470	-0.720	1.390
2020/01/31 02:38:25.1	92.870	0.430	-0.620	1.420
2020/01/31 02:38:25.2	92.860	0.380	-0.510	1.450
2020/01/31 02:38:25.3	92.840	0.340	-0.400	1.470
2020/01/31 02:38:25.4	92.830	0.280	-0.290	1.490
2020/01/31 02:38:25.5	92.820	0.220	-0.180	1.510
2020/01/31 02:38:25.6	92.810	0.160	-0.060	1.530
2020/01/31 02:38:25.7	92.800	0.100	0.050	1.540
2020/01/31 02:38:25.8	92.790	0.040	0.160	1.540
2020/01/31 02:38:25.9	92.770	-0.030	0.260	1.540
2020/01/31 02:38:26.0	92.760	-0.100	0.360	1.540
2020/01/31 02:38:26.1	92.760	-0.160	0.460	1.530
2020/01/31 02:38:26.2	92.750	-0.230	0.550	1.520
2020/01/31 02:38:26.3	92.740	-0.290	0.620	1.500
2020/01/31 02:38:26.4	92.730	-0.350	0.690	1.480
2020/01/31 02:38:26.5	92.720	-0.410	0.750	1.460
2020/01/31 02:38:26.6	92.710	-0.470	0.800	1.430
2020/01/31 02:38:26.7	92.700	-0.520	0.840	1.400
2020/01/31 02:38:26.8	92.690	-0.560	0.870	1.370
2020/01/31 02:38:26.9	92.680	-0.600	0.880	1.340
2020/01/31 02:38:27.0	92.670	-0.630	0.880	1.300
2020/01/31 02:38:27.1	92.670	-0.660	0.870	1.270
2020/01/31 02:38:27.2	92.660	-0.680	0.840	1.230
2020/01/31 02:38:27.3	92.660	-0.690	0.800	1.190
2020/01/31 02:38:27.4	92.650	-0.690	0.750	1.150
2020/01/31 02:38:27.5	92.650	-0.690	0.690	1.110
2020/01/31 02:38:27.6	92.640	-0.680	0.620	1.070
2020/01/31 02:38:27.7	92.640	-0.660	0.540	1.040
2020/01/31 02:38:27.8	92.630	-0.640	0.450	1.000
2020/01/31 02:38:27.9	92.630	-0.610	0.350	0.970
2020/01/31 02:38:28.0	92.620	-0.570	0.250	0.940
2020/01/31 02:38:28.1	92.610	-0.530	0.140	0.910
2020/01/31 02:38:28.2	92.610	-0.480	0.030	0.880
2020/01/31 02:38:28.3	92.600	-0.430	-0.090	0.860
2020/01/31 02:38:28.4	92.590	-0.380	-0.200	0.840
2020/01/31 02:38:28.5	92.580	-0.320	-0.310	0.820
2020/01/31 02:38:28.6	92.570	-0.260	-0.420	0.800
2020/01/31 02:38:28.7	92.560	-0.200	-0.520	0.790
2020/01/31 02:38:28.8	92.550	-0.140	-0.630	0.780
2020/01/31 02:38:28.9	92.540	-0.080	-0.720	0.760
2020/01/31 02:38:29.0	92.530	-0.020	-0.810	0.750
2020/01/31 02:38:29.1	92.530	0.040	-0.890	0.740
2020/01/31 02:38:29.2	92.520	0.100	-0.970	0.730
2020/01/31 02:38:29.3	92.510	0.160	-1.030	0.710
2020/01/31 02:38:29.4	92.500	0.210	-1.090	0.700
2020/01/31 02:38:29.5	92.490	0.260	-1.130	0.680
2020/01/31 02:38:29.6	92.480	0.310	-1.170	0.670
2020/01/31 02:38:29.7	92.470	0.350	-1.190	0.650
2020/01/31 02:38:29.8	92.470	0.400	-1.210	0.640
2020/01/31 02:38:29.9	92.460	0.430	-1.210	0.620
2020/01/31 02:38:30.0	92.450	0.470	-1.210	0.610
2020/01/31 02:38:30.1	92.430	0.500	-1.190	0.590
2020/01/31 02:38:30.2	92.430	0.520	-1.160	0.570
2020/01/31 02:38:30.3	92.420	0.540	-1.130	0.560
2020/01/31 02:38:30.4	92.420	0.560	-1.090	0.550
2020/01/31 02:38:30.5	92.410	0.570	-1.030	0.530
2020/01/31 02:38:30.6	92.400	0.580	-0.970	0.530
2020/01/31 02:38:30.7	92.400	0.580	-0.900	0.520
2020/01/31 02:38:30.8	92.390	0.580	-0.830	0.510
2020/01/31 02:38:30.9	92.390	0.570	-0.750	0.510
2020/01/31 02:38:31.0	92.380	0.560	-0.660	0.510
2020/01/31 02:38:31.1	92.370	0.550	-0.570	0.510
2020/01/31 02:38:31.2	92.370	0.530	-0.470	0.520
2020/01/31 02:38:31.3	92.370	0.510	-0.380	0.520
2020/01/31 02:38:31.4	92.360	0.480	-0.280	0.530
2020/01/31 02:38:31.5	92.360	0.450	-0.180	0.540
2020/01/31 02:38:31.6	92.360	0.420	-0.080	0.550
2020/01/31 02:38:31.7	92.360	0.390	0.020	0.560
2020/01/31 02:38:31.8	92.360	0.350	0.120	0.580
2020/01/31 02:38:31.9	92.360	0.310	0.220	0.590
2020/01/31 02:38:32.0	92.360	0.270	0.310	0.600
2020/01/31 02:38:32.1	92.350	0.220	0.400	0.610
2020/01/31 02:38:32.2	92.360	0.180	0.480	0.630
2020/01/31 02:38:32.3	92.370	0.130	0.550	0.640
2020/01/31 02:38:32.4	92.370	0.080	0.620	0.650
2020/01/31 02:38:32.5	92.380	0.040	0.680	0.650
2020/01/31 02:38:32.6	92.390	-0.010	0.730	0.660
2020/01/31 02:38:32.7	92.400	-0.050	0.770	0.670
2020/01/31 02:38:32.8	92.410	-0.100	0.800	0.670
2020/01/31 02:38:32.9	92.410	-0.140	0.820	0.680
2020/01/31 02:38:33.0	92.420	-0.180	0.830	0.680
2020/01/31 02:38:33.1	92.440	-0.220	0.840	0.690
2020/01/31 02:38:33.2	92.450	-0.250	0.830	0.690
2020/01/31 02:38:33.3	92.450	-0.290	0.810	0.700
2020/01/31 02:38:33.4	92.460	-0.320	0.780	0.700
2020/01/31 02:38:33.5	92.460	-0.340	0.750	0.710
2020/01/31 02:38:33.6	92.460	-0.360	0.700	0.720
2020/01/31 02:38:33.7	92.460	-0.380	0.650	0.730
2020/01/31 02:38:33.8	92.460	-0.390	0.590	0.740
2020/01/31 02:38:33.9	92.450	-0.400	0.530	0.750
2020/01/31 02:38:34.0	92.440	-0.410	0.460	0.770
2020/01/31 02:38:34.1	92.430	-0.410	0.380	0.800
2020/01/31 02:38:34.2	92.420	-0.410	0.310	0.820
2020/01/31 02:38:34.3	92.400	-0.410	0.230	0.840
2020/01/31 02:38:34.4	92.380	-0.410	0.150	0.870
2020/01/31 02:38:34.5	92.360	-0.400	0.070	0.900
2020/01/31 02:38:34.6	92.340	-0.390	-0.000	0.920
2020/01/31 02:38:34.7	92.320	-0.380	-0.080	0.950
2020/01/31 02:38:34.8	92.290	-0.370	-0.150	0.970
2020/01/31 02:38:34.9	92.270	-0.350	-0.220	1.000
2020/01/31 02:38:35.0	92.250	-0.340	-0.280	1.020
2020/01/31 02:38:35.1	92.220	-0.320	-0.350	1.040
2020/01/31 02:38:35.2	92.200	-0.300	-0.410	1.060
2020/01/31 02:38:35.3	92.180	-0.290	-0.460	1.070
2020/01/31 02:38:35.4	92.160	-0.270	-0.510	1.090
2020/01/31 02:38:35.5	92.140	-0.250	-0.550	1.100
2020/01/31 02:38:35.6	92.120	-0.240	-0.590	1.110
2020/01/31 02:38:35.7	92.110	-0.220	-0.630	1.120
2020/01/31 02:38:35.8	92.090	-0.210	-0.660	1.130
2020/01/31 02:38:35.9	92.080	-0.190	-0.690	1.140
2020/01/31 02:38:36.0	92.070	-0.180	-0.710	1.140
2020/01/31 02:38:36.1	92.080	-0.170	-0.730	1.150
2020/01/31 02:38:36.2	92.070	-0.160	-0.750	1.160
2020/01/31 02:38:36.3	92.070	-0.140	-0.760	1.160
2020/01/31 02:38:36.4	92.070	-0.130	-0.770	1.170
2020/01/31 02:38:36.5	92.070	-0.120	-0.780	1.170
2020/01/31 02:38:36.6	92.070	-0.120	-0.780	1.180
2020/01/31 02:38:36.7	92.070	-0.110	-0.780	1.190
2020/01/31 02:38:36.8	92.070	-0.100	-0.780	1.200
2020/01/31 02:38:36.9	92.070	-0.100	-0.780	1.200
2020/01/31 02:38:37.0	92.070	-0.090	-0.770	1.210
2020/01/31 02:38:37.1	92.080	-0.080	-0.760	1.230
2020/01/31 02:38:37.2	92.080	-0.080	-0.750	1.230
2020/01/31 02:38:37.3	92.080	-0.070	-0.740	1.240
2020/01/31 02:38:37.4	92.090	-0.070	-0.730	1.250
2020/01/31 02:38:37.5	92.090	-0.060	-0.710	1.250
2020/01/31 02:38:37.6	92.100	-0.060	-0.700	1.260
2020/01/31 02:38:37.7	92.100	-0.050	-0.680	1.260
2020/01/31 02:38:37.8	92.110	-0.050	-0.660	1.260
2020/01/31 02:38:37.9	92.120	-0.040	-0.640	1.250
2020/01/31 02:38:38.0	92.120	-0.030	-0.610	1.250
2020/01/31 02:38:38.1	92.110	-0.030	-0.580	1.230
2020/01/31 02:38:38.2	92.120	-0.020	-0.560	1.220
2020/01/31 02:38:38.3	92.120	-0.010	-0.530	1.210
2020/01/31 02:38:38.4	92.120	0.000	-0.500	1.190
2020/01/31 02:38:38.5	92.120	0.020	-0.470	1.180
2020/01/31 02:38:38.6	92.120	0.030	-0.440	1.160
2020/01/31 02:38:38.7	92.120	0.040	-0.410	1.140
2020/01/31 02:38:38.8	92.110	0.060	-0.380	1.120
2020/01/31 02:38:38.9	92.110	0.070	-0.350	1.100
2020/01/31 02:38:39.0	92.100	0.090	-0.320	1.080
2020/01/31 02:38:39.1	92.100	0.110	-0.290	1.070
2020/01/31 02:38:39.2	92.080	0.120	-0.260	1.050
2020/01/31 02:38:39.3	92.070	0.140	-0.230	1.040
2020/01/31 02:38:39.4	92.050	0.160	-0.210	1.030
2020/01/31 02:38:39.5	92.030	0.180	-0.180	1.020
2020/01/31 02:38:39.6	92.010	0.190	-0.160	1.010
2020/01/31 02:38:39.7	91.980	0.210	-0.130	1.000
2020/01/31 02:38:39.8	91.960	0.220	-0.110	0.990
2020/01/31 02:38:39.9	91.940	0.240	-0.090	0.990
2020/01/31 02:38:40.0	91.910	0.250	-0.070	0.980
2020/01/31 02:38:40.1	91.900	0.260	-0.050	0.980
2020/01/31 02:38:40.2	91.870	0.270	-0.030	0.970
2020/01/31 02:38:40.3	91.850	0.270	-0.010	0.960
2020/01/31 02:38:40.4	91.830	0.280	0.010	0.950
2020/01/31 02:38:40.5	91.810	0.280	0.020	0.940
2020/01/31 02:38:40.6	91.790	0.280	0.040	0.930
2020/01/31 02:38:40.7	91.770	0.280	0.050	0.910
2020/01/31 02:38:40.8	91.750	0.270	0.070	0.900
2020/01/31 02:38:40.9	91.730	0.270	0.080	0.880
2020/01/31 02:38:41.0	91.720	0.260	0.090	0.860
2020/01/31 02:38:41.1	91.690	0.250	0.100	0.840
2020/01/31 02:38:41.2	91.680	0.240	0.100	0.810
2020/01/31 02:38:41.3	91.670	0.230	0.110	0.790
2020/01/31 02:38:41.4	91.660	0.220	0.110	0.760
2020/01/31 02:38:41.5	91.650	0.200	0.110	0.730
2020/01/31 02:38:41.6	91.640	0.190	0.110	0.690
2020/01/31 02:38:41.7	91.630	0.180	0.110	0.660
2020/01/31 02:38:41.8	91.620	0.160	0.110	0.630
2020/01/31 02:38:41.9	91.610	0.150	0.100	0.590
2020/01/31 02:38:42.0	91.600	0.140	0.090	0.550
2020/01/31 02:38:42.1	91.580	0.120	0.080	0.510
2020/01/31 02:38:42.2	91.580	0.110	0.060	0.470
2020/01/31 02:38:42.3	91.570	0.100	0.050	0.430
2020/01/31 02:38:42.4	91.570	0.090	0.030	0.390
2020/01/31 02:38:42.5	91.570	0.080	0.010	0.350
2020/01/31 02:38:42.6	91.580	0.080	-0.020	0.310
2020/01/31 02:38:42.7	91.580	0.070	-0.040	0.280
2020/01/31 02:38:42.8	91.580	0.070	-0.070	0.240
2020/01/31 02:38:42.9	91.590	0.060	-0.100	0.210
2020/01/31 02:38:43.0	91.600	0.060	-0.140	0.170
2020/01/31 02:38:43.1	91.620	0.070	-0.180	0.140
2020/01/31 02:38:43.2	91.630	0.070	-0.210	0.110
2020/01/31 02:38:43.3	91.640	0.070	-0.250	0.090
2020/01/31 02:38:43.4	91.660	0.080	-0.290	0.070
2020/01/31 02:38:43.5	91.670	0.090	-0.330	0.050
2020/01/31 02:38:43.6	91.680	0.090	-0.370	0.030
2020/01/31 02:38:43.7	91.700	0.100	-0.410	0.020
2020/01/31 02:38:43.8	91.710	0.110	-0.450	0.020
2020/01/31 02:38:43.9	91.720	0.120	-0.490	0.010
2020/01/31 02:38:44.0	91.740	0.130	-0.520	0.020
2020/01/31 02:38:44.1	91.750	0.140	-0.550	0.030
2020/01/31 02:38:44.2	91.760	0.140	-0.580	0.050
2020/01/31 02:38:44.3	91.770	0.150	-0.610	0.070
2020/01/31 02:38:44.4	91.780	0.160	-0.620	0.090
2020/01/31 02:38:44.5	91.790	0.160	-0.640	0.120
2020/01/31 02:38:44.6	91.800	0.160	-0.650	0.160
2020/01/31 02:38:44.7	91.800	0.160	-0.650	0.190
2020/01/31 02:38:44.8	91.810	0.160	-0.650	0.240
2020/01/31 02:38:44.9	91.810	0.150	-0.640	0.280
2020/01/31 02:38:45.0	91.810	0.150	-0.620	0.330
2020/01/31 02:38:45.1	91.800	0.140	-0.610	0.380
2020/01/31 02:38:45.2	91.800	0.120	-0.580	0.440
2020/01/31 02:38:45.3	91.790	0.110	-0.550	0.500
2020/01/31 02:38:45.4	91.790	0.090	-0.520	0.560
2020/01/31 02:38:45.5	91.780	0.070	-0.480	0.620
2020/01/31 02:38:45.6	91.770	0.050	-0.440	0.680
2020/01/31 02:38:45.7	91.760	0.030	-0.390	0.740
2020/01/31 02:38:45.8	91.750	0.000	-0.340	0.800
2020/01/31 02:38:45.9	91.730	-0.030	-0.290	0.860
2020/01/31 02:38:46.0	91.720	-0.060	-0.240	0.920
2020/01/31 02:38:46.1	91.730	-0.090	-0.180	0.990
2020/01/31 02:38:46.2	91.720	-0.120	-0.120	1.050
2020/01/31 02:38:46.3	91.710	-0.150	-0.070	1.100
2020/01/31 02:38:46.4	91.690	-0.190	-0.010	1.150
2020/01/31 02:38:46.5	91.680	-0.220	0.040	1.210
2020/01/31 02:38:46.6	91.670	-0.250	0.090	1.260
2020/01/31 02:38:46.7	91.660	-0.290	0.140	1.300
2020/01/31 02:38:46.8	91.650	-0.320	0.190	1.350
2020/01/31 02:38:46.9	91.640	-0.350	0.230	1.390
2020/01/31 02:38:47.0	91.630	-0.380	0.270	1.430
2020/01/31 02:38:47.1	91.630	-0.410	0.300	1.470
2020/01/31 02:38:47.2	91.620	-0.440	0.330	1.510
2020/01/31 02:38:47.3	91.610	-0.460	0.360	1.540
2020/01/31 02:38:47.4	91.610	-0.490	0.370	1.570
2020/01/31 02:38:47.5	91.600	-0.510	0.390	1.600
2020/01/31 02:38:47.6	91.600	-0.530	0.390	1.620
2020/01/31 02:38:47.7	91.590	-0.540	0.390	1.640
2020/01/31 02:38:47.8	91.590	-0.550	0.390	1.650
2020/01/31 02:38:47.9	91.590	-0.560	0.380	1.660
2020/01/31 02:38:48.0	91.590	-0.570	0.360	1.660
2020/01/31 02:38:48.1	91.590	-0.570	0.330	1.660
2020/01/31 02:38:48.2	91.590	-0.570	0.300	1.660
2020/01/31 02:38:48.3	91.590	-0.560	0.270	1.650
2020/01/31 02:38:48.4	91.590	-0.560	0.230	1.630
2020/01/31 02:38:48.5	91.600	-0.540	0.190	1.610
2020/01/31 02:38:48.6	91.610	-0.530	0.150	1.580
2020/01/31 02:38:48.7	91.610	-0.510	0.100	1.550
2020/01/31 02:38:48.8	91.620	-0.490	0.050	1.520
2020/01/31 02:38:48.9	91.630	-0.470	0.000	1.480
2020/01/31 02:38:49.0	91.640	-0.450	-0.050	1.440
2020/01/31 02:38:49.1	91.660	-0.420	-0.100	1.400
2020/01/31 02:38:49.2	91.670	-0.390	-0.150	1.350
2020/01/31 02:38:49.3	91.680	-0.360	-0.190	1.310
2020/01/31 02:38:49.4	91.690	-0.330	-0.240	1.270
2020/01/31 02:38:49.5	91.700	-0.300	-0.290	1.230
2020/01/31 02:38:49.6	91.700	-0.260	-0.330	1.190
2020/01/31 02:38:49.7	91.710	-0.230	-0.370	1.150
2020/01/31 02:38:49.8	91.710	-0.190	-0.400	1.120
2020/01/31 02:38:49.9	91.710	-0.150	-0.430	1.090
2020/01/31 02:38:50.0	91.710	-0.120	-0.460	1.060
2020/01/31 02:38:50.1	91.700	-0.080	-0.470	1.040
2020/01/31 02:38:50.2	91.690	-0.050	-0.490	1.020
2020/01/31 02:38:50.3	91.680	-0.010	-0.500	1.010
2020/01/31 02:38:50.4	91.670	0.020	-0.510	1.000
2020/01/31 02:38:50.5	91.650	0.050	-0.510	0.990
2020/01/31 02:38:50.6	91.630	0.080	-0.510	0.980
2020/01/31 02:38:50.7	91.620	0.110	-0.500	0.980
2020/01/31 02:38:50.8	91.590	0.140	-0.500	0.970
2020/01/31 02:38:50.9	91.570	0.160	-0.490	0.970
2020/01/31 02:38:51.0	91.550	0.190	-0.470	0.970
2020/01/31 02:38:51.1	91.530	0.210	-0.460	0.970
2020/01/31 02:38:51.2	91.510	0.220	-0.440	0.970
2020/01/31 02:38:51.3	91.490	0.240	-0.430	0.960
2020/01/31 02:38:51.4	91.460	0.260	-0.410	0.960
2020/01/31 02:38:51.5	91.440	0.270	-0.390	0.950
2020/01/31 02:38:51.6	91.420	0.280	-0.380	0.940
2020/01/31 02:38:51.7	91.400	0.290	-0.370	0.930
2020/01/31 02:38:51.8	91.380	0.290	-0.360	0.920
2020/01/31 02:38:51.9	91.360	0.300	-0.350	0.900
2020/01/31 02:38:52.0	91.350	0.310	-0.350	0.890
2020/01/31 02:38:52.1	91.310	0.310	-0.340	0.860
2020/01/31 02:38:52.2	91.300	0.310	-0.350	0.840
2020/01/31 02:38:52.3	91.290	0.310	-0.350	0.820
2020/01/31 02:38:52.4	91.280	0.320	-0.360	0.790
2020/01/31 02:38:52.5	91.270	0.320	-0.370	0.760
2020/01/31 02:38:52.6	91.270	0.320	-0.390	0.740
2020/01/31 02:38:52.7	91.260	0.320	-0.400	0.710
2020/01/31 02:38:52.8	91.260	0.320	-0.420	0.680
2020/01/31 02:38:52.9	91.260	0.320	-0.440	0.650
2020/01/31 02:38:53.0	91.260	0.320	-0.460	0.620
2020/01/31 02:38:53.1	91.270	0.320	-0.480	0.580
2020/01/31 02:38:53.2	91.270	0.320	-0.500	0.550
2020/01/31 02:38:53.3	91.280	0.320	-0.520	0.530
2020/01/31 02:38:53.4	91.290	0.320	-0.540	0.500
2020/01/31 02:38:53.5	91.300	0.310	-0.560	0.470
2020/01/31 02:38:53.6	91.310	0.310	-0.580	0.450
2020/01/31 02:38:53.7	91.330	0.310	-0.590	0.430
2020/01/31 02:38:53.8	91.340	0.310	-0.610	0.410
2020/01/31 02:38:53.9	91.350	0.300	-0.610	0.390
2020/01/31 02:38:54.0	91.360	0.300	-0.620	0.380
2020/01/31 02:38:54.1	91.370	0.290	-0.620	0.370
2020/01/31 02:38:54.2	91.380	0.290	-0.620	0.360
2020/01/31 02:38:54.3	91.390	0.280	-0.610	0.360
2020/01/31 02:38:54.4	91.400	0.270	-0.600	0.350
2020/01/31 02:38:54.5	91.420	0.270	-0.580	0.350
2020/01/31 02:38:54.6	91.430	0.260	-0.560	0.350
2020/01/31 02:38:54.7	91.440	0.250	-0.540	0.360
2020/01/31 02:38:54.8	91.450	0.240	-0.510	0.370
2020/01/31 02:38:54.9	91.460	0.230	-0.480	0.370
2020/01/31 02:38:55.0	91.470	0.220	-0.450	0.380
2020/01/31 02:38:55.1	91.480	0.210	-0.410	0.400
2020/01/31 02:38:55.2	91.480	0.200	-0.370	0.420
2020/01/31 02:38:55.3	91.490	0.180	-0.330	0.430
2020/01/31 02:38:55.4	91.490	0.170	-0.290	0.450
2020/01/31 02:38:55.5	91.490	0.160	-0.250	0.470
2020/01/31 02:38:55.6	91.490	0.140	-0.200	0.500
2020/01/31 02:38:55.7	91.490	0.130	-0.160	0.520
2020/01/31 02:38:55.8	91.490	0.110	-0.110	0.540
2020/01/31 02:38:55.9	91.490	0.100	-0.070	0.570
2020/01/31 02:38:56.0	91.480	0.090	-0.020	0.600
2020/01/31 02:38:56.1	91.460	0.070	0.020	0.630
2020/01/31 02:38:56.2	91.450	0.050	0.060	0.660
2020/01/31 02:38:56.3	91.450	0.040	0.100	0.690
2020/01/31 02:38:56.4	91.440	0.020	0.140	0.720
2020/01/31 02:38:56.5	91.430	0.010	0.170	0.750
2020/01/31 02:38:56.6	91.420	-0.010	0.200	0.780
2020/01/31 02:38:56.7	91.400	-0.030	0.230	0.810
2020/01/31 02:38:56.8	91.390	-0.050	0.260	0.840
2020/01/31 02:38:56.9	91.380	-0.060	0.280	0.870
2020/01/31 02:38:57.0	91.360	-0.080	0.300	0.900
2020/01/31 02:38:57.1	91.360	-0.100	0.320	0.930
2020/01/31 02:38:57.2	91.350	-0.120	0.340	0.950
2020/01/31 02:38:57.3	91.340	-0.140	0.350	0.970
2020/01/31 02:38:57.4	91.330	-0.160	0.360	1.000
2020/01/31 02:38:57.5	91.320	-0.180	0.370	1.020
2020/01/31 02:38:57.6	91.310	-0.210	0.380	1.030
2020/01/31 02:38:57.7	91.300	-0.230	0.380	1.050
2020/01/31 02:38:57.8	91.290	-0.250	0.380	1.070
2020/01/31 02:38:57.9	91.290	-0.270	0.380	1.080
2020/01/31 02:38:58.0	91.280	-0.290	0.370	1.100
2020/01/31 02:38:58.1	91.270	-0.310	0.360	1.110
2020/01/31 02:38:58.2	91.260	-0.330	0.350	1.120
2020/01/31 02:38:58.3	91.260	-0.340	0.330	1.130
2020/01/31 02:38:58.4	91.260	-0.360	0.320	1.140
2020/01/31 02:38:58.5	91.260	-0.380	0.300	1.150
2020/01/31 02:38:58.6	91.260	-0.390	0.270	1.160
2020/01/31 02:38:58.7	91.260	-0.400	0.240	1.160
2020/01/31 02:38:58.8	91.260	-0.410	0.220	1.160
2020/01/31 02:38:58.9	91.260	-0.420	0.180	1.160
2020/01/31 02:38:59.0	91.260	-0.430	0.150	1.160
2020/01/31 02:38:59.1	91.260	-0.430	0.110	1.150
2020/01/31 02:38:59.2	91.260	-0.440	0.070	1.140
2020/01/31 02:38:59.3	91.260	-0.440	0.030	1.130
2020/01/31 02:38:59.4	91.260	-0.430	-0.010	1.110
2020/01/31 02:38:59.5	91.260	-0.430	-0.060	1.090
2020/01/31 02:38:59.6	91.270	-0.420	-0.110	1.070
2020/01/31 02:38:59.7	91.270	-0.410	-0.150	1.050
2020/01/31 02:38:59.8	91.270	-0.400	-0.210	1.020
2020/01/31 02:38:59.9	91.280	-0.380	-0.260	0.990
2020/01/31 02:39:00.0	91.280	-0.360	-0.310	0.970
2020/01/31 02:39:00.1	91.280	-0.340	-0.370	0.940
2020/01/31 02:39:00.2	91.290	-0.310	-0.430	0.910
2020/01/31 02:39:00.3	91.290	-0.280	-0.490	0.890
2020/01/31 02:39:00.4	91.300	-0.240	-0.550	0.860
2020/01/31 02:39:00.5	91.310	-0.210	-0.610	0.830
2020/01/31 02:39:00.6	91.310	-0.170	-0.670	0.810
2020/01/31 02:39:00.7	91.320	-0.120	-0.730	0.790
2020/01/31 02:39:00.8	91.330	-0.080	-0.800	0.770
2020/01/31 02:39:00.9	91.340	-0.030	-0.860	0.750
2020/01/31 02:39:01.0	91.350	0.020	-0.920	0.730
2020/01/31 02:39:01.1	91.350	0.080	-0.970	0.720
2020/01/31 02:39:01.2	91.360	0.130	-1.030	0.710
2020/01/31 02:39:01.3	91.370	0.180	-1.080	0.700
2020/01/31 02:39:01.4	91.380	0.240	-1.120	0.690
2020/01/31 02:39:01.5	91.390	0.290	-1.160	0.690
2020/01/31 02:39:01.6	91.400	0.340	-1.190	0.690
2020/01/31 02:39:01.7	91.410	0.390	-1.210	0.700
2020/01/31 02:39:01.8	91.410	0.440	-1.230	0.700
2020/01/31 02:39:01.9	91.420	0.480	-1.230	0.710
2020/01/31 02:39:02.0	91.420	0.510	-1.230	0.720
2020/01/31 02:39:02.1	91.430	0.550	-1.220	0.730
2020/01/31 02:39:02.2	91.430	0.570	-1.190	0.740
2020/01/31 02:39:02.3	91.430	0.590	-1.150	0.750
2020/01/31 02:39:02.4	91.430	0.610	-1.100	0.760
2020/01/31 02:39:02.5	91.430	0.610	-1.040	0.770
2020/01/31 02:39:02.6	91.430	0.610	-0.970	0.780
2020/01/31 02:39:02.7	91.420	0.600	-0.890	0.790
2020/01/31 02:39:02.8	91.420	0.590	-0.800	0.790
2020/01/31 02:39:02.9	91.420	0.570	-0.700	0.800
2020/01/31 02:39:03.0	91.410	0.540	-0.590	0.810
2020/01/31 02:39:03.1	91.410	0.500	-0.480	0.810
2020/01/31 02:39:03.2	91.400	0.460	-0.360	0.810
2020/01/31 02:39:03.3	91.400	0.420	-0.240	0.820
2020/01/31 02:39:03.4	91.390	0.360	-0.110	0.820
2020/01/31 02:39:03.5	91.390	0.310	0.020	0.820
2020/01/31 02:39:03.6	91.380	0.240	0.150	0.820
2020/01/31 02:39:03.7	91.370	0.180	0.280	0.830
2020/01/31 02:39:03.8	91.360	0.110	0.400	0.830
2020/01/31 02:39:03.9	91.360	0.040	0.520	0.840
2020/01/31 02:39:04.0	91.350	-0.030	0.640	0.840
2020/01/31 02:39:04.1	91.340	-0.100	0.760	0.850
2020/01/31 02:39:04.2	91.330	-0.180	0.870	0.860
2020/01/31 02:39:04.3	91.320	-0.250	0.960	0.870
2020/01/31 02:39:04.4	91.310	-0.320	1.050	0.870
2020/01/31 02:39:04.5	91.300	-0.380	1.130	0.880
2020/01/31 02:39:04.6	91.280	-0.450	1.190	0.890
2020/01/31 02:39:04.7	91.270	-0.500	1.250	0.900
2020/01/31 02:39:04.8	91.260	-0.560	1.290	0.910
2020/01/31 02:39:04.9	91.250	-0.610	1.320	0.910
2020/01/31 02:39:05.0	91.240	-0.650	1.330	0.920
2020/01/31 02:39:05.1	91.250	-0.690	1.330	0.920
2020/01/31 02:39:05.2	91.240	-0.720	1.320	0.930
2020/01/31 02:39:05.3	91.230	-0.750	1.290	0.930
2020/01/31 02:39:05.4	91.220	-0.770	1.250	0.920
2020/01/31 02:39:05.5	91.210	-0.780	1.200	0.920
2020/01/31 02:39:05.6	91.200	-0.780	1.130	0.910
2020/01/31 02:39:05.7	91.190	-0.780	1.050	0.900
2020/01/31 02:39:05.8	91.180	-0.770	0.960	0.890
2020/01/31 02:39:05.9	91.180	-0.760	0.860	0.880
2020/01/31 02:39:06.0	91.170	-0.740	0.750	0.860
2020/01/31 02:39:06.1	91.160	-0.710	0.630	0.840
2020/01/31 02:39:06.2	91.160	-0.680	0.500	0.820
2020/01/31 02:39:06.3	91.150	-0.640	0.370	0.800
2020/01/31 02:39:06.4	91.150	-0.600	0.230	0.780
2020/01/31 02:39:06.5	91.140	-0.560	0.090	0.750
2020/01/31 02:39:06.6	91.140	-0.510	-0.060	0.730
2020/01/31 02:39:06.7	91.140	-0.450	-0.200	0.710
2020/01/31 02:39:06.8	91.140	-0.400	-0.350	0.680
2020/01/31 02:39:06.9	91.130	-0.340	-0.490	0.660
2020/01/31 02:39:07.0	91.130	-0.280	-0.640	0.640
2020/01/31 02:39:07.1	91.130	-0.220	-0.780	0.620
2020/01/31 02:39:07.2	91.130	-0.160	-0.910	0.600
2020/01/31 02:39:07.3	91.140	-0.100	-1.040	0.580
2020/01/31 02:39:07.4	91.140	-0.040	-1.160	0.560
2020/01/31 02:39:07.5	91.150	0.020	-1.280	0.550
2020/01/31 02:39:07.6	91.150	0.080	-1.380	0.540
2020/01/31 02:39:07.7	91.160	0.140	-1.480	0.530
2020/01/31 02:39:07.8	91.170	0.200	-1.560	0.530
2020/01/31 02:39:07.9	91.180	0.260	-1.630	0.520
2020/01/31 02:39:08.0	91.180	0.310	-1.700	0.520
2020/01/31 02:39:08.1	91.190	0.360	-1.750	0.530
2020/01/31 02:39:08.2	91.190	0.410	-1.790	0.530
2020/01/31 02:39:08.3	91.200	0.460	-1.810	0.540
2020/01/31 02:39:08.4	91.210	0.500	-1.820	0.550
2020/01/31 02:39:08.5	91.210	0.540	-1.820	0.560
2020/01/31 02:39:08.6	91.220	0.570	-1.810	0.580
2020/01/31 02:39:08.7	91.230	0.600	-1.780	0.590
2020/01/31 02:39:08.8	91.230	0.630	-1.750	0.610
2020/01/31 02:39:08.9	91.240	0.650	-1.700	0.630
2020/01/31 02:39:09.0	91.240	0.660	-1.640	0.640
2020/01/31 02:39:09.1	91.240	0.680	-1.560	0.670
2020/01/31 02:39:09.2	91.240	0.690	-1.480	0.690
2020/01/31 02:39:09.3	91.250	0.690	-1.390	0.700
2020/01/31 02:39:09.4	91.250	0.690	-1.290	0.720
2020/01/31 02:39:09.5	91.250	0.680	-1.180	0.740
2020/01/31 02:39:09.6	91.260	0.670	-1.070	0.760
2020/01/31 02:39:09.7	91.260	0.660	-0.950	0.780
2020/01/31 02:39:09.8	91.260	0.640	-0.830	0.790
2020/01/31 02:39:09.9	91.260	0.620	-0.700	0.810
2020/01/31 02:39:10.0	91.260	0.590	-0.570	0.830
2020/01/31 02:39:10.1	91.270	0.560	-0.440	0.840
2020/01/31 02:39:10.2	91.270	0.530	-0.310	0.860
2020/01/31 02:39:10.3	91.270	0.490	-0.180	0.870
2020/01/31 02:39:10.4	91.270	0.450	-0.050	0.890
2020/01/31 02:39:10.5	91.260	0.410	0.080	0.900
2020/01/31 02:39:10.6	91.260	0.370	0.200	0.910
2020/01/31 02:39:10.7	91.260	0.320	0.320	0.920
2020/01/31 02:39:10.8	91.250	0.270	0.440	0.930
2020/01/31 02:39:10.9	91.250	0.220	0.550	0.940
2020/01/31 02:39:11.0	91.250	0.170	0.650	0.950
2020/01/31 02:39:11.1	91.230	0.120	0.750	0.960
2020/01/31 02:39:11.2	91.220	0.060	0.840	0.970
2020/01/31 02:39:11.3	91.220	0.010	0.920	0.970
2020/01/31 02:39:11.4	91.210	-0.040	0.990	0.980
2020/01/31 02:39:11.5	91.200	-0.090	1.050	0.990
2020/01/31 02:39:11.6	91.200	-0.140	1.100	0.990
2020/01/31 02:39:11.7	91.190	-0.180	1.140	1.000
2020/01/31 02:39:11.8	91.180	-0.230	1.170	1.000
2020/01/31 02:39:11.9	91.170	-0.270	1.190	1.000
2020/01/31 02:39:12.0	91.160	-0.310	1.190	1.010
2020/01/31 02:39:12.1	91.160	-0.340	1.190	1.010
2020/01/31 02:39:12.2	91.150	-0.370	1.180	1.010
2020/01/31 02:39:12.3	91.150	-0.400	1.150	1.020
2020/01/31 02:39:12.4	91.140	-0.420	1.120	1.020
2020/01/31 02:39:12.5	91.130	-0.440	1.070	1.020
2020/01/31 02:39:12.6	91.130	-0.450	1.010	1.010
2020/01/31 02:39:12.7	91.120	-0.450	0.940	1.010
2020/01/31 02:39:12.8	91.120	-0.450	0.870	1.010
2020/01/31 02:39:12.9	91.120	-0.450	0.780	1.010
2020/01/31 02:39:13.0	91.120	-0.440	0.680	1.000
2020/01/31 02:39:13.1	91.110	-0.420	0.570	1.000
2020/01/31 02:39:13.2	91.110	-0.400	0.460	0.990
2020/01/31 02:39:13.3	91.120	-0.380	0.340	0.990
2020/01/31 02:39:13.4	91.120	-0.350	0.220	0.980
2020/01/31 02:39:13.5	91.120	-0.320	0.090	0.970
2020/01/31 02:39:13.6	91.130	-0.280	-0.030	0.960
2020/01/31 02:39:13.7	91.130	-0.250	-0.160	0.950
2020/01/31 02:39:13.8	91.140	-0.210	-0.290	0.940
2020/01/31 02:39:13.9	91.140	-0.170	-0.410	0.930
2020/01/31 02:39:14.0	91.150	-0.130	-0.530	0.920
2020/01/31 02:39:14.1	91.140	-0.090	-0.650	0.910
2020/01/31 02:39:14.2	91.150	-0.050	-0.760	0.900
2020/01/31 02:39:14.3	91.150	-0.010	-0.860	0.890
2020/01/31 02:39:14.4	91.150	0.020	-0.950	0.880
2020/01/31 02:39:14.5	91.150	0.050	-1.030	0.880
2020/01/31 02:39:14.6	91.150	0.080	-1.100	0.870
2020/01/31 02:39:14.7	91.150	0.100	-1.160	0.870
2020/01/31 02:39:14.8	91.140	0.120	-1.210	0.870
2020/01/31 02:39:14.9	91.130	0.140	-1.240	0.870
2020/01/31 02:39:15.0	91.120	0.150	-1.270	0.870
2020/01/31 02:39:15.1	91.110	0.160	-1.280	0.880
2020/01/31 02:39:15.2	91.100	0.160	-1.270	0.880
2020/01/31 02:39:15.3	91.080	0.160	-1.260	0.890
2020/01/31 02:39:15.4	91.060	0.150	-1.230	0.900
2020/01/31 02:39:15.5	91.040	0.140	-1.190	0.900
2020/01/31 02:39:15.6	91.020	0.120	-1.140	0.910
2020/01/31 02:39:15.7	91.000	0.100	-1.080	0.930
2020/01/31 02:39:15.8	90.970	0.080	-1.010	0.940
2020/01/31 02:39:15.9	90.950	0.050	-0.940	0.950
2020/01/31 02:39:16.0	90.920	0.020	-0.850	0.970
2020/01/31 02:39:16.1	90.900	-0.010	-0.750	0.990
2020/01/31 02:39:16.2	90.870	-0.050	-0.660	1.000
2020/01/31 02:39:16.3	90.840	-0.080	-0.560	1.020
2020/01/31 02:39:16.4	90.810	-0.120	-0.450	1.040
2020/01/31 02:39:16.5	90.790	-0.150	-0.350	1.060
2020/01/31 02:39:16.6	90.760	-0.190	-0.250	1.070
2020/01/31 02:39:16.7	90.740	-0.220	-0.150	1.090
2020/01/31 02:39:16.8	90.720	-0.250	-0.050	1.100
2020/01/31 02:39:16.9	90.700	-0.280	0.040	1.110
2020/01/31 02:39:17.0	90.680	-0.310	0.120	1.120
2020/01/31 02:39:17.1	90.670	-0.340	0.200	1.130
2020/01/31 02:39:17.2	90.660	-0.360	0.270	1.130
2020/01/31 02:39:17.3	90.650	-0.370	0.330	1.130
2020/01/31 02:39:17.4	90.650	-0.380	0.380	1.130
2020/01/31 02:39:17.5	90.640	-0.390	0.420	1.130
2020/01/31 02:39:17.6	90.640	-0.390	0.450	1.120
2020/01/31 02:39:17.7	90.650	-0.390	0.460	1.100
2020/01/31 02:39:17.8	90.660	-0.380	0.470	1.090
2020/01/31 02:39:17.9	90.660	-0.360	0.460	1.070
2020/01/31 02:39:18.0	90.680	-0.340	0.440	1.050
2020/01/31 02:39:18.1	90.700	-0.310	0.410	1.020
2020/01/31 02:39:18.2	90.720	-0.280	0.360	0.990
2020/01/31 02:39:18.3	90.740	-0.250	0.310	0.960
2020/01/31 02:39:18.4	90.760	-0.210	0.250	0.920
2020/01/31 02:39:18.5	90.780	-0.170	0.180	0.880
2020/01/31 02:39:18.6	90.800	-0.120	0.110	0.840
2020/01/31 02:39:18.7	90.820	-0.080	0.040	0.800
2020/01/31 02:39:18.8	90.840	-0.030	-0.050	0.770
2020/01/31 02:39:18.9	90.860	0.020	-0.130	0.730
2020/01/31 02:39:19.0	90.880	0.070	-0.210	0.690
2020/01/31 02:39:19.1	90.900	0.110	-0.300	0.660
2020/01/31 02:39:19.2	90.920	0.160	-0.380	0.630
2020/01/31 02:39:19.3	90.920	0.210	-0.450	0.600
2020/01/31 02:39:19.4	90.930	0.250	-0.520	0.570
2020/01/31 02:39:19.5	90.930	0.290	-0.590	0.550
2020/01/31 02:39:19.6	90.940	0.330	-0.650	0.520
2020/01/31 02:39:19.7	90.930	0.360	-0.710	0.510
2020/01/31 02:39:19.8	90.930	0.390	-0.750	0.490
2020/01/31 02:39:19.9	90.930	0.420	-0.790	0.480
2020/01/31 02:39:20.0	90.920	0.440	-0.820	0.470
2020/01/31 02:39:20.1	90.910	0.450	-0.840	0.460
2020/01/31 02:39:20.2	90.900	0.470	-0.850	0.450
2020/01/31 02:39:20.3	90.880	0.470	-0.850	0.450
2020/01/31 02:39:20.4	90.870	0.470	-0.850	0.450
2020/01/31 02:39:20.5	90.860	0.470	-0.830	0.450
2020/01/31 02:39:20.6	90.840	0.460	-0.800	0.450
2020/01/31 02:39:20.7	90.830	0.450	-0.760	0.450
2020/01/31 02:39:20.8	90.820	0.430	-0.720	0.450
2020/01/31 02:39:20.9	90.800	0.410	-0.660	0.460
2020/01/31 02:39:21.0	90.790	0.380	-0.600	0.460
2020/01/31 02:39:21.1	90.770	0.350	-0.530	0.460
2020/01/31 02:39:21.2	90.760	0.320	-0.460	0.470
2020/01/31 02:39:21.3	90.750	0.280	-0.390	0.480
2020/01/31 02:39:21.4	90.740	0.240	-0.310	0.480
2020/01/31 02:39:21.5	90.730	0.200	-0.220	0.490
2020/01/31 02:39:21.6	90.730	0.160	-0.140	0.500
2020/01/31 02:39:21.7	90.720	0.120	-0.050	0.510
2020/01/31 02:39:21.8	90.710	0.070	0.030	0.520
2020/01/31 02:39:21.9	90.710	0.020	0.120	0.540
2020/01/31 02:39:22.0	90.700	-0.020	0.200	0.550
2020/01/31 02:39:22.1	90.700	-0.070	0.280	0.570
2020/01/31 02:39:22.2	90.690	-0.110	0.360	0.590
2020/01/31 02:39:22.3	90.690	-0.150	0.430	0.610
2020/01/31 02:39:22.4	90.690	-0.190	0.490	0.630
2020/01/31 02:39:22.5	90.680	-0.230	0.550	0.650
2020/01/31 02:39:22.6	90.680	-0.270	0.600	0.670
2020/01/31 02:39:22.7	90.680	-0.300	0.640	0.690
2020/01/31 02:39:22.8	90.680	-0.330	0.680	0.720
2020/01/31 02:39:22.9	90.670	-0.350	0.700	0.740
2020/01/31 02:39:23.0	90.670	-0.370	0.710	0.760
2020/01/31 02:39:23.1	90.660	-0.390	0.710	0.780
2020/01/31 02:39:23.2	90.660	-0.400	0.710	0.800
2020/01/31 02:39:23.3	90.670	-0.410	0.690	0.820
2020/01/31 02:39:23.4	90.670	-0.410	0.660	0.830
2020/01/31 02:39:23.5	90.670	-0.410	0.620	0.850
2020/01/31 02:39:23.6	90.680	-0.400	0.580	0.860
2020/01/31 02:39:23.7	90.680	-0.390	0.520	0.870
2020/01/31 02:39:23.8	90.690	-0.380	0.460	0.870
2020/01/31 02:39:23.9	90.700	-0.360	0.390	0.880
2020/01/31 02:39:24.0	90.700	-0.340	0.310	0.880
2020/01/31 02:39:24.1	90.720	-0.310	0.230	0.880
2020/01/31 02:39:24.2	90.730	-0.290	0.140	0.880
2020/01/31 02:39:24.3	90.730	-0.250	0.050	0.890
2020/01/31 02:39:24.4	90.730	-0.220	-0.040	0.890
2020/01/31 02:39:24.5	90.730	-0.190	-0.140	0.890
2020/01/31 02:39:24.6	90.730	-0.150	-0.240	0.890
2020/01/31 02:39:24.7	90.730	-0.110	-0.330	0.890
2020/01/31 02:39:24.8	90.730	-0.070	-0.420	0.890
2020/01/31 02:39:24.9	90.730	-0.030	-0.510	0.890
2020/01/31 02:39:25.0	90.730	0.010	-0.600	0.900
2020/01/31 02:39:25.1	90.730	0.050	-0.680	0.910
2020/01/31 02:39:25.2	90.730	0.080	-0.760	0.910
2020/01/31 02:39:25.3	90.730	0.120	-0.820	0.910
2020/01/31 02:39:25.4	90.720	0.150	-0.880	0.920
2020/01/31 02:39:25.5	90.720	0.180	-0.930	0.930
2020/01/31 02:39:25.6	90.710	0.210	-0.980	0.940
2020/01/31 02:39:25.7	90.710	0.240	-1.010	0.950
2020/01/31 02:39:25.8	90.710	0.270	-1.040	0.960
2020/01/31 02:39:25.9	90.700	0.290	-1.050	0.970
2020/01/31 02:39:26.0	90.700	0.310	-1.060	0.980
2020/01/31 02:39:26.1	90.700	0.320	-1.060	0.990
2020/01/31 02:39:26.2	90.700	0.330	-1.050	1.000
2020/01/31 02:39:26.3	90.700	0.340	-1.040	1.010
2020/01/31 02:39:26.4	90.700	0.350	-1.020	1.030
2020/01/31 02:39:26.5	90.710	0.350	-1.000	1.040
2020/01/31 02:39:26.6	90.710	0.360	-0.960	1.040
2020/01/31 02:39:26.7	90.710	0.360	-0.930	1.050
2020/01/31 02:39:26.8	90.720	0.350	-0.890	1.060
2020/01/31 02:39:26.9	90.730	0.350	-0.840	1.060
2020/01/31 02:39:27.0	90.740	0.340	-0.800	1.070
2020/01/31 02:39:27.1	90.750	0.330	-0.740	1.070
2020/01/31 02:39:27.2	90.760	0.320	-0.690	1.070
2020/01/31 02:39:27.3	90.780	0.310	-0.640	1.070
2020/01/31 02:39:27.4	90.790	0.300	-0.580	1.070
2020/01/31 02:39:27.5	90.810	0.290	-0.530	1.060
2020/01/31 02:39:27.6	90.820	0.270	-0.470	1.050
2020/01/31 02:39:27.7	90.840	0.260	-0.420	1.050
2020/01/31 02:39:27.8	90.860	0.240	-0.360	1.040
2020/01/31 02:39:27.9	90.880	0.230	-0.310	1.030
2020/01/31 02:39:28.0	90.900	0.220	-0.250	1.020
2020/01/31 02:39:28.1	90.930	0.200	-0.200	1.010
2020/01/31 02:39:28.2	90.950	0.190	-0.150	1.000
2020/01/31 02:39:28.3	90.970	0.170	-0.100	0.990
2020/01/31 02:39:28.4	90.990	0.160	-0.050	0.980
2020/01/31 02:39:28.5	91.010	0.140	-0.000	0.960
2020/01/31 02:39:28.6	91.030	0.130	0.040	0.950
2020/01/31 02:39:28.7	91.050	0.110	0.080	0.930
2020/01/31 02:39:28.8	91.080	0.100	0.120	0.910
2020/01/31 02:39:28.9	91.100	0.080	0.160	0.900
2020/01/31 02:39:29.0	91.120	0.060	0.190	0.880
2020/01/31 02:39:29.1	91.150	0.050	0.220	0.860
2020/01/31 02:39:29.2	91.170	0.030	0.250	0.840
2020/01/31 02:39:29.3	91.190	0.020	0.270	0.820
2020/01/31 02:39:29.4	91.200	0.000	0.290	0.800
2020/01/31 02:39:29.5	91.220	-0.010	0.310	0.770
2020/01/31 02:39:29.6	91.240	-0.030	0.320	0.750
2020/01/31 02:39:29.7	91.250	-0.040	0.330	0.730
2020/01/31 02:39:29.8	91.270	-0.060	0.340	0.710
2020/01/31 02:39:29.9	91.280	-0.070	0.350	0.680
2020/01/31 02:39:30.0	91.290	-0.090	0.350	0.660
2020/01/31 02:39:30.1	91.300	-0.100	0.350	0.640
2020/01/31 02:39:30.2	91.310	-0.110	0.340	0.620
2020/01/31 02:39:30.3	91.310	-0.130	0.330	0.610
2020/01/31 02:39:30.4	91.320	-0.140	0.330	0.590
2020/01/31 02:39:30.5	91.320	-0.150	0.310	0.580
2020/01/31 02:39:30.6	91.320	-0.170	0.300	0.570
2020/01/31 02:39:30.7	91.320	-0.180	0.280	0.570
2020/01/31 02:39:30.8	91.320	-0.190	0.270	0.570
2020/01/31 02:39:30.9	91.310	-0.200	0.250	0.570
2020/01/31 02:39:31.0	91.310	-0.210	0.230	0.570
2020/01/31 02:39:31.1	91.310	-0.230	0.210	0.580
2020/01/31 02:39:31.2	91.300	-0.240	0.190	0.590
2020/01/31 02:39:31.3	91.290	-0.250	0.160	0.600
2020/01/31 02:39:31.4	91.280	-0.260	0.140	0.610
2020/01/31 02:39:31.5	91.270	-0.270	0.120	0.630
2020/01/31 02:39:31.6	91.260	-0.280	0.090	0.640
2020/01/31 02:39:31.7	91.240	-0.290	0.070	0.660
2020/01/31 02:39:31.8	91.230	-0.300	0.040	0.670
2020/01/31 02:39:31.9	91.220	-0.310	0.010	0.690
2020/01/31 02:39:32.0	91.210	-0.310	-0.020	0.700
2020/01/31 02:39:32.1	91.190	-0.320	-0.040	0.710
2020/01/31 02:39:32.2	91.190	-0.330	-0.080	0.720
2020/01/31 02:39:32.3	91.180	-0.330	-0.110	0.730
2020/01/31 02:39:32.4	91.170	-0.330	-0.150	0.740
2020/01/31 02:39:32.5	91.170	-0.330	-0.180	0.740
2020/01/31 02:39:32.6	91.170	-0.330	-0.220	0.740
2020/01/31 02:39:32.7	91.170	-0.330	-0.270	0.740
2020/01/31 02:39:32.8	91.170	-0.320	-0.310	0.740
2020/01/31 02:39:32.9	91.180	-0.320	-0.350	0.730
2020/01/31 02:39:33.0	91.180	-0.310	-0.400	0.720
2020/01/31 02:39:33.1	91.190	-0.290	-0.450	0.700
2020/01/31 02:39:33.2	91.200	-0.280	-0.500	0.690
2020/01/31 02:39:33.3	91.210	-0.260	-0.550	0.670
2020/01/31 02:39:33.4	91.220	-0.240	-0.600	0.650
2020/01/31 02:39:33.5	91.240	-0.210	-0.650	0.620
2020/01/31 02:39:33.6	91.260	-0.190	-0.700	0.600
2020/01/31 02:39:33.7	91.270	-0.160	-0.750	0.570
2020/01/31 02:39:33.8	91.290	-0.130	-0.800	0.550
2020/01/31 02:39:33.9	91.310	-0.090	-0.850	0.520
2020/01/31 02:39:34.0	91.330	-0.050	-0.900	0.500
2020/01/31 02:39:34.1	91.360	-0.010	-0.940	0.470
2020/01/31 02:39:34.2	91.380	0.030	-0.980	0.450
2020/01/31 02:39:34.3	91.400	0.070	-1.010	0.430
2020/01/31 02:39:34.4	91.420	0.120	-1.040	0.420
2020/01/31 02:39:34.5	91.450	0.160	-1.070	0.400
2020/01/31 02:39:34.6	91.470	0.210	-1.090	0.390
2020/01/31 02:39:34.7	91.490	0.250	-1.100	0.380
2020/01/31 02:39:34.8	91.510	0.290	-1.100	0.380
2020/01/31 02:39:34.9	91.530	0.330	-1.100	0.380
2020/01/31 02:39:35.0	91.560	0.370	-1.090	0.380
2020/01/31 02:39:35.1	91.570	0.410	-1.070	0.380
2020/01/31 02:39:35.2	91.590	0.440	-1.040	0.390
2020/01/31 02:39:35.3	91.610	0.470	-1.010	0.400
2020/01/31 02:39:35.4	91.630	0.500	-0.960	0.420
2020/01/31 02:39:35.5	91.650	0.520	-0.910	0.430
2020/01/31 02:39:35.6	91.670	0.540	-0.850	0.450
2020/01/31 02:39:35.7	91.690	0.550	-0.790	0.470
2020/01/31 02:39:35.8	91.710	0.550	-0.720	0.490
2020/01/31 02:39:35.9	91.720	0.560	-0.640	0.510
2020/01/31 02:39:36.0	91.740	0.550	-0.560	0.540
2020/01/31 02:39:36.1	91.740	0.540	-0.470	0.560
2020/01/31 02:39:36.2	91.750	0.530	-0.380	0.580
2020/01/31 02:39:36.3	91.760	0.510	-0.290	0.610
2020/01/31 02:39:36.4	91.770	0.490	-0.200	0.630
2020/01/31 02:39:36.5	91.780	0.460	-0.110	0.650
2020/01/31 02:39:36.6	91.780	0.430	-0.020	0.680
2020/01/31 02:39:36.7	91.780	0.390	0.070	0.700
2020/01/31 02:39:36.8	91.780	0.360	0.160	0.720
2020/01/31 02:39:36.9	91.780	0.320	0.240	0.740
2020/01/31 02:39:37.0	91.780	0.270	0.320	0.760
2020/01/31 02:39:37.1	91.770	0.230	0.400	0.780
2020/01/31 02:39:37.2	91.760	0.180	0.470	0.800
2020/01/31 02:39:37.3	91.750	0.140	0.530	0.820
2020/01/31 02:39:37.4	91.740	0.090	0.590	0.840
2020/01/31 02:39:37.5	91.730	0.050	0.640	0.860
2020/01/31 02:39:37.6	91.720	0.000	0.690	0.880
2020/01/31 02:39:37.7	91.710	-0.040	0.730	0.890
2020/01/31 02:39:37.8	91.700	-0.090	0.760	0.910
2020/01/31 02:39:37.9	91.690	-0.130	0.780	0.920
2020/01/31 02:39:38.0	91.670	-0.170	0.800	0.930
2020/01/31 02:39:38.1	91.660	-0.200	0.810	0.950
2020/01/31 02:39:38.2	91.650	-0.240	0.820	0.950
2020/01/31 02:39:38.3	91.630	-0.270	0.820	0.960
2020/01/31 02:39:38.4	91.620	-0.300	0.810	0.970
2020/01/31 02:39:38.5	91.610	-0.330	0.800	0.970
2020/01/31 02:39:38.6	91.600	-0.350	0.780	0.970
2020/01/31 02:39:38.7	91.590	-0.380	0.760	0.980
2020/01/31 02:39:38.8	91.580	-0.390	0.730	0.980
2020/01/31 02:39:38.9	91.580	-0.410	0.690	0.970
2020/01/31 02:39:39.0	91.580	-0.420	0.650	0.970
2020/01/31 02:39:39.1	91.580	-0.430	0.600	0.970
2020/01/31 02:39:39.2	91.580	-0.430	0.540	0.960
2020/01/31 02:39:39.3	91.580	-0.430	0.470	0.950
2020/01/31 02:39:39.4	91.590	-0.430	0.400	0.930
2020/01/31 02:39:39.5	91.600	-0.420	0.330	0.920
2020/01/31 02:39:39.6	91.620	-0.410	0.240	0.900
2020/01/31 02:39:39.7	91.640	-0.390	0.150	0.880
2020/01/31 02:39:39.8	91.660	-0.370	0.060	0.850
2020/01/31 02:39:39.9	91.680	-0.350	-0.040	0.830
2020/01/31 02:39:40.0	91.710	-0.330	-0.140	0.800
2020/01/31 02:39:40.1	91.740	-0.300	-0.250	0.770
2020/01/31 02:39:40.2	91.770	-0.270	-0.360	0.740
2020/01/31 02:39:40.3	91.800	-0.230	-0.470	0.710
2020/01/31 02:39:40.4	91.830	-0.200	-0.580	0.680
2020/01/31 02:39:40.5	91.870	-0.160	-0.680	0.650
2020/01/31 02:39:40.6	91.900	-0.130	-0.780	0.620
2020/01/31 02:39:40.7	91.930	-0.090	-0.880	0.590
2020/01/31 02:39:40.8	91.970	-0.050	-0.970	0.560
2020/01/31 02:39:40.9	92.000	-0.010	-1.050	0.530
2020/01/31 02:39:41.0	92.020	0.020	-1.120	0.510
2020/01/31 02:39:41.1	92.060	0.060	-1.190	0.490
2020/01/31 02:39:41.2	92.080	0.090	-1.240	0.470
2020/01/31 02:39:41.3	92.110	0.120	-1.280	0.450
2020/01/31 02:39:41.4	92.130	0.150	-1.310	0.430
2020/01/31 02:39:41.5	92.150	0.170	-1.320	0.420
2020/01/31 02:39:41.6	92.170	0.190	-1.320	0.410
2020/01/31 02:39:41.7	92.190	0.200	-1.300	0.400
2020/01/31 02:39:41.8	92.200	0.210	-1.270	0.390
2020/01/31 02:39:41.9	92.210	0.210	-1.230	0.390
2020/01/31 02:39:42.0	92.230	0.210	-1.180	0.390
2020/01/31 02:39:42.1	92.240	0.210	-1.110	0.390
2020/01/31 02:39:42.2	92.240	0.200	-1.030	0.400
2020/01/31 02:39:42.3	92.250	0.180	-0.940	0.410
2020/01/31 02:39:42.4	92.260	0.160	-0.850	0.420
2020/01/31 02:39:42.5	92.260	0.140	-0.750	0.440
2020/01/31 02:39:42.6	92.260	0.110	-0.640	0.460
2020/01/31 02:39:42.7	92.270	0.080	-0.530	0.480
2020/01/31 02:39:42.8	92.270	0.050	-0.410	0.500
2020/01/31 02:39:42.9	92.270	0.010	-0.290	0.530
2020/01/31 02:39:43.0	92.270	-0.030	-0.180	0.550
2020/01/31 02:39:43.1	92.260	-0.070	-0.060	0.580
2020/01/31 02:39:43.2	92.260	-0.110	0.050	0.600
2020/01/31 02:39:43.3	92.260	-0.150	0.150	0.630
2020/01/31 02:39:43.4	92.260	-0.190	0.260	0.650
2020/01/31 02:39:43.5	92.260	-0.230	0.350	0.680
2020/01/31 02:39:43.6	92.260	-0.260	0.440	0.700
2020/01/31 02:39:43.7	92.260	-0.300	0.510	0.720
2020/01/31 02:39:43.8	92.260	-0.330	0.580	0.740
2020/01/31 02:39:43.9	92.260	-0.350	0.640	0.750
2020/01/31 02:39:44.0	92.260	-0.380	0.680	0.770
2020/01/31 02:39:44.1	92.280	-0.400	0.720	0.780
2020/01/31 02:39:44.2	92.280	-0.410	0.750	0.790
2020/01/31 02:39:44.3	92.280	-0.420	0.760	0.800
2020/01/31 02:39:44.4	92.280	-0.420	0.760	0.810
2020/01/31 02:39:44.5	92.280	-0.420	0.750	0.810
2020/01/31 02:39:44.6	92.270	-0.420	0.730	0.810
2020/01/31 02:39:44.7	92.270	-0.410	0.700	0.810
2020/01/31 02:39:44.8	92.270	-0.390	0.650	0.810
2020/01/31 02:39:44.9	92.260	-0.370	0.610	0.800
2020/01/31 02:39:45.0	92.260	-0.350	0.550	0.790
2020/01/31 02:39:45.1	92.260	-0.320	0.470	0.780
2020/01/31 02:39:45.2	92.250	-0.280	0.400	0.770
2020/01/31 02:39:45.3	92.240	-0.250	0.330	0.750
2020/01/31 02:39:45.4	92.230	-0.210	0.250	0.740
2020/01/31 02:39:45.5	92.220	-0.160	0.160	0.720
2020/01/31 02:39:45.6	92.210	-0.120	0.070	0.700
2020/01/31 02:39:45.7	92.200	-0.070	-0.020	0.680
2020/01/31 02:39:45.8	92.190	-0.020	-0.110	0.650
2020/01/31 02:39:45.9	92.180	0.030	-0.200	0.630
2020/01/31 02:39:46.0	92.170	0.080	-0.290	0.600
2020/01/31 02:39:46.1	92.160	0.130	-0.380	0.580
2020/01/31 02:39:46.2	92.150	0.190	-0.460	0.550
2020/01/31 02:39:46.3	92.140	0.240	-0.550	0.520
2020/01/31 02:39:46.4	92.130	0.290	-0.630	0.490
2020/01/31 02:39:46.5	92.120	0.340	-0.710	0.470
2020/01/31 02:39:46.6	92.110	0.390	-0.780	0.440
2020/01/31 02:39:46.7	92.100	0.440	-0.850	0.410
2020/01/31 02:39:46.8	92.090	0.490	-0.910	0.380
2020/01/31 02:39:46.9	92.080	0.540	-0.960	0.360
2020/01/31 02:39:47.0	92.080	0.580	-1.010	0.330
2020/01/31 02:39:47.1	92.080	0.620	-1.060	0.310
2020/01/31 02:39:47.2	92.080	0.660	-1.100	0.280
2020/01/31 02:39:47.3	92.080	0.690	-1.130	0.260
2020/01/31 02:39:47.4	92.080	0.720	-1.150	0.240
2020/01/31 02:39:47.5	92.080	0.750	-1.170	0.230
2020/01/31 02:39:47.6	92.080	0.780	-1.180	0.210
2020/01/31 02:39:47.7	92.080	0.800	-1.180	0.200
2020/01/31 02:39:47.8	92.080	0.810	-1.170	0.190
2020/01/31 02:39:47.9	92.090	0.820	-1.160	0.190
2020/01/31 02:39:48.0	92.090	0.830	-1.130	0.180
2020/01/31 02:39:48.1	92.090	0.830	-1.100	0.180
2020/01/31 02:39:48.2	92.100	0.830	-1.070	0.190
2020/01/31 02:39:48.3	92.100	0.820	-1.020	0.200
2020/01/31 02:39:48.4	92.110	0.800	-0.970	0.210
2020/01/31 02:39:48.5	92.110	0.780	-0.910	0.220
2020/01/31 02:39:48.6	92.120	0.760	-0.840	0.240
2020/01/31 02:39:48.7	92.120	0.720	-0.770	0.260
2020/01/31 02:39:48.8	92.120	0.690	-0.690	0.280
2020/01/31 02:39:48.9	92.130	0.640	-0.600	0.300
2020/01/31 02:39:49.0	92.130	0.600	-0.510	0.330
2020/01/31 02:39:49.1	92.140	0.540	-0.420	0.350
2020/01/31 02:39:49.2	92.140	0.490	-0.320	0.380
2020/01/31 02:39:49.3	92.150	0.430	-0.220	0.410
2020/01/31 02:39:49.4	92.160	0.360	-0.120	0.440
2020/01/31 02:39:49.5	92.160	0.290	-0.020	0.460
2020/01/31 02:39:49.6	92.170	0.220	0.080	0.490
2020/01/31 02:39:49.7	92.180	0.150	0.180	0.520
2020/01/31 02:39:49.8	92.190	0.080	0.280	0.550
2020/01/31 02:39:49.9	92.200	0.000	0.370	0.570
2020/01/31 02:39:50.0	92.210	-0.070	0.460	0.600
2020/01/31 02:39:50.1	92.220	-0.150	0.540	0.620
2020/01/31 02:39:50.2	92.230	-0.220	0.620	0.650
2020/01/31 02:39:50.3	92.240	-0.290	0.690	0.670
2020/01/31 02:39:50.4	92.250	-0.360	0.760	0.690
2020/01/31 02:39:50.5	92.270	-0.430	0.810	0.710
2020/01/31 02:39:50.6	92.280	-0.490	0.850	0.730
2020/01/31 02:39:50.7	92.300	-0.540	0.890	0.750
2020/01/31 02:39:50.8	92.320	-0.600	0.910	0.770
2020/01/31 02:39:50.9	92.330	-0.640	0.920	0.780
2020/01/31 02:39:51.0	92.350	-0.680	0.920	0.800
2020/01/31 02:39:51.1	92.380	-0.720	0.910	0.810
2020/01/31 02:39:51.2	92.400	-0.740	0.890	0.830
2020/01/31 02:39:51.3	92.410	-0.770	0.850	0.850
2020/01/31 02:39:51.4	92.430	-0.780	0.810	0.870
2020/01/31 02:39:51.5	92.450	-0.790	0.750	0.890
2020/01/31 02:39:51.6	92.470	-0.790	0.690	0.900
2020/01/31 02:39:51.7	92.490	-0.780	0.610	0.920
2020/01/31 02:39:51.8	92.510	-0.770	0.530	0.940
2020/01/31 02:39:51.9	92.520	-0.760	0.440	0.960
2020/01/31 02:39:52.0	92.540	-0.740	0.350	0.970
2020/01/31 02:39:52.1	92.570	-0.710	0.250	1.000
2020/01/31 02:39:52.2	92.590	-0.680	0.150	1.010
2020/01/31 02:39:52.3	92.600	-0.650	0.050	1.030
2020/01/31 02:39:52.4	92.620	-0.620	-0.040	1.050
2020/01/31 02:39:52.5	92.630	-0.580	-0.140	1.070
2020/01/31 02:39:52.6	92.650	-0.540	-0.230	1.090
2020/01/31 02:39:52.7	92.660	-0.510	-0.320	1.110
2020/01/31 02:39:52.8	92.670	-0.470	-0.410	1.130
2020/01/31 02:39:52.9	92.680	-0.430	-0.490	1.150
2020/01/31 02:39:53.0	92.690	-0.390	-0.560	1.170
2020/01/31 02:39:53.1	92.700	-0.360	-0.630	1.180
2020/01/31 02:39:53.2	92.710	-0.320	-0.680	1.200
2020/01/31 02:39:53.3	92.710	-0.290	-0.730	1.220
2020/01/31 02:39:53.4	92.720	-0.260	-0.770	1.240
2020/01/31 02:39:53.5	92.710	-0.230	-0.800	1.260
2020/01/31 02:39:53.6	92.710	-0.210	-0.830	1.270
2020/01/31 02:39:53.7	92.710	-0.180	-0.840	1.290
2020/01/31 02:39:53.8	92.700	-0.160	-0.850	1.300
2020/01/31 02:39:53.9	92.690	-0.150	-0.840	1.310
2020/01/31 02:39:54.0	92.680	-0.130	-0.830	1.320
2020/01/31 02:39:54.1	92.650	-0.120	-0.810	1.330
2020/01/31 02:39:54.2	92.630	-0.110	-0.790	1.340
2020/01/31 02:39:54.3	92.610	-0.100	-0.760	1.340
2020/01/31 02:39:54.4	92.590	-0.100	-0.720	1.340
2020/01/31 02:39:54.5	92.570	-0.090	-0.680	1.340
2020/01/31 02:39:54.6	92.550	-0.090	-0.640	1.330
2020/01/31 02:39:54.7	92.530	-0.090	-0.590	1.330
2020/01/31 02:39:54.8	92.500	-0.090	-0.540	1.310
2020/01/31 02:39:54.9	92.480	-0.090	-0.490	1.300
2020/01/31 02:39:55.0	92.450	-0.090	-0.440	1.280
2020/01/31 02:39:55.1	92.420	-0.090	-0.390	1.250
2020/01/31 02:39:55.2	92.390	-0.090	-0.340	1.230
2020/01/31 02:39:55.3	92.370	-0.090	-0.290	1.200
2020/01/31 02:39:55.4	92.350	-0.090	-0.250	1.160
2020/01/31 02:39:55.5	92.330	-0.090	-0.200	1.130
2020/01/31 02:39:55.6	92.310	-0.080	-0.170	1.090
2020/01/31 02:39:55.7	92.290	-0.070	-0.130	1.050
2020/01/31 02:39:55.8	92.270	-0.060	-0.100	1.010
2020/01/31 02:39:55.9	92.260	-0.050	-0.080	0.970
2020/01/31 02:39:56.0	92.240	-0.040	-0.060	0.920
2020/01/31 02:39:56.1	92.240	-0.020	-0.050	0.880
2020/01/31 02:39:56.2	92.230	0.000	-0.040	0.830
2020/01/31 02:39:56.3	92.220	0.020	-0.040	0.790
2020/01/31 02:39:56.4	92.210	0.050	-0.050	0.740
2020/01/31 02:39:56.5	92.200	0.080	-0.060	0.700
2020/01/31 02:39:56.6	92.190	0.110	-0.080	0.650
2020/01/31 02:39:56.7	92.190	0.140	-0.100	0.610
2020/01/31 02:39:56.8	92.180	0.180	-0.130	0.570
2020/01/31 02:39:56.9	92.170	0.220	-0.160	0.530
2020/01/31 02:39:57.0	92.170	0.250	-0.200	0.490
2020/01/31 02:39:57.1	92.160	0.290	-0.240	0.450
2020/01/31 02:39:57.2	92.150	0.330	-0.280	0.410
2020/01/31 02:39:57.3	92.150	0.370	-0.320	0.370
2020/01/31 02:39:57.4	92.140	0.410	-0.360	0.340
2020/01/31 02:39:57.5	92.140	0.450	-0.400	0.300
2020/01/31 02:39:57.6	92.140	0.480	-0.440	0.270
2020/01/31 02:39:57.7	92.140	0.510	-0.480	0.230
2020/01/31 02:39:57.8	92.140	0.540	-0.510	0.200
2020/01/31 02:39:57.9	92.140	0.570	-0.540	0.160
2020/01/31 02:39:58.0	92.140	0.590	-0.560	0.130
2020/01/31 02:39:58.1	92.140	0.610	-0.580	0.090
2020/01/31 02:39:58.2	92.150	0.630	-0.590	0.060
2020/01/31 02:39:58.3	92.150	0.640	-0.600	0.020
2020/01/31 02:39:58.4	92.160	0.650	-0.600	-0.010
2020/01/31 02:39:58.5	92.170	0.650	-0.600	-0.040
2020/01/31 02:39:58.6	92.180	0.650	-0.580	-0.070
2020/01/31 02:39:58.7	92.200	0.640	-0.560	-0.090
2020/01/31 02:39:58.8	92.210	0.630	-0.540	-0.110
2020/01/31 02:39:58.9	92.220	0.620	-0.500	-0.130
2020/01/31 02:39:59.0	92.240	0.600	-0.470	-0.140
2020/01/31 02:39:59.1	92.260	0.570	-0.420	-0.160
2020/01/31 02:39:59.2	92.270	0.550	-0.370	-0.160
2020/01/31 02:39:59.3	92.290	0.510	-0.320	-0.160
2020/01/31 02:39:59.4	92.300	0.480	-0.270	-0.150
2020/01/31 02:39:59.5	92.320	0.440	-0.210	-0.130
2020/01/31 02:39:59.6	92.330	0.400	-0.150	-0.110
2020/01/31 02:39:59.7	92.350	0.360	-0.090	-0.080
2020/01/31 02:39:59.8	92.360	0.320	-0.030	-0.050
2020/01/31 02:39:59.9	92.370	0.270	0.030	-0.010
2020/01/31 02:40:00.0	92.380	0.230	0.090	0.040
2020/01/31 02:40:00.1	92.390	0.180	0.140	0.090
2020/01/31 02:40:00.2	92.400	0.130	0.200	0.140
2020/01/31 02:40:00.3	92.410	0.090	0.240	0.200
2020/01/31 02:40:00.4	92.420	0.040	0.280	0.260
2020/01/31 02:40:00.5	92.430	-0.000	0.320	0.320
2020/01/31 02:40:00.6	92.440	-0.040	0.350	0.380
2020/01/31 02:40:00.7	92.450	-0.080	0.380	0.440
2020/01/31 02:40:00.8	92.460	-0.120	0.400	0.500
2020/01/31 02:40:00.9	92.470	-0.160	0.410	0.560
2020/01/31 02:40:01.0	92.470	-0.190	0.420	0.610
2020/01/31 02:40:01.1	92.490	-0.230	0.420	0.670
2020/01/31 02:40:01.2	92.500	-0.250	0.410	0.710
2020/01/31 02:40:01.3	92.510	-0.280	0.400	0.760
2020/01/31 02:40:01.4	92.520	-0.310	0.380	0.790
2020/01/31 02:40:01.5	92.530	-0.330	0.360	0.830
2020/01/31 02:40:01.6	92.540	-0.340	0.330	0.860
2020/01/31 02:40:01.7	92.550	-0.360	0.300	0.880
2020/01/31 02:40:01.8	92.560	-0.370	0.260	0.900
2020/01/31 02:40:01.9	92.570	-0.380	0.220	0.920
2020/01/31 02:40:02.0	92.580	-0.390	0.170	0.930
2020/01/31 02:40:02.1	92.600	-0.390	0.130	0.940
2020/01/31 02:40:02.2	92.610	-0.390	0.080	0.950
2020/01/31 02:40:02.3	92.620	-0.390	0.030	0.950
2020/01/31 02:40:02.4	92.630	-0.390	-0.020	0.960
2020/01/31 02:40:02.5	92.630	-0.380	-0.070	0.970
2020/01/31 02:40:02.6	92.640	-0.370	-0.120	0.980
2020/01/31 02:40:02.7	92.650	-0.360	-0.160	0.990
2020/01/31 02:40:02.8	92.650	-0.340	-0.210	1.010
2020/01/31 02:40:02.9	92.650	-0.330	-0.250	1.030
2020/01/31 02:40:03.0	92.650	-0.310	-0.300	1.050
2020/01/31 02:40:03.1	92.640	-0.290	-0.340	1.070
2020/01/31 02:40:03.2	92.640	-0.270	-0.370	1.100
2020/01/31 02:40:03.3	92.640	-0.250	-0.400	1.120
2020/01/31 02:40:03.4	92.630	-0.230	-0.430	1.150
2020/01/31 02:40:03.5	92.630	-0.210	-0.460	1.180
2020/01/31 02:40:03.6	92.630	-0.180	-0.480	1.210
2020/01/31 02:40:03.7	92.620	-0.160	-0.490	1.240
2020/01/31 02:40:03.8	92.620	-0.140	-0.510	1.270
2020/01/31 02:40:03.9	92.610	-0.120	-0.510	1.300
2020/01/31 02:40:04.0	92.610	-0.100	-0.520	1.330
2020/01/31 02:40:04.1	92.610	-0.080	-0.520	1.360
2020/01/31 02:40:04.2	92.610	-0.060	-0.510	1.380
2020/01/31 02:40:04.3	92.610	-0.040	-0.510	1.390
2020/01/31 02:40:04.4	92.610	-0.020	-0.500	1.410
2020/01/31 02:40:04.5	92.610	-0.010	-0.490	1.420
2020/01/31 02:40:04.6	92.610	0.010	-0.480	1.420
2020/01/31 02:40:04.7	92.620	0.020	-0.460	1.420
2020/01/31 02:40:04.8	92.620	0.030	-0.450	1.420
2020/01/31 02:40:04.9	92.620	0.040	-0.440	1.410
2020/01/31 02:40:05.0	92.630	0.050	-0.420	1.400
2020/01/31 02:40:05.1	92.630	0.060	-0.410	1.380
2020/01/31 02:40:05.2	92.640	0.070	-0.400	1.360
2020/01/31 02:40:05.3	92.650	0.080	-0.390	1.330
2020/01/31 02:40:05.4	92.660	0.080	-0.380	1.310
2020/01/31 02:40:05.5	92.670	0.090	-0.370	1.270
2020/01/31 02:40:05.6	92.680	0.100	-0.370	1.240
2020/01/31 02:40:05.7	92.700	0.100	-0.370	1.200
2020/01/31 02:40:05.8	92.710	0.110	-0.370	1.160
2020/01/31 02:40:05.9	92.720	0.120	-0.370	1.120
2020/01/31 02:40:06.0	92.740	0.120	-0.380	1.070
2020/01/31 02:40:06.1	92.750	0.130	-0.380	1.030
2020/01/31 02:40:06.2	92.760	0.140	-0.390	0.990
2020/01/31 02:40:06.3	92.780	0.150	-0.410	0.950
2020/01/31 02:40:06.4	92.790	0.160	-0.420	0.910
2020/01/31 02:40:06.5	92.810	0.170	-0.430	0.870
2020/01/31 02:40:06.6	92.820	0.180	-0.450	0.840
2020/01/31 02:40:06.7	92.830	0.190	-0.470	0.810
2020/01/31 02:40:06.8	92.840	0.210	-0.480	0.790
2020/01/31 02:40:06.9	92.850	0.220	-0.500	0.760
2020/01/31 02:40:07.0	92.860	0.230	-0.510	0.750
2020/01/31 02:40:07.1	92.860	0.240	-0.520	0.730
2020/01/31 02:40:07.2	92.860	0.260	-0.530	0.730
2020/01/31 02:40:07.3	92.850	0.270	-0.540	0.720
2020/01/31 02:40:07.4	92.850	0.280	-0.540	0.720
2020/01/31 02:40:07.5	92.830	0.290	-0.540	0.720
2020/01/31 02:40:07.6	92.820	0.290	-0.540	0.730
2020/01/31 02:40:07.7	92.800	0.300	-0.530	0.730
2020/01/31 02:40:07.8	92.780	0.300	-0.520	0.740
2020/01/31 02:40:07.9	92.760	0.300	-0.500	0.750
2020/01/31 02:40:08.0	92.740	0.300	-0.480	0.750
2020/01/31 02:40:08.1	92.710	0.300	-0.460	0.760
2020/01/31 02:40:08.2	92.690	0.290	-0.430	0.770
2020/01/31 02:40:08.3	92.660	0.290	-0.400	0.770
2020/01/31 02:40:08.4	92.620	0.280	-0.360	0.770
2020/01/31 02:40:08.5	92.590	0.260	-0.320	0.770
2020/01/31 02:40:08.6	92.560	0.250	-0.280	0.770
2020/01/31 02:40:08.7	92.530	0.230	-0.230	0.760
2020/01/31 02:40:08.8	92.500	0.210	-0.190	0.760
2020/01/31 02:40:08.9	92.460	0.200	-0.140	0.750
2020/01/31 02:40:09.0	92.430	0.170	-0.100	0.740
2020/01/31 02:40:09.1	92.400	0.150	-0.050	0.720
2020/01/31 02:40:09.2	92.370	0.130	-0.010	0.700
2020/01/31 02:40:09.3	92.350	0.110	0.030	0.680
2020/01/31 02:40:09.4	92.320	0.080	0.070	0.660
2020/01/31 02:40:09.5	92.300	0.060	0.110	0.640
2020/01/31 02:40:09.6	92.280	0.040	0.140	0.620
2020/01/31 02:40:09.7	92.260	0.020	0.160	0.590
2020/01/31 02:40:09.8	92.240	0.000	0.190	0.560
2020/01/31 02:40:09.9	92.230	-0.010	0.200	0.530
2020/01/31 02:40:10.0	92.220	-0.030	0.210	0.500
2020/01/31 02:40:10.1	92.210	-0.040	0.220	0.470
2020/01/31 02:40:10.2	92.210	-0.050	0.220	0.430
2020/01/31 02:40:10.3	92.210	-0.060	0.210	0.400
2020/01/31 02:40:10.4	92.220	-0.070	0.200	0.360
2020/01/31 02:40:10.5	92.220	-0.070	0.190	0.320
2020/01/31 02:40:10.6	92.240	-0.070	0.160	0.280
2020/01/31 02:40:10.7	92.250	-0.070	0.140	0.240
2020/01/31 02:40:10.8	92.270	-0.060	0.110	0.200
2020/01/31 02:40:10.9	92.300	-0.060	0.070	0.160
2020/01/31 02:40:11.0	92.330	-0.050	0.040	0.120
2020/01/31 02:40:11.1	92.360	-0.040	-0.010	0.080
2020/01/31 02:40:11.2	92.400	-0.030	-0.050	0.040
2020/01/31 02:40:11.3	92.430	-0.010	-0.090	0.010
2020/01/31 02:40:11.4	92.480	0.000	-0.130	-0.030
2020/01/31 02:40:11.5	92.520	0.020	-0.170	-0.050
2020/01/31 02:40:11.6	92.560	0.030	-0.210	-0.080
2020/01/31 02:40:11.7	92.610	0.050	-0.250	-0.100
2020/01/31 02:40:11.8	92.650	0.060	-0.280	-0.120
2020/01/31 02:40:11.9	92.700	0.070	-0.310	-0.130
2020/01/31 02:40:12.0	92.740	0.080	-0.340	-0.140
2020/01/31 02:40:12.1	92.760	0.090	-0.360	-0.140
2020/01/31 02:40:12.2	92.800	0.100	-0.370	-0.140
2020/01/31 02:40:12.3	92.840	0.100	-0.380	-0.130
2020/01/31 02:40:12.4	92.870	0.100	-0.390	-0.120
2020/01/31 02:40:12.5	92.900	0.100	-0.380	-0.110
2020/01/31 02:40:12.6	92.930	0.090	-0.380	-0.090
2020/01/31 02:40:12.7	92.950	0.090	-0.360	-0.070
2020/01/31 02:40:12.8	92.970	0.070	-0.340	-0.050
2020/01/31 02:40:12.9	92.990	0.060	-0.310	-0.020
2020/01/31 02:40:13.0	93.000	0.040	-0.280	0.010
2020/01/31 02:40:13.1	93.010	0.010	-0.240	0.050
2020/01/31 02:40:13.2	93.020	-0.010	-0.200	0.090
2020/01/31 02:40:13.3	93.020	-0.040	-0.150	0.130
2020/01/31 02:40:13.4	93.010	-0.080	-0.100	0.180
2020/01/31 02:40:13.5	93.010	-0.110	-0.040	0.230
2020/01/31 02:40:13.6	92.990	-0.150	0.010	0.280
2020/01/31 02:40:13.7	92.980	-0.190	0.070	0.340
2020/01/31 02:40:13.8	92.960	-0.240	0.130	0.400
2020/01/31 02:40:13.9	92.940	-0.280	0.190	0.460
2020/01/31 02:40:14.0	92.920	-0.330	0.250	0.520
2020/01/31 02:40:14.1	92.890	-0.370	0.300	0.590
2020/01/31 02:40:14.2	92.870	-0.420	0.360	0.650
2020/01/31 02:40:14.3	92.840	-0.460	0.410	0.720
2020/01/31 02:40:14.4	92.810	-0.510	0.450	0.780
2020/01/31 02:40:14.5	92.790	-0.550	0.490	0.840
2020/01/31 02:40:14.6	92.760	-0.590	0.520	0.910
2020/01/31 02:40:14.7	92.730	-0.630	0.550	0.960
2020/01/31 02:40:14.8	92.700	-0.670	0.570	1.020
2020/01/31 02:40:14.9	92.680	-0.700	0.580	1.070
2020/01/31 02:40:15.0	92.660	-0.720	0.580	1.120
2020/01/31 02:40:15.1	92.630	-0.740	0.570	1.160
2020/01/31 02:40:15.2	92.610	-0.760	0.550	1.200
2020/01/31 02:40:15.3	92.590	-0.770	0.530	1.230
2020/01/31 02:40:15.4	92.580	-0.770	0.490	1.250
2020/01/31 02:40:15.5	92.570	-0.770	0.440	1.270
2020/01/31 02:40:15.6	92.550	-0.760	0.390	1.280
2020/01/31 02:40:15.7	92.550	-0.750	0.320	1.280
2020/01/31 02:40:15.8	92.540	-0.720	0.250	1.280
2020/01/31 02:40:15.9	92.530	-0.690	0.170	1.270
2020/01/31 02:40:16.0	92.530	-0.660	0.080	1.250
2020/01/31 02:40:16.1	92.530	-0.620	-0.020	1.230
2020/01/31 02:40:16.2	92.530	-0.570	-0.120	1.210
2020/01/31 02:40:16.3	92.530	-0.510	-0.230	1.180
2020/01/31 02:40:16.4	92.530	-0.450	-0.340	1.150
2020/01/31 02:40:16.5	92.520	-0.390	-0.450	1.120
2020/01/31 02:40:16.6	92.520	-0.320	-0.570	1.090
2020/01/31 02:40:16.7	92.520	-0.250	-0.680	1.060
2020/01/31 02:40:16.8	92.510	-0.180	-0.790	1.020
2020/01/31 02:40:16.9	92.510	-0.100	-0.900	0.990
2020/01/31 02:40:17.0	92.500	-0.020	-1.000	0.960
2020/01/31 02:40:17.1	92.500	0.060	-1.100	0.920
2020/01/31 02:40:17.2	92.490	0.140	-1.190	0.890
2020/01/31 02:40:17.3	92.480	0.210	-1.270	0.860
2020/01/31 02:40:17.4	92.470	0.290	-1.340	0.840
2020/01/31 02:40:17.5	92.460	0.370	-1.410	0.810
2020/01/31 02:40:17.6	92.450	0.440	-1.460	0.790
2020/01/31 02:40:17.7	92.440	0.510	-1.490	0.770
2020/01/31 02:40:17.8	92.430	0.570	-1.520	0.760
2020/01/31 02:40:17.9	92.420	0.630	-1.540	0.740
2020/01/31 02:40:18.0	92.400	0.690	-1.540	0.730
2020/01/31 02:40:18.1	92.400	0.740	-1.530	0.730
2020/01/31 02:40:18.2	92.380	0.790	-1.510	0.720
2020/01/31 02:40:18.3	92.370	0.830	-1.480	0.720
2020/01/31 02:40:18.4	92.350	0.870	-1.440	0.720
2020/01/31 02:40:18.5	92.330	0.900	-1.390	0.730
2020/01/31 02:40:18.6	92.320	0.920	-1.330	0.730
2020/01/31 02:40:18.7	92.300	0.940	-1.260	0.740
2020/01/31 02:40:18.8	92.280	0.950	-1.180	0.750
2020/01/31 02:40:18.9	92.260	0.960	-1.100	0.760
2020/01/31 02:40:19.0	92.240	0.960	-1.020	0.780
2020/01/31 02:40:19.1	92.210	0.960	-0.920	0.790
2020/01/31 02:40:19.2	92.190	0.950	-0.830	0.800
2020/01/31 02:40:19.3	92.180	0.930	-0.740	0.820
2020/01/31 02:40:19.4	92.160	0.910	-0.650	0.830
2020/01/31 02:40:19.5	92.140	0.890	-0.550	0.840
2020/01/31 02:40:19.6	92.130	0.870	-0.460	0.850
2020/01/31 02:40:19.7	92.110	0.840	-0.380	0.860
2020/01/31 02:40:19.8	92.100	0.800	-0.290	0.870
2020/01/31 02:40:19.9	92.090	0.770	-0.210	0.880
2020/01/31 02:40:20.0	92.080	0.730	-0.130	0.890
2020/01/31 02:40:20.1	92.060	0.690	-0.060	0.890
2020/01/31 02:40:20.2	92.060	0.650	0.010	0.900
2020/01/31 02:40:20.3	92.050	0.600	0.070	0.900
2020/01/31 02:40:20.4	92.050	0.560	0.120	0.890
2020/01/31 02:40:20.5	92.050	0.510	0.170	0.890
2020/01/31 02:40:20.6	92.050	0.470	0.220	0.880
2020/01/31 02:40:20.7	92.050	0.420	0.260	0.880
2020/01/31 02:40:20.8	92.050	0.370	0.300	0.870
2020/01/31 02:40:20.9	92.060	0.330	0.330	0.860
2020/01/31 02:40:21.0	92.060	0.280	0.360	0.850
2020/01/31 02:40:21.1	92.070	0.230	0.380	0.840
2020/01/31 02:40:21.2	92.070	0.180	0.400	0.830
2020/01/31 02:40:21.3	92.080	0.140	0.420	0.820
2020/01/31 02:40:21.4	92.080	0.090	0.440	0.810
2020/01/31 02:40:21.5	92.080	0.040	0.460	0.800
2020/01/31 02:40:21.6	92.090	-0.010	0.480	0.790
2020/01/31 02:40:21.7	92.090	-0.060	0.490	0.780
2020/01/31 02:40:21.8	92.090	-0.100	0.510	0.770
2020/01/31 02:40:21.9	92.090	-0.150	0.530	0.760
2020/01/31 02:40:22.0	92.100	-0.200	0.550	0.760
2020/01/31 02:40:22.1	92.100	-0.240	0.570	0.750
2020/01/31 02:40:22.2	92.100	-0.290	0.590	0.750
2020/01/31 02:40:22.3	92.110	-0.340	0.620	0.740
2020/01/31 02:40:22.4	92.110	-0.380	0.640	0.740
2020/01/31 02:40:22.5	92.120	-0.430	0.660	0.740
2020/01/31 02:40:22.6	92.120	-0.470	0.690	0.730
2020/01/31 02:40:22.7	92.130	-0.510	0.710	0.740
2020/01/31 02:40:22.8	92.130	-0.550	0.740	0.740
2020/01/31 02:40:22.9	92.140	-0.590	0.760	0.740
2020/01/31 02:40:23.0	92.150	-0.630	0.780	0.740
2020/01/31 02:40:23.1	92.160	-0.670	0.800	0.740
2020/01/31 02:40:23.2	92.170	-0.700	0.810	0.750
2020/01/31 02:40:23.3	92.190	-0.730	0.820	0.750
2020/01/31 02:40:23.4	92.200	-0.750	0.820	0.760
2020/01/31 02:40:23.5	92.220	-0.770	0.810	0.770
2020/01/31 02:40:23.6	92.230	-0.790	0.800	0.770
2020/01/31 02:40:23.7	92.250	-0.800	0.780	0.780
2020/01/31 02:40:23.8	92.270	-0.810	0.750	0.790
2020/01/31 02:40:23.9	92.290	-0.810	0.700	0.790
2020/01/31 02:40:24.0	92.300	-0.810	0.650	0.800
2020/01/31 02:40:24.1	92.320	-0.800	0.580	0.810
2020/01/31 02:40:24.2	92.340	-0.780	0.500	0.810
2020/01/31 02:40:24.3	92.360	-0.760	0.420	0.810
2020/01/31 02:40:24.4	92.380	-0.730	0.320	0.810
2020/01/31 02:40:24.5	92.400	-0.690	0.210	0.810
2020/01/31 02:40:24.6	92.420	-0.650	0.100	0.810
2020/01/31 02:40:24.7	92.440	-0.600	-0.030	0.800
2020/01/31 02:40:24.8	92.470	-0.550	-0.160	0.800
2020/01/31 02:40:24.9	92.490	-0.500	-0.300	0.790
2020/01/31 02:40:25.0	92.520	-0.440	-0.440	0.780
2020/01/31 02:40:25.1	92.540	-0.370	-0.580	0.770
2020/01/31 02:40:25.2	92.570	-0.300	-0.720	0.760
2020/01/31 02:40:25.3	92.590	-0.230	-0.870	0.760
2020/01/31 02:40:25.4	92.610	-0.160	-1.010	0.750
2020/01/31 02:40:25.5	92.630	-0.090	-1.140	0.750
2020/01/31 02:40:25.6	92.650	-0.020	-1.270	0.750
2020/01/31 02:40:25.7	92.670	0.050	-1.390	0.750
2020/01/31 02:40:25.8	92.680	0.120	-1.510	0.760
2020/01/31 02:40:25.9	92.690	0.180	-1.610	0.770
2020/01/31 02:40:26.0	92.690	0.250	-1.690	0.790
2020/01/31 02:40:26.1	92.700	0.310	-1.770	0.810
2020/01/31 02:40:26.2	92.690	0.360	-1.820	0.830
2020/01/31 02:40:26.3	92.680	0.400	-1.860	0.860
2020/01/31 02:40:26.4	92.670	0.450	-1.880	0.890
2020/01/31 02:40:26.5	92.650	0.480	-1.890	0.920
2020/01/31 02:40:26.6	92.630	0.510	-1.870	0.950
2020/01/31 02:40:26.7	92.610	0.530	-1.840	0.980
2020/01/31 02:40:26.8	92.580	0.540	-1.790	1.020
2020/01/31 02:40:26.9	92.550	0.540	-1.720	1.050
2020/01/31 02:40:27.0	92.520	0.540	-1.630	1.080
2020/01/31 02:40:27.1	92.480	0.530	-1.530	1.110
2020/01/31 02:40:27.2	92.440	0.510	-1.420	1.140
2020/01/31 02:40:27.3	92.400	0.480	-1.290	1.170
2020/01/31 02:40:27.4	92.360	0.450	-1.150	1.190
2020/01/31 02:40:27.5	92.320	0.410	-1.000	1.210
2020/01/31 02:40:27.6	92.270	0.370	-0.850	1.230
2020/01/31 02:40:27.7	92.230	0.320	-0.680	1.240
2020/01/31 02:40:27.8	92.180	0.260	-0.520	1.250
2020/01/31 02:40:27.9	92.140	0.200	-0.350	1.250
2020/01/31 02:40:28.0	92.090	0.140	-0.180	1.250
2020/01/31 02:40:28.1	92.040	0.080	0.000	1.250
2020/01/31 02:40:28.2	92.000	0.010	0.170	1.240
2020/01/31 02:40:28.3	91.960	-0.060	0.320	1.220
2020/01/31 02:40:28.4	91.920	-0.120	0.470	1.190
2020/01/31 02:40:28.5	91.890	-0.190	0.620	1.160
2020/01/31 02:40:28.6	91.850	-0.250	0.740	1.130
2020/01/31 02:40:28.7	91.830	-0.310	0.860	1.090
2020/01/31 02:40:28.8	91.800	-0.360	0.960	1.040
2020/01/31 02:40:28.9	91.780	-0.410	1.050	0.990
2020/01/31 02:40:29.0	91.770	-0.460	1.110	0.940
2020/01/31 02:40:29.1	91.760	-0.500	1.160	0.880
2020/01/31 02:40:29.2	91.750	-0.530	1.200	0.820
2020/01/31 02:40:29.3	91.750	-0.550	1.210	0.750
2020/01/31 02:40:29.4	91.750	-0.570	1.210	0.690
2020/01/31 02:40:29.5	91.750	-0.580	1.190	0.620
2020/01/31 02:40:29.6	91.760	-0.580	1.160	0.560
2020/01/31 02:40:29.7	91.770	-0.570	1.110	0.490
2020/01/31 02:40:29.8	91.780	-0.560	1.040	0.420
2020/01/31 02:40:29.9	91.790	-0.540	0.970	0.360
2020/01/31 02:40:30.0	91.810	-0.510	0.880	0.290
2020/01/31 02:40:30.1	91.830	-0.470	0.780	0.230
2020/01/31 02:40:30.2	91.860	-0.440	0.670	0.160
2020/01/31 02:40:30.3	91.880	-0.390	0.560	0.100
2020/01/31 02:40:30.4	91.910	-0.350	0.440	0.030
2020/01/31 02:40:30.5	91.930	-0.290	0.320	-0.030
2020/01/31 02:40:30.6	91.960	-0.240	0.200	-0.090
2020/01/31 02:40:30.7	91.990	-0.190	0.080	-0.150
2020/01/31 02:40:30.8	92.020	-0.130	-0.050	-0.200
2020/01/31 02:40:30.9	92.040	-0.070	-0.160	-0.250
2020/01/31 02:40:31.0	92.070	-0.010	-0.280	-0.300
2020/01/31 02:40:31.1	92.100	0.040	-0.400	-0.340
2020/01/31 02:40:31.2	92.120	0.100	-0.500	-0.380
2020/01/31 02:40:31.3	92.140	0.150	-0.590	-0.410
2020/01/31 02:40:31.4	92.160	0.200	-0.670	-0.440
2020/01/31 02:40:31.5	92.180	0.250	-0.750	-0.460
2020/01/31 02:40:31.6	92.200	0.290	-0.810	-0.470
2020/01/31 02:40:31.7	92.210	0.330	-0.870	-0.480
2020/01/31 02:40:31.8	92.220	0.370	-0.910	-0.480
2020/01/31 02:40:31.9	92.230	0.400	-0.940	-0.480
2020/01/31 02:40:32.0	92.240	0.430	-0.960	-0.460
2020/01/31 02:40:32.1	92.240	0.450	-0.960	-0.450
2020/01/31 02:40:32.2	92.240	0.460	-0.960	-0.430
2020/01/31 02:40:32.3	92.250	0.470	-0.950	-0.400
2020/01/31 02:40:32.4	92.250	0.480	-0.930	-0.360
2020/01/31 02:40:32.5	92.250	0.480	-0.900	-0.320
2020/01/31 02:40:32.6	92.250	0.470	-0.860	-0.280
2020/01/31 02:40:32.7	92.240	0.460	-0.810	-0.230
2020/01/31 02:40:32.8	92.240	0.440	-0.760	-0.180
2020/01/31 02:40:32.9	92.230	0.420	-0.700	-0.130
2020/01/31 02:40:33.0	92.230	0.400	-0.640	-0.080
2020/01/31 02:40:33.1	92.210	0.370	-0.580	-0.020
2020/01/31 02:40:33.2	92.210	0.340	-0.510	0.040
2020/01/31 02:40:33.3	92.200	0.300	-0.440	0.100
2020/01/31 02:40:33.4	92.190	0.260	-0.370	0.160
2020/01/31 02:40:33.5	92.180	0.220	-0.310	0.220
2020/01/31 02:40:33.6	92.160	0.180	-0.240	0.280
2020/01/31 02:40:33.7	92.150	0.140	-0.180	0.340
2020/01/31 02:40:33.8	92.140	0.100	-0.120	0.390
2020/01/31 02:40:33.9	92.130	0.050	-0.070	0.450
2020/01/31 02:40:34.0	92.120	0.010	-0.020	0.510
2020/01/31 02:40:34.1	92.090	-0.030	0.030	0.560
2020/01/31 02:40:34.2	92.080	-0.080	0.080	0.620
2020/01/31 02:40:34.3	92.070	-0.120	0.120	0.670
2020/01/31 02:40:34.4	92.060	-0.160	0.150	0.720
2020/01/31 02:40:34.5	92.050	-0.190	0.180	0.760
2020/01/31 02:40:34.6	92.040	-0.230	0.200	0.810
2020/01/31 02:40:34.7	92.030	-0.260	0.220	0.850
2020/01/31 02:40:34.8	92.020	-0.290	0.240	0.890
2020/01/31 02:40:34.9	92.010	-0.320	0.250	0.930
2020/01/31 02:40:35.0	92.000	-0.340	0.260	0.970
2020/01/31 02:40:35.1	92.000	-0.360	0.260	1.000
2020/01/31 02:40:35.2	91.990	-0.380	0.260	1.030
2020/01/31 02:40:35.3	91.980	-0.390	0.260	1.060
2020/01/31 02:40:35.4	91.980	-0.400	0.260	1.080
2020/01/31 02:40:35.5	91.970	-0.410	0.250	1.100
2020/01/31 02:40:35.6	91.970	-0.410	0.240	1.120
2020/01/31 02:40:35.7	91.960	-0.420	0.220	1.140
2020/01/31 02:40:35.8	91.960	-0.410	0.200	1.150
2020/01/31 02:40:35.9	91.950	-0.400	0.180	1.160
2020/01/31 02:40:36.0	91.950	-0.390	0.150	1.170
2020/01/31 02:40:36.1	91.950	-0.380	0.130	1.180
2020/01/31 02:40:36.2	91.940	-0.360	0.090	1.180
2020/01/31 02:40:36.3	91.940	-0.340	0.060	1.180
2020/01/31 02:40:36.4	91.940	-0.310	0.020	1.170
2020/01/31 02:40:36.5	91.940	-0.280	-0.030	1.170
2020/01/31 02:40:36.6	91.940	-0.250	-0.080	1.160
2020/01/31 02:40:36.7	91.940	-0.220	-0.130	1.150
2020/01/31 02:40:36.8	91.940	-0.180	-0.190	1.140
2020/01/31 02:40:36.9	91.950	-0.130	-0.250	1.130
2020/01/31 02:40:37.0	91.950	-0.090	-0.320	1.120
2020/01/31 02:40:37.1	91.960	-0.040	-0.390	1.100
2020/01/31 02:40:37.2	91.970	0.010	-0.460	1.090
2020/01/31 02:40:37.3	91.970	0.070	-0.540	1.070
2020/01/31 02:40:37.4	91.980	0.120	-0.610	1.060
2020/01/31 02:40:37.5	91.990	0.180	-0.690	1.050
2020/01/31 02:40:37.6	91.990	0.230	-0.770	1.040
2020/01/31 02:40:37.7	92.000	0.290	-0.850	1.030
2020/01/31 02:40:37.8	92.000	0.350	-0.920	1.020
2020/01/31 02:40:37.9	92.010	0.400	-1.000	1.020
2020/01/31 02:40:38.0	92.010	0.450	-1.060	1.010
2020/01/31 02:40:38.1	92.020	0.510	-1.130	1.010
2020/01/31 02:40:38.2	92.020	0.550	-1.190	1.010
2020/01/31 02:40:38.3	92.020	0.600	-1.230	1.000
2020/01/31 02:40:38.4	92.020	0.640	-1.270	1.000
2020/01/31 02:40:38.5	92.020	0.680	-1.300	1.000
2020/01/31 02:40:38.6	92.020	0.710	-1.320	1.000
2020/01/31 02:40:38.7	92.010	0.740	-1.330	1.000
2020/01/31 02:40:38.8	92.010	0.760	-1.330	1.010
2020/01/31 02:40:38.9	92.010	0.770	-1.310	1.010
2020/01/31 02:40:39.0	92.000	0.780	-1.290	1.010
2020/01/31 02:40:39.1	92.000	0.780	-1.250	1.000
2020/01/31 02:40:39.2	92.000	0.780	-1.190	1.000
2020/01/31 02:40:39.3	92.000	0.770	-1.130	1.000
2020/01/31 02:40:39.4	92.000	0.750	-1.060	1.000
2020/01/31 02:40:39.5	92.000	0.730	-0.970	1.000
2020/01/31 02:40:39.6	92.000	0.700	-0.880	0.990
2020/01/31 02:40:39.7	92.000	0.670	-0.770	0.990
2020/01/31 02:40:39.8	92.000	0.630	-0.660	0.980
2020/01/31 02:40:39.9	92.000	0.580	-0.540	0.980
2020/01/31 02:40:40.0	92.010	0.530	-0.410	0.970
2020/01/31 02:40:40.1	92.020	0.480	-0.280	0.960
2020/01/31 02:40:40.2	92.030	0.420	-0.150	0.950
2020/01/31 02:40:40.3	92.040	0.360	-0.010	0.940
2020/01/31 02:40:40.4	92.050	0.300	0.120	0.930
2020/01/31 02:40:40.5	92.060	0.240	0.260	0.920
2020/01/31 02:40:40.6	92.070	0.170	0.390	0.910
2020/01/31 02:40:40.7	92.080	0.110	0.510	0.900
2020/01/31 02:40:40.8	92.100	0.040	0.630	0.880
2020/01/31 02:40:40.9	92.120	-0.030	0.740	0.870
2020/01/31 02:40:41.0	92.130	-0.090	0.850	0.850
2020/01/31 02:40:41.1	92.150	-0.150	0.950	0.830
2020/01/31 02:40:41.2	92.170	-0.210	1.030	0.820
2020/01/31 02:40:41.3	92.200	-0.270	1.110	0.800
2020/01/31 02:40:41.4	92.220	-0.320	1.170	0.780
2020/01/31 02:40:41.5	92.240	-0.370	1.220	0.770
2020/01/31 02:40:41.6	92.260	-0.420	1.260	0.750
2020/01/31 02:40:41.7	92.290	-0.460	1.290	0.730
2020/01/31 02:40:41.8	92.310	-0.500	1.300	0.710
2020/01/31 02:40:41.9	92.340	-0.530	1.300	0.690
2020/01/31 02:40:42.0	92.360	-0.560	1.290	0.670
2020/01/31 02:40:42.1	92.390	-0.580	1.260	0.650
2020/01/31 02:40:42.2	92.410	-0.600	1.230	0.630
2020/01/31 02:40:42.3	92.430	-0.620	1.180	0.610
2020/01/31 02:40:42.4	92.450	-0.630	1.130	0.590
2020/01/31 02:40:42.5	92.470	-0.640	1.060	0.570
2020/01/31 02:40:42.6	92.490	-0.640	0.990	0.550
2020/01/31 02:40:42.7	92.510	-0.640	0.910	0.530
2020/01/31 02:40:42.8	92.520	-0.640	0.820	0.510
2020/01/31 02:40:42.9	92.530	-0.630	0.720	0.490
2020/01/31 02:40:43.0	92.540	-0.620	0.620	0.480
2020/01/31 02:40:43.1	92.560	-0.610	0.520	0.450
2020/01/31 02:40:43.2	92.570	-0.590	0.420	0.430
2020/01/31 02:40:43.3	92.580	-0.580	0.310	0.420
2020/01/31 02:40:43.4	92.590	-0.560	0.200	0.400
2020/01/31 02:40:43.5	92.590	-0.540	0.100	0.380
2020/01/31 02:40:43.6	92.600	-0.520	-0.010	0.370
2020/01/31 02:40:43.7	92.600	-0.490	-0.120	0.350
2020/01/31 02:40:43.8	92.600	-0.470	-0.220	0.340
2020/01/31 02:40:43.9	92.600	-0.450	-0.320	0.330
2020/01/31 02:40:44.0	92.610	-0.420	-0.410	0.330
2020/01/31 02:40:44.1	92.610	-0.400	-0.510	0.320
2020/01/31 02:40:44.2	92.610	-0.380	-0.590	0.320
2020/01/31 02:40:44.3	92.620	-0.350	-0.670	0.320
2020/01/31 02:40:44.4	92.620	-0.330	-0.750	0.330
2020/01/31 02:40:44.5	92.620	-0.310	-0.820	0.340
2020/01/31 02:40:44.6	92.620	-0.280	-0.880	0.350
2020/01/31 02:40:44.7	92.620	-0.260	-0.940	0.370
2020/01/31 02:40:44.8	92.630	-0.240	-0.990	0.390
2020/01/31 02:40:44.9	92.630	-0.220	-1.030	0.410
2020/01/31 02:40:45.0	92.630	-0.190	-1.070	0.440
2020/01/31 02:40:45.1	92.620	-0.170	-1.100	0.470
2020/01/31 02:40:45.2	92.620	-0.150	-1.120	0.500
2020/01/31 02:40:45.3	92.620	-0.140	-1.140	0.540
2020/01/31 02:40:45.4	92.620	-0.120	-1.150	0.570
2020/01/31 02:40:45.5	92.620	-0.100	-1.160	0.610
2020/01/31 02:40:45.6	92.620	-0.080	-1.160	0.650
2020/01/31 02:40:45.7	92.610	-0.060	-1.160	0.690
2020/01/31 02:40:45.8	92.610	-0.050	-1.150	0.730
2020/01/31 02:40:45.9	92.600	-0.030	-1.140	0.760
2020/01/31 02:40:46.0	92.600	-0.010	-1.120	0.800
2020/01/31 02:40:46.1	92.590	0.000	-1.110	0.830
2020/01/31 02:40:46.2	92.580	0.020	-1.090	0.860
2020/01/31 02:40:46.3	92.570	0.040	-1.060	0.890
2020/01/31 02:40:46.4	92.560	0.050	-1.040	0.920
2020/01/31 02:40:46.5	92.550	0.070	-1.010	0.940
2020/01/31 02:40:46.6	92.540	0.080	-0.980	0.960
2020/01/31 02:40:46.7	92.530	0.100	-0.950	0.970
2020/01/31 02:40:46.8	92.520	0.120	-0.920	0.990
2020/01/31 02:40:46.9	92.510	0.140	-0.890	1.000
2020/01/31 02:40:47.0	92.510	0.150	-0.860	1.010
2020/01/31 02:40:47.1	92.490	0.170	-0.830	1.010
2020/01/31 02:40:47.2	92.490	0.190	-0.800	1.010
2020/01/31 02:40:47.3	92.480	0.210	-0.770	1.020
2020/01/31 02:40:47.4	92.470	0.220	-0.740	1.020
2020/01/31 02:40:47.5	92.460	0.240	-0.710	1.010
2020/01/31 02:40:47.6	92.450	0.260	-0.690	1.010
2020/01/31 02:40:47.7	92.440	0.280	-0.660	1.010
2020/01/31 02:40:47.8	92.430	0.290	-0.630	1.010
2020/01/31 02:40:47.9	92.420	0.310	-0.600	1.010
2020/01/31 02:40:48.0	92.410	0.320	-0.580	1.010
2020/01/31 02:40:48.1	92.410	0.340	-0.550	1.010
2020/01/31 02:40:48.2	92.400	0.350	-0.520	1.010
2020/01/31 02:40:48.3	92.400	0.360	-0.490	1.000
2020/01/31 02:40:48.4	92.390	0.370	-0.450	1.000
2020/01/31 02:40:48.5	92.380	0.370	-0.420	1.000
2020/01/31 02:40:48.6	92.380	0.380	-0.380	0.990
2020/01/31 02:40:48.7	92.370	0.380	-0.340	0.990
2020/01/31 02:40:48.8	92.370	0.380	-0.300	0.980
2020/01/31 02:40:48.9	92.370	0.370	-0.260	0.970
2020/01/31 02:40:49.0	92.370	0.370	-0.210	0.960
2020/01/31 02:40:49.1	92.360	0.360	-0.160	0.950
2020/01/31 02:40:49.2	92.360	0.340	-0.120	0.930
2020/01/31 02:40:49.3	92.370	0.330	-0.060	0.910
2020/01/31 02:40:49.4	92.370	0.310	-0.010	0.890
2020/01/31 02:40:49.5	92.380	0.290	0.040	0.870
2020/01/31 02:40:49.6	92.390	0.270	0.090	0.840
2020/01/31 02:40:49.7	92.400	0.250	0.150	0.810
2020/01/31 02:40:49.8	92.410	0.220	0.200	0.780
2020/01/31 02:40:49.9	92.420	0.190	0.260	0.740
2020/01/31 02:40:50.0	92.430	0.160	0.310	0.700
2020/01/31 02:40:50.1	92.450	0.130	0.370	0.660
2020/01/31 02:40:50.2	92.460	0.100	0.430	0.620
2020/01/31 02:40:50.3	92.480	0.070	0.480	0.580
2020/01/31 02:40:50.4	92.490	0.040	0.530	0.530
2020/01/31 02:40:50.5	92.510	0.000	0.580	0.490
2020/01/31 02:40:50.6	92.520	-0.030	0.620	0.440
2020/01/31 02:40:50.7	92.540	-0.060	0.670	0.400
2020/01/31 02:40:50.8	92.550	-0.090	0.710	0.360
2020/01/31 02:40:50.9	92.570	-0.120	0.740	0.320
2020/01/31 02:40:51.0	92.580	-0.150	0.770	0.280
2020/01/31 02:40:51.1	92.610	-0.180	0.790	0.240
2020/01/31 02:40:51.2	92.620	-0.200	0.810	0.200
2020/01/31 02:40:51.3	92.640	-0.220	0.830	0.170
2020/01/31 02:40:51.4	92.650	-0.240	0.830	0.140
2020/01/31 02:40:51.5	92.660	-0.260	0.830	0.110
2020/01/31 02:40:51.6	92.670	-0.270	0.830	0.090
2020/01/31 02:40:51.7	92.680	-0.280	0.810	0.060
2020/01/31 02:40:51.8	92.700	-0.290	0.790	0.050
2020/01/31 02:40:51.9	92.710	-0.290	0.760	0.030
2020/01/31 02:40:52.0	92.720	-0.290	0.730	0.020
2020/01/31 02:40:52.1	92.720	-0.290	0.690	0.010
2020/01/31 02:40:52.2	92.730	-0.280	0.640	-0.000
2020/01/31 02:40:52.3	92.740	-0.270	0.580	-0.010
2020/01/31 02:40:52.4	92.740	-0.250	0.520	-0.010
2020/01/31 02:40:52.5	92.750	-0.230	0.450	-0.020
2020/01/31 02:40:52.6	92.760	-0.210	0.370	-0.020
2020/01/31 02:40:52.7	92.760	-0.190	0.290	-0.010
2020/01/31 02:40:52.8	92.760	-0.160	0.210	-0.010
2020/01/31 02:40:52.9	92.770	-0.120	0.110	-0.000
2020/01/31 02:40:53.0	92.770	-0.090	0.020	0.000
2020/01/31 02:40:53.1	92.780	-0.050	-0.090	0.010
2020/01/31 02:40:53.2	92.780	-0.010	-0.190	0.020
2020/01/31 02:40:53.3	92.780	0.030	-0.290	0.030
2020/01/31 02:40:53.4	92.790	0.070	-0.390	0.040
2020/01/31 02:40:53.5	92.790	0.120	-0.490	0.050
2020/01/31 02:40:53.6	92.790	0.160	-0.600	0.060
2020/01/31 02:40:53.7	92.790	0.210	-0.690	0.070
2020/01/31 02:40:53.8	92.790	0.250	-0.790	0.080
2020/01/31 02:40:53.9	92.790	0.300	-0.880	0.090
2020/01/31 02:40:54.0	92.790	0.340	-0.970	0.110
2020/01/31 02:40:54.1	92.780	0.380	-1.050	0.120
2020/01/31 02:40:54.2	92.780	0.430	-1.120	0.130
2020/01/31 02:40:54.3	92.780	0.460	-1.180	0.150
2020/01/31 02:40:54.4	92.780	0.500	-1.230	0.170
2020/01/31 02:40:54.5	92.770	0.530	-1.280	0.190
2020/01/31 02:40:54.6	92.770	0.560	-1.310	0.210
2020/01/31 02:40:54.7	92.760	0.580	-1.340	0.240
2020/01/31 02:40:54.8	92.760	0.610	-1.350	0.260
2020/01/31 02:40:54.9	92.750	0.620	-1.350	0.290
2020/01/31 02:40:55.0	92.740	0.630	-1.340	0.320
2020/01/31 02:40:55.1	92.730	0.640	-1.320	0.360
2020/01/31 02:40:55.2	92.720	0.640	-1.290	0.390
2020/01/31 02:40:55.3	92.710	0.640	-1.240	0.430
2020/01/31 02:40:55.4	92.700	0.630	-1.190	0.470
2020/01/31 02:40:55.5	92.690	0.620	-1.130	0.510
2020/01/31 02:40:55.6	92.680	0.600	-1.070	0.550
2020/01/31 02:40:55.7	92.670	0.580	-0.990	0.590
2020/01/31 02:40:55.8	92.660	0.560	-0.910	0.640
2020/01/31 02:40:55.9	92.650	0.530	-0.820	0.680
2020/01/31 02:40:56.0	92.640	0.500	-0.740	0.730
2020/01/31 02:40:56.1	92.640	0.460	-0.640	0.770
2020/01/31 02:40:56.2	92.630	0.420	-0.550	0.810
2020/01/31 02:40:56.3	92.630	0.380	-0.460	0.850
2020/01/31 02:40:56.4	92.620	0.340	-0.360	0.890
2020/01/31 02:40:56.5	92.620	0.300	-0.280	0.930
2020/01/31 02:40:56.6	92.620	0.260	-0.190	0.970
2020/01/31 02:40:56.7	92.620	0.210	-0.110	1.000
2020/01/31 02:40:56.8	92.620	0.170	-0.030	1.030
2020/01/31 02:40:56.9	92.620	0.130	0.040	1.060
2020/01/31 02:40:57.0	92.620	0.090	0.100	1.090
2020/01/31 02:40:57.1	92.610	0.040	0.150	1.120
2020/01/31 02:40:57.2	92.610	0.000	0.200	1.140
2020/01/31 02:40:57.3	92.600	-0.030	0.240	1.160
2020/01/31 02:40:57.4	92.600	-0.070	0.270	1.180
2020/01/31 02:40:57.5	92.600	-0.110	0.300	1.200
2020/01/31 02:40:57.6	92.590	-0.140	0.320	1.220
2020/01/31 02:40:57.7	92.590	-0.170	0.330	1.240
2020/01/31 02:40:57.8	92.580	-0.200	0.330	1.250
2020/01/31 02:40:57.9	92.570	-0.230	0.330	1.270
2020/01/31 02:40:58.0	92.560	-0.250	0.320	1.280
2020/01/31 02:40:58.1	92.550	-0.270	0.310	1.300
2020/01/31 02:40:58.2	92.540	-0.300	0.290	1.310
2020/01/31 02:40:58.3	92.520	-0.320	0.270	1.320
2020/01/31 02:40:58.4	92.510	-0.340	0.250	1.330
2020/01/31 02:40:58.5	92.500	-0.350	0.220	1.340
2020/01/31 02:40:58.6	92.490	-0.370	0.190	1.340
2020/01/31 02:40:58.7	92.480	-0.380	0.160	1.340
2020/01/31 02:40:58.8	92.470	-0.400	0.130	1.350
2020/01/31 02:40:58.9	92.460	-0.410	0.100	1.350
2020/01/31 02:40:59.0	92.450	-0.420	0.060	1.350
2020/01/31 02:40:59.1	92.450	-0.430	0.030	1.340
2020/01/31 02:40:59.2	92.440	-0.440	0.000	1.340
2020/01/31 02:40:59.3	92.430	-0.450	-0.030	1.330
2020/01/31 02:40:59.4	92.430	-0.460	-0.060	1.320
2020/01/31 02:40:59.5	92.430	-0.470	-0.080	1.300
2020/01/31 02:40:59.6	92.420	-0.480	-0.100	1.290
2020/01/31 02:40:59.7	92.430	-0.490	-0.130	1.270
2020/01/31 02:40:59.8	92.430	-0.490	-0.140	1.250
2020/01/31 02:40:59.9	92.430	-0.500	-0.160	1.230
2020/01/31 02:41:00.0	92.440	-0.510	-0.170	1.210
2020/01/31 02:41:00.1	92.450	-0.510	-0.180	1.190
2020/01/31 02:41:00.2	92.460	-0.510	-0.190	1.170
2020/01/31 02:41:00.3	92.470	-0.520	-0.190	1.140
2020/01/31 02:41:00.4	92.490	-0.520	-0.200	1.120
2020/01/31 02:41:00.5	92.500	-0.530	-0.200	1.100
2020/01/31 02:41:00.6	92.520	-0.530	-0.190	1.080
2020/01/31 02:41:00.7	92.530	-0.530	-0.190	1.060
2020/01/31 02:41:00.8	92.550	-0.540	-0.180	1.040
2020/01/31 02:41:00.9	92.570	-0.540	-0.170	1.020
2020/01/31 02:41:01.0	92.590	-0.540	-0.160	1.010
2020/01/31 02:41:01.1	92.600	-0.540	-0.160	0.990
2020/01/31 02:41:01.2	92.620	-0.540	-0.140	0.980
2020/01/31 02:41:01.3	92.630	-0.540	-0.130	0.970
2020/01/31 02:41:01.4	92.650	-0.540	-0.120	0.960
2020/01/31 02:41:01.5	92.670	-0.540	-0.110	0.960
2020/01/31 02:41:01.6	92.680	-0.540	-0.090	0.950
2020/01/31 02:41:01.7	92.690	-0.540	-0.080	0.950
2020/01/31 02:41:01.8	92.710	-0.540	-0.070	0.950
2020/01/31 02:41:01.9	92.720	-0.530	-0.060	0.940
2020/01/31 02:41:02.0	92.730	-0.530	-0.050	0.940
2020/01/31 02:41:02.1	92.740	-0.520	-0.040	0.940
2020/01/31 02:41:02.2	92.750	-0.520	-0.030	0.940
2020/01/31 02:41:02.3	92.750	-0.510	-0.030	0.930
2020/01/31 02:41:02.4	92.760	-0.500	-0.020	0.930
2020/01/31 02:41:02.5	92.760	-0.490	-0.020	0.920
2020/01/31 02:41:02.6	92.760	-0.470	-0.030	0.910
2020/01/31 02:41:02.7	92.760	-0.460	-0.030	0.900
2020/01/31 02:41:02.8	92.760	-0.440	-0.040	0.880
2020/01/31 02:41:02.9	92.750	-0.420	-0.040	0.870
2020/01/31 02:41:03.0	92.740	-0.400	-0.050	0.850
2020/01/31 02:41:03.1	92.740	-0.370	-0.070	0.820
2020/01/31 02:41:03.2	92.730	-0.350	-0.090	0.800
2020/01/31 02:41:03.3	92.720	-0.320	-0.100	0.770
2020/01/31 02:41:03.4	92.710	-0.280	-0.120	0.740
2020/01/31 02:41:03.5	92.700	-0.250	-0.150	0.710
2020/01/31 02:41:03.6	92.680	-0.210	-0.170	0.680
2020/01/31 02:41:03.7	92.670	-0.170	-0.200	0.640
2020/01/31 02:41:03.8	92.650	-0.120	-0.230	0.610
2020/01/31 02:41:03.9	92.640	-0.080	-0.260	0.570
2020/01/31 02:41:04.0	92.630	-0.020	-0.290	0.530
2020/01/31 02:41:04.1	92.610	0.030	-0.330	0.500
2020/01/31 02:41:04.2	92.600	0.080	-0.360	0.460
2020/01/31 02:41:04.3	92.590	0.140	-0.400	0.430
2020/01/31 02:41:04.4	92.570	0.200	-0.430	0.390
2020/01/31 02:41:04.5	92.560	0.260	-0.470	0.360
2020/01/31 02:41:04.6	92.540	0.320	-0.500	0.330
2020/01/31 02:41:04.7	92.530	0.390	-0.540	0.300
2020/01/31 02:41:04.8	92.520	0.450	-0.570	0.280
2020/01/31 02:41:04.9	92.510	0.520	-0.610	0.260
2020/01/31 02:41:05.0	92.490	0.580	-0.640	0.240
2020/01/31 02:41:05.1	92.480	0.640	-0.670	0.230
2020/01/31 02:41:05.2	92.470	0.700	-0.700	0.210
2020/01/31 02:41:05.3	92.460	0.760	-0.720	0.210
2020/01/31 02:41:05.4	92.440	0.820	-0.740	0.200
2020/01/31 02:41:05.5	92.430	0.870	-0.760	0.200
2020/01/31 02:41:05.6	92.420	0.920	-0.780	0.200
2020/01/31 02:41:05.7	92.400	0.970	-0.790	0.200
2020/01/31 02:41:05.8	92.390	1.010	-0.790	0.200
2020/01/31 02:41:05.9	92.380	1.040	-0.790	0.200
2020/01/31 02:41:06.0	92.360	1.070	-0.790	0.200
2020/01/31 02:41:06.1	92.340	1.100	-0.790	0.200
2020/01/31 02:41:06.2	92.330	1.120	-0.770	0.200
2020/01/31 02:41:06.3	92.320	1.130	-0.750	0.210
2020/01/31 02:41:06.4	92.310	1.130	-0.730	0.210
2020/01/31 02:41:06.5	92.290	1.130	-0.700	0.210
2020/01/31 02:41:06.6	92.280	1.120	-0.670	0.210
2020/01/31 02:41:06.7	92.270	1.110	-0.640	0.210
2020/01/31 02:41:06.8	92.260	1.090	-0.600	0.210
2020/01/31 02:41:06.9	92.250	1.060	-0.560	0.210
2020/01/31 02:41:07.0	92.240	1.030	-0.520	0.210
2020/01/31 02:41:07.1	92.230	0.990	-0.460	0.210
2020/01/31 02:41:07.2	92.230	0.950	-0.420	0.210
2020/01/31 02:41:07.3	92.220	0.900	-0.370	0.210
2020/01/31 02:41:07.4	92.210	0.850	-0.320	0.220
2020/01/31 02:41:07.5	92.210	0.790	-0.270	0.220
2020/01/31 02:41:07.6	92.200	0.730	-0.220	0.230
2020/01/31 02:41:07.7	92.200	0.670	-0.160	0.250
2020/01/31 02:41:07.8	92.200	0.600	-0.110	0.260
2020/01/31 02:41:07.9	92.200	0.530	-0.060	0.290
2020/01/31 02:41:08.0	92.200	0.470	-0.020	0.310
2020/01/31 02:41:08.1	92.190	0.400	0.020	0.340
2020/01/31 02:41:08.2	92.200	0.330	0.070	0.380
2020/01/31 02:41:08.3	92.200	0.260	0.110	0.420
2020/01/31 02:41:08.4	92.210	0.190	0.150	0.460
2020/01/31 02:41:08.5	92.210	0.120	0.180	0.510
2020/01/31 02:41:08.6	92.220	0.050	0.220	0.560
2020/01/31 02:41:08.7	92.230	-0.010	0.250	0.620
2020/01/31 02:41:08.8	92.240	-0.080	0.280	0.670
2020/01/31 02:41:08.9	92.250	-0.140	0.300	0.730
2020/01/31 02:41:09.0	92.260	-0.200	0.320	0.800
2020/01/31 02:41:09.1	92.290	-0.250	0.350	0.870
2020/01/31 02:41:09.2	92.310	-0.310	0.360	0.930
2020/01/31 02:41:09.3	92.320	-0.360	0.370	1.000
2020/01/31 02:41:09.4	92.340	-0.400	0.370	1.060
2020/01/31 02:41:09.5	92.350	-0.450	0.380	1.130
2020/01/31 02:41:09.6	92.370	-0.490	0.370	1.190
2020/01/31 02:41:09.7	92.380	-0.520	0.370	1.260
2020/01/31 02:41:09.8	92.400	-0.560	0.360	1.320
2020/01/31 02:41:09.9	92.410	-0.590	0.350	1.380
2020/01/31 02:41:10.0	92.430	-0.610	0.330	1.440
2020/01/31 02:41:10.1	92.450	-0.640	0.310	1.490
2020/01/31 02:41:10.2	92.460	-0.660	0.280	1.540
2020/01/31 02:41:10.3	92.470	-0.680	0.260	1.590
2020/01/31 02:41:10.4	92.480	-0.690	0.230	1.630
2020/01/31 02:41:10.5	92.480	-0.710	0.210	1.670
2020/01/31 02:41:10.6	92.490	-0.720	0.180	1.710
2020/01/31 02:41:10.7	92.500	-0.730	0.150	1.740
2020/01/31 02:41:10.8	92.500	-0.730	0.120	1.770
2020/01/31 02:41:10.9	92.500	-0.740	0.090	1.790
2020/01/31 02:41:11.0	92.500	-0.740	0.060	1.810
2020/01/31 02:41:11.1	92.500	-0.740	0.030	1.820
2020/01/31 02:41:11.2	92.500	-0.750	0.000	1.830
2020/01/31 02:41:11.3	92.500	-0.740	-0.020	1.840
2020/01/31 02:41:11.4	92.490	-0.740	-0.040	1.840
2020/01/31 02:41:11.5	92.490	-0.740	-0.070	1.840
2020/01/31 02:41:11.6	92.490	-0.730	-0.080	1.840
2020/01/31 02:41:11.7	92.490	-0.730	-0.100	1.840
2020/01/31 02:41:11.8	92.490	-0.720	-0.110	1.830
2020/01/31 02:41:11.9	92.490	-0.710	-0.130	1.810
2020/01/31 02:41:12.0	92.490	-0.700	-0.140	1.800
2020/01/31 02:41:12.1	92.490	-0.690	-0.140	1.780
2020/01/31 02:41:12.2	92.490	-0.680	-0.150	1.750
2020/01/31 02:41:12.3	92.490	-0.670	-0.150	1.730
2020/01/31 02:41:12.4	92.500	-0.650	-0.160	1.700
2020/01/31 02:41:12.5	92.500	-0.640	-0.160	1.670
2020/01/31 02:41:12.6	92.510	-0.620	-0.160	1.640
2020/01/31 02:41:12.7	92.520	-0.600	-0.160	1.600
2020/01/31 02:41:12.8	92.530	-0.570	-0.170	1.570
2020/01/31 02:41:12.9	92.540	-0.550	-0.180	1.520
2020/01/31 02:41:13.0	92.560	-0.520	-0.180	1.480
2020/01/31 02:41:13.1	92.570	-0.490	-0.190	1.440
2020/01/31 02:41:13.2	92.590	-0.450	-0.210	1.390
2020/01/31 02:41:13.3	92.610	-0.410	-0.230	1.340
2020/01/31 02:41:13.4	92.630	-0.370	-0.250	1.280
2020/01/31 02:41:13.5	92.660	-0.330	-0.270	1.230
2020/01/31 02:41:13.6	92.680	-0.280	-0.300	1.170
2020/01/31 02:41:13.7	92.700	-0.230	-0.330	1.110
2020/01/31 02:41:13.8	92.720	-0.180	-0.370	1.050
2020/01/31 02:41:13.9	92.750	-0.130	-0.410	1.000
2020/01/31 02:41:14.0	92.770	-0.070	-0.450	0.940
2020/01/31 02:41:14.1	92.790	-0.010	-0.500	0.870
2020/01/31 02:41:14.2	92.800	0.060	-0.540	0.810
2020/01/31 02:41:14.3	92.820	0.120	-0.590	0.760
2020/01/31 02:41:14.4	92.830	0.180	-0.640	0.700
2020/01/31 02:41:14.5	92.840	0.250	-0.690	0.640
2020/01/31 02:41:14.6	92.850	0.310	-0.730	0.590
2020/01/31 02:41:14.7	92.850	0.380	-0.780	0.540
2020/01/31 02:41:14.8	92.850	0.440	-0.820	0.490
2020/01/31 02:41:14.9	92.840	0.500	-0.850	0.440
2020/01/31 02:41:15.0	92.830	0.560	-0.880	0.400
2020/01/31 02:41:15.1	92.810	0.610	-0.910	0.360
2020/01/31 02:41:15.2	92.800	0.660	-0.930	0.320
2020/01/31 02:41:15.3	92.770	0.710	-0.940	0.290
2020/01/31 02:41:15.4	92.750	0.750	-0.940	0.260
2020/01/31 02:41:15.5	92.720	0.780	-0.930	0.240
2020/01/31 02:41:15.6	92.680	0.810	-0.920	0.220
2020/01/31 02:41:15.7	92.650	0.830	-0.900	0.200
2020/01/31 02:41:15.8	92.610	0.840	-0.870	0.180
2020/01/31 02:41:15.9	92.570	0.850	-0.830	0.170
2020/01/31 02:41:16.0	92.520	0.850	-0.780	0.160
2020/01/31 02:41:16.1	92.480	0.840	-0.730	0.160
2020/01/31 02:41:16.2	92.440	0.830	-0.670	0.160
2020/01/31 02:41:16.3	92.390	0.810	-0.600	0.160
2020/01/31 02:41:16.4	92.340	0.780	-0.540	0.160
2020/01/31 02:41:16.5	92.290	0.740	-0.460	0.160
2020/01/31 02:41:16.6	92.240	0.700	-0.380	0.170
2020/01/31 02:41:16.7	92.190	0.660	-0.300	0.180
2020/01/31 02:41:16.8	92.140	0.610	-0.220	0.190
2020/01/31 02:41:16.9	92.100	0.550	-0.130	0.200
2020/01/31 02:41:17.0	92.060	0.490	-0.050	0.210
2020/01/31 02:41:17.1	92.020	0.430	0.030	0.220
2020/01/31 02:41:17.2	91.980	0.360	0.110	0.230
2020/01/31 02:41:17.3	91.950	0.300	0.190	0.240
2020/01/31 02:41:17.4	91.920	0.230	0.260	0.250
2020/01/31 02:41:17.5	91.900	0.160	0.320	0.270
2020/01/31 02:41:17.6	91.880	0.090	0.380	0.270
2020/01/31 02:41:17.7	91.860	0.020	0.430	0.280
2020/01/31 02:41:17.8	91.850	-0.040	0.460	0.290
2020/01/31 02:41:17.9	91.840	-0.100	0.490	0.300
2020/01/31 02:41:18.0	91.840	-0.160	0.510	0.310
2020/01/31 02:41:18.1	91.830	-0.220	0.520	0.310
2020/01/31 02:41:18.2	91.840	-0.270	0.520	0.320
2020/01/31 02:41:18.3	91.850	-0.320	0.510	0.320
2020/01/31 02:41:18.4	91.860	-0.360	0.490	0.330
2020/01/31 02:41:18.5	91.870	-0.390	0.460	0.340
2020/01/31 02:41:18.6	91.890	-0.420	0.410	0.340
2020/01/31 02:41:18.7	91.910	-0.450	0.360	0.350
2020/01/31 02:41:18.8	91.930	-0.470	0.310	0.360
2020/01/31 02:41:18.9	91.950	-0.480	0.240	0.370
2020/01/31 02:41:19.0	91.980	-0.490	0.170	0.370
2020/01/31 02:41:19.1	91.990	-0.490	0.090	0.380
2020/01/31 02:41:19.2	92.020	-0.490	0.020	0.390
2020/01/31 02:41:19.3	92.040	-0.480	-0.060	0.400
2020/01/31 02:41:19.4	92.070	-0.470	-0.140	0.410
2020/01/31 02:41:19.5	92.100	-0.460	-0.220	0.420
2020/01/31 02:41:19.6	92.130	-0.440	-0.290	0.440
2020/01/31 02:41:19.7	92.150	-0.420	-0.360	0.450
2020/01/31 02:41:19.8	92.180	-0.400	-0.420	0.470
2020/01/31 02:41:19.9	92.200	-0.380	-0.480	0.490
2020/01/31 02:41:20.0	92.220	-0.350	-0.540	0.510
2020/01/31 02:41:20.1	92.250	-0.330	-0.590	0.540
2020/01/31 02:41:20.2	92.270	-0.300	-0.620	0.570
2020/01/31 02:41:20.3	92.290	-0.270	-0.650	0.600
2020/01/31 02:41:20.4	92.300	-0.250	-0.680	0.630
2020/01/31 02:41:20.5	92.320	-0.220	-0.690	0.670
2020/01/31 02:41:20.6	92.330	-0.190	-0.700	0.710
2020/01/31 02:41:20.7	92.340	-0.170	-0.690	0.750
2020/01/31 02:41:20.8	92.350	-0.140	-0.680	0.800
2020/01/31 02:41:20.9	92.350	-0.120	-0.660	0.850
2020/01/31 02:41:21.0	92.360	-0.100	-0.640	0.900
2020/01/31 02:41:21.1	92.350	-0.080	-0.600	0.950
2020/01/31 02:41:21.2	92.350	-0.060	-0.560	1.000
2020/01/31 02:41:21.3	92.350	-0.050	-0.520	1.050
2020/01/31 02:41:21.4	92.350	-0.030	-0.470	1.110
2020/01/31 02:41:21.5	92.350	-0.020	-0.420	1.160
2020/01/31 02:41:21.6	92.340	-0.010	-0.370	1.220
2020/01/31 02:41:21.7	92.340	-0.000	-0.310	1.280
2020/01/31 02:41:21.8	92.330	0.000	-0.250	1.330
2020/01/31 02:41:21.9	92.320	0.010	-0.200	1.380
2020/01/31 02:41:22.0	92.320	0.010	-0.140	1.440
2020/01/31 02:41:22.1	92.290	0.010	-0.080	1.490
2020/01/31 02:41:22.2	92.270	0.010	-0.030	1.540
2020/01/31 02:41:22.3	92.260	0.010	0.020	1.580
2020/01/31 02:41:22.4	92.250	0.010	0.070	1.630
2020/01/31 02:41:22.5	92.230	0.010	0.120	1.670
2020/01/31 02:41:22.6	92.210	0.000	0.160	1.700
2020/01/31 02:41:22.7	92.190	0.000	0.190	1.730
2020/01/31 02:41:22.8	92.170	-0.000	0.220	1.760
2020/01/31 02:41:22.9	92.140	-0.010	0.250	1.780
2020/01/31 02:41:23.0	92.120	-0.010	0.260	1.790
2020/01/31 02:41:23.1	92.090	-0.010	0.280	1.800
2020/01/31 02:41:23.2	92.070	-0.020	0.280	1.800
2020/01/31 02:41:23.3	92.040	-0.020	0.280	1.790
2020/01/31 02:41:23.4	92.020	-0.020	0.260	1.770
2020/01/31 02:41:23.5	91.990	-0.020	0.250	1.750
2020/01/31 02:41:23.6	91.970	-0.020	0.220	1.720
2020/01/31 02:41:23.7	91.950	-0.010	0.190	1.690
2020/01/31 02:41:23.8	91.930	-0.010	0.150	1.640
2020/01/31 02:41:23.9	91.900	0.000	0.100	1.590
2020/01/31 02:41:24.0	91.890	0.010	0.050	1.540
2020/01/31 02:41:24.1	91.870	0.020	-0.000	1.470
2020/01/31 02:41:24.2	91.850	0.030	-0.060	1.410
2020/01/31 02:41:24.3	91.840	0.050	-0.120	1.340
2020/01/31 02:41:24.4	91.830	0.060	-0.180	1.270
2020/01/31 02:41:24.5	91.820	0.080	-0.250	1.200
2020/01/31 02:41:24.6	91.820	0.100	-0.310	1.130
2020/01/31 02:41:24.7	91.810	0.120	-0.380	1.060
2020/01/31 02:41:24.8	91.810	0.140	-0.440	0.990
2020/01/31 02:41:24.9	91.810	0.160	-0.500	0.920
2020/01/31 02:41:25.0	91.820	0.180	-0.550	0.850
2020/01/31 02:41:25.1	91.820	0.200	-0.610	0.790
2020/01/31 02:41:25.2	91.830	0.220	-0.650	0.730
2020/01/31 02:41:25.3	91.840	0.240	-0.690	0.670
2020/01/31 02:41:25.4	91.840	0.260	-0.720	0.620
2020/01/31 02:41:25.5	91.850	0.280	-0.750	0.580
2020/01/31 02:41:25.6	91.870	0.300	-0.770	0.540
2020/01/31 02:41:25.7	91.880	0.320	-0.780	0.500
2020/01/31 02:41:25.8	91.890	0.340	-0.790	0.470
2020/01/31 02:41:25.9	91.910	0.350	-0.780	0.440
2020/01/31 02:41:26.0	91.930	0.360	-0.770	0.420
2020/01/31 02:41:26.1	91.940	0.370	-0.750	0.400
2020/01/31 02:41:26.2	91.960	0.380	-0.730	0.380
2020/01/31 02:41:26.3	91.980	0.390	-0.690	0.370
2020/01/31 02:41:26.4	91.990	0.390	-0.660	0.360
2020/01/31 02:41:26.5	92.010	0.390	-0.610	0.360
2020/01/31 02:41:26.6	92.030	0.380	-0.570	0.360
2020/01/31 02:41:26.7	92.050	0.380	-0.520	0.360
2020/01/31 02:41:26.8	92.060	0.370	-0.460	0.360
2020/01/31 02:41:26.9	92.080	0.360	-0.410	0.370
2020/01/31 02:41:27.0	92.090	0.350	-0.350	0.380
2020/01/31 02:41:27.1	92.110	0.330	-0.290	0.380
2020/01/31 02:41:27.2	92.120	0.310	-0.240	0.390
2020/01/31 02:41:27.3	92.130	0.290	-0.180	0.410
2020/01/31 02:41:27.4	92.140	0.270	-0.130	0.420
2020/01/31 02:41:27.5	92.140	0.250	-0.080	0.430
2020/01/31 02:41:27.6	92.150	0.220	-0.030	0.450
2020/01/31 02:41:27.7	92.150	0.190	0.010	0.460
2020/01/31 02:41:27.8	92.150	0.160	0.050	0.480
2020/01/31 02:41:27.9	92.150	0.130	0.090	0.490
2020/01/31 02:41:28.0	92.150	0.100	0.120	0.510
2020/01/31 02:41:28.1	92.150	0.070	0.150	0.530
2020/01/31 02:41:28.2	92.140	0.030	0.180	0.550
2020/01/31 02:41:28.3	92.140	-0.000	0.200	0.570
2020/01/31 02:41:28.4	92.130	-0.040	0.220	0.590
2020/01/31 02:41:28.5	92.130	-0.080	0.240	0.610
2020/01/31 02:41:28.6	92.120	-0.110	0.250	0.630
2020/01/31 02:41:28.7	92.110	-0.150	0.270	0.660
2020/01/31 02:41:28.8	92.110	-0.190	0.270	0.680
2020/01/31 02:41:28.9	92.100	-0.230	0.280	0.700
2020/01/31 02:41:29.0	92.090	-0.270	0.280	0.720
2020/01/31 02:41:29.1	92.090	-0.300	0.290	0.750
2020/01/31 02:41:29.2	92.080	-0.340	0.290	0.770
2020/01/31 02:41:29.3	92.070	-0.380	0.290	0.790
2020/01/31 02:41:29.4	92.070	-0.410	0.290	0.820
2020/01/31 02:41:29.5	92.060	-0.450	0.280	0.840
2020/01/31 02:41:29.6	92.050	-0.480	0.280	0.870
2020/01/31 02:41:29.7	92.050	-0.510	0.280	0.890
2020/01/31 02:41:29.8	92.040	-0.530	0.270	0.910
2020/01/31 02:41:29.9	92.030	-0.560	0.270	0.930
2020/01/31 02:41:30.0	92.030	-0.580	0.260	0.950
2020/01/31 02:41:30.1	92.020	-0.600	0.250	0.980
2020/01/31 02:41:30.2	92.020	-0.620	0.240	0.990
2020/01/31 02:41:30.3	92.020	-0.630	0.230	1.000
2020/01/31 02:41:30.4	92.020	-0.640	0.220	1.010
2020/01/31 02:41:30.5	92.020	-0.640	0.200	1.020
2020/01/31 02:41:30.6	92.020	-0.640	0.180	1.020
2020/01/31 02:41:30.7	92.030	-0.640	0.160	1.020
2020/01/31 02:41:30.8	92.030	-0.630	0.130	1.020
2020/01/31 02:41:30.9	92.040	-0.620	0.100	1.010
2020/01/31 02:41:31.0	92.040	-0.600	0.070	1.000
2020/01/31 02:41:31.1	92.060	-0.580	0.030	0.970
2020/01/31 02:41:31.2	92.070	-0.550	-0.010	0.950
2020/01/31 02:41:31.3	92.080	-0.520	-0.060	0.930
2020/01/31 02:41:31.4	92.090	-0.480	-0.120	0.900
2020/01/31 02:41:31.5	92.110	-0.440	-0.170	0.870
2020/01/31 02:41:31.6	92.130	-0.400	-0.240	0.840
2020/01/31 02:41:31.7	92.150	-0.340	-0.300	0.810
2020/01/31 02:41:31.8	92.160	-0.290	-0.380	0.770
2020/01/31 02:41:31.9	92.180	-0.230	-0.450	0.740
2020/01/31 02:41:32.0	92.200	-0.170	-0.530	0.700
2020/01/31 02:41:32.1	92.210	-0.100	-0.610	0.670
2020/01/31 02:41:32.2	92.230	-0.040	-0.700	0.640
2020/01/31 02:41:32.3	92.250	0.040	-0.780	0.600
2020/01/31 02:41:32.4	92.260	0.110	-0.870	0.570
2020/01/31 02:41:32.5	92.280	0.180	-0.950	0.550
2020/01/31 02:41:32.6	92.290	0.250	-1.030	0.520
2020/01/31 02:41:32.7	92.310	0.330	-1.110	0.500
2020/01/31 02:41:32.8	92.320	0.400	-1.190	0.480
2020/01/31 02:41:32.9	92.330	0.470	-1.250	0.470
2020/01/31 02:41:33.0	92.340	0.540	-1.320	0.460
2020/01/31 02:41:33.1	92.340	0.610	-1.370	0.440
2020/01/31 02:41:33.2	92.350	0.670	-1.420	0.440
2020/01/31 02:41:33.3	92.360	0.720	-1.450	0.440
2020/01/31 02:41:33.4	92.360	0.780	-1.480	0.440
2020/01/31 02:41:33.5	92.360	0.820	-1.490	0.450
2020/01/31 02:41:33.6	92.370	0.860	-1.490	0.460
2020/01/31 02:41:33.7	92.370	0.890	-1.480	0.470
2020/01/31 02:41:33.8	92.360	0.920	-1.450	0.490
2020/01/31 02:41:33.9	92.360	0.940	-1.410	0.510
2020/01/31 02:41:34.0	92.350	0.950	-1.360	0.530
2020/01/31 02:41:34.1	92.350	0.950	-1.300	0.560
2020/01/31 02:41:34.2	92.340	0.940	-1.230	0.590
2020/01/31 02:41:34.3	92.330	0.930	-1.140	0.610
2020/01/31 02:41:34.4	92.320	0.910	-1.040	0.640
2020/01/31 02:41:34.5	92.310	0.880	-0.930	0.670
2020/01/31 02:41:34.6	92.300	0.840	-0.820	0.690
2020/01/31 02:41:34.7	92.290	0.800	-0.690	0.720
2020/01/31 02:41:34.8	92.280	0.740	-0.560	0.750
2020/01/31 02:41:34.9	92.260	0.690	-0.420	0.770
2020/01/31 02:41:35.0	92.250	0.620	-0.280	0.800
2020/01/31 02:41:35.1	92.230	0.550	-0.130	0.820
2020/01/31 02:41:35.2	92.210	0.480	0.020	0.840
2020/01/31 02:41:35.3	92.200	0.400	0.170	0.870
2020/01/31 02:41:35.4	92.180	0.320	0.310	0.890
2020/01/31 02:41:35.5	92.170	0.240	0.450	0.910
2020/01/31 02:41:35.6	92.150	0.150	0.590	0.930
2020/01/31 02:41:35.7	92.130	0.070	0.720	0.950
2020/01/31 02:41:35.8	92.120	-0.020	0.840	0.970
2020/01/31 02:41:35.9	92.100	-0.100	0.950	0.990
2020/01/31 02:41:36.0	92.080	-0.190	1.060	1.000
2020/01/31 02:41:36.1	92.070	-0.270	1.150	1.010
2020/01/31 02:41:36.2	92.050	-0.350	1.240	1.020
2020/01/31 02:41:36.3	92.030	-0.430	1.310	1.030
2020/01/31 02:41:36.4	92.020	-0.500	1.360	1.040
2020/01/31 02:41:36.5	92.000	-0.570	1.410	1.040
2020/01/31 02:41:36.6	91.990	-0.630	1.440	1.040
2020/01/31 02:41:36.7	91.980	-0.690	1.460	1.040
2020/01/31 02:41:36.8	91.970	-0.750	1.460	1.040
2020/01/31 02:41:36.9	91.960	-0.790	1.450	1.030
2020/01/31 02:41:37.0	91.950	-0.830	1.420	1.010
2020/01/31 02:41:37.1	91.940	-0.870	1.390	1.000
2020/01/31 02:41:37.2	91.940	-0.890	1.330	0.980
2020/01/31 02:41:37.3	91.940	-0.910	1.260	0.950
2020/01/31 02:41:37.4	91.940	-0.930	1.180	0.930
2020/01/31 02:41:37.5	91.940	-0.930	1.090	0.890
2020/01/31 02:41:37.6	91.950	-0.930	0.980	0.860
2020/01/31 02:41:37.7	91.950	-0.920	0.870	0.820
2020/01/31 02:41:37.8	91.960	-0.900	0.740	0.790
2020/01/31 02:41:37.9	91.970	-0.880	0.610	0.750
2020/01/31 02:41:38.0	91.980	-0.850	0.470	0.710
2020/01/31 02:41:38.1	92.010	-0.820	0.310	0.670
2020/01/31 02:41:38.2	92.020	-0.780	0.160	0.630
2020/01/31 02:41:38.3	92.040	-0.730	0.010	0.590
2020/01/31 02:41:38.4	92.050	-0.680	-0.140	0.560
2020/01/31 02:41:38.5	92.070	-0.620	-0.290	0.530
2020/01/31 02:41:38.6	92.090	-0.570	-0.440	0.500
2020/01/31 02:41:38.7	92.100	-0.510	-0.580	0.470
2020/01/31 02:41:38.8	92.120	-0.440	-0.720	0.450
2020/01/31 02:41:38.9	92.130	-0.380	-0.850	0.430
2020/01/31 02:41:39.0	92.150	-0.310	-0.970	0.410
2020/01/31 02:41:39.1	92.150	-0.250	-1.090	0.390
2020/01/31 02:41:39.2	92.170	-0.180	-1.190	0.380
2020/01/31 02:41:39.3	92.180	-0.120	-1.280	0.370
2020/01/31 02:41:39.4	92.190	-0.060	-1.360	0.370
2020/01/31 02:41:39.5	92.200	0.010	-1.420	0.370
2020/01/31 02:41:39.6	92.210	0.060	-1.480	0.370
2020/01/31 02:41:39.7	92.220	0.120	-1.520	0.370
2020/01/31 02:41:39.8	92.230	0.170	-1.550	0.380
2020/01/31 02:41:39.9	92.240	0.220	-1.560	0.390
2020/01/31 02:41:40.0	92.240	0.270	-1.570	0.410
2020/01/31 02:41:40.1	92.240	0.310	-1.560	0.430
2020/01/31 02:41:40.2	92.240	0.350	-1.530	0.450
2020/01/31 02:41:40.3	92.240	0.380	-1.500	0.470
2020/01/31 02:41:40.4	92.240	0.410	-1.460	0.500
2020/01/31 02:41:40.5	92.240	0.430	-1.410	0.530
2020/01/31 02:41:40.6	92.230	0.450	-1.350	0.550
2020/01/31 02:41:40.7	92.230	0.460	-1.270	0.580
2020/01/31 02:41:40.8	92.220	0.470	-1.200	0.620
2020/01/31 02:41:40.9	92.210	0.480	-1.110	0.650
2020/01/31 02:41:41.0	92.200	0.480	-1.020	0.680
2020/01/31 02:41:41.1	92.190	0.470	-0.920	0.710
2020/01/31 02:41:41.2	92.170	0.470	-0.820	0.740
2020/01/31 02:41:41.3	92.160	0.460	-0.720	0.770
2020/01/31 02:41:41.4	92.140	0.440	-0.610	0.810
2020/01/31 02:41:41.5	92.120	0.420	-0.500	0.840
2020/01/31 02:41:41.6	92.100	0.400	-0.400	0.870
2020/01/31 02:41:41.7	92.080	0.380	-0.290	0.890
2020/01/31 02:41:41.8	92.060	0.350	-0.180	0.920
2020/01/31 02:41:41.9	92.040	0.320	-0.080	0.950
2020/01/31 02:41:42.0	92.020	0.290	0.020	0.970
2020/01/31 02:41:42.1	92.010	0.260	0.120	0.990
2020/01/31 02:41:42.2	91.990	0.220	0.210	1.010
2020/01/31 02:41:42.3	91.970	0.190	0.290	1.030
2020/01/31 02:41:42.4	91.950	0.160	0.370	1.040
2020/01/31 02:41:42.5	91.930	0.120	0.440	1.040
2020/01/31 02:41:42.6	91.910	0.090	0.500	1.050
2020/01/31 02:41:42.7	91.890	0.060	0.550	1.050
2020/01/31 02:41:42.8	91.880	0.030	0.590	1.050
2020/01/31 02:41:42.9	91.860	-0.000	0.630	1.040
2020/01/31 02:41:43.0	91.850	-0.030	0.650	1.030
2020/01/31 02:41:43.1	91.840	-0.050	0.660	1.010
2020/01/31 02:41:43.2	91.830	-0.070	0.660	0.990
2020/01/31 02:41:43.3	91.820	-0.090	0.660	0.970
2020/01/31 02:41:43.4	91.810	-0.100	0.640	0.940
2020/01/31 02:41:43.5	91.800	-0.110	0.610	0.910
2020/01/31 02:41:43.6	91.790	-0.120	0.570	0.880
2020/01/31 02:41:43.7	91.780	-0.120	0.520	0.850
2020/01/31 02:41:43.8	91.780	-0.110	0.470	0.810
2020/01/31 02:41:43.9	91.770	-0.110	0.410	0.770
2020/01/31 02:41:44.0	91.770	-0.090	0.340	0.730
2020/01/31 02:41:44.1	91.780	-0.080	0.260	0.690
2020/01/31 02:41:44.2	91.770	-0.060	0.180	0.650
2020/01/31 02:41:44.3	91.770	-0.040	0.100	0.620
2020/01/31 02:41:44.4	91.770	-0.010	0.020	0.580
2020/01/31 02:41:44.5	91.770	0.020	-0.070	0.540
2020/01/31 02:41:44.6	91.770	0.050	-0.150	0.510
2020/01/31 02:41:44.7	91.770	0.080	-0.230	0.480
2020/01/31 02:41:44.8	91.780	0.120	-0.310	0.460
2020/01/31 02:41:44.9	91.780	0.150	-0.390	0.430
2020/01/31 02:41:45.0	91.780	0.190	-0.470	0.410
2020/01/31 02:41:45.1	91.790	0.220	-0.540	0.390
2020/01/31 02:41:45.2	91.800	0.250	-0.600	0.380
2020/01/31 02:41:45.3	91.800	0.280	-0.660	0.370
2020/01/31 02:41:45.4	91.810	0.310	-0.710	0.370
2020/01/31 02:41:45.5	91.820	0.340	-0.750	0.360
2020/01/31 02:41:45.6	91.830	0.360	-0.780	0.360
2020/01/31 02:41:45.7	91.840	0.380	-0.810	0.360
2020/01/31 02:41:45.8	91.850	0.400	-0.830	0.370
2020/01/31 02:41:45.9	91.860	0.410	-0.840	0.370
2020/01/31 02:41:46.0	91.880	0.410	-0.840	0.380
2020/01/31 02:41:46.1	91.880	0.420	-0.840	0.390
2020/01/31 02:41:46.2	91.900	0.420	-0.820	0.390
2020/01/31 02:41:46.3	91.910	0.410	-0.800	0.400
2020/01/31 02:41:46.4	91.930	0.400	-0.780	0.410
2020/01/31 02:41:46.5	91.940	0.380	-0.750	0.420
2020/01/31 02:41:46.6	91.960	0.360	-0.710	0.430
2020/01/31 02:41:46.7	91.970	0.340	-0.670	0.440
2020/01/31 02:41:46.8	91.990	0.320	-0.620	0.450
2020/01/31 02:41:46.9	92.000	0.290	-0.570	0.470
2020/01/31 02:41:47.0	92.020	0.250	-0.520	0.480
2020/01/31 02:41:47.1	92.030	0.220	-0.460	0.500
2020/01/31 02:41:47.2	92.040	0.180	-0.400	0.520
2020/01/31 02:41:47.3	92.050	0.140	-0.340	0.540
2020/01/31 02:41:47.4	92.060	0.090	-0.280	0.560
2020/01/31 02:41:47.5	92.070	0.050	-0.210	0.590
2020/01/31 02:41:47.6	92.070	0.010	-0.150	0.620
2020/01/31 02:41:47.7	92.080	-0.040	-0.090	0.650
2020/01/31 02:41:47.8	92.080	-0.080	-0.030	0.690
2020/01/31 02:41:47.9	92.080	-0.130	0.030	0.720
2020/01/31 02:41:48.0	92.070	-0.170	0.090	0.760
2020/01/31 02:41:48.1	92.060	-0.220	0.150	0.810
2020/01/31 02:41:48.2	92.060	-0.260	0.210	0.850
2020/01/31 02:41:48.3	92.050	-0.300	0.260	0.890
2020/01/31 02:41:48.4	92.050	-0.340	0.310	0.940
2020/01/31 02:41:48.5	92.040	-0.380	0.350	0.980
2020/01/31 02:41:48.6	92.030	-0.420	0.390	1.030
2020/01/31 02:41:48.7	92.030	-0.450	0.430	1.070
2020/01/31 02:41:48.8	92.020	-0.480	0.460	1.110
2020/01/31 02:41:48.9	92.020	-0.510	0.490	1.150
2020/01/31 02:41:49.0	92.010	-0.540	0.510	1.190
2020/01/31 02:41:49.1	92.020	-0.560	0.530	1.220
2020/01/31 02:41:49.2	92.010	-0.590	0.540	1.250
2020/01/31 02:41:49.3	92.010	-0.600	0.550	1.280
2020/01/31 02:41:49.4	92.010	-0.620	0.560	1.310
2020/01/31 02:41:49.5	92.010	-0.630	0.550	1.330
2020/01/31 02:41:49.6	92.010	-0.640	0.540	1.350
2020/01/31 02:41:49.7	92.010	-0.650	0.530	1.360
2020/01/31 02:41:49.8	92.010	-0.650	0.500	1.370
2020/01/31 02:41:49.9	92.010	-0.650	0.470	1.380
2020/01/31 02:41:50.0	92.010	-0.640	0.440	1.390
2020/01/31 02:41:50.1	92.010	-0.630	0.390	1.390
2020/01/31 02:41:50.2	92.020	-0.620	0.340	1.390
2020/01/31 02:41:50.3	92.020	-0.600	0.290	1.390
2020/01/31 02:41:50.4	92.020	-0.580	0.230	1.390
2020/01/31 02:41:50.5	92.020	-0.550	0.160	1.380
2020/01/31 02:41:50.6	92.020	-0.530	0.100	1.380
2020/01/31 02:41:50.7	92.020	-0.490	0.020	1.370
2020/01/31 02:41:50.8	92.020	-0.460	-0.050	1.360
2020/01/31 02:41:50.9	92.020	-0.420	-0.130	1.340
2020/01/31 02:41:51.0	92.020	-0.380	-0.200	1.330
2020/01/31 02:41:51.1	92.010	-0.340	-0.280	1.310
2020/01/31 02:41:51.2	92.010	-0.300	-0.360	1.290
2020/01/31 02:41:51.3	92.000	-0.250	-0.430	1.270
2020/01/31 02:41:51.4	92.000	-0.210	-0.500	1.250
2020/01/31 02:41:51.5	91.990	-0.160	-0.570	1.230
2020/01/31 02:41:51.6	91.990	-0.110	-0.640	1.210
2020/01/31 02:41:51.7	91.980	-0.060	-0.700	1.180
2020/01/31 02:41:51.8	91.970	-0.010	-0.760	1.160
2020/01/31 02:41:51.9	91.960	0.040	-0.810	1.140
2020/01/31 02:41:52.0	91.950	0.080	-0.860	1.120
2020/01/31 02:41:52.1	91.950	0.130	-0.900	1.090
2020/01/31 02:41:52.2	91.930	0.170	-0.940	1.070
2020/01/31 02:41:52.3	91.920	0.220	-0.970	1.050
2020/01/31 02:41:52.4	91.910	0.260	-1.000	1.020
2020/01/31 02:41:52.5	91.900	0.300	-1.020	1.000
2020/01/31 02:41:52.6	91.880	0.330	-1.030	0.980
2020/01/31 02:41:52.7	91.870	0.370	-1.040	0.960
2020/01/31 02:41:52.8	91.860	0.400	-1.040	0.930
2020/01/31 02:41:52.9	91.840	0.430	-1.040	0.910
2020/01/31 02:41:53.0	91.830	0.450	-1.030	0.890
2020/01/31 02:41:53.1	91.830	0.470	-1.020	0.870
2020/01/31 02:41:53.2	91.820	0.490	-1.000	0.840
2020/01/31 02:41:53.3	91.810	0.510	-0.980	0.820
2020/01/31 02:41:53.4	91.800	0.520	-0.960	0.800
2020/01/31 02:41:53.5	91.790	0.530	-0.930	0.770
2020/01/31 02:41:53.6	91.780	0.530	-0.890	0.750
2020/01/31 02:41:53.7	91.780	0.530	-0.850	0.730
2020/01/31 02:41:53.8	91.770	0.530	-0.810	0.700
2020/01/31 02:41:53.9	91.770	0.530	-0.770	0.670
2020/01/31 02:41:54.0	91.770	0.520	-0.720	0.650
2020/01/31 02:41:54.1	91.780	0.510	-0.670	0.620
2020/01/31 02:41:54.2	91.780	0.500	-0.620	0.600
2020/01/31 02:41:54.3	91.780	0.490	-0.570	0.570
2020/01/31 02:41:54.4	91.790	0.470	-0.510	0.540
2020/01/31 02:41:54.5	91.790	0.450	-0.450	0.520
2020/01/31 02:41:54.6	91.800	0.430	-0.390	0.490
2020/01/31 02:41:54.7	91.810	0.410	-0.330	0.470
2020/01/31 02:41:54.8	91.810	0.390	-0.270	0.440
2020/01/31 02:41:54.9	91.820	0.360	-0.200	0.420
2020/01/31 02:41:55.0	91.830	0.340	-0.140	0.400
2020/01/31 02:41:55.1	91.840	0.310	-0.080	0.370
2020/01/31 02:41:55.2	91.850	0.290	-0.020	0.360
2020/01/31 02:41:55.3	91.860	0.260	0.050	0.340
2020/01/31 02:41:55.4	91.870	0.230	0.110	0.330
2020/01/31 02:41:55.5	91.880	0.200	0.170	0.320
2020/01/31 02:41:55.6	91.890	0.170	0.230	0.320
2020/01/31 02:41:55.7	91.890	0.150	0.290	0.320
2020/01/31 02:41:55.8	91.900	0.120	0.350	0.320
2020/01/31 02:41:55.9	91.900	0.090	0.400	0.320
2020/01/31 02:41:56.0	91.910	0.060	0.450	0.330
2020/01/31 02:41:56.1	91.910	0.030	0.500	0.340
2020/01/31 02:41:56.2	91.910	0.010	0.540	0.350
2020/01/31 02:41:56.3	91.910	-0.020	0.570	0.360
2020/01/31 02:41:56.4	91.910	-0.050	0.600	0.380
2020/01/31 02:41:56.5	91.900	-0.070	0.630	0.400
2020/01/31 02:41:56.6	91.900	-0.090	0.650	0.410
2020/01/31 02:41:56.7	91.890	-0.110	0.660	0.430
2020/01/31 02:41:56.8	91.890	-0.130	0.660	0.450
2020/01/31 02:41:56.9	91.880	-0.150	0.660	0.470
2020/01/31 02:41:57.0	91.870	-0.160	0.650	0.480
2020/01/31 02:41:57.1	91.850	-0.170	0.630	0.500
2020/01/31 02:41:57.2	91.840	-0.180	0.600	0.520
2020/01/31 02:41:57.3	91.830	-0.190	0.560	0.530
2020/01/31 02:41:57.4	91.820	-0.190	0.520	0.550
2020/01/31 02:41:57.5	91.800	-0.190	0.470	0.560
2020/01/31 02:41:57.6	91.790	-0.180	0.410	0.580
2020/01/31 02:41:57.7	91.780	-0.180	0.340	0.600
2020/01/31 02:41:57.8	91.760	-0.170	0.270	0.610
2020/01/31 02:41:57.9	91.750	-0.160	0.190	0.630
2020/01/31 02:41:58.0	91.740	-0.140	0.110	0.640
2020/01/31 02:41:58.1	91.720	-0.120	0.020	0.660
2020/01/31 02:41:58.2	91.710	-0.110	-0.070	0.680
2020/01/31 02:41:58.3	91.700	-0.090	-0.170	0.700
2020/01/31 02:41:58.4	91.690	-0.060	-0.260	0.720
2020/01/31 02:41:58.5	91.690	-0.040	-0.350	0.740
2020/01/31 02:41:58.6	91.680	-0.020	-0.450	0.760
2020/01/31 02:41:58.7	91.680	0.010	-0.540	0.780
2020/01/31 02:41:58.8	91.680	0.030	-0.630	0.810
2020/01/31 02:41:58.9	91.680	0.060	-0.710	0.830
2020/01/31 02:41:59.0	91.680	0.080	-0.790	0.860
2020/01/31 02:41:59.1	91.690	0.100	-0.870	0.880
2020/01/31 02:41:59.2	91.700	0.120	-0.930	0.910
2020/01/31 02:41:59.3	91.710	0.140	-0.990	0.930
2020/01/31 02:41:59.4	91.720	0.160	-1.050	0.960
2020/01/31 02:41:59.5	91.740	0.180	-1.090	0.980
2020/01/31 02:41:59.6	91.760	0.190	-1.130	1.000
2020/01/31 02:41:59.7	91.780	0.200	-1.150	1.020
2020/01/31 02:41:59.8	91.810	0.210	-1.170	1.040
2020/01/31 02:41:59.9	91.830	0.210	-1.170	1.060
2020/01/31 02:42:00.0	91.860	0.210	-1.170	1.080
2020/01/31 02:42:00.1	91.890	0.210	-1.150	1.100
2020/01/31 02:42:00.2	91.920	0.210	-1.130	1.120
2020/01/31 02:42:00.3	91.950	0.200	-1.100	1.130
2020/01/31 02:42:00.4	91.970	0.180	-1.050	1.140
2020/01/31 02:42:00.5	92.000	0.170	-1.000	1.150
2020/01/31 02:42:00.6	92.030	0.150	-0.940	1.160
2020/01/31 02:42:00.7	92.060	0.130	-0.870	1.170
2020/01/31 02:42:00.8	92.080	0.110	-0.790	1.170
2020/01/31 02:42:00.9	92.100	0.080	-0.710	1.180
2020/01/31 02:42:01.0	92.120	0.050	-0.620	1.180
2020/01/31 02:42:01.1	92.150	0.020	-0.530	1.190
2020/01/31 02:42:01.2	92.160	-0.010	-0.430	1.190
2020/01/31 02:42:01.3	92.180	-0.050	-0.330	1.190
2020/01/31 02:42:01.4	92.190	-0.080	-0.230	1.190
2020/01/31 02:42:01.5	92.190	-0.120	-0.130	1.190
2020/01/31 02:42:01.6	92.200	-0.160	-0.020	1.190
2020/01/31 02:42:01.7	92.200	-0.190	0.080	1.190
2020/01/31 02:42:01.8	92.190	-0.230	0.180	1.190
2020/01/31 02:42:01.9	92.190	-0.270	0.280	1.190
2020/01/31 02:42:02.0	92.180	-0.300	0.370	1.190
2020/01/31 02:42:02.1	92.160	-0.340	0.460	1.180
2020/01/31 02:42:02.2	92.150	-0.370	0.550	1.180
2020/01/31 02:42:02.3	92.130	-0.400	0.620	1.180
2020/01/31 02:42:02.4	92.110	-0.430	0.690	1.180
2020/01/31 02:42:02.5	92.090	-0.450	0.750	1.180
2020/01/31 02:42:02.6	92.070	-0.470	0.800	1.180
2020/01/31 02:42:02.7	92.040	-0.490	0.840	1.170
2020/01/31 02:42:02.8	92.010	-0.510	0.870	1.170
2020/01/31 02:42:02.9	91.980	-0.520	0.890	1.170
2020/01/31 02:42:03.0	91.950	-0.520	0.900	1.160
2020/01/31 02:42:03.1	91.920	-0.520	0.900	1.150
2020/01/31 02:42:03.2	91.890	-0.520	0.880	1.150
2020/01/31 02:42:03.3	91.860	-0.510	0.860	1.140
2020/01/31 02:42:03.4	91.830	-0.500	0.820	1.120
2020/01/31 02:42:03.5	91.800	-0.480	0.770	1.110
2020/01/31 02:42:03.6	91.770	-0.460	0.710	1.090
2020/01/31 02:42:03.7	91.740	-0.440	0.640	1.070
2020/01/31 02:42:03.8	91.720	-0.410	0.560	1.050
2020/01/31 02:42:03.9	91.700	-0.370	0.470	1.020
2020/01/31 02:42:04.0	91.680	-0.330	0.370	0.990
2020/01/31 02:42:04.1	91.650	-0.290	0.260	0.950
2020/01/31 02:42:04.2	91.640	-0.240	0.150	0.910
2020/01/31 02:42:04.3	91.620	-0.190	0.040	0.870
2020/01/31 02:42:04.4	91.620	-0.140	-0.080	0.830
2020/01/31 02:42:04.5	91.610	-0.090	-0.200	0.790
2020/01/31 02:42:04.6	91.610	-0.040	-0.320	0.740
2020/01/31 02:42:04.7	91.610	0.020	-0.440	0.690
2020/01/31 02:42:04.8	91.610	0.080	-0.560	0.650
2020/01/31 02:42:04.9	91.620	0.130	-0.670	0.600
2020/01/31 02:42:05.0	91.630	0.190	-0.780	0.550
2020/01/31 02:42:05.1	91.640	0.240	-0.890	0.500
2020/01/31 02:42:05.2	91.650	0.290	-0.980	0.450
2020/01/31 02:42:05.3	91.670	0.340	-1.070	0.410
2020/01/31 02:42:05.4	91.690	0.390	-1.150	0.360
2020/01/31 02:42:05.5	91.700	0.430	-1.220	0.320
2020/01/31 02:42:05.6	91.720	0.470	-1.280	0.280
2020/01/31 02:42:05.7	91.740	0.510	-1.330	0.250
2020/01/31 02:42:05.8	91.760	0.540	-1.370	0.220
2020/01/31 02:42:05.9	91.770	0.570	-1.400	0.190
2020/01/31 02:42:06.0	91.790	0.590	-1.410	0.170
2020/01/31 02:42:06.1	91.800	0.610	-1.410	0.150
2020/01/31 02:42:06.2	91.810	0.620	-1.400	0.130
2020/01/31 02:42:06.3	91.820	0.630	-1.370	0.120
2020/01/31 02:42:06.4	91.830	0.630	-1.340	0.120
2020/01/31 02:42:06.5	91.830	0.630	-1.290	0.120
2020/01/31 02:42:06.6	91.830	0.620	-1.230	0.120
2020/01/31 02:42:06.7	91.830	0.610	-1.160	0.130
2020/01/31 02:42:06.8	91.830	0.590	-1.080	0.140
2020/01/31 02:42:06.9	91.830	0.560	-1.000	0.150
2020/01/31 02:42:07.0	91.820	0.530	-0.900	0.170
2020/01/31 02:42:07.1	91.810	0.500	-0.800	0.190
2020/01/31 02:42:07.2	91.800	0.460	-0.700	0.220
2020/01/31 02:42:07.3	91.790	0.420	-0.590	0.240
2020/01/31 02:42:07.4	91.780	0.380	-0.480	0.270
2020/01/31 02:42:07.5	91.770	0.330	-0.380	0.300
2020/01/31 02:42:07.6	91.750	0.280	-0.270	0.330
2020/01/31 02:42:07.7	91.740	0.230	-0.160	0.360
2020/01/31 02:42:07.8	91.730	0.180	-0.050	0.390
2020/01/31 02:42:07.9	91.720	0.130	0.050	0.420
2020/01/31 02:42:08.0	91.710	0.080	0.150	0.450
2020/01/31 02:42:08.1	91.690	0.020	0.240	0.470
2020/01/31 02:42:08.2	91.680	-0.030	0.320	0.510
2020/01/31 02:42:08.3	91.680	-0.080	0.400	0.540
2020/01/31 02:42:08.4	91.670	-0.120	0.480	0.570
2020/01/31 02:42:08.5	91.670	-0.170	0.540	0.600
2020/01/31 02:42:08.6	91.660	-0.210	0.600	0.630
2020/01/31 02:42:08.7	91.660	-0.250	0.640	0.660
2020/01/31 02:42:08.8	91.660	-0.290	0.680	0.700
2020/01/31 02:42:08.9	91.660	-0.320	0.710	0.730
2020/01/31 02:42:09.0	91.650	-0.350	0.730	0.760
2020/01/31 02:42:09.1	91.660	-0.380	0.750	0.800
2020/01/31 02:42:09.2	91.660	-0.400	0.750	0.830
2020/01/31 02:42:09.3	91.660	-0.420	0.750	0.860
2020/01/31 02:42:09.4	91.660	-0.430	0.740	0.890
2020/01/31 02:42:09.5	91.670	-0.440	0.720	0.920
2020/01/31 02:42:09.6	91.670	-0.450	0.690	0.940
2020/01/31 02:42:09.7	91.680	-0.450	0.660	0.960
2020/01/31 02:42:09.8	91.680	-0.450	0.620	0.980
2020/01/31 02:42:09.9	91.690	-0.440	0.570	1.000
2020/01/31 02:42:10.0	91.700	-0.440	0.520	1.010
2020/01/31 02:42:10.1	91.710	-0.420	0.460	1.010
2020/01/31 02:42:10.2	91.720	-0.410	0.400	1.020
2020/01/31 02:42:10.3	91.740	-0.390	0.340	1.020
2020/01/31 02:42:10.4	91.750	-0.380	0.280	1.010
2020/01/31 02:42:10.5	91.760	-0.350	0.210	1.010
2020/01/31 02:42:10.6	91.770	-0.330	0.140	0.990
2020/01/31 02:42:10.7	91.780	-0.300	0.060	0.980
2020/01/31 02:42:10.8	91.790	-0.280	-0.010	0.960
2020/01/31 02:42:10.9	91.800	-0.250	-0.080	0.940
2020/01/31 02:42:11.0	91.820	-0.220	-0.160	0.920
2020/01/31 02:42:11.1	91.830	-0.190	-0.230	0.890
2020/01/31 02:42:11.2	91.840	-0.160	-0.300	0.870
2020/01/31 02:42:11.3	91.850	-0.120	-0.370	0.850
2020/01/31 02:42:11.4	91.860	-0.090	-0.430	0.820
2020/01/31 02:42:11.5	91.870	-0.060	-0.500	0.800
2020/01/31 02:42:11.6	91.880	-0.030	-0.550	0.780
2020/01/31 02:42:11.7	91.880	0.000	-0.610	0.770
2020/01/31 02:42:11.8	91.890	0.030	-0.660	0.750
2020/01/31 02:42:11.9	91.900	0.060	-0.700	0.740
2020/01/31 02:42:12.0	91.900	0.090	-0.740	0.740
2020/01/31 02:42:12.1	91.910	0.120	-0.780	0.730
2020/01/31 02:42:12.2	91.920	0.140	-0.800	0.730
2020/01/31 02:42:12.3	91.920	0.160	-0.820	0.730
2020/01/31 02:42:12.4	91.930	0.180	-0.840	0.740
2020/01/31 02:42:12.5	91.930	0.200	-0.850	0.750
2020/01/31 02:42:12.6	91.940	0.220	-0.860	0.760
2020/01/31 02:42:12.7	91.940	0.240	-0.860	0.770
2020/01/31 02:42:12.8	91.940	0.250	-0.860	0.790
2020/01/31 02:42:12.9	91.950	0.260	-0.850	0.810
2020/01/31 02:42:13.0	91.950	0.270	-0.830	0.840
2020/01/31 02:42:13.1	91.950	0.270	-0.820	0.860
2020/01/31 02:42:13.2	91.950	0.280	-0.790	0.890
2020/01/31 02:42:13.3	91.950	0.280	-0.770	0.920
2020/01/31 02:42:13.4	91.950	0.280	-0.740	0.950
2020/01/31 02:42:13.5	91.940	0.280	-0.710	0.980
2020/01/31 02:42:13.6	91.940	0.270	-0.670	1.010
2020/01/31 02:42:13.7	91.930	0.260	-0.630	1.040
2020/01/31 02:42:13.8	91.920	0.250	-0.590	1.070
2020/01/31 02:42:13.9	91.910	0.240	-0.540	1.100
2020/01/31 02:42:14.0	91.890	0.220	-0.500	1.130
2020/01/31 02:42:14.1	91.870	0.210	-0.450	1.150
2020/01/31 02:42:14.2	91.850	0.190	-0.390	1.180
2020/01/31 02:42:14.3	91.830	0.170	-0.330	1.200
2020/01/31 02:42:14.4	91.810	0.140	-0.280	1.220
2020/01/31 02:42:14.5	91.790	0.120	-0.210	1.240
2020/01/31 02:42:14.6	91.770	0.090	-0.150	1.250
2020/01/31 02:42:14.7	91.740	0.060	-0.090	1.270
2020/01/31 02:42:14.8	91.720	0.030	-0.030	1.280
2020/01/31 02:42:14.9	91.690	-0.010	0.040	1.290
2020/01/31 02:42:15.0	91.660	-0.040	0.100	1.300
2020/01/31 02:42:15.1	91.650	-0.070	0.170	1.310
2020/01/31 02:42:15.2	91.620	-0.110	0.230	1.310
2020/01/31 02:42:15.3	91.600	-0.140	0.280	1.310
2020/01/31 02:42:15.4	91.570	-0.180	0.330	1.310
2020/01/31 02:42:15.5	91.550	-0.210	0.380	1.300
2020/01/31 02:42:15.6	91.520	-0.240	0.420	1.290
2020/01/31 02:42:15.7	91.500	-0.280	0.460	1.280
2020/01/31 02:42:15.8	91.480	-0.300	0.490	1.270
2020/01/31 02:42:15.9	91.460	-0.330	0.510	1.250
2020/01/31 02:42:16.0	91.440	-0.360	0.530	1.230
2020/01/31 02:42:16.1	91.430	-0.380	0.530	1.200
2020/01/31 02:42:16.2	91.420	-0.390	0.530	1.180
2020/01/31 02:42:16.3	91.410	-0.410	0.510	1.150
2020/01/31 02:42:16.4	91.400	-0.410	0.490	1.120
2020/01/31 02:42:16.5	91.390	-0.420	0.450	1.090
2020/01/31 02:42:16.6	91.390	-0.410	0.410	1.060
2020/01/31 02:42:16.7	91.380	-0.410	0.350	1.030
2020/01/31 02:42:16.8	91.380	-0.390	0.290	1.000
2020/01/31 02:42:16.9	91.380	-0.380	0.220	0.960
2020/01/31 02:42:17.0	91.390	-0.350	0.140	0.930
2020/01/31 02:42:17.1	91.390	-0.320	0.050	0.890
2020/01/31 02:42:17.2	91.400	-0.290	-0.040	0.850
2020/01/31 02:42:17.3	91.400	-0.250	-0.140	0.810
2020/01/31 02:42:17.4	91.420	-0.210	-0.240	0.770
2020/01/31 02:42:17.5	91.430	-0.170	-0.350	0.730
2020/01/31 02:42:17.6	91.440	-0.120	-0.450	0.690
2020/01/31 02:42:17.7	91.460	-0.070	-0.550	0.650
2020/01/31 02:42:17.8	91.480	-0.010	-0.650	0.610
2020/01/31 02:42:17.9	91.490	0.040	-0.750	0.570
2020/01/31 02:42:18.0	91.510	0.100	-0.850	0.530
2020/01/31 02:42:18.1	91.520	0.150	-0.940	0.490
2020/01/31 02:42:18.2	91.540	0.210	-1.010	0.450
2020/01/31 02:42:18.3	91.560	0.260	-1.090	0.420
2020/01/31 02:42:18.4	91.580	0.310	-1.150	0.390
2020/01/31 02:42:18.5	91.600	0.360	-1.200	0.360
2020/01/31 02:42:18.6	91.620	0.410	-1.240	0.340
2020/01/31 02:42:18.7	91.640	0.450	-1.270	0.310
2020/01/31 02:42:18.8	91.650	0.490	-1.290	0.290
2020/01/31 02:42:18.9	91.670	0.530	-1.290	0.280
2020/01/31 02:42:19.0	91.690	0.560	-1.290	0.260
2020/01/31 02:42:19.1	91.710	0.580	-1.270	0.260
2020/01/31 02:42:19.2	91.720	0.600	-1.240	0.250
2020/01/31 02:42:19.3	91.740	0.610	-1.200	0.250
2020/01/31 02:42:19.4	91.750	0.620	-1.140	0.250
2020/01/31 02:42:19.5	91.770	0.620	-1.080	0.260
2020/01/31 02:42:19.6	91.780	0.620	-1.010	0.270
2020/01/31 02:42:19.7	91.790	0.610	-0.930	0.290
2020/01/31 02:42:19.8	91.800	0.590	-0.840	0.300
2020/01/31 02:42:19.9	91.810	0.570	-0.740	0.330
2020/01/31 02:42:20.0	91.820	0.550	-0.640	0.350
2020/01/31 02:42:20.1	91.830	0.520	-0.530	0.380
2020/01/31 02:42:20.2	91.840	0.480	-0.420	0.410
2020/01/31 02:42:20.3	91.840	0.440	-0.310	0.450
2020/01/31 02:42:20.4	91.850	0.400	-0.190	0.480
2020/01/31 02:42:20.5	91.860	0.350	-0.080	0.520
2020/01/31 02:42:20.6	91.860	0.300	0.040	0.560
2020/01/31 02:42:20.7	91.870	0.240	0.160	0.600
2020/01/31 02:42:20.8	91.870	0.190	0.270	0.640
2020/01/31 02:42:20.9	91.880	0.130	0.380	0.680
2020/01/31 02:42:21.0	91.880	0.080	0.490	0.720
2020/01/31 02:42:21.1	91.890	0.020	0.590	0.770
2020/01/31 02:42:21.2	91.890	-0.040	0.690	0.810
2020/01/31 02:42:21.3	91.890	-0.100	0.770	0.850
2020/01/31 02:42:21.4	91.890	-0.150	0.860	0.900
2020/01/31 02:42:21.5	91.890	-0.210	0.930	0.940
2020/01/31 02:42:21.6	91.880	-0.260	0.990	0.980
2020/01/31 02:42:21.7	91.880	-0.310	1.040	1.020
2020/01/31 02:42:21.8	91.870	-0.360	1.080	1.060
2020/01/31 02:42:21.9	91.860	-0.410	1.110	1.100
2020/01/31 02:42:22.0	91.850	-0.450	1.130	1.140
2020/01/31 02:42:22.1	91.820	-0.480	1.130	1.170
2020/01/31 02:42:22.2	91.800	-0.520	1.130	1.210
2020/01/31 02:42:22.3	91.790	-0.550	1.110	1.240
2020/01/31 02:42:22.4	91.770	-0.570	1.080	1.260
2020/01/31 02:42:22.5	91.760	-0.590	1.040	1.290
2020/01/31 02:42:22.6	91.740	-0.600	0.990	1.310
2020/01/31 02:42:22.7	91.720	-0.610	0.930	1.330
2020/01/31 02:42:22.8	91.700	-0.620	0.850	1.340
2020/01/31 02:42:22.9	91.680	-0.620	0.770	1.350
2020/01/31 02:42:23.0	91.660	-0.610	0.680	1.360
2020/01/31 02:42:23.1	91.650	-0.600	0.590	1.360
2020/01/31 02:42:23.2	91.640	-0.590	0.480	1.360
2020/01/31 02:42:23.3	91.620	-0.570	0.370	1.350
2020/01/31 02:42:23.4	91.610	-0.550	0.260	1.340
2020/01/31 02:42:23.5	91.590	-0.520	0.140	1.320
2020/01/31 02:42:23.6	91.580	-0.490	0.020	1.300
2020/01/31 02:42:23.7	91.570	-0.460	-0.100	1.280
2020/01/31 02:42:23.8	91.570	-0.430	-0.230	1.250
2020/01/31 02:42:23.9	91.570	-0.390	-0.340	1.220
2020/01/31 02:42:24.0	91.570	-0.350	-0.460	1.180
2020/01/31 02:42:24.1	91.570	-0.310	-0.580	1.150
2020/01/31 02:42:24.2	91.580	-0.270	-0.690	1.110
2020/01/31 02:42:24.3	91.590	-0.220	-0.780	1.080
2020/01/31 02:42:24.4	91.600	-0.180	-0.880	1.040
2020/01/31 02:42:24.5	91.610	-0.140	-0.960	1.010
2020/01/31 02:42:24.6	91.620	-0.100	-1.040	0.980
2020/01/31 02:42:24.7	91.640	-0.050	-1.110	0.940
2020/01/31 02:42:24.8	91.660	-0.010	-1.170	0.910
2020/01/31 02:42:24.9	91.680	0.030	-1.220	0.890
2020/01/31 02:42:25.0	91.710	0.060	-1.250	0.860
2020/01/31 02:42:25.1	91.730	0.100	-1.280	0.840
2020/01/31 02:42:25.2	91.760	0.130	-1.300	0.820
2020/01/31 02:42:25.3	91.780	0.160	-1.310	0.800
2020/01/31 02:42:25.4	91.810	0.190	-1.320	0.790
2020/01/31 02:42:25.5	91.840	0.220	-1.310	0.780
2020/01/31 02:42:25.6	91.860	0.240	-1.290	0.770
2020/01/31 02:42:25.7	91.890	0.260	-1.270	0.770
2020/01/31 02:42:25.8	91.910	0.280	-1.240	0.770
2020/01/31 02:42:25.9	91.930	0.290	-1.200	0.770
2020/01/31 02:42:26.0	91.950	0.300	-1.150	0.780
2020/01/31 02:42:26.1	91.960	0.310	-1.100	0.780
2020/01/31 02:42:26.2	91.980	0.310	-1.040	0.790
2020/01/31 02:42:26.3	91.990	0.310	-0.970	0.800
2020/01/31 02:42:26.4	92.000	0.310	-0.910	0.800
2020/01/31 02:42:26.5	92.010	0.310	-0.840	0.810
2020/01/31 02:42:26.6	92.020	0.300	-0.760	0.820
2020/01/31 02:42:26.7	92.020	0.300	-0.690	0.830
2020/01/31 02:42:26.8	92.020	0.290	-0.610	0.830
2020/01/31 02:42:26.9	92.020	0.280	-0.530	0.840
2020/01/31 02:42:27.0	92.020	0.260	-0.460	0.850
2020/01/31 02:42:27.1	92.010	0.250	-0.380	0.850
2020/01/31 02:42:27.2	92.000	0.230	-0.310	0.860
2020/01/31 02:42:27.3	91.990	0.220	-0.240	0.860
2020/01/31 02:42:27.4	91.980	0.200	-0.170	0.870
2020/01/31 02:42:27.5	91.960	0.190	-0.110	0.870
2020/01/31 02:42:27.6	91.940	0.170	-0.060	0.880
2020/01/31 02:42:27.7	91.920	0.160	-0.010	0.880
2020/01/31 02:42:27.8	91.900	0.150	0.040	0.890
2020/01/31 02:42:27.9	91.870	0.130	0.070	0.900
2020/01/31 02:42:28.0	91.840	0.120	0.110	0.920
2020/01/31 02:42:28.1	91.820	0.110	0.130	0.930
2020/01/31 02:42:28.2	91.790	0.100	0.150	0.940
2020/01/31 02:42:28.3	91.760	0.090	0.160	0.960
2020/01/31 02:42:28.4	91.730	0.080	0.170	0.980
2020/01/31 02:42:28.5	91.700	0.080	0.160	1.010
2020/01/31 02:42:28.6	91.670	0.080	0.160	1.030
2020/01/31 02:42:28.7	91.640	0.070	0.140	1.050
2020/01/31 02:42:28.8	91.620	0.070	0.130	1.080
2020/01/31 02:42:28.9	91.590	0.070	0.100	1.100
2020/01/31 02:42:29.0	91.570	0.070	0.080	1.120
2020/01/31 02:42:29.1	91.550	0.070	0.050	1.150
2020/01/31 02:42:29.2	91.530	0.080	0.010	1.170
2020/01/31 02:42:29.3	91.520	0.080	-0.020	1.180
2020/01/31 02:42:29.4	91.510	0.080	-0.050	1.190
2020/01/31 02:42:29.5	91.510	0.080	-0.090	1.200
2020/01/31 02:42:29.6	91.510	0.090	-0.120	1.200
2020/01/31 02:42:29.7	91.510	0.090	-0.150	1.190
2020/01/31 02:42:29.8	91.520	0.090	-0.170	1.190
2020/01/31 02:42:29.9	91.530	0.090	-0.190	1.170
2020/01/31 02:42:30.0	91.550	0.080	-0.210	1.150
2020/01/31 02:42:30.1	91.560	0.080	-0.220	1.120
2020/01/31 02:42:30.2	91.580	0.070	-0.230	1.090
2020/01/31 02:42:30.3	91.600	0.060	-0.230	1.060
2020/01/31 02:42:30.4	91.630	0.050	-0.230	1.020
2020/01/31 02:42:30.5	91.660	0.040	-0.210	0.980
2020/01/31 02:42:30.6	91.690	0.020	-0.190	0.940
2020/01/31 02:42:30.7	91.720	0.000	-0.170	0.900
2020/01/31 02:42:30.8	91.750	-0.020	-0.140	0.860
2020/01/31 02:42:30.9	91.780	-0.040	-0.100	0.810
2020/01/31 02:42:31.0	91.810	-0.060	-0.060	0.770
2020/01/31 02:42:31.1	91.850	-0.080	-0.020	0.740
2020/01/31 02:42:31.2	91.880	-0.110	0.030	0.700
2020/01/31 02:42:31.3	91.910	-0.140	0.080	0.670
2020/01/31 02:42:31.4	91.940	-0.160	0.130	0.640
2020/01/31 02:42:31.5	91.970	-0.190	0.180	0.610
2020/01/31 02:42:31.6	91.990	-0.220	0.230	0.590
2020/01/31 02:42:31.7	92.010	-0.240	0.280	0.570
2020/01/31 02:42:31.8	92.030	-0.270	0.320	0.550
2020/01/31 02:42:31.9	92.050	-0.290	0.360	0.550
2020/01/31 02:42:32.0	92.060	-0.320	0.400	0.540
2020/01/31 02:42:32.1	92.070	-0.330	0.430	0.540
2020/01/31 02:42:32.2	92.070	-0.350	0.450	0.540
2020/01/31 02:42:32.3	92.080	-0.370	0.460	0.550
2020/01/31 02:42:32.4	92.090	-0.380	0.470	0.560
2020/01/31 02:42:32.5	92.090	-0.380	0.470	0.570
2020/01/31 02:42:32.6	92.090	-0.390	0.450	0.590
2020/01/31 02:42:32.7	92.090	-0.390	0.430	0.600
2020/01/31 02:42:32.8	92.090	-0.380	0.400	0.620
2020/01/31 02:42:32.9	92.090	-0.370	0.360	0.640
2020/01/31 02:42:33.0	92.080	-0.360	0.310	0.650
2020/01/31 02:42:33.1	92.080	-0.340	0.250	0.670
2020/01/31 02:42:33.2	92.070	-0.320	0.190	0.690
2020/01/31 02:42:33.3	92.070	-0.300	0.110	0.700
2020/01/31 02:42:33.4	92.060	-0.270	0.030	0.720
2020/01/31 02:42:33.5	92.050	-0.240	-0.050	0.730
2020/01/31 02:42:33.6	92.050	-0.200	-0.140	0.750
2020/01/31 02:42:33.7	92.040	-0.170	-0.230	0.760
2020/01/31 02:42:33.8	92.030	-0.130	-0.320	0.780
2020/01/31 02:42:33.9	92.020	-0.090	-0.420	0.790
2020/01/31 02:42:34.0	92.010	-0.040	-0.510	0.800
2020/01/31 02:42:34.1	92.000	-0.000	-0.610	0.810
2020/01/31 02:42:34.2	91.990	0.040	-0.700	0.820
2020/01/31 02:42:34.3	91.980	0.090	-0.780	0.830
2020/01/31 02:42:34.4	91.980	0.130	-0.860	0.840
2020/01/31 02:42:34.5	91.970	0.170	-0.940	0.850
2020/01/31 02:42:34.6	91.970	0.220	-1.010	0.850
2020/01/31 02:42:34.7	91.970	0.260	-1.060	0.860
2020/01/31 02:42:34.8	91.960	0.290	-1.120	0.870
2020/01/31 02:42:34.9	91.960	0.330	-1.160	0.870
2020/01/31 02:42:35.0	91.970	0.360	-1.190	0.870
2020/01/31 02:42:35.1	91.980	0.390	-1.210	0.870
2020/01/31 02:42:35.2	91.990	0.420	-1.220	0.870
2020/01/31 02:42:35.3	92.000	0.440	-1.220	0.870
2020/01/31 02:42:35.4	92.010	0.460	-1.200	0.870
2020/01/31 02:42:35.5	92.020	0.470	-1.180	0.860
2020/01/31 02:42:35.6	92.040	0.480	-1.150	0.850
2020/01/31 02:42:35.7	92.050	0.490	-1.100	0.840
2020/01/31 02:42:35.8	92.070	0.490	-1.040	0.830
2020/01/31 02:42:35.9	92.100	0.480	-0.980	0.810
2020/01/31 02:42:36.0	92.120	0.480	-0.900	0.800
2020/01/31 02:42:36.1	92.130	0.460	-0.820	0.780
2020/01/31 02:42:36.2	92.160	0.450	-0.730	0.770
2020/01/31 02:42:36.3	92.190	0.420	-0.630	0.750
2020/01/31 02:42:36.4	92.210	0.400	-0.530	0.740
2020/01/31 02:42:36.5	92.240	0.370	-0.420	0.720
2020/01/31 02:42:36.6	92.260	0.330	-0.310	0.710
2020/01/31 02:42:36.7	92.290	0.300	-0.200	0.700
2020/01/31 02:42:36.8	92.310	0.260	-0.090	0.690
2020/01/31 02:42:36.9	92.330	0.220	0.020	0.690
2020/01/31 02:42:37.0	92.350	0.170	0.130	0.690
2020/01/31 02:42:37.1	92.360	0.130	0.240	0.690
2020/01/31 02:42:37.2	92.380	0.080	0.350	0.690
2020/01/31 02:42:37.3	92.390	0.030	0.450	0.700
2020/01/31 02:42:37.4	92.400	-0.020	0.540	0.710
2020/01/31 02:42:37.5	92.410	-0.070	0.620	0.720
2020/01/31 02:42:37.6	92.410	-0.110	0.700	0.730
2020/01/31 02:42:37.7	92.420	-0.160	0.760	0.750
2020/01/31 02:42:37.8	92.420	-0.200	0.820	0.760
2020/01/31 02:42:37.9	92.420	-0.250	0.860	0.780
2020/01/31 02:42:38.0	92.420	-0.290	0.890	0.800
2020/01/31 02:42:38.1	92.420	-0.320	0.920	0.820
2020/01/31 02:42:38.2	92.410	-0.360	0.930	0.840
2020/01/31 02:42:38.3	92.410	-0.390	0.930	0.860
2020/01/31 02:42:38.4	92.410	-0.420	0.910	0.870
2020/01/31 02:42:38.5	92.410	-0.440	0.890	0.890
2020/01/31 02:42:38.6	92.400	-0.460	0.850	0.900
2020/01/31 02:42:38.7	92.400	-0.480	0.800	0.910
2020/01/31 02:42:38.8	92.400	-0.490	0.740	0.920
2020/01/31 02:42:38.9	92.390	-0.500	0.670	0.930
2020/01/31 02:42:39.0	92.390	-0.500	0.590	0.940
2020/01/31 02:42:39.1	92.390	-0.500	0.500	0.940
2020/01/31 02:42:39.2	92.380	-0.500	0.400	0.950
2020/01/31 02:42:39.3	92.380	-0.490	0.300	0.950
2020/01/31 02:42:39.4	92.370	-0.470	0.190	0.960
2020/01/31 02:42:39.5	92.360	-0.450	0.080	0.960
2020/01/31 02:42:39.6	92.360	-0.430	-0.030	0.960
2020/01/31 02:42:39.7	92.350	-0.410	-0.150	0.960
2020/01/31 02:42:39.8	92.340	-0.380	-0.270	0.960
2020/01/31 02:42:39.9	92.330	-0.350	-0.390	0.960
2020/01/31 02:42:40.0	92.320	-0.310	-0.500	0.960
2020/01/31 02:42:40.1	92.310	-0.280	-0.620	0.960
2020/01/31 02:42:40.2	92.300	-0.240	-0.730	0.960
2020/01/31 02:42:40.3	92.290	-0.190	-0.840	0.960
2020/01/31 02:42:40.4	92.290	-0.150	-0.940	0.960
2020/01/31 02:42:40.5	92.280	-0.110	-1.030	0.960
2020/01/31 02:42:40.6	92.270	-0.060	-1.120	0.960
2020/01/31 02:42:40.7	92.260	-0.020	-1.200	0.960
2020/01/31 02:42:40.8	92.250	0.020	-1.270	0.960
2020/01/31 02:42:40.9	92.240	0.070	-1.330	0.970
2020/01/31 02:42:41.0	92.230	0.110	-1.370	0.970
2020/01/31 02:42:41.1	92.230	0.150	-1.410	0.990
2020/01/31 02:42:41.2	92.230	0.190	-1.440	0.990
2020/01/31 02:42:41.3	92.220	0.230	-1.450	1.000
2020/01/31 02:42:41.4	92.210	0.260	-1.450	1.010
2020/01/31 02:42:41.5	92.210	0.290	-1.450	1.030
2020/01/31 02:42:41.6	92.200	0.320	-1.420	1.040
2020/01/31 02:42:41.7	92.200	0.340	-1.390	1.060
2020/01/31 02:42:41.8	92.190	0.360	-1.350	1.070
2020/01/31 02:42:41.9	92.190	0.380	-1.290	1.090
2020/01/31 02:42:42.0	92.180	0.390	-1.230	1.110
2020/01/31 02:42:42.1	92.170	0.390	-1.150	1.130
2020/01/31 02:42:42.2	92.170	0.390	-1.070	1.150
2020/01/31 02:42:42.3	92.160	0.390	-0.980	1.170
2020/01/31 02:42:42.4	92.150	0.380	-0.880	1.190
2020/01/31 02:42:42.5	92.140	0.370	-0.780	1.210
2020/01/31 02:42:42.6	92.130	0.350	-0.670	1.230
2020/01/31 02:42:42.7	92.120	0.330	-0.560	1.250
2020/01/31 02:42:42.8	92.110	0.300	-0.460	1.260
2020/01/31 02:42:42.9	92.100	0.270	-0.340	1.280
2020/01/31 02:42:43.0	92.090	0.240	-0.230	1.290
2020/01/31 02:42:43.1	92.080	0.210	-0.120	1.310
2020/01/31 02:42:43.2	92.070	0.170	-0.020	1.320
2020/01/31 02:42:43.3	92.060	0.130	0.080	1.330
2020/01/31 02:42:43.4	92.050	0.090	0.180	1.330
2020/01/31 02:42:43.5	92.050	0.050	0.260	1.320
2020/01/31 02:42:43.6	92.040	0.010	0.340	1.320
2020/01/31 02:42:43.7	92.030	-0.030	0.410	1.310
2020/01/31 02:42:43.8	92.030	-0.070	0.480	1.300
2020/01/31 02:42:43.9	92.020	-0.100	0.530	1.280
2020/01/31 02:42:44.0	92.020	-0.140	0.580	1.260
2020/01/31 02:42:44.1	92.020	-0.170	0.610	1.230
2020/01/31 02:42:44.2	92.020	-0.200	0.630	1.200
2020/01/31 02:42:44.3	92.020	-0.230	0.650	1.170
2020/01/31 02:42:44.4	92.020	-0.250	0.660	1.140
2020/01/31 02:42:44.5	92.020	-0.270	0.650	1.110
2020/01/31 02:42:44.6	92.020	-0.290	0.640	1.080
2020/01/31 02:42:44.7	92.020	-0.300	0.620	1.040
2020/01/31 02:42:44.8	92.020	-0.310	0.600	1.010
2020/01/31 02:42:44.9	92.030	-0.310	0.560	0.970
2020/01/31 02:42:45.0	92.030	-0.320	0.520	0.930
2020/01/31 02:42:45.1	92.030	-0.310	0.480	0.900
2020/01/31 02:42:45.2	92.040	-0.310	0.430	0.870
2020/01/31 02:42:45.3	92.050	-0.300	0.380	0.830
2020/01/31 02:42:45.4	92.060	-0.290	0.330	0.790
2020/01/31 02:42:45.5	92.070	-0.280	0.280	0.750
2020/01/31 02:42:45.6	92.090	-0.260	0.230	0.720
2020/01/31 02:42:45.7	92.110	-0.250	0.170	0.680
2020/01/31 02:42:45.8	92.130	-0.230	0.120	0.650
2020/01/31 02:42:45.9	92.150	-0.210	0.070	0.610
2020/01/31 02:42:46.0	92.170	-0.190	0.020	0.580
2020/01/31 02:42:46.1	92.200	-0.160	-0.030	0.550
2020/01/31 02:42:46.2	92.230	-0.140	-0.070	0.520
2020/01/31 02:42:46.3	92.260	-0.120	-0.110	0.500
2020/01/31 02:42:46.4	92.290	-0.090	-0.150	0.470
2020/01/31 02:42:46.5	92.320	-0.070	-0.180	0.450
2020/01/31 02:42:46.6	92.350	-0.050	-0.210	0.440
2020/01/31 02:42:46.7	92.380	-0.020	-0.230	0.420
2020/01/31 02:42:46.8	92.410	-0.000	-0.250	0.410
2020/01/31 02:42:46.9	92.430	0.020	-0.270	0.400
2020/01/31 02:42:47.0	92.460	0.040	-0.280	0.390
2020/01/31 02:42:47.1	92.480	0.060	-0.290	0.390
2020/01/31 02:42:47.2	92.500	0.070	-0.300	0.390
2020/01/31 02:42:47.3	92.520	0.090	-0.300	0.390
2020/01/31 02:42:47.4	92.540	0.100	-0.290	0.400
2020/01/31 02:42:47.5	92.560	0.120	-0.290	0.400
2020/01/31 02:42:47.6	92.570	0.130	-0.280	0.410
2020/01/31 02:42:47.7	92.580	0.130	-0.270	0.420
2020/01/31 02:42:47.8	92.590	0.140	-0.260	0.430
2020/01/31 02:42:47.9	92.590	0.150	-0.240	0.440
2020/01/31 02:42:48.0	92.590	0.150	-0.230	0.460
2020/01/31 02:42:48.1	92.600	0.150	-0.210	0.470
2020/01/31 02:42:48.2	92.600	0.150	-0.190	0.490
2020/01/31 02:42:48.3	92.590	0.150	-0.180	0.520
2020/01/31 02:42:48.4	92.580	0.150	-0.160	0.540
2020/01/31 02:42:48.5	92.570	0.150	-0.150	0.560
2020/01/31 02:42:48.6	92.560	0.140	-0.140	0.590
2020/01/31 02:42:48.7	92.540	0.140	-0.130	0.610
2020/01/31 02:42:48.8	92.520	0.140	-0.120	0.640
2020/01/31 02:42:48.9	92.500	0.130	-0.120	0.670
2020/01/31 02:42:49.0	92.480	0.130	-0.120	0.700
2020/01/31 02:42:49.1	92.450	0.120	-0.120	0.730
2020/01/31 02:42:49.2	92.430	0.120	-0.130	0.760
2020/01/31 02:42:49.3	92.410	0.120	-0.140	0.790
2020/01/31 02:42:49.4	92.380	0.120	-0.160	0.820
2020/01/31 02:42:49.5	92.360	0.110	-0.180	0.850
2020/01/31 02:42:49.6	92.340	0.110	-0.200	0.880
2020/01/31 02:42:49.7	92.310	0.120	-0.230	0.910
2020/01/31 02:42:49.8	92.290	0.120	-0.270	0.940
2020/01/31 02:42:49.9	92.270	0.120	-0.300	0.960
2020/01/31 02:42:50.0	92.250	0.130	-0.350	0.990
2020/01/31 02:42:50.1	92.240	0.130	-0.390	1.010
2020/01/31 02:42:50.2	92.220	0.140	-0.440	1.040
2020/01/31 02:42:50.3	92.200	0.150	-0.490	1.050
2020/01/31 02:42:50.4	92.180	0.160	-0.540	1.070
2020/01/31 02:42:50.5	92.170	0.170	-0.600	1.090
2020/01/31 02:42:50.6	92.160	0.190	-0.650	1.100
2020/01/31 02:42:50.7	92.140	0.200	-0.700	1.110
2020/01/31 02:42:50.8	92.130	0.210	-0.750	1.120
2020/01/31 02:42:50.9	92.120	0.230	-0.800	1.130
2020/01/31 02:42:51.0	92.110	0.240	-0.850	1.140
2020/01/31 02:42:51.1	92.110	0.260	-0.880	1.140
2020/01/31 02:42:51.2	92.100	0.270	-0.920	1.140
2020/01/31 02:42:51.3	92.090	0.280	-0.940	1.140
2020/01/31 02:42:51.4	92.090	0.300	-0.960	1.150
2020/01/31 02:42:51.5	92.080	0.300	-0.980	1.150
2020/01/31 02:42:51.6	92.070	0.310	-0.980	1.150
2020/01/31 02:42:51.7	92.070	0.320	-0.970	1.150
2020/01/31 02:42:51.8	92.060	0.320	-0.950	1.150
2020/01/31 02:42:51.9	92.050	0.310	-0.920	1.150
2020/01/31 02:42:52.0	92.040	0.310	-0.890	1.150
2020/01/31 02:42:52.1	92.040	0.300	-0.840	1.150
2020/01/31 02:42:52.2	92.030	0.280	-0.780	1.150
2020/01/31 02:42:52.3	92.020	0.260	-0.720	1.150
2020/01/31 02:42:52.4	92.010	0.240	-0.640	1.160
2020/01/31 02:42:52.5	92.010	0.210	-0.560	1.160
2020/01/31 02:42:52.6	92.000	0.170	-0.470	1.170
2020/01/31 02:42:52.7	92.000	0.140	-0.380	1.170
2020/01/31 02:42:52.8	91.990	0.090	-0.290	1.180
2020/01/31 02:42:52.9	91.990	0.050	-0.190	1.190
2020/01/31 02:42:53.0	91.980	0.000	-0.090	1.190
2020/01/31 02:42:53.1	91.980	-0.050	0.020	1.200
2020/01/31 02:42:53.2	91.970	-0.100	0.120	1.210
2020/01/31 02:42:53.3	91.970	-0.160	0.220	1.210
2020/01/31 02:42:53.4	91.970	-0.220	0.310	1.220
2020/01/31 02:42:53.5	91.960	-0.280	0.400	1.230
2020/01/31 02:42:53.6	91.960	-0.330	0.480	1.230
2020/01/31 02:42:53.7	91.960	-0.390	0.550	1.230
2020/01/31 02:42:53.8	91.960	-0.450	0.620	1.230
2020/01/31 02:42:53.9	91.960	-0.500	0.670	1.230
2020/01/31 02:42:54.0	91.960	-0.550	0.720	1.230
2020/01/31 02:42:54.1	91.960	-0.600	0.760	1.220
2020/01/31 02:42:54.2	91.970	-0.640	0.780	1.210
2020/01/31 02:42:54.3	91.970	-0.680	0.800	1.190
2020/01/31 02:42:54.4	91.980	-0.710	0.800	1.180
2020/01/31 02:42:54.5	91.990	-0.740	0.790	1.160
2020/01/31 02:42:54.6	92.000	-0.760	0.770	1.130
2020/01/31 02:42:54.7	92.010	-0.780	0.740	1.110
2020/01/31 02:42:54.8	92.020	-0.790	0.700	1.080
2020/01/31 02:42:54.9	92.030	-0.790	0.650	1.060
2020/01/31 02:42:55.0	92.040	-0.790	0.590	1.030
2020/01/31 02:42:55.1	92.040	-0.780	0.520	1.010
2020/01/31 02:42:55.2	92.050	-0.760	0.440	0.980
2020/01/31 02:42:55.3	92.060	-0.740	0.360	0.960
2020/01/31 02:42:55.4	92.060	-0.710	0.280	0.940
2020/01/31 02:42:55.5	92.070	-0.680	0.190	0.920
2020/01/31 02:42:55.6	92.070	-0.640	0.100	0.900
2020/01/31 02:42:55.7	92.070	-0.600	0.000	0.890
2020/01/31 02:42:55.8	92.070	-0.550	-0.090	0.870
2020/01/31 02:42:55.9	92.070	-0.500	-0.180	0.850
2020/01/31 02:42:56.0	92.080	-0.450	-0.280	0.840
2020/01/31 02:42:56.1	92.080	-0.400	-0.370	0.820
2020/01/31 02:42:56.2	92.090	-0.340	-0.460	0.800
2020/01/31 02:42:56.3	92.090	-0.280	-0.540	0.790
2020/01/31 02:42:56.4	92.100	-0.220	-0.620	0.770
2020/01/31 02:42:56.5	92.100	-0.160	-0.690	0.750
2020/01/31 02:42:56.6	92.110	-0.110	-0.760	0.740
2020/01/31 02:42:56.7	92.120	-0.050	-0.820	0.720
2020/01/31 02:42:56.8	92.130	0.010	-0.880	0.700
2020/01/31 02:42:56.9	92.140	0.070	-0.930	0.680
2020/01/31 02:42:57.0	92.150	0.120	-0.980	0.660
2020/01/31 02:42:57.1	92.160	0.180	-1.020	0.640
2020/01/31 02:42:57.2	92.170	0.230	-1.050	0.620
2020/01/31 02:42:57.3	92.190	0.270	-1.070	0.600
2020/01/31 02:42:57.4	92.210	0.320	-1.080	0.580
2020/01/31 02:42:57.5	92.220	0.360	-1.090	0.560
2020/01/31 02:42:57.6	92.240	0.400	-1.090	0.540
2020/01/31 02:42:57.7	92.250	0.430	-1.090	0.520
2020/01/31 02:42:57.8	92.260	0.460	-1.070	0.510
2020/01/31 02:42:57.9	92.280	0.490	-1.050	0.490
2020/01/31 02:42:58.0	92.290	0.520	-1.030	0.480
2020/01/31 02:42:58.1	92.290	0.540	-0.990	0.470
2020/01/31 02:42:58.2	92.300	0.550	-0.950	0.470
2020/01/31 02:42:58.3	92.300	0.560	-0.910	0.460
2020/01/31 02:42:58.4	92.300	0.570	-0.850	0.470
2020/01/31 02:42:58.5	92.290	0.580	-0.800	0.470
2020/01/31 02:42:58.6	92.290	0.580	-0.730	0.480
2020/01/31 02:42:58.7	92.280	0.570	-0.660	0.490
2020/01/31 02:42:58.8	92.270	0.570	-0.590	0.510
2020/01/31 02:42:58.9	92.250	0.560	-0.510	0.520
2020/01/31 02:42:59.0	92.230	0.540	-0.430	0.540
2020/01/31 02:42:59.1	92.210	0.520	-0.340	0.560
2020/01/31 02:42:59.2	92.190	0.500	-0.250	0.580
2020/01/31 02:42:59.3	92.170	0.470	-0.160	0.610
2020/01/31 02:42:59.4	92.140	0.450	-0.070	0.630
2020/01/31 02:42:59.5	92.120	0.410	0.020	0.650
2020/01/31 02:42:59.6	92.090	0.380	0.120	0.670
2020/01/31 02:42:59.7	92.060	0.340	0.210	0.700
2020/01/31 02:42:59.8	92.040	0.300	0.290	0.720
2020/01/31 02:42:59.9	92.010	0.260	0.380	0.740
2020/01/31 02:43:00.0	91.990	0.220	0.460	0.760
2020/01/31 02:43:00.1	91.950	0.180	0.530	0.770
2020/01/31 02:43:00.2	91.930	0.140	0.590	0.780
2020/01/31 02:43:00.3	91.910	0.100	0.650	0.790
2020/01/31 02:43:00.4	91.890	0.060	0.700	0.810
2020/01/31 02:43:00.5	91.870	0.020	0.740	0.810
2020/01/31 02:43:00.6	91.860	-0.020	0.760	0.820
2020/01/31 02:43:00.7	91.840	-0.050	0.780	0.830
2020/01/31 02:43:00.8	91.840	-0.080	0.780	0.830
2020/01/31 02:43:00.9	91.830	-0.110	0.770	0.830
2020/01/31 02:43:01.0	91.830	-0.140	0.750	0.830
2020/01/31 02:43:01.1	91.830	-0.160	0.720	0.830
2020/01/31 02:43:01.2	91.830	-0.170	0.680	0.830
2020/01/31 02:43:01.3	91.830	-0.180	0.620	0.830
2020/01/31 02:43:01.4	91.840	-0.190	0.550	0.830
2020/01/31 02:43:01.5	91.840	-0.190	0.470	0.830
2020/01/31 02:43:01.6	91.850	-0.190	0.380	0.830
2020/01/31 02:43:01.7	91.860	-0.180	0.280	0.830
2020/01/31 02:43:01.8	91.870	-0.170	0.180	0.840
2020/01/31 02:43:01.9	91.880	-0.150	0.070	0.840
2020/01/31 02:43:02.0	91.900	-0.130	-0.040	0.850
2020/01/31 02:43:02.1	91.920	-0.110	-0.160	0.850
2020/01/31 02:43:02.2	91.940	-0.080	-0.280	0.860
2020/01/31 02:43:02.3	91.950	-0.060	-0.390	0.860
2020/01/31 02:43:02.4	91.970	-0.030	-0.510	0.870
2020/01/31 02:43:02.5	91.990	0.000	-0.610	0.880
2020/01/31 02:43:02.6	92.000	0.030	-0.720	0.890
2020/01/31 02:43:02.7	92.020	0.070	-0.810	0.910
2020/01/31 02:43:02.8	92.030	0.100	-0.900	0.920
2020/01/31 02:43:02.9	92.050	0.120	-0.970	0.940
2020/01/31 02:43:03.0	92.060	0.150	-1.040	0.960
2020/01/31 02:43:03.1	92.080	0.170	-1.100	0.980
2020/01/31 02:43:03.2	92.090	0.190	-1.130	1.000
2020/01/31 02:43:03.3	92.090	0.210	-1.160	1.020
2020/01/31 02:43:03.4	92.100	0.220	-1.170	1.040
2020/01/31 02:43:03.5	92.100	0.230	-1.170	1.060
2020/01/31 02:43:03.6	92.110	0.230	-1.150	1.090
2020/01/31 02:43:03.7	92.110	0.230	-1.120	1.120
2020/01/31 02:43:03.8	92.100	0.220	-1.080	1.140
2020/01/31 02:43:03.9	92.100	0.200	-1.020	1.170
2020/01/31 02:43:04.0	92.090	0.180	-0.950	1.190
2020/01/31 02:43:04.1	92.080	0.160	-0.870	1.220
2020/01/31 02:43:04.2	92.070	0.130	-0.780	1.250
2020/01/31 02:43:04.3	92.050	0.090	-0.680	1.270
2020/01/31 02:43:04.4	92.040	0.050	-0.580	1.300
2020/01/31 02:43:04.5	92.020	0.010	-0.460	1.330
2020/01/31 02:43:04.6	92.000	-0.040	-0.340	1.350
2020/01/31 02:43:04.7	91.970	-0.090	-0.220	1.380
2020/01/31 02:43:04.8	91.950	-0.140	-0.100	1.400
2020/01/31 02:43:04.9	91.920	-0.200	0.020	1.430
2020/01/31 02:43:05.0	91.900	-0.260	0.150	1.450
2020/01/31 02:43:05.1	91.870	-0.310	0.270	1.470
2020/01/31 02:43:05.2	91.840	-0.370	0.390	1.490
2020/01/31 02:43:05.3	91.820	-0.420	0.500	1.510
2020/01/31 02:43:05.4	91.790	-0.480	0.600	1.530
2020/01/31 02:43:05.5	91.770	-0.530	0.690	1.540
2020/01/31 02:43:05.6	91.750	-0.580	0.770	1.550
2020/01/31 02:43:05.7	91.730	-0.620	0.840	1.550
2020/01/31 02:43:05.8	91.710	-0.660	0.900	1.550
2020/01/31 02:43:05.9	91.700	-0.690	0.940	1.550
2020/01/31 02:43:06.0	91.690	-0.720	0.970	1.540
2020/01/31 02:43:06.1	91.680	-0.730	0.980	1.520
2020/01/31 02:43:06.2	91.680	-0.750	0.970	1.500
2020/01/31 02:43:06.3	91.680	-0.750	0.950	1.480
2020/01/31 02:43:06.4	91.670	-0.750	0.920	1.450
2020/01/31 02:43:06.5	91.680	-0.730	0.870	1.420
2020/01/31 02:43:06.6	91.680	-0.710	0.800	1.390
2020/01/31 02:43:06.7	91.680	-0.690	0.720	1.350
2020/01/31 02:43:06.8	91.690	-0.650	0.630	1.310
2020/01/31 02:43:06.9	91.690	-0.610	0.530	1.270
2020/01/31 02:43:07.0	91.700	-0.560	0.420	1.230
2020/01/31 02:43:07.1	91.700	-0.510	0.290	1.180
2020/01/31 02:43:07.2	91.710	-0.450	0.170	1.140
2020/01/31 02:43:07.3	91.710	-0.390	0.040	1.090
2020/01/31 02:43:07.4	91.710	-0.320	-0.090	1.040
2020/01/31 02:43:07.5	91.720	-0.250	-0.220	1.000
2020/01/31 02:43:07.6	91.710	-0.180	-0.360	0.950
2020/01/31 02:43:07.7	91.710	-0.110	-0.480	0.900
2020/01/31 02:43:07.8	91.700	-0.040	-0.610	0.850
2020/01/31 02:43:07.9	91.700	0.030	-0.730	0.800
2020/01/31 02:43:08.0	91.690	0.100	-0.840	0.760
2020/01/31 02:43:08.1	91.690	0.160	-0.960	0.710
2020/01/31 02:43:08.2	91.680	0.230	-1.050	0.670
2020/01/31 02:43:08.3	91.660	0.290	-1.140	0.620
2020/01/31 02:43:08.4	91.640	0.350	-1.220	0.580
2020/01/31 02:43:08.5	91.630	0.400	-1.280	0.540
2020/01/31 02:43:08.6	91.600	0.450	-1.340	0.500
2020/01/31 02:43:08.7	91.580	0.490	-1.380	0.470
2020/01/31 02:43:08.8	91.560	0.520	-1.410	0.440
2020/01/31 02:43:08.9	91.530	0.560	-1.420	0.420
2020/01/31 02:43:09.0	91.510	0.580	-1.420	0.390
2020/01/31 02:43:09.1	91.480	0.600	-1.410	0.370
2020/01/31 02:43:09.2	91.450	0.610	-1.390	0.360
2020/01/31 02:43:09.3	91.420	0.620	-1.350	0.360
2020/01/31 02:43:09.4	91.390	0.620	-1.300	0.350
2020/01/31 02:43:09.5	91.370	0.620	-1.250	0.360
2020/01/31 02:43:09.6	91.340	0.610	-1.180	0.360
2020/01/31 02:43:09.7	91.320	0.600	-1.110	0.370
2020/01/31 02:43:09.8	91.300	0.580	-1.020	0.380
2020/01/31 02:43:09.9	91.280	0.560	-0.930	0.400
2020/01/31 02:43:10.0	91.260	0.530	-0.840	0.420
2020/01/31 02:43:10.1	91.250	0.500	-0.740	0.440
2020/01/31 02:43:10.2	91.240	0.460	-0.630	0.460
2020/01/31 02:43:10.3	91.240	0.430	-0.530	0.480
2020/01/31 02:43:10.4	91.230	0.390	-0.420	0.500
2020/01/31 02:43:10.5	91.230	0.350	-0.310	0.520
2020/01/31 02:43:10.6	91.240	0.310	-0.210	0.540
2020/01/31 02:43:10.7	91.240	0.270	-0.110	0.560
2020/01/31 02:43:10.8	91.250	0.220	-0.010	0.580
2020/01/31 02:43:10.9	91.260	0.180	0.090	0.600
2020/01/31 02:43:11.0	91.270	0.140	0.180	0.610
2020/01/31 02:43:11.1	91.290	0.100	0.260	0.630
2020/01/31 02:43:11.2	91.300	0.060	0.340	0.640
2020/01/31 02:43:11.3	91.320	0.020	0.410	0.650
2020/01/31 02:43:11.4	91.340	-0.020	0.470	0.660
2020/01/31 02:43:11.5	91.370	-0.050	0.530	0.670
2020/01/31 02:43:11.6	91.390	-0.080	0.570	0.680
2020/01/31 02:43:11.7	91.410	-0.110	0.610	0.680
2020/01/31 02:43:11.8	91.440	-0.140	0.640	0.680
2020/01/31 02:43:11.9	91.460	-0.160	0.660	0.680
2020/01/31 02:43:12.0	91.480	-0.190	0.670	0.680
2020/01/31 02:43:12.1	91.510	-0.200	0.670	0.680
2020/01/31 02:43:12.2	91.530	-0.220	0.670	0.680
2020/01/31 02:43:12.3	91.560	-0.230	0.660	0.670
2020/01/31 02:43:12.4	91.580	-0.250	0.650	0.670
2020/01/31 02:43:12.5	91.610	-0.260	0.630	0.660
2020/01/31 02:43:12.6	91.630	-0.260	0.610	0.650
2020/01/31 02:43:12.7	91.660	-0.270	0.580	0.640
2020/01/31 02:43:12.8	91.680	-0.270	0.550	0.630
2020/01/31 02:43:12.9	91.710	-0.280	0.520	0.630
2020/01/31 02:43:13.0	91.730	-0.280	0.480	0.620
2020/01/31 02:43:13.1	91.740	-0.270	0.440	0.610
2020/01/31 02:43:13.2	91.760	-0.270	0.400	0.610
2020/01/31 02:43:13.3	91.780	-0.270	0.350	0.610
2020/01/31 02:43:13.4	91.800	-0.260	0.310	0.610
2020/01/31 02:43:13.5	91.820	-0.250	0.260	0.620
2020/01/31 02:43:13.6	91.830	-0.240	0.200	0.630
2020/01/31 02:43:13.7	91.840	-0.230	0.150	0.640
2020/01/31 02:43:13.8	91.850	-0.220	0.090	0.650
2020/01/31 02:43:13.9	91.860	-0.200	0.030	0.670
2020/01/31 02:43:14.0	91.870	-0.190	-0.030	0.690
2020/01/31 02:43:14.1	91.870	-0.170	-0.110	0.710
2020/01/31 02:43:14.2	91.880	-0.150	-0.170	0.740
2020/01/31 02:43:14.3	91.880	-0.120	-0.240	0.770
2020/01/31 02:43:14.4	91.890	-0.100	-0.310	0.800
2020/01/31 02:43:14.5	91.890	-0.070	-0.380	0.830
2020/01/31 02:43:14.6	91.890	-0.040	-0.450	0.860
2020/01/31 02:43:14.7	91.890	-0.020	-0.520	0.890
2020/01/31 02:43:14.8	91.880	0.010	-0.590	0.920
2020/01/31 02:43:14.9	91.880	0.040	-0.660	0.960
2020/01/31 02:43:15.0	91.870	0.080	-0.730	0.990
2020/01/31 02:43:15.1	91.860	0.110	-0.790	1.030
2020/01/31 02:43:15.2	91.850	0.140	-0.850	1.060
2020/01/31 02:43:15.3	91.840	0.170	-0.900	1.090
2020/01/31 02:43:15.4	91.830	0.200	-0.950	1.120
2020/01/31 02:43:15.5	91.820	0.220	-0.990	1.150
2020/01/31 02:43:15.6	91.800	0.250	-1.020	1.180
2020/01/31 02:43:15.7	91.790	0.270	-1.050	1.200
2020/01/31 02:43:15.8	91.780	0.290	-1.070	1.220
2020/01/31 02:43:15.9	91.780	0.310	-1.070	1.230
2020/01/31 02:43:16.0	91.770	0.320	-1.070	1.250
2020/01/31 02:43:16.1	91.760	0.330	-1.060	1.250
2020/01/31 02:43:16.2	91.760	0.330	-1.040	1.260
2020/01/31 02:43:16.3	91.750	0.330	-1.020	1.260
2020/01/31 02:43:16.4	91.750	0.330	-0.980	1.260
2020/01/31 02:43:16.5	91.750	0.320	-0.930	1.260
2020/01/31 02:43:16.6	91.750	0.310	-0.870	1.260
2020/01/31 02:43:16.7	91.750	0.290	-0.810	1.250
2020/01/31 02:43:16.8	91.750	0.270	-0.740	1.240
2020/01/31 02:43:16.9	91.750	0.250	-0.660	1.230
2020/01/31 02:43:17.0	91.750	0.220	-0.580	1.220
2020/01/31 02:43:17.1	91.750	0.190	-0.490	1.200
2020/01/31 02:43:17.2	91.760	0.150	-0.400	1.190
2020/01/31 02:43:17.3	91.760	0.120	-0.310	1.170
2020/01/31 02:43:17.4	91.760	0.080	-0.210	1.150
2020/01/31 02:43:17.5	91.760	0.040	-0.120	1.140
2020/01/31 02:43:17.6	91.770	0.000	-0.030	1.120
2020/01/31 02:43:17.7	91.770	-0.040	0.070	1.100
2020/01/31 02:43:17.8	91.770	-0.080	0.160	1.090
2020/01/31 02:43:17.9	91.770	-0.120	0.240	1.070
2020/01/31 02:43:18.0	91.770	-0.150	0.320	1.060
2020/01/31 02:43:18.1	91.770	-0.190	0.400	1.040
2020/01/31 02:43:18.2	91.770	-0.230	0.470	1.020
2020/01/31 02:43:18.3	91.770	-0.260	0.530	1.000
2020/01/31 02:43:18.4	91.770	-0.290	0.580	0.980
2020/01/31 02:43:18.5	91.770	-0.310	0.630	0.960
2020/01/31 02:43:18.6	91.770	-0.340	0.670	0.940
2020/01/31 02:43:18.7	91.770	-0.350	0.700	0.910
2020/01/31 02:43:18.8	91.780	-0.370	0.710	0.890
2020/01/31 02:43:18.9	91.780	-0.380	0.720	0.860
2020/01/31 02:43:19.0	91.790	-0.390	0.720	0.830
2020/01/31 02:43:19.1	91.810	-0.390	0.710	0.810
2020/01/31 02:43:19.2	91.820	-0.390	0.690	0.770
2020/01/31 02:43:19.3	91.830	-0.380	0.660	0.740
2020/01/31 02:43:19.4	91.840	-0.370	0.620	0.700
2020/01/31 02:43:19.5	91.850	-0.350	0.570	0.670
2020/01/31 02:43:19.6	91.870	-0.330	0.510	0.630
2020/01/31 02:43:19.7	91.890	-0.310	0.440	0.590
2020/01/31 02:43:19.8	91.900	-0.280	0.370	0.550
2020/01/31 02:43:19.9	91.920	-0.250	0.280	0.510
2020/01/31 02:43:20.0	91.940	-0.210	0.190	0.470
2020/01/31 02:43:20.1	91.950	-0.170	0.090	0.430
2020/01/31 02:43:20.2	91.970	-0.130	-0.020	0.390
2020/01/31 02:43:20.3	91.990	-0.090	-0.120	0.350
2020/01/31 02:43:20.4	92.010	-0.040	-0.230	0.310
2020/01/31 02:43:20.5	92.030	0.010	-0.350	0.270
2020/01/31 02:43:20.6	92.050	0.060	-0.460	0.240
2020/01/31 02:43:20.7	92.070	0.110	-0.570	0.210
2020/01/31 02:43:20.8	92.090	0.160	-0.680	0.180
2020/01/31 02:43:20.9	92.110	0.210	-0.790	0.150
2020/01/31 02:43:21.0	92.120	0.260	-0.890	0.130
2020/01/31 02:43:21.1	92.140	0.300	-0.980	0.100
2020/01/31 02:43:21.2	92.160	0.350	-1.070	0.090
2020/01/31 02:43:21.3	92.180	0.390	-1.140	0.070
2020/01/31 02:43:21.4	92.200	0.430	-1.210	0.060
2020/01/31 02:43:21.5	92.210	0.470	-1.260	0.060
2020/01/31 02:43:21.6	92.230	0.500	-1.300	0.050
2020/01/31 02:43:21.7	92.250	0.530	-1.320	0.050
2020/01/31 02:43:21.8	92.270	0.560	-1.340	0.060
2020/01/31 02:43:21.9	92.290	0.570	-1.330	0.070
2020/01/31 02:43:22.0	92.310	0.590	-1.310	0.080
2020/01/31 02:43:22.1	92.310	0.590	-1.280	0.100
2020/01/31 02:43:22.2	92.330	0.600	-1.230	0.120
2020/01/31 02:43:22.3	92.340	0.590	-1.180	0.140
2020/01/31 02:43:22.4	92.360	0.580	-1.100	0.170
2020/01/31 02:43:22.5	92.380	0.570	-1.020	0.200
2020/01/31 02:43:22.6	92.390	0.550	-0.930	0.230
2020/01/31 02:43:22.7	92.410	0.520	-0.820	0.260
2020/01/31 02:43:22.8	92.420	0.490	-0.710	0.290
2020/01/31 02:43:22.9	92.430	0.460	-0.600	0.330
2020/01/31 02:43:23.0	92.450	0.420	-0.470	0.370
2020/01/31 02:43:23.1	92.460	0.370	-0.350	0.400
2020/01/31 02:43:23.2	92.470	0.320	-0.220	0.440
2020/01/31 02:43:23.3	92.480	0.270	-0.090	0.480
2020/01/31 02:43:23.4	92.490	0.220	0.040	0.510
2020/01/31 02:43:23.5	92.490	0.160	0.160	0.550
2020/01/31 02:43:23.6	92.500	0.110	0.280	0.590
2020/01/31 02:43:23.7	92.500	0.050	0.400	0.620
2020/01/31 02:43:23.8	92.500	-0.010	0.510	0.660
2020/01/31 02:43:23.9	92.510	-0.070	0.610	0.690
2020/01/31 02:43:24.0	92.510	-0.130	0.700	0.730
2020/01/31 02:43:24.1	92.510	-0.180	0.780	0.760
2020/01/31 02:43:24.2	92.510	-0.240	0.860	0.790
2020/01/31 02:43:24.3	92.500	-0.290	0.920	0.820
2020/01/31 02:43:24.4	92.500	-0.340	0.970	0.850
2020/01/31 02:43:24.5	92.500	-0.390	1.010	0.870
2020/01/31 02:43:24.6	92.490	-0.440	1.030	0.900
2020/01/31 02:43:24.7	92.490	-0.480	1.050	0.920
2020/01/31 02:43:24.8	92.480	-0.520	1.060	0.940
2020/01/31 02:43:24.9	92.480	-0.560	1.050	0.950
2020/01/31 02:43:25.0	92.470	-0.590	1.040	0.970
2020/01/31 02:43:25.1	92.470	-0.620	1.010	0.970
2020/01/31 02:43:25.2	92.470	-0.640	0.980	0.980
2020/01/31 02:43:25.3	92.470	-0.660	0.930	0.980
2020/01/31 02:43:25.4	92.470	-0.680	0.880	0.980
2020/01/31 02:43:25.5	92.470	-0.690	0.820	0.980
2020/01/31 02:43:25.6	92.470	-0.690	0.750	0.980
2020/01/31 02:43:25.7	92.470	-0.700	0.680	0.970
2020/01/31 02:43:25.8	92.480	-0.690	0.590	0.960
2020/01/31 02:43:25.9	92.490	-0.690	0.500	0.940
2020/01/31 02:43:26.0	92.490	-0.670	0.410	0.930
2020/01/31 02:43:26.1	92.510	-0.660	0.300	0.910
2020/01/31 02:43:26.2	92.520	-0.640	0.200	0.890
2020/01/31 02:43:26.3	92.530	-0.610	0.090	0.870
2020/01/31 02:43:26.4	92.550	-0.580	-0.030	0.860
2020/01/31 02:43:26.5	92.560	-0.550	-0.140	0.840
2020/01/31 02:43:26.6	92.570	-0.510	-0.260	0.820
2020/01/31 02:43:26.7	92.590	-0.460	-0.380	0.810
2020/01/31 02:43:26.8	92.600	-0.420	-0.500	0.790
2020/01/31 02:43:26.9	92.620	-0.370	-0.620	0.780
2020/01/31 02:43:27.0	92.630	-0.320	-0.740	0.770
2020/01/31 02:43:27.1	92.640	-0.270	-0.860	0.750
2020/01/31 02:43:27.2	92.650	-0.210	-0.970	0.740
2020/01/31 02:43:27.3	92.670	-0.160	-1.070	0.730
2020/01/31 02:43:27.4	92.680	-0.100	-1.160	0.720
2020/01/31 02:43:27.5	92.690	-0.050	-1.250	0.710
2020/01/31 02:43:27.6	92.700	0.010	-1.330	0.700
2020/01/31 02:43:27.7	92.710	0.060	-1.400	0.700
2020/01/31 02:43:27.8	92.720	0.110	-1.450	0.690
2020/01/31 02:43:27.9	92.720	0.160	-1.500	0.680
2020/01/31 02:43:28.0	92.720	0.210	-1.530	0.680
2020/01/31 02:43:28.1	92.730	0.260	-1.560	0.670
2020/01/31 02:43:28.2	92.730	0.300	-1.560	0.670
2020/01/31 02:43:28.3	92.730	0.340	-1.560	0.660
2020/01/31 02:43:28.4	92.720	0.370	-1.540	0.660
2020/01/31 02:43:28.5	92.720	0.400	-1.510	0.660
2020/01/31 02:43:28.6	92.710	0.430	-1.470	0.660
2020/01/31 02:43:28.7	92.700	0.450	-1.420	0.660
2020/01/31 02:43:28.8	92.690	0.460	-1.360	0.660
2020/01/31 02:43:28.9	92.680	0.470	-1.280	0.670
2020/01/31 02:43:29.0	92.670	0.480	-1.200	0.670
2020/01/31 02:43:29.1	92.650	0.480	-1.110	0.680
2020/01/31 02:43:29.2	92.640	0.480	-1.010	0.690
2020/01/31 02:43:29.3	92.620	0.470	-0.910	0.700
2020/01/31 02:43:29.4	92.610	0.460	-0.810	0.720
2020/01/31 02:43:29.5	92.590	0.440	-0.700	0.730
2020/01/31 02:43:29.6	92.570	0.430	-0.590	0.750
2020/01/31 02:43:29.7	92.550	0.400	-0.480	0.760
2020/01/31 02:43:29.8	92.540	0.380	-0.370	0.780
2020/01/31 02:43:29.9	92.520	0.350	-0.260	0.800
2020/01/31 02:43:30.0	92.500	0.320	-0.160	0.810
2020/01/31 02:43:30.1	92.480	0.290	-0.060	0.830
2020/01/31 02:43:30.2	92.470	0.260	0.040	0.850
2020/01/31 02:43:30.3	92.450	0.230	0.130	0.860
2020/01/31 02:43:30.4	92.440	0.200	0.210	0.880
2020/01/31 02:43:30.5	92.420	0.160	0.290	0.890
2020/01/31 02:43:30.6	92.410	0.130	0.360	0.900
2020/01/31 02:43:30.7	92.400	0.100	0.420	0.910
2020/01/31 02:43:30.8	92.400	0.060	0.480	0.910
2020/01/31 02:43:30.9	92.390	0.030	0.520	0.910
2020/01/31 02:43:31.0	92.390	0.010	0.560	0.910
2020/01/31 02:43:31.1	92.390	-0.020	0.590	0.910
2020/01/31 02:43:31.2	92.390	-0.040	0.610	0.900
2020/01/31 02:43:31.3	92.390	-0.070	0.620	0.890
2020/01/31 02:43:31.4	92.400	-0.090	0.630	0.870
2020/01/31 02:43:31.5	92.400	-0.100	0.630	0.860
2020/01/31 02:43:31.6	92.410	-0.120	0.620	0.840
2020/01/31 02:43:31.7	92.420	-0.130	0.600	0.820
2020/01/31 02:43:31.8	92.430	-0.140	0.580	0.790
2020/01/31 02:43:31.9	92.440	-0.150	0.560	0.770
2020/01/31 02:43:32.0	92.450	-0.150	0.530	0.740
2020/01/31 02:43:32.1	92.470	-0.160	0.490	0.710
2020/01/31 02:43:32.2	92.480	-0.160	0.460	0.690
2020/01/31 02:43:32.3	92.490	-0.160	0.420	0.660
2020/01/31 02:43:32.4	92.500	-0.160	0.380	0.640
2020/01/31 02:43:32.5	92.510	-0.150	0.340	0.620
2020/01/31 02:43:32.6	92.520	-0.150	0.300	0.600
2020/01/31 02:43:32.7	92.530	-0.140	0.260	0.580
2020/01/31 02:43:32.8	92.530	-0.130	0.220	0.570
2020/01/31 02:43:32.9	92.530	-0.120	0.170	0.560
2020/01/31 02:43:33.0	92.530	-0.110	0.130	0.550
2020/01/31 02:43:33.1	92.530	-0.100	0.080	0.540
2020/01/31 02:43:33.2	92.520	-0.080	0.040	0.540
2020/01/31 02:43:33.3	92.520	-0.070	-0.000	0.540
2020/01/31 02:43:33.4	92.510	-0.050	-0.050	0.540
2020/01/31 02:43:33.5	92.500	-0.030	-0.090	0.540
2020/01/31 02:43:33.6	92.490	-0.020	-0.130	0.550
2020/01/31 02:43:33.7	92.480	0.000	-0.170	0.550
2020/01/31 02:43:33.8	92.460	0.030	-0.210	0.560
2020/01/31 02:43:33.9	92.450	0.050	-0.250	0.570
2020/01/31 02:43:34.0	92.440	0.070	-0.290	0.580
2020/01/31 02:43:34.1	92.420	0.100	-0.330	0.580
2020/01/31 02:43:34.2	92.410	0.120	-0.370	0.590
2020/01/31 02:43:34.3	92.400	0.150	-0.400	0.600
2020/01/31 02:43:34.4	92.390	0.170	-0.440	0.600
2020/01/31 02:43:34.5	92.390	0.200	-0.480	0.600
2020/01/31 02:43:34.6	92.390	0.230	-0.510	0.610
2020/01/31 02:43:34.7	92.390	0.260	-0.550	0.610
2020/01/31 02:43:34.8	92.390	0.290	-0.580	0.600
2020/01/31 02:43:34.9	92.400	0.320	-0.610	0.600
2020/01/31 02:43:35.0	92.410	0.350	-0.640	0.600
2020/01/31 02:43:35.1	92.420	0.370	-0.670	0.600
2020/01/31 02:43:35.2	92.430	0.400	-0.690	0.600
2020/01/31 02:43:35.3	92.450	0.430	-0.710	0.590
2020/01/31 02:43:35.4	92.470	0.450	-0.730	0.600
2020/01/31 02:43:35.5	92.490	0.480	-0.750	0.600
2020/01/31 02:43:35.6	92.510	0.500	-0.760	0.600
2020/01/31 02:43:35.7	92.530	0.520	-0.770	0.610
2020/01/31 02:43:35.8	92.550	0.540	-0.770	0.620
2020/01/31 02:43:35.9	92.570	0.550	-0.770	0.630
2020/01/31 02:43:36.0	92.590	0.570	-0.760	0.650
2020/01/31 02:43:36.1	92.610	0.570	-0.750	0.660
2020/01/31 02:43:36.2	92.630	0.580	-0.730	0.680
2020/01/31 02:43:36.3	92.650	0.580	-0.710	0.700
2020/01/31 02:43:36.4	92.680	0.570	-0.680	0.720
2020/01/31 02:43:36.5	92.690	0.560	-0.640	0.730
2020/01/31 02:43:36.6	92.710	0.550	-0.600	0.750
2020/01/31 02:43:36.7	92.730	0.530	-0.550	0.770
2020/01/31 02:43:36.8	92.750	0.510	-0.500	0.790
2020/01/31 02:43:36.9	92.770	0.480	-0.440	0.810
2020/01/31 02:43:37.0	92.780	0.450	-0.380	0.820
2020/01/31 02:43:37.1	92.790	0.410	-0.300	0.830
2020/01/31 02:43:37.2	92.800	0.360	-0.230	0.840
2020/01/31 02:43:37.3	92.810	0.320	-0.160	0.850
2020/01/31 02:43:37.4	92.820	0.260	-0.080	0.860
2020/01/31 02:43:37.5	92.830	0.210	0.000	0.870
2020/01/31 02:43:37.6	92.830	0.150	0.080	0.870
2020/01/31 02:43:37.7	92.830	0.080	0.170	0.880
2020/01/31 02:43:37.8	92.830	0.020	0.250	0.890
2020/01/31 02:43:37.9	92.830	-0.050	0.330	0.890
2020/01/31 02:43:38.0	92.830	-0.120	0.410	0.900
2020/01/31 02:43:38.1	92.820	-0.190	0.480	0.910
2020/01/31 02:43:38.2	92.810	-0.260	0.550	0.920
2020/01/31 02:43:38.3	92.800	-0.330	0.620	0.930
2020/01/31 02:43:38.4	92.780	-0.400	0.680	0.940
2020/01/31 02:43:38.5	92.770	-0.470	0.730	0.960
2020/01/31 02:43:38.6	92.750	-0.540	0.780	0.980
2020/01/31 02:43:38.7	92.730	-0.600	0.810	1.000
2020/01/31 02:43:38.8	92.710	-0.660	0.840	1.020
2020/01/31 02:43:38.9	92.680	-0.720	0.860	1.040
2020/01/31 02:43:39.0	92.660	-0.770	0.860	1.070
2020/01/31 02:43:39.1	92.630	-0.810	0.860	1.100
2020/01/31 02:43:39.2	92.600	-0.850	0.840	1.120
2020/01/31 02:43:39.3	92.570	-0.880	0.810	1.150
2020/01/31 02:43:39.4	92.550	-0.900	0.770	1.180
2020/01/31 02:43:39.5	92.520	-0.920	0.710	1.200
2020/01/31 02:43:39.6	92.500	-0.920	0.650	1.230
2020/01/31 02:43:39.7	92.470	-0.920	0.570	1.250
2020/01/31 02:43:39.8	92.450	-0.910	0.480	1.260
2020/01/31 02:43:39.9	92.430	-0.890	0.370	1.270
2020/01/31 02:43:40.0	92.410	-0.870	0.260	1.280
2020/01/31 02:43:40.1	92.400	-0.830	0.140	1.290
2020/01/31 02:43:40.2	92.380	-0.790	0.010	1.290
2020/01/31 02:43:40.3	92.370	-0.740	-0.120	1.280
2020/01/31 02:43:40.4	92.360	-0.690	-0.260	1.280
2020/01/31 02:43:40.5	92.350	-0.620	-0.410	1.270
2020/01/31 02:43:40.6	92.330	-0.560	-0.550	1.250
2020/01/31 02:43:40.7	92.330	-0.490	-0.700	1.230
2020/01/31 02:43:40.8	92.320	-0.410	-0.840	1.210
2020/01/31 02:43:40.9	92.310	-0.330	-0.980	1.190
2020/01/31 02:43:41.0	92.310	-0.250	-1.110	1.160
2020/01/31 02:43:41.1	92.300	-0.180	-1.240	1.130
2020/01/31 02:43:41.2	92.300	-0.100	-1.360	1.100
2020/01/31 02:43:41.3	92.300	-0.020	-1.460	1.070
2020/01/31 02:43:41.4	92.300	0.060	-1.560	1.040
2020/01/31 02:43:41.5	92.300	0.130	-1.640	1.010
2020/01/31 02:43:41.6	92.310	0.200	-1.700	0.980
2020/01/31 02:43:41.7	92.310	0.270	-1.760	0.950
2020/01/31 02:43:41.8	92.310	0.330	-1.790	0.920
2020/01/31 02:43:41.9	92.310	0.390	-1.820	0.900
2020/01/31 02:43:42.0	92.320	0.440	-1.820	0.880
2020/01/31 02:43:42.1	92.320	0.490	-1.810	0.860
2020/01/31 02:43:42.2	92.320	0.520	-1.790	0.840
2020/01/31 02:43:42.3	92.330	0.560	-1.750	0.830
2020/01/31 02:43:42.4	92.330	0.580	-1.700	0.810
2020/01/31 02:43:42.5	92.340	0.600	-1.630	0.800
2020/01/31 02:43:42.6	92.340	0.610	-1.560	0.800
2020/01/31 02:43:42.7	92.350	0.620	-1.460	0.790
2020/01/31 02:43:42.8	92.350	0.610	-1.360	0.790
2020/01/31 02:43:42.9	92.360	0.600	-1.250	0.780
2020/01/31 02:43:43.0	92.370	0.590	-1.130	0.780
2020/01/31 02:43:43.1	92.380	0.570	-1.000	0.790
2020/01/31 02:43:43.2	92.380	0.540	-0.870	0.790
2020/01/31 02:43:43.3	92.390	0.510	-0.730	0.790
2020/01/31 02:43:43.4	92.400	0.470	-0.590	0.790
2020/01/31 02:43:43.5	92.410	0.430	-0.450	0.800
2020/01/31 02:43:43.6	92.420	0.390	-0.300	0.800
2020/01/31 02:43:43.7	92.430	0.340	-0.150	0.800
2020/01/31 02:43:43.8	92.440	0.290	-0.010	0.810
2020/01/31 02:43:43.9	92.440	0.240	0.140	0.820
2020/01/31 02:43:44.0	92.450	0.190	0.280	0.820
2020/01/31 02:43:44.1	92.460	0.130	0.420	0.830
2020/01/31 02:43:44.2	92.460	0.070	0.550	0.830
2020/01/31 02:43:44.3	92.470	0.020	0.680	0.840
2020/01/31 02:43:44.4	92.470	-0.040	0.800	0.840
2020/01/31 02:43:44.5	92.470	-0.100	0.910	0.850
2020/01/31 02:43:44.6	92.470	-0.150	1.010	0.850
2020/01/31 02:43:44.7	92.470	-0.200	1.110	0.850
2020/01/31 02:43:44.8	92.460	-0.250	1.190	0.850
2020/01/31 02:43:44.9	92.460	-0.300	1.260	0.850
2020/01/31 02:43:45.0	92.460	-0.350	1.320	0.850
2020/01/31 02:43:45.1	92.450	-0.390	1.370	0.840
2020/01/31 02:43:45.2	92.440	-0.430	1.410	0.840
2020/01/31 02:43:45.3	92.440	-0.460	1.430	0.830
2020/01/31 02:43:45.4	92.430	-0.490	1.450	0.820
2020/01/31 02:43:45.5	92.420	-0.520	1.440	0.810
2020/01/31 02:43:45.6	92.420	-0.540	1.430	0.800
2020/01/31 02:43:45.7	92.410	-0.550	1.410	0.780
2020/01/31 02:43:45.8	92.410	-0.570	1.370	0.770
2020/01/31 02:43:45.9	92.400	-0.570	1.320	0.750
2020/01/31 02:43:46.0	92.400	-0.570	1.250	0.730
2020/01/31 02:43:46.1	92.380	-0.570	1.180	0.710
2020/01/31 02:43:46.2	92.380	-0.560	1.090	0.690
2020/01/31 02:43:46.3	92.380	-0.540	1.000	0.670
2020/01/31 02:43:46.4	92.380	-0.520	0.900	0.650
2020/01/31 02:43:46.5	92.380	-0.500	0.780	0.630
2020/01/31 02:43:46.6	92.380	-0.460	0.660	0.610
2020/01/31 02:43:46.7	92.390	-0.430	0.530	0.580
2020/01/31 02:43:46.8	92.400	-0.390	0.400	0.560
2020/01/31 02:43:46.9	92.410	-0.340	0.260	0.540
2020/01/31 02:43:47.0	92.420	-0.290	0.120	0.510
2020/01/31 02:43:47.1	92.440	-0.240	-0.030	0.480
2020/01/31 02:43:47.2	92.460	-0.190	-0.170	0.460
2020/01/31 02:43:47.3	92.470	-0.130	-0.310	0.430
2020/01/31 02:43:47.4	92.500	-0.070	-0.450	0.400
2020/01/31 02:43:47.5	92.520	-0.000	-0.590	0.380
2020/01/31 02:43:47.6	92.550	0.060	-0.720	0.350
2020/01/31 02:43:47.7	92.570	0.120	-0.850	0.320
2020/01/31 02:43:47.8	92.600	0.180	-0.970	0.300
2020/01/31 02:43:47.9	92.630	0.250	-1.080	0.270
2020/01/31 02:43:48.0	92.660	0.310	-1.180	0.250
2020/01/31 02:43:48.1	92.680	0.370	-1.280	0.230
2020/01/31 02:43:48.2	92.710	0.420	-1.350	0.220
2020/01/31 02:43:48.3	92.730	0.470	-1.420	0.210
2020/01/31 02:43:48.4	92.750	0.520	-1.470	0.200
2020/01/31 02:43:48.5	92.770	0.570	-1.520	0.200
2020/01/31 02:43:48.6	92.790	0.610	-1.540	0.190
2020/01/31 02:43:48.7	92.810	0.650	-1.560	0.200
2020/01/31 02:43:48.8	92.820	0.680	-1.560	0.200
2020/01/31 02:43:48.9	92.830	0.700	-1.550	0.210
2020/01/31 02:43:49.0	92.830	0.730	-1.530	0.230
2020/01/31 02:43:49.1	92.840	0.740	-1.500	0.250
2020/01/31 02:43:49.2	92.840	0.750	-1.450	0.270
2020/01/31 02:43:49.3	92.830	0.760	-1.400	0.290
2020/01/31 02:43:49.4	92.830	0.760	-1.340	0.320
2020/01/31 02:43:49.5	92.820	0.760	-1.270	0.350
2020/01/31 02:43:49.6	92.800	0.750	-1.190	0.380
2020/01/31 02:43:49.7	92.790	0.740	-1.110	0.420
2020/01/31 02:43:49.8	92.770	0.720	-1.030	0.460
2020/01/31 02:43:49.9	92.750	0.700	-0.940	0.500
2020/01/31 02:43:50.0	92.730	0.680	-0.840	0.540
2020/01/31 02:43:50.1	92.720	0.660	-0.750	0.580
2020/01/31 02:43:50.2	92.690	0.630	-0.650	0.630
2020/01/31 02:43:50.3	92.670	0.600	-0.560	0.680
2020/01/31 02:43:50.4	92.640	0.560	-0.470	0.720
2020/01/31 02:43:50.5	92.620	0.530	-0.380	0.770
2020/01/31 02:43:50.6	92.590	0.500	-0.290	0.820
2020/01/31 02:43:50.7	92.570	0.460	-0.210	0.870
2020/01/31 02:43:50.8	92.550	0.430	-0.140	0.920
2020/01/31 02:43:50.9	92.520	0.390	-0.060	0.970
2020/01/31 02:43:51.0	92.500	0.350	0.000	1.020
2020/01/31 02:43:51.1	92.480	0.320	0.060	1.060
2020/01/31 02:43:51.2	92.460	0.290	0.120	1.110
2020/01/31 02:43:51.3	92.440	0.250	0.170	1.150
2020/01/31 02:43:51.4	92.430	0.220	0.210	1.190
2020/01/31 02:43:51.5	92.410	0.190	0.250	1.230
2020/01/31 02:43:51.6	92.400	0.150	0.280	1.260
2020/01/31 02:43:51.7	92.400	0.120	0.310	1.290
2020/01/31 02:43:51.8	92.390	0.090	0.330	1.310
2020/01/31 02:43:51.9	92.390	0.060	0.340	1.330
2020/01/31 02:43:52.0	92.390	0.030	0.360	1.340
2020/01/31 02:43:52.1	92.400	0.000	0.370	1.350
2020/01/31 02:43:52.2	92.400	-0.020	0.370	1.350
2020/01/31 02:43:52.3	92.410	-0.050	0.370	1.340
2020/01/31 02:43:52.4	92.410	-0.080	0.370	1.330
2020/01/31 02:43:52.5	92.420	-0.110	0.360	1.310
2020/01/31 02:43:52.6	92.430	-0.130	0.350	1.290
2020/01/31 02:43:52.7	92.440	-0.160	0.340	1.260
2020/01/31 02:43:52.8	92.450	-0.180	0.320	1.230
2020/01/31 02:43:52.9	92.470	-0.210	0.300	1.190
2020/01/31 02:43:53.0	92.480	-0.230	0.280	1.160
2020/01/31 02:43:53.1	92.500	-0.250	0.250	1.110
2020/01/31 02:43:53.2	92.510	-0.270	0.230	1.070
2020/01/31 02:43:53.3	92.530	-0.290	0.200	1.030
2020/01/31 02:43:53.4	92.540	-0.310	0.170	0.990
2020/01/31 02:43:53.5	92.560	-0.320	0.140	0.950
2020/01/31 02:43:53.6	92.570	-0.330	0.100	0.910
2020/01/31 02:43:53.7	92.590	-0.340	0.070	0.870
2020/01/31 02:43:53.8	92.600	-0.350	0.030	0.840
2020/01/31 02:43:53.9	92.610	-0.360	-0.000	0.810
2020/01/31 02:43:54.0	92.620	-0.360	-0.040	0.780
2020/01/31 02:43:54.1	92.630	-0.370	-0.070	0.760
2020/01/31 02:43:54.2	92.640	-0.370	-0.100	0.740
2020/01/31 02:43:54.3	92.650	-0.360	-0.140	0.730
2020/01/31 02:43:54.4	92.660	-0.360	-0.170	0.710
2020/01/31 02:43:54.5	92.660	-0.360	-0.200	0.710
2020/01/31 02:43:54.6	92.670	-0.350	-0.230	0.700
2020/01/31 02:43:54.7	92.670	-0.340	-0.260	0.700
2020/01/31 02:43:54.8	92.680	-0.330	-0.290	0.700
2020/01/31 02:43:54.9	92.680	-0.320	-0.310	0.710
2020/01/31 02:43:55.0	92.680	-0.310	-0.330	0.710
2020/01/31 02:43:55.1	92.680	-0.300	-0.350	0.720
2020/01/31 02:43:55.2	92.680	-0.300	-0.370	0.720
2020/01/31 02:43:55.3	92.680	-0.290	-0.380	0.730
2020/01/31 02:43:55.4	92.690	-0.280	-0.390	0.740
2020/01/31 02:43:55.5	92.690	-0.270	-0.390	0.750
2020/01/31 02:43:55.6	92.690	-0.270	-0.390	0.750
2020/01/31 02:43:55.7	92.700	-0.260	-0.390	0.760
2020/01/31 02:43:55.8	92.700	-0.260	-0.390	0.760
2020/01/31 02:43:55.9	92.700	-0.260	-0.380	0.760
2020/01/31 02:43:56.0	92.710	-0.260	-0.370	0.770
2020/01/31 02:43:56.1	92.720	-0.260	-0.360	0.760
2020/01/31 02:43:56.2	92.730	-0.260	-0.350	0.760
2020/01/31 02:43:56.3	92.730	-0.260	-0.330	0.760
2020/01/31 02:43:56.4	92.740	-0.260	-0.320	0.760
2020/01/31 02:43:56.5	92.740	-0.270	-0.300	0.750
2020/01/31 02:43:56.6	92.750	-0.270	-0.290	0.750
2020/01/31 02:43:56.7	92.760	-0.280	-0.280	0.750
2020/01/31 02:43:56.8	92.770	-0.290	-0.260	0.740
2020/01/31 02:43:56.9	92.780	-0.290	-0.250	0.740
2020/01/31 02:43:57.0	92.790	-0.300	-0.230	0.730
2020/01/31 02:43:57.1	92.790	-0.300	-0.220	0.730
2020/01/31 02:43:57.2	92.800	-0.310	-0.210	0.730
2020/01/31 02:43:57.3	92.810	-0.310	-0.200	0.720
2020/01/31 02:43:57.4	92.820	-0.320	-0.190	0.720
2020/01/31 02:43:57.5	92.830	-0.320	-0.190	0.710
2020/01/31 02:43:57.6	92.830	-0.330	-0.180	0.710
2020/01/31 02:43:57.7	92.840	-0.330	-0.180	0.700
2020/01/31 02:43:57.8	92.850	-0.330	-0.170	0.700
2020/01/31 02:43:57.9	92.850	-0.330	-0.170	0.700
2020/01/31 02:43:58.0	92.860	-0.320	-0.160	0.690
2020/01/31 02:43:58.1	92.860	-0.320	-0.160	0.690
2020/01/31 02:43:58.2	92.860	-0.320	-0.160	0.680
2020/01/31 02:43:58.3	92.870	-0.310	-0.160	0.680
2020/01/31 02:43:58.4	92.870	-0.300	-0.150	0.680
2020/01/31 02:43:58.5	92.870	-0.290	-0.150	0.670
2020/01/31 02:43:58.6	92.880	-0.280	-0.150	0.670
2020/01/31 02:43:58.7	92.880	-0.270	-0.150	0.670
2020/01/31 02:43:58.8	92.880	-0.260	-0.150	0.660
2020/01/31 02:43:58.9	92.880	-0.240	-0.160	0.660
2020/01/31 02:43:59.0	92.890	-0.230	-0.160	0.660
2020/01/31 02:43:59.1	92.890	-0.210	-0.170	0.660
2020/01/31 02:43:59.2	92.890	-0.190	-0.170	0.650
2020/01/31 02:43:59.3	92.890	-0.170	-0.180	0.650
2020/01/31 02:43:59.4	92.890	-0.150	-0.190	0.650
2020/01/31 02:43:59.5	92.890	-0.120	-0.200	0.650
2020/01/31 02:43:59.6	92.890	-0.100	-0.210	0.650
2020/01/31 02:43:59.7	92.890	-0.080	-0.220	0.650
2020/01/31 02:43:59.8	92.890	-0.050	-0.240	0.650
2020/01/31 02:43:59.9	92.890	-0.020	-0.250	0.640
2020/01/31 02:44:00.0	92.890	0.010	-0.270	0.640
2020/01/31 02:44:00.1	92.890	0.030	-0.280	0.640
2020/01/31 02:44:00.2	92.890	0.060	-0.290	0.630
2020/01/31 02:44:00.3	92.890	0.090	-0.300	0.630
2020/01/31 02:44:00.4	92.890	0.110	-0.310	0.620
2020/01/31 02:44:00.5	92.880	0.140	-0.320	0.610
2020/01/31 02:44:00.6	92.880	0.160	-0.330	0.610
2020/01/31 02:44:00.7	92.880	0.190	-0.330	0.600
2020/01/31 02:44:00.8	92.880	0.210	-0.330	0.590
2020/01/31 02:44:00.9	92.880	0.230	-0.330	0.580
2020/01/31 02:44:01.0	92.880	0.250	-0.330	0.560
2020/01/31 02:44:01.1	92.890	0.270	-0.320	0.550
2020/01/31 02:44:01.2	92.890	0.280	-0.310	0.540
2020/01/31 02:44:01.3	92.880	0.300	-0.300	0.530
2020/01/31 02:44:01.4	92.880	0.310	-0.290	0.510
2020/01/31 02:44:01.5	92.880	0.320	-0.280	0.500
2020/01/31 02:44:01.6	92.880	0.330	-0.260	0.480
2020/01/31 02:44:01.7	92.880	0.340	-0.250	0.470
2020/01/31 02:44:01.8	92.880	0.350	-0.230	0.450
2020/01/31 02:44:01.9	92.880	0.360	-0.210	0.440
2020/01/31 02:44:02.0	92.880	0.360	-0.190	0.420
2020/01/31 02:44:02.1	92.870	0.370	-0.170	0.410
2020/01/31 02:44:02.2	92.870	0.370	-0.150	0.390
2020/01/31 02:44:02.3	92.870	0.380	-0.130	0.380
2020/01/31 02:44:02.4	92.870	0.380	-0.120	0.360
2020/01/31 02:44:02.5	92.870	0.380	-0.100	0.340
2020/01/31 02:44:02.6	92.870	0.390	-0.080	0.330
2020/01/31 02:44:02.7	92.870	0.390	-0.070	0.310
2020/01/31 02:44:02.8	92.870	0.400	-0.060	0.300
2020/01/31 02:44:02.9	92.860	0.400	-0.050	0.280
2020/01/31 02:44:03.0	92.860	0.400	-0.040	0.260
2020/01/31 02:44:03.1	92.860	0.410	-0.040	0.250
2020/01/31 02:44:03.2	92.850	0.410	-0.040	0.230
2020/01/31 02:44:03.3	92.850	0.420	-0.040	0.220
2020/01/31 02:44:03.4	92.850	0.430	-0.050	0.200
2020/01/31 02:44:03.5	92.850	0.430	-0.060	0.190
2020/01/31 02:44:03.6	92.840	0.440	-0.070	0.170
2020/01/31 02:44:03.7	92.840	0.450	-0.080	0.160
2020/01/31 02:44:03.8	92.840	0.450	-0.100	0.140
2020/01/31 02:44:03.9	92.830	0.460	-0.120	0.130
2020/01/31 02:44:04.0	92.830	0.460	-0.140	0.110
2020/01/31 02:44:04.1	92.830	0.470	-0.160	0.090
2020/01/31 02:44:04.2	92.820	0.470	-0.190	0.080
2020/01/31 02:44:04.3	92.820	0.480	-0.210	0.070
2020/01/31 02:44:04.4	92.820	0.480	-0.240	0.060
2020/01/31 02:44:04.5	92.820	0.480	-0.270	0.060
2020/01/31 02:44:04.6	92.820	0.480	-0.300	0.050
2020/01/31 02:44:04.7	92.820	0.480	-0.330	0.050
2020/01/31 02:44:04.8	92.820	0.470	-0.360	0.050
2020/01/31 02:44:04.9	92.820	0.460	-0.390	0.060
2020/01/31 02:44:05.0	92.830	0.460	-0.420	0.060
2020/01/31 02:44:05.1	92.820	0.450	-0.450	0.070
2020/01/31 02:44:05.2	92.830	0.430	-0.470	0.090
2020/01/31 02:44:05.3	92.830	0.420	-0.490	0.110
2020/01/31 02:44:05.4	92.840	0.400	-0.510	0.130
2020/01/31 02:44:05.5	92.840	0.380	-0.530	0.150
2020/01/31 02:44:05.6	92.850	0.360	-0.540	0.180
2020/01/31 02:44:05.7	92.850	0.340	-0.560	0.210
2020/01/31 02:44:05.8	92.860	0.320	-0.560	0.240
2020/01/31 02:44:05.9	92.870	0.290	-0.570	0.280
2020/01/31 02:44:06.0	92.870	0.260	-0.570	0.320
2020/01/31 02:44:06.1	92.890	0.230	-0.560	0.360
2020/01/31 02:44:06.2	92.890	0.200	-0.560	0.400
2020/01/31 02:44:06.3	92.900	0.160	-0.550	0.440
2020/01/31 02:44:06.4	92.910	0.130	-0.530	0.480
2020/01/31 02:44:06.5	92.910	0.090	-0.510	0.520
2020/01/31 02:44:06.6	92.920	0.050	-0.490	0.570
2020/01/31 02:44:06.7	92.930	0.020	-0.470	0.610
2020/01/31 02:44:06.8	92.930	-0.020	-0.450	0.650
2020/01/31 02:44:06.9	92.940	-0.060	-0.420	0.690
2020/01/31 02:44:07.0	92.940	-0.100	-0.390	0.730
2020/01/31 02:44:07.1	92.950	-0.140	-0.350	0.780
2020/01/31 02:44:07.2	92.950	-0.180	-0.320	0.810
2020/01/31 02:44:07.3	92.960	-0.220	-0.280	0.850
2020/01/31 02:44:07.4	92.960	-0.250	-0.250	0.890
2020/01/31 02:44:07.5	92.960	-0.290	-0.210	0.930
2020/01/31 02:44:07.6	92.970	-0.320	-0.170	0.970
2020/01/31 02:44:07.7	92.970	-0.360	-0.140	1.000
2020/01/31 02:44:07.8	92.970	-0.390	-0.100	1.040
2020/01/31 02:44:07.9	92.970	-0.420	-0.070	1.070
2020/01/31 02:44:08.0	92.970	-0.450	-0.030	1.110
2020/01/31 02:44:08.1	92.970	-0.480	-0.000	1.140
2020/01/31 02:44:08.2	92.970	-0.500	0.030	1.180
2020/01/31 02:44:08.3	92.970	-0.520	0.050	1.210
2020/01/31 02:44:08.4	92.970	-0.540	0.080	1.250
2020/01/31 02:44:08.5	92.970	-0.560	0.100	1.290
2020/01/31 02:44:08.6	92.970	-0.570	0.110	1.330
2020/01/31 02:44:08.7	92.970	-0.580	0.130	1.360
2020/01/31 02:44:08.8	92.970	-0.590	0.140	1.400
2020/01/31 02:44:08.9	92.970	-0.590	0.140	1.440
2020/01/31 02:44:09.0	92.970	-0.590	0.140	1.470
2020/01/31 02:44:09.1	92.970	-0.590	0.140	1.510
2020/01/31 02:44:09.2	92.970	-0.590	0.130	1.550
2020/01/31 02:44:09.3	92.980	-0.580	0.120	1.580
2020/01/31 02:44:09.4	92.980	-0.570	0.100	1.600
2020/01/31 02:44:09.5	92.980	-0.560	0.080	1.630
2020/01/31 02:44:09.6	92.980	-0.540	0.060	1.650
2020/01/31 02:44:09.7	92.980	-0.520	0.030	1.670
2020/01/31 02:44:09.8	92.980	-0.500	0.000	1.680
2020/01/31 02:44:09.9	92.980	-0.480	-0.030	1.690
2020/01/31 02:44:10.0	92.980	-0.450	-0.060	1.700
2020/01/31 02:44:10.1	92.990	-0.430	-0.100	1.690
2020/01/31 02:44:10.2	92.990	-0.400	-0.140	1.680
2020/01/31 02:44:10.3	92.990	-0.370	-0.180	1.670
2020/01/31 02:44:10.4	92.990	-0.340	-0.210	1.660
2020/01/31 02:44:10.5	92.990	-0.310	-0.250	1.630
2020/01/31 02:44:10.6	93.000	-0.270	-0.280	1.610
2020/01/31 02:44:10.7	93.000	-0.240	-0.310	1.580
2020/01/31 02:44:10.8	93.000	-0.210	-0.340	1.540
2020/01/31 02:44:10.9	93.000	-0.180	-0.360	1.500
2020/01/31 02:44:11.0	93.000	-0.160	-0.380	1.460
2020/01/31 02:44:11.1	93.020	-0.130	-0.390	1.420
2020/01/31 02:44:11.2	93.030	-0.110	-0.400	1.370
2020/01/31 02:44:11.3	93.030	-0.090	-0.400	1.320
2020/01/31 02:44:11.4	93.030	-0.070	-0.390	1.270
2020/01/31 02:44:11.5	93.030	-0.060	-0.370	1.220
2020/01/31 02:44:11.6	93.030	-0.050	-0.350	1.170
2020/01/31 02:44:11.7	93.030	-0.040	-0.320	1.110
2020/01/31 02:44:11.8	93.030	-0.030	-0.290	1.060
2020/01/31 02:44:11.9	93.030	-0.030	-0.250	1.010
2020/01/31 02:44:12.0	93.030	-0.030	-0.200	0.950
2020/01/31 02:44:12.1	93.040	-0.040	-0.150	0.900
2020/01/31 02:44:12.2	93.040	-0.050	-0.090	0.850
2020/01/31 02:44:12.3	93.040	-0.060	-0.030	0.800
2020/01/31 02:44:12.4	93.040	-0.070	0.030	0.750
2020/01/31 02:44:12.5	93.040	-0.080	0.090	0.700
2020/01/31 02:44:12.6	93.040	-0.100	0.150	0.660
2020/01/31 02:44:12.7	93.030	-0.110	0.210	0.610
2020/01/31 02:44:12.8	93.030	-0.130	0.260	0.570
2020/01/31 02:44:12.9	93.030	-0.150	0.310	0.530
2020/01/31 02:44:13.0	93.020	-0.160	0.360	0.490
2020/01/31 02:44:13.1	93.010	-0.180	0.400	0.450
2020/01/31 02:44:13.2	93.000	-0.190	0.430	0.410
2020/01/31 02:44:13.3	93.000	-0.200	0.450	0.380
2020/01/31 02:44:13.4	92.990	-0.210	0.460	0.350
2020/01/31 02:44:13.5	92.980	-0.210	0.460	0.320
2020/01/31 02:44:13.6	92.980	-0.210	0.450	0.290
2020/01/31 02:44:13.7	92.970	-0.200	0.430	0.260
2020/01/31 02:44:13.8	92.960	-0.200	0.400	0.240
2020/01/31 02:44:13.9	92.950	-0.180	0.350	0.210
2020/01/31 02:44:14.0	92.950	-0.160	0.290	0.190
2020/01/31 02:44:14.1	92.930	-0.140	0.220	0.160
2020/01/31 02:44:14.2	92.920	-0.100	0.140	0.130
2020/01/31 02:44:14.3	92.920	-0.070	0.050	0.110
2020/01/31 02:44:14.4	92.910	-0.030	-0.040	0.090
2020/01/31 02:44:14.5	92.910	0.020	-0.150	0.060
2020/01/31 02:44:14.6	92.910	0.070	-0.260	0.040
2020/01/31 02:44:14.7	92.920	0.130	-0.380	0.010
2020/01/31 02:44:14.8	92.920	0.190	-0.500	-0.010
2020/01/31 02:44:14.9	92.930	0.250	-0.620	-0.030
2020/01/31 02:44:15.0	92.930	0.310	-0.750	-0.050
2020/01/31 02:44:15.1	92.940	0.380	-0.870	-0.070
2020/01/31 02:44:15.2	92.950	0.450	-0.990	-0.080
2020/01/31 02:44:15.3	92.960	0.510	-1.100	-0.090
2020/01/31 02:44:15.4	92.970	0.580	-1.200	-0.100
2020/01/31 02:44:15.5	92.990	0.640	-1.290	-0.100
2020/01/31 02:44:15.6	92.990	0.700	-1.370	-0.090
2020/01/31 02:44:15.7	93.000	0.750	-1.440	-0.080
2020/01/31 02:44:15.8	93.010	0.800	-1.490	-0.060
2020/01/31 02:44:15.9	93.010	0.840	-1.530	-0.040
2020/01/31 02:44:16.0	93.010	0.880	-1.550	-0.010
2020/01/31 02:44:16.1	93.010	0.910	-1.550	0.030
2020/01/31 02:44:16.2	93.010	0.930	-1.540	0.060
2020/01/31 02:44:16.3	93.010	0.950	-1.510	0.100
2020/01/31 02:44:16.4	93.010	0.950	-1.460	0.140
2020/01/31 02:44:16.5	93.010	0.950	-1.400	0.180
2020/01/31 02:44:16.6	93.010	0.940	-1.320	0.230
2020/01/31 02:44:16.7	93.010	0.920	-1.230	0.270
2020/01/31 02:44:16.8	93.000	0.890	-1.130	0.320
2020/01/31 02:44:16.9	93.000	0.850	-1.010	0.360
2020/01/31 02:44:17.0	92.990	0.800	-0.880	0.410
2020/01/31 02:44:17.1	92.980	0.740	-0.730	0.450
2020/01/31 02:44:17.2	92.980	0.680	-0.590	0.500
2020/01/31 02:44:17.3	92.970	0.610	-0.440	0.550
2020/01/31 02:44:17.4	92.960	0.540	-0.280	0.590
2020/01/31 02:44:17.5	92.960	0.460	-0.130	0.630
2020/01/31 02:44:17.6	92.950	0.370	0.030	0.680
2020/01/31 02:44:17.7	92.950	0.280	0.180	0.720
2020/01/31 02:44:17.8	92.940	0.190	0.330	0.760
2020/01/31 02:44:17.9	92.940	0.100	0.480	0.800
2020/01/31 02:44:18.0	92.930	0.000	0.620	0.840
2020/01/31 02:44:18.1	92.930	-0.090	0.750	0.880
2020/01/31 02:44:18.2	92.920	-0.180	0.870	0.920
2020/01/31 02:44:18.3	92.920	-0.280	0.970	0.960
2020/01/31 02:44:18.4	92.910	-0.360	1.070	1.000
2020/01/31 02:44:18.5	92.910	-0.450	1.140	1.030
2020/01/31 02:44:18.6	92.900	-0.520	1.210	1.070
2020/01/31 02:44:18.7	92.890	-0.600	1.260	1.110
2020/01/31 02:44:18.8	92.890	-0.660	1.290	1.140
2020/01/31 02:44:18.9	92.880	-0.720	1.300	1.180
2020/01/31 02:44:19.0	92.870	-0.770	1.300	1.210
2020/01/31 02:44:19.1	92.870	-0.810	1.280	1.240
2020/01/31 02:44:19.2	92.860	-0.850	1.250	1.270
2020/01/31 02:44:19.3	92.850	-0.870	1.200	1.300
2020/01/31 02:44:19.4	92.840	-0.890	1.130	1.330
2020/01/31 02:44:19.5	92.820	-0.890	1.050	1.350
2020/01/31 02:44:19.6	92.810	-0.890	0.960	1.370
2020/01/31 02:44:19.7	92.800	-0.890	0.860	1.390
2020/01/31 02:44:19.8	92.790	-0.870	0.750	1.410
2020/01/31 02:44:19.9	92.780	-0.850	0.630	1.410
2020/01/31 02:44:20.0	92.770	-0.820	0.510	1.420
2020/01/31 02:44:20.1	92.750	-0.780	0.370	1.420
2020/01/31 02:44:20.2	92.740	-0.740	0.230	1.410
2020/01/31 02:44:20.3	92.740	-0.690	0.090	1.400
2020/01/31 02:44:20.4	92.730	-0.640	-0.040	1.390
2020/01/31 02:44:20.5	92.720	-0.580	-0.180	1.360
2020/01/31 02:44:20.6	92.720	-0.520	-0.320	1.340
2020/01/31 02:44:20.7	92.710	-0.460	-0.450	1.310
2020/01/31 02:44:20.8	92.710	-0.400	-0.580	1.290
2020/01/31 02:44:20.9	92.700	-0.330	-0.700	1.260
2020/01/31 02:44:21.0	92.700	-0.270	-0.820	1.230
2020/01/31 02:44:21.1	92.700	-0.200	-0.930	1.190
2020/01/31 02:44:21.2	92.700	-0.140	-1.030	1.170
2020/01/31 02:44:21.3	92.700	-0.070	-1.130	1.140
2020/01/31 02:44:21.4	92.700	-0.010	-1.210	1.120
2020/01/31 02:44:21.5	92.700	0.050	-1.280	1.100
2020/01/31 02:44:21.6	92.710	0.110	-1.340	1.080
2020/01/31 02:44:21.7	92.710	0.160	-1.390	1.060
2020/01/31 02:44:21.8	92.710	0.210	-1.430	1.040
2020/01/31 02:44:21.9	92.720	0.260	-1.450	1.030
2020/01/31 02:44:22.0	92.730	0.300	-1.460	1.020
2020/01/31 02:44:22.1	92.740	0.340	-1.460	1.010
2020/01/31 02:44:22.2	92.750	0.380	-1.450	1.000
2020/01/31 02:44:22.3	92.760	0.410	-1.430	1.000
2020/01/31 02:44:22.4	92.770	0.430	-1.390	0.990
2020/01/31 02:44:22.5	92.780	0.450	-1.350	0.990
2020/01/31 02:44:22.6	92.790	0.470	-1.290	0.980
2020/01/31 02:44:22.7	92.810	0.480	-1.230	0.970
2020/01/31 02:44:22.8	92.830	0.480	-1.150	0.960
2020/01/31 02:44:22.9	92.840	0.480	-1.070	0.950
2020/01/31 02:44:23.0	92.860	0.480	-0.990	0.940
2020/01/31 02:44:23.1	92.880	0.470	-0.890	0.930
2020/01/31 02:44:23.2	92.900	0.460	-0.800	0.920
2020/01/31 02:44:23.3	92.920	0.450	-0.700	0.900
2020/01/31 02:44:23.4	92.940	0.430	-0.600	0.890
2020/01/31 02:44:23.5	92.960	0.410	-0.490	0.870
2020/01/31 02:44:23.6	92.970	0.380	-0.390	0.860
2020/01/31 02:44:23.7	92.980	0.360	-0.290	0.840
2020/01/31 02:44:23.8	93.000	0.330	-0.190	0.830
2020/01/31 02:44:23.9	93.010	0.300	-0.090	0.810
2020/01/31 02:44:24.0	93.010	0.270	0.000	0.800
2020/01/31 02:44:24.1	93.000	0.240	0.100	0.790
2020/01/31 02:44:24.2	93.010	0.210	0.190	0.780
2020/01/31 02:44:24.3	93.010	0.170	0.270	0.770
2020/01/31 02:44:24.4	93.000	0.140	0.340	0.760
2020/01/31 02:44:24.5	93.000	0.110	0.410	0.760
2020/01/31 02:44:24.6	92.990	0.080	0.470	0.760
2020/01/31 02:44:24.7	92.980	0.050	0.530	0.750
2020/01/31 02:44:24.8	92.970	0.020	0.580	0.760
2020/01/31 02:44:24.9	92.960	-0.010	0.620	0.760
2020/01/31 02:44:25.0	92.950	-0.040	0.660	0.760
2020/01/31 02:44:25.1	92.940	-0.070	0.690	0.760
2020/01/31 02:44:25.2	92.920	-0.090	0.710	0.770
2020/01/31 02:44:25.3	92.910	-0.120	0.730	0.780
2020/01/31 02:44:25.4	92.900	-0.140	0.750	0.790
2020/01/31 02:44:25.5	92.880	-0.170	0.760	0.800
2020/01/31 02:44:25.6	92.870	-0.190	0.760	0.800
2020/01/31 02:44:25.7	92.860	-0.210	0.760	0.810
2020/01/31 02:44:25.8	92.850	-0.230	0.750	0.820
2020/01/31 02:44:25.9	92.840	-0.250	0.740	0.830
2020/01/31 02:44:26.0	92.830	-0.270	0.730	0.840
2020/01/31 02:44:26.1	92.810	-0.280	0.710	0.840
2020/01/31 02:44:26.2	92.800	-0.290	0.680	0.850
2020/01/31 02:44:26.3	92.790	-0.310	0.650	0.850
2020/01/31 02:44:26.4	92.790	-0.320	0.620	0.850
2020/01/31 02:44:26.5	92.780	-0.330	0.580	0.850
2020/01/31 02:44:26.6	92.780	-0.330	0.540	0.840
2020/01/31 02:44:26.7	92.770	-0.340	0.490	0.840
2020/01/31 02:44:26.8	92.770	-0.340	0.440	0.830
2020/01/31 02:44:26.9	92.770	-0.340	0.390	0.820
2020/01/31 02:44:27.0	92.770	-0.330	0.330	0.810
2020/01/31 02:44:27.1	92.780	-0.330	0.260	0.790
2020/01/31 02:44:27.2	92.780	-0.320	0.190	0.780
2020/01/31 02:44:27.3	92.780	-0.310	0.120	0.760
2020/01/31 02:44:27.4	92.780	-0.290	0.040	0.750
2020/01/31 02:44:27.5	92.790	-0.270	-0.040	0.730
2020/01/31 02:44:27.6	92.790	-0.250	-0.120	0.720
2020/01/31 02:44:27.7	92.800	-0.230	-0.200	0.700
2020/01/31 02:44:27.8	92.810	-0.210	-0.280	0.680
2020/01/31 02:44:27.9	92.810	-0.180	-0.370	0.660
2020/01/31 02:44:28.0	92.820	-0.150	-0.450	0.650
2020/01/31 02:44:28.1	92.840	-0.120	-0.540	0.630
2020/01/31 02:44:28.2	92.840	-0.090	-0.620	0.620
2020/01/31 02:44:28.3	92.850	-0.060	-0.710	0.610
2020/01/31 02:44:28.4	92.860	-0.020	-0.790	0.600
2020/01/31 02:44:28.5	92.870	0.010	-0.870	0.590
2020/01/31 02:44:28.6	92.870	0.050	-0.940	0.590
2020/01/31 02:44:28.7	92.880	0.080	-1.010	0.590
2020/01/31 02:44:28.8	92.880	0.120	-1.070	0.590
2020/01/31 02:44:28.9	92.890	0.150	-1.130	0.590
2020/01/31 02:44:29.0	92.890	0.180	-1.180	0.600
2020/01/31 02:44:29.1	92.880	0.210	-1.220	0.610
2020/01/31 02:44:29.2	92.880	0.240	-1.260	0.630
2020/01/31 02:44:29.3	92.880	0.270	-1.280	0.650
2020/01/31 02:44:29.4	92.880	0.290	-1.300	0.670
2020/01/31 02:44:29.5	92.870	0.310	-1.300	0.700
2020/01/31 02:44:29.6	92.870	0.330	-1.300	0.730
2020/01/31 02:44:29.7	92.860	0.350	-1.280	0.760
2020/01/31 02:44:29.8	92.850	0.360	-1.260	0.800
2020/01/31 02:44:29.9	92.840	0.360	-1.230	0.830
2020/01/31 02:44:30.0	92.820	0.370	-1.180	0.870
2020/01/31 02:44:30.1	92.810	0.370	-1.130	0.920
2020/01/31 02:44:30.2	92.790	0.370	-1.070	0.960
2020/01/31 02:44:30.3	92.780	0.360	-1.010	1.000
2020/01/31 02:44:30.4	92.760	0.350	-0.930	1.040
2020/01/31 02:44:30.5	92.750	0.330	-0.850	1.090
2020/01/31 02:44:30.6	92.730	0.320	-0.770	1.130
2020/01/31 02:44:30.7	92.710	0.300	-0.680	1.170
2020/01/31 02:44:30.8	92.700	0.270	-0.590	1.210
2020/01/31 02:44:30.9	92.680	0.250	-0.500	1.250
2020/01/31 02:44:31.0	92.670	0.220	-0.400	1.290
2020/01/31 02:44:31.1	92.650	0.190	-0.300	1.330
2020/01/31 02:44:31.2	92.640	0.160	-0.210	1.360
2020/01/31 02:44:31.3	92.630	0.130	-0.120	1.390
2020/01/31 02:44:31.4	92.620	0.100	-0.030	1.420
2020/01/31 02:44:31.5	92.610	0.070	0.050	1.440
2020/01/31 02:44:31.6	92.610	0.030	0.130	1.460
2020/01/31 02:44:31.7	92.600	0.000	0.200	1.480
2020/01/31 02:44:31.8	92.600	-0.030	0.270	1.490
2020/01/31 02:44:31.9	92.600	-0.060	0.330	1.490
2020/01/31 02:44:32.0	92.600	-0.090	0.380	1.500
2020/01/31 02:44:32.1	92.610	-0.120	0.430	1.500
2020/01/31 02:44:32.2	92.620	-0.150	0.470	1.500
2020/01/31 02:44:32.3	92.620	-0.170	0.500	1.490
2020/01/31 02:44:32.4	92.620	-0.190	0.520	1.470
2020/01/31 02:44:32.5	92.630	-0.210	0.540	1.460
2020/01/31 02:44:32.6	92.630	-0.230	0.540	1.440
2020/01/31 02:44:32.7	92.640	-0.240	0.540	1.420
2020/01/31 02:44:32.8	92.640	-0.250	0.530	1.390
2020/01/31 02:44:32.9	92.650	-0.250	0.500	1.370
2020/01/31 02:44:33.0	92.650	-0.260	0.470	1.340
2020/01/31 02:44:33.1	92.650	-0.250	0.440	1.310
2020/01/31 02:44:33.2	92.660	-0.250	0.390	1.280
2020/01/31 02:44:33.3	92.660	-0.240	0.340	1.250
2020/01/31 02:44:33.4	92.660	-0.230	0.280	1.220
2020/01/31 02:44:33.5	92.660	-0.210	0.220	1.190
2020/01/31 02:44:33.6	92.660	-0.190	0.160	1.160
2020/01/31 02:44:33.7	92.650	-0.170	0.090	1.130
2020/01/31 02:44:33.8	92.650	-0.150	0.020	1.100
2020/01/31 02:44:33.9	92.640	-0.130	-0.050	1.080
2020/01/31 02:44:34.0	92.630	-0.100	-0.110	1.050
2020/01/31 02:44:34.1	92.620	-0.080	-0.180	1.020
2020/01/31 02:44:34.2	92.610	-0.050	-0.240	1.000
2020/01/31 02:44:34.3	92.600	-0.020	-0.300	0.970
2020/01/31 02:44:34.4	92.600	0.000	-0.350	0.950
2020/01/31 02:44:34.5	92.590	0.030	-0.400	0.920
2020/01/31 02:44:34.6	92.580	0.050	-0.450	0.890
2020/01/31 02:44:34.7	92.570	0.070	-0.480	0.870
2020/01/31 02:44:34.8	92.560	0.090	-0.510	0.840
2020/01/31 02:44:34.9	92.550	0.110	-0.530	0.820
2020/01/31 02:44:35.0	92.550	0.130	-0.550	0.790
2020/01/31 02:44:35.1	92.550	0.140	-0.560	0.770
2020/01/31 02:44:35.2	92.550	0.150	-0.560	0.750
2020/01/31 02:44:35.3	92.550	0.160	-0.560	0.720
2020/01/31 02:44:35.4	92.550	0.160	-0.550	0.700
2020/01/31 02:44:35.5	92.550	0.160	-0.530	0.670
2020/01/31 02:44:35.6	92.550	0.160	-0.500	0.650
2020/01/31 02:44:35.7	92.550	0.160	-0.480	0.630
2020/01/31 02:44:35.8	92.560	0.160	-0.440	0.600
2020/01/31 02:44:35.9	92.560	0.150	-0.410	0.580
2020/01/31 02:44:36.0	92.570	0.140	-0.370	0.560
2020/01/31 02:44:36.1	92.580	0.130	-0.320	0.540
2020/01/31 02:44:36.2	92.590	0.120	-0.280	0.520
2020/01/31 02:44:36.3	92.600	0.100	-0.230	0.510
2020/01/31 02:44:36.4	92.610	0.090	-0.180	0.490
2020/01/31 02:44:36.5	92.620	0.070	-0.140	0.480
2020/01/31 02:44:36.6	92.630	0.060	-0.090	0.460
2020/01/31 02:44:36.7	92.640	0.040	-0.050	0.450
2020/01/31 02:44:36.8	92.650	0.020	-0.010	0.440
2020/01/31 02:44:36.9	92.660	0.010	0.030	0.440
2020/01/31 02:44:37.0	92.670	-0.010	0.070	0.430
2020/01/31 02:44:37.1	92.670	-0.020	0.100	0.430
2020/01/31 02:44:37.2	92.680	-0.040	0.120	0.420
2020/01/31 02:44:37.3	92.690	-0.050	0.140	0.420
2020/01/31 02:44:37.4	92.690	-0.060	0.160	0.420
2020/01/31 02:44:37.5	92.700	-0.070	0.170	0.420
2020/01/31 02:44:37.6	92.700	-0.080	0.170	0.430
2020/01/31 02:44:37.7	92.700	-0.080	0.170	0.430
2020/01/31 02:44:37.8	92.700	-0.080	0.160	0.440
2020/01/31 02:44:37.9	92.710	-0.080	0.140	0.450
2020/01/31 02:44:38.0	92.710	-0.080	0.120	0.460
2020/01/31 02:44:38.1	92.700	-0.070	0.100	0.470
2020/01/31 02:44:38.2	92.700	-0.060	0.060	0.480
2020/01/31 02:44:38.3	92.700	-0.050	0.020	0.490
2020/01/31 02:44:38.4	92.700	-0.040	-0.020	0.510
2020/01/31 02:44:38.5	92.700	-0.020	-0.070	0.520
2020/01/31 02:44:38.6	92.700	0.000	-0.120	0.540
2020/01/31 02:44:38.7	92.700	0.020	-0.180	0.560
2020/01/31 02:44:38.8	92.700	0.050	-0.230	0.580
2020/01/31 02:44:38.9	92.690	0.070	-0.290	0.600
2020/01/31 02:44:39.0	92.690	0.100	-0.350	0.620
2020/01/31 02:44:39.1	92.680	0.130	-0.420	0.640
2020/01/31 02:44:39.2	92.670	0.160	-0.470	0.670
2020/01/31 02:44:39.3	92.660	0.180	-0.530	0.700
2020/01/31 02:44:39.4	92.660	0.210	-0.580	0.730
2020/01/31 02:44:39.5	92.650	0.240	-0.630	0.760
2020/01/31 02:44:39.6	92.630	0.260	-0.670	0.800
2020/01/31 02:44:39.7	92.620	0.290	-0.710	0.830
2020/01/31 02:44:39.8	92.610	0.310	-0.740	0.870
2020/01/31 02:44:39.9	92.590	0.330	-0.760	0.900
2020/01/31 02:44:40.0	92.580	0.340	-0.780	0.940
2020/01/31 02:44:40.1	92.560	0.360	-0.790	0.980
2020/01/31 02:44:40.2	92.540	0.370	-0.790	1.020
2020/01/31 02:44:40.3	92.530	0.370	-0.780	1.050
2020/01/31 02:44:40.4	92.510	0.370	-0.760	1.090
2020/01/31 02:44:40.5	92.500	0.370	-0.740	1.120
2020/01/31 02:44:40.6	92.480	0.360	-0.710	1.150
2020/01/31 02:44:40.7	92.470	0.340	-0.670	1.180
2020/01/31 02:44:40.8	92.460	0.330	-0.620	1.210
2020/01/31 02:44:40.9	92.440	0.300	-0.570	1.230
2020/01/31 02:44:41.0	92.430	0.280	-0.510	1.250
2020/01/31 02:44:41.1	92.410	0.250	-0.440	1.270
2020/01/31 02:44:41.2	92.400	0.210	-0.370	1.290
2020/01/31 02:44:41.3	92.390	0.170	-0.290	1.300
2020/01/31 02:44:41.4	92.390	0.130	-0.220	1.310
2020/01/31 02:44:41.5	92.380	0.080	-0.140	1.320
2020/01/31 02:44:41.6	92.370	0.040	-0.060	1.320
2020/01/31 02:44:41.7	92.360	-0.010	0.020	1.320
2020/01/31 02:44:41.8	92.360	-0.060	0.090	1.320
2020/01/31 02:44:41.9	92.350	-0.120	0.170	1.310
2020/01/31 02:44:42.0	92.340	-0.170	0.240	1.300
2020/01/31 02:44:42.1	92.340	-0.220	0.310	1.290
2020/01/31 02:44:42.2	92.330	-0.270	0.370	1.280
2020/01/31 02:44:42.3	92.320	-0.320	0.420	1.260
2020/01/31 02:44:42.4	92.320	-0.370	0.470	1.250
2020/01/31 02:44:42.5	92.310	-0.410	0.510	1.230
2020/01/31 02:44:42.6	92.310	-0.450	0.540	1.220
2020/01/31 02:44:42.7	92.310	-0.490	0.560	1.200
2020/01/31 02:44:42.8	92.300	-0.520	0.570	1.190
2020/01/31 02:44:42.9	92.300	-0.550	0.580	1.170
2020/01/31 02:44:43.0	92.300	-0.570	0.570	1.160
2020/01/31 02:44:43.1	92.300	-0.590	0.560	1.150
2020/01/31 02:44:43.2	92.300	-0.600	0.540	1.130
2020/01/31 02:44:43.3	92.300	-0.610	0.510	1.120
2020/01/31 02:44:43.4	92.300	-0.610	0.470	1.110
2020/01/31 02:44:43.5	92.300	-0.610	0.420	1.100
2020/01/31 02:44:43.6	92.310	-0.600	0.370	1.090
2020/01/31 02:44:43.7	92.310	-0.590	0.300	1.080
2020/01/31 02:44:43.8	92.320	-0.570	0.240	1.070
2020/01/31 02:44:43.9	92.320	-0.540	0.160	1.060
2020/01/31 02:44:44.0	92.330	-0.520	0.090	1.050
2020/01/31 02:44:44.1	92.330	-0.480	0.000	1.030
2020/01/31 02:44:44.2	92.340	-0.450	-0.080	1.010
2020/01/31 02:44:44.3	92.340	-0.410	-0.170	0.990
2020/01/31 02:44:44.4	92.350	-0.360	-0.260	0.970
2020/01/31 02:44:44.5	92.350	-0.320	-0.350	0.940
2020/01/31 02:44:44.6	92.360	-0.270	-0.430	0.910
2020/01/31 02:44:44.7	92.370	-0.220	-0.520	0.890
2020/01/31 02:44:44.8	92.370	-0.170	-0.610	0.850
2020/01/31 02:44:44.9	92.370	-0.110	-0.690	0.820
2020/01/31 02:44:45.0	92.380	-0.060	-0.770	0.790
2020/01/31 02:44:45.1	92.380	-0.000	-0.850	0.760
2020/01/31 02:44:45.2	92.390	0.050	-0.920	0.730
2020/01/31 02:44:45.3	92.390	0.100	-0.980	0.700
2020/01/31 02:44:45.4	92.380	0.160	-1.040	0.670
2020/01/31 02:44:45.5	92.380	0.210	-1.090	0.650
2020/01/31 02:44:45.6	92.370	0.250	-1.130	0.630
2020/01/31 02:44:45.7	92.370	0.300	-1.160	0.620
2020/01/31 02:44:45.8	92.360	0.340	-1.190	0.610
2020/01/31 02:44:45.9	92.350	0.380	-1.200	0.600
2020/01/31 02:44:46.0	92.330	0.420	-1.210	0.600
2020/01/31 02:44:46.1	92.320	0.450	-1.200	0.600
2020/01/31 02:44:46.2	92.300	0.480	-1.190	0.610
2020/01/31 02:44:46.3	92.280	0.510	-1.170	0.630
2020/01/31 02:44:46.4	92.260	0.530	-1.140	0.650
2020/01/31 02:44:46.5	92.240	0.540	-1.100	0.670
2020/01/31 02:44:46.6	92.210	0.550	-1.050	0.700
2020/01/31 02:44:46.7	92.190	0.550	-1.000	0.730
2020/01/31 02:44:46.8	92.160	0.550	-0.930	0.760
2020/01/31 02:44:46.9	92.130	0.550	-0.860	0.790
2020/01/31 02:44:47.0	92.100	0.540	-0.790	0.820
2020/01/31 02:44:47.1	92.070	0.520	-0.710	0.860
2020/01/31 02:44:47.2	92.040	0.500	-0.620	0.890
2020/01/31 02:44:47.3	92.020	0.480	-0.530	0.910
2020/01/31 02:44:47.4	91.990	0.450	-0.440	0.940
2020/01/31 02:44:47.5	91.960	0.420	-0.350	0.960
2020/01/31 02:44:47.6	91.940	0.390	-0.250	0.970
2020/01/31 02:44:47.7	91.910	0.350	-0.160	0.990
2020/01/31 02:44:47.8	91.890	0.310	-0.070	1.000
2020/01/31 02:44:47.9	91.870	0.270	0.020	1.010
2020/01/31 02:44:48.0	91.850	0.220	0.110	1.010
2020/01/31 02:44:48.1	91.840	0.180	0.200	1.000
2020/01/31 02:44:48.2	91.830	0.130	0.270	1.000
2020/01/31 02:44:48.3	91.810	0.090	0.350	0.990
2020/01/31 02:44:48.4	91.800	0.040	0.410	0.980
2020/01/31 02:44:48.5	91.800	0.000	0.470	0.970
2020/01/31 02:44:48.6	91.790	-0.040	0.520	0.950
2020/01/31 02:44:48.7	91.790	-0.080	0.570	0.940
2020/01/31 02:44:48.8	91.780	-0.120	0.600	0.920
2020/01/31 02:44:48.9	91.790	-0.160	0.630	0.900
2020/01/31 02:44:49.0	91.790	-0.190	0.650	0.880
2020/01/31 02:44:49.1	91.790	-0.220	0.660	0.860
2020/01/31 02:44:49.2	91.790	-0.250	0.670	0.840
2020/01/31 02:44:49.3	91.800	-0.280	0.660	0.830
2020/01/31 02:44:49.4	91.800	-0.300	0.650	0.810
2020/01/31 02:44:49.5	91.810	-0.320	0.640	0.800
2020/01/31 02:44:49.6	91.810	-0.330	0.620	0.780
2020/01/31 02:44:49.7	91.820	-0.350	0.600	0.770
2020/01/31 02:44:49.8	91.830	-0.360	0.570	0.760
2020/01/31 02:44:49.9	91.830	-0.370	0.530	0.750
2020/01/31 02:44:50.0	91.840	-0.370	0.500	0.740
2020/01/31 02:44:50.1	91.850	-0.380	0.460	0.730
2020/01/31 02:44:50.2	91.860	-0.380	0.420	0.720
2020/01/31 02:44:50.3	91.870	-0.380	0.370	0.710
2020/01/31 02:44:50.4	91.880	-0.370	0.330	0.700
2020/01/31 02:44:50.5	91.880	-0.370	0.280	0.690
2020/01/31 02:44:50.6	91.890	-0.360	0.230	0.680
2020/01/31 02:44:50.7	91.900	-0.350	0.180	0.670
2020/01/31 02:44:50.8	91.910	-0.340	0.130	0.660
2020/01/31 02:44:50.9	91.920	-0.330	0.080	0.650
2020/01/31 02:44:51.0	91.920	-0.320	0.030	0.640
2020/01/31 02:44:51.1	91.930	-0.300	-0.030	0.620
2020/01/31 02:44:51.2	91.940	-0.280	-0.080	0.620
2020/01/31 02:44:51.3	91.940	-0.270	-0.130	0.610
2020/01/31 02:44:51.4	91.950	-0.250	-0.190	0.610
2020/01/31 02:44:51.5	91.950	-0.220	-0.240	0.610
2020/01/31 02:44:51.6	91.950	-0.200	-0.290	0.620
2020/01/31 02:44:51.7	91.960	-0.180	-0.330	0.620
2020/01/31 02:44:51.8	91.960	-0.150	-0.380	0.630
2020/01/31 02:44:51.9	91.960	-0.130	-0.430	0.640
2020/01/31 02:44:52.0	91.960	-0.100	-0.470	0.650
2020/01/31 02:44:52.1	91.960	-0.070	-0.510	0.670
2020/01/31 02:44:52.2	91.960	-0.050	-0.550	0.680
2020/01/31 02:44:52.3	91.960	-0.020	-0.580	0.700
2020/01/31 02:44:52.4	91.970	0.010	-0.620	0.720
2020/01/31 02:44:52.5	91.970	0.030	-0.650	0.730
2020/01/31 02:44:52.6	91.980	0.060	-0.670	0.750
2020/01/31 02:44:52.7	91.990	0.090	-0.690	0.770
2020/01/31 02:44:52.8	92.000	0.110	-0.710	0.790
2020/01/31 02:44:52.9	92.010	0.130	-0.730	0.810
2020/01/31 02:44:53.0	92.020	0.160	-0.740	0.830
2020/01/31 02:44:53.1	92.030	0.180	-0.750	0.850
2020/01/31 02:44:53.2	92.040	0.190	-0.760	0.880
2020/01/31 02:44:53.3	92.060	0.210	-0.760	0.900
2020/01/31 02:44:53.4	92.070	0.230	-0.760	0.920
2020/01/31 02:44:53.5	92.090	0.240	-0.750	0.950
2020/01/31 02:44:53.6	92.100	0.250	-0.740	0.970
2020/01/31 02:44:53.7	92.120	0.260	-0.730	0.990
2020/01/31 02:44:53.8	92.130	0.260	-0.710	1.020
2020/01/31 02:44:53.9	92.140	0.270	-0.690	1.040
2020/01/31 02:44:54.0	92.150	0.270	-0.670	1.070
2020/01/31 02:44:54.1	92.160	0.270	-0.640	1.090
2020/01/31 02:44:54.2	92.170	0.260	-0.610	1.110
2020/01/31 02:44:54.3	92.170	0.260	-0.590	1.140
2020/01/31 02:44:54.4	92.170	0.250	-0.560	1.160
2020/01/31 02:44:54.5	92.170	0.240	-0.520	1.180
2020/01/31 02:44:54.6	92.170	0.230	-0.490	1.200
2020/01/31 02:44:54.7	92.160	0.220	-0.460	1.220
2020/01/31 02:44:54.8	92.150	0.200	-0.420	1.240
2020/01/31 02:44:54.9	92.130	0.190	-0.380	1.250
2020/01/31 02:44:55.0	92.110	0.170	-0.350	1.260
2020/01/31 02:44:55.1	92.100	0.150	-0.310	1.280
2020/01/31 02:44:55.2	92.070	0.140	-0.270	1.290
2020/01/31 02:44:55.3	92.050	0.120	-0.230	1.300
2020/01/31 02:44:55.4	92.020	0.100	-0.190	1.300
2020/01/31 02:44:55.5	91.990	0.080	-0.140	1.310
2020/01/31 02:44:55.6	91.960	0.060	-0.100	1.310
2020/01/31 02:44:55.7	91.930	0.040	-0.060	1.320
2020/01/31 02:44:55.8	91.900	0.020	-0.020	1.320
2020/01/31 02:44:55.9	91.870	0.010	0.020	1.320
2020/01/31 02:44:56.0	91.840	-0.010	0.050	1.310
2020/01/31 02:44:56.1	91.810	-0.030	0.090	1.310
2020/01/31 02:44:56.2	91.780	-0.040	0.120	1.300
2020/01/31 02:44:56.3	91.750	-0.060	0.150	1.290
2020/01/31 02:44:56.4	91.730	-0.070	0.170	1.280
2020/01/31 02:44:56.5	91.700	-0.080	0.190	1.270
2020/01/31 02:44:56.6	91.680	-0.090	0.210	1.260
2020/01/31 02:44:56.7	91.660	-0.090	0.210	1.250
2020/01/31 02:44:56.8	91.650	-0.100	0.220	1.230
2020/01/31 02:44:56.9	91.630	-0.100	0.210	1.210
2020/01/31 02:44:57.0	91.620	-0.100	0.200	1.200
2020/01/31 02:44:57.1	91.610	-0.090	0.190	1.180
2020/01/31 02:44:57.2	91.610	-0.090	0.160	1.150
2020/01/31 02:44:57.3	91.600	-0.080	0.130	1.130
2020/01/31 02:44:57.4	91.600	-0.070	0.100	1.110
2020/01/31 02:44:57.5	91.610	-0.060	0.060	1.080
2020/01/31 02:44:57.6	91.610	-0.040	0.010	1.060
2020/01/31 02:44:57.7	91.610	-0.030	-0.040	1.030
2020/01/31 02:44:57.8	91.620	-0.010	-0.100	1.000
2020/01/31 02:44:57.9	91.630	0.010	-0.150	0.970
2020/01/31 02:44:58.0	91.640	0.030	-0.210	0.940
2020/01/31 02:44:58.1	91.650	0.050	-0.280	0.900
2020/01/31 02:44:58.2	91.660	0.070	-0.340	0.870
2020/01/31 02:44:58.3	91.680	0.090	-0.400	0.840
2020/01/31 02:44:58.4	91.690	0.110	-0.460	0.800
2020/01/31 02:44:58.5	91.710	0.130	-0.520	0.760
2020/01/31 02:44:58.6	91.720	0.150	-0.570	0.730
2020/01/31 02:44:58.7	91.740	0.160	-0.620	0.690
2020/01/31 02:44:58.8	91.750	0.180	-0.660	0.650
2020/01/31 02:44:58.9	91.770	0.190	-0.700	0.620
2020/01/31 02:44:59.0	91.780	0.210	-0.730	0.580
2020/01/31 02:44:59.1	91.800	0.220	-0.750	0.550
2020/01/31 02:44:59.2	91.820	0.230	-0.760	0.520
2020/01/31 02:44:59.3	91.830	0.230	-0.770	0.490
2020/01/31 02:44:59.4	91.850	0.230	-0.770	0.460
2020/01/31 02:44:59.5	91.860	0.240	-0.750	0.440
2020/01/31 02:44:59.6	91.870	0.230	-0.740	0.420
2020/01/31 02:44:59.7	91.890	0.230	-0.710	0.400
2020/01/31 02:44:59.8	91.900	0.220	-0.680	0.390
2020/01/31 02:44:59.9	91.910	0.210	-0.640	0.370
2020/01/31 02:45:00.0	91.930	0.200	-0.590	0.370
2020/01/31 02:45:00.1	91.930	0.180	-0.550	0.360
2020/01/31 02:45:00.2	91.940	0.170	-0.490	0.350
2020/01/31 02:45:00.3	91.960	0.150	-0.430	0.360
2020/01/31 02:45:00.4	91.970	0.130	-0.370	0.360
2020/01/31 02:45:00.5	91.980	0.100	-0.310	0.370
2020/01/31 02:45:00.6	91.990	0.080	-0.240	0.370
2020/01/31 02:45:00.7	92.000	0.050	-0.170	0.390
2020/01/31 02:45:00.8	92.010	0.030	-0.110	0.400
2020/01/31 02:45:00.9	92.020	0.000	-0.040	0.420
2020/01/31 02:45:01.0	92.030	-0.020	0.020	0.440
2020/01/31 02:45:01.1	92.020	-0.050	0.090	0.460
2020/01/31 02:45:01.2	92.030	-0.080	0.150	0.490
2020/01/31 02:45:01.3	92.040	-0.110	0.200	0.510
2020/01/31 02:45:01.4	92.050	-0.130	0.260	0.540
2020/01/31 02:45:01.5	92.050	-0.160	0.310	0.570
2020/01/31 02:45:01.6	92.060	-0.180	0.360	0.600
2020/01/31 02:45:01.7	92.060	-0.210	0.400	0.630
2020/01/31 02:45:01.8	92.070	-0.230	0.440	0.660
2020/01/31 02:45:01.9	92.070	-0.260	0.470	0.690
2020/01/31 02:45:02.0	92.070	-0.280	0.500	0.710
2020/01/31 02:45:02.1	92.070	-0.300	0.520	0.740
2020/01/31 02:45:02.2	92.070	-0.320	0.530	0.770
2020/01/31 02:45:02.3	92.070	-0.340	0.550	0.800
2020/01/31 02:45:02.4	92.070	-0.350	0.550	0.830
2020/01/31 02:45:02.5	92.060	-0.370	0.550	0.850
2020/01/31 02:45:02.6	92.060	-0.380	0.550	0.880
2020/01/31 02:45:02.7	92.060	-0.390	0.530	0.900
2020/01/31 02:45:02.8	92.050	-0.400	0.520	0.920
2020/01/31 02:45:02.9	92.050	-0.400	0.490	0.940
2020/01/31 02:45:03.0	92.040	-0.410	0.460	0.960
2020/01/31 02:45:03.1	92.030	-0.410	0.420	0.970
2020/01/31 02:45:03.2	92.020	-0.410	0.380	0.990
2020/01/31 02:45:03.3	92.010	-0.400	0.330	0.990
2020/01/31 02:45:03.4	92.010	-0.400	0.280	1.000
2020/01/31 02:45:03.5	92.000	-0.390	0.220	1.010
2020/01/31 02:45:03.6	91.990	-0.380	0.160	1.010
2020/01/31 02:45:03.7	91.980	-0.360	0.100	1.010
2020/01/31 02:45:03.8	91.970	-0.340	0.030	1.010
2020/01/31 02:45:03.9	91.960	-0.320	-0.050	1.000
2020/01/31 02:45:04.0	91.950	-0.300	-0.120	1.000
2020/01/31 02:45:04.1	91.930	-0.280	-0.200	0.990
2020/01/31 02:45:04.2	91.920	-0.250	-0.280	0.980
2020/01/31 02:45:04.3	91.910	-0.220	-0.360	0.970
2020/01/31 02:45:04.4	91.900	-0.190	-0.430	0.950
2020/01/31 02:45:04.5	91.890	-0.160	-0.510	0.940
2020/01/31 02:45:04.6	91.880	-0.120	-0.590	0.930
2020/01/31 02:45:04.7	91.880	-0.080	-0.670	0.910
2020/01/31 02:45:04.8	91.870	-0.050	-0.740	0.900
2020/01/31 02:45:04.9	91.860	-0.010	-0.810	0.880
2020/01/31 02:45:05.0	91.860	0.030	-0.870	0.860
2020/01/31 02:45:05.1	91.850	0.070	-0.940	0.850
2020/01/31 02:45:05.2	91.850	0.110	-0.990	0.840
2020/01/31 02:45:05.3	91.840	0.150	-1.050	0.820
2020/01/31 02:45:05.4	91.840	0.190	-1.090	0.800
2020/01/31 02:45:05.5	91.840	0.230	-1.130	0.790
2020/01/31 02:45:05.6	91.840	0.260	-1.160	0.770
2020/01/31 02:45:05.7	91.840	0.300	-1.180	0.750
2020/01/31 02:45:05.8	91.840	0.330	-1.200	0.730
2020/01/31 02:45:05.9	91.850	0.360	-1.210	0.710
2020/01/31 02:45:06.0	91.850	0.390	-1.210	0.680
2020/01/31 02:45:06.1	91.850	0.410	-1.200	0.660
2020/01/31 02:45:06.2	91.870	0.430	-1.180	0.640
2020/01/31 02:45:06.3	91.880	0.450	-1.160	0.610
2020/01/31 02:45:06.4	91.890	0.460	-1.130	0.590
2020/01/31 02:45:06.5	91.900	0.470	-1.090	0.570
2020/01/31 02:45:06.6	91.920	0.480	-1.040	0.550
2020/01/31 02:45:06.7	91.930	0.480	-0.980	0.540
2020/01/31 02:45:06.8	91.950	0.480	-0.920	0.530
2020/01/31 02:45:06.9	91.960	0.470	-0.840	0.520
2020/01/31 02:45:07.0	91.980	0.460	-0.770	0.510
2020/01/31 02:45:07.1	92.000	0.440	-0.680	0.510
2020/01/31 02:45:07.2	92.010	0.420	-0.590	0.510
2020/01/31 02:45:07.3	92.020	0.390	-0.490	0.510
2020/01/31 02:45:07.4	92.040	0.370	-0.400	0.520
2020/01/31 02:45:07.5	92.050	0.330	-0.290	0.520
2020/01/31 02:45:07.6	92.050	0.300	-0.190	0.530
2020/01/31 02:45:07.7	92.060	0.260	-0.090	0.540
2020/01/31 02:45:07.8	92.070	0.220	0.020	0.560
2020/01/31 02:45:07.9	92.070	0.180	0.120	0.570
2020/01/31 02:45:08.0	92.080	0.130	0.220	0.590
2020/01/31 02:45:08.1	92.070	0.080	0.320	0.600
2020/01/31 02:45:08.2	92.070	0.040	0.410	0.620
2020/01/31 02:45:08.3	92.070	-0.010	0.490	0.640
2020/01/31 02:45:08.4	92.070	-0.060	0.570	0.650
2020/01/31 02:45:08.5	92.070	-0.110	0.640	0.670
2020/01/31 02:45:08.6	92.070	-0.150	0.710	0.690
2020/01/31 02:45:08.7	92.060	-0.200	0.760	0.700
2020/01/31 02:45:08.8	92.060	-0.240	0.810	0.720
2020/01/31 02:45:08.9	92.060	-0.280	0.840	0.730
2020/01/31 02:45:09.0	92.050	-0.310	0.870	0.750
2020/01/31 02:45:09.1	92.040	-0.350	0.880	0.760
2020/01/31 02:45:09.2	92.040	-0.380	0.890	0.770
2020/01/31 02:45:09.3	92.030	-0.400	0.880	0.780
2020/01/31 02:45:09.4	92.030	-0.430	0.860	0.790
2020/01/31 02:45:09.5	92.020	-0.450	0.830	0.800
2020/01/31 02:45:09.6	92.020	-0.460	0.800	0.800
2020/01/31 02:45:09.7	92.020	-0.470	0.750	0.810
2020/01/31 02:45:09.8	92.010	-0.480	0.700	0.820
2020/01/31 02:45:09.9	92.010	-0.490	0.640	0.840
2020/01/31 02:45:10.0	92.000	-0.490	0.570	0.850
2020/01/31 02:45:10.1	91.990	-0.480	0.500	0.860
2020/01/31 02:45:10.2	91.990	-0.480	0.420	0.870
2020/01/31 02:45:10.3	91.990	-0.470	0.340	0.880
2020/01/31 02:45:10.4	91.980	-0.450	0.250	0.900
2020/01/31 02:45:10.5	91.980	-0.440	0.170	0.910
2020/01/31 02:45:10.6	91.980	-0.420	0.080	0.920
2020/01/31 02:45:10.7	91.980	-0.400	-0.010	0.930
2020/01/31 02:45:10.8	91.980	-0.370	-0.100	0.940
2020/01/31 02:45:10.9	91.980	-0.350	-0.190	0.950
2020/01/31 02:45:11.0	91.980	-0.320	-0.280	0.950
2020/01/31 02:45:11.1	91.990	-0.290	-0.370	0.960
2020/01/31 02:45:11.2	91.990	-0.260	-0.450	0.970
2020/01/31 02:45:11.3	91.990	-0.220	-0.540	0.970
2020/01/31 02:45:11.4	91.990	-0.190	-0.620	0.970
2020/01/31 02:45:11.5	91.990	-0.150	-0.690	0.970
2020/01/31 02:45:11.6	91.990	-0.120	-0.760	0.960
2020/01/31 02:45:11.7	91.990	-0.080	-0.830	0.960
2020/01/31 02:45:11.8	91.990	-0.050	-0.890	0.960
2020/01/31 02:45:11.9	92.000	-0.010	-0.940	0.950
2020/01/31 02:45:12.0	92.000	0.020	-0.990	0.950
2020/01/31 02:45:12.1	92.000	0.060	-1.030	0.950
2020/01/31 02:45:12.2	92.000	0.090	-1.070	0.940
2020/01/31 02:45:12.3	92.000	0.120	-1.100	0.940
2020/01/31 02:45:12.4	92.010	0.150	-1.120	0.940
2020/01/31 02:45:12.5	92.010	0.180	-1.130	0.940
2020/01/31 02:45:12.6	92.010	0.210	-1.130	0.930
2020/01/31 02:45:12.7	92.010	0.230	-1.130	0.930
2020/01/31 02:45:12.8	92.020	0.260	-1.120	0.940
2020/01/31 02:45:12.9	92.020	0.280	-1.100	0.940
2020/01/31 02:45:13.0	92.020	0.300	-1.080	0.940
2020/01/31 02:45:13.1	92.020	0.320	-1.050	0.950
2020/01/31 02:45:13.2	92.020	0.330	-1.010	0.950
2020/01/31 02:45:13.3	92.020	0.340	-0.970	0.960
2020/01/31 02:45:13.4	92.020	0.350	-0.920	0.970
2020/01/31 02:45:13.5	92.020	0.360	-0.870	0.980
2020/01/31 02:45:13.6	92.030	0.370	-0.810	0.990
2020/01/31 02:45:13.7	92.020	0.370	-0.750	1.000
2020/01/31 02:45:13.8	92.020	0.370	-0.690	1.010
2020/01/31 02:45:13.9	92.020	0.370	-0.630	1.020
2020/01/31 02:45:14.0	92.020	0.370	-0.560	1.030
2020/01/31 02:45:14.1	92.010	0.360	-0.490	1.040
2020/01/31 02:45:14.2	92.010	0.360	-0.420	1.050
2020/01/31 02:45:14.3	92.000	0.350	-0.360	1.060
2020/01/31 02:45:14.4	91.990	0.340	-0.290	1.070
2020/01/31 02:45:14.5	91.980	0.340	-0.230	1.080
2020/01/31 02:45:14.6	91.970	0.330	-0.170	1.090
2020/01/31 02:45:14.7	91.950	0.320	-0.110	1.100
2020/01/31 02:45:14.8	91.940	0.310	-0.060	1.110
2020/01/31 02:45:14.9	91.930	0.300	-0.010	1.120
2020/01/31 02:45:15.0	91.910	0.290	0.030	1.120
2020/01/31 02:45:15.1	91.900	0.280	0.070	1.120
2020/01/31 02:45:15.2	91.880	0.270	0.100	1.120
2020/01/31 02:45:15.3	91.870	0.260	0.130	1.120
2020/01/31 02:45:15.4	91.850	0.250	0.160	1.120
2020/01/31 02:45:15.5	91.840	0.240	0.170	1.110
2020/01/31 02:45:15.6	91.830	0.240	0.190	1.110
2020/01/31 02:45:15.7	91.820	0.230	0.190	1.100
2020/01/31 02:45:15.8	91.810	0.230	0.200	1.080
2020/01/31 02:45:15.9	91.800	0.220	0.190	1.070
2020/01/31 02:45:16.0	91.790	0.220	0.190	1.050
2020/01/31 02:45:16.1	91.790	0.210	0.180	1.030
2020/01/31 02:45:16.2	91.790	0.210	0.170	1.010
2020/01/31 02:45:16.3	91.780	0.200	0.150	0.980
2020/01/31 02:45:16.4	91.780	0.200	0.140	0.950
2020/01/31 02:45:16.5	91.780	0.190	0.120	0.920
2020/01/31 02:45:16.6	91.790	0.190	0.100	0.890
2020/01/31 02:45:16.7	91.790	0.180	0.090	0.860
2020/01/31 02:45:16.8	91.790	0.170	0.070	0.820
2020/01/31 02:45:16.9	91.800	0.170	0.060	0.790
2020/01/31 02:45:17.0	91.810	0.160	0.050	0.760
2020/01/31 02:45:17.1	91.820	0.140	0.040	0.720
2020/01/31 02:45:17.2	91.830	0.130	0.030	0.690
2020/01/31 02:45:17.3	91.840	0.120	0.020	0.660
2020/01/31 02:45:17.4	91.850	0.100	0.020	0.630
2020/01/31 02:45:17.5	91.860	0.080	0.020	0.610
2020/01/31 02:45:17.6	91.880	0.060	0.030	0.580
2020/01/31 02:45:17.7	91.890	0.040	0.040	0.570
2020/01/31 02:45:17.8	91.900	0.020	0.050	0.550
2020/01/31 02:45:17.9	91.920	-0.010	0.070	0.540
2020/01/31 02:45:18.0	91.930	-0.040	0.080	0.530
2020/01/31 02:45:18.1	91.950	-0.070	0.100	0.520
2020/01/31 02:45:18.2	91.960	-0.100	0.120	0.520
2020/01/31 02:45:18.3	91.970	-0.130	0.150	0.520
2020/01/31 02:45:18.4	91.980	-0.160	0.170	0.520
2020/01/31 02:45:18.5	92.000	-0.200	0.200	0.530
2020/01/31 02:45:18.6	92.010	-0.230	0.220	0.540
2020/01/31 02:45:18.7	92.020	-0.260	0.240	0.550
2020/01/31 02:45:18.8	92.030	-0.300	0.260	0.560
2020/01/31 02:45:18.9	92.040	-0.330	0.280	0.570
2020/01/31 02:45:19.0	92.050	-0.360	0.290	0.580
2020/01/31 02:45:19.1	92.060	-0.400	0.300	0.590
2020/01/31 02:45:19.2	92.070	-0.420	0.310	0.600
2020/01/31 02:45:19.3	92.080	-0.450	0.310	0.620
2020/01/31 02:45:19.4	92.090	-0.480	0.300	0.630
2020/01/31 02:45:19.5	92.100	-0.500	0.290	0.640
2020/01/31 02:45:19.6	92.110	-0.520	0.270	0.640
2020/01/31 02:45:19.7	92.130	-0.540	0.240	0.650
2020/01/31 02:45:19.8	92.140	-0.550	0.210	0.660
2020/01/31 02:45:19.9	92.150	-0.560	0.170	0.670
2020/01/31 02:45:20.0	92.160	-0.560	0.120	0.670
2020/01/31 02:45:20.1	92.160	-0.560	0.070	0.680
2020/01/31 02:45:20.2	92.180	-0.560	0.010	0.690
2020/01/31 02:45:20.3	92.190	-0.550	-0.060	0.700
2020/01/31 02:45:20.4	92.200	-0.540	-0.130	0.710
2020/01/31 02:45:20.5	92.210	-0.530	-0.200	0.720
2020/01/31 02:45:20.6	92.220	-0.510	-0.280	0.730
2020/01/31 02:45:20.7	92.230	-0.480	-0.370	0.740
2020/01/31 02:45:20.8	92.230	-0.460	-0.450	0.760
2020/01/31 02:45:20.9	92.240	-0.420	-0.540	0.770
2020/01/31 02:45:21.0	92.250	-0.390	-0.630	0.790
2020/01/31 02:45:21.1	92.260	-0.350	-0.720	0.800
2020/01/31 02:45:21.2	92.270	-0.310	-0.800	0.820
2020/01/31 02:45:21.3	92.270	-0.270	-0.880	0.850
2020/01/31 02:45:21.4	92.270	-0.230	-0.960	0.870
2020/01/31 02:45:21.5	92.280	-0.190	-1.020	0.900
2020/01/31 02:45:21.6	92.280	-0.150	-1.090	0.920
2020/01/31 02:45:21.7	92.270	-0.100	-1.140	0.950
2020/01/31 02:45:21.8	92.270	-0.060	-1.180	0.980
2020/01/31 02:45:21.9	92.270	-0.020	-1.220	1.010
2020/01/31 02:45:22.0	92.260	0.020	-1.240	1.040
2020/01/31 02:45:22.1	92.250	0.050	-1.260	1.080
2020/01/31 02:45:22.2	92.240	0.090	-1.260	1.110
2020/01/31 02:45:22.3	92.230	0.120	-1.240	1.140
2020/01/31 02:45:22.4	92.210	0.140	-1.220	1.170
2020/01/31 02:45:22.5	92.200	0.170	-1.190	1.190
2020/01/31 02:45:22.6	92.180	0.190	-1.150	1.220
2020/01/31 02:45:22.7	92.160	0.200	-1.090	1.240
2020/01/31 02:45:22.8	92.140	0.220	-1.030	1.250
2020/01/31 02:45:22.9	92.110	0.220	-0.960	1.270
2020/01/31 02:45:23.0	92.090	0.230	-0.880	1.280
2020/01/31 02:45:23.1	92.060	0.230	-0.790	1.290
2020/01/31 02:45:23.2	92.030	0.220	-0.700	1.290
2020/01/31 02:45:23.3	92.010	0.220	-0.600	1.290
2020/01/31 02:45:23.4	91.980	0.210	-0.510	1.280
2020/01/31 02:45:23.5	91.950	0.190	-0.410	1.270
2020/01/31 02:45:23.6	91.920	0.180	-0.310	1.260
2020/01/31 02:45:23.7	91.890	0.160	-0.220	1.250
2020/01/31 02:45:23.8	91.870	0.140	-0.120	1.230
2020/01/31 02:45:23.9	91.840	0.120	-0.030	1.210
2020/01/31 02:45:24.0	91.820	0.100	0.050	1.180
2020/01/31 02:45:24.1	91.790	0.080	0.130	1.150
2020/01/31 02:45:24.2	91.770	0.060	0.210	1.120
2020/01/31 02:45:24.3	91.750	0.050	0.280	1.090
2020/01/31 02:45:24.4	91.730	0.030	0.340	1.050
2020/01/31 02:45:24.5	91.720	0.010	0.390	1.020
2020/01/31 02:45:24.6	91.700	-0.000	0.430	0.980
2020/01/31 02:45:24.7	91.690	-0.010	0.460	0.940
2020/01/31 02:45:24.8	91.680	-0.020	0.480	0.900
2020/01/31 02:45:24.9	91.680	-0.030	0.500	0.860
2020/01/31 02:45:25.0	91.670	-0.030	0.500	0.810
2020/01/31 02:45:25.1	91.670	-0.030	0.500	0.770
2020/01/31 02:45:25.2	91.670	-0.030	0.480	0.720
2020/01/31 02:45:25.3	91.680	-0.020	0.460	0.680
2020/01/31 02:45:25.4	91.680	-0.020	0.430	0.630
2020/01/31 02:45:25.5	91.690	-0.010	0.390	0.590
2020/01/31 02:45:25.6	91.700	0.010	0.340	0.540
2020/01/31 02:45:25.7	91.710	0.020	0.290	0.490
2020/01/31 02:45:25.8	91.720	0.040	0.240	0.440
2020/01/31 02:45:25.9	91.740	0.050	0.180	0.400
2020/01/31 02:45:26.0	91.750	0.070	0.120	0.350
2020/01/31 02:45:26.1	91.760	0.090	0.050	0.300
2020/01/31 02:45:26.2	91.780	0.110	-0.010	0.250
2020/01/31 02:45:26.3	91.800	0.120	-0.070	0.210
2020/01/31 02:45:26.4	91.810	0.140	-0.130	0.160
2020/01/31 02:45:26.5	91.830	0.150	-0.190	0.120
2020/01/31 02:45:26.6	91.850	0.170	-0.240	0.070
2020/01/31 02:45:26.7	91.870	0.180	-0.290	0.030
2020/01/31 02:45:26.8	91.880	0.190	-0.340	-0.010
2020/01/31 02:45:26.9	91.900	0.200	-0.380	-0.050
2020/01/31 02:45:27.0	91.910	0.210	-0.420	-0.080
2020/01/31 02:45:27.1	91.930	0.210	-0.450	-0.110
2020/01/31 02:45:27.2	91.940	0.220	-0.480	-0.140
2020/01/31 02:45:27.3	91.960	0.220	-0.500	-0.160
2020/01/31 02:45:27.4	91.970	0.220	-0.520	-0.170
2020/01/31 02:45:27.5	91.980	0.210	-0.530	-0.180
2020/01/31 02:45:27.6	91.990	0.210	-0.530	-0.180
2020/01/31 02:45:27.7	92.000	0.200	-0.530	-0.180
2020/01/31 02:45:27.8	92.000	0.190	-0.530	-0.170
2020/01/31 02:45:27.9	92.010	0.180	-0.510	-0.150
2020/01/31 02:45:28.0	92.020	0.170	-0.500	-0.130
2020/01/31 02:45:28.1	92.020	0.160	-0.480	-0.100
2020/01/31 02:45:28.2	92.030	0.140	-0.460	-0.080
2020/01/31 02:45:28.3	92.030	0.130	-0.430	-0.040
2020/01/31 02:45:28.4	92.040	0.110	-0.400	-0.010
2020/01/31 02:45:28.5	92.040	0.090	-0.370	0.030
2020/01/31 02:45:28.6	92.040	0.080	-0.340	0.070
2020/01/31 02:45:28.7	92.050	0.060	-0.300	0.110
2020/01/31 02:45:28.8	92.050	0.040	-0.270	0.160
2020/01/31 02:45:28.9	92.060	0.030	-0.230	0.200
2020/01/31 02:45:29.0	92.070	0.010	-0.200	0.250
2020/01/31 02:45:29.1	92.070	-0.010	-0.170	0.300
2020/01/31 02:45:29.2	92.080	-0.020	-0.140	0.340
2020/01/31 02:45:29.3	92.090	-0.040	-0.110	0.390
2020/01/31 02:45:29.4	92.100	-0.050	-0.090	0.440
2020/01/31 02:45:29.5	92.110	-0.060	-0.070	0.480
2020/01/31 02:45:29.6	92.120	-0.070	-0.050	0.530
2020/01/31 02:45:29.7	92.130	-0.080	-0.040	0.570
2020/01/31 02:45:29.8	92.140	-0.090	-0.040	0.620
2020/01/31 02:45:29.9	92.160	-0.100	-0.030	0.660
2020/01/31 02:45:30.0	92.170	-0.110	-0.030	0.710
2020/01/31 02:45:30.1	92.190	-0.110	-0.030	0.750
2020/01/31 02:45:30.2	92.200	-0.120	-0.040	0.790
2020/01/31 02:45:30.3	92.210	-0.120	-0.050	0.830
2020/01/31 02:45:30.4	92.230	-0.120	-0.070	0.870
2020/01/31 02:45:30.5	92.240	-0.120	-0.080	0.910
2020/01/31 02:45:30.6	92.250	-0.120	-0.100	0.950
2020/01/31 02:45:30.7	92.250	-0.120	-0.120	0.990
2020/01/31 02:45:30.8	92.260	-0.110	-0.150	1.020
2020/01/31 02:45:30.9	92.270	-0.110	-0.170	1.060
2020/01/31 02:45:31.0	92.270	-0.110	-0.190	1.100
2020/01/31 02:45:31.1	92.260	-0.100	-0.210	1.130
2020/01/31 02:45:31.2	92.260	-0.100	-0.230	1.170
2020/01/31 02:45:31.3	92.250	-0.100	-0.240	1.200
2020/01/31 02:45:31.4	92.250	-0.090	-0.250	1.230
2020/01/31 02:45:31.5	92.240	-0.090	-0.260	1.260
2020/01/31 02:45:31.6	92.230	-0.090	-0.270	1.280
2020/01/31 02:45:31.7	92.220	-0.090	-0.270	1.310
2020/01/31 02:45:31.8	92.210	-0.090	-0.260	1.330
2020/01/31 02:45:31.9	92.200	-0.090	-0.260	1.340
2020/01/31 02:45:32.0	92.180	-0.090	-0.250	1.360
2020/01/31 02:45:32.1	92.170	-0.090	-0.230	1.370
2020/01/31 02:45:32.2	92.150	-0.100	-0.210	1.380
2020/01/31 02:45:32.3	92.130	-0.100	-0.190	1.380
2020/01/31 02:45:32.4	92.120	-0.110	-0.170	1.390
2020/01/31 02:45:32.5	92.100	-0.110	-0.140	1.390
2020/01/31 02:45:32.6	92.080	-0.120	-0.110	1.380
2020/01/31 02:45:32.7	92.070	-0.130	-0.080	1.380
2020/01/31 02:45:32.8	92.050	-0.130	-0.050	1.370
2020/01/31 02:45:32.9	92.040	-0.140	-0.030	1.360
2020/01/31 02:45:33.0	92.020	-0.150	0.000	1.350
2020/01/31 02:45:33.1	92.010	-0.150	0.030	1.340
2020/01/31 02:45:33.2	91.990	-0.150	0.050	1.320
2020/01/31 02:45:33.3	91.980	-0.160	0.060	1.310
2020/01/31 02:45:33.4	91.970	-0.160	0.080	1.290
2020/01/31 02:45:33.5	91.960	-0.160	0.080	1.270
2020/01/31 02:45:33.6	91.960	-0.160	0.080	1.260
2020/01/31 02:45:33.7	91.950	-0.150	0.080	1.240
2020/01/31 02:45:33.8	91.940	-0.140	0.070	1.220
2020/01/31 02:45:33.9	91.940	-0.130	0.050	1.200
2020/01/31 02:45:34.0	91.940	-0.120	0.030	1.170
2020/01/31 02:45:34.1	91.930	-0.100	-0.000	1.150
2020/01/31 02:45:34.2	91.930	-0.090	-0.040	1.120
2020/01/31 02:45:34.3	91.930	-0.070	-0.080	1.100
2020/01/31 02:45:34.4	91.930	-0.040	-0.120	1.070
2020/01/31 02:45:34.5	91.930	-0.020	-0.170	1.040
2020/01/31 02:45:34.6	91.940	0.010	-0.220	1.000
2020/01/31 02:45:34.7	91.950	0.040	-0.280	0.970
2020/01/31 02:45:34.8	91.950	0.070	-0.330	0.930
2020/01/31 02:45:34.9	91.960	0.110	-0.390	0.890
2020/01/31 02:45:35.0	91.970	0.140	-0.450	0.850
2020/01/31 02:45:35.1	91.980	0.180	-0.500	0.800
2020/01/31 02:45:35.2	91.990	0.210	-0.560	0.750
2020/01/31 02:45:35.3	92.010	0.250	-0.610	0.700
2020/01/31 02:45:35.4	92.020	0.280	-0.660	0.650
2020/01/31 02:45:35.5	92.030	0.320	-0.710	0.600
2020/01/31 02:45:35.6	92.050	0.350	-0.750	0.550
2020/01/31 02:45:35.7	92.060	0.380	-0.790	0.500
2020/01/31 02:45:35.8	92.070	0.410	-0.820	0.450
2020/01/31 02:45:35.9	92.080	0.440	-0.850	0.400
2020/01/31 02:45:36.0	92.100	0.460	-0.860	0.360
2020/01/31 02:45:36.1	92.110	0.490	-0.880	0.320
2020/01/31 02:45:36.2	92.120	0.500	-0.880	0.280
2020/01/31 02:45:36.3	92.130	0.520	-0.880	0.250
2020/01/31 02:45:36.4	92.140	0.530	-0.870	0.230
2020/01/31 02:45:36.5	92.140	0.540	-0.860	0.210
2020/01/31 02:45:36.6	92.150	0.540	-0.840	0.190
2020/01/31 02:45:36.7	92.150	0.540	-0.810	0.180
2020/01/31 02:45:36.8	92.160	0.540	-0.780	0.180
2020/01/31 02:45:36.9	92.160	0.530	-0.740	0.180
2020/01/31 02:45:37.0	92.160	0.520	-0.690	0.190
2020/01/31 02:45:37.1	92.160	0.500	-0.640	0.200
2020/01/31 02:45:37.2	92.170	0.480	-0.580	0.220
2020/01/31 02:45:37.3	92.170	0.460	-0.530	0.240
2020/01/31 02:45:37.4	92.170	0.430	-0.470	0.260
2020/01/31 02:45:37.5	92.170	0.400	-0.400	0.290
2020/01/31 02:45:37.6	92.160	0.370	-0.340	0.330
2020/01/31 02:45:37.7	92.160	0.330	-0.270	0.360
2020/01/31 02:45:37.8	92.160	0.290	-0.200	0.390
2020/01/31 02:45:37.9	92.160	0.240	-0.140	0.430
2020/01/31 02:45:38.0	92.160	0.200	-0.070	0.470
2020/01/31 02:45:38.1	92.160	0.150	-0.000	0.510
2020/01/31 02:45:38.2	92.160	0.100	0.060	0.540
2020/01/31 02:45:38.3	92.160	0.060	0.130	0.580
2020/01/31 02:45:38.4	92.160	0.010	0.190	0.620
2020/01/31 02:45:38.5	92.160	-0.040	0.250	0.660
2020/01/31 02:45:38.6	92.160	-0.090	0.300	0.690
2020/01/31 02:45:38.7	92.160	-0.140	0.350	0.730
2020/01/31 02:45:38.8	92.170	-0.190	0.400	0.760
2020/01/31 02:45:38.9	92.170	-0.240	0.440	0.800
2020/01/31 02:45:39.0	92.170	-0.290	0.470	0.830
2020/01/31 02:45:39.1	92.160	-0.330	0.500	0.860
2020/01/31 02:45:39.2	92.160	-0.370	0.520	0.890
2020/01/31 02:45:39.3	92.160	-0.410	0.540	0.910
2020/01/31 02:45:39.4	92.160	-0.450	0.550	0.940
2020/01/31 02:45:39.5	92.160	-0.480	0.550	0.960
2020/01/31 02:45:39.6	92.150	-0.510	0.550	0.980
2020/01/31 02:45:39.7	92.150	-0.540	0.540	1.000
2020/01/31 02:45:39.8	92.150	-0.560	0.520	1.010
2020/01/31 02:45:39.9	92.150	-0.580	0.500	1.020
2020/01/31 02:45:40.0	92.150	-0.590	0.470	1.040
2020/01/31 02:45:40.1	92.150	-0.600	0.430	1.040
2020/01/31 02:45:40.2	92.150	-0.610	0.390	1.050
2020/01/31 02:45:40.3	92.150	-0.620	0.350	1.050
2020/01/31 02:45:40.4	92.150	-0.620	0.300	1.050
2020/01/31 02:45:40.5	92.150	-0.620	0.250	1.050
2020/01/31 02:45:40.6	92.160	-0.610	0.200	1.050
2020/01/31 02:45:40.7	92.160	-0.600	0.140	1.050
2020/01/31 02:45:40.8	92.170	-0.590	0.080	1.040
2020/01/31 02:45:40.9	92.170	-0.580	0.030	1.040
2020/01/31 02:45:41.0	92.180	-0.560	-0.030	1.030
2020/01/31 02:45:41.1	92.190	-0.540	-0.090	1.020
2020/01/31 02:45:41.2	92.190	-0.520	-0.140	1.010
2020/01/31 02:45:41.3	92.200	-0.500	-0.200	1.000
2020/01/31 02:45:41.4	92.210	-0.470	-0.250	0.980
2020/01/31 02:45:41.5	92.220	-0.450	-0.300	0.970
2020/01/31 02:45:41.6	92.230	-0.420	-0.350	0.950
2020/01/31 02:45:41.7	92.240	-0.390	-0.390	0.940
2020/01/31 02:45:41.8	92.260	-0.360	-0.440	0.920
2020/01/31 02:45:41.9	92.270	-0.330	-0.480	0.900
2020/01/31 02:45:42.0	92.280	-0.300	-0.510	0.880
2020/01/31 02:45:42.1	92.300	-0.270	-0.550	0.870
2020/01/31 02:45:42.2	92.310	-0.240	-0.580	0.850
2020/01/31 02:45:42.3	92.330	-0.210	-0.610	0.830
2020/01/31 02:45:42.4	92.340	-0.180	-0.630	0.810
2020/01/31 02:45:42.5	92.360	-0.150	-0.660	0.800
2020/01/31 02:45:42.6	92.370	-0.120	-0.670	0.780
2020/01/31 02:45:42.7	92.390	-0.100	-0.690	0.770
2020/01/31 02:45:42.8	92.400	-0.070	-0.700	0.750
2020/01/31 02:45:42.9	92.410	-0.040	-0.710	0.740
2020/01/31 02:45:43.0	92.430	-0.020	-0.720	0.740
2020/01/31 02:45:43.1	92.430	0.010	-0.720	0.730
2020/01/31 02:45:43.2	92.440	0.030	-0.720	0.720
2020/01/31 02:45:43.3	92.450	0.050	-0.720	0.720
2020/01/31 02:45:43.4	92.460	0.070	-0.720	0.720
2020/01/31 02:45:43.5	92.460	0.090	-0.710	0.720
2020/01/31 02:45:43.6	92.460	0.110	-0.700	0.720
2020/01/31 02:45:43.7	92.460	0.120	-0.690	0.720
2020/01/31 02:45:43.8	92.460	0.130	-0.680	0.720
2020/01/31 02:45:43.9	92.460	0.150	-0.670	0.720
2020/01/31 02:45:44.0	92.460	0.160	-0.650	0.720
2020/01/31 02:45:44.1	92.460	0.170	-0.630	0.730
2020/01/31 02:45:44.2	92.450	0.180	-0.620	0.720
2020/01/31 02:45:44.3	92.450	0.180	-0.600	0.720
2020/01/31 02:45:44.4	92.440	0.190	-0.580	0.720
2020/01/31 02:45:44.5	92.430	0.200	-0.570	0.710
2020/01/31 02:45:44.6	92.430	0.200	-0.550	0.710
2020/01/31 02:45:44.7	92.420	0.210	-0.530	0.700
2020/01/31 02:45:44.8	92.410	0.210	-0.510	0.690
2020/01/31 02:45:44.9	92.400	0.210	-0.500	0.680
2020/01/31 02:45:45.0	92.390	0.220	-0.480	0.670
2020/01/31 02:45:45.1	92.380	0.220	-0.460	0.650
2020/01/31 02:45:45.2	92.380	0.220	-0.440	0.630
2020/01/31 02:45:45.3	92.370	0.230	-0.420	0.620
2020/01/31 02:45:45.4	92.360	0.230	-0.400	0.610
2020/01/31 02:45:45.5	92.360	0.240	-0.380	0.590
2020/01/31 02:45:45.6	92.350	0.240	-0.350	0.580
2020/01/31 02:45:45.7	92.350	0.240	-0.330	0.580
2020/01/31 02:45:45.8	92.340	0.250	-0.300	0.570
2020/01/31 02:45:45.9	92.330	0.250	-0.270	0.560
2020/01/31 02:45:46.0	92.320	0.250	-0.240	0.560
2020/01/31 02:45:46.1	92.320	0.250	-0.210	0.560
2020/01/31 02:45:46.2	92.310	0.260	-0.170	0.570
2020/01/31 02:45:46.3	92.300	0.260	-0.140	0.570
2020/01/31 02:45:46.4	92.290	0.260	-0.110	0.570
2020/01/31 02:45:46.5	92.280	0.260	-0.070	0.580
2020/01/31 02:45:46.6	92.270	0.260	-0.040	0.590
2020/01/31 02:45:46.7	92.260	0.260	-0.000	0.600
2020/01/31 02:45:46.8	92.250	0.260	0.030	0.600
2020/01/31 02:45:46.9	92.240	0.250	0.070	0.610
2020/01/31 02:45:47.0	92.230	0.250	0.100	0.620
2020/01/31 02:45:47.1	92.210	0.250	0.130	0.620
2020/01/31 02:45:47.2	92.200	0.240	0.160	0.630
2020/01/31 02:45:47.3	92.190	0.230	0.190	0.640
2020/01/31 02:45:47.4	92.180	0.230	0.210	0.640
2020/01/31 02:45:47.5	92.170	0.220	0.240	0.650
2020/01/31 02:45:47.6	92.160	0.210	0.260	0.650
2020/01/31 02:45:47.7	92.150	0.200	0.270	0.660
2020/01/31 02:45:47.8	92.140	0.190	0.290	0.660
2020/01/31 02:45:47.9	92.140	0.180	0.300	0.660
2020/01/31 02:45:48.0	92.130	0.160	0.310	0.660
2020/01/31 02:45:48.1	92.120	0.150	0.310	0.670
2020/01/31 02:45:48.2	92.120	0.140	0.310	0.670
2020/01/31 02:45:48.3	92.120	0.130	0.310	0.670
2020/01/31 02:45:48.4	92.120	0.110	0.300	0.670
2020/01/31 02:45:48.5	92.120	0.100	0.280	0.660
2020/01/31 02:45:48.6	92.120	0.090	0.260	0.660
2020/01/31 02:45:48.7	92.130	0.080	0.240	0.650
2020/01/31 02:45:48.8	92.130	0.070	0.210	0.650
2020/01/31 02:45:48.9	92.140	0.070	0.170	0.640
2020/01/31 02:45:49.0	92.150	0.060	0.130	0.630
2020/01/31 02:45:49.1	92.160	0.060	0.090	0.610
2020/01/31 02:45:49.2	92.170	0.060	0.040	0.600
2020/01/31 02:45:49.3	92.180	0.060	-0.020	0.590
2020/01/31 02:45:49.4	92.190	0.060	-0.070	0.590
2020/01/31 02:45:49.5	92.200	0.060	-0.130	0.580
2020/01/31 02:45:49.6	92.220	0.070	-0.200	0.570
2020/01/31 02:45:49.7	92.240	0.080	-0.260	0.570
2020/01/31 02:45:49.8	92.250	0.080	-0.320	0.560
2020/01/31 02:45:49.9	92.270	0.100	-0.390	0.560
2020/01/31 02:45:50.0	92.290	0.110	-0.450	0.560
2020/01/31 02:45:50.1	92.300	0.120	-0.510	0.570
2020/01/31 02:45:50.2	92.330	0.130	-0.560	0.570
2020/01/31 02:45:50.3	92.350	0.140	-0.610	0.580
2020/01/31 02:45:50.4	92.370	0.150	-0.660	0.590
2020/01/31 02:45:50.5	92.390	0.160	-0.690	0.600
2020/01/31 02:45:50.6	92.410	0.170	-0.720	0.620
2020/01/31 02:45:50.7	92.440	0.180	-0.740	0.630
2020/01/31 02:45:50.8	92.460	0.180	-0.760	0.650
2020/01/31 02:45:50.9	92.470	0.190	-0.760	0.670
2020/01/31 02:45:51.0	92.490	0.180	-0.760	0.690
2020/01/31 02:45:51.1	92.510	0.180	-0.740	0.700
2020/01/31 02:45:51.2	92.520	0.170	-0.720	0.730
2020/01/31 02:45:51.3	92.540	0.160	-0.690	0.750
2020/01/31 02:45:51.4	92.550	0.140	-0.650	0.770
2020/01/31 02:45:51.5	92.560	0.120	-0.600	0.790
2020/01/31 02:45:51.6	92.570	0.100	-0.550	0.820
2020/01/31 02:45:51.7	92.580	0.070	-0.490	0.840
2020/01/31 02:45:51.8	92.580	0.040	-0.420	0.870
2020/01/31 02:45:51.9	92.580	0.000	-0.350	0.900
2020/01/31 02:45:52.0	92.580	-0.030	-0.270	0.930
2020/01/31 02:45:52.1	92.580	-0.070	-0.190	0.960
2020/01/31 02:45:52.2	92.570	-0.120	-0.110	0.990
2020/01/31 02:45:52.3	92.570	-0.160	-0.030	1.030
2020/01/31 02:45:52.4	92.560	-0.210	0.050	1.060
2020/01/31 02:45:52.5	92.550	-0.250	0.130	1.100
2020/01/31 02:45:52.6	92.540	-0.300	0.210	1.130
2020/01/31 02:45:52.7	92.530	-0.350	0.280	1.170
2020/01/31 02:45:52.8	92.510	-0.390	0.350	1.210
2020/01/31 02:45:52.9	92.500	-0.440	0.410	1.250
2020/01/31 02:45:53.0	92.490	-0.480	0.460	1.280
2020/01/31 02:45:53.1	92.490	-0.520	0.510	1.320
2020/01/31 02:45:53.2	92.470	-0.550	0.550	1.350
2020/01/31 02:45:53.3	92.460	-0.580	0.580	1.390
2020/01/31 02:45:53.4	92.440	-0.610	0.590	1.420
2020/01/31 02:45:53.5	92.430	-0.630	0.600	1.440
2020/01/31 02:45:53.6	92.420	-0.650	0.590	1.470
2020/01/31 02:45:53.7	92.410	-0.660	0.570	1.480
2020/01/31 02:45:53.8	92.400	-0.660	0.540	1.500
2020/01/31 02:45:53.9	92.400	-0.650	0.490	1.510
2020/01/31 02:45:54.0	92.390	-0.640	0.440	1.510
2020/01/31 02:45:54.1	92.390	-0.630	0.370	1.500
2020/01/31 02:45:54.2	92.390	-0.610	0.300	1.490
2020/01/31 02:45:54.3	92.390	-0.580	0.210	1.480
2020/01/31 02:45:54.4	92.400	-0.550	0.120	1.460
2020/01/31 02:45:54.5	92.400	-0.510	0.020	1.440
2020/01/31 02:45:54.6	92.410	-0.470	-0.080	1.410
2020/01/31 02:45:54.7	92.420	-0.420	-0.190	1.380
2020/01/31 02:45:54.8	92.420	-0.380	-0.300	1.340
2020/01/31 02:45:54.9	92.430	-0.330	-0.400	1.300
2020/01/31 02:45:55.0	92.440	-0.270	-0.510	1.260
2020/01/31 02:45:55.1	92.440	-0.220	-0.620	1.220
2020/01/31 02:45:55.2	92.450	-0.160	-0.730	1.170
2020/01/31 02:45:55.3	92.460	-0.110	-0.830	1.130
2020/01/31 02:45:55.4	92.470	-0.050	-0.920	1.080
2020/01/31 02:45:55.5	92.470	-0.000	-1.010	1.030
2020/01/31 02:45:55.6	92.480	0.050	-1.090	0.980
2020/01/31 02:45:55.7	92.490	0.100	-1.160	0.940
2020/01/31 02:45:55.8	92.490	0.150	-1.230	0.890
2020/01/31 02:45:55.9	92.500	0.200	-1.280	0.840
2020/01/31 02:45:56.0	92.500	0.240	-1.320	0.800
2020/01/31 02:45:56.1	92.510	0.290	-1.350	0.750
2020/01/31 02:45:56.2	92.510	0.320	-1.370	0.720
2020/01/31 02:45:56.3	92.510	0.360	-1.380	0.680
2020/01/31 02:45:56.4	92.500	0.390	-1.370	0.650
2020/01/31 02:45:56.5	92.500	0.420	-1.360	0.620
2020/01/31 02:45:56.6	92.500	0.440	-1.330	0.600
2020/01/31 02:45:56.7	92.500	0.460	-1.300	0.570
2020/01/31 02:45:56.8	92.490	0.480	-1.250	0.560
2020/01/31 02:45:56.9	92.490	0.490	-1.190	0.540
2020/01/31 02:45:57.0	92.480	0.500	-1.120	0.530
2020/01/31 02:45:57.1	92.480	0.500	-1.040	0.520
2020/01/31 02:45:57.2	92.480	0.500	-0.960	0.510
2020/01/31 02:45:57.3	92.470	0.500	-0.870	0.510
2020/01/31 02:45:57.4	92.470	0.490	-0.780	0.510
2020/01/31 02:45:57.5	92.460	0.480	-0.680	0.500
2020/01/31 02:45:57.6	92.460	0.460	-0.570	0.500
2020/01/31 02:45:57.7	92.460	0.440	-0.470	0.500
2020/01/31 02:45:57.8	92.450	0.420	-0.360	0.510
2020/01/31 02:45:57.9	92.450	0.390	-0.260	0.510
2020/01/31 02:45:58.0	92.450	0.370	-0.150	0.510
2020/01/31 02:45:58.1	92.450	0.340	-0.050	0.510
2020/01/31 02:45:58.2	92.440	0.300	0.050	0.520
2020/01/31 02:45:58.3	92.440	0.270	0.140	0.520
2020/01/31 02:45:58.4	92.440	0.230	0.230	0.530
2020/01/31 02:45:58.5	92.430	0.200	0.310	0.530
2020/01/31 02:45:58.6	92.430	0.160	0.380	0.540
2020/01/31 02:45:58.7	92.420	0.120	0.450	0.540
2020/01/31 02:45:58.8	92.420	0.090	0.510	0.550
2020/01/31 02:45:58.9	92.410	0.050	0.560	0.550
2020/01/31 02:45:59.0	92.400	0.010	0.600	0.560
2020/01/31 02:45:59.1	92.400	-0.030	0.630	0.570
2020/01/31 02:45:59.2	92.390	-0.060	0.660	0.570
2020/01/31 02:45:59.3	92.380	-0.100	0.670	0.580
2020/01/31 02:45:59.4	92.370	-0.130	0.680	0.590
2020/01/31 02:45:59.5	92.360	-0.170	0.680	0.600
2020/01/31 02:45:59.6	92.360	-0.200	0.670	0.600
2020/01/31 02:45:59.7	92.350	-0.230	0.650	0.610
2020/01/31 02:45:59.8	92.340	-0.260	0.630	0.620
2020/01/31 02:45:59.9	92.330	-0.280	0.600	0.620
2020/01/31 02:46:00.0	92.330	-0.310	0.570	0.620
2020/01/31 02:46:00.1	92.320	-0.330	0.520	0.620
2020/01/31 02:46:00.2	92.310	-0.350	0.480	0.620
2020/01/31 02:46:00.3	92.320	-0.370	0.430	0.610
2020/01/31 02:46:00.4	92.320	-0.380	0.380	0.610
2020/01/31 02:46:00.5	92.320	-0.390	0.330	0.600
2020/01/31 02:46:00.6	92.330	-0.400	0.280	0.590
2020/01/31 02:46:00.7	92.340	-0.410	0.230	0.590
2020/01/31 02:46:00.8	92.350	-0.420	0.170	0.580
2020/01/31 02:46:00.9	92.360	-0.420	0.120	0.570
2020/01/31 02:46:01.0	92.380	-0.420	0.060	0.570
2020/01/31 02:46:01.1	92.390	-0.420	0.010	0.560
2020/01/31 02:46:01.2	92.410	-0.420	-0.040	0.550
2020/01/31 02:46:01.3	92.430	-0.410	-0.090	0.550
2020/01/31 02:46:01.4	92.450	-0.400	-0.130	0.550
2020/01/31 02:46:01.5	92.470	-0.390	-0.180	0.550
2020/01/31 02:46:01.6	92.490	-0.380	-0.220	0.550
2020/01/31 02:46:01.7	92.510	-0.360	-0.260	0.560
2020/01/31 02:46:01.8	92.530	-0.350	-0.300	0.560
2020/01/31 02:46:01.9	92.550	-0.330	-0.330	0.570
2020/01/31 02:46:02.0	92.570	-0.310	-0.360	0.570
2020/01/31 02:46:02.1	92.590	-0.290	-0.390	0.580
2020/01/31 02:46:02.2	92.610	-0.270	-0.420	0.590
2020/01/31 02:46:02.3	92.640	-0.250	-0.440	0.590
2020/01/31 02:46:02.4	92.660	-0.230	-0.450	0.600
2020/01/31 02:46:02.5	92.680	-0.200	-0.470	0.610
2020/01/31 02:46:02.6	92.710	-0.180	-0.480	0.610
2020/01/31 02:46:02.7	92.730	-0.160	-0.490	0.620
2020/01/31 02:46:02.8	92.750	-0.130	-0.490	0.620
2020/01/31 02:46:02.9	92.770	-0.110	-0.500	0.630
2020/01/31 02:46:03.0	92.790	-0.090	-0.500	0.640
2020/01/31 02:46:03.1	92.810	-0.070	-0.490	0.640
2020/01/31 02:46:03.2	92.830	-0.050	-0.490	0.650
2020/01/31 02:46:03.3	92.850	-0.030	-0.480	0.660
2020/01/31 02:46:03.4	92.860	-0.010	-0.470	0.660
2020/01/31 02:46:03.5	92.870	0.010	-0.460	0.670
2020/01/31 02:46:03.6	92.880	0.030	-0.450	0.680
2020/01/31 02:46:03.7	92.890	0.050	-0.430	0.680
2020/01/31 02:46:03.8	92.900	0.060	-0.420	0.690
2020/01/31 02:46:03.9	92.910	0.080	-0.400	0.690
2020/01/31 02:46:04.0	92.910	0.090	-0.390	0.700
2020/01/31 02:46:04.1	92.910	0.100	-0.370	0.700
2020/01/31 02:46:04.2	92.910	0.110	-0.360	0.700
2020/01/31 02:46:04.3	92.910	0.120	-0.340	0.710
2020/01/31 02:46:04.4	92.910	0.130	-0.320	0.710
2020/01/31 02:46:04.5	92.900	0.140	-0.300	0.710
2020/01/31 02:46:04.6	92.900	0.140	-0.280	0.720
2020/01/31 02:46:04.7	92.890	0.150	-0.260	0.720
2020/01/31 02:46:04.8	92.880	0.150	-0.250	0.730
2020/01/31 02:46:04.9	92.870	0.160	-0.230	0.730
2020/01/31 02:46:05.0	92.860	0.160	-0.210	0.730
2020/01/31 02:46:05.1	92.840	0.160	-0.190	0.740
2020/01/31 02:46:05.2	92.820	0.170	-0.180	0.740
2020/01/31 02:46:05.3	92.800	0.170	-0.160	0.750
2020/01/31 02:46:05.4	92.790	0.180	-0.150	0.760
2020/01/31 02:46:05.5	92.770	0.180	-0.140	0.760
2020/01/31 02:46:05.6	92.750	0.190	-0.130	0.770
2020/01/31 02:46:05.7	92.730	0.190	-0.120	0.770
2020/01/31 02:46:05.8	92.710	0.200	-0.110	0.770
2020/01/31 02:46:05.9	92.690	0.210	-0.110	0.780
2020/01/31 02:46:06.0	92.660	0.220	-0.100	0.780
2020/01/31 02:46:06.1	92.650	0.230	-0.110	0.780
2020/01/31 02:46:06.2	92.630	0.240	-0.110	0.780
2020/01/31 02:46:06.3	92.600	0.250	-0.110	0.770
2020/01/31 02:46:06.4	92.590	0.260	-0.120	0.770
2020/01/31 02:46:06.5	92.570	0.270	-0.130	0.770
2020/01/31 02:46:06.6	92.550	0.290	-0.150	0.770
2020/01/31 02:46:06.7	92.530	0.300	-0.160	0.760
2020/01/31 02:46:06.8	92.510	0.320	-0.190	0.760
2020/01/31 02:46:06.9	92.500	0.330	-0.210	0.750
2020/01/31 02:46:07.0	92.480	0.350	-0.240	0.740
2020/01/31 02:46:07.1	92.470	0.360	-0.270	0.730
2020/01/31 02:46:07.2	92.450	0.380	-0.300	0.720
2020/01/31 02:46:07.3	92.440	0.390	-0.330	0.710
2020/01/31 02:46:07.4	92.440	0.410	-0.370	0.700
2020/01/31 02:46:07.5	92.430	0.420	-0.400	0.690
2020/01/31 02:46:07.6	92.420	0.430	-0.440	0.680
2020/01/31 02:46:07.7	92.420	0.440	-0.480	0.660
2020/01/31 02:46:07.8	92.420	0.450	-0.520	0.650
2020/01/31 02:46:07.9	92.420	0.460	-0.550	0.630
2020/01/31 02:46:08.0	92.420	0.460	-0.590	0.610
2020/01/31 02:46:08.1	92.420	0.470	-0.620	0.590
2020/01/31 02:46:08.2	92.430	0.460	-0.650	0.570
2020/01/31 02:46:08.3	92.440	0.460	-0.670	0.560
2020/01/31 02:46:08.4	92.450	0.450	-0.690	0.540
2020/01/31 02:46:08.5	92.460	0.440	-0.710	0.520
2020/01/31 02:46:08.6	92.460	0.430	-0.710	0.500
2020/01/31 02:46:08.7	92.470	0.410	-0.710	0.490
2020/01/31 02:46:08.8	92.480	0.390	-0.710	0.480
2020/01/31 02:46:08.9	92.490	0.360	-0.690	0.470
2020/01/31 02:46:09.0	92.490	0.330	-0.670	0.460
2020/01/31 02:46:09.1	92.500	0.290	-0.640	0.450
2020/01/31 02:46:09.2	92.500	0.260	-0.610	0.450
2020/01/31 02:46:09.3	92.500	0.220	-0.560	0.450
2020/01/31 02:46:09.4	92.500	0.170	-0.510	0.450
2020/01/31 02:46:09.5	92.500	0.120	-0.460	0.460
2020/01/31 02:46:09.6	92.500	0.070	-0.400	0.470
2020/01/31 02:46:09.7	92.490	0.020	-0.330	0.480
2020/01/31 02:46:09.8	92.490	-0.040	-0.260	0.490
2020/01/31 02:46:09.9	92.480	-0.090	-0.180	0.510
2020/01/31 02:46:10.0	92.470	-0.150	-0.110	0.530
2020/01/31 02:46:10.1	92.460	-0.210	-0.030	0.550
2020/01/31 02:46:10.2	92.440	-0.260	0.050	0.570
2020/01/31 02:46:10.3	92.430	-0.320	0.130	0.590
2020/01/31 02:46:10.4	92.420	-0.370	0.200	0.620
2020/01/31 02:46:10.5	92.410	-0.430	0.270	0.640
2020/01/31 02:46:10.6	92.390	-0.480	0.340	0.660
2020/01/31 02:46:10.7	92.380	-0.520	0.400	0.680
2020/01/31 02:46:10.8	92.370	-0.570	0.450	0.700
2020/01/31 02:46:10.9	92.370	-0.610	0.500	0.720
2020/01/31 02:46:11.0	92.360	-0.640	0.540	0.730
2020/01/31 02:46:11.1	92.360	-0.670	0.570	0.740
2020/01/31 02:46:11.2	92.360	-0.690	0.590	0.750
2020/01/31 02:46:11.3	92.370	-0.710	0.590	0.750
2020/01/31 02:46:11.4	92.370	-0.720	0.590	0.750
2020/01/31 02:46:11.5	92.380	-0.720	0.580	0.750
2020/01/31 02:46:11.6	92.390	-0.720	0.550	0.750
2020/01/31 02:46:11.7	92.400	-0.710	0.520	0.740
2020/01/31 02:46:11.8	92.420	-0.690	0.470	0.730
2020/01/31 02:46:11.9	92.440	-0.670	0.410	0.720
2020/01/31 02:46:12.0	92.460	-0.640	0.350	0.700
2020/01/31 02:46:12.1	92.480	-0.610	0.270	0.690
2020/01/31 02:46:12.2	92.500	-0.570	0.190	0.680
2020/01/31 02:46:12.3	92.520	-0.520	0.100	0.660
2020/01/31 02:46:12.4	92.540	-0.480	0.000	0.650
2020/01/31 02:46:12.5	92.570	-0.420	-0.100	0.640
2020/01/31 02:46:12.6	92.590	-0.370	-0.200	0.630
2020/01/31 02:46:12.7	92.610	-0.310	-0.300	0.620
2020/01/31 02:46:12.8	92.630	-0.250	-0.410	0.610
2020/01/31 02:46:12.9	92.650	-0.180	-0.510	0.600
2020/01/31 02:46:13.0	92.660	-0.120	-0.610	0.600
2020/01/31 02:46:13.1	92.670	-0.060	-0.710	0.590
2020/01/31 02:46:13.2	92.680	0.000	-0.800	0.580
2020/01/31 02:46:13.3	92.680	0.070	-0.890	0.580
2020/01/31 02:46:13.4	92.690	0.120	-0.960	0.580
2020/01/31 02:46:13.5	92.690	0.180	-1.030	0.580
2020/01/31 02:46:13.6	92.690	0.230	-1.080	0.580
2020/01/31 02:46:13.7	92.690	0.270	-1.120	0.580
2020/01/31 02:46:13.8	92.690	0.310	-1.150	0.580
2020/01/31 02:46:13.9	92.680	0.350	-1.160	0.580
2020/01/31 02:46:14.0	92.680	0.370	-1.160	0.580
2020/01/31 02:46:14.1	92.670	0.390	-1.150	0.580
2020/01/31 02:46:14.2	92.660	0.410	-1.120	0.590
2020/01/31 02:46:14.3	92.660	0.420	-1.080	0.590
2020/01/31 02:46:14.4	92.650	0.420	-1.020	0.600
2020/01/31 02:46:14.5	92.640	0.410	-0.950	0.610
2020/01/31 02:46:14.6	92.630	0.390	-0.870	0.620
2020/01/31 02:46:14.7	92.610	0.370	-0.780	0.630
2020/01/31 02:46:14.8	92.600	0.350	-0.680	0.650
2020/01/31 02:46:14.9	92.590	0.310	-0.570	0.660
2020/01/31 02:46:15.0	92.580	0.270	-0.450	0.680
2020/01/31 02:46:15.1	92.570	0.230	-0.320	0.700
2020/01/31 02:46:15.2	92.560	0.180	-0.200	0.730
2020/01/31 02:46:15.3	92.550	0.130	-0.070	0.750
2020/01/31 02:46:15.4	92.540	0.070	0.060	0.770
2020/01/31 02:46:15.5	92.530	0.010	0.190	0.800
2020/01/31 02:46:15.6	92.520	-0.050	0.310	0.830
2020/01/31 02:46:15.7	92.500	-0.120	0.440	0.860
2020/01/31 02:46:15.8	92.490	-0.180	0.550	0.880
2020/01/31 02:46:15.9	92.480	-0.240	0.660	0.910
2020/01/31 02:46:16.0	92.480	-0.310	0.760	0.930
2020/01/31 02:46:16.1	92.470	-0.370	0.850	0.950
2020/01/31 02:46:16.2	92.460	-0.420	0.920	0.970
2020/01/31 02:46:16.3	92.450	-0.470	0.990	0.990
2020/01/31 02:46:16.4	92.450	-0.520	1.040	1.010
2020/01/31 02:46:16.5	92.440	-0.570	1.080	1.020
2020/01/31 02:46:16.6	92.430	-0.600	1.100	1.030
2020/01/31 02:46:16.7	92.430	-0.640	1.110	1.030
2020/01/31 02:46:16.8	92.420	-0.660	1.100	1.030
2020/01/31 02:46:16.9	92.420	-0.680	1.080	1.020
2020/01/31 02:46:17.0	92.420	-0.690	1.040	1.010
2020/01/31 02:46:17.1	92.400	-0.690	0.980	1.000
2020/01/31 02:46:17.2	92.400	-0.680	0.910	0.980
2020/01/31 02:46:17.3	92.400	-0.660	0.830	0.960
2020/01/31 02:46:17.4	92.400	-0.640	0.730	0.930
2020/01/31 02:46:17.5	92.400	-0.610	0.620	0.900
2020/01/31 02:46:17.6	92.400	-0.570	0.500	0.870
2020/01/31 02:46:17.7	92.400	-0.520	0.370	0.840
2020/01/31 02:46:17.8	92.400	-0.460	0.240	0.810
2020/01/31 02:46:17.9	92.390	-0.400	0.090	0.780
2020/01/31 02:46:18.0	92.390	-0.330	-0.060	0.750
2020/01/31 02:46:18.1	92.380	-0.260	-0.210	0.720
2020/01/31 02:46:18.2	92.370	-0.180	-0.360	0.690
2020/01/31 02:46:18.3	92.360	-0.100	-0.510	0.670
2020/01/31 02:46:18.4	92.350	-0.020	-0.660	0.660
2020/01/31 02:46:18.5	92.330	0.070	-0.800	0.640
2020/01/31 02:46:18.6	92.320	0.150	-0.930	0.630
2020/01/31 02:46:18.7	92.300	0.240	-1.060	0.620
2020/01/31 02:46:18.8	92.280	0.320	-1.180	0.610
2020/01/31 02:46:18.9	92.260	0.400	-1.280	0.600
2020/01/31 02:46:19.0	92.250	0.470	-1.380	0.600
2020/01/31 02:46:19.1	92.230	0.550	-1.470	0.590
2020/01/31 02:46:19.2	92.220	0.610	-1.530	0.590
2020/01/31 02:46:19.3	92.200	0.670	-1.590	0.590
2020/01/31 02:46:19.4	92.190	0.730	-1.620	0.590
2020/01/31 02:46:19.5	92.180	0.780	-1.650	0.600
2020/01/31 02:46:19.6	92.160	0.820	-1.650	0.600
2020/01/31 02:46:19.7	92.150	0.850	-1.650	0.620
2020/01/31 02:46:19.8	92.140	0.880	-1.630	0.630
2020/01/31 02:46:19.9	92.140	0.900	-1.590	0.640
2020/01/31 02:46:20.0	92.130	0.910	-1.540	0.660
2020/01/31 02:46:20.1	92.130	0.910	-1.480	0.680
2020/01/31 02:46:20.2	92.120	0.910	-1.400	0.710
2020/01/31 02:46:20.3	92.120	0.890	-1.320	0.730
2020/01/31 02:46:20.4	92.130	0.870	-1.230	0.760
2020/01/31 02:46:20.5	92.130	0.850	-1.120	0.780
2020/01/31 02:46:20.6	92.140	0.810	-1.010	0.810
2020/01/31 02:46:20.7	92.140	0.780	-0.890	0.840
2020/01/31 02:46:20.8	92.150	0.730	-0.770	0.870
2020/01/31 02:46:20.9	92.160	0.680	-0.640	0.900
2020/01/31 02:46:21.0	92.170	0.630	-0.510	0.930
2020/01/31 02:46:21.1	92.190	0.570	-0.370	0.960
2020/01/31 02:46:21.2	92.210	0.520	-0.240	0.980
2020/01/31 02:46:21.3	92.220	0.460	-0.120	1.010
2020/01/31 02:46:21.4	92.240	0.390	0.010	1.030
2020/01/31 02:46:21.5	92.260	0.330	0.130	1.060
2020/01/31 02:46:21.6	92.280	0.270	0.250	1.080
2020/01/31 02:46:21.7	92.290	0.210	0.360	1.090
2020/01/31 02:46:21.8	92.310	0.150	0.460	1.110
2020/01/31 02:46:21.9	92.330	0.090	0.550	1.130
2020/01/31 02:46:22.0	92.350	0.040	0.640	1.140
2020/01/31 02:46:22.1	92.380	-0.020	0.710	1.150
2020/01/31 02:46:22.2	92.400	-0.070	0.780	1.150
2020/01/31 02:46:22.3	92.420	-0.110	0.830	1.160
2020/01/31 02:46:22.4	92.440	-0.160	0.880	1.160
2020/01/31 02:46:22.5	92.460	-0.200	0.910	1.170
2020/01/31 02:46:22.6	92.480	-0.230	0.930	1.170
2020/01/31 02:46:22.7	92.500	-0.270	0.950	1.170
2020/01/31 02:46:22.8	92.520	-0.290	0.950	1.180
2020/01/31 02:46:22.9	92.530	-0.320	0.940	1.180
2020/01/31 02:46:23.0	92.540	-0.340	0.930	1.180
2020/01/31 02:46:23.1	92.560	-0.360	0.900	1.190
2020/01/31 02:46:23.2	92.570	-0.370	0.870	1.200
2020/01/31 02:46:23.3	92.570	-0.380	0.820	1.200
2020/01/31 02:46:23.4	92.580	-0.380	0.770	1.210
2020/01/31 02:46:23.5	92.580	-0.380	0.710	1.220
2020/01/31 02:46:23.6	92.570	-0.380	0.650	1.240
2020/01/31 02:46:23.7	92.570	-0.380	0.580	1.250
2020/01/31 02:46:23.8	92.570	-0.370	0.500	1.260
2020/01/31 02:46:23.9	92.560	-0.360	0.420	1.270
2020/01/31 02:46:24.0	92.550	-0.350	0.340	1.290
2020/01/31 02:46:24.1	92.550	-0.340	0.250	1.300
2020/01/31 02:46:24.2	92.540	-0.330	0.170	1.310
2020/01/31 02:46:24.3	92.530	-0.310	0.080	1.330
2020/01/31 02:46:24.4	92.520	-0.290	-0.000	1.340
2020/01/31 02:46:24.5	92.510	-0.280	-0.080	1.350
2020/01/31 02:46:24.6	92.500	-0.260	-0.160	1.370
2020/01/31 02:46:24.7	92.500	-0.240	-0.240	1.380
2020/01/31 02:46:24.8	92.490	-0.220	-0.320	1.390
2020/01/31 02:46:24.9	92.490	-0.200	-0.380	1.400
2020/01/31 02:46:25.0	92.490	-0.190	-0.450	1.400
2020/01/31 02:46:25.1	92.490	-0.170	-0.510	1.410
2020/01/31 02:46:25.2	92.490	-0.150	-0.570	1.410
2020/01/31 02:46:25.3	92.490	-0.140	-0.620	1.420
2020/01/31 02:46:25.4	92.490	-0.120	-0.660	1.420
2020/01/31 02:46:25.5	92.500	-0.110	-0.690	1.420
2020/01/31 02:46:25.6	92.500	-0.090	-0.730	1.420
2020/01/31 02:46:25.7	92.510	-0.080	-0.750	1.410
2020/01/31 02:46:25.8	92.510	-0.070	-0.770	1.410
2020/01/31 02:46:25.9	92.520	-0.060	-0.780	1.400
2020/01/31 02:46:26.0	92.530	-0.050	-0.790	1.390
2020/01/31 02:46:26.1	92.540	-0.050	-0.790	1.380
2020/01/31 02:46:26.2	92.550	-0.040	-0.790	1.370
2020/01/31 02:46:26.3	92.550	-0.030	-0.790	1.350
2020/01/31 02:46:26.4	92.560	-0.030	-0.780	1.340
2020/01/31 02:46:26.5	92.560	-0.020	-0.770	1.310
2020/01/31 02:46:26.6	92.560	-0.020	-0.750	1.290
2020/01/31 02:46:26.7	92.570	-0.020	-0.730	1.270
2020/01/31 02:46:26.8	92.560	-0.010	-0.710	1.240
2020/01/31 02:46:26.9	92.560	-0.010	-0.690	1.220
2020/01/31 02:46:27.0	92.560	-0.010	-0.660	1.190
2020/01/31 02:46:27.1	92.560	-0.010	-0.630	1.150
2020/01/31 02:46:27.2	92.550	-0.000	-0.600	1.120
2020/01/31 02:46:27.3	92.550	-0.000	-0.570	1.080
2020/01/31 02:46:27.4	92.540	0.000	-0.540	1.050
2020/01/31 02:46:27.5	92.530	0.000	-0.510	1.010
2020/01/31 02:46:27.6	92.520	0.010	-0.480	0.970
2020/01/31 02:46:27.7	92.510	0.010	-0.440	0.930
2020/01/31 02:46:27.8	92.500	0.020	-0.410	0.890
2020/01/31 02:46:27.9	92.490	0.020	-0.380	0.860
2020/01/31 02:46:28.0	92.480	0.020	-0.350	0.820
2020/01/31 02:46:28.1	92.470	0.030	-0.320	0.780
2020/01/31 02:46:28.2	92.460	0.030	-0.290	0.750
2020/01/31 02:46:28.3	92.450	0.040	-0.260	0.720
2020/01/31 02:46:28.4	92.430	0.050	-0.240	0.690
2020/01/31 02:46:28.5	92.430	0.050	-0.220	0.660
2020/01/31 02:46:28.6	92.420	0.060	-0.190	0.630
2020/01/31 02:46:28.7	92.410	0.070	-0.180	0.600
2020/01/31 02:46:28.8	92.400	0.080	-0.160	0.580
2020/01/31 02:46:28.9	92.390	0.090	-0.150	0.550
2020/01/31 02:46:29.0	92.390	0.100	-0.130	0.530
2020/01/31 02:46:29.1	92.370	0.110	-0.120	0.500
2020/01/31 02:46:29.2	92.370	0.120	-0.120	0.480
2020/01/31 02:46:29.3	92.370	0.130	-0.110	0.460
2020/01/31 02:46:29.4	92.360	0.140	-0.110	0.450
2020/01/31 02:46:29.5	92.360	0.140	-0.110	0.430
2020/01/31 02:46:29.6	92.360	0.150	-0.110	0.420
2020/01/31 02:46:29.7	92.370	0.160	-0.110	0.400
2020/01/31 02:46:29.8	92.370	0.170	-0.120	0.390
2020/01/31 02:46:29.9	92.370	0.180	-0.120	0.380
2020/01/31 02:46:30.0	92.380	0.180	-0.130	0.370
2020/01/31 02:46:30.1	92.390	0.190	-0.140	0.360
2020/01/31 02:46:30.2	92.400	0.200	-0.140	0.360
2020/01/31 02:46:30.3	92.410	0.200	-0.150	0.350
2020/01/31 02:46:30.4	92.420	0.200	-0.160	0.340
2020/01/31 02:46:30.5	92.430	0.210	-0.160	0.340
2020/01/31 02:46:30.6	92.440	0.210	-0.170	0.330
2020/01/31 02:46:30.7	92.450	0.210	-0.180	0.330
2020/01/31 02:46:30.8	92.470	0.210	-0.180	0.330
2020/01/31 02:46:30.9	92.480	0.210	-0.190	0.330
2020/01/31 02:46:31.0	92.500	0.200	-0.190	0.330
2020/01/31 02:46:31.1	92.510	0.200	-0.190	0.330
2020/01/31 02:46:31.2	92.530	0.190	-0.200	0.340
2020/01/31 02:46:31.3	92.540	0.180	-0.200	0.340
2020/01/31 02:46:31.4	92.560	0.170	-0.200	0.350
2020/01/31 02:46:31.5	92.570	0.160	-0.200	0.360
2020/01/31 02:46:31.6	92.590	0.150	-0.200	0.370
2020/01/31 02:46:31.7	92.610	0.140	-0.200	0.380
2020/01/31 02:46:31.8	92.620	0.120	-0.200	0.400
2020/01/31 02:46:31.9	92.640	0.100	-0.190	0.410
2020/01/31 02:46:32.0	92.650	0.080	-0.190	0.430
2020/01/31 02:46:32.1	92.660	0.060	-0.180	0.440
2020/01/31 02:46:32.2	92.670	0.040	-0.170	0.460
2020/01/31 02:46:32.3	92.680	0.010	-0.160	0.480
2020/01/31 02:46:32.4	92.690	-0.010	-0.150	0.500
2020/01/31 02:46:32.5	92.700	-0.040	-0.140	0.530
2020/01/31 02:46:32.6	92.710	-0.070	-0.130	0.550
2020/01/31 02:46:32.7	92.720	-0.100	-0.110	0.580
2020/01/31 02:46:32.8	92.720	-0.120	-0.100	0.610
2020/01/31 02:46:32.9	92.730	-0.150	-0.080	0.640
2020/01/31 02:46:33.0	92.730	-0.180	-0.060	0.670
2020/01/31 02:46:33.1	92.740	-0.210	-0.040	0.710
2020/01/31 02:46:33.2	92.740	-0.240	-0.020	0.740
2020/01/31 02:46:33.3	92.740	-0.270	-0.000	0.780
2020/01/31 02:46:33.4	92.730	-0.300	0.020	0.820
2020/01/31 02:46:33.5	92.730	-0.320	0.040	0.860
2020/01/31 02:46:33.6	92.720	-0.350	0.060	0.890
2020/01/31 02:46:33.7	92.720	-0.370	0.070	0.930
2020/01/31 02:46:33.8	92.710	-0.390	0.090	0.970
2020/01/31 02:46:33.9	92.700	-0.410	0.100	1.010
2020/01/31 02:46:34.0	92.690	-0.420	0.110	1.050
2020/01/31 02:46:34.1	92.670	-0.430	0.120	1.090
2020/01/31 02:46:34.2	92.660	-0.440	0.120	1.120
2020/01/31 02:46:34.3	92.650	-0.450	0.120	1.160
2020/01/31 02:46:34.4	92.630	-0.450	0.120	1.190
2020/01/31 02:46:34.5	92.620	-0.450	0.110	1.230
2020/01/31 02:46:34.6	92.600	-0.440	0.090	1.260
2020/01/31 02:46:34.7	92.590	-0.430	0.070	1.290
2020/01/31 02:46:34.8	92.580	-0.420	0.050	1.320
2020/01/31 02:46:34.9	92.560	-0.400	0.020	1.340
2020/01/31 02:46:35.0	92.550	-0.380	-0.020	1.370
2020/01/31 02:46:35.1	92.540	-0.360	-0.050	1.390
2020/01/31 02:46:35.2	92.530	-0.330	-0.100	1.400
2020/01/31 02:46:35.3	92.510	-0.300	-0.140	1.420
2020/01/31 02:46:35.4	92.500	-0.260	-0.190	1.430
2020/01/31 02:46:35.5	92.480	-0.230	-0.240	1.440
2020/01/31 02:46:35.6	92.470	-0.190	-0.290	1.440
2020/01/31 02:46:35.7	92.460	-0.150	-0.340	1.440
2020/01/31 02:46:35.8	92.450	-0.110	-0.390	1.440
2020/01/31 02:46:35.9	92.430	-0.060	-0.450	1.430
2020/01/31 02:46:36.0	92.430	-0.020	-0.500	1.410
2020/01/31 02:46:36.1	92.410	0.020	-0.550	1.390
2020/01/31 02:46:36.2	92.410	0.060	-0.590	1.370
2020/01/31 02:46:36.3	92.400	0.100	-0.640	1.340
2020/01/31 02:46:36.4	92.400	0.140	-0.680	1.310
2020/01/31 02:46:36.5	92.390	0.180	-0.710	1.280
2020/01/31 02:46:36.6	92.390	0.210	-0.740	1.250
2020/01/31 02:46:36.7	92.390	0.240	-0.760	1.210
2020/01/31 02:46:36.8	92.390	0.280	-0.780	1.180
2020/01/31 02:46:36.9	92.390	0.300	-0.790	1.140
2020/01/31 02:46:37.0	92.390	0.330	-0.800	1.100
2020/01/31 02:46:37.1	92.400	0.350	-0.800	1.060
2020/01/31 02:46:37.2	92.400	0.370	-0.790	1.020
2020/01/31 02:46:37.3	92.400	0.380	-0.780	0.980
2020/01/31 02:46:37.4	92.410	0.400	-0.770	0.950
2020/01/31 02:46:37.5	92.410	0.410	-0.750	0.910
2020/01/31 02:46:37.6	92.410	0.410	-0.720	0.880
2020/01/31 02:46:37.7	92.420	0.420	-0.680	0.840
2020/01/31 02:46:37.8	92.420	0.420	-0.650	0.810
2020/01/31 02:46:37.9	92.420	0.410	-0.600	0.780
2020/01/31 02:46:38.0	92.430	0.410	-0.560	0.750
2020/01/31 02:46:38.1	92.430	0.400	-0.510	0.720
2020/01/31 02:46:38.2	92.430	0.390	-0.450	0.700
2020/01/31 02:46:38.3	92.440	0.380	-0.390	0.680
2020/01/31 02:46:38.4	92.440	0.370	-0.340	0.650
2020/01/31 02:46:38.5	92.440	0.350	-0.280	0.630
2020/01/31 02:46:38.6	92.450	0.340	-0.220	0.610
2020/01/31 02:46:38.7	92.450	0.320	-0.150	0.590
2020/01/31 02:46:38.8	92.450	0.300	-0.100	0.570
2020/01/31 02:46:38.9	92.460	0.280	-0.040	0.550
2020/01/31 02:46:39.0	92.460	0.260	0.020	0.540
2020/01/31 02:46:39.1	92.460	0.250	0.070	0.520
2020/01/31 02:46:39.2	92.470	0.230	0.120	0.500
2020/01/31 02:46:39.3	92.470	0.210	0.160	0.490
2020/01/31 02:46:39.4	92.470	0.200	0.200	0.470
2020/01/31 02:46:39.5	92.480	0.180	0.230	0.460
2020/01/31 02:46:39.6	92.480	0.170	0.260	0.450
2020/01/31 02:46:39.7	92.480	0.160	0.280	0.440
2020/01/31 02:46:39.8	92.480	0.150	0.290	0.440
2020/01/31 02:46:39.9	92.490	0.140	0.300	0.430
2020/01/31 02:46:40.0	92.490	0.130	0.300	0.430
2020/01/31 02:46:40.1	92.480	0.130	0.300	0.430
2020/01/31 02:46:40.2	92.480	0.120	0.290	0.430
2020/01/31 02:46:40.3	92.480	0.120	0.270	0.440
2020/01/31 02:46:40.4	92.480	0.120	0.250	0.440
2020/01/31 02:46:40.5	92.490	0.120	0.220	0.450
2020/01/31 02:46:40.6	92.480	0.110	0.200	0.460
2020/01/31 02:46:40.7	92.480	0.110	0.160	0.470
2020/01/31 02:46:40.8	92.480	0.110	0.130	0.480
2020/01/31 02:46:40.9	92.480	0.120	0.090	0.500
2020/01/31 02:46:41.0	92.480	0.120	0.050	0.510
2020/01/31 02:46:41.1	92.480	0.110	0.010	0.530
2020/01/31 02:46:41.2	92.470	0.110	-0.030	0.550
2020/01/31 02:46:41.3	92.470	0.110	-0.070	0.580
2020/01/31 02:46:41.4	92.470	0.110	-0.110	0.600
2020/01/31 02:46:41.5	92.460	0.110	-0.150	0.620
2020/01/31 02:46:41.6	92.450	0.100	-0.190	0.650
2020/01/31 02:46:41.7	92.450	0.100	-0.220	0.670
2020/01/31 02:46:41.8	92.440	0.090	-0.250	0.690
2020/01/31 02:46:41.9	92.430	0.080	-0.280	0.720
2020/01/31 02:46:42.0	92.420	0.070	-0.310	0.740
2020/01/31 02:46:42.1	92.410	0.060	-0.330	0.760
2020/01/31 02:46:42.2	92.400	0.050	-0.350	0.780
2020/01/31 02:46:42.3	92.390	0.040	-0.360	0.800
2020/01/31 02:46:42.4	92.380	0.030	-0.380	0.810
2020/01/31 02:46:42.5	92.370	0.010	-0.380	0.830
2020/01/31 02:46:42.6	92.360	-0.000	-0.390	0.840
2020/01/31 02:46:42.7	92.350	-0.020	-0.390	0.850
2020/01/31 02:46:42.8	92.340	-0.030	-0.390	0.860
2020/01/31 02:46:42.9	92.340	-0.050	-0.390	0.870
2020/01/31 02:46:43.0	92.330	-0.060	-0.380	0.880
2020/01/31 02:46:43.1	92.330	-0.080	-0.370	0.870
2020/01/31 02:46:43.2	92.330	-0.090	-0.360	0.870
2020/01/31 02:46:43.3	92.330	-0.110	-0.350	0.870
2020/01/31 02:46:43.4	92.340	-0.120	-0.340	0.870
2020/01/31 02:46:43.5	92.340	-0.130	-0.320	0.870
2020/01/31 02:46:43.6	92.350	-0.150	-0.310	0.870
2020/01/31 02:46:43.7	92.350	-0.160	-0.300	0.860
2020/01/31 02:46:43.8	92.360	-0.170	-0.280	0.860
2020/01/31 02:46:43.9	92.370	-0.180	-0.270	0.860
2020/01/31 02:46:44.0	92.390	-0.190	-0.260	0.860
2020/01/31 02:46:44.1	92.400	-0.200	-0.240	0.860
2020/01/31 02:46:44.2	92.410	-0.210	-0.230	0.860
2020/01/31 02:46:44.3	92.420	-0.210	-0.220	0.860
2020/01/31 02:46:44.4	92.430	-0.220	-0.210	0.870
2020/01/31 02:46:44.5	92.440	-0.230	-0.200	0.880
2020/01/31 02:46:44.6	92.450	-0.230	-0.190	0.890
2020/01/31 02:46:44.7	92.460	-0.240	-0.180	0.900
2020/01/31 02:46:44.8	92.470	-0.240	-0.180	0.910
2020/01/31 02:46:44.9	92.470	-0.240	-0.170	0.930
2020/01/31 02:46:45.0	92.470	-0.250	-0.170	0.940
2020/01/31 02:46:45.1	92.470	-0.250	-0.170	0.960
2020/01/31 02:46:45.2	92.470	-0.250	-0.170	0.980
2020/01/31 02:46:45.3	92.460	-0.250	-0.170	1.000
2020/01/31 02:46:45.4	92.460	-0.250	-0.180	1.010
2020/01/31 02:46:45.5	92.450	-0.250	-0.180	1.030
2020/01/31 02:46:45.6	92.450	-0.250	-0.190	1.050
2020/01/31 02:46:45.7	92.440	-0.250	-0.200	1.060
2020/01/31 02:46:45.8	92.430	-0.250	-0.210	1.070
2020/01/31 02:46:45.9	92.410	-0.240	-0.230	1.080
2020/01/31 02:46:46.0	92.400	-0.240	-0.240	1.080
2020/01/31 02:46:46.1	92.380	-0.240	-0.250	1.080
2020/01/31 02:46:46.2	92.370	-0.230	-0.270	1.080
2020/01/31 02:46:46.3	92.360	-0.230	-0.290	1.080
2020/01/31 02:46:46.4	92.340	-0.220	-0.300	1.070
2020/01/31 02:46:46.5	92.330	-0.210	-0.320	1.060
2020/01/31 02:46:46.6	92.320	-0.210	-0.340	1.050
2020/01/31 02:46:46.7	92.310	-0.200	-0.350	1.040
2020/01/31 02:46:46.8	92.300	-0.190	-0.370	1.020
2020/01/31 02:46:46.9	92.280	-0.180	-0.380	1.010
2020/01/31 02:46:47.0	92.270	-0.170	-0.390	1.000
2020/01/31 02:46:47.1	92.260	-0.160	-0.400	0.980
2020/01/31 02:46:47.2	92.250	-0.150	-0.410	0.970
2020/01/31 02:46:47.3	92.240	-0.130	-0.420	0.960
2020/01/31 02:46:47.4	92.230	-0.120	-0.430	0.960
2020/01/31 02:46:47.5	92.210	-0.110	-0.430	0.950
2020/01/31 02:46:47.6	92.200	-0.100	-0.440	0.950
2020/01/31 02:46:47.7	92.190	-0.080	-0.440	0.950
2020/01/31 02:46:47.8	92.180	-0.070	-0.440	0.960
2020/01/31 02:46:47.9	92.170	-0.060	-0.440	0.960
2020/01/31 02:46:48.0	92.160	-0.040	-0.430	0.970
2020/01/31 02:46:48.1	92.140	-0.030	-0.430	0.970
2020/01/31 02:46:48.2	92.130	-0.020	-0.420	0.980
2020/01/31 02:46:48.3	92.120	-0.010	-0.410	0.980
2020/01/31 02:46:48.4	92.110	-0.000	-0.400	0.980
2020/01/31 02:46:48.5	92.100	0.010	-0.390	0.980
2020/01/31 02:46:48.6	92.090	0.010	-0.380	0.980
2020/01/31 02:46:48.7	92.090	0.020	-0.360	0.970
2020/01/31 02:46:48.8	92.080	0.030	-0.350	0.960
2020/01/31 02:46:48.9	92.070	0.030	-0.330	0.950
2020/01/31 02:46:49.0	92.070	0.030	-0.310	0.930
2020/01/31 02:46:49.1	92.070	0.030	-0.290	0.910
2020/01/31 02:46:49.2	92.060	0.030	-0.270	0.880
2020/01/31 02:46:49.3	92.060	0.030	-0.250	0.860
2020/01/31 02:46:49.4	92.050	0.030	-0.230	0.830
2020/01/31 02:46:49.5	92.050	0.030	-0.210	0.800
2020/01/31 02:46:49.6	92.040	0.030	-0.180	0.770
2020/01/31 02:46:49.7	92.030	0.020	-0.160	0.730
2020/01/31 02:46:49.8	92.020	0.020	-0.140	0.700
2020/01/31 02:46:49.9	92.020	0.020	-0.110	0.680
2020/01/31 02:46:50.0	92.010	0.010	-0.090	0.650
2020/01/31 02:46:50.1	92.000	0.010	-0.070	0.610
2020/01/31 02:46:50.2	92.000	0.010	-0.050	0.590
2020/01/31 02:46:50.3	91.990	0.000	-0.030	0.570
2020/01/31 02:46:50.4	91.980	0.000	-0.010	0.560
2020/01/31 02:46:50.5	91.970	0.000	0.010	0.540
2020/01/31 02:46:50.6	91.960	-0.000	0.030	0.530
2020/01/31 02:46:50.7	91.950	-0.000	0.050	0.520
2020/01/31 02:46:50.8	91.940	-0.000	0.060	0.510
2020/01/31 02:46:50.9	91.940	-0.000	0.080	0.510
2020/01/31 02:46:51.0	91.930	-0.000	0.090	0.510
2020/01/31 02:46:51.1	91.920	-0.000	0.100	0.510
2020/01/31 02:46:51.2	91.920	0.000	0.110	0.510
2020/01/31 02:46:51.3	91.910	0.000	0.120	0.520
2020/01/31 02:46:51.4	91.910	0.000	0.120	0.520
2020/01/31 02:46:51.5	91.910	0.010	0.120	0.520
2020/01/31 02:46:51.6	91.900	0.010	0.110	0.530
2020/01/31 02:46:51.7	91.900	0.010	0.110	0.530
2020/01/31 02:46:51.8	91.900	0.020	0.100	0.530
2020/01/31 02:46:51.9	91.910	0.020	0.080	0.530
2020/01/31 02:46:52.0	91.910	0.030	0.070	0.530
2020/01/31 02:46:52.1	91.910	0.040	0.040	0.520
2020/01/31 02:46:52.2	91.920	0.050	0.020	0.520
2020/01/31 02:46:52.3	91.920	0.060	-0.010	0.510
2020/01/31 02:46:52.4	91.930	0.070	-0.040	0.500
2020/01/31 02:46:52.5	91.930	0.080	-0.070	0.500
2020/01/31 02:46:52.6	91.940	0.090	-0.100	0.490
2020/01/31 02:46:52.7	91.950	0.110	-0.140	0.480
2020/01/31 02:46:52.8	91.950	0.120	-0.170	0.480
2020/01/31 02:46:52.9	91.960	0.140	-0.210	0.470
2020/01/31 02:46:53.0	91.960	0.150	-0.240	0.470
2020/01/31 02:46:53.1	91.980	0.170	-0.280	0.470
2020/01/31 02:46:53.2	91.980	0.190	-0.310	0.470
2020/01/31 02:46:53.3	91.990	0.200	-0.340	0.470
2020/01/31 02:46:53.4	91.990	0.220	-0.370	0.480
2020/01/31 02:46:53.5	92.000	0.240	-0.390	0.480
2020/01/31 02:46:53.6	92.010	0.250	-0.420	0.490
2020/01/31 02:46:53.7	92.020	0.270	-0.430	0.500
2020/01/31 02:46:53.8	92.020	0.280	-0.450	0.510
2020/01/31 02:46:53.9	92.030	0.290	-0.460	0.530
2020/01/31 02:46:54.0	92.040	0.300	-0.470	0.540
2020/01/31 02:46:54.1	92.040	0.310	-0.480	0.550
2020/01/31 02:46:54.2	92.060	0.310	-0.480	0.570
2020/01/31 02:46:54.3	92.070	0.320	-0.470	0.590
2020/01/31 02:46:54.4	92.080	0.320	-0.470	0.610
2020/01/31 02:46:54.5	92.090	0.320	-0.450	0.630
2020/01/31 02:46:54.6	92.110	0.320	-0.440	0.640
2020/01/31 02:46:54.7	92.120	0.310	-0.420	0.660
2020/01/31 02:46:54.8	92.140	0.300	-0.400	0.680
2020/01/31 02:46:54.9	92.160	0.290	-0.380	0.700
2020/01/31 02:46:55.0	92.170	0.280	-0.360	0.720
2020/01/31 02:46:55.1	92.200	0.260	-0.320	0.740
2020/01/31 02:46:55.2	92.220	0.250	-0.300	0.760
2020/01/31 02:46:55.3	92.230	0.230	-0.270	0.780
2020/01/31 02:46:55.4	92.250	0.210	-0.250	0.800
2020/01/31 02:46:55.5	92.270	0.190	-0.220	0.820
2020/01/31 02:46:55.6	92.290	0.170	-0.200	0.840
2020/01/31 02:46:55.7	92.310	0.150	-0.170	0.860
2020/01/31 02:46:55.8	92.330	0.130	-0.150	0.890
2020/01/31 02:46:55.9	92.340	0.100	-0.130	0.910
2020/01/31 02:46:56.0	92.360	0.080	-0.110	0.940
2020/01/31 02:46:56.1	92.370	0.060	-0.100	0.960
2020/01/31 02:46:56.2	92.380	0.040	-0.090	0.980
2020/01/31 02:46:56.3	92.400	0.020	-0.080	1.010
2020/01/31 02:46:56.4	92.410	0.010	-0.080	1.040
2020/01/31 02:46:56.5	92.410	-0.010	-0.080	1.070
2020/01/31 02:46:56.6	92.420	-0.030	-0.080	1.100
2020/01/31 02:46:56.7	92.430	-0.040	-0.080	1.130
2020/01/31 02:46:56.8	92.430	-0.050	-0.090	1.160
2020/01/31 02:46:56.9	92.430	-0.060	-0.100	1.190
2020/01/31 02:46:57.0	92.430	-0.060	-0.120	1.220
2020/01/31 02:46:57.1	92.440	-0.070	-0.130	1.260
2020/01/31 02:46:57.2	92.430	-0.070	-0.150	1.290
2020/01/31 02:46:57.3	92.430	-0.070	-0.170	1.320
2020/01/31 02:46:57.4	92.420	-0.080	-0.200	1.350
2020/01/31 02:46:57.5	92.410	-0.070	-0.220	1.380
2020/01/31 02:46:57.6	92.400	-0.070	-0.250	1.410
2020/01/31 02:46:57.7	92.380	-0.070	-0.270	1.440
2020/01/31 02:46:57.8	92.370	-0.070	-0.300	1.460
2020/01/31 02:46:57.9	92.350	-0.070	-0.320	1.490
2020/01/31 02:46:58.0	92.340	-0.060	-0.340	1.510
2020/01/31 02:46:58.1	92.320	-0.060	-0.370	1.530
2020/01/31 02:46:58.2	92.300	-0.060	-0.390	1.550
2020/01/31 02:46:58.3	92.280	-0.060	-0.410	1.570
2020/01/31 02:46:58.4	92.250	-0.060	-0.430	1.580
2020/01/31 02:46:58.5	92.230	-0.060	-0.440	1.590
2020/01/31 02:46:58.6	92.210	-0.060	-0.450	1.590
2020/01/31 02:46:58.7	92.180	-0.070	-0.460	1.600
2020/01/31 02:46:58.8	92.160	-0.070	-0.470	1.590
2020/01/31 02:46:58.9	92.140	-0.080	-0.470	1.590
2020/01/31 02:46:59.0	92.120	-0.080	-0.470	1.580
2020/01/31 02:46:59.1	92.100	-0.090	-0.470	1.570
2020/01/31 02:46:59.2	92.080	-0.100	-0.460	1.550
2020/01/31 02:46:59.3	92.060	-0.110	-0.450	1.540
2020/01/31 02:46:59.4	92.040	-0.130	-0.440	1.510
2020/01/31 02:46:59.5	92.020	-0.140	-0.430	1.490
2020/01/31 02:46:59.6	92.010	-0.150	-0.410	1.460
2020/01/31 02:46:59.7	91.990	-0.170	-0.390	1.440
2020/01/31 02:46:59.8	91.980	-0.180	-0.370	1.400
2020/01/31 02:46:59.9	91.970	-0.200	-0.350	1.370
2020/01/31 02:47:00.0	91.970	-0.210	-0.320	1.340
2020/01/31 02:47:00.1	91.970	-0.230	-0.300	1.300
2020/01/31 02:47:00.2	91.970	-0.240	-0.270	1.270
2020/01/31 02:47:00.3	91.970	-0.260	-0.240	1.230
2020/01/31 02:47:00.4	91.970	-0.270	-0.210	1.190
2020/01/31 02:47:00.5	91.980	-0.280	-0.170	1.150
2020/01/31 02:47:00.6	91.990	-0.300	-0.140	1.110
2020/01/31 02:47:00.7	92.000	-0.310	-0.110	1.070
2020/01/31 02:47:00.8	92.010	-0.320	-0.090	1.030
2020/01/31 02:47:00.9	92.020	-0.320	-0.060	0.990
2020/01/31 02:47:01.0	92.040	-0.330	-0.030	0.950
2020/01/31 02:47:01.1	92.050	-0.340	-0.010	0.910
2020/01/31 02:47:01.2	92.070	-0.340	0.010	0.870
2020/01/31 02:47:01.3	92.090	-0.340	0.030	0.840
2020/01/31 02:47:01.4	92.110	-0.340	0.040	0.800
2020/01/31 02:47:01.5	92.130	-0.340	0.050	0.760
2020/01/31 02:47:01.6	92.150	-0.340	0.060	0.720
2020/01/31 02:47:01.7	92.170	-0.330	0.060	0.690
2020/01/31 02:47:01.8	92.190	-0.320	0.060	0.650
2020/01/31 02:47:01.9	92.210	-0.310	0.050	0.620
2020/01/31 02:47:02.0	92.240	-0.300	0.040	0.580
2020/01/31 02:47:02.1	92.250	-0.290	0.030	0.540
2020/01/31 02:47:02.2	92.280	-0.270	0.010	0.510
2020/01/31 02:47:02.3	92.300	-0.250	-0.010	0.470
2020/01/31 02:47:02.4	92.320	-0.230	-0.030	0.440
2020/01/31 02:47:02.5	92.330	-0.210	-0.060	0.410
2020/01/31 02:47:02.6	92.350	-0.190	-0.090	0.380
2020/01/31 02:47:02.7	92.370	-0.170	-0.120	0.350
2020/01/31 02:47:02.8	92.380	-0.140	-0.150	0.320
2020/01/31 02:47:02.9	92.390	-0.120	-0.180	0.290
2020/01/31 02:47:03.0	92.400	-0.090	-0.220	0.270
2020/01/31 02:47:03.1	92.400	-0.060	-0.250	0.240
2020/01/31 02:47:03.2	92.400	-0.030	-0.280	0.230
2020/01/31 02:47:03.3	92.400	-0.010	-0.310	0.210
2020/01/31 02:47:03.4	92.400	0.020	-0.340	0.200
2020/01/31 02:47:03.5	92.400	0.050	-0.360	0.200
2020/01/31 02:47:03.6	92.390	0.080	-0.380	0.200
2020/01/31 02:47:03.7	92.380	0.100	-0.400	0.200
2020/01/31 02:47:03.8	92.380	0.130	-0.410	0.210
2020/01/31 02:47:03.9	92.370	0.150	-0.420	0.220
2020/01/31 02:47:04.0	92.350	0.170	-0.430	0.240
2020/01/31 02:47:04.1	92.350	0.190	-0.430	0.260
2020/01/31 02:47:04.2	92.340	0.210	-0.430	0.290
2020/01/31 02:47:04.3	92.320	0.230	-0.420	0.310
2020/01/31 02:47:04.4	92.310	0.240	-0.410	0.340
2020/01/31 02:47:04.5	92.290	0.250	-0.390	0.370
2020/01/31 02:47:04.6	92.280	0.260	-0.380	0.400
2020/01/31 02:47:04.7	92.260	0.270	-0.360	0.430
2020/01/31 02:47:04.8	92.240	0.270	-0.330	0.460
2020/01/31 02:47:04.9	92.230	0.270	-0.310	0.490
2020/01/31 02:47:05.0	92.210	0.270	-0.290	0.520
2020/01/31 02:47:05.1	92.200	0.270	-0.260	0.540
2020/01/31 02:47:05.2	92.180	0.270	-0.240	0.570
2020/01/31 02:47:05.3	92.170	0.260	-0.210	0.590
2020/01/31 02:47:05.4	92.150	0.260	-0.190	0.610
2020/01/31 02:47:05.5	92.140	0.250	-0.170	0.630
2020/01/31 02:47:05.6	92.130	0.240	-0.150	0.640
2020/01/31 02:47:05.7	92.120	0.230	-0.130	0.650
2020/01/31 02:47:05.8	92.110	0.230	-0.110	0.660
2020/01/31 02:47:05.9	92.100	0.220	-0.100	0.660
2020/01/31 02:47:06.0	92.100	0.210	-0.090	0.660
2020/01/31 02:47:06.1	92.090	0.200	-0.090	0.660
2020/01/31 02:47:06.2	92.090	0.190	-0.080	0.650
2020/01/31 02:47:06.3	92.090	0.180	-0.090	0.650
2020/01/31 02:47:06.4	92.090	0.180	-0.090	0.640
2020/01/31 02:47:06.5	92.100	0.170	-0.090	0.630
2020/01/31 02:47:06.6	92.100	0.160	-0.100	0.610
2020/01/31 02:47:06.7	92.110	0.160	-0.110	0.600
2020/01/31 02:47:06.8	92.120	0.150	-0.120	0.580
2020/01/31 02:47:06.9	92.120	0.150	-0.140	0.570
2020/01/31 02:47:07.0	92.140	0.150	-0.150	0.560
2020/01/31 02:47:07.1	92.150	0.150	-0.170	0.540
2020/01/31 02:47:07.2	92.160	0.150	-0.190	0.520
2020/01/31 02:47:07.3	92.180	0.140	-0.200	0.510
2020/01/31 02:47:07.4	92.190	0.140	-0.220	0.500
2020/01/31 02:47:07.5	92.200	0.140	-0.240	0.490
2020/01/31 02:47:07.6	92.220	0.140	-0.260	0.480
2020/01/31 02:47:07.7	92.230	0.140	-0.270	0.480
2020/01/31 02:47:07.8	92.250	0.140	-0.290	0.480
2020/01/31 02:47:07.9	92.260	0.140	-0.300	0.470
2020/01/31 02:47:08.0	92.280	0.140	-0.310	0.480
2020/01/31 02:47:08.1	92.290	0.140	-0.320	0.480
2020/01/31 02:47:08.2	92.300	0.130	-0.330	0.490
2020/01/31 02:47:08.3	92.310	0.130	-0.330	0.500
2020/01/31 02:47:08.4	92.320	0.120	-0.330	0.510
2020/01/31 02:47:08.5	92.330	0.110	-0.320	0.520
2020/01/31 02:47:08.6	92.340	0.100	-0.310	0.540
2020/01/31 02:47:08.7	92.340	0.090	-0.300	0.560
2020/01/31 02:47:08.8	92.340	0.080	-0.280	0.580
2020/01/31 02:47:08.9	92.340	0.070	-0.260	0.600
2020/01/31 02:47:09.0	92.340	0.050	-0.240	0.620
2020/01/31 02:47:09.1	92.340	0.030	-0.210	0.640
2020/01/31 02:47:09.2	92.340	0.010	-0.180	0.670
2020/01/31 02:47:09.3	92.330	-0.010	-0.140	0.690
2020/01/31 02:47:09.4	92.330	-0.030	-0.100	0.720
2020/01/31 02:47:09.5	92.320	-0.060	-0.060	0.750
2020/01/31 02:47:09.6	92.310	-0.080	-0.020	0.780
2020/01/31 02:47:09.7	92.310	-0.110	0.020	0.810
2020/01/31 02:47:09.8	92.300	-0.140	0.060	0.840
2020/01/31 02:47:09.9	92.290	-0.160	0.110	0.880
2020/01/31 02:47:10.0	92.280	-0.190	0.150	0.910
2020/01/31 02:47:10.1	92.270	-0.220	0.190	0.940
2020/01/31 02:47:10.2	92.270	-0.240	0.220	0.970
2020/01/31 02:47:10.3	92.260	-0.270	0.250	1.010
2020/01/31 02:47:10.4	92.250	-0.290	0.280	1.030
2020/01/31 02:47:10.5	92.240	-0.310	0.300	1.060
2020/01/31 02:47:10.6	92.240	-0.330	0.310	1.090
2020/01/31 02:47:10.7	92.230	-0.340	0.320	1.110
2020/01/31 02:47:10.8	92.230	-0.360	0.310	1.140
2020/01/31 02:47:10.9	92.230	-0.360	0.300	1.150
2020/01/31 02:47:11.0	92.230	-0.370	0.280	1.170
2020/01/31 02:47:11.1	92.230	-0.370	0.250	1.180
2020/01/31 02:47:11.2	92.230	-0.370	0.210	1.190
2020/01/31 02:47:11.3	92.230	-0.360	0.170	1.190
2020/01/31 02:47:11.4	92.230	-0.350	0.110	1.200
2020/01/31 02:47:11.5	92.230	-0.330	0.050	1.200
2020/01/31 02:47:11.6	92.240	-0.310	-0.020	1.200
2020/01/31 02:47:11.7	92.240	-0.290	-0.090	1.190
2020/01/31 02:47:11.8	92.240	-0.260	-0.170	1.180
2020/01/31 02:47:11.9	92.240	-0.230	-0.260	1.170
2020/01/31 02:47:12.0	92.240	-0.200	-0.340	1.160
2020/01/31 02:47:12.1	92.240	-0.160	-0.430	1.150
2020/01/31 02:47:12.2	92.240	-0.120	-0.520	1.130
2020/01/31 02:47:12.3	92.240	-0.090	-0.610	1.110
2020/01/31 02:47:12.4	92.240	-0.050	-0.690	1.090
2020/01/31 02:47:12.5	92.230	-0.010	-0.770	1.070
2020/01/31 02:47:12.6	92.230	0.030	-0.840	1.050
2020/01/31 02:47:12.7	92.220	0.070	-0.910	1.030
2020/01/31 02:47:12.8	92.220	0.110	-0.980	1.000
2020/01/31 02:47:12.9	92.210	0.140	-1.030	0.980
2020/01/31 02:47:13.0	92.200	0.180	-1.080	0.960
2020/01/31 02:47:13.1	92.190	0.210	-1.110	0.940
2020/01/31 02:47:13.2	92.180	0.240	-1.140	0.920
2020/01/31 02:47:13.3	92.170	0.260	-1.150	0.900
2020/01/31 02:47:13.4	92.160	0.290	-1.160	0.890
2020/01/31 02:47:13.5	92.140	0.310	-1.160	0.870
2020/01/31 02:47:13.6	92.130	0.320	-1.140	0.860
2020/01/31 02:47:13.7	92.110	0.330	-1.120	0.850
2020/01/31 02:47:13.8	92.100	0.340	-1.090	0.850
2020/01/31 02:47:13.9	92.080	0.350	-1.050	0.840
2020/01/31 02:47:14.0	92.070	0.350	-1.000	0.840
2020/01/31 02:47:14.1	92.050	0.340	-0.940	0.840
2020/01/31 02:47:14.2	92.040	0.330	-0.870	0.840
2020/01/31 02:47:14.3	92.030	0.320	-0.800	0.840
2020/01/31 02:47:14.4	92.020	0.310	-0.730	0.850
2020/01/31 02:47:14.5	92.010	0.290	-0.650	0.850
2020/01/31 02:47:14.6	92.000	0.270	-0.560	0.860
2020/01/31 02:47:14.7	91.990	0.240	-0.480	0.860
2020/01/31 02:47:14.8	91.980	0.210	-0.390	0.870
2020/01/31 02:47:14.9	91.980	0.180	-0.300	0.870
2020/01/31 02:47:15.0	91.970	0.150	-0.220	0.880
2020/01/31 02:47:15.1	91.970	0.110	-0.130	0.880
2020/01/31 02:47:15.2	91.970	0.080	-0.050	0.880
2020/01/31 02:47:15.3	91.960	0.040	0.030	0.890
2020/01/31 02:47:15.4	91.960	0.000	0.110	0.890
2020/01/31 02:47:15.5	91.960	-0.040	0.180	0.890
2020/01/31 02:47:15.6	91.960	-0.070	0.250	0.890
2020/01/31 02:47:15.7	91.960	-0.110	0.310	0.890
2020/01/31 02:47:15.8	91.950	-0.150	0.370	0.890
2020/01/31 02:47:15.9	91.950	-0.190	0.410	0.880
2020/01/31 02:47:16.0	91.950	-0.220	0.460	0.880
2020/01/31 02:47:16.1	91.950	-0.250	0.490	0.870
2020/01/31 02:47:16.2	91.950	-0.290	0.520	0.860
2020/01/31 02:47:16.3	91.940	-0.310	0.540	0.850
2020/01/31 02:47:16.4	91.940	-0.340	0.550	0.840
2020/01/31 02:47:16.5	91.940	-0.360	0.560	0.830
2020/01/31 02:47:16.6	91.940	-0.380	0.550	0.820
2020/01/31 02:47:16.7	91.930	-0.390	0.540	0.810
2020/01/31 02:47:16.8	91.930	-0.400	0.520	0.800
2020/01/31 02:47:16.9	91.930	-0.410	0.500	0.790
2020/01/31 02:47:17.0	91.920	-0.410	0.460	0.780
2020/01/31 02:47:17.1	91.920	-0.410	0.420	0.770
2020/01/31 02:47:17.2	91.910	-0.400	0.380	0.760
2020/01/31 02:47:17.3	91.910	-0.390	0.320	0.750
2020/01/31 02:47:17.4	91.900	-0.370	0.270	0.740
2020/01/31 02:47:17.5	91.900	-0.350	0.200	0.740
2020/01/31 02:47:17.6	91.900	-0.330	0.140	0.730
2020/01/31 02:47:17.7	91.890	-0.300	0.070	0.720
2020/01/31 02:47:17.8	91.890	-0.270	-0.000	0.720
2020/01/31 02:47:17.9	91.890	-0.230	-0.080	0.710
2020/01/31 02:47:18.0	91.890	-0.200	-0.150	0.710
2020/01/31 02:47:18.1	91.890	-0.160	-0.230	0.700
2020/01/31 02:47:18.2	91.890	-0.120	-0.300	0.700
2020/01/31 02:47:18.3	91.900	-0.080	-0.360	0.700
2020/01/31 02:47:18.4	91.900	-0.040	-0.430	0.700
2020/01/31 02:47:18.5	91.910	-0.010	-0.490	0.700
2020/01/31 02:47:18.6	91.910	0.030	-0.550	0.700
2020/01/31 02:47:18.7	91.920	0.070	-0.600	0.700
2020/01/31 02:47:18.8	91.930	0.110	-0.650	0.700
2020/01/31 02:47:18.9	91.940	0.140	-0.690	0.710
2020/01/31 02:47:19.0	91.950	0.170	-0.720	0.710
2020/01/31 02:47:19.1	91.960	0.200	-0.750	0.720
2020/01/31 02:47:19.2	91.970	0.230	-0.770	0.730
2020/01/31 02:47:19.3	91.980	0.250	-0.780	0.730
2020/01/31 02:47:19.4	91.990	0.270	-0.780	0.740
2020/01/31 02:47:19.5	92.000	0.280	-0.780	0.750
2020/01/31 02:47:19.6	92.010	0.290	-0.770	0.760
2020/01/31 02:47:19.7	92.030	0.300	-0.750	0.770
2020/01/31 02:47:19.8	92.040	0.310	-0.730	0.790
2020/01/31 02:47:19.9	92.050	0.310	-0.690	0.800
2020/01/31 02:47:20.0	92.060	0.310	-0.660	0.800
2020/01/31 02:47:20.1	92.070	0.300	-0.610	0.810
2020/01/31 02:47:20.2	92.080	0.290	-0.560	0.820
2020/01/31 02:47:20.3	92.090	0.280	-0.500	0.830
2020/01/31 02:47:20.4	92.100	0.260	-0.440	0.840
2020/01/31 02:47:20.5	92.110	0.240	-0.380	0.840
2020/01/31 02:47:20.6	92.120	0.220	-0.310	0.850
2020/01/31 02:47:20.7	92.130	0.200	-0.240	0.850
2020/01/31 02:47:20.8	92.130	0.180	-0.170	0.860
2020/01/31 02:47:20.9	92.140	0.150	-0.100	0.860
2020/01/31 02:47:21.0	92.150	0.130	-0.030	0.860
2020/01/31 02:47:21.1	92.150	0.100	0.040	0.870
2020/01/31 02:47:21.2	92.160	0.070	0.110	0.870
2020/01/31 02:47:21.3	92.170	0.040	0.170	0.870
2020/01/31 02:47:21.4	92.170	0.020	0.230	0.870
2020/01/31 02:47:21.5	92.180	-0.010	0.290	0.880
2020/01/31 02:47:21.6	92.190	-0.030	0.350	0.880
2020/01/31 02:47:21.7	92.190	-0.060	0.390	0.880
2020/01/31 02:47:21.8	92.200	-0.080	0.440	0.880
2020/01/31 02:47:21.9	92.210	-0.100	0.470	0.880
2020/01/31 02:47:22.0	92.210	-0.120	0.500	0.890
2020/01/31 02:47:22.1	92.220	-0.130	0.520	0.890
2020/01/31 02:47:22.2	92.220	-0.150	0.540	0.890
2020/01/31 02:47:22.3	92.230	-0.160	0.540	0.890
2020/01/31 02:47:22.4	92.240	-0.170	0.540	0.890
2020/01/31 02:47:22.5	92.240	-0.180	0.540	0.900
2020/01/31 02:47:22.6	92.250	-0.180	0.520	0.900
2020/01/31 02:47:22.7	92.260	-0.190	0.500	0.900
2020/01/31 02:47:22.8	92.260	-0.190	0.470	0.900
2020/01/31 02:47:22.9	92.270	-0.180	0.440	0.900
2020/01/31 02:47:23.0	92.270	-0.180	0.400	0.900
2020/01/31 02:47:23.1	92.270	-0.170	0.350	0.890
2020/01/31 02:47:23.2	92.280	-0.160	0.300	0.890
2020/01/31 02:47:23.3	92.280	-0.150	0.250	0.880
2020/01/31 02:47:23.4	92.290	-0.140	0.190	0.870
2020/01/31 02:47:23.5	92.290	-0.130	0.120	0.860
2020/01/31 02:47:23.6	92.300	-0.110	0.050	0.850
2020/01/31 02:47:23.7	92.300	-0.090	-0.020	0.840
2020/01/31 02:47:23.8	92.300	-0.070	-0.090	0.820
2020/01/31 02:47:23.9	92.300	-0.050	-0.160	0.810
2020/01/31 02:47:24.0	92.300	-0.020	-0.240	0.800
2020/01/31 02:47:24.1	92.300	0.000	-0.320	0.790
2020/01/31 02:47:24.2	92.300	0.030	-0.390	0.780
2020/01/31 02:47:24.3	92.300	0.060	-0.470	0.770
2020/01/31 02:47:24.4	92.300	0.090	-0.540	0.770
2020/01/31 02:47:24.5	92.290	0.120	-0.610	0.770
2020/01/31 02:47:24.6	92.280	0.150	-0.680	0.770
2020/01/31 02:47:24.7	92.280	0.180	-0.740	0.770
2020/01/31 02:47:24.8	92.270	0.200	-0.800	0.770
2020/01/31 02:47:24.9	92.260	0.230	-0.860	0.780
2020/01/31 02:47:25.0	92.250	0.260	-0.910	0.790
2020/01/31 02:47:25.1	92.240	0.290	-0.960	0.790
2020/01/31 02:47:25.2	92.220	0.320	-1.000	0.800
2020/01/31 02:47:25.3	92.210	0.340	-1.040	0.820
2020/01/31 02:47:25.4	92.200	0.360	-1.070	0.830
2020/01/31 02:47:25.5	92.190	0.380	-1.100	0.850
2020/01/31 02:47:25.6	92.170	0.400	-1.120	0.870
2020/01/31 02:47:25.7	92.160	0.410	-1.130	0.890
2020/01/31 02:47:25.8	92.140	0.430	-1.140	0.910
2020/01/31 02:47:25.9	92.130	0.430	-1.140	0.930
2020/01/31 02:47:26.0	92.120	0.440	-1.140	0.960
2020/01/31 02:47:26.1	92.110	0.440	-1.130	0.980
2020/01/31 02:47:26.2	92.100	0.430	-1.120	1.000
2020/01/31 02:47:26.3	92.090	0.430	-1.100	1.030
2020/01/31 02:47:26.4	92.080	0.420	-1.070	1.050
2020/01/31 02:47:26.5	92.070	0.400	-1.050	1.070
2020/01/31 02:47:26.6	92.060	0.380	-1.010	1.100
2020/01/31 02:47:26.7	92.050	0.360	-0.970	1.120
2020/01/31 02:47:26.8	92.040	0.330	-0.930	1.140
2020/01/31 02:47:26.9	92.040	0.300	-0.880	1.170
2020/01/31 02:47:27.0	92.040	0.260	-0.830	1.190
2020/01/31 02:47:27.1	92.040	0.230	-0.770	1.210
2020/01/31 02:47:27.2	92.040	0.190	-0.720	1.230
2020/01/31 02:47:27.3	92.040	0.140	-0.660	1.240
2020/01/31 02:47:27.4	92.050	0.100	-0.590	1.260
2020/01/31 02:47:27.5	92.050	0.050	-0.520	1.280
2020/01/31 02:47:27.6	92.060	0.010	-0.450	1.290
2020/01/31 02:47:27.7	92.070	-0.040	-0.380	1.310
2020/01/31 02:47:27.8	92.080	-0.090	-0.310	1.320
2020/01/31 02:47:27.9	92.090	-0.140	-0.230	1.330
2020/01/31 02:47:28.0	92.110	-0.190	-0.160	1.340
2020/01/31 02:47:28.1	92.110	-0.240	-0.080	1.340
2020/01/31 02:47:28.2	92.130	-0.290	-0.000	1.350
2020/01/31 02:47:28.3	92.150	-0.340	0.070	1.350
2020/01/31 02:47:28.4	92.160	-0.390	0.150	1.350
2020/01/31 02:47:28.5	92.180	-0.430	0.220	1.350
2020/01/31 02:47:28.6	92.200	-0.480	0.290	1.350
2020/01/31 02:47:28.7	92.220	-0.520	0.350	1.340
2020/01/31 02:47:28.8	92.240	-0.550	0.410	1.330
2020/01/31 02:47:28.9	92.250	-0.590	0.470	1.320
2020/01/31 02:47:29.0	92.270	-0.620	0.520	1.310
2020/01/31 02:47:29.1	92.290	-0.650	0.560	1.290
2020/01/31 02:47:29.2	92.310	-0.670	0.590	1.280
2020/01/31 02:47:29.3	92.320	-0.690	0.620	1.260
2020/01/31 02:47:29.4	92.340	-0.700	0.650	1.240
2020/01/31 02:47:29.5	92.350	-0.710	0.660	1.210
2020/01/31 02:47:29.6	92.360	-0.720	0.670	1.190
2020/01/31 02:47:29.7	92.370	-0.720	0.670	1.170
2020/01/31 02:47:29.8	92.390	-0.720	0.660	1.140
2020/01/31 02:47:29.9	92.400	-0.710	0.650	1.110
2020/01/31 02:47:30.0	92.400	-0.700	0.630	1.080
2020/01/31 02:47:30.1	92.410	-0.690	0.600	1.050
2020/01/31 02:47:30.2	92.420	-0.670	0.570	1.020
2020/01/31 02:47:30.3	92.420	-0.650	0.530	0.990
2020/01/31 02:47:30.4	92.430	-0.620	0.490	0.960
2020/01/31 02:47:30.5	92.430	-0.590	0.440	0.930
2020/01/31 02:47:30.6	92.440	-0.560	0.400	0.900
2020/01/31 02:47:30.7	92.440	-0.530	0.340	0.860
2020/01/31 02:47:30.8	92.440	-0.490	0.290	0.830
2020/01/31 02:47:30.9	92.450	-0.460	0.240	0.800
2020/01/31 02:47:31.0	92.450	-0.420	0.180	0.770
2020/01/31 02:47:31.1	92.460	-0.380	0.120	0.740
2020/01/31 02:47:31.2	92.460	-0.340	0.070	0.710
2020/01/31 02:47:31.3	92.470	-0.290	0.010	0.680
2020/01/31 02:47:31.4	92.470	-0.250	-0.040	0.650
2020/01/31 02:47:31.5	92.480	-0.210	-0.090	0.620
2020/01/31 02:47:31.6	92.490	-0.170	-0.140	0.600
2020/01/31 02:47:31.7	92.500	-0.130	-0.190	0.570
2020/01/31 02:47:31.8	92.500	-0.090	-0.230	0.550
2020/01/31 02:47:31.9	92.510	-0.050	-0.280	0.530
2020/01/31 02:47:32.0	92.520	-0.010	-0.320	0.500
2020/01/31 02:47:32.1	92.530	0.020	-0.350	0.480
2020/01/31 02:47:32.2	92.540	0.060	-0.380	0.460
2020/01/31 02:47:32.3	92.550	0.090	-0.410	0.440
2020/01/31 02:47:32.4	92.560	0.120	-0.440	0.420
2020/01/31 02:47:32.5	92.570	0.150	-0.460	0.400
2020/01/31 02:47:32.6	92.580	0.170	-0.480	0.370
2020/01/31 02:47:32.7	92.590	0.200	-0.490	0.350
2020/01/31 02:47:32.8	92.590	0.220	-0.500	0.330
2020/01/31 02:47:32.9	92.600	0.240	-0.510	0.300
2020/01/31 02:47:33.0	92.610	0.260	-0.510	0.280
2020/01/31 02:47:33.1	92.600	0.270	-0.510	0.250
2020/01/31 02:47:33.2	92.610	0.290	-0.510	0.230
2020/01/31 02:47:33.3	92.610	0.300	-0.500	0.200
2020/01/31 02:47:33.4	92.620	0.310	-0.490	0.180
2020/01/31 02:47:33.5	92.620	0.310	-0.480	0.150
2020/01/31 02:47:33.6	92.620	0.320	-0.470	0.130
2020/01/31 02:47:33.7	92.620	0.320	-0.460	0.100
2020/01/31 02:47:33.8	92.620	0.330	-0.440	0.080
2020/01/31 02:47:33.9	92.620	0.330	-0.430	0.050
2020/01/31 02:47:34.0	92.620	0.330	-0.410	0.030
2020/01/31 02:47:34.1	92.620	0.330	-0.400	0.010
2020/01/31 02:47:34.2	92.610	0.330	-0.380	-0.010
2020/01/31 02:47:34.3	92.610	0.330	-0.370	-0.030
2020/01/31 02:47:34.4	92.610	0.330	-0.360	-0.050
2020/01/31 02:47:34.5	92.610	0.330	-0.350	-0.070
2020/01/31 02:47:34.6	92.600	0.330	-0.340	-0.080
2020/01/31 02:47:34.7	92.600	0.330	-0.330	-0.090
2020/01/31 02:47:34.8	92.590	0.330	-0.330	-0.100
2020/01/31 02:47:34.9	92.590	0.330	-0.330	-0.100
2020/01/31 02:47:35.0	92.580	0.340	-0.330	-0.100
2020/01/31 02:47:35.1	92.580	0.340	-0.330	-0.100
2020/01/31 02:47:35.2	92.580	0.350	-0.340	-0.090
2020/01/31 02:47:35.3	92.570	0.350	-0.350	-0.080
2020/01/31 02:47:35.4	92.560	0.360	-0.370	-0.060
2020/01/31 02:47:35.5	92.550	0.370	-0.390	-0.040
2020/01/31 02:47:35.6	92.540	0.380	-0.410	-0.010
2020/01/31 02:47:35.7	92.530	0.400	-0.430	0.020
2020/01/31 02:47:35.8	92.520	0.410	-0.450	0.050
2020/01/31 02:47:35.9	92.510	0.420	-0.470	0.080
2020/01/31 02:47:36.0	92.500	0.440	-0.500	0.120
2020/01/31 02:47:36.1	92.490	0.450	-0.520	0.150
2020/01/31 02:47:36.2	92.480	0.470	-0.550	0.190
2020/01/31 02:47:36.3	92.470	0.480	-0.570	0.230
2020/01/31 02:47:36.4	92.460	0.500	-0.590	0.270
2020/01/31 02:47:36.5	92.450	0.510	-0.610	0.310
2020/01/31 02:47:36.6	92.440	0.520	-0.630	0.350
2020/01/31 02:47:36.7	92.430	0.530	-0.640	0.390
2020/01/31 02:47:36.8	92.430	0.540	-0.650	0.430
2020/01/31 02:47:36.9	92.420	0.540	-0.660	0.460
2020/01/31 02:47:37.0	92.420	0.540	-0.660	0.500
2020/01/31 02:47:37.1	92.410	0.540	-0.660	0.530
2020/01/31 02:47:37.2	92.410	0.540	-0.660	0.560
2020/01/31 02:47:37.3	92.410	0.530	-0.650	0.590
2020/01/31 02:47:37.4	92.410	0.530	-0.640	0.620
2020/01/31 02:47:37.5	92.410	0.510	-0.620	0.650
2020/01/31 02:47:37.6	92.420	0.500	-0.600	0.680
2020/01/31 02:47:37.7	92.420	0.480	-0.570	0.710
2020/01/31 02:47:37.8	92.430	0.450	-0.540	0.740
2020/01/31 02:47:37.9	92.440	0.430	-0.510	0.770
2020/01/31 02:47:38.0	92.440	0.390	-0.470	0.810
2020/01/31 02:47:38.1	92.450	0.360	-0.420	0.840
2020/01/31 02:47:38.2	92.460	0.320	-0.380	0.870
2020/01/31 02:47:38.3	92.460	0.280	-0.330	0.900
2020/01/31 02:47:38.4	92.470	0.240	-0.280	0.940
2020/01/31 02:47:38.5	92.480	0.190	-0.220	0.970
2020/01/31 02:47:38.6	92.480	0.140	-0.160	1.010
2020/01/31 02:47:38.7	92.490	0.090	-0.100	1.040
2020/01/31 02:47:38.8	92.490	0.030	-0.040	1.080
2020/01/31 02:47:38.9	92.490	-0.020	0.020	1.120
2020/01/31 02:47:39.0	92.490	-0.080	0.080	1.150
2020/01/31 02:47:39.1	92.500	-0.130	0.140	1.190
2020/01/31 02:47:39.2	92.500	-0.190	0.200	1.220
2020/01/31 02:47:39.3	92.490	-0.250	0.260	1.260
2020/01/31 02:47:39.4	92.490	-0.300	0.310	1.290
2020/01/31 02:47:39.5	92.490	-0.360	0.360	1.320
2020/01/31 02:47:39.6	92.480	-0.410	0.400	1.340
2020/01/31 02:47:39.7	92.480	-0.460	0.450	1.370
2020/01/31 02:47:39.8	92.470	-0.510	0.480	1.390
2020/01/31 02:47:39.9	92.470	-0.550	0.510	1.400
2020/01/31 02:47:40.0	92.460	-0.600	0.540	1.410
2020/01/31 02:47:40.1	92.440	-0.630	0.550	1.420
2020/01/31 02:47:40.2	92.440	-0.670	0.560	1.420
2020/01/31 02:47:40.3	92.430	-0.700	0.560	1.420
2020/01/31 02:47:40.4	92.430	-0.720	0.560	1.410
2020/01/31 02:47:40.5	92.420	-0.740	0.540	1.400
2020/01/31 02:47:40.6	92.420	-0.760	0.520	1.390
2020/01/31 02:47:40.7	92.420	-0.770	0.490	1.370
2020/01/31 02:47:40.8	92.410	-0.770	0.460	1.350
2020/01/31 02:47:40.9	92.410	-0.770	0.410	1.330
2020/01/31 02:47:41.0	92.410	-0.770	0.360	1.310
2020/01/31 02:47:41.1	92.420	-0.760	0.310	1.290
2020/01/31 02:47:41.2	92.420	-0.740	0.250	1.280
2020/01/31 02:47:41.3	92.420	-0.720	0.190	1.260
2020/01/31 02:47:41.4	92.410	-0.700	0.120	1.250
2020/01/31 02:47:41.5	92.410	-0.670	0.050	1.240
2020/01/31 02:47:41.6	92.410	-0.640	-0.020	1.230
2020/01/31 02:47:41.7	92.400	-0.600	-0.090	1.220
2020/01/31 02:47:41.8	92.400	-0.570	-0.170	1.220
2020/01/31 02:47:41.9	92.390	-0.530	-0.240	1.210
2020/01/31 02:47:42.0	92.380	-0.490	-0.310	1.210
2020/01/31 02:47:42.1	92.380	-0.440	-0.380	1.200
2020/01/31 02:47:42.2	92.370	-0.400	-0.450	1.190
2020/01/31 02:47:42.3	92.360	-0.360	-0.510	1.180
2020/01/31 02:47:42.4	92.360	-0.320	-0.560	1.170
2020/01/31 02:47:42.5	92.350	-0.280	-0.610	1.160
2020/01/31 02:47:42.6	92.350	-0.240	-0.660	1.140
2020/01/31 02:47:42.7	92.340	-0.200	-0.700	1.120
2020/01/31 02:47:42.8	92.340	-0.160	-0.730	1.100
2020/01/31 02:47:42.9	92.340	-0.130	-0.750	1.070
2020/01/31 02:47:43.0	92.340	-0.100	-0.770	1.040
2020/01/31 02:47:43.1	92.330	-0.070	-0.780	0.990
2020/01/31 02:47:43.2	92.330	-0.040	-0.780	0.960
2020/01/31 02:47:43.3	92.330	-0.020	-0.780	0.910
2020/01/31 02:47:43.4	92.340	-0.000	-0.770	0.870
2020/01/31 02:47:43.5	92.340	0.020	-0.760	0.830
2020/01/31 02:47:43.6	92.340	0.030	-0.740	0.780
2020/01/31 02:47:43.7	92.340	0.040	-0.710	0.740
2020/01/31 02:47:43.8	92.340	0.050	-0.680	0.690
2020/01/31 02:47:43.9	92.350	0.050	-0.640	0.650
2020/01/31 02:47:44.0	92.350	0.050	-0.600	0.610
2020/01/31 02:47:44.1	92.350	0.050	-0.550	0.570
2020/01/31 02:47:44.2	92.350	0.050	-0.500	0.530
2020/01/31 02:47:44.3	92.350	0.050	-0.450	0.500
2020/01/31 02:47:44.4	92.350	0.040	-0.390	0.470
2020/01/31 02:47:44.5	92.350	0.030	-0.340	0.450
2020/01/31 02:47:44.6	92.350	0.020	-0.280	0.420
2020/01/31 02:47:44.7	92.350	0.020	-0.230	0.410
2020/01/31 02:47:44.8	92.340	0.010	-0.180	0.390
2020/01/31 02:47:44.9	92.340	-0.000	-0.120	0.380
2020/01/31 02:47:45.0	92.340	-0.010	-0.070	0.370
2020/01/31 02:47:45.1	92.350	-0.020	-0.030	0.360
2020/01/31 02:47:45.2	92.350	-0.030	0.020	0.360
2020/01/31 02:47:45.3	92.350	-0.030	0.060	0.360
2020/01/31 02:47:45.4	92.350	-0.030	0.090	0.360
2020/01/31 02:47:45.5	92.360	-0.040	0.120	0.360
2020/01/31 02:47:45.6	92.370	-0.040	0.150	0.370
2020/01/31 02:47:45.7	92.370	-0.030	0.170	0.380
2020/01/31 02:47:45.8	92.380	-0.030	0.180	0.390
2020/01/31 02:47:45.9	92.390	-0.020	0.180	0.390
2020/01/31 02:47:46.0	92.400	-0.010	0.180	0.400
2020/01/31 02:47:46.1	92.410	-0.000	0.180	0.420
2020/01/31 02:47:46.2	92.420	0.010	0.170	0.420
2020/01/31 02:47:46.3	92.430	0.030	0.140	0.430
2020/01/31 02:47:46.4	92.440	0.050	0.110	0.440
2020/01/31 02:47:46.5	92.440	0.080	0.080	0.450
2020/01/31 02:47:46.6	92.450	0.100	0.030	0.450
2020/01/31 02:47:46.7	92.450	0.130	-0.020	0.460
2020/01/31 02:47:46.8	92.450	0.160	-0.070	0.460
2020/01/31 02:47:46.9	92.450	0.190	-0.130	0.470
2020/01/31 02:47:47.0	92.450	0.220	-0.190	0.470
2020/01/31 02:47:47.1	92.450	0.260	-0.260	0.470
2020/01/31 02:47:47.2	92.450	0.290	-0.330	0.470
2020/01/31 02:47:47.3	92.440	0.330	-0.390	0.480
2020/01/31 02:47:47.4	92.430	0.360	-0.460	0.480
2020/01/31 02:47:47.5	92.420	0.400	-0.520	0.480
2020/01/31 02:47:47.6	92.410	0.430	-0.590	0.490
2020/01/31 02:47:47.7	92.400	0.460	-0.640	0.490
2020/01/31 02:47:47.8	92.380	0.490	-0.700	0.500
2020/01/31 02:47:47.9	92.370	0.520	-0.750	0.510
2020/01/31 02:47:48.0	92.350	0.550	-0.790	0.520
2020/01/31 02:47:48.1	92.330	0.570	-0.820	0.530
2020/01/31 02:47:48.2	92.310	0.590	-0.850	0.550
2020/01/31 02:47:48.3	92.300	0.610	-0.870	0.560
2020/01/31 02:47:48.4	92.280	0.620	-0.880	0.580
2020/01/31 02:47:48.5	92.260	0.630	-0.880	0.600
2020/01/31 02:47:48.6	92.240	0.630	-0.870	0.630
2020/01/31 02:47:48.7	92.230	0.630	-0.850	0.650
2020/01/31 02:47:48.8	92.210	0.630	-0.830	0.680
2020/01/31 02:47:48.9	92.190	0.620	-0.790	0.710
2020/01/31 02:47:49.0	92.170	0.610	-0.740	0.750
2020/01/31 02:47:49.1	92.160	0.600	-0.690	0.780
2020/01/31 02:47:49.2	92.150	0.570	-0.630	0.820
2020/01/31 02:47:49.3	92.130	0.550	-0.560	0.860
2020/01/31 02:47:49.4	92.120	0.520	-0.490	0.900
2020/01/31 02:47:49.5	92.110	0.490	-0.410	0.940
2020/01/31 02:47:49.6	92.100	0.450	-0.330	0.980
2020/01/31 02:47:49.7	92.090	0.410	-0.240	1.010
2020/01/31 02:47:49.8	92.080	0.370	-0.150	1.050
2020/01/31 02:47:49.9	92.070	0.320	-0.060	1.090
2020/01/31 02:47:50.0	92.070	0.280	0.020	1.120
2020/01/31 02:47:50.1	92.060	0.230	0.110	1.150
2020/01/31 02:47:50.2	92.060	0.180	0.190	1.180
2020/01/31 02:47:50.3	92.060	0.130	0.270	1.200
2020/01/31 02:47:50.4	92.060	0.080	0.340	1.230
2020/01/31 02:47:50.5	92.060	0.030	0.410	1.240
2020/01/31 02:47:50.6	92.050	-0.020	0.470	1.250
2020/01/31 02:47:50.7	92.060	-0.070	0.510	1.260
2020/01/31 02:47:50.8	92.060	-0.110	0.550	1.260
2020/01/31 02:47:50.9	92.060	-0.160	0.580	1.260
2020/01/31 02:47:51.0	92.060	-0.200	0.600	1.260
2020/01/31 02:47:51.1	92.050	-0.230	0.620	1.240
2020/01/31 02:47:51.2	92.050	-0.260	0.620	1.220
2020/01/31 02:47:51.3	92.050	-0.290	0.600	1.200
2020/01/31 02:47:51.4	92.060	-0.310	0.580	1.180
2020/01/31 02:47:51.5	92.060	-0.330	0.550	1.150
2020/01/31 02:47:51.6	92.060	-0.350	0.500	1.120
2020/01/31 02:47:51.7	92.060	-0.360	0.450	1.090
2020/01/31 02:47:51.8	92.060	-0.360	0.390	1.060
2020/01/31 02:47:51.9	92.070	-0.360	0.320	1.030
2020/01/31 02:47:52.0	92.070	-0.350	0.240	1.000
2020/01/31 02:47:52.1	92.080	-0.340	0.150	0.960
2020/01/31 02:47:52.2	92.080	-0.320	0.060	0.930
2020/01/31 02:47:52.3	92.090	-0.300	-0.030	0.910
2020/01/31 02:47:52.4	92.090	-0.270	-0.130	0.880
2020/01/31 02:47:52.5	92.100	-0.240	-0.230	0.860
2020/01/31 02:47:52.6	92.100	-0.210	-0.330	0.840
2020/01/31 02:47:52.7	92.110	-0.170	-0.430	0.830
2020/01/31 02:47:52.8	92.120	-0.130	-0.520	0.820
2020/01/31 02:47:52.9	92.130	-0.090	-0.620	0.800
2020/01/31 02:47:53.0	92.140	-0.050	-0.710	0.800
2020/01/31 02:47:53.1	92.160	-0.000	-0.790	0.790
2020/01/31 02:47:53.2	92.170	0.040	-0.870	0.790
2020/01/31 02:47:53.3	92.180	0.090	-0.950	0.790
2020/01/31 02:47:53.4	92.200	0.130	-1.010	0.790
2020/01/31 02:47:53.5	92.210	0.170	-1.060	0.800
2020/01/31 02:47:53.6	92.230	0.210	-1.110	0.800
2020/01/31 02:47:53.7	92.250	0.250	-1.140	0.810
2020/01/31 02:47:53.8	92.270	0.290	-1.170	0.820
2020/01/31 02:47:53.9	92.290	0.320	-1.180	0.830
2020/01/31 02:47:54.0	92.300	0.350	-1.170	0.840
2020/01/31 02:47:54.1	92.320	0.370	-1.170	0.860
2020/01/31 02:47:54.2	92.340	0.390	-1.140	0.870
2020/01/31 02:47:54.3	92.350	0.410	-1.100	0.890
2020/01/31 02:47:54.4	92.360	0.410	-1.060	0.910
2020/01/31 02:47:54.5	92.370	0.420	-1.000	0.930
2020/01/31 02:47:54.6	92.380	0.410	-0.930	0.950
2020/01/31 02:47:54.7	92.390	0.410	-0.850	0.970
2020/01/31 02:47:54.8	92.400	0.390	-0.760	0.990
2020/01/31 02:47:54.9	92.400	0.370	-0.670	1.010
2020/01/31 02:47:55.0	92.410	0.350	-0.570	1.030
2020/01/31 02:47:55.1	92.410	0.320	-0.460	1.060
2020/01/31 02:47:55.2	92.410	0.280	-0.350	1.080
2020/01/31 02:47:55.3	92.410	0.240	-0.240	1.100
2020/01/31 02:47:55.4	92.400	0.200	-0.130	1.120
2020/01/31 02:47:55.5	92.400	0.150	-0.010	1.130
2020/01/31 02:47:55.6	92.390	0.100	0.100	1.150
2020/01/31 02:47:55.7	92.380	0.050	0.200	1.170
2020/01/31 02:47:55.8	92.370	-0.010	0.310	1.180
2020/01/31 02:47:55.9	92.360	-0.070	0.410	1.200
2020/01/31 02:47:56.0	92.350	-0.130	0.500	1.210
2020/01/31 02:47:56.1	92.340	-0.190	0.590	1.220
2020/01/31 02:47:56.2	92.320	-0.250	0.670	1.230
2020/01/31 02:47:56.3	92.310	-0.310	0.740	1.230
2020/01/31 02:47:56.4	92.290	-0.370	0.800	1.240
2020/01/31 02:47:56.5	92.280	-0.420	0.850	1.240
2020/01/31 02:47:56.6	92.260	-0.470	0.890	1.240
2020/01/31 02:47:56.7	92.250	-0.530	0.910	1.230
2020/01/31 02:47:56.8	92.240	-0.570	0.930	1.230
2020/01/31 02:47:56.9	92.220	-0.610	0.930	1.220
2020/01/31 02:47:57.0	92.210	-0.650	0.930	1.200
2020/01/31 02:47:57.1	92.200	-0.690	0.910	1.190
2020/01/31 02:47:57.2	92.200	-0.710	0.880	1.170
2020/01/31 02:47:57.3	92.190	-0.740	0.830	1.140
2020/01/31 02:47:57.4	92.190	-0.750	0.780	1.110
2020/01/31 02:47:57.5	92.190	-0.760	0.720	1.080
2020/01/31 02:47:57.6	92.190	-0.770	0.640	1.040
2020/01/31 02:47:57.7	92.200	-0.770	0.560	1.000
2020/01/31 02:47:57.8	92.200	-0.760	0.470	0.960
2020/01/31 02:47:57.9	92.210	-0.740	0.380	0.920
2020/01/31 02:47:58.0	92.220	-0.730	0.280	0.870
2020/01/31 02:47:58.1	92.230	-0.700	0.180	0.820
2020/01/31 02:47:58.2	92.250	-0.670	0.080	0.780
2020/01/31 02:47:58.3	92.260	-0.640	-0.030	0.730
2020/01/31 02:47:58.4	92.280	-0.610	-0.130	0.690
2020/01/31 02:47:58.5	92.290	-0.560	-0.240	0.650
2020/01/31 02:47:58.6	92.310	-0.520	-0.340	0.610
2020/01/31 02:47:58.7	92.320	-0.480	-0.430	0.570
2020/01/31 02:47:58.8	92.330	-0.430	-0.530	0.530
2020/01/31 02:47:58.9	92.350	-0.380	-0.620	0.490
2020/01/31 02:47:59.0	92.360	-0.330	-0.700	0.460
2020/01/31 02:47:59.1	92.370	-0.280	-0.780	0.430
2020/01/31 02:47:59.2	92.380	-0.220	-0.850	0.400
2020/01/31 02:47:59.3	92.400	-0.170	-0.910	0.370
2020/01/31 02:47:59.4	92.410	-0.120	-0.960	0.340
2020/01/31 02:47:59.5	92.420	-0.070	-1.010	0.320
2020/01/31 02:47:59.6	92.430	-0.030	-1.050	0.290
2020/01/31 02:47:59.7	92.450	0.020	-1.080	0.270
2020/01/31 02:47:59.8	92.460	0.060	-1.100	0.260
2020/01/31 02:47:59.9	92.470	0.100	-1.110	0.240
2020/01/31 02:48:00.0	92.480	0.140	-1.120	0.230
2020/01/31 02:48:00.1	92.480	0.170	-1.120	0.220
2020/01/31 02:48:00.2	92.490	0.210	-1.110	0.220
2020/01/31 02:48:00.3	92.500	0.230	-1.100	0.230
2020/01/31 02:48:00.4	92.510	0.260	-1.070	0.240
2020/01/31 02:48:00.5	92.510	0.280	-1.050	0.250
2020/01/31 02:48:00.6	92.510	0.300	-1.020	0.270
2020/01/31 02:48:00.7	92.520	0.320	-0.980	0.290
2020/01/31 02:48:00.8	92.520	0.330	-0.940	0.320
2020/01/31 02:48:00.9	92.520	0.340	-0.900	0.350
2020/01/31 02:48:01.0	92.520	0.350	-0.850	0.380
2020/01/31 02:48:01.1	92.520	0.350	-0.800	0.420
2020/01/31 02:48:01.2	92.520	0.350	-0.750	0.460
2020/01/31 02:48:01.3	92.510	0.350	-0.700	0.500
2020/01/31 02:48:01.4	92.510	0.340	-0.650	0.540
2020/01/31 02:48:01.5	92.500	0.340	-0.600	0.590
2020/01/31 02:48:01.6	92.490	0.330	-0.550	0.630
2020/01/31 02:48:01.7	92.480	0.320	-0.490	0.670
2020/01/31 02:48:01.8	92.470	0.310	-0.440	0.720
2020/01/31 02:48:01.9	92.460	0.290	-0.390	0.760
2020/01/31 02:48:02.0	92.440	0.280	-0.340	0.800
2020/01/31 02:48:02.1	92.430	0.260	-0.290	0.840
2020/01/31 02:48:02.2	92.410	0.240	-0.240	0.880
2020/01/31 02:48:02.3	92.390	0.220	-0.190	0.920
2020/01/31 02:48:02.4	92.370	0.200	-0.140	0.950
2020/01/31 02:48:02.5	92.350	0.180	-0.090	0.980
2020/01/31 02:48:02.6	92.330	0.160	-0.040	1.000
2020/01/31 02:48:02.7	92.310	0.140	0.000	1.020
2020/01/31 02:48:02.8	92.280	0.120	0.050	1.040
2020/01/31 02:48:02.9	92.260	0.100	0.090	1.060
2020/01/31 02:48:03.0	92.230	0.070	0.130	1.080
2020/01/31 02:48:03.1	92.200	0.050	0.170	1.090
2020/01/31 02:48:03.2	92.170	0.030	0.210	1.100
2020/01/31 02:48:03.3	92.140	0.010	0.250	1.110
2020/01/31 02:48:03.4	92.110	-0.010	0.280	1.110
2020/01/31 02:48:03.5	92.080	-0.030	0.310	1.110
2020/01/31 02:48:03.6	92.050	-0.040	0.350	1.110
2020/01/31 02:48:03.7	92.020	-0.060	0.370	1.110
2020/01/31 02:48:03.8	92.000	-0.070	0.400	1.100
2020/01/31 02:48:03.9	91.970	-0.090	0.420	1.090
2020/01/31 02:48:04.0	91.950	-0.100	0.430	1.080
2020/01/31 02:48:04.1	91.920	-0.110	0.450	1.060
2020/01/31 02:48:04.2	91.900	-0.120	0.450	1.040
2020/01/31 02:48:04.3	91.880	-0.120	0.460	1.020
2020/01/31 02:48:04.4	91.870	-0.130	0.450	1.000
2020/01/31 02:48:04.5	91.860	-0.130	0.450	0.980
2020/01/31 02:48:04.6	91.850	-0.120	0.430	0.950
2020/01/31 02:48:04.7	91.840	-0.120	0.410	0.930
2020/01/31 02:48:04.8	91.840	-0.110	0.380	0.900
2020/01/31 02:48:04.9	91.830	-0.100	0.350	0.870
2020/01/31 02:48:05.0	91.840	-0.080	0.310	0.830
2020/01/31 02:48:05.1	91.850	-0.060	0.260	0.800
2020/01/31 02:48:05.2	91.850	-0.040	0.200	0.760
2020/01/31 02:48:05.3	91.860	-0.010	0.140	0.730
2020/01/31 02:48:05.4	91.880	0.020	0.080	0.690
2020/01/31 02:48:05.5	91.890	0.050	0.010	0.650
2020/01/31 02:48:05.6	91.910	0.080	-0.070	0.610
2020/01/31 02:48:05.7	91.930	0.120	-0.150	0.570
2020/01/31 02:48:05.8	91.950	0.160	-0.240	0.540
2020/01/31 02:48:05.9	91.970	0.210	-0.320	0.500
2020/01/31 02:48:06.0	91.990	0.250	-0.410	0.460
2020/01/31 02:48:06.1	92.010	0.300	-0.490	0.420
2020/01/31 02:48:06.2	92.030	0.350	-0.580	0.380
2020/01/31 02:48:06.3	92.050	0.400	-0.660	0.350
2020/01/31 02:48:06.4	92.070	0.440	-0.740	0.320
2020/01/31 02:48:06.5	92.090	0.490	-0.810	0.290
2020/01/31 02:48:06.6	92.110	0.530	-0.880	0.260
2020/01/31 02:48:06.7	92.130	0.580	-0.940	0.230
2020/01/31 02:48:06.8	92.150	0.620	-0.990	0.210
2020/01/31 02:48:06.9	92.170	0.660	-1.040	0.190
2020/01/31 02:48:07.0	92.190	0.690	-1.070	0.170
2020/01/31 02:48:07.1	92.200	0.720	-1.100	0.160
2020/01/31 02:48:07.2	92.220	0.740	-1.110	0.150
2020/01/31 02:48:07.3	92.230	0.760	-1.110	0.150
2020/01/31 02:48:07.4	92.250	0.780	-1.110	0.160
2020/01/31 02:48:07.5	92.260	0.790	-1.090	0.170
2020/01/31 02:48:07.6	92.270	0.790	-1.060	0.180
2020/01/31 02:48:07.7	92.290	0.790	-1.020	0.200
2020/01/31 02:48:07.8	92.300	0.780	-0.970	0.230
2020/01/31 02:48:07.9	92.310	0.770	-0.920	0.260
2020/01/31 02:48:08.0	92.320	0.750	-0.850	0.300
2020/01/31 02:48:08.1	92.340	0.720	-0.780	0.340
2020/01/31 02:48:08.2	92.350	0.690	-0.700	0.390
2020/01/31 02:48:08.3	92.360	0.650	-0.620	0.440
2020/01/31 02:48:08.4	92.370	0.610	-0.530	0.490
2020/01/31 02:48:08.5	92.380	0.570	-0.430	0.540
2020/01/31 02:48:08.6	92.380	0.510	-0.340	0.600
2020/01/31 02:48:08.7	92.390	0.460	-0.240	0.650
2020/01/31 02:48:08.8	92.390	0.400	-0.140	0.710
2020/01/31 02:48:08.9	92.400	0.340	-0.040	0.770
2020/01/31 02:48:09.0	92.400	0.280	0.060	0.830
2020/01/31 02:48:09.1	92.410	0.210	0.170	0.880
2020/01/31 02:48:09.2	92.400	0.150	0.260	0.930
2020/01/31 02:48:09.3	92.400	0.080	0.360	0.990
2020/01/31 02:48:09.4	92.400	0.010	0.440	1.030
2020/01/31 02:48:09.5	92.390	-0.060	0.520	1.080
2020/01/31 02:48:09.6	92.390	-0.130	0.600	1.120
2020/01/31 02:48:09.7	92.380	-0.190	0.670	1.160
2020/01/31 02:48:09.8	92.370	-0.260	0.730	1.200
2020/01/31 02:48:09.9	92.370	-0.320	0.780	1.230
2020/01/31 02:48:10.0	92.360	-0.380	0.830	1.260
2020/01/31 02:48:10.1	92.350	-0.440	0.860	1.280
2020/01/31 02:48:10.2	92.340	-0.500	0.890	1.300
2020/01/31 02:48:10.3	92.330	-0.550	0.900	1.320
2020/01/31 02:48:10.4	92.320	-0.590	0.900	1.330
2020/01/31 02:48:10.5	92.310	-0.630	0.900	1.340
2020/01/31 02:48:10.6	92.310	-0.670	0.880	1.350
2020/01/31 02:48:10.7	92.300	-0.700	0.850	1.360
2020/01/31 02:48:10.8	92.290	-0.730	0.810	1.360
2020/01/31 02:48:10.9	92.290	-0.750	0.760	1.360
2020/01/31 02:48:11.0	92.280	-0.770	0.700	1.360
2020/01/31 02:48:11.1	92.270	-0.780	0.630	1.350
2020/01/31 02:48:11.2	92.260	-0.790	0.550	1.350
2020/01/31 02:48:11.3	92.260	-0.790	0.460	1.340
2020/01/31 02:48:11.4	92.260	-0.780	0.360	1.340
2020/01/31 02:48:11.5	92.260	-0.770	0.260	1.330
2020/01/31 02:48:11.6	92.260	-0.760	0.150	1.330
2020/01/31 02:48:11.7	92.250	-0.740	0.040	1.320
2020/01/31 02:48:11.8	92.260	-0.710	-0.080	1.310
2020/01/31 02:48:11.9	92.260	-0.680	-0.200	1.310
2020/01/31 02:48:12.0	92.260	-0.650	-0.320	1.300
2020/01/31 02:48:12.1	92.260	-0.620	-0.440	1.300
2020/01/31 02:48:12.2	92.260	-0.580	-0.560	1.290
2020/01/31 02:48:12.3	92.260	-0.540	-0.680	1.280
2020/01/31 02:48:12.4	92.260	-0.500	-0.790	1.280
2020/01/31 02:48:12.5	92.260	-0.450	-0.890	1.270
2020/01/31 02:48:12.6	92.260	-0.410	-0.990	1.260
2020/01/31 02:48:12.7	92.260	-0.360	-1.080	1.260
2020/01/31 02:48:12.8	92.250	-0.320	-1.160	1.250
2020/01/31 02:48:12.9	92.250	-0.280	-1.240	1.250
2020/01/31 02:48:13.0	92.240	-0.230	-1.300	1.240
2020/01/31 02:48:13.1	92.230	-0.190	-1.350	1.230
2020/01/31 02:48:13.2	92.220	-0.150	-1.390	1.230
2020/01/31 02:48:13.3	92.210	-0.120	-1.420	1.220
2020/01/31 02:48:13.4	92.200	-0.080	-1.430	1.220
2020/01/31 02:48:13.5	92.180	-0.050	-1.440	1.220
2020/01/31 02:48:13.6	92.160	-0.030	-1.430	1.210
2020/01/31 02:48:13.7	92.140	-0.000	-1.410	1.210
2020/01/31 02:48:13.8	92.120	0.020	-1.380	1.210
2020/01/31 02:48:13.9	92.100	0.040	-1.340	1.210
2020/01/31 02:48:14.0	92.080	0.050	-1.290	1.210
2020/01/31 02:48:14.1	92.060	0.060	-1.220	1.210
2020/01/31 02:48:14.2	92.030	0.060	-1.150	1.210
2020/01/31 02:48:14.3	92.010	0.060	-1.070	1.210
2020/01/31 02:48:14.4	91.990	0.060	-0.990	1.210
2020/01/31 02:48:14.5	91.960	0.050	-0.900	1.210
2020/01/31 02:48:14.6	91.940	0.040	-0.800	1.200
2020/01/31 02:48:14.7	91.920	0.030	-0.710	1.200
2020/01/31 02:48:14.8	91.900	0.010	-0.610	1.200
2020/01/31 02:48:14.9	91.880	-0.010	-0.500	1.190
2020/01/31 02:48:15.0	91.860	-0.030	-0.400	1.180
2020/01/31 02:48:15.1	91.850	-0.060	-0.290	1.170
2020/01/31 02:48:15.2	91.830	-0.080	-0.190	1.160
2020/01/31 02:48:15.3	91.820	-0.110	-0.090	1.150
2020/01/31 02:48:15.4	91.810	-0.140	0.000	1.130
2020/01/31 02:48:15.5	91.800	-0.170	0.090	1.110
2020/01/31 02:48:15.6	91.790	-0.200	0.180	1.080
2020/01/31 02:48:15.7	91.790	-0.220	0.260	1.050
2020/01/31 02:48:15.8	91.790	-0.250	0.330	1.020
2020/01/31 02:48:15.9	91.780	-0.280	0.400	0.990
2020/01/31 02:48:16.0	91.790	-0.300	0.460	0.950
2020/01/31 02:48:16.1	91.800	-0.320	0.510	0.910
2020/01/31 02:48:16.2	91.800	-0.340	0.550	0.870
2020/01/31 02:48:16.3	91.810	-0.360	0.590	0.820
2020/01/31 02:48:16.4	91.820	-0.370	0.610	0.780
2020/01/31 02:48:16.5	91.830	-0.380	0.620	0.730
2020/01/31 02:48:16.6	91.840	-0.390	0.630	0.680
2020/01/31 02:48:16.7	91.850	-0.380	0.630	0.630
2020/01/31 02:48:16.8	91.870	-0.380	0.620	0.580
2020/01/31 02:48:16.9	91.880	-0.370	0.600	0.540
2020/01/31 02:48:17.0	91.890	-0.350	0.570	0.490
2020/01/31 02:48:17.1	91.900	-0.340	0.530	0.450
2020/01/31 02:48:17.2	91.910	-0.310	0.500	0.410
2020/01/31 02:48:17.3	91.910	-0.280	0.450	0.370
2020/01/31 02:48:17.4	91.920	-0.250	0.400	0.340
2020/01/31 02:48:17.5	91.920	-0.220	0.350	0.310
2020/01/31 02:48:17.6	91.930	-0.180	0.300	0.280
2020/01/31 02:48:17.7	91.930	-0.140	0.250	0.250
2020/01/31 02:48:17.8	91.930	-0.090	0.190	0.230
2020/01/31 02:48:17.9	91.930	-0.050	0.140	0.210
2020/01/31 02:48:18.0	91.930	-0.000	0.080	0.200
2020/01/31 02:48:18.1	91.930	0.040	0.030	0.180
2020/01/31 02:48:18.2	91.920	0.090	-0.020	0.170
2020/01/31 02:48:18.3	91.920	0.130	-0.070	0.160
2020/01/31 02:48:18.4	91.920	0.180	-0.110	0.160
2020/01/31 02:48:18.5	91.910	0.220	-0.160	0.160
2020/01/31 02:48:18.6	91.900	0.270	-0.200	0.160
2020/01/31 02:48:18.7	91.900	0.310	-0.240	0.160
2020/01/31 02:48:18.8	91.890	0.340	-0.270	0.170
2020/01/31 02:48:18.9	91.880	0.380	-0.300	0.180
2020/01/31 02:48:19.0	91.870	0.410	-0.330	0.190
2020/01/31 02:48:19.1	91.860	0.440	-0.350	0.200
2020/01/31 02:48:19.2	91.850	0.470	-0.370	0.210
2020/01/31 02:48:19.3	91.840	0.500	-0.390	0.230
2020/01/31 02:48:19.4	91.830	0.520	-0.400	0.250
2020/01/31 02:48:19.5	91.820	0.540	-0.420	0.260
2020/01/31 02:48:19.6	91.820	0.560	-0.430	0.280
2020/01/31 02:48:19.7	91.810	0.570	-0.440	0.300
2020/01/31 02:48:19.8	91.800	0.580	-0.440	0.320
2020/01/31 02:48:19.9	91.790	0.590	-0.450	0.340
2020/01/31 02:48:20.0	91.790	0.600	-0.460	0.360
2020/01/31 02:48:20.1	91.780	0.610	-0.460	0.380
2020/01/31 02:48:20.2	91.780	0.610	-0.470	0.390
2020/01/31 02:48:20.3	91.780	0.620	-0.480	0.410
2020/01/31 02:48:20.4	91.780	0.620	-0.480	0.420
2020/01/31 02:48:20.5	91.780	0.630	-0.490	0.430
2020/01/31 02:48:20.6	91.780	0.630	-0.500	0.450
2020/01/31 02:48:20.7	91.790	0.630	-0.510	0.450
2020/01/31 02:48:20.8	91.790	0.630	-0.520	0.460
2020/01/31 02:48:20.9	91.800	0.630	-0.530	0.470
2020/01/31 02:48:21.0	91.820	0.640	-0.550	0.480
2020/01/31 02:48:21.1	91.830	0.640	-0.560	0.470
2020/01/31 02:48:21.2	91.840	0.640	-0.570	0.480
2020/01/31 02:48:21.3	91.860	0.640	-0.580	0.480
2020/01/31 02:48:21.4	91.880	0.640	-0.600	0.490
2020/01/31 02:48:21.5	91.900	0.640	-0.610	0.490
2020/01/31 02:48:21.6	91.910	0.640	-0.620	0.500
2020/01/31 02:48:21.7	91.930	0.640	-0.620	0.500
2020/01/31 02:48:21.8	91.950	0.630	-0.620	0.510
2020/01/31 02:48:21.9	91.970	0.630	-0.620	0.520
2020/01/31 02:48:22.0	91.990	0.620	-0.620	0.530
2020/01/31 02:48:22.1	92.010	0.610	-0.610	0.540
2020/01/31 02:48:22.2	92.020	0.600	-0.600	0.550
2020/01/31 02:48:22.3	92.040	0.590	-0.580	0.570
2020/01/31 02:48:22.4	92.060	0.570	-0.560	0.590
2020/01/31 02:48:22.5	92.070	0.560	-0.530	0.610
2020/01/31 02:48:22.6	92.080	0.540	-0.500	0.630
2020/01/31 02:48:22.7	92.090	0.510	-0.460	0.660
2020/01/31 02:48:22.8	92.100	0.490	-0.420	0.680
2020/01/31 02:48:22.9	92.110	0.460	-0.380	0.710
2020/01/31 02:48:23.0	92.120	0.430	-0.330	0.750
2020/01/31 02:48:23.1	92.130	0.390	-0.280	0.770
2020/01/31 02:48:23.2	92.130	0.360	-0.230	0.810
2020/01/31 02:48:23.3	92.140	0.320	-0.170	0.840
2020/01/31 02:48:23.4	92.140	0.280	-0.120	0.870
2020/01/31 02:48:23.5	92.140	0.240	-0.070	0.910
2020/01/31 02:48:23.6	92.140	0.200	-0.010	0.940
2020/01/31 02:48:23.7	92.140	0.160	0.040	0.980
2020/01/31 02:48:23.8	92.140	0.120	0.090	1.010
2020/01/31 02:48:23.9	92.140	0.070	0.130	1.040
2020/01/31 02:48:24.0	92.140	0.030	0.180	1.070
2020/01/31 02:48:24.1	92.140	-0.010	0.220	1.110
2020/01/31 02:48:24.2	92.140	-0.050	0.250	1.140
2020/01/31 02:48:24.3	92.140	-0.090	0.280	1.160
2020/01/31 02:48:24.4	92.140	-0.120	0.300	1.190
2020/01/31 02:48:24.5	92.140	-0.160	0.320	1.220
2020/01/31 02:48:24.6	92.130	-0.190	0.330	1.240
2020/01/31 02:48:24.7	92.130	-0.220	0.330	1.270
2020/01/31 02:48:24.8	92.130	-0.250	0.330	1.290
2020/01/31 02:48:24.9	92.120	-0.280	0.320	1.320
2020/01/31 02:48:25.0	92.120	-0.300	0.310	1.340
2020/01/31 02:48:25.1	92.110	-0.320	0.290	1.360
2020/01/31 02:48:25.2	92.100	-0.340	0.260	1.380
2020/01/31 02:48:25.3	92.100	-0.350	0.230	1.400
2020/01/31 02:48:25.4	92.090	-0.360	0.200	1.420
2020/01/31 02:48:25.5	92.080	-0.370	0.160	1.430
2020/01/31 02:48:25.6	92.070	-0.380	0.110	1.450
2020/01/31 02:48:25.7	92.060	-0.390	0.060	1.460
2020/01/31 02:48:25.8	92.050	-0.390	0.010	1.470
2020/01/31 02:48:25.9	92.040	-0.390	-0.040	1.480
2020/01/31 02:48:26.0	92.030	-0.390	-0.100	1.490
2020/01/31 02:48:26.1	92.020	-0.390	-0.160	1.500
2020/01/31 02:48:26.2	92.010	-0.390	-0.210	1.500
2020/01/31 02:48:26.3	92.000	-0.390	-0.270	1.510
2020/01/31 02:48:26.4	91.990	-0.380	-0.330	1.510
2020/01/31 02:48:26.5	91.980	-0.380	-0.390	1.510
2020/01/31 02:48:26.6	91.960	-0.370	-0.450	1.500
2020/01/31 02:48:26.7	91.950	-0.360	-0.500	1.500
2020/01/31 02:48:26.8	91.930	-0.360	-0.560	1.490
2020/01/31 02:48:26.9	91.910	-0.350	-0.610	1.480
2020/01/31 02:48:27.0	91.890	-0.340	-0.650	1.470
2020/01/31 02:48:27.1	91.870	-0.340	-0.690	1.460
2020/01/31 02:48:27.2	91.850	-0.330	-0.730	1.450
2020/01/31 02:48:27.3	91.830	-0.330	-0.760	1.430
2020/01/31 02:48:27.4	91.810	-0.320	-0.780	1.420
2020/01/31 02:48:27.5	91.790	-0.320	-0.800	1.390
2020/01/31 02:48:27.6	91.780	-0.320	-0.800	1.370
2020/01/31 02:48:27.7	91.760	-0.320	-0.800	1.350
2020/01/31 02:48:27.8	91.750	-0.330	-0.800	1.320
2020/01/31 02:48:27.9	91.740	-0.330	-0.780	1.290
2020/01/31 02:48:28.0	91.740	-0.340	-0.760	1.260
2020/01/31 02:48:28.1	91.730	-0.350	-0.720	1.220
2020/01/31 02:48:28.2	91.730	-0.360	-0.690	1.180
2020/01/31 02:48:28.3	91.730	-0.370	-0.640	1.150
2020/01/31 02:48:28.4	91.740	-0.380	-0.590	1.110
2020/01/31 02:48:28.5	91.740	-0.400	-0.530	1.080
2020/01/31 02:48:28.6	91.760	-0.410	-0.470	1.040
2020/01/31 02:48:28.7	91.770	-0.430	-0.400	1.010
2020/01/31 02:48:28.8	91.790	-0.450	-0.330	0.970
2020/01/31 02:48:28.9	91.810	-0.470	-0.260	0.940
2020/01/31 02:48:29.0	91.830	-0.490	-0.190	0.900
2020/01/31 02:48:29.1	91.840	-0.500	-0.120	0.860
2020/01/31 02:48:29.2	91.870	-0.520	-0.050	0.830
2020/01/31 02:48:29.3	91.900	-0.540	0.020	0.800
2020/01/31 02:48:29.4	91.920	-0.550	0.080	0.760
2020/01/31 02:48:29.5	91.950	-0.570	0.140	0.730
2020/01/31 02:48:29.6	91.980	-0.580	0.190	0.700
2020/01/31 02:48:29.7	92.010	-0.590	0.240	0.670
2020/01/31 02:48:29.8	92.040	-0.600	0.280	0.640
2020/01/31 02:48:29.9	92.070	-0.610	0.310	0.600
2020/01/31 02:48:30.0	92.100	-0.610	0.340	0.570
2020/01/31 02:48:30.1	92.130	-0.610	0.360	0.550
2020/01/31 02:48:30.2	92.160	-0.600	0.370	0.520
2020/01/31 02:48:30.3	92.190	-0.590	0.370	0.490
2020/01/31 02:48:30.4	92.220	-0.580	0.360	0.460
2020/01/31 02:48:30.5	92.240	-0.570	0.350	0.440
2020/01/31 02:48:30.6	92.270	-0.550	0.320	0.410
2020/01/31 02:48:30.7	92.290	-0.520	0.290	0.390
2020/01/31 02:48:30.8	92.310	-0.490	0.250	0.370
2020/01/31 02:48:30.9	92.320	-0.460	0.210	0.350
2020/01/31 02:48:31.0	92.340	-0.420	0.150	0.340
2020/01/31 02:48:31.1	92.340	-0.390	0.090	0.320
2020/01/31 02:48:31.2	92.350	-0.340	0.030	0.310
2020/01/31 02:48:31.3	92.350	-0.300	-0.030	0.310
2020/01/31 02:48:31.4	92.350	-0.250	-0.090	0.310
2020/01/31 02:48:31.5	92.350	-0.200	-0.150	0.310
2020/01/31 02:48:31.6	92.340	-0.150	-0.220	0.310
2020/01/31 02:48:31.7	92.340	-0.100	-0.280	0.320
2020/01/31 02:48:31.8	92.330	-0.040	-0.340	0.330
2020/01/31 02:48:31.9	92.310	0.010	-0.400	0.340
2020/01/31 02:48:32.0	92.300	0.070	-0.450	0.350
2020/01/31 02:48:32.1	92.280	0.120	-0.500	0.370
2020/01/31 02:48:32.2	92.260	0.170	-0.540	0.390
2020/01/31 02:48:32.3	92.240	0.220	-0.580	0.410
2020/01/31 02:48:32.4	92.220	0.270	-0.610	0.430
2020/01/31 02:48:32.5	92.210	0.320	-0.640	0.440
2020/01/31 02:48:32.6	92.190	0.360	-0.660	0.460
2020/01/31 02:48:32.7	92.170	0.400	-0.670	0.480
2020/01/31 02:48:32.8	92.150	0.440	-0.680	0.500
2020/01/31 02:48:32.9	92.130	0.480	-0.680	0.510
2020/01/31 02:48:33.0	92.110	0.510	-0.680	0.530
2020/01/31 02:48:33.1	92.100	0.540	-0.670	0.540
2020/01/31 02:48:33.2	92.080	0.560	-0.660	0.560
2020/01/31 02:48:33.3	92.070	0.580	-0.640	0.570
2020/01/31 02:48:33.4	92.050	0.600	-0.620	0.580
2020/01/31 02:48:33.5	92.040	0.620	-0.590	0.580
2020/01/31 02:48:33.6	92.030	0.630	-0.560	0.590
2020/01/31 02:48:33.7	92.010	0.640	-0.530	0.590
2020/01/31 02:48:33.8	92.000	0.650	-0.490	0.590
2020/01/31 02:48:33.9	91.990	0.650	-0.460	0.590
2020/01/31 02:48:34.0	91.990	0.650	-0.420	0.580
2020/01/31 02:48:34.1	91.980	0.640	-0.370	0.570
2020/01/31 02:48:34.2	91.980	0.640	-0.330	0.570
2020/01/31 02:48:34.3	91.970	0.630	-0.290	0.560
2020/01/31 02:48:34.4	91.970	0.620	-0.250	0.550
2020/01/31 02:48:34.5	91.970	0.610	-0.210	0.530
2020/01/31 02:48:34.6	91.960	0.600	-0.170	0.520
2020/01/31 02:48:34.7	91.960	0.590	-0.130	0.500
2020/01/31 02:48:34.8	91.960	0.570	-0.090	0.480
2020/01/31 02:48:34.9	91.970	0.560	-0.060	0.460
2020/01/31 02:48:35.0	91.970	0.540	-0.030	0.440
2020/01/31 02:48:35.1	91.970	0.530	-0.010	0.420
2020/01/31 02:48:35.2	91.970	0.510	0.020	0.400
2020/01/31 02:48:35.3	91.980	0.490	0.040	0.380
2020/01/31 02:48:35.4	91.990	0.480	0.060	0.360
2020/01/31 02:48:35.5	91.990	0.470	0.070	0.340
2020/01/31 02:48:35.6	92.000	0.450	0.080	0.320
2020/01/31 02:48:35.7	92.010	0.440	0.080	0.300
2020/01/31 02:48:35.8	92.020	0.430	0.080	0.280
2020/01/31 02:48:35.9	92.030	0.420	0.080	0.260
2020/01/31 02:48:36.0	92.050	0.410	0.070	0.250
2020/01/31 02:48:36.1	92.060	0.400	0.060	0.230
2020/01/31 02:48:36.2	92.070	0.390	0.040	0.220
2020/01/31 02:48:36.3	92.080	0.380	0.020	0.210
2020/01/31 02:48:36.4	92.100	0.370	-0.000	0.200
2020/01/31 02:48:36.5	92.110	0.360	-0.030	0.200
2020/01/31 02:48:36.6	92.120	0.360	-0.060	0.200
2020/01/31 02:48:36.7	92.130	0.350	-0.090	0.200
2020/01/31 02:48:36.8	92.150	0.340	-0.120	0.210
2020/01/31 02:48:36.9	92.150	0.330	-0.150	0.220
2020/01/31 02:48:37.0	92.160	0.330	-0.180	0.230
2020/01/31 02:48:37.1	92.170	0.320	-0.210	0.260
2020/01/31 02:48:37.2	92.170	0.300	-0.240	0.280
2020/01/31 02:48:37.3	92.170	0.290	-0.270	0.300
2020/01/31 02:48:37.4	92.170	0.280	-0.300	0.330
2020/01/31 02:48:37.5	92.170	0.260	-0.320	0.360
2020/01/31 02:48:37.6	92.160	0.240	-0.340	0.400
2020/01/31 02:48:37.7	92.160	0.230	-0.350	0.430
2020/01/31 02:48:37.8	92.150	0.200	-0.370	0.470
2020/01/31 02:48:37.9	92.140	0.180	-0.370	0.520
2020/01/31 02:48:38.0	92.130	0.160	-0.380	0.560
2020/01/31 02:48:38.1	92.120	0.130	-0.380	0.600
2020/01/31 02:48:38.2	92.100	0.100	-0.380	0.650
2020/01/31 02:48:38.3	92.090	0.070	-0.380	0.700
2020/01/31 02:48:38.4	92.070	0.040	-0.370	0.750
2020/01/31 02:48:38.5	92.060	0.010	-0.360	0.810
2020/01/31 02:48:38.6	92.040	-0.020	-0.350	0.860
2020/01/31 02:48:38.7	92.020	-0.060	-0.340	0.910
2020/01/31 02:48:38.8	92.010	-0.090	-0.320	0.960
2020/01/31 02:48:38.9	91.990	-0.120	-0.310	1.010
2020/01/31 02:48:39.0	91.980	-0.160	-0.290	1.060
2020/01/31 02:48:39.1	91.970	-0.190	-0.280	1.110
2020/01/31 02:48:39.2	91.960	-0.220	-0.260	1.160
2020/01/31 02:48:39.3	91.950	-0.250	-0.250	1.200
2020/01/31 02:48:39.4	91.940	-0.280	-0.240	1.250
2020/01/31 02:48:39.5	91.930	-0.310	-0.230	1.290
2020/01/31 02:48:39.6	91.930	-0.330	-0.220	1.330
2020/01/31 02:48:39.7	91.920	-0.360	-0.210	1.370
2020/01/31 02:48:39.8	91.920	-0.380	-0.200	1.400
2020/01/31 02:48:39.9	91.910	-0.400	-0.200	1.440
2020/01/31 02:48:40.0	91.910	-0.410	-0.200	1.470
2020/01/31 02:48:40.1	91.900	-0.430	-0.190	1.490
2020/01/31 02:48:40.2	91.900	-0.440	-0.200	1.520
2020/01/31 02:48:40.3	91.900	-0.450	-0.200	1.540
2020/01/31 02:48:40.4	91.900	-0.460	-0.200	1.560
2020/01/31 02:48:40.5	91.900	-0.460	-0.210	1.570
2020/01/31 02:48:40.6	91.900	-0.460	-0.210	1.580
2020/01/31 02:48:40.7	91.900	-0.460	-0.220	1.590
2020/01/31 02:48:40.8	91.900	-0.460	-0.230	1.590
2020/01/31 02:48:40.9	91.900	-0.460	-0.230	1.590
2020/01/31 02:48:41.0	91.910	-0.460	-0.240	1.590
2020/01/31 02:48:41.1	91.910	-0.450	-0.250	1.580
2020/01/31 02:48:41.2	91.910	-0.440	-0.250	1.570
2020/01/31 02:48:41.3	91.920	-0.440	-0.260	1.560
2020/01/31 02:48:41.4	91.920	-0.430	-0.260	1.550
2020/01/31 02:48:41.5	91.930	-0.420	-0.260	1.530
2020/01/31 02:48:41.6	91.940	-0.400	-0.260	1.510
2020/01/31 02:48:41.7	91.940	-0.390	-0.260	1.490
2020/01/31 02:48:41.8	91.950	-0.380	-0.260	1.470
2020/01/31 02:48:41.9	91.960	-0.370	-0.250	1.450
2020/01/31 02:48:42.0	91.970	-0.360	-0.250	1.430
2020/01/31 02:48:42.1	91.970	-0.340	-0.240	1.410
2020/01/31 02:48:42.2	91.980	-0.330	-0.240	1.380
2020/01/31 02:48:42.3	92.000	-0.310	-0.230	1.360
2020/01/31 02:48:42.4	92.010	-0.300	-0.230	1.330
2020/01/31 02:48:42.5	92.020	-0.290	-0.220	1.300
2020/01/31 02:48:42.6	92.030	-0.270	-0.210	1.280
2020/01/31 02:48:42.7	92.050	-0.260	-0.210	1.250
2020/01/31 02:48:42.8	92.060	-0.240	-0.200	1.220
2020/01/31 02:48:42.9	92.070	-0.230	-0.200	1.190
2020/01/31 02:48:43.0	92.080	-0.210	-0.190	1.160
2020/01/31 02:48:43.1	92.100	-0.200	-0.180	1.130
2020/01/31 02:48:43.2	92.110	-0.180	-0.180	1.100
2020/01/31 02:48:43.3	92.120	-0.170	-0.180	1.070
2020/01/31 02:48:43.4	92.130	-0.160	-0.170	1.040
2020/01/31 02:48:43.5	92.140	-0.140	-0.170	1.010
2020/01/31 02:48:43.6	92.150	-0.130	-0.170	0.980
2020/01/31 02:48:43.7	92.160	-0.110	-0.170	0.950
2020/01/31 02:48:43.8	92.170	-0.100	-0.170	0.910
2020/01/31 02:48:43.9	92.180	-0.090	-0.160	0.880
2020/01/31 02:48:44.0	92.190	-0.080	-0.160	0.850
2020/01/31 02:48:44.1	92.190	-0.060	-0.160	0.820
2020/01/31 02:48:44.2	92.190	-0.050	-0.160	0.790
2020/01/31 02:48:44.3	92.190	-0.040	-0.160	0.760
2020/01/31 02:48:44.4	92.190	-0.030	-0.160	0.730
2020/01/31 02:48:44.5	92.190	-0.030	-0.160	0.700
2020/01/31 02:48:44.6	92.190	-0.020	-0.150	0.680
2020/01/31 02:48:44.7	92.180	-0.010	-0.150	0.650
2020/01/31 02:48:44.8	92.180	-0.010	-0.150	0.630
2020/01/31 02:48:44.9	92.170	-0.000	-0.140	0.610
2020/01/31 02:48:45.0	92.160	0.000	-0.130	0.590
2020/01/31 02:48:45.1	92.150	0.010	-0.120	0.570
2020/01/31 02:48:45.2	92.140	0.010	-0.110	0.550
2020/01/31 02:48:45.3	92.120	0.010	-0.100	0.540
2020/01/31 02:48:45.4	92.100	0.010	-0.090	0.520
2020/01/31 02:48:45.5	92.090	0.010	-0.080	0.510
2020/01/31 02:48:45.6	92.070	0.010	-0.070	0.490
2020/01/31 02:48:45.7	92.050	0.010	-0.050	0.480
2020/01/31 02:48:45.8	92.030	0.010	-0.040	0.470
2020/01/31 02:48:45.9	92.010	0.010	-0.020	0.460
2020/01/31 02:48:46.0	91.990	0.010	-0.000	0.450
2020/01/31 02:48:46.1	91.970	0.000	0.010	0.430
2020/01/31 02:48:46.2	91.950	0.000	0.030	0.420
2020/01/31 02:48:46.3	91.930	-0.000	0.050	0.410
2020/01/31 02:48:46.4	91.910	-0.000	0.060	0.410
2020/01/31 02:48:46.5	91.890	-0.010	0.080	0.400
2020/01/31 02:48:46.6	91.870	-0.010	0.090	0.390
2020/01/31 02:48:46.7	91.850	-0.010	0.100	0.380
2020/01/31 02:48:46.8	91.840	-0.010	0.110	0.380
2020/01/31 02:48:46.9	91.820	-0.010	0.120	0.370
2020/01/31 02:48:47.0	91.810	-0.010	0.130	0.360
2020/01/31 02:48:47.1	91.790	-0.010	0.130	0.360
2020/01/31 02:48:47.2	91.780	-0.010	0.130	0.350
2020/01/31 02:48:47.3	91.770	-0.000	0.120	0.350
2020/01/31 02:48:47.4	91.760	-0.000	0.110	0.340
2020/01/31 02:48:47.5	91.750	0.010	0.090	0.340
2020/01/31 02:48:47.6	91.750	0.010	0.070	0.340
2020/01/31 02:48:47.7	91.740	0.020	0.050	0.330
2020/01/31 02:48:47.8	91.740	0.030	0.010	0.330
2020/01/31 02:48:47.9	91.740	0.050	-0.020	0.330
2020/01/31 02:48:48.0	91.750	0.060	-0.070	0.320
2020/01/31 02:48:48.1	91.750	0.080	-0.120	0.320
2020/01/31 02:48:48.2	91.760	0.090	-0.170	0.320
2020/01/31 02:48:48.3	91.770	0.110	-0.230	0.310
2020/01/31 02:48:48.4	91.780	0.130	-0.290	0.310
2020/01/31 02:48:48.5	91.790	0.160	-0.360	0.310
2020/01/31 02:48:48.6	91.810	0.180	-0.430	0.310
2020/01/31 02:48:48.7	91.820	0.210	-0.500	0.310
2020/01/31 02:48:48.8	91.840	0.230	-0.580	0.310
2020/01/31 02:48:48.9	91.860	0.260	-0.650	0.320
2020/01/31 02:48:49.0	91.880	0.290	-0.730	0.330
2020/01/31 02:48:49.1	91.900	0.320	-0.800	0.340
2020/01/31 02:48:49.2	91.920	0.340	-0.880	0.350
2020/01/31 02:48:49.3	91.930	0.370	-0.940	0.370
2020/01/31 02:48:49.4	91.950	0.400	-1.010	0.390
2020/01/31 02:48:49.5	91.970	0.420	-1.060	0.420
2020/01/31 02:48:49.6	91.980	0.440	-1.110	0.450
2020/01/31 02:48:49.7	91.990	0.460	-1.150	0.480
2020/01/31 02:48:49.8	92.000	0.480	-1.190	0.520
2020/01/31 02:48:49.9	92.010	0.500	-1.210	0.560
2020/01/31 02:48:50.0	92.010	0.510	-1.220	0.600
2020/01/31 02:48:50.1	92.020	0.520	-1.230	0.650
2020/01/31 02:48:50.2	92.020	0.520	-1.220	0.690
2020/01/31 02:48:50.3	92.010	0.530	-1.200	0.740
2020/01/31 02:48:50.4	92.010	0.520	-1.170	0.790
2020/01/31 02:48:50.5	92.000	0.520	-1.130	0.840
2020/01/31 02:48:50.6	91.990	0.500	-1.080	0.890
2020/01/31 02:48:50.7	91.980	0.490	-1.020	0.940
2020/01/31 02:48:50.8	91.970	0.470	-0.950	0.990
2020/01/31 02:48:50.9	91.960	0.450	-0.880	1.050
2020/01/31 02:48:51.0	91.940	0.420	-0.790	1.100
2020/01/31 02:48:51.1	91.920	0.390	-0.700	1.150
2020/01/31 02:48:51.2	91.910	0.360	-0.610	1.200
2020/01/31 02:48:51.3	91.890	0.320	-0.510	1.250
2020/01/31 02:48:51.4	91.870	0.280	-0.420	1.300
2020/01/31 02:48:51.5	91.850	0.240	-0.320	1.350
2020/01/31 02:48:51.6	91.830	0.200	-0.220	1.400
2020/01/31 02:48:51.7	91.810	0.160	-0.120	1.450
2020/01/31 02:48:51.8	91.790	0.110	-0.020	1.490
2020/01/31 02:48:51.9	91.780	0.070	0.070	1.530
2020/01/31 02:48:52.0	91.760	0.030	0.160	1.570
2020/01/31 02:48:52.1	91.740	-0.010	0.240	1.600
2020/01/31 02:48:52.2	91.730	-0.060	0.310	1.630
2020/01/31 02:48:52.3	91.720	-0.090	0.380	1.660
2020/01/31 02:48:52.4	91.710	-0.130	0.430	1.680
2020/01/31 02:48:52.5	91.700	-0.160	0.480	1.700
2020/01/31 02:48:52.6	91.700	-0.190	0.520	1.710
2020/01/31 02:48:52.7	91.700	-0.220	0.540	1.720
2020/01/31 02:48:52.8	91.700	-0.240	0.560	1.720
2020/01/31 02:48:52.9	91.700	-0.260	0.570	1.720
2020/01/31 02:48:53.0	91.710	-0.280	0.560	1.720
2020/01/31 02:48:53.1	91.710	-0.290	0.540	1.710
2020/01/31 02:48:53.2	91.710	-0.290	0.520	1.690
2020/01/31 02:48:53.3	91.730	-0.300	0.490	1.670
2020/01/31 02:48:53.4	91.740	-0.300	0.460	1.650
2020/01/31 02:48:53.5	91.750	-0.300	0.410	1.630
2020/01/31 02:48:53.6	91.760	-0.290	0.370	1.600
2020/01/31 02:48:53.7	91.770	-0.280	0.310	1.570
2020/01/31 02:48:53.8	91.780	-0.270	0.260	1.540
2020/01/31 02:48:53.9	91.790	-0.260	0.200	1.500
2020/01/31 02:48:54.0	91.800	-0.250	0.140	1.460
2020/01/31 02:48:54.1	91.810	-0.230	0.080	1.420
2020/01/31 02:48:54.2	91.810	-0.220	0.020	1.380
2020/01/31 02:48:54.3	91.820	-0.200	-0.030	1.330
2020/01/31 02:48:54.4	91.820	-0.190	-0.090	1.280
2020/01/31 02:48:54.5	91.830	-0.180	-0.140	1.230
2020/01/31 02:48:54.6	91.830	-0.170	-0.180	1.180
2020/01/31 02:48:54.7	91.830	-0.150	-0.220	1.120
2020/01/31 02:48:54.8	91.840	-0.140	-0.260	1.070
2020/01/31 02:48:54.9	91.840	-0.140	-0.290	1.020
2020/01/31 02:48:55.0	91.850	-0.130	-0.310	0.970
2020/01/31 02:48:55.1	91.850	-0.130	-0.330	0.920
2020/01/31 02:48:55.2	91.860	-0.120	-0.340	0.870
2020/01/31 02:48:55.3	91.860	-0.120	-0.340	0.830
2020/01/31 02:48:55.4	91.860	-0.120	-0.340	0.790
2020/01/31 02:48:55.5	91.870	-0.120	-0.330	0.760
2020/01/31 02:48:55.6	91.870	-0.130	-0.320	0.730
2020/01/31 02:48:55.7	91.880	-0.130	-0.300	0.700
2020/01/31 02:48:55.8	91.890	-0.140	-0.270	0.680
2020/01/31 02:48:55.9	91.890	-0.150	-0.250	0.660
2020/01/31 02:48:56.0	91.900	-0.160	-0.220	0.650
2020/01/31 02:48:56.1	91.920	-0.170	-0.180	0.630
2020/01/31 02:48:56.2	91.930	-0.180	-0.150	0.620
2020/01/31 02:48:56.3	91.940	-0.190	-0.110	0.620
2020/01/31 02:48:56.4	91.950	-0.200	-0.080	0.620
2020/01/31 02:48:56.5	91.970	-0.210	-0.050	0.610
2020/01/31 02:48:56.6	91.980	-0.210	-0.020	0.610
2020/01/31 02:48:56.7	92.000	-0.220	0.010	0.620
2020/01/31 02:48:56.8	92.020	-0.230	0.030	0.620
2020/01/31 02:48:56.9	92.040	-0.230	0.050	0.620
2020/01/31 02:48:57.0	92.050	-0.230	0.060	0.620
2020/01/31 02:48:57.1	92.070	-0.240	0.070	0.630
2020/01/31 02:48:57.2	92.090	-0.230	0.070	0.630
2020/01/31 02:48:57.3	92.110	-0.230	0.080	0.620
2020/01/31 02:48:57.4	92.130	-0.230	0.070	0.620
2020/01/31 02:48:57.5	92.140	-0.220	0.060	0.620
2020/01/31 02:48:57.6	92.160	-0.210	0.050	0.610
2020/01/31 02:48:57.7	92.170	-0.210	0.030	0.610
2020/01/31 02:48:57.8	92.180	-0.190	0.010	0.600
2020/01/31 02:48:57.9	92.190	-0.180	-0.010	0.590
2020/01/31 02:48:58.0	92.200	-0.170	-0.040	0.580
2020/01/31 02:48:58.1	92.200	-0.160	-0.070	0.570
2020/01/31 02:48:58.2	92.200	-0.140	-0.100	0.560
2020/01/31 02:48:58.3	92.200	-0.130	-0.130	0.550
2020/01/31 02:48:58.4	92.200	-0.110	-0.160	0.540
2020/01/31 02:48:58.5	92.200	-0.100	-0.190	0.530
2020/01/31 02:48:58.6	92.190	-0.080	-0.220	0.530
2020/01/31 02:48:58.7	92.180	-0.070	-0.250	0.520
2020/01/31 02:48:58.8	92.170	-0.060	-0.280	0.520
2020/01/31 02:48:58.9	92.160	-0.040	-0.310	0.520
2020/01/31 02:48:59.0	92.150	-0.030	-0.330	0.520
2020/01/31 02:48:59.1	92.140	-0.020	-0.350	0.520
2020/01/31 02:48:59.2	92.130	-0.010	-0.370	0.520
2020/01/31 02:48:59.3	92.110	0.000	-0.390	0.530
2020/01/31 02:48:59.4	92.100	0.010	-0.410	0.540
2020/01/31 02:48:59.5	92.080	0.020	-0.430	0.540
2020/01/31 02:48:59.6	92.070	0.030	-0.440	0.550
2020/01/31 02:48:59.7	92.060	0.030	-0.450	0.560
2020/01/31 02:48:59.8	92.050	0.040	-0.460	0.580
2020/01/31 02:48:59.9	92.040	0.040	-0.470	0.590
2020/01/31 02:49:00.0	92.040	0.050	-0.480	0.600
2020/01/31 02:49:00.1	92.030	0.050	-0.490	0.610
2020/01/31 02:49:00.2	92.030	0.060	-0.490	0.620
2020/01/31 02:49:00.3	92.030	0.060	-0.490	0.630
2020/01/31 02:49:00.4	92.040	0.060	-0.490	0.630
2020/01/31 02:49:00.5	92.050	0.060	-0.500	0.640
2020/01/31 02:49:00.6	92.050	0.060	-0.490	0.650
2020/01/31 02:49:00.7	92.060	0.070	-0.490	0.650
2020/01/31 02:49:00.8	92.080	0.070	-0.490	0.660
2020/01/31 02:49:00.9	92.090	0.070	-0.490	0.670
2020/01/31 02:49:01.0	92.100	0.070	-0.490	0.670
2020/01/31 02:49:01.1	92.120	0.070	-0.480	0.680
2020/01/31 02:49:01.2	92.130	0.070	-0.480	0.680
2020/01/31 02:49:01.3	92.140	0.070	-0.470	0.690
2020/01/31 02:49:01.4	92.160	0.080	-0.470	0.700
2020/01/31 02:49:01.5	92.170	0.080	-0.460	0.710
2020/01/31 02:49:01.6	92.180	0.080	-0.460	0.720
2020/01/31 02:49:01.7	92.180	0.080	-0.450	0.720
2020/01/31 02:49:01.8	92.190	0.080	-0.450	0.730
2020/01/31 02:49:01.9	92.190	0.080	-0.440	0.740
2020/01/31 02:49:02.0	92.200	0.080	-0.440	0.740
2020/01/31 02:49:02.1	92.200	0.090	-0.420	0.750
2020/01/31 02:49:02.2	92.190	0.090	-0.420	0.750
2020/01/31 02:49:02.3	92.190	0.090	-0.410	0.750
2020/01/31 02:49:02.4	92.190	0.090	-0.410	0.750
2020/01/31 02:49:02.5	92.180	0.100	-0.400	0.750
2020/01/31 02:49:02.6	92.170	0.100	-0.400	0.740
2020/01/31 02:49:02.7	92.160	0.100	-0.400	0.740
2020/01/31 02:49:02.8	92.150	0.110	-0.390	0.730
2020/01/31 02:49:02.9	92.140	0.110	-0.390	0.720
2020/01/31 02:49:03.0	92.130	0.120	-0.390	0.710
2020/01/31 02:49:03.1	92.120	0.130	-0.390	0.700
2020/01/31 02:49:03.2	92.100	0.130	-0.390	0.690
2020/01/31 02:49:03.3	92.090	0.140	-0.380	0.670
2020/01/31 02:49:03.4	92.080	0.150	-0.380	0.660
2020/01/31 02:49:03.5	92.060	0.160	-0.370	0.650
2020/01/31 02:49:03.6	92.050	0.160	-0.360	0.640
2020/01/31 02:49:03.7	92.040	0.170	-0.350	0.630
2020/01/31 02:49:03.8	92.030	0.180	-0.340	0.630
2020/01/31 02:49:03.9	92.020	0.190	-0.330	0.620
2020/01/31 02:49:04.0	92.020	0.200	-0.320	0.610
2020/01/31 02:49:04.1	92.010	0.210	-0.290	0.610
2020/01/31 02:49:04.2	92.010	0.210	-0.280	0.610
2020/01/31 02:49:04.3	92.010	0.220	-0.260	0.610
2020/01/31 02:49:04.4	92.010	0.230	-0.240	0.610
2020/01/31 02:49:04.5	92.010	0.230	-0.220	0.610
2020/01/31 02:49:04.6	92.010	0.240	-0.190	0.620
2020/01/31 02:49:04.7	92.010	0.240	-0.170	0.620
2020/01/31 02:49:04.8	92.010	0.240	-0.150	0.620
2020/01/31 02:49:04.9	92.020	0.240	-0.120	0.630
2020/01/31 02:49:05.0	92.020	0.240	-0.100	0.630
2020/01/31 02:49:05.1	92.020	0.230	-0.070	0.630
2020/01/31 02:49:05.2	92.030	0.220	-0.050	0.630
2020/01/31 02:49:05.3	92.030	0.220	-0.020	0.620
2020/01/31 02:49:05.4	92.040	0.210	0.000	0.620
2020/01/31 02:49:05.5	92.040	0.200	0.020	0.610
2020/01/31 02:49:05.6	92.050	0.180	0.040	0.600
2020/01/31 02:49:05.7	92.050	0.170	0.060	0.580
2020/01/31 02:49:05.8	92.060	0.160	0.070	0.560
2020/01/31 02:49:05.9	92.060	0.140	0.080	0.540
2020/01/31 02:49:06.0	92.060	0.120	0.090	0.520
2020/01/31 02:49:06.1	92.060	0.100	0.100	0.490
2020/01/31 02:49:06.2	92.070	0.080	0.100	0.470
2020/01/31 02:49:06.3	92.080	0.060	0.100	0.440
2020/01/31 02:49:06.4	92.080	0.040	0.090	0.410
2020/01/31 02:49:06.5	92.090	0.020	0.090	0.390
2020/01/31 02:49:06.6	92.100	0.000	0.080	0.360
2020/01/31 02:49:06.7	92.110	-0.020	0.070	0.330
2020/01/31 02:49:06.8	92.120	-0.040	0.050	0.310
2020/01/31 02:49:06.9	92.140	-0.060	0.040	0.280
2020/01/31 02:49:07.0	92.150	-0.080	0.020	0.260
2020/01/31 02:49:07.1	92.170	-0.090	-0.000	0.240
2020/01/31 02:49:07.2	92.180	-0.110	-0.020	0.220
2020/01/31 02:49:07.3	92.200	-0.130	-0.050	0.210
2020/01/31 02:49:07.4	92.220	-0.140	-0.070	0.200
2020/01/31 02:49:07.5	92.240	-0.160	-0.100	0.200
2020/01/31 02:49:07.6	92.260	-0.170	-0.130	0.190
2020/01/31 02:49:07.7	92.290	-0.180	-0.150	0.200
2020/01/31 02:49:07.8	92.310	-0.190	-0.180	0.200
2020/01/31 02:49:07.9	92.330	-0.200	-0.210	0.210
2020/01/31 02:49:08.0	92.360	-0.210	-0.240	0.220
2020/01/31 02:49:08.1	92.380	-0.220	-0.260	0.240
2020/01/31 02:49:08.2	92.400	-0.220	-0.290	0.260
2020/01/31 02:49:08.3	92.420	-0.230	-0.310	0.280
2020/01/31 02:49:08.4	92.440	-0.230	-0.330	0.300
2020/01/31 02:49:08.5	92.460	-0.230	-0.350	0.330
2020/01/31 02:49:08.6	92.480	-0.230	-0.370	0.350
2020/01/31 02:49:08.7	92.490	-0.230	-0.390	0.380
2020/01/31 02:49:08.8	92.510	-0.220	-0.400	0.410
2020/01/31 02:49:08.9	92.520	-0.220	-0.410	0.440
2020/01/31 02:49:09.0	92.530	-0.220	-0.420	0.460
2020/01/31 02:49:09.1	92.530	-0.210	-0.420	0.490
2020/01/31 02:49:09.2	92.540	-0.210	-0.430	0.520
2020/01/31 02:49:09.3	92.540	-0.200	-0.420	0.540
2020/01/31 02:49:09.4	92.540	-0.190	-0.420	0.570
2020/01/31 02:49:09.5	92.540	-0.180	-0.410	0.590
2020/01/31 02:49:09.6	92.540	-0.180	-0.400	0.620
2020/01/31 02:49:09.7	92.540	-0.170	-0.390	0.640
2020/01/31 02:49:09.8	92.530	-0.160	-0.370	0.660
2020/01/31 02:49:09.9	92.520	-0.150	-0.360	0.680
2020/01/31 02:49:10.0	92.510	-0.140	-0.340	0.710
2020/01/31 02:49:10.1	92.490	-0.130	-0.320	0.730
2020/01/31 02:49:10.2	92.480	-0.120	-0.290	0.750
2020/01/31 02:49:10.3	92.460	-0.110	-0.270	0.780
2020/01/31 02:49:10.4	92.440	-0.100	-0.250	0.800
2020/01/31 02:49:10.5	92.430	-0.090	-0.220	0.830
2020/01/31 02:49:10.6	92.410	-0.080	-0.200	0.850
2020/01/31 02:49:10.7	92.390	-0.070	-0.170	0.880
2020/01/31 02:49:10.8	92.370	-0.060	-0.150	0.900
2020/01/31 02:49:10.9	92.350	-0.050	-0.120	0.930
2020/01/31 02:49:11.0	92.330	-0.040	-0.100	0.950
2020/01/31 02:49:11.1	92.310	-0.030	-0.080	0.970
2020/01/31 02:49:11.2	92.290	-0.030	-0.060	0.990
2020/01/31 02:49:11.3	92.280	-0.020	-0.040	1.010
2020/01/31 02:49:11.4	92.260	-0.020	-0.020	1.030
2020/01/31 02:49:11.5	92.250	-0.020	-0.000	1.040
2020/01/31 02:49:11.6	92.240	-0.020	0.010	1.050
2020/01/31 02:49:11.7	92.230	-0.020	0.020	1.060
2020/01/31 02:49:11.8	92.220	-0.020	0.030	1.060
2020/01/31 02:49:11.9	92.220	-0.020	0.040	1.060
2020/01/31 02:49:12.0	92.220	-0.030	0.040	1.060
2020/01/31 02:49:12.1	92.220	-0.040	0.040	1.050
2020/01/31 02:49:12.2	92.220	-0.040	0.040	1.030
2020/01/31 02:49:12.3	92.230	-0.050	0.030	1.010
2020/01/31 02:49:12.4	92.240	-0.060	0.020	0.990
2020/01/31 02:49:12.5	92.250	-0.070	-0.000	0.960
2020/01/31 02:49:12.6	92.270	-0.080	-0.020	0.920
2020/01/31 02:49:12.7	92.290	-0.080	-0.050	0.890
2020/01/31 02:49:12.8	92.310	-0.090	-0.070	0.840
2020/01/31 02:49:12.9	92.330	-0.100	-0.110	0.800
2020/01/31 02:49:13.0	92.360	-0.110	-0.140	0.760
2020/01/31 02:49:13.1	92.390	-0.110	-0.180	0.710
2020/01/31 02:49:13.2	92.420	-0.120	-0.220	0.660
2020/01/31 02:49:13.3	92.450	-0.120	-0.260	0.620
2020/01/31 02:49:13.4	92.490	-0.120	-0.300	0.580
2020/01/31 02:49:13.5	92.520	-0.120	-0.340	0.530
2020/01/31 02:49:13.6	92.550	-0.110	-0.390	0.500
2020/01/31 02:49:13.7	92.580	-0.110	-0.430	0.460
2020/01/31 02:49:13.8	92.610	-0.100	-0.470	0.430
2020/01/31 02:49:13.9	92.640	-0.100	-0.510	0.400
2020/01/31 02:49:14.0	92.670	-0.090	-0.540	0.380
2020/01/31 02:49:14.1	92.690	-0.080	-0.570	0.360
2020/01/31 02:49:14.2	92.710	-0.060	-0.600	0.340
2020/01/31 02:49:14.3	92.730	-0.050	-0.620	0.330
2020/01/31 02:49:14.4	92.750	-0.040	-0.640	0.330
2020/01/31 02:49:14.5	92.770	-0.020	-0.650	0.330
2020/01/31 02:49:14.6	92.790	-0.010	-0.660	0.340
2020/01/31 02:49:14.7	92.800	0.010	-0.660	0.350
2020/01/31 02:49:14.8	92.810	0.020	-0.650	0.360
2020/01/31 02:49:14.9	92.820	0.030	-0.650	0.380
2020/01/31 02:49:15.0	92.830	0.040	-0.630	0.400
2020/01/31 02:49:15.1	92.830	0.060	-0.610	0.430
2020/01/31 02:49:15.2	92.830	0.070	-0.590	0.450
2020/01/31 02:49:15.3	92.830	0.070	-0.560	0.480
2020/01/31 02:49:15.4	92.830	0.080	-0.530	0.510
2020/01/31 02:49:15.5	92.830	0.090	-0.500	0.540
2020/01/31 02:49:15.6	92.820	0.090	-0.460	0.570
2020/01/31 02:49:15.7	92.810	0.090	-0.420	0.600
2020/01/31 02:49:15.8	92.800	0.090	-0.380	0.630
2020/01/31 02:49:15.9	92.790	0.090	-0.340	0.660
2020/01/31 02:49:16.0	92.780	0.080	-0.300	0.690
2020/01/31 02:49:16.1	92.770	0.080	-0.260	0.720
2020/01/31 02:49:16.2	92.750	0.070	-0.220	0.750
2020/01/31 02:49:16.3	92.730	0.070	-0.190	0.780
2020/01/31 02:49:16.4	92.710	0.060	-0.150	0.810
2020/01/31 02:49:16.5	92.690	0.050	-0.120	0.830
2020/01/31 02:49:16.6	92.670	0.040	-0.100	0.850
2020/01/31 02:49:16.7	92.650	0.030	-0.070	0.870
2020/01/31 02:49:16.8	92.630	0.020	-0.050	0.890
2020/01/31 02:49:16.9	92.610	0.010	-0.040	0.910
2020/01/31 02:49:17.0	92.600	0.010	-0.030	0.920
2020/01/31 02:49:17.1	92.580	-0.000	-0.020	0.930
2020/01/31 02:49:17.2	92.560	-0.010	-0.010	0.940
2020/01/31 02:49:17.3	92.550	-0.020	-0.010	0.950
2020/01/31 02:49:17.4	92.530	-0.020	-0.020	0.950
2020/01/31 02:49:17.5	92.520	-0.030	-0.020	0.950
2020/01/31 02:49:17.6	92.510	-0.030	-0.030	0.960
2020/01/31 02:49:17.7	92.500	-0.030	-0.050	0.960
2020/01/31 02:49:17.8	92.490	-0.030	-0.060	0.960
2020/01/31 02:49:17.9	92.480	-0.030	-0.080	0.950
2020/01/31 02:49:18.0	92.470	-0.030	-0.090	0.950
2020/01/31 02:49:18.1	92.470	-0.030	-0.110	0.940
2020/01/31 02:49:18.2	92.460	-0.030	-0.120	0.930
2020/01/31 02:49:18.3	92.460	-0.030	-0.140	0.930
2020/01/31 02:49:18.4	92.460	-0.020	-0.150	0.910
2020/01/31 02:49:18.5	92.460	-0.020	-0.170	0.900
2020/01/31 02:49:18.6	92.460	-0.010	-0.180	0.890
2020/01/31 02:49:18.7	92.460	-0.010	-0.190	0.870
2020/01/31 02:49:18.8	92.470	-0.010	-0.200	0.850
2020/01/31 02:49:18.9	92.470	-0.000	-0.210	0.830
2020/01/31 02:49:19.0	92.480	0.000	-0.210	0.810
2020/01/31 02:49:19.1	92.490	0.010	-0.220	0.780
2020/01/31 02:49:19.2	92.500	0.010	-0.220	0.760
2020/01/31 02:49:19.3	92.510	0.010	-0.210	0.730
2020/01/31 02:49:19.4	92.520	0.010	-0.200	0.710
2020/01/31 02:49:19.5	92.540	0.010	-0.190	0.690
2020/01/31 02:49:19.6	92.550	0.010	-0.180	0.660
2020/01/31 02:49:19.7	92.570	0.010	-0.170	0.640
2020/01/31 02:49:19.8	92.580	0.010	-0.160	0.620
2020/01/31 02:49:19.9	92.590	0.000	-0.140	0.600
2020/01/31 02:49:20.0	92.610	0.000	-0.130	0.580
2020/01/31 02:49:20.1	92.620	-0.000	-0.110	0.560
2020/01/31 02:49:20.2	92.630	-0.010	-0.090	0.550
2020/01/31 02:49:20.3	92.650	-0.010	-0.080	0.530
2020/01/31 02:49:20.4	92.660	-0.020	-0.060	0.510
2020/01/31 02:49:20.5	92.670	-0.020	-0.050	0.500
2020/01/31 02:49:20.6	92.670	-0.030	-0.040	0.490
2020/01/31 02:49:20.7	92.680	-0.030	-0.040	0.480
2020/01/31 02:49:20.8	92.690	-0.030	-0.030	0.470
2020/01/31 02:49:20.9	92.700	-0.030	-0.030	0.460
2020/01/31 02:49:21.0	92.700	-0.040	-0.030	0.450
2020/01/31 02:49:21.1	92.710	-0.040	-0.040	0.440
2020/01/31 02:49:21.2	92.710	-0.030	-0.040	0.440
2020/01/31 02:49:21.3	92.720	-0.030	-0.050	0.430
2020/01/31 02:49:21.4	92.720	-0.030	-0.070	0.430
2020/01/31 02:49:21.5	92.730	-0.020	-0.080	0.430
2020/01/31 02:49:21.6	92.730	-0.020	-0.100	0.430
2020/01/31 02:49:21.7	92.730	-0.010	-0.120	0.430
2020/01/31 02:49:21.8	92.740	-0.000	-0.150	0.430
2020/01/31 02:49:21.9	92.740	0.010	-0.170	0.440
2020/01/31 02:49:22.0	92.740	0.020	-0.200	0.440
2020/01/31 02:49:22.1	92.750	0.040	-0.230	0.450
2020/01/31 02:49:22.2	92.750	0.050	-0.260	0.460
2020/01/31 02:49:22.3	92.750	0.060	-0.290	0.460
2020/01/31 02:49:22.4	92.760	0.080	-0.320	0.470
2020/01/31 02:49:22.5	92.760	0.100	-0.350	0.480
2020/01/31 02:49:22.6	92.760	0.110	-0.370	0.490
2020/01/31 02:49:22.7	92.770	0.130	-0.400	0.490
2020/01/31 02:49:22.8	92.770	0.140	-0.430	0.500
2020/01/31 02:49:22.9	92.770	0.160	-0.450	0.510
2020/01/31 02:49:23.0	92.780	0.180	-0.470	0.520
2020/01/31 02:49:23.1	92.780	0.190	-0.490	0.520
2020/01/31 02:49:23.2	92.780	0.210	-0.500	0.530
2020/01/31 02:49:23.3	92.780	0.220	-0.520	0.540
2020/01/31 02:49:23.4	92.790	0.230	-0.530	0.550
2020/01/31 02:49:23.5	92.790	0.240	-0.540	0.560
2020/01/31 02:49:23.6	92.790	0.260	-0.550	0.570
2020/01/31 02:49:23.7	92.790	0.260	-0.550	0.590
2020/01/31 02:49:23.8	92.790	0.270	-0.560	0.600
2020/01/31 02:49:23.9	92.790	0.280	-0.560	0.620
2020/01/31 02:49:24.0	92.790	0.280	-0.550	0.630
2020/01/31 02:49:24.1	92.780	0.290	-0.550	0.650
2020/01/31 02:49:24.2	92.780	0.290	-0.540	0.670
2020/01/31 02:49:24.3	92.780	0.290	-0.530	0.690
2020/01/31 02:49:24.4	92.780	0.290	-0.520	0.710
2020/01/31 02:49:24.5	92.780	0.290	-0.500	0.730
2020/01/31 02:49:24.6	92.780	0.290	-0.480	0.750
2020/01/31 02:49:24.7	92.770	0.280	-0.460	0.780
2020/01/31 02:49:24.8	92.770	0.270	-0.430	0.800
2020/01/31 02:49:24.9	92.770	0.260	-0.400	0.820
2020/01/31 02:49:25.0	92.770	0.250	-0.370	0.840
2020/01/31 02:49:25.1	92.760	0.240	-0.330	0.860
2020/01/31 02:49:25.2	92.760	0.220	-0.290	0.870
2020/01/31 02:49:25.3	92.760	0.200	-0.250	0.890
2020/01/31 02:49:25.4	92.750	0.180	-0.210	0.910
2020/01/31 02:49:25.5	92.750	0.160	-0.170	0.920
2020/01/31 02:49:25.6	92.740	0.140	-0.120	0.940
2020/01/31 02:49:25.7	92.740	0.110	-0.080	0.950
2020/01/31 02:49:25.8	92.730	0.090	-0.030	0.960
2020/01/31 02:49:25.9	92.730	0.060	0.020	0.970
2020/01/31 02:49:26.0	92.720	0.030	0.060	0.980
2020/01/31 02:49:26.1	92.720	-0.010	0.110	0.990
2020/01/31 02:49:26.2	92.720	-0.040	0.150	1.000
2020/01/31 02:49:26.3	92.720	-0.070	0.190	1.000
2020/01/31 02:49:26.4	92.720	-0.100	0.230	1.000
2020/01/31 02:49:26.5	92.720	-0.140	0.270	1.010
2020/01/31 02:49:26.6	92.710	-0.170	0.300	1.010
2020/01/31 02:49:26.7	92.720	-0.200	0.320	1.010
2020/01/31 02:49:26.8	92.720	-0.230	0.340	1.010
2020/01/31 02:49:26.9	92.720	-0.260	0.350	1.010
2020/01/31 02:49:27.0	92.720	-0.290	0.360	1.010
2020/01/31 02:49:27.1	92.730	-0.320	0.360	1.010
2020/01/31 02:49:27.2	92.730	-0.340	0.350	1.010
2020/01/31 02:49:27.3	92.740	-0.360	0.340	1.010
2020/01/31 02:49:27.4	92.740	-0.380	0.320	1.010
2020/01/31 02:49:27.5	92.750	-0.390	0.290	1.010
2020/01/31 02:49:27.6	92.750	-0.400	0.250	1.010
2020/01/31 02:49:27.7	92.760	-0.410	0.210	1.010
2020/01/31 02:49:27.8	92.760	-0.410	0.150	1.010
2020/01/31 02:49:27.9	92.770	-0.410	0.100	1.010
2020/01/31 02:49:28.0	92.770	-0.410	0.040	1.010
2020/01/31 02:49:28.1	92.780	-0.400	-0.030	1.000
2020/01/31 02:49:28.2	92.780	-0.390	-0.100	1.000
2020/01/31 02:49:28.3	92.790	-0.370	-0.180	1.000
2020/01/31 02:49:28.4	92.800	-0.350	-0.250	1.000
2020/01/31 02:49:28.5	92.800	-0.330	-0.330	0.990
2020/01/31 02:49:28.6	92.810	-0.310	-0.410	0.990
2020/01/31 02:49:28.7	92.820	-0.280	-0.480	0.980
2020/01/31 02:49:28.8	92.820	-0.250	-0.560	0.980
2020/01/31 02:49:28.9	92.830	-0.230	-0.630	0.970
2020/01/31 02:49:29.0	92.830	-0.200	-0.690	0.970
2020/01/31 02:49:29.1	92.840	-0.170	-0.760	0.970
2020/01/31 02:49:29.2	92.840	-0.140	-0.810	0.970
2020/01/31 02:49:29.3	92.840	-0.110	-0.870	0.970
2020/01/31 02:49:29.4	92.830	-0.080	-0.910	0.960
2020/01/31 02:49:29.5	92.830	-0.060	-0.950	0.970
2020/01/31 02:49:29.6	92.820	-0.030	-0.980	0.970
2020/01/31 02:49:29.7	92.810	-0.010	-1.000	0.970
2020/01/31 02:49:29.8	92.790	0.010	-1.010	0.970
2020/01/31 02:49:29.9	92.780	0.030	-1.020	0.980
2020/01/31 02:49:30.0	92.760	0.040	-1.020	0.980
2020/01/31 02:49:30.1	92.740	0.050	-1.010	0.980
2020/01/31 02:49:30.2	92.730	0.060	-0.990	0.990
2020/01/31 02:49:30.3	92.700	0.070	-0.960	0.990
2020/01/31 02:49:30.4	92.680	0.070	-0.930	0.990
2020/01/31 02:49:30.5	92.660	0.070	-0.890	0.990
2020/01/31 02:49:30.6	92.630	0.070	-0.840	0.990
2020/01/31 02:49:30.7	92.610	0.070	-0.780	0.990
2020/01/31 02:49:30.8	92.580	0.060	-0.720	0.980
2020/01/31 02:49:30.9	92.550	0.050	-0.650	0.980
2020/01/31 02:49:31.0	92.530	0.030	-0.580	0.970
2020/01/31 02:49:31.1	92.500	0.020	-0.500	0.960
2020/01/31 02:49:31.2	92.480	0.000	-0.420	0.950
2020/01/31 02:49:31.3	92.450	-0.020	-0.340	0.930
2020/01/31 02:49:31.4	92.430	-0.040	-0.260	0.920
2020/01/31 02:49:31.5	92.410	-0.060	-0.180	0.900
2020/01/31 02:49:31.6	92.390	-0.080	-0.100	0.880
2020/01/31 02:49:31.7	92.380	-0.100	-0.020	0.860
2020/01/31 02:49:31.8	92.370	-0.130	0.050	0.830
2020/01/31 02:49:31.9	92.350	-0.150	0.130	0.810
2020/01/31 02:49:32.0	92.350	-0.170	0.190	0.780
2020/01/31 02:49:32.1	92.340	-0.190	0.260	0.750
2020/01/31 02:49:32.2	92.340	-0.210	0.310	0.720
2020/01/31 02:49:32.3	92.340	-0.230	0.360	0.700
2020/01/31 02:49:32.4	92.340	-0.250	0.410	0.670
2020/01/31 02:49:32.5	92.340	-0.260	0.450	0.640
2020/01/31 02:49:32.6	92.350	-0.280	0.480	0.610
2020/01/31 02:49:32.7	92.360	-0.290	0.500	0.590
2020/01/31 02:49:32.8	92.370	-0.300	0.510	0.560
2020/01/31 02:49:32.9	92.390	-0.310	0.520	0.530
2020/01/31 02:49:33.0	92.400	-0.310	0.520	0.500
2020/01/31 02:49:33.1	92.420	-0.320	0.510	0.470
2020/01/31 02:49:33.2	92.440	-0.320	0.490	0.440
2020/01/31 02:49:33.3	92.460	-0.310	0.460	0.410
2020/01/31 02:49:33.4	92.480	-0.310	0.430	0.380
2020/01/31 02:49:33.5	92.500	-0.300	0.390	0.340
2020/01/31 02:49:33.6	92.520	-0.290	0.350	0.310
2020/01/31 02:49:33.7	92.540	-0.270	0.290	0.280
2020/01/31 02:49:33.8	92.560	-0.260	0.240	0.240
2020/01/31 02:49:33.9	92.580	-0.240	0.180	0.210
2020/01/31 02:49:34.0	92.600	-0.220	0.110	0.180
2020/01/31 02:49:34.1	92.610	-0.200	0.040	0.140
2020/01/31 02:49:34.2	92.630	-0.170	-0.030	0.110
2020/01/31 02:49:34.3	92.650	-0.140	-0.100	0.090
2020/01/31 02:49:34.4	92.660	-0.110	-0.170	0.060
2020/01/31 02:49:34.5	92.670	-0.090	-0.240	0.040
2020/01/31 02:49:34.6	92.680	-0.050	-0.310	0.020
2020/01/31 02:49:34.7	92.690	-0.020	-0.370	0.010
2020/01/31 02:49:34.8	92.700	0.010	-0.440	0.000
2020/01/31 02:49:34.9	92.700	0.040	-0.500	-0.000
2020/01/31 02:49:35.0	92.710	0.070	-0.550	0.000
2020/01/31 02:49:35.1	92.710	0.100	-0.600	0.010
2020/01/31 02:49:35.2	92.700	0.130	-0.640	0.020
2020/01/31 02:49:35.3	92.700	0.160	-0.670	0.040
2020/01/31 02:49:35.4	92.690	0.190	-0.700	0.060
2020/01/31 02:49:35.5	92.680	0.210	-0.720	0.090
2020/01/31 02:49:35.6	92.660	0.230	-0.730	0.120
2020/01/31 02:49:35.7	92.650	0.250	-0.730	0.160
2020/01/31 02:49:35.8	92.630	0.270	-0.720	0.200
2020/01/31 02:49:35.9	92.610	0.290	-0.710	0.240
2020/01/31 02:49:36.0	92.590	0.300	-0.690	0.280
2020/01/31 02:49:36.1	92.570	0.300	-0.660	0.320
2020/01/31 02:49:36.2	92.550	0.310	-0.620	0.370
2020/01/31 02:49:36.3	92.520	0.310	-0.580	0.410
2020/01/31 02:49:36.4	92.500	0.310	-0.530	0.460
2020/01/31 02:49:36.5	92.480	0.310	-0.480	0.500
2020/01/31 02:49:36.6	92.460	0.300	-0.430	0.540
2020/01/31 02:49:36.7	92.440	0.300	-0.370	0.590
2020/01/31 02:49:36.8	92.420	0.290	-0.310	0.620
2020/01/31 02:49:36.9	92.400	0.280	-0.250	0.660
2020/01/31 02:49:37.0	92.380	0.260	-0.190	0.690
2020/01/31 02:49:37.1	92.370	0.250	-0.130	0.720
2020/01/31 02:49:37.2	92.360	0.240	-0.080	0.750
2020/01/31 02:49:37.3	92.350	0.220	-0.030	0.770
2020/01/31 02:49:37.4	92.340	0.210	0.010	0.790
2020/01/31 02:49:37.5	92.330	0.200	0.050	0.800
2020/01/31 02:49:37.6	92.330	0.190	0.080	0.810
2020/01/31 02:49:37.7	92.330	0.180	0.110	0.820
2020/01/31 02:49:37.8	92.330	0.170	0.120	0.820
2020/01/31 02:49:37.9	92.340	0.160	0.130	0.810
2020/01/31 02:49:38.0	92.350	0.160	0.140	0.810
2020/01/31 02:49:38.1	92.360	0.150	0.130	0.800
2020/01/31 02:49:38.2	92.370	0.150	0.120	0.790
2020/01/31 02:49:38.3	92.390	0.160	0.100	0.780
2020/01/31 02:49:38.4	92.410	0.160	0.070	0.760
2020/01/31 02:49:38.5	92.430	0.170	0.040	0.750
2020/01/31 02:49:38.6	92.450	0.180	-0.000	0.740
2020/01/31 02:49:38.7	92.470	0.190	-0.040	0.720
2020/01/31 02:49:38.8	92.490	0.200	-0.090	0.710
2020/01/31 02:49:38.9	92.510	0.220	-0.140	0.710
2020/01/31 02:49:39.0	92.530	0.230	-0.190	0.700
2020/01/31 02:49:39.1	92.550	0.250	-0.250	0.700
2020/01/31 02:49:39.2	92.570	0.260	-0.300	0.710
2020/01/31 02:49:39.3	92.580	0.280	-0.360	0.710
2020/01/31 02:49:39.4	92.590	0.300	-0.410	0.720
2020/01/31 02:49:39.5	92.600	0.310	-0.460	0.730
2020/01/31 02:49:39.6	92.600	0.320	-0.500	0.750
2020/01/31 02:49:39.7	92.600	0.330	-0.540	0.770
2020/01/31 02:49:39.8	92.600	0.340	-0.570	0.780
2020/01/31 02:49:39.9	92.600	0.350	-0.600	0.800
2020/01/31 02:49:40.0	92.590	0.350	-0.620	0.820
2020/01/31 02:49:40.1	92.580	0.350	-0.640	0.830
2020/01/31 02:49:40.2	92.570	0.340	-0.640	0.850
2020/01/31 02:49:40.3	92.560	0.340	-0.640	0.870
2020/01/31 02:49:40.4	92.550	0.320	-0.630	0.880
2020/01/31 02:49:40.5	92.540	0.310	-0.600	0.890
2020/01/31 02:49:40.6	92.530	0.280	-0.580	0.910
2020/01/31 02:49:40.7	92.510	0.260	-0.540	0.920
2020/01/31 02:49:40.8	92.490	0.230	-0.490	0.930
2020/01/31 02:49:40.9	92.480	0.190	-0.440	0.950
2020/01/31 02:49:41.0	92.460	0.160	-0.390	0.960
2020/01/31 02:49:41.1	92.450	0.120	-0.320	0.970
2020/01/31 02:49:41.2	92.430	0.070	-0.250	0.990
2020/01/31 02:49:41.3	92.420	0.020	-0.180	1.010
2020/01/31 02:49:41.4	92.400	-0.020	-0.110	1.030
2020/01/31 02:49:41.5	92.390	-0.080	-0.040	1.050
2020/01/31 02:49:41.6	92.370	-0.130	0.040	1.070
2020/01/31 02:49:41.7	92.360	-0.180	0.110	1.100
2020/01/31 02:49:41.8	92.350	-0.230	0.180	1.130
2020/01/31 02:49:41.9	92.350	-0.290	0.240	1.150
2020/01/31 02:49:42.0	92.340	-0.340	0.300	1.180
2020/01/31 02:49:42.1	92.330	-0.380	0.350	1.220
2020/01/31 02:49:42.2	92.330	-0.430	0.400	1.250
2020/01/31 02:49:42.3	92.330	-0.470	0.430	1.280
2020/01/31 02:49:42.4	92.330	-0.510	0.460	1.310
2020/01/31 02:49:42.5	92.330	-0.540	0.470	1.330
2020/01/31 02:49:42.6	92.330	-0.570	0.480	1.360
2020/01/31 02:49:42.7	92.340	-0.600	0.470	1.380
2020/01/31 02:49:42.8	92.350	-0.610	0.450	1.400
2020/01/31 02:49:42.9	92.360	-0.620	0.420	1.410
2020/01/31 02:49:43.0	92.370	-0.630	0.380	1.420
2020/01/31 02:49:43.1	92.380	-0.620	0.330	1.420
2020/01/31 02:49:43.2	92.390	-0.620	0.260	1.420
2020/01/31 02:49:43.3	92.410	-0.600	0.190	1.410
2020/01/31 02:49:43.4	92.420	-0.580	0.120	1.400
2020/01/31 02:49:43.5	92.440	-0.550	0.030	1.390
2020/01/31 02:49:43.6	92.460	-0.520	-0.060	1.370
2020/01/31 02:49:43.7	92.480	-0.490	-0.150	1.350
2020/01/31 02:49:43.8	92.500	-0.450	-0.250	1.320
2020/01/31 02:49:43.9	92.520	-0.410	-0.340	1.300
2020/01/31 02:49:44.0	92.540	-0.360	-0.440	1.270
2020/01/31 02:49:44.1	92.560	-0.310	-0.540	1.240
2020/01/31 02:49:44.2	92.570	-0.260	-0.630	1.210
2020/01/31 02:49:44.3	92.580	-0.210	-0.710	1.190
2020/01/31 02:49:44.4	92.590	-0.160	-0.790	1.160
2020/01/31 02:49:44.5	92.600	-0.110	-0.860	1.140
2020/01/31 02:49:44.6	92.610	-0.070	-0.920	1.120
2020/01/31 02:49:44.7	92.610	-0.020	-0.980	1.110
2020/01/31 02:49:44.8	92.610	0.020	-1.020	1.090
2020/01/31 02:49:44.9	92.610	0.060	-1.050	1.080
2020/01/31 02:49:45.0	92.610	0.100	-1.070	1.070
2020/01/31 02:49:45.1	92.610	0.130	-1.070	1.070
2020/01/31 02:49:45.2	92.600	0.160	-1.060	1.060
2020/01/31 02:49:45.3	92.590	0.180	-1.050	1.060
2020/01/31 02:49:45.4	92.580	0.200	-1.020	1.060
2020/01/31 02:49:45.5	92.570	0.210	-0.970	1.060
2020/01/31 02:49:45.6	92.560	0.210	-0.920	1.060
2020/01/31 02:49:45.7	92.550	0.210	-0.860	1.070
2020/01/31 02:49:45.8	92.530	0.210	-0.790	1.070
2020/01/31 02:49:45.9	92.520	0.200	-0.710	1.070
2020/01/31 02:49:46.0	92.500	0.180	-0.620	1.080
2020/01/31 02:49:46.1	92.490	0.160	-0.520	1.080
2020/01/31 02:49:46.2	92.470	0.140	-0.420	1.080
2020/01/31 02:49:46.3	92.450	0.110	-0.320	1.090
2020/01/31 02:49:46.4	92.440	0.080	-0.210	1.090
2020/01/31 02:49:46.5	92.430	0.040	-0.110	1.090
2020/01/31 02:49:46.6	92.410	0.000	-0.000	1.090
2020/01/31 02:49:46.7	92.400	-0.040	0.100	1.090
2020/01/31 02:49:46.8	92.390	-0.080	0.200	1.090
2020/01/31 02:49:46.9	92.380	-0.120	0.300	1.090
2020/01/31 02:49:47.0	92.370	-0.160	0.390	1.090
2020/01/31 02:49:47.1	92.350	-0.200	0.480	1.080
2020/01/31 02:49:47.2	92.340	-0.240	0.550	1.070
2020/01/31 02:49:47.3	92.340	-0.270	0.610	1.060
2020/01/31 02:49:47.4	92.340	-0.310	0.660	1.050
2020/01/31 02:49:47.5	92.330	-0.330	0.690	1.030
2020/01/31 02:49:47.6	92.330	-0.360	0.710	1.020
2020/01/31 02:49:47.7	92.330	-0.370	0.710	1.000
2020/01/31 02:49:47.8	92.330	-0.380	0.700	0.980
2020/01/31 02:49:47.9	92.330	-0.390	0.680	0.960
2020/01/31 02:49:48.0	92.340	-0.390	0.630	0.940
2020/01/31 02:49:48.1	92.340	-0.380	0.570	0.910
2020/01/31 02:49:48.2	92.350	-0.360	0.500	0.880
2020/01/31 02:49:48.3	92.360	-0.340	0.420	0.850
2020/01/31 02:49:48.4	92.370	-0.310	0.320	0.810
2020/01/31 02:49:48.5	92.380	-0.280	0.210	0.770
2020/01/31 02:49:48.6	92.390	-0.240	0.090	0.730
2020/01/31 02:49:48.7	92.410	-0.190	-0.030	0.690
2020/01/31 02:49:48.8	92.420	-0.140	-0.160	0.640
2020/01/31 02:49:48.9	92.440	-0.090	-0.290	0.590
2020/01/31 02:49:49.0	92.460	-0.040	-0.430	0.550
2020/01/31 02:49:49.1	92.480	0.020	-0.560	0.500
2020/01/31 02:49:49.2	92.510	0.070	-0.690	0.460
2020/01/31 02:49:49.3	92.530	0.130	-0.810	0.420
2020/01/31 02:49:49.4	92.550	0.180	-0.920	0.380
2020/01/31 02:49:49.5	92.570	0.230	-1.020	0.350
2020/01/31 02:49:49.6	92.590	0.280	-1.100	0.320
2020/01/31 02:49:49.7	92.610	0.330	-1.180	0.300
2020/01/31 02:49:49.8	92.630	0.360	-1.230	0.290
2020/01/31 02:49:49.9	92.650	0.400	-1.270	0.280
2020/01/31 02:49:50.0	92.660	0.430	-1.290	0.270
2020/01/31 02:49:50.1	92.680	0.450	-1.300	0.270
2020/01/31 02:49:50.2	92.690	0.460	-1.290	0.280
2020/01/31 02:49:50.3	92.700	0.470	-1.260	0.290
2020/01/31 02:49:50.4	92.710	0.480	-1.220	0.300
2020/01/31 02:49:50.5	92.720	0.470	-1.150	0.320
2020/01/31 02:49:50.6	92.720	0.460	-1.070	0.340
2020/01/31 02:49:50.7	92.720	0.440	-0.980	0.370
2020/01/31 02:49:50.8	92.720	0.420	-0.870	0.390
2020/01/31 02:49:50.9	92.720	0.380	-0.750	0.420
2020/01/31 02:49:51.0	92.720	0.350	-0.610	0.450
2020/01/31 02:49:51.1	92.710	0.300	-0.470	0.480
2020/01/31 02:49:51.2	92.700	0.260	-0.320	0.510
2020/01/31 02:49:51.3	92.690	0.200	-0.160	0.540
2020/01/31 02:49:51.4	92.670	0.150	-0.000	0.570
2020/01/31 02:49:51.5	92.660	0.090	0.160	0.600
2020/01/31 02:49:51.6	92.640	0.030	0.310	0.630
2020/01/31 02:49:51.7	92.620	-0.030	0.470	0.660
2020/01/31 02:49:51.8	92.600	-0.090	0.610	0.680
2020/01/31 02:49:51.9	92.580	-0.150	0.750	0.710
2020/01/31 02:49:52.0	92.550	-0.210	0.880	0.730
2020/01/31 02:49:52.1	92.530	-0.260	0.990	0.750
2020/01/31 02:49:52.2	92.500	-0.320	1.090	0.770
2020/01/31 02:49:52.3	92.470	-0.360	1.170	0.790
2020/01/31 02:49:52.4	92.450	-0.400	1.240	0.810
2020/01/31 02:49:52.5	92.420	-0.440	1.280	0.820
2020/01/31 02:49:52.6	92.390	-0.470	1.310	0.830
2020/01/31 02:49:52.7	92.360	-0.490	1.310	0.840
2020/01/31 02:49:52.8	92.340	-0.500	1.290	0.850
2020/01/31 02:49:52.9	92.310	-0.500	1.250	0.860
2020/01/31 02:49:53.0	92.280	-0.490	1.180	0.860
2020/01/31 02:49:53.1	92.250	-0.480	1.100	0.860
2020/01/31 02:49:53.2	92.230	-0.450	0.990	0.860
2020/01/31 02:49:53.3	92.210	-0.420	0.870	0.850
2020/01/31 02:49:53.4	92.190	-0.380	0.730	0.840
2020/01/31 02:49:53.5	92.180	-0.330	0.570	0.830
2020/01/31 02:49:53.6	92.160	-0.280	0.400	0.820
2020/01/31 02:49:53.7	92.150	-0.210	0.220	0.800
2020/01/31 02:49:53.8	92.140	-0.150	0.040	0.770
2020/01/31 02:49:53.9	92.140	-0.070	-0.150	0.750
2020/01/31 02:49:54.0	92.140	0.000	-0.350	0.720
2020/01/31 02:49:54.1	92.140	0.080	-0.550	0.680
2020/01/31 02:49:54.2	92.140	0.160	-0.740	0.640
2020/01/31 02:49:54.3	92.150	0.240	-0.920	0.600
2020/01/31 02:49:54.4	92.160	0.320	-1.090	0.560
2020/01/31 02:49:54.5	92.170	0.400	-1.250	0.510
2020/01/31 02:49:54.6	92.180	0.470	-1.400	0.470
2020/01/31 02:49:54.7	92.200	0.540	-1.530	0.420
2020/01/31 02:49:54.8	92.210	0.610	-1.640	0.380
2020/01/31 02:49:54.9	92.230	0.670	-1.730	0.340
2020/01/31 02:49:55.0	92.250	0.720	-1.810	0.290
2020/01/31 02:49:55.1	92.270	0.770	-1.860	0.260
2020/01/31 02:49:55.2	92.290	0.810	-1.890	0.220
2020/01/31 02:49:55.3	92.310	0.840	-1.890	0.190
2020/01/31 02:49:55.4	92.330	0.860	-1.880	0.160
2020/01/31 02:49:55.5	92.360	0.880	-1.840	0.130
2020/01/31 02:49:55.6	92.380	0.890	-1.780	0.110
2020/01/31 02:49:55.7	92.400	0.880	-1.700	0.100
2020/01/31 02:49:55.8	92.420	0.870	-1.600	0.090
2020/01/31 02:49:55.9	92.440	0.850	-1.480	0.090
2020/01/31 02:49:56.0	92.460	0.830	-1.350	0.090
2020/01/31 02:49:56.1	92.470	0.790	-1.190	0.100
2020/01/31 02:49:56.2	92.490	0.750	-1.040	0.110
2020/01/31 02:49:56.3	92.500	0.690	-0.870	0.130
2020/01/31 02:49:56.4	92.520	0.640	-0.690	0.160
2020/01/31 02:49:56.5	92.530	0.570	-0.510	0.190
2020/01/31 02:49:56.6	92.540	0.500	-0.320	0.220
2020/01/31 02:49:56.7	92.540	0.430	-0.140	0.260
2020/01/31 02:49:56.8	92.550	0.350	0.040	0.310
2020/01/31 02:49:56.9	92.550	0.270	0.220	0.350
2020/01/31 02:49:57.0	92.550	0.180	0.390	0.400
2020/01/31 02:49:57.1	92.550	0.100	0.560	0.450
2020/01/31 02:49:57.2	92.550	0.010	0.720	0.500
2020/01/31 02:49:57.3	92.550	-0.080	0.860	0.550
2020/01/31 02:49:57.4	92.550	-0.160	0.990	0.600
2020/01/31 02:49:57.5	92.540	-0.240	1.100	0.650
2020/01/31 02:49:57.6	92.540	-0.320	1.200	0.700
2020/01/31 02:49:57.7	92.530	-0.400	1.290	0.750
2020/01/31 02:49:57.8	92.520	-0.470	1.350	0.800
2020/01/31 02:49:57.9	92.520	-0.540	1.400	0.850
2020/01/31 02:49:58.0	92.510	-0.600	1.430	0.900
2020/01/31 02:49:58.1	92.490	-0.660	1.450	0.940
2020/01/31 02:49:58.2	92.480	-0.720	1.450	0.990
2020/01/31 02:49:58.3	92.470	-0.760	1.430	1.040
2020/01/31 02:49:58.4	92.460	-0.800	1.390	1.080
2020/01/31 02:49:58.5	92.450	-0.840	1.340	1.120
2020/01/31 02:49:58.6	92.440	-0.860	1.280	1.160
2020/01/31 02:49:58.7	92.430	-0.890	1.200	1.200
2020/01/31 02:49:58.8	92.420	-0.900	1.110	1.240
2020/01/31 02:49:58.9	92.420	-0.910	1.010	1.270
2020/01/31 02:49:59.0	92.410	-0.910	0.900	1.290
2020/01/31 02:49:59.1	92.400	-0.910	0.780	1.310
2020/01/31 02:49:59.2	92.400	-0.900	0.660	1.330
2020/01/31 02:49:59.3	92.400	-0.890	0.530	1.340
2020/01/31 02:49:59.4	92.400	-0.870	0.390	1.340
2020/01/31 02:49:59.5	92.400	-0.850	0.250	1.340
2020/01/31 02:49:59.6	92.400	-0.820	0.110	1.340
2020/01/31 02:49:59.7	92.410	-0.790	-0.030	1.330
2020/01/31 02:49:59.8	92.420	-0.750	-0.180	1.320
2020/01/31 02:49:59.9	92.430	-0.710	-0.320	1.300
2020/01/31 02:50:00.0	92.440	-0.670	-0.460	1.280
2020/01/31 02:50:00.1	92.450	-0.620	-0.590	1.260
2020/01/31 02:50:00.2	92.460	-0.570	-0.720	1.240
2020/01/31 02:50:00.3	92.480	-0.520	-0.840	1.220
2020/01/31 02:50:00.4	92.490	-0.460	-0.960	1.200
2020/01/31 02:50:00.5	92.500	-0.410	-1.070	1.180
2020/01/31 02:50:00.6	92.520	-0.350	-1.170	1.160
2020/01/31 02:50:00.7	92.530	-0.290	-1.260	1.140
2020/01/31 02:50:00.8	92.540	-0.230	-1.340	1.130
2020/01/31 02:50:00.9	92.560	-0.180	-1.400	1.120
2020/01/31 02:50:01.0	92.570	-0.120	-1.460	1.110
2020/01/31 02:50:01.1	92.580	-0.060	-1.510	1.100
2020/01/31 02:50:01.2	92.590	-0.010	-1.540	1.090
2020/01/31 02:50:01.3	92.590	0.040	-1.570	1.090
2020/01/31 02:50:01.4	92.600	0.090	-1.580	1.080
2020/01/31 02:50:01.5	92.600	0.140	-1.580	1.080
2020/01/31 02:50:01.6	92.600	0.190	-1.560	1.080
2020/01/31 02:50:01.7	92.600	0.230	-1.540	1.080
2020/01/31 02:50:01.8	92.600	0.260	-1.510	1.080
2020/01/31 02:50:01.9	92.600	0.300	-1.460	1.080
2020/01/31 02:50:02.0	92.600	0.330	-1.410	1.080
2020/01/31 02:50:02.1	92.600	0.350	-1.350	1.090
2020/01/31 02:50:02.2	92.590	0.380	-1.280	1.090
2020/01/31 02:50:02.3	92.580	0.390	-1.200	1.090
2020/01/31 02:50:02.4	92.580	0.410	-1.120	1.090
2020/01/31 02:50:02.5	92.570	0.410	-1.030	1.090
2020/01/31 02:50:02.6	92.550	0.420	-0.940	1.090
2020/01/31 02:50:02.7	92.540	0.420	-0.840	1.090
2020/01/31 02:50:02.8	92.530	0.420	-0.750	1.080
2020/01/31 02:50:02.9	92.520	0.410	-0.650	1.080
2020/01/31 02:50:03.0	92.500	0.400	-0.550	1.080
2020/01/31 02:50:03.1	92.490	0.390	-0.440	1.070
2020/01/31 02:50:03.2	92.480	0.370	-0.340	1.060
2020/01/31 02:50:03.3	92.460	0.350	-0.250	1.060
2020/01/31 02:50:03.4	92.450	0.330	-0.160	1.050
2020/01/31 02:50:03.5	92.430	0.310	-0.070	1.040
2020/01/31 02:50:03.6	92.420	0.290	0.020	1.030
2020/01/31 02:50:03.7	92.400	0.260	0.100	1.020
2020/01/31 02:50:03.8	92.390	0.240	0.170	1.000
2020/01/31 02:50:03.9	92.380	0.210	0.240	0.990
2020/01/31 02:50:04.0	92.370	0.190	0.310	0.970
2020/01/31 02:50:04.1	92.350	0.160	0.360	0.950
2020/01/31 02:50:04.2	92.340	0.140	0.420	0.920
2020/01/31 02:50:04.3	92.330	0.120	0.460	0.900
2020/01/31 02:50:04.4	92.320	0.090	0.500	0.870
2020/01/31 02:50:04.5	92.310	0.070	0.540	0.840
2020/01/31 02:50:04.6	92.300	0.050	0.560	0.810
2020/01/31 02:50:04.7	92.290	0.030	0.590	0.770
2020/01/31 02:50:04.8	92.280	0.010	0.600	0.730
2020/01/31 02:50:04.9	92.270	-0.000	0.620	0.690
2020/01/31 02:50:05.0	92.260	-0.020	0.620	0.640
2020/01/31 02:50:05.1	92.240	-0.030	0.620	0.600
2020/01/31 02:50:05.2	92.230	-0.040	0.610	0.560
2020/01/31 02:50:05.3	92.220	-0.040	0.600	0.510
2020/01/31 02:50:05.4	92.210	-0.050	0.590	0.470
2020/01/31 02:50:05.5	92.200	-0.050	0.570	0.430
2020/01/31 02:50:05.6	92.190	-0.050	0.540	0.380
2020/01/31 02:50:05.7	92.180	-0.040	0.510	0.340
2020/01/31 02:50:05.8	92.170	-0.040	0.470	0.310
2020/01/31 02:50:05.9	92.160	-0.030	0.430	0.270
2020/01/31 02:50:06.0	92.150	-0.010	0.380	0.240
2020/01/31 02:50:06.1	92.140	0.000	0.330	0.200
2020/01/31 02:50:06.2	92.140	0.020	0.270	0.170
2020/01/31 02:50:06.3	92.140	0.040	0.210	0.140
2020/01/31 02:50:06.4	92.140	0.060	0.140	0.120
2020/01/31 02:50:06.5	92.140	0.090	0.070	0.100
2020/01/31 02:50:06.6	92.140	0.110	-0.000	0.080
2020/01/31 02:50:06.7	92.150	0.140	-0.080	0.070
2020/01/31 02:50:06.8	92.160	0.170	-0.160	0.050
2020/01/31 02:50:06.9	92.170	0.200	-0.230	0.040
2020/01/31 02:50:07.0	92.190	0.230	-0.310	0.030
2020/01/31 02:50:07.1	92.210	0.260	-0.390	0.030
2020/01/31 02:50:07.2	92.230	0.290	-0.470	0.020
2020/01/31 02:50:07.3	92.250	0.320	-0.540	0.020
2020/01/31 02:50:07.4	92.280	0.350	-0.620	0.020
2020/01/31 02:50:07.5	92.300	0.370	-0.680	0.030
2020/01/31 02:50:07.6	92.330	0.400	-0.750	0.030
2020/01/31 02:50:07.7	92.360	0.420	-0.800	0.040
2020/01/31 02:50:07.8	92.390	0.440	-0.850	0.050
2020/01/31 02:50:07.9	92.420	0.460	-0.900	0.070
2020/01/31 02:50:08.0	92.440	0.470	-0.930	0.080
2020/01/31 02:50:08.1	92.470	0.480	-0.970	0.100
2020/01/31 02:50:08.2	92.490	0.480	-0.980	0.120
2020/01/31 02:50:08.3	92.520	0.480	-0.990	0.140
2020/01/31 02:50:08.4	92.540	0.480	-0.980	0.170
2020/01/31 02:50:08.5	92.560	0.470	-0.970	0.200
2020/01/31 02:50:08.6	92.580	0.460	-0.940	0.220
2020/01/31 02:50:08.7	92.590	0.440	-0.910	0.260
2020/01/31 02:50:08.8	92.610	0.420	-0.860	0.290
2020/01/31 02:50:08.9	92.620	0.390	-0.800	0.330
2020/01/31 02:50:09.0	92.630	0.360	-0.740	0.360
2020/01/31 02:50:09.1	92.640	0.320	-0.650	0.410
2020/01/31 02:50:09.2	92.640	0.280	-0.570	0.450
2020/01/31 02:50:09.3	92.650	0.240	-0.480	0.500
2020/01/31 02:50:09.4	92.650	0.190	-0.390	0.550
2020/01/31 02:50:09.5	92.650	0.140	-0.290	0.600
2020/01/31 02:50:09.6	92.650	0.090	-0.180	0.650
2020/01/31 02:50:09.7	92.640	0.030	-0.080	0.710
2020/01/31 02:50:09.8	92.640	-0.020	0.030	0.760
2020/01/31 02:50:09.9	92.640	-0.080	0.130	0.820
2020/01/31 02:50:10.0	92.630	-0.140	0.240	0.880
2020/01/31 02:50:10.1	92.620	-0.200	0.330	0.940
2020/01/31 02:50:10.2	92.610	-0.260	0.430	1.000
2020/01/31 02:50:10.3	92.610	-0.310	0.520	1.060
2020/01/31 02:50:10.4	92.600	-0.370	0.600	1.110
2020/01/31 02:50:10.5	92.600	-0.420	0.670	1.170
2020/01/31 02:50:10.6	92.590	-0.470	0.740	1.220
2020/01/31 02:50:10.7	92.590	-0.520	0.790	1.270
2020/01/31 02:50:10.8	92.580	-0.560	0.830	1.320
2020/01/31 02:50:10.9	92.580	-0.600	0.860	1.360
2020/01/31 02:50:11.0	92.580	-0.630	0.870	1.390
2020/01/31 02:50:11.1	92.570	-0.650	0.880	1.430
2020/01/31 02:50:11.2	92.570	-0.670	0.870	1.460
2020/01/31 02:50:11.3	92.570	-0.690	0.840	1.480
2020/01/31 02:50:11.4	92.570	-0.690	0.800	1.500
2020/01/31 02:50:11.5	92.570	-0.690	0.750	1.510
2020/01/31 02:50:11.6	92.570	-0.690	0.680	1.520
2020/01/31 02:50:11.7	92.570	-0.670	0.600	1.520
2020/01/31 02:50:11.8	92.560	-0.650	0.510	1.520
2020/01/31 02:50:11.9	92.560	-0.630	0.410	1.510
2020/01/31 02:50:12.0	92.560	-0.600	0.310	1.500
2020/01/31 02:50:12.1	92.560	-0.560	0.190	1.480
2020/01/31 02:50:12.2	92.560	-0.520	0.070	1.470
2020/01/31 02:50:12.3	92.560	-0.470	-0.050	1.450
2020/01/31 02:50:12.4	92.560	-0.420	-0.170	1.420
2020/01/31 02:50:12.5	92.560	-0.370	-0.290	1.400
2020/01/31 02:50:12.6	92.550	-0.320	-0.420	1.370
2020/01/31 02:50:12.7	92.550	-0.260	-0.540	1.350
2020/01/31 02:50:12.8	92.550	-0.200	-0.650	1.320
2020/01/31 02:50:12.9	92.550	-0.140	-0.760	1.290
2020/01/31 02:50:13.0	92.550	-0.080	-0.860	1.260
2020/01/31 02:50:13.1	92.550	-0.020	-0.960	1.220
2020/01/31 02:50:13.2	92.550	0.040	-1.040	1.190
2020/01/31 02:50:13.3	92.550	0.090	-1.120	1.150
2020/01/31 02:50:13.4	92.550	0.140	-1.180	1.120
2020/01/31 02:50:13.5	92.540	0.200	-1.230	1.080
2020/01/31 02:50:13.6	92.550	0.240	-1.280	1.050
2020/01/31 02:50:13.7	92.550	0.290	-1.310	1.010
2020/01/31 02:50:13.8	92.550	0.330	-1.330	0.970
2020/01/31 02:50:13.9	92.550	0.370	-1.330	0.930
2020/01/31 02:50:14.0	92.550	0.400	-1.330	0.900
2020/01/31 02:50:14.1	92.550	0.430	-1.310	0.860
2020/01/31 02:50:14.2	92.560	0.450	-1.290	0.820
2020/01/31 02:50:14.3	92.560	0.470	-1.250	0.790
2020/01/31 02:50:14.4	92.560	0.490	-1.210	0.750
2020/01/31 02:50:14.5	92.570	0.500	-1.160	0.720
2020/01/31 02:50:14.6	92.570	0.500	-1.100	0.680
2020/01/31 02:50:14.7	92.580	0.510	-1.030	0.650
2020/01/31 02:50:14.8	92.580	0.510	-0.960	0.620
2020/01/31 02:50:14.9	92.590	0.500	-0.880	0.590
2020/01/31 02:50:15.0	92.590	0.500	-0.800	0.560
2020/01/31 02:50:15.1	92.600	0.490	-0.710	0.530
2020/01/31 02:50:15.2	92.600	0.470	-0.620	0.500
2020/01/31 02:50:15.3	92.610	0.460	-0.540	0.480
2020/01/31 02:50:15.4	92.620	0.440	-0.450	0.450
2020/01/31 02:50:15.5	92.630	0.420	-0.370	0.430
2020/01/31 02:50:15.6	92.640	0.400	-0.290	0.400
2020/01/31 02:50:15.7	92.650	0.380	-0.210	0.380
2020/01/31 02:50:15.8	92.660	0.360	-0.130	0.360
2020/01/31 02:50:15.9	92.670	0.340	-0.060	0.340
2020/01/31 02:50:16.0	92.680	0.320	0.000	0.330
2020/01/31 02:50:16.1	92.690	0.300	0.060	0.310
2020/01/31 02:50:16.2	92.700	0.270	0.110	0.300
2020/01/31 02:50:16.3	92.710	0.250	0.160	0.290
2020/01/31 02:50:16.4	92.720	0.230	0.210	0.280
2020/01/31 02:50:16.5	92.730	0.210	0.240	0.270
2020/01/31 02:50:16.6	92.740	0.190	0.280	0.270
2020/01/31 02:50:16.7	92.750	0.160	0.300	0.280
2020/01/31 02:50:16.8	92.760	0.140	0.320	0.280
2020/01/31 02:50:16.9	92.760	0.120	0.340	0.290
2020/01/31 02:50:17.0	92.770	0.100	0.350	0.300
2020/01/31 02:50:17.1	92.780	0.090	0.360	0.310
2020/01/31 02:50:17.2	92.780	0.070	0.370	0.330
2020/01/31 02:50:17.3	92.780	0.050	0.370	0.350
2020/01/31 02:50:17.4	92.780	0.030	0.370	0.370
2020/01/31 02:50:17.5	92.780	0.010	0.370	0.390
2020/01/31 02:50:17.6	92.780	-0.010	0.360	0.410
2020/01/31 02:50:17.7	92.770	-0.030	0.350	0.430
2020/01/31 02:50:17.8	92.770	-0.040	0.340	0.450
2020/01/31 02:50:17.9	92.760	-0.060	0.330	0.480
2020/01/31 02:50:18.0	92.750	-0.080	0.320	0.500
2020/01/31 02:50:18.1	92.740	-0.100	0.310	0.510
2020/01/31 02:50:18.2	92.730	-0.120	0.290	0.530
2020/01/31 02:50:18.3	92.720	-0.130	0.280	0.550
2020/01/31 02:50:18.4	92.710	-0.150	0.260	0.570
2020/01/31 02:50:18.5	92.700	-0.170	0.240	0.590
2020/01/31 02:50:18.6	92.690	-0.180	0.220	0.600
2020/01/31 02:50:18.7	92.680	-0.200	0.190	0.620
2020/01/31 02:50:18.8	92.670	-0.210	0.170	0.630
2020/01/31 02:50:18.9	92.650	-0.220	0.140	0.650
2020/01/31 02:50:19.0	92.640	-0.230	0.110	0.660
2020/01/31 02:50:19.1	92.630	-0.240	0.070	0.670
2020/01/31 02:50:19.2	92.620	-0.240	0.030	0.680
2020/01/31 02:50:19.3	92.600	-0.250	-0.000	0.690
2020/01/31 02:50:19.4	92.590	-0.250	-0.040	0.710
2020/01/31 02:50:19.5	92.580	-0.250	-0.080	0.720
2020/01/31 02:50:19.6	92.570	-0.250	-0.130	0.740
2020/01/31 02:50:19.7	92.560	-0.240	-0.170	0.750
2020/01/31 02:50:19.8	92.540	-0.230	-0.220	0.770
2020/01/31 02:50:19.9	92.530	-0.220	-0.270	0.790
2020/01/31 02:50:20.0	92.520	-0.200	-0.310	0.810
2020/01/31 02:50:20.1	92.520	-0.190	-0.360	0.840
2020/01/31 02:50:20.2	92.510	-0.170	-0.410	0.860
2020/01/31 02:50:20.3	92.500	-0.150	-0.450	0.880
2020/01/31 02:50:20.4	92.490	-0.120	-0.500	0.900
2020/01/31 02:50:20.5	92.480	-0.100	-0.540	0.920
2020/01/31 02:50:20.6	92.480	-0.070	-0.590	0.940
2020/01/31 02:50:20.7	92.480	-0.050	-0.630	0.960
2020/01/31 02:50:20.8	92.470	-0.020	-0.670	0.980
2020/01/31 02:50:20.9	92.470	0.010	-0.700	1.000
2020/01/31 02:50:21.0	92.470	0.040	-0.730	1.020
2020/01/31 02:50:21.1	92.480	0.060	-0.760	1.040
2020/01/31 02:50:21.2	92.480	0.090	-0.780	1.050
2020/01/31 02:50:21.3	92.480	0.110	-0.800	1.070
2020/01/31 02:50:21.4	92.490	0.140	-0.810	1.080
2020/01/31 02:50:21.5	92.490	0.160	-0.810	1.090
2020/01/31 02:50:21.6	92.500	0.180	-0.810	1.090
2020/01/31 02:50:21.7	92.510	0.190	-0.800	1.100
2020/01/31 02:50:21.8	92.530	0.200	-0.790	1.100
2020/01/31 02:50:21.9	92.540	0.210	-0.770	1.090
2020/01/31 02:50:22.0	92.560	0.210	-0.750	1.090
2020/01/31 02:50:22.1	92.570	0.210	-0.720	1.080
2020/01/31 02:50:22.2	92.590	0.210	-0.680	1.070
2020/01/31 02:50:22.3	92.620	0.210	-0.640	1.060
2020/01/31 02:50:22.4	92.640	0.200	-0.590	1.050
2020/01/31 02:50:22.5	92.670	0.180	-0.540	1.030
2020/01/31 02:50:22.6	92.690	0.160	-0.490	1.010
2020/01/31 02:50:22.7	92.720	0.140	-0.430	0.990
2020/01/31 02:50:22.8	92.740	0.120	-0.360	0.970
2020/01/31 02:50:22.9	92.770	0.090	-0.300	0.950
2020/01/31 02:50:23.0	92.800	0.070	-0.230	0.930
2020/01/31 02:50:23.1	92.830	0.040	-0.160	0.910
2020/01/31 02:50:23.2	92.850	0.010	-0.090	0.890
2020/01/31 02:50:23.3	92.880	-0.030	-0.020	0.860
2020/01/31 02:50:23.4	92.900	-0.060	0.050	0.850
2020/01/31 02:50:23.5	92.920	-0.090	0.120	0.830
2020/01/31 02:50:23.6	92.940	-0.120	0.190	0.810
2020/01/31 02:50:23.7	92.960	-0.150	0.250	0.800
2020/01/31 02:50:23.8	92.970	-0.180	0.310	0.780
2020/01/31 02:50:23.9	92.990	-0.210	0.370	0.780
2020/01/31 02:50:24.0	93.000	-0.240	0.420	0.770
2020/01/31 02:50:24.1	93.000	-0.260	0.470	0.760
2020/01/31 02:50:24.2	93.010	-0.290	0.510	0.760
2020/01/31 02:50:24.3	93.010	-0.310	0.550	0.760
2020/01/31 02:50:24.4	93.010	-0.320	0.580	0.760
2020/01/31 02:50:24.5	93.010	-0.340	0.600	0.760
2020/01/31 02:50:24.6	93.010	-0.350	0.620	0.760
2020/01/31 02:50:24.7	93.010	-0.350	0.630	0.760
2020/01/31 02:50:24.8	93.000	-0.360	0.630	0.770
2020/01/31 02:50:24.9	93.000	-0.350	0.620	0.770
2020/01/31 02:50:25.0	92.990	-0.350	0.600	0.770
2020/01/31 02:50:25.1	92.980	-0.340	0.580	0.780
2020/01/31 02:50:25.2	92.970	-0.320	0.540	0.780
2020/01/31 02:50:25.3	92.960	-0.310	0.500	0.780
2020/01/31 02:50:25.4	92.960	-0.280	0.450	0.790
2020/01/31 02:50:25.5	92.950	-0.260	0.390	0.790
2020/01/31 02:50:25.6	92.940	-0.230	0.320	0.790
2020/01/31 02:50:25.7	92.930	-0.190	0.250	0.780
2020/01/31 02:50:25.8	92.920	-0.150	0.170	0.780
2020/01/31 02:50:25.9	92.920	-0.110	0.080	0.770
2020/01/31 02:50:26.0	92.910	-0.070	-0.010	0.770
2020/01/31 02:50:26.1	92.900	-0.020	-0.110	0.750
2020/01/31 02:50:26.2	92.890	0.030	-0.200	0.740
2020/01/31 02:50:26.3	92.890	0.080	-0.300	0.730
2020/01/31 02:50:26.4	92.880	0.130	-0.390	0.710
2020/01/31 02:50:26.5	92.870	0.180	-0.490	0.700
2020/01/31 02:50:26.6	92.860	0.230	-0.580	0.680
2020/01/31 02:50:26.7	92.860	0.280	-0.670	0.660
2020/01/31 02:50:26.8	92.850	0.340	-0.760	0.640
2020/01/31 02:50:26.9	92.850	0.390	-0.850	0.620
2020/01/31 02:50:27.0	92.840	0.440	-0.920	0.590
2020/01/31 02:50:27.1	92.840	0.480	-0.990	0.560
2020/01/31 02:50:27.2	92.840	0.530	-1.060	0.540
2020/01/31 02:50:27.3	92.840	0.570	-1.110	0.510
2020/01/31 02:50:27.4	92.840	0.610	-1.160	0.480
2020/01/31 02:50:27.5	92.840	0.650	-1.200	0.460
2020/01/31 02:50:27.6	92.840	0.680	-1.230	0.430
2020/01/31 02:50:27.7	92.850	0.710	-1.250	0.410
2020/01/31 02:50:27.8	92.850	0.740	-1.270	0.390
2020/01/31 02:50:27.9	92.860	0.760	-1.270	0.370
2020/01/31 02:50:28.0	92.870	0.780	-1.260	0.350
2020/01/31 02:50:28.1	92.880	0.790	-1.250	0.330
2020/01/31 02:50:28.2	92.890	0.800	-1.220	0.320
2020/01/31 02:50:28.3	92.900	0.800	-1.180	0.310
2020/01/31 02:50:28.4	92.910	0.790	-1.140	0.310
2020/01/31 02:50:28.5	92.930	0.790	-1.080	0.310
2020/01/31 02:50:28.6	92.940	0.770	-1.020	0.310
2020/01/31 02:50:28.7	92.950	0.750	-0.950	0.310
2020/01/31 02:50:28.8	92.960	0.730	-0.880	0.320
2020/01/31 02:50:28.9	92.970	0.700	-0.800	0.330
2020/01/31 02:50:29.0	92.980	0.660	-0.710	0.350
2020/01/31 02:50:29.1	92.990	0.620	-0.620	0.360
2020/01/31 02:50:29.2	92.990	0.580	-0.520	0.380
2020/01/31 02:50:29.3	93.000	0.530	-0.430	0.410
2020/01/31 02:50:29.4	93.000	0.480	-0.330	0.430
2020/01/31 02:50:29.5	93.000	0.420	-0.230	0.460
2020/01/31 02:50:29.6	93.000	0.360	-0.130	0.490
2020/01/31 02:50:29.7	93.000	0.300	-0.040	0.520
2020/01/31 02:50:29.8	93.000	0.240	0.060	0.550
2020/01/31 02:50:29.9	93.000	0.170	0.150	0.580
2020/01/31 02:50:30.0	92.990	0.100	0.240	0.610
2020/01/31 02:50:30.1	92.990	0.030	0.330	0.640
2020/01/31 02:50:30.2	92.980	-0.040	0.410	0.670
2020/01/31 02:50:30.3	92.970	-0.110	0.480	0.700
2020/01/31 02:50:30.4	92.970	-0.180	0.550	0.740
2020/01/31 02:50:30.5	92.960	-0.250	0.610	0.770
2020/01/31 02:50:30.6	92.950	-0.310	0.660	0.800
2020/01/31 02:50:30.7	92.940	-0.380	0.700	0.830
2020/01/31 02:50:30.8	92.930	-0.440	0.730	0.860
2020/01/31 02:50:30.9	92.920	-0.500	0.760	0.890
2020/01/31 02:50:31.0	92.910	-0.550	0.770	0.920
2020/01/31 02:50:31.1	92.900	-0.610	0.780	0.950
2020/01/31 02:50:31.2	92.890	-0.650	0.780	0.980
2020/01/31 02:50:31.3	92.880	-0.690	0.760	1.000
2020/01/31 02:50:31.4	92.870	-0.730	0.740	1.030
2020/01/31 02:50:31.5	92.860	-0.760	0.710	1.050
2020/01/31 02:50:31.6	92.850	-0.790	0.660	1.080
2020/01/31 02:50:31.7	92.850	-0.810	0.610	1.100
2020/01/31 02:50:31.8	92.840	-0.820	0.550	1.120
2020/01/31 02:50:31.9	92.830	-0.820	0.480	1.130
2020/01/31 02:50:32.0	92.830	-0.820	0.400	1.150
2020/01/31 02:50:32.1	92.820	-0.810	0.320	1.160
2020/01/31 02:50:32.2	92.820	-0.800	0.230	1.170
2020/01/31 02:50:32.3	92.810	-0.770	0.130	1.180
2020/01/31 02:50:32.4	92.810	-0.750	0.030	1.190
2020/01/31 02:50:32.5	92.810	-0.710	-0.070	1.190
2020/01/31 02:50:32.6	92.820	-0.670	-0.170	1.200
2020/01/31 02:50:32.7	92.820	-0.630	-0.270	1.200
2020/01/31 02:50:32.8	92.820	-0.580	-0.370	1.200
2020/01/31 02:50:32.9	92.830	-0.530	-0.470	1.200
2020/01/31 02:50:33.0	92.840	-0.480	-0.560	1.200
2020/01/31 02:50:33.1	92.840	-0.420	-0.660	1.200
2020/01/31 02:50:33.2	92.850	-0.360	-0.740	1.200
2020/01/31 02:50:33.3	92.860	-0.300	-0.810	1.200
2020/01/31 02:50:33.4	92.870	-0.240	-0.880	1.200
2020/01/31 02:50:33.5	92.870	-0.180	-0.940	1.190
2020/01/31 02:50:33.6	92.880	-0.130	-0.980	1.190
2020/01/31 02:50:33.7	92.890	-0.070	-1.020	1.180
2020/01/31 02:50:33.8	92.890	-0.020	-1.040	1.170
2020/01/31 02:50:33.9	92.900	0.030	-1.050	1.160
2020/01/31 02:50:34.0	92.900	0.070	-1.050	1.150
2020/01/31 02:50:34.1	92.900	0.110	-1.040	1.130
2020/01/31 02:50:34.2	92.910	0.150	-1.020	1.110
2020/01/31 02:50:34.3	92.910	0.180	-0.980	1.090
2020/01/31 02:50:34.4	92.910	0.210	-0.940	1.070
2020/01/31 02:50:34.5	92.900	0.230	-0.890	1.040
2020/01/31 02:50:34.6	92.900	0.240	-0.830	1.010
2020/01/31 02:50:34.7	92.890	0.250	-0.760	0.980
2020/01/31 02:50:34.8	92.890	0.260	-0.680	0.950
2020/01/31 02:50:34.9	92.880	0.260	-0.600	0.910
2020/01/31 02:50:35.0	92.870	0.260	-0.510	0.870
2020/01/31 02:50:35.1	92.860	0.250	-0.410	0.830
2020/01/31 02:50:35.2	92.840	0.240	-0.320	0.800
2020/01/31 02:50:35.3	92.830	0.230	-0.220	0.760
2020/01/31 02:50:35.4	92.810	0.210	-0.120	0.710
2020/01/31 02:50:35.5	92.800	0.190	-0.020	0.670
2020/01/31 02:50:35.6	92.780	0.170	0.080	0.630
2020/01/31 02:50:35.7	92.760	0.140	0.180	0.580
2020/01/31 02:50:35.8	92.750	0.120	0.270	0.540
2020/01/31 02:50:35.9	92.730	0.090	0.350	0.500
2020/01/31 02:50:36.0	92.710	0.070	0.430	0.450
2020/01/31 02:50:36.1	92.690	0.050	0.510	0.400
2020/01/31 02:50:36.2	92.670	0.030	0.580	0.360
2020/01/31 02:50:36.3	92.650	0.010	0.630	0.320
2020/01/31 02:50:36.4	92.630	-0.010	0.680	0.280
2020/01/31 02:50:36.5	92.620	-0.020	0.710	0.240
2020/01/31 02:50:36.6	92.600	-0.030	0.730	0.210
2020/01/31 02:50:36.7	92.580	-0.040	0.740	0.170
2020/01/31 02:50:36.8	92.570	-0.040	0.740	0.140
2020/01/31 02:50:36.9	92.550	-0.040	0.730	0.100
2020/01/31 02:50:37.0	92.540	-0.030	0.700	0.070
2020/01/31 02:50:37.1	92.530	-0.020	0.670	0.040
2020/01/31 02:50:37.2	92.520	-0.010	0.620	0.000
2020/01/31 02:50:37.3	92.510	0.010	0.560	-0.030
2020/01/31 02:50:37.4	92.500	0.040	0.480	-0.060
2020/01/31 02:50:37.5	92.500	0.070	0.400	-0.080
2020/01/31 02:50:37.6	92.500	0.100	0.310	-0.110
2020/01/31 02:50:37.7	92.500	0.140	0.210	-0.140
2020/01/31 02:50:37.8	92.500	0.170	0.110	-0.170
2020/01/31 02:50:37.9	92.510	0.220	-0.000	-0.190
2020/01/31 02:50:38.0	92.510	0.260	-0.120	-0.210
2020/01/31 02:50:38.1	92.520	0.300	-0.240	-0.240
2020/01/31 02:50:38.2	92.530	0.350	-0.350	-0.250
2020/01/31 02:50:38.3	92.540	0.390	-0.470	-0.270
2020/01/31 02:50:38.4	92.560	0.440	-0.590	-0.280
2020/01/31 02:50:38.5	92.570	0.480	-0.700	-0.290
2020/01/31 02:50:38.6	92.590	0.520	-0.810	-0.300
2020/01/31 02:50:38.7	92.600	0.560	-0.910	-0.300
2020/01/31 02:50:38.8	92.620	0.590	-1.010	-0.300
2020/01/31 02:50:38.9	92.640	0.630	-1.090	-0.290
2020/01/31 02:50:39.0	92.650	0.650	-1.170	-0.280
2020/01/31 02:50:39.1	92.670	0.670	-1.240	-0.270
2020/01/31 02:50:39.2	92.690	0.690	-1.290	-0.250
2020/01/31 02:50:39.3	92.700	0.700	-1.330	-0.220
2020/01/31 02:50:39.4	92.720	0.710	-1.350	-0.190
2020/01/31 02:50:39.5	92.730	0.700	-1.370	-0.160
2020/01/31 02:50:39.6	92.740	0.700	-1.360	-0.120
2020/01/31 02:50:39.7	92.750	0.680	-1.350	-0.070
2020/01/31 02:50:39.8	92.760	0.660	-1.320	-0.020
2020/01/31 02:50:39.9	92.760	0.640	-1.270	0.040
2020/01/31 02:50:40.0	92.760	0.600	-1.220	0.100
2020/01/31 02:50:40.1	92.760	0.560	-1.140	0.170
2020/01/31 02:50:40.2	92.760	0.520	-1.060	0.240
2020/01/31 02:50:40.3	92.750	0.460	-0.970	0.310
2020/01/31 02:50:40.4	92.740	0.410	-0.870	0.390
2020/01/31 02:50:40.5	92.720	0.340	-0.760	0.470
2020/01/31 02:50:40.6	92.710	0.280	-0.640	0.550
2020/01/31 02:50:40.7	92.690	0.210	-0.520	0.640
2020/01/31 02:50:40.8	92.660	0.130	-0.390	0.720
2020/01/31 02:50:40.9	92.640	0.050	-0.260	0.810
2020/01/31 02:50:41.0	92.610	-0.020	-0.130	0.900
2020/01/31 02:50:41.1	92.570	-0.110	0.000	0.990
2020/01/31 02:50:41.2	92.540	-0.190	0.130	1.070
2020/01/31 02:50:41.3	92.510	-0.270	0.250	1.160
2020/01/31 02:50:41.4	92.470	-0.350	0.370	1.240
2020/01/31 02:50:41.5	92.430	-0.430	0.480	1.320
2020/01/31 02:50:41.6	92.390	-0.510	0.590	1.400
2020/01/31 02:50:41.7	92.360	-0.580	0.680	1.470
2020/01/31 02:50:41.8	92.320	-0.650	0.770	1.540
2020/01/31 02:50:41.9	92.280	-0.720	0.840	1.600
2020/01/31 02:50:42.0	92.250	-0.790	0.910	1.660
2020/01/31 02:50:42.1	92.210	-0.850	0.960	1.710
2020/01/31 02:50:42.2	92.180	-0.900	1.000	1.760
2020/01/31 02:50:42.3	92.150	-0.950	1.030	1.800
2020/01/31 02:50:42.4	92.120	-0.990	1.040	1.830
2020/01/31 02:50:42.5	92.100	-1.030	1.040	1.850
2020/01/31 02:50:42.6	92.080	-1.050	1.020	1.860
2020/01/31 02:50:42.7	92.070	-1.070	1.000	1.870
2020/01/31 02:50:42.8	92.060	-1.090	0.960	1.870
2020/01/31 02:50:42.9	92.050	-1.100	0.910	1.860
2020/01/31 02:50:43.0	92.050	-1.090	0.840	1.840
2020/01/31 02:50:43.1	92.040	-1.090	0.760	1.810
2020/01/31 02:50:43.2	92.050	-1.070	0.670	1.780
2020/01/31 02:50:43.3	92.060	-1.040	0.580	1.740
2020/01/31 02:50:43.4	92.070	-1.010	0.470	1.700
2020/01/31 02:50:43.5	92.090	-0.970	0.360	1.650
2020/01/31 02:50:43.6	92.110	-0.930	0.240	1.600
2020/01/31 02:50:43.7	92.140	-0.880	0.110	1.540
2020/01/31 02:50:43.8	92.160	-0.820	-0.020	1.480
2020/01/31 02:50:43.9	92.190	-0.750	-0.150	1.420
2020/01/31 02:50:44.0	92.220	-0.680	-0.290	1.350
2020/01/31 02:50:44.1	92.250	-0.600	-0.430	1.290
2020/01/31 02:50:44.2	92.280	-0.520	-0.570	1.230
2020/01/31 02:50:44.3	92.310	-0.440	-0.700	1.160
2020/01/31 02:50:44.4	92.330	-0.350	-0.830	1.100
2020/01/31 02:50:44.5	92.360	-0.260	-0.950	1.040
2020/01/31 02:50:44.6	92.390	-0.170	-1.070	0.990
2020/01/31 02:50:44.7	92.410	-0.070	-1.180	0.940
2020/01/31 02:50:44.8	92.430	0.020	-1.280	0.900
2020/01/31 02:50:44.9	92.450	0.120	-1.370	0.860
2020/01/31 02:50:45.0	92.460	0.210	-1.450	0.820
2020/01/31 02:50:45.1	92.480	0.300	-1.510	0.780
2020/01/31 02:50:45.2	92.490	0.390	-1.570	0.760
2020/01/31 02:50:45.3	92.490	0.480	-1.600	0.730
2020/01/31 02:50:45.4	92.500	0.560	-1.630	0.710
2020/01/31 02:50:45.5	92.500	0.640	-1.640	0.700
2020/01/31 02:50:45.6	92.500	0.720	-1.640	0.690
2020/01/31 02:50:45.7	92.500	0.780	-1.620	0.680
2020/01/31 02:50:45.8	92.490	0.850	-1.590	0.670
2020/01/31 02:50:45.9	92.490	0.900	-1.550	0.670
2020/01/31 02:50:46.0	92.480	0.950	-1.500	0.670
2020/01/31 02:50:46.1	92.470	0.990	-1.430	0.680
2020/01/31 02:50:46.2	92.460	1.020	-1.350	0.680
2020/01/31 02:50:46.3	92.440	1.040	-1.260	0.680
2020/01/31 02:50:46.4	92.430	1.060	-1.170	0.680
2020/01/31 02:50:46.5	92.410	1.070	-1.070	0.690
2020/01/31 02:50:46.6	92.390	1.070	-0.960	0.690
2020/01/31 02:50:46.7	92.380	1.060	-0.850	0.690
2020/01/31 02:50:46.8	92.360	1.050	-0.730	0.690
2020/01/31 02:50:46.9	92.350	1.030	-0.610	0.690
2020/01/31 02:50:47.0	92.330	1.000	-0.490	0.690
2020/01/31 02:50:47.1	92.310	0.960	-0.360	0.690
2020/01/31 02:50:47.2	92.300	0.920	-0.240	0.690
2020/01/31 02:50:47.3	92.280	0.870	-0.120	0.690
2020/01/31 02:50:47.4	92.270	0.820	-0.000	0.680
2020/01/31 02:50:47.5	92.260	0.760	0.110	0.680
2020/01/31 02:50:47.6	92.250	0.700	0.230	0.670
2020/01/31 02:50:47.7	92.240	0.630	0.330	0.670
2020/01/31 02:50:47.8	92.230	0.560	0.440	0.660
2020/01/31 02:50:47.9	92.220	0.490	0.530	0.650
2020/01/31 02:50:48.0	92.210	0.410	0.630	0.640
2020/01/31 02:50:48.1	92.210	0.340	0.710	0.630
2020/01/31 02:50:48.2	92.210	0.260	0.790	0.620
2020/01/31 02:50:48.3	92.210	0.180	0.860	0.600
2020/01/31 02:50:48.4	92.210	0.100	0.920	0.580
2020/01/31 02:50:48.5	92.210	0.020	0.980	0.570
2020/01/31 02:50:48.6	92.220	-0.050	1.020	0.550
2020/01/31 02:50:48.7	92.220	-0.120	1.060	0.530
2020/01/31 02:50:48.8	92.230	-0.200	1.090	0.510
2020/01/31 02:50:48.9	92.240	-0.260	1.110	0.480
2020/01/31 02:50:49.0	92.250	-0.330	1.130	0.460
2020/01/31 02:50:49.1	92.250	-0.390	1.130	0.430
2020/01/31 02:50:49.2	92.270	-0.440	1.130	0.410
2020/01/31 02:50:49.3	92.280	-0.490	1.110	0.390
2020/01/31 02:50:49.4	92.300	-0.540	1.090	0.370
2020/01/31 02:50:49.5	92.320	-0.570	1.070	0.350
2020/01/31 02:50:49.6	92.340	-0.610	1.030	0.320
2020/01/31 02:50:49.7	92.360	-0.630	0.990	0.300
2020/01/31 02:50:49.8	92.380	-0.660	0.940	0.290
2020/01/31 02:50:49.9	92.400	-0.670	0.880	0.270
2020/01/31 02:50:50.0	92.420	-0.680	0.820	0.250
2020/01/31 02:50:50.1	92.440	-0.680	0.740	0.240
2020/01/31 02:50:50.2	92.460	-0.680	0.670	0.220
2020/01/31 02:50:50.3	92.480	-0.680	0.590	0.220
2020/01/31 02:50:50.4	92.500	-0.660	0.510	0.210
2020/01/31 02:50:50.5	92.510	-0.650	0.420	0.210
2020/01/31 02:50:50.6	92.530	-0.630	0.330	0.210
2020/01/31 02:50:50.7	92.550	-0.600	0.240	0.210
2020/01/31 02:50:50.8	92.560	-0.570	0.140	0.220
2020/01/31 02:50:50.9	92.570	-0.540	0.050	0.220
2020/01/31 02:50:51.0	92.580	-0.510	-0.050	0.240
2020/01/31 02:50:51.1	92.590	-0.470	-0.150	0.260
2020/01/31 02:50:51.2	92.590	-0.430	-0.240	0.280
2020/01/31 02:50:51.3	92.590	-0.400	-0.340	0.300
2020/01/31 02:50:51.4	92.600	-0.360	-0.430	0.330
2020/01/31 02:50:51.5	92.600	-0.320	-0.520	0.360
2020/01/31 02:50:51.6	92.590	-0.280	-0.610	0.390
2020/01/31 02:50:51.7	92.590	-0.240	-0.700	0.420
2020/01/31 02:50:51.8	92.580	-0.200	-0.780	0.450
2020/01/31 02:50:51.9	92.580	-0.160	-0.860	0.490
2020/01/31 02:50:52.0	92.570	-0.120	-0.930	0.530
2020/01/31 02:50:52.1	92.560	-0.080	-0.990	0.560
2020/01/31 02:50:52.2	92.550	-0.050	-1.050	0.600
2020/01/31 02:50:52.3	92.540	-0.020	-1.110	0.640
2020/01/31 02:50:52.4	92.530	0.010	-1.150	0.680
2020/01/31 02:50:52.5	92.520	0.040	-1.190	0.720
2020/01/31 02:50:52.6	92.510	0.060	-1.220	0.760
2020/01/31 02:50:52.7	92.500	0.090	-1.250	0.790
2020/01/31 02:50:52.8	92.490	0.110	-1.260	0.830
2020/01/31 02:50:52.9	92.480	0.130	-1.270	0.860
2020/01/31 02:50:53.0	92.470	0.140	-1.270	0.900
2020/01/31 02:50:53.1	92.470	0.160	-1.270	0.930
2020/01/31 02:50:53.2	92.460	0.170	-1.250	0.960
2020/01/31 02:50:53.3	92.460	0.180	-1.230	0.990
2020/01/31 02:50:53.4	92.460	0.190	-1.200	1.010
2020/01/31 02:50:53.5	92.460	0.190	-1.160	1.030
2020/01/31 02:50:53.6	92.460	0.200	-1.120	1.050
2020/01/31 02:50:53.7	92.460	0.200	-1.080	1.060
2020/01/31 02:50:53.8	92.470	0.200	-1.030	1.070
2020/01/31 02:50:53.9	92.470	0.200	-0.970	1.080
2020/01/31 02:50:54.0	92.480	0.200	-0.910	1.090
2020/01/31 02:50:54.1	92.490	0.200	-0.850	1.090
2020/01/31 02:50:54.2	92.500	0.200	-0.790	1.090
2020/01/31 02:50:54.3	92.510	0.190	-0.730	1.080
2020/01/31 02:50:54.4	92.520	0.190	-0.670	1.070
2020/01/31 02:50:54.5	92.540	0.190	-0.610	1.060
2020/01/31 02:50:54.6	92.550	0.190	-0.550	1.040
2020/01/31 02:50:54.7	92.570	0.180	-0.490	1.030
2020/01/31 02:50:54.8	92.580	0.180	-0.430	1.000
2020/01/31 02:50:54.9	92.600	0.180	-0.370	0.980
2020/01/31 02:50:55.0	92.620	0.180	-0.320	0.960
2020/01/31 02:50:55.1	92.630	0.180	-0.270	0.930
2020/01/31 02:50:55.2	92.650	0.180	-0.220	0.900
2020/01/31 02:50:55.3	92.660	0.180	-0.170	0.880
2020/01/31 02:50:55.4	92.680	0.180	-0.130	0.850
2020/01/31 02:50:55.5	92.690	0.180	-0.080	0.820
2020/01/31 02:50:55.6	92.690	0.180	-0.040	0.800
2020/01/31 02:50:55.7	92.700	0.180	-0.000	0.770
2020/01/31 02:50:55.8	92.700	0.180	0.030	0.750
2020/01/31 02:50:55.9	92.700	0.180	0.070	0.720
2020/01/31 02:50:56.0	92.690	0.180	0.100	0.700
2020/01/31 02:50:56.1	92.690	0.170	0.130	0.690
2020/01/31 02:50:56.2	92.670	0.170	0.160	0.670
2020/01/31 02:50:56.3	92.660	0.170	0.190	0.650
2020/01/31 02:50:56.4	92.650	0.170	0.220	0.640
2020/01/31 02:50:56.5	92.630	0.160	0.240	0.620
2020/01/31 02:50:56.6	92.610	0.160	0.270	0.610
2020/01/31 02:50:56.7	92.590	0.150	0.290	0.600
2020/01/31 02:50:56.8	92.560	0.140	0.310	0.590
2020/01/31 02:50:56.9	92.540	0.130	0.340	0.580
2020/01/31 02:50:57.0	92.520	0.120	0.360	0.570
2020/01/31 02:50:57.1	92.490	0.110	0.370	0.560
2020/01/31 02:50:57.2	92.470	0.100	0.390	0.550
2020/01/31 02:50:57.3	92.450	0.080	0.400	0.540
2020/01/31 02:50:57.4	92.430	0.070	0.420	0.530
2020/01/31 02:50:57.5	92.410	0.050	0.430	0.520
2020/01/31 02:50:57.6	92.390	0.040	0.440	0.510
2020/01/31 02:50:57.7	92.380	0.020	0.440	0.500
2020/01/31 02:50:57.8	92.360	0.000	0.440	0.490
2020/01/31 02:50:57.9	92.350	-0.010	0.440	0.480
2020/01/31 02:50:58.0	92.340	-0.030	0.430	0.460
2020/01/31 02:50:58.1	92.330	-0.050	0.430	0.450
2020/01/31 02:50:58.2	92.320	-0.060	0.410	0.440
2020/01/31 02:50:58.3	92.320	-0.080	0.390	0.420
2020/01/31 02:50:58.4	92.320	-0.090	0.360	0.400
2020/01/31 02:50:58.5	92.320	-0.100	0.330	0.380
2020/01/31 02:50:58.6	92.320	-0.110	0.290	0.360
2020/01/31 02:50:58.7	92.320	-0.120	0.240	0.340
2020/01/31 02:50:58.8	92.330	-0.120	0.190	0.320
2020/01/31 02:50:58.9	92.330	-0.120	0.130	0.300
2020/01/31 02:50:59.0	92.340	-0.120	0.060	0.290
2020/01/31 02:50:59.1	92.350	-0.120	-0.010	0.260
2020/01/31 02:50:59.2	92.360	-0.110	-0.080	0.240
2020/01/31 02:50:59.3	92.380	-0.110	-0.160	0.230
2020/01/31 02:50:59.4	92.390	-0.090	-0.240	0.220
2020/01/31 02:50:59.5	92.410	-0.080	-0.330	0.210
2020/01/31 02:50:59.6	92.420	-0.060	-0.410	0.200
2020/01/31 02:50:59.7	92.440	-0.050	-0.500	0.190
2020/01/31 02:50:59.8	92.460	-0.030	-0.580	0.190
2020/01/31 02:50:59.9	92.480	-0.010	-0.670	0.190
2020/01/31 02:51:00.0	92.500	0.010	-0.750	0.200
2020/01/31 02:51:00.1	92.520	0.030	-0.820	0.210
2020/01/31 02:51:00.2	92.540	0.050	-0.890	0.230
2020/01/31 02:51:00.3	92.560	0.070	-0.960	0.240
2020/01/31 02:51:00.4	92.580	0.090	-1.020	0.260
2020/01/31 02:51:00.5	92.600	0.100	-1.070	0.290
2020/01/31 02:51:00.6	92.610	0.120	-1.110	0.320
2020/01/31 02:51:00.7	92.630	0.130	-1.140	0.350
2020/01/31 02:51:00.8	92.640	0.140	-1.160	0.380
2020/01/31 02:51:00.9	92.650	0.140	-1.170	0.420
2020/01/31 02:51:01.0	92.660	0.140	-1.170	0.460
2020/01/31 02:51:01.1	92.660	0.140	-1.160	0.490
2020/01/31 02:51:01.2	92.670	0.140	-1.130	0.540
2020/01/31 02:51:01.3	92.670	0.130	-1.100	0.580
2020/01/31 02:51:01.4	92.670	0.120	-1.060	0.620
2020/01/31 02:51:01.5	92.670	0.100	-1.010	0.660
2020/01/31 02:51:01.6	92.670	0.080	-0.950	0.710
2020/01/31 02:51:01.7	92.660	0.060	-0.880	0.750
2020/01/31 02:51:01.8	92.650	0.030	-0.810	0.800
2020/01/31 02:51:01.9	92.640	0.000	-0.720	0.840
2020/01/31 02:51:02.0	92.630	-0.030	-0.640	0.890
2020/01/31 02:51:02.1	92.620	-0.060	-0.540	0.940
2020/01/31 02:51:02.2	92.600	-0.090	-0.440	0.980
2020/01/31 02:51:02.3	92.580	-0.130	-0.340	1.030
2020/01/31 02:51:02.4	92.560	-0.160	-0.240	1.070
2020/01/31 02:51:02.5	92.540	-0.200	-0.140	1.120
2020/01/31 02:51:02.6	92.510	-0.230	-0.040	1.160
2020/01/31 02:51:02.7	92.490	-0.260	0.060	1.200
2020/01/31 02:51:02.8	92.460	-0.290	0.150	1.240
2020/01/31 02:51:02.9	92.440	-0.320	0.240	1.270
2020/01/31 02:51:03.0	92.410	-0.350	0.320	1.310
2020/01/31 02:51:03.1	92.390	-0.370	0.400	1.330
2020/01/31 02:51:03.2	92.360	-0.390	0.470	1.350
2020/01/31 02:51:03.3	92.340	-0.410	0.530	1.380
2020/01/31 02:51:03.4	92.320	-0.430	0.580	1.390
2020/01/31 02:51:03.5	92.300	-0.430	0.620	1.410
2020/01/31 02:51:03.6	92.280	-0.440	0.650	1.420
2020/01/31 02:51:03.7	92.270	-0.440	0.670	1.420
2020/01/31 02:51:03.8	92.250	-0.440	0.680	1.420
2020/01/31 02:51:03.9	92.240	-0.430	0.680	1.410
2020/01/31 02:51:04.0	92.230	-0.420	0.670	1.400
2020/01/31 02:51:04.1	92.230	-0.400	0.650	1.390
2020/01/31 02:51:04.2	92.220	-0.380	0.620	1.370
2020/01/31 02:51:04.3	92.220	-0.360	0.580	1.340
2020/01/31 02:51:04.4	92.230	-0.330	0.530	1.310
2020/01/31 02:51:04.5	92.230	-0.300	0.480	1.280
2020/01/31 02:51:04.6	92.240	-0.270	0.420	1.250
2020/01/31 02:51:04.7	92.250	-0.230	0.350	1.210
2020/01/31 02:51:04.8	92.260	-0.190	0.280	1.160
2020/01/31 02:51:04.9	92.270	-0.160	0.200	1.120
2020/01/31 02:51:05.0	92.290	-0.120	0.130	1.070
2020/01/31 02:51:05.1	92.300	-0.080	0.040	1.010
2020/01/31 02:51:05.2	92.320	-0.040	-0.040	0.960
2020/01/31 02:51:05.3	92.350	0.000	-0.110	0.910
2020/01/31 02:51:05.4	92.370	0.040	-0.190	0.850
2020/01/31 02:51:05.5	92.390	0.080	-0.260	0.790
2020/01/31 02:51:05.6	92.410	0.110	-0.330	0.740
2020/01/31 02:51:05.7	92.430	0.150	-0.390	0.680
2020/01/31 02:51:05.8	92.450	0.180	-0.440	0.630
2020/01/31 02:51:05.9	92.470	0.210	-0.490	0.580
2020/01/31 02:51:06.0	92.490	0.230	-0.530	0.530
2020/01/31 02:51:06.1	92.500	0.260	-0.570	0.480
2020/01/31 02:51:06.2	92.520	0.280	-0.590	0.440
2020/01/31 02:51:06.3	92.530	0.300	-0.610	0.400
2020/01/31 02:51:06.4	92.530	0.320	-0.620	0.370
2020/01/31 02:51:06.5	92.540	0.330	-0.620	0.330
2020/01/31 02:51:06.6	92.540	0.340	-0.610	0.310
2020/01/31 02:51:06.7	92.540	0.350	-0.600	0.280
2020/01/31 02:51:06.8	92.540	0.350	-0.570	0.260
2020/01/31 02:51:06.9	92.530	0.360	-0.540	0.240
2020/01/31 02:51:07.0	92.530	0.360	-0.510	0.230
2020/01/31 02:51:07.1	92.520	0.350	-0.460	0.210
2020/01/31 02:51:07.2	92.500	0.350	-0.420	0.210
2020/01/31 02:51:07.3	92.490	0.340	-0.370	0.200
2020/01/31 02:51:07.4	92.470	0.330	-0.320	0.200
2020/01/31 02:51:07.5	92.450	0.320	-0.270	0.200
2020/01/31 02:51:07.6	92.440	0.310	-0.220	0.210
2020/01/31 02:51:07.7	92.420	0.300	-0.180	0.210
2020/01/31 02:51:07.8	92.400	0.280	-0.130	0.220
2020/01/31 02:51:07.9	92.380	0.270	-0.090	0.220
2020/01/31 02:51:08.0	92.370	0.260	-0.060	0.230
2020/01/31 02:51:08.1	92.350	0.250	-0.030	0.240
2020/01/31 02:51:08.2	92.340	0.240	-0.000	0.250
2020/01/31 02:51:08.3	92.320	0.230	0.010	0.260
2020/01/31 02:51:08.4	92.320	0.220	0.020	0.270
2020/01/31 02:51:08.5	92.310	0.210	0.020	0.280
2020/01/31 02:51:08.6	92.310	0.200	0.020	0.290
2020/01/31 02:51:08.7	92.310	0.190	0.000	0.300
2020/01/31 02:51:08.8	92.310	0.190	-0.020	0.310
2020/01/31 02:51:08.9	92.320	0.190	-0.050	0.320
2020/01/31 02:51:09.0	92.330	0.190	-0.080	0.330
2020/01/31 02:51:09.1	92.340	0.190	-0.120	0.330
2020/01/31 02:51:09.2	92.350	0.190	-0.170	0.340
2020/01/31 02:51:09.3	92.360	0.190	-0.220	0.350
2020/01/31 02:51:09.4	92.380	0.190	-0.280	0.360
2020/01/31 02:51:09.5	92.400	0.200	-0.340	0.370
2020/01/31 02:51:09.6	92.420	0.200	-0.400	0.380
2020/01/31 02:51:09.7	92.440	0.210	-0.470	0.380
2020/01/31 02:51:09.8	92.470	0.210	-0.530	0.390
2020/01/31 02:51:09.9	92.490	0.220	-0.590	0.400
2020/01/31 02:51:10.0	92.510	0.220	-0.650	0.410
2020/01/31 02:51:10.1	92.530	0.230	-0.710	0.410
2020/01/31 02:51:10.2	92.550	0.230	-0.770	0.420
2020/01/31 02:51:10.3	92.570	0.230	-0.810	0.420
2020/01/31 02:51:10.4	92.580	0.230	-0.850	0.430
2020/01/31 02:51:10.5	92.600	0.230	-0.870	0.440
2020/01/31 02:51:10.6	92.620	0.220	-0.890	0.450
2020/01/31 02:51:10.7	92.630	0.210	-0.900	0.460
2020/01/31 02:51:10.8	92.650	0.200	-0.900	0.470
2020/01/31 02:51:10.9	92.660	0.180	-0.880	0.490
2020/01/31 02:51:11.0	92.670	0.170	-0.860	0.500
2020/01/31 02:51:11.1	92.670	0.140	-0.810	0.520
2020/01/31 02:51:11.2	92.680	0.120	-0.770	0.550
2020/01/31 02:51:11.3	92.680	0.090	-0.710	0.570
2020/01/31 02:51:11.4	92.670	0.060	-0.640	0.600
2020/01/31 02:51:11.5	92.670	0.020	-0.570	0.640
2020/01/31 02:51:11.6	92.660	-0.010	-0.480	0.670
2020/01/31 02:51:11.7	92.650	-0.050	-0.390	0.710
2020/01/31 02:51:11.8	92.640	-0.100	-0.300	0.750
2020/01/31 02:51:11.9	92.630	-0.140	-0.200	0.800
2020/01/31 02:51:12.0	92.610	-0.190	-0.100	0.840
2020/01/31 02:51:12.1	92.590	-0.230	-0.000	0.890
2020/01/31 02:51:12.2	92.580	-0.280	0.100	0.940
2020/01/31 02:51:12.3	92.560	-0.330	0.200	0.990
2020/01/31 02:51:12.4	92.540	-0.380	0.290	1.040
2020/01/31 02:51:12.5	92.520	-0.420	0.380	1.100
2020/01/31 02:51:12.6	92.500	-0.470	0.450	1.150
2020/01/31 02:51:12.7	92.480	-0.510	0.530	1.200
2020/01/31 02:51:12.8	92.460	-0.550	0.590	1.240
2020/01/31 02:51:12.9	92.440	-0.580	0.640	1.280
2020/01/31 02:51:13.0	92.430	-0.610	0.680	1.320
2020/01/31 02:51:13.1	92.410	-0.640	0.710	1.350
2020/01/31 02:51:13.2	92.400	-0.660	0.720	1.380
2020/01/31 02:51:13.3	92.390	-0.670	0.720	1.400
2020/01/31 02:51:13.4	92.390	-0.680	0.710	1.410
2020/01/31 02:51:13.5	92.380	-0.690	0.680	1.420
2020/01/31 02:51:13.6	92.380	-0.680	0.640	1.420
2020/01/31 02:51:13.7	92.380	-0.670	0.590	1.410
2020/01/31 02:51:13.8	92.380	-0.660	0.520	1.400
2020/01/31 02:51:13.9	92.390	-0.640	0.450	1.380
2020/01/31 02:51:14.0	92.390	-0.610	0.360	1.360
2020/01/31 02:51:14.1	92.400	-0.580	0.260	1.320
2020/01/31 02:51:14.2	92.400	-0.540	0.160	1.290
2020/01/31 02:51:14.3	92.410	-0.500	0.050	1.260
2020/01/31 02:51:14.4	92.420	-0.450	-0.060	1.220
2020/01/31 02:51:14.5	92.430	-0.400	-0.170	1.180
2020/01/31 02:51:14.6	92.440	-0.340	-0.280	1.140
2020/01/31 02:51:14.7	92.440	-0.290	-0.400	1.100
2020/01/31 02:51:14.8	92.450	-0.230	-0.510	1.060
2020/01/31 02:51:14.9	92.460	-0.170	-0.610	1.020
2020/01/31 02:51:15.0	92.470	-0.110	-0.710	0.980
2020/01/31 02:51:15.1	92.470	-0.060	-0.800	0.940
2020/01/31 02:51:15.2	92.480	0.000	-0.880	0.900
2020/01/31 02:51:15.3	92.480	0.060	-0.950	0.870
2020/01/31 02:51:15.4	92.480	0.110	-1.010	0.830
2020/01/31 02:51:15.5	92.480	0.160	-1.060	0.800
2020/01/31 02:51:15.6	92.480	0.200	-1.100	0.770
2020/01/31 02:51:15.7	92.480	0.250	-1.120	0.740
2020/01/31 02:51:15.8	92.480	0.280	-1.140	0.720
2020/01/31 02:51:15.9	92.470	0.320	-1.140	0.690
2020/01/31 02:51:16.0	92.470	0.350	-1.120	0.670
2020/01/31 02:51:16.1	92.470	0.370	-1.100	0.660
2020/01/31 02:51:16.2	92.470	0.390	-1.060	0.640
2020/01/31 02:51:16.3	92.460	0.400	-1.010	0.630
2020/01/31 02:51:16.4	92.460	0.410	-0.950	0.610
2020/01/31 02:51:16.5	92.450	0.410	-0.890	0.600
2020/01/31 02:51:16.6	92.450	0.410	-0.810	0.590
2020/01/31 02:51:16.7	92.450	0.400	-0.730	0.570
2020/01/31 02:51:16.8	92.450	0.390	-0.640	0.560
2020/01/31 02:51:16.9	92.450	0.380	-0.550	0.550
2020/01/31 02:51:17.0	92.450	0.360	-0.450	0.540
2020/01/31 02:51:17.1	92.450	0.340	-0.350	0.520
2020/01/31 02:51:17.2	92.450	0.310	-0.250	0.510
2020/01/31 02:51:17.3	92.450	0.280	-0.150	0.500
2020/01/31 02:51:17.4	92.460	0.250	-0.060	0.480
2020/01/31 02:51:17.5	92.460	0.220	0.040	0.470
2020/01/31 02:51:17.6	92.470	0.190	0.130	0.460
2020/01/31 02:51:17.7	92.470	0.160	0.220	0.450
2020/01/31 02:51:17.8	92.480	0.120	0.300	0.430
2020/01/31 02:51:17.9	92.490	0.090	0.370	0.420
2020/01/31 02:51:18.0	92.500	0.060	0.440	0.410
2020/01/31 02:51:18.1	92.510	0.030	0.500	0.400
2020/01/31 02:51:18.2	92.520	-0.000	0.550	0.400
2020/01/31 02:51:18.3	92.530	-0.030	0.590	0.390
2020/01/31 02:51:18.4	92.530	-0.060	0.620	0.380
2020/01/31 02:51:18.5	92.540	-0.080	0.640	0.380
2020/01/31 02:51:18.6	92.550	-0.100	0.650	0.380
2020/01/31 02:51:18.7	92.560	-0.120	0.660	0.370
2020/01/31 02:51:18.8	92.560	-0.140	0.650	0.370
2020/01/31 02:51:18.9	92.570	-0.150	0.630	0.370
2020/01/31 02:51:19.0	92.570	-0.160	0.610	0.380
2020/01/31 02:51:19.1	92.570	-0.170	0.580	0.380
2020/01/31 02:51:19.2	92.570	-0.170	0.530	0.380
2020/01/31 02:51:19.3	92.570	-0.170	0.480	0.390
2020/01/31 02:51:19.4	92.570	-0.170	0.430	0.400
2020/01/31 02:51:19.5	92.570	-0.160	0.360	0.400
2020/01/31 02:51:19.6	92.570	-0.150	0.300	0.410
2020/01/31 02:51:19.7	92.560	-0.140	0.230	0.420
2020/01/31 02:51:19.8	92.560	-0.130	0.150	0.430
2020/01/31 02:51:19.9	92.560	-0.110	0.070	0.440
2020/01/31 02:51:20.0	92.550	-0.090	-0.010	0.450
2020/01/31 02:51:20.1	92.540	-0.070	-0.090	0.450
2020/01/31 02:51:20.2	92.540	-0.040	-0.170	0.460
2020/01/31 02:51:20.3	92.540	-0.020	-0.250	0.470
2020/01/31 02:51:20.4	92.540	0.010	-0.330	0.470
2020/01/31 02:51:20.5	92.530	0.040	-0.400	0.480
2020/01/31 02:51:20.6	92.530	0.060	-0.470	0.490
2020/01/31 02:51:20.7	92.540	0.090	-0.540	0.490
2020/01/31 02:51:20.8	92.540	0.120	-0.600	0.500
2020/01/31 02:51:20.9	92.540	0.150	-0.650	0.500
2020/01/31 02:51:21.0	92.550	0.180	-0.700	0.510
2020/01/31 02:51:21.1	92.560	0.210	-0.740	0.520
2020/01/31 02:51:21.2	92.570	0.230	-0.780	0.530
2020/01/31 02:51:21.3	92.580	0.260	-0.810	0.550
2020/01/31 02:51:21.4	92.590	0.280	-0.830	0.560
2020/01/31 02:51:21.5	92.590	0.300	-0.850	0.580
2020/01/31 02:51:21.6	92.600	0.320	-0.860	0.600
2020/01/31 02:51:21.7	92.610	0.330	-0.860	0.630
2020/01/31 02:51:21.8	92.620	0.340	-0.860	0.650
2020/01/31 02:51:21.9	92.630	0.350	-0.850	0.680
2020/01/31 02:51:22.0	92.640	0.360	-0.830	0.710
2020/01/31 02:51:22.1	92.650	0.360	-0.810	0.740
2020/01/31 02:51:22.2	92.660	0.350	-0.780	0.770
2020/01/31 02:51:22.3	92.660	0.350	-0.750	0.810
2020/01/31 02:51:22.4	92.670	0.340	-0.710	0.840
2020/01/31 02:51:22.5	92.680	0.320	-0.670	0.880
2020/01/31 02:51:22.6	92.680	0.300	-0.630	0.910
2020/01/31 02:51:22.7	92.690	0.280	-0.580	0.950
2020/01/31 02:51:22.8	92.690	0.260	-0.540	0.980
2020/01/31 02:51:22.9	92.690	0.230	-0.490	1.020
2020/01/31 02:51:23.0	92.690	0.200	-0.440	1.050
2020/01/31 02:51:23.1	92.690	0.170	-0.380	1.080
2020/01/31 02:51:23.2	92.690	0.140	-0.330	1.110
2020/01/31 02:51:23.3	92.680	0.100	-0.290	1.130
2020/01/31 02:51:23.4	92.670	0.070	-0.240	1.150
2020/01/31 02:51:23.5	92.660	0.030	-0.200	1.170
2020/01/31 02:51:23.6	92.650	-0.010	-0.160	1.190
2020/01/31 02:51:23.7	92.640	-0.040	-0.120	1.200
2020/01/31 02:51:23.8	92.620	-0.070	-0.090	1.200
2020/01/31 02:51:23.9	92.600	-0.110	-0.050	1.200
2020/01/31 02:51:24.0	92.590	-0.140	-0.030	1.200
2020/01/31 02:51:24.1	92.570	-0.170	-0.000	1.190
2020/01/31 02:51:24.2	92.550	-0.190	0.020	1.190
2020/01/31 02:51:24.3	92.530	-0.220	0.040	1.180
2020/01/31 02:51:24.4	92.510	-0.240	0.050	1.160
2020/01/31 02:51:24.5	92.490	-0.260	0.060	1.150
2020/01/31 02:51:24.6	92.470	-0.270	0.070	1.130
2020/01/31 02:51:24.7	92.450	-0.280	0.070	1.110
2020/01/31 02:51:24.8	92.440	-0.290	0.070	1.090
2020/01/31 02:51:24.9	92.420	-0.290	0.070	1.070
2020/01/31 02:51:25.0	92.410	-0.290	0.060	1.050
2020/01/31 02:51:25.1	92.390	-0.290	0.050	1.020
2020/01/31 02:51:25.2	92.380	-0.290	0.040	1.000
2020/01/31 02:51:25.3	92.370	-0.280	0.030	0.980
2020/01/31 02:51:25.4	92.360	-0.260	0.020	0.950
2020/01/31 02:51:25.5	92.360	-0.250	-0.000	0.930
2020/01/31 02:51:25.6	92.350	-0.230	-0.020	0.910
2020/01/31 02:51:25.7	92.350	-0.210	-0.040	0.890
2020/01/31 02:51:25.8	92.350	-0.190	-0.060	0.870
2020/01/31 02:51:25.9	92.360	-0.160	-0.090	0.850
2020/01/31 02:51:26.0	92.360	-0.140	-0.110	0.830
2020/01/31 02:51:26.1	92.360	-0.110	-0.130	0.810
2020/01/31 02:51:26.2	92.370	-0.080	-0.160	0.790
2020/01/31 02:51:26.3	92.380	-0.060	-0.180	0.770
2020/01/31 02:51:26.4	92.390	-0.030	-0.200	0.750
2020/01/31 02:51:26.5	92.400	-0.000	-0.230	0.730
2020/01/31 02:51:26.6	92.410	0.020	-0.250	0.720
2020/01/31 02:51:26.7	92.430	0.040	-0.270	0.700
2020/01/31 02:51:26.8	92.440	0.070	-0.280	0.680
2020/01/31 02:51:26.9	92.450	0.090	-0.300	0.660
2020/01/31 02:51:27.0	92.470	0.100	-0.310	0.640
2020/01/31 02:51:27.1	92.480	0.120	-0.330	0.610
2020/01/31 02:51:27.2	92.500	0.130	-0.340	0.590
2020/01/31 02:51:27.3	92.510	0.140	-0.340	0.570
2020/01/31 02:51:27.4	92.520	0.150	-0.350	0.550
2020/01/31 02:51:27.5	92.540	0.150	-0.350	0.520
2020/01/31 02:51:27.6	92.550	0.150	-0.340	0.500
2020/01/31 02:51:27.7	92.560	0.150	-0.340	0.470
2020/01/31 02:51:27.8	92.570	0.150	-0.330	0.450
2020/01/31 02:51:27.9	92.580	0.140	-0.320	0.430
2020/01/31 02:51:28.0	92.590	0.130	-0.300	0.400
2020/01/31 02:51:28.1	92.590	0.120	-0.280	0.380
2020/01/31 02:51:28.2	92.590	0.100	-0.260	0.360
2020/01/31 02:51:28.3	92.600	0.090	-0.240	0.340
2020/01/31 02:51:28.4	92.600	0.070	-0.210	0.320
2020/01/31 02:51:28.5	92.600	0.040	-0.190	0.310
2020/01/31 02:51:28.6	92.600	0.020	-0.160	0.290
2020/01/31 02:51:28.7	92.600	-0.000	-0.130	0.280
2020/01/31 02:51:28.8	92.610	-0.030	-0.090	0.270
2020/01/31 02:51:28.9	92.610	-0.050	-0.060	0.260
2020/01/31 02:51:29.0	92.610	-0.080	-0.030	0.260
2020/01/31 02:51:29.1	92.610	-0.110	0.000	0.250
2020/01/31 02:51:29.2	92.620	-0.130	0.030	0.250
2020/01/31 02:51:29.3	92.620	-0.160	0.060	0.250
2020/01/31 02:51:29.4	92.630	-0.180	0.090	0.260
2020/01/31 02:51:29.5	92.640	-0.210	0.120	0.270
2020/01/31 02:51:29.6	92.650	-0.230	0.140	0.280
2020/01/31 02:51:29.7	92.660	-0.250	0.160	0.290
2020/01/31 02:51:29.8	92.680	-0.270	0.180	0.310
2020/01/31 02:51:29.9	92.690	-0.290	0.190	0.330
2020/01/31 02:51:30.0	92.710	-0.300	0.200	0.360
2020/01/31 02:51:30.1	92.720	-0.320	0.200	0.380
2020/01/31 02:51:30.2	92.740	-0.330	0.200	0.410
2020/01/31 02:51:30.3	92.760	-0.330	0.190	0.440
2020/01/31 02:51:30.4	92.780	-0.340	0.180	0.480
2020/01/31 02:51:30.5	92.800	-0.340	0.160	0.510
2020/01/31 02:51:30.6	92.820	-0.340	0.130	0.550
2020/01/31 02:51:30.7	92.830	-0.330	0.100	0.580
2020/01/31 02:51:30.8	92.850	-0.330	0.070	0.620
2020/01/31 02:51:30.9	92.860	-0.320	0.030	0.660
2020/01/31 02:51:31.0	92.870	-0.310	-0.010	0.690
2020/01/31 02:51:31.1	92.880	-0.290	-0.070	0.720
2020/01/31 02:51:31.2	92.890	-0.270	-0.120	0.740
2020/01/31 02:51:31.3	92.900	-0.260	-0.170	0.770
2020/01/31 02:51:31.4	92.910	-0.240	-0.230	0.790
2020/01/31 02:51:31.5	92.910	-0.210	-0.280	0.800
2020/01/31 02:51:31.6	92.910	-0.190	-0.340	0.820
2020/01/31 02:51:31.7	92.910	-0.170	-0.400	0.820
2020/01/31 02:51:31.8	92.910	-0.140	-0.450	0.830
2020/01/31 02:51:31.9	92.910	-0.120	-0.510	0.830
2020/01/31 02:51:32.0	92.900	-0.090	-0.560	0.830
2020/01/31 02:51:32.1	92.890	-0.060	-0.610	0.820
2020/01/31 02:51:32.2	92.880	-0.040	-0.650	0.820
2020/01/31 02:51:32.3	92.870	-0.010	-0.690	0.810
2020/01/31 02:51:32.4	92.860	0.020	-0.730	0.810
2020/01/31 02:51:32.5	92.850	0.050	-0.760	0.800
2020/01/31 02:51:32.6	92.840	0.070	-0.780	0.800
2020/01/31 02:51:32.7	92.830	0.100	-0.800	0.800
2020/01/31 02:51:32.8	92.810	0.120	-0.810	0.800
2020/01/31 02:51:32.9	92.800	0.150	-0.820	0.800
2020/01/31 02:51:33.0	92.780	0.170	-0.810	0.810
2020/01/31 02:51:33.1	92.770	0.190	-0.810	0.820
2020/01/31 02:51:33.2	92.760	0.210	-0.800	0.820
2020/01/31 02:51:33.3	92.740	0.230	-0.780	0.830
2020/01/31 02:51:33.4	92.730	0.250	-0.760	0.850
2020/01/31 02:51:33.5	92.720	0.270	-0.730	0.860
2020/01/31 02:51:33.6	92.710	0.280	-0.700	0.870
2020/01/31 02:51:33.7	92.700	0.300	-0.670	0.890
2020/01/31 02:51:33.8	92.690	0.310	-0.630	0.900
2020/01/31 02:51:33.9	92.680	0.320	-0.590	0.920
2020/01/31 02:51:34.0	92.670	0.330	-0.550	0.930
2020/01/31 02:51:34.1	92.670	0.340	-0.510	0.940
2020/01/31 02:51:34.2	92.660	0.340	-0.460	0.950
2020/01/31 02:51:34.3	92.660	0.350	-0.420	0.960
2020/01/31 02:51:34.4	92.660	0.350	-0.380	0.960
2020/01/31 02:51:34.5	92.660	0.360	-0.340	0.970
2020/01/31 02:51:34.6	92.660	0.360	-0.300	0.960
2020/01/31 02:51:34.7	92.660	0.360	-0.270	0.960
2020/01/31 02:51:34.8	92.660	0.360	-0.240	0.950
2020/01/31 02:51:34.9	92.670	0.360	-0.210	0.930
2020/01/31 02:51:35.0	92.680	0.360	-0.180	0.910
2020/01/31 02:51:35.1	92.690	0.350	-0.150	0.880
2020/01/31 02:51:35.2	92.700	0.350	-0.130	0.850
2020/01/31 02:51:35.3	92.710	0.340	-0.120	0.820
2020/01/31 02:51:35.4	92.730	0.340	-0.100	0.780
2020/01/31 02:51:35.5	92.740	0.330	-0.090	0.740
2020/01/31 02:51:35.6	92.760	0.320	-0.080	0.690
2020/01/31 02:51:35.7	92.780	0.310	-0.080	0.650
2020/01/31 02:51:35.8	92.790	0.300	-0.070	0.600
2020/01/31 02:51:35.9	92.810	0.290	-0.070	0.560
2020/01/31 02:51:36.0	92.830	0.280	-0.070	0.520
2020/01/31 02:51:36.1	92.850	0.260	-0.070	0.470
2020/01/31 02:51:36.2	92.860	0.250	-0.060	0.430
2020/01/31 02:51:36.3	92.880	0.230	-0.060	0.390
2020/01/31 02:51:36.4	92.900	0.210	-0.050	0.360
2020/01/31 02:51:36.5	92.910	0.190	-0.050	0.330
2020/01/31 02:51:36.6	92.920	0.170	-0.040	0.300
2020/01/31 02:51:36.7	92.930	0.140	-0.030	0.280
2020/01/31 02:51:36.8	92.940	0.120	-0.020	0.270
2020/01/31 02:51:36.9	92.950	0.090	-0.010	0.260
2020/01/31 02:51:37.0	92.960	0.060	0.010	0.250
2020/01/31 02:51:37.1	92.960	0.040	0.030	0.250
2020/01/31 02:51:37.2	92.970	0.010	0.050	0.260
2020/01/31 02:51:37.3	92.970	-0.020	0.060	0.270
2020/01/31 02:51:37.4	92.970	-0.050	0.080	0.280
2020/01/31 02:51:37.5	92.970	-0.090	0.100	0.300
2020/01/31 02:51:37.6	92.970	-0.120	0.120	0.320
2020/01/31 02:51:37.7	92.970	-0.150	0.140	0.350
2020/01/31 02:51:37.8	92.970	-0.180	0.160	0.370
2020/01/31 02:51:37.9	92.960	-0.210	0.180	0.400
2020/01/31 02:51:38.0	92.960	-0.250	0.200	0.430
2020/01/31 02:51:38.1	92.960	-0.280	0.210	0.460
2020/01/31 02:51:38.2	92.950	-0.300	0.220	0.490
2020/01/31 02:51:38.3	92.950	-0.330	0.230	0.510
2020/01/31 02:51:38.4	92.950	-0.360	0.230	0.540
2020/01/31 02:51:38.5	92.950	-0.380	0.240	0.570
2020/01/31 02:51:38.6	92.950	-0.400	0.230	0.590
2020/01/31 02:51:38.7	92.950	-0.420	0.230	0.610
2020/01/31 02:51:38.8	92.950	-0.440	0.210	0.630
2020/01/31 02:51:38.9	92.950	-0.450	0.200	0.650
2020/01/31 02:51:39.0	92.950	-0.470	0.180	0.670
2020/01/31 02:51:39.1	92.950	-0.470	0.150	0.680
2020/01/31 02:51:39.2	92.950	-0.480	0.120	0.700
2020/01/31 02:51:39.3	92.950	-0.480	0.090	0.710
2020/01/31 02:51:39.4	92.950	-0.480	0.050	0.730
2020/01/31 02:51:39.5	92.960	-0.470	0.010	0.740
2020/01/31 02:51:39.6	92.960	-0.460	-0.030	0.750
2020/01/31 02:51:39.7	92.960	-0.450	-0.080	0.750
2020/01/31 02:51:39.8	92.960	-0.440	-0.130	0.760
2020/01/31 02:51:39.9	92.970	-0.420	-0.180	0.770
2020/01/31 02:51:40.0	92.970	-0.400	-0.230	0.770
2020/01/31 02:51:40.1	92.970	-0.370	-0.290	0.770
2020/01/31 02:51:40.2	92.970	-0.350	-0.340	0.770
2020/01/31 02:51:40.3	92.970	-0.320	-0.400	0.770
2020/01/31 02:51:40.4	92.970	-0.290	-0.450	0.770
2020/01/31 02:51:40.5	92.970	-0.250	-0.510	0.770
2020/01/31 02:51:40.6	92.970	-0.220	-0.560	0.770
2020/01/31 02:51:40.7	92.960	-0.190	-0.610	0.770
2020/01/31 02:51:40.8	92.960	-0.150	-0.660	0.760
2020/01/31 02:51:40.9	92.950	-0.120	-0.700	0.760
2020/01/31 02:51:41.0	92.950	-0.080	-0.740	0.760
2020/01/31 02:51:41.1	92.940	-0.040	-0.780	0.750
2020/01/31 02:51:41.2	92.940	-0.010	-0.810	0.750
2020/01/31 02:51:41.3	92.930	0.030	-0.840	0.750
2020/01/31 02:51:41.4	92.920	0.060	-0.860	0.740
2020/01/31 02:51:41.5	92.920	0.090	-0.880	0.740
2020/01/31 02:51:41.6	92.910	0.120	-0.890	0.740
2020/01/31 02:51:41.7	92.910	0.150	-0.890	0.730
2020/01/31 02:51:41.8	92.900	0.180	-0.890	0.730
2020/01/31 02:51:41.9	92.900	0.200	-0.880	0.720
2020/01/31 02:51:42.0	92.890	0.220	-0.870	0.720
2020/01/31 02:51:42.1	92.890	0.240	-0.850	0.710
2020/01/31 02:51:42.2	92.890	0.250	-0.820	0.700
2020/01/31 02:51:42.3	92.890	0.270	-0.790	0.700
2020/01/31 02:51:42.4	92.890	0.270	-0.750	0.690
2020/01/31 02:51:42.5	92.890	0.280	-0.700	0.680
2020/01/31 02:51:42.6	92.890	0.280	-0.650	0.670
2020/01/31 02:51:42.7	92.900	0.280	-0.590	0.660
2020/01/31 02:51:42.8	92.910	0.270	-0.540	0.650
2020/01/31 02:51:42.9	92.910	0.260	-0.470	0.640
2020/01/31 02:51:43.0	92.920	0.250	-0.410	0.630
2020/01/31 02:51:43.1	92.930	0.230	-0.340	0.610
2020/01/31 02:51:43.2	92.950	0.210	-0.280	0.600
2020/01/31 02:51:43.3	92.960	0.190	-0.210	0.590
2020/01/31 02:51:43.4	92.970	0.160	-0.140	0.580
2020/01/31 02:51:43.5	92.990	0.130	-0.070	0.570
2020/01/31 02:51:43.6	93.000	0.100	-0.010	0.550
2020/01/31 02:51:43.7	93.010	0.070	0.060	0.540
2020/01/31 02:51:43.8	93.030	0.040	0.120	0.530
2020/01/31 02:51:43.9	93.040	0.000	0.170	0.520
2020/01/31 02:51:44.0	93.050	-0.030	0.220	0.510
2020/01/31 02:51:44.1	93.070	-0.060	0.270	0.500
2020/01/31 02:51:44.2	93.080	-0.100	0.310	0.490
2020/01/31 02:51:44.3	93.090	-0.130	0.350	0.480
2020/01/31 02:51:44.4	93.100	-0.160	0.380	0.470
2020/01/31 02:51:44.5	93.110	-0.190	0.400	0.470
2020/01/31 02:51:44.6	93.110	-0.220	0.410	0.460
2020/01/31 02:51:44.7	93.120	-0.240	0.420	0.460
2020/01/31 02:51:44.8	93.130	-0.260	0.420	0.450
2020/01/31 02:51:44.9	93.140	-0.280	0.410	0.440
2020/01/31 02:51:45.0	93.150	-0.290	0.400	0.430
2020/01/31 02:51:45.1	93.150	-0.300	0.380	0.420
2020/01/31 02:51:45.2	93.160	-0.310	0.360	0.410
2020/01/31 02:51:45.3	93.170	-0.310	0.330	0.400
2020/01/31 02:51:45.4	93.180	-0.310	0.300	0.390
2020/01/31 02:51:45.5	93.180	-0.310	0.260	0.380
2020/01/31 02:51:45.6	93.190	-0.300	0.230	0.370
2020/01/31 02:51:45.7	93.200	-0.290	0.190	0.360
2020/01/31 02:51:45.8	93.210	-0.280	0.140	0.350
2020/01/31 02:51:45.9	93.210	-0.270	0.100	0.350
2020/01/31 02:51:46.0	93.220	-0.250	0.060	0.340
2020/01/31 02:51:46.1	93.220	-0.230	0.020	0.340
2020/01/31 02:51:46.2	93.230	-0.210	-0.030	0.340
2020/01/31 02:51:46.3	93.230	-0.190	-0.070	0.340
2020/01/31 02:51:46.4	93.230	-0.160	-0.110	0.350
2020/01/31 02:51:46.5	93.230	-0.140	-0.140	0.360
2020/01/31 02:51:46.6	93.230	-0.110	-0.180	0.370
2020/01/31 02:51:46.7	93.230	-0.090	-0.210	0.380
2020/01/31 02:51:46.8	93.220	-0.060	-0.240	0.400
2020/01/31 02:51:46.9	93.220	-0.040	-0.270	0.420
2020/01/31 02:51:47.0	93.210	-0.020	-0.300	0.440
2020/01/31 02:51:47.1	93.200	0.010	-0.330	0.460
2020/01/31 02:51:47.2	93.200	0.030	-0.350	0.480
2020/01/31 02:51:47.3	93.190	0.050	-0.370	0.510
2020/01/31 02:51:47.4	93.180	0.060	-0.390	0.530
2020/01/31 02:51:47.5	93.180	0.080	-0.400	0.560
2020/01/31 02:51:47.6	93.170	0.100	-0.420	0.580
2020/01/31 02:51:47.7	93.160	0.110	-0.430	0.600
2020/01/31 02:51:47.8	93.160	0.120	-0.440	0.620
2020/01/31 02:51:47.9	93.150	0.130	-0.460	0.640
2020/01/31 02:51:48.0	93.140	0.140	-0.460	0.650
2020/01/31 02:51:48.1	93.140	0.150	-0.470	0.660
2020/01/31 02:51:48.2	93.130	0.160	-0.480	0.680
2020/01/31 02:51:48.3	93.120	0.160	-0.490	0.690
2020/01/31 02:51:48.4	93.110	0.160	-0.490	0.690
2020/01/31 02:51:48.5	93.100	0.170	-0.500	0.700
2020/01/31 02:51:48.6	93.100	0.170	-0.500	0.700
2020/01/31 02:51:48.7	93.090	0.170	-0.510	0.710
2020/01/31 02:51:48.8	93.080	0.170	-0.510	0.710
2020/01/31 02:51:48.9	93.060	0.180	-0.510	0.710
2020/01/31 02:51:49.0	93.050	0.180	-0.510	0.710
2020/01/31 02:51:49.1	93.040	0.180	-0.510	0.700
2020/01/31 02:51:49.2	93.030	0.180	-0.510	0.700
2020/01/31 02:51:49.3	93.010	0.180	-0.500	0.700
2020/01/31 02:51:49.4	93.000	0.180	-0.500	0.700
2020/01/31 02:51:49.5	92.990	0.180	-0.490	0.700
2020/01/31 02:51:49.6	92.970	0.180	-0.480	0.700
2020/01/31 02:51:49.7	92.960	0.170	-0.470	0.700
2020/01/31 02:51:49.8	92.940	0.170	-0.460	0.700
2020/01/31 02:51:49.9	92.930	0.170	-0.440	0.700
2020/01/31 02:51:50.0	92.920	0.170	-0.430	0.700
2020/01/31 02:51:50.1	92.910	0.170	-0.410	0.700
2020/01/31 02:51:50.2	92.900	0.160	-0.390	0.700
2020/01/31 02:51:50.3	92.890	0.160	-0.370	0.700
2020/01/31 02:51:50.4	92.880	0.160	-0.350	0.700
2020/01/31 02:51:50.5	92.870	0.150	-0.340	0.700
2020/01/31 02:51:50.6	92.860	0.150	-0.320	0.710
2020/01/31 02:51:50.7	92.860	0.140	-0.300	0.710
2020/01/31 02:51:50.8	92.850	0.140	-0.280	0.710
2020/01/31 02:51:50.9	92.850	0.140	-0.260	0.710
2020/01/31 02:51:51.0	92.850	0.130	-0.250	0.720
2020/01/31 02:51:51.1	92.850	0.130	-0.230	0.720
2020/01/31 02:51:51.2	92.850	0.120	-0.220	0.720
2020/01/31 02:51:51.3	92.850	0.120	-0.210	0.720
2020/01/31 02:51:51.4	92.860	0.110	-0.210	0.720
2020/01/31 02:51:51.5	92.870	0.110	-0.200	0.720
2020/01/31 02:51:51.6	92.880	0.110	-0.200	0.720
2020/01/31 02:51:51.7	92.890	0.110	-0.210	0.720
2020/01/31 02:51:51.8	92.900	0.110	-0.210	0.720
2020/01/31 02:51:51.9	92.910	0.110	-0.220	0.720
2020/01/31 02:51:52.0	92.930	0.110	-0.230	0.710
2020/01/31 02:51:52.1	92.940	0.110	-0.250	0.710
2020/01/31 02:51:52.2	92.960	0.110	-0.260	0.700
2020/01/31 02:51:52.3	92.980	0.110	-0.270	0.690
2020/01/31 02:51:52.4	93.000	0.120	-0.290	0.690
2020/01/31 02:51:52.5	93.020	0.120	-0.310	0.680
2020/01/31 02:51:52.6	93.040	0.130	-0.320	0.660
2020/01/31 02:51:52.7	93.060	0.130	-0.330	0.650
2020/01/31 02:51:52.8	93.080	0.140	-0.340	0.640
2020/01/31 02:51:52.9	93.100	0.140	-0.350	0.630
2020/01/31 02:51:53.0	93.120	0.140	-0.360	0.620
2020/01/31 02:51:53.1	93.140	0.150	-0.360	0.600
2020/01/31 02:51:53.2	93.160	0.150	-0.360	0.590
2020/01/31 02:51:53.3	93.170	0.150	-0.350	0.590
2020/01/31 02:51:53.4	93.190	0.140	-0.340	0.580
2020/01/31 02:51:53.5	93.200	0.140	-0.320	0.580
2020/01/31 02:51:53.6	93.210	0.130	-0.300	0.580
2020/01/31 02:51:53.7	93.220	0.130	-0.280	0.580
2020/01/31 02:51:53.8	93.230	0.120	-0.250	0.580
2020/01/31 02:51:53.9	93.230	0.100	-0.220	0.590
2020/01/31 02:51:54.0	93.230	0.090	-0.180	0.600
2020/01/31 02:51:54.1	93.230	0.070	-0.150	0.610
2020/01/31 02:51:54.2	93.220	0.050	-0.110	0.630
2020/01/31 02:51:54.3	93.220	0.030	-0.070	0.650
2020/01/31 02:51:54.4	93.210	0.010	-0.030	0.670
2020/01/31 02:51:54.5	93.200	-0.020	0.010	0.690
2020/01/31 02:51:54.6	93.180	-0.050	0.050	0.720
2020/01/31 02:51:54.7	93.170	-0.070	0.090	0.740
2020/01/31 02:51:54.8	93.150	-0.100	0.120	0.770
2020/01/31 02:51:54.9	93.140	-0.130	0.160	0.790
2020/01/31 02:51:55.0	93.120	-0.160	0.190	0.820
2020/01/31 02:51:55.1	93.100	-0.190	0.220	0.840
2020/01/31 02:51:55.2	93.080	-0.220	0.240	0.860
2020/01/31 02:51:55.3	93.060	-0.250	0.260	0.890
2020/01/31 02:51:55.4	93.040	-0.280	0.270	0.910
2020/01/31 02:51:55.5	93.020	-0.300	0.280	0.920
2020/01/31 02:51:55.6	93.000	-0.330	0.280	0.940
2020/01/31 02:51:55.7	92.980	-0.350	0.280	0.950
2020/01/31 02:51:55.8	92.970	-0.370	0.280	0.970
2020/01/31 02:51:55.9	92.950	-0.390	0.260	0.980
2020/01/31 02:51:56.0	92.940	-0.410	0.250	0.980
2020/01/31 02:51:56.1	92.930	-0.420	0.230	0.980
2020/01/31 02:51:56.2	92.920	-0.430	0.200	0.990
2020/01/31 02:51:56.3	92.910	-0.430	0.170	0.990
2020/01/31 02:51:56.4	92.900	-0.440	0.140	0.980
2020/01/31 02:51:56.5	92.900	-0.440	0.100	0.980
2020/01/31 02:51:56.6	92.890	-0.430	0.060	0.970
2020/01/31 02:51:56.7	92.900	-0.420	0.010	0.960
2020/01/31 02:51:56.8	92.900	-0.410	-0.030	0.950
2020/01/31 02:51:56.9	92.910	-0.400	-0.080	0.930
2020/01/31 02:51:57.0	92.920	-0.390	-0.130	0.910
2020/01/31 02:51:57.1	92.930	-0.370	-0.180	0.890
2020/01/31 02:51:57.2	92.950	-0.350	-0.230	0.860
2020/01/31 02:51:57.3	92.970	-0.320	-0.270	0.840
2020/01/31 02:51:57.4	92.990	-0.300	-0.320	0.810
2020/01/31 02:51:57.5	93.010	-0.270	-0.370	0.780
2020/01/31 02:51:57.6	93.040	-0.250	-0.410	0.750
2020/01/31 02:51:57.7	93.070	-0.220	-0.450	0.720
2020/01/31 02:51:57.8	93.100	-0.190	-0.490	0.690
2020/01/31 02:51:57.9	93.120	-0.160	-0.530	0.660
2020/01/31 02:51:58.0	93.150	-0.130	-0.560	0.630
2020/01/31 02:51:58.1	93.180	-0.100	-0.590	0.600
2020/01/31 02:51:58.2	93.210	-0.070	-0.620	0.580
2020/01/31 02:51:58.3	93.230	-0.040	-0.640	0.560
2020/01/31 02:51:58.4	93.260	-0.020	-0.660	0.550
2020/01/31 02:51:58.5	93.280	0.010	-0.670	0.540
2020/01/31 02:51:58.6	93.290	0.040	-0.680	0.530
2020/01/31 02:51:58.7	93.310	0.060	-0.690	0.530
2020/01/31 02:51:58.8	93.320	0.090	-0.690	0.530
2020/01/31 02:51:58.9	93.320	0.110	-0.690	0.540
2020/01/31 02:51:59.0	93.320	0.130	-0.680	0.550
2020/01/31 02:51:59.1	93.320	0.150	-0.670	0.560
2020/01/31 02:51:59.2	93.320	0.160	-0.660	0.580
2020/01/31 02:51:59.3	93.310	0.180	-0.640	0.600
2020/01/31 02:51:59.4	93.300	0.190	-0.610	0.620
2020/01/31 02:51:59.5	93.280	0.200	-0.590	0.640
2020/01/31 02:51:59.6	93.270	0.210	-0.560	0.670
2020/01/31 02:51:59.7	93.250	0.210	-0.530	0.690
2020/01/31 02:51:59.8	93.230	0.210	-0.490	0.720
2020/01/31 02:51:59.9	93.210	0.210	-0.460	0.740
2020/01/31 02:52:00.0	93.180	0.210	-0.410	0.770
2020/01/31 02:52:00.1	93.160	0.210	-0.370	0.790
2020/01/31 02:52:00.2	93.130	0.200	-0.320	0.820
2020/01/31 02:52:00.3	93.110	0.190	-0.280	0.840
2020/01/31 02:52:00.4	93.080	0.180	-0.230	0.860
2020/01/31 02:52:00.5	93.050	0.160	-0.180	0.890
2020/01/31 02:52:00.6	93.020	0.150	-0.130	0.910
2020/01/31 02:52:00.7	92.990	0.130	-0.080	0.930
2020/01/31 02:52:00.8	92.960	0.110	-0.040	0.940
2020/01/31 02:52:00.9	92.930	0.090	0.010	0.960
2020/01/31 02:52:01.0	92.900	0.070	0.050	0.980
2020/01/31 02:52:01.1	92.870	0.050	0.100	0.990
2020/01/31 02:52:01.2	92.840	0.030	0.140	1.000
2020/01/31 02:52:01.3	92.810	0.000	0.170	1.010
2020/01/31 02:52:01.4	92.790	-0.020	0.200	1.020
2020/01/31 02:52:01.5	92.760	-0.040	0.230	1.020
2020/01/31 02:52:01.6	92.740	-0.060	0.250	1.020
2020/01/31 02:52:01.7	92.720	-0.080	0.260	1.020
2020/01/31 02:52:01.8	92.710	-0.090	0.270	1.020
2020/01/31 02:52:01.9	92.690	-0.110	0.280	1.000
2020/01/31 02:52:02.0	92.680	-0.120	0.270	0.990
2020/01/31 02:52:02.1	92.670	-0.130	0.260	0.970
2020/01/31 02:52:02.2	92.660	-0.140	0.250	0.950
2020/01/31 02:52:02.3	92.660	-0.140	0.220	0.920
2020/01/31 02:52:02.4	92.660	-0.140	0.190	0.890
2020/01/31 02:52:02.5	92.660	-0.140	0.160	0.850
2020/01/31 02:52:02.6	92.670	-0.130	0.110	0.800
2020/01/31 02:52:02.7	92.680	-0.120	0.070	0.760
2020/01/31 02:52:02.8	92.690	-0.110	0.020	0.710
2020/01/31 02:52:02.9	92.700	-0.100	-0.040	0.660
2020/01/31 02:52:03.0	92.720	-0.080	-0.100	0.610
2020/01/31 02:52:03.1	92.730	-0.060	-0.160	0.550
2020/01/31 02:52:03.2	92.750	-0.030	-0.220	0.490
2020/01/31 02:52:03.3	92.770	-0.010	-0.280	0.440
2020/01/31 02:52:03.4	92.800	0.020	-0.340	0.390
2020/01/31 02:52:03.5	92.820	0.040	-0.400	0.340
2020/01/31 02:52:03.6	92.850	0.070	-0.450	0.290
2020/01/31 02:52:03.7	92.870	0.100	-0.500	0.240
2020/01/31 02:52:03.8	92.900	0.120	-0.550	0.200
2020/01/31 02:52:03.9	92.920	0.150	-0.590	0.170
2020/01/31 02:52:04.0	92.950	0.170	-0.630	0.140
2020/01/31 02:52:04.1	92.970	0.190	-0.660	0.110
2020/01/31 02:52:04.2	93.000	0.220	-0.690	0.090
2020/01/31 02:52:04.3	93.020	0.240	-0.700	0.080
2020/01/31 02:52:04.4	93.040	0.250	-0.720	0.070
2020/01/31 02:52:04.5	93.060	0.270	-0.720	0.070
2020/01/31 02:52:04.6	93.070	0.280	-0.720	0.070
2020/01/31 02:52:04.7	93.090	0.280	-0.720	0.080
2020/01/31 02:52:04.8	93.100	0.290	-0.710	0.100
2020/01/31 02:52:04.9	93.110	0.290	-0.690	0.120
2020/01/31 02:52:05.0	93.110	0.290	-0.670	0.140
2020/01/31 02:52:05.1	93.120	0.290	-0.640	0.170
2020/01/31 02:52:05.2	93.120	0.280	-0.610	0.190
2020/01/31 02:52:05.3	93.120	0.270	-0.570	0.230
2020/01/31 02:52:05.4	93.110	0.260	-0.530	0.260
2020/01/31 02:52:05.5	93.110	0.240	-0.490	0.290
2020/01/31 02:52:05.6	93.100	0.230	-0.450	0.330
2020/01/31 02:52:05.7	93.080	0.210	-0.400	0.370
2020/01/31 02:52:05.8	93.070	0.190	-0.360	0.400
2020/01/31 02:52:05.9	93.050	0.170	-0.310	0.440
2020/01/31 02:52:06.0	93.040	0.140	-0.260	0.480
2020/01/31 02:52:06.1	93.020	0.120	-0.210	0.510
2020/01/31 02:52:06.2	93.000	0.100	-0.160	0.550
2020/01/31 02:52:06.3	92.980	0.070	-0.120	0.580
2020/01/31 02:52:06.4	92.960	0.050	-0.070	0.620
2020/01/31 02:52:06.5	92.940	0.030	-0.030	0.650
2020/01/31 02:52:06.6	92.920	0.000	0.010	0.690
2020/01/31 02:52:06.7	92.890	-0.020	0.050	0.720
2020/01/31 02:52:06.8	92.870	-0.040	0.080	0.750
2020/01/31 02:52:06.9	92.850	-0.060	0.110	0.780
2020/01/31 02:52:07.0	92.830	-0.070	0.130	0.810
2020/01/31 02:52:07.1	92.810	-0.090	0.160	0.840
2020/01/31 02:52:07.2	92.790	-0.100	0.170	0.870
2020/01/31 02:52:07.3	92.770	-0.110	0.180	0.900
2020/01/31 02:52:07.4	92.760	-0.120	0.190	0.930
2020/01/31 02:52:07.5	92.740	-0.130	0.190	0.960
2020/01/31 02:52:07.6	92.720	-0.130	0.180	0.990
2020/01/31 02:52:07.7	92.710	-0.140	0.170	1.010
2020/01/31 02:52:07.8	92.690	-0.140	0.160	1.040
2020/01/31 02:52:07.9	92.680	-0.130	0.130	1.060
2020/01/31 02:52:08.0	92.670	-0.130	0.110	1.080
2020/01/31 02:52:08.1	92.650	-0.120	0.070	1.090
2020/01/31 02:52:08.2	92.640	-0.110	0.030	1.100
2020/01/31 02:52:08.3	92.630	-0.100	-0.010	1.110
2020/01/31 02:52:08.4	92.630	-0.090	-0.050	1.110
2020/01/31 02:52:08.5	92.620	-0.070	-0.100	1.110
2020/01/31 02:52:08.6	92.620	-0.060	-0.150	1.100
2020/01/31 02:52:08.7	92.620	-0.040	-0.200	1.090
2020/01/31 02:52:08.8	92.620	-0.020	-0.250	1.070
2020/01/31 02:52:08.9	92.620	-0.010	-0.300	1.050
2020/01/31 02:52:09.0	92.620	0.010	-0.350	1.020
2020/01/31 02:52:09.1	92.630	0.030	-0.400	0.990
2020/01/31 02:52:09.2	92.630	0.050	-0.440	0.960
2020/01/31 02:52:09.3	92.650	0.070	-0.490	0.930
2020/01/31 02:52:09.4	92.660	0.080	-0.530	0.900
2020/01/31 02:52:09.5	92.670	0.100	-0.560	0.870
2020/01/31 02:52:09.6	92.690	0.120	-0.600	0.840
2020/01/31 02:52:09.7	92.700	0.130	-0.620	0.810
2020/01/31 02:52:09.8	92.720	0.150	-0.640	0.780
2020/01/31 02:52:09.9	92.740	0.160	-0.660	0.760
2020/01/31 02:52:10.0	92.760	0.170	-0.670	0.730
2020/01/31 02:52:10.1	92.770	0.170	-0.670	0.710
2020/01/31 02:52:10.2	92.790	0.180	-0.670	0.690
2020/01/31 02:52:10.3	92.800	0.180	-0.650	0.680
2020/01/31 02:52:10.4	92.820	0.190	-0.630	0.670
2020/01/31 02:52:10.5	92.830	0.180	-0.610	0.670
2020/01/31 02:52:10.6	92.840	0.180	-0.580	0.670
2020/01/31 02:52:10.7	92.850	0.180	-0.540	0.680
2020/01/31 02:52:10.8	92.850	0.170	-0.500	0.680
2020/01/31 02:52:10.9	92.850	0.160	-0.450	0.700
2020/01/31 02:52:11.0	92.850	0.140	-0.400	0.710
2020/01/31 02:52:11.1	92.850	0.130	-0.340	0.740
2020/01/31 02:52:11.2	92.840	0.110	-0.290	0.750
2020/01/31 02:52:11.3	92.830	0.090	-0.230	0.780
2020/01/31 02:52:11.4	92.820	0.070	-0.170	0.800
2020/01/31 02:52:11.5	92.810	0.040	-0.100	0.820
2020/01/31 02:52:11.6	92.790	0.020	-0.040	0.840
2020/01/31 02:52:11.7	92.770	-0.010	0.020	0.870
2020/01/31 02:52:11.8	92.760	-0.040	0.080	0.890
2020/01/31 02:52:11.9	92.740	-0.070	0.130	0.910
2020/01/31 02:52:12.0	92.720	-0.100	0.180	0.930
2020/01/31 02:52:12.1	92.690	-0.130	0.240	0.940
2020/01/31 02:52:12.2	92.670	-0.150	0.280	0.950
2020/01/31 02:52:12.3	92.650	-0.180	0.320	0.970
2020/01/31 02:52:12.4	92.630	-0.210	0.360	0.990
2020/01/31 02:52:12.5	92.610	-0.240	0.390	1.000
2020/01/31 02:52:12.6	92.590	-0.260	0.410	1.010
2020/01/31 02:52:12.7	92.570	-0.290	0.430	1.020
2020/01/31 02:52:12.8	92.550	-0.310	0.440	1.040
2020/01/31 02:52:12.9	92.530	-0.330	0.440	1.050
2020/01/31 02:52:13.0	92.510	-0.350	0.440	1.060
2020/01/31 02:52:13.1	92.490	-0.360	0.420	1.070
2020/01/31 02:52:13.2	92.470	-0.380	0.410	1.070
2020/01/31 02:52:13.3	92.450	-0.390	0.380	1.080
2020/01/31 02:52:13.4	92.440	-0.390	0.350	1.080
2020/01/31 02:52:13.5	92.420	-0.400	0.320	1.080
2020/01/31 02:52:13.6	92.410	-0.400	0.280	1.070
2020/01/31 02:52:13.7	92.410	-0.400	0.230	1.070
2020/01/31 02:52:13.8	92.400	-0.390	0.180	1.060
2020/01/31 02:52:13.9	92.400	-0.390	0.120	1.040
2020/01/31 02:52:14.0	92.400	-0.380	0.060	1.020
2020/01/31 02:52:14.1	92.390	-0.360	0.000	0.990
2020/01/31 02:52:14.2	92.400	-0.350	-0.060	0.970
2020/01/31 02:52:14.3	92.410	-0.330	-0.130	0.940
2020/01/31 02:52:14.4	92.430	-0.310	-0.200	0.900
2020/01/31 02:52:14.5	92.440	-0.280	-0.270	0.860
2020/01/31 02:52:14.6	92.460	-0.260	-0.350	0.820
2020/01/31 02:52:14.7	92.490	-0.230	-0.420	0.780
2020/01/31 02:52:14.8	92.510	-0.200	-0.480	0.740
2020/01/31 02:52:14.9	92.540	-0.170	-0.550	0.700
2020/01/31 02:52:15.0	92.560	-0.130	-0.610	0.650
2020/01/31 02:52:15.1	92.590	-0.100	-0.680	0.610
2020/01/31 02:52:15.2	92.620	-0.060	-0.730	0.570
2020/01/31 02:52:15.3	92.650	-0.030	-0.780	0.540
2020/01/31 02:52:15.4	92.670	0.010	-0.830	0.510
2020/01/31 02:52:15.5	92.700	0.050	-0.860	0.480
2020/01/31 02:52:15.6	92.730	0.080	-0.890	0.460
2020/01/31 02:52:15.7	92.750	0.120	-0.910	0.450
2020/01/31 02:52:15.8	92.770	0.150	-0.930	0.440
2020/01/31 02:52:15.9	92.790	0.180	-0.940	0.430
2020/01/31 02:52:16.0	92.810	0.220	-0.940	0.430
2020/01/31 02:52:16.1	92.820	0.250	-0.930	0.430
2020/01/31 02:52:16.2	92.840	0.270	-0.920	0.440
2020/01/31 02:52:16.3	92.850	0.300	-0.900	0.460
2020/01/31 02:52:16.4	92.860	0.320	-0.870	0.480
2020/01/31 02:52:16.5	92.860	0.340	-0.840	0.500
2020/01/31 02:52:16.6	92.870	0.350	-0.800	0.530
2020/01/31 02:52:16.7	92.870	0.370	-0.760	0.560
2020/01/31 02:52:16.8	92.880	0.370	-0.710	0.580
2020/01/31 02:52:16.9	92.880	0.380	-0.660	0.610
2020/01/31 02:52:17.0	92.870	0.380	-0.610	0.640
2020/01/31 02:52:17.1	92.870	0.380	-0.540	0.670
2020/01/31 02:52:17.2	92.870	0.370	-0.480	0.700
2020/01/31 02:52:17.3	92.870	0.360	-0.420	0.730
2020/01/31 02:52:17.4	92.860	0.340	-0.360	0.750
2020/01/31 02:52:17.5	92.850	0.330	-0.300	0.780
2020/01/31 02:52:17.6	92.840	0.310	-0.230	0.800
2020/01/31 02:52:17.7	92.830	0.280	-0.170	0.820
2020/01/31 02:52:17.8	92.810	0.250	-0.110	0.840
2020/01/31 02:52:17.9	92.800	0.220	-0.050	0.860
2020/01/31 02:52:18.0	92.780	0.190	0.000	0.870
2020/01/31 02:52:18.1	92.750	0.160	0.050	0.880
2020/01/31 02:52:18.2	92.730	0.130	0.100	0.890
2020/01/31 02:52:18.3	92.700	0.090	0.140	0.910
2020/01/31 02:52:18.4	92.680	0.060	0.180	0.920
2020/01/31 02:52:18.5	92.650	0.020	0.210	0.930
2020/01/31 02:52:18.6	92.620	-0.010	0.240	0.930
2020/01/31 02:52:18.7	92.580	-0.050	0.260	0.940
2020/01/31 02:52:18.8	92.550	-0.080	0.270	0.940
2020/01/31 02:52:18.9	92.520	-0.100	0.280	0.950
2020/01/31 02:52:19.0	92.490	-0.130	0.280	0.950
2020/01/31 02:52:19.1	92.450	-0.150	0.270	0.950
2020/01/31 02:52:19.2	92.410	-0.170	0.260	0.950
2020/01/31 02:52:19.3	92.380	-0.190	0.250	0.950
2020/01/31 02:52:19.4	92.350	-0.200	0.220	0.940
2020/01/31 02:52:19.5	92.320	-0.210	0.200	0.930
2020/01/31 02:52:19.6	92.300	-0.210	0.160	0.930
2020/01/31 02:52:19.7	92.270	-0.220	0.130	0.910
2020/01/31 02:52:19.8	92.250	-0.210	0.090	0.900
2020/01/31 02:52:19.9	92.230	-0.210	0.050	0.880
2020/01/31 02:52:20.0	92.210	-0.200	0.010	0.860
2020/01/31 02:52:20.1	92.200	-0.180	-0.040	0.830
2020/01/31 02:52:20.2	92.180	-0.160	-0.090	0.810
2020/01/31 02:52:20.3	92.180	-0.150	-0.130	0.780
2020/01/31 02:52:20.4	92.170	-0.120	-0.170	0.750
2020/01/31 02:52:20.5	92.170	-0.100	-0.220	0.710
2020/01/31 02:52:20.6	92.170	-0.070	-0.250	0.670
2020/01/31 02:52:20.7	92.170	-0.050	-0.290	0.640
2020/01/31 02:52:20.8	92.170	-0.020	-0.330	0.590
2020/01/31 02:52:20.9	92.180	0.010	-0.360	0.550
2020/01/31 02:52:21.0	92.190	0.040	-0.380	0.510
2020/01/31 02:52:21.1	92.190	0.060	-0.410	0.460
2020/01/31 02:52:21.2	92.210	0.090	-0.430	0.410
2020/01/31 02:52:21.3	92.220	0.120	-0.440	0.360
2020/01/31 02:52:21.4	92.240	0.140	-0.460	0.320
2020/01/31 02:52:21.5	92.250	0.170	-0.460	0.270
2020/01/31 02:52:21.6	92.270	0.190	-0.470	0.220
2020/01/31 02:52:21.7	92.290	0.210	-0.470	0.180
2020/01/31 02:52:21.8	92.310	0.230	-0.470	0.140
2020/01/31 02:52:21.9	92.330	0.240	-0.470	0.100
2020/01/31 02:52:22.0	92.350	0.260	-0.470	0.070
2020/01/31 02:52:22.1	92.370	0.270	-0.460	0.030
2020/01/31 02:52:22.2	92.390	0.280	-0.450	0.010
2020/01/31 02:52:22.3	92.410	0.290	-0.440	-0.010
2020/01/31 02:52:22.4	92.440	0.300	-0.430	-0.020
2020/01/31 02:52:22.5	92.460	0.300	-0.420	-0.030
2020/01/31 02:52:22.6	92.480	0.310	-0.410	-0.030
2020/01/31 02:52:22.7	92.500	0.310	-0.400	-0.020
2020/01/31 02:52:22.8	92.510	0.310	-0.390	-0.010
2020/01/31 02:52:22.9	92.530	0.310	-0.380	0.020
2020/01/31 02:52:23.0	92.540	0.310	-0.370	0.040
2020/01/31 02:52:23.1	92.560	0.310	-0.360	0.080
2020/01/31 02:52:23.2	92.570	0.300	-0.350	0.120
2020/01/31 02:52:23.3	92.580	0.300	-0.340	0.160
2020/01/31 02:52:23.4	92.590	0.290	-0.330	0.210
2020/01/31 02:52:23.5	92.590	0.280	-0.320	0.260
2020/01/31 02:52:23.6	92.600	0.280	-0.310	0.320
2020/01/31 02:52:23.7	92.600	0.260	-0.300	0.380
2020/01/31 02:52:23.8	92.600	0.250	-0.290	0.440
2020/01/31 02:52:23.9	92.590	0.240	-0.280	0.510
2020/01/31 02:52:24.0	92.590	0.220	-0.260	0.570
2020/01/31 02:52:24.1	92.580	0.200	-0.250	0.630
2020/01/31 02:52:24.2	92.570	0.180	-0.230	0.690
2020/01/31 02:52:24.3	92.560	0.160	-0.210	0.750
2020/01/31 02:52:24.4	92.550	0.130	-0.190	0.800
2020/01/31 02:52:24.5	92.540	0.110	-0.160	0.850
2020/01/31 02:52:24.6	92.530	0.080	-0.140	0.900
2020/01/31 02:52:24.7	92.510	0.040	-0.110	0.950
2020/01/31 02:52:24.8	92.500	0.010	-0.080	0.990
2020/01/31 02:52:24.9	92.480	-0.020	-0.060	1.020
2020/01/31 02:52:25.0	92.470	-0.060	-0.030	1.060
2020/01/31 02:52:25.1	92.450	-0.100	0.010	1.080
2020/01/31 02:52:25.2	92.430	-0.140	0.040	1.110
2020/01/31 02:52:25.3	92.420	-0.180	0.070	1.130
2020/01/31 02:52:25.4	92.400	-0.220	0.090	1.140
2020/01/31 02:52:25.5	92.390	-0.260	0.120	1.160
2020/01/31 02:52:25.6	92.380	-0.300	0.140	1.170
2020/01/31 02:52:25.7	92.370	-0.340	0.160	1.180
2020/01/31 02:52:25.8	92.360	-0.380	0.180	1.190
2020/01/31 02:52:25.9	92.350	-0.410	0.190	1.200
2020/01/31 02:52:26.0	92.340	-0.450	0.200	1.210
2020/01/31 02:52:26.1	92.340	-0.480	0.200	1.210
2020/01/31 02:52:26.2	92.330	-0.500	0.200	1.220
2020/01/31 02:52:26.3	92.330	-0.530	0.200	1.220
2020/01/31 02:52:26.4	92.320	-0.550	0.190	1.230
2020/01/31 02:52:26.5	92.320	-0.560	0.180	1.230
2020/01/31 02:52:26.6	92.330	-0.580	0.160	1.230
2020/01/31 02:52:26.7	92.330	-0.580	0.140	1.230
2020/01/31 02:52:26.8	92.330	-0.590	0.120	1.230
2020/01/31 02:52:26.9	92.340	-0.590	0.090	1.230
2020/01/31 02:52:27.0	92.350	-0.580	0.060	1.220
2020/01/31 02:52:27.1	92.360	-0.570	0.020	1.200
2020/01/31 02:52:27.2	92.370	-0.560	-0.010	1.190
2020/01/31 02:52:27.3	92.390	-0.540	-0.050	1.170
2020/01/31 02:52:27.4	92.400	-0.520	-0.100	1.150
2020/01/31 02:52:27.5	92.420	-0.500	-0.140	1.130
2020/01/31 02:52:27.6	92.440	-0.470	-0.180	1.110
2020/01/31 02:52:27.7	92.450	-0.440	-0.230	1.090
2020/01/31 02:52:27.8	92.470	-0.410	-0.270	1.070
2020/01/31 02:52:27.9	92.480	-0.370	-0.320	1.040
2020/01/31 02:52:28.0	92.500	-0.340	-0.370	1.020
2020/01/31 02:52:28.1	92.500	-0.300	-0.410	0.990
2020/01/31 02:52:28.2	92.510	-0.260	-0.450	0.970
2020/01/31 02:52:28.3	92.520	-0.220	-0.490	0.940
2020/01/31 02:52:28.4	92.530	-0.180	-0.530	0.910
2020/01/31 02:52:28.5	92.530	-0.140	-0.570	0.890
2020/01/31 02:52:28.6	92.530	-0.100	-0.600	0.860
2020/01/31 02:52:28.7	92.540	-0.060	-0.630	0.840
2020/01/31 02:52:28.8	92.540	-0.020	-0.650	0.810
2020/01/31 02:52:28.9	92.530	0.010	-0.670	0.790
2020/01/31 02:52:29.0	92.530	0.050	-0.690	0.760
2020/01/31 02:52:29.1	92.520	0.080	-0.700	0.740
2020/01/31 02:52:29.2	92.520	0.110	-0.700	0.720
2020/01/31 02:52:29.3	92.510	0.130	-0.710	0.700
2020/01/31 02:52:29.4	92.500	0.160	-0.700	0.680
2020/01/31 02:52:29.5	92.490	0.180	-0.690	0.670
2020/01/31 02:52:29.6	92.480	0.200	-0.680	0.650
2020/01/31 02:52:29.7	92.470	0.220	-0.660	0.640
2020/01/31 02:52:29.8	92.460	0.230	-0.640	0.630
2020/01/31 02:52:29.9	92.440	0.250	-0.620	0.620
2020/01/31 02:52:30.0	92.430	0.260	-0.590	0.620
2020/01/31 02:52:30.1	92.420	0.260	-0.560	0.610
2020/01/31 02:52:30.2	92.400	0.270	-0.530	0.610
2020/01/31 02:52:30.3	92.380	0.270	-0.490	0.600
2020/01/31 02:52:30.4	92.360	0.280	-0.460	0.600
2020/01/31 02:52:30.5	92.340	0.280	-0.420	0.600
2020/01/31 02:52:30.6	92.320	0.270	-0.390	0.610
2020/01/31 02:52:30.7	92.300	0.270	-0.350	0.610
2020/01/31 02:52:30.8	92.270	0.270	-0.310	0.610
2020/01/31 02:52:30.9	92.250	0.260	-0.280	0.620
2020/01/31 02:52:31.0	92.230	0.260	-0.240	0.620
2020/01/31 02:52:31.1	92.200	0.250	-0.210	0.620
2020/01/31 02:52:31.2	92.180	0.240	-0.180	0.620
2020/01/31 02:52:31.3	92.160	0.230	-0.150	0.620
2020/01/31 02:52:31.4	92.150	0.220	-0.120	0.620
2020/01/31 02:52:31.5	92.130	0.210	-0.090	0.620
2020/01/31 02:52:31.6	92.120	0.200	-0.060	0.620
2020/01/31 02:52:31.7	92.100	0.190	-0.040	0.610
2020/01/31 02:52:31.8	92.090	0.180	-0.020	0.600
2020/01/31 02:52:31.9	92.080	0.170	-0.010	0.590
2020/01/31 02:52:32.0	92.080	0.160	0.010	0.580
2020/01/31 02:52:32.1	92.070	0.150	0.030	0.560
2020/01/31 02:52:32.2	92.060	0.140	0.040	0.550
2020/01/31 02:52:32.3	92.060	0.130	0.050	0.540
2020/01/31 02:52:32.4	92.060	0.120	0.050	0.520
2020/01/31 02:52:32.5	92.060	0.110	0.050	0.510
2020/01/31 02:52:32.6	92.060	0.100	0.050	0.490
2020/01/31 02:52:32.7	92.060	0.090	0.050	0.480
2020/01/31 02:52:32.8	92.070	0.080	0.040	0.470
2020/01/31 02:52:32.9	92.070	0.070	0.030	0.450
2020/01/31 02:52:33.0	92.070	0.060	0.020	0.440
2020/01/31 02:52:33.1	92.070	0.050	0.000	0.430
2020/01/31 02:52:33.2	92.070	0.050	-0.010	0.420
2020/01/31 02:52:33.3	92.080	0.040	-0.030	0.420
2020/01/31 02:52:33.4	92.090	0.040	-0.050	0.410
2020/01/31 02:52:33.5	92.090	0.030	-0.060	0.410
2020/01/31 02:52:33.6	92.100	0.030	-0.080	0.410
2020/01/31 02:52:33.7	92.110	0.020	-0.100	0.410
2020/01/31 02:52:33.8	92.120	0.020	-0.120	0.410
2020/01/31 02:52:33.9	92.130	0.020	-0.140	0.420
2020/01/31 02:52:34.0	92.140	0.020	-0.160	0.430
2020/01/31 02:52:34.1	92.160	0.020	-0.170	0.430
2020/01/31 02:52:34.2	92.170	0.020	-0.190	0.440
2020/01/31 02:52:34.3	92.190	0.020	-0.210	0.450
2020/01/31 02:52:34.4	92.210	0.020	-0.220	0.470
2020/01/31 02:52:34.5	92.220	0.030	-0.240	0.480
2020/01/31 02:52:34.6	92.240	0.030	-0.260	0.500
2020/01/31 02:52:34.7	92.260	0.030	-0.270	0.520
2020/01/31 02:52:34.8	92.280	0.030	-0.280	0.540
2020/01/31 02:52:34.9	92.300	0.040	-0.300	0.560
2020/01/31 02:52:35.0	92.310	0.040	-0.310	0.580
2020/01/31 02:52:35.1	92.330	0.040	-0.330	0.600
2020/01/31 02:52:35.2	92.350	0.050	-0.340	0.630
2020/01/31 02:52:35.3	92.360	0.050	-0.340	0.650
2020/01/31 02:52:35.4	92.380	0.050	-0.350	0.670
2020/01/31 02:52:35.5	92.390	0.060	-0.360	0.700
2020/01/31 02:52:35.6	92.400	0.060	-0.370	0.720
2020/01/31 02:52:35.7	92.420	0.060	-0.380	0.740
2020/01/31 02:52:35.8	92.420	0.060	-0.380	0.770
2020/01/31 02:52:35.9	92.430	0.070	-0.390	0.790
2020/01/31 02:52:36.0	92.440	0.070	-0.400	0.820
2020/01/31 02:52:36.1	92.450	0.070	-0.400	0.840
2020/01/31 02:52:36.2	92.450	0.070	-0.400	0.870
2020/01/31 02:52:36.3	92.450	0.080	-0.400	0.900
2020/01/31 02:52:36.4	92.460	0.080	-0.400	0.920
2020/01/31 02:52:36.5	92.460	0.080	-0.400	0.950
2020/01/31 02:52:36.6	92.450	0.070	-0.400	0.990
2020/01/31 02:52:36.7	92.450	0.070	-0.390	1.020
2020/01/31 02:52:36.8	92.450	0.070	-0.380	1.050
2020/01/31 02:52:36.9	92.450	0.060	-0.370	1.080
2020/01/31 02:52:37.0	92.440	0.060	-0.350	1.110
2020/01/31 02:52:37.1	92.440	0.050	-0.340	1.140
2020/01/31 02:52:37.2	92.440	0.040	-0.320	1.170
2020/01/31 02:52:37.3	92.440	0.030	-0.290	1.200
2020/01/31 02:52:37.4	92.430	0.020	-0.260	1.230
2020/01/31 02:52:37.5	92.430	0.010	-0.240	1.250
2020/01/31 02:52:37.6	92.430	-0.000	-0.210	1.270
2020/01/31 02:52:37.7	92.430	-0.020	-0.180	1.290
2020/01/31 02:52:37.8	92.430	-0.030	-0.140	1.310
2020/01/31 02:52:37.9	92.430	-0.050	-0.110	1.330
2020/01/31 02:52:38.0	92.430	-0.070	-0.080	1.340
2020/01/31 02:52:38.1	92.430	-0.090	-0.050	1.340
2020/01/31 02:52:38.2	92.430	-0.100	-0.020	1.350
2020/01/31 02:52:38.3	92.430	-0.120	0.010	1.350
2020/01/31 02:52:38.4	92.430	-0.140	0.040	1.350
2020/01/31 02:52:38.5	92.430	-0.160	0.060	1.350
2020/01/31 02:52:38.6	92.430	-0.170	0.080	1.350
2020/01/31 02:52:38.7	92.430	-0.190	0.090	1.340
2020/01/31 02:52:38.8	92.430	-0.200	0.110	1.330
2020/01/31 02:52:38.9	92.430	-0.220	0.110	1.320
2020/01/31 02:52:39.0	92.430	-0.230	0.120	1.300
2020/01/31 02:52:39.1	92.420	-0.240	0.120	1.280
2020/01/31 02:52:39.2	92.420	-0.250	0.120	1.260
2020/01/31 02:52:39.3	92.420	-0.260	0.110	1.230
2020/01/31 02:52:39.4	92.420	-0.270	0.100	1.210
2020/01/31 02:52:39.5	92.420	-0.270	0.080	1.180
2020/01/31 02:52:39.6	92.410	-0.270	0.070	1.150
2020/01/31 02:52:39.7	92.420	-0.270	0.050	1.120
2020/01/31 02:52:39.8	92.420	-0.270	0.030	1.090
2020/01/31 02:52:39.9	92.420	-0.270	0.000	1.060
2020/01/31 02:52:40.0	92.420	-0.270	-0.020	1.020
2020/01/31 02:52:40.1	92.430	-0.260	-0.050	0.990
2020/01/31 02:52:40.2	92.430	-0.260	-0.070	0.950
2020/01/31 02:52:40.3	92.430	-0.250	-0.100	0.920
2020/01/31 02:52:40.4	92.430	-0.240	-0.130	0.890
2020/01/31 02:52:40.5	92.430	-0.230	-0.150	0.860
2020/01/31 02:52:40.6	92.430	-0.220	-0.180	0.830
2020/01/31 02:52:40.7	92.440	-0.200	-0.200	0.800
2020/01/31 02:52:40.8	92.430	-0.190	-0.220	0.770
2020/01/31 02:52:40.9	92.430	-0.170	-0.250	0.740
2020/01/31 02:52:41.0	92.430	-0.160	-0.270	0.720
2020/01/31 02:52:41.1	92.430	-0.140	-0.290	0.690
2020/01/31 02:52:41.2	92.430	-0.120	-0.310	0.660
2020/01/31 02:52:41.3	92.420	-0.100	-0.330	0.640
2020/01/31 02:52:41.4	92.420	-0.080	-0.350	0.620
2020/01/31 02:52:41.5	92.420	-0.060	-0.360	0.590
2020/01/31 02:52:41.6	92.420	-0.040	-0.380	0.570
2020/01/31 02:52:41.7	92.420	-0.020	-0.400	0.550
2020/01/31 02:52:41.8	92.420	-0.000	-0.410	0.520
2020/01/31 02:52:41.9	92.420	0.020	-0.430	0.500
2020/01/31 02:52:42.0	92.420	0.040	-0.450	0.470
2020/01/31 02:52:42.1	92.420	0.060	-0.460	0.440
2020/01/31 02:52:42.2	92.420	0.080	-0.470	0.420
2020/01/31 02:52:42.3	92.420	0.100	-0.490	0.390
2020/01/31 02:52:42.4	92.430	0.120	-0.500	0.370
2020/01/31 02:52:42.5	92.430	0.130	-0.510	0.340
2020/01/31 02:52:42.6	92.440	0.150	-0.520	0.310
2020/01/31 02:52:42.7	92.440	0.170	-0.530	0.290
2020/01/31 02:52:42.8	92.450	0.180	-0.530	0.260
2020/01/31 02:52:42.9	92.460	0.190	-0.540	0.240
2020/01/31 02:52:43.0	92.460	0.200	-0.540	0.220
2020/01/31 02:52:43.1	92.470	0.210	-0.550	0.190
2020/01/31 02:52:43.2	92.470	0.220	-0.540	0.170
2020/01/31 02:52:43.3	92.480	0.230	-0.540	0.160
2020/01/31 02:52:43.4	92.490	0.230	-0.530	0.140
2020/01/31 02:52:43.5	92.490	0.230	-0.520	0.130
2020/01/31 02:52:43.6	92.500	0.230	-0.510	0.120
2020/01/31 02:52:43.7	92.510	0.230	-0.490	0.110
2020/01/31 02:52:43.8	92.520	0.230	-0.470	0.110
2020/01/31 02:52:43.9	92.520	0.220	-0.450	0.110
2020/01/31 02:52:44.0	92.530	0.210	-0.430	0.110
2020/01/31 02:52:44.1	92.540	0.200	-0.400	0.110
2020/01/31 02:52:44.2	92.550	0.190	-0.370	0.120
2020/01/31 02:52:44.3	92.550	0.180	-0.340	0.130
2020/01/31 02:52:44.4	92.560	0.170	-0.310	0.150
2020/01/31 02:52:44.5	92.570	0.150	-0.280	0.170
2020/01/31 02:52:44.6	92.580	0.140	-0.250	0.180
2020/01/31 02:52:44.7	92.590	0.120	-0.210	0.210
2020/01/31 02:52:44.8	92.590	0.100	-0.180	0.230
2020/01/31 02:52:44.9	92.600	0.090	-0.150	0.250
2020/01/31 02:52:45.0	92.610	0.070	-0.130	0.280
2020/01/31 02:52:45.1	92.620	0.050	-0.100	0.300
2020/01/31 02:52:45.2	92.620	0.040	-0.080	0.330
2020/01/31 02:52:45.3	92.630	0.020	-0.060	0.360
2020/01/31 02:52:45.4	92.630	0.010	-0.040	0.380
2020/01/31 02:52:45.5	92.640	-0.000	-0.030	0.410
2020/01/31 02:52:45.6	92.650	-0.010	-0.020	0.440
2020/01/31 02:52:45.7	92.650	-0.020	-0.010	0.460
2020/01/31 02:52:45.8	92.650	-0.030	-0.010	0.490
2020/01/31 02:52:45.9	92.660	-0.040	-0.010	0.520
2020/01/31 02:52:46.0	92.660	-0.040	-0.020	0.550
2020/01/31 02:52:46.1	92.660	-0.040	-0.030	0.570
2020/01/31 02:52:46.2	92.660	-0.040	-0.030	0.590
2020/01/31 02:52:46.3	92.660	-0.040	-0.050	0.620
2020/01/31 02:52:46.4	92.660	-0.040	-0.060	0.650
2020/01/31 02:52:46.5	92.660	-0.040	-0.080	0.680
2020/01/31 02:52:46.6	92.660	-0.040	-0.090	0.700
2020/01/31 02:52:46.7	92.660	-0.030	-0.110	0.730
2020/01/31 02:52:46.8	92.660	-0.030	-0.130	0.760
2020/01/31 02:52:46.9	92.650	-0.020	-0.150	0.790
2020/01/31 02:52:47.0	92.650	-0.020	-0.170	0.810
2020/01/31 02:52:47.1	92.640	-0.010	-0.190	0.840
2020/01/31 02:52:47.2	92.640	-0.000	-0.220	0.870
2020/01/31 02:52:47.3	92.630	0.010	-0.240	0.890
2020/01/31 02:52:47.4	92.620	0.020	-0.260	0.920
2020/01/31 02:52:47.5	92.620	0.030	-0.280	0.940
2020/01/31 02:52:47.6	92.610	0.040	-0.300	0.960
2020/01/31 02:52:47.7	92.610	0.050	-0.310	0.980
2020/01/31 02:52:47.8	92.600	0.060	-0.330	0.990
2020/01/31 02:52:47.9	92.600	0.060	-0.350	1.000
2020/01/31 02:52:48.0	92.590	0.070	-0.360	1.020
2020/01/31 02:52:48.1	92.590	0.080	-0.370	1.020
2020/01/31 02:52:48.2	92.580	0.090	-0.380	1.030
2020/01/31 02:52:48.3	92.580	0.090	-0.390	1.030
2020/01/31 02:52:48.4	92.580	0.100	-0.390	1.040
2020/01/31 02:52:48.5	92.570	0.100	-0.400	1.040
2020/01/31 02:52:48.6	92.570	0.110	-0.400	1.040
2020/01/31 02:52:48.7	92.560	0.110	-0.390	1.040
2020/01/31 02:52:48.8	92.560	0.110	-0.390	1.040
2020/01/31 02:52:48.9	92.550	0.100	-0.380	1.030
2020/01/31 02:52:49.0	92.550	0.100	-0.360	1.030
2020/01/31 02:52:49.1	92.540	0.090	-0.350	1.020
2020/01/31 02:52:49.2	92.540	0.080	-0.330	1.020
2020/01/31 02:52:49.3	92.530	0.070	-0.310	1.010
2020/01/31 02:52:49.4	92.530	0.060	-0.290	1.000
2020/01/31 02:52:49.5	92.520	0.050	-0.260	0.990
2020/01/31 02:52:49.6	92.520	0.030	-0.230	0.980
2020/01/31 02:52:49.7	92.520	0.010	-0.200	0.970
2020/01/31 02:52:49.8	92.520	-0.010	-0.170	0.960
2020/01/31 02:52:49.9	92.520	-0.030	-0.140	0.950
2020/01/31 02:52:50.0	92.520	-0.050	-0.110	0.930
2020/01/31 02:52:50.1	92.520	-0.070	-0.070	0.920
2020/01/31 02:52:50.2	92.530	-0.100	-0.030	0.900
2020/01/31 02:52:50.3	92.530	-0.120	-0.000	0.890
2020/01/31 02:52:50.4	92.530	-0.150	0.030	0.870
2020/01/31 02:52:50.5	92.540	-0.170	0.060	0.850
2020/01/31 02:52:50.6	92.550	-0.200	0.090	0.830
2020/01/31 02:52:50.7	92.550	-0.220	0.120	0.810
2020/01/31 02:52:50.8	92.560	-0.250	0.140	0.800
2020/01/31 02:52:50.9	92.570	-0.270	0.160	0.780
2020/01/31 02:52:51.0	92.580	-0.290	0.180	0.760
2020/01/31 02:52:51.1	92.580	-0.310	0.190	0.730
2020/01/31 02:52:51.2	92.590	-0.330	0.200	0.710
2020/01/31 02:52:51.3	92.590	-0.350	0.200	0.700
2020/01/31 02:52:51.4	92.600	-0.360	0.200	0.680
2020/01/31 02:52:51.5	92.610	-0.380	0.190	0.660
2020/01/31 02:52:51.6	92.610	-0.380	0.180	0.640
2020/01/31 02:52:51.7	92.620	-0.390	0.170	0.620
2020/01/31 02:52:51.8	92.620	-0.390	0.150	0.610
2020/01/31 02:52:51.9	92.630	-0.390	0.120	0.590
2020/01/31 02:52:52.0	92.630	-0.390	0.100	0.570
2020/01/31 02:52:52.1	92.630	-0.380	0.060	0.550
2020/01/31 02:52:52.2	92.640	-0.370	0.030	0.540
2020/01/31 02:52:52.3	92.640	-0.360	-0.010	0.520
2020/01/31 02:52:52.4	92.650	-0.340	-0.050	0.500
2020/01/31 02:52:52.5	92.650	-0.320	-0.100	0.490
2020/01/31 02:52:52.6	92.660	-0.300	-0.140	0.470
2020/01/31 02:52:52.7	92.660	-0.280	-0.190	0.460
2020/01/31 02:52:52.8	92.670	-0.250	-0.240	0.440
2020/01/31 02:52:52.9	92.680	-0.220	-0.300	0.430
2020/01/31 02:52:53.0	92.690	-0.190	-0.350	0.410
2020/01/31 02:52:53.1	92.690	-0.160	-0.400	0.400
2020/01/31 02:52:53.2	92.700	-0.120	-0.460	0.380
2020/01/31 02:52:53.3	92.720	-0.090	-0.510	0.370
2020/01/31 02:52:53.4	92.730	-0.050	-0.560	0.360
2020/01/31 02:52:53.5	92.740	-0.010	-0.610	0.350
2020/01/31 02:52:53.6	92.760	0.030	-0.660	0.340
2020/01/31 02:52:53.7	92.770	0.070	-0.710	0.340
2020/01/31 02:52:53.8	92.780	0.110	-0.750	0.340
2020/01/31 02:52:53.9	92.800	0.150	-0.790	0.340
2020/01/31 02:52:54.0	92.810	0.190	-0.820	0.350
2020/01/31 02:52:54.1	92.820	0.220	-0.850	0.360
2020/01/31 02:52:54.2	92.830	0.260	-0.880	0.370
2020/01/31 02:52:54.3	92.830	0.290	-0.890	0.390
2020/01/31 02:52:54.4	92.830	0.320	-0.900	0.410
2020/01/31 02:52:54.5	92.830	0.350	-0.900	0.440
2020/01/31 02:52:54.6	92.820	0.380	-0.900	0.470
2020/01/31 02:52:54.7	92.810	0.400	-0.880	0.500
2020/01/31 02:52:54.8	92.800	0.420	-0.860	0.540
2020/01/31 02:52:54.9	92.780	0.430	-0.830	0.570
2020/01/31 02:52:55.0	92.760	0.440	-0.790	0.610
2020/01/31 02:52:55.1	92.740	0.440	-0.750	0.640
2020/01/31 02:52:55.2	92.720	0.440	-0.690	0.680
2020/01/31 02:52:55.3	92.690	0.440	-0.630	0.710
2020/01/31 02:52:55.4	92.660	0.430	-0.570	0.740
2020/01/31 02:52:55.5	92.630	0.420	-0.490	0.760
2020/01/31 02:52:55.6	92.600	0.400	-0.420	0.790
2020/01/31 02:52:55.7	92.560	0.370	-0.340	0.800
2020/01/31 02:52:55.8	92.530	0.350	-0.250	0.820
2020/01/31 02:52:55.9	92.490	0.320	-0.170	0.830
2020/01/31 02:52:56.0	92.450	0.280	-0.080	0.840
2020/01/31 02:52:56.1	92.420	0.250	0.020	0.840
2020/01/31 02:52:56.2	92.380	0.200	0.100	0.840
2020/01/31 02:52:56.3	92.350	0.160	0.190	0.840
2020/01/31 02:52:56.4	92.310	0.120	0.270	0.840
2020/01/31 02:52:56.5	92.280	0.070	0.350	0.830
2020/01/31 02:52:56.6	92.250	0.020	0.420	0.820
2020/01/31 02:52:56.7	92.220	-0.020	0.480	0.810
2020/01/31 02:52:56.8	92.190	-0.070	0.540	0.790
2020/01/31 02:52:56.9	92.160	-0.120	0.590	0.770
2020/01/31 02:52:57.0	92.140	-0.160	0.640	0.760
2020/01/31 02:52:57.1	92.120	-0.200	0.670	0.730
2020/01/31 02:52:57.2	92.110	-0.240	0.690	0.710
2020/01/31 02:52:57.3	92.100	-0.280	0.700	0.680
2020/01/31 02:52:57.4	92.090	-0.310	0.710	0.660
2020/01/31 02:52:57.5	92.090	-0.340	0.700	0.630
2020/01/31 02:52:57.6	92.090	-0.360	0.680	0.610
2020/01/31 02:52:57.7	92.100	-0.380	0.650	0.580
2020/01/31 02:52:57.8	92.110	-0.390	0.600	0.550
2020/01/31 02:52:57.9	92.120	-0.400	0.550	0.530
2020/01/31 02:52:58.0	92.140	-0.400	0.490	0.500
2020/01/31 02:52:58.1	92.160	-0.400	0.420	0.470
2020/01/31 02:52:58.2	92.180	-0.390	0.350	0.440
2020/01/31 02:52:58.3	92.210	-0.370	0.260	0.420
2020/01/31 02:52:58.4	92.240	-0.350	0.170	0.390
2020/01/31 02:52:58.5	92.270	-0.330	0.070	0.360
2020/01/31 02:52:58.6	92.300	-0.300	-0.030	0.330
2020/01/31 02:52:58.7	92.330	-0.270	-0.130	0.300
2020/01/31 02:52:58.8	92.360	-0.230	-0.240	0.280
2020/01/31 02:52:58.9	92.390	-0.190	-0.340	0.250
2020/01/31 02:52:59.0	92.420	-0.140	-0.450	0.230
2020/01/31 02:52:59.1	92.450	-0.100	-0.560	0.200
2020/01/31 02:52:59.2	92.470	-0.050	-0.660	0.180
2020/01/31 02:52:59.3	92.500	-0.000	-0.750	0.170
2020/01/31 02:52:59.4	92.520	0.050	-0.850	0.160
2020/01/31 02:52:59.5	92.540	0.090	-0.930	0.150
2020/01/31 02:52:59.6	92.560	0.140	-1.010	0.150
2020/01/31 02:52:59.7	92.570	0.190	-1.080	0.150
2020/01/31 02:52:59.8	92.580	0.240	-1.140	0.150
2020/01/31 02:52:59.9	92.590	0.280	-1.200	0.160
2020/01/31 02:53:00.0	92.590	0.320	-1.250	0.180
2020/01/31 02:53:00.1	92.590	0.360	-1.270	0.200
2020/01/31 02:53:00.2	92.590	0.390	-1.300	0.230
2020/01/31 02:53:00.3	92.590	0.420	-1.320	0.260
2020/01/31 02:53:00.4	92.580	0.450	-1.320	0.290
2020/01/31 02:53:00.5	92.570	0.470	-1.320	0.330
2020/01/31 02:53:00.6	92.560	0.480	-1.300	0.380
2020/01/31 02:53:00.7	92.540	0.490	-1.270	0.430
2020/01/31 02:53:00.8	92.520	0.500	-1.240	0.480
2020/01/31 02:53:00.9	92.510	0.500	-1.190	0.530
2020/01/31 02:53:01.0	92.490	0.500	-1.130	0.590
2020/01/31 02:53:01.1	92.470	0.490	-1.080	0.650
2020/01/31 02:53:01.2	92.450	0.470	-1.000	0.710
2020/01/31 02:53:01.3	92.430	0.450	-0.920	0.770
2020/01/31 02:53:01.4	92.410	0.420	-0.840	0.830
2020/01/31 02:53:01.5	92.390	0.390	-0.740	0.890
2020/01/31 02:53:01.6	92.370	0.360	-0.640	0.950
2020/01/31 02:53:01.7	92.350	0.320	-0.540	1.010
2020/01/31 02:53:01.8	92.330	0.280	-0.430	1.070
2020/01/31 02:53:01.9	92.320	0.240	-0.320	1.120
2020/01/31 02:53:02.0	92.300	0.190	-0.210	1.180
2020/01/31 02:53:02.1	92.280	0.140	-0.090	1.230
2020/01/31 02:53:02.2	92.270	0.090	0.020	1.280
2020/01/31 02:53:02.3	92.250	0.040	0.120	1.330
2020/01/31 02:53:02.4	92.240	-0.010	0.230	1.380
2020/01/31 02:53:02.5	92.230	-0.060	0.330	1.420
2020/01/31 02:53:02.6	92.220	-0.110	0.430	1.460
2020/01/31 02:53:02.7	92.210	-0.160	0.520	1.490
2020/01/31 02:53:02.8	92.200	-0.210	0.600	1.530
2020/01/31 02:53:02.9	92.190	-0.260	0.680	1.550
2020/01/31 02:53:03.0	92.190	-0.300	0.750	1.570
2020/01/31 02:53:03.1	92.180	-0.340	0.810	1.580
2020/01/31 02:53:03.2	92.170	-0.380	0.860	1.590
2020/01/31 02:53:03.3	92.170	-0.420	0.910	1.590
2020/01/31 02:53:03.4	92.170	-0.450	0.940	1.580
2020/01/31 02:53:03.5	92.160	-0.480	0.970	1.560
2020/01/31 02:53:03.6	92.160	-0.510	0.980	1.540
2020/01/31 02:53:03.7	92.160	-0.530	0.980	1.510
2020/01/31 02:53:03.8	92.160	-0.540	0.980	1.480
2020/01/31 02:53:03.9	92.170	-0.560	0.960	1.430
2020/01/31 02:53:04.0	92.170	-0.560	0.930	1.390
2020/01/31 02:53:04.1	92.170	-0.570	0.890	1.330
2020/01/31 02:53:04.2	92.180	-0.560	0.850	1.280
2020/01/31 02:53:04.3	92.180	-0.560	0.790	1.210
2020/01/31 02:53:04.4	92.190	-0.550	0.730	1.150
2020/01/31 02:53:04.5	92.200	-0.530	0.650	1.090
2020/01/31 02:53:04.6	92.210	-0.510	0.570	1.020
2020/01/31 02:53:04.7	92.220	-0.490	0.480	0.950
2020/01/31 02:53:04.8	92.240	-0.460	0.390	0.890
2020/01/31 02:53:04.9	92.250	-0.430	0.290	0.830
2020/01/31 02:53:05.0	92.260	-0.390	0.190	0.770
2020/01/31 02:53:05.1	92.270	-0.350	0.090	0.710
2020/01/31 02:53:05.2	92.290	-0.310	-0.020	0.660
2020/01/31 02:53:05.3	92.300	-0.270	-0.130	0.610
2020/01/31 02:53:05.4	92.310	-0.230	-0.240	0.570
2020/01/31 02:53:05.5	92.330	-0.180	-0.350	0.540
2020/01/31 02:53:05.6	92.340	-0.140	-0.450	0.510
2020/01/31 02:53:05.7	92.350	-0.090	-0.550	0.480
2020/01/31 02:53:05.8	92.360	-0.050	-0.650	0.460
2020/01/31 02:53:05.9	92.380	-0.000	-0.730	0.450
2020/01/31 02:53:06.0	92.390	0.040	-0.820	0.440
2020/01/31 02:53:06.1	92.400	0.080	-0.900	0.430
2020/01/31 02:53:06.2	92.410	0.110	-0.970	0.430
2020/01/31 02:53:06.3	92.420	0.150	-1.020	0.430
2020/01/31 02:53:06.4	92.430	0.180	-1.070	0.430
2020/01/31 02:53:06.5	92.440	0.210	-1.110	0.430
2020/01/31 02:53:06.6	92.440	0.230	-1.140	0.430
2020/01/31 02:53:06.7	92.450	0.250	-1.160	0.430
2020/01/31 02:53:06.8	92.460	0.260	-1.170	0.440
2020/01/31 02:53:06.9	92.470	0.270	-1.170	0.440
2020/01/31 02:53:07.0	92.470	0.280	-1.150	0.450
2020/01/31 02:53:07.1	92.480	0.280	-1.130	0.450
2020/01/31 02:53:07.2	92.480	0.280	-1.110	0.450
2020/01/31 02:53:07.3	92.490	0.280	-1.070	0.460
2020/01/31 02:53:07.4	92.490	0.270	-1.020	0.470
2020/01/31 02:53:07.5	92.490	0.260	-0.970	0.480
2020/01/31 02:53:07.6	92.500	0.240	-0.920	0.480
2020/01/31 02:53:07.7	92.500	0.220	-0.850	0.490
2020/01/31 02:53:07.8	92.500	0.210	-0.790	0.500
2020/01/31 02:53:07.9	92.500	0.180	-0.720	0.510
2020/01/31 02:53:08.0	92.500	0.160	-0.650	0.530
2020/01/31 02:53:08.1	92.500	0.140	-0.580	0.540
2020/01/31 02:53:08.2	92.500	0.110	-0.510	0.560
2020/01/31 02:53:08.3	92.500	0.090	-0.430	0.570
2020/01/31 02:53:08.4	92.500	0.070	-0.370	0.590
2020/01/31 02:53:08.5	92.490	0.040	-0.300	0.610
2020/01/31 02:53:08.6	92.490	0.020	-0.240	0.630
2020/01/31 02:53:08.7	92.490	0.010	-0.190	0.660
2020/01/31 02:53:08.8	92.480	-0.010	-0.140	0.680
2020/01/31 02:53:08.9	92.480	-0.020	-0.100	0.710
2020/01/31 02:53:09.0	92.480	-0.030	-0.060	0.740
2020/01/31 02:53:09.1	92.470	-0.040	-0.030	0.760
2020/01/31 02:53:09.2	92.460	-0.040	-0.010	0.780
2020/01/31 02:53:09.3	92.460	-0.040	-0.000	0.810
2020/01/31 02:53:09.4	92.460	-0.030	0.000	0.830
2020/01/31 02:53:09.5	92.460	-0.020	-0.000	0.850
2020/01/31 02:53:09.6	92.450	-0.010	-0.010	0.870
2020/01/31 02:53:09.7	92.450	0.000	-0.030	0.890
2020/01/31 02:53:09.8	92.450	0.020	-0.050	0.900
2020/01/31 02:53:09.9	92.450	0.040	-0.080	0.910
2020/01/31 02:53:10.0	92.460	0.060	-0.110	0.920
2020/01/31 02:53:10.1	92.450	0.090	-0.140	0.920
2020/01/31 02:53:10.2	92.450	0.110	-0.180	0.920
2020/01/31 02:53:10.3	92.450	0.130	-0.210	0.920
2020/01/31 02:53:10.4	92.440	0.150	-0.240	0.920
2020/01/31 02:53:10.5	92.440	0.170	-0.260	0.920
2020/01/31 02:53:10.6	92.430	0.190	-0.290	0.910
2020/01/31 02:53:10.7	92.420	0.210	-0.300	0.910
2020/01/31 02:53:10.8	92.410	0.220	-0.320	0.900
2020/01/31 02:53:10.9	92.400	0.230	-0.330	0.890
2020/01/31 02:53:11.0	92.390	0.240	-0.330	0.880
2020/01/31 02:53:11.1	92.380	0.240	-0.330	0.870
2020/01/31 02:53:11.2	92.370	0.240	-0.320	0.860
2020/01/31 02:53:11.3	92.360	0.230	-0.300	0.850
2020/01/31 02:53:11.4	92.350	0.220	-0.280	0.840
2020/01/31 02:53:11.5	92.340	0.200	-0.250	0.830
2020/01/31 02:53:11.6	92.330	0.180	-0.220	0.820
2020/01/31 02:53:11.7	92.320	0.160	-0.180	0.800
2020/01/31 02:53:11.8	92.320	0.130	-0.130	0.790
2020/01/31 02:53:11.9	92.310	0.100	-0.090	0.770
2020/01/31 02:53:12.0	92.310	0.060	-0.030	0.750
2020/01/31 02:53:12.1	92.300	0.030	0.020	0.730
2020/01/31 02:53:12.2	92.300	-0.010	0.080	0.710
2020/01/31 02:53:12.3	92.310	-0.060	0.140	0.690
2020/01/31 02:53:12.4	92.310	-0.100	0.190	0.660
2020/01/31 02:53:12.5	92.320	-0.150	0.250	0.640
2020/01/31 02:53:12.6	92.330	-0.190	0.310	0.610
2020/01/31 02:53:12.7	92.340	-0.240	0.360	0.590
2020/01/31 02:53:12.8	92.350	-0.290	0.410	0.560
2020/01/31 02:53:12.9	92.360	-0.330	0.460	0.530
2020/01/31 02:53:13.0	92.370	-0.370	0.500	0.500
2020/01/31 02:53:13.1	92.380	-0.410	0.530	0.470
2020/01/31 02:53:13.2	92.400	-0.450	0.560	0.440
2020/01/31 02:53:13.3	92.410	-0.480	0.580	0.410
2020/01/31 02:53:13.4	92.430	-0.510	0.580	0.380
2020/01/31 02:53:13.5	92.440	-0.530	0.580	0.350
2020/01/31 02:53:13.6	92.450	-0.550	0.570	0.320
2020/01/31 02:53:13.7	92.470	-0.570	0.560	0.300
2020/01/31 02:53:13.8	92.480	-0.580	0.530	0.270
2020/01/31 02:53:13.9	92.490	-0.580	0.490	0.250
2020/01/31 02:53:14.0	92.500	-0.580	0.440	0.230
2020/01/31 02:53:14.1	92.510	-0.570	0.380	0.220
2020/01/31 02:53:14.2	92.520	-0.560	0.320	0.200
2020/01/31 02:53:14.3	92.530	-0.540	0.240	0.190
2020/01/31 02:53:14.4	92.540	-0.510	0.160	0.180
2020/01/31 02:53:14.5	92.540	-0.480	0.070	0.180
2020/01/31 02:53:14.6	92.550	-0.440	-0.030	0.170
2020/01/31 02:53:14.7	92.550	-0.400	-0.130	0.170
2020/01/31 02:53:14.8	92.560	-0.350	-0.230	0.170
2020/01/31 02:53:14.9	92.560	-0.300	-0.340	0.170
2020/01/31 02:53:15.0	92.560	-0.240	-0.450	0.170
2020/01/31 02:53:15.1	92.570	-0.180	-0.570	0.180
2020/01/31 02:53:15.2	92.570	-0.120	-0.680	0.180
2020/01/31 02:53:15.3	92.580	-0.050	-0.790	0.190
2020/01/31 02:53:15.4	92.580	0.020	-0.900	0.190
2020/01/31 02:53:15.5	92.590	0.090	-1.000	0.200
2020/01/31 02:53:15.6	92.590	0.160	-1.090	0.210
2020/01/31 02:53:15.7	92.600	0.220	-1.180	0.220
2020/01/31 02:53:15.8	92.610	0.290	-1.260	0.230
2020/01/31 02:53:15.9	92.610	0.360	-1.320	0.250
2020/01/31 02:53:16.0	92.620	0.430	-1.380	0.260
2020/01/31 02:53:16.1	92.620	0.490	-1.420	0.280
2020/01/31 02:53:16.2	92.630	0.550	-1.450	0.300
2020/01/31 02:53:16.3	92.630	0.600	-1.470	0.330
2020/01/31 02:53:16.4	92.640	0.650	-1.470	0.350
2020/01/31 02:53:16.5	92.640	0.690	-1.460	0.380
2020/01/31 02:53:16.6	92.640	0.730	-1.440	0.420
2020/01/31 02:53:16.7	92.640	0.770	-1.400	0.450
2020/01/31 02:53:16.8	92.640	0.790	-1.340	0.490
2020/01/31 02:53:16.9	92.640	0.810	-1.280	0.530
2020/01/31 02:53:17.0	92.630	0.820	-1.200	0.570
2020/01/31 02:53:17.1	92.630	0.830	-1.100	0.620
2020/01/31 02:53:17.2	92.620	0.830	-1.000	0.660
2020/01/31 02:53:17.3	92.610	0.820	-0.890	0.710
2020/01/31 02:53:17.4	92.600	0.800	-0.770	0.750
2020/01/31 02:53:17.5	92.580	0.780	-0.640	0.790
2020/01/31 02:53:17.6	92.570	0.740	-0.510	0.830
2020/01/31 02:53:17.7	92.550	0.710	-0.370	0.870
2020/01/31 02:53:17.8	92.540	0.660	-0.230	0.900
2020/01/31 02:53:17.9	92.520	0.610	-0.090	0.930
2020/01/31 02:53:18.0	92.500	0.560	0.050	0.960
2020/01/31 02:53:18.1	92.480	0.500	0.200	0.980
2020/01/31 02:53:18.2	92.460	0.440	0.330	1.000
2020/01/31 02:53:18.3	92.440	0.370	0.460	1.010
2020/01/31 02:53:18.4	92.420	0.300	0.580	1.020
2020/01/31 02:53:18.5	92.400	0.230	0.700	1.020
2020/01/31 02:53:18.6	92.380	0.150	0.810	1.020
2020/01/31 02:53:18.7	92.360	0.080	0.900	1.020
2020/01/31 02:53:18.8	92.340	0.000	0.990	1.010
2020/01/31 02:53:18.9	92.330	-0.070	1.070	1.000
2020/01/31 02:53:19.0	92.310	-0.150	1.130	0.980
2020/01/31 02:53:19.1	92.300	-0.220	1.180	0.960
2020/01/31 02:53:19.2	92.280	-0.290	1.220	0.940
2020/01/31 02:53:19.3	92.270	-0.350	1.240	0.920
2020/01/31 02:53:19.4	92.270	-0.420	1.250	0.890
2020/01/31 02:53:19.5	92.260	-0.470	1.240	0.870
2020/01/31 02:53:19.6	92.250	-0.520	1.220	0.840
2020/01/31 02:53:19.7	92.250	-0.570	1.190	0.810
2020/01/31 02:53:19.8	92.250	-0.610	1.140	0.780
2020/01/31 02:53:19.9	92.250	-0.650	1.090	0.750
2020/01/31 02:53:20.0	92.260	-0.670	1.020	0.720
2020/01/31 02:53:20.1	92.270	-0.700	0.930	0.690
2020/01/31 02:53:20.2	92.280	-0.710	0.840	0.660
2020/01/31 02:53:20.3	92.290	-0.720	0.740	0.620
2020/01/31 02:53:20.4	92.300	-0.720	0.620	0.590
2020/01/31 02:53:20.5	92.320	-0.710	0.500	0.550
2020/01/31 02:53:20.6	92.340	-0.700	0.380	0.520
2020/01/31 02:53:20.7	92.370	-0.680	0.240	0.480
2020/01/31 02:53:20.8	92.390	-0.650	0.110	0.440
2020/01/31 02:53:20.9	92.420	-0.610	-0.030	0.410
2020/01/31 02:53:21.0	92.450	-0.580	-0.180	0.370
2020/01/31 02:53:21.1	92.480	-0.530	-0.330	0.330
2020/01/31 02:53:21.2	92.520	-0.480	-0.470	0.300
2020/01/31 02:53:21.3	92.550	-0.430	-0.610	0.270
2020/01/31 02:53:21.4	92.580	-0.370	-0.750	0.240
2020/01/31 02:53:21.5	92.610	-0.310	-0.880	0.210
2020/01/31 02:53:21.6	92.640	-0.250	-1.010	0.190
2020/01/31 02:53:21.7	92.660	-0.190	-1.130	0.180
2020/01/31 02:53:21.8	92.690	-0.120	-1.240	0.170
2020/01/31 02:53:21.9	92.710	-0.060	-1.350	0.170
2020/01/31 02:53:22.0	92.730	0.010	-1.440	0.170
2020/01/31 02:53:22.1	92.740	0.070	-1.510	0.170
2020/01/31 02:53:22.2	92.750	0.130	-1.580	0.190
2020/01/31 02:53:22.3	92.760	0.190	-1.630	0.210
2020/01/31 02:53:22.4	92.770	0.240	-1.670	0.230
2020/01/31 02:53:22.5	92.770	0.290	-1.690	0.260
2020/01/31 02:53:22.6	92.770	0.340	-1.700	0.290
2020/01/31 02:53:22.7	92.770	0.380	-1.690	0.330
2020/01/31 02:53:22.8	92.760	0.410	-1.670	0.370
2020/01/31 02:53:22.9	92.760	0.440	-1.630	0.420
2020/01/31 02:53:23.0	92.750	0.460	-1.580	0.460
2020/01/31 02:53:23.1	92.730	0.480	-1.510	0.510
2020/01/31 02:53:23.2	92.720	0.490	-1.440	0.560
2020/01/31 02:53:23.3	92.700	0.490	-1.350	0.610
2020/01/31 02:53:23.4	92.680	0.490	-1.250	0.660
2020/01/31 02:53:23.5	92.660	0.480	-1.140	0.710
2020/01/31 02:53:23.6	92.640	0.460	-1.020	0.760
2020/01/31 02:53:23.7	92.620	0.440	-0.900	0.810
2020/01/31 02:53:23.8	92.590	0.420	-0.770	0.850
2020/01/31 02:53:23.9	92.570	0.390	-0.640	0.900
2020/01/31 02:53:24.0	92.540	0.350	-0.510	0.940
2020/01/31 02:53:24.1	92.510	0.310	-0.360	0.970
2020/01/31 02:53:24.2	92.490	0.270	-0.230	1.010
2020/01/31 02:53:24.3	92.460	0.230	-0.110	1.040
2020/01/31 02:53:24.4	92.440	0.180	0.020	1.060
2020/01/31 02:53:24.5	92.410	0.140	0.130	1.080
2020/01/31 02:53:24.6	92.390	0.090	0.240	1.100
2020/01/31 02:53:24.7	92.370	0.050	0.340	1.110
2020/01/31 02:53:24.8	92.350	0.000	0.430	1.120
2020/01/31 02:53:24.9	92.330	-0.040	0.520	1.120
2020/01/31 02:53:25.0	92.310	-0.080	0.590	1.110
2020/01/31 02:53:25.1	92.290	-0.120	0.650	1.100
2020/01/31 02:53:25.2	92.280	-0.160	0.700	1.090
2020/01/31 02:53:25.3	92.260	-0.190	0.740	1.070
2020/01/31 02:53:25.4	92.250	-0.220	0.760	1.050
2020/01/31 02:53:25.5	92.230	-0.250	0.780	1.030
2020/01/31 02:53:25.6	92.220	-0.270	0.780	1.000
2020/01/31 02:53:25.7	92.210	-0.290	0.780	0.980
2020/01/31 02:53:25.8	92.200	-0.300	0.760	0.950
2020/01/31 02:53:25.9	92.190	-0.310	0.730	0.910
2020/01/31 02:53:26.0	92.180	-0.320	0.700	0.880
2020/01/31 02:53:26.1	92.170	-0.320	0.650	0.840
2020/01/31 02:53:26.2	92.170	-0.310	0.600	0.810
2020/01/31 02:53:26.3	92.160	-0.310	0.540	0.770
2020/01/31 02:53:26.4	92.160	-0.290	0.470	0.730
2020/01/31 02:53:26.5	92.150	-0.280	0.400	0.700
2020/01/31 02:53:26.6	92.150	-0.260	0.330	0.660
2020/01/31 02:53:26.7	92.150	-0.240	0.250	0.620
2020/01/31 02:53:26.8	92.150	-0.210	0.170	0.580
2020/01/31 02:53:26.9	92.150	-0.180	0.080	0.540
2020/01/31 02:53:27.0	92.150	-0.150	-0.000	0.500
2020/01/31 02:53:27.1	92.150	-0.120	-0.090	0.460
2020/01/31 02:53:27.2	92.150	-0.090	-0.170	0.420
2020/01/31 02:53:27.3	92.150	-0.060	-0.250	0.380
2020/01/31 02:53:27.4	92.160	-0.030	-0.320	0.340
2020/01/31 02:53:27.5	92.170	-0.000	-0.390	0.310
2020/01/31 02:53:27.6	92.170	0.030	-0.460	0.280
2020/01/31 02:53:27.7	92.180	0.060	-0.520	0.250
2020/01/31 02:53:27.8	92.190	0.080	-0.570	0.220
2020/01/31 02:53:27.9	92.200	0.110	-0.620	0.190
2020/01/31 02:53:28.0	92.210	0.130	-0.660	0.170
2020/01/31 02:53:28.1	92.230	0.140	-0.690	0.150
2020/01/31 02:53:28.2	92.240	0.160	-0.720	0.130
2020/01/31 02:53:28.3	92.250	0.170	-0.740	0.120
2020/01/31 02:53:28.4	92.270	0.180	-0.750	0.110
2020/01/31 02:53:28.5	92.280	0.190	-0.760	0.110
2020/01/31 02:53:28.6	92.300	0.190	-0.750	0.110
2020/01/31 02:53:28.7	92.320	0.190	-0.750	0.110
2020/01/31 02:53:28.8	92.330	0.180	-0.730	0.120
2020/01/31 02:53:28.9	92.350	0.180	-0.710	0.130
2020/01/31 02:53:29.0	92.370	0.170	-0.690	0.140
2020/01/31 02:53:29.1	92.390	0.150	-0.660	0.160
2020/01/31 02:53:29.2	92.410	0.140	-0.630	0.180
2020/01/31 02:53:29.3	92.430	0.120	-0.590	0.200
2020/01/31 02:53:29.4	92.450	0.110	-0.550	0.220
2020/01/31 02:53:29.5	92.470	0.090	-0.510	0.250
2020/01/31 02:53:29.6	92.490	0.070	-0.460	0.280
2020/01/31 02:53:29.7	92.510	0.050	-0.420	0.310
2020/01/31 02:53:29.8	92.530	0.030	-0.380	0.340
2020/01/31 02:53:29.9	92.550	0.010	-0.330	0.370
2020/01/31 02:53:30.0	92.560	-0.010	-0.290	0.410
2020/01/31 02:53:30.1	92.580	-0.020	-0.240	0.430
2020/01/31 02:53:30.2	92.600	-0.040	-0.200	0.470
2020/01/31 02:53:30.3	92.620	-0.050	-0.160	0.500
2020/01/31 02:53:30.4	92.630	-0.070	-0.120	0.540
2020/01/31 02:53:30.5	92.640	-0.080	-0.080	0.580
2020/01/31 02:53:30.6	92.650	-0.090	-0.050	0.620
2020/01/31 02:53:30.7	92.660	-0.100	-0.020	0.660
2020/01/31 02:53:30.8	92.670	-0.100	0.000	0.690
2020/01/31 02:53:30.9	92.680	-0.110	0.030	0.730
2020/01/31 02:53:31.0	92.680	-0.110	0.050	0.770
2020/01/31 02:53:31.1	92.680	-0.110	0.060	0.820
2020/01/31 02:53:31.2	92.680	-0.110	0.070	0.860
2020/01/31 02:53:31.3	92.680	-0.110	0.080	0.900
2020/01/31 02:53:31.4	92.680	-0.100	0.090	0.940
2020/01/31 02:53:31.5	92.670	-0.100	0.090	0.980
2020/01/31 02:53:31.6	92.670	-0.090	0.090	1.020
2020/01/31 02:53:31.7	92.660	-0.080	0.090	1.050
2020/01/31 02:53:31.8	92.650	-0.070	0.090	1.090
2020/01/31 02:53:31.9	92.640	-0.060	0.080	1.130
2020/01/31 02:53:32.0	92.630	-0.050	0.070	1.160
2020/01/31 02:53:32.1	92.610	-0.040	0.060	1.190
2020/01/31 02:53:32.2	92.600	-0.030	0.040	1.220
2020/01/31 02:53:32.3	92.590	-0.020	0.020	1.250
2020/01/31 02:53:32.4	92.580	-0.010	0.010	1.280
2020/01/31 02:53:32.5	92.570	0.000	-0.010	1.300
2020/01/31 02:53:32.6	92.560	0.010	-0.040	1.320
2020/01/31 02:53:32.7	92.550	0.020	-0.060	1.330
2020/01/31 02:53:32.8	92.540	0.030	-0.080	1.350
2020/01/31 02:53:32.9	92.530	0.040	-0.100	1.360
2020/01/31 02:53:33.0	92.530	0.050	-0.130	1.370
2020/01/31 02:53:33.1	92.520	0.060	-0.150	1.370
2020/01/31 02:53:33.2	92.510	0.070	-0.170	1.370
2020/01/31 02:53:33.3	92.500	0.070	-0.190	1.360
2020/01/31 02:53:33.4	92.500	0.080	-0.210	1.360
2020/01/31 02:53:33.5	92.500	0.080	-0.230	1.340
2020/01/31 02:53:33.6	92.490	0.090	-0.250	1.330
2020/01/31 02:53:33.7	92.490	0.090	-0.260	1.310
2020/01/31 02:53:33.8	92.490	0.090	-0.280	1.290
2020/01/31 02:53:33.9	92.490	0.090	-0.290	1.260
2020/01/31 02:53:34.0	92.490	0.090	-0.290	1.230
2020/01/31 02:53:34.1	92.490	0.090	-0.300	1.200
2020/01/31 02:53:34.2	92.490	0.090	-0.300	1.160
2020/01/31 02:53:34.3	92.490	0.090	-0.310	1.120
2020/01/31 02:53:34.4	92.490	0.090	-0.310	1.080
2020/01/31 02:53:34.5	92.500	0.080	-0.300	1.030
2020/01/31 02:53:34.6	92.500	0.080	-0.300	0.980
2020/01/31 02:53:34.7	92.510	0.080	-0.290	0.930
2020/01/31 02:53:34.8	92.520	0.070	-0.290	0.880
2020/01/31 02:53:34.9	92.530	0.070	-0.280	0.830
2020/01/31 02:53:35.0	92.540	0.060	-0.270	0.780
2020/01/31 02:53:35.1	92.550	0.060	-0.250	0.730
2020/01/31 02:53:35.2	92.560	0.050	-0.240	0.680
2020/01/31 02:53:35.3	92.570	0.050	-0.230	0.630
2020/01/31 02:53:35.4	92.580	0.040	-0.210	0.590
2020/01/31 02:53:35.5	92.590	0.040	-0.200	0.540
2020/01/31 02:53:35.6	92.610	0.030	-0.180	0.500
2020/01/31 02:53:35.7	92.620	0.030	-0.170	0.470
2020/01/31 02:53:35.8	92.630	0.030	-0.160	0.430
2020/01/31 02:53:35.9	92.640	0.030	-0.140	0.400
2020/01/31 02:53:36.0	92.660	0.030	-0.140	0.370
2020/01/31 02:53:36.1	92.670	0.030	-0.120	0.350
2020/01/31 02:53:36.2	92.680	0.030	-0.120	0.330
2020/01/31 02:53:36.3	92.690	0.030	-0.110	0.310
2020/01/31 02:53:36.4	92.700	0.030	-0.120	0.290
2020/01/31 02:53:36.5	92.710	0.040	-0.120	0.280
2020/01/31 02:53:36.6	92.720	0.050	-0.130	0.270
2020/01/31 02:53:36.7	92.730	0.050	-0.140	0.260
2020/01/31 02:53:36.8	92.740	0.060	-0.160	0.250
2020/01/31 02:53:36.9	92.740	0.070	-0.180	0.250
2020/01/31 02:53:37.0	92.750	0.090	-0.200	0.240
2020/01/31 02:53:37.1	92.760	0.100	-0.230	0.230
2020/01/31 02:53:37.2	92.760	0.110	-0.260	0.230
2020/01/31 02:53:37.3	92.760	0.130	-0.300	0.220
2020/01/31 02:53:37.4	92.770	0.150	-0.340	0.220
2020/01/31 02:53:37.5	92.770	0.160	-0.380	0.220
2020/01/31 02:53:37.6	92.770	0.180	-0.420	0.220
2020/01/31 02:53:37.7	92.770	0.200	-0.460	0.220
2020/01/31 02:53:37.8	92.780	0.220	-0.510	0.220
2020/01/31 02:53:37.9	92.780	0.240	-0.550	0.220
2020/01/31 02:53:38.0	92.780	0.260	-0.590	0.220
2020/01/31 02:53:38.1	92.780	0.280	-0.630	0.230
2020/01/31 02:53:38.2	92.790	0.300	-0.670	0.240
2020/01/31 02:53:38.3	92.790	0.320	-0.710	0.250
2020/01/31 02:53:38.4	92.790	0.340	-0.740	0.260
2020/01/31 02:53:38.5	92.790	0.360	-0.770	0.280
2020/01/31 02:53:38.6	92.790	0.380	-0.790	0.300
2020/01/31 02:53:38.7	92.790	0.390	-0.810	0.320
2020/01/31 02:53:38.8	92.790	0.400	-0.820	0.350
2020/01/31 02:53:38.9	92.790	0.410	-0.830	0.380
2020/01/31 02:53:39.0	92.790	0.410	-0.820	0.410
2020/01/31 02:53:39.1	92.790	0.420	-0.810	0.440
2020/01/31 02:53:39.2	92.790	0.410	-0.800	0.480
2020/01/31 02:53:39.3	92.790	0.410	-0.770	0.520
2020/01/31 02:53:39.4	92.780	0.400	-0.730	0.570
2020/01/31 02:53:39.5	92.780	0.380	-0.690	0.610
2020/01/31 02:53:39.6	92.770	0.360	-0.640	0.660
2020/01/31 02:53:39.7	92.770	0.340	-0.590	0.700
2020/01/31 02:53:39.8	92.760	0.310	-0.520	0.740
2020/01/31 02:53:39.9	92.760	0.280	-0.460	0.790
2020/01/31 02:53:40.0	92.750	0.250	-0.380	0.830
2020/01/31 02:53:40.1	92.740	0.210	-0.300	0.870
2020/01/31 02:53:40.2	92.730	0.160	-0.220	0.900
2020/01/31 02:53:40.3	92.720	0.120	-0.140	0.940
2020/01/31 02:53:40.4	92.710	0.070	-0.060	0.970
2020/01/31 02:53:40.5	92.700	0.010	0.020	1.000
2020/01/31 02:53:40.6	92.690	-0.040	0.100	1.020
2020/01/31 02:53:40.7	92.680	-0.090	0.180	1.040
2020/01/31 02:53:40.8	92.670	-0.150	0.260	1.050
2020/01/31 02:53:40.9	92.660	-0.210	0.330	1.060
2020/01/31 02:53:41.0	92.650	-0.260	0.400	1.070
2020/01/31 02:53:41.1	92.640	-0.310	0.470	1.080
2020/01/31 02:53:41.2	92.630	-0.370	0.520	1.080
2020/01/31 02:53:41.3	92.620	-0.420	0.570	1.070
2020/01/31 02:53:41.4	92.610	-0.460	0.610	1.070
2020/01/31 02:53:41.5	92.600	-0.510	0.650	1.060
2020/01/31 02:53:41.6	92.600	-0.540	0.670	1.040
2020/01/31 02:53:41.7	92.600	-0.580	0.680	1.030
2020/01/31 02:53:41.8	92.600	-0.610	0.690	1.010
2020/01/31 02:53:41.9	92.600	-0.630	0.680	0.990
2020/01/31 02:53:42.0	92.610	-0.650	0.670	0.960
2020/01/31 02:53:42.1	92.610	-0.660	0.650	0.940
2020/01/31 02:53:42.2	92.620	-0.670	0.620	0.910
2020/01/31 02:53:42.3	92.630	-0.670	0.580	0.890
2020/01/31 02:53:42.4	92.640	-0.660	0.530	0.860
2020/01/31 02:53:42.5	92.660	-0.650	0.480	0.830
2020/01/31 02:53:42.6	92.670	-0.640	0.420	0.810
2020/01/31 02:53:42.7	92.690	-0.620	0.360	0.780
2020/01/31 02:53:42.8	92.710	-0.590	0.290	0.750
2020/01/31 02:53:42.9	92.730	-0.560	0.220	0.730
2020/01/31 02:53:43.0	92.750	-0.530	0.140	0.700
2020/01/31 02:53:43.1	92.780	-0.490	0.060	0.670
2020/01/31 02:53:43.2	92.810	-0.450	-0.020	0.640
2020/01/31 02:53:43.3	92.830	-0.410	-0.090	0.610
2020/01/31 02:53:43.4	92.850	-0.360	-0.170	0.580
2020/01/31 02:53:43.5	92.880	-0.310	-0.250	0.550
2020/01/31 02:53:43.6	92.900	-0.260	-0.330	0.520
2020/01/31 02:53:43.7	92.920	-0.210	-0.410	0.490
2020/01/31 02:53:43.8	92.940	-0.160	-0.480	0.460
2020/01/31 02:53:43.9	92.960	-0.110	-0.550	0.430
2020/01/31 02:53:44.0	92.980	-0.070	-0.610	0.400
2020/01/31 02:53:44.1	93.000	-0.020	-0.680	0.370
2020/01/31 02:53:44.2	93.010	0.030	-0.740	0.340
2020/01/31 02:53:44.3	93.030	0.070	-0.790	0.310
2020/01/31 02:53:44.4	93.040	0.110	-0.830	0.280
2020/01/31 02:53:44.5	93.050	0.150	-0.870	0.250
2020/01/31 02:53:44.6	93.050	0.190	-0.900	0.220
2020/01/31 02:53:44.7	93.050	0.220	-0.920	0.200
2020/01/31 02:53:44.8	93.060	0.250	-0.930	0.170
2020/01/31 02:53:44.9	93.060	0.270	-0.940	0.150
2020/01/31 02:53:45.0	93.050	0.300	-0.940	0.130
2020/01/31 02:53:45.1	93.050	0.310	-0.930	0.120
2020/01/31 02:53:45.2	93.040	0.330	-0.920	0.100
2020/01/31 02:53:45.3	93.030	0.340	-0.890	0.100
2020/01/31 02:53:45.4	93.020	0.340	-0.860	0.090
2020/01/31 02:53:45.5	93.010	0.350	-0.830	0.090
2020/01/31 02:53:45.6	93.000	0.340	-0.780	0.100
2020/01/31 02:53:45.7	92.980	0.340	-0.740	0.100
2020/01/31 02:53:45.8	92.960	0.330	-0.680	0.120
2020/01/31 02:53:45.9	92.950	0.320	-0.620	0.130
2020/01/31 02:53:46.0	92.930	0.300	-0.560	0.150
2020/01/31 02:53:46.1	92.910	0.280	-0.500	0.180
2020/01/31 02:53:46.2	92.890	0.260	-0.430	0.200
2020/01/31 02:53:46.3	92.870	0.240	-0.370	0.230
2020/01/31 02:53:46.4	92.850	0.210	-0.300	0.260
2020/01/31 02:53:46.5	92.820	0.190	-0.230	0.300
2020/01/31 02:53:46.6	92.800	0.160	-0.170	0.330
2020/01/31 02:53:46.7	92.780	0.130	-0.110	0.370
2020/01/31 02:53:46.8	92.760	0.100	-0.050	0.410
2020/01/31 02:53:46.9	92.740	0.070	0.000	0.440
2020/01/31 02:53:47.0	92.730	0.040	0.050	0.480
2020/01/31 02:53:47.1	92.710	0.020	0.090	0.510
2020/01/31 02:53:47.2	92.690	-0.010	0.130	0.540
2020/01/31 02:53:47.3	92.680	-0.030	0.160	0.560
2020/01/31 02:53:47.4	92.670	-0.050	0.180	0.580
2020/01/31 02:53:47.5	92.660	-0.070	0.200	0.600
2020/01/31 02:53:47.6	92.650	-0.090	0.210	0.620
2020/01/31 02:53:47.7	92.650	-0.100	0.210	0.620
2020/01/31 02:53:47.8	92.650	-0.110	0.200	0.630
2020/01/31 02:53:47.9	92.650	-0.110	0.190	0.630
2020/01/31 02:53:48.0	92.650	-0.120	0.170	0.620
2020/01/31 02:53:48.1	92.650	-0.110	0.140	0.610
2020/01/31 02:53:48.2	92.650	-0.110	0.110	0.600
2020/01/31 02:53:48.3	92.660	-0.100	0.070	0.580
2020/01/31 02:53:48.4	92.670	-0.080	0.030	0.560
2020/01/31 02:53:48.5	92.680	-0.070	-0.020	0.540
2020/01/31 02:53:48.6	92.690	-0.040	-0.080	0.520
2020/01/31 02:53:48.7	92.700	-0.020	-0.130	0.490
2020/01/31 02:53:48.8	92.720	0.010	-0.190	0.470
2020/01/31 02:53:48.9	92.730	0.050	-0.260	0.450
2020/01/31 02:53:49.0	92.740	0.080	-0.320	0.440
2020/01/31 02:53:49.1	92.750	0.120	-0.390	0.420
2020/01/31 02:53:49.2	92.760	0.160	-0.450	0.410
2020/01/31 02:53:49.3	92.770	0.200	-0.510	0.400
2020/01/31 02:53:49.4	92.780	0.250	-0.570	0.400
2020/01/31 02:53:49.5	92.780	0.290	-0.630	0.410
2020/01/31 02:53:49.6	92.790	0.330	-0.680	0.410
2020/01/31 02:53:49.7	92.790	0.370	-0.730	0.430
2020/01/31 02:53:49.8	92.790	0.410	-0.760	0.440
2020/01/31 02:53:49.9	92.790	0.450	-0.800	0.460
2020/01/31 02:53:50.0	92.790	0.480	-0.820	0.490
2020/01/31 02:53:50.1	92.780	0.510	-0.830	0.510
2020/01/31 02:53:50.2	92.780	0.530	-0.840	0.540
2020/01/31 02:53:50.3	92.770	0.550	-0.830	0.570
2020/01/31 02:53:50.4	92.760	0.560	-0.820	0.600
2020/01/31 02:53:50.5	92.750	0.570	-0.790	0.630
2020/01/31 02:53:50.6	92.740	0.570	-0.750	0.660
2020/01/31 02:53:50.7	92.730	0.560	-0.710	0.680
2020/01/31 02:53:50.8	92.720	0.550	-0.650	0.710
2020/01/31 02:53:50.9	92.700	0.520	-0.590	0.740
2020/01/31 02:53:51.0	92.690	0.500	-0.520	0.760
2020/01/31 02:53:51.1	92.680	0.460	-0.430	0.790
2020/01/31 02:53:51.2	92.660	0.420	-0.350	0.810
2020/01/31 02:53:51.3	92.650	0.380	-0.260	0.830
2020/01/31 02:53:51.4	92.640	0.320	-0.160	0.850
2020/01/31 02:53:51.5	92.620	0.270	-0.060	0.870
2020/01/31 02:53:51.6	92.610	0.200	0.040	0.890
2020/01/31 02:53:51.7	92.600	0.140	0.140	0.900
2020/01/31 02:53:51.8	92.580	0.070	0.240	0.920
2020/01/31 02:53:51.9	92.570	-0.000	0.340	0.930
2020/01/31 02:53:52.0	92.560	-0.080	0.440	0.940
2020/01/31 02:53:52.1	92.540	-0.150	0.530	0.940
2020/01/31 02:53:52.2	92.530	-0.230	0.620	0.950
2020/01/31 02:53:52.3	92.520	-0.300	0.710	0.950
2020/01/31 02:53:52.4	92.510	-0.370	0.780	0.950
2020/01/31 02:53:52.5	92.500	-0.440	0.850	0.950
2020/01/31 02:53:52.6	92.490	-0.500	0.900	0.950
2020/01/31 02:53:52.7	92.480	-0.570	0.950	0.950
2020/01/31 02:53:52.8	92.480	-0.620	0.990	0.940
2020/01/31 02:53:52.9	92.470	-0.670	1.010	0.930
2020/01/31 02:53:53.0	92.470	-0.720	1.020	0.920
2020/01/31 02:53:53.1	92.470	-0.760	1.020	0.910
2020/01/31 02:53:53.2	92.470	-0.790	1.010	0.890
2020/01/31 02:53:53.3	92.480	-0.820	0.990	0.880
2020/01/31 02:53:53.4	92.480	-0.830	0.950	0.850
2020/01/31 02:53:53.5	92.490	-0.840	0.900	0.830
2020/01/31 02:53:53.6	92.500	-0.840	0.840	0.800
2020/01/31 02:53:53.7	92.510	-0.840	0.760	0.770
2020/01/31 02:53:53.8	92.520	-0.820	0.680	0.740
2020/01/31 02:53:53.9	92.540	-0.800	0.580	0.710
2020/01/31 02:53:54.0	92.550	-0.770	0.480	0.680
2020/01/31 02:53:54.1	92.570	-0.730	0.360	0.640
2020/01/31 02:53:54.2	92.590	-0.690	0.250	0.610
2020/01/31 02:53:54.3	92.610	-0.640	0.120	0.570
2020/01/31 02:53:54.4	92.620	-0.590	-0.010	0.540
2020/01/31 02:53:54.5	92.640	-0.530	-0.140	0.510
2020/01/31 02:53:54.6	92.660	-0.470	-0.280	0.480
2020/01/31 02:53:54.7	92.680	-0.400	-0.420	0.440
2020/01/31 02:53:54.8	92.690	-0.330	-0.550	0.420
2020/01/31 02:53:54.9	92.710	-0.260	-0.680	0.390
2020/01/31 02:53:55.0	92.720	-0.190	-0.810	0.360
2020/01/31 02:53:55.1	92.730	-0.110	-0.940	0.340
2020/01/31 02:53:55.2	92.740	-0.040	-1.060	0.320
2020/01/31 02:53:55.3	92.750	0.030	-1.170	0.310
2020/01/31 02:53:55.4	92.750	0.100	-1.270	0.300
2020/01/31 02:53:55.5	92.760	0.170	-1.360	0.290
2020/01/31 02:53:55.6	92.760	0.230	-1.440	0.290
2020/01/31 02:53:55.7	92.760	0.300	-1.510	0.290
2020/01/31 02:53:55.8	92.750	0.350	-1.560	0.290
2020/01/31 02:53:55.9	92.750	0.400	-1.600	0.300
2020/01/31 02:53:56.0	92.740	0.450	-1.630	0.310
2020/01/31 02:53:56.1	92.730	0.490	-1.630	0.330
2020/01/31 02:53:56.2	92.730	0.520	-1.630	0.350
2020/01/31 02:53:56.3	92.720	0.550	-1.610	0.370
2020/01/31 02:53:56.4	92.700	0.570	-1.570	0.400
2020/01/31 02:53:56.5	92.690	0.590	-1.520	0.430
2020/01/31 02:53:56.6	92.680	0.590	-1.460	0.460
2020/01/31 02:53:56.7	92.660	0.590	-1.380	0.490
2020/01/31 02:53:56.8	92.640	0.590	-1.300	0.520
2020/01/31 02:53:56.9	92.630	0.580	-1.200	0.550
2020/01/31 02:53:57.0	92.610	0.560	-1.090	0.590
2020/01/31 02:53:57.1	92.590	0.530	-0.970	0.620
2020/01/31 02:53:57.2	92.570	0.500	-0.840	0.660
2020/01/31 02:53:57.3	92.560	0.470	-0.720	0.690
2020/01/31 02:53:57.4	92.540	0.430	-0.580	0.720
2020/01/31 02:53:57.5	92.530	0.390	-0.450	0.750
2020/01/31 02:53:57.6	92.520	0.340	-0.310	0.780
2020/01/31 02:53:57.7	92.510	0.290	-0.170	0.810
2020/01/31 02:53:57.8	92.490	0.240	-0.040	0.830
2020/01/31 02:53:57.9	92.480	0.190	0.090	0.860
2020/01/31 02:53:58.0	92.480	0.140	0.210	0.880
2020/01/31 02:53:58.1	92.470	0.090	0.330	0.890
2020/01/31 02:53:58.2	92.460	0.030	0.440	0.900
2020/01/31 02:53:58.3	92.450	-0.020	0.540	0.910
2020/01/31 02:53:58.4	92.450	-0.060	0.630	0.920
2020/01/31 02:53:58.5	92.440	-0.110	0.710	0.920
2020/01/31 02:53:58.6	92.440	-0.150	0.780	0.920
2020/01/31 02:53:58.7	92.440	-0.190	0.830	0.910
2020/01/31 02:53:58.8	92.430	-0.230	0.870	0.900
2020/01/31 02:53:58.9	92.430	-0.260	0.900	0.890
2020/01/31 02:53:59.0	92.430	-0.290	0.920	0.870
2020/01/31 02:53:59.1	92.430	-0.310	0.930	0.850
2020/01/31 02:53:59.2	92.430	-0.330	0.920	0.820
2020/01/31 02:53:59.3	92.430	-0.340	0.900	0.790
2020/01/31 02:53:59.4	92.430	-0.350	0.860	0.760
2020/01/31 02:53:59.5	92.430	-0.350	0.820	0.730
2020/01/31 02:53:59.6	92.430	-0.350	0.760	0.690
2020/01/31 02:53:59.7	92.430	-0.340	0.690	0.650
2020/01/31 02:53:59.8	92.440	-0.320	0.620	0.620
2020/01/31 02:53:59.9	92.440	-0.310	0.530	0.580
2020/01/31 02:54:00.0	92.440	-0.280	0.440	0.550
2020/01/31 02:54:00.1	92.440	-0.260	0.340	0.510
2020/01/31 02:54:00.2	92.440	-0.230	0.240	0.480
2020/01/31 02:54:00.3	92.440	-0.190	0.130	0.450
2020/01/31 02:54:00.4	92.440	-0.150	0.020	0.420
2020/01/31 02:54:00.5	92.450	-0.110	-0.090	0.390
2020/01/31 02:54:00.6	92.450	-0.070	-0.200	0.370
2020/01/31 02:54:00.7	92.450	-0.030	-0.300	0.350
2020/01/31 02:54:00.8	92.450	0.020	-0.410	0.330
2020/01/31 02:54:00.9	92.460	0.060	-0.510	0.320
2020/01/31 02:54:01.0	92.460	0.110	-0.600	0.310
2020/01/31 02:54:01.1	92.470	0.150	-0.690	0.310
2020/01/31 02:54:01.2	92.470	0.200	-0.770	0.300
2020/01/31 02:54:01.3	92.480	0.240	-0.850	0.310
2020/01/31 02:54:01.4	92.480	0.280	-0.910	0.310
2020/01/31 02:54:01.5	92.480	0.320	-0.970	0.320
2020/01/31 02:54:01.6	92.490	0.350	-1.020	0.330
2020/01/31 02:54:01.7	92.490	0.380	-1.050	0.340
2020/01/31 02:54:01.8	92.500	0.410	-1.080	0.360
2020/01/31 02:54:01.9	92.500	0.430	-1.100	0.370
2020/01/31 02:54:02.0	92.510	0.450	-1.110	0.390
2020/01/31 02:54:02.1	92.510	0.460	-1.110	0.410
2020/01/31 02:54:02.2	92.520	0.470	-1.100	0.420
2020/01/31 02:54:02.3	92.530	0.480	-1.080	0.440
2020/01/31 02:54:02.4	92.540	0.480	-1.050	0.460
2020/01/31 02:54:02.5	92.540	0.470	-1.020	0.470
2020/01/31 02:54:02.6	92.550	0.460	-0.970	0.490
2020/01/31 02:54:02.7	92.570	0.450	-0.920	0.500
2020/01/31 02:54:02.8	92.580	0.430	-0.870	0.510
2020/01/31 02:54:02.9	92.590	0.410	-0.810	0.530
2020/01/31 02:54:03.0	92.600	0.380	-0.740	0.540
2020/01/31 02:54:03.1	92.610	0.360	-0.670	0.550
2020/01/31 02:54:03.2	92.630	0.330	-0.600	0.560
2020/01/31 02:54:03.3	92.640	0.290	-0.520	0.570
2020/01/31 02:54:03.4	92.650	0.260	-0.450	0.580
2020/01/31 02:54:03.5	92.660	0.220	-0.370	0.600
2020/01/31 02:54:03.6	92.680	0.180	-0.290	0.610
2020/01/31 02:54:03.7	92.690	0.140	-0.220	0.630
2020/01/31 02:54:03.8	92.700	0.100	-0.140	0.650
2020/01/31 02:54:03.9	92.710	0.060	-0.070	0.670
2020/01/31 02:54:04.0	92.720	0.020	-0.000	0.690
2020/01/31 02:54:04.1	92.730	-0.010	0.070	0.710
2020/01/31 02:54:04.2	92.740	-0.050	0.130	0.740
2020/01/31 02:54:04.3	92.750	-0.080	0.180	0.770
2020/01/31 02:54:04.4	92.750	-0.120	0.230	0.800
2020/01/31 02:54:04.5	92.760	-0.150	0.270	0.830
2020/01/31 02:54:04.6	92.770	-0.170	0.310	0.870
2020/01/31 02:54:04.7	92.770	-0.200	0.340	0.900
2020/01/31 02:54:04.8	92.770	-0.220	0.370	0.930
2020/01/31 02:54:04.9	92.780	-0.240	0.390	0.970
2020/01/31 02:54:05.0	92.780	-0.250	0.400	1.000
2020/01/31 02:54:05.1	92.790	-0.270	0.400	1.040
2020/01/31 02:54:05.2	92.790	-0.280	0.390	1.070
2020/01/31 02:54:05.3	92.800	-0.280	0.390	1.110
2020/01/31 02:54:05.4	92.800	-0.290	0.370	1.140
2020/01/31 02:54:05.5	92.810	-0.290	0.350	1.160
2020/01/31 02:54:05.6	92.810	-0.290	0.330	1.190
2020/01/31 02:54:05.7	92.820	-0.290	0.300	1.210
2020/01/31 02:54:05.8	92.820	-0.290	0.270	1.230
2020/01/31 02:54:05.9	92.830	-0.280	0.230	1.240
2020/01/31 02:54:06.0	92.830	-0.280	0.200	1.250
2020/01/31 02:54:06.1	92.830	-0.270	0.160	1.250
2020/01/31 02:54:06.2	92.840	-0.260	0.130	1.260
2020/01/31 02:54:06.3	92.840	-0.260	0.090	1.250
2020/01/31 02:54:06.4	92.850	-0.250	0.050	1.250
2020/01/31 02:54:06.5	92.850	-0.250	0.020	1.240
2020/01/31 02:54:06.6	92.860	-0.240	-0.010	1.220
2020/01/31 02:54:06.7	92.860	-0.240	-0.040	1.210
2020/01/31 02:54:06.8	92.870	-0.240	-0.060	1.190
2020/01/31 02:54:06.9	92.870	-0.240	-0.080	1.160
2020/01/31 02:54:07.0	92.870	-0.240	-0.100	1.140
2020/01/31 02:54:07.1	92.870	-0.240	-0.110	1.110
2020/01/31 02:54:07.2	92.880	-0.240	-0.120	1.080
2020/01/31 02:54:07.3	92.880	-0.250	-0.130	1.050
2020/01/31 02:54:07.4	92.890	-0.250	-0.130	1.020
2020/01/31 02:54:07.5	92.890	-0.260	-0.130	0.990
2020/01/31 02:54:07.6	92.900	-0.260	-0.120	0.960
2020/01/31 02:54:07.7	92.900	-0.270	-0.110	0.930
2020/01/31 02:54:07.8	92.910	-0.280	-0.100	0.900
2020/01/31 02:54:07.9	92.920	-0.280	-0.090	0.860
2020/01/31 02:54:08.0	92.930	-0.290	-0.070	0.830
2020/01/31 02:54:08.1	92.940	-0.290	-0.050	0.790
2020/01/31 02:54:08.2	92.950	-0.300	-0.040	0.750
2020/01/31 02:54:08.3	92.960	-0.300	-0.020	0.710
2020/01/31 02:54:08.4	92.980	-0.300	-0.010	0.670
2020/01/31 02:54:08.5	92.990	-0.300	0.000	0.630
2020/01/31 02:54:08.6	93.010	-0.300	0.010	0.590
2020/01/31 02:54:08.7	93.030	-0.300	0.010	0.550
2020/01/31 02:54:08.8	93.040	-0.290	0.020	0.500
2020/01/31 02:54:08.9	93.060	-0.280	0.010	0.460
2020/01/31 02:54:09.0	93.080	-0.270	0.000	0.420
2020/01/31 02:54:09.1	93.100	-0.250	-0.010	0.370
2020/01/31 02:54:09.2	93.120	-0.230	-0.030	0.320
2020/01/31 02:54:09.3	93.150	-0.210	-0.050	0.280
2020/01/31 02:54:09.4	93.170	-0.180	-0.080	0.240
2020/01/31 02:54:09.5	93.190	-0.160	-0.120	0.200
2020/01/31 02:54:09.6	93.220	-0.120	-0.160	0.160
2020/01/31 02:54:09.7	93.250	-0.090	-0.200	0.120
2020/01/31 02:54:09.8	93.270	-0.050	-0.250	0.090
2020/01/31 02:54:09.9	93.300	-0.010	-0.300	0.060
2020/01/31 02:54:10.0	93.320	0.030	-0.360	0.030
2020/01/31 02:54:10.1	93.340	0.070	-0.410	0.010
2020/01/31 02:54:10.2	93.360	0.120	-0.470	-0.010
2020/01/31 02:54:10.3	93.380	0.170	-0.530	-0.030
2020/01/31 02:54:10.4	93.400	0.210	-0.590	-0.040
2020/01/31 02:54:10.5	93.420	0.260	-0.650	-0.050
2020/01/31 02:54:10.6	93.430	0.310	-0.710	-0.060
2020/01/31 02:54:10.7	93.440	0.360	-0.770	-0.060
2020/01/31 02:54:10.8	93.450	0.400	-0.830	-0.050
2020/01/31 02:54:10.9	93.450	0.440	-0.880	-0.050
2020/01/31 02:54:11.0	93.450	0.490	-0.930	-0.040
2020/01/31 02:54:11.1	93.450	0.530	-0.970	-0.030
2020/01/31 02:54:11.2	93.440	0.560	-1.010	-0.020
2020/01/31 02:54:11.3	93.430	0.600	-1.040	-0.010
2020/01/31 02:54:11.4	93.420	0.630	-1.060	0.010
2020/01/31 02:54:11.5	93.400	0.650	-1.080	0.020
2020/01/31 02:54:11.6	93.380	0.670	-1.080	0.040
2020/01/31 02:54:11.7	93.360	0.690	-1.080	0.050
2020/01/31 02:54:11.8	93.330	0.700	-1.070	0.070
2020/01/31 02:54:11.9	93.310	0.710	-1.050	0.080
2020/01/31 02:54:12.0	93.280	0.710	-1.020	0.100
2020/01/31 02:54:12.1	93.260	0.700	-0.970	0.120
2020/01/31 02:54:12.2	93.230	0.690	-0.920	0.130
2020/01/31 02:54:12.3	93.200	0.680	-0.860	0.150
2020/01/31 02:54:12.4	93.170	0.660	-0.800	0.170
2020/01/31 02:54:12.5	93.140	0.630	-0.730	0.190
2020/01/31 02:54:12.6	93.110	0.600	-0.650	0.220
2020/01/31 02:54:12.7	93.080	0.570	-0.560	0.240
2020/01/31 02:54:12.8	93.060	0.530	-0.480	0.260
2020/01/31 02:54:12.9	93.030	0.490	-0.380	0.290
2020/01/31 02:54:13.0	93.010	0.450	-0.290	0.320
2020/01/31 02:54:13.1	92.980	0.400	-0.200	0.340
2020/01/31 02:54:13.2	92.960	0.360	-0.100	0.370
2020/01/31 02:54:13.3	92.940	0.310	-0.010	0.390
2020/01/31 02:54:13.4	92.930	0.260	0.080	0.420
2020/01/31 02:54:13.5	92.910	0.210	0.170	0.450
2020/01/31 02:54:13.6	92.900	0.160	0.250	0.470
2020/01/31 02:54:13.7	92.890	0.110	0.320	0.500
2020/01/31 02:54:13.8	92.890	0.060	0.390	0.520
2020/01/31 02:54:13.9	92.890	0.010	0.450	0.540
2020/01/31 02:54:14.0	92.890	-0.030	0.500	0.560
2020/01/31 02:54:14.1	92.890	-0.070	0.550	0.580
2020/01/31 02:54:14.2	92.900	-0.110	0.580	0.590
2020/01/31 02:54:14.3	92.900	-0.140	0.600	0.610
2020/01/31 02:54:14.4	92.910	-0.170	0.610	0.610
2020/01/31 02:54:14.5	92.930	-0.200	0.610	0.620
2020/01/31 02:54:14.6	92.940	-0.220	0.590	0.620
2020/01/31 02:54:14.7	92.950	-0.230	0.570	0.620
2020/01/31 02:54:14.8	92.970	-0.240	0.530	0.610
2020/01/31 02:54:14.9	92.990	-0.240	0.490	0.610
2020/01/31 02:54:15.0	93.000	-0.240	0.430	0.600
2020/01/31 02:54:15.1	93.010	-0.240	0.360	0.580
2020/01/31 02:54:15.2	93.030	-0.230	0.290	0.560
2020/01/31 02:54:15.3	93.040	-0.210	0.200	0.540
2020/01/31 02:54:15.4	93.060	-0.190	0.120	0.530
2020/01/31 02:54:15.5	93.070	-0.170	0.030	0.510
2020/01/31 02:54:15.6	93.080	-0.150	-0.070	0.490
2020/01/31 02:54:15.7	93.090	-0.120	-0.170	0.470
2020/01/31 02:54:15.8	93.110	-0.090	-0.260	0.460
2020/01/31 02:54:15.9	93.110	-0.070	-0.360	0.450
2020/01/31 02:54:16.0	93.120	-0.040	-0.450	0.440
2020/01/31 02:54:16.1	93.130	-0.010	-0.540	0.430
2020/01/31 02:54:16.2	93.130	0.020	-0.620	0.430
2020/01/31 02:54:16.3	93.130	0.040	-0.690	0.430
2020/01/31 02:54:16.4	93.140	0.070	-0.750	0.440
2020/01/31 02:54:16.5	93.140	0.090	-0.810	0.450
2020/01/31 02:54:16.6	93.140	0.110	-0.850	0.470
2020/01/31 02:54:16.7	93.130	0.120	-0.890	0.500
2020/01/31 02:54:16.8	93.130	0.130	-0.910	0.530
2020/01/31 02:54:16.9	93.120	0.130	-0.920	0.570
2020/01/31 02:54:17.0	93.110	0.130	-0.920	0.610
2020/01/31 02:54:17.1	93.100	0.130	-0.910	0.660
2020/01/31 02:54:17.2	93.090	0.120	-0.890	0.720
2020/01/31 02:54:17.3	93.070	0.100	-0.850	0.780
2020/01/31 02:54:17.4	93.060	0.080	-0.810	0.840
2020/01/31 02:54:17.5	93.040	0.060	-0.750	0.900
2020/01/31 02:54:17.6	93.020	0.020	-0.680	0.970
2020/01/31 02:54:17.7	93.010	-0.010	-0.610	1.030
2020/01/31 02:54:17.8	92.990	-0.050	-0.530	1.090
2020/01/31 02:54:17.9	92.980	-0.100	-0.440	1.150
2020/01/31 02:54:18.0	92.960	-0.150	-0.350	1.210
2020/01/31 02:54:18.1	92.950	-0.200	-0.250	1.270
2020/01/31 02:54:18.2	92.940	-0.250	-0.150	1.310
2020/01/31 02:54:18.3	92.930	-0.310	-0.050	1.360
2020/01/31 02:54:18.4	92.920	-0.370	0.050	1.390
2020/01/31 02:54:18.5	92.910	-0.430	0.150	1.420
2020/01/31 02:54:18.6	92.910	-0.490	0.240	1.440
2020/01/31 02:54:18.7	92.910	-0.540	0.330	1.450
2020/01/31 02:54:18.8	92.910	-0.600	0.420	1.460
2020/01/31 02:54:18.9	92.910	-0.660	0.500	1.460
2020/01/31 02:54:19.0	92.920	-0.710	0.570	1.440
2020/01/31 02:54:19.1	92.930	-0.760	0.630	1.420
2020/01/31 02:54:19.2	92.940	-0.810	0.690	1.390
2020/01/31 02:54:19.3	92.960	-0.850	0.730	1.350
2020/01/31 02:54:19.4	92.970	-0.880	0.760	1.310
2020/01/31 02:54:19.5	92.990	-0.910	0.790	1.270
2020/01/31 02:54:19.6	93.020	-0.940	0.800	1.210
2020/01/31 02:54:19.7	93.040	-0.950	0.800	1.160
2020/01/31 02:54:19.8	93.060	-0.960	0.790	1.100
2020/01/31 02:54:19.9	93.090	-0.960	0.760	1.040
2020/01/31 02:54:20.0	93.120	-0.960	0.730	0.980
2020/01/31 02:54:20.1	93.140	-0.940	0.680	0.910
2020/01/31 02:54:20.2	93.170	-0.920	0.630	0.850
2020/01/31 02:54:20.3	93.200	-0.890	0.560	0.790
2020/01/31 02:54:20.4	93.220	-0.850	0.480	0.730
2020/01/31 02:54:20.5	93.250	-0.810	0.390	0.680
2020/01/31 02:54:20.6	93.270	-0.750	0.300	0.630
2020/01/31 02:54:20.7	93.290	-0.690	0.200	0.590
2020/01/31 02:54:20.8	93.310	-0.620	0.100	0.550
2020/01/31 02:54:20.9	93.330	-0.550	-0.010	0.510
2020/01/31 02:54:21.0	93.350	-0.470	-0.120	0.490
2020/01/31 02:54:21.1	93.360	-0.390	-0.240	0.460
2020/01/31 02:54:21.2	93.370	-0.310	-0.350	0.440
2020/01/31 02:54:21.3	93.380	-0.220	-0.460	0.420
2020/01/31 02:54:21.4	93.390	-0.130	-0.570	0.410
2020/01/31 02:54:21.5	93.390	-0.040	-0.670	0.410
2020/01/31 02:54:21.6	93.400	0.050	-0.760	0.400
2020/01/31 02:54:21.7	93.400	0.130	-0.850	0.400
2020/01/31 02:54:21.8	93.400	0.220	-0.920	0.400
2020/01/31 02:54:21.9	93.390	0.300	-0.990	0.410
2020/01/31 02:54:22.0	93.390	0.380	-1.050	0.410
2020/01/31 02:54:22.1	93.380	0.450	-1.100	0.410
2020/01/31 02:54:22.2	93.370	0.520	-1.130	0.420
2020/01/31 02:54:22.3	93.360	0.580	-1.150	0.420
2020/01/31 02:54:22.4	93.340	0.640	-1.160	0.420
2020/01/31 02:54:22.5	93.330	0.690	-1.160	0.420
2020/01/31 02:54:22.6	93.310	0.730	-1.150	0.420
2020/01/31 02:54:22.7	93.300	0.760	-1.120	0.420
2020/01/31 02:54:22.8	93.280	0.790	-1.090	0.410
2020/01/31 02:54:22.9	93.260	0.810	-1.040	0.410
2020/01/31 02:54:23.0	93.240	0.820	-0.990	0.400
2020/01/31 02:54:23.1	93.220	0.830	-0.920	0.390
2020/01/31 02:54:23.2	93.190	0.830	-0.850	0.390
2020/01/31 02:54:23.3	93.170	0.820	-0.770	0.380
2020/01/31 02:54:23.4	93.150	0.800	-0.690	0.370
2020/01/31 02:54:23.5	93.120	0.780	-0.600	0.370
2020/01/31 02:54:23.6	93.100	0.760	-0.520	0.360
2020/01/31 02:54:23.7	93.080	0.730	-0.430	0.360
2020/01/31 02:54:23.8	93.060	0.690	-0.340	0.350
2020/01/31 02:54:23.9	93.040	0.650	-0.260	0.350
2020/01/31 02:54:24.0	93.020	0.610	-0.180	0.340
2020/01/31 02:54:24.1	93.000	0.570	-0.090	0.330
2020/01/31 02:54:24.2	92.990	0.530	-0.020	0.330
2020/01/31 02:54:24.3	92.980	0.480	0.050	0.320
2020/01/31 02:54:24.4	92.970	0.440	0.110	0.310
2020/01/31 02:54:24.5	92.960	0.400	0.160	0.300
2020/01/31 02:54:24.6	92.950	0.360	0.200	0.290
2020/01/31 02:54:24.7	92.950	0.320	0.240	0.280
2020/01/31 02:54:24.8	92.940	0.280	0.260	0.260
2020/01/31 02:54:24.9	92.940	0.250	0.280	0.250
2020/01/31 02:54:25.0	92.940	0.220	0.290	0.230
2020/01/31 02:54:25.1	92.940	0.200	0.280	0.210
2020/01/31 02:54:25.2	92.940	0.180	0.280	0.190
2020/01/31 02:54:25.3	92.950	0.160	0.260	0.170
2020/01/31 02:54:25.4	92.950	0.150	0.230	0.150
2020/01/31 02:54:25.5	92.960	0.140	0.200	0.130
2020/01/31 02:54:25.6	92.960	0.130	0.170	0.100
2020/01/31 02:54:25.7	92.970	0.130	0.130	0.080
2020/01/31 02:54:25.8	92.970	0.130	0.080	0.060
2020/01/31 02:54:25.9	92.980	0.140	0.030	0.040
2020/01/31 02:54:26.0	92.980	0.150	-0.020	0.020
2020/01/31 02:54:26.1	92.990	0.160	-0.070	-0.010
2020/01/31 02:54:26.2	93.000	0.170	-0.130	-0.020
2020/01/31 02:54:26.3	93.000	0.180	-0.180	-0.030
2020/01/31 02:54:26.4	93.010	0.190	-0.240	-0.040
2020/01/31 02:54:26.5	93.010	0.210	-0.290	-0.040
2020/01/31 02:54:26.6	93.010	0.220	-0.340	-0.040
2020/01/31 02:54:26.7	93.020	0.240	-0.390	-0.030
2020/01/31 02:54:26.8	93.020	0.250	-0.430	-0.020
2020/01/31 02:54:26.9	93.020	0.260	-0.470	-0.010
2020/01/31 02:54:27.0	93.020	0.280	-0.510	0.010
2020/01/31 02:54:27.1	93.020	0.280	-0.540	0.040
2020/01/31 02:54:27.2	93.020	0.290	-0.570	0.070
2020/01/31 02:54:27.3	93.020	0.300	-0.590	0.110
2020/01/31 02:54:27.4	93.020	0.300	-0.600	0.150
2020/01/31 02:54:27.5	93.010	0.300	-0.610	0.200
2020/01/31 02:54:27.6	93.010	0.300	-0.610	0.240
2020/01/31 02:54:27.7	93.010	0.290	-0.610	0.290
2020/01/31 02:54:27.8	93.010	0.280	-0.600	0.350
2020/01/31 02:54:27.9	93.000	0.270	-0.590	0.400
2020/01/31 02:54:28.0	93.000	0.250	-0.570	0.450
2020/01/31 02:54:28.1	92.990	0.230	-0.540	0.510
2020/01/31 02:54:28.2	92.990	0.210	-0.510	0.560
2020/01/31 02:54:28.3	92.990	0.180	-0.480	0.610
2020/01/31 02:54:28.4	92.990	0.150	-0.440	0.670
2020/01/31 02:54:28.5	92.990	0.120	-0.400	0.720
2020/01/31 02:54:28.6	93.000	0.090	-0.360	0.760
2020/01/31 02:54:28.7	93.000	0.050	-0.310	0.810
2020/01/31 02:54:28.8	93.010	0.010	-0.260	0.850
2020/01/31 02:54:28.9	93.010	-0.030	-0.210	0.890
2020/01/31 02:54:29.0	93.020	-0.080	-0.160	0.930
2020/01/31 02:54:29.1	93.030	-0.120	-0.110	0.960
2020/01/31 02:54:29.2	93.040	-0.170	-0.050	1.000
2020/01/31 02:54:29.3	93.050	-0.210	0.000	1.020
2020/01/31 02:54:29.4	93.060	-0.260	0.050	1.050
2020/01/31 02:54:29.5	93.080	-0.310	0.100	1.080
2020/01/31 02:54:29.6	93.090	-0.360	0.150	1.100
2020/01/31 02:54:29.7	93.100	-0.400	0.200	1.120
2020/01/31 02:54:29.8	93.120	-0.450	0.240	1.140
2020/01/31 02:54:29.9	93.130	-0.490	0.280	1.150
2020/01/31 02:54:30.0	93.150	-0.530	0.310	1.170
2020/01/31 02:54:30.1	93.160	-0.570	0.340	1.180
2020/01/31 02:54:30.2	93.170	-0.600	0.370	1.180
2020/01/31 02:54:30.3	93.190	-0.630	0.390	1.190
2020/01/31 02:54:30.4	93.200	-0.660	0.400	1.190
2020/01/31 02:54:30.5	93.210	-0.690	0.410	1.190
2020/01/31 02:54:30.6	93.230	-0.700	0.410	1.180
2020/01/31 02:54:30.7	93.240	-0.720	0.410	1.170
2020/01/31 02:54:30.8	93.250	-0.730	0.400	1.160
2020/01/31 02:54:30.9	93.270	-0.730	0.380	1.150
2020/01/31 02:54:31.0	93.280	-0.730	0.360	1.130
2020/01/31 02:54:31.1	93.290	-0.720	0.340	1.110
2020/01/31 02:54:31.2	93.310	-0.710	0.310	1.090
2020/01/31 02:54:31.3	93.320	-0.690	0.270	1.070
2020/01/31 02:54:31.4	93.340	-0.670	0.230	1.050
2020/01/31 02:54:31.5	93.350	-0.650	0.180	1.030
2020/01/31 02:54:31.6	93.370	-0.620	0.140	1.010
2020/01/31 02:54:31.7	93.390	-0.580	0.080	0.990
2020/01/31 02:54:31.8	93.400	-0.540	0.030	0.970
2020/01/31 02:54:31.9	93.420	-0.500	-0.030	0.950
2020/01/31 02:54:32.0	93.430	-0.450	-0.090	0.930
2020/01/31 02:54:32.1	93.450	-0.400	-0.150	0.920
2020/01/31 02:54:32.2	93.460	-0.350	-0.210	0.900
2020/01/31 02:54:32.3	93.480	-0.300	-0.270	0.890
2020/01/31 02:54:32.4	93.490	-0.240	-0.330	0.880
2020/01/31 02:54:32.5	93.490	-0.190	-0.390	0.880
2020/01/31 02:54:32.6	93.500	-0.130	-0.450	0.870
2020/01/31 02:54:32.7	93.500	-0.070	-0.510	0.870
2020/01/31 02:54:32.8	93.500	-0.020	-0.560	0.870
2020/01/31 02:54:32.9	93.500	0.040	-0.610	0.860
2020/01/31 02:54:33.0	93.490	0.090	-0.650	0.870
2020/01/31 02:54:33.1	93.480	0.140	-0.690	0.870
2020/01/31 02:54:33.2	93.470	0.190	-0.730	0.870
2020/01/31 02:54:33.3	93.450	0.230	-0.760	0.870
2020/01/31 02:54:33.4	93.430	0.280	-0.780	0.870
2020/01/31 02:54:33.5	93.410	0.310	-0.800	0.870
2020/01/31 02:54:33.6	93.380	0.340	-0.810	0.870
2020/01/31 02:54:33.7	93.350	0.370	-0.810	0.870
2020/01/31 02:54:33.8	93.330	0.400	-0.810	0.870
2020/01/31 02:54:33.9	93.290	0.410	-0.800	0.860
2020/01/31 02:54:34.0	93.260	0.430	-0.790	0.860
2020/01/31 02:54:34.1	93.230	0.430	-0.770	0.840
2020/01/31 02:54:34.2	93.200	0.440	-0.740	0.840
2020/01/31 02:54:34.3	93.160	0.430	-0.710	0.830
2020/01/31 02:54:34.4	93.120	0.430	-0.680	0.820
2020/01/31 02:54:34.5	93.090	0.410	-0.640	0.810
2020/01/31 02:54:34.6	93.050	0.400	-0.600	0.800
2020/01/31 02:54:34.7	93.020	0.380	-0.560	0.790
2020/01/31 02:54:34.8	92.990	0.350	-0.510	0.780
2020/01/31 02:54:34.9	92.960	0.320	-0.470	0.770
2020/01/31 02:54:35.0	92.930	0.290	-0.420	0.770
2020/01/31 02:54:35.1	92.900	0.260	-0.370	0.760
2020/01/31 02:54:35.2	92.880	0.230	-0.320	0.750
2020/01/31 02:54:35.3	92.860	0.190	-0.280	0.740
2020/01/31 02:54:35.4	92.850	0.150	-0.230	0.730
2020/01/31 02:54:35.5	92.840	0.120	-0.190	0.720
2020/01/31 02:54:35.6	92.830	0.080	-0.150	0.710
2020/01/31 02:54:35.7	92.830	0.040	-0.110	0.700
2020/01/31 02:54:35.8	92.830	0.010	-0.080	0.700
2020/01/31 02:54:35.9	92.830	-0.030	-0.050	0.690
2020/01/31 02:54:36.0	92.840	-0.060	-0.020	0.680
2020/01/31 02:54:36.1	92.850	-0.090	-0.000	0.660
2020/01/31 02:54:36.2	92.860	-0.120	0.010	0.650
2020/01/31 02:54:36.3	92.880	-0.140	0.030	0.630
2020/01/31 02:54:36.4	92.900	-0.160	0.030	0.620
2020/01/31 02:54:36.5	92.920	-0.180	0.040	0.600
2020/01/31 02:54:36.6	92.940	-0.200	0.030	0.580
2020/01/31 02:54:36.7	92.970	-0.210	0.030	0.560
2020/01/31 02:54:36.8	93.000	-0.210	0.020	0.530
2020/01/31 02:54:36.9	93.030	-0.220	0.000	0.510
2020/01/31 02:54:37.0	93.060	-0.220	-0.010	0.480
2020/01/31 02:54:37.1	93.080	-0.210	-0.030	0.450
2020/01/31 02:54:37.2	93.120	-0.210	-0.060	0.430
2020/01/31 02:54:37.3	93.150	-0.200	-0.080	0.400
2020/01/31 02:54:37.4	93.180	-0.180	-0.110	0.370
2020/01/31 02:54:37.5	93.220	-0.170	-0.130	0.350
2020/01/31 02:54:37.6	93.250	-0.150	-0.160	0.320
2020/01/31 02:54:37.7	93.280	-0.130	-0.190	0.300
2020/01/31 02:54:37.8	93.300	-0.110	-0.220	0.280
2020/01/31 02:54:37.9	93.330	-0.080	-0.250	0.260
2020/01/31 02:54:38.0	93.350	-0.060	-0.270	0.250
2020/01/31 02:54:38.1	93.370	-0.030	-0.300	0.240
2020/01/31 02:54:38.2	93.390	-0.000	-0.320	0.240
2020/01/31 02:54:38.3	93.400	0.030	-0.340	0.230
2020/01/31 02:54:38.4	93.410	0.060	-0.360	0.240
2020/01/31 02:54:38.5	93.410	0.080	-0.380	0.250
2020/01/31 02:54:38.6	93.420	0.110	-0.390	0.260
2020/01/31 02:54:38.7	93.410	0.140	-0.400	0.280
2020/01/31 02:54:38.8	93.410	0.160	-0.410	0.300
2020/01/31 02:54:38.9	93.400	0.190	-0.420	0.330
2020/01/31 02:54:39.0	93.390	0.210	-0.420	0.360
2020/01/31 02:54:39.1	93.370	0.230	-0.420	0.400
2020/01/31 02:54:39.2	93.360	0.250	-0.410	0.440
2020/01/31 02:54:39.3	93.340	0.260	-0.410	0.480
2020/01/31 02:54:39.4	93.320	0.280	-0.400	0.520
2020/01/31 02:54:39.5	93.290	0.290	-0.390	0.570
2020/01/31 02:54:39.6	93.270	0.300	-0.370	0.610
2020/01/31 02:54:39.7	93.250	0.300	-0.350	0.660
2020/01/31 02:54:39.8	93.220	0.300	-0.330	0.710
2020/01/31 02:54:39.9	93.200	0.300	-0.310	0.750
2020/01/31 02:54:40.0	93.170	0.300	-0.280	0.800
2020/01/31 02:54:40.1	93.150	0.300	-0.250	0.840
2020/01/31 02:54:40.2	93.130	0.290	-0.220	0.880
2020/01/31 02:54:40.3	93.110	0.280	-0.190	0.920
2020/01/31 02:54:40.4	93.090	0.260	-0.150	0.960
2020/01/31 02:54:40.5	93.070	0.240	-0.120	0.990
2020/01/31 02:54:40.6	93.060	0.230	-0.080	1.020
2020/01/31 02:54:40.7	93.040	0.210	-0.050	1.040
2020/01/31 02:54:40.8	93.030	0.180	-0.010	1.060
2020/01/31 02:54:40.9	93.020	0.160	0.030	1.080
2020/01/31 02:54:41.0	93.020	0.130	0.060	1.090
2020/01/31 02:54:41.1	93.010	0.110	0.100	1.100
2020/01/31 02:54:41.2	93.010	0.080	0.130	1.110
2020/01/31 02:54:41.3	93.010	0.050	0.160	1.110
2020/01/31 02:54:41.4	93.000	0.020	0.190	1.100
2020/01/31 02:54:41.5	93.010	-0.010	0.220	1.090
2020/01/31 02:54:41.6	93.010	-0.040	0.250	1.080
2020/01/31 02:54:41.7	93.010	-0.070	0.270	1.060
2020/01/31 02:54:41.8	93.010	-0.100	0.290	1.040
2020/01/31 02:54:41.9	93.020	-0.130	0.300	1.020
2020/01/31 02:54:42.0	93.020	-0.150	0.310	0.990
2020/01/31 02:54:42.1	93.030	-0.180	0.320	0.970
2020/01/31 02:54:42.2	93.030	-0.200	0.320	0.940
2020/01/31 02:54:42.3	93.040	-0.220	0.310	0.900
2020/01/31 02:54:42.4	93.050	-0.240	0.300	0.870
2020/01/31 02:54:42.5	93.050	-0.250	0.280	0.830
2020/01/31 02:54:42.6	93.060	-0.260	0.250	0.800
2020/01/31 02:54:42.7	93.060	-0.270	0.220	0.760
2020/01/31 02:54:42.8	93.060	-0.270	0.180	0.720
2020/01/31 02:54:42.9	93.070	-0.270	0.140	0.690
2020/01/31 02:54:43.0	93.070	-0.270	0.090	0.650
2020/01/31 02:54:43.1	93.070	-0.270	0.030	0.620
2020/01/31 02:54:43.2	93.070	-0.260	-0.020	0.590
2020/01/31 02:54:43.3	93.060	-0.240	-0.080	0.560
2020/01/31 02:54:43.4	93.060	-0.230	-0.150	0.540
2020/01/31 02:54:43.5	93.060	-0.210	-0.210	0.520
2020/01/31 02:54:43.6	93.050	-0.190	-0.280	0.510
2020/01/31 02:54:43.7	93.050	-0.170	-0.350	0.490
2020/01/31 02:54:43.8	93.040	-0.140	-0.410	0.480
2020/01/31 02:54:43.9	93.030	-0.110	-0.480	0.480
2020/01/31 02:54:44.0	93.030	-0.080	-0.540	0.470
2020/01/31 02:54:44.1	93.020	-0.050	-0.600	0.470
2020/01/31 02:54:44.2	93.010	-0.020	-0.660	0.470
2020/01/31 02:54:44.3	93.010	0.010	-0.710	0.480
2020/01/31 02:54:44.4	93.000	0.040	-0.760	0.480
2020/01/31 02:54:44.5	93.000	0.070	-0.800	0.490
2020/01/31 02:54:44.6	92.990	0.100	-0.840	0.500
2020/01/31 02:54:44.7	92.990	0.130	-0.870	0.510
2020/01/31 02:54:44.8	92.990	0.160	-0.890	0.530
2020/01/31 02:54:44.9	92.980	0.190	-0.910	0.540
2020/01/31 02:54:45.0	92.980	0.210	-0.920	0.560
2020/01/31 02:54:45.1	92.980	0.230	-0.920	0.570
2020/01/31 02:54:45.2	92.980	0.250	-0.920	0.590
2020/01/31 02:54:45.3	92.980	0.270	-0.910	0.610
2020/01/31 02:54:45.4	92.980	0.280	-0.890	0.630
2020/01/31 02:54:45.5	92.990	0.290	-0.870	0.650
2020/01/31 02:54:45.6	92.990	0.300	-0.840	0.670
2020/01/31 02:54:45.7	92.990	0.310	-0.800	0.680
2020/01/31 02:54:45.8	92.990	0.310	-0.760	0.700
2020/01/31 02:54:45.9	93.000	0.310	-0.720	0.720
2020/01/31 02:54:46.0	93.000	0.310	-0.670	0.740
2020/01/31 02:54:46.1	93.000	0.300	-0.610	0.760
2020/01/31 02:54:46.2	93.010	0.290	-0.550	0.780
2020/01/31 02:54:46.3	93.010	0.280	-0.500	0.790
2020/01/31 02:54:46.4	93.020	0.270	-0.440	0.800
2020/01/31 02:54:46.5	93.020	0.250	-0.380	0.820
2020/01/31 02:54:46.6	93.030	0.240	-0.320	0.830
2020/01/31 02:54:46.7	93.030	0.220	-0.250	0.840
2020/01/31 02:54:46.8	93.040	0.200	-0.190	0.850
2020/01/31 02:54:46.9	93.050	0.180	-0.140	0.850
2020/01/31 02:54:47.0	93.050	0.150	-0.080	0.850
2020/01/31 02:54:47.1	93.060	0.130	-0.030	0.850
2020/01/31 02:54:47.2	93.070	0.110	0.020	0.850
2020/01/31 02:54:47.3	93.070	0.080	0.070	0.840
2020/01/31 02:54:47.4	93.080	0.060	0.120	0.840
2020/01/31 02:54:47.5	93.090	0.030	0.160	0.830
2020/01/31 02:54:47.6	93.090	0.010	0.190	0.820
2020/01/31 02:54:47.7	93.100	-0.010	0.230	0.820
2020/01/31 02:54:47.8	93.110	-0.030	0.250	0.810
2020/01/31 02:54:47.9	93.110	-0.050	0.280	0.800
2020/01/31 02:54:48.0	93.120	-0.070	0.300	0.790
2020/01/31 02:54:48.1	93.120	-0.090	0.310	0.780
2020/01/31 02:54:48.2	93.120	-0.110	0.320	0.770
2020/01/31 02:54:48.3	93.120	-0.130	0.330	0.770
2020/01/31 02:54:48.4	93.120	-0.140	0.330	0.760
2020/01/31 02:54:48.5	93.130	-0.160	0.330	0.760
2020/01/31 02:54:48.6	93.130	-0.170	0.320	0.750
2020/01/31 02:54:48.7	93.130	-0.180	0.310	0.750
2020/01/31 02:54:48.8	93.120	-0.190	0.300	0.750
2020/01/31 02:54:48.9	93.120	-0.200	0.280	0.760
2020/01/31 02:54:49.0	93.120	-0.210	0.260	0.760
2020/01/31 02:54:49.1	93.110	-0.210	0.250	0.770
2020/01/31 02:54:49.2	93.100	-0.220	0.220	0.780
2020/01/31 02:54:49.3	93.090	-0.230	0.200	0.790
2020/01/31 02:54:49.4	93.080	-0.230	0.170	0.810
2020/01/31 02:54:49.5	93.060	-0.230	0.140	0.820
2020/01/31 02:54:49.6	93.050	-0.240	0.110	0.840
2020/01/31 02:54:49.7	93.030	-0.240	0.080	0.860
2020/01/31 02:54:49.8	93.020	-0.240	0.050	0.870
2020/01/31 02:54:49.9	93.000	-0.240	0.010	0.890
2020/01/31 02:54:50.0	92.980	-0.240	-0.020	0.900
2020/01/31 02:54:50.1	92.960	-0.240	-0.060	0.910
2020/01/31 02:54:50.2	92.940	-0.240	-0.090	0.920
2020/01/31 02:54:50.3	92.920	-0.240	-0.120	0.920
2020/01/31 02:54:50.4	92.910	-0.230	-0.160	0.920
2020/01/31 02:54:50.5	92.890	-0.230	-0.190	0.920
2020/01/31 02:54:50.6	92.870	-0.230	-0.230	0.910
2020/01/31 02:54:50.7	92.860	-0.220	-0.260	0.890
2020/01/31 02:54:50.8	92.850	-0.220	-0.290	0.880
2020/01/31 02:54:50.9	92.840	-0.220	-0.320	0.860
2020/01/31 02:54:51.0	92.830	-0.210	-0.350	0.840
2020/01/31 02:54:51.1	92.820	-0.210	-0.380	0.810
2020/01/31 02:54:51.2	92.810	-0.200	-0.400	0.780
2020/01/31 02:54:51.3	92.800	-0.190	-0.430	0.750
2020/01/31 02:54:51.4	92.800	-0.190	-0.450	0.720
2020/01/31 02:54:51.5	92.800	-0.180	-0.480	0.690
2020/01/31 02:54:51.6	92.800	-0.170	-0.500	0.670
2020/01/31 02:54:51.7	92.800	-0.160	-0.520	0.640
2020/01/31 02:54:51.8	92.800	-0.140	-0.540	0.610
2020/01/31 02:54:51.9	92.800	-0.130	-0.560	0.590
2020/01/31 02:54:52.0	92.800	-0.110	-0.570	0.570
2020/01/31 02:54:52.1	92.810	-0.100	-0.590	0.550
2020/01/31 02:54:52.2	92.820	-0.080	-0.610	0.530
2020/01/31 02:54:52.3	92.820	-0.060	-0.620	0.520
2020/01/31 02:54:52.4	92.830	-0.040	-0.640	0.500
2020/01/31 02:54:52.5	92.830	-0.020	-0.660	0.490
2020/01/31 02:54:52.6	92.840	0.010	-0.670	0.490
2020/01/31 02:54:52.7	92.850	0.030	-0.690	0.480
2020/01/31 02:54:52.8	92.860	0.060	-0.710	0.480
2020/01/31 02:54:52.9	92.870	0.080	-0.720	0.470
2020/01/31 02:54:53.0	92.880	0.110	-0.740	0.470
2020/01/31 02:54:53.1	92.890	0.140	-0.750	0.470
2020/01/31 02:54:53.2	92.900	0.170	-0.760	0.470
2020/01/31 02:54:53.3	92.910	0.190	-0.770	0.470
2020/01/31 02:54:53.4	92.930	0.220	-0.780	0.480
2020/01/31 02:54:53.5	92.940	0.250	-0.780	0.480
2020/01/31 02:54:53.6	92.950	0.270	-0.790	0.480
2020/01/31 02:54:53.7	92.960	0.300	-0.790	0.480
2020/01/31 02:54:53.8	92.970	0.320	-0.780	0.490
2020/01/31 02:54:53.9	92.980	0.340	-0.770	0.490
2020/01/31 02:54:54.0	92.990	0.350	-0.760	0.500
2020/01/31 02:54:54.1	93.000	0.370	-0.740	0.500
2020/01/31 02:54:54.2	93.000	0.380	-0.720	0.510
2020/01/31 02:54:54.3	93.000	0.380	-0.690	0.510
2020/01/31 02:54:54.4	93.000	0.380	-0.650	0.520
2020/01/31 02:54:54.5	93.000	0.380	-0.610	0.530
2020/01/31 02:54:54.6	93.000	0.380	-0.560	0.540
2020/01/31 02:54:54.7	92.990	0.370	-0.510	0.560
2020/01/31 02:54:54.8	92.980	0.350	-0.450	0.570
2020/01/31 02:54:54.9	92.970	0.340	-0.390	0.590
2020/01/31 02:54:55.0	92.960	0.320	-0.320	0.610
2020/01/31 02:54:55.1	92.940	0.290	-0.250	0.620
2020/01/31 02:54:55.2	92.930	0.260	-0.170	0.650
2020/01/31 02:54:55.3	92.910	0.230	-0.090	0.670
2020/01/31 02:54:55.4	92.890	0.190	-0.010	0.700
2020/01/31 02:54:55.5	92.870	0.150	0.070	0.730
2020/01/31 02:54:55.6	92.840	0.110	0.160	0.760
2020/01/31 02:54:55.7	92.820	0.070	0.240	0.790
2020/01/31 02:54:55.8	92.790	0.020	0.320	0.820
2020/01/31 02:54:55.9	92.770	-0.020	0.400	0.860
2020/01/31 02:54:56.0	92.740	-0.070	0.470	0.890
2020/01/31 02:54:56.1	92.720	-0.110	0.540	0.920
2020/01/31 02:54:56.2	92.690	-0.160	0.610	0.950
2020/01/31 02:54:56.3	92.670	-0.210	0.660	0.990
2020/01/31 02:54:56.4	92.640	-0.250	0.710	1.020
2020/01/31 02:54:56.5	92.620	-0.290	0.760	1.040
2020/01/31 02:54:56.6	92.600	-0.330	0.790	1.070
2020/01/31 02:54:56.7	92.580	-0.360	0.810	1.090
2020/01/31 02:54:56.8	92.560	-0.400	0.820	1.110
2020/01/31 02:54:56.9	92.550	-0.420	0.820	1.120
2020/01/31 02:54:57.0	92.540	-0.450	0.810	1.130
2020/01/31 02:54:57.1	92.530	-0.470	0.790	1.140
2020/01/31 02:54:57.2	92.530	-0.480	0.760	1.140
2020/01/31 02:54:57.3	92.530	-0.490	0.710	1.130
2020/01/31 02:54:57.4	92.530	-0.490	0.660	1.130
2020/01/31 02:54:57.5	92.530	-0.490	0.600	1.120
2020/01/31 02:54:57.6	92.540	-0.480	0.530	1.100
2020/01/31 02:54:57.7	92.550	-0.470	0.450	1.080
2020/01/31 02:54:57.8	92.560	-0.450	0.360	1.060
2020/01/31 02:54:57.9	92.570	-0.430	0.270	1.030
2020/01/31 02:54:58.0	92.580	-0.410	0.180	1.010
2020/01/31 02:54:58.1	92.590	-0.380	0.080	0.970
2020/01/31 02:54:58.2	92.600	-0.350	-0.010	0.940
2020/01/31 02:54:58.3	92.610	-0.320	-0.110	0.900
2020/01/31 02:54:58.4	92.630	-0.280	-0.210	0.870
2020/01/31 02:54:58.5	92.640	-0.240	-0.300	0.830
2020/01/31 02:54:58.6	92.650	-0.200	-0.390	0.800
2020/01/31 02:54:58.7	92.660	-0.170	-0.480	0.760
2020/01/31 02:54:58.8	92.670	-0.130	-0.560	0.720
2020/01/31 02:54:58.9	92.680	-0.090	-0.640	0.690
2020/01/31 02:54:59.0	92.690	-0.050	-0.710	0.660
2020/01/31 02:54:59.1	92.690	-0.010	-0.770	0.620
2020/01/31 02:54:59.2	92.700	0.030	-0.830	0.590
2020/01/31 02:54:59.3	92.700	0.070	-0.880	0.570
2020/01/31 02:54:59.4	92.700	0.100	-0.920	0.550
2020/01/31 02:54:59.5	92.700	0.130	-0.950	0.530
2020/01/31 02:54:59.6	92.690	0.170	-0.970	0.520
2020/01/31 02:54:59.7	92.690	0.190	-0.990	0.510
2020/01/31 02:54:59.8	92.690	0.220	-1.000	0.500
2020/01/31 02:54:59.9	92.680	0.240	-0.990	0.500
2020/01/31 02:55:00.0	92.670	0.270	-0.990	0.500
2020/01/31 02:55:00.1	92.660	0.290	-0.970	0.510
2020/01/31 02:55:00.2	92.660	0.300	-0.950	0.520
2020/01/31 02:55:00.3	92.640	0.310	-0.920	0.540
2020/01/31 02:55:00.4	92.630	0.330	-0.880	0.560
2020/01/31 02:55:00.5	92.620	0.330	-0.840	0.580
2020/01/31 02:55:00.6	92.610	0.340	-0.800	0.610
2020/01/31 02:55:00.7	92.590	0.340	-0.750	0.640
2020/01/31 02:55:00.8	92.580	0.340	-0.690	0.670
2020/01/31 02:55:00.9	92.560	0.340	-0.640	0.700
2020/01/31 02:55:01.0	92.550	0.330	-0.570	0.730
2020/01/31 02:55:01.1	92.540	0.320	-0.520	0.770
2020/01/31 02:55:01.2	92.530	0.320	-0.450	0.800
2020/01/31 02:55:01.3	92.510	0.300	-0.390	0.830
2020/01/31 02:55:01.4	92.500	0.290	-0.320	0.860
2020/01/31 02:55:01.5	92.490	0.280	-0.260	0.890
2020/01/31 02:55:01.6	92.480	0.260	-0.200	0.910
2020/01/31 02:55:01.7	92.470	0.240	-0.140	0.940
2020/01/31 02:55:01.8	92.470	0.230	-0.080	0.960
2020/01/31 02:55:01.9	92.460	0.210	-0.030	0.970
2020/01/31 02:55:02.0	92.460	0.190	0.020	0.980
2020/01/31 02:55:02.1	92.450	0.170	0.060	0.990
2020/01/31 02:55:02.2	92.450	0.160	0.100	0.990
2020/01/31 02:55:02.3	92.450	0.140	0.130	0.990
2020/01/31 02:55:02.4	92.450	0.120	0.160	0.980
2020/01/31 02:55:02.5	92.450	0.110	0.170	0.970
2020/01/31 02:55:02.6	92.460	0.100	0.180	0.960
2020/01/31 02:55:02.7	92.470	0.090	0.190	0.940
2020/01/31 02:55:02.8	92.480	0.080	0.180	0.920
2020/01/31 02:55:02.9	92.490	0.080	0.170	0.890
2020/01/31 02:55:03.0	92.510	0.080	0.160	0.860
2020/01/31 02:55:03.1	92.510	0.080	0.120	0.820
2020/01/31 02:55:03.2	92.530	0.080	0.100	0.790
2020/01/31 02:55:03.3	92.550	0.080	0.060	0.750
2020/01/31 02:55:03.4	92.560	0.090	0.020	0.720
2020/01/31 02:55:03.5	92.580	0.100	-0.020	0.690
2020/01/31 02:55:03.6	92.600	0.110	-0.060	0.660
2020/01/31 02:55:03.7	92.620	0.130	-0.110	0.630
2020/01/31 02:55:03.8	92.630	0.150	-0.160	0.600
2020/01/31 02:55:03.9	92.640	0.160	-0.210	0.580
2020/01/31 02:55:04.0	92.660	0.180	-0.260	0.560
2020/01/31 02:55:04.1	92.660	0.200	-0.300	0.550
2020/01/31 02:55:04.2	92.670	0.220	-0.350	0.540
2020/01/31 02:55:04.3	92.670	0.240	-0.390	0.540
2020/01/31 02:55:04.4	92.670	0.260	-0.430	0.540
2020/01/31 02:55:04.5	92.660	0.280	-0.470	0.550
2020/01/31 02:55:04.6	92.650	0.300	-0.500	0.560
2020/01/31 02:55:04.7	92.640	0.310	-0.520	0.580
2020/01/31 02:55:04.8	92.620	0.330	-0.540	0.600
2020/01/31 02:55:04.9	92.600	0.340	-0.550	0.620
2020/01/31 02:55:05.0	92.580	0.340	-0.560	0.640
2020/01/31 02:55:05.1	92.550	0.350	-0.560	0.670
2020/01/31 02:55:05.2	92.520	0.340	-0.550	0.690
2020/01/31 02:55:05.3	92.500	0.340	-0.530	0.720
2020/01/31 02:55:05.4	92.470	0.330	-0.510	0.740
2020/01/31 02:55:05.5	92.430	0.310	-0.480	0.760
2020/01/31 02:55:05.6	92.400	0.290	-0.450	0.790
2020/01/31 02:55:05.7	92.370	0.270	-0.410	0.810
2020/01/31 02:55:05.8	92.340	0.240	-0.360	0.830
2020/01/31 02:55:05.9	92.310	0.210	-0.310	0.850
2020/01/31 02:55:06.0	92.280	0.170	-0.260	0.870
2020/01/31 02:55:06.1	92.250	0.130	-0.200	0.880
2020/01/31 02:55:06.2	92.220	0.090	-0.140	0.900
2020/01/31 02:55:06.3	92.190	0.040	-0.080	0.920
2020/01/31 02:55:06.4	92.170	-0.010	-0.030	0.940
2020/01/31 02:55:06.5	92.140	-0.060	0.030	0.950
2020/01/31 02:55:06.6	92.120	-0.120	0.090	0.960
2020/01/31 02:55:06.7	92.100	-0.170	0.140	0.970
2020/01/31 02:55:06.8	92.080	-0.230	0.200	0.990
2020/01/31 02:55:06.9	92.070	-0.290	0.240	0.990
2020/01/31 02:55:07.0	92.060	-0.340	0.290	1.000
2020/01/31 02:55:07.1	92.050	-0.400	0.330	1.010
2020/01/31 02:55:07.2	92.040	-0.450	0.360	1.010
2020/01/31 02:55:07.3	92.040	-0.500	0.380	1.010
2020/01/31 02:55:07.4	92.040	-0.550	0.400	1.020
2020/01/31 02:55:07.5	92.040	-0.600	0.410	1.010
2020/01/31 02:55:07.6	92.040	-0.640	0.420	1.010
2020/01/31 02:55:07.7	92.050	-0.680	0.410	1.010
2020/01/31 02:55:07.8	92.060	-0.710	0.400	1.000
2020/01/31 02:55:07.9	92.070	-0.740	0.380	1.000
2020/01/31 02:55:08.0	92.080	-0.760	0.360	0.990
2020/01/31 02:55:08.1	92.100	-0.780	0.320	0.970
2020/01/31 02:55:08.2	92.110	-0.790	0.280	0.950
2020/01/31 02:55:08.3	92.130	-0.800	0.240	0.930
2020/01/31 02:55:08.4	92.150	-0.800	0.180	0.900
2020/01/31 02:55:08.5	92.180	-0.790	0.130	0.880
2020/01/31 02:55:08.6	92.200	-0.780	0.070	0.850
2020/01/31 02:55:08.7	92.230	-0.770	0.000	0.810
2020/01/31 02:55:08.8	92.260	-0.750	-0.060	0.780
2020/01/31 02:55:08.9	92.290	-0.720	-0.130	0.740
2020/01/31 02:55:09.0	92.320	-0.690	-0.200	0.700
2020/01/31 02:55:09.1	92.340	-0.650	-0.270	0.670
2020/01/31 02:55:09.2	92.380	-0.610	-0.350	0.630
2020/01/31 02:55:09.3	92.410	-0.570	-0.420	0.590
2020/01/31 02:55:09.4	92.440	-0.520	-0.490	0.560
2020/01/31 02:55:09.5	92.470	-0.480	-0.550	0.520
2020/01/31 02:55:09.6	92.500	-0.420	-0.620	0.500
2020/01/31 02:55:09.7	92.540	-0.370	-0.680	0.470
2020/01/31 02:55:09.8	92.570	-0.320	-0.740	0.450
2020/01/31 02:55:09.9	92.590	-0.260	-0.800	0.430
2020/01/31 02:55:10.0	92.620	-0.200	-0.850	0.420
2020/01/31 02:55:10.1	92.640	-0.150	-0.890	0.410
2020/01/31 02:55:10.2	92.660	-0.090	-0.930	0.410
2020/01/31 02:55:10.3	92.680	-0.040	-0.970	0.420
2020/01/31 02:55:10.4	92.690	0.010	-0.990	0.440
2020/01/31 02:55:10.5	92.700	0.060	-1.010	0.450
2020/01/31 02:55:10.6	92.710	0.110	-1.030	0.480
2020/01/31 02:55:10.7	92.720	0.150	-1.030	0.510
2020/01/31 02:55:10.8	92.720	0.190	-1.030	0.540
2020/01/31 02:55:10.9	92.720	0.230	-1.020	0.580
2020/01/31 02:55:11.0	92.720	0.260	-1.000	0.620
2020/01/31 02:55:11.1	92.710	0.290	-0.960	0.660
2020/01/31 02:55:11.2	92.700	0.310	-0.930	0.710
2020/01/31 02:55:11.3	92.700	0.330	-0.880	0.750
2020/01/31 02:55:11.4	92.690	0.340	-0.830	0.800
2020/01/31 02:55:11.5	92.670	0.350	-0.770	0.840
2020/01/31 02:55:11.6	92.660	0.350	-0.710	0.880
2020/01/31 02:55:11.7	92.640	0.350	-0.640	0.920
2020/01/31 02:55:11.8	92.630	0.340	-0.560	0.960
2020/01/31 02:55:11.9	92.610	0.330	-0.480	1.000
2020/01/31 02:55:12.0	92.590	0.310	-0.390	1.030
2020/01/31 02:55:12.1	92.570	0.290	-0.300	1.060
2020/01/31 02:55:12.2	92.550	0.270	-0.210	1.080
2020/01/31 02:55:12.3	92.530	0.240	-0.120	1.100
2020/01/31 02:55:12.4	92.510	0.210	-0.030	1.120
2020/01/31 02:55:12.5	92.490	0.180	0.060	1.130
2020/01/31 02:55:12.6	92.470	0.150	0.140	1.140
2020/01/31 02:55:12.7	92.450	0.120	0.230	1.140
2020/01/31 02:55:12.8	92.430	0.080	0.300	1.140
2020/01/31 02:55:12.9	92.410	0.050	0.370	1.130
2020/01/31 02:55:13.0	92.390	0.020	0.440	1.120
2020/01/31 02:55:13.1	92.360	-0.020	0.500	1.100
2020/01/31 02:55:13.2	92.340	-0.040	0.540	1.080
2020/01/31 02:55:13.3	92.330	-0.070	0.580	1.060
2020/01/31 02:55:13.4	92.310	-0.090	0.600	1.030
2020/01/31 02:55:13.5	92.290	-0.110	0.620	1.010
2020/01/31 02:55:13.6	92.280	-0.130	0.620	0.980
2020/01/31 02:55:13.7	92.270	-0.140	0.610	0.940
2020/01/31 02:55:13.8	92.260	-0.150	0.590	0.910
2020/01/31 02:55:13.9	92.240	-0.150	0.560	0.880
2020/01/31 02:55:14.0	92.230	-0.150	0.520	0.840
2020/01/31 02:55:14.1	92.220	-0.140	0.480	0.810
2020/01/31 02:55:14.2	92.210	-0.130	0.420	0.770
2020/01/31 02:55:14.3	92.200	-0.110	0.360	0.730
2020/01/31 02:55:14.4	92.190	-0.090	0.290	0.700
2020/01/31 02:55:14.5	92.180	-0.070	0.220	0.660
2020/01/31 02:55:14.6	92.170	-0.050	0.140	0.620
2020/01/31 02:55:14.7	92.150	-0.020	0.060	0.590
2020/01/31 02:55:14.8	92.140	0.020	-0.020	0.560
2020/01/31 02:55:14.9	92.130	0.050	-0.110	0.520
2020/01/31 02:55:15.0	92.110	0.090	-0.190	0.490
2020/01/31 02:55:15.1	92.100	0.120	-0.280	0.450
2020/01/31 02:55:15.2	92.090	0.160	-0.360	0.420
2020/01/31 02:55:15.3	92.080	0.200	-0.430	0.390
2020/01/31 02:55:15.4	92.070	0.240	-0.500	0.350
2020/01/31 02:55:15.5	92.070	0.270	-0.570	0.320
2020/01/31 02:55:15.6	92.060	0.310	-0.630	0.280
2020/01/31 02:55:15.7	92.060	0.340	-0.680	0.250
2020/01/31 02:55:15.8	92.060	0.370	-0.720	0.220
2020/01/31 02:55:15.9	92.060	0.400	-0.760	0.190
2020/01/31 02:55:16.0	92.060	0.430	-0.790	0.170
2020/01/31 02:55:16.1	92.070	0.450	-0.810	0.150
2020/01/31 02:55:16.2	92.070	0.470	-0.830	0.120
2020/01/31 02:55:16.3	92.080	0.490	-0.840	0.100
2020/01/31 02:55:16.4	92.090	0.500	-0.840	0.090
2020/01/31 02:55:16.5	92.100	0.510	-0.830	0.070
2020/01/31 02:55:16.6	92.110	0.510	-0.820	0.060
2020/01/31 02:55:16.7	92.130	0.510	-0.800	0.060
2020/01/31 02:55:16.8	92.140	0.510	-0.770	0.050
2020/01/31 02:55:16.9	92.160	0.500	-0.740	0.050
2020/01/31 02:55:17.0	92.180	0.490	-0.700	0.050
2020/01/31 02:55:17.1	92.200	0.470	-0.650	0.050
2020/01/31 02:55:17.2	92.220	0.450	-0.610	0.060
2020/01/31 02:55:17.3	92.240	0.430	-0.560	0.080
2020/01/31 02:55:17.4	92.270	0.400	-0.500	0.090
2020/01/31 02:55:17.5	92.290	0.370	-0.450	0.110
2020/01/31 02:55:17.6	92.310	0.340	-0.390	0.140
2020/01/31 02:55:17.7	92.330	0.300	-0.330	0.160
2020/01/31 02:55:17.8	92.350	0.270	-0.270	0.190
2020/01/31 02:55:17.9	92.370	0.230	-0.210	0.220
2020/01/31 02:55:18.0	92.390	0.200	-0.150	0.260
2020/01/31 02:55:18.1	92.410	0.160	-0.080	0.300
2020/01/31 02:55:18.2	92.430	0.120	-0.030	0.340
2020/01/31 02:55:18.3	92.440	0.080	0.030	0.380
2020/01/31 02:55:18.4	92.460	0.040	0.080	0.420
2020/01/31 02:55:18.5	92.470	0.000	0.130	0.460
2020/01/31 02:55:18.6	92.490	-0.030	0.180	0.510
2020/01/31 02:55:18.7	92.500	-0.070	0.220	0.550
2020/01/31 02:55:18.8	92.510	-0.100	0.260	0.590
2020/01/31 02:55:18.9	92.530	-0.130	0.290	0.640
2020/01/31 02:55:19.0	92.540	-0.160	0.320	0.680
2020/01/31 02:55:19.1	92.550	-0.190	0.340	0.720
2020/01/31 02:55:19.2	92.560	-0.220	0.350	0.760
2020/01/31 02:55:19.3	92.560	-0.240	0.360	0.800
2020/01/31 02:55:19.4	92.570	-0.260	0.360	0.850
2020/01/31 02:55:19.5	92.580	-0.280	0.360	0.890
2020/01/31 02:55:19.6	92.580	-0.290	0.340	0.930
2020/01/31 02:55:19.7	92.580	-0.300	0.330	0.980
2020/01/31 02:55:19.8	92.580	-0.310	0.300	1.020
2020/01/31 02:55:19.9	92.580	-0.310	0.270	1.060
2020/01/31 02:55:20.0	92.580	-0.310	0.230	1.100
2020/01/31 02:55:20.1	92.570	-0.310	0.190	1.140
2020/01/31 02:55:20.2	92.570	-0.310	0.140	1.180
2020/01/31 02:55:20.3	92.570	-0.300	0.090	1.210
2020/01/31 02:55:20.4	92.560	-0.290	0.030	1.250
2020/01/31 02:55:20.5	92.560	-0.280	-0.030	1.280
2020/01/31 02:55:20.6	92.560	-0.270	-0.090	1.310
2020/01/31 02:55:20.7	92.550	-0.260	-0.150	1.340
2020/01/31 02:55:20.8	92.550	-0.240	-0.210	1.370
2020/01/31 02:55:20.9	92.540	-0.230	-0.270	1.390
2020/01/31 02:55:21.0	92.540	-0.220	-0.330	1.410
2020/01/31 02:55:21.1	92.530	-0.210	-0.380	1.420
2020/01/31 02:55:21.2	92.530	-0.190	-0.430	1.440
2020/01/31 02:55:21.3	92.520	-0.180	-0.480	1.450
2020/01/31 02:55:21.4	92.520	-0.170	-0.520	1.450
2020/01/31 02:55:21.5	92.520	-0.160	-0.550	1.460
2020/01/31 02:55:21.6	92.520	-0.150	-0.580	1.460
2020/01/31 02:55:21.7	92.520	-0.150	-0.600	1.460
2020/01/31 02:55:21.8	92.530	-0.140	-0.620	1.460
2020/01/31 02:55:21.9	92.530	-0.140	-0.620	1.450
2020/01/31 02:55:22.0	92.530	-0.140	-0.620	1.450
2020/01/31 02:55:22.1	92.530	-0.140	-0.620	1.440
2020/01/31 02:55:22.2	92.530	-0.150	-0.610	1.440
2020/01/31 02:55:22.3	92.530	-0.150	-0.590	1.430
2020/01/31 02:55:22.4	92.540	-0.160	-0.560	1.420
2020/01/31 02:55:22.5	92.540	-0.170	-0.530	1.420
2020/01/31 02:55:22.6	92.540	-0.180	-0.500	1.410
2020/01/31 02:55:22.7	92.530	-0.190	-0.460	1.400
2020/01/31 02:55:22.8	92.530	-0.200	-0.410	1.390
2020/01/31 02:55:22.9	92.530	-0.220	-0.370	1.380
2020/01/31 02:55:23.0	92.530	-0.230	-0.320	1.370
2020/01/31 02:55:23.1	92.530	-0.250	-0.260	1.360
2020/01/31 02:55:23.2	92.520	-0.260	-0.220	1.340
2020/01/31 02:55:23.3	92.520	-0.270	-0.170	1.330
2020/01/31 02:55:23.4	92.510	-0.290	-0.120	1.310
2020/01/31 02:55:23.5	92.510	-0.300	-0.080	1.290
2020/01/31 02:55:23.6	92.500	-0.310	-0.040	1.270
2020/01/31 02:55:23.7	92.490	-0.320	-0.000	1.240
2020/01/31 02:55:23.8	92.490	-0.330	0.030	1.210
2020/01/31 02:55:23.9	92.480	-0.340	0.050	1.180
2020/01/31 02:55:24.0	92.470	-0.340	0.070	1.150
2020/01/31 02:55:24.1	92.470	-0.350	0.090	1.120
2020/01/31 02:55:24.2	92.460	-0.350	0.090	1.080
2020/01/31 02:55:24.3	92.450	-0.340	0.090	1.040
2020/01/31 02:55:24.4	92.450	-0.330	0.080	0.990
2020/01/31 02:55:24.5	92.440	-0.320	0.060	0.950
2020/01/31 02:55:24.6	92.440	-0.310	0.040	0.900
2020/01/31 02:55:24.7	92.430	-0.290	0.010	0.850
2020/01/31 02:55:24.8	92.430	-0.270	-0.030	0.800
2020/01/31 02:55:24.9	92.430	-0.250	-0.070	0.750
2020/01/31 02:55:25.0	92.430	-0.220	-0.120	0.700
2020/01/31 02:55:25.1	92.430	-0.190	-0.170	0.650
2020/01/31 02:55:25.2	92.430	-0.160	-0.230	0.600
2020/01/31 02:55:25.3	92.430	-0.130	-0.290	0.550
2020/01/31 02:55:25.4	92.440	-0.090	-0.350	0.500
2020/01/31 02:55:25.5	92.440	-0.060	-0.410	0.450
2020/01/31 02:55:25.6	92.450	-0.020	-0.470	0.410
2020/01/31 02:55:25.7	92.450	0.020	-0.530	0.370
2020/01/31 02:55:25.8	92.460	0.060	-0.580	0.340
2020/01/31 02:55:25.9	92.470	0.100	-0.640	0.310
2020/01/31 02:55:26.0	92.480	0.140	-0.690	0.280
2020/01/31 02:55:26.1	92.490	0.170	-0.730	0.250
2020/01/31 02:55:26.2	92.490	0.210	-0.770	0.230
2020/01/31 02:55:26.3	92.500	0.240	-0.810	0.210
2020/01/31 02:55:26.4	92.500	0.270	-0.830	0.200
2020/01/31 02:55:26.5	92.510	0.300	-0.850	0.180
2020/01/31 02:55:26.6	92.510	0.320	-0.860	0.170
2020/01/31 02:55:26.7	92.510	0.340	-0.870	0.170
2020/01/31 02:55:26.8	92.510	0.360	-0.860	0.160
2020/01/31 02:55:26.9	92.510	0.380	-0.850	0.160
2020/01/31 02:55:27.0	92.510	0.380	-0.830	0.160
2020/01/31 02:55:27.1	92.510	0.390	-0.810	0.160
2020/01/31 02:55:27.2	92.510	0.390	-0.770	0.170
2020/01/31 02:55:27.3	92.500	0.390	-0.730	0.170
2020/01/31 02:55:27.4	92.490	0.380	-0.680	0.170
2020/01/31 02:55:27.5	92.480	0.370	-0.630	0.180
2020/01/31 02:55:27.6	92.470	0.350	-0.570	0.180
2020/01/31 02:55:27.7	92.460	0.330	-0.500	0.190
2020/01/31 02:55:27.8	92.440	0.310	-0.430	0.190
2020/01/31 02:55:27.9	92.430	0.290	-0.360	0.200
2020/01/31 02:55:28.0	92.410	0.260	-0.290	0.200
2020/01/31 02:55:28.1	92.410	0.230	-0.210	0.210
2020/01/31 02:55:28.2	92.390	0.190	-0.140	0.220
2020/01/31 02:55:28.3	92.370	0.160	-0.060	0.220
2020/01/31 02:55:28.4	92.360	0.120	0.010	0.230
2020/01/31 02:55:28.5	92.340	0.080	0.080	0.240
2020/01/31 02:55:28.6	92.320	0.050	0.150	0.250
2020/01/31 02:55:28.7	92.310	0.010	0.220	0.260
2020/01/31 02:55:28.8	92.300	-0.030	0.280	0.280
2020/01/31 02:55:28.9	92.280	-0.070	0.340	0.290
2020/01/31 02:55:29.0	92.270	-0.110	0.390	0.300
2020/01/31 02:55:29.1	92.260	-0.140	0.440	0.310
2020/01/31 02:55:29.2	92.260	-0.180	0.480	0.330
2020/01/31 02:55:29.3	92.250	-0.210	0.510	0.340
2020/01/31 02:55:29.4	92.250	-0.240	0.540	0.360
2020/01/31 02:55:29.5	92.250	-0.260	0.560	0.370
2020/01/31 02:55:29.6	92.250	-0.290	0.570	0.390
2020/01/31 02:55:29.7	92.250	-0.310	0.580	0.410
2020/01/31 02:55:29.8	92.250	-0.330	0.570	0.430
2020/01/31 02:55:29.9	92.250	-0.340	0.570	0.440
2020/01/31 02:55:30.0	92.260	-0.350	0.550	0.460
2020/01/31 02:55:30.1	92.260	-0.360	0.530	0.480
2020/01/31 02:55:30.2	92.270	-0.370	0.510	0.500
2020/01/31 02:55:30.3	92.280	-0.370	0.470	0.520
2020/01/31 02:55:30.4	92.290	-0.370	0.440	0.540
2020/01/31 02:55:30.5	92.290	-0.360	0.390	0.550
2020/01/31 02:55:30.6	92.300	-0.350	0.350	0.570
2020/01/31 02:55:30.7	92.310	-0.340	0.300	0.580
2020/01/31 02:55:30.8	92.320	-0.320	0.240	0.600
2020/01/31 02:55:30.9	92.330	-0.300	0.180	0.610
2020/01/31 02:55:31.0	92.340	-0.280	0.120	0.620
2020/01/31 02:55:31.1	92.340	-0.250	0.060	0.630
2020/01/31 02:55:31.2	92.350	-0.230	-0.010	0.640
2020/01/31 02:55:31.3	92.360	-0.200	-0.070	0.640
2020/01/31 02:55:31.4	92.370	-0.160	-0.140	0.640
2020/01/31 02:55:31.5	92.380	-0.130	-0.200	0.650
2020/01/31 02:55:31.6	92.380	-0.090	-0.260	0.650
2020/01/31 02:55:31.7	92.390	-0.060	-0.320	0.650
2020/01/31 02:55:31.8	92.400	-0.020	-0.380	0.650
2020/01/31 02:55:31.9	92.400	0.020	-0.440	0.650
2020/01/31 02:55:32.0	92.410	0.060	-0.490	0.650
2020/01/31 02:55:32.1	92.410	0.100	-0.540	0.660
2020/01/31 02:55:32.2	92.420	0.140	-0.590	0.660
2020/01/31 02:55:32.3	92.420	0.180	-0.630	0.670
2020/01/31 02:55:32.4	92.420	0.220	-0.670	0.680
2020/01/31 02:55:32.5	92.420	0.260	-0.710	0.700
2020/01/31 02:55:32.6	92.420	0.300	-0.740	0.710
2020/01/31 02:55:32.7	92.420	0.330	-0.760	0.730
2020/01/31 02:55:32.8	92.410	0.370	-0.780	0.760
2020/01/31 02:55:32.9	92.410	0.400	-0.800	0.780
2020/01/31 02:55:33.0	92.410	0.430	-0.810	0.810
2020/01/31 02:55:33.1	92.400	0.460	-0.820	0.830
2020/01/31 02:55:33.2	92.400	0.480	-0.830	0.860
2020/01/31 02:55:33.3	92.390	0.510	-0.830	0.880
2020/01/31 02:55:33.4	92.390	0.520	-0.820	0.910
2020/01/31 02:55:33.5	92.380	0.540	-0.810	0.930
2020/01/31 02:55:33.6	92.380	0.550	-0.800	0.960
2020/01/31 02:55:33.7	92.370	0.560	-0.790	0.980
2020/01/31 02:55:33.8	92.370	0.570	-0.770	1.000
2020/01/31 02:55:33.9	92.360	0.570	-0.740	1.020
2020/01/31 02:55:34.0	92.350	0.570	-0.720	1.040
2020/01/31 02:55:34.1	92.350	0.560	-0.680	1.050
2020/01/31 02:55:34.2	92.340	0.550	-0.650	1.060
2020/01/31 02:55:34.3	92.340	0.530	-0.610	1.070
2020/01/31 02:55:34.4	92.330	0.520	-0.570	1.080
2020/01/31 02:55:34.5	92.320	0.490	-0.520	1.080
2020/01/31 02:55:34.6	92.320	0.470	-0.480	1.080
2020/01/31 02:55:34.7	92.310	0.440	-0.430	1.080
2020/01/31 02:55:34.8	92.300	0.410	-0.380	1.070
2020/01/31 02:55:34.9	92.290	0.370	-0.330	1.070
2020/01/31 02:55:35.0	92.280	0.330	-0.270	1.060
2020/01/31 02:55:35.1	92.270	0.290	-0.220	1.050
2020/01/31 02:55:35.2	92.250	0.250	-0.160	1.040
2020/01/31 02:55:35.3	92.240	0.200	-0.110	1.030
2020/01/31 02:55:35.4	92.230	0.160	-0.050	1.030
2020/01/31 02:55:35.5	92.220	0.110	0.000	1.020
2020/01/31 02:55:35.6	92.210	0.060	0.050	1.010
2020/01/31 02:55:35.7	92.200	0.010	0.110	1.010
2020/01/31 02:55:35.8	92.190	-0.040	0.160	1.000
2020/01/31 02:55:35.9	92.170	-0.090	0.200	0.990
2020/01/31 02:55:36.0	92.160	-0.140	0.250	0.990
2020/01/31 02:55:36.1	92.140	-0.180	0.290	0.990
2020/01/31 02:55:36.2	92.130	-0.230	0.330	0.980
2020/01/31 02:55:36.3	92.120	-0.280	0.370	0.970
2020/01/31 02:55:36.4	92.110	-0.320	0.400	0.970
2020/01/31 02:55:36.5	92.100	-0.360	0.430	0.960
2020/01/31 02:55:36.6	92.100	-0.400	0.450	0.960
2020/01/31 02:55:36.7	92.090	-0.440	0.470	0.950
2020/01/31 02:55:36.8	92.090	-0.470	0.490	0.940
2020/01/31 02:55:36.9	92.090	-0.500	0.500	0.940
2020/01/31 02:55:37.0	92.100	-0.530	0.510	0.930
2020/01/31 02:55:37.1	92.100	-0.550	0.510	0.910
2020/01/31 02:55:37.2	92.110	-0.570	0.510	0.910
2020/01/31 02:55:37.3	92.120	-0.590	0.500	0.900
2020/01/31 02:55:37.4	92.120	-0.600	0.480	0.890
2020/01/31 02:55:37.5	92.130	-0.610	0.460	0.880
2020/01/31 02:55:37.6	92.150	-0.610	0.420	0.860
2020/01/31 02:55:37.7	92.160	-0.610	0.390	0.850
2020/01/31 02:55:37.8	92.180	-0.600	0.340	0.840
2020/01/31 02:55:37.9	92.190	-0.590	0.290	0.820
2020/01/31 02:55:38.0	92.210	-0.580	0.240	0.800
2020/01/31 02:55:38.1	92.230	-0.560	0.170	0.790
2020/01/31 02:55:38.2	92.250	-0.530	0.100	0.770
2020/01/31 02:55:38.3	92.270	-0.500	0.020	0.750
2020/01/31 02:55:38.4	92.290	-0.470	-0.060	0.730
2020/01/31 02:55:38.5	92.310	-0.430	-0.140	0.710
2020/01/31 02:55:38.6	92.320	-0.390	-0.230	0.690
2020/01/31 02:55:38.7	92.340	-0.340	-0.320	0.670
2020/01/31 02:55:38.8	92.350	-0.300	-0.420	0.650
2020/01/31 02:55:38.9	92.370	-0.250	-0.510	0.640
2020/01/31 02:55:39.0	92.380	-0.190	-0.610	0.620
2020/01/31 02:55:39.1	92.390	-0.140	-0.700	0.610
2020/01/31 02:55:39.2	92.390	-0.080	-0.800	0.600
2020/01/31 02:55:39.3	92.400	-0.020	-0.890	0.600
2020/01/31 02:55:39.4	92.400	0.040	-0.980	0.600
2020/01/31 02:55:39.5	92.390	0.100	-1.060	0.610
2020/01/31 02:55:39.6	92.390	0.160	-1.140	0.610
2020/01/31 02:55:39.7	92.380	0.220	-1.210	0.630
2020/01/31 02:55:39.8	92.370	0.280	-1.280	0.640
2020/01/31 02:55:39.9	92.360	0.330	-1.330	0.660
2020/01/31 02:55:40.0	92.350	0.380	-1.380	0.680
2020/01/31 02:55:40.1	92.340	0.430	-1.420	0.700
2020/01/31 02:55:40.2	92.330	0.480	-1.440	0.730
2020/01/31 02:55:40.3	92.320	0.520	-1.450	0.760
2020/01/31 02:55:40.4	92.300	0.550	-1.450	0.790
2020/01/31 02:55:40.5	92.290	0.580	-1.430	0.820
2020/01/31 02:55:40.6	92.270	0.600	-1.400	0.850
2020/01/31 02:55:40.7	92.250	0.620	-1.350	0.880
2020/01/31 02:55:40.8	92.230	0.630	-1.300	0.910
2020/01/31 02:55:40.9	92.210	0.640	-1.230	0.940
2020/01/31 02:55:41.0	92.200	0.640	-1.150	0.960
2020/01/31 02:55:41.1	92.180	0.630	-1.050	0.980
2020/01/31 02:55:41.2	92.160	0.620	-0.950	1.000
2020/01/31 02:55:41.3	92.140	0.590	-0.840	1.020
2020/01/31 02:55:41.4	92.130	0.570	-0.710	1.030
2020/01/31 02:55:41.5	92.110	0.540	-0.590	1.040
2020/01/31 02:55:41.6	92.090	0.500	-0.450	1.050
2020/01/31 02:55:41.7	92.070	0.450	-0.320	1.050
2020/01/31 02:55:41.8	92.060	0.400	-0.180	1.050
2020/01/31 02:55:41.9	92.040	0.350	-0.030	1.040
2020/01/31 02:55:42.0	92.020	0.300	0.110	1.030
2020/01/31 02:55:42.1	92.010	0.240	0.240	1.010
2020/01/31 02:55:42.2	92.000	0.180	0.380	1.000
2020/01/31 02:55:42.3	91.990	0.110	0.510	0.980
2020/01/31 02:55:42.4	91.970	0.050	0.630	0.950
2020/01/31 02:55:42.5	91.960	-0.020	0.750	0.930
2020/01/31 02:55:42.6	91.950	-0.080	0.850	0.900
2020/01/31 02:55:42.7	91.940	-0.150	0.950	0.870
2020/01/31 02:55:42.8	91.930	-0.210	1.030	0.840
2020/01/31 02:55:42.9	91.930	-0.270	1.110	0.810
2020/01/31 02:55:43.0	91.920	-0.330	1.170	0.770
2020/01/31 02:55:43.1	91.920	-0.380	1.220	0.740
2020/01/31 02:55:43.2	91.920	-0.430	1.250	0.700
2020/01/31 02:55:43.3	91.920	-0.470	1.260	0.670
2020/01/31 02:55:43.4	91.920	-0.500	1.260	0.630
2020/01/31 02:55:43.5	91.920	-0.530	1.240	0.600
2020/01/31 02:55:43.6	91.930	-0.560	1.210	0.560
2020/01/31 02:55:43.7	91.930	-0.570	1.160	0.520
2020/01/31 02:55:43.8	91.940	-0.580	1.090	0.480
2020/01/31 02:55:43.9	91.950	-0.580	1.010	0.440
2020/01/31 02:55:44.0	91.960	-0.580	0.910	0.410
2020/01/31 02:55:44.1	91.980	-0.570	0.800	0.370
2020/01/31 02:55:44.2	91.990	-0.550	0.680	0.330
2020/01/31 02:55:44.3	92.010	-0.520	0.550	0.290
2020/01/31 02:55:44.4	92.030	-0.490	0.410	0.250
2020/01/31 02:55:44.5	92.050	-0.450	0.270	0.210
2020/01/31 02:55:44.6	92.070	-0.410	0.120	0.170
2020/01/31 02:55:44.7	92.090	-0.360	-0.040	0.140
2020/01/31 02:55:44.8	92.110	-0.310	-0.190	0.110
2020/01/31 02:55:44.9	92.130	-0.260	-0.340	0.080
2020/01/31 02:55:45.0	92.160	-0.210	-0.490	0.060
2020/01/31 02:55:45.1	92.170	-0.150	-0.640	0.030
2020/01/31 02:55:45.2	92.190	-0.100	-0.780	0.020
2020/01/31 02:55:45.3	92.210	-0.040	-0.910	0.010
2020/01/31 02:55:45.4	92.230	0.010	-1.030	0.010
2020/01/31 02:55:45.5	92.240	0.060	-1.140	0.010
2020/01/31 02:55:45.6	92.260	0.100	-1.240	0.020
2020/01/31 02:55:45.7	92.270	0.150	-1.320	0.030
2020/01/31 02:55:45.8	92.280	0.180	-1.390	0.060
2020/01/31 02:55:45.9	92.280	0.220	-1.440	0.090
2020/01/31 02:55:46.0	92.290	0.250	-1.480	0.120
2020/01/31 02:55:46.1	92.300	0.270	-1.500	0.160
2020/01/31 02:55:46.2	92.300	0.290	-1.510	0.210
2020/01/31 02:55:46.3	92.300	0.300	-1.500	0.260
2020/01/31 02:55:46.4	92.290	0.300	-1.470	0.310
2020/01/31 02:55:46.5	92.290	0.300	-1.430	0.370
2020/01/31 02:55:46.6	92.280	0.290	-1.370	0.430
2020/01/31 02:55:46.7	92.280	0.280	-1.300	0.500
2020/01/31 02:55:46.8	92.270	0.260	-1.210	0.560
2020/01/31 02:55:46.9	92.260	0.240	-1.120	0.630
2020/01/31 02:55:47.0	92.250	0.210	-1.010	0.690
2020/01/31 02:55:47.1	92.240	0.170	-0.890	0.760
2020/01/31 02:55:47.2	92.230	0.130	-0.770	0.830
2020/01/31 02:55:47.3	92.210	0.090	-0.640	0.890
2020/01/31 02:55:47.4	92.200	0.040	-0.500	0.950
2020/01/31 02:55:47.5	92.190	-0.000	-0.360	1.000
2020/01/31 02:55:47.6	92.170	-0.050	-0.220	1.060
2020/01/31 02:55:47.7	92.160	-0.110	-0.080	1.110
2020/01/31 02:55:47.8	92.150	-0.160	0.050	1.150
2020/01/31 02:55:47.9	92.130	-0.210	0.180	1.190
2020/01/31 02:55:48.0	92.120	-0.260	0.310	1.220
2020/01/31 02:55:48.1	92.110	-0.310	0.440	1.250
2020/01/31 02:55:48.2	92.100	-0.350	0.540	1.270
2020/01/31 02:55:48.3	92.090	-0.400	0.640	1.290
2020/01/31 02:55:48.4	92.080	-0.430	0.720	1.300
2020/01/31 02:55:48.5	92.070	-0.470	0.790	1.310
2020/01/31 02:55:48.6	92.070	-0.500	0.850	1.310
2020/01/31 02:55:48.7	92.060	-0.520	0.890	1.310
2020/01/31 02:55:48.8	92.060	-0.540	0.920	1.300
2020/01/31 02:55:48.9	92.050	-0.550	0.930	1.280
2020/01/31 02:55:49.0	92.050	-0.560	0.930	1.270
2020/01/31 02:55:49.1	92.050	-0.550	0.910	1.250
2020/01/31 02:55:49.2	92.050	-0.550	0.880	1.220
2020/01/31 02:55:49.3	92.050	-0.530	0.840	1.190
2020/01/31 02:55:49.4	92.050	-0.510	0.780	1.160
2020/01/31 02:55:49.5	92.050	-0.480	0.710	1.120
2020/01/31 02:55:49.6	92.060	-0.450	0.620	1.080
2020/01/31 02:55:49.7	92.060	-0.410	0.530	1.040
2020/01/31 02:55:49.8	92.060	-0.360	0.430	0.990
2020/01/31 02:55:49.9	92.070	-0.310	0.330	0.940
2020/01/31 02:55:50.0	92.070	-0.250	0.210	0.890
2020/01/31 02:55:50.1	92.070	-0.190	0.100	0.840
2020/01/31 02:55:50.2	92.080	-0.130	-0.020	0.780
2020/01/31 02:55:50.3	92.080	-0.060	-0.140	0.730
2020/01/31 02:55:50.4	92.090	0.010	-0.260	0.670
2020/01/31 02:55:50.5	92.090	0.070	-0.370	0.620
2020/01/31 02:55:50.6	92.100	0.140	-0.480	0.560
2020/01/31 02:55:50.7	92.110	0.210	-0.580	0.510
2020/01/31 02:55:50.8	92.120	0.280	-0.680	0.460
2020/01/31 02:55:50.9	92.130	0.350	-0.760	0.400
2020/01/31 02:55:51.0	92.140	0.410	-0.840	0.350
2020/01/31 02:55:51.1	92.150	0.470	-0.910	0.310
2020/01/31 02:55:51.2	92.160	0.530	-0.960	0.270
2020/01/31 02:55:51.3	92.170	0.580	-1.000	0.230
2020/01/31 02:55:51.4	92.180	0.630	-1.030	0.200
2020/01/31 02:55:51.5	92.190	0.670	-1.050	0.170
2020/01/31 02:55:51.6	92.200	0.710	-1.050	0.150
2020/01/31 02:55:51.7	92.210	0.740	-1.040	0.130
2020/01/31 02:55:51.8	92.220	0.760	-1.020	0.120
2020/01/31 02:55:51.9	92.230	0.770	-0.980	0.110
2020/01/31 02:55:52.0	92.240	0.780	-0.940	0.110
2020/01/31 02:55:52.1	92.250	0.780	-0.880	0.100
2020/01/31 02:55:52.2	92.260	0.780	-0.820	0.110
2020/01/31 02:55:52.3	92.260	0.770	-0.740	0.120
2020/01/31 02:55:52.4	92.270	0.750	-0.670	0.140
2020/01/31 02:55:52.5	92.280	0.720	-0.580	0.160
2020/01/31 02:55:52.6	92.290	0.690	-0.500	0.180
2020/01/31 02:55:52.7	92.290	0.650	-0.410	0.200
2020/01/31 02:55:52.8	92.300	0.610	-0.320	0.230
2020/01/31 02:55:52.9	92.300	0.570	-0.230	0.250
2020/01/31 02:55:53.0	92.300	0.520	-0.140	0.280
2020/01/31 02:55:53.1	92.300	0.470	-0.060	0.310
2020/01/31 02:55:53.2	92.300	0.410	0.020	0.340
2020/01/31 02:55:53.3	92.300	0.360	0.090	0.380
2020/01/31 02:55:53.4	92.300	0.300	0.160	0.410
2020/01/31 02:55:53.5	92.300	0.240	0.220	0.440
2020/01/31 02:55:53.6	92.290	0.190	0.270	0.470
2020/01/31 02:55:53.7	92.280	0.130	0.310	0.510
2020/01/31 02:55:53.8	92.280	0.080	0.340	0.540
2020/01/31 02:55:53.9	92.270	0.030	0.360	0.570
2020/01/31 02:55:54.0	92.260	-0.020	0.370	0.610
2020/01/31 02:55:54.1	92.250	-0.060	0.380	0.630
2020/01/31 02:55:54.2	92.240	-0.100	0.370	0.660
2020/01/31 02:55:54.3	92.230	-0.130	0.350	0.690
2020/01/31 02:55:54.4	92.220	-0.160	0.320	0.720
2020/01/31 02:55:54.5	92.210	-0.190	0.280	0.750
2020/01/31 02:55:54.6	92.210	-0.200	0.240	0.780
2020/01/31 02:55:54.7	92.200	-0.220	0.180	0.810
2020/01/31 02:55:54.8	92.190	-0.230	0.120	0.830
2020/01/31 02:55:54.9	92.180	-0.230	0.050	0.850
2020/01/31 02:55:55.0	92.180	-0.220	-0.030	0.880
2020/01/31 02:55:55.1	92.180	-0.220	-0.110	0.900
2020/01/31 02:55:55.2	92.180	-0.200	-0.200	0.910
2020/01/31 02:55:55.3	92.180	-0.180	-0.280	0.930
2020/01/31 02:55:55.4	92.180	-0.160	-0.370	0.940
2020/01/31 02:55:55.5	92.180	-0.130	-0.460	0.950
2020/01/31 02:55:55.6	92.190	-0.100	-0.550	0.960
2020/01/31 02:55:55.7	92.200	-0.070	-0.640	0.970
2020/01/31 02:55:55.8	92.210	-0.030	-0.730	0.980
2020/01/31 02:55:55.9	92.220	0.000	-0.810	0.990
2020/01/31 02:55:56.0	92.230	0.040	-0.880	1.000
2020/01/31 02:55:56.1	92.230	0.080	-0.940	1.010
2020/01/31 02:55:56.2	92.250	0.120	-1.000	1.010
2020/01/31 02:55:56.3	92.260	0.150	-1.050	1.020
2020/01/31 02:55:56.4	92.270	0.180	-1.090	1.030
2020/01/31 02:55:56.5	92.270	0.210	-1.110	1.050
2020/01/31 02:55:56.6	92.280	0.240	-1.120	1.060
2020/01/31 02:55:56.7	92.290	0.260	-1.120	1.070
2020/01/31 02:55:56.8	92.290	0.270	-1.110	1.090
2020/01/31 02:55:56.9	92.300	0.290	-1.080	1.100
2020/01/31 02:55:57.0	92.300	0.290	-1.040	1.120
2020/01/31 02:55:57.1	92.290	0.290	-0.990	1.130
2020/01/31 02:55:57.2	92.290	0.280	-0.930	1.150
2020/01/31 02:55:57.3	92.290	0.270	-0.850	1.160
2020/01/31 02:55:57.4	92.290	0.250	-0.770	1.170
2020/01/31 02:55:57.5	92.290	0.230	-0.670	1.170
2020/01/31 02:55:57.6	92.290	0.200	-0.570	1.180
2020/01/31 02:55:57.7	92.280	0.160	-0.450	1.180
2020/01/31 02:55:57.8	92.270	0.120	-0.340	1.180
2020/01/31 02:55:57.9	92.260	0.070	-0.210	1.180
2020/01/31 02:55:58.0	92.250	0.020	-0.090	1.170
2020/01/31 02:55:58.1	92.240	-0.040	0.040	1.160
2020/01/31 02:55:58.2	92.230	-0.100	0.170	1.150
2020/01/31 02:55:58.3	92.220	-0.160	0.290	1.140
2020/01/31 02:55:58.4	92.210	-0.220	0.410	1.120
2020/01/31 02:55:58.5	92.200	-0.290	0.530	1.100
2020/01/31 02:55:58.6	92.180	-0.350	0.630	1.080
2020/01/31 02:55:58.7	92.170	-0.420	0.740	1.060
2020/01/31 02:55:58.8	92.160	-0.480	0.830	1.030
2020/01/31 02:55:58.9	92.150	-0.540	0.910	1.000
2020/01/31 02:55:59.0	92.140	-0.600	0.980	0.970
2020/01/31 02:55:59.1	92.140	-0.650	1.040	0.940
2020/01/31 02:55:59.2	92.130	-0.700	1.080	0.910
2020/01/31 02:55:59.3	92.130	-0.750	1.110	0.870
2020/01/31 02:55:59.4	92.120	-0.780	1.130	0.840
2020/01/31 02:55:59.5	92.120	-0.820	1.130	0.810
2020/01/31 02:55:59.6	92.120	-0.840	1.110	0.770
2020/01/31 02:55:59.7	92.120	-0.860	1.090	0.740
2020/01/31 02:55:59.8	92.120	-0.870	1.040	0.700
2020/01/31 02:55:59.9	92.120	-0.880	0.990	0.660
2020/01/31 02:56:00.0	92.120	-0.870	0.920	0.630
2020/01/31 02:56:00.1	92.130	-0.860	0.840	0.590
2020/01/31 02:56:00.2	92.140	-0.840	0.750	0.550
2020/01/31 02:56:00.3	92.150	-0.820	0.640	0.520
2020/01/31 02:56:00.4	92.160	-0.780	0.530	0.480
2020/01/31 02:56:00.5	92.170	-0.740	0.410	0.440
2020/01/31 02:56:00.6	92.180	-0.700	0.280	0.400
2020/01/31 02:56:00.7	92.190	-0.650	0.150	0.360
2020/01/31 02:56:00.8	92.210	-0.590	0.020	0.320
2020/01/31 02:56:00.9	92.220	-0.530	-0.120	0.280
2020/01/31 02:56:01.0	92.240	-0.460	-0.260	0.240
2020/01/31 02:56:01.1	92.250	-0.400	-0.400	0.190
2020/01/31 02:56:01.2	92.270	-0.330	-0.530	0.150
2020/01/31 02:56:01.3	92.280	-0.250	-0.660	0.100
2020/01/31 02:56:01.4	92.300	-0.180	-0.780	0.050
2020/01/31 02:56:01.5	92.320	-0.110	-0.900	0.010
2020/01/31 02:56:01.6	92.340	-0.030	-1.010	-0.040
2020/01/31 02:56:01.7	92.360	0.040	-1.110	-0.090
2020/01/31 02:56:01.8	92.380	0.110	-1.200	-0.130
2020/01/31 02:56:01.9	92.390	0.180	-1.280	-0.170
2020/01/31 02:56:02.0	92.410	0.240	-1.350	-0.210
2020/01/31 02:56:02.1	92.430	0.310	-1.400	-0.240
2020/01/31 02:56:02.2	92.440	0.360	-1.440	-0.260
2020/01/31 02:56:02.3	92.460	0.420	-1.470	-0.290
2020/01/31 02:56:02.4	92.470	0.470	-1.480	-0.300
2020/01/31 02:56:02.5	92.490	0.510	-1.470	-0.310
2020/01/31 02:56:02.6	92.500	0.550	-1.460	-0.310
2020/01/31 02:56:02.7	92.510	0.580	-1.430	-0.310
2020/01/31 02:56:02.8	92.520	0.600	-1.390	-0.300
2020/01/31 02:56:02.9	92.530	0.630	-1.330	-0.290
2020/01/31 02:56:03.0	92.530	0.640	-1.270	-0.270
2020/01/31 02:56:03.1	92.540	0.650	-1.180	-0.250
2020/01/31 02:56:03.2	92.540	0.650	-1.100	-0.220
2020/01/31 02:56:03.3	92.540	0.650	-1.010	-0.190
2020/01/31 02:56:03.4	92.540	0.640	-0.910	-0.150
2020/01/31 02:56:03.5	92.540	0.630	-0.810	-0.110
2020/01/31 02:56:03.6	92.530	0.610	-0.700	-0.070
2020/01/31 02:56:03.7	92.530	0.590	-0.590	-0.030
2020/01/31 02:56:03.8	92.520	0.560	-0.480	0.020
2020/01/31 02:56:03.9	92.510	0.530	-0.370	0.060
2020/01/31 02:56:04.0	92.500	0.500	-0.260	0.110
2020/01/31 02:56:04.1	92.490	0.470	-0.160	0.160
2020/01/31 02:56:04.2	92.480	0.430	-0.060	0.200
2020/01/31 02:56:04.3	92.470	0.390	0.040	0.250
2020/01/31 02:56:04.4	92.460	0.350	0.130	0.290
2020/01/31 02:56:04.5	92.450	0.310	0.210	0.330
2020/01/31 02:56:04.6	92.440	0.270	0.290	0.370
2020/01/31 02:56:04.7	92.430	0.230	0.360	0.410
2020/01/31 02:56:04.8	92.420	0.190	0.420	0.450
2020/01/31 02:56:04.9	92.410	0.150	0.470	0.490
2020/01/31 02:56:05.0	92.400	0.110	0.520	0.530
2020/01/31 02:56:05.1	92.380	0.080	0.560	0.560
2020/01/31 02:56:05.2	92.370	0.040	0.590	0.600
2020/01/31 02:56:05.3	92.350	0.010	0.610	0.630
2020/01/31 02:56:05.4	92.340	-0.020	0.630	0.660
2020/01/31 02:56:05.5	92.320	-0.050	0.640	0.690
2020/01/31 02:56:05.6	92.300	-0.070	0.640	0.720
2020/01/31 02:56:05.7	92.280	-0.100	0.630	0.750
2020/01/31 02:56:05.8	92.260	-0.120	0.620	0.770
2020/01/31 02:56:05.9	92.230	-0.140	0.610	0.790
2020/01/31 02:56:06.0	92.210	-0.160	0.590	0.810
2020/01/31 02:56:06.1	92.180	-0.170	0.560	0.820
2020/01/31 02:56:06.2	92.160	-0.190	0.530	0.830
2020/01/31 02:56:06.3	92.130	-0.200	0.500	0.830
2020/01/31 02:56:06.4	92.110	-0.210	0.470	0.830
2020/01/31 02:56:06.5	92.090	-0.210	0.430	0.830
2020/01/31 02:56:06.6	92.070	-0.220	0.380	0.820
2020/01/31 02:56:06.7	92.060	-0.220	0.340	0.810
2020/01/31 02:56:06.8	92.040	-0.220	0.290	0.800
2020/01/31 02:56:06.9	92.030	-0.210	0.240	0.780
2020/01/31 02:56:07.0	92.020	-0.210	0.180	0.760
2020/01/31 02:56:07.1	92.010	-0.200	0.120	0.730
2020/01/31 02:56:07.2	92.000	-0.180	0.060	0.700
2020/01/31 02:56:07.3	92.000	-0.170	-0.010	0.670
2020/01/31 02:56:07.4	92.000	-0.140	-0.080	0.640
2020/01/31 02:56:07.5	92.010	-0.120	-0.150	0.610
2020/01/31 02:56:07.6	92.020	-0.090	-0.220	0.580
2020/01/31 02:56:07.7	92.030	-0.060	-0.300	0.550
2020/01/31 02:56:07.8	92.040	-0.030	-0.380	0.520
2020/01/31 02:56:07.9	92.060	0.000	-0.460	0.490
2020/01/31 02:56:08.0	92.080	0.040	-0.540	0.460
2020/01/31 02:56:08.1	92.100	0.080	-0.620	0.430
2020/01/31 02:56:08.2	92.120	0.120	-0.690	0.410
2020/01/31 02:56:08.3	92.150	0.170	-0.770	0.390
2020/01/31 02:56:08.4	92.170	0.210	-0.840	0.370
2020/01/31 02:56:08.5	92.200	0.260	-0.910	0.350
2020/01/31 02:56:08.6	92.230	0.300	-0.970	0.340
2020/01/31 02:56:08.7	92.250	0.340	-1.030	0.330
2020/01/31 02:56:08.8	92.280	0.390	-1.080	0.320
2020/01/31 02:56:08.9	92.310	0.430	-1.120	0.320
2020/01/31 02:56:09.0	92.330	0.470	-1.160	0.320
2020/01/31 02:56:09.1	92.360	0.500	-1.190	0.320
2020/01/31 02:56:09.2	92.390	0.530	-1.210	0.320
2020/01/31 02:56:09.3	92.410	0.560	-1.230	0.330
2020/01/31 02:56:09.4	92.430	0.590	-1.230	0.330
2020/01/31 02:56:09.5	92.450	0.610	-1.230	0.340
2020/01/31 02:56:09.6	92.470	0.630	-1.220	0.350
2020/01/31 02:56:09.7	92.480	0.640	-1.190	0.360
2020/01/31 02:56:09.8	92.490	0.640	-1.160	0.370
2020/01/31 02:56:09.9	92.500	0.640	-1.120	0.380
2020/01/31 02:56:10.0	92.510	0.640	-1.070	0.400
2020/01/31 02:56:10.1	92.520	0.630	-1.020	0.420
2020/01/31 02:56:10.2	92.530	0.610	-0.960	0.430
2020/01/31 02:56:10.3	92.530	0.590	-0.880	0.450
2020/01/31 02:56:10.4	92.520	0.560	-0.810	0.480
2020/01/31 02:56:10.5	92.520	0.530	-0.720	0.500
2020/01/31 02:56:10.6	92.510	0.490	-0.630	0.530
2020/01/31 02:56:10.7	92.500	0.450	-0.540	0.550
2020/01/31 02:56:10.8	92.490	0.400	-0.440	0.590
2020/01/31 02:56:10.9	92.480	0.350	-0.330	0.620
2020/01/31 02:56:11.0	92.460	0.300	-0.230	0.650
2020/01/31 02:56:11.1	92.440	0.240	-0.110	0.690
2020/01/31 02:56:11.2	92.420	0.180	-0.010	0.730
2020/01/31 02:56:11.3	92.400	0.120	0.100	0.760
2020/01/31 02:56:11.4	92.380	0.060	0.210	0.800
2020/01/31 02:56:11.5	92.360	-0.010	0.310	0.840
2020/01/31 02:56:11.6	92.340	-0.070	0.420	0.880
2020/01/31 02:56:11.7	92.310	-0.140	0.520	0.920
2020/01/31 02:56:11.8	92.300	-0.200	0.610	0.950
2020/01/31 02:56:11.9	92.280	-0.270	0.700	0.990
2020/01/31 02:56:12.0	92.260	-0.330	0.790	1.020
2020/01/31 02:56:12.1	92.250	-0.390	0.870	1.040
2020/01/31 02:56:12.2	92.230	-0.450	0.940	1.070
2020/01/31 02:56:12.3	92.220	-0.510	1.000	1.090
2020/01/31 02:56:12.4	92.220	-0.570	1.050	1.100
2020/01/31 02:56:12.5	92.210	-0.620	1.100	1.120
2020/01/31 02:56:12.6	92.210	-0.660	1.130	1.130
2020/01/31 02:56:12.7	92.210	-0.710	1.160	1.130
2020/01/31 02:56:12.8	92.210	-0.750	1.170	1.130
2020/01/31 02:56:12.9	92.210	-0.780	1.170	1.120
2020/01/31 02:56:13.0	92.220	-0.810	1.160	1.110
2020/01/31 02:56:13.1	92.230	-0.830	1.140	1.090
2020/01/31 02:56:13.2	92.240	-0.850	1.110	1.070
2020/01/31 02:56:13.3	92.250	-0.860	1.060	1.040
2020/01/31 02:56:13.4	92.260	-0.860	1.000	1.010
2020/01/31 02:56:13.5	92.280	-0.860	0.930	0.980
2020/01/31 02:56:13.6	92.290	-0.850	0.850	0.940
2020/01/31 02:56:13.7	92.310	-0.840	0.750	0.900
2020/01/31 02:56:13.8	92.330	-0.820	0.650	0.860
2020/01/31 02:56:13.9	92.350	-0.790	0.530	0.810
2020/01/31 02:56:14.0	92.370	-0.760	0.410	0.770
2020/01/31 02:56:14.1	92.390	-0.720	0.280	0.720
2020/01/31 02:56:14.2	92.410	-0.680	0.140	0.670
2020/01/31 02:56:14.3	92.430	-0.630	0.000	0.630
2020/01/31 02:56:14.4	92.450	-0.580	-0.150	0.590
2020/01/31 02:56:14.5	92.470	-0.520	-0.290	0.550
2020/01/31 02:56:14.6	92.490	-0.460	-0.440	0.510
2020/01/31 02:56:14.7	92.510	-0.400	-0.590	0.480
2020/01/31 02:56:14.8	92.520	-0.330	-0.730	0.450
2020/01/31 02:56:14.9	92.540	-0.270	-0.870	0.420
2020/01/31 02:56:15.0	92.550	-0.200	-1.000	0.400
2020/01/31 02:56:15.1	92.560	-0.130	-1.130	0.370
2020/01/31 02:56:15.2	92.570	-0.060	-1.250	0.360
2020/01/31 02:56:15.3	92.580	0.010	-1.350	0.350
2020/01/31 02:56:15.4	92.590	0.070	-1.450	0.340
2020/01/31 02:56:15.5	92.590	0.140	-1.530	0.330
2020/01/31 02:56:15.6	92.600	0.200	-1.590	0.330
2020/01/31 02:56:15.7	92.600	0.260	-1.640	0.340
2020/01/31 02:56:15.8	92.600	0.310	-1.680	0.350
2020/01/31 02:56:15.9	92.600	0.360	-1.700	0.360
2020/01/31 02:56:16.0	92.600	0.410	-1.700	0.380
2020/01/31 02:56:16.1	92.590	0.440	-1.690	0.400
2020/01/31 02:56:16.2	92.590	0.480	-1.660	0.420
2020/01/31 02:56:16.3	92.580	0.500	-1.610	0.440
2020/01/31 02:56:16.4	92.560	0.520	-1.550	0.470
2020/01/31 02:56:16.5	92.550	0.540	-1.480	0.500
2020/01/31 02:56:16.6	92.530	0.540	-1.390	0.520
2020/01/31 02:56:16.7	92.520	0.540	-1.290	0.550
2020/01/31 02:56:16.8	92.500	0.540	-1.180	0.580
2020/01/31 02:56:16.9	92.480	0.530	-1.060	0.610
2020/01/31 02:56:17.0	92.460	0.510	-0.940	0.630
2020/01/31 02:56:17.1	92.440	0.490	-0.800	0.650
2020/01/31 02:56:17.2	92.420	0.460	-0.670	0.680
2020/01/31 02:56:17.3	92.390	0.430	-0.530	0.700
2020/01/31 02:56:17.4	92.370	0.390	-0.390	0.730
2020/01/31 02:56:17.5	92.350	0.350	-0.250	0.750
2020/01/31 02:56:17.6	92.330	0.310	-0.110	0.770
2020/01/31 02:56:17.7	92.300	0.270	0.020	0.790
2020/01/31 02:56:17.8	92.280	0.220	0.150	0.810
2020/01/31 02:56:17.9	92.260	0.170	0.270	0.820
2020/01/31 02:56:18.0	92.240	0.130	0.380	0.840
2020/01/31 02:56:18.1	92.230	0.080	0.490	0.850
2020/01/31 02:56:18.2	92.210	0.030	0.580	0.860
2020/01/31 02:56:18.3	92.200	-0.010	0.660	0.860
2020/01/31 02:56:18.4	92.190	-0.050	0.730	0.860
2020/01/31 02:56:18.5	92.180	-0.080	0.780	0.860
2020/01/31 02:56:18.6	92.170	-0.120	0.820	0.850
2020/01/31 02:56:18.7	92.160	-0.140	0.850	0.840
2020/01/31 02:56:18.8	92.160	-0.170	0.860	0.830
2020/01/31 02:56:18.9	92.160	-0.180	0.850	0.810
2020/01/31 02:56:19.0	92.160	-0.200	0.840	0.780
2020/01/31 02:56:19.1	92.160	-0.200	0.800	0.750
2020/01/31 02:56:19.2	92.170	-0.200	0.760	0.720
2020/01/31 02:56:19.3	92.180	-0.200	0.700	0.680
2020/01/31 02:56:19.4	92.190	-0.190	0.630	0.630
2020/01/31 02:56:19.5	92.210	-0.170	0.550	0.590
2020/01/31 02:56:19.6	92.230	-0.150	0.470	0.540
2020/01/31 02:56:19.7	92.250	-0.130	0.370	0.480
2020/01/31 02:56:19.8	92.270	-0.100	0.270	0.430
2020/01/31 02:56:19.9	92.300	-0.070	0.170	0.370
2020/01/31 02:56:20.0	92.320	-0.030	0.070	0.320
2020/01/31 02:56:20.1	92.340	0.000	-0.040	0.270
2020/01/31 02:56:20.2	92.370	0.040	-0.140	0.220
2020/01/31 02:56:20.3	92.390	0.080	-0.240	0.170
2020/01/31 02:56:20.4	92.420	0.120	-0.340	0.130
2020/01/31 02:56:20.5	92.440	0.160	-0.430	0.100
2020/01/31 02:56:20.6	92.450	0.200	-0.510	0.060
2020/01/31 02:56:20.7	92.470	0.230	-0.590	0.030
2020/01/31 02:56:20.8	92.490	0.270	-0.660	0.010
2020/01/31 02:56:20.9	92.500	0.310	-0.720	-0.010
2020/01/31 02:56:21.0	92.510	0.340	-0.780	-0.030
2020/01/31 02:56:21.1	92.520	0.370	-0.820	-0.030
2020/01/31 02:56:21.2	92.530	0.390	-0.860	-0.040
2020/01/31 02:56:21.3	92.530	0.420	-0.880	-0.040
2020/01/31 02:56:21.4	92.540	0.430	-0.900	-0.040
2020/01/31 02:56:21.5	92.540	0.450	-0.910	-0.030
2020/01/31 02:56:21.6	92.540	0.460	-0.910	-0.020
2020/01/31 02:56:21.7	92.540	0.470	-0.890	-0.010
2020/01/31 02:56:21.8	92.530	0.480	-0.870	0.010
2020/01/31 02:56:21.9	92.530	0.480	-0.850	0.030
2020/01/31 02:56:22.0	92.520	0.470	-0.810	0.050
2020/01/31 02:56:22.1	92.520	0.470	-0.770	0.070
2020/01/31 02:56:22.2	92.510	0.450	-0.720	0.100
2020/01/31 02:56:22.3	92.500	0.440	-0.670	0.130
2020/01/31 02:56:22.4	92.500	0.420	-0.610	0.160
2020/01/31 02:56:22.5	92.490	0.400	-0.540	0.190
2020/01/31 02:56:22.6	92.490	0.380	-0.480	0.220
2020/01/31 02:56:22.7	92.480	0.360	-0.410	0.250
2020/01/31 02:56:22.8	92.480	0.330	-0.350	0.280
2020/01/31 02:56:22.9	92.480	0.300	-0.280	0.310
2020/01/31 02:56:23.0	92.480	0.270	-0.210	0.330
2020/01/31 02:56:23.1	92.480	0.240	-0.140	0.360
2020/01/31 02:56:23.2	92.480	0.210	-0.080	0.390
2020/01/31 02:56:23.3	92.480	0.180	-0.020	0.410
2020/01/31 02:56:23.4	92.490	0.140	0.040	0.430
2020/01/31 02:56:23.5	92.500	0.110	0.100	0.450
2020/01/31 02:56:23.6	92.520	0.080	0.150	0.460
2020/01/31 02:56:23.7	92.530	0.040	0.190	0.480
2020/01/31 02:56:23.8	92.550	0.010	0.230	0.490
2020/01/31 02:56:23.9	92.570	-0.020	0.270	0.500
2020/01/31 02:56:24.0	92.590	-0.050	0.300	0.510
2020/01/31 02:56:24.1	92.600	-0.080	0.320	0.510
2020/01/31 02:56:24.2	92.620	-0.110	0.340	0.510
2020/01/31 02:56:24.3	92.640	-0.140	0.350	0.520
2020/01/31 02:56:24.4	92.670	-0.170	0.360	0.530
2020/01/31 02:56:24.5	92.690	-0.200	0.360	0.530
2020/01/31 02:56:24.6	92.720	-0.220	0.360	0.540
2020/01/31 02:56:24.7	92.740	-0.250	0.350	0.550
2020/01/31 02:56:24.8	92.760	-0.270	0.340	0.550
2020/01/31 02:56:24.9	92.780	-0.290	0.320	0.560
2020/01/31 02:56:25.0	92.800	-0.310	0.300	0.580
2020/01/31 02:56:25.1	92.820	-0.320	0.280	0.590
2020/01/31 02:56:25.2	92.830	-0.340	0.250	0.600
2020/01/31 02:56:25.3	92.850	-0.350	0.220	0.620
2020/01/31 02:56:25.4	92.860	-0.360	0.200	0.630
2020/01/31 02:56:25.5	92.870	-0.380	0.170	0.650
2020/01/31 02:56:25.6	92.880	-0.380	0.140	0.660
2020/01/31 02:56:25.7	92.890	-0.390	0.110	0.680
2020/01/31 02:56:25.8	92.890	-0.400	0.080	0.700
2020/01/31 02:56:25.9	92.890	-0.410	0.050	0.720
2020/01/31 02:56:26.0	92.890	-0.410	0.020	0.730
2020/01/31 02:56:26.1	92.880	-0.420	-0.010	0.750
2020/01/31 02:56:26.2	92.880	-0.420	-0.030	0.770
2020/01/31 02:56:26.3	92.870	-0.420	-0.050	0.790
2020/01/31 02:56:26.4	92.870	-0.420	-0.070	0.810
2020/01/31 02:56:26.5	92.860	-0.420	-0.090	0.820
2020/01/31 02:56:26.6	92.850	-0.420	-0.110	0.840
2020/01/31 02:56:26.7	92.840	-0.420	-0.120	0.860
2020/01/31 02:56:26.8	92.830	-0.420	-0.140	0.880
2020/01/31 02:56:26.9	92.820	-0.410	-0.150	0.890
2020/01/31 02:56:27.0	92.810	-0.410	-0.170	0.910
2020/01/31 02:56:27.1	92.800	-0.400	-0.180	0.920
2020/01/31 02:56:27.2	92.790	-0.390	-0.190	0.930
2020/01/31 02:56:27.3	92.780	-0.380	-0.210	0.940
2020/01/31 02:56:27.4	92.770	-0.370	-0.230	0.950
2020/01/31 02:56:27.5	92.770	-0.360	-0.250	0.950
2020/01/31 02:56:27.6	92.770	-0.340	-0.270	0.950
2020/01/31 02:56:27.7	92.770	-0.320	-0.300	0.950
2020/01/31 02:56:27.8	92.770	-0.300	-0.320	0.950
2020/01/31 02:56:27.9	92.770	-0.280	-0.350	0.940
2020/01/31 02:56:28.0	92.780	-0.260	-0.390	0.920
2020/01/31 02:56:28.1	92.790	-0.230	-0.420	0.910
2020/01/31 02:56:28.2	92.800	-0.210	-0.460	0.890
2020/01/31 02:56:28.3	92.810	-0.180	-0.500	0.870
2020/01/31 02:56:28.4	92.820	-0.150	-0.550	0.840
2020/01/31 02:56:28.5	92.840	-0.120	-0.590	0.810
2020/01/31 02:56:28.6	92.850	-0.080	-0.640	0.780
2020/01/31 02:56:28.7	92.870	-0.050	-0.680	0.750
2020/01/31 02:56:28.8	92.890	-0.020	-0.730	0.720
2020/01/31 02:56:28.9	92.910	0.020	-0.770	0.680
2020/01/31 02:56:29.0	92.920	0.050	-0.820	0.650
2020/01/31 02:56:29.1	92.930	0.090	-0.860	0.610
2020/01/31 02:56:29.2	92.950	0.130	-0.890	0.570
2020/01/31 02:56:29.3	92.970	0.160	-0.930	0.530
2020/01/31 02:56:29.4	92.980	0.190	-0.960	0.490
2020/01/31 02:56:29.5	93.000	0.220	-0.980	0.450
2020/01/31 02:56:29.6	93.010	0.250	-1.000	0.410
2020/01/31 02:56:29.7	93.030	0.280	-1.000	0.370
2020/01/31 02:56:29.8	93.040	0.300	-1.000	0.330
2020/01/31 02:56:29.9	93.050	0.320	-1.000	0.290
2020/01/31 02:56:30.0	93.070	0.340	-0.980	0.260
2020/01/31 02:56:30.1	93.070	0.360	-0.960	0.220
2020/01/31 02:56:30.2	93.080	0.370	-0.930	0.190
2020/01/31 02:56:30.3	93.090	0.370	-0.880	0.160
2020/01/31 02:56:30.4	93.100	0.380	-0.830	0.130
2020/01/31 02:56:30.5	93.100	0.380	-0.780	0.110
2020/01/31 02:56:30.6	93.110	0.370	-0.710	0.090
2020/01/31 02:56:30.7	93.110	0.370	-0.640	0.080
2020/01/31 02:56:30.8	93.110	0.360	-0.560	0.070
2020/01/31 02:56:30.9	93.110	0.340	-0.480	0.060
2020/01/31 02:56:31.0	93.110	0.330	-0.390	0.060
2020/01/31 02:56:31.1	93.110	0.310	-0.300	0.050
2020/01/31 02:56:31.2	93.100	0.280	-0.210	0.060
2020/01/31 02:56:31.3	93.090	0.260	-0.120	0.060
2020/01/31 02:56:31.4	93.090	0.230	-0.030	0.080
2020/01/31 02:56:31.5	93.080	0.210	0.060	0.090
2020/01/31 02:56:31.6	93.070	0.180	0.150	0.110
2020/01/31 02:56:31.7	93.050	0.150	0.230	0.130
2020/01/31 02:56:31.8	93.040	0.130	0.300	0.150
2020/01/31 02:56:31.9	93.030	0.100	0.370	0.170
2020/01/31 02:56:32.0	93.020	0.070	0.430	0.190
2020/01/31 02:56:32.1	93.010	0.050	0.480	0.210
2020/01/31 02:56:32.2	93.000	0.020	0.520	0.230
2020/01/31 02:56:32.3	92.980	0.000	0.560	0.250
2020/01/31 02:56:32.4	92.970	-0.020	0.580	0.270
2020/01/31 02:56:32.5	92.970	-0.030	0.600	0.290
2020/01/31 02:56:32.6	92.960	-0.050	0.610	0.310
2020/01/31 02:56:32.7	92.950	-0.060	0.610	0.330
2020/01/31 02:56:32.8	92.950	-0.070	0.590	0.340
2020/01/31 02:56:32.9	92.950	-0.080	0.570	0.360
2020/01/31 02:56:33.0	92.950	-0.090	0.540	0.370
2020/01/31 02:56:33.1	92.950	-0.090	0.510	0.370
2020/01/31 02:56:33.2	92.960	-0.090	0.470	0.380
2020/01/31 02:56:33.3	92.960	-0.090	0.410	0.390
2020/01/31 02:56:33.4	92.970	-0.090	0.360	0.390
2020/01/31 02:56:33.5	92.980	-0.080	0.290	0.390
2020/01/31 02:56:33.6	92.990	-0.080	0.230	0.380
2020/01/31 02:56:33.7	93.000	-0.070	0.150	0.380
2020/01/31 02:56:33.8	93.010	-0.060	0.080	0.370
2020/01/31 02:56:33.9	93.020	-0.050	0.000	0.350
2020/01/31 02:56:34.0	93.030	-0.040	-0.080	0.340
2020/01/31 02:56:34.1	93.050	-0.030	-0.160	0.320
2020/01/31 02:56:34.2	93.070	-0.020	-0.240	0.300
2020/01/31 02:56:34.3	93.080	-0.010	-0.320	0.280
2020/01/31 02:56:34.4	93.100	0.000	-0.390	0.250
2020/01/31 02:56:34.5	93.110	0.010	-0.470	0.230
2020/01/31 02:56:34.6	93.130	0.030	-0.540	0.210
2020/01/31 02:56:34.7	93.150	0.040	-0.610	0.190
2020/01/31 02:56:34.8	93.160	0.050	-0.670	0.170
2020/01/31 02:56:34.9	93.180	0.060	-0.720	0.160
2020/01/31 02:56:35.0	93.200	0.060	-0.770	0.150
2020/01/31 02:56:35.1	93.220	0.070	-0.810	0.140
2020/01/31 02:56:35.2	93.230	0.080	-0.850	0.140
2020/01/31 02:56:35.3	93.250	0.080	-0.870	0.140
2020/01/31 02:56:35.4	93.260	0.080	-0.890	0.150
2020/01/31 02:56:35.5	93.270	0.090	-0.890	0.160
2020/01/31 02:56:35.6	93.280	0.090	-0.890	0.180
2020/01/31 02:56:35.7	93.290	0.080	-0.870	0.200
2020/01/31 02:56:35.8	93.300	0.080	-0.850	0.220
2020/01/31 02:56:35.9	93.310	0.070	-0.820	0.250
2020/01/31 02:56:36.0	93.320	0.070	-0.780	0.290
2020/01/31 02:56:36.1	93.330	0.060	-0.730	0.330
2020/01/31 02:56:36.2	93.340	0.050	-0.670	0.370
2020/01/31 02:56:36.3	93.340	0.030	-0.610	0.410
2020/01/31 02:56:36.4	93.350	0.020	-0.540	0.450
2020/01/31 02:56:36.5	93.350	0.000	-0.470	0.490
2020/01/31 02:56:36.6	93.360	-0.010	-0.400	0.530
2020/01/31 02:56:36.7	93.360	-0.030	-0.320	0.570
2020/01/31 02:56:36.8	93.370	-0.050	-0.240	0.610
2020/01/31 02:56:36.9	93.370	-0.070	-0.160	0.640
2020/01/31 02:56:37.0	93.380	-0.090	-0.080	0.670
2020/01/31 02:56:37.1	93.390	-0.110	-0.010	0.700
2020/01/31 02:56:37.2	93.390	-0.130	0.060	0.720
2020/01/31 02:56:37.3	93.400	-0.150	0.130	0.750
2020/01/31 02:56:37.4	93.400	-0.160	0.200	0.760
2020/01/31 02:56:37.5	93.410	-0.180	0.260	0.780
2020/01/31 02:56:37.6	93.420	-0.200	0.310	0.790
2020/01/31 02:56:37.7	93.420	-0.210	0.350	0.790
2020/01/31 02:56:37.8	93.430	-0.230	0.390	0.790
2020/01/31 02:56:37.9	93.440	-0.240	0.420	0.790
2020/01/31 02:56:38.0	93.450	-0.250	0.450	0.780
2020/01/31 02:56:38.1	93.450	-0.270	0.470	0.770
2020/01/31 02:56:38.2	93.460	-0.270	0.480	0.750
2020/01/31 02:56:38.3	93.470	-0.280	0.490	0.730
2020/01/31 02:56:38.4	93.480	-0.290	0.480	0.710
2020/01/31 02:56:38.5	93.480	-0.290	0.470	0.680
2020/01/31 02:56:38.6	93.490	-0.290	0.460	0.660
2020/01/31 02:56:38.7	93.500	-0.290	0.440	0.630
2020/01/31 02:56:38.8	93.510	-0.290	0.410	0.590
2020/01/31 02:56:38.9	93.520	-0.280	0.380	0.560
2020/01/31 02:56:39.0	93.530	-0.280	0.350	0.530
2020/01/31 02:56:39.1	93.540	-0.270	0.310	0.490
2020/01/31 02:56:39.2	93.550	-0.260	0.270	0.460
2020/01/31 02:56:39.3	93.560	-0.250	0.230	0.430
2020/01/31 02:56:39.4	93.570	-0.240	0.190	0.400
2020/01/31 02:56:39.5	93.580	-0.230	0.140	0.370
2020/01/31 02:56:39.6	93.590	-0.210	0.100	0.340
2020/01/31 02:56:39.7	93.600	-0.200	0.050	0.310
2020/01/31 02:56:39.8	93.610	-0.180	0.010	0.290
2020/01/31 02:56:39.9	93.620	-0.160	-0.040	0.270
2020/01/31 02:56:40.0	93.620	-0.150	-0.080	0.250
2020/01/31 02:56:40.1	93.640	-0.130	-0.120	0.240
2020/01/31 02:56:40.2	93.640	-0.110	-0.170	0.230
2020/01/31 02:56:40.3	93.650	-0.090	-0.210	0.220
2020/01/31 02:56:40.4	93.660	-0.060	-0.250	0.220
2020/01/31 02:56:40.5	93.660	-0.040	-0.300	0.210
2020/01/31 02:56:40.6	93.660	-0.020	-0.340	0.220
2020/01/31 02:56:40.7	93.660	0.010	-0.380	0.220
2020/01/31 02:56:40.8	93.660	0.030	-0.420	0.230
2020/01/31 02:56:40.9	93.660	0.060	-0.460	0.230
2020/01/31 02:56:41.0	93.660	0.090	-0.500	0.240
2020/01/31 02:56:41.1	93.660	0.120	-0.550	0.250
2020/01/31 02:56:41.2	93.650	0.150	-0.580	0.270
2020/01/31 02:56:41.3	93.640	0.180	-0.620	0.280
2020/01/31 02:56:41.4	93.630	0.210	-0.660	0.290
2020/01/31 02:56:41.5	93.620	0.230	-0.700	0.300
2020/01/31 02:56:41.6	93.610	0.260	-0.740	0.310
2020/01/31 02:56:41.7	93.600	0.290	-0.770	0.310
2020/01/31 02:56:41.8	93.590	0.320	-0.800	0.320
2020/01/31 02:56:41.9	93.580	0.350	-0.830	0.320
2020/01/31 02:56:42.0	93.570	0.380	-0.860	0.320
2020/01/31 02:56:42.1	93.560	0.400	-0.890	0.310
2020/01/31 02:56:42.2	93.550	0.420	-0.910	0.310
2020/01/31 02:56:42.3	93.550	0.450	-0.930	0.310
2020/01/31 02:56:42.4	93.540	0.470	-0.950	0.310
2020/01/31 02:56:42.5	93.540	0.480	-0.960	0.310
2020/01/31 02:56:42.6	93.530	0.500	-0.970	0.310
2020/01/31 02:56:42.7	93.530	0.510	-0.980	0.310
2020/01/31 02:56:42.8	93.530	0.520	-0.980	0.310
2020/01/31 02:56:42.9	93.530	0.530	-0.980	0.320
2020/01/31 02:56:43.0	93.530	0.530	-0.970	0.330
2020/01/31 02:56:43.1	93.530	0.530	-0.960	0.340
2020/01/31 02:56:43.2	93.530	0.520	-0.940	0.350
2020/01/31 02:56:43.3	93.540	0.510	-0.910	0.370
2020/01/31 02:56:43.4	93.540	0.500	-0.880	0.390
2020/01/31 02:56:43.5	93.540	0.480	-0.840	0.410
2020/01/31 02:56:43.6	93.550	0.460	-0.800	0.430
2020/01/31 02:56:43.7	93.550	0.440	-0.760	0.450
2020/01/31 02:56:43.8	93.550	0.410	-0.710	0.470
2020/01/31 02:56:43.9	93.560	0.380	-0.650	0.500
2020/01/31 02:56:44.0	93.560	0.350	-0.590	0.520
2020/01/31 02:56:44.1	93.560	0.310	-0.530	0.540
2020/01/31 02:56:44.2	93.570	0.270	-0.460	0.560
2020/01/31 02:56:44.3	93.570	0.230	-0.400	0.580
2020/01/31 02:56:44.4	93.570	0.190	-0.330	0.600
2020/01/31 02:56:44.5	93.580	0.140	-0.260	0.620
2020/01/31 02:56:44.6	93.580	0.090	-0.190	0.630
2020/01/31 02:56:44.7	93.580	0.050	-0.120	0.640
2020/01/31 02:56:44.8	93.590	0.000	-0.040	0.640
2020/01/31 02:56:44.9	93.590	-0.040	0.030	0.650
2020/01/31 02:56:45.0	93.590	-0.090	0.090	0.650
2020/01/31 02:56:45.1	93.590	-0.130	0.160	0.640
2020/01/31 02:56:45.2	93.600	-0.180	0.230	0.640
2020/01/31 02:56:45.3	93.600	-0.220	0.290	0.630
2020/01/31 02:56:45.4	93.610	-0.260	0.350	0.620
2020/01/31 02:56:45.5	93.620	-0.300	0.400	0.610
2020/01/31 02:56:45.6	93.630	-0.330	0.450	0.590
2020/01/31 02:56:45.7	93.630	-0.370	0.500	0.580
2020/01/31 02:56:45.8	93.640	-0.400	0.540	0.560
2020/01/31 02:56:45.9	93.660	-0.420	0.580	0.540
2020/01/31 02:56:46.0	93.670	-0.450	0.610	0.520
2020/01/31 02:56:46.1	93.680	-0.470	0.640	0.490
2020/01/31 02:56:46.2	93.700	-0.480	0.660	0.470
2020/01/31 02:56:46.3	93.720	-0.500	0.670	0.450
2020/01/31 02:56:46.4	93.740	-0.510	0.680	0.430
2020/01/31 02:56:46.5	93.760	-0.510	0.680	0.410
2020/01/31 02:56:46.6	93.780	-0.520	0.680	0.380
2020/01/31 02:56:46.7	93.810	-0.520	0.670	0.360
2020/01/31 02:56:46.8	93.840	-0.510	0.650	0.340
2020/01/31 02:56:46.9	93.870	-0.500	0.630	0.320
2020/01/31 02:56:47.0	93.890	-0.490	0.600	0.300
2020/01/31 02:56:47.1	93.920	-0.480	0.560	0.280
2020/01/31 02:56:47.2	93.950	-0.460	0.520	0.270
2020/01/31 02:56:47.3	93.980	-0.440	0.480	0.260
2020/01/31 02:56:47.4	94.010	-0.410	0.430	0.240
2020/01/31 02:56:47.5	94.040	-0.390	0.380	0.240
2020/01/31 02:56:47.6	94.060	-0.360	0.320	0.230
2020/01/31 02:56:47.7	94.090	-0.330	0.260	0.220
2020/01/31 02:56:47.8	94.110	-0.300	0.200	0.220
2020/01/31 02:56:47.9	94.120	-0.270	0.140	0.220
2020/01/31 02:56:48.0	94.140	-0.240	0.070	0.220
2020/01/31 02:56:48.1	94.150	-0.210	0.010	0.230
2020/01/31 02:56:48.2	94.160	-0.170	-0.060	0.230
2020/01/31 02:56:48.3	94.160	-0.140	-0.120	0.240
2020/01/31 02:56:48.4	94.160	-0.110	-0.180	0.250
2020/01/31 02:56:48.5	94.150	-0.080	-0.240	0.260
2020/01/31 02:56:48.6	94.140	-0.050	-0.300	0.270
2020/01/31 02:56:48.7	94.130	-0.020	-0.360	0.280
2020/01/31 02:56:48.8	94.110	0.010	-0.420	0.300
2020/01/31 02:56:48.9	94.090	0.030	-0.470	0.310
2020/01/31 02:56:49.0	94.070	0.060	-0.520	0.330
2020/01/31 02:56:49.1	94.040	0.080	-0.570	0.340
2020/01/31 02:56:49.2	94.010	0.100	-0.620	0.360
2020/01/31 02:56:49.3	93.970	0.110	-0.660	0.380
2020/01/31 02:56:49.4	93.930	0.130	-0.690	0.400
2020/01/31 02:56:49.5	93.900	0.140	-0.730	0.420
2020/01/31 02:56:49.6	93.850	0.160	-0.760	0.440
2020/01/31 02:56:49.7	93.810	0.170	-0.790	0.460
2020/01/31 02:56:49.8	93.770	0.170	-0.810	0.480
2020/01/31 02:56:49.9	93.720	0.180	-0.830	0.500
2020/01/31 02:56:50.0	93.680	0.190	-0.840	0.530
2020/01/31 02:56:50.1	93.640	0.190	-0.850	0.540
2020/01/31 02:56:50.2	93.600	0.190	-0.860	0.570
2020/01/31 02:56:50.3	93.560	0.190	-0.870	0.590
2020/01/31 02:56:50.4	93.520	0.190	-0.870	0.600
2020/01/31 02:56:50.5	93.490	0.180	-0.860	0.620
2020/01/31 02:56:50.6	93.460	0.180	-0.860	0.640
2020/01/31 02:56:50.7	93.430	0.180	-0.850	0.650
2020/01/31 02:56:50.8	93.410	0.170	-0.840	0.660
2020/01/31 02:56:50.9	93.390	0.170	-0.820	0.670
2020/01/31 02:56:51.0	93.370	0.160	-0.800	0.680
2020/01/31 02:56:51.1	93.370	0.160	-0.780	0.680
2020/01/31 02:56:51.2	93.360	0.150	-0.760	0.690
2020/01/31 02:56:51.3	93.360	0.150	-0.740	0.690
2020/01/31 02:56:51.4	93.370	0.140	-0.720	0.680
2020/01/31 02:56:51.5	93.370	0.140	-0.690	0.680
2020/01/31 02:56:51.6	93.380	0.140	-0.670	0.670
2020/01/31 02:56:51.7	93.400	0.140	-0.640	0.660
2020/01/31 02:56:51.8	93.420	0.140	-0.620	0.650
2020/01/31 02:56:51.9	93.440	0.140	-0.600	0.640
2020/01/31 02:56:52.0	93.460	0.140	-0.570	0.620
2020/01/31 02:56:52.1	93.480	0.140	-0.550	0.610
2020/01/31 02:56:52.2	93.510	0.150	-0.520	0.590
2020/01/31 02:56:52.3	93.530	0.150	-0.500	0.570
2020/01/31 02:56:52.4	93.560	0.160	-0.480	0.550
2020/01/31 02:56:52.5	93.580	0.170	-0.460	0.520
2020/01/31 02:56:52.6	93.610	0.170	-0.440	0.500
2020/01/31 02:56:52.7	93.630	0.180	-0.420	0.470
2020/01/31 02:56:52.8	93.650	0.190	-0.390	0.450
2020/01/31 02:56:52.9	93.680	0.190	-0.370	0.420
2020/01/31 02:56:53.0	93.700	0.200	-0.340	0.390
2020/01/31 02:56:53.1	93.720	0.200	-0.310	0.360
2020/01/31 02:56:53.2	93.740	0.200	-0.290	0.330
2020/01/31 02:56:53.3	93.750	0.200	-0.250	0.300
2020/01/31 02:56:53.4	93.770	0.200	-0.220	0.270
2020/01/31 02:56:53.5	93.780	0.190	-0.180	0.250
2020/01/31 02:56:53.6	93.790	0.190	-0.140	0.230
2020/01/31 02:56:53.7	93.800	0.180	-0.100	0.210
2020/01/31 02:56:53.8	93.800	0.160	-0.050	0.190
2020/01/31 02:56:53.9	93.800	0.150	-0.000	0.180
2020/01/31 02:56:54.0	93.800	0.130	0.050	0.170
2020/01/31 02:56:54.1	93.800	0.110	0.100	0.170
2020/01/31 02:56:54.2	93.790	0.090	0.160	0.170
2020/01/31 02:56:54.3	93.790	0.060	0.210	0.190
2020/01/31 02:56:54.4	93.770	0.030	0.270	0.200
2020/01/31 02:56:54.5	93.760	0.000	0.320	0.230
2020/01/31 02:56:54.6	93.750	-0.030	0.380	0.260
2020/01/31 02:56:54.7	93.730	-0.070	0.430	0.290
2020/01/31 02:56:54.8	93.710	-0.100	0.480	0.330
2020/01/31 02:56:54.9	93.690	-0.140	0.530	0.370
2020/01/31 02:56:55.0	93.680	-0.170	0.580	0.420
2020/01/31 02:56:55.1	93.670	-0.210	0.620	0.470
2020/01/31 02:56:55.2	93.650	-0.240	0.660	0.520
2020/01/31 02:56:55.3	93.630	-0.280	0.690	0.570
2020/01/31 02:56:55.4	93.610	-0.310	0.710	0.620
2020/01/31 02:56:55.5	93.600	-0.340	0.730	0.670
2020/01/31 02:56:55.6	93.590	-0.370	0.740	0.710
2020/01/31 02:56:55.7	93.580	-0.400	0.750	0.760
2020/01/31 02:56:55.8	93.570	-0.430	0.740	0.800
2020/01/31 02:56:55.9	93.560	-0.450	0.730	0.830
2020/01/31 02:56:56.0	93.560	-0.470	0.710	0.860
2020/01/31 02:56:56.1	93.550	-0.480	0.690	0.890
2020/01/31 02:56:56.2	93.550	-0.490	0.650	0.900
2020/01/31 02:56:56.3	93.560	-0.490	0.600	0.920
2020/01/31 02:56:56.4	93.570	-0.490	0.550	0.920
2020/01/31 02:56:56.5	93.580	-0.490	0.490	0.920
2020/01/31 02:56:56.6	93.590	-0.480	0.420	0.910
2020/01/31 02:56:56.7	93.600	-0.460	0.350	0.900
2020/01/31 02:56:56.8	93.620	-0.440	0.270	0.880
2020/01/31 02:56:56.9	93.640	-0.420	0.190	0.860
2020/01/31 02:56:57.0	93.660	-0.390	0.100	0.830
2020/01/31 02:56:57.1	93.680	-0.360	0.010	0.800
2020/01/31 02:56:57.2	93.690	-0.320	-0.090	0.770
2020/01/31 02:56:57.3	93.710	-0.290	-0.180	0.730
2020/01/31 02:56:57.4	93.730	-0.240	-0.280	0.700
2020/01/31 02:56:57.5	93.750	-0.200	-0.370	0.660
2020/01/31 02:56:57.6	93.770	-0.150	-0.470	0.620
2020/01/31 02:56:57.7	93.790	-0.100	-0.560	0.590
2020/01/31 02:56:57.8	93.800	-0.050	-0.650	0.560
2020/01/31 02:56:57.9	93.820	-0.000	-0.730	0.530
2020/01/31 02:56:58.0	93.830	0.050	-0.810	0.500
2020/01/31 02:56:58.1	93.840	0.100	-0.890	0.470
2020/01/31 02:56:58.2	93.850	0.150	-0.950	0.450
2020/01/31 02:56:58.3	93.860	0.200	-1.020	0.430
2020/01/31 02:56:58.4	93.870	0.250	-1.070	0.420
2020/01/31 02:56:58.5	93.870	0.300	-1.120	0.410
2020/01/31 02:56:58.6	93.870	0.340	-1.160	0.400
2020/01/31 02:56:58.7	93.870	0.380	-1.190	0.390
2020/01/31 02:56:58.8	93.870	0.420	-1.210	0.400
2020/01/31 02:56:58.9	93.870	0.450	-1.230	0.400
2020/01/31 02:56:59.0	93.870	0.490	-1.230	0.410
2020/01/31 02:56:59.1	93.860	0.510	-1.230	0.420
2020/01/31 02:56:59.2	93.850	0.540	-1.220	0.440
2020/01/31 02:56:59.3	93.840	0.560	-1.200	0.460
2020/01/31 02:56:59.4	93.830	0.580	-1.170	0.480
2020/01/31 02:56:59.5	93.810	0.590	-1.140	0.510
2020/01/31 02:56:59.6	93.800	0.600	-1.090	0.530
2020/01/31 02:56:59.7	93.780	0.600	-1.040	0.560
2020/01/31 02:56:59.8	93.760	0.600	-0.980	0.590
2020/01/31 02:56:59.9	93.740	0.600	-0.920	0.620
2020/01/31 02:57:00.0	93.710	0.590	-0.850	0.650
2020/01/31 02:57:00.1	93.690	0.580	-0.780	0.680
2020/01/31 02:57:00.2	93.660	0.560	-0.700	0.710
2020/01/31 02:57:00.3	93.630	0.540	-0.620	0.740
2020/01/31 02:57:00.4	93.610	0.520	-0.540	0.770
2020/01/31 02:57:00.5	93.580	0.490	-0.460	0.790
2020/01/31 02:57:00.6	93.550	0.460	-0.380	0.820
2020/01/31 02:57:00.7	93.530	0.430	-0.300	0.840
2020/01/31 02:57:00.8	93.500	0.390	-0.220	0.860
2020/01/31 02:57:00.9	93.480	0.360	-0.140	0.880
2020/01/31 02:57:01.0	93.450	0.320	-0.070	0.890
2020/01/31 02:57:01.1	93.430	0.280	0.000	0.900
2020/01/31 02:57:01.2	93.410	0.240	0.070	0.900
2020/01/31 02:57:01.3	93.390	0.200	0.130	0.910
2020/01/31 02:57:01.4	93.370	0.160	0.180	0.910
2020/01/31 02:57:01.5	93.360	0.110	0.220	0.910
2020/01/31 02:57:01.6	93.340	0.070	0.260	0.900
2020/01/31 02:57:01.7	93.330	0.030	0.290	0.900
2020/01/31 02:57:01.8	93.320	-0.000	0.320	0.890
2020/01/31 02:57:01.9	93.310	-0.040	0.340	0.880
2020/01/31 02:57:02.0	93.300	-0.080	0.350	0.870
2020/01/31 02:57:02.1	93.300	-0.110	0.350	0.850
2020/01/31 02:57:02.2	93.290	-0.140	0.350	0.840
2020/01/31 02:57:02.3	93.290	-0.170	0.340	0.820
2020/01/31 02:57:02.4	93.280	-0.190	0.320	0.810
2020/01/31 02:57:02.5	93.280	-0.220	0.300	0.790
2020/01/31 02:57:02.6	93.280	-0.240	0.270	0.770
2020/01/31 02:57:02.7	93.280	-0.250	0.240	0.750
2020/01/31 02:57:02.8	93.280	-0.270	0.200	0.730
2020/01/31 02:57:02.9	93.280	-0.280	0.160	0.720
2020/01/31 02:57:03.0	93.280	-0.290	0.120	0.700
2020/01/31 02:57:03.1	93.290	-0.290	0.080	0.670
2020/01/31 02:57:03.2	93.290	-0.300	0.040	0.650
2020/01/31 02:57:03.3	93.290	-0.300	-0.000	0.630
2020/01/31 02:57:03.4	93.300	-0.300	-0.040	0.610
2020/01/31 02:57:03.5	93.300	-0.300	-0.080	0.590
2020/01/31 02:57:03.6	93.310	-0.300	-0.120	0.570
2020/01/31 02:57:03.7	93.310	-0.290	-0.150	0.550
2020/01/31 02:57:03.8	93.320	-0.290	-0.180	0.530
2020/01/31 02:57:03.9	93.320	-0.290	-0.210	0.510
2020/01/31 02:57:04.0	93.330	-0.280	-0.230	0.490
2020/01/31 02:57:04.1	93.330	-0.280	-0.250	0.470
2020/01/31 02:57:04.2	93.330	-0.280	-0.270	0.450
2020/01/31 02:57:04.3	93.340	-0.280	-0.280	0.430
2020/01/31 02:57:04.4	93.340	-0.280	-0.280	0.410
2020/01/31 02:57:04.5	93.340	-0.280	-0.280	0.400
2020/01/31 02:57:04.6	93.340	-0.280	-0.280	0.390
2020/01/31 02:57:04.7	93.340	-0.280	-0.270	0.380
2020/01/31 02:57:04.8	93.340	-0.280	-0.260	0.370
2020/01/31 02:57:04.9	93.340	-0.290	-0.240	0.360
2020/01/31 02:57:05.0	93.340	-0.290	-0.230	0.360
2020/01/31 02:57:05.1	93.340	-0.300	-0.200	0.360
2020/01/31 02:57:05.2	93.340	-0.300	-0.180	0.360
2020/01/31 02:57:05.3	93.340	-0.310	-0.160	0.370
2020/01/31 02:57:05.4	93.330	-0.310	-0.130	0.380
2020/01/31 02:57:05.5	93.330	-0.320	-0.110	0.390
2020/01/31 02:57:05.6	93.330	-0.320	-0.080	0.410
2020/01/31 02:57:05.7	93.330	-0.330	-0.060	0.420
2020/01/31 02:57:05.8	93.330	-0.330	-0.030	0.440
2020/01/31 02:57:05.9	93.330	-0.330	-0.010	0.460
2020/01/31 02:57:06.0	93.320	-0.330	0.010	0.490
2020/01/31 02:57:06.1	93.320	-0.330	0.020	0.510
2020/01/31 02:57:06.2	93.330	-0.330	0.030	0.530
2020/01/31 02:57:06.3	93.330	-0.320	0.040	0.550
2020/01/31 02:57:06.4	93.330	-0.320	0.040	0.580
2020/01/31 02:57:06.5	93.330	-0.300	0.040	0.600
2020/01/31 02:57:06.6	93.340	-0.290	0.030	0.620
2020/01/31 02:57:06.7	93.340	-0.270	0.020	0.640
2020/01/31 02:57:06.8	93.350	-0.250	-0.000	0.660
2020/01/31 02:57:06.9	93.350	-0.230	-0.030	0.670
2020/01/31 02:57:07.0	93.360	-0.200	-0.060	0.690
2020/01/31 02:57:07.1	93.360	-0.170	-0.100	0.700
2020/01/31 02:57:07.2	93.360	-0.140	-0.140	0.720
2020/01/31 02:57:07.3	93.370	-0.110	-0.190	0.720
2020/01/31 02:57:07.4	93.370	-0.070	-0.250	0.730
2020/01/31 02:57:07.5	93.380	-0.030	-0.310	0.740
2020/01/31 02:57:07.6	93.380	0.020	-0.370	0.740
2020/01/31 02:57:07.7	93.380	0.060	-0.430	0.740
2020/01/31 02:57:07.8	93.380	0.100	-0.490	0.730
2020/01/31 02:57:07.9	93.380	0.150	-0.560	0.730
2020/01/31 02:57:08.0	93.380	0.190	-0.620	0.720
2020/01/31 02:57:08.1	93.380	0.240	-0.680	0.710
2020/01/31 02:57:08.2	93.380	0.280	-0.740	0.690
2020/01/31 02:57:08.3	93.380	0.320	-0.790	0.680
2020/01/31 02:57:08.4	93.380	0.360	-0.830	0.660
2020/01/31 02:57:08.5	93.370	0.390	-0.870	0.650
2020/01/31 02:57:08.6	93.370	0.430	-0.890	0.630
2020/01/31 02:57:08.7	93.360	0.450	-0.910	0.620
2020/01/31 02:57:08.8	93.360	0.480	-0.920	0.600
2020/01/31 02:57:08.9	93.350	0.500	-0.920	0.590
2020/01/31 02:57:09.0	93.340	0.510	-0.910	0.580
2020/01/31 02:57:09.1	93.330	0.520	-0.890	0.570
2020/01/31 02:57:09.2	93.320	0.520	-0.860	0.570
2020/01/31 02:57:09.3	93.310	0.520	-0.810	0.560
2020/01/31 02:57:09.4	93.300	0.520	-0.760	0.560
2020/01/31 02:57:09.5	93.290	0.500	-0.700	0.560
2020/01/31 02:57:09.6	93.280	0.490	-0.620	0.570
2020/01/31 02:57:09.7	93.260	0.460	-0.540	0.570
2020/01/31 02:57:09.8	93.250	0.430	-0.460	0.580
2020/01/31 02:57:09.9	93.240	0.400	-0.360	0.590
2020/01/31 02:57:10.0	93.230	0.370	-0.260	0.600
2020/01/31 02:57:10.1	93.220	0.330	-0.160	0.610
2020/01/31 02:57:10.2	93.210	0.280	-0.050	0.630
2020/01/31 02:57:10.3	93.200	0.240	0.050	0.640
2020/01/31 02:57:10.4	93.190	0.190	0.160	0.660
2020/01/31 02:57:10.5	93.180	0.140	0.260	0.670
2020/01/31 02:57:10.6	93.170	0.090	0.360	0.680
2020/01/31 02:57:10.7	93.170	0.040	0.450	0.690
2020/01/31 02:57:10.8	93.160	-0.020	0.530	0.700
2020/01/31 02:57:10.9	93.150	-0.070	0.610	0.710
2020/01/31 02:57:11.0	93.150	-0.110	0.680	0.720
2020/01/31 02:57:11.1	93.140	-0.160	0.740	0.730
2020/01/31 02:57:11.2	93.140	-0.200	0.780	0.730
2020/01/31 02:57:11.3	93.130	-0.240	0.820	0.730
2020/01/31 02:57:11.4	93.130	-0.270	0.840	0.730
2020/01/31 02:57:11.5	93.120	-0.300	0.850	0.720
2020/01/31 02:57:11.6	93.110	-0.330	0.840	0.710
2020/01/31 02:57:11.7	93.110	-0.340	0.820	0.700
2020/01/31 02:57:11.8	93.100	-0.360	0.790	0.690
2020/01/31 02:57:11.9	93.090	-0.370	0.740	0.680
2020/01/31 02:57:12.0	93.090	-0.370	0.690	0.660
2020/01/31 02:57:12.1	93.080	-0.360	0.620	0.640
2020/01/31 02:57:12.2	93.080	-0.360	0.530	0.620
2020/01/31 02:57:12.3	93.070	-0.340	0.440	0.610
2020/01/31 02:57:12.4	93.070	-0.320	0.340	0.590
2020/01/31 02:57:12.5	93.060	-0.290	0.230	0.570
2020/01/31 02:57:12.6	93.060	-0.260	0.110	0.560
2020/01/31 02:57:12.7	93.050	-0.230	-0.010	0.540
2020/01/31 02:57:12.8	93.040	-0.190	-0.140	0.530
2020/01/31 02:57:12.9	93.040	-0.150	-0.270	0.520
2020/01/31 02:57:13.0	93.030	-0.110	-0.400	0.520
2020/01/31 02:57:13.1	93.030	-0.060	-0.530	0.520
2020/01/31 02:57:13.2	93.020	-0.010	-0.670	0.520
2020/01/31 02:57:13.3	93.020	0.040	-0.790	0.520
2020/01/31 02:57:13.4	93.010	0.090	-0.920	0.530
2020/01/31 02:57:13.5	93.000	0.140	-1.030	0.540
2020/01/31 02:57:13.6	92.990	0.190	-1.140	0.550
2020/01/31 02:57:13.7	92.970	0.240	-1.240	0.560
2020/01/31 02:57:13.8	92.960	0.280	-1.330	0.580
2020/01/31 02:57:13.9	92.950	0.320	-1.410	0.600
2020/01/31 02:57:14.0	92.940	0.360	-1.480	0.620
2020/01/31 02:57:14.1	92.920	0.400	-1.530	0.640
2020/01/31 02:57:14.2	92.910	0.430	-1.560	0.660
2020/01/31 02:57:14.3	92.900	0.450	-1.590	0.680
2020/01/31 02:57:14.4	92.880	0.470	-1.590	0.700
2020/01/31 02:57:14.5	92.870	0.480	-1.580	0.720
2020/01/31 02:57:14.6	92.860	0.490	-1.550	0.750
2020/01/31 02:57:14.7	92.850	0.490	-1.510	0.770
2020/01/31 02:57:14.8	92.830	0.490	-1.450	0.790
2020/01/31 02:57:14.9	92.820	0.480	-1.370	0.810
2020/01/31 02:57:15.0	92.810	0.460	-1.280	0.830
2020/01/31 02:57:15.1	92.810	0.430	-1.170	0.850
2020/01/31 02:57:15.2	92.800	0.400	-1.050	0.860
2020/01/31 02:57:15.3	92.790	0.370	-0.920	0.880
2020/01/31 02:57:15.4	92.780	0.330	-0.780	0.900
2020/01/31 02:57:15.5	92.770	0.280	-0.630	0.910
2020/01/31 02:57:15.6	92.760	0.230	-0.470	0.930
2020/01/31 02:57:15.7	92.760	0.180	-0.310	0.940
2020/01/31 02:57:15.8	92.750	0.120	-0.150	0.950
2020/01/31 02:57:15.9	92.750	0.060	0.010	0.960
2020/01/31 02:57:16.0	92.750	-0.010	0.180	0.970
2020/01/31 02:57:16.1	92.750	-0.070	0.340	0.970
2020/01/31 02:57:16.2	92.750	-0.140	0.500	0.980
2020/01/31 02:57:16.3	92.750	-0.210	0.640	0.980
2020/01/31 02:57:16.4	92.750	-0.270	0.780	0.990
2020/01/31 02:57:16.5	92.750	-0.340	0.910	0.990
2020/01/31 02:57:16.6	92.760	-0.400	1.030	0.990
2020/01/31 02:57:16.7	92.760	-0.460	1.130	0.980
2020/01/31 02:57:16.8	92.770	-0.520	1.220	0.970
2020/01/31 02:57:16.9	92.780	-0.570	1.290	0.960
2020/01/31 02:57:17.0	92.790	-0.620	1.350	0.950
2020/01/31 02:57:17.1	92.800	-0.660	1.390	0.930
2020/01/31 02:57:17.2	92.820	-0.690	1.400	0.910
2020/01/31 02:57:17.3	92.830	-0.720	1.400	0.890
2020/01/31 02:57:17.4	92.850	-0.740	1.380	0.870
2020/01/31 02:57:17.5	92.860	-0.750	1.340	0.830
2020/01/31 02:57:17.6	92.880	-0.760	1.280	0.800
2020/01/31 02:57:17.7	92.900	-0.760	1.210	0.770
2020/01/31 02:57:17.8	92.920	-0.750	1.110	0.730
2020/01/31 02:57:17.9	92.940	-0.730	1.010	0.690
2020/01/31 02:57:18.0	92.950	-0.700	0.880	0.640
2020/01/31 02:57:18.1	92.970	-0.670	0.740	0.600
2020/01/31 02:57:18.2	92.990	-0.630	0.600	0.560
2020/01/31 02:57:18.3	93.010	-0.580	0.440	0.510
2020/01/31 02:57:18.4	93.030	-0.530	0.280	0.470
2020/01/31 02:57:18.5	93.040	-0.470	0.110	0.430
2020/01/31 02:57:18.6	93.060	-0.410	-0.060	0.390
2020/01/31 02:57:18.7	93.070	-0.340	-0.220	0.360
2020/01/31 02:57:18.8	93.080	-0.270	-0.390	0.330
2020/01/31 02:57:18.9	93.090	-0.200	-0.550	0.300
2020/01/31 02:57:19.0	93.090	-0.130	-0.700	0.280
2020/01/31 02:57:19.1	93.090	-0.060	-0.850	0.260
2020/01/31 02:57:19.2	93.090	0.010	-0.990	0.250
2020/01/31 02:57:19.3	93.080	0.080	-1.110	0.240
2020/01/31 02:57:19.4	93.080	0.150	-1.210	0.240
2020/01/31 02:57:19.5	93.070	0.210	-1.300	0.250
2020/01/31 02:57:19.6	93.060	0.270	-1.380	0.260
2020/01/31 02:57:19.7	93.050	0.330	-1.440	0.270
2020/01/31 02:57:19.8	93.040	0.380	-1.480	0.290
2020/01/31 02:57:19.9	93.020	0.430	-1.500	0.310
2020/01/31 02:57:20.0	93.010	0.470	-1.510	0.330
2020/01/31 02:57:20.1	92.990	0.500	-1.490	0.360
2020/01/31 02:57:20.2	92.970	0.530	-1.470	0.380
2020/01/31 02:57:20.3	92.950	0.560	-1.430	0.410
2020/01/31 02:57:20.4	92.930	0.570	-1.370	0.440
2020/01/31 02:57:20.5	92.900	0.580	-1.310	0.470
2020/01/31 02:57:20.6	92.880	0.590	-1.230	0.500
2020/01/31 02:57:20.7	92.850	0.590	-1.140	0.530
2020/01/31 02:57:20.8	92.830	0.580	-1.040	0.550
2020/01/31 02:57:20.9	92.800	0.570	-0.940	0.580
2020/01/31 02:57:21.0	92.780	0.550	-0.830	0.600
2020/01/31 02:57:21.1	92.750	0.530	-0.720	0.620
2020/01/31 02:57:21.2	92.730	0.500	-0.600	0.640
2020/01/31 02:57:21.3	92.710	0.480	-0.490	0.660
2020/01/31 02:57:21.4	92.680	0.440	-0.380	0.670
2020/01/31 02:57:21.5	92.660	0.410	-0.260	0.680
2020/01/31 02:57:21.6	92.650	0.370	-0.160	0.690
2020/01/31 02:57:21.7	92.630	0.340	-0.060	0.690
2020/01/31 02:57:21.8	92.610	0.300	0.040	0.690
2020/01/31 02:57:21.9	92.600	0.260	0.130	0.680
2020/01/31 02:57:22.0	92.590	0.220	0.210	0.680
2020/01/31 02:57:22.1	92.580	0.180	0.280	0.670
2020/01/31 02:57:22.2	92.570	0.150	0.340	0.650
2020/01/31 02:57:22.3	92.560	0.110	0.390	0.640
2020/01/31 02:57:22.4	92.550	0.080	0.440	0.620
2020/01/31 02:57:22.5	92.540	0.050	0.470	0.610
2020/01/31 02:57:22.6	92.540	0.020	0.490	0.590
2020/01/31 02:57:22.7	92.530	-0.000	0.500	0.570
2020/01/31 02:57:22.8	92.520	-0.020	0.500	0.550
2020/01/31 02:57:22.9	92.520	-0.040	0.490	0.540
2020/01/31 02:57:23.0	92.510	-0.060	0.470	0.520
2020/01/31 02:57:23.1	92.510	-0.070	0.450	0.500
2020/01/31 02:57:23.2	92.510	-0.080	0.410	0.480
2020/01/31 02:57:23.3	92.510	-0.080	0.370	0.460
2020/01/31 02:57:23.4	92.510	-0.080	0.310	0.440
2020/01/31 02:57:23.5	92.510	-0.080	0.260	0.420
2020/01/31 02:57:23.6	92.510	-0.070	0.190	0.390
2020/01/31 02:57:23.7	92.510	-0.060	0.130	0.370
2020/01/31 02:57:23.8	92.520	-0.050	0.060	0.350
2020/01/31 02:57:23.9	92.530	-0.040	-0.020	0.330
2020/01/31 02:57:24.0	92.530	-0.030	-0.090	0.310
2020/01/31 02:57:24.1	92.540	-0.010	-0.160	0.280
2020/01/31 02:57:24.2	92.550	0.010	-0.230	0.260
2020/01/31 02:57:24.3	92.560	0.020	-0.300	0.250
2020/01/31 02:57:24.4	92.570	0.040	-0.360	0.240
2020/01/31 02:57:24.5	92.580	0.050	-0.410	0.230
2020/01/31 02:57:24.6	92.590	0.060	-0.460	0.220
2020/01/31 02:57:24.7	92.610	0.070	-0.500	0.220
2020/01/31 02:57:24.8	92.620	0.080	-0.540	0.220
2020/01/31 02:57:24.9	92.630	0.090	-0.560	0.230
2020/01/31 02:57:25.0	92.640	0.090	-0.570	0.230
2020/01/31 02:57:25.1	92.650	0.090	-0.590	0.240
2020/01/31 02:57:25.2	92.660	0.090	-0.580	0.260
2020/01/31 02:57:25.3	92.680	0.080	-0.570	0.280
2020/01/31 02:57:25.4	92.680	0.070	-0.550	0.300
2020/01/31 02:57:25.5	92.700	0.060	-0.520	0.320
2020/01/31 02:57:25.6	92.700	0.040	-0.480	0.350
2020/01/31 02:57:25.7	92.710	0.020	-0.440	0.380
2020/01/31 02:57:25.8	92.720	-0.000	-0.380	0.420
2020/01/31 02:57:25.9	92.730	-0.030	-0.330	0.450
2020/01/31 02:57:26.0	92.730	-0.060	-0.270	0.490
2020/01/31 02:57:26.1	92.740	-0.090	-0.190	0.530
2020/01/31 02:57:26.2	92.740	-0.130	-0.130	0.570
2020/01/31 02:57:26.3	92.750	-0.160	-0.060	0.610
2020/01/31 02:57:26.4	92.750	-0.200	0.010	0.650
2020/01/31 02:57:26.5	92.750	-0.240	0.080	0.700
2020/01/31 02:57:26.6	92.750	-0.270	0.140	0.740
2020/01/31 02:57:26.7	92.760	-0.310	0.200	0.780
2020/01/31 02:57:26.8	92.760	-0.350	0.250	0.830
2020/01/31 02:57:26.9	92.760	-0.380	0.300	0.870
2020/01/31 02:57:27.0	92.750	-0.420	0.340	0.910
2020/01/31 02:57:27.1	92.750	-0.450	0.370	0.950
2020/01/31 02:57:27.2	92.750	-0.470	0.390	0.980
2020/01/31 02:57:27.3	92.750	-0.500	0.400	1.010
2020/01/31 02:57:27.4	92.750	-0.520	0.400	1.040
2020/01/31 02:57:27.5	92.740	-0.530	0.390	1.070
2020/01/31 02:57:27.6	92.740	-0.540	0.370	1.100
2020/01/31 02:57:27.7	92.740	-0.550	0.340	1.120
2020/01/31 02:57:27.8	92.730	-0.550	0.300	1.130
2020/01/31 02:57:27.9	92.730	-0.550	0.260	1.150
2020/01/31 02:57:28.0	92.730	-0.540	0.200	1.160
2020/01/31 02:57:28.1	92.730	-0.530	0.140	1.160
2020/01/31 02:57:28.2	92.730	-0.510	0.060	1.170
2020/01/31 02:57:28.3	92.730	-0.480	-0.010	1.170
2020/01/31 02:57:28.4	92.730	-0.450	-0.100	1.160
2020/01/31 02:57:28.5	92.730	-0.420	-0.190	1.160
2020/01/31 02:57:28.6	92.730	-0.380	-0.280	1.150
2020/01/31 02:57:28.7	92.730	-0.340	-0.370	1.140
2020/01/31 02:57:28.8	92.730	-0.300	-0.460	1.130
2020/01/31 02:57:28.9	92.730	-0.250	-0.560	1.110
2020/01/31 02:57:29.0	92.730	-0.200	-0.650	1.100
2020/01/31 02:57:29.1	92.740	-0.150	-0.740	1.090
2020/01/31 02:57:29.2	92.740	-0.090	-0.820	1.080
2020/01/31 02:57:29.3	92.740	-0.040	-0.900	1.060
2020/01/31 02:57:29.4	92.740	0.020	-0.970	1.050
2020/01/31 02:57:29.5	92.740	0.070	-1.030	1.040
2020/01/31 02:57:29.6	92.740	0.120	-1.090	1.030
2020/01/31 02:57:29.7	92.730	0.180	-1.130	1.020
2020/01/31 02:57:29.8	92.730	0.230	-1.170	1.020
2020/01/31 02:57:29.9	92.720	0.270	-1.190	1.010
2020/01/31 02:57:30.0	92.720	0.320	-1.200	1.000
2020/01/31 02:57:30.1	92.710	0.360	-1.200	0.990
2020/01/31 02:57:30.2	92.700	0.390	-1.180	0.980
2020/01/31 02:57:30.3	92.690	0.420	-1.160	0.970
2020/01/31 02:57:30.4	92.680	0.450	-1.120	0.960
2020/01/31 02:57:30.5	92.670	0.470	-1.070	0.960
2020/01/31 02:57:30.6	92.660	0.480	-1.010	0.950
2020/01/31 02:57:30.7	92.640	0.490	-0.940	0.930
2020/01/31 02:57:30.8	92.630	0.500	-0.860	0.920
2020/01/31 02:57:30.9	92.620	0.500	-0.770	0.910
2020/01/31 02:57:31.0	92.610	0.490	-0.670	0.890
2020/01/31 02:57:31.1	92.590	0.480	-0.560	0.870
2020/01/31 02:57:31.2	92.580	0.460	-0.450	0.850
2020/01/31 02:57:31.3	92.560	0.430	-0.330	0.830
2020/01/31 02:57:31.4	92.550	0.410	-0.210	0.810
2020/01/31 02:57:31.5	92.540	0.380	-0.090	0.780
2020/01/31 02:57:31.6	92.530	0.340	0.040	0.760
2020/01/31 02:57:31.7	92.520	0.300	0.160	0.730
2020/01/31 02:57:31.8	92.510	0.260	0.280	0.710
2020/01/31 02:57:31.9	92.500	0.220	0.400	0.680
2020/01/31 02:57:32.0	92.490	0.170	0.510	0.650
2020/01/31 02:57:32.1	92.470	0.130	0.620	0.620
2020/01/31 02:57:32.2	92.470	0.080	0.720	0.590
2020/01/31 02:57:32.3	92.460	0.030	0.810	0.560
2020/01/31 02:57:32.4	92.460	-0.010	0.880	0.530
2020/01/31 02:57:32.5	92.450	-0.050	0.950	0.510
2020/01/31 02:57:32.6	92.450	-0.090	1.000	0.480
2020/01/31 02:57:32.7	92.440	-0.130	1.030	0.450
2020/01/31 02:57:32.8	92.440	-0.160	1.050	0.420
2020/01/31 02:57:32.9	92.440	-0.190	1.060	0.400
2020/01/31 02:57:33.0	92.440	-0.210	1.050	0.370
2020/01/31 02:57:33.1	92.440	-0.230	1.020	0.350
2020/01/31 02:57:33.2	92.440	-0.240	0.980	0.320
2020/01/31 02:57:33.3	92.440	-0.250	0.920	0.300
2020/01/31 02:57:33.4	92.450	-0.250	0.850	0.270
2020/01/31 02:57:33.5	92.450	-0.250	0.760	0.250
2020/01/31 02:57:33.6	92.460	-0.240	0.660	0.220
2020/01/31 02:57:33.7	92.470	-0.230	0.550	0.200
2020/01/31 02:57:33.8	92.480	-0.210	0.430	0.170
2020/01/31 02:57:33.9	92.490	-0.190	0.310	0.150
2020/01/31 02:57:34.0	92.500	-0.160	0.170	0.120
2020/01/31 02:57:34.1	92.510	-0.130	0.030	0.090
2020/01/31 02:57:34.2	92.530	-0.090	-0.110	0.070
2020/01/31 02:57:34.3	92.540	-0.050	-0.250	0.040
2020/01/31 02:57:34.4	92.560	-0.010	-0.400	0.020
2020/01/31 02:57:34.5	92.580	0.030	-0.540	0.010
2020/01/31 02:57:34.6	92.590	0.070	-0.670	-0.010
2020/01/31 02:57:34.7	92.610	0.120	-0.810	-0.020
2020/01/31 02:57:34.8	92.630	0.160	-0.930	-0.030
2020/01/31 02:57:34.9	92.640	0.200	-1.040	-0.040
2020/01/31 02:57:35.0	92.650	0.240	-1.150	-0.040
2020/01/31 02:57:35.1	92.660	0.280	-1.240	-0.040
2020/01/31 02:57:35.2	92.680	0.320	-1.320	-0.040
2020/01/31 02:57:35.3	92.690	0.350	-1.390	-0.030
2020/01/31 02:57:35.4	92.700	0.380	-1.440	-0.020
2020/01/31 02:57:35.5	92.710	0.410	-1.470	-0.010
2020/01/31 02:57:35.6	92.710	0.430	-1.490	0.010
2020/01/31 02:57:35.7	92.720	0.450	-1.500	0.030
2020/01/31 02:57:35.8	92.730	0.460	-1.490	0.050
2020/01/31 02:57:35.9	92.730	0.470	-1.470	0.080
2020/01/31 02:57:36.0	92.740	0.470	-1.430	0.110
2020/01/31 02:57:36.1	92.740	0.470	-1.370	0.140
2020/01/31 02:57:36.2	92.740	0.460	-1.300	0.180
2020/01/31 02:57:36.3	92.740	0.440	-1.220	0.220
2020/01/31 02:57:36.4	92.740	0.430	-1.130	0.260
2020/01/31 02:57:36.5	92.740	0.400	-1.030	0.310
2020/01/31 02:57:36.6	92.730	0.380	-0.920	0.350
2020/01/31 02:57:36.7	92.720	0.340	-0.810	0.400
2020/01/31 02:57:36.8	92.710	0.310	-0.680	0.460
2020/01/31 02:57:36.9	92.700	0.270	-0.560	0.510
2020/01/31 02:57:37.0	92.690	0.230	-0.430	0.570
2020/01/31 02:57:37.1	92.680	0.180	-0.290	0.620
2020/01/31 02:57:37.2	92.670	0.130	-0.160	0.680
2020/01/31 02:57:37.3	92.650	0.080	-0.030	0.740
2020/01/31 02:57:37.4	92.630	0.030	0.090	0.800
2020/01/31 02:57:37.5	92.610	-0.020	0.210	0.860
2020/01/31 02:57:37.6	92.600	-0.070	0.320	0.920
2020/01/31 02:57:37.7	92.580	-0.120	0.420	0.970
2020/01/31 02:57:37.8	92.560	-0.170	0.520	1.030
2020/01/31 02:57:37.9	92.540	-0.220	0.600	1.090
2020/01/31 02:57:38.0	92.520	-0.260	0.670	1.140
2020/01/31 02:57:38.1	92.500	-0.300	0.730	1.180
2020/01/31 02:57:38.2	92.480	-0.340	0.780	1.220
2020/01/31 02:57:38.3	92.470	-0.380	0.820	1.260
2020/01/31 02:57:38.4	92.460	-0.410	0.850	1.300
2020/01/31 02:57:38.5	92.440	-0.440	0.860	1.330
2020/01/31 02:57:38.6	92.440	-0.460	0.860	1.350
2020/01/31 02:57:38.7	92.430	-0.480	0.850	1.370
2020/01/31 02:57:38.8	92.420	-0.490	0.830	1.390
2020/01/31 02:57:38.9	92.420	-0.500	0.790	1.400
2020/01/31 02:57:39.0	92.420	-0.510	0.750	1.400
2020/01/31 02:57:39.1	92.420	-0.500	0.700	1.400
2020/01/31 02:57:39.2	92.420	-0.500	0.640	1.390
2020/01/31 02:57:39.3	92.430	-0.490	0.570	1.380
2020/01/31 02:57:39.4	92.430	-0.480	0.490	1.360
2020/01/31 02:57:39.5	92.440	-0.460	0.410	1.340
2020/01/31 02:57:39.6	92.450	-0.440	0.320	1.320
2020/01/31 02:57:39.7	92.460	-0.410	0.230	1.300
2020/01/31 02:57:39.8	92.470	-0.390	0.140	1.270
2020/01/31 02:57:39.9	92.480	-0.350	0.050	1.240
2020/01/31 02:57:40.0	92.490	-0.320	-0.040	1.210
2020/01/31 02:57:40.1	92.500	-0.290	-0.140	1.180
2020/01/31 02:57:40.2	92.520	-0.250	-0.230	1.140
2020/01/31 02:57:40.3	92.530	-0.210	-0.320	1.110
2020/01/31 02:57:40.4	92.540	-0.170	-0.410	1.080
2020/01/31 02:57:40.5	92.560	-0.130	-0.500	1.040
2020/01/31 02:57:40.6	92.570	-0.090	-0.580	1.010
2020/01/31 02:57:40.7	92.580	-0.040	-0.650	0.970
2020/01/31 02:57:40.8	92.590	-0.000	-0.720	0.940
2020/01/31 02:57:40.9	92.600	0.040	-0.780	0.900
2020/01/31 02:57:41.0	92.620	0.070	-0.840	0.870
2020/01/31 02:57:41.1	92.630	0.110	-0.880	0.840
2020/01/31 02:57:41.2	92.640	0.150	-0.920	0.820
2020/01/31 02:57:41.3	92.650	0.180	-0.960	0.790
2020/01/31 02:57:41.4	92.660	0.210	-0.980	0.770
2020/01/31 02:57:41.5	92.660	0.230	-0.990	0.750
2020/01/31 02:57:41.6	92.660	0.260	-1.000	0.740
2020/01/31 02:57:41.7	92.660	0.270	-0.990	0.730
2020/01/31 02:57:41.8	92.660	0.290	-0.980	0.730
2020/01/31 02:57:41.9	92.650	0.300	-0.950	0.720
2020/01/31 02:57:42.0	92.640	0.310	-0.920	0.720
2020/01/31 02:57:42.1	92.640	0.310	-0.880	0.720
2020/01/31 02:57:42.2	92.630	0.300	-0.830	0.720
2020/01/31 02:57:42.3	92.610	0.300	-0.780	0.730
2020/01/31 02:57:42.4	92.600	0.280	-0.710	0.740
2020/01/31 02:57:42.5	92.580	0.270	-0.650	0.750
2020/01/31 02:57:42.6	92.570	0.250	-0.570	0.760
2020/01/31 02:57:42.7	92.550	0.220	-0.500	0.770
2020/01/31 02:57:42.8	92.540	0.190	-0.420	0.780
2020/01/31 02:57:42.9	92.520	0.160	-0.330	0.790
2020/01/31 02:57:43.0	92.510	0.130	-0.250	0.790
2020/01/31 02:57:43.1	92.490	0.090	-0.170	0.800
2020/01/31 02:57:43.2	92.480	0.050	-0.090	0.800
2020/01/31 02:57:43.3	92.470	0.010	-0.010	0.810
2020/01/31 02:57:43.4	92.450	-0.030	0.070	0.810
2020/01/31 02:57:43.5	92.440	-0.070	0.140	0.800
2020/01/31 02:57:43.6	92.430	-0.110	0.210	0.800
2020/01/31 02:57:43.7	92.430	-0.150	0.270	0.790
2020/01/31 02:57:43.8	92.420	-0.190	0.330	0.770
2020/01/31 02:57:43.9	92.420	-0.230	0.380	0.760
2020/01/31 02:57:44.0	92.420	-0.260	0.420	0.740
2020/01/31 02:57:44.1	92.430	-0.300	0.460	0.710
2020/01/31 02:57:44.2	92.430	-0.330	0.480	0.680
2020/01/31 02:57:44.3	92.440	-0.350	0.500	0.650
2020/01/31 02:57:44.4	92.440	-0.380	0.510	0.620
2020/01/31 02:57:44.5	92.450	-0.400	0.510	0.590
2020/01/31 02:57:44.6	92.460	-0.410	0.500	0.550
2020/01/31 02:57:44.7	92.470	-0.420	0.480	0.520
2020/01/31 02:57:44.8	92.480	-0.420	0.460	0.480
2020/01/31 02:57:44.9	92.500	-0.420	0.430	0.440
2020/01/31 02:57:45.0	92.510	-0.420	0.390	0.410
2020/01/31 02:57:45.1	92.520	-0.410	0.350	0.360
2020/01/31 02:57:45.2	92.530	-0.400	0.300	0.330
2020/01/31 02:57:45.3	92.550	-0.380	0.250	0.300
2020/01/31 02:57:45.4	92.560	-0.360	0.190	0.270
2020/01/31 02:57:45.5	92.580	-0.330	0.130	0.240
2020/01/31 02:57:45.6	92.590	-0.300	0.070	0.210
2020/01/31 02:57:45.7	92.600	-0.270	0.000	0.190
2020/01/31 02:57:45.8	92.610	-0.230	-0.060	0.170
2020/01/31 02:57:45.9	92.630	-0.190	-0.130	0.160
2020/01/31 02:57:46.0	92.640	-0.140	-0.200	0.140
2020/01/31 02:57:46.1	92.640	-0.100	-0.270	0.130
2020/01/31 02:57:46.2	92.650	-0.050	-0.340	0.130
2020/01/31 02:57:46.3	92.660	-0.000	-0.410	0.120
2020/01/31 02:57:46.4	92.670	0.040	-0.470	0.130
2020/01/31 02:57:46.5	92.680	0.090	-0.540	0.130
2020/01/31 02:57:46.6	92.680	0.140	-0.600	0.130
2020/01/31 02:57:46.7	92.690	0.190	-0.660	0.140
2020/01/31 02:57:46.8	92.700	0.240	-0.710	0.150
2020/01/31 02:57:46.9	92.710	0.280	-0.760	0.160
2020/01/31 02:57:47.0	92.720	0.330	-0.800	0.180
2020/01/31 02:57:47.1	92.730	0.370	-0.840	0.190
2020/01/31 02:57:47.2	92.740	0.400	-0.880	0.210
2020/01/31 02:57:47.3	92.750	0.440	-0.900	0.220
2020/01/31 02:57:47.4	92.760	0.470	-0.920	0.230
2020/01/31 02:57:47.5	92.770	0.490	-0.940	0.250
2020/01/31 02:57:47.6	92.780	0.510	-0.950	0.260
2020/01/31 02:57:47.7	92.790	0.530	-0.950	0.280
2020/01/31 02:57:47.8	92.800	0.540	-0.940	0.290
2020/01/31 02:57:47.9	92.810	0.550	-0.930	0.310
2020/01/31 02:57:48.0	92.820	0.550	-0.910	0.320
2020/01/31 02:57:48.1	92.830	0.550	-0.880	0.320
2020/01/31 02:57:48.2	92.840	0.540	-0.850	0.340
2020/01/31 02:57:48.3	92.850	0.520	-0.810	0.350
2020/01/31 02:57:48.4	92.860	0.510	-0.760	0.360
2020/01/31 02:57:48.5	92.860	0.480	-0.710	0.370
2020/01/31 02:57:48.6	92.870	0.460	-0.650	0.390
2020/01/31 02:57:48.7	92.870	0.430	-0.590	0.400
2020/01/31 02:57:48.8	92.880	0.390	-0.530	0.420
2020/01/31 02:57:48.9	92.880	0.350	-0.450	0.430
2020/01/31 02:57:49.0	92.870	0.310	-0.380	0.450
2020/01/31 02:57:49.1	92.870	0.270	-0.300	0.470
2020/01/31 02:57:49.2	92.860	0.220	-0.220	0.480
2020/01/31 02:57:49.3	92.860	0.180	-0.140	0.500
2020/01/31 02:57:49.4	92.840	0.130	-0.050	0.530
2020/01/31 02:57:49.5	92.830	0.080	0.030	0.550
2020/01/31 02:57:49.6	92.810	0.030	0.110	0.570
2020/01/31 02:57:49.7	92.800	-0.020	0.200	0.600
2020/01/31 02:57:49.8	92.780	-0.060	0.280	0.630
2020/01/31 02:57:49.9	92.750	-0.110	0.360	0.660
2020/01/31 02:57:50.0	92.730	-0.160	0.430	0.690
2020/01/31 02:57:50.1	92.700	-0.200	0.500	0.710
2020/01/31 02:57:50.2	92.670	-0.240	0.570	0.740
2020/01/31 02:57:50.3	92.650	-0.280	0.630	0.770
2020/01/31 02:57:50.4	92.620	-0.320	0.680	0.800
2020/01/31 02:57:50.5	92.590	-0.350	0.730	0.830
2020/01/31 02:57:50.6	92.560	-0.380	0.770	0.860
2020/01/31 02:57:50.7	92.530	-0.410	0.810	0.880
2020/01/31 02:57:50.8	92.510	-0.430	0.830	0.900
2020/01/31 02:57:50.9	92.480	-0.450	0.840	0.920
2020/01/31 02:57:51.0	92.460	-0.470	0.850	0.940
2020/01/31 02:57:51.1	92.440	-0.480	0.840	0.940
2020/01/31 02:57:51.2	92.420	-0.480	0.820	0.950
2020/01/31 02:57:51.3	92.410	-0.480	0.790	0.950
2020/01/31 02:57:51.4	92.400	-0.480	0.750	0.940
2020/01/31 02:57:51.5	92.390	-0.470	0.700	0.930
2020/01/31 02:57:51.6	92.380	-0.450	0.630	0.900
2020/01/31 02:57:51.7	92.380	-0.430	0.560	0.880
2020/01/31 02:57:51.8	92.390	-0.410	0.470	0.850
2020/01/31 02:57:51.9	92.400	-0.380	0.370	0.810
2020/01/31 02:57:52.0	92.410	-0.340	0.270	0.770
2020/01/31 02:57:52.1	92.420	-0.300	0.150	0.720
2020/01/31 02:57:52.2	92.440	-0.260	0.030	0.680
2020/01/31 02:57:52.3	92.460	-0.210	-0.100	0.630
2020/01/31 02:57:52.4	92.480	-0.160	-0.230	0.580
2020/01/31 02:57:52.5	92.510	-0.110	-0.360	0.540
2020/01/31 02:57:52.6	92.540	-0.060	-0.490	0.490
2020/01/31 02:57:52.7	92.560	-0.000	-0.620	0.450
2020/01/31 02:57:52.8	92.590	0.050	-0.750	0.410
2020/01/31 02:57:52.9	92.610	0.110	-0.870	0.370
2020/01/31 02:57:53.0	92.640	0.160	-0.990	0.330
2020/01/31 02:57:53.1	92.670	0.220	-1.100	0.300
2020/01/31 02:57:53.2	92.690	0.270	-1.200	0.270
2020/01/31 02:57:53.3	92.710	0.320	-1.290	0.240
2020/01/31 02:57:53.4	92.720	0.360	-1.360	0.220
2020/01/31 02:57:53.5	92.730	0.400	-1.430	0.210
2020/01/31 02:57:53.6	92.750	0.440	-1.480	0.200
2020/01/31 02:57:53.7	92.750	0.470	-1.510	0.190
2020/01/31 02:57:53.8	92.760	0.490	-1.530	0.190
2020/01/31 02:57:53.9	92.760	0.510	-1.540	0.190
2020/01/31 02:57:54.0	92.760	0.530	-1.530	0.200
2020/01/31 02:57:54.1	92.760	0.540	-1.510	0.210
2020/01/31 02:57:54.2	92.760	0.540	-1.470	0.220
2020/01/31 02:57:54.3	92.750	0.540	-1.420	0.240
2020/01/31 02:57:54.4	92.740	0.530	-1.360	0.260
2020/01/31 02:57:54.5	92.730	0.520	-1.290	0.290
2020/01/31 02:57:54.6	92.710	0.510	-1.210	0.310
2020/01/31 02:57:54.7	92.700	0.480	-1.120	0.340
2020/01/31 02:57:54.8	92.680	0.460	-1.020	0.370
2020/01/31 02:57:54.9	92.660	0.430	-0.910	0.410
2020/01/31 02:57:55.0	92.640	0.400	-0.800	0.440
2020/01/31 02:57:55.1	92.630	0.360	-0.680	0.480
2020/01/31 02:57:55.2	92.610	0.320	-0.560	0.510
2020/01/31 02:57:55.3	92.580	0.280	-0.440	0.550
2020/01/31 02:57:55.4	92.560	0.240	-0.320	0.580
2020/01/31 02:57:55.5	92.540	0.200	-0.210	0.620
2020/01/31 02:57:55.6	92.520	0.150	-0.100	0.650
2020/01/31 02:57:55.7	92.510	0.110	0.010	0.680
2020/01/31 02:57:55.8	92.490	0.070	0.110	0.710
2020/01/31 02:57:55.9	92.470	0.030	0.200	0.740
2020/01/31 02:57:56.0	92.450	-0.000	0.290	0.760
2020/01/31 02:57:56.1	92.440	-0.040	0.370	0.780
2020/01/31 02:57:56.2	92.420	-0.070	0.430	0.800
2020/01/31 02:57:56.3	92.410	-0.090	0.490	0.810
2020/01/31 02:57:56.4	92.400	-0.120	0.540	0.830
2020/01/31 02:57:56.5	92.390	-0.140	0.570	0.840
2020/01/31 02:57:56.6	92.380	-0.160	0.600	0.850
2020/01/31 02:57:56.7	92.380	-0.170	0.620	0.850
2020/01/31 02:57:56.8	92.370	-0.180	0.630	0.860
2020/01/31 02:57:56.9	92.370	-0.190	0.630	0.850
2020/01/31 02:57:57.0	92.370	-0.200	0.620	0.850
2020/01/31 02:57:57.1	92.370	-0.200	0.610	0.840
2020/01/31 02:57:57.2	92.370	-0.200	0.590	0.830
2020/01/31 02:57:57.3	92.380	-0.200	0.560	0.810
2020/01/31 02:57:57.4	92.390	-0.200	0.530	0.790
2020/01/31 02:57:57.5	92.400	-0.200	0.500	0.770
2020/01/31 02:57:57.6	92.410	-0.200	0.460	0.740
2020/01/31 02:57:57.7	92.430	-0.190	0.420	0.710
2020/01/31 02:57:57.8	92.440	-0.190	0.380	0.670
2020/01/31 02:57:57.9	92.460	-0.190	0.340	0.630
2020/01/31 02:57:58.0	92.480	-0.180	0.300	0.590
2020/01/31 02:57:58.1	92.500	-0.180	0.260	0.540
2020/01/31 02:57:58.2	92.520	-0.180	0.210	0.500
2020/01/31 02:57:58.3	92.550	-0.180	0.170	0.450
2020/01/31 02:57:58.4	92.570	-0.180	0.130	0.400
2020/01/31 02:57:58.5	92.600	-0.180	0.090	0.350
2020/01/31 02:57:58.6	92.630	-0.180	0.060	0.310
2020/01/31 02:57:58.7	92.650	-0.180	0.020	0.270
2020/01/31 02:57:58.8	92.680	-0.190	-0.010	0.230
2020/01/31 02:57:58.9	92.710	-0.190	-0.040	0.190
2020/01/31 02:57:59.0	92.730	-0.200	-0.070	0.150
2020/01/31 02:57:59.1	92.760	-0.210	-0.090	0.120
2020/01/31 02:57:59.2	92.790	-0.210	-0.110	0.090
2020/01/31 02:57:59.3	92.810	-0.220	-0.130	0.070
2020/01/31 02:57:59.4	92.830	-0.230	-0.150	0.060
2020/01/31 02:57:59.5	92.860	-0.230	-0.160	0.050
2020/01/31 02:57:59.6	92.880	-0.240	-0.170	0.050
2020/01/31 02:57:59.7	92.900	-0.250	-0.180	0.050
2020/01/31 02:57:59.8	92.920	-0.260	-0.190	0.060
2020/01/31 02:57:59.9	92.930	-0.260	-0.200	0.070
2020/01/31 02:58:00.0	92.940	-0.270	-0.200	0.090
2020/01/31 02:58:00.1	92.950	-0.280	-0.200	0.110
2020/01/31 02:58:00.2	92.960	-0.280	-0.210	0.140
2020/01/31 02:58:00.3	92.960	-0.280	-0.210	0.170
2020/01/31 02:58:00.4	92.960	-0.290	-0.210	0.210
2020/01/31 02:58:00.5	92.970	-0.290	-0.210	0.250
2020/01/31 02:58:00.6	92.960	-0.290	-0.210	0.290
2020/01/31 02:58:00.7	92.960	-0.290	-0.210	0.330
2020/01/31 02:58:00.8	92.950	-0.290	-0.210	0.380
2020/01/31 02:58:00.9	92.950	-0.290	-0.210	0.430
2020/01/31 02:58:01.0	92.940	-0.280	-0.220	0.470
2020/01/31 02:58:01.1	92.930	-0.280	-0.220	0.520
2020/01/31 02:58:01.2	92.920	-0.270	-0.220	0.560
2020/01/31 02:58:01.3	92.900	-0.260	-0.230	0.610
2020/01/31 02:58:01.4	92.890	-0.260	-0.240	0.650
2020/01/31 02:58:01.5	92.870	-0.250	-0.250	0.690
2020/01/31 02:58:01.6	92.860	-0.240	-0.270	0.730
2020/01/31 02:58:01.7	92.840	-0.220	-0.280	0.760
2020/01/31 02:58:01.8	92.830	-0.210	-0.300	0.790
2020/01/31 02:58:01.9	92.810	-0.200	-0.320	0.820
2020/01/31 02:58:02.0	92.790	-0.190	-0.340	0.850
2020/01/31 02:58:02.1	92.770	-0.170	-0.360	0.860
2020/01/31 02:58:02.2	92.760	-0.160	-0.380	0.880
2020/01/31 02:58:02.3	92.750	-0.140	-0.400	0.890
2020/01/31 02:58:02.4	92.740	-0.130	-0.430	0.890
2020/01/31 02:58:02.5	92.730	-0.110	-0.450	0.900
2020/01/31 02:58:02.6	92.730	-0.100	-0.480	0.900
2020/01/31 02:58:02.7	92.720	-0.080	-0.500	0.890
2020/01/31 02:58:02.8	92.720	-0.060	-0.520	0.890
2020/01/31 02:58:02.9	92.720	-0.050	-0.540	0.880
2020/01/31 02:58:03.0	92.720	-0.030	-0.560	0.870
2020/01/31 02:58:03.1	92.720	-0.010	-0.580	0.860
2020/01/31 02:58:03.2	92.730	0.000	-0.590	0.850
2020/01/31 02:58:03.3	92.730	0.020	-0.610	0.840
2020/01/31 02:58:03.4	92.740	0.030	-0.620	0.840
2020/01/31 02:58:03.5	92.750	0.050	-0.620	0.830
2020/01/31 02:58:03.6	92.760	0.060	-0.620	0.820
2020/01/31 02:58:03.7	92.770	0.070	-0.620	0.810
2020/01/31 02:58:03.8	92.780	0.090	-0.620	0.800
2020/01/31 02:58:03.9	92.790	0.100	-0.610	0.790
2020/01/31 02:58:04.0	92.800	0.110	-0.600	0.780
2020/01/31 02:58:04.1	92.810	0.120	-0.580	0.770
2020/01/31 02:58:04.2	92.820	0.130	-0.560	0.760
2020/01/31 02:58:04.3	92.830	0.140	-0.540	0.750
2020/01/31 02:58:04.4	92.840	0.150	-0.510	0.730
2020/01/31 02:58:04.5	92.850	0.160	-0.480	0.720
2020/01/31 02:58:04.6	92.860	0.170	-0.450	0.710
2020/01/31 02:58:04.7	92.880	0.170	-0.420	0.690
2020/01/31 02:58:04.8	92.890	0.180	-0.390	0.670
2020/01/31 02:58:04.9	92.900	0.180	-0.350	0.650
2020/01/31 02:58:05.0	92.910	0.190	-0.320	0.630
2020/01/31 02:58:05.1	92.920	0.190	-0.280	0.600
2020/01/31 02:58:05.2	92.930	0.200	-0.250	0.570
2020/01/31 02:58:05.3	92.940	0.200	-0.210	0.540
2020/01/31 02:58:05.4	92.960	0.210	-0.180	0.510
2020/01/31 02:58:05.5	92.970	0.210	-0.150	0.480
2020/01/31 02:58:05.6	92.980	0.210	-0.120	0.450
2020/01/31 02:58:05.7	93.000	0.220	-0.100	0.410
2020/01/31 02:58:05.8	93.010	0.220	-0.080	0.380
2020/01/31 02:58:05.9	93.020	0.230	-0.060	0.350
2020/01/31 02:58:06.0	93.040	0.230	-0.050	0.310
2020/01/31 02:58:06.1	93.050	0.240	-0.030	0.290
2020/01/31 02:58:06.2	93.060	0.240	-0.030	0.260
2020/01/31 02:58:06.3	93.070	0.250	-0.020	0.230
2020/01/31 02:58:06.4	93.090	0.260	-0.030	0.210
2020/01/31 02:58:06.5	93.100	0.270	-0.030	0.190
2020/01/31 02:58:06.6	93.110	0.270	-0.040	0.180
2020/01/31 02:58:06.7	93.120	0.280	-0.060	0.170
2020/01/31 02:58:06.8	93.130	0.290	-0.070	0.160
2020/01/31 02:58:06.9	93.130	0.300	-0.090	0.160
2020/01/31 02:58:07.0	93.140	0.310	-0.110	0.170
2020/01/31 02:58:07.1	93.140	0.320	-0.140	0.170
2020/01/31 02:58:07.2	93.140	0.330	-0.160	0.180
2020/01/31 02:58:07.3	93.140	0.340	-0.180	0.200
2020/01/31 02:58:07.4	93.140	0.350	-0.200	0.210
2020/01/31 02:58:07.5	93.140	0.360	-0.220	0.230
2020/01/31 02:58:07.6	93.130	0.370	-0.240	0.240
2020/01/31 02:58:07.7	93.130	0.370	-0.250	0.260
2020/01/31 02:58:07.8	93.130	0.370	-0.270	0.270
2020/01/31 02:58:07.9	93.120	0.380	-0.270	0.290
2020/01/31 02:58:08.0	93.120	0.380	-0.280	0.300
2020/01/31 02:58:08.1	93.110	0.370	-0.280	0.310
2020/01/31 02:58:08.2	93.110	0.370	-0.280	0.320
2020/01/31 02:58:08.3	93.110	0.360	-0.270	0.330
2020/01/31 02:58:08.4	93.110	0.350	-0.260	0.330
2020/01/31 02:58:08.5	93.110	0.340	-0.250	0.330
2020/01/31 02:58:08.6	93.110	0.330	-0.230	0.330
2020/01/31 02:58:08.7	93.110	0.320	-0.210	0.330
2020/01/31 02:58:08.8	93.110	0.300	-0.190	0.330
2020/01/31 02:58:08.9	93.120	0.280	-0.160	0.320
2020/01/31 02:58:09.0	93.120	0.270	-0.140	0.320
2020/01/31 02:58:09.1	93.130	0.250	-0.110	0.300
2020/01/31 02:58:09.2	93.140	0.220	-0.080	0.290
2020/01/31 02:58:09.3	93.140	0.200	-0.050	0.280
2020/01/31 02:58:09.4	93.150	0.180	-0.020	0.280
2020/01/31 02:58:09.5	93.160	0.150	0.010	0.270
2020/01/31 02:58:09.6	93.170	0.130	0.030	0.270
2020/01/31 02:58:09.7	93.180	0.100	0.060	0.260
2020/01/31 02:58:09.8	93.200	0.080	0.080	0.260
2020/01/31 02:58:09.9	93.210	0.060	0.090	0.260
2020/01/31 02:58:10.0	93.220	0.040	0.100	0.260
2020/01/31 02:58:10.1	93.220	0.020	0.110	0.260
2020/01/31 02:58:10.2	93.240	-0.000	0.110	0.260
2020/01/31 02:58:10.3	93.250	-0.020	0.100	0.260
2020/01/31 02:58:10.4	93.270	-0.030	0.090	0.270
2020/01/31 02:58:10.5	93.280	-0.050	0.070	0.280
2020/01/31 02:58:10.6	93.290	-0.060	0.040	0.290
2020/01/31 02:58:10.7	93.310	-0.060	0.010	0.290
2020/01/31 02:58:10.8	93.320	-0.070	-0.030	0.310
2020/01/31 02:58:10.9	93.340	-0.070	-0.070	0.320
2020/01/31 02:58:11.0	93.350	-0.080	-0.120	0.330
2020/01/31 02:58:11.1	93.370	-0.080	-0.170	0.340
2020/01/31 02:58:11.2	93.390	-0.070	-0.230	0.360
2020/01/31 02:58:11.3	93.400	-0.070	-0.280	0.380
2020/01/31 02:58:11.4	93.420	-0.070	-0.340	0.400
2020/01/31 02:58:11.5	93.430	-0.060	-0.390	0.420
2020/01/31 02:58:11.6	93.440	-0.060	-0.450	0.440
2020/01/31 02:58:11.7	93.460	-0.050	-0.500	0.460
2020/01/31 02:58:11.8	93.470	-0.050	-0.550	0.480
2020/01/31 02:58:11.9	93.480	-0.050	-0.590	0.500
2020/01/31 02:58:12.0	93.490	-0.040	-0.630	0.530
2020/01/31 02:58:12.1	93.510	-0.040	-0.660	0.550
2020/01/31 02:58:12.2	93.520	-0.050	-0.680	0.580
2020/01/31 02:58:12.3	93.520	-0.050	-0.690	0.610
2020/01/31 02:58:12.4	93.530	-0.060	-0.700	0.630
2020/01/31 02:58:12.5	93.540	-0.070	-0.700	0.660
2020/01/31 02:58:12.6	93.550	-0.080	-0.690	0.690
2020/01/31 02:58:12.7	93.550	-0.090	-0.670	0.720
2020/01/31 02:58:12.8	93.560	-0.110	-0.640	0.750
2020/01/31 02:58:12.9	93.570	-0.140	-0.600	0.780
2020/01/31 02:58:13.0	93.580	-0.160	-0.560	0.820
2020/01/31 02:58:13.1	93.580	-0.190	-0.510	0.840
2020/01/31 02:58:13.2	93.590	-0.220	-0.450	0.880
2020/01/31 02:58:13.3	93.590	-0.250	-0.390	0.910
2020/01/31 02:58:13.4	93.600	-0.290	-0.320	0.940
2020/01/31 02:58:13.5	93.610	-0.330	-0.250	0.970
2020/01/31 02:58:13.6	93.610	-0.370	-0.170	1.000
2020/01/31 02:58:13.7	93.620	-0.410	-0.090	1.020
2020/01/31 02:58:13.8	93.630	-0.450	-0.010	1.050
2020/01/31 02:58:13.9	93.630	-0.490	0.070	1.070
2020/01/31 02:58:14.0	93.640	-0.530	0.150	1.100
2020/01/31 02:58:14.1	93.650	-0.570	0.240	1.120
2020/01/31 02:58:14.2	93.660	-0.610	0.310	1.140
2020/01/31 02:58:14.3	93.660	-0.650	0.390	1.150
2020/01/31 02:58:14.4	93.670	-0.690	0.450	1.160
2020/01/31 02:58:14.5	93.680	-0.720	0.520	1.170
2020/01/31 02:58:14.6	93.680	-0.750	0.570	1.180
2020/01/31 02:58:14.7	93.690	-0.770	0.620	1.180
2020/01/31 02:58:14.8	93.700	-0.790	0.650	1.170
2020/01/31 02:58:14.9	93.700	-0.810	0.680	1.170
2020/01/31 02:58:15.0	93.710	-0.820	0.700	1.150
2020/01/31 02:58:15.1	93.720	-0.820	0.700	1.130
2020/01/31 02:58:15.2	93.720	-0.820	0.690	1.110
2020/01/31 02:58:15.3	93.720	-0.800	0.670	1.080
2020/01/31 02:58:15.4	93.720	-0.790	0.640	1.050
2020/01/31 02:58:15.5	93.730	-0.760	0.600	1.020
2020/01/31 02:58:15.6	93.730	-0.730	0.540	0.980
2020/01/31 02:58:15.7	93.730	-0.690	0.480	0.940
2020/01/31 02:58:15.8	93.730	-0.650	0.400	0.890
2020/01/31 02:58:15.9	93.740	-0.600	0.310	0.850
2020/01/31 02:58:16.0	93.740	-0.540	0.210	0.800
2020/01/31 02:58:16.1	93.740	-0.480	0.110	0.750
2020/01/31 02:58:16.2	93.740	-0.410	-0.000	0.700
2020/01/31 02:58:16.3	93.740	-0.340	-0.120	0.650
2020/01/31 02:58:16.4	93.740	-0.260	-0.230	0.600
2020/01/31 02:58:16.5	93.740	-0.180	-0.350	0.560
2020/01/31 02:58:16.6	93.740	-0.100	-0.470	0.510
2020/01/31 02:58:16.7	93.740	-0.020	-0.590	0.470
2020/01/31 02:58:16.8	93.740	0.060	-0.700	0.430
2020/01/31 02:58:16.9	93.740	0.130	-0.810	0.400
2020/01/31 02:58:17.0	93.740	0.210	-0.920	0.360
2020/01/31 02:58:17.1	93.730	0.290	-1.010	0.330
2020/01/31 02:58:17.2	93.740	0.360	-1.100	0.290
2020/01/31 02:58:17.3	93.740	0.430	-1.170	0.260
2020/01/31 02:58:17.4	93.740	0.490	-1.240	0.230
2020/01/31 02:58:17.5	93.740	0.550	-1.300	0.200
2020/01/31 02:58:17.6	93.740	0.600	-1.340	0.170
2020/01/31 02:58:17.7	93.750	0.650	-1.370	0.140
2020/01/31 02:58:17.8	93.750	0.690	-1.390	0.110
2020/01/31 02:58:17.9	93.750	0.720	-1.390	0.090
2020/01/31 02:58:18.0	93.750	0.750	-1.390	0.060
2020/01/31 02:58:18.1	93.760	0.770	-1.370	0.030
2020/01/31 02:58:18.2	93.760	0.780	-1.330	-0.000
2020/01/31 02:58:18.3	93.770	0.780	-1.290	-0.030
2020/01/31 02:58:18.4	93.770	0.780	-1.230	-0.050
2020/01/31 02:58:18.5	93.770	0.770	-1.160	-0.080
2020/01/31 02:58:18.6	93.780	0.760	-1.080	-0.100
2020/01/31 02:58:18.7	93.780	0.740	-0.990	-0.120
2020/01/31 02:58:18.8	93.790	0.720	-0.890	-0.140
2020/01/31 02:58:18.9	93.790	0.680	-0.790	-0.150
2020/01/31 02:58:19.0	93.790	0.650	-0.680	-0.170
2020/01/31 02:58:19.1	93.790	0.610	-0.560	-0.180
2020/01/31 02:58:19.2	93.800	0.570	-0.450	-0.190
2020/01/31 02:58:19.3	93.800	0.520	-0.330	-0.190
2020/01/31 02:58:19.4	93.800	0.470	-0.210	-0.190
2020/01/31 02:58:19.5	93.800	0.420	-0.090	-0.180
2020/01/31 02:58:19.6	93.810	0.370	0.030	-0.170
2020/01/31 02:58:19.7	93.810	0.320	0.140	-0.160
2020/01/31 02:58:19.8	93.810	0.270	0.250	-0.140
2020/01/31 02:58:19.9	93.810	0.220	0.350	-0.120
2020/01/31 02:58:20.0	93.810	0.170	0.450	-0.090
2020/01/31 02:58:20.1	93.810	0.120	0.550	-0.060
2020/01/31 02:58:20.2	93.810	0.070	0.630	-0.030
2020/01/31 02:58:20.3	93.800	0.020	0.700	0.010
2020/01/31 02:58:20.4	93.800	-0.020	0.760	0.050
2020/01/31 02:58:20.5	93.800	-0.060	0.800	0.090
2020/01/31 02:58:20.6	93.790	-0.100	0.840	0.130
2020/01/31 02:58:20.7	93.790	-0.130	0.870	0.170
2020/01/31 02:58:20.8	93.780	-0.160	0.880	0.220
2020/01/31 02:58:20.9	93.780	-0.190	0.880	0.260
2020/01/31 02:58:21.0	93.770	-0.210	0.870	0.300
2020/01/31 02:58:21.1	93.770	-0.220	0.850	0.340
2020/01/31 02:58:21.2	93.770	-0.240	0.810	0.380
2020/01/31 02:58:21.3	93.770	-0.240	0.760	0.420
2020/01/31 02:58:21.4	93.770	-0.250	0.710	0.450
2020/01/31 02:58:21.5	93.770	-0.250	0.640	0.490
2020/01/31 02:58:21.6	93.770	-0.240	0.570	0.520
2020/01/31 02:58:21.7	93.780	-0.230	0.480	0.540
2020/01/31 02:58:21.8	93.780	-0.220	0.400	0.570
2020/01/31 02:58:21.9	93.780	-0.210	0.300	0.590
2020/01/31 02:58:22.0	93.790	-0.190	0.200	0.620
2020/01/31 02:58:22.1	93.790	-0.170	0.110	0.640
2020/01/31 02:58:22.2	93.790	-0.150	0.000	0.660
2020/01/31 02:58:22.3	93.790	-0.130	-0.100	0.680
2020/01/31 02:58:22.4	93.790	-0.110	-0.200	0.700
2020/01/31 02:58:22.5	93.790	-0.080	-0.300	0.720
2020/01/31 02:58:22.6	93.780	-0.060	-0.390	0.740
2020/01/31 02:58:22.7	93.780	-0.040	-0.480	0.770
2020/01/31 02:58:22.8	93.770	-0.020	-0.560	0.790
2020/01/31 02:58:22.9	93.760	0.000	-0.630	0.820
2020/01/31 02:58:23.0	93.750	0.020	-0.700	0.840
2020/01/31 02:58:23.1	93.730	0.040	-0.760	0.870
2020/01/31 02:58:23.2	93.710	0.050	-0.810	0.890
2020/01/31 02:58:23.3	93.700	0.060	-0.840	0.920
2020/01/31 02:58:23.4	93.670	0.070	-0.870	0.950
2020/01/31 02:58:23.5	93.650	0.080	-0.880	0.980
2020/01/31 02:58:23.6	93.630	0.080	-0.890	1.010
2020/01/31 02:58:23.7	93.600	0.080	-0.880	1.040
2020/01/31 02:58:23.8	93.580	0.080	-0.860	1.070
2020/01/31 02:58:23.9	93.550	0.080	-0.830	1.090
2020/01/31 02:58:24.0	93.520	0.070	-0.800	1.120
2020/01/31 02:58:24.1	93.500	0.060	-0.740	1.140
2020/01/31 02:58:24.2	93.470	0.050	-0.690	1.160
2020/01/31 02:58:24.3	93.450	0.030	-0.630	1.180
2020/01/31 02:58:24.4	93.420	0.010	-0.570	1.190
2020/01/31 02:58:24.5	93.400	-0.010	-0.500	1.200
2020/01/31 02:58:24.6	93.380	-0.030	-0.430	1.210
2020/01/31 02:58:24.7	93.360	-0.050	-0.360	1.210
2020/01/31 02:58:24.8	93.350	-0.070	-0.290	1.200
2020/01/31 02:58:24.9	93.330	-0.100	-0.220	1.190
2020/01/31 02:58:25.0	93.320	-0.120	-0.150	1.180
2020/01/31 02:58:25.1	93.310	-0.140	-0.090	1.160
2020/01/31 02:58:25.2	93.300	-0.160	-0.030	1.140
2020/01/31 02:58:25.3	93.300	-0.180	0.020	1.110
2020/01/31 02:58:25.4	93.300	-0.200	0.070	1.090
2020/01/31 02:58:25.5	93.290	-0.210	0.110	1.060
2020/01/31 02:58:25.6	93.300	-0.230	0.140	1.020
2020/01/31 02:58:25.7	93.300	-0.240	0.160	0.990
2020/01/31 02:58:25.8	93.300	-0.240	0.180	0.950
2020/01/31 02:58:25.9	93.310	-0.250	0.180	0.920
2020/01/31 02:58:26.0	93.320	-0.240	0.180	0.880
2020/01/31 02:58:26.1	93.320	-0.240	0.170	0.840
2020/01/31 02:58:26.2	93.330	-0.230	0.140	0.790
2020/01/31 02:58:26.3	93.350	-0.220	0.110	0.750
2020/01/31 02:58:26.4	93.360	-0.200	0.070	0.710
2020/01/31 02:58:26.5	93.380	-0.180	0.030	0.670
2020/01/31 02:58:26.6	93.390	-0.160	-0.020	0.630
2020/01/31 02:58:26.7	93.410	-0.130	-0.080	0.580
2020/01/31 02:58:26.8	93.430	-0.100	-0.140	0.540
2020/01/31 02:58:26.9	93.450	-0.070	-0.210	0.500
2020/01/31 02:58:27.0	93.470	-0.040	-0.270	0.460
2020/01/31 02:58:27.1	93.480	-0.010	-0.350	0.410
2020/01/31 02:58:27.2	93.510	0.030	-0.410	0.370
2020/01/31 02:58:27.3	93.530	0.070	-0.480	0.340
2020/01/31 02:58:27.4	93.550	0.100	-0.530	0.300
2020/01/31 02:58:27.5	93.570	0.140	-0.590	0.270
2020/01/31 02:58:27.6	93.590	0.170	-0.640	0.240
2020/01/31 02:58:27.7	93.620	0.200	-0.680	0.210
2020/01/31 02:58:27.8	93.640	0.230	-0.720	0.190
2020/01/31 02:58:27.9	93.660	0.260	-0.740	0.170
2020/01/31 02:58:28.0	93.680	0.280	-0.760	0.150
2020/01/31 02:58:28.1	93.700	0.300	-0.770	0.150
2020/01/31 02:58:28.2	93.720	0.320	-0.770	0.140
2020/01/31 02:58:28.3	93.740	0.330	-0.760	0.140
2020/01/31 02:58:28.4	93.750	0.340	-0.740	0.140
2020/01/31 02:58:28.5	93.770	0.340	-0.710	0.150
2020/01/31 02:58:28.6	93.780	0.340	-0.670	0.170
2020/01/31 02:58:28.7	93.790	0.340	-0.620	0.180
2020/01/31 02:58:28.8	93.800	0.330	-0.560	0.210
2020/01/31 02:58:28.9	93.810	0.320	-0.500	0.230
2020/01/31 02:58:29.0	93.820	0.300	-0.430	0.260
2020/01/31 02:58:29.1	93.830	0.270	-0.350	0.290
2020/01/31 02:58:29.2	93.840	0.250	-0.270	0.330
2020/01/31 02:58:29.3	93.840	0.220	-0.190	0.360
2020/01/31 02:58:29.4	93.840	0.190	-0.110	0.400
2020/01/31 02:58:29.5	93.830	0.150	-0.020	0.440
2020/01/31 02:58:29.6	93.830	0.110	0.060	0.480
2020/01/31 02:58:29.7	93.820	0.080	0.140	0.520
2020/01/31 02:58:29.8	93.810	0.040	0.220	0.550
2020/01/31 02:58:29.9	93.800	-0.000	0.300	0.590
2020/01/31 02:58:30.0	93.780	-0.050	0.370	0.630
2020/01/31 02:58:30.1	93.760	-0.080	0.430	0.660
2020/01/31 02:58:30.2	93.740	-0.120	0.480	0.690
2020/01/31 02:58:30.3	93.720	-0.160	0.530	0.730
2020/01/31 02:58:30.4	93.700	-0.190	0.560	0.760
2020/01/31 02:58:30.5	93.680	-0.230	0.590	0.780
2020/01/31 02:58:30.6	93.650	-0.250	0.600	0.810
2020/01/31 02:58:30.7	93.630	-0.280	0.610	0.830
2020/01/31 02:58:30.8	93.600	-0.300	0.600	0.860
2020/01/31 02:58:30.9	93.570	-0.310	0.580	0.880
2020/01/31 02:58:31.0	93.540	-0.320	0.550	0.890
2020/01/31 02:58:31.1	93.510	-0.330	0.510	0.900
2020/01/31 02:58:31.2	93.470	-0.330	0.460	0.920
2020/01/31 02:58:31.3	93.440	-0.320	0.400	0.930
2020/01/31 02:58:31.4	93.410	-0.310	0.330	0.930
2020/01/31 02:58:31.5	93.380	-0.290	0.250	0.940
2020/01/31 02:58:31.6	93.350	-0.270	0.160	0.940
2020/01/31 02:58:31.7	93.320	-0.250	0.070	0.930
2020/01/31 02:58:31.8	93.300	-0.220	-0.030	0.930
2020/01/31 02:58:31.9	93.270	-0.190	-0.130	0.920
2020/01/31 02:58:32.0	93.250	-0.150	-0.240	0.910
2020/01/31 02:58:32.1	93.240	-0.120	-0.340	0.890
2020/01/31 02:58:32.2	93.220	-0.080	-0.440	0.880
2020/01/31 02:58:32.3	93.210	-0.040	-0.540	0.870
2020/01/31 02:58:32.4	93.200	0.000	-0.630	0.850
2020/01/31 02:58:32.5	93.190	0.040	-0.720	0.840
2020/01/31 02:58:32.6	93.180	0.080	-0.800	0.820
2020/01/31 02:58:32.7	93.180	0.120	-0.870	0.810
2020/01/31 02:58:32.8	93.180	0.150	-0.930	0.800
2020/01/31 02:58:32.9	93.170	0.190	-0.980	0.790
2020/01/31 02:58:33.0	93.170	0.210	-1.020	0.780
2020/01/31 02:58:33.1	93.180	0.240	-1.050	0.760
2020/01/31 02:58:33.2	93.180	0.260	-1.060	0.750
2020/01/31 02:58:33.3	93.190	0.270	-1.060	0.740
2020/01/31 02:58:33.4	93.190	0.280	-1.050	0.730
2020/01/31 02:58:33.5	93.200	0.280	-1.020	0.720
2020/01/31 02:58:33.6	93.210	0.280	-0.990	0.710
2020/01/31 02:58:33.7	93.210	0.270	-0.940	0.700
2020/01/31 02:58:33.8	93.220	0.260	-0.880	0.690
2020/01/31 02:58:33.9	93.230	0.240	-0.810	0.680
2020/01/31 02:58:34.0	93.240	0.220	-0.730	0.670
2020/01/31 02:58:34.1	93.260	0.190	-0.630	0.650
2020/01/31 02:58:34.2	93.270	0.150	-0.540	0.640
2020/01/31 02:58:34.3	93.280	0.120	-0.440	0.630
2020/01/31 02:58:34.4	93.300	0.070	-0.330	0.620
2020/01/31 02:58:34.5	93.310	0.030	-0.220	0.610
2020/01/31 02:58:34.6	93.320	-0.020	-0.110	0.600
2020/01/31 02:58:34.7	93.330	-0.070	-0.010	0.600
2020/01/31 02:58:34.8	93.340	-0.120	0.100	0.590
2020/01/31 02:58:34.9	93.350	-0.170	0.200	0.580
2020/01/31 02:58:35.0	93.360	-0.220	0.300	0.580
2020/01/31 02:58:35.1	93.370	-0.280	0.400	0.570
2020/01/31 02:58:35.2	93.380	-0.330	0.480	0.570
2020/01/31 02:58:35.3	93.390	-0.370	0.560	0.570
2020/01/31 02:58:35.4	93.390	-0.420	0.620	0.570
2020/01/31 02:58:35.5	93.400	-0.460	0.670	0.570
2020/01/31 02:58:35.6	93.410	-0.500	0.720	0.570
2020/01/31 02:58:35.7	93.410	-0.530	0.740	0.580
2020/01/31 02:58:35.8	93.420	-0.560	0.760	0.580
2020/01/31 02:58:35.9	93.430	-0.580	0.760	0.590
2020/01/31 02:58:36.0	93.430	-0.590	0.750	0.600
2020/01/31 02:58:36.1	93.440	-0.600	0.720	0.600
2020/01/31 02:58:36.2	93.450	-0.610	0.680	0.610
2020/01/31 02:58:36.3	93.460	-0.600	0.630	0.610
2020/01/31 02:58:36.4	93.460	-0.590	0.570	0.620
2020/01/31 02:58:36.5	93.470	-0.570	0.490	0.620
2020/01/31 02:58:36.6	93.490	-0.550	0.410	0.620
2020/01/31 02:58:36.7	93.500	-0.520	0.310	0.630
2020/01/31 02:58:36.8	93.510	-0.480	0.210	0.630
2020/01/31 02:58:36.9	93.520	-0.440	0.090	0.630
2020/01/31 02:58:37.0	93.540	-0.400	-0.020	0.630
2020/01/31 02:58:37.1	93.550	-0.340	-0.140	0.620
2020/01/31 02:58:37.2	93.570	-0.290	-0.270	0.620
2020/01/31 02:58:37.3	93.580	-0.230	-0.390	0.620
2020/01/31 02:58:37.4	93.600	-0.170	-0.510	0.620
2020/01/31 02:58:37.5	93.620	-0.110	-0.630	0.620
2020/01/31 02:58:37.6	93.630	-0.040	-0.740	0.620
2020/01/31 02:58:37.7	93.640	0.030	-0.860	0.620
2020/01/31 02:58:37.8	93.650	0.090	-0.960	0.630
2020/01/31 02:58:37.9	93.670	0.160	-1.050	0.630
2020/01/31 02:58:38.0	93.680	0.220	-1.140	0.640
2020/01/31 02:58:38.1	93.680	0.280	-1.220	0.640
2020/01/31 02:58:38.2	93.690	0.350	-1.280	0.650
2020/01/31 02:58:38.3	93.700	0.400	-1.330	0.650
2020/01/31 02:58:38.4	93.700	0.460	-1.370	0.660
2020/01/31 02:58:38.5	93.710	0.510	-1.400	0.670
2020/01/31 02:58:38.6	93.710	0.550	-1.410	0.670
2020/01/31 02:58:38.7	93.710	0.590	-1.410	0.680
2020/01/31 02:58:38.8	93.700	0.630	-1.390	0.690
2020/01/31 02:58:38.9	93.700	0.660	-1.360	0.700
2020/01/31 02:58:39.0	93.690	0.680	-1.320	0.710
2020/01/31 02:58:39.1	93.670	0.700	-1.270	0.720
2020/01/31 02:58:39.2	93.660	0.710	-1.200	0.740
2020/01/31 02:58:39.3	93.640	0.710	-1.120	0.750
2020/01/31 02:58:39.4	93.630	0.710	-1.030	0.760
2020/01/31 02:58:39.5	93.610	0.700	-0.930	0.770
2020/01/31 02:58:39.6	93.590	0.690	-0.820	0.780
2020/01/31 02:58:39.7	93.570	0.670	-0.710	0.790
2020/01/31 02:58:39.8	93.540	0.640	-0.590	0.790
2020/01/31 02:58:39.9	93.520	0.610	-0.460	0.800
2020/01/31 02:58:40.0	93.490	0.580	-0.330	0.800
2020/01/31 02:58:40.1	93.470	0.540	-0.200	0.800
2020/01/31 02:58:40.2	93.440	0.490	-0.060	0.800
2020/01/31 02:58:40.3	93.410	0.440	0.070	0.800
2020/01/31 02:58:40.4	93.380	0.390	0.190	0.800
2020/01/31 02:58:40.5	93.350	0.340	0.320	0.800
2020/01/31 02:58:40.6	93.320	0.280	0.440	0.800
2020/01/31 02:58:40.7	93.290	0.220	0.550	0.800
2020/01/31 02:58:40.8	93.260	0.160	0.650	0.800
2020/01/31 02:58:40.9	93.220	0.100	0.750	0.800
2020/01/31 02:58:41.0	93.190	0.050	0.830	0.800
2020/01/31 02:58:41.1	93.160	-0.010	0.910	0.790
2020/01/31 02:58:41.2	93.130	-0.070	0.970	0.790
2020/01/31 02:58:41.3	93.100	-0.120	1.020	0.790
2020/01/31 02:58:41.4	93.070	-0.170	1.060	0.790
2020/01/31 02:58:41.5	93.050	-0.220	1.080	0.790
2020/01/31 02:58:41.6	93.030	-0.260	1.090	0.780
2020/01/31 02:58:41.7	93.000	-0.300	1.080	0.780
2020/01/31 02:58:41.8	92.990	-0.330	1.060	0.770
2020/01/31 02:58:41.9	92.970	-0.360	1.030	0.770
2020/01/31 02:58:42.0	92.960	-0.380	0.980	0.760
2020/01/31 02:58:42.1	92.950	-0.400	0.920	0.750
2020/01/31 02:58:42.2	92.940	-0.410	0.850	0.740
2020/01/31 02:58:42.3	92.940	-0.410	0.760	0.720
2020/01/31 02:58:42.4	92.930	-0.410	0.670	0.700
2020/01/31 02:58:42.5	92.940	-0.400	0.560	0.690
2020/01/31 02:58:42.6	92.940	-0.390	0.450	0.670
2020/01/31 02:58:42.7	92.950	-0.370	0.340	0.650
2020/01/31 02:58:42.8	92.960	-0.350	0.220	0.620
2020/01/31 02:58:42.9	92.970	-0.320	0.100	0.600
2020/01/31 02:58:43.0	92.980	-0.290	-0.020	0.580
2020/01/31 02:58:43.1	92.990	-0.260	-0.150	0.550
2020/01/31 02:58:43.2	93.010	-0.220	-0.270	0.520
2020/01/31 02:58:43.3	93.030	-0.180	-0.380	0.500
2020/01/31 02:58:43.4	93.050	-0.140	-0.490	0.470
2020/01/31 02:58:43.5	93.070	-0.100	-0.600	0.450
2020/01/31 02:58:43.6	93.100	-0.060	-0.700	0.420
2020/01/31 02:58:43.7	93.120	-0.020	-0.790	0.400
2020/01/31 02:58:43.8	93.150	0.010	-0.870	0.380
2020/01/31 02:58:43.9	93.180	0.050	-0.940	0.360
2020/01/31 02:58:44.0	93.210	0.090	-1.000	0.350
2020/01/31 02:58:44.1	93.240	0.120	-1.050	0.330
2020/01/31 02:58:44.2	93.260	0.150	-1.090	0.320
2020/01/31 02:58:44.3	93.290	0.170	-1.110	0.320
2020/01/31 02:58:44.4	93.320	0.190	-1.130	0.320
2020/01/31 02:58:44.5	93.350	0.210	-1.140	0.320
2020/01/31 02:58:44.6	93.380	0.220	-1.140	0.330
2020/01/31 02:58:44.7	93.400	0.230	-1.120	0.350
2020/01/31 02:58:44.8	93.430	0.230	-1.100	0.360
2020/01/31 02:58:44.9	93.460	0.230	-1.070	0.390
2020/01/31 02:58:45.0	93.480	0.230	-1.030	0.410
2020/01/31 02:58:45.1	93.500	0.220	-0.980	0.450
2020/01/31 02:58:45.2	93.520	0.210	-0.920	0.480
2020/01/31 02:58:45.3	93.540	0.190	-0.860	0.530
2020/01/31 02:58:45.4	93.560	0.170	-0.790	0.570
2020/01/31 02:58:45.5	93.580	0.150	-0.720	0.620
2020/01/31 02:58:45.6	93.590	0.120	-0.640	0.670
2020/01/31 02:58:45.7	93.600	0.090	-0.560	0.720
2020/01/31 02:58:45.8	93.610	0.060	-0.480	0.780
2020/01/31 02:58:45.9	93.610	0.030	-0.390	0.830
2020/01/31 02:58:46.0	93.610	-0.010	-0.310	0.890
2020/01/31 02:58:46.1	93.610	-0.040	-0.220	0.940
2020/01/31 02:58:46.2	93.600	-0.080	-0.140	1.000
2020/01/31 02:58:46.3	93.600	-0.120	-0.060	1.050
2020/01/31 02:58:46.4	93.580	-0.150	0.020	1.100
2020/01/31 02:58:46.5	93.570	-0.190	0.100	1.150
2020/01/31 02:58:46.6	93.550	-0.220	0.170	1.200
2020/01/31 02:58:46.7	93.530	-0.260	0.240	1.250
2020/01/31 02:58:46.8	93.510	-0.290	0.300	1.290
2020/01/31 02:58:46.9	93.490	-0.320	0.360	1.330
2020/01/31 02:58:47.0	93.460	-0.350	0.410	1.360
2020/01/31 02:58:47.1	93.430	-0.380	0.450	1.390
2020/01/31 02:58:47.2	93.400	-0.400	0.490	1.410
2020/01/31 02:58:47.3	93.370	-0.430	0.520	1.430
2020/01/31 02:58:47.4	93.340	-0.440	0.550	1.450
2020/01/31 02:58:47.5	93.300	-0.460	0.570	1.450
2020/01/31 02:58:47.6	93.270	-0.470	0.580	1.450
2020/01/31 02:58:47.7	93.230	-0.480	0.580	1.450
2020/01/31 02:58:47.8	93.190	-0.480	0.570	1.440
2020/01/31 02:58:47.9	93.160	-0.480	0.560	1.430
2020/01/31 02:58:48.0	93.120	-0.480	0.540	1.410
2020/01/31 02:58:48.1	93.090	-0.470	0.510	1.380
2020/01/31 02:58:48.2	93.050	-0.460	0.470	1.350
2020/01/31 02:58:48.3	93.020	-0.450	0.430	1.320
2020/01/31 02:58:48.4	92.980	-0.430	0.380	1.290
2020/01/31 02:58:48.5	92.950	-0.410	0.320	1.250
2020/01/31 02:58:48.6	92.920	-0.380	0.260	1.210
2020/01/31 02:58:48.7	92.890	-0.350	0.190	1.170
2020/01/31 02:58:48.8	92.860	-0.320	0.120	1.120
2020/01/31 02:58:48.9	92.840	-0.290	0.040	1.080
2020/01/31 02:58:49.0	92.820	-0.250	-0.040	1.030
2020/01/31 02:58:49.1	92.800	-0.210	-0.120	0.970
2020/01/31 02:58:49.2	92.780	-0.160	-0.210	0.920
2020/01/31 02:58:49.3	92.770	-0.120	-0.290	0.860
2020/01/31 02:58:49.4	92.760	-0.070	-0.380	0.810
2020/01/31 02:58:49.5	92.750	-0.030	-0.460	0.750
2020/01/31 02:58:49.6	92.750	0.020	-0.540	0.690
2020/01/31 02:58:49.7	92.750	0.070	-0.620	0.640
2020/01/31 02:58:49.8	92.750	0.120	-0.700	0.580
2020/01/31 02:58:49.9	92.760	0.170	-0.780	0.530
2020/01/31 02:58:50.0	92.770	0.210	-0.840	0.470
2020/01/31 02:58:50.1	92.770	0.260	-0.910	0.410
2020/01/31 02:58:50.2	92.780	0.300	-0.960	0.360
2020/01/31 02:58:50.3	92.800	0.350	-1.010	0.310
2020/01/31 02:58:50.4	92.810	0.390	-1.060	0.260
2020/01/31 02:58:50.5	92.830	0.430	-1.090	0.210
2020/01/31 02:58:50.6	92.850	0.460	-1.120	0.170
2020/01/31 02:58:50.7	92.860	0.490	-1.140	0.120
2020/01/31 02:58:50.8	92.880	0.520	-1.150	0.080
2020/01/31 02:58:50.9	92.900	0.550	-1.160	0.050
2020/01/31 02:58:51.0	92.920	0.570	-1.160	0.010
2020/01/31 02:58:51.1	92.930	0.590	-1.150	-0.020
2020/01/31 02:58:51.2	92.950	0.610	-1.130	-0.040
2020/01/31 02:58:51.3	92.960	0.620	-1.110	-0.060
2020/01/31 02:58:51.4	92.980	0.630	-1.080	-0.070
2020/01/31 02:58:51.5	92.990	0.630	-1.040	-0.070
2020/01/31 02:58:51.6	92.990	0.630	-0.990	-0.080
2020/01/31 02:58:51.7	93.000	0.630	-0.950	-0.070
2020/01/31 02:58:51.8	93.000	0.620	-0.890	-0.060
2020/01/31 02:58:51.9	93.000	0.610	-0.830	-0.040
2020/01/31 02:58:52.0	93.000	0.600	-0.770	-0.020
2020/01/31 02:58:52.1	93.000	0.580	-0.700	0.000
2020/01/31 02:58:52.2	92.990	0.560	-0.630	0.030
2020/01/31 02:58:52.3	92.980	0.540	-0.560	0.070
2020/01/31 02:58:52.4	92.980	0.520	-0.490	0.110
2020/01/31 02:58:52.5	92.970	0.490	-0.420	0.150
2020/01/31 02:58:52.6	92.960	0.460	-0.350	0.190
2020/01/31 02:58:52.7	92.940	0.420	-0.270	0.240
2020/01/31 02:58:52.8	92.930	0.390	-0.200	0.290
2020/01/31 02:58:52.9	92.920	0.350	-0.130	0.340
2020/01/31 02:58:53.0	92.910	0.310	-0.060	0.390
2020/01/31 02:58:53.1	92.900	0.280	0.010	0.440
2020/01/31 02:58:53.2	92.890	0.240	0.070	0.490
2020/01/31 02:58:53.3	92.880	0.190	0.140	0.540
2020/01/31 02:58:53.4	92.870	0.150	0.190	0.590
2020/01/31 02:58:53.5	92.860	0.110	0.250	0.640
2020/01/31 02:58:53.6	92.860	0.070	0.300	0.690
2020/01/31 02:58:53.7	92.850	0.030	0.340	0.740
2020/01/31 02:58:53.8	92.850	-0.010	0.380	0.790
2020/01/31 02:58:53.9	92.850	-0.040	0.410	0.830
2020/01/31 02:58:54.0	92.840	-0.080	0.440	0.870
2020/01/31 02:58:54.1	92.850	-0.120	0.470	0.910
2020/01/31 02:58:54.2	92.850	-0.150	0.490	0.940
2020/01/31 02:58:54.3	92.850	-0.180	0.510	0.970
2020/01/31 02:58:54.4	92.860	-0.220	0.520	1.000
2020/01/31 02:58:54.5	92.860	-0.250	0.530	1.030
2020/01/31 02:58:54.6	92.870	-0.280	0.530	1.050
2020/01/31 02:58:54.7	92.880	-0.300	0.530	1.070
2020/01/31 02:58:54.8	92.890	-0.330	0.540	1.080
2020/01/31 02:58:54.9	92.890	-0.360	0.530	1.090
2020/01/31 02:58:55.0	92.900	-0.380	0.530	1.100
2020/01/31 02:58:55.1	92.910	-0.410	0.520	1.090
2020/01/31 02:58:55.2	92.920	-0.430	0.520	1.090
2020/01/31 02:58:55.3	92.940	-0.450	0.520	1.090
2020/01/31 02:58:55.4	92.950	-0.470	0.510	1.080
2020/01/31 02:58:55.5	92.960	-0.490	0.500	1.070
2020/01/31 02:58:55.6	92.970	-0.510	0.500	1.060
2020/01/31 02:58:55.7	92.970	-0.530	0.490	1.050
2020/01/31 02:58:55.8	92.980	-0.540	0.480	1.030
2020/01/31 02:58:55.9	92.990	-0.550	0.480	1.020
2020/01/31 02:58:56.0	93.000	-0.570	0.470	1.000
2020/01/31 02:58:56.1	93.000	-0.580	0.460	0.990
2020/01/31 02:58:56.2	93.000	-0.580	0.450	0.970
2020/01/31 02:58:56.3	93.010	-0.590	0.440	0.960
2020/01/31 02:58:56.4	93.010	-0.590	0.420	0.950
2020/01/31 02:58:56.5	93.010	-0.590	0.400	0.930
2020/01/31 02:58:56.6	93.020	-0.590	0.380	0.920
2020/01/31 02:58:56.7	93.020	-0.580	0.360	0.910
2020/01/31 02:58:56.8	93.020	-0.570	0.330	0.900
2020/01/31 02:58:56.9	93.020	-0.560	0.300	0.890
2020/01/31 02:58:57.0	93.030	-0.540	0.260	0.880
2020/01/31 02:58:57.1	93.020	-0.520	0.220	0.870
2020/01/31 02:58:57.2	93.030	-0.490	0.170	0.860
2020/01/31 02:58:57.3	93.030	-0.460	0.110	0.850
2020/01/31 02:58:57.4	93.030	-0.430	0.050	0.840
2020/01/31 02:58:57.5	93.030	-0.390	-0.020	0.830
2020/01/31 02:58:57.6	93.030	-0.350	-0.100	0.820
2020/01/31 02:58:57.7	93.030	-0.300	-0.180	0.810
2020/01/31 02:58:57.8	93.030	-0.260	-0.260	0.800
2020/01/31 02:58:57.9	93.030	-0.200	-0.350	0.790
2020/01/31 02:58:58.0	93.030	-0.150	-0.450	0.790
2020/01/31 02:58:58.1	93.020	-0.090	-0.550	0.770
2020/01/31 02:58:58.2	93.020	-0.030	-0.650	0.770
2020/01/31 02:58:58.3	93.020	0.030	-0.750	0.760
2020/01/31 02:58:58.4	93.020	0.090	-0.850	0.750
2020/01/31 02:58:58.5	93.010	0.160	-0.950	0.740
2020/01/31 02:58:58.6	93.010	0.220	-1.040	0.740
2020/01/31 02:58:58.7	93.000	0.280	-1.140	0.730
2020/01/31 02:58:58.8	93.000	0.340	-1.220	0.720
2020/01/31 02:58:58.9	92.990	0.400	-1.300	0.720
2020/01/31 02:58:59.0	92.980	0.460	-1.370	0.720
2020/01/31 02:58:59.1	92.970	0.510	-1.440	0.710
2020/01/31 02:58:59.2	92.960	0.560	-1.490	0.710
2020/01/31 02:58:59.3	92.950	0.600	-1.530	0.710
2020/01/31 02:58:59.4	92.940	0.640	-1.570	0.710
2020/01/31 02:58:59.5	92.930	0.680	-1.590	0.710
2020/01/31 02:58:59.6	92.910	0.710	-1.590	0.710
2020/01/31 02:58:59.7	92.900	0.730	-1.590	0.710
2020/01/31 02:58:59.8	92.880	0.740	-1.570	0.710
2020/01/31 02:58:59.9	92.870	0.750	-1.530	0.710
2020/01/31 02:59:00.0	92.860	0.750	-1.490	0.710
2020/01/31 02:59:00.1	92.840	0.750	-1.430	0.710
2020/01/31 02:59:00.2	92.830	0.730	-1.360	0.720
2020/01/31 02:59:00.3	92.810	0.720	-1.270	0.720
2020/01/31 02:59:00.4	92.800	0.690	-1.180	0.720
2020/01/31 02:59:00.5	92.790	0.660	-1.070	0.730
2020/01/31 02:59:00.6	92.780	0.620	-0.960	0.740
2020/01/31 02:59:00.7	92.770	0.570	-0.840	0.740
2020/01/31 02:59:00.8	92.760	0.520	-0.710	0.750
2020/01/31 02:59:00.9	92.750	0.470	-0.580	0.750
2020/01/31 02:59:01.0	92.740	0.410	-0.450	0.760
2020/01/31 02:59:01.1	92.730	0.350	-0.300	0.760
2020/01/31 02:59:01.2	92.730	0.280	-0.160	0.770
2020/01/31 02:59:01.3	92.720	0.210	-0.020	0.770
2020/01/31 02:59:01.4	92.720	0.140	0.110	0.780
2020/01/31 02:59:01.5	92.710	0.070	0.250	0.790
2020/01/31 02:59:01.6	92.710	-0.000	0.380	0.790
2020/01/31 02:59:01.7	92.700	-0.070	0.510	0.790
2020/01/31 02:59:01.8	92.700	-0.140	0.630	0.800
2020/01/31 02:59:01.9	92.690	-0.210	0.740	0.800
2020/01/31 02:59:02.0	92.690	-0.280	0.840	0.800
2020/01/31 02:59:02.1	92.680	-0.350	0.940	0.800
2020/01/31 02:59:02.2	92.680	-0.410	1.020	0.790
2020/01/31 02:59:02.3	92.670	-0.460	1.090	0.790
2020/01/31 02:59:02.4	92.670	-0.510	1.150	0.790
2020/01/31 02:59:02.5	92.660	-0.560	1.190	0.780
2020/01/31 02:59:02.6	92.660	-0.600	1.210	0.770
2020/01/31 02:59:02.7	92.650	-0.630	1.230	0.760
2020/01/31 02:59:02.8	92.650	-0.660	1.220	0.750
2020/01/31 02:59:02.9	92.640	-0.670	1.210	0.740
2020/01/31 02:59:03.0	92.640	-0.690	1.170	0.720
2020/01/31 02:59:03.1	92.640	-0.690	1.130	0.710
2020/01/31 02:59:03.2	92.630	-0.690	1.070	0.690
2020/01/31 02:59:03.3	92.630	-0.680	1.000	0.670
2020/01/31 02:59:03.4	92.630	-0.660	0.910	0.660
2020/01/31 02:59:03.5	92.620	-0.640	0.820	0.640
2020/01/31 02:59:03.6	92.620	-0.600	0.710	0.620
2020/01/31 02:59:03.7	92.620	-0.570	0.600	0.600
2020/01/31 02:59:03.8	92.620	-0.530	0.480	0.580
2020/01/31 02:59:03.9	92.620	-0.480	0.350	0.560
2020/01/31 02:59:04.0	92.620	-0.430	0.230	0.540
2020/01/31 02:59:04.1	92.630	-0.370	0.090	0.520
2020/01/31 02:59:04.2	92.630	-0.320	-0.040	0.490
2020/01/31 02:59:04.3	92.640	-0.260	-0.170	0.470
2020/01/31 02:59:04.4	92.650	-0.200	-0.290	0.460
2020/01/31 02:59:04.5	92.660	-0.130	-0.420	0.440
2020/01/31 02:59:04.6	92.670	-0.070	-0.530	0.420
2020/01/31 02:59:04.7	92.680	-0.010	-0.650	0.400
2020/01/31 02:59:04.8	92.700	0.060	-0.750	0.390
2020/01/31 02:59:04.9	92.710	0.120	-0.850	0.380
2020/01/31 02:59:05.0	92.730	0.180	-0.940	0.360
2020/01/31 02:59:05.1	92.740	0.240	-1.010	0.350
2020/01/31 02:59:05.2	92.760	0.290	-1.080	0.340
2020/01/31 02:59:05.3	92.770	0.340	-1.140	0.340
2020/01/31 02:59:05.4	92.790	0.390	-1.190	0.330
2020/01/31 02:59:05.5	92.800	0.440	-1.220	0.330
2020/01/31 02:59:05.6	92.820	0.480	-1.240	0.320
2020/01/31 02:59:05.7	92.830	0.510	-1.260	0.320
2020/01/31 02:59:05.8	92.850	0.540	-1.260	0.330
2020/01/31 02:59:05.9	92.860	0.570	-1.250	0.330
2020/01/31 02:59:06.0	92.870	0.590	-1.230	0.330
2020/01/31 02:59:06.1	92.890	0.610	-1.200	0.340
2020/01/31 02:59:06.2	92.900	0.620	-1.160	0.350
2020/01/31 02:59:06.3	92.910	0.630	-1.110	0.360
2020/01/31 02:59:06.4	92.910	0.630	-1.060	0.370
2020/01/31 02:59:06.5	92.920	0.630	-1.000	0.390
2020/01/31 02:59:06.6	92.920	0.620	-0.930	0.410
2020/01/31 02:59:06.7	92.920	0.610	-0.860	0.430
2020/01/31 02:59:06.8	92.920	0.600	-0.780	0.460
2020/01/31 02:59:06.9	92.920	0.580	-0.700	0.480
2020/01/31 02:59:07.0	92.910	0.550	-0.610	0.510
2020/01/31 02:59:07.1	92.910	0.530	-0.520	0.540
2020/01/31 02:59:07.2	92.900	0.500	-0.430	0.580
2020/01/31 02:59:07.3	92.890	0.460	-0.340	0.610
2020/01/31 02:59:07.4	92.880	0.430	-0.260	0.650
2020/01/31 02:59:07.5	92.870	0.390	-0.170	0.680
2020/01/31 02:59:07.6	92.850	0.350	-0.080	0.720
2020/01/31 02:59:07.7	92.840	0.310	-0.000	0.760
2020/01/31 02:59:07.8	92.820	0.270	0.080	0.790
2020/01/31 02:59:07.9	92.800	0.220	0.150	0.830
2020/01/31 02:59:08.0	92.780	0.180	0.220	0.860
2020/01/31 02:59:08.1	92.760	0.130	0.290	0.890
2020/01/31 02:59:08.2	92.740	0.090	0.350	0.930
2020/01/31 02:59:08.3	92.720	0.040	0.400	0.960
2020/01/31 02:59:08.4	92.700	0.000	0.450	0.980
2020/01/31 02:59:08.5	92.680	-0.040	0.490	1.010
2020/01/31 02:59:08.6	92.670	-0.080	0.520	1.030
2020/01/31 02:59:08.7	92.650	-0.120	0.540	1.050
2020/01/31 02:59:08.8	92.630	-0.160	0.560	1.070
2020/01/31 02:59:08.9	92.610	-0.200	0.560	1.090
2020/01/31 02:59:09.0	92.600	-0.230	0.560	1.100
2020/01/31 02:59:09.1	92.580	-0.260	0.550	1.110
2020/01/31 02:59:09.2	92.560	-0.290	0.540	1.120
2020/01/31 02:59:09.3	92.550	-0.310	0.520	1.120
2020/01/31 02:59:09.4	92.530	-0.340	0.490	1.130
2020/01/31 02:59:09.5	92.520	-0.360	0.460	1.140
2020/01/31 02:59:09.6	92.500	-0.370	0.420	1.140
2020/01/31 02:59:09.7	92.490	-0.390	0.380	1.140
2020/01/31 02:59:09.8	92.470	-0.400	0.340	1.150
2020/01/31 02:59:09.9	92.460	-0.410	0.290	1.150
2020/01/31 02:59:10.0	92.440	-0.420	0.230	1.150
2020/01/31 02:59:10.1	92.430	-0.420	0.190	1.150
2020/01/31 02:59:10.2	92.410	-0.430	0.130	1.140
2020/01/31 02:59:10.3	92.400	-0.430	0.070	1.140
2020/01/31 02:59:10.4	92.390	-0.430	0.020	1.140
2020/01/31 02:59:10.5	92.380	-0.430	-0.040	1.140
2020/01/31 02:59:10.6	92.370	-0.420	-0.100	1.130
2020/01/31 02:59:10.7	92.360	-0.420	-0.150	1.130
2020/01/31 02:59:10.8	92.350	-0.410	-0.200	1.120
2020/01/31 02:59:10.9	92.350	-0.410	-0.260	1.110
2020/01/31 02:59:11.0	92.350	-0.400	-0.310	1.100
2020/01/31 02:59:11.1	92.350	-0.390	-0.360	1.080
2020/01/31 02:59:11.2	92.350	-0.380	-0.410	1.070
2020/01/31 02:59:11.3	92.360	-0.370	-0.450	1.050
2020/01/31 02:59:11.4	92.360	-0.350	-0.490	1.030
2020/01/31 02:59:11.5	92.370	-0.340	-0.530	1.010
2020/01/31 02:59:11.6	92.390	-0.330	-0.560	0.980
2020/01/31 02:59:11.7	92.400	-0.310	-0.590	0.960
2020/01/31 02:59:11.8	92.420	-0.300	-0.620	0.940
2020/01/31 02:59:11.9	92.440	-0.280	-0.640	0.910
2020/01/31 02:59:12.0	92.460	-0.270	-0.660	0.890
2020/01/31 02:59:12.1	92.480	-0.250	-0.670	0.860
2020/01/31 02:59:12.2	92.500	-0.230	-0.690	0.840
2020/01/31 02:59:12.3	92.520	-0.220	-0.690	0.830
2020/01/31 02:59:12.4	92.540	-0.200	-0.700	0.810
2020/01/31 02:59:12.5	92.560	-0.180	-0.700	0.800
2020/01/31 02:59:12.6	92.580	-0.160	-0.700	0.790
2020/01/31 02:59:12.7	92.600	-0.140	-0.690	0.790
2020/01/31 02:59:12.8	92.620	-0.120	-0.680	0.790
2020/01/31 02:59:12.9	92.630	-0.100	-0.670	0.790
2020/01/31 02:59:13.0	92.650	-0.080	-0.660	0.790
2020/01/31 02:59:13.1	92.660	-0.060	-0.640	0.800
2020/01/31 02:59:13.2	92.680	-0.040	-0.620	0.800
2020/01/31 02:59:13.3	92.690	-0.020	-0.600	0.810
2020/01/31 02:59:13.4	92.700	0.010	-0.570	0.820
2020/01/31 02:59:13.5	92.710	0.030	-0.540	0.830
2020/01/31 02:59:13.6	92.720	0.050	-0.520	0.840
2020/01/31 02:59:13.7	92.730	0.070	-0.490	0.850
2020/01/31 02:59:13.8	92.740	0.090	-0.460	0.860
2020/01/31 02:59:13.9	92.750	0.110	-0.430	0.870
2020/01/31 02:59:14.0	92.750	0.130	-0.400	0.880
2020/01/31 02:59:14.1	92.750	0.150	-0.360	0.890
2020/01/31 02:59:14.2	92.750	0.170	-0.330	0.900
2020/01/31 02:59:14.3	92.750	0.190	-0.300	0.900
2020/01/31 02:59:14.4	92.750	0.210	-0.270	0.910
2020/01/31 02:59:14.5	92.740	0.230	-0.240	0.920
2020/01/31 02:59:14.6	92.730	0.240	-0.210	0.920
2020/01/31 02:59:14.7	92.720	0.260	-0.180	0.930
2020/01/31 02:59:14.8	92.710	0.270	-0.150	0.930
2020/01/31 02:59:14.9	92.700	0.280	-0.120	0.940
2020/01/31 02:59:15.0	92.680	0.290	-0.090	0.940
2020/01/31 02:59:15.1	92.660	0.300	-0.060	0.940
2020/01/31 02:59:15.2	92.640	0.300	-0.030	0.940
2020/01/31 02:59:15.3	92.620	0.300	0.000	0.950
2020/01/31 02:59:15.4	92.600	0.300	0.030	0.950
2020/01/31 02:59:15.5	92.580	0.300	0.060	0.950
2020/01/31 02:59:15.6	92.560	0.300	0.080	0.950
2020/01/31 02:59:15.7	92.540	0.290	0.110	0.950
2020/01/31 02:59:15.8	92.520	0.280	0.130	0.940
2020/01/31 02:59:15.9	92.500	0.270	0.150	0.940
2020/01/31 02:59:16.0	92.490	0.250	0.170	0.930
2020/01/31 02:59:16.1	92.470	0.240	0.190	0.910
2020/01/31 02:59:16.2	92.460	0.220	0.210	0.900
2020/01/31 02:59:16.3	92.450	0.200	0.220	0.880
2020/01/31 02:59:16.4	92.440	0.180	0.230	0.860
2020/01/31 02:59:16.5	92.440	0.160	0.240	0.840
2020/01/31 02:59:16.6	92.430	0.140	0.250	0.820
2020/01/31 02:59:16.7	92.430	0.120	0.250	0.790
2020/01/31 02:59:16.8	92.440	0.100	0.250	0.760
2020/01/31 02:59:16.9	92.440	0.080	0.240	0.720
2020/01/31 02:59:17.0	92.450	0.060	0.230	0.680
2020/01/31 02:59:17.1	92.450	0.040	0.220	0.640
2020/01/31 02:59:17.2	92.460	0.020	0.200	0.600
2020/01/31 02:59:17.3	92.470	-0.000	0.180	0.550
2020/01/31 02:59:17.4	92.490	-0.020	0.150	0.510
2020/01/31 02:59:17.5	92.500	-0.030	0.120	0.460
2020/01/31 02:59:17.6	92.520	-0.040	0.080	0.420
2020/01/31 02:59:17.7	92.530	-0.050	0.040	0.370
2020/01/31 02:59:17.8	92.550	-0.050	-0.010	0.330
2020/01/31 02:59:17.9	92.560	-0.060	-0.050	0.290
2020/01/31 02:59:18.0	92.580	-0.060	-0.100	0.250
2020/01/31 02:59:18.1	92.590	-0.050	-0.160	0.220
2020/01/31 02:59:18.2	92.600	-0.050	-0.210	0.190
2020/01/31 02:59:18.3	92.620	-0.040	-0.270	0.160
2020/01/31 02:59:18.4	92.630	-0.030	-0.320	0.140
2020/01/31 02:59:18.5	92.650	-0.020	-0.380	0.130
2020/01/31 02:59:18.6	92.660	-0.000	-0.440	0.120
2020/01/31 02:59:18.7	92.670	0.020	-0.490	0.110
2020/01/31 02:59:18.8	92.680	0.030	-0.540	0.120
2020/01/31 02:59:18.9	92.690	0.050	-0.590	0.120
2020/01/31 02:59:19.0	92.700	0.080	-0.640	0.140
2020/01/31 02:59:19.1	92.700	0.100	-0.680	0.150
2020/01/31 02:59:19.2	92.700	0.120	-0.730	0.180
2020/01/31 02:59:19.3	92.700	0.140	-0.760	0.210
2020/01/31 02:59:19.4	92.700	0.160	-0.790	0.240
2020/01/31 02:59:19.5	92.700	0.180	-0.820	0.280
2020/01/31 02:59:19.6	92.690	0.200	-0.840	0.330
2020/01/31 02:59:19.7	92.680	0.220	-0.860	0.370
2020/01/31 02:59:19.8	92.670	0.240	-0.870	0.420
2020/01/31 02:59:19.9	92.660	0.260	-0.880	0.470
2020/01/31 02:59:20.0	92.640	0.270	-0.880	0.510
2020/01/31 02:59:20.1	92.630	0.280	-0.870	0.570
2020/01/31 02:59:20.2	92.620	0.290	-0.860	0.620
2020/01/31 02:59:20.3	92.600	0.300	-0.850	0.660
2020/01/31 02:59:20.4	92.590	0.300	-0.830	0.710
2020/01/31 02:59:20.5	92.570	0.310	-0.800	0.760
2020/01/31 02:59:20.6	92.560	0.300	-0.770	0.800
2020/01/31 02:59:20.7	92.550	0.300	-0.740	0.840
2020/01/31 02:59:20.8	92.540	0.290	-0.700	0.880
2020/01/31 02:59:20.9	92.530	0.280	-0.660	0.930
2020/01/31 02:59:21.0	92.520	0.270	-0.620	0.960
2020/01/31 02:59:21.1	92.510	0.260	-0.570	1.000
2020/01/31 02:59:21.2	92.510	0.240	-0.520	1.030
2020/01/31 02:59:21.3	92.500	0.220	-0.470	1.070
2020/01/31 02:59:21.4	92.500	0.200	-0.430	1.100
2020/01/31 02:59:21.5	92.500	0.170	-0.380	1.130
2020/01/31 02:59:21.6	92.500	0.150	-0.320	1.160
2020/01/31 02:59:21.7	92.500	0.120	-0.270	1.190
2020/01/31 02:59:21.8	92.510	0.090	-0.220	1.220
2020/01/31 02:59:21.9	92.520	0.060	-0.170	1.240
2020/01/31 02:59:22.0	92.520	0.030	-0.120	1.260
2020/01/31 02:59:22.1	92.530	0.000	-0.080	1.280
2020/01/31 02:59:22.2	92.540	-0.030	-0.030	1.290
2020/01/31 02:59:22.3	92.560	-0.060	0.020	1.310
2020/01/31 02:59:22.4	92.570	-0.100	0.060	1.310
2020/01/31 02:59:22.5	92.590	-0.130	0.110	1.320
2020/01/31 02:59:22.6	92.600	-0.170	0.150	1.320
2020/01/31 02:59:22.7	92.620	-0.200	0.200	1.320
2020/01/31 02:59:22.8	92.640	-0.240	0.240	1.310
2020/01/31 02:59:22.9	92.660	-0.270	0.280	1.300
2020/01/31 02:59:23.0	92.680	-0.300	0.330	1.290
2020/01/31 02:59:23.1	92.700	-0.340	0.370	1.270
2020/01/31 02:59:23.2	92.720	-0.370	0.400	1.240
2020/01/31 02:59:23.3	92.740	-0.400	0.440	1.220
2020/01/31 02:59:23.4	92.770	-0.430	0.470	1.190
2020/01/31 02:59:23.5	92.790	-0.460	0.500	1.160
2020/01/31 02:59:23.6	92.810	-0.480	0.530	1.130
2020/01/31 02:59:23.7	92.840	-0.510	0.550	1.100
2020/01/31 02:59:23.8	92.860	-0.530	0.570	1.060
2020/01/31 02:59:23.9	92.880	-0.540	0.590	1.030
2020/01/31 02:59:24.0	92.910	-0.560	0.600	0.990
2020/01/31 02:59:24.1	92.930	-0.570	0.610	0.950
2020/01/31 02:59:24.2	92.950	-0.580	0.610	0.920
2020/01/31 02:59:24.3	92.970	-0.590	0.600	0.880
2020/01/31 02:59:24.4	92.990	-0.590	0.590	0.850
2020/01/31 02:59:24.5	93.010	-0.590	0.570	0.820
2020/01/31 02:59:24.6	93.020	-0.580	0.540	0.780
2020/01/31 02:59:24.7	93.040	-0.570	0.510	0.760
2020/01/31 02:59:24.8	93.050	-0.550	0.470	0.730
2020/01/31 02:59:24.9	93.060	-0.530	0.420	0.700
2020/01/31 02:59:25.0	93.070	-0.510	0.370	0.680
2020/01/31 02:59:25.1	93.070	-0.480	0.310	0.650
2020/01/31 02:59:25.2	93.080	-0.450	0.250	0.620
2020/01/31 02:59:25.3	93.080	-0.410	0.180	0.600
2020/01/31 02:59:25.4	93.090	-0.370	0.100	0.590
2020/01/31 02:59:25.5	93.090	-0.330	0.030	0.570
2020/01/31 02:59:25.6	93.100	-0.280	-0.050	0.550
2020/01/31 02:59:25.7	93.100	-0.240	-0.140	0.540
2020/01/31 02:59:25.8	93.100	-0.190	-0.220	0.530
2020/01/31 02:59:25.9	93.090	-0.130	-0.300	0.520
2020/01/31 02:59:26.0	93.090	-0.080	-0.390	0.520
2020/01/31 02:59:26.1	93.080	-0.030	-0.470	0.520
2020/01/31 02:59:26.2	93.080	0.030	-0.550	0.520
2020/01/31 02:59:26.3	93.070	0.080	-0.620	0.520
2020/01/31 02:59:26.4	93.060	0.130	-0.700	0.520
2020/01/31 02:59:26.5	93.040	0.180	-0.760	0.530
2020/01/31 02:59:26.6	93.030	0.230	-0.820	0.530
2020/01/31 02:59:26.7	93.020	0.280	-0.880	0.540
2020/01/31 02:59:26.8	93.000	0.320	-0.920	0.540
2020/01/31 02:59:26.9	92.990	0.360	-0.960	0.540
2020/01/31 02:59:27.0	92.970	0.400	-0.990	0.550
2020/01/31 02:59:27.1	92.960	0.430	-1.010	0.550
2020/01/31 02:59:27.2	92.940	0.460	-1.030	0.550
2020/01/31 02:59:27.3	92.930	0.480	-1.030	0.550
2020/01/31 02:59:27.4	92.920	0.500	-1.030	0.540
2020/01/31 02:59:27.5	92.910	0.510	-1.020	0.540
2020/01/31 02:59:27.6	92.910	0.520	-1.000	0.530
2020/01/31 02:59:27.7	92.900	0.530	-0.970	0.520
2020/01/31 02:59:27.8	92.900	0.530	-0.940	0.510
2020/01/31 02:59:27.9	92.900	0.530	-0.900	0.500
2020/01/31 02:59:28.0	92.900	0.520	-0.850	0.490
2020/01/31 02:59:28.1	92.900	0.510	-0.800	0.470
2020/01/31 02:59:28.2	92.900	0.490	-0.740	0.460
2020/01/31 02:59:28.3	92.910	0.470	-0.670	0.440
2020/01/31 02:59:28.4	92.910	0.450	-0.610	0.430
2020/01/31 02:59:28.5	92.910	0.430	-0.540	0.410
2020/01/31 02:59:28.6	92.920	0.400	-0.470	0.400
2020/01/31 02:59:28.7	92.930	0.370	-0.400	0.380
2020/01/31 02:59:28.8	92.930	0.340	-0.330	0.370
2020/01/31 02:59:28.9	92.940	0.300	-0.260	0.360
2020/01/31 02:59:29.0	92.940	0.270	-0.190	0.350
2020/01/31 02:59:29.1	92.940	0.240	-0.110	0.340
2020/01/31 02:59:29.2	92.950	0.200	-0.050	0.330
2020/01/31 02:59:29.3	92.950	0.170	0.010	0.330
2020/01/31 02:59:29.4	92.950	0.140	0.070	0.320
2020/01/31 02:59:29.5	92.950	0.100	0.120	0.320
2020/01/31 02:59:29.6	92.960	0.070	0.160	0.320
2020/01/31 02:59:29.7	92.960	0.040	0.200	0.330
2020/01/31 02:59:29.8	92.960	0.010	0.240	0.330
2020/01/31 02:59:29.9	92.960	-0.020	0.270	0.340
2020/01/31 02:59:30.0	92.960	-0.040	0.290	0.350
2020/01/31 02:59:30.1	92.970	-0.070	0.300	0.350
2020/01/31 02:59:30.2	92.970	-0.090	0.310	0.360
2020/01/31 02:59:30.3	92.970	-0.110	0.310	0.370
2020/01/31 02:59:30.4	92.970	-0.120	0.300	0.390
2020/01/31 02:59:30.5	92.970	-0.140	0.290	0.400
2020/01/31 02:59:30.6	92.980	-0.150	0.270	0.410
2020/01/31 02:59:30.7	92.980	-0.160	0.250	0.430
2020/01/31 02:59:30.8	92.980	-0.160	0.220	0.440
2020/01/31 02:59:30.9	92.980	-0.170	0.180	0.460
2020/01/31 02:59:31.0	92.980	-0.170	0.140	0.480
2020/01/31 02:59:31.1	92.970	-0.170	0.090	0.490
2020/01/31 02:59:31.2	92.970	-0.160	0.040	0.510
2020/01/31 02:59:31.3	92.970	-0.160	-0.010	0.530
2020/01/31 02:59:31.4	92.970	-0.150	-0.070	0.540
2020/01/31 02:59:31.5	92.970	-0.140	-0.130	0.560
2020/01/31 02:59:31.6	92.960	-0.120	-0.190	0.570
2020/01/31 02:59:31.7	92.960	-0.110	-0.250	0.590
2020/01/31 02:59:31.8	92.960	-0.090	-0.310	0.600
2020/01/31 02:59:31.9	92.950	-0.070	-0.370	0.610
2020/01/31 02:59:32.0	92.950	-0.060	-0.430	0.630
2020/01/31 02:59:32.1	92.950	-0.040	-0.480	0.640
2020/01/31 02:59:32.2	92.940	-0.020	-0.540	0.650
2020/01/31 02:59:32.3	92.940	0.000	-0.590	0.670
2020/01/31 02:59:32.4	92.940	0.020	-0.630	0.680
2020/01/31 02:59:32.5	92.930	0.040	-0.670	0.700
2020/01/31 02:59:32.6	92.930	0.060	-0.710	0.720
2020/01/31 02:59:32.7	92.920	0.080	-0.740	0.730
2020/01/31 02:59:32.8	92.920	0.090	-0.760	0.750
2020/01/31 02:59:32.9	92.910	0.110	-0.770	0.770
2020/01/31 02:59:33.0	92.900	0.120	-0.780	0.790
2020/01/31 02:59:33.1	92.890	0.130	-0.790	0.820
2020/01/31 02:59:33.2	92.880	0.140	-0.790	0.840
2020/01/31 02:59:33.3	92.880	0.150	-0.780	0.860
2020/01/31 02:59:33.4	92.870	0.160	-0.760	0.880
2020/01/31 02:59:33.5	92.860	0.160	-0.740	0.900
2020/01/31 02:59:33.6	92.850	0.160	-0.710	0.920
2020/01/31 02:59:33.7	92.840	0.160	-0.680	0.940
2020/01/31 02:59:33.8	92.840	0.160	-0.650	0.960
2020/01/31 02:59:33.9	92.830	0.160	-0.610	0.980
2020/01/31 02:59:34.0	92.820	0.150	-0.560	1.000
2020/01/31 02:59:34.1	92.810	0.140	-0.510	1.010
2020/01/31 02:59:34.2	92.810	0.130	-0.460	1.020
2020/01/31 02:59:34.3	92.800	0.120	-0.410	1.040
2020/01/31 02:59:34.4	92.790	0.110	-0.360	1.050
2020/01/31 02:59:34.5	92.780	0.090	-0.300	1.060
2020/01/31 02:59:34.6	92.770	0.080	-0.250	1.070
2020/01/31 02:59:34.7	92.770	0.060	-0.200	1.070
2020/01/31 02:59:34.8	92.760	0.040	-0.150	1.080
2020/01/31 02:59:34.9	92.760	0.030	-0.100	1.080
2020/01/31 02:59:35.0	92.750	0.010	-0.050	1.080
2020/01/31 02:59:35.1	92.750	-0.010	-0.000	1.080
2020/01/31 02:59:35.2	92.740	-0.030	0.040	1.080
2020/01/31 02:59:35.3	92.740	-0.050	0.080	1.080
2020/01/31 02:59:35.4	92.740	-0.060	0.110	1.080
2020/01/31 02:59:35.5	92.730	-0.080	0.150	1.080
2020/01/31 02:59:35.6	92.730	-0.090	0.170	1.070
2020/01/31 02:59:35.7	92.730	-0.110	0.200	1.060
2020/01/31 02:59:35.8	92.740	-0.120	0.220	1.050
2020/01/31 02:59:35.9	92.740	-0.130	0.230	1.040
2020/01/31 02:59:36.0	92.740	-0.140	0.240	1.020
2020/01/31 02:59:36.1	92.750	-0.150	0.250	1.000
2020/01/31 02:59:36.2	92.750	-0.160	0.250	0.980
2020/01/31 02:59:36.3	92.760	-0.170	0.250	0.960
2020/01/31 02:59:36.4	92.770	-0.170	0.240	0.940
2020/01/31 02:59:36.5	92.780	-0.170	0.230	0.910
2020/01/31 02:59:36.6	92.790	-0.170	0.210	0.890
2020/01/31 02:59:36.7	92.800	-0.170	0.200	0.860
2020/01/31 02:59:36.8	92.820	-0.170	0.170	0.830
2020/01/31 02:59:36.9	92.830	-0.160	0.150	0.800
2020/01/31 02:59:37.0	92.840	-0.160	0.120	0.770
2020/01/31 02:59:37.1	92.850	-0.150	0.090	0.740
2020/01/31 02:59:37.2	92.860	-0.140	0.060	0.710
2020/01/31 02:59:37.3	92.870	-0.140	0.030	0.670
2020/01/31 02:59:37.4	92.880	-0.130	0.000	0.650
2020/01/31 02:59:37.5	92.890	-0.120	-0.030	0.620
2020/01/31 02:59:37.6	92.900	-0.100	-0.060	0.590
2020/01/31 02:59:37.7	92.900	-0.090	-0.090	0.570
2020/01/31 02:59:37.8	92.910	-0.080	-0.120	0.550
2020/01/31 02:59:37.9	92.910	-0.070	-0.140	0.530
2020/01/31 02:59:38.0	92.910	-0.060	-0.160	0.510
2020/01/31 02:59:38.1	92.910	-0.050	-0.180	0.500
2020/01/31 02:59:38.2	92.910	-0.040	-0.200	0.490
2020/01/31 02:59:38.3	92.900	-0.030	-0.210	0.480
2020/01/31 02:59:38.4	92.890	-0.020	-0.220	0.480
2020/01/31 02:59:38.5	92.890	-0.010	-0.230	0.480
2020/01/31 02:59:38.6	92.880	-0.000	-0.240	0.490
2020/01/31 02:59:38.7	92.870	0.000	-0.230	0.490
2020/01/31 02:59:38.8	92.850	0.010	-0.230	0.500
2020/01/31 02:59:38.9	92.840	0.010	-0.220	0.520
2020/01/31 02:59:39.0	92.830	0.010	-0.210	0.530
2020/01/31 02:59:39.1	92.810	0.010	-0.200	0.550
2020/01/31 02:59:39.2	92.800	0.000	-0.180	0.570
2020/01/31 02:59:39.3	92.790	-0.000	-0.160	0.580
2020/01/31 02:59:39.4	92.770	-0.010	-0.130	0.600
2020/01/31 02:59:39.5	92.760	-0.020	-0.110	0.620
2020/01/31 02:59:39.6	92.750	-0.030	-0.080	0.640
2020/01/31 02:59:39.7	92.740	-0.040	-0.050	0.660
2020/01/31 02:59:39.8	92.730	-0.050	-0.020	0.680
2020/01/31 02:59:39.9	92.720	-0.070	0.000	0.700
2020/01/31 02:59:40.0	92.720	-0.090	0.030	0.710
2020/01/31 02:59:40.1	92.710	-0.100	0.060	0.720
2020/01/31 02:59:40.2	92.710	-0.120	0.090	0.730
2020/01/31 02:59:40.3	92.710	-0.140	0.110	0.740
2020/01/31 02:59:40.4	92.700	-0.160	0.120	0.750
2020/01/31 02:59:40.5	92.710	-0.180	0.140	0.750
2020/01/31 02:59:40.6	92.710	-0.200	0.150	0.750
2020/01/31 02:59:40.7	92.710	-0.220	0.160	0.750
2020/01/31 02:59:40.8	92.710	-0.240	0.160	0.750
2020/01/31 02:59:40.9	92.720	-0.260	0.150	0.740
2020/01/31 02:59:41.0	92.730	-0.270	0.140	0.720
2020/01/31 02:59:41.1	92.730	-0.280	0.120	0.710
2020/01/31 02:59:41.2	92.740	-0.290	0.100	0.700
2020/01/31 02:59:41.3	92.750	-0.300	0.080	0.680
2020/01/31 02:59:41.4	92.760	-0.300	0.040	0.660
2020/01/31 02:59:41.5	92.770	-0.300	0.010	0.640
2020/01/31 02:59:41.6	92.780	-0.300	-0.040	0.620
2020/01/31 02:59:41.7	92.800	-0.290	-0.090	0.600
2020/01/31 02:59:41.8	92.810	-0.270	-0.140	0.580
2020/01/31 02:59:41.9	92.820	-0.250	-0.200	0.560
2020/01/31 02:59:42.0	92.840	-0.230	-0.260	0.540
2020/01/31 02:59:42.1	92.840	-0.200	-0.320	0.520
2020/01/31 02:59:42.2	92.860	-0.170	-0.390	0.510
2020/01/31 02:59:42.3	92.870	-0.140	-0.460	0.490
2020/01/31 02:59:42.4	92.880	-0.100	-0.530	0.490
2020/01/31 02:59:42.5	92.900	-0.060	-0.600	0.480
2020/01/31 02:59:42.6	92.910	-0.010	-0.660	0.470
2020/01/31 02:59:42.7	92.920	0.040	-0.730	0.470
2020/01/31 02:59:42.8	92.930	0.090	-0.790	0.470
2020/01/31 02:59:42.9	92.940	0.130	-0.850	0.470
2020/01/31 02:59:43.0	92.950	0.180	-0.910	0.470
2020/01/31 02:59:43.1	92.960	0.230	-0.960	0.480
2020/01/31 02:59:43.2	92.970	0.280	-1.010	0.480
2020/01/31 02:59:43.3	92.970	0.330	-1.050	0.490
2020/01/31 02:59:43.4	92.980	0.380	-1.080	0.500
2020/01/31 02:59:43.5	92.980	0.420	-1.110	0.510
2020/01/31 02:59:43.6	92.990	0.460	-1.130	0.520
2020/01/31 02:59:43.7	92.990	0.490	-1.140	0.540
2020/01/31 02:59:43.8	92.980	0.530	-1.140	0.550
2020/01/31 02:59:43.9	92.980	0.550	-1.140	0.570
2020/01/31 02:59:44.0	92.970	0.580	-1.130	0.590
2020/01/31 02:59:44.1	92.950	0.590	-1.110	0.610
2020/01/31 02:59:44.2	92.940	0.610	-1.090	0.630
2020/01/31 02:59:44.3	92.920	0.610	-1.050	0.660
2020/01/31 02:59:44.4	92.900	0.620	-1.010	0.690
2020/01/31 02:59:44.5	92.880	0.610	-0.970	0.710
2020/01/31 02:59:44.6	92.850	0.610	-0.910	0.740
2020/01/31 02:59:44.7	92.830	0.590	-0.850	0.780
2020/01/31 02:59:44.8	92.800	0.580	-0.790	0.810
2020/01/31 02:59:44.9	92.770	0.550	-0.720	0.840
2020/01/31 02:59:45.0	92.730	0.530	-0.640	0.880
2020/01/31 02:59:45.1	92.700	0.500	-0.550	0.910
2020/01/31 02:59:45.2	92.670	0.460	-0.470	0.940
2020/01/31 02:59:45.3	92.630	0.420	-0.380	0.980
2020/01/31 02:59:45.4	92.600	0.380	-0.290	1.010
2020/01/31 02:59:45.5	92.560	0.340	-0.200	1.040
2020/01/31 02:59:45.6	92.530	0.290	-0.100	1.070
2020/01/31 02:59:45.7	92.500	0.240	-0.010	1.100
2020/01/31 02:59:45.8	92.470	0.190	0.080	1.130
2020/01/31 02:59:45.9	92.440	0.140	0.170	1.150
2020/01/31 02:59:46.0	92.420	0.090	0.260	1.170
2020/01/31 02:59:46.1	92.390	0.040	0.350	1.190
2020/01/31 02:59:46.2	92.370	-0.010	0.430	1.200
2020/01/31 02:59:46.3	92.350	-0.060	0.500	1.210
2020/01/31 02:59:46.4	92.330	-0.110	0.570	1.220
2020/01/31 02:59:46.5	92.310	-0.160	0.630	1.220
2020/01/31 02:59:46.6	92.300	-0.200	0.680	1.220
2020/01/31 02:59:46.7	92.290	-0.250	0.730	1.220
2020/01/31 02:59:46.8	92.270	-0.290	0.760	1.210
2020/01/31 02:59:46.9	92.270	-0.320	0.780	1.200
2020/01/31 02:59:47.0	92.260	-0.360	0.800	1.180
2020/01/31 02:59:47.1	92.250	-0.380	0.800	1.160
2020/01/31 02:59:47.2	92.250	-0.410	0.790	1.130
2020/01/31 02:59:47.3	92.240	-0.430	0.770	1.100
2020/01/31 02:59:47.4	92.240	-0.440	0.740	1.070
2020/01/31 02:59:47.5	92.240	-0.450	0.690	1.040
2020/01/31 02:59:47.6	92.240	-0.460	0.640	1.000
2020/01/31 02:59:47.7	92.250	-0.460	0.580	0.960
2020/01/31 02:59:47.8	92.250	-0.460	0.510	0.920
2020/01/31 02:59:47.9	92.250	-0.450	0.430	0.870
2020/01/31 02:59:48.0	92.260	-0.440	0.340	0.830
2020/01/31 02:59:48.1	92.260	-0.420	0.250	0.780
2020/01/31 02:59:48.2	92.260	-0.410	0.150	0.740
2020/01/31 02:59:48.3	92.260	-0.380	0.050	0.700
2020/01/31 02:59:48.4	92.260	-0.360	-0.050	0.660
2020/01/31 02:59:48.5	92.270	-0.330	-0.150	0.630
2020/01/31 02:59:48.6	92.270	-0.290	-0.250	0.590
2020/01/31 02:59:48.7	92.270	-0.260	-0.350	0.560
2020/01/31 02:59:48.8	92.280	-0.230	-0.440	0.530
2020/01/31 02:59:48.9	92.280	-0.190	-0.530	0.510
2020/01/31 02:59:49.0	92.290	-0.150	-0.620	0.480
2020/01/31 02:59:49.1	92.290	-0.110	-0.700	0.460
2020/01/31 02:59:49.2	92.300	-0.080	-0.770	0.440
2020/01/31 02:59:49.3	92.310	-0.040	-0.830	0.430
2020/01/31 02:59:49.4	92.320	-0.000	-0.880	0.420
2020/01/31 02:59:49.5	92.340	0.030	-0.920	0.410
2020/01/31 02:59:49.6	92.350	0.070	-0.960	0.400
2020/01/31 02:59:49.7	92.370	0.100	-0.980	0.400
2020/01/31 02:59:49.8	92.380	0.130	-0.990	0.400
2020/01/31 02:59:49.9	92.400	0.150	-0.990	0.410
2020/01/31 02:59:50.0	92.430	0.170	-0.990	0.410
2020/01/31 02:59:50.1	92.450	0.190	-0.970	0.420
2020/01/31 02:59:50.2	92.470	0.210	-0.940	0.430
2020/01/31 02:59:50.3	92.500	0.220	-0.910	0.440
2020/01/31 02:59:50.4	92.530	0.230	-0.860	0.460
2020/01/31 02:59:50.5	92.550	0.240	-0.810	0.470
2020/01/31 02:59:50.6	92.580	0.240	-0.760	0.490
2020/01/31 02:59:50.7	92.610	0.240	-0.690	0.510
2020/01/31 02:59:50.8	92.640	0.240	-0.630	0.530
2020/01/31 02:59:50.9	92.670	0.230	-0.550	0.550
2020/01/31 02:59:51.0	92.690	0.220	-0.480	0.580
2020/01/31 02:59:51.1	92.720	0.200	-0.400	0.600
2020/01/31 02:59:51.2	92.740	0.180	-0.310	0.620
2020/01/31 02:59:51.3	92.770	0.160	-0.230	0.640
2020/01/31 02:59:51.4	92.790	0.140	-0.140	0.670
2020/01/31 02:59:51.5	92.810	0.110	-0.060	0.690
2020/01/31 02:59:51.6	92.830	0.090	0.030	0.710
2020/01/31 02:59:51.7	92.850	0.060	0.110	0.730
2020/01/31 02:59:51.8	92.860	0.030	0.190	0.750
2020/01/31 02:59:51.9	92.880	-0.000	0.260	0.770
2020/01/31 02:59:52.0	92.890	-0.040	0.340	0.790
2020/01/31 02:59:52.1	92.900	-0.070	0.400	0.810
2020/01/31 02:59:52.2	92.900	-0.100	0.460	0.820
2020/01/31 02:59:52.3	92.900	-0.130	0.520	0.840
2020/01/31 02:59:52.4	92.900	-0.160	0.560	0.850
2020/01/31 02:59:52.5	92.900	-0.190	0.600	0.870
2020/01/31 02:59:52.6	92.890	-0.220	0.630	0.880
2020/01/31 02:59:52.7	92.890	-0.240	0.650	0.890
2020/01/31 02:59:52.8	92.880	-0.260	0.670	0.900
2020/01/31 02:59:52.9	92.860	-0.280	0.670	0.900
2020/01/31 02:59:53.0	92.850	-0.300	0.660	0.910
2020/01/31 02:59:53.1	92.830	-0.310	0.650	0.910
2020/01/31 02:59:53.2	92.820	-0.320	0.620	0.910
2020/01/31 02:59:53.3	92.800	-0.330	0.590	0.910
2020/01/31 02:59:53.4	92.780	-0.330	0.550	0.910
2020/01/31 02:59:53.5	92.760	-0.330	0.500	0.910
2020/01/31 02:59:53.6	92.740	-0.330	0.440	0.900
2020/01/31 02:59:53.7	92.710	-0.320	0.380	0.900
2020/01/31 02:59:53.8	92.690	-0.310	0.310	0.900
2020/01/31 02:59:53.9	92.670	-0.300	0.230	0.900
2020/01/31 02:59:54.0	92.640	-0.280	0.150	0.890
2020/01/31 02:59:54.1	92.620	-0.270	0.070	0.890
2020/01/31 02:59:54.2	92.590	-0.250	-0.020	0.880
2020/01/31 02:59:54.3	92.570	-0.220	-0.100	0.880
2020/01/31 02:59:54.4	92.550	-0.200	-0.190	0.880
2020/01/31 02:59:54.5	92.530	-0.170	-0.280	0.880
2020/01/31 02:59:54.6	92.510	-0.140	-0.360	0.870
2020/01/31 02:59:54.7	92.490	-0.120	-0.450	0.870
2020/01/31 02:59:54.8	92.480	-0.090	-0.530	0.870
2020/01/31 02:59:54.9	92.460	-0.060	-0.610	0.860
2020/01/31 02:59:55.0	92.450	-0.030	-0.680	0.860
2020/01/31 02:59:55.1	92.440	-0.000	-0.750	0.850
2020/01/31 02:59:55.2	92.430	0.030	-0.810	0.840
2020/01/31 02:59:55.3	92.430	0.050	-0.860	0.820
2020/01/31 02:59:55.4	92.420	0.080	-0.910	0.810
2020/01/31 02:59:55.5	92.420	0.100	-0.950	0.790
2020/01/31 02:59:55.6	92.430	0.120	-0.990	0.770
2020/01/31 02:59:55.7	92.430	0.140	-1.020	0.750
2020/01/31 02:59:55.8	92.440	0.160	-1.040	0.730
2020/01/31 02:59:55.9	92.450	0.170	-1.050	0.700
2020/01/31 02:59:56.0	92.460	0.190	-1.050	0.680
2020/01/31 02:59:56.1	92.470	0.200	-1.050	0.640
2020/01/31 02:59:56.2	92.490	0.210	-1.040	0.610
2020/01/31 02:59:56.3	92.500	0.210	-1.030	0.580
2020/01/31 02:59:56.4	92.520	0.210	-1.000	0.550
2020/01/31 02:59:56.5	92.540	0.220	-0.970	0.520
2020/01/31 02:59:56.6	92.560	0.220	-0.940	0.490
2020/01/31 02:59:56.7	92.580	0.210	-0.900	0.470
2020/01/31 02:59:56.8	92.600	0.210	-0.860	0.440
2020/01/31 02:59:56.9	92.620	0.200	-0.810	0.420
2020/01/31 02:59:57.0	92.640	0.200	-0.760	0.400
2020/01/31 02:59:57.1	92.650	0.190	-0.700	0.390
2020/01/31 02:59:57.2	92.670	0.180	-0.640	0.380
2020/01/31 02:59:57.3	92.680	0.170	-0.580	0.370
2020/01/31 02:59:57.4	92.700	0.160	-0.520	0.370
2020/01/31 02:59:57.5	92.710	0.150	-0.460	0.380
2020/01/31 02:59:57.6	92.720	0.140	-0.400	0.390
2020/01/31 02:59:57.7	92.720	0.130	-0.350	0.400
2020/01/31 02:59:57.8	92.730	0.120	-0.290	0.420
2020/01/31 02:59:57.9	92.730	0.110	-0.240	0.450
2020/01/31 02:59:58.0	92.720	0.100	-0.190	0.480
2020/01/31 02:59:58.1	92.710	0.090	-0.140	0.510
2020/01/31 02:59:58.2	92.710	0.090	-0.090	0.540
2020/01/31 02:59:58.3	92.700	0.080	-0.060	0.580
2020/01/31 02:59:58.4	92.680	0.080	-0.020	0.620
2020/01/31 02:59:58.5	92.670	0.080	0.010	0.650
2020/01/31 02:59:58.6	92.660	0.070	0.030	0.690
2020/01/31 02:59:58.7	92.640	0.070	0.050	0.720
2020/01/31 02:59:58.8	92.630	0.070	0.070	0.750
2020/01/31 02:59:58.9	92.610	0.070	0.080	0.770
2020/01/31 02:59:59.0	92.600	0.080	0.090	0.790
2020/01/31 02:59:59.1	92.590	0.080	0.090	0.810
2020/01/31 02:59:59.2	92.580	0.080	0.090	0.820
2020/01/31 02:59:59.3	92.570	0.080	0.090	0.820
2020/01/31 02:59:59.4	92.570	0.090	0.080	0.820
2020/01/31 02:59:59.5	92.570	0.090	0.080	0.820
2020/01/31 02:59:59.6	92.570	0.090	0.070	0.820
2020/01/31 02:59:59.7	92.570	0.090	0.060	0.810
2020/01/31 02:59:59.8	92.570	0.090	0.050	0.790
2020/01/31 02:59:59.9	92.580	0.090	0.040	0.780
2020/01/31 03:00:00.0	92.580	0.090	0.030	0.760
2020/01/31 03:00:00.1	92.600	0.090	0.030	0.740
2020/01/31 03:00:00.2	92.600	0.090	0.020	0.720
2020/01/31 03:00:00.3	92.610	0.080	0.020	0.700
2020/01/31 03:00:00.4	92.620	0.080	0.020	0.690
2020/01/31 03:00:00.5	92.630	0.070	0.010	0.670
2020/01/31 03:00:00.6	92.640	0.060	0.010	0.650
2020/01/31 03:00:00.7	92.650	0.050	0.020	0.640
2020/01/31 03:00:00.8	92.660	0.040	0.020	0.620
2020/01/31 03:00:00.9	92.660	0.020	0.030	0.610
2020/01/31 03:00:01.0	92.670	0.010	0.040	0.600
2020/01/31 03:00:01.1	92.680	-0.010	0.050	0.590
2020/01/31 03:00:01.2	92.680	-0.020	0.060	0.580
2020/01/31 03:00:01.3	92.690	-0.040	0.070	0.570
2020/01/31 03:00:01.4	92.700	-0.050	0.080	0.570
2020/01/31 03:00:01.5	92.700	-0.070	0.100	0.560
2020/01/31 03:00:01.6	92.710	-0.090	0.110	0.560
2020/01/31 03:00:01.7	92.710	-0.100	0.130	0.560
2020/01/31 03:00:01.8	92.710	-0.120	0.140	0.550
2020/01/31 03:00:01.9	92.720	-0.130	0.150	0.550
2020/01/31 03:00:02.0	92.720	-0.150	0.160	0.550
2020/01/31 03:00:02.1	92.720	-0.160	0.160	0.540
2020/01/31 03:00:02.2	92.720	-0.170	0.170	0.540
2020/01/31 03:00:02.3	92.720	-0.180	0.170	0.540
2020/01/31 03:00:02.4	92.720	-0.190	0.170	0.540
2020/01/31 03:00:02.5	92.720	-0.190	0.160	0.540
2020/01/31 03:00:02.6	92.720	-0.190	0.150	0.530
2020/01/31 03:00:02.7	92.720	-0.190	0.140	0.530
2020/01/31 03:00:02.8	92.730	-0.190	0.120	0.530
2020/01/31 03:00:02.9	92.730	-0.190	0.090	0.520
2020/01/31 03:00:03.0	92.730	-0.180	0.070	0.520
2020/01/31 03:00:03.1	92.730	-0.170	0.040	0.520
2020/01/31 03:00:03.2	92.730	-0.160	0.000	0.510
2020/01/31 03:00:03.3	92.730	-0.150	-0.040	0.510
2020/01/31 03:00:03.4	92.730	-0.130	-0.080	0.510
2020/01/31 03:00:03.5	92.730	-0.110	-0.130	0.510
2020/01/31 03:00:03.6	92.730	-0.100	-0.180	0.510
2020/01/31 03:00:03.7	92.730	-0.080	-0.230	0.510
2020/01/31 03:00:03.8	92.730	-0.060	-0.280	0.510
2020/01/31 03:00:03.9	92.730	-0.040	-0.330	0.520
2020/01/31 03:00:04.0	92.730	-0.020	-0.380	0.530
2020/01/31 03:00:04.1	92.730	0.000	-0.440	0.530
2020/01/31 03:00:04.2	92.730	0.020	-0.480	0.540
2020/01/31 03:00:04.3	92.730	0.040	-0.530	0.550
2020/01/31 03:00:04.4	92.730	0.060	-0.580	0.570
2020/01/31 03:00:04.5	92.730	0.070	-0.620	0.580
2020/01/31 03:00:04.6	92.730	0.090	-0.660	0.600
2020/01/31 03:00:04.7	92.730	0.100	-0.690	0.620
2020/01/31 03:00:04.8	92.730	0.110	-0.720	0.640
2020/01/31 03:00:04.9	92.730	0.120	-0.740	0.660
2020/01/31 03:00:05.0	92.730	0.130	-0.760	0.680
2020/01/31 03:00:05.1	92.730	0.130	-0.780	0.700
2020/01/31 03:00:05.2	92.730	0.130	-0.780	0.730
2020/01/31 03:00:05.3	92.730	0.130	-0.790	0.750
2020/01/31 03:00:05.4	92.730	0.130	-0.780	0.770
2020/01/31 03:00:05.5	92.740	0.130	-0.770	0.790
2020/01/31 03:00:05.6	92.740	0.130	-0.760	0.820
2020/01/31 03:00:05.7	92.740	0.120	-0.740	0.840
2020/01/31 03:00:05.8	92.750	0.110	-0.710	0.860
2020/01/31 03:00:05.9	92.750	0.100	-0.680	0.880
2020/01/31 03:00:06.0	92.750	0.100	-0.650	0.900
2020/01/31 03:00:06.1	92.760	0.090	-0.610	0.910
2020/01/31 03:00:06.2	92.770	0.070	-0.560	0.930
2020/01/31 03:00:06.3	92.770	0.060	-0.510	0.940
2020/01/31 03:00:06.4	92.770	0.050	-0.460	0.960
2020/01/31 03:00:06.5	92.780	0.040	-0.410	0.970
2020/01/31 03:00:06.6	92.780	0.030	-0.350	0.990
2020/01/31 03:00:06.7	92.780	0.020	-0.290	1.000
2020/01/31 03:00:06.8	92.780	0.010	-0.230	1.010
2020/01/31 03:00:06.9	92.780	-0.000	-0.180	1.020
2020/01/31 03:00:07.0	92.780	-0.010	-0.120	1.030
2020/01/31 03:00:07.1	92.770	-0.020	-0.060	1.040
2020/01/31 03:00:07.2	92.760	-0.030	-0.000	1.050
2020/01/31 03:00:07.3	92.760	-0.040	0.050	1.050
2020/01/31 03:00:07.4	92.750	-0.050	0.090	1.060
2020/01/31 03:00:07.5	92.750	-0.050	0.140	1.060
2020/01/31 03:00:07.6	92.740	-0.060	0.180	1.070
2020/01/31 03:00:07.7	92.730	-0.060	0.210	1.070
2020/01/31 03:00:07.8	92.720	-0.060	0.230	1.070
2020/01/31 03:00:07.9	92.710	-0.060	0.250	1.070
2020/01/31 03:00:08.0	92.700	-0.060	0.260	1.070
2020/01/31 03:00:08.1	92.700	-0.060	0.260	1.070
2020/01/31 03:00:08.2	92.690	-0.060	0.260	1.070
2020/01/31 03:00:08.3	92.680	-0.050	0.240	1.060
2020/01/31 03:00:08.4	92.670	-0.040	0.220	1.060
2020/01/31 03:00:08.5	92.660	-0.030	0.200	1.060
2020/01/31 03:00:08.6	92.650	-0.020	0.160	1.060
2020/01/31 03:00:08.7	92.640	-0.010	0.120	1.060
2020/01/31 03:00:08.8	92.630	-0.000	0.070	1.050
2020/01/31 03:00:08.9	92.620	0.010	0.020	1.050
2020/01/31 03:00:09.0	92.610	0.020	-0.030	1.050
2020/01/31 03:00:09.1	92.590	0.040	-0.090	1.050
2020/01/31 03:00:09.2	92.580	0.050	-0.150	1.050
2020/01/31 03:00:09.3	92.570	0.060	-0.200	1.060
2020/01/31 03:00:09.4	92.560	0.070	-0.260	1.060
2020/01/31 03:00:09.5	92.560	0.080	-0.310	1.060
2020/01/31 03:00:09.6	92.550	0.090	-0.360	1.060
2020/01/31 03:00:09.7	92.540	0.090	-0.410	1.060
2020/01/31 03:00:09.8	92.540	0.090	-0.450	1.060
2020/01/31 03:00:09.9	92.530	0.090	-0.490	1.060
2020/01/31 03:00:10.0	92.530	0.090	-0.520	1.050
2020/01/31 03:00:10.1	92.530	0.090	-0.550	1.050
2020/01/31 03:00:10.2	92.520	0.080	-0.570	1.040
2020/01/31 03:00:10.3	92.520	0.070	-0.580	1.030
2020/01/31 03:00:10.4	92.520	0.060	-0.590	1.020
2020/01/31 03:00:10.5	92.520	0.040	-0.590	1.010
2020/01/31 03:00:10.6	92.530	0.020	-0.580	0.990
2020/01/31 03:00:10.7	92.530	0.000	-0.570	0.980
2020/01/31 03:00:10.8	92.530	-0.020	-0.560	0.960
2020/01/31 03:00:10.9	92.540	-0.040	-0.530	0.940
2020/01/31 03:00:11.0	92.540	-0.060	-0.510	0.920
2020/01/31 03:00:11.1	92.550	-0.090	-0.480	0.890
2020/01/31 03:00:11.2	92.560	-0.110	-0.440	0.870
2020/01/31 03:00:11.3	92.560	-0.140	-0.410	0.850
2020/01/31 03:00:11.4	92.570	-0.170	-0.370	0.830
2020/01/31 03:00:11.5	92.580	-0.190	-0.330	0.800
2020/01/31 03:00:11.6	92.580	-0.210	-0.290	0.780
2020/01/31 03:00:11.7	92.590	-0.240	-0.250	0.770
2020/01/31 03:00:11.8	92.600	-0.260	-0.210	0.750
2020/01/31 03:00:11.9	92.600	-0.280	-0.170	0.740
2020/01/31 03:00:12.0	92.610	-0.290	-0.140	0.730
2020/01/31 03:00:12.1	92.620	-0.300	-0.110	0.720
2020/01/31 03:00:12.2	92.630	-0.310	-0.080	0.710
2020/01/31 03:00:12.3	92.630	-0.320	-0.050	0.710
2020/01/31 03:00:12.4	92.640	-0.320	-0.040	0.710
2020/01/31 03:00:12.5	92.650	-0.320	-0.020	0.720
2020/01/31 03:00:12.6	92.650	-0.320	-0.010	0.730
2020/01/31 03:00:12.7	92.660	-0.310	-0.010	0.740
2020/01/31 03:00:12.8	92.660	-0.300	-0.010	0.750
2020/01/31 03:00:12.9	92.670	-0.290	-0.020	0.770
2020/01/31 03:00:13.0	92.670	-0.270	-0.030	0.780
2020/01/31 03:00:13.1	92.670	-0.250	-0.050	0.800
2020/01/31 03:00:13.2	92.670	-0.220	-0.070	0.820
2020/01/31 03:00:13.3	92.670	-0.200	-0.100	0.840
2020/01/31 03:00:13.4	92.670	-0.170	-0.120	0.860
2020/01/31 03:00:13.5	92.670	-0.140	-0.160	0.880
2020/01/31 03:00:13.6	92.660	-0.100	-0.190	0.900
2020/01/31 03:00:13.7	92.650	-0.070	-0.230	0.920
2020/01/31 03:00:13.8	92.650	-0.040	-0.260	0.930
2020/01/31 03:00:13.9	92.640	-0.000	-0.300	0.940
2020/01/31 03:00:14.0	92.630	0.030	-0.330	0.950
2020/01/31 03:00:14.1	92.620	0.070	-0.370	0.960
2020/01/31 03:00:14.2	92.610	0.100	-0.400	0.960
2020/01/31 03:00:14.3	92.600	0.130	-0.430	0.960
2020/01/31 03:00:14.4	92.590	0.160	-0.450	0.960
2020/01/31 03:00:14.5	92.580	0.190	-0.480	0.960
2020/01/31 03:00:14.6	92.570	0.220	-0.490	0.950
2020/01/31 03:00:14.7	92.560	0.240	-0.510	0.950
2020/01/31 03:00:14.8	92.550	0.260	-0.510	0.940
2020/01/31 03:00:14.9	92.540	0.280	-0.510	0.930
2020/01/31 03:00:15.0	92.530	0.290	-0.510	0.920
2020/01/31 03:00:15.1	92.520	0.310	-0.500	0.920
2020/01/31 03:00:15.2	92.510	0.320	-0.490	0.910
2020/01/31 03:00:15.3	92.500	0.320	-0.470	0.910
2020/01/31 03:00:15.4	92.500	0.330	-0.440	0.900
2020/01/31 03:00:15.5	92.490	0.330	-0.410	0.900
2020/01/31 03:00:15.6	92.480	0.320	-0.370	0.900
2020/01/31 03:00:15.7	92.480	0.320	-0.330	0.890
2020/01/31 03:00:15.8	92.480	0.310	-0.280	0.890
2020/01/31 03:00:15.9	92.470	0.290	-0.230	0.890
2020/01/31 03:00:16.0	92.470	0.280	-0.180	0.890
2020/01/31 03:00:16.1	92.480	0.260	-0.120	0.890
2020/01/31 03:00:16.2	92.480	0.240	-0.060	0.880
2020/01/31 03:00:16.3	92.490	0.210	-0.000	0.880
2020/01/31 03:00:16.4	92.490	0.190	0.060	0.880
2020/01/31 03:00:16.5	92.500	0.160	0.120	0.870
2020/01/31 03:00:16.6	92.510	0.130	0.180	0.870
2020/01/31 03:00:16.7	92.520	0.100	0.230	0.860
2020/01/31 03:00:16.8	92.530	0.070	0.290	0.850
2020/01/31 03:00:16.9	92.540	0.040	0.330	0.840
2020/01/31 03:00:17.0	92.560	0.010	0.380	0.820
2020/01/31 03:00:17.1	92.570	-0.030	0.420	0.800
2020/01/31 03:00:17.2	92.580	-0.060	0.450	0.780
2020/01/31 03:00:17.3	92.600	-0.080	0.470	0.750
2020/01/31 03:00:17.4	92.620	-0.110	0.490	0.730
2020/01/31 03:00:17.5	92.640	-0.140	0.500	0.700
2020/01/31 03:00:17.6	92.660	-0.160	0.510	0.670
2020/01/31 03:00:17.7	92.670	-0.180	0.500	0.630
2020/01/31 03:00:17.8	92.690	-0.200	0.490	0.600
2020/01/31 03:00:17.9	92.710	-0.210	0.470	0.570
2020/01/31 03:00:18.0	92.730	-0.220	0.440	0.530
2020/01/31 03:00:18.1	92.740	-0.230	0.400	0.500
2020/01/31 03:00:18.2	92.760	-0.230	0.360	0.470
2020/01/31 03:00:18.3	92.780	-0.230	0.310	0.440
2020/01/31 03:00:18.4	92.790	-0.220	0.260	0.410
2020/01/31 03:00:18.5	92.810	-0.220	0.200	0.390
2020/01/31 03:00:18.6	92.820	-0.210	0.130	0.360
2020/01/31 03:00:18.7	92.840	-0.190	0.070	0.340
2020/01/31 03:00:18.8	92.850	-0.170	-0.010	0.320
2020/01/31 03:00:18.9	92.860	-0.150	-0.080	0.310
2020/01/31 03:00:19.0	92.880	-0.130	-0.150	0.300
2020/01/31 03:00:19.1	92.880	-0.110	-0.230	0.280
2020/01/31 03:00:19.2	92.890	-0.080	-0.300	0.270
2020/01/31 03:00:19.3	92.900	-0.050	-0.370	0.270
2020/01/31 03:00:19.4	92.910	-0.020	-0.440	0.270
2020/01/31 03:00:19.5	92.920	0.010	-0.510	0.280
2020/01/31 03:00:19.6	92.930	0.040	-0.570	0.290
2020/01/31 03:00:19.7	92.930	0.070	-0.630	0.300
2020/01/31 03:00:19.8	92.940	0.100	-0.690	0.310
2020/01/31 03:00:19.9	92.940	0.130	-0.740	0.330
2020/01/31 03:00:20.0	92.950	0.160	-0.780	0.350
2020/01/31 03:00:20.1	92.950	0.180	-0.820	0.380
2020/01/31 03:00:20.2	92.950	0.210	-0.850	0.400
2020/01/31 03:00:20.3	92.950	0.230	-0.880	0.430
2020/01/31 03:00:20.4	92.950	0.250	-0.890	0.460
2020/01/31 03:00:20.5	92.950	0.260	-0.900	0.490
2020/01/31 03:00:20.6	92.950	0.270	-0.900	0.520
2020/01/31 03:00:20.7	92.950	0.280	-0.890	0.540
2020/01/31 03:00:20.8	92.950	0.280	-0.880	0.570
2020/01/31 03:00:20.9	92.950	0.280	-0.860	0.600
2020/01/31 03:00:21.0	92.950	0.270	-0.830	0.620
2020/01/31 03:00:21.1	92.940	0.260	-0.800	0.650
2020/01/31 03:00:21.2	92.940	0.250	-0.760	0.670
2020/01/31 03:00:21.3	92.940	0.230	-0.710	0.690
2020/01/31 03:00:21.4	92.930	0.210	-0.660	0.710
2020/01/31 03:00:21.5	92.930	0.190	-0.610	0.730
2020/01/31 03:00:21.6	92.930	0.160	-0.550	0.740
2020/01/31 03:00:21.7	92.920	0.130	-0.500	0.760
2020/01/31 03:00:21.8	92.920	0.090	-0.440	0.770
2020/01/31 03:00:21.9	92.910	0.060	-0.380	0.780
2020/01/31 03:00:22.0	92.900	0.020	-0.310	0.790
2020/01/31 03:00:22.1	92.900	-0.020	-0.250	0.800
2020/01/31 03:00:22.2	92.900	-0.060	-0.190	0.800
2020/01/31 03:00:22.3	92.890	-0.100	-0.140	0.810
2020/01/31 03:00:22.4	92.880	-0.140	-0.080	0.820
2020/01/31 03:00:22.5	92.870	-0.180	-0.030	0.830
2020/01/31 03:00:22.6	92.860	-0.210	0.020	0.830
2020/01/31 03:00:22.7	92.850	-0.250	0.070	0.840
2020/01/31 03:00:22.8	92.840	-0.280	0.110	0.850
2020/01/31 03:00:22.9	92.830	-0.320	0.150	0.850
2020/01/31 03:00:23.0	92.830	-0.340	0.180	0.860
2020/01/31 03:00:23.1	92.810	-0.370	0.210	0.860
2020/01/31 03:00:23.2	92.800	-0.390	0.240	0.860
2020/01/31 03:00:23.3	92.790	-0.410	0.250	0.860
2020/01/31 03:00:23.4	92.790	-0.430	0.260	0.860
2020/01/31 03:00:23.5	92.780	-0.440	0.270	0.860
2020/01/31 03:00:23.6	92.770	-0.440	0.270	0.860
2020/01/31 03:00:23.7	92.760	-0.440	0.260	0.850
2020/01/31 03:00:23.8	92.760	-0.440	0.250	0.850
2020/01/31 03:00:23.9	92.750	-0.430	0.230	0.840
2020/01/31 03:00:24.0	92.750	-0.420	0.200	0.830
2020/01/31 03:00:24.1	92.740	-0.400	0.170	0.810
2020/01/31 03:00:24.2	92.740	-0.380	0.130	0.800
2020/01/31 03:00:24.3	92.740	-0.360	0.090	0.780
2020/01/31 03:00:24.4	92.730	-0.330	0.040	0.760
2020/01/31 03:00:24.5	92.730	-0.290	-0.020	0.740
2020/01/31 03:00:24.6	92.720	-0.250	-0.070	0.710
2020/01/31 03:00:24.7	92.720	-0.210	-0.140	0.690
2020/01/31 03:00:24.8	92.720	-0.170	-0.200	0.660
2020/01/31 03:00:24.9	92.710	-0.120	-0.270	0.630
2020/01/31 03:00:25.0	92.710	-0.070	-0.340	0.600
2020/01/31 03:00:25.1	92.710	-0.010	-0.420	0.570
2020/01/31 03:00:25.2	92.710	0.040	-0.490	0.540
2020/01/31 03:00:25.3	92.700	0.100	-0.560	0.510
2020/01/31 03:00:25.4	92.700	0.150	-0.630	0.480
2020/01/31 03:00:25.5	92.700	0.210	-0.700	0.460
2020/01/31 03:00:25.6	92.700	0.260	-0.760	0.430
2020/01/31 03:00:25.7	92.690	0.320	-0.820	0.410
2020/01/31 03:00:25.8	92.690	0.370	-0.880	0.390
2020/01/31 03:00:25.9	92.680	0.420	-0.930	0.370
2020/01/31 03:00:26.0	92.680	0.460	-0.970	0.360
2020/01/31 03:00:26.1	92.680	0.500	-1.010	0.350
2020/01/31 03:00:26.2	92.670	0.540	-1.040	0.340
2020/01/31 03:00:26.3	92.660	0.570	-1.060	0.330
2020/01/31 03:00:26.4	92.660	0.600	-1.070	0.320
2020/01/31 03:00:26.5	92.650	0.620	-1.060	0.320
2020/01/31 03:00:26.6	92.640	0.630	-1.050	0.320
2020/01/31 03:00:26.7	92.640	0.640	-1.030	0.320
2020/01/31 03:00:26.8	92.630	0.640	-1.000	0.320
2020/01/31 03:00:26.9	92.620	0.640	-0.960	0.330
2020/01/31 03:00:27.0	92.610	0.620	-0.910	0.340
2020/01/31 03:00:27.1	92.610	0.600	-0.850	0.340
2020/01/31 03:00:27.2	92.600	0.580	-0.780	0.350
2020/01/31 03:00:27.3	92.590	0.540	-0.710	0.360
2020/01/31 03:00:27.4	92.590	0.500	-0.630	0.370
2020/01/31 03:00:27.5	92.580	0.460	-0.540	0.380
2020/01/31 03:00:27.6	92.570	0.400	-0.440	0.400
2020/01/31 03:00:27.7	92.560	0.350	-0.340	0.410
2020/01/31 03:00:27.8	92.560	0.290	-0.240	0.420
2020/01/31 03:00:27.9	92.550	0.220	-0.130	0.440
2020/01/31 03:00:28.0	92.540	0.150	-0.020	0.450
2020/01/31 03:00:28.1	92.540	0.080	0.090	0.460
2020/01/31 03:00:28.2	92.530	0.000	0.200	0.480
2020/01/31 03:00:28.3	92.530	-0.080	0.300	0.490
2020/01/31 03:00:28.4	92.520	-0.150	0.410	0.510
2020/01/31 03:00:28.5	92.520	-0.230	0.510	0.520
2020/01/31 03:00:28.6	92.510	-0.310	0.600	0.540
2020/01/31 03:00:28.7	92.510	-0.380	0.700	0.560
2020/01/31 03:00:28.8	92.510	-0.460	0.780	0.580
2020/01/31 03:00:28.9	92.500	-0.530	0.860	0.590
2020/01/31 03:00:29.0	92.500	-0.590	0.920	0.610
2020/01/31 03:00:29.1	92.510	-0.650	0.990	0.630
2020/01/31 03:00:29.2	92.510	-0.710	1.030	0.650
2020/01/31 03:00:29.3	92.510	-0.760	1.070	0.670
2020/01/31 03:00:29.4	92.510	-0.800	1.100	0.690
2020/01/31 03:00:29.5	92.520	-0.840	1.110	0.710
2020/01/31 03:00:29.6	92.520	-0.870	1.110	0.730
2020/01/31 03:00:29.7	92.530	-0.900	1.100	0.750
2020/01/31 03:00:29.8	92.530	-0.910	1.080	0.770
2020/01/31 03:00:29.9	92.540	-0.920	1.050	0.790
2020/01/31 03:00:30.0	92.550	-0.920	1.000	0.810
2020/01/31 03:00:30.1	92.550	-0.910	0.940	0.830
2020/01/31 03:00:30.2	92.570	-0.890	0.870	0.850
2020/01/31 03:00:30.3	92.580	-0.870	0.790	0.870
2020/01/31 03:00:30.4	92.590	-0.840	0.700	0.880
2020/01/31 03:00:30.5	92.600	-0.800	0.600	0.900
2020/01/31 03:00:30.6	92.620	-0.750	0.490	0.910
2020/01/31 03:00:30.7	92.630	-0.690	0.380	0.920
2020/01/31 03:00:30.8	92.640	-0.630	0.250	0.940
2020/01/31 03:00:30.9	92.660	-0.570	0.130	0.950
2020/01/31 03:00:31.0	92.670	-0.500	-0.010	0.950
2020/01/31 03:00:31.1	92.690	-0.420	-0.140	0.960
2020/01/31 03:00:31.2	92.700	-0.340	-0.280	0.970
2020/01/31 03:00:31.3	92.710	-0.260	-0.410	0.970
2020/01/31 03:00:31.4	92.720	-0.180	-0.550	0.980
2020/01/31 03:00:31.5	92.730	-0.090	-0.680	0.980
2020/01/31 03:00:31.6	92.740	-0.010	-0.810	0.990
2020/01/31 03:00:31.7	92.740	0.080	-0.930	0.990
2020/01/31 03:00:31.8	92.750	0.160	-1.050	0.990
2020/01/31 03:00:31.9	92.750	0.240	-1.150	0.990
2020/01/31 03:00:32.0	92.740	0.320	-1.250	1.000
2020/01/31 03:00:32.1	92.740	0.400	-1.340	0.990
2020/01/31 03:00:32.2	92.740	0.470	-1.410	1.000
2020/01/31 03:00:32.3	92.730	0.530	-1.470	1.000
2020/01/31 03:00:32.4	92.720	0.590	-1.520	1.000
2020/01/31 03:00:32.5	92.710	0.640	-1.550	1.000
2020/01/31 03:00:32.6	92.700	0.690	-1.570	1.000
2020/01/31 03:00:32.7	92.680	0.730	-1.580	1.000
2020/01/31 03:00:32.8	92.670	0.760	-1.570	1.000
2020/01/31 03:00:32.9	92.650	0.790	-1.540	1.000
2020/01/31 03:00:33.0	92.630	0.810	-1.500	1.000
2020/01/31 03:00:33.1	92.620	0.820	-1.450	1.000
2020/01/31 03:00:33.2	92.600	0.820	-1.380	1.000
2020/01/31 03:00:33.3	92.580	0.810	-1.300	1.000
2020/01/31 03:00:33.4	92.560	0.800	-1.210	1.000
2020/01/31 03:00:33.5	92.540	0.770	-1.110	1.010
2020/01/31 03:00:33.6	92.520	0.750	-1.000	1.010
2020/01/31 03:00:33.7	92.500	0.710	-0.880	1.010
2020/01/31 03:00:33.8	92.480	0.670	-0.750	1.010
2020/01/31 03:00:33.9	92.470	0.630	-0.620	1.000
2020/01/31 03:00:34.0	92.450	0.580	-0.490	1.000
2020/01/31 03:00:34.1	92.430	0.520	-0.350	0.990
2020/01/31 03:00:34.2	92.420	0.460	-0.210	0.990
2020/01/31 03:00:34.3	92.400	0.400	-0.080	0.990
2020/01/31 03:00:34.4	92.390	0.340	0.050	0.980
2020/01/31 03:00:34.5	92.380	0.270	0.180	0.970
2020/01/31 03:00:34.6	92.370	0.210	0.310	0.960
2020/01/31 03:00:34.7	92.360	0.140	0.420	0.950
2020/01/31 03:00:34.8	92.350	0.080	0.530	0.930
2020/01/31 03:00:34.9	92.340	0.020	0.630	0.920
2020/01/31 03:00:35.0	92.340	-0.040	0.720	0.900
2020/01/31 03:00:35.1	92.330	-0.100	0.800	0.880
2020/01/31 03:00:35.2	92.330	-0.160	0.860	0.850
2020/01/31 03:00:35.3	92.330	-0.210	0.920	0.820
2020/01/31 03:00:35.4	92.320	-0.260	0.960	0.790
2020/01/31 03:00:35.5	92.320	-0.300	0.980	0.760
2020/01/31 03:00:35.6	92.330	-0.330	0.990	0.730
2020/01/31 03:00:35.7	92.330	-0.360	0.990	0.690
2020/01/31 03:00:35.8	92.330	-0.390	0.980	0.650
2020/01/31 03:00:35.9	92.330	-0.410	0.950	0.620
2020/01/31 03:00:36.0	92.340	-0.420	0.900	0.580
2020/01/31 03:00:36.1	92.350	-0.430	0.850	0.540
2020/01/31 03:00:36.2	92.350	-0.430	0.780	0.510
2020/01/31 03:00:36.3	92.360	-0.420	0.710	0.470
2020/01/31 03:00:36.4	92.360	-0.410	0.620	0.440
2020/01/31 03:00:36.5	92.360	-0.400	0.530	0.400
2020/01/31 03:00:36.6	92.370	-0.380	0.430	0.370
2020/01/31 03:00:36.7	92.370	-0.360	0.320	0.340
2020/01/31 03:00:36.8	92.380	-0.330	0.200	0.310
2020/01/31 03:00:36.9	92.380	-0.300	0.090	0.290
2020/01/31 03:00:37.0	92.380	-0.260	-0.030	0.260
2020/01/31 03:00:37.1	92.390	-0.230	-0.150	0.240
2020/01/31 03:00:37.2	92.390	-0.190	-0.260	0.220
2020/01/31 03:00:37.3	92.380	-0.160	-0.370	0.210
2020/01/31 03:00:37.4	92.380	-0.120	-0.480	0.190
2020/01/31 03:00:37.5	92.380	-0.080	-0.580	0.190
2020/01/31 03:00:37.6	92.380	-0.050	-0.670	0.180
2020/01/31 03:00:37.7	92.380	-0.020	-0.760	0.180
2020/01/31 03:00:37.8	92.370	0.010	-0.830	0.190
2020/01/31 03:00:37.9	92.360	0.040	-0.900	0.200
2020/01/31 03:00:38.0	92.360	0.060	-0.960	0.210
2020/01/31 03:00:38.1	92.350	0.080	-1.010	0.220
2020/01/31 03:00:38.2	92.340	0.100	-1.040	0.240
2020/01/31 03:00:38.3	92.330	0.110	-1.070	0.260
2020/01/31 03:00:38.4	92.320	0.120	-1.080	0.290
2020/01/31 03:00:38.5	92.320	0.120	-1.080	0.310
2020/01/31 03:00:38.6	92.310	0.120	-1.070	0.340
2020/01/31 03:00:38.7	92.300	0.110	-1.050	0.370
2020/01/31 03:00:38.8	92.290	0.100	-1.020	0.410
2020/01/31 03:00:38.9	92.290	0.090	-0.990	0.440
2020/01/31 03:00:39.0	92.280	0.070	-0.940	0.480
2020/01/31 03:00:39.1	92.280	0.050	-0.880	0.510
2020/01/31 03:00:39.2	92.280	0.030	-0.820	0.550
2020/01/31 03:00:39.3	92.280	0.010	-0.760	0.590
2020/01/31 03:00:39.4	92.280	-0.020	-0.690	0.630
2020/01/31 03:00:39.5	92.280	-0.050	-0.620	0.670
2020/01/31 03:00:39.6	92.290	-0.080	-0.540	0.710
2020/01/31 03:00:39.7	92.290	-0.110	-0.460	0.750
2020/01/31 03:00:39.8	92.300	-0.130	-0.390	0.780
2020/01/31 03:00:39.9	92.310	-0.160	-0.310	0.820
2020/01/31 03:00:40.0	92.320	-0.190	-0.240	0.850
2020/01/31 03:00:40.1	92.340	-0.210	-0.170	0.880
2020/01/31 03:00:40.2	92.350	-0.240	-0.100	0.900
2020/01/31 03:00:40.3	92.370	-0.260	-0.040	0.920
2020/01/31 03:00:40.4	92.380	-0.270	0.020	0.940
2020/01/31 03:00:40.5	92.400	-0.280	0.060	0.960
2020/01/31 03:00:40.6	92.420	-0.290	0.110	0.970
2020/01/31 03:00:40.7	92.440	-0.300	0.140	0.980
2020/01/31 03:00:40.8	92.460	-0.300	0.170	0.980
2020/01/31 03:00:40.9	92.480	-0.290	0.200	0.990
2020/01/31 03:00:41.0	92.490	-0.290	0.210	0.990
2020/01/31 03:00:41.1	92.510	-0.270	0.220	0.980
2020/01/31 03:00:41.2	92.530	-0.260	0.220	0.970
2020/01/31 03:00:41.3	92.540	-0.230	0.210	0.960
2020/01/31 03:00:41.4	92.560	-0.210	0.200	0.950
2020/01/31 03:00:41.5	92.570	-0.180	0.180	0.940
2020/01/31 03:00:41.6	92.590	-0.150	0.150	0.930
2020/01/31 03:00:41.7	92.600	-0.110	0.120	0.910
2020/01/31 03:00:41.8	92.610	-0.080	0.090	0.900
2020/01/31 03:00:41.9	92.620	-0.040	0.050	0.880
2020/01/31 03:00:42.0	92.630	0.010	0.010	0.860
2020/01/31 03:00:42.1	92.640	0.050	-0.040	0.850
2020/01/31 03:00:42.2	92.640	0.100	-0.090	0.830
2020/01/31 03:00:42.3	92.650	0.140	-0.140	0.820
2020/01/31 03:00:42.4	92.650	0.190	-0.190	0.810
2020/01/31 03:00:42.5	92.650	0.240	-0.240	0.800
2020/01/31 03:00:42.6	92.640	0.280	-0.290	0.790
2020/01/31 03:00:42.7	92.640	0.330	-0.340	0.790
2020/01/31 03:00:42.8	92.630	0.370	-0.390	0.790
2020/01/31 03:00:42.9	92.620	0.410	-0.430	0.790
2020/01/31 03:00:43.0	92.610	0.450	-0.480	0.790
2020/01/31 03:00:43.1	92.600	0.480	-0.510	0.790
2020/01/31 03:00:43.2	92.580	0.510	-0.540	0.790
2020/01/31 03:00:43.3	92.570	0.540	-0.570	0.800
2020/01/31 03:00:43.4	92.550	0.560	-0.590	0.800
2020/01/31 03:00:43.5	92.530	0.580	-0.600	0.810
2020/01/31 03:00:43.6	92.520	0.590	-0.600	0.820
2020/01/31 03:00:43.7	92.500	0.600	-0.600	0.830
2020/01/31 03:00:43.8	92.480	0.600	-0.590	0.830
2020/01/31 03:00:43.9	92.460	0.590	-0.570	0.840
2020/01/31 03:00:44.0	92.450	0.580	-0.540	0.850
2020/01/31 03:00:44.1	92.440	0.560	-0.510	0.850
2020/01/31 03:00:44.2	92.430	0.540	-0.470	0.850
2020/01/31 03:00:44.3	92.420	0.510	-0.420	0.850
2020/01/31 03:00:44.4	92.410	0.480	-0.370	0.850
2020/01/31 03:00:44.5	92.400	0.440	-0.310	0.850
2020/01/31 03:00:44.6	92.400	0.390	-0.240	0.850
2020/01/31 03:00:44.7	92.390	0.340	-0.180	0.840
2020/01/31 03:00:44.8	92.390	0.290	-0.110	0.830
2020/01/31 03:00:44.9	92.400	0.230	-0.040	0.820
2020/01/31 03:00:45.0	92.400	0.170	0.040	0.810
2020/01/31 03:00:45.1	92.400	0.110	0.110	0.790
2020/01/31 03:00:45.2	92.410	0.050	0.180	0.770
2020/01/31 03:00:45.3	92.420	-0.020	0.250	0.750
2020/01/31 03:00:45.4	92.430	-0.080	0.310	0.730
2020/01/31 03:00:45.5	92.450	-0.150	0.370	0.710
2020/01/31 03:00:45.6	92.470	-0.210	0.430	0.690
2020/01/31 03:00:45.7	92.490	-0.270	0.480	0.670
2020/01/31 03:00:45.8	92.510	-0.330	0.520	0.640
2020/01/31 03:00:45.9	92.540	-0.390	0.560	0.620
2020/01/31 03:00:46.0	92.560	-0.440	0.590	0.600
2020/01/31 03:00:46.1	92.580	-0.490	0.610	0.580
2020/01/31 03:00:46.2	92.610	-0.530	0.620	0.560
2020/01/31 03:00:46.3	92.630	-0.570	0.620	0.540
2020/01/31 03:00:46.4	92.660	-0.600	0.610	0.520
2020/01/31 03:00:46.5	92.680	-0.620	0.590	0.510
2020/01/31 03:00:46.6	92.710	-0.640	0.570	0.500
2020/01/31 03:00:46.7	92.730	-0.650	0.530	0.490
2020/01/31 03:00:46.8	92.750	-0.650	0.490	0.490
2020/01/31 03:00:46.9	92.770	-0.650	0.430	0.480
2020/01/31 03:00:47.0	92.790	-0.640	0.370	0.480
2020/01/31 03:00:47.1	92.800	-0.620	0.300	0.480
2020/01/31 03:00:47.2	92.810	-0.600	0.230	0.490
2020/01/31 03:00:47.3	92.820	-0.570	0.150	0.500
2020/01/31 03:00:47.4	92.840	-0.540	0.070	0.510
2020/01/31 03:00:47.5	92.840	-0.500	-0.010	0.520
2020/01/31 03:00:47.6	92.850	-0.460	-0.100	0.540
2020/01/31 03:00:47.7	92.850	-0.410	-0.190	0.550
2020/01/31 03:00:47.8	92.860	-0.360	-0.280	0.570
2020/01/31 03:00:47.9	92.860	-0.310	-0.360	0.590
2020/01/31 03:00:48.0	92.850	-0.250	-0.450	0.620
2020/01/31 03:00:48.1	92.850	-0.200	-0.540	0.640
2020/01/31 03:00:48.2	92.840	-0.140	-0.620	0.670
2020/01/31 03:00:48.3	92.830	-0.080	-0.690	0.700
2020/01/31 03:00:48.4	92.820	-0.020	-0.770	0.730
2020/01/31 03:00:48.5	92.810	0.030	-0.840	0.760
2020/01/31 03:00:48.6	92.790	0.090	-0.900	0.790
2020/01/31 03:00:48.7	92.780	0.140	-0.960	0.820
2020/01/31 03:00:48.8	92.760	0.190	-1.010	0.850
2020/01/31 03:00:48.9	92.740	0.240	-1.050	0.880
2020/01/31 03:00:49.0	92.730	0.290	-1.080	0.920
2020/01/31 03:00:49.1	92.710	0.330	-1.110	0.950
2020/01/31 03:00:49.2	92.690	0.360	-1.130	0.980
2020/01/31 03:00:49.3	92.680	0.390	-1.140	1.010
2020/01/31 03:00:49.4	92.670	0.420	-1.140	1.040
2020/01/31 03:00:49.5	92.650	0.440	-1.130	1.060
2020/01/31 03:00:49.6	92.640	0.450	-1.120	1.090
2020/01/31 03:00:49.7	92.620	0.470	-1.090	1.120
2020/01/31 03:00:49.8	92.610	0.470	-1.060	1.150
2020/01/31 03:00:49.9	92.600	0.470	-1.020	1.170
2020/01/31 03:00:50.0	92.590	0.470	-0.970	1.190
2020/01/31 03:00:50.1	92.570	0.460	-0.910	1.210
2020/01/31 03:00:50.2	92.560	0.440	-0.850	1.230
2020/01/31 03:00:50.3	92.550	0.430	-0.790	1.250
2020/01/31 03:00:50.4	92.540	0.400	-0.720	1.260
2020/01/31 03:00:50.5	92.540	0.380	-0.650	1.270
2020/01/31 03:00:50.6	92.530	0.350	-0.570	1.280
2020/01/31 03:00:50.7	92.520	0.320	-0.490	1.280
2020/01/31 03:00:50.8	92.520	0.280	-0.420	1.280
2020/01/31 03:00:50.9	92.510	0.250	-0.340	1.270
2020/01/31 03:00:51.0	92.510	0.210	-0.260	1.270
2020/01/31 03:00:51.1	92.510	0.170	-0.190	1.250
2020/01/31 03:00:51.2	92.510	0.140	-0.110	1.240
2020/01/31 03:00:51.3	92.510	0.100	-0.040	1.210
2020/01/31 03:00:51.4	92.510	0.060	0.030	1.190
2020/01/31 03:00:51.5	92.510	0.030	0.090	1.160
2020/01/31 03:00:51.6	92.520	-0.010	0.150	1.130
2020/01/31 03:00:51.7	92.520	-0.040	0.200	1.090
2020/01/31 03:00:51.8	92.530	-0.060	0.250	1.050
2020/01/31 03:00:51.9	92.530	-0.090	0.290	1.010
2020/01/31 03:00:52.0	92.540	-0.110	0.320	0.960
2020/01/31 03:00:52.1	92.550	-0.130	0.350	0.910
2020/01/31 03:00:52.2	92.560	-0.150	0.370	0.860
2020/01/31 03:00:52.3	92.570	-0.160	0.380	0.800
2020/01/31 03:00:52.4	92.590	-0.170	0.390	0.750
2020/01/31 03:00:52.5	92.600	-0.170	0.390	0.690
2020/01/31 03:00:52.6	92.610	-0.170	0.380	0.640
2020/01/31 03:00:52.7	92.620	-0.160	0.360	0.580
2020/01/31 03:00:52.8	92.630	-0.160	0.340	0.530
2020/01/31 03:00:52.9	92.640	-0.140	0.320	0.480
2020/01/31 03:00:53.0	92.650	-0.130	0.290	0.430
2020/01/31 03:00:53.1	92.660	-0.110	0.250	0.380
2020/01/31 03:00:53.2	92.670	-0.090	0.210	0.340
2020/01/31 03:00:53.3	92.680	-0.070	0.170	0.310
2020/01/31 03:00:53.4	92.680	-0.050	0.120	0.280
2020/01/31 03:00:53.5	92.690	-0.020	0.080	0.250
2020/01/31 03:00:53.6	92.690	0.000	0.030	0.230
2020/01/31 03:00:53.7	92.690	0.030	-0.010	0.210
2020/01/31 03:00:53.8	92.700	0.060	-0.060	0.190
2020/01/31 03:00:53.9	92.700	0.080	-0.100	0.180
2020/01/31 03:00:54.0	92.700	0.100	-0.140	0.180
2020/01/31 03:00:54.1	92.690	0.130	-0.180	0.180
2020/01/31 03:00:54.2	92.690	0.140	-0.210	0.180
2020/01/31 03:00:54.3	92.690	0.160	-0.240	0.180
2020/01/31 03:00:54.4	92.680	0.170	-0.270	0.180
2020/01/31 03:00:54.5	92.680	0.190	-0.280	0.190
2020/01/31 03:00:54.6	92.680	0.190	-0.300	0.200
2020/01/31 03:00:54.7	92.680	0.200	-0.310	0.200
2020/01/31 03:00:54.8	92.680	0.200	-0.310	0.210
2020/01/31 03:00:54.9	92.680	0.190	-0.310	0.230
2020/01/31 03:00:55.0	92.680	0.180	-0.310	0.240
2020/01/31 03:00:55.1	92.680	0.170	-0.300	0.250
2020/01/31 03:00:55.2	92.680	0.160	-0.290	0.260
2020/01/31 03:00:55.3	92.670	0.140	-0.270	0.280
2020/01/31 03:00:55.4	92.670	0.120	-0.250	0.300
2020/01/31 03:00:55.5	92.670	0.100	-0.230	0.310
2020/01/31 03:00:55.6	92.670	0.070	-0.210	0.330
2020/01/31 03:00:55.7	92.670	0.040	-0.180	0.350
2020/01/31 03:00:55.8	92.660	0.010	-0.160	0.370
2020/01/31 03:00:55.9	92.660	-0.020	-0.130	0.390
2020/01/31 03:00:56.0	92.660	-0.050	-0.110	0.410
2020/01/31 03:00:56.1	92.650	-0.080	-0.090	0.430
2020/01/31 03:00:56.2	92.650	-0.110	-0.070	0.460
2020/01/31 03:00:56.3	92.640	-0.140	-0.050	0.480
2020/01/31 03:00:56.4	92.640	-0.170	-0.040	0.510
2020/01/31 03:00:56.5	92.630	-0.200	-0.030	0.530
2020/01/31 03:00:56.6	92.630	-0.230	-0.020	0.560
2020/01/31 03:00:56.7	92.630	-0.250	-0.020	0.590
2020/01/31 03:00:56.8	92.630	-0.270	-0.020	0.610
2020/01/31 03:00:56.9	92.620	-0.290	-0.030	0.640
2020/01/31 03:00:57.0	92.620	-0.300	-0.040	0.660
2020/01/31 03:00:57.1	92.620	-0.310	-0.060	0.690
2020/01/31 03:00:57.2	92.630	-0.310	-0.080	0.710
2020/01/31 03:00:57.3	92.630	-0.310	-0.100	0.730
2020/01/31 03:00:57.4	92.630	-0.310	-0.140	0.760
2020/01/31 03:00:57.5	92.630	-0.300	-0.170	0.780
2020/01/31 03:00:57.6	92.640	-0.290	-0.210	0.800
2020/01/31 03:00:57.7	92.640	-0.280	-0.250	0.820
2020/01/31 03:00:57.8	92.640	-0.260	-0.300	0.850
2020/01/31 03:00:57.9	92.650	-0.240	-0.340	0.870
2020/01/31 03:00:58.0	92.650	-0.210	-0.390	0.890
2020/01/31 03:00:58.1	92.660	-0.180	-0.440	0.910
2020/01/31 03:00:58.2	92.660	-0.150	-0.490	0.930
2020/01/31 03:00:58.3	92.670	-0.120	-0.540	0.950
2020/01/31 03:00:58.4	92.670	-0.080	-0.580	0.970
2020/01/31 03:00:58.5	92.670	-0.040	-0.620	0.990
2020/01/31 03:00:58.6	92.670	-0.010	-0.660	1.000
2020/01/31 03:00:58.7	92.670	0.030	-0.700	1.020
2020/01/31 03:00:58.8	92.670	0.060	-0.720	1.040
2020/01/31 03:00:58.9	92.680	0.100	-0.750	1.060
2020/01/31 03:00:59.0	92.670	0.130	-0.760	1.070
2020/01/31 03:00:59.1	92.670	0.160	-0.780	1.090
2020/01/31 03:00:59.2	92.670	0.190	-0.780	1.110
2020/01/31 03:00:59.3	92.660	0.220	-0.780	1.120
2020/01/31 03:00:59.4	92.650	0.240	-0.770	1.140
2020/01/31 03:00:59.5	92.650	0.260	-0.750	1.160
2020/01/31 03:00:59.6	92.640	0.270	-0.730	1.170
2020/01/31 03:00:59.7	92.630	0.290	-0.700	1.180
2020/01/31 03:00:59.8	92.620	0.290	-0.660	1.200
2020/01/31 03:00:59.9	92.600	0.300	-0.620	1.210
2020/01/31 03:01:00.0	92.590	0.300	-0.580	1.220
2020/01/31 03:01:00.1	92.580	0.290	-0.530	1.230
2020/01/31 03:01:00.2	92.560	0.280	-0.470	1.230
2020/01/31 03:01:00.3	92.540	0.270	-0.420	1.240
2020/01/31 03:01:00.4	92.520	0.260	-0.360	1.240
2020/01/31 03:01:00.5	92.500	0.240	-0.300	1.240
2020/01/31 03:01:00.6	92.480	0.210	-0.230	1.240
2020/01/31 03:01:00.7	92.460	0.190	-0.170	1.240
2020/01/31 03:01:00.8	92.440	0.160	-0.100	1.230
2020/01/31 03:01:00.9	92.420	0.130	-0.040	1.220
2020/01/31 03:01:01.0	92.400	0.100	0.030	1.210
2020/01/31 03:01:01.1	92.390	0.070	0.090	1.190
2020/01/31 03:01:01.2	92.370	0.030	0.160	1.180
2020/01/31 03:01:01.3	92.350	-0.000	0.210	1.160
2020/01/31 03:01:01.4	92.340	-0.040	0.270	1.140
2020/01/31 03:01:01.5	92.320	-0.070	0.330	1.110
2020/01/31 03:01:01.6	92.310	-0.110	0.370	1.090
2020/01/31 03:01:01.7	92.300	-0.140	0.420	1.060
2020/01/31 03:01:01.8	92.300	-0.180	0.460	1.030
2020/01/31 03:01:01.9	92.290	-0.210	0.500	1.000
2020/01/31 03:01:02.0	92.290	-0.240	0.530	0.960
2020/01/31 03:01:02.1	92.290	-0.260	0.560	0.930
2020/01/31 03:01:02.2	92.290	-0.290	0.580	0.890
2020/01/31 03:01:02.3	92.290	-0.310	0.590	0.850
2020/01/31 03:01:02.4	92.300	-0.330	0.600	0.820
2020/01/31 03:01:02.5	92.300	-0.350	0.600	0.780
2020/01/31 03:01:02.6	92.310	-0.360	0.590	0.740
2020/01/31 03:01:02.7	92.320	-0.370	0.580	0.700
2020/01/31 03:01:02.8	92.320	-0.380	0.560	0.660
2020/01/31 03:01:02.9	92.330	-0.380	0.530	0.620
2020/01/31 03:01:03.0	92.340	-0.380	0.500	0.590
2020/01/31 03:01:03.1	92.350	-0.370	0.460	0.540
2020/01/31 03:01:03.2	92.360	-0.360	0.410	0.510
2020/01/31 03:01:03.3	92.370	-0.350	0.350	0.480
2020/01/31 03:01:03.4	92.370	-0.330	0.290	0.440
2020/01/31 03:01:03.5	92.380	-0.300	0.220	0.410
2020/01/31 03:01:03.6	92.390	-0.280	0.140	0.390
2020/01/31 03:01:03.7	92.390	-0.250	0.060	0.360
2020/01/31 03:01:03.8	92.390	-0.210	-0.030	0.330
2020/01/31 03:01:03.9	92.390	-0.170	-0.120	0.310
2020/01/31 03:01:04.0	92.400	-0.130	-0.220	0.290
2020/01/31 03:01:04.1	92.390	-0.090	-0.320	0.270
2020/01/31 03:01:04.2	92.390	-0.040	-0.420	0.260
2020/01/31 03:01:04.3	92.390	0.010	-0.520	0.240
2020/01/31 03:01:04.4	92.390	0.060	-0.620	0.230
2020/01/31 03:01:04.5	92.390	0.110	-0.720	0.220
2020/01/31 03:01:04.6	92.390	0.160	-0.820	0.210
2020/01/31 03:01:04.7	92.390	0.210	-0.910	0.210
2020/01/31 03:01:04.8	92.390	0.260	-1.000	0.210
2020/01/31 03:01:04.9	92.400	0.310	-1.080	0.210
2020/01/31 03:01:05.0	92.400	0.360	-1.150	0.210
2020/01/31 03:01:05.1	92.400	0.410	-1.220	0.220
2020/01/31 03:01:05.2	92.400	0.450	-1.280	0.240
2020/01/31 03:01:05.3	92.400	0.490	-1.330	0.260
2020/01/31 03:01:05.4	92.400	0.530	-1.370	0.290
2020/01/31 03:01:05.5	92.390	0.570	-1.390	0.320
2020/01/31 03:01:05.6	92.390	0.600	-1.410	0.350
2020/01/31 03:01:05.7	92.380	0.620	-1.410	0.400
2020/01/31 03:01:05.8	92.380	0.640	-1.400	0.440
2020/01/31 03:01:05.9	92.370	0.650	-1.380	0.490
2020/01/31 03:01:06.0	92.360	0.660	-1.350	0.540
2020/01/31 03:01:06.1	92.360	0.670	-1.310	0.590
2020/01/31 03:01:06.2	92.350	0.660	-1.250	0.640
2020/01/31 03:01:06.3	92.340	0.650	-1.190	0.690
2020/01/31 03:01:06.4	92.340	0.640	-1.120	0.750
2020/01/31 03:01:06.5	92.330	0.620	-1.030	0.800
2020/01/31 03:01:06.6	92.320	0.600	-0.940	0.850
2020/01/31 03:01:06.7	92.320	0.570	-0.850	0.900
2020/01/31 03:01:06.8	92.320	0.530	-0.750	0.950
2020/01/31 03:01:06.9	92.310	0.490	-0.640	0.990
2020/01/31 03:01:07.0	92.310	0.450	-0.540	1.030
2020/01/31 03:01:07.1	92.320	0.400	-0.420	1.070
2020/01/31 03:01:07.2	92.320	0.350	-0.320	1.100
2020/01/31 03:01:07.3	92.330	0.300	-0.210	1.130
2020/01/31 03:01:07.4	92.330	0.240	-0.100	1.160
2020/01/31 03:01:07.5	92.340	0.180	0.010	1.170
2020/01/31 03:01:07.6	92.360	0.120	0.110	1.190
2020/01/31 03:01:07.7	92.370	0.070	0.210	1.200
2020/01/31 03:01:07.8	92.390	0.010	0.310	1.200
2020/01/31 03:01:07.9	92.410	-0.050	0.400	1.200
2020/01/31 03:01:08.0	92.430	-0.110	0.480	1.200
2020/01/31 03:01:08.1	92.460	-0.160	0.550	1.200
2020/01/31 03:01:08.2	92.480	-0.220	0.620	1.190
2020/01/31 03:01:08.3	92.510	-0.270	0.680	1.180
2020/01/31 03:01:08.4	92.540	-0.320	0.730	1.160
2020/01/31 03:01:08.5	92.560	-0.360	0.780	1.150
2020/01/31 03:01:08.6	92.590	-0.400	0.810	1.130
2020/01/31 03:01:08.7	92.620	-0.440	0.840	1.120
2020/01/31 03:01:08.8	92.640	-0.470	0.860	1.100
2020/01/31 03:01:08.9	92.670	-0.500	0.880	1.080
2020/01/31 03:01:09.0	92.690	-0.520	0.880	1.070
2020/01/31 03:01:09.1	92.700	-0.540	0.880	1.050
2020/01/31 03:01:09.2	92.720	-0.550	0.870	1.040
2020/01/31 03:01:09.3	92.730	-0.560	0.850	1.020
2020/01/31 03:01:09.4	92.750	-0.570	0.830	1.010
2020/01/31 03:01:09.5	92.760	-0.570	0.800	1.000
2020/01/31 03:01:09.6	92.770	-0.560	0.770	0.990
2020/01/31 03:01:09.7	92.780	-0.550	0.730	0.980
2020/01/31 03:01:09.8	92.790	-0.540	0.690	0.970
2020/01/31 03:01:09.9	92.790	-0.520	0.640	0.960
2020/01/31 03:01:10.0	92.800	-0.500	0.580	0.960
2020/01/31 03:01:10.1	92.790	-0.470	0.530	0.960
2020/01/31 03:01:10.2	92.790	-0.440	0.460	0.950
2020/01/31 03:01:10.3	92.780	-0.410	0.400	0.950
2020/01/31 03:01:10.4	92.780	-0.370	0.330	0.950
2020/01/31 03:01:10.5	92.770	-0.330	0.250	0.950
2020/01/31 03:01:10.6	92.760	-0.290	0.180	0.950
2020/01/31 03:01:10.7	92.750	-0.240	0.100	0.950
2020/01/31 03:01:10.8	92.730	-0.200	0.020	0.960
2020/01/31 03:01:10.9	92.720	-0.150	-0.060	0.960
2020/01/31 03:01:11.0	92.700	-0.100	-0.140	0.970
2020/01/31 03:01:11.1	92.670	-0.050	-0.230	0.970
2020/01/31 03:01:11.2	92.650	-0.000	-0.310	0.980
2020/01/31 03:01:11.3	92.630	0.040	-0.390	0.990
2020/01/31 03:01:11.4	92.610	0.090	-0.470	1.000
2020/01/31 03:01:11.5	92.600	0.140	-0.540	1.010
2020/01/31 03:01:11.6	92.580	0.180	-0.620	1.010
2020/01/31 03:01:11.7	92.560	0.230	-0.690	1.020
2020/01/31 03:01:11.8	92.540	0.270	-0.750	1.020
2020/01/31 03:01:11.9	92.530	0.300	-0.810	1.020
2020/01/31 03:01:12.0	92.510	0.340	-0.870	1.020
2020/01/31 03:01:12.1	92.500	0.370	-0.920	1.010
2020/01/31 03:01:12.2	92.490	0.390	-0.970	1.000
2020/01/31 03:01:12.3	92.490	0.420	-1.010	0.990
2020/01/31 03:01:12.4	92.480	0.440	-1.040	0.980
2020/01/31 03:01:12.5	92.480	0.450	-1.070	0.960
2020/01/31 03:01:12.6	92.480	0.460	-1.090	0.950
2020/01/31 03:01:12.7	92.480	0.470	-1.100	0.930
2020/01/31 03:01:12.8	92.490	0.470	-1.110	0.910
2020/01/31 03:01:12.9	92.490	0.470	-1.110	0.880
2020/01/31 03:01:13.0	92.500	0.470	-1.110	0.860
2020/01/31 03:01:13.1	92.510	0.460	-1.100	0.830
2020/01/31 03:01:13.2	92.520	0.450	-1.080	0.810
2020/01/31 03:01:13.3	92.540	0.430	-1.050	0.790
2020/01/31 03:01:13.4	92.550	0.410	-1.020	0.770
2020/01/31 03:01:13.5	92.570	0.390	-0.980	0.740
2020/01/31 03:01:13.6	92.590	0.360	-0.930	0.730
2020/01/31 03:01:13.7	92.620	0.340	-0.880	0.710
2020/01/31 03:01:13.8	92.640	0.310	-0.820	0.690
2020/01/31 03:01:13.9	92.670	0.280	-0.760	0.680
2020/01/31 03:01:14.0	92.700	0.240	-0.700	0.660
2020/01/31 03:01:14.1	92.730	0.210	-0.630	0.650
2020/01/31 03:01:14.2	92.760	0.170	-0.560	0.650
2020/01/31 03:01:14.3	92.790	0.130	-0.490	0.650
2020/01/31 03:01:14.4	92.820	0.090	-0.410	0.650
2020/01/31 03:01:14.5	92.850	0.050	-0.340	0.650
2020/01/31 03:01:14.6	92.880	0.010	-0.260	0.650
2020/01/31 03:01:14.7	92.910	-0.020	-0.180	0.660
2020/01/31 03:01:14.8	92.940	-0.060	-0.110	0.680
2020/01/31 03:01:14.9	92.970	-0.100	-0.040	0.690
2020/01/31 03:01:15.0	93.000	-0.140	0.030	0.710
2020/01/31 03:01:15.1	93.020	-0.180	0.090	0.730
2020/01/31 03:01:15.2	93.040	-0.210	0.150	0.750
2020/01/31 03:01:15.3	93.060	-0.240	0.210	0.770
2020/01/31 03:01:15.4	93.090	-0.280	0.250	0.800
2020/01/31 03:01:15.5	93.100	-0.300	0.300	0.820
2020/01/31 03:01:15.6	93.120	-0.330	0.330	0.850
2020/01/31 03:01:15.7	93.130	-0.360	0.360	0.880
2020/01/31 03:01:15.8	93.150	-0.380	0.390	0.900
2020/01/31 03:01:15.9	93.160	-0.400	0.400	0.930
2020/01/31 03:01:16.0	93.160	-0.410	0.410	0.960
2020/01/31 03:01:16.1	93.160	-0.420	0.410	0.980
2020/01/31 03:01:16.2	93.160	-0.430	0.410	1.000
2020/01/31 03:01:16.3	93.160	-0.440	0.390	1.030
2020/01/31 03:01:16.4	93.160	-0.440	0.370	1.050
2020/01/31 03:01:16.5	93.150	-0.440	0.350	1.070
2020/01/31 03:01:16.6	93.140	-0.440	0.320	1.080
2020/01/31 03:01:16.7	93.130	-0.440	0.280	1.100
2020/01/31 03:01:16.8	93.120	-0.430	0.250	1.110
2020/01/31 03:01:16.9	93.110	-0.420	0.210	1.120
2020/01/31 03:01:17.0	93.100	-0.410	0.170	1.130
2020/01/31 03:01:17.1	93.080	-0.400	0.120	1.130
2020/01/31 03:01:17.2	93.070	-0.390	0.080	1.140
2020/01/31 03:01:17.3	93.050	-0.370	0.040	1.140
2020/01/31 03:01:17.4	93.030	-0.350	-0.000	1.140
2020/01/31 03:01:17.5	93.010	-0.340	-0.040	1.140
2020/01/31 03:01:17.6	92.990	-0.320	-0.080	1.130
2020/01/31 03:01:17.7	92.970	-0.300	-0.110	1.120
2020/01/31 03:01:17.8	92.950	-0.280	-0.140	1.110
2020/01/31 03:01:17.9	92.940	-0.260	-0.170	1.100
2020/01/31 03:01:18.0	92.920	-0.240	-0.190	1.090
2020/01/31 03:01:18.1	92.890	-0.210	-0.210	1.070
2020/01/31 03:01:18.2	92.880	-0.190	-0.230	1.060
2020/01/31 03:01:18.3	92.860	-0.170	-0.250	1.040
2020/01/31 03:01:18.4	92.840	-0.150	-0.260	1.020
2020/01/31 03:01:18.5	92.830	-0.120	-0.260	0.990
2020/01/31 03:01:18.6	92.820	-0.100	-0.270	0.970
2020/01/31 03:01:18.7	92.810	-0.080	-0.270	0.940
2020/01/31 03:01:18.8	92.800	-0.050	-0.280	0.900
2020/01/31 03:01:18.9	92.800	-0.030	-0.280	0.870
2020/01/31 03:01:19.0	92.800	-0.000	-0.280	0.830
2020/01/31 03:01:19.1	92.790	0.020	-0.280	0.780
2020/01/31 03:01:19.2	92.800	0.050	-0.280	0.740
2020/01/31 03:01:19.3	92.800	0.070	-0.290	0.690
2020/01/31 03:01:19.4	92.810	0.100	-0.290	0.640
2020/01/31 03:01:19.5	92.820	0.120	-0.300	0.590
2020/01/31 03:01:19.6	92.830	0.150	-0.300	0.540
2020/01/31 03:01:19.7	92.840	0.180	-0.310	0.490
2020/01/31 03:01:19.8	92.850	0.200	-0.320	0.440
2020/01/31 03:01:19.9	92.860	0.230	-0.340	0.380
2020/01/31 03:01:20.0	92.870	0.260	-0.350	0.330
2020/01/31 03:01:20.1	92.890	0.280	-0.370	0.280
2020/01/31 03:01:20.2	92.900	0.310	-0.380	0.230
2020/01/31 03:01:20.3	92.910	0.330	-0.400	0.190
2020/01/31 03:01:20.4	92.920	0.350	-0.420	0.140
2020/01/31 03:01:20.5	92.930	0.380	-0.450	0.100
2020/01/31 03:01:20.6	92.940	0.400	-0.470	0.060
2020/01/31 03:01:20.7	92.940	0.420	-0.490	0.030
2020/01/31 03:01:20.8	92.950	0.440	-0.510	-0.000
2020/01/31 03:01:20.9	92.960	0.450	-0.540	-0.030
2020/01/31 03:01:21.0	92.960	0.470	-0.560	-0.050
2020/01/31 03:01:21.1	92.970	0.480	-0.580	-0.080
2020/01/31 03:01:21.2	92.980	0.500	-0.600	-0.090
2020/01/31 03:01:21.3	92.980	0.500	-0.610	-0.100
2020/01/31 03:01:21.4	92.990	0.510	-0.630	-0.100
2020/01/31 03:01:21.5	92.990	0.520	-0.640	-0.100
2020/01/31 03:01:21.6	93.000	0.520	-0.650	-0.100
2020/01/31 03:01:21.7	93.000	0.520	-0.660	-0.090
2020/01/31 03:01:21.8	93.000	0.520	-0.660	-0.070
2020/01/31 03:01:21.9	93.000	0.520	-0.660	-0.050
2020/01/31 03:01:22.0	93.010	0.510	-0.650	-0.020
2020/01/31 03:01:22.1	93.010	0.500	-0.650	0.010
2020/01/31 03:01:22.2	93.010	0.490	-0.640	0.050
2020/01/31 03:01:22.3	93.010	0.470	-0.620	0.090
2020/01/31 03:01:22.4	93.010	0.460	-0.600	0.130
2020/01/31 03:01:22.5	93.010	0.440	-0.580	0.170
2020/01/31 03:01:22.6	93.000	0.420	-0.550	0.220
2020/01/31 03:01:22.7	93.000	0.390	-0.520	0.270
2020/01/31 03:01:22.8	93.000	0.370	-0.490	0.320
2020/01/31 03:01:22.9	92.990	0.340	-0.450	0.370
2020/01/31 03:01:23.0	92.990	0.310	-0.420	0.420
2020/01/31 03:01:23.1	92.990	0.280	-0.370	0.470
2020/01/31 03:01:23.2	92.980	0.240	-0.330	0.520
2020/01/31 03:01:23.3	92.980	0.210	-0.280	0.560
2020/01/31 03:01:23.4	92.970	0.180	-0.240	0.610
2020/01/31 03:01:23.5	92.960	0.140	-0.190	0.660
2020/01/31 03:01:23.6	92.960	0.110	-0.140	0.700
2020/01/31 03:01:23.7	92.950	0.070	-0.100	0.740
2020/01/31 03:01:23.8	92.950	0.040	-0.050	0.780
2020/01/31 03:01:23.9	92.940	0.000	-0.000	0.820
2020/01/31 03:01:24.0	92.940	-0.030	0.040	0.860
2020/01/31 03:01:24.1	92.930	-0.070	0.090	0.890
2020/01/31 03:01:24.2	92.930	-0.100	0.130	0.920
2020/01/31 03:01:24.3	92.930	-0.130	0.170	0.960
2020/01/31 03:01:24.4	92.920	-0.160	0.210	0.990
2020/01/31 03:01:24.5	92.920	-0.190	0.250	1.020
2020/01/31 03:01:24.6	92.920	-0.220	0.290	1.050
2020/01/31 03:01:24.7	92.920	-0.240	0.320	1.070
2020/01/31 03:01:24.8	92.920	-0.270	0.350	1.100
2020/01/31 03:01:24.9	92.920	-0.290	0.380	1.120
2020/01/31 03:01:25.0	92.910	-0.310	0.410	1.140
2020/01/31 03:01:25.1	92.910	-0.330	0.430	1.170
2020/01/31 03:01:25.2	92.910	-0.340	0.440	1.180
2020/01/31 03:01:25.3	92.910	-0.360	0.460	1.200
2020/01/31 03:01:25.4	92.910	-0.370	0.460	1.210
2020/01/31 03:01:25.5	92.910	-0.390	0.470	1.220
2020/01/31 03:01:25.6	92.910	-0.400	0.470	1.220
2020/01/31 03:01:25.7	92.920	-0.400	0.460	1.220
2020/01/31 03:01:25.8	92.920	-0.410	0.450	1.220
2020/01/31 03:01:25.9	92.920	-0.410	0.440	1.220
2020/01/31 03:01:26.0	92.920	-0.420	0.420	1.210
2020/01/31 03:01:26.1	92.920	-0.420	0.400	1.200
2020/01/31 03:01:26.2	92.920	-0.420	0.370	1.190
2020/01/31 03:01:26.3	92.920	-0.420	0.340	1.170
2020/01/31 03:01:26.4	92.920	-0.410	0.310	1.150
2020/01/31 03:01:26.5	92.930	-0.410	0.270	1.130
2020/01/31 03:01:26.6	92.930	-0.400	0.230	1.110
2020/01/31 03:01:26.7	92.930	-0.390	0.180	1.090
2020/01/31 03:01:26.8	92.930	-0.380	0.130	1.060
2020/01/31 03:01:26.9	92.930	-0.370	0.080	1.040
2020/01/31 03:01:27.0	92.930	-0.360	0.030	1.010
2020/01/31 03:01:27.1	92.930	-0.340	-0.030	0.980
2020/01/31 03:01:27.2	92.940	-0.330	-0.090	0.950
2020/01/31 03:01:27.3	92.940	-0.310	-0.140	0.920
2020/01/31 03:01:27.4	92.940	-0.290	-0.200	0.900
2020/01/31 03:01:27.5	92.950	-0.270	-0.260	0.870
2020/01/31 03:01:27.6	92.950	-0.250	-0.310	0.850
2020/01/31 03:01:27.7	92.960	-0.230	-0.370	0.830
2020/01/31 03:01:27.8	92.970	-0.200	-0.430	0.810
2020/01/31 03:01:27.9	92.970	-0.180	-0.480	0.790
2020/01/31 03:01:28.0	92.980	-0.150	-0.530	0.770
2020/01/31 03:01:28.1	92.990	-0.130	-0.580	0.750
2020/01/31 03:01:28.2	93.000	-0.100	-0.620	0.730
2020/01/31 03:01:28.3	93.010	-0.080	-0.670	0.710
2020/01/31 03:01:28.4	93.020	-0.050	-0.710	0.700
2020/01/31 03:01:28.5	93.030	-0.030	-0.750	0.680
2020/01/31 03:01:28.6	93.030	-0.000	-0.780	0.670
2020/01/31 03:01:28.7	93.040	0.020	-0.810	0.650
2020/01/31 03:01:28.8	93.050	0.050	-0.830	0.640
2020/01/31 03:01:28.9	93.060	0.070	-0.850	0.630
2020/01/31 03:01:29.0	93.060	0.090	-0.870	0.610
2020/01/31 03:01:29.1	93.070	0.100	-0.880	0.600
2020/01/31 03:01:29.2	93.080	0.120	-0.880	0.590
2020/01/31 03:01:29.3	93.080	0.130	-0.880	0.580
2020/01/31 03:01:29.4	93.080	0.150	-0.870	0.580
2020/01/31 03:01:29.5	93.080	0.150	-0.850	0.570
2020/01/31 03:01:29.6	93.070	0.160	-0.830	0.570
2020/01/31 03:01:29.7	93.070	0.160	-0.800	0.560
2020/01/31 03:01:29.8	93.060	0.160	-0.770	0.560
2020/01/31 03:01:29.9	93.050	0.160	-0.730	0.560
2020/01/31 03:01:30.0	93.040	0.150	-0.690	0.560
2020/01/31 03:01:30.1	93.010	0.140	-0.650	0.550
2020/01/31 03:01:30.2	93.000	0.130	-0.600	0.560
2020/01/31 03:01:30.3	92.980	0.110	-0.540	0.560
2020/01/31 03:01:30.4	92.960	0.090	-0.490	0.570
2020/01/31 03:01:30.5	92.950	0.070	-0.430	0.580
2020/01/31 03:01:30.6	92.930	0.050	-0.360	0.590
2020/01/31 03:01:30.7	92.910	0.030	-0.300	0.600
2020/01/31 03:01:30.8	92.890	-0.000	-0.240	0.610
2020/01/31 03:01:30.9	92.870	-0.030	-0.180	0.630
2020/01/31 03:01:31.0	92.850	-0.060	-0.120	0.640
2020/01/31 03:01:31.1	92.820	-0.090	-0.060	0.660
2020/01/31 03:01:31.2	92.800	-0.110	-0.010	0.670
2020/01/31 03:01:31.3	92.780	-0.140	0.040	0.690
2020/01/31 03:01:31.4	92.760	-0.170	0.090	0.710
2020/01/31 03:01:31.5	92.740	-0.200	0.130	0.730
2020/01/31 03:01:31.6	92.720	-0.220	0.170	0.750
2020/01/31 03:01:31.7	92.710	-0.250	0.190	0.770
2020/01/31 03:01:31.8	92.690	-0.270	0.220	0.790
2020/01/31 03:01:31.9	92.670	-0.290	0.230	0.810
2020/01/31 03:01:32.0	92.660	-0.300	0.240	0.830
2020/01/31 03:01:32.1	92.640	-0.310	0.240	0.860
2020/01/31 03:01:32.2	92.630	-0.320	0.240	0.880
2020/01/31 03:01:32.3	92.620	-0.330	0.220	0.900
2020/01/31 03:01:32.4	92.610	-0.330	0.200	0.920
2020/01/31 03:01:32.5	92.600	-0.320	0.170	0.940
2020/01/31 03:01:32.6	92.590	-0.320	0.140	0.960
2020/01/31 03:01:32.7	92.580	-0.300	0.100	0.970
2020/01/31 03:01:32.8	92.580	-0.290	0.060	0.990
2020/01/31 03:01:32.9	92.570	-0.270	0.010	1.000
2020/01/31 03:01:33.0	92.570	-0.240	-0.050	1.010
2020/01/31 03:01:33.1	92.560	-0.220	-0.100	1.010
2020/01/31 03:01:33.2	92.560	-0.180	-0.160	1.020
2020/01/31 03:01:33.3	92.560	-0.150	-0.220	1.020
2020/01/31 03:01:33.4	92.550	-0.110	-0.280	1.020
2020/01/31 03:01:33.5	92.550	-0.070	-0.340	1.020
2020/01/31 03:01:33.6	92.550	-0.030	-0.410	1.020
2020/01/31 03:01:33.7	92.550	0.010	-0.470	1.010
2020/01/31 03:01:33.8	92.540	0.060	-0.520	1.010
2020/01/31 03:01:33.9	92.540	0.100	-0.580	1.000
2020/01/31 03:01:34.0	92.540	0.150	-0.630	1.000
2020/01/31 03:01:34.1	92.520	0.190	-0.670	0.990
2020/01/31 03:01:34.2	92.520	0.240	-0.720	0.980
2020/01/31 03:01:34.3	92.510	0.290	-0.750	0.980
2020/01/31 03:01:34.4	92.500	0.330	-0.780	0.970
2020/01/31 03:01:34.5	92.490	0.370	-0.810	0.960
2020/01/31 03:01:34.6	92.480	0.410	-0.830	0.960
2020/01/31 03:01:34.7	92.470	0.450	-0.840	0.950
2020/01/31 03:01:34.8	92.470	0.490	-0.840	0.950
2020/01/31 03:01:34.9	92.460	0.520	-0.840	0.940
2020/01/31 03:01:35.0	92.450	0.550	-0.830	0.940
2020/01/31 03:01:35.1	92.430	0.580	-0.820	0.930
2020/01/31 03:01:35.2	92.420	0.600	-0.800	0.930
2020/01/31 03:01:35.3	92.410	0.620	-0.770	0.920
2020/01/31 03:01:35.4	92.400	0.630	-0.740	0.920
2020/01/31 03:01:35.5	92.390	0.640	-0.700	0.920
2020/01/31 03:01:35.6	92.380	0.650	-0.660	0.920
2020/01/31 03:01:35.7	92.380	0.650	-0.610	0.920
2020/01/31 03:01:35.8	92.370	0.650	-0.550	0.910
2020/01/31 03:01:35.9	92.350	0.650	-0.500	0.910
2020/01/31 03:01:36.0	92.350	0.640	-0.440	0.910
2020/01/31 03:01:36.1	92.330	0.620	-0.370	0.910
2020/01/31 03:01:36.2	92.330	0.600	-0.300	0.910
2020/01/31 03:01:36.3	92.320	0.580	-0.230	0.900
2020/01/31 03:01:36.4	92.310	0.560	-0.160	0.890
2020/01/31 03:01:36.5	92.300	0.530	-0.090	0.880
2020/01/31 03:01:36.6	92.290	0.490	-0.020	0.870
2020/01/31 03:01:36.7	92.290	0.460	0.050	0.860
2020/01/31 03:01:36.8	92.280	0.420	0.120	0.850
2020/01/31 03:01:36.9	92.280	0.380	0.190	0.830
2020/01/31 03:01:37.0	92.280	0.330	0.260	0.810
2020/01/31 03:01:37.1	92.280	0.290	0.320	0.790
2020/01/31 03:01:37.2	92.280	0.240	0.380	0.770
2020/01/31 03:01:37.3	92.280	0.190	0.450	0.750
2020/01/31 03:01:37.4	92.290	0.140	0.500	0.730
2020/01/31 03:01:37.5	92.300	0.090	0.560	0.700
2020/01/31 03:01:37.6	92.310	0.030	0.610	0.680
2020/01/31 03:01:37.7	92.330	-0.020	0.650	0.660
2020/01/31 03:01:37.8	92.340	-0.070	0.690	0.630
2020/01/31 03:01:37.9	92.360	-0.130	0.730	0.610
2020/01/31 03:01:38.0	92.380	-0.180	0.760	0.590
2020/01/31 03:01:38.1	92.390	-0.230	0.780	0.570
2020/01/31 03:01:38.2	92.410	-0.280	0.800	0.550
2020/01/31 03:01:38.3	92.440	-0.320	0.810	0.530
2020/01/31 03:01:38.4	92.460	-0.370	0.810	0.520
2020/01/31 03:01:38.5	92.480	-0.410	0.800	0.500
2020/01/31 03:01:38.6	92.510	-0.440	0.780	0.490
2020/01/31 03:01:38.7	92.540	-0.470	0.750	0.470
2020/01/31 03:01:38.8	92.560	-0.500	0.720	0.460
2020/01/31 03:01:38.9	92.590	-0.530	0.670	0.450
2020/01/31 03:01:39.0	92.620	-0.540	0.620	0.450
2020/01/31 03:01:39.1	92.630	-0.560	0.560	0.430
2020/01/31 03:01:39.2	92.660	-0.560	0.490	0.430
2020/01/31 03:01:39.3	92.680	-0.570	0.410	0.430
2020/01/31 03:01:39.4	92.700	-0.560	0.330	0.430
2020/01/31 03:01:39.5	92.720	-0.550	0.240	0.430
2020/01/31 03:01:39.6	92.740	-0.540	0.140	0.440
2020/01/31 03:01:39.7	92.760	-0.520	0.040	0.450
2020/01/31 03:01:39.8	92.770	-0.490	-0.060	0.460
2020/01/31 03:01:39.9	92.780	-0.460	-0.170	0.480
2020/01/31 03:01:40.0	92.790	-0.430	-0.280	0.500
2020/01/31 03:01:40.1	92.790	-0.390	-0.380	0.530
2020/01/31 03:01:40.2	92.800	-0.350	-0.490	0.550
2020/01/31 03:01:40.3	92.790	-0.310	-0.590	0.590
2020/01/31 03:01:40.4	92.790	-0.270	-0.690	0.620
2020/01/31 03:01:40.5	92.780	-0.230	-0.780	0.660
2020/01/31 03:01:40.6	92.770	-0.190	-0.870	0.700
2020/01/31 03:01:40.7	92.760	-0.150	-0.940	0.740
2020/01/31 03:01:40.8	92.750	-0.110	-1.010	0.780
2020/01/31 03:01:40.9	92.730	-0.070	-1.070	0.820
2020/01/31 03:01:41.0	92.710	-0.040	-1.120	0.870
2020/01/31 03:01:41.1	92.690	-0.010	-1.160	0.910
2020/01/31 03:01:41.2	92.670	0.020	-1.190	0.960
2020/01/31 03:01:41.3	92.650	0.040	-1.200	1.000
2020/01/31 03:01:41.4	92.630	0.060	-1.210	1.050
2020/01/31 03:01:41.5	92.610	0.070	-1.200	1.090
2020/01/31 03:01:41.6	92.580	0.080	-1.180	1.140
2020/01/31 03:01:41.7	92.560	0.090	-1.160	1.180
2020/01/31 03:01:41.8	92.540	0.080	-1.120	1.230
2020/01/31 03:01:41.9	92.510	0.080	-1.080	1.270
2020/01/31 03:01:42.0	92.490	0.070	-1.020	1.310
2020/01/31 03:01:42.1	92.470	0.050	-0.960	1.340
2020/01/31 03:01:42.2	92.450	0.040	-0.890	1.380
2020/01/31 03:01:42.3	92.430	0.020	-0.820	1.410
2020/01/31 03:01:42.4	92.410	-0.010	-0.740	1.440
2020/01/31 03:01:42.5	92.400	-0.040	-0.660	1.460
2020/01/31 03:01:42.6	92.380	-0.060	-0.570	1.480
2020/01/31 03:01:42.7	92.370	-0.090	-0.480	1.490
2020/01/31 03:01:42.8	92.350	-0.130	-0.390	1.500
2020/01/31 03:01:42.9	92.340	-0.160	-0.300	1.510
2020/01/31 03:01:43.0	92.330	-0.190	-0.220	1.510
2020/01/31 03:01:43.1	92.320	-0.220	-0.130	1.500
2020/01/31 03:01:43.2	92.310	-0.250	-0.050	1.490
2020/01/31 03:01:43.3	92.300	-0.270	0.030	1.470
2020/01/31 03:01:43.4	92.290	-0.300	0.100	1.450
2020/01/31 03:01:43.5	92.290	-0.320	0.170	1.420
2020/01/31 03:01:43.6	92.280	-0.340	0.230	1.400
2020/01/31 03:01:43.7	92.270	-0.350	0.280	1.360
2020/01/31 03:01:43.8	92.270	-0.360	0.330	1.330
2020/01/31 03:01:43.9	92.270	-0.370	0.360	1.290
2020/01/31 03:01:44.0	92.260	-0.370	0.390	1.250
2020/01/31 03:01:44.1	92.270	-0.360	0.410	1.200
2020/01/31 03:01:44.2	92.260	-0.350	0.410	1.150
2020/01/31 03:01:44.3	92.270	-0.340	0.410	1.090
2020/01/31 03:01:44.4	92.270	-0.320	0.390	1.040
2020/01/31 03:01:44.5	92.270	-0.290	0.370	0.980
2020/01/31 03:01:44.6	92.270	-0.260	0.330	0.920
2020/01/31 03:01:44.7	92.280	-0.220	0.290	0.860
2020/01/31 03:01:44.8	92.280	-0.190	0.230	0.800
2020/01/31 03:01:44.9	92.290	-0.140	0.170	0.740
2020/01/31 03:01:45.0	92.300	-0.090	0.100	0.680
2020/01/31 03:01:45.1	92.300	-0.040	0.020	0.620
2020/01/31 03:01:45.2	92.310	0.010	-0.060	0.570
2020/01/31 03:01:45.3	92.320	0.070	-0.140	0.520
2020/01/31 03:01:45.4	92.320	0.120	-0.230	0.470
2020/01/31 03:01:45.5	92.330	0.180	-0.320	0.420
2020/01/31 03:01:45.6	92.330	0.240	-0.420	0.380
2020/01/31 03:01:45.7	92.330	0.290	-0.510	0.350
2020/01/31 03:01:45.8	92.340	0.350	-0.590	0.320
2020/01/31 03:01:45.9	92.340	0.400	-0.680	0.290
2020/01/31 03:01:46.0	92.330	0.450	-0.760	0.270
2020/01/31 03:01:46.1	92.340	0.500	-0.830	0.250
2020/01/31 03:01:46.2	92.330	0.540	-0.890	0.230
2020/01/31 03:01:46.3	92.330	0.580	-0.950	0.220
2020/01/31 03:01:46.4	92.330	0.610	-0.990	0.220
2020/01/31 03:01:46.5	92.320	0.630	-1.020	0.210
2020/01/31 03:01:46.6	92.320	0.650	-1.050	0.210
2020/01/31 03:01:46.7	92.310	0.660	-1.050	0.220
2020/01/31 03:01:46.8	92.310	0.670	-1.050	0.230
2020/01/31 03:01:46.9	92.310	0.670	-1.040	0.240
2020/01/31 03:01:47.0	92.300	0.660	-1.010	0.250
2020/01/31 03:01:47.1	92.300	0.640	-0.970	0.250
2020/01/31 03:01:47.2	92.290	0.620	-0.920	0.270
2020/01/31 03:01:47.3	92.290	0.590	-0.850	0.290
2020/01/31 03:01:47.4	92.290	0.550	-0.780	0.310
2020/01/31 03:01:47.5	92.280	0.510	-0.690	0.330
2020/01/31 03:01:47.6	92.280	0.460	-0.600	0.360
2020/01/31 03:01:47.7	92.280	0.410	-0.490	0.380
2020/01/31 03:01:47.8	92.280	0.350	-0.390	0.410
2020/01/31 03:01:47.9	92.280	0.290	-0.270	0.430
2020/01/31 03:01:48.0	92.280	0.220	-0.160	0.450
2020/01/31 03:01:48.1	92.280	0.150	-0.030	0.480
2020/01/31 03:01:48.2	92.280	0.080	0.090	0.500
2020/01/31 03:01:48.3	92.290	0.010	0.210	0.520
2020/01/31 03:01:48.4	92.290	-0.070	0.320	0.550
2020/01/31 03:01:48.5	92.300	-0.140	0.430	0.570
2020/01/31 03:01:48.6	92.310	-0.210	0.540	0.590
2020/01/31 03:01:48.7	92.310	-0.280	0.640	0.610
2020/01/31 03:01:48.8	92.320	-0.350	0.730	0.630
2020/01/31 03:01:48.9	92.330	-0.410	0.810	0.650
2020/01/31 03:01:49.0	92.340	-0.470	0.890	0.670
2020/01/31 03:01:49.1	92.340	-0.530	0.950	0.680
2020/01/31 03:01:49.2	92.350	-0.580	1.000	0.700
2020/01/31 03:01:49.3	92.360	-0.620	1.040	0.720
2020/01/31 03:01:49.4	92.370	-0.660	1.060	0.730
2020/01/31 03:01:49.5	92.370	-0.690	1.070	0.740
2020/01/31 03:01:49.6	92.380	-0.720	1.070	0.760
2020/01/31 03:01:49.7	92.380	-0.740	1.050	0.770
2020/01/31 03:01:49.8	92.390	-0.750	1.020	0.780
2020/01/31 03:01:49.9	92.390	-0.760	0.980	0.790
2020/01/31 03:01:50.0	92.390	-0.760	0.930	0.810
2020/01/31 03:01:50.1	92.390	-0.750	0.860	0.810
2020/01/31 03:01:50.2	92.390	-0.730	0.780	0.820
2020/01/31 03:01:50.3	92.390	-0.710	0.690	0.830
2020/01/31 03:01:50.4	92.400	-0.680	0.590	0.830
2020/01/31 03:01:50.5	92.400	-0.650	0.480	0.840
2020/01/31 03:01:50.6	92.400	-0.610	0.370	0.840
2020/01/31 03:01:50.7	92.410	-0.570	0.240	0.840
2020/01/31 03:01:50.8	92.410	-0.520	0.120	0.850
2020/01/31 03:01:50.9	92.410	-0.460	-0.010	0.850
2020/01/31 03:01:51.0	92.420	-0.400	-0.150	0.850
2020/01/31 03:01:51.1	92.420	-0.340	-0.280	0.860
2020/01/31 03:01:51.2	92.430	-0.280	-0.420	0.860
2020/01/31 03:01:51.3	92.430	-0.210	-0.550	0.870
2020/01/31 03:01:51.4	92.430	-0.150	-0.680	0.880
2020/01/31 03:01:51.5	92.430	-0.080	-0.800	0.880
2020/01/31 03:01:51.6	92.430	-0.010	-0.920	0.890
2020/01/31 03:01:51.7	92.430	0.050	-1.030	0.900
2020/01/31 03:01:51.8	92.430	0.120	-1.130	0.920
2020/01/31 03:01:51.9	92.430	0.180	-1.220	0.930
2020/01/31 03:01:52.0	92.420	0.240	-1.300	0.950
2020/01/31 03:01:52.1	92.420	0.300	-1.370	0.960
2020/01/31 03:01:52.2	92.420	0.350	-1.420	0.980
2020/01/31 03:01:52.3	92.410	0.400	-1.460	0.990
2020/01/31 03:01:52.4	92.400	0.440	-1.480	1.000
2020/01/31 03:01:52.5	92.400	0.480	-1.490	1.010
2020/01/31 03:01:52.6	92.390	0.510	-1.490	1.020
2020/01/31 03:01:52.7	92.380	0.540	-1.480	1.030
2020/01/31 03:01:52.8	92.370	0.570	-1.450	1.040
2020/01/31 03:01:52.9	92.360	0.580	-1.410	1.040
2020/01/31 03:01:53.0	92.360	0.600	-1.350	1.050
2020/01/31 03:01:53.1	92.350	0.600	-1.280	1.040
2020/01/31 03:01:53.2	92.340	0.600	-1.210	1.040
2020/01/31 03:01:53.3	92.330	0.600	-1.120	1.030
2020/01/31 03:01:53.4	92.320	0.590	-1.030	1.020
2020/01/31 03:01:53.5	92.310	0.580	-0.930	1.010
2020/01/31 03:01:53.6	92.310	0.560	-0.830	1.000
2020/01/31 03:01:53.7	92.300	0.530	-0.720	0.980
2020/01/31 03:01:53.8	92.290	0.510	-0.610	0.960
2020/01/31 03:01:53.9	92.290	0.480	-0.490	0.940
2020/01/31 03:01:54.0	92.280	0.440	-0.380	0.920
2020/01/31 03:01:54.1	92.290	0.410	-0.270	0.900
2020/01/31 03:01:54.2	92.280	0.370	-0.160	0.880
2020/01/31 03:01:54.3	92.280	0.330	-0.050	0.860
2020/01/31 03:01:54.4	92.270	0.290	0.050	0.830
2020/01/31 03:01:54.5	92.270	0.250	0.150	0.810
2020/01/31 03:01:54.6	92.260	0.210	0.240	0.790
2020/01/31 03:01:54.7	92.260	0.170	0.320	0.770
2020/01/31 03:01:54.8	92.250	0.130	0.390	0.750
2020/01/31 03:01:54.9	92.250	0.090	0.460	0.730
2020/01/31 03:01:55.0	92.240	0.050	0.510	0.720
2020/01/31 03:01:55.1	92.230	0.020	0.560	0.700
2020/01/31 03:01:55.2	92.220	-0.020	0.600	0.690
2020/01/31 03:01:55.3	92.220	-0.050	0.630	0.680
2020/01/31 03:01:55.4	92.210	-0.080	0.660	0.670
2020/01/31 03:01:55.5	92.200	-0.110	0.670	0.670
2020/01/31 03:01:55.6	92.200	-0.140	0.680	0.670
2020/01/31 03:01:55.7	92.190	-0.170	0.680	0.670
2020/01/31 03:01:55.8	92.180	-0.190	0.680	0.670
2020/01/31 03:01:55.9	92.170	-0.220	0.660	0.670
2020/01/31 03:01:56.0	92.160	-0.240	0.640	0.680
2020/01/31 03:01:56.1	92.150	-0.260	0.620	0.680
2020/01/31 03:01:56.2	92.140	-0.270	0.590	0.680
2020/01/31 03:01:56.3	92.130	-0.290	0.560	0.680
2020/01/31 03:01:56.4	92.120	-0.300	0.520	0.680
2020/01/31 03:01:56.5	92.120	-0.320	0.470	0.680
2020/01/31 03:01:56.6	92.110	-0.330	0.430	0.680
2020/01/31 03:01:56.7	92.110	-0.340	0.370	0.670
2020/01/31 03:01:56.8	92.110	-0.340	0.320	0.670
2020/01/31 03:01:56.9	92.100	-0.350	0.260	0.660
2020/01/31 03:01:57.0	92.100	-0.350	0.200	0.650
2020/01/31 03:01:57.1	92.100	-0.350	0.140	0.630
2020/01/31 03:01:57.2	92.110	-0.350	0.080	0.620
2020/01/31 03:01:57.3	92.110	-0.340	0.020	0.610
2020/01/31 03:01:57.4	92.110	-0.340	-0.040	0.590
2020/01/31 03:01:57.5	92.120	-0.330	-0.110	0.580
2020/01/31 03:01:57.6	92.130	-0.320	-0.170	0.570
2020/01/31 03:01:57.7	92.140	-0.310	-0.230	0.560
2020/01/31 03:01:57.8	92.150	-0.300	-0.280	0.550
2020/01/31 03:01:57.9	92.160	-0.290	-0.340	0.550
2020/01/31 03:01:58.0	92.170	-0.270	-0.390	0.550
2020/01/31 03:01:58.1	92.180	-0.260	-0.430	0.550
2020/01/31 03:01:58.2	92.200	-0.240	-0.480	0.550
2020/01/31 03:01:58.3	92.210	-0.230	-0.510	0.560
2020/01/31 03:01:58.4	92.230	-0.210	-0.550	0.570
2020/01/31 03:01:58.5	92.240	-0.190	-0.570	0.580
2020/01/31 03:01:58.6	92.260	-0.180	-0.600	0.590
2020/01/31 03:01:58.7	92.280	-0.160	-0.610	0.610
2020/01/31 03:01:58.8	92.300	-0.150	-0.630	0.630
2020/01/31 03:01:58.9	92.320	-0.130	-0.640	0.650
2020/01/31 03:01:59.0	92.340	-0.120	-0.640	0.670
2020/01/31 03:01:59.1	92.360	-0.110	-0.640	0.690
2020/01/31 03:01:59.2	92.380	-0.100	-0.640	0.710
2020/01/31 03:01:59.3	92.400	-0.080	-0.630	0.730
2020/01/31 03:01:59.4	92.420	-0.070	-0.620	0.750
2020/01/31 03:01:59.5	92.440	-0.060	-0.610	0.770
2020/01/31 03:01:59.6	92.460	-0.060	-0.590	0.800
2020/01/31 03:01:59.7	92.480	-0.050	-0.580	0.820
2020/01/31 03:01:59.8	92.490	-0.040	-0.560	0.840
2020/01/31 03:01:59.9	92.510	-0.030	-0.550	0.860
2020/01/31 03:02:00.0	92.520	-0.030	-0.530	0.880
2020/01/31 03:02:00.1	92.540	-0.020	-0.520	0.900
2020/01/31 03:02:00.2	92.550	-0.020	-0.500	0.920
2020/01/31 03:02:00.3	92.550	-0.010	-0.480	0.940
2020/01/31 03:02:00.4	92.560	-0.010	-0.470	0.970
2020/01/31 03:02:00.5	92.560	-0.000	-0.450	0.990
2020/01/31 03:02:00.6	92.550	0.010	-0.440	1.010
2020/01/31 03:02:00.7	92.550	0.010	-0.420	1.030
2020/01/31 03:02:00.8	92.540	0.020	-0.410	1.050
2020/01/31 03:02:00.9	92.530	0.020	-0.390	1.070
2020/01/31 03:02:01.0	92.510	0.030	-0.380	1.090
2020/01/31 03:02:01.1	92.500	0.030	-0.360	1.100
2020/01/31 03:02:01.2	92.480	0.040	-0.340	1.120
2020/01/31 03:02:01.3	92.460	0.040	-0.330	1.140
2020/01/31 03:02:01.4	92.440	0.050	-0.310	1.150
2020/01/31 03:02:01.5	92.410	0.050	-0.290	1.170
2020/01/31 03:02:01.6	92.390	0.060	-0.270	1.190
2020/01/31 03:02:01.7	92.360	0.060	-0.250	1.200
2020/01/31 03:02:01.8	92.330	0.070	-0.230	1.220
2020/01/31 03:02:01.9	92.300	0.070	-0.200	1.230
2020/01/31 03:02:02.0	92.270	0.070	-0.180	1.240
2020/01/31 03:02:02.1	92.250	0.080	-0.160	1.250
2020/01/31 03:02:02.2	92.220	0.080	-0.140	1.260
2020/01/31 03:02:02.3	92.190	0.080	-0.120	1.270
2020/01/31 03:02:02.4	92.170	0.090	-0.090	1.270
2020/01/31 03:02:02.5	92.140	0.090	-0.080	1.270
2020/01/31 03:02:02.6	92.120	0.090	-0.060	1.270
2020/01/31 03:02:02.7	92.100	0.100	-0.050	1.260
2020/01/31 03:02:02.8	92.080	0.100	-0.040	1.250
2020/01/31 03:02:02.9	92.060	0.110	-0.040	1.240
2020/01/31 03:02:03.0	92.050	0.110	-0.040	1.220
2020/01/31 03:02:03.1	92.040	0.120	-0.030	1.200
2020/01/31 03:02:03.2	92.030	0.130	-0.040	1.170
2020/01/31 03:02:03.3	92.030	0.140	-0.050	1.140
2020/01/31 03:02:03.4	92.020	0.150	-0.070	1.100
2020/01/31 03:02:03.5	92.020	0.160	-0.090	1.070
2020/01/31 03:02:03.6	92.020	0.170	-0.120	1.030
2020/01/31 03:02:03.7	92.030	0.180	-0.150	0.980
2020/01/31 03:02:03.8	92.030	0.200	-0.180	0.930
2020/01/31 03:02:03.9	92.040	0.210	-0.210	0.890
2020/01/31 03:02:04.0	92.050	0.230	-0.250	0.840
2020/01/31 03:02:04.1	92.050	0.240	-0.290	0.780
2020/01/31 03:02:04.2	92.060	0.260	-0.330	0.730
2020/01/31 03:02:04.3	92.080	0.270	-0.370	0.670
2020/01/31 03:02:04.4	92.090	0.290	-0.410	0.620
2020/01/31 03:02:04.5	92.100	0.310	-0.440	0.580
2020/01/31 03:02:04.6	92.110	0.320	-0.470	0.530
2020/01/31 03:02:04.7	92.130	0.340	-0.500	0.480
2020/01/31 03:02:04.8	92.140	0.350	-0.530	0.440
2020/01/31 03:02:04.9	92.150	0.360	-0.550	0.400
2020/01/31 03:02:05.0	92.160	0.370	-0.570	0.370
2020/01/31 03:02:05.1	92.170	0.380	-0.580	0.330
2020/01/31 03:02:05.2	92.180	0.390	-0.590	0.300
2020/01/31 03:02:05.3	92.190	0.400	-0.600	0.280
2020/01/31 03:02:05.4	92.200	0.400	-0.590	0.260
2020/01/31 03:02:05.5	92.200	0.400	-0.590	0.240
2020/01/31 03:02:05.6	92.210	0.400	-0.570	0.230
2020/01/31 03:02:05.7	92.210	0.400	-0.560	0.220
2020/01/31 03:02:05.8	92.210	0.390	-0.530	0.220
2020/01/31 03:02:05.9	92.210	0.380	-0.500	0.220
2020/01/31 03:02:06.0	92.220	0.370	-0.470	0.220
2020/01/31 03:02:06.1	92.220	0.350	-0.440	0.230
2020/01/31 03:02:06.2	92.220	0.330	-0.400	0.240
2020/01/31 03:02:06.3	92.210	0.310	-0.350	0.250
2020/01/31 03:02:06.4	92.210	0.280	-0.310	0.270
2020/01/31 03:02:06.5	92.210	0.260	-0.260	0.290
2020/01/31 03:02:06.6	92.210	0.220	-0.210	0.310
2020/01/31 03:02:06.7	92.210	0.190	-0.160	0.330
2020/01/31 03:02:06.8	92.210	0.160	-0.110	0.350
2020/01/31 03:02:06.9	92.210	0.120	-0.060	0.370
2020/01/31 03:02:07.0	92.220	0.080	-0.000	0.400
2020/01/31 03:02:07.1	92.220	0.040	0.050	0.420
2020/01/31 03:02:07.2	92.230	-0.000	0.100	0.450
2020/01/31 03:02:07.3	92.240	-0.050	0.150	0.470
2020/01/31 03:02:07.4	92.240	-0.090	0.190	0.500
2020/01/31 03:02:07.5	92.250	-0.130	0.240	0.520
2020/01/31 03:02:07.6	92.270	-0.170	0.280	0.550
2020/01/31 03:02:07.7	92.280	-0.210	0.310	0.570
2020/01/31 03:02:07.8	92.290	-0.260	0.340	0.600
2020/01/31 03:02:07.9	92.310	-0.290	0.370	0.620
2020/01/31 03:02:08.0	92.320	-0.330	0.400	0.650
2020/01/31 03:02:08.1	92.330	-0.370	0.410	0.660
2020/01/31 03:02:08.2	92.350	-0.400	0.420	0.690
2020/01/31 03:02:08.3	92.370	-0.430	0.430	0.710
2020/01/31 03:02:08.4	92.380	-0.450	0.440	0.730
2020/01/31 03:02:08.5	92.400	-0.470	0.430	0.750
2020/01/31 03:02:08.6	92.420	-0.490	0.430	0.780
2020/01/31 03:02:08.7	92.430	-0.500	0.410	0.800
2020/01/31 03:02:08.8	92.450	-0.510	0.390	0.820
2020/01/31 03:02:08.9	92.460	-0.520	0.370	0.850
2020/01/31 03:02:09.0	92.470	-0.520	0.340	0.870
2020/01/31 03:02:09.1	92.470	-0.520	0.300	0.890
2020/01/31 03:02:09.2	92.480	-0.510	0.260	0.910
2020/01/31 03:02:09.3	92.490	-0.500	0.210	0.930
2020/01/31 03:02:09.4	92.500	-0.480	0.170	0.950
2020/01/31 03:02:09.5	92.500	-0.460	0.110	0.960
2020/01/31 03:02:09.6	92.510	-0.440	0.050	0.970
2020/01/31 03:02:09.7	92.520	-0.410	-0.010	0.990
2020/01/31 03:02:09.8	92.520	-0.380	-0.070	0.990
2020/01/31 03:02:09.9	92.520	-0.350	-0.130	1.000
2020/01/31 03:02:10.0	92.530	-0.310	-0.190	1.000
2020/01/31 03:02:10.1	92.530	-0.280	-0.260	1.000
2020/01/31 03:02:10.2	92.540	-0.240	-0.320	1.000
2020/01/31 03:02:10.3	92.540	-0.200	-0.380	1.000
2020/01/31 03:02:10.4	92.540	-0.160	-0.450	1.000
2020/01/31 03:02:10.5	92.550	-0.130	-0.500	1.000
2020/01/31 03:02:10.6	92.550	-0.090	-0.560	0.990
2020/01/31 03:02:10.7	92.550	-0.050	-0.610	0.990
2020/01/31 03:02:10.8	92.550	-0.020	-0.650	0.990
2020/01/31 03:02:10.9	92.550	0.020	-0.700	0.990
2020/01/31 03:02:11.0	92.550	0.050	-0.730	0.990
2020/01/31 03:02:11.1	92.550	0.080	-0.770	0.990
2020/01/31 03:02:11.2	92.540	0.100	-0.790	0.990
2020/01/31 03:02:11.3	92.540	0.130	-0.810	1.000
2020/01/31 03:02:11.4	92.530	0.150	-0.830	1.000
2020/01/31 03:02:11.5	92.530	0.160	-0.840	1.010
2020/01/31 03:02:11.6	92.520	0.180	-0.840	1.010
2020/01/31 03:02:11.7	92.510	0.190	-0.840	1.020
2020/01/31 03:02:11.8	92.500	0.190	-0.830	1.030
2020/01/31 03:02:11.9	92.490	0.200	-0.820	1.030
2020/01/31 03:02:12.0	92.480	0.200	-0.800	1.030
2020/01/31 03:02:12.1	92.470	0.190	-0.780	1.040
2020/01/31 03:02:12.2	92.460	0.190	-0.750	1.030
2020/01/31 03:02:12.3	92.460	0.180	-0.720	1.030
2020/01/31 03:02:12.4	92.450	0.170	-0.680	1.030
2020/01/31 03:02:12.5	92.440	0.150	-0.640	1.020
2020/01/31 03:02:12.6	92.430	0.140	-0.600	1.010
2020/01/31 03:02:12.7	92.420	0.120	-0.550	0.990
2020/01/31 03:02:12.8	92.410	0.100	-0.500	0.980
2020/01/31 03:02:12.9	92.400	0.080	-0.450	0.960
2020/01/31 03:02:13.0	92.400	0.060	-0.400	0.940
2020/01/31 03:02:13.1	92.380	0.040	-0.350	0.910
2020/01/31 03:02:13.2	92.380	0.020	-0.290	0.880
2020/01/31 03:02:13.3	92.370	-0.000	-0.240	0.850
2020/01/31 03:02:13.4	92.370	-0.020	-0.190	0.820
2020/01/31 03:02:13.5	92.360	-0.040	-0.140	0.790
2020/01/31 03:02:13.6	92.360	-0.060	-0.090	0.760
2020/01/31 03:02:13.7	92.350	-0.070	-0.040	0.730
2020/01/31 03:02:13.8	92.350	-0.090	0.000	0.700
2020/01/31 03:02:13.9	92.350	-0.100	0.040	0.670
2020/01/31 03:02:14.0	92.340	-0.110	0.080	0.640
2020/01/31 03:02:14.1	92.320	-0.120	0.110	0.610
2020/01/31 03:02:14.2	92.320	-0.130	0.140	0.580
2020/01/31 03:02:14.3	92.310	-0.130	0.170	0.560
2020/01/31 03:02:14.4	92.310	-0.130	0.190	0.530
2020/01/31 03:02:14.5	92.300	-0.130	0.210	0.510
2020/01/31 03:02:14.6	92.290	-0.130	0.220	0.490
2020/01/31 03:02:14.7	92.290	-0.120	0.220	0.470
2020/01/31 03:02:14.8	92.280	-0.120	0.230	0.450
2020/01/31 03:02:14.9	92.280	-0.110	0.220	0.440
2020/01/31 03:02:15.0	92.270	-0.100	0.220	0.420
2020/01/31 03:02:15.1	92.260	-0.080	0.200	0.410
2020/01/31 03:02:15.2	92.250	-0.070	0.190	0.390
2020/01/31 03:02:15.3	92.250	-0.050	0.170	0.390
2020/01/31 03:02:15.4	92.240	-0.040	0.140	0.380
2020/01/31 03:02:15.5	92.240	-0.020	0.110	0.370
2020/01/31 03:02:15.6	92.240	0.000	0.080	0.360
2020/01/31 03:02:15.7	92.240	0.020	0.040	0.360
2020/01/31 03:02:15.8	92.240	0.040	0.010	0.350
2020/01/31 03:02:15.9	92.250	0.060	-0.030	0.340
2020/01/31 03:02:16.0	92.250	0.080	-0.070	0.340
2020/01/31 03:02:16.1	92.250	0.100	-0.110	0.330
2020/01/31 03:02:16.2	92.260	0.120	-0.160	0.320
2020/01/31 03:02:16.3	92.260	0.140	-0.200	0.310
2020/01/31 03:02:16.4	92.280	0.160	-0.240	0.300
2020/01/31 03:02:16.5	92.290	0.170	-0.270	0.300
2020/01/31 03:02:16.6	92.300	0.190	-0.310	0.290
2020/01/31 03:02:16.7	92.320	0.200	-0.340	0.280
2020/01/31 03:02:16.8	92.330	0.210	-0.370	0.270
2020/01/31 03:02:16.9	92.340	0.220	-0.400	0.260
2020/01/31 03:02:17.0	92.360	0.230	-0.430	0.260
2020/01/31 03:02:17.1	92.380	0.240	-0.440	0.250
2020/01/31 03:02:17.2	92.390	0.240	-0.460	0.250
2020/01/31 03:02:17.3	92.400	0.240	-0.470	0.250
2020/01/31 03:02:17.4	92.420	0.240	-0.480	0.250
2020/01/31 03:02:17.5	92.430	0.240	-0.480	0.250
2020/01/31 03:02:17.6	92.440	0.240	-0.470	0.260
2020/01/31 03:02:17.7	92.450	0.230	-0.460	0.270
2020/01/31 03:02:17.8	92.450	0.220	-0.450	0.290
2020/01/31 03:02:17.9	92.460	0.210	-0.430	0.300
2020/01/31 03:02:18.0	92.470	0.200	-0.410	0.320
2020/01/31 03:02:18.1	92.470	0.190	-0.390	0.350
2020/01/31 03:02:18.2	92.470	0.170	-0.360	0.370
2020/01/31 03:02:18.3	92.470	0.150	-0.320	0.400
2020/01/31 03:02:18.4	92.470	0.130	-0.290	0.430
2020/01/31 03:02:18.5	92.470	0.110	-0.250	0.460
2020/01/31 03:02:18.6	92.470	0.090	-0.210	0.500
2020/01/31 03:02:18.7	92.460	0.070	-0.170	0.530
2020/01/31 03:02:18.8	92.460	0.050	-0.140	0.560
2020/01/31 03:02:18.9	92.460	0.030	-0.100	0.590
2020/01/31 03:02:19.0	92.450	0.010	-0.060	0.630
2020/01/31 03:02:19.1	92.440	-0.010	-0.030	0.660
2020/01/31 03:02:19.2	92.440	-0.030	-0.000	0.690
2020/01/31 03:02:19.3	92.430	-0.050	0.030	0.720
2020/01/31 03:02:19.4	92.420	-0.070	0.050	0.740
2020/01/31 03:02:19.5	92.420	-0.090	0.070	0.770
2020/01/31 03:02:19.6	92.410	-0.100	0.080	0.800
2020/01/31 03:02:19.7	92.410	-0.120	0.090	0.820
2020/01/31 03:02:19.8	92.400	-0.130	0.090	0.840
2020/01/31 03:02:19.9	92.400	-0.140	0.080	0.860
2020/01/31 03:02:20.0	92.400	-0.140	0.070	0.880
2020/01/31 03:02:20.1	92.400	-0.150	0.060	0.890
2020/01/31 03:02:20.2	92.400	-0.150	0.030	0.900
2020/01/31 03:02:20.3	92.400	-0.140	0.000	0.910
2020/01/31 03:02:20.4	92.400	-0.140	-0.030	0.920
2020/01/31 03:02:20.5	92.400	-0.130	-0.070	0.930
2020/01/31 03:02:20.6	92.400	-0.120	-0.120	0.930
2020/01/31 03:02:20.7	92.410	-0.100	-0.170	0.930
2020/01/31 03:02:20.8	92.420	-0.090	-0.220	0.930
2020/01/31 03:02:20.9	92.420	-0.070	-0.270	0.930
2020/01/31 03:02:21.0	92.430	-0.050	-0.330	0.930
2020/01/31 03:02:21.1	92.450	-0.030	-0.390	0.920
2020/01/31 03:02:21.2	92.460	-0.010	-0.440	0.910
2020/01/31 03:02:21.3	92.470	0.010	-0.490	0.910
2020/01/31 03:02:21.4	92.490	0.040	-0.540	0.900
2020/01/31 03:02:21.5	92.500	0.060	-0.580	0.890
2020/01/31 03:02:21.6	92.510	0.080	-0.620	0.880
2020/01/31 03:02:21.7	92.520	0.100	-0.660	0.870
2020/01/31 03:02:21.8	92.530	0.120	-0.690	0.860
2020/01/31 03:02:21.9	92.540	0.130	-0.710	0.850
2020/01/31 03:02:22.0	92.550	0.150	-0.730	0.840
2020/01/31 03:02:22.1	92.560	0.160	-0.730	0.840
2020/01/31 03:02:22.2	92.560	0.170	-0.740	0.830
2020/01/31 03:02:22.3	92.570	0.180	-0.730	0.820
2020/01/31 03:02:22.4	92.570	0.190	-0.720	0.820
2020/01/31 03:02:22.5	92.570	0.190	-0.700	0.820
2020/01/31 03:02:22.6	92.570	0.190	-0.680	0.810
2020/01/31 03:02:22.7	92.560	0.190	-0.650	0.810
2020/01/31 03:02:22.8	92.550	0.190	-0.620	0.810
2020/01/31 03:02:22.9	92.540	0.180	-0.580	0.820
2020/01/31 03:02:23.0	92.530	0.170	-0.530	0.820
2020/01/31 03:02:23.1	92.520	0.160	-0.490	0.820
2020/01/31 03:02:23.2	92.510	0.140	-0.430	0.820
2020/01/31 03:02:23.3	92.500	0.130	-0.380	0.830
2020/01/31 03:02:23.4	92.480	0.110	-0.330	0.830
2020/01/31 03:02:23.5	92.470	0.090	-0.270	0.840
2020/01/31 03:02:23.6	92.450	0.060	-0.210	0.840
2020/01/31 03:02:23.7	92.440	0.040	-0.150	0.850
2020/01/31 03:02:23.8	92.420	0.020	-0.100	0.850
2020/01/31 03:02:23.9	92.410	-0.010	-0.040	0.850
2020/01/31 03:02:24.0	92.400	-0.040	0.010	0.850
2020/01/31 03:02:24.1	92.380	-0.060	0.070	0.850
2020/01/31 03:02:24.2	92.370	-0.090	0.110	0.850
2020/01/31 03:02:24.3	92.360	-0.110	0.160	0.840
2020/01/31 03:02:24.4	92.350	-0.140	0.200	0.840
2020/01/31 03:02:24.5	92.340	-0.160	0.240	0.830
2020/01/31 03:02:24.6	92.330	-0.180	0.270	0.820
2020/01/31 03:02:24.7	92.320	-0.200	0.290	0.810
2020/01/31 03:02:24.8	92.320	-0.220	0.320	0.790
2020/01/31 03:02:24.9	92.310	-0.240	0.330	0.780
2020/01/31 03:02:25.0	92.310	-0.250	0.340	0.760
2020/01/31 03:02:25.1	92.310	-0.260	0.350	0.740
2020/01/31 03:02:25.2	92.310	-0.270	0.340	0.720
2020/01/31 03:02:25.3	92.300	-0.280	0.330	0.710
2020/01/31 03:02:25.4	92.300	-0.280	0.320	0.690
2020/01/31 03:02:25.5	92.300	-0.280	0.290	0.670
2020/01/31 03:02:25.6	92.300	-0.270	0.260	0.660
2020/01/31 03:02:25.7	92.300	-0.260	0.230	0.650
2020/01/31 03:02:25.8	92.290	-0.250	0.190	0.640
2020/01/31 03:02:25.9	92.290	-0.230	0.140	0.630
2020/01/31 03:02:26.0	92.290	-0.220	0.090	0.620
2020/01/31 03:02:26.1	92.280	-0.190	0.040	0.610
2020/01/31 03:02:26.2	92.270	-0.170	-0.020	0.610
2020/01/31 03:02:26.3	92.270	-0.140	-0.090	0.610
2020/01/31 03:02:26.4	92.270	-0.110	-0.150	0.610
2020/01/31 03:02:26.5	92.260	-0.080	-0.220	0.610
2020/01/31 03:02:26.6	92.260	-0.050	-0.280	0.610
2020/01/31 03:02:26.7	92.250	-0.020	-0.350	0.610
2020/01/31 03:02:26.8	92.250	0.010	-0.410	0.610
2020/01/31 03:02:26.9	92.240	0.040	-0.470	0.600
2020/01/31 03:02:27.0	92.240	0.070	-0.530	0.600
2020/01/31 03:02:27.1	92.240	0.100	-0.580	0.590
2020/01/31 03:02:27.2	92.240	0.130	-0.630	0.580
2020/01/31 03:02:27.3	92.240	0.150	-0.670	0.570
2020/01/31 03:02:27.4	92.240	0.170	-0.710	0.550
2020/01/31 03:02:27.5	92.250	0.190	-0.740	0.540
2020/01/31 03:02:27.6	92.250	0.210	-0.760	0.520
2020/01/31 03:02:27.7	92.260	0.220	-0.770	0.510
2020/01/31 03:02:27.8	92.270	0.230	-0.780	0.500
2020/01/31 03:02:27.9	92.280	0.230	-0.770	0.480
2020/01/31 03:02:28.0	92.280	0.230	-0.760	0.470
2020/01/31 03:02:28.1	92.300	0.220	-0.750	0.460
2020/01/31 03:02:28.2	92.310	0.220	-0.720	0.450
2020/01/31 03:02:28.3	92.320	0.200	-0.690	0.450
2020/01/31 03:02:28.4	92.330	0.190	-0.650	0.450
2020/01/31 03:02:28.5	92.330	0.170	-0.610	0.450
2020/01/31 03:02:28.6	92.340	0.150	-0.560	0.460
2020/01/31 03:02:28.7	92.350	0.130	-0.500	0.470
2020/01/31 03:02:28.8	92.360	0.100	-0.440	0.480
2020/01/31 03:02:28.9	92.370	0.070	-0.380	0.500
2020/01/31 03:02:29.0	92.370	0.040	-0.310	0.530
2020/01/31 03:02:29.1	92.390	0.010	-0.240	0.550
2020/01/31 03:02:29.2	92.390	-0.020	-0.170	0.580
2020/01/31 03:02:29.3	92.400	-0.050	-0.100	0.620
2020/01/31 03:02:29.4	92.410	-0.080	-0.040	0.660
2020/01/31 03:02:29.5	92.410	-0.110	0.030	0.700
2020/01/31 03:02:29.6	92.420	-0.140	0.090	0.740
2020/01/31 03:02:29.7	92.420	-0.160	0.150	0.780
2020/01/31 03:02:29.8	92.430	-0.190	0.200	0.820
2020/01/31 03:02:29.9	92.430	-0.210	0.250	0.870
2020/01/31 03:02:30.0	92.440	-0.240	0.290	0.900
2020/01/31 03:02:30.1	92.440	-0.260	0.330	0.940
2020/01/31 03:02:30.2	92.440	-0.270	0.360	0.980
2020/01/31 03:02:30.3	92.450	-0.290	0.380	1.010
2020/01/31 03:02:30.4	92.450	-0.300	0.400	1.040
2020/01/31 03:02:30.5	92.460	-0.310	0.410	1.060
2020/01/31 03:02:30.6	92.460	-0.310	0.410	1.080
2020/01/31 03:02:30.7	92.470	-0.310	0.400	1.100
2020/01/31 03:02:30.8	92.470	-0.310	0.390	1.120
2020/01/31 03:02:30.9	92.470	-0.310	0.370	1.130
2020/01/31 03:02:31.0	92.480	-0.300	0.350	1.150
2020/01/31 03:02:31.1	92.480	-0.300	0.310	1.150
2020/01/31 03:02:31.2	92.480	-0.290	0.280	1.160
2020/01/31 03:02:31.3	92.480	-0.270	0.230	1.170
2020/01/31 03:02:31.4	92.480	-0.260	0.180	1.180
2020/01/31 03:02:31.5	92.480	-0.240	0.130	1.180
2020/01/31 03:02:31.6	92.480	-0.220	0.070	1.190
2020/01/31 03:02:31.7	92.470	-0.200	0.010	1.200
2020/01/31 03:02:31.8	92.470	-0.170	-0.050	1.200
2020/01/31 03:02:31.9	92.460	-0.150	-0.110	1.210
2020/01/31 03:02:32.0	92.460	-0.120	-0.180	1.210
2020/01/31 03:02:32.1	92.450	-0.100	-0.250	1.210
2020/01/31 03:02:32.2	92.440	-0.070	-0.320	1.220
2020/01/31 03:02:32.3	92.430	-0.040	-0.380	1.220
2020/01/31 03:02:32.4	92.430	-0.010	-0.450	1.220
2020/01/31 03:02:32.5	92.420	0.020	-0.510	1.210
2020/01/31 03:02:32.6	92.420	0.040	-0.570	1.210
2020/01/31 03:02:32.7	92.410	0.070	-0.630	1.190
2020/01/31 03:02:32.8	92.410	0.100	-0.680	1.180
2020/01/31 03:02:32.9	92.420	0.120	-0.730	1.160
2020/01/31 03:02:33.0	92.420	0.150	-0.770	1.140
2020/01/31 03:02:33.1	92.430	0.170	-0.810	1.110
2020/01/31 03:02:33.2	92.440	0.190	-0.840	1.080
2020/01/31 03:02:33.3	92.450	0.210	-0.860	1.040
2020/01/31 03:02:33.4	92.470	0.220	-0.880	1.010
2020/01/31 03:02:33.5	92.480	0.240	-0.890	0.970
2020/01/31 03:02:33.6	92.500	0.250	-0.890	0.930
2020/01/31 03:02:33.7	92.520	0.260	-0.880	0.890
2020/01/31 03:02:33.8	92.540	0.260	-0.870	0.850
2020/01/31 03:02:33.9	92.560	0.270	-0.850	0.820
2020/01/31 03:02:34.0	92.580	0.270	-0.830	0.780
2020/01/31 03:02:34.1	92.610	0.260	-0.790	0.750
2020/01/31 03:02:34.2	92.630	0.260	-0.750	0.720
2020/01/31 03:02:34.3	92.650	0.250	-0.710	0.690
2020/01/31 03:02:34.4	92.670	0.240	-0.660	0.670
2020/01/31 03:02:34.5	92.680	0.220	-0.600	0.660
2020/01/31 03:02:34.6	92.700	0.210	-0.540	0.640
2020/01/31 03:02:34.7	92.710	0.190	-0.480	0.630
2020/01/31 03:02:34.8	92.720	0.170	-0.420	0.630
2020/01/31 03:02:34.9	92.730	0.150	-0.350	0.630
2020/01/31 03:02:35.0	92.730	0.130	-0.290	0.630
2020/01/31 03:02:35.1	92.730	0.100	-0.220	0.630
2020/01/31 03:02:35.2	92.730	0.080	-0.150	0.640
2020/01/31 03:02:35.3	92.730	0.050	-0.090	0.650
2020/01/31 03:02:35.4	92.720	0.030	-0.020	0.660
2020/01/31 03:02:35.5	92.720	0.000	0.040	0.660
2020/01/31 03:02:35.6	92.710	-0.030	0.100	0.670
2020/01/31 03:02:35.7	92.700	-0.050	0.150	0.680
2020/01/31 03:02:35.8	92.690	-0.070	0.200	0.690
2020/01/31 03:02:35.9	92.670	-0.100	0.250	0.690
2020/01/31 03:02:36.0	92.660	-0.120	0.290	0.690
2020/01/31 03:02:36.1	92.640	-0.130	0.320	0.690
2020/01/31 03:02:36.2	92.630	-0.150	0.350	0.690
2020/01/31 03:02:36.3	92.610	-0.160	0.370	0.690
2020/01/31 03:02:36.4	92.590	-0.170	0.380	0.680
2020/01/31 03:02:36.5	92.570	-0.170	0.380	0.670
2020/01/31 03:02:36.6	92.560	-0.170	0.380	0.660
2020/01/31 03:02:36.7	92.540	-0.170	0.360	0.640
2020/01/31 03:02:36.8	92.530	-0.160	0.340	0.620
2020/01/31 03:02:36.9	92.510	-0.150	0.310	0.600
2020/01/31 03:02:37.0	92.500	-0.140	0.280	0.580
2020/01/31 03:02:37.1	92.500	-0.120	0.240	0.550
2020/01/31 03:02:37.2	92.490	-0.090	0.190	0.520
2020/01/31 03:02:37.3	92.480	-0.070	0.130	0.500
2020/01/31 03:02:37.4	92.480	-0.040	0.070	0.470
2020/01/31 03:02:37.5	92.480	-0.000	0.010	0.450
2020/01/31 03:02:37.6	92.470	0.030	-0.050	0.420
2020/01/31 03:02:37.7	92.470	0.070	-0.120	0.400
2020/01/31 03:02:37.8	92.470	0.100	-0.190	0.380
2020/01/31 03:02:37.9	92.480	0.140	-0.260	0.360
2020/01/31 03:02:38.0	92.480	0.180	-0.320	0.340
2020/01/31 03:02:38.1	92.480	0.210	-0.390	0.320
2020/01/31 03:02:38.2	92.480	0.250	-0.450	0.310
2020/01/31 03:02:38.3	92.480	0.290	-0.510	0.300
2020/01/31 03:02:38.4	92.490	0.320	-0.570	0.290
2020/01/31 03:02:38.5	92.490	0.350	-0.620	0.290
2020/01/31 03:02:38.6	92.490	0.380	-0.660	0.280
2020/01/31 03:02:38.7	92.490	0.400	-0.700	0.280
2020/01/31 03:02:38.8	92.490	0.420	-0.730	0.280
2020/01/31 03:02:38.9	92.500	0.440	-0.750	0.280
2020/01/31 03:02:39.0	92.500	0.450	-0.770	0.270
2020/01/31 03:02:39.1	92.490	0.460	-0.780	0.270
2020/01/31 03:02:39.2	92.490	0.460	-0.790	0.260
2020/01/31 03:02:39.3	92.490	0.460	-0.780	0.260
2020/01/31 03:02:39.4	92.490	0.460	-0.770	0.260
2020/01/31 03:02:39.5	92.490	0.450	-0.750	0.260
2020/01/31 03:02:39.6	92.490	0.430	-0.720	0.260
2020/01/31 03:02:39.7	92.490	0.410	-0.690	0.260
2020/01/31 03:02:39.8	92.480	0.390	-0.650	0.260
2020/01/31 03:02:39.9	92.480	0.360	-0.600	0.270
2020/01/31 03:02:40.0	92.470	0.330	-0.550	0.270
2020/01/31 03:02:40.1	92.480	0.300	-0.500	0.270
2020/01/31 03:02:40.2	92.470	0.260	-0.440	0.280
2020/01/31 03:02:40.3	92.470	0.220	-0.370	0.290
2020/01/31 03:02:40.4	92.460	0.170	-0.310	0.300
2020/01/31 03:02:40.5	92.460	0.130	-0.240	0.310
2020/01/31 03:02:40.6	92.450	0.080	-0.160	0.330
2020/01/31 03:02:40.7	92.440	0.030	-0.090	0.340
2020/01/31 03:02:40.8	92.440	-0.030	-0.020	0.360
2020/01/31 03:02:40.9	92.430	-0.080	0.050	0.390
2020/01/31 03:02:41.0	92.430	-0.130	0.120	0.410
2020/01/31 03:02:41.1	92.420	-0.180	0.190	0.440
2020/01/31 03:02:41.2	92.410	-0.230	0.250	0.470
2020/01/31 03:02:41.3	92.410	-0.290	0.310	0.510
2020/01/31 03:02:41.4	92.410	-0.330	0.360	0.550
2020/01/31 03:02:41.5	92.400	-0.380	0.410	0.590
2020/01/31 03:02:41.6	92.400	-0.430	0.450	0.630
2020/01/31 03:02:41.7	92.400	-0.470	0.490	0.670
2020/01/31 03:02:41.8	92.410	-0.510	0.510	0.720
2020/01/31 03:02:41.9	92.410	-0.550	0.530	0.760
2020/01/31 03:02:42.0	92.410	-0.580	0.550	0.810
2020/01/31 03:02:42.1	92.410	-0.610	0.550	0.850
2020/01/31 03:02:42.2	92.420	-0.630	0.540	0.900
2020/01/31 03:02:42.3	92.430	-0.650	0.530	0.940
2020/01/31 03:02:42.4	92.440	-0.670	0.510	0.980
2020/01/31 03:02:42.5	92.450	-0.680	0.470	1.010
2020/01/31 03:02:42.6	92.470	-0.680	0.430	1.050
2020/01/31 03:02:42.7	92.480	-0.680	0.390	1.070
2020/01/31 03:02:42.8	92.500	-0.680	0.330	1.100
2020/01/31 03:02:42.9	92.510	-0.670	0.270	1.120
2020/01/31 03:02:43.0	92.530	-0.650	0.200	1.130
2020/01/31 03:02:43.1	92.560	-0.630	0.130	1.140
2020/01/31 03:02:43.2	92.580	-0.610	0.050	1.150
2020/01/31 03:02:43.3	92.590	-0.580	-0.030	1.150
2020/01/31 03:02:43.4	92.610	-0.550	-0.110	1.150
2020/01/31 03:02:43.5	92.630	-0.520	-0.200	1.140
2020/01/31 03:02:43.6	92.640	-0.480	-0.280	1.130
2020/01/31 03:02:43.7	92.660	-0.440	-0.370	1.110
2020/01/31 03:02:43.8	92.670	-0.400	-0.450	1.090
2020/01/31 03:02:43.9	92.680	-0.360	-0.520	1.070
2020/01/31 03:02:44.0	92.690	-0.310	-0.600	1.040
2020/01/31 03:02:44.1	92.700	-0.270	-0.670	1.010
2020/01/31 03:02:44.2	92.710	-0.220	-0.730	0.980
2020/01/31 03:02:44.3	92.720	-0.180	-0.790	0.950
2020/01/31 03:02:44.4	92.720	-0.140	-0.840	0.930
2020/01/31 03:02:44.5	92.720	-0.100	-0.880	0.900
2020/01/31 03:02:44.6	92.730	-0.060	-0.910	0.870
2020/01/31 03:02:44.7	92.730	-0.020	-0.940	0.850
2020/01/31 03:02:44.8	92.730	0.020	-0.950	0.830
2020/01/31 03:02:44.9	92.730	0.050	-0.960	0.810
2020/01/31 03:02:45.0	92.730	0.080	-0.960	0.800
2020/01/31 03:02:45.1	92.730	0.110	-0.940	0.780
2020/01/31 03:02:45.2	92.720	0.140	-0.930	0.770
2020/01/31 03:02:45.3	92.720	0.160	-0.900	0.770
2020/01/31 03:02:45.4	92.720	0.180	-0.870	0.770
2020/01/31 03:02:45.5	92.710	0.200	-0.830	0.770
2020/01/31 03:02:45.6	92.710	0.210	-0.790	0.780
2020/01/31 03:02:45.7	92.710	0.220	-0.730	0.790
2020/01/31 03:02:45.8	92.710	0.230	-0.680	0.800
2020/01/31 03:02:45.9	92.700	0.230	-0.620	0.810
2020/01/31 03:02:46.0	92.700	0.240	-0.560	0.820
2020/01/31 03:02:46.1	92.700	0.240	-0.490	0.840
2020/01/31 03:02:46.2	92.700	0.230	-0.420	0.860
2020/01/31 03:02:46.3	92.700	0.230	-0.350	0.870
2020/01/31 03:02:46.4	92.690	0.220	-0.280	0.880
2020/01/31 03:02:46.5	92.680	0.220	-0.210	0.890
2020/01/31 03:02:46.6	92.680	0.210	-0.140	0.900
2020/01/31 03:02:46.7	92.670	0.190	-0.080	0.910
2020/01/31 03:02:46.8	92.660	0.180	-0.010	0.920
2020/01/31 03:02:46.9	92.650	0.170	0.050	0.920
2020/01/31 03:02:47.0	92.640	0.150	0.110	0.920
2020/01/31 03:02:47.1	92.620	0.140	0.160	0.920
2020/01/31 03:02:47.2	92.600	0.130	0.200	0.910
2020/01/31 03:02:47.3	92.580	0.110	0.250	0.910
2020/01/31 03:02:47.4	92.560	0.100	0.280	0.900
2020/01/31 03:02:47.5	92.540	0.080	0.310	0.880
2020/01/31 03:02:47.6	92.520	0.070	0.340	0.870
2020/01/31 03:02:47.7	92.490	0.060	0.350	0.850
2020/01/31 03:02:47.8	92.470	0.040	0.360	0.830
2020/01/31 03:02:47.9	92.440	0.030	0.370	0.810
2020/01/31 03:02:48.0	92.420	0.020	0.360	0.790
2020/01/31 03:02:48.1	92.390	0.020	0.350	0.770
2020/01/31 03:02:48.2	92.360	0.010	0.340	0.740
2020/01/31 03:02:48.3	92.340	0.000	0.310	0.720
2020/01/31 03:02:48.4	92.310	0.000	0.280	0.690
2020/01/31 03:02:48.5	92.280	-0.000	0.240	0.660
2020/01/31 03:02:48.6	92.260	-0.000	0.200	0.640
2020/01/31 03:02:48.7	92.230	0.000	0.150	0.610
2020/01/31 03:02:48.8	92.210	0.000	0.100	0.580
2020/01/31 03:02:48.9	92.180	0.010	0.040	0.560
2020/01/31 03:02:49.0	92.160	0.020	-0.020	0.530
2020/01/31 03:02:49.1	92.130	0.020	-0.080	0.500
2020/01/31 03:02:49.2	92.110	0.030	-0.150	0.480
2020/01/31 03:02:49.3	92.100	0.040	-0.220	0.460
2020/01/31 03:02:49.4	92.080	0.060	-0.280	0.440
2020/01/31 03:02:49.5	92.060	0.070	-0.350	0.430
2020/01/31 03:02:49.6	92.050	0.090	-0.420	0.410
2020/01/31 03:02:49.7	92.040	0.100	-0.480	0.400
2020/01/31 03:02:49.8	92.030	0.120	-0.550	0.390
2020/01/31 03:02:49.9	92.020	0.140	-0.610	0.380
2020/01/31 03:02:50.0	92.020	0.160	-0.670	0.370
2020/01/31 03:02:50.1	92.020	0.180	-0.710	0.360
2020/01/31 03:02:50.2	92.020	0.200	-0.760	0.350
2020/01/31 03:02:50.3	92.030	0.220	-0.810	0.340
2020/01/31 03:02:50.4	92.030	0.240	-0.850	0.340
2020/01/31 03:02:50.5	92.040	0.260	-0.880	0.330
2020/01/31 03:02:50.6	92.050	0.280	-0.910	0.330
2020/01/31 03:02:50.7	92.070	0.300	-0.930	0.320
2020/01/31 03:02:50.8	92.080	0.320	-0.950	0.320
2020/01/31 03:02:50.9	92.100	0.340	-0.960	0.310
2020/01/31 03:02:51.0	92.130	0.350	-0.960	0.310
2020/01/31 03:02:51.1	92.150	0.370	-0.970	0.310
2020/01/31 03:02:51.2	92.180	0.380	-0.960	0.300
2020/01/31 03:02:51.3	92.200	0.390	-0.940	0.300
2020/01/31 03:02:51.4	92.230	0.400	-0.930	0.310
2020/01/31 03:02:51.5	92.260	0.410	-0.900	0.310
2020/01/31 03:02:51.6	92.290	0.410	-0.870	0.310
2020/01/31 03:02:51.7	92.320	0.420	-0.830	0.320
2020/01/31 03:02:51.8	92.340	0.420	-0.790	0.320
2020/01/31 03:02:51.9	92.370	0.410	-0.740	0.330
2020/01/31 03:02:52.0	92.400	0.410	-0.690	0.340
2020/01/31 03:02:52.1	92.410	0.400	-0.640	0.350
2020/01/31 03:02:52.2	92.440	0.390	-0.580	0.370
2020/01/31 03:02:52.3	92.460	0.370	-0.520	0.390
2020/01/31 03:02:52.4	92.480	0.360	-0.460	0.410
2020/01/31 03:02:52.5	92.490	0.340	-0.390	0.430
2020/01/31 03:02:52.6	92.510	0.320	-0.330	0.460
2020/01/31 03:02:52.7	92.520	0.290	-0.260	0.490
2020/01/31 03:02:52.8	92.530	0.260	-0.200	0.520
2020/01/31 03:02:52.9	92.540	0.240	-0.130	0.550
2020/01/31 03:02:53.0	92.550	0.210	-0.060	0.590
2020/01/31 03:02:53.1	92.560	0.170	-0.000	0.620
2020/01/31 03:02:53.2	92.570	0.140	0.070	0.660
2020/01/31 03:02:53.3	92.570	0.110	0.130	0.700
2020/01/31 03:02:53.4	92.570	0.070	0.190	0.740
2020/01/31 03:02:53.5	92.570	0.040	0.260	0.780
2020/01/31 03:02:53.6	92.570	-0.000	0.320	0.820
2020/01/31 03:02:53.7	92.560	-0.040	0.380	0.860
2020/01/31 03:02:53.8	92.560	-0.080	0.430	0.910
2020/01/31 03:02:53.9	92.550	-0.110	0.490	0.950
2020/01/31 03:02:54.0	92.540	-0.150	0.540	0.990
2020/01/31 03:02:54.1	92.520	-0.190	0.590	1.030
2020/01/31 03:02:54.2	92.510	-0.220	0.630	1.070
2020/01/31 03:02:54.3	92.500	-0.260	0.670	1.110
2020/01/31 03:02:54.4	92.480	-0.290	0.710	1.150
2020/01/31 03:02:54.5	92.470	-0.330	0.740	1.180
2020/01/31 03:02:54.6	92.450	-0.360	0.760	1.220
2020/01/31 03:02:54.7	92.430	-0.390	0.780	1.250
2020/01/31 03:02:54.8	92.420	-0.420	0.800	1.280
2020/01/31 03:02:54.9	92.400	-0.440	0.810	1.310
2020/01/31 03:02:55.0	92.380	-0.470	0.810	1.340
2020/01/31 03:02:55.1	92.360	-0.490	0.800	1.360
2020/01/31 03:02:55.2	92.350	-0.510	0.790	1.380
2020/01/31 03:02:55.3	92.330	-0.530	0.770	1.390
2020/01/31 03:02:55.4	92.320	-0.540	0.750	1.400
2020/01/31 03:02:55.5	92.320	-0.550	0.710	1.410
2020/01/31 03:02:55.6	92.310	-0.560	0.670	1.410
2020/01/31 03:02:55.7	92.300	-0.570	0.630	1.410
2020/01/31 03:02:55.8	92.300	-0.570	0.570	1.410
2020/01/31 03:02:55.9	92.300	-0.580	0.510	1.400
2020/01/31 03:02:56.0	92.310	-0.570	0.450	1.380
2020/01/31 03:02:56.1	92.300	-0.570	0.380	1.360
2020/01/31 03:02:56.2	92.310	-0.560	0.300	1.330
2020/01/31 03:02:56.3	92.320	-0.550	0.230	1.310
2020/01/31 03:02:56.4	92.330	-0.540	0.140	1.280
2020/01/31 03:02:56.5	92.350	-0.530	0.060	1.240
2020/01/31 03:02:56.6	92.360	-0.510	-0.030	1.210
2020/01/31 03:02:56.7	92.380	-0.490	-0.120	1.170
2020/01/31 03:02:56.8	92.390	-0.470	-0.200	1.120
2020/01/31 03:02:56.9	92.410	-0.450	-0.290	1.080
2020/01/31 03:02:57.0	92.430	-0.420	-0.380	1.040
2020/01/31 03:02:57.1	92.440	-0.390	-0.470	0.990
2020/01/31 03:02:57.2	92.460	-0.360	-0.550	0.940
2020/01/31 03:02:57.3	92.470	-0.330	-0.630	0.900
2020/01/31 03:02:57.4	92.490	-0.300	-0.710	0.850
2020/01/31 03:02:57.5	92.500	-0.260	-0.780	0.810
2020/01/31 03:02:57.6	92.510	-0.230	-0.850	0.770
2020/01/31 03:02:57.7	92.520	-0.190	-0.910	0.730
2020/01/31 03:02:57.8	92.530	-0.150	-0.970	0.690
2020/01/31 03:02:57.9	92.540	-0.120	-1.020	0.660
2020/01/31 03:02:58.0	92.550	-0.080	-1.060	0.620
2020/01/31 03:02:58.1	92.560	-0.040	-1.100	0.590
2020/01/31 03:02:58.2	92.560	-0.000	-1.130	0.560
2020/01/31 03:02:58.3	92.560	0.030	-1.160	0.540
2020/01/31 03:02:58.4	92.560	0.070	-1.170	0.520
2020/01/31 03:02:58.5	92.560	0.100	-1.180	0.510
2020/01/31 03:02:58.6	92.560	0.140	-1.190	0.500
2020/01/31 03:02:58.7	92.550	0.170	-1.180	0.490
2020/01/31 03:02:58.8	92.550	0.200	-1.170	0.490
2020/01/31 03:02:58.9	92.540	0.230	-1.160	0.490
2020/01/31 03:02:59.0	92.530	0.250	-1.130	0.500
2020/01/31 03:02:59.1	92.530	0.280	-1.100	0.510
2020/01/31 03:02:59.2	92.520	0.300	-1.060	0.520
2020/01/31 03:02:59.3	92.520	0.320	-1.020	0.540
2020/01/31 03:02:59.4	92.510	0.340	-0.980	0.550
2020/01/31 03:02:59.5	92.500	0.350	-0.940	0.570
2020/01/31 03:02:59.6	92.490	0.360	-0.890	0.590
2020/01/31 03:02:59.7	92.480	0.380	-0.840	0.610
2020/01/31 03:02:59.8	92.470	0.380	-0.790	0.630
2020/01/31 03:02:59.9	92.470	0.390	-0.730	0.650
2020/01/31 03:03:00.0	92.460	0.400	-0.680	0.660
2020/01/31 03:03:00.1	92.450	0.400	-0.630	0.680
2020/01/31 03:03:00.2	92.440	0.400	-0.580	0.700
2020/01/31 03:03:00.3	92.440	0.410	-0.520	0.710
2020/01/31 03:03:00.4	92.430	0.410	-0.480	0.720
2020/01/31 03:03:00.5	92.430	0.400	-0.430	0.740
2020/01/31 03:03:00.6	92.430	0.400	-0.390	0.750
2020/01/31 03:03:00.7	92.420	0.400	-0.340	0.760
2020/01/31 03:03:00.8	92.420	0.400	-0.310	0.760
2020/01/31 03:03:00.9	92.410	0.390	-0.270	0.770
2020/01/31 03:03:01.0	92.410	0.390	-0.240	0.780
2020/01/31 03:03:01.1	92.400	0.380	-0.210	0.770
2020/01/31 03:03:01.2	92.390	0.380	-0.190	0.780
2020/01/31 03:03:01.3	92.380	0.370	-0.160	0.780
2020/01/31 03:03:01.4	92.380	0.360	-0.140	0.780
2020/01/31 03:03:01.5	92.370	0.350	-0.120	0.770
2020/01/31 03:03:01.6	92.360	0.340	-0.100	0.770
2020/01/31 03:03:01.7	92.350	0.320	-0.080	0.760
2020/01/31 03:03:01.8	92.350	0.310	-0.060	0.750
2020/01/31 03:03:01.9	92.340	0.290	-0.040	0.740
2020/01/31 03:03:02.0	92.330	0.280	-0.020	0.720
2020/01/31 03:03:02.1	92.320	0.260	0.010	0.700
2020/01/31 03:03:02.2	92.310	0.240	0.030	0.690
2020/01/31 03:03:02.3	92.310	0.220	0.050	0.670
2020/01/31 03:03:02.4	92.300	0.190	0.070	0.640
2020/01/31 03:03:02.5	92.290	0.170	0.090	0.620
2020/01/31 03:03:02.6	92.280	0.140	0.110	0.600
2020/01/31 03:03:02.7	92.270	0.110	0.140	0.580
2020/01/31 03:03:02.8	92.270	0.080	0.160	0.550
2020/01/31 03:03:02.9	92.260	0.050	0.180	0.530
2020/01/31 03:03:03.0	92.250	0.020	0.200	0.510
2020/01/31 03:03:03.1	92.250	-0.010	0.220	0.490
2020/01/31 03:03:03.2	92.240	-0.040	0.240	0.470
2020/01/31 03:03:03.3	92.230	-0.070	0.260	0.460
2020/01/31 03:03:03.4	92.220	-0.100	0.270	0.450
2020/01/31 03:03:03.5	92.210	-0.130	0.290	0.430
2020/01/31 03:03:03.6	92.210	-0.160	0.290	0.430
2020/01/31 03:03:03.7	92.200	-0.190	0.300	0.420
2020/01/31 03:03:03.8	92.190	-0.220	0.300	0.420
2020/01/31 03:03:03.9	92.190	-0.240	0.290	0.410
2020/01/31 03:03:04.0	92.180	-0.260	0.280	0.410
2020/01/31 03:03:04.1	92.190	-0.280	0.270	0.410
2020/01/31 03:03:04.2	92.190	-0.300	0.260	0.410
2020/01/31 03:03:04.3	92.190	-0.320	0.230	0.410
2020/01/31 03:03:04.4	92.190	-0.330	0.210	0.410
2020/01/31 03:03:04.5	92.200	-0.340	0.180	0.420
2020/01/31 03:03:04.6	92.200	-0.350	0.140	0.420
2020/01/31 03:03:04.7	92.210	-0.350	0.110	0.430
2020/01/31 03:03:04.8	92.210	-0.350	0.070	0.430
2020/01/31 03:03:04.9	92.220	-0.350	0.030	0.440
2020/01/31 03:03:05.0	92.230	-0.350	-0.020	0.440
2020/01/31 03:03:05.1	92.240	-0.340	-0.070	0.450
2020/01/31 03:03:05.2	92.250	-0.330	-0.110	0.460
2020/01/31 03:03:05.3	92.260	-0.320	-0.160	0.460
2020/01/31 03:03:05.4	92.280	-0.310	-0.210	0.470
2020/01/31 03:03:05.5	92.290	-0.290	-0.250	0.480
2020/01/31 03:03:05.6	92.300	-0.280	-0.300	0.500
2020/01/31 03:03:05.7	92.320	-0.260	-0.340	0.510
2020/01/31 03:03:05.8	92.330	-0.240	-0.380	0.520
2020/01/31 03:03:05.9	92.350	-0.220	-0.420	0.530
2020/01/31 03:03:06.0	92.360	-0.200	-0.450	0.550
2020/01/31 03:03:06.1	92.390	-0.180	-0.480	0.560
2020/01/31 03:03:06.2	92.400	-0.160	-0.510	0.580
2020/01/31 03:03:06.3	92.420	-0.140	-0.540	0.590
2020/01/31 03:03:06.4	92.440	-0.120	-0.560	0.610
2020/01/31 03:03:06.5	92.460	-0.100	-0.580	0.630
2020/01/31 03:03:06.6	92.480	-0.080	-0.590	0.650
2020/01/31 03:03:06.7	92.500	-0.070	-0.600	0.670
2020/01/31 03:03:06.8	92.510	-0.050	-0.610	0.690
2020/01/31 03:03:06.9	92.530	-0.040	-0.610	0.710
2020/01/31 03:03:07.0	92.550	-0.020	-0.610	0.740
2020/01/31 03:03:07.1	92.550	-0.010	-0.600	0.760
2020/01/31 03:03:07.2	92.570	-0.000	-0.600	0.790
2020/01/31 03:03:07.3	92.580	0.000	-0.580	0.820
2020/01/31 03:03:07.4	92.590	0.010	-0.560	0.850
2020/01/31 03:03:07.5	92.600	0.020	-0.540	0.880
2020/01/31 03:03:07.6	92.610	0.020	-0.520	0.920
2020/01/31 03:03:07.7	92.610	0.020	-0.490	0.950
2020/01/31 03:03:07.8	92.610	0.020	-0.460	0.990
2020/01/31 03:03:07.9	92.620	0.020	-0.430	1.020
2020/01/31 03:03:08.0	92.620	0.020	-0.390	1.060
2020/01/31 03:03:08.1	92.610	0.020	-0.350	1.090
2020/01/31 03:03:08.2	92.600	0.010	-0.310	1.120
2020/01/31 03:03:08.3	92.600	0.010	-0.260	1.150
2020/01/31 03:03:08.4	92.590	0.000	-0.220	1.180
2020/01/31 03:03:08.5	92.580	-0.010	-0.170	1.200
2020/01/31 03:03:08.6	92.570	-0.020	-0.130	1.220
2020/01/31 03:03:08.7	92.570	-0.030	-0.080	1.240
2020/01/31 03:03:08.8	92.550	-0.040	-0.030	1.250
2020/01/31 03:03:08.9	92.540	-0.050	0.010	1.260
2020/01/31 03:03:09.0	92.530	-0.060	0.060	1.260
2020/01/31 03:03:09.1	92.520	-0.080	0.100	1.260
2020/01/31 03:03:09.2	92.510	-0.090	0.150	1.250
2020/01/31 03:03:09.3	92.500	-0.110	0.190	1.250
2020/01/31 03:03:09.4	92.490	-0.120	0.230	1.240
2020/01/31 03:03:09.5	92.480	-0.140	0.260	1.230
2020/01/31 03:03:09.6	92.470	-0.150	0.290	1.210
2020/01/31 03:03:09.7	92.460	-0.170	0.320	1.200
2020/01/31 03:03:09.8	92.460	-0.180	0.350	1.180
2020/01/31 03:03:09.9	92.450	-0.200	0.360	1.160
2020/01/31 03:03:10.0	92.440	-0.210	0.380	1.140
2020/01/31 03:03:10.1	92.430	-0.220	0.390	1.110
2020/01/31 03:03:10.2	92.420	-0.230	0.390	1.090
2020/01/31 03:03:10.3	92.420	-0.230	0.380	1.070
2020/01/31 03:03:10.4	92.420	-0.240	0.370	1.040
2020/01/31 03:03:10.5	92.410	-0.240	0.350	1.020
2020/01/31 03:03:10.6	92.410	-0.240	0.330	0.990
2020/01/31 03:03:10.7	92.410	-0.240	0.290	0.960
2020/01/31 03:03:10.8	92.410	-0.230	0.260	0.940
2020/01/31 03:03:10.9	92.410	-0.220	0.210	0.910
2020/01/31 03:03:11.0	92.410	-0.210	0.170	0.880
2020/01/31 03:03:11.1	92.400	-0.200	0.110	0.840
2020/01/31 03:03:11.2	92.400	-0.180	0.050	0.810
2020/01/31 03:03:11.3	92.400	-0.160	-0.010	0.780
2020/01/31 03:03:11.4	92.400	-0.140	-0.070	0.750
2020/01/31 03:03:11.5	92.400	-0.110	-0.140	0.720
2020/01/31 03:03:11.6	92.410	-0.090	-0.210	0.690
2020/01/31 03:03:11.7	92.410	-0.060	-0.270	0.660
2020/01/31 03:03:11.8	92.410	-0.030	-0.340	0.630
2020/01/31 03:03:11.9	92.410	0.010	-0.410	0.590
2020/01/31 03:03:12.0	92.410	0.040	-0.480	0.560
2020/01/31 03:03:12.1	92.410	0.080	-0.540	0.530
2020/01/31 03:03:12.2	92.410	0.110	-0.600	0.500
2020/01/31 03:03:12.3	92.410	0.150	-0.660	0.470
2020/01/31 03:03:12.4	92.410	0.190	-0.720	0.450
2020/01/31 03:03:12.5	92.400	0.230	-0.780	0.420
2020/01/31 03:03:12.6	92.400	0.270	-0.830	0.400
2020/01/31 03:03:12.7	92.400	0.300	-0.880	0.370
2020/01/31 03:03:12.8	92.390	0.340	-0.930	0.360
2020/01/31 03:03:12.9	92.390	0.380	-0.970	0.340
2020/01/31 03:03:13.0	92.380	0.420	-1.010	0.330
2020/01/31 03:03:13.1	92.390	0.450	-1.050	0.320
2020/01/31 03:03:13.2	92.380	0.490	-1.090	0.310
2020/01/31 03:03:13.3	92.370	0.520	-1.110	0.310
2020/01/31 03:03:13.4	92.360	0.560	-1.140	0.310
2020/01/31 03:03:13.5	92.340	0.590	-1.160	0.310
2020/01/31 03:03:13.6	92.330	0.620	-1.170	0.320
2020/01/31 03:03:13.7	92.320	0.640	-1.180	0.330
2020/01/31 03:03:13.8	92.310	0.670	-1.180	0.340
2020/01/31 03:03:13.9	92.300	0.690	-1.180	0.350
2020/01/31 03:03:14.0	92.290	0.710	-1.170	0.370
2020/01/31 03:03:14.1	92.280	0.720	-1.150	0.380
2020/01/31 03:03:14.2	92.270	0.730	-1.120	0.400
2020/01/31 03:03:14.3	92.260	0.730	-1.090	0.430
2020/01/31 03:03:14.4	92.250	0.730	-1.050	0.450
2020/01/31 03:03:14.5	92.250	0.730	-1.000	0.480
2020/01/31 03:03:14.6	92.240	0.720	-0.950	0.510
2020/01/31 03:03:14.7	92.240	0.700	-0.890	0.540
2020/01/31 03:03:14.8	92.230	0.690	-0.820	0.570
2020/01/31 03:03:14.9	92.230	0.660	-0.740	0.610
2020/01/31 03:03:15.0	92.230	0.630	-0.660	0.640
2020/01/31 03:03:15.1	92.230	0.600	-0.580	0.670
2020/01/31 03:03:15.2	92.230	0.560	-0.490	0.710
2020/01/31 03:03:15.3	92.230	0.510	-0.400	0.740
2020/01/31 03:03:15.4	92.240	0.470	-0.300	0.780
2020/01/31 03:03:15.5	92.250	0.410	-0.200	0.810
2020/01/31 03:03:15.6	92.250	0.360	-0.110	0.840
2020/01/31 03:03:15.7	92.260	0.300	-0.010	0.870
2020/01/31 03:03:15.8	92.270	0.240	0.080	0.890
2020/01/31 03:03:15.9	92.280	0.180	0.180	0.910
2020/01/31 03:03:16.0	92.290	0.120	0.270	0.930
2020/01/31 03:03:16.1	92.300	0.050	0.360	0.950
2020/01/31 03:03:16.2	92.310	-0.010	0.440	0.970
2020/01/31 03:03:16.3	92.330	-0.070	0.510	0.980
2020/01/31 03:03:16.4	92.340	-0.140	0.580	0.990
2020/01/31 03:03:16.5	92.360	-0.200	0.650	1.000
2020/01/31 03:03:16.6	92.370	-0.260	0.700	1.010
2020/01/31 03:03:16.7	92.390	-0.320	0.750	1.020
2020/01/31 03:03:16.8	92.400	-0.370	0.800	1.020
2020/01/31 03:03:16.9	92.420	-0.420	0.830	1.020
2020/01/31 03:03:17.0	92.430	-0.470	0.850	1.020
2020/01/31 03:03:17.1	92.450	-0.510	0.880	1.030
2020/01/31 03:03:17.2	92.470	-0.560	0.890	1.020
2020/01/31 03:03:17.3	92.480	-0.590	0.890	1.020
2020/01/31 03:03:17.4	92.490	-0.630	0.880	1.020
2020/01/31 03:03:17.5	92.510	-0.650	0.870	1.010
2020/01/31 03:03:17.6	92.520	-0.680	0.850	1.010
2020/01/31 03:03:17.7	92.530	-0.700	0.830	1.000
2020/01/31 03:03:17.8	92.540	-0.710	0.790	1.000
2020/01/31 03:03:17.9	92.550	-0.730	0.750	0.990
2020/01/31 03:03:18.0	92.570	-0.730	0.710	0.990
2020/01/31 03:03:18.1	92.570	-0.740	0.660	0.970
2020/01/31 03:03:18.2	92.580	-0.730	0.600	0.970
2020/01/31 03:03:18.3	92.590	-0.730	0.540	0.960
2020/01/31 03:03:18.4	92.600	-0.720	0.480	0.950
2020/01/31 03:03:18.5	92.610	-0.710	0.410	0.940
2020/01/31 03:03:18.6	92.620	-0.690	0.340	0.930
2020/01/31 03:03:18.7	92.630	-0.670	0.270	0.920
2020/01/31 03:03:18.8	92.640	-0.650	0.190	0.910
2020/01/31 03:03:18.9	92.650	-0.620	0.110	0.890
2020/01/31 03:03:19.0	92.650	-0.590	0.030	0.880
2020/01/31 03:03:19.1	92.660	-0.560	-0.060	0.870
2020/01/31 03:03:19.2	92.670	-0.520	-0.140	0.850
2020/01/31 03:03:19.3	92.670	-0.490	-0.220	0.830
2020/01/31 03:03:19.4	92.680	-0.450	-0.300	0.820
2020/01/31 03:03:19.5	92.680	-0.410	-0.390	0.800
2020/01/31 03:03:19.6	92.690	-0.380	-0.460	0.790
2020/01/31 03:03:19.7	92.690	-0.340	-0.540	0.770
2020/01/31 03:03:19.8	92.690	-0.300	-0.610	0.760
2020/01/31 03:03:19.9	92.690	-0.260	-0.680	0.740
2020/01/31 03:03:20.0	92.690	-0.220	-0.750	0.730
2020/01/31 03:03:20.1	92.690	-0.190	-0.800	0.710
2020/01/31 03:03:20.2	92.690	-0.160	-0.860	0.700
2020/01/31 03:03:20.3	92.690	-0.120	-0.900	0.680
2020/01/31 03:03:20.4	92.690	-0.090	-0.940	0.670
2020/01/31 03:03:20.5	92.680	-0.070	-0.980	0.660
2020/01/31 03:03:20.6	92.680	-0.040	-1.000	0.650
2020/01/31 03:03:20.7	92.680	-0.020	-1.020	0.630
2020/01/31 03:03:20.8	92.680	0.000	-1.030	0.620
2020/01/31 03:03:20.9	92.680	0.020	-1.030	0.610
2020/01/31 03:03:21.0	92.680	0.030	-1.030	0.600
2020/01/31 03:03:21.1	92.680	0.050	-1.010	0.600
2020/01/31 03:03:21.2	92.680	0.060	-0.990	0.590
2020/01/31 03:03:21.3	92.680	0.070	-0.970	0.580
2020/01/31 03:03:21.4	92.680	0.070	-0.930	0.580
2020/01/31 03:03:21.5	92.680	0.080	-0.890	0.570
2020/01/31 03:03:21.6	92.680	0.080	-0.850	0.570
2020/01/31 03:03:21.7	92.680	0.080	-0.800	0.570
2020/01/31 03:03:21.8	92.680	0.080	-0.750	0.570
2020/01/31 03:03:21.9	92.680	0.080	-0.690	0.560
2020/01/31 03:03:22.0	92.690	0.070	-0.630	0.560
2020/01/31 03:03:22.1	92.700	0.070	-0.570	0.560
2020/01/31 03:03:22.2	92.700	0.070	-0.510	0.560
2020/01/31 03:03:22.3	92.700	0.070	-0.440	0.560
2020/01/31 03:03:22.4	92.700	0.060	-0.380	0.560
2020/01/31 03:03:22.5	92.700	0.060	-0.320	0.570
2020/01/31 03:03:22.6	92.700	0.060	-0.260	0.570
2020/01/31 03:03:22.7	92.700	0.060	-0.200	0.570
2020/01/31 03:03:22.8	92.700	0.060	-0.150	0.570
2020/01/31 03:03:22.9	92.690	0.060	-0.100	0.570
2020/01/31 03:03:23.0	92.690	0.060	-0.060	0.570
2020/01/31 03:03:23.1	92.680	0.070	-0.020	0.570
2020/01/31 03:03:23.2	92.670	0.070	0.020	0.570
2020/01/31 03:03:23.3	92.660	0.080	0.040	0.570
2020/01/31 03:03:23.4	92.660	0.090	0.070	0.570
2020/01/31 03:03:23.5	92.650	0.100	0.090	0.570
2020/01/31 03:03:23.6	92.640	0.110	0.100	0.570
2020/01/31 03:03:23.7	92.630	0.130	0.100	0.560
2020/01/31 03:03:23.8	92.620	0.140	0.100	0.560
2020/01/31 03:03:23.9	92.610	0.160	0.100	0.550
2020/01/31 03:03:24.0	92.600	0.180	0.090	0.550
2020/01/31 03:03:24.1	92.600	0.190	0.080	0.540
2020/01/31 03:03:24.2	92.590	0.210	0.060	0.530
2020/01/31 03:03:24.3	92.580	0.230	0.040	0.520
2020/01/31 03:03:24.4	92.580	0.250	0.020	0.520
2020/01/31 03:03:24.5	92.570	0.260	-0.010	0.510
2020/01/31 03:03:24.6	92.570	0.280	-0.040	0.500
2020/01/31 03:03:24.7	92.560	0.300	-0.060	0.500
2020/01/31 03:03:24.8	92.560	0.310	-0.090	0.500
2020/01/31 03:03:24.9	92.550	0.320	-0.120	0.490
2020/01/31 03:03:25.0	92.550	0.330	-0.150	0.490
2020/01/31 03:03:25.1	92.540	0.340	-0.180	0.490
2020/01/31 03:03:25.2	92.540	0.350	-0.210	0.490
2020/01/31 03:03:25.3	92.540	0.350	-0.230	0.500
2020/01/31 03:03:25.4	92.530	0.360	-0.260	0.500
2020/01/31 03:03:25.5	92.530	0.360	-0.280	0.510
2020/01/31 03:03:25.6	92.520	0.360	-0.300	0.520
2020/01/31 03:03:25.7	92.520	0.350	-0.320	0.520
2020/01/31 03:03:25.8	92.520	0.350	-0.330	0.530
2020/01/31 03:03:25.9	92.510	0.340	-0.340	0.540
2020/01/31 03:03:26.0	92.510	0.330	-0.350	0.540
2020/01/31 03:03:26.1	92.510	0.310	-0.350	0.550
2020/01/31 03:03:26.2	92.510	0.300	-0.350	0.550
2020/01/31 03:03:26.3	92.510	0.280	-0.350	0.560
2020/01/31 03:03:26.4	92.510	0.260	-0.340	0.560
2020/01/31 03:03:26.5	92.510	0.250	-0.330	0.570
2020/01/31 03:03:26.6	92.510	0.220	-0.320	0.570
2020/01/31 03:03:26.7	92.510	0.200	-0.310	0.570
2020/01/31 03:03:26.8	92.510	0.180	-0.290	0.580
2020/01/31 03:03:26.9	92.520	0.160	-0.270	0.580
2020/01/31 03:03:27.0	92.520	0.130	-0.250	0.580
2020/01/31 03:03:27.1	92.520	0.110	-0.220	0.580
2020/01/31 03:03:27.2	92.530	0.090	-0.200	0.590
2020/01/31 03:03:27.3	92.530	0.060	-0.170	0.590
2020/01/31 03:03:27.4	92.530	0.040	-0.150	0.600
2020/01/31 03:03:27.5	92.530	0.020	-0.120	0.600
2020/01/31 03:03:27.6	92.540	-0.000	-0.100	0.610
2020/01/31 03:03:27.7	92.540	-0.020	-0.080	0.620
2020/01/31 03:03:27.8	92.540	-0.040	-0.060	0.630
2020/01/31 03:03:27.9	92.540	-0.060	-0.040	0.640
2020/01/31 03:03:28.0	92.540	-0.080	-0.030	0.660
2020/01/31 03:03:28.1	92.540	-0.090	-0.020	0.670
2020/01/31 03:03:28.2	92.540	-0.100	-0.010	0.680
2020/01/31 03:03:28.3	92.540	-0.110	-0.010	0.700
2020/01/31 03:03:28.4	92.540	-0.120	-0.010	0.710
2020/01/31 03:03:28.5	92.540	-0.120	-0.010	0.730
2020/01/31 03:03:28.6	92.530	-0.130	-0.020	0.750
2020/01/31 03:03:28.7	92.530	-0.130	-0.030	0.760
2020/01/31 03:03:28.8	92.530	-0.130	-0.040	0.780
2020/01/31 03:03:28.9	92.530	-0.120	-0.060	0.800
2020/01/31 03:03:29.0	92.520	-0.120	-0.080	0.820
2020/01/31 03:03:29.1	92.510	-0.110	-0.100	0.830
2020/01/31 03:03:29.2	92.510	-0.110	-0.130	0.850
2020/01/31 03:03:29.3	92.510	-0.100	-0.150	0.870
2020/01/31 03:03:29.4	92.510	-0.090	-0.180	0.890
2020/01/31 03:03:29.5	92.500	-0.080	-0.210	0.900
2020/01/31 03:03:29.6	92.500	-0.060	-0.240	0.920
2020/01/31 03:03:29.7	92.500	-0.050	-0.260	0.930
2020/01/31 03:03:29.8	92.510	-0.040	-0.290	0.950
2020/01/31 03:03:29.9	92.510	-0.030	-0.320	0.960
2020/01/31 03:03:30.0	92.510	-0.010	-0.350	0.970
2020/01/31 03:03:30.1	92.510	0.000	-0.370	0.990
2020/01/31 03:03:30.2	92.520	0.010	-0.390	1.000
2020/01/31 03:03:30.3	92.520	0.030	-0.410	1.010
2020/01/31 03:03:30.4	92.530	0.040	-0.440	1.020
2020/01/31 03:03:30.5	92.530	0.050	-0.460	1.030
2020/01/31 03:03:30.6	92.540	0.060	-0.480	1.040
2020/01/31 03:03:30.7	92.550	0.070	-0.490	1.050
2020/01/31 03:03:30.8	92.550	0.080	-0.510	1.060
2020/01/31 03:03:30.9	92.560	0.090	-0.520	1.070
2020/01/31 03:03:31.0	92.570	0.100	-0.530	1.080
2020/01/31 03:03:31.1	92.570	0.110	-0.540	1.090
2020/01/31 03:03:31.2	92.580	0.110	-0.550	1.100
2020/01/31 03:03:31.3	92.590	0.120	-0.560	1.120
2020/01/31 03:03:31.4	92.600	0.120	-0.560	1.130
2020/01/31 03:03:31.5	92.600	0.130	-0.570	1.150
2020/01/31 03:03:31.6	92.610	0.130	-0.570	1.170
2020/01/31 03:03:31.7	92.620	0.130	-0.560	1.190
2020/01/31 03:03:31.8	92.620	0.130	-0.560	1.210
2020/01/31 03:03:31.9	92.630	0.130	-0.550	1.230
2020/01/31 03:03:32.0	92.640	0.130	-0.540	1.250
2020/01/31 03:03:32.1	92.630	0.120	-0.530	1.270
2020/01/31 03:03:32.2	92.630	0.120	-0.510	1.290
2020/01/31 03:03:32.3	92.630	0.110	-0.490	1.310
2020/01/31 03:03:32.4	92.640	0.100	-0.460	1.340
2020/01/31 03:03:32.5	92.630	0.080	-0.430	1.360
2020/01/31 03:03:32.6	92.630	0.070	-0.400	1.380
2020/01/31 03:03:32.7	92.630	0.050	-0.360	1.400
2020/01/31 03:03:32.8	92.630	0.030	-0.320	1.420
2020/01/31 03:03:32.9	92.620	0.010	-0.270	1.430
2020/01/31 03:03:33.0	92.620	-0.020	-0.230	1.440
2020/01/31 03:03:33.1	92.610	-0.040	-0.170	1.450
2020/01/31 03:03:33.2	92.600	-0.070	-0.120	1.460
2020/01/31 03:03:33.3	92.590	-0.100	-0.060	1.460
2020/01/31 03:03:33.4	92.580	-0.130	-0.000	1.460
2020/01/31 03:03:33.5	92.570	-0.160	0.060	1.460
2020/01/31 03:03:33.6	92.560	-0.200	0.120	1.450
2020/01/31 03:03:33.7	92.550	-0.230	0.180	1.450
2020/01/31 03:03:33.8	92.540	-0.270	0.230	1.440
2020/01/31 03:03:33.9	92.530	-0.300	0.290	1.420
2020/01/31 03:03:34.0	92.510	-0.340	0.340	1.410
2020/01/31 03:03:34.1	92.490	-0.370	0.390	1.380
2020/01/31 03:03:34.2	92.480	-0.400	0.440	1.360
2020/01/31 03:03:34.3	92.470	-0.430	0.480	1.340
2020/01/31 03:03:34.4	92.450	-0.460	0.520	1.320
2020/01/31 03:03:34.5	92.440	-0.480	0.550	1.290
2020/01/31 03:03:34.6	92.420	-0.510	0.570	1.270
2020/01/31 03:03:34.7	92.410	-0.530	0.590	1.240
2020/01/31 03:03:34.8	92.390	-0.540	0.600	1.210
2020/01/31 03:03:34.9	92.370	-0.550	0.600	1.180
2020/01/31 03:03:35.0	92.360	-0.560	0.590	1.150
2020/01/31 03:03:35.1	92.340	-0.560	0.570	1.120
2020/01/31 03:03:35.2	92.320	-0.560	0.550	1.090
2020/01/31 03:03:35.3	92.310	-0.550	0.510	1.050
2020/01/31 03:03:35.4	92.300	-0.530	0.460	1.020
2020/01/31 03:03:35.5	92.280	-0.510	0.410	0.980
2020/01/31 03:03:35.6	92.280	-0.490	0.350	0.940
2020/01/31 03:03:35.7	92.270	-0.460	0.280	0.900
2020/01/31 03:03:35.8	92.260	-0.430	0.200	0.860
2020/01/31 03:03:35.9	92.260	-0.390	0.120	0.810
2020/01/31 03:03:36.0	92.260	-0.350	0.030	0.770
2020/01/31 03:03:36.1	92.250	-0.300	-0.060	0.720
2020/01/31 03:03:36.2	92.260	-0.250	-0.150	0.670
2020/01/31 03:03:36.3	92.260	-0.200	-0.250	0.620
2020/01/31 03:03:36.4	92.270	-0.150	-0.350	0.570
2020/01/31 03:03:36.5	92.280	-0.090	-0.440	0.520
2020/01/31 03:03:36.6	92.280	-0.040	-0.540	0.470
2020/01/31 03:03:36.7	92.300	0.020	-0.630	0.430
2020/01/31 03:03:36.8	92.310	0.070	-0.710	0.380
2020/01/31 03:03:36.9	92.320	0.120	-0.800	0.340
2020/01/31 03:03:37.0	92.330	0.180	-0.870	0.290
2020/01/31 03:03:37.1	92.340	0.230	-0.940	0.250
2020/01/31 03:03:37.2	92.350	0.270	-1.000	0.220
2020/01/31 03:03:37.3	92.360	0.320	-1.060	0.180
2020/01/31 03:03:37.4	92.370	0.360	-1.100	0.150
2020/01/31 03:03:37.5	92.380	0.400	-1.140	0.130
2020/01/31 03:03:37.6	92.390	0.430	-1.170	0.110
2020/01/31 03:03:37.7	92.390	0.470	-1.180	0.090
2020/01/31 03:03:37.8	92.400	0.490	-1.190	0.080
2020/01/31 03:03:37.9	92.400	0.510	-1.190	0.070
2020/01/31 03:03:38.0	92.400	0.530	-1.180	0.070
2020/01/31 03:03:38.1	92.400	0.540	-1.160	0.070
2020/01/31 03:03:38.2	92.400	0.550	-1.130	0.070
2020/01/31 03:03:38.3	92.400	0.550	-1.090	0.080
2020/01/31 03:03:38.4	92.400	0.550	-1.040	0.100
2020/01/31 03:03:38.5	92.400	0.540	-0.980	0.110
2020/01/31 03:03:38.6	92.400	0.530	-0.920	0.130
2020/01/31 03:03:38.7	92.400	0.510	-0.850	0.150
2020/01/31 03:03:38.8	92.400	0.490	-0.770	0.170
2020/01/31 03:03:38.9	92.390	0.470	-0.690	0.200
2020/01/31 03:03:39.0	92.390	0.440	-0.610	0.220
2020/01/31 03:03:39.1	92.400	0.410	-0.520	0.250
2020/01/31 03:03:39.2	92.390	0.380	-0.430	0.270
2020/01/31 03:03:39.3	92.390	0.350	-0.340	0.300
2020/01/31 03:03:39.4	92.390	0.310	-0.250	0.330
2020/01/31 03:03:39.5	92.380	0.270	-0.160	0.360
2020/01/31 03:03:39.6	92.380	0.230	-0.080	0.380
2020/01/31 03:03:39.7	92.370	0.190	0.010	0.410
2020/01/31 03:03:39.8	92.370	0.150	0.090	0.440
2020/01/31 03:03:39.9	92.360	0.110	0.160	0.470
2020/01/31 03:03:40.0	92.350	0.070	0.230	0.500
2020/01/31 03:03:40.1	92.340	0.030	0.300	0.530
2020/01/31 03:03:40.2	92.330	-0.010	0.360	0.560
2020/01/31 03:03:40.3	92.330	-0.050	0.410	0.590
2020/01/31 03:03:40.4	92.320	-0.080	0.450	0.620
2020/01/31 03:03:40.5	92.310	-0.110	0.490	0.650
2020/01/31 03:03:40.6	92.300	-0.140	0.510	0.680
2020/01/31 03:03:40.7	92.290	-0.170	0.530	0.710
2020/01/31 03:03:40.8	92.280	-0.190	0.540	0.740
2020/01/31 03:03:40.9	92.270	-0.210	0.540	0.770
2020/01/31 03:03:41.0	92.260	-0.230	0.530	0.800
2020/01/31 03:03:41.1	92.250	-0.240	0.510	0.830
2020/01/31 03:03:41.2	92.240	-0.250	0.480	0.850
2020/01/31 03:03:41.3	92.230	-0.250	0.450	0.880
2020/01/31 03:03:41.4	92.220	-0.260	0.410	0.910
2020/01/31 03:03:41.5	92.210	-0.250	0.360	0.930
2020/01/31 03:03:41.6	92.200	-0.250	0.300	0.950
2020/01/31 03:03:41.7	92.200	-0.240	0.240	0.970
2020/01/31 03:03:41.8	92.190	-0.230	0.170	0.980
2020/01/31 03:03:41.9	92.190	-0.210	0.100	1.000
2020/01/31 03:03:42.0	92.190	-0.200	0.020	1.000
2020/01/31 03:03:42.1	92.190	-0.170	-0.060	1.010
2020/01/31 03:03:42.2	92.200	-0.150	-0.140	1.020
2020/01/31 03:03:42.3	92.200	-0.130	-0.220	1.020
2020/01/31 03:03:42.4	92.210	-0.100	-0.310	1.010
2020/01/31 03:03:42.5	92.220	-0.070	-0.390	1.010
2020/01/31 03:03:42.6	92.220	-0.040	-0.480	1.010
2020/01/31 03:03:42.7	92.230	-0.000	-0.560	1.000
2020/01/31 03:03:42.8	92.240	0.030	-0.630	1.000
2020/01/31 03:03:42.9	92.250	0.060	-0.710	1.000
2020/01/31 03:03:43.0	92.260	0.090	-0.770	0.990
2020/01/31 03:03:43.1	92.270	0.120	-0.830	0.990
2020/01/31 03:03:43.2	92.280	0.150	-0.890	0.990
2020/01/31 03:03:43.3	92.290	0.180	-0.940	0.990
2020/01/31 03:03:43.4	92.290	0.210	-0.970	0.990
2020/01/31 03:03:43.5	92.290	0.230	-1.000	0.990
2020/01/31 03:03:43.6	92.290	0.260	-1.020	0.990
2020/01/31 03:03:43.7	92.290	0.270	-1.030	1.000
2020/01/31 03:03:43.8	92.290	0.290	-1.040	1.000
2020/01/31 03:03:43.9	92.290	0.300	-1.030	1.000
2020/01/31 03:03:44.0	92.280	0.310	-1.010	1.000
2020/01/31 03:03:44.1	92.290	0.310	-0.980	1.000
2020/01/31 03:03:44.2	92.280	0.310	-0.940	1.000
2020/01/31 03:03:44.3	92.280	0.310	-0.890	1.000
2020/01/31 03:03:44.4	92.280	0.300	-0.830	0.990
2020/01/31 03:03:44.5	92.280	0.280	-0.770	0.990
2020/01/31 03:03:44.6	92.280	0.270	-0.690	0.980
2020/01/31 03:03:44.7	92.280	0.240	-0.610	0.970
2020/01/31 03:03:44.8	92.280	0.220	-0.530	0.970
2020/01/31 03:03:44.9	92.280	0.190	-0.430	0.960
2020/01/31 03:03:45.0	92.280	0.160	-0.340	0.950
2020/01/31 03:03:45.1	92.300	0.120	-0.240	0.930
2020/01/31 03:03:45.2	92.300	0.090	-0.140	0.920
2020/01/31 03:03:45.3	92.310	0.050	-0.040	0.910
2020/01/31 03:03:45.4	92.320	0.000	0.060	0.900
2020/01/31 03:03:45.5	92.320	-0.040	0.160	0.890
2020/01/31 03:03:45.6	92.340	-0.080	0.260	0.890
2020/01/31 03:03:45.7	92.350	-0.120	0.350	0.880
2020/01/31 03:03:45.8	92.360	-0.170	0.440	0.870
2020/01/31 03:03:45.9	92.370	-0.210	0.520	0.870
2020/01/31 03:03:46.0	92.380	-0.250	0.590	0.860
2020/01/31 03:03:46.1	92.400	-0.290	0.660	0.870
2020/01/31 03:03:46.2	92.410	-0.330	0.720	0.860
2020/01/31 03:03:46.3	92.420	-0.360	0.780	0.870
2020/01/31 03:03:46.4	92.430	-0.390	0.820	0.870
2020/01/31 03:03:46.5	92.450	-0.420	0.850	0.870
2020/01/31 03:03:46.6	92.460	-0.440	0.870	0.870
2020/01/31 03:03:46.7	92.470	-0.470	0.880	0.870
2020/01/31 03:03:46.8	92.480	-0.480	0.890	0.870
2020/01/31 03:03:46.9	92.490	-0.500	0.880	0.870
2020/01/31 03:03:47.0	92.500	-0.500	0.860	0.870
2020/01/31 03:03:47.1	92.510	-0.510	0.830	0.860
2020/01/31 03:03:47.2	92.520	-0.510	0.790	0.850
2020/01/31 03:03:47.3	92.540	-0.510	0.740	0.840
2020/01/31 03:03:47.4	92.550	-0.500	0.680	0.820
2020/01/31 03:03:47.5	92.560	-0.480	0.610	0.800
2020/01/31 03:03:47.6	92.580	-0.470	0.530	0.780
2020/01/31 03:03:47.7	92.600	-0.450	0.450	0.750
2020/01/31 03:03:47.8	92.610	-0.420	0.360	0.720
2020/01/31 03:03:47.9	92.630	-0.390	0.270	0.690
2020/01/31 03:03:48.0	92.640	-0.360	0.170	0.650
2020/01/31 03:03:48.1	92.650	-0.320	0.070	0.610
2020/01/31 03:03:48.2	92.670	-0.280	-0.030	0.570
2020/01/31 03:03:48.3	92.690	-0.240	-0.140	0.530
2020/01/31 03:03:48.4	92.700	-0.200	-0.250	0.490
2020/01/31 03:03:48.5	92.720	-0.150	-0.350	0.450
2020/01/31 03:03:48.6	92.740	-0.110	-0.460	0.410
2020/01/31 03:03:48.7	92.760	-0.060	-0.560	0.380
2020/01/31 03:03:48.8	92.780	-0.010	-0.660	0.350
2020/01/31 03:03:48.9	92.800	0.040	-0.750	0.320
2020/01/31 03:03:49.0	92.810	0.090	-0.850	0.300
2020/01/31 03:03:49.1	92.830	0.140	-0.930	0.290
2020/01/31 03:03:49.2	92.840	0.190	-1.010	0.280
2020/01/31 03:03:49.3	92.850	0.240	-1.080	0.280
2020/01/31 03:03:49.4	92.860	0.290	-1.140	0.280
2020/01/31 03:03:49.5	92.870	0.330	-1.200	0.300
2020/01/31 03:03:49.6	92.870	0.370	-1.240	0.320
2020/01/31 03:03:49.7	92.870	0.410	-1.280	0.350
2020/01/31 03:03:49.8	92.870	0.440	-1.310	0.380
2020/01/31 03:03:49.9	92.860	0.470	-1.320	0.420
2020/01/31 03:03:50.0	92.850	0.500	-1.330	0.460
2020/01/31 03:03:50.1	92.840	0.520	-1.320	0.510
2020/01/31 03:03:50.2	92.830	0.540	-1.310	0.550
2020/01/31 03:03:50.3	92.810	0.550	-1.280	0.590
2020/01/31 03:03:50.4	92.790	0.550	-1.240	0.640
2020/01/31 03:03:50.5	92.770	0.550	-1.200	0.680
2020/01/31 03:03:50.6	92.750	0.550	-1.140	0.720
2020/01/31 03:03:50.7	92.720	0.540	-1.080	0.750
2020/01/31 03:03:50.8	92.690	0.520	-1.010	0.790
2020/01/31 03:03:50.9	92.670	0.500	-0.930	0.820
2020/01/31 03:03:51.0	92.640	0.470	-0.840	0.840
2020/01/31 03:03:51.1	92.620	0.440	-0.750	0.860
2020/01/31 03:03:51.2	92.590	0.400	-0.660	0.880
2020/01/31 03:03:51.3	92.560	0.360	-0.560	0.900
2020/01/31 03:03:51.4	92.530	0.320	-0.460	0.910
2020/01/31 03:03:51.5	92.500	0.270	-0.360	0.920
2020/01/31 03:03:51.6	92.480	0.220	-0.260	0.920
2020/01/31 03:03:51.7	92.450	0.170	-0.170	0.920
2020/01/31 03:03:51.8	92.430	0.110	-0.070	0.920
2020/01/31 03:03:51.9	92.400	0.060	0.020	0.920
2020/01/31 03:03:52.0	92.380	0.000	0.110	0.910
2020/01/31 03:03:52.1	92.360	-0.050	0.190	0.900
2020/01/31 03:03:52.2	92.350	-0.110	0.270	0.890
2020/01/31 03:03:52.3	92.340	-0.160	0.340	0.880
2020/01/31 03:03:52.4	92.330	-0.210	0.400	0.870
2020/01/31 03:03:52.5	92.320	-0.260	0.450	0.860
2020/01/31 03:03:52.6	92.310	-0.300	0.500	0.850
2020/01/31 03:03:52.7	92.310	-0.340	0.540	0.840
2020/01/31 03:03:52.8	92.310	-0.380	0.560	0.830
2020/01/31 03:03:52.9	92.310	-0.420	0.580	0.820
2020/01/31 03:03:53.0	92.320	-0.450	0.590	0.810
2020/01/31 03:03:53.1	92.330	-0.470	0.600	0.800
2020/01/31 03:03:53.2	92.340	-0.490	0.590	0.790
2020/01/31 03:03:53.3	92.350	-0.510	0.570	0.780
2020/01/31 03:03:53.4	92.360	-0.520	0.550	0.770
2020/01/31 03:03:53.5	92.370	-0.520	0.520	0.760
2020/01/31 03:03:53.6	92.380	-0.520	0.480	0.750
2020/01/31 03:03:53.7	92.390	-0.520	0.430	0.740
2020/01/31 03:03:53.8	92.410	-0.510	0.380	0.720
2020/01/31 03:03:53.9	92.420	-0.500	0.320	0.710
2020/01/31 03:03:54.0	92.440	-0.480	0.260	0.690
2020/01/31 03:03:54.1	92.450	-0.450	0.180	0.670
2020/01/31 03:03:54.2	92.470	-0.420	0.110	0.650
2020/01/31 03:03:54.3	92.490	-0.390	0.040	0.630
2020/01/31 03:03:54.4	92.500	-0.360	-0.040	0.600
2020/01/31 03:03:54.5	92.510	-0.320	-0.120	0.570
2020/01/31 03:03:54.6	92.530	-0.280	-0.200	0.550
2020/01/31 03:03:54.7	92.540	-0.240	-0.270	0.510
2020/01/31 03:03:54.8	92.550	-0.200	-0.350	0.480
2020/01/31 03:03:54.9	92.560	-0.150	-0.420	0.450
2020/01/31 03:03:55.0	92.570	-0.110	-0.490	0.420
2020/01/31 03:03:55.1	92.570	-0.070	-0.560	0.380
2020/01/31 03:03:55.2	92.570	-0.020	-0.610	0.350
2020/01/31 03:03:55.3	92.580	0.020	-0.670	0.320
2020/01/31 03:03:55.4	92.580	0.060	-0.710	0.290
2020/01/31 03:03:55.5	92.580	0.100	-0.750	0.260
2020/01/31 03:03:55.6	92.580	0.130	-0.780	0.240
2020/01/31 03:03:55.7	92.580	0.160	-0.800	0.220
2020/01/31 03:03:55.8	92.570	0.190	-0.810	0.200
2020/01/31 03:03:55.9	92.570	0.220	-0.820	0.190
2020/01/31 03:03:56.0	92.560	0.240	-0.810	0.190
2020/01/31 03:03:56.1	92.570	0.260	-0.800	0.180
2020/01/31 03:03:56.2	92.560	0.270	-0.770	0.180
2020/01/31 03:03:56.3	92.560	0.280	-0.740	0.190
2020/01/31 03:03:56.4	92.550	0.290	-0.700	0.190
2020/01/31 03:03:56.5	92.540	0.290	-0.660	0.210
2020/01/31 03:03:56.6	92.540	0.290	-0.610	0.230
2020/01/31 03:03:56.7	92.530	0.280	-0.550	0.250
2020/01/31 03:03:56.8	92.520	0.270	-0.490	0.270
2020/01/31 03:03:56.9	92.510	0.260	-0.420	0.300
2020/01/31 03:03:57.0	92.510	0.240	-0.350	0.330
2020/01/31 03:03:57.1	92.500	0.220	-0.280	0.350
2020/01/31 03:03:57.2	92.500	0.200	-0.210	0.390
2020/01/31 03:03:57.3	92.500	0.180	-0.140	0.420
2020/01/31 03:03:57.4	92.490	0.150	-0.070	0.450
2020/01/31 03:03:57.5	92.490	0.130	0.000	0.480
2020/01/31 03:03:57.6	92.490	0.100	0.070	0.510
2020/01/31 03:03:57.7	92.490	0.070	0.130	0.540
2020/01/31 03:03:57.8	92.490	0.050	0.190	0.560
2020/01/31 03:03:57.9	92.500	0.020	0.240	0.580
2020/01/31 03:03:58.0	92.500	-0.000	0.280	0.600
2020/01/31 03:03:58.1	92.510	-0.020	0.320	0.620
2020/01/31 03:03:58.2	92.520	-0.040	0.350	0.630
2020/01/31 03:03:58.3	92.530	-0.060	0.370	0.640
2020/01/31 03:03:58.4	92.540	-0.080	0.380	0.650
2020/01/31 03:03:58.5	92.550	-0.090	0.380	0.650
2020/01/31 03:03:58.6	92.560	-0.090	0.370	0.650
2020/01/31 03:03:58.7	92.570	-0.100	0.360	0.650
2020/01/31 03:03:58.8	92.580	-0.100	0.330	0.640
2020/01/31 03:03:58.9	92.590	-0.090	0.290	0.640
2020/01/31 03:03:59.0	92.600	-0.080	0.250	0.640
2020/01/31 03:03:59.1	92.600	-0.070	0.190	0.630
2020/01/31 03:03:59.2	92.610	-0.050	0.130	0.630
2020/01/31 03:03:59.3	92.610	-0.030	0.070	0.630
2020/01/31 03:03:59.4	92.610	-0.010	-0.000	0.620
2020/01/31 03:03:59.5	92.600	0.010	-0.080	0.630
2020/01/31 03:03:59.6	92.590	0.040	-0.150	0.630
2020/01/31 03:03:59.7	92.580	0.070	-0.230	0.640
2020/01/31 03:03:59.8	92.570	0.100	-0.300	0.640
2020/01/31 03:03:59.9	92.550	0.130	-0.370	0.650
2020/01/31 03:04:00.0	92.530	0.150	-0.440	0.660
2020/01/31 03:04:00.1	92.500	0.180	-0.510	0.670
2020/01/31 03:04:00.2	92.480	0.210	-0.570	0.680
2020/01/31 03:04:00.3	92.460	0.230	-0.630	0.700
2020/01/31 03:04:00.4	92.430	0.260	-0.680	0.710
2020/01/31 03:04:00.5	92.400	0.280	-0.720	0.730
2020/01/31 03:04:00.6	92.370	0.300	-0.760	0.750
2020/01/31 03:04:00.7	92.340	0.310	-0.780	0.770
2020/01/31 03:04:00.8	92.310	0.320	-0.800	0.780
2020/01/31 03:04:00.9	92.280	0.330	-0.810	0.800
2020/01/31 03:04:01.0	92.250	0.340	-0.820	0.820
2020/01/31 03:04:01.1	92.230	0.340	-0.810	0.840
2020/01/31 03:04:01.2	92.200	0.330	-0.800	0.850
2020/01/31 03:04:01.3	92.170	0.330	-0.780	0.870
2020/01/31 03:04:01.4	92.150	0.320	-0.750	0.880
2020/01/31 03:04:01.5	92.120	0.310	-0.720	0.890
2020/01/31 03:04:01.6	92.100	0.290	-0.680	0.890
2020/01/31 03:04:01.7	92.090	0.280	-0.640	0.900
2020/01/31 03:04:01.8	92.070	0.260	-0.590	0.900
2020/01/31 03:04:01.9	92.060	0.230	-0.530	0.900
2020/01/31 03:04:02.0	92.050	0.210	-0.480	0.900
2020/01/31 03:04:02.1	92.040	0.180	-0.420	0.890
2020/01/31 03:04:02.2	92.040	0.160	-0.360	0.880
2020/01/31 03:04:02.3	92.040	0.130	-0.300	0.870
2020/01/31 03:04:02.4	92.040	0.100	-0.240	0.860
2020/01/31 03:04:02.5	92.050	0.070	-0.190	0.850
2020/01/31 03:04:02.6	92.060	0.040	-0.130	0.840
2020/01/31 03:04:02.7	92.070	0.020	-0.080	0.820
2020/01/31 03:04:02.8	92.090	-0.010	-0.040	0.810
2020/01/31 03:04:02.9	92.100	-0.030	0.010	0.800
2020/01/31 03:04:03.0	92.120	-0.060	0.040	0.790
2020/01/31 03:04:03.1	92.140	-0.080	0.080	0.780
2020/01/31 03:04:03.2	92.160	-0.100	0.100	0.770
2020/01/31 03:04:03.3	92.180	-0.110	0.120	0.760
2020/01/31 03:04:03.4	92.200	-0.130	0.130	0.750
2020/01/31 03:04:03.5	92.220	-0.140	0.130	0.740
2020/01/31 03:04:03.6	92.250	-0.150	0.130	0.730
2020/01/31 03:04:03.7	92.270	-0.160	0.120	0.720
2020/01/31 03:04:03.8	92.290	-0.160	0.100	0.720
2020/01/31 03:04:03.9	92.310	-0.160	0.080	0.710
2020/01/31 03:04:04.0	92.330	-0.160	0.050	0.710
2020/01/31 03:04:04.1	92.360	-0.160	0.010	0.700
2020/01/31 03:04:04.2	92.380	-0.160	-0.020	0.690
2020/01/31 03:04:04.3	92.400	-0.150	-0.060	0.690
2020/01/31 03:04:04.4	92.410	-0.150	-0.100	0.680
2020/01/31 03:04:04.5	92.430	-0.140	-0.140	0.670
2020/01/31 03:04:04.6	92.440	-0.130	-0.180	0.670
2020/01/31 03:04:04.7	92.460	-0.120	-0.220	0.660
2020/01/31 03:04:04.8	92.470	-0.110	-0.260	0.660
2020/01/31 03:04:04.9	92.480	-0.110	-0.290	0.660
2020/01/31 03:04:05.0	92.480	-0.100	-0.330	0.660
2020/01/31 03:04:05.1	92.480	-0.090	-0.350	0.660
2020/01/31 03:04:05.2	92.480	-0.090	-0.370	0.660
2020/01/31 03:04:05.3	92.480	-0.080	-0.380	0.670
2020/01/31 03:04:05.4	92.480	-0.080	-0.390	0.680
2020/01/31 03:04:05.5	92.480	-0.080	-0.390	0.700
2020/01/31 03:04:05.6	92.470	-0.090	-0.380	0.720
2020/01/31 03:04:05.7	92.460	-0.090	-0.360	0.740
2020/01/31 03:04:05.8	92.450	-0.100	-0.340	0.760
2020/01/31 03:04:05.9	92.440	-0.110	-0.310	0.790
2020/01/31 03:04:06.0	92.430	-0.120	-0.270	0.820
2020/01/31 03:04:06.1	92.420	-0.140	-0.230	0.860
2020/01/31 03:04:06.2	92.400	-0.150	-0.180	0.890
2020/01/31 03:04:06.3	92.390	-0.170	-0.130	0.930
2020/01/31 03:04:06.4	92.380	-0.190	-0.070	0.970
2020/01/31 03:04:06.5	92.360	-0.210	-0.010	1.000
2020/01/31 03:04:06.6	92.350	-0.230	0.050	1.040
2020/01/31 03:04:06.7	92.340	-0.250	0.110	1.080
2020/01/31 03:04:06.8	92.330	-0.280	0.170	1.110
2020/01/31 03:04:06.9	92.320	-0.300	0.220	1.140
2020/01/31 03:04:07.0	92.310	-0.320	0.280	1.170
2020/01/31 03:04:07.1	92.290	-0.340	0.330	1.200
2020/01/31 03:04:07.2	92.280	-0.370	0.370	1.230
2020/01/31 03:04:07.3	92.280	-0.380	0.410	1.250
2020/01/31 03:04:07.4	92.270	-0.400	0.450	1.260
2020/01/31 03:04:07.5	92.270	-0.420	0.470	1.280
2020/01/31 03:04:07.6	92.260	-0.430	0.480	1.280
2020/01/31 03:04:07.7	92.260	-0.440	0.490	1.280
2020/01/31 03:04:07.8	92.260	-0.450	0.490	1.280
2020/01/31 03:04:07.9	92.250	-0.450	0.470	1.270
2020/01/31 03:04:08.0	92.250	-0.450	0.450	1.260
2020/01/31 03:04:08.1	92.250	-0.450	0.420	1.240
2020/01/31 03:04:08.2	92.250	-0.440	0.370	1.220
2020/01/31 03:04:08.3	92.260	-0.430	0.320	1.190
2020/01/31 03:04:08.4	92.260	-0.410	0.260	1.160
2020/01/31 03:04:08.5	92.260	-0.390	0.200	1.130
2020/01/31 03:04:08.6	92.260	-0.370	0.120	1.100
2020/01/31 03:04:08.7	92.260	-0.340	0.040	1.060
2020/01/31 03:04:08.8	92.270	-0.310	-0.050	1.020
2020/01/31 03:04:08.9	92.270	-0.270	-0.140	0.980
2020/01/31 03:04:09.0	92.280	-0.230	-0.240	0.940
2020/01/31 03:04:09.1	92.280	-0.190	-0.340	0.900
2020/01/31 03:04:09.2	92.290	-0.140	-0.430	0.860
2020/01/31 03:04:09.3	92.290	-0.090	-0.530	0.820
2020/01/31 03:04:09.4	92.300	-0.040	-0.630	0.780
2020/01/31 03:04:09.5	92.310	0.020	-0.720	0.740
2020/01/31 03:04:09.6	92.320	0.070	-0.810	0.700
2020/01/31 03:04:09.7	92.320	0.120	-0.900	0.670
2020/01/31 03:04:09.8	92.330	0.180	-0.970	0.640
2020/01/31 03:04:09.9	92.340	0.230	-1.040	0.610
2020/01/31 03:04:10.0	92.350	0.280	-1.100	0.590
2020/01/31 03:04:10.1	92.360	0.330	-1.160	0.560
2020/01/31 03:04:10.2	92.370	0.380	-1.200	0.550
2020/01/31 03:04:10.3	92.380	0.430	-1.240	0.530
2020/01/31 03:04:10.4	92.390	0.470	-1.260	0.530
2020/01/31 03:04:10.5	92.390	0.510	-1.270	0.520
2020/01/31 03:04:10.6	92.400	0.550	-1.270	0.520
2020/01/31 03:04:10.7	92.410	0.580	-1.270	0.520
2020/01/31 03:04:10.8	92.410	0.600	-1.250	0.520
2020/01/31 03:04:10.9	92.420	0.630	-1.220	0.520
2020/01/31 03:04:11.0	92.420	0.640	-1.180	0.530
2020/01/31 03:04:11.1	92.430	0.650	-1.130	0.530
2020/01/31 03:04:11.2	92.430	0.660	-1.070	0.540
2020/01/31 03:04:11.3	92.440	0.660	-1.000	0.540
2020/01/31 03:04:11.4	92.440	0.660	-0.930	0.550
2020/01/31 03:04:11.5	92.440	0.650	-0.850	0.550
2020/01/31 03:04:11.6	92.440	0.640	-0.770	0.560
2020/01/31 03:04:11.7	92.440	0.620	-0.680	0.560
2020/01/31 03:04:11.8	92.440	0.600	-0.590	0.560
2020/01/31 03:04:11.9	92.450	0.570	-0.490	0.560
2020/01/31 03:04:12.0	92.450	0.540	-0.390	0.560
2020/01/31 03:04:12.1	92.450	0.510	-0.300	0.560
2020/01/31 03:04:12.2	92.450	0.470	-0.200	0.560
2020/01/31 03:04:12.3	92.460	0.440	-0.100	0.560
2020/01/31 03:04:12.4	92.460	0.400	-0.010	0.560
2020/01/31 03:04:12.5	92.460	0.360	0.080	0.560
2020/01/31 03:04:12.6	92.470	0.320	0.160	0.570
2020/01/31 03:04:12.7	92.470	0.270	0.240	0.570
2020/01/31 03:04:12.8	92.480	0.230	0.310	0.570
2020/01/31 03:04:12.9	92.480	0.190	0.380	0.580
2020/01/31 03:04:13.0	92.480	0.150	0.430	0.590
2020/01/31 03:04:13.1	92.500	0.120	0.480	0.600
2020/01/31 03:04:13.2	92.500	0.080	0.520	0.620
2020/01/31 03:04:13.3	92.500	0.050	0.540	0.640
2020/01/31 03:04:13.4	92.500	0.020	0.560	0.660
2020/01/31 03:04:13.5	92.490	-0.000	0.570	0.680
2020/01/31 03:04:13.6	92.490	-0.030	0.570	0.700
2020/01/31 03:04:13.7	92.490	-0.040	0.550	0.720
2020/01/31 03:04:13.8	92.480	-0.060	0.530	0.750
2020/01/31 03:04:13.9	92.480	-0.070	0.500	0.770
2020/01/31 03:04:14.0	92.480	-0.070	0.460	0.780
2020/01/31 03:04:14.1	92.460	-0.080	0.420	0.800
2020/01/31 03:04:14.2	92.460	-0.080	0.370	0.810
2020/01/31 03:04:14.3	92.470	-0.080	0.310	0.810
2020/01/31 03:04:14.4	92.470	-0.070	0.250	0.820
2020/01/31 03:04:14.5	92.480	-0.060	0.180	0.820
2020/01/31 03:04:14.6	92.490	-0.060	0.120	0.810
2020/01/31 03:04:14.7	92.500	-0.050	0.050	0.800
2020/01/31 03:04:14.8	92.520	-0.030	-0.020	0.790
2020/01/31 03:04:14.9	92.530	-0.020	-0.080	0.780
2020/01/31 03:04:15.0	92.550	-0.010	-0.150	0.760
2020/01/31 03:04:15.1	92.580	0.000	-0.210	0.740
2020/01/31 03:04:15.2	92.600	0.020	-0.270	0.720
2020/01/31 03:04:15.3	92.630	0.030	-0.320	0.690
2020/01/31 03:04:15.4	92.650	0.040	-0.370	0.670
2020/01/31 03:04:15.5	92.680	0.050	-0.410	0.650
2020/01/31 03:04:15.6	92.710	0.060	-0.450	0.640
2020/01/31 03:04:15.7	92.740	0.060	-0.480	0.620
2020/01/31 03:04:15.8	92.770	0.070	-0.500	0.610
2020/01/31 03:04:15.9	92.800	0.070	-0.520	0.600
2020/01/31 03:04:16.0	92.830	0.070	-0.530	0.590
2020/01/31 03:04:16.1	92.860	0.070	-0.540	0.580
2020/01/31 03:04:16.2	92.890	0.070	-0.530	0.580
2020/01/31 03:04:16.3	92.920	0.070	-0.530	0.590
2020/01/31 03:04:16.4	92.950	0.060	-0.510	0.600
2020/01/31 03:04:16.5	92.970	0.050	-0.500	0.610
2020/01/31 03:04:16.6	93.000	0.040	-0.480	0.620
2020/01/31 03:04:16.7	93.020	0.030	-0.450	0.640
2020/01/31 03:04:16.8	93.040	0.020	-0.430	0.660
2020/01/31 03:04:16.9	93.070	0.010	-0.400	0.680
2020/01/31 03:04:17.0	93.090	-0.010	-0.370	0.700
2020/01/31 03:04:17.1	93.110	-0.020	-0.330	0.730
2020/01/31 03:04:17.2	93.120	-0.040	-0.300	0.750
2020/01/31 03:04:17.3	93.140	-0.050	-0.270	0.780
2020/01/31 03:04:17.4	93.160	-0.070	-0.240	0.800
2020/01/31 03:04:17.5	93.170	-0.080	-0.210	0.820
2020/01/31 03:04:17.6	93.180	-0.100	-0.190	0.850
2020/01/31 03:04:17.7	93.190	-0.110	-0.170	0.870
2020/01/31 03:04:17.8	93.200	-0.130	-0.150	0.890
2020/01/31 03:04:17.9	93.200	-0.140	-0.130	0.910
2020/01/31 03:04:18.0	93.210	-0.150	-0.110	0.920
2020/01/31 03:04:18.1	93.210	-0.170	-0.100	0.940
2020/01/31 03:04:18.2	93.210	-0.180	-0.090	0.950
2020/01/31 03:04:18.3	93.210	-0.190	-0.080	0.970
2020/01/31 03:04:18.4	93.200	-0.200	-0.070	0.980
2020/01/31 03:04:18.5	93.200	-0.210	-0.070	0.990
2020/01/31 03:04:18.6	93.200	-0.220	-0.060	1.000
2020/01/31 03:04:18.7	93.190	-0.220	-0.060	1.010
2020/01/31 03:04:18.8	93.190	-0.230	-0.060	1.010
2020/01/31 03:04:18.9	93.180	-0.240	-0.070	1.020
2020/01/31 03:04:19.0	93.170	-0.250	-0.070	1.030
2020/01/31 03:04:19.1	93.160	-0.250	-0.070	1.030
2020/01/31 03:04:19.2	93.150	-0.260	-0.080	1.040
2020/01/31 03:04:19.3	93.150	-0.270	-0.080	1.040
2020/01/31 03:04:19.4	93.140	-0.270	-0.090	1.040
2020/01/31 03:04:19.5	93.130	-0.280	-0.100	1.040
2020/01/31 03:04:19.6	93.120	-0.280	-0.100	1.040
2020/01/31 03:04:19.7	93.120	-0.280	-0.110	1.040
2020/01/31 03:04:19.8	93.110	-0.290	-0.120	1.040
2020/01/31 03:04:19.9	93.110	-0.290	-0.130	1.030
2020/01/31 03:04:20.0	93.100	-0.290	-0.140	1.020
2020/01/31 03:04:20.1	93.110	-0.290	-0.150	1.010
2020/01/31 03:04:20.2	93.100	-0.290	-0.160	0.990
2020/01/31 03:04:20.3	93.100	-0.290	-0.170	0.970
2020/01/31 03:04:20.4	93.100	-0.290	-0.190	0.950
2020/01/31 03:04:20.5	93.100	-0.280	-0.200	0.930
2020/01/31 03:04:20.6	93.100	-0.280	-0.220	0.910
2020/01/31 03:04:20.7	93.100	-0.270	-0.230	0.880
2020/01/31 03:04:20.8	93.100	-0.260	-0.250	0.850
2020/01/31 03:04:20.9	93.100	-0.250	-0.270	0.820
2020/01/31 03:04:21.0	93.110	-0.230	-0.290	0.790
2020/01/31 03:04:21.1	93.120	-0.220	-0.310	0.760
2020/01/31 03:04:21.2	93.120	-0.200	-0.330	0.730
2020/01/31 03:04:21.3	93.130	-0.180	-0.350	0.690
2020/01/31 03:04:21.4	93.140	-0.160	-0.380	0.660
2020/01/31 03:04:21.5	93.150	-0.130	-0.400	0.640
2020/01/31 03:04:21.6	93.160	-0.110	-0.420	0.610
2020/01/31 03:04:21.7	93.170	-0.080	-0.450	0.580
2020/01/31 03:04:21.8	93.180	-0.050	-0.470	0.560
2020/01/31 03:04:21.9	93.190	-0.020	-0.490	0.530
2020/01/31 03:04:22.0	93.210	0.010	-0.520	0.510
2020/01/31 03:04:22.1	93.230	0.040	-0.540	0.490
2020/01/31 03:04:22.2	93.240	0.060	-0.550	0.470
2020/01/31 03:04:22.3	93.260	0.090	-0.570	0.450
2020/01/31 03:04:22.4	93.270	0.120	-0.580	0.430
2020/01/31 03:04:22.5	93.280	0.140	-0.580	0.420
2020/01/31 03:04:22.6	93.300	0.160	-0.580	0.400
2020/01/31 03:04:22.7	93.310	0.180	-0.570	0.390
2020/01/31 03:04:22.8	93.320	0.190	-0.560	0.380
2020/01/31 03:04:22.9	93.320	0.200	-0.540	0.370
2020/01/31 03:04:23.0	93.330	0.210	-0.520	0.350
2020/01/31 03:04:23.1	93.320	0.210	-0.500	0.340
2020/01/31 03:04:23.2	93.320	0.210	-0.460	0.330
2020/01/31 03:04:23.3	93.320	0.200	-0.430	0.320
2020/01/31 03:04:23.4	93.320	0.190	-0.390	0.320
2020/01/31 03:04:23.5	93.320	0.180	-0.340	0.310
2020/01/31 03:04:23.6	93.310	0.160	-0.300	0.310
2020/01/31 03:04:23.7	93.310	0.140	-0.250	0.300
2020/01/31 03:04:23.8	93.300	0.110	-0.200	0.300
2020/01/31 03:04:23.9	93.290	0.090	-0.140	0.300
2020/01/31 03:04:24.0	93.280	0.060	-0.090	0.300
2020/01/31 03:04:24.1	93.250	0.030	-0.030	0.300
2020/01/31 03:04:24.2	93.240	-0.010	0.020	0.300
2020/01/31 03:04:24.3	93.220	-0.040	0.070	0.310
2020/01/31 03:04:24.4	93.200	-0.070	0.120	0.310
2020/01/31 03:04:24.5	93.190	-0.110	0.170	0.320
2020/01/31 03:04:24.6	93.170	-0.140	0.210	0.330
2020/01/31 03:04:24.7	93.150	-0.170	0.250	0.340
2020/01/31 03:04:24.8	93.130	-0.190	0.280	0.350
2020/01/31 03:04:24.9	93.110	-0.220	0.310	0.360
2020/01/31 03:04:25.0	93.090	-0.240	0.330	0.370
2020/01/31 03:04:25.1	93.070	-0.260	0.350	0.380
2020/01/31 03:04:25.2	93.060	-0.280	0.360	0.390
2020/01/31 03:04:25.3	93.040	-0.290	0.360	0.400
2020/01/31 03:04:25.4	93.030	-0.290	0.360	0.420
2020/01/31 03:04:25.5	93.020	-0.290	0.350	0.430
2020/01/31 03:04:25.6	93.010	-0.290	0.340	0.440
2020/01/31 03:04:25.7	93.000	-0.290	0.310	0.450
2020/01/31 03:04:25.8	92.990	-0.270	0.280	0.460
2020/01/31 03:04:25.9	92.990	-0.260	0.250	0.470
2020/01/31 03:04:26.0	92.980	-0.240	0.210	0.480
2020/01/31 03:04:26.1	92.990	-0.220	0.160	0.490
2020/01/31 03:04:26.2	92.990	-0.190	0.110	0.490
2020/01/31 03:04:26.3	92.990	-0.160	0.050	0.500
2020/01/31 03:04:26.4	92.990	-0.130	-0.010	0.510
2020/01/31 03:04:26.5	93.000	-0.090	-0.070	0.510
2020/01/31 03:04:26.6	93.000	-0.050	-0.140	0.520
2020/01/31 03:04:26.7	93.010	-0.010	-0.210	0.520
2020/01/31 03:04:26.8	93.020	0.030	-0.280	0.530
2020/01/31 03:04:26.9	93.030	0.080	-0.350	0.530
2020/01/31 03:04:27.0	93.040	0.120	-0.420	0.540
2020/01/31 03:04:27.1	93.030	0.160	-0.500	0.540
2020/01/31 03:04:27.2	93.040	0.210	-0.570	0.550
2020/01/31 03:04:27.3	93.050	0.250	-0.640	0.550
2020/01/31 03:04:27.4	93.060	0.300	-0.700	0.560
2020/01/31 03:04:27.5	93.060	0.340	-0.770	0.560
2020/01/31 03:04:27.6	93.070	0.380	-0.830	0.570
2020/01/31 03:04:27.7	93.070	0.420	-0.880	0.570
2020/01/31 03:04:27.8	93.070	0.460	-0.930	0.570
2020/01/31 03:04:27.9	93.080	0.490	-0.980	0.580
2020/01/31 03:04:28.0	93.080	0.530	-1.020	0.590
2020/01/31 03:04:28.1	93.070	0.560	-1.040	0.590
2020/01/31 03:04:28.2	93.070	0.580	-1.060	0.600
2020/01/31 03:04:28.3	93.060	0.600	-1.080	0.610
2020/01/31 03:04:28.4	93.060	0.620	-1.080	0.620
2020/01/31 03:04:28.5	93.050	0.640	-1.080	0.640
2020/01/31 03:04:28.6	93.050	0.640	-1.060	0.660
2020/01/31 03:04:28.7	93.040	0.650	-1.040	0.670
2020/01/31 03:04:28.8	93.030	0.650	-1.010	0.700
2020/01/31 03:04:28.9	93.020	0.650	-0.970	0.720
2020/01/31 03:04:29.0	93.000	0.640	-0.920	0.750
2020/01/31 03:04:29.1	92.990	0.630	-0.860	0.780
2020/01/31 03:04:29.2	92.980	0.610	-0.790	0.810
2020/01/31 03:04:29.3	92.970	0.590	-0.720	0.840
2020/01/31 03:04:29.4	92.950	0.560	-0.640	0.880
2020/01/31 03:04:29.5	92.940	0.530	-0.560	0.920
2020/01/31 03:04:29.6	92.920	0.490	-0.470	0.950
2020/01/31 03:04:29.7	92.910	0.460	-0.380	0.990
2020/01/31 03:04:29.8	92.900	0.410	-0.280	1.030
2020/01/31 03:04:29.9	92.880	0.370	-0.180	1.070
2020/01/31 03:04:30.0	92.870	0.320	-0.080	1.110
2020/01/31 03:04:30.1	92.860	0.270	0.010	1.150
2020/01/31 03:04:30.2	92.850	0.220	0.110	1.180
2020/01/31 03:04:30.3	92.840	0.170	0.200	1.210
2020/01/31 03:04:30.4	92.830	0.110	0.290	1.240
2020/01/31 03:04:30.5	92.830	0.060	0.380	1.270
2020/01/31 03:04:30.6	92.820	0.000	0.460	1.290
2020/01/31 03:04:30.7	92.820	-0.050	0.530	1.300
2020/01/31 03:04:30.8	92.820	-0.110	0.600	1.320
2020/01/31 03:04:30.9	92.820	-0.160	0.660	1.320
2020/01/31 03:04:31.0	92.820	-0.210	0.710	1.330
2020/01/31 03:04:31.1	92.820	-0.260	0.750	1.320
2020/01/31 03:04:31.2	92.820	-0.300	0.780	1.310
2020/01/31 03:04:31.3	92.830	-0.340	0.800	1.300
2020/01/31 03:04:31.4	92.840	-0.380	0.820	1.290
2020/01/31 03:04:31.5	92.850	-0.410	0.820	1.270
2020/01/31 03:04:31.6	92.850	-0.440	0.810	1.250
2020/01/31 03:04:31.7	92.860	-0.470	0.790	1.220
2020/01/31 03:04:31.8	92.870	-0.490	0.760	1.200
2020/01/31 03:04:31.9	92.880	-0.500	0.720	1.170
2020/01/31 03:04:32.0	92.890	-0.510	0.670	1.140
2020/01/31 03:04:32.1	92.900	-0.510	0.610	1.110
2020/01/31 03:04:32.2	92.900	-0.510	0.540	1.080
2020/01/31 03:04:32.3	92.910	-0.500	0.470	1.050
2020/01/31 03:04:32.4	92.910	-0.490	0.390	1.020
2020/01/31 03:04:32.5	92.920	-0.470	0.300	1.000
2020/01/31 03:04:32.6	92.920	-0.450	0.210	0.970
2020/01/31 03:04:32.7	92.930	-0.430	0.120	0.940
2020/01/31 03:04:32.8	92.930	-0.400	0.020	0.910
2020/01/31 03:04:32.9	92.930	-0.370	-0.080	0.880
2020/01/31 03:04:33.0	92.930	-0.330	-0.170	0.860
2020/01/31 03:04:33.1	92.920	-0.300	-0.270	0.830
2020/01/31 03:04:33.2	92.910	-0.260	-0.360	0.810
2020/01/31 03:04:33.3	92.910	-0.220	-0.450	0.790
2020/01/31 03:04:33.4	92.910	-0.180	-0.530	0.770
2020/01/31 03:04:33.5	92.900	-0.140	-0.600	0.750
2020/01/31 03:04:33.6	92.900	-0.110	-0.670	0.740
2020/01/31 03:04:33.7	92.890	-0.070	-0.730	0.720
2020/01/31 03:04:33.8	92.890	-0.040	-0.780	0.710
2020/01/31 03:04:33.9	92.880	-0.000	-0.820	0.700
2020/01/31 03:04:34.0	92.880	0.030	-0.850	0.700
2020/01/31 03:04:34.1	92.870	0.050	-0.870	0.690
2020/01/31 03:04:34.2	92.860	0.070	-0.880	0.690
2020/01/31 03:04:34.3	92.860	0.090	-0.890	0.690
2020/01/31 03:04:34.4	92.850	0.110	-0.880	0.690
2020/01/31 03:04:34.5	92.850	0.120	-0.860	0.700
2020/01/31 03:04:34.6	92.840	0.130	-0.830	0.700
2020/01/31 03:04:34.7	92.840	0.130	-0.800	0.710
2020/01/31 03:04:34.8	92.830	0.130	-0.760	0.720
2020/01/31 03:04:34.9	92.830	0.120	-0.720	0.740
2020/01/31 03:04:35.0	92.830	0.110	-0.660	0.750
2020/01/31 03:04:35.1	92.830	0.100	-0.610	0.770
2020/01/31 03:04:35.2	92.820	0.090	-0.550	0.790
2020/01/31 03:04:35.3	92.820	0.070	-0.490	0.800
2020/01/31 03:04:35.4	92.820	0.050	-0.430	0.820
2020/01/31 03:04:35.5	92.820	0.030	-0.370	0.840
2020/01/31 03:04:35.6	92.830	0.000	-0.310	0.860
2020/01/31 03:04:35.7	92.830	-0.020	-0.260	0.880
2020/01/31 03:04:35.8	92.830	-0.050	-0.210	0.890
2020/01/31 03:04:35.9	92.830	-0.070	-0.160	0.910
2020/01/31 03:04:36.0	92.840	-0.100	-0.110	0.930
2020/01/31 03:04:36.1	92.830	-0.120	-0.080	0.940
2020/01/31 03:04:36.2	92.830	-0.140	-0.040	0.960
2020/01/31 03:04:36.3	92.840	-0.160	-0.020	0.980
2020/01/31 03:04:36.4	92.840	-0.180	-0.000	0.990
2020/01/31 03:04:36.5	92.840	-0.200	0.010	1.010
2020/01/31 03:04:36.6	92.850	-0.210	0.010	1.020
2020/01/31 03:04:36.7	92.850	-0.220	0.010	1.030
2020/01/31 03:04:36.8	92.850	-0.220	0.000	1.050
2020/01/31 03:04:36.9	92.860	-0.230	-0.020	1.060
2020/01/31 03:04:37.0	92.860	-0.230	-0.040	1.070
2020/01/31 03:04:37.1	92.860	-0.220	-0.060	1.080
2020/01/31 03:04:37.2	92.860	-0.210	-0.100	1.090
2020/01/31 03:04:37.3	92.860	-0.200	-0.130	1.100
2020/01/31 03:04:37.4	92.860	-0.190	-0.180	1.110
2020/01/31 03:04:37.5	92.860	-0.170	-0.220	1.120
2020/01/31 03:04:37.6	92.850	-0.160	-0.270	1.120
2020/01/31 03:04:37.7	92.850	-0.130	-0.310	1.130
2020/01/31 03:04:37.8	92.840	-0.110	-0.360	1.130
2020/01/31 03:04:37.9	92.830	-0.090	-0.410	1.140
2020/01/31 03:04:38.0	92.820	-0.060	-0.460	1.140
2020/01/31 03:04:38.1	92.800	-0.030	-0.500	1.130
2020/01/31 03:04:38.2	92.790	-0.000	-0.550	1.130
2020/01/31 03:04:38.3	92.780	0.030	-0.590	1.140
2020/01/31 03:04:38.4	92.760	0.060	-0.620	1.140
2020/01/31 03:04:38.5	92.750	0.090	-0.650	1.140
2020/01/31 03:04:38.6	92.730	0.120	-0.680	1.140
2020/01/31 03:04:38.7	92.710	0.140	-0.700	1.150
2020/01/31 03:04:38.8	92.690	0.170	-0.710	1.150
2020/01/31 03:04:38.9	92.670	0.200	-0.710	1.160
2020/01/31 03:04:39.0	92.650	0.220	-0.710	1.170
2020/01/31 03:04:39.1	92.630	0.240	-0.700	1.180
2020/01/31 03:04:39.2	92.610	0.250	-0.680	1.190
2020/01/31 03:04:39.3	92.590	0.270	-0.660	1.200
2020/01/31 03:04:39.4	92.570	0.280	-0.620	1.210
2020/01/31 03:04:39.5	92.550	0.290	-0.580	1.220
2020/01/31 03:04:39.6	92.530	0.290	-0.540	1.230
2020/01/31 03:04:39.7	92.510	0.290	-0.480	1.240
2020/01/31 03:04:39.8	92.500	0.290	-0.420	1.240
2020/01/31 03:04:39.9	92.480	0.280	-0.360	1.250
2020/01/31 03:04:40.0	92.470	0.270	-0.290	1.260
2020/01/31 03:04:40.1	92.460	0.250	-0.220	1.260
2020/01/31 03:04:40.2	92.450	0.230	-0.150	1.260
2020/01/31 03:04:40.3	92.440	0.210	-0.070	1.250
2020/01/31 03:04:40.4	92.430	0.190	0.000	1.250
2020/01/31 03:04:40.5	92.430	0.160	0.080	1.240
2020/01/31 03:04:40.6	92.430	0.130	0.150	1.230
2020/01/31 03:04:40.7	92.430	0.100	0.220	1.210
2020/01/31 03:04:40.8	92.440	0.070	0.280	1.190
2020/01/31 03:04:40.9	92.440	0.030	0.340	1.170
2020/01/31 03:04:41.0	92.450	-0.000	0.400	1.140
2020/01/31 03:04:41.1	92.470	-0.040	0.450	1.110
2020/01/31 03:04:41.2	92.480	-0.070	0.490	1.070
2020/01/31 03:04:41.3	92.490	-0.110	0.520	1.030
2020/01/31 03:04:41.4	92.510	-0.140	0.550	0.990
2020/01/31 03:04:41.5	92.530	-0.170	0.560	0.940
2020/01/31 03:04:41.6	92.550	-0.200	0.570	0.900
2020/01/31 03:04:41.7	92.570	-0.230	0.570	0.850
2020/01/31 03:04:41.8	92.600	-0.260	0.560	0.800
2020/01/31 03:04:41.9	92.620	-0.280	0.540	0.740
2020/01/31 03:04:42.0	92.650	-0.300	0.510	0.690
2020/01/31 03:04:42.1	92.670	-0.310	0.470	0.630
2020/01/31 03:04:42.2	92.700	-0.320	0.420	0.580
2020/01/31 03:04:42.3	92.730	-0.330	0.370	0.530
2020/01/31 03:04:42.4	92.760	-0.330	0.300	0.480
2020/01/31 03:04:42.5	92.790	-0.330	0.230	0.430
2020/01/31 03:04:42.6	92.820	-0.330	0.160	0.380
2020/01/31 03:04:42.7	92.850	-0.320	0.080	0.340
2020/01/31 03:04:42.8	92.880	-0.300	-0.010	0.300
2020/01/31 03:04:42.9	92.910	-0.280	-0.100	0.260
2020/01/31 03:04:43.0	92.940	-0.260	-0.190	0.230
2020/01/31 03:04:43.1	92.980	-0.230	-0.280	0.200
2020/01/31 03:04:43.2	93.000	-0.200	-0.370	0.180
2020/01/31 03:04:43.3	93.030	-0.170	-0.460	0.160
2020/01/31 03:04:43.4	93.050	-0.130	-0.540	0.150
2020/01/31 03:04:43.5	93.070	-0.090	-0.630	0.150
2020/01/31 03:04:43.6	93.090	-0.060	-0.700	0.150
2020/01/31 03:04:43.7	93.110	-0.020	-0.770	0.160
2020/01/31 03:04:43.8	93.120	0.020	-0.840	0.170
2020/01/31 03:04:43.9	93.130	0.060	-0.890	0.190
2020/01/31 03:04:44.0	93.140	0.100	-0.930	0.210
2020/01/31 03:04:44.1	93.150	0.140	-0.970	0.240
2020/01/31 03:04:44.2	93.150	0.170	-0.990	0.270
2020/01/31 03:04:44.3	93.160	0.200	-1.000	0.310
2020/01/31 03:04:44.4	93.150	0.230	-0.990	0.350
2020/01/31 03:04:44.5	93.150	0.250	-0.980	0.390
2020/01/31 03:04:44.6	93.140	0.270	-0.950	0.440
2020/01/31 03:04:44.7	93.140	0.280	-0.920	0.490
2020/01/31 03:04:44.8	93.120	0.290	-0.870	0.540
2020/01/31 03:04:44.9	93.110	0.290	-0.810	0.590
2020/01/31 03:04:45.0	93.100	0.290	-0.740	0.640
2020/01/31 03:04:45.1	93.080	0.290	-0.660	0.680
2020/01/31 03:04:45.2	93.070	0.270	-0.570	0.730
2020/01/31 03:04:45.3	93.050	0.260	-0.480	0.780
2020/01/31 03:04:45.4	93.020	0.240	-0.390	0.820
2020/01/31 03:04:45.5	93.000	0.210	-0.290	0.870
2020/01/31 03:04:45.6	92.980	0.180	-0.190	0.910
2020/01/31 03:04:45.7	92.950	0.150	-0.090	0.950
2020/01/31 03:04:45.8	92.930	0.120	0.010	0.990
2020/01/31 03:04:45.9	92.900	0.080	0.110	1.020
2020/01/31 03:04:46.0	92.870	0.040	0.210	1.050
2020/01/31 03:04:46.1	92.840	0.000	0.290	1.080
2020/01/31 03:04:46.2	92.810	-0.040	0.370	1.110
2020/01/31 03:04:46.3	92.780	-0.080	0.450	1.130
2020/01/31 03:04:46.4	92.760	-0.120	0.510	1.150
2020/01/31 03:04:46.5	92.730	-0.160	0.570	1.160
2020/01/31 03:04:46.6	92.700	-0.190	0.610	1.170
2020/01/31 03:04:46.7	92.670	-0.220	0.640	1.170
2020/01/31 03:04:46.8	92.650	-0.250	0.660	1.170
2020/01/31 03:04:46.9	92.620	-0.270	0.670	1.170
2020/01/31 03:04:47.0	92.600	-0.290	0.660	1.160
2020/01/31 03:04:47.1	92.570	-0.300	0.640	1.140
2020/01/31 03:04:47.2	92.550	-0.310	0.600	1.120
2020/01/31 03:04:47.3	92.530	-0.310	0.550	1.100
2020/01/31 03:04:47.4	92.520	-0.300	0.490	1.080
2020/01/31 03:04:47.5	92.510	-0.290	0.410	1.050
2020/01/31 03:04:47.6	92.500	-0.270	0.320	1.020
2020/01/31 03:04:47.7	92.490	-0.240	0.220	0.980
2020/01/31 03:04:47.8	92.490	-0.210	0.110	0.940
2020/01/31 03:04:47.9	92.490	-0.170	-0.010	0.900
2020/01/31 03:04:48.0	92.490	-0.130	-0.130	0.860
2020/01/31 03:04:48.1	92.500	-0.080	-0.270	0.810
2020/01/31 03:04:48.2	92.510	-0.020	-0.400	0.760
2020/01/31 03:04:48.3	92.520	0.030	-0.530	0.720
2020/01/31 03:04:48.4	92.540	0.100	-0.670	0.670
2020/01/31 03:04:48.5	92.550	0.160	-0.800	0.630
2020/01/31 03:04:48.6	92.570	0.220	-0.920	0.580
2020/01/31 03:04:48.7	92.590	0.290	-1.050	0.540
2020/01/31 03:04:48.8	92.610	0.350	-1.160	0.500
2020/01/31 03:04:48.9	92.630	0.420	-1.260	0.470
2020/01/31 03:04:49.0	92.650	0.480	-1.350	0.430
2020/01/31 03:04:49.1	92.670	0.540	-1.430	0.400
2020/01/31 03:04:49.2	92.690	0.590	-1.500	0.370
2020/01/31 03:04:49.3	92.710	0.640	-1.550	0.350
2020/01/31 03:04:49.4	92.730	0.690	-1.590	0.330
2020/01/31 03:04:49.5	92.750	0.730	-1.610	0.310
2020/01/31 03:04:49.6	92.770	0.760	-1.610	0.290
2020/01/31 03:04:49.7	92.790	0.790	-1.600	0.280
2020/01/31 03:04:49.8	92.810	0.810	-1.570	0.270
2020/01/31 03:04:49.9	92.820	0.820	-1.520	0.270
2020/01/31 03:04:50.0	92.830	0.830	-1.460	0.270
2020/01/31 03:04:50.1	92.850	0.820	-1.380	0.270
2020/01/31 03:04:50.2	92.860	0.810	-1.280	0.270
2020/01/31 03:04:50.3	92.860	0.790	-1.180	0.280
2020/01/31 03:04:50.4	92.860	0.760	-1.050	0.290
2020/01/31 03:04:50.5	92.860	0.720	-0.920	0.310
2020/01/31 03:04:50.6	92.860	0.670	-0.770	0.330
2020/01/31 03:04:50.7	92.860	0.620	-0.620	0.350
2020/01/31 03:04:50.8	92.850	0.560	-0.460	0.380
2020/01/31 03:04:50.9	92.840	0.500	-0.290	0.410
2020/01/31 03:04:51.0	92.830	0.420	-0.120	0.450
2020/01/31 03:04:51.1	92.820	0.350	0.060	0.480
2020/01/31 03:04:51.2	92.810	0.270	0.230	0.520
2020/01/31 03:04:51.3	92.790	0.180	0.410	0.570
2020/01/31 03:04:51.4	92.780	0.090	0.580	0.610
2020/01/31 03:04:51.5	92.760	0.000	0.740	0.660
2020/01/31 03:04:51.6	92.740	-0.090	0.900	0.700
2020/01/31 03:04:51.7	92.720	-0.180	1.050	0.750
2020/01/31 03:04:51.8	92.700	-0.280	1.190	0.790
2020/01/31 03:04:51.9	92.680	-0.370	1.310	0.830
2020/01/31 03:04:52.0	92.660	-0.460	1.430	0.870
2020/01/31 03:04:52.1	92.650	-0.550	1.530	0.910
2020/01/31 03:04:52.2	92.640	-0.630	1.610	0.940
2020/01/31 03:04:52.3	92.620	-0.710	1.680	0.960
2020/01/31 03:04:52.4	92.610	-0.780	1.730	0.990
2020/01/31 03:04:52.5	92.600	-0.850	1.760	1.000
2020/01/31 03:04:52.6	92.600	-0.920	1.770	1.020
2020/01/31 03:04:52.7	92.600	-0.970	1.770	1.020
2020/01/31 03:04:52.8	92.600	-1.020	1.740	1.030
2020/01/31 03:04:52.9	92.600	-1.060	1.700	1.020
2020/01/31 03:04:53.0	92.600	-1.090	1.630	1.020
2020/01/31 03:04:53.1	92.610	-1.110	1.550	1.000
2020/01/31 03:04:53.2	92.620	-1.120	1.450	0.990
2020/01/31 03:04:53.3	92.630	-1.130	1.330	0.970
2020/01/31 03:04:53.4	92.650	-1.120	1.200	0.950
2020/01/31 03:04:53.5	92.660	-1.110	1.060	0.940
2020/01/31 03:04:53.6	92.680	-1.090	0.900	0.920
2020/01/31 03:04:53.7	92.690	-1.050	0.730	0.900
2020/01/31 03:04:53.8	92.710	-1.020	0.560	0.890
2020/01/31 03:04:53.9	92.720	-0.970	0.370	0.870
2020/01/31 03:04:54.0	92.730	-0.920	0.180	0.870
2020/01/31 03:04:54.1	92.740	-0.860	-0.010	0.860
2020/01/31 03:04:54.2	92.750	-0.800	-0.200	0.850
2020/01/31 03:04:54.3	92.750	-0.730	-0.390	0.850
2020/01/31 03:04:54.4	92.750	-0.660	-0.580	0.840
2020/01/31 03:04:54.5	92.750	-0.580	-0.760	0.840
2020/01/31 03:04:54.6	92.750	-0.510	-0.940	0.840
2020/01/31 03:04:54.7	92.750	-0.430	-1.100	0.840
2020/01/31 03:04:54.8	92.750	-0.350	-1.260	0.840
2020/01/31 03:04:54.9	92.750	-0.270	-1.410	0.840
2020/01/31 03:04:55.0	92.740	-0.190	-1.550	0.840
2020/01/31 03:04:55.1	92.740	-0.110	-1.670	0.840
2020/01/31 03:04:55.2	92.730	-0.030	-1.780	0.840
2020/01/31 03:04:55.3	92.720	0.050	-1.880	0.840
2020/01/31 03:04:55.4	92.710	0.120	-1.960	0.850
2020/01/31 03:04:55.5	92.700	0.190	-2.030	0.850
2020/01/31 03:04:55.6	92.700	0.250	-2.070	0.860
2020/01/31 03:04:55.7	92.690	0.320	-2.110	0.870
2020/01/31 03:04:55.8	92.680	0.370	-2.120	0.880
2020/01/31 03:04:55.9	92.660	0.420	-2.120	0.900
2020/01/31 03:04:56.0	92.650	0.470	-2.110	0.920
2020/01/31 03:04:56.1	92.640	0.510	-2.070	0.940
2020/01/31 03:04:56.2	92.630	0.540	-2.030	0.960
2020/01/31 03:04:56.3	92.620	0.560	-1.960	0.990
2020/01/31 03:04:56.4	92.610	0.580	-1.880	1.020
2020/01/31 03:04:56.5	92.600	0.600	-1.790	1.060
2020/01/31 03:04:56.6	92.590	0.600	-1.690	1.090
2020/01/31 03:04:56.7	92.570	0.600	-1.570	1.130
2020/01/31 03:04:56.8	92.560	0.590	-1.440	1.170
2020/01/31 03:04:56.9	92.550	0.580	-1.300	1.210
2020/01/31 03:04:57.0	92.540	0.560	-1.150	1.240
2020/01/31 03:04:57.1	92.540	0.530	-0.990	1.290
2020/01/31 03:04:57.2	92.530	0.500	-0.830	1.320
2020/01/31 03:04:57.3	92.520	0.470	-0.670	1.360
2020/01/31 03:04:57.4	92.510	0.430	-0.500	1.390
2020/01/31 03:04:57.5	92.510	0.380	-0.330	1.410
2020/01/31 03:04:57.6	92.500	0.330	-0.170	1.440
2020/01/31 03:04:57.7	92.490	0.280	0.000	1.450
2020/01/31 03:04:57.8	92.480	0.230	0.170	1.470
2020/01/31 03:04:57.9	92.480	0.170	0.330	1.480
2020/01/31 03:04:58.0	92.470	0.110	0.480	1.480
2020/01/31 03:04:58.1	92.460	0.050	0.620	1.480
2020/01/31 03:04:58.2	92.460	-0.010	0.760	1.470
2020/01/31 03:04:58.3	92.450	-0.070	0.890	1.460
2020/01/31 03:04:58.4	92.450	-0.130	1.010	1.440
2020/01/31 03:04:58.5	92.450	-0.180	1.110	1.420
2020/01/31 03:04:58.6	92.450	-0.230	1.200	1.390
2020/01/31 03:04:58.7	92.440	-0.280	1.280	1.360
2020/01/31 03:04:58.8	92.440	-0.330	1.340	1.320
2020/01/31 03:04:58.9	92.440	-0.370	1.380	1.270
2020/01/31 03:04:59.0	92.440	-0.410	1.410	1.230
2020/01/31 03:04:59.1	92.440	-0.440	1.430	1.170
2020/01/31 03:04:59.2	92.430	-0.460	1.430	1.120
2020/01/31 03:04:59.3	92.430	-0.480	1.400	1.070
2020/01/31 03:04:59.4	92.430	-0.490	1.360	1.010
2020/01/31 03:04:59.5	92.430	-0.490	1.310	0.950
2020/01/31 03:04:59.6	92.430	-0.490	1.240	0.890
2020/01/31 03:04:59.7	92.420	-0.480	1.150	0.840
2020/01/31 03:04:59.8	92.420	-0.460	1.060	0.780
2020/01/31 03:04:59.9	92.420	-0.440	0.950	0.720
2020/01/31 03:05:00.0	92.410	-0.400	0.830	0.670
2020/01/31 03:05:00.1	92.410	-0.370	0.690	0.610
2020/01/31 03:05:00.2	92.400	-0.320	0.560	0.560
2020/01/31 03:05:00.3	92.400	-0.270	0.420	0.510
2020/01/31 03:05:00.4	92.390	-0.220	0.270	0.470
2020/01/31 03:05:00.5	92.390	-0.160	0.120	0.430
2020/01/31 03:05:00.6	92.380	-0.100	-0.030	0.390
2020/01/31 03:05:00.7	92.380	-0.040	-0.180	0.360
2020/01/31 03:05:00.8	92.370	0.030	-0.330	0.330
2020/01/31 03:05:00.9	92.370	0.100	-0.470	0.310
2020/01/31 03:05:01.0	92.370	0.160	-0.620	0.280
2020/01/31 03:05:01.1	92.370	0.230	-0.750	0.260
2020/01/31 03:05:01.2	92.370	0.300	-0.880	0.240
2020/01/31 03:05:01.3	92.380	0.370	-1.000	0.230
2020/01/31 03:05:01.4	92.380	0.430	-1.110	0.220
2020/01/31 03:05:01.5	92.390	0.490	-1.220	0.210
2020/01/31 03:05:01.6	92.390	0.550	-1.310	0.210
2020/01/31 03:05:01.7	92.400	0.600	-1.390	0.210
2020/01/31 03:05:01.8	92.410	0.650	-1.460	0.210
2020/01/31 03:05:01.9	92.430	0.700	-1.510	0.210
2020/01/31 03:05:02.0	92.440	0.730	-1.550	0.220
2020/01/31 03:05:02.1	92.450	0.770	-1.580	0.220
2020/01/31 03:05:02.2	92.470	0.790	-1.590	0.230
2020/01/31 03:05:02.3	92.490	0.810	-1.590	0.250
2020/01/31 03:05:02.4	92.510	0.830	-1.580	0.260
2020/01/31 03:05:02.5	92.530	0.840	-1.550	0.280
2020/01/31 03:05:02.6	92.560	0.840	-1.510	0.300
2020/01/31 03:05:02.7	92.580	0.830	-1.460	0.320
2020/01/31 03:05:02.8	92.600	0.820	-1.390	0.340
2020/01/31 03:05:02.9	92.630	0.800	-1.310	0.370
2020/01/31 03:05:03.0	92.650	0.770	-1.230	0.390
2020/01/31 03:05:03.1	92.680	0.740	-1.130	0.420
2020/01/31 03:05:03.2	92.710	0.710	-1.030	0.440
2020/01/31 03:05:03.3	92.730	0.670	-0.910	0.470
2020/01/31 03:05:03.4	92.760	0.620	-0.790	0.500
2020/01/31 03:05:03.5	92.780	0.570	-0.670	0.530
2020/01/31 03:05:03.6	92.810	0.520	-0.540	0.560
2020/01/31 03:05:03.7	92.830	0.460	-0.410	0.590
2020/01/31 03:05:03.8	92.860	0.400	-0.270	0.620
2020/01/31 03:05:03.9	92.880	0.340	-0.140	0.650
2020/01/31 03:05:04.0	92.910	0.280	-0.010	0.690
2020/01/31 03:05:04.1	92.930	0.220	0.120	0.720
2020/01/31 03:05:04.2	92.950	0.150	0.240	0.750
2020/01/31 03:05:04.3	92.970	0.090	0.360	0.790
2020/01/31 03:05:04.4	92.990	0.020	0.480	0.820
2020/01/31 03:05:04.5	93.010	-0.040	0.580	0.860
2020/01/31 03:05:04.6	93.020	-0.100	0.680	0.900
2020/01/31 03:05:04.7	93.030	-0.160	0.770	0.940
2020/01/31 03:05:04.8	93.050	-0.220	0.850	0.970
2020/01/31 03:05:04.9	93.060	-0.270	0.910	1.010
2020/01/31 03:05:05.0	93.060	-0.320	0.970	1.050
2020/01/31 03:05:05.1	93.070	-0.370	1.020	1.090
2020/01/31 03:05:05.2	93.080	-0.410	1.050	1.120
2020/01/31 03:05:05.3	93.080	-0.450	1.070	1.150
2020/01/31 03:05:05.4	93.080	-0.490	1.080	1.180
2020/01/31 03:05:05.5	93.080	-0.520	1.070	1.210
2020/01/31 03:05:05.6	93.080	-0.540	1.060	1.240
2020/01/31 03:05:05.7	93.070	-0.560	1.030	1.260
2020/01/31 03:05:05.8	93.070	-0.580	1.000	1.280
2020/01/31 03:05:05.9	93.060	-0.590	0.950	1.300
2020/01/31 03:05:06.0	93.050	-0.600	0.890	1.310
2020/01/31 03:05:06.1	93.040	-0.600	0.820	1.320
2020/01/31 03:05:06.2	93.030	-0.600	0.750	1.330
2020/01/31 03:05:06.3	93.030	-0.590	0.670	1.340
2020/01/31 03:05:06.4	93.020	-0.580	0.580	1.350
2020/01/31 03:05:06.5	93.010	-0.570	0.480	1.350
2020/01/31 03:05:06.6	93.000	-0.550	0.390	1.350
2020/01/31 03:05:06.7	92.990	-0.530	0.290	1.350
2020/01/31 03:05:06.8	92.980	-0.510	0.190	1.350
2020/01/31 03:05:06.9	92.970	-0.480	0.090	1.340
2020/01/31 03:05:07.0	92.970	-0.460	-0.010	1.330
2020/01/31 03:05:07.1	92.960	-0.430	-0.110	1.320
2020/01/31 03:05:07.2	92.950	-0.400	-0.210	1.300
2020/01/31 03:05:07.3	92.950	-0.370	-0.300	1.290
2020/01/31 03:05:07.4	92.950	-0.340	-0.380	1.270
2020/01/31 03:05:07.5	92.950	-0.310	-0.460	1.250
2020/01/31 03:05:07.6	92.950	-0.280	-0.540	1.230
2020/01/31 03:05:07.7	92.960	-0.250	-0.610	1.200
2020/01/31 03:05:07.8	92.960	-0.220	-0.670	1.180
2020/01/31 03:05:07.9	92.970	-0.190	-0.720	1.150
2020/01/31 03:05:08.0	92.980	-0.160	-0.760	1.120
2020/01/31 03:05:08.1	92.980	-0.140	-0.800	1.090
2020/01/31 03:05:08.2	92.990	-0.120	-0.830	1.060
2020/01/31 03:05:08.3	93.010	-0.100	-0.850	1.030
2020/01/31 03:05:08.4	93.020	-0.080	-0.870	0.990
2020/01/31 03:05:08.5	93.030	-0.060	-0.880	0.960
2020/01/31 03:05:08.6	93.050	-0.040	-0.880	0.930
2020/01/31 03:05:08.7	93.070	-0.030	-0.880	0.890
2020/01/31 03:05:08.8	93.080	-0.010	-0.880	0.860
2020/01/31 03:05:08.9	93.100	0.000	-0.870	0.820
2020/01/31 03:05:09.0	93.120	0.010	-0.850	0.780
2020/01/31 03:05:09.1	93.140	0.020	-0.840	0.750
2020/01/31 03:05:09.2	93.160	0.040	-0.820	0.710
2020/01/31 03:05:09.3	93.180	0.050	-0.800	0.680
2020/01/31 03:05:09.4	93.200	0.060	-0.770	0.640
2020/01/31 03:05:09.5	93.210	0.070	-0.750	0.610
2020/01/31 03:05:09.6	93.230	0.080	-0.730	0.580
2020/01/31 03:05:09.7	93.250	0.090	-0.710	0.550
2020/01/31 03:05:09.8	93.260	0.100	-0.680	0.530
2020/01/31 03:05:09.9	93.270	0.110	-0.670	0.500
2020/01/31 03:05:10.0	93.290	0.130	-0.650	0.490
2020/01/31 03:05:10.1	93.290	0.140	-0.630	0.470
2020/01/31 03:05:10.2	93.300	0.160	-0.610	0.460
2020/01/31 03:05:10.3	93.300	0.170	-0.600	0.450
2020/01/31 03:05:10.4	93.300	0.180	-0.590	0.440
2020/01/31 03:05:10.5	93.300	0.200	-0.570	0.440
2020/01/31 03:05:10.6	93.290	0.210	-0.560	0.440
2020/01/31 03:05:10.7	93.280	0.220	-0.550	0.450
2020/01/31 03:05:10.8	93.270	0.230	-0.530	0.460
2020/01/31 03:05:10.9	93.260	0.240	-0.510	0.470
2020/01/31 03:05:11.0	93.250	0.250	-0.500	0.490
2020/01/31 03:05:11.1	93.220	0.250	-0.470	0.510
2020/01/31 03:05:11.2	93.200	0.260	-0.450	0.530
2020/01/31 03:05:11.3	93.180	0.260	-0.420	0.550
2020/01/31 03:05:11.4	93.160	0.250	-0.390	0.580
2020/01/31 03:05:11.5	93.140	0.240	-0.360	0.600
2020/01/31 03:05:11.6	93.120	0.230	-0.320	0.630
2020/01/31 03:05:11.7	93.100	0.220	-0.280	0.660
2020/01/31 03:05:11.8	93.070	0.200	-0.240	0.690
2020/01/31 03:05:11.9	93.050	0.180	-0.190	0.720
2020/01/31 03:05:12.0	93.030	0.160	-0.140	0.740
2020/01/31 03:05:12.1	93.010	0.130	-0.090	0.770
2020/01/31 03:05:12.2	92.990	0.100	-0.040	0.800
2020/01/31 03:05:12.3	92.970	0.070	0.010	0.820
2020/01/31 03:05:12.4	92.960	0.030	0.060	0.840
2020/01/31 03:05:12.5	92.940	-0.000	0.110	0.860
2020/01/31 03:05:12.6	92.930	-0.040	0.160	0.880
2020/01/31 03:05:12.7	92.920	-0.080	0.210	0.890
2020/01/31 03:05:12.8	92.920	-0.110	0.260	0.910
2020/01/31 03:05:12.9	92.910	-0.150	0.310	0.910
2020/01/31 03:05:13.0	92.910	-0.190	0.350	0.920
2020/01/31 03:05:13.1	92.910	-0.220	0.390	0.920
2020/01/31 03:05:13.2	92.920	-0.260	0.420	0.920
2020/01/31 03:05:13.3	92.920	-0.290	0.450	0.910
2020/01/31 03:05:13.4	92.930	-0.320	0.470	0.910
2020/01/31 03:05:13.5	92.940	-0.340	0.490	0.900
2020/01/31 03:05:13.6	92.960	-0.360	0.500	0.880
2020/01/31 03:05:13.7	92.970	-0.380	0.500	0.870
2020/01/31 03:05:13.8	92.990	-0.390	0.500	0.860
2020/01/31 03:05:13.9	93.010	-0.400	0.490	0.840
2020/01/31 03:05:14.0	93.020	-0.410	0.470	0.820
2020/01/31 03:05:14.1	93.050	-0.410	0.450	0.800
2020/01/31 03:05:14.2	93.070	-0.400	0.420	0.780
2020/01/31 03:05:14.3	93.090	-0.390	0.380	0.760
2020/01/31 03:05:14.4	93.120	-0.380	0.340	0.740
2020/01/31 03:05:14.5	93.140	-0.360	0.290	0.720
2020/01/31 03:05:14.6	93.160	-0.340	0.230	0.700
2020/01/31 03:05:14.7	93.180	-0.310	0.170	0.680
2020/01/31 03:05:14.8	93.200	-0.280	0.110	0.660
2020/01/31 03:05:14.9	93.220	-0.240	0.040	0.640
2020/01/31 03:05:15.0	93.230	-0.200	-0.040	0.620
2020/01/31 03:05:15.1	93.250	-0.160	-0.120	0.600
2020/01/31 03:05:15.2	93.260	-0.120	-0.190	0.580
2020/01/31 03:05:15.3	93.270	-0.070	-0.270	0.570
2020/01/31 03:05:15.4	93.280	-0.020	-0.360	0.560
2020/01/31 03:05:15.5	93.280	0.030	-0.430	0.550
2020/01/31 03:05:15.6	93.280	0.080	-0.510	0.550
2020/01/31 03:05:15.7	93.280	0.140	-0.590	0.550
2020/01/31 03:05:15.8	93.280	0.190	-0.660	0.560
2020/01/31 03:05:15.9	93.270	0.240	-0.730	0.560
2020/01/31 03:05:16.0	93.260	0.290	-0.800	0.580
2020/01/31 03:05:16.1	93.230	0.340	-0.860	0.590
2020/01/31 03:05:16.2	93.220	0.390	-0.910	0.610
2020/01/31 03:05:16.3	93.200	0.430	-0.950	0.630
2020/01/31 03:05:16.4	93.170	0.480	-0.990	0.660
2020/01/31 03:05:16.5	93.150	0.520	-1.020	0.690
2020/01/31 03:05:16.6	93.120	0.550	-1.040	0.720
2020/01/31 03:05:16.7	93.090	0.580	-1.050	0.750
2020/01/31 03:05:16.8	93.060	0.610	-1.040	0.790
2020/01/31 03:05:16.9	93.020	0.630	-1.030	0.820
2020/01/31 03:05:17.0	92.990	0.650	-1.010	0.850
2020/01/31 03:05:17.1	92.950	0.670	-0.990	0.880
2020/01/31 03:05:17.2	92.920	0.670	-0.950	0.900
2020/01/31 03:05:17.3	92.890	0.680	-0.900	0.930
2020/01/31 03:05:17.4	92.860	0.680	-0.840	0.950
2020/01/31 03:05:17.5	92.840	0.670	-0.780	0.970
2020/01/31 03:05:17.6	92.810	0.660	-0.710	0.980
2020/01/31 03:05:17.7	92.790	0.650	-0.630	0.990
2020/01/31 03:05:17.8	92.770	0.630	-0.550	1.000
2020/01/31 03:05:17.9	92.750	0.610	-0.470	1.000
2020/01/31 03:05:18.0	92.740	0.580	-0.380	1.000
2020/01/31 03:05:18.1	92.720	0.550	-0.290	0.990
2020/01/31 03:05:18.2	92.720	0.520	-0.210	0.980
2020/01/31 03:05:18.3	92.710	0.490	-0.120	0.960
2020/01/31 03:05:18.4	92.710	0.450	-0.040	0.950
2020/01/31 03:05:18.5	92.710	0.410	0.040	0.930
2020/01/31 03:05:18.6	92.710	0.370	0.110	0.910
2020/01/31 03:05:18.7	92.710	0.330	0.180	0.890
2020/01/31 03:05:18.8	92.710	0.300	0.240	0.870
2020/01/31 03:05:18.9	92.720	0.260	0.290	0.840
2020/01/31 03:05:19.0	92.730	0.220	0.330	0.820
2020/01/31 03:05:19.1	92.730	0.180	0.370	0.800
2020/01/31 03:05:19.2	92.740	0.150	0.400	0.780
2020/01/31 03:05:19.3	92.750	0.120	0.420	0.770
2020/01/31 03:05:19.4	92.760	0.090	0.430	0.750
2020/01/31 03:05:19.5	92.780	0.060	0.430	0.740
2020/01/31 03:05:19.6	92.790	0.030	0.420	0.730
2020/01/31 03:05:19.7	92.800	0.010	0.400	0.730
2020/01/31 03:05:19.8	92.820	-0.010	0.370	0.720
2020/01/31 03:05:19.9	92.830	-0.020	0.340	0.720
2020/01/31 03:05:20.0	92.840	-0.040	0.290	0.720
2020/01/31 03:05:20.1	92.860	-0.050	0.250	0.720
2020/01/31 03:05:20.2	92.870	-0.050	0.190	0.720
2020/01/31 03:05:20.3	92.880	-0.050	0.130	0.720
2020/01/31 03:05:20.4	92.890	-0.060	0.070	0.730
2020/01/31 03:05:20.5	92.910	-0.060	0.000	0.730
2020/01/31 03:05:20.6	92.920	-0.050	-0.070	0.740
2020/01/31 03:05:20.7	92.930	-0.050	-0.140	0.750
2020/01/31 03:05:20.8	92.940	-0.040	-0.200	0.750
2020/01/31 03:05:20.9	92.950	-0.040	-0.270	0.760
2020/01/31 03:05:21.0	92.960	-0.030	-0.330	0.770
2020/01/31 03:05:21.1	92.960	-0.030	-0.390	0.780
2020/01/31 03:05:21.2	92.970	-0.030	-0.440	0.790
2020/01/31 03:05:21.3	92.970	-0.020	-0.480	0.810
2020/01/31 03:05:21.4	92.980	-0.020	-0.520	0.830
2020/01/31 03:05:21.5	92.980	-0.020	-0.550	0.850
2020/01/31 03:05:21.6	92.980	-0.030	-0.570	0.880
2020/01/31 03:05:21.7	92.980	-0.040	-0.580	0.910
2020/01/31 03:05:21.8	92.980	-0.050	-0.590	0.950
2020/01/31 03:05:21.9	92.980	-0.060	-0.580	0.990
2020/01/31 03:05:22.0	92.980	-0.070	-0.570	1.040
2020/01/31 03:05:22.1	92.970	-0.090	-0.550	1.080
2020/01/31 03:05:22.2	92.960	-0.110	-0.520	1.130
2020/01/31 03:05:22.3	92.950	-0.140	-0.490	1.190
2020/01/31 03:05:22.4	92.950	-0.170	-0.440	1.240
2020/01/31 03:05:22.5	92.930	-0.200	-0.390	1.300
2020/01/31 03:05:22.6	92.920	-0.230	-0.340	1.360
2020/01/31 03:05:22.7	92.910	-0.260	-0.280	1.420
2020/01/31 03:05:22.8	92.900	-0.300	-0.220	1.480
2020/01/31 03:05:22.9	92.890	-0.340	-0.150	1.540
2020/01/31 03:05:23.0	92.870	-0.380	-0.090	1.600
2020/01/31 03:05:23.1	92.870	-0.420	-0.010	1.660
2020/01/31 03:05:23.2	92.860	-0.450	0.050	1.710
2020/01/31 03:05:23.3	92.850	-0.490	0.120	1.750
2020/01/31 03:05:23.4	92.830	-0.530	0.180	1.800
2020/01/31 03:05:23.5	92.820	-0.570	0.250	1.830
2020/01/31 03:05:23.6	92.810	-0.600	0.300	1.860
2020/01/31 03:05:23.7	92.800	-0.630	0.360	1.890
2020/01/31 03:05:23.8	92.790	-0.660	0.400	1.900
2020/01/31 03:05:23.9	92.780	-0.680	0.440	1.910
2020/01/31 03:05:24.0	92.780	-0.700	0.480	1.920
2020/01/31 03:05:24.1	92.770	-0.720	0.500	1.910
2020/01/31 03:05:24.2	92.760	-0.730	0.520	1.900
2020/01/31 03:05:24.3	92.760	-0.730	0.520	1.880
2020/01/31 03:05:24.4	92.760	-0.730	0.520	1.860
2020/01/31 03:05:24.5	92.750	-0.720	0.500	1.820
2020/01/31 03:05:24.6	92.750	-0.710	0.480	1.790
2020/01/31 03:05:24.7	92.750	-0.690	0.450	1.750
2020/01/31 03:05:24.8	92.750	-0.670	0.400	1.700
2020/01/31 03:05:24.9	92.750	-0.630	0.350	1.660
2020/01/31 03:05:25.0	92.750	-0.600	0.280	1.610
2020/01/31 03:05:25.1	92.750	-0.550	0.210	1.550
2020/01/31 03:05:25.2	92.750	-0.500	0.130	1.500
2020/01/31 03:05:25.3	92.750	-0.450	0.050	1.450
2020/01/31 03:05:25.4	92.750	-0.390	-0.050	1.400
2020/01/31 03:05:25.5	92.740	-0.320	-0.140	1.350
2020/01/31 03:05:25.6	92.740	-0.250	-0.250	1.300
2020/01/31 03:05:25.7	92.740	-0.180	-0.350	1.250
2020/01/31 03:05:25.8	92.740	-0.110	-0.450	1.210
2020/01/31 03:05:25.9	92.740	-0.030	-0.560	1.170
2020/01/31 03:05:26.0	92.740	0.040	-0.660	1.120
2020/01/31 03:05:26.1	92.740	0.120	-0.770	1.080
2020/01/31 03:05:26.2	92.740	0.200	-0.860	1.040
2020/01/31 03:05:26.3	92.740	0.270	-0.950	1.000
2020/01/31 03:05:26.4	92.740	0.340	-1.030	0.960
2020/01/31 03:05:26.5	92.740	0.410	-1.100	0.930
2020/01/31 03:05:26.6	92.740	0.480	-1.160	0.890
2020/01/31 03:05:26.7	92.750	0.540	-1.210	0.860
2020/01/31 03:05:26.8	92.750	0.590	-1.250	0.820
2020/01/31 03:05:26.9	92.760	0.640	-1.280	0.790
2020/01/31 03:05:27.0	92.760	0.690	-1.290	0.760
2020/01/31 03:05:27.1	92.770	0.730	-1.290	0.720
2020/01/31 03:05:27.2	92.780	0.760	-1.290	0.690
2020/01/31 03:05:27.3	92.780	0.790	-1.260	0.670
2020/01/31 03:05:27.4	92.790	0.810	-1.230	0.640
2020/01/31 03:05:27.5	92.790	0.820	-1.180	0.620
2020/01/31 03:05:27.6	92.800	0.820	-1.120	0.590
2020/01/31 03:05:27.7	92.800	0.820	-1.060	0.570
2020/01/31 03:05:27.8	92.800	0.820	-0.980	0.560
2020/01/31 03:05:27.9	92.810	0.810	-0.890	0.540
2020/01/31 03:05:28.0	92.810	0.790	-0.790	0.530
2020/01/31 03:05:28.1	92.810	0.760	-0.690	0.520
2020/01/31 03:05:28.2	92.810	0.740	-0.580	0.520
2020/01/31 03:05:28.3	92.810	0.700	-0.470	0.520
2020/01/31 03:05:28.4	92.810	0.670	-0.360	0.520
2020/01/31 03:05:28.5	92.810	0.630	-0.240	0.520
2020/01/31 03:05:28.6	92.810	0.590	-0.130	0.530
2020/01/31 03:05:28.7	92.810	0.540	-0.010	0.540
2020/01/31 03:05:28.8	92.810	0.500	0.100	0.560
2020/01/31 03:05:28.9	92.800	0.450	0.200	0.580
2020/01/31 03:05:29.0	92.800	0.400	0.300	0.590
2020/01/31 03:05:29.1	92.780	0.350	0.390	0.610
2020/01/31 03:05:29.2	92.770	0.300	0.480	0.630
2020/01/31 03:05:29.3	92.770	0.260	0.560	0.660
2020/01/31 03:05:29.4	92.760	0.210	0.620	0.680
2020/01/31 03:05:29.5	92.760	0.170	0.680	0.700
2020/01/31 03:05:29.6	92.750	0.120	0.720	0.730
2020/01/31 03:05:29.7	92.750	0.080	0.760	0.750
2020/01/31 03:05:29.8	92.740	0.040	0.780	0.770
2020/01/31 03:05:29.9	92.730	0.010	0.790	0.800
2020/01/31 03:05:30.0	92.720	-0.030	0.790	0.820
2020/01/31 03:05:30.1	92.710	-0.060	0.780	0.840
2020/01/31 03:05:30.2	92.700	-0.090	0.760	0.860
2020/01/31 03:05:30.3	92.690	-0.120	0.730	0.870
2020/01/31 03:05:30.4	92.680	-0.140	0.690	0.890
2020/01/31 03:05:30.5	92.670	-0.160	0.630	0.910
2020/01/31 03:05:30.6	92.660	-0.190	0.580	0.920
2020/01/31 03:05:30.7	92.650	-0.200	0.510	0.940
2020/01/31 03:05:30.8	92.640	-0.220	0.440	0.950
2020/01/31 03:05:30.9	92.620	-0.240	0.360	0.960
2020/01/31 03:05:31.0	92.620	-0.250	0.280	0.970
2020/01/31 03:05:31.1	92.610	-0.260	0.200	0.980
2020/01/31 03:05:31.2	92.600	-0.270	0.110	0.990
2020/01/31 03:05:31.3	92.590	-0.280	0.030	1.000
2020/01/31 03:05:31.4	92.580	-0.290	-0.060	1.000
2020/01/31 03:05:31.5	92.580	-0.300	-0.140	1.010
2020/01/31 03:05:31.6	92.570	-0.310	-0.220	1.020
2020/01/31 03:05:31.7	92.570	-0.310	-0.290	1.040
2020/01/31 03:05:31.8	92.570	-0.320	-0.370	1.050
2020/01/31 03:05:31.9	92.560	-0.330	-0.430	1.060
2020/01/31 03:05:32.0	92.560	-0.330	-0.500	1.080
2020/01/31 03:05:32.1	92.560	-0.340	-0.550	1.090
2020/01/31 03:05:32.2	92.560	-0.340	-0.600	1.110
2020/01/31 03:05:32.3	92.560	-0.340	-0.650	1.130
2020/01/31 03:05:32.4	92.570	-0.340	-0.680	1.150
2020/01/31 03:05:32.5	92.570	-0.350	-0.710	1.170
2020/01/31 03:05:32.6	92.580	-0.350	-0.740	1.190
2020/01/31 03:05:32.7	92.580	-0.350	-0.750	1.220
2020/01/31 03:05:32.8	92.590	-0.350	-0.760	1.250
2020/01/31 03:05:32.9	92.600	-0.340	-0.770	1.270
2020/01/31 03:05:33.0	92.610	-0.340	-0.770	1.300
2020/01/31 03:05:33.1	92.620	-0.340	-0.760	1.330
2020/01/31 03:05:33.2	92.630	-0.330	-0.760	1.360
2020/01/31 03:05:33.3	92.640	-0.320	-0.740	1.380
2020/01/31 03:05:33.4	92.650	-0.310	-0.730	1.410
2020/01/31 03:05:33.5	92.660	-0.300	-0.710	1.430
2020/01/31 03:05:33.6	92.670	-0.290	-0.690	1.460
2020/01/31 03:05:33.7	92.680	-0.280	-0.670	1.480
2020/01/31 03:05:33.8	92.690	-0.260	-0.640	1.500
2020/01/31 03:05:33.9	92.700	-0.250	-0.620	1.520
2020/01/31 03:05:34.0	92.710	-0.230	-0.600	1.530
2020/01/31 03:05:34.1	92.730	-0.210	-0.570	1.550
2020/01/31 03:05:34.2	92.740	-0.190	-0.550	1.550
2020/01/31 03:05:34.3	92.750	-0.170	-0.530	1.560
2020/01/31 03:05:34.4	92.760	-0.140	-0.510	1.560
2020/01/31 03:05:34.5	92.770	-0.120	-0.500	1.550
2020/01/31 03:05:34.6	92.780	-0.090	-0.490	1.540
2020/01/31 03:05:34.7	92.790	-0.060	-0.480	1.520
2020/01/31 03:05:34.8	92.810	-0.030	-0.470	1.500
2020/01/31 03:05:34.9	92.820	-0.010	-0.460	1.480
2020/01/31 03:05:35.0	92.830	0.020	-0.460	1.450
2020/01/31 03:05:35.1	92.840	0.050	-0.460	1.420
2020/01/31 03:05:35.2	92.850	0.080	-0.460	1.390
2020/01/31 03:05:35.3	92.860	0.120	-0.460	1.360
2020/01/31 03:05:35.4	92.870	0.150	-0.470	1.340
2020/01/31 03:05:35.5	92.870	0.180	-0.470	1.310
2020/01/31 03:05:35.6	92.870	0.200	-0.470	1.290
2020/01/31 03:05:35.7	92.870	0.230	-0.470	1.270
2020/01/31 03:05:35.8	92.870	0.260	-0.470	1.260
2020/01/31 03:05:35.9	92.860	0.280	-0.460	1.240
2020/01/31 03:05:36.0	92.850	0.310	-0.460	1.230
2020/01/31 03:05:36.1	92.820	0.330	-0.450	1.220
2020/01/31 03:05:36.2	92.810	0.350	-0.430	1.210
2020/01/31 03:05:36.3	92.790	0.360	-0.410	1.210
2020/01/31 03:05:36.4	92.770	0.370	-0.380	1.200
2020/01/31 03:05:36.5	92.750	0.380	-0.350	1.200
2020/01/31 03:05:36.6	92.730	0.390	-0.320	1.190
2020/01/31 03:05:36.7	92.710	0.390	-0.270	1.190
2020/01/31 03:05:36.8	92.690	0.390	-0.220	1.180
2020/01/31 03:05:36.9	92.670	0.390	-0.170	1.170
2020/01/31 03:05:37.0	92.650	0.380	-0.110	1.160
2020/01/31 03:05:37.1	92.620	0.370	-0.050	1.140
2020/01/31 03:05:37.2	92.600	0.350	0.020	1.130
2020/01/31 03:05:37.3	92.580	0.330	0.090	1.110
2020/01/31 03:05:37.4	92.560	0.310	0.150	1.090
2020/01/31 03:05:37.5	92.540	0.290	0.230	1.070
2020/01/31 03:05:37.6	92.530	0.260	0.300	1.040
2020/01/31 03:05:37.7	92.510	0.230	0.360	1.020
2020/01/31 03:05:37.8	92.490	0.200	0.430	0.990
2020/01/31 03:05:37.9	92.480	0.170	0.490	0.950
2020/01/31 03:05:38.0	92.470	0.130	0.550	0.920
2020/01/31 03:05:38.1	92.460	0.100	0.610	0.880
2020/01/31 03:05:38.2	92.450	0.060	0.650	0.840
2020/01/31 03:05:38.3	92.440	0.030	0.690	0.790
2020/01/31 03:05:38.4	92.430	-0.000	0.720	0.750
2020/01/31 03:05:38.5	92.430	-0.030	0.740	0.710
2020/01/31 03:05:38.6	92.420	-0.060	0.750	0.670
2020/01/31 03:05:38.7	92.420	-0.090	0.750	0.620
2020/01/31 03:05:38.8	92.420	-0.110	0.740	0.580
2020/01/31 03:05:38.9	92.420	-0.130	0.710	0.540
2020/01/31 03:05:39.0	92.420	-0.150	0.680	0.500
2020/01/31 03:05:39.1	92.420	-0.160	0.630	0.450
2020/01/31 03:05:39.2	92.420	-0.170	0.580	0.420
2020/01/31 03:05:39.3	92.430	-0.170	0.510	0.380
2020/01/31 03:05:39.4	92.430	-0.170	0.440	0.340
2020/01/31 03:05:39.5	92.440	-0.160	0.350	0.300
2020/01/31 03:05:39.6	92.450	-0.150	0.260	0.270
2020/01/31 03:05:39.7	92.470	-0.140	0.160	0.230
2020/01/31 03:05:39.8	92.480	-0.120	0.060	0.200
2020/01/31 03:05:39.9	92.500	-0.100	-0.040	0.170
2020/01/31 03:05:40.0	92.520	-0.080	-0.150	0.140
2020/01/31 03:05:40.1	92.540	-0.060	-0.260	0.110
2020/01/31 03:05:40.2	92.560	-0.030	-0.360	0.090
2020/01/31 03:05:40.3	92.590	-0.000	-0.470	0.060
2020/01/31 03:05:40.4	92.610	0.030	-0.570	0.040
2020/01/31 03:05:40.5	92.640	0.060	-0.670	0.030
2020/01/31 03:05:40.6	92.660	0.080	-0.760	0.010
2020/01/31 03:05:40.7	92.690	0.110	-0.840	0.000
2020/01/31 03:05:40.8	92.710	0.140	-0.920	-0.010
2020/01/31 03:05:40.9	92.740	0.160	-0.980	-0.010
2020/01/31 03:05:41.0	92.760	0.180	-1.040	-0.000
2020/01/31 03:05:41.1	92.780	0.200	-1.090	0.000
2020/01/31 03:05:41.2	92.810	0.210	-1.120	0.020
2020/01/31 03:05:41.3	92.830	0.220	-1.140	0.040
2020/01/31 03:05:41.4	92.850	0.230	-1.150	0.070
2020/01/31 03:05:41.5	92.870	0.230	-1.150	0.110
2020/01/31 03:05:41.6	92.880	0.230	-1.140	0.150
2020/01/31 03:05:41.7	92.900	0.230	-1.120	0.200
2020/01/31 03:05:41.8	92.910	0.220	-1.090	0.250
2020/01/31 03:05:41.9	92.920	0.210	-1.050	0.300
2020/01/31 03:05:42.0	92.930	0.190	-1.000	0.360
2020/01/31 03:05:42.1	92.950	0.170	-0.940	0.430
2020/01/31 03:05:42.2	92.950	0.150	-0.870	0.500
2020/01/31 03:05:42.3	92.950	0.120	-0.800	0.560
2020/01/31 03:05:42.4	92.950	0.090	-0.720	0.640
2020/01/31 03:05:42.5	92.940	0.060	-0.640	0.710
2020/01/31 03:05:42.6	92.940	0.020	-0.560	0.780
2020/01/31 03:05:42.7	92.930	-0.010	-0.470	0.850
2020/01/31 03:05:42.8	92.920	-0.050	-0.380	0.920
2020/01/31 03:05:42.9	92.900	-0.090	-0.290	0.990
2020/01/31 03:05:43.0	92.890	-0.120	-0.200	1.060
2020/01/31 03:05:43.1	92.870	-0.160	-0.110	1.120
2020/01/31 03:05:43.2	92.850	-0.200	-0.030	1.180
2020/01/31 03:05:43.3	92.830	-0.230	0.050	1.240
2020/01/31 03:05:43.4	92.800	-0.270	0.120	1.290
2020/01/31 03:05:43.5	92.780	-0.300	0.190	1.330
2020/01/31 03:05:43.6	92.760	-0.330	0.250	1.370
2020/01/31 03:05:43.7	92.740	-0.350	0.300	1.410
2020/01/31 03:05:43.8	92.710	-0.380	0.350	1.440
2020/01/31 03:05:43.9	92.690	-0.400	0.390	1.460
2020/01/31 03:05:44.0	92.670	-0.410	0.420	1.480
2020/01/31 03:05:44.1	92.630	-0.430	0.430	1.490
2020/01/31 03:05:44.2	92.610	-0.440	0.450	1.500
2020/01/31 03:05:44.3	92.590	-0.440	0.450	1.500
2020/01/31 03:05:44.4	92.570	-0.450	0.450	1.500
2020/01/31 03:05:44.5	92.560	-0.440	0.440	1.500
2020/01/31 03:05:44.6	92.550	-0.440	0.420	1.500
2020/01/31 03:05:44.7	92.530	-0.430	0.400	1.490
2020/01/31 03:05:44.8	92.520	-0.420	0.370	1.480
2020/01/31 03:05:44.9	92.520	-0.400	0.330	1.470
2020/01/31 03:05:45.0	92.510	-0.380	0.280	1.450
2020/01/31 03:05:45.1	92.510	-0.360	0.230	1.440
2020/01/31 03:05:45.2	92.510	-0.330	0.180	1.420
2020/01/31 03:05:45.3	92.520	-0.310	0.120	1.400
2020/01/31 03:05:45.4	92.520	-0.280	0.060	1.380
2020/01/31 03:05:45.5	92.530	-0.240	-0.010	1.360
2020/01/31 03:05:45.6	92.550	-0.210	-0.080	1.330
2020/01/31 03:05:45.7	92.560	-0.170	-0.140	1.310
2020/01/31 03:05:45.8	92.580	-0.140	-0.210	1.280
2020/01/31 03:05:45.9	92.600	-0.100	-0.280	1.250
2020/01/31 03:05:46.0	92.620	-0.060	-0.350	1.220
2020/01/31 03:05:46.1	92.630	-0.030	-0.410	1.180
2020/01/31 03:05:46.2	92.650	0.010	-0.470	1.140
2020/01/31 03:05:46.3	92.670	0.040	-0.530	1.110
2020/01/31 03:05:46.4	92.690	0.080	-0.580	1.070
2020/01/31 03:05:46.5	92.710	0.110	-0.630	1.040
2020/01/31 03:05:46.6	92.730	0.140	-0.670	1.000
2020/01/31 03:05:46.7	92.750	0.170	-0.710	0.970
2020/01/31 03:05:46.8	92.770	0.200	-0.740	0.930
2020/01/31 03:05:46.9	92.780	0.220	-0.760	0.900
2020/01/31 03:05:47.0	92.800	0.240	-0.780	0.860
2020/01/31 03:05:47.1	92.810	0.260	-0.790	0.830
2020/01/31 03:05:47.2	92.820	0.280	-0.790	0.800
2020/01/31 03:05:47.3	92.820	0.290	-0.790	0.770
2020/01/31 03:05:47.4	92.830	0.300	-0.780	0.740
2020/01/31 03:05:47.5	92.830	0.310	-0.770	0.720
2020/01/31 03:05:47.6	92.820	0.310	-0.750	0.700
2020/01/31 03:05:47.7	92.820	0.320	-0.720	0.680
2020/01/31 03:05:47.8	92.810	0.320	-0.690	0.660
2020/01/31 03:05:47.9	92.800	0.320	-0.660	0.640
2020/01/31 03:05:48.0	92.790	0.310	-0.620	0.630
2020/01/31 03:05:48.1	92.790	0.310	-0.580	0.610
2020/01/31 03:05:48.2	92.770	0.300	-0.530	0.610
2020/01/31 03:05:48.3	92.760	0.290	-0.490	0.600
2020/01/31 03:05:48.4	92.740	0.280	-0.440	0.600
2020/01/31 03:05:48.5	92.720	0.270	-0.390	0.600
2020/01/31 03:05:48.6	92.700	0.250	-0.350	0.600
2020/01/31 03:05:48.7	92.690	0.240	-0.300	0.600
2020/01/31 03:05:48.8	92.670	0.220	-0.250	0.610
2020/01/31 03:05:48.9	92.650	0.210	-0.200	0.620
2020/01/31 03:05:49.0	92.630	0.190	-0.160	0.630
2020/01/31 03:05:49.1	92.610	0.170	-0.110	0.640
2020/01/31 03:05:49.2	92.590	0.160	-0.070	0.660
2020/01/31 03:05:49.3	92.570	0.140	-0.030	0.680
2020/01/31 03:05:49.4	92.550	0.120	0.010	0.700
2020/01/31 03:05:49.5	92.540	0.100	0.040	0.720
2020/01/31 03:05:49.6	92.520	0.090	0.070	0.740
2020/01/31 03:05:49.7	92.510	0.070	0.100	0.760
2020/01/31 03:05:49.8	92.490	0.060	0.120	0.790
2020/01/31 03:05:49.9	92.480	0.040	0.140	0.810
2020/01/31 03:05:50.0	92.470	0.030	0.160	0.830
2020/01/31 03:05:50.1	92.460	0.010	0.170	0.840
2020/01/31 03:05:50.2	92.450	0.000	0.180	0.860
2020/01/31 03:05:50.3	92.450	-0.010	0.180	0.870
2020/01/31 03:05:50.4	92.440	-0.020	0.180	0.880
2020/01/31 03:05:50.5	92.440	-0.030	0.170	0.890
2020/01/31 03:05:50.6	92.440	-0.040	0.170	0.890
2020/01/31 03:05:50.7	92.450	-0.040	0.150	0.900
2020/01/31 03:05:50.8	92.450	-0.050	0.140	0.890
2020/01/31 03:05:50.9	92.450	-0.050	0.120	0.890
2020/01/31 03:05:51.0	92.460	-0.050	0.100	0.880
2020/01/31 03:05:51.1	92.470	-0.060	0.070	0.870
2020/01/31 03:05:51.2	92.480	-0.060	0.050	0.850
2020/01/31 03:05:51.3	92.490	-0.060	0.020	0.830
2020/01/31 03:05:51.4	92.500	-0.050	-0.010	0.810
2020/01/31 03:05:51.5	92.520	-0.050	-0.030	0.790
2020/01/31 03:05:51.6	92.530	-0.050	-0.060	0.770
2020/01/31 03:05:51.7	92.550	-0.050	-0.080	0.750
2020/01/31 03:05:51.8	92.560	-0.040	-0.110	0.730
2020/01/31 03:05:51.9	92.580	-0.040	-0.130	0.700
2020/01/31 03:05:52.0	92.600	-0.040	-0.150	0.680
2020/01/31 03:05:52.1	92.620	-0.040	-0.160	0.660
2020/01/31 03:05:52.2	92.640	-0.040	-0.180	0.640
2020/01/31 03:05:52.3	92.660	-0.040	-0.190	0.630
2020/01/31 03:05:52.4	92.680	-0.040	-0.190	0.620
2020/01/31 03:05:52.5	92.690	-0.040	-0.200	0.610
2020/01/31 03:05:52.6	92.710	-0.040	-0.200	0.610
2020/01/31 03:05:52.7	92.730	-0.040	-0.200	0.600
2020/01/31 03:05:52.8	92.750	-0.040	-0.190	0.600
2020/01/31 03:05:52.9	92.760	-0.050	-0.190	0.610
2020/01/31 03:05:53.0	92.780	-0.050	-0.180	0.620
2020/01/31 03:05:53.1	92.800	-0.050	-0.170	0.630
2020/01/31 03:05:53.2	92.810	-0.060	-0.170	0.640
2020/01/31 03:05:53.3	92.830	-0.070	-0.160	0.660
2020/01/31 03:05:53.4	92.840	-0.070	-0.150	0.680
2020/01/31 03:05:53.5	92.850	-0.080	-0.140	0.700
2020/01/31 03:05:53.6	92.860	-0.080	-0.130	0.720
2020/01/31 03:05:53.7	92.880	-0.090	-0.130	0.750
2020/01/31 03:05:53.8	92.880	-0.090	-0.120	0.780
2020/01/31 03:05:53.9	92.890	-0.100	-0.120	0.810
2020/01/31 03:05:54.0	92.900	-0.100	-0.120	0.840
2020/01/31 03:05:54.1	92.910	-0.110	-0.120	0.870
2020/01/31 03:05:54.2	92.910	-0.110	-0.130	0.910
2020/01/31 03:05:54.3	92.910	-0.110	-0.130	0.940
2020/01/31 03:05:54.4	92.910	-0.120	-0.140	0.970
2020/01/31 03:05:54.5	92.910	-0.120	-0.150	1.000
2020/01/31 03:05:54.6	92.910	-0.120	-0.160	1.030
2020/01/31 03:05:54.7	92.910	-0.120	-0.180	1.060
2020/01/31 03:05:54.8	92.900	-0.120	-0.190	1.080
2020/01/31 03:05:54.9	92.900	-0.120	-0.210	1.100
2020/01/31 03:05:55.0	92.890	-0.110	-0.230	1.120
2020/01/31 03:05:55.1	92.880	-0.110	-0.250	1.130
2020/01/31 03:05:55.2	92.870	-0.100	-0.260	1.150
2020/01/31 03:05:55.3	92.860	-0.100	-0.280	1.160
2020/01/31 03:05:55.4	92.850	-0.090	-0.300	1.170
2020/01/31 03:05:55.5	92.840	-0.080	-0.320	1.170
2020/01/31 03:05:55.6	92.830	-0.070	-0.340	1.170
2020/01/31 03:05:55.7	92.820	-0.060	-0.360	1.170
2020/01/31 03:05:55.8	92.810	-0.050	-0.370	1.170
2020/01/31 03:05:55.9	92.790	-0.040	-0.390	1.160
2020/01/31 03:05:56.0	92.780	-0.030	-0.400	1.160
2020/01/31 03:05:56.1	92.770	-0.010	-0.410	1.140
2020/01/31 03:05:56.2	92.750	0.000	-0.430	1.130
2020/01/31 03:05:56.3	92.740	0.020	-0.440	1.130
2020/01/31 03:05:56.4	92.720	0.030	-0.450	1.110
2020/01/31 03:05:56.5	92.710	0.050	-0.460	1.100
2020/01/31 03:05:56.6	92.690	0.070	-0.470	1.090
2020/01/31 03:05:56.7	92.680	0.080	-0.480	1.080
2020/01/31 03:05:56.8	92.660	0.100	-0.490	1.070
2020/01/31 03:05:56.9	92.650	0.120	-0.500	1.060
2020/01/31 03:05:57.0	92.630	0.140	-0.500	1.050
2020/01/31 03:05:57.1	92.620	0.150	-0.510	1.040
2020/01/31 03:05:57.2	92.600	0.170	-0.510	1.030
2020/01/31 03:05:57.3	92.590	0.190	-0.510	1.020
2020/01/31 03:05:57.4	92.580	0.210	-0.510	1.010
2020/01/31 03:05:57.5	92.570	0.230	-0.520	1.000
2020/01/31 03:05:57.6	92.560	0.240	-0.520	0.990
2020/01/31 03:05:57.7	92.550	0.260	-0.520	0.980
2020/01/31 03:05:57.8	92.540	0.280	-0.510	0.970
2020/01/31 03:05:57.9	92.530	0.290	-0.510	0.960
2020/01/31 03:05:58.0	92.530	0.310	-0.510	0.950
2020/01/31 03:05:58.1	92.520	0.330	-0.510	0.940
2020/01/31 03:05:58.2	92.520	0.340	-0.510	0.930
2020/01/31 03:05:58.3	92.510	0.360	-0.510	0.910
2020/01/31 03:05:58.4	92.510	0.370	-0.500	0.890
2020/01/31 03:05:58.5	92.510	0.390	-0.500	0.880
2020/01/31 03:05:58.6	92.500	0.400	-0.500	0.860
2020/01/31 03:05:58.7	92.500	0.410	-0.490	0.840
2020/01/31 03:05:58.8	92.500	0.420	-0.490	0.820
2020/01/31 03:05:58.9	92.500	0.430	-0.480	0.800
2020/01/31 03:05:59.0	92.500	0.430	-0.480	0.780
2020/01/31 03:05:59.1	92.490	0.440	-0.470	0.750
2020/01/31 03:05:59.2	92.490	0.440	-0.460	0.730
2020/01/31 03:05:59.3	92.490	0.440	-0.450	0.710
2020/01/31 03:05:59.4	92.480	0.440	-0.440	0.690
2020/01/31 03:05:59.5	92.480	0.430	-0.430	0.670
2020/01/31 03:05:59.6	92.480	0.430	-0.410	0.660
2020/01/31 03:05:59.7	92.480	0.420	-0.400	0.640
2020/01/31 03:05:59.8	92.470	0.410	-0.380	0.620
2020/01/31 03:05:59.9	92.470	0.400	-0.360	0.610
2020/01/31 03:06:00.0	92.470	0.380	-0.340	0.590
2020/01/31 03:06:00.1	92.460	0.370	-0.320	0.570
2020/01/31 03:06:00.2	92.460	0.350	-0.290	0.560
2020/01/31 03:06:00.3	92.460	0.320	-0.270	0.550
2020/01/31 03:06:00.4	92.460	0.300	-0.240	0.540
2020/01/31 03:06:00.5	92.460	0.270	-0.210	0.530
2020/01/31 03:06:00.6	92.470	0.240	-0.180	0.520
2020/01/31 03:06:00.7	92.480	0.210	-0.140	0.510
2020/01/31 03:06:00.8	92.490	0.180	-0.100	0.510
2020/01/31 03:06:00.9	92.500	0.140	-0.060	0.510
2020/01/31 03:06:01.0	92.520	0.100	-0.010	0.510
2020/01/31 03:06:01.1	92.540	0.050	0.030	0.510
2020/01/31 03:06:01.2	92.560	0.010	0.080	0.510
2020/01/31 03:06:01.3	92.580	-0.040	0.130	0.520
2020/01/31 03:06:01.4	92.600	-0.090	0.180	0.530
2020/01/31 03:06:01.5	92.630	-0.140	0.230	0.540
2020/01/31 03:06:01.6	92.650	-0.190	0.280	0.550
2020/01/31 03:06:01.7	92.680	-0.240	0.340	0.570
2020/01/31 03:06:01.8	92.710	-0.300	0.390	0.590
2020/01/31 03:06:01.9	92.740	-0.350	0.440	0.610
2020/01/31 03:06:02.0	92.770	-0.410	0.490	0.630
2020/01/31 03:06:02.1	92.800	-0.460	0.540	0.650
2020/01/31 03:06:02.2	92.830	-0.510	0.590	0.680
2020/01/31 03:06:02.3	92.860	-0.570	0.630	0.710
2020/01/31 03:06:02.4	92.880	-0.620	0.670	0.740
2020/01/31 03:06:02.5	92.910	-0.670	0.700	0.770
2020/01/31 03:06:02.6	92.940	-0.720	0.730	0.810
2020/01/31 03:06:02.7	92.960	-0.760	0.750	0.840
2020/01/31 03:06:02.8	92.980	-0.810	0.770	0.880
2020/01/31 03:06:02.9	93.000	-0.850	0.780	0.920
2020/01/31 03:06:03.0	93.010	-0.880	0.780	0.960
2020/01/31 03:06:03.1	93.030	-0.920	0.780	1.000
2020/01/31 03:06:03.2	93.040	-0.940	0.760	1.030
2020/01/31 03:06:03.3	93.050	-0.970	0.740	1.070
2020/01/31 03:06:03.4	93.060	-0.990	0.710	1.110
2020/01/31 03:06:03.5	93.060	-1.000	0.680	1.140
2020/01/31 03:06:03.6	93.060	-1.010	0.630	1.180
2020/01/31 03:06:03.7	93.060	-1.020	0.580	1.210
2020/01/31 03:06:03.8	93.060	-1.020	0.520	1.240
2020/01/31 03:06:03.9	93.060	-1.010	0.460	1.260
2020/01/31 03:06:04.0	93.060	-1.000	0.380	1.290
2020/01/31 03:06:04.1	93.060	-0.980	0.300	1.300
2020/01/31 03:06:04.2	93.050	-0.960	0.220	1.320
2020/01/31 03:06:04.3	93.050	-0.930	0.120	1.340
2020/01/31 03:06:04.4	93.050	-0.900	0.030	1.350
2020/01/31 03:06:04.5	93.050	-0.870	-0.070	1.360
2020/01/31 03:06:04.6	93.040	-0.820	-0.180	1.360
2020/01/31 03:06:04.7	93.040	-0.780	-0.290	1.370
2020/01/31 03:06:04.8	93.040	-0.730	-0.400	1.370
2020/01/31 03:06:04.9	93.050	-0.670	-0.510	1.380
2020/01/31 03:06:05.0	93.050	-0.610	-0.620	1.380
2020/01/31 03:06:05.1	93.050	-0.550	-0.730	1.370
2020/01/31 03:06:05.2	93.050	-0.490	-0.840	1.370
2020/01/31 03:06:05.3	93.050	-0.420	-0.940	1.370
2020/01/31 03:06:05.4	93.050	-0.360	-1.050	1.370
2020/01/31 03:06:05.5	93.050	-0.290	-1.140	1.370
2020/01/31 03:06:05.6	93.050	-0.220	-1.240	1.370
2020/01/31 03:06:05.7	93.050	-0.150	-1.320	1.370
2020/01/31 03:06:05.8	93.050	-0.080	-1.400	1.370
2020/01/31 03:06:05.9	93.050	-0.010	-1.470	1.370
2020/01/31 03:06:06.0	93.040	0.060	-1.530	1.370
2020/01/31 03:06:06.1	93.040	0.120	-1.590	1.360
2020/01/31 03:06:06.2	93.030	0.190	-1.630	1.350
2020/01/31 03:06:06.3	93.020	0.250	-1.660	1.340
2020/01/31 03:06:06.4	93.010	0.310	-1.680	1.330
2020/01/31 03:06:06.5	93.000	0.360	-1.690	1.310
2020/01/31 03:06:06.6	92.980	0.410	-1.680	1.280
2020/01/31 03:06:06.7	92.970	0.460	-1.670	1.260
2020/01/31 03:06:06.8	92.950	0.510	-1.640	1.230
2020/01/31 03:06:06.9	92.930	0.540	-1.600	1.200
2020/01/31 03:06:07.0	92.910	0.580	-1.550	1.160
2020/01/31 03:06:07.1	92.870	0.610	-1.480	1.120
2020/01/31 03:06:07.2	92.850	0.640	-1.410	1.080
2020/01/31 03:06:07.3	92.820	0.660	-1.330	1.040
2020/01/31 03:06:07.4	92.790	0.670	-1.240	1.000
2020/01/31 03:06:07.5	92.760	0.680	-1.140	0.960
2020/01/31 03:06:07.6	92.730	0.690	-1.040	0.920
2020/01/31 03:06:07.7	92.710	0.690	-0.930	0.880
2020/01/31 03:06:07.8	92.680	0.690	-0.810	0.840
2020/01/31 03:06:07.9	92.650	0.690	-0.700	0.810
2020/01/31 03:06:08.0	92.620	0.680	-0.580	0.770
2020/01/31 03:06:08.1	92.590	0.670	-0.450	0.730
2020/01/31 03:06:08.2	92.560	0.650	-0.330	0.690
2020/01/31 03:06:08.3	92.530	0.630	-0.220	0.660
2020/01/31 03:06:08.4	92.510	0.610	-0.100	0.620
2020/01/31 03:06:08.5	92.480	0.590	0.010	0.590
2020/01/31 03:06:08.6	92.460	0.570	0.110	0.560
2020/01/31 03:06:08.7	92.440	0.540	0.210	0.540
2020/01/31 03:06:08.8	92.420	0.520	0.300	0.510
2020/01/31 03:06:08.9	92.400	0.490	0.390	0.480
2020/01/31 03:06:09.0	92.380	0.470	0.460	0.460
2020/01/31 03:06:09.1	92.360	0.440	0.530	0.430
2020/01/31 03:06:09.2	92.350	0.410	0.590	0.410
2020/01/31 03:06:09.3	92.340	0.390	0.640	0.380
2020/01/31 03:06:09.4	92.330	0.360	0.680	0.360
2020/01/31 03:06:09.5	92.330	0.330	0.710	0.330
2020/01/31 03:06:09.6	92.320	0.310	0.730	0.310
2020/01/31 03:06:09.7	92.320	0.280	0.750	0.280
2020/01/31 03:06:09.8	92.320	0.260	0.750	0.250
2020/01/31 03:06:09.9	92.330	0.240	0.750	0.230
2020/01/31 03:06:10.0	92.330	0.220	0.740	0.200
2020/01/31 03:06:10.1	92.330	0.190	0.730	0.170
2020/01/31 03:06:10.2	92.340	0.170	0.710	0.140
2020/01/31 03:06:10.3	92.350	0.160	0.680	0.120
2020/01/31 03:06:10.4	92.360	0.140	0.650	0.090
2020/01/31 03:06:10.5	92.370	0.120	0.610	0.070
2020/01/31 03:06:10.6	92.380	0.100	0.570	0.050
2020/01/31 03:06:10.7	92.390	0.090	0.530	0.030
2020/01/31 03:06:10.8	92.400	0.080	0.490	0.010
2020/01/31 03:06:10.9	92.410	0.060	0.440	-0.000
2020/01/31 03:06:11.0	92.420	0.050	0.390	-0.010
2020/01/31 03:06:11.1	92.420	0.040	0.340	-0.020
2020/01/31 03:06:11.2	92.430	0.030	0.290	-0.020
2020/01/31 03:06:11.3	92.440	0.030	0.240	-0.020
2020/01/31 03:06:11.4	92.450	0.020	0.180	-0.010
2020/01/31 03:06:11.5	92.460	0.020	0.130	-0.000
2020/01/31 03:06:11.6	92.470	0.010	0.080	0.010
2020/01/31 03:06:11.7	92.470	0.010	0.030	0.030
2020/01/31 03:06:11.8	92.480	0.010	-0.020	0.050
2020/01/31 03:06:11.9	92.490	0.010	-0.070	0.080
2020/01/31 03:06:12.0	92.500	0.010	-0.120	0.110
2020/01/31 03:06:12.1	92.510	0.010	-0.170	0.140
2020/01/31 03:06:12.2	92.530	0.010	-0.210	0.170
2020/01/31 03:06:12.3	92.540	0.010	-0.250	0.200
2020/01/31 03:06:12.4	92.550	0.020	-0.290	0.230
2020/01/31 03:06:12.5	92.570	0.020	-0.330	0.270
2020/01/31 03:06:12.6	92.590	0.020	-0.370	0.300
2020/01/31 03:06:12.7	92.610	0.020	-0.400	0.340
2020/01/31 03:06:12.8	92.630	0.020	-0.430	0.370
2020/01/31 03:06:12.9	92.650	0.020	-0.460	0.410
2020/01/31 03:06:13.0	92.670	0.020	-0.480	0.450
2020/01/31 03:06:13.1	92.700	0.020	-0.500	0.480
2020/01/31 03:06:13.2	92.720	0.010	-0.520	0.520
2020/01/31 03:06:13.3	92.740	0.010	-0.530	0.570
2020/01/31 03:06:13.4	92.770	-0.000	-0.540	0.610
2020/01/31 03:06:13.5	92.790	-0.010	-0.550	0.660
2020/01/31 03:06:13.6	92.820	-0.020	-0.550	0.710
2020/01/31 03:06:13.7	92.840	-0.030	-0.550	0.760
2020/01/31 03:06:13.8	92.860	-0.040	-0.550	0.810
2020/01/31 03:06:13.9	92.890	-0.060	-0.540	0.860
2020/01/31 03:06:14.0	92.910	-0.070	-0.530	0.920
2020/01/31 03:06:14.1	92.930	-0.090	-0.510	0.970
2020/01/31 03:06:14.2	92.950	-0.110	-0.490	1.030
2020/01/31 03:06:14.3	92.970	-0.120	-0.470	1.080
2020/01/31 03:06:14.4	92.980	-0.140	-0.450	1.140
2020/01/31 03:06:14.5	93.000	-0.160	-0.420	1.200
2020/01/31 03:06:14.6	93.010	-0.190	-0.390	1.260
2020/01/31 03:06:14.7	93.020	-0.210	-0.360	1.320
2020/01/31 03:06:14.8	93.030	-0.230	-0.330	1.370
2020/01/31 03:06:14.9	93.040	-0.250	-0.300	1.430
2020/01/31 03:06:15.0	93.050	-0.270	-0.260	1.480
2020/01/31 03:06:15.1	93.040	-0.290	-0.230	1.530
2020/01/31 03:06:15.2	93.040	-0.310	-0.200	1.580
2020/01/31 03:06:15.3	93.050	-0.330	-0.160	1.620
2020/01/31 03:06:15.4	93.040	-0.350	-0.130	1.660
2020/01/31 03:06:15.5	93.040	-0.360	-0.100	1.700
2020/01/31 03:06:15.6	93.040	-0.380	-0.070	1.730
2020/01/31 03:06:15.7	93.030	-0.390	-0.040	1.760
2020/01/31 03:06:15.8	93.020	-0.400	-0.020	1.790
2020/01/31 03:06:15.9	93.020	-0.410	0.010	1.810
2020/01/31 03:06:16.0	93.010	-0.420	0.030	1.830
2020/01/31 03:06:16.1	93.000	-0.420	0.050	1.840
2020/01/31 03:06:16.2	92.990	-0.430	0.060	1.850
2020/01/31 03:06:16.3	92.980	-0.430	0.070	1.860
2020/01/31 03:06:16.4	92.960	-0.430	0.070	1.870
2020/01/31 03:06:16.5	92.950	-0.430	0.070	1.870
2020/01/31 03:06:16.6	92.940	-0.420	0.070	1.860
2020/01/31 03:06:16.7	92.920	-0.410	0.060	1.860
2020/01/31 03:06:16.8	92.910	-0.400	0.040	1.850
2020/01/31 03:06:16.9	92.900	-0.390	0.030	1.840
2020/01/31 03:06:17.0	92.890	-0.380	0.010	1.820
2020/01/31 03:06:17.1	92.880	-0.360	-0.020	1.810
2020/01/31 03:06:17.2	92.870	-0.350	-0.050	1.780
2020/01/31 03:06:17.3	92.870	-0.330	-0.090	1.760
2020/01/31 03:06:17.4	92.860	-0.310	-0.120	1.730
2020/01/31 03:06:17.5	92.860	-0.290	-0.160	1.700
2020/01/31 03:06:17.6	92.860	-0.260	-0.210	1.660
2020/01/31 03:06:17.7	92.860	-0.240	-0.250	1.630
2020/01/31 03:06:17.8	92.860	-0.220	-0.290	1.590
2020/01/31 03:06:17.9	92.860	-0.190	-0.340	1.550
2020/01/31 03:06:18.0	92.860	-0.170	-0.380	1.510
2020/01/31 03:06:18.1	92.850	-0.150	-0.430	1.450
2020/01/31 03:06:18.2	92.860	-0.120	-0.470	1.410
2020/01/31 03:06:18.3	92.860	-0.100	-0.510	1.360
2020/01/31 03:06:18.4	92.870	-0.080	-0.550	1.310
2020/01/31 03:06:18.5	92.870	-0.060	-0.590	1.260
2020/01/31 03:06:18.6	92.880	-0.040	-0.620	1.210
2020/01/31 03:06:18.7	92.880	-0.020	-0.650	1.160
2020/01/31 03:06:18.8	92.890	0.000	-0.680	1.110
2020/01/31 03:06:18.9	92.890	0.020	-0.710	1.060
2020/01/31 03:06:19.0	92.900	0.030	-0.730	1.010
2020/01/31 03:06:19.1	92.900	0.050	-0.740	0.970
2020/01/31 03:06:19.2	92.910	0.060	-0.750	0.920
2020/01/31 03:06:19.3	92.910	0.070	-0.760	0.870
2020/01/31 03:06:19.4	92.910	0.080	-0.770	0.830
2020/01/31 03:06:19.5	92.920	0.090	-0.760	0.790
2020/01/31 03:06:19.6	92.920	0.090	-0.760	0.750
2020/01/31 03:06:19.7	92.920	0.100	-0.750	0.710
2020/01/31 03:06:19.8	92.920	0.100	-0.740	0.680
2020/01/31 03:06:19.9	92.920	0.100	-0.720	0.640
2020/01/31 03:06:20.0	92.910	0.100	-0.700	0.620
2020/01/31 03:06:20.1	92.910	0.100	-0.680	0.580
2020/01/31 03:06:20.2	92.900	0.100	-0.650	0.560
2020/01/31 03:06:20.3	92.890	0.100	-0.620	0.540
2020/01/31 03:06:20.4	92.880	0.100	-0.590	0.520
2020/01/31 03:06:20.5	92.870	0.090	-0.550	0.510
2020/01/31 03:06:20.6	92.860	0.090	-0.510	0.500
2020/01/31 03:06:20.7	92.840	0.080	-0.470	0.490
2020/01/31 03:06:20.8	92.830	0.070	-0.430	0.490
2020/01/31 03:06:20.9	92.810	0.070	-0.380	0.480
2020/01/31 03:06:21.0	92.800	0.060	-0.330	0.480
2020/01/31 03:06:21.1	92.780	0.050	-0.280	0.480
2020/01/31 03:06:21.2	92.760	0.040	-0.230	0.480
2020/01/31 03:06:21.3	92.750	0.020	-0.180	0.490
2020/01/31 03:06:21.4	92.730	0.010	-0.130	0.490
2020/01/31 03:06:21.5	92.720	-0.000	-0.080	0.500
2020/01/31 03:06:21.6	92.700	-0.010	-0.030	0.500
2020/01/31 03:06:21.7	92.680	-0.030	0.020	0.510
2020/01/31 03:06:21.8	92.670	-0.040	0.070	0.520
2020/01/31 03:06:21.9	92.650	-0.060	0.110	0.530
2020/01/31 03:06:22.0	92.640	-0.070	0.150	0.540
2020/01/31 03:06:22.1	92.640	-0.080	0.190	0.550
2020/01/31 03:06:22.2	92.630	-0.090	0.220	0.560
2020/01/31 03:06:22.3	92.620	-0.100	0.250	0.570
2020/01/31 03:06:22.4	92.610	-0.110	0.270	0.590
2020/01/31 03:06:22.5	92.600	-0.120	0.290	0.600
2020/01/31 03:06:22.6	92.600	-0.120	0.300	0.610
2020/01/31 03:06:22.7	92.590	-0.120	0.300	0.610
2020/01/31 03:06:22.8	92.590	-0.120	0.300	0.620
2020/01/31 03:06:22.9	92.600	-0.120	0.290	0.630
2020/01/31 03:06:23.0	92.600	-0.110	0.270	0.630
2020/01/31 03:06:23.1	92.600	-0.100	0.250	0.630
2020/01/31 03:06:23.2	92.610	-0.090	0.220	0.630
2020/01/31 03:06:23.3	92.620	-0.080	0.180	0.630
2020/01/31 03:06:23.4	92.640	-0.060	0.140	0.630
2020/01/31 03:06:23.5	92.650	-0.040	0.090	0.620
2020/01/31 03:06:23.6	92.660	-0.010	0.030	0.620
2020/01/31 03:06:23.7	92.680	0.020	-0.020	0.610
2020/01/31 03:06:23.8	92.700	0.040	-0.080	0.600
2020/01/31 03:06:23.9	92.720	0.070	-0.150	0.600
2020/01/31 03:06:24.0	92.740	0.100	-0.210	0.590
2020/01/31 03:06:24.1	92.760	0.140	-0.280	0.580
2020/01/31 03:06:24.2	92.770	0.170	-0.340	0.570
2020/01/31 03:06:24.3	92.790	0.200	-0.390	0.560
2020/01/31 03:06:24.4	92.810	0.230	-0.450	0.550
2020/01/31 03:06:24.5	92.830	0.260	-0.500	0.540
2020/01/31 03:06:24.6	92.840	0.290	-0.540	0.540
2020/01/31 03:06:24.7	92.860	0.320	-0.570	0.530
2020/01/31 03:06:24.8	92.870	0.340	-0.600	0.530
2020/01/31 03:06:24.9	92.890	0.360	-0.630	0.530
2020/01/31 03:06:25.0	92.900	0.380	-0.640	0.530
2020/01/31 03:06:25.1	92.920	0.390	-0.640	0.530
2020/01/31 03:06:25.2	92.930	0.400	-0.640	0.530
2020/01/31 03:06:25.3	92.930	0.410	-0.630	0.540
2020/01/31 03:06:25.4	92.940	0.410	-0.600	0.550
2020/01/31 03:06:25.5	92.940	0.410	-0.570	0.560
2020/01/31 03:06:25.6	92.950	0.400	-0.540	0.580
2020/01/31 03:06:25.7	92.950	0.390	-0.490	0.590
2020/01/31 03:06:25.8	92.950	0.380	-0.440	0.610
2020/01/31 03:06:25.9	92.950	0.360	-0.380	0.630
2020/01/31 03:06:26.0	92.960	0.340	-0.310	0.650
2020/01/31 03:06:26.1	92.950	0.310	-0.250	0.670
2020/01/31 03:06:26.2	92.950	0.290	-0.170	0.690
2020/01/31 03:06:26.3	92.950	0.260	-0.100	0.710
2020/01/31 03:06:26.4	92.950	0.220	-0.020	0.730
2020/01/31 03:06:26.5	92.950	0.190	0.060	0.750
2020/01/31 03:06:26.6	92.950	0.150	0.140	0.770
2020/01/31 03:06:26.7	92.960	0.110	0.220	0.790
2020/01/31 03:06:26.8	92.960	0.070	0.290	0.800
2020/01/31 03:06:26.9	92.970	0.040	0.360	0.820
2020/01/31 03:06:27.0	92.970	-0.000	0.430	0.830
2020/01/31 03:06:27.1	92.970	-0.040	0.500	0.840
2020/01/31 03:06:27.2	92.980	-0.080	0.560	0.850
2020/01/31 03:06:27.3	92.980	-0.110	0.600	0.860
2020/01/31 03:06:27.4	92.990	-0.140	0.650	0.870
2020/01/31 03:06:27.5	93.000	-0.170	0.680	0.870
2020/01/31 03:06:27.6	93.010	-0.200	0.700	0.880
2020/01/31 03:06:27.7	93.020	-0.220	0.720	0.890
2020/01/31 03:06:27.8	93.040	-0.230	0.720	0.890
2020/01/31 03:06:27.9	93.040	-0.250	0.710	0.900
2020/01/31 03:06:28.0	93.050	-0.250	0.690	0.900
2020/01/31 03:06:28.1	93.060	-0.260	0.660	0.900
2020/01/31 03:06:28.2	93.070	-0.260	0.620	0.910
2020/01/31 03:06:28.3	93.070	-0.250	0.570	0.920
2020/01/31 03:06:28.4	93.080	-0.240	0.500	0.920
2020/01/31 03:06:28.5	93.080	-0.220	0.430	0.930
2020/01/31 03:06:28.6	93.080	-0.200	0.360	0.930
2020/01/31 03:06:28.7	93.080	-0.180	0.270	0.940
2020/01/31 03:06:28.8	93.080	-0.150	0.180	0.940
2020/01/31 03:06:28.9	93.080	-0.120	0.080	0.950
2020/01/31 03:06:29.0	93.070	-0.080	-0.020	0.950
2020/01/31 03:06:29.1	93.070	-0.050	-0.130	0.950
2020/01/31 03:06:29.2	93.070	-0.010	-0.230	0.950
2020/01/31 03:06:29.3	93.060	0.020	-0.340	0.950
2020/01/31 03:06:29.4	93.050	0.060	-0.440	0.950
2020/01/31 03:06:29.5	93.050	0.100	-0.540	0.940
2020/01/31 03:06:29.6	93.040	0.130	-0.640	0.940
2020/01/31 03:06:29.7	93.040	0.170	-0.740	0.930
2020/01/31 03:06:29.8	93.030	0.200	-0.830	0.930
2020/01/31 03:06:29.9	93.030	0.230	-0.910	0.920
2020/01/31 03:06:30.0	93.020	0.250	-0.990	0.920
2020/01/31 03:06:30.1	93.030	0.280	-1.060	0.910
2020/01/31 03:06:30.2	93.020	0.300	-1.120	0.910
2020/01/31 03:06:30.3	93.020	0.310	-1.170	0.910
2020/01/31 03:06:30.4	93.020	0.320	-1.220	0.920
2020/01/31 03:06:30.5	93.020	0.330	-1.250	0.920
2020/01/31 03:06:30.6	93.020	0.330	-1.270	0.930
2020/01/31 03:06:30.7	93.030	0.330	-1.290	0.940
2020/01/31 03:06:30.8	93.030	0.320	-1.290	0.960
2020/01/31 03:06:30.9	93.030	0.310	-1.280	0.980
2020/01/31 03:06:31.0	93.030	0.300	-1.270	1.000
2020/01/31 03:06:31.1	93.040	0.280	-1.240	1.020
2020/01/31 03:06:31.2	93.040	0.250	-1.210	1.040
2020/01/31 03:06:31.3	93.040	0.220	-1.160	1.060
2020/01/31 03:06:31.4	93.050	0.190	-1.110	1.090
2020/01/31 03:06:31.5	93.050	0.160	-1.050	1.120
2020/01/31 03:06:31.6	93.050	0.120	-0.980	1.140
2020/01/31 03:06:31.7	93.060	0.080	-0.910	1.170
2020/01/31 03:06:31.8	93.060	0.030	-0.830	1.190
2020/01/31 03:06:31.9	93.060	-0.010	-0.740	1.220
2020/01/31 03:06:32.0	93.060	-0.060	-0.660	1.240
2020/01/31 03:06:32.1	93.060	-0.110	-0.570	1.260
2020/01/31 03:06:32.2	93.060	-0.150	-0.480	1.270
2020/01/31 03:06:32.3	93.060	-0.200	-0.380	1.290
2020/01/31 03:06:32.4	93.060	-0.250	-0.290	1.300
2020/01/31 03:06:32.5	93.060	-0.300	-0.200	1.300
2020/01/31 03:06:32.6	93.060	-0.340	-0.120	1.310
2020/01/31 03:06:32.7	93.060	-0.380	-0.040	1.310
2020/01/31 03:06:32.8	93.050	-0.420	0.040	1.310
2020/01/31 03:06:32.9	93.050	-0.460	0.110	1.300
2020/01/31 03:06:33.0	93.040	-0.490	0.180	1.290
2020/01/31 03:06:33.1	93.040	-0.520	0.240	1.270
2020/01/31 03:06:33.2	93.040	-0.550	0.290	1.260
2020/01/31 03:06:33.3	93.030	-0.570	0.330	1.240
2020/01/31 03:06:33.4	93.020	-0.590	0.360	1.220
2020/01/31 03:06:33.5	93.020	-0.600	0.380	1.200
2020/01/31 03:06:33.6	93.010	-0.610	0.400	1.180
2020/01/31 03:06:33.7	93.000	-0.620	0.400	1.150
2020/01/31 03:06:33.8	93.000	-0.620	0.400	1.130
2020/01/31 03:06:33.9	92.990	-0.620	0.390	1.100
2020/01/31 03:06:34.0	92.990	-0.610	0.370	1.080
2020/01/31 03:06:34.1	92.980	-0.600	0.340	1.060
2020/01/31 03:06:34.2	92.980	-0.590	0.310	1.040
2020/01/31 03:06:34.3	92.980	-0.570	0.280	1.020
2020/01/31 03:06:34.4	92.980	-0.550	0.240	1.000
2020/01/31 03:06:34.5	92.980	-0.530	0.190	0.980
2020/01/31 03:06:34.6	92.980	-0.510	0.140	0.960
2020/01/31 03:06:34.7	92.980	-0.480	0.090	0.950
2020/01/31 03:06:34.8	92.980	-0.460	0.040	0.940
2020/01/31 03:06:34.9	92.990	-0.430	-0.010	0.920
2020/01/31 03:06:35.0	92.990	-0.400	-0.060	0.910
2020/01/31 03:06:35.1	93.000	-0.380	-0.110	0.900
2020/01/31 03:06:35.2	93.000	-0.350	-0.160	0.890
2020/01/31 03:06:35.3	93.010	-0.320	-0.210	0.880
2020/01/31 03:06:35.4	93.020	-0.290	-0.250	0.870
2020/01/31 03:06:35.5	93.020	-0.270	-0.290	0.860
2020/01/31 03:06:35.6	93.030	-0.240	-0.320	0.850
2020/01/31 03:06:35.7	93.030	-0.220	-0.350	0.840
2020/01/31 03:06:35.8	93.040	-0.190	-0.380	0.830
2020/01/31 03:06:35.9	93.040	-0.170	-0.390	0.830
2020/01/31 03:06:36.0	93.040	-0.150	-0.410	0.820
2020/01/31 03:06:36.1	93.040	-0.140	-0.410	0.810
2020/01/31 03:06:36.2	93.040	-0.120	-0.410	0.800
2020/01/31 03:06:36.3	93.040	-0.110	-0.400	0.780
2020/01/31 03:06:36.4	93.040	-0.090	-0.390	0.770
2020/01/31 03:06:36.5	93.040	-0.080	-0.370	0.760
2020/01/31 03:06:36.6	93.040	-0.070	-0.340	0.750
2020/01/31 03:06:36.7	93.040	-0.060	-0.310	0.730
2020/01/31 03:06:36.8	93.040	-0.060	-0.280	0.720
2020/01/31 03:06:36.9	93.040	-0.050	-0.240	0.710
2020/01/31 03:06:37.0	93.030	-0.050	-0.200	0.690
2020/01/31 03:06:37.1	93.030	-0.040	-0.150	0.680
2020/01/31 03:06:37.2	93.030	-0.040	-0.110	0.660
2020/01/31 03:06:37.3	93.030	-0.040	-0.060	0.650
2020/01/31 03:06:37.4	93.020	-0.030	-0.020	0.630
2020/01/31 03:06:37.5	93.020	-0.030	0.030	0.620
2020/01/31 03:06:37.6	93.020	-0.020	0.070	0.610
2020/01/31 03:06:37.7	93.020	-0.020	0.110	0.600
2020/01/31 03:06:37.8	93.020	-0.010	0.140	0.580
2020/01/31 03:06:37.9	93.020	-0.000	0.170	0.580
2020/01/31 03:06:38.0	93.020	0.010	0.190	0.570
2020/01/31 03:06:38.1	93.010	0.020	0.210	0.560
2020/01/31 03:06:38.2	93.010	0.030	0.220	0.550
2020/01/31 03:06:38.3	93.020	0.050	0.220	0.550
2020/01/31 03:06:38.4	93.020	0.070	0.210	0.540
2020/01/31 03:06:38.5	93.030	0.090	0.190	0.540
2020/01/31 03:06:38.6	93.030	0.120	0.160	0.540
2020/01/31 03:06:38.7	93.040	0.150	0.120	0.540
2020/01/31 03:06:38.8	93.050	0.180	0.080	0.550
2020/01/31 03:06:38.9	93.060	0.220	0.020	0.550
2020/01/31 03:06:39.0	93.070	0.260	-0.040	0.560
2020/01/31 03:06:39.1	93.080	0.310	-0.110	0.560
2020/01/31 03:06:39.2	93.100	0.350	-0.190	0.570
2020/01/31 03:06:39.3	93.110	0.400	-0.280	0.570
2020/01/31 03:06:39.4	93.120	0.460	-0.360	0.580
2020/01/31 03:06:39.5	93.130	0.510	-0.450	0.590
2020/01/31 03:06:39.6	93.140	0.570	-0.550	0.600
2020/01/31 03:06:39.7	93.150	0.620	-0.640	0.600
2020/01/31 03:06:39.8	93.160	0.680	-0.730	0.610
2020/01/31 03:06:39.9	93.180	0.730	-0.820	0.620
2020/01/31 03:06:40.0	93.180	0.780	-0.900	0.630
2020/01/31 03:06:40.1	93.190	0.830	-0.970	0.630
2020/01/31 03:06:40.2	93.200	0.880	-1.040	0.640
2020/01/31 03:06:40.3	93.200	0.920	-1.090	0.640
2020/01/31 03:06:40.4	93.210	0.950	-1.130	0.650
2020/01/31 03:06:40.5	93.210	0.980	-1.160	0.650
2020/01/31 03:06:40.6	93.210	1.010	-1.180	0.650
2020/01/31 03:06:40.7	93.210	1.030	-1.180	0.650
2020/01/31 03:06:40.8	93.210	1.040	-1.170	0.650
2020/01/31 03:06:40.9	93.210	1.040	-1.140	0.660
2020/01/31 03:06:41.0	93.210	1.040	-1.100	0.660
2020/01/31 03:06:41.1	93.200	1.030	-1.040	0.660
2020/01/31 03:06:41.2	93.190	1.010	-0.980	0.660
2020/01/31 03:06:41.3	93.190	0.990	-0.890	0.670
2020/01/31 03:06:41.4	93.180	0.950	-0.800	0.680
2020/01/31 03:06:41.5	93.170	0.910	-0.700	0.700
2020/01/31 03:06:41.6	93.160	0.870	-0.580	0.720
2020/01/31 03:06:41.7	93.150	0.810	-0.460	0.740
2020/01/31 03:06:41.8	93.140	0.750	-0.330	0.760
2020/01/31 03:06:41.9	93.130	0.680	-0.200	0.790
2020/01/31 03:06:42.0	93.120	0.610	-0.060	0.820
2020/01/31 03:06:42.1	93.110	0.530	0.080	0.850
2020/01/31 03:06:42.2	93.100	0.450	0.220	0.890
2020/01/31 03:06:42.3	93.090	0.370	0.360	0.930
2020/01/31 03:06:42.4	93.080	0.280	0.490	0.970
2020/01/31 03:06:42.5	93.070	0.190	0.620	1.010
2020/01/31 03:06:42.6	93.060	0.100	0.730	1.050
2020/01/31 03:06:42.7	93.050	0.010	0.840	1.100
2020/01/31 03:06:42.8	93.050	-0.070	0.940	1.140
2020/01/31 03:06:42.9	93.050	-0.160	1.030	1.180
2020/01/31 03:06:43.0	93.050	-0.250	1.100	1.220
2020/01/31 03:06:43.1	93.050	-0.330	1.160	1.260
2020/01/31 03:06:43.2	93.050	-0.410	1.210	1.300
2020/01/31 03:06:43.3	93.060	-0.490	1.240	1.330
2020/01/31 03:06:43.4	93.070	-0.560	1.250	1.370
2020/01/31 03:06:43.5	93.080	-0.620	1.250	1.390
2020/01/31 03:06:43.6	93.090	-0.680	1.240	1.410
2020/01/31 03:06:43.7	93.110	-0.730	1.200	1.430
2020/01/31 03:06:43.8	93.130	-0.780	1.160	1.450
2020/01/31 03:06:43.9	93.150	-0.820	1.100	1.460
2020/01/31 03:06:44.0	93.170	-0.850	1.020	1.470
2020/01/31 03:06:44.1	93.180	-0.880	0.930	1.460
2020/01/31 03:06:44.2	93.200	-0.900	0.830	1.470
2020/01/31 03:06:44.3	93.220	-0.910	0.720	1.470
2020/01/31 03:06:44.4	93.240	-0.920	0.600	1.470
2020/01/31 03:06:44.5	93.260	-0.920	0.480	1.470
2020/01/31 03:06:44.6	93.270	-0.910	0.340	1.470
2020/01/31 03:06:44.7	93.280	-0.900	0.210	1.460
2020/01/31 03:06:44.8	93.290	-0.890	0.070	1.460
2020/01/31 03:06:44.9	93.300	-0.870	-0.070	1.460
2020/01/31 03:06:45.0	93.310	-0.840	-0.210	1.460
2020/01/31 03:06:45.1	93.300	-0.820	-0.340	1.450
2020/01/31 03:06:45.2	93.300	-0.790	-0.470	1.450
2020/01/31 03:06:45.3	93.300	-0.750	-0.600	1.440
2020/01/31 03:06:45.4	93.290	-0.720	-0.720	1.440
2020/01/31 03:06:45.5	93.280	-0.680	-0.830	1.440
2020/01/31 03:06:45.6	93.270	-0.650	-0.930	1.430
2020/01/31 03:06:45.7	93.260	-0.610	-1.020	1.430
2020/01/31 03:06:45.8	93.250	-0.570	-1.100	1.430
2020/01/31 03:06:45.9	93.230	-0.530	-1.170	1.420
2020/01/31 03:06:46.0	93.210	-0.500	-1.230	1.420
2020/01/31 03:06:46.1	93.190	-0.460	-1.280	1.420
2020/01/31 03:06:46.2	93.170	-0.420	-1.320	1.420
2020/01/31 03:06:46.3	93.150	-0.390	-1.350	1.430
2020/01/31 03:06:46.4	93.120	-0.350	-1.360	1.440
2020/01/31 03:06:46.5	93.100	-0.320	-1.370	1.440
2020/01/31 03:06:46.6	93.070	-0.290	-1.360	1.450
2020/01/31 03:06:46.7	93.040	-0.260	-1.350	1.470
2020/01/31 03:06:46.8	93.010	-0.230	-1.330	1.480
2020/01/31 03:06:46.9	92.980	-0.210	-1.300	1.490
2020/01/31 03:06:47.0	92.950	-0.180	-1.260	1.500
2020/01/31 03:06:47.1	92.900	-0.160	-1.220	1.510
2020/01/31 03:06:47.2	92.870	-0.130	-1.170	1.520
2020/01/31 03:06:47.3	92.840	-0.110	-1.120	1.530
2020/01/31 03:06:47.4	92.810	-0.090	-1.060	1.540
2020/01/31 03:06:47.5	92.780	-0.070	-1.010	1.540
2020/01/31 03:06:47.6	92.750	-0.060	-0.950	1.540
2020/01/31 03:06:47.7	92.720	-0.040	-0.880	1.540
2020/01/31 03:06:47.8	92.690	-0.020	-0.820	1.530
2020/01/31 03:06:47.9	92.670	-0.000	-0.760	1.520
2020/01/31 03:06:48.0	92.650	0.010	-0.700	1.500
2020/01/31 03:06:48.1	92.620	0.030	-0.640	1.480
2020/01/31 03:06:48.2	92.610	0.040	-0.580	1.450
2020/01/31 03:06:48.3	92.590	0.060	-0.530	1.420
2020/01/31 03:06:48.4	92.580	0.080	-0.480	1.380
2020/01/31 03:06:48.5	92.570	0.090	-0.430	1.340
2020/01/31 03:06:48.6	92.560	0.110	-0.390	1.290
2020/01/31 03:06:48.7	92.560	0.130	-0.340	1.240
2020/01/31 03:06:48.8	92.560	0.140	-0.310	1.190
2020/01/31 03:06:48.9	92.560	0.160	-0.270	1.140
2020/01/31 03:06:49.0	92.560	0.180	-0.240	1.080
2020/01/31 03:06:49.1	92.560	0.200	-0.220	1.020
2020/01/31 03:06:49.2	92.570	0.220	-0.200	0.960
2020/01/31 03:06:49.3	92.570	0.240	-0.180	0.900
2020/01/31 03:06:49.4	92.580	0.260	-0.160	0.840
2020/01/31 03:06:49.5	92.590	0.280	-0.150	0.780
2020/01/31 03:06:49.6	92.600	0.300	-0.140	0.720
2020/01/31 03:06:49.7	92.610	0.320	-0.130	0.660
2020/01/31 03:06:49.8	92.620	0.340	-0.120	0.610
2020/01/31 03:06:49.9	92.630	0.360	-0.110	0.550
2020/01/31 03:06:50.0	92.640	0.380	-0.110	0.500
2020/01/31 03:06:50.1	92.650	0.400	-0.100	0.460
2020/01/31 03:06:50.2	92.660	0.410	-0.090	0.410
2020/01/31 03:06:50.3	92.670	0.420	-0.080	0.360
2020/01/31 03:06:50.4	92.680	0.440	-0.080	0.320
2020/01/31 03:06:50.5	92.690	0.440	-0.060	0.280
2020/01/31 03:06:50.6	92.700	0.450	-0.050	0.250
2020/01/31 03:06:50.7	92.710	0.460	-0.040	0.210
2020/01/31 03:06:50.8	92.720	0.460	-0.020	0.180
2020/01/31 03:06:50.9	92.730	0.460	0.000	0.150
2020/01/31 03:06:51.0	92.740	0.450	0.020	0.130
2020/01/31 03:06:51.1	92.740	0.450	0.040	0.100
2020/01/31 03:06:51.2	92.760	0.440	0.070	0.090
2020/01/31 03:06:51.3	92.770	0.430	0.100	0.070
2020/01/31 03:06:51.4	92.780	0.410	0.120	0.060
2020/01/31 03:06:51.5	92.790	0.400	0.150	0.060
2020/01/31 03:06:51.6	92.800	0.380	0.180	0.060
2020/01/31 03:06:51.7	92.810	0.360	0.210	0.060
2020/01/31 03:06:51.8	92.820	0.340	0.240	0.070
2020/01/31 03:06:51.9	92.830	0.310	0.270	0.080
2020/01/31 03:06:52.0	92.840	0.290	0.300	0.090
2020/01/31 03:06:52.1	92.850	0.260	0.330	0.110
2020/01/31 03:06:52.2	92.860	0.240	0.350	0.140
2020/01/31 03:06:52.3	92.880	0.210	0.370	0.160
2020/01/31 03:06:52.4	92.890	0.180	0.390	0.190
2020/01/31 03:06:52.5	92.900	0.150	0.410	0.230
2020/01/31 03:06:52.6	92.910	0.120	0.420	0.260
2020/01/31 03:06:52.7	92.920	0.090	0.430	0.300
2020/01/31 03:06:52.8	92.930	0.060	0.440	0.340
2020/01/31 03:06:52.9	92.940	0.040	0.440	0.390
2020/01/31 03:06:53.0	92.950	0.010	0.440	0.430
2020/01/31 03:06:53.1	92.960	-0.020	0.430	0.480
2020/01/31 03:06:53.2	92.970	-0.040	0.420	0.520
2020/01/31 03:06:53.3	92.980	-0.070	0.410	0.570
2020/01/31 03:06:53.4	92.980	-0.090	0.390	0.610
2020/01/31 03:06:53.5	92.990	-0.110	0.370	0.650
2020/01/31 03:06:53.6	92.990	-0.130	0.340	0.690
2020/01/31 03:06:53.7	93.000	-0.150	0.320	0.720
2020/01/31 03:06:53.8	93.000	-0.170	0.290	0.750
2020/01/31 03:06:53.9	93.010	-0.190	0.260	0.780
2020/01/31 03:06:54.0	93.010	-0.200	0.220	0.810
2020/01/31 03:06:54.1	93.020	-0.210	0.190	0.830
2020/01/31 03:06:54.2	93.020	-0.230	0.150	0.850
2020/01/31 03:06:54.3	93.030	-0.240	0.110	0.860
2020/01/31 03:06:54.4	93.030	-0.240	0.070	0.880
2020/01/31 03:06:54.5	93.040	-0.250	0.040	0.890
2020/01/31 03:06:54.6	93.050	-0.260	-0.000	0.900
2020/01/31 03:06:54.7	93.050	-0.260	-0.040	0.910
2020/01/31 03:06:54.8	93.060	-0.260	-0.080	0.920
2020/01/31 03:06:54.9	93.060	-0.260	-0.120	0.930
2020/01/31 03:06:55.0	93.070	-0.260	-0.150	0.950
2020/01/31 03:06:55.1	93.080	-0.260	-0.180	0.960
2020/01/31 03:06:55.2	93.080	-0.250	-0.220	0.970
2020/01/31 03:06:55.3	93.080	-0.240	-0.260	0.990
2020/01/31 03:06:55.4	93.080	-0.230	-0.290	1.010
2020/01/31 03:06:55.5	93.080	-0.220	-0.330	1.030
2020/01/31 03:06:55.6	93.090	-0.210	-0.370	1.050
2020/01/31 03:06:55.7	93.090	-0.190	-0.410	1.070
2020/01/31 03:06:55.8	93.080	-0.180	-0.440	1.090
2020/01/31 03:06:55.9	93.080	-0.160	-0.480	1.110
2020/01/31 03:06:56.0	93.080	-0.140	-0.520	1.130
2020/01/31 03:06:56.1	93.070	-0.110	-0.560	1.150
2020/01/31 03:06:56.2	93.070	-0.090	-0.600	1.170
2020/01/31 03:06:56.3	93.070	-0.060	-0.640	1.190
2020/01/31 03:06:56.4	93.070	-0.040	-0.680	1.200
2020/01/31 03:06:56.5	93.070	-0.010	-0.720	1.210
2020/01/31 03:06:56.6	93.060	0.020	-0.750	1.220
2020/01/31 03:06:56.7	93.060	0.050	-0.790	1.230
2020/01/31 03:06:56.8	93.060	0.070	-0.820	1.230
2020/01/31 03:06:56.9	93.050	0.100	-0.860	1.230
2020/01/31 03:06:57.0	93.050	0.130	-0.890	1.230
2020/01/31 03:06:57.1	93.040	0.150	-0.910	1.220
2020/01/31 03:06:57.2	93.030	0.170	-0.940	1.210
2020/01/31 03:06:57.3	93.030	0.200	-0.960	1.200
2020/01/31 03:06:57.4	93.030	0.220	-0.970	1.190
2020/01/31 03:06:57.5	93.020	0.230	-0.980	1.180
2020/01/31 03:06:57.6	93.020	0.250	-0.990	1.170
2020/01/31 03:06:57.7	93.010	0.260	-0.990	1.160
2020/01/31 03:06:57.8	93.010	0.270	-0.990	1.150
2020/01/31 03:06:57.9	93.000	0.280	-0.980	1.140
2020/01/31 03:06:58.0	93.000	0.290	-0.970	1.130
2020/01/31 03:06:58.1	92.990	0.290	-0.950	1.110
2020/01/31 03:06:58.2	92.990	0.290	-0.930	1.110
2020/01/31 03:06:58.3	92.980	0.290	-0.900	1.100
2020/01/31 03:06:58.4	92.980	0.280	-0.870	1.090
2020/01/31 03:06:58.5	92.970	0.270	-0.840	1.090
2020/01/31 03:06:58.6	92.970	0.260	-0.800	1.090
2020/01/31 03:06:58.7	92.960	0.250	-0.750	1.090
2020/01/31 03:06:58.8	92.960	0.230	-0.710	1.090
2020/01/31 03:06:58.9	92.950	0.220	-0.660	1.080
2020/01/31 03:06:59.0	92.950	0.200	-0.610	1.080
2020/01/31 03:06:59.1	92.930	0.180	-0.550	1.080
2020/01/31 03:06:59.2	92.920	0.160	-0.500	1.080
2020/01/31 03:06:59.3	92.920	0.140	-0.440	1.070
2020/01/31 03:06:59.4	92.910	0.110	-0.390	1.070
2020/01/31 03:06:59.5	92.910	0.090	-0.330	1.060
2020/01/31 03:06:59.6	92.910	0.070	-0.270	1.050
2020/01/31 03:06:59.7	92.900	0.040	-0.220	1.040
2020/01/31 03:06:59.8	92.900	0.020	-0.170	1.030
2020/01/31 03:06:59.9	92.900	-0.000	-0.110	1.020
2020/01/31 03:07:00.0	92.900	-0.020	-0.060	1.000
2020/01/31 03:07:00.1	92.880	-0.040	-0.020	0.980
2020/01/31 03:07:00.2	92.880	-0.060	0.030	0.970
2020/01/31 03:07:00.3	92.880	-0.080	0.070	0.950
2020/01/31 03:07:00.4	92.880	-0.090	0.110	0.930
2020/01/31 03:07:00.5	92.890	-0.110	0.140	0.920
2020/01/31 03:07:00.6	92.890	-0.120	0.180	0.900
2020/01/31 03:07:00.7	92.890	-0.140	0.200	0.880
2020/01/31 03:07:00.8	92.890	-0.150	0.230	0.860
2020/01/31 03:07:00.9	92.900	-0.150	0.250	0.840
2020/01/31 03:07:01.0	92.900	-0.160	0.270	0.820
2020/01/31 03:07:01.1	92.910	-0.170	0.290	0.810
2020/01/31 03:07:01.2	92.910	-0.170	0.300	0.790
2020/01/31 03:07:01.3	92.920	-0.170	0.300	0.770
2020/01/31 03:07:01.4	92.920	-0.170	0.300	0.760
2020/01/31 03:07:01.5	92.930	-0.170	0.300	0.740
2020/01/31 03:07:01.6	92.940	-0.170	0.290	0.730
2020/01/31 03:07:01.7	92.940	-0.170	0.280	0.710
2020/01/31 03:07:01.8	92.950	-0.170	0.260	0.700
2020/01/31 03:07:01.9	92.960	-0.160	0.240	0.690
2020/01/31 03:07:02.0	92.970	-0.160	0.220	0.680
2020/01/31 03:07:02.1	92.980	-0.150	0.190	0.660
2020/01/31 03:07:02.2	92.990	-0.140	0.170	0.650
2020/01/31 03:07:02.3	93.000	-0.140	0.140	0.640
2020/01/31 03:07:02.4	93.000	-0.130	0.110	0.630
2020/01/31 03:07:02.5	93.010	-0.120	0.080	0.620
2020/01/31 03:07:02.6	93.020	-0.120	0.050	0.610
2020/01/31 03:07:02.7	93.030	-0.110	0.020	0.600
2020/01/31 03:07:02.8	93.040	-0.100	-0.010	0.600
2020/01/31 03:07:02.9	93.040	-0.100	-0.040	0.590
2020/01/31 03:07:03.0	93.050	-0.090	-0.070	0.580
2020/01/31 03:07:03.1	93.070	-0.090	-0.100	0.570
2020/01/31 03:07:03.2	93.080	-0.080	-0.120	0.560
2020/01/31 03:07:03.3	93.080	-0.080	-0.140	0.560
2020/01/31 03:07:03.4	93.090	-0.070	-0.160	0.550
2020/01/31 03:07:03.5	93.100	-0.070	-0.170	0.550
2020/01/31 03:07:03.6	93.100	-0.060	-0.180	0.540
2020/01/31 03:07:03.7	93.110	-0.060	-0.190	0.530
2020/01/31 03:07:03.8	93.110	-0.060	-0.200	0.530
2020/01/31 03:07:03.9	93.120	-0.050	-0.200	0.520
2020/01/31 03:07:04.0	93.130	-0.050	-0.200	0.520
2020/01/31 03:07:04.1	93.130	-0.050	-0.200	0.510
2020/01/31 03:07:04.2	93.140	-0.050	-0.200	0.510
2020/01/31 03:07:04.3	93.150	-0.050	-0.200	0.510
2020/01/31 03:07:04.4	93.160	-0.040	-0.190	0.500
2020/01/31 03:07:04.5	93.170	-0.040	-0.180	0.500
2020/01/31 03:07:04.6	93.180	-0.040	-0.180	0.490
2020/01/31 03:07:04.7	93.190	-0.040	-0.170	0.490
2020/01/31 03:07:04.8	93.200	-0.040	-0.160	0.490
2020/01/31 03:07:04.9	93.210	-0.030	-0.160	0.490
2020/01/31 03:07:05.0	93.230	-0.030	-0.160	0.480
2020/01/31 03:07:05.1	93.250	-0.030	-0.150	0.480
2020/01/31 03:07:05.2	93.260	-0.020	-0.150	0.480
2020/01/31 03:07:05.3	93.280	-0.020	-0.150	0.480
2020/01/31 03:07:05.4	93.300	-0.010	-0.150	0.480
2020/01/31 03:07:05.5	93.330	-0.010	-0.150	0.480
2020/01/31 03:07:05.6	93.350	-0.000	-0.150	0.480
2020/01/31 03:07:05.7	93.370	0.010	-0.160	0.480
2020/01/31 03:07:05.8	93.390	0.010	-0.160	0.490
2020/01/31 03:07:05.9	93.420	0.020	-0.170	0.500
2020/01/31 03:07:06.0	93.440	0.020	-0.180	0.510
2020/01/31 03:07:06.1	93.460	0.030	-0.190	0.510
2020/01/31 03:07:06.2	93.480	0.040	-0.190	0.520
2020/01/31 03:07:06.3	93.490	0.040	-0.200	0.540
2020/01/31 03:07:06.4	93.510	0.050	-0.200	0.560
2020/01/31 03:07:06.5	93.520	0.050	-0.200	0.570
2020/01/31 03:07:06.6	93.530	0.050	-0.210	0.590
2020/01/31 03:07:06.7	93.530	0.060	-0.210	0.620
2020/01/31 03:07:06.8	93.540	0.060	-0.210	0.640
2020/01/31 03:07:06.9	93.540	0.060	-0.200	0.660
2020/01/31 03:07:07.0	93.530	0.060	-0.200	0.690
2020/01/31 03:07:07.1	93.520	0.060	-0.190	0.710
2020/01/31 03:07:07.2	93.520	0.060	-0.190	0.740
2020/01/31 03:07:07.3	93.510	0.060	-0.180	0.770
2020/01/31 03:07:07.4	93.490	0.060	-0.180	0.800
2020/01/31 03:07:07.5	93.480	0.050	-0.170	0.830
2020/01/31 03:07:07.6	93.460	0.050	-0.170	0.860
2020/01/31 03:07:07.7	93.440	0.050	-0.160	0.900
2020/01/31 03:07:07.8	93.420	0.040	-0.160	0.930
2020/01/31 03:07:07.9	93.390	0.040	-0.160	0.960
2020/01/31 03:07:08.0	93.370	0.030	-0.160	0.990
2020/01/31 03:07:08.1	93.330	0.030	-0.160	1.010
2020/01/31 03:07:08.2	93.310	0.030	-0.170	1.050
2020/01/31 03:07:08.3	93.280	0.020	-0.180	1.070
2020/01/31 03:07:08.4	93.250	0.020	-0.190	1.100
2020/01/31 03:07:08.5	93.220	0.010	-0.200	1.130
2020/01/31 03:07:08.6	93.190	0.010	-0.220	1.160
2020/01/31 03:07:08.7	93.170	0.010	-0.240	1.180
2020/01/31 03:07:08.8	93.140	0.010	-0.270	1.200
2020/01/31 03:07:08.9	93.120	0.010	-0.290	1.220
2020/01/31 03:07:09.0	93.090	0.000	-0.320	1.240
2020/01/31 03:07:09.1	93.060	0.000	-0.350	1.260
2020/01/31 03:07:09.2	93.040	0.000	-0.380	1.270
2020/01/31 03:07:09.3	93.030	0.000	-0.410	1.290
2020/01/31 03:07:09.4	93.010	0.000	-0.450	1.300
2020/01/31 03:07:09.5	93.000	0.000	-0.480	1.310
2020/01/31 03:07:09.6	92.990	0.000	-0.510	1.310
2020/01/31 03:07:09.7	92.990	0.000	-0.540	1.320
2020/01/31 03:07:09.8	92.980	-0.000	-0.570	1.320
2020/01/31 03:07:09.9	92.980	-0.000	-0.590	1.330
2020/01/31 03:07:10.0	92.980	-0.000	-0.620	1.330
2020/01/31 03:07:10.1	92.980	-0.010	-0.640	1.320
2020/01/31 03:07:10.2	92.980	-0.010	-0.660	1.320
2020/01/31 03:07:10.3	92.980	-0.010	-0.670	1.310
2020/01/31 03:07:10.4	92.990	-0.020	-0.680	1.310
2020/01/31 03:07:10.5	92.990	-0.020	-0.690	1.300
2020/01/31 03:07:10.6	93.000	-0.030	-0.700	1.290
2020/01/31 03:07:10.7	93.000	-0.030	-0.700	1.270
2020/01/31 03:07:10.8	93.010	-0.040	-0.700	1.260
2020/01/31 03:07:10.9	93.010	-0.050	-0.690	1.240
2020/01/31 03:07:11.0	93.020	-0.050	-0.680	1.220
2020/01/31 03:07:11.1	93.020	-0.060	-0.670	1.200
2020/01/31 03:07:11.2	93.020	-0.070	-0.650	1.180
2020/01/31 03:07:11.3	93.020	-0.080	-0.630	1.160
2020/01/31 03:07:11.4	93.020	-0.090	-0.610	1.140
2020/01/31 03:07:11.5	93.020	-0.100	-0.580	1.110
2020/01/31 03:07:11.6	93.020	-0.100	-0.550	1.090
2020/01/31 03:07:11.7	93.020	-0.110	-0.520	1.070
2020/01/31 03:07:11.8	93.020	-0.120	-0.480	1.050
2020/01/31 03:07:11.9	93.010	-0.130	-0.440	1.030
2020/01/31 03:07:12.0	93.010	-0.130	-0.400	1.020
2020/01/31 03:07:12.1	93.000	-0.140	-0.350	1.000
2020/01/31 03:07:12.2	92.990	-0.150	-0.310	0.990
2020/01/31 03:07:12.3	92.980	-0.150	-0.260	0.980
2020/01/31 03:07:12.4	92.970	-0.150	-0.210	0.970
2020/01/31 03:07:12.5	92.960	-0.160	-0.170	0.970
2020/01/31 03:07:12.6	92.950	-0.160	-0.120	0.970
2020/01/31 03:07:12.7	92.940	-0.160	-0.070	0.970
2020/01/31 03:07:12.8	92.920	-0.160	-0.030	0.980
2020/01/31 03:07:12.9	92.910	-0.150	0.020	0.980
2020/01/31 03:07:13.0	92.900	-0.150	0.060	0.990
2020/01/31 03:07:13.1	92.890	-0.150	0.100	1.000
2020/01/31 03:07:13.2	92.880	-0.140	0.130	1.010
2020/01/31 03:07:13.3	92.870	-0.130	0.160	1.020
2020/01/31 03:07:13.4	92.860	-0.120	0.190	1.030
2020/01/31 03:07:13.5	92.850	-0.110	0.210	1.040
2020/01/31 03:07:13.6	92.840	-0.100	0.230	1.040
2020/01/31 03:07:13.7	92.830	-0.090	0.240	1.050
2020/01/31 03:07:13.8	92.830	-0.080	0.250	1.060
2020/01/31 03:07:13.9	92.830	-0.060	0.250	1.060
2020/01/31 03:07:14.0	92.820	-0.040	0.250	1.060
2020/01/31 03:07:14.1	92.830	-0.020	0.240	1.060
2020/01/31 03:07:14.2	92.830	-0.000	0.220	1.060
2020/01/31 03:07:14.3	92.840	0.020	0.200	1.050
2020/01/31 03:07:14.4	92.840	0.040	0.170	1.030
2020/01/31 03:07:14.5	92.850	0.070	0.140	1.020
2020/01/31 03:07:14.6	92.860	0.090	0.100	0.990
2020/01/31 03:07:14.7	92.880	0.120	0.060	0.970
2020/01/31 03:07:14.8	92.890	0.150	0.020	0.940
2020/01/31 03:07:14.9	92.910	0.180	-0.030	0.910
2020/01/31 03:07:15.0	92.930	0.200	-0.080	0.870
2020/01/31 03:07:15.1	92.950	0.230	-0.130	0.820
2020/01/31 03:07:15.2	92.980	0.260	-0.190	0.780
2020/01/31 03:07:15.3	93.000	0.290	-0.240	0.740
2020/01/31 03:07:15.4	93.030	0.320	-0.290	0.700
2020/01/31 03:07:15.5	93.060	0.350	-0.340	0.650
2020/01/31 03:07:15.6	93.090	0.370	-0.380	0.610
2020/01/31 03:07:15.7	93.120	0.400	-0.420	0.570
2020/01/31 03:07:15.8	93.150	0.420	-0.460	0.530
2020/01/31 03:07:15.9	93.180	0.440	-0.490	0.490
2020/01/31 03:07:16.0	93.210	0.460	-0.510	0.450
2020/01/31 03:07:16.1	93.240	0.470	-0.540	0.410
2020/01/31 03:07:16.2	93.270	0.490	-0.550	0.380
2020/01/31 03:07:16.3	93.300	0.500	-0.560	0.360
2020/01/31 03:07:16.4	93.330	0.500	-0.550	0.330
2020/01/31 03:07:16.5	93.350	0.510	-0.550	0.310
2020/01/31 03:07:16.6	93.380	0.510	-0.530	0.300
2020/01/31 03:07:16.7	93.400	0.510	-0.510	0.280
2020/01/31 03:07:16.8	93.420	0.500	-0.480	0.280
2020/01/31 03:07:16.9	93.450	0.490	-0.450	0.270
2020/01/31 03:07:17.0	93.460	0.480	-0.410	0.270
2020/01/31 03:07:17.1	93.480	0.460	-0.360	0.280
2020/01/31 03:07:17.2	93.490	0.440	-0.310	0.280
2020/01/31 03:07:17.3	93.510	0.420	-0.260	0.300
2020/01/31 03:07:17.4	93.520	0.390	-0.200	0.310
2020/01/31 03:07:17.5	93.530	0.360	-0.150	0.340
2020/01/31 03:07:17.6	93.530	0.330	-0.090	0.360
2020/01/31 03:07:17.7	93.540	0.300	-0.030	0.390
2020/01/31 03:07:17.8	93.540	0.260	0.030	0.420
2020/01/31 03:07:17.9	93.540	0.230	0.090	0.450
2020/01/31 03:07:18.0	93.540	0.190	0.140	0.490
2020/01/31 03:07:18.1	93.520	0.150	0.190	0.520
2020/01/31 03:07:18.2	93.510	0.110	0.240	0.560
2020/01/31 03:07:18.3	93.500	0.060	0.280	0.600
2020/01/31 03:07:18.4	93.490	0.020	0.320	0.640
2020/01/31 03:07:18.5	93.480	-0.020	0.360	0.680
2020/01/31 03:07:18.6	93.470	-0.060	0.380	0.720
2020/01/31 03:07:18.7	93.450	-0.100	0.410	0.770
2020/01/31 03:07:18.8	93.430	-0.140	0.420	0.810
2020/01/31 03:07:18.9	93.420	-0.180	0.430	0.850
2020/01/31 03:07:19.0	93.400	-0.220	0.430	0.890
2020/01/31 03:07:19.1	93.380	-0.250	0.430	0.920
2020/01/31 03:07:19.2	93.360	-0.280	0.410	0.960
2020/01/31 03:07:19.3	93.340	-0.310	0.390	0.990
2020/01/31 03:07:19.4	93.330	-0.340	0.370	1.020
2020/01/31 03:07:19.5	93.310	-0.360	0.330	1.050
2020/01/31 03:07:19.6	93.290	-0.380	0.290	1.070
2020/01/31 03:07:19.7	93.280	-0.400	0.240	1.100
2020/01/31 03:07:19.8	93.270	-0.410	0.190	1.110
2020/01/31 03:07:19.9	93.250	-0.420	0.130	1.130
2020/01/31 03:07:20.0	93.240	-0.430	0.060	1.140
2020/01/31 03:07:20.1	93.230	-0.430	-0.020	1.150
2020/01/31 03:07:20.2	93.220	-0.420	-0.090	1.150
2020/01/31 03:07:20.3	93.220	-0.420	-0.170	1.160
2020/01/31 03:07:20.4	93.220	-0.400	-0.250	1.160
2020/01/31 03:07:20.5	93.220	-0.390	-0.340	1.160
2020/01/31 03:07:20.6	93.220	-0.370	-0.420	1.160
2020/01/31 03:07:20.7	93.220	-0.350	-0.510	1.150
2020/01/31 03:07:20.8	93.230	-0.320	-0.590	1.150
2020/01/31 03:07:20.9	93.230	-0.290	-0.670	1.140
2020/01/31 03:07:21.0	93.240	-0.260	-0.760	1.130
2020/01/31 03:07:21.1	93.250	-0.230	-0.830	1.120
2020/01/31 03:07:21.2	93.270	-0.190	-0.900	1.110
2020/01/31 03:07:21.3	93.280	-0.160	-0.970	1.100
2020/01/31 03:07:21.4	93.300	-0.130	-1.030	1.090
2020/01/31 03:07:21.5	93.320	-0.090	-1.080	1.070
2020/01/31 03:07:21.6	93.340	-0.060	-1.120	1.060
2020/01/31 03:07:21.7	93.360	-0.030	-1.160	1.040
2020/01/31 03:07:21.8	93.380	-0.000	-1.190	1.030
2020/01/31 03:07:21.9	93.400	0.030	-1.210	1.020
2020/01/31 03:07:22.0	93.420	0.050	-1.220	1.010
2020/01/31 03:07:22.1	93.450	0.070	-1.220	0.990
2020/01/31 03:07:22.2	93.470	0.090	-1.210	0.980
2020/01/31 03:07:22.3	93.490	0.110	-1.190	0.970
2020/01/31 03:07:22.4	93.510	0.120	-1.160	0.960
2020/01/31 03:07:22.5	93.530	0.120	-1.120	0.950
2020/01/31 03:07:22.6	93.550	0.130	-1.080	0.940
2020/01/31 03:07:22.7	93.570	0.130	-1.020	0.930
2020/01/31 03:07:22.8	93.590	0.120	-0.960	0.920
2020/01/31 03:07:22.9	93.600	0.110	-0.890	0.910
2020/01/31 03:07:23.0	93.620	0.100	-0.810	0.910
2020/01/31 03:07:23.1	93.640	0.080	-0.730	0.900
2020/01/31 03:07:23.2	93.650	0.060	-0.640	0.890
2020/01/31 03:07:23.3	93.660	0.040	-0.550	0.890
2020/01/31 03:07:23.4	93.670	0.010	-0.450	0.880
2020/01/31 03:07:23.5	93.680	-0.020	-0.350	0.880
2020/01/31 03:07:23.6	93.680	-0.050	-0.250	0.880
2020/01/31 03:07:23.7	93.690	-0.080	-0.150	0.890
2020/01/31 03:07:23.8	93.690	-0.120	-0.050	0.890
2020/01/31 03:07:23.9	93.680	-0.150	0.050	0.890
2020/01/31 03:07:24.0	93.680	-0.190	0.150	0.900
2020/01/31 03:07:24.1	93.670	-0.220	0.240	0.900
2020/01/31 03:07:24.2	93.670	-0.260	0.330	0.910
2020/01/31 03:07:24.3	93.660	-0.290	0.420	0.910
2020/01/31 03:07:24.4	93.650	-0.330	0.500	0.920
2020/01/31 03:07:24.5	93.640	-0.360	0.570	0.920
2020/01/31 03:07:24.6	93.630	-0.390	0.640	0.920
2020/01/31 03:07:24.7	93.610	-0.420	0.700	0.920
2020/01/31 03:07:24.8	93.600	-0.450	0.750	0.920
2020/01/31 03:07:24.9	93.590	-0.470	0.790	0.910
2020/01/31 03:07:25.0	93.580	-0.490	0.820	0.910
2020/01/31 03:07:25.1	93.570	-0.510	0.840	0.890
2020/01/31 03:07:25.2	93.560	-0.520	0.850	0.880
2020/01/31 03:07:25.3	93.550	-0.530	0.850	0.870
2020/01/31 03:07:25.4	93.550	-0.540	0.840	0.850
2020/01/31 03:07:25.5	93.540	-0.540	0.820	0.840
2020/01/31 03:07:25.6	93.530	-0.530	0.790	0.820
2020/01/31 03:07:25.7	93.520	-0.520	0.750	0.800
2020/01/31 03:07:25.8	93.520	-0.510	0.700	0.780
2020/01/31 03:07:25.9	93.510	-0.490	0.640	0.760
2020/01/31 03:07:26.0	93.510	-0.470	0.580	0.750
2020/01/31 03:07:26.1	93.500	-0.440	0.500	0.720
2020/01/31 03:07:26.2	93.500	-0.410	0.420	0.700
2020/01/31 03:07:26.3	93.500	-0.370	0.330	0.680
2020/01/31 03:07:26.4	93.500	-0.330	0.230	0.660
2020/01/31 03:07:26.5	93.500	-0.290	0.130	0.640
2020/01/31 03:07:26.6	93.500	-0.240	0.030	0.620
2020/01/31 03:07:26.7	93.500	-0.190	-0.080	0.590
2020/01/31 03:07:26.8	93.510	-0.140	-0.190	0.570
2020/01/31 03:07:26.9	93.510	-0.090	-0.300	0.540
2020/01/31 03:07:27.0	93.520	-0.030	-0.410	0.520
2020/01/31 03:07:27.1	93.510	0.030	-0.520	0.480
2020/01/31 03:07:27.2	93.520	0.080	-0.620	0.450
2020/01/31 03:07:27.3	93.530	0.140	-0.720	0.420
2020/01/31 03:07:27.4	93.540	0.200	-0.820	0.390
2020/01/31 03:07:27.5	93.550	0.250	-0.900	0.360
2020/01/31 03:07:27.6	93.570	0.300	-0.980	0.320
2020/01/31 03:07:27.7	93.590	0.350	-1.060	0.290
2020/01/31 03:07:27.8	93.600	0.400	-1.120	0.270
2020/01/31 03:07:27.9	93.620	0.440	-1.170	0.240
2020/01/31 03:07:28.0	93.630	0.480	-1.210	0.220
2020/01/31 03:07:28.1	93.640	0.520	-1.240	0.200
2020/01/31 03:07:28.2	93.650	0.550	-1.250	0.190
2020/01/31 03:07:28.3	93.670	0.580	-1.260	0.180
2020/01/31 03:07:28.4	93.680	0.600	-1.250	0.180
2020/01/31 03:07:28.5	93.690	0.610	-1.230	0.180
2020/01/31 03:07:28.6	93.700	0.620	-1.190	0.190
2020/01/31 03:07:28.7	93.700	0.630	-1.150	0.210
2020/01/31 03:07:28.8	93.710	0.630	-1.100	0.230
2020/01/31 03:07:28.9	93.710	0.620	-1.030	0.250
2020/01/31 03:07:29.0	93.720	0.610	-0.960	0.290
2020/01/31 03:07:29.1	93.710	0.600	-0.880	0.320
2020/01/31 03:07:29.2	93.710	0.580	-0.800	0.360
2020/01/31 03:07:29.3	93.700	0.550	-0.700	0.410
2020/01/31 03:07:29.4	93.700	0.530	-0.610	0.460
2020/01/31 03:07:29.5	93.690	0.500	-0.510	0.510
2020/01/31 03:07:29.6	93.690	0.460	-0.410	0.560
2020/01/31 03:07:29.7	93.680	0.430	-0.310	0.610
2020/01/31 03:07:29.8	93.670	0.390	-0.210	0.660
2020/01/31 03:07:29.9	93.660	0.350	-0.110	0.710
2020/01/31 03:07:30.0	93.650	0.310	-0.010	0.750
2020/01/31 03:07:30.1	93.650	0.260	0.080	0.800
2020/01/31 03:07:30.2	93.640	0.220	0.170	0.840
2020/01/31 03:07:30.3	93.630	0.180	0.240	0.870
2020/01/31 03:07:30.4	93.620	0.140	0.320	0.900
2020/01/31 03:07:30.5	93.610	0.100	0.380	0.930
2020/01/31 03:07:30.6	93.600	0.060	0.440	0.950
2020/01/31 03:07:30.7	93.590	0.030	0.490	0.960
2020/01/31 03:07:30.8	93.580	-0.000	0.530	0.970
2020/01/31 03:07:30.9	93.570	-0.030	0.550	0.980
2020/01/31 03:07:31.0	93.570	-0.050	0.570	0.980
2020/01/31 03:07:31.1	93.560	-0.070	0.580	0.970
2020/01/31 03:07:31.2	93.550	-0.080	0.580	0.970
2020/01/31 03:07:31.3	93.540	-0.090	0.560	0.960
2020/01/31 03:07:31.4	93.540	-0.100	0.540	0.950
2020/01/31 03:07:31.5	93.530	-0.100	0.510	0.940
2020/01/31 03:07:31.6	93.530	-0.100	0.460	0.930
2020/01/31 03:07:31.7	93.520	-0.090	0.420	0.910
2020/01/31 03:07:31.8	93.520	-0.070	0.360	0.890
2020/01/31 03:07:31.9	93.520	-0.060	0.290	0.870
2020/01/31 03:07:32.0	93.530	-0.040	0.230	0.850
2020/01/31 03:07:32.1	93.550	-0.010	0.150	0.830
2020/01/31 03:07:32.2	93.560	0.020	0.070	0.810
2020/01/31 03:07:32.3	93.570	0.050	-0.010	0.790
2020/01/31 03:07:32.4	93.580	0.080	-0.090	0.780
2020/01/31 03:07:32.5	93.590	0.110	-0.170	0.760
2020/01/31 03:07:32.6	93.600	0.150	-0.250	0.750
2020/01/31 03:07:32.7	93.610	0.180	-0.330	0.740
2020/01/31 03:07:32.8	93.630	0.220	-0.400	0.730
2020/01/31 03:07:32.9	93.640	0.250	-0.470	0.720
2020/01/31 03:07:33.0	93.660	0.290	-0.540	0.720
2020/01/31 03:07:33.1	93.660	0.320	-0.600	0.710
2020/01/31 03:07:33.2	93.670	0.350	-0.660	0.700
2020/01/31 03:07:33.3	93.690	0.370	-0.700	0.700
2020/01/31 03:07:33.4	93.700	0.400	-0.740	0.700
2020/01/31 03:07:33.5	93.720	0.410	-0.780	0.700
2020/01/31 03:07:33.6	93.730	0.430	-0.800	0.690
2020/01/31 03:07:33.7	93.740	0.440	-0.820	0.690
2020/01/31 03:07:33.8	93.750	0.440	-0.820	0.690
2020/01/31 03:07:33.9	93.760	0.450	-0.820	0.690
2020/01/31 03:07:34.0	93.780	0.440	-0.810	0.690
2020/01/31 03:07:34.1	93.770	0.430	-0.800	0.690
2020/01/31 03:07:34.2	93.780	0.420	-0.770	0.690
2020/01/31 03:07:34.3	93.790	0.400	-0.740	0.700
2020/01/31 03:07:34.4	93.790	0.370	-0.690	0.700
2020/01/31 03:07:34.5	93.800	0.340	-0.650	0.710
2020/01/31 03:07:34.6	93.800	0.310	-0.590	0.710
2020/01/31 03:07:34.7	93.810	0.270	-0.530	0.720
2020/01/31 03:07:34.8	93.810	0.230	-0.460	0.730
2020/01/31 03:07:34.9	93.810	0.190	-0.390	0.750
2020/01/31 03:07:35.0	93.810	0.140	-0.320	0.760
2020/01/31 03:07:35.1	93.800	0.090	-0.230	0.770
2020/01/31 03:07:35.2	93.800	0.030	-0.160	0.780
2020/01/31 03:07:35.3	93.800	-0.020	-0.080	0.800
2020/01/31 03:07:35.4	93.790	-0.080	0.000	0.820
2020/01/31 03:07:35.5	93.790	-0.140	0.080	0.840
2020/01/31 03:07:35.6	93.790	-0.190	0.150	0.860
2020/01/31 03:07:35.7	93.780	-0.250	0.220	0.880
2020/01/31 03:07:35.8	93.780	-0.310	0.290	0.900
2020/01/31 03:07:35.9	93.780	-0.360	0.360	0.930
2020/01/31 03:07:36.0	93.780	-0.420	0.410	0.950
2020/01/31 03:07:36.1	93.780	-0.470	0.460	0.970
2020/01/31 03:07:36.2	93.780	-0.520	0.500	0.990
2020/01/31 03:07:36.3	93.780	-0.560	0.540	1.000
2020/01/31 03:07:36.4	93.790	-0.610	0.560	1.020
2020/01/31 03:07:36.5	93.800	-0.650	0.580	1.030
2020/01/31 03:07:36.6	93.810	-0.680	0.590	1.040
2020/01/31 03:07:36.7	93.820	-0.710	0.590	1.050
2020/01/31 03:07:36.8	93.830	-0.740	0.580	1.050
2020/01/31 03:07:36.9	93.850	-0.760	0.570	1.060
2020/01/31 03:07:37.0	93.870	-0.780	0.540	1.060
2020/01/31 03:07:37.1	93.880	-0.790	0.510	1.060
2020/01/31 03:07:37.2	93.900	-0.800	0.470	1.060
2020/01/31 03:07:37.3	93.920	-0.810	0.420	1.070
2020/01/31 03:07:37.4	93.940	-0.810	0.360	1.070
2020/01/31 03:07:37.5	93.960	-0.800	0.300	1.070
2020/01/31 03:07:37.6	93.980	-0.800	0.240	1.080
2020/01/31 03:07:37.7	94.000	-0.780	0.170	1.080
2020/01/31 03:07:37.8	94.010	-0.770	0.090	1.090
2020/01/31 03:07:37.9	94.030	-0.750	0.020	1.090
2020/01/31 03:07:38.0	94.040	-0.730	-0.050	1.100
2020/01/31 03:07:38.1	94.050	-0.700	-0.130	1.100
2020/01/31 03:07:38.2	94.060	-0.670	-0.210	1.110
2020/01/31 03:07:38.3	94.060	-0.650	-0.280	1.120
2020/01/31 03:07:38.4	94.060	-0.610	-0.350	1.130
2020/01/31 03:07:38.5	94.060	-0.580	-0.410	1.140
2020/01/31 03:07:38.6	94.050	-0.550	-0.470	1.150
2020/01/31 03:07:38.7	94.050	-0.520	-0.530	1.160
2020/01/31 03:07:38.8	94.040	-0.480	-0.580	1.160
2020/01/31 03:07:38.9	94.030	-0.450	-0.620	1.170
2020/01/31 03:07:39.0	94.010	-0.410	-0.660	1.180
2020/01/31 03:07:39.1	94.000	-0.380	-0.700	1.180
2020/01/31 03:07:39.2	93.980	-0.350	-0.720	1.190
2020/01/31 03:07:39.3	93.960	-0.310	-0.750	1.190
2020/01/31 03:07:39.4	93.940	-0.280	-0.760	1.190
2020/01/31 03:07:39.5	93.920	-0.250	-0.770	1.190
2020/01/31 03:07:39.6	93.900	-0.220	-0.770	1.190
2020/01/31 03:07:39.7	93.870	-0.190	-0.770	1.190
2020/01/31 03:07:39.8	93.850	-0.160	-0.770	1.190
2020/01/31 03:07:39.9	93.820	-0.140	-0.760	1.190
2020/01/31 03:07:40.0	93.790	-0.110	-0.740	1.190
2020/01/31 03:07:40.1	93.760	-0.080	-0.720	1.180
2020/01/31 03:07:40.2	93.740	-0.060	-0.710	1.180
2020/01/31 03:07:40.3	93.710	-0.030	-0.690	1.180
2020/01/31 03:07:40.4	93.680	-0.010	-0.670	1.180
2020/01/31 03:07:40.5	93.660	0.010	-0.650	1.170
2020/01/31 03:07:40.6	93.630	0.040	-0.620	1.170
2020/01/31 03:07:40.7	93.610	0.060	-0.600	1.160
2020/01/31 03:07:40.8	93.590	0.080	-0.590	1.160
2020/01/31 03:07:40.9	93.570	0.110	-0.570	1.150
2020/01/31 03:07:41.0	93.550	0.130	-0.550	1.140
2020/01/31 03:07:41.1	93.540	0.160	-0.530	1.130
2020/01/31 03:07:41.2	93.520	0.180	-0.520	1.110
2020/01/31 03:07:41.3	93.520	0.200	-0.510	1.100
2020/01/31 03:07:41.4	93.510	0.230	-0.500	1.070
2020/01/31 03:07:41.5	93.500	0.250	-0.490	1.050
2020/01/31 03:07:41.6	93.500	0.280	-0.490	1.020
2020/01/31 03:07:41.7	93.500	0.300	-0.480	0.990
2020/01/31 03:07:41.8	93.510	0.330	-0.480	0.960
2020/01/31 03:07:41.9	93.510	0.350	-0.480	0.920
2020/01/31 03:07:42.0	93.520	0.380	-0.480	0.880
2020/01/31 03:07:42.1	93.530	0.400	-0.480	0.830
2020/01/31 03:07:42.2	93.540	0.420	-0.490	0.790
2020/01/31 03:07:42.3	93.550	0.450	-0.490	0.740
2020/01/31 03:07:42.4	93.560	0.470	-0.490	0.700
2020/01/31 03:07:42.5	93.570	0.490	-0.490	0.650
2020/01/31 03:07:42.6	93.580	0.520	-0.490	0.600
2020/01/31 03:07:42.7	93.590	0.540	-0.490	0.550
2020/01/31 03:07:42.8	93.600	0.560	-0.490	0.510
2020/01/31 03:07:42.9	93.610	0.580	-0.490	0.460
2020/01/31 03:07:43.0	93.610	0.590	-0.490	0.420
2020/01/31 03:07:43.1	93.630	0.610	-0.480	0.370
2020/01/31 03:07:43.2	93.630	0.630	-0.480	0.330
2020/01/31 03:07:43.3	93.630	0.640	-0.470	0.290
2020/01/31 03:07:43.4	93.630	0.650	-0.460	0.260
2020/01/31 03:07:43.5	93.630	0.660	-0.450	0.230
2020/01/31 03:07:43.6	93.630	0.670	-0.430	0.200
2020/01/31 03:07:43.7	93.630	0.680	-0.410	0.170
2020/01/31 03:07:43.8	93.630	0.680	-0.390	0.150
2020/01/31 03:07:43.9	93.620	0.680	-0.370	0.130
2020/01/31 03:07:44.0	93.620	0.680	-0.340	0.120
2020/01/31 03:07:44.1	93.610	0.680	-0.310	0.100
2020/01/31 03:07:44.2	93.600	0.670	-0.280	0.090
2020/01/31 03:07:44.3	93.600	0.660	-0.240	0.090
2020/01/31 03:07:44.4	93.590	0.650	-0.200	0.080
2020/01/31 03:07:44.5	93.590	0.640	-0.160	0.090
2020/01/31 03:07:44.6	93.590	0.620	-0.120	0.090
2020/01/31 03:07:44.7	93.580	0.610	-0.080	0.100
2020/01/31 03:07:44.8	93.580	0.580	-0.030	0.120
2020/01/31 03:07:44.9	93.580	0.560	0.020	0.130
2020/01/31 03:07:45.0	93.580	0.530	0.060	0.150
2020/01/31 03:07:45.1	93.570	0.500	0.110	0.180
2020/01/31 03:07:45.2	93.580	0.470	0.160	0.200
2020/01/31 03:07:45.3	93.580	0.440	0.210	0.230
2020/01/31 03:07:45.4	93.580	0.400	0.250	0.250
2020/01/31 03:07:45.5	93.590	0.360	0.300	0.280
2020/01/31 03:07:45.6	93.590	0.320	0.340	0.310
2020/01/31 03:07:45.7	93.600	0.280	0.380	0.350
2020/01/31 03:07:45.8	93.610	0.240	0.420	0.380
2020/01/31 03:07:45.9	93.620	0.190	0.450	0.410
2020/01/31 03:07:46.0	93.630	0.150	0.490	0.440
2020/01/31 03:07:46.1	93.660	0.100	0.520	0.470
2020/01/31 03:07:46.2	93.670	0.050	0.540	0.500
2020/01/31 03:07:46.3	93.680	0.000	0.570	0.530
2020/01/31 03:07:46.4	93.700	-0.050	0.580	0.550
2020/01/31 03:07:46.5	93.720	-0.100	0.600	0.580
2020/01/31 03:07:46.6	93.730	-0.150	0.610	0.610
2020/01/31 03:07:46.7	93.750	-0.190	0.610	0.630
2020/01/31 03:07:46.8	93.770	-0.240	0.610	0.650
2020/01/31 03:07:46.9	93.780	-0.290	0.610	0.670
2020/01/31 03:07:47.0	93.800	-0.340	0.600	0.690
2020/01/31 03:07:47.1	93.820	-0.380	0.580	0.710
2020/01/31 03:07:47.2	93.840	-0.420	0.560	0.730
2020/01/31 03:07:47.3	93.850	-0.460	0.530	0.750
2020/01/31 03:07:47.4	93.870	-0.500	0.500	0.770
2020/01/31 03:07:47.5	93.880	-0.530	0.470	0.790
2020/01/31 03:07:47.6	93.900	-0.570	0.420	0.810
2020/01/31 03:07:47.7	93.910	-0.590	0.380	0.820
2020/01/31 03:07:47.8	93.930	-0.620	0.330	0.840
2020/01/31 03:07:47.9	93.940	-0.640	0.270	0.860
2020/01/31 03:07:48.0	93.960	-0.660	0.210	0.880
2020/01/31 03:07:48.1	93.970	-0.670	0.150	0.900
2020/01/31 03:07:48.2	93.980	-0.680	0.080	0.920
2020/01/31 03:07:48.3	94.000	-0.690	0.010	0.940
2020/01/31 03:07:48.4	94.010	-0.690	-0.060	0.960
2020/01/31 03:07:48.5	94.020	-0.690	-0.130	0.990
2020/01/31 03:07:48.6	94.030	-0.690	-0.200	1.010
2020/01/31 03:07:48.7	94.040	-0.680	-0.280	1.030
2020/01/31 03:07:48.8	94.050	-0.660	-0.360	1.060
2020/01/31 03:07:48.9	94.060	-0.650	-0.430	1.080
2020/01/31 03:07:49.0	94.070	-0.630	-0.510	1.110
2020/01/31 03:07:49.1	94.090	-0.600	-0.580	1.130
2020/01/31 03:07:49.2	94.090	-0.570	-0.650	1.160
2020/01/31 03:07:49.3	94.100	-0.540	-0.720	1.190
2020/01/31 03:07:49.4	94.110	-0.510	-0.790	1.210
2020/01/31 03:07:49.5	94.120	-0.470	-0.850	1.240
2020/01/31 03:07:49.6	94.120	-0.430	-0.910	1.270
2020/01/31 03:07:49.7	94.130	-0.390	-0.960	1.290
2020/01/31 03:07:49.8	94.130	-0.350	-1.010	1.310
2020/01/31 03:07:49.9	94.130	-0.300	-1.060	1.330
2020/01/31 03:07:50.0	94.130	-0.250	-1.100	1.350
2020/01/31 03:07:50.1	94.120	-0.210	-1.140	1.370
2020/01/31 03:07:50.2	94.110	-0.160	-1.170	1.390
2020/01/31 03:07:50.3	94.110	-0.100	-1.200	1.400
2020/01/31 03:07:50.4	94.100	-0.050	-1.220	1.420
2020/01/31 03:07:50.5	94.090	-0.000	-1.230	1.430
2020/01/31 03:07:50.6	94.080	0.050	-1.240	1.440
2020/01/31 03:07:50.7	94.060	0.090	-1.240	1.450
2020/01/31 03:07:50.8	94.050	0.140	-1.230	1.460
2020/01/31 03:07:50.9	94.030	0.190	-1.220	1.460
2020/01/31 03:07:51.0	94.010	0.230	-1.200	1.470
2020/01/31 03:07:51.1	94.000	0.270	-1.170	1.470
2020/01/31 03:07:51.2	93.980	0.310	-1.140	1.470
2020/01/31 03:07:51.3	93.950	0.340	-1.100	1.460
2020/01/31 03:07:51.4	93.930	0.370	-1.050	1.460
2020/01/31 03:07:51.5	93.910	0.390	-0.990	1.450
2020/01/31 03:07:51.6	93.890	0.410	-0.930	1.430
2020/01/31 03:07:51.7	93.870	0.420	-0.860	1.420
2020/01/31 03:07:51.8	93.860	0.430	-0.780	1.400
2020/01/31 03:07:51.9	93.840	0.440	-0.700	1.380
2020/01/31 03:07:52.0	93.820	0.430	-0.620	1.350
2020/01/31 03:07:52.1	93.810	0.430	-0.520	1.320
2020/01/31 03:07:52.2	93.800	0.420	-0.430	1.290
2020/01/31 03:07:52.3	93.790	0.400	-0.330	1.260
2020/01/31 03:07:52.4	93.780	0.380	-0.230	1.220
2020/01/31 03:07:52.5	93.770	0.350	-0.130	1.190
2020/01/31 03:07:52.6	93.770	0.320	-0.030	1.150
2020/01/31 03:07:52.7	93.760	0.280	0.070	1.100
2020/01/31 03:07:52.8	93.750	0.240	0.170	1.060
2020/01/31 03:07:52.9	93.750	0.200	0.270	1.020
2020/01/31 03:07:53.0	93.750	0.160	0.360	0.970
2020/01/31 03:07:53.1	93.740	0.110	0.460	0.920
2020/01/31 03:07:53.2	93.740	0.060	0.540	0.870
2020/01/31 03:07:53.3	93.740	0.010	0.620	0.820
2020/01/31 03:07:53.4	93.740	-0.030	0.690	0.770
2020/01/31 03:07:53.5	93.740	-0.080	0.750	0.720
2020/01/31 03:07:53.6	93.740	-0.130	0.810	0.660
2020/01/31 03:07:53.7	93.750	-0.170	0.850	0.610
2020/01/31 03:07:53.8	93.750	-0.220	0.890	0.560
2020/01/31 03:07:53.9	93.760	-0.250	0.910	0.510
2020/01/31 03:07:54.0	93.760	-0.290	0.920	0.460
2020/01/31 03:07:54.1	93.770	-0.320	0.930	0.410
2020/01/31 03:07:54.2	93.770	-0.340	0.910	0.360
2020/01/31 03:07:54.3	93.780	-0.360	0.890	0.320
2020/01/31 03:07:54.4	93.780	-0.380	0.860	0.270
2020/01/31 03:07:54.5	93.790	-0.380	0.810	0.230
2020/01/31 03:07:54.6	93.800	-0.380	0.760	0.190
2020/01/31 03:07:54.7	93.810	-0.380	0.690	0.150
2020/01/31 03:07:54.8	93.820	-0.360	0.610	0.110
2020/01/31 03:07:54.9	93.820	-0.350	0.520	0.080
2020/01/31 03:07:55.0	93.830	-0.320	0.420	0.040
2020/01/31 03:07:55.1	93.840	-0.290	0.320	0.010
2020/01/31 03:07:55.2	93.850	-0.250	0.210	-0.020
2020/01/31 03:07:55.3	93.860	-0.210	0.090	-0.050
2020/01/31 03:07:55.4	93.870	-0.160	-0.030	-0.070
2020/01/31 03:07:55.5	93.880	-0.110	-0.160	-0.100
2020/01/31 03:07:55.6	93.890	-0.050	-0.290	-0.120
2020/01/31 03:07:55.7	93.910	0.010	-0.420	-0.140
2020/01/31 03:07:55.8	93.920	0.070	-0.550	-0.150
2020/01/31 03:07:55.9	93.930	0.130	-0.680	-0.170
2020/01/31 03:07:56.0	93.950	0.200	-0.800	-0.170
2020/01/31 03:07:56.1	93.960	0.260	-0.930	-0.180
2020/01/31 03:07:56.2	93.980	0.320	-1.050	-0.180
2020/01/31 03:07:56.3	93.990	0.390	-1.150	-0.180
2020/01/31 03:07:56.4	94.010	0.450	-1.250	-0.170
2020/01/31 03:07:56.5	94.030	0.500	-1.340	-0.160
2020/01/31 03:07:56.6	94.040	0.560	-1.420	-0.140
2020/01/31 03:07:56.7	94.060	0.600	-1.490	-0.120
2020/01/31 03:07:56.8	94.070	0.640	-1.540	-0.090
2020/01/31 03:07:56.9	94.080	0.680	-1.570	-0.060
2020/01/31 03:07:57.0	94.090	0.710	-1.590	-0.020
2020/01/31 03:07:57.1	94.110	0.730	-1.590	0.020
2020/01/31 03:07:57.2	94.120	0.740	-1.570	0.070
2020/01/31 03:07:57.3	94.120	0.740	-1.540	0.120
2020/01/31 03:07:57.4	94.130	0.730	-1.490	0.170
2020/01/31 03:07:57.5	94.140	0.720	-1.420	0.220
2020/01/31 03:07:57.6	94.140	0.690	-1.330	0.280
2020/01/31 03:07:57.7	94.140	0.660	-1.230	0.330
2020/01/31 03:07:57.8	94.140	0.620	-1.110	0.390
2020/01/31 03:07:57.9	94.140	0.570	-0.980	0.440
2020/01/31 03:07:58.0	94.140	0.510	-0.830	0.500
2020/01/31 03:07:58.1	94.120	0.450	-0.680	0.550
2020/01/31 03:07:58.2	94.120	0.380	-0.510	0.600
2020/01/31 03:07:58.3	94.110	0.300	-0.340	0.650
2020/01/31 03:07:58.4	94.110	0.220	-0.160	0.700
2020/01/31 03:07:58.5	94.110	0.130	0.030	0.750
2020/01/31 03:07:58.6	94.100	0.030	0.220	0.790
2020/01/31 03:07:58.7	94.090	-0.060	0.400	0.830
2020/01/31 03:07:58.8	94.090	-0.160	0.590	0.870
2020/01/31 03:07:58.9	94.080	-0.260	0.770	0.900
2020/01/31 03:07:59.0	94.070	-0.360	0.940	0.930
2020/01/31 03:07:59.1	94.060	-0.460	1.110	0.950
2020/01/31 03:07:59.2	94.050	-0.560	1.260	0.970
2020/01/31 03:07:59.3	94.050	-0.650	1.400	0.990
2020/01/31 03:07:59.4	94.040	-0.740	1.520	1.010
2020/01/31 03:07:59.5	94.040	-0.830	1.630	1.020
2020/01/31 03:07:59.6	94.030	-0.900	1.710	1.030
2020/01/31 03:07:59.7	94.030	-0.970	1.780	1.030
2020/01/31 03:07:59.8	94.030	-1.040	1.820	1.030
2020/01/31 03:07:59.9	94.030	-1.090	1.840	1.030
2020/01/31 03:08:00.0	94.030	-1.130	1.840	1.020
2020/01/31 03:08:00.1	94.040	-1.160	1.810	1.020
2020/01/31 03:08:00.2	94.040	-1.180	1.760	1.000
2020/01/31 03:08:00.3	94.050	-1.190	1.680	0.990
2020/01/31 03:08:00.4	94.050	-1.180	1.580	0.980
2020/01/31 03:08:00.5	94.060	-1.160	1.460	0.970
2020/01/31 03:08:00.6	94.070	-1.130	1.310	0.950
2020/01/31 03:08:00.7	94.080	-1.090	1.150	0.940
2020/01/31 03:08:00.8	94.080	-1.040	0.970	0.930
2020/01/31 03:08:00.9	94.090	-0.980	0.770	0.920
2020/01/31 03:08:01.0	94.090	-0.910	0.570	0.910
2020/01/31 03:08:01.1	94.090	-0.830	0.350	0.900
2020/01/31 03:08:01.2	94.100	-0.750	0.130	0.890
2020/01/31 03:08:01.3	94.100	-0.660	-0.100	0.880
2020/01/31 03:08:01.4	94.100	-0.560	-0.320	0.870
2020/01/31 03:08:01.5	94.100	-0.460	-0.540	0.860
2020/01/31 03:08:01.6	94.100	-0.360	-0.760	0.850
2020/01/31 03:08:01.7	94.090	-0.250	-0.970	0.830
2020/01/31 03:08:01.8	94.090	-0.150	-1.170	0.820
2020/01/31 03:08:01.9	94.080	-0.040	-1.350	0.800
2020/01/31 03:08:02.0	94.070	0.060	-1.530	0.790
2020/01/31 03:08:02.1	94.060	0.160	-1.690	0.770
2020/01/31 03:08:02.2	94.050	0.260	-1.830	0.750
2020/01/31 03:08:02.3	94.030	0.350	-1.950	0.730
2020/01/31 03:08:02.4	94.020	0.440	-2.050	0.720
2020/01/31 03:08:02.5	94.000	0.520	-2.140	0.700
2020/01/31 03:08:02.6	93.990	0.590	-2.200	0.680
2020/01/31 03:08:02.7	93.970	0.660	-2.240	0.670
2020/01/31 03:08:02.8	93.950	0.720	-2.260	0.650
2020/01/31 03:08:02.9	93.930	0.770	-2.260	0.640
2020/01/31 03:08:03.0	93.910	0.820	-2.240	0.630
2020/01/31 03:08:03.1	93.890	0.850	-2.190	0.630
2020/01/31 03:08:03.2	93.870	0.880	-2.130	0.620
2020/01/31 03:08:03.3	93.850	0.900	-2.050	0.620
2020/01/31 03:08:03.4	93.830	0.910	-1.960	0.620
2020/01/31 03:08:03.5	93.810	0.920	-1.840	0.620
2020/01/31 03:08:03.6	93.790	0.910	-1.720	0.630
2020/01/31 03:08:03.7	93.770	0.900	-1.580	0.630
2020/01/31 03:08:03.8	93.750	0.880	-1.430	0.640
2020/01/31 03:08:03.9	93.730	0.860	-1.270	0.660
2020/01/31 03:08:04.0	93.710	0.830	-1.100	0.670
2020/01/31 03:08:04.1	93.690	0.790	-0.930	0.680
2020/01/31 03:08:04.2	93.680	0.750	-0.760	0.700
2020/01/31 03:08:04.3	93.670	0.700	-0.590	0.720
2020/01/31 03:08:04.4	93.650	0.650	-0.410	0.730
2020/01/31 03:08:04.5	93.640	0.600	-0.240	0.750
2020/01/31 03:08:04.6	93.640	0.550	-0.080	0.760
2020/01/31 03:08:04.7	93.630	0.490	0.080	0.780
2020/01/31 03:08:04.8	93.620	0.440	0.230	0.790
2020/01/31 03:08:04.9	93.620	0.380	0.370	0.800
2020/01/31 03:08:05.0	93.620	0.330	0.500	0.820
2020/01/31 03:08:05.1	93.620	0.270	0.630	0.820
2020/01/31 03:08:05.2	93.620	0.220	0.730	0.830
2020/01/31 03:08:05.3	93.620	0.170	0.830	0.840
2020/01/31 03:08:05.4	93.620	0.120	0.910	0.840
2020/01/31 03:08:05.5	93.620	0.080	0.980	0.850
2020/01/31 03:08:05.6	93.620	0.030	1.040	0.850
2020/01/31 03:08:05.7	93.620	-0.000	1.080	0.850
2020/01/31 03:08:05.8	93.620	-0.040	1.100	0.840
2020/01/31 03:08:05.9	93.620	-0.070	1.110	0.840
2020/01/31 03:08:06.0	93.610	-0.100	1.110	0.830
2020/01/31 03:08:06.1	93.610	-0.120	1.090	0.820
2020/01/31 03:08:06.2	93.600	-0.140	1.070	0.810
2020/01/31 03:08:06.3	93.600	-0.150	1.030	0.800
2020/01/31 03:08:06.4	93.600	-0.170	0.980	0.780
2020/01/31 03:08:06.5	93.590	-0.170	0.920	0.770
2020/01/31 03:08:06.6	93.580	-0.180	0.850	0.750
2020/01/31 03:08:06.7	93.580	-0.180	0.780	0.740
2020/01/31 03:08:06.8	93.570	-0.170	0.690	0.720
2020/01/31 03:08:06.9	93.570	-0.170	0.610	0.710
2020/01/31 03:08:07.0	93.560	-0.160	0.520	0.690
2020/01/31 03:08:07.1	93.560	-0.150	0.430	0.680
2020/01/31 03:08:07.2	93.560	-0.140	0.330	0.660
2020/01/31 03:08:07.3	93.560	-0.120	0.240	0.650
2020/01/31 03:08:07.4	93.550	-0.110	0.140	0.640
2020/01/31 03:08:07.5	93.550	-0.090	0.050	0.640
2020/01/31 03:08:07.6	93.550	-0.080	-0.040	0.630
2020/01/31 03:08:07.7	93.560	-0.070	-0.120	0.630
2020/01/31 03:08:07.8	93.560	-0.050	-0.200	0.640
2020/01/31 03:08:07.9	93.560	-0.040	-0.270	0.640
2020/01/31 03:08:08.0	93.570	-0.030	-0.340	0.650
2020/01/31 03:08:08.1	93.570	-0.020	-0.400	0.660
2020/01/31 03:08:08.2	93.580	-0.020	-0.460	0.680
2020/01/31 03:08:08.3	93.590	-0.010	-0.500	0.700
2020/01/31 03:08:08.4	93.600	-0.010	-0.540	0.720
2020/01/31 03:08:08.5	93.610	-0.010	-0.560	0.740
2020/01/31 03:08:08.6	93.620	-0.020	-0.580	0.760
2020/01/31 03:08:08.7	93.640	-0.030	-0.590	0.790
2020/01/31 03:08:08.8	93.650	-0.040	-0.600	0.810
2020/01/31 03:08:08.9	93.670	-0.050	-0.590	0.840
2020/01/31 03:08:09.0	93.690	-0.060	-0.580	0.870
2020/01/31 03:08:09.1	93.700	-0.080	-0.550	0.890
2020/01/31 03:08:09.2	93.710	-0.100	-0.530	0.920
2020/01/31 03:08:09.3	93.730	-0.130	-0.500	0.940
2020/01/31 03:08:09.4	93.750	-0.150	-0.460	0.960
2020/01/31 03:08:09.5	93.770	-0.170	-0.420	0.980
2020/01/31 03:08:09.6	93.790	-0.200	-0.380	1.000
2020/01/31 03:08:09.7	93.800	-0.230	-0.330	1.020
2020/01/31 03:08:09.8	93.820	-0.250	-0.280	1.030
2020/01/31 03:08:09.9	93.840	-0.280	-0.230	1.050
2020/01/31 03:08:10.0	93.850	-0.310	-0.190	1.060
2020/01/31 03:08:10.1	93.870	-0.330	-0.140	1.070
2020/01/31 03:08:10.2	93.880	-0.350	-0.090	1.080
2020/01/31 03:08:10.3	93.890	-0.370	-0.040	1.090
2020/01/31 03:08:10.4	93.900	-0.390	-0.000	1.090
2020/01/31 03:08:10.5	93.910	-0.410	0.040	1.100
2020/01/31 03:08:10.6	93.920	-0.420	0.070	1.100
2020/01/31 03:08:10.7	93.920	-0.430	0.100	1.110
2020/01/31 03:08:10.8	93.920	-0.440	0.120	1.110
2020/01/31 03:08:10.9	93.920	-0.440	0.140	1.120
2020/01/31 03:08:11.0	93.920	-0.430	0.150	1.120
2020/01/31 03:08:11.1	93.910	-0.420	0.150	1.120
2020/01/31 03:08:11.2	93.900	-0.410	0.150	1.130
2020/01/31 03:08:11.3	93.890	-0.390	0.140	1.140
2020/01/31 03:08:11.4	93.880	-0.370	0.120	1.150
2020/01/31 03:08:11.5	93.870	-0.340	0.090	1.160
2020/01/31 03:08:11.6	93.860	-0.310	0.060	1.170
2020/01/31 03:08:11.7	93.840	-0.280	0.020	1.190
2020/01/31 03:08:11.8	93.820	-0.240	-0.020	1.200
2020/01/31 03:08:11.9	93.810	-0.200	-0.070	1.210
2020/01/31 03:08:12.0	93.790	-0.150	-0.120	1.230
2020/01/31 03:08:12.1	93.780	-0.110	-0.180	1.250
2020/01/31 03:08:12.2	93.770	-0.060	-0.240	1.260
2020/01/31 03:08:12.3	93.750	-0.010	-0.300	1.270
2020/01/31 03:08:12.4	93.740	0.050	-0.360	1.280
2020/01/31 03:08:12.5	93.720	0.100	-0.420	1.280
2020/01/31 03:08:12.6	93.710	0.150	-0.490	1.290
2020/01/31 03:08:12.7	93.700	0.210	-0.550	1.290
2020/01/31 03:08:12.8	93.690	0.260	-0.610	1.290
2020/01/31 03:08:12.9	93.680	0.310	-0.670	1.290
2020/01/31 03:08:13.0	93.670	0.360	-0.720	1.290
2020/01/31 03:08:13.1	93.660	0.400	-0.780	1.270
2020/01/31 03:08:13.2	93.660	0.450	-0.820	1.260
2020/01/31 03:08:13.3	93.660	0.490	-0.870	1.250
2020/01/31 03:08:13.4	93.660	0.520	-0.900	1.240
2020/01/31 03:08:13.5	93.660	0.560	-0.930	1.220
2020/01/31 03:08:13.6	93.670	0.590	-0.950	1.200
2020/01/31 03:08:13.7	93.670	0.610	-0.970	1.180
2020/01/31 03:08:13.8	93.670	0.630	-0.980	1.160
2020/01/31 03:08:13.9	93.680	0.650	-0.980	1.140
2020/01/31 03:08:14.0	93.680	0.660	-0.980	1.120
2020/01/31 03:08:14.1	93.680	0.660	-0.970	1.090
2020/01/31 03:08:14.2	93.680	0.660	-0.950	1.070
2020/01/31 03:08:14.3	93.690	0.650	-0.920	1.040
2020/01/31 03:08:14.4	93.700	0.640	-0.880	1.020
2020/01/31 03:08:14.5	93.700	0.630	-0.840	0.990
2020/01/31 03:08:14.6	93.710	0.610	-0.800	0.960
2020/01/31 03:08:14.7	93.710	0.590	-0.740	0.940
2020/01/31 03:08:14.8	93.710	0.560	-0.690	0.910
2020/01/31 03:08:14.9	93.720	0.520	-0.620	0.890
2020/01/31 03:08:15.0	93.720	0.490	-0.560	0.870
2020/01/31 03:08:15.1	93.710	0.450	-0.490	0.840
2020/01/31 03:08:15.2	93.710	0.410	-0.420	0.820
2020/01/31 03:08:15.3	93.710	0.360	-0.340	0.810
2020/01/31 03:08:15.4	93.700	0.320	-0.270	0.790
2020/01/31 03:08:15.5	93.700	0.270	-0.200	0.780
2020/01/31 03:08:15.6	93.700	0.220	-0.130	0.770
2020/01/31 03:08:15.7	93.690	0.170	-0.060	0.760
2020/01/31 03:08:15.8	93.690	0.120	0.010	0.750
2020/01/31 03:08:15.9	93.680	0.070	0.070	0.740
2020/01/31 03:08:16.0	93.670	0.020	0.130	0.740
2020/01/31 03:08:16.1	93.670	-0.020	0.180	0.730
2020/01/31 03:08:16.2	93.660	-0.070	0.220	0.730
2020/01/31 03:08:16.3	93.650	-0.110	0.260	0.730
2020/01/31 03:08:16.4	93.640	-0.150	0.300	0.730
2020/01/31 03:08:16.5	93.630	-0.190	0.330	0.730
2020/01/31 03:08:16.6	93.620	-0.220	0.350	0.730
2020/01/31 03:08:16.7	93.610	-0.250	0.360	0.730
2020/01/31 03:08:16.8	93.610	-0.280	0.370	0.730
2020/01/31 03:08:16.9	93.600	-0.300	0.370	0.730
2020/01/31 03:08:17.0	93.590	-0.320	0.360	0.730
2020/01/31 03:08:17.1	93.580	-0.340	0.350	0.720
2020/01/31 03:08:17.2	93.580	-0.350	0.340	0.720
2020/01/31 03:08:17.3	93.570	-0.360	0.310	0.720
2020/01/31 03:08:17.4	93.570	-0.360	0.280	0.720
2020/01/31 03:08:17.5	93.560	-0.360	0.250	0.720
2020/01/31 03:08:17.6	93.560	-0.360	0.210	0.720
2020/01/31 03:08:17.7	93.560	-0.350	0.170	0.720
2020/01/31 03:08:17.8	93.560	-0.340	0.130	0.720
2020/01/31 03:08:17.9	93.560	-0.330	0.090	0.710
2020/01/31 03:08:18.0	93.560	-0.310	0.040	0.710
2020/01/31 03:08:18.1	93.570	-0.290	-0.010	0.700
2020/01/31 03:08:18.2	93.580	-0.270	-0.050	0.700
2020/01/31 03:08:18.3	93.580	-0.250	-0.100	0.690
2020/01/31 03:08:18.4	93.590	-0.230	-0.150	0.680
2020/01/31 03:08:18.5	93.600	-0.200	-0.190	0.680
2020/01/31 03:08:18.6	93.610	-0.180	-0.230	0.670
2020/01/31 03:08:18.7	93.630	-0.150	-0.270	0.670
2020/01/31 03:08:18.8	93.640	-0.120	-0.310	0.660
2020/01/31 03:08:18.9	93.650	-0.100	-0.340	0.660
2020/01/31 03:08:19.0	93.670	-0.070	-0.370	0.660
2020/01/31 03:08:19.1	93.680	-0.040	-0.400	0.660
2020/01/31 03:08:19.2	93.700	-0.010	-0.420	0.660
2020/01/31 03:08:19.3	93.720	0.010	-0.440	0.660
2020/01/31 03:08:19.4	93.730	0.040	-0.460	0.670
2020/01/31 03:08:19.5	93.750	0.060	-0.470	0.670
2020/01/31 03:08:19.6	93.760	0.080	-0.470	0.680
2020/01/31 03:08:19.7	93.780	0.100	-0.480	0.700
2020/01/31 03:08:19.8	93.790	0.120	-0.470	0.710
2020/01/31 03:08:19.9	93.810	0.140	-0.470	0.720
2020/01/31 03:08:20.0	93.820	0.150	-0.460	0.740
2020/01/31 03:08:20.1	93.830	0.170	-0.440	0.750
2020/01/31 03:08:20.2	93.850	0.170	-0.420	0.770
2020/01/31 03:08:20.3	93.860	0.180	-0.400	0.790
2020/01/31 03:08:20.4	93.870	0.180	-0.370	0.800
2020/01/31 03:08:20.5	93.880	0.180	-0.340	0.820
2020/01/31 03:08:20.6	93.890	0.180	-0.310	0.840
2020/01/31 03:08:20.7	93.900	0.180	-0.270	0.860
2020/01/31 03:08:20.8	93.910	0.170	-0.230	0.870
2020/01/31 03:08:20.9	93.910	0.160	-0.190	0.890
2020/01/31 03:08:21.0	93.920	0.140	-0.150	0.910
2020/01/31 03:08:21.1	93.910	0.130	-0.100	0.920
2020/01/31 03:08:21.2	93.910	0.110	-0.060	0.940
2020/01/31 03:08:21.3	93.910	0.090	-0.020	0.950
2020/01/31 03:08:21.4	93.910	0.070	0.030	0.970
2020/01/31 03:08:21.5	93.900	0.050	0.070	0.980
2020/01/31 03:08:21.6	93.900	0.020	0.110	0.990
2020/01/31 03:08:21.7	93.890	0.000	0.140	1.010
2020/01/31 03:08:21.8	93.880	-0.020	0.170	1.020
2020/01/31 03:08:21.9	93.870	-0.050	0.210	1.030
2020/01/31 03:08:22.0	93.860	-0.070	0.230	1.040
2020/01/31 03:08:22.1	93.850	-0.090	0.250	1.050
2020/01/31 03:08:22.2	93.840	-0.110	0.270	1.060
2020/01/31 03:08:22.3	93.830	-0.130	0.280	1.070
2020/01/31 03:08:22.4	93.820	-0.150	0.280	1.070
2020/01/31 03:08:22.5	93.800	-0.160	0.280	1.080
2020/01/31 03:08:22.6	93.790	-0.180	0.280	1.080
2020/01/31 03:08:22.7	93.780	-0.190	0.270	1.080
2020/01/31 03:08:22.8	93.770	-0.190	0.250	1.080
2020/01/31 03:08:22.9	93.760	-0.190	0.230	1.080
2020/01/31 03:08:23.0	93.760	-0.190	0.200	1.070
2020/01/31 03:08:23.1	93.760	-0.190	0.170	1.060
2020/01/31 03:08:23.2	93.760	-0.180	0.130	1.050
2020/01/31 03:08:23.3	93.750	-0.170	0.090	1.040
2020/01/31 03:08:23.4	93.750	-0.150	0.040	1.020
2020/01/31 03:08:23.5	93.750	-0.140	-0.010	1.010
2020/01/31 03:08:23.6	93.750	-0.120	-0.070	0.990
2020/01/31 03:08:23.7	93.750	-0.090	-0.130	0.970
2020/01/31 03:08:23.8	93.750	-0.070	-0.180	0.960
2020/01/31 03:08:23.9	93.750	-0.040	-0.240	0.940
2020/01/31 03:08:24.0	93.750	-0.010	-0.310	0.920
2020/01/31 03:08:24.1	93.740	0.020	-0.370	0.900
2020/01/31 03:08:24.2	93.740	0.050	-0.420	0.880
2020/01/31 03:08:24.3	93.740	0.090	-0.480	0.860
2020/01/31 03:08:24.4	93.740	0.120	-0.540	0.850
2020/01/31 03:08:24.5	93.740	0.150	-0.590	0.830
2020/01/31 03:08:24.6	93.740	0.180	-0.630	0.810
2020/01/31 03:08:24.7	93.740	0.210	-0.680	0.790
2020/01/31 03:08:24.8	93.740	0.240	-0.710	0.770
2020/01/31 03:08:24.9	93.740	0.260	-0.740	0.750
2020/01/31 03:08:25.0	93.740	0.280	-0.770	0.730
2020/01/31 03:08:25.1	93.750	0.300	-0.780	0.710
2020/01/31 03:08:25.2	93.750	0.320	-0.800	0.690
2020/01/31 03:08:25.3	93.750	0.340	-0.800	0.680
2020/01/31 03:08:25.4	93.750	0.350	-0.800	0.660
2020/01/31 03:08:25.5	93.750	0.350	-0.790	0.650
2020/01/31 03:08:25.6	93.760	0.360	-0.780	0.640
2020/01/31 03:08:25.7	93.760	0.360	-0.760	0.630
2020/01/31 03:08:25.8	93.760	0.360	-0.730	0.620
2020/01/31 03:08:25.9	93.760	0.350	-0.700	0.610
2020/01/31 03:08:26.0	93.760	0.340	-0.660	0.610
2020/01/31 03:08:26.1	93.760	0.330	-0.630	0.600
2020/01/31 03:08:26.2	93.760	0.310	-0.580	0.600
2020/01/31 03:08:26.3	93.770	0.290	-0.540	0.600
2020/01/31 03:08:26.4	93.770	0.280	-0.490	0.610
2020/01/31 03:08:26.5	93.770	0.250	-0.440	0.610
2020/01/31 03:08:26.6	93.770	0.230	-0.390	0.610
2020/01/31 03:08:26.7	93.770	0.210	-0.340	0.620
2020/01/31 03:08:26.8	93.770	0.180	-0.290	0.630
2020/01/31 03:08:26.9	93.780	0.150	-0.240	0.640
2020/01/31 03:08:27.0	93.780	0.130	-0.200	0.650
2020/01/31 03:08:27.1	93.770	0.100	-0.150	0.660
2020/01/31 03:08:27.2	93.780	0.080	-0.110	0.670
2020/01/31 03:08:27.3	93.780	0.050	-0.070	0.690
2020/01/31 03:08:27.4	93.780	0.030	-0.040	0.700
2020/01/31 03:08:27.5	93.780	0.010	-0.010	0.710
2020/01/31 03:08:27.6	93.780	-0.020	0.010	0.730
2020/01/31 03:08:27.7	93.780	-0.040	0.030	0.750
2020/01/31 03:08:27.8	93.780	-0.050	0.050	0.760
2020/01/31 03:08:27.9	93.780	-0.070	0.060	0.780
2020/01/31 03:08:28.0	93.770	-0.090	0.060	0.800
2020/01/31 03:08:28.1	93.770	-0.100	0.060	0.820
2020/01/31 03:08:28.2	93.760	-0.110	0.060	0.830
2020/01/31 03:08:28.3	93.760	-0.130	0.060	0.850
2020/01/31 03:08:28.4	93.750	-0.140	0.050	0.870
2020/01/31 03:08:28.5	93.740	-0.150	0.040	0.890
2020/01/31 03:08:28.6	93.730	-0.150	0.030	0.900
2020/01/31 03:08:28.7	93.730	-0.160	0.010	0.920
2020/01/31 03:08:28.8	93.720	-0.170	-0.000	0.930
2020/01/31 03:08:28.9	93.710	-0.170	-0.020	0.940
2020/01/31 03:08:29.0	93.700	-0.180	-0.040	0.950
2020/01/31 03:08:29.1	93.690	-0.180	-0.060	0.960
2020/01/31 03:08:29.2	93.680	-0.180	-0.090	0.970
2020/01/31 03:08:29.3	93.660	-0.190	-0.110	0.970
2020/01/31 03:08:29.4	93.650	-0.190	-0.130	0.970
2020/01/31 03:08:29.5	93.640	-0.190	-0.160	0.980
2020/01/31 03:08:29.6	93.630	-0.180	-0.180	0.970
2020/01/31 03:08:29.7	93.620	-0.180	-0.210	0.970
2020/01/31 03:08:29.8	93.610	-0.180	-0.230	0.970
2020/01/31 03:08:29.9	93.600	-0.170	-0.260	0.960
2020/01/31 03:08:30.0	93.590	-0.170	-0.280	0.960
2020/01/31 03:08:30.1	93.570	-0.160	-0.310	0.940
2020/01/31 03:08:30.2	93.560	-0.150	-0.330	0.940
2020/01/31 03:08:30.3	93.550	-0.150	-0.350	0.930
2020/01/31 03:08:30.4	93.550	-0.140	-0.370	0.920
2020/01/31 03:08:30.5	93.540	-0.130	-0.390	0.910
2020/01/31 03:08:30.6	93.540	-0.120	-0.400	0.910
2020/01/31 03:08:30.7	93.530	-0.110	-0.410	0.900
2020/01/31 03:08:30.8	93.530	-0.100	-0.420	0.890
2020/01/31 03:08:30.9	93.530	-0.090	-0.420	0.890
2020/01/31 03:08:31.0	93.520	-0.090	-0.420	0.880
2020/01/31 03:08:31.1	93.530	-0.080	-0.420	0.870
2020/01/31 03:08:31.2	93.530	-0.070	-0.410	0.870
2020/01/31 03:08:31.3	93.530	-0.060	-0.400	0.860
2020/01/31 03:08:31.4	93.530	-0.060	-0.390	0.850
2020/01/31 03:08:31.5	93.530	-0.050	-0.370	0.840
2020/01/31 03:08:31.6	93.540	-0.050	-0.350	0.830
2020/01/31 03:08:31.7	93.540	-0.050	-0.330	0.820
2020/01/31 03:08:31.8	93.550	-0.050	-0.300	0.810
2020/01/31 03:08:31.9	93.560	-0.050	-0.280	0.790
2020/01/31 03:08:32.0	93.570	-0.050	-0.250	0.780
2020/01/31 03:08:32.1	93.580	-0.050	-0.220	0.750
2020/01/31 03:08:32.2	93.590	-0.050	-0.180	0.730
2020/01/31 03:08:32.3	93.600	-0.050	-0.150	0.710
2020/01/31 03:08:32.4	93.610	-0.060	-0.120	0.690
2020/01/31 03:08:32.5	93.630	-0.060	-0.080	0.660
2020/01/31 03:08:32.6	93.640	-0.070	-0.050	0.630
2020/01/31 03:08:32.7	93.650	-0.070	-0.020	0.600
2020/01/31 03:08:32.8	93.660	-0.070	0.010	0.580
2020/01/31 03:08:32.9	93.670	-0.080	0.030	0.550
2020/01/31 03:08:33.0	93.690	-0.080	0.060	0.520
2020/01/31 03:08:33.1	93.700	-0.080	0.080	0.500
2020/01/31 03:08:33.2	93.700	-0.080	0.090	0.470
2020/01/31 03:08:33.3	93.710	-0.080	0.100	0.450
2020/01/31 03:08:33.4	93.720	-0.080	0.110	0.430
2020/01/31 03:08:33.5	93.720	-0.070	0.110	0.420
2020/01/31 03:08:33.6	93.730	-0.060	0.110	0.410
2020/01/31 03:08:33.7	93.730	-0.060	0.100	0.400
2020/01/31 03:08:33.8	93.730	-0.040	0.080	0.390
2020/01/31 03:08:33.9	93.730	-0.030	0.060	0.390
2020/01/31 03:08:34.0	93.730	-0.020	0.040	0.390
2020/01/31 03:08:34.1	93.730	0.000	0.000	0.390
2020/01/31 03:08:34.2	93.730	0.020	-0.030	0.400
2020/01/31 03:08:34.3	93.730	0.040	-0.070	0.410
2020/01/31 03:08:34.4	93.730	0.070	-0.110	0.420
2020/01/31 03:08:34.5	93.720	0.090	-0.160	0.430
2020/01/31 03:08:34.6	93.720	0.120	-0.200	0.440
2020/01/31 03:08:34.7	93.720	0.140	-0.250	0.460
2020/01/31 03:08:34.8	93.710	0.170	-0.300	0.470
2020/01/31 03:08:34.9	93.710	0.200	-0.360	0.490
2020/01/31 03:08:35.0	93.710	0.230	-0.410	0.510
2020/01/31 03:08:35.1	93.710	0.250	-0.460	0.530
2020/01/31 03:08:35.2	93.700	0.280	-0.500	0.550
2020/01/31 03:08:35.3	93.700	0.300	-0.550	0.570
2020/01/31 03:08:35.4	93.700	0.320	-0.590	0.590
2020/01/31 03:08:35.5	93.700	0.340	-0.630	0.600
2020/01/31 03:08:35.6	93.700	0.360	-0.660	0.620
2020/01/31 03:08:35.7	93.700	0.370	-0.680	0.640
2020/01/31 03:08:35.8	93.700	0.380	-0.700	0.650
2020/01/31 03:08:35.9	93.700	0.390	-0.700	0.670
2020/01/31 03:08:36.0	93.700	0.390	-0.700	0.690
2020/01/31 03:08:36.1	93.700	0.380	-0.700	0.700
2020/01/31 03:08:36.2	93.700	0.380	-0.680	0.710
2020/01/31 03:08:36.3	93.700	0.360	-0.650	0.730
2020/01/31 03:08:36.4	93.700	0.340	-0.610	0.750
2020/01/31 03:08:36.5	93.700	0.320	-0.570	0.770
2020/01/31 03:08:36.6	93.690	0.290	-0.510	0.780
2020/01/31 03:08:36.7	93.690	0.250	-0.450	0.800
2020/01/31 03:08:36.8	93.690	0.220	-0.390	0.820
2020/01/31 03:08:36.9	93.680	0.170	-0.310	0.840
2020/01/31 03:08:37.0	93.680	0.130	-0.230	0.860
2020/01/31 03:08:37.1	93.670	0.080	-0.140	0.880
2020/01/31 03:08:37.2	93.660	0.020	-0.060	0.900
2020/01/31 03:08:37.3	93.660	-0.030	0.030	0.910
2020/01/31 03:08:37.4	93.650	-0.090	0.130	0.930
2020/01/31 03:08:37.5	93.640	-0.150	0.220	0.950
2020/01/31 03:08:37.6	93.630	-0.210	0.310	0.970
2020/01/31 03:08:37.7	93.620	-0.260	0.400	0.980
2020/01/31 03:08:37.8	93.610	-0.320	0.480	1.000
2020/01/31 03:08:37.9	93.600	-0.380	0.560	1.010
2020/01/31 03:08:38.0	93.590	-0.430	0.630	1.020
2020/01/31 03:08:38.1	93.580	-0.480	0.690	1.030
2020/01/31 03:08:38.2	93.570	-0.530	0.740	1.030
2020/01/31 03:08:38.3	93.550	-0.570	0.780	1.040
2020/01/31 03:08:38.4	93.540	-0.600	0.810	1.040
2020/01/31 03:08:38.5	93.530	-0.640	0.830	1.040
2020/01/31 03:08:38.6	93.520	-0.660	0.830	1.040
2020/01/31 03:08:38.7	93.510	-0.680	0.820	1.030
2020/01/31 03:08:38.8	93.500	-0.680	0.790	1.020
2020/01/31 03:08:38.9	93.490	-0.690	0.750	1.010
2020/01/31 03:08:39.0	93.480	-0.680	0.700	1.000
2020/01/31 03:08:39.1	93.480	-0.660	0.630	0.980
2020/01/31 03:08:39.2	93.470	-0.640	0.550	0.960
2020/01/31 03:08:39.3	93.470	-0.610	0.450	0.940
2020/01/31 03:08:39.4	93.470	-0.570	0.350	0.910
2020/01/31 03:08:39.5	93.460	-0.530	0.230	0.890
2020/01/31 03:08:39.6	93.470	-0.480	0.110	0.860
2020/01/31 03:08:39.7	93.470	-0.420	-0.020	0.840
2020/01/31 03:08:39.8	93.470	-0.360	-0.150	0.810
2020/01/31 03:08:39.9	93.480	-0.300	-0.290	0.780
2020/01/31 03:08:40.0	93.480	-0.230	-0.420	0.760
2020/01/31 03:08:40.1	93.480	-0.160	-0.560	0.730
2020/01/31 03:08:40.2	93.490	-0.090	-0.700	0.700
2020/01/31 03:08:40.3	93.500	-0.010	-0.830	0.680
2020/01/31 03:08:40.4	93.500	0.060	-0.950	0.660
2020/01/31 03:08:40.5	93.510	0.130	-1.070	0.630
2020/01/31 03:08:40.6	93.520	0.200	-1.170	0.610
2020/01/31 03:08:40.7	93.520	0.270	-1.270	0.590
2020/01/31 03:08:40.8	93.530	0.330	-1.350	0.570
2020/01/31 03:08:40.9	93.540	0.390	-1.420	0.540
2020/01/31 03:08:41.0	93.550	0.440	-1.480	0.520
2020/01/31 03:08:41.1	93.580	0.490	-1.530	0.500
2020/01/31 03:08:41.2	93.590	0.530	-1.560	0.480
2020/01/31 03:08:41.3	93.600	0.560	-1.570	0.460
2020/01/31 03:08:41.4	93.610	0.590	-1.570	0.450
2020/01/31 03:08:41.5	93.620	0.620	-1.550	0.430
2020/01/31 03:08:41.6	93.630	0.630	-1.520	0.420
2020/01/31 03:08:41.7	93.640	0.640	-1.480	0.410
2020/01/31 03:08:41.8	93.650	0.640	-1.420	0.400
2020/01/31 03:08:41.9	93.660	0.640	-1.350	0.400
2020/01/31 03:08:42.0	93.670	0.630	-1.260	0.400
2020/01/31 03:08:42.1	93.670	0.610	-1.170	0.390
2020/01/31 03:08:42.2	93.680	0.590	-1.060	0.400
2020/01/31 03:08:42.3	93.690	0.560	-0.950	0.400
2020/01/31 03:08:42.4	93.700	0.530	-0.830	0.410
2020/01/31 03:08:42.5	93.710	0.490	-0.700	0.420
2020/01/31 03:08:42.6	93.720	0.450	-0.570	0.440
2020/01/31 03:08:42.7	93.740	0.410	-0.440	0.450
2020/01/31 03:08:42.8	93.750	0.360	-0.300	0.470
2020/01/31 03:08:42.9	93.760	0.310	-0.160	0.490
2020/01/31 03:08:43.0	93.770	0.260	-0.030	0.510
2020/01/31 03:08:43.1	93.770	0.200	0.110	0.530
2020/01/31 03:08:43.2	93.780	0.150	0.230	0.560
2020/01/31 03:08:43.3	93.780	0.100	0.360	0.590
2020/01/31 03:08:43.4	93.790	0.040	0.470	0.620
2020/01/31 03:08:43.5	93.790	-0.010	0.580	0.650
2020/01/31 03:08:43.6	93.790	-0.060	0.680	0.690
2020/01/31 03:08:43.7	93.790	-0.110	0.770	0.720
2020/01/31 03:08:43.8	93.790	-0.160	0.850	0.760
2020/01/31 03:08:43.9	93.790	-0.200	0.910	0.800
2020/01/31 03:08:44.0	93.780	-0.240	0.970	0.840
2020/01/31 03:08:44.1	93.780	-0.280	1.010	0.880
2020/01/31 03:08:44.2	93.760	-0.320	1.050	0.920
2020/01/31 03:08:44.3	93.750	-0.350	1.070	0.970
2020/01/31 03:08:44.4	93.730	-0.380	1.080	1.000
2020/01/31 03:08:44.5	93.710	-0.410	1.070	1.040
2020/01/31 03:08:44.6	93.690	-0.430	1.060	1.080
2020/01/31 03:08:44.7	93.670	-0.440	1.030	1.110
2020/01/31 03:08:44.8	93.640	-0.460	0.990	1.130
2020/01/31 03:08:44.9	93.620	-0.470	0.940	1.160
2020/01/31 03:08:45.0	93.590	-0.470	0.880	1.170
2020/01/31 03:08:45.1	93.570	-0.470	0.820	1.190
2020/01/31 03:08:45.2	93.550	-0.470	0.740	1.200
2020/01/31 03:08:45.3	93.520	-0.460	0.650	1.200
2020/01/31 03:08:45.4	93.500	-0.450	0.560	1.200
2020/01/31 03:08:45.5	93.480	-0.430	0.460	1.200
2020/01/31 03:08:45.6	93.450	-0.420	0.360	1.190
2020/01/31 03:08:45.7	93.430	-0.390	0.250	1.180
2020/01/31 03:08:45.8	93.410	-0.370	0.140	1.160
2020/01/31 03:08:45.9	93.390	-0.340	0.030	1.140
2020/01/31 03:08:46.0	93.380	-0.310	-0.080	1.120
2020/01/31 03:08:46.1	93.360	-0.270	-0.200	1.090
2020/01/31 03:08:46.2	93.350	-0.230	-0.320	1.060
2020/01/31 03:08:46.3	93.340	-0.190	-0.430	1.040
2020/01/31 03:08:46.4	93.330	-0.150	-0.540	1.020
2020/01/31 03:08:46.5	93.320	-0.110	-0.640	0.990
2020/01/31 03:08:46.6	93.310	-0.070	-0.740	0.970
2020/01/31 03:08:46.7	93.310	-0.020	-0.830	0.950
2020/01/31 03:08:46.8	93.310	0.020	-0.910	0.930
2020/01/31 03:08:46.9	93.310	0.060	-0.990	0.910
2020/01/31 03:08:47.0	93.310	0.110	-1.060	0.900
2020/01/31 03:08:47.1	93.320	0.150	-1.120	0.880
2020/01/31 03:08:47.2	93.320	0.190	-1.170	0.870
2020/01/31 03:08:47.3	93.330	0.230	-1.210	0.850
2020/01/31 03:08:47.4	93.340	0.260	-1.240	0.840
2020/01/31 03:08:47.5	93.360	0.300	-1.250	0.830
2020/01/31 03:08:47.6	93.370	0.330	-1.260	0.810
2020/01/31 03:08:47.7	93.390	0.350	-1.260	0.800
2020/01/31 03:08:47.8	93.410	0.380	-1.250	0.790
2020/01/31 03:08:47.9	93.430	0.400	-1.230	0.780
2020/01/31 03:08:48.0	93.460	0.420	-1.200	0.770
2020/01/31 03:08:48.1	93.480	0.430	-1.160	0.750
2020/01/31 03:08:48.2	93.510	0.440	-1.110	0.740
2020/01/31 03:08:48.3	93.540	0.440	-1.060	0.730
2020/01/31 03:08:48.4	93.570	0.440	-1.000	0.720
2020/01/31 03:08:48.5	93.600	0.440	-0.930	0.700
2020/01/31 03:08:48.6	93.630	0.430	-0.860	0.690
2020/01/31 03:08:48.7	93.660	0.420	-0.780	0.680
2020/01/31 03:08:48.8	93.680	0.410	-0.710	0.670
2020/01/31 03:08:48.9	93.710	0.390	-0.630	0.670
2020/01/31 03:08:49.0	93.740	0.370	-0.540	0.660
2020/01/31 03:08:49.1	93.760	0.350	-0.460	0.650
2020/01/31 03:08:49.2	93.790	0.330	-0.380	0.650
2020/01/31 03:08:49.3	93.810	0.300	-0.300	0.650
2020/01/31 03:08:49.4	93.840	0.270	-0.220	0.650
2020/01/31 03:08:49.5	93.860	0.240	-0.150	0.650
2020/01/31 03:08:49.6	93.870	0.210	-0.070	0.660
2020/01/31 03:08:49.7	93.890	0.180	-0.000	0.670
2020/01/31 03:08:49.8	93.900	0.150	0.060	0.690
2020/01/31 03:08:49.9	93.910	0.120	0.120	0.710
2020/01/31 03:08:50.0	93.920	0.090	0.180	0.730
2020/01/31 03:08:50.1	93.930	0.050	0.230	0.750
2020/01/31 03:08:50.2	93.930	0.020	0.270	0.780
2020/01/31 03:08:50.3	93.930	-0.010	0.310	0.810
2020/01/31 03:08:50.4	93.930	-0.030	0.340	0.840
2020/01/31 03:08:50.5	93.920	-0.060	0.370	0.880
2020/01/31 03:08:50.6	93.910	-0.090	0.390	0.920
2020/01/31 03:08:50.7	93.900	-0.110	0.410	0.960
2020/01/31 03:08:50.8	93.890	-0.140	0.420	1.000
2020/01/31 03:08:50.9	93.880	-0.160	0.430	1.040
2020/01/31 03:08:51.0	93.860	-0.180	0.430	1.070
2020/01/31 03:08:51.1	93.860	-0.200	0.430	1.110
2020/01/31 03:08:51.2	93.840	-0.220	0.420	1.150
2020/01/31 03:08:51.3	93.820	-0.240	0.410	1.180
2020/01/31 03:08:51.4	93.810	-0.260	0.400	1.210
2020/01/31 03:08:51.5	93.790	-0.280	0.390	1.240
2020/01/31 03:08:51.6	93.780	-0.290	0.370	1.260
2020/01/31 03:08:51.7	93.760	-0.310	0.350	1.280
2020/01/31 03:08:51.8	93.750	-0.320	0.330	1.300
2020/01/31 03:08:51.9	93.740	-0.340	0.310	1.310
2020/01/31 03:08:52.0	93.730	-0.350	0.280	1.310
2020/01/31 03:08:52.1	93.720	-0.360	0.260	1.320
2020/01/31 03:08:52.2	93.710	-0.380	0.230	1.310
2020/01/31 03:08:52.3	93.700	-0.390	0.210	1.310
2020/01/31 03:08:52.4	93.700	-0.400	0.180	1.300
2020/01/31 03:08:52.5	93.700	-0.410	0.160	1.290
2020/01/31 03:08:52.6	93.700	-0.420	0.130	1.270
2020/01/31 03:08:52.7	93.700	-0.430	0.110	1.250
2020/01/31 03:08:52.8	93.700	-0.440	0.090	1.230
2020/01/31 03:08:52.9	93.700	-0.450	0.070	1.210
2020/01/31 03:08:53.0	93.700	-0.450	0.040	1.180
2020/01/31 03:08:53.1	93.690	-0.460	0.020	1.150
2020/01/31 03:08:53.2	93.700	-0.460	-0.000	1.120
2020/01/31 03:08:53.3	93.710	-0.470	-0.030	1.100
2020/01/31 03:08:53.4	93.710	-0.470	-0.050	1.070
2020/01/31 03:08:53.5	93.720	-0.460	-0.070	1.040
2020/01/31 03:08:53.6	93.730	-0.460	-0.100	1.020
2020/01/31 03:08:53.7	93.740	-0.450	-0.120	0.990
2020/01/31 03:08:53.8	93.750	-0.440	-0.150	0.970
2020/01/31 03:08:53.9	93.760	-0.430	-0.180	0.940
2020/01/31 03:08:54.0	93.770	-0.420	-0.210	0.920
2020/01/31 03:08:54.1	93.780	-0.400	-0.250	0.890
2020/01/31 03:08:54.2	93.790	-0.380	-0.290	0.870
2020/01/31 03:08:54.3	93.800	-0.350	-0.330	0.850
2020/01/31 03:08:54.4	93.810	-0.330	-0.370	0.830
2020/01/31 03:08:54.5	93.820	-0.300	-0.410	0.810
2020/01/31 03:08:54.6	93.820	-0.270	-0.460	0.800
2020/01/31 03:08:54.7	93.830	-0.230	-0.500	0.780
2020/01/31 03:08:54.8	93.840	-0.200	-0.550	0.750
2020/01/31 03:08:54.9	93.850	-0.160	-0.600	0.730
2020/01/31 03:08:55.0	93.870	-0.120	-0.640	0.710
2020/01/31 03:08:55.1	93.860	-0.080	-0.690	0.690
2020/01/31 03:08:55.2	93.880	-0.040	-0.730	0.670
2020/01/31 03:08:55.3	93.890	0.000	-0.770	0.640
2020/01/31 03:08:55.4	93.910	0.040	-0.810	0.620
2020/01/31 03:08:55.5	93.920	0.080	-0.850	0.590
2020/01/31 03:08:55.6	93.930	0.120	-0.880	0.570
2020/01/31 03:08:55.7	93.950	0.160	-0.910	0.550
2020/01/31 03:08:55.8	93.960	0.200	-0.940	0.530
2020/01/31 03:08:55.9	93.970	0.240	-0.960	0.510
2020/01/31 03:08:56.0	93.980	0.270	-0.970	0.500
2020/01/31 03:08:56.1	93.990	0.300	-0.990	0.480
2020/01/31 03:08:56.2	94.000	0.330	-0.990	0.470
2020/01/31 03:08:56.3	94.000	0.360	-0.990	0.460
2020/01/31 03:08:56.4	94.010	0.390	-0.980	0.460
2020/01/31 03:08:56.5	94.010	0.410	-0.970	0.460
2020/01/31 03:08:56.6	94.010	0.430	-0.940	0.460
2020/01/31 03:08:56.7	94.010	0.450	-0.920	0.470
2020/01/31 03:08:56.8	94.000	0.460	-0.880	0.480
2020/01/31 03:08:56.9	94.000	0.470	-0.840	0.490
2020/01/31 03:08:57.0	93.990	0.480	-0.800	0.500
2020/01/31 03:08:57.1	93.980	0.490	-0.740	0.520
2020/01/31 03:08:57.2	93.970	0.490	-0.690	0.530
2020/01/31 03:08:57.3	93.960	0.490	-0.630	0.550
2020/01/31 03:08:57.4	93.950	0.490	-0.560	0.570
2020/01/31 03:08:57.5	93.940	0.480	-0.490	0.590
2020/01/31 03:08:57.6	93.930	0.470	-0.410	0.610
2020/01/31 03:08:57.7	93.910	0.460	-0.340	0.620
2020/01/31 03:08:57.8	93.900	0.450	-0.260	0.640
2020/01/31 03:08:57.9	93.890	0.440	-0.180	0.660
2020/01/31 03:08:58.0	93.870	0.420	-0.100	0.680
2020/01/31 03:08:58.1	93.860	0.400	-0.020	0.690
2020/01/31 03:08:58.2	93.850	0.380	0.050	0.700
2020/01/31 03:08:58.3	93.840	0.360	0.130	0.720
2020/01/31 03:08:58.4	93.820	0.330	0.200	0.730
2020/01/31 03:08:58.5	93.810	0.310	0.270	0.740
2020/01/31 03:08:58.6	93.800	0.280	0.330	0.740
2020/01/31 03:08:58.7	93.790	0.260	0.380	0.750
2020/01/31 03:08:58.8	93.780	0.230	0.430	0.750
2020/01/31 03:08:58.9	93.780	0.210	0.470	0.750
2020/01/31 03:08:59.0	93.770	0.180	0.510	0.750
2020/01/31 03:08:59.1	93.770	0.160	0.530	0.740
2020/01/31 03:08:59.2	93.770	0.130	0.550	0.730
2020/01/31 03:08:59.3	93.780	0.110	0.560	0.730
2020/01/31 03:08:59.4	93.780	0.090	0.560	0.710
2020/01/31 03:08:59.5	93.790	0.070	0.550	0.700
2020/01/31 03:08:59.6	93.810	0.050	0.530	0.680
2020/01/31 03:08:59.7	93.820	0.030	0.510	0.660
2020/01/31 03:08:59.8	93.840	0.020	0.480	0.640
2020/01/31 03:08:59.9	93.870	0.000	0.440	0.620
2020/01/31 03:09:00.0	93.890	-0.010	0.400	0.600
2020/01/31 03:09:00.1	93.920	-0.020	0.350	0.580
2020/01/31 03:09:00.2	93.950	-0.030	0.300	0.550
2020/01/31 03:09:00.3	93.980	-0.040	0.250	0.530
2020/01/31 03:09:00.4	94.020	-0.050	0.200	0.520
2020/01/31 03:09:00.5	94.050	-0.060	0.150	0.500
2020/01/31 03:09:00.6	94.090	-0.070	0.090	0.480
2020/01/31 03:09:00.7	94.120	-0.080	0.040	0.470
2020/01/31 03:09:00.8	94.150	-0.090	-0.010	0.460
2020/01/31 03:09:00.9	94.180	-0.100	-0.050	0.460
2020/01/31 03:09:01.0	94.210	-0.110	-0.100	0.450
2020/01/31 03:09:01.1	94.240	-0.120	-0.140	0.450
2020/01/31 03:09:01.2	94.270	-0.130	-0.180	0.450
2020/01/31 03:09:01.3	94.290	-0.140	-0.210	0.460
2020/01/31 03:09:01.4	94.310	-0.150	-0.230	0.460
2020/01/31 03:09:01.5	94.320	-0.160	-0.250	0.470
2020/01/31 03:09:01.6	94.340	-0.170	-0.270	0.480
2020/01/31 03:09:01.7	94.340	-0.190	-0.280	0.500
2020/01/31 03:09:01.8	94.350	-0.200	-0.280	0.520
2020/01/31 03:09:01.9	94.350	-0.210	-0.290	0.530
2020/01/31 03:09:02.0	94.350	-0.230	-0.280	0.560
2020/01/31 03:09:02.1	94.330	-0.240	-0.280	0.580
2020/01/31 03:09:02.2	94.320	-0.250	-0.270	0.610
2020/01/31 03:09:02.3	94.310	-0.270	-0.260	0.640
2020/01/31 03:09:02.4	94.300	-0.280	-0.250	0.670
2020/01/31 03:09:02.5	94.280	-0.290	-0.240	0.700
2020/01/31 03:09:02.6	94.260	-0.300	-0.230	0.730
2020/01/31 03:09:02.7	94.240	-0.310	-0.210	0.770
2020/01/31 03:09:02.8	94.220	-0.320	-0.200	0.800
2020/01/31 03:09:02.9	94.190	-0.330	-0.190	0.840
2020/01/31 03:09:03.0	94.170	-0.330	-0.190	0.870
2020/01/31 03:09:03.1	94.150	-0.340	-0.180	0.900
2020/01/31 03:09:03.2	94.130	-0.340	-0.180	0.940
2020/01/31 03:09:03.3	94.100	-0.340	-0.180	0.970
2020/01/31 03:09:03.4	94.080	-0.330	-0.190	1.010
2020/01/31 03:09:03.5	94.050	-0.330	-0.200	1.040
2020/01/31 03:09:03.6	94.030	-0.320	-0.210	1.070
2020/01/31 03:09:03.7	94.000	-0.310	-0.230	1.090
2020/01/31 03:09:03.8	93.980	-0.290	-0.250	1.120
2020/01/31 03:09:03.9	93.960	-0.280	-0.270	1.140
2020/01/31 03:09:04.0	93.940	-0.260	-0.300	1.160
2020/01/31 03:09:04.1	93.910	-0.240	-0.330	1.180
2020/01/31 03:09:04.2	93.890	-0.220	-0.370	1.200
2020/01/31 03:09:04.3	93.880	-0.190	-0.400	1.210
2020/01/31 03:09:04.4	93.860	-0.170	-0.440	1.220
2020/01/31 03:09:04.5	93.850	-0.140	-0.480	1.220
2020/01/31 03:09:04.6	93.840	-0.110	-0.530	1.220
2020/01/31 03:09:04.7	93.830	-0.080	-0.570	1.220
2020/01/31 03:09:04.8	93.820	-0.050	-0.610	1.210
2020/01/31 03:09:04.9	93.820	-0.020	-0.650	1.200
2020/01/31 03:09:05.0	93.810	0.010	-0.700	1.190
2020/01/31 03:09:05.1	93.820	0.040	-0.740	1.170
2020/01/31 03:09:05.2	93.820	0.070	-0.780	1.150
2020/01/31 03:09:05.3	93.820	0.100	-0.810	1.140
2020/01/31 03:09:05.4	93.820	0.120	-0.840	1.120
2020/01/31 03:09:05.5	93.820	0.150	-0.870	1.090
2020/01/31 03:09:05.6	93.830	0.180	-0.900	1.070
2020/01/31 03:09:05.7	93.830	0.200	-0.920	1.050
2020/01/31 03:09:05.8	93.840	0.220	-0.930	1.020
2020/01/31 03:09:05.9	93.850	0.240	-0.940	0.990
2020/01/31 03:09:06.0	93.850	0.260	-0.940	0.970
2020/01/31 03:09:06.1	93.870	0.270	-0.940	0.940
2020/01/31 03:09:06.2	93.880	0.280	-0.920	0.910
2020/01/31 03:09:06.3	93.890	0.290	-0.910	0.880
2020/01/31 03:09:06.4	93.900	0.300	-0.880	0.850
2020/01/31 03:09:06.5	93.910	0.300	-0.850	0.820
2020/01/31 03:09:06.6	93.920	0.300	-0.810	0.790
2020/01/31 03:09:06.7	93.930	0.300	-0.760	0.760
2020/01/31 03:09:06.8	93.940	0.290	-0.710	0.740
2020/01/31 03:09:06.9	93.950	0.280	-0.650	0.710
2020/01/31 03:09:07.0	93.970	0.270	-0.590	0.690
2020/01/31 03:09:07.1	93.970	0.260	-0.520	0.660
2020/01/31 03:09:07.2	93.980	0.240	-0.440	0.640
2020/01/31 03:09:07.3	93.990	0.220	-0.370	0.610
2020/01/31 03:09:07.4	94.000	0.200	-0.290	0.600
2020/01/31 03:09:07.5	94.010	0.170	-0.200	0.580
2020/01/31 03:09:07.6	94.020	0.150	-0.120	0.560
2020/01/31 03:09:07.7	94.030	0.120	-0.030	0.550
2020/01/31 03:09:07.8	94.040	0.090	0.050	0.540
2020/01/31 03:09:07.9	94.040	0.060	0.140	0.530
2020/01/31 03:09:08.0	94.050	0.030	0.220	0.530
2020/01/31 03:09:08.1	94.060	-0.000	0.300	0.520
2020/01/31 03:09:08.2	94.060	-0.040	0.380	0.530
2020/01/31 03:09:08.3	94.070	-0.070	0.450	0.530
2020/01/31 03:09:08.4	94.070	-0.100	0.520	0.540
2020/01/31 03:09:08.5	94.070	-0.130	0.580	0.550
2020/01/31 03:09:08.6	94.070	-0.160	0.630	0.570
2020/01/31 03:09:08.7	94.080	-0.190	0.680	0.580
2020/01/31 03:09:08.8	94.080	-0.210	0.720	0.600
2020/01/31 03:09:08.9	94.070	-0.240	0.750	0.620
2020/01/31 03:09:09.0	94.070	-0.260	0.770	0.640
2020/01/31 03:09:09.1	94.090	-0.280	0.790	0.660
2020/01/31 03:09:09.2	94.090	-0.300	0.790	0.680
2020/01/31 03:09:09.3	94.090	-0.320	0.790	0.700
2020/01/31 03:09:09.4	94.090	-0.340	0.780	0.720
2020/01/31 03:09:09.5	94.080	-0.350	0.770	0.740
2020/01/31 03:09:09.6	94.080	-0.360	0.740	0.750
2020/01/31 03:09:09.7	94.080	-0.370	0.710	0.770
2020/01/31 03:09:09.8	94.080	-0.370	0.670	0.780
2020/01/31 03:09:09.9	94.070	-0.380	0.630	0.790
2020/01/31 03:09:10.0	94.070	-0.380	0.580	0.800
2020/01/31 03:09:10.1	94.060	-0.380	0.520	0.810
2020/01/31 03:09:10.2	94.060	-0.370	0.460	0.810
2020/01/31 03:09:10.3	94.060	-0.370	0.400	0.820
2020/01/31 03:09:10.4	94.050	-0.360	0.330	0.820
2020/01/31 03:09:10.5	94.050	-0.350	0.260	0.820
2020/01/31 03:09:10.6	94.040	-0.340	0.190	0.820
2020/01/31 03:09:10.7	94.040	-0.330	0.110	0.820
2020/01/31 03:09:10.8	94.030	-0.310	0.040	0.820
2020/01/31 03:09:10.9	94.030	-0.290	-0.040	0.810
2020/01/31 03:09:11.0	94.020	-0.270	-0.120	0.810
2020/01/31 03:09:11.1	94.030	-0.250	-0.200	0.800
2020/01/31 03:09:11.2	94.020	-0.230	-0.270	0.800
2020/01/31 03:09:11.3	94.010	-0.210	-0.340	0.790
2020/01/31 03:09:11.4	94.010	-0.180	-0.410	0.780
2020/01/31 03:09:11.5	94.000	-0.160	-0.480	0.780
2020/01/31 03:09:11.6	93.990	-0.130	-0.550	0.770
2020/01/31 03:09:11.7	93.990	-0.100	-0.610	0.760
2020/01/31 03:09:11.8	93.980	-0.070	-0.670	0.750
2020/01/31 03:09:11.9	93.980	-0.040	-0.730	0.740
2020/01/31 03:09:12.0	93.970	-0.000	-0.780	0.730
2020/01/31 03:09:12.1	93.950	0.030	-0.820	0.720
2020/01/31 03:09:12.2	93.950	0.060	-0.860	0.710
2020/01/31 03:09:12.3	93.950	0.100	-0.900	0.700
2020/01/31 03:09:12.4	93.950	0.130	-0.940	0.680
2020/01/31 03:09:12.5	93.950	0.170	-0.960	0.670
2020/01/31 03:09:12.6	93.960	0.200	-0.990	0.660
2020/01/31 03:09:12.7	93.960	0.230	-1.000	0.640
2020/01/31 03:09:12.8	93.970	0.270	-1.010	0.630
2020/01/31 03:09:12.9	93.980	0.300	-1.020	0.620
2020/01/31 03:09:13.0	93.990	0.330	-1.020	0.610
2020/01/31 03:09:13.1	93.990	0.360	-1.020	0.600
2020/01/31 03:09:13.2	94.000	0.380	-1.010	0.590
2020/01/31 03:09:13.3	94.010	0.410	-1.000	0.580
2020/01/31 03:09:13.4	94.020	0.430	-0.980	0.580
2020/01/31 03:09:13.5	94.030	0.450	-0.960	0.580
2020/01/31 03:09:13.6	94.040	0.470	-0.930	0.580
2020/01/31 03:09:13.7	94.060	0.480	-0.900	0.580
2020/01/31 03:09:13.8	94.070	0.490	-0.870	0.580
2020/01/31 03:09:13.9	94.080	0.500	-0.830	0.590
2020/01/31 03:09:14.0	94.090	0.510	-0.790	0.590
2020/01/31 03:09:14.1	94.100	0.510	-0.740	0.600
2020/01/31 03:09:14.2	94.110	0.510	-0.690	0.610
2020/01/31 03:09:14.3	94.120	0.500	-0.640	0.620
2020/01/31 03:09:14.4	94.120	0.500	-0.590	0.630
2020/01/31 03:09:14.5	94.130	0.490	-0.540	0.640
2020/01/31 03:09:14.6	94.130	0.470	-0.480	0.650
2020/01/31 03:09:14.7	94.140	0.460	-0.430	0.670
2020/01/31 03:09:14.8	94.140	0.440	-0.370	0.680
2020/01/31 03:09:14.9	94.140	0.420	-0.310	0.700
2020/01/31 03:09:15.0	94.140	0.400	-0.260	0.710
2020/01/31 03:09:15.1	94.130	0.370	-0.200	0.730
2020/01/31 03:09:15.2	94.130	0.340	-0.140	0.750
2020/01/31 03:09:15.3	94.120	0.310	-0.080	0.760
2020/01/31 03:09:15.4	94.120	0.280	-0.030	0.780
2020/01/31 03:09:15.5	94.110	0.250	0.030	0.790
2020/01/31 03:09:15.6	94.100	0.220	0.090	0.810
2020/01/31 03:09:15.7	94.090	0.180	0.140	0.820
2020/01/31 03:09:15.8	94.080	0.150	0.190	0.840
2020/01/31 03:09:15.9	94.070	0.110	0.240	0.850
2020/01/31 03:09:16.0	94.060	0.080	0.290	0.870
2020/01/31 03:09:16.1	94.050	0.040	0.340	0.880
2020/01/31 03:09:16.2	94.030	0.000	0.380	0.890
2020/01/31 03:09:16.3	94.020	-0.030	0.420	0.910
2020/01/31 03:09:16.4	94.010	-0.060	0.450	0.920
2020/01/31 03:09:16.5	93.990	-0.100	0.480	0.930
2020/01/31 03:09:16.6	93.980	-0.130	0.500	0.950
2020/01/31 03:09:16.7	93.960	-0.160	0.520	0.960
2020/01/31 03:09:16.8	93.950	-0.190	0.530	0.970
2020/01/31 03:09:16.9	93.930	-0.210	0.530	0.980
2020/01/31 03:09:17.0	93.920	-0.240	0.530	0.990
2020/01/31 03:09:17.1	93.910	-0.260	0.520	1.000
2020/01/31 03:09:17.2	93.900	-0.280	0.510	1.010
2020/01/31 03:09:17.3	93.890	-0.290	0.480	1.010
2020/01/31 03:09:17.4	93.880	-0.310	0.450	1.020
2020/01/31 03:09:17.5	93.870	-0.320	0.420	1.020
2020/01/31 03:09:17.6	93.870	-0.330	0.370	1.020
2020/01/31 03:09:17.7	93.870	-0.330	0.320	1.020
2020/01/31 03:09:17.8	93.870	-0.340	0.260	1.020
2020/01/31 03:09:17.9	93.870	-0.340	0.200	1.010
2020/01/31 03:09:18.0	93.870	-0.330	0.140	1.010
2020/01/31 03:09:18.1	93.870	-0.330	0.060	1.000
2020/01/31 03:09:18.2	93.880	-0.320	-0.020	0.990
2020/01/31 03:09:18.3	93.890	-0.310	-0.090	0.980
2020/01/31 03:09:18.4	93.900	-0.300	-0.170	0.970
2020/01/31 03:09:18.5	93.910	-0.290	-0.250	0.960
2020/01/31 03:09:18.6	93.920	-0.280	-0.330	0.950
2020/01/31 03:09:18.7	93.930	-0.260	-0.410	0.930
2020/01/31 03:09:18.8	93.940	-0.250	-0.490	0.920
2020/01/31 03:09:18.9	93.950	-0.230	-0.560	0.910
2020/01/31 03:09:19.0	93.970	-0.210	-0.630	0.900
2020/01/31 03:09:19.1	93.970	-0.200	-0.690	0.880
2020/01/31 03:09:19.2	93.980	-0.180	-0.750	0.860
2020/01/31 03:09:19.3	93.990	-0.170	-0.800	0.850
2020/01/31 03:09:19.4	94.000	-0.150	-0.840	0.840
2020/01/31 03:09:19.5	94.010	-0.140	-0.870	0.830
2020/01/31 03:09:19.6	94.020	-0.130	-0.900	0.810
2020/01/31 03:09:19.7	94.020	-0.120	-0.910	0.800
2020/01/31 03:09:19.8	94.030	-0.110	-0.920	0.800
2020/01/31 03:09:19.9	94.040	-0.100	-0.920	0.790
2020/01/31 03:09:20.0	94.040	-0.100	-0.900	0.780
2020/01/31 03:09:20.1	94.050	-0.100	-0.890	0.770
2020/01/31 03:09:20.2	94.050	-0.090	-0.860	0.770
2020/01/31 03:09:20.3	94.050	-0.090	-0.820	0.770
2020/01/31 03:09:20.4	94.050	-0.100	-0.770	0.760
2020/01/31 03:09:20.5	94.050	-0.100	-0.720	0.760
2020/01/31 03:09:20.6	94.040	-0.110	-0.660	0.760
2020/01/31 03:09:20.7	94.040	-0.110	-0.590	0.760
2020/01/31 03:09:20.8	94.030	-0.120	-0.520	0.760
2020/01/31 03:09:20.9	94.030	-0.130	-0.450	0.760
2020/01/31 03:09:21.0	94.020	-0.150	-0.370	0.770
2020/01/31 03:09:21.1	94.000	-0.160	-0.290	0.760
2020/01/31 03:09:21.2	93.990	-0.170	-0.220	0.770
2020/01/31 03:09:21.3	93.980	-0.190	-0.140	0.770
2020/01/31 03:09:21.4	93.970	-0.200	-0.060	0.770
2020/01/31 03:09:21.5	93.960	-0.220	0.020	0.770
2020/01/31 03:09:21.6	93.950	-0.230	0.090	0.770
2020/01/31 03:09:21.7	93.940	-0.250	0.160	0.770
2020/01/31 03:09:21.8	93.930	-0.270	0.230	0.760
2020/01/31 03:09:21.9	93.920	-0.280	0.290	0.760
2020/01/31 03:09:22.0	93.920	-0.300	0.350	0.750
2020/01/31 03:09:22.1	93.920	-0.310	0.410	0.750
2020/01/31 03:09:22.2	93.910	-0.320	0.450	0.740
2020/01/31 03:09:22.3	93.910	-0.340	0.490	0.730
2020/01/31 03:09:22.4	93.910	-0.350	0.520	0.720
2020/01/31 03:09:22.5	93.910	-0.350	0.540	0.710
2020/01/31 03:09:22.6	93.910	-0.360	0.560	0.690
2020/01/31 03:09:22.7	93.920	-0.360	0.560	0.680
2020/01/31 03:09:22.8	93.920	-0.360	0.560	0.660
2020/01/31 03:09:22.9	93.930	-0.360	0.550	0.640
2020/01/31 03:09:23.0	93.940	-0.350	0.520	0.630
2020/01/31 03:09:23.1	93.960	-0.340	0.490	0.600
2020/01/31 03:09:23.2	93.970	-0.330	0.450	0.580
2020/01/31 03:09:23.3	93.990	-0.320	0.410	0.550
2020/01/31 03:09:23.4	94.000	-0.300	0.350	0.530
2020/01/31 03:09:23.5	94.020	-0.270	0.290	0.500
2020/01/31 03:09:23.6	94.040	-0.240	0.220	0.480
2020/01/31 03:09:23.7	94.060	-0.210	0.140	0.450
2020/01/31 03:09:23.8	94.070	-0.180	0.060	0.420
2020/01/31 03:09:23.9	94.090	-0.140	-0.030	0.390
2020/01/31 03:09:24.0	94.110	-0.100	-0.120	0.360
2020/01/31 03:09:24.1	94.120	-0.060	-0.220	0.330
2020/01/31 03:09:24.2	94.140	-0.010	-0.310	0.310
2020/01/31 03:09:24.3	94.150	0.030	-0.400	0.280
2020/01/31 03:09:24.4	94.160	0.080	-0.490	0.260
2020/01/31 03:09:24.5	94.170	0.130	-0.580	0.240
2020/01/31 03:09:24.6	94.170	0.180	-0.660	0.220
2020/01/31 03:09:24.7	94.180	0.230	-0.740	0.200
2020/01/31 03:09:24.8	94.180	0.280	-0.810	0.190
2020/01/31 03:09:24.9	94.180	0.330	-0.880	0.180
2020/01/31 03:09:25.0	94.180	0.380	-0.930	0.180
2020/01/31 03:09:25.1	94.160	0.420	-0.980	0.180
2020/01/31 03:09:25.2	94.150	0.460	-1.020	0.180
2020/01/31 03:09:25.3	94.130	0.500	-1.050	0.190
2020/01/31 03:09:25.4	94.120	0.530	-1.070	0.200
2020/01/31 03:09:25.5	94.100	0.570	-1.080	0.220
2020/01/31 03:09:25.6	94.080	0.590	-1.080	0.240
2020/01/31 03:09:25.7	94.060	0.610	-1.070	0.270
2020/01/31 03:09:25.8	94.030	0.630	-1.060	0.300
2020/01/31 03:09:25.9	94.000	0.650	-1.030	0.340
2020/01/31 03:09:26.0	93.970	0.650	-1.000	0.380
2020/01/31 03:09:26.1	93.950	0.660	-0.950	0.420
2020/01/31 03:09:26.2	93.920	0.650	-0.900	0.460
2020/01/31 03:09:26.3	93.890	0.650	-0.850	0.510
2020/01/31 03:09:26.4	93.850	0.630	-0.790	0.550
2020/01/31 03:09:26.5	93.820	0.620	-0.720	0.600
2020/01/31 03:09:26.6	93.790	0.600	-0.650	0.650
2020/01/31 03:09:26.7	93.760	0.570	-0.580	0.700
2020/01/31 03:09:26.8	93.720	0.540	-0.510	0.740
2020/01/31 03:09:26.9	93.690	0.510	-0.440	0.780
2020/01/31 03:09:27.0	93.660	0.470	-0.360	0.830
2020/01/31 03:09:27.1	93.630	0.440	-0.290	0.860
2020/01/31 03:09:27.2	93.600	0.400	-0.230	0.900
2020/01/31 03:09:27.3	93.580	0.360	-0.160	0.920
2020/01/31 03:09:27.4	93.560	0.310	-0.100	0.950
2020/01/31 03:09:27.5	93.540	0.270	-0.050	0.970
2020/01/31 03:09:27.6	93.520	0.230	-0.000	0.980
2020/01/31 03:09:27.7	93.500	0.190	0.040	0.990
2020/01/31 03:09:27.8	93.490	0.150	0.080	1.000
2020/01/31 03:09:27.9	93.480	0.110	0.100	1.000
2020/01/31 03:09:28.0	93.470	0.070	0.120	1.000
2020/01/31 03:09:28.1	93.460	0.040	0.140	0.990
2020/01/31 03:09:28.2	93.460	0.010	0.140	0.980
2020/01/31 03:09:28.3	93.470	-0.020	0.140	0.960
2020/01/31 03:09:28.4	93.470	-0.040	0.130	0.950
2020/01/31 03:09:28.5	93.480	-0.060	0.120	0.930
2020/01/31 03:09:28.6	93.490	-0.070	0.100	0.910
2020/01/31 03:09:28.7	93.500	-0.080	0.070	0.890
2020/01/31 03:09:28.8	93.520	-0.090	0.040	0.870
2020/01/31 03:09:28.9	93.540	-0.090	0.010	0.860
2020/01/31 03:09:29.0	93.560	-0.090	-0.030	0.840
2020/01/31 03:09:29.1	93.590	-0.080	-0.070	0.820
2020/01/31 03:09:29.2	93.610	-0.080	-0.110	0.800
2020/01/31 03:09:29.3	93.630	-0.070	-0.140	0.790
2020/01/31 03:09:29.4	93.650	-0.060	-0.180	0.780
2020/01/31 03:09:29.5	93.670	-0.040	-0.210	0.780
2020/01/31 03:09:29.6	93.680	-0.030	-0.240	0.770
2020/01/31 03:09:29.7	93.700	-0.020	-0.260	0.770
2020/01/31 03:09:29.8	93.710	-0.000	-0.280	0.780
2020/01/31 03:09:29.9	93.720	0.010	-0.290	0.780
2020/01/31 03:09:30.0	93.730	0.020	-0.300	0.790
2020/01/31 03:09:30.1	93.730	0.030	-0.300	0.800
2020/01/31 03:09:30.2	93.740	0.040	-0.290	0.810
2020/01/31 03:09:30.3	93.740	0.040	-0.280	0.820
2020/01/31 03:09:30.4	93.740	0.040	-0.260	0.840
2020/01/31 03:09:30.5	93.730	0.040	-0.240	0.850
2020/01/31 03:09:30.6	93.730	0.030	-0.200	0.860
2020/01/31 03:09:30.7	93.730	0.020	-0.170	0.870
2020/01/31 03:09:30.8	93.720	0.010	-0.120	0.890
2020/01/31 03:09:30.9	93.710	-0.000	-0.070	0.900
2020/01/31 03:09:31.0	93.710	-0.020	-0.020	0.910
2020/01/31 03:09:31.1	93.690	-0.040	0.030	0.920
2020/01/31 03:09:31.2	93.690	-0.070	0.080	0.930
2020/01/31 03:09:31.3	93.680	-0.100	0.140	0.950
2020/01/31 03:09:31.4	93.670	-0.130	0.200	0.960
2020/01/31 03:09:31.5	93.670	-0.160	0.260	0.980
2020/01/31 03:09:31.6	93.660	-0.190	0.320	0.990
2020/01/31 03:09:31.7	93.660	-0.230	0.370	1.010
2020/01/31 03:09:31.8	93.650	-0.260	0.420	1.020
2020/01/31 03:09:31.9	93.650	-0.300	0.470	1.040
2020/01/31 03:09:32.0	93.650	-0.340	0.510	1.050
2020/01/31 03:09:32.1	93.650	-0.370	0.540	1.070
2020/01/31 03:09:32.2	93.650	-0.400	0.570	1.080
2020/01/31 03:09:32.3	93.650	-0.430	0.590	1.100
2020/01/31 03:09:32.4	93.650	-0.460	0.590	1.110
2020/01/31 03:09:32.5	93.660	-0.480	0.590	1.130
2020/01/31 03:09:32.6	93.660	-0.500	0.580	1.140
2020/01/31 03:09:32.7	93.670	-0.510	0.560	1.160
2020/01/31 03:09:32.8	93.670	-0.530	0.520	1.170
2020/01/31 03:09:32.9	93.680	-0.530	0.480	1.190
2020/01/31 03:09:33.0	93.690	-0.530	0.420	1.200
2020/01/31 03:09:33.1	93.730	-0.530	0.360	1.210
2020/01/31 03:09:33.2	93.740	-0.520	0.290	1.220
2020/01/31 03:09:33.3	93.750	-0.500	0.200	1.230
2020/01/31 03:09:33.4	93.760	-0.480	0.110	1.240
2020/01/31 03:09:33.5	93.770	-0.460	0.020	1.250
2020/01/31 03:09:33.6	93.780	-0.430	-0.090	1.260
2020/01/31 03:09:33.7	93.800	-0.390	-0.190	1.270
2020/01/31 03:09:33.8	93.810	-0.350	-0.300	1.270
2020/01/31 03:09:33.9	93.820	-0.310	-0.410	1.270
2020/01/31 03:09:34.0	93.830	-0.270	-0.520	1.270
2020/01/31 03:09:34.1	93.830	-0.220	-0.630	1.260
2020/01/31 03:09:34.2	93.840	-0.170	-0.740	1.260
2020/01/31 03:09:34.3	93.850	-0.120	-0.840	1.250
2020/01/31 03:09:34.4	93.850	-0.070	-0.940	1.240
2020/01/31 03:09:34.5	93.860	-0.020	-1.030	1.230
2020/01/31 03:09:34.6	93.860	0.020	-1.110	1.210
2020/01/31 03:09:34.7	93.870	0.070	-1.180	1.200
2020/01/31 03:09:34.8	93.860	0.120	-1.240	1.190
2020/01/31 03:09:34.9	93.860	0.160	-1.290	1.180
2020/01/31 03:09:35.0	93.860	0.190	-1.320	1.160
2020/01/31 03:09:35.1	93.830	0.230	-1.340	1.140
2020/01/31 03:09:35.2	93.820	0.260	-1.350	1.130
2020/01/31 03:09:35.3	93.810	0.280	-1.340	1.120
2020/01/31 03:09:35.4	93.800	0.300	-1.320	1.120
2020/01/31 03:09:35.5	93.780	0.310	-1.280	1.110
2020/01/31 03:09:35.6	93.770	0.320	-1.230	1.110
2020/01/31 03:09:35.7	93.750	0.330	-1.170	1.110
2020/01/31 03:09:35.8	93.730	0.320	-1.090	1.110
2020/01/31 03:09:35.9	93.710	0.320	-1.010	1.110
2020/01/31 03:09:36.0	93.680	0.300	-0.910	1.120
2020/01/31 03:09:36.1	93.650	0.280	-0.800	1.120
2020/01/31 03:09:36.2	93.620	0.260	-0.680	1.130
2020/01/31 03:09:36.3	93.600	0.230	-0.560	1.140
2020/01/31 03:09:36.4	93.570	0.200	-0.430	1.150
2020/01/31 03:09:36.5	93.550	0.160	-0.300	1.150
2020/01/31 03:09:36.6	93.520	0.120	-0.170	1.160
2020/01/31 03:09:36.7	93.500	0.080	-0.040	1.170
2020/01/31 03:09:36.8	93.470	0.040	0.090	1.170
2020/01/31 03:09:36.9	93.450	-0.000	0.220	1.170
2020/01/31 03:09:37.0	93.430	-0.050	0.340	1.170
2020/01/31 03:09:37.1	93.430	-0.100	0.450	1.160
2020/01/31 03:09:37.2	93.410	-0.140	0.560	1.150
2020/01/31 03:09:37.3	93.390	-0.180	0.650	1.140
2020/01/31 03:09:37.4	93.380	-0.220	0.740	1.120
2020/01/31 03:09:37.5	93.360	-0.260	0.810	1.100
2020/01/31 03:09:37.6	93.350	-0.290	0.860	1.080
2020/01/31 03:09:37.7	93.340	-0.320	0.900	1.050
2020/01/31 03:09:37.8	93.340	-0.350	0.930	1.020
2020/01/31 03:09:37.9	93.330	-0.370	0.940	0.980
2020/01/31 03:09:38.0	93.330	-0.380	0.930	0.940
2020/01/31 03:09:38.1	93.340	-0.390	0.900	0.900
2020/01/31 03:09:38.2	93.350	-0.390	0.860	0.860
2020/01/31 03:09:38.3	93.350	-0.380	0.800	0.810
2020/01/31 03:09:38.4	93.360	-0.370	0.730	0.760
2020/01/31 03:09:38.5	93.370	-0.350	0.640	0.710
2020/01/31 03:09:38.6	93.380	-0.320	0.530	0.660
2020/01/31 03:09:38.7	93.390	-0.280	0.410	0.620
2020/01/31 03:09:38.8	93.410	-0.240	0.280	0.570
2020/01/31 03:09:38.9	93.420	-0.200	0.150	0.520
2020/01/31 03:09:39.0	93.440	-0.150	-0.000	0.480
2020/01/31 03:09:39.1	93.460	-0.090	-0.150	0.420
2020/01/31 03:09:39.2	93.480	-0.030	-0.310	0.380
2020/01/31 03:09:39.3	93.490	0.030	-0.460	0.350
2020/01/31 03:09:39.4	93.510	0.090	-0.610	0.310
2020/01/31 03:09:39.5	93.520	0.160	-0.750	0.280
2020/01/31 03:09:39.6	93.530	0.220	-0.890	0.260
2020/01/31 03:09:39.7	93.540	0.280	-1.010	0.230
2020/01/31 03:09:39.8	93.550	0.340	-1.130	0.210
2020/01/31 03:09:39.9	93.550	0.400	-1.230	0.200
2020/01/31 03:09:40.0	93.550	0.450	-1.310	0.180
2020/01/31 03:09:40.1	93.550	0.500	-1.380	0.170
2020/01/31 03:09:40.2	93.550	0.540	-1.430	0.160
2020/01/31 03:09:40.3	93.550	0.570	-1.460	0.150
2020/01/31 03:09:40.4	93.550	0.600	-1.480	0.140
2020/01/31 03:09:40.5	93.550	0.630	-1.480	0.140
2020/01/31 03:09:40.6	93.540	0.640	-1.460	0.130
2020/01/31 03:09:40.7	93.540	0.650	-1.430	0.130
2020/01/31 03:09:40.8	93.530	0.650	-1.380	0.140
2020/01/31 03:09:40.9	93.520	0.650	-1.310	0.140
2020/01/31 03:09:41.0	93.510	0.630	-1.230	0.150
2020/01/31 03:09:41.1	93.480	0.610	-1.140	0.160
2020/01/31 03:09:41.2	93.470	0.590	-1.030	0.170
2020/01/31 03:09:41.3	93.460	0.550	-0.920	0.190
2020/01/31 03:09:41.4	93.450	0.510	-0.800	0.200
2020/01/31 03:09:41.5	93.440	0.470	-0.670	0.220
2020/01/31 03:09:41.6	93.430	0.420	-0.540	0.250
2020/01/31 03:09:41.7	93.420	0.370	-0.410	0.270
2020/01/31 03:09:41.8	93.410	0.310	-0.270	0.300
2020/01/31 03:09:41.9	93.400	0.250	-0.140	0.320
2020/01/31 03:09:42.0	93.390	0.200	-0.010	0.350
2020/01/31 03:09:42.1	93.370	0.140	0.120	0.380
2020/01/31 03:09:42.2	93.370	0.080	0.240	0.410
2020/01/31 03:09:42.3	93.360	0.020	0.350	0.440
2020/01/31 03:09:42.4	93.350	-0.040	0.450	0.470
2020/01/31 03:09:42.5	93.350	-0.090	0.540	0.500
2020/01/31 03:09:42.6	93.340	-0.140	0.620	0.520
2020/01/31 03:09:42.7	93.340	-0.190	0.690	0.550
2020/01/31 03:09:42.8	93.340	-0.230	0.750	0.580
2020/01/31 03:09:42.9	93.340	-0.270	0.790	0.610
2020/01/31 03:09:43.0	93.340	-0.300	0.820	0.630
2020/01/31 03:09:43.1	93.350	-0.320	0.840	0.650
2020/01/31 03:09:43.2	93.360	-0.340	0.850	0.680
2020/01/31 03:09:43.3	93.360	-0.350	0.840	0.700
2020/01/31 03:09:43.4	93.370	-0.360	0.820	0.720
2020/01/31 03:09:43.5	93.370	-0.360	0.790	0.740
2020/01/31 03:09:43.6	93.370	-0.360	0.750	0.760
2020/01/31 03:09:43.7	93.380	-0.350	0.700	0.780
2020/01/31 03:09:43.8	93.380	-0.340	0.650	0.790
2020/01/31 03:09:43.9	93.390	-0.320	0.580	0.810
2020/01/31 03:09:44.0	93.390	-0.300	0.510	0.820
2020/01/31 03:09:44.1	93.390	-0.280	0.430	0.830
2020/01/31 03:09:44.2	93.400	-0.250	0.350	0.840
2020/01/31 03:09:44.3	93.400	-0.220	0.270	0.850
2020/01/31 03:09:44.4	93.410	-0.190	0.180	0.850
2020/01/31 03:09:44.5	93.420	-0.160	0.090	0.850
2020/01/31 03:09:44.6	93.420	-0.120	0.000	0.850
2020/01/31 03:09:44.7	93.430	-0.090	-0.090	0.850
2020/01/31 03:09:44.8	93.440	-0.050	-0.170	0.840
2020/01/31 03:09:44.9	93.450	-0.010	-0.260	0.830
2020/01/31 03:09:45.0	93.460	0.020	-0.340	0.830
2020/01/31 03:09:45.1	93.470	0.050	-0.420	0.820
2020/01/31 03:09:45.2	93.480	0.090	-0.490	0.810
2020/01/31 03:09:45.3	93.490	0.120	-0.560	0.810
2020/01/31 03:09:45.4	93.500	0.150	-0.620	0.800
2020/01/31 03:09:45.5	93.510	0.180	-0.680	0.800
2020/01/31 03:09:45.6	93.520	0.200	-0.730	0.790
2020/01/31 03:09:45.7	93.530	0.220	-0.770	0.790
2020/01/31 03:09:45.8	93.540	0.240	-0.810	0.790
2020/01/31 03:09:45.9	93.550	0.260	-0.830	0.800
2020/01/31 03:09:46.0	93.550	0.270	-0.850	0.800
2020/01/31 03:09:46.1	93.550	0.280	-0.870	0.800
2020/01/31 03:09:46.2	93.560	0.280	-0.870	0.810
2020/01/31 03:09:46.3	93.560	0.280	-0.860	0.820
2020/01/31 03:09:46.4	93.570	0.280	-0.840	0.830
2020/01/31 03:09:46.5	93.580	0.270	-0.810	0.830
2020/01/31 03:09:46.6	93.580	0.260	-0.770	0.840
2020/01/31 03:09:46.7	93.590	0.240	-0.730	0.860
2020/01/31 03:09:46.8	93.600	0.220	-0.680	0.870
2020/01/31 03:09:46.9	93.600	0.200	-0.620	0.880
2020/01/31 03:09:47.0	93.600	0.170	-0.560	0.890
2020/01/31 03:09:47.1	93.600	0.140	-0.480	0.900
2020/01/31 03:09:47.2	93.600	0.100	-0.410	0.910
2020/01/31 03:09:47.3	93.610	0.060	-0.330	0.920
2020/01/31 03:09:47.4	93.610	0.020	-0.250	0.930
2020/01/31 03:09:47.5	93.610	-0.020	-0.170	0.940
2020/01/31 03:09:47.6	93.610	-0.060	-0.090	0.950
2020/01/31 03:09:47.7	93.610	-0.110	-0.010	0.960
2020/01/31 03:09:47.8	93.610	-0.160	0.070	0.960
2020/01/31 03:09:47.9	93.610	-0.200	0.150	0.970
2020/01/31 03:09:48.0	93.610	-0.250	0.230	0.970
2020/01/31 03:09:48.1	93.620	-0.300	0.290	0.970
2020/01/31 03:09:48.2	93.610	-0.340	0.360	0.980
2020/01/31 03:09:48.3	93.610	-0.390	0.420	0.980
2020/01/31 03:09:48.4	93.600	-0.430	0.470	0.980
2020/01/31 03:09:48.5	93.600	-0.470	0.510	0.980
2020/01/31 03:09:48.6	93.590	-0.510	0.550	0.980
2020/01/31 03:09:48.7	93.580	-0.550	0.580	0.970
2020/01/31 03:09:48.8	93.570	-0.580	0.600	0.970
2020/01/31 03:09:48.9	93.560	-0.600	0.600	0.970
2020/01/31 03:09:49.0	93.550	-0.620	0.600	0.970
2020/01/31 03:09:49.1	93.540	-0.640	0.600	0.960
2020/01/31 03:09:49.2	93.530	-0.650	0.580	0.960
2020/01/31 03:09:49.3	93.510	-0.660	0.540	0.950
2020/01/31 03:09:49.4	93.500	-0.660	0.510	0.940
2020/01/31 03:09:49.5	93.490	-0.660	0.460	0.940
2020/01/31 03:09:49.6	93.480	-0.650	0.400	0.930
2020/01/31 03:09:49.7	93.470	-0.630	0.340	0.920
2020/01/31 03:09:49.8	93.460	-0.610	0.260	0.910
2020/01/31 03:09:49.9	93.450	-0.580	0.190	0.900
2020/01/31 03:09:50.0	93.440	-0.550	0.110	0.890
2020/01/31 03:09:50.1	93.430	-0.510	0.020	0.870
2020/01/31 03:09:50.2	93.420	-0.470	-0.080	0.850
2020/01/31 03:09:50.3	93.420	-0.430	-0.170	0.840
2020/01/31 03:09:50.4	93.420	-0.380	-0.260	0.820
2020/01/31 03:09:50.5	93.410	-0.330	-0.360	0.800
2020/01/31 03:09:50.6	93.410	-0.280	-0.450	0.780
2020/01/31 03:09:50.7	93.420	-0.230	-0.540	0.750
2020/01/31 03:09:50.8	93.420	-0.170	-0.630	0.730
2020/01/31 03:09:50.9	93.430	-0.110	-0.720	0.700
2020/01/31 03:09:51.0	93.450	-0.050	-0.800	0.670
2020/01/31 03:09:51.1	93.460	0.000	-0.880	0.630
2020/01/31 03:09:51.2	93.480	0.060	-0.950	0.600
2020/01/31 03:09:51.3	93.500	0.110	-1.010	0.570
2020/01/31 03:09:51.4	93.530	0.170	-1.070	0.530
2020/01/31 03:09:51.5	93.560	0.220	-1.120	0.500
2020/01/31 03:09:51.6	93.590	0.270	-1.160	0.470
2020/01/31 03:09:51.7	93.620	0.320	-1.200	0.440
2020/01/31 03:09:51.8	93.660	0.360	-1.230	0.400
2020/01/31 03:09:51.9	93.700	0.400	-1.240	0.370
2020/01/31 03:09:52.0	93.740	0.440	-1.250	0.350
2020/01/31 03:09:52.1	93.780	0.470	-1.250	0.320
2020/01/31 03:09:52.2	93.820	0.500	-1.240	0.290
2020/01/31 03:09:52.3	93.870	0.530	-1.230	0.270
2020/01/31 03:09:52.4	93.910	0.550	-1.200	0.260
2020/01/31 03:09:52.5	93.950	0.570	-1.170	0.240
2020/01/31 03:09:52.6	93.990	0.580	-1.120	0.240
2020/01/31 03:09:52.7	94.030	0.580	-1.070	0.230
2020/01/31 03:09:52.8	94.070	0.590	-1.010	0.230
2020/01/31 03:09:52.9	94.100	0.580	-0.950	0.240
2020/01/31 03:09:53.0	94.130	0.580	-0.870	0.250
2020/01/31 03:09:53.1	94.170	0.570	-0.790	0.250
2020/01/31 03:09:53.2	94.190	0.550	-0.710	0.270
2020/01/31 03:09:53.3	94.210	0.530	-0.610	0.290
2020/01/31 03:09:53.4	94.230	0.500	-0.520	0.310
2020/01/31 03:09:53.5	94.240	0.470	-0.420	0.330
2020/01/31 03:09:53.6	94.240	0.440	-0.310	0.350
2020/01/31 03:09:53.7	94.240	0.410	-0.200	0.380
2020/01/31 03:09:53.8	94.240	0.370	-0.100	0.400
2020/01/31 03:09:53.9	94.240	0.320	0.010	0.430
2020/01/31 03:09:54.0	94.230	0.280	0.120	0.450
2020/01/31 03:09:54.1	94.200	0.230	0.230	0.480
2020/01/31 03:09:54.2	94.180	0.180	0.340	0.510
2020/01/31 03:09:54.3	94.160	0.130	0.440	0.530
2020/01/31 03:09:54.4	94.140	0.080	0.540	0.560
2020/01/31 03:09:54.5	94.110	0.030	0.630	0.580
2020/01/31 03:09:54.6	94.080	-0.020	0.710	0.610
2020/01/31 03:09:54.7	94.050	-0.070	0.790	0.630
2020/01/31 03:09:54.8	94.010	-0.120	0.850	0.650
2020/01/31 03:09:54.9	93.980	-0.160	0.910	0.670
2020/01/31 03:09:55.0	93.950	-0.210	0.950	0.680
2020/01/31 03:09:55.1	93.910	-0.250	0.980	0.690
2020/01/31 03:09:55.2	93.880	-0.290	1.000	0.710
2020/01/31 03:09:55.3	93.840	-0.320	1.010	0.720
2020/01/31 03:09:55.4	93.810	-0.350	1.000	0.730
2020/01/31 03:09:55.5	93.780	-0.370	0.980	0.750
2020/01/31 03:09:55.6	93.750	-0.390	0.950	0.760
2020/01/31 03:09:55.7	93.730	-0.400	0.900	0.770
2020/01/31 03:09:55.8	93.700	-0.410	0.840	0.770
2020/01/31 03:09:55.9	93.680	-0.420	0.760	0.780
2020/01/31 03:09:56.0	93.660	-0.410	0.680	0.790
2020/01/31 03:09:56.1	93.660	-0.410	0.590	0.790
2020/01/31 03:09:56.2	93.650	-0.400	0.480	0.790
2020/01/31 03:09:56.3	93.640	-0.380	0.370	0.790
2020/01/31 03:09:56.4	93.630	-0.360	0.250	0.790
2020/01/31 03:09:56.5	93.630	-0.340	0.120	0.790
2020/01/31 03:09:56.6	93.630	-0.310	-0.010	0.780
2020/01/31 03:09:56.7	93.630	-0.280	-0.140	0.770
2020/01/31 03:09:56.8	93.640	-0.240	-0.280	0.760
2020/01/31 03:09:56.9	93.640	-0.210	-0.410	0.750
2020/01/31 03:09:57.0	93.660	-0.170	-0.540	0.730
2020/01/31 03:09:57.1	93.660	-0.130	-0.670	0.700
2020/01/31 03:09:57.2	93.680	-0.090	-0.800	0.680
2020/01/31 03:09:57.3	93.700	-0.060	-0.910	0.640
2020/01/31 03:09:57.4	93.720	-0.020	-1.020	0.610
2020/01/31 03:09:57.5	93.730	0.020	-1.120	0.580
2020/01/31 03:09:57.6	93.760	0.060	-1.210	0.540
2020/01/31 03:09:57.7	93.780	0.100	-1.290	0.500
2020/01/31 03:09:57.8	93.800	0.130	-1.360	0.460
2020/01/31 03:09:57.9	93.830	0.160	-1.410	0.420
2020/01/31 03:09:58.0	93.850	0.190	-1.460	0.390
2020/01/31 03:09:58.1	93.860	0.220	-1.480	0.340
2020/01/31 03:09:58.2	93.890	0.250	-1.500	0.310
2020/01/31 03:09:58.3	93.910	0.270	-1.500	0.270
2020/01/31 03:09:58.4	93.940	0.290	-1.490	0.250
2020/01/31 03:09:58.5	93.960	0.310	-1.460	0.220
2020/01/31 03:09:58.6	93.980	0.320	-1.420	0.210
2020/01/31 03:09:58.7	94.000	0.330	-1.370	0.190
2020/01/31 03:09:58.8	94.030	0.340	-1.310	0.190
2020/01/31 03:09:58.9	94.050	0.350	-1.230	0.190
2020/01/31 03:09:59.0	94.070	0.350	-1.150	0.190
2020/01/31 03:09:59.1	94.100	0.350	-1.050	0.210
2020/01/31 03:09:59.2	94.120	0.340	-0.950	0.230
2020/01/31 03:09:59.3	94.130	0.330	-0.840	0.260
2020/01/31 03:09:59.4	94.150	0.320	-0.720	0.290
2020/01/31 03:09:59.5	94.170	0.310	-0.590	0.320
2020/01/31 03:09:59.6	94.180	0.290	-0.470	0.370
2020/01/31 03:09:59.7	94.190	0.270	-0.340	0.410
2020/01/31 03:09:59.8	94.210	0.250	-0.210	0.460
2020/01/31 03:09:59.9	94.220	0.230	-0.080	0.510
2020/01/31 03:10:00.0	94.230	0.200	0.050	0.560
2020/01/31 03:10:00.1	94.220	0.170	0.170	0.610
2020/01/31 03:10:00.2	94.230	0.140	0.300	0.660
2020/01/31 03:10:00.3	94.240	0.110	0.410	0.710
2020/01/31 03:10:00.4	94.260	0.080	0.520	0.760
2020/01/31 03:10:00.5	94.270	0.050	0.620	0.810
2020/01/31 03:10:00.6	94.280	0.020	0.720	0.850
2020/01/31 03:10:00.7	94.290	-0.010	0.800	0.890
2020/01/31 03:10:00.8	94.310	-0.050	0.870	0.930
2020/01/31 03:10:00.9	94.320	-0.080	0.940	0.970
2020/01/31 03:10:01.0	94.330	-0.110	0.990	1.000
2020/01/31 03:10:01.1	94.360	-0.140	1.030	1.030
2020/01/31 03:10:01.2	94.370	-0.160	1.050	1.050
2020/01/31 03:10:01.3	94.390	-0.190	1.060	1.070
2020/01/31 03:10:01.4	94.400	-0.210	1.070	1.080
2020/01/31 03:10:01.5	94.410	-0.230	1.050	1.090
2020/01/31 03:10:01.6	94.430	-0.250	1.030	1.090
2020/01/31 03:10:01.7	94.440	-0.270	1.000	1.090
2020/01/31 03:10:01.8	94.450	-0.280	0.950	1.090
2020/01/31 03:10:01.9	94.460	-0.290	0.890	1.080
2020/01/31 03:10:02.0	94.480	-0.290	0.830	1.060
2020/01/31 03:10:02.1	94.500	-0.300	0.750	1.040
2020/01/31 03:10:02.2	94.510	-0.300	0.670	1.020
2020/01/31 03:10:02.3	94.530	-0.300	0.580	1.000
2020/01/31 03:10:02.4	94.540	-0.290	0.490	0.970
2020/01/31 03:10:02.5	94.550	-0.280	0.390	0.940
2020/01/31 03:10:02.6	94.560	-0.270	0.290	0.910
2020/01/31 03:10:02.7	94.570	-0.260	0.190	0.880
2020/01/31 03:10:02.8	94.580	-0.240	0.080	0.850
2020/01/31 03:10:02.9	94.590	-0.220	-0.020	0.820
2020/01/31 03:10:03.0	94.600	-0.200	-0.120	0.790
2020/01/31 03:10:03.1	94.610	-0.180	-0.220	0.750
2020/01/31 03:10:03.2	94.620	-0.150	-0.320	0.720
2020/01/31 03:10:03.3	94.620	-0.120	-0.410	0.700
2020/01/31 03:10:03.4	94.630	-0.090	-0.500	0.670
2020/01/31 03:10:03.5	94.640	-0.060	-0.580	0.640
2020/01/31 03:10:03.6	94.640	-0.030	-0.660	0.620
2020/01/31 03:10:03.7	94.640	0.010	-0.730	0.600
2020/01/31 03:10:03.8	94.650	0.040	-0.790	0.590
2020/01/31 03:10:03.9	94.650	0.080	-0.850	0.570
2020/01/31 03:10:04.0	94.650	0.110	-0.900	0.560
2020/01/31 03:10:04.1	94.640	0.150	-0.940	0.550
2020/01/31 03:10:04.2	94.630	0.180	-0.980	0.550
2020/01/31 03:10:04.3	94.630	0.220	-1.010	0.550
2020/01/31 03:10:04.4	94.630	0.250	-1.030	0.550
2020/01/31 03:10:04.5	94.620	0.280	-1.040	0.560
2020/01/31 03:10:04.6	94.620	0.310	-1.050	0.570
2020/01/31 03:10:04.7	94.610	0.340	-1.050	0.580
2020/01/31 03:10:04.8	94.600	0.370	-1.040	0.590
2020/01/31 03:10:04.9	94.600	0.390	-1.030	0.610
2020/01/31 03:10:05.0	94.590	0.410	-1.010	0.620
2020/01/31 03:10:05.1	94.590	0.430	-0.990	0.630
2020/01/31 03:10:05.2	94.580	0.450	-0.960	0.650
2020/01/31 03:10:05.3	94.580	0.460	-0.920	0.660
2020/01/31 03:10:05.4	94.570	0.470	-0.880	0.670
2020/01/31 03:10:05.5	94.570	0.470	-0.840	0.680
2020/01/31 03:10:05.6	94.560	0.470	-0.790	0.680
2020/01/31 03:10:05.7	94.560	0.470	-0.740	0.690
2020/01/31 03:10:05.8	94.560	0.470	-0.690	0.690
2020/01/31 03:10:05.9	94.550	0.460	-0.640	0.700
2020/01/31 03:10:06.0	94.550	0.450	-0.580	0.700
2020/01/31 03:10:06.1	94.540	0.430	-0.530	0.690
2020/01/31 03:10:06.2	94.530	0.420	-0.470	0.690
2020/01/31 03:10:06.3	94.530	0.400	-0.420	0.680
2020/01/31 03:10:06.4	94.520	0.370	-0.360	0.680
2020/01/31 03:10:06.5	94.520	0.350	-0.310	0.670
2020/01/31 03:10:06.6	94.520	0.320	-0.260	0.670
2020/01/31 03:10:06.7	94.510	0.290	-0.210	0.660
2020/01/31 03:10:06.8	94.510	0.260	-0.160	0.660
2020/01/31 03:10:06.9	94.500	0.230	-0.120	0.650
2020/01/31 03:10:07.0	94.500	0.200	-0.080	0.650
2020/01/31 03:10:07.1	94.500	0.160	-0.040	0.640
2020/01/31 03:10:07.2	94.490	0.130	-0.010	0.640
2020/01/31 03:10:07.3	94.490	0.100	0.020	0.640
2020/01/31 03:10:07.4	94.490	0.060	0.050	0.650
2020/01/31 03:10:07.5	94.490	0.030	0.080	0.650
2020/01/31 03:10:07.6	94.500	-0.000	0.100	0.660
2020/01/31 03:10:07.7	94.500	-0.030	0.120	0.670
2020/01/31 03:10:07.8	94.500	-0.070	0.130	0.680
2020/01/31 03:10:07.9	94.510	-0.100	0.140	0.690
2020/01/31 03:10:08.0	94.510	-0.130	0.150	0.700
2020/01/31 03:10:08.1	94.520	-0.150	0.160	0.710
2020/01/31 03:10:08.2	94.530	-0.180	0.160	0.730
2020/01/31 03:10:08.3	94.540	-0.210	0.160	0.740
2020/01/31 03:10:08.4	94.550	-0.230	0.150	0.760
2020/01/31 03:10:08.5	94.560	-0.250	0.150	0.770
2020/01/31 03:10:08.6	94.570	-0.280	0.140	0.780
2020/01/31 03:10:08.7	94.590	-0.300	0.130	0.790
2020/01/31 03:10:08.8	94.600	-0.320	0.120	0.800
2020/01/31 03:10:08.9	94.620	-0.330	0.100	0.810
2020/01/31 03:10:09.0	94.640	-0.350	0.090	0.810
2020/01/31 03:10:09.1	94.660	-0.370	0.070	0.810
2020/01/31 03:10:09.2	94.680	-0.380	0.050	0.820
2020/01/31 03:10:09.3	94.700	-0.390	0.040	0.820
2020/01/31 03:10:09.4	94.720	-0.410	0.020	0.820
2020/01/31 03:10:09.5	94.740	-0.420	0.000	0.820
2020/01/31 03:10:09.6	94.760	-0.430	-0.020	0.820
2020/01/31 03:10:09.7	94.790	-0.430	-0.040	0.820
2020/01/31 03:10:09.8	94.810	-0.440	-0.060	0.820
2020/01/31 03:10:09.9	94.830	-0.440	-0.080	0.820
2020/01/31 03:10:10.0	94.850	-0.450	-0.100	0.820
2020/01/31 03:10:10.1	94.870	-0.450	-0.120	0.820
2020/01/31 03:10:10.2	94.890	-0.450	-0.140	0.830
2020/01/31 03:10:10.3	94.910	-0.450	-0.170	0.830
2020/01/31 03:10:10.4	94.930	-0.440	-0.190	0.840
2020/01/31 03:10:10.5	94.940	-0.430	-0.220	0.850
2020/01/31 03:10:10.6	94.960	-0.430	-0.240	0.860
2020/01/31 03:10:10.7	94.980	-0.420	-0.260	0.880
2020/01/31 03:10:10.8	94.990	-0.400	-0.290	0.890
2020/01/31 03:10:10.9	95.010	-0.390	-0.310	0.910
2020/01/31 03:10:11.0	95.020	-0.380	-0.330	0.920
2020/01/31 03:10:11.1	95.040	-0.360	-0.350	0.940
2020/01/31 03:10:11.2	95.060	-0.340	-0.370	0.950
2020/01/31 03:10:11.3	95.070	-0.320	-0.390	0.970
2020/01/31 03:10:11.4	95.080	-0.290	-0.400	0.980
2020/01/31 03:10:11.5	95.090	-0.270	-0.420	1.000
2020/01/31 03:10:11.6	95.100	-0.240	-0.430	1.010
2020/01/31 03:10:11.7	95.110	-0.220	-0.440	1.020
2020/01/31 03:10:11.8	95.120	-0.190	-0.450	1.020
2020/01/31 03:10:11.9	95.130	-0.160	-0.450	1.030
2020/01/31 03:10:12.0	95.140	-0.130	-0.460	1.030
2020/01/31 03:10:12.1	95.140	-0.100	-0.460	1.030
2020/01/31 03:10:12.2	95.150	-0.070	-0.460	1.030
2020/01/31 03:10:12.3	95.150	-0.030	-0.460	1.030
2020/01/31 03:10:12.4	95.150	-0.000	-0.460	1.030
2020/01/31 03:10:12.5	95.150	0.030	-0.460	1.020
2020/01/31 03:10:12.6	95.150	0.060	-0.450	1.020
2020/01/31 03:10:12.7	95.150	0.100	-0.440	1.010
2020/01/31 03:10:12.8	95.140	0.130	-0.440	1.000
2020/01/31 03:10:12.9	95.140	0.160	-0.430	0.990
2020/01/31 03:10:13.0	95.130	0.190	-0.420	0.980
2020/01/31 03:10:13.1	95.130	0.210	-0.410	0.970
2020/01/31 03:10:13.2	95.130	0.240	-0.400	0.950
2020/01/31 03:10:13.3	95.120	0.260	-0.380	0.940
2020/01/31 03:10:13.4	95.110	0.290	-0.370	0.920
2020/01/31 03:10:13.5	95.100	0.310	-0.350	0.910
2020/01/31 03:10:13.6	95.090	0.320	-0.330	0.890
2020/01/31 03:10:13.7	95.080	0.340	-0.310	0.870
2020/01/31 03:10:13.8	95.070	0.350	-0.290	0.850
2020/01/31 03:10:13.9	95.060	0.360	-0.270	0.830
2020/01/31 03:10:14.0	95.050	0.370	-0.250	0.810
2020/01/31 03:10:14.1	95.040	0.380	-0.230	0.780
2020/01/31 03:10:14.2	95.030	0.380	-0.210	0.760
2020/01/31 03:10:14.3	95.020	0.380	-0.190	0.730
2020/01/31 03:10:14.4	95.010	0.380	-0.170	0.710
2020/01/31 03:10:14.5	94.990	0.380	-0.150	0.680
2020/01/31 03:10:14.6	94.980	0.380	-0.130	0.650
2020/01/31 03:10:14.7	94.970	0.370	-0.120	0.610
2020/01/31 03:10:14.8	94.960	0.370	-0.100	0.580
2020/01/31 03:10:14.9	94.950	0.360	-0.080	0.550
2020/01/31 03:10:15.0	94.940	0.350	-0.070	0.510
2020/01/31 03:10:15.1	94.920	0.340	-0.060	0.470
2020/01/31 03:10:15.2	94.910	0.330	-0.050	0.440
2020/01/31 03:10:15.3	94.910	0.320	-0.040	0.410
2020/01/31 03:10:15.4	94.900	0.300	-0.030	0.370
2020/01/31 03:10:15.5	94.890	0.290	-0.030	0.340
2020/01/31 03:10:15.6	94.880	0.280	-0.030	0.310
2020/01/31 03:10:15.7	94.880	0.270	-0.020	0.280
2020/01/31 03:10:15.8	94.880	0.250	-0.020	0.250
2020/01/31 03:10:15.9	94.870	0.240	-0.020	0.230
2020/01/31 03:10:16.0	94.870	0.230	-0.020	0.210
2020/01/31 03:10:16.1	94.870	0.210	-0.030	0.180
2020/01/31 03:10:16.2	94.880	0.200	-0.030	0.160
2020/01/31 03:10:16.3	94.880	0.190	-0.030	0.150
2020/01/31 03:10:16.4	94.890	0.170	-0.030	0.140
2020/01/31 03:10:16.5	94.900	0.160	-0.030	0.130
2020/01/31 03:10:16.6	94.900	0.140	-0.030	0.120
2020/01/31 03:10:16.7	94.910	0.130	-0.020	0.120
2020/01/31 03:10:16.8	94.920	0.110	-0.020	0.120
2020/01/31 03:10:16.9	94.940	0.100	-0.010	0.120
2020/01/31 03:10:17.0	94.950	0.080	-0.010	0.130
2020/01/31 03:10:17.1	94.960	0.060	0.000	0.140
2020/01/31 03:10:17.2	94.980	0.050	0.010	0.150
2020/01/31 03:10:17.3	94.990	0.030	0.020	0.160
2020/01/31 03:10:17.4	95.000	0.010	0.030	0.180
2020/01/31 03:10:17.5	95.020	-0.010	0.030	0.200
2020/01/31 03:10:17.6	95.040	-0.030	0.040	0.210
2020/01/31 03:10:17.7	95.050	-0.040	0.050	0.230
2020/01/31 03:10:17.8	95.070	-0.060	0.050	0.250
2020/01/31 03:10:17.9	95.090	-0.080	0.060	0.270
2020/01/31 03:10:18.0	95.100	-0.100	0.060	0.290
2020/01/31 03:10:18.1	95.110	-0.110	0.060	0.300
2020/01/31 03:10:18.2	95.130	-0.130	0.050	0.320
2020/01/31 03:10:18.3	95.150	-0.140	0.050	0.330
2020/01/31 03:10:18.4	95.160	-0.150	0.040	0.350
2020/01/31 03:10:18.5	95.180	-0.160	0.030	0.370
2020/01/31 03:10:18.6	95.200	-0.170	0.010	0.380
2020/01/31 03:10:18.7	95.220	-0.180	-0.010	0.400
2020/01/31 03:10:18.8	95.230	-0.180	-0.030	0.420
2020/01/31 03:10:18.9	95.250	-0.180	-0.050	0.430
2020/01/31 03:10:19.0	95.270	-0.180	-0.090	0.450
2020/01/31 03:10:19.1	95.290	-0.180	-0.120	0.470
2020/01/31 03:10:19.2	95.310	-0.170	-0.160	0.480
2020/01/31 03:10:19.3	95.320	-0.160	-0.200	0.500
2020/01/31 03:10:19.4	95.340	-0.150	-0.240	0.520
2020/01/31 03:10:19.5	95.350	-0.130	-0.280	0.550
2020/01/31 03:10:19.6	95.370	-0.110	-0.330	0.570
2020/01/31 03:10:19.7	95.380	-0.090	-0.380	0.600
2020/01/31 03:10:19.8	95.400	-0.070	-0.430	0.620
2020/01/31 03:10:19.9	95.410	-0.040	-0.480	0.650
2020/01/31 03:10:20.0	95.420	-0.020	-0.530	0.680
2020/01/31 03:10:20.1	95.430	0.010	-0.580	0.720
2020/01/31 03:10:20.2	95.430	0.040	-0.620	0.750
2020/01/31 03:10:20.3	95.440	0.070	-0.670	0.780
2020/01/31 03:10:20.4	95.440	0.100	-0.710	0.820
2020/01/31 03:10:20.5	95.440	0.120	-0.750	0.850
2020/01/31 03:10:20.6	95.440	0.150	-0.780	0.890
2020/01/31 03:10:20.7	95.430	0.180	-0.810	0.920
2020/01/31 03:10:20.8	95.430	0.200	-0.830	0.960
2020/01/31 03:10:20.9	95.420	0.220	-0.850	0.990
2020/01/31 03:10:21.0	95.410	0.240	-0.860	1.020
2020/01/31 03:10:21.1	95.390	0.260	-0.870	1.050
2020/01/31 03:10:21.2	95.380	0.280	-0.870	1.080
2020/01/31 03:10:21.3	95.370	0.290	-0.870	1.100
2020/01/31 03:10:21.4	95.350	0.300	-0.860	1.120
2020/01/31 03:10:21.5	95.330	0.300	-0.840	1.150
2020/01/31 03:10:21.6	95.320	0.310	-0.820	1.160
2020/01/31 03:10:21.7	95.300	0.310	-0.790	1.180
2020/01/31 03:10:21.8	95.280	0.300	-0.750	1.190
2020/01/31 03:10:21.9	95.260	0.300	-0.710	1.210
2020/01/31 03:10:22.0	95.240	0.280	-0.660	1.210
2020/01/31 03:10:22.1	95.220	0.270	-0.610	1.220
2020/01/31 03:10:22.2	95.200	0.250	-0.550	1.220
2020/01/31 03:10:22.3	95.170	0.240	-0.490	1.230
2020/01/31 03:10:22.4	95.150	0.210	-0.420	1.230
2020/01/31 03:10:22.5	95.120	0.190	-0.350	1.230
2020/01/31 03:10:22.6	95.100	0.160	-0.280	1.220
2020/01/31 03:10:22.7	95.070	0.130	-0.200	1.220
2020/01/31 03:10:22.8	95.040	0.100	-0.130	1.210
2020/01/31 03:10:22.9	95.020	0.070	-0.050	1.200
2020/01/31 03:10:23.0	94.990	0.040	0.030	1.190
2020/01/31 03:10:23.1	94.970	0.000	0.100	1.180
2020/01/31 03:10:23.2	94.940	-0.030	0.170	1.170
2020/01/31 03:10:23.3	94.920	-0.060	0.240	1.150
2020/01/31 03:10:23.4	94.900	-0.100	0.310	1.140
2020/01/31 03:10:23.5	94.880	-0.130	0.370	1.120
2020/01/31 03:10:23.6	94.860	-0.170	0.430	1.100
2020/01/31 03:10:23.7	94.840	-0.200	0.480	1.070
2020/01/31 03:10:23.8	94.830	-0.230	0.520	1.050
2020/01/31 03:10:23.9	94.820	-0.260	0.560	1.020
2020/01/31 03:10:24.0	94.810	-0.290	0.580	0.990
2020/01/31 03:10:24.1	94.800	-0.320	0.610	0.950
2020/01/31 03:10:24.2	94.800	-0.340	0.620	0.920
2020/01/31 03:10:24.3	94.800	-0.360	0.620	0.880
2020/01/31 03:10:24.4	94.800	-0.380	0.610	0.840
2020/01/31 03:10:24.5	94.810	-0.390	0.590	0.800
2020/01/31 03:10:24.6	94.820	-0.400	0.560	0.760
2020/01/31 03:10:24.7	94.830	-0.410	0.520	0.710
2020/01/31 03:10:24.8	94.850	-0.420	0.470	0.670
2020/01/31 03:10:24.9	94.860	-0.420	0.410	0.630
2020/01/31 03:10:25.0	94.880	-0.420	0.350	0.580
2020/01/31 03:10:25.1	94.910	-0.410	0.270	0.530
2020/01/31 03:10:25.2	94.930	-0.400	0.190	0.490
2020/01/31 03:10:25.3	94.960	-0.390	0.100	0.460
2020/01/31 03:10:25.4	94.980	-0.370	0.010	0.420
2020/01/31 03:10:25.5	95.000	-0.350	-0.090	0.400
2020/01/31 03:10:25.6	95.020	-0.320	-0.190	0.370
2020/01/31 03:10:25.7	95.040	-0.290	-0.290	0.350
2020/01/31 03:10:25.8	95.060	-0.260	-0.400	0.330
2020/01/31 03:10:25.9	95.080	-0.230	-0.500	0.320
2020/01/31 03:10:26.0	95.100	-0.200	-0.610	0.320
2020/01/31 03:10:26.1	95.110	-0.160	-0.710	0.320
2020/01/31 03:10:26.2	95.120	-0.120	-0.800	0.320
2020/01/31 03:10:26.3	95.130	-0.090	-0.890	0.320
2020/01/31 03:10:26.4	95.140	-0.050	-0.960	0.330
2020/01/31 03:10:26.5	95.140	-0.010	-1.030	0.340
2020/01/31 03:10:26.6	95.150	0.020	-1.090	0.350
2020/01/31 03:10:26.7	95.150	0.050	-1.130	0.360
2020/01/31 03:10:26.8	95.150	0.080	-1.160	0.370
2020/01/31 03:10:26.9	95.150	0.100	-1.180	0.390
2020/01/31 03:10:27.0	95.150	0.120	-1.180	0.410
2020/01/31 03:10:27.1	95.160	0.140	-1.180	0.430
2020/01/31 03:10:27.2	95.150	0.150	-1.160	0.450
2020/01/31 03:10:27.3	95.150	0.160	-1.120	0.470
2020/01/31 03:10:27.4	95.140	0.160	-1.070	0.500
2020/01/31 03:10:27.5	95.140	0.160	-1.010	0.530
2020/01/31 03:10:27.6	95.130	0.160	-0.940	0.550
2020/01/31 03:10:27.7	95.130	0.150	-0.860	0.590
2020/01/31 03:10:27.8	95.120	0.130	-0.770	0.620
2020/01/31 03:10:27.9	95.120	0.110	-0.660	0.650
2020/01/31 03:10:28.0	95.110	0.090	-0.560	0.680
2020/01/31 03:10:28.1	95.100	0.060	-0.440	0.710
2020/01/31 03:10:28.2	95.090	0.030	-0.320	0.750
2020/01/31 03:10:28.3	95.090	0.000	-0.200	0.780
2020/01/31 03:10:28.4	95.090	-0.030	-0.080	0.810
2020/01/31 03:10:28.5	95.090	-0.070	0.040	0.840
2020/01/31 03:10:28.6	95.090	-0.110	0.160	0.870
2020/01/31 03:10:28.7	95.090	-0.150	0.280	0.900
2020/01/31 03:10:28.8	95.100	-0.180	0.390	0.920
2020/01/31 03:10:28.9	95.100	-0.220	0.500	0.940
2020/01/31 03:10:29.0	95.110	-0.260	0.600	0.960
2020/01/31 03:10:29.1	95.130	-0.290	0.690	0.970
2020/01/31 03:10:29.2	95.140	-0.320	0.780	0.980
2020/01/31 03:10:29.3	95.150	-0.350	0.850	0.980
2020/01/31 03:10:29.4	95.160	-0.380	0.910	0.980
2020/01/31 03:10:29.5	95.180	-0.400	0.960	0.980
2020/01/31 03:10:29.6	95.190	-0.410	0.990	0.970
2020/01/31 03:10:29.7	95.200	-0.430	1.010	0.960
2020/01/31 03:10:29.8	95.210	-0.430	1.020	0.940
2020/01/31 03:10:29.9	95.230	-0.430	1.010	0.920
2020/01/31 03:10:30.0	95.240	-0.430	0.990	0.900
2020/01/31 03:10:30.1	95.250	-0.420	0.950	0.860
2020/01/31 03:10:30.2	95.250	-0.400	0.900	0.840
2020/01/31 03:10:30.3	95.260	-0.380	0.840	0.810
2020/01/31 03:10:30.4	95.270	-0.350	0.760	0.780
2020/01/31 03:10:30.5	95.270	-0.310	0.670	0.750
2020/01/31 03:10:30.6	95.270	-0.280	0.580	0.720
2020/01/31 03:10:30.7	95.280	-0.230	0.470	0.690
2020/01/31 03:10:30.8	95.270	-0.180	0.360	0.670
2020/01/31 03:10:30.9	95.270	-0.130	0.230	0.640
2020/01/31 03:10:31.0	95.270	-0.070	0.100	0.620
2020/01/31 03:10:31.1	95.250	-0.010	-0.030	0.590
2020/01/31 03:10:31.2	95.250	0.050	-0.160	0.570
2020/01/31 03:10:31.3	95.240	0.110	-0.300	0.560
2020/01/31 03:10:31.4	95.230	0.180	-0.440	0.540
2020/01/31 03:10:31.5	95.220	0.240	-0.570	0.530
2020/01/31 03:10:31.6	95.210	0.310	-0.700	0.530
2020/01/31 03:10:31.7	95.200	0.370	-0.830	0.520
2020/01/31 03:10:31.8	95.180	0.430	-0.950	0.520
2020/01/31 03:10:31.9	95.170	0.490	-1.060	0.530
2020/01/31 03:10:32.0	95.160	0.550	-1.160	0.530
2020/01/31 03:10:32.1	95.160	0.610	-1.260	0.540
2020/01/31 03:10:32.2	95.140	0.660	-1.340	0.550
2020/01/31 03:10:32.3	95.130	0.700	-1.410	0.560
2020/01/31 03:10:32.4	95.120	0.740	-1.470	0.570
2020/01/31 03:10:32.5	95.110	0.770	-1.520	0.590
2020/01/31 03:10:32.6	95.110	0.800	-1.550	0.610
2020/01/31 03:10:32.7	95.100	0.820	-1.560	0.630
2020/01/31 03:10:32.8	95.090	0.830	-1.560	0.650
2020/01/31 03:10:32.9	95.090	0.840	-1.550	0.670
2020/01/31 03:10:33.0	95.080	0.840	-1.520	0.690
2020/01/31 03:10:33.1	95.070	0.830	-1.480	0.720
2020/01/31 03:10:33.2	95.070	0.820	-1.420	0.740
2020/01/31 03:10:33.3	95.070	0.790	-1.350	0.770
2020/01/31 03:10:33.4	95.070	0.770	-1.270	0.790
2020/01/31 03:10:33.5	95.070	0.730	-1.180	0.820
2020/01/31 03:10:33.6	95.070	0.690	-1.080	0.840
2020/01/31 03:10:33.7	95.080	0.640	-0.970	0.860
2020/01/31 03:10:33.8	95.080	0.590	-0.860	0.880
2020/01/31 03:10:33.9	95.090	0.530	-0.730	0.910
2020/01/31 03:10:34.0	95.090	0.470	-0.610	0.930
2020/01/31 03:10:34.1	95.090	0.400	-0.470	0.940
2020/01/31 03:10:34.2	95.100	0.330	-0.340	0.960
2020/01/31 03:10:34.3	95.100	0.260	-0.210	0.980
2020/01/31 03:10:34.4	95.110	0.190	-0.070	0.990
2020/01/31 03:10:34.5	95.120	0.110	0.060	1.000
2020/01/31 03:10:34.6	95.130	0.040	0.190	1.010
2020/01/31 03:10:34.7	95.140	-0.040	0.310	1.010
2020/01/31 03:10:34.8	95.150	-0.110	0.420	1.020
2020/01/31 03:10:34.9	95.160	-0.190	0.530	1.020
2020/01/31 03:10:35.0	95.170	-0.260	0.630	1.030
2020/01/31 03:10:35.1	95.180	-0.330	0.720	1.030
2020/01/31 03:10:35.2	95.190	-0.390	0.800	1.030
2020/01/31 03:10:35.3	95.200	-0.450	0.870	1.030
2020/01/31 03:10:35.4	95.210	-0.510	0.930	1.030
2020/01/31 03:10:35.5	95.210	-0.560	0.980	1.030
2020/01/31 03:10:35.6	95.220	-0.600	1.010	1.030
2020/01/31 03:10:35.7	95.230	-0.640	1.040	1.030
2020/01/31 03:10:35.8	95.230	-0.680	1.050	1.040
2020/01/31 03:10:35.9	95.240	-0.710	1.040	1.040
2020/01/31 03:10:36.0	95.240	-0.730	1.030	1.050
2020/01/31 03:10:36.1	95.250	-0.740	1.000	1.060
2020/01/31 03:10:36.2	95.250	-0.750	0.970	1.070
2020/01/31 03:10:36.3	95.250	-0.750	0.920	1.070
2020/01/31 03:10:36.4	95.250	-0.740	0.860	1.080
2020/01/31 03:10:36.5	95.250	-0.730	0.790	1.090
2020/01/31 03:10:36.6	95.250	-0.710	0.720	1.090
2020/01/31 03:10:36.7	95.250	-0.690	0.630	1.100
2020/01/31 03:10:36.8	95.250	-0.660	0.540	1.100
2020/01/31 03:10:36.9	95.240	-0.630	0.450	1.090
2020/01/31 03:10:37.0	95.250	-0.590	0.350	1.090
2020/01/31 03:10:37.1	95.240	-0.540	0.240	1.080
2020/01/31 03:10:37.2	95.240	-0.500	0.130	1.060
2020/01/31 03:10:37.3	95.250	-0.450	0.030	1.050
2020/01/31 03:10:37.4	95.250	-0.390	-0.080	1.030
2020/01/31 03:10:37.5	95.260	-0.340	-0.190	1.000
2020/01/31 03:10:37.6	95.260	-0.280	-0.290	0.980
2020/01/31 03:10:37.7	95.270	-0.220	-0.400	0.950
2020/01/31 03:10:37.8	95.280	-0.160	-0.500	0.920
2020/01/31 03:10:37.9	95.290	-0.100	-0.590	0.890
2020/01/31 03:10:38.0	95.300	-0.050	-0.680	0.860
2020/01/31 03:10:38.1	95.300	0.010	-0.770	0.830
2020/01/31 03:10:38.2	95.310	0.070	-0.850	0.800
2020/01/31 03:10:38.3	95.320	0.120	-0.920	0.780
2020/01/31 03:10:38.4	95.330	0.170	-0.980	0.750
2020/01/31 03:10:38.5	95.340	0.220	-1.040	0.730
2020/01/31 03:10:38.6	95.350	0.270	-1.080	0.710
2020/01/31 03:10:38.7	95.360	0.310	-1.120	0.690
2020/01/31 03:10:38.8	95.370	0.340	-1.150	0.680
2020/01/31 03:10:38.9	95.370	0.380	-1.170	0.660
2020/01/31 03:10:39.0	95.370	0.410	-1.180	0.650
2020/01/31 03:10:39.1	95.380	0.430	-1.180	0.640
2020/01/31 03:10:39.2	95.380	0.450	-1.170	0.630
2020/01/31 03:10:39.3	95.380	0.460	-1.150	0.630
2020/01/31 03:10:39.4	95.370	0.470	-1.130	0.620
2020/01/31 03:10:39.5	95.370	0.480	-1.090	0.620
2020/01/31 03:10:39.6	95.360	0.480	-1.040	0.620
2020/01/31 03:10:39.7	95.350	0.470	-0.990	0.610
2020/01/31 03:10:39.8	95.340	0.470	-0.930	0.610
2020/01/31 03:10:39.9	95.330	0.450	-0.860	0.610
2020/01/31 03:10:40.0	95.320	0.440	-0.790	0.610
2020/01/31 03:10:40.1	95.310	0.410	-0.710	0.610
2020/01/31 03:10:40.2	95.300	0.390	-0.620	0.600
2020/01/31 03:10:40.3	95.280	0.360	-0.530	0.600
2020/01/31 03:10:40.4	95.260	0.330	-0.450	0.600
2020/01/31 03:10:40.5	95.250	0.300	-0.350	0.590
2020/01/31 03:10:40.6	95.230	0.270	-0.260	0.590
2020/01/31 03:10:40.7	95.210	0.230	-0.170	0.580
2020/01/31 03:10:40.8	95.190	0.190	-0.090	0.580
2020/01/31 03:10:40.9	95.170	0.160	-0.000	0.570
2020/01/31 03:10:41.0	95.150	0.120	0.080	0.560
2020/01/31 03:10:41.1	95.130	0.080	0.150	0.550
2020/01/31 03:10:41.2	95.110	0.050	0.220	0.540
2020/01/31 03:10:41.3	95.090	0.010	0.280	0.530
2020/01/31 03:10:41.4	95.080	-0.020	0.340	0.520
2020/01/31 03:10:41.5	95.070	-0.050	0.390	0.510
2020/01/31 03:10:41.6	95.050	-0.080	0.420	0.500
2020/01/31 03:10:41.7	95.040	-0.110	0.460	0.490
2020/01/31 03:10:41.8	95.030	-0.130	0.480	0.480
2020/01/31 03:10:41.9	95.030	-0.160	0.490	0.470
2020/01/31 03:10:42.0	95.020	-0.180	0.500	0.460
2020/01/31 03:10:42.1	95.020	-0.190	0.500	0.460
2020/01/31 03:10:42.2	95.010	-0.210	0.490	0.460
2020/01/31 03:10:42.3	95.010	-0.220	0.470	0.450
2020/01/31 03:10:42.4	95.010	-0.230	0.450	0.450
2020/01/31 03:10:42.5	95.010	-0.240	0.420	0.450
2020/01/31 03:10:42.6	95.010	-0.250	0.390	0.460
2020/01/31 03:10:42.7	95.010	-0.250	0.350	0.460
2020/01/31 03:10:42.8	95.010	-0.250	0.300	0.460
2020/01/31 03:10:42.9	95.020	-0.250	0.250	0.470
2020/01/31 03:10:43.0	95.020	-0.250	0.200	0.480
2020/01/31 03:10:43.1	95.030	-0.250	0.150	0.480
2020/01/31 03:10:43.2	95.030	-0.240	0.090	0.490
2020/01/31 03:10:43.3	95.040	-0.240	0.040	0.510
2020/01/31 03:10:43.4	95.040	-0.230	-0.020	0.520
2020/01/31 03:10:43.5	95.040	-0.220	-0.080	0.530
2020/01/31 03:10:43.6	95.050	-0.210	-0.140	0.540
2020/01/31 03:10:43.7	95.050	-0.200	-0.200	0.550
2020/01/31 03:10:43.8	95.050	-0.180	-0.260	0.560
2020/01/31 03:10:43.9	95.050	-0.170	-0.310	0.580
2020/01/31 03:10:44.0	95.050	-0.160	-0.370	0.590
2020/01/31 03:10:44.1	95.030	-0.140	-0.420	0.600
2020/01/31 03:10:44.2	95.020	-0.120	-0.470	0.620
2020/01/31 03:10:44.3	95.020	-0.110	-0.520	0.630
2020/01/31 03:10:44.4	95.010	-0.090	-0.560	0.650
2020/01/31 03:10:44.5	95.000	-0.070	-0.600	0.670
2020/01/31 03:10:44.6	94.990	-0.050	-0.630	0.690
2020/01/31 03:10:44.7	94.980	-0.030	-0.660	0.710
2020/01/31 03:10:44.8	94.970	-0.020	-0.680	0.730
2020/01/31 03:10:44.9	94.960	0.000	-0.700	0.750
2020/01/31 03:10:45.0	94.950	0.020	-0.720	0.780
2020/01/31 03:10:45.1	94.940	0.030	-0.720	0.800
2020/01/31 03:10:45.2	94.930	0.050	-0.720	0.820
2020/01/31 03:10:45.3	94.920	0.060	-0.720	0.850
2020/01/31 03:10:45.4	94.900	0.070	-0.710	0.880
2020/01/31 03:10:45.5	94.890	0.090	-0.690	0.900
2020/01/31 03:10:45.6	94.880	0.090	-0.670	0.930
2020/01/31 03:10:45.7	94.870	0.100	-0.640	0.960
2020/01/31 03:10:45.8	94.860	0.110	-0.610	0.990
2020/01/31 03:10:45.9	94.850	0.110	-0.570	1.020
2020/01/31 03:10:46.0	94.840	0.110	-0.530	1.050
2020/01/31 03:10:46.1	94.830	0.110	-0.490	1.080
2020/01/31 03:10:46.2	94.820	0.110	-0.440	1.110
2020/01/31 03:10:46.3	94.810	0.110	-0.390	1.140
2020/01/31 03:10:46.4	94.800	0.100	-0.340	1.170
2020/01/31 03:10:46.5	94.790	0.090	-0.290	1.200
2020/01/31 03:10:46.6	94.780	0.090	-0.240	1.230
2020/01/31 03:10:46.7	94.780	0.080	-0.190	1.250
2020/01/31 03:10:46.8	94.770	0.070	-0.140	1.270
2020/01/31 03:10:46.9	94.770	0.060	-0.100	1.290
2020/01/31 03:10:47.0	94.760	0.050	-0.050	1.310
2020/01/31 03:10:47.1	94.780	0.040	-0.010	1.330
2020/01/31 03:10:47.2	94.780	0.030	0.030	1.340
2020/01/31 03:10:47.3	94.770	0.010	0.060	1.350
2020/01/31 03:10:47.4	94.770	0.000	0.090	1.350
2020/01/31 03:10:47.5	94.770	-0.010	0.120	1.350
2020/01/31 03:10:47.6	94.770	-0.020	0.140	1.340
2020/01/31 03:10:47.7	94.770	-0.030	0.160	1.340
2020/01/31 03:10:47.8	94.770	-0.040	0.170	1.320
2020/01/31 03:10:47.9	94.780	-0.040	0.170	1.310
2020/01/31 03:10:48.0	94.780	-0.050	0.170	1.290
2020/01/31 03:10:48.1	94.790	-0.050	0.170	1.250
2020/01/31 03:10:48.2	94.800	-0.060	0.160	1.230
2020/01/31 03:10:48.3	94.810	-0.060	0.150	1.200
2020/01/31 03:10:48.4	94.820	-0.060	0.130	1.170
2020/01/31 03:10:48.5	94.830	-0.060	0.110	1.140
2020/01/31 03:10:48.6	94.840	-0.060	0.080	1.120
2020/01/31 03:10:48.7	94.850	-0.050	0.050	1.090
2020/01/31 03:10:48.8	94.860	-0.050	0.020	1.060
2020/01/31 03:10:48.9	94.870	-0.040	-0.010	1.030
2020/01/31 03:10:49.0	94.880	-0.040	-0.040	1.010
2020/01/31 03:10:49.1	94.890	-0.030	-0.070	0.980
2020/01/31 03:10:49.2	94.900	-0.020	-0.110	0.960
2020/01/31 03:10:49.3	94.900	-0.010	-0.140	0.940
2020/01/31 03:10:49.4	94.910	0.000	-0.180	0.930
2020/01/31 03:10:49.5	94.910	0.010	-0.210	0.920
2020/01/31 03:10:49.6	94.910	0.020	-0.240	0.910
2020/01/31 03:10:49.7	94.910	0.030	-0.270	0.900
2020/01/31 03:10:49.8	94.910	0.040	-0.290	0.890
2020/01/31 03:10:49.9	94.900	0.060	-0.320	0.890
2020/01/31 03:10:50.0	94.900	0.070	-0.340	0.890
2020/01/31 03:10:50.1	94.880	0.080	-0.360	0.880
2020/01/31 03:10:50.2	94.870	0.080	-0.370	0.880
2020/01/31 03:10:50.3	94.860	0.090	-0.390	0.880
2020/01/31 03:10:50.4	94.850	0.100	-0.400	0.880
2020/01/31 03:10:50.5	94.840	0.110	-0.410	0.880
2020/01/31 03:10:50.6	94.820	0.120	-0.420	0.880
2020/01/31 03:10:50.7	94.800	0.120	-0.420	0.890
2020/01/31 03:10:50.8	94.780	0.130	-0.420	0.890
2020/01/31 03:10:50.9	94.760	0.130	-0.430	0.890
2020/01/31 03:10:51.0	94.740	0.140	-0.430	0.890
2020/01/31 03:10:51.1	94.710	0.140	-0.430	0.890
2020/01/31 03:10:51.2	94.690	0.150	-0.430	0.890
2020/01/31 03:10:51.3	94.670	0.150	-0.420	0.890
2020/01/31 03:10:51.4	94.650	0.150	-0.420	0.890
2020/01/31 03:10:51.5	94.630	0.150	-0.410	0.900
2020/01/31 03:10:51.6	94.610	0.160	-0.410	0.900
2020/01/31 03:10:51.7	94.590	0.160	-0.400	0.900
2020/01/31 03:10:51.8	94.570	0.160	-0.390	0.890
2020/01/31 03:10:51.9	94.560	0.160	-0.380	0.890
2020/01/31 03:10:52.0	94.540	0.160	-0.370	0.890
2020/01/31 03:10:52.1	94.520	0.150	-0.360	0.880
2020/01/31 03:10:52.2	94.510	0.150	-0.340	0.870
2020/01/31 03:10:52.3	94.500	0.150	-0.330	0.870
2020/01/31 03:10:52.4	94.500	0.140	-0.310	0.860
2020/01/31 03:10:52.5	94.500	0.140	-0.300	0.850
2020/01/31 03:10:52.6	94.500	0.130	-0.280	0.850
2020/01/31 03:10:52.7	94.500	0.130	-0.260	0.840
2020/01/31 03:10:52.8	94.500	0.120	-0.240	0.840
2020/01/31 03:10:52.9	94.500	0.110	-0.220	0.830
2020/01/31 03:10:53.0	94.510	0.100	-0.190	0.830
2020/01/31 03:10:53.1	94.520	0.090	-0.170	0.830
2020/01/31 03:10:53.2	94.530	0.080	-0.150	0.830
2020/01/31 03:10:53.3	94.530	0.060	-0.120	0.830
2020/01/31 03:10:53.4	94.540	0.050	-0.100	0.830
2020/01/31 03:10:53.5	94.550	0.030	-0.070	0.830
2020/01/31 03:10:53.6	94.560	0.020	-0.050	0.830
2020/01/31 03:10:53.7	94.560	0.000	-0.020	0.830
2020/01/31 03:10:53.8	94.570	-0.010	0.000	0.840
2020/01/31 03:10:53.9	94.570	-0.030	0.020	0.840
2020/01/31 03:10:54.0	94.580	-0.050	0.040	0.850
2020/01/31 03:10:54.1	94.580	-0.060	0.060	0.840
2020/01/31 03:10:54.2	94.590	-0.080	0.080	0.850
2020/01/31 03:10:54.3	94.590	-0.090	0.090	0.860
2020/01/31 03:10:54.4	94.590	-0.110	0.090	0.870
2020/01/31 03:10:54.5	94.580	-0.120	0.090	0.880
2020/01/31 03:10:54.6	94.580	-0.130	0.090	0.890
2020/01/31 03:10:54.7	94.580	-0.140	0.080	0.900
2020/01/31 03:10:54.8	94.570	-0.150	0.070	0.910
2020/01/31 03:10:54.9	94.570	-0.150	0.050	0.930
2020/01/31 03:10:55.0	94.560	-0.160	0.030	0.940
2020/01/31 03:10:55.1	94.550	-0.160	-0.000	0.950
2020/01/31 03:10:55.2	94.550	-0.150	-0.030	0.970
2020/01/31 03:10:55.3	94.540	-0.150	-0.070	0.980
2020/01/31 03:10:55.4	94.530	-0.140	-0.110	0.990
2020/01/31 03:10:55.5	94.530	-0.130	-0.150	1.010
2020/01/31 03:10:55.6	94.520	-0.120	-0.200	1.020
2020/01/31 03:10:55.7	94.520	-0.100	-0.240	1.040
2020/01/31 03:10:55.8	94.510	-0.090	-0.290	1.050
2020/01/31 03:10:55.9	94.510	-0.070	-0.340	1.070
2020/01/31 03:10:56.0	94.510	-0.050	-0.380	1.080
2020/01/31 03:10:56.1	94.510	-0.030	-0.430	1.100
2020/01/31 03:10:56.2	94.500	-0.000	-0.470	1.120
2020/01/31 03:10:56.3	94.500	0.020	-0.510	1.140
2020/01/31 03:10:56.4	94.490	0.040	-0.550	1.160
2020/01/31 03:10:56.5	94.490	0.060	-0.580	1.180
2020/01/31 03:10:56.6	94.480	0.080	-0.610	1.200
2020/01/31 03:10:56.7	94.470	0.100	-0.630	1.220
2020/01/31 03:10:56.8	94.460	0.120	-0.640	1.240
2020/01/31 03:10:56.9	94.450	0.140	-0.650	1.260
2020/01/31 03:10:57.0	94.440	0.150	-0.660	1.280
2020/01/31 03:10:57.1	94.430	0.160	-0.660	1.300
2020/01/31 03:10:57.2	94.420	0.170	-0.650	1.320
2020/01/31 03:10:57.3	94.400	0.180	-0.640	1.330
2020/01/31 03:10:57.4	94.390	0.190	-0.620	1.340
2020/01/31 03:10:57.5	94.370	0.190	-0.600	1.350
2020/01/31 03:10:57.6	94.350	0.190	-0.570	1.360
2020/01/31 03:10:57.7	94.340	0.180	-0.540	1.370
2020/01/31 03:10:57.8	94.320	0.180	-0.500	1.370
2020/01/31 03:10:57.9	94.300	0.170	-0.470	1.370
2020/01/31 03:10:58.0	94.280	0.160	-0.420	1.370
2020/01/31 03:10:58.1	94.260	0.150	-0.390	1.350
2020/01/31 03:10:58.2	94.240	0.130	-0.340	1.340
2020/01/31 03:10:58.3	94.220	0.120	-0.300	1.330
2020/01/31 03:10:58.4	94.210	0.100	-0.260	1.320
2020/01/31 03:10:58.5	94.190	0.090	-0.210	1.300
2020/01/31 03:10:58.6	94.170	0.070	-0.170	1.280
2020/01/31 03:10:58.7	94.160	0.050	-0.130	1.260
2020/01/31 03:10:58.8	94.140	0.030	-0.090	1.240
2020/01/31 03:10:58.9	94.130	0.020	-0.050	1.220
2020/01/31 03:10:59.0	94.110	-0.000	-0.020	1.190
2020/01/31 03:10:59.1	94.110	-0.020	0.010	1.170
2020/01/31 03:10:59.2	94.100	-0.030	0.040	1.140
2020/01/31 03:10:59.3	94.090	-0.040	0.060	1.110
2020/01/31 03:10:59.4	94.090	-0.060	0.080	1.080
2020/01/31 03:10:59.5	94.090	-0.060	0.090	1.050
2020/01/31 03:10:59.6	94.100	-0.070	0.100	1.010
2020/01/31 03:10:59.7	94.100	-0.080	0.100	0.980
2020/01/31 03:10:59.8	94.110	-0.080	0.100	0.940
2020/01/31 03:10:59.9	94.130	-0.080	0.100	0.900
2020/01/31 03:11:00.0	94.140	-0.080	0.080	0.860
2020/01/31 03:11:00.1	94.150	-0.070	0.060	0.810
2020/01/31 03:11:00.2	94.170	-0.070	0.040	0.770
2020/01/31 03:11:00.3	94.190	-0.060	0.020	0.740
2020/01/31 03:11:00.4	94.220	-0.050	-0.010	0.700
2020/01/31 03:11:00.5	94.240	-0.040	-0.040	0.660
2020/01/31 03:11:00.6	94.270	-0.030	-0.070	0.620
2020/01/31 03:11:00.7	94.300	-0.020	-0.100	0.590
2020/01/31 03:11:00.8	94.320	-0.010	-0.140	0.550
2020/01/31 03:11:00.9	94.350	0.000	-0.170	0.520
2020/01/31 03:11:01.0	94.380	0.010	-0.200	0.490
2020/01/31 03:11:01.1	94.400	0.020	-0.230	0.460
2020/01/31 03:11:01.2	94.420	0.030	-0.260	0.440
2020/01/31 03:11:01.3	94.440	0.040	-0.280	0.420
2020/01/31 03:11:01.4	94.460	0.050	-0.300	0.400
2020/01/31 03:11:01.5	94.480	0.050	-0.320	0.380
2020/01/31 03:11:01.6	94.490	0.050	-0.330	0.370
2020/01/31 03:11:01.7	94.500	0.050	-0.340	0.360
2020/01/31 03:11:01.8	94.510	0.050	-0.340	0.360
2020/01/31 03:11:01.9	94.510	0.040	-0.340	0.360
2020/01/31 03:11:02.0	94.510	0.030	-0.330	0.360
2020/01/31 03:11:02.1	94.490	0.020	-0.320	0.370
2020/01/31 03:11:02.2	94.480	0.010	-0.300	0.380
2020/01/31 03:11:02.3	94.470	-0.010	-0.280	0.390
2020/01/31 03:11:02.4	94.450	-0.030	-0.260	0.410
2020/01/31 03:11:02.5	94.440	-0.050	-0.230	0.430
2020/01/31 03:11:02.6	94.420	-0.070	-0.190	0.460
2020/01/31 03:11:02.7	94.390	-0.090	-0.160	0.480
2020/01/31 03:11:02.8	94.370	-0.120	-0.120	0.510
2020/01/31 03:11:02.9	94.340	-0.140	-0.080	0.540
2020/01/31 03:11:03.0	94.310	-0.170	-0.040	0.570
2020/01/31 03:11:03.1	94.290	-0.190	0.000	0.600
2020/01/31 03:11:03.2	94.260	-0.220	0.040	0.640
2020/01/31 03:11:03.3	94.220	-0.250	0.080	0.670
2020/01/31 03:11:03.4	94.190	-0.270	0.120	0.710
2020/01/31 03:11:03.5	94.150	-0.300	0.160	0.750
2020/01/31 03:11:03.6	94.110	-0.320	0.190	0.780
2020/01/31 03:11:03.7	94.080	-0.350	0.220	0.820
2020/01/31 03:11:03.8	94.040	-0.360	0.240	0.850
2020/01/31 03:11:03.9	94.000	-0.380	0.260	0.890
2020/01/31 03:11:04.0	93.960	-0.400	0.270	0.920
2020/01/31 03:11:04.1	93.920	-0.410	0.280	0.950
2020/01/31 03:11:04.2	93.890	-0.410	0.270	0.980
2020/01/31 03:11:04.3	93.850	-0.420	0.270	1.000
2020/01/31 03:11:04.4	93.820	-0.420	0.250	1.020
2020/01/31 03:11:04.5	93.790	-0.420	0.230	1.040
2020/01/31 03:11:04.6	93.760	-0.410	0.200	1.060
2020/01/31 03:11:04.7	93.730	-0.400	0.160	1.070
2020/01/31 03:11:04.8	93.710	-0.380	0.120	1.070
2020/01/31 03:11:04.9	93.680	-0.360	0.070	1.080
2020/01/31 03:11:05.0	93.660	-0.340	0.010	1.080
2020/01/31 03:11:05.1	93.650	-0.320	-0.040	1.060
2020/01/31 03:11:05.2	93.640	-0.290	-0.100	1.050
2020/01/31 03:11:05.3	93.630	-0.260	-0.170	1.040
2020/01/31 03:11:05.4	93.620	-0.230	-0.240	1.020
2020/01/31 03:11:05.5	93.610	-0.190	-0.300	1.000
2020/01/31 03:11:05.6	93.610	-0.150	-0.370	0.970
2020/01/31 03:11:05.7	93.610	-0.120	-0.440	0.940
2020/01/31 03:11:05.8	93.620	-0.080	-0.510	0.900
2020/01/31 03:11:05.9	93.620	-0.040	-0.570	0.870
2020/01/31 03:11:06.0	93.630	0.000	-0.640	0.830
2020/01/31 03:11:06.1	93.640	0.040	-0.700	0.780
2020/01/31 03:11:06.2	93.660	0.080	-0.750	0.740
2020/01/31 03:11:06.3	93.680	0.120	-0.810	0.700
2020/01/31 03:11:06.4	93.700	0.160	-0.850	0.650
2020/01/31 03:11:06.5	93.730	0.200	-0.890	0.600
2020/01/31 03:11:06.6	93.750	0.230	-0.930	0.560
2020/01/31 03:11:06.7	93.780	0.270	-0.960	0.510
2020/01/31 03:11:06.8	93.810	0.300	-0.980	0.470
2020/01/31 03:11:06.9	93.840	0.330	-0.990	0.430
2020/01/31 03:11:07.0	93.870	0.360	-1.000	0.390
2020/01/31 03:11:07.1	93.900	0.390	-1.010	0.350
2020/01/31 03:11:07.2	93.930	0.420	-1.000	0.320
2020/01/31 03:11:07.3	93.960	0.440	-0.990	0.300
2020/01/31 03:11:07.4	93.990	0.460	-0.970	0.280
2020/01/31 03:11:07.5	94.010	0.470	-0.950	0.260
2020/01/31 03:11:07.6	94.040	0.490	-0.920	0.260
2020/01/31 03:11:07.7	94.060	0.490	-0.880	0.260
2020/01/31 03:11:07.8	94.080	0.500	-0.840	0.260
2020/01/31 03:11:07.9	94.100	0.500	-0.790	0.280
2020/01/31 03:11:08.0	94.110	0.500	-0.740	0.290
2020/01/31 03:11:08.1	94.120	0.500	-0.680	0.320
2020/01/31 03:11:08.2	94.130	0.490	-0.610	0.350
2020/01/31 03:11:08.3	94.140	0.480	-0.550	0.380
2020/01/31 03:11:08.4	94.140	0.460	-0.480	0.420
2020/01/31 03:11:08.5	94.140	0.450	-0.400	0.460
2020/01/31 03:11:08.6	94.140	0.420	-0.320	0.500
2020/01/31 03:11:08.7	94.130	0.400	-0.250	0.540
2020/01/31 03:11:08.8	94.120	0.370	-0.170	0.590
2020/01/31 03:11:08.9	94.110	0.340	-0.090	0.640
2020/01/31 03:11:09.0	94.090	0.310	-0.010	0.690
2020/01/31 03:11:09.1	94.090	0.270	0.070	0.740
2020/01/31 03:11:09.2	94.070	0.230	0.140	0.790
2020/01/31 03:11:09.3	94.050	0.190	0.210	0.830
2020/01/31 03:11:09.4	94.030	0.150	0.280	0.880
2020/01/31 03:11:09.5	94.010	0.110	0.340	0.930
2020/01/31 03:11:09.6	93.980	0.070	0.400	0.970
2020/01/31 03:11:09.7	93.960	0.030	0.450	1.010
2020/01/31 03:11:09.8	93.940	-0.020	0.490	1.050
2020/01/31 03:11:09.9	93.910	-0.060	0.530	1.090
2020/01/31 03:11:10.0	93.890	-0.100	0.560	1.130
2020/01/31 03:11:10.1	93.880	-0.140	0.580	1.160
2020/01/31 03:11:10.2	93.850	-0.180	0.600	1.190
2020/01/31 03:11:10.3	93.830	-0.210	0.600	1.210
2020/01/31 03:11:10.4	93.810	-0.250	0.600	1.240
2020/01/31 03:11:10.5	93.790	-0.280	0.590	1.260
2020/01/31 03:11:10.6	93.770	-0.310	0.570	1.280
2020/01/31 03:11:10.7	93.750	-0.330	0.550	1.300
2020/01/31 03:11:10.8	93.730	-0.360	0.520	1.320
2020/01/31 03:11:10.9	93.720	-0.370	0.480	1.330
2020/01/31 03:11:11.0	93.700	-0.390	0.430	1.340
2020/01/31 03:11:11.1	93.690	-0.400	0.380	1.350
2020/01/31 03:11:11.2	93.670	-0.410	0.320	1.350
2020/01/31 03:11:11.3	93.660	-0.410	0.260	1.360
2020/01/31 03:11:11.4	93.650	-0.410	0.190	1.360
2020/01/31 03:11:11.5	93.630	-0.400	0.120	1.350
2020/01/31 03:11:11.6	93.620	-0.390	0.050	1.350
2020/01/31 03:11:11.7	93.610	-0.380	-0.030	1.340
2020/01/31 03:11:11.8	93.600	-0.360	-0.100	1.330
2020/01/31 03:11:11.9	93.600	-0.340	-0.180	1.310
2020/01/31 03:11:12.0	93.590	-0.320	-0.260	1.290
2020/01/31 03:11:12.1	93.590	-0.290	-0.340	1.270
2020/01/31 03:11:12.2	93.580	-0.260	-0.410	1.240
2020/01/31 03:11:12.3	93.580	-0.240	-0.490	1.210
2020/01/31 03:11:12.4	93.580	-0.200	-0.550	1.180
2020/01/31 03:11:12.5	93.570	-0.170	-0.620	1.150
2020/01/31 03:11:12.6	93.570	-0.140	-0.680	1.120
2020/01/31 03:11:12.7	93.570	-0.110	-0.730	1.080
2020/01/31 03:11:12.8	93.570	-0.080	-0.780	1.050
2020/01/31 03:11:12.9	93.580	-0.050	-0.820	1.010
2020/01/31 03:11:13.0	93.580	-0.020	-0.850	0.980
2020/01/31 03:11:13.1	93.590	0.010	-0.880	0.940
2020/01/31 03:11:13.2	93.590	0.040	-0.900	0.910
2020/01/31 03:11:13.3	93.590	0.060	-0.910	0.880
2020/01/31 03:11:13.4	93.600	0.080	-0.910	0.860
2020/01/31 03:11:13.5	93.600	0.100	-0.910	0.840
2020/01/31 03:11:13.6	93.610	0.120	-0.910	0.820
2020/01/31 03:11:13.7	93.610	0.140	-0.890	0.810
2020/01/31 03:11:13.8	93.610	0.150	-0.870	0.800
2020/01/31 03:11:13.9	93.620	0.160	-0.850	0.790
2020/01/31 03:11:14.0	93.620	0.160	-0.820	0.790
2020/01/31 03:11:14.1	93.610	0.170	-0.780	0.790
2020/01/31 03:11:14.2	93.610	0.170	-0.740	0.790
2020/01/31 03:11:14.3	93.620	0.170	-0.700	0.800
2020/01/31 03:11:14.4	93.620	0.170	-0.650	0.810
2020/01/31 03:11:14.5	93.620	0.160	-0.600	0.820
2020/01/31 03:11:14.6	93.620	0.150	-0.540	0.830
2020/01/31 03:11:14.7	93.620	0.140	-0.490	0.840
2020/01/31 03:11:14.8	93.620	0.130	-0.430	0.850
2020/01/31 03:11:14.9	93.620	0.120	-0.370	0.870
2020/01/31 03:11:15.0	93.620	0.110	-0.310	0.880
2020/01/31 03:11:15.1	93.630	0.090	-0.260	0.890
2020/01/31 03:11:15.2	93.630	0.080	-0.200	0.900
2020/01/31 03:11:15.3	93.630	0.060	-0.140	0.920
2020/01/31 03:11:15.4	93.630	0.040	-0.090	0.930
2020/01/31 03:11:15.5	93.640	0.020	-0.030	0.940
2020/01/31 03:11:15.6	93.640	0.000	0.020	0.950
2020/01/31 03:11:15.7	93.640	-0.010	0.070	0.960
2020/01/31 03:11:15.8	93.650	-0.030	0.120	0.970
2020/01/31 03:11:15.9	93.660	-0.050	0.170	0.970
2020/01/31 03:11:16.0	93.660	-0.070	0.210	0.980
2020/01/31 03:11:16.1	93.660	-0.080	0.250	0.980
2020/01/31 03:11:16.2	93.670	-0.100	0.290	0.980
2020/01/31 03:11:16.3	93.680	-0.120	0.320	0.980
2020/01/31 03:11:16.4	93.690	-0.130	0.340	0.990
2020/01/31 03:11:16.5	93.690	-0.150	0.370	0.990
2020/01/31 03:11:16.6	93.700	-0.160	0.380	0.990
2020/01/31 03:11:16.7	93.710	-0.170	0.400	0.990
2020/01/31 03:11:16.8	93.720	-0.180	0.410	0.990
2020/01/31 03:11:16.9	93.720	-0.190	0.410	0.990
2020/01/31 03:11:17.0	93.730	-0.200	0.410	0.980
2020/01/31 03:11:17.1	93.750	-0.210	0.400	0.980
2020/01/31 03:11:17.2	93.760	-0.210	0.380	0.970
2020/01/31 03:11:17.3	93.760	-0.210	0.370	0.970
2020/01/31 03:11:17.4	93.770	-0.210	0.340	0.960
2020/01/31 03:11:17.5	93.780	-0.210	0.310	0.950
2020/01/31 03:11:17.6	93.780	-0.210	0.280	0.940
2020/01/31 03:11:17.7	93.790	-0.200	0.240	0.920
2020/01/31 03:11:17.8	93.790	-0.190	0.190	0.910
2020/01/31 03:11:17.9	93.800	-0.180	0.140	0.890
2020/01/31 03:11:18.0	93.800	-0.170	0.090	0.880
2020/01/31 03:11:18.1	93.810	-0.160	0.030	0.860
2020/01/31 03:11:18.2	93.810	-0.140	-0.030	0.840
2020/01/31 03:11:18.3	93.810	-0.120	-0.100	0.830
2020/01/31 03:11:18.4	93.810	-0.100	-0.160	0.810
2020/01/31 03:11:18.5	93.810	-0.070	-0.230	0.800
2020/01/31 03:11:18.6	93.810	-0.050	-0.300	0.790
2020/01/31 03:11:18.7	93.810	-0.020	-0.360	0.780
2020/01/31 03:11:18.8	93.810	0.010	-0.430	0.770
2020/01/31 03:11:18.9	93.800	0.030	-0.490	0.770
2020/01/31 03:11:19.0	93.800	0.060	-0.550	0.760
2020/01/31 03:11:19.1	93.770	0.090	-0.600	0.760
2020/01/31 03:11:19.2	93.760	0.110	-0.650	0.770
2020/01/31 03:11:19.3	93.750	0.130	-0.700	0.770
2020/01/31 03:11:19.4	93.740	0.160	-0.730	0.780
2020/01/31 03:11:19.5	93.730	0.180	-0.760	0.790
2020/01/31 03:11:19.6	93.720	0.190	-0.780	0.800
2020/01/31 03:11:19.7	93.710	0.210	-0.790	0.810
2020/01/31 03:11:19.8	93.700	0.220	-0.800	0.820
2020/01/31 03:11:19.9	93.690	0.230	-0.790	0.830
2020/01/31 03:11:20.0	93.690	0.230	-0.780	0.840
2020/01/31 03:11:20.1	93.680	0.230	-0.760	0.850
2020/01/31 03:11:20.2	93.680	0.230	-0.740	0.860
2020/01/31 03:11:20.3	93.680	0.220	-0.700	0.860
2020/01/31 03:11:20.4	93.670	0.210	-0.670	0.870
2020/01/31 03:11:20.5	93.670	0.200	-0.630	0.880
2020/01/31 03:11:20.6	93.670	0.180	-0.580	0.880
2020/01/31 03:11:20.7	93.680	0.160	-0.530	0.890
2020/01/31 03:11:20.8	93.680	0.140	-0.480	0.890
2020/01/31 03:11:20.9	93.690	0.120	-0.430	0.890
2020/01/31 03:11:21.0	93.690	0.090	-0.370	0.890
2020/01/31 03:11:21.1	93.710	0.070	-0.320	0.890
2020/01/31 03:11:21.2	93.720	0.040	-0.260	0.890
2020/01/31 03:11:21.3	93.730	0.010	-0.210	0.880
2020/01/31 03:11:21.4	93.750	-0.020	-0.160	0.880
2020/01/31 03:11:21.5	93.760	-0.050	-0.110	0.880
2020/01/31 03:11:21.6	93.770	-0.070	-0.070	0.870
2020/01/31 03:11:21.7	93.780	-0.100	-0.020	0.870
2020/01/31 03:11:21.8	93.800	-0.120	0.010	0.870
2020/01/31 03:11:21.9	93.810	-0.150	0.050	0.870
2020/01/31 03:11:22.0	93.820	-0.170	0.080	0.870
2020/01/31 03:11:22.1	93.820	-0.190	0.100	0.860
2020/01/31 03:11:22.2	93.830	-0.200	0.120	0.860
2020/01/31 03:11:22.3	93.840	-0.220	0.130	0.870
2020/01/31 03:11:22.4	93.850	-0.230	0.140	0.870
2020/01/31 03:11:22.5	93.850	-0.240	0.140	0.870
2020/01/31 03:11:22.6	93.850	-0.240	0.140	0.870
2020/01/31 03:11:22.7	93.860	-0.240	0.130	0.880
2020/01/31 03:11:22.8	93.860	-0.240	0.120	0.880
2020/01/31 03:11:22.9	93.850	-0.240	0.100	0.880
2020/01/31 03:11:23.0	93.850	-0.230	0.080	0.880
2020/01/31 03:11:23.1	93.850	-0.220	0.060	0.880
2020/01/31 03:11:23.2	93.850	-0.210	0.030	0.870
2020/01/31 03:11:23.3	93.840	-0.200	-0.010	0.860
2020/01/31 03:11:23.4	93.840	-0.180	-0.040	0.860
2020/01/31 03:11:23.5	93.830	-0.160	-0.080	0.850
2020/01/31 03:11:23.6	93.820	-0.150	-0.120	0.840
2020/01/31 03:11:23.7	93.820	-0.130	-0.160	0.830
2020/01/31 03:11:23.8	93.810	-0.110	-0.210	0.820
2020/01/31 03:11:23.9	93.800	-0.090	-0.250	0.810
2020/01/31 03:11:24.0	93.800	-0.070	-0.290	0.800
2020/01/31 03:11:24.1	93.790	-0.050	-0.330	0.780
2020/01/31 03:11:24.2	93.780	-0.030	-0.370	0.780
2020/01/31 03:11:24.3	93.770	-0.010	-0.400	0.770
2020/01/31 03:11:24.4	93.760	0.010	-0.430	0.760
2020/01/31 03:11:24.5	93.750	0.020	-0.460	0.760
2020/01/31 03:11:24.6	93.740	0.030	-0.480	0.750
2020/01/31 03:11:24.7	93.740	0.040	-0.500	0.740
2020/01/31 03:11:24.8	93.730	0.050	-0.510	0.740
2020/01/31 03:11:24.9	93.730	0.050	-0.510	0.740
2020/01/31 03:11:25.0	93.720	0.060	-0.510	0.730
2020/01/31 03:11:25.1	93.720	0.060	-0.500	0.730
2020/01/31 03:11:25.2	93.720	0.050	-0.490	0.730
2020/01/31 03:11:25.3	93.720	0.050	-0.470	0.730
2020/01/31 03:11:25.4	93.720	0.040	-0.440	0.720
2020/01/31 03:11:25.5	93.730	0.030	-0.410	0.720
2020/01/31 03:11:25.6	93.730	0.010	-0.380	0.720
2020/01/31 03:11:25.7	93.740	-0.000	-0.340	0.720
2020/01/31 03:11:25.8	93.740	-0.020	-0.300	0.720
2020/01/31 03:11:25.9	93.750	-0.030	-0.260	0.710
2020/01/31 03:11:26.0	93.760	-0.050	-0.210	0.710
2020/01/31 03:11:26.1	93.760	-0.070	-0.160	0.700
2020/01/31 03:11:26.2	93.780	-0.090	-0.120	0.690
2020/01/31 03:11:26.3	93.790	-0.110	-0.070	0.680
2020/01/31 03:11:26.4	93.800	-0.130	-0.030	0.670
2020/01/31 03:11:26.5	93.810	-0.140	0.010	0.660
2020/01/31 03:11:26.6	93.820	-0.160	0.040	0.650
2020/01/31 03:11:26.7	93.830	-0.170	0.070	0.640
2020/01/31 03:11:26.8	93.840	-0.180	0.090	0.620
2020/01/31 03:11:26.9	93.850	-0.190	0.110	0.610
2020/01/31 03:11:27.0	93.860	-0.190	0.120	0.590
2020/01/31 03:11:27.1	93.860	-0.190	0.130	0.570
2020/01/31 03:11:27.2	93.870	-0.190	0.120	0.550
2020/01/31 03:11:27.3	93.880	-0.180	0.110	0.530
2020/01/31 03:11:27.4	93.890	-0.170	0.100	0.510
2020/01/31 03:11:27.5	93.900	-0.160	0.070	0.500
2020/01/31 03:11:27.6	93.910	-0.140	0.040	0.480
2020/01/31 03:11:27.7	93.910	-0.110	0.000	0.460
2020/01/31 03:11:27.8	93.920	-0.090	-0.040	0.450
2020/01/31 03:11:27.9	93.920	-0.060	-0.080	0.430
2020/01/31 03:11:28.0	93.920	-0.030	-0.130	0.420
2020/01/31 03:11:28.1	93.930	0.010	-0.190	0.410
2020/01/31 03:11:28.2	93.930	0.040	-0.240	0.400
2020/01/31 03:11:28.3	93.930	0.080	-0.300	0.390
2020/01/31 03:11:28.4	93.920	0.120	-0.350	0.390
2020/01/31 03:11:28.5	93.920	0.160	-0.410	0.380
2020/01/31 03:11:28.6	93.920	0.210	-0.460	0.380
2020/01/31 03:11:28.7	93.910	0.250	-0.520	0.380
2020/01/31 03:11:28.8	93.910	0.290	-0.560	0.380
2020/01/31 03:11:28.9	93.900	0.330	-0.610	0.380
2020/01/31 03:11:29.0	93.900	0.360	-0.650	0.380
2020/01/31 03:11:29.1	93.880	0.400	-0.690	0.380
2020/01/31 03:11:29.2	93.880	0.430	-0.720	0.380
2020/01/31 03:11:29.3	93.870	0.460	-0.740	0.380
2020/01/31 03:11:29.4	93.870	0.490	-0.760	0.390
2020/01/31 03:11:29.5	93.860	0.510	-0.760	0.390
2020/01/31 03:11:29.6	93.860	0.530	-0.770	0.390
2020/01/31 03:11:29.7	93.860	0.550	-0.760	0.400
2020/01/31 03:11:29.8	93.850	0.560	-0.750	0.400
2020/01/31 03:11:29.9	93.850	0.560	-0.730	0.410
2020/01/31 03:11:30.0	93.860	0.570	-0.700	0.410
2020/01/31 03:11:30.1	93.850	0.560	-0.660	0.410
2020/01/31 03:11:30.2	93.860	0.560	-0.620	0.420
2020/01/31 03:11:30.3	93.860	0.550	-0.570	0.420
2020/01/31 03:11:30.4	93.870	0.530	-0.520	0.430
2020/01/31 03:11:30.5	93.880	0.510	-0.460	0.440
2020/01/31 03:11:30.6	93.880	0.480	-0.400	0.440
2020/01/31 03:11:30.7	93.890	0.460	-0.330	0.450
2020/01/31 03:11:30.8	93.900	0.420	-0.260	0.460
2020/01/31 03:11:30.9	93.910	0.390	-0.200	0.470
2020/01/31 03:11:31.0	93.920	0.350	-0.130	0.480
2020/01/31 03:11:31.1	93.950	0.310	-0.060	0.490
2020/01/31 03:11:31.2	93.970	0.270	0.010	0.500
2020/01/31 03:11:31.3	93.980	0.220	0.070	0.510
2020/01/31 03:11:31.4	93.990	0.180	0.130	0.530
2020/01/31 03:11:31.5	94.010	0.130	0.190	0.540
2020/01/31 03:11:31.6	94.020	0.090	0.240	0.560
2020/01/31 03:11:31.7	94.030	0.040	0.280	0.580
2020/01/31 03:11:31.8	94.040	-0.010	0.320	0.600
2020/01/31 03:11:31.9	94.050	-0.050	0.360	0.620
2020/01/31 03:11:32.0	94.060	-0.100	0.380	0.640
2020/01/31 03:11:32.1	94.080	-0.150	0.410	0.660
2020/01/31 03:11:32.2	94.090	-0.190	0.420	0.680
2020/01/31 03:11:32.3	94.100	-0.230	0.430	0.700
2020/01/31 03:11:32.4	94.110	-0.270	0.430	0.720
2020/01/31 03:11:32.5	94.110	-0.310	0.420	0.730
2020/01/31 03:11:32.6	94.120	-0.350	0.410	0.750
2020/01/31 03:11:32.7	94.120	-0.380	0.400	0.770
2020/01/31 03:11:32.8	94.130	-0.420	0.370	0.790
2020/01/31 03:11:32.9	94.130	-0.450	0.340	0.800
2020/01/31 03:11:33.0	94.130	-0.480	0.310	0.820
2020/01/31 03:11:33.1	94.140	-0.500	0.270	0.830
2020/01/31 03:11:33.2	94.140	-0.520	0.230	0.850
2020/01/31 03:11:33.3	94.140	-0.540	0.190	0.870
2020/01/31 03:11:33.4	94.130	-0.560	0.140	0.890
2020/01/31 03:11:33.5	94.130	-0.570	0.090	0.910
2020/01/31 03:11:33.6	94.120	-0.590	0.040	0.930
2020/01/31 03:11:33.7	94.120	-0.590	-0.010	0.960
2020/01/31 03:11:33.8	94.110	-0.600	-0.060	0.980
2020/01/31 03:11:33.9	94.100	-0.600	-0.120	1.010
2020/01/31 03:11:34.0	94.090	-0.600	-0.170	1.040
2020/01/31 03:11:34.1	94.080	-0.590	-0.220	1.080
2020/01/31 03:11:34.2	94.070	-0.590	-0.270	1.110
2020/01/31 03:11:34.3	94.050	-0.580	-0.310	1.150
2020/01/31 03:11:34.4	94.040	-0.560	-0.360	1.190
2020/01/31 03:11:34.5	94.020	-0.550	-0.410	1.230
2020/01/31 03:11:34.6	94.000	-0.530	-0.450	1.270
2020/01/31 03:11:34.7	93.990	-0.510	-0.490	1.310
2020/01/31 03:11:34.8	93.970	-0.490	-0.520	1.340
2020/01/31 03:11:34.9	93.950	-0.470	-0.550	1.380
2020/01/31 03:11:35.0	93.940	-0.450	-0.580	1.410
2020/01/31 03:11:35.1	93.920	-0.420	-0.600	1.440
2020/01/31 03:11:35.2	93.910	-0.400	-0.620	1.470
2020/01/31 03:11:35.3	93.890	-0.370	-0.640	1.490
2020/01/31 03:11:35.4	93.880	-0.350	-0.650	1.510
2020/01/31 03:11:35.5	93.870	-0.320	-0.660	1.520
2020/01/31 03:11:35.6	93.860	-0.290	-0.660	1.530
2020/01/31 03:11:35.7	93.850	-0.270	-0.660	1.540
2020/01/31 03:11:35.8	93.840	-0.240	-0.650	1.530
2020/01/31 03:11:35.9	93.830	-0.220	-0.640	1.530
2020/01/31 03:11:36.0	93.820	-0.190	-0.630	1.510
2020/01/31 03:11:36.1	93.820	-0.170	-0.620	1.490
2020/01/31 03:11:36.2	93.820	-0.140	-0.600	1.470
2020/01/31 03:11:36.3	93.810	-0.120	-0.580	1.440
2020/01/31 03:11:36.4	93.810	-0.100	-0.550	1.400
2020/01/31 03:11:36.5	93.810	-0.080	-0.530	1.360
2020/01/31 03:11:36.6	93.800	-0.060	-0.500	1.320
2020/01/31 03:11:36.7	93.800	-0.040	-0.470	1.270
2020/01/31 03:11:36.8	93.800	-0.020	-0.440	1.230
2020/01/31 03:11:36.9	93.800	-0.000	-0.410	1.180
2020/01/31 03:11:37.0	93.800	0.010	-0.380	1.130
2020/01/31 03:11:37.1	93.800	0.030	-0.350	1.070
2020/01/31 03:11:37.2	93.810	0.040	-0.320	1.020
2020/01/31 03:11:37.3	93.810	0.060	-0.290	0.980
2020/01/31 03:11:37.4	93.810	0.070	-0.260	0.930
2020/01/31 03:11:37.5	93.810	0.080	-0.230	0.880
2020/01/31 03:11:37.6	93.810	0.100	-0.200	0.840
2020/01/31 03:11:37.7	93.810	0.110	-0.170	0.790
2020/01/31 03:11:37.8	93.820	0.120	-0.150	0.750
2020/01/31 03:11:37.9	93.820	0.140	-0.130	0.710
2020/01/31 03:11:38.0	93.820	0.150	-0.100	0.670
2020/01/31 03:11:38.1	93.830	0.160	-0.090	0.640
2020/01/31 03:11:38.2	93.840	0.180	-0.070	0.600
2020/01/31 03:11:38.3	93.840	0.190	-0.060	0.570
2020/01/31 03:11:38.4	93.850	0.210	-0.050	0.540
2020/01/31 03:11:38.5	93.860	0.220	-0.050	0.510
2020/01/31 03:11:38.6	93.870	0.240	-0.050	0.480
2020/01/31 03:11:38.7	93.880	0.250	-0.050	0.450
2020/01/31 03:11:38.8	93.890	0.270	-0.060	0.420
2020/01/31 03:11:38.9	93.900	0.290	-0.070	0.390
2020/01/31 03:11:39.0	93.910	0.310	-0.080	0.370
2020/01/31 03:11:39.1	93.910	0.330	-0.100	0.340
2020/01/31 03:11:39.2	93.920	0.340	-0.120	0.320
2020/01/31 03:11:39.3	93.930	0.360	-0.140	0.300
2020/01/31 03:11:39.4	93.940	0.380	-0.160	0.290
2020/01/31 03:11:39.5	93.940	0.400	-0.190	0.270
2020/01/31 03:11:39.6	93.950	0.420	-0.210	0.260
2020/01/31 03:11:39.7	93.950	0.430	-0.240	0.260
2020/01/31 03:11:39.8	93.960	0.450	-0.260	0.250
2020/01/31 03:11:39.9	93.960	0.460	-0.290	0.250
2020/01/31 03:11:40.0	93.950	0.480	-0.310	0.260
2020/01/31 03:11:40.1	93.930	0.490	-0.330	0.260
2020/01/31 03:11:40.2	93.920	0.500	-0.350	0.270
2020/01/31 03:11:40.3	93.920	0.500	-0.370	0.280
2020/01/31 03:11:40.4	93.910	0.500	-0.380	0.300
2020/01/31 03:11:40.5	93.900	0.500	-0.390	0.320
2020/01/31 03:11:40.6	93.890	0.500	-0.400	0.340
2020/01/31 03:11:40.7	93.870	0.490	-0.400	0.360
2020/01/31 03:11:40.8	93.860	0.480	-0.400	0.390
2020/01/31 03:11:40.9	93.850	0.470	-0.390	0.420
2020/01/31 03:11:41.0	93.840	0.450	-0.380	0.440
2020/01/31 03:11:41.1	93.820	0.430	-0.360	0.470
2020/01/31 03:11:41.2	93.810	0.410	-0.340	0.500
2020/01/31 03:11:41.3	93.800	0.380	-0.320	0.540
2020/01/31 03:11:41.4	93.780	0.350	-0.290	0.570
2020/01/31 03:11:41.5	93.780	0.320	-0.250	0.600
2020/01/31 03:11:41.6	93.770	0.280	-0.220	0.640
2020/01/31 03:11:41.7	93.760	0.240	-0.180	0.670
2020/01/31 03:11:41.8	93.750	0.200	-0.140	0.710
2020/01/31 03:11:41.9	93.750	0.160	-0.090	0.740
2020/01/31 03:11:42.0	93.750	0.120	-0.050	0.780
2020/01/31 03:11:42.1	93.750	0.070	-0.010	0.810
2020/01/31 03:11:42.2	93.750	0.030	0.030	0.840
2020/01/31 03:11:42.3	93.750	-0.010	0.070	0.870
2020/01/31 03:11:42.4	93.750	-0.060	0.110	0.910
2020/01/31 03:11:42.5	93.760	-0.100	0.150	0.940
2020/01/31 03:11:42.6	93.760	-0.140	0.180	0.970
2020/01/31 03:11:42.7	93.770	-0.180	0.200	1.000
2020/01/31 03:11:42.8	93.780	-0.210	0.220	1.030
2020/01/31 03:11:42.9	93.790	-0.240	0.240	1.060
2020/01/31 03:11:43.0	93.800	-0.270	0.250	1.080
2020/01/31 03:11:43.1	93.820	-0.300	0.250	1.110
2020/01/31 03:11:43.2	93.830	-0.320	0.240	1.130
2020/01/31 03:11:43.3	93.840	-0.330	0.230	1.150
2020/01/31 03:11:43.4	93.860	-0.350	0.210	1.170
2020/01/31 03:11:43.5	93.870	-0.350	0.180	1.180
2020/01/31 03:11:43.6	93.890	-0.360	0.150	1.190
2020/01/31 03:11:43.7	93.900	-0.350	0.110	1.200
2020/01/31 03:11:43.8	93.920	-0.350	0.070	1.210
2020/01/31 03:11:43.9	93.930	-0.340	0.020	1.210
2020/01/31 03:11:44.0	93.950	-0.320	-0.040	1.220
2020/01/31 03:11:44.1	93.960	-0.300	-0.100	1.210
2020/01/31 03:11:44.2	93.970	-0.280	-0.170	1.210
2020/01/31 03:11:44.3	93.990	-0.250	-0.230	1.210
2020/01/31 03:11:44.4	94.010	-0.220	-0.300	1.200
2020/01/31 03:11:44.5	94.030	-0.190	-0.370	1.200
2020/01/31 03:11:44.6	94.040	-0.160	-0.440	1.190
2020/01/31 03:11:44.7	94.060	-0.120	-0.500	1.190
2020/01/31 03:11:44.8	94.070	-0.080	-0.570	1.180
2020/01/31 03:11:44.9	94.090	-0.040	-0.630	1.180
2020/01/31 03:11:45.0	94.100	-0.000	-0.690	1.170
2020/01/31 03:11:45.1	94.120	0.040	-0.750	1.170
2020/01/31 03:11:45.2	94.130	0.080	-0.800	1.160
2020/01/31 03:11:45.3	94.140	0.120	-0.840	1.160
2020/01/31 03:11:45.4	94.150	0.160	-0.880	1.160
2020/01/31 03:11:45.5	94.160	0.190	-0.910	1.170
2020/01/31 03:11:45.6	94.160	0.230	-0.930	1.170
2020/01/31 03:11:45.7	94.170	0.260	-0.950	1.170
2020/01/31 03:11:45.8	94.170	0.290	-0.950	1.180
2020/01/31 03:11:45.9	94.170	0.310	-0.950	1.180
2020/01/31 03:11:46.0	94.170	0.340	-0.940	1.190
2020/01/31 03:11:46.1	94.180	0.350	-0.920	1.190
2020/01/31 03:11:46.2	94.180	0.370	-0.890	1.190
2020/01/31 03:11:46.3	94.180	0.370	-0.860	1.190
2020/01/31 03:11:46.4	94.180	0.380	-0.810	1.190
2020/01/31 03:11:46.5	94.180	0.380	-0.760	1.190
2020/01/31 03:11:46.6	94.180	0.370	-0.690	1.190
2020/01/31 03:11:46.7	94.180	0.360	-0.630	1.180
2020/01/31 03:11:46.8	94.180	0.340	-0.550	1.170
2020/01/31 03:11:46.9	94.180	0.320	-0.470	1.160
2020/01/31 03:11:47.0	94.180	0.290	-0.380	1.140
2020/01/31 03:11:47.1	94.170	0.260	-0.290	1.120
2020/01/31 03:11:47.2	94.180	0.220	-0.200	1.100
2020/01/31 03:11:47.3	94.180	0.180	-0.100	1.080
2020/01/31 03:11:47.4	94.180	0.140	-0.010	1.060
2020/01/31 03:11:47.5	94.180	0.090	0.090	1.030
2020/01/31 03:11:47.6	94.190	0.040	0.190	1.010
2020/01/31 03:11:47.7	94.190	-0.010	0.280	0.980
2020/01/31 03:11:47.8	94.190	-0.070	0.370	0.950
2020/01/31 03:11:47.9	94.200	-0.120	0.460	0.920
2020/01/31 03:11:48.0	94.200	-0.180	0.540	0.890
2020/01/31 03:11:48.1	94.210	-0.240	0.620	0.860
2020/01/31 03:11:48.2	94.220	-0.290	0.690	0.830
2020/01/31 03:11:48.3	94.230	-0.350	0.750	0.800
2020/01/31 03:11:48.4	94.240	-0.400	0.800	0.770
2020/01/31 03:11:48.5	94.240	-0.460	0.850	0.740
2020/01/31 03:11:48.6	94.250	-0.510	0.880	0.710
2020/01/31 03:11:48.7	94.260	-0.550	0.900	0.680
2020/01/31 03:11:48.8	94.280	-0.600	0.920	0.650
2020/01/31 03:11:48.9	94.290	-0.640	0.920	0.620
2020/01/31 03:11:49.0	94.300	-0.670	0.910	0.580
2020/01/31 03:11:49.1	94.320	-0.700	0.890	0.550
2020/01/31 03:11:49.2	94.340	-0.730	0.860	0.520
2020/01/31 03:11:49.3	94.360	-0.750	0.820	0.490
2020/01/31 03:11:49.4	94.370	-0.760	0.770	0.460
2020/01/31 03:11:49.5	94.390	-0.770	0.710	0.440
2020/01/31 03:11:49.6	94.400	-0.780	0.640	0.410
2020/01/31 03:11:49.7	94.420	-0.770	0.560	0.390
2020/01/31 03:11:49.8	94.440	-0.770	0.470	0.370
2020/01/31 03:11:49.9	94.450	-0.750	0.380	0.350
2020/01/31 03:11:50.0	94.470	-0.740	0.280	0.330
2020/01/31 03:11:50.1	94.480	-0.710	0.170	0.310
2020/01/31 03:11:50.2	94.490	-0.680	0.060	0.300
2020/01/31 03:11:50.3	94.500	-0.650	-0.060	0.300
2020/01/31 03:11:50.4	94.500	-0.610	-0.170	0.300
2020/01/31 03:11:50.5	94.510	-0.570	-0.290	0.300
2020/01/31 03:11:50.6	94.510	-0.520	-0.400	0.300
2020/01/31 03:11:50.7	94.510	-0.470	-0.520	0.310
2020/01/31 03:11:50.8	94.500	-0.420	-0.630	0.320
2020/01/31 03:11:50.9	94.500	-0.370	-0.730	0.340
2020/01/31 03:11:51.0	94.490	-0.310	-0.840	0.350
2020/01/31 03:11:51.1	94.470	-0.260	-0.930	0.360
2020/01/31 03:11:51.2	94.460	-0.200	-1.020	0.380
2020/01/31 03:11:51.3	94.450	-0.140	-1.100	0.400
2020/01/31 03:11:51.4	94.440	-0.090	-1.180	0.430
2020/01/31 03:11:51.5	94.420	-0.030	-1.240	0.450
2020/01/31 03:11:51.6	94.410	0.020	-1.300	0.470
2020/01/31 03:11:51.7	94.390	0.070	-1.340	0.500
2020/01/31 03:11:51.8	94.380	0.120	-1.380	0.520
2020/01/31 03:11:51.9	94.360	0.160	-1.410	0.550
2020/01/31 03:11:52.0	94.340	0.200	-1.420	0.580
2020/01/31 03:11:52.1	94.320	0.240	-1.430	0.600
2020/01/31 03:11:52.2	94.300	0.280	-1.430	0.630
2020/01/31 03:11:52.3	94.290	0.310	-1.410	0.650
2020/01/31 03:11:52.4	94.270	0.340	-1.390	0.680
2020/01/31 03:11:52.5	94.260	0.360	-1.370	0.700
2020/01/31 03:11:52.6	94.240	0.380	-1.330	0.720
2020/01/31 03:11:52.7	94.230	0.400	-1.280	0.750
2020/01/31 03:11:52.8	94.220	0.410	-1.230	0.770
2020/01/31 03:11:52.9	94.210	0.420	-1.180	0.790
2020/01/31 03:11:53.0	94.200	0.430	-1.110	0.800
2020/01/31 03:11:53.1	94.180	0.430	-1.040	0.820
2020/01/31 03:11:53.2	94.170	0.440	-0.970	0.830
2020/01/31 03:11:53.3	94.170	0.440	-0.890	0.850
2020/01/31 03:11:53.4	94.170	0.430	-0.810	0.860
2020/01/31 03:11:53.5	94.170	0.430	-0.730	0.870
2020/01/31 03:11:53.6	94.180	0.430	-0.650	0.870
2020/01/31 03:11:53.7	94.180	0.420	-0.560	0.870
2020/01/31 03:11:53.8	94.190	0.410	-0.480	0.880
2020/01/31 03:11:53.9	94.200	0.410	-0.400	0.880
2020/01/31 03:11:54.0	94.220	0.400	-0.310	0.870
2020/01/31 03:11:54.1	94.230	0.390	-0.230	0.860
2020/01/31 03:11:54.2	94.250	0.390	-0.150	0.850
2020/01/31 03:11:54.3	94.270	0.380	-0.070	0.840
2020/01/31 03:11:54.4	94.290	0.380	0.000	0.820
2020/01/31 03:11:54.5	94.310	0.370	0.070	0.810
2020/01/31 03:11:54.6	94.340	0.360	0.140	0.790
2020/01/31 03:11:54.7	94.360	0.360	0.200	0.760
2020/01/31 03:11:54.8	94.390	0.360	0.260	0.740
2020/01/31 03:11:54.9	94.410	0.350	0.310	0.710
2020/01/31 03:11:55.0	94.430	0.350	0.360	0.680
2020/01/31 03:11:55.1	94.460	0.350	0.410	0.660
2020/01/31 03:11:55.2	94.480	0.340	0.440	0.630
2020/01/31 03:11:55.3	94.500	0.340	0.480	0.600
2020/01/31 03:11:55.4	94.510	0.340	0.500	0.560
2020/01/31 03:11:55.5	94.530	0.340	0.520	0.530
2020/01/31 03:11:55.6	94.550	0.330	0.540	0.510
2020/01/31 03:11:55.7	94.560	0.330	0.550	0.480
2020/01/31 03:11:55.8	94.570	0.330	0.550	0.450
2020/01/31 03:11:55.9	94.580	0.330	0.550	0.430
2020/01/31 03:11:56.0	94.580	0.320	0.540	0.400
2020/01/31 03:11:56.1	94.590	0.320	0.530	0.380
2020/01/31 03:11:56.2	94.600	0.310	0.510	0.360
2020/01/31 03:11:56.3	94.600	0.300	0.490	0.350
2020/01/31 03:11:56.4	94.600	0.300	0.470	0.340
2020/01/31 03:11:56.5	94.600	0.290	0.440	0.330
2020/01/31 03:11:56.6	94.600	0.280	0.410	0.320
2020/01/31 03:11:56.7	94.590	0.270	0.380	0.320
2020/01/31 03:11:56.8	94.590	0.250	0.340	0.330
2020/01/31 03:11:56.9	94.580	0.240	0.310	0.330
2020/01/31 03:11:57.0	94.580	0.230	0.270	0.340
2020/01/31 03:11:57.1	94.560	0.210	0.230	0.350
2020/01/31 03:11:57.2	94.550	0.200	0.190	0.370
2020/01/31 03:11:57.3	94.550	0.180	0.140	0.390
2020/01/31 03:11:57.4	94.540	0.160	0.100	0.410
2020/01/31 03:11:57.5	94.530	0.150	0.060	0.430
2020/01/31 03:11:57.6	94.520	0.130	0.010	0.450
2020/01/31 03:11:57.7	94.510	0.110	-0.030	0.480
2020/01/31 03:11:57.8	94.510	0.100	-0.070	0.500
2020/01/31 03:11:57.9	94.500	0.080	-0.120	0.520
2020/01/31 03:11:58.0	94.490	0.060	-0.160	0.550
2020/01/31 03:11:58.1	94.490	0.040	-0.200	0.560
2020/01/31 03:11:58.2	94.490	0.030	-0.240	0.580
2020/01/31 03:11:58.3	94.480	0.010	-0.280	0.600
2020/01/31 03:11:58.4	94.480	-0.000	-0.320	0.620
2020/01/31 03:11:58.5	94.480	-0.020	-0.350	0.640
2020/01/31 03:11:58.6	94.480	-0.040	-0.380	0.650
2020/01/31 03:11:58.7	94.480	-0.050	-0.410	0.670
2020/01/31 03:11:58.8	94.480	-0.070	-0.440	0.680
2020/01/31 03:11:58.9	94.490	-0.080	-0.460	0.690
2020/01/31 03:11:59.0	94.490	-0.100	-0.480	0.710
2020/01/31 03:11:59.1	94.490	-0.110	-0.490	0.720
2020/01/31 03:11:59.2	94.490	-0.120	-0.500	0.730
2020/01/31 03:11:59.3	94.500	-0.140	-0.510	0.740
2020/01/31 03:11:59.4	94.510	-0.150	-0.510	0.750
2020/01/31 03:11:59.5	94.510	-0.170	-0.510	0.760
2020/01/31 03:11:59.6	94.520	-0.180	-0.510	0.770
2020/01/31 03:11:59.7	94.530	-0.200	-0.500	0.790
2020/01/31 03:11:59.8	94.540	-0.210	-0.490	0.800
2020/01/31 03:11:59.9	94.550	-0.230	-0.470	0.810
2020/01/31 03:12:00.0	94.560	-0.240	-0.460	0.820
2020/01/31 03:12:00.1	94.570	-0.250	-0.440	0.830
2020/01/31 03:12:00.2	94.580	-0.270	-0.420	0.840
2020/01/31 03:12:00.3	94.590	-0.280	-0.390	0.850
2020/01/31 03:12:00.4	94.610	-0.300	-0.370	0.860
2020/01/31 03:12:00.5	94.620	-0.310	-0.340	0.880
2020/01/31 03:12:00.6	94.630	-0.330	-0.310	0.890
2020/01/31 03:12:00.7	94.650	-0.340	-0.280	0.900
2020/01/31 03:12:00.8	94.660	-0.350	-0.250	0.920
2020/01/31 03:12:00.9	94.670	-0.360	-0.230	0.930
2020/01/31 03:12:01.0	94.680	-0.370	-0.200	0.950
2020/01/31 03:12:01.1	94.700	-0.380	-0.170	0.960
2020/01/31 03:12:01.2	94.710	-0.390	-0.150	0.980
2020/01/31 03:12:01.3	94.710	-0.400	-0.130	0.990
2020/01/31 03:12:01.4	94.720	-0.400	-0.110	1.010
2020/01/31 03:12:01.5	94.720	-0.410	-0.100	1.040
2020/01/31 03:12:01.6	94.730	-0.410	-0.080	1.060
2020/01/31 03:12:01.7	94.730	-0.410	-0.080	1.080
2020/01/31 03:12:01.8	94.720	-0.410	-0.070	1.110
2020/01/31 03:12:01.9	94.720	-0.410	-0.070	1.130
2020/01/31 03:12:02.0	94.720	-0.400	-0.060	1.160
2020/01/31 03:12:02.1	94.710	-0.390	-0.070	1.190
2020/01/31 03:12:02.2	94.700	-0.380	-0.070	1.220
2020/01/31 03:12:02.3	94.690	-0.370	-0.080	1.240
2020/01/31 03:12:02.4	94.680	-0.360	-0.090	1.270
2020/01/31 03:12:02.5	94.660	-0.350	-0.110	1.290
2020/01/31 03:12:02.6	94.650	-0.330	-0.120	1.310
2020/01/31 03:12:02.7	94.630	-0.310	-0.140	1.330
2020/01/31 03:12:02.8	94.620	-0.290	-0.160	1.350
2020/01/31 03:12:02.9	94.600	-0.270	-0.190	1.360
2020/01/31 03:12:03.0	94.580	-0.250	-0.210	1.360
2020/01/31 03:12:03.1	94.560	-0.230	-0.230	1.360
2020/01/31 03:12:03.2	94.550	-0.200	-0.260	1.360
2020/01/31 03:12:03.3	94.540	-0.180	-0.280	1.360
2020/01/31 03:12:03.4	94.520	-0.160	-0.310	1.350
2020/01/31 03:12:03.5	94.510	-0.130	-0.330	1.340
2020/01/31 03:12:03.6	94.500	-0.110	-0.360	1.320
2020/01/31 03:12:03.7	94.490	-0.090	-0.380	1.300
2020/01/31 03:12:03.8	94.490	-0.060	-0.410	1.280
2020/01/31 03:12:03.9	94.480	-0.040	-0.430	1.250
2020/01/31 03:12:04.0	94.470	-0.020	-0.450	1.220
2020/01/31 03:12:04.1	94.480	0.010	-0.470	1.180
2020/01/31 03:12:04.2	94.480	0.030	-0.490	1.140
2020/01/31 03:12:04.3	94.480	0.050	-0.510	1.100
2020/01/31 03:12:04.4	94.480	0.070	-0.530	1.060
2020/01/31 03:12:04.5	94.480	0.090	-0.550	1.020
2020/01/31 03:12:04.6	94.480	0.110	-0.560	0.980
2020/01/31 03:12:04.7	94.490	0.130	-0.580	0.940
2020/01/31 03:12:04.8	94.490	0.150	-0.590	0.900
2020/01/31 03:12:04.9	94.500	0.170	-0.600	0.860
2020/01/31 03:12:05.0	94.510	0.190	-0.610	0.820
2020/01/31 03:12:05.1	94.520	0.210	-0.620	0.770
2020/01/31 03:12:05.2	94.540	0.230	-0.620	0.730
2020/01/31 03:12:05.3	94.550	0.250	-0.630	0.700
2020/01/31 03:12:05.4	94.560	0.260	-0.630	0.660
2020/01/31 03:12:05.5	94.580	0.280	-0.620	0.630
2020/01/31 03:12:05.6	94.600	0.290	-0.620	0.590
2020/01/31 03:12:05.7	94.610	0.310	-0.610	0.560
2020/01/31 03:12:05.8	94.630	0.320	-0.600	0.530
2020/01/31 03:12:05.9	94.650	0.330	-0.580	0.500
2020/01/31 03:12:06.0	94.670	0.340	-0.570	0.480
2020/01/31 03:12:06.1	94.690	0.350	-0.540	0.450
2020/01/31 03:12:06.2	94.710	0.360	-0.520	0.430
2020/01/31 03:12:06.3	94.720	0.360	-0.490	0.410
2020/01/31 03:12:06.4	94.740	0.360	-0.460	0.390
2020/01/31 03:12:06.5	94.750	0.370	-0.420	0.370
2020/01/31 03:12:06.6	94.770	0.360	-0.380	0.360
2020/01/31 03:12:06.7	94.780	0.360	-0.340	0.350
2020/01/31 03:12:06.8	94.780	0.350	-0.290	0.340
2020/01/31 03:12:06.9	94.790	0.340	-0.250	0.340
2020/01/31 03:12:07.0	94.790	0.330	-0.200	0.340
2020/01/31 03:12:07.1	94.800	0.320	-0.150	0.340
2020/01/31 03:12:07.2	94.800	0.310	-0.100	0.340
2020/01/31 03:12:07.3	94.790	0.290	-0.050	0.350
2020/01/31 03:12:07.4	94.790	0.270	0.000	0.370
2020/01/31 03:12:07.5	94.770	0.250	0.060	0.380
2020/01/31 03:12:07.6	94.760	0.230	0.100	0.400
2020/01/31 03:12:07.7	94.740	0.200	0.150	0.420
2020/01/31 03:12:07.8	94.720	0.180	0.190	0.440
2020/01/31 03:12:07.9	94.700	0.150	0.240	0.470
2020/01/31 03:12:08.0	94.680	0.130	0.280	0.490
2020/01/31 03:12:08.1	94.660	0.100	0.310	0.520
2020/01/31 03:12:08.2	94.630	0.070	0.340	0.550
2020/01/31 03:12:08.3	94.600	0.040	0.370	0.580
2020/01/31 03:12:08.4	94.570	0.010	0.390	0.610
2020/01/31 03:12:08.5	94.540	-0.020	0.410	0.640
2020/01/31 03:12:08.6	94.510	-0.050	0.430	0.680
2020/01/31 03:12:08.7	94.480	-0.080	0.440	0.710
2020/01/31 03:12:08.8	94.450	-0.100	0.440	0.740
2020/01/31 03:12:08.9	94.420	-0.130	0.440	0.760
2020/01/31 03:12:09.0	94.380	-0.160	0.440	0.790
2020/01/31 03:12:09.1	94.350	-0.190	0.430	0.810
2020/01/31 03:12:09.2	94.330	-0.210	0.410	0.830
2020/01/31 03:12:09.3	94.300	-0.230	0.390	0.850
2020/01/31 03:12:09.4	94.280	-0.250	0.370	0.870
2020/01/31 03:12:09.5	94.250	-0.270	0.340	0.880
2020/01/31 03:12:09.6	94.240	-0.290	0.300	0.880
2020/01/31 03:12:09.7	94.220	-0.310	0.260	0.890
2020/01/31 03:12:09.8	94.210	-0.320	0.220	0.880
2020/01/31 03:12:09.9	94.200	-0.330	0.170	0.880
2020/01/31 03:12:10.0	94.200	-0.330	0.110	0.870
2020/01/31 03:12:10.1	94.190	-0.330	0.060	0.840
2020/01/31 03:12:10.2	94.190	-0.330	-0.010	0.830
2020/01/31 03:12:10.3	94.200	-0.330	-0.070	0.810
2020/01/31 03:12:10.4	94.210	-0.320	-0.140	0.790
2020/01/31 03:12:10.5	94.220	-0.310	-0.210	0.760
2020/01/31 03:12:10.6	94.240	-0.290	-0.280	0.740
2020/01/31 03:12:10.7	94.260	-0.270	-0.350	0.710
2020/01/31 03:12:10.8	94.280	-0.250	-0.420	0.690
2020/01/31 03:12:10.9	94.310	-0.220	-0.490	0.660
2020/01/31 03:12:11.0	94.330	-0.200	-0.560	0.640
2020/01/31 03:12:11.1	94.350	-0.160	-0.640	0.620
2020/01/31 03:12:11.2	94.380	-0.130	-0.700	0.600
2020/01/31 03:12:11.3	94.410	-0.090	-0.760	0.580
2020/01/31 03:12:11.4	94.440	-0.060	-0.810	0.570
2020/01/31 03:12:11.5	94.460	-0.020	-0.860	0.560
2020/01/31 03:12:11.6	94.490	0.020	-0.900	0.550
2020/01/31 03:12:11.7	94.510	0.060	-0.930	0.550
2020/01/31 03:12:11.8	94.530	0.090	-0.950	0.540
2020/01/31 03:12:11.9	94.550	0.130	-0.970	0.550
2020/01/31 03:12:12.0	94.570	0.160	-0.980	0.550
2020/01/31 03:12:12.1	94.590	0.190	-0.980	0.550
2020/01/31 03:12:12.2	94.600	0.220	-0.970	0.560
2020/01/31 03:12:12.3	94.620	0.250	-0.950	0.570
2020/01/31 03:12:12.4	94.630	0.270	-0.920	0.590
2020/01/31 03:12:12.5	94.640	0.290	-0.890	0.600
2020/01/31 03:12:12.6	94.640	0.310	-0.850	0.620
2020/01/31 03:12:12.7	94.650	0.320	-0.800	0.640
2020/01/31 03:12:12.8	94.650	0.330	-0.750	0.660
2020/01/31 03:12:12.9	94.640	0.340	-0.690	0.690
2020/01/31 03:12:13.0	94.640	0.340	-0.620	0.710
2020/01/31 03:12:13.1	94.630	0.350	-0.560	0.740
2020/01/31 03:12:13.2	94.630	0.340	-0.490	0.770
2020/01/31 03:12:13.3	94.620	0.340	-0.420	0.800
2020/01/31 03:12:13.4	94.610	0.330	-0.340	0.830
2020/01/31 03:12:13.5	94.590	0.320	-0.270	0.860
2020/01/31 03:12:13.6	94.580	0.310	-0.200	0.900
2020/01/31 03:12:13.7	94.570	0.300	-0.140	0.930
2020/01/31 03:12:13.8	94.550	0.280	-0.070	0.960
2020/01/31 03:12:13.9	94.540	0.270	-0.010	0.990
2020/01/31 03:12:14.0	94.530	0.250	0.040	1.020
2020/01/31 03:12:14.1	94.530	0.230	0.090	1.040
2020/01/31 03:12:14.2	94.510	0.220	0.140	1.070
2020/01/31 03:12:14.3	94.500	0.200	0.180	1.100
2020/01/31 03:12:14.4	94.490	0.180	0.210	1.120
2020/01/31 03:12:14.5	94.480	0.170	0.230	1.150
2020/01/31 03:12:14.6	94.460	0.150	0.250	1.170
2020/01/31 03:12:14.7	94.450	0.140	0.270	1.200
2020/01/31 03:12:14.8	94.430	0.130	0.270	1.220
2020/01/31 03:12:14.9	94.420	0.120	0.270	1.250
2020/01/31 03:12:15.0	94.400	0.110	0.260	1.270
2020/01/31 03:12:15.1	94.400	0.100	0.250	1.290
2020/01/31 03:12:15.2	94.380	0.090	0.230	1.300
2020/01/31 03:12:15.3	94.360	0.080	0.210	1.320
2020/01/31 03:12:15.4	94.340	0.070	0.180	1.330
2020/01/31 03:12:15.5	94.320	0.060	0.150	1.330
2020/01/31 03:12:15.6	94.300	0.060	0.120	1.340
2020/01/31 03:12:15.7	94.280	0.050	0.080	1.330
2020/01/31 03:12:15.8	94.260	0.050	0.050	1.320
2020/01/31 03:12:15.9	94.250	0.040	0.010	1.310
2020/01/31 03:12:16.0	94.230	0.040	-0.030	1.290
2020/01/31 03:12:16.1	94.210	0.040	-0.070	1.260
2020/01/31 03:12:16.2	94.200	0.030	-0.110	1.230
2020/01/31 03:12:16.3	94.190	0.030	-0.150	1.190
2020/01/31 03:12:16.4	94.180	0.030	-0.190	1.150
2020/01/31 03:12:16.5	94.170	0.020	-0.220	1.110
2020/01/31 03:12:16.6	94.160	0.020	-0.260	1.070
2020/01/31 03:12:16.7	94.160	0.020	-0.290	1.020
2020/01/31 03:12:16.8	94.150	0.010	-0.320	0.980
2020/01/31 03:12:16.9	94.150	0.010	-0.350	0.930
2020/01/31 03:12:17.0	94.150	0.010	-0.370	0.890
2020/01/31 03:12:17.1	94.150	0.000	-0.390	0.840
2020/01/31 03:12:17.2	94.150	0.000	-0.410	0.800
2020/01/31 03:12:17.3	94.160	-0.000	-0.420	0.770
2020/01/31 03:12:17.4	94.160	-0.010	-0.430	0.740
2020/01/31 03:12:17.5	94.170	-0.010	-0.430	0.710
2020/01/31 03:12:17.6	94.180	-0.010	-0.430	0.690
2020/01/31 03:12:17.7	94.190	-0.020	-0.430	0.670
2020/01/31 03:12:17.8	94.200	-0.020	-0.420	0.660
2020/01/31 03:12:17.9	94.200	-0.030	-0.410	0.650
2020/01/31 03:12:18.0	94.210	-0.030	-0.390	0.640
2020/01/31 03:12:18.1	94.200	-0.040	-0.380	0.640
2020/01/31 03:12:18.2	94.210	-0.050	-0.360	0.630
2020/01/31 03:12:18.3	94.220	-0.060	-0.340	0.630
2020/01/31 03:12:18.4	94.230	-0.060	-0.310	0.640
2020/01/31 03:12:18.5	94.240	-0.070	-0.290	0.640
2020/01/31 03:12:18.6	94.250	-0.080	-0.260	0.650
2020/01/31 03:12:18.7	94.260	-0.090	-0.240	0.650
2020/01/31 03:12:18.8	94.270	-0.100	-0.210	0.660
2020/01/31 03:12:18.9	94.270	-0.120	-0.180	0.670
2020/01/31 03:12:19.0	94.280	-0.130	-0.160	0.680
2020/01/31 03:12:19.1	94.290	-0.140	-0.130	0.680
2020/01/31 03:12:19.2	94.300	-0.150	-0.110	0.690
2020/01/31 03:12:19.3	94.310	-0.170	-0.090	0.700
2020/01/31 03:12:19.4	94.310	-0.180	-0.070	0.710
2020/01/31 03:12:19.5	94.310	-0.190	-0.060	0.720
2020/01/31 03:12:19.6	94.320	-0.200	-0.050	0.730
2020/01/31 03:12:19.7	94.320	-0.210	-0.040	0.750
2020/01/31 03:12:19.8	94.330	-0.230	-0.040	0.760
2020/01/31 03:12:19.9	94.330	-0.230	-0.040	0.770
2020/01/31 03:12:20.0	94.330	-0.240	-0.040	0.790
2020/01/31 03:12:20.1	94.340	-0.250	-0.050	0.800
2020/01/31 03:12:20.2	94.340	-0.260	-0.060	0.810
2020/01/31 03:12:20.3	94.340	-0.260	-0.070	0.830
2020/01/31 03:12:20.4	94.340	-0.260	-0.080	0.850
2020/01/31 03:12:20.5	94.340	-0.260	-0.100	0.860
2020/01/31 03:12:20.6	94.340	-0.260	-0.120	0.880
2020/01/31 03:12:20.7	94.340	-0.260	-0.140	0.900
2020/01/31 03:12:20.8	94.340	-0.260	-0.160	0.920
2020/01/31 03:12:20.9	94.330	-0.250	-0.180	0.950
2020/01/31 03:12:21.0	94.330	-0.240	-0.200	0.970
2020/01/31 03:12:21.1	94.320	-0.230	-0.220	0.980
2020/01/31 03:12:21.2	94.320	-0.220	-0.240	1.000
2020/01/31 03:12:21.3	94.310	-0.210	-0.260	1.020
2020/01/31 03:12:21.4	94.300	-0.190	-0.280	1.030
2020/01/31 03:12:21.5	94.290	-0.180	-0.300	1.050
2020/01/31 03:12:21.6	94.280	-0.160	-0.320	1.060
2020/01/31 03:12:21.7	94.270	-0.140	-0.340	1.070
2020/01/31 03:12:21.8	94.260	-0.120	-0.350	1.080
2020/01/31 03:12:21.9	94.250	-0.100	-0.370	1.090
2020/01/31 03:12:22.0	94.240	-0.070	-0.380	1.090
2020/01/31 03:12:22.1	94.220	-0.050	-0.390	1.100
2020/01/31 03:12:22.2	94.210	-0.030	-0.400	1.100
2020/01/31 03:12:22.3	94.200	-0.000	-0.410	1.090
2020/01/31 03:12:22.4	94.190	0.030	-0.420	1.090
2020/01/31 03:12:22.5	94.180	0.050	-0.430	1.090
2020/01/31 03:12:22.6	94.170	0.080	-0.440	1.080
2020/01/31 03:12:22.7	94.150	0.100	-0.440	1.070
2020/01/31 03:12:22.8	94.150	0.130	-0.450	1.070
2020/01/31 03:12:22.9	94.140	0.150	-0.450	1.060
2020/01/31 03:12:23.0	94.130	0.180	-0.450	1.050
2020/01/31 03:12:23.1	94.120	0.200	-0.450	1.030
2020/01/31 03:12:23.2	94.110	0.220	-0.450	1.020
2020/01/31 03:12:23.3	94.110	0.240	-0.450	1.000
2020/01/31 03:12:23.4	94.110	0.250	-0.440	0.990
2020/01/31 03:12:23.5	94.100	0.270	-0.430	0.970
2020/01/31 03:12:23.6	94.100	0.280	-0.420	0.950
2020/01/31 03:12:23.7	94.100	0.290	-0.410	0.940
2020/01/31 03:12:23.8	94.100	0.290	-0.400	0.920
2020/01/31 03:12:23.9	94.110	0.300	-0.380	0.890
2020/01/31 03:12:24.0	94.110	0.300	-0.360	0.870
2020/01/31 03:12:24.1	94.110	0.290	-0.340	0.840
2020/01/31 03:12:24.2	94.110	0.290	-0.320	0.820
2020/01/31 03:12:24.3	94.120	0.280	-0.290	0.790
2020/01/31 03:12:24.4	94.130	0.260	-0.270	0.760
2020/01/31 03:12:24.5	94.140	0.250	-0.240	0.730
2020/01/31 03:12:24.6	94.150	0.230	-0.210	0.690
2020/01/31 03:12:24.7	94.160	0.210	-0.190	0.660
2020/01/31 03:12:24.8	94.170	0.190	-0.160	0.630
2020/01/31 03:12:24.9	94.190	0.170	-0.130	0.600
2020/01/31 03:12:25.0	94.200	0.140	-0.100	0.570
2020/01/31 03:12:25.1	94.220	0.120	-0.070	0.530
2020/01/31 03:12:25.2	94.230	0.090	-0.050	0.500
2020/01/31 03:12:25.3	94.250	0.070	-0.030	0.480
2020/01/31 03:12:25.4	94.260	0.040	-0.000	0.460
2020/01/31 03:12:25.5	94.270	0.010	0.010	0.430
2020/01/31 03:12:25.6	94.280	-0.010	0.030	0.420
2020/01/31 03:12:25.7	94.290	-0.040	0.040	0.410
2020/01/31 03:12:25.8	94.300	-0.060	0.050	0.400
2020/01/31 03:12:25.9	94.300	-0.080	0.060	0.390
2020/01/31 03:12:26.0	94.310	-0.100	0.060	0.390
2020/01/31 03:12:26.1	94.310	-0.120	0.060	0.390
2020/01/31 03:12:26.2	94.310	-0.130	0.060	0.400
2020/01/31 03:12:26.3	94.310	-0.140	0.050	0.410
2020/01/31 03:12:26.4	94.300	-0.150	0.040	0.420
2020/01/31 03:12:26.5	94.290	-0.160	0.020	0.440
2020/01/31 03:12:26.6	94.290	-0.160	0.000	0.460
2020/01/31 03:12:26.7	94.280	-0.170	-0.020	0.480
2020/01/31 03:12:26.8	94.270	-0.170	-0.040	0.500
2020/01/31 03:12:26.9	94.260	-0.170	-0.070	0.520
2020/01/31 03:12:27.0	94.250	-0.160	-0.090	0.550
2020/01/31 03:12:27.1	94.240	-0.160	-0.120	0.570
2020/01/31 03:12:27.2	94.220	-0.150	-0.150	0.600
2020/01/31 03:12:27.3	94.210	-0.150	-0.180	0.620
2020/01/31 03:12:27.4	94.200	-0.140	-0.200	0.650
2020/01/31 03:12:27.5	94.190	-0.130	-0.230	0.670
2020/01/31 03:12:27.6	94.190	-0.130	-0.250	0.690
2020/01/31 03:12:27.7	94.180	-0.120	-0.280	0.710
2020/01/31 03:12:27.8	94.170	-0.110	-0.300	0.730
2020/01/31 03:12:27.9	94.170	-0.110	-0.320	0.750
2020/01/31 03:12:28.0	94.160	-0.100	-0.330	0.760
2020/01/31 03:12:28.1	94.150	-0.100	-0.340	0.770
2020/01/31 03:12:28.2	94.150	-0.090	-0.350	0.790
2020/01/31 03:12:28.3	94.150	-0.090	-0.360	0.790
2020/01/31 03:12:28.4	94.160	-0.080	-0.370	0.800
2020/01/31 03:12:28.5	94.160	-0.080	-0.370	0.810
2020/01/31 03:12:28.6	94.170	-0.080	-0.370	0.810
2020/01/31 03:12:28.7	94.180	-0.080	-0.370	0.810
2020/01/31 03:12:28.8	94.200	-0.070	-0.370	0.810
2020/01/31 03:12:28.9	94.210	-0.070	-0.360	0.810
2020/01/31 03:12:29.0	94.230	-0.070	-0.350	0.810
2020/01/31 03:12:29.1	94.250	-0.070	-0.340	0.810
2020/01/31 03:12:29.2	94.270	-0.070	-0.330	0.800
2020/01/31 03:12:29.3	94.300	-0.070	-0.310	0.800
2020/01/31 03:12:29.4	94.330	-0.070	-0.300	0.800
2020/01/31 03:12:29.5	94.350	-0.070	-0.280	0.790
2020/01/31 03:12:29.6	94.380	-0.070	-0.260	0.790
2020/01/31 03:12:29.7	94.410	-0.060	-0.240	0.790
2020/01/31 03:12:29.8	94.440	-0.060	-0.220	0.790
2020/01/31 03:12:29.9	94.470	-0.060	-0.210	0.790
2020/01/31 03:12:30.0	94.490	-0.050	-0.190	0.790
2020/01/31 03:12:30.1	94.520	-0.050	-0.170	0.800
2020/01/31 03:12:30.2	94.550	-0.050	-0.150	0.800
2020/01/31 03:12:30.3	94.570	-0.040	-0.140	0.800
2020/01/31 03:12:30.4	94.590	-0.030	-0.120	0.810
2020/01/31 03:12:30.5	94.610	-0.030	-0.110	0.820
2020/01/31 03:12:30.6	94.620	-0.020	-0.100	0.820
2020/01/31 03:12:30.7	94.640	-0.020	-0.090	0.830
2020/01/31 03:12:30.8	94.640	-0.010	-0.090	0.840
2020/01/31 03:12:30.9	94.650	-0.000	-0.080	0.850
2020/01/31 03:12:31.0	94.650	0.000	-0.080	0.860
2020/01/31 03:12:31.1	94.640	0.010	-0.080	0.860
2020/01/31 03:12:31.2	94.630	0.010	-0.080	0.870
2020/01/31 03:12:31.3	94.620	0.020	-0.080	0.880
2020/01/31 03:12:31.4	94.610	0.020	-0.090	0.890
2020/01/31 03:12:31.5	94.590	0.030	-0.090	0.900
2020/01/31 03:12:31.6	94.580	0.030	-0.100	0.910
2020/01/31 03:12:31.7	94.560	0.030	-0.110	0.910
2020/01/31 03:12:31.8	94.540	0.040	-0.130	0.920
2020/01/31 03:12:31.9	94.510	0.040	-0.140	0.920
2020/01/31 03:12:32.0	94.490	0.040	-0.150	0.920
2020/01/31 03:12:32.1	94.480	0.040	-0.160	0.920
2020/01/31 03:12:32.2	94.450	0.040	-0.180	0.920
2020/01/31 03:12:32.3	94.420	0.040	-0.190	0.920
2020/01/31 03:12:32.4	94.400	0.030	-0.210	0.920
2020/01/31 03:12:32.5	94.370	0.030	-0.220	0.910
2020/01/31 03:12:32.6	94.350	0.030	-0.240	0.910
2020/01/31 03:12:32.7	94.330	0.030	-0.250	0.910
2020/01/31 03:12:32.8	94.300	0.030	-0.260	0.900
2020/01/31 03:12:32.9	94.280	0.020	-0.270	0.890
2020/01/31 03:12:33.0	94.270	0.020	-0.280	0.880
2020/01/31 03:12:33.1	94.250	0.020	-0.290	0.870
2020/01/31 03:12:33.2	94.230	0.020	-0.300	0.860
2020/01/31 03:12:33.3	94.220	0.020	-0.300	0.840
2020/01/31 03:12:33.4	94.210	0.020	-0.310	0.830
2020/01/31 03:12:33.5	94.200	0.020	-0.310	0.810
2020/01/31 03:12:33.6	94.200	0.020	-0.310	0.790
2020/01/31 03:12:33.7	94.190	0.020	-0.310	0.760
2020/01/31 03:12:33.8	94.190	0.030	-0.310	0.740
2020/01/31 03:12:33.9	94.200	0.030	-0.310	0.720
2020/01/31 03:12:34.0	94.200	0.030	-0.310	0.690
2020/01/31 03:12:34.1	94.210	0.040	-0.310	0.660
2020/01/31 03:12:34.2	94.210	0.050	-0.310	0.630
2020/01/31 03:12:34.3	94.230	0.050	-0.310	0.600
2020/01/31 03:12:34.4	94.240	0.060	-0.320	0.580
2020/01/31 03:12:34.5	94.250	0.070	-0.320	0.550
2020/01/31 03:12:34.6	94.260	0.080	-0.330	0.520
2020/01/31 03:12:34.7	94.280	0.100	-0.340	0.490
2020/01/31 03:12:34.8	94.300	0.110	-0.350	0.470
2020/01/31 03:12:34.9	94.310	0.120	-0.360	0.440
2020/01/31 03:12:35.0	94.330	0.130	-0.370	0.420
2020/01/31 03:12:35.1	94.340	0.150	-0.380	0.400
2020/01/31 03:12:35.2	94.360	0.160	-0.400	0.380
2020/01/31 03:12:35.3	94.370	0.180	-0.420	0.360
2020/01/31 03:12:35.4	94.380	0.190	-0.430	0.350
2020/01/31 03:12:35.5	94.400	0.210	-0.450	0.340
2020/01/31 03:12:35.6	94.410	0.220	-0.470	0.330
2020/01/31 03:12:35.7	94.410	0.240	-0.490	0.330
2020/01/31 03:12:35.8	94.420	0.250	-0.500	0.330
2020/01/31 03:12:35.9	94.430	0.270	-0.520	0.330
2020/01/31 03:12:36.0	94.430	0.280	-0.540	0.340
2020/01/31 03:12:36.1	94.440	0.290	-0.550	0.340
2020/01/31 03:12:36.2	94.440	0.300	-0.570	0.360
2020/01/31 03:12:36.3	94.440	0.310	-0.580	0.380
2020/01/31 03:12:36.4	94.440	0.320	-0.580	0.400
2020/01/31 03:12:36.5	94.440	0.330	-0.590	0.420
2020/01/31 03:12:36.6	94.440	0.330	-0.590	0.440
2020/01/31 03:12:36.7	94.440	0.330	-0.590	0.470
2020/01/31 03:12:36.8	94.430	0.330	-0.590	0.500
2020/01/31 03:12:36.9	94.430	0.330	-0.580	0.540
2020/01/31 03:12:37.0	94.420	0.330	-0.570	0.570
2020/01/31 03:12:37.1	94.410	0.320	-0.550	0.600
2020/01/31 03:12:37.2	94.410	0.310	-0.540	0.640
2020/01/31 03:12:37.3	94.400	0.300	-0.520	0.670
2020/01/31 03:12:37.4	94.390	0.290	-0.490	0.710
2020/01/31 03:12:37.5	94.380	0.270	-0.460	0.750
2020/01/31 03:12:37.6	94.370	0.250	-0.430	0.780
2020/01/31 03:12:37.7	94.360	0.240	-0.400	0.820
2020/01/31 03:12:37.8	94.350	0.210	-0.360	0.850
2020/01/31 03:12:37.9	94.340	0.190	-0.320	0.890
2020/01/31 03:12:38.0	94.330	0.170	-0.280	0.920
2020/01/31 03:12:38.1	94.320	0.140	-0.240	0.960
2020/01/31 03:12:38.2	94.310	0.110	-0.190	0.990
2020/01/31 03:12:38.3	94.300	0.080	-0.150	1.020
2020/01/31 03:12:38.4	94.290	0.060	-0.100	1.050
2020/01/31 03:12:38.5	94.280	0.030	-0.060	1.080
2020/01/31 03:12:38.6	94.270	-0.000	-0.010	1.110
2020/01/31 03:12:38.7	94.260	-0.040	0.030	1.140
2020/01/31 03:12:38.8	94.250	-0.070	0.080	1.170
2020/01/31 03:12:38.9	94.240	-0.100	0.120	1.190
2020/01/31 03:12:39.0	94.230	-0.130	0.160	1.220
2020/01/31 03:12:39.1	94.210	-0.160	0.210	1.240
2020/01/31 03:12:39.2	94.200	-0.190	0.240	1.260
2020/01/31 03:12:39.3	94.200	-0.220	0.280	1.270
2020/01/31 03:12:39.4	94.190	-0.250	0.310	1.290
2020/01/31 03:12:39.5	94.180	-0.280	0.340	1.300
2020/01/31 03:12:39.6	94.180	-0.310	0.370	1.300
2020/01/31 03:12:39.7	94.180	-0.340	0.390	1.310
2020/01/31 03:12:39.8	94.180	-0.370	0.410	1.310
2020/01/31 03:12:39.9	94.180	-0.400	0.430	1.300
2020/01/31 03:12:40.0	94.180	-0.420	0.450	1.290
2020/01/31 03:12:40.1	94.190	-0.450	0.450	1.280
2020/01/31 03:12:40.2	94.190	-0.470	0.460	1.260
2020/01/31 03:12:40.3	94.200	-0.490	0.460	1.230
2020/01/31 03:12:40.4	94.210	-0.520	0.460	1.210
2020/01/31 03:12:40.5	94.220	-0.540	0.460	1.180
2020/01/31 03:12:40.6	94.240	-0.550	0.450	1.150
2020/01/31 03:12:40.7	94.250	-0.570	0.440	1.120
2020/01/31 03:12:40.8	94.270	-0.590	0.420	1.080
2020/01/31 03:12:40.9	94.290	-0.600	0.400	1.050
2020/01/31 03:12:41.0	94.310	-0.610	0.380	1.010
2020/01/31 03:12:41.1	94.330	-0.620	0.350	0.980
2020/01/31 03:12:41.2	94.350	-0.630	0.320	0.940
2020/01/31 03:12:41.3	94.380	-0.630	0.290	0.910
2020/01/31 03:12:41.4	94.400	-0.630	0.250	0.890
2020/01/31 03:12:41.5	94.430	-0.630	0.210	0.860
2020/01/31 03:12:41.6	94.450	-0.630	0.170	0.840
2020/01/31 03:12:41.7	94.470	-0.630	0.130	0.820
2020/01/31 03:12:41.8	94.500	-0.620	0.080	0.800
2020/01/31 03:12:41.9	94.520	-0.610	0.040	0.780
2020/01/31 03:12:42.0	94.540	-0.600	-0.010	0.770
2020/01/31 03:12:42.1	94.560	-0.590	-0.060	0.760
2020/01/31 03:12:42.2	94.570	-0.570	-0.100	0.760
2020/01/31 03:12:42.3	94.590	-0.550	-0.150	0.750
2020/01/31 03:12:42.4	94.600	-0.530	-0.200	0.750
2020/01/31 03:12:42.5	94.620	-0.510	-0.240	0.760
2020/01/31 03:12:42.6	94.630	-0.490	-0.290	0.760
2020/01/31 03:12:42.7	94.640	-0.460	-0.330	0.760
2020/01/31 03:12:42.8	94.640	-0.440	-0.370	0.770
2020/01/31 03:12:42.9	94.650	-0.410	-0.410	0.770
2020/01/31 03:12:43.0	94.650	-0.380	-0.440	0.780
2020/01/31 03:12:43.1	94.660	-0.350	-0.480	0.790
2020/01/31 03:12:43.2	94.660	-0.320	-0.510	0.800
2020/01/31 03:12:43.3	94.650	-0.290	-0.540	0.800
2020/01/31 03:12:43.4	94.650	-0.250	-0.570	0.810
2020/01/31 03:12:43.5	94.640	-0.220	-0.600	0.820
2020/01/31 03:12:43.6	94.630	-0.180	-0.620	0.830
2020/01/31 03:12:43.7	94.610	-0.140	-0.640	0.840
2020/01/31 03:12:43.8	94.600	-0.110	-0.670	0.850
2020/01/31 03:12:43.9	94.590	-0.070	-0.690	0.860
2020/01/31 03:12:44.0	94.570	-0.030	-0.700	0.870
2020/01/31 03:12:44.1	94.540	0.010	-0.720	0.870
2020/01/31 03:12:44.2	94.530	0.040	-0.740	0.880
2020/01/31 03:12:44.3	94.510	0.080	-0.750	0.900
2020/01/31 03:12:44.4	94.490	0.120	-0.770	0.910
2020/01/31 03:12:44.5	94.460	0.160	-0.780	0.920
2020/01/31 03:12:44.6	94.440	0.190	-0.790	0.940
2020/01/31 03:12:44.7	94.420	0.230	-0.800	0.950
2020/01/31 03:12:44.8	94.390	0.270	-0.800	0.970
2020/01/31 03:12:44.9	94.370	0.300	-0.810	0.980
2020/01/31 03:12:45.0	94.350	0.330	-0.810	0.990
2020/01/31 03:12:45.1	94.310	0.370	-0.810	0.990
2020/01/31 03:12:45.2	94.280	0.400	-0.810	1.000
2020/01/31 03:12:45.3	94.260	0.430	-0.810	1.010
2020/01/31 03:12:45.4	94.240	0.460	-0.810	1.010
2020/01/31 03:12:45.5	94.210	0.480	-0.800	1.010
2020/01/31 03:12:45.6	94.190	0.510	-0.800	1.010
2020/01/31 03:12:45.7	94.170	0.530	-0.790	1.000
2020/01/31 03:12:45.8	94.150	0.560	-0.780	0.990
2020/01/31 03:12:45.9	94.120	0.580	-0.770	0.980
2020/01/31 03:12:46.0	94.100	0.600	-0.760	0.970
2020/01/31 03:12:46.1	94.070	0.620	-0.750	0.950
2020/01/31 03:12:46.2	94.050	0.640	-0.740	0.940
2020/01/31 03:12:46.3	94.040	0.650	-0.720	0.920
2020/01/31 03:12:46.4	94.020	0.670	-0.710	0.900
2020/01/31 03:12:46.5	94.000	0.680	-0.690	0.880
2020/01/31 03:12:46.6	93.990	0.690	-0.670	0.850
2020/01/31 03:12:46.7	93.970	0.700	-0.650	0.830
2020/01/31 03:12:46.8	93.960	0.700	-0.630	0.810
2020/01/31 03:12:46.9	93.950	0.710	-0.600	0.780
2020/01/31 03:12:47.0	93.950	0.710	-0.570	0.760
2020/01/31 03:12:47.1	93.950	0.710	-0.540	0.730
2020/01/31 03:12:47.2	93.950	0.700	-0.510	0.710
2020/01/31 03:12:47.3	93.950	0.700	-0.470	0.690
2020/01/31 03:12:47.4	93.950	0.690	-0.440	0.670
2020/01/31 03:12:47.5	93.950	0.670	-0.400	0.650
2020/01/31 03:12:47.6	93.950	0.660	-0.360	0.630
2020/01/31 03:12:47.7	93.960	0.640	-0.310	0.620
2020/01/31 03:12:47.8	93.960	0.620	-0.270	0.610
2020/01/31 03:12:47.9	93.970	0.590	-0.220	0.600
2020/01/31 03:12:48.0	93.980	0.560	-0.180	0.590
2020/01/31 03:12:48.1	93.990	0.530	-0.130	0.580
2020/01/31 03:12:48.2	94.000	0.500	-0.080	0.570
2020/01/31 03:12:48.3	94.010	0.470	-0.030	0.570
2020/01/31 03:12:48.4	94.020	0.430	0.020	0.570
2020/01/31 03:12:48.5	94.030	0.390	0.060	0.570
2020/01/31 03:12:48.6	94.040	0.350	0.110	0.560
2020/01/31 03:12:48.7	94.050	0.300	0.160	0.570
2020/01/31 03:12:48.8	94.060	0.260	0.210	0.570
2020/01/31 03:12:48.9	94.070	0.210	0.250	0.570
2020/01/31 03:12:49.0	94.090	0.170	0.290	0.570
2020/01/31 03:12:49.1	94.110	0.120	0.330	0.570
2020/01/31 03:12:49.2	94.120	0.070	0.370	0.570
2020/01/31 03:12:49.3	94.120	0.020	0.410	0.580
2020/01/31 03:12:49.4	94.130	-0.030	0.440	0.580
2020/01/31 03:12:49.5	94.140	-0.070	0.470	0.590
2020/01/31 03:12:49.6	94.140	-0.120	0.490	0.600
2020/01/31 03:12:49.7	94.140	-0.160	0.520	0.610
2020/01/31 03:12:49.8	94.150	-0.200	0.530	0.630
2020/01/31 03:12:49.9	94.150	-0.250	0.550	0.640
2020/01/31 03:12:50.0	94.150	-0.280	0.560	0.660
2020/01/31 03:12:50.1	94.140	-0.320	0.560	0.670
2020/01/31 03:12:50.2	94.140	-0.360	0.560	0.690
2020/01/31 03:12:50.3	94.140	-0.390	0.550	0.710
2020/01/31 03:12:50.4	94.140	-0.420	0.540	0.740
2020/01/31 03:12:50.5	94.140	-0.440	0.530	0.760
2020/01/31 03:12:50.6	94.140	-0.460	0.510	0.780
2020/01/31 03:12:50.7	94.130	-0.480	0.490	0.810
2020/01/31 03:12:50.8	94.130	-0.500	0.460	0.830
2020/01/31 03:12:50.9	94.130	-0.510	0.430	0.860
2020/01/31 03:12:51.0	94.130	-0.520	0.390	0.880
2020/01/31 03:12:51.1	94.140	-0.530	0.360	0.900
2020/01/31 03:12:51.2	94.150	-0.530	0.310	0.930
2020/01/31 03:12:51.3	94.150	-0.530	0.270	0.950
2020/01/31 03:12:51.4	94.150	-0.530	0.220	0.980
2020/01/31 03:12:51.5	94.160	-0.520	0.170	1.000
2020/01/31 03:12:51.6	94.160	-0.510	0.120	1.030
2020/01/31 03:12:51.7	94.170	-0.500	0.060	1.050
2020/01/31 03:12:51.8	94.170	-0.480	0.010	1.070
2020/01/31 03:12:51.9	94.180	-0.470	-0.050	1.090
2020/01/31 03:12:52.0	94.190	-0.450	-0.110	1.110
2020/01/31 03:12:52.1	94.190	-0.430	-0.170	1.130
2020/01/31 03:12:52.2	94.190	-0.400	-0.220	1.150
2020/01/31 03:12:52.3	94.200	-0.380	-0.280	1.170
2020/01/31 03:12:52.4	94.200	-0.350	-0.330	1.190
2020/01/31 03:12:52.5	94.200	-0.330	-0.390	1.210
2020/01/31 03:12:52.6	94.210	-0.300	-0.440	1.230
2020/01/31 03:12:52.7	94.210	-0.270	-0.490	1.250
2020/01/31 03:12:52.8	94.210	-0.240	-0.530	1.260
2020/01/31 03:12:52.9	94.210	-0.210	-0.580	1.280
2020/01/31 03:12:53.0	94.210	-0.180	-0.620	1.300
2020/01/31 03:12:53.1	94.210	-0.150	-0.660	1.300
2020/01/31 03:12:53.2	94.200	-0.130	-0.690	1.320
2020/01/31 03:12:53.3	94.200	-0.100	-0.720	1.330
2020/01/31 03:12:53.4	94.200	-0.070	-0.750	1.340
2020/01/31 03:12:53.5	94.200	-0.050	-0.770	1.350
2020/01/31 03:12:53.6	94.200	-0.020	-0.800	1.360
2020/01/31 03:12:53.7	94.200	0.000	-0.810	1.360
2020/01/31 03:12:53.8	94.190	0.020	-0.830	1.360
2020/01/31 03:12:53.9	94.190	0.040	-0.840	1.370
2020/01/31 03:12:54.0	94.190	0.060	-0.840	1.370
2020/01/31 03:12:54.1	94.190	0.080	-0.840	1.360
2020/01/31 03:12:54.2	94.190	0.090	-0.840	1.360
2020/01/31 03:12:54.3	94.190	0.100	-0.840	1.360
2020/01/31 03:12:54.4	94.180	0.110	-0.830	1.350
2020/01/31 03:12:54.5	94.180	0.120	-0.830	1.350
2020/01/31 03:12:54.6	94.180	0.130	-0.810	1.340
2020/01/31 03:12:54.7	94.180	0.130	-0.800	1.340
2020/01/31 03:12:54.8	94.170	0.130	-0.780	1.330
2020/01/31 03:12:54.9	94.170	0.130	-0.760	1.320
2020/01/31 03:12:55.0	94.160	0.130	-0.730	1.320
2020/01/31 03:12:55.1	94.160	0.130	-0.700	1.300
2020/01/31 03:12:55.2	94.160	0.120	-0.670	1.290
2020/01/31 03:12:55.3	94.150	0.120	-0.640	1.280
2020/01/31 03:12:55.4	94.140	0.110	-0.600	1.270
2020/01/31 03:12:55.5	94.130	0.100	-0.560	1.260
2020/01/31 03:12:55.6	94.110	0.080	-0.520	1.250
2020/01/31 03:12:55.7	94.100	0.070	-0.470	1.230
2020/01/31 03:12:55.8	94.080	0.050	-0.430	1.220
2020/01/31 03:12:55.9	94.070	0.040	-0.380	1.200
2020/01/31 03:12:56.0	94.050	0.020	-0.330	1.180
2020/01/31 03:12:56.1	94.030	0.000	-0.270	1.150
2020/01/31 03:12:56.2	94.010	-0.020	-0.220	1.130
2020/01/31 03:12:56.3	94.000	-0.040	-0.170	1.110
2020/01/31 03:12:56.4	93.980	-0.060	-0.120	1.090
2020/01/31 03:12:56.5	93.960	-0.080	-0.070	1.060
2020/01/31 03:12:56.6	93.950	-0.100	-0.020	1.030
2020/01/31 03:12:56.7	93.930	-0.120	0.020	1.010
2020/01/31 03:12:56.8	93.920	-0.140	0.070	0.980
2020/01/31 03:12:56.9	93.900	-0.160	0.110	0.950
2020/01/31 03:12:57.0	93.890	-0.180	0.140	0.920
2020/01/31 03:12:57.1	93.870	-0.190	0.170	0.890
2020/01/31 03:12:57.2	93.860	-0.200	0.200	0.850
2020/01/31 03:12:57.3	93.850	-0.220	0.220	0.820
2020/01/31 03:12:57.4	93.850	-0.230	0.240	0.790
2020/01/31 03:12:57.5	93.840	-0.230	0.250	0.760
2020/01/31 03:12:57.6	93.840	-0.240	0.250	0.720
2020/01/31 03:12:57.7	93.840	-0.240	0.250	0.690
2020/01/31 03:12:57.8	93.840	-0.240	0.250	0.660
2020/01/31 03:12:57.9	93.850	-0.240	0.240	0.630
2020/01/31 03:12:58.0	93.850	-0.230	0.220	0.590
2020/01/31 03:12:58.1	93.880	-0.220	0.200	0.560
2020/01/31 03:12:58.2	93.880	-0.210	0.180	0.530
2020/01/31 03:12:58.3	93.900	-0.200	0.150	0.500
2020/01/31 03:12:58.4				
2020/01/31 03:12:58.5	93.910	-0.180	0.110	0.470
2020/01/31 03:12:58.6	93.930	-0.150	0.040	0.420
2020/01/31 03:12:58.7	93.950	-0.130	-0.010	0.400
2020/01/31 03:12:58.8	93.960	-0.110	-0.050	0.380
2020/01/31 03:12:58.9	93.970	-0.080	-0.090	0.370
2020/01/31 03:12:59.0	93.980	-0.060	-0.140	0.350
2020/01/31 03:12:59.1	93.980	-0.040	-0.180	0.350
2020/01/31 03:12:59.2	93.990	-0.010	-0.220	0.340
2020/01/31 03:12:59.3	94.000	0.010	-0.260	0.330
2020/01/31 03:12:59.4	94.000	0.030	-0.300	0.320
2020/01/31 03:12:59.5	94.010	0.050	-0.330	0.320
2020/01/31 03:12:59.6	94.020	0.070	-0.360	0.320
2020/01/31 03:12:59.7	94.020	0.080	-0.390	0.320
2020/01/31 03:12:59.8	94.030	0.100	-0.410	0.320
2020/01/31 03:12:59.9	94.030	0.110	-0.430	0.320
2020/01/31 03:13:00.0	94.040	0.120	-0.440	0.320
2020/01/31 03:13:00.1	94.050	0.130	-0.440	0.320
2020/01/31 03:13:00.2	94.050	0.130	-0.440	0.330
2020/01/31 03:13:00.3	94.050	0.130	-0.440	0.330
2020/01/31 03:13:00.4	94.050	0.130	-0.430	0.340
2020/01/31 03:13:00.5	94.050	0.130	-0.420	0.350
2020/01/31 03:13:00.6	94.050	0.120	-0.400	0.370
2020/01/31 03:13:00.7	94.060	0.110	-0.380	0.380
2020/01/31 03:13:00.8	94.060	0.110	-0.360	0.400
2020/01/31 03:13:00.9	94.060	0.090	-0.330	0.420
2020/01/31 03:13:01.0	94.060	0.080	-0.300	0.440
2020/01/31 03:13:01.1	94.050	0.070	-0.270	0.460
2020/01/31 03:13:01.2	94.050	0.050	-0.240	0.480
2020/01/31 03:13:01.3	94.050	0.040	-0.210	0.510
2020/01/31 03:13:01.4	94.060	0.020	-0.180	0.540
2020/01/31 03:13:01.5	94.060	0.010	-0.150	0.570
2020/01/31 03:13:01.6	94.060	-0.010	-0.120	0.600
2020/01/31 03:13:01.7	94.060	-0.020	-0.090	0.630
2020/01/31 03:13:01.8	94.070	-0.030	-0.070	0.670
2020/01/31 03:13:01.9	94.070	-0.050	-0.050	0.700
2020/01/31 03:13:02.0	94.070	-0.060	-0.030	0.730
2020/01/31 03:13:02.1	94.090	-0.070	-0.020	0.760
2020/01/31 03:13:02.2	94.100	-0.070	-0.010	0.790
2020/01/31 03:13:02.3	94.100	-0.080	-0.000	0.820
2020/01/31 03:13:02.4	94.100	-0.080	-0.000	0.850
2020/01/31 03:13:02.5	94.100	-0.080	-0.010	0.880
2020/01/31 03:13:02.6	94.110	-0.080	-0.020	0.900
2020/01/31 03:13:02.7	94.110	-0.070	-0.030	0.920
2020/01/31 03:13:02.8	94.110	-0.070	-0.050	0.940
2020/01/31 03:13:02.9	94.110	-0.060	-0.070	0.960
2020/01/31 03:13:03.0	94.100	-0.050	-0.090	0.970
2020/01/31 03:13:03.1	94.090	-0.030	-0.120	0.980
2020/01/31 03:13:03.2	94.090	-0.010	-0.160	0.990
2020/01/31 03:13:03.3	94.080	0.000	-0.190	1.000
2020/01/31 03:13:03.4	94.070	0.030	-0.230	1.010
2020/01/31 03:13:03.5	94.060	0.050	-0.270	1.020
2020/01/31 03:13:03.6	94.050	0.070	-0.310	1.020
2020/01/31 03:13:03.7	94.030	0.100	-0.350	1.020
2020/01/31 03:13:03.8	94.020	0.130	-0.390	1.030
2020/01/31 03:13:03.9	94.010	0.160	-0.430	1.030
2020/01/31 03:13:04.0	94.000	0.180	-0.470	1.030
2020/01/31 03:13:04.1	93.980	0.210	-0.510	1.020
2020/01/31 03:13:04.2	93.970	0.240	-0.540	1.020
2020/01/31 03:13:04.3	93.960	0.270	-0.570	1.020
2020/01/31 03:13:04.4	93.950	0.290	-0.600	1.020
2020/01/31 03:13:04.5	93.940	0.310	-0.620	1.020
2020/01/31 03:13:04.6	93.930	0.330	-0.640	1.010
2020/01/31 03:13:04.7	93.930	0.350	-0.650	1.010
2020/01/31 03:13:04.8	93.920	0.370	-0.660	1.000
2020/01/31 03:13:04.9	93.920	0.380	-0.660	1.000
2020/01/31 03:13:05.0	93.920	0.390	-0.650	0.990
2020/01/31 03:13:05.1	93.910	0.390	-0.650	0.990
2020/01/31 03:13:05.2	93.920	0.390	-0.630	0.980
2020/01/31 03:13:05.3	93.920	0.390	-0.610	0.980
2020/01/31 03:13:05.4	93.920	0.380	-0.590	0.970
2020/01/31 03:13:05.5	93.930	0.370	-0.560	0.960
2020/01/31 03:13:05.6	93.930	0.360	-0.530	0.960
2020/01/31 03:13:05.7	93.940	0.340	-0.490	0.950
2020/01/31 03:13:05.8	93.950	0.320	-0.450	0.940
2020/01/31 03:13:05.9	93.960	0.290	-0.410	0.940
2020/01/31 03:13:06.0	93.970	0.260	-0.360	0.930
2020/01/31 03:13:06.1	93.960	0.230	-0.310	0.920
2020/01/31 03:13:06.2	93.970	0.200	-0.260	0.910
2020/01/31 03:13:06.3	93.980	0.160	-0.210	0.910
2020/01/31 03:13:06.4	93.990	0.120	-0.160	0.910
2020/01/31 03:13:06.5	94.000	0.080	-0.120	0.900
2020/01/31 03:13:06.6	94.000	0.040	-0.070	0.900
2020/01/31 03:13:06.7	94.010	0.000	-0.020	0.900
2020/01/31 03:13:06.8	94.010	-0.040	0.020	0.910
2020/01/31 03:13:06.9	94.020	-0.080	0.060	0.910
2020/01/31 03:13:07.0	94.020	-0.120	0.100	0.920
2020/01/31 03:13:07.1	94.040	-0.160	0.130	0.920
2020/01/31 03:13:07.2	94.040	-0.190	0.160	0.930
2020/01/31 03:13:07.3	94.040	-0.220	0.190	0.940
2020/01/31 03:13:07.4	94.030	-0.260	0.210	0.950
2020/01/31 03:13:07.5	94.030	-0.290	0.230	0.950
2020/01/31 03:13:07.6	94.030	-0.310	0.240	0.960
2020/01/31 03:13:07.7	94.020	-0.330	0.240	0.960
2020/01/31 03:13:07.8	94.020	-0.350	0.250	0.970
2020/01/31 03:13:07.9	94.010	-0.370	0.240	0.970
2020/01/31 03:13:08.0	94.010	-0.380	0.230	0.970
2020/01/31 03:13:08.1	94.010	-0.390	0.220	0.970
2020/01/31 03:13:08.2	94.010	-0.400	0.200	0.960
2020/01/31 03:13:08.3	94.010	-0.400	0.180	0.960
2020/01/31 03:13:08.4	94.010	-0.410	0.150	0.950
2020/01/31 03:13:08.5	94.010	-0.400	0.120	0.950
2020/01/31 03:13:08.6	94.010	-0.400	0.090	0.940
2020/01/31 03:13:08.7	94.020	-0.390	0.050	0.930
2020/01/31 03:13:08.8	94.020	-0.380	0.010	0.930
2020/01/31 03:13:08.9	94.030	-0.360	-0.030	0.920
2020/01/31 03:13:09.0	94.030	-0.340	-0.080	0.920
2020/01/31 03:13:09.1	94.040	-0.330	-0.120	0.900
2020/01/31 03:13:09.2	94.050	-0.300	-0.170	0.900
2020/01/31 03:13:09.3	94.050	-0.280	-0.220	0.900
2020/01/31 03:13:09.4	94.060	-0.260	-0.270	0.890
2020/01/31 03:13:09.5	94.070	-0.230	-0.310	0.890
2020/01/31 03:13:09.6	94.080	-0.210	-0.360	0.890
2020/01/31 03:13:09.7	94.090	-0.180	-0.410	0.880
2020/01/31 03:13:09.8	94.100	-0.160	-0.450	0.880
2020/01/31 03:13:09.9	94.110	-0.130	-0.490	0.870
2020/01/31 03:13:10.0	94.130	-0.110	-0.530	0.870
2020/01/31 03:13:10.1	94.130	-0.090	-0.560	0.860
2020/01/31 03:13:10.2	94.150	-0.070	-0.590	0.850
2020/01/31 03:13:10.3	94.160	-0.050	-0.610	0.840
2020/01/31 03:13:10.4	94.170	-0.030	-0.630	0.830
2020/01/31 03:13:10.5	94.190	-0.010	-0.640	0.810
2020/01/31 03:13:10.6	94.200	0.000	-0.650	0.800
2020/01/31 03:13:10.7	94.210	0.020	-0.650	0.790
2020/01/31 03:13:10.8	94.230	0.020	-0.640	0.770
2020/01/31 03:13:10.9	94.240	0.030	-0.620	0.760
2020/01/31 03:13:11.0	94.250	0.040	-0.600	0.740
2020/01/31 03:13:11.1	94.260	0.040	-0.570	0.720
2020/01/31 03:13:11.2	94.270	0.040	-0.530	0.710
2020/01/31 03:13:11.3	94.270	0.030	-0.490	0.700
2020/01/31 03:13:11.4	94.280	0.030	-0.440	0.690
2020/01/31 03:13:11.5	94.290	0.020	-0.390	0.680
2020/01/31 03:13:11.6	94.290	0.010	-0.330	0.680
2020/01/31 03:13:11.7	94.290	0.000	-0.270	0.670
2020/01/31 03:13:11.8	94.290	-0.010	-0.200	0.670
2020/01/31 03:13:11.9	94.290	-0.020	-0.140	0.670
2020/01/31 03:13:12.0	94.290	-0.040	-0.070	0.670
2020/01/31 03:13:12.1	94.280	-0.060	0.000	0.670
2020/01/31 03:13:12.2	94.270	-0.070	0.070	0.670
2020/01/31 03:13:12.3	94.260	-0.090	0.140	0.680
2020/01/31 03:13:12.4	94.250	-0.110	0.200	0.690
2020/01/31 03:13:12.5	94.240	-0.120	0.250	0.690
2020/01/31 03:13:12.6	94.220	-0.140	0.310	0.700
2020/01/31 03:13:12.7	94.210	-0.150	0.350	0.710
2020/01/31 03:13:12.8	94.190	-0.160	0.390	0.720
2020/01/31 03:13:12.9	94.170	-0.170	0.420	0.730
2020/01/31 03:13:13.0	94.150	-0.180	0.440	0.730
2020/01/31 03:13:13.1	94.140	-0.190	0.460	0.740
2020/01/31 03:13:13.2	94.120	-0.190	0.460	0.750
2020/01/31 03:13:13.3	94.110	-0.200	0.450	0.750
2020/01/31 03:13:13.4	94.090	-0.200	0.440	0.750
2020/01/31 03:13:13.5	94.070	-0.190	0.410	0.750
2020/01/31 03:13:13.6	94.050	-0.180	0.370	0.750
2020/01/31 03:13:13.7	94.030	-0.170	0.330	0.750
2020/01/31 03:13:13.8	94.020	-0.160	0.270	0.740
2020/01/31 03:13:13.9	94.000	-0.150	0.210	0.730
2020/01/31 03:13:14.0	93.990	-0.130	0.140	0.720
2020/01/31 03:13:14.1	93.980	-0.100	0.060	0.700
2020/01/31 03:13:14.2	93.970	-0.080	-0.030	0.690
2020/01/31 03:13:14.3	93.970	-0.050	-0.120	0.670
2020/01/31 03:13:14.4	93.970	-0.020	-0.220	0.650
2020/01/31 03:13:14.5	93.970	0.010	-0.320	0.640
2020/01/31 03:13:14.6	93.970	0.050	-0.430	0.620
2020/01/31 03:13:14.7	93.970	0.080	-0.540	0.600
2020/01/31 03:13:14.8	93.970	0.120	-0.640	0.580
2020/01/31 03:13:14.9	93.980	0.150	-0.750	0.560
2020/01/31 03:13:15.0	93.990	0.190	-0.850	0.540
2020/01/31 03:13:15.1	94.000	0.230	-0.950	0.520
2020/01/31 03:13:15.2	94.010	0.260	-1.040	0.500
2020/01/31 03:13:15.3	94.020	0.300	-1.120	0.490
2020/01/31 03:13:15.4	94.040	0.330	-1.200	0.480
2020/01/31 03:13:15.5	94.060	0.360	-1.260	0.470
2020/01/31 03:13:15.6	94.070	0.380	-1.320	0.470
2020/01/31 03:13:15.7	94.090	0.400	-1.360	0.470
2020/01/31 03:13:15.8	94.110	0.420	-1.390	0.470
2020/01/31 03:13:15.9	94.120	0.430	-1.400	0.480
2020/01/31 03:13:16.0	94.140	0.440	-1.400	0.490
2020/01/31 03:13:16.1	94.130	0.450	-1.390	0.500
2020/01/31 03:13:16.2	94.150	0.440	-1.360	0.530
2020/01/31 03:13:16.3	94.160	0.440	-1.310	0.550
2020/01/31 03:13:16.4	94.170	0.430	-1.260	0.580
2020/01/31 03:13:16.5	94.180	0.410	-1.180	0.610
2020/01/31 03:13:16.6	94.180	0.390	-1.100	0.650
2020/01/31 03:13:16.7	94.190	0.360	-1.000	0.690
2020/01/31 03:13:16.8	94.190	0.330	-0.900	0.730
2020/01/31 03:13:16.9	94.190	0.290	-0.780	0.780
2020/01/31 03:13:17.0	94.190	0.250	-0.660	0.820
2020/01/31 03:13:17.1	94.190	0.200	-0.530	0.870
2020/01/31 03:13:17.2	94.180	0.150	-0.390	0.920
2020/01/31 03:13:17.3	94.180	0.100	-0.250	0.960
2020/01/31 03:13:17.4	94.170	0.040	-0.110	1.010
2020/01/31 03:13:17.5	94.160	-0.020	0.030	1.060
2020/01/31 03:13:17.6	94.150	-0.080	0.170	1.100
2020/01/31 03:13:17.7	94.140	-0.140	0.300	1.140
2020/01/31 03:13:17.8	94.130	-0.200	0.430	1.180
2020/01/31 03:13:17.9	94.120	-0.260	0.550	1.220
2020/01/31 03:13:18.0	94.110	-0.320	0.670	1.250
2020/01/31 03:13:18.1	94.090	-0.380	0.770	1.280
2020/01/31 03:13:18.2	94.080	-0.430	0.860	1.300
2020/01/31 03:13:18.3	94.070	-0.480	0.950	1.320
2020/01/31 03:13:18.4	94.060	-0.530	1.020	1.340
2020/01/31 03:13:18.5	94.060	-0.580	1.070	1.350
2020/01/31 03:13:18.6	94.050	-0.610	1.120	1.360
2020/01/31 03:13:18.7	94.040	-0.650	1.140	1.370
2020/01/31 03:13:18.8	94.040	-0.680	1.160	1.370
2020/01/31 03:13:18.9	94.040	-0.700	1.160	1.360
2020/01/31 03:13:19.0	94.040	-0.720	1.140	1.360
2020/01/31 03:13:19.1	94.060	-0.730	1.110	1.340
2020/01/31 03:13:19.2	94.060	-0.730	1.070	1.330
2020/01/31 03:13:19.3	94.060	-0.720	1.010	1.310
2020/01/31 03:13:19.4	94.070	-0.710	0.930	1.290
2020/01/31 03:13:19.5	94.080	-0.690	0.850	1.260
2020/01/31 03:13:19.6	94.090	-0.670	0.750	1.230
2020/01/31 03:13:19.7	94.100	-0.640	0.650	1.200
2020/01/31 03:13:19.8	94.110	-0.600	0.530	1.170
2020/01/31 03:13:19.9	94.130	-0.550	0.410	1.130
2020/01/31 03:13:20.0	94.140	-0.500	0.280	1.090
2020/01/31 03:13:20.1	94.170	-0.440	0.140	1.050
2020/01/31 03:13:20.2	94.180	-0.380	0.000	1.010
2020/01/31 03:13:20.3	94.200	-0.310	-0.130	0.970
2020/01/31 03:13:20.4	94.210	-0.240	-0.270	0.930
2020/01/31 03:13:20.5	94.220	-0.170	-0.410	0.890
2020/01/31 03:13:20.6	94.230	-0.100	-0.540	0.850
2020/01/31 03:13:20.7	94.250	-0.020	-0.660	0.800
2020/01/31 03:13:20.8	94.260	0.060	-0.780	0.760
2020/01/31 03:13:20.9	94.270	0.130	-0.890	0.720
2020/01/31 03:13:21.0	94.280	0.210	-0.990	0.680
2020/01/31 03:13:21.1	94.290	0.280	-1.080	0.630
2020/01/31 03:13:21.2	94.300	0.350	-1.160	0.590
2020/01/31 03:13:21.3	94.310	0.420	-1.220	0.550
2020/01/31 03:13:21.4	94.310	0.480	-1.270	0.510
2020/01/31 03:13:21.5	94.320	0.540	-1.310	0.470
2020/01/31 03:13:21.6	94.320	0.600	-1.330	0.430
2020/01/31 03:13:21.7	94.330	0.650	-1.340	0.400
2020/01/31 03:13:21.8	94.330	0.690	-1.330	0.370
2020/01/31 03:13:21.9	94.340	0.730	-1.310	0.340
2020/01/31 03:13:22.0	94.340	0.760	-1.280	0.310
2020/01/31 03:13:22.1	94.330	0.780	-1.230	0.290
2020/01/31 03:13:22.2	94.330	0.800	-1.180	0.270
2020/01/31 03:13:22.3	94.330	0.810	-1.110	0.250
2020/01/31 03:13:22.4	94.330	0.810	-1.040	0.240
2020/01/31 03:13:22.5	94.330	0.810	-0.960	0.230
2020/01/31 03:13:22.6	94.330	0.810	-0.870	0.220
2020/01/31 03:13:22.7	94.330	0.790	-0.780	0.220
2020/01/31 03:13:22.8	94.330	0.770	-0.690	0.220
2020/01/31 03:13:22.9	94.330	0.750	-0.590	0.220
2020/01/31 03:13:23.0	94.330	0.720	-0.500	0.230
2020/01/31 03:13:23.1	94.310	0.690	-0.400	0.240
2020/01/31 03:13:23.2	94.310	0.660	-0.310	0.250
2020/01/31 03:13:23.3	94.300	0.620	-0.220	0.270
2020/01/31 03:13:23.4	94.300	0.580	-0.140	0.290
2020/01/31 03:13:23.5	94.290	0.530	-0.060	0.310
2020/01/31 03:13:23.6	94.290	0.490	0.010	0.340
2020/01/31 03:13:23.7	94.280	0.450	0.070	0.370
2020/01/31 03:13:23.8	94.280	0.400	0.130	0.390
2020/01/31 03:13:23.9	94.270	0.360	0.180	0.420
2020/01/31 03:13:24.0	94.270	0.310	0.220	0.440
2020/01/31 03:13:24.1	94.250	0.270	0.240	0.460
2020/01/31 03:13:24.2	94.250	0.230	0.260	0.490
2020/01/31 03:13:24.3	94.250	0.190	0.280	0.510
2020/01/31 03:13:24.4	94.250	0.150	0.280	0.530
2020/01/31 03:13:24.5	94.250	0.110	0.280	0.550
2020/01/31 03:13:24.6	94.250	0.080	0.270	0.560
2020/01/31 03:13:24.7	94.250	0.050	0.260	0.580
2020/01/31 03:13:24.8	94.250	0.020	0.240	0.590
2020/01/31 03:13:24.9	94.260	-0.010	0.210	0.610
2020/01/31 03:13:25.0	94.260	-0.040	0.180	0.620
2020/01/31 03:13:25.1	94.260	-0.060	0.150	0.630
2020/01/31 03:13:25.2	94.270	-0.090	0.120	0.650
2020/01/31 03:13:25.3	94.270	-0.110	0.090	0.660
2020/01/31 03:13:25.4	94.270	-0.130	0.060	0.680
2020/01/31 03:13:25.5	94.280	-0.150	0.030	0.690
2020/01/31 03:13:25.6	94.280	-0.170	0.000	0.710
2020/01/31 03:13:25.7	94.280	-0.190	-0.020	0.720
2020/01/31 03:13:25.8	94.290	-0.210	-0.040	0.740
2020/01/31 03:13:25.9	94.290	-0.230	-0.060	0.760
2020/01/31 03:13:26.0	94.290	-0.250	-0.070	0.780
2020/01/31 03:13:26.1	94.290	-0.270	-0.090	0.800
2020/01/31 03:13:26.2	94.300	-0.290	-0.090	0.820
2020/01/31 03:13:26.3	94.300	-0.320	-0.100	0.840
2020/01/31 03:13:26.4	94.310	-0.340	-0.100	0.850
2020/01/31 03:13:26.5	94.310	-0.360	-0.090	0.870
2020/01/31 03:13:26.6	94.320	-0.380	-0.090	0.890
2020/01/31 03:13:26.7	94.330	-0.400	-0.080	0.910
2020/01/31 03:13:26.8	94.330	-0.410	-0.070	0.930
2020/01/31 03:13:26.9	94.340	-0.430	-0.070	0.940
2020/01/31 03:13:27.0	94.350	-0.450	-0.060	0.960
2020/01/31 03:13:27.1	94.360	-0.470	-0.040	0.970
2020/01/31 03:13:27.2	94.370	-0.480	-0.040	0.980
2020/01/31 03:13:27.3	94.380	-0.500	-0.030	0.990
2020/01/31 03:13:27.4	94.390	-0.510	-0.030	1.000
2020/01/31 03:13:27.5	94.400	-0.520	-0.020	1.010
2020/01/31 03:13:27.6	94.410	-0.520	-0.020	1.020
2020/01/31 03:13:27.7	94.420	-0.530	-0.030	1.030
2020/01/31 03:13:27.8	94.430	-0.530	-0.030	1.040
2020/01/31 03:13:27.9	94.430	-0.530	-0.040	1.050
2020/01/31 03:13:28.0	94.440	-0.530	-0.060	1.060
2020/01/31 03:13:28.1	94.450	-0.520	-0.070	1.070
2020/01/31 03:13:28.2	94.460	-0.510	-0.090	1.070
2020/01/31 03:13:28.3	94.460	-0.500	-0.120	1.080
2020/01/31 03:13:28.4	94.470	-0.480	-0.140	1.090
2020/01/31 03:13:28.5	94.470	-0.460	-0.170	1.100
2020/01/31 03:13:28.6	94.470	-0.440	-0.200	1.110
2020/01/31 03:13:28.7	94.470	-0.420	-0.240	1.120
2020/01/31 03:13:28.8	94.470	-0.390	-0.270	1.120
2020/01/31 03:13:28.9	94.470	-0.360	-0.310	1.120
2020/01/31 03:13:29.0	94.460	-0.330	-0.350	1.130
2020/01/31 03:13:29.1	94.470	-0.290	-0.380	1.120
2020/01/31 03:13:29.2	94.460	-0.260	-0.420	1.120
2020/01/31 03:13:29.3	94.460	-0.220	-0.460	1.110
2020/01/31 03:13:29.4	94.460	-0.190	-0.490	1.100
2020/01/31 03:13:29.5	94.460	-0.150	-0.520	1.090
2020/01/31 03:13:29.6	94.450	-0.110	-0.550	1.070
2020/01/31 03:13:29.7	94.450	-0.080	-0.580	1.050
2020/01/31 03:13:29.8	94.450	-0.040	-0.600	1.020
2020/01/31 03:13:29.9	94.450	-0.010	-0.620	1.000
2020/01/31 03:13:30.0	94.440	0.020	-0.630	0.960
2020/01/31 03:13:30.1	94.440	0.060	-0.640	0.930
2020/01/31 03:13:30.2	94.440	0.080	-0.650	0.890
2020/01/31 03:13:30.3	94.430	0.110	-0.650	0.860
2020/01/31 03:13:30.4	94.430	0.140	-0.640	0.820
2020/01/31 03:13:30.5	94.420	0.160	-0.630	0.780
2020/01/31 03:13:30.6	94.420	0.180	-0.620	0.740
2020/01/31 03:13:30.7	94.410	0.190	-0.600	0.710
2020/01/31 03:13:30.8	94.400	0.210	-0.570	0.670
2020/01/31 03:13:30.9	94.390	0.220	-0.550	0.640
2020/01/31 03:13:31.0	94.380	0.230	-0.520	0.610
2020/01/31 03:13:31.1	94.380	0.240	-0.480	0.580
2020/01/31 03:13:31.2	94.370	0.240	-0.440	0.560
2020/01/31 03:13:31.3	94.360	0.250	-0.400	0.540
2020/01/31 03:13:31.4	94.340	0.250	-0.360	0.520
2020/01/31 03:13:31.5	94.330	0.250	-0.320	0.500
2020/01/31 03:13:31.6	94.320	0.250	-0.280	0.490
2020/01/31 03:13:31.7	94.300	0.240	-0.240	0.480
2020/01/31 03:13:31.8	94.290	0.240	-0.200	0.470
2020/01/31 03:13:31.9	94.280	0.230	-0.160	0.460
2020/01/31 03:13:32.0	94.260	0.230	-0.130	0.450
2020/01/31 03:13:32.1	94.220	0.220	-0.100	0.440
2020/01/31 03:13:32.2	94.210	0.220	-0.070	0.430
2020/01/31 03:13:32.3	94.200	0.210	-0.050	0.420
2020/01/31 03:13:32.4	94.190	0.210	-0.030	0.420
2020/01/31 03:13:32.5	94.190	0.200	-0.010	0.410
2020/01/31 03:13:32.6	94.180	0.200	0.000	0.400
2020/01/31 03:13:32.7	94.180	0.190	0.010	0.390
2020/01/31 03:13:32.8	94.180	0.190	0.010	0.380
2020/01/31 03:13:32.9	94.180	0.190	0.010	0.380
2020/01/31 03:13:33.0	94.180	0.190	0.000	0.370
2020/01/31 03:13:33.1	94.170	0.190	-0.000	0.350
2020/01/31 03:13:33.2	94.180	0.190	-0.020	0.340
2020/01/31 03:13:33.3	94.180	0.190	-0.040	0.330
2020/01/31 03:13:33.4	94.190	0.190	-0.060	0.320
2020/01/31 03:13:33.5	94.200	0.190	-0.080	0.310
2020/01/31 03:13:33.6	94.210	0.200	-0.110	0.300
2020/01/31 03:13:33.7	94.220	0.200	-0.140	0.290
2020/01/31 03:13:33.8	94.230	0.200	-0.170	0.280
2020/01/31 03:13:33.9	94.240	0.200	-0.190	0.270
2020/01/31 03:13:34.0	94.260	0.210	-0.220	0.270
2020/01/31 03:13:34.1	94.260	0.210	-0.260	0.260
2020/01/31 03:13:34.2	94.280	0.210	-0.280	0.260
2020/01/31 03:13:34.3	94.290	0.210	-0.310	0.270
2020/01/31 03:13:34.4	94.300	0.210	-0.330	0.270
2020/01/31 03:13:34.5	94.310	0.210	-0.350	0.280
2020/01/31 03:13:34.6	94.320	0.210	-0.360	0.300
2020/01/31 03:13:34.7	94.330	0.200	-0.370	0.310
2020/01/31 03:13:34.8	94.340	0.200	-0.380	0.330
2020/01/31 03:13:34.9	94.340	0.190	-0.380	0.360
2020/01/31 03:13:35.0	94.350	0.180	-0.380	0.390
2020/01/31 03:13:35.1	94.340	0.160	-0.370	0.420
2020/01/31 03:13:35.2	94.340	0.150	-0.350	0.460
2020/01/31 03:13:35.3	94.340	0.130	-0.330	0.490
2020/01/31 03:13:35.4	94.340	0.110	-0.310	0.530
2020/01/31 03:13:35.5	94.330	0.090	-0.280	0.580
2020/01/31 03:13:35.6	94.330	0.060	-0.250	0.620
2020/01/31 03:13:35.7	94.320	0.040	-0.210	0.660
2020/01/31 03:13:35.8	94.310	0.010	-0.170	0.710
2020/01/31 03:13:35.9	94.300	-0.020	-0.130	0.750
2020/01/31 03:13:36.0	94.290	-0.050	-0.080	0.790
2020/01/31 03:13:36.1	94.280	-0.080	-0.040	0.830
2020/01/31 03:13:36.2	94.270	-0.120	0.010	0.870
2020/01/31 03:13:36.3	94.260	-0.150	0.050	0.910
2020/01/31 03:13:36.4	94.250	-0.180	0.100	0.940
2020/01/31 03:13:36.5	94.240	-0.220	0.140	0.980
2020/01/31 03:13:36.6	94.230	-0.250	0.170	1.000
2020/01/31 03:13:36.7	94.220	-0.280	0.210	1.030
2020/01/31 03:13:36.8	94.220	-0.310	0.240	1.050
2020/01/31 03:13:36.9	94.210	-0.330	0.260	1.070
2020/01/31 03:13:37.0	94.210	-0.350	0.270	1.080
2020/01/31 03:13:37.1	94.200	-0.370	0.290	1.090
2020/01/31 03:13:37.2	94.200	-0.390	0.290	1.100
2020/01/31 03:13:37.3	94.200	-0.400	0.280	1.100
2020/01/31 03:13:37.4	94.200	-0.410	0.270	1.100
2020/01/31 03:13:37.5	94.210	-0.410	0.240	1.090
2020/01/31 03:13:37.6	94.210	-0.400	0.210	1.090
2020/01/31 03:13:37.7	94.210	-0.400	0.170	1.080
2020/01/31 03:13:37.8	94.220	-0.380	0.120	1.080
2020/01/31 03:13:37.9	94.220	-0.360	0.070	1.070
2020/01/31 03:13:38.0	94.230	-0.340	0.010	1.060
2020/01/31 03:13:38.1	94.250	-0.310	-0.070	1.050
2020/01/31 03:13:38.2	94.260	-0.270	-0.140	1.040
2020/01/31 03:13:38.3	94.260	-0.230	-0.220	1.030
2020/01/31 03:13:38.4	94.270	-0.190	-0.300	1.020
2020/01/31 03:13:38.5	94.280	-0.140	-0.380	1.010
2020/01/31 03:13:38.6	94.280	-0.090	-0.460	1.000
2020/01/31 03:13:38.7	94.290	-0.030	-0.540	0.990
2020/01/31 03:13:38.8	94.300	0.020	-0.630	0.980
2020/01/31 03:13:38.9	94.310	0.080	-0.700	0.970
2020/01/31 03:13:39.0	94.320	0.140	-0.780	0.960
2020/01/31 03:13:39.1	94.330	0.200	-0.850	0.950
2020/01/31 03:13:39.2	94.340	0.260	-0.910	0.930
2020/01/31 03:13:39.3	94.350	0.320	-0.970	0.920
2020/01/31 03:13:39.4	94.360	0.380	-1.020	0.900
2020/01/31 03:13:39.5	94.370	0.430	-1.060	0.880
2020/01/31 03:13:39.6	94.380	0.480	-1.100	0.860
2020/01/31 03:13:39.7	94.390	0.530	-1.120	0.840
2020/01/31 03:13:39.8	94.400	0.570	-1.130	0.820
2020/01/31 03:13:39.9	94.410	0.610	-1.130	0.800
2020/01/31 03:13:40.0	94.420	0.650	-1.130	0.770
2020/01/31 03:13:40.1	94.410	0.670	-1.110	0.740
2020/01/31 03:13:40.2	94.420	0.700	-1.080	0.720
2020/01/31 03:13:40.3	94.430	0.710	-1.040	0.700
2020/01/31 03:13:40.4	94.440	0.720	-0.990	0.680
2020/01/31 03:13:40.5	94.450	0.730	-0.930	0.660
2020/01/31 03:13:40.6	94.450	0.730	-0.870	0.650
2020/01/31 03:13:40.7	94.460	0.720	-0.790	0.640
2020/01/31 03:13:40.8	94.460	0.710	-0.710	0.630
2020/01/31 03:13:40.9	94.460	0.690	-0.630	0.620
2020/01/31 03:13:41.0	94.460	0.670	-0.530	0.610
2020/01/31 03:13:41.1	94.450	0.640	-0.440	0.610
2020/01/31 03:13:41.2	94.450	0.610	-0.340	0.610
2020/01/31 03:13:41.3	94.440	0.570	-0.240	0.620
2020/01/31 03:13:41.4	94.440	0.530	-0.130	0.620
2020/01/31 03:13:41.5	94.430	0.480	-0.030	0.630
2020/01/31 03:13:41.6	94.420	0.430	0.070	0.650
2020/01/31 03:13:41.7	94.420	0.380	0.170	0.660
2020/01/31 03:13:41.8	94.410	0.330	0.270	0.680
2020/01/31 03:13:41.9	94.400	0.270	0.360	0.700
2020/01/31 03:13:42.0	94.390	0.220	0.450	0.720
2020/01/31 03:13:42.1	94.390	0.160	0.540	0.740
2020/01/31 03:13:42.2	94.380	0.110	0.610	0.760
2020/01/31 03:13:42.3	94.370	0.050	0.680	0.790
2020/01/31 03:13:42.4	94.360	-0.000	0.730	0.810
2020/01/31 03:13:42.5	94.350	-0.060	0.780	0.830
2020/01/31 03:13:42.6	94.350	-0.110	0.820	0.850
2020/01/31 03:13:42.7	94.340	-0.160	0.850	0.860
2020/01/31 03:13:42.8	94.330	-0.210	0.860	0.880
2020/01/31 03:13:42.9	94.320	-0.250	0.870	0.890
2020/01/31 03:13:43.0	94.320	-0.290	0.870	0.900
2020/01/31 03:13:43.1	94.310	-0.330	0.860	0.910
2020/01/31 03:13:43.2	94.310	-0.370	0.840	0.920
2020/01/31 03:13:43.3	94.310	-0.410	0.820	0.920
2020/01/31 03:13:43.4	94.310	-0.440	0.780	0.920
2020/01/31 03:13:43.5	94.310	-0.470	0.740	0.920
2020/01/31 03:13:43.6	94.320	-0.490	0.690	0.920
2020/01/31 03:13:43.7	94.320	-0.520	0.640	0.910
2020/01/31 03:13:43.8	94.330	-0.540	0.580	0.900
2020/01/31 03:13:43.9	94.340	-0.550	0.510	0.890
2020/01/31 03:13:44.0	94.350	-0.570	0.440	0.880
2020/01/31 03:13:44.1	94.360	-0.580	0.370	0.850
2020/01/31 03:13:44.2	94.370	-0.590	0.290	0.840
2020/01/31 03:13:44.3	94.390	-0.600	0.210	0.820
2020/01/31 03:13:44.4	94.400	-0.600	0.130	0.810
2020/01/31 03:13:44.5	94.420	-0.600	0.040	0.790
2020/01/31 03:13:44.6	94.430	-0.600	-0.040	0.780
2020/01/31 03:13:44.7	94.450	-0.590	-0.130	0.770
2020/01/31 03:13:44.8	94.470	-0.580	-0.220	0.760
2020/01/31 03:13:44.9	94.480	-0.570	-0.300	0.750
2020/01/31 03:13:45.0	94.500	-0.550	-0.390	0.740
2020/01/31 03:13:45.1	94.510	-0.530	-0.470	0.740
2020/01/31 03:13:45.2	94.530	-0.510	-0.550	0.740
2020/01/31 03:13:45.3	94.540	-0.490	-0.630	0.740
2020/01/31 03:13:45.4	94.560	-0.460	-0.710	0.740
2020/01/31 03:13:45.5	94.580	-0.430	-0.780	0.740
2020/01/31 03:13:45.6	94.590	-0.400	-0.850	0.750
2020/01/31 03:13:45.7	94.610	-0.370	-0.910	0.750
2020/01/31 03:13:45.8	94.630	-0.330	-0.970	0.750
2020/01/31 03:13:45.9	94.640	-0.300	-1.020	0.760
2020/01/31 03:13:46.0	94.660	-0.260	-1.060	0.770
2020/01/31 03:13:46.1	94.670	-0.230	-1.110	0.770
2020/01/31 03:13:46.2	94.680	-0.190	-1.140	0.780
2020/01/31 03:13:46.3	94.690	-0.150	-1.170	0.800
2020/01/31 03:13:46.4	94.710	-0.120	-1.190	0.810
2020/01/31 03:13:46.5	94.720	-0.080	-1.200	0.830
2020/01/31 03:13:46.6	94.730	-0.050	-1.210	0.850
2020/01/31 03:13:46.7	94.730	-0.010	-1.210	0.870
2020/01/31 03:13:46.8	94.740	0.020	-1.200	0.890
2020/01/31 03:13:46.9	94.740	0.050	-1.190	0.910
2020/01/31 03:13:47.0	94.740	0.080	-1.170	0.930
2020/01/31 03:13:47.1	94.730	0.100	-1.140	0.960
2020/01/31 03:13:47.2	94.730	0.130	-1.110	0.980
2020/01/31 03:13:47.3	94.730	0.150	-1.070	1.010
2020/01/31 03:13:47.4	94.730	0.160	-1.030	1.030
2020/01/31 03:13:47.5	94.720	0.180	-0.980	1.060
2020/01/31 03:13:47.6	94.720	0.190	-0.930	1.080
2020/01/31 03:13:47.7	94.720	0.190	-0.870	1.100
2020/01/31 03:13:47.8	94.710	0.200	-0.810	1.120
2020/01/31 03:13:47.9	94.710	0.200	-0.750	1.140
2020/01/31 03:13:48.0	94.700	0.200	-0.680	1.160
2020/01/31 03:13:48.1	94.700	0.190	-0.610	1.170
2020/01/31 03:13:48.2	94.690	0.180	-0.540	1.190
2020/01/31 03:13:48.3	94.690	0.170	-0.460	1.200
2020/01/31 03:13:48.4	94.690	0.160	-0.380	1.200
2020/01/31 03:13:48.5	94.680	0.140	-0.300	1.210
2020/01/31 03:13:48.6	94.680	0.120	-0.220	1.210
2020/01/31 03:13:48.7	94.680	0.100	-0.140	1.210
2020/01/31 03:13:48.8	94.680	0.080	-0.060	1.210
2020/01/31 03:13:48.9	94.680	0.050	0.020	1.210
2020/01/31 03:13:49.0	94.680	0.030	0.100	1.200
2020/01/31 03:13:49.1	94.680	0.010	0.170	1.190
2020/01/31 03:13:49.2	94.680	-0.020	0.240	1.170
2020/01/31 03:13:49.3	94.680	-0.040	0.310	1.160
2020/01/31 03:13:49.4	94.680	-0.060	0.380	1.140
2020/01/31 03:13:49.5	94.680	-0.090	0.430	1.110
2020/01/31 03:13:49.6	94.690	-0.110	0.490	1.080
2020/01/31 03:13:49.7	94.690	-0.130	0.530	1.050
2020/01/31 03:13:49.8	94.690	-0.140	0.570	1.020
2020/01/31 03:13:49.9	94.700	-0.160	0.600	0.990
2020/01/31 03:13:50.0	94.700	-0.170	0.620	0.950
2020/01/31 03:13:50.1	94.710	-0.180	0.640	0.900
2020/01/31 03:13:50.2	94.710	-0.190	0.640	0.860
2020/01/31 03:13:50.3	94.720	-0.190	0.640	0.810
2020/01/31 03:13:50.4	94.730	-0.190	0.630	0.760
2020/01/31 03:13:50.5	94.740	-0.190	0.610	0.710
2020/01/31 03:13:50.6	94.750	-0.180	0.580	0.650
2020/01/31 03:13:50.7	94.760	-0.170	0.550	0.600
2020/01/31 03:13:50.8	94.770	-0.160	0.500	0.540
2020/01/31 03:13:50.9	94.780	-0.140	0.450	0.490
2020/01/31 03:13:51.0	94.800	-0.120	0.390	0.430
2020/01/31 03:13:51.1	94.820	-0.100	0.330	0.370
2020/01/31 03:13:51.2	94.830	-0.080	0.260	0.320
2020/01/31 03:13:51.3	94.840	-0.050	0.190	0.270
2020/01/31 03:13:51.4	94.860	-0.020	0.110	0.220
2020/01/31 03:13:51.5	94.870	0.010	0.020	0.180
2020/01/31 03:13:51.6	94.880	0.050	-0.060	0.140
2020/01/31 03:13:51.7	94.890	0.090	-0.150	0.100
2020/01/31 03:13:51.8	94.900	0.120	-0.240	0.070
2020/01/31 03:13:51.9	94.910	0.160	-0.330	0.050
2020/01/31 03:13:52.0	94.920	0.210	-0.420	0.030
2020/01/31 03:13:52.1	94.930	0.250	-0.500	0.020
2020/01/31 03:13:52.2	94.930	0.290	-0.590	0.020
2020/01/31 03:13:52.3	94.930	0.330	-0.660	0.020
2020/01/31 03:13:52.4	94.940	0.370	-0.730	0.020
2020/01/31 03:13:52.5	94.940	0.410	-0.800	0.030
2020/01/31 03:13:52.6	94.930	0.440	-0.850	0.050
2020/01/31 03:13:52.7	94.930	0.480	-0.900	0.070
2020/01/31 03:13:52.8	94.920	0.510	-0.930	0.090
2020/01/31 03:13:52.9	94.910	0.530	-0.960	0.110
2020/01/31 03:13:53.0	94.900	0.550	-0.970	0.130
2020/01/31 03:13:53.1	94.890	0.570	-0.970	0.150
2020/01/31 03:13:53.2	94.880	0.580	-0.960	0.180
2020/01/31 03:13:53.3	94.870	0.590	-0.940	0.200
2020/01/31 03:13:53.4	94.860	0.590	-0.900	0.220
2020/01/31 03:13:53.5	94.850	0.590	-0.860	0.230
2020/01/31 03:13:53.6	94.840	0.580	-0.800	0.250
2020/01/31 03:13:53.7	94.830	0.560	-0.740	0.270
2020/01/31 03:13:53.8	94.820	0.540	-0.660	0.280
2020/01/31 03:13:53.9	94.810	0.510	-0.580	0.290
2020/01/31 03:13:54.0	94.810	0.480	-0.490	0.300
2020/01/31 03:13:54.1	94.800	0.450	-0.390	0.310
2020/01/31 03:13:54.2	94.790	0.410	-0.290	0.320
2020/01/31 03:13:54.3	94.780	0.360	-0.190	0.330
2020/01/31 03:13:54.4	94.780	0.320	-0.090	0.340
2020/01/31 03:13:54.5	94.780	0.270	0.010	0.340
2020/01/31 03:13:54.6	94.770	0.210	0.110	0.350
2020/01/31 03:13:54.7	94.770	0.160	0.210	0.360
2020/01/31 03:13:54.8	94.770	0.100	0.300	0.370
2020/01/31 03:13:54.9	94.770	0.050	0.390	0.390
2020/01/31 03:13:55.0	94.770	-0.010	0.470	0.400
2020/01/31 03:13:55.1	94.770	-0.060	0.550	0.410
2020/01/31 03:13:55.2	94.780	-0.110	0.610	0.430
2020/01/31 03:13:55.3	94.790	-0.160	0.660	0.440
2020/01/31 03:13:55.4	94.790	-0.200	0.700	0.460
2020/01/31 03:13:55.5	94.810	-0.250	0.730	0.470
2020/01/31 03:13:55.6	94.820	-0.280	0.750	0.490
2020/01/31 03:13:55.7	94.830	-0.320	0.750	0.510
2020/01/31 03:13:55.8	94.850	-0.340	0.750	0.520
2020/01/31 03:13:55.9	94.860	-0.370	0.720	0.540
2020/01/31 03:13:56.0	94.880	-0.380	0.690	0.550
2020/01/31 03:13:56.1	94.890	-0.390	0.640	0.550
2020/01/31 03:13:56.2	94.910	-0.400	0.590	0.560
2020/01/31 03:13:56.3	94.940	-0.400	0.520	0.570
2020/01/31 03:13:56.4	94.960	-0.390	0.440	0.580
2020/01/31 03:13:56.5	94.980	-0.380	0.360	0.580
2020/01/31 03:13:56.6	95.010	-0.360	0.260	0.590
2020/01/31 03:13:56.7	95.030	-0.330	0.160	0.590
2020/01/31 03:13:56.8	95.050	-0.300	0.050	0.590
2020/01/31 03:13:56.9	95.070	-0.270	-0.060	0.600
2020/01/31 03:13:57.0	95.090	-0.230	-0.180	0.600
2020/01/31 03:13:57.1	95.100	-0.190	-0.300	0.600
2020/01/31 03:13:57.2	95.120	-0.150	-0.420	0.600
2020/01/31 03:13:57.3	95.140	-0.100	-0.540	0.600
2020/01/31 03:13:57.4	95.150	-0.050	-0.660	0.600
2020/01/31 03:13:57.5	95.160	0.000	-0.780	0.600
2020/01/31 03:13:57.6	95.180	0.050	-0.890	0.600
2020/01/31 03:13:57.7	95.190	0.100	-0.990	0.610
2020/01/31 03:13:57.8	95.190	0.150	-1.080	0.610
2020/01/31 03:13:57.9	95.200	0.200	-1.170	0.620
2020/01/31 03:13:58.0	95.200	0.250	-1.240	0.640
2020/01/31 03:13:58.1	95.180	0.290	-1.310	0.650
2020/01/31 03:13:58.2	95.170	0.330	-1.360	0.670
2020/01/31 03:13:58.3	95.160	0.360	-1.400	0.690
2020/01/31 03:13:58.4	95.150	0.390	-1.420	0.720
2020/01/31 03:13:58.5	95.130	0.420	-1.430	0.750
2020/01/31 03:13:58.6	95.110	0.430	-1.420	0.790
2020/01/31 03:13:58.7	95.090	0.450	-1.400	0.820
2020/01/31 03:13:58.8	95.080	0.450	-1.360	0.860
2020/01/31 03:13:58.9	95.050	0.450	-1.320	0.900
2020/01/31 03:13:59.0	95.030	0.440	-1.260	0.940
2020/01/31 03:13:59.1	95.000	0.430	-1.180	0.980
2020/01/31 03:13:59.2	94.980	0.400	-1.090	1.020
2020/01/31 03:13:59.3	94.950	0.380	-1.000	1.050
2020/01/31 03:13:59.4	94.930	0.340	-0.900	1.090
2020/01/31 03:13:59.5	94.900	0.300	-0.790	1.120
2020/01/31 03:13:59.6	94.880	0.250	-0.680	1.150
2020/01/31 03:13:59.7	94.860	0.200	-0.560	1.180
2020/01/31 03:13:59.8	94.840	0.150	-0.440	1.200
2020/01/31 03:13:59.9	94.820	0.090	-0.320	1.210
2020/01/31 03:14:00.0	94.800	0.030	-0.190	1.230
2020/01/31 03:14:00.1	94.800	-0.040	-0.080	1.230
2020/01/31 03:14:00.2	94.790	-0.100	0.040	1.230
2020/01/31 03:14:00.3	94.780	-0.170	0.150	1.230
2020/01/31 03:14:00.4	94.770	-0.230	0.250	1.220
2020/01/31 03:14:00.5	94.760	-0.300	0.350	1.210
2020/01/31 03:14:00.6	94.760	-0.360	0.440	1.190
2020/01/31 03:14:00.7	94.760	-0.420	0.520	1.170
2020/01/31 03:14:00.8	94.760	-0.480	0.590	1.140
2020/01/31 03:14:00.9	94.760	-0.540	0.650	1.110
2020/01/31 03:14:01.0	94.770	-0.590	0.700	1.080
2020/01/31 03:14:01.1	94.780	-0.630	0.740	1.030
2020/01/31 03:14:01.2	94.790	-0.670	0.770	1.000
2020/01/31 03:14:01.3	94.810	-0.700	0.780	0.960
2020/01/31 03:14:01.4	94.820	-0.730	0.790	0.920
2020/01/31 03:14:01.5	94.840	-0.750	0.790	0.870
2020/01/31 03:14:01.6	94.850	-0.770	0.770	0.830
2020/01/31 03:14:01.7	94.870	-0.780	0.750	0.790
2020/01/31 03:14:01.8	94.890	-0.780	0.720	0.750
2020/01/31 03:14:01.9	94.910	-0.780	0.690	0.720
2020/01/31 03:14:02.0	94.930	-0.770	0.640	0.680
2020/01/31 03:14:02.1	94.950	-0.760	0.590	0.640
2020/01/31 03:14:02.2	94.970	-0.740	0.530	0.610
2020/01/31 03:14:02.3	94.990	-0.720	0.470	0.580
2020/01/31 03:14:02.4	95.010	-0.690	0.410	0.540
2020/01/31 03:14:02.5	95.020	-0.660	0.340	0.520
2020/01/31 03:14:02.6	95.040	-0.630	0.270	0.490
2020/01/31 03:14:02.7	95.050	-0.590	0.200	0.460
2020/01/31 03:14:02.8	95.060	-0.550	0.130	0.440
2020/01/31 03:14:02.9	95.070	-0.510	0.050	0.420
2020/01/31 03:14:03.0	95.080	-0.460	-0.020	0.400
2020/01/31 03:14:03.1	95.070	-0.420	-0.090	0.380
2020/01/31 03:14:03.2	95.070	-0.370	-0.170	0.360
2020/01/31 03:14:03.3	95.070	-0.330	-0.240	0.350
2020/01/31 03:14:03.4	95.070	-0.280	-0.300	0.340
2020/01/31 03:14:03.5	95.070	-0.230	-0.370	0.330
2020/01/31 03:14:03.6	95.060	-0.190	-0.430	0.330
2020/01/31 03:14:03.7	95.050	-0.140	-0.490	0.320
2020/01/31 03:14:03.8	95.050	-0.100	-0.540	0.320
2020/01/31 03:14:03.9	95.040	-0.060	-0.590	0.310
2020/01/31 03:14:04.0	95.030	-0.020	-0.640	0.310
2020/01/31 03:14:04.1	95.010	0.020	-0.680	0.310
2020/01/31 03:14:04.2	95.000	0.050	-0.710	0.310
2020/01/31 03:14:04.3	94.990	0.090	-0.740	0.320
2020/01/31 03:14:04.4	94.980	0.120	-0.770	0.320
2020/01/31 03:14:04.5	94.970	0.150	-0.780	0.330
2020/01/31 03:14:04.6	94.960	0.170	-0.800	0.340
2020/01/31 03:14:04.7	94.950	0.190	-0.810	0.350
2020/01/31 03:14:04.8	94.940	0.220	-0.810	0.360
2020/01/31 03:14:04.9	94.930	0.230	-0.810	0.370
2020/01/31 03:14:05.0	94.920	0.250	-0.800	0.380
2020/01/31 03:14:05.1	94.900	0.270	-0.790	0.390
2020/01/31 03:14:05.2	94.890	0.280	-0.770	0.410
2020/01/31 03:14:05.3	94.880	0.290	-0.750	0.430
2020/01/31 03:14:05.4	94.870	0.290	-0.730	0.450
2020/01/31 03:14:05.5	94.860	0.300	-0.700	0.470
2020/01/31 03:14:05.6	94.850	0.300	-0.660	0.490
2020/01/31 03:14:05.7	94.840	0.310	-0.630	0.510
2020/01/31 03:14:05.8	94.830	0.310	-0.590	0.530
2020/01/31 03:14:05.9	94.820	0.310	-0.550	0.550
2020/01/31 03:14:06.0	94.810	0.310	-0.510	0.570
2020/01/31 03:14:06.1	94.810	0.300	-0.470	0.580
2020/01/31 03:14:06.2	94.800	0.300	-0.430	0.600
2020/01/31 03:14:06.3	94.790	0.300	-0.390	0.620
2020/01/31 03:14:06.4	94.780	0.290	-0.350	0.630
2020/01/31 03:14:06.5	94.770	0.290	-0.310	0.640
2020/01/31 03:14:06.6	94.760	0.280	-0.270	0.640
2020/01/31 03:14:06.7	94.750	0.280	-0.240	0.650
2020/01/31 03:14:06.8	94.740	0.270	-0.200	0.650
2020/01/31 03:14:06.9	94.730	0.260	-0.170	0.650
2020/01/31 03:14:07.0	94.730	0.260	-0.140	0.650
2020/01/31 03:14:07.1	94.730	0.250	-0.120	0.640
2020/01/31 03:14:07.2	94.720	0.250	-0.100	0.630
2020/01/31 03:14:07.3	94.720	0.240	-0.080	0.630
2020/01/31 03:14:07.4	94.720	0.240	-0.060	0.620
2020/01/31 03:14:07.5	94.720	0.240	-0.050	0.610
2020/01/31 03:14:07.6	94.720	0.230	-0.040	0.600
2020/01/31 03:14:07.7	94.720	0.230	-0.030	0.590
2020/01/31 03:14:07.8	94.730	0.230	-0.020	0.580
2020/01/31 03:14:07.9	94.730	0.230	-0.020	0.570
2020/01/31 03:14:08.0	94.740	0.230	-0.020	0.560
2020/01/31 03:14:08.1	94.740	0.230	-0.020	0.550
2020/01/31 03:14:08.2	94.740	0.230	-0.030	0.540
2020/01/31 03:14:08.3	94.750	0.230	-0.030	0.540
2020/01/31 03:14:08.4	94.760	0.240	-0.040	0.530
2020/01/31 03:14:08.5	94.770	0.240	-0.050	0.530
2020/01/31 03:14:08.6	94.780	0.240	-0.060	0.530
2020/01/31 03:14:08.7	94.780	0.250	-0.070	0.530
2020/01/31 03:14:08.8	94.790	0.250	-0.080	0.530
2020/01/31 03:14:08.9	94.800	0.260	-0.090	0.530
2020/01/31 03:14:09.0	94.810	0.260	-0.100	0.530
2020/01/31 03:14:09.1	94.820	0.260	-0.110	0.530
2020/01/31 03:14:09.2	94.830	0.260	-0.120	0.540
2020/01/31 03:14:09.3	94.840	0.270	-0.130	0.540
2020/01/31 03:14:09.4	94.850	0.270	-0.140	0.540
2020/01/31 03:14:09.5	94.860	0.270	-0.150	0.550
2020/01/31 03:14:09.6	94.860	0.270	-0.150	0.550
2020/01/31 03:14:09.7	94.870	0.270	-0.160	0.550
2020/01/31 03:14:09.8	94.880	0.260	-0.170	0.560
2020/01/31 03:14:09.9	94.880	0.260	-0.170	0.560
2020/01/31 03:14:10.0	94.890	0.260	-0.170	0.570
2020/01/31 03:14:10.1	94.910	0.250	-0.170	0.570
2020/01/31 03:14:10.2	94.910	0.250	-0.170	0.580
2020/01/31 03:14:10.3	94.910	0.240	-0.170	0.590
2020/01/31 03:14:10.4	94.920	0.230	-0.170	0.600
2020/01/31 03:14:10.5	94.920	0.220	-0.170	0.610
2020/01/31 03:14:10.6	94.920	0.210	-0.170	0.620
2020/01/31 03:14:10.7	94.910	0.200	-0.170	0.640
2020/01/31 03:14:10.8	94.910	0.190	-0.170	0.660
2020/01/31 03:14:10.9	94.910	0.180	-0.170	0.680
2020/01/31 03:14:11.0	94.900	0.170	-0.170	0.700
2020/01/31 03:14:11.1	94.890	0.150	-0.160	0.720
2020/01/31 03:14:11.2	94.880	0.140	-0.160	0.750
2020/01/31 03:14:11.3	94.870	0.120	-0.160	0.770
2020/01/31 03:14:11.4	94.870	0.110	-0.160	0.800
2020/01/31 03:14:11.5	94.860	0.100	-0.160	0.830
2020/01/31 03:14:11.6	94.850	0.080	-0.150	0.860
2020/01/31 03:14:11.7	94.840	0.070	-0.160	0.880
2020/01/31 03:14:11.8	94.840	0.050	-0.160	0.910
2020/01/31 03:14:11.9	94.830	0.040	-0.160	0.940
2020/01/31 03:14:12.0	94.820	0.020	-0.160	0.960
2020/01/31 03:14:12.1	94.810	0.010	-0.170	0.970
2020/01/31 03:14:12.2	94.800	-0.000	-0.170	0.990
2020/01/31 03:14:12.3	94.790	-0.010	-0.180	1.010
2020/01/31 03:14:12.4	94.780	-0.030	-0.180	1.020
2020/01/31 03:14:12.5	94.780	-0.040	-0.180	1.030
2020/01/31 03:14:12.6	94.770	-0.050	-0.190	1.030
2020/01/31 03:14:12.7	94.770	-0.060	-0.190	1.030
2020/01/31 03:14:12.8	94.760	-0.070	-0.200	1.030
2020/01/31 03:14:12.9	94.760	-0.080	-0.200	1.030
2020/01/31 03:14:13.0	94.750	-0.090	-0.200	1.020
2020/01/31 03:14:13.1	94.770	-0.100	-0.210	1.010
2020/01/31 03:14:13.2	94.760	-0.110	-0.210	1.000
2020/01/31 03:14:13.3	94.760	-0.110	-0.210	0.990
2020/01/31 03:14:13.4	94.760	-0.120	-0.210	0.980
2020/01/31 03:14:13.5	94.760	-0.130	-0.210	0.970
2020/01/31 03:14:13.6	94.770	-0.140	-0.210	0.960
2020/01/31 03:14:13.7	94.770	-0.140	-0.210	0.950
2020/01/31 03:14:13.8	94.770	-0.150	-0.210	0.940
2020/01/31 03:14:13.9	94.780	-0.160	-0.210	0.930
2020/01/31 03:14:14.0	94.790	-0.160	-0.210	0.930
2020/01/31 03:14:14.1	94.790	-0.170	-0.210	0.920
2020/01/31 03:14:14.2	94.800	-0.170	-0.210	0.920
2020/01/31 03:14:14.3	94.810	-0.180	-0.200	0.910
2020/01/31 03:14:14.4	94.820	-0.180	-0.200	0.910
2020/01/31 03:14:14.5	94.830	-0.190	-0.200	0.910
2020/01/31 03:14:14.6	94.840	-0.190	-0.200	0.910
2020/01/31 03:14:14.7	94.850	-0.190	-0.200	0.910
2020/01/31 03:14:14.8	94.860	-0.200	-0.210	0.910
2020/01/31 03:14:14.9	94.870	-0.200	-0.210	0.910
2020/01/31 03:14:15.0	94.890	-0.200	-0.210	0.910
2020/01/31 03:14:15.1	94.900	-0.200	-0.220	0.900
2020/01/31 03:14:15.2	94.910	-0.200	-0.230	0.900
2020/01/31 03:14:15.3	94.920	-0.200	-0.240	0.890
2020/01/31 03:14:15.4	94.930	-0.200	-0.250	0.890
2020/01/31 03:14:15.5	94.940	-0.200	-0.260	0.880
2020/01/31 03:14:15.6	94.950	-0.190	-0.270	0.870
2020/01/31 03:14:15.7	94.960	-0.190	-0.290	0.860
2020/01/31 03:14:15.8	94.960	-0.180	-0.300	0.850
2020/01/31 03:14:15.9	94.970	-0.170	-0.320	0.840
2020/01/31 03:14:16.0	94.970	-0.160	-0.340	0.830
2020/01/31 03:14:16.1	94.970	-0.150	-0.360	0.810
2020/01/31 03:14:16.2	94.960	-0.140	-0.380	0.800
2020/01/31 03:14:16.3	94.960	-0.130	-0.400	0.790
2020/01/31 03:14:16.4	94.960	-0.120	-0.420	0.790
2020/01/31 03:14:16.5	94.950	-0.100	-0.430	0.780
2020/01/31 03:14:16.6	94.940	-0.090	-0.450	0.770
2020/01/31 03:14:16.7	94.930	-0.080	-0.460	0.770
2020/01/31 03:14:16.8	94.920	-0.060	-0.470	0.760
2020/01/31 03:14:16.9	94.920	-0.050	-0.480	0.760
2020/01/31 03:14:17.0	94.910	-0.040	-0.480	0.760
2020/01/31 03:14:17.1	94.890	-0.030	-0.490	0.750
2020/01/31 03:14:17.2	94.880	-0.020	-0.490	0.750
2020/01/31 03:14:17.3	94.870	-0.010	-0.480	0.760
2020/01/31 03:14:17.4	94.870	-0.000	-0.470	0.760
2020/01/31 03:14:17.5	94.860	0.000	-0.450	0.770
2020/01/31 03:14:17.6	94.850	0.000	-0.430	0.770
2020/01/31 03:14:17.7	94.850	0.000	-0.400	0.780
2020/01/31 03:14:17.8	94.840	0.000	-0.380	0.790
2020/01/31 03:14:17.9	94.840	-0.000	-0.340	0.800
2020/01/31 03:14:18.0	94.840	-0.010	-0.310	0.810
2020/01/31 03:14:18.1	94.840	-0.020	-0.270	0.820
2020/01/31 03:14:18.2	94.840	-0.030	-0.230	0.830
2020/01/31 03:14:18.3	94.840	-0.040	-0.180	0.840
2020/01/31 03:14:18.4	94.840	-0.050	-0.140	0.850
2020/01/31 03:14:18.5	94.850	-0.070	-0.100	0.860
2020/01/31 03:14:18.6	94.850	-0.090	-0.050	0.860
2020/01/31 03:14:18.7	94.850	-0.110	-0.010	0.870
2020/01/31 03:14:18.8	94.860	-0.130	0.030	0.870
2020/01/31 03:14:18.9	94.870	-0.150	0.070	0.870
2020/01/31 03:14:19.0	94.880	-0.160	0.100	0.860
2020/01/31 03:14:19.1	94.870	-0.180	0.130	0.850
2020/01/31 03:14:19.2	94.880	-0.200	0.160	0.840
2020/01/31 03:14:19.3	94.900	-0.210	0.190	0.830
2020/01/31 03:14:19.4	94.910	-0.230	0.210	0.810
2020/01/31 03:14:19.5	94.920	-0.240	0.220	0.800
2020/01/31 03:14:19.6	94.940	-0.250	0.230	0.780
2020/01/31 03:14:19.7	94.960	-0.250	0.230	0.760
2020/01/31 03:14:19.8	94.970	-0.260	0.230	0.740
2020/01/31 03:14:19.9	94.990	-0.250	0.220	0.720
2020/01/31 03:14:20.0	95.000	-0.250	0.210	0.710
2020/01/31 03:14:20.1	95.020	-0.240	0.190	0.690
2020/01/31 03:14:20.2	95.030	-0.230	0.170	0.670
2020/01/31 03:14:20.3	95.040	-0.210	0.140	0.650
2020/01/31 03:14:20.4	95.050	-0.190	0.110	0.640
2020/01/31 03:14:20.5	95.060	-0.170	0.070	0.620
2020/01/31 03:14:20.6	95.070	-0.140	0.030	0.600
2020/01/31 03:14:20.7	95.070	-0.110	-0.010	0.590
2020/01/31 03:14:20.8	95.070	-0.080	-0.060	0.570
2020/01/31 03:14:20.9	95.070	-0.050	-0.110	0.560
2020/01/31 03:14:21.0	95.070	-0.010	-0.160	0.550
2020/01/31 03:14:21.1	95.070	0.030	-0.220	0.530
2020/01/31 03:14:21.2	95.070	0.060	-0.270	0.520
2020/01/31 03:14:21.3	95.060	0.100	-0.320	0.510
2020/01/31 03:14:21.4	95.050	0.140	-0.380	0.510
2020/01/31 03:14:21.5	95.040	0.180	-0.430	0.500
2020/01/31 03:14:21.6	95.030	0.220	-0.490	0.500
2020/01/31 03:14:21.7	95.010	0.260	-0.540	0.500
2020/01/31 03:14:21.8	94.990	0.300	-0.590	0.510
2020/01/31 03:14:21.9	94.970	0.330	-0.640	0.520
2020/01/31 03:14:22.0	94.950	0.370	-0.680	0.530
2020/01/31 03:14:22.1	94.910	0.400	-0.730	0.540
2020/01/31 03:14:22.2	94.880	0.430	-0.760	0.560
2020/01/31 03:14:22.3	94.850	0.460	-0.800	0.580
2020/01/31 03:14:22.4	94.830	0.490	-0.830	0.610
2020/01/31 03:14:22.5	94.800	0.510	-0.850	0.630
2020/01/31 03:14:22.6	94.770	0.530	-0.870	0.660
2020/01/31 03:14:22.7	94.740	0.540	-0.880	0.680
2020/01/31 03:14:22.8	94.720	0.550	-0.890	0.710
2020/01/31 03:14:22.9	94.700	0.560	-0.890	0.730
2020/01/31 03:14:23.0	94.680	0.570	-0.880	0.760
2020/01/31 03:14:23.1	94.660	0.570	-0.870	0.780
2020/01/31 03:14:23.2	94.650	0.560	-0.850	0.800
2020/01/31 03:14:23.3	94.640	0.560	-0.820	0.820
2020/01/31 03:14:23.4	94.630	0.550	-0.790	0.830
2020/01/31 03:14:23.5	94.620	0.530	-0.750	0.850
2020/01/31 03:14:23.6	94.620	0.510	-0.700	0.860
2020/01/31 03:14:23.7	94.630	0.490	-0.650	0.860
2020/01/31 03:14:23.8	94.640	0.460	-0.600	0.870
2020/01/31 03:14:23.9	94.650	0.430	-0.530	0.870
2020/01/31 03:14:24.0	94.670	0.400	-0.470	0.860
2020/01/31 03:14:24.1	94.700	0.370	-0.400	0.860
2020/01/31 03:14:24.2	94.720	0.330	-0.330	0.850
2020/01/31 03:14:24.3	94.750	0.290	-0.260	0.840
2020/01/31 03:14:24.4	94.770	0.250	-0.190	0.820
2020/01/31 03:14:24.5	94.800	0.210	-0.110	0.810
2020/01/31 03:14:24.6	94.840	0.170	-0.040	0.790
2020/01/31 03:14:24.7	94.870	0.130	0.030	0.770
2020/01/31 03:14:24.8	94.900	0.080	0.100	0.760
2020/01/31 03:14:24.9	94.930	0.040	0.170	0.740
2020/01/31 03:14:25.0	94.970	-0.000	0.240	0.720
2020/01/31 03:14:25.1	95.010	-0.040	0.300	0.700
2020/01/31 03:14:25.2	95.050	-0.080	0.360	0.690
2020/01/31 03:14:25.3	95.070	-0.120	0.410	0.680
2020/01/31 03:14:25.4	95.100	-0.150	0.460	0.670
2020/01/31 03:14:25.5	95.130	-0.190	0.500	0.670
2020/01/31 03:14:25.6	95.150	-0.220	0.540	0.670
2020/01/31 03:14:25.7	95.170	-0.250	0.570	0.670
2020/01/31 03:14:25.8	95.190	-0.270	0.590	0.680
2020/01/31 03:14:25.9	95.200	-0.300	0.610	0.690
2020/01/31 03:14:26.0	95.210	-0.310	0.620	0.700
2020/01/31 03:14:26.1	95.210	-0.330	0.620	0.720
2020/01/31 03:14:26.2	95.220	-0.340	0.610	0.740
2020/01/31 03:14:26.3	95.220	-0.350	0.600	0.760
2020/01/31 03:14:26.4	95.220	-0.360	0.590	0.780
2020/01/31 03:14:26.5	95.210	-0.360	0.570	0.810
2020/01/31 03:14:26.6	95.210	-0.360	0.540	0.830
2020/01/31 03:14:26.7	95.190	-0.360	0.500	0.860
2020/01/31 03:14:26.8	95.180	-0.360	0.460	0.890
2020/01/31 03:14:26.9	95.170	-0.350	0.420	0.920
2020/01/31 03:14:27.0	95.150	-0.340	0.370	0.940
2020/01/31 03:14:27.1	95.130	-0.330	0.320	0.970
2020/01/31 03:14:27.2	95.110	-0.320	0.260	0.990
2020/01/31 03:14:27.3	95.090	-0.310	0.200	1.010
2020/01/31 03:14:27.4	95.080	-0.290	0.140	1.040
2020/01/31 03:14:27.5	95.060	-0.270	0.070	1.050
2020/01/31 03:14:27.6	95.040	-0.250	0.010	1.070
2020/01/31 03:14:27.7	95.030	-0.230	-0.060	1.090
2020/01/31 03:14:27.8	95.010	-0.210	-0.130	1.100
2020/01/31 03:14:27.9	95.000	-0.190	-0.210	1.110
2020/01/31 03:14:28.0	94.990	-0.170	-0.280	1.120
2020/01/31 03:14:28.1	94.980	-0.140	-0.360	1.130
2020/01/31 03:14:28.2	94.980	-0.120	-0.430	1.130
2020/01/31 03:14:28.3	94.970	-0.090	-0.510	1.130
2020/01/31 03:14:28.4	94.970	-0.070	-0.580	1.140
2020/01/31 03:14:28.5	94.960	-0.040	-0.650	1.140
2020/01/31 03:14:28.6	94.960	-0.010	-0.720	1.130
2020/01/31 03:14:28.7	94.960	0.010	-0.780	1.130
2020/01/31 03:14:28.8	94.960	0.040	-0.850	1.130
2020/01/31 03:14:28.9	94.960	0.070	-0.910	1.120
2020/01/31 03:14:29.0	94.970	0.100	-0.960	1.120
2020/01/31 03:14:29.1	94.970	0.120	-1.010	1.110
2020/01/31 03:14:29.2	94.970	0.150	-1.060	1.100
2020/01/31 03:14:29.3	94.980	0.170	-1.100	1.090
2020/01/31 03:14:29.4	94.980	0.200	-1.130	1.070
2020/01/31 03:14:29.5	94.980	0.220	-1.160	1.060
2020/01/31 03:14:29.6	94.990	0.250	-1.180	1.040
2020/01/31 03:14:29.7	94.990	0.270	-1.200	1.020
2020/01/31 03:14:29.8	94.990	0.280	-1.200	1.000
2020/01/31 03:14:29.9	95.000	0.300	-1.200	0.980
2020/01/31 03:14:30.0	95.000	0.320	-1.190	0.960
2020/01/31 03:14:30.1	94.980	0.330	-1.180	0.930
2020/01/31 03:14:30.2	94.990	0.340	-1.150	0.900
2020/01/31 03:14:30.3	94.990	0.340	-1.110	0.880
2020/01/31 03:14:30.4	94.990	0.350	-1.070	0.850
2020/01/31 03:14:30.5	94.990	0.350	-1.020	0.820
2020/01/31 03:14:30.6	95.000	0.340	-0.950	0.800
2020/01/31 03:14:30.7	95.000	0.340	-0.890	0.770
2020/01/31 03:14:30.8	95.000	0.330	-0.810	0.750
2020/01/31 03:14:30.9	95.010	0.310	-0.730	0.730
2020/01/31 03:14:31.0	95.010	0.300	-0.650	0.710
2020/01/31 03:14:31.1	95.010	0.280	-0.550	0.690
2020/01/31 03:14:31.2	95.020	0.260	-0.460	0.680
2020/01/31 03:14:31.3	95.020	0.230	-0.360	0.660
2020/01/31 03:14:31.4	95.020	0.210	-0.270	0.650
2020/01/31 03:14:31.5	95.020	0.180	-0.170	0.650
2020/01/31 03:14:31.6	95.020	0.150	-0.070	0.640
2020/01/31 03:14:31.7	95.020	0.110	0.030	0.640
2020/01/31 03:14:31.8	95.020	0.080	0.120	0.640
2020/01/31 03:14:31.9	95.020	0.040	0.210	0.650
2020/01/31 03:14:32.0	95.020	0.010	0.300	0.650
2020/01/31 03:14:32.1	95.010	-0.030	0.390	0.660
2020/01/31 03:14:32.2	95.010	-0.060	0.460	0.670
2020/01/31 03:14:32.3	95.000	-0.100	0.530	0.690
2020/01/31 03:14:32.4	95.000	-0.130	0.590	0.700
2020/01/31 03:14:32.5	94.990	-0.170	0.650	0.720
2020/01/31 03:14:32.6	94.980	-0.200	0.700	0.730
2020/01/31 03:14:32.7	94.980	-0.230	0.740	0.750
2020/01/31 03:14:32.8	94.970	-0.260	0.770	0.760
2020/01/31 03:14:32.9	94.960	-0.290	0.790	0.770
2020/01/31 03:14:33.0	94.950	-0.320	0.800	0.780
2020/01/31 03:14:33.1	94.940	-0.340	0.810	0.790
2020/01/31 03:14:33.2	94.940	-0.360	0.810	0.790
2020/01/31 03:14:33.3	94.930	-0.380	0.800	0.800
2020/01/31 03:14:33.4	94.930	-0.400	0.780	0.800
2020/01/31 03:14:33.5	94.920	-0.410	0.750	0.790
2020/01/31 03:14:33.6	94.920	-0.430	0.720	0.790
2020/01/31 03:14:33.7	94.920	-0.440	0.680	0.780
2020/01/31 03:14:33.8	94.920	-0.440	0.640	0.770
2020/01/31 03:14:33.9	94.930	-0.450	0.590	0.750
2020/01/31 03:14:34.0	94.930	-0.450	0.530	0.740
2020/01/31 03:14:34.1	94.960	-0.450	0.480	0.720
2020/01/31 03:14:34.2	94.970	-0.450	0.410	0.700
2020/01/31 03:14:34.3	94.980	-0.440	0.350	0.680
2020/01/31 03:14:34.4	94.990	-0.430	0.280	0.660
2020/01/31 03:14:34.5	95.000	-0.420	0.210	0.640
2020/01/31 03:14:34.6	95.020	-0.410	0.140	0.620
2020/01/31 03:14:34.7	95.030	-0.400	0.070	0.600
2020/01/31 03:14:34.8	95.050	-0.380	-0.000	0.580
2020/01/31 03:14:34.9	95.060	-0.360	-0.070	0.560
2020/01/31 03:14:35.0	95.070	-0.340	-0.140	0.540
2020/01/31 03:14:35.1	95.090	-0.320	-0.210	0.530
2020/01/31 03:14:35.2	95.100	-0.300	-0.280	0.520
2020/01/31 03:14:35.3	95.120	-0.280	-0.350	0.500
2020/01/31 03:14:35.4	95.130	-0.250	-0.420	0.490
2020/01/31 03:14:35.5	95.130	-0.230	-0.480	0.490
2020/01/31 03:14:35.6	95.140	-0.200	-0.540	0.480
2020/01/31 03:14:35.7	95.150	-0.180	-0.600	0.480
2020/01/31 03:14:35.8	95.150	-0.150	-0.650	0.480
2020/01/31 03:14:35.9	95.150	-0.120	-0.700	0.480
2020/01/31 03:14:36.0	95.150	-0.090	-0.750	0.490
2020/01/31 03:14:36.1	95.140	-0.060	-0.800	0.490
2020/01/31 03:14:36.2	95.140	-0.030	-0.830	0.500
2020/01/31 03:14:36.3	95.130	-0.010	-0.870	0.520
2020/01/31 03:14:36.4	95.120	0.020	-0.900	0.540
2020/01/31 03:14:36.5	95.110	0.050	-0.920	0.560
2020/01/31 03:14:36.6	95.090	0.080	-0.940	0.580
2020/01/31 03:14:36.7	95.080	0.110	-0.950	0.610
2020/01/31 03:14:36.8	95.060	0.130	-0.960	0.640
2020/01/31 03:14:36.9	95.040	0.160	-0.970	0.670
2020/01/31 03:14:37.0	95.020	0.190	-0.970	0.710
2020/01/31 03:14:37.1	94.990	0.210	-0.960	0.740
2020/01/31 03:14:37.2	94.970	0.230	-0.950	0.770
2020/01/31 03:14:37.3	94.940	0.260	-0.940	0.810
2020/01/31 03:14:37.4	94.910	0.280	-0.930	0.840
2020/01/31 03:14:37.5	94.890	0.290	-0.910	0.870
2020/01/31 03:14:37.6	94.860	0.310	-0.890	0.900
2020/01/31 03:14:37.7	94.830	0.330	-0.860	0.930
2020/01/31 03:14:37.8	94.800	0.340	-0.830	0.960
2020/01/31 03:14:37.9	94.770	0.350	-0.800	0.980
2020/01/31 03:14:38.0	94.740	0.360	-0.770	1.010
2020/01/31 03:14:38.1	94.720	0.370	-0.740	1.020
2020/01/31 03:14:38.2	94.690	0.380	-0.700	1.040
2020/01/31 03:14:38.3	94.670	0.380	-0.670	1.060
2020/01/31 03:14:38.4	94.640	0.380	-0.630	1.070
2020/01/31 03:14:38.5	94.620	0.380	-0.590	1.080
2020/01/31 03:14:38.6	94.600	0.380	-0.560	1.090
2020/01/31 03:14:38.7	94.580	0.380	-0.520	1.090
2020/01/31 03:14:38.8	94.560	0.370	-0.480	1.100
2020/01/31 03:14:38.9	94.540	0.370	-0.450	1.100
2020/01/31 03:14:39.0	94.520	0.360	-0.410	1.100
2020/01/31 03:14:39.1	94.520	0.350	-0.380	1.090
2020/01/31 03:14:39.2	94.510	0.340	-0.350	1.090
2020/01/31 03:14:39.3	94.500	0.320	-0.320	1.080
2020/01/31 03:14:39.4	94.480	0.310	-0.290	1.070
2020/01/31 03:14:39.5	94.470	0.300	-0.260	1.060
2020/01/31 03:14:39.6	94.460	0.280	-0.230	1.050
2020/01/31 03:14:39.7	94.450	0.260	-0.200	1.040
2020/01/31 03:14:39.8	94.450	0.250	-0.180	1.020
2020/01/31 03:14:39.9	94.440	0.230	-0.160	1.010
2020/01/31 03:14:40.0	94.430	0.210	-0.130	0.990
2020/01/31 03:14:40.1	94.440	0.190	-0.110	0.970
2020/01/31 03:14:40.2	94.440	0.170	-0.090	0.950
2020/01/31 03:14:40.3	94.430	0.150	-0.070	0.930
2020/01/31 03:14:40.4	94.430	0.130	-0.040	0.910
2020/01/31 03:14:40.5	94.430	0.110	-0.020	0.890
2020/01/31 03:14:40.6	94.430	0.090	0.000	0.870
2020/01/31 03:14:40.7	94.430	0.070	0.030	0.840
2020/01/31 03:14:40.8	94.440	0.050	0.060	0.820
2020/01/31 03:14:40.9	94.440	0.030	0.080	0.800
2020/01/31 03:14:41.0	94.440	0.010	0.110	0.770
2020/01/31 03:14:41.1	94.440	-0.010	0.140	0.740
2020/01/31 03:14:41.2	94.450	-0.040	0.170	0.720
2020/01/31 03:14:41.3	94.450	-0.060	0.210	0.690
2020/01/31 03:14:41.4	94.460	-0.080	0.240	0.660
2020/01/31 03:14:41.5	94.470	-0.100	0.270	0.640
2020/01/31 03:14:41.6	94.490	-0.130	0.310	0.610
2020/01/31 03:14:41.7	94.500	-0.150	0.340	0.590
2020/01/31 03:14:41.8	94.510	-0.170	0.370	0.570
2020/01/31 03:14:41.9	94.530	-0.190	0.400	0.540
2020/01/31 03:14:42.0	94.550	-0.220	0.420	0.520
2020/01/31 03:14:42.1	94.560	-0.240	0.450	0.500
2020/01/31 03:14:42.2	94.580	-0.260	0.460	0.490
2020/01/31 03:14:42.3	94.600	-0.270	0.480	0.480
2020/01/31 03:14:42.4	94.620	-0.290	0.480	0.470
2020/01/31 03:14:42.5	94.630	-0.310	0.490	0.460
2020/01/31 03:14:42.6	94.650	-0.320	0.490	0.460
2020/01/31 03:14:42.7	94.670	-0.330	0.480	0.450
2020/01/31 03:14:42.8	94.680	-0.340	0.460	0.450
2020/01/31 03:14:42.9	94.700	-0.350	0.440	0.460
2020/01/31 03:14:43.0	94.720	-0.350	0.410	0.460
2020/01/31 03:14:43.1	94.750	-0.350	0.370	0.470
2020/01/31 03:14:43.2	94.760	-0.350	0.330	0.480
2020/01/31 03:14:43.3	94.770	-0.350	0.280	0.490
2020/01/31 03:14:43.4	94.780	-0.340	0.230	0.510
2020/01/31 03:14:43.5	94.790	-0.330	0.170	0.530
2020/01/31 03:14:43.6	94.800	-0.320	0.110	0.540
2020/01/31 03:14:43.7	94.810	-0.300	0.050	0.560
2020/01/31 03:14:43.8	94.810	-0.290	-0.020	0.590
2020/01/31 03:14:43.9	94.820	-0.270	-0.090	0.610
2020/01/31 03:14:44.0	94.820	-0.240	-0.170	0.630
2020/01/31 03:14:44.1	94.800	-0.220	-0.240	0.650
2020/01/31 03:14:44.2	94.800	-0.190	-0.320	0.680
2020/01/31 03:14:44.3	94.800	-0.160	-0.390	0.700
2020/01/31 03:14:44.4	94.800	-0.130	-0.460	0.730
2020/01/31 03:14:44.5	94.800	-0.100	-0.530	0.750
2020/01/31 03:14:44.6	94.800	-0.060	-0.600	0.770
2020/01/31 03:14:44.7	94.800	-0.030	-0.660	0.800
2020/01/31 03:14:44.8	94.800	0.000	-0.720	0.820
2020/01/31 03:14:44.9	94.800	0.040	-0.770	0.840
2020/01/31 03:14:45.0	94.800	0.070	-0.820	0.860
2020/01/31 03:14:45.1	94.800	0.100	-0.870	0.880
2020/01/31 03:14:45.2	94.800	0.130	-0.900	0.910
2020/01/31 03:14:45.3	94.800	0.160	-0.930	0.930
2020/01/31 03:14:45.4	94.800	0.190	-0.950	0.960
2020/01/31 03:14:45.5	94.800	0.210	-0.970	0.980
2020/01/31 03:14:45.6	94.800	0.230	-0.970	1.010
2020/01/31 03:14:45.7	94.800	0.250	-0.970	1.040
2020/01/31 03:14:45.8	94.800	0.270	-0.960	1.060
2020/01/31 03:14:45.9	94.810	0.280	-0.940	1.090
2020/01/31 03:14:46.0	94.810	0.290	-0.920	1.120
2020/01/31 03:14:46.1	94.810	0.290	-0.880	1.150
2020/01/31 03:14:46.2	94.810	0.290	-0.840	1.170
2020/01/31 03:14:46.3	94.810	0.290	-0.800	1.200
2020/01/31 03:14:46.4	94.810	0.280	-0.750	1.220
2020/01/31 03:14:46.5	94.820	0.270	-0.690	1.240
2020/01/31 03:14:46.6	94.820	0.260	-0.630	1.260
2020/01/31 03:14:46.7	94.820	0.250	-0.570	1.280
2020/01/31 03:14:46.8	94.820	0.230	-0.500	1.290
2020/01/31 03:14:46.9	94.820	0.200	-0.430	1.300
2020/01/31 03:14:47.0	94.820	0.180	-0.360	1.310
2020/01/31 03:14:47.1	94.820	0.150	-0.290	1.310
2020/01/31 03:14:47.2	94.810	0.120	-0.220	1.310
2020/01/31 03:14:47.3	94.810	0.090	-0.150	1.310
2020/01/31 03:14:47.4	94.810	0.060	-0.080	1.310
2020/01/31 03:14:47.5	94.800	0.030	-0.010	1.310
2020/01/31 03:14:47.6	94.790	-0.010	0.050	1.300
2020/01/31 03:14:47.7	94.780	-0.040	0.110	1.290
2020/01/31 03:14:47.8	94.770	-0.070	0.160	1.280
2020/01/31 03:14:47.9	94.750	-0.100	0.210	1.270
2020/01/31 03:14:48.0	94.730	-0.130	0.260	1.260
2020/01/31 03:14:48.1	94.720	-0.160	0.290	1.240
2020/01/31 03:14:48.2	94.700	-0.180	0.320	1.230
2020/01/31 03:14:48.3	94.680	-0.210	0.350	1.220
2020/01/31 03:14:48.4	94.660	-0.230	0.370	1.200
2020/01/31 03:14:48.5	94.630	-0.240	0.380	1.180
2020/01/31 03:14:48.6	94.610	-0.260	0.380	1.160
2020/01/31 03:14:48.7	94.590	-0.270	0.380	1.150
2020/01/31 03:14:48.8	94.560	-0.280	0.370	1.120
2020/01/31 03:14:48.9	94.540	-0.290	0.350	1.100
2020/01/31 03:14:49.0	94.510	-0.290	0.330	1.080
2020/01/31 03:14:49.1	94.500	-0.290	0.300	1.050
2020/01/31 03:14:49.2	94.480	-0.290	0.260	1.030
2020/01/31 03:14:49.3	94.460	-0.280	0.230	1.000
2020/01/31 03:14:49.4	94.440	-0.280	0.190	0.970
2020/01/31 03:14:49.5	94.430	-0.270	0.140	0.940
2020/01/31 03:14:49.6	94.410	-0.260	0.100	0.910
2020/01/31 03:14:49.7	94.400	-0.240	0.050	0.880
2020/01/31 03:14:49.8	94.390	-0.230	-0.000	0.840
2020/01/31 03:14:49.9	94.390	-0.220	-0.050	0.810
2020/01/31 03:14:50.0	94.380	-0.200	-0.100	0.780
2020/01/31 03:14:50.1	94.370	-0.180	-0.150	0.740
2020/01/31 03:14:50.2	94.370	-0.170	-0.200	0.710
2020/01/31 03:14:50.3	94.370	-0.150	-0.250	0.670
2020/01/31 03:14:50.4	94.380	-0.130	-0.300	0.640
2020/01/31 03:14:50.5	94.390	-0.120	-0.340	0.610
2020/01/31 03:14:50.6	94.410	-0.100	-0.390	0.580
2020/01/31 03:14:50.7	94.420	-0.090	-0.430	0.550
2020/01/31 03:14:50.8	94.440	-0.070	-0.470	0.520
2020/01/31 03:14:50.9	94.470	-0.060	-0.510	0.490
2020/01/31 03:14:51.0	94.500	-0.040	-0.550	0.460
2020/01/31 03:14:51.1	94.530	-0.030	-0.580	0.430
2020/01/31 03:14:51.2	94.570	-0.020	-0.610	0.400
2020/01/31 03:14:51.3	94.600	-0.000	-0.650	0.380
2020/01/31 03:14:51.4	94.640	0.010	-0.680	0.350
2020/01/31 03:14:51.5	94.680	0.020	-0.700	0.330
2020/01/31 03:14:51.6	94.710	0.030	-0.730	0.310
2020/01/31 03:14:51.7	94.750	0.040	-0.750	0.290
2020/01/31 03:14:51.8	94.790	0.060	-0.780	0.270
2020/01/31 03:14:51.9	94.830	0.070	-0.800	0.260
2020/01/31 03:14:52.0	94.870	0.080	-0.820	0.250
2020/01/31 03:14:52.1	94.880	0.090	-0.830	0.240
2020/01/31 03:14:52.2	94.910	0.110	-0.840	0.240
2020/01/31 03:14:52.3	94.940	0.120	-0.850	0.240
2020/01/31 03:14:52.4	94.960	0.130	-0.850	0.240
2020/01/31 03:14:52.5	94.980	0.150	-0.850	0.250
2020/01/31 03:14:52.6	95.000	0.160	-0.850	0.260
2020/01/31 03:14:52.7	95.010	0.170	-0.840	0.280
2020/01/31 03:14:52.8	95.020	0.190	-0.820	0.300
2020/01/31 03:14:52.9	95.020	0.200	-0.800	0.320
2020/01/31 03:14:53.0	95.020	0.210	-0.770	0.350
2020/01/31 03:14:53.1	94.990	0.220	-0.740	0.370
2020/01/31 03:14:53.2	94.980	0.220	-0.700	0.400
2020/01/31 03:14:53.3	94.970	0.230	-0.650	0.440
2020/01/31 03:14:53.4	94.960	0.230	-0.590	0.480
2020/01/31 03:14:53.5	94.940	0.230	-0.540	0.520
2020/01/31 03:14:53.6	94.920	0.230	-0.470	0.560
2020/01/31 03:14:53.7	94.900	0.220	-0.400	0.600
2020/01/31 03:14:53.8	94.880	0.220	-0.330	0.650
2020/01/31 03:14:53.9	94.860	0.200	-0.250	0.700
2020/01/31 03:14:54.0	94.830	0.190	-0.170	0.750
2020/01/31 03:14:54.1	94.820	0.170	-0.090	0.800
2020/01/31 03:14:54.2	94.790	0.150	-0.010	0.850
2020/01/31 03:14:54.3	94.770	0.130	0.080	0.910
2020/01/31 03:14:54.4	94.740	0.110	0.160	0.960
2020/01/31 03:14:54.5	94.720	0.080	0.240	1.010
2020/01/31 03:14:54.6	94.690	0.050	0.310	1.060
2020/01/31 03:14:54.7	94.670	0.020	0.380	1.100
2020/01/31 03:14:54.8	94.650	-0.020	0.450	1.150
2020/01/31 03:14:54.9	94.630	-0.050	0.520	1.190
2020/01/31 03:14:55.0	94.620	-0.090	0.580	1.220
2020/01/31 03:14:55.1	94.610	-0.120	0.630	1.260
2020/01/31 03:14:55.2	94.600	-0.160	0.670	1.290
2020/01/31 03:14:55.3	94.590	-0.190	0.710	1.310
2020/01/31 03:14:55.4	94.580	-0.230	0.740	1.330
2020/01/31 03:14:55.5	94.580	-0.260	0.760	1.340
2020/01/31 03:14:55.6	94.570	-0.290	0.770	1.350
2020/01/31 03:14:55.7	94.570	-0.320	0.770	1.350
2020/01/31 03:14:55.8	94.570	-0.350	0.760	1.350
2020/01/31 03:14:55.9	94.570	-0.380	0.750	1.330
2020/01/31 03:14:56.0	94.580	-0.400	0.720	1.320
2020/01/31 03:14:56.1	94.590	-0.410	0.690	1.290
2020/01/31 03:14:56.2	94.600	-0.430	0.640	1.260
2020/01/31 03:14:56.3	94.610	-0.440	0.590	1.230
2020/01/31 03:14:56.4	94.620	-0.440	0.530	1.190
2020/01/31 03:14:56.5	94.630	-0.440	0.470	1.150
2020/01/31 03:14:56.6	94.650	-0.430	0.390	1.100
2020/01/31 03:14:56.7	94.660	-0.420	0.310	1.050
2020/01/31 03:14:56.8	94.670	-0.400	0.220	1.010
2020/01/31 03:14:56.9	94.680	-0.380	0.130	0.950
2020/01/31 03:14:57.0	94.700	-0.350	0.030	0.900
2020/01/31 03:14:57.1	94.710	-0.320	-0.070	0.850
2020/01/31 03:14:57.2	94.720	-0.290	-0.170	0.800
2020/01/31 03:14:57.3	94.730	-0.250	-0.270	0.750
2020/01/31 03:14:57.4	94.740	-0.200	-0.370	0.700
2020/01/31 03:14:57.5	94.750	-0.150	-0.480	0.660
2020/01/31 03:14:57.6	94.750	-0.100	-0.580	0.620
2020/01/31 03:14:57.7	94.760	-0.050	-0.670	0.590
2020/01/31 03:14:57.8	94.760	0.010	-0.760	0.560
2020/01/31 03:14:57.9	94.760	0.070	-0.850	0.540
2020/01/31 03:14:58.0	94.760	0.120	-0.930	0.520
2020/01/31 03:14:58.1	94.740	0.180	-1.000	0.500
2020/01/31 03:14:58.2	94.740	0.240	-1.070	0.500
2020/01/31 03:14:58.3	94.730	0.290	-1.120	0.490
2020/01/31 03:14:58.4	94.730	0.340	-1.170	0.500
2020/01/31 03:14:58.5	94.720	0.390	-1.200	0.510
2020/01/31 03:14:58.6	94.710	0.440	-1.230	0.520
2020/01/31 03:14:58.7	94.690	0.480	-1.240	0.540
2020/01/31 03:14:58.8	94.680	0.520	-1.240	0.560
2020/01/31 03:14:58.9	94.670	0.550	-1.240	0.580
2020/01/31 03:14:59.0	94.650	0.580	-1.220	0.600
2020/01/31 03:14:59.1	94.640	0.600	-1.190	0.620
2020/01/31 03:14:59.2	94.630	0.620	-1.160	0.650
2020/01/31 03:14:59.3	94.610	0.630	-1.110	0.670
2020/01/31 03:14:59.4	94.600	0.630	-1.050	0.690
2020/01/31 03:14:59.5	94.590	0.630	-0.990	0.710
2020/01/31 03:14:59.6	94.580	0.620	-0.920	0.730
2020/01/31 03:14:59.7	94.570	0.610	-0.840	0.750
2020/01/31 03:14:59.8	94.560	0.590	-0.750	0.760
2020/01/31 03:14:59.9	94.560	0.570	-0.670	0.780
2020/01/31 03:15:00.0	94.560	0.540	-0.570	0.790
2020/01/31 03:15:00.1	94.550	0.500	-0.470	0.800
2020/01/31 03:15:00.2	94.550	0.470	-0.380	0.810
2020/01/31 03:15:00.3	94.550	0.420	-0.280	0.820
2020/01/31 03:15:00.4	94.560	0.380	-0.190	0.840
2020/01/31 03:15:00.5	94.560	0.330	-0.090	0.850
2020/01/31 03:15:00.6	94.570	0.280	-0.000	0.860
2020/01/31 03:15:00.7	94.580	0.230	0.090	0.870
2020/01/31 03:15:00.8	94.590	0.180	0.170	0.880
2020/01/31 03:15:00.9	94.600	0.130	0.250	0.890
2020/01/31 03:15:01.0	94.610	0.070	0.320	0.900
2020/01/31 03:15:01.1	94.610	0.020	0.370	0.900
2020/01/31 03:15:01.2	94.620	-0.030	0.430	0.910
2020/01/31 03:15:01.3	94.640	-0.070	0.480	0.920
2020/01/31 03:15:01.4	94.650	-0.120	0.510	0.930
2020/01/31 03:15:01.5	94.670	-0.160	0.540	0.940
2020/01/31 03:15:01.6	94.680	-0.200	0.560	0.950
2020/01/31 03:15:01.7	94.700	-0.240	0.570	0.950
2020/01/31 03:15:01.8	94.710	-0.270	0.570	0.960
2020/01/31 03:15:01.9	94.730	-0.300	0.560	0.960
2020/01/31 03:15:02.0	94.730	-0.320	0.540	0.960
2020/01/31 03:15:02.1	94.740	-0.340	0.520	0.970
2020/01/31 03:15:02.2	94.750	-0.360	0.480	0.970
2020/01/31 03:15:02.3	94.760	-0.370	0.440	0.970
2020/01/31 03:15:02.4	94.770	-0.380	0.390	0.970
2020/01/31 03:15:02.5	94.770	-0.380	0.330	0.970
2020/01/31 03:15:02.6	94.780	-0.380	0.270	0.960
2020/01/31 03:15:02.7	94.780	-0.380	0.200	0.960
2020/01/31 03:15:02.8	94.770	-0.370	0.130	0.960
2020/01/31 03:15:02.9	94.770	-0.360	0.060	0.960
2020/01/31 03:15:03.0	94.770	-0.340	-0.020	0.950
2020/01/31 03:15:03.1	94.760	-0.330	-0.100	0.950
2020/01/31 03:15:03.2	94.750	-0.310	-0.170	0.950
2020/01/31 03:15:03.3	94.740	-0.290	-0.240	0.950
2020/01/31 03:15:03.4	94.720	-0.270	-0.320	0.950
2020/01/31 03:15:03.5	94.710	-0.240	-0.390	0.950
2020/01/31 03:15:03.6	94.690	-0.220	-0.450	0.960
2020/01/31 03:15:03.7	94.670	-0.190	-0.510	0.960
2020/01/31 03:15:03.8	94.650	-0.170	-0.570	0.970
2020/01/31 03:15:03.9	94.630	-0.140	-0.620	0.980
2020/01/31 03:15:04.0	94.610	-0.110	-0.660	0.990
2020/01/31 03:15:04.1	94.580	-0.090	-0.700	1.010
2020/01/31 03:15:04.2	94.560	-0.060	-0.730	1.020
2020/01/31 03:15:04.3	94.530	-0.040	-0.750	1.030
2020/01/31 03:15:04.4	94.510	-0.020	-0.770	1.050
2020/01/31 03:15:04.5	94.490	0.000	-0.780	1.060
2020/01/31 03:15:04.6	94.470	0.020	-0.780	1.070
2020/01/31 03:15:04.7	94.440	0.030	-0.770	1.090
2020/01/31 03:15:04.8	94.420	0.050	-0.760	1.100
2020/01/31 03:15:04.9	94.400	0.050	-0.740	1.110
2020/01/31 03:15:05.0	94.380	0.060	-0.720	1.120
2020/01/31 03:15:05.1	94.370	0.060	-0.680	1.120
2020/01/31 03:15:05.2	94.350	0.070	-0.650	1.130
2020/01/31 03:15:05.3	94.330	0.060	-0.600	1.130
2020/01/31 03:15:05.4	94.320	0.060	-0.560	1.130
2020/01/31 03:15:05.5	94.300	0.050	-0.510	1.130
2020/01/31 03:15:05.6	94.290	0.040	-0.460	1.130
2020/01/31 03:15:05.7	94.280	0.020	-0.410	1.120
2020/01/31 03:15:05.8	94.280	0.010	-0.350	1.110
2020/01/31 03:15:05.9	94.270	-0.010	-0.300	1.100
2020/01/31 03:15:06.0	94.270	-0.030	-0.240	1.080
2020/01/31 03:15:06.1	94.270	-0.050	-0.190	1.060
2020/01/31 03:15:06.2	94.270	-0.070	-0.140	1.040
2020/01/31 03:15:06.3	94.270	-0.100	-0.090	1.010
2020/01/31 03:15:06.4	94.280	-0.120	-0.040	0.980
2020/01/31 03:15:06.5	94.280	-0.150	-0.000	0.950
2020/01/31 03:15:06.6	94.290	-0.170	0.040	0.920
2020/01/31 03:15:06.7	94.300	-0.200	0.070	0.890
2020/01/31 03:15:06.8	94.310	-0.220	0.100	0.850
2020/01/31 03:15:06.9	94.320	-0.240	0.130	0.810
2020/01/31 03:15:07.0	94.340	-0.260	0.150	0.780
2020/01/31 03:15:07.1	94.350	-0.280	0.170	0.730
2020/01/31 03:15:07.2	94.360	-0.300	0.180	0.690
2020/01/31 03:15:07.3	94.380	-0.310	0.190	0.650
2020/01/31 03:15:07.4	94.390	-0.320	0.190	0.620
2020/01/31 03:15:07.5	94.410	-0.330	0.190	0.580
2020/01/31 03:15:07.6	94.420	-0.340	0.190	0.550
2020/01/31 03:15:07.7	94.430	-0.350	0.180	0.520
2020/01/31 03:15:07.8	94.440	-0.350	0.170	0.490
2020/01/31 03:15:07.9	94.450	-0.350	0.160	0.460
2020/01/31 03:15:08.0	94.470	-0.350	0.150	0.440
2020/01/31 03:15:08.1	94.470	-0.350	0.130	0.420
2020/01/31 03:15:08.2	94.480	-0.340	0.120	0.400
2020/01/31 03:15:08.3	94.490	-0.330	0.100	0.380
2020/01/31 03:15:08.4	94.500	-0.320	0.090	0.370
2020/01/31 03:15:08.5	94.500	-0.310	0.070	0.360
2020/01/31 03:15:08.6	94.510	-0.300	0.050	0.350
2020/01/31 03:15:08.7	94.510	-0.280	0.030	0.350
2020/01/31 03:15:08.8	94.520	-0.270	0.010	0.350
2020/01/31 03:15:08.9	94.520	-0.250	-0.010	0.350
2020/01/31 03:15:09.0	94.540	-0.230	-0.030	0.350
2020/01/31 03:15:09.1	94.540	-0.210	-0.050	0.360
2020/01/31 03:15:09.2	94.540	-0.190	-0.080	0.370
2020/01/31 03:15:09.3	94.540	-0.170	-0.100	0.390
2020/01/31 03:15:09.4	94.540	-0.150	-0.130	0.400
2020/01/31 03:15:09.5	94.540	-0.130	-0.160	0.430
2020/01/31 03:15:09.6	94.530	-0.100	-0.180	0.450
2020/01/31 03:15:09.7	94.530	-0.080	-0.210	0.470
2020/01/31 03:15:09.8	94.520	-0.060	-0.250	0.500
2020/01/31 03:15:09.9	94.520	-0.030	-0.280	0.520
2020/01/31 03:15:10.0	94.510	-0.000	-0.320	0.550
2020/01/31 03:15:10.1	94.490	0.020	-0.350	0.580
2020/01/31 03:15:10.2	94.480	0.050	-0.390	0.600
2020/01/31 03:15:10.3	94.470	0.080	-0.430	0.630
2020/01/31 03:15:10.4	94.460	0.100	-0.470	0.650
2020/01/31 03:15:10.5	94.450	0.130	-0.500	0.670
2020/01/31 03:15:10.6	94.450	0.150	-0.540	0.690
2020/01/31 03:15:10.7	94.440	0.180	-0.570	0.710
2020/01/31 03:15:10.8	94.430	0.200	-0.600	0.730
2020/01/31 03:15:10.9	94.430	0.230	-0.630	0.740
2020/01/31 03:15:11.0	94.420	0.250	-0.660	0.750
2020/01/31 03:15:11.1	94.420	0.270	-0.690	0.760
2020/01/31 03:15:11.2	94.420	0.290	-0.710	0.770
2020/01/31 03:15:11.3	94.420	0.310	-0.730	0.780
2020/01/31 03:15:11.4	94.420	0.320	-0.740	0.790
2020/01/31 03:15:11.5	94.420	0.340	-0.750	0.790
2020/01/31 03:15:11.6	94.420	0.350	-0.760	0.800
2020/01/31 03:15:11.7	94.420	0.360	-0.760	0.800
2020/01/31 03:15:11.8	94.420	0.370	-0.760	0.810
2020/01/31 03:15:11.9	94.430	0.380	-0.750	0.810
2020/01/31 03:15:12.0	94.440	0.380	-0.740	0.810
2020/01/31 03:15:12.1	94.440	0.390	-0.720	0.820
2020/01/31 03:15:12.2	94.450	0.390	-0.700	0.820
2020/01/31 03:15:12.3	94.450	0.390	-0.680	0.820
2020/01/31 03:15:12.4	94.450	0.390	-0.650	0.830
2020/01/31 03:15:12.5	94.450	0.380	-0.620	0.830
2020/01/31 03:15:12.6	94.450	0.380	-0.580	0.840
2020/01/31 03:15:12.7	94.450	0.370	-0.540	0.840
2020/01/31 03:15:12.8	94.450	0.360	-0.500	0.850
2020/01/31 03:15:12.9	94.450	0.350	-0.450	0.850
2020/01/31 03:15:13.0	94.440	0.340	-0.410	0.860
2020/01/31 03:15:13.1	94.440	0.320	-0.360	0.860
2020/01/31 03:15:13.2	94.430	0.310	-0.300	0.870
2020/01/31 03:15:13.3	94.420	0.290	-0.250	0.880
2020/01/31 03:15:13.4	94.410	0.270	-0.190	0.890
2020/01/31 03:15:13.5	94.400	0.260	-0.130	0.890
2020/01/31 03:15:13.6	94.390	0.240	-0.070	0.900
2020/01/31 03:15:13.7	94.370	0.220	-0.010	0.910
2020/01/31 03:15:13.8	94.360	0.200	0.040	0.910
2020/01/31 03:15:13.9	94.340	0.170	0.100	0.920
2020/01/31 03:15:14.0	94.330	0.150	0.150	0.920
2020/01/31 03:15:14.1	94.320	0.130	0.200	0.920
2020/01/31 03:15:14.2	94.310	0.110	0.250	0.930
2020/01/31 03:15:14.3	94.290	0.090	0.300	0.930
2020/01/31 03:15:14.4	94.280	0.070	0.330	0.930
2020/01/31 03:15:14.5	94.260	0.050	0.370	0.930
2020/01/31 03:15:14.6	94.250	0.030	0.400	0.930
2020/01/31 03:15:14.7	94.240	0.010	0.420	0.930
2020/01/31 03:15:14.8	94.220	-0.010	0.430	0.930
2020/01/31 03:15:14.9	94.210	-0.030	0.440	0.930
2020/01/31 03:15:15.0	94.200	-0.040	0.450	0.930
2020/01/31 03:15:15.1	94.200	-0.060	0.440	0.920
2020/01/31 03:15:15.2	94.190	-0.070	0.430	0.910
2020/01/31 03:15:15.3	94.180	-0.080	0.410	0.910
2020/01/31 03:15:15.4	94.180	-0.090	0.390	0.900
2020/01/31 03:15:15.5	94.170	-0.100	0.360	0.880
2020/01/31 03:15:15.6	94.170	-0.110	0.320	0.870
2020/01/31 03:15:15.7	94.170	-0.110	0.270	0.860
2020/01/31 03:15:15.8	94.170	-0.110	0.220	0.840
2020/01/31 03:15:15.9	94.170	-0.120	0.170	0.830
2020/01/31 03:15:16.0	94.180	-0.110	0.110	0.810
2020/01/31 03:15:16.1	94.180	-0.110	0.040	0.780
2020/01/31 03:15:16.2	94.190	-0.110	-0.030	0.770
2020/01/31 03:15:16.3	94.200	-0.100	-0.100	0.750
2020/01/31 03:15:16.4	94.210	-0.090	-0.170	0.720
2020/01/31 03:15:16.5	94.230	-0.080	-0.240	0.700
2020/01/31 03:15:16.6	94.240	-0.070	-0.320	0.680
2020/01/31 03:15:16.7	94.260	-0.060	-0.390	0.660
2020/01/31 03:15:16.8	94.280	-0.040	-0.460	0.640
2020/01/31 03:15:16.9	94.290	-0.030	-0.530	0.620
2020/01/31 03:15:17.0	94.310	-0.010	-0.600	0.600
2020/01/31 03:15:17.1	94.320	0.000	-0.660	0.570
2020/01/31 03:15:17.2	94.340	0.020	-0.720	0.560
2020/01/31 03:15:17.3	94.360	0.030	-0.770	0.540
2020/01/31 03:15:17.4	94.380	0.050	-0.820	0.530
2020/01/31 03:15:17.5	94.390	0.070	-0.860	0.520
2020/01/31 03:15:17.6	94.410	0.080	-0.900	0.510
2020/01/31 03:15:17.7	94.420	0.090	-0.930	0.500
2020/01/31 03:15:17.8	94.440	0.110	-0.950	0.500
2020/01/31 03:15:17.9	94.450	0.120	-0.960	0.500
2020/01/31 03:15:18.0	94.460	0.130	-0.970	0.510
2020/01/31 03:15:18.1	94.450	0.140	-0.960	0.510
2020/01/31 03:15:18.2	94.460	0.150	-0.950	0.530
2020/01/31 03:15:18.3	94.470	0.150	-0.940	0.550
2020/01/31 03:15:18.4	94.480	0.160	-0.910	0.570
2020/01/31 03:15:18.5	94.490	0.160	-0.880	0.600
2020/01/31 03:15:18.6	94.490	0.160	-0.830	0.640
2020/01/31 03:15:18.7	94.500	0.160	-0.780	0.670
2020/01/31 03:15:18.8	94.500	0.150	-0.730	0.720
2020/01/31 03:15:18.9	94.510	0.140	-0.670	0.760
2020/01/31 03:15:19.0	94.510	0.130	-0.600	0.810
2020/01/31 03:15:19.1	94.510	0.120	-0.530	0.860
2020/01/31 03:15:19.2	94.510	0.100	-0.450	0.910
2020/01/31 03:15:19.3	94.510	0.080	-0.370	0.960
2020/01/31 03:15:19.4	94.510	0.060	-0.290	1.010
2020/01/31 03:15:19.5	94.510	0.030	-0.200	1.060
2020/01/31 03:15:19.6	94.500	0.000	-0.120	1.100
2020/01/31 03:15:19.7	94.500	-0.030	-0.030	1.150
2020/01/31 03:15:19.8	94.490	-0.060	0.050	1.200
2020/01/31 03:15:19.9	94.480	-0.090	0.130	1.240
2020/01/31 03:15:20.0	94.470	-0.130	0.210	1.280
2020/01/31 03:15:20.1	94.480	-0.160	0.280	1.320
2020/01/31 03:15:20.2	94.470	-0.200	0.360	1.350
2020/01/31 03:15:20.3	94.450	-0.240	0.420	1.380
2020/01/31 03:15:20.4	94.440	-0.270	0.480	1.400
2020/01/31 03:15:20.5	94.430	-0.310	0.540	1.430
2020/01/31 03:15:20.6	94.410	-0.350	0.580	1.440
2020/01/31 03:15:20.7	94.400	-0.380	0.620	1.450
2020/01/31 03:15:20.8	94.380	-0.420	0.660	1.460
2020/01/31 03:15:20.9	94.370	-0.450	0.680	1.460
2020/01/31 03:15:21.0	94.360	-0.480	0.700	1.450
2020/01/31 03:15:21.1	94.350	-0.510	0.710	1.440
2020/01/31 03:15:21.2	94.340	-0.540	0.710	1.420
2020/01/31 03:15:21.3	94.330	-0.560	0.700	1.400
2020/01/31 03:15:21.4	94.320	-0.580	0.690	1.380
2020/01/31 03:15:21.5	94.320	-0.600	0.660	1.350
2020/01/31 03:15:21.6	94.320	-0.610	0.630	1.320
2020/01/31 03:15:21.7	94.320	-0.620	0.590	1.280
2020/01/31 03:15:21.8	94.320	-0.630	0.540	1.250
2020/01/31 03:15:21.9	94.320	-0.630	0.480	1.210
2020/01/31 03:15:22.0	94.320	-0.620	0.410	1.160
2020/01/31 03:15:22.1	94.340	-0.610	0.340	1.120
2020/01/31 03:15:22.2	94.340	-0.600	0.260	1.070
2020/01/31 03:15:22.3	94.350	-0.580	0.180	1.030
2020/01/31 03:15:22.4	94.360	-0.560	0.090	0.990
2020/01/31 03:15:22.5	94.370	-0.540	0.000	0.940
2020/01/31 03:15:22.6	94.370	-0.510	-0.090	0.900
2020/01/31 03:15:22.7	94.380	-0.470	-0.180	0.860
2020/01/31 03:15:22.8	94.380	-0.440	-0.270	0.830
2020/01/31 03:15:22.9	94.390	-0.400	-0.360	0.790
2020/01/31 03:15:23.0	94.390	-0.360	-0.440	0.760
2020/01/31 03:15:23.1	94.400	-0.320	-0.520	0.730
2020/01/31 03:15:23.2	94.400	-0.280	-0.600	0.700
2020/01/31 03:15:23.3	94.400	-0.230	-0.670	0.670
2020/01/31 03:15:23.4	94.400	-0.190	-0.740	0.650
2020/01/31 03:15:23.5	94.400	-0.140	-0.800	0.630
2020/01/31 03:15:23.6	94.400	-0.100	-0.860	0.620
2020/01/31 03:15:23.7	94.400	-0.050	-0.910	0.600
2020/01/31 03:15:23.8	94.400	-0.010	-0.950	0.590
2020/01/31 03:15:23.9	94.400	0.040	-0.980	0.590
2020/01/31 03:15:24.0	94.390	0.080	-1.010	0.580
2020/01/31 03:15:24.1	94.390	0.120	-1.030	0.580
2020/01/31 03:15:24.2	94.380	0.160	-1.050	0.580
2020/01/31 03:15:24.3	94.380	0.190	-1.050	0.580
2020/01/31 03:15:24.4	94.370	0.230	-1.050	0.590
2020/01/31 03:15:24.5	94.370	0.260	-1.050	0.600
2020/01/31 03:15:24.6	94.360	0.290	-1.040	0.610
2020/01/31 03:15:24.7	94.350	0.320	-1.030	0.620
2020/01/31 03:15:24.8	94.350	0.350	-1.010	0.630
2020/01/31 03:15:24.9	94.340	0.370	-0.990	0.640
2020/01/31 03:15:25.0	94.330	0.390	-0.960	0.650
2020/01/31 03:15:25.1	94.310	0.410	-0.930	0.660
2020/01/31 03:15:25.2	94.300	0.430	-0.900	0.670
2020/01/31 03:15:25.3	94.290	0.440	-0.870	0.670
2020/01/31 03:15:25.4	94.280	0.460	-0.830	0.680
2020/01/31 03:15:25.5	94.270	0.470	-0.800	0.690
2020/01/31 03:15:25.6	94.260	0.470	-0.760	0.690
2020/01/31 03:15:25.7	94.250	0.480	-0.730	0.700
2020/01/31 03:15:25.8	94.240	0.490	-0.690	0.700
2020/01/31 03:15:25.9	94.230	0.490	-0.650	0.700
2020/01/31 03:15:26.0	94.200	0.490	-0.610	0.700
2020/01/31 03:15:26.1	94.190	0.490	-0.570	0.700
2020/01/31 03:15:26.2	94.190	0.490	-0.530	0.700
2020/01/31 03:15:26.3	94.180	0.480	-0.490	0.700
2020/01/31 03:15:26.4	94.170	0.470	-0.450	0.690
2020/01/31 03:15:26.5	94.160	0.470	-0.400	0.690
2020/01/31 03:15:26.6	94.160	0.460	-0.360	0.690
2020/01/31 03:15:26.7	94.150	0.440	-0.310	0.690
2020/01/31 03:15:26.8	94.150	0.430	-0.260	0.680
2020/01/31 03:15:26.9	94.150	0.410	-0.220	0.680
2020/01/31 03:15:27.0	94.140	0.400	-0.170	0.680
2020/01/31 03:15:27.1	94.150	0.380	-0.120	0.670
2020/01/31 03:15:27.2	94.150	0.360	-0.070	0.670
2020/01/31 03:15:27.3	94.150	0.330	-0.020	0.660
2020/01/31 03:15:27.4	94.150	0.310	0.030	0.660
2020/01/31 03:15:27.5	94.160	0.280	0.070	0.650
2020/01/31 03:15:27.6	94.160	0.260	0.120	0.650
2020/01/31 03:15:27.7	94.170	0.230	0.160	0.640
2020/01/31 03:15:27.8	94.180	0.200	0.210	0.640
2020/01/31 03:15:27.9	94.190	0.170	0.250	0.630
2020/01/31 03:15:28.0	94.200	0.140	0.280	0.620
2020/01/31 03:15:28.1	94.210	0.100	0.320	0.610
2020/01/31 03:15:28.2	94.230	0.070	0.350	0.600
2020/01/31 03:15:28.3	94.240	0.040	0.380	0.590
2020/01/31 03:15:28.4	94.260	0.010	0.400	0.590
2020/01/31 03:15:28.5	94.270	-0.020	0.420	0.580
2020/01/31 03:15:28.6	94.280	-0.050	0.440	0.570
2020/01/31 03:15:28.7	94.300	-0.080	0.450	0.560
2020/01/31 03:15:28.8	94.310	-0.110	0.460	0.550
2020/01/31 03:15:28.9	94.330	-0.140	0.470	0.540
2020/01/31 03:15:29.0	94.340	-0.170	0.470	0.530
2020/01/31 03:15:29.1	94.350	-0.190	0.470	0.520
2020/01/31 03:15:29.2	94.360	-0.220	0.470	0.520
2020/01/31 03:15:29.3	94.370	-0.240	0.460	0.510
2020/01/31 03:15:29.4	94.380	-0.260	0.450	0.510
2020/01/31 03:15:29.5	94.390	-0.270	0.430	0.510
2020/01/31 03:15:29.6	94.390	-0.290	0.410	0.510
2020/01/31 03:15:29.7	94.400	-0.300	0.380	0.510
2020/01/31 03:15:29.8	94.400	-0.310	0.350	0.520
2020/01/31 03:15:29.9	94.400	-0.310	0.320	0.530
2020/01/31 03:15:30.0	94.400	-0.310	0.280	0.540
2020/01/31 03:15:30.1	94.400	-0.310	0.240	0.550
2020/01/31 03:15:30.2	94.400	-0.310	0.190	0.570
2020/01/31 03:15:30.3	94.400	-0.300	0.140	0.580
2020/01/31 03:15:30.4	94.390	-0.290	0.090	0.600
2020/01/31 03:15:30.5	94.390	-0.270	0.030	0.630
2020/01/31 03:15:30.6	94.380	-0.250	-0.030	0.650
2020/01/31 03:15:30.7	94.380	-0.230	-0.100	0.670
2020/01/31 03:15:30.8	94.370	-0.200	-0.170	0.700
2020/01/31 03:15:30.9	94.360	-0.180	-0.240	0.720
2020/01/31 03:15:31.0	94.360	-0.150	-0.310	0.750
2020/01/31 03:15:31.1	94.360	-0.110	-0.380	0.770
2020/01/31 03:15:31.2	94.360	-0.080	-0.450	0.790
2020/01/31 03:15:31.3	94.350	-0.040	-0.520	0.810
2020/01/31 03:15:31.4	94.350	-0.010	-0.590	0.830
2020/01/31 03:15:31.5	94.340	0.030	-0.660	0.850
2020/01/31 03:15:31.6	94.340	0.070	-0.720	0.870
2020/01/31 03:15:31.7	94.340	0.100	-0.780	0.880
2020/01/31 03:15:31.8	94.330	0.140	-0.840	0.890
2020/01/31 03:15:31.9	94.330	0.180	-0.890	0.900
2020/01/31 03:15:32.0	94.330	0.210	-0.930	0.910
2020/01/31 03:15:32.1	94.330	0.240	-0.970	0.920
2020/01/31 03:15:32.2	94.330	0.270	-1.000	0.930
2020/01/31 03:15:32.3	94.330	0.300	-1.020	0.930
2020/01/31 03:15:32.4	94.330	0.320	-1.030	0.940
2020/01/31 03:15:32.5	94.330	0.340	-1.030	0.940
2020/01/31 03:15:32.6	94.320	0.360	-1.030	0.950
2020/01/31 03:15:32.7	94.320	0.370	-1.010	0.950
2020/01/31 03:15:32.8	94.320	0.380	-0.990	0.950
2020/01/31 03:15:32.9	94.320	0.390	-0.960	0.950
2020/01/31 03:15:33.0	94.300	0.390	-0.920	0.950
2020/01/31 03:15:33.1	94.300	0.380	-0.870	0.950
2020/01/31 03:15:33.2	94.290	0.380	-0.810	0.960
2020/01/31 03:15:33.3	94.290	0.370	-0.750	0.960
2020/01/31 03:15:33.4	94.290	0.350	-0.680	0.960
2020/01/31 03:15:33.5	94.280	0.330	-0.600	0.960
2020/01/31 03:15:33.6	94.280	0.310	-0.520	0.960
2020/01/31 03:15:33.7	94.270	0.290	-0.430	0.960
2020/01/31 03:15:33.8	94.270	0.260	-0.340	0.950
2020/01/31 03:15:33.9	94.260	0.230	-0.250	0.950
2020/01/31 03:15:34.0	94.250	0.200	-0.160	0.950
2020/01/31 03:15:34.1	94.260	0.160	-0.050	0.950
2020/01/31 03:15:34.2	94.260	0.120	0.040	0.940
2020/01/31 03:15:34.3	94.250	0.090	0.120	0.940
2020/01/31 03:15:34.4	94.240	0.050	0.210	0.930
2020/01/31 03:15:34.5	94.240	0.010	0.290	0.920
2020/01/31 03:15:34.6	94.230	-0.030	0.360	0.920
2020/01/31 03:15:34.7	94.230	-0.070	0.430	0.910
2020/01/31 03:15:34.8	94.220	-0.100	0.490	0.900
2020/01/31 03:15:34.9	94.220	-0.140	0.540	0.890
2020/01/31 03:15:35.0	94.220	-0.170	0.580	0.880
2020/01/31 03:15:35.1	94.220	-0.200	0.610	0.870
2020/01/31 03:15:35.2	94.220	-0.230	0.630	0.850
2020/01/31 03:15:35.3	94.220	-0.260	0.640	0.840
2020/01/31 03:15:35.4	94.210	-0.280	0.640	0.830
2020/01/31 03:15:35.5	94.210	-0.300	0.630	0.810
2020/01/31 03:15:35.6	94.210	-0.320	0.610	0.800
2020/01/31 03:15:35.7	94.200	-0.330	0.580	0.780
2020/01/31 03:15:35.8	94.200	-0.350	0.550	0.760
2020/01/31 03:15:35.9	94.200	-0.350	0.500	0.740
2020/01/31 03:15:36.0	94.200	-0.360	0.440	0.720
2020/01/31 03:15:36.1	94.180	-0.360	0.380	0.700
2020/01/31 03:15:36.2	94.180	-0.360	0.320	0.670
2020/01/31 03:15:36.3	94.180	-0.360	0.240	0.650
2020/01/31 03:15:36.4	94.180	-0.360	0.160	0.620
2020/01/31 03:15:36.5	94.180	-0.350	0.080	0.600
2020/01/31 03:15:36.6	94.190	-0.340	-0.000	0.570
2020/01/31 03:15:36.7	94.190	-0.330	-0.090	0.540
2020/01/31 03:15:36.8	94.190	-0.320	-0.170	0.510
2020/01/31 03:15:36.9	94.190	-0.310	-0.260	0.480
2020/01/31 03:15:37.0	94.200	-0.290	-0.340	0.460
2020/01/31 03:15:37.1	94.190	-0.280	-0.430	0.420
2020/01/31 03:15:37.2	94.190	-0.260	-0.510	0.400
2020/01/31 03:15:37.3	94.190	-0.240	-0.580	0.380
2020/01/31 03:15:37.4	94.200	-0.220	-0.650	0.360
2020/01/31 03:15:37.5	94.200	-0.200	-0.720	0.340
2020/01/31 03:15:37.6	94.200	-0.180	-0.780	0.320
2020/01/31 03:15:37.7	94.200	-0.150	-0.840	0.310
2020/01/31 03:15:37.8	94.200	-0.130	-0.890	0.300
2020/01/31 03:15:37.9	94.210	-0.100	-0.930	0.290
2020/01/31 03:15:38.0	94.210	-0.080	-0.970	0.290
2020/01/31 03:15:38.1	94.220	-0.050	-1.000	0.290
2020/01/31 03:15:38.2	94.220	-0.030	-1.020	0.290
2020/01/31 03:15:38.3	94.220	0.000	-1.040	0.300
2020/01/31 03:15:38.4	94.220	0.030	-1.050	0.310
2020/01/31 03:15:38.5	94.220	0.050	-1.050	0.330
2020/01/31 03:15:38.6	94.230	0.080	-1.050	0.350
2020/01/31 03:15:38.7	94.230	0.100	-1.040	0.370
2020/01/31 03:15:38.8	94.240	0.130	-1.020	0.400
2020/01/31 03:15:38.9	94.240	0.150	-1.000	0.420
2020/01/31 03:15:39.0	94.250	0.170	-0.970	0.450
2020/01/31 03:15:39.1	94.240	0.190	-0.940	0.480
2020/01/31 03:15:39.2	94.240	0.210	-0.900	0.520
2020/01/31 03:15:39.3	94.250	0.220	-0.860	0.550
2020/01/31 03:15:39.4	94.250	0.240	-0.810	0.590
2020/01/31 03:15:39.5	94.250	0.240	-0.750	0.630
2020/01/31 03:15:39.6	94.260	0.250	-0.700	0.670
2020/01/31 03:15:39.7	94.260	0.250	-0.640	0.700
2020/01/31 03:15:39.8	94.250	0.250	-0.570	0.740
2020/01/31 03:15:39.9	94.250	0.240	-0.500	0.770
2020/01/31 03:15:40.0	94.250	0.230	-0.430	0.810
2020/01/31 03:15:40.1	94.240	0.210	-0.360	0.840
2020/01/31 03:15:40.2	94.230	0.190	-0.290	0.870
2020/01/31 03:15:40.3	94.220	0.170	-0.220	0.890
2020/01/31 03:15:40.4	94.210	0.150	-0.140	0.910
2020/01/31 03:15:40.5	94.200	0.120	-0.070	0.930
2020/01/31 03:15:40.6	94.190	0.090	0.000	0.950
2020/01/31 03:15:40.7	94.170	0.050	0.070	0.960
2020/01/31 03:15:40.8	94.160	0.020	0.140	0.970
2020/01/31 03:15:40.9	94.140	-0.020	0.200	0.980
2020/01/31 03:15:41.0	94.120	-0.060	0.260	0.990
2020/01/31 03:15:41.1	94.110	-0.100	0.320	0.990
2020/01/31 03:15:41.2	94.090	-0.140	0.380	0.990
2020/01/31 03:15:41.3	94.070	-0.180	0.430	0.990
2020/01/31 03:15:41.4	94.050	-0.220	0.470	0.990
2020/01/31 03:15:41.5	94.030	-0.260	0.510	0.980
2020/01/31 03:15:41.6	94.020	-0.290	0.550	0.980
2020/01/31 03:15:41.7	94.000	-0.330	0.580	0.970
2020/01/31 03:15:41.8	93.990	-0.360	0.600	0.970
2020/01/31 03:15:41.9	93.970	-0.390	0.610	0.960
2020/01/31 03:15:42.0	93.960	-0.410	0.620	0.950
2020/01/31 03:15:42.1	93.960	-0.430	0.630	0.940
2020/01/31 03:15:42.2	93.950	-0.450	0.630	0.930
2020/01/31 03:15:42.3	93.940	-0.460	0.620	0.920
2020/01/31 03:15:42.4	93.940	-0.470	0.600	0.910
2020/01/31 03:15:42.5	93.930	-0.470	0.580	0.900
2020/01/31 03:15:42.6	93.930	-0.470	0.550	0.890
2020/01/31 03:15:42.7	93.930	-0.460	0.510	0.870
2020/01/31 03:15:42.8	93.930	-0.450	0.470	0.860
2020/01/31 03:15:42.9	93.940	-0.430	0.420	0.840
2020/01/31 03:15:43.0	93.930	-0.410	0.360	0.820
2020/01/31 03:15:43.1	93.940	-0.380	0.300	0.800
2020/01/31 03:15:43.2	93.950	-0.350	0.240	0.780
2020/01/31 03:15:43.3	93.970	-0.310	0.170	0.760
2020/01/31 03:15:43.4	93.980	-0.270	0.100	0.730
2020/01/31 03:15:43.5	93.990	-0.220	0.020	0.710
2020/01/31 03:15:43.6	94.010	-0.180	-0.060	0.680
2020/01/31 03:15:43.7	94.030	-0.130	-0.140	0.650
2020/01/31 03:15:43.8	94.050	-0.070	-0.230	0.620
2020/01/31 03:15:43.9	94.070	-0.010	-0.310	0.590
2020/01/31 03:15:44.0	94.080	0.040	-0.400	0.570
2020/01/31 03:15:44.1	94.090	0.100	-0.480	0.540
2020/01/31 03:15:44.2	94.100	0.160	-0.570	0.510
2020/01/31 03:15:44.3	94.120	0.220	-0.650	0.490
2020/01/31 03:15:44.4	94.130	0.280	-0.730	0.460
2020/01/31 03:15:44.5	94.140	0.340	-0.810	0.440
2020/01/31 03:15:44.6	94.150	0.400	-0.880	0.430
2020/01/31 03:15:44.7	94.150	0.460	-0.940	0.410
2020/01/31 03:15:44.8	94.160	0.510	-1.000	0.400
2020/01/31 03:15:44.9	94.160	0.560	-1.050	0.390
2020/01/31 03:15:45.0	94.160	0.600	-1.090	0.380
2020/01/31 03:15:45.1	94.150	0.640	-1.130	0.380
2020/01/31 03:15:45.2	94.150	0.680	-1.150	0.380
2020/01/31 03:15:45.3	94.140	0.710	-1.160	0.380
2020/01/31 03:15:45.4	94.140	0.730	-1.160	0.390
2020/01/31 03:15:45.5	94.140	0.750	-1.150	0.400
2020/01/31 03:15:45.6	94.130	0.770	-1.140	0.420
2020/01/31 03:15:45.7	94.120	0.770	-1.110	0.430
2020/01/31 03:15:45.8	94.120	0.770	-1.070	0.450
2020/01/31 03:15:45.9	94.110	0.770	-1.020	0.480
2020/01/31 03:15:46.0	94.110	0.760	-0.960	0.500
2020/01/31 03:15:46.1	94.090	0.740	-0.880	0.530
2020/01/31 03:15:46.2	94.090	0.710	-0.800	0.560
2020/01/31 03:15:46.3	94.080	0.680	-0.720	0.590
2020/01/31 03:15:46.4	94.070	0.640	-0.630	0.630
2020/01/31 03:15:46.5	94.070	0.600	-0.540	0.670
2020/01/31 03:15:46.6				
2020/01/31 03:15:46.7	94.060	0.550	-0.440	0.700
2020/01/31 03:15:46.8	94.050	0.440	-0.240	0.780
2020/01/31 03:15:46.9	94.040	0.390	-0.140	0.820
2020/01/31 03:15:47.0	94.030	0.320	-0.030	0.850
2020/01/31 03:15:47.1	94.040	0.260	0.060	0.890
2020/01/31 03:15:47.2	94.040	0.190	0.160	0.920
2020/01/31 03:15:47.3	94.030	0.120	0.260	0.950
2020/01/31 03:15:47.4	94.030	0.060	0.350	0.980
2020/01/31 03:15:47.5	94.030	-0.010	0.430	1.000
2020/01/31 03:15:47.6	94.030	-0.080	0.510	1.020
2020/01/31 03:15:47.7	94.030	-0.140	0.580	1.040
2020/01/31 03:15:47.8	94.030	-0.210	0.640	1.050
2020/01/31 03:15:47.9	94.030	-0.260	0.690	1.060
2020/01/31 03:15:48.0	94.030	-0.320	0.730	1.070
2020/01/31 03:15:48.1	94.040	-0.370	0.770	1.070
2020/01/31 03:15:48.2	94.040	-0.420	0.790	1.080
2020/01/31 03:15:48.3	94.040	-0.460	0.800	1.080
2020/01/31 03:15:48.4	94.040	-0.500	0.800	1.080
2020/01/31 03:15:48.5	94.040	-0.520	0.780	1.090
2020/01/31 03:15:48.6	94.040	-0.550	0.760	1.090
2020/01/31 03:15:48.7	94.040	-0.560	0.720	1.090
2020/01/31 03:15:48.8	94.050	-0.570	0.670	1.090
2020/01/31 03:15:48.9	94.050	-0.570	0.610	1.090
2020/01/31 03:15:49.0	94.050	-0.570	0.540	1.080
2020/01/31 03:15:49.1	94.060	-0.560	0.460	1.080
2020/01/31 03:15:49.2	94.060	-0.540	0.370	1.080
2020/01/31 03:15:49.3	94.060	-0.510	0.270	1.080
2020/01/31 03:15:49.4	94.050	-0.480	0.160	1.080
2020/01/31 03:15:49.5	94.050	-0.440	0.050	1.080
2020/01/31 03:15:49.6	94.050	-0.390	-0.070	1.080
2020/01/31 03:15:49.7	94.050	-0.350	-0.190	1.070
2020/01/31 03:15:49.8	94.060	-0.290	-0.310	1.070
2020/01/31 03:15:49.9	94.060	-0.240	-0.430	1.060
2020/01/31 03:15:50.0	94.070	-0.180	-0.550	1.040
2020/01/31 03:15:50.1	94.080	-0.120	-0.670	1.020
2020/01/31 03:15:50.2	94.090	-0.050	-0.790	1.000
2020/01/31 03:15:50.3	94.100	0.010	-0.900	0.980
2020/01/31 03:15:50.4	94.110	0.070	-1.000	0.950
2020/01/31 03:15:50.5	94.130	0.130	-1.090	0.930
2020/01/31 03:15:50.6	94.140	0.180	-1.170	0.900
2020/01/31 03:15:50.7	94.160	0.240	-1.240	0.880
2020/01/31 03:15:50.8	94.180	0.290	-1.300	0.850
2020/01/31 03:15:50.9	94.190	0.340	-1.350	0.830
2020/01/31 03:15:51.0	94.210	0.380	-1.380	0.810
2020/01/31 03:15:51.1	94.220	0.410	-1.400	0.790
2020/01/31 03:15:51.2	94.240	0.440	-1.410	0.780
2020/01/31 03:15:51.3	94.260	0.470	-1.400	0.770
2020/01/31 03:15:51.4	94.270	0.480	-1.380	0.760
2020/01/31 03:15:51.5	94.280	0.500	-1.340	0.760
2020/01/31 03:15:51.6	94.300	0.500	-1.290	0.760
2020/01/31 03:15:51.7	94.310	0.500	-1.220	0.760
2020/01/31 03:15:51.8	94.320	0.490	-1.150	0.770
2020/01/31 03:15:51.9	94.330	0.470	-1.060	0.780
2020/01/31 03:15:52.0	94.340	0.450	-0.960	0.790
2020/01/31 03:15:52.1	94.320	0.420	-0.850	0.800
2020/01/31 03:15:52.2	94.330	0.390	-0.740	0.810
2020/01/31 03:15:52.3	94.330	0.350	-0.610	0.820
2020/01/31 03:15:52.4	94.330	0.310	-0.490	0.840
2020/01/31 03:15:52.5	94.330	0.260	-0.350	0.860
2020/01/31 03:15:52.6	94.330	0.210	-0.220	0.870
2020/01/31 03:15:52.7	94.330	0.150	-0.080	0.890
2020/01/31 03:15:52.8	94.330	0.090	0.050	0.900
2020/01/31 03:15:52.9	94.320	0.030	0.180	0.920
2020/01/31 03:15:53.0	94.320	-0.030	0.310	0.930
2020/01/31 03:15:53.1	94.320	-0.090	0.430	0.940
2020/01/31 03:15:53.2	94.310	-0.160	0.550	0.960
2020/01/31 03:15:53.3	94.300	-0.220	0.650	0.970
2020/01/31 03:15:53.4	94.290	-0.280	0.750	0.980
2020/01/31 03:15:53.5	94.280	-0.340	0.830	0.990
2020/01/31 03:15:53.6	94.270	-0.400	0.910	1.000
2020/01/31 03:15:53.7	94.260	-0.450	0.970	1.010
2020/01/31 03:15:53.8	94.250	-0.500	1.020	1.020
2020/01/31 03:15:53.9	94.240	-0.540	1.050	1.030
2020/01/31 03:15:54.0	94.230	-0.590	1.080	1.030
2020/01/31 03:15:54.1	94.220	-0.620	1.090	1.040
2020/01/31 03:15:54.2	94.210	-0.660	1.080	1.040
2020/01/31 03:15:54.3	94.200	-0.690	1.070	1.040
2020/01/31 03:15:54.4	94.190	-0.710	1.040	1.040
2020/01/31 03:15:54.5	94.170	-0.730	1.000	1.040
2020/01/31 03:15:54.6	94.160	-0.740	0.950	1.040
2020/01/31 03:15:54.7	94.150	-0.750	0.890	1.030
2020/01/31 03:15:54.8	94.140	-0.750	0.820	1.030
2020/01/31 03:15:54.9	94.130	-0.740	0.740	1.020
2020/01/31 03:15:55.0	94.120	-0.740	0.650	1.010
2020/01/31 03:15:55.1	94.100	-0.720	0.550	1.000
2020/01/31 03:15:55.2	94.090	-0.700	0.450	0.980
2020/01/31 03:15:55.3	94.090	-0.680	0.340	0.970
2020/01/31 03:15:55.4	94.080	-0.650	0.230	0.950
2020/01/31 03:15:55.5	94.080	-0.610	0.120	0.940
2020/01/31 03:15:55.6	94.080	-0.570	-0.000	0.920
2020/01/31 03:15:55.7	94.080	-0.530	-0.120	0.900
2020/01/31 03:15:55.8	94.080	-0.480	-0.240	0.870
2020/01/31 03:15:55.9	94.080	-0.430	-0.360	0.850
2020/01/31 03:15:56.0	94.090	-0.380	-0.470	0.820
2020/01/31 03:15:56.1	94.100	-0.320	-0.590	0.780
2020/01/31 03:15:56.2	94.110	-0.260	-0.700	0.750
2020/01/31 03:15:56.3	94.120	-0.200	-0.800	0.720
2020/01/31 03:15:56.4	94.140	-0.140	-0.900	0.690
2020/01/31 03:15:56.5	94.160	-0.080	-0.990	0.660
2020/01/31 03:15:56.6	94.170	-0.020	-1.070	0.640
2020/01/31 03:15:56.7	94.190	0.040	-1.140	0.610
2020/01/31 03:15:56.8	94.210	0.100	-1.200	0.590
2020/01/31 03:15:56.9	94.230	0.160	-1.250	0.570
2020/01/31 03:15:57.0	94.220	0.210	-1.300	0.550
2020/01/31 03:15:57.1	94.240	0.270	-1.330	0.530
2020/01/31 03:15:57.2	94.250	0.320	-1.350	0.520
2020/01/31 03:15:57.3	94.270	0.360	-1.360	0.520
2020/01/31 03:15:57.4	94.280	0.410	-1.370	0.510
2020/01/31 03:15:57.5	94.290	0.450	-1.360	0.510
2020/01/31 03:15:57.6	94.300	0.480	-1.340	0.510
2020/01/31 03:15:57.7	94.300	0.510	-1.310	0.510
2020/01/31 03:15:57.8	94.310	0.540	-1.280	0.520
2020/01/31 03:15:57.9	94.320	0.560	-1.240	0.520
2020/01/31 03:15:58.0	94.320	0.570	-1.190	0.530
2020/01/31 03:15:58.1	94.320	0.590	-1.130	0.540
2020/01/31 03:15:58.2	94.320	0.590	-1.070	0.550
2020/01/31 03:15:58.3	94.320	0.600	-1.000	0.570
2020/01/31 03:15:58.4	94.320	0.590	-0.930	0.580
2020/01/31 03:15:58.5	94.320	0.590	-0.860	0.590
2020/01/31 03:15:58.6	94.310	0.580	-0.790	0.600
2020/01/31 03:15:58.7	94.310	0.570	-0.710	0.620
2020/01/31 03:15:58.8	94.310	0.550	-0.630	0.630
2020/01/31 03:15:58.9	94.310	0.530	-0.550	0.640
2020/01/31 03:15:59.0	94.300	0.510	-0.470	0.650
2020/01/31 03:15:59.1	94.310	0.490	-0.400	0.660
2020/01/31 03:15:59.2	94.300	0.460	-0.320	0.670
2020/01/31 03:15:59.3	94.300	0.440	-0.240	0.690
2020/01/31 03:15:59.4	94.300	0.410	-0.170	0.700
2020/01/31 03:15:59.5	94.300	0.380	-0.100	0.710
2020/01/31 03:15:59.6	94.290	0.350	-0.030	0.730
2020/01/31 03:15:59.7	94.290	0.320	0.030	0.740
2020/01/31 03:15:59.8	94.290	0.290	0.090	0.760
2020/01/31 03:15:59.9	94.280	0.260	0.150	0.780
2020/01/31 03:16:00.0	94.280	0.230	0.200	0.800
2020/01/31 03:16:00.1	94.280	0.200	0.250	0.830
2020/01/31 03:16:00.2	94.280	0.160	0.290	0.850
2020/01/31 03:16:00.3	94.270	0.130	0.340	0.880
2020/01/31 03:16:00.4	94.260	0.100	0.380	0.900
2020/01/31 03:16:00.5	94.250	0.070	0.410	0.930
2020/01/31 03:16:00.6	94.250	0.040	0.450	0.960
2020/01/31 03:16:00.7	94.240	0.010	0.480	0.990
2020/01/31 03:16:00.8	94.230	-0.020	0.500	1.020
2020/01/31 03:16:00.9	94.220	-0.050	0.530	1.040
2020/01/31 03:16:01.0	94.210	-0.070	0.550	1.070
2020/01/31 03:16:01.1	94.190	-0.100	0.570	1.090
2020/01/31 03:16:01.2	94.180	-0.130	0.580	1.110
2020/01/31 03:16:01.3	94.170	-0.160	0.590	1.130
2020/01/31 03:16:01.4	94.160	-0.190	0.600	1.140
2020/01/31 03:16:01.5	94.150	-0.210	0.600	1.150
2020/01/31 03:16:01.6	94.140	-0.240	0.600	1.160
2020/01/31 03:16:01.7	94.140	-0.260	0.590	1.160
2020/01/31 03:16:01.8	94.130	-0.280	0.580	1.160
2020/01/31 03:16:01.9	94.130	-0.300	0.560	1.160
2020/01/31 03:16:02.0	94.120	-0.310	0.540	1.150
2020/01/31 03:16:02.1	94.110	-0.320	0.510	1.130
2020/01/31 03:16:02.2	94.110	-0.330	0.480	1.110
2020/01/31 03:16:02.3	94.110	-0.340	0.440	1.090
2020/01/31 03:16:02.4	94.120	-0.340	0.400	1.070
2020/01/31 03:16:02.5	94.120	-0.340	0.350	1.040
2020/01/31 03:16:02.6	94.130	-0.340	0.300	1.010
2020/01/31 03:16:02.7	94.130	-0.330	0.240	0.980
2020/01/31 03:16:02.8	94.140	-0.320	0.180	0.940
2020/01/31 03:16:02.9	94.150	-0.300	0.120	0.910
2020/01/31 03:16:03.0	94.170	-0.280	0.050	0.870
2020/01/31 03:16:03.1	94.190	-0.260	-0.020	0.830
2020/01/31 03:16:03.2	94.210	-0.230	-0.090	0.790
2020/01/31 03:16:03.3	94.230	-0.200	-0.160	0.760
2020/01/31 03:16:03.4	94.250	-0.170	-0.230	0.720
2020/01/31 03:16:03.5	94.270	-0.130	-0.310	0.690
2020/01/31 03:16:03.6	94.290	-0.090	-0.380	0.660
2020/01/31 03:16:03.7	94.310	-0.050	-0.450	0.630
2020/01/31 03:16:03.8	94.330	-0.000	-0.520	0.600
2020/01/31 03:16:03.9	94.350	0.040	-0.580	0.580
2020/01/31 03:16:04.0	94.370	0.090	-0.650	0.550
2020/01/31 03:16:04.1	94.390	0.130	-0.710	0.530
2020/01/31 03:16:04.2	94.400	0.180	-0.760	0.520
2020/01/31 03:16:04.3	94.420	0.230	-0.820	0.500
2020/01/31 03:16:04.4	94.440	0.270	-0.860	0.490
2020/01/31 03:16:04.5	94.450	0.310	-0.910	0.480
2020/01/31 03:16:04.6	94.460	0.360	-0.940	0.480
2020/01/31 03:16:04.7	94.470	0.400	-0.980	0.470
2020/01/31 03:16:04.8	94.480	0.430	-1.000	0.470
2020/01/31 03:16:04.9	94.480	0.470	-1.020	0.480
2020/01/31 03:16:05.0	94.490	0.500	-1.040	0.480
2020/01/31 03:16:05.1	94.490	0.520	-1.050	0.490
2020/01/31 03:16:05.2	94.490	0.540	-1.050	0.500
2020/01/31 03:16:05.3	94.480	0.560	-1.050	0.510
2020/01/31 03:16:05.4	94.480	0.580	-1.030	0.520
2020/01/31 03:16:05.5	94.480	0.590	-1.020	0.540
2020/01/31 03:16:05.6	94.470	0.590	-0.990	0.550
2020/01/31 03:16:05.7	94.460	0.590	-0.960	0.570
2020/01/31 03:16:05.8	94.450	0.580	-0.930	0.580
2020/01/31 03:16:05.9	94.450	0.570	-0.880	0.600
2020/01/31 03:16:06.0	94.440	0.560	-0.840	0.620
2020/01/31 03:16:06.1	94.400	0.540	-0.780	0.630
2020/01/31 03:16:06.2	94.390	0.520	-0.730	0.650
2020/01/31 03:16:06.3	94.380	0.490	-0.670	0.660
2020/01/31 03:16:06.4	94.370	0.460	-0.600	0.680
2020/01/31 03:16:06.5	94.360	0.420	-0.530	0.700
2020/01/31 03:16:06.6	94.350	0.380	-0.460	0.720
2020/01/31 03:16:06.7	94.350	0.340	-0.390	0.740
2020/01/31 03:16:06.8	94.340	0.290	-0.310	0.760
2020/01/31 03:16:06.9	94.330	0.250	-0.240	0.780
2020/01/31 03:16:07.0	94.320	0.200	-0.160	0.790
2020/01/31 03:16:07.1	94.310	0.150	-0.080	0.810
2020/01/31 03:16:07.2	94.300	0.090	-0.000	0.830
2020/01/31 03:16:07.3	94.300	0.040	0.070	0.850
2020/01/31 03:16:07.4	94.290	-0.020	0.150	0.870
2020/01/31 03:16:07.5	94.290	-0.070	0.220	0.900
2020/01/31 03:16:07.6	94.280	-0.120	0.290	0.920
2020/01/31 03:16:07.7	94.280	-0.180	0.350	0.940
2020/01/31 03:16:07.8	94.270	-0.230	0.410	0.960
2020/01/31 03:16:07.9	94.270	-0.280	0.470	0.990
2020/01/31 03:16:08.0	94.270	-0.330	0.520	1.010
2020/01/31 03:16:08.1	94.260	-0.370	0.560	1.030
2020/01/31 03:16:08.2	94.260	-0.420	0.600	1.040
2020/01/31 03:16:08.3	94.260	-0.460	0.620	1.060
2020/01/31 03:16:08.4	94.250	-0.500	0.650	1.070
2020/01/31 03:16:08.5	94.250	-0.530	0.660	1.090
2020/01/31 03:16:08.6	94.250	-0.560	0.670	1.100
2020/01/31 03:16:08.7	94.250	-0.590	0.670	1.100
2020/01/31 03:16:08.8	94.250	-0.620	0.660	1.110
2020/01/31 03:16:08.9	94.250	-0.640	0.640	1.110
2020/01/31 03:16:09.0	94.250	-0.660	0.620	1.110
2020/01/31 03:16:09.1	94.260	-0.670	0.580	1.110
2020/01/31 03:16:09.2	94.260	-0.680	0.540	1.100
2020/01/31 03:16:09.3	94.270	-0.690	0.500	1.090
2020/01/31 03:16:09.4	94.280	-0.690	0.450	1.080
2020/01/31 03:16:09.5	94.280	-0.680	0.390	1.070
2020/01/31 03:16:09.6	94.290	-0.680	0.330	1.050
2020/01/31 03:16:09.7	94.310	-0.670	0.260	1.030
2020/01/31 03:16:09.8	94.320	-0.650	0.180	1.010
2020/01/31 03:16:09.9	94.330	-0.630	0.110	0.990
2020/01/31 03:16:10.0	94.350	-0.610	0.030	0.960
2020/01/31 03:16:10.1	94.380	-0.590	-0.050	0.930
2020/01/31 03:16:10.2	94.390	-0.560	-0.140	0.910
2020/01/31 03:16:10.3	94.410	-0.530	-0.230	0.890
2020/01/31 03:16:10.4	94.430	-0.490	-0.320	0.870
2020/01/31 03:16:10.5	94.440	-0.460	-0.400	0.850
2020/01/31 03:16:10.6	94.460	-0.420	-0.490	0.840
2020/01/31 03:16:10.7	94.470	-0.380	-0.580	0.830
2020/01/31 03:16:10.8	94.490	-0.340	-0.660	0.820
2020/01/31 03:16:10.9	94.500	-0.290	-0.750	0.810
2020/01/31 03:16:11.0	94.510	-0.250	-0.830	0.810
2020/01/31 03:16:11.1	94.520	-0.200	-0.910	0.810
2020/01/31 03:16:11.2	94.530	-0.160	-0.980	0.810
2020/01/31 03:16:11.3	94.540	-0.120	-1.040	0.820
2020/01/31 03:16:11.4	94.540	-0.070	-1.100	0.830
2020/01/31 03:16:11.5	94.550	-0.030	-1.150	0.840
2020/01/31 03:16:11.6	94.550	0.020	-1.200	0.850
2020/01/31 03:16:11.7	94.550	0.060	-1.230	0.860
2020/01/31 03:16:11.8	94.550	0.100	-1.260	0.870
2020/01/31 03:16:11.9	94.550	0.140	-1.280	0.880
2020/01/31 03:16:12.0	94.550	0.170	-1.290	0.890
2020/01/31 03:16:12.1	94.520	0.200	-1.290	0.900
2020/01/31 03:16:12.2	94.520	0.240	-1.280	0.900
2020/01/31 03:16:12.3	94.510	0.260	-1.260	0.910
2020/01/31 03:16:12.4	94.510	0.290	-1.230	0.910
2020/01/31 03:16:12.5	94.500	0.310	-1.190	0.910
2020/01/31 03:16:12.6	94.490	0.330	-1.130	0.910
2020/01/31 03:16:12.7	94.480	0.340	-1.070	0.910
2020/01/31 03:16:12.8	94.470	0.350	-0.990	0.900
2020/01/31 03:16:12.9	94.460	0.360	-0.910	0.900
2020/01/31 03:16:13.0	94.450	0.360	-0.820	0.890
2020/01/31 03:16:13.1	94.420	0.360	-0.720	0.880
2020/01/31 03:16:13.2	94.410	0.360	-0.610	0.870
2020/01/31 03:16:13.3	94.390	0.350	-0.500	0.860
2020/01/31 03:16:13.4	94.380	0.330	-0.380	0.840
2020/01/31 03:16:13.5	94.360	0.320	-0.260	0.830
2020/01/31 03:16:13.6	94.340	0.300	-0.130	0.820
2020/01/31 03:16:13.7	94.330	0.280	-0.010	0.810
2020/01/31 03:16:13.8	94.310	0.250	0.120	0.800
2020/01/31 03:16:13.9	94.290	0.220	0.240	0.790
2020/01/31 03:16:14.0	94.270	0.200	0.360	0.790
2020/01/31 03:16:14.1	94.270	0.170	0.470	0.780
2020/01/31 03:16:14.2	94.250	0.130	0.580	0.770
2020/01/31 03:16:14.3	94.240	0.100	0.680	0.760
2020/01/31 03:16:14.4	94.220	0.070	0.770	0.750
2020/01/31 03:16:14.5	94.210	0.040	0.850	0.740
2020/01/31 03:16:14.6	94.210	0.010	0.920	0.730
2020/01/31 03:16:14.7	94.200	-0.010	0.980	0.720
2020/01/31 03:16:14.8	94.200	-0.040	1.030	0.700
2020/01/31 03:16:14.9	94.200	-0.060	1.060	0.680
2020/01/31 03:16:15.0	94.200	-0.080	1.080	0.660
2020/01/31 03:16:15.1	94.220	-0.100	1.090	0.640
2020/01/31 03:16:15.2	94.230	-0.120	1.080	0.610
2020/01/31 03:16:15.3	94.240	-0.130	1.060	0.580
2020/01/31 03:16:15.4	94.250	-0.130	1.020	0.550
2020/01/31 03:16:15.5	94.270	-0.130	0.970	0.520
2020/01/31 03:16:15.6	94.280	-0.130	0.910	0.480
2020/01/31 03:16:15.7	94.310	-0.120	0.840	0.450
2020/01/31 03:16:15.8	94.330	-0.110	0.750	0.410
2020/01/31 03:16:15.9	94.350	-0.090	0.650	0.360
2020/01/31 03:16:16.0	94.370	-0.070	0.550	0.320
2020/01/31 03:16:16.1	94.400	-0.050	0.430	0.280
2020/01/31 03:16:16.2	94.420	-0.020	0.310	0.240
2020/01/31 03:16:16.3	94.450	0.010	0.180	0.200
2020/01/31 03:16:16.4	94.470	0.050	0.050	0.160
2020/01/31 03:16:16.5	94.490	0.090	-0.080	0.130
2020/01/31 03:16:16.6	94.510	0.130	-0.210	0.100
2020/01/31 03:16:16.7	94.530	0.180	-0.350	0.070
2020/01/31 03:16:16.8	94.540	0.230	-0.480	0.050
2020/01/31 03:16:16.9	94.560	0.270	-0.600	0.030
2020/01/31 03:16:17.0	94.580	0.320	-0.720	0.010
2020/01/31 03:16:17.1	94.570	0.370	-0.840	-0.010
2020/01/31 03:16:17.2	94.580	0.410	-0.940	-0.020
2020/01/31 03:16:17.3	94.590	0.460	-1.040	-0.030
2020/01/31 03:16:17.4	94.610	0.500	-1.130	-0.030
2020/01/31 03:16:17.5	94.620	0.540	-1.200	-0.020
2020/01/31 03:16:17.6	94.630	0.580	-1.270	-0.010
2020/01/31 03:16:17.7	94.650	0.610	-1.320	-0.000
2020/01/31 03:16:17.8	94.660	0.640	-1.360	0.020
2020/01/31 03:16:17.9	94.670	0.660	-1.390	0.050
2020/01/31 03:16:18.0	94.680	0.680	-1.410	0.080
2020/01/31 03:16:18.1	94.680	0.690	-1.410	0.110
2020/01/31 03:16:18.2	94.690	0.700	-1.400	0.160
2020/01/31 03:16:18.3	94.700	0.700	-1.380	0.210
2020/01/31 03:16:18.4	94.700	0.690	-1.350	0.260
2020/01/31 03:16:18.5	94.710	0.680	-1.310	0.320
2020/01/31 03:16:18.6	94.710	0.660	-1.250	0.380
2020/01/31 03:16:18.7	94.710	0.640	-1.190	0.440
2020/01/31 03:16:18.8	94.720	0.610	-1.120	0.500
2020/01/31 03:16:18.9	94.720	0.570	-1.040	0.570
2020/01/31 03:16:19.0	94.720	0.530	-0.950	0.640
2020/01/31 03:16:19.1	94.710	0.480	-0.850	0.710
2020/01/31 03:16:19.2	94.710	0.430	-0.750	0.770
2020/01/31 03:16:19.3	94.710	0.380	-0.650	0.840
2020/01/31 03:16:19.4	94.710	0.320	-0.540	0.910
2020/01/31 03:16:19.5	94.700	0.260	-0.440	0.970
2020/01/31 03:16:19.6	94.700	0.190	-0.320	1.030
2020/01/31 03:16:19.7	94.700	0.130	-0.210	1.090
2020/01/31 03:16:19.8	94.690	0.060	-0.100	1.140
2020/01/31 03:16:19.9	94.690	-0.010	0.000	1.190
2020/01/31 03:16:20.0	94.680	-0.080	0.110	1.240
2020/01/31 03:16:20.1	94.660	-0.150	0.210	1.280
2020/01/31 03:16:20.2	94.660	-0.220	0.300	1.310
2020/01/31 03:16:20.3	94.660	-0.290	0.400	1.350
2020/01/31 03:16:20.4	94.660	-0.360	0.480	1.370
2020/01/31 03:16:20.5	94.660	-0.420	0.560	1.400
2020/01/31 03:16:20.6	94.660	-0.480	0.620	1.410
2020/01/31 03:16:20.7	94.660	-0.540	0.680	1.430
2020/01/31 03:16:20.8	94.670	-0.590	0.730	1.440
2020/01/31 03:16:20.9	94.670	-0.640	0.770	1.440
2020/01/31 03:16:21.0	94.710	-0.680	0.800	1.450
2020/01/31 03:16:21.1	94.720	-0.720	0.820	1.450
2020/01/31 03:16:21.2	94.720	-0.760	0.830	1.440
2020/01/31 03:16:21.3	94.730	-0.780	0.820	1.440
2020/01/31 03:16:21.4	94.740	-0.810	0.810	1.440
2020/01/31 03:16:21.5	94.740	-0.820	0.790	1.430
2020/01/31 03:16:21.6	94.750	-0.830	0.750	1.430
2020/01/31 03:16:21.7	94.750	-0.840	0.700	1.430
2020/01/31 03:16:21.8	94.760	-0.840	0.650	1.420
2020/01/31 03:16:21.9	94.760	-0.830	0.580	1.420
2020/01/31 03:16:22.0	94.760	-0.820	0.510	1.410
2020/01/31 03:16:22.1	94.770	-0.800	0.430	1.410
2020/01/31 03:16:22.2	94.770	-0.770	0.340	1.400
2020/01/31 03:16:22.3	94.770	-0.740	0.250	1.390
2020/01/31 03:16:22.4	94.770	-0.710	0.150	1.390
2020/01/31 03:16:22.5	94.770	-0.670	0.050	1.380
2020/01/31 03:16:22.6	94.770	-0.630	-0.050	1.370
2020/01/31 03:16:22.7	94.770	-0.580	-0.150	1.350
2020/01/31 03:16:22.8	94.770	-0.540	-0.260	1.340
2020/01/31 03:16:22.9	94.770	-0.490	-0.360	1.320
2020/01/31 03:16:23.0	94.770	-0.430	-0.450	1.300
2020/01/31 03:16:23.1	94.780	-0.380	-0.550	1.270
2020/01/31 03:16:23.2	94.780	-0.320	-0.640	1.250
2020/01/31 03:16:23.3	94.790	-0.270	-0.720	1.230
2020/01/31 03:16:23.4	94.790	-0.210	-0.790	1.210
2020/01/31 03:16:23.5	94.800	-0.160	-0.860	1.180
2020/01/31 03:16:23.6	94.800	-0.100	-0.920	1.160
2020/01/31 03:16:23.7	94.810	-0.050	-0.970	1.140
2020/01/31 03:16:23.8	94.810	-0.000	-1.010	1.120
2020/01/31 03:16:23.9	94.810	0.050	-1.040	1.090
2020/01/31 03:16:24.0	94.810	0.090	-1.060	1.070
2020/01/31 03:16:24.1	94.800	0.140	-1.070	1.050
2020/01/31 03:16:24.2	94.800	0.180	-1.070	1.030
2020/01/31 03:16:24.3	94.800	0.210	-1.060	1.010
2020/01/31 03:16:24.4	94.800	0.240	-1.040	0.990
2020/01/31 03:16:24.5	94.800	0.270	-1.010	0.970
2020/01/31 03:16:24.6	94.800	0.300	-0.970	0.940
2020/01/31 03:16:24.7	94.800	0.320	-0.920	0.920
2020/01/31 03:16:24.8	94.800	0.330	-0.870	0.890
2020/01/31 03:16:24.9	94.800	0.340	-0.800	0.860
2020/01/31 03:16:25.0	94.800	0.350	-0.740	0.830
2020/01/31 03:16:25.1	94.800	0.360	-0.660	0.800
2020/01/31 03:16:25.2	94.800	0.360	-0.590	0.770
2020/01/31 03:16:25.3	94.810	0.350	-0.510	0.730
2020/01/31 03:16:25.4	94.810	0.340	-0.420	0.700
2020/01/31 03:16:25.5	94.810	0.330	-0.340	0.660
2020/01/31 03:16:25.6	94.810	0.320	-0.260	0.630
2020/01/31 03:16:25.7	94.820	0.310	-0.170	0.590
2020/01/31 03:16:25.8	94.830	0.290	-0.090	0.550
2020/01/31 03:16:25.9	94.830	0.270	-0.010	0.510
2020/01/31 03:16:26.0	94.840	0.250	0.070	0.480
2020/01/31 03:16:26.1	94.850	0.230	0.140	0.440
2020/01/31 03:16:26.2	94.860	0.210	0.210	0.400
2020/01/31 03:16:26.3	94.880	0.190	0.270	0.370
2020/01/31 03:16:26.4	94.890	0.170	0.320	0.340
2020/01/31 03:16:26.5	94.900	0.150	0.370	0.300
2020/01/31 03:16:26.6	94.920	0.130	0.410	0.270
2020/01/31 03:16:26.7	94.940	0.110	0.430	0.240
2020/01/31 03:16:26.8	94.950	0.090	0.460	0.220
2020/01/31 03:16:26.9	94.970	0.080	0.470	0.190
2020/01/31 03:16:27.0	94.990	0.060	0.470	0.170
2020/01/31 03:16:27.1	95.010	0.050	0.460	0.140
2020/01/31 03:16:27.2	95.030	0.040	0.450	0.120
2020/01/31 03:16:27.3	95.050	0.040	0.430	0.100
2020/01/31 03:16:27.4	95.070	0.030	0.400	0.080
2020/01/31 03:16:27.5	95.090	0.030	0.370	0.070
2020/01/31 03:16:27.6	95.110	0.020	0.330	0.050
2020/01/31 03:16:27.7	95.130	0.020	0.290	0.040
2020/01/31 03:16:27.8	95.150	0.020	0.240	0.030
2020/01/31 03:16:27.9	95.170	0.030	0.190	0.030
2020/01/31 03:16:28.0	95.160	0.030	0.140	0.020
2020/01/31 03:16:28.1	95.170	0.030	0.090	0.020
2020/01/31 03:16:28.2	95.190	0.030	0.030	0.030
2020/01/31 03:16:28.3	95.200	0.030	-0.020	0.030
2020/01/31 03:16:28.4	95.200	0.040	-0.080	0.040
2020/01/31 03:16:28.5	95.210	0.040	-0.130	0.050
2020/01/31 03:16:28.6	95.210	0.040	-0.180	0.060
2020/01/31 03:16:28.7	95.220	0.040	-0.230	0.080
2020/01/31 03:16:28.8	95.220	0.040	-0.280	0.100
2020/01/31 03:16:28.9	95.220	0.040	-0.320	0.120
2020/01/31 03:16:29.0	95.220	0.040	-0.360	0.140
2020/01/31 03:16:29.1	95.230	0.040	-0.400	0.160
2020/01/31 03:16:29.2	95.230	0.030	-0.430	0.190
2020/01/31 03:16:29.3	95.220	0.030	-0.450	0.220
2020/01/31 03:16:29.4	95.220	0.020	-0.480	0.250
2020/01/31 03:16:29.5	95.220	0.020	-0.490	0.280
2020/01/31 03:16:29.6	95.220	0.010	-0.510	0.320
2020/01/31 03:16:29.7	95.210	0.000	-0.520	0.360
2020/01/31 03:16:29.8	95.210	-0.000	-0.530	0.390
2020/01/31 03:16:29.9	95.210	-0.010	-0.540	0.430
2020/01/31 03:16:30.0	95.210	-0.010	-0.540	0.470
2020/01/31 03:16:30.1	95.210	-0.020	-0.540	0.510
2020/01/31 03:16:30.2	95.210	-0.030	-0.540	0.550
2020/01/31 03:16:30.3	95.210	-0.030	-0.530	0.590
2020/01/31 03:16:30.4	95.210	-0.030	-0.530	0.630
2020/01/31 03:16:30.5	95.220	-0.040	-0.530	0.670
2020/01/31 03:16:30.6	95.220	-0.040	-0.520	0.710
2020/01/31 03:16:30.7	95.230	-0.040	-0.510	0.750
2020/01/31 03:16:30.8	95.240	-0.040	-0.510	0.780
2020/01/31 03:16:30.9	95.240	-0.030	-0.500	0.810
2020/01/31 03:16:31.0	95.250	-0.030	-0.500	0.850
2020/01/31 03:16:31.1	95.240	-0.030	-0.490	0.880
2020/01/31 03:16:31.2	95.250	-0.020	-0.490	0.910
2020/01/31 03:16:31.3	95.250	-0.010	-0.490	0.930
2020/01/31 03:16:31.4	95.260	-0.000	-0.490	0.960
2020/01/31 03:16:31.5	95.260	0.010	-0.480	0.980
2020/01/31 03:16:31.6	95.260	0.020	-0.480	1.010
2020/01/31 03:16:31.7	95.260	0.030	-0.490	1.030
2020/01/31 03:16:31.8	95.260	0.040	-0.490	1.050
2020/01/31 03:16:31.9	95.260	0.060	-0.490	1.060
2020/01/31 03:16:32.0	95.250	0.070	-0.490	1.070
2020/01/31 03:16:32.1	95.250	0.080	-0.500	1.080
2020/01/31 03:16:32.2	95.250	0.100	-0.500	1.090
2020/01/31 03:16:32.3	95.240	0.110	-0.510	1.100
2020/01/31 03:16:32.4	95.230	0.120	-0.510	1.100
2020/01/31 03:16:32.5	95.220	0.130	-0.510	1.100
2020/01/31 03:16:32.6	95.210	0.140	-0.510	1.090
2020/01/31 03:16:32.7	95.190	0.150	-0.500	1.090
2020/01/31 03:16:32.8	95.180	0.150	-0.500	1.080
2020/01/31 03:16:32.9	95.170	0.160	-0.490	1.070
2020/01/31 03:16:33.0	95.150	0.160	-0.480	1.060
2020/01/31 03:16:33.1	95.130	0.160	-0.470	1.050
2020/01/31 03:16:33.2	95.120	0.160	-0.460	1.030
2020/01/31 03:16:33.3	95.100	0.160	-0.440	1.020
2020/01/31 03:16:33.4	95.090	0.150	-0.420	1.010
2020/01/31 03:16:33.5	95.070	0.150	-0.400	1.000
2020/01/31 03:16:33.6	95.060	0.140	-0.370	0.990
2020/01/31 03:16:33.7	95.040	0.130	-0.340	0.980
2020/01/31 03:16:33.8	95.030	0.120	-0.310	0.970
2020/01/31 03:16:33.9	95.010	0.110	-0.280	0.960
2020/01/31 03:16:34.0	95.000	0.100	-0.240	0.950
2020/01/31 03:16:34.1	94.980	0.080	-0.210	0.940
2020/01/31 03:16:34.2	94.970	0.070	-0.170	0.930
2020/01/31 03:16:34.3	94.960	0.060	-0.130	0.930
2020/01/31 03:16:34.4	94.950	0.040	-0.090	0.920
2020/01/31 03:16:34.5	94.940	0.030	-0.050	0.920
2020/01/31 03:16:34.6	94.940	0.010	-0.010	0.920
2020/01/31 03:16:34.7	94.930	-0.000	0.030	0.910
2020/01/31 03:16:34.8	94.930	-0.020	0.070	0.910
2020/01/31 03:16:34.9	94.930	-0.030	0.110	0.900
2020/01/31 03:16:35.0	94.930	-0.050	0.150	0.890
2020/01/31 03:16:35.1	94.940	-0.060	0.200	0.880
2020/01/31 03:16:35.2	94.950	-0.080	0.230	0.870
2020/01/31 03:16:35.3	94.960	-0.090	0.270	0.850
2020/01/31 03:16:35.4	94.970	-0.110	0.300	0.830
2020/01/31 03:16:35.5	94.990	-0.120	0.330	0.800
2020/01/31 03:16:35.6	95.000	-0.140	0.350	0.780
2020/01/31 03:16:35.7	95.020	-0.150	0.370	0.750
2020/01/31 03:16:35.8	95.040	-0.160	0.390	0.710
2020/01/31 03:16:35.9	95.060	-0.170	0.400	0.670
2020/01/31 03:16:36.0	95.090	-0.180	0.400	0.640
2020/01/31 03:16:36.1	95.110	-0.190	0.400	0.590
2020/01/31 03:16:36.2	95.140	-0.200	0.390	0.550
2020/01/31 03:16:36.3	95.160	-0.200	0.380	0.500
2020/01/31 03:16:36.4	95.180	-0.200	0.360	0.460
2020/01/31 03:16:36.5	95.210	-0.200	0.330	0.420
2020/01/31 03:16:36.6	95.230	-0.200	0.300	0.370
2020/01/31 03:16:36.7	95.250	-0.200	0.260	0.340
2020/01/31 03:16:36.8	95.270	-0.190	0.210	0.300
2020/01/31 03:16:36.9	95.290	-0.180	0.160	0.260
2020/01/31 03:16:37.0	95.300	-0.160	0.110	0.230
2020/01/31 03:16:37.1	95.310	-0.150	0.050	0.210
2020/01/31 03:16:37.2	95.320	-0.130	-0.010	0.180
2020/01/31 03:16:37.3	95.330	-0.100	-0.080	0.170
2020/01/31 03:16:37.4	95.340	-0.080	-0.150	0.160
2020/01/31 03:16:37.5	95.350	-0.060	-0.220	0.150
2020/01/31 03:16:37.6	95.360	-0.030	-0.280	0.150
2020/01/31 03:16:37.7	95.360	-0.000	-0.350	0.150
2020/01/31 03:16:37.8	95.370	0.030	-0.410	0.160
2020/01/31 03:16:37.9	95.370	0.060	-0.480	0.170
2020/01/31 03:16:38.0	95.380	0.080	-0.540	0.190
2020/01/31 03:16:38.1	95.380	0.110	-0.590	0.200
2020/01/31 03:16:38.2	95.390	0.140	-0.650	0.230
2020/01/31 03:16:38.3	95.400	0.170	-0.690	0.250
2020/01/31 03:16:38.4	95.410	0.190	-0.730	0.270
2020/01/31 03:16:38.5	95.420	0.210	-0.770	0.300
2020/01/31 03:16:38.6	95.430	0.230	-0.790	0.320
2020/01/31 03:16:38.7	95.450	0.250	-0.820	0.350
2020/01/31 03:16:38.8	95.470	0.270	-0.830	0.380
2020/01/31 03:16:38.9	95.490	0.280	-0.840	0.410
2020/01/31 03:16:39.0	95.500	0.290	-0.840	0.440
2020/01/31 03:16:39.1	95.520	0.290	-0.840	0.460
2020/01/31 03:16:39.2	95.540	0.290	-0.820	0.490
2020/01/31 03:16:39.3	95.560	0.290	-0.800	0.530
2020/01/31 03:16:39.4	95.590	0.280	-0.780	0.550
2020/01/31 03:16:39.5	95.610	0.270	-0.750	0.580
2020/01/31 03:16:39.6	95.630	0.250	-0.710	0.610
2020/01/31 03:16:39.7	95.650	0.240	-0.660	0.640
2020/01/31 03:16:39.8	95.680	0.210	-0.610	0.670
2020/01/31 03:16:39.9	95.690	0.190	-0.560	0.690
2020/01/31 03:16:40.0	95.710	0.160	-0.500	0.720
2020/01/31 03:16:40.1	95.730	0.130	-0.440	0.750
2020/01/31 03:16:40.2	95.740	0.100	-0.380	0.770
2020/01/31 03:16:40.3	95.750	0.060	-0.310	0.790
2020/01/31 03:16:40.4	95.760	0.030	-0.240	0.820
2020/01/31 03:16:40.5	95.770	-0.010	-0.180	0.840
2020/01/31 03:16:40.6	95.770	-0.050	-0.110	0.860
2020/01/31 03:16:40.7	95.770	-0.090	-0.040	0.880
2020/01/31 03:16:40.8	95.770	-0.140	0.030	0.900
2020/01/31 03:16:40.9	95.760	-0.180	0.100	0.910
2020/01/31 03:16:41.0	95.760	-0.220	0.160	0.930
2020/01/31 03:16:41.1	95.770	-0.260	0.230	0.940
2020/01/31 03:16:41.2	95.760	-0.300	0.280	0.960
2020/01/31 03:16:41.3	95.750	-0.340	0.340	0.960
2020/01/31 03:16:41.4	95.740	-0.370	0.380	0.970
2020/01/31 03:16:41.5	95.720	-0.410	0.430	0.980
2020/01/31 03:16:41.6	95.710	-0.440	0.460	0.980
2020/01/31 03:16:41.7	95.700	-0.470	0.490	0.980
2020/01/31 03:16:41.8	95.690	-0.490	0.510	0.980
2020/01/31 03:16:41.9	95.680	-0.520	0.520	0.980
2020/01/31 03:16:42.0	95.670	-0.530	0.530	0.960
2020/01/31 03:16:42.1	95.660	-0.550	0.530	0.960
2020/01/31 03:16:42.2	95.660	-0.560	0.520	0.950
2020/01/31 03:16:42.3	95.650	-0.560	0.500	0.940
2020/01/31 03:16:42.4	95.640	-0.570	0.470	0.930
2020/01/31 03:16:42.5	95.630	-0.560	0.440	0.930
2020/01/31 03:16:42.6	95.620	-0.560	0.400	0.920
2020/01/31 03:16:42.7	95.620	-0.550	0.350	0.910
2020/01/31 03:16:42.8	95.610	-0.530	0.300	0.910
2020/01/31 03:16:42.9	95.600	-0.520	0.240	0.900
2020/01/31 03:16:43.0	95.590	-0.490	0.180	0.890
2020/01/31 03:16:43.1	95.580	-0.470	0.110	0.880
2020/01/31 03:16:43.2	95.570	-0.440	0.040	0.870
2020/01/31 03:16:43.3	95.570	-0.410	-0.030	0.860
2020/01/31 03:16:43.4	95.560	-0.380	-0.100	0.850
2020/01/31 03:16:43.5	95.550	-0.350	-0.180	0.840
2020/01/31 03:16:43.6	95.550	-0.310	-0.250	0.820
2020/01/31 03:16:43.7	95.540	-0.270	-0.320	0.800
2020/01/31 03:16:43.8	95.530	-0.230	-0.380	0.780
2020/01/31 03:16:43.9	95.530	-0.190	-0.450	0.750
2020/01/31 03:16:44.0	95.520	-0.150	-0.510	0.730
2020/01/31 03:16:44.1	95.520	-0.110	-0.570	0.690
2020/01/31 03:16:44.2	95.510	-0.070	-0.630	0.660
2020/01/31 03:16:44.3	95.510	-0.030	-0.680	0.630
2020/01/31 03:16:44.4	95.500	0.010	-0.730	0.600
2020/01/31 03:16:44.5	95.500	0.050	-0.770	0.560
2020/01/31 03:16:44.6	95.490	0.080	-0.810	0.530
2020/01/31 03:16:44.7	95.480	0.120	-0.840	0.490
2020/01/31 03:16:44.8	95.480	0.160	-0.870	0.460
2020/01/31 03:16:44.9	95.480	0.190	-0.890	0.430
2020/01/31 03:16:45.0	95.470	0.230	-0.910	0.390
2020/01/31 03:16:45.1	95.470	0.260	-0.920	0.370
2020/01/31 03:16:45.2	95.460	0.300	-0.930	0.340
2020/01/31 03:16:45.3	95.460	0.330	-0.940	0.310
2020/01/31 03:16:45.4	95.460	0.360	-0.940	0.290
2020/01/31 03:16:45.5	95.460	0.390	-0.940	0.270
2020/01/31 03:16:45.6	95.470	0.420	-0.930	0.250
2020/01/31 03:16:45.7	95.470	0.440	-0.920	0.240
2020/01/31 03:16:45.8	95.480	0.470	-0.910	0.220
2020/01/31 03:16:45.9	95.490	0.490	-0.900	0.210
2020/01/31 03:16:46.0	95.500	0.510	-0.880	0.200
2020/01/31 03:16:46.1	95.490	0.540	-0.860	0.190
2020/01/31 03:16:46.2	95.500	0.550	-0.830	0.180
2020/01/31 03:16:46.3	95.520	0.570	-0.810	0.180
2020/01/31 03:16:46.4	95.540	0.590	-0.780	0.170
2020/01/31 03:16:46.5	95.560	0.600	-0.750	0.170
2020/01/31 03:16:46.6	95.580	0.610	-0.720	0.170
2020/01/31 03:16:46.7	95.600	0.620	-0.680	0.180
2020/01/31 03:16:46.8	95.620	0.630	-0.640	0.180
2020/01/31 03:16:46.9	95.640	0.630	-0.600	0.190
2020/01/31 03:16:47.0	95.660	0.630	-0.560	0.200
2020/01/31 03:16:47.1	95.680	0.630	-0.520	0.210
2020/01/31 03:16:47.2	95.690	0.620	-0.470	0.230
2020/01/31 03:16:47.3	95.710	0.610	-0.420	0.240
2020/01/31 03:16:47.4	95.720	0.600	-0.370	0.260
2020/01/31 03:16:47.5	95.740	0.580	-0.320	0.280
2020/01/31 03:16:47.6	95.750	0.560	-0.260	0.310
2020/01/31 03:16:47.7	95.760	0.540	-0.200	0.330
2020/01/31 03:16:47.8	95.760	0.510	-0.140	0.360
2020/01/31 03:16:47.9	95.760	0.480	-0.080	0.380
2020/01/31 03:16:48.0	95.770	0.450	-0.020	0.410
2020/01/31 03:16:48.1	95.750	0.410	0.040	0.440
2020/01/31 03:16:48.2	95.750	0.370	0.100	0.470
2020/01/31 03:16:48.3	95.740	0.330	0.160	0.500
2020/01/31 03:16:48.4	95.730	0.280	0.220	0.540
2020/01/31 03:16:48.5	95.730	0.240	0.280	0.570
2020/01/31 03:16:48.6	95.710	0.190	0.340	0.600
2020/01/31 03:16:48.7	95.700	0.140	0.390	0.640
2020/01/31 03:16:48.8	95.690	0.090	0.440	0.670
2020/01/31 03:16:48.9	95.680	0.030	0.490	0.710
2020/01/31 03:16:49.0	95.660	-0.020	0.530	0.740
2020/01/31 03:16:49.1	95.660	-0.070	0.570	0.770
2020/01/31 03:16:49.2	95.650	-0.120	0.600	0.810
2020/01/31 03:16:49.3	95.640	-0.170	0.630	0.840
2020/01/31 03:16:49.4	95.620	-0.220	0.660	0.880
2020/01/31 03:16:49.5	95.610	-0.270	0.680	0.910
2020/01/31 03:16:49.6	95.590	-0.310	0.690	0.940
2020/01/31 03:16:49.7	95.580	-0.360	0.690	0.970
2020/01/31 03:16:49.8	95.570	-0.400	0.690	1.000
2020/01/31 03:16:49.9	95.560	-0.430	0.690	1.020
2020/01/31 03:16:50.0	95.560	-0.470	0.670	1.050
2020/01/31 03:16:50.1	95.570	-0.490	0.650	1.070
2020/01/31 03:16:50.2	95.570	-0.520	0.620	1.090
2020/01/31 03:16:50.3	95.570	-0.540	0.590	1.100
2020/01/31 03:16:50.4	95.570	-0.560	0.550	1.120
2020/01/31 03:16:50.5	95.570	-0.570	0.500	1.130
2020/01/31 03:16:50.6	95.570	-0.580	0.450	1.140
2020/01/31 03:16:50.7	95.580	-0.580	0.400	1.140
2020/01/31 03:16:50.8	95.590	-0.580	0.330	1.150
2020/01/31 03:16:50.9	95.590	-0.580	0.270	1.150
2020/01/31 03:16:51.0	95.600	-0.570	0.200	1.150
2020/01/31 03:16:51.1	95.620	-0.560	0.120	1.150
2020/01/31 03:16:51.2	95.620	-0.550	0.050	1.150
2020/01/31 03:16:51.3	95.630	-0.530	-0.020	1.140
2020/01/31 03:16:51.4	95.640	-0.510	-0.100	1.130
2020/01/31 03:16:51.5	95.640	-0.490	-0.180	1.120
2020/01/31 03:16:51.6	95.650	-0.470	-0.250	1.110
2020/01/31 03:16:51.7	95.650	-0.440	-0.330	1.100
2020/01/31 03:16:51.8	95.650	-0.420	-0.400	1.080
2020/01/31 03:16:51.9	95.660	-0.390	-0.470	1.060
2020/01/31 03:16:52.0	95.660	-0.360	-0.530	1.040
2020/01/31 03:16:52.1	95.650	-0.330	-0.590	1.010
2020/01/31 03:16:52.2	95.650	-0.300	-0.640	0.990
2020/01/31 03:16:52.3	95.650	-0.270	-0.690	0.970
2020/01/31 03:16:52.4	95.650	-0.240	-0.740	0.940
2020/01/31 03:16:52.5	95.650	-0.210	-0.780	0.920
2020/01/31 03:16:52.6	95.640	-0.190	-0.810	0.900
2020/01/31 03:16:52.7	95.640	-0.160	-0.840	0.880
2020/01/31 03:16:52.8	95.630	-0.130	-0.870	0.870
2020/01/31 03:16:52.9	95.630	-0.110	-0.880	0.850
2020/01/31 03:16:53.0	95.620	-0.080	-0.900	0.840
2020/01/31 03:16:53.1	95.610	-0.060	-0.910	0.830
2020/01/31 03:16:53.2	95.600	-0.030	-0.910	0.830
2020/01/31 03:16:53.3	95.590	-0.010	-0.910	0.820
2020/01/31 03:16:53.4	95.580	0.010	-0.910	0.820
2020/01/31 03:16:53.5	95.570	0.030	-0.900	0.830
2020/01/31 03:16:53.6	95.550	0.050	-0.890	0.830
2020/01/31 03:16:53.7	95.540	0.070	-0.870	0.840
2020/01/31 03:16:53.8	95.520	0.090	-0.850	0.850
2020/01/31 03:16:53.9	95.500	0.110	-0.840	0.860
2020/01/31 03:16:54.0	95.490	0.120	-0.820	0.880
2020/01/31 03:16:54.1	95.470	0.140	-0.790	0.890
2020/01/31 03:16:54.2	95.450	0.160	-0.770	0.910
2020/01/31 03:16:54.3	95.430	0.180	-0.750	0.920
2020/01/31 03:16:54.4	95.410	0.190	-0.730	0.940
2020/01/31 03:16:54.5	95.390	0.210	-0.710	0.960
2020/01/31 03:16:54.6	95.370	0.230	-0.690	0.970
2020/01/31 03:16:54.7	95.350	0.240	-0.660	0.980
2020/01/31 03:16:54.8	95.340	0.260	-0.640	0.990
2020/01/31 03:16:54.9	95.320	0.270	-0.620	0.990
2020/01/31 03:16:55.0	95.310	0.280	-0.590	0.990
2020/01/31 03:16:55.1	95.290	0.300	-0.570	0.990
2020/01/31 03:16:55.2	95.280	0.310	-0.550	0.980
2020/01/31 03:16:55.3	95.280	0.320	-0.530	0.970
2020/01/31 03:16:55.4	95.270	0.330	-0.510	0.960
2020/01/31 03:16:55.5	95.270	0.340	-0.480	0.950
2020/01/31 03:16:55.6	95.280	0.350	-0.460	0.930
2020/01/31 03:16:55.7	95.280	0.360	-0.440	0.910
2020/01/31 03:16:55.8	95.290	0.360	-0.420	0.890
2020/01/31 03:16:55.9	95.310	0.370	-0.390	0.860
2020/01/31 03:16:56.0	95.320	0.370	-0.370	0.840
2020/01/31 03:16:56.1	95.330	0.370	-0.350	0.810
2020/01/31 03:16:56.2	95.350	0.370	-0.330	0.790
2020/01/31 03:16:56.3	95.370	0.370	-0.300	0.770
2020/01/31 03:16:56.4	95.390	0.360	-0.280	0.750
2020/01/31 03:16:56.5	95.420	0.360	-0.260	0.730
2020/01/31 03:16:56.6	95.440	0.350	-0.240	0.710
2020/01/31 03:16:56.7	95.460	0.340	-0.220	0.700
2020/01/31 03:16:56.8	95.480	0.330	-0.190	0.680
2020/01/31 03:16:56.9	95.500	0.320	-0.170	0.680
2020/01/31 03:16:57.0	95.520	0.310	-0.150	0.670
2020/01/31 03:16:57.1	95.530	0.290	-0.120	0.660
2020/01/31 03:16:57.2	95.550	0.280	-0.100	0.670
2020/01/31 03:16:57.3	95.560	0.260	-0.080	0.670
2020/01/31 03:16:57.4	95.560	0.240	-0.050	0.680
2020/01/31 03:16:57.5	95.570	0.220	-0.030	0.690
2020/01/31 03:16:57.6	95.570	0.200	-0.000	0.700
2020/01/31 03:16:57.7	95.570	0.180	0.020	0.710
2020/01/31 03:16:57.8	95.560	0.160	0.050	0.730
2020/01/31 03:16:57.9	95.560	0.130	0.080	0.750
2020/01/31 03:16:58.0	95.550	0.110	0.110	0.770
2020/01/31 03:16:58.1	95.540	0.080	0.140	0.790
2020/01/31 03:16:58.2	95.530	0.060	0.170	0.820
2020/01/31 03:16:58.3	95.510	0.030	0.200	0.840
2020/01/31 03:16:58.4	95.500	0.000	0.240	0.860
2020/01/31 03:16:58.5	95.480	-0.030	0.270	0.890
2020/01/31 03:16:58.6	95.460	-0.060	0.310	0.910
2020/01/31 03:16:58.7	95.440	-0.090	0.350	0.940
2020/01/31 03:16:58.8	95.420	-0.120	0.390	0.960
2020/01/31 03:16:58.9	95.400	-0.150	0.420	0.980
2020/01/31 03:16:59.0	95.370	-0.180	0.460	1.000
2020/01/31 03:16:59.1	95.350	-0.220	0.490	1.020
2020/01/31 03:16:59.2	95.340	-0.250	0.520	1.040
2020/01/31 03:16:59.3	95.320	-0.280	0.560	1.060
2020/01/31 03:16:59.4	95.310	-0.310	0.580	1.080
2020/01/31 03:16:59.5	95.300	-0.340	0.600	1.090
2020/01/31 03:16:59.6	95.290	-0.370	0.620	1.100
2020/01/31 03:16:59.7	95.280	-0.400	0.630	1.120
2020/01/31 03:16:59.8	95.280	-0.430	0.640	1.130
2020/01/31 03:16:59.9	95.280	-0.460	0.640	1.140
2020/01/31 03:17:00.0	95.280	-0.480	0.630	1.140
2020/01/31 03:17:00.1	95.290	-0.500	0.620	1.150
2020/01/31 03:17:00.2	95.300	-0.520	0.600	1.150
2020/01/31 03:17:00.3	95.310	-0.540	0.570	1.150
2020/01/31 03:17:00.4	95.320	-0.550	0.530	1.150
2020/01/31 03:17:00.5	95.340	-0.570	0.490	1.140
2020/01/31 03:17:00.6	95.360	-0.570	0.440	1.130
2020/01/31 03:17:00.7	95.380	-0.580	0.380	1.120
2020/01/31 03:17:00.8	95.400	-0.580	0.320	1.100
2020/01/31 03:17:00.9	95.430	-0.580	0.250	1.080
2020/01/31 03:17:01.0	95.460	-0.570	0.170	1.060
2020/01/31 03:17:01.1	95.490	-0.570	0.090	1.030
2020/01/31 03:17:01.2	95.520	-0.550	0.010	1.010
2020/01/31 03:17:01.3	95.550	-0.540	-0.080	0.980
2020/01/31 03:17:01.4	95.580	-0.520	-0.170	0.960
2020/01/31 03:17:01.5	95.610	-0.490	-0.260	0.930
2020/01/31 03:17:01.6	95.640	-0.460	-0.350	0.910
2020/01/31 03:17:01.7	95.660	-0.430	-0.440	0.880
2020/01/31 03:17:01.8	95.680	-0.400	-0.530	0.860
2020/01/31 03:17:01.9	95.700	-0.360	-0.620	0.840
2020/01/31 03:17:02.0	95.710	-0.320	-0.700	0.830
2020/01/31 03:17:02.1	95.720	-0.270	-0.790	0.810
2020/01/31 03:17:02.2	95.720	-0.230	-0.860	0.800
2020/01/31 03:17:02.3	95.730	-0.180	-0.930	0.790
2020/01/31 03:17:02.4	95.730	-0.140	-1.000	0.780
2020/01/31 03:17:02.5	95.730	-0.090	-1.050	0.780
2020/01/31 03:17:02.6	95.720	-0.040	-1.100	0.770
2020/01/31 03:17:02.7	95.720	0.010	-1.140	0.770
2020/01/31 03:17:02.8	95.710	0.050	-1.170	0.770
2020/01/31 03:17:02.9	95.700	0.100	-1.200	0.770
2020/01/31 03:17:03.0	95.690	0.140	-1.210	0.770
2020/01/31 03:17:03.1	95.670	0.180	-1.220	0.770
2020/01/31 03:17:03.2	95.660	0.220	-1.210	0.780
2020/01/31 03:17:03.3	95.650	0.250	-1.200	0.790
2020/01/31 03:17:03.4	95.630	0.280	-1.180	0.800
2020/01/31 03:17:03.5	95.620	0.310	-1.150	0.810
2020/01/31 03:17:03.6	95.610	0.330	-1.120	0.820
2020/01/31 03:17:03.7	95.600	0.350	-1.080	0.840
2020/01/31 03:17:03.8	95.590	0.370	-1.030	0.860
2020/01/31 03:17:03.9	95.580	0.380	-0.980	0.880
2020/01/31 03:17:04.0	95.570	0.390	-0.920	0.900
2020/01/31 03:17:04.1	95.580	0.400	-0.860	0.920
2020/01/31 03:17:04.2	95.570	0.400	-0.800	0.940
2020/01/31 03:17:04.3	95.570	0.400	-0.730	0.970
2020/01/31 03:17:04.4	95.560	0.400	-0.660	0.990
2020/01/31 03:17:04.5	95.560	0.390	-0.590	1.020
2020/01/31 03:17:04.6	95.560	0.380	-0.520	1.040
2020/01/31 03:17:04.7	95.560	0.370	-0.460	1.060
2020/01/31 03:17:04.8	95.560	0.360	-0.390	1.080
2020/01/31 03:17:04.9	95.560	0.340	-0.320	1.100
2020/01/31 03:17:05.0	95.560	0.330	-0.260	1.120
2020/01/31 03:17:05.1	95.560	0.310	-0.200	1.130
2020/01/31 03:17:05.2	95.570	0.290	-0.140	1.140
2020/01/31 03:17:05.3	95.570	0.270	-0.080	1.140
2020/01/31 03:17:05.4	95.570	0.260	-0.030	1.150
2020/01/31 03:17:05.5	95.580	0.240	0.020	1.150
2020/01/31 03:17:05.6	95.580	0.220	0.070	1.140
2020/01/31 03:17:05.7	95.580	0.200	0.110	1.140
2020/01/31 03:17:05.8	95.580	0.190	0.150	1.120
2020/01/31 03:17:05.9	95.580	0.170	0.180	1.110
2020/01/31 03:17:06.0	95.580	0.160	0.210	1.090
2020/01/31 03:17:06.1	95.580	0.150	0.230	1.070
2020/01/31 03:17:06.2	95.570	0.140	0.250	1.050
2020/01/31 03:17:06.3	95.570	0.130	0.270	1.020
2020/01/31 03:17:06.4	95.570	0.120	0.280	0.990
2020/01/31 03:17:06.5	95.570	0.120	0.280	0.960
2020/01/31 03:17:06.6	95.560	0.110	0.280	0.930
2020/01/31 03:17:06.7	95.560	0.110	0.280	0.890
2020/01/31 03:17:06.8	95.560	0.120	0.270	0.850
2020/01/31 03:17:06.9	95.550	0.120	0.250	0.810
2020/01/31 03:17:07.0	95.550	0.120	0.230	0.770
2020/01/31 03:17:07.1	95.530	0.130	0.210	0.730
2020/01/31 03:17:07.2	95.530	0.140	0.180	0.690
2020/01/31 03:17:07.3	95.520	0.150	0.150	0.660
2020/01/31 03:17:07.4	95.520	0.160	0.120	0.620
2020/01/31 03:17:07.5	95.520	0.170	0.080	0.590
2020/01/31 03:17:07.6	95.520	0.180	0.050	0.560
2020/01/31 03:17:07.7	95.520	0.190	0.010	0.540
2020/01/31 03:17:07.8	95.520	0.210	-0.030	0.510
2020/01/31 03:17:07.9	95.520	0.220	-0.070	0.490
2020/01/31 03:17:08.0	95.530	0.230	-0.110	0.480
2020/01/31 03:17:08.1	95.530	0.230	-0.140	0.460
2020/01/31 03:17:08.2	95.540	0.240	-0.180	0.450
2020/01/31 03:17:08.3	95.540	0.250	-0.210	0.450
2020/01/31 03:17:08.4	95.550	0.250	-0.250	0.450
2020/01/31 03:17:08.5	95.550	0.260	-0.280	0.450
2020/01/31 03:17:08.6	95.560	0.260	-0.310	0.450
2020/01/31 03:17:08.7	95.570	0.250	-0.340	0.460
2020/01/31 03:17:08.8	95.570	0.250	-0.370	0.470
2020/01/31 03:17:08.9	95.580	0.250	-0.390	0.480
2020/01/31 03:17:09.0	95.590	0.240	-0.410	0.490
2020/01/31 03:17:09.1	95.590	0.230	-0.440	0.500
2020/01/31 03:17:09.2	95.610	0.220	-0.460	0.520
2020/01/31 03:17:09.3	95.620	0.200	-0.470	0.530
2020/01/31 03:17:09.4	95.630	0.190	-0.490	0.550
2020/01/31 03:17:09.5	95.640	0.170	-0.490	0.570
2020/01/31 03:17:09.6	95.650	0.160	-0.500	0.580
2020/01/31 03:17:09.7	95.670	0.140	-0.510	0.600
2020/01/31 03:17:09.8	95.680	0.120	-0.510	0.620
2020/01/31 03:17:09.9	95.690	0.090	-0.510	0.640
2020/01/31 03:17:10.0	95.700	0.070	-0.510	0.660
2020/01/31 03:17:10.1	95.690	0.050	-0.500	0.670
2020/01/31 03:17:10.2	95.700	0.020	-0.500	0.690
2020/01/31 03:17:10.3	95.710	0.000	-0.490	0.700
2020/01/31 03:17:10.4	95.720	-0.020	-0.480	0.730
2020/01/31 03:17:10.5	95.720	-0.050	-0.470	0.750
2020/01/31 03:17:10.6	95.730	-0.070	-0.450	0.770
2020/01/31 03:17:10.7	95.740	-0.100	-0.440	0.790
2020/01/31 03:17:10.8	95.740	-0.120	-0.420	0.810
2020/01/31 03:17:10.9	95.750	-0.150	-0.400	0.830
2020/01/31 03:17:11.0	95.760	-0.170	-0.380	0.860
2020/01/31 03:17:11.1	95.780	-0.200	-0.360	0.880
2020/01/31 03:17:11.2	95.790	-0.220	-0.340	0.910
2020/01/31 03:17:11.3	95.790	-0.250	-0.310	0.930
2020/01/31 03:17:11.4	95.790	-0.270	-0.280	0.950
2020/01/31 03:17:11.5	95.800	-0.300	-0.250	0.980
2020/01/31 03:17:11.6	95.800	-0.320	-0.210	1.010
2020/01/31 03:17:11.7	95.800	-0.340	-0.180	1.030
2020/01/31 03:17:11.8	95.810	-0.370	-0.150	1.060
2020/01/31 03:17:11.9	95.810	-0.390	-0.110	1.090
2020/01/31 03:17:12.0	95.810	-0.410	-0.080	1.120
2020/01/31 03:17:12.1	95.800	-0.430	-0.040	1.150
2020/01/31 03:17:12.2	95.800	-0.450	-0.010	1.180
2020/01/31 03:17:12.3	95.800	-0.460	0.020	1.210
2020/01/31 03:17:12.4	95.800	-0.480	0.050	1.240
2020/01/31 03:17:12.5	95.800	-0.490	0.080	1.270
2020/01/31 03:17:12.6	95.790	-0.500	0.100	1.300
2020/01/31 03:17:12.7	95.790	-0.510	0.120	1.320
2020/01/31 03:17:12.8	95.790	-0.520	0.140	1.350
2020/01/31 03:17:12.9	95.790	-0.530	0.160	1.370
2020/01/31 03:17:13.0	95.780	-0.530	0.170	1.390
2020/01/31 03:17:13.1	95.790	-0.530	0.170	1.410
2020/01/31 03:17:13.2	95.780	-0.530	0.180	1.430
2020/01/31 03:17:13.3	95.780	-0.530	0.180	1.450
2020/01/31 03:17:13.4	95.780	-0.520	0.180	1.460
2020/01/31 03:17:13.5	95.770	-0.510	0.180	1.470
2020/01/31 03:17:13.6	95.770	-0.500	0.170	1.470
2020/01/31 03:17:13.7	95.760	-0.490	0.160	1.480
2020/01/31 03:17:13.8	95.760	-0.480	0.150	1.480
2020/01/31 03:17:13.9	95.750	-0.470	0.140	1.470
2020/01/31 03:17:14.0	95.750	-0.460	0.130	1.460
2020/01/31 03:17:14.1	95.750	-0.440	0.110	1.450
2020/01/31 03:17:14.2	95.750	-0.420	0.100	1.440
2020/01/31 03:17:14.3	95.750	-0.410	0.080	1.410
2020/01/31 03:17:14.4	95.750	-0.390	0.060	1.390
2020/01/31 03:17:14.5	95.750	-0.370	0.040	1.360
2020/01/31 03:17:14.6	95.760	-0.360	0.030	1.330
2020/01/31 03:17:14.7	95.760	-0.340	0.010	1.290
2020/01/31 03:17:14.8	95.760	-0.320	-0.010	1.250
2020/01/31 03:17:14.9	95.770	-0.300	-0.030	1.210
2020/01/31 03:17:15.0	95.780	-0.280	-0.050	1.170
2020/01/31 03:17:15.1	95.790	-0.260	-0.070	1.120
2020/01/31 03:17:15.2	95.790	-0.240	-0.090	1.070
2020/01/31 03:17:15.3	95.800	-0.220	-0.120	1.020
2020/01/31 03:17:15.4	95.810	-0.200	-0.140	0.970
2020/01/31 03:17:15.5	95.820	-0.180	-0.160	0.920
2020/01/31 03:17:15.6	95.820	-0.160	-0.180	0.870
2020/01/31 03:17:15.7	95.830	-0.140	-0.200	0.820
2020/01/31 03:17:15.8	95.830	-0.120	-0.220	0.770
2020/01/31 03:17:15.9	95.840	-0.100	-0.250	0.720
2020/01/31 03:17:16.0	95.830	-0.070	-0.270	0.670
2020/01/31 03:17:16.1	95.830	-0.050	-0.290	0.630
2020/01/31 03:17:16.2	95.830	-0.020	-0.320	0.590
2020/01/31 03:17:16.3	95.830	0.000	-0.340	0.550
2020/01/31 03:17:16.4	95.830	0.030	-0.360	0.520
2020/01/31 03:17:16.5	95.820	0.060	-0.390	0.490
2020/01/31 03:17:16.6	95.810	0.090	-0.410	0.470
2020/01/31 03:17:16.7	95.810	0.110	-0.430	0.450
2020/01/31 03:17:16.8	95.790	0.140	-0.450	0.430
2020/01/31 03:17:16.9	95.780	0.170	-0.470	0.420
2020/01/31 03:17:17.0	95.770	0.200	-0.490	0.410
2020/01/31 03:17:17.1	95.750	0.220	-0.510	0.410
2020/01/31 03:17:17.2	95.730	0.250	-0.530	0.410
2020/01/31 03:17:17.3	95.710	0.280	-0.540	0.410
2020/01/31 03:17:17.4	95.690	0.300	-0.550	0.420
2020/01/31 03:17:17.5	95.670	0.320	-0.560	0.430
2020/01/31 03:17:17.6	95.650	0.340	-0.570	0.440
2020/01/31 03:17:17.7	95.630	0.360	-0.580	0.450
2020/01/31 03:17:17.8	95.610	0.370	-0.580	0.460
2020/01/31 03:17:17.9	95.590	0.390	-0.590	0.470
2020/01/31 03:17:18.0	95.570	0.400	-0.590	0.480
2020/01/31 03:17:18.1	95.540	0.410	-0.590	0.490
2020/01/31 03:17:18.2	95.530	0.410	-0.590	0.500
2020/01/31 03:17:18.3	95.510	0.420	-0.580	0.500
2020/01/31 03:17:18.4	95.500	0.420	-0.580	0.500
2020/01/31 03:17:18.5	95.480	0.420	-0.580	0.510
2020/01/31 03:17:18.6	95.470	0.410	-0.570	0.510
2020/01/31 03:17:18.7	95.460	0.410	-0.570	0.500
2020/01/31 03:17:18.8	95.450	0.400	-0.560	0.500
2020/01/31 03:17:18.9	95.450	0.390	-0.560	0.490
2020/01/31 03:17:19.0	95.420	0.380	-0.550	0.480
2020/01/31 03:17:19.1	95.420	0.360	-0.540	0.470
2020/01/31 03:17:19.2	95.420	0.350	-0.540	0.460
2020/01/31 03:17:19.3	95.420	0.330	-0.530	0.450
2020/01/31 03:17:19.4	95.430	0.320	-0.520	0.440
2020/01/31 03:17:19.5	95.430	0.300	-0.510	0.420
2020/01/31 03:17:19.6	95.440	0.280	-0.500	0.410
2020/01/31 03:17:19.7	95.450	0.270	-0.490	0.400
2020/01/31 03:17:19.8	95.450	0.250	-0.480	0.390
2020/01/31 03:17:19.9	95.460	0.230	-0.470	0.380
2020/01/31 03:17:20.0	95.470	0.220	-0.460	0.370
2020/01/31 03:17:20.1	95.480	0.200	-0.450	0.360
2020/01/31 03:17:20.2	95.490	0.190	-0.430	0.360
2020/01/31 03:17:20.3	95.500	0.180	-0.420	0.350
2020/01/31 03:17:20.4	95.500	0.170	-0.400	0.350
2020/01/31 03:17:20.5	95.510	0.160	-0.380	0.350
2020/01/31 03:17:20.6	95.530	0.150	-0.360	0.350
2020/01/31 03:17:20.7	95.540	0.140	-0.340	0.360
2020/01/31 03:17:20.8	95.550	0.130	-0.310	0.370
2020/01/31 03:17:20.9	95.560	0.130	-0.280	0.380
2020/01/31 03:17:21.0	95.580	0.120	-0.250	0.390
2020/01/31 03:17:21.1	95.600	0.110	-0.220	0.400
2020/01/31 03:17:21.2	95.610	0.110	-0.190	0.420
2020/01/31 03:17:21.3	95.620	0.100	-0.150	0.440
2020/01/31 03:17:21.4	95.630	0.090	-0.110	0.460
2020/01/31 03:17:21.5	95.640	0.090	-0.070	0.480
2020/01/31 03:17:21.6	95.650	0.080	-0.030	0.510
2020/01/31 03:17:21.7	95.660	0.070	0.010	0.530
2020/01/31 03:17:21.8	95.670	0.060	0.050	0.560
2020/01/31 03:17:21.9	95.670	0.050	0.090	0.590
2020/01/31 03:17:22.0	95.680	0.040	0.130	0.620
2020/01/31 03:17:22.1	95.680	0.030	0.170	0.650
2020/01/31 03:17:22.2	95.680	0.020	0.210	0.680
2020/01/31 03:17:22.3	95.680	0.010	0.240	0.710
2020/01/31 03:17:22.4	95.680	-0.010	0.270	0.740
2020/01/31 03:17:22.5	95.680	-0.020	0.290	0.770
2020/01/31 03:17:22.6	95.680	-0.030	0.310	0.800
2020/01/31 03:17:22.7	95.670	-0.050	0.320	0.820
2020/01/31 03:17:22.8	95.670	-0.060	0.330	0.850
2020/01/31 03:17:22.9	95.660	-0.070	0.330	0.880
2020/01/31 03:17:23.0	95.650	-0.080	0.330	0.910
2020/01/31 03:17:23.1	95.650	-0.090	0.320	0.930
2020/01/31 03:17:23.2	95.640	-0.100	0.300	0.960
2020/01/31 03:17:23.3	95.630	-0.110	0.280	0.980
2020/01/31 03:17:23.4	95.620	-0.120	0.250	1.010
2020/01/31 03:17:23.5	95.600	-0.120	0.220	1.040
2020/01/31 03:17:23.6	95.590	-0.130	0.190	1.060
2020/01/31 03:17:23.7	95.570	-0.130	0.140	1.090
2020/01/31 03:17:23.8	95.560	-0.140	0.100	1.120
2020/01/31 03:17:23.9	95.540	-0.140	0.050	1.140
2020/01/31 03:17:24.0	95.520	-0.140	0.000	1.170
2020/01/31 03:17:24.1	95.500	-0.140	-0.050	1.190
2020/01/31 03:17:24.2	95.490	-0.140	-0.100	1.220
2020/01/31 03:17:24.3	95.470	-0.130	-0.150	1.240
2020/01/31 03:17:24.4	95.460	-0.130	-0.200	1.260
2020/01/31 03:17:24.5	95.450	-0.130	-0.240	1.270
2020/01/31 03:17:24.6	95.430	-0.130	-0.280	1.290
2020/01/31 03:17:24.7	95.420	-0.130	-0.320	1.300
2020/01/31 03:17:24.8	95.410	-0.120	-0.360	1.310
2020/01/31 03:17:24.9	95.400	-0.120	-0.390	1.330
2020/01/31 03:17:25.0	95.390	-0.120	-0.420	1.330
2020/01/31 03:17:25.1	95.380	-0.120	-0.440	1.340
2020/01/31 03:17:25.2	95.380	-0.120	-0.460	1.340
2020/01/31 03:17:25.3	95.370	-0.120	-0.470	1.350
2020/01/31 03:17:25.4	95.360	-0.130	-0.480	1.350
2020/01/31 03:17:25.5	95.360	-0.130	-0.490	1.340
2020/01/31 03:17:25.6	95.350	-0.130	-0.490	1.340
2020/01/31 03:17:25.7	95.350	-0.140	-0.490	1.330
2020/01/31 03:17:25.8	95.340	-0.140	-0.480	1.330
2020/01/31 03:17:25.9	95.340	-0.150	-0.480	1.320
2020/01/31 03:17:26.0	95.320	-0.150	-0.470	1.300
2020/01/31 03:17:26.1	95.320	-0.160	-0.450	1.290
2020/01/31 03:17:26.2	95.310	-0.160	-0.440	1.270
2020/01/31 03:17:26.3	95.310	-0.170	-0.430	1.250
2020/01/31 03:17:26.4	95.310	-0.170	-0.410	1.230
2020/01/31 03:17:26.5	95.300	-0.170	-0.400	1.210
2020/01/31 03:17:26.6	95.300	-0.180	-0.380	1.190
2020/01/31 03:17:26.7	95.290	-0.180	-0.370	1.170
2020/01/31 03:17:26.8	95.290	-0.180	-0.350	1.140
2020/01/31 03:17:26.9	95.280	-0.180	-0.330	1.120
2020/01/31 03:17:27.0	95.280	-0.180	-0.320	1.090
2020/01/31 03:17:27.1	95.270	-0.180	-0.300	1.060
2020/01/31 03:17:27.2	95.260	-0.170	-0.290	1.040
2020/01/31 03:17:27.3	95.250	-0.170	-0.270	1.020
2020/01/31 03:17:27.4	95.240	-0.160	-0.250	1.000
2020/01/31 03:17:27.5	95.230	-0.160	-0.240	0.980
2020/01/31 03:17:27.6	95.210	-0.150	-0.220	0.960
2020/01/31 03:17:27.7	95.200	-0.140	-0.200	0.950
2020/01/31 03:17:27.8	95.180	-0.140	-0.180	0.930
2020/01/31 03:17:27.9	95.160	-0.130	-0.160	0.920
2020/01/31 03:17:28.0	95.140	-0.120	-0.140	0.910
2020/01/31 03:17:28.1	95.120	-0.110	-0.120	0.900
2020/01/31 03:17:28.2	95.100	-0.100	-0.100	0.900
2020/01/31 03:17:28.3	95.080	-0.090	-0.090	0.890
2020/01/31 03:17:28.4	95.070	-0.090	-0.070	0.890
2020/01/31 03:17:28.5	95.050	-0.080	-0.050	0.880
2020/01/31 03:17:28.6	95.030	-0.070	-0.030	0.880
2020/01/31 03:17:28.7	95.010	-0.060	-0.020	0.880
2020/01/31 03:17:28.8	95.000	-0.050	-0.010	0.870
2020/01/31 03:17:28.9	94.990	-0.040	0.000	0.870
2020/01/31 03:17:29.0	94.980	-0.030	0.010	0.860
2020/01/31 03:17:29.1	94.960	-0.030	0.020	0.850
2020/01/31 03:17:29.2	94.960	-0.020	0.020	0.840
2020/01/31 03:17:29.3	94.950	-0.010	0.020	0.830
2020/01/31 03:17:29.4	94.950	-0.000	0.010	0.820
2020/01/31 03:17:29.5	94.960	0.010	0.010	0.800
2020/01/31 03:17:29.6	94.960	0.010	-0.010	0.790
2020/01/31 03:17:29.7	94.970	0.020	-0.020	0.770
2020/01/31 03:17:29.8	94.980	0.030	-0.040	0.750
2020/01/31 03:17:29.9	94.990	0.040	-0.060	0.730
2020/01/31 03:17:30.0	95.010	0.050	-0.090	0.710
2020/01/31 03:17:30.1	95.020	0.060	-0.120	0.680
2020/01/31 03:17:30.2	95.040	0.070	-0.160	0.660
2020/01/31 03:17:30.3	95.060	0.080	-0.190	0.630
2020/01/31 03:17:30.4	95.080	0.100	-0.230	0.610
2020/01/31 03:17:30.5	95.100	0.110	-0.270	0.590
2020/01/31 03:17:30.6	95.120	0.120	-0.310	0.570
2020/01/31 03:17:30.7	95.140	0.140	-0.360	0.560
2020/01/31 03:17:30.8	95.170	0.150	-0.400	0.550
2020/01/31 03:17:30.9	95.190	0.160	-0.440	0.540
2020/01/31 03:17:31.0	95.200	0.180	-0.480	0.530
2020/01/31 03:17:31.1	95.230	0.190	-0.520	0.530
2020/01/31 03:17:31.2	95.240	0.200	-0.550	0.530
2020/01/31 03:17:31.3	95.260	0.210	-0.590	0.530
2020/01/31 03:17:31.4	95.270	0.220	-0.620	0.540
2020/01/31 03:17:31.5	95.290	0.230	-0.640	0.550
2020/01/31 03:17:31.6	95.300	0.240	-0.660	0.560
2020/01/31 03:17:31.7	95.310	0.240	-0.680	0.570
2020/01/31 03:17:31.8	95.310	0.250	-0.690	0.590
2020/01/31 03:17:31.9	95.320	0.250	-0.690	0.610
2020/01/31 03:17:32.0	95.320	0.250	-0.700	0.640
2020/01/31 03:17:32.1	95.330	0.250	-0.690	0.660
2020/01/31 03:17:32.2	95.320	0.240	-0.680	0.690
2020/01/31 03:17:32.3	95.320	0.240	-0.660	0.730
2020/01/31 03:17:32.4	95.310	0.230	-0.640	0.760
2020/01/31 03:17:32.5	95.300	0.220	-0.620	0.800
2020/01/31 03:17:32.6	95.290	0.200	-0.580	0.830
2020/01/31 03:17:32.7	95.280	0.190	-0.550	0.870
2020/01/31 03:17:32.8	95.260	0.170	-0.510	0.910
2020/01/31 03:17:32.9	95.250	0.150	-0.470	0.950
2020/01/31 03:17:33.0	95.230	0.130	-0.420	0.990
2020/01/31 03:17:33.1	95.210	0.110	-0.370	1.020
2020/01/31 03:17:33.2	95.190	0.080	-0.320	1.060
2020/01/31 03:17:33.3	95.170	0.060	-0.260	1.100
2020/01/31 03:17:33.4	95.150	0.030	-0.210	1.140
2020/01/31 03:17:33.5	95.130	0.000	-0.150	1.170
2020/01/31 03:17:33.6	95.100	-0.020	-0.090	1.210
2020/01/31 03:17:33.7	95.080	-0.050	-0.030	1.250
2020/01/31 03:17:33.8	95.050	-0.080	0.020	1.290
2020/01/31 03:17:33.9	95.020	-0.110	0.080	1.320
2020/01/31 03:17:34.0	95.000	-0.130	0.130	1.360
2020/01/31 03:17:34.1	94.980	-0.160	0.180	1.380
2020/01/31 03:17:34.2	94.950	-0.190	0.220	1.420
2020/01/31 03:17:34.3	94.920	-0.210	0.260	1.450
2020/01/31 03:17:34.4	94.890	-0.230	0.290	1.490
2020/01/31 03:17:34.5	94.860	-0.250	0.320	1.520
2020/01/31 03:17:34.6	94.840	-0.270	0.340	1.550
2020/01/31 03:17:34.7	94.810	-0.280	0.350	1.570
2020/01/31 03:17:34.8	94.780	-0.290	0.360	1.590
2020/01/31 03:17:34.9	94.760	-0.300	0.360	1.610
2020/01/31 03:17:35.0	94.740	-0.310	0.350	1.620
2020/01/31 03:17:35.1	94.720	-0.310	0.330	1.630
2020/01/31 03:17:35.2	94.710	-0.310	0.300	1.630
2020/01/31 03:17:35.3	94.700	-0.310	0.270	1.630
2020/01/31 03:17:35.4	94.690	-0.300	0.230	1.620
2020/01/31 03:17:35.5	94.680	-0.290	0.180	1.600
2020/01/31 03:17:35.6	94.680	-0.280	0.130	1.580
2020/01/31 03:17:35.7	94.680	-0.260	0.070	1.550
2020/01/31 03:17:35.8	94.680	-0.250	0.000	1.520
2020/01/31 03:17:35.9	94.680	-0.220	-0.070	1.490
2020/01/31 03:17:36.0	94.690	-0.200	-0.140	1.450
2020/01/31 03:17:36.1	94.700	-0.180	-0.210	1.400
2020/01/31 03:17:36.2	94.710	-0.150	-0.290	1.360
2020/01/31 03:17:36.3	94.720	-0.120	-0.360	1.320
2020/01/31 03:17:36.4	94.730	-0.090	-0.440	1.280
2020/01/31 03:17:36.5	94.740	-0.060	-0.510	1.240
2020/01/31 03:17:36.6	94.750	-0.030	-0.580	1.210
2020/01/31 03:17:36.7	94.760	-0.000	-0.640	1.170
2020/01/31 03:17:36.8	94.760	0.020	-0.700	1.130
2020/01/31 03:17:36.9	94.770	0.050	-0.760	1.100
2020/01/31 03:17:37.0	94.780	0.080	-0.800	1.070
2020/01/31 03:17:37.1	94.790	0.100	-0.840	1.050
2020/01/31 03:17:37.2	94.800	0.130	-0.870	1.020
2020/01/31 03:17:37.3	94.800	0.150	-0.890	1.000
2020/01/31 03:17:37.4	94.810	0.170	-0.900	0.980
2020/01/31 03:17:37.5	94.810	0.190	-0.900	0.970
2020/01/31 03:17:37.6	94.810	0.200	-0.880	0.960
2020/01/31 03:17:37.7	94.820	0.210	-0.870	0.950
2020/01/31 03:17:37.8	94.820	0.220	-0.840	0.940
2020/01/31 03:17:37.9	94.820	0.230	-0.800	0.940
2020/01/31 03:17:38.0	94.820	0.230	-0.750	0.940
2020/01/31 03:17:38.1	94.810	0.240	-0.700	0.940
2020/01/31 03:17:38.2	94.810	0.240	-0.640	0.940
2020/01/31 03:17:38.3	94.810	0.230	-0.570	0.940
2020/01/31 03:17:38.4	94.810	0.230	-0.500	0.950
2020/01/31 03:17:38.5	94.810	0.220	-0.420	0.950
2020/01/31 03:17:38.6	94.810	0.210	-0.350	0.960
2020/01/31 03:17:38.7	94.810	0.200	-0.270	0.970
2020/01/31 03:17:38.8	94.810	0.180	-0.190	0.970
2020/01/31 03:17:38.9	94.810	0.170	-0.110	0.980
2020/01/31 03:17:39.0	94.810	0.150	-0.030	0.990
2020/01/31 03:17:39.1	94.820	0.140	0.040	1.000
2020/01/31 03:17:39.2	94.820	0.120	0.110	1.000
2020/01/31 03:17:39.3	94.820	0.100	0.180	1.010
2020/01/31 03:17:39.4	94.820	0.080	0.240	1.020
2020/01/31 03:17:39.5	94.820	0.070	0.290	1.030
2020/01/31 03:17:39.6	94.810	0.050	0.340	1.030
2020/01/31 03:17:39.7	94.810	0.030	0.380	1.040
2020/01/31 03:17:39.8	94.810	0.020	0.410	1.050
2020/01/31 03:17:39.9	94.810	-0.000	0.440	1.050
2020/01/31 03:17:40.0	94.800	-0.010	0.450	1.060
2020/01/31 03:17:40.1	94.780	-0.030	0.450	1.060
2020/01/31 03:17:40.2	94.780	-0.040	0.450	1.060
2020/01/31 03:17:40.3	94.770	-0.050	0.440	1.050
2020/01/31 03:17:40.4	94.770	-0.060	0.420	1.050
2020/01/31 03:17:40.5	94.770	-0.070	0.390	1.040
2020/01/31 03:17:40.6	94.760	-0.070	0.360	1.030
2020/01/31 03:17:40.7	94.760	-0.080	0.310	1.020
2020/01/31 03:17:40.8	94.760	-0.080	0.260	1.010
2020/01/31 03:17:40.9	94.760	-0.080	0.200	1.000
2020/01/31 03:17:41.0	94.750	-0.070	0.140	0.980
2020/01/31 03:17:41.1	94.750	-0.070	0.070	0.960
2020/01/31 03:17:41.2	94.750	-0.060	-0.000	0.940
2020/01/31 03:17:41.3	94.750	-0.050	-0.080	0.920
2020/01/31 03:17:41.4	94.750	-0.040	-0.160	0.900
2020/01/31 03:17:41.5	94.750	-0.030	-0.240	0.890
2020/01/31 03:17:41.6	94.750	-0.010	-0.320	0.870
2020/01/31 03:17:41.7	94.750	0.010	-0.400	0.850
2020/01/31 03:17:41.8	94.750	0.020	-0.470	0.840
2020/01/31 03:17:41.9	94.750	0.040	-0.540	0.830
2020/01/31 03:17:42.0	94.750	0.060	-0.600	0.820
2020/01/31 03:17:42.1	94.760	0.080	-0.670	0.810
2020/01/31 03:17:42.2	94.760	0.100	-0.720	0.810
2020/01/31 03:17:42.3	94.760	0.110	-0.760	0.800
2020/01/31 03:17:42.4	94.760	0.130	-0.790	0.800
2020/01/31 03:17:42.5	94.760	0.140	-0.820	0.810
2020/01/31 03:17:42.6	94.760	0.150	-0.830	0.820
2020/01/31 03:17:42.7	94.760	0.160	-0.830	0.830
2020/01/31 03:17:42.8	94.760	0.170	-0.820	0.840
2020/01/31 03:17:42.9	94.770	0.170	-0.810	0.860
2020/01/31 03:17:43.0	94.760	0.170	-0.780	0.880
2020/01/31 03:17:43.1	94.760	0.160	-0.740	0.900
2020/01/31 03:17:43.2	94.760	0.150	-0.690	0.920
2020/01/31 03:17:43.3	94.770	0.140	-0.640	0.950
2020/01/31 03:17:43.4	94.770	0.120	-0.580	0.970
2020/01/31 03:17:43.5	94.780	0.100	-0.510	1.000
2020/01/31 03:17:43.6	94.790	0.070	-0.430	1.020
2020/01/31 03:17:43.7	94.790	0.040	-0.350	1.040
2020/01/31 03:17:43.8	94.800	0.010	-0.270	1.070
2020/01/31 03:17:43.9	94.810	-0.030	-0.190	1.080
2020/01/31 03:17:44.0	94.810	-0.070	-0.100	1.100
2020/01/31 03:17:44.1	94.840	-0.110	-0.020	1.110
2020/01/31 03:17:44.2				
2020/01/31 03:17:44.3	94.850	-0.150	0.070	1.120
2020/01/31 03:17:44.4	94.860	-0.250	0.230	1.130
2020/01/31 03:17:44.5	94.870	-0.290	0.310	1.130
2020/01/31 03:17:44.6	94.880	-0.340	0.380	1.130
2020/01/31 03:17:44.7	94.890	-0.390	0.440	1.120
2020/01/31 03:17:44.8	94.900	-0.430	0.500	1.120
2020/01/31 03:17:44.9	94.910	-0.470	0.550	1.110
2020/01/31 03:17:45.0	94.920	-0.510	0.590	1.090
2020/01/31 03:17:45.1	94.910	-0.540	0.620	1.070
2020/01/31 03:17:45.2	94.920	-0.580	0.650	1.060
2020/01/31 03:17:45.3	94.930	-0.600	0.660	1.040
2020/01/31 03:17:45.4	94.930	-0.620	0.650	1.020
2020/01/31 03:17:45.5	94.930	-0.640	0.640	1.010
2020/01/31 03:17:45.6	94.940	-0.640	0.620	0.990
2020/01/31 03:17:45.7	94.940	-0.650	0.580	0.970
2020/01/31 03:17:45.8	94.940	-0.640	0.540	0.950
2020/01/31 03:17:45.9	94.940	-0.630	0.480	0.940
2020/01/31 03:17:46.0	94.940	-0.610	0.420	0.920
2020/01/31 03:17:46.1	94.930	-0.590	0.340	0.910
2020/01/31 03:17:46.2	94.930	-0.550	0.260	0.890
2020/01/31 03:17:46.3	94.920	-0.510	0.160	0.880
2020/01/31 03:17:46.4	94.910	-0.470	0.060	0.860
2020/01/31 03:17:46.5	94.910	-0.420	-0.040	0.850
2020/01/31 03:17:46.6	94.900	-0.360	-0.150	0.840
2020/01/31 03:17:46.7	94.890	-0.300	-0.270	0.820
2020/01/31 03:17:46.8	94.890	-0.230	-0.380	0.800
2020/01/31 03:17:46.9	94.880	-0.160	-0.500	0.790
2020/01/31 03:17:47.0	94.870	-0.090	-0.620	0.770
2020/01/31 03:17:47.1	94.850	-0.010	-0.740	0.750
2020/01/31 03:17:47.2	94.840	0.070	-0.850	0.730
2020/01/31 03:17:47.3	94.830	0.140	-0.960	0.710
2020/01/31 03:17:47.4	94.820	0.220	-1.060	0.690
2020/01/31 03:17:47.5	94.810	0.300	-1.150	0.670
2020/01/31 03:17:47.6	94.800	0.380	-1.240	0.650
2020/01/31 03:17:47.7	94.790	0.450	-1.310	0.620
2020/01/31 03:17:47.8	94.770	0.520	-1.380	0.600
2020/01/31 03:17:47.9	94.760	0.590	-1.430	0.580
2020/01/31 03:17:48.0	94.750	0.650	-1.460	0.560
2020/01/31 03:17:48.1	94.760	0.710	-1.490	0.540
2020/01/31 03:17:48.2	94.740	0.760	-1.500	0.520
2020/01/31 03:17:48.3	94.730	0.800	-1.490	0.510
2020/01/31 03:17:48.4	94.720	0.840	-1.470	0.490
2020/01/31 03:17:48.5	94.710	0.870	-1.440	0.480
2020/01/31 03:17:48.6	94.690	0.890	-1.390	0.470
2020/01/31 03:17:48.7	94.680	0.900	-1.330	0.460
2020/01/31 03:17:48.8	94.670	0.910	-1.250	0.450
2020/01/31 03:17:48.9	94.660	0.910	-1.170	0.440
2020/01/31 03:17:49.0	94.650	0.900	-1.070	0.440
2020/01/31 03:17:49.1	94.640	0.880	-0.960	0.430
2020/01/31 03:17:49.2	94.630	0.850	-0.850	0.430
2020/01/31 03:17:49.3	94.630	0.820	-0.730	0.430
2020/01/31 03:17:49.4	94.620	0.780	-0.600	0.420
2020/01/31 03:17:49.5	94.620	0.740	-0.470	0.420
2020/01/31 03:17:49.6	94.610	0.690	-0.340	0.420
2020/01/31 03:17:49.7	94.610	0.630	-0.200	0.420
2020/01/31 03:17:49.8	94.620	0.570	-0.070	0.420
2020/01/31 03:17:49.9	94.620	0.510	0.060	0.420
2020/01/31 03:17:50.0	94.620	0.440	0.190	0.420
2020/01/31 03:17:50.1	94.620	0.370	0.310	0.410
2020/01/31 03:17:50.2	94.620	0.300	0.430	0.410
2020/01/31 03:17:50.3	94.630	0.230	0.530	0.410
2020/01/31 03:17:50.4	94.630	0.160	0.630	0.410
2020/01/31 03:17:50.5	94.640	0.090	0.720	0.410
2020/01/31 03:17:50.6	94.650	0.010	0.800	0.410
2020/01/31 03:17:50.7	94.650	-0.060	0.870	0.420
2020/01/31 03:17:50.8	94.660	-0.120	0.920	0.420
2020/01/31 03:17:50.9	94.660	-0.190	0.970	0.430
2020/01/31 03:17:51.0	94.670	-0.250	1.000	0.430
2020/01/31 03:17:51.1	94.660	-0.310	1.010	0.440
2020/01/31 03:17:51.2	94.670	-0.360	1.010	0.450
2020/01/31 03:17:51.3	94.670	-0.410	1.000	0.460
2020/01/31 03:17:51.4	94.680	-0.450	0.980	0.480
2020/01/31 03:17:51.5	94.690	-0.490	0.950	0.490
2020/01/31 03:17:51.6	94.700	-0.520	0.900	0.510
2020/01/31 03:17:51.7	94.700	-0.550	0.840	0.520
2020/01/31 03:17:51.8	94.710	-0.570	0.770	0.540
2020/01/31 03:17:51.9	94.720	-0.590	0.690	0.560
2020/01/31 03:17:52.0	94.730	-0.590	0.600	0.580
2020/01/31 03:17:52.1	94.750	-0.600	0.500	0.600
2020/01/31 03:17:52.2	94.760	-0.600	0.400	0.630
2020/01/31 03:17:52.3	94.770	-0.590	0.290	0.660
2020/01/31 03:17:52.4	94.790	-0.580	0.180	0.690
2020/01/31 03:17:52.5	94.800	-0.570	0.060	0.720
2020/01/31 03:17:52.6	94.810	-0.550	-0.050	0.760
2020/01/31 03:17:52.7	94.820	-0.530	-0.160	0.800
2020/01/31 03:17:52.8	94.830	-0.500	-0.280	0.840
2020/01/31 03:17:52.9	94.830	-0.480	-0.380	0.890
2020/01/31 03:17:53.0	94.830	-0.450	-0.490	0.940
2020/01/31 03:17:53.1	94.830	-0.420	-0.590	0.990
2020/01/31 03:17:53.2	94.820	-0.390	-0.680	1.050
2020/01/31 03:17:53.3	94.820	-0.360	-0.760	1.110
2020/01/31 03:17:53.4	94.810	-0.340	-0.830	1.160
2020/01/31 03:17:53.5	94.800	-0.310	-0.880	1.220
2020/01/31 03:17:53.6	94.780	-0.290	-0.930	1.270
2020/01/31 03:17:53.7	94.770	-0.260	-0.970	1.320
2020/01/31 03:17:53.8	94.760	-0.240	-0.990	1.370
2020/01/31 03:17:53.9	94.740	-0.220	-1.000	1.420
2020/01/31 03:17:54.0	94.720	-0.210	-1.010	1.460
2020/01/31 03:17:54.1	94.710	-0.200	-1.000	1.500
2020/01/31 03:17:54.2	94.690	-0.190	-0.970	1.530
2020/01/31 03:17:54.3	94.670	-0.180	-0.940	1.560
2020/01/31 03:17:54.4	94.640	-0.180	-0.900	1.590
2020/01/31 03:17:54.5	94.620	-0.180	-0.850	1.620
2020/01/31 03:17:54.6	94.590	-0.180	-0.790	1.640
2020/01/31 03:17:54.7	94.560	-0.190	-0.720	1.650
2020/01/31 03:17:54.8	94.540	-0.200	-0.650	1.670
2020/01/31 03:17:54.9	94.510	-0.210	-0.580	1.670
2020/01/31 03:17:55.0	94.490	-0.220	-0.500	1.680
2020/01/31 03:17:55.1	94.460	-0.230	-0.420	1.680
2020/01/31 03:17:55.2	94.440	-0.250	-0.340	1.680
2020/01/31 03:17:55.3	94.410	-0.260	-0.260	1.670
2020/01/31 03:17:55.4	94.390	-0.280	-0.180	1.660
2020/01/31 03:17:55.5	94.370	-0.290	-0.110	1.650
2020/01/31 03:17:55.6	94.350	-0.300	-0.040	1.630
2020/01/31 03:17:55.7	94.330	-0.310	0.020	1.610
2020/01/31 03:17:55.8	94.310	-0.320	0.080	1.590
2020/01/31 03:17:55.9	94.300	-0.330	0.130	1.570
2020/01/31 03:17:56.0	94.280	-0.330	0.170	1.540
2020/01/31 03:17:56.1	94.270	-0.340	0.190	1.510
2020/01/31 03:17:56.2	94.260	-0.330	0.220	1.480
2020/01/31 03:17:56.3	94.260	-0.330	0.230	1.450
2020/01/31 03:17:56.4	94.250	-0.320	0.230	1.410
2020/01/31 03:17:56.5	94.250	-0.300	0.230	1.380
2020/01/31 03:17:56.6	94.250	-0.280	0.220	1.340
2020/01/31 03:17:56.7	94.260	-0.260	0.200	1.300
2020/01/31 03:17:56.8	94.260	-0.240	0.170	1.260
2020/01/31 03:17:56.9	94.270	-0.210	0.130	1.220
2020/01/31 03:17:57.0	94.270	-0.170	0.090	1.170
2020/01/31 03:17:57.1	94.270	-0.130	0.050	1.130
2020/01/31 03:17:57.2	94.270	-0.090	-0.010	1.080
2020/01/31 03:17:57.3	94.280	-0.050	-0.060	1.040
2020/01/31 03:17:57.4	94.290	-0.010	-0.120	0.990
2020/01/31 03:17:57.5	94.290	0.040	-0.180	0.950
2020/01/31 03:17:57.6	94.300	0.090	-0.250	0.900
2020/01/31 03:17:57.7	94.300	0.140	-0.310	0.850
2020/01/31 03:17:57.8	94.310	0.190	-0.370	0.800
2020/01/31 03:17:57.9	94.310	0.230	-0.430	0.750
2020/01/31 03:17:58.0	94.310	0.280	-0.480	0.700
2020/01/31 03:17:58.1	94.300	0.330	-0.530	0.650
2020/01/31 03:17:58.2	94.300	0.370	-0.580	0.600
2020/01/31 03:17:58.3	94.300	0.410	-0.620	0.550
2020/01/31 03:17:58.4	94.300	0.450	-0.660	0.500
2020/01/31 03:17:58.5	94.290	0.490	-0.690	0.450
2020/01/31 03:17:58.6	94.290	0.520	-0.710	0.400
2020/01/31 03:17:58.7	94.280	0.550	-0.730	0.360
2020/01/31 03:17:58.8	94.270	0.580	-0.740	0.320
2020/01/31 03:17:58.9	94.270	0.600	-0.750	0.290
2020/01/31 03:17:59.0	94.260	0.620	-0.750	0.260
2020/01/31 03:17:59.1	94.240	0.640	-0.740	0.230
2020/01/31 03:17:59.2	94.230	0.650	-0.730	0.210
2020/01/31 03:17:59.3	94.220	0.660	-0.710	0.200
2020/01/31 03:17:59.4	94.210	0.660	-0.680	0.200
2020/01/31 03:17:59.5	94.190	0.660	-0.650	0.200
2020/01/31 03:17:59.6	94.180	0.660	-0.620	0.210
2020/01/31 03:17:59.7	94.160	0.650	-0.580	0.220
2020/01/31 03:17:59.8	94.150	0.640	-0.540	0.240
2020/01/31 03:17:59.9	94.140	0.620	-0.500	0.270
2020/01/31 03:18:00.0	94.120	0.610	-0.450	0.300
2020/01/31 03:18:00.1	94.100	0.590	-0.400	0.330
2020/01/31 03:18:00.2	94.090	0.570	-0.350	0.370
2020/01/31 03:18:00.3	94.070	0.540	-0.300	0.410
2020/01/31 03:18:00.4	94.060	0.520	-0.250	0.450
2020/01/31 03:18:00.5	94.050	0.490	-0.200	0.500
2020/01/31 03:18:00.6	94.040	0.460	-0.150	0.550
2020/01/31 03:18:00.7	94.030	0.430	-0.100	0.590
2020/01/31 03:18:00.8	94.020	0.400	-0.050	0.640
2020/01/31 03:18:00.9	94.010	0.370	-0.010	0.690
2020/01/31 03:18:01.0	94.000	0.330	0.040	0.730
2020/01/31 03:18:01.1	94.000	0.300	0.080	0.780
2020/01/31 03:18:01.2	93.990	0.270	0.120	0.820
2020/01/31 03:18:01.3	93.980	0.240	0.150	0.860
2020/01/31 03:18:01.4	93.980	0.200	0.190	0.890
2020/01/31 03:18:01.5	93.970	0.170	0.210	0.930
2020/01/31 03:18:01.6	93.960	0.140	0.240	0.960
2020/01/31 03:18:01.7	93.960	0.110	0.260	0.990
2020/01/31 03:18:01.8	93.950	0.090	0.280	1.010
2020/01/31 03:18:01.9	93.950	0.060	0.290	1.030
2020/01/31 03:18:02.0	93.940	0.030	0.300	1.050
2020/01/31 03:18:02.1	93.940	0.010	0.300	1.070
2020/01/31 03:18:02.2	93.930	-0.010	0.300	1.080
2020/01/31 03:18:02.3	93.930	-0.030	0.290	1.100
2020/01/31 03:18:02.4	93.920	-0.050	0.280	1.110
2020/01/31 03:18:02.5	93.920	-0.070	0.270	1.120
2020/01/31 03:18:02.6	93.910	-0.080	0.250	1.130
2020/01/31 03:18:02.7	93.900	-0.100	0.220	1.140
2020/01/31 03:18:02.8	93.900	-0.110	0.200	1.150
2020/01/31 03:18:02.9	93.890	-0.120	0.170	1.150
2020/01/31 03:18:03.0	93.890	-0.130	0.130	1.160
2020/01/31 03:18:03.1	93.890	-0.140	0.100	1.160
2020/01/31 03:18:03.2	93.890	-0.140	0.060	1.170
2020/01/31 03:18:03.3	93.890	-0.150	0.020	1.180
2020/01/31 03:18:03.4	93.900	-0.150	-0.020	1.180
2020/01/31 03:18:03.5	93.900	-0.150	-0.060	1.190
2020/01/31 03:18:03.6	93.910	-0.160	-0.100	1.200
2020/01/31 03:18:03.7	93.910	-0.160	-0.140	1.210
2020/01/31 03:18:03.8	93.920	-0.160	-0.190	1.220
2020/01/31 03:18:03.9	93.930	-0.160	-0.220	1.230
2020/01/31 03:18:04.0	93.950	-0.160	-0.260	1.240
2020/01/31 03:18:04.1	93.960	-0.170	-0.300	1.240
2020/01/31 03:18:04.2	93.980	-0.170	-0.330	1.250
2020/01/31 03:18:04.3	93.990	-0.170	-0.360	1.260
2020/01/31 03:18:04.4	94.010	-0.180	-0.390	1.260
2020/01/31 03:18:04.5	94.030	-0.180	-0.420	1.270
2020/01/31 03:18:04.6	94.050	-0.190	-0.440	1.270
2020/01/31 03:18:04.7	94.070	-0.190	-0.460	1.280
2020/01/31 03:18:04.8	94.100	-0.200	-0.480	1.280
2020/01/31 03:18:04.9	94.120	-0.210	-0.490	1.280
2020/01/31 03:18:05.0	94.140	-0.220	-0.500	1.280
2020/01/31 03:18:05.1	94.170	-0.230	-0.510	1.280
2020/01/31 03:18:05.2	94.190	-0.240	-0.520	1.280
2020/01/31 03:18:05.3	94.210	-0.250	-0.520	1.280
2020/01/31 03:18:05.4	94.240	-0.260	-0.510	1.280
2020/01/31 03:18:05.5	94.260	-0.270	-0.510	1.270
2020/01/31 03:18:05.6	94.280	-0.280	-0.500	1.270
2020/01/31 03:18:05.7	94.310	-0.290	-0.490	1.270
2020/01/31 03:18:05.8	94.330	-0.300	-0.480	1.260
2020/01/31 03:18:05.9	94.350	-0.310	-0.460	1.260
2020/01/31 03:18:06.0	94.370	-0.320	-0.450	1.260
2020/01/31 03:18:06.1	94.380	-0.330	-0.420	1.250
2020/01/31 03:18:06.2	94.390	-0.340	-0.400	1.250
2020/01/31 03:18:06.3	94.400	-0.340	-0.380	1.250
2020/01/31 03:18:06.4	94.420	-0.350	-0.350	1.250
2020/01/31 03:18:06.5	94.420	-0.360	-0.320	1.250
2020/01/31 03:18:06.6	94.430	-0.360	-0.290	1.250
2020/01/31 03:18:06.7	94.430	-0.370	-0.260	1.260
2020/01/31 03:18:06.8	94.430	-0.370	-0.230	1.260
2020/01/31 03:18:06.9	94.430	-0.380	-0.190	1.260
2020/01/31 03:18:07.0	94.430	-0.380	-0.160	1.270
2020/01/31 03:18:07.1	94.420	-0.380	-0.120	1.280
2020/01/31 03:18:07.2	94.410	-0.380	-0.090	1.280
2020/01/31 03:18:07.3	94.390	-0.380	-0.050	1.290
2020/01/31 03:18:07.4	94.380	-0.380	-0.010	1.290
2020/01/31 03:18:07.5	94.360	-0.380	0.030	1.290
2020/01/31 03:18:07.6	94.340	-0.370	0.060	1.290
2020/01/31 03:18:07.7	94.320	-0.370	0.100	1.290
2020/01/31 03:18:07.8	94.300	-0.360	0.130	1.290
2020/01/31 03:18:07.9	94.280	-0.360	0.160	1.290
2020/01/31 03:18:08.0	94.250	-0.350	0.190	1.290
2020/01/31 03:18:08.1	94.230	-0.340	0.210	1.270
2020/01/31 03:18:08.2	94.200	-0.330	0.230	1.260
2020/01/31 03:18:08.3	94.180	-0.320	0.250	1.250
2020/01/31 03:18:08.4	94.150	-0.300	0.260	1.240
2020/01/31 03:18:08.5	94.130	-0.290	0.260	1.220
2020/01/31 03:18:08.6	94.110	-0.270	0.260	1.200
2020/01/31 03:18:08.7	94.090	-0.250	0.260	1.180
2020/01/31 03:18:08.8	94.070	-0.230	0.240	1.150
2020/01/31 03:18:08.9	94.060	-0.210	0.230	1.130
2020/01/31 03:18:09.0	94.050	-0.180	0.200	1.090
2020/01/31 03:18:09.1	94.030	-0.150	0.160	1.060
2020/01/31 03:18:09.2	94.020	-0.120	0.120	1.020
2020/01/31 03:18:09.3	94.020	-0.090	0.070	0.980
2020/01/31 03:18:09.4	94.020	-0.050	0.020	0.930
2020/01/31 03:18:09.5	94.020	-0.010	-0.040	0.890
2020/01/31 03:18:09.6	94.030	0.030	-0.110	0.840
2020/01/31 03:18:09.7	94.040	0.070	-0.190	0.790
2020/01/31 03:18:09.8	94.050	0.120	-0.270	0.730
2020/01/31 03:18:09.9	94.060	0.160	-0.360	0.680
2020/01/31 03:18:10.0	94.090	0.210	-0.440	0.630
2020/01/31 03:18:10.1	94.100	0.260	-0.530	0.570
2020/01/31 03:18:10.2	94.120	0.310	-0.620	0.520
2020/01/31 03:18:10.3	94.130	0.360	-0.720	0.480
2020/01/31 03:18:10.4	94.150	0.410	-0.800	0.430
2020/01/31 03:18:10.5	94.170	0.460	-0.890	0.380
2020/01/31 03:18:10.6	94.180	0.500	-0.970	0.340
2020/01/31 03:18:10.7	94.200	0.550	-1.040	0.300
2020/01/31 03:18:10.8	94.220	0.590	-1.100	0.250
2020/01/31 03:18:10.9	94.230	0.620	-1.160	0.210
2020/01/31 03:18:11.0	94.250	0.650	-1.210	0.180
2020/01/31 03:18:11.1	94.250	0.680	-1.240	0.140
2020/01/31 03:18:11.2	94.270	0.700	-1.270	0.100
2020/01/31 03:18:11.3	94.280	0.720	-1.280	0.070
2020/01/31 03:18:11.4	94.290	0.730	-1.270	0.050
2020/01/31 03:18:11.5	94.310	0.740	-1.260	0.020
2020/01/31 03:18:11.6	94.320	0.740	-1.230	0.000
2020/01/31 03:18:11.7	94.330	0.740	-1.190	-0.010
2020/01/31 03:18:11.8	94.330	0.730	-1.140	-0.020
2020/01/31 03:18:11.9	94.340	0.720	-1.070	-0.030
2020/01/31 03:18:12.0	94.350	0.700	-1.000	-0.030
2020/01/31 03:18:12.1	94.330	0.670	-0.910	-0.030
2020/01/31 03:18:12.2	94.330	0.640	-0.820	-0.020
2020/01/31 03:18:12.3	94.330	0.610	-0.720	-0.000
2020/01/31 03:18:12.4	94.330	0.570	-0.610	0.020
2020/01/31 03:18:12.5	94.320	0.530	-0.500	0.040
2020/01/31 03:18:12.6	94.320	0.480	-0.380	0.070
2020/01/31 03:18:12.7	94.310	0.430	-0.270	0.100
2020/01/31 03:18:12.8	94.300	0.380	-0.150	0.140
2020/01/31 03:18:12.9	94.290	0.330	-0.040	0.180
2020/01/31 03:18:13.0	94.280	0.280	0.080	0.230
2020/01/31 03:18:13.1	94.270	0.230	0.190	0.270
2020/01/31 03:18:13.2	94.260	0.170	0.290	0.320
2020/01/31 03:18:13.3	94.250	0.120	0.380	0.370
2020/01/31 03:18:13.4	94.230	0.070	0.460	0.420
2020/01/31 03:18:13.5	94.220	0.030	0.540	0.470
2020/01/31 03:18:13.6	94.210	-0.020	0.600	0.530
2020/01/31 03:18:13.7	94.200	-0.060	0.660	0.580
2020/01/31 03:18:13.8	94.190	-0.100	0.700	0.620
2020/01/31 03:18:13.9	94.190	-0.140	0.730	0.670
2020/01/31 03:18:14.0	94.200	-0.170	0.740	0.710
2020/01/31 03:18:14.1	94.200	-0.190	0.750	0.760
2020/01/31 03:18:14.2	94.190	-0.220	0.740	0.790
2020/01/31 03:18:14.3	94.200	-0.240	0.730	0.830
2020/01/31 03:18:14.4	94.200	-0.250	0.700	0.860
2020/01/31 03:18:14.5	94.200	-0.270	0.660	0.890
2020/01/31 03:18:14.6	94.210	-0.270	0.610	0.910
2020/01/31 03:18:14.7	94.220	-0.280	0.560	0.940
2020/01/31 03:18:14.8	94.230	-0.280	0.500	0.960
2020/01/31 03:18:14.9	94.240	-0.280	0.430	0.970
2020/01/31 03:18:15.0	94.250	-0.280	0.350	0.990
2020/01/31 03:18:15.1	94.260	-0.270	0.270	1.000
2020/01/31 03:18:15.2	94.270	-0.260	0.190	1.010
2020/01/31 03:18:15.3	94.280	-0.250	0.110	1.020
2020/01/31 03:18:15.4	94.290	-0.240	0.030	1.030
2020/01/31 03:18:15.5	94.300	-0.230	-0.050	1.040
2020/01/31 03:18:15.6	94.310	-0.220	-0.130	1.040
2020/01/31 03:18:15.7	94.320	-0.200	-0.200	1.050
2020/01/31 03:18:15.8	94.340	-0.190	-0.270	1.050
2020/01/31 03:18:15.9	94.350	-0.180	-0.330	1.060
2020/01/31 03:18:16.0	94.360	-0.170	-0.390	1.060
2020/01/31 03:18:16.1	94.360	-0.160	-0.440	1.060
2020/01/31 03:18:16.2	94.370	-0.150	-0.480	1.060
2020/01/31 03:18:16.3	94.380	-0.150	-0.520	1.070
2020/01/31 03:18:16.4	94.380	-0.140	-0.540	1.070
2020/01/31 03:18:16.5	94.390	-0.140	-0.560	1.070
2020/01/31 03:18:16.6	94.400	-0.140	-0.570	1.070
2020/01/31 03:18:16.7	94.400	-0.140	-0.570	1.080
2020/01/31 03:18:16.8	94.400	-0.150	-0.570	1.080
2020/01/31 03:18:16.9	94.410	-0.150	-0.550	1.090
2020/01/31 03:18:17.0	94.410	-0.160	-0.530	1.090
2020/01/31 03:18:17.1	94.410	-0.170	-0.510	1.090
2020/01/31 03:18:17.2	94.410	-0.180	-0.470	1.090
2020/01/31 03:18:17.3	94.410	-0.190	-0.440	1.090
2020/01/31 03:18:17.4	94.410	-0.200	-0.400	1.100
2020/01/31 03:18:17.5	94.410	-0.210	-0.350	1.100
2020/01/31 03:18:17.6	94.410	-0.230	-0.310	1.100
2020/01/31 03:18:17.7	94.400	-0.240	-0.260	1.110
2020/01/31 03:18:17.8	94.400	-0.250	-0.210	1.110
2020/01/31 03:18:17.9	94.400	-0.270	-0.160	1.110
2020/01/31 03:18:18.0	94.380	-0.280	-0.110	1.120
2020/01/31 03:18:18.1	94.380	-0.290	-0.070	1.120
2020/01/31 03:18:18.2	94.370	-0.300	-0.030	1.130
2020/01/31 03:18:18.3	94.370	-0.300	0.010	1.130
2020/01/31 03:18:18.4	94.360	-0.310	0.040	1.130
2020/01/31 03:18:18.5	94.360	-0.310	0.070	1.140
2020/01/31 03:18:18.6	94.360	-0.310	0.090	1.140
2020/01/31 03:18:18.7	94.350	-0.310	0.100	1.140
2020/01/31 03:18:18.8	94.350	-0.300	0.110	1.150
2020/01/31 03:18:18.9	94.340	-0.290	0.110	1.150
2020/01/31 03:18:19.0	94.330	-0.280	0.110	1.150
2020/01/31 03:18:19.1	94.340	-0.260	0.090	1.150
2020/01/31 03:18:19.2	94.330	-0.240	0.070	1.150
2020/01/31 03:18:19.3	94.320	-0.220	0.050	1.150
2020/01/31 03:18:19.4	94.320	-0.190	0.010	1.150
2020/01/31 03:18:19.5	94.310	-0.170	-0.030	1.140
2020/01/31 03:18:19.6	94.310	-0.140	-0.070	1.130
2020/01/31 03:18:19.7	94.300	-0.100	-0.120	1.120
2020/01/31 03:18:19.8	94.300	-0.070	-0.170	1.100
2020/01/31 03:18:19.9	94.300	-0.030	-0.220	1.080
2020/01/31 03:18:20.0	94.300	0.000	-0.280	1.050
2020/01/31 03:18:20.1	94.300	0.040	-0.340	1.020
2020/01/31 03:18:20.2	94.300	0.080	-0.390	0.990
2020/01/31 03:18:20.3	94.310	0.110	-0.450	0.950
2020/01/31 03:18:20.4	94.310	0.150	-0.500	0.910
2020/01/31 03:18:20.5	94.320	0.180	-0.550	0.870
2020/01/31 03:18:20.6	94.330	0.210	-0.600	0.840
2020/01/31 03:18:20.7	94.340	0.240	-0.640	0.800
2020/01/31 03:18:20.8	94.350	0.260	-0.670	0.760
2020/01/31 03:18:20.9	94.360	0.290	-0.700	0.720
2020/01/31 03:18:21.0	94.380	0.310	-0.730	0.690
2020/01/31 03:18:21.1	94.360	0.320	-0.740	0.660
2020/01/31 03:18:21.2	94.380	0.340	-0.760	0.630
2020/01/31 03:18:21.3	94.390	0.350	-0.760	0.610
2020/01/31 03:18:21.4	94.400	0.350	-0.760	0.590
2020/01/31 03:18:21.5	94.420	0.360	-0.750	0.580
2020/01/31 03:18:21.6	94.430	0.360	-0.740	0.580
2020/01/31 03:18:21.7	94.450	0.350	-0.720	0.570
2020/01/31 03:18:21.8	94.460	0.340	-0.690	0.570
2020/01/31 03:18:21.9	94.470	0.330	-0.660	0.580
2020/01/31 03:18:22.0	94.480	0.320	-0.620	0.580
2020/01/31 03:18:22.1	94.520	0.300	-0.580	0.590
2020/01/31 03:18:22.2	94.530	0.280	-0.540	0.610
2020/01/31 03:18:22.3	94.540	0.260	-0.490	0.620
2020/01/31 03:18:22.4	94.550	0.240	-0.440	0.630
2020/01/31 03:18:22.5	94.560	0.210	-0.380	0.650
2020/01/31 03:18:22.6	94.570	0.180	-0.330	0.660
2020/01/31 03:18:22.7	94.580	0.160	-0.270	0.680
2020/01/31 03:18:22.8	94.580	0.130	-0.210	0.690
2020/01/31 03:18:22.9	94.590	0.100	-0.160	0.700
2020/01/31 03:18:23.0	94.590	0.060	-0.100	0.710
2020/01/31 03:18:23.1	94.580	0.030	-0.050	0.720
2020/01/31 03:18:23.2	94.580	0.000	0.000	0.720
2020/01/31 03:18:23.3	94.590	-0.030	0.050	0.730
2020/01/31 03:18:23.4	94.590	-0.060	0.100	0.730
2020/01/31 03:18:23.5	94.590	-0.080	0.140	0.730
2020/01/31 03:18:23.6	94.590	-0.110	0.180	0.730
2020/01/31 03:18:23.7	94.590	-0.140	0.220	0.730
2020/01/31 03:18:23.8	94.590	-0.160	0.250	0.740
2020/01/31 03:18:23.9	94.590	-0.180	0.270	0.740
2020/01/31 03:18:24.0	94.590	-0.200	0.290	0.740
2020/01/31 03:18:24.1	94.590	-0.220	0.310	0.740
2020/01/31 03:18:24.2	94.590	-0.240	0.320	0.750
2020/01/31 03:18:24.3	94.580	-0.250	0.330	0.760
2020/01/31 03:18:24.4	94.580	-0.260	0.330	0.770
2020/01/31 03:18:24.5	94.570	-0.270	0.320	0.790
2020/01/31 03:18:24.6	94.560	-0.280	0.310	0.810
2020/01/31 03:18:24.7	94.550	-0.280	0.290	0.830
2020/01/31 03:18:24.8	94.540	-0.280	0.270	0.850
2020/01/31 03:18:24.9	94.530	-0.280	0.250	0.870
2020/01/31 03:18:25.0	94.520	-0.280	0.220	0.900
2020/01/31 03:18:25.1	94.510	-0.270	0.190	0.910
2020/01/31 03:18:25.2	94.500	-0.270	0.150	0.930
2020/01/31 03:18:25.3	94.490	-0.260	0.110	0.950
2020/01/31 03:18:25.4	94.480	-0.250	0.070	0.970
2020/01/31 03:18:25.5	94.480	-0.240	0.030	0.980
2020/01/31 03:18:25.6	94.480	-0.220	-0.010	0.980
2020/01/31 03:18:25.7	94.470	-0.210	-0.050	0.980
2020/01/31 03:18:25.8	94.480	-0.200	-0.090	0.980
2020/01/31 03:18:25.9	94.480	-0.180	-0.130	0.970
2020/01/31 03:18:26.0	94.490	-0.170	-0.170	0.960
2020/01/31 03:18:26.1	94.500	-0.150	-0.210	0.940
2020/01/31 03:18:26.2	94.510	-0.140	-0.240	0.920
2020/01/31 03:18:26.3	94.520	-0.120	-0.270	0.890
2020/01/31 03:18:26.4	94.540	-0.110	-0.300	0.860
2020/01/31 03:18:26.5	94.550	-0.090	-0.330	0.840
2020/01/31 03:18:26.6	94.570	-0.080	-0.360	0.800
2020/01/31 03:18:26.7	94.590	-0.070	-0.380	0.770
2020/01/31 03:18:26.8	94.620	-0.050	-0.390	0.740
2020/01/31 03:18:26.9	94.640	-0.040	-0.410	0.710
2020/01/31 03:18:27.0	94.660	-0.030	-0.420	0.680
2020/01/31 03:18:27.1	94.680	-0.010	-0.440	0.640
2020/01/31 03:18:27.2	94.700	-0.000	-0.440	0.620
2020/01/31 03:18:27.3	94.720	0.010	-0.450	0.590
2020/01/31 03:18:27.4	94.740	0.030	-0.460	0.580
2020/01/31 03:18:27.5	94.760	0.040	-0.460	0.560
2020/01/31 03:18:27.6	94.780	0.050	-0.460	0.550
2020/01/31 03:18:27.7	94.800	0.070	-0.470	0.550
2020/01/31 03:18:27.8	94.820	0.080	-0.470	0.550
2020/01/31 03:18:27.9	94.840	0.100	-0.470	0.550
2020/01/31 03:18:28.0	94.850	0.110	-0.470	0.550
2020/01/31 03:18:28.1	94.870	0.130	-0.480	0.560
2020/01/31 03:18:28.2	94.880	0.150	-0.480	0.570
2020/01/31 03:18:28.3	94.890	0.170	-0.480	0.580
2020/01/31 03:18:28.4	94.900	0.190	-0.490	0.590
2020/01/31 03:18:28.5	94.910	0.210	-0.490	0.610
2020/01/31 03:18:28.6	94.920	0.230	-0.500	0.620
2020/01/31 03:18:28.7	94.920	0.250	-0.500	0.630
2020/01/31 03:18:28.8	94.920	0.270	-0.510	0.650
2020/01/31 03:18:28.9	94.930	0.290	-0.520	0.660
2020/01/31 03:18:29.0	94.930	0.320	-0.530	0.670
2020/01/31 03:18:29.1	94.940	0.340	-0.540	0.680
2020/01/31 03:18:29.2	94.940	0.360	-0.550	0.690
2020/01/31 03:18:29.3	94.930	0.380	-0.560	0.700
2020/01/31 03:18:29.4	94.930	0.400	-0.570	0.720
2020/01/31 03:18:29.5	94.930	0.420	-0.580	0.730
2020/01/31 03:18:29.6	94.920	0.440	-0.590	0.740
2020/01/31 03:18:29.7	94.920	0.460	-0.600	0.760
2020/01/31 03:18:29.8	94.920	0.470	-0.610	0.770
2020/01/31 03:18:29.9	94.910	0.480	-0.620	0.790
2020/01/31 03:18:30.0	94.900	0.500	-0.620	0.800
2020/01/31 03:18:30.1	94.890	0.510	-0.620	0.820
2020/01/31 03:18:30.2	94.880	0.510	-0.620	0.840
2020/01/31 03:18:30.3	94.870	0.520	-0.620	0.860
2020/01/31 03:18:30.4	94.860	0.520	-0.620	0.880
2020/01/31 03:18:30.5	94.850	0.520	-0.610	0.900
2020/01/31 03:18:30.6	94.840	0.510	-0.600	0.920
2020/01/31 03:18:30.7	94.840	0.500	-0.590	0.940
2020/01/31 03:18:30.8	94.830	0.490	-0.570	0.960
2020/01/31 03:18:30.9	94.820	0.470	-0.550	0.980
2020/01/31 03:18:31.0	94.820	0.460	-0.530	1.000
2020/01/31 03:18:31.1	94.810	0.440	-0.510	1.010
2020/01/31 03:18:31.2	94.810	0.410	-0.480	1.020
2020/01/31 03:18:31.3	94.810	0.390	-0.440	1.040
2020/01/31 03:18:31.4	94.800	0.360	-0.410	1.050
2020/01/31 03:18:31.5	94.800	0.330	-0.370	1.050
2020/01/31 03:18:31.6	94.800	0.290	-0.330	1.060
2020/01/31 03:18:31.7	94.800	0.260	-0.290	1.060
2020/01/31 03:18:31.8	94.800	0.220	-0.250	1.060
2020/01/31 03:18:31.9	94.800	0.180	-0.200	1.060
2020/01/31 03:18:32.0	94.800	0.140	-0.150	1.060
2020/01/31 03:18:32.1	94.800	0.100	-0.100	1.050
2020/01/31 03:18:32.2	94.800	0.060	-0.060	1.050
2020/01/31 03:18:32.3	94.800	0.020	-0.010	1.040
2020/01/31 03:18:32.4	94.800	-0.030	0.040	1.030
2020/01/31 03:18:32.5	94.810	-0.070	0.090	1.030
2020/01/31 03:18:32.6	94.810	-0.110	0.130	1.020
2020/01/31 03:18:32.7	94.820	-0.150	0.180	1.010
2020/01/31 03:18:32.8	94.820	-0.190	0.230	1.000
2020/01/31 03:18:32.9	94.830	-0.230	0.270	0.990
2020/01/31 03:18:33.0	94.830	-0.270	0.310	0.980
2020/01/31 03:18:33.1	94.830	-0.310	0.360	0.970
2020/01/31 03:18:33.2	94.840	-0.340	0.400	0.960
2020/01/31 03:18:33.3	94.840	-0.380	0.440	0.950
2020/01/31 03:18:33.4	94.850	-0.410	0.470	0.940
2020/01/31 03:18:33.5	94.860	-0.450	0.510	0.930
2020/01/31 03:18:33.6	94.860	-0.480	0.540	0.920
2020/01/31 03:18:33.7	94.870	-0.510	0.570	0.920
2020/01/31 03:18:33.8	94.870	-0.530	0.590	0.910
2020/01/31 03:18:33.9	94.880	-0.560	0.610	0.900
2020/01/31 03:18:34.0	94.880	-0.580	0.620	0.900
2020/01/31 03:18:34.1	94.900	-0.600	0.630	0.890
2020/01/31 03:18:34.2	94.910	-0.620	0.640	0.890
2020/01/31 03:18:34.3	94.910	-0.630	0.630	0.880
2020/01/31 03:18:34.4	94.920	-0.650	0.630	0.880
2020/01/31 03:18:34.5	94.920	-0.650	0.610	0.870
2020/01/31 03:18:34.6	94.930	-0.660	0.590	0.870
2020/01/31 03:18:34.7	94.940	-0.660	0.560	0.860
2020/01/31 03:18:34.8	94.950	-0.660	0.530	0.850
2020/01/31 03:18:34.9	94.950	-0.660	0.490	0.840
2020/01/31 03:18:35.0	94.960	-0.650	0.440	0.830
2020/01/31 03:18:35.1	94.980	-0.640	0.390	0.810
2020/01/31 03:18:35.2	94.990	-0.620	0.330	0.800
2020/01/31 03:18:35.3	95.010	-0.600	0.260	0.780
2020/01/31 03:18:35.4	95.030	-0.580	0.190	0.750
2020/01/31 03:18:35.5	95.050	-0.560	0.120	0.720
2020/01/31 03:18:35.6	95.070	-0.530	0.040	0.690
2020/01/31 03:18:35.7	95.090	-0.500	-0.040	0.660
2020/01/31 03:18:35.8	95.120	-0.470	-0.120	0.620
2020/01/31 03:18:35.9	95.140	-0.430	-0.210	0.590
2020/01/31 03:18:36.0	95.170	-0.400	-0.290	0.550
2020/01/31 03:18:36.1	95.210	-0.360	-0.380	0.510
2020/01/31 03:18:36.2	95.230	-0.320	-0.460	0.480
2020/01/31 03:18:36.3	95.260	-0.270	-0.540	0.450
2020/01/31 03:18:36.4	95.280	-0.230	-0.610	0.420
2020/01/31 03:18:36.5	95.300	-0.190	-0.690	0.400
2020/01/31 03:18:36.6	95.310	-0.150	-0.750	0.380
2020/01/31 03:18:36.7	95.330	-0.100	-0.810	0.370
2020/01/31 03:18:36.8	95.340	-0.060	-0.860	0.360
2020/01/31 03:18:36.9	95.340	-0.020	-0.910	0.350
2020/01/31 03:18:37.0	95.340	0.020	-0.940	0.350
2020/01/31 03:18:37.1	95.340	0.060	-0.970	0.350
2020/01/31 03:18:37.2	95.340	0.100	-1.000	0.360
2020/01/31 03:18:37.3	95.330	0.130	-1.010	0.370
2020/01/31 03:18:37.4	95.320	0.160	-1.010	0.380
2020/01/31 03:18:37.5	95.310	0.190	-1.010	0.400
2020/01/31 03:18:37.6	95.290	0.220	-1.000	0.420
2020/01/31 03:18:37.7	95.270	0.240	-0.980	0.440
2020/01/31 03:18:37.8	95.250	0.260	-0.960	0.470
2020/01/31 03:18:37.9	95.220	0.280	-0.930	0.490
2020/01/31 03:18:38.0	95.200	0.300	-0.890	0.520
2020/01/31 03:18:38.1	95.180	0.310	-0.840	0.540
2020/01/31 03:18:38.2	95.150	0.320	-0.800	0.560
2020/01/31 03:18:38.3	95.130	0.330	-0.750	0.590
2020/01/31 03:18:38.4	95.100	0.330	-0.700	0.610
2020/01/31 03:18:38.5	95.080	0.330	-0.640	0.630
2020/01/31 03:18:38.6	95.050	0.330	-0.590	0.650
2020/01/31 03:18:38.7	95.030	0.330	-0.540	0.670
2020/01/31 03:18:38.8	95.010	0.320	-0.480	0.680
2020/01/31 03:18:38.9	94.990	0.320	-0.430	0.700
2020/01/31 03:18:39.0	94.970	0.310	-0.380	0.700
2020/01/31 03:18:39.1	94.950	0.300	-0.340	0.710
2020/01/31 03:18:39.2	94.930	0.290	-0.290	0.710
2020/01/31 03:18:39.3	94.920	0.280	-0.250	0.710
2020/01/31 03:18:39.4	94.910	0.270	-0.210	0.710
2020/01/31 03:18:39.5	94.900	0.260	-0.180	0.710
2020/01/31 03:18:39.6	94.890	0.250	-0.150	0.710
2020/01/31 03:18:39.7	94.880	0.240	-0.120	0.700
2020/01/31 03:18:39.8	94.870	0.230	-0.100	0.700
2020/01/31 03:18:39.9	94.870	0.220	-0.080	0.690
2020/01/31 03:18:40.0	94.860	0.220	-0.070	0.680
2020/01/31 03:18:40.1	94.840	0.210	-0.060	0.670
2020/01/31 03:18:40.2	94.840	0.200	-0.050	0.660
2020/01/31 03:18:40.3	94.830	0.200	-0.050	0.660
2020/01/31 03:18:40.4	94.830	0.190	-0.050	0.650
2020/01/31 03:18:40.5	94.830	0.190	-0.060	0.650
2020/01/31 03:18:40.6	94.820	0.180	-0.070	0.640
2020/01/31 03:18:40.7	94.820	0.180	-0.080	0.640
2020/01/31 03:18:40.8	94.820	0.180	-0.100	0.640
2020/01/31 03:18:40.9	94.820	0.180	-0.120	0.630
2020/01/31 03:18:41.0	94.820	0.180	-0.140	0.630
2020/01/31 03:18:41.1	94.830	0.180	-0.160	0.620
2020/01/31 03:18:41.2	94.840	0.180	-0.180	0.620
2020/01/31 03:18:41.3	94.840	0.190	-0.210	0.610
2020/01/31 03:18:41.4	94.850	0.190	-0.230	0.610
2020/01/31 03:18:41.5	94.860	0.190	-0.250	0.610
2020/01/31 03:18:41.6	94.860	0.190	-0.270	0.600
2020/01/31 03:18:41.7	94.870	0.190	-0.280	0.600
2020/01/31 03:18:41.8	94.880	0.190	-0.300	0.590
2020/01/31 03:18:41.9	94.890	0.180	-0.310	0.590
2020/01/31 03:18:42.0	94.900	0.180	-0.310	0.590
2020/01/31 03:18:42.1	94.900	0.170	-0.320	0.580
2020/01/31 03:18:42.2	94.910	0.170	-0.320	0.580
2020/01/31 03:18:42.3	94.920	0.160	-0.310	0.580
2020/01/31 03:18:42.4	94.930	0.150	-0.300	0.580
2020/01/31 03:18:42.5	94.940	0.140	-0.290	0.580
2020/01/31 03:18:42.6	94.940	0.120	-0.270	0.580
2020/01/31 03:18:42.7	94.950	0.110	-0.250	0.590
2020/01/31 03:18:42.8	94.950	0.090	-0.230	0.600
2020/01/31 03:18:42.9	94.960	0.070	-0.200	0.610
2020/01/31 03:18:43.0	94.960	0.050	-0.170	0.620
2020/01/31 03:18:43.1	94.960	0.030	-0.140	0.630
2020/01/31 03:18:43.2	94.960	0.010	-0.110	0.640
2020/01/31 03:18:43.3	94.960	-0.010	-0.080	0.660
2020/01/31 03:18:43.4	94.960	-0.040	-0.040	0.680
2020/01/31 03:18:43.5	94.960	-0.060	-0.010	0.700
2020/01/31 03:18:43.6	94.960	-0.080	0.030	0.720
2020/01/31 03:18:43.7	94.960	-0.100	0.060	0.740
2020/01/31 03:18:43.8	94.960	-0.120	0.090	0.760
2020/01/31 03:18:43.9	94.960	-0.140	0.120	0.790
2020/01/31 03:18:44.0	94.960	-0.160	0.150	0.810
2020/01/31 03:18:44.1	94.960	-0.180	0.170	0.830
2020/01/31 03:18:44.2	94.960	-0.190	0.190	0.850
2020/01/31 03:18:44.3	94.960	-0.210	0.210	0.870
2020/01/31 03:18:44.4	94.960	-0.220	0.220	0.890
2020/01/31 03:18:44.5	94.960	-0.220	0.220	0.900
2020/01/31 03:18:44.6	94.960	-0.230	0.220	0.920
2020/01/31 03:18:44.7	94.960	-0.230	0.220	0.930
2020/01/31 03:18:44.8	94.970	-0.230	0.210	0.940
2020/01/31 03:18:44.9	94.970	-0.230	0.190	0.950
2020/01/31 03:18:45.0	94.970	-0.220	0.170	0.960
2020/01/31 03:18:45.1	94.980	-0.210	0.140	0.970
2020/01/31 03:18:45.2	94.980	-0.200	0.110	0.970
2020/01/31 03:18:45.3	94.990	-0.180	0.080	0.970
2020/01/31 03:18:45.4	94.990	-0.170	0.040	0.980
2020/01/31 03:18:45.5	95.000	-0.150	0.000	0.980
2020/01/31 03:18:45.6	95.000	-0.130	-0.040	0.980
2020/01/31 03:18:45.7	95.010	-0.110	-0.080	0.980
2020/01/31 03:18:45.8	95.010	-0.090	-0.130	0.980
2020/01/31 03:18:45.9	95.010	-0.070	-0.180	0.980
2020/01/31 03:18:46.0	95.020	-0.040	-0.220	0.980
2020/01/31 03:18:46.1	95.000	-0.020	-0.270	0.980
2020/01/31 03:18:46.2	95.000	0.000	-0.320	0.980
2020/01/31 03:18:46.3	95.010	0.020	-0.360	0.980
2020/01/31 03:18:46.4	95.000	0.040	-0.400	0.980
2020/01/31 03:18:46.5	95.000	0.060	-0.440	0.980
2020/01/31 03:18:46.6	95.000	0.080	-0.470	0.980
2020/01/31 03:18:46.7	95.000	0.100	-0.500	0.980
2020/01/31 03:18:46.8	95.000	0.120	-0.530	0.980
2020/01/31 03:18:46.9	95.000	0.130	-0.550	0.970
2020/01/31 03:18:47.0	94.990	0.140	-0.570	0.970
2020/01/31 03:18:47.1	94.990	0.150	-0.590	0.960
2020/01/31 03:18:47.2	94.990	0.160	-0.600	0.960
2020/01/31 03:18:47.3	94.990	0.170	-0.610	0.950
2020/01/31 03:18:47.4	94.990	0.180	-0.610	0.950
2020/01/31 03:18:47.5	94.980	0.180	-0.610	0.940
2020/01/31 03:18:47.6	94.980	0.180	-0.610	0.940
2020/01/31 03:18:47.7	94.980	0.180	-0.610	0.930
2020/01/31 03:18:47.8	94.980	0.190	-0.600	0.920
2020/01/31 03:18:47.9	94.980	0.180	-0.580	0.920
2020/01/31 03:18:48.0	94.980	0.180	-0.570	0.910
2020/01/31 03:18:48.1	94.970	0.180	-0.560	0.900
2020/01/31 03:18:48.2	94.980	0.180	-0.540	0.900
2020/01/31 03:18:48.3	94.980	0.170	-0.520	0.900
2020/01/31 03:18:48.4	94.980	0.170	-0.500	0.890
2020/01/31 03:18:48.5	94.980	0.160	-0.470	0.890
2020/01/31 03:18:48.6	94.980	0.160	-0.450	0.890
2020/01/31 03:18:48.7	94.980	0.150	-0.430	0.890
2020/01/31 03:18:48.8	94.980	0.150	-0.400	0.890
2020/01/31 03:18:48.9	94.980	0.140	-0.380	0.890
2020/01/31 03:18:49.0	94.980	0.130	-0.360	0.900
2020/01/31 03:18:49.1	94.980	0.120	-0.340	0.900
2020/01/31 03:18:49.2	94.980	0.110	-0.320	0.910
2020/01/31 03:18:49.3	94.980	0.100	-0.300	0.910
2020/01/31 03:18:49.4	94.980	0.090	-0.280	0.920
2020/01/31 03:18:49.5	94.980	0.080	-0.260	0.930
2020/01/31 03:18:49.6	94.980	0.070	-0.240	0.940
2020/01/31 03:18:49.7	94.990	0.060	-0.220	0.950
2020/01/31 03:18:49.8	94.990	0.040	-0.200	0.960
2020/01/31 03:18:49.9	94.990	0.030	-0.180	0.970
2020/01/31 03:18:50.0	94.990	0.010	-0.170	0.980
2020/01/31 03:18:50.1	95.000	-0.010	-0.150	0.990
2020/01/31 03:18:50.2	95.000	-0.030	-0.130	1.000
2020/01/31 03:18:50.3	95.000	-0.050	-0.120	1.010
2020/01/31 03:18:50.4	95.010	-0.070	-0.100	1.020
2020/01/31 03:18:50.5	95.010	-0.090	-0.090	1.020
2020/01/31 03:18:50.6	95.020	-0.110	-0.080	1.020
2020/01/31 03:18:50.7	95.020	-0.140	-0.060	1.020
2020/01/31 03:18:50.8	95.030	-0.160	-0.050	1.020
2020/01/31 03:18:50.9	95.030	-0.180	-0.040	1.020
2020/01/31 03:18:51.0	95.040	-0.210	-0.030	1.010
2020/01/31 03:18:51.1	95.070	-0.230	-0.020	0.990
2020/01/31 03:18:51.2	95.080	-0.260	-0.000	0.980
2020/01/31 03:18:51.3	95.090	-0.280	0.010	0.960
2020/01/31 03:18:51.4	95.100	-0.300	0.020	0.940
2020/01/31 03:18:51.5	95.110	-0.330	0.030	0.930
2020/01/31 03:18:51.6	95.120	-0.350	0.050	0.900
2020/01/31 03:18:51.7	95.130	-0.370	0.060	0.880
2020/01/31 03:18:51.8	95.140	-0.390	0.070	0.860
2020/01/31 03:18:51.9	95.160	-0.410	0.080	0.840
2020/01/31 03:18:52.0	95.170	-0.430	0.100	0.820
2020/01/31 03:18:52.1	95.180	-0.440	0.110	0.810
2020/01/31 03:18:52.2	95.200	-0.460	0.130	0.790
2020/01/31 03:18:52.3	95.210	-0.470	0.140	0.770
2020/01/31 03:18:52.4	95.220	-0.480	0.150	0.760
2020/01/31 03:18:52.5	95.230	-0.490	0.170	0.750
2020/01/31 03:18:52.6	95.250	-0.490	0.180	0.740
2020/01/31 03:18:52.7	95.260	-0.500	0.190	0.730
2020/01/31 03:18:52.8	95.270	-0.500	0.200	0.730
2020/01/31 03:18:52.9	95.280	-0.500	0.200	0.730
2020/01/31 03:18:53.0	95.290	-0.500	0.210	0.720
2020/01/31 03:18:53.1	95.300	-0.500	0.210	0.720
2020/01/31 03:18:53.2	95.310	-0.490	0.200	0.720
2020/01/31 03:18:53.3	95.320	-0.480	0.200	0.720
2020/01/31 03:18:53.4	95.330	-0.470	0.190	0.720
2020/01/31 03:18:53.5	95.340	-0.460	0.180	0.720
2020/01/31 03:18:53.6	95.350	-0.440	0.160	0.720
2020/01/31 03:18:53.7	95.360	-0.420	0.140	0.720
2020/01/31 03:18:53.8	95.370	-0.400	0.110	0.720
2020/01/31 03:18:53.9	95.370	-0.380	0.080	0.720
2020/01/31 03:18:54.0	95.380	-0.350	0.050	0.720
2020/01/31 03:18:54.1	95.380	-0.330	0.010	0.710
2020/01/31 03:18:54.2	95.390	-0.300	-0.040	0.710
2020/01/31 03:18:54.3	95.390	-0.260	-0.090	0.700
2020/01/31 03:18:54.4	95.390	-0.230	-0.140	0.690
2020/01/31 03:18:54.5	95.390	-0.190	-0.190	0.680
2020/01/31 03:18:54.6	95.390	-0.160	-0.250	0.670
2020/01/31 03:18:54.7	95.390	-0.120	-0.300	0.660
2020/01/31 03:18:54.8	95.390	-0.070	-0.370	0.650
2020/01/31 03:18:54.9	95.380	-0.030	-0.430	0.640
2020/01/31 03:18:55.0	95.380	0.010	-0.490	0.630
2020/01/31 03:18:55.1	95.360	0.060	-0.550	0.620
2020/01/31 03:18:55.2	95.350	0.100	-0.610	0.610
2020/01/31 03:18:55.3	95.340	0.150	-0.670	0.600
2020/01/31 03:18:55.4	95.330	0.200	-0.730	0.600
2020/01/31 03:18:55.5	95.310	0.250	-0.780	0.600
2020/01/31 03:18:55.6	95.290	0.290	-0.840	0.600
2020/01/31 03:18:55.7	95.280	0.340	-0.890	0.600
2020/01/31 03:18:55.8	95.260	0.390	-0.930	0.600
2020/01/31 03:18:55.9	95.240	0.430	-0.980	0.600
2020/01/31 03:18:56.0	95.220	0.480	-1.010	0.610
2020/01/31 03:18:56.1	95.200	0.520	-1.040	0.610
2020/01/31 03:18:56.2	95.180	0.560	-1.070	0.610
2020/01/31 03:18:56.3	95.160	0.600	-1.090	0.610
2020/01/31 03:18:56.4	95.150	0.640	-1.100	0.610
2020/01/31 03:18:56.5	95.140	0.670	-1.110	0.610
2020/01/31 03:18:56.6	95.130	0.700	-1.110	0.600
2020/01/31 03:18:56.7	95.120	0.730	-1.110	0.600
2020/01/31 03:18:56.8	95.110	0.760	-1.100	0.590
2020/01/31 03:18:56.9	95.110	0.780	-1.080	0.590
2020/01/31 03:18:57.0	95.100	0.800	-1.050	0.580
2020/01/31 03:18:57.1	95.120	0.810	-1.020	0.570
2020/01/31 03:18:57.2	95.120	0.820	-0.980	0.560
2020/01/31 03:18:57.3	95.120	0.830	-0.940	0.550
2020/01/31 03:18:57.4	95.120	0.830	-0.890	0.540
2020/01/31 03:18:57.5	95.130	0.830	-0.840	0.540
2020/01/31 03:18:57.6	95.130	0.830	-0.780	0.530
2020/01/31 03:18:57.7	95.130	0.820	-0.720	0.530
2020/01/31 03:18:57.8	95.130	0.810	-0.660	0.530
2020/01/31 03:18:57.9	95.130	0.790	-0.590	0.530
2020/01/31 03:18:58.0	95.140	0.770	-0.520	0.540
2020/01/31 03:18:58.1	95.130	0.750	-0.450	0.540
2020/01/31 03:18:58.2	95.130	0.730	-0.380	0.560
2020/01/31 03:18:58.3	95.140	0.700	-0.310	0.570
2020/01/31 03:18:58.4	95.140	0.670	-0.230	0.590
2020/01/31 03:18:58.5	95.140	0.640	-0.160	0.610
2020/01/31 03:18:58.6	95.140	0.600	-0.090	0.640
2020/01/31 03:18:58.7	95.140	0.560	-0.020	0.660
2020/01/31 03:18:58.8	95.140	0.520	0.040	0.690
2020/01/31 03:18:58.9	95.140	0.480	0.110	0.720
2020/01/31 03:18:59.0	95.150	0.440	0.170	0.750
2020/01/31 03:18:59.1	95.150	0.390	0.230	0.780
2020/01/31 03:18:59.2	95.150	0.340	0.290	0.820
2020/01/31 03:18:59.3	95.150	0.300	0.340	0.850
2020/01/31 03:18:59.4	95.160	0.250	0.400	0.880
2020/01/31 03:18:59.5	95.160	0.200	0.440	0.920
2020/01/31 03:18:59.6	95.160	0.140	0.490	0.950
2020/01/31 03:18:59.7	95.170	0.090	0.530	0.980
2020/01/31 03:18:59.8	95.180	0.040	0.560	1.010
2020/01/31 03:18:59.9	95.180	-0.010	0.590	1.040
2020/01/31 03:19:00.0	95.200	-0.060	0.620	1.060
2020/01/31 03:19:00.1	95.200	-0.110	0.640	1.090
2020/01/31 03:19:00.2	95.210	-0.160	0.650	1.110
2020/01/31 03:19:00.3	95.220	-0.210	0.660	1.140
2020/01/31 03:19:00.4	95.220	-0.260	0.660	1.160
2020/01/31 03:19:00.5	95.230	-0.300	0.650	1.180
2020/01/31 03:19:00.6	95.240	-0.340	0.640	1.210
2020/01/31 03:19:00.7	95.240	-0.390	0.630	1.230
2020/01/31 03:19:00.8	95.250	-0.420	0.600	1.250
2020/01/31 03:19:00.9	95.260	-0.460	0.570	1.270
2020/01/31 03:19:01.0	95.260	-0.490	0.540	1.280
2020/01/31 03:19:01.1	95.270	-0.520	0.500	1.300
2020/01/31 03:19:01.2	95.270	-0.550	0.460	1.320
2020/01/31 03:19:01.3	95.280	-0.570	0.410	1.330
2020/01/31 03:19:01.4	95.290	-0.590	0.370	1.350
2020/01/31 03:19:01.5	95.290	-0.610	0.320	1.360
2020/01/31 03:19:01.6	95.300	-0.630	0.260	1.370
2020/01/31 03:19:01.7	95.300	-0.640	0.210	1.380
2020/01/31 03:19:01.8	95.310	-0.650	0.160	1.400
2020/01/31 03:19:01.9	95.310	-0.650	0.100	1.410
2020/01/31 03:19:02.0	95.320	-0.660	0.050	1.410
2020/01/31 03:19:02.1	95.310	-0.660	-0.010	1.410
2020/01/31 03:19:02.2	95.320	-0.660	-0.060	1.420
2020/01/31 03:19:02.3	95.320	-0.650	-0.110	1.420
2020/01/31 03:19:02.4	95.320	-0.650	-0.160	1.430
2020/01/31 03:19:02.5	95.330	-0.640	-0.210	1.430
2020/01/31 03:19:02.6	95.330	-0.630	-0.260	1.420
2020/01/31 03:19:02.7	95.330	-0.610	-0.310	1.420
2020/01/31 03:19:02.8	95.330	-0.600	-0.360	1.410
2020/01/31 03:19:02.9	95.330	-0.580	-0.400	1.400
2020/01/31 03:19:03.0	95.330	-0.560	-0.440	1.390
2020/01/31 03:19:03.1	95.340	-0.540	-0.480	1.380
2020/01/31 03:19:03.2	95.340	-0.510	-0.520	1.360
2020/01/31 03:19:03.3	95.340	-0.490	-0.550	1.340
2020/01/31 03:19:03.4	95.350	-0.460	-0.590	1.320
2020/01/31 03:19:03.5	95.350	-0.430	-0.620	1.300
2020/01/31 03:19:03.6	95.360	-0.400	-0.650	1.280
2020/01/31 03:19:03.7	95.360	-0.370	-0.670	1.250
2020/01/31 03:19:03.8	95.370	-0.340	-0.690	1.220
2020/01/31 03:19:03.9	95.380	-0.310	-0.710	1.200
2020/01/31 03:19:04.0	95.390	-0.270	-0.730	1.170
2020/01/31 03:19:04.1	95.400	-0.240	-0.740	1.130
2020/01/31 03:19:04.2	95.410	-0.210	-0.750	1.100
2020/01/31 03:19:04.3	95.420	-0.180	-0.760	1.070
2020/01/31 03:19:04.4	95.430	-0.140	-0.760	1.040
2020/01/31 03:19:04.5	95.440	-0.110	-0.760	1.010
2020/01/31 03:19:04.6	95.450	-0.080	-0.750	0.980
2020/01/31 03:19:04.7	95.460	-0.050	-0.740	0.950
2020/01/31 03:19:04.8	95.470	-0.020	-0.730	0.920
2020/01/31 03:19:04.9	95.480	0.000	-0.710	0.890
2020/01/31 03:19:05.0	95.490	0.030	-0.690	0.870
2020/01/31 03:19:05.1	95.480	0.050	-0.660	0.840
2020/01/31 03:19:05.2	95.490	0.080	-0.640	0.820
2020/01/31 03:19:05.3	95.490	0.100	-0.610	0.790
2020/01/31 03:19:05.4	95.490	0.120	-0.570	0.770
2020/01/31 03:19:05.5	95.490	0.140	-0.540	0.750
2020/01/31 03:19:05.6	95.490	0.150	-0.500	0.740
2020/01/31 03:19:05.7	95.480	0.170	-0.450	0.720
2020/01/31 03:19:05.8	95.480	0.180	-0.410	0.700
2020/01/31 03:19:05.9	95.470	0.190	-0.370	0.690
2020/01/31 03:19:06.0	95.430	0.200	-0.320	0.670
2020/01/31 03:19:06.1	95.420	0.200	-0.270	0.650
2020/01/31 03:19:06.2	95.400	0.210	-0.220	0.640
2020/01/31 03:19:06.3	95.390	0.210	-0.170	0.620
2020/01/31 03:19:06.4	95.380	0.210	-0.120	0.600
2020/01/31 03:19:06.5	95.360	0.210	-0.080	0.590
2020/01/31 03:19:06.6	95.350	0.210	-0.030	0.570
2020/01/31 03:19:06.7	95.330	0.210	0.010	0.550
2020/01/31 03:19:06.8	95.320	0.200	0.050	0.530
2020/01/31 03:19:06.9	95.310	0.190	0.090	0.510
2020/01/31 03:19:07.0	95.300	0.190	0.120	0.490
2020/01/31 03:19:07.1	95.300	0.180	0.150	0.470
2020/01/31 03:19:07.2	95.290	0.170	0.170	0.450
2020/01/31 03:19:07.3	95.280	0.160	0.190	0.430
2020/01/31 03:19:07.4	95.270	0.160	0.200	0.410
2020/01/31 03:19:07.5	95.270	0.150	0.210	0.390
2020/01/31 03:19:07.6	95.260	0.140	0.200	0.380
2020/01/31 03:19:07.7	95.260	0.140	0.190	0.360
2020/01/31 03:19:07.8	95.250	0.130	0.180	0.350
2020/01/31 03:19:07.9	95.250	0.130	0.150	0.340
2020/01/31 03:19:08.0	95.250	0.130	0.120	0.330
2020/01/31 03:19:08.1	95.240	0.130	0.080	0.320
2020/01/31 03:19:08.2	95.240	0.130	0.040	0.310
2020/01/31 03:19:08.3	95.230	0.140	-0.020	0.310
2020/01/31 03:19:08.4	95.230	0.150	-0.080	0.310
2020/01/31 03:19:08.5	95.230	0.160	-0.140	0.310
2020/01/31 03:19:08.6	95.220	0.170	-0.210	0.310
2020/01/31 03:19:08.7	95.220	0.180	-0.280	0.320
2020/01/31 03:19:08.8	95.210	0.200	-0.360	0.320
2020/01/31 03:19:08.9	95.210	0.210	-0.440	0.330
2020/01/31 03:19:09.0	95.200	0.230	-0.510	0.340
2020/01/31 03:19:09.1	95.180	0.250	-0.590	0.350
2020/01/31 03:19:09.2	95.180	0.270	-0.660	0.370
2020/01/31 03:19:09.3	95.170	0.290	-0.730	0.380
2020/01/31 03:19:09.4	95.160	0.300	-0.790	0.400
2020/01/31 03:19:09.5	95.150	0.320	-0.850	0.420
2020/01/31 03:19:09.6	95.140	0.340	-0.890	0.440
2020/01/31 03:19:09.7	95.130	0.350	-0.930	0.460
2020/01/31 03:19:09.8	95.120	0.360	-0.960	0.480
2020/01/31 03:19:09.9	95.110	0.370	-0.970	0.510
2020/01/31 03:19:10.0	95.100	0.370	-0.980	0.530
2020/01/31 03:19:10.1	95.090	0.370	-0.980	0.560
2020/01/31 03:19:10.2	95.080	0.370	-0.960	0.590
2020/01/31 03:19:10.3	95.070	0.370	-0.940	0.620
2020/01/31 03:19:10.4	95.060	0.360	-0.900	0.650
2020/01/31 03:19:10.5	95.050	0.340	-0.850	0.690
2020/01/31 03:19:10.6	95.050	0.320	-0.800	0.720
2020/01/31 03:19:10.7	95.040	0.300	-0.740	0.760
2020/01/31 03:19:10.8	95.030	0.270	-0.670	0.800
2020/01/31 03:19:10.9	95.020	0.240	-0.590	0.840
2020/01/31 03:19:11.0	95.020	0.210	-0.510	0.880
2020/01/31 03:19:11.1	95.010	0.170	-0.420	0.920
2020/01/31 03:19:11.2	95.010	0.130	-0.330	0.960
2020/01/31 03:19:11.3	95.000	0.090	-0.240	1.000
2020/01/31 03:19:11.4	95.000	0.040	-0.150	1.040
2020/01/31 03:19:11.5	94.990	-0.000	-0.070	1.080
2020/01/31 03:19:11.6	94.990	-0.050	0.020	1.120
2020/01/31 03:19:11.7	94.980	-0.100	0.110	1.150
2020/01/31 03:19:11.8	94.980	-0.150	0.180	1.190
2020/01/31 03:19:11.9	94.970	-0.200	0.260	1.220
2020/01/31 03:19:12.0	94.970	-0.250	0.330	1.250
2020/01/31 03:19:12.1	94.980	-0.290	0.390	1.280
2020/01/31 03:19:12.2	94.970	-0.340	0.440	1.310
2020/01/31 03:19:12.3	94.960	-0.380	0.490	1.330
2020/01/31 03:19:12.4	94.960	-0.420	0.520	1.350
2020/01/31 03:19:12.5	94.950	-0.460	0.550	1.370
2020/01/31 03:19:12.6	94.950	-0.490	0.560	1.380
2020/01/31 03:19:12.7	94.940	-0.510	0.570	1.390
2020/01/31 03:19:12.8	94.930	-0.540	0.560	1.400
2020/01/31 03:19:12.9	94.920	-0.550	0.550	1.400
2020/01/31 03:19:13.0	94.920	-0.570	0.530	1.410
2020/01/31 03:19:13.1	94.910	-0.570	0.500	1.400
2020/01/31 03:19:13.2	94.900	-0.580	0.460	1.400
2020/01/31 03:19:13.3	94.900	-0.570	0.410	1.390
2020/01/31 03:19:13.4	94.890	-0.560	0.360	1.380
2020/01/31 03:19:13.5	94.890	-0.550	0.310	1.370
2020/01/31 03:19:13.6	94.890	-0.530	0.250	1.360
2020/01/31 03:19:13.7	94.890	-0.510	0.180	1.350
2020/01/31 03:19:13.8	94.890	-0.490	0.120	1.330
2020/01/31 03:19:13.9	94.900	-0.460	0.050	1.310
2020/01/31 03:19:14.0	94.900	-0.430	-0.020	1.290
2020/01/31 03:19:14.1	94.910	-0.390	-0.080	1.270
2020/01/31 03:19:14.2	94.920	-0.360	-0.150	1.250
2020/01/31 03:19:14.3	94.930	-0.320	-0.210	1.220
2020/01/31 03:19:14.4	94.950	-0.280	-0.270	1.200
2020/01/31 03:19:14.5	94.970	-0.240	-0.330	1.180
2020/01/31 03:19:14.6	94.990	-0.200	-0.380	1.160
2020/01/31 03:19:14.7	95.010	-0.150	-0.430	1.140
2020/01/31 03:19:14.8	95.030	-0.110	-0.470	1.120
2020/01/31 03:19:14.9	95.050	-0.070	-0.510	1.100
2020/01/31 03:19:15.0	95.070	-0.030	-0.550	1.080
2020/01/31 03:19:15.1	95.090	0.000	-0.570	1.070
2020/01/31 03:19:15.2	95.110	0.040	-0.600	1.050
2020/01/31 03:19:15.3	95.130	0.080	-0.610	1.030
2020/01/31 03:19:15.4	95.160	0.110	-0.630	1.010
2020/01/31 03:19:15.5	95.180	0.140	-0.630	0.990
2020/01/31 03:19:15.6	95.200	0.170	-0.630	0.980
2020/01/31 03:19:15.7	95.220	0.200	-0.630	0.960
2020/01/31 03:19:15.8	95.240	0.220	-0.620	0.940
2020/01/31 03:19:15.9	95.260	0.240	-0.610	0.920
2020/01/31 03:19:16.0	95.260	0.260	-0.590	0.890
2020/01/31 03:19:16.1	95.280	0.280	-0.570	0.870
2020/01/31 03:19:16.2	95.290	0.290	-0.540	0.850
2020/01/31 03:19:16.3	95.300	0.310	-0.510	0.820
2020/01/31 03:19:16.4	95.310	0.320	-0.480	0.800
2020/01/31 03:19:16.5	95.320	0.330	-0.450	0.770
2020/01/31 03:19:16.6	95.320	0.330	-0.410	0.750
2020/01/31 03:19:16.7	95.320	0.340	-0.370	0.720
2020/01/31 03:19:16.8	95.320	0.340	-0.340	0.700
2020/01/31 03:19:16.9	95.320	0.340	-0.300	0.670
2020/01/31 03:19:17.0	95.320	0.340	-0.260	0.650
2020/01/31 03:19:17.1	95.330	0.340	-0.220	0.630
2020/01/31 03:19:17.2	95.320	0.330	-0.190	0.610
2020/01/31 03:19:17.3	95.310	0.330	-0.160	0.600
2020/01/31 03:19:17.4	95.300	0.320	-0.120	0.590
2020/01/31 03:19:17.5	95.290	0.320	-0.090	0.580
2020/01/31 03:19:17.6	95.280	0.310	-0.070	0.570
2020/01/31 03:19:17.7	95.270	0.300	-0.050	0.570
2020/01/31 03:19:17.8	95.260	0.300	-0.030	0.570
2020/01/31 03:19:17.9	95.240	0.290	-0.010	0.580
2020/01/31 03:19:18.0	95.230	0.280	-0.000	0.590
2020/01/31 03:19:18.1	95.220	0.270	0.010	0.610
2020/01/31 03:19:18.2	95.200	0.250	0.010	0.630
2020/01/31 03:19:18.3	95.180	0.240	0.020	0.650
2020/01/31 03:19:18.4	95.170	0.230	0.020	0.680
2020/01/31 03:19:18.5	95.150	0.210	0.020	0.700
2020/01/31 03:19:18.6	95.130	0.200	0.020	0.730
2020/01/31 03:19:18.7	95.110	0.180	0.010	0.760
2020/01/31 03:19:18.8	95.100	0.160	0.010	0.790
2020/01/31 03:19:18.9	95.080	0.140	0.010	0.810
2020/01/31 03:19:19.0	95.070	0.120	0.000	0.840
2020/01/31 03:19:19.1	95.050	0.100	0.000	0.860
2020/01/31 03:19:19.2	95.040	0.070	-0.000	0.880
2020/01/31 03:19:19.3	95.030	0.050	-0.000	0.890
2020/01/31 03:19:19.4	95.020	0.020	-0.010	0.900
2020/01/31 03:19:19.5	95.010	-0.010	-0.010	0.910
2020/01/31 03:19:19.6	95.010	-0.040	-0.010	0.920
2020/01/31 03:19:19.7	95.000	-0.070	-0.020	0.910
2020/01/31 03:19:19.8	95.000	-0.090	-0.020	0.910
2020/01/31 03:19:19.9	95.000	-0.120	-0.020	0.900
2020/01/31 03:19:20.0	95.000	-0.150	-0.030	0.890
2020/01/31 03:19:20.1	95.010	-0.180	-0.030	0.870
2020/01/31 03:19:20.2	95.010	-0.210	-0.030	0.850
2020/01/31 03:19:20.3	95.020	-0.230	-0.040	0.830
2020/01/31 03:19:20.4	95.020	-0.250	-0.040	0.810
2020/01/31 03:19:20.5	95.030	-0.280	-0.050	0.790
2020/01/31 03:19:20.6	95.040	-0.290	-0.060	0.760
2020/01/31 03:19:20.7	95.050	-0.310	-0.070	0.740
2020/01/31 03:19:20.8	95.050	-0.320	-0.080	0.720
2020/01/31 03:19:20.9	95.060	-0.330	-0.090	0.700
2020/01/31 03:19:21.0	95.070	-0.340	-0.110	0.680
2020/01/31 03:19:21.1	95.060	-0.350	-0.130	0.660
2020/01/31 03:19:21.2	95.070	-0.350	-0.150	0.640
2020/01/31 03:19:21.3	95.070	-0.340	-0.180	0.630
2020/01/31 03:19:21.4	95.080	-0.340	-0.200	0.630
2020/01/31 03:19:21.5	95.080	-0.330	-0.230	0.620
2020/01/31 03:19:21.6	95.090	-0.310	-0.270	0.630
2020/01/31 03:19:21.7	95.090	-0.290	-0.300	0.630
2020/01/31 03:19:21.8	95.090	-0.270	-0.340	0.640
2020/01/31 03:19:21.9	95.090	-0.250	-0.380	0.650
2020/01/31 03:19:22.0	95.100	-0.220	-0.420	0.670
2020/01/31 03:19:22.1	95.100	-0.200	-0.470	0.680
2020/01/31 03:19:22.2	95.100	-0.170	-0.510	0.700
2020/01/31 03:19:22.3	95.100	-0.130	-0.560	0.730
2020/01/31 03:19:22.4	95.110	-0.100	-0.610	0.750
2020/01/31 03:19:22.5	95.110	-0.060	-0.650	0.780
2020/01/31 03:19:22.6	95.110	-0.030	-0.700	0.810
2020/01/31 03:19:22.7	95.110	0.010	-0.740	0.840
2020/01/31 03:19:22.8	95.110	0.040	-0.780	0.870
2020/01/31 03:19:22.9	95.120	0.080	-0.820	0.900
2020/01/31 03:19:23.0	95.120	0.110	-0.860	0.930
2020/01/31 03:19:23.1	95.130	0.140	-0.890	0.960
2020/01/31 03:19:23.2	95.130	0.170	-0.910	0.980
2020/01/31 03:19:23.3	95.130	0.200	-0.930	1.010
2020/01/31 03:19:23.4	95.130	0.220	-0.950	1.030
2020/01/31 03:19:23.5	95.140	0.250	-0.960	1.050
2020/01/31 03:19:23.6	95.140	0.270	-0.960	1.070
2020/01/31 03:19:23.7	95.140	0.280	-0.950	1.090
2020/01/31 03:19:23.8	95.140	0.290	-0.940	1.110
2020/01/31 03:19:23.9	95.140	0.300	-0.920	1.130
2020/01/31 03:19:24.0	95.140	0.310	-0.890	1.140
2020/01/31 03:19:24.1	95.140	0.310	-0.860	1.150
2020/01/31 03:19:24.2	95.130	0.310	-0.820	1.170
2020/01/31 03:19:24.3	95.130	0.300	-0.770	1.180
2020/01/31 03:19:24.4	95.120	0.290	-0.710	1.190
2020/01/31 03:19:24.5	95.110	0.280	-0.650	1.200
2020/01/31 03:19:24.6	95.100	0.260	-0.590	1.210
2020/01/31 03:19:24.7	95.080	0.240	-0.510	1.220
2020/01/31 03:19:24.8	95.070	0.220	-0.440	1.230
2020/01/31 03:19:24.9	95.050	0.190	-0.360	1.240
2020/01/31 03:19:25.0	95.030	0.170	-0.270	1.250
2020/01/31 03:19:25.1	95.010	0.140	-0.190	1.250
2020/01/31 03:19:25.2				
2020/01/31 03:19:25.3	94.990	0.110	-0.100	1.260
2020/01/31 03:19:25.4	94.950	0.040	0.070	1.270
2020/01/31 03:19:25.5	94.920	0.010	0.160	1.270
2020/01/31 03:19:25.6	94.900	-0.020	0.240	1.270
2020/01/31 03:19:25.7	94.870	-0.060	0.320	1.270
2020/01/31 03:19:25.8	94.850	-0.090	0.390	1.260
2020/01/31 03:19:25.9	94.830	-0.120	0.460	1.250
2020/01/31 03:19:26.0	94.810	-0.160	0.520	1.240
2020/01/31 03:19:26.1	94.810	-0.190	0.570	1.220
2020/01/31 03:19:26.2	94.790	-0.210	0.620	1.200
2020/01/31 03:19:26.3	94.770	-0.240	0.650	1.170
2020/01/31 03:19:26.4	94.760	-0.260	0.680	1.140
2020/01/31 03:19:26.5	94.750	-0.280	0.690	1.110
2020/01/31 03:19:26.6	94.740	-0.290	0.690	1.070
2020/01/31 03:19:26.7	94.740	-0.300	0.690	1.030
2020/01/31 03:19:26.8	94.740	-0.310	0.670	0.980
2020/01/31 03:19:26.9	94.740	-0.310	0.640	0.940
2020/01/31 03:19:27.0	94.750	-0.310	0.600	0.880
2020/01/31 03:19:27.1	94.740	-0.300	0.560	0.830
2020/01/31 03:19:27.2	94.740	-0.300	0.500	0.770
2020/01/31 03:19:27.3	94.760	-0.280	0.440	0.720
2020/01/31 03:19:27.4	94.770	-0.260	0.360	0.660
2020/01/31 03:19:27.5	94.780	-0.240	0.290	0.610
2020/01/31 03:19:27.6	94.800	-0.220	0.200	0.550
2020/01/31 03:19:27.7	94.820	-0.190	0.110	0.500
2020/01/31 03:19:27.8	94.830	-0.160	0.020	0.450
2020/01/31 03:19:27.9	94.850	-0.130	-0.070	0.410
2020/01/31 03:19:28.0	94.870	-0.090	-0.170	0.370
2020/01/31 03:19:28.1	94.880	-0.050	-0.270	0.330
2020/01/31 03:19:28.2	94.900	-0.010	-0.360	0.300
2020/01/31 03:19:28.3	94.920	0.030	-0.450	0.270
2020/01/31 03:19:28.4	94.940	0.070	-0.540	0.250
2020/01/31 03:19:28.5	94.950	0.110	-0.620	0.230
2020/01/31 03:19:28.6	94.970	0.150	-0.690	0.220
2020/01/31 03:19:28.7	94.990	0.190	-0.760	0.210
2020/01/31 03:19:28.8	95.000	0.230	-0.820	0.210
2020/01/31 03:19:28.9	95.020	0.270	-0.870	0.210
2020/01/31 03:19:29.0	95.040	0.300	-0.920	0.210
2020/01/31 03:19:29.1	95.040	0.330	-0.950	0.220
2020/01/31 03:19:29.2	95.060	0.360	-0.980	0.230
2020/01/31 03:19:29.3	95.080	0.380	-0.990	0.240
2020/01/31 03:19:29.4				
2020/01/31 03:19:29.5	95.100	0.400	-0.990	0.250
2020/01/31 03:19:29.6	95.130	0.430	-0.970	0.290
2020/01/31 03:19:29.7	95.150	0.430	-0.940	0.310
2020/01/31 03:19:29.8	95.160	0.430	-0.910	0.340
2020/01/31 03:19:29.9	95.170	0.430	-0.860	0.370
2020/01/31 03:19:30.0	95.190	0.420	-0.810	0.400
2020/01/31 03:19:30.1	95.180	0.400	-0.750	0.430
2020/01/31 03:19:30.2	95.190	0.380	-0.690	0.470
2020/01/31 03:19:30.3	95.200	0.350	-0.610	0.510
2020/01/31 03:19:30.4	95.200	0.320	-0.540	0.550
2020/01/31 03:19:30.5	95.200	0.290	-0.460	0.590
2020/01/31 03:19:30.6	95.200	0.250	-0.380	0.640
2020/01/31 03:19:30.7	95.190	0.200	-0.300	0.690
2020/01/31 03:19:30.8	95.180	0.160	-0.210	0.740
2020/01/31 03:19:30.9	95.170	0.110	-0.130	0.790
2020/01/31 03:19:31.0	95.150	0.060	-0.040	0.840
2020/01/31 03:19:31.1	95.130	0.000	0.040	0.890
2020/01/31 03:19:31.2	95.110	-0.050	0.110	0.940
2020/01/31 03:19:31.3	95.080	-0.100	0.190	0.990
2020/01/31 03:19:31.4	95.050	-0.160	0.260	1.040
2020/01/31 03:19:31.5				
2020/01/31 03:19:31.6	95.020	-0.210	0.320	1.090
2020/01/31 03:19:31.7	94.950	-0.320	0.430	1.180
2020/01/31 03:19:31.8	94.920	-0.370	0.470	1.220
2020/01/31 03:19:31.9	94.880	-0.410	0.510	1.250
2020/01/31 03:19:32.0	94.850	-0.460	0.540	1.280
2020/01/31 03:19:32.1	94.820	-0.500	0.570	1.310
2020/01/31 03:19:32.2	94.790	-0.540	0.580	1.330
2020/01/31 03:19:32.3	94.760	-0.570	0.590	1.340
2020/01/31 03:19:32.4	94.730	-0.600	0.590	1.350
2020/01/31 03:19:32.5	94.700	-0.620	0.580	1.350
2020/01/31 03:19:32.6	94.680	-0.640	0.570	1.350
2020/01/31 03:19:32.7	94.660	-0.650	0.550	1.340
2020/01/31 03:19:32.8	94.650	-0.660	0.520	1.330
2020/01/31 03:19:32.9	94.630	-0.660	0.480	1.310
2020/01/31 03:19:33.0	94.620	-0.660	0.450	1.290
2020/01/31 03:19:33.1	94.620	-0.660	0.400	1.260
2020/01/31 03:19:33.2	94.610	-0.640	0.350	1.240
2020/01/31 03:19:33.3	94.610	-0.630	0.300	1.210
2020/01/31 03:19:33.4	94.620	-0.610	0.240	1.180
2020/01/31 03:19:33.5	94.620	-0.580	0.180	1.150
2020/01/31 03:19:33.6				
2020/01/31 03:19:33.7	94.630	-0.550	0.120	1.130
2020/01/31 03:19:33.8	94.650	-0.480	-0.000	1.070
2020/01/31 03:19:33.9	94.660	-0.440	-0.070	1.040
2020/01/31 03:19:34.0	94.670	-0.400	-0.140	1.010
2020/01/31 03:19:34.1	94.670	-0.350	-0.210	0.980
2020/01/31 03:19:34.2	94.690	-0.300	-0.280	0.950
2020/01/31 03:19:34.3	94.700	-0.250	-0.340	0.920
2020/01/31 03:19:34.4	94.720	-0.200	-0.410	0.890
2020/01/31 03:19:34.5	94.730	-0.150	-0.480	0.850
2020/01/31 03:19:34.6	94.740	-0.090	-0.550	0.820
2020/01/31 03:19:34.7	94.760	-0.040	-0.610	0.780
2020/01/31 03:19:34.8	94.770	0.020	-0.680	0.740
2020/01/31 03:19:34.9	94.780	0.070	-0.740	0.700
2020/01/31 03:19:35.0	94.790	0.130	-0.800	0.650
2020/01/31 03:19:35.1	94.810	0.180	-0.850	0.610
2020/01/31 03:19:35.2	94.810	0.230	-0.910	0.560
2020/01/31 03:19:35.3	94.820	0.280	-0.960	0.510
2020/01/31 03:19:35.4	94.830	0.330	-1.000	0.470
2020/01/31 03:19:35.5	94.840	0.380	-1.040	0.420
2020/01/31 03:19:35.6	94.840	0.420	-1.080	0.380
2020/01/31 03:19:35.7	94.850	0.460	-1.100	0.340
2020/01/31 03:19:35.8	94.850	0.500	-1.130	0.310
2020/01/31 03:19:35.9	94.850	0.540	-1.140	0.280
2020/01/31 03:19:36.0	94.850	0.570	-1.150	0.250
2020/01/31 03:19:36.1	94.860	0.600	-1.150	0.230
2020/01/31 03:19:36.2	94.860	0.620	-1.140	0.220
2020/01/31 03:19:36.3	94.860	0.640	-1.120	0.220
2020/01/31 03:19:36.4	94.850	0.660	-1.100	0.220
2020/01/31 03:19:36.5	94.850	0.680	-1.070	0.230
2020/01/31 03:19:36.6	94.850	0.690	-1.040	0.250
2020/01/31 03:19:36.7	94.850	0.690	-1.000	0.280
2020/01/31 03:19:36.8	94.840	0.690	-0.950	0.310
2020/01/31 03:19:36.9	94.840	0.690	-0.900	0.350
2020/01/31 03:19:37.0	94.830	0.680	-0.840	0.400
2020/01/31 03:19:37.1	94.820	0.670	-0.780	0.440
2020/01/31 03:19:37.2	94.820	0.660	-0.720	0.500
2020/01/31 03:19:37.3	94.820	0.640	-0.650	0.550
2020/01/31 03:19:37.4	94.820	0.620	-0.580	0.610
2020/01/31 03:19:37.5	94.820	0.600	-0.500	0.670
2020/01/31 03:19:37.6	94.820	0.570	-0.430	0.720
2020/01/31 03:19:37.7	94.820	0.540	-0.360	0.780
2020/01/31 03:19:37.8	94.820	0.510	-0.290	0.840
2020/01/31 03:19:37.9	94.820	0.470	-0.220	0.890
2020/01/31 03:19:38.0	94.820	0.440	-0.150	0.940
2020/01/31 03:19:38.1	94.810	0.400	-0.070	0.990
2020/01/31 03:19:38.2	94.810	0.360	-0.010	1.040
2020/01/31 03:19:38.3	94.810	0.320	0.050	1.080
2020/01/31 03:19:38.4	94.800	0.280	0.110	1.120
2020/01/31 03:19:38.5	94.800	0.230	0.170	1.150
2020/01/31 03:19:38.6	94.790	0.190	0.220	1.180
2020/01/31 03:19:38.7	94.780	0.150	0.270	1.210
2020/01/31 03:19:38.8	94.770	0.100	0.320	1.230
2020/01/31 03:19:38.9	94.760	0.060	0.360	1.240
2020/01/31 03:19:39.0	94.750	0.010	0.400	1.250
2020/01/31 03:19:39.1	94.730	-0.030	0.440	1.250
2020/01/31 03:19:39.2	94.720	-0.070	0.470	1.250
2020/01/31 03:19:39.3	94.710	-0.120	0.490	1.250
2020/01/31 03:19:39.4	94.700	-0.160	0.520	1.250
2020/01/31 03:19:39.5	94.690	-0.200	0.540	1.240
2020/01/31 03:19:39.6	94.680	-0.240	0.560	1.230
2020/01/31 03:19:39.7	94.670	-0.270	0.570	1.220
2020/01/31 03:19:39.8	94.660	-0.310	0.580	1.220
2020/01/31 03:19:39.9				
2020/01/31 03:19:40.0	94.650	-0.340	0.580	1.210
2020/01/31 03:19:40.1	94.630	-0.390	0.570	1.180
2020/01/31 03:19:40.2	94.620	-0.420	0.560	1.170
2020/01/31 03:19:40.3	94.620	-0.440	0.540	1.170
2020/01/31 03:19:40.4	94.610	-0.460	0.520	1.160
2020/01/31 03:19:40.5	94.610	-0.470	0.490	1.150
2020/01/31 03:19:40.6	94.610	-0.480	0.450	1.150
2020/01/31 03:19:40.7	94.610	-0.480	0.410	1.140
2020/01/31 03:19:40.8	94.610	-0.480	0.370	1.140
2020/01/31 03:19:40.9	94.610	-0.480	0.320	1.140
2020/01/31 03:19:41.0	94.620	-0.470	0.260	1.130
2020/01/31 03:19:41.1	94.620	-0.460	0.200	1.130
2020/01/31 03:19:41.2	94.630	-0.450	0.140	1.120
2020/01/31 03:19:41.3	94.640	-0.430	0.070	1.120
2020/01/31 03:19:41.4	94.650	-0.410	0.010	1.110
2020/01/31 03:19:41.5	94.660	-0.380	-0.070	1.100
2020/01/31 03:19:41.6	94.660	-0.350	-0.140	1.090
2020/01/31 03:19:41.7	94.670	-0.320	-0.210	1.090
2020/01/31 03:19:41.8	94.680	-0.290	-0.280	1.080
2020/01/31 03:19:41.9	94.690	-0.260	-0.350	1.070
2020/01/31 03:19:42.0				
2020/01/31 03:19:42.1	94.700	-0.220	-0.420	1.050
2020/01/31 03:19:42.2	94.710	-0.150	-0.550	1.020
2020/01/31 03:19:42.3	94.710	-0.110	-0.610	1.000
2020/01/31 03:19:42.4	94.720	-0.080	-0.660	0.980
2020/01/31 03:19:42.5	94.730	-0.040	-0.710	0.950
2020/01/31 03:19:42.6	94.740	-0.010	-0.750	0.930
2020/01/31 03:19:42.7	94.740	0.020	-0.780	0.910
2020/01/31 03:19:42.8	94.750	0.050	-0.810	0.880
2020/01/31 03:19:42.9	94.760	0.080	-0.830	0.860
2020/01/31 03:19:43.0	94.760	0.100	-0.840	0.840
2020/01/31 03:19:43.1	94.790	0.130	-0.850	0.810
2020/01/31 03:19:43.2	94.800	0.140	-0.850	0.790
2020/01/31 03:19:43.3	94.800	0.160	-0.840	0.780
2020/01/31 03:19:43.4	94.800	0.170	-0.830	0.760
2020/01/31 03:19:43.5	94.810	0.180	-0.810	0.750
2020/01/31 03:19:43.6	94.810	0.190	-0.790	0.740
2020/01/31 03:19:43.7	94.810	0.190	-0.760	0.740
2020/01/31 03:19:43.8	94.810	0.190	-0.720	0.740
2020/01/31 03:19:43.9	94.810	0.190	-0.690	0.740
2020/01/31 03:19:44.0	94.820	0.180	-0.650	0.740
2020/01/31 03:19:44.1				
2020/01/31 03:19:44.2	94.820	0.180	-0.610	0.750
2020/01/31 03:19:44.3	94.820	0.150	-0.510	0.770
2020/01/31 03:19:44.4	94.820	0.140	-0.460	0.790
2020/01/31 03:19:44.5	94.810	0.120	-0.410	0.800
2020/01/31 03:19:44.6	94.810	0.100	-0.360	0.820
2020/01/31 03:19:44.7	94.810	0.080	-0.310	0.830
2020/01/31 03:19:44.8	94.810	0.060	-0.260	0.850
2020/01/31 03:19:44.9	94.810	0.040	-0.220	0.860
2020/01/31 03:19:45.0	94.800	0.010	-0.170	0.880
2020/01/31 03:19:45.1	94.820	-0.010	-0.120	0.890
2020/01/31 03:19:45.2	94.820	-0.030	-0.080	0.910
2020/01/31 03:19:45.3	94.810	-0.050	-0.040	0.920
2020/01/31 03:19:45.4	94.810	-0.070	-0.000	0.920
2020/01/31 03:19:45.5	94.800	-0.090	0.030	0.930
2020/01/31 03:19:45.6	94.790	-0.110	0.060	0.940
2020/01/31 03:19:45.7	94.790	-0.130	0.090	0.950
2020/01/31 03:19:45.8	94.780	-0.140	0.110	0.950
2020/01/31 03:19:45.9	94.770	-0.160	0.120	0.960
2020/01/31 03:19:46.0	94.770	-0.170	0.140	0.960
2020/01/31 03:19:46.1	94.760	-0.170	0.140	0.960
2020/01/31 03:19:46.2				
2020/01/31 03:19:46.3	94.750	-0.180	0.140	0.960
2020/01/31 03:19:46.4	94.740	-0.180	0.130	0.970
2020/01/31 03:19:46.5	94.740	-0.180	0.110	0.970
2020/01/31 03:19:46.6	94.740	-0.170	0.090	0.970
2020/01/31 03:19:46.7	94.740	-0.160	0.070	0.970
2020/01/31 03:19:46.8	94.740	-0.150	0.040	0.970
2020/01/31 03:19:46.9	94.740	-0.130	0.000	0.970
2020/01/31 03:19:47.0	94.730	-0.120	-0.040	0.970
2020/01/31 03:19:47.1	94.730	-0.100	-0.080	0.970
2020/01/31 03:19:47.2	94.740	-0.080	-0.120	0.970
2020/01/31 03:19:47.3	94.740	-0.060	-0.160	0.970
2020/01/31 03:19:47.4	94.740	-0.040	-0.210	0.970
2020/01/31 03:19:47.5	94.740	-0.020	-0.250	0.970
2020/01/31 03:19:47.6	94.730	0.000	-0.290	0.970
2020/01/31 03:19:47.7	94.730	0.020	-0.330	0.970
2020/01/31 03:19:47.8	94.730	0.040	-0.370	0.970
2020/01/31 03:19:47.9	94.720	0.060	-0.400	0.970
2020/01/31 03:19:48.0	94.720	0.080	-0.430	0.970
2020/01/31 03:19:48.1	94.710	0.090	-0.460	0.970
2020/01/31 03:19:48.2	94.700	0.100	-0.480	0.970
2020/01/31 03:19:48.3				
2020/01/31 03:19:48.4	94.690	0.110	-0.490	0.970
2020/01/31 03:19:48.5	94.660	0.120	-0.500	0.970
2020/01/31 03:19:48.6	94.650	0.130	-0.490	0.980
2020/01/31 03:19:48.7	94.640	0.130	-0.480	0.980
2020/01/31 03:19:48.8	94.620	0.120	-0.460	0.980
2020/01/31 03:19:48.9	94.610	0.120	-0.440	0.990
2020/01/31 03:19:49.0	94.590	0.110	-0.410	0.990
2020/01/31 03:19:49.1	94.590	0.100	-0.370	0.990
2020/01/31 03:19:49.2	94.570	0.090	-0.330	1.000
2020/01/31 03:19:49.3	94.560	0.070	-0.290	1.010
2020/01/31 03:19:49.4	94.550	0.050	-0.250	1.020
2020/01/31 03:19:49.5	94.530	0.040	-0.210	1.030
2020/01/31 03:19:49.6	94.520	0.020	-0.170	1.040
2020/01/31 03:19:49.7	94.500	0.000	-0.120	1.060
2020/01/31 03:19:49.8	94.490	-0.020	-0.080	1.070
2020/01/31 03:19:49.9	94.480	-0.040	-0.040	1.070
2020/01/31 03:19:50.0	94.470	-0.060	-0.010	1.080
2020/01/31 03:19:50.1	94.460	-0.070	0.020	1.090
2020/01/31 03:19:50.2	94.450	-0.090	0.040	1.090
2020/01/31 03:19:50.3	94.440	-0.100	0.060	1.100
2020/01/31 03:19:50.4				
2020/01/31 03:19:50.5	94.440	-0.110	0.070	1.100
2020/01/31 03:19:50.6	94.430	-0.120	0.080	1.090
2020/01/31 03:19:50.7	94.430	-0.130	0.070	1.080
2020/01/31 03:19:50.8	94.430	-0.130	0.050	1.070
2020/01/31 03:19:50.9	94.430	-0.120	0.020	1.060
2020/01/31 03:19:51.0	94.440	-0.110	-0.020	1.040
2020/01/31 03:19:51.1	94.450	-0.100	-0.060	1.020
2020/01/31 03:19:51.2	94.460	-0.080	-0.110	1.000
2020/01/31 03:19:51.3	94.470	-0.060	-0.160	0.980
2020/01/31 03:19:51.4	94.490	-0.030	-0.230	0.950
2020/01/31 03:19:51.5	94.500	0.000	-0.290	0.930
2020/01/31 03:19:51.6	94.520	0.030	-0.360	0.900
2020/01/31 03:19:51.7	94.540	0.070	-0.440	0.870
2020/01/31 03:19:51.8	94.560	0.110	-0.510	0.850
2020/01/31 03:19:51.9	94.580	0.150	-0.590	0.830
2020/01/31 03:19:52.0	94.600	0.200	-0.660	0.800
2020/01/31 03:19:52.1	94.600	0.240	-0.730	0.780
2020/01/31 03:19:52.2	94.620	0.280	-0.800	0.760
2020/01/31 03:19:52.3	94.630	0.330	-0.850	0.750
2020/01/31 03:19:52.4	94.640	0.370	-0.900	0.740
2020/01/31 03:19:52.5				
2020/01/31 03:19:52.6	94.650	0.410	-0.950	0.730
2020/01/31 03:19:52.7	94.660	0.480	-1.000	0.720
2020/01/31 03:19:52.8	94.650	0.510	-1.000	0.720
2020/01/31 03:19:52.9	94.650	0.530	-1.000	0.720
2020/01/31 03:19:53.0	94.640	0.550	-0.980	0.720
2020/01/31 03:19:53.1	94.630	0.560	-0.950	0.730
2020/01/31 03:19:53.2	94.610	0.570	-0.910	0.740
2020/01/31 03:19:53.3	94.590	0.570	-0.850	0.740
2020/01/31 03:19:53.4	94.570	0.570	-0.780	0.760
2020/01/31 03:19:53.5	94.550	0.550	-0.700	0.770
2020/01/31 03:19:53.6	94.530	0.530	-0.610	0.780
2020/01/31 03:19:53.7	94.500	0.510	-0.500	0.800
2020/01/31 03:19:53.8	94.470	0.480	-0.390	0.820
2020/01/31 03:19:53.9	94.440	0.440	-0.270	0.840
2020/01/31 03:19:54.0	94.400	0.390	-0.140	0.850
2020/01/31 03:19:54.1	94.360	0.340	-0.010	0.870
2020/01/31 03:19:54.2	94.330	0.290	0.120	0.900
2020/01/31 03:19:54.3	94.290	0.230	0.260	0.920
2020/01/31 03:19:54.4	94.250	0.160	0.390	0.950
2020/01/31 03:19:54.5	94.220	0.100	0.520	0.970
2020/01/31 03:19:54.6				
2020/01/31 03:19:54.7	94.180	0.030	0.640	1.000
2020/01/31 03:19:54.8	94.120	-0.110	0.860	1.040
2020/01/31 03:19:54.9	94.090	-0.190	0.960	1.060
2020/01/31 03:19:55.0	94.060	-0.260	1.050	1.080
2020/01/31 03:19:55.1	94.040	-0.320	1.120	1.100
2020/01/31 03:19:55.2	94.020	-0.390	1.180	1.110
2020/01/31 03:19:55.3	94.000	-0.450	1.220	1.110
2020/01/31 03:19:55.4	93.990	-0.510	1.250	1.120
2020/01/31 03:19:55.5	93.980	-0.560	1.260	1.110
2020/01/31 03:19:55.6	93.970	-0.600	1.250	1.110
2020/01/31 03:19:55.7	93.970	-0.640	1.220	1.090
2020/01/31 03:19:55.8	93.980	-0.670	1.180	1.080
2020/01/31 03:19:55.9	93.990	-0.690	1.120	1.050
2020/01/31 03:19:56.0	94.000	-0.710	1.040	1.020
2020/01/31 03:19:56.1	94.010	-0.720	0.950	0.990
2020/01/31 03:19:56.2	94.030	-0.720	0.840	0.950
2020/01/31 03:19:56.3	94.050	-0.710	0.720	0.900
2020/01/31 03:19:56.4	94.080	-0.690	0.580	0.860
2020/01/31 03:19:56.5	94.110	-0.670	0.440	0.810
2020/01/31 03:19:56.6	94.140	-0.640	0.290	0.760
2020/01/31 03:19:56.7				
2020/01/31 03:19:56.8	94.170	-0.600	0.140	0.710
2020/01/31 03:19:56.9	94.240	-0.510	-0.180	0.610
2020/01/31 03:19:57.0	94.270	-0.460	-0.340	0.560
2020/01/31 03:19:57.1	94.280	-0.410	-0.500	0.520
2020/01/31 03:19:57.2	94.310	-0.350	-0.650	0.480
2020/01/31 03:19:57.3	94.340	-0.290	-0.790	0.440
2020/01/31 03:19:57.4				
2020/01/31 03:19:57.5	94.370	-0.230	-0.920	0.410
2020/01/31 03:19:57.6	94.410	-0.120	-1.140	0.360
2020/01/31 03:19:57.7	94.420	-0.060	-1.230	0.340
2020/01/31 03:19:57.8	94.430	-0.010	-1.300	0.330
2020/01/31 03:19:57.9	94.430	0.030	-1.360	0.320
2020/01/31 03:19:58.0	94.430	0.080	-1.390	0.310
2020/01/31 03:19:58.1	94.430	0.120	-1.410	0.310
2020/01/31 03:19:58.2	94.420	0.150	-1.420	0.310
2020/01/31 03:19:58.3	94.400	0.180	-1.410	0.320
2020/01/31 03:19:58.4	94.390	0.210	-1.380	0.330
2020/01/31 03:19:58.5	94.370	0.220	-1.340	0.350
2020/01/31 03:19:58.6	94.340	0.240	-1.280	0.360
2020/01/31 03:19:58.7	94.310	0.240	-1.210	0.380
2020/01/31 03:19:58.8				
2020/01/31 03:19:58.9	94.280	0.250	-1.130	0.410
2020/01/31 03:19:59.0	94.200	0.230	-0.930	0.460
2020/01/31 03:19:59.1	94.160	0.220	-0.830	0.490
2020/01/31 03:19:59.2	94.120	0.200	-0.710	0.530
2020/01/31 03:19:59.3	94.070	0.170	-0.600	0.560
2020/01/31 03:19:59.4	94.020	0.140	-0.480	0.600
2020/01/31 03:19:59.5	93.970	0.120	-0.360	0.630
2020/01/31 03:19:59.6	93.920	0.080	-0.250	0.670
2020/01/31 03:19:59.7	93.870	0.050	-0.140	0.710
2020/01/31 03:19:59.8	93.820	0.020	-0.040	0.740
2020/01/31 03:19:59.9	93.770	-0.020	0.060	0.780
2020/01/31 03:20:00.0	93.720	-0.050	0.140	0.810
2020/01/31 03:20:00.1	93.680	-0.080	0.220	0.840
2020/01/31 03:20:00.2	93.640	-0.100	0.280	0.870
2020/01/31 03:20:00.3	93.600	-0.130	0.320	0.890
2020/01/31 03:20:00.4	93.560	-0.150	0.350	0.910
2020/01/31 03:20:00.5	93.530	-0.160	0.370	0.930
2020/01/31 03:20:00.6	93.500	-0.170	0.370	0.940
2020/01/31 03:20:00.7	93.470	-0.180	0.350	0.950
2020/01/31 03:20:00.8	93.450	-0.170	0.320	0.960
2020/01/31 03:20:00.9				
2020/01/31 03:20:01.0	93.430	-0.170	0.270	0.960
2020/01/31 03:20:01.1	93.390	-0.130	0.150	0.940
2020/01/31 03:20:01.2	93.380	-0.110	0.060	0.930
2020/01/31 03:20:01.3	93.380	-0.080	-0.030	0.910
2020/01/31 03:20:01.4	93.380	-0.050	-0.130	0.890
2020/01/31 03:20:01.5	93.380	-0.010	-0.230	0.870
2020/01/31 03:20:01.6	93.380	0.030	-0.340	0.840
2020/01/31 03:20:01.7	93.390	0.070	-0.450	0.810
2020/01/31 03:20:01.8	93.400	0.120	-0.560	0.780
2020/01/31 03:20:01.9	93.420	0.160	-0.660	0.740
2020/01/31 03:20:02.0	93.430	0.210	-0.760	0.710
2020/01/31 03:20:02.1	93.440	0.250	-0.860	0.670
2020/01/31 03:20:02.2	93.460	0.300	-0.950	0.630
2020/01/31 03:20:02.3	93.470	0.340	-1.020	0.600
2020/01/31 03:20:02.4	93.490	0.380	-1.080	0.560
2020/01/31 03:20:02.5	93.500	0.420	-1.140	0.530
2020/01/31 03:20:02.6	93.520	0.450	-1.170	0.490
2020/01/31 03:20:02.7	93.530	0.480	-1.200	0.460
2020/01/31 03:20:02.8	93.550	0.510	-1.210	0.430
2020/01/31 03:20:02.9	93.560	0.530	-1.210	0.410
2020/01/31 03:20:03.0				
2020/01/31 03:20:03.1	93.570	0.540	-1.190	0.390
2020/01/31 03:20:03.2	93.600	0.560	-1.120	0.350
2020/01/31 03:20:03.3	93.610	0.560	-1.060	0.340
2020/01/31 03:20:03.4	93.610	0.560	-0.990	0.340
2020/01/31 03:20:03.5	93.620	0.540	-0.910	0.340
2020/01/31 03:20:03.6	93.620	0.530	-0.820	0.340
2020/01/31 03:20:03.7	93.620	0.500	-0.720	0.360
2020/01/31 03:20:03.8	93.620	0.480	-0.610	0.370
2020/01/31 03:20:03.9	93.620	0.450	-0.500	0.400
2020/01/31 03:20:04.0	93.620	0.410	-0.380	0.430
2020/01/31 03:20:04.1	93.610	0.370	-0.260	0.460
2020/01/31 03:20:04.2	93.610	0.320	-0.140	0.500
2020/01/31 03:20:04.3	93.610	0.270	-0.010	0.540
2020/01/31 03:20:04.4	93.600	0.220	0.110	0.590
2020/01/31 03:20:04.5	93.590	0.170	0.230	0.640
2020/01/31 03:20:04.6	93.590	0.110	0.350	0.690
2020/01/31 03:20:04.7	93.580	0.050	0.470	0.740
2020/01/31 03:20:04.8	93.570	-0.010	0.570	0.790
2020/01/31 03:20:04.9	93.560	-0.070	0.680	0.840
2020/01/31 03:20:05.0	93.550	-0.130	0.770	0.890
2020/01/31 03:20:05.1				
2020/01/31 03:20:05.2	93.530	-0.190	0.860	0.940
2020/01/31 03:20:05.3	93.510	-0.310	1.020	1.030
2020/01/31 03:20:05.4	93.500	-0.370	1.080	1.070
2020/01/31 03:20:05.5	93.490	-0.430	1.130	1.110
2020/01/31 03:20:05.6	93.480	-0.480	1.170	1.140
2020/01/31 03:20:05.7	93.470	-0.540	1.200	1.160
2020/01/31 03:20:05.8	93.470	-0.590	1.220	1.180
2020/01/31 03:20:05.9	93.460	-0.630	1.230	1.200
2020/01/31 03:20:06.0	93.460	-0.680	1.230	1.200
2020/01/31 03:20:06.1	93.470	-0.720	1.220	1.200
2020/01/31 03:20:06.2	93.470	-0.750	1.200	1.200
2020/01/31 03:20:06.3	93.480	-0.780	1.160	1.190
2020/01/31 03:20:06.4	93.480	-0.810	1.120	1.170
2020/01/31 03:20:06.5	93.490	-0.820	1.060	1.150
2020/01/31 03:20:06.6	93.500	-0.840	0.990	1.130
2020/01/31 03:20:06.7	93.510	-0.850	0.910	1.100
2020/01/31 03:20:06.8	93.530	-0.850	0.820	1.070
2020/01/31 03:20:06.9	93.540	-0.840	0.730	1.040
2020/01/31 03:20:07.0	93.560	-0.830	0.620	1.010
2020/01/31 03:20:07.1	93.590	-0.820	0.510	0.960
2020/01/31 03:20:07.2				
2020/01/31 03:20:07.3	93.610	-0.790	0.390	0.930
2020/01/31 03:20:07.4	93.670	-0.730	0.140	0.860
2020/01/31 03:20:07.5	93.700	-0.680	0.010	0.820
2020/01/31 03:20:07.6	93.730	-0.640	-0.130	0.780
2020/01/31 03:20:07.7				
2020/01/31 03:20:07.8	93.760	-0.590	-0.260	0.750
2020/01/31 03:20:07.9	93.830	-0.470	-0.520	0.680
2020/01/31 03:20:08.0	93.860	-0.400	-0.650	0.640
2020/01/31 03:20:08.1	93.890	-0.340	-0.770	0.610
2020/01/31 03:20:08.2	93.920	-0.260	-0.890	0.580
2020/01/31 03:20:08.3	93.960	-0.190	-0.990	0.550
2020/01/31 03:20:08.4	93.990	-0.120	-1.090	0.530
2020/01/31 03:20:08.5	94.030	-0.050	-1.180	0.510
2020/01/31 03:20:08.6	94.060	0.030	-1.260	0.490
2020/01/31 03:20:08.7	94.090	0.100	-1.330	0.480
2020/01/31 03:20:08.8	94.120	0.170	-1.390	0.470
2020/01/31 03:20:08.9	94.140	0.240	-1.440	0.470
2020/01/31 03:20:09.0	94.170	0.300	-1.470	0.470
2020/01/31 03:20:09.1	94.190	0.360	-1.490	0.470
2020/01/31 03:20:09.2	94.210	0.420	-1.500	0.480
2020/01/31 03:20:09.3				
2020/01/31 03:20:09.4	94.220	0.470	-1.500	0.500
2020/01/31 03:20:09.5	94.240	0.570	-1.470	0.530
2020/01/31 03:20:09.6	94.250	0.600	-1.430	0.550
2020/01/31 03:20:09.7	94.250	0.630	-1.390	0.580
2020/01/31 03:20:09.8	94.260	0.660	-1.330	0.600
2020/01/31 03:20:09.9	94.250	0.680	-1.270	0.630
2020/01/31 03:20:10.0	94.250	0.690	-1.200	0.650
2020/01/31 03:20:10.1	94.250	0.700	-1.130	0.680
2020/01/31 03:20:10.2	94.240	0.700	-1.040	0.710
2020/01/31 03:20:10.3	94.230	0.700	-0.960	0.730
2020/01/31 03:20:10.4	94.220	0.690	-0.870	0.760
2020/01/31 03:20:10.5	94.210	0.680	-0.770	0.790
2020/01/31 03:20:10.6	94.200	0.660	-0.680	0.810
2020/01/31 03:20:10.7	94.190	0.640	-0.590	0.840
2020/01/31 03:20:10.8	94.180	0.620	-0.490	0.860
2020/01/31 03:20:10.9	94.170	0.590	-0.400	0.880
2020/01/31 03:20:11.0	94.160	0.560	-0.310	0.900
2020/01/31 03:20:11.1	94.150	0.530	-0.220	0.920
2020/01/31 03:20:11.2				
2020/01/31 03:20:11.3	94.140	0.490	-0.140	0.930
2020/01/31 03:20:11.4				
2020/01/31 03:20:11.5	94.130	0.430	0.020	0.950
2020/01/31 03:20:11.6	94.120	0.360	0.150	0.960
2020/01/31 03:20:11.7	94.120	0.320	0.200	0.960
2020/01/31 03:20:11.8	94.120	0.290	0.250	0.960
2020/01/31 03:20:11.9	94.120	0.260	0.290	0.950
2020/01/31 03:20:12.0	94.120	0.230	0.320	0.940
2020/01/31 03:20:12.1	94.130	0.210	0.350	0.930
2020/01/31 03:20:12.2				
2020/01/31 03:20:12.3	94.140	0.180	0.360	0.910
2020/01/31 03:20:12.4	94.160	0.140	0.380	0.870
2020/01/31 03:20:12.5	94.180	0.130	0.380	0.850
2020/01/31 03:20:12.6				
2020/01/31 03:20:12.7	94.190	0.110	0.370	0.820
2020/01/31 03:20:12.8	94.230	0.090	0.330	0.760
2020/01/31 03:20:12.9	94.260	0.080	0.310	0.720
2020/01/31 03:20:13.0				
2020/01/31 03:20:13.1	94.280	0.080	0.280	0.690
2020/01/31 03:20:13.2	94.340	0.070	0.210	0.610
2020/01/31 03:20:13.3	94.380	0.070	0.170	0.570
2020/01/31 03:20:13.4	94.410	0.070	0.130	0.540
2020/01/31 03:20:13.5				
2020/01/31 03:20:13.6	94.440	0.070	0.090	0.500
2020/01/31 03:20:13.7	94.520	0.070	0.000	0.420
2020/01/31 03:20:13.8				
2020/01/31 03:20:13.9	94.550	0.070	-0.040	0.380
2020/01/31 03:20:14.0	94.620	0.070	-0.120	0.310
2020/01/31 03:20:14.1	94.640	0.070	-0.160	0.270
2020/01/31 03:20:14.2	94.670	0.070	-0.190	0.240
2020/01/31 03:20:14.3	94.700	0.060	-0.220	0.210
2020/01/31 03:20:14.4	94.730	0.060	-0.250	0.190
2020/01/31 03:20:14.5	94.760	0.050	-0.270	0.170
2020/01/31 03:20:14.6	94.780	0.040	-0.280	0.150
2020/01/31 03:20:14.7	94.810	0.030	-0.300	0.130
2020/01/31 03:20:14.8	94.830	0.010	-0.300	0.120
2020/01/31 03:20:14.9	94.850	-0.010	-0.300	0.120
2020/01/31 03:20:15.0				
2020/01/31 03:20:15.1	94.840	-0.030	-0.300	0.110
2020/01/31 03:20:15.2	94.870	-0.070	-0.280	0.120
2020/01/31 03:20:15.3	94.880	-0.100	-0.260	0.130
2020/01/31 03:20:15.4	94.890	-0.120	-0.240	0.140
2020/01/31 03:20:15.5				
2020/01/31 03:20:15.6	94.900	-0.150	-0.210	0.160
2020/01/31 03:20:15.7	94.910	-0.190	-0.190	0.180
2020/01/31 03:20:15.8	94.920	-0.250	-0.120	0.230
2020/01/31 03:20:15.9	94.930	-0.290	-0.090	0.260
2020/01/31 03:20:16.0	94.940	-0.320	-0.050	0.290
2020/01/31 03:20:16.1	94.950	-0.360	-0.020	0.320
2020/01/31 03:20:16.2				
2020/01/31 03:20:16.3	94.960	-0.390	0.020	0.350
2020/01/31 03:20:16.4	94.970	-0.460	0.080	0.420
2020/01/31 03:20:16.5	94.980	-0.490	0.110	0.460
2020/01/31 03:20:16.6				
2020/01/31 03:20:16.7	94.990	-0.520	0.140	0.490
2020/01/31 03:20:16.8	95.000	-0.580	0.180	0.550
2020/01/31 03:20:16.9				
2020/01/31 03:20:17.0	95.010	-0.600	0.190	0.580
2020/01/31 03:20:17.1				
2020/01/31 03:20:17.2	95.050	-0.640	0.200	0.640
2020/01/31 03:20:17.3	95.070	-0.670	0.200	0.690
2020/01/31 03:20:17.4				
2020/01/31 03:20:17.5	95.080	-0.680	0.180	0.710
2020/01/31 03:20:17.6				
2020/01/31 03:20:17.7	95.110	-0.680	0.140	0.740
2020/01/31 03:20:17.8	95.120	-0.680	0.110	0.750
2020/01/31 03:20:17.9	95.140	-0.670	0.070	0.760
2020/01/31 03:20:18.0	95.150	-0.660	0.030	0.760
2020/01/31 03:20:18.1	95.190	-0.620	-0.080	0.760
2020/01/31 03:20:18.2	95.210	-0.600	-0.140	0.760
2020/01/31 03:20:18.3	95.230	-0.570	-0.210	0.760
2020/01/31 03:20:18.4				
2020/01/31 03:20:18.5	95.250	-0.540	-0.270	0.750
2020/01/31 03:20:18.6	95.270	-0.500	-0.340	0.750
2020/01/31 03:20:18.7	95.310	-0.420	-0.490	0.730
2020/01/31 03:20:18.8	95.330	-0.380	-0.570	0.720
2020/01/31 03:20:18.9	95.350	-0.330	-0.640	0.710
2020/01/31 03:20:19.0				
2020/01/31 03:20:19.1	95.370	-0.280	-0.710	0.700
2020/01/31 03:20:19.2	95.400	-0.180	-0.860	0.670
2020/01/31 03:20:19.3				
2020/01/31 03:20:19.4	95.410	-0.130	-0.930	0.660
2020/01/31 03:20:19.5	95.430	-0.070	-0.990	0.640
2020/01/31 03:20:19.6	95.460	0.040	-1.100	0.610
2020/01/31 03:20:19.7				
2020/01/31 03:20:19.8	95.470	0.090	-1.150	0.600
2020/01/31 03:20:19.9	95.480	0.140	-1.190	0.580
2020/01/31 03:20:20.0	95.500	0.190	-1.220	0.560
2020/01/31 03:20:20.1	95.520	0.290	-1.250	0.520
2020/01/31 03:20:20.2	95.530	0.330	-1.260	0.510
2020/01/31 03:20:20.3	95.540	0.380	-1.250	0.490
2020/01/31 03:20:20.4	95.550	0.410	-1.230	0.480
2020/01/31 03:20:20.5				
2020/01/31 03:20:20.6	95.570	0.450	-1.200	0.460
2020/01/31 03:20:20.7	95.580	0.480	-1.170	0.450
2020/01/31 03:20:20.8	95.610	0.520	-1.060	0.430
2020/01/31 03:20:20.9	95.620	0.540	-1.000	0.420
2020/01/31 03:20:21.0	95.630	0.550	-0.930	0.410
2020/01/31 03:20:21.1				
2020/01/31 03:20:21.2	95.660	0.560	-0.840	0.400
2020/01/31 03:20:21.3	95.670	0.560	-0.750	0.400
2020/01/31 03:20:21.4	95.700	0.550	-0.560	0.400
2020/01/31 03:20:21.5	95.710	0.540	-0.460	0.400
2020/01/31 03:20:21.6	95.720	0.530	-0.360	0.400
2020/01/31 03:20:21.7				
2020/01/31 03:20:21.8	95.740	0.510	-0.250	0.400
2020/01/31 03:20:21.9	95.750	0.490	-0.150	0.400
2020/01/31 03:20:22.0	95.760	0.470	-0.040	0.400
2020/01/31 03:20:22.1	95.770	0.420	0.150	0.410
2020/01/31 03:20:22.2	95.780	0.390	0.250	0.410
2020/01/31 03:20:22.3	95.790	0.360	0.330	0.410
2020/01/31 03:20:22.4				
2020/01/31 03:20:22.5	95.800	0.330	0.410	0.410
2020/01/31 03:20:22.6	95.800	0.300	0.490	0.410
2020/01/31 03:20:22.7	95.800	0.270	0.550	0.410
2020/01/31 03:20:22.8				
2020/01/31 03:20:22.9	95.810	0.210	0.660	0.400
2020/01/31 03:20:23.0	95.810	0.180	0.700	0.400
2020/01/31 03:20:23.1	95.810	0.130	0.750	0.380
2020/01/31 03:20:23.2	95.800	0.100	0.760	0.370
2020/01/31 03:20:23.3	95.790	0.080	0.760	0.360
2020/01/31 03:20:23.4	95.790	0.060	0.760	0.350
2020/01/31 03:20:23.5				
2020/01/31 03:20:23.6	95.780	0.040	0.750	0.340
2020/01/31 03:20:23.7	95.770	0.020	0.730	0.330
2020/01/31 03:20:23.8	95.760	0.010	0.710	0.310
2020/01/31 03:20:23.9	95.750	-0.010	0.680	0.300
2020/01/31 03:20:24.0	95.740	-0.020	0.640	0.280
2020/01/31 03:20:24.1	95.720	-0.030	0.600	0.270
2020/01/31 03:20:24.2	95.710	-0.050	0.520	0.230
2020/01/31 03:20:24.3				
2020/01/31 03:20:24.4	95.700	-0.060	0.470	0.220
2020/01/31 03:20:24.5	95.700	-0.070	0.360	0.190
2020/01/31 03:20:24.6	95.700	-0.070	0.310	0.170
2020/01/31 03:20:24.7				
2020/01/31 03:20:24.8	95.700	-0.070	0.250	0.160
2020/01/31 03:20:24.9	95.710	-0.070	0.200	0.150
2020/01/31 03:20:25.0				
2020/01/31 03:20:25.1	95.730	-0.070	0.080	0.130
2020/01/31 03:20:25.2	95.760	-0.060	-0.030	0.130
2020/01/31 03:20:25.3				
2020/01/31 03:20:25.4	95.780	-0.050	-0.090	0.130
2020/01/31 03:20:25.5	95.800	-0.050	-0.150	0.130
2020/01/31 03:20:25.6				
2020/01/31 03:20:25.7	95.850	-0.030	-0.250	0.150
2020/01/31 03:20:25.8	95.870	-0.010	-0.310	0.150
2020/01/31 03:20:25.9	95.900	-0.000	-0.360	0.160
2020/01/31 03:20:26.0	95.930	0.010	-0.410	0.170
2020/01/31 03:20:26.1				
2020/01/31 03:20:26.2	96.000	0.040	-0.500	0.190
2020/01/31 03:20:26.3	96.070	0.080	-0.580	0.210
2020/01/31 03:20:26.4	96.110	0.090	-0.610	0.220
2020/01/31 03:20:26.5	96.150	0.110	-0.650	0.230
2020/01/31 03:20:26.6	96.190	0.130	-0.680	0.240
2020/01/31 03:20:26.7	96.230	0.150	-0.700	0.250
2020/01/31 03:20:26.8				
2020/01/31 03:20:26.9	96.270	0.160	-0.720	0.250
2020/01/31 03:20:27.0				
2020/01/31 03:20:27.1	96.340	0.200	-0.750	0.280
2020/01/31 03:20:27.2	96.410	0.220	-0.770	0.300
2020/01/31 03:20:27.3	96.440	0.240	-0.770	0.320
2020/01/31 03:20:27.4	96.480	0.250	-0.770	0.340
2020/01/31 03:20:27.5	96.510	0.260	-0.760	0.370
2020/01/31 03:20:27.6				
2020/01/31 03:20:27.7	96.530	0.270	-0.750	0.400
2020/01/31 03:20:27.8	96.560	0.280	-0.740	0.440
2020/01/31 03:20:27.9	96.580	0.280	-0.720	0.480
2020/01/31 03:20:28.0	96.600	0.290	-0.700	0.520
2020/01/31 03:20:28.1	96.620	0.290	-0.680	0.570
2020/01/31 03:20:28.2				
2020/01/31 03:20:28.3	96.640	0.290	-0.620	0.680
2020/01/31 03:20:28.4	96.640	0.290	-0.590	0.740
2020/01/31 03:20:28.5	96.650	0.280	-0.560	0.800
2020/01/31 03:20:28.6	96.640	0.260	-0.490	0.930
2020/01/31 03:20:28.7				
2020/01/31 03:20:28.8	96.630	0.250	-0.460	1.000
2020/01/31 03:20:28.9	96.620	0.240	-0.420	1.060
2020/01/31 03:20:29.0	96.600	0.220	-0.390	1.130
2020/01/31 03:20:29.1				
2020/01/31 03:20:29.2	96.560	0.180	-0.310	1.240
2020/01/31 03:20:29.3	96.540	0.160	-0.270	1.300
2020/01/31 03:20:29.4	96.520	0.140	-0.240	1.350
2020/01/31 03:20:29.5	96.490	0.120	-0.200	1.390
2020/01/31 03:20:29.6	96.440	0.060	-0.130	1.470
2020/01/31 03:20:29.7	96.420	0.040	-0.090	1.490
2020/01/31 03:20:29.8	96.390	0.010	-0.060	1.510
2020/01/31 03:20:29.9	96.370	-0.020	-0.020	1.530
2020/01/31 03:20:30.0				
2020/01/31 03:20:30.1	96.340	-0.050	0.010	1.530
2020/01/31 03:20:30.2				
2020/01/31 03:20:30.3	96.300	-0.110	0.070	1.530
2020/01/31 03:20:30.4	96.280	-0.140	0.100	1.520
2020/01/31 03:20:30.5	96.250	-0.200	0.140	1.480
2020/01/31 03:20:30.6	96.230	-0.220	0.160	1.460
2020/01/31 03:20:30.7	96.220	-0.250	0.170	1.440
2020/01/31 03:20:30.8	96.210	-0.270	0.180	1.410
2020/01/31 03:20:30.9	96.200	-0.300	0.190	1.380
2020/01/31 03:20:31.0				
2020/01/31 03:20:31.1	96.200	-0.320	0.190	1.340
2020/01/31 03:20:31.2	96.180	-0.360	0.180	1.270
2020/01/31 03:20:31.3	96.180	-0.370	0.160	1.230
2020/01/31 03:20:31.4				
2020/01/31 03:20:31.5	96.180	-0.380	0.150	1.190
2020/01/31 03:20:31.6				
2020/01/31 03:20:31.7	96.180	-0.400	0.100	1.110
2020/01/31 03:20:31.8	96.180	-0.400	0.070	1.060
2020/01/31 03:20:31.9	96.190	-0.400	0.040	1.020
2020/01/31 03:20:32.0	96.190	-0.400	0.000	0.980
2020/01/31 03:20:32.1	96.210	-0.380	-0.070	0.890
2020/01/31 03:20:32.2				
2020/01/31 03:20:32.3	96.210	-0.370	-0.120	0.840
2020/01/31 03:20:32.4				
2020/01/31 03:20:32.5	96.230	-0.340	-0.210	0.750
2020/01/31 03:20:32.6	96.240	-0.320	-0.260	0.710
2020/01/31 03:20:32.7	96.250	-0.300	-0.300	0.670
2020/01/31 03:20:32.8	96.270	-0.250	-0.390	0.580
2020/01/31 03:20:32.9	96.280	-0.230	-0.440	0.540
2020/01/31 03:20:33.0				
2020/01/31 03:20:33.1	96.290	-0.200	-0.480	0.500
2020/01/31 03:20:33.2	96.320	-0.140	-0.560	0.420
2020/01/31 03:20:33.3				
2020/01/31 03:20:33.4	96.340	-0.120	-0.600	0.390
2020/01/31 03:20:33.5	96.350	-0.090	-0.630	0.360
2020/01/31 03:20:33.6	96.380	-0.030	-0.690	0.310
2020/01/31 03:20:33.7	96.390	-0.010	-0.710	0.290
2020/01/31 03:20:33.8	96.400	0.020	-0.720	0.280
2020/01/31 03:20:33.9	96.420	0.040	-0.740	0.270
2020/01/31 03:20:34.0				
2020/01/31 03:20:34.1	96.430	0.060	-0.750	0.260
2020/01/31 03:20:34.2	96.440	0.080	-0.750	0.260
2020/01/31 03:20:34.3	96.450	0.090	-0.740	0.260
2020/01/31 03:20:34.4	96.460	0.110	-0.740	0.260
2020/01/31 03:20:34.5				
2020/01/31 03:20:34.6	96.490	0.120	-0.700	0.280
2020/01/31 03:20:34.7	96.510	0.130	-0.640	0.300
2020/01/31 03:20:34.8	96.520	0.130	-0.610	0.320
2020/01/31 03:20:34.9	96.530	0.120	-0.560	0.340
2020/01/31 03:20:35.0	96.540	0.120	-0.520	0.360
2020/01/31 03:20:35.1				
2020/01/31 03:20:35.2	96.550	0.100	-0.470	0.380
2020/01/31 03:20:35.3	96.560	0.090	-0.420	0.400
2020/01/31 03:20:35.4	96.570	0.070	-0.360	0.420
2020/01/31 03:20:35.5	96.580	0.060	-0.300	0.450
2020/01/31 03:20:35.6	96.590	0.040	-0.240	0.470
2020/01/31 03:20:35.7	96.600	0.010	-0.180	0.490
2020/01/31 03:20:35.8	96.610	-0.010	-0.120	0.510
2020/01/31 03:20:35.9	96.620	-0.030	-0.060	0.540
2020/01/31 03:20:36.0	96.630	-0.060	-0.000	0.560
2020/01/31 03:20:36.1				
2020/01/31 03:20:36.2	96.660	-0.110	0.110	0.600
2020/01/31 03:20:36.3	96.670	-0.130	0.160	0.610
2020/01/31 03:20:36.4	96.680	-0.170	0.250	0.640
2020/01/31 03:20:36.5				
2020/01/31 03:20:36.6	96.690	-0.190	0.290	0.660
2020/01/31 03:20:36.7	96.690	-0.210	0.320	0.670
2020/01/31 03:20:36.8	96.700	-0.220	0.350	0.680
2020/01/31 03:20:36.9	96.700	-0.230	0.370	0.690
2020/01/31 03:20:37.0				
2020/01/31 03:20:37.1	96.700	-0.250	0.390	0.700
2020/01/31 03:20:37.2	96.690	-0.250	0.400	0.710
2020/01/31 03:20:37.3				
2020/01/31 03:20:37.4	96.690	-0.240	0.390	0.720
2020/01/31 03:20:37.5	96.680	-0.240	0.380	0.720
2020/01/31 03:20:37.6	96.680	-0.230	0.370	0.730
2020/01/31 03:20:37.7	96.670	-0.210	0.350	0.740
2020/01/31 03:20:37.8	96.660	-0.200	0.330	0.740
2020/01/31 03:20:37.9	96.650	-0.180	0.300	0.750
2020/01/31 03:20:38.0	96.630	-0.160	0.270	0.760
2020/01/31 03:20:38.1	96.630	-0.140	0.240	0.760
2020/01/31 03:20:38.2				
2020/01/31 03:20:38.3	96.590	-0.090	0.170	0.770
2020/01/31 03:20:38.4	96.580	-0.060	0.130	0.770
2020/01/31 03:20:38.5	96.560	-0.030	0.090	0.770
2020/01/31 03:20:38.6	96.540	-0.000	0.050	0.780
2020/01/31 03:20:38.7				
2020/01/31 03:20:38.8	96.510	0.060	-0.030	0.770
2020/01/31 03:20:38.9	96.500	0.080	-0.080	0.770
2020/01/31 03:20:39.0	96.480	0.110	-0.120	0.760
2020/01/31 03:20:39.1	96.470	0.140	-0.160	0.760
2020/01/31 03:20:39.2	96.450	0.170	-0.210	0.740
2020/01/31 03:20:39.3	96.430	0.220	-0.290	0.720
2020/01/31 03:20:39.4	96.430	0.240	-0.340	0.710
2020/01/31 03:20:39.5	96.420	0.260	-0.380	0.690
2020/01/31 03:20:39.6	96.420	0.280	-0.420	0.680
2020/01/31 03:20:39.7				
2020/01/31 03:20:39.8	96.420	0.300	-0.450	0.660
2020/01/31 03:20:39.9	96.420	0.320	-0.490	0.640
2020/01/31 03:20:40.0	96.430	0.330	-0.530	0.620
2020/01/31 03:20:40.1	96.440	0.350	-0.560	0.610
2020/01/31 03:20:40.2				
2020/01/31 03:20:40.3	96.460	0.370	-0.620	0.560
2020/01/31 03:20:40.4	96.470	0.390	-0.650	0.540
2020/01/31 03:20:40.5	96.490	0.400	-0.680	0.520
2020/01/31 03:20:40.6	96.500	0.400	-0.700	0.500
2020/01/31 03:20:40.7	96.520	0.410	-0.710	0.480
2020/01/31 03:20:40.8	96.540	0.420	-0.730	0.460
2020/01/31 03:20:40.9	96.560	0.420	-0.740	0.450
2020/01/31 03:20:41.0	96.580	0.430	-0.740	0.430
2020/01/31 03:20:41.1	96.600	0.430	-0.750	0.420
2020/01/31 03:20:41.2	96.620	0.430	-0.740	0.410
2020/01/31 03:20:41.3	96.630	0.430	-0.730	0.400
2020/01/31 03:20:41.4	96.650	0.430	-0.720	0.400
2020/01/31 03:20:41.5	96.670	0.420	-0.700	0.390
2020/01/31 03:20:41.6	96.680	0.420	-0.680	0.390
2020/01/31 03:20:41.7				
2020/01/31 03:20:41.8	96.710	0.400	-0.620	0.390
2020/01/31 03:20:41.9	96.730	0.390	-0.590	0.390
2020/01/31 03:20:42.0				
2020/01/31 03:20:42.1	96.750	0.360	-0.510	0.400
2020/01/31 03:20:42.2	96.770	0.350	-0.470	0.410
2020/01/31 03:20:42.3	96.780	0.330	-0.430	0.420
2020/01/31 03:20:42.4				
2020/01/31 03:20:42.5	96.800	0.290	-0.350	0.440
2020/01/31 03:20:42.6	96.800	0.280	-0.310	0.450
2020/01/31 03:20:42.7	96.810	0.260	-0.270	0.470
2020/01/31 03:20:42.8	96.820	0.240	-0.230	0.480
2020/01/31 03:20:42.9	96.830	0.220	-0.200	0.500
2020/01/31 03:20:43.0	96.830	0.200	-0.170	0.520
2020/01/31 03:20:43.1	96.840	0.180	-0.150	0.540
2020/01/31 03:20:43.2				
2020/01/31 03:20:43.3	96.840	0.140	-0.110	0.580
2020/01/31 03:20:43.4	96.840	0.130	-0.100	0.610
2020/01/31 03:20:43.5	96.840	0.110	-0.090	0.630
2020/01/31 03:20:43.6	96.840	0.100	-0.090	0.660
2020/01/31 03:20:43.7	96.830	0.090	-0.090	0.690
2020/01/31 03:20:43.8	96.830	0.080	-0.100	0.720
2020/01/31 03:20:43.9	96.820	0.070	-0.100	0.750
2020/01/31 03:20:44.0	96.810	0.060	-0.120	0.790
2020/01/31 03:20:44.1	96.800	0.050	-0.130	0.820
2020/01/31 03:20:44.2	96.780	0.050	-0.140	0.850
2020/01/31 03:20:44.3	96.770	0.040	-0.160	0.890
2020/01/31 03:20:44.4	96.750	0.040	-0.170	0.920
2020/01/31 03:20:44.5	96.740	0.040	-0.190	0.960
2020/01/31 03:20:44.6	96.720	0.030	-0.200	0.990
2020/01/31 03:20:44.7	96.710	0.030	-0.210	1.020
2020/01/31 03:20:44.8	96.690	0.030	-0.220	1.060
2020/01/31 03:20:44.9	96.680	0.020	-0.230	1.090
2020/01/31 03:20:45.0	96.660	0.020	-0.230	1.120
2020/01/31 03:20:45.1	96.640	0.010	-0.230	1.150
2020/01/31 03:20:45.2	96.630	-0.000	-0.230	1.180
2020/01/31 03:20:45.3	96.620	-0.010	-0.220	1.200
2020/01/31 03:20:45.4	96.610	-0.020	-0.210	1.230
2020/01/31 03:20:45.5	96.590	-0.060	-0.170	1.280
2020/01/31 03:20:45.6	96.580	-0.070	-0.140	1.310
2020/01/31 03:20:45.7				
2020/01/31 03:20:45.8	96.580	-0.100	-0.120	1.330
2020/01/31 03:20:45.9	96.570	-0.120	-0.080	1.360
2020/01/31 03:20:46.0	96.570	-0.150	-0.050	1.380
2020/01/31 03:20:46.1	96.560	-0.180	-0.010	1.400
2020/01/31 03:20:46.2	96.550	-0.240	0.070	1.430
2020/01/31 03:20:46.3				
2020/01/31 03:20:46.4	96.550	-0.270	0.110	1.440
2020/01/31 03:20:46.5	96.540	-0.310	0.150	1.450
2020/01/31 03:20:46.6	96.540	-0.350	0.190	1.460
2020/01/31 03:20:46.7	96.540	-0.390	0.230	1.460
2020/01/31 03:20:46.8	96.530	-0.420	0.270	1.460
2020/01/31 03:20:46.9	96.530	-0.460	0.300	1.450
2020/01/31 03:20:47.0	96.530	-0.500	0.330	1.440
2020/01/31 03:20:47.1	96.520	-0.530	0.360	1.430
2020/01/31 03:20:47.2	96.520	-0.570	0.390	1.410
2020/01/31 03:20:47.3	96.520	-0.600	0.400	1.390
2020/01/31 03:20:47.4	96.510	-0.630	0.420	1.370
2020/01/31 03:20:47.5	96.510	-0.660	0.420	1.340
2020/01/31 03:20:47.6	96.500	-0.680	0.420	1.310
2020/01/31 03:20:47.7	96.500	-0.700	0.410	1.270
2020/01/31 03:20:47.8	96.500	-0.710	0.400	1.240
2020/01/31 03:20:47.9	96.500	-0.720	0.380	1.200
2020/01/31 03:20:48.0	96.500	-0.730	0.350	1.160
2020/01/31 03:20:48.1	96.490	-0.730	0.310	1.110
2020/01/31 03:20:48.2	96.500	-0.710	0.210	1.020
2020/01/31 03:20:48.3	96.500	-0.700	0.160	0.980
2020/01/31 03:20:48.4	96.510	-0.670	0.090	0.940
2020/01/31 03:20:48.5				
2020/01/31 03:20:48.6	96.520	-0.650	0.020	0.900
2020/01/31 03:20:48.7				
2020/01/31 03:20:48.8	96.540	-0.580	-0.130	0.830
2020/01/31 03:20:48.9	96.550	-0.530	-0.220	0.800
2020/01/31 03:20:49.0	96.560	-0.480	-0.300	0.770
2020/01/31 03:20:49.1	96.570	-0.430	-0.390	0.750
2020/01/31 03:20:49.2	96.580	-0.380	-0.480	0.730
2020/01/31 03:20:49.3	96.590	-0.320	-0.570	0.710
2020/01/31 03:20:49.4	96.600	-0.260	-0.650	0.700
2020/01/31 03:20:49.5	96.610	-0.190	-0.740	0.690
2020/01/31 03:20:49.6	96.610	-0.130	-0.820	0.680
2020/01/31 03:20:49.7	96.620	-0.060	-0.900	0.670
2020/01/31 03:20:49.8	96.620	0.010	-0.970	0.660
2020/01/31 03:20:49.9	96.620	0.080	-1.030	0.660
2020/01/31 03:20:50.0	96.620	0.140	-1.090	0.650
2020/01/31 03:20:50.1	96.620	0.210	-1.140	0.650
2020/01/31 03:20:50.2	96.600	0.330	-1.220	0.640
2020/01/31 03:20:50.3	96.600	0.390	-1.250	0.630
2020/01/31 03:20:50.4				
2020/01/31 03:20:50.5	96.590	0.440	-1.260	0.620
2020/01/31 03:20:50.6	96.580	0.490	-1.260	0.610
2020/01/31 03:20:50.7	96.570	0.540	-1.260	0.600
2020/01/31 03:20:50.8	96.560	0.580	-1.240	0.590
2020/01/31 03:20:50.9	96.540	0.610	-1.220	0.580
2020/01/31 03:20:51.0	96.530	0.640	-1.180	0.560
2020/01/31 03:20:51.1	96.510	0.670	-1.130	0.540
2020/01/31 03:20:51.2	96.490	0.690	-1.080	0.520
2020/01/31 03:20:51.3	96.480	0.700	-1.010	0.510
2020/01/31 03:20:51.4	96.460	0.710	-0.940	0.490
2020/01/31 03:20:51.5	96.440	0.710	-0.860	0.470
2020/01/31 03:20:51.6	96.420	0.710	-0.780	0.460
2020/01/31 03:20:51.7	96.400	0.700	-0.690	0.440
2020/01/31 03:20:51.8	96.380	0.680	-0.590	0.430
2020/01/31 03:20:51.9	96.360	0.660	-0.490	0.420
2020/01/31 03:20:52.0	96.340	0.640	-0.390	0.410
2020/01/31 03:20:52.1	96.310	0.610	-0.280	0.410
2020/01/31 03:20:52.2	96.280	0.580	-0.170	0.400
2020/01/31 03:20:52.3	96.260	0.550	-0.070	0.400
2020/01/31 03:20:52.4	96.240	0.510	0.030	0.400
2020/01/31 03:20:52.5	96.210	0.470	0.130	0.410
2020/01/31 03:20:52.6	96.190	0.430	0.230	0.410
2020/01/31 03:20:52.7	96.160	0.380	0.320	0.420
2020/01/31 03:20:52.8	96.140	0.340	0.410	0.430
2020/01/31 03:20:52.9	96.120	0.290	0.490	0.440
2020/01/31 03:20:53.0	96.100	0.240	0.570	0.450
2020/01/31 03:20:53.1	96.070	0.190	0.630	0.460
2020/01/31 03:20:53.2	96.060	0.150	0.690	0.470
2020/01/31 03:20:53.3	96.050	0.100	0.740	0.480
2020/01/31 03:20:53.4	96.030	0.060	0.780	0.490
2020/01/31 03:20:53.5	96.020	0.010	0.820	0.500
2020/01/31 03:20:53.6	96.000	-0.030	0.840	0.510
2020/01/31 03:20:53.7	95.990	-0.060	0.850	0.510
2020/01/31 03:20:53.8	95.980	-0.100	0.860	0.510
2020/01/31 03:20:53.9	95.980	-0.130	0.850	0.510
2020/01/31 03:20:54.0	95.970	-0.160	0.840	0.510
2020/01/31 03:20:54.1	95.970	-0.190	0.810	0.500
2020/01/31 03:20:54.2	95.970	-0.210	0.780	0.490
2020/01/31 03:20:54.3	95.970	-0.230	0.740	0.470
2020/01/31 03:20:54.4	95.980	-0.250	0.690	0.460
2020/01/31 03:20:54.5	95.990	-0.260	0.630	0.440
2020/01/31 03:20:54.6	96.000	-0.270	0.560	0.420
2020/01/31 03:20:54.7	96.020	-0.270	0.490	0.400
2020/01/31 03:20:54.8	96.030	-0.270	0.410	0.380
2020/01/31 03:20:54.9	96.050	-0.270	0.320	0.370
2020/01/31 03:20:55.0	96.070	-0.260	0.230	0.350
2020/01/31 03:20:55.1	96.090	-0.250	0.140	0.330
2020/01/31 03:20:55.2	96.110	-0.230	0.050	0.320
2020/01/31 03:20:55.3	96.130	-0.220	-0.050	0.310
2020/01/31 03:20:55.4	96.150	-0.200	-0.150	0.310
2020/01/31 03:20:55.5	96.170	-0.170	-0.250	0.310
2020/01/31 03:20:55.6	96.190	-0.150	-0.350	0.310
2020/01/31 03:20:55.7	96.210	-0.120	-0.450	0.330
2020/01/31 03:20:55.8	96.220	-0.100	-0.540	0.340
2020/01/31 03:20:55.9	96.230	-0.070	-0.630	0.370
2020/01/31 03:20:56.0	96.240	-0.040	-0.710	0.400
2020/01/31 03:20:56.1	96.250	-0.010	-0.800	0.430
2020/01/31 03:20:56.2	96.250	0.020	-0.870	0.470
2020/01/31 03:20:56.3	96.250	0.040	-0.930	0.510
2020/01/31 03:20:56.4	96.240	0.070	-0.990	0.550
2020/01/31 03:20:56.5	96.240	0.090	-1.030	0.600
2020/01/31 03:20:56.6	96.230	0.120	-1.070	0.650
2020/01/31 03:20:56.7	96.220	0.140	-1.100	0.700
2020/01/31 03:20:56.8	96.200	0.150	-1.120	0.750
2020/01/31 03:20:56.9	96.180	0.160	-1.130	0.800
2020/01/31 03:20:57.0	96.160	0.170	-1.120	0.850
2020/01/31 03:20:57.1	96.140	0.180	-1.110	0.900
2020/01/31 03:20:57.2	96.110	0.180	-1.090	0.950
2020/01/31 03:20:57.3	96.090	0.180	-1.060	0.990
2020/01/31 03:20:57.4	96.060	0.170	-1.020	1.040
2020/01/31 03:20:57.5	96.030	0.160	-0.980	1.080
2020/01/31 03:20:57.6	96.000	0.150	-0.920	1.120
2020/01/31 03:20:57.7	95.970	0.130	-0.860	1.160
2020/01/31 03:20:57.8	95.940	0.110	-0.800	1.200
2020/01/31 03:20:57.9	95.910	0.080	-0.730	1.230
2020/01/31 03:20:58.0	95.880	0.050	-0.650	1.270
2020/01/31 03:20:58.1	95.850	0.020	-0.580	1.300
2020/01/31 03:20:58.2	95.810	-0.010	-0.500	1.320
2020/01/31 03:20:58.3	95.780	-0.040	-0.420	1.350
2020/01/31 03:20:58.4	95.750	-0.080	-0.340	1.380
2020/01/31 03:20:58.5	95.720	-0.110	-0.270	1.400
2020/01/31 03:20:58.6	95.690	-0.150	-0.200	1.420
2020/01/31 03:20:58.7	95.670	-0.190	-0.130	1.440
2020/01/31 03:20:58.8	95.640	-0.220	-0.060	1.450
2020/01/31 03:20:58.9	95.620	-0.260	-0.000	1.460
2020/01/31 03:20:59.0	95.600	-0.290	0.050	1.470
2020/01/31 03:20:59.1	95.560	-0.320	0.100	1.480
2020/01/31 03:20:59.2	95.540	-0.340	0.140	1.480
2020/01/31 03:20:59.3	95.530	-0.370	0.180	1.480
2020/01/31 03:20:59.4	95.510	-0.390	0.210	1.470
2020/01/31 03:20:59.5	95.500	-0.400	0.230	1.470
2020/01/31 03:20:59.6	95.490	-0.410	0.240	1.450
2020/01/31 03:20:59.7	95.480	-0.420	0.250	1.440
2020/01/31 03:20:59.8	95.470	-0.420	0.250	1.420
2020/01/31 03:20:59.9	95.460	-0.420	0.250	1.400
2020/01/31 03:21:00.0	95.460	-0.420	0.230	1.370
2020/01/31 03:21:00.1	95.460	-0.410	0.220	1.340
2020/01/31 03:21:00.2	95.450	-0.390	0.200	1.300
2020/01/31 03:21:00.3	95.450	-0.380	0.170	1.260
2020/01/31 03:21:00.4	95.450	-0.360	0.140	1.220
2020/01/31 03:21:00.5	95.460	-0.330	0.110	1.180
2020/01/31 03:21:00.6	95.460	-0.300	0.070	1.140
2020/01/31 03:21:00.7	95.460	-0.280	0.030	1.090
2020/01/31 03:21:00.8	95.470	-0.240	-0.000	1.050
2020/01/31 03:21:00.9	95.470	-0.210	-0.040	1.000
2020/01/31 03:21:01.0	95.480	-0.180	-0.080	0.960
2020/01/31 03:21:01.1	95.480	-0.140	-0.120	0.920
2020/01/31 03:21:01.2	95.480	-0.100	-0.170	0.870
2020/01/31 03:21:01.3	95.480	-0.070	-0.210	0.830
2020/01/31 03:21:01.4	95.480	-0.030	-0.240	0.790
2020/01/31 03:21:01.5	95.480	0.010	-0.280	0.760
2020/01/31 03:21:01.6	95.470	0.040	-0.310	0.720
2020/01/31 03:21:01.7	95.470	0.070	-0.340	0.690
2020/01/31 03:21:01.8	95.460	0.110	-0.360	0.670
2020/01/31 03:21:01.9	95.450	0.140	-0.380	0.640
2020/01/31 03:21:02.0	95.450	0.170	-0.400	0.620
2020/01/31 03:21:02.1	95.430	0.190	-0.410	0.600
2020/01/31 03:21:02.2	95.420	0.220	-0.420	0.580
2020/01/31 03:21:02.3	95.410	0.240	-0.430	0.560
2020/01/31 03:21:02.4	95.390	0.250	-0.420	0.550
2020/01/31 03:21:02.5	95.380	0.270	-0.420	0.540
2020/01/31 03:21:02.6	95.370	0.280	-0.410	0.540
2020/01/31 03:21:02.7	95.360	0.290	-0.390	0.530
2020/01/31 03:21:02.8	95.340	0.290	-0.370	0.530
2020/01/31 03:21:02.9	95.330	0.290	-0.350	0.540
2020/01/31 03:21:03.0	95.320	0.290	-0.320	0.540
2020/01/31 03:21:03.1	95.300	0.290	-0.290	0.550
2020/01/31 03:21:03.2	95.300	0.280	-0.250	0.560
2020/01/31 03:21:03.3	95.280	0.270	-0.220	0.580
2020/01/31 03:21:03.4	95.270	0.260	-0.180	0.590
2020/01/31 03:21:03.5	95.260	0.240	-0.150	0.610
2020/01/31 03:21:03.6	95.250	0.230	-0.110	0.640
2020/01/31 03:21:03.7	95.240	0.210	-0.080	0.660
2020/01/31 03:21:03.8	95.230	0.190	-0.050	0.680
2020/01/31 03:21:03.9	95.220	0.180	-0.020	0.710
2020/01/31 03:21:04.0	95.210	0.160	0.010	0.730
2020/01/31 03:21:04.1	95.210	0.140	0.030	0.750
2020/01/31 03:21:04.2	95.200	0.120	0.040	0.770
2020/01/31 03:21:04.3	95.200	0.110	0.050	0.790
2020/01/31 03:21:04.4	95.200	0.090	0.050	0.810
2020/01/31 03:21:04.5	95.200	0.080	0.050	0.820
2020/01/31 03:21:04.6	95.200	0.070	0.040	0.830
2020/01/31 03:21:04.7	95.210	0.060	0.020	0.840
2020/01/31 03:21:04.8	95.220	0.050	-0.010	0.850
2020/01/31 03:21:04.9	95.230	0.050	-0.040	0.850
2020/01/31 03:21:05.0	95.250	0.050	-0.070	0.850
2020/01/31 03:21:05.1	95.260	0.050	-0.110	0.840
2020/01/31 03:21:05.2	95.280	0.050	-0.160	0.840
2020/01/31 03:21:05.3	95.300	0.060	-0.210	0.830
2020/01/31 03:21:05.4	95.310	0.070	-0.260	0.830
2020/01/31 03:21:05.5	95.330	0.080	-0.310	0.820
2020/01/31 03:21:05.6	95.350	0.090	-0.360	0.820
2020/01/31 03:21:05.7	95.370	0.100	-0.420	0.810
2020/01/31 03:21:05.8	95.380	0.120	-0.470	0.810
2020/01/31 03:21:05.9	95.390	0.140	-0.520	0.810
2020/01/31 03:21:06.0	95.400	0.150	-0.560	0.810
2020/01/31 03:21:06.1	95.410	0.170	-0.610	0.810
2020/01/31 03:21:06.2	95.420	0.190	-0.640	0.820
2020/01/31 03:21:06.3	95.420	0.200	-0.670	0.820
2020/01/31 03:21:06.4	95.420	0.220	-0.690	0.830
2020/01/31 03:21:06.5	95.420	0.230	-0.700	0.840
2020/01/31 03:21:06.6	95.410	0.240	-0.700	0.860
2020/01/31 03:21:06.7	95.400	0.250	-0.690	0.870
2020/01/31 03:21:06.8	95.390	0.250	-0.680	0.890
2020/01/31 03:21:06.9	95.370	0.250	-0.660	0.910
2020/01/31 03:21:07.0	95.360	0.250	-0.620	0.930
2020/01/31 03:21:07.1	95.340	0.250	-0.580	0.950
2020/01/31 03:21:07.2	95.320	0.230	-0.530	0.980
2020/01/31 03:21:07.3	95.300	0.220	-0.470	1.000
2020/01/31 03:21:07.4	95.280	0.200	-0.410	1.030
2020/01/31 03:21:07.5	95.260	0.180	-0.340	1.060
2020/01/31 03:21:07.6	95.230	0.150	-0.270	1.080
2020/01/31 03:21:07.7	95.210	0.120	-0.190	1.110
2020/01/31 03:21:07.8	95.180	0.090	-0.110	1.130
2020/01/31 03:21:07.9	95.160	0.050	-0.030	1.160
2020/01/31 03:21:08.0	95.130	0.010	0.050	1.190
2020/01/31 03:21:08.1	95.110	-0.030	0.130	1.210
2020/01/31 03:21:08.2	95.080	-0.070	0.210	1.230
2020/01/31 03:21:08.3	95.060	-0.120	0.280	1.250
2020/01/31 03:21:08.4	95.040	-0.160	0.350	1.270
2020/01/31 03:21:08.5	95.010	-0.210	0.410	1.300
2020/01/31 03:21:08.6	94.990	-0.250	0.470	1.320
2020/01/31 03:21:08.7	94.970	-0.300	0.520	1.330
2020/01/31 03:21:08.8	94.940	-0.340	0.560	1.350
2020/01/31 03:21:08.9	94.920	-0.380	0.590	1.360
2020/01/31 03:21:09.0	94.910	-0.420	0.610	1.370
2020/01/31 03:21:09.1	94.890	-0.450	0.630	1.380
2020/01/31 03:21:09.2	94.880	-0.480	0.620	1.380
2020/01/31 03:21:09.3	94.870	-0.500	0.600	1.380
2020/01/31 03:21:09.4	94.860	-0.520	0.570	1.380
2020/01/31 03:21:09.5	94.850	-0.530	0.530	1.370
2020/01/31 03:21:09.6	94.840	-0.540	0.480	1.360
2020/01/31 03:21:09.7	94.840	-0.540	0.410	1.350
2020/01/31 03:21:09.8	94.840	-0.530	0.330	1.330
2020/01/31 03:21:09.9	94.840	-0.520	0.250	1.300
2020/01/31 03:21:10.0	94.850	-0.510	0.150	1.270
2020/01/31 03:21:10.1	94.860	-0.480	0.040	1.240
2020/01/31 03:21:10.2	94.870	-0.460	-0.070	1.200
2020/01/31 03:21:10.3	94.880	-0.420	-0.180	1.160
2020/01/31 03:21:10.4	94.900	-0.390	-0.300	1.120
2020/01/31 03:21:10.5	94.910	-0.350	-0.420	1.080
2020/01/31 03:21:10.6	94.920	-0.300	-0.540	1.040
2020/01/31 03:21:10.7	94.940	-0.250	-0.650	0.990
2020/01/31 03:21:10.8	94.950	-0.210	-0.770	0.950
2020/01/31 03:21:10.9	94.970	-0.150	-0.880	0.900
2020/01/31 03:21:11.0	94.980	-0.100	-0.980	0.860
2020/01/31 03:21:11.1	95.000	-0.050	-1.070	0.820
2020/01/31 03:21:11.2	95.000	-0.000	-1.160	0.770
2020/01/31 03:21:11.3	95.010	0.050	-1.230	0.730
2020/01/31 03:21:11.4	95.010	0.100	-1.300	0.700
2020/01/31 03:21:11.5	95.020	0.140	-1.340	0.670
2020/01/31 03:21:11.6	95.020	0.180	-1.370	0.640
2020/01/31 03:21:11.7	95.020	0.220	-1.390	0.620
2020/01/31 03:21:11.8	95.020	0.250	-1.390	0.600
2020/01/31 03:21:11.9	95.010	0.280	-1.370	0.590
2020/01/31 03:21:12.0	95.010	0.310	-1.340	0.590
2020/01/31 03:21:12.1	95.000	0.320	-1.290	0.580
2020/01/31 03:21:12.2	94.990	0.340	-1.230	0.580
2020/01/31 03:21:12.3	94.980	0.340	-1.150	0.590
2020/01/31 03:21:12.4	94.970	0.340	-1.060	0.610
2020/01/31 03:21:12.5	94.960	0.340	-0.950	0.630
2020/01/31 03:21:12.6	94.950	0.320	-0.830	0.650
2020/01/31 03:21:12.7	94.930	0.310	-0.710	0.680
2020/01/31 03:21:12.8	94.920	0.280	-0.580	0.710
2020/01/31 03:21:12.9	94.900	0.260	-0.440	0.740
2020/01/31 03:21:13.0	94.890	0.220	-0.290	0.780
2020/01/31 03:21:13.1	94.870	0.190	-0.150	0.810
2020/01/31 03:21:13.2	94.850	0.150	0.000	0.860
2020/01/31 03:21:13.3	94.840	0.100	0.150	0.890
2020/01/31 03:21:13.4	94.820	0.060	0.290	0.930
2020/01/31 03:21:13.5	94.810	0.010	0.420	0.970
2020/01/31 03:21:13.6	94.800	-0.040	0.550	1.000
2020/01/31 03:21:13.7	94.780	-0.090	0.660	1.030
2020/01/31 03:21:13.8	94.770	-0.140	0.770	1.060
2020/01/31 03:21:13.9	94.760	-0.190	0.860	1.090
2020/01/31 03:21:14.0	94.760	-0.230	0.940	1.110
2020/01/31 03:21:14.1	94.750	-0.270	1.000	1.130
2020/01/31 03:21:14.2	94.740	-0.310	1.050	1.140
2020/01/31 03:21:14.3	94.740	-0.340	1.070	1.150
2020/01/31 03:21:14.4	94.730	-0.370	1.090	1.160
2020/01/31 03:21:14.5	94.730	-0.390	1.080	1.160
2020/01/31 03:21:14.6	94.730	-0.410	1.050	1.160
2020/01/31 03:21:14.7	94.730	-0.420	1.010	1.150
2020/01/31 03:21:14.8	94.730	-0.420	0.950	1.140
2020/01/31 03:21:14.9	94.730	-0.420	0.880	1.130
2020/01/31 03:21:15.0	94.730	-0.410	0.790	1.110
2020/01/31 03:21:15.1	94.740	-0.390	0.680	1.090
2020/01/31 03:21:15.2	94.740	-0.360	0.560	1.070
2020/01/31 03:21:15.3	94.740	-0.330	0.430	1.050
2020/01/31 03:21:15.4	94.750	-0.290	0.290	1.020
2020/01/31 03:21:15.5	94.760	-0.250	0.150	0.990
2020/01/31 03:21:15.6	94.760	-0.200	-0.000	0.960
2020/01/31 03:21:15.7	94.770	-0.140	-0.160	0.930
2020/01/31 03:21:15.8	94.780	-0.090	-0.310	0.910
2020/01/31 03:21:15.9	94.790	-0.020	-0.470	0.880
2020/01/31 03:21:16.0	94.800	0.040	-0.620	0.850
2020/01/31 03:21:16.1	94.800	0.100	-0.760	0.830
2020/01/31 03:21:16.2	94.820	0.170	-0.900	0.800
2020/01/31 03:21:16.3	94.820	0.240	-1.030	0.790
2020/01/31 03:21:16.4	94.820	0.300	-1.150	0.770
2020/01/31 03:21:16.5	94.820	0.360	-1.250	0.760
2020/01/31 03:21:16.6	94.820	0.420	-1.340	0.750
2020/01/31 03:21:16.7	94.810	0.480	-1.420	0.740
2020/01/31 03:21:16.8	94.810	0.530	-1.470	0.730
2020/01/31 03:21:16.9	94.800	0.580	-1.520	0.720
2020/01/31 03:21:17.0	94.790	0.620	-1.540	0.710
2020/01/31 03:21:17.1	94.770	0.650	-1.550	0.710
2020/01/31 03:21:17.2	94.760	0.680	-1.540	0.700
2020/01/31 03:21:17.3	94.750	0.710	-1.510	0.700
2020/01/31 03:21:17.4	94.740	0.720	-1.470	0.700
2020/01/31 03:21:17.5	94.720	0.730	-1.410	0.710
2020/01/31 03:21:17.6	94.700	0.730	-1.340	0.710
2020/01/31 03:21:17.7	94.690	0.720	-1.250	0.720
2020/01/31 03:21:17.8	94.670	0.710	-1.150	0.730
2020/01/31 03:21:17.9	94.650	0.680	-1.040	0.740
2020/01/31 03:21:18.0	94.630	0.660	-0.910	0.760
2020/01/31 03:21:18.1	94.610	0.620	-0.780	0.770
2020/01/31 03:21:18.2	94.600	0.580	-0.640	0.780
2020/01/31 03:21:18.3	94.580	0.530	-0.500	0.800
2020/01/31 03:21:18.4	94.560	0.480	-0.350	0.810
2020/01/31 03:21:18.5	94.540	0.430	-0.210	0.830
2020/01/31 03:21:18.6	94.530	0.360	-0.060	0.840
2020/01/31 03:21:18.7	94.510	0.300	0.090	0.860
2020/01/31 03:21:18.8	94.500	0.230	0.230	0.870
2020/01/31 03:21:18.9	94.490	0.170	0.370	0.880
2020/01/31 03:21:19.0	94.470	0.090	0.500	0.900
2020/01/31 03:21:19.1	94.460	0.020	0.620	0.910
2020/01/31 03:21:19.2	94.450	-0.050	0.740	0.910
2020/01/31 03:21:19.3	94.440	-0.120	0.840	0.920
2020/01/31 03:21:19.4	94.440	-0.190	0.940	0.930
2020/01/31 03:21:19.5	94.430	-0.260	1.030	0.930
2020/01/31 03:21:19.6	94.420	-0.320	1.100	0.930
2020/01/31 03:21:19.7	94.410	-0.390	1.160	0.930
2020/01/31 03:21:19.8	94.410	-0.450	1.210	0.930
2020/01/31 03:21:19.9	94.400	-0.510	1.250	0.930
2020/01/31 03:21:20.0	94.400	-0.560	1.270	0.920
2020/01/31 03:21:20.1	94.400	-0.610	1.280	0.910
2020/01/31 03:21:20.2	94.400	-0.650	1.280	0.900
2020/01/31 03:21:20.3	94.400	-0.690	1.270	0.890
2020/01/31 03:21:20.4	94.400	-0.730	1.240	0.880
2020/01/31 03:21:20.5	94.400	-0.760	1.190	0.870
2020/01/31 03:21:20.6	94.400	-0.780	1.140	0.850
2020/01/31 03:21:20.7	94.390	-0.790	1.070	0.840
2020/01/31 03:21:20.8	94.390	-0.800	0.990	0.820
2020/01/31 03:21:20.9	94.390	-0.810	0.900	0.810
2020/01/31 03:21:21.0	94.390	-0.800	0.790	0.790
2020/01/31 03:21:21.1	94.390	-0.790	0.680	0.770
2020/01/31 03:21:21.2	94.390	-0.780	0.550	0.750
2020/01/31 03:21:21.3	94.380	-0.760	0.420	0.740
2020/01/31 03:21:21.4	94.380	-0.730	0.290	0.720
2020/01/31 03:21:21.5	94.380	-0.690	0.150	0.710
2020/01/31 03:21:21.6	94.380	-0.650	-0.000	0.700
2020/01/31 03:21:21.7	94.380	-0.610	-0.150	0.690
2020/01/31 03:21:21.8	94.380	-0.560	-0.300	0.680
2020/01/31 03:21:21.9	94.370	-0.500	-0.460	0.670
2020/01/31 03:21:22.0	94.370	-0.440	-0.610	0.660
2020/01/31 03:21:22.1	94.370	-0.380	-0.760	0.660
2020/01/31 03:21:22.2	94.370	-0.310	-0.910	0.650
2020/01/31 03:21:22.3	94.370	-0.250	-1.050	0.650
2020/01/31 03:21:22.4	94.380	-0.180	-1.180	0.650
2020/01/31 03:21:22.5	94.380	-0.110	-1.310	0.660
2020/01/31 03:21:22.6	94.380	-0.040	-1.420	0.660
2020/01/31 03:21:22.7	94.390	0.040	-1.530	0.670
2020/01/31 03:21:22.8	94.390	0.110	-1.620	0.680
2020/01/31 03:21:22.9	94.390	0.180	-1.710	0.690
2020/01/31 03:21:23.0	94.400	0.240	-1.770	0.710
2020/01/31 03:21:23.1	94.400	0.310	-1.830	0.720
2020/01/31 03:21:23.2	94.410	0.360	-1.870	0.740
2020/01/31 03:21:23.3	94.410	0.420	-1.890	0.770
2020/01/31 03:21:23.4	94.410	0.470	-1.900	0.790
2020/01/31 03:21:23.5	94.420	0.520	-1.900	0.820
2020/01/31 03:21:23.6	94.420	0.560	-1.870	0.850
2020/01/31 03:21:23.7	94.410	0.590	-1.840	0.880
2020/01/31 03:21:23.8	94.410	0.620	-1.790	0.910
2020/01/31 03:21:23.9	94.410	0.640	-1.720	0.940
2020/01/31 03:21:24.0	94.410	0.650	-1.650	0.980
2020/01/31 03:21:24.1	94.400	0.660	-1.560	1.010
2020/01/31 03:21:24.2	94.410	0.660	-1.460	1.040
2020/01/31 03:21:24.3	94.400	0.650	-1.350	1.070
2020/01/31 03:21:24.4	94.390	0.640	-1.240	1.100
2020/01/31 03:21:24.5	94.390	0.620	-1.110	1.130
2020/01/31 03:21:24.6	94.380	0.590	-0.990	1.160
2020/01/31 03:21:24.7	94.370	0.560	-0.850	1.190
2020/01/31 03:21:24.8	94.350	0.520	-0.720	1.210
2020/01/31 03:21:24.9	94.340	0.480	-0.580	1.240
2020/01/31 03:21:25.0	94.330	0.440	-0.440	1.260
2020/01/31 03:21:25.1	94.310	0.380	-0.300	1.280
2020/01/31 03:21:25.2	94.290	0.330	-0.160	1.290
2020/01/31 03:21:25.3	94.270	0.270	-0.030	1.300
2020/01/31 03:21:25.4	94.260	0.220	0.100	1.320
2020/01/31 03:21:25.5	94.240	0.160	0.230	1.330
2020/01/31 03:21:25.6	94.220	0.100	0.350	1.330
2020/01/31 03:21:25.7	94.200	0.040	0.460	1.340
2020/01/31 03:21:25.8	94.180	-0.030	0.560	1.350
2020/01/31 03:21:25.9	94.150	-0.080	0.660	1.350
2020/01/31 03:21:26.0	94.130	-0.140	0.750	1.350
2020/01/31 03:21:26.1	94.110	-0.200	0.830	1.350
2020/01/31 03:21:26.2	94.090	-0.250	0.900	1.340
2020/01/31 03:21:26.3	94.070	-0.310	0.960	1.340
2020/01/31 03:21:26.4	94.050	-0.350	1.010	1.330
2020/01/31 03:21:26.5	94.030	-0.400	1.050	1.320
2020/01/31 03:21:26.6	94.010	-0.440	1.080	1.310
2020/01/31 03:21:26.7	93.990	-0.480	1.100	1.290
2020/01/31 03:21:26.8	93.970	-0.510	1.120	1.280
2020/01/31 03:21:26.9	93.950	-0.540	1.120	1.260
2020/01/31 03:21:27.0	93.940	-0.570	1.120	1.240
2020/01/31 03:21:27.1	93.930	-0.590	1.100	1.210
2020/01/31 03:21:27.2	93.920	-0.610	1.080	1.180
2020/01/31 03:21:27.3	93.910	-0.620	1.050	1.150
2020/01/31 03:21:27.4	93.900	-0.630	1.020	1.120
2020/01/31 03:21:27.5	93.890	-0.630	0.970	1.090
2020/01/31 03:21:27.6	93.880	-0.630	0.920	1.050
2020/01/31 03:21:27.7	93.870	-0.630	0.870	1.010
2020/01/31 03:21:27.8	93.860	-0.620	0.800	0.970
2020/01/31 03:21:27.9	93.860	-0.610	0.740	0.930
2020/01/31 03:21:28.0	93.850	-0.590	0.660	0.880
2020/01/31 03:21:28.1	93.850	-0.560	0.580	0.840
2020/01/31 03:21:28.2	93.840	-0.540	0.500	0.790
2020/01/31 03:21:28.3	93.840	-0.510	0.410	0.740
2020/01/31 03:21:28.4	93.840	-0.470	0.320	0.690
2020/01/31 03:21:28.5	93.840	-0.430	0.230	0.650
2020/01/31 03:21:28.6	93.850	-0.390	0.140	0.600
2020/01/31 03:21:28.7	93.850	-0.340	0.050	0.550
2020/01/31 03:21:28.8	93.860	-0.290	-0.050	0.510
2020/01/31 03:21:28.9	93.870	-0.240	-0.140	0.460
2020/01/31 03:21:29.0	93.880	-0.180	-0.230	0.420
2020/01/31 03:21:29.1	93.890	-0.130	-0.330	0.370
2020/01/31 03:21:29.2	93.900	-0.070	-0.420	0.330
2020/01/31 03:21:29.3	93.920	-0.010	-0.510	0.290
2020/01/31 03:21:29.4	93.940	0.050	-0.590	0.240
2020/01/31 03:21:29.5	93.960	0.110	-0.670	0.210
2020/01/31 03:21:29.6	93.990	0.170	-0.750	0.170
2020/01/31 03:21:29.7	94.020	0.230	-0.830	0.130
2020/01/31 03:21:29.8	94.050	0.290	-0.890	0.100
2020/01/31 03:21:29.9	94.080	0.350	-0.960	0.070
2020/01/31 03:21:30.0	94.120	0.410	-1.010	0.050
2020/01/31 03:21:30.1	94.140	0.460	-1.060	0.030
2020/01/31 03:21:30.2	94.180	0.510	-1.100	0.010
2020/01/31 03:21:30.3	94.220	0.560	-1.140	-0.000
2020/01/31 03:21:30.4	94.260	0.600	-1.160	-0.010
2020/01/31 03:21:30.5	94.290	0.630	-1.180	-0.010
2020/01/31 03:21:30.6	94.330	0.670	-1.190	-0.010
2020/01/31 03:21:30.7	94.360	0.690	-1.180	-0.000
2020/01/31 03:21:30.8	94.390	0.710	-1.170	0.010
2020/01/31 03:21:30.9	94.420	0.730	-1.150	0.020
2020/01/31 03:21:31.0	94.450	0.740	-1.130	0.040
2020/01/31 03:21:31.1	94.470	0.740	-1.090	0.070
2020/01/31 03:21:31.2	94.490	0.740	-1.040	0.090
2020/01/31 03:21:31.3	94.510	0.730	-0.990	0.120
2020/01/31 03:21:31.4	94.520	0.720	-0.930	0.150
2020/01/31 03:21:31.5	94.530	0.690	-0.860	0.190
2020/01/31 03:21:31.6	94.540	0.670	-0.780	0.230
2020/01/31 03:21:31.7	94.540	0.640	-0.690	0.270
2020/01/31 03:21:31.8	94.540	0.600	-0.600	0.320
2020/01/31 03:21:31.9	94.530	0.560	-0.510	0.360
2020/01/31 03:21:32.0	94.520	0.510	-0.410	0.410
2020/01/31 03:21:32.1	94.500	0.460	-0.310	0.470
2020/01/31 03:21:32.2	94.480	0.400	-0.210	0.520
2020/01/31 03:21:32.3	94.450	0.340	-0.100	0.570
2020/01/31 03:21:32.4	94.420	0.280	-0.000	0.630
2020/01/31 03:21:32.5	94.390	0.220	0.100	0.680
2020/01/31 03:21:32.6	94.360	0.150	0.200	0.740
2020/01/31 03:21:32.7	94.320	0.090	0.290	0.800
2020/01/31 03:21:32.8	94.280	0.020	0.380	0.850
2020/01/31 03:21:32.9	94.240	-0.050	0.470	0.910
2020/01/31 03:21:33.0	94.190	-0.120	0.550	0.960
2020/01/31 03:21:33.1	94.150	-0.180	0.620	1.020
2020/01/31 03:21:33.2	94.100	-0.250	0.690	1.070
2020/01/31 03:21:33.3	94.050	-0.310	0.750	1.110
2020/01/31 03:21:33.4	94.010	-0.370	0.790	1.160
2020/01/31 03:21:33.5	93.960	-0.430	0.830	1.200
2020/01/31 03:21:33.6	93.910	-0.490	0.850	1.240
2020/01/31 03:21:33.7	93.860	-0.530	0.860	1.270
2020/01/31 03:21:33.8	93.820	-0.580	0.860	1.310
2020/01/31 03:21:33.9	93.780	-0.610	0.850	1.330
2020/01/31 03:21:34.0	93.740	-0.650	0.820	1.360
2020/01/31 03:21:34.1	93.700	-0.670	0.780	1.380
2020/01/31 03:21:34.2	93.670	-0.690	0.730	1.390
2020/01/31 03:21:34.3	93.640	-0.690	0.660	1.400
2020/01/31 03:21:34.4	93.610	-0.700	0.580	1.410
2020/01/31 03:21:34.5	93.580	-0.690	0.480	1.410
2020/01/31 03:21:34.6	93.560	-0.670	0.370	1.410
2020/01/31 03:21:34.7	93.540	-0.650	0.250	1.400
2020/01/31 03:21:34.8	93.520	-0.620	0.120	1.390
2020/01/31 03:21:34.9	93.510	-0.570	-0.020	1.370
2020/01/31 03:21:35.0	93.510	-0.530	-0.170	1.350
2020/01/31 03:21:35.1	93.500	-0.470	-0.320	1.320
2020/01/31 03:21:35.2	93.510	-0.410	-0.480	1.290
2020/01/31 03:21:35.3	93.510	-0.340	-0.650	1.250
2020/01/31 03:21:35.4	93.520	-0.270	-0.810	1.210
2020/01/31 03:21:35.5	93.540	-0.190	-0.970	1.170
2020/01/31 03:21:35.6	93.560	-0.110	-1.120	1.130
2020/01/31 03:21:35.7	93.580	-0.020	-1.280	1.080
2020/01/31 03:21:35.8	93.610	0.060	-1.420	1.040
2020/01/31 03:21:35.9	93.640	0.150	-1.550	0.990
2020/01/31 03:21:36.0	93.670	0.230	-1.670	0.940
2020/01/31 03:21:36.1	93.710	0.310	-1.780	0.900
2020/01/31 03:21:36.2	93.740	0.390	-1.870	0.860
2020/01/31 03:21:36.3	93.780	0.460	-1.950	0.820
2020/01/31 03:21:36.4	93.810	0.530	-2.010	0.780
2020/01/31 03:21:36.5	93.850	0.600	-2.040	0.750
2020/01/31 03:21:36.6	93.880	0.650	-2.060	0.730
2020/01/31 03:21:36.7	93.910	0.700	-2.060	0.710
2020/01/31 03:21:36.8	93.940	0.740	-2.040	0.690
2020/01/31 03:21:36.9	93.960	0.780	-2.000	0.680
2020/01/31 03:21:37.0	93.980	0.800	-1.940	0.680
2020/01/31 03:21:37.1	94.010	0.820	-1.870	0.670
2020/01/31 03:21:37.2	94.030	0.820	-1.770	0.680
2020/01/31 03:21:37.3	94.050	0.820	-1.660	0.690
2020/01/31 03:21:37.4	94.060	0.810	-1.530	0.700
2020/01/31 03:21:37.5	94.070	0.790	-1.380	0.720
2020/01/31 03:21:37.6	94.080	0.760	-1.220	0.750
2020/01/31 03:21:37.7	94.080	0.720	-1.050	0.770
2020/01/31 03:21:37.8	94.080	0.670	-0.870	0.800
2020/01/31 03:21:37.9	94.080	0.620	-0.690	0.840
2020/01/31 03:21:38.0	94.080	0.560	-0.500	0.870
2020/01/31 03:21:38.1	94.070	0.490	-0.300	0.910
2020/01/31 03:21:38.2	94.060	0.420	-0.090	0.950
2020/01/31 03:21:38.3	94.050	0.350	0.110	0.990
2020/01/31 03:21:38.4	94.030	0.270	0.300	1.020
2020/01/31 03:21:38.5	94.020	0.180	0.490	1.060
2020/01/31 03:21:38.6	94.000	0.100	0.680	1.090
2020/01/31 03:21:38.7	93.980	0.010	0.860	1.120
2020/01/31 03:21:38.8	93.960	-0.080	1.030	1.140
2020/01/31 03:21:38.9	93.940	-0.160	1.190	1.160
2020/01/31 03:21:39.0	93.910	-0.250	1.340	1.180
2020/01/31 03:21:39.1	93.890	-0.330	1.480	1.190
2020/01/31 03:21:39.2	93.860	-0.410	1.600	1.200
2020/01/31 03:21:39.3	93.840	-0.490	1.710	1.200
2020/01/31 03:21:39.4	93.810	-0.570	1.800	1.200
2020/01/31 03:21:39.5	93.790	-0.640	1.880	1.200
2020/01/31 03:21:39.6	93.760	-0.700	1.940	1.190
2020/01/31 03:21:39.7	93.740	-0.770	1.980	1.170
2020/01/31 03:21:39.8	93.710	-0.820	2.010	1.150
2020/01/31 03:21:39.9	93.690	-0.870	2.020	1.130
2020/01/31 03:21:40.0	93.670	-0.910	2.010	1.110
2020/01/31 03:21:40.1	93.650	-0.940	1.980	1.080
2020/01/31 03:21:40.2	93.620	-0.970	1.940	1.040
2020/01/31 03:21:40.3	93.610	-0.990	1.880	1.010
2020/01/31 03:21:40.4	93.590	-1.000	1.800	0.970
2020/01/31 03:21:40.5	93.580	-1.010	1.710	0.930
2020/01/31 03:21:40.6	93.570	-1.000	1.600	0.890
2020/01/31 03:21:40.7	93.560	-0.990	1.480	0.850
2020/01/31 03:21:40.8	93.560	-0.970	1.350	0.800
2020/01/31 03:21:40.9	93.560	-0.940	1.200	0.750
2020/01/31 03:21:41.0	93.560	-0.910	1.050	0.700
2020/01/31 03:21:41.1	93.560	-0.870	0.880	0.650
2020/01/31 03:21:41.2	93.580	-0.820	0.710	0.590
2020/01/31 03:21:41.3	93.590	-0.770	0.530	0.540
2020/01/31 03:21:41.4	93.610	-0.710	0.340	0.480
2020/01/31 03:21:41.5	93.630	-0.640	0.160	0.420
2020/01/31 03:21:41.6	93.650	-0.580	-0.030	0.360
2020/01/31 03:21:41.7	93.670	-0.500	-0.220	0.300
2020/01/31 03:21:41.8	93.700	-0.430	-0.410	0.240
2020/01/31 03:21:41.9	93.730	-0.350	-0.590	0.180
2020/01/31 03:21:42.0	93.760	-0.270	-0.770	0.120
2020/01/31 03:21:42.1	93.790	-0.190	-0.940	0.060
2020/01/31 03:21:42.2	93.830	-0.110	-1.110	0.000
2020/01/31 03:21:42.3	93.860	-0.020	-1.270	-0.050
2020/01/31 03:21:42.4	93.900	0.060	-1.410	-0.100
2020/01/31 03:21:42.5	93.930	0.140	-1.550	-0.140
2020/01/31 03:21:42.6	93.970	0.220	-1.670	-0.170
2020/01/31 03:21:42.7	94.000	0.290	-1.770	-0.200
2020/01/31 03:21:42.8	94.040	0.360	-1.860	-0.220
2020/01/31 03:21:42.9	94.070	0.430	-1.940	-0.240
2020/01/31 03:21:43.0	94.100	0.490	-2.000	-0.240
2020/01/31 03:21:43.1	94.130	0.550	-2.040	-0.240
2020/01/31 03:21:43.2	94.150	0.600	-2.070	-0.240
2020/01/31 03:21:43.3	94.170	0.650	-2.070	-0.220
2020/01/31 03:21:43.4	94.190	0.690	-2.060	-0.200
2020/01/31 03:21:43.5	94.210	0.720	-2.030	-0.170
2020/01/31 03:21:43.6	94.230	0.740	-1.980	-0.130
2020/01/31 03:21:43.7	94.240	0.760	-1.920	-0.090
2020/01/31 03:21:43.8	94.250	0.770	-1.850	-0.030
2020/01/31 03:21:43.9	94.260	0.770	-1.760	0.020
2020/01/31 03:21:44.0	94.260	0.770	-1.650	0.080
2020/01/31 03:21:44.1	94.260	0.760	-1.540	0.150
2020/01/31 03:21:44.2	94.250	0.740	-1.400	0.220
2020/01/31 03:21:44.3	94.240	0.720	-1.270	0.290
2020/01/31 03:21:44.4	94.230	0.690	-1.130	0.360
2020/01/31 03:21:44.5	94.220	0.650	-0.980	0.440
2020/01/31 03:21:44.6	94.210	0.610	-0.830	0.510
2020/01/31 03:21:44.7	94.190	0.570	-0.680	0.590
2020/01/31 03:21:44.8	94.180	0.520	-0.530	0.670
2020/01/31 03:21:44.9	94.160	0.470	-0.380	0.740
2020/01/31 03:21:45.0	94.140	0.410	-0.230	0.810
2020/01/31 03:21:45.1	94.120	0.360	-0.090	0.880
2020/01/31 03:21:45.2	94.090	0.300	0.040	0.950
2020/01/31 03:21:45.3	94.070	0.240	0.170	1.010
2020/01/31 03:21:45.4	94.050	0.190	0.290	1.070
2020/01/31 03:21:45.5	94.030	0.130	0.400	1.120
2020/01/31 03:21:45.6	94.010	0.080	0.500	1.170
2020/01/31 03:21:45.7	93.990	0.020	0.580	1.220
2020/01/31 03:21:45.8	93.970	-0.030	0.660	1.260
2020/01/31 03:21:45.9	93.960	-0.070	0.720	1.290
2020/01/31 03:21:46.0	93.940	-0.110	0.760	1.310
2020/01/31 03:21:46.1	93.930	-0.150	0.790	1.330
2020/01/31 03:21:46.2	93.910	-0.180	0.810	1.340
2020/01/31 03:21:46.3	93.900	-0.200	0.820	1.350
2020/01/31 03:21:46.4	93.900	-0.220	0.810	1.340
2020/01/31 03:21:46.5	93.890	-0.240	0.780	1.340
2020/01/31 03:21:46.6	93.890	-0.250	0.750	1.330
2020/01/31 03:21:46.7	93.890	-0.250	0.710	1.310
2020/01/31 03:21:46.8	93.900	-0.250	0.650	1.290
2020/01/31 03:21:46.9	93.900	-0.240	0.590	1.270
2020/01/31 03:21:47.0	93.910	-0.230	0.520	1.250
2020/01/31 03:21:47.1	93.910	-0.220	0.440	1.220
2020/01/31 03:21:47.2	93.920	-0.200	0.360	1.190
2020/01/31 03:21:47.3	93.930	-0.170	0.270	1.160
2020/01/31 03:21:47.4	93.940	-0.150	0.180	1.130
2020/01/31 03:21:47.5	93.960	-0.120	0.090	1.090
2020/01/31 03:21:47.6	93.970	-0.080	0.000	1.060
2020/01/31 03:21:47.7	93.980	-0.050	-0.090	1.030
2020/01/31 03:21:47.8	94.000	-0.020	-0.180	1.000
2020/01/31 03:21:47.9	94.010	0.020	-0.260	0.970
2020/01/31 03:21:48.0	94.030	0.050	-0.340	0.940
2020/01/31 03:21:48.1	94.040	0.090	-0.420	0.910
2020/01/31 03:21:48.2	94.060	0.120	-0.490	0.880
2020/01/31 03:21:48.3	94.070	0.150	-0.550	0.860
2020/01/31 03:21:48.4	94.080	0.180	-0.610	0.840
2020/01/31 03:21:48.5	94.090	0.210	-0.660	0.810
2020/01/31 03:21:48.6	94.100	0.230	-0.700	0.800
2020/01/31 03:21:48.7	94.110	0.250	-0.730	0.780
2020/01/31 03:21:48.8	94.120	0.270	-0.760	0.760
2020/01/31 03:21:48.9	94.130	0.290	-0.770	0.750
2020/01/31 03:21:49.0	94.130	0.300	-0.780	0.740
2020/01/31 03:21:49.1	94.140	0.300	-0.770	0.730
2020/01/31 03:21:49.2	94.140	0.300	-0.760	0.720
2020/01/31 03:21:49.3	94.140	0.300	-0.740	0.710
2020/01/31 03:21:49.4	94.150	0.290	-0.710	0.700
2020/01/31 03:21:49.5	94.150	0.280	-0.670	0.700
2020/01/31 03:21:49.6	94.150	0.260	-0.620	0.690
2020/01/31 03:21:49.7	94.150	0.240	-0.560	0.690
2020/01/31 03:21:49.8	94.160	0.210	-0.500	0.690
2020/01/31 03:21:49.9	94.160	0.180	-0.440	0.680
2020/01/31 03:21:50.0	94.160	0.150	-0.370	0.680
2020/01/31 03:21:50.1	94.160	0.110	-0.290	0.680
2020/01/31 03:21:50.2	94.160	0.070	-0.220	0.680
2020/01/31 03:21:50.3	94.160	0.030	-0.140	0.690
2020/01/31 03:21:50.4	94.160	-0.010	-0.060	0.690
2020/01/31 03:21:50.5	94.170	-0.060	0.020	0.700
2020/01/31 03:21:50.6	94.180	-0.100	0.090	0.700
2020/01/31 03:21:50.7	94.180	-0.150	0.160	0.710
2020/01/31 03:21:50.8	94.190	-0.190	0.230	0.720
2020/01/31 03:21:50.9	94.200	-0.240	0.290	0.720
2020/01/31 03:21:51.0	94.210	-0.280	0.340	0.730
2020/01/31 03:21:51.1	94.230	-0.320	0.390	0.740
2020/01/31 03:21:51.2	94.240	-0.350	0.430	0.750
2020/01/31 03:21:51.3	94.260	-0.380	0.460	0.760
2020/01/31 03:21:51.4	94.270	-0.410	0.480	0.760
2020/01/31 03:21:51.5	94.290	-0.430	0.480	0.770
2020/01/31 03:21:51.6	94.310	-0.450	0.480	0.780
2020/01/31 03:21:51.7	94.330	-0.460	0.470	0.790
2020/01/31 03:21:51.8	94.350	-0.470	0.450	0.800
2020/01/31 03:21:51.9	94.360	-0.470	0.410	0.800
2020/01/31 03:21:52.0	94.380	-0.470	0.370	0.810
2020/01/31 03:21:52.1	94.400	-0.460	0.320	0.810
2020/01/31 03:21:52.2	94.410	-0.440	0.260	0.820
2020/01/31 03:21:52.3	94.430	-0.420	0.200	0.820
2020/01/31 03:21:52.4	94.440	-0.400	0.120	0.830
2020/01/31 03:21:52.5	94.460	-0.370	0.050	0.830
2020/01/31 03:21:52.6	94.470	-0.330	-0.030	0.840
2020/01/31 03:21:52.7	94.480	-0.290	-0.110	0.840
2020/01/31 03:21:52.8	94.480	-0.250	-0.200	0.840
2020/01/31 03:21:52.9	94.490	-0.210	-0.280	0.850
2020/01/31 03:21:53.0	94.490	-0.160	-0.360	0.860
2020/01/31 03:21:53.1	94.490	-0.110	-0.440	0.860
2020/01/31 03:21:53.2	94.480	-0.060	-0.510	0.870
2020/01/31 03:21:53.3	94.480	-0.010	-0.580	0.870
2020/01/31 03:21:53.4	94.470	0.040	-0.650	0.880
2020/01/31 03:21:53.5	94.460	0.090	-0.700	0.880
2020/01/31 03:21:53.6	94.450	0.130	-0.750	0.890
2020/01/31 03:21:53.7	94.440	0.180	-0.790	0.890
2020/01/31 03:21:53.8	94.430	0.220	-0.830	0.900
2020/01/31 03:21:53.9	94.410	0.260	-0.850	0.900
2020/01/31 03:21:54.0	94.400	0.290	-0.870	0.910
2020/01/31 03:21:54.1	94.380	0.330	-0.870	0.910
2020/01/31 03:21:54.2	94.370	0.350	-0.870	0.910
2020/01/31 03:21:54.3	94.350	0.380	-0.860	0.910
2020/01/31 03:21:54.4	94.340	0.400	-0.840	0.910
2020/01/31 03:21:54.5	94.330	0.410	-0.810	0.910
2020/01/31 03:21:54.6	94.310	0.420	-0.780	0.910
2020/01/31 03:21:54.7	94.300	0.430	-0.740	0.910
2020/01/31 03:21:54.8	94.290	0.430	-0.690	0.910
2020/01/31 03:21:54.9	94.280	0.430	-0.640	0.910
2020/01/31 03:21:55.0	94.270	0.420	-0.580	0.910
2020/01/31 03:21:55.1	94.270	0.410	-0.520	0.910
2020/01/31 03:21:55.2	94.260	0.400	-0.460	0.900
2020/01/31 03:21:55.3	94.260	0.380	-0.400	0.890
2020/01/31 03:21:55.4	94.260	0.360	-0.330	0.880
2020/01/31 03:21:55.5	94.260	0.340	-0.270	0.870
2020/01/31 03:21:55.6	94.260	0.310	-0.200	0.860
2020/01/31 03:21:55.7	94.270	0.290	-0.140	0.850
2020/01/31 03:21:55.8	94.280	0.260	-0.080	0.830
2020/01/31 03:21:55.9	94.290	0.240	-0.020	0.820
2020/01/31 03:21:56.0	94.300	0.210	0.030	0.800
2020/01/31 03:21:56.1	94.310	0.180	0.080	0.780
2020/01/31 03:21:56.2	94.320	0.160	0.130	0.760
2020/01/31 03:21:56.3	94.340	0.130	0.170	0.740
2020/01/31 03:21:56.4	94.360	0.110	0.210	0.710
2020/01/31 03:21:56.5	94.380	0.090	0.240	0.690
2020/01/31 03:21:56.6	94.400	0.070	0.270	0.660
2020/01/31 03:21:56.7	94.420	0.050	0.290	0.640
2020/01/31 03:21:56.8	94.440	0.040	0.300	0.610
2020/01/31 03:21:56.9	94.460	0.030	0.310	0.580
2020/01/31 03:21:57.0	94.480	0.020	0.310	0.560
2020/01/31 03:21:57.1	94.500	0.010	0.300	0.530
2020/01/31 03:21:57.2	94.510	0.010	0.290	0.500
2020/01/31 03:21:57.3	94.530	0.000	0.270	0.470
2020/01/31 03:21:57.4	94.550	0.010	0.240	0.450
2020/01/31 03:21:57.5	94.570	0.010	0.210	0.430
2020/01/31 03:21:57.6	94.580	0.020	0.180	0.410
2020/01/31 03:21:57.7	94.600	0.030	0.140	0.390
2020/01/31 03:21:57.8	94.610	0.040	0.090	0.370
2020/01/31 03:21:57.9	94.620	0.050	0.040	0.360
2020/01/31 03:21:58.0	94.630	0.060	-0.010	0.350
2020/01/31 03:21:58.1	94.630	0.080	-0.070	0.340
2020/01/31 03:21:58.2	94.630	0.090	-0.120	0.340
2020/01/31 03:21:58.3	94.630	0.110	-0.180	0.330
2020/01/31 03:21:58.4	94.630	0.120	-0.240	0.330
2020/01/31 03:21:58.5	94.630	0.130	-0.290	0.340
2020/01/31 03:21:58.6	94.630	0.150	-0.350	0.340
2020/01/31 03:21:58.7	94.620	0.160	-0.400	0.350
2020/01/31 03:21:58.8	94.620	0.170	-0.450	0.370
2020/01/31 03:21:58.9	94.610	0.180	-0.500	0.380
2020/01/31 03:21:59.0	94.600	0.180	-0.550	0.400
2020/01/31 03:21:59.1	94.600	0.190	-0.590	0.420
2020/01/31 03:21:59.2	94.590	0.190	-0.620	0.440
2020/01/31 03:21:59.3	94.580	0.190	-0.650	0.460
2020/01/31 03:21:59.4	94.570	0.180	-0.670	0.490
2020/01/31 03:21:59.5	94.560	0.170	-0.690	0.520
2020/01/31 03:21:59.6	94.550	0.160	-0.700	0.550
2020/01/31 03:21:59.7	94.540	0.150	-0.710	0.590
2020/01/31 03:21:59.8	94.530	0.130	-0.700	0.620
2020/01/31 03:21:59.9	94.520	0.110	-0.690	0.660
2020/01/31 03:22:00.0	94.510	0.080	-0.670	0.690
2020/01/31 03:22:00.1	94.500	0.050	-0.640	0.720
2020/01/31 03:22:00.2	94.500	0.020	-0.610	0.760
2020/01/31 03:22:00.3	94.490	-0.010	-0.570	0.790
2020/01/31 03:22:00.4	94.480	-0.050	-0.520	0.820
2020/01/31 03:22:00.5	94.470	-0.090	-0.470	0.850
2020/01/31 03:22:00.6	94.470	-0.130	-0.410	0.880
2020/01/31 03:22:00.7	94.460	-0.170	-0.350	0.910
2020/01/31 03:22:00.8	94.450	-0.220	-0.290	0.940
2020/01/31 03:22:00.9	94.450	-0.260	-0.220	0.960
2020/01/31 03:22:01.0	94.440	-0.310	-0.150	0.980
2020/01/31 03:22:01.1	94.440	-0.350	-0.080	1.000
2020/01/31 03:22:01.2	94.430	-0.400	-0.010	1.010
2020/01/31 03:22:01.3	94.430	-0.440	0.060	1.020
2020/01/31 03:22:01.4	94.430	-0.480	0.120	1.030
2020/01/31 03:22:01.5	94.430	-0.520	0.180	1.040
2020/01/31 03:22:01.6	94.430	-0.560	0.240	1.040
2020/01/31 03:22:01.7	94.430	-0.600	0.290	1.040
2020/01/31 03:22:01.8	94.430	-0.630	0.340	1.040
2020/01/31 03:22:01.9	94.430	-0.660	0.380	1.030
2020/01/31 03:22:02.0	94.440	-0.690	0.410	1.030
2020/01/31 03:22:02.1	94.450	-0.710	0.430	1.020
2020/01/31 03:22:02.2	94.450	-0.720	0.440	1.000
2020/01/31 03:22:02.3	94.460	-0.740	0.450	0.990
2020/01/31 03:22:02.4	94.470	-0.740	0.450	0.970
2020/01/31 03:22:02.5	94.490	-0.740	0.430	0.950
2020/01/31 03:22:02.6	94.500	-0.740	0.410	0.930
2020/01/31 03:22:02.7	94.520	-0.730	0.380	0.910
2020/01/31 03:22:02.8	94.530	-0.710	0.340	0.890
2020/01/31 03:22:02.9	94.550	-0.690	0.290	0.860
2020/01/31 03:22:03.0	94.570	-0.660	0.230	0.840
2020/01/31 03:22:03.1	94.600	-0.630	0.160	0.810
2020/01/31 03:22:03.2	94.620	-0.590	0.090	0.780
2020/01/31 03:22:03.3	94.640	-0.540	0.010	0.750
2020/01/31 03:22:03.4	94.670	-0.490	-0.070	0.720
2020/01/31 03:22:03.5	94.700	-0.440	-0.160	0.680
2020/01/31 03:22:03.6	94.730	-0.380	-0.250	0.650
2020/01/31 03:22:03.7	94.760	-0.320	-0.340	0.620
2020/01/31 03:22:03.8	94.790	-0.250	-0.440	0.580
2020/01/31 03:22:03.9	94.820	-0.180	-0.530	0.550
2020/01/31 03:22:04.0	94.850	-0.110	-0.620	0.520
2020/01/31 03:22:04.1	94.880	-0.040	-0.700	0.490
2020/01/31 03:22:04.2	94.910	0.030	-0.790	0.470
2020/01/31 03:22:04.3	94.930	0.100	-0.860	0.450
2020/01/31 03:22:04.4	94.960	0.180	-0.930	0.430
2020/01/31 03:22:04.5	94.970	0.250	-0.990	0.410
2020/01/31 03:22:04.6	94.990	0.310	-1.040	0.400
2020/01/31 03:22:04.7	95.000	0.380	-1.080	0.400
2020/01/31 03:22:04.8	95.000	0.440	-1.110	0.390
2020/01/31 03:22:04.9	95.000	0.500	-1.130	0.390
2020/01/31 03:22:05.0	95.000	0.550	-1.130	0.400
2020/01/31 03:22:05.1	94.990	0.600	-1.130	0.400
2020/01/31 03:22:05.2	94.980	0.640	-1.120	0.410
2020/01/31 03:22:05.3	94.960	0.680	-1.090	0.420
2020/01/31 03:22:05.4	94.940	0.710	-1.050	0.430
2020/01/31 03:22:05.5	94.920	0.730	-1.010	0.450
2020/01/31 03:22:05.6	94.890	0.750	-0.950	0.470
2020/01/31 03:22:05.7	94.860	0.760	-0.890	0.480
2020/01/31 03:22:05.8	94.830	0.770	-0.810	0.500
2020/01/31 03:22:05.9	94.790	0.770	-0.730	0.520
2020/01/31 03:22:06.0	94.750	0.760	-0.640	0.540
2020/01/31 03:22:06.1	94.710	0.750	-0.550	0.560
2020/01/31 03:22:06.2	94.680	0.730	-0.450	0.580
2020/01/31 03:22:06.3	94.640	0.700	-0.350	0.590
2020/01/31 03:22:06.4	94.600	0.670	-0.250	0.610
2020/01/31 03:22:06.5	94.550	0.640	-0.150	0.620
2020/01/31 03:22:06.6	94.510	0.600	-0.050	0.630
2020/01/31 03:22:06.7	94.480	0.560	0.050	0.640
2020/01/31 03:22:06.8	94.440	0.520	0.140	0.640
2020/01/31 03:22:06.9	94.400	0.470	0.230	0.640
2020/01/31 03:22:07.0	94.370	0.430	0.320	0.640
2020/01/31 03:22:07.1	94.340	0.380	0.390	0.630
2020/01/31 03:22:07.2	94.320	0.340	0.460	0.620
2020/01/31 03:22:07.3	94.300	0.290	0.520	0.600
2020/01/31 03:22:07.4	94.280	0.250	0.570	0.590
2020/01/31 03:22:07.5	94.270	0.210	0.610	0.570
2020/01/31 03:22:07.6	94.260	0.170	0.640	0.540
2020/01/31 03:22:07.7	94.250	0.130	0.660	0.510
2020/01/31 03:22:07.8	94.250	0.100	0.670	0.480
2020/01/31 03:22:07.9	94.250	0.070	0.670	0.450
2020/01/31 03:22:08.0	94.250	0.050	0.660	0.420
2020/01/31 03:22:08.1	94.260	0.030	0.640	0.380
2020/01/31 03:22:08.2	94.270	0.010	0.610	0.350
2020/01/31 03:22:08.3	94.280	0.000	0.570	0.320
2020/01/31 03:22:08.4	94.300	-0.000	0.520	0.290
2020/01/31 03:22:08.5	94.310	-0.000	0.470	0.260
2020/01/31 03:22:08.6	94.330	0.000	0.410	0.230
2020/01/31 03:22:08.7	94.350	0.010	0.350	0.200
2020/01/31 03:22:08.8	94.370	0.020	0.280	0.180
2020/01/31 03:22:08.9	94.390	0.030	0.210	0.160
2020/01/31 03:22:09.0	94.410	0.050	0.140	0.140
2020/01/31 03:22:09.1	94.430	0.060	0.060	0.110
2020/01/31 03:22:09.2	94.450	0.080	-0.020	0.100
2020/01/31 03:22:09.3	94.470	0.100	-0.090	0.080
2020/01/31 03:22:09.4	94.490	0.120	-0.160	0.070
2020/01/31 03:22:09.5	94.510	0.140	-0.230	0.060
2020/01/31 03:22:09.6	94.530	0.160	-0.290	0.050
2020/01/31 03:22:09.7	94.550	0.180	-0.350	0.040
2020/01/31 03:22:09.8	94.570	0.200	-0.410	0.040
2020/01/31 03:22:09.9	94.590	0.210	-0.460	0.040
2020/01/31 03:22:10.0	94.610	0.230	-0.510	0.040
2020/01/31 03:22:10.1	94.630	0.240	-0.560	0.050
2020/01/31 03:22:10.2	94.650	0.250	-0.600	0.070
2020/01/31 03:22:10.3	94.660	0.260	-0.630	0.090
2020/01/31 03:22:10.4	94.680	0.260	-0.650	0.120
2020/01/31 03:22:10.5	94.690	0.260	-0.680	0.150
2020/01/31 03:22:10.6	94.700	0.250	-0.690	0.190
2020/01/31 03:22:10.7	94.710	0.250	-0.700	0.240
2020/01/31 03:22:10.8	94.720	0.230	-0.700	0.290
2020/01/31 03:22:10.9	94.730	0.220	-0.700	0.340
2020/01/31 03:22:11.0	94.730	0.200	-0.690	0.400
2020/01/31 03:22:11.1	94.740	0.180	-0.680	0.460
2020/01/31 03:22:11.2	94.740	0.150	-0.660	0.530
2020/01/31 03:22:11.3	94.750	0.120	-0.640	0.600
2020/01/31 03:22:11.4	94.750	0.090	-0.620	0.670
2020/01/31 03:22:11.5	94.750	0.050	-0.590	0.740
2020/01/31 03:22:11.6	94.760	0.010	-0.560	0.800
2020/01/31 03:22:11.7	94.760	-0.030	-0.520	0.870
2020/01/31 03:22:11.8	94.770	-0.070	-0.480	0.940
2020/01/31 03:22:11.9	94.780	-0.120	-0.440	1.000
2020/01/31 03:22:12.0	94.790	-0.160	-0.400	1.060
2020/01/31 03:22:12.1	94.810	-0.210	-0.360	1.110
2020/01/31 03:22:12.2	94.820	-0.260	-0.320	1.160
2020/01/31 03:22:12.3	94.830	-0.310	-0.280	1.210
2020/01/31 03:22:12.4	94.850	-0.360	-0.230	1.250
2020/01/31 03:22:12.5	94.870	-0.400	-0.190	1.290
2020/01/31 03:22:12.6	94.890	-0.450	-0.150	1.330
2020/01/31 03:22:12.7	94.910	-0.490	-0.110	1.360
2020/01/31 03:22:12.8	94.930	-0.530	-0.080	1.380
2020/01/31 03:22:12.9	94.950	-0.570	-0.050	1.410
2020/01/31 03:22:13.0	94.960	-0.600	-0.010	1.430
2020/01/31 03:22:13.1	94.980	-0.640	0.020	1.450
2020/01/31 03:22:13.2	94.990	-0.660	0.040	1.460
2020/01/31 03:22:13.3	95.010	-0.690	0.060	1.480
2020/01/31 03:22:13.4	95.030	-0.710	0.080	1.490
2020/01/31 03:22:13.5	95.040	-0.730	0.100	1.510
2020/01/31 03:22:13.6	95.060	-0.740	0.110	1.520
2020/01/31 03:22:13.7	95.070	-0.740	0.130	1.530
2020/01/31 03:22:13.8	95.080	-0.750	0.130	1.540
2020/01/31 03:22:13.9	95.100	-0.750	0.140	1.540
2020/01/31 03:22:14.0	95.110	-0.740	0.140	1.550
2020/01/31 03:22:14.1	95.120	-0.730	0.140	1.550
2020/01/31 03:22:14.2	95.120	-0.720	0.140	1.550
2020/01/31 03:22:14.3	95.130	-0.700	0.130	1.550
2020/01/31 03:22:14.4	95.130	-0.680	0.120	1.550
2020/01/31 03:22:14.5	95.140	-0.650	0.110	1.540
2020/01/31 03:22:14.6	95.140	-0.620	0.100	1.530
2020/01/31 03:22:14.7	95.140	-0.590	0.080	1.520
2020/01/31 03:22:14.8	95.140	-0.550	0.060	1.510
2020/01/31 03:22:14.9	95.140	-0.520	0.040	1.490
2020/01/31 03:22:15.0	95.130	-0.480	0.020	1.480
2020/01/31 03:22:15.1	95.140	-0.440	-0.000	1.450
2020/01/31 03:22:15.2	95.130	-0.390	-0.030	1.430
2020/01/31 03:22:15.3	95.120	-0.350	-0.060	1.410
2020/01/31 03:22:15.4	95.110	-0.310	-0.090	1.380
2020/01/31 03:22:15.5	95.100	-0.260	-0.120	1.350
2020/01/31 03:22:15.6	95.080	-0.220	-0.150	1.320
2020/01/31 03:22:15.7	95.070	-0.170	-0.180	1.290
2020/01/31 03:22:15.8	95.050	-0.130	-0.220	1.250
2020/01/31 03:22:15.9	95.030	-0.090	-0.250	1.220
2020/01/31 03:22:16.0	95.010	-0.040	-0.280	1.180
2020/01/31 03:22:16.1	94.990	-0.000	-0.310	1.140
2020/01/31 03:22:16.2	94.970	0.040	-0.350	1.100
2020/01/31 03:22:16.3	94.950	0.070	-0.380	1.060
2020/01/31 03:22:16.4	94.930	0.110	-0.410	1.010
2020/01/31 03:22:16.5	94.910	0.140	-0.440	0.970
2020/01/31 03:22:16.6	94.890	0.170	-0.470	0.930
2020/01/31 03:22:16.7	94.870	0.200	-0.500	0.890
2020/01/31 03:22:16.8	94.850	0.230	-0.530	0.850
2020/01/31 03:22:16.9	94.840	0.250	-0.550	0.810
2020/01/31 03:22:17.0	94.820	0.280	-0.580	0.770
2020/01/31 03:22:17.1	94.810	0.300	-0.600	0.730
2020/01/31 03:22:17.2	94.800	0.320	-0.620	0.680
2020/01/31 03:22:17.3	94.790	0.330	-0.640	0.640
2020/01/31 03:22:17.4	94.780	0.350	-0.650	0.600
2020/01/31 03:22:17.5	94.770	0.360	-0.670	0.560
2020/01/31 03:22:17.6	94.770	0.370	-0.680	0.510
2020/01/31 03:22:17.7	94.770	0.380	-0.690	0.470
2020/01/31 03:22:17.8	94.770	0.390	-0.700	0.420
2020/01/31 03:22:17.9	94.780	0.390	-0.710	0.370
2020/01/31 03:22:18.0	94.780	0.390	-0.710	0.330
2020/01/31 03:22:18.1	94.790	0.400	-0.710	0.280
2020/01/31 03:22:18.2	94.790	0.400	-0.710	0.220
2020/01/31 03:22:18.3	94.810	0.400	-0.710	0.170
2020/01/31 03:22:18.4	94.830	0.400	-0.700	0.120
2020/01/31 03:22:18.5	94.850	0.390	-0.690	0.070
2020/01/31 03:22:18.6	94.870	0.390	-0.680	0.020
2020/01/31 03:22:18.7	94.900	0.390	-0.660	-0.030
2020/01/31 03:22:18.8	94.930	0.380	-0.640	-0.080
2020/01/31 03:22:18.9	94.960	0.380	-0.620	-0.120
2020/01/31 03:22:19.0	94.990	0.370	-0.600	-0.160
2020/01/31 03:22:19.1	95.030	0.360	-0.570	-0.200
2020/01/31 03:22:19.2	95.060	0.360	-0.540	-0.240
2020/01/31 03:22:19.3	95.090	0.350	-0.510	-0.270
2020/01/31 03:22:19.4	95.130	0.350	-0.470	-0.300
2020/01/31 03:22:19.5	95.170	0.340	-0.440	-0.320
2020/01/31 03:22:19.6	95.200	0.340	-0.400	-0.330
2020/01/31 03:22:19.7	95.240	0.330	-0.360	-0.340
2020/01/31 03:22:19.8	95.280	0.320	-0.310	-0.340
2020/01/31 03:22:19.9	95.310	0.320	-0.270	-0.330
2020/01/31 03:22:20.0	95.340	0.310	-0.220	-0.320
2020/01/31 03:22:20.1	95.380	0.310	-0.170	-0.300
2020/01/31 03:22:20.2	95.410	0.300	-0.130	-0.280
2020/01/31 03:22:20.3	95.440	0.290	-0.080	-0.240
2020/01/31 03:22:20.4	95.470	0.290	-0.030	-0.210
2020/01/31 03:22:20.5	95.490	0.280	0.020	-0.170
2020/01/31 03:22:20.6	95.520	0.270	0.070	-0.120
2020/01/31 03:22:20.7	95.540	0.270	0.120	-0.080
2020/01/31 03:22:20.8	95.560	0.260	0.160	-0.020
2020/01/31 03:22:20.9	95.580	0.250	0.210	0.030
2020/01/31 03:22:21.0	95.600	0.240	0.250	0.090
2020/01/31 03:22:21.1	95.610	0.230	0.280	0.150
2020/01/31 03:22:21.2	95.620	0.220	0.320	0.210
2020/01/31 03:22:21.3	95.630	0.210	0.350	0.270
2020/01/31 03:22:21.4	95.640	0.190	0.370	0.340
2020/01/31 03:22:21.5	95.650	0.180	0.390	0.400
2020/01/31 03:22:21.6	95.660	0.170	0.410	0.460
2020/01/31 03:22:21.7	95.660	0.160	0.420	0.530
2020/01/31 03:22:21.8	95.660	0.150	0.420	0.590
2020/01/31 03:22:21.9	95.660	0.130	0.420	0.650
2020/01/31 03:22:22.0	95.660	0.120	0.410	0.720
2020/01/31 03:22:22.1	95.660	0.110	0.400	0.770
2020/01/31 03:22:22.2	95.650	0.100	0.380	0.830
2020/01/31 03:22:22.3	95.650	0.080	0.350	0.890
2020/01/31 03:22:22.4	95.640	0.070	0.320	0.940
2020/01/31 03:22:22.5	95.630	0.060	0.290	0.990
2020/01/31 03:22:22.6	95.620	0.040	0.260	1.040
2020/01/31 03:22:22.7	95.600	0.030	0.220	1.090
2020/01/31 03:22:22.8	95.590	0.020	0.180	1.130
2020/01/31 03:22:22.9	95.580	0.000	0.140	1.160
2020/01/31 03:22:23.0	95.560	-0.010	0.110	1.200
2020/01/31 03:22:23.1	95.550	-0.030	0.070	1.220
2020/01/31 03:22:23.2	95.530	-0.040	0.020	1.240
2020/01/31 03:22:23.3	95.520	-0.060	-0.020	1.260
2020/01/31 03:22:23.4	95.510	-0.080	-0.050	1.270
2020/01/31 03:22:23.5	95.490	-0.090	-0.090	1.280
2020/01/31 03:22:23.6	95.480	-0.110	-0.120	1.280
2020/01/31 03:22:23.7	95.470	-0.130	-0.150	1.280
2020/01/31 03:22:23.8	95.460	-0.140	-0.180	1.280
2020/01/31 03:22:23.9	95.460	-0.160	-0.200	1.270
2020/01/31 03:22:24.0	95.450	-0.180	-0.220	1.250
2020/01/31 03:22:24.1	95.440	-0.190	-0.240	1.230
2020/01/31 03:22:24.2	95.440	-0.210	-0.260	1.210
2020/01/31 03:22:24.3	95.440	-0.220	-0.270	1.180
2020/01/31 03:22:24.4	95.440	-0.240	-0.280	1.150
2020/01/31 03:22:24.5	95.440	-0.250	-0.290	1.120
2020/01/31 03:22:24.6	95.450	-0.260	-0.290	1.090
2020/01/31 03:22:24.7	95.450	-0.270	-0.300	1.050
2020/01/31 03:22:24.8	95.470	-0.270	-0.300	1.010
2020/01/31 03:22:24.9	95.480	-0.280	-0.300	0.970
2020/01/31 03:22:25.0	95.500	-0.280	-0.300	0.920
2020/01/31 03:22:25.1	95.520	-0.280	-0.300	0.880
2020/01/31 03:22:25.2	95.550	-0.280	-0.310	0.820
2020/01/31 03:22:25.3	95.580	-0.270	-0.310	0.770
2020/01/31 03:22:25.4	95.600	-0.260	-0.310	0.720
2020/01/31 03:22:25.5	95.640	-0.250	-0.310	0.680
2020/01/31 03:22:25.6	95.670	-0.240	-0.310	0.630
2020/01/31 03:22:25.7	95.710	-0.230	-0.320	0.590
2020/01/31 03:22:25.8	95.740	-0.210	-0.320	0.540
2020/01/31 03:22:25.9	95.780	-0.190	-0.330	0.500
2020/01/31 03:22:26.0	95.810	-0.180	-0.340	0.470
2020/01/31 03:22:26.1	95.850	-0.160	-0.340	0.430
2020/01/31 03:22:26.2	95.890	-0.130	-0.350	0.410
2020/01/31 03:22:26.3	95.920	-0.110	-0.360	0.380
2020/01/31 03:22:26.4	95.960	-0.090	-0.370	0.350
2020/01/31 03:22:26.5	95.990	-0.070	-0.390	0.330
2020/01/31 03:22:26.6	96.020	-0.040	-0.400	0.310
2020/01/31 03:22:26.7	96.040	-0.020	-0.420	0.290
2020/01/31 03:22:26.8	96.070	0.000	-0.430	0.280
2020/01/31 03:22:26.9	96.090	0.020	-0.450	0.270
2020/01/31 03:22:27.0	96.110	0.040	-0.460	0.260
2020/01/31 03:22:27.1	96.120	0.060	-0.480	0.260
2020/01/31 03:22:27.2	96.140	0.080	-0.490	0.250
2020/01/31 03:22:27.3	96.150	0.090	-0.510	0.250
2020/01/31 03:22:27.4	96.160	0.110	-0.520	0.250
2020/01/31 03:22:27.5	96.160	0.120	-0.530	0.260
2020/01/31 03:22:27.6	96.160	0.130	-0.540	0.270
2020/01/31 03:22:27.7	96.160	0.130	-0.550	0.290
2020/01/31 03:22:27.8	96.150	0.140	-0.560	0.310
2020/01/31 03:22:27.9	96.140	0.140	-0.560	0.330
2020/01/31 03:22:28.0	96.130	0.140	-0.570	0.350
2020/01/31 03:22:28.1	96.120	0.140	-0.570	0.380
2020/01/31 03:22:28.2	96.110	0.130	-0.570	0.410
2020/01/31 03:22:28.3	96.090	0.130	-0.570	0.440
2020/01/31 03:22:28.4	96.080	0.120	-0.570	0.470
2020/01/31 03:22:28.5	96.060	0.110	-0.570	0.510
2020/01/31 03:22:28.6	96.040	0.090	-0.560	0.550
2020/01/31 03:22:28.7	96.030	0.080	-0.560	0.580
2020/01/31 03:22:28.8	96.010	0.060	-0.550	0.630
2020/01/31 03:22:28.9	95.990	0.050	-0.550	0.670
2020/01/31 03:22:29.0	95.980	0.030	-0.540	0.710
2020/01/31 03:22:29.1	95.970	0.010	-0.530	0.750
2020/01/31 03:22:29.2	95.950	-0.010	-0.520	0.790
2020/01/31 03:22:29.3	95.940	-0.030	-0.510	0.830
2020/01/31 03:22:29.4	95.920	-0.050	-0.490	0.870
2020/01/31 03:22:29.5	95.910	-0.070	-0.480	0.910
2020/01/31 03:22:29.6	95.900	-0.090	-0.470	0.940
2020/01/31 03:22:29.7	95.890	-0.110	-0.450	0.970
2020/01/31 03:22:29.8	95.880	-0.130	-0.430	1.000
2020/01/31 03:22:29.9	95.880	-0.150	-0.410	1.020
2020/01/31 03:22:30.0	95.870	-0.170	-0.390	1.040
2020/01/31 03:22:30.1	95.870	-0.190	-0.370	1.060
2020/01/31 03:22:30.2	95.850	-0.210	-0.350	1.070
2020/01/31 03:22:30.3	95.850	-0.230	-0.330	1.080
2020/01/31 03:22:30.4	95.840	-0.240	-0.300	1.080
2020/01/31 03:22:30.5	95.840	-0.260	-0.280	1.080
2020/01/31 03:22:30.6	95.840	-0.280	-0.250	1.080
2020/01/31 03:22:30.7	95.840	-0.290	-0.220	1.070
2020/01/31 03:22:30.8	95.830	-0.300	-0.190	1.060
2020/01/31 03:22:30.9	95.830	-0.320	-0.160	1.040
2020/01/31 03:22:31.0	95.830	-0.330	-0.130	1.020
2020/01/31 03:22:31.1	95.820	-0.340	-0.100	1.000
2020/01/31 03:22:31.2	95.820	-0.350	-0.070	0.970
2020/01/31 03:22:31.3	95.810	-0.360	-0.040	0.940
2020/01/31 03:22:31.4	95.810	-0.370	-0.010	0.910
2020/01/31 03:22:31.5	95.800	-0.380	0.030	0.880
2020/01/31 03:22:31.6	95.790	-0.380	0.060	0.860
2020/01/31 03:22:31.7	95.790	-0.390	0.090	0.830
2020/01/31 03:22:31.8	95.780	-0.390	0.120	0.800
2020/01/31 03:22:31.9	95.770	-0.400	0.140	0.770
2020/01/31 03:22:32.0	95.760	-0.400	0.170	0.740
2020/01/31 03:22:32.1	95.750	-0.400	0.200	0.720
2020/01/31 03:22:32.2	95.730	-0.400	0.220	0.690
2020/01/31 03:22:32.3	95.720	-0.390	0.240	0.670
2020/01/31 03:22:32.4	95.710	-0.390	0.250	0.650
2020/01/31 03:22:32.5	95.700	-0.380	0.260	0.630
2020/01/31 03:22:32.6	95.700	-0.380	0.270	0.610
2020/01/31 03:22:32.7	95.690	-0.370	0.280	0.590
2020/01/31 03:22:32.8	95.680	-0.350	0.280	0.580
2020/01/31 03:22:32.9	95.680	-0.340	0.270	0.560
2020/01/31 03:22:33.0	95.670	-0.320	0.260	0.550
2020/01/31 03:22:33.1	95.670	-0.300	0.250	0.530
2020/01/31 03:22:33.2	95.680	-0.280	0.230	0.520
2020/01/31 03:22:33.3	95.680	-0.260	0.210	0.500
2020/01/31 03:22:33.4	95.680	-0.230	0.180	0.490
2020/01/31 03:22:33.5	95.690	-0.200	0.140	0.470
2020/01/31 03:22:33.6	95.690	-0.170	0.110	0.440
2020/01/31 03:22:33.7	95.700	-0.140	0.070	0.420
2020/01/31 03:22:33.8	95.710	-0.100	0.020	0.390
2020/01/31 03:22:33.9	95.730	-0.070	-0.020	0.370
2020/01/31 03:22:34.0	95.740	-0.030	-0.070	0.340
2020/01/31 03:22:34.1	95.760	0.010	-0.120	0.310
2020/01/31 03:22:34.2	95.770	0.040	-0.180	0.280
2020/01/31 03:22:34.3	95.790	0.080	-0.230	0.250
2020/01/31 03:22:34.4	95.810	0.120	-0.280	0.220
2020/01/31 03:22:34.5	95.830	0.160	-0.330	0.190
2020/01/31 03:22:34.6	95.850	0.200	-0.370	0.170
2020/01/31 03:22:34.7	95.870	0.240	-0.420	0.150
2020/01/31 03:22:34.8	95.890	0.270	-0.460	0.120
2020/01/31 03:22:34.9	95.900	0.310	-0.500	0.110
2020/01/31 03:22:35.0	95.920	0.340	-0.540	0.090
2020/01/31 03:22:35.1	95.940	0.370	-0.570	0.080
2020/01/31 03:22:35.2	95.950	0.400	-0.590	0.070
2020/01/31 03:22:35.3	95.970	0.430	-0.610	0.070
2020/01/31 03:22:35.4	95.980	0.450	-0.630	0.070
2020/01/31 03:22:35.5	96.000	0.470	-0.640	0.080
2020/01/31 03:22:35.6	96.010	0.480	-0.640	0.090
2020/01/31 03:22:35.7	96.030	0.490	-0.640	0.100
2020/01/31 03:22:35.8	96.040	0.500	-0.620	0.120
2020/01/31 03:22:35.9	96.050	0.500	-0.610	0.140
2020/01/31 03:22:36.0	96.060	0.500	-0.580	0.160
2020/01/31 03:22:36.1	96.080	0.500	-0.550	0.190
2020/01/31 03:22:36.2	96.080	0.490	-0.520	0.220
2020/01/31 03:22:36.3	96.090	0.470	-0.480	0.260
2020/01/31 03:22:36.4	96.090	0.450	-0.430	0.290
2020/01/31 03:22:36.5	96.100	0.430	-0.380	0.330
2020/01/31 03:22:36.6	96.100	0.410	-0.320	0.370
2020/01/31 03:22:36.7	96.100	0.380	-0.260	0.410
2020/01/31 03:22:36.8	96.100	0.340	-0.200	0.450
2020/01/31 03:22:36.9	96.100	0.310	-0.140	0.490
2020/01/31 03:22:37.0	96.090	0.270	-0.070	0.530
2020/01/31 03:22:37.1	96.090	0.230	-0.000	0.570
2020/01/31 03:22:37.2	96.080	0.190	0.070	0.610
2020/01/31 03:22:37.3	96.070	0.150	0.130	0.650
2020/01/31 03:22:37.4	96.060	0.100	0.190	0.690
2020/01/31 03:22:37.5	96.050	0.060	0.250	0.730
2020/01/31 03:22:37.6	96.040	0.010	0.310	0.770
2020/01/31 03:22:37.7	96.020	-0.030	0.360	0.810
2020/01/31 03:22:37.8	96.010	-0.070	0.410	0.850
2020/01/31 03:22:37.9	96.000	-0.110	0.450	0.890
2020/01/31 03:22:38.0	95.980	-0.150	0.480	0.930
2020/01/31 03:22:38.1	95.960	-0.180	0.500	0.960
2020/01/31 03:22:38.2	95.950	-0.220	0.520	1.000
2020/01/31 03:22:38.3	95.930	-0.240	0.530	1.030
2020/01/31 03:22:38.4	95.920	-0.270	0.520	1.060
2020/01/31 03:22:38.5	95.900	-0.290	0.510	1.090
2020/01/31 03:22:38.6	95.890	-0.310	0.490	1.120
2020/01/31 03:22:38.7	95.880	-0.320	0.460	1.140
2020/01/31 03:22:38.8	95.860	-0.330	0.430	1.160
2020/01/31 03:22:38.9	95.860	-0.330	0.380	1.180
2020/01/31 03:22:39.0	95.850	-0.330	0.330	1.190
2020/01/31 03:22:39.1	95.830	-0.330	0.260	1.200
2020/01/31 03:22:39.2	95.830	-0.320	0.190	1.200
2020/01/31 03:22:39.3	95.830	-0.300	0.120	1.200
2020/01/31 03:22:39.4	95.830	-0.290	0.040	1.200
2020/01/31 03:22:39.5	95.840	-0.260	-0.050	1.190
2020/01/31 03:22:39.6	95.840	-0.240	-0.140	1.180
2020/01/31 03:22:39.7	95.850	-0.210	-0.240	1.160
2020/01/31 03:22:39.8	95.860	-0.170	-0.340	1.140
2020/01/31 03:22:39.9	95.870	-0.140	-0.440	1.120
2020/01/31 03:22:40.0	95.880	-0.100	-0.540	1.100
2020/01/31 03:22:40.1	95.900	-0.060	-0.640	1.080
2020/01/31 03:22:40.2	95.910	-0.010	-0.750	1.050
2020/01/31 03:22:40.3	95.920	0.030	-0.850	1.030
2020/01/31 03:22:40.4	95.930	0.080	-0.950	1.010
2020/01/31 03:22:40.5	95.940	0.130	-1.040	0.990
2020/01/31 03:22:40.6	95.950	0.170	-1.120	0.970
2020/01/31 03:22:40.7	95.960	0.220	-1.200	0.950
2020/01/31 03:22:40.8	95.960	0.270	-1.270	0.940
2020/01/31 03:22:40.9	95.970	0.310	-1.340	0.930
2020/01/31 03:22:41.0	95.970	0.350	-1.390	0.920
2020/01/31 03:22:41.1	95.970	0.390	-1.430	0.910
2020/01/31 03:22:41.2	95.960	0.430	-1.460	0.900
2020/01/31 03:22:41.3	95.950	0.460	-1.470	0.900
2020/01/31 03:22:41.4	95.950	0.490	-1.470	0.900
2020/01/31 03:22:41.5	95.940	0.510	-1.460	0.900
2020/01/31 03:22:41.6	95.930	0.530	-1.430	0.900
2020/01/31 03:22:41.7	95.920	0.540	-1.390	0.910
2020/01/31 03:22:41.8	95.910	0.550	-1.340	0.910
2020/01/31 03:22:41.9	95.900	0.550	-1.270	0.920
2020/01/31 03:22:42.0	95.890	0.550	-1.190	0.930
2020/01/31 03:22:42.1	95.870	0.540	-1.100	0.940
2020/01/31 03:22:42.2	95.850	0.520	-0.990	0.950
2020/01/31 03:22:42.3	95.840	0.500	-0.880	0.960
2020/01/31 03:22:42.4	95.820	0.480	-0.760	0.970
2020/01/31 03:22:42.5	95.810	0.440	-0.640	0.980
2020/01/31 03:22:42.6	95.790	0.410	-0.510	1.000
2020/01/31 03:22:42.7	95.780	0.370	-0.380	1.010
2020/01/31 03:22:42.8	95.770	0.330	-0.240	1.030
2020/01/31 03:22:42.9	95.750	0.280	-0.110	1.040
2020/01/31 03:22:43.0	95.740	0.230	0.030	1.050
2020/01/31 03:22:43.1	95.730	0.170	0.150	1.070
2020/01/31 03:22:43.2	95.720	0.120	0.280	1.080
2020/01/31 03:22:43.3	95.710	0.060	0.400	1.090
2020/01/31 03:22:43.4	95.710	0.010	0.510	1.100
2020/01/31 03:22:43.5	95.700	-0.050	0.610	1.110
2020/01/31 03:22:43.6	95.700	-0.100	0.700	1.110
2020/01/31 03:22:43.7	95.690	-0.160	0.780	1.110
2020/01/31 03:22:43.8	95.690	-0.210	0.850	1.110
2020/01/31 03:22:43.9	95.700	-0.260	0.910	1.110
2020/01/31 03:22:44.0	95.700	-0.310	0.950	1.100
2020/01/31 03:22:44.1	95.710	-0.360	0.980	1.090
2020/01/31 03:22:44.2	95.720	-0.400	1.000	1.080
2020/01/31 03:22:44.3	95.730	-0.440	1.010	1.060
2020/01/31 03:22:44.4	95.750	-0.470	1.000	1.040
2020/01/31 03:22:44.5	95.770	-0.500	0.970	1.010
2020/01/31 03:22:44.6	95.790	-0.530	0.940	0.980
2020/01/31 03:22:44.7	95.820	-0.550	0.890	0.950
2020/01/31 03:22:44.8	95.840	-0.570	0.830	0.920
2020/01/31 03:22:44.9	95.870	-0.580	0.760	0.880
2020/01/31 03:22:45.0	95.900	-0.590	0.680	0.850
2020/01/31 03:22:45.1	95.930	-0.590	0.590	0.810
2020/01/31 03:22:45.2	95.950	-0.590	0.490	0.770
2020/01/31 03:22:45.3	95.980	-0.590	0.390	0.730
2020/01/31 03:22:45.4	96.000	-0.580	0.290	0.700
2020/01/31 03:22:45.5	96.030	-0.570	0.180	0.670
2020/01/31 03:22:45.6	96.050	-0.550	0.070	0.640
2020/01/31 03:22:45.7	96.070	-0.540	-0.030	0.610
2020/01/31 03:22:45.8	96.090	-0.520	-0.140	0.590
2020/01/31 03:22:45.9	96.110	-0.500	-0.240	0.570
2020/01/31 03:22:46.0	96.120	-0.470	-0.340	0.550
2020/01/31 03:22:46.1	96.150	-0.450	-0.430	0.530
2020/01/31 03:22:46.2	96.160	-0.430	-0.520	0.520
2020/01/31 03:22:46.3	96.170	-0.410	-0.600	0.510
2020/01/31 03:22:46.4	96.180	-0.390	-0.660	0.500
2020/01/31 03:22:46.5	96.190	-0.360	-0.720	0.500
2020/01/31 03:22:46.6	96.200	-0.340	-0.770	0.500
2020/01/31 03:22:46.7	96.200	-0.330	-0.810	0.500
2020/01/31 03:22:46.8	96.200	-0.310	-0.840	0.510
2020/01/31 03:22:46.9	96.200	-0.290	-0.860	0.520
2020/01/31 03:22:47.0	96.200	-0.280	-0.880	0.540
2020/01/31 03:22:47.1	96.200	-0.270	-0.880	0.560
2020/01/31 03:22:47.2	96.190	-0.260	-0.870	0.580
2020/01/31 03:22:47.3	96.180	-0.250	-0.850	0.610
2020/01/31 03:22:47.4	96.170	-0.250	-0.830	0.630
2020/01/31 03:22:47.5	96.160	-0.240	-0.800	0.660
2020/01/31 03:22:47.6	96.150	-0.240	-0.760	0.700
2020/01/31 03:22:47.7	96.140	-0.240	-0.710	0.730
2020/01/31 03:22:47.8	96.130	-0.240	-0.670	0.770
2020/01/31 03:22:47.9	96.110	-0.250	-0.610	0.800
2020/01/31 03:22:48.0	96.100	-0.250	-0.560	0.840
2020/01/31 03:22:48.1	96.080	-0.250	-0.500	0.870
2020/01/31 03:22:48.2	96.050	-0.250	-0.440	0.910
2020/01/31 03:22:48.3	96.040	-0.260	-0.380	0.940
2020/01/31 03:22:48.4	96.020	-0.260	-0.320	0.970
2020/01/31 03:22:48.5	96.000	-0.260	-0.260	1.000
2020/01/31 03:22:48.6	95.990	-0.270	-0.200	1.030
2020/01/31 03:22:48.7	95.970	-0.270	-0.150	1.050
2020/01/31 03:22:48.8	95.960	-0.270	-0.100	1.070
2020/01/31 03:22:48.9	95.940	-0.260	-0.050	1.090
2020/01/31 03:22:49.0	95.930	-0.260	-0.010	1.110
2020/01/31 03:22:49.1	95.920	-0.260	0.030	1.130
2020/01/31 03:22:49.2	95.900	-0.250	0.070	1.130
2020/01/31 03:22:49.3	95.890	-0.240	0.100	1.140
2020/01/31 03:22:49.4	95.880	-0.230	0.120	1.140
2020/01/31 03:22:49.5	95.870	-0.220	0.140	1.140
2020/01/31 03:22:49.6	95.860	-0.210	0.150	1.140
2020/01/31 03:22:49.7	95.850	-0.190	0.150	1.130
2020/01/31 03:22:49.8	95.840	-0.170	0.150	1.120
2020/01/31 03:22:49.9	95.840	-0.150	0.140	1.100
2020/01/31 03:22:50.0	95.830	-0.130	0.120	1.080
2020/01/31 03:22:50.1	95.820	-0.100	0.100	1.050
2020/01/31 03:22:50.2	95.800	-0.080	0.070	1.030
2020/01/31 03:22:50.3	95.800	-0.050	0.040	1.000
2020/01/31 03:22:50.4	95.790	-0.020	-0.000	0.970
2020/01/31 03:22:50.5	95.780	0.010	-0.050	0.940
2020/01/31 03:22:50.6	95.770	0.050	-0.100	0.900
2020/01/31 03:22:50.7	95.760	0.080	-0.160	0.870
2020/01/31 03:22:50.8	95.750	0.120	-0.220	0.830
2020/01/31 03:22:50.9	95.740	0.160	-0.280	0.800
2020/01/31 03:22:51.0	95.730	0.190	-0.340	0.760
2020/01/31 03:22:51.1	95.730	0.230	-0.410	0.730
2020/01/31 03:22:51.2	95.720	0.270	-0.470	0.690
2020/01/31 03:22:51.3	95.710	0.310	-0.530	0.650
2020/01/31 03:22:51.4	95.700	0.340	-0.590	0.620
2020/01/31 03:22:51.5	95.690	0.380	-0.640	0.590
2020/01/31 03:22:51.6	95.680	0.410	-0.680	0.560
2020/01/31 03:22:51.7	95.680	0.440	-0.720	0.530
2020/01/31 03:22:51.8	95.670	0.470	-0.750	0.510
2020/01/31 03:22:51.9	95.660	0.490	-0.780	0.490
2020/01/31 03:22:52.0	95.650	0.510	-0.790	0.460
2020/01/31 03:22:52.1	95.640	0.530	-0.790	0.450
2020/01/31 03:22:52.2	95.640	0.540	-0.790	0.430
2020/01/31 03:22:52.3	95.630	0.550	-0.780	0.420
2020/01/31 03:22:52.4	95.620	0.550	-0.750	0.410
2020/01/31 03:22:52.5	95.620	0.550	-0.720	0.400
2020/01/31 03:22:52.6	95.610	0.550	-0.670	0.390
2020/01/31 03:22:52.7	95.600	0.540	-0.620	0.390
2020/01/31 03:22:52.8	95.600	0.530	-0.560	0.390
2020/01/31 03:22:52.9	95.590	0.510	-0.500	0.390
2020/01/31 03:22:53.0	95.590	0.490	-0.430	0.390
2020/01/31 03:22:53.1	95.590	0.470	-0.350	0.390
2020/01/31 03:22:53.2	95.590	0.440	-0.270	0.390
2020/01/31 03:22:53.3	95.580	0.410	-0.190	0.400
2020/01/31 03:22:53.4	95.580	0.380	-0.110	0.400
2020/01/31 03:22:53.5	95.580	0.340	-0.030	0.410
2020/01/31 03:22:53.6	95.580	0.310	0.050	0.420
2020/01/31 03:22:53.7	95.580	0.270	0.130	0.420
2020/01/31 03:22:53.8	95.580	0.230	0.200	0.430
2020/01/31 03:22:53.9	95.580	0.200	0.270	0.440
2020/01/31 03:22:54.0	95.590	0.160	0.340	0.450
2020/01/31 03:22:54.1	95.590	0.120	0.390	0.450
2020/01/31 03:22:54.2	95.600	0.090	0.440	0.460
2020/01/31 03:22:54.3	95.600	0.050	0.480	0.470
2020/01/31 03:22:54.4	95.610	0.020	0.510	0.470
2020/01/31 03:22:54.5	95.620	-0.010	0.540	0.480
2020/01/31 03:22:54.6	95.630	-0.030	0.550	0.490
2020/01/31 03:22:54.7	95.640	-0.060	0.550	0.500
2020/01/31 03:22:54.8	95.650	-0.080	0.550	0.510
2020/01/31 03:22:54.9	95.660	-0.090	0.530	0.510
2020/01/31 03:22:55.0	95.670	-0.100	0.500	0.520
2020/01/31 03:22:55.1	95.680	-0.110	0.460	0.530
2020/01/31 03:22:55.2	95.700	-0.110	0.420	0.540
2020/01/31 03:22:55.3	95.710	-0.110	0.370	0.550
2020/01/31 03:22:55.4	95.720	-0.110	0.310	0.560
2020/01/31 03:22:55.5	95.730	-0.100	0.240	0.570
2020/01/31 03:22:55.6	95.740	-0.090	0.170	0.580
2020/01/31 03:22:55.7	95.760	-0.070	0.090	0.590
2020/01/31 03:22:55.8	95.770	-0.060	0.010	0.610
2020/01/31 03:22:55.9	95.770	-0.040	-0.070	0.630
2020/01/31 03:22:56.0	95.780	-0.020	-0.150	0.640
2020/01/31 03:22:56.1	95.790	0.010	-0.230	0.660
2020/01/31 03:22:56.2	95.800	0.030	-0.310	0.680
2020/01/31 03:22:56.3	95.800	0.050	-0.380	0.710
2020/01/31 03:22:56.4	95.810	0.070	-0.450	0.730
2020/01/31 03:22:56.5	95.810	0.100	-0.510	0.760
2020/01/31 03:22:56.6	95.820	0.120	-0.570	0.780
2020/01/31 03:22:56.7	95.820	0.140	-0.620	0.810
2020/01/31 03:22:56.8	95.820	0.150	-0.670	0.840
2020/01/31 03:22:56.9	95.830	0.170	-0.700	0.870
2020/01/31 03:22:57.0	95.830	0.180	-0.730	0.890
2020/01/31 03:22:57.1	95.840	0.190	-0.750	0.920
2020/01/31 03:22:57.2	95.840	0.200	-0.760	0.950
2020/01/31 03:22:57.3	95.840	0.200	-0.760	0.980
2020/01/31 03:22:57.4	95.840	0.200	-0.760	1.020
2020/01/31 03:22:57.5	95.840	0.200	-0.740	1.050
2020/01/31 03:22:57.6	95.840	0.190	-0.720	1.070
2020/01/31 03:22:57.7	95.850	0.180	-0.690	1.100
2020/01/31 03:22:57.8	95.850	0.170	-0.660	1.130
2020/01/31 03:22:57.9	95.850	0.150	-0.620	1.160
2020/01/31 03:22:58.0	95.850	0.130	-0.570	1.180
2020/01/31 03:22:58.1	95.850	0.110	-0.520	1.210
2020/01/31 03:22:58.2	95.840	0.090	-0.470	1.230
2020/01/31 03:22:58.3	95.840	0.060	-0.410	1.250
2020/01/31 03:22:58.4	95.840	0.030	-0.360	1.270
2020/01/31 03:22:58.5	95.830	0.000	-0.300	1.290
2020/01/31 03:22:58.6	95.830	-0.030	-0.250	1.310
2020/01/31 03:22:58.7	95.820	-0.060	-0.200	1.320
2020/01/31 03:22:58.8	95.810	-0.090	-0.150	1.340
2020/01/31 03:22:58.9	95.800	-0.120	-0.100	1.350
2020/01/31 03:22:59.0	95.790	-0.150	-0.060	1.370
2020/01/31 03:22:59.1	95.770	-0.180	-0.020	1.380
2020/01/31 03:22:59.2	95.760	-0.210	0.010	1.390
2020/01/31 03:22:59.3	95.740	-0.230	0.040	1.400
2020/01/31 03:22:59.4	95.720	-0.260	0.060	1.410
2020/01/31 03:22:59.5	95.710	-0.280	0.070	1.420
2020/01/31 03:22:59.6	95.690	-0.300	0.080	1.430
2020/01/31 03:22:59.7	95.670	-0.320	0.080	1.440
2020/01/31 03:22:59.8	95.640	-0.340	0.070	1.450
2020/01/31 03:22:59.9	95.620	-0.350	0.060	1.450
2020/01/31 03:23:00.0	95.600	-0.360	0.040	1.450
2020/01/31 03:23:00.1	95.570	-0.370	0.010	1.450
2020/01/31 03:23:00.2	95.550	-0.380	-0.010	1.450
2020/01/31 03:23:00.3	95.520	-0.380	-0.050	1.450
2020/01/31 03:23:00.4	95.500	-0.390	-0.080	1.450
2020/01/31 03:23:00.5	95.470	-0.390	-0.120	1.440
2020/01/31 03:23:00.6	95.450	-0.390	-0.150	1.430
2020/01/31 03:23:00.7	95.420	-0.390	-0.190	1.420
2020/01/31 03:23:00.8	95.400	-0.390	-0.230	1.410
2020/01/31 03:23:00.9	95.380	-0.390	-0.270	1.390
2020/01/31 03:23:01.0	95.350	-0.390	-0.310	1.370
2020/01/31 03:23:01.1	95.330	-0.390	-0.340	1.350
2020/01/31 03:23:01.2	95.310	-0.390	-0.380	1.330
2020/01/31 03:23:01.3	95.290	-0.390	-0.410	1.310
2020/01/31 03:23:01.4	95.280	-0.390	-0.440	1.280
2020/01/31 03:23:01.5	95.260	-0.390	-0.460	1.260
2020/01/31 03:23:01.6	95.250	-0.380	-0.480	1.230
2020/01/31 03:23:01.7	95.240	-0.380	-0.490	1.200
2020/01/31 03:23:01.8	95.230	-0.380	-0.500	1.180
2020/01/31 03:23:01.9	95.220	-0.380	-0.510	1.150
2020/01/31 03:23:02.0	95.210	-0.380	-0.500	1.130
2020/01/31 03:23:02.1	95.210	-0.380	-0.500	1.110
2020/01/31 03:23:02.2	95.210	-0.380	-0.490	1.080
2020/01/31 03:23:02.3	95.200	-0.380	-0.470	1.050
2020/01/31 03:23:02.4	95.210	-0.380	-0.450	1.030
2020/01/31 03:23:02.5	95.210	-0.370	-0.430	1.010
2020/01/31 03:23:02.6	95.220	-0.370	-0.400	0.990
2020/01/31 03:23:02.7	95.220	-0.370	-0.370	0.960
2020/01/31 03:23:02.8	95.230	-0.360	-0.340	0.940
2020/01/31 03:23:02.9	95.240	-0.360	-0.310	0.920
2020/01/31 03:23:03.0	95.250	-0.350	-0.280	0.900
2020/01/31 03:23:03.1	95.270	-0.340	-0.240	0.870
2020/01/31 03:23:03.2	95.280	-0.330	-0.210	0.850
2020/01/31 03:23:03.3	95.300	-0.310	-0.180	0.820
2020/01/31 03:23:03.4	95.310	-0.300	-0.140	0.790
2020/01/31 03:23:03.5	95.330	-0.280	-0.110	0.770
2020/01/31 03:23:03.6	95.350	-0.260	-0.080	0.740
2020/01/31 03:23:03.7	95.360	-0.240	-0.060	0.710
2020/01/31 03:23:03.8	95.380	-0.220	-0.040	0.680
2020/01/31 03:23:03.9	95.400	-0.190	-0.020	0.650
2020/01/31 03:23:04.0	95.410	-0.160	-0.010	0.620
2020/01/31 03:23:04.1	95.420	-0.130	0.000	0.590
2020/01/31 03:23:04.2	95.440	-0.100	0.010	0.570
2020/01/31 03:23:04.3	95.450	-0.060	0.010	0.540
2020/01/31 03:23:04.4	95.460	-0.020	0.010	0.520
2020/01/31 03:23:04.5	95.460	0.020	-0.000	0.500
2020/01/31 03:23:04.6	95.460	0.060	-0.020	0.480
2020/01/31 03:23:04.7	95.460	0.100	-0.030	0.460
2020/01/31 03:23:04.8	95.460	0.150	-0.050	0.450
2020/01/31 03:23:04.9	95.450	0.190	-0.080	0.440
2020/01/31 03:23:05.0	95.440	0.240	-0.110	0.430
2020/01/31 03:23:05.1	95.430	0.280	-0.140	0.420
2020/01/31 03:23:05.2	95.420	0.330	-0.180	0.420
2020/01/31 03:23:05.3	95.410	0.370	-0.210	0.420
2020/01/31 03:23:05.4	95.390	0.410	-0.250	0.420
2020/01/31 03:23:05.5	95.380	0.460	-0.290	0.420
2020/01/31 03:23:05.6	95.360	0.490	-0.330	0.420
2020/01/31 03:23:05.7	95.340	0.530	-0.360	0.430
2020/01/31 03:23:05.8	95.330	0.570	-0.400	0.440
2020/01/31 03:23:05.9	95.310	0.600	-0.440	0.450
2020/01/31 03:23:06.0	95.300	0.630	-0.470	0.460
2020/01/31 03:23:06.1	95.290	0.650	-0.500	0.470
2020/01/31 03:23:06.2	95.270	0.670	-0.520	0.480
2020/01/31 03:23:06.3	95.250	0.690	-0.540	0.500
2020/01/31 03:23:06.4	95.250	0.700	-0.560	0.520
2020/01/31 03:23:06.5	95.240	0.700	-0.570	0.540
2020/01/31 03:23:06.6	95.230	0.700	-0.570	0.570
2020/01/31 03:23:06.7	95.220	0.700	-0.570	0.590
2020/01/31 03:23:06.8	95.220	0.690	-0.560	0.620
2020/01/31 03:23:06.9	95.210	0.680	-0.550	0.640
2020/01/31 03:23:07.0	95.210	0.660	-0.530	0.670
2020/01/31 03:23:07.1	95.210	0.630	-0.500	0.690
2020/01/31 03:23:07.2	95.210	0.600	-0.470	0.720
2020/01/31 03:23:07.3	95.210	0.570	-0.430	0.750
2020/01/31 03:23:07.4	95.210	0.530	-0.380	0.770
2020/01/31 03:23:07.5	95.220	0.490	-0.330	0.790
2020/01/31 03:23:07.6	95.220	0.440	-0.270	0.820
2020/01/31 03:23:07.7	95.220	0.390	-0.210	0.840
2020/01/31 03:23:07.8	95.230	0.330	-0.150	0.850
2020/01/31 03:23:07.9	95.230	0.270	-0.080	0.870
2020/01/31 03:23:08.0	95.240	0.210	-0.020	0.880
2020/01/31 03:23:08.1	95.250	0.150	0.050	0.890
2020/01/31 03:23:08.2	95.250	0.080	0.120	0.900
2020/01/31 03:23:08.3	95.250	0.020	0.190	0.910
2020/01/31 03:23:08.4	95.260	-0.050	0.250	0.910
2020/01/31 03:23:08.5	95.270	-0.110	0.310	0.920
2020/01/31 03:23:08.6	95.280	-0.180	0.370	0.920
2020/01/31 03:23:08.7	95.290	-0.240	0.420	0.920
2020/01/31 03:23:08.8	95.300	-0.300	0.470	0.910
2020/01/31 03:23:08.9	95.300	-0.350	0.510	0.910
2020/01/31 03:23:09.0	95.310	-0.410	0.540	0.910
2020/01/31 03:23:09.1	95.320	-0.450	0.560	0.910
2020/01/31 03:23:09.2	95.320	-0.500	0.580	0.900
2020/01/31 03:23:09.3	95.330	-0.540	0.590	0.910
2020/01/31 03:23:09.4	95.330	-0.570	0.590	0.910
2020/01/31 03:23:09.5	95.330	-0.600	0.590	0.910
2020/01/31 03:23:09.6	95.340	-0.620	0.570	0.920
2020/01/31 03:23:09.7	95.340	-0.640	0.540	0.930
2020/01/31 03:23:09.8	95.340	-0.640	0.510	0.930
2020/01/31 03:23:09.9	95.340	-0.650	0.470	0.940
2020/01/31 03:23:10.0	95.340	-0.640	0.420	0.960
2020/01/31 03:23:10.1	95.340	-0.630	0.360	0.970
2020/01/31 03:23:10.2	95.340	-0.610	0.290	0.990
2020/01/31 03:23:10.3	95.340	-0.590	0.220	1.000
2020/01/31 03:23:10.4	95.340	-0.560	0.140	1.010
2020/01/31 03:23:10.5	95.340	-0.520	0.060	1.020
2020/01/31 03:23:10.6	95.330	-0.480	-0.030	1.040
2020/01/31 03:23:10.7	95.330	-0.440	-0.120	1.050
2020/01/31 03:23:10.8	95.330	-0.380	-0.220	1.060
2020/01/31 03:23:10.9	95.330	-0.330	-0.320	1.070
2020/01/31 03:23:11.0	95.330	-0.260	-0.420	1.080
2020/01/31 03:23:11.1	95.310	-0.200	-0.530	1.090
2020/01/31 03:23:11.2	95.310	-0.130	-0.630	1.100
2020/01/31 03:23:11.3	95.300	-0.060	-0.730	1.100
2020/01/31 03:23:11.4	95.300	0.010	-0.830	1.110
2020/01/31 03:23:11.5	95.290	0.080	-0.920	1.120
2020/01/31 03:23:11.6	95.280	0.150	-1.010	1.120
2020/01/31 03:23:11.7	95.280	0.220	-1.100	1.130
2020/01/31 03:23:11.8	95.270	0.290	-1.170	1.130
2020/01/31 03:23:11.9	95.260	0.350	-1.240	1.130
2020/01/31 03:23:12.0	95.250	0.420	-1.310	1.130
2020/01/31 03:23:12.1	95.240	0.480	-1.360	1.120
2020/01/31 03:23:12.2	95.230	0.530	-1.400	1.120
2020/01/31 03:23:12.3	95.220	0.580	-1.430	1.120
2020/01/31 03:23:12.4	95.210	0.630	-1.450	1.110
2020/01/31 03:23:12.5	95.200	0.670	-1.460	1.110
2020/01/31 03:23:12.6	95.180	0.700	-1.450	1.100
2020/01/31 03:23:12.7	95.170	0.720	-1.430	1.100
2020/01/31 03:23:12.8	95.150	0.740	-1.400	1.090
2020/01/31 03:23:12.9	95.130	0.750	-1.360	1.090
2020/01/31 03:23:13.0	95.120	0.750	-1.300	1.090
2020/01/31 03:23:13.1	95.100	0.750	-1.230	1.090
2020/01/31 03:23:13.2	95.080	0.740	-1.150	1.080
2020/01/31 03:23:13.3	95.060	0.720	-1.060	1.080
2020/01/31 03:23:13.4	95.040	0.690	-0.960	1.070
2020/01/31 03:23:13.5	95.020	0.650	-0.850	1.070
2020/01/31 03:23:13.6	95.000	0.610	-0.730	1.060
2020/01/31 03:23:13.7	94.970	0.560	-0.610	1.050
2020/01/31 03:23:13.8	94.950	0.510	-0.480	1.050
2020/01/31 03:23:13.9	94.930	0.450	-0.340	1.030
2020/01/31 03:23:14.0	94.910	0.380	-0.210	1.020
2020/01/31 03:23:14.1	94.890	0.310	-0.060	1.010
2020/01/31 03:23:14.2	94.860	0.240	0.080	0.990
2020/01/31 03:23:14.3	94.840	0.160	0.210	0.970
2020/01/31 03:23:14.4	94.830	0.080	0.350	0.950
2020/01/31 03:23:14.5	94.810	-0.000	0.480	0.920
2020/01/31 03:23:14.6	94.790	-0.090	0.610	0.890
2020/01/31 03:23:14.7	94.780	-0.170	0.730	0.870
2020/01/31 03:23:14.8	94.770	-0.250	0.840	0.830
2020/01/31 03:23:14.9	94.760	-0.340	0.940	0.800
2020/01/31 03:23:15.0	94.750	-0.420	1.030	0.770
2020/01/31 03:23:15.1	94.750	-0.490	1.110	0.730
2020/01/31 03:23:15.2	94.750	-0.560	1.190	0.690
2020/01/31 03:23:15.3	94.750	-0.630	1.240	0.650
2020/01/31 03:23:15.4	94.750	-0.700	1.280	0.620
2020/01/31 03:23:15.5	94.760	-0.750	1.310	0.580
2020/01/31 03:23:15.6	94.760	-0.800	1.320	0.540
2020/01/31 03:23:15.7	94.770	-0.850	1.320	0.510
2020/01/31 03:23:15.8	94.780	-0.880	1.300	0.470
2020/01/31 03:23:15.9	94.790	-0.910	1.260	0.440
2020/01/31 03:23:16.0	94.810	-0.930	1.210	0.410
2020/01/31 03:23:16.1	94.820	-0.940	1.140	0.380
2020/01/31 03:23:16.2	94.830	-0.940	1.060	0.350
2020/01/31 03:23:16.3	94.850	-0.930	0.970	0.320
2020/01/31 03:23:16.4	94.870	-0.910	0.870	0.290
2020/01/31 03:23:16.5	94.890	-0.890	0.750	0.260
2020/01/31 03:23:16.6	94.910	-0.860	0.630	0.240
2020/01/31 03:23:16.7	94.930	-0.820	0.490	0.220
2020/01/31 03:23:16.8	94.950	-0.770	0.360	0.200
2020/01/31 03:23:16.9	94.960	-0.720	0.210	0.180
2020/01/31 03:23:17.0	94.980	-0.660	0.070	0.170
2020/01/31 03:23:17.1	95.010	-0.600	-0.080	0.160
2020/01/31 03:23:17.2	95.020	-0.530	-0.230	0.150
2020/01/31 03:23:17.3	95.040	-0.470	-0.370	0.150
2020/01/31 03:23:17.4	95.050	-0.390	-0.510	0.150
2020/01/31 03:23:17.5	95.060	-0.320	-0.640	0.160
2020/01/31 03:23:17.6	95.070	-0.250	-0.760	0.170
2020/01/31 03:23:17.7	95.080	-0.170	-0.870	0.180
2020/01/31 03:23:17.8	95.080	-0.100	-0.980	0.200
2020/01/31 03:23:17.9	95.080	-0.030	-1.070	0.220
2020/01/31 03:23:18.0	95.080	0.030	-1.150	0.240
2020/01/31 03:23:18.1	95.090	0.100	-1.220	0.260
2020/01/31 03:23:18.2	95.090	0.160	-1.280	0.290
2020/01/31 03:23:18.3	95.080	0.220	-1.320	0.320
2020/01/31 03:23:18.4	95.080	0.270	-1.350	0.350
2020/01/31 03:23:18.5	95.070	0.310	-1.370	0.380
2020/01/31 03:23:18.6	95.060	0.360	-1.380	0.410
2020/01/31 03:23:18.7	95.050	0.390	-1.370	0.440
2020/01/31 03:23:18.8	95.040	0.420	-1.350	0.480
2020/01/31 03:23:18.9	95.040	0.450	-1.320	0.510
2020/01/31 03:23:19.0	95.030	0.460	-1.280	0.550
2020/01/31 03:23:19.1	95.020	0.480	-1.220	0.580
2020/01/31 03:23:19.2	95.000	0.490	-1.160	0.620
2020/01/31 03:23:19.3	94.990	0.490	-1.090	0.650
2020/01/31 03:23:19.4	94.980	0.490	-1.020	0.690
2020/01/31 03:23:19.5	94.970	0.480	-0.940	0.720
2020/01/31 03:23:19.6	94.970	0.470	-0.860	0.750
2020/01/31 03:23:19.7	94.960	0.450	-0.770	0.780
2020/01/31 03:23:19.8	94.950	0.440	-0.690	0.810
2020/01/31 03:23:19.9	94.940	0.420	-0.600	0.840
2020/01/31 03:23:20.0	94.930	0.390	-0.510	0.860
2020/01/31 03:23:20.1	94.920	0.370	-0.430	0.890
2020/01/31 03:23:20.2	94.920	0.340	-0.340	0.900
2020/01/31 03:23:20.3	94.910	0.320	-0.260	0.920
2020/01/31 03:23:20.4	94.910	0.290	-0.190	0.940
2020/01/31 03:23:20.5	94.900	0.260	-0.110	0.960
2020/01/31 03:23:20.6	94.900	0.230	-0.050	0.980
2020/01/31 03:23:20.7	94.890	0.210	0.010	0.990
2020/01/31 03:23:20.8	94.890	0.180	0.070	1.010
2020/01/31 03:23:20.9	94.880	0.160	0.120	1.020
2020/01/31 03:23:21.0	94.880	0.130	0.170	1.040
2020/01/31 03:23:21.1	94.860	0.110	0.210	1.050
2020/01/31 03:23:21.2	94.850	0.090	0.240	1.060
2020/01/31 03:23:21.3	94.850	0.070	0.270	1.070
2020/01/31 03:23:21.4	94.840	0.050	0.300	1.080
2020/01/31 03:23:21.5	94.830	0.030	0.320	1.080
2020/01/31 03:23:21.6	94.820	0.010	0.330	1.090
2020/01/31 03:23:21.7	94.810	-0.000	0.340	1.090
2020/01/31 03:23:21.8	94.790	-0.020	0.340	1.090
2020/01/31 03:23:21.9	94.780	-0.030	0.340	1.090
2020/01/31 03:23:22.0	94.760	-0.040	0.330	1.080
2020/01/31 03:23:22.1	94.740	-0.050	0.320	1.080
2020/01/31 03:23:22.2	94.720	-0.050	0.300	1.060
2020/01/31 03:23:22.3	94.700	-0.060	0.280	1.060
2020/01/31 03:23:22.4	94.670	-0.060	0.260	1.050
2020/01/31 03:23:22.5	94.650	-0.060	0.230	1.040
2020/01/31 03:23:22.6	94.620	-0.060	0.190	1.020
2020/01/31 03:23:22.7	94.590	-0.060	0.150	1.010
2020/01/31 03:23:22.8	94.560	-0.050	0.110	1.000
2020/01/31 03:23:22.9	94.540	-0.050	0.060	0.990
2020/01/31 03:23:23.0	94.510	-0.040	0.020	0.980
2020/01/31 03:23:23.1	94.480	-0.030	-0.040	0.960
2020/01/31 03:23:23.2	94.440	-0.020	-0.090	0.950
2020/01/31 03:23:23.3	94.420	-0.010	-0.140	0.940
2020/01/31 03:23:23.4	94.390	0.000	-0.200	0.930
2020/01/31 03:23:23.5	94.370	0.020	-0.250	0.920
2020/01/31 03:23:23.6	94.340	0.030	-0.300	0.910
2020/01/31 03:23:23.7	94.320	0.050	-0.360	0.900
2020/01/31 03:23:23.8	94.300	0.060	-0.410	0.890
2020/01/31 03:23:23.9	94.290	0.080	-0.450	0.880
2020/01/31 03:23:24.0	94.280	0.090	-0.500	0.880
2020/01/31 03:23:24.1	94.270	0.100	-0.540	0.870
2020/01/31 03:23:24.2	94.270	0.120	-0.580	0.860
2020/01/31 03:23:24.3	94.270	0.130	-0.610	0.850
2020/01/31 03:23:24.4	94.270	0.140	-0.640	0.840
2020/01/31 03:23:24.5	94.270	0.150	-0.660	0.830
2020/01/31 03:23:24.6	94.280	0.160	-0.680	0.820
2020/01/31 03:23:24.7	94.290	0.160	-0.690	0.820
2020/01/31 03:23:24.8	94.310	0.160	-0.690	0.810
2020/01/31 03:23:24.9	94.330	0.170	-0.690	0.800
2020/01/31 03:23:25.0	94.350	0.160	-0.680	0.790
2020/01/31 03:23:25.1	94.370	0.160	-0.670	0.790
2020/01/31 03:23:25.2	94.400	0.150	-0.650	0.780
2020/01/31 03:23:25.3	94.420	0.150	-0.630	0.780
2020/01/31 03:23:25.4	94.450	0.140	-0.600	0.770
2020/01/31 03:23:25.5	94.480	0.120	-0.560	0.770
2020/01/31 03:23:25.6	94.510	0.110	-0.520	0.760
2020/01/31 03:23:25.7	94.540	0.090	-0.470	0.760
2020/01/31 03:23:25.8	94.570	0.070	-0.420	0.760
2020/01/31 03:23:25.9	94.590	0.050	-0.370	0.770
2020/01/31 03:23:26.0	94.620	0.030	-0.320	0.770
2020/01/31 03:23:26.1	94.650	0.010	-0.260	0.780
2020/01/31 03:23:26.2	94.670	-0.020	-0.200	0.780
2020/01/31 03:23:26.3	94.690	-0.040	-0.140	0.790
2020/01/31 03:23:26.4	94.710	-0.070	-0.080	0.810
2020/01/31 03:23:26.5	94.720	-0.090	-0.020	0.820
2020/01/31 03:23:26.6	94.740	-0.120	0.040	0.840
2020/01/31 03:23:26.7	94.750	-0.140	0.090	0.860
2020/01/31 03:23:26.8	94.760	-0.170	0.140	0.880
2020/01/31 03:23:26.9	94.760	-0.190	0.190	0.910
2020/01/31 03:23:27.0	94.770	-0.210	0.240	0.930
2020/01/31 03:23:27.1	94.770	-0.230	0.270	0.960
2020/01/31 03:23:27.2	94.780	-0.250	0.310	0.990
2020/01/31 03:23:27.3	94.780	-0.270	0.340	1.020
2020/01/31 03:23:27.4	94.780	-0.280	0.360	1.050
2020/01/31 03:23:27.5	94.780	-0.300	0.370	1.070
2020/01/31 03:23:27.6	94.770	-0.310	0.380	1.100
2020/01/31 03:23:27.7	94.770	-0.310	0.380	1.130
2020/01/31 03:23:27.8	94.770	-0.320	0.380	1.150
2020/01/31 03:23:27.9	94.760	-0.320	0.360	1.180
2020/01/31 03:23:28.0	94.760	-0.310	0.340	1.200
2020/01/31 03:23:28.1	94.750	-0.310	0.320	1.220
2020/01/31 03:23:28.2	94.740	-0.300	0.280	1.240
2020/01/31 03:23:28.3	94.730	-0.290	0.240	1.260
2020/01/31 03:23:28.4	94.730	-0.270	0.200	1.270
2020/01/31 03:23:28.5	94.720	-0.250	0.160	1.290
2020/01/31 03:23:28.6	94.710	-0.230	0.110	1.300
2020/01/31 03:23:28.7	94.710	-0.210	0.060	1.310
2020/01/31 03:23:28.8	94.700	-0.190	0.000	1.320
2020/01/31 03:23:28.9	94.700	-0.160	-0.050	1.330
2020/01/31 03:23:29.0	94.690	-0.130	-0.110	1.340
2020/01/31 03:23:29.1	94.690	-0.100	-0.170	1.340
2020/01/31 03:23:29.2	94.680	-0.070	-0.220	1.350
2020/01/31 03:23:29.3	94.680	-0.040	-0.280	1.350
2020/01/31 03:23:29.4	94.670	-0.010	-0.330	1.350
2020/01/31 03:23:29.5	94.660	0.030	-0.380	1.350
2020/01/31 03:23:29.6	94.660	0.060	-0.430	1.350
2020/01/31 03:23:29.7	94.650	0.100	-0.470	1.350
2020/01/31 03:23:29.8	94.650	0.130	-0.510	1.350
2020/01/31 03:23:29.9	94.640	0.160	-0.550	1.350
2020/01/31 03:23:30.0	94.640	0.200	-0.580	1.350
2020/01/31 03:23:30.1	94.640	0.230	-0.610	1.350
2020/01/31 03:23:30.2	94.630	0.260	-0.630	1.350
2020/01/31 03:23:30.3	94.620	0.290	-0.650	1.340
2020/01/31 03:23:30.4	94.620	0.310	-0.660	1.340
2020/01/31 03:23:30.5	94.610	0.340	-0.670	1.330
2020/01/31 03:23:30.6	94.600	0.360	-0.670	1.320
2020/01/31 03:23:30.7	94.590	0.380	-0.670	1.310
2020/01/31 03:23:30.8	94.590	0.400	-0.660	1.300
2020/01/31 03:23:30.9	94.580	0.410	-0.650	1.280
2020/01/31 03:23:31.0	94.570	0.420	-0.640	1.270
2020/01/31 03:23:31.1	94.560	0.430	-0.620	1.240
2020/01/31 03:23:31.2	94.550	0.440	-0.590	1.220
2020/01/31 03:23:31.3	94.540	0.440	-0.570	1.190
2020/01/31 03:23:31.4	94.530	0.430	-0.540	1.160
2020/01/31 03:23:31.5	94.520	0.430	-0.500	1.130
2020/01/31 03:23:31.6	94.510	0.420	-0.470	1.100
2020/01/31 03:23:31.7	94.510	0.410	-0.430	1.060
2020/01/31 03:23:31.8	94.500	0.390	-0.390	1.030
2020/01/31 03:23:31.9	94.490	0.370	-0.350	1.000
2020/01/31 03:23:32.0	94.490	0.350	-0.310	0.960
2020/01/31 03:23:32.1	94.480	0.330	-0.270	0.930
2020/01/31 03:23:32.2	94.480	0.300	-0.230	0.900
2020/01/31 03:23:32.3	94.470	0.280	-0.200	0.870
2020/01/31 03:23:32.4	94.470	0.250	-0.160	0.840
2020/01/31 03:23:32.5	94.470	0.220	-0.120	0.820
2020/01/31 03:23:32.6	94.470	0.190	-0.080	0.800
2020/01/31 03:23:32.7	94.470	0.160	-0.050	0.780
2020/01/31 03:23:32.8	94.470	0.120	-0.020	0.770
2020/01/31 03:23:32.9	94.480	0.090	0.010	0.760
2020/01/31 03:23:33.0	94.480	0.060	0.040	0.750
2020/01/31 03:23:33.1	94.480	0.030	0.060	0.750
2020/01/31 03:23:33.2	94.490	0.000	0.080	0.750
2020/01/31 03:23:33.3	94.490	-0.030	0.090	0.750
2020/01/31 03:23:33.4	94.500	-0.050	0.110	0.750
2020/01/31 03:23:33.5	94.510	-0.080	0.120	0.750
2020/01/31 03:23:33.6	94.520	-0.100	0.120	0.750
2020/01/31 03:23:33.7	94.520	-0.120	0.120	0.750
2020/01/31 03:23:33.8	94.530	-0.140	0.120	0.760
2020/01/31 03:23:33.9	94.540	-0.160	0.120	0.760
2020/01/31 03:23:34.0	94.550	-0.170	0.110	0.760
2020/01/31 03:23:34.1	94.560	-0.180	0.100	0.760
2020/01/31 03:23:34.2	94.570	-0.200	0.080	0.760
2020/01/31 03:23:34.3	94.580	-0.200	0.060	0.760
2020/01/31 03:23:34.4	94.590	-0.210	0.040	0.760
2020/01/31 03:23:34.5	94.600	-0.210	0.020	0.760
2020/01/31 03:23:34.6	94.610	-0.220	-0.000	0.760
2020/01/31 03:23:34.7	94.610	-0.220	-0.030	0.760
2020/01/31 03:23:34.8	94.620	-0.210	-0.060	0.760
2020/01/31 03:23:34.9	94.620	-0.210	-0.090	0.760
2020/01/31 03:23:35.0	94.620	-0.210	-0.120	0.770
2020/01/31 03:23:35.1	94.610	-0.200	-0.160	0.780
2020/01/31 03:23:35.2	94.620	-0.190	-0.190	0.790
2020/01/31 03:23:35.3	94.610	-0.180	-0.230	0.800
2020/01/31 03:23:35.4	94.600	-0.170	-0.270	0.810
2020/01/31 03:23:35.5	94.590	-0.150	-0.310	0.830
2020/01/31 03:23:35.6	94.580	-0.140	-0.350	0.850
2020/01/31 03:23:35.7	94.570	-0.120	-0.390	0.880
2020/01/31 03:23:35.8	94.560	-0.110	-0.430	0.900
2020/01/31 03:23:35.9	94.550	-0.090	-0.470	0.930
2020/01/31 03:23:36.0	94.540	-0.070	-0.500	0.960
2020/01/31 03:23:36.1	94.530	-0.050	-0.540	0.980
2020/01/31 03:23:36.2	94.520	-0.040	-0.580	1.010
2020/01/31 03:23:36.3	94.510	-0.020	-0.620	1.040
2020/01/31 03:23:36.4	94.500	-0.000	-0.650	1.060
2020/01/31 03:23:36.5	94.500	0.020	-0.680	1.090
2020/01/31 03:23:36.6	94.490	0.030	-0.710	1.110
2020/01/31 03:23:36.7	94.490	0.050	-0.730	1.130
2020/01/31 03:23:36.8	94.490	0.060	-0.750	1.150
2020/01/31 03:23:36.9	94.500	0.070	-0.760	1.170
2020/01/31 03:23:37.0	94.500	0.080	-0.770	1.180
2020/01/31 03:23:37.1	94.510	0.080	-0.770	1.200
2020/01/31 03:23:37.2	94.520	0.090	-0.770	1.200
2020/01/31 03:23:37.3	94.530	0.090	-0.760	1.210
2020/01/31 03:23:37.4	94.540	0.080	-0.740	1.220
2020/01/31 03:23:37.5	94.550	0.080	-0.720	1.230
2020/01/31 03:23:37.6	94.560	0.070	-0.690	1.230
2020/01/31 03:23:37.7	94.570	0.060	-0.650	1.230
2020/01/31 03:23:37.8	94.590	0.040	-0.610	1.230
2020/01/31 03:23:37.9	94.600	0.020	-0.560	1.230
2020/01/31 03:23:38.0	94.610	0.000	-0.510	1.230
2020/01/31 03:23:38.1	94.620	-0.020	-0.450	1.230
2020/01/31 03:23:38.2	94.630	-0.050	-0.390	1.220
2020/01/31 03:23:38.3	94.640	-0.080	-0.320	1.220
2020/01/31 03:23:38.4	94.650	-0.110	-0.250	1.210
2020/01/31 03:23:38.5	94.660	-0.140	-0.180	1.210
2020/01/31 03:23:38.6	94.670	-0.180	-0.100	1.200
2020/01/31 03:23:38.7	94.670	-0.210	-0.030	1.200
2020/01/31 03:23:38.8	94.670	-0.240	0.050	1.190
2020/01/31 03:23:38.9	94.680	-0.280	0.120	1.180
2020/01/31 03:23:39.0	94.680	-0.310	0.190	1.170
2020/01/31 03:23:39.1	94.680	-0.340	0.260	1.160
2020/01/31 03:23:39.2	94.670	-0.370	0.330	1.150
2020/01/31 03:23:39.3	94.670	-0.400	0.390	1.140
2020/01/31 03:23:39.4	94.660	-0.430	0.450	1.120
2020/01/31 03:23:39.5	94.660	-0.450	0.500	1.110
2020/01/31 03:23:39.6	94.650	-0.470	0.540	1.090
2020/01/31 03:23:39.7	94.640	-0.490	0.580	1.080
2020/01/31 03:23:39.8	94.630	-0.500	0.610	1.060
2020/01/31 03:23:39.9	94.630	-0.500	0.630	1.040
2020/01/31 03:23:40.0	94.620	-0.510	0.640	1.020
2020/01/31 03:23:40.1	94.610	-0.500	0.650	1.000
2020/01/31 03:23:40.2	94.590	-0.490	0.640	0.970
2020/01/31 03:23:40.3	94.590	-0.480	0.630	0.950
2020/01/31 03:23:40.4	94.580	-0.460	0.610	0.930
2020/01/31 03:23:40.5	94.570	-0.440	0.580	0.910
2020/01/31 03:23:40.6	94.560	-0.410	0.540	0.890
2020/01/31 03:23:40.7	94.550	-0.380	0.500	0.870
2020/01/31 03:23:40.8	94.550	-0.340	0.440	0.850
2020/01/31 03:23:40.9	94.540	-0.300	0.390	0.830
2020/01/31 03:23:41.0	94.530	-0.250	0.320	0.820
2020/01/31 03:23:41.1	94.520	-0.200	0.250	0.810
2020/01/31 03:23:41.2	94.510	-0.150	0.170	0.790
2020/01/31 03:23:41.3	94.500	-0.100	0.100	0.780
2020/01/31 03:23:41.4	94.490	-0.040	0.010	0.770
2020/01/31 03:23:41.5	94.480	0.010	-0.070	0.760
2020/01/31 03:23:41.6	94.460	0.070	-0.150	0.760
2020/01/31 03:23:41.7	94.450	0.130	-0.240	0.750
2020/01/31 03:23:41.8	94.440	0.190	-0.330	0.740
2020/01/31 03:23:41.9	94.420	0.250	-0.410	0.730
2020/01/31 03:23:42.0	94.410	0.300	-0.490	0.720
2020/01/31 03:23:42.1	94.390	0.360	-0.580	0.710
2020/01/31 03:23:42.2	94.370	0.410	-0.660	0.700
2020/01/31 03:23:42.3	94.350	0.460	-0.730	0.690
2020/01/31 03:23:42.4	94.340	0.500	-0.800	0.670
2020/01/31 03:23:42.5	94.320	0.550	-0.870	0.650
2020/01/31 03:23:42.6	94.310	0.590	-0.930	0.630
2020/01/31 03:23:42.7	94.290	0.620	-0.980	0.610
2020/01/31 03:23:42.8	94.280	0.650	-1.030	0.590
2020/01/31 03:23:42.9	94.260	0.680	-1.070	0.570
2020/01/31 03:23:43.0	94.250	0.700	-1.100	0.550
2020/01/31 03:23:43.1	94.240	0.720	-1.120	0.520
2020/01/31 03:23:43.2	94.220	0.730	-1.140	0.500
2020/01/31 03:23:43.3	94.200	0.740	-1.140	0.480
2020/01/31 03:23:43.4	94.190	0.740	-1.140	0.460
2020/01/31 03:23:43.5	94.180	0.740	-1.130	0.440
2020/01/31 03:23:43.6	94.180	0.730	-1.100	0.430
2020/01/31 03:23:43.7	94.170	0.720	-1.070	0.420
2020/01/31 03:23:43.8	94.160	0.710	-1.030	0.410
2020/01/31 03:23:43.9	94.160	0.690	-0.980	0.410
2020/01/31 03:23:44.0	94.160	0.660	-0.920	0.410
2020/01/31 03:23:44.1	94.150	0.630	-0.850	0.410
2020/01/31 03:23:44.2	94.160	0.600	-0.770	0.420
2020/01/31 03:23:44.3	94.160	0.560	-0.680	0.430
2020/01/31 03:23:44.4	94.170	0.530	-0.590	0.440
2020/01/31 03:23:44.5	94.170	0.480	-0.500	0.450
2020/01/31 03:23:44.6	94.180	0.440	-0.400	0.470
2020/01/31 03:23:44.7	94.190	0.390	-0.300	0.490
2020/01/31 03:23:44.8	94.200	0.350	-0.200	0.510
2020/01/31 03:23:44.9	94.210	0.300	-0.100	0.530
2020/01/31 03:23:45.0	94.230	0.250	-0.000	0.550
2020/01/31 03:23:45.1	94.250	0.190	0.090	0.570
2020/01/31 03:23:45.2	94.270	0.140	0.180	0.590
2020/01/31 03:23:45.3	94.290	0.090	0.270	0.620
2020/01/31 03:23:45.4	94.310	0.040	0.350	0.640
2020/01/31 03:23:45.5	94.340	-0.000	0.420	0.660
2020/01/31 03:23:45.6	94.360	-0.050	0.480	0.680
2020/01/31 03:23:45.7	94.390	-0.090	0.540	0.700
2020/01/31 03:23:45.8	94.410	-0.140	0.580	0.730
2020/01/31 03:23:45.9	94.440	-0.180	0.610	0.750
2020/01/31 03:23:46.0	94.460	-0.210	0.640	0.770
2020/01/31 03:23:46.1	94.490	-0.240	0.650	0.790
2020/01/31 03:23:46.2	94.500	-0.270	0.650	0.810
2020/01/31 03:23:46.3	94.530	-0.300	0.650	0.830
2020/01/31 03:23:46.4	94.550	-0.320	0.630	0.850
2020/01/31 03:23:46.5	94.580	-0.330	0.610	0.870
2020/01/31 03:23:46.6	94.600	-0.350	0.570	0.900
2020/01/31 03:23:46.7	94.620	-0.360	0.530	0.920
2020/01/31 03:23:46.8	94.640	-0.370	0.490	0.950
2020/01/31 03:23:46.9	94.660	-0.370	0.440	0.980
2020/01/31 03:23:47.0	94.670	-0.370	0.380	1.010
2020/01/31 03:23:47.1	94.690	-0.370	0.320	1.040
2020/01/31 03:23:47.2	94.700	-0.360	0.250	1.080
2020/01/31 03:23:47.3	94.710	-0.350	0.190	1.120
2020/01/31 03:23:47.4	94.720	-0.340	0.120	1.160
2020/01/31 03:23:47.5	94.720	-0.330	0.050	1.210
2020/01/31 03:23:47.6	94.720	-0.320	-0.010	1.260
2020/01/31 03:23:47.7	94.720	-0.310	-0.080	1.310
2020/01/31 03:23:47.8	94.720	-0.290	-0.140	1.360
2020/01/31 03:23:47.9	94.710	-0.280	-0.200	1.420
2020/01/31 03:23:48.0	94.700	-0.260	-0.260	1.470
2020/01/31 03:23:48.1	94.690	-0.240	-0.320	1.530
2020/01/31 03:23:48.2	94.680	-0.230	-0.370	1.590
2020/01/31 03:23:48.3	94.660	-0.220	-0.420	1.640
2020/01/31 03:23:48.4	94.640	-0.200	-0.470	1.690
2020/01/31 03:23:48.5	94.620	-0.190	-0.510	1.740
2020/01/31 03:23:48.6	94.590	-0.180	-0.550	1.780
2020/01/31 03:23:48.7	94.560	-0.170	-0.580	1.820
2020/01/31 03:23:48.8	94.540	-0.160	-0.610	1.860
2020/01/31 03:23:48.9	94.510	-0.160	-0.640	1.890
2020/01/31 03:23:49.0	94.480	-0.150	-0.660	1.920
2020/01/31 03:23:49.1	94.450	-0.150	-0.680	1.940
2020/01/31 03:23:49.2	94.420	-0.150	-0.690	1.960
2020/01/31 03:23:49.3	94.390	-0.150	-0.700	1.980
2020/01/31 03:23:49.4	94.360	-0.150	-0.700	1.980
2020/01/31 03:23:49.5	94.330	-0.160	-0.700	1.990
2020/01/31 03:23:49.6	94.300	-0.160	-0.700	1.980
2020/01/31 03:23:49.7	94.270	-0.160	-0.690	1.980
2020/01/31 03:23:49.8	94.240	-0.170	-0.680	1.960
2020/01/31 03:23:49.9	94.210	-0.180	-0.670	1.950
2020/01/31 03:23:50.0	94.180	-0.180	-0.650	1.930
2020/01/31 03:23:50.1	94.150	-0.190	-0.630	1.900
2020/01/31 03:23:50.2	94.130	-0.200	-0.610	1.860
2020/01/31 03:23:50.3	94.100	-0.200	-0.590	1.830
2020/01/31 03:23:50.4	94.080	-0.210	-0.560	1.790
2020/01/31 03:23:50.5	94.060	-0.210	-0.530	1.750
2020/01/31 03:23:50.6	94.040	-0.220	-0.500	1.710
2020/01/31 03:23:50.7	94.020	-0.220	-0.470	1.660
2020/01/31 03:23:50.8	94.000	-0.220	-0.440	1.610
2020/01/31 03:23:50.9	93.980	-0.230	-0.400	1.560
2020/01/31 03:23:51.0	93.960	-0.230	-0.370	1.510
2020/01/31 03:23:51.1	93.950	-0.220	-0.340	1.450
2020/01/31 03:23:51.2	93.930	-0.220	-0.300	1.390
2020/01/31 03:23:51.3	93.920	-0.210	-0.270	1.330
2020/01/31 03:23:51.4	93.910	-0.210	-0.240	1.270
2020/01/31 03:23:51.5	93.900	-0.200	-0.210	1.210
2020/01/31 03:23:51.6	93.890	-0.180	-0.180	1.140
2020/01/31 03:23:51.7	93.880	-0.170	-0.160	1.080
2020/01/31 03:23:51.8	93.870	-0.150	-0.140	1.010
2020/01/31 03:23:51.9	93.870	-0.130	-0.120	0.950
2020/01/31 03:23:52.0	93.870	-0.110	-0.110	0.880
2020/01/31 03:23:52.1	93.860	-0.090	-0.100	0.810
2020/01/31 03:23:52.2	93.870	-0.060	-0.090	0.750
2020/01/31 03:23:52.3	93.870	-0.030	-0.090	0.680
2020/01/31 03:23:52.4	93.880	-0.000	-0.100	0.620
2020/01/31 03:23:52.5	93.890	0.030	-0.110	0.550
2020/01/31 03:23:52.6	93.900	0.060	-0.120	0.490
2020/01/31 03:23:52.7	93.920	0.100	-0.130	0.430
2020/01/31 03:23:52.8	93.940	0.130	-0.150	0.370
2020/01/31 03:23:52.9	93.960	0.170	-0.170	0.320
2020/01/31 03:23:53.0	93.980	0.200	-0.200	0.270
2020/01/31 03:23:53.1	94.000	0.240	-0.230	0.230
2020/01/31 03:23:53.2	94.020	0.280	-0.250	0.190
2020/01/31 03:23:53.3	94.040	0.310	-0.280	0.160
2020/01/31 03:23:53.4	94.060	0.340	-0.310	0.130
2020/01/31 03:23:53.5	94.090	0.380	-0.330	0.110
2020/01/31 03:23:53.6	94.110	0.400	-0.360	0.090
2020/01/31 03:23:53.7	94.130	0.430	-0.380	0.070
2020/01/31 03:23:53.8	94.150	0.460	-0.400	0.070
2020/01/31 03:23:53.9	94.170	0.480	-0.420	0.060
2020/01/31 03:23:54.0	94.190	0.490	-0.430	0.060
2020/01/31 03:23:54.1	94.210	0.510	-0.440	0.060
2020/01/31 03:23:54.2	94.220	0.520	-0.450	0.060
2020/01/31 03:23:54.3	94.230	0.520	-0.450	0.070
2020/01/31 03:23:54.4	94.250	0.520	-0.440	0.080
2020/01/31 03:23:54.5	94.260	0.520	-0.430	0.100
2020/01/31 03:23:54.6	94.270	0.510	-0.420	0.110
2020/01/31 03:23:54.7	94.290	0.500	-0.400	0.130
2020/01/31 03:23:54.8	94.300	0.480	-0.380	0.150
2020/01/31 03:23:54.9	94.300	0.460	-0.350	0.170
2020/01/31 03:23:55.0	94.310	0.440	-0.320	0.190
2020/01/31 03:23:55.1	94.310	0.410	-0.290	0.220
2020/01/31 03:23:55.2	94.320	0.380	-0.250	0.240
2020/01/31 03:23:55.3	94.320	0.340	-0.210	0.270
2020/01/31 03:23:55.4	94.320	0.300	-0.160	0.300
2020/01/31 03:23:55.5	94.320	0.260	-0.120	0.340
2020/01/31 03:23:55.6	94.320	0.220	-0.070	0.370
2020/01/31 03:23:55.7	94.310	0.170	-0.020	0.410
2020/01/31 03:23:55.8	94.310	0.130	0.030	0.450
2020/01/31 03:23:55.9	94.300	0.080	0.080	0.480
2020/01/31 03:23:56.0	94.290	0.030	0.130	0.520
2020/01/31 03:23:56.1	94.280	-0.020	0.190	0.560
2020/01/31 03:23:56.2	94.270	-0.070	0.240	0.600
2020/01/31 03:23:56.3	94.250	-0.120	0.300	0.640
2020/01/31 03:23:56.4	94.240	-0.170	0.350	0.680
2020/01/31 03:23:56.5	94.220	-0.220	0.400	0.720
2020/01/31 03:23:56.6	94.200	-0.270	0.460	0.760
2020/01/31 03:23:56.7	94.180	-0.320	0.510	0.810
2020/01/31 03:23:56.8	94.160	-0.360	0.560	0.850
2020/01/31 03:23:56.9	94.130	-0.400	0.600	0.890
2020/01/31 03:23:57.0	94.100	-0.440	0.650	0.930
2020/01/31 03:23:57.1	94.070	-0.480	0.680	0.970
2020/01/31 03:23:57.2	94.050	-0.520	0.720	1.010
2020/01/31 03:23:57.3	94.020	-0.550	0.750	1.050
2020/01/31 03:23:57.4	93.990	-0.580	0.770	1.090
2020/01/31 03:23:57.5	93.950	-0.600	0.790	1.120
2020/01/31 03:23:57.6	93.920	-0.620	0.790	1.150
2020/01/31 03:23:57.7	93.880	-0.640	0.790	1.180
2020/01/31 03:23:57.8	93.850	-0.650	0.780	1.210
2020/01/31 03:23:57.9	93.820	-0.650	0.760	1.230
2020/01/31 03:23:58.0	93.790	-0.650	0.730	1.250
2020/01/31 03:23:58.1	93.760	-0.640	0.680	1.270
2020/01/31 03:23:58.2	93.730	-0.630	0.630	1.280
2020/01/31 03:23:58.3	93.710	-0.610	0.550	1.280
2020/01/31 03:23:58.4	93.680	-0.580	0.470	1.290
2020/01/31 03:23:58.5	93.670	-0.540	0.380	1.280
2020/01/31 03:23:58.6	93.650	-0.500	0.270	1.270
2020/01/31 03:23:58.7	93.640	-0.460	0.150	1.260
2020/01/31 03:23:58.8	93.630	-0.400	0.020	1.240
2020/01/31 03:23:58.9	93.630	-0.340	-0.110	1.220
2020/01/31 03:23:59.0	93.630	-0.280	-0.260	1.190
2020/01/31 03:23:59.1	93.640	-0.210	-0.410	1.160
2020/01/31 03:23:59.2	93.640	-0.140	-0.580	1.130
2020/01/31 03:23:59.3	93.660	-0.070	-0.740	1.090
2020/01/31 03:23:59.4	93.670	0.010	-0.900	1.060
2020/01/31 03:23:59.5	93.690	0.090	-1.060	1.020
2020/01/31 03:23:59.6	93.710	0.170	-1.210	0.990
2020/01/31 03:23:59.7	93.740	0.250	-1.360	0.950
2020/01/31 03:23:59.8	93.760	0.330	-1.510	0.920
2020/01/31 03:23:59.9	93.790	0.400	-1.640	0.880
2020/01/31 03:24:00.0	93.810	0.470	-1.760	0.850
2020/01/31 03:24:00.1	93.840	0.540	-1.860	0.830
2020/01/31 03:24:00.2	93.860	0.600	-1.950	0.800
2020/01/31 03:24:00.3	93.870	0.650	-2.020	0.780
2020/01/31 03:24:00.4	93.890	0.700	-2.070	0.770
2020/01/31 03:24:00.5	93.900	0.740	-2.100	0.760
2020/01/31 03:24:00.6	93.910	0.770	-2.110	0.750
2020/01/31 03:24:00.7	93.920	0.800	-2.090	0.750
2020/01/31 03:24:00.8	93.920	0.810	-2.060	0.750
2020/01/31 03:24:00.9	93.920	0.810	-2.000	0.750
2020/01/31 03:24:01.0	93.920	0.810	-1.930	0.760
2020/01/31 03:24:01.1	93.910	0.800	-1.830	0.780
2020/01/31 03:24:01.2	93.900	0.770	-1.710	0.800
2020/01/31 03:24:01.3	93.890	0.740	-1.580	0.820
2020/01/31 03:24:01.4	93.870	0.700	-1.430	0.850
2020/01/31 03:24:01.5	93.860	0.650	-1.270	0.870
2020/01/31 03:24:01.6	93.840	0.590	-1.090	0.910
2020/01/31 03:24:01.7	93.810	0.530	-0.910	0.940
2020/01/31 03:24:01.8	93.790	0.450	-0.710	0.970
2020/01/31 03:24:01.9	93.760	0.380	-0.520	1.010
2020/01/31 03:24:02.0	93.740	0.290	-0.310	1.050
2020/01/31 03:24:02.1	93.710	0.200	-0.110	1.080
2020/01/31 03:24:02.2	93.680	0.110	0.090	1.110
2020/01/31 03:24:02.3	93.650	0.020	0.290	1.150
2020/01/31 03:24:02.4	93.630	-0.080	0.480	1.180
2020/01/31 03:24:02.5	93.600	-0.170	0.660	1.200
2020/01/31 03:24:02.6	93.570	-0.260	0.830	1.230
2020/01/31 03:24:02.7	93.550	-0.360	0.990	1.250
2020/01/31 03:24:02.8	93.520	-0.450	1.140	1.260
2020/01/31 03:24:02.9	93.500	-0.530	1.270	1.270
2020/01/31 03:24:03.0	93.480	-0.610	1.380	1.280
2020/01/31 03:24:03.1	93.460	-0.690	1.480	1.280
2020/01/31 03:24:03.2	93.440	-0.760	1.560	1.270
2020/01/31 03:24:03.3	93.430	-0.820	1.620	1.260
2020/01/31 03:24:03.4	93.410	-0.870	1.660	1.250
2020/01/31 03:24:03.5	93.400	-0.920	1.680	1.230
2020/01/31 03:24:03.6	93.390	-0.960	1.690	1.200
2020/01/31 03:24:03.7	93.380	-0.980	1.670	1.170
2020/01/31 03:24:03.8	93.380	-1.000	1.630	1.130
2020/01/31 03:24:03.9	93.380	-1.010	1.570	1.090
2020/01/31 03:24:04.0	93.380	-1.000	1.500	1.050
2020/01/31 03:24:04.1	93.390	-0.990	1.400	1.000
2020/01/31 03:24:04.2	93.390	-0.970	1.290	0.950
2020/01/31 03:24:04.3	93.400	-0.930	1.170	0.900
2020/01/31 03:24:04.4	93.410	-0.890	1.040	0.840
2020/01/31 03:24:04.5	93.420	-0.840	0.900	0.790
2020/01/31 03:24:04.6	93.430	-0.780	0.740	0.730
2020/01/31 03:24:04.7	93.450	-0.720	0.590	0.670
2020/01/31 03:24:04.8	93.460	-0.640	0.420	0.610
2020/01/31 03:24:04.9	93.480	-0.570	0.260	0.550
2020/01/31 03:24:05.0	93.500	-0.480	0.090	0.500
2020/01/31 03:24:05.1	93.510	-0.390	-0.080	0.440
2020/01/31 03:24:05.2	93.540	-0.300	-0.250	0.390
2020/01/31 03:24:05.3	93.550	-0.210	-0.410	0.330
2020/01/31 03:24:05.4	93.570	-0.110	-0.570	0.290
2020/01/31 03:24:05.5	93.590	-0.020	-0.720	0.240
2020/01/31 03:24:05.6	93.600	0.080	-0.860	0.200
2020/01/31 03:24:05.7	93.610	0.170	-0.990	0.160
2020/01/31 03:24:05.8	93.630	0.260	-1.100	0.120
2020/01/31 03:24:05.9	93.630	0.350	-1.210	0.100
2020/01/31 03:24:06.0	93.640	0.440	-1.300	0.070
2020/01/31 03:24:06.1	93.640	0.510	-1.380	0.050
2020/01/31 03:24:06.2	93.650	0.590	-1.440	0.030
2020/01/31 03:24:06.3	93.650	0.660	-1.490	0.020
2020/01/31 03:24:06.4	93.640	0.720	-1.520	0.010
2020/01/31 03:24:06.5	93.640	0.770	-1.540	0.010
2020/01/31 03:24:06.6	93.640	0.820	-1.550	0.020
2020/01/31 03:24:06.7	93.630	0.860	-1.530	0.030
2020/01/31 03:24:06.8	93.620	0.890	-1.510	0.040
2020/01/31 03:24:06.9	93.610	0.910	-1.470	0.060
2020/01/31 03:24:07.0	93.590	0.930	-1.410	0.080
2020/01/31 03:24:07.1	93.580	0.930	-1.350	0.110
2020/01/31 03:24:07.2	93.570	0.930	-1.270	0.130
2020/01/31 03:24:07.3	93.550	0.920	-1.180	0.170
2020/01/31 03:24:07.4	93.530	0.910	-1.080	0.200
2020/01/31 03:24:07.5	93.510	0.880	-0.980	0.250
2020/01/31 03:24:07.6	93.500	0.850	-0.870	0.290
2020/01/31 03:24:07.7	93.480	0.820	-0.750	0.340
2020/01/31 03:24:07.8	93.470	0.780	-0.630	0.390
2020/01/31 03:24:07.9	93.450	0.730	-0.510	0.440
2020/01/31 03:24:08.0	93.440	0.680	-0.380	0.490
2020/01/31 03:24:08.1	93.430	0.620	-0.260	0.530
2020/01/31 03:24:08.2	93.420	0.570	-0.140	0.590
2020/01/31 03:24:08.3	93.420	0.500	-0.020	0.640
2020/01/31 03:24:08.4	93.410	0.440	0.090	0.680
2020/01/31 03:24:08.5	93.410	0.380	0.190	0.730
2020/01/31 03:24:08.6	93.410	0.310	0.290	0.770
2020/01/31 03:24:08.7	93.420	0.250	0.380	0.810
2020/01/31 03:24:08.8	93.420	0.190	0.460	0.850
2020/01/31 03:24:08.9	93.430	0.120	0.530	0.880
2020/01/31 03:24:09.0	93.440	0.060	0.590	0.910
2020/01/31 03:24:09.1	93.440	0.000	0.640	0.930
2020/01/31 03:24:09.2	93.450	-0.050	0.680	0.950
2020/01/31 03:24:09.3	93.460	-0.110	0.710	0.970
2020/01/31 03:24:09.4	93.480	-0.160	0.730	0.990
2020/01/31 03:24:09.5	93.490	-0.210	0.740	1.000
2020/01/31 03:24:09.6	93.510	-0.250	0.740	1.010
2020/01/31 03:24:09.7	93.520	-0.290	0.730	1.020
2020/01/31 03:24:09.8	93.540	-0.330	0.710	1.020
2020/01/31 03:24:09.9	93.560	-0.360	0.690	1.030
2020/01/31 03:24:10.0	93.570	-0.390	0.650	1.030
2020/01/31 03:24:10.1	93.590	-0.420	0.610	1.030
2020/01/31 03:24:10.2	93.600	-0.440	0.560	1.040
2020/01/31 03:24:10.3	93.610	-0.460	0.510	1.040
2020/01/31 03:24:10.4	93.620	-0.470	0.450	1.040
2020/01/31 03:24:10.5	93.630	-0.480	0.380	1.050
2020/01/31 03:24:10.6	93.630	-0.490	0.320	1.060
2020/01/31 03:24:10.7	93.630	-0.490	0.250	1.060
2020/01/31 03:24:10.8	93.630	-0.490	0.170	1.070
2020/01/31 03:24:10.9	93.630	-0.490	0.100	1.090
2020/01/31 03:24:11.0	93.630	-0.480	0.030	1.100
2020/01/31 03:24:11.1	93.610	-0.470	-0.050	1.120
2020/01/31 03:24:11.2	93.600	-0.460	-0.120	1.140
2020/01/31 03:24:11.3	93.590	-0.450	-0.190	1.160
2020/01/31 03:24:11.4	93.580	-0.430	-0.260	1.180
2020/01/31 03:24:11.5	93.560	-0.420	-0.320	1.200
2020/01/31 03:24:11.6	93.550	-0.400	-0.390	1.230
2020/01/31 03:24:11.7	93.530	-0.380	-0.450	1.250
2020/01/31 03:24:11.8	93.520	-0.360	-0.500	1.270
2020/01/31 03:24:11.9	93.500	-0.340	-0.560	1.290
2020/01/31 03:24:12.0	93.490	-0.310	-0.610	1.310
2020/01/31 03:24:12.1	93.480	-0.290	-0.660	1.320
2020/01/31 03:24:12.2	93.470	-0.270	-0.700	1.340
2020/01/31 03:24:12.3	93.470	-0.250	-0.740	1.350
2020/01/31 03:24:12.4	93.460	-0.230	-0.770	1.360
2020/01/31 03:24:12.5	93.460	-0.200	-0.810	1.360
2020/01/31 03:24:12.6	93.460	-0.180	-0.840	1.360
2020/01/31 03:24:12.7	93.460	-0.160	-0.860	1.360
2020/01/31 03:24:12.8	93.470	-0.130	-0.890	1.360
2020/01/31 03:24:12.9	93.480	-0.110	-0.910	1.350
2020/01/31 03:24:13.0	93.490	-0.090	-0.920	1.340
2020/01/31 03:24:13.1	93.510	-0.070	-0.940	1.330
2020/01/31 03:24:13.2	93.520	-0.040	-0.950	1.320
2020/01/31 03:24:13.3	93.530	-0.020	-0.960	1.310
2020/01/31 03:24:13.4	93.550	-0.000	-0.960	1.300
2020/01/31 03:24:13.5	93.570	0.020	-0.960	1.290
2020/01/31 03:24:13.6	93.590	0.040	-0.960	1.280
2020/01/31 03:24:13.7	93.610	0.060	-0.950	1.270
2020/01/31 03:24:13.8	93.630	0.080	-0.940	1.260
2020/01/31 03:24:13.9	93.650	0.090	-0.920	1.250
2020/01/31 03:24:14.0	93.660	0.110	-0.900	1.240
2020/01/31 03:24:14.1	93.680	0.120	-0.870	1.230
2020/01/31 03:24:14.2	93.700	0.130	-0.840	1.220
2020/01/31 03:24:14.3	93.710	0.140	-0.800	1.200
2020/01/31 03:24:14.4	93.730	0.150	-0.760	1.180
2020/01/31 03:24:14.5	93.740	0.150	-0.710	1.160
2020/01/31 03:24:14.6	93.750	0.150	-0.650	1.130
2020/01/31 03:24:14.7	93.770	0.150	-0.590	1.110
2020/01/31 03:24:14.8	93.780	0.140	-0.530	1.070
2020/01/31 03:24:14.9	93.780	0.130	-0.460	1.040
2020/01/31 03:24:15.0	93.790	0.120	-0.380	1.000
2020/01/31 03:24:15.1	93.800	0.110	-0.300	0.960
2020/01/31 03:24:15.2	93.790	0.090	-0.220	0.920
2020/01/31 03:24:15.3	93.800	0.080	-0.140	0.880
2020/01/31 03:24:15.4	93.800	0.060	-0.060	0.840
2020/01/31 03:24:15.5	93.800	0.030	0.030	0.810
2020/01/31 03:24:15.6	93.800	0.010	0.110	0.770
2020/01/31 03:24:15.7	93.800	-0.010	0.200	0.740
2020/01/31 03:24:15.8	93.800	-0.040	0.280	0.700
2020/01/31 03:24:15.9	93.790	-0.070	0.350	0.670
2020/01/31 03:24:16.0	93.790	-0.090	0.430	0.650
2020/01/31 03:24:16.1	93.790	-0.120	0.500	0.620
2020/01/31 03:24:16.2	93.780	-0.140	0.560	0.600
2020/01/31 03:24:16.3	93.780	-0.160	0.620	0.580
2020/01/31 03:24:16.4	93.770	-0.190	0.670	0.560
2020/01/31 03:24:16.5	93.770	-0.200	0.710	0.550
2020/01/31 03:24:16.6	93.760	-0.220	0.740	0.540
2020/01/31 03:24:16.7	93.760	-0.230	0.760	0.530
2020/01/31 03:24:16.8	93.760	-0.250	0.770	0.520
2020/01/31 03:24:16.9	93.760	-0.250	0.780	0.510
2020/01/31 03:24:17.0	93.760	-0.260	0.770	0.490
2020/01/31 03:24:17.1	93.760	-0.250	0.750	0.480
2020/01/31 03:24:17.2	93.760	-0.250	0.720	0.470
2020/01/31 03:24:17.3	93.770	-0.240	0.690	0.450
2020/01/31 03:24:17.4	93.780	-0.230	0.640	0.430
2020/01/31 03:24:17.5	93.790	-0.210	0.590	0.410
2020/01/31 03:24:17.6	93.800	-0.190	0.520	0.390
2020/01/31 03:24:17.7	93.820	-0.160	0.450	0.360
2020/01/31 03:24:17.8	93.830	-0.130	0.380	0.340
2020/01/31 03:24:17.9	93.850	-0.100	0.290	0.310
2020/01/31 03:24:18.0	93.870	-0.060	0.200	0.280
2020/01/31 03:24:18.1	93.900	-0.020	0.110	0.240
2020/01/31 03:24:18.2	93.920	0.020	0.010	0.210
2020/01/31 03:24:18.3	93.940	0.070	-0.090	0.180
2020/01/31 03:24:18.4	93.960	0.110	-0.190	0.150
2020/01/31 03:24:18.5	93.980	0.160	-0.290	0.120
2020/01/31 03:24:18.6	94.000	0.210	-0.390	0.100
2020/01/31 03:24:18.7	94.020	0.260	-0.490	0.080
2020/01/31 03:24:18.8	94.040	0.310	-0.590	0.060
2020/01/31 03:24:18.9	94.050	0.360	-0.680	0.050
2020/01/31 03:24:19.0	94.070	0.410	-0.760	0.040
2020/01/31 03:24:19.1	94.090	0.460	-0.840	0.030
2020/01/31 03:24:19.2	94.110	0.500	-0.910	0.030
2020/01/31 03:24:19.3	94.110	0.550	-0.980	0.040
2020/01/31 03:24:19.4	94.120	0.590	-1.030	0.040
2020/01/31 03:24:19.5	94.130	0.630	-1.070	0.060
2020/01/31 03:24:19.6	94.130	0.660	-1.110	0.070
2020/01/31 03:24:19.7	94.130	0.690	-1.130	0.090
2020/01/31 03:24:19.8	94.130	0.710	-1.140	0.110
2020/01/31 03:24:19.9	94.130	0.730	-1.140	0.140
2020/01/31 03:24:20.0	94.120	0.750	-1.130	0.160
2020/01/31 03:24:20.1	94.120	0.760	-1.110	0.190
2020/01/31 03:24:20.2	94.110	0.760	-1.080	0.220
2020/01/31 03:24:20.3	94.110	0.760	-1.030	0.250
2020/01/31 03:24:20.4	94.090	0.750	-0.980	0.280
2020/01/31 03:24:20.5	94.080	0.740	-0.920	0.310
2020/01/31 03:24:20.6	94.070	0.720	-0.850	0.350
2020/01/31 03:24:20.7	94.060	0.700	-0.770	0.380
2020/01/31 03:24:20.8	94.050	0.670	-0.690	0.420
2020/01/31 03:24:20.9	94.030	0.640	-0.600	0.460
2020/01/31 03:24:21.0	94.020	0.600	-0.510	0.490
2020/01/31 03:24:21.1	94.000	0.560	-0.410	0.530
2020/01/31 03:24:21.2	93.990	0.520	-0.310	0.560
2020/01/31 03:24:21.3	93.970	0.470	-0.220	0.600
2020/01/31 03:24:21.4	93.960	0.420	-0.120	0.640
2020/01/31 03:24:21.5	93.950	0.360	-0.030	0.690
2020/01/31 03:24:21.6	93.940	0.310	0.050	0.730
2020/01/31 03:24:21.7	93.930	0.260	0.140	0.770
2020/01/31 03:24:21.8	93.920	0.200	0.210	0.810
2020/01/31 03:24:21.9	93.920	0.140	0.280	0.850
2020/01/31 03:24:22.0	93.910	0.090	0.340	0.890
2020/01/31 03:24:22.1	93.910	0.040	0.390	0.920
2020/01/31 03:24:22.2	93.900	-0.020	0.440	0.960
2020/01/31 03:24:22.3	93.900	-0.070	0.470	1.000
2020/01/31 03:24:22.4	93.900	-0.110	0.500	1.030
2020/01/31 03:24:22.5	93.910	-0.160	0.510	1.060
2020/01/31 03:24:22.6	93.910	-0.200	0.520	1.090
2020/01/31 03:24:22.7	93.920	-0.240	0.520	1.120
2020/01/31 03:24:22.8	93.930	-0.280	0.510	1.140
2020/01/31 03:24:22.9	93.940	-0.310	0.490	1.160
2020/01/31 03:24:23.0	93.950	-0.340	0.470	1.180
2020/01/31 03:24:23.1	93.970	-0.370	0.440	1.190
2020/01/31 03:24:23.2	93.990	-0.400	0.400	1.200
2020/01/31 03:24:23.3	94.010	-0.420	0.360	1.200
2020/01/31 03:24:23.4	94.030	-0.450	0.320	1.200
2020/01/31 03:24:23.5	94.060	-0.470	0.280	1.200
2020/01/31 03:24:23.6	94.090	-0.480	0.230	1.190
2020/01/31 03:24:23.7	94.120	-0.500	0.180	1.170
2020/01/31 03:24:23.8	94.150	-0.520	0.130	1.160
2020/01/31 03:24:23.9	94.180	-0.530	0.080	1.140
2020/01/31 03:24:24.0	94.220	-0.540	0.030	1.120
2020/01/31 03:24:24.1	94.250	-0.550	-0.010	1.100
2020/01/31 03:24:24.2	94.290	-0.560	-0.060	1.080
2020/01/31 03:24:24.3	94.320	-0.570	-0.100	1.060
2020/01/31 03:24:24.4	94.360	-0.580	-0.140	1.040
2020/01/31 03:24:24.5	94.390	-0.580	-0.180	1.020
2020/01/31 03:24:24.6	94.430	-0.590	-0.210	1.010
2020/01/31 03:24:24.7	94.460	-0.590	-0.240	0.990
2020/01/31 03:24:24.8	94.490	-0.590	-0.270	0.990
2020/01/31 03:24:24.9	94.520	-0.600	-0.300	0.980
2020/01/31 03:24:25.0	94.540	-0.600	-0.320	0.980
2020/01/31 03:24:25.1	94.570	-0.600	-0.330	0.980
2020/01/31 03:24:25.2	94.590	-0.590	-0.350	0.990
2020/01/31 03:24:25.3	94.610	-0.590	-0.360	1.000
2020/01/31 03:24:25.4	94.630	-0.590	-0.370	1.010
2020/01/31 03:24:25.5	94.640	-0.580	-0.380	1.030
2020/01/31 03:24:25.6	94.650	-0.580	-0.380	1.050
2020/01/31 03:24:25.7	94.660	-0.570	-0.390	1.070
2020/01/31 03:24:25.8	94.670	-0.560	-0.390	1.100
2020/01/31 03:24:25.9	94.670	-0.550	-0.390	1.130
2020/01/31 03:24:26.0	94.680	-0.540	-0.390	1.160
2020/01/31 03:24:26.1	94.670	-0.520	-0.390	1.190
2020/01/31 03:24:26.2	94.670	-0.510	-0.390	1.220
2020/01/31 03:24:26.3	94.660	-0.490	-0.390	1.260
2020/01/31 03:24:26.4	94.650	-0.470	-0.390	1.290
2020/01/31 03:24:26.5	94.640	-0.450	-0.400	1.320
2020/01/31 03:24:26.6	94.630	-0.420	-0.400	1.340
2020/01/31 03:24:26.7	94.610	-0.400	-0.400	1.370
2020/01/31 03:24:26.8	94.590	-0.370	-0.400	1.390
2020/01/31 03:24:26.9	94.570	-0.340	-0.410	1.410
2020/01/31 03:24:27.0	94.540	-0.310	-0.420	1.420
2020/01/31 03:24:27.1	94.520	-0.270	-0.420	1.430
2020/01/31 03:24:27.2	94.490	-0.240	-0.430	1.430
2020/01/31 03:24:27.3	94.460	-0.200	-0.450	1.440
2020/01/31 03:24:27.4	94.440	-0.160	-0.460	1.430
2020/01/31 03:24:27.5	94.410	-0.120	-0.470	1.430
2020/01/31 03:24:27.6	94.380	-0.080	-0.490	1.420
2020/01/31 03:24:27.7	94.350	-0.040	-0.500	1.400
2020/01/31 03:24:27.8	94.320	0.000	-0.520	1.380
2020/01/31 03:24:27.9	94.300	0.050	-0.530	1.360
2020/01/31 03:24:28.0	94.270	0.090	-0.550	1.330
2020/01/31 03:24:28.1	94.240	0.130	-0.560	1.300
2020/01/31 03:24:28.2	94.220	0.170	-0.580	1.270
2020/01/31 03:24:28.3	94.190	0.220	-0.590	1.240
2020/01/31 03:24:28.4	94.170	0.260	-0.600	1.200
2020/01/31 03:24:28.5	94.150	0.300	-0.610	1.150
2020/01/31 03:24:28.6	94.140	0.340	-0.620	1.110
2020/01/31 03:24:28.7	94.120	0.370	-0.620	1.060
2020/01/31 03:24:28.8	94.110	0.410	-0.620	1.010
2020/01/31 03:24:28.9	94.100	0.450	-0.620	0.960
2020/01/31 03:24:29.0	94.090	0.480	-0.620	0.900
2020/01/31 03:24:29.1	94.090	0.510	-0.610	0.850
2020/01/31 03:24:29.2	94.080	0.540	-0.600	0.780
2020/01/31 03:24:29.3	94.090	0.560	-0.580	0.710
2020/01/31 03:24:29.4	94.090	0.580	-0.570	0.650
2020/01/31 03:24:29.5	94.100	0.610	-0.550	0.580
2020/01/31 03:24:29.6	94.110	0.620	-0.530	0.510
2020/01/31 03:24:29.7	94.120	0.640	-0.500	0.430
2020/01/31 03:24:29.8	94.140	0.650	-0.470	0.360
2020/01/31 03:24:29.9	94.150	0.660	-0.450	0.290
2020/01/31 03:24:30.0	94.170	0.670	-0.420	0.220
2020/01/31 03:24:30.1	94.200	0.680	-0.390	0.150
2020/01/31 03:24:30.2	94.230	0.680	-0.350	0.080
2020/01/31 03:24:30.3	94.250	0.690	-0.320	0.010
2020/01/31 03:24:30.4	94.280	0.690	-0.290	-0.050
2020/01/31 03:24:30.5	94.310	0.690	-0.260	-0.110
2020/01/31 03:24:30.6	94.340	0.690	-0.230	-0.160
2020/01/31 03:24:30.7	94.370	0.680	-0.210	-0.210
2020/01/31 03:24:30.8	94.400	0.680	-0.180	-0.250
2020/01/31 03:24:30.9	94.430	0.670	-0.160	-0.280
2020/01/31 03:24:31.0	94.450	0.660	-0.130	-0.310
2020/01/31 03:24:31.1	94.480	0.650	-0.110	-0.330
2020/01/31 03:24:31.2	94.510	0.640	-0.090	-0.350
2020/01/31 03:24:31.3	94.540	0.630	-0.080	-0.360
2020/01/31 03:24:31.4	94.560	0.620	-0.060	-0.360
2020/01/31 03:24:31.5	94.580	0.600	-0.050	-0.350
2020/01/31 03:24:31.6	94.600	0.580	-0.040	-0.340
2020/01/31 03:24:31.7	94.620	0.560	-0.030	-0.320
2020/01/31 03:24:31.8	94.630	0.540	-0.020	-0.300
2020/01/31 03:24:31.9	94.640	0.520	-0.010	-0.280
2020/01/31 03:24:32.0	94.650	0.490	0.000	-0.250
2020/01/31 03:24:32.1	94.660	0.460	0.010	-0.210
2020/01/31 03:24:32.2	94.660	0.430	0.020	-0.180
2020/01/31 03:24:32.3	94.660	0.400	0.020	-0.140
2020/01/31 03:24:32.4	94.660	0.370	0.030	-0.100
2020/01/31 03:24:32.5	94.660	0.330	0.040	-0.060
2020/01/31 03:24:32.6	94.650	0.300	0.050	-0.010
2020/01/31 03:24:32.7	94.650	0.260	0.060	0.040
2020/01/31 03:24:32.8	94.640	0.220	0.070	0.090
2020/01/31 03:24:32.9	94.630	0.180	0.080	0.140
2020/01/31 03:24:33.0	94.620	0.140	0.090	0.190
2020/01/31 03:24:33.1	94.610	0.100	0.100	0.240
2020/01/31 03:24:33.2	94.590	0.060	0.110	0.290
2020/01/31 03:24:33.3	94.580	0.020	0.130	0.350
2020/01/31 03:24:33.4	94.570	-0.030	0.140	0.400
2020/01/31 03:24:33.5	94.550	-0.070	0.150	0.460
2020/01/31 03:24:33.6	94.540	-0.110	0.170	0.510
2020/01/31 03:24:33.7	94.530	-0.150	0.180	0.570
2020/01/31 03:24:33.8	94.520	-0.190	0.200	0.620
2020/01/31 03:24:33.9	94.510	-0.220	0.210	0.680
2020/01/31 03:24:34.0	94.500	-0.260	0.230	0.730
2020/01/31 03:24:34.1	94.500	-0.290	0.240	0.790
2020/01/31 03:24:34.2	94.490	-0.330	0.260	0.840
2020/01/31 03:24:34.3	94.490	-0.360	0.270	0.890
2020/01/31 03:24:34.4	94.490	-0.390	0.280	0.940
2020/01/31 03:24:34.5	94.490	-0.410	0.290	0.990
2020/01/31 03:24:34.6	94.490	-0.440	0.300	1.040
2020/01/31 03:24:34.7	94.500	-0.460	0.300	1.090
2020/01/31 03:24:34.8	94.510	-0.480	0.310	1.130
2020/01/31 03:24:34.9	94.520	-0.490	0.300	1.170
2020/01/31 03:24:35.0	94.530	-0.500	0.300	1.210
2020/01/31 03:24:35.1	94.540	-0.510	0.290	1.240
2020/01/31 03:24:35.2	94.550	-0.520	0.280	1.260
2020/01/31 03:24:35.3	94.570	-0.520	0.260	1.290
2020/01/31 03:24:35.4	94.590	-0.520	0.240	1.300
2020/01/31 03:24:35.5	94.610	-0.520	0.220	1.310
2020/01/31 03:24:35.6	94.640	-0.510	0.180	1.320
2020/01/31 03:24:35.7	94.660	-0.510	0.150	1.320
2020/01/31 03:24:35.8	94.690	-0.490	0.110	1.310
2020/01/31 03:24:35.9	94.710	-0.480	0.060	1.300
2020/01/31 03:24:36.0	94.740	-0.460	0.010	1.280
2020/01/31 03:24:36.1	94.770	-0.440	-0.040	1.260
2020/01/31 03:24:36.2	94.790	-0.420	-0.100	1.240
2020/01/31 03:24:36.3	94.820	-0.400	-0.160	1.210
2020/01/31 03:24:36.4	94.850	-0.370	-0.230	1.190
2020/01/31 03:24:36.5	94.870	-0.340	-0.300	1.160
2020/01/31 03:24:36.6	94.900	-0.310	-0.360	1.140
2020/01/31 03:24:36.7	94.920	-0.280	-0.430	1.110
2020/01/31 03:24:36.8	94.940	-0.250	-0.510	1.090
2020/01/31 03:24:36.9	94.960	-0.220	-0.570	1.080
2020/01/31 03:24:37.0	94.980	-0.190	-0.640	1.060
2020/01/31 03:24:37.1	95.000	-0.150	-0.710	1.050
2020/01/31 03:24:37.2	95.010	-0.120	-0.780	1.050
2020/01/31 03:24:37.3	95.020	-0.080	-0.840	1.050
2020/01/31 03:24:37.4	95.030	-0.050	-0.890	1.060
2020/01/31 03:24:37.5	95.040	-0.020	-0.940	1.070
2020/01/31 03:24:37.6	95.040	0.010	-0.990	1.090
2020/01/31 03:24:37.7	95.050	0.040	-1.030	1.110
2020/01/31 03:24:37.8	95.040	0.070	-1.060	1.130
2020/01/31 03:24:37.9	95.040	0.090	-1.090	1.160
2020/01/31 03:24:38.0	95.030	0.120	-1.100	1.190
2020/01/31 03:24:38.1	95.020	0.140	-1.110	1.220
2020/01/31 03:24:38.2	95.020	0.150	-1.110	1.250
2020/01/31 03:24:38.3	95.000	0.170	-1.100	1.280
2020/01/31 03:24:38.4	94.990	0.170	-1.090	1.310
2020/01/31 03:24:38.5	94.980	0.180	-1.060	1.330
2020/01/31 03:24:38.6	94.960	0.180	-1.020	1.350
2020/01/31 03:24:38.7	94.950	0.180	-0.980	1.370
2020/01/31 03:24:38.8	94.930	0.170	-0.930	1.380
2020/01/31 03:24:38.9	94.910	0.160	-0.870	1.390
2020/01/31 03:24:39.0	94.900	0.140	-0.800	1.390
2020/01/31 03:24:39.1	94.880	0.120	-0.730	1.390
2020/01/31 03:24:39.2	94.860	0.100	-0.650	1.380
2020/01/31 03:24:39.3	94.840	0.080	-0.570	1.370
2020/01/31 03:24:39.4	94.820	0.050	-0.480	1.360
2020/01/31 03:24:39.5	94.810	0.020	-0.390	1.340
2020/01/31 03:24:39.6	94.790	-0.020	-0.300	1.320
2020/01/31 03:24:39.7	94.780	-0.050	-0.210	1.290
2020/01/31 03:24:39.8	94.760	-0.090	-0.120	1.260
2020/01/31 03:24:39.9	94.750	-0.130	-0.030	1.230
2020/01/31 03:24:40.0	94.740	-0.160	0.060	1.190
2020/01/31 03:24:40.1	94.730	-0.200	0.150	1.150
2020/01/31 03:24:40.2	94.720	-0.240	0.230	1.110
2020/01/31 03:24:40.3	94.710	-0.270	0.310	1.070
2020/01/31 03:24:40.4	94.710	-0.310	0.390	1.030
2020/01/31 03:24:40.5	94.700	-0.340	0.450	0.990
2020/01/31 03:24:40.6	94.690	-0.370	0.510	0.940
2020/01/31 03:24:40.7	94.690	-0.390	0.570	0.900
2020/01/31 03:24:40.8	94.690	-0.420	0.610	0.860
2020/01/31 03:24:40.9	94.690	-0.440	0.650	0.810
2020/01/31 03:24:41.0	94.690	-0.450	0.680	0.770
2020/01/31 03:24:41.1	94.700	-0.460	0.690	0.720
2020/01/31 03:24:41.2	94.700	-0.460	0.700	0.680
2020/01/31 03:24:41.3	94.710	-0.460	0.700	0.630
2020/01/31 03:24:41.4	94.710	-0.460	0.690	0.590
2020/01/31 03:24:41.5	94.720	-0.450	0.660	0.550
2020/01/31 03:24:41.6	94.740	-0.430	0.630	0.500
2020/01/31 03:24:41.7	94.750	-0.410	0.580	0.460
2020/01/31 03:24:41.8	94.770	-0.380	0.530	0.420
2020/01/31 03:24:41.9	94.780	-0.350	0.460	0.370
2020/01/31 03:24:42.0	94.800	-0.310	0.390	0.330
2020/01/31 03:24:42.1	94.820	-0.270	0.310	0.290
2020/01/31 03:24:42.2	94.840	-0.220	0.220	0.240
2020/01/31 03:24:42.3	94.870	-0.170	0.120	0.200
2020/01/31 03:24:42.4	94.890	-0.120	0.020	0.160
2020/01/31 03:24:42.5	94.910	-0.060	-0.080	0.120
2020/01/31 03:24:42.6	94.930	0.000	-0.190	0.090
2020/01/31 03:24:42.7	94.950	0.060	-0.300	0.050
2020/01/31 03:24:42.8	94.970	0.130	-0.420	0.020
2020/01/31 03:24:42.9	94.990	0.190	-0.530	-0.010
2020/01/31 03:24:43.0	95.010	0.260	-0.640	-0.040
2020/01/31 03:24:43.1	95.030	0.330	-0.750	-0.070
2020/01/31 03:24:43.2	95.050	0.390	-0.850	-0.100
2020/01/31 03:24:43.3	95.060	0.460	-0.950	-0.120
2020/01/31 03:24:43.4	95.080	0.520	-1.040	-0.140
2020/01/31 03:24:43.5	95.090	0.580	-1.130	-0.150
2020/01/31 03:24:43.6	95.100	0.640	-1.200	-0.150
2020/01/31 03:24:43.7	95.110	0.690	-1.260	-0.160
2020/01/31 03:24:43.8	95.110	0.740	-1.320	-0.150
2020/01/31 03:24:43.9	95.110	0.790	-1.350	-0.140
2020/01/31 03:24:44.0	95.110	0.820	-1.380	-0.120
2020/01/31 03:24:44.1	95.100	0.860	-1.390	-0.100
2020/01/31 03:24:44.2	95.090	0.880	-1.380	-0.070
2020/01/31 03:24:44.3	95.070	0.900	-1.360	-0.030
2020/01/31 03:24:44.4	95.050	0.910	-1.330	0.010
2020/01/31 03:24:44.5	95.030	0.920	-1.280	0.050
2020/01/31 03:24:44.6	95.010	0.910	-1.210	0.100
2020/01/31 03:24:44.7	94.980	0.900	-1.140	0.150
2020/01/31 03:24:44.8	94.950	0.880	-1.050	0.210
2020/01/31 03:24:44.9	94.920	0.860	-0.950	0.260
2020/01/31 03:24:45.0	94.890	0.820	-0.830	0.330
2020/01/31 03:24:45.1	94.850	0.780	-0.710	0.390
2020/01/31 03:24:45.2	94.820	0.730	-0.580	0.450
2020/01/31 03:24:45.3	94.780	0.680	-0.440	0.520
2020/01/31 03:24:45.4	94.740	0.620	-0.300	0.580
2020/01/31 03:24:45.5	94.710	0.550	-0.160	0.650
2020/01/31 03:24:45.6	94.670	0.480	-0.010	0.710
2020/01/31 03:24:45.7	94.640	0.410	0.130	0.770
2020/01/31 03:24:45.8	94.600	0.330	0.270	0.830
2020/01/31 03:24:45.9	94.570	0.250	0.410	0.880
2020/01/31 03:24:46.0	94.540	0.170	0.550	0.930
2020/01/31 03:24:46.1	94.520	0.090	0.670	0.980
2020/01/31 03:24:46.2	94.490	0.010	0.800	1.020
2020/01/31 03:24:46.3	94.470	-0.070	0.910	1.050
2020/01/31 03:24:46.4	94.460	-0.150	1.000	1.080
2020/01/31 03:24:46.5	94.450	-0.230	1.080	1.100
2020/01/31 03:24:46.6	94.450	-0.300	1.150	1.110
2020/01/31 03:24:46.7	94.450	-0.370	1.200	1.120
2020/01/31 03:24:46.8	94.450	-0.430	1.240	1.120
2020/01/31 03:24:46.9	94.460	-0.480	1.260	1.120
2020/01/31 03:24:47.0	94.470	-0.530	1.260	1.110
2020/01/31 03:24:47.1	94.490	-0.580	1.240	1.090
2020/01/31 03:24:47.2	94.510	-0.610	1.200	1.060
2020/01/31 03:24:47.3	94.540	-0.640	1.150	1.040
2020/01/31 03:24:47.4	94.570	-0.650	1.090	1.010
2020/01/31 03:24:47.5	94.600	-0.660	1.010	0.980
2020/01/31 03:24:47.6	94.640	-0.670	0.920	0.950
2020/01/31 03:24:47.7	94.670	-0.660	0.810	0.910
2020/01/31 03:24:47.8	94.710	-0.650	0.700	0.880
2020/01/31 03:24:47.9	94.760	-0.630	0.580	0.850
2020/01/31 03:24:48.0	94.800	-0.600	0.450	0.820
2020/01/31 03:24:48.1	94.840	-0.570	0.310	0.790
2020/01/31 03:24:48.2	94.880	-0.530	0.170	0.760
2020/01/31 03:24:48.3	94.920	-0.490	0.030	0.730
2020/01/31 03:24:48.4	94.950	-0.440	-0.110	0.710
2020/01/31 03:24:48.5	94.990	-0.390	-0.250	0.690
2020/01/31 03:24:48.6	95.020	-0.340	-0.380	0.680
2020/01/31 03:24:48.7	95.060	-0.290	-0.510	0.670
2020/01/31 03:24:48.8	95.090	-0.230	-0.640	0.660
2020/01/31 03:24:48.9	95.110	-0.170	-0.760	0.660
2020/01/31 03:24:49.0	95.140	-0.110	-0.870	0.650
2020/01/31 03:24:49.1	95.160	-0.060	-0.970	0.660
2020/01/31 03:24:49.2	95.180	-0.000	-1.060	0.660
2020/01/31 03:24:49.3	95.190	0.050	-1.140	0.660
2020/01/31 03:24:49.4	95.210	0.100	-1.210	0.670
2020/01/31 03:24:49.5	95.220	0.140	-1.260	0.690
2020/01/31 03:24:49.6	95.230	0.190	-1.310	0.700
2020/01/31 03:24:49.7	95.240	0.230	-1.340	0.720
2020/01/31 03:24:49.8	95.240	0.260	-1.360	0.740
2020/01/31 03:24:49.9	95.240	0.290	-1.360	0.760
2020/01/31 03:24:50.0	95.240	0.320	-1.360	0.780
2020/01/31 03:24:50.1	95.240	0.340	-1.340	0.810
2020/01/31 03:24:50.2	95.230	0.350	-1.310	0.840
2020/01/31 03:24:50.3	95.230	0.360	-1.270	0.870
2020/01/31 03:24:50.4	95.220	0.360	-1.210	0.890
2020/01/31 03:24:50.5	95.210	0.360	-1.150	0.920
2020/01/31 03:24:50.6	95.200	0.360	-1.080	0.950
2020/01/31 03:24:50.7	95.190	0.350	-1.010	0.970
2020/01/31 03:24:50.8	95.170	0.330	-0.920	1.000
2020/01/31 03:24:50.9	95.160	0.310	-0.830	1.030
2020/01/31 03:24:51.0	95.140	0.290	-0.740	1.050
2020/01/31 03:24:51.1	95.130	0.260	-0.640	1.080
2020/01/31 03:24:51.2	95.110	0.230	-0.530	1.090
2020/01/31 03:24:51.3	95.090	0.200	-0.430	1.120
2020/01/31 03:24:51.4	95.070	0.160	-0.330	1.140
2020/01/31 03:24:51.5	95.050	0.120	-0.230	1.160
2020/01/31 03:24:51.6	95.030	0.080	-0.130	1.170
2020/01/31 03:24:51.7	95.000	0.040	-0.030	1.190
2020/01/31 03:24:51.8	94.980	0.000	0.060	1.200
2020/01/31 03:24:51.9	94.950	-0.040	0.140	1.210
2020/01/31 03:24:52.0	94.920	-0.080	0.220	1.220
2020/01/31 03:24:52.1	94.900	-0.120	0.300	1.220
2020/01/31 03:24:52.2	94.880	-0.150	0.360	1.230
2020/01/31 03:24:52.3	94.850	-0.190	0.420	1.230
2020/01/31 03:24:52.4	94.820	-0.220	0.460	1.220
2020/01/31 03:24:52.5	94.800	-0.250	0.500	1.220
2020/01/31 03:24:52.6	94.770	-0.280	0.530	1.210
2020/01/31 03:24:52.7	94.750	-0.300	0.540	1.200
2020/01/31 03:24:52.8	94.730	-0.320	0.550	1.180
2020/01/31 03:24:52.9	94.710	-0.340	0.550	1.160
2020/01/31 03:24:53.0	94.690	-0.360	0.540	1.140
2020/01/31 03:24:53.1	94.670	-0.370	0.520	1.120
2020/01/31 03:24:53.2	94.660	-0.370	0.490	1.090
2020/01/31 03:24:53.3	94.640	-0.380	0.450	1.060
2020/01/31 03:24:53.4	94.630	-0.380	0.410	1.030
2020/01/31 03:24:53.5	94.610	-0.370	0.360	1.000
2020/01/31 03:24:53.6	94.600	-0.370	0.300	0.970
2020/01/31 03:24:53.7	94.590	-0.360	0.240	0.930
2020/01/31 03:24:53.8	94.580	-0.350	0.170	0.900
2020/01/31 03:24:53.9	94.560	-0.330	0.100	0.860
2020/01/31 03:24:54.0	94.550	-0.310	0.020	0.820
2020/01/31 03:24:54.1	94.550	-0.290	-0.060	0.780
2020/01/31 03:24:54.2	94.540	-0.270	-0.130	0.730
2020/01/31 03:24:54.3	94.540	-0.240	-0.220	0.690
2020/01/31 03:24:54.4	94.530	-0.210	-0.300	0.650
2020/01/31 03:24:54.5	94.530	-0.180	-0.380	0.600
2020/01/31 03:24:54.6	94.530	-0.150	-0.460	0.560
2020/01/31 03:24:54.7	94.540	-0.120	-0.530	0.520
2020/01/31 03:24:54.8	94.540	-0.090	-0.610	0.470
2020/01/31 03:24:54.9	94.550	-0.050	-0.670	0.430
2020/01/31 03:24:55.0	94.560	-0.020	-0.740	0.390
2020/01/31 03:24:55.1	94.580	0.020	-0.800	0.350
2020/01/31 03:24:55.2	94.590	0.050	-0.850	0.310
2020/01/31 03:24:55.3	94.620	0.080	-0.900	0.280
2020/01/31 03:24:55.4	94.640	0.110	-0.940	0.250
2020/01/31 03:24:55.5	94.670	0.140	-0.970	0.220
2020/01/31 03:24:55.6	94.690	0.170	-1.000	0.200
2020/01/31 03:24:55.7	94.720	0.200	-1.010	0.180
2020/01/31 03:24:55.8	94.760	0.230	-1.020	0.170
2020/01/31 03:24:55.9	94.790	0.250	-1.010	0.160
2020/01/31 03:24:56.0	94.820	0.270	-1.000	0.150
2020/01/31 03:24:56.1	94.850	0.280	-0.980	0.160
2020/01/31 03:24:56.2	94.880	0.290	-0.950	0.170
2020/01/31 03:24:56.3	94.910	0.300	-0.910	0.180
2020/01/31 03:24:56.4	94.940	0.300	-0.870	0.200
2020/01/31 03:24:56.5	94.970	0.300	-0.810	0.220
2020/01/31 03:24:56.6	94.990	0.300	-0.740	0.250
2020/01/31 03:24:56.7	95.010	0.290	-0.670	0.280
2020/01/31 03:24:56.8	95.030	0.270	-0.590	0.310
2020/01/31 03:24:56.9	95.050	0.260	-0.510	0.350
2020/01/31 03:24:57.0	95.060	0.230	-0.420	0.390
2020/01/31 03:24:57.1	95.080	0.200	-0.320	0.430
2020/01/31 03:24:57.2	95.090	0.170	-0.220	0.470
2020/01/31 03:24:57.3	95.090	0.140	-0.120	0.500
2020/01/31 03:24:57.4	95.100	0.100	-0.020	0.540
2020/01/31 03:24:57.5	95.100	0.050	0.080	0.580
2020/01/31 03:24:57.6	95.100	0.000	0.190	0.620
2020/01/31 03:24:57.7	95.110	-0.040	0.290	0.660
2020/01/31 03:24:57.8	95.110	-0.100	0.390	0.690
2020/01/31 03:24:57.9	95.100	-0.150	0.490	0.730
2020/01/31 03:24:58.0	95.100	-0.200	0.580	0.760
2020/01/31 03:24:58.1	95.110	-0.260	0.670	0.780
2020/01/31 03:24:58.2	95.110	-0.310	0.750	0.810
2020/01/31 03:24:58.3	95.110	-0.370	0.830	0.830
2020/01/31 03:24:58.4	95.110	-0.420	0.890	0.860
2020/01/31 03:24:58.5	95.110	-0.480	0.950	0.880
2020/01/31 03:24:58.6	95.110	-0.530	1.000	0.890
2020/01/31 03:24:58.7	95.120	-0.570	1.040	0.910
2020/01/31 03:24:58.8	95.120	-0.620	1.070	0.920
2020/01/31 03:24:58.9	95.130	-0.660	1.090	0.930
2020/01/31 03:24:59.0	95.140	-0.690	1.090	0.930
2020/01/31 03:24:59.1	95.150	-0.730	1.090	0.940
2020/01/31 03:24:59.2	95.160	-0.750	1.070	0.940
2020/01/31 03:24:59.3	95.180	-0.770	1.040	0.930
2020/01/31 03:24:59.4	95.190	-0.780	1.000	0.930
2020/01/31 03:24:59.5	95.210	-0.790	0.950	0.930
2020/01/31 03:24:59.6	95.220	-0.790	0.890	0.920
2020/01/31 03:24:59.7	95.240	-0.780	0.810	0.910
2020/01/31 03:24:59.8	95.250	-0.770	0.730	0.900
2020/01/31 03:24:59.9	95.270	-0.750	0.640	0.890
2020/01/31 03:25:00.0	95.280	-0.720	0.530	0.880
2020/01/31 03:25:00.1	95.290	-0.680	0.420	0.860
2020/01/31 03:25:00.2	95.300	-0.640	0.300	0.850
2020/01/31 03:25:00.3	95.310	-0.590	0.180	0.830
2020/01/31 03:25:00.4	95.320	-0.530	0.050	0.820
2020/01/31 03:25:00.5	95.330	-0.470	-0.080	0.810
2020/01/31 03:25:00.6	95.330	-0.400	-0.210	0.800
2020/01/31 03:25:00.7	95.340	-0.330	-0.350	0.780
2020/01/31 03:25:00.8	95.340	-0.250	-0.480	0.770
2020/01/31 03:25:00.9	95.340	-0.170	-0.610	0.760
2020/01/31 03:25:01.0	95.350	-0.090	-0.740	0.740
2020/01/31 03:25:01.1	95.340	-0.010	-0.870	0.720
2020/01/31 03:25:01.2	95.350	0.080	-0.990	0.710
2020/01/31 03:25:01.3	95.350	0.170	-1.100	0.690
2020/01/31 03:25:01.4	95.350	0.250	-1.200	0.670
2020/01/31 03:25:01.5	95.360	0.340	-1.300	0.650
2020/01/31 03:25:01.6	95.360	0.430	-1.380	0.630
2020/01/31 03:25:01.7	95.360	0.510	-1.450	0.610
2020/01/31 03:25:01.8	95.360	0.590	-1.510	0.600
2020/01/31 03:25:01.9	95.370	0.670	-1.570	0.580
2020/01/31 03:25:02.0	95.370	0.740	-1.610	0.570
2020/01/31 03:25:02.1	95.360	0.810	-1.640	0.550
2020/01/31 03:25:02.2	95.360	0.870	-1.640	0.530
2020/01/31 03:25:02.3	95.360	0.930	-1.650	0.530
2020/01/31 03:25:02.4	95.360	0.990	-1.650	0.520
2020/01/31 03:25:02.5	95.360	1.040	-1.630	0.510
2020/01/31 03:25:02.6	95.350	1.080	-1.600	0.510
2020/01/31 03:25:02.7	95.350	1.110	-1.570	0.510
2020/01/31 03:25:02.8	95.350	1.140	-1.520	0.510
2020/01/31 03:25:02.9	95.340	1.170	-1.470	0.510
2020/01/31 03:25:03.0	95.330	1.180	-1.410	0.510
2020/01/31 03:25:03.1	95.320	1.190	-1.340	0.520
2020/01/31 03:25:03.2	95.320	1.200	-1.270	0.530
2020/01/31 03:25:03.3	95.310	1.190	-1.190	0.540
2020/01/31 03:25:03.4	95.300	1.180	-1.110	0.550
2020/01/31 03:25:03.5	95.280	1.170	-1.020	0.570
2020/01/31 03:25:03.6	95.270	1.150	-0.940	0.580
2020/01/31 03:25:03.7	95.260	1.120	-0.840	0.600
2020/01/31 03:25:03.8	95.240	1.090	-0.750	0.610
2020/01/31 03:25:03.9	95.230	1.060	-0.660	0.630
2020/01/31 03:25:04.0	95.220	1.020	-0.570	0.650
2020/01/31 03:25:04.1	95.200	0.970	-0.470	0.670
2020/01/31 03:25:04.2	95.190	0.930	-0.380	0.680
2020/01/31 03:25:04.3	95.180	0.880	-0.290	0.690
2020/01/31 03:25:04.4	95.170	0.820	-0.200	0.710
2020/01/31 03:25:04.5	95.160	0.760	-0.110	0.720
2020/01/31 03:25:04.6	95.150	0.700	-0.030	0.740
2020/01/31 03:25:04.7	95.150	0.640	0.050	0.750
2020/01/31 03:25:04.8	95.140	0.580	0.130	0.760
2020/01/31 03:25:04.9	95.140	0.510	0.210	0.770
2020/01/31 03:25:05.0	95.140	0.440	0.280	0.770
2020/01/31 03:25:05.1	95.150	0.380	0.350	0.780
2020/01/31 03:25:05.2	95.160	0.310	0.410	0.780
2020/01/31 03:25:05.3	95.170	0.240	0.480	0.780
2020/01/31 03:25:05.4	95.180	0.170	0.530	0.790
2020/01/31 03:25:05.5	95.190	0.100	0.590	0.790
2020/01/31 03:25:05.6	95.200	0.030	0.640	0.790
2020/01/31 03:25:05.7	95.220	-0.040	0.680	0.790
2020/01/31 03:25:05.8	95.240	-0.100	0.720	0.790
2020/01/31 03:25:05.9	95.260	-0.170	0.760	0.790
2020/01/31 03:25:06.0	95.270	-0.230	0.790	0.800
2020/01/31 03:25:06.1	95.290	-0.290	0.810	0.800
2020/01/31 03:25:06.2	95.310	-0.350	0.840	0.800
2020/01/31 03:25:06.3	95.330	-0.410	0.850	0.810
2020/01/31 03:25:06.4	95.350	-0.470	0.860	0.820
2020/01/31 03:25:06.5	95.370	-0.520	0.860	0.830
2020/01/31 03:25:06.6	95.390	-0.570	0.860	0.840
2020/01/31 03:25:06.7	95.410	-0.610	0.850	0.850
2020/01/31 03:25:06.8	95.430	-0.660	0.830	0.860
2020/01/31 03:25:06.9	95.450	-0.700	0.810	0.870
2020/01/31 03:25:07.0	95.470	-0.730	0.780	0.880
2020/01/31 03:25:07.1	95.480	-0.760	0.740	0.880
2020/01/31 03:25:07.2	95.500	-0.790	0.700	0.890
2020/01/31 03:25:07.3	95.520	-0.810	0.650	0.890
2020/01/31 03:25:07.4	95.540	-0.830	0.600	0.900
2020/01/31 03:25:07.5	95.560	-0.850	0.550	0.900
2020/01/31 03:25:07.6	95.580	-0.860	0.490	0.910
2020/01/31 03:25:07.7	95.600	-0.870	0.430	0.910
2020/01/31 03:25:07.8	95.620	-0.870	0.370	0.920
2020/01/31 03:25:07.9	95.640	-0.870	0.300	0.930
2020/01/31 03:25:08.0	95.650	-0.870	0.230	0.930
2020/01/31 03:25:08.1	95.670	-0.860	0.150	0.940
2020/01/31 03:25:08.2	95.690	-0.850	0.080	0.950
2020/01/31 03:25:08.3	95.710	-0.830	0.010	0.960
2020/01/31 03:25:08.4	95.720	-0.810	-0.070	0.980
2020/01/31 03:25:08.5	95.740	-0.790	-0.140	1.000
2020/01/31 03:25:08.6	95.750	-0.770	-0.210	1.020
2020/01/31 03:25:08.7	95.760	-0.740	-0.280	1.040
2020/01/31 03:25:08.8	95.770	-0.710	-0.360	1.070
2020/01/31 03:25:08.9	95.780	-0.680	-0.430	1.100
2020/01/31 03:25:09.0	95.790	-0.640	-0.490	1.130
2020/01/31 03:25:09.1	95.790	-0.610	-0.560	1.160
2020/01/31 03:25:09.2	95.800	-0.570	-0.620	1.190
2020/01/31 03:25:09.3	95.800	-0.530	-0.680	1.230
2020/01/31 03:25:09.4	95.800	-0.490	-0.740	1.270
2020/01/31 03:25:09.5	95.800	-0.440	-0.790	1.300
2020/01/31 03:25:09.6	95.800	-0.400	-0.830	1.340
2020/01/31 03:25:09.7	95.790	-0.360	-0.870	1.370
2020/01/31 03:25:09.8	95.790	-0.310	-0.910	1.400
2020/01/31 03:25:09.9	95.780	-0.270	-0.940	1.420
2020/01/31 03:25:10.0	95.780	-0.230	-0.970	1.440
2020/01/31 03:25:10.1	95.770	-0.180	-0.990	1.460
2020/01/31 03:25:10.2	95.770	-0.140	-1.010	1.480
2020/01/31 03:25:10.3	95.770	-0.100	-1.020	1.490
2020/01/31 03:25:10.4	95.760	-0.060	-1.030	1.490
2020/01/31 03:25:10.5	95.750	-0.020	-1.030	1.500
2020/01/31 03:25:10.6	95.740	0.020	-1.020	1.500
2020/01/31 03:25:10.7	95.730	0.050	-1.010	1.490
2020/01/31 03:25:10.8	95.720	0.080	-1.000	1.480
2020/01/31 03:25:10.9	95.700	0.110	-0.980	1.470
2020/01/31 03:25:11.0	95.690	0.140	-0.950	1.460
2020/01/31 03:25:11.1	95.670	0.170	-0.920	1.440
2020/01/31 03:25:11.2	95.650	0.190	-0.880	1.420
2020/01/31 03:25:11.3	95.630	0.210	-0.840	1.400
2020/01/31 03:25:11.4	95.610	0.220	-0.790	1.370
2020/01/31 03:25:11.5	95.590	0.240	-0.740	1.350
2020/01/31 03:25:11.6	95.560	0.250	-0.680	1.320
2020/01/31 03:25:11.7	95.540	0.250	-0.620	1.290
2020/01/31 03:25:11.8	95.510	0.260	-0.560	1.260
2020/01/31 03:25:11.9	95.480	0.260	-0.490	1.230
2020/01/31 03:25:12.0	95.450	0.260	-0.420	1.190
2020/01/31 03:25:12.1	95.430	0.250	-0.350	1.160
2020/01/31 03:25:12.2	95.400	0.240	-0.270	1.110
2020/01/31 03:25:12.3	95.370	0.230	-0.200	1.070
2020/01/31 03:25:12.4	95.340	0.220	-0.130	1.030
2020/01/31 03:25:12.5	95.310	0.200	-0.050	0.990
2020/01/31 03:25:12.6	95.290	0.190	0.020	0.950
2020/01/31 03:25:12.7	95.260	0.170	0.080	0.900
2020/01/31 03:25:12.8	95.240	0.150	0.150	0.860
2020/01/31 03:25:12.9	95.220	0.130	0.210	0.810
2020/01/31 03:25:13.0	95.200	0.110	0.270	0.770
2020/01/31 03:25:13.1	95.180	0.090	0.320	0.720
2020/01/31 03:25:13.2	95.160	0.070	0.370	0.670
2020/01/31 03:25:13.3	95.150	0.060	0.410	0.620
2020/01/31 03:25:13.4	95.140	0.040	0.440	0.570
2020/01/31 03:25:13.5	95.130	0.020	0.460	0.520
2020/01/31 03:25:13.6	95.130	0.010	0.480	0.470
2020/01/31 03:25:13.7	95.120	0.000	0.480	0.420
2020/01/31 03:25:13.8	95.120	-0.010	0.480	0.370
2020/01/31 03:25:13.9	95.120	-0.010	0.470	0.320
2020/01/31 03:25:14.0	95.130	-0.010	0.450	0.270
2020/01/31 03:25:14.1	95.140	-0.010	0.430	0.220
2020/01/31 03:25:14.2	95.140	-0.000	0.390	0.170
2020/01/31 03:25:14.3	95.150	0.010	0.350	0.120
2020/01/31 03:25:14.4	95.170	0.020	0.290	0.070
2020/01/31 03:25:14.5	95.180	0.040	0.240	0.030
2020/01/31 03:25:14.6	95.190	0.060	0.170	-0.020
2020/01/31 03:25:14.7	95.210	0.080	0.100	-0.070
2020/01/31 03:25:14.8	95.230	0.110	0.030	-0.110
2020/01/31 03:25:14.9	95.250	0.130	-0.050	-0.160
2020/01/31 03:25:15.0	95.270	0.160	-0.130	-0.200
2020/01/31 03:25:15.1	95.300	0.190	-0.210	-0.240
2020/01/31 03:25:15.2	95.320	0.230	-0.300	-0.280
2020/01/31 03:25:15.3	95.340	0.260	-0.380	-0.310
2020/01/31 03:25:15.4	95.360	0.290	-0.460	-0.340
2020/01/31 03:25:15.5	95.380	0.320	-0.540	-0.360
2020/01/31 03:25:15.6	95.400	0.350	-0.610	-0.370
2020/01/31 03:25:15.7	95.420	0.380	-0.680	-0.370
2020/01/31 03:25:15.8	95.430	0.410	-0.740	-0.370
2020/01/31 03:25:15.9	95.440	0.440	-0.800	-0.350
2020/01/31 03:25:16.0	95.450	0.460	-0.850	-0.330
2020/01/31 03:25:16.1	95.450	0.480	-0.890	-0.300
2020/01/31 03:25:16.2	95.450	0.500	-0.920	-0.270
2020/01/31 03:25:16.3	95.450	0.510	-0.940	-0.220
2020/01/31 03:25:16.4	95.450	0.520	-0.960	-0.180
2020/01/31 03:25:16.5	95.440	0.520	-0.960	-0.120
2020/01/31 03:25:16.6	95.440	0.520	-0.960	-0.060
2020/01/31 03:25:16.7	95.430	0.510	-0.950	0.010
2020/01/31 03:25:16.8	95.410	0.500	-0.920	0.070
2020/01/31 03:25:16.9	95.400	0.490	-0.890	0.150
2020/01/31 03:25:17.0	95.380	0.470	-0.850	0.220
2020/01/31 03:25:17.1	95.370	0.450	-0.800	0.300
2020/01/31 03:25:17.2	95.350	0.420	-0.750	0.380
2020/01/31 03:25:17.3	95.330	0.390	-0.680	0.460
2020/01/31 03:25:17.4	95.310	0.350	-0.610	0.540
2020/01/31 03:25:17.5	95.290	0.320	-0.540	0.620
2020/01/31 03:25:17.6	95.280	0.270	-0.460	0.700
2020/01/31 03:25:17.7	95.260	0.230	-0.370	0.770
2020/01/31 03:25:17.8	95.250	0.180	-0.290	0.850
2020/01/31 03:25:17.9	95.230	0.130	-0.200	0.920
2020/01/31 03:25:18.0	95.220	0.080	-0.110	0.990
2020/01/31 03:25:18.1	95.210	0.030	-0.020	1.050
2020/01/31 03:25:18.2	95.200	-0.020	0.060	1.120
2020/01/31 03:25:18.3	95.180	-0.070	0.140	1.180
2020/01/31 03:25:18.4	95.170	-0.120	0.220	1.230
2020/01/31 03:25:18.5	95.160	-0.160	0.290	1.290
2020/01/31 03:25:18.6	95.160	-0.210	0.350	1.340
2020/01/31 03:25:18.7	95.150	-0.260	0.410	1.380
2020/01/31 03:25:18.8	95.140	-0.300	0.460	1.420
2020/01/31 03:25:18.9	95.130	-0.340	0.500	1.460
2020/01/31 03:25:19.0	95.130	-0.380	0.530	1.500
2020/01/31 03:25:19.1	95.120	-0.410	0.560	1.530
2020/01/31 03:25:19.2	95.120	-0.440	0.570	1.560
2020/01/31 03:25:19.3	95.110	-0.470	0.580	1.580
2020/01/31 03:25:19.4	95.100	-0.490	0.580	1.600
2020/01/31 03:25:19.5	95.090	-0.510	0.580	1.620
2020/01/31 03:25:19.6	95.080	-0.530	0.560	1.640
2020/01/31 03:25:19.7	95.070	-0.540	0.540	1.650
2020/01/31 03:25:19.8	95.060	-0.550	0.520	1.660
2020/01/31 03:25:19.9	95.040	-0.560	0.480	1.670
2020/01/31 03:25:20.0	95.030	-0.560	0.440	1.670
2020/01/31 03:25:20.1	95.010	-0.560	0.400	1.670
2020/01/31 03:25:20.2	95.000	-0.550	0.350	1.660
2020/01/31 03:25:20.3	94.990	-0.550	0.300	1.660
2020/01/31 03:25:20.4	94.970	-0.540	0.250	1.640
2020/01/31 03:25:20.5	94.950	-0.520	0.190	1.630
2020/01/31 03:25:20.6	94.940	-0.500	0.130	1.610
2020/01/31 03:25:20.7	94.930	-0.480	0.070	1.580
2020/01/31 03:25:20.8	94.920	-0.460	0.000	1.560
2020/01/31 03:25:20.9	94.910	-0.440	-0.060	1.530
2020/01/31 03:25:21.0	94.900	-0.410	-0.120	1.490
2020/01/31 03:25:21.1	94.900	-0.380	-0.180	1.460
2020/01/31 03:25:21.2	94.910	-0.350	-0.250	1.420
2020/01/31 03:25:21.3	94.910	-0.310	-0.310	1.380
2020/01/31 03:25:21.4	94.910	-0.280	-0.370	1.340
2020/01/31 03:25:21.5	94.920	-0.240	-0.430	1.300
2020/01/31 03:25:21.6	94.930	-0.200	-0.480	1.270
2020/01/31 03:25:21.7	94.940	-0.160	-0.540	1.230
2020/01/31 03:25:21.8	94.950	-0.110	-0.590	1.190
2020/01/31 03:25:21.9	94.960	-0.070	-0.640	1.160
2020/01/31 03:25:22.0	94.980	-0.030	-0.690	1.130
2020/01/31 03:25:22.1	94.990	0.020	-0.730	1.100
2020/01/31 03:25:22.2	95.000	0.070	-0.780	1.070
2020/01/31 03:25:22.3	95.020	0.110	-0.810	1.050
2020/01/31 03:25:22.4	95.030	0.160	-0.850	1.040
2020/01/31 03:25:22.5	95.040	0.210	-0.880	1.020
2020/01/31 03:25:22.6	95.050	0.250	-0.900	1.010
2020/01/31 03:25:22.7	95.060	0.300	-0.930	1.010
2020/01/31 03:25:22.8	95.070	0.340	-0.940	1.010
2020/01/31 03:25:22.9	95.070	0.380	-0.950	1.010
2020/01/31 03:25:23.0	95.080	0.420	-0.960	1.010
2020/01/31 03:25:23.1	95.080	0.460	-0.950	1.020
2020/01/31 03:25:23.2	95.070	0.500	-0.950	1.020
2020/01/31 03:25:23.3	95.060	0.530	-0.930	1.020
2020/01/31 03:25:23.4	95.060	0.560	-0.910	1.030
2020/01/31 03:25:23.5	95.050	0.580	-0.880	1.030
2020/01/31 03:25:23.6	95.050	0.600	-0.850	1.030
2020/01/31 03:25:23.7	95.040	0.610	-0.810	1.030
2020/01/31 03:25:23.8	95.030	0.630	-0.770	1.030
2020/01/31 03:25:23.9	95.030	0.630	-0.710	1.020
2020/01/31 03:25:24.0	95.020	0.630	-0.660	1.020
2020/01/31 03:25:24.1	95.010	0.630	-0.600	1.010
2020/01/31 03:25:24.2	95.000	0.620	-0.530	1.000
2020/01/31 03:25:24.3	95.000	0.610	-0.470	0.990
2020/01/31 03:25:24.4	94.990	0.600	-0.400	0.980
2020/01/31 03:25:24.5	94.990	0.580	-0.320	0.970
2020/01/31 03:25:24.6	94.980	0.550	-0.250	0.960
2020/01/31 03:25:24.7	94.980	0.520	-0.180	0.940
2020/01/31 03:25:24.8	94.980	0.490	-0.110	0.930
2020/01/31 03:25:24.9	94.980	0.460	-0.040	0.930
2020/01/31 03:25:25.0	94.980	0.420	0.030	0.920
2020/01/31 03:25:25.1	94.990	0.380	0.100	0.910
2020/01/31 03:25:25.2	94.990	0.340	0.160	0.910
2020/01/31 03:25:25.3	95.000	0.290	0.220	0.910
2020/01/31 03:25:25.4	95.000	0.250	0.270	0.910
2020/01/31 03:25:25.5	95.010	0.200	0.330	0.910
2020/01/31 03:25:25.6	95.010	0.150	0.370	0.920
2020/01/31 03:25:25.7	95.020	0.110	0.410	0.920
2020/01/31 03:25:25.8	95.030	0.060	0.450	0.930
2020/01/31 03:25:25.9	95.030	0.010	0.480	0.940
2020/01/31 03:25:26.0	95.040	-0.040	0.510	0.950
2020/01/31 03:25:26.1	95.040	-0.090	0.530	0.960
2020/01/31 03:25:26.2	95.050	-0.140	0.540	0.970
2020/01/31 03:25:26.3	95.050	-0.180	0.560	0.980
2020/01/31 03:25:26.4	95.050	-0.230	0.560	0.980
2020/01/31 03:25:26.5	95.060	-0.270	0.560	0.980
2020/01/31 03:25:26.6	95.060	-0.310	0.560	0.990
2020/01/31 03:25:26.7	95.060	-0.350	0.550	0.980
2020/01/31 03:25:26.8	95.060	-0.390	0.540	0.980
2020/01/31 03:25:26.9	95.060	-0.420	0.520	0.970
2020/01/31 03:25:27.0	95.060	-0.450	0.500	0.960
2020/01/31 03:25:27.1	95.060	-0.480	0.470	0.950
2020/01/31 03:25:27.2	95.070	-0.510	0.440	0.930
2020/01/31 03:25:27.3	95.070	-0.530	0.400	0.920
2020/01/31 03:25:27.4	95.070	-0.550	0.360	0.900
2020/01/31 03:25:27.5	95.060	-0.560	0.310	0.890
2020/01/31 03:25:27.6	95.060	-0.570	0.260	0.870
2020/01/31 03:25:27.7	95.060	-0.580	0.200	0.850
2020/01/31 03:25:27.8	95.060	-0.580	0.140	0.840
2020/01/31 03:25:27.9	95.050	-0.580	0.070	0.820
2020/01/31 03:25:28.0	95.050	-0.570	-0.000	0.810
2020/01/31 03:25:28.1	95.050	-0.560	-0.080	0.790
2020/01/31 03:25:28.2	95.040	-0.550	-0.150	0.780
2020/01/31 03:25:28.3	95.040	-0.530	-0.230	0.770
2020/01/31 03:25:28.4	95.040	-0.510	-0.310	0.760
2020/01/31 03:25:28.5	95.040	-0.490	-0.390	0.760
2020/01/31 03:25:28.6	95.040	-0.460	-0.470	0.750
2020/01/31 03:25:28.7	95.040	-0.430	-0.550	0.750
2020/01/31 03:25:28.8	95.050	-0.400	-0.630	0.750
2020/01/31 03:25:28.9	95.050	-0.370	-0.710	0.750
2020/01/31 03:25:29.0	95.050	-0.330	-0.790	0.760
2020/01/31 03:25:29.1	95.040	-0.290	-0.860	0.760
2020/01/31 03:25:29.2	95.050	-0.250	-0.930	0.760
2020/01/31 03:25:29.3	95.050	-0.210	-0.990	0.770
2020/01/31 03:25:29.4	95.050	-0.170	-1.050	0.780
2020/01/31 03:25:29.5	95.060	-0.130	-1.110	0.800
2020/01/31 03:25:29.6	95.060	-0.090	-1.150	0.810
2020/01/31 03:25:29.7	95.050	-0.050	-1.190	0.830
2020/01/31 03:25:29.8	95.050	-0.010	-1.220	0.840
2020/01/31 03:25:29.9	95.050	0.030	-1.240	0.860
2020/01/31 03:25:30.0	95.040	0.060	-1.250	0.880
2020/01/31 03:25:30.1	95.040	0.100	-1.250	0.900
2020/01/31 03:25:30.2	95.030	0.130	-1.250	0.920
2020/01/31 03:25:30.3	95.020	0.160	-1.230	0.930
2020/01/31 03:25:30.4	95.010	0.180	-1.210	0.950
2020/01/31 03:25:30.5	95.000	0.210	-1.180	0.960
2020/01/31 03:25:30.6	94.990	0.230	-1.130	0.970
2020/01/31 03:25:30.7	94.970	0.240	-1.080	0.980
2020/01/31 03:25:30.8	94.960	0.260	-1.030	0.990
2020/01/31 03:25:30.9	94.940	0.270	-0.960	1.000
2020/01/31 03:25:31.0	94.930	0.270	-0.890	1.010
2020/01/31 03:25:31.1	94.910	0.280	-0.810	1.020
2020/01/31 03:25:31.2	94.890	0.280	-0.730	1.020
2020/01/31 03:25:31.3	94.870	0.280	-0.640	1.020
2020/01/31 03:25:31.4	94.860	0.270	-0.560	1.020
2020/01/31 03:25:31.5	94.840	0.270	-0.470	1.020
2020/01/31 03:25:31.6	94.830	0.260	-0.380	1.010
2020/01/31 03:25:31.7	94.810	0.240	-0.290	1.010
2020/01/31 03:25:31.8	94.800	0.230	-0.200	1.000
2020/01/31 03:25:31.9	94.780	0.220	-0.120	0.990
2020/01/31 03:25:32.0	94.770	0.200	-0.030	0.980
2020/01/31 03:25:32.1	94.760	0.190	0.040	0.970
2020/01/31 03:25:32.2	94.750	0.170	0.120	0.960
2020/01/31 03:25:32.3	94.740	0.150	0.190	0.950
2020/01/31 03:25:32.4	94.730	0.130	0.250	0.930
2020/01/31 03:25:32.5	94.720	0.110	0.310	0.910
2020/01/31 03:25:32.6	94.710	0.090	0.360	0.890
2020/01/31 03:25:32.7	94.700	0.070	0.410	0.870
2020/01/31 03:25:32.8	94.700	0.050	0.450	0.850
2020/01/31 03:25:32.9	94.700	0.040	0.490	0.830
2020/01/31 03:25:33.0	94.700	0.020	0.510	0.810
2020/01/31 03:25:33.1	94.700	-0.000	0.540	0.780
2020/01/31 03:25:33.2	94.700	-0.020	0.560	0.760
2020/01/31 03:25:33.3	94.710	-0.040	0.570	0.730
2020/01/31 03:25:33.4	94.720	-0.060	0.580	0.710
2020/01/31 03:25:33.5	94.730	-0.080	0.580	0.680
2020/01/31 03:25:33.6	94.750	-0.100	0.570	0.650
2020/01/31 03:25:33.7	94.760	-0.120	0.560	0.630
2020/01/31 03:25:33.8	94.780	-0.130	0.550	0.600
2020/01/31 03:25:33.9	94.800	-0.150	0.530	0.570
2020/01/31 03:25:34.0	94.830	-0.160	0.510	0.550
2020/01/31 03:25:34.1	94.850	-0.180	0.480	0.520
2020/01/31 03:25:34.2	94.890	-0.190	0.450	0.500
2020/01/31 03:25:34.3	94.910	-0.200	0.410	0.470
2020/01/31 03:25:34.4	94.940	-0.210	0.380	0.450
2020/01/31 03:25:34.5	94.970	-0.220	0.340	0.430
2020/01/31 03:25:34.6	95.000	-0.220	0.290	0.410
2020/01/31 03:25:34.7	95.030	-0.220	0.250	0.390
2020/01/31 03:25:34.8	95.050	-0.220	0.210	0.370
2020/01/31 03:25:34.9	95.080	-0.220	0.160	0.350
2020/01/31 03:25:35.0	95.110	-0.220	0.110	0.340
2020/01/31 03:25:35.1	95.130	-0.210	0.060	0.330
2020/01/31 03:25:35.2	95.160	-0.200	0.020	0.320
2020/01/31 03:25:35.3	95.180	-0.190	-0.030	0.320
2020/01/31 03:25:35.4	95.200	-0.170	-0.080	0.320
2020/01/31 03:25:35.5	95.220	-0.160	-0.120	0.320
2020/01/31 03:25:35.6	95.240	-0.140	-0.160	0.320
2020/01/31 03:25:35.7	95.250	-0.120	-0.200	0.330
2020/01/31 03:25:35.8	95.270	-0.100	-0.240	0.340
2020/01/31 03:25:35.9	95.280	-0.080	-0.280	0.360
2020/01/31 03:25:36.0	95.300	-0.050	-0.320	0.370
2020/01/31 03:25:36.1	95.310	-0.030	-0.350	0.390
2020/01/31 03:25:36.2	95.320	-0.000	-0.380	0.420
2020/01/31 03:25:36.3	95.320	0.020	-0.410	0.440
2020/01/31 03:25:36.4	95.330	0.050	-0.430	0.470
2020/01/31 03:25:36.5	95.330	0.070	-0.450	0.510
2020/01/31 03:25:36.6	95.330	0.100	-0.470	0.540
2020/01/31 03:25:36.7	95.320	0.120	-0.490	0.570
2020/01/31 03:25:36.8	95.320	0.140	-0.510	0.610
2020/01/31 03:25:36.9	95.310	0.170	-0.520	0.650
2020/01/31 03:25:37.0	95.300	0.190	-0.530	0.680
2020/01/31 03:25:37.1	95.280	0.210	-0.540	0.720
2020/01/31 03:25:37.2	95.270	0.230	-0.550	0.760
2020/01/31 03:25:37.3	95.250	0.240	-0.550	0.800
2020/01/31 03:25:37.4	95.240	0.260	-0.560	0.830
2020/01/31 03:25:37.5	95.220	0.270	-0.560	0.860
2020/01/31 03:25:37.6	95.200	0.280	-0.560	0.900
2020/01/31 03:25:37.7	95.180	0.290	-0.560	0.930
2020/01/31 03:25:37.8	95.160	0.300	-0.560	0.950
2020/01/31 03:25:37.9	95.140	0.300	-0.560	0.980
2020/01/31 03:25:38.0	95.110	0.310	-0.550	1.000
2020/01/31 03:25:38.1	95.110	0.310	-0.550	1.020
2020/01/31 03:25:38.2	95.080	0.310	-0.540	1.040
2020/01/31 03:25:38.3	95.060	0.310	-0.530	1.050
2020/01/31 03:25:38.4	95.040	0.300	-0.520	1.070
2020/01/31 03:25:38.5	95.020	0.300	-0.510	1.080
2020/01/31 03:25:38.6	95.000	0.290	-0.500	1.090
2020/01/31 03:25:38.7	94.980	0.280	-0.490	1.100
2020/01/31 03:25:38.8	94.950	0.270	-0.470	1.100
2020/01/31 03:25:38.9	94.930	0.260	-0.460	1.100
2020/01/31 03:25:39.0	94.920	0.250	-0.440	1.110
2020/01/31 03:25:39.1	94.900	0.240	-0.430	1.100
2020/01/31 03:25:39.2	94.880	0.230	-0.410	1.100
2020/01/31 03:25:39.3	94.870	0.220	-0.400	1.090
2020/01/31 03:25:39.4	94.860	0.200	-0.380	1.080
2020/01/31 03:25:39.5	94.840	0.190	-0.370	1.070
2020/01/31 03:25:39.6	94.840	0.180	-0.360	1.060
2020/01/31 03:25:39.7	94.830	0.170	-0.350	1.050
2020/01/31 03:25:39.8	94.830	0.160	-0.330	1.030
2020/01/31 03:25:39.9	94.830	0.150	-0.320	1.020
2020/01/31 03:25:40.0	94.830	0.140	-0.310	1.000
2020/01/31 03:25:40.1	94.830	0.130	-0.300	0.980
2020/01/31 03:25:40.2	94.830	0.130	-0.290	0.960
2020/01/31 03:25:40.3	94.840	0.120	-0.280	0.940
2020/01/31 03:25:40.4	94.850	0.110	-0.280	0.920
2020/01/31 03:25:40.5	94.860	0.100	-0.270	0.900
2020/01/31 03:25:40.6	94.880	0.100	-0.260	0.890
2020/01/31 03:25:40.7	94.890	0.090	-0.250	0.870
2020/01/31 03:25:40.8	94.910	0.080	-0.240	0.850
2020/01/31 03:25:40.9	94.920	0.080	-0.230	0.840
2020/01/31 03:25:41.0	94.940	0.070	-0.220	0.830
2020/01/31 03:25:41.1	94.950	0.060	-0.220	0.810
2020/01/31 03:25:41.2	94.970	0.060	-0.210	0.810
2020/01/31 03:25:41.3	94.990	0.050	-0.200	0.800
2020/01/31 03:25:41.4	95.000	0.040	-0.200	0.800
2020/01/31 03:25:41.5	95.020	0.030	-0.190	0.800
2020/01/31 03:25:41.6	95.030	0.020	-0.180	0.800
2020/01/31 03:25:41.7	95.040	0.010	-0.170	0.800
2020/01/31 03:25:41.8	95.050	0.000	-0.170	0.810
2020/01/31 03:25:41.9	95.060	-0.010	-0.160	0.820
2020/01/31 03:25:42.0	95.070	-0.020	-0.150	0.830
2020/01/31 03:25:42.1	95.080	-0.030	-0.150	0.840
2020/01/31 03:25:42.2	95.080	-0.050	-0.140	0.860
2020/01/31 03:25:42.3	95.090	-0.060	-0.140	0.880
2020/01/31 03:25:42.4	95.090	-0.080	-0.130	0.900
2020/01/31 03:25:42.5	95.090	-0.090	-0.130	0.920
2020/01/31 03:25:42.6	95.090	-0.110	-0.120	0.940
2020/01/31 03:25:42.7	95.090	-0.130	-0.120	0.960
2020/01/31 03:25:42.8	95.090	-0.140	-0.110	0.980
2020/01/31 03:25:42.9	95.090	-0.160	-0.110	1.000
2020/01/31 03:25:43.0	95.080	-0.180	-0.100	1.030
2020/01/31 03:25:43.1	95.080	-0.200	-0.100	1.050
2020/01/31 03:25:43.2	95.080	-0.230	-0.090	1.070
2020/01/31 03:25:43.3	95.070	-0.250	-0.080	1.080
2020/01/31 03:25:43.4	95.060	-0.270	-0.080	1.100
2020/01/31 03:25:43.5	95.060	-0.290	-0.070	1.120
2020/01/31 03:25:43.6	95.050	-0.310	-0.070	1.130
2020/01/31 03:25:43.7	95.040	-0.340	-0.070	1.150
2020/01/31 03:25:43.8	95.040	-0.360	-0.070	1.160
2020/01/31 03:25:43.9	95.030	-0.380	-0.060	1.170
2020/01/31 03:25:44.0	95.020	-0.390	-0.060	1.180
2020/01/31 03:25:44.1	95.010	-0.410	-0.070	1.190
2020/01/31 03:25:44.2	95.010	-0.430	-0.070	1.190
2020/01/31 03:25:44.3	95.000	-0.440	-0.070	1.200
2020/01/31 03:25:44.4	94.990	-0.450	-0.080	1.200
2020/01/31 03:25:44.5	94.990	-0.460	-0.080	1.210
2020/01/31 03:25:44.6	94.980	-0.470	-0.090	1.210
2020/01/31 03:25:44.7	94.980	-0.470	-0.100	1.210
2020/01/31 03:25:44.8	94.970	-0.470	-0.100	1.220
2020/01/31 03:25:44.9	94.970	-0.470	-0.110	1.220
2020/01/31 03:25:45.0	94.960	-0.470	-0.120	1.220
2020/01/31 03:25:45.1	94.950	-0.460	-0.130	1.220
2020/01/31 03:25:45.2	94.950	-0.450	-0.140	1.220
2020/01/31 03:25:45.3	94.940	-0.440	-0.140	1.220
2020/01/31 03:25:45.4	94.940	-0.430	-0.150	1.220
2020/01/31 03:25:45.5	94.940	-0.410	-0.160	1.220
2020/01/31 03:25:45.6	94.930	-0.390	-0.170	1.210
2020/01/31 03:25:45.7	94.930	-0.370	-0.180	1.200
2020/01/31 03:25:45.8	94.920	-0.350	-0.190	1.200
2020/01/31 03:25:45.9	94.920	-0.320	-0.190	1.190
2020/01/31 03:25:46.0	94.910	-0.300	-0.200	1.170
2020/01/31 03:25:46.1	94.900	-0.270	-0.210	1.160
2020/01/31 03:25:46.2	94.900	-0.240	-0.220	1.140
2020/01/31 03:25:46.3	94.890	-0.210	-0.230	1.120
2020/01/31 03:25:46.4	94.890	-0.180	-0.240	1.090
2020/01/31 03:25:46.5	94.880	-0.140	-0.250	1.070
2020/01/31 03:25:46.6	94.880	-0.110	-0.260	1.040
2020/01/31 03:25:46.7	94.870	-0.080	-0.270	1.010
2020/01/31 03:25:46.8	94.860	-0.040	-0.280	0.970
2020/01/31 03:25:46.9	94.860	-0.010	-0.290	0.940
2020/01/31 03:25:47.0	94.860	0.020	-0.300	0.900
2020/01/31 03:25:47.1	94.850	0.050	-0.310	0.870
2020/01/31 03:25:47.2	94.850	0.080	-0.320	0.830
2020/01/31 03:25:47.3	94.850	0.110	-0.330	0.790
2020/01/31 03:25:47.4	94.840	0.140	-0.330	0.750
2020/01/31 03:25:47.5	94.840	0.170	-0.340	0.720
2020/01/31 03:25:47.6	94.840	0.190	-0.350	0.680
2020/01/31 03:25:47.7	94.840	0.220	-0.360	0.650
2020/01/31 03:25:47.8	94.840	0.240	-0.360	0.620
2020/01/31 03:25:47.9	94.840	0.260	-0.370	0.590
2020/01/31 03:25:48.0	94.850	0.280	-0.370	0.570
2020/01/31 03:25:48.1	94.850	0.300	-0.370	0.540
2020/01/31 03:25:48.2	94.860	0.310	-0.380	0.520
2020/01/31 03:25:48.3	94.870	0.320	-0.380	0.490
2020/01/31 03:25:48.4	94.880	0.330	-0.370	0.470
2020/01/31 03:25:48.5	94.880	0.340	-0.370	0.460
2020/01/31 03:25:48.6	94.900	0.350	-0.360	0.440
2020/01/31 03:25:48.7	94.910	0.350	-0.360	0.420
2020/01/31 03:25:48.8	94.920	0.350	-0.340	0.410
2020/01/31 03:25:48.9	94.940	0.350	-0.330	0.400
2020/01/31 03:25:49.0	94.950	0.340	-0.310	0.390
2020/01/31 03:25:49.1	94.970	0.330	-0.290	0.380
2020/01/31 03:25:49.2	94.990	0.320	-0.260	0.380
2020/01/31 03:25:49.3	95.010	0.310	-0.230	0.370
2020/01/31 03:25:49.4	95.020	0.300	-0.200	0.370
2020/01/31 03:25:49.5	95.040	0.280	-0.170	0.370
2020/01/31 03:25:49.6	95.050	0.260	-0.130	0.360
2020/01/31 03:25:49.7	95.060	0.240	-0.100	0.370
2020/01/31 03:25:49.8	95.070	0.220	-0.060	0.370
2020/01/31 03:25:49.9	95.080	0.190	-0.020	0.370
2020/01/31 03:25:50.0	95.090	0.170	0.020	0.380
2020/01/31 03:25:50.1	95.090	0.140	0.060	0.390
2020/01/31 03:25:50.2	95.100	0.120	0.090	0.390
2020/01/31 03:25:50.3	95.100	0.090	0.130	0.400
2020/01/31 03:25:50.4	95.100	0.060	0.160	0.420
2020/01/31 03:25:50.5	95.090	0.040	0.190	0.430
2020/01/31 03:25:50.6	95.080	0.010	0.210	0.450
2020/01/31 03:25:50.7	95.070	-0.010	0.230	0.470
2020/01/31 03:25:50.8	95.060	-0.040	0.240	0.490
2020/01/31 03:25:50.9	95.050	-0.060	0.250	0.510
2020/01/31 03:25:51.0	95.030	-0.080	0.250	0.540
2020/01/31 03:25:51.1	95.010	-0.090	0.250	0.560
2020/01/31 03:25:51.2	94.990	-0.110	0.240	0.590
2020/01/31 03:25:51.3	94.970	-0.120	0.220	0.620
2020/01/31 03:25:51.4	94.950	-0.130	0.190	0.650
2020/01/31 03:25:51.5	94.920	-0.140	0.160	0.680
2020/01/31 03:25:51.6	94.900	-0.140	0.120	0.710
2020/01/31 03:25:51.7	94.880	-0.140	0.070	0.740
2020/01/31 03:25:51.8	94.850	-0.140	0.020	0.770
2020/01/31 03:25:51.9	94.830	-0.130	-0.040	0.800
2020/01/31 03:25:52.0	94.810	-0.120	-0.100	0.830
2020/01/31 03:25:52.1	94.790	-0.110	-0.170	0.850
2020/01/31 03:25:52.2	94.770	-0.090	-0.240	0.880
2020/01/31 03:25:52.3	94.760	-0.070	-0.310	0.900
2020/01/31 03:25:52.4	94.740	-0.050	-0.390	0.920
2020/01/31 03:25:52.5	94.730	-0.030	-0.460	0.950
2020/01/31 03:25:52.6	94.730	-0.010	-0.530	0.970
2020/01/31 03:25:52.7	94.720	0.020	-0.610	0.980
2020/01/31 03:25:52.8	94.710	0.050	-0.680	1.000
2020/01/31 03:25:52.9	94.710	0.070	-0.750	1.020
2020/01/31 03:25:53.0	94.710	0.100	-0.810	1.040
2020/01/31 03:25:53.1	94.710	0.130	-0.870	1.050
2020/01/31 03:25:53.2	94.720	0.160	-0.930	1.070
2020/01/31 03:25:53.3	94.720	0.180	-0.980	1.080
2020/01/31 03:25:53.4	94.730	0.210	-1.020	1.100
2020/01/31 03:25:53.5	94.730	0.230	-1.050	1.120
2020/01/31 03:25:53.6	94.740	0.250	-1.080	1.140
2020/01/31 03:25:53.7	94.750	0.270	-1.100	1.160
2020/01/31 03:25:53.8	94.760	0.280	-1.110	1.180
2020/01/31 03:25:53.9	94.760	0.290	-1.100	1.200
2020/01/31 03:25:54.0	94.770	0.300	-1.100	1.220
2020/01/31 03:25:54.1	94.770	0.300	-1.080	1.240
2020/01/31 03:25:54.2	94.780	0.300	-1.050	1.260
2020/01/31 03:25:54.3	94.790	0.300	-1.020	1.280
2020/01/31 03:25:54.4	94.790	0.290	-0.970	1.290
2020/01/31 03:25:54.5	94.790	0.280	-0.920	1.310
2020/01/31 03:25:54.6	94.790	0.260	-0.860	1.320
2020/01/31 03:25:54.7	94.780	0.240	-0.790	1.330
2020/01/31 03:25:54.8	94.780	0.220	-0.720	1.350
2020/01/31 03:25:54.9	94.770	0.190	-0.640	1.350
2020/01/31 03:25:55.0	94.760	0.160	-0.560	1.360
2020/01/31 03:25:55.1	94.740	0.130	-0.470	1.370
2020/01/31 03:25:55.2	94.730	0.090	-0.380	1.370
2020/01/31 03:25:55.3	94.710	0.060	-0.290	1.380
2020/01/31 03:25:55.4	94.690	0.020	-0.200	1.380
2020/01/31 03:25:55.5	94.670	-0.020	-0.100	1.380
2020/01/31 03:25:55.6	94.650	-0.050	-0.010	1.380
2020/01/31 03:25:55.7	94.630	-0.090	0.090	1.380
2020/01/31 03:25:55.8	94.610	-0.130	0.180	1.380
2020/01/31 03:25:55.9	94.590	-0.170	0.260	1.370
2020/01/31 03:25:56.0	94.570	-0.200	0.340	1.370
2020/01/31 03:25:56.1	94.550	-0.230	0.420	1.360
2020/01/31 03:25:56.2	94.530	-0.270	0.490	1.350
2020/01/31 03:25:56.3	94.510	-0.290	0.550	1.340
2020/01/31 03:25:56.4	94.490	-0.320	0.610	1.320
2020/01/31 03:25:56.5	94.480	-0.340	0.650	1.300
2020/01/31 03:25:56.6	94.460	-0.360	0.690	1.280
2020/01/31 03:25:56.7	94.450	-0.370	0.720	1.260
2020/01/31 03:25:56.8	94.440	-0.380	0.730	1.240
2020/01/31 03:25:56.9	94.430	-0.390	0.740	1.210
2020/01/31 03:25:57.0	94.430	-0.390	0.740	1.190
2020/01/31 03:25:57.1	94.420	-0.390	0.720	1.160
2020/01/31 03:25:57.2	94.420	-0.380	0.700	1.120
2020/01/31 03:25:57.3	94.420	-0.370	0.670	1.090
2020/01/31 03:25:57.4	94.420	-0.350	0.630	1.060
2020/01/31 03:25:57.5	94.420	-0.340	0.580	1.020
2020/01/31 03:25:57.6	94.430	-0.310	0.520	0.980
2020/01/31 03:25:57.7	94.440	-0.290	0.450	0.940
2020/01/31 03:25:57.8	94.450	-0.260	0.380	0.890
2020/01/31 03:25:57.9	94.460	-0.230	0.310	0.850
2020/01/31 03:25:58.0	94.480	-0.200	0.230	0.800
2020/01/31 03:25:58.1	94.490	-0.170	0.140	0.750
2020/01/31 03:25:58.2	94.510	-0.130	0.050	0.690
2020/01/31 03:25:58.3	94.530	-0.100	-0.040	0.640
2020/01/31 03:25:58.4	94.550	-0.060	-0.120	0.580
2020/01/31 03:25:58.5	94.580	-0.020	-0.210	0.530
2020/01/31 03:25:58.6	94.600	0.010	-0.290	0.480
2020/01/31 03:25:58.7	94.620	0.050	-0.370	0.420
2020/01/31 03:25:58.8	94.650	0.080	-0.450	0.380
2020/01/31 03:25:58.9	94.670	0.110	-0.520	0.330
2020/01/31 03:25:59.0	94.700	0.140	-0.580	0.290
2020/01/31 03:25:59.1	94.720	0.160	-0.640	0.250
2020/01/31 03:25:59.2	94.750	0.180	-0.690	0.220
2020/01/31 03:25:59.3	94.770	0.200	-0.730	0.200
2020/01/31 03:25:59.4	94.790	0.220	-0.760	0.180
2020/01/31 03:25:59.5	94.810	0.230	-0.780	0.170
2020/01/31 03:25:59.6	94.820	0.230	-0.790	0.160
2020/01/31 03:25:59.7	94.830	0.240	-0.790	0.160
2020/01/31 03:25:59.8	94.840	0.240	-0.780	0.170
2020/01/31 03:25:59.9	94.850	0.230	-0.760	0.180
2020/01/31 03:26:00.0	94.860	0.220	-0.740	0.200
2020/01/31 03:26:00.1	94.860	0.210	-0.700	0.230
2020/01/31 03:26:00.2	94.860	0.190	-0.660	0.260
2020/01/31 03:26:00.3	94.850	0.170	-0.620	0.290
2020/01/31 03:26:00.4	94.850	0.140	-0.560	0.330
2020/01/31 03:26:00.5	94.840	0.110	-0.500	0.370
2020/01/31 03:26:00.6	94.820	0.080	-0.440	0.410
2020/01/31 03:26:00.7	94.810	0.050	-0.380	0.450
2020/01/31 03:26:00.8	94.790	0.010	-0.310	0.490
2020/01/31 03:26:00.9	94.770	-0.020	-0.250	0.530
2020/01/31 03:26:01.0	94.750	-0.060	-0.180	0.580
2020/01/31 03:26:01.1	94.730	-0.100	-0.110	0.620
2020/01/31 03:26:01.2	94.710	-0.140	-0.050	0.660
2020/01/31 03:26:01.3	94.690	-0.180	0.010	0.700
2020/01/31 03:26:01.4	94.660	-0.220	0.060	0.740
2020/01/31 03:26:01.5	94.640	-0.260	0.110	0.770
2020/01/31 03:26:01.6	94.610	-0.300	0.150	0.810
2020/01/31 03:26:01.7	94.590	-0.340	0.190	0.840
2020/01/31 03:26:01.8	94.560	-0.370	0.220	0.870
2020/01/31 03:26:01.9	94.540	-0.400	0.240	0.900
2020/01/31 03:26:02.0	94.520	-0.430	0.250	0.930
2020/01/31 03:26:02.1	94.500	-0.450	0.260	0.950
2020/01/31 03:26:02.2	94.480	-0.470	0.250	0.980
2020/01/31 03:26:02.3	94.470	-0.480	0.240	1.000
2020/01/31 03:26:02.4	94.450	-0.490	0.210	1.020
2020/01/31 03:26:02.5	94.440	-0.500	0.180	1.040
2020/01/31 03:26:02.6	94.430	-0.500	0.140	1.060
2020/01/31 03:26:02.7	94.420	-0.500	0.100	1.070
2020/01/31 03:26:02.8	94.420	-0.490	0.040	1.090
2020/01/31 03:26:02.9	94.420	-0.470	-0.020	1.100
2020/01/31 03:26:03.0	94.420	-0.450	-0.090	1.120
2020/01/31 03:26:03.1	94.410	-0.430	-0.160	1.120
2020/01/31 03:26:03.2	94.420	-0.400	-0.230	1.130
2020/01/31 03:26:03.3	94.420	-0.370	-0.310	1.140
2020/01/31 03:26:03.4	94.430	-0.330	-0.390	1.150
2020/01/31 03:26:03.5	94.440	-0.290	-0.460	1.150
2020/01/31 03:26:03.6	94.450	-0.250	-0.540	1.150
2020/01/31 03:26:03.7	94.460	-0.210	-0.610	1.150
2020/01/31 03:26:03.8	94.470	-0.170	-0.680	1.150
2020/01/31 03:26:03.9	94.480	-0.120	-0.740	1.150
2020/01/31 03:26:04.0	94.490	-0.070	-0.800	1.140
2020/01/31 03:26:04.1	94.500	-0.030	-0.850	1.130
2020/01/31 03:26:04.2	94.500	0.020	-0.900	1.120
2020/01/31 03:26:04.3	94.510	0.060	-0.930	1.100
2020/01/31 03:26:04.4	94.520	0.110	-0.960	1.090
2020/01/31 03:26:04.5	94.520	0.150	-0.980	1.070
2020/01/31 03:26:04.6	94.530	0.190	-0.990	1.050
2020/01/31 03:26:04.7	94.520	0.230	-1.000	1.030
2020/01/31 03:26:04.8	94.520	0.270	-0.990	1.010
2020/01/31 03:26:04.9	94.510	0.300	-0.980	0.990
2020/01/31 03:26:05.0	94.500	0.330	-0.950	0.980
2020/01/31 03:26:05.1	94.490	0.360	-0.920	0.960
2020/01/31 03:26:05.2	94.460	0.380	-0.870	0.940
2020/01/31 03:26:05.3	94.440	0.400	-0.820	0.920
2020/01/31 03:26:05.4	94.420	0.410	-0.760	0.910
2020/01/31 03:26:05.5	94.390	0.420	-0.700	0.890
2020/01/31 03:26:05.6	94.370	0.430	-0.630	0.880
2020/01/31 03:26:05.7	94.340	0.430	-0.550	0.870
2020/01/31 03:26:05.8	94.310	0.420	-0.460	0.860
2020/01/31 03:26:05.9	94.270	0.420	-0.380	0.860
2020/01/31 03:26:06.0	94.240	0.410	-0.280	0.850
2020/01/31 03:26:06.1	94.200	0.390	-0.190	0.850
2020/01/31 03:26:06.2	94.160	0.370	-0.100	0.850
2020/01/31 03:26:06.3	94.120	0.350	-0.000	0.850
2020/01/31 03:26:06.4	94.090	0.320	0.090	0.850
2020/01/31 03:26:06.5	94.050	0.300	0.180	0.850
2020/01/31 03:26:06.6	94.010	0.270	0.270	0.860
2020/01/31 03:26:06.7	93.980	0.230	0.350	0.860
2020/01/31 03:26:06.8	93.940	0.200	0.430	0.870
2020/01/31 03:26:06.9	93.910	0.170	0.500	0.870
2020/01/31 03:26:07.0	93.880	0.130	0.560	0.880
2020/01/31 03:26:07.1	93.850	0.100	0.610	0.880
2020/01/31 03:26:07.2	93.820	0.060	0.660	0.880
2020/01/31 03:26:07.3	93.790	0.030	0.690	0.880
2020/01/31 03:26:07.4	93.770	-0.000	0.720	0.880
2020/01/31 03:26:07.5	93.740	-0.030	0.730	0.870
2020/01/31 03:26:07.6	93.720	-0.050	0.730	0.870
2020/01/31 03:26:07.7	93.710	-0.080	0.720	0.860
2020/01/31 03:26:07.8	93.690	-0.100	0.700	0.850
2020/01/31 03:26:07.9	93.680	-0.110	0.670	0.840
2020/01/31 03:26:08.0	93.660	-0.120	0.630	0.820
2020/01/31 03:26:08.1	93.650	-0.130	0.570	0.800
2020/01/31 03:26:08.2	93.640	-0.130	0.510	0.780
2020/01/31 03:26:08.3	93.640	-0.130	0.440	0.760
2020/01/31 03:26:08.4	93.640	-0.120	0.360	0.730
2020/01/31 03:26:08.5	93.640	-0.110	0.270	0.690
2020/01/31 03:26:08.6	93.650	-0.090	0.180	0.660
2020/01/31 03:26:08.7	93.660	-0.070	0.080	0.620
2020/01/31 03:26:08.8	93.670	-0.050	-0.020	0.580
2020/01/31 03:26:08.9	93.690	-0.020	-0.120	0.540
2020/01/31 03:26:09.0	93.710	0.000	-0.220	0.500
2020/01/31 03:26:09.1	93.740	0.040	-0.330	0.450
2020/01/31 03:26:09.2	93.760	0.070	-0.430	0.410
2020/01/31 03:26:09.3	93.790	0.100	-0.520	0.370
2020/01/31 03:26:09.4	93.820	0.140	-0.610	0.340
2020/01/31 03:26:09.5	93.860	0.170	-0.690	0.310
2020/01/31 03:26:09.6	93.890	0.210	-0.770	0.280
2020/01/31 03:26:09.7	93.930	0.240	-0.830	0.260
2020/01/31 03:26:09.8	93.970	0.270	-0.890	0.250
2020/01/31 03:26:09.9	94.000	0.300	-0.940	0.240
2020/01/31 03:26:10.0	94.040	0.330	-0.970	0.240
2020/01/31 03:26:10.1	94.080	0.350	-1.000	0.250
2020/01/31 03:26:10.2	94.110	0.370	-1.020	0.260
2020/01/31 03:26:10.3	94.150	0.390	-1.030	0.280
2020/01/31 03:26:10.4	94.190	0.400	-1.020	0.310
2020/01/31 03:26:10.5	94.220	0.410	-1.010	0.350
2020/01/31 03:26:10.6	94.250	0.410	-0.980	0.390
2020/01/31 03:26:10.7	94.280	0.410	-0.950	0.440
2020/01/31 03:26:10.8	94.300	0.400	-0.910	0.490
2020/01/31 03:26:10.9	94.330	0.390	-0.860	0.540
2020/01/31 03:26:11.0	94.350	0.370	-0.800	0.600
2020/01/31 03:26:11.1	94.370	0.350	-0.740	0.660
2020/01/31 03:26:11.2	94.380	0.320	-0.670	0.730
2020/01/31 03:26:11.3	94.390	0.290	-0.600	0.800
2020/01/31 03:26:11.4	94.400	0.250	-0.520	0.860
2020/01/31 03:26:11.5	94.400	0.210	-0.440	0.930
2020/01/31 03:26:11.6	94.400	0.170	-0.360	1.000
2020/01/31 03:26:11.7	94.400	0.120	-0.280	1.060
2020/01/31 03:26:11.8	94.400	0.070	-0.200	1.130
2020/01/31 03:26:11.9	94.390	0.020	-0.130	1.200
2020/01/31 03:26:12.0	94.380	-0.030	-0.050	1.260
2020/01/31 03:26:12.1	94.360	-0.090	0.030	1.320
2020/01/31 03:26:12.2	94.340	-0.140	0.100	1.380
2020/01/31 03:26:12.3	94.320	-0.200	0.160	1.440
2020/01/31 03:26:12.4	94.300	-0.250	0.220	1.490
2020/01/31 03:26:12.5	94.270	-0.310	0.280	1.540
2020/01/31 03:26:12.6	94.240	-0.360	0.330	1.590
2020/01/31 03:26:12.7	94.210	-0.410	0.370	1.640
2020/01/31 03:26:12.8	94.170	-0.460	0.410	1.680
2020/01/31 03:26:12.9	94.140	-0.500	0.440	1.720
2020/01/31 03:26:13.0	94.100	-0.550	0.460	1.760
2020/01/31 03:26:13.1	94.060	-0.580	0.480	1.790
2020/01/31 03:26:13.2	94.020	-0.620	0.480	1.820
2020/01/31 03:26:13.3	93.980	-0.650	0.480	1.850
2020/01/31 03:26:13.4	93.940	-0.680	0.470	1.870
2020/01/31 03:26:13.5	93.900	-0.700	0.450	1.890
2020/01/31 03:26:13.6	93.870	-0.720	0.430	1.900
2020/01/31 03:26:13.7	93.840	-0.730	0.390	1.910
2020/01/31 03:26:13.8	93.810	-0.730	0.350	1.910
2020/01/31 03:26:13.9	93.790	-0.740	0.310	1.900
2020/01/31 03:26:14.0	93.770	-0.730	0.260	1.890
2020/01/31 03:26:14.1	93.750	-0.730	0.200	1.870
2020/01/31 03:26:14.2	93.750	-0.710	0.130	1.850
2020/01/31 03:26:14.3	93.750	-0.700	0.060	1.820
2020/01/31 03:26:14.4	93.750	-0.680	-0.010	1.790
2020/01/31 03:26:14.5	93.750	-0.650	-0.090	1.750
2020/01/31 03:26:14.6	93.750	-0.620	-0.170	1.710
2020/01/31 03:26:14.7	93.760	-0.580	-0.250	1.660
2020/01/31 03:26:14.8	93.780	-0.540	-0.330	1.610
2020/01/31 03:26:14.9	93.790	-0.500	-0.420	1.560
2020/01/31 03:26:15.0	93.810	-0.460	-0.500	1.500
2020/01/31 03:26:15.1	93.830	-0.410	-0.580	1.440
2020/01/31 03:26:15.2	93.840	-0.360	-0.660	1.380
2020/01/31 03:26:15.3	93.860	-0.310	-0.740	1.320
2020/01/31 03:26:15.4	93.880	-0.260	-0.810	1.260
2020/01/31 03:26:15.5	93.890	-0.200	-0.870	1.210
2020/01/31 03:26:15.6	93.910	-0.150	-0.930	1.150
2020/01/31 03:26:15.7	93.920	-0.090	-0.970	1.100
2020/01/31 03:26:15.8	93.930	-0.040	-1.020	1.040
2020/01/31 03:26:15.9	93.940	0.010	-1.050	0.990
2020/01/31 03:26:16.0	93.940	0.060	-1.070	0.940
2020/01/31 03:26:16.1	93.950	0.110	-1.080	0.900
2020/01/31 03:26:16.2	93.950	0.160	-1.080	0.850
2020/01/31 03:26:16.3	93.950	0.200	-1.080	0.810
2020/01/31 03:26:16.4	93.950	0.240	-1.060	0.770
2020/01/31 03:26:16.5	93.950	0.280	-1.030	0.730
2020/01/31 03:26:16.6	93.950	0.310	-1.000	0.700
2020/01/31 03:26:16.7	93.940	0.340	-0.950	0.670
2020/01/31 03:26:16.8	93.930	0.370	-0.900	0.640
2020/01/31 03:26:16.9	93.930	0.400	-0.840	0.610
2020/01/31 03:26:17.0	93.920	0.420	-0.780	0.590
2020/01/31 03:26:17.1	93.900	0.430	-0.710	0.570
2020/01/31 03:26:17.2	93.890	0.450	-0.640	0.560
2020/01/31 03:26:17.3	93.880	0.460	-0.560	0.540
2020/01/31 03:26:17.4	93.870	0.460	-0.490	0.530
2020/01/31 03:26:17.5	93.860	0.470	-0.410	0.520
2020/01/31 03:26:17.6	93.840	0.470	-0.330	0.520
2020/01/31 03:26:17.7	93.830	0.470	-0.260	0.520
2020/01/31 03:26:17.8	93.820	0.460	-0.180	0.510
2020/01/31 03:26:17.9	93.810	0.460	-0.110	0.510
2020/01/31 03:26:18.0	93.800	0.450	-0.040	0.520
2020/01/31 03:26:18.1	93.790	0.430	0.020	0.520
2020/01/31 03:26:18.2	93.790	0.420	0.090	0.530
2020/01/31 03:26:18.3	93.780	0.410	0.140	0.530
2020/01/31 03:26:18.4	93.780	0.390	0.190	0.540
2020/01/31 03:26:18.5	93.780	0.370	0.240	0.540
2020/01/31 03:26:18.6	93.780	0.350	0.290	0.550
2020/01/31 03:26:18.7	93.780	0.320	0.320	0.550
2020/01/31 03:26:18.8	93.780	0.300	0.360	0.550
2020/01/31 03:26:18.9	93.790	0.270	0.390	0.550
2020/01/31 03:26:19.0	93.790	0.240	0.420	0.550
2020/01/31 03:26:19.1	93.800	0.220	0.440	0.550
2020/01/31 03:26:19.2	93.810	0.180	0.450	0.540
2020/01/31 03:26:19.3	93.820	0.150	0.470	0.540
2020/01/31 03:26:19.4	93.840	0.120	0.480	0.530
2020/01/31 03:26:19.5	93.860	0.090	0.490	0.520
2020/01/31 03:26:19.6	93.880	0.050	0.500	0.510
2020/01/31 03:26:19.7	93.900	0.020	0.500	0.500
2020/01/31 03:26:19.8	93.920	-0.020	0.500	0.490
2020/01/31 03:26:19.9	93.940	-0.050	0.500	0.480
2020/01/31 03:26:20.0	93.960	-0.080	0.490	0.470
2020/01/31 03:26:20.1	93.990	-0.110	0.490	0.460
2020/01/31 03:26:20.2	94.010	-0.140	0.470	0.450
2020/01/31 03:26:20.3	94.030	-0.170	0.460	0.440
2020/01/31 03:26:20.4	94.040	-0.200	0.430	0.440
2020/01/31 03:26:20.5	94.060	-0.220	0.410	0.440
2020/01/31 03:26:20.6	94.070	-0.240	0.380	0.430
2020/01/31 03:26:20.7	94.090	-0.260	0.350	0.430
2020/01/31 03:26:20.8	94.100	-0.270	0.310	0.440
2020/01/31 03:26:20.9	94.110	-0.280	0.270	0.440
2020/01/31 03:26:21.0	94.120	-0.290	0.220	0.450
2020/01/31 03:26:21.1	94.130	-0.290	0.160	0.450
2020/01/31 03:26:21.2	94.140	-0.290	0.110	0.460
2020/01/31 03:26:21.3	94.150	-0.290	0.050	0.470
2020/01/31 03:26:21.4	94.160	-0.280	-0.010	0.480
2020/01/31 03:26:21.5	94.170	-0.280	-0.070	0.500
2020/01/31 03:26:21.6	94.170	-0.260	-0.140	0.510
2020/01/31 03:26:21.7	94.180	-0.250	-0.210	0.520
2020/01/31 03:26:21.8	94.190	-0.230	-0.270	0.540
2020/01/31 03:26:21.9	94.200	-0.210	-0.340	0.560
2020/01/31 03:26:22.0	94.210	-0.190	-0.410	0.580
2020/01/31 03:26:22.1	94.210	-0.160	-0.480	0.600
2020/01/31 03:26:22.2	94.220	-0.140	-0.540	0.630
2020/01/31 03:26:22.3	94.230	-0.110	-0.610	0.650
2020/01/31 03:26:22.4	94.230	-0.080	-0.670	0.680
2020/01/31 03:26:22.5	94.240	-0.050	-0.720	0.720
2020/01/31 03:26:22.6	94.240	-0.030	-0.770	0.750
2020/01/31 03:26:22.7	94.240	0.000	-0.820	0.790
2020/01/31 03:26:22.8	94.240	0.030	-0.860	0.830
2020/01/31 03:26:22.9	94.240	0.050	-0.900	0.870
2020/01/31 03:26:23.0	94.230	0.080	-0.930	0.910
2020/01/31 03:26:23.1	94.220	0.100	-0.950	0.950
2020/01/31 03:26:23.2	94.220	0.120	-0.960	1.000
2020/01/31 03:26:23.3	94.210	0.140	-0.970	1.040
2020/01/31 03:26:23.4	94.200	0.160	-0.970	1.080
2020/01/31 03:26:23.5	94.190	0.170	-0.960	1.120
2020/01/31 03:26:23.6	94.180	0.180	-0.950	1.160
2020/01/31 03:26:23.7	94.170	0.190	-0.930	1.190
2020/01/31 03:26:23.8	94.160	0.200	-0.900	1.220
2020/01/31 03:26:23.9	94.150	0.200	-0.870	1.250
2020/01/31 03:26:24.0	94.140	0.200	-0.830	1.270
2020/01/31 03:26:24.1	94.130	0.200	-0.780	1.290
2020/01/31 03:26:24.2	94.120	0.200	-0.730	1.310
2020/01/31 03:26:24.3	94.110	0.190	-0.680	1.320
2020/01/31 03:26:24.4	94.100	0.180	-0.620	1.320
2020/01/31 03:26:24.5	94.100	0.170	-0.570	1.330
2020/01/31 03:26:24.6	94.090	0.160	-0.510	1.330
2020/01/31 03:26:24.7	94.080	0.150	-0.450	1.320
2020/01/31 03:26:24.8	94.080	0.140	-0.390	1.310
2020/01/31 03:26:24.9	94.070	0.130	-0.330	1.310
2020/01/31 03:26:25.0	94.070	0.120	-0.280	1.290
2020/01/31 03:26:25.1	94.060	0.100	-0.230	1.280
2020/01/31 03:26:25.2	94.060	0.090	-0.180	1.260
2020/01/31 03:26:25.3	94.050	0.080	-0.140	1.250
2020/01/31 03:26:25.4	94.050	0.070	-0.100	1.240
2020/01/31 03:26:25.5	94.040	0.070	-0.070	1.220
2020/01/31 03:26:25.6	94.040	0.060	-0.050	1.210
2020/01/31 03:26:25.7	94.030	0.050	-0.030	1.200
2020/01/31 03:26:25.8	94.030	0.050	-0.010	1.180
2020/01/31 03:26:25.9	94.020	0.050	-0.010	1.170
2020/01/31 03:26:26.0	94.010	0.050	-0.000	1.160
2020/01/31 03:26:26.1	94.010	0.050	-0.010	1.140
2020/01/31 03:26:26.2	94.000	0.050	-0.010	1.130
2020/01/31 03:26:26.3	93.990	0.050	-0.020	1.110
2020/01/31 03:26:26.4	93.980	0.050	-0.030	1.090
2020/01/31 03:26:26.5	93.970	0.050	-0.050	1.080
2020/01/31 03:26:26.6	93.970	0.050	-0.070	1.060
2020/01/31 03:26:26.7	93.960	0.060	-0.080	1.040
2020/01/31 03:26:26.8	93.950	0.060	-0.100	1.020
2020/01/31 03:26:26.9	93.950	0.060	-0.120	0.990
2020/01/31 03:26:27.0	93.940	0.060	-0.140	0.970
2020/01/31 03:26:27.1	93.930	0.060	-0.160	0.940
2020/01/31 03:26:27.2	93.920	0.060	-0.180	0.920
2020/01/31 03:26:27.3	93.920	0.060	-0.200	0.900
2020/01/31 03:26:27.4	93.920	0.060	-0.220	0.880
2020/01/31 03:26:27.5	93.920	0.060	-0.230	0.850
2020/01/31 03:26:27.6	93.920	0.060	-0.250	0.830
2020/01/31 03:26:27.7	93.930	0.050	-0.260	0.810
2020/01/31 03:26:27.8	93.930	0.050	-0.270	0.790
2020/01/31 03:26:27.9	93.940	0.050	-0.280	0.770
2020/01/31 03:26:28.0	93.960	0.050	-0.290	0.740
2020/01/31 03:26:28.1	93.970	0.040	-0.290	0.720
2020/01/31 03:26:28.2	93.980	0.040	-0.290	0.700
2020/01/31 03:26:28.3	94.000	0.030	-0.290	0.680
2020/01/31 03:26:28.4	94.020	0.020	-0.290	0.660
2020/01/31 03:26:28.5	94.040	0.020	-0.280	0.640
2020/01/31 03:26:28.6	94.060	0.010	-0.270	0.620
2020/01/31 03:26:28.7	94.090	0.000	-0.260	0.600
2020/01/31 03:26:28.8	94.110	-0.010	-0.250	0.580
2020/01/31 03:26:28.9	94.140	-0.020	-0.230	0.560
2020/01/31 03:26:29.0	94.160	-0.030	-0.210	0.540
2020/01/31 03:26:29.1	94.190	-0.040	-0.190	0.530
2020/01/31 03:26:29.2	94.210	-0.050	-0.170	0.510
2020/01/31 03:26:29.3	94.230	-0.070	-0.140	0.500
2020/01/31 03:26:29.4	94.250	-0.080	-0.110	0.490
2020/01/31 03:26:29.5	94.270	-0.100	-0.080	0.480
2020/01/31 03:26:29.6	94.290	-0.120	-0.040	0.470
2020/01/31 03:26:29.7	94.300	-0.140	-0.010	0.470
2020/01/31 03:26:29.8	94.310	-0.160	0.030	0.460
2020/01/31 03:26:29.9	94.320	-0.180	0.080	0.460
2020/01/31 03:26:30.0	94.320	-0.210	0.120	0.460
2020/01/31 03:26:30.1	94.330	-0.230	0.160	0.460
2020/01/31 03:26:30.2	94.330	-0.260	0.210	0.460
2020/01/31 03:26:30.3	94.330	-0.280	0.250	0.470
2020/01/31 03:26:30.4	94.320	-0.310	0.290	0.480
2020/01/31 03:26:30.5	94.310	-0.330	0.340	0.490
2020/01/31 03:26:30.6	94.300	-0.360	0.380	0.510
2020/01/31 03:26:30.7	94.280	-0.380	0.410	0.530
2020/01/31 03:26:30.8	94.270	-0.410	0.440	0.550
2020/01/31 03:26:30.9	94.250	-0.430	0.470	0.570
2020/01/31 03:26:31.0	94.230	-0.450	0.500	0.600
2020/01/31 03:26:31.1	94.210	-0.470	0.510	0.620
2020/01/31 03:26:31.2	94.190	-0.490	0.520	0.650
2020/01/31 03:26:31.3	94.170	-0.500	0.530	0.680
2020/01/31 03:26:31.4	94.150	-0.520	0.530	0.710
2020/01/31 03:26:31.5	94.140	-0.520	0.520	0.740
2020/01/31 03:26:31.6	94.120	-0.530	0.500	0.780
2020/01/31 03:26:31.7	94.100	-0.530	0.470	0.800
2020/01/31 03:26:31.8	94.090	-0.520	0.440	0.830
2020/01/31 03:26:31.9	94.080	-0.510	0.390	0.860
2020/01/31 03:26:32.0	94.070	-0.500	0.340	0.880
2020/01/31 03:26:32.1	94.070	-0.480	0.270	0.900
2020/01/31 03:26:32.2	94.060	-0.460	0.210	0.920
2020/01/31 03:26:32.3	94.060	-0.430	0.130	0.940
2020/01/31 03:26:32.4	94.060	-0.400	0.040	0.950
2020/01/31 03:26:32.5	94.070	-0.360	-0.050	0.950
2020/01/31 03:26:32.6	94.070	-0.320	-0.150	0.960
2020/01/31 03:26:32.7	94.080	-0.270	-0.250	0.950
2020/01/31 03:26:32.8	94.090	-0.220	-0.360	0.950
2020/01/31 03:26:32.9	94.100	-0.160	-0.480	0.940
2020/01/31 03:26:33.0	94.120	-0.100	-0.590	0.920
2020/01/31 03:26:33.1	94.130	-0.040	-0.700	0.910
2020/01/31 03:26:33.2	94.160	0.030	-0.820	0.880
2020/01/31 03:26:33.3	94.170	0.100	-0.940	0.860
2020/01/31 03:26:33.4	94.190	0.170	-1.050	0.830
2020/01/31 03:26:33.5	94.210	0.240	-1.150	0.810
2020/01/31 03:26:33.6	94.220	0.310	-1.250	0.790
2020/01/31 03:26:33.7	94.240	0.380	-1.340	0.760
2020/01/31 03:26:33.8	94.250	0.440	-1.420	0.740
2020/01/31 03:26:33.9	94.250	0.510	-1.490	0.720
2020/01/31 03:26:34.0	94.250	0.570	-1.550	0.700
2020/01/31 03:26:34.1	94.250	0.630	-1.590	0.690
2020/01/31 03:26:34.2	94.250	0.680	-1.620	0.680
2020/01/31 03:26:34.3	94.240	0.730	-1.630	0.660
2020/01/31 03:26:34.4	94.230	0.770	-1.620	0.650
2020/01/31 03:26:34.5	94.210	0.810	-1.600	0.650
2020/01/31 03:26:34.6	94.190	0.840	-1.570	0.640
2020/01/31 03:26:34.7	94.170	0.860	-1.510	0.640
2020/01/31 03:26:34.8	94.150	0.870	-1.450	0.630
2020/01/31 03:26:34.9	94.120	0.880	-1.370	0.630
2020/01/31 03:26:35.0	94.090	0.880	-1.280	0.640
2020/01/31 03:26:35.1	94.060	0.870	-1.180	0.640
2020/01/31 03:26:35.2	94.030	0.860	-1.060	0.640
2020/01/31 03:26:35.3	94.000	0.830	-0.940	0.650
2020/01/31 03:26:35.4	93.970	0.800	-0.810	0.660
2020/01/31 03:26:35.5	93.930	0.770	-0.680	0.670
2020/01/31 03:26:35.6	93.900	0.720	-0.540	0.680
2020/01/31 03:26:35.7	93.860	0.670	-0.400	0.690
2020/01/31 03:26:35.8	93.830	0.620	-0.260	0.700
2020/01/31 03:26:35.9	93.800	0.560	-0.120	0.720
2020/01/31 03:26:36.0	93.770	0.500	0.020	0.730
2020/01/31 03:26:36.1	93.740	0.430	0.150	0.740
2020/01/31 03:26:36.2	93.710	0.360	0.280	0.750
2020/01/31 03:26:36.3	93.690	0.290	0.400	0.760
2020/01/31 03:26:36.4	93.670	0.220	0.510	0.770
2020/01/31 03:26:36.5	93.660	0.150	0.610	0.780
2020/01/31 03:26:36.6	93.650	0.080	0.700	0.780
2020/01/31 03:26:36.7	93.640	0.010	0.780	0.790
2020/01/31 03:26:36.8	93.630	-0.060	0.850	0.790
2020/01/31 03:26:36.9	93.630	-0.120	0.900	0.790
2020/01/31 03:26:37.0	93.630	-0.180	0.940	0.790
2020/01/31 03:26:37.1	93.630	-0.240	0.970	0.780
2020/01/31 03:26:37.2	93.630	-0.290	0.990	0.770
2020/01/31 03:26:37.3	93.640	-0.340	1.000	0.760
2020/01/31 03:26:37.4	93.650	-0.380	1.000	0.760
2020/01/31 03:26:37.5	93.660	-0.420	0.990	0.750
2020/01/31 03:26:37.6	93.680	-0.450	0.970	0.740
2020/01/31 03:26:37.7	93.690	-0.480	0.940	0.730
2020/01/31 03:26:37.8	93.700	-0.510	0.900	0.720
2020/01/31 03:26:37.9	93.720	-0.530	0.860	0.710
2020/01/31 03:26:38.0	93.740	-0.540	0.800	0.700
2020/01/31 03:26:38.1	93.750	-0.550	0.750	0.690
2020/01/31 03:26:38.2	93.760	-0.560	0.680	0.680
2020/01/31 03:26:38.3	93.780	-0.560	0.610	0.670
2020/01/31 03:26:38.4	93.790	-0.560	0.540	0.670
2020/01/31 03:26:38.5	93.810	-0.560	0.470	0.670
2020/01/31 03:26:38.6	93.820	-0.550	0.400	0.670
2020/01/31 03:26:38.7	93.840	-0.530	0.320	0.670
2020/01/31 03:26:38.8	93.850	-0.520	0.240	0.670
2020/01/31 03:26:38.9	93.870	-0.500	0.160	0.670
2020/01/31 03:26:39.0	93.880	-0.480	0.090	0.670
2020/01/31 03:26:39.1	93.900	-0.460	0.010	0.680
2020/01/31 03:26:39.2	93.910	-0.430	-0.070	0.690
2020/01/31 03:26:39.3	93.930	-0.400	-0.150	0.690
2020/01/31 03:26:39.4	93.940	-0.370	-0.220	0.700
2020/01/31 03:26:39.5	93.960	-0.340	-0.300	0.710
2020/01/31 03:26:39.6	93.980	-0.310	-0.370	0.720
2020/01/31 03:26:39.7	93.990	-0.280	-0.440	0.730
2020/01/31 03:26:39.8	94.010	-0.250	-0.510	0.740
2020/01/31 03:26:39.9	94.030	-0.210	-0.580	0.760
2020/01/31 03:26:40.0	94.050	-0.180	-0.640	0.770
2020/01/31 03:26:40.1	94.060	-0.140	-0.710	0.780
2020/01/31 03:26:40.2	94.080	-0.100	-0.770	0.800
2020/01/31 03:26:40.3	94.090	-0.070	-0.820	0.820
2020/01/31 03:26:40.4	94.110	-0.030	-0.880	0.840
2020/01/31 03:26:40.5	94.120	0.010	-0.930	0.860
2020/01/31 03:26:40.6	94.130	0.040	-0.980	0.880
2020/01/31 03:26:40.7	94.140	0.080	-1.020	0.910
2020/01/31 03:26:40.8	94.140	0.120	-1.060	0.940
2020/01/31 03:26:40.9	94.140	0.150	-1.090	0.970
2020/01/31 03:26:41.0	94.140	0.180	-1.110	1.010
2020/01/31 03:26:41.1	94.140	0.210	-1.140	1.040
2020/01/31 03:26:41.2	94.130	0.250	-1.150	1.080
2020/01/31 03:26:41.3	94.120	0.270	-1.160	1.120
2020/01/31 03:26:41.4	94.110	0.300	-1.160	1.160
2020/01/31 03:26:41.5	94.100	0.320	-1.150	1.190
2020/01/31 03:26:41.6	94.080	0.340	-1.130	1.230
2020/01/31 03:26:41.7	94.060	0.360	-1.110	1.260
2020/01/31 03:26:41.8	94.040	0.370	-1.080	1.290
2020/01/31 03:26:41.9	94.020	0.380	-1.040	1.310
2020/01/31 03:26:42.0	94.000	0.390	-0.990	1.340
2020/01/31 03:26:42.1	93.980	0.390	-0.930	1.360
2020/01/31 03:26:42.2	93.960	0.390	-0.870	1.370
2020/01/31 03:26:42.3	93.940	0.390	-0.800	1.390
2020/01/31 03:26:42.4	93.910	0.380	-0.730	1.390
2020/01/31 03:26:42.5	93.890	0.370	-0.650	1.400
2020/01/31 03:26:42.6	93.870	0.360	-0.570	1.400
2020/01/31 03:26:42.7	93.840	0.340	-0.480	1.400
2020/01/31 03:26:42.8	93.820	0.320	-0.400	1.390
2020/01/31 03:26:42.9	93.800	0.290	-0.310	1.380
2020/01/31 03:26:43.0	93.780	0.270	-0.220	1.370
2020/01/31 03:26:43.1	93.770	0.240	-0.120	1.350
2020/01/31 03:26:43.2	93.750	0.210	-0.030	1.330
2020/01/31 03:26:43.3	93.740	0.180	0.050	1.310
2020/01/31 03:26:43.4	93.730	0.140	0.140	1.290
2020/01/31 03:26:43.5	93.720	0.110	0.220	1.270
2020/01/31 03:26:43.6	93.710	0.070	0.290	1.250
2020/01/31 03:26:43.7	93.710	0.040	0.370	1.220
2020/01/31 03:26:43.8	93.710	0.010	0.430	1.200
2020/01/31 03:26:43.9	93.710	-0.030	0.490	1.170
2020/01/31 03:26:44.0	93.710	-0.060	0.540	1.140
2020/01/31 03:26:44.1	93.720	-0.090	0.580	1.110
2020/01/31 03:26:44.2	93.730	-0.120	0.620	1.080
2020/01/31 03:26:44.3	93.740	-0.150	0.650	1.040
2020/01/31 03:26:44.4	93.750	-0.170	0.670	1.000
2020/01/31 03:26:44.5	93.760	-0.190	0.680	0.970
2020/01/31 03:26:44.6	93.780	-0.210	0.680	0.930
2020/01/31 03:26:44.7	93.800	-0.230	0.680	0.880
2020/01/31 03:26:44.8	93.810	-0.240	0.660	0.840
2020/01/31 03:26:44.9	93.830	-0.250	0.640	0.800
2020/01/31 03:26:45.0	93.860	-0.260	0.610	0.750
2020/01/31 03:26:45.1	93.880	-0.270	0.570	0.700
2020/01/31 03:26:45.2	93.900	-0.270	0.520	0.650
2020/01/31 03:26:45.3	93.930	-0.270	0.470	0.600
2020/01/31 03:26:45.4	93.950	-0.270	0.420	0.560
2020/01/31 03:26:45.5	93.980	-0.260	0.360	0.520
2020/01/31 03:26:45.6	94.000	-0.260	0.290	0.470
2020/01/31 03:26:45.7	94.020	-0.250	0.220	0.440
2020/01/31 03:26:45.8	94.040	-0.240	0.160	0.400
2020/01/31 03:26:45.9	94.060	-0.230	0.080	0.370
2020/01/31 03:26:46.0	94.080	-0.220	0.010	0.350
2020/01/31 03:26:46.1	94.100	-0.210	-0.060	0.330
2020/01/31 03:26:46.2	94.110	-0.190	-0.130	0.310
2020/01/31 03:26:46.3	94.120	-0.180	-0.200	0.300
2020/01/31 03:26:46.4	94.130	-0.160	-0.270	0.300
2020/01/31 03:26:46.5	94.140	-0.150	-0.340	0.300
2020/01/31 03:26:46.6	94.140	-0.140	-0.400	0.310
2020/01/31 03:26:46.7	94.140	-0.120	-0.460	0.320
2020/01/31 03:26:46.8	94.140	-0.110	-0.510	0.330
2020/01/31 03:26:46.9	94.130	-0.090	-0.570	0.350
2020/01/31 03:26:47.0	94.130	-0.080	-0.610	0.380
2020/01/31 03:26:47.1	94.120	-0.070	-0.660	0.400
2020/01/31 03:26:47.2	94.110	-0.060	-0.690	0.420
2020/01/31 03:26:47.3	94.090	-0.050	-0.730	0.450
2020/01/31 03:26:47.4	94.080	-0.030	-0.750	0.480
2020/01/31 03:26:47.5	94.070	-0.020	-0.780	0.500
2020/01/31 03:26:47.6	94.050	-0.020	-0.790	0.530
2020/01/31 03:26:47.7	94.040	-0.010	-0.800	0.550
2020/01/31 03:26:47.8	94.030	0.000	-0.810	0.580
2020/01/31 03:26:47.9	94.020	0.010	-0.810	0.600
2020/01/31 03:26:48.0	94.010	0.010	-0.800	0.620
2020/01/31 03:26:48.1	94.010	0.020	-0.790	0.640
2020/01/31 03:26:48.2	94.000	0.030	-0.780	0.660
2020/01/31 03:26:48.3	94.000	0.030	-0.760	0.670
2020/01/31 03:26:48.4	93.990	0.040	-0.740	0.690
2020/01/31 03:26:48.5	93.990	0.040	-0.710	0.700
2020/01/31 03:26:48.6	94.000	0.040	-0.680	0.710
2020/01/31 03:26:48.7	94.000	0.050	-0.650	0.720
2020/01/31 03:26:48.8	94.010	0.050	-0.620	0.720
2020/01/31 03:26:48.9	94.020	0.060	-0.580	0.730
2020/01/31 03:26:49.0	94.040	0.060	-0.550	0.730
2020/01/31 03:26:49.1	94.060	0.070	-0.510	0.730
2020/01/31 03:26:49.2	94.070	0.080	-0.480	0.720
2020/01/31 03:26:49.3	94.090	0.080	-0.440	0.720
2020/01/31 03:26:49.4	94.120	0.090	-0.410	0.710
2020/01/31 03:26:49.5	94.140	0.100	-0.370	0.710
2020/01/31 03:26:49.6	94.170	0.100	-0.340	0.700
2020/01/31 03:26:49.7	94.200	0.110	-0.310	0.690
2020/01/31 03:26:49.8	94.230	0.120	-0.280	0.680
2020/01/31 03:26:49.9	94.250	0.130	-0.250	0.660
2020/01/31 03:26:50.0	94.280	0.140	-0.230	0.650
2020/01/31 03:26:50.1	94.310	0.150	-0.200	0.640
2020/01/31 03:26:50.2	94.350	0.160	-0.190	0.620
2020/01/31 03:26:50.3	94.370	0.170	-0.170	0.610
2020/01/31 03:26:50.4	94.400	0.180	-0.150	0.590
2020/01/31 03:26:50.5	94.420	0.190	-0.130	0.580
2020/01/31 03:26:50.6	94.440	0.190	-0.120	0.570
2020/01/31 03:26:50.7	94.460	0.200	-0.100	0.560
2020/01/31 03:26:50.8	94.480	0.210	-0.090	0.550
2020/01/31 03:26:50.9	94.500	0.210	-0.080	0.540
2020/01/31 03:26:51.0	94.520	0.220	-0.070	0.530
2020/01/31 03:26:51.1	94.540	0.220	-0.060	0.520
2020/01/31 03:26:51.2	94.550	0.230	-0.040	0.520
2020/01/31 03:26:51.3	94.560	0.230	-0.030	0.520
2020/01/31 03:26:51.4	94.560	0.230	-0.020	0.530
2020/01/31 03:26:51.5	94.570	0.230	-0.010	0.530
2020/01/31 03:26:51.6	94.570	0.230	0.000	0.540
2020/01/31 03:26:51.7	94.570	0.220	0.010	0.550
2020/01/31 03:26:51.8	94.560	0.220	0.030	0.570
2020/01/31 03:26:51.9	94.560	0.210	0.040	0.580
2020/01/31 03:26:52.0	94.550	0.210	0.050	0.600
2020/01/31 03:26:52.1	94.540	0.200	0.070	0.620
2020/01/31 03:26:52.2	94.520	0.190	0.080	0.640
2020/01/31 03:26:52.3	94.510	0.180	0.100	0.660
2020/01/31 03:26:52.4	94.500	0.170	0.110	0.680
2020/01/31 03:26:52.5	94.480	0.150	0.130	0.710
2020/01/31 03:26:52.6	94.470	0.140	0.140	0.730
2020/01/31 03:26:52.7	94.460	0.120	0.160	0.760
2020/01/31 03:26:52.8	94.440	0.110	0.170	0.780
2020/01/31 03:26:52.9	94.430	0.090	0.180	0.800
2020/01/31 03:26:53.0	94.410	0.080	0.180	0.820
2020/01/31 03:26:53.1	94.400	0.060	0.190	0.840
2020/01/31 03:26:53.2	94.380	0.040	0.190	0.860
2020/01/31 03:26:53.3	94.370	0.030	0.180	0.870
2020/01/31 03:26:53.4	94.360	0.010	0.170	0.890
2020/01/31 03:26:53.5	94.350	-0.000	0.160	0.900
2020/01/31 03:26:53.6	94.340	-0.010	0.140	0.910
2020/01/31 03:26:53.7	94.340	-0.030	0.110	0.910
2020/01/31 03:26:53.8	94.330	-0.040	0.090	0.910
2020/01/31 03:26:53.9	94.320	-0.050	0.050	0.910
2020/01/31 03:26:54.0	94.320	-0.050	0.010	0.910
2020/01/31 03:26:54.1	94.320	-0.060	-0.030	0.900
2020/01/31 03:26:54.2	94.310	-0.070	-0.070	0.900
2020/01/31 03:26:54.3	94.310	-0.070	-0.120	0.890
2020/01/31 03:26:54.4	94.300	-0.070	-0.170	0.880
2020/01/31 03:26:54.5	94.300	-0.070	-0.220	0.870
2020/01/31 03:26:54.6	94.290	-0.070	-0.270	0.860
2020/01/31 03:26:54.7	94.290	-0.070	-0.320	0.840
2020/01/31 03:26:54.8	94.290	-0.070	-0.370	0.830
2020/01/31 03:26:54.9	94.290	-0.070	-0.420	0.820
2020/01/31 03:26:55.0	94.290	-0.070	-0.470	0.810
2020/01/31 03:26:55.1	94.290	-0.070	-0.510	0.790
2020/01/31 03:26:55.2	94.290	-0.060	-0.550	0.780
2020/01/31 03:26:55.3	94.300	-0.060	-0.590	0.770
2020/01/31 03:26:55.4	94.300	-0.060	-0.620	0.760
2020/01/31 03:26:55.5	94.310	-0.050	-0.650	0.760
2020/01/31 03:26:55.6	94.320	-0.050	-0.670	0.750
2020/01/31 03:26:55.7	94.330	-0.040	-0.690	0.750
2020/01/31 03:26:55.8	94.350	-0.040	-0.710	0.740
2020/01/31 03:26:55.9	94.360	-0.030	-0.720	0.740
2020/01/31 03:26:56.0	94.380	-0.030	-0.730	0.740
2020/01/31 03:26:56.1	94.400	-0.020	-0.740	0.740
2020/01/31 03:26:56.2	94.420	-0.020	-0.740	0.740
2020/01/31 03:26:56.3	94.450	-0.010	-0.740	0.740
2020/01/31 03:26:56.4	94.470	-0.010	-0.730	0.740
2020/01/31 03:26:56.5	94.500	0.000	-0.730	0.750
2020/01/31 03:26:56.6	94.530	0.010	-0.720	0.750
2020/01/31 03:26:56.7	94.560	0.010	-0.710	0.750
2020/01/31 03:26:56.8	94.590	0.020	-0.690	0.760
2020/01/31 03:26:56.9	94.620	0.030	-0.680	0.760
2020/01/31 03:26:57.0	94.650	0.030	-0.660	0.770
2020/01/31 03:26:57.1	94.680	0.040	-0.640	0.770
2020/01/31 03:26:57.2	94.710	0.040	-0.620	0.780
2020/01/31 03:26:57.3	94.750	0.050	-0.600	0.780
2020/01/31 03:26:57.4	94.780	0.050	-0.580	0.790
2020/01/31 03:26:57.5	94.810	0.050	-0.560	0.800
2020/01/31 03:26:57.6	94.840	0.060	-0.530	0.800
2020/01/31 03:26:57.7	94.870	0.060	-0.510	0.810
2020/01/31 03:26:57.8	94.900	0.060	-0.480	0.820
2020/01/31 03:26:57.9	94.930	0.060	-0.460	0.830
2020/01/31 03:26:58.0	94.950	0.060	-0.430	0.840
2020/01/31 03:26:58.1	94.970	0.060	-0.400	0.850
2020/01/31 03:26:58.2	94.990	0.060	-0.370	0.860
2020/01/31 03:26:58.3	95.010	0.060	-0.350	0.870
2020/01/31 03:26:58.4	95.030	0.050	-0.320	0.890
2020/01/31 03:26:58.5	95.040	0.050	-0.280	0.900
2020/01/31 03:26:58.6	95.050	0.040	-0.250	0.920
2020/01/31 03:26:58.7	95.060	0.040	-0.220	0.940
2020/01/31 03:26:58.8	95.060	0.030	-0.190	0.950
2020/01/31 03:26:58.9	95.060	0.030	-0.150	0.970
2020/01/31 03:26:59.0	95.060	0.020	-0.120	0.990
2020/01/31 03:26:59.1	95.060	0.010	-0.080	1.010
2020/01/31 03:26:59.2	95.050	0.000	-0.050	1.030
2020/01/31 03:26:59.3	95.040	-0.010	-0.010	1.050
2020/01/31 03:26:59.4	95.030	-0.020	0.030	1.070
2020/01/31 03:26:59.5	95.010	-0.040	0.070	1.090
2020/01/31 03:26:59.6	95.000	-0.050	0.110	1.110
2020/01/31 03:26:59.7	94.980	-0.060	0.150	1.130
2020/01/31 03:26:59.8	94.960	-0.080	0.190	1.150
2020/01/31 03:26:59.9	94.940	-0.100	0.230	1.170
2020/01/31 03:27:00.0	94.920	-0.110	0.270	1.190
2020/01/31 03:27:00.1	94.890	-0.130	0.300	1.200
2020/01/31 03:27:00.2	94.860	-0.150	0.340	1.210
2020/01/31 03:27:00.3	94.840	-0.170	0.370	1.210
2020/01/31 03:27:00.4	94.810	-0.190	0.400	1.220
2020/01/31 03:27:00.5	94.790	-0.210	0.430	1.220
2020/01/31 03:27:00.6	94.770	-0.220	0.460	1.210
2020/01/31 03:27:00.7	94.740	-0.240	0.480	1.200
2020/01/31 03:27:00.8	94.720	-0.260	0.500	1.180
2020/01/31 03:27:00.9	94.710	-0.270	0.520	1.160
2020/01/31 03:27:01.0	94.690	-0.290	0.530	1.140
2020/01/31 03:27:01.1	94.670	-0.300	0.540	1.100
2020/01/31 03:27:01.2	94.660	-0.310	0.540	1.070
2020/01/31 03:27:01.3	94.650	-0.320	0.530	1.030
2020/01/31 03:27:01.4	94.640	-0.320	0.520	0.990
2020/01/31 03:27:01.5	94.640	-0.330	0.500	0.940
2020/01/31 03:27:01.6	94.640	-0.320	0.470	0.900
2020/01/31 03:27:01.7	94.640	-0.320	0.440	0.850
2020/01/31 03:27:01.8	94.640	-0.310	0.410	0.800
2020/01/31 03:27:01.9	94.650	-0.300	0.360	0.740
2020/01/31 03:27:02.0	94.660	-0.290	0.310	0.690
2020/01/31 03:27:02.1	94.660	-0.270	0.250	0.640
2020/01/31 03:27:02.2	94.670	-0.250	0.190	0.590
2020/01/31 03:27:02.3	94.680	-0.230	0.120	0.540
2020/01/31 03:27:02.4	94.690	-0.200	0.050	0.490
2020/01/31 03:27:02.5	94.710	-0.170	-0.020	0.440
2020/01/31 03:27:02.6	94.720	-0.130	-0.100	0.400
2020/01/31 03:27:02.7	94.730	-0.100	-0.190	0.360
2020/01/31 03:27:02.8	94.750	-0.060	-0.270	0.320
2020/01/31 03:27:02.9	94.760	-0.020	-0.360	0.280
2020/01/31 03:27:03.0	94.770	0.030	-0.450	0.250
2020/01/31 03:27:03.1	94.790	0.070	-0.540	0.220
2020/01/31 03:27:03.2	94.800	0.120	-0.620	0.190
2020/01/31 03:27:03.3	94.820	0.170	-0.710	0.160
2020/01/31 03:27:03.4	94.830	0.220	-0.790	0.140
2020/01/31 03:27:03.5	94.840	0.260	-0.870	0.120
2020/01/31 03:27:03.6	94.860	0.310	-0.950	0.100
2020/01/31 03:27:03.7	94.870	0.360	-1.010	0.080
2020/01/31 03:27:03.8	94.890	0.400	-1.080	0.070
2020/01/31 03:27:03.9	94.900	0.440	-1.130	0.070
2020/01/31 03:27:04.0	94.920	0.480	-1.180	0.060
2020/01/31 03:27:04.1	94.930	0.510	-1.220	0.060
2020/01/31 03:27:04.2	94.950	0.540	-1.250	0.070
2020/01/31 03:27:04.3	94.960	0.570	-1.280	0.080
2020/01/31 03:27:04.4	94.970	0.590	-1.290	0.090
2020/01/31 03:27:04.5	94.980	0.610	-1.290	0.110
2020/01/31 03:27:04.6	95.000	0.620	-1.280	0.130
2020/01/31 03:27:04.7	95.010	0.630	-1.260	0.150
2020/01/31 03:27:04.8	95.020	0.630	-1.240	0.180
2020/01/31 03:27:04.9	95.030	0.630	-1.200	0.210
2020/01/31 03:27:05.0	95.040	0.620	-1.160	0.250
2020/01/31 03:27:05.1	95.050	0.610	-1.110	0.290
2020/01/31 03:27:05.2	95.060	0.590	-1.050	0.330
2020/01/31 03:27:05.3	95.060	0.570	-0.980	0.370
2020/01/31 03:27:05.4	95.070	0.540	-0.910	0.420
2020/01/31 03:27:05.5	95.070	0.510	-0.830	0.460
2020/01/31 03:27:05.6	95.080	0.470	-0.740	0.510
2020/01/31 03:27:05.7	95.080	0.440	-0.660	0.560
2020/01/31 03:27:05.8	95.080	0.390	-0.570	0.610
2020/01/31 03:27:05.9	95.080	0.350	-0.470	0.660
2020/01/31 03:27:06.0	95.080	0.300	-0.380	0.710
2020/01/31 03:27:06.1	95.070	0.260	-0.290	0.760
2020/01/31 03:27:06.2	95.060	0.210	-0.190	0.800
2020/01/31 03:27:06.3	95.050	0.160	-0.100	0.850
2020/01/31 03:27:06.4	95.040	0.110	-0.010	0.890
2020/01/31 03:27:06.5	95.030	0.050	0.080	0.940
2020/01/31 03:27:06.6	95.010	0.000	0.160	0.980
2020/01/31 03:27:06.7	95.000	-0.050	0.250	1.020
2020/01/31 03:27:06.8	94.980	-0.090	0.320	1.060
2020/01/31 03:27:06.9	94.960	-0.140	0.390	1.100
2020/01/31 03:27:07.0	94.940	-0.190	0.460	1.140
2020/01/31 03:27:07.1	94.920	-0.230	0.520	1.170
2020/01/31 03:27:07.2	94.900	-0.270	0.580	1.200
2020/01/31 03:27:07.3	94.880	-0.310	0.630	1.230
2020/01/31 03:27:07.4	94.850	-0.350	0.670	1.260
2020/01/31 03:27:07.5	94.830	-0.390	0.710	1.290
2020/01/31 03:27:07.6	94.820	-0.420	0.740	1.310
2020/01/31 03:27:07.7	94.800	-0.450	0.760	1.330
2020/01/31 03:27:07.8	94.780	-0.480	0.770	1.350
2020/01/31 03:27:07.9	94.770	-0.500	0.780	1.370
2020/01/31 03:27:08.0	94.750	-0.520	0.780	1.380
2020/01/31 03:27:08.1	94.750	-0.540	0.770	1.390
2020/01/31 03:27:08.2	94.740	-0.560	0.750	1.400
2020/01/31 03:27:08.3	94.730	-0.570	0.720	1.400
2020/01/31 03:27:08.4	94.730	-0.580	0.690	1.400
2020/01/31 03:27:08.5	94.730	-0.590	0.650	1.400
2020/01/31 03:27:08.6	94.730	-0.590	0.600	1.390
2020/01/31 03:27:08.7	94.740	-0.590	0.550	1.380
2020/01/31 03:27:08.8	94.740	-0.590	0.490	1.360
2020/01/31 03:27:08.9	94.750	-0.580	0.420	1.340
2020/01/31 03:27:09.0	94.770	-0.570	0.350	1.320
2020/01/31 03:27:09.1	94.780	-0.560	0.270	1.290
2020/01/31 03:27:09.2	94.800	-0.540	0.190	1.260
2020/01/31 03:27:09.3	94.820	-0.520	0.110	1.230
2020/01/31 03:27:09.4	94.840	-0.500	0.020	1.200
2020/01/31 03:27:09.5	94.860	-0.480	-0.060	1.160
2020/01/31 03:27:09.6	94.880	-0.450	-0.150	1.120
2020/01/31 03:27:09.7	94.910	-0.420	-0.240	1.080
2020/01/31 03:27:09.8	94.930	-0.390	-0.320	1.040
2020/01/31 03:27:09.9	94.950	-0.360	-0.400	1.000
2020/01/31 03:27:10.0	94.970	-0.330	-0.480	0.960
2020/01/31 03:27:10.1	94.990	-0.300	-0.560	0.930
2020/01/31 03:27:10.2	95.010	-0.260	-0.630	0.890
2020/01/31 03:27:10.3	95.030	-0.230	-0.690	0.850
2020/01/31 03:27:10.4	95.050	-0.190	-0.750	0.820
2020/01/31 03:27:10.5	95.070	-0.160	-0.800	0.800
2020/01/31 03:27:10.6	95.080	-0.130	-0.850	0.770
2020/01/31 03:27:10.7	95.100	-0.090	-0.880	0.750
2020/01/31 03:27:10.8	95.110	-0.060	-0.910	0.740
2020/01/31 03:27:10.9	95.120	-0.030	-0.930	0.730
2020/01/31 03:27:11.0	95.130	-0.010	-0.940	0.720
2020/01/31 03:27:11.1	95.140	0.020	-0.940	0.710
2020/01/31 03:27:11.2	95.150	0.040	-0.940	0.710
2020/01/31 03:27:11.3	95.150	0.060	-0.920	0.720
2020/01/31 03:27:11.4	95.160	0.080	-0.900	0.720
2020/01/31 03:27:11.5	95.160	0.100	-0.870	0.730
2020/01/31 03:27:11.6	95.150	0.120	-0.840	0.740
2020/01/31 03:27:11.7	95.150	0.130	-0.800	0.750
2020/01/31 03:27:11.8	95.150	0.140	-0.760	0.760
2020/01/31 03:27:11.9	95.140	0.150	-0.710	0.780
2020/01/31 03:27:12.0	95.140	0.150	-0.660	0.790
2020/01/31 03:27:12.1	95.130	0.160	-0.610	0.800
2020/01/31 03:27:12.2	95.120	0.160	-0.550	0.820
2020/01/31 03:27:12.3	95.110	0.160	-0.500	0.830
2020/01/31 03:27:12.4	95.100	0.160	-0.440	0.840
2020/01/31 03:27:12.5	95.090	0.160	-0.390	0.850
2020/01/31 03:27:12.6	95.080	0.150	-0.330	0.850
2020/01/31 03:27:12.7	95.080	0.150	-0.280	0.860
2020/01/31 03:27:12.8	95.070	0.140	-0.230	0.870
2020/01/31 03:27:12.9	95.060	0.140	-0.180	0.870
2020/01/31 03:27:13.0	95.050	0.130	-0.140	0.870
2020/01/31 03:27:13.1	95.050	0.130	-0.090	0.870
2020/01/31 03:27:13.2	95.040	0.120	-0.050	0.870
2020/01/31 03:27:13.3	95.040	0.120	-0.010	0.880
2020/01/31 03:27:13.4	95.030	0.110	0.020	0.880
2020/01/31 03:27:13.5	95.030	0.110	0.050	0.880
2020/01/31 03:27:13.6	95.030	0.110	0.080	0.880
2020/01/31 03:27:13.7	95.030	0.100	0.100	0.870
2020/01/31 03:27:13.8	95.030	0.100	0.120	0.870
2020/01/31 03:27:13.9	95.030	0.100	0.130	0.870
2020/01/31 03:27:14.0	95.040	0.110	0.140	0.860
2020/01/31 03:27:14.1	95.050	0.110	0.140	0.850
2020/01/31 03:27:14.2	95.050	0.110	0.140	0.840
2020/01/31 03:27:14.3	95.060	0.120	0.140	0.830
2020/01/31 03:27:14.4	95.070	0.120	0.130	0.810
2020/01/31 03:27:14.5	95.080	0.130	0.120	0.790
2020/01/31 03:27:14.6	95.080	0.140	0.110	0.770
2020/01/31 03:27:14.7	95.100	0.150	0.090	0.740
2020/01/31 03:27:14.8	95.110	0.160	0.060	0.710
2020/01/31 03:27:14.9	95.120	0.170	0.040	0.680
2020/01/31 03:27:15.0	95.130	0.180	0.010	0.640
2020/01/31 03:27:15.1	95.140	0.200	-0.030	0.600
2020/01/31 03:27:15.2	95.150	0.210	-0.060	0.560
2020/01/31 03:27:15.3	95.160	0.230	-0.100	0.520
2020/01/31 03:27:15.4	95.170	0.240	-0.140	0.480
2020/01/31 03:27:15.5	95.180	0.260	-0.190	0.430
2020/01/31 03:27:15.6	95.190	0.280	-0.230	0.390
2020/01/31 03:27:15.7	95.200	0.290	-0.280	0.360
2020/01/31 03:27:15.8	95.210	0.310	-0.320	0.320
2020/01/31 03:27:15.9	95.210	0.330	-0.370	0.290
2020/01/31 03:27:16.0	95.210	0.350	-0.420	0.260
2020/01/31 03:27:16.1	95.220	0.360	-0.460	0.240
2020/01/31 03:27:16.2	95.220	0.380	-0.510	0.220
2020/01/31 03:27:16.3	95.210	0.400	-0.550	0.200
2020/01/31 03:27:16.4	95.210	0.410	-0.590	0.190
2020/01/31 03:27:16.5	95.210	0.430	-0.620	0.190
2020/01/31 03:27:16.6	95.200	0.440	-0.650	0.190
2020/01/31 03:27:16.7	95.190	0.460	-0.680	0.200
2020/01/31 03:27:16.8	95.180	0.470	-0.690	0.220
2020/01/31 03:27:16.9	95.170	0.470	-0.710	0.240
2020/01/31 03:27:17.0	95.160	0.480	-0.720	0.260
2020/01/31 03:27:17.1	95.150	0.480	-0.720	0.290
2020/01/31 03:27:17.2	95.140	0.480	-0.720	0.320
2020/01/31 03:27:17.3	95.130	0.480	-0.700	0.360
2020/01/31 03:27:17.4	95.110	0.480	-0.690	0.400
2020/01/31 03:27:17.5	95.100	0.470	-0.670	0.450
2020/01/31 03:27:17.6	95.090	0.460	-0.640	0.490
2020/01/31 03:27:17.7	95.070	0.440	-0.610	0.540
2020/01/31 03:27:17.8	95.060	0.430	-0.570	0.590
2020/01/31 03:27:17.9	95.050	0.400	-0.530	0.640
2020/01/31 03:27:18.0	95.040	0.380	-0.490	0.690
2020/01/31 03:27:18.1	95.020	0.350	-0.440	0.740
2020/01/31 03:27:18.2	95.020	0.320	-0.390	0.780
2020/01/31 03:27:18.3	95.010	0.290	-0.340	0.820
2020/01/31 03:27:18.4	95.000	0.250	-0.290	0.860
2020/01/31 03:27:18.5	94.990	0.220	-0.240	0.900
2020/01/31 03:27:18.6	94.990	0.180	-0.190	0.930
2020/01/31 03:27:18.7	94.990	0.140	-0.140	0.960
2020/01/31 03:27:18.8	94.990	0.100	-0.090	0.990
2020/01/31 03:27:18.9	94.990	0.050	-0.040	1.000
2020/01/31 03:27:19.0	94.990	0.010	-0.000	1.020
2020/01/31 03:27:19.1	94.990	-0.030	0.040	1.030
2020/01/31 03:27:19.2	94.990	-0.080	0.070	1.030
2020/01/31 03:27:19.3	95.000	-0.120	0.110	1.040
2020/01/31 03:27:19.4	95.010	-0.160	0.130	1.040
2020/01/31 03:27:19.5	95.020	-0.200	0.160	1.040
2020/01/31 03:27:19.6	95.030	-0.240	0.180	1.030
2020/01/31 03:27:19.7	95.040	-0.270	0.190	1.030
2020/01/31 03:27:19.8	95.050	-0.310	0.200	1.020
2020/01/31 03:27:19.9	95.060	-0.340	0.210	1.020
2020/01/31 03:27:20.0	95.070	-0.370	0.220	1.020
2020/01/31 03:27:20.1	95.080	-0.390	0.220	1.020
2020/01/31 03:27:20.2	95.100	-0.420	0.220	1.020
2020/01/31 03:27:20.3	95.110	-0.440	0.210	1.020
2020/01/31 03:27:20.4	95.120	-0.450	0.210	1.030
2020/01/31 03:27:20.5	95.130	-0.470	0.200	1.030
2020/01/31 03:27:20.6	95.140	-0.480	0.190	1.040
2020/01/31 03:27:20.7	95.160	-0.500	0.180	1.050
2020/01/31 03:27:20.8	95.170	-0.500	0.180	1.060
2020/01/31 03:27:20.9	95.180	-0.510	0.170	1.070
2020/01/31 03:27:21.0	95.190	-0.520	0.160	1.080
2020/01/31 03:27:21.1	95.200	-0.520	0.140	1.090
2020/01/31 03:27:21.2	95.210	-0.530	0.130	1.110
2020/01/31 03:27:21.3	95.220	-0.530	0.120	1.120
2020/01/31 03:27:21.4	95.230	-0.530	0.120	1.130
2020/01/31 03:27:21.5	95.240	-0.530	0.110	1.150
2020/01/31 03:27:21.6	95.250	-0.530	0.100	1.160
2020/01/31 03:27:21.7	95.260	-0.520	0.090	1.170
2020/01/31 03:27:21.8	95.260	-0.520	0.080	1.190
2020/01/31 03:27:21.9	95.270	-0.520	0.070	1.200
2020/01/31 03:27:22.0	95.280	-0.510	0.060	1.210
2020/01/31 03:27:22.1	95.280	-0.500	0.040	1.210
2020/01/31 03:27:22.2	95.290	-0.490	0.030	1.220
2020/01/31 03:27:22.3	95.300	-0.490	0.010	1.220
2020/01/31 03:27:22.4	95.300	-0.480	-0.000	1.220
2020/01/31 03:27:22.5	95.310	-0.460	-0.020	1.220
2020/01/31 03:27:22.6	95.310	-0.450	-0.040	1.210
2020/01/31 03:27:22.7	95.320	-0.440	-0.060	1.210
2020/01/31 03:27:22.8	95.320	-0.420	-0.090	1.200
2020/01/31 03:27:22.9	95.330	-0.400	-0.120	1.190
2020/01/31 03:27:23.0	95.330	-0.380	-0.150	1.170
2020/01/31 03:27:23.1	95.330	-0.360	-0.180	1.160
2020/01/31 03:27:23.2	95.340	-0.340	-0.210	1.140
2020/01/31 03:27:23.3	95.350	-0.320	-0.240	1.120
2020/01/31 03:27:23.4	95.350	-0.290	-0.280	1.100
2020/01/31 03:27:23.5	95.360	-0.270	-0.310	1.080
2020/01/31 03:27:23.6	95.360	-0.240	-0.350	1.060
2020/01/31 03:27:23.7	95.360	-0.210	-0.390	1.040
2020/01/31 03:27:23.8	95.370	-0.180	-0.430	1.030
2020/01/31 03:27:23.9	95.370	-0.150	-0.470	1.010
2020/01/31 03:27:24.0	95.370	-0.120	-0.510	0.990
2020/01/31 03:27:24.1	95.370	-0.090	-0.550	0.970
2020/01/31 03:27:24.2	95.370	-0.050	-0.580	0.960
2020/01/31 03:27:24.3	95.360	-0.020	-0.620	0.950
2020/01/31 03:27:24.4	95.360	0.010	-0.660	0.940
2020/01/31 03:27:24.5	95.350	0.050	-0.690	0.930
2020/01/31 03:27:24.6	95.350	0.080	-0.720	0.920
2020/01/31 03:27:24.7	95.340	0.110	-0.740	0.920
2020/01/31 03:27:24.8	95.330	0.150	-0.770	0.910
2020/01/31 03:27:24.9	95.320	0.180	-0.780	0.900
2020/01/31 03:27:25.0	95.310	0.210	-0.800	0.900
2020/01/31 03:27:25.1	95.290	0.230	-0.810	0.890
2020/01/31 03:27:25.2	95.280	0.260	-0.810	0.880
2020/01/31 03:27:25.3	95.270	0.280	-0.810	0.870
2020/01/31 03:27:25.4	95.260	0.300	-0.800	0.860
2020/01/31 03:27:25.5	95.250	0.320	-0.790	0.840
2020/01/31 03:27:25.6	95.240	0.340	-0.770	0.820
2020/01/31 03:27:25.7	95.230	0.350	-0.750	0.810
2020/01/31 03:27:25.8	95.220	0.360	-0.720	0.780
2020/01/31 03:27:25.9	95.210	0.370	-0.690	0.760
2020/01/31 03:27:26.0	95.200	0.370	-0.650	0.740
2020/01/31 03:27:26.1	95.190	0.370	-0.610	0.710
2020/01/31 03:27:26.2	95.190	0.370	-0.560	0.680
2020/01/31 03:27:26.3	95.180	0.370	-0.510	0.650
2020/01/31 03:27:26.4	95.180	0.370	-0.460	0.620
2020/01/31 03:27:26.5	95.180	0.360	-0.410	0.600
2020/01/31 03:27:26.6	95.170	0.350	-0.360	0.570
2020/01/31 03:27:26.7	95.170	0.340	-0.310	0.540
2020/01/31 03:27:26.8	95.170	0.330	-0.260	0.520
2020/01/31 03:27:26.9	95.160	0.320	-0.210	0.500
2020/01/31 03:27:27.0	95.160	0.300	-0.160	0.480
2020/01/31 03:27:27.1	95.150	0.290	-0.120	0.470
2020/01/31 03:27:27.2	95.150	0.280	-0.080	0.450
2020/01/31 03:27:27.3	95.150	0.260	-0.040	0.450
2020/01/31 03:27:27.4	95.140	0.250	-0.010	0.440
2020/01/31 03:27:27.5	95.130	0.240	0.020	0.450
2020/01/31 03:27:27.6	95.110	0.230	0.040	0.450
2020/01/31 03:27:27.7	95.100	0.220	0.050	0.460
2020/01/31 03:27:27.8	95.090	0.210	0.060	0.480
2020/01/31 03:27:27.9	95.070	0.210	0.070	0.490
2020/01/31 03:27:28.0	95.060	0.200	0.070	0.510
2020/01/31 03:27:28.1	95.050	0.200	0.060	0.530
2020/01/31 03:27:28.2	95.040	0.200	0.050	0.550
2020/01/31 03:27:28.3	95.020	0.200	0.030	0.570
2020/01/31 03:27:28.4	95.010	0.200	0.010	0.600
2020/01/31 03:27:28.5	95.000	0.200	-0.010	0.620
2020/01/31 03:27:28.6	95.000	0.200	-0.030	0.640
2020/01/31 03:27:28.7	94.990	0.200	-0.060	0.670
2020/01/31 03:27:28.8	94.980	0.200	-0.090	0.690
2020/01/31 03:27:28.9	94.970	0.210	-0.120	0.710
2020/01/31 03:27:29.0	94.970	0.210	-0.150	0.730
2020/01/31 03:27:29.1	94.960	0.210	-0.180	0.740
2020/01/31 03:27:29.2	94.950	0.210	-0.220	0.760
2020/01/31 03:27:29.3	94.950	0.210	-0.240	0.770
2020/01/31 03:27:29.4	94.940	0.210	-0.270	0.780
2020/01/31 03:27:29.5	94.940	0.210	-0.290	0.800
2020/01/31 03:27:29.6	94.930	0.210	-0.310	0.810
2020/01/31 03:27:29.7	94.930	0.200	-0.330	0.810
2020/01/31 03:27:29.8	94.930	0.190	-0.340	0.820
2020/01/31 03:27:29.9	94.920	0.190	-0.350	0.820
2020/01/31 03:27:30.0	94.920	0.170	-0.360	0.830
2020/01/31 03:27:30.1	94.920	0.160	-0.360	0.830
2020/01/31 03:27:30.2	94.910	0.150	-0.360	0.830
2020/01/31 03:27:30.3	94.910	0.130	-0.350	0.830
2020/01/31 03:27:30.4	94.900	0.110	-0.340	0.830
2020/01/31 03:27:30.5	94.900	0.090	-0.320	0.830
2020/01/31 03:27:30.6	94.900	0.070	-0.300	0.830
2020/01/31 03:27:30.7	94.900	0.050	-0.280	0.830
2020/01/31 03:27:30.8	94.900	0.030	-0.250	0.840
2020/01/31 03:27:30.9	94.900	0.000	-0.220	0.840
2020/01/31 03:27:31.0	94.900	-0.020	-0.180	0.850
2020/01/31 03:27:31.1	94.900	-0.050	-0.140	0.850
2020/01/31 03:27:31.2	94.900	-0.080	-0.100	0.860
2020/01/31 03:27:31.3	94.900	-0.100	-0.050	0.870
2020/01/31 03:27:31.4	94.900	-0.130	0.000	0.880
2020/01/31 03:27:31.5	94.910	-0.160	0.050	0.890
2020/01/31 03:27:31.6	94.910	-0.180	0.100	0.910
2020/01/31 03:27:31.7	94.910	-0.210	0.150	0.920
2020/01/31 03:27:31.8	94.920	-0.230	0.200	0.940
2020/01/31 03:27:31.9	94.920	-0.260	0.250	0.960
2020/01/31 03:27:32.0	94.930	-0.280	0.300	0.970
2020/01/31 03:27:32.1	94.940	-0.300	0.350	0.990
2020/01/31 03:27:32.2	94.950	-0.320	0.390	1.000
2020/01/31 03:27:32.3	94.960	-0.340	0.430	1.010
2020/01/31 03:27:32.4	94.970	-0.350	0.460	1.030
2020/01/31 03:27:32.5	94.980	-0.360	0.490	1.040
2020/01/31 03:27:32.6	95.000	-0.370	0.510	1.040
2020/01/31 03:27:32.7	95.010	-0.380	0.520	1.050
2020/01/31 03:27:32.8	95.020	-0.380	0.520	1.050
2020/01/31 03:27:32.9	95.030	-0.380	0.520	1.050
2020/01/31 03:27:33.0	95.050	-0.380	0.510	1.050
2020/01/31 03:27:33.1	95.060	-0.370	0.480	1.050
2020/01/31 03:27:33.2	95.070	-0.360	0.450	1.040
2020/01/31 03:27:33.3	95.080	-0.350	0.410	1.030
2020/01/31 03:27:33.4	95.090	-0.330	0.360	1.020
2020/01/31 03:27:33.5	95.100	-0.310	0.300	1.010
2020/01/31 03:27:33.6	95.110	-0.280	0.240	0.990
2020/01/31 03:27:33.7	95.120	-0.250	0.160	0.980
2020/01/31 03:27:33.8	95.130	-0.220	0.080	0.960
2020/01/31 03:27:33.9	95.140	-0.190	-0.010	0.940
2020/01/31 03:27:34.0	95.140	-0.150	-0.100	0.920
2020/01/31 03:27:34.1	95.150	-0.110	-0.210	0.900
2020/01/31 03:27:34.2	95.160	-0.060	-0.310	0.890
2020/01/31 03:27:34.3	95.160	-0.020	-0.410	0.870
2020/01/31 03:27:34.4	95.160	0.030	-0.520	0.860
2020/01/31 03:27:34.5	95.170	0.080	-0.620	0.850
2020/01/31 03:27:34.6	95.160	0.130	-0.720	0.840
2020/01/31 03:27:34.7	95.160	0.180	-0.820	0.830
2020/01/31 03:27:34.8	95.160	0.220	-0.920	0.830
2020/01/31 03:27:34.9	95.150	0.270	-1.000	0.830
2020/01/31 03:27:35.0	95.150	0.310	-1.080	0.830
2020/01/31 03:27:35.1	95.140	0.360	-1.160	0.840
2020/01/31 03:27:35.2	95.130	0.390	-1.220	0.840
2020/01/31 03:27:35.3	95.120	0.430	-1.270	0.850
2020/01/31 03:27:35.4	95.100	0.460	-1.310	0.860
2020/01/31 03:27:35.5	95.090	0.490	-1.340	0.870
2020/01/31 03:27:35.6	95.070	0.510	-1.350	0.880
2020/01/31 03:27:35.7	95.050	0.530	-1.350	0.890
2020/01/31 03:27:35.8	95.040	0.540	-1.340	0.900
2020/01/31 03:27:35.9	95.020	0.540	-1.310	0.900
2020/01/31 03:27:36.0	95.000	0.540	-1.270	0.910
2020/01/31 03:27:36.1	94.970	0.540	-1.220	0.910
2020/01/31 03:27:36.2	94.950	0.520	-1.160	0.920
2020/01/31 03:27:36.3	94.940	0.510	-1.080	0.920
2020/01/31 03:27:36.4	94.920	0.480	-1.000	0.920
2020/01/31 03:27:36.5	94.900	0.450	-0.910	0.920
2020/01/31 03:27:36.6	94.890	0.420	-0.800	0.920
2020/01/31 03:27:36.7	94.870	0.380	-0.700	0.920
2020/01/31 03:27:36.8	94.860	0.340	-0.590	0.910
2020/01/31 03:27:36.9	94.850	0.300	-0.470	0.900
2020/01/31 03:27:37.0	94.840	0.250	-0.360	0.900
2020/01/31 03:27:37.1	94.830	0.200	-0.230	0.880
2020/01/31 03:27:37.2	94.830	0.140	-0.120	0.870
2020/01/31 03:27:37.3	94.820	0.090	-0.000	0.860
2020/01/31 03:27:37.4	94.810	0.030	0.100	0.850
2020/01/31 03:27:37.5	94.810	-0.020	0.210	0.830
2020/01/31 03:27:37.6	94.810	-0.080	0.300	0.820
2020/01/31 03:27:37.7	94.810	-0.130	0.390	0.810
2020/01/31 03:27:37.8	94.800	-0.180	0.470	0.790
2020/01/31 03:27:37.9	94.800	-0.230	0.530	0.780
2020/01/31 03:27:38.0	94.800	-0.270	0.590	0.770
2020/01/31 03:27:38.1	94.800	-0.310	0.630	0.750
2020/01/31 03:27:38.2	94.800	-0.350	0.660	0.740
2020/01/31 03:27:38.3	94.800	-0.390	0.680	0.730
2020/01/31 03:27:38.4	94.810	-0.410	0.690	0.720
2020/01/31 03:27:38.5	94.810	-0.440	0.680	0.710
2020/01/31 03:27:38.6	94.810	-0.460	0.670	0.710
2020/01/31 03:27:38.7	94.820	-0.470	0.640	0.700
2020/01/31 03:27:38.8	94.820	-0.480	0.610	0.700
2020/01/31 03:27:38.9	94.820	-0.490	0.570	0.690
2020/01/31 03:27:39.0	94.830	-0.500	0.510	0.690
2020/01/31 03:27:39.1	94.840	-0.500	0.460	0.690
2020/01/31 03:27:39.2	94.840	-0.490	0.400	0.690
2020/01/31 03:27:39.3	94.840	-0.490	0.330	0.690
2020/01/31 03:27:39.4	94.840	-0.480	0.260	0.690
2020/01/31 03:27:39.5	94.840	-0.470	0.190	0.690
2020/01/31 03:27:39.6	94.840	-0.450	0.120	0.690
2020/01/31 03:27:39.7	94.840	-0.440	0.050	0.700
2020/01/31 03:27:39.8	94.840	-0.430	-0.020	0.700
2020/01/31 03:27:39.9	94.840	-0.410	-0.080	0.710
2020/01/31 03:27:40.0	94.830	-0.390	-0.150	0.710
2020/01/31 03:27:40.1	94.830	-0.380	-0.210	0.720
2020/01/31 03:27:40.2	94.820	-0.360	-0.270	0.730
2020/01/31 03:27:40.3	94.810	-0.340	-0.320	0.740
2020/01/31 03:27:40.4	94.800	-0.330	-0.370	0.750
2020/01/31 03:27:40.5	94.780	-0.310	-0.410	0.760
2020/01/31 03:27:40.6	94.770	-0.300	-0.450	0.780
2020/01/31 03:27:40.7	94.750	-0.280	-0.490	0.790
2020/01/31 03:27:40.8	94.740	-0.270	-0.520	0.810
2020/01/31 03:27:40.9	94.720	-0.250	-0.540	0.830
2020/01/31 03:27:41.0	94.700	-0.240	-0.560	0.850
2020/01/31 03:27:41.1	94.670	-0.220	-0.580	0.860
2020/01/31 03:27:41.2	94.650	-0.210	-0.590	0.880
2020/01/31 03:27:41.3	94.630	-0.200	-0.600	0.900
2020/01/31 03:27:41.4	94.610	-0.180	-0.600	0.920
2020/01/31 03:27:41.5	94.590	-0.170	-0.600	0.930
2020/01/31 03:27:41.6	94.570	-0.150	-0.600	0.950
2020/01/31 03:27:41.7	94.550	-0.140	-0.590	0.960
2020/01/31 03:27:41.8	94.540	-0.130	-0.580	0.970
2020/01/31 03:27:41.9	94.520	-0.110	-0.570	0.980
2020/01/31 03:27:42.0	94.510	-0.090	-0.560	0.990
2020/01/31 03:27:42.1	94.490	-0.080	-0.540	0.990
2020/01/31 03:27:42.2	94.480	-0.060	-0.530	0.990
2020/01/31 03:27:42.3	94.480	-0.040	-0.510	0.990
2020/01/31 03:27:42.4	94.480	-0.020	-0.500	0.990
2020/01/31 03:27:42.5	94.480	0.000	-0.480	0.990
2020/01/31 03:27:42.6	94.480	0.030	-0.460	0.980
2020/01/31 03:27:42.7	94.490	0.050	-0.450	0.980
2020/01/31 03:27:42.8	94.500	0.070	-0.430	0.970
2020/01/31 03:27:42.9	94.510	0.100	-0.410	0.960
2020/01/31 03:27:43.0	94.520	0.130	-0.400	0.960
2020/01/31 03:27:43.1	94.530	0.160	-0.390	0.950
2020/01/31 03:27:43.2	94.540	0.180	-0.370	0.940
2020/01/31 03:27:43.3	94.550	0.210	-0.360	0.930
2020/01/31 03:27:43.4	94.570	0.240	-0.350	0.920
2020/01/31 03:27:43.5	94.580	0.270	-0.340	0.910
2020/01/31 03:27:43.6	94.600	0.300	-0.330	0.900
2020/01/31 03:27:43.7	94.610	0.330	-0.320	0.890
2020/01/31 03:27:43.8	94.630	0.360	-0.310	0.890
2020/01/31 03:27:43.9	94.640	0.380	-0.310	0.880
2020/01/31 03:27:44.0	94.650	0.410	-0.300	0.870
2020/01/31 03:27:44.1	94.660	0.430	-0.290	0.860
2020/01/31 03:27:44.2	94.670	0.460	-0.280	0.860
2020/01/31 03:27:44.3	94.680	0.480	-0.270	0.850
2020/01/31 03:27:44.4	94.690	0.500	-0.270	0.840
2020/01/31 03:27:44.5	94.700	0.510	-0.260	0.830
2020/01/31 03:27:44.6	94.720	0.530	-0.250	0.820
2020/01/31 03:27:44.7	94.730	0.540	-0.240	0.810
2020/01/31 03:27:44.8	94.740	0.540	-0.230	0.810
2020/01/31 03:27:44.9	94.750	0.550	-0.210	0.800
2020/01/31 03:27:45.0	94.750	0.550	-0.200	0.790
2020/01/31 03:27:45.1	94.770	0.550	-0.180	0.780
2020/01/31 03:27:45.2	94.780	0.540	-0.160	0.770
2020/01/31 03:27:45.3	94.780	0.530	-0.140	0.760
2020/01/31 03:27:45.4	94.790	0.520	-0.110	0.750
2020/01/31 03:27:45.5	94.790	0.510	-0.080	0.750
2020/01/31 03:27:45.6	94.790	0.490	-0.050	0.740
2020/01/31 03:27:45.7	94.790	0.470	-0.020	0.740
2020/01/31 03:27:45.8	94.780	0.440	0.010	0.740
2020/01/31 03:27:45.9	94.780	0.410	0.050	0.750
2020/01/31 03:27:46.0	94.770	0.380	0.080	0.750
2020/01/31 03:27:46.1	94.750	0.350	0.120	0.750
2020/01/31 03:27:46.2	94.740	0.320	0.150	0.760
2020/01/31 03:27:46.3	94.730	0.280	0.190	0.770
2020/01/31 03:27:46.4	94.710	0.240	0.220	0.790
2020/01/31 03:27:46.5	94.690	0.200	0.260	0.810
2020/01/31 03:27:46.6	94.670	0.160	0.290	0.830
2020/01/31 03:27:46.7	94.650	0.120	0.310	0.850
2020/01/31 03:27:46.8	94.620	0.080	0.340	0.880
2020/01/31 03:27:46.9	94.600	0.040	0.360	0.900
2020/01/31 03:27:47.0	94.570	0.000	0.370	0.930
2020/01/31 03:27:47.1	94.540	-0.040	0.380	0.960
2020/01/31 03:27:47.2	94.510	-0.080	0.390	0.990
2020/01/31 03:27:47.3	94.480	-0.110	0.380	1.020
2020/01/31 03:27:47.4	94.460	-0.150	0.370	1.050
2020/01/31 03:27:47.5	94.430	-0.180	0.360	1.070
2020/01/31 03:27:47.6	94.410	-0.220	0.330	1.100
2020/01/31 03:27:47.7	94.380	-0.240	0.300	1.120
2020/01/31 03:27:47.8	94.360	-0.270	0.270	1.150
2020/01/31 03:27:47.9	94.340	-0.290	0.220	1.170
2020/01/31 03:27:48.0	94.320	-0.310	0.170	1.180
2020/01/31 03:27:48.1	94.310	-0.330	0.110	1.200
2020/01/31 03:27:48.2	94.300	-0.340	0.040	1.210
2020/01/31 03:27:48.3	94.290	-0.350	-0.020	1.220
2020/01/31 03:27:48.4	94.280	-0.360	-0.100	1.220
2020/01/31 03:27:48.5	94.280	-0.360	-0.180	1.230
2020/01/31 03:27:48.6	94.280	-0.350	-0.260	1.230
2020/01/31 03:27:48.7	94.280	-0.350	-0.340	1.230
2020/01/31 03:27:48.8	94.280	-0.340	-0.430	1.220
2020/01/31 03:27:48.9	94.290	-0.330	-0.520	1.220
2020/01/31 03:27:49.0	94.300	-0.310	-0.600	1.210
2020/01/31 03:27:49.1	94.310	-0.290	-0.690	1.200
2020/01/31 03:27:49.2	94.330	-0.270	-0.780	1.190
2020/01/31 03:27:49.3	94.350	-0.250	-0.860	1.190
2020/01/31 03:27:49.4	94.360	-0.220	-0.930	1.180
2020/01/31 03:27:49.5	94.380	-0.200	-1.000	1.180
2020/01/31 03:27:49.6	94.400	-0.170	-1.070	1.170
2020/01/31 03:27:49.7	94.420	-0.140	-1.120	1.170
2020/01/31 03:27:49.8	94.440	-0.110	-1.170	1.160
2020/01/31 03:27:49.9	94.460	-0.080	-1.210	1.160
2020/01/31 03:27:50.0	94.480	-0.050	-1.240	1.160
2020/01/31 03:27:50.1	94.500	-0.020	-1.260	1.160
2020/01/31 03:27:50.2	94.510	0.000	-1.270	1.160
2020/01/31 03:27:50.3	94.530	0.030	-1.260	1.160
2020/01/31 03:27:50.4	94.540	0.050	-1.250	1.160
2020/01/31 03:27:50.5	94.560	0.070	-1.220	1.160
2020/01/31 03:27:50.6	94.570	0.090	-1.180	1.170
2020/01/31 03:27:50.7	94.570	0.110	-1.130	1.170
2020/01/31 03:27:50.8	94.580	0.120	-1.060	1.180
2020/01/31 03:27:50.9	94.580	0.130	-0.990	1.190
2020/01/31 03:27:51.0	94.580	0.130	-0.910	1.200
2020/01/31 03:27:51.1	94.570	0.140	-0.810	1.210
2020/01/31 03:27:51.2	94.560	0.130	-0.710	1.220
2020/01/31 03:27:51.3	94.560	0.130	-0.610	1.230
2020/01/31 03:27:51.4	94.550	0.120	-0.500	1.250
2020/01/31 03:27:51.5	94.530	0.100	-0.380	1.260
2020/01/31 03:27:51.6	94.520	0.090	-0.270	1.280
2020/01/31 03:27:51.7	94.500	0.070	-0.150	1.300
2020/01/31 03:27:51.8	94.480	0.040	-0.030	1.320
2020/01/31 03:27:51.9	94.450	0.020	0.090	1.340
2020/01/31 03:27:52.0	94.430	-0.010	0.200	1.360
2020/01/31 03:27:52.1	94.410	-0.040	0.300	1.390
2020/01/31 03:27:52.2	94.380	-0.070	0.410	1.410
2020/01/31 03:27:52.3	94.350	-0.110	0.500	1.430
2020/01/31 03:27:52.4	94.320	-0.140	0.590	1.450
2020/01/31 03:27:52.5	94.290	-0.170	0.660	1.470
2020/01/31 03:27:52.6	94.260	-0.210	0.730	1.480
2020/01/31 03:27:52.7	94.230	-0.240	0.780	1.490
2020/01/31 03:27:52.8	94.210	-0.270	0.830	1.500
2020/01/31 03:27:52.9	94.180	-0.290	0.860	1.500
2020/01/31 03:27:53.0	94.160	-0.320	0.880	1.500
2020/01/31 03:27:53.1	94.130	-0.340	0.880	1.490
2020/01/31 03:27:53.2	94.110	-0.360	0.880	1.480
2020/01/31 03:27:53.3	94.090	-0.370	0.860	1.460
2020/01/31 03:27:53.4	94.080	-0.380	0.820	1.430
2020/01/31 03:27:53.5	94.070	-0.390	0.780	1.400
2020/01/31 03:27:53.6	94.060	-0.390	0.730	1.360
2020/01/31 03:27:53.7	94.060	-0.380	0.660	1.310
2020/01/31 03:27:53.8	94.050	-0.370	0.590	1.260
2020/01/31 03:27:53.9	94.060	-0.360	0.510	1.200
2020/01/31 03:27:54.0	94.060	-0.340	0.410	1.130
2020/01/31 03:27:54.1	94.080	-0.310	0.320	1.060
2020/01/31 03:27:54.2	94.090	-0.280	0.210	0.980
2020/01/31 03:27:54.3	94.110	-0.250	0.110	0.900
2020/01/31 03:27:54.4	94.130	-0.210	0.000	0.820
2020/01/31 03:27:54.5	94.160	-0.170	-0.110	0.740
2020/01/31 03:27:54.6	94.190	-0.120	-0.220	0.660
2020/01/31 03:27:54.7	94.220	-0.080	-0.330	0.580
2020/01/31 03:27:54.8	94.250	-0.020	-0.430	0.500
2020/01/31 03:27:54.9	94.280	0.030	-0.540	0.430
2020/01/31 03:27:55.0	94.310	0.090	-0.630	0.360
2020/01/31 03:27:55.1	94.340	0.140	-0.730	0.290
2020/01/31 03:27:55.2	94.370	0.200	-0.820	0.240
2020/01/31 03:27:55.3	94.400	0.250	-0.890	0.190
2020/01/31 03:27:55.4	94.430	0.310	-0.960	0.160
2020/01/31 03:27:55.5	94.450	0.360	-1.020	0.130
2020/01/31 03:27:55.6	94.470	0.410	-1.070	0.110
2020/01/31 03:27:55.7	94.490	0.460	-1.110	0.100
2020/01/31 03:27:55.8	94.500	0.500	-1.130	0.090
2020/01/31 03:27:55.9	94.510	0.540	-1.150	0.090
2020/01/31 03:27:56.0	94.510	0.580	-1.160	0.100
2020/01/31 03:27:56.1	94.520	0.610	-1.150	0.120
2020/01/31 03:27:56.2	94.510	0.630	-1.130	0.140
2020/01/31 03:27:56.3	94.510	0.650	-1.110	0.160
2020/01/31 03:27:56.4	94.490	0.670	-1.070	0.180
2020/01/31 03:27:56.5	94.480	0.670	-1.020	0.210
2020/01/31 03:27:56.6	94.460	0.670	-0.970	0.230
2020/01/31 03:27:56.7	94.450	0.670	-0.910	0.260
2020/01/31 03:27:56.8	94.430	0.660	-0.840	0.290
2020/01/31 03:27:56.9	94.410	0.640	-0.760	0.320
2020/01/31 03:27:57.0	94.380	0.610	-0.680	0.350
2020/01/31 03:27:57.1	94.350	0.580	-0.600	0.380
2020/01/31 03:27:57.2	94.330	0.550	-0.520	0.420
2020/01/31 03:27:57.3	94.310	0.510	-0.430	0.450
2020/01/31 03:27:57.4	94.280	0.470	-0.330	0.480
2020/01/31 03:27:57.5	94.260	0.420	-0.240	0.510
2020/01/31 03:27:57.6	94.240	0.370	-0.150	0.540
2020/01/31 03:27:57.7	94.210	0.320	-0.070	0.580
2020/01/31 03:27:57.8	94.190	0.260	0.020	0.610
2020/01/31 03:27:57.9	94.170	0.200	0.100	0.640
2020/01/31 03:27:58.0	94.150	0.150	0.170	0.670
2020/01/31 03:27:58.1	94.120	0.090	0.240	0.700
2020/01/31 03:27:58.2	94.100	0.040	0.300	0.740
2020/01/31 03:27:58.3	94.080	-0.020	0.360	0.770
2020/01/31 03:27:58.4	94.070	-0.070	0.400	0.800
2020/01/31 03:27:58.5	94.050	-0.120	0.440	0.840
2020/01/31 03:27:58.6	94.040	-0.160	0.470	0.870
2020/01/31 03:27:58.7	94.020	-0.200	0.490	0.910
2020/01/31 03:27:58.8	94.010	-0.240	0.500	0.940
2020/01/31 03:27:58.9	94.000	-0.270	0.510	0.970
2020/01/31 03:27:59.0	93.990	-0.300	0.500	1.010
2020/01/31 03:27:59.1	93.980	-0.320	0.490	1.040
2020/01/31 03:27:59.2	93.970	-0.340	0.470	1.070
2020/01/31 03:27:59.3	93.970	-0.360	0.450	1.100
2020/01/31 03:27:59.4	93.960	-0.370	0.420	1.120
2020/01/31 03:27:59.5	93.960	-0.370	0.380	1.140
2020/01/31 03:27:59.6	93.950	-0.380	0.340	1.150
2020/01/31 03:27:59.7	93.950	-0.370	0.300	1.160
2020/01/31 03:27:59.8	93.950	-0.370	0.250	1.170
2020/01/31 03:27:59.9	93.950	-0.360	0.200	1.160
2020/01/31 03:28:00.0	93.950	-0.350	0.150	1.160
2020/01/31 03:28:00.1	93.950	-0.340	0.090	1.140
2020/01/31 03:28:00.2	93.960	-0.330	0.040	1.120
2020/01/31 03:28:00.3	93.960	-0.310	-0.020	1.100
2020/01/31 03:28:00.4	93.970	-0.300	-0.070	1.080
2020/01/31 03:28:00.5	93.980	-0.280	-0.120	1.050
2020/01/31 03:28:00.6	93.980	-0.260	-0.170	1.020
2020/01/31 03:28:00.7	93.990	-0.240	-0.220	0.980
2020/01/31 03:28:00.8	94.000	-0.220	-0.270	0.950
2020/01/31 03:28:00.9	94.010	-0.210	-0.310	0.920
2020/01/31 03:28:01.0	94.030	-0.190	-0.350	0.900
2020/01/31 03:28:01.1	94.040	-0.170	-0.390	0.860
2020/01/31 03:28:01.2	94.050	-0.160	-0.430	0.840
2020/01/31 03:28:01.3	94.060	-0.140	-0.460	0.820
2020/01/31 03:28:01.4	94.070	-0.130	-0.490	0.810
2020/01/31 03:28:01.5	94.080	-0.110	-0.510	0.800
2020/01/31 03:28:01.6	94.090	-0.100	-0.530	0.790
2020/01/31 03:28:01.7	94.110	-0.090	-0.550	0.790
2020/01/31 03:28:01.8	94.120	-0.090	-0.560	0.790
2020/01/31 03:28:01.9	94.120	-0.080	-0.570	0.800
2020/01/31 03:28:02.0	94.130	-0.070	-0.580	0.800
2020/01/31 03:28:02.1	94.140	-0.070	-0.590	0.820
2020/01/31 03:28:02.2	94.150	-0.060	-0.590	0.830
2020/01/31 03:28:02.3	94.150	-0.060	-0.590	0.850
2020/01/31 03:28:02.4	94.150	-0.060	-0.580	0.870
2020/01/31 03:28:02.5	94.150	-0.060	-0.580	0.890
2020/01/31 03:28:02.6	94.150	-0.060	-0.570	0.920
2020/01/31 03:28:02.7	94.150	-0.060	-0.560	0.940
2020/01/31 03:28:02.8	94.150	-0.070	-0.540	0.960
2020/01/31 03:28:02.9	94.140	-0.070	-0.530	0.990
2020/01/31 03:28:03.0	94.130	-0.070	-0.510	1.010
2020/01/31 03:28:03.1	94.120	-0.080	-0.490	1.040
2020/01/31 03:28:03.2	94.110	-0.080	-0.470	1.060
2020/01/31 03:28:03.3	94.090	-0.080	-0.450	1.080
2020/01/31 03:28:03.4	94.080	-0.090	-0.430	1.100
2020/01/31 03:28:03.5	94.060	-0.090	-0.410	1.120
2020/01/31 03:28:03.6	94.030	-0.090	-0.380	1.140
2020/01/31 03:28:03.7	94.010	-0.090	-0.360	1.160
2020/01/31 03:28:03.8	93.980	-0.090	-0.340	1.180
2020/01/31 03:28:03.9	93.960	-0.090	-0.320	1.190
2020/01/31 03:28:04.0	93.930	-0.090	-0.300	1.210
2020/01/31 03:28:04.1	93.900	-0.090	-0.290	1.210
2020/01/31 03:28:04.2	93.870	-0.090	-0.270	1.220
2020/01/31 03:28:04.3	93.840	-0.080	-0.250	1.230
2020/01/31 03:28:04.4	93.810	-0.080	-0.240	1.240
2020/01/31 03:28:04.5	93.780	-0.070	-0.230	1.240
2020/01/31 03:28:04.6	93.760	-0.060	-0.220	1.240
2020/01/31 03:28:04.7	93.730	-0.060	-0.210	1.240
2020/01/31 03:28:04.8	93.710	-0.050	-0.200	1.230
2020/01/31 03:28:04.9	93.690	-0.040	-0.200	1.230
2020/01/31 03:28:05.0	93.670	-0.030	-0.190	1.220
2020/01/31 03:28:05.1	93.650	-0.020	-0.190	1.210
2020/01/31 03:28:05.2	93.630	-0.010	-0.190	1.190
2020/01/31 03:28:05.3	93.620	0.010	-0.190	1.170
2020/01/31 03:28:05.4	93.610	0.020	-0.190	1.160
2020/01/31 03:28:05.5	93.610	0.030	-0.190	1.130
2020/01/31 03:28:05.6	93.600	0.040	-0.190	1.110
2020/01/31 03:28:05.7	93.600	0.050	-0.200	1.090
2020/01/31 03:28:05.8	93.600	0.060	-0.200	1.060
2020/01/31 03:28:05.9	93.610	0.070	-0.210	1.030
2020/01/31 03:28:06.0	93.610	0.090	-0.210	1.000
2020/01/31 03:28:06.1	93.620	0.100	-0.220	0.970
2020/01/31 03:28:06.2	93.630	0.110	-0.230	0.940
2020/01/31 03:28:06.3	93.640	0.120	-0.240	0.910
2020/01/31 03:28:06.4	93.660	0.130	-0.240	0.880
2020/01/31 03:28:06.5	93.670	0.150	-0.250	0.850
2020/01/31 03:28:06.6	93.690	0.160	-0.260	0.820
2020/01/31 03:28:06.7	93.710	0.170	-0.270	0.780
2020/01/31 03:28:06.8	93.720	0.190	-0.270	0.750
2020/01/31 03:28:06.9	93.740	0.200	-0.280	0.720
2020/01/31 03:28:07.0	93.760	0.210	-0.290	0.690
2020/01/31 03:28:07.1	93.770	0.230	-0.290	0.660
2020/01/31 03:28:07.2	93.790	0.240	-0.300	0.630
2020/01/31 03:28:07.3	93.810	0.250	-0.300	0.600
2020/01/31 03:28:07.4	93.830	0.270	-0.310	0.570
2020/01/31 03:28:07.5	93.840	0.280	-0.310	0.540
2020/01/31 03:28:07.6	93.860	0.290	-0.310	0.520
2020/01/31 03:28:07.7	93.880	0.300	-0.300	0.490
2020/01/31 03:28:07.8	93.890	0.310	-0.300	0.470
2020/01/31 03:28:07.9	93.910	0.320	-0.290	0.450
2020/01/31 03:28:08.0	93.920	0.330	-0.290	0.440
2020/01/31 03:28:08.1	93.940	0.330	-0.280	0.420
2020/01/31 03:28:08.2	93.950	0.340	-0.260	0.410
2020/01/31 03:28:08.3	93.960	0.340	-0.250	0.410
2020/01/31 03:28:08.4	93.970	0.340	-0.230	0.400
2020/01/31 03:28:08.5	93.970	0.330	-0.210	0.400
2020/01/31 03:28:08.6	93.970	0.330	-0.190	0.410
2020/01/31 03:28:08.7	93.970	0.320	-0.170	0.410
2020/01/31 03:28:08.8	93.960	0.310	-0.140	0.430
2020/01/31 03:28:08.9	93.960	0.290	-0.120	0.440
2020/01/31 03:28:09.0	93.950	0.270	-0.090	0.460
2020/01/31 03:28:09.1	93.940	0.250	-0.060	0.480
2020/01/31 03:28:09.2	93.930	0.230	-0.030	0.510
2020/01/31 03:28:09.3	93.920	0.200	0.000	0.540
2020/01/31 03:28:09.4	93.910	0.180	0.030	0.570
2020/01/31 03:28:09.5	93.900	0.150	0.060	0.610
2020/01/31 03:28:09.6	93.880	0.110	0.090	0.650
2020/01/31 03:28:09.7	93.860	0.080	0.120	0.690
2020/01/31 03:28:09.8	93.850	0.040	0.150	0.740
2020/01/31 03:28:09.9	93.830	0.010	0.180	0.780
2020/01/31 03:28:10.0	93.810	-0.030	0.210	0.820
2020/01/31 03:28:10.1	93.790	-0.070	0.230	0.870
2020/01/31 03:28:10.2	93.780	-0.110	0.250	0.910
2020/01/31 03:28:10.3	93.760	-0.140	0.260	0.950
2020/01/31 03:28:10.4	93.740	-0.180	0.280	0.990
2020/01/31 03:28:10.5	93.730	-0.220	0.290	1.030
2020/01/31 03:28:10.6	93.710	-0.250	0.290	1.070
2020/01/31 03:28:10.7	93.700	-0.290	0.290	1.100
2020/01/31 03:28:10.8	93.690	-0.320	0.280	1.130
2020/01/31 03:28:10.9	93.680	-0.340	0.270	1.150
2020/01/31 03:28:11.0	93.680	-0.370	0.260	1.170
2020/01/31 03:28:11.1	93.680	-0.390	0.240	1.190
2020/01/31 03:28:11.2	93.670	-0.410	0.210	1.200
2020/01/31 03:28:11.3	93.680	-0.420	0.180	1.210
2020/01/31 03:28:11.4	93.680	-0.430	0.140	1.210
2020/01/31 03:28:11.5	93.690	-0.440	0.100	1.210
2020/01/31 03:28:11.6	93.700	-0.440	0.050	1.210
2020/01/31 03:28:11.7	93.710	-0.440	-0.000	1.200
2020/01/31 03:28:11.8	93.720	-0.430	-0.060	1.200
2020/01/31 03:28:11.9	93.740	-0.420	-0.110	1.190
2020/01/31 03:28:12.0	93.750	-0.410	-0.170	1.180
2020/01/31 03:28:12.1	93.770	-0.390	-0.240	1.160
2020/01/31 03:28:12.2	93.780	-0.370	-0.300	1.150
2020/01/31 03:28:12.3	93.800	-0.340	-0.360	1.130
2020/01/31 03:28:12.4	93.820	-0.320	-0.420	1.120
2020/01/31 03:28:12.5	93.840	-0.280	-0.480	1.110
2020/01/31 03:28:12.6	93.850	-0.250	-0.540	1.090
2020/01/31 03:28:12.7	93.870	-0.210	-0.590	1.080
2020/01/31 03:28:12.8	93.880	-0.180	-0.640	1.060
2020/01/31 03:28:12.9	93.900	-0.140	-0.690	1.050
2020/01/31 03:28:13.0	93.910	-0.100	-0.730	1.030
2020/01/31 03:28:13.1	93.930	-0.060	-0.770	1.020
2020/01/31 03:28:13.2	93.940	-0.020	-0.800	1.010
2020/01/31 03:28:13.3	93.950	0.020	-0.830	0.990
2020/01/31 03:28:13.4	93.950	0.060	-0.850	0.990
2020/01/31 03:28:13.5	93.960	0.100	-0.860	0.980
2020/01/31 03:28:13.6	93.960	0.140	-0.870	0.970
2020/01/31 03:28:13.7	93.960	0.180	-0.880	0.970
2020/01/31 03:28:13.8	93.960	0.210	-0.880	0.970
2020/01/31 03:28:13.9	93.960	0.240	-0.870	0.980
2020/01/31 03:28:14.0	93.950	0.270	-0.860	0.990
2020/01/31 03:28:14.1	93.940	0.300	-0.840	1.000
2020/01/31 03:28:14.2	93.930	0.320	-0.820	1.010
2020/01/31 03:28:14.3	93.920	0.340	-0.790	1.020
2020/01/31 03:28:14.4	93.910	0.360	-0.760	1.040
2020/01/31 03:28:14.5	93.890	0.380	-0.720	1.060
2020/01/31 03:28:14.6	93.880	0.390	-0.680	1.080
2020/01/31 03:28:14.7	93.860	0.390	-0.640	1.100
2020/01/31 03:28:14.8	93.850	0.400	-0.600	1.130
2020/01/31 03:28:14.9	93.830	0.400	-0.550	1.150
2020/01/31 03:28:15.0	93.810	0.390	-0.500	1.170
2020/01/31 03:28:15.1	93.790	0.390	-0.460	1.200
2020/01/31 03:28:15.2	93.780	0.380	-0.410	1.220
2020/01/31 03:28:15.3	93.770	0.360	-0.360	1.240
2020/01/31 03:28:15.4	93.750	0.340	-0.310	1.260
2020/01/31 03:28:15.5	93.740	0.320	-0.260	1.270
2020/01/31 03:28:15.6	93.730	0.300	-0.210	1.290
2020/01/31 03:28:15.7	93.720	0.270	-0.170	1.300
2020/01/31 03:28:15.8	93.710	0.250	-0.120	1.310
2020/01/31 03:28:15.9	93.700	0.220	-0.080	1.310
2020/01/31 03:28:16.0	93.690	0.180	-0.040	1.310
2020/01/31 03:28:16.1	93.680	0.150	-0.010	1.310
2020/01/31 03:28:16.2	93.680	0.120	0.030	1.300
2020/01/31 03:28:16.3	93.670	0.080	0.050	1.300
2020/01/31 03:28:16.4	93.660	0.040	0.080	1.290
2020/01/31 03:28:16.5	93.650	0.010	0.100	1.270
2020/01/31 03:28:16.6	93.650	-0.030	0.120	1.260
2020/01/31 03:28:16.7	93.640	-0.060	0.140	1.240
2020/01/31 03:28:16.8	93.630	-0.100	0.150	1.230
2020/01/31 03:28:16.9	93.620	-0.140	0.160	1.210
2020/01/31 03:28:17.0	93.610	-0.170	0.160	1.190
2020/01/31 03:28:17.1	93.600	-0.200	0.160	1.160
2020/01/31 03:28:17.2	93.590	-0.240	0.160	1.140
2020/01/31 03:28:17.3	93.580	-0.270	0.160	1.120
2020/01/31 03:28:17.4	93.560	-0.300	0.160	1.090
2020/01/31 03:28:17.5	93.550	-0.320	0.150	1.070
2020/01/31 03:28:17.6	93.540	-0.350	0.140	1.050
2020/01/31 03:28:17.7	93.540	-0.370	0.130	1.020
2020/01/31 03:28:17.8	93.530	-0.390	0.120	1.000
2020/01/31 03:28:17.9	93.520	-0.410	0.100	0.980
2020/01/31 03:28:18.0	93.510	-0.430	0.090	0.960
2020/01/31 03:28:18.1	93.500	-0.440	0.070	0.930
2020/01/31 03:28:18.2	93.500	-0.450	0.050	0.910
2020/01/31 03:28:18.3	93.490	-0.460	0.040	0.890
2020/01/31 03:28:18.4	93.490	-0.470	0.020	0.870
2020/01/31 03:28:18.5	93.480	-0.470	0.000	0.850
2020/01/31 03:28:18.6	93.480	-0.470	-0.010	0.830
2020/01/31 03:28:18.7	93.480	-0.470	-0.030	0.810
2020/01/31 03:28:18.8	93.480	-0.470	-0.050	0.790
2020/01/31 03:28:18.9	93.490	-0.460	-0.070	0.770
2020/01/31 03:28:19.0	93.490	-0.450	-0.090	0.750
2020/01/31 03:28:19.1	93.490	-0.440	-0.100	0.730
2020/01/31 03:28:19.2	93.500	-0.420	-0.120	0.710
2020/01/31 03:28:19.3	93.510	-0.410	-0.140	0.700
2020/01/31 03:28:19.4	93.520	-0.390	-0.160	0.680
2020/01/31 03:28:19.5	93.530	-0.370	-0.180	0.670
2020/01/31 03:28:19.6	93.540	-0.340	-0.200	0.660
2020/01/31 03:28:19.7	93.560	-0.320	-0.220	0.650
2020/01/31 03:28:19.8	93.570	-0.290	-0.240	0.640
2020/01/31 03:28:19.9	93.590	-0.260	-0.260	0.640
2020/01/31 03:28:20.0	93.600	-0.230	-0.280	0.640
2020/01/31 03:28:20.1	93.610	-0.200	-0.310	0.640
2020/01/31 03:28:20.2	93.620	-0.170	-0.330	0.640
2020/01/31 03:28:20.3	93.640	-0.140	-0.340	0.650
2020/01/31 03:28:20.4	93.650	-0.100	-0.360	0.660
2020/01/31 03:28:20.5	93.660	-0.070	-0.370	0.680
2020/01/31 03:28:20.6	93.670	-0.030	-0.390	0.690
2020/01/31 03:28:20.7	93.680	0.000	-0.400	0.710
2020/01/31 03:28:20.8	93.690	0.040	-0.410	0.730
2020/01/31 03:28:20.9	93.690	0.070	-0.420	0.750
2020/01/31 03:28:21.0	93.700	0.100	-0.430	0.770
2020/01/31 03:28:21.1	93.700	0.140	-0.440	0.790
2020/01/31 03:28:21.2	93.700	0.170	-0.450	0.810
2020/01/31 03:28:21.3	93.690	0.200	-0.450	0.830
2020/01/31 03:28:21.4	93.690	0.230	-0.460	0.840
2020/01/31 03:28:21.5	93.680	0.250	-0.460	0.860
2020/01/31 03:28:21.6	93.670	0.280	-0.460	0.880
2020/01/31 03:28:21.7	93.660	0.300	-0.460	0.900
2020/01/31 03:28:21.8	93.650	0.320	-0.460	0.920
2020/01/31 03:28:21.9	93.640	0.340	-0.460	0.940
2020/01/31 03:28:22.0	93.620	0.360	-0.460	0.960
2020/01/31 03:28:22.1	93.610	0.380	-0.450	0.980
2020/01/31 03:28:22.2	93.590	0.390	-0.450	1.000
2020/01/31 03:28:22.3	93.570	0.410	-0.440	1.020
2020/01/31 03:28:22.4	93.560	0.420	-0.430	1.040
2020/01/31 03:28:22.5	93.540	0.430	-0.430	1.060
2020/01/31 03:28:22.6	93.530	0.430	-0.420	1.080
2020/01/31 03:28:22.7	93.520	0.440	-0.410	1.100
2020/01/31 03:28:22.8	93.510	0.440	-0.410	1.110
2020/01/31 03:28:22.9	93.500	0.450	-0.400	1.120
2020/01/31 03:28:23.0	93.500	0.450	-0.390	1.120
2020/01/31 03:28:23.1	93.500	0.450	-0.380	1.120
2020/01/31 03:28:23.2	93.510	0.450	-0.370	1.120
2020/01/31 03:28:23.3	93.510	0.440	-0.360	1.120
2020/01/31 03:28:23.4	93.520	0.440	-0.350	1.110
2020/01/31 03:28:23.5	93.540	0.430	-0.330	1.100
2020/01/31 03:28:23.6	93.550	0.430	-0.320	1.080
2020/01/31 03:28:23.7	93.570	0.420	-0.300	1.060
2020/01/31 03:28:23.8	93.590	0.410	-0.280	1.040
2020/01/31 03:28:23.9	93.610	0.400	-0.260	1.020
2020/01/31 03:28:24.0	93.640	0.380	-0.240	0.990
2020/01/31 03:28:24.1	93.660	0.370	-0.220	0.960
2020/01/31 03:28:24.2	93.680	0.360	-0.200	0.940
2020/01/31 03:28:24.3	93.710	0.340	-0.170	0.910
2020/01/31 03:28:24.4	93.730	0.330	-0.140	0.880
2020/01/31 03:28:24.5	93.750	0.310	-0.110	0.860
2020/01/31 03:28:24.6	93.780	0.290	-0.080	0.840
2020/01/31 03:28:24.7	93.790	0.270	-0.050	0.820
2020/01/31 03:28:24.8	93.810	0.260	-0.020	0.800
2020/01/31 03:28:24.9	93.830	0.240	0.010	0.780
2020/01/31 03:28:25.0	93.840	0.210	0.050	0.770
2020/01/31 03:28:25.1	93.860	0.190	0.080	0.760
2020/01/31 03:28:25.2	93.870	0.170	0.120	0.750
2020/01/31 03:28:25.3	93.880	0.150	0.150	0.740
2020/01/31 03:28:25.4	93.890	0.130	0.180	0.740
2020/01/31 03:28:25.5	93.890	0.100	0.200	0.740
2020/01/31 03:28:25.6	93.890	0.080	0.230	0.740
2020/01/31 03:28:25.7	93.890	0.060	0.250	0.750
2020/01/31 03:28:25.8	93.890	0.040	0.260	0.760
2020/01/31 03:28:25.9	93.880	0.020	0.280	0.770
2020/01/31 03:28:26.0	93.880	-0.010	0.280	0.780
2020/01/31 03:28:26.1	93.880	-0.020	0.280	0.790
2020/01/31 03:28:26.2	93.870	-0.040	0.280	0.810
2020/01/31 03:28:26.3	93.860	-0.060	0.270	0.830
2020/01/31 03:28:26.4	93.840	-0.070	0.250	0.850
2020/01/31 03:28:26.5	93.830	-0.090	0.230	0.870
2020/01/31 03:28:26.6	93.810	-0.100	0.200	0.890
2020/01/31 03:28:26.7	93.800	-0.110	0.160	0.910
2020/01/31 03:28:26.8	93.780	-0.120	0.120	0.930
2020/01/31 03:28:26.9	93.770	-0.120	0.080	0.960
2020/01/31 03:28:27.0	93.750	-0.120	0.030	0.980
2020/01/31 03:28:27.1	93.730	-0.130	-0.030	1.000
2020/01/31 03:28:27.2	93.720	-0.130	-0.090	1.020
2020/01/31 03:28:27.3	93.700	-0.130	-0.150	1.050
2020/01/31 03:28:27.4	93.680	-0.130	-0.200	1.080
2020/01/31 03:28:27.5	93.660	-0.130	-0.260	1.100
2020/01/31 03:28:27.6	93.650	-0.120	-0.320	1.130
2020/01/31 03:28:27.7	93.630	-0.120	-0.380	1.160
2020/01/31 03:28:27.8	93.610	-0.120	-0.430	1.190
2020/01/31 03:28:27.9	93.590	-0.120	-0.480	1.210
2020/01/31 03:28:28.0	93.570	-0.120	-0.530	1.240
2020/01/31 03:28:28.1	93.550	-0.120	-0.570	1.270
2020/01/31 03:28:28.2	93.530	-0.120	-0.610	1.290
2020/01/31 03:28:28.3	93.510	-0.120	-0.640	1.310
2020/01/31 03:28:28.4	93.500	-0.120	-0.670	1.330
2020/01/31 03:28:28.5	93.490	-0.130	-0.690	1.340
2020/01/31 03:28:28.6	93.480	-0.140	-0.700	1.360
2020/01/31 03:28:28.7	93.470	-0.140	-0.720	1.370
2020/01/31 03:28:28.8	93.470	-0.150	-0.720	1.370
2020/01/31 03:28:28.9	93.460	-0.160	-0.720	1.380
2020/01/31 03:28:29.0	93.460	-0.180	-0.720	1.370
2020/01/31 03:28:29.1	93.460	-0.190	-0.710	1.370
2020/01/31 03:28:29.2	93.460	-0.200	-0.700	1.360
2020/01/31 03:28:29.3	93.470	-0.220	-0.690	1.340
2020/01/31 03:28:29.4	93.480	-0.230	-0.670	1.330
2020/01/31 03:28:29.5	93.490	-0.250	-0.660	1.310
2020/01/31 03:28:29.6	93.510	-0.260	-0.640	1.290
2020/01/31 03:28:29.7	93.530	-0.270	-0.610	1.260
2020/01/31 03:28:29.8	93.550	-0.290	-0.590	1.240
2020/01/31 03:28:29.9	93.570	-0.300	-0.570	1.210
2020/01/31 03:28:30.0	93.590	-0.310	-0.550	1.190
2020/01/31 03:28:30.1	93.620	-0.310	-0.530	1.160
2020/01/31 03:28:30.2	93.640	-0.320	-0.500	1.140
2020/01/31 03:28:30.3	93.670	-0.330	-0.480	1.120
2020/01/31 03:28:30.4	93.690	-0.330	-0.460	1.100
2020/01/31 03:28:30.5	93.710	-0.330	-0.440	1.090
2020/01/31 03:28:30.6	93.730	-0.330	-0.410	1.080
2020/01/31 03:28:30.7	93.750	-0.320	-0.390	1.080
2020/01/31 03:28:30.8	93.770	-0.320	-0.370	1.070
2020/01/31 03:28:30.9	93.780	-0.310	-0.350	1.070
2020/01/31 03:28:31.0	93.800	-0.300	-0.330	1.070
2020/01/31 03:28:31.1	93.810	-0.290	-0.300	1.070
2020/01/31 03:28:31.2	93.810	-0.280	-0.280	1.080
2020/01/31 03:28:31.3	93.820	-0.270	-0.260	1.080
2020/01/31 03:28:31.4	93.830	-0.250	-0.240	1.090
2020/01/31 03:28:31.5	93.830	-0.240	-0.210	1.100
2020/01/31 03:28:31.6	93.830	-0.230	-0.190	1.100
2020/01/31 03:28:31.7	93.830	-0.210	-0.160	1.110
2020/01/31 03:28:31.8	93.830	-0.200	-0.140	1.120
2020/01/31 03:28:31.9	93.830	-0.190	-0.110	1.120
2020/01/31 03:28:32.0	93.830	-0.180	-0.090	1.120
2020/01/31 03:28:32.1	93.830	-0.170	-0.060	1.130
2020/01/31 03:28:32.2	93.830	-0.160	-0.040	1.130
2020/01/31 03:28:32.3	93.820	-0.150	-0.010	1.130
2020/01/31 03:28:32.4	93.820	-0.140	0.010	1.130
2020/01/31 03:28:32.5	93.810	-0.130	0.030	1.130
2020/01/31 03:28:32.6	93.810	-0.120	0.050	1.120
2020/01/31 03:28:32.7	93.800	-0.110	0.060	1.120
2020/01/31 03:28:32.8	93.790	-0.110	0.080	1.110
2020/01/31 03:28:32.9	93.790	-0.100	0.090	1.100
2020/01/31 03:28:33.0	93.790	-0.090	0.100	1.090
2020/01/31 03:28:33.1	93.790	-0.090	0.110	1.080
2020/01/31 03:28:33.2	93.780	-0.080	0.120	1.070
2020/01/31 03:28:33.3	93.780	-0.070	0.120	1.060
2020/01/31 03:28:33.4	93.780	-0.060	0.120	1.040
2020/01/31 03:28:33.5	93.780	-0.050	0.120	1.030
2020/01/31 03:28:33.6	93.780	-0.050	0.120	1.020
2020/01/31 03:28:33.7	93.780	-0.040	0.120	1.000
2020/01/31 03:28:33.8	93.790	-0.030	0.110	0.990
2020/01/31 03:28:33.9	93.790	-0.010	0.100	0.970
2020/01/31 03:28:34.0	93.800	-0.000	0.090	0.950
2020/01/31 03:28:34.1	93.820	0.010	0.080	0.940
2020/01/31 03:28:34.2	93.830	0.030	0.070	0.910
2020/01/31 03:28:34.3	93.840	0.040	0.050	0.890
2020/01/31 03:28:34.4	93.850	0.060	0.020	0.870
2020/01/31 03:28:34.5	93.870	0.080	-0.000	0.840
2020/01/31 03:28:34.6	93.880	0.100	-0.030	0.810
2020/01/31 03:28:34.7	93.900	0.120	-0.060	0.780
2020/01/31 03:28:34.8	93.920	0.140	-0.090	0.750
2020/01/31 03:28:34.9	93.940	0.160	-0.130	0.720
2020/01/31 03:28:35.0	93.970	0.190	-0.160	0.690
2020/01/31 03:28:35.1	93.990	0.210	-0.200	0.650
2020/01/31 03:28:35.2	94.010	0.230	-0.240	0.610
2020/01/31 03:28:35.3	94.040	0.260	-0.280	0.570
2020/01/31 03:28:35.4	94.060	0.280	-0.310	0.540
2020/01/31 03:28:35.5	94.090	0.310	-0.350	0.510
2020/01/31 03:28:35.6	94.110	0.330	-0.380	0.490
2020/01/31 03:28:35.7	94.140	0.360	-0.410	0.460
2020/01/31 03:28:35.8	94.160	0.380	-0.430	0.440
2020/01/31 03:28:35.9	94.170	0.400	-0.460	0.430
2020/01/31 03:28:36.0	94.190	0.420	-0.470	0.410
2020/01/31 03:28:36.1	94.200	0.430	-0.490	0.410
2020/01/31 03:28:36.2	94.210	0.450	-0.500	0.400
2020/01/31 03:28:36.3	94.210	0.460	-0.500	0.400
2020/01/31 03:28:36.4	94.210	0.470	-0.490	0.410
2020/01/31 03:28:36.5	94.210	0.470	-0.480	0.420
2020/01/31 03:28:36.6	94.200	0.480	-0.470	0.430
2020/01/31 03:28:36.7	94.190	0.480	-0.450	0.440
2020/01/31 03:28:36.8	94.170	0.470	-0.420	0.460
2020/01/31 03:28:36.9	94.150	0.460	-0.390	0.490
2020/01/31 03:28:37.0	94.130	0.450	-0.360	0.510
2020/01/31 03:28:37.1	94.100	0.440	-0.320	0.530
2020/01/31 03:28:37.2	94.080	0.420	-0.280	0.560
2020/01/31 03:28:37.3	94.050	0.400	-0.240	0.590
2020/01/31 03:28:37.4	94.020	0.380	-0.200	0.620
2020/01/31 03:28:37.5	93.990	0.360	-0.150	0.650
2020/01/31 03:28:37.6	93.960	0.330	-0.110	0.670
2020/01/31 03:28:37.7	93.920	0.300	-0.060	0.700
2020/01/31 03:28:37.8	93.890	0.270	-0.020	0.730
2020/01/31 03:28:37.9	93.860	0.240	0.020	0.750
2020/01/31 03:28:38.0	93.840	0.200	0.060	0.780
2020/01/31 03:28:38.1	93.810	0.170	0.090	0.800
2020/01/31 03:28:38.2	93.780	0.140	0.120	0.820
2020/01/31 03:28:38.3	93.760	0.100	0.150	0.840
2020/01/31 03:28:38.4	93.740	0.070	0.170	0.850
2020/01/31 03:28:38.5	93.730	0.040	0.180	0.870
2020/01/31 03:28:38.6	93.720	0.010	0.190	0.880
2020/01/31 03:28:38.7	93.720	-0.010	0.190	0.880
2020/01/31 03:28:38.8	93.730	-0.030	0.180	0.890
2020/01/31 03:28:38.9	93.740	-0.050	0.160	0.880
2020/01/31 03:28:39.0	93.750	-0.070	0.140	0.880
2020/01/31 03:28:39.1	93.770	-0.080	0.110	0.870
2020/01/31 03:28:39.2	93.780	-0.090	0.070	0.850
2020/01/31 03:28:39.3	93.810	-0.100	0.020	0.840
2020/01/31 03:28:39.4	93.840	-0.100	-0.030	0.820
2020/01/31 03:28:39.5	93.870	-0.100	-0.080	0.800
2020/01/31 03:28:39.6	93.900	-0.090	-0.140	0.780
2020/01/31 03:28:39.7	93.940	-0.090	-0.200	0.760
2020/01/31 03:28:39.8	93.970	-0.080	-0.260	0.750
2020/01/31 03:28:39.9	94.000	-0.060	-0.320	0.730
2020/01/31 03:28:40.0	94.030	-0.050	-0.390	0.720
2020/01/31 03:28:40.1	94.060	-0.040	-0.450	0.700
2020/01/31 03:28:40.2	94.080	-0.020	-0.510	0.690
2020/01/31 03:28:40.3	94.110	-0.010	-0.570	0.690
2020/01/31 03:28:40.4	94.120	0.010	-0.620	0.680
2020/01/31 03:28:40.5	94.140	0.020	-0.660	0.680
2020/01/31 03:28:40.6	94.150	0.030	-0.710	0.690
2020/01/31 03:28:40.7	94.160	0.040	-0.740	0.690
2020/01/31 03:28:40.8	94.160	0.050	-0.770	0.700
2020/01/31 03:28:40.9	94.160	0.060	-0.790	0.710
2020/01/31 03:28:41.0	94.160	0.060	-0.800	0.730
2020/01/31 03:28:41.1	94.160	0.070	-0.810	0.750
2020/01/31 03:28:41.2	94.150	0.070	-0.810	0.770
2020/01/31 03:28:41.3	94.140	0.060	-0.800	0.800
2020/01/31 03:28:41.4	94.120	0.060	-0.790	0.830
2020/01/31 03:28:41.5	94.100	0.050	-0.770	0.870
2020/01/31 03:28:41.6	94.080	0.040	-0.740	0.910
2020/01/31 03:28:41.7	94.060	0.030	-0.710	0.950
2020/01/31 03:28:41.8	94.030	0.010	-0.670	1.000
2020/01/31 03:28:41.9	94.010	-0.010	-0.620	1.040
2020/01/31 03:28:42.0	93.980	-0.030	-0.570	1.090
2020/01/31 03:28:42.1	93.950	-0.050	-0.520	1.140
2020/01/31 03:28:42.2	93.920	-0.070	-0.460	1.190
2020/01/31 03:28:42.3	93.890	-0.100	-0.400	1.240
2020/01/31 03:28:42.4	93.850	-0.120	-0.340	1.290
2020/01/31 03:28:42.5	93.820	-0.150	-0.280	1.330
2020/01/31 03:28:42.6	93.790	-0.180	-0.220	1.380
2020/01/31 03:28:42.7	93.750	-0.200	-0.160	1.420
2020/01/31 03:28:42.8	93.720	-0.230	-0.100	1.460
2020/01/31 03:28:42.9	93.690	-0.250	-0.040	1.500
2020/01/31 03:28:43.0	93.660	-0.280	0.010	1.540
2020/01/31 03:28:43.1	93.630	-0.300	0.060	1.570
2020/01/31 03:28:43.2	93.610	-0.320	0.110	1.590
2020/01/31 03:28:43.3	93.580	-0.340	0.150	1.610
2020/01/31 03:28:43.4	93.560	-0.350	0.180	1.630
2020/01/31 03:28:43.5	93.540	-0.370	0.210	1.640
2020/01/31 03:28:43.6	93.520	-0.380	0.230	1.650
2020/01/31 03:28:43.7	93.500	-0.390	0.250	1.650
2020/01/31 03:28:43.8	93.490	-0.390	0.250	1.640
2020/01/31 03:28:43.9	93.490	-0.390	0.250	1.630
2020/01/31 03:28:44.0	93.480	-0.390	0.240	1.610
2020/01/31 03:28:44.1	93.470	-0.380	0.220	1.580
2020/01/31 03:28:44.2	93.470	-0.370	0.200	1.560
2020/01/31 03:28:44.3	93.470	-0.360	0.170	1.530
2020/01/31 03:28:44.4	93.480	-0.340	0.130	1.490
2020/01/31 03:28:44.5	93.490	-0.320	0.080	1.450
2020/01/31 03:28:44.6	93.500	-0.290	0.030	1.410
2020/01/31 03:28:44.7	93.520	-0.260	-0.030	1.360
2020/01/31 03:28:44.8	93.540	-0.230	-0.090	1.310
2020/01/31 03:28:44.9	93.560	-0.200	-0.150	1.250
2020/01/31 03:28:45.0	93.590	-0.160	-0.220	1.200
2020/01/31 03:28:45.1	93.610	-0.120	-0.290	1.140
2020/01/31 03:28:45.2	93.650	-0.080	-0.360	1.070
2020/01/31 03:28:45.3	93.680	-0.040	-0.430	1.010
2020/01/31 03:28:45.4	93.710	0.010	-0.500	0.950
2020/01/31 03:28:45.5	93.740	0.050	-0.570	0.890
2020/01/31 03:28:45.6	93.770	0.090	-0.630	0.830
2020/01/31 03:28:45.7	93.800	0.130	-0.690	0.770
2020/01/31 03:28:45.8	93.830	0.170	-0.740	0.720
2020/01/31 03:28:45.9	93.850	0.210	-0.780	0.670
2020/01/31 03:28:46.0	93.880	0.250	-0.820	0.620
2020/01/31 03:28:46.1	93.900	0.280	-0.840	0.580
2020/01/31 03:28:46.2	93.920	0.310	-0.860	0.550
2020/01/31 03:28:46.3	93.940	0.340	-0.860	0.520
2020/01/31 03:28:46.4	93.950	0.360	-0.860	0.490
2020/01/31 03:28:46.5	93.960	0.380	-0.840	0.480
2020/01/31 03:28:46.6	93.960	0.390	-0.820	0.470
2020/01/31 03:28:46.7	93.960	0.400	-0.780	0.460
2020/01/31 03:28:46.8	93.960	0.400	-0.730	0.470
2020/01/31 03:28:46.9	93.950	0.390	-0.670	0.480
2020/01/31 03:28:47.0	93.950	0.380	-0.610	0.490
2020/01/31 03:28:47.1	93.930	0.370	-0.530	0.510
2020/01/31 03:28:47.2	93.910	0.350	-0.450	0.530
2020/01/31 03:28:47.3	93.890	0.320	-0.370	0.560
2020/01/31 03:28:47.4	93.880	0.290	-0.280	0.590
2020/01/31 03:28:47.5	93.860	0.250	-0.190	0.630
2020/01/31 03:28:47.6	93.840	0.210	-0.090	0.660
2020/01/31 03:28:47.7	93.810	0.170	0.000	0.700
2020/01/31 03:28:47.8	93.790	0.120	0.100	0.740
2020/01/31 03:28:47.9	93.770	0.070	0.190	0.780
2020/01/31 03:28:48.0	93.750	0.020	0.290	0.810
2020/01/31 03:28:48.1	93.720	-0.030	0.370	0.840
2020/01/31 03:28:48.2	93.700	-0.080	0.460	0.880
2020/01/31 03:28:48.3	93.680	-0.140	0.530	0.910
2020/01/31 03:28:48.4	93.660	-0.190	0.600	0.930
2020/01/31 03:28:48.5	93.640	-0.250	0.670	0.950
2020/01/31 03:28:48.6	93.620	-0.300	0.720	0.970
2020/01/31 03:28:48.7	93.610	-0.350	0.770	0.980
2020/01/31 03:28:48.8	93.600	-0.390	0.800	0.980
2020/01/31 03:28:48.9	93.590	-0.440	0.830	0.980
2020/01/31 03:28:49.0	93.580	-0.470	0.840	0.970
2020/01/31 03:28:49.1	93.570	-0.510	0.850	0.960
2020/01/31 03:28:49.2	93.580	-0.540	0.850	0.940
2020/01/31 03:28:49.3	93.580	-0.560	0.830	0.920
2020/01/31 03:28:49.4	93.580	-0.580	0.800	0.890
2020/01/31 03:28:49.5	93.590	-0.590	0.770	0.860
2020/01/31 03:28:49.6	93.600	-0.590	0.720	0.830
2020/01/31 03:28:49.7	93.610	-0.590	0.660	0.790
2020/01/31 03:28:49.8	93.630	-0.580	0.590	0.760
2020/01/31 03:28:49.9	93.640	-0.570	0.520	0.720
2020/01/31 03:28:50.0	93.660	-0.550	0.440	0.690
2020/01/31 03:28:50.1	93.690	-0.520	0.340	0.650
2020/01/31 03:28:50.2	93.710	-0.490	0.240	0.620
2020/01/31 03:28:50.3	93.730	-0.450	0.140	0.590
2020/01/31 03:28:50.4	93.760	-0.410	0.040	0.560
2020/01/31 03:28:50.5	93.780	-0.370	-0.070	0.540
2020/01/31 03:28:50.6	93.800	-0.320	-0.170	0.520
2020/01/31 03:28:50.7	93.830	-0.260	-0.280	0.500
2020/01/31 03:28:50.8	93.850	-0.210	-0.390	0.490
2020/01/31 03:28:50.9	93.870	-0.150	-0.490	0.490
2020/01/31 03:28:51.0	93.890	-0.090	-0.590	0.480
2020/01/31 03:28:51.1	93.910	-0.030	-0.690	0.480
2020/01/31 03:28:51.2	93.920	0.030	-0.780	0.480
2020/01/31 03:28:51.3	93.940	0.090	-0.870	0.490
2020/01/31 03:28:51.4	93.950	0.150	-0.950	0.500
2020/01/31 03:28:51.5	93.960	0.210	-1.020	0.510
2020/01/31 03:28:51.6	93.970	0.260	-1.090	0.520
2020/01/31 03:28:51.7	93.980	0.320	-1.140	0.530
2020/01/31 03:28:51.8	93.990	0.360	-1.190	0.550
2020/01/31 03:28:51.9	93.990	0.410	-1.230	0.560
2020/01/31 03:28:52.0	93.990	0.450	-1.260	0.580
2020/01/31 03:28:52.1	93.990	0.490	-1.280	0.590
2020/01/31 03:28:52.2	93.980	0.520	-1.290	0.610
2020/01/31 03:28:52.3	93.980	0.550	-1.290	0.630
2020/01/31 03:28:52.4	93.970	0.580	-1.280	0.650
2020/01/31 03:28:52.5	93.970	0.590	-1.260	0.670
2020/01/31 03:28:52.6	93.960	0.610	-1.230	0.690
2020/01/31 03:28:52.7	93.950	0.620	-1.200	0.710
2020/01/31 03:28:52.8	93.940	0.620	-1.160	0.730
2020/01/31 03:28:52.9	93.940	0.620	-1.100	0.760
2020/01/31 03:28:53.0	93.930	0.610	-1.050	0.790
2020/01/31 03:28:53.1	93.920	0.600	-0.980	0.810
2020/01/31 03:28:53.2	93.910	0.580	-0.910	0.840
2020/01/31 03:28:53.3	93.900	0.560	-0.840	0.870
2020/01/31 03:28:53.4	93.890	0.540	-0.760	0.910
2020/01/31 03:28:53.5	93.870	0.510	-0.680	0.940
2020/01/31 03:28:53.6	93.860	0.480	-0.600	0.980
2020/01/31 03:28:53.7	93.850	0.440	-0.520	1.020
2020/01/31 03:28:53.8	93.840	0.400	-0.440	1.060
2020/01/31 03:28:53.9	93.820	0.360	-0.350	1.100
2020/01/31 03:28:54.0	93.810	0.320	-0.270	1.140
2020/01/31 03:28:54.1	93.790	0.280	-0.190	1.180
2020/01/31 03:28:54.2	93.780	0.230	-0.110	1.220
2020/01/31 03:28:54.3	93.770	0.190	-0.040	1.260
2020/01/31 03:28:54.4	93.760	0.140	0.040	1.290
2020/01/31 03:28:54.5	93.750	0.100	0.100	1.330
2020/01/31 03:28:54.6	93.740	0.050	0.170	1.360
2020/01/31 03:28:54.7	93.730	0.010	0.230	1.390
2020/01/31 03:28:54.8	93.720	-0.030	0.280	1.410
2020/01/31 03:28:54.9	93.710	-0.070	0.330	1.430
2020/01/31 03:28:55.0	93.700	-0.100	0.370	1.440
2020/01/31 03:28:55.1	93.700	-0.140	0.410	1.450
2020/01/31 03:28:55.2	93.700	-0.170	0.440	1.450
2020/01/31 03:28:55.3	93.700	-0.200	0.460	1.450
2020/01/31 03:28:55.4	93.700	-0.220	0.480	1.450
2020/01/31 03:28:55.5	93.700	-0.240	0.490	1.440
2020/01/31 03:28:55.6	93.700	-0.260	0.500	1.420
2020/01/31 03:28:55.7	93.700	-0.280	0.500	1.400
2020/01/31 03:28:55.8	93.710	-0.290	0.490	1.370
2020/01/31 03:28:55.9	93.720	-0.300	0.480	1.340
2020/01/31 03:28:56.0	93.730	-0.300	0.460	1.310
2020/01/31 03:28:56.1	93.740	-0.300	0.440	1.270
2020/01/31 03:28:56.2	93.750	-0.300	0.410	1.240
2020/01/31 03:28:56.3	93.770	-0.300	0.380	1.200
2020/01/31 03:28:56.4	93.790	-0.290	0.340	1.150
2020/01/31 03:28:56.5	93.810	-0.280	0.300	1.110
2020/01/31 03:28:56.6	93.830	-0.270	0.260	1.060
2020/01/31 03:28:56.7	93.850	-0.260	0.220	1.020
2020/01/31 03:28:56.8	93.870	-0.240	0.170	0.970
2020/01/31 03:28:56.9	93.900	-0.220	0.120	0.930
2020/01/31 03:28:57.0	93.920	-0.200	0.070	0.890
2020/01/31 03:28:57.1	93.950	-0.180	0.020	0.840
2020/01/31 03:28:57.2	93.970	-0.160	-0.030	0.810
2020/01/31 03:28:57.3	94.000	-0.140	-0.080	0.770
2020/01/31 03:28:57.4	94.020	-0.110	-0.140	0.740
2020/01/31 03:28:57.5	94.040	-0.090	-0.190	0.720
2020/01/31 03:28:57.6	94.060	-0.060	-0.240	0.700
2020/01/31 03:28:57.7	94.080	-0.040	-0.300	0.680
2020/01/31 03:28:57.8	94.100	-0.020	-0.340	0.670
2020/01/31 03:28:57.9	94.120	0.010	-0.390	0.660
2020/01/31 03:28:58.0	94.140	0.030	-0.440	0.650
2020/01/31 03:28:58.1	94.150	0.050	-0.480	0.650
2020/01/31 03:28:58.2	94.160	0.060	-0.510	0.650
2020/01/31 03:28:58.3	94.170	0.080	-0.550	0.650
2020/01/31 03:28:58.4	94.180	0.090	-0.570	0.660
2020/01/31 03:28:58.5	94.180	0.100	-0.590	0.670
2020/01/31 03:28:58.6	94.180	0.100	-0.600	0.680
2020/01/31 03:28:58.7	94.180	0.100	-0.610	0.700
2020/01/31 03:28:58.8	94.180	0.100	-0.620	0.710
2020/01/31 03:28:58.9	94.180	0.100	-0.610	0.730
2020/01/31 03:28:59.0	94.180	0.090	-0.610	0.740
2020/01/31 03:28:59.1	94.180	0.080	-0.590	0.750
2020/01/31 03:28:59.2	94.180	0.060	-0.580	0.760
2020/01/31 03:28:59.3	94.170	0.040	-0.550	0.770
2020/01/31 03:28:59.4	94.160	0.020	-0.530	0.780
2020/01/31 03:28:59.5	94.160	0.000	-0.500	0.790
2020/01/31 03:28:59.6	94.150	-0.020	-0.470	0.800
2020/01/31 03:28:59.7	94.150	-0.050	-0.440	0.800
2020/01/31 03:28:59.8	94.140	-0.080	-0.410	0.810
2020/01/31 03:28:59.9	94.140	-0.100	-0.380	0.810
2020/01/31 03:29:00.0	94.140	-0.130	-0.340	0.810
2020/01/31 03:29:00.1	94.130	-0.160	-0.310	0.810
2020/01/31 03:29:00.2	94.130	-0.180	-0.280	0.810
2020/01/31 03:29:00.3	94.130	-0.210	-0.250	0.810
2020/01/31 03:29:00.4	94.140	-0.230	-0.220	0.800
2020/01/31 03:29:00.5	94.140	-0.250	-0.200	0.800
2020/01/31 03:29:00.6	94.150	-0.270	-0.180	0.790
2020/01/31 03:29:00.7	94.160	-0.280	-0.160	0.780
2020/01/31 03:29:00.8	94.170	-0.290	-0.150	0.770
2020/01/31 03:29:00.9	94.190	-0.300	-0.140	0.760
2020/01/31 03:29:01.0	94.210	-0.300	-0.140	0.760
2020/01/31 03:29:01.1	94.230	-0.300	-0.140	0.740
2020/01/31 03:29:01.2	94.240	-0.290	-0.140	0.740
2020/01/31 03:29:01.3	94.260	-0.280	-0.150	0.730
2020/01/31 03:29:01.4	94.280	-0.270	-0.170	0.720
2020/01/31 03:29:01.5	94.300	-0.250	-0.180	0.720
2020/01/31 03:29:01.6	94.320	-0.230	-0.200	0.720
2020/01/31 03:29:01.7	94.340	-0.200	-0.220	0.720
2020/01/31 03:29:01.8	94.350	-0.170	-0.250	0.730
2020/01/31 03:29:01.9	94.360	-0.150	-0.270	0.730
2020/01/31 03:29:02.0	94.370	-0.120	-0.290	0.740
2020/01/31 03:29:02.1	94.400	-0.080	-0.320	0.760
2020/01/31 03:29:02.2	94.400	-0.050	-0.330	0.770
2020/01/31 03:29:02.3	94.410	-0.020	-0.350	0.780
2020/01/31 03:29:02.4	94.410	0.010	-0.370	0.790
2020/01/31 03:29:02.5	94.410	0.040	-0.380	0.800
2020/01/31 03:29:02.6	94.410	0.060	-0.380	0.810
2020/01/31 03:29:02.7	94.400	0.090	-0.390	0.820
2020/01/31 03:29:02.8	94.400	0.110	-0.380	0.830
2020/01/31 03:29:02.9	94.390	0.130	-0.380	0.830
2020/01/31 03:29:03.0	94.390	0.140	-0.370	0.840
2020/01/31 03:29:03.1	94.380	0.150	-0.350	0.840
2020/01/31 03:29:03.2	94.370	0.160	-0.340	0.840
2020/01/31 03:29:03.3	94.360	0.160	-0.310	0.840
2020/01/31 03:29:03.4	94.350	0.160	-0.280	0.840
2020/01/31 03:29:03.5	94.340	0.150	-0.250	0.840
2020/01/31 03:29:03.6	94.330	0.140	-0.220	0.840
2020/01/31 03:29:03.7	94.320	0.130	-0.180	0.830
2020/01/31 03:29:03.8	94.310	0.110	-0.140	0.830
2020/01/31 03:29:03.9	94.300	0.100	-0.100	0.820
2020/01/31 03:29:04.0	94.290	0.070	-0.060	0.810
2020/01/31 03:29:04.1	94.290	0.050	-0.010	0.800
2020/01/31 03:29:04.2	94.280	0.020	0.030	0.790
2020/01/31 03:29:04.3	94.270	-0.000	0.070	0.780
2020/01/31 03:29:04.4	94.270	-0.030	0.100	0.760
2020/01/31 03:29:04.5	94.260	-0.060	0.140	0.750
2020/01/31 03:29:04.6	94.250	-0.090	0.170	0.730
2020/01/31 03:29:04.7	94.250	-0.120	0.200	0.710
2020/01/31 03:29:04.8	94.240	-0.140	0.220	0.680
2020/01/31 03:29:04.9	94.240	-0.160	0.240	0.660
2020/01/31 03:29:05.0	94.240	-0.180	0.250	0.640
2020/01/31 03:29:05.1	94.240	-0.200	0.260	0.600
2020/01/31 03:29:05.2	94.240	-0.220	0.260	0.570
2020/01/31 03:29:05.3	94.240	-0.230	0.250	0.540
2020/01/31 03:29:05.4	94.250	-0.230	0.240	0.510
2020/01/31 03:29:05.5	94.250	-0.230	0.230	0.480
2020/01/31 03:29:05.6	94.260	-0.230	0.200	0.440
2020/01/31 03:29:05.7	94.270	-0.220	0.170	0.410
2020/01/31 03:29:05.8	94.290	-0.210	0.140	0.370
2020/01/31 03:29:05.9	94.300	-0.190	0.100	0.330
2020/01/31 03:29:06.0	94.320	-0.170	0.050	0.300
2020/01/31 03:29:06.1	94.330	-0.150	-0.000	0.260
2020/01/31 03:29:06.2	94.360	-0.120	-0.060	0.230
2020/01/31 03:29:06.3	94.370	-0.090	-0.120	0.200
2020/01/31 03:29:06.4	94.390	-0.050	-0.180	0.170
2020/01/31 03:29:06.5	94.410	-0.010	-0.240	0.140
2020/01/31 03:29:06.6	94.430	0.030	-0.310	0.110
2020/01/31 03:29:06.7	94.450	0.080	-0.380	0.090
2020/01/31 03:29:06.8	94.460	0.120	-0.450	0.070
2020/01/31 03:29:06.9	94.480	0.170	-0.510	0.060
2020/01/31 03:29:07.0	94.490	0.220	-0.580	0.040
2020/01/31 03:29:07.1	94.510	0.270	-0.650	0.030
2020/01/31 03:29:07.2	94.520	0.320	-0.710	0.030
2020/01/31 03:29:07.3	94.530	0.370	-0.770	0.030
2020/01/31 03:29:07.4	94.530	0.410	-0.830	0.040
2020/01/31 03:29:07.5	94.540	0.460	-0.880	0.050
2020/01/31 03:29:07.6	94.540	0.500	-0.920	0.070
2020/01/31 03:29:07.7	94.540	0.540	-0.960	0.090
2020/01/31 03:29:07.8	94.530	0.570	-1.000	0.120
2020/01/31 03:29:07.9	94.530	0.600	-1.020	0.140
2020/01/31 03:29:08.0	94.520	0.630	-1.030	0.170
2020/01/31 03:29:08.1	94.520	0.650	-1.040	0.210
2020/01/31 03:29:08.2	94.510	0.670	-1.030	0.240
2020/01/31 03:29:08.3	94.490	0.670	-1.020	0.280
2020/01/31 03:29:08.4	94.480	0.680	-0.990	0.310
2020/01/31 03:29:08.5	94.470	0.670	-0.950	0.350
2020/01/31 03:29:08.6	94.460	0.660	-0.900	0.390
2020/01/31 03:29:08.7	94.450	0.640	-0.840	0.430
2020/01/31 03:29:08.8	94.440	0.620	-0.770	0.470
2020/01/31 03:29:08.9	94.430	0.590	-0.700	0.510
2020/01/31 03:29:09.0	94.420	0.550	-0.610	0.550
2020/01/31 03:29:09.1	94.410	0.510	-0.510	0.590
2020/01/31 03:29:09.2	94.400	0.460	-0.410	0.630
2020/01/31 03:29:09.3	94.390	0.400	-0.310	0.680
2020/01/31 03:29:09.4	94.390	0.340	-0.200	0.720
2020/01/31 03:29:09.5	94.380	0.280	-0.090	0.770
2020/01/31 03:29:09.6	94.380	0.210	0.030	0.810
2020/01/31 03:29:09.7	94.380	0.140	0.140	0.860
2020/01/31 03:29:09.8	94.380	0.070	0.260	0.900
2020/01/31 03:29:09.9	94.380	-0.010	0.370	0.940
2020/01/31 03:29:10.0	94.380	-0.080	0.470	0.990
2020/01/31 03:29:10.1	94.380	-0.160	0.570	1.030
2020/01/31 03:29:10.2	94.380	-0.230	0.670	1.070
2020/01/31 03:29:10.3	94.390	-0.310	0.750	1.100
2020/01/31 03:29:10.4	94.390	-0.380	0.830	1.140
2020/01/31 03:29:10.5	94.390	-0.440	0.890	1.170
2020/01/31 03:29:10.6	94.400	-0.510	0.950	1.210
2020/01/31 03:29:10.7	94.400	-0.570	0.990	1.240
2020/01/31 03:29:10.8	94.410	-0.620	1.020	1.260
2020/01/31 03:29:10.9	94.410	-0.670	1.030	1.280
2020/01/31 03:29:11.0	94.420	-0.710	1.040	1.300
2020/01/31 03:29:11.1	94.420	-0.750	1.020	1.320
2020/01/31 03:29:11.2	94.430	-0.780	1.000	1.330
2020/01/31 03:29:11.3	94.430	-0.800	0.960	1.340
2020/01/31 03:29:11.4	94.440	-0.810	0.900	1.340
2020/01/31 03:29:11.5	94.440	-0.820	0.840	1.340
2020/01/31 03:29:11.6	94.450	-0.810	0.760	1.330
2020/01/31 03:29:11.7	94.460	-0.810	0.670	1.320
2020/01/31 03:29:11.8	94.460	-0.790	0.580	1.310
2020/01/31 03:29:11.9	94.470	-0.760	0.470	1.300
2020/01/31 03:29:12.0	94.480	-0.730	0.360	1.280
2020/01/31 03:29:12.1	94.500	-0.700	0.230	1.260
2020/01/31 03:29:12.2	94.510	-0.650	0.110	1.230
2020/01/31 03:29:12.3	94.510	-0.600	-0.020	1.210
2020/01/31 03:29:12.4	94.520	-0.550	-0.160	1.190
2020/01/31 03:29:12.5	94.540	-0.490	-0.290	1.160
2020/01/31 03:29:12.6	94.550	-0.430	-0.420	1.140
2020/01/31 03:29:12.7	94.560	-0.360	-0.560	1.110
2020/01/31 03:29:12.8	94.570	-0.290	-0.690	1.090
2020/01/31 03:29:12.9	94.590	-0.220	-0.810	1.070
2020/01/31 03:29:13.0	94.600	-0.150	-0.930	1.050
2020/01/31 03:29:13.1	94.620	-0.080	-1.050	1.040
2020/01/31 03:29:13.2	94.640	-0.010	-1.160	1.020
2020/01/31 03:29:13.3	94.660	0.060	-1.260	1.010
2020/01/31 03:29:13.4	94.670	0.130	-1.350	1.010
2020/01/31 03:29:13.5	94.690	0.200	-1.430	1.010
2020/01/31 03:29:13.6	94.710	0.260	-1.490	1.010
2020/01/31 03:29:13.7	94.720	0.320	-1.550	1.010
2020/01/31 03:29:13.8	94.740	0.380	-1.590	1.020
2020/01/31 03:29:13.9	94.750	0.430	-1.620	1.030
2020/01/31 03:29:14.0	94.760	0.480	-1.630	1.040
2020/01/31 03:29:14.1	94.770	0.520	-1.630	1.050
2020/01/31 03:29:14.2	94.780	0.550	-1.620	1.060
2020/01/31 03:29:14.3	94.790	0.580	-1.590	1.070
2020/01/31 03:29:14.4	94.800	0.600	-1.550	1.070
2020/01/31 03:29:14.5	94.810	0.610	-1.490	1.080
2020/01/31 03:29:14.6	94.810	0.620	-1.420	1.080
2020/01/31 03:29:14.7	94.810	0.620	-1.340	1.080
2020/01/31 03:29:14.8	94.810	0.610	-1.250	1.080
2020/01/31 03:29:14.9	94.810	0.600	-1.150	1.070
2020/01/31 03:29:15.0	94.800	0.570	-1.030	1.060
2020/01/31 03:29:15.1	94.800	0.550	-0.910	1.050
2020/01/31 03:29:15.2	94.790	0.510	-0.780	1.040
2020/01/31 03:29:15.3	94.780	0.480	-0.650	1.030
2020/01/31 03:29:15.4	94.770	0.430	-0.510	1.010
2020/01/31 03:29:15.5	94.760	0.380	-0.370	0.990
2020/01/31 03:29:15.6	94.750	0.330	-0.220	0.970
2020/01/31 03:29:15.7	94.730	0.270	-0.080	0.950
2020/01/31 03:29:15.8	94.720	0.210	0.070	0.920
2020/01/31 03:29:15.9	94.700	0.150	0.210	0.900
2020/01/31 03:29:16.0	94.680	0.090	0.340	0.880
2020/01/31 03:29:16.1	94.670	0.030	0.480	0.850
2020/01/31 03:29:16.2	94.650	-0.030	0.600	0.820
2020/01/31 03:29:16.3	94.640	-0.100	0.720	0.800
2020/01/31 03:29:16.4	94.620	-0.160	0.830	0.780
2020/01/31 03:29:16.5	94.600	-0.220	0.930	0.750
2020/01/31 03:29:16.6	94.590	-0.270	1.020	0.730
2020/01/31 03:29:16.7	94.570	-0.330	1.090	0.710
2020/01/31 03:29:16.8	94.560	-0.380	1.160	0.690
2020/01/31 03:29:16.9	94.540	-0.420	1.210	0.680
2020/01/31 03:29:17.0	94.530	-0.460	1.240	0.660
2020/01/31 03:29:17.1	94.520	-0.500	1.270	0.650
2020/01/31 03:29:17.2	94.510	-0.530	1.280	0.630
2020/01/31 03:29:17.3	94.500	-0.550	1.270	0.620
2020/01/31 03:29:17.4	94.490	-0.560	1.240	0.600
2020/01/31 03:29:17.5	94.480	-0.570	1.200	0.590
2020/01/31 03:29:17.6	94.470	-0.570	1.150	0.570
2020/01/31 03:29:17.7	94.470	-0.560	1.070	0.560
2020/01/31 03:29:17.8	94.460	-0.550	0.990	0.540
2020/01/31 03:29:17.9	94.460	-0.520	0.890	0.530
2020/01/31 03:29:18.0	94.460	-0.490	0.780	0.510
2020/01/31 03:29:18.1	94.460	-0.450	0.650	0.480
2020/01/31 03:29:18.2	94.470	-0.410	0.520	0.460
2020/01/31 03:29:18.3	94.470	-0.360	0.380	0.440
2020/01/31 03:29:18.4	94.480	-0.300	0.230	0.420
2020/01/31 03:29:18.5	94.490	-0.240	0.080	0.400
2020/01/31 03:29:18.6	94.500	-0.170	-0.070	0.380
2020/01/31 03:29:18.7	94.510	-0.100	-0.230	0.360
2020/01/31 03:29:18.8	94.520	-0.030	-0.380	0.340
2020/01/31 03:29:18.9	94.530	0.040	-0.530	0.320
2020/01/31 03:29:19.0	94.550	0.120	-0.680	0.300
2020/01/31 03:29:19.1	94.560	0.190	-0.830	0.290
2020/01/31 03:29:19.2	94.570	0.270	-0.960	0.270
2020/01/31 03:29:19.3	94.580	0.340	-1.090	0.260
2020/01/31 03:29:19.4	94.600	0.410	-1.200	0.260
2020/01/31 03:29:19.5	94.610	0.480	-1.310	0.250
2020/01/31 03:29:19.6	94.620	0.540	-1.400	0.250
2020/01/31 03:29:19.7	94.620	0.600	-1.470	0.260
2020/01/31 03:29:19.8	94.630	0.660	-1.530	0.270
2020/01/31 03:29:19.9	94.640	0.700	-1.580	0.280
2020/01/31 03:29:20.0	94.640	0.740	-1.610	0.300
2020/01/31 03:29:20.1	94.640	0.780	-1.620	0.320
2020/01/31 03:29:20.2	94.640	0.800	-1.620	0.340
2020/01/31 03:29:20.3	94.640	0.820	-1.610	0.370
2020/01/31 03:29:20.4	94.640	0.830	-1.570	0.400
2020/01/31 03:29:20.5	94.640	0.840	-1.520	0.440
2020/01/31 03:29:20.6	94.640	0.830	-1.460	0.470
2020/01/31 03:29:20.7	94.640	0.820	-1.380	0.510
2020/01/31 03:29:20.8	94.630	0.800	-1.300	0.560
2020/01/31 03:29:20.9	94.630	0.770	-1.200	0.600
2020/01/31 03:29:21.0	94.620	0.730	-1.090	0.640
2020/01/31 03:29:21.1	94.610	0.690	-0.970	0.690
2020/01/31 03:29:21.2	94.610	0.640	-0.840	0.740
2020/01/31 03:29:21.3	94.600	0.590	-0.710	0.780
2020/01/31 03:29:21.4	94.590	0.530	-0.580	0.820
2020/01/31 03:29:21.5	94.580	0.460	-0.440	0.870
2020/01/31 03:29:21.6	94.580	0.400	-0.300	0.910
2020/01/31 03:29:21.7	94.570	0.330	-0.170	0.950
2020/01/31 03:29:21.8	94.570	0.250	-0.030	0.990
2020/01/31 03:29:21.9	94.560	0.180	0.100	1.020
2020/01/31 03:29:22.0	94.560	0.100	0.220	1.060
2020/01/31 03:29:22.1	94.560	0.030	0.350	1.090
2020/01/31 03:29:22.2	94.560	-0.050	0.460	1.120
2020/01/31 03:29:22.3	94.560	-0.120	0.560	1.140
2020/01/31 03:29:22.4	94.570	-0.200	0.660	1.160
2020/01/31 03:29:22.5	94.570	-0.270	0.740	1.180
2020/01/31 03:29:22.6	94.580	-0.330	0.820	1.190
2020/01/31 03:29:22.7	94.580	-0.400	0.880	1.200
2020/01/31 03:29:22.8	94.590	-0.460	0.930	1.210
2020/01/31 03:29:22.9	94.600	-0.510	0.970	1.210
2020/01/31 03:29:23.0	94.610	-0.560	1.000	1.210
2020/01/31 03:29:23.1	94.630	-0.610	1.020	1.200
2020/01/31 03:29:23.2	94.650	-0.650	1.030	1.190
2020/01/31 03:29:23.3	94.660	-0.680	1.030	1.180
2020/01/31 03:29:23.4	94.680	-0.710	1.010	1.160
2020/01/31 03:29:23.5	94.700	-0.730	0.980	1.150
2020/01/31 03:29:23.6	94.720	-0.750	0.950	1.130
2020/01/31 03:29:23.7	94.740	-0.760	0.900	1.100
2020/01/31 03:29:23.8	94.760	-0.760	0.850	1.080
2020/01/31 03:29:23.9	94.780	-0.750	0.780	1.060
2020/01/31 03:29:24.0	94.810	-0.740	0.710	1.030
2020/01/31 03:29:24.1	94.830	-0.730	0.630	0.990
2020/01/31 03:29:24.2	94.860	-0.700	0.540	0.960
2020/01/31 03:29:24.3	94.890	-0.670	0.450	0.930
2020/01/31 03:29:24.4	94.920	-0.640	0.350	0.900
2020/01/31 03:29:24.5	94.950	-0.600	0.240	0.870
2020/01/31 03:29:24.6	94.980	-0.560	0.140	0.840
2020/01/31 03:29:24.7	95.010	-0.510	0.030	0.820
2020/01/31 03:29:24.8	95.040	-0.450	-0.080	0.790
2020/01/31 03:29:24.9	95.070	-0.400	-0.180	0.770
2020/01/31 03:29:25.0	95.100	-0.340	-0.290	0.750
2020/01/31 03:29:25.1	95.120	-0.280	-0.400	0.740
2020/01/31 03:29:25.2	95.150	-0.210	-0.500	0.730
2020/01/31 03:29:25.3	95.170	-0.150	-0.600	0.720
2020/01/31 03:29:25.4	95.190	-0.090	-0.690	0.720
2020/01/31 03:29:25.5	95.210	-0.020	-0.770	0.720
2020/01/31 03:29:25.6	95.220	0.040	-0.850	0.730
2020/01/31 03:29:25.7	95.230	0.100	-0.920	0.740
2020/01/31 03:29:25.8	95.240	0.160	-0.980	0.760
2020/01/31 03:29:25.9	95.250	0.220	-1.040	0.770
2020/01/31 03:29:26.0	95.250	0.270	-1.080	0.800
2020/01/31 03:29:26.1	95.250	0.320	-1.120	0.820
2020/01/31 03:29:26.2	95.240	0.370	-1.150	0.840
2020/01/31 03:29:26.3	95.230	0.410	-1.170	0.870
2020/01/31 03:29:26.4	95.220	0.440	-1.180	0.900
2020/01/31 03:29:26.5	95.200	0.480	-1.190	0.930
2020/01/31 03:29:26.6	95.180	0.500	-1.190	0.950
2020/01/31 03:29:26.7	95.160	0.520	-1.170	0.980
2020/01/31 03:29:26.8	95.130	0.540	-1.160	1.010
2020/01/31 03:29:26.9	95.100	0.550	-1.130	1.030
2020/01/31 03:29:27.0	95.070	0.560	-1.100	1.060
2020/01/31 03:29:27.1	95.030	0.560	-1.070	1.080
2020/01/31 03:29:27.2	95.000	0.560	-1.030	1.090
2020/01/31 03:29:27.3	94.960	0.550	-0.980	1.110
2020/01/31 03:29:27.4	94.920	0.540	-0.940	1.120
2020/01/31 03:29:27.5	94.880	0.520	-0.890	1.140
2020/01/31 03:29:27.6	94.830	0.500	-0.830	1.140
2020/01/31 03:29:27.7	94.790	0.470	-0.780	1.150
2020/01/31 03:29:27.8	94.750	0.450	-0.720	1.150
2020/01/31 03:29:27.9	94.710	0.420	-0.660	1.150
2020/01/31 03:29:28.0	94.670	0.390	-0.600	1.140
2020/01/31 03:29:28.1	94.620	0.360	-0.540	1.130
2020/01/31 03:29:28.2	94.590	0.320	-0.480	1.120
2020/01/31 03:29:28.3	94.560	0.290	-0.420	1.100
2020/01/31 03:29:28.4	94.530	0.250	-0.350	1.090
2020/01/31 03:29:28.5	94.510	0.210	-0.290	1.070
2020/01/31 03:29:28.6	94.490	0.180	-0.230	1.040
2020/01/31 03:29:28.7	94.470	0.140	-0.170	1.020
2020/01/31 03:29:28.8	94.460	0.100	-0.110	0.990
2020/01/31 03:29:28.9	94.450	0.070	-0.050	0.960
2020/01/31 03:29:29.0	94.450	0.030	0.010	0.930
2020/01/31 03:29:29.1	94.440	-0.010	0.070	0.890
2020/01/31 03:29:29.2	94.440	-0.040	0.130	0.860
2020/01/31 03:29:29.3	94.450	-0.070	0.190	0.820
2020/01/31 03:29:29.4	94.460	-0.100	0.240	0.780
2020/01/31 03:29:29.5	94.470	-0.140	0.300	0.750
2020/01/31 03:29:29.6	94.490	-0.160	0.350	0.710
2020/01/31 03:29:29.7	94.500	-0.190	0.390	0.680
2020/01/31 03:29:29.8	94.510	-0.220	0.440	0.640
2020/01/31 03:29:29.9	94.530	-0.240	0.480	0.610
2020/01/31 03:29:30.0	94.550	-0.270	0.520	0.570
2020/01/31 03:29:30.1	94.560	-0.290	0.550	0.540
2020/01/31 03:29:30.2	94.570	-0.300	0.570	0.510
2020/01/31 03:29:30.3	94.590	-0.320	0.600	0.480
2020/01/31 03:29:30.4	94.600	-0.330	0.610	0.450
2020/01/31 03:29:30.5	94.620	-0.340	0.620	0.420
2020/01/31 03:29:30.6	94.640	-0.350	0.620	0.390
2020/01/31 03:29:30.7	94.650	-0.350	0.620	0.370
2020/01/31 03:29:30.8	94.670	-0.350	0.610	0.340
2020/01/31 03:29:30.9	94.690	-0.350	0.590	0.320
2020/01/31 03:29:31.0	94.700	-0.350	0.560	0.290
2020/01/31 03:29:31.1	94.730	-0.340	0.530	0.260
2020/01/31 03:29:31.2	94.750	-0.320	0.490	0.240
2020/01/31 03:29:31.3	94.770	-0.310	0.440	0.210
2020/01/31 03:29:31.4	94.790	-0.290	0.390	0.190
2020/01/31 03:29:31.5	94.820	-0.260	0.320	0.160
2020/01/31 03:29:31.6	94.850	-0.230	0.250	0.140
2020/01/31 03:29:31.7	94.880	-0.200	0.180	0.110
2020/01/31 03:29:31.8	94.910	-0.170	0.100	0.080
2020/01/31 03:29:31.9	94.940	-0.130	0.010	0.060
2020/01/31 03:29:32.0	94.970	-0.090	-0.080	0.040
2020/01/31 03:29:32.1	95.010	-0.040	-0.170	0.020
2020/01/31 03:29:32.2	95.040	0.000	-0.270	0.000
2020/01/31 03:29:32.3	95.070	0.050	-0.360	-0.000
2020/01/31 03:29:32.4	95.100	0.100	-0.460	-0.010
2020/01/31 03:29:32.5	95.130	0.150	-0.550	-0.010
2020/01/31 03:29:32.6	95.160	0.200	-0.640	0.000
2020/01/31 03:29:32.7	95.180	0.250	-0.720	0.020
2020/01/31 03:29:32.8	95.200	0.290	-0.790	0.040
2020/01/31 03:29:32.9	95.210	0.340	-0.860	0.060
2020/01/31 03:29:33.0	95.220	0.380	-0.920	0.090
2020/01/31 03:29:33.1	95.230	0.420	-0.970	0.130
2020/01/31 03:29:33.2	95.220	0.460	-1.020	0.160
2020/01/31 03:29:33.3	95.230	0.490	-1.050	0.210
2020/01/31 03:29:33.4	95.230	0.520	-1.070	0.250
2020/01/31 03:29:33.5	95.230	0.550	-1.080	0.300
2020/01/31 03:29:33.6	95.230	0.570	-1.080	0.350
2020/01/31 03:29:33.7	95.220	0.590	-1.070	0.400
2020/01/31 03:29:33.8	95.220	0.600	-1.050	0.450
2020/01/31 03:29:33.9	95.210	0.600	-1.020	0.510
2020/01/31 03:29:34.0	95.200	0.600	-0.980	0.560
2020/01/31 03:29:34.1	95.190	0.590	-0.930	0.610
2020/01/31 03:29:34.2	95.170	0.580	-0.870	0.660
2020/01/31 03:29:34.3	95.150	0.570	-0.810	0.710
2020/01/31 03:29:34.4	95.130	0.540	-0.740	0.760
2020/01/31 03:29:34.5	95.120	0.520	-0.670	0.810
2020/01/31 03:29:34.6	95.100	0.490	-0.590	0.850
2020/01/31 03:29:34.7	95.080	0.450	-0.510	0.900
2020/01/31 03:29:34.8	95.060	0.410	-0.420	0.930
2020/01/31 03:29:34.9	95.040	0.370	-0.330	0.970
2020/01/31 03:29:35.0	95.030	0.320	-0.250	1.000
2020/01/31 03:29:35.1	95.010	0.270	-0.160	1.020
2020/01/31 03:29:35.2	94.990	0.220	-0.070	1.040
2020/01/31 03:29:35.3	94.970	0.160	0.010	1.060
2020/01/31 03:29:35.4	94.960	0.110	0.090	1.070
2020/01/31 03:29:35.5	94.940	0.050	0.170	1.070
2020/01/31 03:29:35.6	94.930	-0.010	0.240	1.080
2020/01/31 03:29:35.7	94.910	-0.070	0.310	1.070
2020/01/31 03:29:35.8	94.900	-0.120	0.370	1.070
2020/01/31 03:29:35.9	94.880	-0.180	0.420	1.060
2020/01/31 03:29:36.0	94.870	-0.230	0.470	1.050
2020/01/31 03:29:36.1	94.860	-0.290	0.520	1.030
2020/01/31 03:29:36.2	94.850	-0.340	0.560	1.020
2020/01/31 03:29:36.3	94.840	-0.390	0.590	1.010
2020/01/31 03:29:36.4	94.830	-0.440	0.610	0.990
2020/01/31 03:29:36.5	94.820	-0.480	0.630	0.970
2020/01/31 03:29:36.6	94.810	-0.520	0.640	0.960
2020/01/31 03:29:36.7	94.800	-0.560	0.640	0.940
2020/01/31 03:29:36.8	94.790	-0.590	0.640	0.920
2020/01/31 03:29:36.9	94.790	-0.620	0.630	0.910
2020/01/31 03:29:37.0	94.780	-0.650	0.610	0.890
2020/01/31 03:29:37.1	94.770	-0.670	0.590	0.870
2020/01/31 03:29:37.2	94.770	-0.690	0.560	0.850
2020/01/31 03:29:37.3	94.760	-0.700	0.520	0.840
2020/01/31 03:29:37.4	94.750	-0.710	0.480	0.830
2020/01/31 03:29:37.5	94.740	-0.710	0.430	0.810
2020/01/31 03:29:37.6	94.730	-0.710	0.370	0.800
2020/01/31 03:29:37.7	94.720	-0.700	0.310	0.790
2020/01/31 03:29:37.8	94.710	-0.690	0.250	0.780
2020/01/31 03:29:37.9	94.700	-0.680	0.170	0.770
2020/01/31 03:29:38.0	94.690	-0.650	0.100	0.770
2020/01/31 03:29:38.1	94.660	-0.630	0.020	0.760
2020/01/31 03:29:38.2	94.650	-0.600	-0.060	0.760
2020/01/31 03:29:38.3	94.640	-0.560	-0.150	0.750
2020/01/31 03:29:38.4	94.640	-0.520	-0.240	0.750
2020/01/31 03:29:38.5	94.640	-0.480	-0.330	0.750
2020/01/31 03:29:38.6	94.630	-0.430	-0.420	0.740
2020/01/31 03:29:38.7	94.640	-0.380	-0.510	0.740
2020/01/31 03:29:38.8	94.640	-0.330	-0.600	0.730
2020/01/31 03:29:38.9	94.650	-0.270	-0.690	0.730
2020/01/31 03:29:39.0	94.660	-0.210	-0.780	0.730
2020/01/31 03:29:39.1	94.680	-0.150	-0.870	0.710
2020/01/31 03:29:39.2	94.690	-0.080	-0.950	0.710
2020/01/31 03:29:39.3	94.710	-0.010	-1.030	0.700
2020/01/31 03:29:39.4	94.730	0.050	-1.100	0.700
2020/01/31 03:29:39.5	94.750	0.120	-1.170	0.690
2020/01/31 03:29:39.6	94.770	0.190	-1.240	0.690
2020/01/31 03:29:39.7	94.800	0.250	-1.290	0.690
2020/01/31 03:29:39.8	94.820	0.320	-1.340	0.690
2020/01/31 03:29:39.9	94.840	0.380	-1.390	0.680
2020/01/31 03:29:40.0	94.860	0.440	-1.420	0.680
2020/01/31 03:29:40.1	94.880	0.500	-1.440	0.690
2020/01/31 03:29:40.2	94.900	0.560	-1.460	0.690
2020/01/31 03:29:40.3	94.920	0.610	-1.470	0.700
2020/01/31 03:29:40.4	94.930	0.660	-1.460	0.700
2020/01/31 03:29:40.5	94.940	0.700	-1.450	0.710
2020/01/31 03:29:40.6	94.950	0.740	-1.420	0.720
2020/01/31 03:29:40.7	94.950	0.770	-1.390	0.730
2020/01/31 03:29:40.8	94.950	0.800	-1.340	0.750
2020/01/31 03:29:40.9	94.950	0.830	-1.290	0.760
2020/01/31 03:29:41.0	94.940	0.840	-1.230	0.780
2020/01/31 03:29:41.1	94.930	0.850	-1.160	0.800
2020/01/31 03:29:41.2	94.910	0.860	-1.080	0.820
2020/01/31 03:29:41.3	94.890	0.850	-0.990	0.840
2020/01/31 03:29:41.4	94.870	0.850	-0.890	0.870
2020/01/31 03:29:41.5	94.850	0.830	-0.790	0.890
2020/01/31 03:29:41.6	94.830	0.810	-0.690	0.910
2020/01/31 03:29:41.7	94.800	0.790	-0.580	0.940
2020/01/31 03:29:41.8	94.780	0.760	-0.460	0.960
2020/01/31 03:29:41.9	94.750	0.720	-0.340	0.980
2020/01/31 03:29:42.0	94.720	0.680	-0.220	1.000
2020/01/31 03:29:42.1	94.680	0.630	-0.100	1.020
2020/01/31 03:29:42.2	94.650	0.580	0.030	1.030
2020/01/31 03:29:42.3	94.620	0.520	0.150	1.040
2020/01/31 03:29:42.4	94.590	0.460	0.280	1.050
2020/01/31 03:29:42.5	94.570	0.400	0.400	1.060
2020/01/31 03:29:42.6	94.540	0.330	0.520	1.060
2020/01/31 03:29:42.7	94.520	0.260	0.630	1.050
2020/01/31 03:29:42.8	94.500	0.190	0.740	1.050
2020/01/31 03:29:42.9	94.480	0.120	0.840	1.030
2020/01/31 03:29:43.0	94.470	0.050	0.940	1.020
2020/01/31 03:29:43.1	94.480	-0.030	1.030	0.990
2020/01/31 03:29:43.2	94.470	-0.100	1.120	0.970
2020/01/31 03:29:43.3	94.470	-0.170	1.190	0.950
2020/01/31 03:29:43.4	94.460	-0.240	1.250	0.920
2020/01/31 03:29:43.5	94.470	-0.310	1.300	0.890
2020/01/31 03:29:43.6	94.470	-0.380	1.340	0.850
2020/01/31 03:29:43.7	94.480	-0.440	1.370	0.820
2020/01/31 03:29:43.8	94.490	-0.500	1.390	0.780
2020/01/31 03:29:43.9	94.500	-0.550	1.400	0.740
2020/01/31 03:29:44.0	94.510	-0.600	1.390	0.700
2020/01/31 03:29:44.1	94.530	-0.650	1.370	0.670
2020/01/31 03:29:44.2	94.550	-0.690	1.340	0.630
2020/01/31 03:29:44.3	94.570	-0.720	1.300	0.590
2020/01/31 03:29:44.4	94.590	-0.740	1.240	0.560
2020/01/31 03:29:44.5	94.620	-0.760	1.170	0.520
2020/01/31 03:29:44.6	94.650	-0.770	1.090	0.490
2020/01/31 03:29:44.7	94.670	-0.770	1.000	0.450
2020/01/31 03:29:44.8	94.700	-0.770	0.900	0.420
2020/01/31 03:29:44.9	94.730	-0.760	0.790	0.390
2020/01/31 03:29:45.0	94.760	-0.740	0.660	0.360
2020/01/31 03:29:45.1	94.790	-0.710	0.530	0.330
2020/01/31 03:29:45.2	94.820	-0.670	0.390	0.310
2020/01/31 03:29:45.3	94.850	-0.630	0.250	0.290
2020/01/31 03:29:45.4	94.880	-0.580	0.100	0.270
2020/01/31 03:29:45.5	94.910	-0.530	-0.040	0.250
2020/01/31 03:29:45.6	94.930	-0.470	-0.190	0.240
2020/01/31 03:29:45.7	94.960	-0.410	-0.340	0.230
2020/01/31 03:29:45.8	94.980	-0.340	-0.490	0.220
2020/01/31 03:29:45.9	95.000	-0.270	-0.630	0.220
2020/01/31 03:29:46.0	95.020	-0.200	-0.770	0.220
2020/01/31 03:29:46.1	95.060	-0.130	-0.910	0.220
2020/01/31 03:29:46.2	95.080	-0.050	-1.040	0.230
2020/01/31 03:29:46.3	95.090	0.020	-1.150	0.250
2020/01/31 03:29:46.4	95.100	0.090	-1.260	0.260
2020/01/31 03:29:46.5	95.110	0.160	-1.350	0.290
2020/01/31 03:29:46.6	95.120	0.230	-1.440	0.310
2020/01/31 03:29:46.7	95.130	0.290	-1.510	0.350
2020/01/31 03:29:46.8	95.130	0.350	-1.560	0.380
2020/01/31 03:29:46.9	95.140	0.410	-1.610	0.420
2020/01/31 03:29:47.0	95.140	0.460	-1.640	0.460
2020/01/31 03:29:47.1	95.140	0.500	-1.650	0.510
2020/01/31 03:29:47.2	95.130	0.540	-1.650	0.560
2020/01/31 03:29:47.3	95.130	0.570	-1.640	0.610
2020/01/31 03:29:47.4	95.130	0.600	-1.610	0.670
2020/01/31 03:29:47.5	95.120	0.620	-1.570	0.730
2020/01/31 03:29:47.6	95.120	0.630	-1.520	0.790
2020/01/31 03:29:47.7	95.120	0.630	-1.460	0.850
2020/01/31 03:29:47.8	95.110	0.630	-1.380	0.910
2020/01/31 03:29:47.9	95.110	0.620	-1.300	0.980
2020/01/31 03:29:48.0	95.100	0.610	-1.210	1.040
2020/01/31 03:29:48.1	95.100	0.590	-1.110	1.100
2020/01/31 03:29:48.2	95.100	0.560	-1.000	1.160
2020/01/31 03:29:48.3	95.090	0.530	-0.900	1.220
2020/01/31 03:29:48.4	95.090	0.490	-0.790	1.280
2020/01/31 03:29:48.5	95.080	0.450	-0.670	1.330
2020/01/31 03:29:48.6	95.080	0.410	-0.560	1.380
2020/01/31 03:29:48.7	95.070	0.360	-0.450	1.430
2020/01/31 03:29:48.8	95.070	0.310	-0.340	1.470
2020/01/31 03:29:48.9	95.060	0.260	-0.240	1.500
2020/01/31 03:29:49.0	95.060	0.210	-0.140	1.530
2020/01/31 03:29:49.1	95.030	0.150	-0.050	1.560
2020/01/31 03:29:49.2	95.030	0.100	0.040	1.580
2020/01/31 03:29:49.3	95.020	0.050	0.120	1.590
2020/01/31 03:29:49.4	95.020	-0.000	0.190	1.590
2020/01/31 03:29:49.5	95.010	-0.050	0.250	1.590
2020/01/31 03:29:49.6	95.010	-0.100	0.300	1.590
2020/01/31 03:29:49.7	95.000	-0.140	0.350	1.580
2020/01/31 03:29:49.8	95.000	-0.190	0.380	1.560
2020/01/31 03:29:49.9	94.990	-0.220	0.400	1.540
2020/01/31 03:29:50.0	94.990	-0.260	0.410	1.510
2020/01/31 03:29:50.1	94.980	-0.280	0.420	1.480
2020/01/31 03:29:50.2	94.970	-0.310	0.420	1.440
2020/01/31 03:29:50.3	94.960	-0.330	0.400	1.410
2020/01/31 03:29:50.4	94.960	-0.350	0.390	1.370
2020/01/31 03:29:50.5	94.950	-0.360	0.360	1.330
2020/01/31 03:29:50.6	94.950	-0.360	0.330	1.290
2020/01/31 03:29:50.7	94.950	-0.370	0.300	1.250
2020/01/31 03:29:50.8	94.940	-0.370	0.260	1.210
2020/01/31 03:29:50.9	94.940	-0.360	0.220	1.170
2020/01/31 03:29:51.0	94.930	-0.360	0.170	1.130
2020/01/31 03:29:51.1	94.920	-0.350	0.130	1.090
2020/01/31 03:29:51.2	94.920	-0.330	0.080	1.050
2020/01/31 03:29:51.3	94.920	-0.320	0.040	1.020
2020/01/31 03:29:51.4	94.910	-0.300	-0.000	0.990
2020/01/31 03:29:51.5	94.900	-0.280	-0.040	0.960
2020/01/31 03:29:51.6	94.890	-0.270	-0.080	0.940
2020/01/31 03:29:51.7	94.880	-0.240	-0.110	0.910
2020/01/31 03:29:51.8	94.870	-0.220	-0.150	0.890
2020/01/31 03:29:51.9	94.860	-0.200	-0.170	0.870
2020/01/31 03:29:52.0	94.850	-0.180	-0.200	0.850
2020/01/31 03:29:52.1	94.840	-0.160	-0.220	0.830
2020/01/31 03:29:52.2	94.830	-0.140	-0.230	0.810
2020/01/31 03:29:52.3	94.830	-0.120	-0.250	0.790
2020/01/31 03:29:52.4	94.820	-0.100	-0.260	0.770
2020/01/31 03:29:52.5	94.820	-0.090	-0.270	0.750
2020/01/31 03:29:52.6	94.810	-0.070	-0.270	0.720
2020/01/31 03:29:52.7	94.810	-0.050	-0.280	0.700
2020/01/31 03:29:52.8	94.810	-0.040	-0.280	0.680
2020/01/31 03:29:52.9	94.800	-0.020	-0.280	0.660
2020/01/31 03:29:53.0	94.810	-0.010	-0.280	0.640
2020/01/31 03:29:53.1	94.820	0.000	-0.280	0.610
2020/01/31 03:29:53.2	94.820	0.010	-0.270	0.590
2020/01/31 03:29:53.3	94.830	0.020	-0.270	0.570
2020/01/31 03:29:53.4	94.840	0.030	-0.260	0.550
2020/01/31 03:29:53.5	94.840	0.040	-0.260	0.520
2020/01/31 03:29:53.6	94.850	0.050	-0.260	0.500
2020/01/31 03:29:53.7	94.870	0.060	-0.250	0.480
2020/01/31 03:29:53.8	94.880	0.070	-0.250	0.460
2020/01/31 03:29:53.9	94.890	0.080	-0.250	0.450
2020/01/31 03:29:54.0	94.910	0.090	-0.250	0.430
2020/01/31 03:29:54.1	94.930	0.100	-0.260	0.410
2020/01/31 03:29:54.2	94.940	0.110	-0.260	0.400
2020/01/31 03:29:54.3	94.960	0.120	-0.270	0.390
2020/01/31 03:29:54.4	94.970	0.130	-0.270	0.380
2020/01/31 03:29:54.5	94.990	0.150	-0.280	0.380
2020/01/31 03:29:54.6	95.000	0.160	-0.290	0.370
2020/01/31 03:29:54.7	95.020	0.170	-0.310	0.370
2020/01/31 03:29:54.8	95.030	0.180	-0.320	0.370
2020/01/31 03:29:54.9	95.040	0.200	-0.340	0.380
2020/01/31 03:29:55.0	95.050	0.210	-0.350	0.380
2020/01/31 03:29:55.1	95.060	0.230	-0.370	0.390
2020/01/31 03:29:55.2	95.070	0.240	-0.390	0.400
2020/01/31 03:29:55.3	95.080	0.260	-0.400	0.410
2020/01/31 03:29:55.4	95.090	0.270	-0.420	0.420
2020/01/31 03:29:55.5	95.100	0.280	-0.440	0.430
2020/01/31 03:29:55.6	95.110	0.300	-0.450	0.440
2020/01/31 03:29:55.7	95.130	0.310	-0.460	0.460
2020/01/31 03:29:55.8	95.150	0.320	-0.470	0.470
2020/01/31 03:29:55.9	95.160	0.330	-0.470	0.480
2020/01/31 03:29:56.0	95.180	0.340	-0.480	0.500
2020/01/31 03:29:56.1	95.200	0.340	-0.480	0.510
2020/01/31 03:29:56.2	95.220	0.350	-0.470	0.520
2020/01/31 03:29:56.3	95.230	0.350	-0.460	0.540
2020/01/31 03:29:56.4	95.250	0.350	-0.450	0.560
2020/01/31 03:29:56.5	95.270	0.350	-0.430	0.580
2020/01/31 03:29:56.6	95.290	0.340	-0.410	0.600
2020/01/31 03:29:56.7	95.300	0.330	-0.380	0.620
2020/01/31 03:29:56.8	95.320	0.320	-0.350	0.650
2020/01/31 03:29:56.9	95.340	0.310	-0.320	0.680
2020/01/31 03:29:57.0	95.350	0.300	-0.280	0.710
2020/01/31 03:29:57.1	95.370	0.280	-0.230	0.740
2020/01/31 03:29:57.2	95.380	0.260	-0.180	0.770
2020/01/31 03:29:57.3	95.390	0.240	-0.130	0.810
2020/01/31 03:29:57.4	95.400	0.220	-0.080	0.840
2020/01/31 03:29:57.5	95.410	0.190	-0.030	0.880
2020/01/31 03:29:57.6	95.420	0.160	0.020	0.920
2020/01/31 03:29:57.7	95.420	0.130	0.080	0.960
2020/01/31 03:29:57.8	95.420	0.100	0.130	1.000
2020/01/31 03:29:57.9	95.420	0.070	0.180	1.040
2020/01/31 03:29:58.0	95.420	0.040	0.230	1.080
2020/01/31 03:29:58.1	95.420	0.010	0.280	1.120
2020/01/31 03:29:58.2	95.410	-0.020	0.320	1.160
2020/01/31 03:29:58.3	95.410	-0.050	0.360	1.200
2020/01/31 03:29:58.4	95.400	-0.090	0.400	1.230
2020/01/31 03:29:58.5	95.400	-0.120	0.430	1.270
2020/01/31 03:29:58.6	95.390	-0.150	0.450	1.300
2020/01/31 03:29:58.7	95.380	-0.170	0.470	1.330
2020/01/31 03:29:58.8	95.370	-0.200	0.480	1.360
2020/01/31 03:29:58.9	95.360	-0.220	0.480	1.380
2020/01/31 03:29:59.0	95.360	-0.250	0.480	1.400
2020/01/31 03:29:59.1	95.350	-0.260	0.470	1.420
2020/01/31 03:29:59.2	95.340	-0.280	0.440	1.430
2020/01/31 03:29:59.3	95.330	-0.290	0.420	1.440
2020/01/31 03:29:59.4	95.330	-0.300	0.380	1.440
2020/01/31 03:29:59.5	95.320	-0.310	0.330	1.440
2020/01/31 03:29:59.6	95.320	-0.310	0.280	1.430
2020/01/31 03:29:59.7	95.320	-0.310	0.220	1.420
2020/01/31 03:29:59.8	95.310	-0.310	0.150	1.410
2020/01/31 03:29:59.9	95.320	-0.300	0.080	1.380
2020/01/31 03:30:00.0	95.320	-0.290	-0.000	1.360
2020/01/31 03:30:00.1	95.320	-0.270	-0.080	1.330
2020/01/31 03:30:00.2	95.310	-0.260	-0.180	1.300
2020/01/31 03:30:00.3	95.310	-0.240	-0.260	1.270
2020/01/31 03:30:00.4	95.310	-0.220	-0.350	1.240
2020/01/31 03:30:00.5	95.310	-0.190	-0.440	1.210
2020/01/31 03:30:00.6	95.310	-0.170	-0.520	1.180
2020/01/31 03:30:00.7	95.310	-0.140	-0.600	1.160
2020/01/31 03:30:00.8	95.310	-0.110	-0.680	1.130
2020/01/31 03:30:00.9	95.300	-0.080	-0.750	1.110
2020/01/31 03:30:01.0	95.290	-0.060	-0.810	1.100
2020/01/31 03:30:01.1	95.280	-0.030	-0.870	1.080
2020/01/31 03:30:01.2	95.270	-0.000	-0.920	1.070
2020/01/31 03:30:01.3	95.260	0.020	-0.950	1.060
2020/01/31 03:30:01.4	95.240	0.040	-0.980	1.050
2020/01/31 03:30:01.5	95.230	0.060	-0.990	1.050
2020/01/31 03:30:01.6	95.210	0.080	-1.000	1.050
2020/01/31 03:30:01.7	95.190	0.100	-0.990	1.050
2020/01/31 03:30:01.8	95.170	0.110	-0.970	1.040
2020/01/31 03:30:01.9	95.160	0.120	-0.940	1.040
2020/01/31 03:30:02.0	95.140	0.120	-0.900	1.040
2020/01/31 03:30:02.1	95.130	0.120	-0.850	1.040
2020/01/31 03:30:02.2	95.110	0.120	-0.790	1.040
2020/01/31 03:30:02.3	95.100	0.120	-0.730	1.040
2020/01/31 03:30:02.4	95.090	0.110	-0.670	1.030
2020/01/31 03:30:02.5	95.080	0.090	-0.590	1.030
2020/01/31 03:30:02.6	95.070	0.080	-0.520	1.020
2020/01/31 03:30:02.7	95.060	0.060	-0.440	1.010
2020/01/31 03:30:02.8	95.050	0.040	-0.360	1.000
2020/01/31 03:30:02.9	95.050	0.020	-0.290	0.990
2020/01/31 03:30:03.0	95.050	-0.000	-0.210	0.980
2020/01/31 03:30:03.1	95.050	-0.030	-0.140	0.960
2020/01/31 03:30:03.2	95.050	-0.050	-0.080	0.940
2020/01/31 03:30:03.3	95.060	-0.070	-0.020	0.920
2020/01/31 03:30:03.4	95.060	-0.100	0.040	0.900
2020/01/31 03:30:03.5	95.070	-0.120	0.090	0.870
2020/01/31 03:30:03.6	95.080	-0.140	0.130	0.850
2020/01/31 03:30:03.7	95.080	-0.160	0.160	0.830
2020/01/31 03:30:03.8	95.090	-0.180	0.180	0.800
2020/01/31 03:30:03.9	95.100	-0.190	0.200	0.780
2020/01/31 03:30:04.0	95.110	-0.200	0.200	0.750
2020/01/31 03:30:04.1	95.120	-0.210	0.200	0.730
2020/01/31 03:30:04.2	95.130	-0.210	0.190	0.700
2020/01/31 03:30:04.3	95.140	-0.210	0.180	0.680
2020/01/31 03:30:04.4	95.150	-0.210	0.150	0.660
2020/01/31 03:30:04.5	95.160	-0.200	0.120	0.640
2020/01/31 03:30:04.6	95.170	-0.190	0.080	0.620
2020/01/31 03:30:04.7	95.180	-0.180	0.030	0.610
2020/01/31 03:30:04.8	95.190	-0.170	-0.020	0.590
2020/01/31 03:30:04.9	95.200	-0.150	-0.070	0.580
2020/01/31 03:30:05.0	95.210	-0.120	-0.120	0.560
2020/01/31 03:30:05.1	95.220	-0.100	-0.180	0.550
2020/01/31 03:30:05.2	95.230	-0.070	-0.240	0.540
2020/01/31 03:30:05.3	95.240	-0.040	-0.300	0.520
2020/01/31 03:30:05.4	95.250	-0.010	-0.360	0.510
2020/01/31 03:30:05.5	95.260	0.030	-0.420	0.500
2020/01/31 03:30:05.6	95.270	0.060	-0.470	0.490
2020/01/31 03:30:05.7	95.270	0.100	-0.520	0.490
2020/01/31 03:30:05.8	95.280	0.130	-0.570	0.480
2020/01/31 03:30:05.9	95.290	0.170	-0.610	0.480
2020/01/31 03:30:06.0	95.300	0.200	-0.640	0.480
2020/01/31 03:30:06.1	95.300	0.230	-0.680	0.480
2020/01/31 03:30:06.2	95.310	0.260	-0.700	0.490
2020/01/31 03:30:06.3	95.310	0.290	-0.710	0.490
2020/01/31 03:30:06.4	95.320	0.320	-0.720	0.500
2020/01/31 03:30:06.5	95.320	0.340	-0.720	0.520
2020/01/31 03:30:06.6	95.320	0.360	-0.720	0.530
2020/01/31 03:30:06.7	95.320	0.380	-0.710	0.550
2020/01/31 03:30:06.8	95.320	0.400	-0.690	0.570
2020/01/31 03:30:06.9	95.320	0.410	-0.660	0.590
2020/01/31 03:30:07.0	95.320	0.410	-0.630	0.610
2020/01/31 03:30:07.1	95.320	0.410	-0.590	0.630
2020/01/31 03:30:07.2	95.310	0.410	-0.540	0.650
2020/01/31 03:30:07.3	95.310	0.400	-0.490	0.670
2020/01/31 03:30:07.4	95.300	0.390	-0.440	0.690
2020/01/31 03:30:07.5	95.290	0.380	-0.380	0.720
2020/01/31 03:30:07.6	95.290	0.360	-0.320	0.730
2020/01/31 03:30:07.7	95.280	0.340	-0.250	0.750
2020/01/31 03:30:07.8	95.270	0.320	-0.190	0.770
2020/01/31 03:30:07.9	95.260	0.290	-0.120	0.790
2020/01/31 03:30:08.0	95.250	0.260	-0.060	0.800
2020/01/31 03:30:08.1	95.250	0.220	0.010	0.820
2020/01/31 03:30:08.2	95.240	0.190	0.080	0.830
2020/01/31 03:30:08.3	95.240	0.150	0.140	0.840
2020/01/31 03:30:08.4	95.230	0.110	0.200	0.850
2020/01/31 03:30:08.5	95.220	0.070	0.260	0.860
2020/01/31 03:30:08.6	95.220	0.030	0.310	0.860
2020/01/31 03:30:08.7	95.210	-0.010	0.360	0.870
2020/01/31 03:30:08.8	95.210	-0.060	0.400	0.880
2020/01/31 03:30:08.9	95.210	-0.100	0.440	0.890
2020/01/31 03:30:09.0	95.210	-0.140	0.470	0.900
2020/01/31 03:30:09.1	95.200	-0.180	0.500	0.900
2020/01/31 03:30:09.2	95.200	-0.210	0.510	0.910
2020/01/31 03:30:09.3	95.200	-0.250	0.520	0.920
2020/01/31 03:30:09.4	95.200	-0.280	0.530	0.930
2020/01/31 03:30:09.5	95.200	-0.310	0.520	0.940
2020/01/31 03:30:09.6	95.200	-0.340	0.510	0.950
2020/01/31 03:30:09.7	95.200	-0.360	0.480	0.960
2020/01/31 03:30:09.8	95.200	-0.380	0.450	0.980
2020/01/31 03:30:09.9	95.200	-0.390	0.410	0.990
2020/01/31 03:30:10.0	95.200	-0.400	0.360	1.000
2020/01/31 03:30:10.1	95.190	-0.410	0.310	1.010
2020/01/31 03:30:10.2	95.190	-0.410	0.250	1.020
2020/01/31 03:30:10.3	95.190	-0.410	0.180	1.030
2020/01/31 03:30:10.4	95.190	-0.400	0.100	1.040
2020/01/31 03:30:10.5	95.190	-0.390	0.020	1.050
2020/01/31 03:30:10.6	95.180	-0.370	-0.060	1.050
2020/01/31 03:30:10.7	95.180	-0.350	-0.150	1.060
2020/01/31 03:30:10.8	95.180	-0.330	-0.230	1.060
2020/01/31 03:30:10.9	95.170	-0.300	-0.320	1.070
2020/01/31 03:30:11.0	95.170	-0.270	-0.410	1.070
2020/01/31 03:30:11.1	95.160	-0.240	-0.500	1.070
2020/01/31 03:30:11.2	95.150	-0.210	-0.580	1.070
2020/01/31 03:30:11.3	95.140	-0.170	-0.660	1.070
2020/01/31 03:30:11.4	95.130	-0.140	-0.730	1.080
2020/01/31 03:30:11.5	95.120	-0.100	-0.790	1.080
2020/01/31 03:30:11.6	95.110	-0.060	-0.850	1.080
2020/01/31 03:30:11.7	95.100	-0.030	-0.900	1.090
2020/01/31 03:30:11.8	95.090	0.010	-0.940	1.090
2020/01/31 03:30:11.9	95.070	0.040	-0.970	1.100
2020/01/31 03:30:12.0	95.050	0.070	-0.990	1.100
2020/01/31 03:30:12.1	95.040	0.100	-1.010	1.110
2020/01/31 03:30:12.2	95.020	0.120	-1.010	1.110
2020/01/31 03:30:12.3	95.010	0.140	-0.990	1.120
2020/01/31 03:30:12.4	94.990	0.160	-0.970	1.130
2020/01/31 03:30:12.5	94.980	0.170	-0.940	1.130
2020/01/31 03:30:12.6	94.960	0.180	-0.900	1.130
2020/01/31 03:30:12.7	94.950	0.190	-0.860	1.140
2020/01/31 03:30:12.8	94.940	0.190	-0.800	1.140
2020/01/31 03:30:12.9	94.930	0.190	-0.740	1.140
2020/01/31 03:30:13.0	94.920	0.190	-0.670	1.140
2020/01/31 03:30:13.1	94.910	0.180	-0.590	1.140
2020/01/31 03:30:13.2	94.910	0.160	-0.520	1.140
2020/01/31 03:30:13.3	94.910	0.150	-0.440	1.140
2020/01/31 03:30:13.4	94.910	0.130	-0.360	1.140
2020/01/31 03:30:13.5	94.910	0.110	-0.280	1.140
2020/01/31 03:30:13.6	94.920	0.080	-0.200	1.130
2020/01/31 03:30:13.7	94.920	0.060	-0.120	1.120
2020/01/31 03:30:13.8	94.930	0.030	-0.050	1.110
2020/01/31 03:30:13.9	94.950	0.000	0.020	1.100
2020/01/31 03:30:14.0	94.960	-0.020	0.080	1.090
2020/01/31 03:30:14.1	94.980	-0.050	0.140	1.070
2020/01/31 03:30:14.2	95.000	-0.080	0.190	1.060
2020/01/31 03:30:14.3	95.020	-0.100	0.240	1.040
2020/01/31 03:30:14.4	95.040	-0.130	0.280	1.010
2020/01/31 03:30:14.5	95.070	-0.150	0.310	0.990
2020/01/31 03:30:14.6	95.100	-0.170	0.330	0.960
2020/01/31 03:30:14.7	95.120	-0.190	0.340	0.930
2020/01/31 03:30:14.8	95.150	-0.200	0.350	0.900
2020/01/31 03:30:14.9	95.180	-0.220	0.350	0.860
2020/01/31 03:30:15.0	95.210	-0.230	0.340	0.830
2020/01/31 03:30:15.1	95.240	-0.230	0.320	0.780
2020/01/31 03:30:15.2	95.270	-0.240	0.300	0.750
2020/01/31 03:30:15.3	95.310	-0.240	0.270	0.710
2020/01/31 03:30:15.4	95.340	-0.230	0.240	0.670
2020/01/31 03:30:15.5	95.360	-0.230	0.200	0.630
2020/01/31 03:30:15.6	95.390	-0.220	0.150	0.590
2020/01/31 03:30:15.7	95.420	-0.200	0.100	0.560
2020/01/31 03:30:15.8	95.450	-0.190	0.060	0.520
2020/01/31 03:30:15.9	95.480	-0.170	0.000	0.490
2020/01/31 03:30:16.0	95.500	-0.150	-0.050	0.470
2020/01/31 03:30:16.1	95.530	-0.130	-0.100	0.440
2020/01/31 03:30:16.2	95.550	-0.100	-0.150	0.420
2020/01/31 03:30:16.3	95.560	-0.080	-0.200	0.410
2020/01/31 03:30:16.4	95.580	-0.050	-0.250	0.400
2020/01/31 03:30:16.5	95.590	-0.030	-0.290	0.390
2020/01/31 03:30:16.6	95.600	-0.000	-0.320	0.400
2020/01/31 03:30:16.7	95.610	0.020	-0.360	0.400
2020/01/31 03:30:16.8	95.610	0.040	-0.380	0.410
2020/01/31 03:30:16.9	95.620	0.060	-0.400	0.430
2020/01/31 03:30:17.0	95.620	0.080	-0.420	0.440
2020/01/31 03:30:17.1	95.610	0.100	-0.430	0.470
2020/01/31 03:30:17.2	95.610	0.120	-0.430	0.490
2020/01/31 03:30:17.3	95.600	0.130	-0.430	0.520
2020/01/31 03:30:17.4	95.600	0.140	-0.420	0.550
2020/01/31 03:30:17.5	95.590	0.140	-0.400	0.580
2020/01/31 03:30:17.6	95.580	0.140	-0.380	0.610
2020/01/31 03:30:17.7	95.570	0.140	-0.350	0.640
2020/01/31 03:30:17.8	95.560	0.140	-0.320	0.670
2020/01/31 03:30:17.9	95.550	0.130	-0.280	0.700
2020/01/31 03:30:18.0	95.530	0.120	-0.250	0.730
2020/01/31 03:30:18.1	95.520	0.110	-0.210	0.760
2020/01/31 03:30:18.2	95.500	0.100	-0.160	0.790
2020/01/31 03:30:18.3	95.480	0.080	-0.120	0.820
2020/01/31 03:30:18.4	95.460	0.060	-0.080	0.840
2020/01/31 03:30:18.5	95.440	0.040	-0.040	0.870
2020/01/31 03:30:18.6	95.420	0.010	-0.000	0.890
2020/01/31 03:30:18.7	95.400	-0.010	0.030	0.910
2020/01/31 03:30:18.8	95.370	-0.030	0.070	0.920
2020/01/31 03:30:18.9	95.350	-0.060	0.090	0.930
2020/01/31 03:30:19.0	95.320	-0.080	0.120	0.940
2020/01/31 03:30:19.1	95.280	-0.110	0.130	0.950
2020/01/31 03:30:19.2	95.250	-0.130	0.150	0.960
2020/01/31 03:30:19.3	95.220	-0.150	0.150	0.960
2020/01/31 03:30:19.4	95.180	-0.170	0.150	0.960
2020/01/31 03:30:19.5	95.150	-0.190	0.150	0.950
2020/01/31 03:30:19.6	95.110	-0.210	0.130	0.950
2020/01/31 03:30:19.7	95.080	-0.220	0.110	0.940
2020/01/31 03:30:19.8	95.040	-0.230	0.090	0.930
2020/01/31 03:30:19.9	95.000	-0.240	0.050	0.920
2020/01/31 03:30:20.0	94.970	-0.240	0.010	0.900
2020/01/31 03:30:20.1	94.930	-0.240	-0.030	0.880
2020/01/31 03:30:20.2	94.900	-0.240	-0.080	0.860
2020/01/31 03:30:20.3	94.860	-0.230	-0.140	0.840
2020/01/31 03:30:20.4	94.830	-0.210	-0.200	0.820
2020/01/31 03:30:20.5	94.800	-0.200	-0.260	0.800
2020/01/31 03:30:20.6	94.780	-0.180	-0.330	0.780
2020/01/31 03:30:20.7	94.750	-0.150	-0.410	0.760
2020/01/31 03:30:20.8	94.730	-0.120	-0.480	0.730
2020/01/31 03:30:20.9	94.720	-0.090	-0.560	0.710
2020/01/31 03:30:21.0	94.700	-0.050	-0.640	0.690
2020/01/31 03:30:21.1	94.690	-0.010	-0.720	0.660
2020/01/31 03:30:21.2	94.680	0.040	-0.810	0.630
2020/01/31 03:30:21.3	94.680	0.080	-0.890	0.610
2020/01/31 03:30:21.4	94.680	0.130	-0.960	0.580
2020/01/31 03:30:21.5	94.690	0.180	-1.030	0.550
2020/01/31 03:30:21.6	94.700	0.230	-1.100	0.530
2020/01/31 03:30:21.7	94.710	0.280	-1.160	0.500
2020/01/31 03:30:21.8	94.720	0.340	-1.220	0.480
2020/01/31 03:30:21.9	94.730	0.390	-1.260	0.460
2020/01/31 03:30:22.0	94.750	0.430	-1.300	0.440
2020/01/31 03:30:22.1	94.780	0.480	-1.330	0.430
2020/01/31 03:30:22.2	94.800	0.520	-1.340	0.410
2020/01/31 03:30:22.3	94.820	0.560	-1.350	0.400
2020/01/31 03:30:22.4	94.840	0.590	-1.340	0.390
2020/01/31 03:30:22.5	94.860	0.620	-1.320	0.380
2020/01/31 03:30:22.6	94.890	0.650	-1.280	0.370
2020/01/31 03:30:22.7	94.910	0.660	-1.240	0.370
2020/01/31 03:30:22.8	94.930	0.670	-1.180	0.370
2020/01/31 03:30:22.9	94.960	0.680	-1.100	0.370
2020/01/31 03:30:23.0	94.980	0.680	-1.020	0.370
2020/01/31 03:30:23.1	94.990	0.670	-0.930	0.380
2020/01/31 03:30:23.2	95.000	0.650	-0.820	0.390
2020/01/31 03:30:23.3	95.020	0.630	-0.710	0.400
2020/01/31 03:30:23.4	95.040	0.610	-0.580	0.420
2020/01/31 03:30:23.5	95.050	0.570	-0.450	0.440
2020/01/31 03:30:23.6	95.070	0.530	-0.320	0.460
2020/01/31 03:30:23.7	95.080	0.490	-0.180	0.490
2020/01/31 03:30:23.8	95.090	0.440	-0.030	0.520
2020/01/31 03:30:23.9	95.090	0.380	0.110	0.560
2020/01/31 03:30:24.0	95.100	0.320	0.260	0.600
2020/01/31 03:30:24.1	95.100	0.260	0.400	0.640
2020/01/31 03:30:24.2	95.100	0.190	0.550	0.680
2020/01/31 03:30:24.3	95.090	0.120	0.690	0.720
2020/01/31 03:30:24.4	95.090	0.050	0.820	0.760
2020/01/31 03:30:24.5	95.080	-0.020	0.940	0.810
2020/01/31 03:30:24.6	95.070	-0.090	1.050	0.850
2020/01/31 03:30:24.7	95.050	-0.170	1.150	0.900
2020/01/31 03:30:24.8	95.030	-0.240	1.240	0.940
2020/01/31 03:30:24.9	95.010	-0.310	1.320	0.990
2020/01/31 03:30:25.0	94.990	-0.370	1.380	1.030
2020/01/31 03:30:25.1	94.970	-0.440	1.430	1.070
2020/01/31 03:30:25.2	94.950	-0.500	1.470	1.110
2020/01/31 03:30:25.3	94.930	-0.560	1.490	1.150
2020/01/31 03:30:25.4	94.900	-0.610	1.490	1.180
2020/01/31 03:30:25.5	94.880	-0.660	1.480	1.210
2020/01/31 03:30:25.6	94.850	-0.700	1.450	1.240
2020/01/31 03:30:25.7	94.830	-0.740	1.410	1.270
2020/01/31 03:30:25.8	94.800	-0.770	1.350	1.290
2020/01/31 03:30:25.9	94.780	-0.790	1.280	1.310
2020/01/31 03:30:26.0	94.760	-0.810	1.190	1.330
2020/01/31 03:30:26.1	94.730	-0.820	1.090	1.330
2020/01/31 03:30:26.2	94.720	-0.830	0.980	1.340
2020/01/31 03:30:26.3	94.700	-0.820	0.860	1.340
2020/01/31 03:30:26.4	94.690	-0.820	0.720	1.340
2020/01/31 03:30:26.5	94.680	-0.800	0.580	1.340
2020/01/31 03:30:26.6	94.670	-0.780	0.430	1.330
2020/01/31 03:30:26.7	94.660	-0.750	0.270	1.310
2020/01/31 03:30:26.8	94.660	-0.720	0.110	1.290
2020/01/31 03:30:26.9	94.660	-0.680	-0.060	1.270
2020/01/31 03:30:27.0	94.660	-0.630	-0.230	1.250
2020/01/31 03:30:27.1	94.670	-0.580	-0.400	1.220
2020/01/31 03:30:27.2	94.680	-0.520	-0.570	1.200
2020/01/31 03:30:27.3	94.680	-0.460	-0.740	1.170
2020/01/31 03:30:27.4	94.690	-0.400	-0.900	1.140
2020/01/31 03:30:27.5	94.700	-0.340	-1.060	1.110
2020/01/31 03:30:27.6	94.720	-0.270	-1.210	1.080
2020/01/31 03:30:27.7	94.730	-0.200	-1.350	1.060
2020/01/31 03:30:27.8	94.740	-0.130	-1.490	1.030
2020/01/31 03:30:27.9	94.750	-0.060	-1.600	1.000
2020/01/31 03:30:28.0	94.760	0.010	-1.710	0.980
2020/01/31 03:30:28.1	94.770	0.080	-1.810	0.950
2020/01/31 03:30:28.2	94.780	0.140	-1.880	0.930
2020/01/31 03:30:28.3	94.790	0.200	-1.930	0.900
2020/01/31 03:30:28.4	94.800	0.260	-1.970	0.880
2020/01/31 03:30:28.5	94.800	0.310	-1.980	0.860
2020/01/31 03:30:28.6	94.810	0.350	-1.980	0.850
2020/01/31 03:30:28.7	94.810	0.390	-1.960	0.830
2020/01/31 03:30:28.8	94.820	0.430	-1.920	0.810
2020/01/31 03:30:28.9	94.820	0.450	-1.860	0.800
2020/01/31 03:30:29.0	94.820	0.470	-1.780	0.790
2020/01/31 03:30:29.1	94.820	0.480	-1.670	0.780
2020/01/31 03:30:29.2	94.810	0.490	-1.560	0.770
2020/01/31 03:30:29.3	94.810	0.490	-1.440	0.770
2020/01/31 03:30:29.4	94.810	0.480	-1.300	0.770
2020/01/31 03:30:29.5	94.800	0.460	-1.160	0.770
2020/01/31 03:30:29.6	94.790	0.440	-1.000	0.780
2020/01/31 03:30:29.7	94.790	0.410	-0.840	0.790
2020/01/31 03:30:29.8	94.780	0.370	-0.670	0.800
2020/01/31 03:30:29.9	94.770	0.330	-0.500	0.820
2020/01/31 03:30:30.0	94.760	0.290	-0.330	0.840
2020/01/31 03:30:30.1	94.760	0.240	-0.160	0.870
2020/01/31 03:30:30.2	94.740	0.180	0.010	0.890
2020/01/31 03:30:30.3	94.730	0.130	0.170	0.920
2020/01/31 03:30:30.4	94.720	0.070	0.330	0.960
2020/01/31 03:30:30.5	94.710	0.020	0.470	0.990
2020/01/31 03:30:30.6	94.690	-0.040	0.610	1.030
2020/01/31 03:30:30.7	94.680	-0.100	0.740	1.070
2020/01/31 03:30:30.8	94.670	-0.150	0.850	1.100
2020/01/31 03:30:30.9	94.660	-0.200	0.940	1.140
2020/01/31 03:30:31.0	94.640	-0.250	1.030	1.180
2020/01/31 03:30:31.1	94.630	-0.290	1.090	1.220
2020/01/31 03:30:31.2	94.620	-0.330	1.140	1.250
2020/01/31 03:30:31.3	94.610	-0.370	1.180	1.280
2020/01/31 03:30:31.4	94.600	-0.400	1.190	1.300
2020/01/31 03:30:31.5	94.600	-0.420	1.190	1.330
2020/01/31 03:30:31.6	94.590	-0.440	1.170	1.340
2020/01/31 03:30:31.7	94.580	-0.450	1.140	1.350
2020/01/31 03:30:31.8	94.570	-0.450	1.090	1.360
2020/01/31 03:30:31.9	94.560	-0.450	1.030	1.360
2020/01/31 03:30:32.0	94.560	-0.450	0.960	1.350
2020/01/31 03:30:32.1	94.540	-0.440	0.880	1.340
2020/01/31 03:30:32.2	94.530	-0.420	0.790	1.330
2020/01/31 03:30:32.3	94.530	-0.400	0.690	1.310
2020/01/31 03:30:32.4	94.520	-0.380	0.580	1.280
2020/01/31 03:30:32.5	94.510	-0.350	0.470	1.250
2020/01/31 03:30:32.6	94.510	-0.320	0.360	1.220
2020/01/31 03:30:32.7	94.500	-0.280	0.240	1.190
2020/01/31 03:30:32.8	94.490	-0.250	0.130	1.160
2020/01/31 03:30:32.9	94.490	-0.210	0.010	1.120
2020/01/31 03:30:33.0	94.480	-0.160	-0.110	1.090
2020/01/31 03:30:33.1	94.470	-0.120	-0.220	1.050
2020/01/31 03:30:33.2	94.460	-0.070	-0.330	1.010
2020/01/31 03:30:33.3	94.450	-0.030	-0.440	0.980
2020/01/31 03:30:33.4	94.440	0.020	-0.540	0.960
2020/01/31 03:30:33.5	94.430	0.060	-0.630	0.930
2020/01/31 03:30:33.6	94.420	0.110	-0.720	0.910
2020/01/31 03:30:33.7	94.410	0.150	-0.810	0.890
2020/01/31 03:30:33.8	94.400	0.200	-0.880	0.880
2020/01/31 03:30:33.9	94.390	0.240	-0.950	0.870
2020/01/31 03:30:34.0	94.380	0.280	-1.000	0.860
2020/01/31 03:30:34.1	94.370	0.320	-1.060	0.850
2020/01/31 03:30:34.2	94.360	0.360	-1.100	0.850
2020/01/31 03:30:34.3	94.350	0.390	-1.130	0.850
2020/01/31 03:30:34.4	94.340	0.420	-1.150	0.860
2020/01/31 03:30:34.5	94.330	0.450	-1.170	0.860
2020/01/31 03:30:34.6	94.320	0.480	-1.170	0.870
2020/01/31 03:30:34.7	94.310	0.500	-1.170	0.870
2020/01/31 03:30:34.8	94.310	0.520	-1.160	0.880
2020/01/31 03:30:34.9	94.300	0.540	-1.140	0.890
2020/01/31 03:30:35.0	94.290	0.550	-1.120	0.900
2020/01/31 03:30:35.1	94.270	0.560	-1.080	0.910
2020/01/31 03:30:35.2	94.260	0.560	-1.050	0.910
2020/01/31 03:30:35.3	94.260	0.570	-1.000	0.920
2020/01/31 03:30:35.4	94.250	0.560	-0.960	0.930
2020/01/31 03:30:35.5	94.240	0.560	-0.910	0.940
2020/01/31 03:30:35.6	94.240	0.550	-0.850	0.940
2020/01/31 03:30:35.7	94.230	0.540	-0.790	0.950
2020/01/31 03:30:35.8	94.220	0.520	-0.730	0.950
2020/01/31 03:30:35.9	94.210	0.500	-0.660	0.960
2020/01/31 03:30:36.0	94.210	0.480	-0.600	0.960
2020/01/31 03:30:36.1	94.200	0.450	-0.530	0.960
2020/01/31 03:30:36.2	94.190	0.430	-0.460	0.960
2020/01/31 03:30:36.3	94.180	0.400	-0.390	0.960
2020/01/31 03:30:36.4	94.180	0.360	-0.320	0.950
2020/01/31 03:30:36.5	94.170	0.330	-0.250	0.950
2020/01/31 03:30:36.6	94.160	0.290	-0.180	0.950
2020/01/31 03:30:36.7	94.150	0.260	-0.110	0.950
2020/01/31 03:30:36.8	94.140	0.220	-0.040	0.950
2020/01/31 03:30:36.9	94.130	0.180	0.020	0.950
2020/01/31 03:30:37.0	94.110	0.140	0.090	0.950
2020/01/31 03:30:37.1	94.100	0.100	0.150	0.950
2020/01/31 03:30:37.2	94.090	0.070	0.210	0.960
2020/01/31 03:30:37.3	94.080	0.030	0.260	0.960
2020/01/31 03:30:37.4	94.070	-0.010	0.310	0.970
2020/01/31 03:30:37.5	94.060	-0.040	0.360	0.980
2020/01/31 03:30:37.6	94.050	-0.070	0.410	0.990
2020/01/31 03:30:37.7	94.040	-0.110	0.450	1.000
2020/01/31 03:30:37.8	94.040	-0.130	0.490	1.020
2020/01/31 03:30:37.9	94.030	-0.160	0.520	1.030
2020/01/31 03:30:38.0	94.030	-0.190	0.550	1.040
2020/01/31 03:30:38.1	94.030	-0.210	0.580	1.050
2020/01/31 03:30:38.2	94.040	-0.230	0.600	1.060
2020/01/31 03:30:38.3	94.050	-0.250	0.610	1.070
2020/01/31 03:30:38.4	94.060	-0.260	0.620	1.080
2020/01/31 03:30:38.5	94.080	-0.280	0.620	1.090
2020/01/31 03:30:38.6	94.090	-0.290	0.620	1.090
2020/01/31 03:30:38.7	94.110	-0.300	0.610	1.100
2020/01/31 03:30:38.8	94.140	-0.300	0.600	1.100
2020/01/31 03:30:38.9	94.160	-0.310	0.580	1.100
2020/01/31 03:30:39.0	94.190	-0.310	0.560	1.100
2020/01/31 03:30:39.1	94.220	-0.310	0.530	1.090
2020/01/31 03:30:39.2	94.250	-0.310	0.490	1.090
2020/01/31 03:30:39.3	94.280	-0.310	0.450	1.090
2020/01/31 03:30:39.4	94.310	-0.300	0.410	1.090
2020/01/31 03:30:39.5	94.340	-0.300	0.360	1.080
2020/01/31 03:30:39.6	94.370	-0.290	0.310	1.080
2020/01/31 03:30:39.7	94.400	-0.280	0.250	1.080
2020/01/31 03:30:39.8	94.430	-0.270	0.190	1.070
2020/01/31 03:30:39.9	94.450	-0.260	0.120	1.070
2020/01/31 03:30:40.0	94.480	-0.250	0.060	1.070
2020/01/31 03:30:40.1	94.490	-0.240	-0.020	1.070
2020/01/31 03:30:40.2	94.500	-0.220	-0.090	1.080
2020/01/31 03:30:40.3	94.510	-0.210	-0.160	1.080
2020/01/31 03:30:40.4	94.520	-0.190	-0.240	1.080
2020/01/31 03:30:40.5	94.520	-0.170	-0.310	1.090
2020/01/31 03:30:40.6	94.520	-0.160	-0.390	1.100
2020/01/31 03:30:40.7	94.510	-0.140	-0.460	1.110
2020/01/31 03:30:40.8	94.500	-0.120	-0.540	1.120
2020/01/31 03:30:40.9	94.490	-0.100	-0.610	1.140
2020/01/31 03:30:41.0	94.470	-0.090	-0.680	1.150
2020/01/31 03:30:41.1	94.450	-0.070	-0.740	1.160
2020/01/31 03:30:41.2	94.430	-0.050	-0.800	1.180
2020/01/31 03:30:41.3	94.400	-0.040	-0.850	1.190
2020/01/31 03:30:41.4	94.380	-0.020	-0.900	1.210
2020/01/31 03:30:41.5	94.350	-0.010	-0.930	1.220
2020/01/31 03:30:41.6	94.320	0.000	-0.960	1.240
2020/01/31 03:30:41.7	94.290	0.010	-0.990	1.260
2020/01/31 03:30:41.8	94.270	0.020	-1.000	1.270
2020/01/31 03:30:41.9	94.240	0.030	-1.000	1.290
2020/01/31 03:30:42.0	94.210	0.030	-1.000	1.310
2020/01/31 03:30:42.1	94.180	0.040	-0.980	1.330
2020/01/31 03:30:42.2	94.140	0.040	-0.960	1.350
2020/01/31 03:30:42.3	94.110	0.040	-0.930	1.370
2020/01/31 03:30:42.4	94.090	0.040	-0.900	1.390
2020/01/31 03:30:42.5	94.060	0.030	-0.850	1.410
2020/01/31 03:30:42.6	94.040	0.030	-0.800	1.430
2020/01/31 03:30:42.7	94.020	0.020	-0.740	1.450
2020/01/31 03:30:42.8	93.990	0.010	-0.680	1.470
2020/01/31 03:30:42.9	93.980	0.000	-0.610	1.480
2020/01/31 03:30:43.0	93.960	-0.010	-0.540	1.490
2020/01/31 03:30:43.1	93.940	-0.020	-0.470	1.500
2020/01/31 03:30:43.2	93.930	-0.030	-0.390	1.510
2020/01/31 03:30:43.3	93.920	-0.040	-0.320	1.510
2020/01/31 03:30:43.4	93.910	-0.050	-0.250	1.510
2020/01/31 03:30:43.5	93.900	-0.070	-0.180	1.510
2020/01/31 03:30:43.6	93.890	-0.080	-0.110	1.500
2020/01/31 03:30:43.7	93.880	-0.090	-0.050	1.480
2020/01/31 03:30:43.8	93.880	-0.100	0.010	1.460
2020/01/31 03:30:43.9	93.880	-0.110	0.070	1.440
2020/01/31 03:30:44.0	93.870	-0.110	0.120	1.410
2020/01/31 03:30:44.1	93.870	-0.120	0.160	1.380
2020/01/31 03:30:44.2	93.870	-0.120	0.190	1.340
2020/01/31 03:30:44.3	93.870	-0.120	0.220	1.300
2020/01/31 03:30:44.4	93.870	-0.120	0.240	1.260
2020/01/31 03:30:44.5	93.860	-0.120	0.250	1.220
2020/01/31 03:30:44.6	93.860	-0.120	0.260	1.180
2020/01/31 03:30:44.7	93.850	-0.110	0.250	1.130
2020/01/31 03:30:44.8	93.850	-0.100	0.240	1.090
2020/01/31 03:30:44.9	93.840	-0.080	0.230	1.050
2020/01/31 03:30:45.0	93.830	-0.070	0.200	1.010
2020/01/31 03:30:45.1	93.820	-0.050	0.180	0.960
2020/01/31 03:30:45.2	93.810	-0.030	0.140	0.930
2020/01/31 03:30:45.3	93.800	-0.010	0.100	0.890
2020/01/31 03:30:45.4	93.790	0.010	0.060	0.860
2020/01/31 03:30:45.5	93.780	0.030	0.010	0.820
2020/01/31 03:30:45.6	93.770	0.060	-0.040	0.790
2020/01/31 03:30:45.7	93.760	0.080	-0.090	0.760
2020/01/31 03:30:45.8	93.750	0.110	-0.140	0.730
2020/01/31 03:30:45.9	93.740	0.130	-0.200	0.710
2020/01/31 03:30:46.0	93.730	0.150	-0.250	0.680
2020/01/31 03:30:46.1	93.710	0.180	-0.310	0.660
2020/01/31 03:30:46.2	93.700	0.200	-0.360	0.640
2020/01/31 03:30:46.3	93.700	0.220	-0.410	0.620
2020/01/31 03:30:46.4	93.690	0.240	-0.460	0.600
2020/01/31 03:30:46.5	93.690	0.250	-0.500	0.590
2020/01/31 03:30:46.6	93.690	0.270	-0.540	0.570
2020/01/31 03:30:46.7	93.690	0.280	-0.580	0.560
2020/01/31 03:30:46.8	93.700	0.290	-0.610	0.560
2020/01/31 03:30:46.9	93.700	0.300	-0.640	0.550
2020/01/31 03:30:47.0	93.710	0.300	-0.660	0.550
2020/01/31 03:30:47.1	93.720	0.310	-0.670	0.540
2020/01/31 03:30:47.2	93.730	0.310	-0.690	0.550
2020/01/31 03:30:47.3	93.740	0.310	-0.690	0.550
2020/01/31 03:30:47.4	93.750	0.300	-0.700	0.550
2020/01/31 03:30:47.5	93.760	0.300	-0.690	0.560
2020/01/31 03:30:47.6	93.780	0.290	-0.690	0.570
2020/01/31 03:30:47.7	93.790	0.280	-0.670	0.580
2020/01/31 03:30:47.8	93.800	0.270	-0.660	0.600
2020/01/31 03:30:47.9	93.820	0.260	-0.630	0.610
2020/01/31 03:30:48.0	93.840	0.240	-0.600	0.630
2020/01/31 03:30:48.1	93.850	0.230	-0.570	0.650
2020/01/31 03:30:48.2	93.860	0.210	-0.540	0.670
2020/01/31 03:30:48.3	93.880	0.190	-0.500	0.690
2020/01/31 03:30:48.4	93.890	0.170	-0.460	0.710
2020/01/31 03:30:48.5	93.910	0.150	-0.410	0.720
2020/01/31 03:30:48.6	93.920	0.130	-0.360	0.740
2020/01/31 03:30:48.7	93.930	0.110	-0.300	0.760
2020/01/31 03:30:48.8	93.950	0.090	-0.250	0.770
2020/01/31 03:30:48.9	93.960	0.070	-0.190	0.790
2020/01/31 03:30:49.0	93.980	0.050	-0.130	0.800
2020/01/31 03:30:49.1	94.010	0.020	-0.070	0.820
2020/01/31 03:30:49.2	94.020	0.000	-0.010	0.830
2020/01/31 03:30:49.3	94.030	-0.020	0.050	0.840
2020/01/31 03:30:49.4	94.050	-0.040	0.100	0.860
2020/01/31 03:30:49.5	94.060	-0.060	0.150	0.870
2020/01/31 03:30:49.6	94.070	-0.080	0.200	0.880
2020/01/31 03:30:49.7	94.070	-0.100	0.240	0.890
2020/01/31 03:30:49.8	94.080	-0.110	0.280	0.900
2020/01/31 03:30:49.9	94.090	-0.120	0.310	0.910
2020/01/31 03:30:50.0	94.090	-0.140	0.340	0.930
2020/01/31 03:30:50.1	94.100	-0.150	0.360	0.940
2020/01/31 03:30:50.2	94.100	-0.150	0.380	0.960
2020/01/31 03:30:50.3	94.100	-0.160	0.390	0.980
2020/01/31 03:30:50.4	94.090	-0.160	0.390	1.000
2020/01/31 03:30:50.5	94.090	-0.160	0.390	1.020
2020/01/31 03:30:50.6	94.080	-0.150	0.380	1.040
2020/01/31 03:30:50.7	94.070	-0.150	0.360	1.070
2020/01/31 03:30:50.8	94.050	-0.140	0.340	1.090
2020/01/31 03:30:50.9	94.040	-0.130	0.320	1.120
2020/01/31 03:30:51.0	94.020	-0.120	0.290	1.140
2020/01/31 03:30:51.1	94.000	-0.110	0.260	1.170
2020/01/31 03:30:51.2	93.980	-0.090	0.220	1.190
2020/01/31 03:30:51.3	93.950	-0.080	0.180	1.210
2020/01/31 03:30:51.4	93.930	-0.060	0.140	1.230
2020/01/31 03:30:51.5	93.910	-0.040	0.100	1.250
2020/01/31 03:30:51.6	93.880	-0.020	0.060	1.260
2020/01/31 03:30:51.7	93.860	-0.010	0.020	1.270
2020/01/31 03:30:51.8	93.830	0.010	-0.020	1.270
2020/01/31 03:30:51.9	93.810	0.030	-0.060	1.270
2020/01/31 03:30:52.0	93.790	0.040	-0.090	1.270
2020/01/31 03:30:52.1	93.770	0.060	-0.130	1.270
2020/01/31 03:30:52.2	93.750	0.070	-0.160	1.250
2020/01/31 03:30:52.3	93.730	0.080	-0.190	1.240
2020/01/31 03:30:52.4	93.720	0.090	-0.220	1.230
2020/01/31 03:30:52.5	93.700	0.100	-0.240	1.210
2020/01/31 03:30:52.6	93.690	0.110	-0.270	1.190
2020/01/31 03:30:52.7	93.690	0.110	-0.280	1.170
2020/01/31 03:30:52.8	93.680	0.120	-0.300	1.150
2020/01/31 03:30:52.9	93.680	0.120	-0.320	1.120
2020/01/31 03:30:53.0	93.680	0.120	-0.330	1.100
2020/01/31 03:30:53.1	93.680	0.120	-0.340	1.070
2020/01/31 03:30:53.2	93.680	0.120	-0.350	1.050
2020/01/31 03:30:53.3	93.690	0.120	-0.360	1.030
2020/01/31 03:30:53.4	93.700	0.110	-0.370	1.000
2020/01/31 03:30:53.5	93.710	0.110	-0.380	0.980
2020/01/31 03:30:53.6	93.720	0.100	-0.390	0.960
2020/01/31 03:30:53.7	93.730	0.090	-0.400	0.930
2020/01/31 03:30:53.8	93.740	0.090	-0.410	0.910
2020/01/31 03:30:53.9	93.760	0.080	-0.420	0.890
2020/01/31 03:30:54.0	93.770	0.070	-0.430	0.880
2020/01/31 03:30:54.1	93.780	0.060	-0.450	0.860
2020/01/31 03:30:54.2	93.790	0.050	-0.460	0.840
2020/01/31 03:30:54.3	93.800	0.040	-0.470	0.830
2020/01/31 03:30:54.4	93.810	0.040	-0.480	0.820
2020/01/31 03:30:54.5	93.820	0.030	-0.490	0.810
2020/01/31 03:30:54.6	93.830	0.020	-0.500	0.810
2020/01/31 03:30:54.7	93.840	0.010	-0.510	0.800
2020/01/31 03:30:54.8	93.850	0.010	-0.520	0.800
2020/01/31 03:30:54.9	93.850	0.000	-0.530	0.790
2020/01/31 03:30:55.0	93.860	-0.010	-0.530	0.790
2020/01/31 03:30:55.1	93.860	-0.010	-0.540	0.790
2020/01/31 03:30:55.2	93.870	-0.020	-0.540	0.790
2020/01/31 03:30:55.3	93.880	-0.020	-0.530	0.800
2020/01/31 03:30:55.4	93.880	-0.020	-0.530	0.800
2020/01/31 03:30:55.5	93.890	-0.030	-0.520	0.810
2020/01/31 03:30:55.6	93.890	-0.030	-0.520	0.820
2020/01/31 03:30:55.7	93.900	-0.040	-0.500	0.830
2020/01/31 03:30:55.8	93.900	-0.040	-0.490	0.840
2020/01/31 03:30:55.9	93.910	-0.040	-0.470	0.850
2020/01/31 03:30:56.0	93.910	-0.050	-0.460	0.870
2020/01/31 03:30:56.1	93.920	-0.050	-0.440	0.890
2020/01/31 03:30:56.2	93.920	-0.050	-0.420	0.910
2020/01/31 03:30:56.3	93.930	-0.060	-0.390	0.930
2020/01/31 03:30:56.4	93.930	-0.060	-0.370	0.960
2020/01/31 03:30:56.5	93.940	-0.070	-0.350	0.990
2020/01/31 03:30:56.6	93.940	-0.070	-0.320	1.030
2020/01/31 03:30:56.7	93.950	-0.080	-0.300	1.060
2020/01/31 03:30:56.8	93.950	-0.080	-0.270	1.100
2020/01/31 03:30:56.9	93.950	-0.090	-0.250	1.140
2020/01/31 03:30:57.0	93.950	-0.100	-0.230	1.180
2020/01/31 03:30:57.1	93.950	-0.100	-0.210	1.220
2020/01/31 03:30:57.2	93.950	-0.110	-0.190	1.260
2020/01/31 03:30:57.3	93.950	-0.120	-0.170	1.300
2020/01/31 03:30:57.4	93.950	-0.130	-0.160	1.340
2020/01/31 03:30:57.5	93.950	-0.140	-0.140	1.370
2020/01/31 03:30:57.6	93.950	-0.140	-0.130	1.410
2020/01/31 03:30:57.7	93.960	-0.150	-0.120	1.430
2020/01/31 03:30:57.8	93.960	-0.160	-0.110	1.460
2020/01/31 03:30:57.9	93.960	-0.170	-0.100	1.480
2020/01/31 03:30:58.0	93.960	-0.180	-0.100	1.490
2020/01/31 03:30:58.1	93.960	-0.180	-0.090	1.500
2020/01/31 03:30:58.2	93.970	-0.190	-0.090	1.510
2020/01/31 03:30:58.3	93.970	-0.200	-0.090	1.510
2020/01/31 03:30:58.4	93.970	-0.200	-0.090	1.510
2020/01/31 03:30:58.5	93.970	-0.210	-0.090	1.510
2020/01/31 03:30:58.6	93.970	-0.210	-0.090	1.500
2020/01/31 03:30:58.7	93.970	-0.220	-0.090	1.480
2020/01/31 03:30:58.8	93.960	-0.220	-0.090	1.470
2020/01/31 03:30:58.9	93.960	-0.220	-0.100	1.450
2020/01/31 03:30:59.0	93.950	-0.220	-0.100	1.440
2020/01/31 03:30:59.1	93.940	-0.220	-0.110	1.420
2020/01/31 03:30:59.2	93.930	-0.210	-0.110	1.400
2020/01/31 03:30:59.3	93.920	-0.210	-0.120	1.380
2020/01/31 03:30:59.4	93.900	-0.200	-0.120	1.370
2020/01/31 03:30:59.5	93.880	-0.190	-0.130	1.350
2020/01/31 03:30:59.6	93.860	-0.190	-0.130	1.340
2020/01/31 03:30:59.7	93.840	-0.170	-0.140	1.320
2020/01/31 03:30:59.8	93.810	-0.160	-0.140	1.310
2020/01/31 03:30:59.9	93.790	-0.150	-0.150	1.300
2020/01/31 03:31:00.0	93.760	-0.130	-0.160	1.290
2020/01/31 03:31:00.1	93.710	-0.110	-0.160	1.270
2020/01/31 03:31:00.2	93.680	-0.090	-0.160	1.260
2020/01/31 03:31:00.3	93.650	-0.070	-0.170	1.250
2020/01/31 03:31:00.4	93.620	-0.050	-0.170	1.230
2020/01/31 03:31:00.5	93.590	-0.030	-0.180	1.220
2020/01/31 03:31:00.6	93.560	-0.010	-0.180	1.200
2020/01/31 03:31:00.7	93.540	0.020	-0.190	1.180
2020/01/31 03:31:00.8	93.510	0.040	-0.200	1.160
2020/01/31 03:31:00.9	93.490	0.070	-0.210	1.140
2020/01/31 03:31:01.0	93.470	0.090	-0.210	1.110
2020/01/31 03:31:01.1	93.450	0.120	-0.230	1.090
2020/01/31 03:31:01.2	93.440	0.140	-0.240	1.050
2020/01/31 03:31:01.3	93.430	0.170	-0.240	1.020
2020/01/31 03:31:01.4	93.420	0.190	-0.250	0.980
2020/01/31 03:31:01.5	93.410	0.220	-0.270	0.950
2020/01/31 03:31:01.6	93.410	0.240	-0.280	0.910
2020/01/31 03:31:01.7	93.410	0.260	-0.290	0.870
2020/01/31 03:31:01.8	93.410	0.290	-0.300	0.820
2020/01/31 03:31:01.9	93.410	0.310	-0.310	0.780
2020/01/31 03:31:02.0	93.420	0.330	-0.320	0.740
2020/01/31 03:31:02.1	93.420	0.340	-0.330	0.700
2020/01/31 03:31:02.2	93.430	0.360	-0.330	0.660
2020/01/31 03:31:02.3	93.430	0.370	-0.340	0.620
2020/01/31 03:31:02.4	93.440	0.380	-0.350	0.580
2020/01/31 03:31:02.5	93.440	0.390	-0.350	0.540
2020/01/31 03:31:02.6	93.450	0.400	-0.350	0.510
2020/01/31 03:31:02.7	93.450	0.400	-0.350	0.480
2020/01/31 03:31:02.8	93.460	0.400	-0.350	0.450
2020/01/31 03:31:02.9	93.460	0.400	-0.340	0.420
2020/01/31 03:31:03.0	93.460	0.400	-0.340	0.400
2020/01/31 03:31:03.1	93.490	0.390	-0.330	0.380
2020/01/31 03:31:03.2	93.490	0.380	-0.320	0.360
2020/01/31 03:31:03.3	93.490	0.370	-0.300	0.340
2020/01/31 03:31:03.4	93.500	0.360	-0.280	0.330
2020/01/31 03:31:03.5	93.500	0.340	-0.260	0.320
2020/01/31 03:31:03.6	93.510	0.320	-0.240	0.310
2020/01/31 03:31:03.7	93.520	0.300	-0.210	0.300
2020/01/31 03:31:03.8	93.520	0.270	-0.190	0.300
2020/01/31 03:31:03.9	93.530	0.250	-0.160	0.300
2020/01/31 03:31:04.0	93.540	0.220	-0.130	0.300
2020/01/31 03:31:04.1	93.560	0.200	-0.100	0.310
2020/01/31 03:31:04.2	93.570	0.170	-0.070	0.320
2020/01/31 03:31:04.3	93.580	0.140	-0.050	0.330
2020/01/31 03:31:04.4	93.590	0.110	-0.020	0.350
2020/01/31 03:31:04.5	93.610	0.080	0.000	0.370
2020/01/31 03:31:04.6	93.620	0.050	0.020	0.400
2020/01/31 03:31:04.7	93.640	0.020	0.040	0.420
2020/01/31 03:31:04.8	93.660	-0.000	0.060	0.460
2020/01/31 03:31:04.9	93.670	-0.030	0.070	0.490
2020/01/31 03:31:05.0	93.690	-0.050	0.080	0.530
2020/01/31 03:31:05.1	93.710	-0.080	0.090	0.580
2020/01/31 03:31:05.2	93.730	-0.100	0.090	0.620
2020/01/31 03:31:05.3	93.750	-0.120	0.090	0.670
2020/01/31 03:31:05.4	93.760	-0.130	0.090	0.730
2020/01/31 03:31:05.5	93.780	-0.150	0.080	0.780
2020/01/31 03:31:05.6	93.790	-0.160	0.070	0.840
2020/01/31 03:31:05.7	93.810	-0.170	0.050	0.890
2020/01/31 03:31:05.8	93.820	-0.180	0.030	0.950
2020/01/31 03:31:05.9	93.830	-0.190	0.010	1.010
2020/01/31 03:31:06.0	93.840	-0.190	-0.020	1.060
2020/01/31 03:31:06.1	93.840	-0.190	-0.050	1.120
2020/01/31 03:31:06.2	93.850	-0.190	-0.090	1.170
2020/01/31 03:31:06.3	93.850	-0.190	-0.120	1.220
2020/01/31 03:31:06.4	93.860	-0.180	-0.160	1.270
2020/01/31 03:31:06.5	93.860	-0.180	-0.200	1.320
2020/01/31 03:31:06.6	93.860	-0.170	-0.230	1.360
2020/01/31 03:31:06.7	93.870	-0.160	-0.270	1.400
2020/01/31 03:31:06.8	93.870	-0.150	-0.300	1.440
2020/01/31 03:31:06.9	93.860	-0.140	-0.340	1.470
2020/01/31 03:31:07.0	93.860	-0.130	-0.370	1.500
2020/01/31 03:31:07.1	93.860	-0.120	-0.400	1.520
2020/01/31 03:31:07.2	93.850	-0.110	-0.420	1.550
2020/01/31 03:31:07.3	93.850	-0.100	-0.450	1.570
2020/01/31 03:31:07.4	93.840	-0.090	-0.460	1.580
2020/01/31 03:31:07.5	93.830	-0.080	-0.480	1.600
2020/01/31 03:31:07.6	93.830	-0.080	-0.480	1.610
2020/01/31 03:31:07.7	93.820	-0.070	-0.490	1.610
2020/01/31 03:31:07.8	93.810	-0.070	-0.490	1.620
2020/01/31 03:31:07.9	93.800	-0.070	-0.480	1.620
2020/01/31 03:31:08.0	93.790	-0.070	-0.470	1.620
2020/01/31 03:31:08.1	93.760	-0.070	-0.460	1.620
2020/01/31 03:31:08.2	93.750	-0.070	-0.440	1.610
2020/01/31 03:31:08.3	93.740	-0.070	-0.410	1.600
2020/01/31 03:31:08.4	93.740	-0.080	-0.390	1.600
2020/01/31 03:31:08.5	93.730	-0.080	-0.360	1.580
2020/01/31 03:31:08.6	93.720	-0.090	-0.320	1.570
2020/01/31 03:31:08.7	93.710	-0.100	-0.290	1.550
2020/01/31 03:31:08.8	93.700	-0.110	-0.250	1.530
2020/01/31 03:31:08.9	93.690	-0.120	-0.210	1.510
2020/01/31 03:31:09.0	93.680	-0.130	-0.180	1.490
2020/01/31 03:31:09.1	93.670	-0.140	-0.140	1.460
2020/01/31 03:31:09.2	93.660	-0.150	-0.100	1.430
2020/01/31 03:31:09.3	93.650	-0.160	-0.060	1.400
2020/01/31 03:31:09.4	93.640	-0.170	-0.030	1.370
2020/01/31 03:31:09.5	93.630	-0.180	-0.000	1.330
2020/01/31 03:31:09.6	93.620	-0.180	0.030	1.300
2020/01/31 03:31:09.7	93.610	-0.190	0.050	1.260
2020/01/31 03:31:09.8	93.600	-0.200	0.070	1.220
2020/01/31 03:31:09.9	93.590	-0.200	0.090	1.180
2020/01/31 03:31:10.0	93.580	-0.200	0.100	1.140
2020/01/31 03:31:10.1	93.560	-0.200	0.100	1.100
2020/01/31 03:31:10.2	93.550	-0.200	0.110	1.060
2020/01/31 03:31:10.3	93.540	-0.200	0.100	1.010
2020/01/31 03:31:10.4	93.530	-0.190	0.090	0.970
2020/01/31 03:31:10.5	93.520	-0.180	0.080	0.930
2020/01/31 03:31:10.6	93.510	-0.170	0.060	0.880
2020/01/31 03:31:10.7	93.500	-0.160	0.030	0.840
2020/01/31 03:31:10.8	93.500	-0.150	0.000	0.790
2020/01/31 03:31:10.9	93.490	-0.130	-0.030	0.750
2020/01/31 03:31:11.0	93.480	-0.110	-0.070	0.710
2020/01/31 03:31:11.1	93.470	-0.090	-0.110	0.670
2020/01/31 03:31:11.2	93.460	-0.070	-0.160	0.630
2020/01/31 03:31:11.3	93.450	-0.050	-0.210	0.590
2020/01/31 03:31:11.4	93.440	-0.030	-0.270	0.560
2020/01/31 03:31:11.5	93.430	-0.000	-0.320	0.520
2020/01/31 03:31:11.6	93.420	0.020	-0.380	0.490
2020/01/31 03:31:11.7	93.410	0.040	-0.440	0.470
2020/01/31 03:31:11.8	93.400	0.060	-0.490	0.440
2020/01/31 03:31:11.9	93.390	0.090	-0.550	0.420
2020/01/31 03:31:12.0	93.380	0.110	-0.600	0.410
2020/01/31 03:31:12.1	93.380	0.130	-0.660	0.390
2020/01/31 03:31:12.2	93.380	0.150	-0.710	0.380
2020/01/31 03:31:12.3	93.370	0.170	-0.760	0.370
2020/01/31 03:31:12.4	93.370	0.180	-0.800	0.360
2020/01/31 03:31:12.5	93.370	0.200	-0.840	0.360
2020/01/31 03:31:12.6	93.370	0.210	-0.880	0.360
2020/01/31 03:31:12.7	93.370	0.220	-0.900	0.360
2020/01/31 03:31:12.8	93.370	0.230	-0.930	0.370
2020/01/31 03:31:12.9	93.370	0.240	-0.940	0.380
2020/01/31 03:31:13.0	93.380	0.240	-0.960	0.390
2020/01/31 03:31:13.1	93.380	0.250	-0.960	0.400
2020/01/31 03:31:13.2	93.390	0.250	-0.960	0.410
2020/01/31 03:31:13.3	93.400	0.250	-0.950	0.430
2020/01/31 03:31:13.4	93.410	0.250	-0.930	0.450
2020/01/31 03:31:13.5	93.410	0.250	-0.910	0.470
2020/01/31 03:31:13.6	93.420	0.250	-0.880	0.490
2020/01/31 03:31:13.7	93.430	0.240	-0.840	0.520
2020/01/31 03:31:13.8	93.440	0.240	-0.800	0.550
2020/01/31 03:31:13.9	93.440	0.230	-0.750	0.570
2020/01/31 03:31:14.0	93.450	0.220	-0.700	0.600
2020/01/31 03:31:14.1	93.450	0.210	-0.640	0.630
2020/01/31 03:31:14.2	93.460	0.200	-0.580	0.670
2020/01/31 03:31:14.3	93.460	0.190	-0.510	0.700
2020/01/31 03:31:14.4	93.470	0.170	-0.440	0.740
2020/01/31 03:31:14.5	93.470	0.160	-0.370	0.780
2020/01/31 03:31:14.6	93.470	0.140	-0.290	0.820
2020/01/31 03:31:14.7	93.470	0.120	-0.220	0.860
2020/01/31 03:31:14.8	93.470	0.110	-0.140	0.900
2020/01/31 03:31:14.9	93.470	0.090	-0.060	0.940
2020/01/31 03:31:15.0	93.470	0.070	0.020	0.980
2020/01/31 03:31:15.1	93.470	0.040	0.090	1.020
2020/01/31 03:31:15.2	93.470	0.020	0.170	1.060
2020/01/31 03:31:15.3	93.470	-0.000	0.240	1.100
2020/01/31 03:31:15.4	93.470	-0.020	0.310	1.140
2020/01/31 03:31:15.5	93.470	-0.050	0.370	1.170
2020/01/31 03:31:15.6	93.460	-0.070	0.430	1.210
2020/01/31 03:31:15.7	93.460	-0.100	0.490	1.240
2020/01/31 03:31:15.8	93.460	-0.120	0.540	1.260
2020/01/31 03:31:15.9	93.460	-0.140	0.580	1.290
2020/01/31 03:31:16.0	93.460	-0.170	0.620	1.310
2020/01/31 03:31:16.1	93.470	-0.190	0.650	1.330
2020/01/31 03:31:16.2	93.470	-0.210	0.670	1.340
2020/01/31 03:31:16.3	93.470	-0.230	0.680	1.360
2020/01/31 03:31:16.4	93.470	-0.250	0.690	1.360
2020/01/31 03:31:16.5	93.460	-0.260	0.690	1.370
2020/01/31 03:31:16.6	93.460	-0.280	0.680	1.370
2020/01/31 03:31:16.7	93.460	-0.290	0.670	1.370
2020/01/31 03:31:16.8	93.460	-0.300	0.640	1.370
2020/01/31 03:31:16.9	93.450	-0.300	0.610	1.370
2020/01/31 03:31:17.0	93.450	-0.310	0.570	1.360
2020/01/31 03:31:17.1	93.450	-0.310	0.530	1.340
2020/01/31 03:31:17.2	93.440	-0.300	0.480	1.330
2020/01/31 03:31:17.3	93.440	-0.300	0.420	1.310
2020/01/31 03:31:17.4	93.440	-0.290	0.360	1.290
2020/01/31 03:31:17.5	93.440	-0.280	0.300	1.270
2020/01/31 03:31:17.6	93.440	-0.260	0.230	1.250
2020/01/31 03:31:17.7	93.440	-0.240	0.160	1.220
2020/01/31 03:31:17.8	93.450	-0.220	0.100	1.190
2020/01/31 03:31:17.9	93.450	-0.200	0.030	1.160
2020/01/31 03:31:18.0	93.460	-0.170	-0.040	1.130
2020/01/31 03:31:18.1	93.460	-0.150	-0.110	1.100
2020/01/31 03:31:18.2	93.470	-0.120	-0.180	1.060
2020/01/31 03:31:18.3	93.480	-0.090	-0.240	1.030
2020/01/31 03:31:18.4	93.490	-0.060	-0.300	1.000
2020/01/31 03:31:18.5	93.500	-0.030	-0.360	0.970
2020/01/31 03:31:18.6	93.510	0.010	-0.420	0.940
2020/01/31 03:31:18.7	93.520	0.040	-0.470	0.910
2020/01/31 03:31:18.8	93.520	0.070	-0.510	0.880
2020/01/31 03:31:18.9	93.530	0.100	-0.550	0.860
2020/01/31 03:31:19.0	93.530	0.130	-0.590	0.830
2020/01/31 03:31:19.1	93.540	0.150	-0.620	0.810
2020/01/31 03:31:19.2	93.530	0.180	-0.650	0.790
2020/01/31 03:31:19.3	93.530	0.200	-0.670	0.770
2020/01/31 03:31:19.4	93.530	0.220	-0.690	0.750
2020/01/31 03:31:19.5	93.530	0.240	-0.700	0.740
2020/01/31 03:31:19.6	93.530	0.260	-0.710	0.730
2020/01/31 03:31:19.7	93.530	0.270	-0.720	0.720
2020/01/31 03:31:19.8	93.530	0.290	-0.720	0.710
2020/01/31 03:31:19.9	93.530	0.290	-0.710	0.700
2020/01/31 03:31:20.0	93.530	0.300	-0.700	0.700
2020/01/31 03:31:20.1	93.540	0.300	-0.690	0.690
2020/01/31 03:31:20.2	93.540	0.300	-0.670	0.690
2020/01/31 03:31:20.3	93.530	0.300	-0.650	0.700
2020/01/31 03:31:20.4	93.530	0.290	-0.630	0.700
2020/01/31 03:31:20.5	93.530	0.290	-0.610	0.710
2020/01/31 03:31:20.6	93.530	0.280	-0.580	0.720
2020/01/31 03:31:20.7	93.540	0.270	-0.550	0.720
2020/01/31 03:31:20.8	93.540	0.250	-0.520	0.740
2020/01/31 03:31:20.9	93.540	0.240	-0.490	0.750
2020/01/31 03:31:21.0	93.550	0.220	-0.460	0.760
2020/01/31 03:31:21.1	93.560	0.200	-0.430	0.780
2020/01/31 03:31:21.2	93.570	0.180	-0.400	0.790
2020/01/31 03:31:21.3	93.580	0.160	-0.370	0.810
2020/01/31 03:31:21.4	93.590	0.140	-0.340	0.830
2020/01/31 03:31:21.5	93.600	0.120	-0.310	0.840
2020/01/31 03:31:21.6	93.610	0.100	-0.280	0.860
2020/01/31 03:31:21.7	93.620	0.070	-0.250	0.870
2020/01/31 03:31:21.8	93.630	0.050	-0.220	0.890
2020/01/31 03:31:21.9	93.650	0.030	-0.190	0.900
2020/01/31 03:31:22.0	93.660	0.010	-0.170	0.920
2020/01/31 03:31:22.1	93.680	-0.020	-0.140	0.930
2020/01/31 03:31:22.2	93.710	-0.040	-0.120	0.940
2020/01/31 03:31:22.3	93.720	-0.060	-0.100	0.950
2020/01/31 03:31:22.4	93.740	-0.080	-0.070	0.960
2020/01/31 03:31:22.5	93.750	-0.100	-0.050	0.970
2020/01/31 03:31:22.6	93.760	-0.120	-0.030	0.990
2020/01/31 03:31:22.7	93.770	-0.130	-0.010	1.000
2020/01/31 03:31:22.8	93.780	-0.150	0.000	1.020
2020/01/31 03:31:22.9	93.780	-0.170	0.020	1.030
2020/01/31 03:31:23.0	93.780	-0.180	0.040	1.050
2020/01/31 03:31:23.1	93.770	-0.200	0.050	1.070
2020/01/31 03:31:23.2	93.770	-0.210	0.060	1.090
2020/01/31 03:31:23.3	93.760	-0.220	0.070	1.110
2020/01/31 03:31:23.4	93.750	-0.230	0.080	1.130
2020/01/31 03:31:23.5	93.730	-0.240	0.080	1.150
2020/01/31 03:31:23.6	93.710	-0.250	0.080	1.170
2020/01/31 03:31:23.7	93.690	-0.250	0.080	1.190
2020/01/31 03:31:23.8	93.670	-0.250	0.070	1.210
2020/01/31 03:31:23.9	93.650	-0.250	0.070	1.220
2020/01/31 03:31:24.0	93.620	-0.250	0.050	1.240
2020/01/31 03:31:24.1	93.580	-0.250	0.040	1.260
2020/01/31 03:31:24.2	93.550	-0.250	0.020	1.270
2020/01/31 03:31:24.3	93.520	-0.240	-0.000	1.290
2020/01/31 03:31:24.4	93.490	-0.230	-0.030	1.310
2020/01/31 03:31:24.5	93.460	-0.220	-0.060	1.320
2020/01/31 03:31:24.6	93.420	-0.200	-0.090	1.330
2020/01/31 03:31:24.7	93.390	-0.190	-0.120	1.340
2020/01/31 03:31:24.8	93.360	-0.170	-0.160	1.350
2020/01/31 03:31:24.9	93.330	-0.150	-0.200	1.360
2020/01/31 03:31:25.0	93.290	-0.130	-0.240	1.360
2020/01/31 03:31:25.1	93.260	-0.100	-0.290	1.370
2020/01/31 03:31:25.2	93.240	-0.080	-0.340	1.360
2020/01/31 03:31:25.3	93.220	-0.050	-0.380	1.360
2020/01/31 03:31:25.4	93.200	-0.020	-0.420	1.350
2020/01/31 03:31:25.5	93.180	0.010	-0.470	1.330
2020/01/31 03:31:25.6	93.160	0.040	-0.510	1.310
2020/01/31 03:31:25.7	93.150	0.080	-0.550	1.290
2020/01/31 03:31:25.8	93.150	0.110	-0.590	1.270
2020/01/31 03:31:25.9	93.140	0.140	-0.630	1.240
2020/01/31 03:31:26.0	93.140	0.180	-0.670	1.200
2020/01/31 03:31:26.1	93.150	0.210	-0.700	1.160
2020/01/31 03:31:26.2	93.150	0.250	-0.720	1.120
2020/01/31 03:31:26.3	93.160	0.280	-0.750	1.080
2020/01/31 03:31:26.4	93.170	0.320	-0.770	1.040
2020/01/31 03:31:26.5	93.190	0.350	-0.790	0.990
2020/01/31 03:31:26.6	93.200	0.380	-0.800	0.950
2020/01/31 03:31:26.7	93.220	0.410	-0.800	0.910
2020/01/31 03:31:26.8	93.240	0.440	-0.810	0.870
2020/01/31 03:31:26.9	93.260	0.470	-0.800	0.820
2020/01/31 03:31:27.0	93.280	0.500	-0.800	0.790
2020/01/31 03:31:27.1	93.280	0.520	-0.790	0.750
2020/01/31 03:31:27.2	93.290	0.540	-0.770	0.720
2020/01/31 03:31:27.3	93.310	0.550	-0.750	0.690
2020/01/31 03:31:27.4	93.320	0.560	-0.720	0.660
2020/01/31 03:31:27.5	93.340	0.570	-0.680	0.630
2020/01/31 03:31:27.6	93.350	0.580	-0.640	0.610
2020/01/31 03:31:27.7	93.360	0.580	-0.600	0.590
2020/01/31 03:31:27.8	93.370	0.570	-0.550	0.570
2020/01/31 03:31:27.9	93.380	0.560	-0.500	0.550
2020/01/31 03:31:28.0	93.390	0.550	-0.440	0.540
2020/01/31 03:31:28.1	93.400	0.520	-0.370	0.520
2020/01/31 03:31:28.2	93.410	0.500	-0.310	0.510
2020/01/31 03:31:28.3	93.420	0.470	-0.240	0.510
2020/01/31 03:31:28.4	93.420	0.440	-0.170	0.500
2020/01/31 03:31:28.5	93.430	0.400	-0.100	0.500
2020/01/31 03:31:28.6	93.430	0.350	-0.020	0.510
2020/01/31 03:31:28.7	93.430	0.300	0.050	0.510
2020/01/31 03:31:28.8	93.430	0.250	0.120	0.520
2020/01/31 03:31:28.9	93.430	0.200	0.200	0.530
2020/01/31 03:31:29.0	93.430	0.140	0.270	0.540
2020/01/31 03:31:29.1	93.430	0.080	0.340	0.560
2020/01/31 03:31:29.2	93.430	0.020	0.410	0.580
2020/01/31 03:31:29.3	93.420	-0.040	0.470	0.590
2020/01/31 03:31:29.4	93.420	-0.110	0.530	0.620
2020/01/31 03:31:29.5	93.420	-0.170	0.580	0.640
2020/01/31 03:31:29.6	93.420	-0.230	0.630	0.660
2020/01/31 03:31:29.7	93.420	-0.300	0.670	0.690
2020/01/31 03:31:29.8	93.420	-0.360	0.700	0.710
2020/01/31 03:31:29.9	93.410	-0.420	0.730	0.740
2020/01/31 03:31:30.0	93.410	-0.470	0.750	0.760
2020/01/31 03:31:30.1	93.410	-0.530	0.760	0.790
2020/01/31 03:31:30.2	93.410	-0.580	0.770	0.810
2020/01/31 03:31:30.3	93.410	-0.620	0.760	0.840
2020/01/31 03:31:30.4	93.410	-0.660	0.750	0.860
2020/01/31 03:31:30.5	93.420	-0.700	0.730	0.890
2020/01/31 03:31:30.6	93.430	-0.730	0.700	0.910
2020/01/31 03:31:30.7	93.430	-0.760	0.670	0.930
2020/01/31 03:31:30.8	93.440	-0.780	0.620	0.950
2020/01/31 03:31:30.9	93.450	-0.790	0.570	0.970
2020/01/31 03:31:31.0	93.450	-0.800	0.510	0.990
2020/01/31 03:31:31.1	93.480	-0.800	0.450	1.010
2020/01/31 03:31:31.2	93.480	-0.800	0.380	1.030
2020/01/31 03:31:31.3	93.490	-0.790	0.300	1.050
2020/01/31 03:31:31.4	93.500	-0.770	0.220	1.070
2020/01/31 03:31:31.5	93.500	-0.750	0.140	1.080
2020/01/31 03:31:31.6	93.500	-0.720	0.050	1.100
2020/01/31 03:31:31.7	93.510	-0.690	-0.040	1.120
2020/01/31 03:31:31.8	93.510	-0.650	-0.130	1.140
2020/01/31 03:31:31.9	93.510	-0.600	-0.230	1.150
2020/01/31 03:31:32.0	93.510	-0.560	-0.320	1.170
2020/01/31 03:31:32.1	93.500	-0.510	-0.410	1.190
2020/01/31 03:31:32.2	93.490	-0.450	-0.510	1.210
2020/01/31 03:31:32.3	93.480	-0.400	-0.600	1.220
2020/01/31 03:31:32.4	93.480	-0.340	-0.680	1.240
2020/01/31 03:31:32.5	93.470	-0.280	-0.770	1.250
2020/01/31 03:31:32.6	93.460	-0.220	-0.840	1.260
2020/01/31 03:31:32.7	93.450	-0.170	-0.920	1.280
2020/01/31 03:31:32.8	93.440	-0.110	-0.980	1.290
2020/01/31 03:31:32.9	93.430	-0.050	-1.040	1.300
2020/01/31 03:31:33.0	93.410	0.000	-1.100	1.310
2020/01/31 03:31:33.1	93.390	0.060	-1.140	1.320
2020/01/31 03:31:33.2	93.380	0.110	-1.180	1.320
2020/01/31 03:31:33.3	93.370	0.150	-1.210	1.330
2020/01/31 03:31:33.4	93.350	0.200	-1.230	1.340
2020/01/31 03:31:33.5	93.340	0.240	-1.240	1.350
2020/01/31 03:31:33.6	93.330	0.270	-1.240	1.350
2020/01/31 03:31:33.7	93.320	0.300	-1.230	1.360
2020/01/31 03:31:33.8	93.300	0.330	-1.220	1.370
2020/01/31 03:31:33.9	93.290	0.350	-1.200	1.370
2020/01/31 03:31:34.0	93.280	0.370	-1.170	1.370
2020/01/31 03:31:34.1	93.270	0.380	-1.130	1.380
2020/01/31 03:31:34.2	93.260	0.390	-1.080	1.380
2020/01/31 03:31:34.3	93.250	0.390	-1.030	1.380
2020/01/31 03:31:34.4	93.230	0.390	-0.970	1.370
2020/01/31 03:31:34.5	93.220	0.380	-0.910	1.370
2020/01/31 03:31:34.6	93.210	0.370	-0.840	1.370
2020/01/31 03:31:34.7	93.200	0.360	-0.760	1.360
2020/01/31 03:31:34.8	93.190	0.350	-0.680	1.350
2020/01/31 03:31:34.9	93.180	0.330	-0.600	1.340
2020/01/31 03:31:35.0	93.180	0.310	-0.520	1.330
2020/01/31 03:31:35.1	93.180	0.280	-0.430	1.310
2020/01/31 03:31:35.2	93.170	0.260	-0.350	1.290
2020/01/31 03:31:35.3	93.160	0.230	-0.270	1.270
2020/01/31 03:31:35.4	93.160	0.210	-0.180	1.250
2020/01/31 03:31:35.5	93.150	0.180	-0.100	1.220
2020/01/31 03:31:35.6	93.150	0.160	-0.030	1.190
2020/01/31 03:31:35.7	93.140	0.130	0.040	1.160
2020/01/31 03:31:35.8	93.140	0.110	0.110	1.120
2020/01/31 03:31:35.9	93.140	0.080	0.180	1.080
2020/01/31 03:31:36.0	93.140	0.060	0.230	1.040
2020/01/31 03:31:36.1	93.130	0.040	0.290	1.000
2020/01/31 03:31:36.2	93.140	0.020	0.330	0.950
2020/01/31 03:31:36.3	93.140	-0.000	0.370	0.910
2020/01/31 03:31:36.4	93.140	-0.020	0.410	0.860
2020/01/31 03:31:36.5	93.140	-0.030	0.440	0.810
2020/01/31 03:31:36.6	93.150	-0.050	0.460	0.770
2020/01/31 03:31:36.7	93.150	-0.060	0.480	0.720
2020/01/31 03:31:36.8	93.150	-0.070	0.490	0.670
2020/01/31 03:31:36.9	93.160	-0.070	0.490	0.620
2020/01/31 03:31:37.0	93.160	-0.080	0.490	0.580
2020/01/31 03:31:37.1	93.160	-0.080	0.480	0.530
2020/01/31 03:31:37.2	93.170	-0.080	0.460	0.490
2020/01/31 03:31:37.3	93.180	-0.080	0.440	0.450
2020/01/31 03:31:37.4	93.180	-0.080	0.410	0.410
2020/01/31 03:31:37.5	93.190	-0.070	0.370	0.370
2020/01/31 03:31:37.6	93.200	-0.060	0.330	0.330
2020/01/31 03:31:37.7	93.210	-0.050	0.280	0.300
2020/01/31 03:31:37.8	93.220	-0.040	0.230	0.260
2020/01/31 03:31:37.9	93.230	-0.020	0.170	0.230
2020/01/31 03:31:38.0	93.240	-0.010	0.110	0.200
2020/01/31 03:31:38.1	93.240	0.010	0.040	0.170
2020/01/31 03:31:38.2	93.250	0.040	-0.030	0.140
2020/01/31 03:31:38.3	93.270	0.060	-0.100	0.120
2020/01/31 03:31:38.4	93.280	0.090	-0.170	0.100
2020/01/31 03:31:38.5	93.300	0.110	-0.250	0.080
2020/01/31 03:31:38.6	93.310	0.140	-0.320	0.070
2020/01/31 03:31:38.7	93.320	0.170	-0.390	0.060
2020/01/31 03:31:38.8	93.330	0.200	-0.460	0.060
2020/01/31 03:31:38.9	93.340	0.220	-0.520	0.060
2020/01/31 03:31:39.0	93.340	0.250	-0.580	0.060
2020/01/31 03:31:39.1	93.350	0.280	-0.640	0.070
2020/01/31 03:31:39.2	93.360	0.300	-0.680	0.080
2020/01/31 03:31:39.3	93.360	0.330	-0.720	0.100
2020/01/31 03:31:39.4	93.360	0.350	-0.750	0.120
2020/01/31 03:31:39.5	93.360	0.360	-0.770	0.150
2020/01/31 03:31:39.6	93.370	0.380	-0.780	0.180
2020/01/31 03:31:39.7	93.370	0.390	-0.790	0.210
2020/01/31 03:31:39.8	93.370	0.390	-0.780	0.250
2020/01/31 03:31:39.9	93.370	0.390	-0.760	0.290
2020/01/31 03:31:40.0	93.360	0.390	-0.730	0.330
2020/01/31 03:31:40.1	93.360	0.390	-0.700	0.380
2020/01/31 03:31:40.2	93.360	0.370	-0.660	0.420
2020/01/31 03:31:40.3	93.360	0.360	-0.610	0.470
2020/01/31 03:31:40.4	93.350	0.340	-0.550	0.520
2020/01/31 03:31:40.5	93.350	0.310	-0.480	0.570
2020/01/31 03:31:40.6	93.350	0.280	-0.410	0.620
2020/01/31 03:31:40.7	93.340	0.250	-0.330	0.680
2020/01/31 03:31:40.8	93.340	0.210	-0.250	0.730
2020/01/31 03:31:40.9	93.330	0.170	-0.170	0.780
2020/01/31 03:31:41.0	93.330	0.120	-0.080	0.830
2020/01/31 03:31:41.1	93.330	0.080	0.010	0.880
2020/01/31 03:31:41.2	93.320	0.030	0.100	0.930
2020/01/31 03:31:41.3	93.320	-0.020	0.180	0.970
2020/01/31 03:31:41.4	93.320	-0.080	0.260	1.020
2020/01/31 03:31:41.5	93.310	-0.130	0.330	1.060
2020/01/31 03:31:41.6	93.310	-0.180	0.400	1.110
2020/01/31 03:31:41.7	93.310	-0.230	0.470	1.150
2020/01/31 03:31:41.8	93.310	-0.280	0.520	1.180
2020/01/31 03:31:41.9	93.310	-0.320	0.570	1.220
2020/01/31 03:31:42.0	93.310	-0.370	0.610	1.250
2020/01/31 03:31:42.1	93.320	-0.410	0.630	1.280
2020/01/31 03:31:42.2	93.320	-0.440	0.650	1.300
2020/01/31 03:31:42.3	93.330	-0.470	0.660	1.330
2020/01/31 03:31:42.4	93.340	-0.500	0.650	1.340
2020/01/31 03:31:42.5	93.340	-0.520	0.640	1.360
2020/01/31 03:31:42.6	93.350	-0.530	0.620	1.370
2020/01/31 03:31:42.7	93.360	-0.540	0.580	1.380
2020/01/31 03:31:42.8	93.370	-0.540	0.540	1.380
2020/01/31 03:31:42.9	93.390	-0.540	0.480	1.380
2020/01/31 03:31:43.0	93.400	-0.530	0.410	1.380
2020/01/31 03:31:43.1	93.420	-0.510	0.340	1.370
2020/01/31 03:31:43.2	93.440	-0.490	0.260	1.360
2020/01/31 03:31:43.3	93.450	-0.460	0.160	1.350
2020/01/31 03:31:43.4	93.460	-0.420	0.070	1.340
2020/01/31 03:31:43.5	93.480	-0.380	-0.040	1.320
2020/01/31 03:31:43.6	93.490	-0.330	-0.150	1.300
2020/01/31 03:31:43.7	93.510	-0.280	-0.260	1.280
2020/01/31 03:31:43.8	93.530	-0.220	-0.380	1.260
2020/01/31 03:31:43.9	93.540	-0.160	-0.490	1.240
2020/01/31 03:31:44.0	93.560	-0.090	-0.610	1.220
2020/01/31 03:31:44.1	93.550	-0.030	-0.730	1.200
2020/01/31 03:31:44.2	93.570	0.040	-0.840	1.180
2020/01/31 03:31:44.3	93.580	0.110	-0.950	1.170
2020/01/31 03:31:44.4	93.590	0.190	-1.050	1.150
2020/01/31 03:31:44.5	93.600	0.260	-1.150	1.140
2020/01/31 03:31:44.6	93.610	0.330	-1.230	1.130
2020/01/31 03:31:44.7	93.620	0.390	-1.310	1.120
2020/01/31 03:31:44.8	93.630	0.460	-1.370	1.110
2020/01/31 03:31:44.9	93.640	0.520	-1.420	1.100
2020/01/31 03:31:45.0	93.640	0.570	-1.460	1.100
2020/01/31 03:31:45.1	93.650	0.620	-1.480	1.100
2020/01/31 03:31:45.2	93.650	0.660	-1.490	1.090
2020/01/31 03:31:45.3	93.660	0.690	-1.480	1.090
2020/01/31 03:31:45.4	93.660	0.720	-1.450	1.090
2020/01/31 03:31:45.5	93.660	0.740	-1.410	1.090
2020/01/31 03:31:45.6	93.660	0.750	-1.350	1.080
2020/01/31 03:31:45.7	93.660	0.750	-1.280	1.080
2020/01/31 03:31:45.8	93.660	0.740	-1.190	1.080
2020/01/31 03:31:45.9	93.660	0.720	-1.090	1.080
2020/01/31 03:31:46.0	93.660	0.700	-0.970	1.080
2020/01/31 03:31:46.1	93.660	0.670	-0.850	1.080
2020/01/31 03:31:46.2	93.650	0.620	-0.710	1.080
2020/01/31 03:31:46.3	93.640	0.570	-0.570	1.080
2020/01/31 03:31:46.4	93.640	0.520	-0.420	1.080
2020/01/31 03:31:46.5	93.630	0.450	-0.260	1.080
2020/01/31 03:31:46.6	93.630	0.380	-0.100	1.080
2020/01/31 03:31:46.7	93.620	0.300	0.060	1.080
2020/01/31 03:31:46.8	93.620	0.220	0.220	1.080
2020/01/31 03:31:46.9	93.610	0.130	0.380	1.080
2020/01/31 03:31:47.0	93.600	0.040	0.530	1.080
2020/01/31 03:31:47.1	93.610	-0.050	0.680	1.070
2020/01/31 03:31:47.2	93.610	-0.140	0.820	1.070
2020/01/31 03:31:47.3	93.600	-0.240	0.940	1.070
2020/01/31 03:31:47.4	93.590	-0.330	1.060	1.060
2020/01/31 03:31:47.5	93.590	-0.420	1.160	1.050
2020/01/31 03:31:47.6	93.580	-0.510	1.250	1.040
2020/01/31 03:31:47.7	93.570	-0.590	1.320	1.030
2020/01/31 03:31:47.8	93.560	-0.670	1.380	1.020
2020/01/31 03:31:47.9	93.560	-0.740	1.420	1.000
2020/01/31 03:31:48.0	93.550	-0.810	1.440	0.990
2020/01/31 03:31:48.1	93.550	-0.870	1.450	0.960
2020/01/31 03:31:48.2	93.540	-0.920	1.430	0.940
2020/01/31 03:31:48.3	93.530	-0.970	1.400	0.910
2020/01/31 03:31:48.4	93.530	-1.000	1.350	0.890
2020/01/31 03:31:48.5	93.520	-1.030	1.290	0.860
2020/01/31 03:31:48.6	93.520	-1.050	1.200	0.830
2020/01/31 03:31:48.7	93.510	-1.060	1.100	0.790
2020/01/31 03:31:48.8	93.510	-1.050	0.990	0.760
2020/01/31 03:31:48.9	93.500	-1.040	0.870	0.730
2020/01/31 03:31:49.0	93.500	-1.020	0.730	0.700
2020/01/31 03:31:49.1	93.520	-0.990	0.570	0.660
2020/01/31 03:31:49.2	93.520	-0.950	0.420	0.630
2020/01/31 03:31:49.3	93.510	-0.910	0.260	0.600
2020/01/31 03:31:49.4	93.510	-0.850	0.090	0.570
2020/01/31 03:31:49.5	93.510	-0.790	-0.080	0.540
2020/01/31 03:31:49.6	93.510	-0.730	-0.250	0.510
2020/01/31 03:31:49.7	93.510	-0.650	-0.420	0.490
2020/01/31 03:31:49.8	93.510	-0.580	-0.590	0.470
2020/01/31 03:31:49.9	93.520	-0.500	-0.760	0.450
2020/01/31 03:31:50.0	93.520	-0.410	-0.920	0.430
2020/01/31 03:31:50.1	93.510	-0.320	-1.080	0.410
2020/01/31 03:31:50.2	93.520	-0.240	-1.220	0.390
2020/01/31 03:31:50.3	93.530	-0.150	-1.350	0.380
2020/01/31 03:31:50.4	93.540	-0.060	-1.470	0.360
2020/01/31 03:31:50.5	93.550	0.030	-1.580	0.350
2020/01/31 03:31:50.6	93.560	0.110	-1.680	0.340
2020/01/31 03:31:50.7	93.570	0.200	-1.760	0.340
2020/01/31 03:31:50.8	93.590	0.270	-1.830	0.330
2020/01/31 03:31:50.9	93.600	0.350	-1.880	0.330
2020/01/31 03:31:51.0	93.620	0.420	-1.910	0.330
2020/01/31 03:31:51.1	93.630	0.490	-1.940	0.330
2020/01/31 03:31:51.2	93.640	0.550	-1.940	0.340
2020/01/31 03:31:51.3	93.660	0.600	-1.920	0.350
2020/01/31 03:31:51.4	93.670	0.650	-1.900	0.370
2020/01/31 03:31:51.5	93.670	0.690	-1.850	0.390
2020/01/31 03:31:51.6	93.680	0.720	-1.790	0.410
2020/01/31 03:31:51.7	93.690	0.740	-1.710	0.440
2020/01/31 03:31:51.8	93.690	0.760	-1.630	0.460
2020/01/31 03:31:51.9	93.700	0.770	-1.530	0.490
2020/01/31 03:31:52.0	93.700	0.780	-1.420	0.520
2020/01/31 03:31:52.1	93.700	0.770	-1.300	0.560
2020/01/31 03:31:52.2	93.700	0.760	-1.170	0.590
2020/01/31 03:31:52.3	93.700	0.740	-1.030	0.620
2020/01/31 03:31:52.4	93.700	0.720	-0.890	0.660
2020/01/31 03:31:52.5	93.700	0.690	-0.740	0.690
2020/01/31 03:31:52.6	93.700	0.650	-0.590	0.710
2020/01/31 03:31:52.7	93.690	0.610	-0.440	0.740
2020/01/31 03:31:52.8	93.690	0.570	-0.290	0.770
2020/01/31 03:31:52.9	93.690	0.520	-0.150	0.790
2020/01/31 03:31:53.0	93.680	0.460	-0.000	0.810
2020/01/31 03:31:53.1	93.680	0.410	0.140	0.830
2020/01/31 03:31:53.2	93.680	0.350	0.280	0.840
2020/01/31 03:31:53.3	93.680	0.290	0.400	0.850
2020/01/31 03:31:53.4	93.670	0.230	0.520	0.850
2020/01/31 03:31:53.5	93.670	0.170	0.630	0.850
2020/01/31 03:31:53.6	93.670	0.120	0.730	0.850
2020/01/31 03:31:53.7	93.660	0.060	0.820	0.850
2020/01/31 03:31:53.8	93.660	0.000	0.890	0.850
2020/01/31 03:31:53.9	93.650	-0.050	0.960	0.840
2020/01/31 03:31:54.0	93.650	-0.100	1.010	0.830
2020/01/31 03:31:54.1	93.650	-0.150	1.050	0.820
2020/01/31 03:31:54.2	93.640	-0.190	1.080	0.810
2020/01/31 03:31:54.3	93.640	-0.230	1.090	0.800
2020/01/31 03:31:54.4	93.640	-0.260	1.100	0.780
2020/01/31 03:31:54.5	93.630	-0.280	1.090	0.770
2020/01/31 03:31:54.6	93.630	-0.310	1.070	0.760
2020/01/31 03:31:54.7	93.630	-0.320	1.040	0.760
2020/01/31 03:31:54.8	93.620	-0.330	1.000	0.750
2020/01/31 03:31:54.9	93.620	-0.340	0.960	0.740
2020/01/31 03:31:55.0	93.610	-0.340	0.900	0.740
2020/01/31 03:31:55.1	93.580	-0.330	0.840	0.730
2020/01/31 03:31:55.2	93.580	-0.320	0.770	0.730
2020/01/31 03:31:55.3	93.570	-0.310	0.690	0.740
2020/01/31 03:31:55.4	93.560	-0.290	0.610	0.740
2020/01/31 03:31:55.5	93.560	-0.260	0.520	0.740
2020/01/31 03:31:55.6	93.550	-0.240	0.440	0.740
2020/01/31 03:31:55.7	93.540	-0.210	0.350	0.740
2020/01/31 03:31:55.8	93.530	-0.170	0.250	0.750
2020/01/31 03:31:55.9	93.530	-0.140	0.160	0.750
2020/01/31 03:31:56.0	93.520	-0.100	0.070	0.740
2020/01/31 03:31:56.1	93.510	-0.070	-0.030	0.740
2020/01/31 03:31:56.2	93.510	-0.030	-0.120	0.730
2020/01/31 03:31:56.3	93.500	0.000	-0.200	0.720
2020/01/31 03:31:56.4	93.500	0.040	-0.280	0.710
2020/01/31 03:31:56.5	93.500	0.070	-0.360	0.690
2020/01/31 03:31:56.6	93.500	0.110	-0.430	0.670
2020/01/31 03:31:56.7	93.500	0.140	-0.500	0.650
2020/01/31 03:31:56.8	93.500	0.160	-0.560	0.620
2020/01/31 03:31:56.9	93.510	0.190	-0.620	0.600
2020/01/31 03:31:57.0	93.510	0.210	-0.660	0.570
2020/01/31 03:31:57.1	93.510	0.230	-0.710	0.540
2020/01/31 03:31:57.2	93.520	0.250	-0.740	0.510
2020/01/31 03:31:57.3	93.530	0.260	-0.770	0.480
2020/01/31 03:31:57.4	93.540	0.270	-0.790	0.460
2020/01/31 03:31:57.5	93.560	0.280	-0.800	0.430
2020/01/31 03:31:57.6	93.570	0.280	-0.800	0.410
2020/01/31 03:31:57.7	93.590	0.280	-0.800	0.400
2020/01/31 03:31:57.8	93.600	0.280	-0.790	0.380
2020/01/31 03:31:57.9	93.620	0.270	-0.770	0.370
2020/01/31 03:31:58.0	93.630	0.270	-0.740	0.360
2020/01/31 03:31:58.1	93.640	0.250	-0.710	0.360
2020/01/31 03:31:58.2	93.650	0.240	-0.670	0.360
2020/01/31 03:31:58.3	93.670	0.220	-0.630	0.360
2020/01/31 03:31:58.4	93.680	0.210	-0.590	0.360
2020/01/31 03:31:58.5	93.690	0.190	-0.550	0.370
2020/01/31 03:31:58.6	93.710	0.170	-0.500	0.380
2020/01/31 03:31:58.7	93.720	0.150	-0.450	0.390
2020/01/31 03:31:58.8	93.730	0.130	-0.400	0.400
2020/01/31 03:31:58.9	93.740	0.110	-0.350	0.410
2020/01/31 03:31:59.0	93.760	0.090	-0.310	0.420
2020/01/31 03:31:59.1	93.770	0.070	-0.260	0.430
2020/01/31 03:31:59.2	93.790	0.050	-0.220	0.440
2020/01/31 03:31:59.3	93.800	0.030	-0.180	0.460
2020/01/31 03:31:59.4	93.820	0.020	-0.140	0.470
2020/01/31 03:31:59.5	93.830	0.000	-0.110	0.480
2020/01/31 03:31:59.6	93.850	-0.010	-0.080	0.490
2020/01/31 03:31:59.7	93.870	-0.020	-0.060	0.500
2020/01/31 03:31:59.8	93.890	-0.020	-0.050	0.510
2020/01/31 03:31:59.9	93.910	-0.030	-0.040	0.520
2020/01/31 03:32:00.0	93.930	-0.030	-0.030	0.530
2020/01/31 03:32:00.1	93.950	-0.030	-0.030	0.550
2020/01/31 03:32:00.2	93.960	-0.020	-0.040	0.560
2020/01/31 03:32:00.3	93.980	-0.010	-0.060	0.580
2020/01/31 03:32:00.4	94.000	-0.000	-0.070	0.590
2020/01/31 03:32:00.5	94.020	0.010	-0.100	0.610
2020/01/31 03:32:00.6	94.040	0.030	-0.130	0.630
2020/01/31 03:32:00.7	94.060	0.050	-0.160	0.650
2020/01/31 03:32:00.8	94.080	0.070	-0.190	0.670
2020/01/31 03:32:00.9	94.090	0.090	-0.230	0.700
2020/01/31 03:32:01.0	94.110	0.110	-0.270	0.720
2020/01/31 03:32:01.1	94.130	0.130	-0.310	0.740
2020/01/31 03:32:01.2	94.150	0.150	-0.350	0.770
2020/01/31 03:32:01.3	94.160	0.170	-0.390	0.790
2020/01/31 03:32:01.4	94.180	0.190	-0.430	0.820
2020/01/31 03:32:01.5	94.200	0.210	-0.460	0.840
2020/01/31 03:32:01.6	94.210	0.220	-0.490	0.870
2020/01/31 03:32:01.7	94.220	0.230	-0.520	0.900
2020/01/31 03:32:01.8	94.230	0.240	-0.540	0.930
2020/01/31 03:32:01.9	94.240	0.250	-0.550	0.960
2020/01/31 03:32:02.0	94.250	0.250	-0.560	1.000
2020/01/31 03:32:02.1	94.250	0.250	-0.560	1.030
2020/01/31 03:32:02.2	94.250	0.240	-0.560	1.070
2020/01/31 03:32:02.3	94.250	0.230	-0.550	1.110
2020/01/31 03:32:02.4	94.250	0.220	-0.540	1.150
2020/01/31 03:32:02.5	94.240	0.200	-0.510	1.190
2020/01/31 03:32:02.6	94.230	0.180	-0.490	1.230
2020/01/31 03:32:02.7	94.210	0.150	-0.450	1.270
2020/01/31 03:32:02.8	94.200	0.120	-0.420	1.310
2020/01/31 03:32:02.9	94.180	0.080	-0.370	1.360
2020/01/31 03:32:03.0	94.160	0.050	-0.330	1.400
2020/01/31 03:32:03.1	94.150	0.000	-0.280	1.440
2020/01/31 03:32:03.2	94.120	-0.040	-0.230	1.490
2020/01/31 03:32:03.3	94.100	-0.080	-0.180	1.530
2020/01/31 03:32:03.4	94.070	-0.130	-0.120	1.560
2020/01/31 03:32:03.5	94.040	-0.180	-0.070	1.600
2020/01/31 03:32:03.6	94.010	-0.230	-0.020	1.630
2020/01/31 03:32:03.7	93.980	-0.280	0.030	1.660
2020/01/31 03:32:03.8	93.960	-0.330	0.080	1.680
2020/01/31 03:32:03.9	93.930	-0.380	0.130	1.700
2020/01/31 03:32:04.0	93.900	-0.420	0.170	1.710
2020/01/31 03:32:04.1	93.880	-0.470	0.200	1.710
2020/01/31 03:32:04.2	93.850	-0.510	0.240	1.710
2020/01/31 03:32:04.3	93.830	-0.550	0.260	1.700
2020/01/31 03:32:04.4	93.820	-0.580	0.290	1.690
2020/01/31 03:32:04.5	93.800	-0.620	0.300	1.670
2020/01/31 03:32:04.6	93.790	-0.640	0.310	1.650
2020/01/31 03:32:04.7	93.780	-0.670	0.310	1.620
2020/01/31 03:32:04.8	93.780	-0.690	0.310	1.580
2020/01/31 03:32:04.9	93.780	-0.700	0.300	1.540
2020/01/31 03:32:05.0	93.780	-0.710	0.280	1.500
2020/01/31 03:32:05.1	93.790	-0.710	0.260	1.450
2020/01/31 03:32:05.2	93.790	-0.700	0.230	1.410
2020/01/31 03:32:05.3	93.800	-0.700	0.190	1.360
2020/01/31 03:32:05.4	93.820	-0.680	0.150	1.310
2020/01/31 03:32:05.5	93.830	-0.660	0.110	1.260
2020/01/31 03:32:05.6	93.850	-0.640	0.060	1.210
2020/01/31 03:32:05.7	93.860	-0.610	0.010	1.160
2020/01/31 03:32:05.8	93.880	-0.570	-0.040	1.110
2020/01/31 03:32:05.9	93.900	-0.530	-0.090	1.060
2020/01/31 03:32:06.0	93.920	-0.490	-0.150	1.010
2020/01/31 03:32:06.1	93.930	-0.450	-0.200	0.960
2020/01/31 03:32:06.2	93.950	-0.400	-0.250	0.910
2020/01/31 03:32:06.3	93.970	-0.350	-0.300	0.860
2020/01/31 03:32:06.4	93.990	-0.300	-0.350	0.810
2020/01/31 03:32:06.5	94.010	-0.250	-0.390	0.770
2020/01/31 03:32:06.6	94.030	-0.190	-0.430	0.720
2020/01/31 03:32:06.7	94.040	-0.140	-0.470	0.680
2020/01/31 03:32:06.8	94.060	-0.080	-0.500	0.630
2020/01/31 03:32:06.9	94.070	-0.030	-0.530	0.590
2020/01/31 03:32:07.0	94.080	0.020	-0.550	0.550
2020/01/31 03:32:07.1	94.090	0.080	-0.570	0.510
2020/01/31 03:32:07.2	94.080	0.130	-0.590	0.460
2020/01/31 03:32:07.3	94.080	0.170	-0.600	0.430
2020/01/31 03:32:07.4	94.080	0.220	-0.610	0.390
2020/01/31 03:32:07.5	94.090	0.260	-0.610	0.360
2020/01/31 03:32:07.6	94.090	0.300	-0.610	0.320
2020/01/31 03:32:07.7	94.090	0.340	-0.600	0.300
2020/01/31 03:32:07.8	94.080	0.380	-0.590	0.270
2020/01/31 03:32:07.9	94.080	0.410	-0.580	0.240
2020/01/31 03:32:08.0	94.080	0.440	-0.570	0.220
2020/01/31 03:32:08.1	94.070	0.460	-0.550	0.210
2020/01/31 03:32:08.2	94.070	0.480	-0.530	0.190
2020/01/31 03:32:08.3	94.060	0.500	-0.500	0.180
2020/01/31 03:32:08.4	94.060	0.520	-0.480	0.170
2020/01/31 03:32:08.5	94.060	0.530	-0.450	0.170
2020/01/31 03:32:08.6	94.060	0.540	-0.430	0.170
2020/01/31 03:32:08.7	94.060	0.550	-0.400	0.180
2020/01/31 03:32:08.8	94.060	0.550	-0.370	0.180
2020/01/31 03:32:08.9	94.060	0.550	-0.340	0.200
2020/01/31 03:32:09.0	94.060	0.550	-0.310	0.210
2020/01/31 03:32:09.1	94.060	0.550	-0.280	0.230
2020/01/31 03:32:09.2	94.070	0.540	-0.250	0.250
2020/01/31 03:32:09.3	94.070	0.530	-0.230	0.270
2020/01/31 03:32:09.4	94.070	0.520	-0.200	0.300
2020/01/31 03:32:09.5	94.080	0.510	-0.170	0.320
2020/01/31 03:32:09.6	94.090	0.500	-0.150	0.350
2020/01/31 03:32:09.7	94.090	0.480	-0.120	0.370
2020/01/31 03:32:09.8	94.100	0.470	-0.100	0.400
2020/01/31 03:32:09.9	94.110	0.450	-0.080	0.420
2020/01/31 03:32:10.0	94.120	0.430	-0.060	0.440
2020/01/31 03:32:10.1	94.130	0.410	-0.040	0.460
2020/01/31 03:32:10.2	94.130	0.380	-0.020	0.470
2020/01/31 03:32:10.3	94.140	0.360	-0.000	0.490
2020/01/31 03:32:10.4	94.150	0.340	0.010	0.500
2020/01/31 03:32:10.5	94.160	0.310	0.030	0.510
2020/01/31 03:32:10.6	94.170	0.290	0.040	0.510
2020/01/31 03:32:10.7	94.180	0.260	0.050	0.520
2020/01/31 03:32:10.8	94.190	0.230	0.060	0.520
2020/01/31 03:32:10.9	94.200	0.200	0.070	0.520
2020/01/31 03:32:11.0	94.210	0.180	0.080	0.520
2020/01/31 03:32:11.1	94.220	0.150	0.090	0.520
2020/01/31 03:32:11.2	94.230	0.120	0.100	0.520
2020/01/31 03:32:11.3	94.230	0.100	0.100	0.510
2020/01/31 03:32:11.4	94.240	0.070	0.110	0.510
2020/01/31 03:32:11.5	94.250	0.040	0.110	0.510
2020/01/31 03:32:11.6	94.260	0.020	0.120	0.510
2020/01/31 03:32:11.7	94.260	-0.000	0.120	0.510
2020/01/31 03:32:11.8	94.270	-0.020	0.120	0.520
2020/01/31 03:32:11.9	94.280	-0.040	0.120	0.520
2020/01/31 03:32:12.0	94.280	-0.060	0.110	0.530
2020/01/31 03:32:12.1	94.280	-0.070	0.100	0.530
2020/01/31 03:32:12.2	94.280	-0.080	0.090	0.540
2020/01/31 03:32:12.3	94.290	-0.090	0.070	0.550
2020/01/31 03:32:12.4	94.290	-0.100	0.050	0.560
2020/01/31 03:32:12.5	94.300	-0.100	0.030	0.570
2020/01/31 03:32:12.6	94.300	-0.100	0.000	0.590
2020/01/31 03:32:12.7	94.310	-0.100	-0.030	0.600
2020/01/31 03:32:12.8	94.310	-0.090	-0.070	0.610
2020/01/31 03:32:12.9	94.320	-0.080	-0.110	0.630
2020/01/31 03:32:13.0	94.330	-0.070	-0.150	0.640
2020/01/31 03:32:13.1	94.340	-0.050	-0.200	0.660
2020/01/31 03:32:13.2	94.350	-0.030	-0.250	0.670
2020/01/31 03:32:13.3	94.350	-0.010	-0.300	0.690
2020/01/31 03:32:13.4	94.360	0.010	-0.360	0.710
2020/01/31 03:32:13.5	94.360	0.030	-0.410	0.730
2020/01/31 03:32:13.6	94.360	0.060	-0.470	0.750
2020/01/31 03:32:13.7	94.370	0.080	-0.520	0.770
2020/01/31 03:32:13.8	94.370	0.110	-0.580	0.790
2020/01/31 03:32:13.9	94.360	0.130	-0.630	0.820
2020/01/31 03:32:14.0	94.360	0.150	-0.680	0.840
2020/01/31 03:32:14.1	94.360	0.180	-0.730	0.870
2020/01/31 03:32:14.2	94.360	0.200	-0.770	0.900
2020/01/31 03:32:14.3	94.350	0.220	-0.810	0.920
2020/01/31 03:32:14.4	94.340	0.230	-0.840	0.950
2020/01/31 03:32:14.5	94.330	0.250	-0.870	0.970
2020/01/31 03:32:14.6	94.320	0.260	-0.890	0.990
2020/01/31 03:32:14.7	94.310	0.270	-0.900	1.010
2020/01/31 03:32:14.8	94.300	0.270	-0.910	1.030
2020/01/31 03:32:14.9	94.290	0.280	-0.910	1.050
2020/01/31 03:32:15.0	94.280	0.270	-0.910	1.060
2020/01/31 03:32:15.1	94.260	0.270	-0.910	1.070
2020/01/31 03:32:15.2	94.250	0.260	-0.890	1.070
2020/01/31 03:32:15.3	94.240	0.250	-0.870	1.080
2020/01/31 03:32:15.4	94.230	0.240	-0.840	1.090
2020/01/31 03:32:15.5	94.220	0.220	-0.810	1.090
2020/01/31 03:32:15.6	94.210	0.200	-0.780	1.090
2020/01/31 03:32:15.7	94.210	0.180	-0.740	1.100
2020/01/31 03:32:15.8	94.200	0.160	-0.690	1.100
2020/01/31 03:32:15.9	94.190	0.130	-0.650	1.100
2020/01/31 03:32:16.0	94.190	0.100	-0.600	1.100
2020/01/31 03:32:16.1	94.170	0.080	-0.540	1.100
2020/01/31 03:32:16.2	94.170	0.050	-0.490	1.100
2020/01/31 03:32:16.3	94.170	0.020	-0.440	1.100
2020/01/31 03:32:16.4	94.170	-0.010	-0.380	1.100
2020/01/31 03:32:16.5	94.170	-0.040	-0.330	1.100
2020/01/31 03:32:16.6	94.170	-0.070	-0.270	1.100
2020/01/31 03:32:16.7	94.160	-0.100	-0.220	1.110
2020/01/31 03:32:16.8	94.170	-0.130	-0.170	1.110
2020/01/31 03:32:16.9	94.170	-0.150	-0.110	1.110
2020/01/31 03:32:17.0	94.170	-0.180	-0.060	1.110
2020/01/31 03:32:17.1	94.170	-0.200	-0.010	1.110
2020/01/31 03:32:17.2	94.180	-0.230	0.030	1.100
2020/01/31 03:32:17.3	94.180	-0.250	0.080	1.100
2020/01/31 03:32:17.4	94.190	-0.270	0.130	1.090
2020/01/31 03:32:17.5	94.200	-0.290	0.170	1.090
2020/01/31 03:32:17.6	94.200	-0.300	0.210	1.080
2020/01/31 03:32:17.7	94.210	-0.320	0.250	1.070
2020/01/31 03:32:17.8	94.210	-0.340	0.290	1.060
2020/01/31 03:32:17.9	94.220	-0.350	0.330	1.050
2020/01/31 03:32:18.0	94.220	-0.370	0.360	1.030
2020/01/31 03:32:18.1	94.260	-0.380	0.400	1.020
2020/01/31 03:32:18.2	94.260	-0.390	0.430	1.000
2020/01/31 03:32:18.3	94.260	-0.400	0.460	0.980
2020/01/31 03:32:18.4	94.270	-0.410	0.480	0.960
2020/01/31 03:32:18.5	94.270	-0.420	0.500	0.940
2020/01/31 03:32:18.6	94.270	-0.430	0.520	0.910
2020/01/31 03:32:18.7	94.270	-0.440	0.530	0.880
2020/01/31 03:32:18.8	94.270	-0.440	0.550	0.860
2020/01/31 03:32:18.9	94.280	-0.450	0.550	0.820
2020/01/31 03:32:19.0	94.280	-0.450	0.560	0.790
2020/01/31 03:32:19.1	94.270	-0.460	0.560	0.760
2020/01/31 03:32:19.2	94.270	-0.460	0.550	0.720
2020/01/31 03:32:19.3	94.270	-0.460	0.550	0.690
2020/01/31 03:32:19.4	94.280	-0.460	0.530	0.650
2020/01/31 03:32:19.5	94.280	-0.450	0.520	0.610
2020/01/31 03:32:19.6	94.280	-0.450	0.500	0.570
2020/01/31 03:32:19.7	94.290	-0.440	0.480	0.530
2020/01/31 03:32:19.8	94.290	-0.440	0.450	0.490
2020/01/31 03:32:19.9	94.300	-0.430	0.420	0.450
2020/01/31 03:32:20.0	94.310	-0.420	0.390	0.410
2020/01/31 03:32:20.1	94.320	-0.400	0.350	0.370
2020/01/31 03:32:20.2	94.330	-0.390	0.310	0.330
2020/01/31 03:32:20.3	94.340	-0.370	0.270	0.290
2020/01/31 03:32:20.4	94.350	-0.350	0.220	0.250
2020/01/31 03:32:20.5	94.370	-0.330	0.180	0.220
2020/01/31 03:32:20.6	94.380	-0.310	0.130	0.180
2020/01/31 03:32:20.7	94.400	-0.290	0.080	0.150
2020/01/31 03:32:20.8	94.420	-0.260	0.030	0.110
2020/01/31 03:32:20.9	94.440	-0.230	-0.030	0.080
2020/01/31 03:32:21.0	94.470	-0.200	-0.080	0.050
2020/01/31 03:32:21.1	94.500	-0.170	-0.130	0.020
2020/01/31 03:32:21.2	94.520	-0.130	-0.190	-0.010
2020/01/31 03:32:21.3	94.550	-0.100	-0.240	-0.030
2020/01/31 03:32:21.4	94.580	-0.060	-0.300	-0.060
2020/01/31 03:32:21.5	94.610	-0.020	-0.350	-0.080
2020/01/31 03:32:21.6	94.630	0.010	-0.400	-0.100
2020/01/31 03:32:21.7	94.660	0.050	-0.460	-0.110
2020/01/31 03:32:21.8	94.690	0.090	-0.510	-0.120
2020/01/31 03:32:21.9	94.710	0.130	-0.550	-0.130
2020/01/31 03:32:22.0	94.740	0.170	-0.600	-0.130
2020/01/31 03:32:22.1	94.760	0.210	-0.650	-0.140
2020/01/31 03:32:22.2	94.770	0.240	-0.680	-0.130
2020/01/31 03:32:22.3	94.790	0.280	-0.720	-0.120
2020/01/31 03:32:22.4	94.800	0.320	-0.750	-0.100
2020/01/31 03:32:22.5	94.820	0.350	-0.780	-0.090
2020/01/31 03:32:22.6	94.820	0.380	-0.810	-0.060
2020/01/31 03:32:22.7	94.830	0.410	-0.830	-0.040
2020/01/31 03:32:22.8	94.830	0.440	-0.850	-0.010
2020/01/31 03:32:22.9	94.840	0.470	-0.860	0.020
2020/01/31 03:32:23.0	94.840	0.490	-0.870	0.060
2020/01/31 03:32:23.1	94.830	0.510	-0.870	0.090
2020/01/31 03:32:23.2	94.830	0.530	-0.880	0.130
2020/01/31 03:32:23.3	94.820	0.540	-0.870	0.160
2020/01/31 03:32:23.4	94.820	0.550	-0.870	0.200
2020/01/31 03:32:23.5	94.820	0.560	-0.860	0.240
2020/01/31 03:32:23.6	94.810	0.560	-0.850	0.280
2020/01/31 03:32:23.7	94.810	0.560	-0.830	0.310
2020/01/31 03:32:23.8	94.800	0.550	-0.810	0.350
2020/01/31 03:32:23.9	94.800	0.550	-0.790	0.390
2020/01/31 03:32:24.0	94.800	0.540	-0.760	0.430
2020/01/31 03:32:24.1	94.800	0.530	-0.730	0.470
2020/01/31 03:32:24.2	94.800	0.510	-0.700	0.500
2020/01/31 03:32:24.3	94.800	0.490	-0.670	0.540
2020/01/31 03:32:24.4	94.800	0.470	-0.640	0.580
2020/01/31 03:32:24.5	94.800	0.450	-0.600	0.620
2020/01/31 03:32:24.6	94.800	0.420	-0.560	0.660
2020/01/31 03:32:24.7	94.800	0.390	-0.530	0.700
2020/01/31 03:32:24.8	94.800	0.370	-0.490	0.740
2020/01/31 03:32:24.9	94.800	0.340	-0.450	0.770
2020/01/31 03:32:25.0	94.800	0.310	-0.410	0.810
2020/01/31 03:32:25.1	94.810	0.270	-0.370	0.850
2020/01/31 03:32:25.2	94.810	0.240	-0.330	0.880
2020/01/31 03:32:25.3	94.810	0.210	-0.290	0.910
2020/01/31 03:32:25.4	94.810	0.180	-0.250	0.940
2020/01/31 03:32:25.5	94.810	0.150	-0.220	0.970
2020/01/31 03:32:25.6	94.810	0.120	-0.180	1.000
2020/01/31 03:32:25.7	94.810	0.090	-0.150	1.030
2020/01/31 03:32:25.8	94.810	0.060	-0.110	1.060
2020/01/31 03:32:25.9	94.800	0.030	-0.080	1.090
2020/01/31 03:32:26.0	94.800	0.000	-0.060	1.110
2020/01/31 03:32:26.1	94.780	-0.020	-0.040	1.140
2020/01/31 03:32:26.2	94.780	-0.040	-0.010	1.160
2020/01/31 03:32:26.3	94.770	-0.060	0.000	1.190
2020/01/31 03:32:26.4	94.760	-0.080	0.020	1.210
2020/01/31 03:32:26.5	94.740	-0.100	0.030	1.240
2020/01/31 03:32:26.6	94.730	-0.120	0.040	1.260
2020/01/31 03:32:26.7	94.710	-0.130	0.040	1.280
2020/01/31 03:32:26.8	94.690	-0.140	0.040	1.310
2020/01/31 03:32:26.9	94.670	-0.150	0.040	1.330
2020/01/31 03:32:27.0	94.650	-0.160	0.040	1.360
2020/01/31 03:32:27.1	94.620	-0.170	0.030	1.380
2020/01/31 03:32:27.2	94.600	-0.180	0.020	1.400
2020/01/31 03:32:27.3	94.570	-0.180	0.010	1.420
2020/01/31 03:32:27.4	94.550	-0.190	-0.000	1.430
2020/01/31 03:32:27.5	94.520	-0.190	-0.020	1.450
2020/01/31 03:32:27.6	94.490	-0.190	-0.030	1.460
2020/01/31 03:32:27.7	94.470	-0.190	-0.050	1.470
2020/01/31 03:32:27.8	94.450	-0.190	-0.060	1.470
2020/01/31 03:32:27.9	94.430	-0.190	-0.080	1.470
2020/01/31 03:32:28.0	94.410	-0.190	-0.090	1.460
2020/01/31 03:32:28.1	94.380	-0.180	-0.110	1.450
2020/01/31 03:32:28.2	94.370	-0.180	-0.130	1.440
2020/01/31 03:32:28.3	94.360	-0.180	-0.150	1.420
2020/01/31 03:32:28.4	94.350	-0.170	-0.160	1.390
2020/01/31 03:32:28.5	94.350	-0.170	-0.180	1.360
2020/01/31 03:32:28.6	94.350	-0.160	-0.190	1.330
2020/01/31 03:32:28.7	94.350	-0.160	-0.200	1.290
2020/01/31 03:32:28.8	94.360	-0.150	-0.220	1.250
2020/01/31 03:32:28.9	94.370	-0.140	-0.230	1.210
2020/01/31 03:32:29.0	94.380	-0.130	-0.250	1.160
2020/01/31 03:32:29.1	94.400	-0.130	-0.260	1.110
2020/01/31 03:32:29.2	94.420	-0.120	-0.270	1.060
2020/01/31 03:32:29.3	94.450	-0.110	-0.280	1.000
2020/01/31 03:32:29.4	94.470	-0.090	-0.290	0.950
2020/01/31 03:32:29.5	94.500	-0.080	-0.310	0.890
2020/01/31 03:32:29.6	94.540	-0.070	-0.320	0.840
2020/01/31 03:32:29.7	94.570	-0.060	-0.330	0.780
2020/01/31 03:32:29.8	94.610	-0.050	-0.340	0.720
2020/01/31 03:32:29.9	94.650	-0.030	-0.340	0.670
2020/01/31 03:32:30.0	94.690	-0.020	-0.350	0.620
2020/01/31 03:32:30.1	94.730	-0.000	-0.350	0.570
2020/01/31 03:32:30.2	94.770	0.010	-0.360	0.520
2020/01/31 03:32:30.3	94.810	0.020	-0.360	0.470
2020/01/31 03:32:30.4	94.850	0.040	-0.360	0.430
2020/01/31 03:32:30.5	94.890	0.050	-0.350	0.390
2020/01/31 03:32:30.6	94.930	0.070	-0.350	0.360
2020/01/31 03:32:30.7	94.960	0.080	-0.340	0.330
2020/01/31 03:32:30.8	95.000	0.090	-0.330	0.300
2020/01/31 03:32:30.9	95.030	0.100	-0.320	0.280
2020/01/31 03:32:31.0	95.060	0.120	-0.300	0.260
2020/01/31 03:32:31.1	95.100	0.130	-0.280	0.250
2020/01/31 03:32:31.2	95.120	0.130	-0.260	0.240
2020/01/31 03:32:31.3	95.150	0.140	-0.230	0.230
2020/01/31 03:32:31.4	95.160	0.150	-0.210	0.230
2020/01/31 03:32:31.5	95.180	0.150	-0.180	0.230
2020/01/31 03:32:31.6	95.190	0.160	-0.150	0.240
2020/01/31 03:32:31.7	95.200	0.160	-0.110	0.250
2020/01/31 03:32:31.8	95.210	0.160	-0.080	0.260
2020/01/31 03:32:31.9	95.210	0.150	-0.040	0.280
2020/01/31 03:32:32.0	95.210	0.150	-0.000	0.300
2020/01/31 03:32:32.1	95.210	0.140	0.030	0.320
2020/01/31 03:32:32.2	95.200	0.140	0.070	0.340
2020/01/31 03:32:32.3	95.190	0.130	0.110	0.370
2020/01/31 03:32:32.4	95.180	0.110	0.150	0.400
2020/01/31 03:32:32.5	95.160	0.100	0.190	0.440
2020/01/31 03:32:32.6	95.140	0.090	0.220	0.470
2020/01/31 03:32:32.7	95.120	0.070	0.250	0.510
2020/01/31 03:32:32.8	95.100	0.060	0.280	0.540
2020/01/31 03:32:32.9	95.080	0.040	0.300	0.580
2020/01/31 03:32:33.0	95.050	0.030	0.310	0.620
2020/01/31 03:32:33.1	95.010	0.010	0.330	0.660
2020/01/31 03:32:33.2	94.990	-0.000	0.330	0.700
2020/01/31 03:32:33.3	94.960	-0.020	0.330	0.730
2020/01/31 03:32:33.4	94.940	-0.030	0.320	0.770
2020/01/31 03:32:33.5	94.920	-0.050	0.310	0.800
2020/01/31 03:32:33.6	94.890	-0.060	0.290	0.830
2020/01/31 03:32:33.7	94.880	-0.070	0.260	0.850
2020/01/31 03:32:33.8	94.860	-0.070	0.230	0.870
2020/01/31 03:32:33.9	94.840	-0.080	0.190	0.890
2020/01/31 03:32:34.0	94.830	-0.080	0.140	0.900
2020/01/31 03:32:34.1	94.820	-0.080	0.090	0.900
2020/01/31 03:32:34.2	94.810	-0.080	0.040	0.900
2020/01/31 03:32:34.3	94.810	-0.080	-0.020	0.900
2020/01/31 03:32:34.4	94.810	-0.080	-0.080	0.890
2020/01/31 03:32:34.5	94.810	-0.070	-0.140	0.880
2020/01/31 03:32:34.6	94.810	-0.060	-0.200	0.870
2020/01/31 03:32:34.7	94.810	-0.050	-0.260	0.850
2020/01/31 03:32:34.8	94.820	-0.040	-0.320	0.830
2020/01/31 03:32:34.9	94.830	-0.030	-0.380	0.810
2020/01/31 03:32:35.0	94.840	-0.020	-0.430	0.790
2020/01/31 03:32:35.1	94.850	-0.000	-0.490	0.760
2020/01/31 03:32:35.2	94.860	0.010	-0.530	0.740
2020/01/31 03:32:35.3	94.870	0.020	-0.580	0.710
2020/01/31 03:32:35.4	94.880	0.040	-0.610	0.690
2020/01/31 03:32:35.5	94.900	0.050	-0.640	0.660
2020/01/31 03:32:35.6	94.910	0.060	-0.670	0.640
2020/01/31 03:32:35.7	94.930	0.070	-0.690	0.610
2020/01/31 03:32:35.8	94.940	0.070	-0.700	0.590
2020/01/31 03:32:35.9	94.960	0.080	-0.700	0.570
2020/01/31 03:32:36.0	94.970	0.080	-0.700	0.550
2020/01/31 03:32:36.1	94.990	0.080	-0.690	0.530
2020/01/31 03:32:36.2	95.010	0.080	-0.670	0.510
2020/01/31 03:32:36.3	95.020	0.080	-0.650	0.490
2020/01/31 03:32:36.4	95.040	0.070	-0.630	0.480
2020/01/31 03:32:36.5	95.050	0.070	-0.600	0.470
2020/01/31 03:32:36.6	95.060	0.060	-0.560	0.460
2020/01/31 03:32:36.7	95.080	0.050	-0.520	0.460
2020/01/31 03:32:36.8	95.090	0.030	-0.480	0.460
2020/01/31 03:32:36.9	95.100	0.020	-0.440	0.460
2020/01/31 03:32:37.0	95.100	0.000	-0.390	0.470
2020/01/31 03:32:37.1	95.110	-0.010	-0.350	0.470
2020/01/31 03:32:37.2	95.110	-0.030	-0.300	0.490
2020/01/31 03:32:37.3	95.120	-0.050	-0.250	0.510
2020/01/31 03:32:37.4	95.120	-0.070	-0.210	0.530
2020/01/31 03:32:37.5	95.110	-0.090	-0.170	0.560
2020/01/31 03:32:37.6	95.110	-0.110	-0.130	0.590
2020/01/31 03:32:37.7	95.100	-0.130	-0.090	0.620
2020/01/31 03:32:37.8	95.090	-0.150	-0.060	0.660
2020/01/31 03:32:37.9	95.080	-0.170	-0.040	0.700
2020/01/31 03:32:38.0	95.070	-0.180	-0.010	0.740
2020/01/31 03:32:38.1	95.050	-0.200	0.000	0.780
2020/01/31 03:32:38.2	95.040	-0.210	0.010	0.820
2020/01/31 03:32:38.3	95.020	-0.220	0.020	0.870
2020/01/31 03:32:38.4	95.000	-0.230	0.020	0.910
2020/01/31 03:32:38.5	94.990	-0.240	0.020	0.950
2020/01/31 03:32:38.6	94.970	-0.240	0.010	1.000
2020/01/31 03:32:38.7	94.950	-0.250	-0.010	1.040
2020/01/31 03:32:38.8	94.920	-0.250	-0.030	1.080
2020/01/31 03:32:38.9	94.900	-0.250	-0.060	1.120
2020/01/31 03:32:39.0	94.880	-0.240	-0.090	1.160
2020/01/31 03:32:39.1	94.850	-0.230	-0.120	1.190
2020/01/31 03:32:39.2	94.820	-0.230	-0.160	1.230
2020/01/31 03:32:39.3	94.800	-0.220	-0.200	1.250
2020/01/31 03:32:39.4	94.770	-0.200	-0.240	1.280
2020/01/31 03:32:39.5	94.750	-0.190	-0.290	1.300
2020/01/31 03:32:39.6	94.720	-0.170	-0.330	1.320
2020/01/31 03:32:39.7	94.700	-0.160	-0.370	1.340
2020/01/31 03:32:39.8	94.680	-0.140	-0.420	1.350
2020/01/31 03:32:39.9	94.660	-0.120	-0.460	1.350
2020/01/31 03:32:40.0	94.640	-0.100	-0.500	1.350
2020/01/31 03:32:40.1	94.620	-0.080	-0.550	1.350
2020/01/31 03:32:40.2	94.610	-0.060	-0.580	1.340
2020/01/31 03:32:40.3	94.590	-0.040	-0.620	1.320
2020/01/31 03:32:40.4	94.580	-0.020	-0.650	1.310
2020/01/31 03:32:40.5	94.570	-0.000	-0.680	1.290
2020/01/31 03:32:40.6	94.560	0.020	-0.710	1.270
2020/01/31 03:32:40.7	94.560	0.040	-0.730	1.250
2020/01/31 03:32:40.8	94.550	0.060	-0.740	1.220
2020/01/31 03:32:40.9	94.550	0.070	-0.760	1.190
2020/01/31 03:32:41.0	94.550	0.090	-0.760	1.170
2020/01/31 03:32:41.1	94.550	0.110	-0.760	1.130
2020/01/31 03:32:41.2	94.550	0.130	-0.760	1.100
2020/01/31 03:32:41.3	94.560	0.140	-0.750	1.070
2020/01/31 03:32:41.4	94.570	0.160	-0.740	1.030
2020/01/31 03:32:41.5	94.570	0.170	-0.710	1.000
2020/01/31 03:32:41.6	94.580	0.180	-0.690	0.960
2020/01/31 03:32:41.7	94.600	0.190	-0.660	0.920
2020/01/31 03:32:41.8	94.610	0.200	-0.620	0.890
2020/01/31 03:32:41.9	94.620	0.210	-0.580	0.850
2020/01/31 03:32:42.0	94.640	0.220	-0.540	0.810
2020/01/31 03:32:42.1	94.660	0.230	-0.490	0.770
2020/01/31 03:32:42.2	94.670	0.230	-0.440	0.730
2020/01/31 03:32:42.3	94.690	0.240	-0.380	0.690
2020/01/31 03:32:42.4	94.710	0.240	-0.330	0.650
2020/01/31 03:32:42.5	94.720	0.240	-0.270	0.610
2020/01/31 03:32:42.6	94.740	0.240	-0.210	0.580
2020/01/31 03:32:42.7	94.750	0.240	-0.150	0.540
2020/01/31 03:32:42.8	94.770	0.240	-0.090	0.510
2020/01/31 03:32:42.9	94.780	0.230	-0.020	0.480
2020/01/31 03:32:43.0	94.800	0.230	0.040	0.460
2020/01/31 03:32:43.1	94.810	0.230	0.090	0.440
2020/01/31 03:32:43.2	94.820	0.220	0.150	0.420
2020/01/31 03:32:43.3	94.830	0.210	0.210	0.400
2020/01/31 03:32:43.4	94.840	0.200	0.260	0.390
2020/01/31 03:32:43.5	94.850	0.190	0.310	0.380
2020/01/31 03:32:43.6	94.860	0.180	0.350	0.370
2020/01/31 03:32:43.7	94.860	0.170	0.390	0.360
2020/01/31 03:32:43.8	94.870	0.160	0.430	0.360
2020/01/31 03:32:43.9	94.870	0.150	0.460	0.370
2020/01/31 03:32:44.0	94.880	0.130	0.490	0.370
2020/01/31 03:32:44.1	94.880	0.120	0.510	0.380
2020/01/31 03:32:44.2	94.880	0.100	0.520	0.390
2020/01/31 03:32:44.3	94.890	0.090	0.530	0.410
2020/01/31 03:32:44.4	94.890	0.070	0.540	0.430
2020/01/31 03:32:44.5	94.890	0.060	0.530	0.450
2020/01/31 03:32:44.6	94.890	0.040	0.530	0.470
2020/01/31 03:32:44.7	94.890	0.030	0.510	0.500
2020/01/31 03:32:44.8	94.890	0.020	0.490	0.520
2020/01/31 03:32:44.9	94.890	0.000	0.470	0.550
2020/01/31 03:32:45.0	94.890	-0.010	0.440	0.570
2020/01/31 03:32:45.1	94.890	-0.030	0.400	0.600
2020/01/31 03:32:45.2	94.890	-0.040	0.370	0.620
2020/01/31 03:32:45.3	94.890	-0.050	0.320	0.630
2020/01/31 03:32:45.4	94.900	-0.060	0.280	0.650
2020/01/31 03:32:45.5	94.900	-0.070	0.230	0.660
2020/01/31 03:32:45.6	94.900	-0.070	0.170	0.680
2020/01/31 03:32:45.7	94.910	-0.080	0.120	0.680
2020/01/31 03:32:45.8	94.910	-0.080	0.060	0.690
2020/01/31 03:32:45.9	94.920	-0.080	-0.000	0.690
2020/01/31 03:32:46.0	94.920	-0.080	-0.070	0.690
2020/01/31 03:32:46.1	94.930	-0.080	-0.130	0.690
2020/01/31 03:32:46.2	94.930	-0.080	-0.200	0.690
2020/01/31 03:32:46.3	94.940	-0.070	-0.260	0.690
2020/01/31 03:32:46.4	94.950	-0.060	-0.330	0.680
2020/01/31 03:32:46.5	94.950	-0.050	-0.390	0.680
2020/01/31 03:32:46.6	94.960	-0.040	-0.450	0.680
2020/01/31 03:32:46.7	94.970	-0.030	-0.510	0.680
2020/01/31 03:32:46.8	94.970	-0.020	-0.560	0.680
2020/01/31 03:32:46.9	94.970	-0.000	-0.610	0.680
2020/01/31 03:32:47.0	94.970	0.020	-0.660	0.690
2020/01/31 03:32:47.1	94.960	0.030	-0.700	0.700
2020/01/31 03:32:47.2	94.950	0.050	-0.730	0.710
2020/01/31 03:32:47.3	94.950	0.060	-0.760	0.720
2020/01/31 03:32:47.4	94.940	0.080	-0.780	0.740
2020/01/31 03:32:47.5	94.920	0.100	-0.790	0.760
2020/01/31 03:32:47.6	94.910	0.110	-0.800	0.790
2020/01/31 03:32:47.7	94.890	0.120	-0.790	0.810
2020/01/31 03:32:47.8	94.870	0.140	-0.790	0.840
2020/01/31 03:32:47.9	94.850	0.150	-0.770	0.860
2020/01/31 03:32:48.0	94.820	0.160	-0.750	0.890
2020/01/31 03:32:48.1	94.800	0.170	-0.720	0.910
2020/01/31 03:32:48.2	94.780	0.170	-0.680	0.940
2020/01/31 03:32:48.3	94.750	0.180	-0.640	0.960
2020/01/31 03:32:48.4	94.720	0.180	-0.600	0.990
2020/01/31 03:32:48.5	94.690	0.180	-0.560	1.010
2020/01/31 03:32:48.6	94.660	0.180	-0.510	1.030
2020/01/31 03:32:48.7	94.630	0.180	-0.460	1.040
2020/01/31 03:32:48.8	94.610	0.170	-0.410	1.060
2020/01/31 03:32:48.9	94.580	0.170	-0.350	1.070
2020/01/31 03:32:49.0	94.550	0.160	-0.300	1.070
2020/01/31 03:32:49.1	94.540	0.150	-0.260	1.080
2020/01/31 03:32:49.2	94.520	0.140	-0.210	1.080
2020/01/31 03:32:49.3	94.500	0.130	-0.170	1.080
2020/01/31 03:32:49.4	94.490	0.120	-0.130	1.080
2020/01/31 03:32:49.5	94.480	0.110	-0.090	1.070
2020/01/31 03:32:49.6	94.470	0.100	-0.070	1.060
2020/01/31 03:32:49.7	94.470	0.090	-0.040	1.060
2020/01/31 03:32:49.8	94.470	0.080	-0.020	1.050
2020/01/31 03:32:49.9	94.470	0.070	-0.010	1.030
2020/01/31 03:32:50.0	94.480	0.060	-0.010	1.020
2020/01/31 03:32:50.1	94.490	0.050	-0.000	1.010
2020/01/31 03:32:50.2	94.500	0.050	-0.010	1.000
2020/01/31 03:32:50.3	94.520	0.040	-0.020	0.980
2020/01/31 03:32:50.4	94.540	0.040	-0.040	0.970
2020/01/31 03:32:50.5	94.560	0.040	-0.060	0.950
2020/01/31 03:32:50.6	94.590	0.030	-0.090	0.930
2020/01/31 03:32:50.7	94.610	0.030	-0.120	0.920
2020/01/31 03:32:50.8	94.640	0.030	-0.160	0.900
2020/01/31 03:32:50.9	94.670	0.040	-0.190	0.880
2020/01/31 03:32:51.0	94.700	0.040	-0.230	0.860
2020/01/31 03:32:51.1	94.730	0.040	-0.270	0.840
2020/01/31 03:32:51.2	94.770	0.050	-0.320	0.820
2020/01/31 03:32:51.3	94.800	0.050	-0.360	0.800
2020/01/31 03:32:51.4	94.820	0.060	-0.390	0.780
2020/01/31 03:32:51.5	94.840	0.060	-0.430	0.760
2020/01/31 03:32:51.6	94.860	0.070	-0.460	0.740
2020/01/31 03:32:51.7	94.880	0.070	-0.480	0.730
2020/01/31 03:32:51.8	94.890	0.080	-0.500	0.710
2020/01/31 03:32:51.9	94.900	0.080	-0.520	0.700
2020/01/31 03:32:52.0	94.910	0.080	-0.520	0.690
2020/01/31 03:32:52.1	94.890	0.080	-0.520	0.680
2020/01/31 03:32:52.2	94.890	0.070	-0.520	0.680
2020/01/31 03:32:52.3	94.880	0.070	-0.500	0.680
2020/01/31 03:32:52.4	94.870	0.060	-0.480	0.680
2020/01/31 03:32:52.5	94.850	0.050	-0.450	0.690
2020/01/31 03:32:52.6	94.830	0.030	-0.410	0.700
2020/01/31 03:32:52.7	94.810	0.010	-0.370	0.710
2020/01/31 03:32:52.8	94.790	-0.010	-0.320	0.730
2020/01/31 03:32:52.9	94.760	-0.030	-0.270	0.760
2020/01/31 03:32:53.0	94.730	-0.050	-0.220	0.780
2020/01/31 03:32:53.1	94.690	-0.080	-0.160	0.810
2020/01/31 03:32:53.2	94.660	-0.110	-0.100	0.850
2020/01/31 03:32:53.3	94.630	-0.140	-0.040	0.880
2020/01/31 03:32:53.4	94.600	-0.170	0.020	0.930
2020/01/31 03:32:53.5	94.570	-0.210	0.080	0.970
2020/01/31 03:32:53.6	94.540	-0.240	0.130	1.010
2020/01/31 03:32:53.7	94.520	-0.280	0.180	1.060
2020/01/31 03:32:53.8	94.490	-0.320	0.230	1.100
2020/01/31 03:32:53.9	94.470	-0.350	0.270	1.140
2020/01/31 03:32:54.0	94.450	-0.390	0.300	1.180
2020/01/31 03:32:54.1	94.440	-0.420	0.330	1.220
2020/01/31 03:32:54.2	94.430	-0.450	0.350	1.250
2020/01/31 03:32:54.3	94.420	-0.480	0.360	1.280
2020/01/31 03:32:54.4	94.420	-0.510	0.370	1.300
2020/01/31 03:32:54.5	94.420	-0.530	0.360	1.320
2020/01/31 03:32:54.6	94.420	-0.550	0.340	1.330
2020/01/31 03:32:54.7	94.430	-0.560	0.310	1.330
2020/01/31 03:32:54.8	94.440	-0.570	0.280	1.330
2020/01/31 03:32:54.9	94.450	-0.580	0.240	1.320
2020/01/31 03:32:55.0	94.470	-0.580	0.180	1.300
2020/01/31 03:32:55.1	94.470	-0.580	0.120	1.270
2020/01/31 03:32:55.2	94.480	-0.570	0.050	1.250
2020/01/31 03:32:55.3	94.500	-0.560	-0.020	1.210
2020/01/31 03:32:55.4	94.520	-0.540	-0.100	1.180
2020/01/31 03:32:55.5	94.540	-0.520	-0.180	1.140
2020/01/31 03:32:55.6	94.550	-0.490	-0.270	1.100
2020/01/31 03:32:55.7	94.560	-0.460	-0.350	1.070
2020/01/31 03:32:55.8	94.580	-0.430	-0.440	1.030
2020/01/31 03:32:55.9	94.590	-0.390	-0.520	0.990
2020/01/31 03:32:56.0	94.590	-0.350	-0.600	0.960
2020/01/31 03:32:56.1	94.600	-0.300	-0.680	0.920
2020/01/31 03:32:56.2	94.600	-0.250	-0.740	0.890
2020/01/31 03:32:56.3	94.600	-0.210	-0.800	0.870
2020/01/31 03:32:56.4	94.590	-0.160	-0.850	0.840
2020/01/31 03:32:56.5	94.580	-0.110	-0.900	0.820
2020/01/31 03:32:56.6	94.570	-0.060	-0.930	0.810
2020/01/31 03:32:56.7	94.560	-0.020	-0.950	0.790
2020/01/31 03:32:56.8	94.540	0.030	-0.960	0.780
2020/01/31 03:32:56.9	94.520	0.070	-0.950	0.770
2020/01/31 03:32:57.0	94.500	0.120	-0.940	0.760
2020/01/31 03:32:57.1	94.480	0.160	-0.920	0.760
2020/01/31 03:32:57.2	94.460	0.190	-0.890	0.760
2020/01/31 03:32:57.3	94.430	0.220	-0.850	0.770
2020/01/31 03:32:57.4	94.400	0.250	-0.800	0.770
2020/01/31 03:32:57.5	94.370	0.280	-0.740	0.780
2020/01/31 03:32:57.6	94.340	0.300	-0.670	0.780
2020/01/31 03:32:57.7	94.320	0.320	-0.600	0.790
2020/01/31 03:32:57.8	94.290	0.330	-0.530	0.800
2020/01/31 03:32:57.9	94.260	0.340	-0.450	0.810
2020/01/31 03:32:58.0	94.230	0.350	-0.370	0.820
2020/01/31 03:32:58.1	94.210	0.350	-0.280	0.830
2020/01/31 03:32:58.2	94.180	0.350	-0.200	0.840
2020/01/31 03:32:58.3	94.160	0.350	-0.120	0.850
2020/01/31 03:32:58.4	94.150	0.350	-0.050	0.850
2020/01/31 03:32:58.5	94.130	0.340	0.020	0.860
2020/01/31 03:32:58.6	94.120	0.330	0.090	0.860
2020/01/31 03:32:58.7	94.120	0.320	0.150	0.850
2020/01/31 03:32:58.8	94.120	0.310	0.210	0.850
2020/01/31 03:32:58.9	94.120	0.290	0.260	0.830
2020/01/31 03:32:59.0	94.130	0.280	0.300	0.820
2020/01/31 03:32:59.1	94.130	0.270	0.330	0.800
2020/01/31 03:32:59.2	94.150	0.250	0.360	0.780
2020/01/31 03:32:59.3	94.170	0.240	0.370	0.750
2020/01/31 03:32:59.4	94.200	0.220	0.380	0.720
2020/01/31 03:32:59.5	94.230	0.210	0.390	0.690
2020/01/31 03:32:59.6	94.260	0.190	0.380	0.660
2020/01/31 03:32:59.7	94.300	0.180	0.370	0.630
2020/01/31 03:32:59.8	94.330	0.170	0.350	0.600
2020/01/31 03:32:59.9	94.370	0.160	0.330	0.570
2020/01/31 03:33:00.0	94.400	0.150	0.300	0.540
2020/01/31 03:33:00.1	94.440	0.140	0.260	0.510
2020/01/31 03:33:00.2	94.480	0.130	0.230	0.490
2020/01/31 03:33:00.3	94.520	0.120	0.190	0.460
2020/01/31 03:33:00.4	94.550	0.110	0.140	0.440
2020/01/31 03:33:00.5	94.580	0.110	0.100	0.410
2020/01/31 03:33:00.6	94.610	0.100	0.050	0.390
2020/01/31 03:33:00.7	94.640	0.100	0.010	0.370
2020/01/31 03:33:00.8	94.660	0.090	-0.040	0.350
2020/01/31 03:33:00.9	94.690	0.090	-0.090	0.340
2020/01/31 03:33:01.0	94.710	0.090	-0.130	0.330
2020/01/31 03:33:01.1	94.730	0.090	-0.180	0.320
2020/01/31 03:33:01.2	94.750	0.090	-0.230	0.310
2020/01/31 03:33:01.3	94.760	0.080	-0.270	0.300
2020/01/31 03:33:01.4	94.770	0.080	-0.310	0.300
2020/01/31 03:33:01.5	94.780	0.080	-0.340	0.300
2020/01/31 03:33:01.6	94.780	0.080	-0.380	0.300
2020/01/31 03:33:01.7	94.780	0.090	-0.410	0.310
2020/01/31 03:33:01.8	94.780	0.090	-0.440	0.320
2020/01/31 03:33:01.9	94.780	0.090	-0.460	0.330
2020/01/31 03:33:02.0	94.770	0.090	-0.490	0.350
2020/01/31 03:33:02.1	94.770	0.090	-0.500	0.370
2020/01/31 03:33:02.2	94.760	0.090	-0.520	0.400
2020/01/31 03:33:02.3	94.740	0.090	-0.530	0.430
2020/01/31 03:33:02.4	94.720	0.090	-0.540	0.460
2020/01/31 03:33:02.5	94.710	0.090	-0.550	0.500
2020/01/31 03:33:02.6	94.680	0.090	-0.550	0.540
2020/01/31 03:33:02.7	94.660	0.090	-0.550	0.590
2020/01/31 03:33:02.8	94.640	0.090	-0.540	0.640
2020/01/31 03:33:02.9	94.610	0.090	-0.530	0.690
2020/01/31 03:33:03.0	94.590	0.090	-0.520	0.750
2020/01/31 03:33:03.1	94.550	0.080	-0.520	0.800
2020/01/31 03:33:03.2	94.530	0.080	-0.500	0.860
2020/01/31 03:33:03.3	94.500	0.070	-0.490	0.920
2020/01/31 03:33:03.4	94.480	0.070	-0.470	0.980
2020/01/31 03:33:03.5	94.460	0.060	-0.450	1.040
2020/01/31 03:33:03.6	94.440	0.060	-0.430	1.090
2020/01/31 03:33:03.7	94.420	0.050	-0.400	1.150
2020/01/31 03:33:03.8	94.400	0.040	-0.380	1.200
2020/01/31 03:33:03.9	94.380	0.030	-0.360	1.250
2020/01/31 03:33:04.0	94.370	0.020	-0.330	1.290
2020/01/31 03:33:04.1	94.370	0.010	-0.310	1.330
2020/01/31 03:33:04.2	94.350	0.000	-0.280	1.360
2020/01/31 03:33:04.3	94.340	-0.010	-0.260	1.390
2020/01/31 03:33:04.4	94.340	-0.020	-0.240	1.410
2020/01/31 03:33:04.5	94.330	-0.030	-0.220	1.420
2020/01/31 03:33:04.6	94.320	-0.040	-0.190	1.430
2020/01/31 03:33:04.7	94.320	-0.050	-0.170	1.430
2020/01/31 03:33:04.8	94.310	-0.060	-0.150	1.430
2020/01/31 03:33:04.9	94.310	-0.080	-0.140	1.410
2020/01/31 03:33:05.0	94.300	-0.090	-0.120	1.400
2020/01/31 03:33:05.1	94.300	-0.100	-0.100	1.380
2020/01/31 03:33:05.2	94.290	-0.110	-0.090	1.360
2020/01/31 03:33:05.3	94.280	-0.120	-0.070	1.330
2020/01/31 03:33:05.4	94.270	-0.130	-0.060	1.300
2020/01/31 03:33:05.5	94.260	-0.130	-0.050	1.270
2020/01/31 03:33:05.6	94.250	-0.140	-0.040	1.230
2020/01/31 03:33:05.7	94.230	-0.150	-0.030	1.200
2020/01/31 03:33:05.8	94.220	-0.150	-0.020	1.160
2020/01/31 03:33:05.9	94.200	-0.160	-0.010	1.120
2020/01/31 03:33:06.0	94.190	-0.160	-0.000	1.080
2020/01/31 03:33:06.1	94.170	-0.160	0.000	1.040
2020/01/31 03:33:06.2	94.150	-0.160	0.010	1.000
2020/01/31 03:33:06.3	94.140	-0.160	0.010	0.960
2020/01/31 03:33:06.4	94.120	-0.150	0.010	0.930
2020/01/31 03:33:06.5	94.110	-0.150	0.010	0.890
2020/01/31 03:33:06.6	94.100	-0.140	0.010	0.850
2020/01/31 03:33:06.7	94.090	-0.130	-0.000	0.820
2020/01/31 03:33:06.8	94.090	-0.130	-0.010	0.790
2020/01/31 03:33:06.9	94.090	-0.110	-0.020	0.760
2020/01/31 03:33:07.0	94.090	-0.100	-0.030	0.730
2020/01/31 03:33:07.1	94.080	-0.090	-0.050	0.690
2020/01/31 03:33:07.2	94.090	-0.080	-0.080	0.670
2020/01/31 03:33:07.3	94.100	-0.060	-0.100	0.640
2020/01/31 03:33:07.4	94.110	-0.050	-0.130	0.610
2020/01/31 03:33:07.5	94.130	-0.030	-0.160	0.590
2020/01/31 03:33:07.6	94.150	-0.020	-0.190	0.570
2020/01/31 03:33:07.7	94.170	0.000	-0.230	0.550
2020/01/31 03:33:07.8	94.190	0.020	-0.260	0.530
2020/01/31 03:33:07.9	94.220	0.030	-0.300	0.500
2020/01/31 03:33:08.0	94.250	0.050	-0.340	0.480
2020/01/31 03:33:08.1	94.280	0.060	-0.380	0.470
2020/01/31 03:33:08.2	94.310	0.080	-0.430	0.450
2020/01/31 03:33:08.3	94.340	0.090	-0.460	0.430
2020/01/31 03:33:08.4	94.380	0.100	-0.500	0.410
2020/01/31 03:33:08.5	94.420	0.110	-0.540	0.400
2020/01/31 03:33:08.6	94.450	0.120	-0.570	0.390
2020/01/31 03:33:08.7	94.490	0.130	-0.610	0.370
2020/01/31 03:33:08.8	94.530	0.130	-0.630	0.360
2020/01/31 03:33:08.9	94.560	0.140	-0.660	0.350
2020/01/31 03:33:09.0	94.600	0.140	-0.680	0.350
2020/01/31 03:33:09.1	94.640	0.140	-0.690	0.340
2020/01/31 03:33:09.2	94.680	0.140	-0.700	0.340
2020/01/31 03:33:09.3	94.710	0.130	-0.710	0.350
2020/01/31 03:33:09.4	94.740	0.130	-0.700	0.360
2020/01/31 03:33:09.5	94.770	0.120	-0.700	0.370
2020/01/31 03:33:09.6	94.790	0.120	-0.680	0.390
2020/01/31 03:33:09.7	94.820	0.110	-0.660	0.410
2020/01/31 03:33:09.8	94.840	0.100	-0.630	0.440
2020/01/31 03:33:09.9	94.850	0.080	-0.600	0.470
2020/01/31 03:33:10.0	94.870	0.070	-0.560	0.500
2020/01/31 03:33:10.1	94.880	0.050	-0.520	0.540
2020/01/31 03:33:10.2	94.890	0.040	-0.470	0.590
2020/01/31 03:33:10.3	94.890	0.020	-0.420	0.640
2020/01/31 03:33:10.4	94.890	-0.000	-0.360	0.690
2020/01/31 03:33:10.5	94.890	-0.020	-0.300	0.740
2020/01/31 03:33:10.6	94.880	-0.040	-0.230	0.800
2020/01/31 03:33:10.7	94.870	-0.070	-0.170	0.860
2020/01/31 03:33:10.8	94.860	-0.090	-0.100	0.920
2020/01/31 03:33:10.9	94.840	-0.120	-0.030	0.990
2020/01/31 03:33:11.0	94.820	-0.150	0.030	1.050
2020/01/31 03:33:11.1	94.780	-0.170	0.100	1.120
2020/01/31 03:33:11.2	94.760	-0.200	0.170	1.180
2020/01/31 03:33:11.3	94.730	-0.230	0.230	1.240
2020/01/31 03:33:11.4	94.700	-0.260	0.280	1.290
2020/01/31 03:33:11.5	94.670	-0.290	0.340	1.350
2020/01/31 03:33:11.6	94.640	-0.320	0.390	1.400
2020/01/31 03:33:11.7	94.610	-0.350	0.430	1.440
2020/01/31 03:33:11.8	94.590	-0.380	0.470	1.480
2020/01/31 03:33:11.9	94.560	-0.400	0.500	1.520
2020/01/31 03:33:12.0	94.530	-0.430	0.530	1.540
2020/01/31 03:33:12.1	94.500	-0.460	0.540	1.560
2020/01/31 03:33:12.2	94.480	-0.490	0.560	1.570
2020/01/31 03:33:12.3	94.460	-0.510	0.560	1.580
2020/01/31 03:33:12.4	94.440	-0.540	0.560	1.580
2020/01/31 03:33:12.5	94.430	-0.560	0.550	1.570
2020/01/31 03:33:12.6	94.410	-0.580	0.540	1.550
2020/01/31 03:33:12.7	94.400	-0.600	0.520	1.530
2020/01/31 03:33:12.8	94.390	-0.610	0.490	1.510
2020/01/31 03:33:12.9	94.390	-0.630	0.460	1.480
2020/01/31 03:33:13.0	94.380	-0.640	0.430	1.440
2020/01/31 03:33:13.1	94.380	-0.650	0.380	1.410
2020/01/31 03:33:13.2	94.380	-0.660	0.340	1.360
2020/01/31 03:33:13.3	94.380	-0.660	0.290	1.320
2020/01/31 03:33:13.4	94.380	-0.660	0.240	1.270
2020/01/31 03:33:13.5	94.390	-0.650	0.190	1.220
2020/01/31 03:33:13.6	94.390	-0.650	0.130	1.170
2020/01/31 03:33:13.7	94.400	-0.640	0.070	1.120
2020/01/31 03:33:13.8	94.410	-0.620	0.010	1.060
2020/01/31 03:33:13.9	94.410	-0.600	-0.050	1.010
2020/01/31 03:33:14.0	94.420	-0.580	-0.110	0.960
2020/01/31 03:33:14.1	94.440	-0.550	-0.170	0.900
2020/01/31 03:33:14.2	94.450	-0.520	-0.240	0.850
2020/01/31 03:33:14.3	94.460	-0.490	-0.300	0.800
2020/01/31 03:33:14.4	94.480	-0.450	-0.360	0.750
2020/01/31 03:33:14.5	94.490	-0.410	-0.410	0.700
2020/01/31 03:33:14.6	94.510	-0.360	-0.470	0.660
2020/01/31 03:33:14.7	94.520	-0.310	-0.520	0.610
2020/01/31 03:33:14.8	94.540	-0.260	-0.570	0.570
2020/01/31 03:33:14.9	94.550	-0.210	-0.620	0.530
2020/01/31 03:33:15.0	94.560	-0.150	-0.670	0.500
2020/01/31 03:33:15.1	94.560	-0.090	-0.710	0.470
2020/01/31 03:33:15.2	94.570	-0.030	-0.750	0.440
2020/01/31 03:33:15.3	94.590	0.030	-0.790	0.410
2020/01/31 03:33:15.4	94.600	0.090	-0.820	0.380
2020/01/31 03:33:15.5	94.610	0.150	-0.850	0.360
2020/01/31 03:33:15.6	94.620	0.210	-0.880	0.340
2020/01/31 03:33:15.7	94.630	0.270	-0.900	0.330
2020/01/31 03:33:15.8	94.640	0.330	-0.920	0.310
2020/01/31 03:33:15.9	94.650	0.390	-0.940	0.300
2020/01/31 03:33:16.0	94.650	0.450	-0.960	0.290
2020/01/31 03:33:16.1	94.660	0.500	-0.970	0.280
2020/01/31 03:33:16.2	94.660	0.560	-0.980	0.280
2020/01/31 03:33:16.3	94.670	0.610	-0.990	0.270
2020/01/31 03:33:16.4	94.670	0.660	-0.990	0.270
2020/01/31 03:33:16.5	94.670	0.700	-0.990	0.270
2020/01/31 03:33:16.6	94.670	0.750	-0.990	0.270
2020/01/31 03:33:16.7	94.670	0.790	-0.980	0.280
2020/01/31 03:33:16.8	94.670	0.820	-0.980	0.280
2020/01/31 03:33:16.9	94.670	0.850	-0.960	0.290
2020/01/31 03:33:17.0	94.670	0.880	-0.950	0.300
2020/01/31 03:33:17.1	94.670	0.900	-0.930	0.310
2020/01/31 03:33:17.2	94.660	0.920	-0.900	0.320
2020/01/31 03:33:17.3	94.660	0.930	-0.870	0.340
2020/01/31 03:33:17.4	94.650	0.940	-0.840	0.350
2020/01/31 03:33:17.5	94.650	0.940	-0.800	0.370
2020/01/31 03:33:17.6	94.640	0.940	-0.750	0.390
2020/01/31 03:33:17.7	94.640	0.930	-0.700	0.400
2020/01/31 03:33:17.8	94.630	0.910	-0.650	0.420
2020/01/31 03:33:17.9	94.630	0.900	-0.590	0.440
2020/01/31 03:33:18.0	94.620	0.870	-0.530	0.460
2020/01/31 03:33:18.1	94.630	0.840	-0.460	0.480
2020/01/31 03:33:18.2	94.620	0.810	-0.390	0.500
2020/01/31 03:33:18.3	94.620	0.780	-0.320	0.520
2020/01/31 03:33:18.4	94.620	0.740	-0.250	0.540
2020/01/31 03:33:18.5	94.610	0.690	-0.170	0.560
2020/01/31 03:33:18.6	94.610	0.650	-0.090	0.570
2020/01/31 03:33:18.7	94.610	0.600	-0.020	0.590
2020/01/31 03:33:18.8	94.610	0.540	0.060	0.610
2020/01/31 03:33:18.9	94.610	0.490	0.130	0.620
2020/01/31 03:33:19.0	94.610	0.430	0.200	0.640
2020/01/31 03:33:19.1	94.620	0.380	0.270	0.650
2020/01/31 03:33:19.2	94.620	0.320	0.340	0.660
2020/01/31 03:33:19.3	94.620	0.260	0.400	0.680
2020/01/31 03:33:19.4	94.620	0.200	0.450	0.690
2020/01/31 03:33:19.5	94.620	0.150	0.500	0.700
2020/01/31 03:33:19.6	94.620	0.090	0.540	0.710
2020/01/31 03:33:19.7	94.630	0.040	0.580	0.720
2020/01/31 03:33:19.8	94.630	-0.010	0.610	0.730
2020/01/31 03:33:19.9	94.630	-0.060	0.630	0.740
2020/01/31 03:33:20.0	94.630	-0.110	0.640	0.760
2020/01/31 03:33:20.1	94.620	-0.160	0.640	0.760
2020/01/31 03:33:20.2	94.620	-0.200	0.640	0.780
2020/01/31 03:33:20.3	94.620	-0.230	0.630	0.790
2020/01/31 03:33:20.4	94.620	-0.270	0.620	0.800
2020/01/31 03:33:20.5	94.620	-0.300	0.590	0.810
2020/01/31 03:33:20.6	94.610	-0.330	0.560	0.830
2020/01/31 03:33:20.7	94.610	-0.350	0.520	0.840
2020/01/31 03:33:20.8	94.610	-0.370	0.480	0.860
2020/01/31 03:33:20.9	94.600	-0.390	0.430	0.870
2020/01/31 03:33:21.0	94.600	-0.400	0.370	0.890
2020/01/31 03:33:21.1	94.600	-0.410	0.310	0.900
2020/01/31 03:33:21.2	94.600	-0.420	0.250	0.920
2020/01/31 03:33:21.3	94.590	-0.420	0.190	0.940
2020/01/31 03:33:21.4	94.590	-0.420	0.120	0.950
2020/01/31 03:33:21.5	94.590	-0.420	0.050	0.970
2020/01/31 03:33:21.6	94.580	-0.410	-0.020	0.980
2020/01/31 03:33:21.7	94.580	-0.400	-0.090	1.000
2020/01/31 03:33:21.8	94.580	-0.400	-0.160	1.020
2020/01/31 03:33:21.9	94.580	-0.390	-0.230	1.030
2020/01/31 03:33:22.0	94.580	-0.370	-0.290	1.050
2020/01/31 03:33:22.1	94.570	-0.360	-0.360	1.060
2020/01/31 03:33:22.2	94.570	-0.350	-0.410	1.070
2020/01/31 03:33:22.3	94.570	-0.340	-0.470	1.090
2020/01/31 03:33:22.4	94.570	-0.320	-0.520	1.100
2020/01/31 03:33:22.5	94.570	-0.310	-0.560	1.120
2020/01/31 03:33:22.6	94.570	-0.300	-0.600	1.130
2020/01/31 03:33:22.7	94.570	-0.290	-0.630	1.140
2020/01/31 03:33:22.8	94.570	-0.280	-0.650	1.150
2020/01/31 03:33:22.9	94.570	-0.270	-0.670	1.160
2020/01/31 03:33:23.0	94.570	-0.260	-0.680	1.170
2020/01/31 03:33:23.1	94.570	-0.250	-0.690	1.170
2020/01/31 03:33:23.2	94.570	-0.250	-0.690	1.170
2020/01/31 03:33:23.3	94.570	-0.250	-0.690	1.170
2020/01/31 03:33:23.4	94.570	-0.250	-0.670	1.170
2020/01/31 03:33:23.5	94.570	-0.250	-0.660	1.160
2020/01/31 03:33:23.6	94.570	-0.250	-0.640	1.160
2020/01/31 03:33:23.7	94.570	-0.250	-0.610	1.150
2020/01/31 03:33:23.8	94.570	-0.260	-0.580	1.140
2020/01/31 03:33:23.9	94.580	-0.270	-0.550	1.130
2020/01/31 03:33:24.0	94.580	-0.270	-0.510	1.120
2020/01/31 03:33:24.1	94.600	-0.280	-0.470	1.110
2020/01/31 03:33:24.2	94.600	-0.290	-0.430	1.100
2020/01/31 03:33:24.3	94.610	-0.300	-0.390	1.090
2020/01/31 03:33:24.4	94.610	-0.310	-0.350	1.080
2020/01/31 03:33:24.5	94.620	-0.310	-0.310	1.060
2020/01/31 03:33:24.6	94.630	-0.320	-0.270	1.050
2020/01/31 03:33:24.7	94.640	-0.330	-0.240	1.040
2020/01/31 03:33:24.8	94.650	-0.330	-0.210	1.030
2020/01/31 03:33:24.9	94.660	-0.330	-0.180	1.010
2020/01/31 03:33:25.0	94.670	-0.340	-0.150	1.000
2020/01/31 03:33:25.1	94.690	-0.330	-0.130	0.990
2020/01/31 03:33:25.2	94.700	-0.330	-0.110	0.970
2020/01/31 03:33:25.3	94.710	-0.320	-0.100	0.960
2020/01/31 03:33:25.4	94.730	-0.310	-0.090	0.940
2020/01/31 03:33:25.5	94.740	-0.300	-0.090	0.930
2020/01/31 03:33:25.6	94.750	-0.280	-0.090	0.920
2020/01/31 03:33:25.7	94.770	-0.260	-0.100	0.900
2020/01/31 03:33:25.8	94.780	-0.240	-0.110	0.890
2020/01/31 03:33:25.9	94.790	-0.220	-0.120	0.880
2020/01/31 03:33:26.0	94.800	-0.190	-0.140	0.860
2020/01/31 03:33:26.1	94.790	-0.170	-0.160	0.850
2020/01/31 03:33:26.2	94.800	-0.140	-0.180	0.840
2020/01/31 03:33:26.3	94.800	-0.110	-0.200	0.820
2020/01/31 03:33:26.4	94.790	-0.080	-0.220	0.810
2020/01/31 03:33:26.5	94.790	-0.060	-0.240	0.800
2020/01/31 03:33:26.6	94.780	-0.030	-0.250	0.790
2020/01/31 03:33:26.7	94.760	-0.000	-0.260	0.780
2020/01/31 03:33:26.8	94.750	0.020	-0.270	0.760
2020/01/31 03:33:26.9	94.730	0.040	-0.270	0.750
2020/01/31 03:33:27.0	94.720	0.060	-0.270	0.740
2020/01/31 03:33:27.1	94.690	0.070	-0.270	0.730
2020/01/31 03:33:27.2	94.670	0.080	-0.260	0.720
2020/01/31 03:33:27.3	94.640	0.090	-0.240	0.710
2020/01/31 03:33:27.4	94.620	0.090	-0.230	0.710
2020/01/31 03:33:27.5	94.590	0.090	-0.200	0.700
2020/01/31 03:33:27.6	94.560	0.090	-0.170	0.700
2020/01/31 03:33:27.7	94.530	0.080	-0.140	0.700
2020/01/31 03:33:27.8	94.500	0.070	-0.100	0.700
2020/01/31 03:33:27.9	94.470	0.060	-0.060	0.700
2020/01/31 03:33:28.0	94.440	0.040	-0.030	0.710
2020/01/31 03:33:28.1	94.410	0.020	0.020	0.720
2020/01/31 03:33:28.2	94.380	-0.000	0.060	0.720
2020/01/31 03:33:28.3	94.350	-0.030	0.100	0.730
2020/01/31 03:33:28.4	94.320	-0.050	0.140	0.730
2020/01/31 03:33:28.5	94.290	-0.080	0.170	0.740
2020/01/31 03:33:28.6	94.260	-0.100	0.200	0.740
2020/01/31 03:33:28.7	94.230	-0.130	0.230	0.740
2020/01/31 03:33:28.8	94.210	-0.150	0.250	0.740
2020/01/31 03:33:28.9	94.190	-0.180	0.260	0.730
2020/01/31 03:33:29.0	94.170	-0.200	0.260	0.720
2020/01/31 03:33:29.1	94.130	-0.210	0.260	0.710
2020/01/31 03:33:29.2	94.110	-0.230	0.250	0.690
2020/01/31 03:33:29.3	94.100	-0.240	0.230	0.670
2020/01/31 03:33:29.4	94.090	-0.250	0.200	0.640
2020/01/31 03:33:29.5	94.090	-0.250	0.170	0.610
2020/01/31 03:33:29.6	94.090	-0.250	0.130	0.580
2020/01/31 03:33:29.7	94.090	-0.250	0.080	0.550
2020/01/31 03:33:29.8	94.100	-0.240	0.030	0.510
2020/01/31 03:33:29.9	94.110	-0.230	-0.020	0.470
2020/01/31 03:33:30.0	94.120	-0.210	-0.080	0.440
2020/01/31 03:33:30.1	94.120	-0.190	-0.150	0.400
2020/01/31 03:33:30.2	94.130	-0.160	-0.210	0.360
2020/01/31 03:33:30.3	94.140	-0.140	-0.270	0.330
2020/01/31 03:33:30.4	94.160	-0.100	-0.340	0.300
2020/01/31 03:33:30.5	94.170	-0.070	-0.400	0.280
2020/01/31 03:33:30.6	94.190	-0.040	-0.460	0.250
2020/01/31 03:33:30.7	94.200	-0.000	-0.510	0.240
2020/01/31 03:33:30.8	94.220	0.040	-0.560	0.220
2020/01/31 03:33:30.9	94.230	0.080	-0.610	0.210
2020/01/31 03:33:31.0	94.240	0.120	-0.650	0.200
2020/01/31 03:33:31.1	94.240	0.160	-0.690	0.200
2020/01/31 03:33:31.2	94.250	0.200	-0.730	0.200
2020/01/31 03:33:31.3	94.260	0.230	-0.750	0.200
2020/01/31 03:33:31.4	94.270	0.270	-0.770	0.210
2020/01/31 03:33:31.5	94.270	0.310	-0.780	0.220
2020/01/31 03:33:31.6	94.280	0.350	-0.790	0.230
2020/01/31 03:33:31.7	94.280	0.380	-0.790	0.250
2020/01/31 03:33:31.8	94.280	0.410	-0.780	0.270
2020/01/31 03:33:31.9	94.290	0.440	-0.770	0.290
2020/01/31 03:33:32.0	94.290	0.470	-0.760	0.320
2020/01/31 03:33:32.1	94.310	0.500	-0.740	0.340
2020/01/31 03:33:32.2	94.310	0.520	-0.720	0.380
2020/01/31 03:33:32.3	94.310	0.540	-0.690	0.410
2020/01/31 03:33:32.4	94.300	0.560	-0.660	0.440
2020/01/31 03:33:32.5	94.300	0.580	-0.630	0.480
2020/01/31 03:33:32.6	94.290	0.590	-0.600	0.520
2020/01/31 03:33:32.7	94.290	0.600	-0.560	0.570
2020/01/31 03:33:32.8	94.280	0.610	-0.520	0.610
2020/01/31 03:33:32.9	94.270	0.610	-0.490	0.660
2020/01/31 03:33:33.0	94.260	0.620	-0.450	0.710
2020/01/31 03:33:33.1	94.250	0.620	-0.410	0.770
2020/01/31 03:33:33.2	94.240	0.620	-0.370	0.820
2020/01/31 03:33:33.3	94.220	0.610	-0.330	0.870
2020/01/31 03:33:33.4	94.200	0.600	-0.290	0.930
2020/01/31 03:33:33.5	94.180	0.590	-0.250	0.980
2020/01/31 03:33:33.6	94.160	0.580	-0.220	1.030
2020/01/31 03:33:33.7	94.140	0.570	-0.190	1.080
2020/01/31 03:33:33.8	94.120	0.550	-0.160	1.130
2020/01/31 03:33:33.9	94.090	0.530	-0.130	1.180
2020/01/31 03:33:34.0	94.070	0.510	-0.100	1.220
2020/01/31 03:33:34.1	94.040	0.490	-0.080	1.260
2020/01/31 03:33:34.2	94.020	0.460	-0.060	1.300
2020/01/31 03:33:34.3	94.000	0.440	-0.050	1.330
2020/01/31 03:33:34.4	93.980	0.410	-0.030	1.360
2020/01/31 03:33:34.5	93.960	0.380	-0.020	1.380
2020/01/31 03:33:34.6	93.950	0.350	-0.020	1.400
2020/01/31 03:33:34.7	93.930	0.320	-0.010	1.420
2020/01/31 03:33:34.8	93.920	0.290	-0.010	1.430
2020/01/31 03:33:34.9	93.910	0.260	-0.010	1.440
2020/01/31 03:33:35.0	93.910	0.230	-0.020	1.450
2020/01/31 03:33:35.1	93.910	0.190	-0.020	1.440
2020/01/31 03:33:35.2	93.910	0.160	-0.030	1.440
2020/01/31 03:33:35.3	93.900	0.130	-0.050	1.440
2020/01/31 03:33:35.4	93.900	0.100	-0.060	1.430
2020/01/31 03:33:35.5	93.910	0.070	-0.070	1.420
2020/01/31 03:33:35.6	93.910	0.040	-0.090	1.410
2020/01/31 03:33:35.7	93.910	0.010	-0.100	1.390
2020/01/31 03:33:35.8	93.920	-0.020	-0.120	1.380
2020/01/31 03:33:35.9	93.920	-0.040	-0.130	1.360
2020/01/31 03:33:36.0	93.930	-0.070	-0.150	1.340
2020/01/31 03:33:36.1	93.940	-0.090	-0.170	1.330
2020/01/31 03:33:36.2	93.940	-0.110	-0.180	1.310
2020/01/31 03:33:36.3	93.950	-0.130	-0.190	1.290
2020/01/31 03:33:36.4	93.960	-0.140	-0.200	1.270
2020/01/31 03:33:36.5	93.960	-0.160	-0.210	1.250
2020/01/31 03:33:36.6	93.970	-0.170	-0.220	1.240
2020/01/31 03:33:36.7	93.970	-0.180	-0.220	1.220
2020/01/31 03:33:36.8	93.970	-0.190	-0.230	1.200
2020/01/31 03:33:36.9	93.980	-0.200	-0.230	1.180
2020/01/31 03:33:37.0	93.980	-0.200	-0.230	1.160
2020/01/31 03:33:37.1	93.990	-0.200	-0.230	1.140
2020/01/31 03:33:37.2	94.000	-0.210	-0.230	1.130
2020/01/31 03:33:37.3	94.000	-0.210	-0.220	1.110
2020/01/31 03:33:37.4	94.000	-0.210	-0.220	1.090
2020/01/31 03:33:37.5	94.010	-0.210	-0.210	1.080
2020/01/31 03:33:37.6	94.010	-0.210	-0.200	1.060
2020/01/31 03:33:37.7	94.020	-0.200	-0.190	1.050
2020/01/31 03:33:37.8	94.020	-0.200	-0.180	1.040
2020/01/31 03:33:37.9	94.030	-0.200	-0.170	1.030
2020/01/31 03:33:38.0	94.030	-0.200	-0.150	1.030
2020/01/31 03:33:38.1	94.030	-0.200	-0.140	1.020
2020/01/31 03:33:38.2	94.030	-0.200	-0.130	1.020
2020/01/31 03:33:38.3	94.040	-0.200	-0.110	1.030
2020/01/31 03:33:38.4	94.040	-0.210	-0.100	1.030
2020/01/31 03:33:38.5	94.050	-0.210	-0.090	1.040
2020/01/31 03:33:38.6	94.050	-0.210	-0.080	1.050
2020/01/31 03:33:38.7	94.060	-0.220	-0.070	1.060
2020/01/31 03:33:38.8	94.070	-0.220	-0.060	1.080
2020/01/31 03:33:38.9	94.070	-0.230	-0.050	1.100
2020/01/31 03:33:39.0	94.080	-0.240	-0.050	1.110
2020/01/31 03:33:39.1	94.090	-0.250	-0.050	1.130
2020/01/31 03:33:39.2	94.100	-0.260	-0.050	1.150
2020/01/31 03:33:39.3	94.110	-0.270	-0.040	1.170
2020/01/31 03:33:39.4	94.120	-0.280	-0.040	1.190
2020/01/31 03:33:39.5	94.130	-0.290	-0.050	1.210
2020/01/31 03:33:39.6	94.140	-0.300	-0.050	1.230
2020/01/31 03:33:39.7	94.150	-0.310	-0.050	1.250
2020/01/31 03:33:39.8	94.160	-0.330	-0.050	1.260
2020/01/31 03:33:39.9	94.170	-0.340	-0.050	1.280
2020/01/31 03:33:40.0	94.180	-0.350	-0.050	1.290
2020/01/31 03:33:40.1	94.190	-0.370	-0.050	1.300
2020/01/31 03:33:40.2	94.200	-0.380	-0.050	1.310
2020/01/31 03:33:40.3	94.200	-0.390	-0.040	1.310
2020/01/31 03:33:40.4	94.210	-0.400	-0.030	1.320
2020/01/31 03:33:40.5	94.210	-0.420	-0.030	1.320
2020/01/31 03:33:40.6	94.210	-0.430	-0.020	1.320
2020/01/31 03:33:40.7	94.210	-0.440	-0.010	1.320
2020/01/31 03:33:40.8	94.200	-0.450	0.000	1.320
2020/01/31 03:33:40.9	94.200	-0.460	0.020	1.320
2020/01/31 03:33:41.0	94.190	-0.460	0.030	1.320
2020/01/31 03:33:41.1	94.180	-0.470	0.040	1.310
2020/01/31 03:33:41.2	94.170	-0.470	0.050	1.320
2020/01/31 03:33:41.3	94.150	-0.470	0.060	1.320
2020/01/31 03:33:41.4	94.120	-0.470	0.070	1.320
2020/01/31 03:33:41.5	94.100	-0.460	0.080	1.320
2020/01/31 03:33:41.6	94.070	-0.450	0.080	1.330
2020/01/31 03:33:41.7	94.040	-0.440	0.070	1.330
2020/01/31 03:33:41.8	94.010	-0.430	0.060	1.340
2020/01/31 03:33:41.9	93.980	-0.410	0.050	1.350
2020/01/31 03:33:42.0	93.950	-0.380	0.030	1.350
2020/01/31 03:33:42.1	93.910	-0.360	0.010	1.360
2020/01/31 03:33:42.2	93.880	-0.330	-0.030	1.360
2020/01/31 03:33:42.3	93.850	-0.290	-0.060	1.360
2020/01/31 03:33:42.4	93.820	-0.260	-0.110	1.360
2020/01/31 03:33:42.5	93.790	-0.220	-0.160	1.350
2020/01/31 03:33:42.6	93.760	-0.170	-0.210	1.350
2020/01/31 03:33:42.7	93.730	-0.130	-0.270	1.330
2020/01/31 03:33:42.8	93.710	-0.080	-0.330	1.320
2020/01/31 03:33:42.9	93.690	-0.030	-0.390	1.300
2020/01/31 03:33:43.0	93.670	0.020	-0.460	1.280
2020/01/31 03:33:43.1	93.650	0.070	-0.540	1.250
2020/01/31 03:33:43.2	93.630	0.120	-0.600	1.220
2020/01/31 03:33:43.3	93.620	0.180	-0.670	1.190
2020/01/31 03:33:43.4	93.610	0.230	-0.730	1.160
2020/01/31 03:33:43.5	93.610	0.280	-0.790	1.130
2020/01/31 03:33:43.6	93.600	0.330	-0.850	1.090
2020/01/31 03:33:43.7	93.600	0.370	-0.900	1.050
2020/01/31 03:33:43.8	93.610	0.420	-0.940	1.010
2020/01/31 03:33:43.9	93.610	0.460	-0.980	0.970
2020/01/31 03:33:44.0	93.620	0.490	-1.010	0.930
2020/01/31 03:33:44.1	93.620	0.530	-1.040	0.880
2020/01/31 03:33:44.2	93.640	0.560	-1.050	0.840
2020/01/31 03:33:44.3	93.660	0.580	-1.060	0.800
2020/01/31 03:33:44.4	93.670	0.610	-1.060	0.760
2020/01/31 03:33:44.5	93.700	0.620	-1.050	0.720
2020/01/31 03:33:44.6	93.720	0.640	-1.040	0.680
2020/01/31 03:33:44.7	93.750	0.640	-1.010	0.640
2020/01/31 03:33:44.8	93.780	0.650	-0.980	0.600
2020/01/31 03:33:44.9	93.810	0.640	-0.940	0.570
2020/01/31 03:33:45.0	93.840	0.640	-0.890	0.530
2020/01/31 03:33:45.1	93.880	0.630	-0.830	0.500
2020/01/31 03:33:45.2	93.910	0.610	-0.770	0.470
2020/01/31 03:33:45.3	93.950	0.590	-0.700	0.440
2020/01/31 03:33:45.4	93.980	0.570	-0.630	0.410
2020/01/31 03:33:45.5	94.010	0.540	-0.550	0.380
2020/01/31 03:33:45.6	94.050	0.510	-0.470	0.360
2020/01/31 03:33:45.7	94.080	0.480	-0.390	0.340
2020/01/31 03:33:45.8	94.100	0.440	-0.300	0.320
2020/01/31 03:33:45.9	94.130	0.410	-0.220	0.310
2020/01/31 03:33:46.0	94.160	0.370	-0.130	0.290
2020/01/31 03:33:46.1	94.170	0.330	-0.040	0.280
2020/01/31 03:33:46.2	94.190	0.280	0.050	0.280
2020/01/31 03:33:46.3	94.210	0.240	0.130	0.280
2020/01/31 03:33:46.4	94.220	0.200	0.220	0.290
2020/01/31 03:33:46.5	94.230	0.160	0.300	0.300
2020/01/31 03:33:46.6	94.240	0.110	0.380	0.320
2020/01/31 03:33:46.7	94.250	0.070	0.450	0.340
2020/01/31 03:33:46.8	94.250	0.030	0.520	0.370
2020/01/31 03:33:46.9	94.250	-0.010	0.580	0.400
2020/01/31 03:33:47.0	94.240	-0.050	0.630	0.440
2020/01/31 03:33:47.1	94.240	-0.090	0.680	0.480
2020/01/31 03:33:47.2	94.230	-0.120	0.720	0.530
2020/01/31 03:33:47.3	94.220	-0.150	0.750	0.570
2020/01/31 03:33:47.4	94.200	-0.180	0.770	0.620
2020/01/31 03:33:47.5	94.180	-0.200	0.770	0.680
2020/01/31 03:33:47.6	94.170	-0.220	0.770	0.730
2020/01/31 03:33:47.7	94.140	-0.240	0.760	0.780
2020/01/31 03:33:47.8	94.120	-0.250	0.730	0.840
2020/01/31 03:33:47.9	94.100	-0.260	0.700	0.890
2020/01/31 03:33:48.0	94.070	-0.260	0.650	0.940
2020/01/31 03:33:48.1	94.040	-0.260	0.590	0.990
2020/01/31 03:33:48.2	94.010	-0.250	0.530	1.040
2020/01/31 03:33:48.3	93.990	-0.240	0.460	1.080
2020/01/31 03:33:48.4	93.960	-0.230	0.380	1.130
2020/01/31 03:33:48.5	93.940	-0.220	0.290	1.160
2020/01/31 03:33:48.6	93.910	-0.200	0.200	1.200
2020/01/31 03:33:48.7	93.890	-0.180	0.110	1.230
2020/01/31 03:33:48.8	93.870	-0.160	0.010	1.250
2020/01/31 03:33:48.9	93.850	-0.140	-0.080	1.270
2020/01/31 03:33:49.0	93.840	-0.120	-0.180	1.280
2020/01/31 03:33:49.1	93.820	-0.090	-0.270	1.290
2020/01/31 03:33:49.2	93.800	-0.070	-0.370	1.300
2020/01/31 03:33:49.3	93.790	-0.050	-0.460	1.300
2020/01/31 03:33:49.4	93.780	-0.030	-0.540	1.290
2020/01/31 03:33:49.5	93.770	-0.010	-0.620	1.290
2020/01/31 03:33:49.6	93.760	0.010	-0.690	1.270
2020/01/31 03:33:49.7	93.760	0.020	-0.750	1.260
2020/01/31 03:33:49.8	93.750	0.040	-0.810	1.240
2020/01/31 03:33:49.9	93.750	0.050	-0.860	1.220
2020/01/31 03:33:50.0	93.750	0.060	-0.900	1.190
2020/01/31 03:33:50.1	93.740	0.070	-0.930	1.170
2020/01/31 03:33:50.2	93.750	0.070	-0.950	1.140
2020/01/31 03:33:50.3	93.750	0.080	-0.960	1.120
2020/01/31 03:33:50.4	93.750	0.080	-0.960	1.100
2020/01/31 03:33:50.5	93.750	0.080	-0.960	1.080
2020/01/31 03:33:50.6	93.760	0.080	-0.940	1.060
2020/01/31 03:33:50.7	93.760	0.080	-0.910	1.040
2020/01/31 03:33:50.8	93.770	0.080	-0.880	1.030
2020/01/31 03:33:50.9	93.780	0.070	-0.840	1.020
2020/01/31 03:33:51.0	93.780	0.070	-0.790	1.010
2020/01/31 03:33:51.1	93.800	0.060	-0.730	1.000
2020/01/31 03:33:51.2	93.810	0.050	-0.680	1.000
2020/01/31 03:33:51.3	93.830	0.050	-0.610	0.990
2020/01/31 03:33:51.4	93.840	0.040	-0.550	0.990
2020/01/31 03:33:51.5	93.850	0.030	-0.480	1.000
2020/01/31 03:33:51.6	93.870	0.020	-0.420	1.000
2020/01/31 03:33:51.7	93.890	0.010	-0.350	1.000
2020/01/31 03:33:51.8	93.900	0.000	-0.280	1.010
2020/01/31 03:33:51.9	93.920	-0.010	-0.220	1.010
2020/01/31 03:33:52.0	93.940	-0.010	-0.160	1.020
2020/01/31 03:33:52.1	93.960	-0.020	-0.110	1.030
2020/01/31 03:33:52.2	93.980	-0.030	-0.060	1.040
2020/01/31 03:33:52.3	94.000	-0.030	-0.010	1.040
2020/01/31 03:33:52.4	94.020	-0.040	0.030	1.050
2020/01/31 03:33:52.5	94.040	-0.040	0.060	1.050
2020/01/31 03:33:52.6	94.050	-0.040	0.090	1.050
2020/01/31 03:33:52.7	94.070	-0.040	0.110	1.050
2020/01/31 03:33:52.8	94.080	-0.040	0.120	1.050
2020/01/31 03:33:52.9	94.100	-0.040	0.120	1.050
2020/01/31 03:33:53.0	94.110	-0.040	0.120	1.050
2020/01/31 03:33:53.1	94.110	-0.040	0.120	1.040
2020/01/31 03:33:53.2	94.120	-0.030	0.110	1.030
2020/01/31 03:33:53.3	94.120	-0.030	0.090	1.030
2020/01/31 03:33:53.4	94.130	-0.030	0.070	1.020
2020/01/31 03:33:53.5	94.130	-0.020	0.040	1.010
2020/01/31 03:33:53.6	94.130	-0.010	0.020	1.000
2020/01/31 03:33:53.7	94.120	-0.010	-0.010	1.000
2020/01/31 03:33:53.8	94.120	-0.000	-0.040	0.990
2020/01/31 03:33:53.9	94.110	0.000	-0.060	0.990
2020/01/31 03:33:54.0	94.100	0.010	-0.090	0.990
2020/01/31 03:33:54.1	94.090	0.010	-0.110	0.990
2020/01/31 03:33:54.2	94.070	0.010	-0.130	1.000
2020/01/31 03:33:54.3	94.050	0.020	-0.150	1.000
2020/01/31 03:33:54.4	94.030	0.020	-0.160	1.010
2020/01/31 03:33:54.5	94.010	0.020	-0.170	1.020
2020/01/31 03:33:54.6	93.980	0.020	-0.170	1.040
2020/01/31 03:33:54.7	93.950	0.010	-0.170	1.050
2020/01/31 03:33:54.8	93.930	0.010	-0.160	1.070
2020/01/31 03:33:54.9	93.900	0.000	-0.150	1.090
2020/01/31 03:33:55.0	93.870	-0.000	-0.130	1.100
2020/01/31 03:33:55.1	93.830	-0.010	-0.110	1.120
2020/01/31 03:33:55.2	93.800	-0.020	-0.090	1.140
2020/01/31 03:33:55.3	93.780	-0.030	-0.070	1.160
2020/01/31 03:33:55.4	93.750	-0.040	-0.040	1.170
2020/01/31 03:33:55.5	93.720	-0.060	-0.020	1.180
2020/01/31 03:33:55.6	93.700	-0.070	0.010	1.200
2020/01/31 03:33:55.7	93.680	-0.080	0.030	1.210
2020/01/31 03:33:55.8	93.660	-0.090	0.050	1.210
2020/01/31 03:33:55.9	93.640	-0.100	0.070	1.210
2020/01/31 03:33:56.0	93.630	-0.110	0.080	1.210
2020/01/31 03:33:56.1	93.620	-0.120	0.100	1.210
2020/01/31 03:33:56.2	93.610	-0.130	0.100	1.200
2020/01/31 03:33:56.3	93.600	-0.130	0.100	1.180
2020/01/31 03:33:56.4	93.600	-0.140	0.090	1.170
2020/01/31 03:33:56.5	93.600	-0.140	0.070	1.140
2020/01/31 03:33:56.6	93.610	-0.130	0.050	1.120
2020/01/31 03:33:56.7	93.610	-0.130	0.020	1.090
2020/01/31 03:33:56.8	93.620	-0.120	-0.020	1.060
2020/01/31 03:33:56.9	93.630	-0.110	-0.060	1.020
2020/01/31 03:33:57.0	93.640	-0.100	-0.110	0.980
2020/01/31 03:33:57.1	93.630	-0.080	-0.170	0.940
2020/01/31 03:33:57.2	93.650	-0.060	-0.230	0.900
2020/01/31 03:33:57.3	93.660	-0.040	-0.300	0.850
2020/01/31 03:33:57.4	93.670	-0.010	-0.360	0.810
2020/01/31 03:33:57.5	93.680	0.020	-0.430	0.770
2020/01/31 03:33:57.6	93.700	0.050	-0.500	0.730
2020/01/31 03:33:57.7	93.710	0.080	-0.560	0.690
2020/01/31 03:33:57.8	93.720	0.110	-0.630	0.650
2020/01/31 03:33:57.9	93.730	0.140	-0.690	0.610
2020/01/31 03:33:58.0	93.740	0.170	-0.750	0.570
2020/01/31 03:33:58.1	93.750	0.200	-0.810	0.530
2020/01/31 03:33:58.2	93.750	0.230	-0.860	0.500
2020/01/31 03:33:58.3	93.760	0.260	-0.910	0.470
2020/01/31 03:33:58.4	93.760	0.280	-0.950	0.450
2020/01/31 03:33:58.5	93.760	0.310	-0.980	0.420
2020/01/31 03:33:58.6	93.770	0.330	-1.000	0.400
2020/01/31 03:33:58.7	93.770	0.340	-1.010	0.380
2020/01/31 03:33:58.8	93.770	0.360	-1.020	0.370
2020/01/31 03:33:58.9	93.770	0.370	-1.020	0.360
2020/01/31 03:33:59.0	93.770	0.370	-1.000	0.350
2020/01/31 03:33:59.1	93.770	0.380	-0.980	0.350
2020/01/31 03:33:59.2	93.760	0.370	-0.960	0.350
2020/01/31 03:33:59.3	93.760	0.370	-0.920	0.360
2020/01/31 03:33:59.4	93.760	0.360	-0.870	0.370
2020/01/31 03:33:59.5	93.760	0.340	-0.810	0.390
2020/01/31 03:33:59.6	93.760	0.320	-0.750	0.410
2020/01/31 03:33:59.7	93.760	0.300	-0.680	0.430
2020/01/31 03:33:59.8	93.760	0.270	-0.600	0.460
2020/01/31 03:33:59.9	93.750	0.240	-0.520	0.490
2020/01/31 03:34:00.0	93.750	0.210	-0.430	0.530
2020/01/31 03:34:00.1	93.770	0.170	-0.340	0.570
2020/01/31 03:34:00.2	93.770	0.130	-0.240	0.620
2020/01/31 03:34:00.3	93.760	0.080	-0.150	0.660
2020/01/31 03:34:00.4	93.760	0.040	-0.050	0.710
2020/01/31 03:34:00.5	93.760	-0.010	0.050	0.750
2020/01/31 03:34:00.6	93.760	-0.060	0.140	0.800
2020/01/31 03:34:00.7	93.760	-0.110	0.230	0.850
2020/01/31 03:34:00.8	93.750	-0.160	0.320	0.900
2020/01/31 03:34:00.9	93.750	-0.200	0.400	0.940
2020/01/31 03:34:01.0	93.740	-0.250	0.480	0.990
2020/01/31 03:34:01.1	93.730	-0.300	0.550	1.030
2020/01/31 03:34:01.2	93.720	-0.340	0.620	1.070
2020/01/31 03:34:01.3	93.710	-0.380	0.680	1.110
2020/01/31 03:34:01.4	93.700	-0.420	0.720	1.150
2020/01/31 03:34:01.5	93.680	-0.460	0.760	1.180
2020/01/31 03:34:01.6	93.670	-0.490	0.790	1.210
2020/01/31 03:34:01.7	93.650	-0.520	0.810	1.230
2020/01/31 03:34:01.8	93.630	-0.550	0.820	1.250
2020/01/31 03:34:01.9	93.620	-0.570	0.820	1.270
2020/01/31 03:34:02.0	93.600	-0.580	0.800	1.290
2020/01/31 03:34:02.1	93.580	-0.590	0.780	1.300
2020/01/31 03:34:02.2	93.560	-0.600	0.740	1.300
2020/01/31 03:34:02.3	93.540	-0.600	0.690	1.300
2020/01/31 03:34:02.4	93.520	-0.590	0.640	1.300
2020/01/31 03:34:02.5	93.500	-0.580	0.570	1.300
2020/01/31 03:34:02.6	93.480	-0.570	0.500	1.290
2020/01/31 03:34:02.7	93.470	-0.540	0.420	1.280
2020/01/31 03:34:02.8	93.450	-0.520	0.330	1.270
2020/01/31 03:34:02.9	93.430	-0.490	0.230	1.260
2020/01/31 03:34:03.0	93.410	-0.450	0.130	1.240
2020/01/31 03:34:03.1	93.400	-0.410	0.020	1.230
2020/01/31 03:34:03.2	93.390	-0.360	-0.090	1.210
2020/01/31 03:34:03.3	93.370	-0.310	-0.200	1.200
2020/01/31 03:34:03.4	93.360	-0.260	-0.320	1.180
2020/01/31 03:34:03.5	93.350	-0.200	-0.430	1.170
2020/01/31 03:34:03.6	93.330	-0.150	-0.540	1.160
2020/01/31 03:34:03.7	93.320	-0.090	-0.650	1.140
2020/01/31 03:34:03.8	93.310	-0.030	-0.750	1.130
2020/01/31 03:34:03.9	93.300	0.030	-0.840	1.120
2020/01/31 03:34:04.0	93.290	0.080	-0.930	1.110
2020/01/31 03:34:04.1	93.270	0.140	-1.020	1.100
2020/01/31 03:34:04.2	93.260	0.190	-1.080	1.090
2020/01/31 03:34:04.3	93.250	0.240	-1.140	1.080
2020/01/31 03:34:04.4	93.240	0.290	-1.180	1.070
2020/01/31 03:34:04.5	93.230	0.330	-1.220	1.060
2020/01/31 03:34:04.6	93.220	0.370	-1.230	1.050
2020/01/31 03:34:04.7	93.200	0.400	-1.240	1.040
2020/01/31 03:34:04.8	93.190	0.430	-1.240	1.020
2020/01/31 03:34:04.9	93.180	0.450	-1.220	1.010
2020/01/31 03:34:05.0	93.170	0.470	-1.200	1.000
2020/01/31 03:34:05.1	93.150	0.480	-1.150	0.980
2020/01/31 03:34:05.2	93.140	0.480	-1.110	0.970
2020/01/31 03:34:05.3	93.120	0.480	-1.050	0.950
2020/01/31 03:34:05.4	93.110	0.480	-0.990	0.930
2020/01/31 03:34:05.5	93.100	0.470	-0.920	0.910
2020/01/31 03:34:05.6	93.090	0.450	-0.840	0.890
2020/01/31 03:34:05.7	93.080	0.430	-0.760	0.870
2020/01/31 03:34:05.8	93.070	0.400	-0.670	0.850
2020/01/31 03:34:05.9	93.070	0.370	-0.580	0.830
2020/01/31 03:34:06.0	93.060	0.340	-0.490	0.810
2020/01/31 03:34:06.1	93.050	0.310	-0.400	0.790
2020/01/31 03:34:06.2	93.050	0.270	-0.310	0.770
2020/01/31 03:34:06.3	93.060	0.230	-0.220	0.740
2020/01/31 03:34:06.4	93.060	0.190	-0.130	0.720
2020/01/31 03:34:06.5	93.070	0.150	-0.050	0.700
2020/01/31 03:34:06.6	93.080	0.110	0.030	0.670
2020/01/31 03:34:06.7	93.090	0.080	0.110	0.650
2020/01/31 03:34:06.8	93.100	0.040	0.180	0.630
2020/01/31 03:34:06.9	93.120	0.000	0.240	0.610
2020/01/31 03:34:07.0	93.140	-0.030	0.300	0.590
2020/01/31 03:34:07.1	93.140	-0.060	0.360	0.570
2020/01/31 03:34:07.2	93.160	-0.090	0.410	0.550
2020/01/31 03:34:07.3	93.180	-0.120	0.450	0.540
2020/01/31 03:34:07.4	93.200	-0.150	0.480	0.530
2020/01/31 03:34:07.5	93.210	-0.170	0.510	0.520
2020/01/31 03:34:07.6	93.230	-0.190	0.530	0.520
2020/01/31 03:34:07.7	93.250	-0.200	0.550	0.520
2020/01/31 03:34:07.8	93.260	-0.220	0.560	0.520
2020/01/31 03:34:07.9	93.270	-0.230	0.560	0.530
2020/01/31 03:34:08.0	93.280	-0.230	0.560	0.540
2020/01/31 03:34:08.1	93.300	-0.240	0.550	0.560
2020/01/31 03:34:08.2	93.300	-0.240	0.530	0.570
2020/01/31 03:34:08.3	93.310	-0.240	0.520	0.590
2020/01/31 03:34:08.4	93.310	-0.240	0.490	0.610
2020/01/31 03:34:08.5	93.320	-0.230	0.470	0.630
2020/01/31 03:34:08.6	93.320	-0.230	0.440	0.650
2020/01/31 03:34:08.7	93.320	-0.220	0.400	0.670
2020/01/31 03:34:08.8	93.320	-0.210	0.370	0.690
2020/01/31 03:34:08.9	93.320	-0.200	0.330	0.720
2020/01/31 03:34:09.0	93.310	-0.190	0.290	0.740
2020/01/31 03:34:09.1	93.300	-0.180	0.240	0.760
2020/01/31 03:34:09.2	93.290	-0.170	0.200	0.780
2020/01/31 03:34:09.3	93.280	-0.160	0.160	0.810
2020/01/31 03:34:09.4	93.270	-0.150	0.120	0.830
2020/01/31 03:34:09.5	93.260	-0.140	0.080	0.860
2020/01/31 03:34:09.6	93.250	-0.140	0.040	0.880
2020/01/31 03:34:09.7	93.240	-0.130	0.010	0.900
2020/01/31 03:34:09.8	93.220	-0.120	-0.030	0.930
2020/01/31 03:34:09.9	93.210	-0.120	-0.060	0.950
2020/01/31 03:34:10.0	93.200	-0.110	-0.100	0.970
2020/01/31 03:34:10.1	93.180	-0.110	-0.130	0.990
2020/01/31 03:34:10.2	93.170	-0.100	-0.160	1.000
2020/01/31 03:34:10.3	93.150	-0.100	-0.180	1.020
2020/01/31 03:34:10.4	93.130	-0.090	-0.210	1.030
2020/01/31 03:34:10.5	93.120	-0.090	-0.240	1.040
2020/01/31 03:34:10.6	93.100	-0.090	-0.260	1.050
2020/01/31 03:34:10.7	93.090	-0.080	-0.290	1.060
2020/01/31 03:34:10.8	93.070	-0.080	-0.310	1.070
2020/01/31 03:34:10.9	93.060	-0.070	-0.330	1.080
2020/01/31 03:34:11.0	93.050	-0.060	-0.360	1.080
2020/01/31 03:34:11.1	93.040	-0.060	-0.380	1.080
2020/01/31 03:34:11.2	93.030	-0.050	-0.410	1.080
2020/01/31 03:34:11.3	93.020	-0.030	-0.430	1.080
2020/01/31 03:34:11.4	93.020	-0.020	-0.460	1.080
2020/01/31 03:34:11.5	93.010	-0.010	-0.480	1.070
2020/01/31 03:34:11.6	93.010	0.010	-0.510	1.070
2020/01/31 03:34:11.7	93.020	0.030	-0.540	1.060
2020/01/31 03:34:11.8	93.020	0.050	-0.570	1.050
2020/01/31 03:34:11.9	93.030	0.070	-0.600	1.040
2020/01/31 03:34:12.0	93.040	0.100	-0.640	1.020
2020/01/31 03:34:12.1	93.060	0.130	-0.670	1.000
2020/01/31 03:34:12.2	93.070	0.160	-0.710	0.980
2020/01/31 03:34:12.3	93.090	0.190	-0.750	0.960
2020/01/31 03:34:12.4	93.110	0.220	-0.790	0.940
2020/01/31 03:34:12.5	93.130	0.260	-0.830	0.910
2020/01/31 03:34:12.6	93.160	0.300	-0.870	0.890
2020/01/31 03:34:12.7	93.180	0.340	-0.920	0.860
2020/01/31 03:34:12.8	93.200	0.370	-0.960	0.840
2020/01/31 03:34:12.9	93.220	0.410	-1.000	0.810
2020/01/31 03:34:13.0	93.240	0.450	-1.040	0.790
2020/01/31 03:34:13.1	93.260	0.490	-1.070	0.760
2020/01/31 03:34:13.2	93.270	0.530	-1.110	0.740
2020/01/31 03:34:13.3	93.280	0.570	-1.130	0.720
2020/01/31 03:34:13.4	93.280	0.600	-1.150	0.710
2020/01/31 03:34:13.5	93.280	0.630	-1.170	0.690
2020/01/31 03:34:13.6	93.270	0.660	-1.170	0.680
2020/01/31 03:34:13.7	93.260	0.680	-1.170	0.680
2020/01/31 03:34:13.8	93.250	0.700	-1.160	0.670
2020/01/31 03:34:13.9	93.230	0.710	-1.140	0.670
2020/01/31 03:34:14.0	93.210	0.720	-1.100	0.670
2020/01/31 03:34:14.1	93.180	0.720	-1.060	0.670
2020/01/31 03:34:14.2	93.150	0.720	-1.010	0.680
2020/01/31 03:34:14.3	93.120	0.710	-0.950	0.690
2020/01/31 03:34:14.4	93.090	0.690	-0.870	0.700
2020/01/31 03:34:14.5	93.050	0.670	-0.790	0.710
2020/01/31 03:34:14.6	93.020	0.640	-0.690	0.740
2020/01/31 03:34:14.7	92.980	0.600	-0.590	0.760
2020/01/31 03:34:14.8	92.940	0.560	-0.480	0.790
2020/01/31 03:34:14.9	92.900	0.510	-0.370	0.820
2020/01/31 03:34:15.0	92.850	0.460	-0.250	0.850
2020/01/31 03:34:15.1	92.810	0.400	-0.120	0.890
2020/01/31 03:34:15.2	92.770	0.340	0.000	0.930
2020/01/31 03:34:15.3	92.740	0.270	0.120	0.960
2020/01/31 03:34:15.4	92.700	0.200	0.250	1.000
2020/01/31 03:34:15.5	92.660	0.130	0.370	1.040
2020/01/31 03:34:15.6	92.630	0.050	0.480	1.080
2020/01/31 03:34:15.7	92.600	-0.020	0.590	1.110
2020/01/31 03:34:15.8	92.580	-0.100	0.690	1.150
2020/01/31 03:34:15.9	92.550	-0.180	0.790	1.170
2020/01/31 03:34:16.0	92.530	-0.250	0.870	1.200
2020/01/31 03:34:16.1	92.520	-0.330	0.950	1.220
2020/01/31 03:34:16.2	92.510	-0.400	1.010	1.240
2020/01/31 03:34:16.3	92.500	-0.470	1.060	1.250
2020/01/31 03:34:16.4	92.490	-0.530	1.100	1.250
2020/01/31 03:34:16.5	92.490	-0.590	1.120	1.250
2020/01/31 03:34:16.6	92.490	-0.640	1.130	1.240
2020/01/31 03:34:16.7	92.500	-0.690	1.120	1.230
2020/01/31 03:34:16.8	92.510	-0.740	1.100	1.210
2020/01/31 03:34:16.9	92.520	-0.770	1.070	1.180
2020/01/31 03:34:17.0	92.540	-0.800	1.030	1.160
2020/01/31 03:34:17.1	92.560	-0.820	0.970	1.120
2020/01/31 03:34:17.2	92.580	-0.830	0.900	1.080
2020/01/31 03:34:17.3	92.600	-0.840	0.810	1.050
2020/01/31 03:34:17.4	92.620	-0.840	0.720	1.010
2020/01/31 03:34:17.5	92.650	-0.830	0.620	0.970
2020/01/31 03:34:17.6	92.670	-0.810	0.510	0.930
2020/01/31 03:34:17.7	92.700	-0.790	0.390	0.890
2020/01/31 03:34:17.8	92.730	-0.760	0.270	0.860
2020/01/31 03:34:17.9	92.750	-0.720	0.140	0.830
2020/01/31 03:34:18.0	92.780	-0.680	0.010	0.800
2020/01/31 03:34:18.1	92.800	-0.630	-0.120	0.770
2020/01/31 03:34:18.2	92.830	-0.580	-0.250	0.760
2020/01/31 03:34:18.3	92.850	-0.530	-0.370	0.740
2020/01/31 03:34:18.4	92.870	-0.470	-0.490	0.730
2020/01/31 03:34:18.5	92.900	-0.410	-0.600	0.730
2020/01/31 03:34:18.6	92.920	-0.350	-0.710	0.730
2020/01/31 03:34:18.7	92.940	-0.290	-0.800	0.740
2020/01/31 03:34:18.8	92.960	-0.230	-0.890	0.750
2020/01/31 03:34:18.9	92.980	-0.170	-0.970	0.770
2020/01/31 03:34:19.0	93.000	-0.120	-1.030	0.790
2020/01/31 03:34:19.1	93.020	-0.060	-1.090	0.820
2020/01/31 03:34:19.2	93.030	-0.010	-1.130	0.850
2020/01/31 03:34:19.3	93.050	0.030	-1.160	0.880
2020/01/31 03:34:19.4	93.060	0.070	-1.170	0.910
2020/01/31 03:34:19.5	93.080	0.110	-1.180	0.950
2020/01/31 03:34:19.6	93.090	0.140	-1.170	0.980
2020/01/31 03:34:19.7	93.100	0.170	-1.150	1.020
2020/01/31 03:34:19.8	93.100	0.190	-1.110	1.050
2020/01/31 03:34:19.9	93.110	0.200	-1.070	1.080
2020/01/31 03:34:20.0	93.120	0.210	-1.010	1.110
2020/01/31 03:34:20.1	93.120	0.220	-0.950	1.140
2020/01/31 03:34:20.2	93.120	0.210	-0.880	1.170
2020/01/31 03:34:20.3	93.120	0.210	-0.800	1.190
2020/01/31 03:34:20.4	93.110	0.190	-0.710	1.220
2020/01/31 03:34:20.5	93.100	0.180	-0.620	1.240
2020/01/31 03:34:20.6	93.100	0.160	-0.530	1.260
2020/01/31 03:34:20.7	93.080	0.130	-0.430	1.270
2020/01/31 03:34:20.8	93.070	0.110	-0.330	1.290
2020/01/31 03:34:20.9	93.060	0.070	-0.230	1.300
2020/01/31 03:34:21.0	93.040	0.040	-0.140	1.320
2020/01/31 03:34:21.1	93.030	0.010	-0.030	1.330
2020/01/31 03:34:21.2	93.010	-0.030	0.060	1.340
2020/01/31 03:34:21.3	92.990	-0.070	0.150	1.340
2020/01/31 03:34:21.4	92.970	-0.100	0.230	1.350
2020/01/31 03:34:21.5	92.950	-0.140	0.310	1.350
2020/01/31 03:34:21.6	92.930	-0.170	0.380	1.350
2020/01/31 03:34:21.7	92.910	-0.210	0.440	1.340
2020/01/31 03:34:21.8	92.900	-0.240	0.500	1.340
2020/01/31 03:34:21.9	92.880	-0.270	0.540	1.330
2020/01/31 03:34:22.0	92.860	-0.300	0.570	1.310
2020/01/31 03:34:22.1	92.860	-0.320	0.600	1.290
2020/01/31 03:34:22.2	92.840	-0.340	0.610	1.270
2020/01/31 03:34:22.3	92.830	-0.350	0.620	1.250
2020/01/31 03:34:22.4	92.820	-0.360	0.610	1.220
2020/01/31 03:34:22.5	92.810	-0.370	0.600	1.180
2020/01/31 03:34:22.6	92.800	-0.370	0.570	1.150
2020/01/31 03:34:22.7	92.790	-0.370	0.540	1.110
2020/01/31 03:34:22.8	92.780	-0.370	0.500	1.060
2020/01/31 03:34:22.9	92.770	-0.350	0.450	1.010
2020/01/31 03:34:23.0	92.770	-0.340	0.390	0.960
2020/01/31 03:34:23.1	92.770	-0.320	0.330	0.900
2020/01/31 03:34:23.2	92.770	-0.300	0.260	0.840
2020/01/31 03:34:23.3	92.770	-0.270	0.190	0.780
2020/01/31 03:34:23.4	92.770	-0.240	0.110	0.710
2020/01/31 03:34:23.5	92.770	-0.200	0.020	0.650
2020/01/31 03:34:23.6	92.770	-0.160	-0.060	0.580
2020/01/31 03:34:23.7	92.780	-0.120	-0.150	0.520
2020/01/31 03:34:23.8	92.780	-0.070	-0.230	0.450
2020/01/31 03:34:23.9	92.790	-0.030	-0.320	0.390
2020/01/31 03:34:24.0	92.790	0.030	-0.410	0.330
2020/01/31 03:34:24.1	92.780	0.080	-0.490	0.270
2020/01/31 03:34:24.2	92.790	0.130	-0.570	0.210
2020/01/31 03:34:24.3	92.800	0.190	-0.650	0.160
2020/01/31 03:34:24.4	92.810	0.240	-0.720	0.120
2020/01/31 03:34:24.5	92.820	0.300	-0.790	0.080
2020/01/31 03:34:24.6	92.830	0.360	-0.850	0.040
2020/01/31 03:34:24.7	92.830	0.410	-0.910	0.010
2020/01/31 03:34:24.8	92.840	0.470	-0.960	-0.010
2020/01/31 03:34:24.9	92.850	0.520	-1.000	-0.030
2020/01/31 03:34:25.0	92.860	0.580	-1.040	-0.040
2020/01/31 03:34:25.1	92.860	0.630	-1.070	-0.050
2020/01/31 03:34:25.2	92.870	0.670	-1.090	-0.060
2020/01/31 03:34:25.3	92.870	0.720	-1.110	-0.060
2020/01/31 03:34:25.4	92.880	0.750	-1.110	-0.050
2020/01/31 03:34:25.5	92.880	0.790	-1.110	-0.050
2020/01/31 03:34:25.6	92.880	0.820	-1.100	-0.040
2020/01/31 03:34:25.7	92.880	0.840	-1.080	-0.020
2020/01/31 03:34:25.8	92.880	0.860	-1.060	-0.010
2020/01/31 03:34:25.9	92.880	0.880	-1.020	0.010
2020/01/31 03:34:26.0	92.880	0.890	-0.980	0.030
2020/01/31 03:34:26.1	92.880	0.890	-0.930	0.050
2020/01/31 03:34:26.2	92.870	0.880	-0.880	0.080
2020/01/31 03:34:26.3	92.870	0.870	-0.820	0.100
2020/01/31 03:34:26.4	92.860	0.850	-0.760	0.130
2020/01/31 03:34:26.5	92.860	0.830	-0.690	0.160
2020/01/31 03:34:26.6	92.850	0.800	-0.620	0.200
2020/01/31 03:34:26.7	92.840	0.770	-0.540	0.230
2020/01/31 03:34:26.8	92.830	0.720	-0.460	0.270
2020/01/31 03:34:26.9	92.820	0.680	-0.380	0.300
2020/01/31 03:34:27.0	92.810	0.630	-0.300	0.340
2020/01/31 03:34:27.1	92.790	0.570	-0.220	0.380
2020/01/31 03:34:27.2	92.780	0.510	-0.130	0.430
2020/01/31 03:34:27.3	92.770	0.450	-0.050	0.470
2020/01/31 03:34:27.4	92.750	0.380	0.030	0.520
2020/01/31 03:34:27.5	92.740	0.310	0.110	0.570
2020/01/31 03:34:27.6	92.720	0.250	0.190	0.610
2020/01/31 03:34:27.7	92.710	0.170	0.270	0.660
2020/01/31 03:34:27.8	92.690	0.100	0.340	0.720
2020/01/31 03:34:27.9	92.680	0.030	0.400	0.770
2020/01/31 03:34:28.0	92.670	-0.040	0.460	0.820
2020/01/31 03:34:28.1	92.670	-0.110	0.520	0.870
2020/01/31 03:34:28.2	92.660	-0.170	0.570	0.910
2020/01/31 03:34:28.3	92.650	-0.240	0.620	0.960
2020/01/31 03:34:28.4	92.650	-0.300	0.650	1.000
2020/01/31 03:34:28.5	92.640	-0.360	0.680	1.040
2020/01/31 03:34:28.6	92.650	-0.410	0.710	1.070
2020/01/31 03:34:28.7	92.650	-0.460	0.720	1.100
2020/01/31 03:34:28.8	92.650	-0.500	0.730	1.130
2020/01/31 03:34:28.9	92.660	-0.540	0.720	1.150
2020/01/31 03:34:29.0	92.670	-0.570	0.710	1.170
2020/01/31 03:34:29.1	92.700	-0.600	0.690	1.180
2020/01/31 03:34:29.2	92.710	-0.620	0.660	1.180
2020/01/31 03:34:29.3	92.730	-0.630	0.620	1.180
2020/01/31 03:34:29.4	92.760	-0.640	0.570	1.180
2020/01/31 03:34:29.5	92.780	-0.640	0.520	1.170
2020/01/31 03:34:29.6	92.810	-0.630	0.450	1.160
2020/01/31 03:34:29.7	92.840	-0.620	0.380	1.140
2020/01/31 03:34:29.8	92.870	-0.600	0.300	1.120
2020/01/31 03:34:29.9	92.910	-0.570	0.210	1.100
2020/01/31 03:34:30.0	92.950	-0.540	0.120	1.080
2020/01/31 03:34:30.1	92.980	-0.500	0.010	1.050
2020/01/31 03:34:30.2	93.010	-0.460	-0.090	1.030
2020/01/31 03:34:30.3	93.050	-0.410	-0.200	1.020
2020/01/31 03:34:30.4	93.090	-0.360	-0.310	1.010
2020/01/31 03:34:30.5	93.120	-0.310	-0.420	1.000
2020/01/31 03:34:30.6	93.150	-0.250	-0.530	0.990
2020/01/31 03:34:30.7	93.180	-0.190	-0.640	0.990
2020/01/31 03:34:30.8	93.200	-0.130	-0.750	0.990
2020/01/31 03:34:30.9	93.220	-0.070	-0.850	1.000
2020/01/31 03:34:31.0	93.230	-0.010	-0.950	1.010
2020/01/31 03:34:31.1	93.240	0.040	-1.040	1.030
2020/01/31 03:34:31.2	93.250	0.100	-1.120	1.050
2020/01/31 03:34:31.3	93.250	0.150	-1.190	1.070
2020/01/31 03:34:31.4	93.250	0.190	-1.240	1.090
2020/01/31 03:34:31.5	93.250	0.230	-1.290	1.110
2020/01/31 03:34:31.6	93.250	0.260	-1.320	1.130
2020/01/31 03:34:31.7	93.240	0.290	-1.340	1.160
2020/01/31 03:34:31.8	93.230	0.300	-1.340	1.180
2020/01/31 03:34:31.9	93.210	0.320	-1.330	1.200
2020/01/31 03:34:32.0	93.200	0.320	-1.300	1.230
2020/01/31 03:34:32.1	93.190	0.320	-1.270	1.250
2020/01/31 03:34:32.2	93.170	0.300	-1.210	1.270
2020/01/31 03:34:32.3	93.140	0.290	-1.140	1.290
2020/01/31 03:34:32.4	93.120	0.260	-1.060	1.310
2020/01/31 03:34:32.5	93.100	0.230	-0.970	1.330
2020/01/31 03:34:32.6	93.080	0.190	-0.870	1.350
2020/01/31 03:34:32.7	93.050	0.140	-0.750	1.370
2020/01/31 03:34:32.8	93.020	0.090	-0.630	1.380
2020/01/31 03:34:32.9	93.000	0.030	-0.500	1.400
2020/01/31 03:34:33.0	92.970	-0.030	-0.370	1.410
2020/01/31 03:34:33.1	92.930	-0.100	-0.220	1.430
2020/01/31 03:34:33.2	92.910	-0.170	-0.080	1.440
2020/01/31 03:34:33.3	92.880	-0.240	0.070	1.450
2020/01/31 03:34:33.4	92.850	-0.310	0.210	1.460
2020/01/31 03:34:33.5	92.820	-0.380	0.350	1.470
2020/01/31 03:34:33.6	92.800	-0.450	0.490	1.480
2020/01/31 03:34:33.7	92.770	-0.520	0.620	1.480
2020/01/31 03:34:33.8	92.740	-0.590	0.750	1.480
2020/01/31 03:34:33.9	92.720	-0.650	0.860	1.490
2020/01/31 03:34:34.0	92.690	-0.710	0.960	1.480
2020/01/31 03:34:34.1	92.680	-0.760	1.060	1.480
2020/01/31 03:34:34.2	92.660	-0.810	1.130	1.470
2020/01/31 03:34:34.3	92.640	-0.850	1.190	1.460
2020/01/31 03:34:34.4	92.620	-0.880	1.240	1.440
2020/01/31 03:34:34.5	92.600	-0.910	1.260	1.420
2020/01/31 03:34:34.6	92.590	-0.920	1.270	1.390
2020/01/31 03:34:34.7	92.570	-0.920	1.260	1.360
2020/01/31 03:34:34.8	92.560	-0.920	1.230	1.320
2020/01/31 03:34:34.9	92.550	-0.900	1.180	1.280
2020/01/31 03:34:35.0	92.550	-0.870	1.120	1.230
2020/01/31 03:34:35.1	92.570	-0.840	1.030	1.180
2020/01/31 03:34:35.2	92.570	-0.790	0.930	1.120
2020/01/31 03:34:35.3	92.570	-0.740	0.820	1.060
2020/01/31 03:34:35.4	92.580	-0.670	0.690	0.990
2020/01/31 03:34:35.5	92.590	-0.600	0.550	0.920
2020/01/31 03:34:35.6	92.600	-0.520	0.400	0.840
2020/01/31 03:34:35.7	92.610	-0.440	0.250	0.760
2020/01/31 03:34:35.8	92.630	-0.350	0.090	0.680
2020/01/31 03:34:35.9	92.640	-0.260	-0.070	0.600
2020/01/31 03:34:36.0	92.660	-0.160	-0.240	0.520
2020/01/31 03:34:36.1	92.680	-0.060	-0.410	0.440
2020/01/31 03:34:36.2	92.700	0.040	-0.560	0.370
2020/01/31 03:34:36.3	92.720	0.140	-0.720	0.290
2020/01/31 03:34:36.4	92.740	0.240	-0.860	0.220
2020/01/31 03:34:36.5	92.770	0.330	-1.000	0.160
2020/01/31 03:34:36.6	92.790	0.430	-1.120	0.100
2020/01/31 03:34:36.7	92.810	0.510	-1.230	0.040
2020/01/31 03:34:36.8	92.840	0.600	-1.330	-0.010
2020/01/31 03:34:36.9	92.860	0.680	-1.410	-0.060
2020/01/31 03:34:37.0	92.880	0.750	-1.480	-0.100
2020/01/31 03:34:37.1	92.890	0.810	-1.540	-0.130
2020/01/31 03:34:37.2	92.910	0.870	-1.570	-0.160
2020/01/31 03:34:37.3	92.940	0.920	-1.590	-0.190
2020/01/31 03:34:37.4	92.950	0.960	-1.600	-0.200
2020/01/31 03:34:37.5	92.970	1.000	-1.580	-0.210
2020/01/31 03:34:37.6	92.990	1.020	-1.550	-0.220
2020/01/31 03:34:37.7	93.010	1.040	-1.510	-0.220
2020/01/31 03:34:37.8	93.020	1.040	-1.440	-0.220
2020/01/31 03:34:37.9	93.030	1.040	-1.370	-0.210
2020/01/31 03:34:38.0	93.040	1.030	-1.280	-0.200
2020/01/31 03:34:38.1	93.040	1.010	-1.170	-0.180
2020/01/31 03:34:38.2	93.040	0.990	-1.060	-0.160
2020/01/31 03:34:38.3	93.040	0.960	-0.940	-0.140
2020/01/31 03:34:38.4	93.040	0.920	-0.810	-0.110
2020/01/31 03:34:38.5	93.040	0.870	-0.670	-0.090
2020/01/31 03:34:38.6	93.040	0.820	-0.530	-0.060
2020/01/31 03:34:38.7	93.030	0.760	-0.390	-0.020
2020/01/31 03:34:38.8	93.020	0.700	-0.240	0.010
2020/01/31 03:34:38.9	93.010	0.640	-0.100	0.050
2020/01/31 03:34:39.0	93.010	0.580	0.030	0.080
2020/01/31 03:34:39.1	93.010	0.510	0.170	0.120
2020/01/31 03:34:39.2	93.000	0.440	0.300	0.150
2020/01/31 03:34:39.3	92.990	0.370	0.420	0.190
2020/01/31 03:34:39.4	92.990	0.300	0.530	0.230
2020/01/31 03:34:39.5	92.980	0.230	0.630	0.260
2020/01/31 03:34:39.6	92.970	0.170	0.720	0.300
2020/01/31 03:34:39.7	92.960	0.100	0.800	0.340
2020/01/31 03:34:39.8	92.960	0.040	0.860	0.370
2020/01/31 03:34:39.9	92.950	-0.020	0.910	0.410
2020/01/31 03:34:40.0	92.950	-0.080	0.950	0.440
2020/01/31 03:34:40.1	92.970	-0.130	0.980	0.480
2020/01/31 03:34:40.2	92.970	-0.180	0.990	0.510
2020/01/31 03:34:40.3	92.970	-0.220	0.990	0.540
2020/01/31 03:34:40.4	92.970	-0.260	0.980	0.570
2020/01/31 03:34:40.5	92.970	-0.300	0.950	0.600
2020/01/31 03:34:40.6	92.970	-0.330	0.920	0.630
2020/01/31 03:34:40.7	92.980	-0.360	0.870	0.660
2020/01/31 03:34:40.8	92.980	-0.380	0.810	0.680
2020/01/31 03:34:40.9	92.990	-0.400	0.750	0.700
2020/01/31 03:34:41.0	92.990	-0.410	0.670	0.720
2020/01/31 03:34:41.1	93.000	-0.420	0.590	0.740
2020/01/31 03:34:41.2	93.010	-0.420	0.500	0.760
2020/01/31 03:34:41.3	93.020	-0.430	0.410	0.770
2020/01/31 03:34:41.4	93.030	-0.420	0.310	0.790
2020/01/31 03:34:41.5	93.030	-0.420	0.220	0.800
2020/01/31 03:34:41.6	93.040	-0.410	0.120	0.810
2020/01/31 03:34:41.7	93.050	-0.400	0.020	0.830
2020/01/31 03:34:41.8	93.050	-0.390	-0.080	0.840
2020/01/31 03:34:41.9	93.060	-0.380	-0.170	0.850
2020/01/31 03:34:42.0	93.070	-0.360	-0.270	0.860
2020/01/31 03:34:42.1	93.060	-0.350	-0.360	0.870
2020/01/31 03:34:42.2	93.060	-0.330	-0.450	0.880
2020/01/31 03:34:42.3	93.070	-0.310	-0.530	0.900
2020/01/31 03:34:42.4	93.070	-0.280	-0.600	0.910
2020/01/31 03:34:42.5	93.080	-0.260	-0.670	0.920
2020/01/31 03:34:42.6	93.080	-0.240	-0.740	0.940
2020/01/31 03:34:42.7	93.090	-0.220	-0.800	0.950
2020/01/31 03:34:42.8	93.090	-0.190	-0.850	0.970
2020/01/31 03:34:42.9	93.100	-0.170	-0.890	0.990
2020/01/31 03:34:43.0	93.110	-0.150	-0.930	1.010
2020/01/31 03:34:43.1	93.100	-0.130	-0.960	1.020
2020/01/31 03:34:43.2	93.110	-0.100	-0.990	1.040
2020/01/31 03:34:43.3	93.120	-0.080	-1.010	1.060
2020/01/31 03:34:43.4	93.130	-0.060	-1.030	1.070
2020/01/31 03:34:43.5	93.150	-0.040	-1.040	1.090
2020/01/31 03:34:43.6	93.160	-0.020	-1.040	1.110
2020/01/31 03:34:43.7	93.170	0.000	-1.040	1.120
2020/01/31 03:34:43.8	93.190	0.020	-1.040	1.140
2020/01/31 03:34:43.9	93.210	0.040	-1.030	1.150
2020/01/31 03:34:44.0	93.220	0.060	-1.020	1.160
2020/01/31 03:34:44.1	93.250	0.070	-1.010	1.180
2020/01/31 03:34:44.2	93.260	0.090	-1.000	1.190
2020/01/31 03:34:44.3	93.280	0.100	-0.980	1.200
2020/01/31 03:34:44.4	93.300	0.110	-0.960	1.210
2020/01/31 03:34:44.5	93.310	0.130	-0.940	1.220
2020/01/31 03:34:44.6	93.330	0.140	-0.910	1.230
2020/01/31 03:34:44.7	93.340	0.150	-0.890	1.250
2020/01/31 03:34:44.8	93.350	0.150	-0.860	1.260
2020/01/31 03:34:44.9	93.360	0.160	-0.830	1.270
2020/01/31 03:34:45.0	93.360	0.170	-0.810	1.280
2020/01/31 03:34:45.1	93.350	0.170	-0.770	1.290
2020/01/31 03:34:45.2	93.350	0.170	-0.740	1.300
2020/01/31 03:34:45.3	93.350	0.180	-0.710	1.310
2020/01/31 03:34:45.4	93.350	0.180	-0.680	1.320
2020/01/31 03:34:45.5	93.350	0.180	-0.640	1.320
2020/01/31 03:34:45.6	93.340	0.170	-0.610	1.330
2020/01/31 03:34:45.7	93.340	0.170	-0.570	1.340
2020/01/31 03:34:45.8	93.330	0.170	-0.530	1.340
2020/01/31 03:34:45.9	93.320	0.160	-0.490	1.350
2020/01/31 03:34:46.0	93.310	0.160	-0.450	1.350
2020/01/31 03:34:46.1	93.310	0.150	-0.400	1.350
2020/01/31 03:34:46.2	93.300	0.150	-0.350	1.340
2020/01/31 03:34:46.3	93.290	0.140	-0.300	1.340
2020/01/31 03:34:46.4	93.280	0.130	-0.250	1.330
2020/01/31 03:34:46.5	93.280	0.120	-0.200	1.320
2020/01/31 03:34:46.6	93.270	0.110	-0.140	1.300
2020/01/31 03:34:46.7	93.260	0.100	-0.080	1.280
2020/01/31 03:34:46.8	93.260	0.080	-0.020	1.260
2020/01/31 03:34:46.9	93.260	0.070	0.040	1.240
2020/01/31 03:34:47.0	93.250	0.050	0.110	1.210
2020/01/31 03:34:47.1	93.260	0.040	0.180	1.180
2020/01/31 03:34:47.2	93.260	0.020	0.250	1.150
2020/01/31 03:34:47.3	93.260	0.000	0.320	1.120
2020/01/31 03:34:47.4	93.260	-0.010	0.390	1.080
2020/01/31 03:34:47.5	93.270	-0.030	0.460	1.040
2020/01/31 03:34:47.6	93.270	-0.050	0.520	1.000
2020/01/31 03:34:47.7	93.280	-0.080	0.590	0.950
2020/01/31 03:34:47.8	93.290	-0.100	0.650	0.910
2020/01/31 03:34:47.9	93.290	-0.120	0.710	0.860
2020/01/31 03:34:48.0	93.300	-0.140	0.760	0.820
2020/01/31 03:34:48.1	93.320	-0.160	0.810	0.770
2020/01/31 03:34:48.2	93.330	-0.180	0.850	0.720
2020/01/31 03:34:48.3	93.340	-0.210	0.890	0.670
2020/01/31 03:34:48.4	93.350	-0.230	0.920	0.620
2020/01/31 03:34:48.5	93.360	-0.240	0.930	0.570
2020/01/31 03:34:48.6	93.360	-0.260	0.940	0.530
2020/01/31 03:34:48.7	93.370	-0.280	0.950	0.480
2020/01/31 03:34:48.8	93.380	-0.290	0.940	0.430
2020/01/31 03:34:48.9	93.390	-0.300	0.920	0.390
2020/01/31 03:34:49.0	93.410	-0.310	0.890	0.340
2020/01/31 03:34:49.1	93.420	-0.320	0.850	0.300
2020/01/31 03:34:49.2	93.440	-0.330	0.810	0.260
2020/01/31 03:34:49.3	93.450	-0.330	0.750	0.220
2020/01/31 03:34:49.4	93.470	-0.330	0.680	0.180
2020/01/31 03:34:49.5	93.490	-0.320	0.610	0.140
2020/01/31 03:34:49.6	93.510	-0.310	0.530	0.100
2020/01/31 03:34:49.7	93.540	-0.300	0.440	0.070
2020/01/31 03:34:49.8	93.560	-0.280	0.340	0.030
2020/01/31 03:34:49.9	93.590	-0.260	0.240	-0.010
2020/01/31 03:34:50.0	93.620	-0.240	0.130	-0.040
2020/01/31 03:34:50.1	93.650	-0.210	0.020	-0.080
2020/01/31 03:34:50.2	93.690	-0.180	-0.090	-0.110
2020/01/31 03:34:50.3	93.720	-0.150	-0.200	-0.150
2020/01/31 03:34:50.4	93.760	-0.110	-0.310	-0.170
2020/01/31 03:34:50.5	93.800	-0.070	-0.420	-0.200
2020/01/31 03:34:50.6	93.840	-0.030	-0.530	-0.220
2020/01/31 03:34:50.7	93.880	0.010	-0.630	-0.240
2020/01/31 03:34:50.8	93.920	0.050	-0.730	-0.260
2020/01/31 03:34:50.9	93.950	0.090	-0.820	-0.270
2020/01/31 03:34:51.0	93.990	0.140	-0.910	-0.270
2020/01/31 03:34:51.1	94.020	0.180	-0.990	-0.280
2020/01/31 03:34:51.2	94.060	0.220	-1.050	-0.270
2020/01/31 03:34:51.3	94.080	0.260	-1.110	-0.260
2020/01/31 03:34:51.4	94.110	0.300	-1.160	-0.240
2020/01/31 03:34:51.5	94.130	0.330	-1.200	-0.220
2020/01/31 03:34:51.6	94.150	0.370	-1.220	-0.190
2020/01/31 03:34:51.7	94.170	0.390	-1.240	-0.150
2020/01/31 03:34:51.8	94.180	0.420	-1.240	-0.120
2020/01/31 03:34:51.9	94.190	0.430	-1.230	-0.080
2020/01/31 03:34:52.0	94.200	0.450	-1.210	-0.030
2020/01/31 03:34:52.1	94.210	0.460	-1.190	0.010
2020/01/31 03:34:52.2	94.220	0.460	-1.150	0.060
2020/01/31 03:34:52.3	94.220	0.460	-1.100	0.110
2020/01/31 03:34:52.4	94.220	0.450	-1.040	0.160
2020/01/31 03:34:52.5	94.220	0.440	-0.970	0.220
2020/01/31 03:34:52.6	94.210	0.420	-0.900	0.270
2020/01/31 03:34:52.7	94.210	0.400	-0.820	0.320
2020/01/31 03:34:52.8	94.200	0.380	-0.740	0.370
2020/01/31 03:34:52.9	94.200	0.350	-0.650	0.430
2020/01/31 03:34:53.0	94.190	0.310	-0.550	0.480
2020/01/31 03:34:53.1	94.200	0.270	-0.460	0.530
2020/01/31 03:34:53.2	94.190	0.230	-0.360	0.580
2020/01/31 03:34:53.3	94.180	0.190	-0.270	0.630
2020/01/31 03:34:53.4	94.180	0.150	-0.180	0.680
2020/01/31 03:34:53.5	94.170	0.110	-0.090	0.720
2020/01/31 03:34:53.6	94.170	0.060	-0.010	0.770
2020/01/31 03:34:53.7	94.160	0.020	0.070	0.810
2020/01/31 03:34:53.8	94.160	-0.030	0.140	0.850
2020/01/31 03:34:53.9	94.150	-0.070	0.200	0.880
2020/01/31 03:34:54.0	94.150	-0.110	0.260	0.920
2020/01/31 03:34:54.1	94.130	-0.140	0.300	0.950
2020/01/31 03:34:54.2	94.130	-0.170	0.340	0.980
2020/01/31 03:34:54.3	94.120	-0.200	0.370	1.010
2020/01/31 03:34:54.4	94.120	-0.230	0.390	1.030
2020/01/31 03:34:54.5	94.120	-0.250	0.390	1.060
2020/01/31 03:34:54.6	94.110	-0.270	0.390	1.070
2020/01/31 03:34:54.7	94.110	-0.280	0.370	1.090
2020/01/31 03:34:54.8	94.110	-0.280	0.350	1.100
2020/01/31 03:34:54.9	94.110	-0.280	0.310	1.100
2020/01/31 03:34:55.0	94.110	-0.280	0.270	1.110
2020/01/31 03:34:55.1	94.090	-0.270	0.220	1.100
2020/01/31 03:34:55.2	94.090	-0.250	0.160	1.090
2020/01/31 03:34:55.3	94.090	-0.230	0.090	1.080
2020/01/31 03:34:55.4	94.090	-0.210	0.010	1.070
2020/01/31 03:34:55.5	94.100	-0.180	-0.070	1.050
2020/01/31 03:34:55.6	94.100	-0.140	-0.150	1.030
2020/01/31 03:34:55.7	94.110	-0.110	-0.240	1.010
2020/01/31 03:34:55.8	94.110	-0.070	-0.320	0.990
2020/01/31 03:34:55.9	94.120	-0.020	-0.410	0.960
2020/01/31 03:34:56.0	94.130	0.020	-0.490	0.940
2020/01/31 03:34:56.1	94.140	0.060	-0.580	0.910
2020/01/31 03:34:56.2	94.140	0.110	-0.660	0.880
2020/01/31 03:34:56.3	94.150	0.150	-0.730	0.860
2020/01/31 03:34:56.4	94.160	0.200	-0.790	0.830
2020/01/31 03:34:56.5	94.170	0.240	-0.840	0.810
2020/01/31 03:34:56.6	94.170	0.280	-0.890	0.790
2020/01/31 03:34:56.7	94.180	0.310	-0.920	0.770
2020/01/31 03:34:56.8	94.180	0.340	-0.950	0.750
2020/01/31 03:34:56.9	94.190	0.370	-0.960	0.740
2020/01/31 03:34:57.0	94.190	0.390	-0.960	0.720
2020/01/31 03:34:57.1	94.190	0.410	-0.950	0.710
2020/01/31 03:34:57.2	94.190	0.420	-0.930	0.700
2020/01/31 03:34:57.3	94.190	0.430	-0.890	0.690
2020/01/31 03:34:57.4	94.190	0.430	-0.850	0.690
2020/01/31 03:34:57.5	94.190	0.430	-0.800	0.680
2020/01/31 03:34:57.6	94.190	0.420	-0.730	0.680
2020/01/31 03:34:57.7	94.190	0.400	-0.660	0.680
2020/01/31 03:34:57.8	94.190	0.380	-0.580	0.680
2020/01/31 03:34:57.9	94.190	0.350	-0.500	0.680
2020/01/31 03:34:58.0	94.180	0.320	-0.410	0.680
2020/01/31 03:34:58.1	94.170	0.280	-0.310	0.680
2020/01/31 03:34:58.2	94.170	0.240	-0.210	0.680
2020/01/31 03:34:58.3	94.160	0.200	-0.110	0.680
2020/01/31 03:34:58.4	94.160	0.150	-0.010	0.680
2020/01/31 03:34:58.5	94.150	0.100	0.090	0.680
2020/01/31 03:34:58.6	94.140	0.050	0.180	0.680
2020/01/31 03:34:58.7	94.140	-0.010	0.270	0.680
2020/01/31 03:34:58.8	94.130	-0.060	0.360	0.670
2020/01/31 03:34:58.9	94.130	-0.110	0.440	0.670
2020/01/31 03:34:59.0	94.120	-0.160	0.510	0.670
2020/01/31 03:34:59.1	94.120	-0.210	0.570	0.660
2020/01/31 03:34:59.2	94.110	-0.260	0.620	0.650
2020/01/31 03:34:59.3	94.110	-0.300	0.670	0.650
2020/01/31 03:34:59.4	94.110	-0.340	0.700	0.640
2020/01/31 03:34:59.5	94.110	-0.370	0.720	0.630
2020/01/31 03:34:59.6	94.110	-0.400	0.730	0.620
2020/01/31 03:34:59.7	94.120	-0.420	0.720	0.620
2020/01/31 03:34:59.8	94.120	-0.440	0.710	0.610
2020/01/31 03:34:59.9	94.120	-0.450	0.680	0.600
2020/01/31 03:35:00.0	94.130	-0.460	0.650	0.590
2020/01/31 03:35:00.1	94.130	-0.460	0.600	0.580
2020/01/31 03:35:00.2	94.140	-0.460	0.540	0.570
2020/01/31 03:35:00.3	94.150	-0.440	0.470	0.560
2020/01/31 03:35:00.4	94.160	-0.430	0.400	0.550
2020/01/31 03:35:00.5	94.180	-0.400	0.320	0.530
2020/01/31 03:35:00.6	94.190	-0.380	0.230	0.520
2020/01/31 03:35:00.7	94.210	-0.340	0.130	0.510
2020/01/31 03:35:00.8	94.230	-0.310	0.030	0.500
2020/01/31 03:35:00.9	94.250	-0.270	-0.070	0.480
2020/01/31 03:35:01.0	94.270	-0.220	-0.170	0.470
2020/01/31 03:35:01.1	94.280	-0.180	-0.280	0.460
2020/01/31 03:35:01.2	94.300	-0.130	-0.380	0.450
2020/01/31 03:35:01.3	94.320	-0.080	-0.490	0.450
2020/01/31 03:35:01.4	94.350	-0.030	-0.580	0.440
2020/01/31 03:35:01.5	94.370	0.020	-0.680	0.440
2020/01/31 03:35:01.6	94.390	0.080	-0.770	0.440
2020/01/31 03:35:01.7	94.410	0.120	-0.840	0.450
2020/01/31 03:35:01.8	94.430	0.170	-0.910	0.450
2020/01/31 03:35:01.9	94.450	0.210	-0.970	0.460
2020/01/31 03:35:02.0	94.470	0.250	-1.020	0.470
2020/01/31 03:35:02.1	94.490	0.290	-1.060	0.490
2020/01/31 03:35:02.2	94.500	0.320	-1.090	0.510
2020/01/31 03:35:02.3	94.520	0.350	-1.100	0.530
2020/01/31 03:35:02.4	94.530	0.370	-1.090	0.550
2020/01/31 03:35:02.5	94.540	0.380	-1.070	0.570
2020/01/31 03:35:02.6	94.540	0.390	-1.040	0.600
2020/01/31 03:35:02.7	94.550	0.390	-0.990	0.630
2020/01/31 03:35:02.8	94.550	0.380	-0.940	0.650
2020/01/31 03:35:02.9	94.550	0.370	-0.870	0.680
2020/01/31 03:35:03.0	94.550	0.360	-0.790	0.710
2020/01/31 03:35:03.1	94.550	0.330	-0.690	0.740
2020/01/31 03:35:03.2	94.550	0.310	-0.600	0.770
2020/01/31 03:35:03.3	94.540	0.270	-0.500	0.790
2020/01/31 03:35:03.4	94.540	0.230	-0.390	0.820
2020/01/31 03:35:03.5	94.530	0.190	-0.280	0.840
2020/01/31 03:35:03.6	94.520	0.140	-0.160	0.860
2020/01/31 03:35:03.7	94.500	0.090	-0.050	0.880
2020/01/31 03:35:03.8	94.490	0.040	0.070	0.900
2020/01/31 03:35:03.9	94.480	-0.010	0.170	0.910
2020/01/31 03:35:04.0	94.460	-0.070	0.280	0.920
2020/01/31 03:35:04.1	94.470	-0.120	0.380	0.920
2020/01/31 03:35:04.2	94.460	-0.180	0.470	0.930
2020/01/31 03:35:04.3	94.440	-0.230	0.560	0.920
2020/01/31 03:35:04.4	94.430	-0.280	0.630	0.920
2020/01/31 03:35:04.5	94.420	-0.320	0.690	0.910
2020/01/31 03:35:04.6	94.410	-0.370	0.740	0.890
2020/01/31 03:35:04.7	94.400	-0.400	0.770	0.880
2020/01/31 03:35:04.8	94.390	-0.440	0.790	0.860
2020/01/31 03:35:04.9	94.380	-0.460	0.800	0.830
2020/01/31 03:35:05.0	94.380	-0.480	0.800	0.800
2020/01/31 03:35:05.1	94.360	-0.500	0.780	0.780
2020/01/31 03:35:05.2	94.360	-0.510	0.750	0.750
2020/01/31 03:35:05.3	94.360	-0.510	0.710	0.720
2020/01/31 03:35:05.4	94.350	-0.500	0.650	0.690
2020/01/31 03:35:05.5	94.350	-0.490	0.590	0.650
2020/01/31 03:35:05.6	94.350	-0.470	0.510	0.630
2020/01/31 03:35:05.7	94.350	-0.440	0.430	0.600
2020/01/31 03:35:05.8	94.360	-0.410	0.340	0.570
2020/01/31 03:35:05.9	94.360	-0.370	0.250	0.550
2020/01/31 03:35:06.0	94.360	-0.330	0.150	0.530
2020/01/31 03:35:06.1	94.360	-0.290	0.040	0.510
2020/01/31 03:35:06.2	94.360	-0.240	-0.060	0.490
2020/01/31 03:35:06.3	94.360	-0.180	-0.160	0.480
2020/01/31 03:35:06.4	94.360	-0.130	-0.260	0.460
2020/01/31 03:35:06.5	94.360	-0.070	-0.360	0.450
2020/01/31 03:35:06.6	94.360	-0.010	-0.450	0.450
2020/01/31 03:35:06.7	94.360	0.040	-0.540	0.440
2020/01/31 03:35:06.8	94.350	0.100	-0.630	0.430
2020/01/31 03:35:06.9	94.350	0.160	-0.710	0.430
2020/01/31 03:35:07.0	94.350	0.220	-0.780	0.420
2020/01/31 03:35:07.1	94.350	0.270	-0.850	0.410
2020/01/31 03:35:07.2	94.350	0.320	-0.910	0.410
2020/01/31 03:35:07.3	94.350	0.370	-0.970	0.400
2020/01/31 03:35:07.4	94.350	0.420	-1.020	0.400
2020/01/31 03:35:07.5	94.350	0.460	-1.050	0.390
2020/01/31 03:35:07.6	94.350	0.490	-1.090	0.390
2020/01/31 03:35:07.7	94.350	0.530	-1.110	0.390
2020/01/31 03:35:07.8	94.350	0.560	-1.130	0.380
2020/01/31 03:35:07.9	94.360	0.580	-1.140	0.380
2020/01/31 03:35:08.0	94.360	0.600	-1.140	0.380
2020/01/31 03:35:08.1	94.380	0.610	-1.130	0.390
2020/01/31 03:35:08.2	94.380	0.620	-1.120	0.390
2020/01/31 03:35:08.3	94.390	0.630	-1.100	0.390
2020/01/31 03:35:08.4	94.400	0.630	-1.080	0.400
2020/01/31 03:35:08.5	94.410	0.620	-1.040	0.400
2020/01/31 03:35:08.6	94.420	0.610	-1.010	0.410
2020/01/31 03:35:08.7	94.430	0.590	-0.960	0.420
2020/01/31 03:35:08.8	94.440	0.570	-0.910	0.430
2020/01/31 03:35:08.9	94.450	0.550	-0.860	0.450
2020/01/31 03:35:09.0	94.460	0.520	-0.800	0.470
2020/01/31 03:35:09.1	94.460	0.490	-0.740	0.480
2020/01/31 03:35:09.2	94.470	0.460	-0.670	0.500
2020/01/31 03:35:09.3	94.480	0.420	-0.600	0.530
2020/01/31 03:35:09.4	94.490	0.380	-0.520	0.550
2020/01/31 03:35:09.5	94.490	0.330	-0.450	0.580
2020/01/31 03:35:09.6	94.490	0.290	-0.370	0.610
2020/01/31 03:35:09.7	94.490	0.240	-0.290	0.630
2020/01/31 03:35:09.8	94.490	0.190	-0.210	0.670
2020/01/31 03:35:09.9	94.490	0.140	-0.130	0.700
2020/01/31 03:35:10.0	94.490	0.090	-0.060	0.730
2020/01/31 03:35:10.1	94.440	0.040	0.020	0.770
2020/01/31 03:35:10.2	94.430	-0.010	0.090	0.800
2020/01/31 03:35:10.3	94.420	-0.060	0.160	0.840
2020/01/31 03:35:10.4	94.410	-0.110	0.220	0.880
2020/01/31 03:35:10.5	94.400	-0.160	0.280	0.910
2020/01/31 03:35:10.6	94.390	-0.200	0.340	0.950
2020/01/31 03:35:10.7	94.370	-0.240	0.380	0.980
2020/01/31 03:35:10.8	94.360	-0.280	0.420	1.010
2020/01/31 03:35:10.9	94.350	-0.320	0.450	1.040
2020/01/31 03:35:11.0	94.330	-0.350	0.480	1.070
2020/01/31 03:35:11.1	94.300	-0.380	0.500	1.090
2020/01/31 03:35:11.2	94.300	-0.410	0.510	1.110
2020/01/31 03:35:11.3	94.290	-0.430	0.510	1.130
2020/01/31 03:35:11.4	94.280	-0.450	0.500	1.140
2020/01/31 03:35:11.5	94.280	-0.460	0.490	1.150
2020/01/31 03:35:11.6	94.280	-0.470	0.470	1.150
2020/01/31 03:35:11.7	94.290	-0.480	0.440	1.150
2020/01/31 03:35:11.8	94.300	-0.480	0.410	1.150
2020/01/31 03:35:11.9	94.310	-0.480	0.370	1.140
2020/01/31 03:35:12.0	94.330	-0.470	0.330	1.130
2020/01/31 03:35:12.1	94.360	-0.460	0.270	1.110
2020/01/31 03:35:12.2	94.380	-0.450	0.220	1.090
2020/01/31 03:35:12.3	94.410	-0.430	0.170	1.070
2020/01/31 03:35:12.4	94.440	-0.410	0.110	1.050
2020/01/31 03:35:12.5	94.480	-0.390	0.050	1.020
2020/01/31 03:35:12.6	94.520	-0.360	-0.010	0.990
2020/01/31 03:35:12.7	94.560	-0.330	-0.070	0.960
2020/01/31 03:35:12.8	94.600	-0.300	-0.120	0.930
2020/01/31 03:35:12.9	94.640	-0.270	-0.180	0.900
2020/01/31 03:35:13.0	94.690	-0.240	-0.230	0.870
2020/01/31 03:35:13.1	94.740	-0.210	-0.280	0.840
2020/01/31 03:35:13.2	94.780	-0.170	-0.320	0.810
2020/01/31 03:35:13.3	94.830	-0.140	-0.360	0.780
2020/01/31 03:35:13.4	94.870	-0.100	-0.390	0.750
2020/01/31 03:35:13.5	94.910	-0.070	-0.420	0.720
2020/01/31 03:35:13.6	94.950	-0.040	-0.440	0.700
2020/01/31 03:35:13.7	94.990	-0.010	-0.460	0.680
2020/01/31 03:35:13.8	95.020	0.020	-0.460	0.650
2020/01/31 03:35:13.9	95.050	0.040	-0.460	0.630
2020/01/31 03:35:14.0	95.080	0.070	-0.460	0.620
2020/01/31 03:35:14.1	95.120	0.090	-0.450	0.600
2020/01/31 03:35:14.2	95.140	0.110	-0.430	0.590
2020/01/31 03:35:14.3	95.160	0.130	-0.410	0.580
2020/01/31 03:35:14.4	95.180	0.140	-0.380	0.570
2020/01/31 03:35:14.5	95.190	0.150	-0.350	0.570
2020/01/31 03:35:14.6	95.190	0.160	-0.310	0.570
2020/01/31 03:35:14.7	95.200	0.160	-0.270	0.570
2020/01/31 03:35:14.8	95.200	0.170	-0.230	0.570
2020/01/31 03:35:14.9	95.190	0.170	-0.180	0.580
2020/01/31 03:35:15.0	95.190	0.160	-0.140	0.590
2020/01/31 03:35:15.1	95.170	0.160	-0.090	0.600
2020/01/31 03:35:15.2	95.160	0.150	-0.050	0.620
2020/01/31 03:35:15.3	95.150	0.140	-0.000	0.630
2020/01/31 03:35:15.4	95.130	0.130	0.040	0.650
2020/01/31 03:35:15.5	95.110	0.120	0.080	0.670
2020/01/31 03:35:15.6	95.090	0.110	0.110	0.690
2020/01/31 03:35:15.7	95.080	0.100	0.140	0.710
2020/01/31 03:35:15.8	95.060	0.090	0.160	0.730
2020/01/31 03:35:15.9	95.040	0.070	0.180	0.750
2020/01/31 03:35:16.0	95.020	0.060	0.190	0.770
2020/01/31 03:35:16.1	95.010	0.050	0.190	0.780
2020/01/31 03:35:16.2	95.000	0.040	0.180	0.800
2020/01/31 03:35:16.3	94.980	0.040	0.160	0.810
2020/01/31 03:35:16.4	94.970	0.030	0.140	0.820
2020/01/31 03:35:16.5	94.960	0.030	0.100	0.830
2020/01/31 03:35:16.6	94.960	0.030	0.060	0.830
2020/01/31 03:35:16.7	94.950	0.040	0.010	0.830
2020/01/31 03:35:16.8	94.950	0.040	-0.050	0.820
2020/01/31 03:35:16.9	94.950	0.060	-0.110	0.810
2020/01/31 03:35:17.0	94.950	0.070	-0.190	0.800
2020/01/31 03:35:17.1	94.950	0.090	-0.270	0.780
2020/01/31 03:35:17.2	94.960	0.110	-0.350	0.760
2020/01/31 03:35:17.3	94.970	0.130	-0.430	0.740
2020/01/31 03:35:17.4	94.970	0.150	-0.520	0.710
2020/01/31 03:35:17.5	94.980	0.180	-0.600	0.690
2020/01/31 03:35:17.6	94.990	0.210	-0.680	0.660
2020/01/31 03:35:17.7	95.000	0.240	-0.760	0.630
2020/01/31 03:35:17.8	95.010	0.270	-0.830	0.600
2020/01/31 03:35:17.9	95.020	0.290	-0.890	0.570
2020/01/31 03:35:18.0	95.020	0.320	-0.950	0.540
2020/01/31 03:35:18.1	95.030	0.350	-1.000	0.510
2020/01/31 03:35:18.2	95.030	0.370	-1.030	0.480
2020/01/31 03:35:18.3	95.040	0.390	-1.060	0.450
2020/01/31 03:35:18.4	95.050	0.410	-1.070	0.430
2020/01/31 03:35:18.5	95.050	0.420	-1.070	0.400
2020/01/31 03:35:18.6	95.060	0.430	-1.050	0.380
2020/01/31 03:35:18.7	95.070	0.440	-1.030	0.360
2020/01/31 03:35:18.8	95.070	0.440	-0.990	0.350
2020/01/31 03:35:18.9	95.080	0.430	-0.950	0.330
2020/01/31 03:35:19.0	95.080	0.420	-0.890	0.330
2020/01/31 03:35:19.1	95.070	0.410	-0.820	0.320
2020/01/31 03:35:19.2	95.080	0.390	-0.740	0.320
2020/01/31 03:35:19.3	95.080	0.370	-0.660	0.320
2020/01/31 03:35:19.4	95.090	0.340	-0.570	0.330
2020/01/31 03:35:19.5	95.090	0.310	-0.470	0.340
2020/01/31 03:35:19.6	95.090	0.270	-0.380	0.350
2020/01/31 03:35:19.7	95.100	0.230	-0.280	0.370
2020/01/31 03:35:19.8	95.100	0.190	-0.180	0.400
2020/01/31 03:35:19.9	95.110	0.140	-0.080	0.420
2020/01/31 03:35:20.0	95.120	0.100	0.020	0.450
2020/01/31 03:35:20.1	95.120	0.050	0.120	0.480
2020/01/31 03:35:20.2	95.130	-0.000	0.210	0.510
2020/01/31 03:35:20.3	95.140	-0.050	0.290	0.550
2020/01/31 03:35:20.4	95.150	-0.100	0.370	0.580
2020/01/31 03:35:20.5	95.160	-0.150	0.440	0.610
2020/01/31 03:35:20.6	95.170	-0.200	0.500	0.640
2020/01/31 03:35:20.7	95.190	-0.240	0.550	0.670
2020/01/31 03:35:20.8	95.200	-0.280	0.590	0.700
2020/01/31 03:35:20.9	95.220	-0.320	0.620	0.720
2020/01/31 03:35:21.0	95.240	-0.360	0.640	0.740
2020/01/31 03:35:21.1	95.250	-0.390	0.650	0.770
2020/01/31 03:35:21.2	95.270	-0.410	0.660	0.780
2020/01/31 03:35:21.3	95.290	-0.430	0.650	0.800
2020/01/31 03:35:21.4	95.300	-0.450	0.630	0.810
2020/01/31 03:35:21.5	95.320	-0.470	0.600	0.810
2020/01/31 03:35:21.6	95.330	-0.470	0.560	0.820
2020/01/31 03:35:21.7	95.350	-0.480	0.520	0.820
2020/01/31 03:35:21.8	95.360	-0.480	0.470	0.810
2020/01/31 03:35:21.9	95.370	-0.470	0.410	0.810
2020/01/31 03:35:22.0	95.390	-0.460	0.350	0.800
2020/01/31 03:35:22.1	95.410	-0.450	0.270	0.790
2020/01/31 03:35:22.2	95.420	-0.430	0.200	0.780
2020/01/31 03:35:22.3	95.430	-0.410	0.130	0.760
2020/01/31 03:35:22.4	95.440	-0.380	0.050	0.750
2020/01/31 03:35:22.5	95.450	-0.360	-0.020	0.730
2020/01/31 03:35:22.6	95.450	-0.330	-0.100	0.720
2020/01/31 03:35:22.7	95.460	-0.300	-0.170	0.710
2020/01/31 03:35:22.8	95.460	-0.260	-0.250	0.690
2020/01/31 03:35:22.9	95.460	-0.230	-0.320	0.690
2020/01/31 03:35:23.0	95.460	-0.190	-0.390	0.680
2020/01/31 03:35:23.1	95.460	-0.150	-0.450	0.670
2020/01/31 03:35:23.2	95.450	-0.120	-0.510	0.670
2020/01/31 03:35:23.3	95.450	-0.080	-0.570	0.670
2020/01/31 03:35:23.4	95.450	-0.040	-0.620	0.680
2020/01/31 03:35:23.5	95.440	-0.010	-0.660	0.680
2020/01/31 03:35:23.6	95.440	0.030	-0.710	0.690
2020/01/31 03:35:23.7	95.430	0.060	-0.740	0.700
2020/01/31 03:35:23.8	95.430	0.090	-0.770	0.710
2020/01/31 03:35:23.9	95.420	0.120	-0.790	0.720
2020/01/31 03:35:24.0	95.420	0.150	-0.810	0.730
2020/01/31 03:35:24.1	95.420	0.170	-0.830	0.740
2020/01/31 03:35:24.2	95.410	0.190	-0.830	0.740
2020/01/31 03:35:24.3	95.410	0.210	-0.830	0.750
2020/01/31 03:35:24.4	95.410	0.230	-0.830	0.760
2020/01/31 03:35:24.5	95.410	0.250	-0.820	0.760
2020/01/31 03:35:24.6	95.420	0.260	-0.810	0.760
2020/01/31 03:35:24.7	95.420	0.270	-0.800	0.750
2020/01/31 03:35:24.8	95.430	0.280	-0.780	0.740
2020/01/31 03:35:24.9	95.430	0.280	-0.760	0.730
2020/01/31 03:35:25.0	95.440	0.280	-0.730	0.720
2020/01/31 03:35:25.1	95.450	0.290	-0.710	0.700
2020/01/31 03:35:25.2	95.460	0.290	-0.680	0.680
2020/01/31 03:35:25.3	95.470	0.280	-0.650	0.660
2020/01/31 03:35:25.4	95.480	0.280	-0.620	0.630
2020/01/31 03:35:25.5	95.490	0.270	-0.590	0.610
2020/01/31 03:35:25.6	95.510	0.270	-0.560	0.580
2020/01/31 03:35:25.7	95.520	0.260	-0.530	0.550
2020/01/31 03:35:25.8	95.530	0.250	-0.500	0.520
2020/01/31 03:35:25.9	95.540	0.240	-0.470	0.490
2020/01/31 03:35:26.0	95.550	0.230	-0.440	0.470
2020/01/31 03:35:26.1	95.570	0.220	-0.410	0.430
2020/01/31 03:35:26.2	95.580	0.210	-0.390	0.410
2020/01/31 03:35:26.3	95.600	0.200	-0.360	0.390
2020/01/31 03:35:26.4	95.610	0.190	-0.330	0.370
2020/01/31 03:35:26.5	95.620	0.180	-0.300	0.350
2020/01/31 03:35:26.6	95.630	0.170	-0.270	0.340
2020/01/31 03:35:26.7	95.630	0.150	-0.250	0.330
2020/01/31 03:35:26.8	95.640	0.140	-0.220	0.320
2020/01/31 03:35:26.9	95.650	0.120	-0.190	0.320
2020/01/31 03:35:27.0	95.650	0.110	-0.160	0.320
2020/01/31 03:35:27.1	95.650	0.090	-0.120	0.330
2020/01/31 03:35:27.2	95.650	0.070	-0.090	0.340
2020/01/31 03:35:27.3	95.650	0.050	-0.050	0.350
2020/01/31 03:35:27.4	95.650	0.030	-0.010	0.370
2020/01/31 03:35:27.5	95.650	0.010	0.030	0.390
2020/01/31 03:35:27.6	95.640	-0.020	0.070	0.420
2020/01/31 03:35:27.7	95.640	-0.050	0.120	0.440
2020/01/31 03:35:27.8	95.630	-0.080	0.160	0.470
2020/01/31 03:35:27.9	95.630	-0.110	0.210	0.490
2020/01/31 03:35:28.0	95.620	-0.140	0.260	0.520
2020/01/31 03:35:28.1	95.590	-0.170	0.310	0.550
2020/01/31 03:35:28.2	95.590	-0.210	0.370	0.570
2020/01/31 03:35:28.3	95.580	-0.240	0.420	0.590
2020/01/31 03:35:28.4	95.570	-0.280	0.470	0.620
2020/01/31 03:35:28.5	95.560	-0.320	0.510	0.640
2020/01/31 03:35:28.6	95.550	-0.350	0.560	0.660
2020/01/31 03:35:28.7	95.530	-0.390	0.600	0.670
2020/01/31 03:35:28.8	95.520	-0.430	0.640	0.690
2020/01/31 03:35:28.9	95.510	-0.460	0.680	0.700
2020/01/31 03:35:29.0	95.500	-0.490	0.710	0.710
2020/01/31 03:35:29.1	95.490	-0.520	0.730	0.720
2020/01/31 03:35:29.2	95.480	-0.550	0.740	0.720
2020/01/31 03:35:29.3	95.470	-0.570	0.750	0.730
2020/01/31 03:35:29.4	95.460	-0.590	0.750	0.740
2020/01/31 03:35:29.5	95.450	-0.610	0.740	0.740
2020/01/31 03:35:29.6	95.440	-0.620	0.730	0.740
2020/01/31 03:35:29.7	95.430	-0.630	0.700	0.750
2020/01/31 03:35:29.8	95.420	-0.630	0.660	0.750
2020/01/31 03:35:29.9	95.410	-0.630	0.610	0.750
2020/01/31 03:35:30.0	95.410	-0.620	0.560	0.750
2020/01/31 03:35:30.1	95.400	-0.600	0.490	0.750
2020/01/31 03:35:30.2	95.390	-0.580	0.420	0.750
2020/01/31 03:35:30.3	95.390	-0.560	0.340	0.750
2020/01/31 03:35:30.4	95.380	-0.530	0.250	0.750
2020/01/31 03:35:30.5	95.380	-0.490	0.160	0.750
2020/01/31 03:35:30.6	95.380	-0.450	0.060	0.740
2020/01/31 03:35:30.7	95.380	-0.410	-0.040	0.740
2020/01/31 03:35:30.8	95.390	-0.360	-0.150	0.730
2020/01/31 03:35:30.9	95.390	-0.310	-0.250	0.720
2020/01/31 03:35:31.0	95.400	-0.250	-0.360	0.710
2020/01/31 03:35:31.1	95.400	-0.200	-0.470	0.700
2020/01/31 03:35:31.2	95.410	-0.140	-0.580	0.690
2020/01/31 03:35:31.3	95.420	-0.080	-0.680	0.680
2020/01/31 03:35:31.4	95.420	-0.010	-0.780	0.670
2020/01/31 03:35:31.5	95.430	0.050	-0.880	0.660
2020/01/31 03:35:31.6	95.430	0.110	-0.970	0.650
2020/01/31 03:35:31.7	95.430	0.170	-1.050	0.640
2020/01/31 03:35:31.8	95.440	0.230	-1.130	0.620
2020/01/31 03:35:31.9	95.440	0.290	-1.200	0.610
2020/01/31 03:35:32.0	95.430	0.340	-1.260	0.590
2020/01/31 03:35:32.1	95.450	0.400	-1.310	0.580
2020/01/31 03:35:32.2	95.440	0.450	-1.360	0.560
2020/01/31 03:35:32.3	95.440	0.500	-1.390	0.550
2020/01/31 03:35:32.4	95.430	0.540	-1.410	0.540
2020/01/31 03:35:32.5	95.420	0.590	-1.430	0.530
2020/01/31 03:35:32.6	95.410	0.620	-1.430	0.520
2020/01/31 03:35:32.7	95.400	0.660	-1.430	0.510
2020/01/31 03:35:32.8	95.380	0.680	-1.420	0.510
2020/01/31 03:35:32.9	95.370	0.710	-1.400	0.500
2020/01/31 03:35:33.0	95.360	0.730	-1.370	0.500
2020/01/31 03:35:33.1	95.340	0.740	-1.320	0.500
2020/01/31 03:35:33.2	95.330	0.760	-1.280	0.510
2020/01/31 03:35:33.3	95.320	0.760	-1.220	0.520
2020/01/31 03:35:33.4	95.310	0.760	-1.160	0.530
2020/01/31 03:35:33.5	95.290	0.760	-1.100	0.540
2020/01/31 03:35:33.6	95.280	0.750	-1.030	0.560
2020/01/31 03:35:33.7	95.280	0.740	-0.950	0.580
2020/01/31 03:35:33.8	95.270	0.730	-0.870	0.590
2020/01/31 03:35:33.9	95.260	0.710	-0.790	0.620
2020/01/31 03:35:34.0	95.250	0.690	-0.710	0.640
2020/01/31 03:35:34.1	95.250	0.660	-0.620	0.670
2020/01/31 03:35:34.2	95.250	0.630	-0.530	0.690
2020/01/31 03:35:34.3	95.240	0.600	-0.440	0.720
2020/01/31 03:35:34.4	95.230	0.560	-0.360	0.750
2020/01/31 03:35:34.5	95.230	0.530	-0.270	0.770
2020/01/31 03:35:34.6	95.220	0.490	-0.180	0.800
2020/01/31 03:35:34.7	95.220	0.450	-0.100	0.820
2020/01/31 03:35:34.8	95.210	0.400	-0.010	0.840
2020/01/31 03:35:34.9	95.210	0.360	0.060	0.860
2020/01/31 03:35:35.0	95.200	0.310	0.140	0.880
2020/01/31 03:35:35.1	95.190	0.270	0.210	0.900
2020/01/31 03:35:35.2	95.180	0.220	0.280	0.920
2020/01/31 03:35:35.3	95.180	0.170	0.340	0.930
2020/01/31 03:35:35.4	95.180	0.120	0.400	0.940
2020/01/31 03:35:35.5	95.170	0.080	0.450	0.950
2020/01/31 03:35:35.6	95.170	0.030	0.500	0.960
2020/01/31 03:35:35.7	95.170	-0.020	0.540	0.960
2020/01/31 03:35:35.8	95.170	-0.060	0.580	0.970
2020/01/31 03:35:35.9	95.180	-0.110	0.610	0.970
2020/01/31 03:35:36.0	95.180	-0.150	0.640	0.970
2020/01/31 03:35:36.1	95.180	-0.190	0.660	0.970
2020/01/31 03:35:36.2	95.190	-0.230	0.680	0.960
2020/01/31 03:35:36.3	95.190	-0.280	0.690	0.960
2020/01/31 03:35:36.4	95.200	-0.310	0.700	0.950
2020/01/31 03:35:36.5	95.210	-0.350	0.700	0.950
2020/01/31 03:35:36.6	95.230	-0.390	0.700	0.940
2020/01/31 03:35:36.7	95.240	-0.420	0.700	0.940
2020/01/31 03:35:36.8	95.250	-0.450	0.690	0.930
2020/01/31 03:35:36.9	95.270	-0.480	0.680	0.920
2020/01/31 03:35:37.0	95.280	-0.510	0.660	0.920
2020/01/31 03:35:37.1	95.280	-0.540	0.640	0.910
2020/01/31 03:35:37.2	95.300	-0.560	0.610	0.900
2020/01/31 03:35:37.3	95.310	-0.580	0.580	0.890
2020/01/31 03:35:37.4	95.320	-0.600	0.550	0.890
2020/01/31 03:35:37.5	95.330	-0.610	0.510	0.880
2020/01/31 03:35:37.6	95.340	-0.620	0.470	0.880
2020/01/31 03:35:37.7	95.350	-0.630	0.430	0.870
2020/01/31 03:35:37.8	95.360	-0.630	0.380	0.870
2020/01/31 03:35:37.9	95.360	-0.630	0.330	0.860
2020/01/31 03:35:38.0	95.360	-0.630	0.280	0.860
2020/01/31 03:35:38.1	95.360	-0.620	0.220	0.860
2020/01/31 03:35:38.2	95.360	-0.610	0.160	0.850
2020/01/31 03:35:38.3	95.360	-0.600	0.110	0.850
2020/01/31 03:35:38.4	95.350	-0.580	0.050	0.850
2020/01/31 03:35:38.5	95.350	-0.560	-0.010	0.850
2020/01/31 03:35:38.6	95.340	-0.530	-0.070	0.850
2020/01/31 03:35:38.7	95.330	-0.510	-0.130	0.850
2020/01/31 03:35:38.8	95.320	-0.480	-0.180	0.850
2020/01/31 03:35:38.9	95.310	-0.440	-0.240	0.850
2020/01/31 03:35:39.0	95.300	-0.410	-0.290	0.850
2020/01/31 03:35:39.1	95.290	-0.370	-0.350	0.850
2020/01/31 03:35:39.2	95.280	-0.340	-0.400	0.850
2020/01/31 03:35:39.3	95.260	-0.300	-0.450	0.860
2020/01/31 03:35:39.4	95.250	-0.260	-0.490	0.860
2020/01/31 03:35:39.5	95.230	-0.220	-0.530	0.860
2020/01/31 03:35:39.6	95.220	-0.180	-0.570	0.870
2020/01/31 03:35:39.7	95.200	-0.140	-0.610	0.870
2020/01/31 03:35:39.8	95.180	-0.100	-0.640	0.880
2020/01/31 03:35:39.9	95.170	-0.060	-0.680	0.880
2020/01/31 03:35:40.0	95.150	-0.020	-0.710	0.890
2020/01/31 03:35:40.1	95.130	0.020	-0.740	0.900
2020/01/31 03:35:40.2	95.110	0.060	-0.760	0.910
2020/01/31 03:35:40.3	95.090	0.100	-0.790	0.920
2020/01/31 03:35:40.4	95.070	0.130	-0.810	0.930
2020/01/31 03:35:40.5	95.050	0.170	-0.830	0.940
2020/01/31 03:35:40.6	95.030	0.200	-0.850	0.950
2020/01/31 03:35:40.7	95.010	0.240	-0.870	0.960
2020/01/31 03:35:40.8	94.990	0.270	-0.890	0.970
2020/01/31 03:35:40.9	94.980	0.300	-0.910	0.970
2020/01/31 03:35:41.0	94.970	0.330	-0.920	0.980
2020/01/31 03:35:41.1	94.970	0.360	-0.930	0.980
2020/01/31 03:35:41.2	94.960	0.380	-0.940	0.980
2020/01/31 03:35:41.3	94.960	0.410	-0.950	0.980
2020/01/31 03:35:41.4	94.960	0.430	-0.950	0.970
2020/01/31 03:35:41.5	94.960	0.450	-0.950	0.970
2020/01/31 03:35:41.6	94.970	0.470	-0.950	0.950
2020/01/31 03:35:41.7	94.980	0.480	-0.940	0.940
2020/01/31 03:35:41.8	94.990	0.490	-0.940	0.920
2020/01/31 03:35:41.9	95.000	0.510	-0.920	0.900
2020/01/31 03:35:42.0	95.020	0.520	-0.910	0.880
2020/01/31 03:35:42.1	95.050	0.520	-0.890	0.850
2020/01/31 03:35:42.2	95.070	0.530	-0.860	0.830
2020/01/31 03:35:42.3	95.100	0.530	-0.840	0.800
2020/01/31 03:35:42.4	95.120	0.530	-0.810	0.780
2020/01/31 03:35:42.5	95.150	0.530	-0.770	0.750
2020/01/31 03:35:42.6	95.170	0.520	-0.730	0.720
2020/01/31 03:35:42.7	95.200	0.510	-0.690	0.700
2020/01/31 03:35:42.8	95.220	0.500	-0.640	0.670
2020/01/31 03:35:42.9	95.240	0.480	-0.590	0.650
2020/01/31 03:35:43.0	95.270	0.470	-0.540	0.630
2020/01/31 03:35:43.1	95.280	0.450	-0.480	0.610
2020/01/31 03:35:43.2	95.300	0.430	-0.430	0.600
2020/01/31 03:35:43.3	95.310	0.400	-0.370	0.590
2020/01/31 03:35:43.4	95.320	0.370	-0.300	0.580
2020/01/31 03:35:43.5	95.330	0.340	-0.240	0.570
2020/01/31 03:35:43.6	95.340	0.310	-0.170	0.570
2020/01/31 03:35:43.7	95.340	0.280	-0.100	0.570
2020/01/31 03:35:43.8	95.340	0.240	-0.040	0.580
2020/01/31 03:35:43.9	95.330	0.200	0.030	0.590
2020/01/31 03:35:44.0	95.330	0.160	0.100	0.600
2020/01/31 03:35:44.1	95.320	0.120	0.170	0.610
2020/01/31 03:35:44.2	95.310	0.080	0.230	0.630
2020/01/31 03:35:44.3	95.300	0.030	0.300	0.650
2020/01/31 03:35:44.4	95.290	-0.010	0.360	0.680
2020/01/31 03:35:44.5	95.270	-0.060	0.420	0.710
2020/01/31 03:35:44.6	95.260	-0.100	0.480	0.740
2020/01/31 03:35:44.7	95.250	-0.150	0.530	0.770
2020/01/31 03:35:44.8	95.240	-0.190	0.580	0.800
2020/01/31 03:35:44.9	95.230	-0.240	0.620	0.840
2020/01/31 03:35:45.0	95.220	-0.280	0.670	0.870
2020/01/31 03:35:45.1	95.200	-0.320	0.700	0.910
2020/01/31 03:35:45.2	95.200	-0.360	0.730	0.940
2020/01/31 03:35:45.3	95.190	-0.400	0.760	0.980
2020/01/31 03:35:45.4	95.180	-0.440	0.780	1.010
2020/01/31 03:35:45.5	95.180	-0.470	0.790	1.040
2020/01/31 03:35:45.6	95.170	-0.500	0.800	1.080
2020/01/31 03:35:45.7	95.170	-0.530	0.800	1.110
2020/01/31 03:35:45.8	95.160	-0.550	0.790	1.140
2020/01/31 03:35:45.9	95.150	-0.570	0.780	1.170
2020/01/31 03:35:46.0	95.150	-0.590	0.760	1.200
2020/01/31 03:35:46.1	95.130	-0.610	0.730	1.220
2020/01/31 03:35:46.2	95.130	-0.620	0.700	1.250
2020/01/31 03:35:46.3	95.120	-0.620	0.660	1.270
2020/01/31 03:35:46.4	95.110	-0.630	0.620	1.290
2020/01/31 03:35:46.5	95.100	-0.630	0.570	1.310
2020/01/31 03:35:46.6	95.090	-0.630	0.520	1.330
2020/01/31 03:35:46.7	95.080	-0.620	0.460	1.340
2020/01/31 03:35:46.8	95.070	-0.610	0.390	1.350
2020/01/31 03:35:46.9	95.060	-0.590	0.320	1.350
2020/01/31 03:35:47.0	95.050	-0.580	0.250	1.360
2020/01/31 03:35:47.1	95.040	-0.560	0.170	1.350
2020/01/31 03:35:47.2	95.030	-0.540	0.090	1.350
2020/01/31 03:35:47.3	95.020	-0.510	0.010	1.330
2020/01/31 03:35:47.4	95.000	-0.480	-0.070	1.320
2020/01/31 03:35:47.5	94.990	-0.450	-0.160	1.300
2020/01/31 03:35:47.6	94.980	-0.420	-0.240	1.280
2020/01/31 03:35:47.7	94.960	-0.380	-0.330	1.250
2020/01/31 03:35:47.8	94.950	-0.350	-0.410	1.220
2020/01/31 03:35:47.9	94.940	-0.310	-0.500	1.190
2020/01/31 03:35:48.0	94.930	-0.270	-0.580	1.160
2020/01/31 03:35:48.1	94.940	-0.230	-0.660	1.130
2020/01/31 03:35:48.2	94.930	-0.190	-0.730	1.090
2020/01/31 03:35:48.3	94.920	-0.140	-0.810	1.060
2020/01/31 03:35:48.4	94.910	-0.100	-0.880	1.030
2020/01/31 03:35:48.5	94.900	-0.060	-0.940	1.000
2020/01/31 03:35:48.6	94.900	-0.020	-1.010	0.970
2020/01/31 03:35:48.7	94.890	0.030	-1.060	0.940
2020/01/31 03:35:48.8	94.890	0.070	-1.110	0.920
2020/01/31 03:35:48.9	94.890	0.110	-1.150	0.890
2020/01/31 03:35:49.0	94.880	0.150	-1.190	0.870
2020/01/31 03:35:49.1	94.890	0.180	-1.220	0.860
2020/01/31 03:35:49.2	94.890	0.220	-1.250	0.840
2020/01/31 03:35:49.3	94.890	0.250	-1.270	0.830
2020/01/31 03:35:49.4	94.890	0.290	-1.270	0.810
2020/01/31 03:35:49.5	94.900	0.320	-1.280	0.800
2020/01/31 03:35:49.6	94.900	0.350	-1.270	0.790
2020/01/31 03:35:49.7	94.910	0.380	-1.260	0.780
2020/01/31 03:35:49.8	94.910	0.400	-1.250	0.770
2020/01/31 03:35:49.9	94.920	0.430	-1.220	0.760
2020/01/31 03:35:50.0	94.930	0.450	-1.190	0.750
2020/01/31 03:35:50.1	94.950	0.470	-1.160	0.730
2020/01/31 03:35:50.2	94.960	0.490	-1.120	0.720
2020/01/31 03:35:50.3	94.970	0.510	-1.070	0.710
2020/01/31 03:35:50.4	94.980	0.520	-1.020	0.690
2020/01/31 03:35:50.5	94.990	0.540	-0.970	0.680
2020/01/31 03:35:50.6	95.010	0.550	-0.920	0.660
2020/01/31 03:35:50.7	95.020	0.560	-0.860	0.640
2020/01/31 03:35:50.8	95.030	0.570	-0.800	0.630
2020/01/31 03:35:50.9	95.050	0.580	-0.740	0.610
2020/01/31 03:35:51.0	95.060	0.580	-0.670	0.590
2020/01/31 03:35:51.1	95.070	0.590	-0.610	0.580
2020/01/31 03:35:51.2	95.080	0.590	-0.540	0.570
2020/01/31 03:35:51.3	95.090	0.590	-0.480	0.560
2020/01/31 03:35:51.4	95.100	0.590	-0.420	0.550
2020/01/31 03:35:51.5	95.100	0.590	-0.350	0.540
2020/01/31 03:35:51.6	95.110	0.590	-0.290	0.540
2020/01/31 03:35:51.7	95.110	0.580	-0.230	0.540
2020/01/31 03:35:51.8	95.110	0.580	-0.170	0.540
2020/01/31 03:35:51.9	95.110	0.570	-0.110	0.540
2020/01/31 03:35:52.0	95.100	0.560	-0.050	0.550
2020/01/31 03:35:52.1	95.090	0.550	0.000	0.570
2020/01/31 03:35:52.2	95.090	0.530	0.050	0.580
2020/01/31 03:35:52.3	95.080	0.520	0.110	0.600
2020/01/31 03:35:52.4	95.080	0.500	0.150	0.610
2020/01/31 03:35:52.5	95.070	0.480	0.200	0.630
2020/01/31 03:35:52.6	95.060	0.460	0.250	0.660
2020/01/31 03:35:52.7	95.050	0.440	0.290	0.680
2020/01/31 03:35:52.8	95.040	0.420	0.330	0.710
2020/01/31 03:35:52.9	95.030	0.390	0.370	0.730
2020/01/31 03:35:53.0	95.020	0.360	0.400	0.760
2020/01/31 03:35:53.1	95.000	0.330	0.440	0.780
2020/01/31 03:35:53.2	94.990	0.300	0.460	0.810
2020/01/31 03:35:53.3	94.970	0.260	0.490	0.840
2020/01/31 03:35:53.4	94.950	0.220	0.520	0.870
2020/01/31 03:35:53.5	94.940	0.190	0.540	0.910
2020/01/31 03:35:53.6	94.920	0.140	0.570	0.940
2020/01/31 03:35:53.7	94.900	0.100	0.590	0.970
2020/01/31 03:35:53.8	94.880	0.060	0.600	1.000
2020/01/31 03:35:53.9	94.850	0.010	0.620	1.030
2020/01/31 03:35:54.0	94.830	-0.040	0.630	1.060
2020/01/31 03:35:54.1	94.790	-0.090	0.640	1.090
2020/01/31 03:35:54.2	94.770	-0.140	0.650	1.110
2020/01/31 03:35:54.3	94.740	-0.190	0.660	1.140
2020/01/31 03:35:54.4	94.720	-0.240	0.660	1.160
2020/01/31 03:35:54.5	94.690	-0.290	0.660	1.180
2020/01/31 03:35:54.6	94.670	-0.340	0.650	1.200
2020/01/31 03:35:54.7	94.640	-0.390	0.650	1.220
2020/01/31 03:35:54.8	94.620	-0.440	0.630	1.240
2020/01/31 03:35:54.9	94.590	-0.490	0.620	1.250
2020/01/31 03:35:55.0	94.570	-0.540	0.600	1.270
2020/01/31 03:35:55.1	94.550	-0.580	0.570	1.270
2020/01/31 03:35:55.2	94.530	-0.620	0.540	1.280
2020/01/31 03:35:55.3	94.510	-0.660	0.500	1.290
2020/01/31 03:35:55.4	94.490	-0.690	0.460	1.290
2020/01/31 03:35:55.5	94.480	-0.720	0.410	1.290
2020/01/31 03:35:55.6	94.470	-0.750	0.360	1.290
2020/01/31 03:35:55.7	94.460	-0.760	0.290	1.290
2020/01/31 03:35:55.8	94.450	-0.780	0.220	1.280
2020/01/31 03:35:55.9	94.450	-0.790	0.150	1.270
2020/01/31 03:35:56.0	94.450	-0.790	0.070	1.260
2020/01/31 03:35:56.1	94.480	-0.780	-0.030	1.250
2020/01/31 03:35:56.2	94.490	-0.770	-0.120	1.230
2020/01/31 03:35:56.3	94.500	-0.750	-0.220	1.210
2020/01/31 03:35:56.4	94.510	-0.730	-0.320	1.200
2020/01/31 03:35:56.5	94.530	-0.700	-0.420	1.180
2020/01/31 03:35:56.6	94.550	-0.670	-0.530	1.160
2020/01/31 03:35:56.7	94.570	-0.630	-0.630	1.140
2020/01/31 03:35:56.8	94.590	-0.590	-0.730	1.120
2020/01/31 03:35:56.9	94.610	-0.550	-0.840	1.110
2020/01/31 03:35:57.0	94.640	-0.500	-0.930	1.100
2020/01/31 03:35:57.1	94.660	-0.450	-1.030	1.090
2020/01/31 03:35:57.2	94.680	-0.390	-1.120	1.080
2020/01/31 03:35:57.3	94.700	-0.340	-1.190	1.080
2020/01/31 03:35:57.4	94.710	-0.280	-1.260	1.080
2020/01/31 03:35:57.5	94.720	-0.230	-1.320	1.090
2020/01/31 03:35:57.6	94.730	-0.180	-1.360	1.100
2020/01/31 03:35:57.7	94.730	-0.120	-1.390	1.110
2020/01/31 03:35:57.8	94.730	-0.070	-1.420	1.120
2020/01/31 03:35:57.9	94.720	-0.030	-1.420	1.130
2020/01/31 03:35:58.0	94.710	0.020	-1.420	1.150
2020/01/31 03:35:58.1	94.690	0.060	-1.400	1.160
2020/01/31 03:35:58.2	94.670	0.090	-1.370	1.180
2020/01/31 03:35:58.3	94.650	0.130	-1.330	1.190
2020/01/31 03:35:58.4	94.620	0.160	-1.270	1.210
2020/01/31 03:35:58.5	94.590	0.180	-1.210	1.220
2020/01/31 03:35:58.6	94.560	0.200	-1.130	1.240
2020/01/31 03:35:58.7	94.520	0.210	-1.050	1.250
2020/01/31 03:35:58.8	94.490	0.220	-0.960	1.260
2020/01/31 03:35:58.9	94.440	0.230	-0.860	1.270
2020/01/31 03:35:59.0	94.400	0.230	-0.750	1.280
2020/01/31 03:35:59.1	94.350	0.230	-0.630	1.300
2020/01/31 03:35:59.2	94.310	0.220	-0.520	1.300
2020/01/31 03:35:59.3	94.260	0.210	-0.400	1.310
2020/01/31 03:35:59.4	94.220	0.200	-0.280	1.310
2020/01/31 03:35:59.5	94.180	0.180	-0.170	1.310
2020/01/31 03:35:59.6	94.140	0.160	-0.050	1.310
2020/01/31 03:35:59.7	94.100	0.140	0.060	1.310
2020/01/31 03:35:59.8	94.060	0.120	0.170	1.300
2020/01/31 03:35:59.9	94.030	0.100	0.270	1.290
2020/01/31 03:36:00.0	94.000	0.070	0.370	1.280
2020/01/31 03:36:00.1	93.970	0.050	0.460	1.250
2020/01/31 03:36:00.2	93.950	0.030	0.540	1.230
2020/01/31 03:36:00.3	93.930	0.000	0.610	1.210
2020/01/31 03:36:00.4	93.910	-0.020	0.670	1.180
2020/01/31 03:36:00.5	93.900	-0.040	0.720	1.150
2020/01/31 03:36:00.6	93.900	-0.060	0.770	1.120
2020/01/31 03:36:00.7	93.890	-0.080	0.790	1.080
2020/01/31 03:36:00.8	93.890	-0.090	0.810	1.040
2020/01/31 03:36:00.9	93.890	-0.110	0.820	1.000
2020/01/31 03:36:01.0	93.890	-0.120	0.820	0.950
2020/01/31 03:36:01.1	93.890	-0.130	0.810	0.900
2020/01/31 03:36:01.2	93.900	-0.130	0.780	0.850
2020/01/31 03:36:01.3	93.900	-0.140	0.750	0.800
2020/01/31 03:36:01.4	93.910	-0.140	0.700	0.750
2020/01/31 03:36:01.5	93.920	-0.140	0.650	0.690
2020/01/31 03:36:01.6	93.930	-0.130	0.590	0.630
2020/01/31 03:36:01.7	93.940	-0.120	0.520	0.570
2020/01/31 03:36:01.8	93.940	-0.110	0.440	0.520
2020/01/31 03:36:01.9	93.950	-0.100	0.360	0.460
2020/01/31 03:36:02.0	93.960	-0.080	0.270	0.400
2020/01/31 03:36:02.1	93.950	-0.060	0.170	0.350
2020/01/31 03:36:02.2	93.950	-0.040	0.080	0.290
2020/01/31 03:36:02.3	93.950	-0.010	-0.020	0.240
2020/01/31 03:36:02.4	93.950	0.020	-0.120	0.200
2020/01/31 03:36:02.5	93.950	0.050	-0.220	0.160
2020/01/31 03:36:02.6	93.950	0.080	-0.320	0.120
2020/01/31 03:36:02.7	93.940	0.110	-0.420	0.080
2020/01/31 03:36:02.8	93.930	0.150	-0.510	0.050
2020/01/31 03:36:02.9	93.920	0.180	-0.590	0.030
2020/01/31 03:36:03.0	93.910	0.220	-0.680	0.010
2020/01/31 03:36:03.1	93.900	0.250	-0.760	-0.010
2020/01/31 03:36:03.2	93.890	0.280	-0.830	-0.010
2020/01/31 03:36:03.3	93.870	0.320	-0.890	-0.020
2020/01/31 03:36:03.4	93.850	0.350	-0.940	-0.010
2020/01/31 03:36:03.5	93.830	0.380	-0.990	-0.000
2020/01/31 03:36:03.6	93.810	0.410	-1.020	0.010
2020/01/31 03:36:03.7	93.790	0.430	-1.050	0.030
2020/01/31 03:36:03.8	93.760	0.450	-1.070	0.060
2020/01/31 03:36:03.9	93.740	0.470	-1.080	0.090
2020/01/31 03:36:04.0	93.720	0.490	-1.080	0.130
2020/01/31 03:36:04.1	93.690	0.500	-1.070	0.170
2020/01/31 03:36:04.2	93.670	0.510	-1.060	0.220
2020/01/31 03:36:04.3	93.650	0.510	-1.040	0.270
2020/01/31 03:36:04.4	93.620	0.510	-1.010	0.330
2020/01/31 03:36:04.5	93.600	0.510	-0.970	0.390
2020/01/31 03:36:04.6	93.580	0.500	-0.930	0.450
2020/01/31 03:36:04.7	93.560	0.490	-0.890	0.510
2020/01/31 03:36:04.8	93.540	0.470	-0.840	0.570
2020/01/31 03:36:04.9	93.520	0.450	-0.780	0.640
2020/01/31 03:36:05.0	93.510	0.430	-0.730	0.700
2020/01/31 03:36:05.1	93.500	0.410	-0.670	0.760
2020/01/31 03:36:05.2	93.490	0.380	-0.610	0.820
2020/01/31 03:36:05.3	93.480	0.350	-0.550	0.880
2020/01/31 03:36:05.4	93.470	0.320	-0.490	0.940
2020/01/31 03:36:05.5	93.460	0.280	-0.440	0.990
2020/01/31 03:36:05.6	93.460	0.250	-0.380	1.040
2020/01/31 03:36:05.7	93.460	0.210	-0.320	1.090
2020/01/31 03:36:05.8	93.460	0.170	-0.270	1.130
2020/01/31 03:36:05.9	93.460	0.130	-0.220	1.160
2020/01/31 03:36:06.0	93.470	0.090	-0.170	1.200
2020/01/31 03:36:06.1	93.460	0.050	-0.130	1.230
2020/01/31 03:36:06.2	93.470	0.020	-0.090	1.260
2020/01/31 03:36:06.3	93.480	-0.020	-0.050	1.280
2020/01/31 03:36:06.4	93.490	-0.060	-0.010	1.300
2020/01/31 03:36:06.5	93.500	-0.100	0.020	1.320
2020/01/31 03:36:06.6	93.510	-0.130	0.050	1.340
2020/01/31 03:36:06.7	93.520	-0.170	0.080	1.360
2020/01/31 03:36:06.8	93.530	-0.200	0.110	1.380
2020/01/31 03:36:06.9	93.540	-0.230	0.130	1.390
2020/01/31 03:36:07.0	93.550	-0.260	0.160	1.410
2020/01/31 03:36:07.1	93.560	-0.290	0.180	1.420
2020/01/31 03:36:07.2	93.560	-0.310	0.200	1.430
2020/01/31 03:36:07.3	93.570	-0.340	0.210	1.440
2020/01/31 03:36:07.4	93.570	-0.360	0.230	1.460
2020/01/31 03:36:07.5	93.570	-0.380	0.240	1.470
2020/01/31 03:36:07.6	93.570	-0.390	0.250	1.480
2020/01/31 03:36:07.7	93.570	-0.410	0.260	1.490
2020/01/31 03:36:07.8	93.570	-0.420	0.270	1.490
2020/01/31 03:36:07.9	93.570	-0.420	0.270	1.500
2020/01/31 03:36:08.0	93.570	-0.430	0.280	1.510
2020/01/31 03:36:08.1	93.570	-0.430	0.280	1.510
2020/01/31 03:36:08.2	93.570	-0.420	0.270	1.520
2020/01/31 03:36:08.3	93.560	-0.420	0.270	1.520
2020/01/31 03:36:08.4	93.560	-0.410	0.260	1.520
2020/01/31 03:36:08.5	93.560	-0.400	0.240	1.520
2020/01/31 03:36:08.6	93.550	-0.380	0.230	1.520
2020/01/31 03:36:08.7	93.550	-0.360	0.210	1.520
2020/01/31 03:36:08.8	93.550	-0.340	0.190	1.520
2020/01/31 03:36:08.9	93.550	-0.310	0.160	1.520
2020/01/31 03:36:09.0	93.540	-0.290	0.130	1.520
2020/01/31 03:36:09.1	93.550	-0.260	0.100	1.510
2020/01/31 03:36:09.2	93.550	-0.220	0.060	1.510
2020/01/31 03:36:09.3	93.550	-0.190	0.020	1.500
2020/01/31 03:36:09.4	93.560	-0.150	-0.020	1.500
2020/01/31 03:36:09.5	93.560	-0.120	-0.060	1.490
2020/01/31 03:36:09.6	93.560	-0.080	-0.110	1.490
2020/01/31 03:36:09.7	93.570	-0.040	-0.160	1.480
2020/01/31 03:36:09.8	93.570	0.000	-0.210	1.480
2020/01/31 03:36:09.9	93.580	0.050	-0.260	1.470
2020/01/31 03:36:10.0	93.580	0.090	-0.310	1.460
2020/01/31 03:36:10.1	93.590	0.130	-0.360	1.450
2020/01/31 03:36:10.2	93.600	0.170	-0.410	1.430
2020/01/31 03:36:10.3	93.610	0.200	-0.460	1.420
2020/01/31 03:36:10.4	93.620	0.240	-0.510	1.400
2020/01/31 03:36:10.5	93.630	0.270	-0.560	1.380
2020/01/31 03:36:10.6	93.640	0.300	-0.600	1.360
2020/01/31 03:36:10.7	93.650	0.330	-0.630	1.340
2020/01/31 03:36:10.8	93.660	0.360	-0.660	1.320
2020/01/31 03:36:10.9	93.670	0.380	-0.690	1.290
2020/01/31 03:36:11.0	93.680	0.390	-0.700	1.260
2020/01/31 03:36:11.1	93.670	0.400	-0.720	1.220
2020/01/31 03:36:11.2	93.680	0.410	-0.720	1.190
2020/01/31 03:36:11.3	93.680	0.410	-0.710	1.150
2020/01/31 03:36:11.4	93.690	0.400	-0.690	1.100
2020/01/31 03:36:11.5	93.690	0.390	-0.670	1.060
2020/01/31 03:36:11.6	93.690	0.380	-0.630	1.010
2020/01/31 03:36:11.7	93.690	0.360	-0.580	0.970
2020/01/31 03:36:11.8	93.690	0.330	-0.530	0.920
2020/01/31 03:36:11.9	93.680	0.300	-0.470	0.880
2020/01/31 03:36:12.0	93.680	0.270	-0.400	0.830
2020/01/31 03:36:12.1	93.660	0.230	-0.310	0.790
2020/01/31 03:36:12.2	93.650	0.180	-0.230	0.750
2020/01/31 03:36:12.3	93.630	0.140	-0.140	0.710
2020/01/31 03:36:12.4	93.620	0.090	-0.040	0.680
2020/01/31 03:36:12.5	93.600	0.030	0.060	0.650
2020/01/31 03:36:12.6	93.580	-0.030	0.160	0.630
2020/01/31 03:36:12.7	93.550	-0.080	0.260	0.610
2020/01/31 03:36:12.8	93.530	-0.140	0.360	0.590
2020/01/31 03:36:12.9	93.500	-0.210	0.450	0.580
2020/01/31 03:36:13.0	93.470	-0.270	0.550	0.570
2020/01/31 03:36:13.1	93.450	-0.330	0.640	0.560
2020/01/31 03:36:13.2	93.410	-0.390	0.720	0.550
2020/01/31 03:36:13.3	93.380	-0.450	0.790	0.550
2020/01/31 03:36:13.4	93.350	-0.500	0.850	0.550
2020/01/31 03:36:13.5	93.320	-0.550	0.900	0.550
2020/01/31 03:36:13.6	93.290	-0.600	0.930	0.550
2020/01/31 03:36:13.7	93.260	-0.650	0.960	0.560
2020/01/31 03:36:13.8	93.240	-0.680	0.960	0.560
2020/01/31 03:36:13.9	93.220	-0.720	0.960	0.560
2020/01/31 03:36:14.0	93.200	-0.740	0.930	0.570
2020/01/31 03:36:14.1	93.190	-0.760	0.890	0.570
2020/01/31 03:36:14.2	93.170	-0.770	0.840	0.570
2020/01/31 03:36:14.3	93.170	-0.780	0.770	0.570
2020/01/31 03:36:14.4	93.160	-0.780	0.680	0.560
2020/01/31 03:36:14.5	93.160	-0.760	0.580	0.560
2020/01/31 03:36:14.6	93.170	-0.750	0.470	0.560
2020/01/31 03:36:14.7	93.180	-0.720	0.340	0.550
2020/01/31 03:36:14.8	93.190	-0.690	0.200	0.540
2020/01/31 03:36:14.9	93.210	-0.650	0.050	0.530
2020/01/31 03:36:15.0	93.230	-0.600	-0.100	0.520
2020/01/31 03:36:15.1	93.270	-0.550	-0.270	0.500
2020/01/31 03:36:15.2	93.290	-0.490	-0.430	0.490
2020/01/31 03:36:15.3	93.320	-0.430	-0.600	0.470
2020/01/31 03:36:15.4	93.350	-0.360	-0.760	0.450
2020/01/31 03:36:15.5	93.380	-0.290	-0.930	0.430
2020/01/31 03:36:15.6	93.420	-0.220	-1.080	0.410
2020/01/31 03:36:15.7	93.450	-0.150	-1.230	0.390
2020/01/31 03:36:15.8	93.480	-0.080	-1.370	0.380
2020/01/31 03:36:15.9	93.510	-0.000	-1.500	0.360
2020/01/31 03:36:16.0	93.540	0.070	-1.620	0.350
2020/01/31 03:36:16.1	93.560	0.140	-1.720	0.340
2020/01/31 03:36:16.2	93.580	0.200	-1.810	0.330
2020/01/31 03:36:16.3	93.600	0.260	-1.870	0.330
2020/01/31 03:36:16.4	93.600	0.320	-1.920	0.340
2020/01/31 03:36:16.5	93.610	0.370	-1.950	0.350
2020/01/31 03:36:16.6	93.610	0.420	-1.960	0.360
2020/01/31 03:36:16.7	93.600	0.460	-1.950	0.380
2020/01/31 03:36:16.8	93.600	0.490	-1.920	0.410
2020/01/31 03:36:16.9	93.580	0.520	-1.870	0.440
2020/01/31 03:36:17.0	93.570	0.540	-1.810	0.470
2020/01/31 03:36:17.1	93.550	0.560	-1.720	0.510
2020/01/31 03:36:17.2	93.540	0.560	-1.620	0.550
2020/01/31 03:36:17.3	93.510	0.560	-1.510	0.600
2020/01/31 03:36:17.4	93.490	0.550	-1.380	0.640
2020/01/31 03:36:17.5	93.460	0.540	-1.240	0.690
2020/01/31 03:36:17.6	93.430	0.520	-1.090	0.740
2020/01/31 03:36:17.7	93.400	0.490	-0.940	0.800
2020/01/31 03:36:17.8	93.360	0.450	-0.780	0.850
2020/01/31 03:36:17.9	93.330	0.420	-0.610	0.900
2020/01/31 03:36:18.0	93.300	0.370	-0.440	0.950
2020/01/31 03:36:18.1	93.270	0.330	-0.270	1.000
2020/01/31 03:36:18.2	93.240	0.280	-0.110	1.050
2020/01/31 03:36:18.3	93.210	0.230	0.050	1.090
2020/01/31 03:36:18.4	93.180	0.180	0.210	1.130
2020/01/31 03:36:18.5	93.160	0.120	0.360	1.160
2020/01/31 03:36:18.6	93.130	0.070	0.490	1.180
2020/01/31 03:36:18.7	93.120	0.020	0.620	1.200
2020/01/31 03:36:18.8	93.100	-0.030	0.730	1.210
2020/01/31 03:36:18.9	93.090	-0.080	0.830	1.220
2020/01/31 03:36:19.0	93.080	-0.120	0.910	1.220
2020/01/31 03:36:19.1	93.080	-0.160	0.990	1.200
2020/01/31 03:36:19.2	93.080	-0.200	1.040	1.190
2020/01/31 03:36:19.3	93.080	-0.230	1.080	1.170
2020/01/31 03:36:19.4	93.070	-0.250	1.100	1.140
2020/01/31 03:36:19.5	93.080	-0.270	1.100	1.110
2020/01/31 03:36:19.6	93.080	-0.280	1.090	1.080
2020/01/31 03:36:19.7	93.080	-0.280	1.060	1.050
2020/01/31 03:36:19.8	93.080	-0.280	1.020	1.010
2020/01/31 03:36:19.9	93.080	-0.270	0.960	0.970
2020/01/31 03:36:20.0	93.080	-0.260	0.900	0.940
2020/01/31 03:36:20.1	93.070	-0.240	0.810	0.900
2020/01/31 03:36:20.2	93.070	-0.210	0.730	0.860
2020/01/31 03:36:20.3	93.060	-0.180	0.630	0.820
2020/01/31 03:36:20.4	93.060	-0.150	0.530	0.790
2020/01/31 03:36:20.5	93.050	-0.110	0.430	0.750
2020/01/31 03:36:20.6	93.050	-0.070	0.320	0.720
2020/01/31 03:36:20.7	93.040	-0.030	0.210	0.680
2020/01/31 03:36:20.8	93.040	0.020	0.110	0.650
2020/01/31 03:36:20.9	93.030	0.060	0.000	0.620
2020/01/31 03:36:21.0	93.020	0.110	-0.100	0.590
2020/01/31 03:36:21.1	93.010	0.160	-0.200	0.550
2020/01/31 03:36:21.2	93.000	0.210	-0.290	0.530
2020/01/31 03:36:21.3	92.990	0.250	-0.380	0.500
2020/01/31 03:36:21.4	92.990	0.300	-0.460	0.480
2020/01/31 03:36:21.5	92.980	0.340	-0.530	0.460
2020/01/31 03:36:21.6	92.970	0.380	-0.590	0.440
2020/01/31 03:36:21.7	92.970	0.410	-0.650	0.420
2020/01/31 03:36:21.8	92.960	0.450	-0.700	0.410
2020/01/31 03:36:21.9	92.960	0.480	-0.730	0.400
2020/01/31 03:36:22.0	92.950	0.500	-0.760	0.390
2020/01/31 03:36:22.1	92.950	0.520	-0.780	0.380
2020/01/31 03:36:22.2	92.950	0.540	-0.790	0.380
2020/01/31 03:36:22.3	92.950	0.550	-0.790	0.380
2020/01/31 03:36:22.4	92.950	0.560	-0.790	0.380
2020/01/31 03:36:22.5	92.950	0.560	-0.780	0.390
2020/01/31 03:36:22.6	92.950	0.560	-0.760	0.400
2020/01/31 03:36:22.7	92.960	0.550	-0.730	0.410
2020/01/31 03:36:22.8	92.960	0.540	-0.700	0.430
2020/01/31 03:36:22.9	92.960	0.530	-0.670	0.440
2020/01/31 03:36:23.0	92.970	0.510	-0.630	0.460
2020/01/31 03:36:23.1	92.970	0.490	-0.580	0.480
2020/01/31 03:36:23.2	92.980	0.460	-0.530	0.510
2020/01/31 03:36:23.3	92.990	0.430	-0.480	0.530
2020/01/31 03:36:23.4	92.990	0.390	-0.420	0.560
2020/01/31 03:36:23.5	93.000	0.350	-0.360	0.590
2020/01/31 03:36:23.6	93.000	0.310	-0.300	0.620
2020/01/31 03:36:23.7	93.010	0.270	-0.240	0.650
2020/01/31 03:36:23.8	93.020	0.220	-0.180	0.680
2020/01/31 03:36:23.9	93.030	0.170	-0.120	0.710
2020/01/31 03:36:24.0	93.040	0.120	-0.060	0.730
2020/01/31 03:36:24.1	93.050	0.070	0.010	0.760
2020/01/31 03:36:24.2	93.060	0.010	0.070	0.790
2020/01/31 03:36:24.3	93.080	-0.040	0.120	0.820
2020/01/31 03:36:24.4	93.090	-0.100	0.180	0.840
2020/01/31 03:36:24.5	93.110	-0.150	0.230	0.870
2020/01/31 03:36:24.6	93.130	-0.210	0.280	0.890
2020/01/31 03:36:24.7	93.150	-0.260	0.330	0.920
2020/01/31 03:36:24.8	93.170	-0.320	0.370	0.940
2020/01/31 03:36:24.9	93.190	-0.370	0.400	0.970
2020/01/31 03:36:25.0	93.210	-0.420	0.430	0.990
2020/01/31 03:36:25.1	93.240	-0.470	0.460	1.010
2020/01/31 03:36:25.2	93.270	-0.510	0.480	1.030
2020/01/31 03:36:25.3	93.290	-0.560	0.490	1.050
2020/01/31 03:36:25.4	93.320	-0.590	0.500	1.070
2020/01/31 03:36:25.5	93.350	-0.630	0.500	1.100
2020/01/31 03:36:25.6	93.380	-0.660	0.490	1.120
2020/01/31 03:36:25.7	93.410	-0.680	0.480	1.140
2020/01/31 03:36:25.8	93.450	-0.700	0.450	1.160
2020/01/31 03:36:25.9	93.480	-0.720	0.420	1.180
2020/01/31 03:36:26.0	93.510	-0.720	0.390	1.200
2020/01/31 03:36:26.1	93.540	-0.720	0.340	1.220
2020/01/31 03:36:26.2	93.570	-0.720	0.290	1.230
2020/01/31 03:36:26.3	93.600	-0.710	0.230	1.250
2020/01/31 03:36:26.4	93.630	-0.690	0.170	1.260
2020/01/31 03:36:26.5	93.660	-0.670	0.100	1.270
2020/01/31 03:36:26.6	93.690	-0.640	0.020	1.290
2020/01/31 03:36:26.7	93.720	-0.610	-0.060	1.300
2020/01/31 03:36:26.8	93.740	-0.570	-0.140	1.310
2020/01/31 03:36:26.9	93.760	-0.530	-0.220	1.320
2020/01/31 03:36:27.0	93.780	-0.480	-0.300	1.330
2020/01/31 03:36:27.1	93.790	-0.430	-0.390	1.340
2020/01/31 03:36:27.2	93.810	-0.380	-0.470	1.350
2020/01/31 03:36:27.3	93.820	-0.330	-0.550	1.360
2020/01/31 03:36:27.4	93.830	-0.270	-0.630	1.370
2020/01/31 03:36:27.5	93.830	-0.220	-0.700	1.380
2020/01/31 03:36:27.6	93.830	-0.160	-0.770	1.390
2020/01/31 03:36:27.7	93.830	-0.110	-0.830	1.400
2020/01/31 03:36:27.8	93.830	-0.050	-0.890	1.420
2020/01/31 03:36:27.9	93.830	-0.000	-0.940	1.430
2020/01/31 03:36:28.0	93.820	0.040	-0.980	1.440
2020/01/31 03:36:28.1	93.790	0.090	-1.010	1.460
2020/01/31 03:36:28.2	93.780	0.130	-1.040	1.470
2020/01/31 03:36:28.3	93.760	0.170	-1.060	1.480
2020/01/31 03:36:28.4	93.740	0.210	-1.070	1.500
2020/01/31 03:36:28.5	93.730	0.230	-1.070	1.510
2020/01/31 03:36:28.6	93.710	0.260	-1.060	1.520
2020/01/31 03:36:28.7	93.690	0.280	-1.050	1.520
2020/01/31 03:36:28.8	93.660	0.300	-1.030	1.530
2020/01/31 03:36:28.9	93.640	0.310	-1.000	1.530
2020/01/31 03:36:29.0	93.620	0.310	-0.960	1.520
2020/01/31 03:36:29.1	93.580	0.320	-0.910	1.520
2020/01/31 03:36:29.2	93.560	0.310	-0.870	1.500
2020/01/31 03:36:29.3	93.530	0.310	-0.810	1.480
2020/01/31 03:36:29.4	93.510	0.300	-0.760	1.460
2020/01/31 03:36:29.5	93.490	0.290	-0.700	1.430
2020/01/31 03:36:29.6	93.460	0.270	-0.630	1.400
2020/01/31 03:36:29.7	93.440	0.250	-0.570	1.360
2020/01/31 03:36:29.8	93.410	0.240	-0.510	1.320
2020/01/31 03:36:29.9	93.390	0.220	-0.440	1.280
2020/01/31 03:36:30.0	93.370	0.190	-0.380	1.230
2020/01/31 03:36:30.1	93.360	0.170	-0.310	1.170
2020/01/31 03:36:30.2	93.330	0.150	-0.250	1.110
2020/01/31 03:36:30.3	93.320	0.130	-0.190	1.060
2020/01/31 03:36:30.4	93.300	0.110	-0.130	1.000
2020/01/31 03:36:30.5	93.280	0.100	-0.090	0.930
2020/01/31 03:36:30.6	93.260	0.080	-0.040	0.870
2020/01/31 03:36:30.7	93.240	0.070	-0.000	0.810
2020/01/31 03:36:30.8	93.230	0.060	0.030	0.740
2020/01/31 03:36:30.9	93.210	0.060	0.050	0.680
2020/01/31 03:36:31.0	93.190	0.050	0.070	0.620
2020/01/31 03:36:31.1	93.190	0.050	0.070	0.560
2020/01/31 03:36:31.2	93.180	0.060	0.080	0.500
2020/01/31 03:36:31.3	93.160	0.070	0.070	0.440
2020/01/31 03:36:31.4	93.150	0.080	0.060	0.390
2020/01/31 03:36:31.5	93.140	0.090	0.050	0.330
2020/01/31 03:36:31.6	93.140	0.100	0.020	0.280
2020/01/31 03:36:31.7	93.130	0.120	-0.000	0.230
2020/01/31 03:36:31.8	93.130	0.140	-0.030	0.180
2020/01/31 03:36:31.9	93.130	0.150	-0.060	0.130
2020/01/31 03:36:32.0	93.140	0.170	-0.100	0.080
2020/01/31 03:36:32.1	93.130	0.190	-0.130	0.030
2020/01/31 03:36:32.2	93.140	0.210	-0.170	-0.010
2020/01/31 03:36:32.3	93.160	0.220	-0.200	-0.050
2020/01/31 03:36:32.4	93.170	0.240	-0.230	-0.090
2020/01/31 03:36:32.5	93.190	0.250	-0.260	-0.130
2020/01/31 03:36:32.6	93.220	0.260	-0.290	-0.160
2020/01/31 03:36:32.7	93.240	0.260	-0.310	-0.190
2020/01/31 03:36:32.8	93.270	0.270	-0.330	-0.210
2020/01/31 03:36:32.9	93.300	0.270	-0.340	-0.230
2020/01/31 03:36:33.0	93.340	0.270	-0.350	-0.250
2020/01/31 03:36:33.1	93.390	0.260	-0.360	-0.270
2020/01/31 03:36:33.2	93.420	0.250	-0.350	-0.280
2020/01/31 03:36:33.3	93.470	0.240	-0.340	-0.280
2020/01/31 03:36:33.4	93.510	0.220	-0.330	-0.280
2020/01/31 03:36:33.5	93.550	0.200	-0.300	-0.280
2020/01/31 03:36:33.6	93.600	0.180	-0.270	-0.280
2020/01/31 03:36:33.7	93.640	0.150	-0.240	-0.270
2020/01/31 03:36:33.8	93.690	0.130	-0.200	-0.250
2020/01/31 03:36:33.9	93.740	0.100	-0.150	-0.240
2020/01/31 03:36:34.0	93.780	0.060	-0.100	-0.220
2020/01/31 03:36:34.1	93.810	0.030	-0.040	-0.190
2020/01/31 03:36:34.2	93.860	-0.010	0.020	-0.170
2020/01/31 03:36:34.3	93.900	-0.040	0.080	-0.130
2020/01/31 03:36:34.4	93.950	-0.080	0.140	-0.100
2020/01/31 03:36:34.5	93.980	-0.120	0.210	-0.060
2020/01/31 03:36:34.6	94.020	-0.160	0.270	-0.010
2020/01/31 03:36:34.7	94.060	-0.190	0.330	0.040
2020/01/31 03:36:34.8	94.090	-0.230	0.390	0.090
2020/01/31 03:36:34.9	94.110	-0.260	0.450	0.140
2020/01/31 03:36:35.0	94.140	-0.300	0.500	0.200
2020/01/31 03:36:35.1	94.160	-0.330	0.550	0.260
2020/01/31 03:36:35.2	94.170	-0.360	0.590	0.330
2020/01/31 03:36:35.3	94.190	-0.380	0.620	0.390
2020/01/31 03:36:35.4	94.200	-0.410	0.650	0.450
2020/01/31 03:36:35.5	94.210	-0.430	0.670	0.520
2020/01/31 03:36:35.6	94.210	-0.440	0.680	0.580
2020/01/31 03:36:35.7	94.220	-0.460	0.690	0.640
2020/01/31 03:36:35.8	94.220	-0.470	0.680	0.700
2020/01/31 03:36:35.9	94.220	-0.480	0.670	0.760
2020/01/31 03:36:36.0	94.220	-0.480	0.650	0.810
2020/01/31 03:36:36.1	94.220	-0.480	0.620	0.870
2020/01/31 03:36:36.2	94.220	-0.480	0.580	0.920
2020/01/31 03:36:36.3	94.210	-0.470	0.530	0.970
2020/01/31 03:36:36.4	94.200	-0.460	0.480	1.010
2020/01/31 03:36:36.5	94.190	-0.450	0.420	1.050
2020/01/31 03:36:36.6	94.190	-0.430	0.360	1.090
2020/01/31 03:36:36.7	94.180	-0.410	0.290	1.120
2020/01/31 03:36:36.8	94.170	-0.390	0.210	1.160
2020/01/31 03:36:36.9	94.160	-0.360	0.130	1.180
2020/01/31 03:36:37.0	94.150	-0.330	0.050	1.200
2020/01/31 03:36:37.1	94.140	-0.300	-0.040	1.220
2020/01/31 03:36:37.2	94.130	-0.270	-0.130	1.230
2020/01/31 03:36:37.3	94.130	-0.230	-0.220	1.240
2020/01/31 03:36:37.4	94.130	-0.190	-0.300	1.240
2020/01/31 03:36:37.5	94.130	-0.150	-0.390	1.240
2020/01/31 03:36:37.6	94.140	-0.110	-0.480	1.230
2020/01/31 03:36:37.7	94.140	-0.070	-0.560	1.220
2020/01/31 03:36:37.8	94.150	-0.030	-0.640	1.200
2020/01/31 03:36:37.9	94.160	0.010	-0.710	1.180
2020/01/31 03:36:38.0	94.170	0.060	-0.790	1.160
2020/01/31 03:36:38.1	94.190	0.100	-0.850	1.130
2020/01/31 03:36:38.2	94.200	0.140	-0.910	1.110
2020/01/31 03:36:38.3	94.210	0.180	-0.960	1.080
2020/01/31 03:36:38.4	94.220	0.220	-1.000	1.060
2020/01/31 03:36:38.5	94.240	0.260	-1.040	1.040
2020/01/31 03:36:38.6	94.250	0.300	-1.060	1.010
2020/01/31 03:36:38.7	94.260	0.330	-1.090	0.990
2020/01/31 03:36:38.8	94.270	0.370	-1.100	0.970
2020/01/31 03:36:38.9	94.280	0.400	-1.100	0.950
2020/01/31 03:36:39.0	94.290	0.420	-1.100	0.930
2020/01/31 03:36:39.1	94.280	0.450	-1.100	0.910
2020/01/31 03:36:39.2	94.280	0.470	-1.090	0.900
2020/01/31 03:36:39.3	94.280	0.490	-1.070	0.890
2020/01/31 03:36:39.4	94.290	0.500	-1.040	0.880
2020/01/31 03:36:39.5	94.280	0.520	-1.010	0.880
2020/01/31 03:36:39.6	94.280	0.530	-0.980	0.880
2020/01/31 03:36:39.7	94.270	0.530	-0.940	0.880
2020/01/31 03:36:39.8	94.260	0.540	-0.900	0.880
2020/01/31 03:36:39.9	94.260	0.540	-0.860	0.880
2020/01/31 03:36:40.0	94.240	0.530	-0.820	0.880
2020/01/31 03:36:40.1	94.240	0.530	-0.770	0.890
2020/01/31 03:36:40.2	94.230	0.520	-0.720	0.890
2020/01/31 03:36:40.3	94.210	0.510	-0.680	0.900
2020/01/31 03:36:40.4	94.190	0.500	-0.640	0.900
2020/01/31 03:36:40.5	94.180	0.480	-0.600	0.910
2020/01/31 03:36:40.6	94.160	0.470	-0.560	0.910
2020/01/31 03:36:40.7	94.140	0.450	-0.520	0.910
2020/01/31 03:36:40.8	94.130	0.430	-0.480	0.910
2020/01/31 03:36:40.9	94.110	0.410	-0.450	0.910
2020/01/31 03:36:41.0	94.100	0.390	-0.420	0.910
2020/01/31 03:36:41.1	94.080	0.360	-0.390	0.910
2020/01/31 03:36:41.2	94.070	0.340	-0.360	0.900
2020/01/31 03:36:41.3	94.060	0.310	-0.330	0.900
2020/01/31 03:36:41.4	94.050	0.290	-0.300	0.890
2020/01/31 03:36:41.5	94.040	0.260	-0.280	0.890
2020/01/31 03:36:41.6	94.030	0.230	-0.250	0.880
2020/01/31 03:36:41.7	94.020	0.210	-0.220	0.880
2020/01/31 03:36:41.8	94.010	0.180	-0.200	0.880
2020/01/31 03:36:41.9	94.010	0.150	-0.170	0.870
2020/01/31 03:36:42.0	94.000	0.120	-0.140	0.870
2020/01/31 03:36:42.1	94.000	0.090	-0.110	0.870
2020/01/31 03:36:42.2	93.990	0.060	-0.080	0.870
2020/01/31 03:36:42.3	93.990	0.030	-0.050	0.870
2020/01/31 03:36:42.4	93.990	-0.000	-0.020	0.870
2020/01/31 03:36:42.5	93.990	-0.030	0.010	0.880
2020/01/31 03:36:42.6	93.990	-0.060	0.040	0.880
2020/01/31 03:36:42.7	93.990	-0.090	0.080	0.890
2020/01/31 03:36:42.8	93.990	-0.120	0.110	0.900
2020/01/31 03:36:42.9	93.990	-0.150	0.140	0.900
2020/01/31 03:36:43.0	93.990	-0.180	0.170	0.910
2020/01/31 03:36:43.1	94.000	-0.210	0.200	0.920
2020/01/31 03:36:43.2	94.000	-0.230	0.230	0.920
2020/01/31 03:36:43.3	94.000	-0.260	0.260	0.930
2020/01/31 03:36:43.4	94.000	-0.280	0.290	0.930
2020/01/31 03:36:43.5	94.000	-0.300	0.320	0.930
2020/01/31 03:36:43.6	94.000	-0.320	0.340	0.930
2020/01/31 03:36:43.7	94.010	-0.340	0.360	0.930
2020/01/31 03:36:43.8	94.010	-0.360	0.380	0.920
2020/01/31 03:36:43.9	94.020	-0.380	0.390	0.910
2020/01/31 03:36:44.0	94.020	-0.390	0.400	0.900
2020/01/31 03:36:44.1	94.040	-0.400	0.410	0.890
2020/01/31 03:36:44.2	94.050	-0.400	0.410	0.870
2020/01/31 03:36:44.3	94.060	-0.410	0.400	0.860
2020/01/31 03:36:44.4	94.070	-0.410	0.390	0.840
2020/01/31 03:36:44.5	94.080	-0.400	0.380	0.820
2020/01/31 03:36:44.6	94.090	-0.400	0.350	0.800
2020/01/31 03:36:44.7	94.100	-0.390	0.330	0.780
2020/01/31 03:36:44.8	94.120	-0.370	0.300	0.760
2020/01/31 03:36:44.9	94.130	-0.360	0.260	0.750
2020/01/31 03:36:45.0	94.140	-0.330	0.220	0.730
2020/01/31 03:36:45.1	94.150	-0.310	0.170	0.710
2020/01/31 03:36:45.2	94.160	-0.280	0.110	0.700
2020/01/31 03:36:45.3	94.170	-0.250	0.060	0.690
2020/01/31 03:36:45.4	94.180	-0.220	-0.010	0.690
2020/01/31 03:36:45.5	94.190	-0.180	-0.070	0.680
2020/01/31 03:36:45.6	94.190	-0.140	-0.140	0.680
2020/01/31 03:36:45.7	94.200	-0.100	-0.210	0.680
2020/01/31 03:36:45.8	94.200	-0.060	-0.280	0.680
2020/01/31 03:36:45.9	94.210	-0.010	-0.350	0.680
2020/01/31 03:36:46.0	94.210	0.030	-0.420	0.690
2020/01/31 03:36:46.1	94.220	0.080	-0.500	0.690
2020/01/31 03:36:46.2	94.220	0.120	-0.570	0.700
2020/01/31 03:36:46.3	94.230	0.170	-0.630	0.700
2020/01/31 03:36:46.4	94.240	0.210	-0.700	0.710
2020/01/31 03:36:46.5	94.240	0.250	-0.760	0.710
2020/01/31 03:36:46.6	94.250	0.290	-0.810	0.720
2020/01/31 03:36:46.7	94.270	0.330	-0.860	0.720
2020/01/31 03:36:46.8	94.280	0.360	-0.900	0.720
2020/01/31 03:36:46.9	94.290	0.390	-0.930	0.730
2020/01/31 03:36:47.0	94.310	0.410	-0.950	0.730
2020/01/31 03:36:47.1	94.300	0.430	-0.980	0.730
2020/01/31 03:36:47.2	94.320	0.440	-0.980	0.730
2020/01/31 03:36:47.3	94.330	0.450	-0.980	0.740
2020/01/31 03:36:47.4	94.340	0.460	-0.960	0.740
2020/01/31 03:36:47.5	94.350	0.460	-0.940	0.750
2020/01/31 03:36:47.6	94.370	0.450	-0.900	0.750
2020/01/31 03:36:47.7	94.380	0.440	-0.860	0.760
2020/01/31 03:36:47.8	94.380	0.420	-0.800	0.760
2020/01/31 03:36:47.9	94.390	0.400	-0.740	0.770
2020/01/31 03:36:48.0	94.400	0.380	-0.670	0.780
2020/01/31 03:36:48.1	94.420	0.340	-0.580	0.780
2020/01/31 03:36:48.2	94.420	0.310	-0.490	0.790
2020/01/31 03:36:48.3	94.420	0.270	-0.400	0.800
2020/01/31 03:36:48.4	94.420	0.230	-0.300	0.820
2020/01/31 03:36:48.5	94.420	0.180	-0.200	0.830
2020/01/31 03:36:48.6	94.410	0.130	-0.090	0.850
2020/01/31 03:36:48.7	94.410	0.080	0.020	0.860
2020/01/31 03:36:48.8	94.400	0.030	0.130	0.880
2020/01/31 03:36:48.9	94.390	-0.020	0.230	0.900
2020/01/31 03:36:49.0	94.380	-0.070	0.340	0.920
2020/01/31 03:36:49.1	94.360	-0.130	0.440	0.940
2020/01/31 03:36:49.2	94.350	-0.180	0.530	0.970
2020/01/31 03:36:49.3	94.340	-0.230	0.620	0.990
2020/01/31 03:36:49.4	94.330	-0.280	0.700	1.010
2020/01/31 03:36:49.5	94.320	-0.320	0.770	1.030
2020/01/31 03:36:49.6	94.310	-0.360	0.840	1.040
2020/01/31 03:36:49.7	94.300	-0.400	0.890	1.060
2020/01/31 03:36:49.8	94.290	-0.440	0.930	1.070
2020/01/31 03:36:49.9	94.280	-0.470	0.950	1.080
2020/01/31 03:36:50.0	94.270	-0.490	0.970	1.090
2020/01/31 03:36:50.1	94.250	-0.510	0.960	1.090
2020/01/31 03:36:50.2	94.250	-0.530	0.950	1.090
2020/01/31 03:36:50.3	94.240	-0.530	0.920	1.090
2020/01/31 03:36:50.4	94.240	-0.540	0.880	1.090
2020/01/31 03:36:50.5	94.230	-0.540	0.830	1.090
2020/01/31 03:36:50.6	94.230	-0.530	0.760	1.080
2020/01/31 03:36:50.7	94.230	-0.520	0.680	1.070
2020/01/31 03:36:50.8	94.230	-0.500	0.590	1.060
2020/01/31 03:36:50.9	94.220	-0.470	0.490	1.050
2020/01/31 03:36:51.0	94.220	-0.450	0.380	1.040
2020/01/31 03:36:51.1	94.220	-0.410	0.270	1.030
2020/01/31 03:36:51.2	94.220	-0.380	0.140	1.010
2020/01/31 03:36:51.3	94.220	-0.340	0.010	0.990
2020/01/31 03:36:51.4	94.230	-0.300	-0.120	0.980
2020/01/31 03:36:51.5	94.230	-0.250	-0.260	0.960
2020/01/31 03:36:51.6	94.230	-0.210	-0.390	0.930
2020/01/31 03:36:51.7	94.240	-0.160	-0.530	0.910
2020/01/31 03:36:51.8	94.240	-0.110	-0.660	0.880
2020/01/31 03:36:51.9	94.250	-0.060	-0.790	0.860
2020/01/31 03:36:52.0	94.250	-0.020	-0.910	0.830
2020/01/31 03:36:52.1	94.260	0.030	-1.030	0.800
2020/01/31 03:36:52.2	94.270	0.080	-1.140	0.770
2020/01/31 03:36:52.3	94.280	0.120	-1.240	0.740
2020/01/31 03:36:52.4	94.280	0.160	-1.330	0.710
2020/01/31 03:36:52.5	94.290	0.200	-1.400	0.680
2020/01/31 03:36:52.6	94.290	0.230	-1.470	0.650
2020/01/31 03:36:52.7	94.300	0.260	-1.520	0.620
2020/01/31 03:36:52.8	94.300	0.290	-1.550	0.600
2020/01/31 03:36:52.9	94.310	0.310	-1.580	0.580
2020/01/31 03:36:53.0	94.310	0.330	-1.580	0.550
2020/01/31 03:36:53.1	94.310	0.340	-1.580	0.530
2020/01/31 03:36:53.2	94.310	0.350	-1.560	0.520
2020/01/31 03:36:53.3	94.320	0.360	-1.520	0.500
2020/01/31 03:36:53.4	94.320	0.360	-1.470	0.490
2020/01/31 03:36:53.5	94.330	0.350	-1.410	0.490
2020/01/31 03:36:53.6	94.330	0.340	-1.340	0.490
2020/01/31 03:36:53.7	94.330	0.330	-1.250	0.490
2020/01/31 03:36:53.8	94.330	0.310	-1.160	0.490
2020/01/31 03:36:53.9	94.340	0.290	-1.060	0.500
2020/01/31 03:36:54.0	94.340	0.260	-0.950	0.510
2020/01/31 03:36:54.1	94.340	0.240	-0.840	0.530
2020/01/31 03:36:54.2	94.340	0.210	-0.720	0.550
2020/01/31 03:36:54.3	94.340	0.170	-0.600	0.570
2020/01/31 03:36:54.4	94.340	0.140	-0.480	0.590
2020/01/31 03:36:54.5	94.340	0.110	-0.360	0.620
2020/01/31 03:36:54.6	94.340	0.070	-0.240	0.650
2020/01/31 03:36:54.7	94.340	0.040	-0.130	0.680
2020/01/31 03:36:54.8	94.340	0.000	-0.020	0.710
2020/01/31 03:36:54.9	94.340	-0.030	0.090	0.740
2020/01/31 03:36:55.0	94.340	-0.060	0.190	0.780
2020/01/31 03:36:55.1	94.330	-0.090	0.290	0.810
2020/01/31 03:36:55.2	94.330	-0.120	0.370	0.850
2020/01/31 03:36:55.3	94.320	-0.150	0.450	0.880
2020/01/31 03:36:55.4	94.320	-0.170	0.520	0.910
2020/01/31 03:36:55.5	94.310	-0.190	0.580	0.940
2020/01/31 03:36:55.6	94.300	-0.210	0.640	0.960
2020/01/31 03:36:55.7	94.290	-0.220	0.680	0.980
2020/01/31 03:36:55.8	94.280	-0.230	0.710	1.000
2020/01/31 03:36:55.9	94.270	-0.240	0.730	1.020
2020/01/31 03:36:56.0	94.260	-0.240	0.750	1.030
2020/01/31 03:36:56.1	94.250	-0.240	0.760	1.040
2020/01/31 03:36:56.2	94.240	-0.240	0.750	1.050
2020/01/31 03:36:56.3	94.220	-0.240	0.740	1.050
2020/01/31 03:36:56.4	94.210	-0.230	0.720	1.050
2020/01/31 03:36:56.5	94.190	-0.220	0.700	1.050
2020/01/31 03:36:56.6	94.170	-0.200	0.670	1.050
2020/01/31 03:36:56.7	94.150	-0.190	0.630	1.040
2020/01/31 03:36:56.8	94.130	-0.170	0.590	1.030
2020/01/31 03:36:56.9	94.110	-0.150	0.540	1.020
2020/01/31 03:36:57.0	94.080	-0.130	0.490	1.010
2020/01/31 03:36:57.1	94.070	-0.110	0.430	1.000
2020/01/31 03:36:57.2	94.050	-0.080	0.370	0.990
2020/01/31 03:36:57.3	94.020	-0.060	0.300	0.970
2020/01/31 03:36:57.4	94.000	-0.030	0.240	0.950
2020/01/31 03:36:57.5	93.980	-0.010	0.170	0.930
2020/01/31 03:36:57.6	93.950	0.020	0.100	0.910
2020/01/31 03:36:57.7	93.930	0.040	0.030	0.890
2020/01/31 03:36:57.8	93.910	0.070	-0.040	0.870
2020/01/31 03:36:57.9	93.900	0.090	-0.110	0.850
2020/01/31 03:36:58.0	93.880	0.120	-0.180	0.830
2020/01/31 03:36:58.1	93.880	0.140	-0.250	0.800
2020/01/31 03:36:58.2	93.870	0.170	-0.320	0.780
2020/01/31 03:36:58.3	93.860	0.190	-0.380	0.750
2020/01/31 03:36:58.4	93.860	0.210	-0.440	0.730
2020/01/31 03:36:58.5	93.860	0.230	-0.500	0.700
2020/01/31 03:36:58.6	93.870	0.240	-0.560	0.680
2020/01/31 03:36:58.7	93.870	0.260	-0.610	0.650
2020/01/31 03:36:58.8	93.880	0.270	-0.650	0.630
2020/01/31 03:36:58.9	93.900	0.280	-0.700	0.600
2020/01/31 03:36:59.0	93.920	0.290	-0.730	0.580
2020/01/31 03:36:59.1	93.920	0.300	-0.770	0.560
2020/01/31 03:36:59.2	93.940	0.300	-0.790	0.530
2020/01/31 03:36:59.3	93.970	0.310	-0.810	0.510
2020/01/31 03:36:59.4	93.990	0.310	-0.820	0.490
2020/01/31 03:36:59.5	94.020	0.310	-0.830	0.460
2020/01/31 03:36:59.6	94.050	0.300	-0.830	0.440
2020/01/31 03:36:59.7	94.080	0.300	-0.830	0.420
2020/01/31 03:36:59.8	94.110	0.290	-0.810	0.400
2020/01/31 03:36:59.9	94.140	0.280	-0.800	0.380
2020/01/31 03:37:00.0	94.170	0.270	-0.770	0.370
2020/01/31 03:37:00.1	94.190	0.260	-0.740	0.350
2020/01/31 03:37:00.2	94.220	0.250	-0.710	0.340
2020/01/31 03:37:00.3	94.250	0.230	-0.670	0.330
2020/01/31 03:37:00.4	94.280	0.220	-0.630	0.320
2020/01/31 03:37:00.5	94.310	0.200	-0.580	0.320
2020/01/31 03:37:00.6	94.330	0.180	-0.530	0.320
2020/01/31 03:37:00.7	94.360	0.170	-0.480	0.320
2020/01/31 03:37:00.8	94.380	0.150	-0.430	0.330
2020/01/31 03:37:00.9	94.410	0.130	-0.370	0.340
2020/01/31 03:37:01.0	94.430	0.110	-0.310	0.360
2020/01/31 03:37:01.1	94.440	0.100	-0.260	0.380
2020/01/31 03:37:01.2	94.460	0.080	-0.200	0.400
2020/01/31 03:37:01.3	94.480	0.070	-0.150	0.430
2020/01/31 03:37:01.4	94.500	0.050	-0.090	0.460
2020/01/31 03:37:01.5	94.510	0.040	-0.050	0.490
2020/01/31 03:37:01.6	94.520	0.020	-0.000	0.530
2020/01/31 03:37:01.7	94.540	0.010	0.040	0.570
2020/01/31 03:37:01.8	94.550	0.000	0.080	0.610
2020/01/31 03:37:01.9	94.560	-0.000	0.110	0.650
2020/01/31 03:37:02.0	94.570	-0.010	0.130	0.690
2020/01/31 03:37:02.1	94.590	-0.010	0.150	0.740
2020/01/31 03:37:02.2	94.600	-0.020	0.170	0.780
2020/01/31 03:37:02.3	94.600	-0.020	0.180	0.820
2020/01/31 03:37:02.4	94.610	-0.020	0.180	0.860
2020/01/31 03:37:02.5	94.610	-0.020	0.180	0.900
2020/01/31 03:37:02.6	94.610	-0.020	0.170	0.940
2020/01/31 03:37:02.7	94.610	-0.020	0.160	0.980
2020/01/31 03:37:02.8	94.610	-0.020	0.140	1.010
2020/01/31 03:37:02.9	94.610	-0.020	0.130	1.050
2020/01/31 03:37:03.0	94.610	-0.010	0.100	1.080
2020/01/31 03:37:03.1	94.600	-0.010	0.080	1.110
2020/01/31 03:37:03.2	94.600	-0.010	0.050	1.140
2020/01/31 03:37:03.3	94.590	-0.010	0.020	1.170
2020/01/31 03:37:03.4	94.590	-0.010	-0.010	1.200
2020/01/31 03:37:03.5	94.580	-0.010	-0.050	1.230
2020/01/31 03:37:03.6	94.570	-0.010	-0.080	1.250
2020/01/31 03:37:03.7	94.560	-0.010	-0.110	1.280
2020/01/31 03:37:03.8	94.550	-0.010	-0.140	1.300
2020/01/31 03:37:03.9	94.540	-0.020	-0.170	1.330
2020/01/31 03:37:04.0	94.520	-0.020	-0.200	1.350
2020/01/31 03:37:04.1	94.520	-0.030	-0.230	1.370
2020/01/31 03:37:04.2	94.500	-0.030	-0.250	1.390
2020/01/31 03:37:04.3	94.490	-0.040	-0.270	1.410
2020/01/31 03:37:04.4	94.470	-0.050	-0.290	1.430
2020/01/31 03:37:04.5	94.450	-0.070	-0.310	1.450
2020/01/31 03:37:04.6	94.430	-0.080	-0.320	1.460
2020/01/31 03:37:04.7	94.410	-0.090	-0.330	1.480
2020/01/31 03:37:04.8	94.380	-0.110	-0.340	1.490
2020/01/31 03:37:04.9	94.360	-0.120	-0.340	1.490
2020/01/31 03:37:05.0	94.340	-0.140	-0.340	1.500
2020/01/31 03:37:05.1	94.320	-0.160	-0.330	1.490
2020/01/31 03:37:05.2	94.290	-0.180	-0.330	1.490
2020/01/31 03:37:05.3	94.270	-0.190	-0.320	1.480
2020/01/31 03:37:05.4	94.250	-0.210	-0.310	1.460
2020/01/31 03:37:05.5	94.230	-0.230	-0.300	1.440
2020/01/31 03:37:05.6	94.210	-0.250	-0.290	1.420
2020/01/31 03:37:05.7	94.190	-0.260	-0.270	1.400
2020/01/31 03:37:05.8	94.170	-0.280	-0.260	1.370
2020/01/31 03:37:05.9	94.150	-0.290	-0.250	1.330
2020/01/31 03:37:06.0	94.140	-0.300	-0.240	1.300
2020/01/31 03:37:06.1	94.120	-0.310	-0.230	1.260
2020/01/31 03:37:06.2	94.110	-0.320	-0.220	1.220
2020/01/31 03:37:06.3	94.100	-0.330	-0.210	1.180
2020/01/31 03:37:06.4	94.090	-0.330	-0.200	1.130
2020/01/31 03:37:06.5	94.080	-0.340	-0.190	1.090
2020/01/31 03:37:06.6	94.070	-0.340	-0.190	1.040
2020/01/31 03:37:06.7	94.070	-0.330	-0.190	1.000
2020/01/31 03:37:06.8	94.060	-0.330	-0.190	0.950
2020/01/31 03:37:06.9	94.060	-0.320	-0.190	0.910
2020/01/31 03:37:07.0	94.060	-0.310	-0.190	0.870
2020/01/31 03:37:07.1	94.050	-0.300	-0.200	0.820
2020/01/31 03:37:07.2	94.050	-0.280	-0.210	0.780
2020/01/31 03:37:07.3	94.060	-0.260	-0.220	0.740
2020/01/31 03:37:07.4	94.060	-0.240	-0.230	0.700
2020/01/31 03:37:07.5	94.070	-0.210	-0.240	0.670
2020/01/31 03:37:07.6	94.070	-0.180	-0.250	0.630
2020/01/31 03:37:07.7	94.080	-0.150	-0.260	0.600
2020/01/31 03:37:07.8	94.090	-0.120	-0.280	0.570
2020/01/31 03:37:07.9	94.100	-0.090	-0.300	0.540
2020/01/31 03:37:08.0	94.110	-0.060	-0.310	0.520
2020/01/31 03:37:08.1	94.110	-0.020	-0.330	0.500
2020/01/31 03:37:08.2	94.120	0.020	-0.350	0.480
2020/01/31 03:37:08.3	94.130	0.050	-0.360	0.460
2020/01/31 03:37:08.4	94.140	0.090	-0.380	0.450
2020/01/31 03:37:08.5	94.150	0.130	-0.390	0.430
2020/01/31 03:37:08.6	94.160	0.160	-0.400	0.420
2020/01/31 03:37:08.7	94.160	0.200	-0.420	0.410
2020/01/31 03:37:08.8	94.170	0.230	-0.430	0.410
2020/01/31 03:37:08.9	94.170	0.260	-0.430	0.400
2020/01/31 03:37:09.0	94.170	0.290	-0.440	0.400
2020/01/31 03:37:09.1	94.170	0.320	-0.440	0.400
2020/01/31 03:37:09.2	94.170	0.340	-0.440	0.400
2020/01/31 03:37:09.3	94.160	0.360	-0.440	0.410
2020/01/31 03:37:09.4	94.160	0.380	-0.440	0.410
2020/01/31 03:37:09.5	94.150	0.390	-0.430	0.420
2020/01/31 03:37:09.6	94.140	0.400	-0.420	0.430
2020/01/31 03:37:09.7	94.130	0.410	-0.410	0.440
2020/01/31 03:37:09.8	94.110	0.410	-0.400	0.450
2020/01/31 03:37:09.9	94.100	0.410	-0.380	0.460
2020/01/31 03:37:10.0	94.080	0.400	-0.370	0.480
2020/01/31 03:37:10.1	94.060	0.400	-0.350	0.490
2020/01/31 03:37:10.2	94.040	0.380	-0.330	0.510
2020/01/31 03:37:10.3	94.020	0.370	-0.310	0.530
2020/01/31 03:37:10.4	94.010	0.350	-0.280	0.560
2020/01/31 03:37:10.5	93.990	0.330	-0.260	0.580
2020/01/31 03:37:10.6	93.980	0.310	-0.240	0.610
2020/01/31 03:37:10.7	93.960	0.290	-0.210	0.640
2020/01/31 03:37:10.8	93.950	0.260	-0.190	0.670
2020/01/31 03:37:10.9	93.940	0.240	-0.160	0.700
2020/01/31 03:37:11.0	93.930	0.210	-0.140	0.730
2020/01/31 03:37:11.1	93.920	0.180	-0.110	0.760
2020/01/31 03:37:11.2	93.920	0.150	-0.090	0.790
2020/01/31 03:37:11.3	93.920	0.120	-0.070	0.820
2020/01/31 03:37:11.4	93.910	0.100	-0.050	0.850
2020/01/31 03:37:11.5	93.920	0.070	-0.040	0.870
2020/01/31 03:37:11.6	93.920	0.050	-0.020	0.890
2020/01/31 03:37:11.7	93.930	0.030	-0.010	0.910
2020/01/31 03:37:11.8	93.940	0.000	-0.000	0.920
2020/01/31 03:37:11.9	93.950	-0.010	0.000	0.930
2020/01/31 03:37:12.0	93.960	-0.030	0.000	0.940
2020/01/31 03:37:12.1	93.970	-0.040	0.000	0.940
2020/01/31 03:37:12.2	93.990	-0.060	0.000	0.940
2020/01/31 03:37:12.3	94.010	-0.070	-0.010	0.930
2020/01/31 03:37:12.4	94.030	-0.070	-0.010	0.920
2020/01/31 03:37:12.5	94.050	-0.080	-0.020	0.900
2020/01/31 03:37:12.6	94.070	-0.080	-0.040	0.890
2020/01/31 03:37:12.7	94.090	-0.090	-0.050	0.870
2020/01/31 03:37:12.8	94.110	-0.090	-0.060	0.850
2020/01/31 03:37:12.9	94.120	-0.090	-0.070	0.830
2020/01/31 03:37:13.0	94.130	-0.090	-0.090	0.810
2020/01/31 03:37:13.1	94.140	-0.090	-0.100	0.790
2020/01/31 03:37:13.2	94.150	-0.090	-0.110	0.780
2020/01/31 03:37:13.3	94.160	-0.090	-0.120	0.760
2020/01/31 03:37:13.4	94.160	-0.090	-0.130	0.750
2020/01/31 03:37:13.5	94.160	-0.090	-0.140	0.750
2020/01/31 03:37:13.6	94.160	-0.090	-0.140	0.740
2020/01/31 03:37:13.7	94.150	-0.090	-0.140	0.750
2020/01/31 03:37:13.8	94.140	-0.090	-0.140	0.750
2020/01/31 03:37:13.9	94.130	-0.090	-0.140	0.770
2020/01/31 03:37:14.0	94.120	-0.090	-0.140	0.780
2020/01/31 03:37:14.1	94.110	-0.090	-0.130	0.800
2020/01/31 03:37:14.2	94.090	-0.100	-0.130	0.830
2020/01/31 03:37:14.3	94.070	-0.100	-0.120	0.860
2020/01/31 03:37:14.4	94.050	-0.110	-0.110	0.890
2020/01/31 03:37:14.5	94.030	-0.110	-0.100	0.930
2020/01/31 03:37:14.6	94.010	-0.120	-0.090	0.960
2020/01/31 03:37:14.7	93.990	-0.120	-0.080	1.000
2020/01/31 03:37:14.8	93.970	-0.130	-0.070	1.040
2020/01/31 03:37:14.9	93.960	-0.130	-0.060	1.070
2020/01/31 03:37:15.0	93.940	-0.140	-0.060	1.100
2020/01/31 03:37:15.1	93.940	-0.140	-0.050	1.140
2020/01/31 03:37:15.2	93.930	-0.150	-0.050	1.160
2020/01/31 03:37:15.3	93.920	-0.150	-0.050	1.190
2020/01/31 03:37:15.4	93.910	-0.150	-0.050	1.210
2020/01/31 03:37:15.5	93.900	-0.160	-0.050	1.230
2020/01/31 03:37:15.6	93.900	-0.160	-0.060	1.240
2020/01/31 03:37:15.7	93.900	-0.160	-0.070	1.260
2020/01/31 03:37:15.8	93.890	-0.160	-0.080	1.270
2020/01/31 03:37:15.9	93.890	-0.160	-0.090	1.270
2020/01/31 03:37:16.0	93.890	-0.160	-0.110	1.280
2020/01/31 03:37:16.1	93.910	-0.160	-0.120	1.280
2020/01/31 03:37:16.2	93.910	-0.160	-0.140	1.280
2020/01/31 03:37:16.3	93.900	-0.160	-0.160	1.280
2020/01/31 03:37:16.4	93.900	-0.160	-0.180	1.280
2020/01/31 03:37:16.5	93.900	-0.160	-0.200	1.280
2020/01/31 03:37:16.6	93.890	-0.150	-0.220	1.270
2020/01/31 03:37:16.7	93.890	-0.150	-0.240	1.260
2020/01/31 03:37:16.8	93.880	-0.150	-0.260	1.250
2020/01/31 03:37:16.9	93.870	-0.140	-0.280	1.240
2020/01/31 03:37:17.0	93.870	-0.140	-0.300	1.230
2020/01/31 03:37:17.1	93.860	-0.130	-0.320	1.210
2020/01/31 03:37:17.2	93.850	-0.130	-0.340	1.200
2020/01/31 03:37:17.3	93.840	-0.120	-0.360	1.180
2020/01/31 03:37:17.4	93.820	-0.110	-0.370	1.160
2020/01/31 03:37:17.5	93.810	-0.110	-0.390	1.140
2020/01/31 03:37:17.6	93.790	-0.100	-0.400	1.120
2020/01/31 03:37:17.7	93.770	-0.090	-0.410	1.100
2020/01/31 03:37:17.8	93.750	-0.080	-0.420	1.080
2020/01/31 03:37:17.9	93.730	-0.060	-0.430	1.060
2020/01/31 03:37:18.0	93.710	-0.050	-0.440	1.030
2020/01/31 03:37:18.1	93.690	-0.040	-0.450	1.010
2020/01/31 03:37:18.2	93.670	-0.020	-0.460	0.980
2020/01/31 03:37:18.3	93.650	-0.010	-0.470	0.960
2020/01/31 03:37:18.4	93.630	0.010	-0.470	0.930
2020/01/31 03:37:18.5	93.610	0.030	-0.480	0.900
2020/01/31 03:37:18.6	93.590	0.040	-0.480	0.880
2020/01/31 03:37:18.7	93.570	0.060	-0.490	0.850
2020/01/31 03:37:18.8	93.550	0.080	-0.500	0.830
2020/01/31 03:37:18.9	93.530	0.100	-0.500	0.800
2020/01/31 03:37:19.0	93.520	0.120	-0.510	0.780
2020/01/31 03:37:19.1	93.500	0.140	-0.520	0.750
2020/01/31 03:37:19.2	93.490	0.160	-0.520	0.720
2020/01/31 03:37:19.3	93.480	0.180	-0.530	0.700
2020/01/31 03:37:19.4	93.470	0.200	-0.540	0.680
2020/01/31 03:37:19.5	93.470	0.220	-0.550	0.660
2020/01/31 03:37:19.6	93.470	0.240	-0.550	0.640
2020/01/31 03:37:19.7	93.470	0.260	-0.560	0.620
2020/01/31 03:37:19.8	93.470	0.280	-0.570	0.600
2020/01/31 03:37:19.9	93.470	0.300	-0.570	0.590
2020/01/31 03:37:20.0	93.480	0.320	-0.580	0.580
2020/01/31 03:37:20.1	93.480	0.330	-0.580	0.570
2020/01/31 03:37:20.2	93.490	0.350	-0.580	0.560
2020/01/31 03:37:20.3	93.490	0.360	-0.580	0.560
2020/01/31 03:37:20.4	93.500	0.370	-0.580	0.560
2020/01/31 03:37:20.5	93.510	0.380	-0.580	0.560
2020/01/31 03:37:20.6	93.510	0.390	-0.570	0.560
2020/01/31 03:37:20.7	93.510	0.390	-0.560	0.570
2020/01/31 03:37:20.8	93.510	0.390	-0.540	0.580
2020/01/31 03:37:20.9	93.510	0.390	-0.530	0.590
2020/01/31 03:37:21.0	93.510	0.380	-0.500	0.600
2020/01/31 03:37:21.1	93.520	0.380	-0.480	0.620
2020/01/31 03:37:21.2	93.510	0.370	-0.450	0.640
2020/01/31 03:37:21.3	93.500	0.350	-0.420	0.650
2020/01/31 03:37:21.4	93.490	0.330	-0.390	0.670
2020/01/31 03:37:21.5	93.480	0.320	-0.350	0.680
2020/01/31 03:37:21.6	93.470	0.290	-0.310	0.690
2020/01/31 03:37:21.7	93.460	0.270	-0.270	0.710
2020/01/31 03:37:21.8	93.440	0.240	-0.220	0.720
2020/01/31 03:37:21.9	93.430	0.210	-0.180	0.740
2020/01/31 03:37:22.0	93.410	0.180	-0.130	0.750
2020/01/31 03:37:22.1	93.400	0.150	-0.080	0.760
2020/01/31 03:37:22.2	93.380	0.110	-0.030	0.770
2020/01/31 03:37:22.3	93.370	0.070	0.020	0.790
2020/01/31 03:37:22.4	93.360	0.040	0.070	0.800
2020/01/31 03:37:22.5	93.340	-0.000	0.120	0.820
2020/01/31 03:37:22.6	93.330	-0.040	0.170	0.830
2020/01/31 03:37:22.7	93.320	-0.080	0.210	0.850
2020/01/31 03:37:22.8	93.320	-0.120	0.250	0.870
2020/01/31 03:37:22.9	93.310	-0.150	0.290	0.890
2020/01/31 03:37:23.0	93.310	-0.190	0.330	0.910
2020/01/31 03:37:23.1	93.300	-0.230	0.360	0.920
2020/01/31 03:37:23.2	93.300	-0.260	0.390	0.940
2020/01/31 03:37:23.3	93.310	-0.300	0.410	0.960
2020/01/31 03:37:23.4	93.310	-0.330	0.430	0.980
2020/01/31 03:37:23.5	93.320	-0.360	0.440	0.990
2020/01/31 03:37:23.6	93.330	-0.380	0.450	1.010
2020/01/31 03:37:23.7	93.340	-0.410	0.460	1.030
2020/01/31 03:37:23.8	93.350	-0.430	0.460	1.050
2020/01/31 03:37:23.9	93.360	-0.450	0.450	1.060
2020/01/31 03:37:24.0	93.380	-0.470	0.440	1.080
2020/01/31 03:37:24.1	93.390	-0.480	0.430	1.090
2020/01/31 03:37:24.2	93.400	-0.490	0.410	1.100
2020/01/31 03:37:24.3	93.420	-0.500	0.390	1.120
2020/01/31 03:37:24.4	93.440	-0.510	0.360	1.120
2020/01/31 03:37:24.5	93.450	-0.510	0.330	1.130
2020/01/31 03:37:24.6	93.470	-0.510	0.290	1.130
2020/01/31 03:37:24.7	93.480	-0.500	0.250	1.130
2020/01/31 03:37:24.8	93.500	-0.500	0.210	1.130
2020/01/31 03:37:24.9	93.520	-0.490	0.160	1.130
2020/01/31 03:37:25.0	93.530	-0.470	0.120	1.120
2020/01/31 03:37:25.1	93.550	-0.460	0.070	1.110
2020/01/31 03:37:25.2	93.570	-0.440	0.010	1.090
2020/01/31 03:37:25.3	93.580	-0.410	-0.040	1.080
2020/01/31 03:37:25.4	93.590	-0.390	-0.090	1.060
2020/01/31 03:37:25.5	93.610	-0.360	-0.140	1.050
2020/01/31 03:37:25.6	93.620	-0.330	-0.190	1.030
2020/01/31 03:37:25.7	93.620	-0.300	-0.240	1.010
2020/01/31 03:37:25.8	93.630	-0.260	-0.290	1.000
2020/01/31 03:37:25.9	93.630	-0.230	-0.330	0.990
2020/01/31 03:37:26.0	93.640	-0.190	-0.370	0.970
2020/01/31 03:37:26.1	93.640	-0.150	-0.410	0.960
2020/01/31 03:37:26.2	93.640	-0.120	-0.450	0.960
2020/01/31 03:37:26.3	93.630	-0.080	-0.480	0.950
2020/01/31 03:37:26.4	93.620	-0.040	-0.510	0.950
2020/01/31 03:37:26.5	93.610	-0.000	-0.530	0.940
2020/01/31 03:37:26.6	93.600	0.040	-0.550	0.940
2020/01/31 03:37:26.7	93.590	0.070	-0.560	0.950
2020/01/31 03:37:26.8	93.570	0.110	-0.570	0.950
2020/01/31 03:37:26.9	93.550	0.140	-0.580	0.960
2020/01/31 03:37:27.0	93.540	0.180	-0.580	0.970
2020/01/31 03:37:27.1	93.510	0.210	-0.590	0.980
2020/01/31 03:37:27.2	93.490	0.240	-0.590	0.990
2020/01/31 03:37:27.3	93.480	0.270	-0.580	1.010
2020/01/31 03:37:27.4	93.460	0.290	-0.580	1.020
2020/01/31 03:37:27.5	93.440	0.310	-0.570	1.030
2020/01/31 03:37:27.6	93.430	0.330	-0.560	1.050
2020/01/31 03:37:27.7	93.420	0.350	-0.550	1.060
2020/01/31 03:37:27.8	93.410	0.360	-0.540	1.070
2020/01/31 03:37:27.9	93.400	0.380	-0.530	1.080
2020/01/31 03:37:28.0	93.390	0.390	-0.520	1.090
2020/01/31 03:37:28.1	93.390	0.390	-0.500	1.100
2020/01/31 03:37:28.2	93.380	0.390	-0.490	1.110
2020/01/31 03:37:28.3	93.380	0.400	-0.480	1.110
2020/01/31 03:37:28.4	93.370	0.390	-0.470	1.110
2020/01/31 03:37:28.5	93.370	0.390	-0.470	1.110
2020/01/31 03:37:28.6	93.370	0.380	-0.460	1.110
2020/01/31 03:37:28.7	93.370	0.370	-0.450	1.110
2020/01/31 03:37:28.8	93.370	0.360	-0.440	1.100
2020/01/31 03:37:28.9	93.360	0.350	-0.430	1.090
2020/01/31 03:37:29.0	93.360	0.330	-0.430	1.080
2020/01/31 03:37:29.1	93.350	0.310	-0.420	1.060
2020/01/31 03:37:29.2	93.340	0.290	-0.420	1.040
2020/01/31 03:37:29.3	93.340	0.270	-0.410	1.030
2020/01/31 03:37:29.4	93.330	0.250	-0.400	1.010
2020/01/31 03:37:29.5	93.330	0.230	-0.390	0.980
2020/01/31 03:37:29.6	93.330	0.200	-0.380	0.960
2020/01/31 03:37:29.7	93.320	0.180	-0.370	0.940
2020/01/31 03:37:29.8	93.320	0.150	-0.360	0.910
2020/01/31 03:37:29.9	93.310	0.130	-0.350	0.890
2020/01/31 03:37:30.0	93.310	0.110	-0.340	0.860
2020/01/31 03:37:30.1	93.290	0.080	-0.320	0.830
2020/01/31 03:37:30.2	93.290	0.060	-0.300	0.800
2020/01/31 03:37:30.3	93.280	0.040	-0.290	0.780
2020/01/31 03:37:30.4	93.280	0.010	-0.270	0.750
2020/01/31 03:37:30.5	93.270	-0.010	-0.260	0.730
2020/01/31 03:37:30.6	93.270	-0.030	-0.240	0.710
2020/01/31 03:37:30.7	93.270	-0.040	-0.230	0.690
2020/01/31 03:37:30.8	93.260	-0.060	-0.210	0.670
2020/01/31 03:37:30.9	93.260	-0.080	-0.200	0.650
2020/01/31 03:37:31.0	93.260	-0.090	-0.190	0.640
2020/01/31 03:37:31.1	93.250	-0.110	-0.180	0.620
2020/01/31 03:37:31.2	93.240	-0.120	-0.170	0.610
2020/01/31 03:37:31.3	93.240	-0.130	-0.160	0.600
2020/01/31 03:37:31.4	93.240	-0.140	-0.150	0.590
2020/01/31 03:37:31.5	93.240	-0.150	-0.140	0.590
2020/01/31 03:37:31.6	93.240	-0.160	-0.130	0.580
2020/01/31 03:37:31.7	93.230	-0.170	-0.120	0.580
2020/01/31 03:37:31.8	93.230	-0.180	-0.110	0.580
2020/01/31 03:37:31.9	93.230	-0.190	-0.110	0.590
2020/01/31 03:37:32.0	93.220	-0.190	-0.100	0.590
2020/01/31 03:37:32.1	93.210	-0.200	-0.100	0.600
2020/01/31 03:37:32.2	93.210	-0.210	-0.090	0.610
2020/01/31 03:37:32.3	93.200	-0.210	-0.080	0.630
2020/01/31 03:37:32.4	93.200	-0.220	-0.080	0.640
2020/01/31 03:37:32.5	93.190	-0.230	-0.070	0.660
2020/01/31 03:37:32.6	93.190	-0.230	-0.070	0.670
2020/01/31 03:37:32.7	93.180	-0.240	-0.070	0.690
2020/01/31 03:37:32.8	93.180	-0.250	-0.060	0.710
2020/01/31 03:37:32.9	93.170	-0.250	-0.060	0.730
2020/01/31 03:37:33.0	93.170	-0.260	-0.060	0.750
2020/01/31 03:37:33.1	93.160	-0.260	-0.070	0.770
2020/01/31 03:37:33.2	93.160	-0.270	-0.070	0.790
2020/01/31 03:37:33.3	93.160	-0.270	-0.070	0.810
2020/01/31 03:37:33.4	93.150	-0.270	-0.080	0.840
2020/01/31 03:37:33.5	93.160	-0.270	-0.090	0.860
2020/01/31 03:37:33.6	93.160	-0.270	-0.100	0.880
2020/01/31 03:37:33.7	93.160	-0.270	-0.120	0.900
2020/01/31 03:37:33.8	93.170	-0.270	-0.130	0.930
2020/01/31 03:37:33.9	93.170	-0.260	-0.150	0.950
2020/01/31 03:37:34.0	93.180	-0.250	-0.170	0.970
2020/01/31 03:37:34.1	93.200	-0.250	-0.190	0.990
2020/01/31 03:37:34.2	93.210	-0.230	-0.220	1.010
2020/01/31 03:37:34.3	93.220	-0.220	-0.240	1.030
2020/01/31 03:37:34.4	93.230	-0.210	-0.270	1.050
2020/01/31 03:37:34.5	93.250	-0.190	-0.300	1.070
2020/01/31 03:37:34.6	93.260	-0.170	-0.330	1.080
2020/01/31 03:37:34.7	93.270	-0.150	-0.350	1.100
2020/01/31 03:37:34.8	93.290	-0.130	-0.380	1.110
2020/01/31 03:37:34.9	93.300	-0.100	-0.410	1.130
2020/01/31 03:37:35.0	93.310	-0.080	-0.440	1.140
2020/01/31 03:37:35.1	93.310	-0.050	-0.460	1.150
2020/01/31 03:37:35.2	93.320	-0.030	-0.480	1.160
2020/01/31 03:37:35.3	93.330	0.000	-0.500	1.160
2020/01/31 03:37:35.4	93.340	0.030	-0.520	1.170
2020/01/31 03:37:35.5	93.340	0.050	-0.530	1.180
2020/01/31 03:37:35.6	93.340	0.080	-0.540	1.180
2020/01/31 03:37:35.7	93.340	0.100	-0.550	1.190
2020/01/31 03:37:35.8	93.340	0.130	-0.560	1.190
2020/01/31 03:37:35.9	93.330	0.150	-0.550	1.200
2020/01/31 03:37:36.0	93.320	0.170	-0.550	1.200
2020/01/31 03:37:36.1	93.320	0.190	-0.540	1.210
2020/01/31 03:37:36.2	93.310	0.200	-0.530	1.220
2020/01/31 03:37:36.3	93.290	0.220	-0.520	1.220
2020/01/31 03:37:36.4	93.270	0.230	-0.500	1.230
2020/01/31 03:37:36.5	93.250	0.240	-0.470	1.240
2020/01/31 03:37:36.6	93.220	0.250	-0.440	1.240
2020/01/31 03:37:36.7	93.190	0.250	-0.410	1.240
2020/01/31 03:37:36.8	93.160	0.250	-0.380	1.250
2020/01/31 03:37:36.9	93.130	0.250	-0.340	1.250
2020/01/31 03:37:37.0	93.100	0.250	-0.310	1.250
2020/01/31 03:37:37.1	93.070	0.240	-0.260	1.250
2020/01/31 03:37:37.2	93.040	0.230	-0.220	1.240
2020/01/31 03:37:37.3	93.000	0.220	-0.170	1.230
2020/01/31 03:37:37.4	92.970	0.210	-0.130	1.220
2020/01/31 03:37:37.5	92.930	0.190	-0.080	1.210
2020/01/31 03:37:37.6	92.900	0.180	-0.030	1.190
2020/01/31 03:37:37.7	92.870	0.160	0.020	1.170
2020/01/31 03:37:37.8	92.840	0.140	0.060	1.140
2020/01/31 03:37:37.9	92.810	0.110	0.110	1.110
2020/01/31 03:37:38.0	92.780	0.090	0.160	1.080
2020/01/31 03:37:38.1	92.760	0.060	0.210	1.030
2020/01/31 03:37:38.2	92.740	0.040	0.250	0.990
2020/01/31 03:37:38.3	92.720	0.010	0.290	0.950
2020/01/31 03:37:38.4	92.710	-0.010	0.330	0.900
2020/01/31 03:37:38.5	92.700	-0.040	0.360	0.860
2020/01/31 03:37:38.6	92.700	-0.060	0.390	0.810
2020/01/31 03:37:38.7	92.700	-0.080	0.420	0.760
2020/01/31 03:37:38.8	92.700	-0.100	0.440	0.710
2020/01/31 03:37:38.9	92.720	-0.120	0.450	0.660
2020/01/31 03:37:39.0	92.730	-0.140	0.460	0.610
2020/01/31 03:37:39.1	92.740	-0.150	0.460	0.550
2020/01/31 03:37:39.2	92.760	-0.160	0.450	0.500
2020/01/31 03:37:39.3	92.790	-0.170	0.440	0.450
2020/01/31 03:37:39.4	92.820	-0.170	0.420	0.410
2020/01/31 03:37:39.5	92.850	-0.170	0.390	0.360
2020/01/31 03:37:39.6	92.890	-0.170	0.360	0.310
2020/01/31 03:37:39.7	92.930	-0.170	0.320	0.270
2020/01/31 03:37:39.8	92.970	-0.160	0.270	0.230
2020/01/31 03:37:39.9	93.010	-0.150	0.220	0.190
2020/01/31 03:37:40.0	93.060	-0.130	0.170	0.150
2020/01/31 03:37:40.1	93.110	-0.110	0.100	0.110
2020/01/31 03:37:40.2	93.160	-0.090	0.040	0.080
2020/01/31 03:37:40.3	93.210	-0.070	-0.020	0.050
2020/01/31 03:37:40.4	93.260	-0.050	-0.090	0.030
2020/01/31 03:37:40.5	93.310	-0.020	-0.160	0.010
2020/01/31 03:37:40.6	93.360	0.010	-0.230	0.000
2020/01/31 03:37:40.7	93.410	0.040	-0.300	-0.010
2020/01/31 03:37:40.8	93.450	0.070	-0.360	-0.010
2020/01/31 03:37:40.9	93.490	0.090	-0.430	0.000
2020/01/31 03:37:41.0	93.530	0.120	-0.490	0.010
2020/01/31 03:37:41.1	93.570	0.150	-0.550	0.030
2020/01/31 03:37:41.2	93.600	0.180	-0.610	0.060
2020/01/31 03:37:41.3	93.630	0.200	-0.660	0.090
2020/01/31 03:37:41.4	93.650	0.230	-0.700	0.130
2020/01/31 03:37:41.5	93.660	0.250	-0.740	0.170
2020/01/31 03:37:41.6	93.670	0.270	-0.780	0.220
2020/01/31 03:37:41.7	93.670	0.280	-0.810	0.270
2020/01/31 03:37:41.8	93.670	0.290	-0.830	0.330
2020/01/31 03:37:41.9	93.660	0.300	-0.840	0.390
2020/01/31 03:37:42.0	93.640	0.310	-0.850	0.460
2020/01/31 03:37:42.1	93.600	0.310	-0.860	0.520
2020/01/31 03:37:42.2	93.570	0.300	-0.850	0.590
2020/01/31 03:37:42.3	93.540	0.290	-0.830	0.660
2020/01/31 03:37:42.4	93.510	0.280	-0.810	0.730
2020/01/31 03:37:42.5	93.470	0.260	-0.780	0.810
2020/01/31 03:37:42.6	93.430	0.230	-0.750	0.880
2020/01/31 03:37:42.7	93.380	0.200	-0.700	0.950
2020/01/31 03:37:42.8	93.330	0.170	-0.660	1.020
2020/01/31 03:37:42.9	93.290	0.130	-0.600	1.080
2020/01/31 03:37:43.0	93.230	0.090	-0.550	1.150
2020/01/31 03:37:43.1	93.180	0.050	-0.480	1.210
2020/01/31 03:37:43.2	93.130	0.000	-0.420	1.270
2020/01/31 03:37:43.3	93.070	-0.050	-0.350	1.330
2020/01/31 03:37:43.4	93.020	-0.100	-0.280	1.380
2020/01/31 03:37:43.5	92.970	-0.150	-0.210	1.430
2020/01/31 03:37:43.6	92.910	-0.200	-0.140	1.470
2020/01/31 03:37:43.7	92.860	-0.250	-0.080	1.510
2020/01/31 03:37:43.8	92.810	-0.310	-0.010	1.550
2020/01/31 03:37:43.9	92.760	-0.360	0.050	1.570
2020/01/31 03:37:44.0	92.720	-0.410	0.110	1.590
2020/01/31 03:37:44.1	92.670	-0.450	0.160	1.610
2020/01/31 03:37:44.2	92.630	-0.500	0.210	1.620
2020/01/31 03:37:44.3	92.590	-0.530	0.250	1.620
2020/01/31 03:37:44.4	92.560	-0.570	0.290	1.610
2020/01/31 03:37:44.5	92.530	-0.600	0.310	1.600
2020/01/31 03:37:44.6	92.500	-0.620	0.330	1.590
2020/01/31 03:37:44.7	92.480	-0.640	0.340	1.560
2020/01/31 03:37:44.8	92.460	-0.650	0.340	1.530
2020/01/31 03:37:44.9	92.440	-0.650	0.330	1.500
2020/01/31 03:37:45.0	92.430	-0.650	0.310	1.460
2020/01/31 03:37:45.1	92.420	-0.640	0.290	1.410
2020/01/31 03:37:45.2	92.410	-0.620	0.250	1.350
2020/01/31 03:37:45.3	92.410	-0.600	0.200	1.300
2020/01/31 03:37:45.4	92.420	-0.570	0.150	1.230
2020/01/31 03:37:45.5	92.420	-0.530	0.090	1.170
2020/01/31 03:37:45.6	92.430	-0.490	0.020	1.100
2020/01/31 03:37:45.7	92.440	-0.440	-0.060	1.030
2020/01/31 03:37:45.8	92.450	-0.390	-0.140	0.960
2020/01/31 03:37:45.9	92.470	-0.330	-0.220	0.890
2020/01/31 03:37:46.0	92.490	-0.260	-0.310	0.830
2020/01/31 03:37:46.1	92.530	-0.200	-0.410	0.760
2020/01/31 03:37:46.2	92.550	-0.130	-0.500	0.700
2020/01/31 03:37:46.3	92.570	-0.060	-0.580	0.640
2020/01/31 03:37:46.4	92.600	0.010	-0.670	0.580
2020/01/31 03:37:46.5	92.620	0.080	-0.760	0.530
2020/01/31 03:37:46.6	92.650	0.160	-0.840	0.480
2020/01/31 03:37:46.7	92.670	0.230	-0.920	0.440
2020/01/31 03:37:46.8	92.700	0.300	-0.990	0.400
2020/01/31 03:37:46.9	92.720	0.360	-1.050	0.370
2020/01/31 03:37:47.0	92.750	0.420	-1.110	0.340
2020/01/31 03:37:47.1	92.780	0.480	-1.160	0.310
2020/01/31 03:37:47.2	92.800	0.540	-1.200	0.290
2020/01/31 03:37:47.3	92.820	0.590	-1.220	0.280
2020/01/31 03:37:47.4	92.840	0.630	-1.240	0.260
2020/01/31 03:37:47.5	92.860	0.670	-1.250	0.250
2020/01/31 03:37:47.6	92.880	0.700	-1.240	0.250
2020/01/31 03:37:47.7	92.890	0.720	-1.230	0.250
2020/01/31 03:37:47.8	92.910	0.730	-1.200	0.250
2020/01/31 03:37:47.9	92.910	0.740	-1.160	0.260
2020/01/31 03:37:48.0	92.920	0.740	-1.100	0.270
2020/01/31 03:37:48.1	92.920	0.740	-1.040	0.290
2020/01/31 03:37:48.2	92.920	0.720	-0.960	0.310
2020/01/31 03:37:48.3	92.910	0.700	-0.880	0.330
2020/01/31 03:37:48.4	92.900	0.670	-0.780	0.360
2020/01/31 03:37:48.5	92.890	0.630	-0.680	0.390
2020/01/31 03:37:48.6	92.880	0.590	-0.570	0.420
2020/01/31 03:37:48.7	92.860	0.540	-0.450	0.460
2020/01/31 03:37:48.8	92.850	0.480	-0.330	0.500
2020/01/31 03:37:48.9	92.820	0.420	-0.200	0.550
2020/01/31 03:37:49.0	92.800	0.350	-0.070	0.600
2020/01/31 03:37:49.1	92.760	0.280	0.070	0.640
2020/01/31 03:37:49.2	92.730	0.210	0.210	0.690
2020/01/31 03:37:49.3	92.700	0.130	0.340	0.740
2020/01/31 03:37:49.4	92.660	0.050	0.480	0.790
2020/01/31 03:37:49.5	92.630	-0.030	0.610	0.840
2020/01/31 03:37:49.6	92.590	-0.120	0.740	0.890
2020/01/31 03:37:49.7	92.550	-0.200	0.860	0.940
2020/01/31 03:37:49.8	92.510	-0.290	0.980	0.980
2020/01/31 03:37:49.9	92.470	-0.370	1.090	1.020
2020/01/31 03:37:50.0	92.430	-0.450	1.180	1.060
2020/01/31 03:37:50.1	92.390	-0.530	1.270	1.100
2020/01/31 03:37:50.2	92.350	-0.610	1.350	1.130
2020/01/31 03:37:50.3	92.320	-0.680	1.410	1.160
2020/01/31 03:37:50.4	92.290	-0.740	1.460	1.180
2020/01/31 03:37:50.5	92.260	-0.800	1.500	1.200
2020/01/31 03:37:50.6	92.240	-0.860	1.520	1.210
2020/01/31 03:37:50.7	92.210	-0.900	1.520	1.220
2020/01/31 03:37:50.8	92.200	-0.940	1.500	1.220
2020/01/31 03:37:50.9	92.190	-0.960	1.470	1.210
2020/01/31 03:37:51.0	92.180	-0.980	1.410	1.200
2020/01/31 03:37:51.1	92.190	-0.990	1.340	1.180
2020/01/31 03:37:51.2	92.190	-0.990	1.250	1.160
2020/01/31 03:37:51.3	92.200	-0.970	1.140	1.130
2020/01/31 03:37:51.4	92.210	-0.950	1.020	1.100
2020/01/31 03:37:51.5	92.230	-0.910	0.880	1.070
2020/01/31 03:37:51.6	92.250	-0.870	0.720	1.030
2020/01/31 03:37:51.7	92.270	-0.810	0.560	0.980
2020/01/31 03:37:51.8	92.300	-0.750	0.380	0.940
2020/01/31 03:37:51.9	92.330	-0.680	0.190	0.890
2020/01/31 03:37:52.0	92.360	-0.590	-0.010	0.850
2020/01/31 03:37:52.1	92.380	-0.510	-0.210	0.800
2020/01/31 03:37:52.2	92.420	-0.410	-0.410	0.760
2020/01/31 03:37:52.3	92.450	-0.320	-0.610	0.720
2020/01/31 03:37:52.4	92.480	-0.220	-0.810	0.680
2020/01/31 03:37:52.5	92.510	-0.110	-1.000	0.650
2020/01/31 03:37:52.6	92.540	-0.010	-1.180	0.620
2020/01/31 03:37:52.7	92.560	0.090	-1.360	0.600
2020/01/31 03:37:52.8	92.590	0.190	-1.520	0.580
2020/01/31 03:37:52.9	92.600	0.290	-1.660	0.570
2020/01/31 03:37:53.0	92.620	0.380	-1.790	0.560
2020/01/31 03:37:53.1	92.610	0.470	-1.910	0.550
2020/01/31 03:37:53.2	92.620	0.560	-2.000	0.550
2020/01/31 03:37:53.3	92.620	0.630	-2.070	0.560
2020/01/31 03:37:53.4	92.620	0.700	-2.120	0.570
2020/01/31 03:37:53.5	92.620	0.760	-2.150	0.580
2020/01/31 03:37:53.6	92.610	0.810	-2.150	0.600
2020/01/31 03:37:53.7	92.600	0.850	-2.140	0.620
2020/01/31 03:37:53.8	92.590	0.880	-2.100	0.640
2020/01/31 03:37:53.9	92.570	0.900	-2.040	0.670
2020/01/31 03:37:54.0	92.560	0.910	-1.960	0.700
2020/01/31 03:37:54.1	92.530	0.920	-1.860	0.730
2020/01/31 03:37:54.2	92.510	0.910	-1.740	0.770
2020/01/31 03:37:54.3	92.490	0.890	-1.600	0.810
2020/01/31 03:37:54.4	92.470	0.860	-1.450	0.850
2020/01/31 03:37:54.5	92.440	0.820	-1.280	0.890
2020/01/31 03:37:54.6	92.420	0.770	-1.110	0.940
2020/01/31 03:37:54.7	92.390	0.720	-0.920	0.980
2020/01/31 03:37:54.8	92.370	0.660	-0.720	1.030
2020/01/31 03:37:54.9	92.340	0.590	-0.530	1.080
2020/01/31 03:37:55.0	92.310	0.520	-0.320	1.130
2020/01/31 03:37:55.1	92.270	0.440	-0.110	1.170
2020/01/31 03:37:55.2	92.240	0.360	0.090	1.220
2020/01/31 03:37:55.3	92.220	0.270	0.290	1.260
2020/01/31 03:37:55.4	92.190	0.190	0.480	1.300
2020/01/31 03:37:55.5	92.170	0.100	0.660	1.340
2020/01/31 03:37:55.6	92.150	0.010	0.830	1.370
2020/01/31 03:37:55.7	92.130	-0.070	0.990	1.410
2020/01/31 03:37:55.8	92.110	-0.150	1.130	1.430
2020/01/31 03:37:55.9	92.090	-0.230	1.260	1.460
2020/01/31 03:37:56.0	92.070	-0.310	1.370	1.480
2020/01/31 03:37:56.1	92.060	-0.380	1.470	1.490
2020/01/31 03:37:56.2	92.050	-0.450	1.540	1.500
2020/01/31 03:37:56.3	92.040	-0.510	1.590	1.500
2020/01/31 03:37:56.4	92.030	-0.560	1.630	1.500
2020/01/31 03:37:56.5	92.020	-0.610	1.640	1.490
2020/01/31 03:37:56.6	92.010	-0.640	1.640	1.480
2020/01/31 03:37:56.7	92.000	-0.680	1.610	1.460
2020/01/31 03:37:56.8	92.000	-0.700	1.570	1.430
2020/01/31 03:37:56.9	92.000	-0.710	1.500	1.400
2020/01/31 03:37:57.0	91.990	-0.720	1.420	1.370
2020/01/31 03:37:57.1	92.010	-0.720	1.320	1.320
2020/01/31 03:37:57.2	92.010	-0.710	1.210	1.270
2020/01/31 03:37:57.3	92.010	-0.690	1.080	1.220
2020/01/31 03:37:57.4	92.020	-0.670	0.940	1.160
2020/01/31 03:37:57.5	92.020	-0.640	0.790	1.090
2020/01/31 03:37:57.6	92.030	-0.600	0.630	1.020
2020/01/31 03:37:57.7	92.050	-0.550	0.470	0.940
2020/01/31 03:37:57.8	92.060	-0.500	0.300	0.870
2020/01/31 03:37:57.9	92.080	-0.450	0.120	0.790
2020/01/31 03:37:58.0	92.090	-0.390	-0.050	0.710
2020/01/31 03:37:58.1	92.120	-0.320	-0.240	0.620
2020/01/31 03:37:58.2	92.150	-0.260	-0.410	0.540
2020/01/31 03:37:58.3	92.170	-0.190	-0.580	0.460
2020/01/31 03:37:58.4	92.200	-0.110	-0.750	0.380
2020/01/31 03:37:58.5	92.230	-0.040	-0.910	0.310
2020/01/31 03:37:58.6	92.270	0.030	-1.060	0.250
2020/01/31 03:37:58.7	92.300	0.110	-1.200	0.190
2020/01/31 03:37:58.8	92.340	0.180	-1.330	0.140
2020/01/31 03:37:58.9	92.370	0.250	-1.450	0.090
2020/01/31 03:37:59.0	92.410	0.320	-1.560	0.060
2020/01/31 03:37:59.1	92.460	0.390	-1.660	0.030
2020/01/31 03:37:59.2	92.500	0.450	-1.730	0.020
2020/01/31 03:37:59.3	92.540	0.510	-1.800	0.020
2020/01/31 03:37:59.4	92.580	0.570	-1.840	0.020
2020/01/31 03:37:59.5	92.610	0.620	-1.880	0.030
2020/01/31 03:37:59.6	92.650	0.660	-1.890	0.060
2020/01/31 03:37:59.7	92.680	0.700	-1.890	0.090
2020/01/31 03:37:59.8	92.710	0.740	-1.870	0.130
2020/01/31 03:37:59.9	92.740	0.760	-1.840	0.170
2020/01/31 03:38:00.0	92.770	0.780	-1.790	0.220
2020/01/31 03:38:00.1	92.780	0.790	-1.720	0.280
2020/01/31 03:38:00.2	92.800	0.800	-1.640	0.330
2020/01/31 03:38:00.3	92.810	0.790	-1.540	0.390
2020/01/31 03:38:00.4	92.820	0.780	-1.430	0.450
2020/01/31 03:38:00.5	92.830	0.760	-1.310	0.510
2020/01/31 03:38:00.6	92.840	0.740	-1.180	0.570
2020/01/31 03:38:00.7	92.840	0.700	-1.040	0.630
2020/01/31 03:38:00.8	92.840	0.660	-0.900	0.680
2020/01/31 03:38:00.9	92.840	0.610	-0.740	0.730
2020/01/31 03:38:01.0	92.830	0.560	-0.590	0.780
2020/01/31 03:38:01.1	92.800	0.500	-0.420	0.820
2020/01/31 03:38:01.2	92.790	0.430	-0.260	0.860
2020/01/31 03:38:01.3	92.780	0.360	-0.100	0.900
2020/01/31 03:38:01.4	92.760	0.290	0.050	0.930
2020/01/31 03:38:01.5	92.740	0.210	0.210	0.950
2020/01/31 03:38:01.6	92.720	0.130	0.360	0.980
2020/01/31 03:38:01.7	92.700	0.050	0.500	0.990
2020/01/31 03:38:01.8	92.680	-0.030	0.630	1.010
2020/01/31 03:38:01.9	92.660	-0.120	0.760	1.020
2020/01/31 03:38:02.0	92.640	-0.200	0.870	1.030
2020/01/31 03:38:02.1	92.610	-0.280	0.980	1.030
2020/01/31 03:38:02.2	92.590	-0.360	1.070	1.030
2020/01/31 03:38:02.3	92.570	-0.430	1.150	1.030
2020/01/31 03:38:02.4	92.550	-0.510	1.220	1.030
2020/01/31 03:38:02.5	92.540	-0.570	1.260	1.020
2020/01/31 03:38:02.6	92.520	-0.630	1.300	1.010
2020/01/31 03:38:02.7	92.510	-0.690	1.320	1.000
2020/01/31 03:38:02.8	92.510	-0.740	1.320	0.990
2020/01/31 03:38:02.9	92.500	-0.780	1.310	0.970
2020/01/31 03:38:03.0	92.500	-0.820	1.280	0.950
2020/01/31 03:38:03.1	92.510	-0.840	1.230	0.920
2020/01/31 03:38:03.2	92.520	-0.860	1.170	0.900
2020/01/31 03:38:03.3	92.530	-0.870	1.100	0.870
2020/01/31 03:38:03.4	92.550	-0.870	1.020	0.830
2020/01/31 03:38:03.5	92.570	-0.870	0.930	0.800
2020/01/31 03:38:03.6	92.590	-0.850	0.820	0.760
2020/01/31 03:38:03.7	92.620	-0.830	0.710	0.720
2020/01/31 03:38:03.8	92.650	-0.800	0.590	0.680
2020/01/31 03:38:03.9	92.680	-0.760	0.460	0.640
2020/01/31 03:38:04.0	92.710	-0.710	0.330	0.600
2020/01/31 03:38:04.1	92.760	-0.660	0.200	0.560
2020/01/31 03:38:04.2	92.790	-0.610	0.060	0.510
2020/01/31 03:38:04.3	92.830	-0.550	-0.070	0.470
2020/01/31 03:38:04.4	92.880	-0.480	-0.210	0.430
2020/01/31 03:38:04.5	92.920	-0.410	-0.340	0.390
2020/01/31 03:38:04.6	92.960	-0.340	-0.460	0.360
2020/01/31 03:38:04.7	93.000	-0.270	-0.580	0.320
2020/01/31 03:38:04.8	93.040	-0.200	-0.690	0.280
2020/01/31 03:38:04.9	93.080	-0.120	-0.800	0.250
2020/01/31 03:38:05.0	93.110	-0.050	-0.900	0.210
2020/01/31 03:38:05.1	93.150	0.020	-1.000	0.190
2020/01/31 03:38:05.2	93.180	0.090	-1.080	0.160
2020/01/31 03:38:05.3	93.210	0.150	-1.140	0.140
2020/01/31 03:38:05.4	93.240	0.210	-1.200	0.110
2020/01/31 03:38:05.5	93.260	0.270	-1.250	0.100
2020/01/31 03:38:05.6	93.280	0.320	-1.290	0.080
2020/01/31 03:38:05.7	93.310	0.370	-1.320	0.070
2020/01/31 03:38:05.8	93.320	0.420	-1.330	0.070
2020/01/31 03:38:05.9	93.340	0.450	-1.340	0.070
2020/01/31 03:38:06.0	93.360	0.490	-1.330	0.070
2020/01/31 03:38:06.1	93.350	0.510	-1.310	0.080
2020/01/31 03:38:06.2	93.360	0.530	-1.290	0.100
2020/01/31 03:38:06.3	93.370	0.550	-1.260	0.120
2020/01/31 03:38:06.4	93.380	0.560	-1.210	0.150
2020/01/31 03:38:06.5	93.390	0.560	-1.160	0.190
2020/01/31 03:38:06.6	93.390	0.560	-1.100	0.220
2020/01/31 03:38:06.7	93.400	0.550	-1.040	0.270
2020/01/31 03:38:06.8	93.400	0.540	-0.960	0.310
2020/01/31 03:38:06.9	93.400	0.520	-0.890	0.360
2020/01/31 03:38:07.0	93.410	0.500	-0.810	0.410
2020/01/31 03:38:07.1	93.430	0.480	-0.720	0.460
2020/01/31 03:38:07.2	93.430	0.450	-0.630	0.510
2020/01/31 03:38:07.3	93.430	0.420	-0.540	0.570
2020/01/31 03:38:07.4	93.440	0.390	-0.450	0.620
2020/01/31 03:38:07.5	93.440	0.360	-0.360	0.670
2020/01/31 03:38:07.6	93.450	0.320	-0.270	0.720
2020/01/31 03:38:07.7	93.460	0.280	-0.180	0.760
2020/01/31 03:38:07.8	93.470	0.250	-0.090	0.810
2020/01/31 03:38:07.9	93.480	0.210	-0.010	0.850
2020/01/31 03:38:08.0	93.490	0.170	0.070	0.880
2020/01/31 03:38:08.1	93.500	0.130	0.150	0.920
2020/01/31 03:38:08.2	93.510	0.100	0.220	0.950
2020/01/31 03:38:08.3	93.530	0.060	0.280	0.970
2020/01/31 03:38:08.4	93.540	0.030	0.340	0.990
2020/01/31 03:38:08.5	93.560	-0.010	0.400	1.000
2020/01/31 03:38:08.6	93.580	-0.040	0.440	1.010
2020/01/31 03:38:08.7	93.590	-0.070	0.480	1.020
2020/01/31 03:38:08.8	93.610	-0.100	0.520	1.020
2020/01/31 03:38:08.9	93.630	-0.120	0.550	1.010
2020/01/31 03:38:09.0	93.650	-0.150	0.570	1.000
2020/01/31 03:38:09.1	93.670	-0.170	0.570	0.990
2020/01/31 03:38:09.2	93.690	-0.190	0.580	0.970
2020/01/31 03:38:09.3	93.700	-0.210	0.580	0.950
2020/01/31 03:38:09.4	93.720	-0.230	0.580	0.920
2020/01/31 03:38:09.5	93.740	-0.240	0.560	0.900
2020/01/31 03:38:09.6	93.760	-0.250	0.550	0.870
2020/01/31 03:38:09.7	93.770	-0.260	0.520	0.850
2020/01/31 03:38:09.8	93.790	-0.270	0.500	0.820
2020/01/31 03:38:09.9	93.800	-0.270	0.460	0.800
2020/01/31 03:38:10.0	93.810	-0.280	0.430	0.780
2020/01/31 03:38:10.1	93.830	-0.280	0.390	0.760
2020/01/31 03:38:10.2	93.840	-0.270	0.350	0.740
2020/01/31 03:38:10.3	93.840	-0.270	0.310	0.730
2020/01/31 03:38:10.4	93.850	-0.270	0.260	0.710
2020/01/31 03:38:10.5	93.850	-0.260	0.210	0.700
2020/01/31 03:38:10.6	93.850	-0.250	0.160	0.690
2020/01/31 03:38:10.7	93.850	-0.240	0.110	0.680
2020/01/31 03:38:10.8	93.850	-0.220	0.060	0.680
2020/01/31 03:38:10.9	93.850	-0.210	0.000	0.670
2020/01/31 03:38:11.0	93.850	-0.190	-0.050	0.670
2020/01/31 03:38:11.1	93.860	-0.180	-0.110	0.660
2020/01/31 03:38:11.2	93.860	-0.160	-0.160	0.660
2020/01/31 03:38:11.3	93.860	-0.140	-0.220	0.650
2020/01/31 03:38:11.4	93.860	-0.120	-0.270	0.640
2020/01/31 03:38:11.5	93.860	-0.090	-0.320	0.640
2020/01/31 03:38:11.6	93.860	-0.070	-0.380	0.630
2020/01/31 03:38:11.7	93.870	-0.050	-0.430	0.620
2020/01/31 03:38:11.8	93.870	-0.020	-0.480	0.610
2020/01/31 03:38:11.9	93.880	0.000	-0.530	0.600
2020/01/31 03:38:12.0	93.890	0.030	-0.580	0.580
2020/01/31 03:38:12.1	93.880	0.050	-0.630	0.560
2020/01/31 03:38:12.2	93.900	0.080	-0.670	0.550
2020/01/31 03:38:12.3	93.910	0.110	-0.720	0.530
2020/01/31 03:38:12.4	93.930	0.130	-0.760	0.510
2020/01/31 03:38:12.5	93.940	0.160	-0.800	0.500
2020/01/31 03:38:12.6	93.960	0.190	-0.840	0.480
2020/01/31 03:38:12.7	93.980	0.210	-0.870	0.460
2020/01/31 03:38:12.8	94.000	0.240	-0.900	0.450
2020/01/31 03:38:12.9	94.030	0.270	-0.920	0.430
2020/01/31 03:38:13.0	94.050	0.290	-0.940	0.420
2020/01/31 03:38:13.1	94.080	0.320	-0.960	0.400
2020/01/31 03:38:13.2	94.100	0.340	-0.970	0.390
2020/01/31 03:38:13.3	94.120	0.360	-0.970	0.380
2020/01/31 03:38:13.4	94.140	0.380	-0.960	0.380
2020/01/31 03:38:13.5	94.160	0.400	-0.950	0.370
2020/01/31 03:38:13.6	94.190	0.420	-0.930	0.370
2020/01/31 03:38:13.7	94.200	0.430	-0.910	0.370
2020/01/31 03:38:13.8	94.220	0.450	-0.880	0.360
2020/01/31 03:38:13.9	94.240	0.460	-0.840	0.370
2020/01/31 03:38:14.0	94.260	0.460	-0.790	0.370
2020/01/31 03:38:14.1	94.260	0.470	-0.730	0.370
2020/01/31 03:38:14.2	94.270	0.470	-0.670	0.380
2020/01/31 03:38:14.3	94.290	0.460	-0.610	0.380
2020/01/31 03:38:14.4	94.290	0.460	-0.540	0.390
2020/01/31 03:38:14.5	94.300	0.450	-0.460	0.400
2020/01/31 03:38:14.6	94.310	0.430	-0.390	0.410
2020/01/31 03:38:14.7	94.310	0.410	-0.310	0.420
2020/01/31 03:38:14.8	94.320	0.390	-0.230	0.430
2020/01/31 03:38:14.9	94.320	0.370	-0.140	0.440
2020/01/31 03:38:15.0	94.320	0.340	-0.060	0.450
2020/01/31 03:38:15.1	94.310	0.310	0.020	0.460
2020/01/31 03:38:15.2	94.310	0.280	0.100	0.460
2020/01/31 03:38:15.3	94.310	0.250	0.170	0.470
2020/01/31 03:38:15.4	94.310	0.210	0.240	0.480
2020/01/31 03:38:15.5	94.310	0.170	0.300	0.490
2020/01/31 03:38:15.6	94.320	0.130	0.360	0.500
2020/01/31 03:38:15.7	94.320	0.100	0.410	0.500
2020/01/31 03:38:15.8	94.320	0.060	0.450	0.510
2020/01/31 03:38:15.9	94.330	0.020	0.480	0.510
2020/01/31 03:38:16.0	94.330	-0.020	0.510	0.510
2020/01/31 03:38:16.1	94.330	-0.050	0.520	0.510
2020/01/31 03:38:16.2	94.340	-0.080	0.530	0.510
2020/01/31 03:38:16.3	94.350	-0.110	0.530	0.510
2020/01/31 03:38:16.4	94.370	-0.140	0.520	0.510
2020/01/31 03:38:16.5	94.380	-0.170	0.500	0.510
2020/01/31 03:38:16.6	94.400	-0.190	0.480	0.510
2020/01/31 03:38:16.7	94.420	-0.210	0.440	0.520
2020/01/31 03:38:16.8	94.450	-0.220	0.400	0.520
2020/01/31 03:38:16.9	94.470	-0.230	0.360	0.520
2020/01/31 03:38:17.0	94.500	-0.240	0.310	0.520
2020/01/31 03:38:17.1	94.520	-0.240	0.250	0.520
2020/01/31 03:38:17.2	94.550	-0.240	0.190	0.520
2020/01/31 03:38:17.3	94.580	-0.230	0.130	0.530
2020/01/31 03:38:17.4	94.620	-0.220	0.070	0.530
2020/01/31 03:38:17.5	94.650	-0.210	0.000	0.540
2020/01/31 03:38:17.6	94.690	-0.200	-0.060	0.540
2020/01/31 03:38:17.7	94.720	-0.180	-0.130	0.550
2020/01/31 03:38:17.8	94.760	-0.160	-0.190	0.550
2020/01/31 03:38:17.9	94.790	-0.140	-0.260	0.560
2020/01/31 03:38:18.0	94.830	-0.120	-0.320	0.570
2020/01/31 03:38:18.1	94.860	-0.090	-0.380	0.570
2020/01/31 03:38:18.2	94.890	-0.070	-0.440	0.580
2020/01/31 03:38:18.3	94.920	-0.040	-0.490	0.590
2020/01/31 03:38:18.4	94.940	-0.010	-0.550	0.600
2020/01/31 03:38:18.5	94.960	0.010	-0.600	0.620
2020/01/31 03:38:18.6	94.980	0.040	-0.640	0.640
2020/01/31 03:38:18.7	94.990	0.070	-0.680	0.660
2020/01/31 03:38:18.8	95.000	0.090	-0.720	0.680
2020/01/31 03:38:18.9	95.000	0.110	-0.760	0.710
2020/01/31 03:38:19.0	95.000	0.140	-0.780	0.730
2020/01/31 03:38:19.1	95.000	0.160	-0.810	0.760
2020/01/31 03:38:19.2	94.990	0.180	-0.830	0.790
2020/01/31 03:38:19.3	94.980	0.190	-0.840	0.820
2020/01/31 03:38:19.4	94.970	0.210	-0.850	0.850
2020/01/31 03:38:19.5	94.960	0.220	-0.850	0.880
2020/01/31 03:38:19.6	94.940	0.220	-0.840	0.910
2020/01/31 03:38:19.7	94.920	0.230	-0.830	0.930
2020/01/31 03:38:19.8	94.900	0.230	-0.810	0.960
2020/01/31 03:38:19.9	94.880	0.230	-0.790	0.990
2020/01/31 03:38:20.0	94.860	0.220	-0.760	1.020
2020/01/31 03:38:20.1	94.840	0.210	-0.720	1.050
2020/01/31 03:38:20.2	94.820	0.200	-0.680	1.070
2020/01/31 03:38:20.3	94.800	0.180	-0.630	1.100
2020/01/31 03:38:20.4	94.790	0.170	-0.580	1.120
2020/01/31 03:38:20.5	94.770	0.150	-0.530	1.140
2020/01/31 03:38:20.6	94.760	0.120	-0.470	1.160
2020/01/31 03:38:20.7	94.740	0.100	-0.410	1.180
2020/01/31 03:38:20.8	94.730	0.070	-0.340	1.190
2020/01/31 03:38:20.9	94.720	0.040	-0.280	1.200
2020/01/31 03:38:21.0	94.710	0.010	-0.210	1.210
2020/01/31 03:38:21.1	94.700	-0.020	-0.140	1.220
2020/01/31 03:38:21.2	94.690	-0.060	-0.070	1.220
2020/01/31 03:38:21.3	94.680	-0.090	-0.000	1.220
2020/01/31 03:38:21.4	94.680	-0.120	0.060	1.220
2020/01/31 03:38:21.5	94.670	-0.160	0.130	1.220
2020/01/31 03:38:21.6	94.670	-0.190	0.190	1.210
2020/01/31 03:38:21.7	94.670	-0.230	0.250	1.200
2020/01/31 03:38:21.8	94.660	-0.260	0.300	1.180
2020/01/31 03:38:21.9	94.660	-0.290	0.360	1.160
2020/01/31 03:38:22.0	94.660	-0.320	0.400	1.140
2020/01/31 03:38:22.1	94.670	-0.340	0.440	1.110
2020/01/31 03:38:22.2	94.670	-0.370	0.470	1.080
2020/01/31 03:38:22.3	94.680	-0.390	0.500	1.040
2020/01/31 03:38:22.4	94.680	-0.410	0.520	0.990
2020/01/31 03:38:22.5	94.690	-0.430	0.540	0.950
2020/01/31 03:38:22.6	94.700	-0.440	0.540	0.900
2020/01/31 03:38:22.7	94.710	-0.450	0.540	0.840
2020/01/31 03:38:22.8	94.720	-0.450	0.530	0.790
2020/01/31 03:38:22.9	94.740	-0.450	0.520	0.730
2020/01/31 03:38:23.0	94.760	-0.450	0.490	0.660
2020/01/31 03:38:23.1	94.760	-0.440	0.460	0.600
2020/01/31 03:38:23.2	94.780	-0.420	0.420	0.530
2020/01/31 03:38:23.3	94.800	-0.400	0.380	0.470
2020/01/31 03:38:23.4	94.820	-0.380	0.320	0.400
2020/01/31 03:38:23.5	94.850	-0.350	0.260	0.340
2020/01/31 03:38:23.6	94.870	-0.320	0.200	0.270
2020/01/31 03:38:23.7	94.890	-0.290	0.130	0.220
2020/01/31 03:38:23.8	94.910	-0.250	0.050	0.160
2020/01/31 03:38:23.9	94.940	-0.210	-0.030	0.110
2020/01/31 03:38:24.0	94.960	-0.160	-0.110	0.060
2020/01/31 03:38:24.1	94.980	-0.110	-0.190	0.010
2020/01/31 03:38:24.2	95.000	-0.060	-0.280	-0.030
2020/01/31 03:38:24.3	95.020	-0.010	-0.360	-0.070
2020/01/31 03:38:24.4	95.040	0.040	-0.440	-0.100
2020/01/31 03:38:24.5	95.060	0.090	-0.520	-0.120
2020/01/31 03:38:24.6	95.080	0.150	-0.600	-0.140
2020/01/31 03:38:24.7	95.100	0.200	-0.670	-0.160
2020/01/31 03:38:24.8	95.120	0.250	-0.740	-0.170
2020/01/31 03:38:24.9	95.130	0.300	-0.800	-0.170
2020/01/31 03:38:25.0	95.150	0.350	-0.860	-0.170
2020/01/31 03:38:25.1	95.140	0.390	-0.920	-0.160
2020/01/31 03:38:25.2	95.160	0.440	-0.970	-0.150
2020/01/31 03:38:25.3	95.170	0.480	-1.010	-0.140
2020/01/31 03:38:25.4	95.190	0.510	-1.040	-0.120
2020/01/31 03:38:25.5	95.200	0.550	-1.060	-0.100
2020/01/31 03:38:25.6	95.210	0.580	-1.080	-0.080
2020/01/31 03:38:25.7	95.220	0.600	-1.090	-0.050
2020/01/31 03:38:25.8	95.230	0.620	-1.100	-0.030
2020/01/31 03:38:25.9	95.240	0.640	-1.090	0.000
2020/01/31 03:38:26.0	95.250	0.650	-1.080	0.040
2020/01/31 03:38:26.1	95.250	0.660	-1.060	0.070
2020/01/31 03:38:26.2	95.260	0.660	-1.040	0.100
2020/01/31 03:38:26.3	95.250	0.660	-1.000	0.140
2020/01/31 03:38:26.4	95.250	0.650	-0.960	0.180
2020/01/31 03:38:26.5	95.250	0.640	-0.920	0.220
2020/01/31 03:38:26.6	95.240	0.620	-0.860	0.260
2020/01/31 03:38:26.7	95.230	0.600	-0.800	0.310
2020/01/31 03:38:26.8	95.210	0.570	-0.740	0.350
2020/01/31 03:38:26.9	95.190	0.540	-0.670	0.400
2020/01/31 03:38:27.0	95.170	0.510	-0.600	0.440
2020/01/31 03:38:27.1	95.130	0.470	-0.520	0.490
2020/01/31 03:38:27.2	95.110	0.430	-0.440	0.540
2020/01/31 03:38:27.3	95.080	0.380	-0.360	0.580
2020/01/31 03:38:27.4	95.060	0.330	-0.280	0.620
2020/01/31 03:38:27.5	95.030	0.280	-0.200	0.660
2020/01/31 03:38:27.6	95.000	0.230	-0.110	0.700
2020/01/31 03:38:27.7	94.980	0.170	-0.030	0.740
2020/01/31 03:38:27.8	94.950	0.120	0.050	0.780
2020/01/31 03:38:27.9	94.930	0.060	0.130	0.810
2020/01/31 03:38:28.0	94.910	0.000	0.210	0.840
2020/01/31 03:38:28.1	94.920	-0.060	0.290	0.860
2020/01/31 03:38:28.2	94.900	-0.110	0.370	0.890
2020/01/31 03:38:28.3	94.890	-0.170	0.430	0.910
2020/01/31 03:38:28.4	94.890	-0.230	0.500	0.920
2020/01/31 03:38:28.5	94.880	-0.280	0.560	0.930
2020/01/31 03:38:28.6	94.880	-0.340	0.610	0.940
2020/01/31 03:38:28.7	94.890	-0.390	0.660	0.950
2020/01/31 03:38:28.8	94.900	-0.430	0.700	0.950
2020/01/31 03:38:28.9	94.910	-0.480	0.740	0.940
2020/01/31 03:38:29.0	94.930	-0.520	0.760	0.940
2020/01/31 03:38:29.1	94.950	-0.550	0.790	0.930
2020/01/31 03:38:29.2	94.980	-0.580	0.800	0.910
2020/01/31 03:38:29.3	95.010	-0.610	0.800	0.900
2020/01/31 03:38:29.4	95.040	-0.630	0.790	0.880
2020/01/31 03:38:29.5	95.080	-0.650	0.780	0.860
2020/01/31 03:38:29.6	95.110	-0.660	0.760	0.840
2020/01/31 03:38:29.7	95.150	-0.670	0.730	0.820
2020/01/31 03:38:29.8	95.190	-0.670	0.690	0.790
2020/01/31 03:38:29.9	95.230	-0.660	0.650	0.770
2020/01/31 03:38:30.0	95.270	-0.650	0.590	0.750
2020/01/31 03:38:30.1	95.300	-0.630	0.530	0.730
2020/01/31 03:38:30.2	95.340	-0.610	0.460	0.710
2020/01/31 03:38:30.3	95.380	-0.580	0.390	0.690
2020/01/31 03:38:30.4	95.410	-0.540	0.310	0.680
2020/01/31 03:38:30.5	95.440	-0.500	0.220	0.660
2020/01/31 03:38:30.6	95.470	-0.460	0.130	0.650
2020/01/31 03:38:30.7	95.500	-0.410	0.040	0.640
2020/01/31 03:38:30.8	95.520	-0.360	-0.050	0.620
2020/01/31 03:38:30.9	95.540	-0.300	-0.150	0.610
2020/01/31 03:38:31.0	95.560	-0.240	-0.250	0.600
2020/01/31 03:38:31.1	95.590	-0.180	-0.350	0.590
2020/01/31 03:38:31.2	95.600	-0.110	-0.450	0.580
2020/01/31 03:38:31.3	95.610	-0.050	-0.540	0.580
2020/01/31 03:38:31.4	95.630	0.020	-0.630	0.570
2020/01/31 03:38:31.5	95.640	0.080	-0.720	0.560
2020/01/31 03:38:31.6	95.650	0.150	-0.800	0.550
2020/01/31 03:38:31.7	95.660	0.210	-0.880	0.540
2020/01/31 03:38:31.8	95.670	0.270	-0.940	0.530
2020/01/31 03:38:31.9	95.670	0.330	-1.000	0.530
2020/01/31 03:38:32.0	95.680	0.390	-1.060	0.530
2020/01/31 03:38:32.1	95.690	0.440	-1.100	0.530
2020/01/31 03:38:32.2	95.690	0.480	-1.130	0.540
2020/01/31 03:38:32.3	95.690	0.530	-1.160	0.560
2020/01/31 03:38:32.4	95.680	0.560	-1.170	0.570
2020/01/31 03:38:32.5	95.670	0.590	-1.170	0.600
2020/01/31 03:38:32.6	95.660	0.620	-1.160	0.620
2020/01/31 03:38:32.7	95.650	0.640	-1.140	0.650
2020/01/31 03:38:32.8	95.640	0.650	-1.110	0.680
2020/01/31 03:38:32.9	95.620	0.650	-1.070	0.720
2020/01/31 03:38:33.0	95.600	0.650	-1.020	0.750
2020/01/31 03:38:33.1	95.590	0.650	-0.960	0.790
2020/01/31 03:38:33.2	95.570	0.630	-0.900	0.830
2020/01/31 03:38:33.3	95.550	0.620	-0.820	0.860
2020/01/31 03:38:33.4	95.530	0.590	-0.740	0.900
2020/01/31 03:38:33.5	95.510	0.560	-0.660	0.930
2020/01/31 03:38:33.6	95.480	0.530	-0.570	0.960
2020/01/31 03:38:33.7	95.460	0.490	-0.480	0.990
2020/01/31 03:38:33.8	95.430	0.450	-0.390	1.010
2020/01/31 03:38:33.9	95.410	0.410	-0.300	1.020
2020/01/31 03:38:34.0	95.380	0.360	-0.210	1.040
2020/01/31 03:38:34.1	95.370	0.310	-0.110	1.040
2020/01/31 03:38:34.2	95.340	0.260	-0.030	1.040
2020/01/31 03:38:34.3	95.320	0.210	0.050	1.030
2020/01/31 03:38:34.4	95.310	0.160	0.120	1.020
2020/01/31 03:38:34.5	95.290	0.120	0.190	1.010
2020/01/31 03:38:34.6	95.270	0.070	0.250	0.980
2020/01/31 03:38:34.7	95.260	0.030	0.300	0.960
2020/01/31 03:38:34.8	95.250	-0.010	0.340	0.930
2020/01/31 03:38:34.9	95.240	-0.050	0.370	0.900
2020/01/31 03:38:35.0	95.230	-0.080	0.390	0.860
2020/01/31 03:38:35.1	95.200	-0.110	0.400	0.830
2020/01/31 03:38:35.2	95.200	-0.140	0.400	0.790
2020/01/31 03:38:35.3	95.190	-0.160	0.380	0.760
2020/01/31 03:38:35.4	95.180	-0.170	0.360	0.730
2020/01/31 03:38:35.5	95.170	-0.180	0.340	0.700
2020/01/31 03:38:35.6	95.170	-0.190	0.300	0.680
2020/01/31 03:38:35.7	95.160	-0.190	0.260	0.650
2020/01/31 03:38:35.8	95.160	-0.190	0.210	0.630
2020/01/31 03:38:35.9	95.150	-0.180	0.150	0.620
2020/01/31 03:38:36.0	95.150	-0.170	0.090	0.600
2020/01/31 03:38:36.1	95.140	-0.150	0.030	0.590
2020/01/31 03:38:36.2	95.140	-0.140	-0.030	0.580
2020/01/31 03:38:36.3	95.130	-0.120	-0.100	0.570
2020/01/31 03:38:36.4	95.130	-0.100	-0.170	0.570
2020/01/31 03:38:36.5	95.130	-0.080	-0.230	0.560
2020/01/31 03:38:36.6	95.130	-0.050	-0.290	0.560
2020/01/31 03:38:36.7	95.140	-0.030	-0.360	0.560
2020/01/31 03:38:36.8	95.140	-0.010	-0.410	0.550
2020/01/31 03:38:36.9	95.150	0.020	-0.470	0.550
2020/01/31 03:38:37.0	95.160	0.040	-0.520	0.550
2020/01/31 03:38:37.1	95.180	0.060	-0.570	0.540
2020/01/31 03:38:37.2	95.190	0.080	-0.610	0.540
2020/01/31 03:38:37.3	95.210	0.090	-0.650	0.530
2020/01/31 03:38:37.4	95.220	0.110	-0.680	0.530
2020/01/31 03:38:37.5	95.240	0.120	-0.700	0.520
2020/01/31 03:38:37.6	95.260	0.130	-0.720	0.520
2020/01/31 03:38:37.7	95.280	0.140	-0.730	0.510
2020/01/31 03:38:37.8	95.300	0.140	-0.730	0.510
2020/01/31 03:38:37.9	95.320	0.140	-0.730	0.510
2020/01/31 03:38:38.0	95.340	0.140	-0.720	0.520
2020/01/31 03:38:38.1	95.370	0.130	-0.710	0.520
2020/01/31 03:38:38.2	95.390	0.120	-0.680	0.530
2020/01/31 03:38:38.3	95.410	0.110	-0.650	0.540
2020/01/31 03:38:38.4	95.430	0.100	-0.620	0.560
2020/01/31 03:38:38.5	95.440	0.080	-0.580	0.580
2020/01/31 03:38:38.6	95.460	0.060	-0.530	0.610
2020/01/31 03:38:38.7	95.470	0.040	-0.480	0.640
2020/01/31 03:38:38.8	95.490	0.020	-0.430	0.680
2020/01/31 03:38:38.9	95.500	-0.010	-0.370	0.720
2020/01/31 03:38:39.0	95.510	-0.030	-0.310	0.760
2020/01/31 03:38:39.1	95.520	-0.060	-0.240	0.800
2020/01/31 03:38:39.2	95.520	-0.090	-0.180	0.850
2020/01/31 03:38:39.3	95.520	-0.120	-0.110	0.900
2020/01/31 03:38:39.4	95.520	-0.150	-0.040	0.950
2020/01/31 03:38:39.5	95.520	-0.180	0.020	1.000
2020/01/31 03:38:39.6	95.520	-0.210	0.090	1.050
2020/01/31 03:38:39.7	95.520	-0.240	0.150	1.090
2020/01/31 03:38:39.8	95.510	-0.270	0.210	1.130
2020/01/31 03:38:39.9	95.500	-0.300	0.260	1.170
2020/01/31 03:38:40.0	95.490	-0.330	0.310	1.210
2020/01/31 03:38:40.1	95.470	-0.360	0.360	1.240
2020/01/31 03:38:40.2	95.460	-0.380	0.400	1.270
2020/01/31 03:38:40.3	95.450	-0.410	0.430	1.290
2020/01/31 03:38:40.4	95.430	-0.430	0.460	1.300
2020/01/31 03:38:40.5	95.420	-0.450	0.480	1.310
2020/01/31 03:38:40.6	95.410	-0.460	0.490	1.320
2020/01/31 03:38:40.7	95.400	-0.480	0.490	1.320
2020/01/31 03:38:40.8	95.390	-0.490	0.490	1.320
2020/01/31 03:38:40.9	95.380	-0.500	0.480	1.310
2020/01/31 03:38:41.0	95.370	-0.500	0.460	1.290
2020/01/31 03:38:41.1	95.370	-0.500	0.430	1.270
2020/01/31 03:38:41.2	95.360	-0.500	0.400	1.250
2020/01/31 03:38:41.3	95.350	-0.490	0.370	1.220
2020/01/31 03:38:41.4	95.340	-0.490	0.330	1.200
2020/01/31 03:38:41.5	95.340	-0.470	0.280	1.160
2020/01/31 03:38:41.6	95.340	-0.460	0.240	1.130
2020/01/31 03:38:41.7	95.330	-0.440	0.180	1.090
2020/01/31 03:38:41.8	95.330	-0.420	0.130	1.060
2020/01/31 03:38:41.9	95.340	-0.400	0.070	1.020
2020/01/31 03:38:42.0	95.340	-0.380	0.010	0.980
2020/01/31 03:38:42.1	95.340	-0.350	-0.050	0.930
2020/01/31 03:38:42.2	95.350	-0.320	-0.100	0.890
2020/01/31 03:38:42.3	95.360	-0.290	-0.160	0.840
2020/01/31 03:38:42.4	95.380	-0.260	-0.220	0.800
2020/01/31 03:38:42.5	95.390	-0.230	-0.280	0.750
2020/01/31 03:38:42.6	95.410	-0.200	-0.330	0.710
2020/01/31 03:38:42.7	95.430	-0.160	-0.390	0.670
2020/01/31 03:38:42.8	95.450	-0.130	-0.430	0.620
2020/01/31 03:38:42.9	95.470	-0.090	-0.480	0.580
2020/01/31 03:38:43.0	95.490	-0.060	-0.520	0.540
2020/01/31 03:38:43.1	95.500	-0.020	-0.560	0.500
2020/01/31 03:38:43.2	95.520	0.010	-0.600	0.470
2020/01/31 03:38:43.3	95.540	0.050	-0.630	0.430
2020/01/31 03:38:43.4	95.560	0.080	-0.650	0.400
2020/01/31 03:38:43.5	95.580	0.120	-0.670	0.380
2020/01/31 03:38:43.6	95.590	0.150	-0.690	0.350
2020/01/31 03:38:43.7	95.610	0.180	-0.700	0.330
2020/01/31 03:38:43.8	95.620	0.220	-0.700	0.320
2020/01/31 03:38:43.9	95.640	0.240	-0.700	0.300
2020/01/31 03:38:44.0	95.650	0.270	-0.690	0.300
2020/01/31 03:38:44.1	95.660	0.300	-0.680	0.290
2020/01/31 03:38:44.2	95.670	0.320	-0.670	0.290
2020/01/31 03:38:44.3	95.670	0.350	-0.650	0.290
2020/01/31 03:38:44.4	95.680	0.370	-0.620	0.300
2020/01/31 03:38:44.5	95.670	0.380	-0.600	0.310
2020/01/31 03:38:44.6	95.670	0.400	-0.560	0.320
2020/01/31 03:38:44.7	95.660	0.410	-0.530	0.340
2020/01/31 03:38:44.8	95.660	0.420	-0.490	0.360
2020/01/31 03:38:44.9	95.650	0.430	-0.460	0.380
2020/01/31 03:38:45.0	95.630	0.430	-0.420	0.410
2020/01/31 03:38:45.1	95.610	0.430	-0.380	0.440
2020/01/31 03:38:45.2	95.590	0.430	-0.340	0.470
2020/01/31 03:38:45.3	95.570	0.420	-0.300	0.500
2020/01/31 03:38:45.4	95.550	0.410	-0.260	0.530
2020/01/31 03:38:45.5	95.520	0.400	-0.220	0.570
2020/01/31 03:38:45.6	95.500	0.390	-0.190	0.600
2020/01/31 03:38:45.7	95.470	0.380	-0.150	0.640
2020/01/31 03:38:45.8	95.450	0.360	-0.120	0.670
2020/01/31 03:38:45.9	95.420	0.340	-0.100	0.700
2020/01/31 03:38:46.0	95.390	0.320	-0.080	0.730
2020/01/31 03:38:46.1	95.370	0.300	-0.050	0.760
2020/01/31 03:38:46.2	95.340	0.280	-0.040	0.780
2020/01/31 03:38:46.3	95.320	0.250	-0.030	0.810
2020/01/31 03:38:46.4	95.290	0.230	-0.020	0.820
2020/01/31 03:38:46.5	95.270	0.210	-0.020	0.840
2020/01/31 03:38:46.6	95.250	0.190	-0.030	0.860
2020/01/31 03:38:46.7	95.240	0.160	-0.040	0.870
2020/01/31 03:38:46.8	95.220	0.140	-0.050	0.870
2020/01/31 03:38:46.9	95.210	0.120	-0.060	0.880
2020/01/31 03:38:47.0	95.200	0.110	-0.080	0.880
2020/01/31 03:38:47.1	95.200	0.090	-0.110	0.880
2020/01/31 03:38:47.2	95.190	0.070	-0.140	0.880
2020/01/31 03:38:47.3	95.180	0.060	-0.160	0.880
2020/01/31 03:38:47.4	95.180	0.050	-0.200	0.880
2020/01/31 03:38:47.5	95.180	0.040	-0.230	0.870
2020/01/31 03:38:47.6	95.180	0.040	-0.260	0.870
2020/01/31 03:38:47.7	95.180	0.030	-0.300	0.860
2020/01/31 03:38:47.8	95.180	0.030	-0.330	0.860
2020/01/31 03:38:47.9	95.190	0.040	-0.370	0.850
2020/01/31 03:38:48.0	95.190	0.040	-0.400	0.850
2020/01/31 03:38:48.1	95.190	0.040	-0.430	0.850
2020/01/31 03:38:48.2	95.200	0.050	-0.470	0.850
2020/01/31 03:38:48.3	95.200	0.060	-0.500	0.850
2020/01/31 03:38:48.4	95.210	0.070	-0.530	0.860
2020/01/31 03:38:48.5	95.220	0.080	-0.560	0.860
2020/01/31 03:38:48.6	95.230	0.100	-0.590	0.870
2020/01/31 03:38:48.7	95.240	0.110	-0.610	0.880
2020/01/31 03:38:48.8	95.240	0.120	-0.630	0.890
2020/01/31 03:38:48.9	95.250	0.130	-0.650	0.900
2020/01/31 03:38:49.0	95.260	0.150	-0.660	0.910
2020/01/31 03:38:49.1	95.270	0.160	-0.670	0.910
2020/01/31 03:38:49.2	95.270	0.170	-0.680	0.920
2020/01/31 03:38:49.3	95.280	0.170	-0.680	0.930
2020/01/31 03:38:49.4	95.280	0.180	-0.680	0.940
2020/01/31 03:38:49.5	95.290	0.180	-0.670	0.940
2020/01/31 03:38:49.6	95.290	0.180	-0.650	0.950
2020/01/31 03:38:49.7	95.290	0.180	-0.630	0.950
2020/01/31 03:38:49.8	95.290	0.170	-0.600	0.950
2020/01/31 03:38:49.9	95.290	0.170	-0.570	0.950
2020/01/31 03:38:50.0	95.280	0.150	-0.540	0.960
2020/01/31 03:38:50.1	95.300	0.140	-0.490	0.960
2020/01/31 03:38:50.2	95.290	0.120	-0.450	0.960
2020/01/31 03:38:50.3	95.290	0.100	-0.400	0.960
2020/01/31 03:38:50.4	95.280	0.080	-0.350	0.960
2020/01/31 03:38:50.5	95.280	0.060	-0.290	0.960
2020/01/31 03:38:50.6	95.270	0.030	-0.230	0.970
2020/01/31 03:38:50.7	95.260	0.000	-0.170	0.970
2020/01/31 03:38:50.8	95.260	-0.030	-0.110	0.980
2020/01/31 03:38:50.9	95.250	-0.060	-0.050	0.990
2020/01/31 03:38:51.0	95.240	-0.090	0.010	0.990
2020/01/31 03:38:51.1	95.230	-0.120	0.070	1.000
2020/01/31 03:38:51.2	95.230	-0.160	0.130	1.010
2020/01/31 03:38:51.3	95.230	-0.190	0.190	1.020
2020/01/31 03:38:51.4	95.220	-0.220	0.240	1.030
2020/01/31 03:38:51.5	95.220	-0.240	0.290	1.040
2020/01/31 03:38:51.6	95.220	-0.270	0.330	1.050
2020/01/31 03:38:51.7	95.220	-0.290	0.370	1.060
2020/01/31 03:38:51.8	95.230	-0.320	0.400	1.070
2020/01/31 03:38:51.9	95.230	-0.330	0.420	1.080
2020/01/31 03:38:52.0	95.240	-0.350	0.440	1.080
2020/01/31 03:38:52.1	95.270	-0.360	0.460	1.080
2020/01/31 03:38:52.2	95.280	-0.370	0.460	1.070
2020/01/31 03:38:52.3	95.300	-0.370	0.460	1.060
2020/01/31 03:38:52.4	95.320	-0.380	0.460	1.050
2020/01/31 03:38:52.5	95.330	-0.380	0.440	1.040
2020/01/31 03:38:52.6	95.350	-0.370	0.430	1.020
2020/01/31 03:38:52.7	95.370	-0.370	0.410	1.000
2020/01/31 03:38:52.8	95.400	-0.360	0.380	0.980
2020/01/31 03:38:52.9	95.420	-0.350	0.350	0.950
2020/01/31 03:38:53.0	95.440	-0.340	0.320	0.930
2020/01/31 03:38:53.1	95.450	-0.330	0.290	0.900
2020/01/31 03:38:53.2	95.470	-0.310	0.250	0.870
2020/01/31 03:38:53.3	95.500	-0.300	0.220	0.850
2020/01/31 03:38:53.4	95.510	-0.290	0.180	0.820
2020/01/31 03:38:53.5	95.530	-0.270	0.140	0.800
2020/01/31 03:38:53.6	95.550	-0.260	0.110	0.770
2020/01/31 03:38:53.7	95.560	-0.240	0.070	0.750
2020/01/31 03:38:53.8	95.570	-0.230	0.040	0.730
2020/01/31 03:38:53.9	95.580	-0.220	0.010	0.720
2020/01/31 03:38:54.0	95.580	-0.210	-0.020	0.700
2020/01/31 03:38:54.1	95.590	-0.200	-0.040	0.690
2020/01/31 03:38:54.2	95.580	-0.190	-0.060	0.680
2020/01/31 03:38:54.3	95.580	-0.180	-0.090	0.670
2020/01/31 03:38:54.4	95.580	-0.180	-0.100	0.670
2020/01/31 03:38:54.5	95.570	-0.170	-0.120	0.660
2020/01/31 03:38:54.6	95.560	-0.170	-0.140	0.660
2020/01/31 03:38:54.7	95.540	-0.170	-0.150	0.670
2020/01/31 03:38:54.8	95.530	-0.170	-0.170	0.670
2020/01/31 03:38:54.9	95.510	-0.160	-0.180	0.680
2020/01/31 03:38:55.0	95.490	-0.160	-0.190	0.690
2020/01/31 03:38:55.1	95.470	-0.170	-0.210	0.700
2020/01/31 03:38:55.2	95.450	-0.170	-0.220	0.710
2020/01/31 03:38:55.3	95.430	-0.170	-0.240	0.720
2020/01/31 03:38:55.4	95.400	-0.170	-0.250	0.740
2020/01/31 03:38:55.5	95.380	-0.160	-0.270	0.750
2020/01/31 03:38:55.6	95.350	-0.160	-0.300	0.760
2020/01/31 03:38:55.7	95.330	-0.160	-0.320	0.770
2020/01/31 03:38:55.8	95.310	-0.150	-0.350	0.780
2020/01/31 03:38:55.9	95.290	-0.140	-0.390	0.790
2020/01/31 03:38:56.0	95.270	-0.140	-0.420	0.800
2020/01/31 03:38:56.1	95.250	-0.120	-0.460	0.800
2020/01/31 03:38:56.2	95.230	-0.110	-0.500	0.810
2020/01/31 03:38:56.3	95.210	-0.090	-0.540	0.810
2020/01/31 03:38:56.4	95.200	-0.070	-0.590	0.810
2020/01/31 03:38:56.5	95.180	-0.050	-0.630	0.810
2020/01/31 03:38:56.6	95.170	-0.030	-0.680	0.810
2020/01/31 03:38:56.7	95.160	-0.000	-0.720	0.810
2020/01/31 03:38:56.8	95.160	0.030	-0.760	0.810
2020/01/31 03:38:56.9	95.150	0.060	-0.810	0.820
2020/01/31 03:38:57.0	95.140	0.090	-0.840	0.820
2020/01/31 03:38:57.1	95.130	0.120	-0.880	0.820
2020/01/31 03:38:57.2	95.120	0.150	-0.910	0.820
2020/01/31 03:38:57.3	95.110	0.190	-0.930	0.830
2020/01/31 03:38:57.4	95.100	0.220	-0.950	0.840
2020/01/31 03:38:57.5	95.090	0.250	-0.960	0.850
2020/01/31 03:38:57.6	95.070	0.280	-0.960	0.860
2020/01/31 03:38:57.7	95.060	0.310	-0.950	0.870
2020/01/31 03:38:57.8	95.040	0.340	-0.940	0.890
2020/01/31 03:38:57.9	95.020	0.360	-0.910	0.900
2020/01/31 03:38:58.0	95.000	0.380	-0.880	0.920
2020/01/31 03:38:58.1	94.980	0.400	-0.840	0.940
2020/01/31 03:38:58.2	94.950	0.420	-0.790	0.960
2020/01/31 03:38:58.3	94.930	0.430	-0.740	0.970
2020/01/31 03:38:58.4	94.900	0.440	-0.670	0.990
2020/01/31 03:38:58.5	94.870	0.440	-0.610	1.010
2020/01/31 03:38:58.6	94.850	0.440	-0.540	1.030
2020/01/31 03:38:58.7	94.820	0.440	-0.460	1.050
2020/01/31 03:38:58.8	94.790	0.430	-0.390	1.060
2020/01/31 03:38:58.9	94.770	0.420	-0.310	1.070
2020/01/31 03:38:59.0	94.740	0.400	-0.230	1.090
2020/01/31 03:38:59.1	94.720	0.380	-0.150	1.090
2020/01/31 03:38:59.2	94.700	0.360	-0.080	1.100
2020/01/31 03:38:59.3	94.680	0.340	-0.010	1.100
2020/01/31 03:38:59.4	94.660	0.310	0.060	1.100
2020/01/31 03:38:59.5	94.650	0.280	0.120	1.100
2020/01/31 03:38:59.6	94.640	0.250	0.170	1.100
2020/01/31 03:38:59.7	94.630	0.220	0.220	1.090
2020/01/31 03:38:59.8	94.630	0.190	0.260	1.080
2020/01/31 03:38:59.9	94.630	0.160	0.290	1.070
2020/01/31 03:39:00.0	94.630	0.130	0.320	1.060
2020/01/31 03:39:00.1	94.640	0.100	0.330	1.040
2020/01/31 03:39:00.2	94.640	0.070	0.340	1.030
2020/01/31 03:39:00.3	94.650	0.050	0.340	1.010
2020/01/31 03:39:00.4	94.670	0.020	0.330	1.000
2020/01/31 03:39:00.5	94.680	0.000	0.310	0.990
2020/01/31 03:39:00.6	94.690	-0.020	0.280	0.980
2020/01/31 03:39:00.7	94.710	-0.030	0.240	0.970
2020/01/31 03:39:00.8	94.720	-0.040	0.200	0.960
2020/01/31 03:39:00.9	94.740	-0.050	0.160	0.960
2020/01/31 03:39:01.0	94.760	-0.060	0.100	0.950
2020/01/31 03:39:01.1	94.790	-0.070	0.050	0.940
2020/01/31 03:39:01.2	94.810	-0.070	-0.010	0.940
2020/01/31 03:39:01.3	94.820	-0.070	-0.070	0.940
2020/01/31 03:39:01.4	94.840	-0.070	-0.140	0.930
2020/01/31 03:39:01.5	94.860	-0.070	-0.200	0.930
2020/01/31 03:39:01.6	94.880	-0.060	-0.260	0.920
2020/01/31 03:39:01.7	94.900	-0.060	-0.310	0.910
2020/01/31 03:39:01.8	94.910	-0.050	-0.370	0.910
2020/01/31 03:39:01.9	94.930	-0.050	-0.420	0.900
2020/01/31 03:39:02.0	94.940	-0.040	-0.460	0.890
2020/01/31 03:39:02.1	94.960	-0.040	-0.500	0.890
2020/01/31 03:39:02.2	94.970	-0.040	-0.540	0.880
2020/01/31 03:39:02.3	94.980	-0.040	-0.570	0.870
2020/01/31 03:39:02.4	94.980	-0.040	-0.590	0.870
2020/01/31 03:39:02.5	94.990	-0.040	-0.600	0.860
2020/01/31 03:39:02.6	94.990	-0.050	-0.610	0.860
2020/01/31 03:39:02.7	94.990	-0.050	-0.610	0.850
2020/01/31 03:39:02.8	94.980	-0.060	-0.600	0.850
2020/01/31 03:39:02.9	94.970	-0.070	-0.590	0.850
2020/01/31 03:39:03.0	94.960	-0.080	-0.570	0.860
2020/01/31 03:39:03.1	94.930	-0.100	-0.540	0.860
2020/01/31 03:39:03.2	94.910	-0.120	-0.510	0.870
2020/01/31 03:39:03.3	94.890	-0.130	-0.470	0.880
2020/01/31 03:39:03.4	94.860	-0.150	-0.430	0.900
2020/01/31 03:39:03.5	94.830	-0.170	-0.380	0.920
2020/01/31 03:39:03.6	94.800	-0.190	-0.330	0.940
2020/01/31 03:39:03.7	94.770	-0.220	-0.280	0.960
2020/01/31 03:39:03.8	94.730	-0.240	-0.220	0.990
2020/01/31 03:39:03.9	94.690	-0.260	-0.160	1.010
2020/01/31 03:39:04.0	94.650	-0.280	-0.100	1.040
2020/01/31 03:39:04.1	94.600	-0.300	-0.040	1.070
2020/01/31 03:39:04.2	94.560	-0.320	0.020	1.100
2020/01/31 03:39:04.3	94.520	-0.340	0.080	1.130
2020/01/31 03:39:04.4	94.470	-0.360	0.140	1.150
2020/01/31 03:39:04.5	94.430	-0.380	0.190	1.170
2020/01/31 03:39:04.6	94.390	-0.390	0.240	1.190
2020/01/31 03:39:04.7	94.360	-0.400	0.280	1.210
2020/01/31 03:39:04.8	94.320	-0.410	0.320	1.220
2020/01/31 03:39:04.9	94.290	-0.410	0.350	1.230
2020/01/31 03:39:05.0	94.260	-0.410	0.370	1.230
2020/01/31 03:39:05.1	94.250	-0.410	0.390	1.220
2020/01/31 03:39:05.2	94.230	-0.410	0.400	1.210
2020/01/31 03:39:05.3	94.210	-0.400	0.400	1.200
2020/01/31 03:39:05.4	94.200	-0.390	0.390	1.180
2020/01/31 03:39:05.5	94.190	-0.370	0.380	1.160
2020/01/31 03:39:05.6	94.180	-0.350	0.350	1.140
2020/01/31 03:39:05.7	94.180	-0.330	0.320	1.110
2020/01/31 03:39:05.8	94.180	-0.300	0.280	1.080
2020/01/31 03:39:05.9	94.180	-0.270	0.240	1.040
2020/01/31 03:39:06.0	94.180	-0.230	0.190	1.010
2020/01/31 03:39:06.1	94.190	-0.200	0.120	0.970
2020/01/31 03:39:06.2	94.190	-0.160	0.060	0.930
2020/01/31 03:39:06.3	94.200	-0.120	-0.000	0.890
2020/01/31 03:39:06.4	94.210	-0.080	-0.070	0.850
2020/01/31 03:39:06.5	94.220	-0.030	-0.140	0.810
2020/01/31 03:39:06.6	94.230	0.010	-0.210	0.770
2020/01/31 03:39:06.7	94.240	0.050	-0.280	0.730
2020/01/31 03:39:06.8	94.250	0.100	-0.350	0.700
2020/01/31 03:39:06.9	94.250	0.140	-0.420	0.660
2020/01/31 03:39:07.0	94.260	0.180	-0.480	0.620
2020/01/31 03:39:07.1	94.280	0.220	-0.540	0.580
2020/01/31 03:39:07.2	94.290	0.260	-0.600	0.550
2020/01/31 03:39:07.3	94.300	0.300	-0.650	0.520
2020/01/31 03:39:07.4	94.310	0.330	-0.700	0.490
2020/01/31 03:39:07.5	94.310	0.360	-0.740	0.460
2020/01/31 03:39:07.6	94.320	0.390	-0.770	0.440
2020/01/31 03:39:07.7	94.320	0.420	-0.800	0.420
2020/01/31 03:39:07.8	94.330	0.440	-0.820	0.400
2020/01/31 03:39:07.9	94.330	0.460	-0.830	0.380
2020/01/31 03:39:08.0	94.330	0.470	-0.840	0.370
2020/01/31 03:39:08.1	94.320	0.480	-0.840	0.360
2020/01/31 03:39:08.2	94.320	0.490	-0.840	0.360
2020/01/31 03:39:08.3	94.320	0.490	-0.820	0.360
2020/01/31 03:39:08.4	94.320	0.490	-0.800	0.370
2020/01/31 03:39:08.5	94.320	0.480	-0.780	0.380
2020/01/31 03:39:08.6	94.320	0.480	-0.750	0.400
2020/01/31 03:39:08.7	94.310	0.460	-0.710	0.420
2020/01/31 03:39:08.8	94.310	0.450	-0.670	0.440
2020/01/31 03:39:08.9	94.310	0.430	-0.630	0.470
2020/01/31 03:39:09.0	94.300	0.410	-0.580	0.510
2020/01/31 03:39:09.1	94.310	0.390	-0.530	0.540
2020/01/31 03:39:09.2	94.300	0.360	-0.480	0.590
2020/01/31 03:39:09.3	94.300	0.330	-0.430	0.630
2020/01/31 03:39:09.4	94.290	0.300	-0.380	0.680
2020/01/31 03:39:09.5	94.290	0.270	-0.330	0.720
2020/01/31 03:39:09.6	94.280	0.240	-0.270	0.770
2020/01/31 03:39:09.7	94.270	0.200	-0.220	0.820
2020/01/31 03:39:09.8	94.260	0.170	-0.170	0.870
2020/01/31 03:39:09.9	94.250	0.130	-0.130	0.930
2020/01/31 03:39:10.0	94.240	0.100	-0.080	0.980
2020/01/31 03:39:10.1	94.230	0.060	-0.030	1.030
2020/01/31 03:39:10.2	94.210	0.030	0.010	1.080
2020/01/31 03:39:10.3	94.200	-0.010	0.050	1.130
2020/01/31 03:39:10.4	94.180	-0.040	0.080	1.170
2020/01/31 03:39:10.5	94.160	-0.080	0.110	1.220
2020/01/31 03:39:10.6	94.140	-0.110	0.150	1.260
2020/01/31 03:39:10.7	94.110	-0.140	0.170	1.300
2020/01/31 03:39:10.8	94.090	-0.170	0.200	1.340
2020/01/31 03:39:10.9	94.070	-0.200	0.220	1.370
2020/01/31 03:39:11.0	94.040	-0.230	0.240	1.400
2020/01/31 03:39:11.1	94.020	-0.250	0.250	1.420
2020/01/31 03:39:11.2	93.990	-0.280	0.260	1.450
2020/01/31 03:39:11.3	93.970	-0.300	0.270	1.470
2020/01/31 03:39:11.4	93.950	-0.320	0.280	1.480
2020/01/31 03:39:11.5	93.930	-0.340	0.290	1.490
2020/01/31 03:39:11.6	93.910	-0.360	0.290	1.500
2020/01/31 03:39:11.7	93.890	-0.370	0.290	1.510
2020/01/31 03:39:11.8	93.880	-0.390	0.280	1.510
2020/01/31 03:39:11.9	93.860	-0.400	0.280	1.510
2020/01/31 03:39:12.0	93.850	-0.410	0.270	1.500
2020/01/31 03:39:12.1	93.860	-0.410	0.260	1.500
2020/01/31 03:39:12.2	93.850	-0.420	0.250	1.490
2020/01/31 03:39:12.3	93.840	-0.420	0.230	1.490
2020/01/31 03:39:12.4	93.840	-0.420	0.210	1.480
2020/01/31 03:39:12.5	93.830	-0.410	0.180	1.480
2020/01/31 03:39:12.6	93.830	-0.410	0.150	1.470
2020/01/31 03:39:12.7	93.830	-0.400	0.120	1.470
2020/01/31 03:39:12.8	93.820	-0.390	0.080	1.460
2020/01/31 03:39:12.9	93.820	-0.370	0.040	1.460
2020/01/31 03:39:13.0	93.820	-0.360	-0.000	1.450
2020/01/31 03:39:13.1	93.810	-0.340	-0.050	1.450
2020/01/31 03:39:13.2	93.810	-0.310	-0.110	1.440
2020/01/31 03:39:13.3	93.800	-0.290	-0.160	1.440
2020/01/31 03:39:13.4	93.790	-0.260	-0.220	1.430
2020/01/31 03:39:13.5	93.790	-0.230	-0.280	1.430
2020/01/31 03:39:13.6	93.780	-0.190	-0.340	1.420
2020/01/31 03:39:13.7	93.770	-0.160	-0.400	1.410
2020/01/31 03:39:13.8	93.760	-0.120	-0.470	1.390
2020/01/31 03:39:13.9	93.760	-0.080	-0.530	1.370
2020/01/31 03:39:14.0	93.750	-0.040	-0.590	1.350
2020/01/31 03:39:14.1	93.730	-0.000	-0.660	1.330
2020/01/31 03:39:14.2	93.720	0.040	-0.720	1.300
2020/01/31 03:39:14.3	93.720	0.080	-0.770	1.280
2020/01/31 03:39:14.4	93.710	0.110	-0.820	1.250
2020/01/31 03:39:14.5	93.700	0.150	-0.860	1.220
2020/01/31 03:39:14.6	93.700	0.190	-0.900	1.200
2020/01/31 03:39:14.7	93.690	0.220	-0.930	1.170
2020/01/31 03:39:14.8	93.690	0.250	-0.950	1.140
2020/01/31 03:39:14.9	93.680	0.280	-0.970	1.110
2020/01/31 03:39:15.0	93.680	0.300	-0.980	1.090
2020/01/31 03:39:15.1	93.670	0.320	-0.980	1.060
2020/01/31 03:39:15.2	93.670	0.340	-0.980	1.040
2020/01/31 03:39:15.3	93.680	0.360	-0.970	1.020
2020/01/31 03:39:15.4	93.680	0.370	-0.950	1.000
2020/01/31 03:39:15.5	93.680	0.380	-0.930	0.990
2020/01/31 03:39:15.6	93.680	0.380	-0.900	0.980
2020/01/31 03:39:15.7	93.690	0.380	-0.860	0.970
2020/01/31 03:39:15.8	93.690	0.380	-0.820	0.960
2020/01/31 03:39:15.9	93.700	0.370	-0.780	0.960
2020/01/31 03:39:16.0	93.700	0.360	-0.720	0.960
2020/01/31 03:39:16.1	93.720	0.350	-0.670	0.970
2020/01/31 03:39:16.2	93.720	0.330	-0.610	0.970
2020/01/31 03:39:16.3	93.720	0.320	-0.550	0.980
2020/01/31 03:39:16.4	93.730	0.300	-0.490	0.990
2020/01/31 03:39:16.5	93.730	0.270	-0.420	1.000
2020/01/31 03:39:16.6	93.730	0.250	-0.350	1.010
2020/01/31 03:39:16.7	93.740	0.230	-0.290	1.020
2020/01/31 03:39:16.8	93.740	0.200	-0.220	1.030
2020/01/31 03:39:16.9	93.740	0.170	-0.150	1.030
2020/01/31 03:39:17.0	93.740	0.150	-0.080	1.030
2020/01/31 03:39:17.1	93.750	0.120	-0.010	1.040
2020/01/31 03:39:17.2	93.760	0.090	0.060	1.040
2020/01/31 03:39:17.3	93.760	0.060	0.120	1.030
2020/01/31 03:39:17.4	93.760	0.040	0.180	1.030
2020/01/31 03:39:17.5	93.760	0.010	0.230	1.020
2020/01/31 03:39:17.6	93.760	-0.010	0.280	1.010
2020/01/31 03:39:17.7	93.760	-0.040	0.330	1.000
2020/01/31 03:39:17.8	93.750	-0.060	0.370	0.990
2020/01/31 03:39:17.9	93.750	-0.080	0.410	0.990
2020/01/31 03:39:18.0	93.750	-0.100	0.440	0.980
2020/01/31 03:39:18.1	93.720	-0.110	0.470	0.960
2020/01/31 03:39:18.2	93.720	-0.130	0.490	0.960
2020/01/31 03:39:18.3	93.710	-0.140	0.500	0.950
2020/01/31 03:39:18.4	93.700	-0.150	0.510	0.950
2020/01/31 03:39:18.5	93.690	-0.160	0.510	0.950
2020/01/31 03:39:18.6	93.680	-0.160	0.510	0.950
2020/01/31 03:39:18.7	93.670	-0.170	0.500	0.960
2020/01/31 03:39:18.8	93.660	-0.170	0.480	0.970
2020/01/31 03:39:18.9	93.640	-0.170	0.460	0.980
2020/01/31 03:39:19.0	93.630	-0.170	0.430	0.990
2020/01/31 03:39:19.1	93.620	-0.170	0.400	1.010
2020/01/31 03:39:19.2	93.610	-0.160	0.370	1.030
2020/01/31 03:39:19.3	93.590	-0.160	0.320	1.050
2020/01/31 03:39:19.4	93.570	-0.150	0.280	1.070
2020/01/31 03:39:19.5	93.560	-0.140	0.230	1.090
2020/01/31 03:39:19.6	93.540	-0.130	0.180	1.120
2020/01/31 03:39:19.7	93.530	-0.130	0.120	1.140
2020/01/31 03:39:19.8	93.520	-0.120	0.070	1.160
2020/01/31 03:39:19.9	93.510	-0.110	0.010	1.170
2020/01/31 03:39:20.0	93.510	-0.100	-0.040	1.190
2020/01/31 03:39:20.1	93.490	-0.090	-0.110	1.200
2020/01/31 03:39:20.2	93.490	-0.090	-0.160	1.200
2020/01/31 03:39:20.3	93.500	-0.080	-0.220	1.210
2020/01/31 03:39:20.4	93.500	-0.070	-0.270	1.210
2020/01/31 03:39:20.5	93.510	-0.070	-0.320	1.210
2020/01/31 03:39:20.6	93.520	-0.060	-0.370	1.210
2020/01/31 03:39:20.7	93.540	-0.060	-0.420	1.200
2020/01/31 03:39:20.8	93.550	-0.060	-0.470	1.200
2020/01/31 03:39:20.9	93.570	-0.050	-0.510	1.190
2020/01/31 03:39:21.0	93.590	-0.050	-0.550	1.180
2020/01/31 03:39:21.1	93.610	-0.050	-0.580	1.160
2020/01/31 03:39:21.2	93.630	-0.050	-0.610	1.150
2020/01/31 03:39:21.3	93.650	-0.040	-0.640	1.140
2020/01/31 03:39:21.4	93.670	-0.040	-0.670	1.130
2020/01/31 03:39:21.5	93.690	-0.040	-0.680	1.120
2020/01/31 03:39:21.6	93.700	-0.040	-0.700	1.110
2020/01/31 03:39:21.7	93.720	-0.040	-0.710	1.100
2020/01/31 03:39:21.8	93.730	-0.030	-0.720	1.100
2020/01/31 03:39:21.9	93.750	-0.030	-0.720	1.090
2020/01/31 03:39:22.0	93.750	-0.030	-0.720	1.090
2020/01/31 03:39:22.1	93.750	-0.030	-0.720	1.080
2020/01/31 03:39:22.2	93.760	-0.020	-0.710	1.080
2020/01/31 03:39:22.3	93.760	-0.020	-0.700	1.090
2020/01/31 03:39:22.4	93.750	-0.010	-0.680	1.090
2020/01/31 03:39:22.5	93.750	-0.010	-0.670	1.100
2020/01/31 03:39:22.6	93.740	-0.010	-0.640	1.110
2020/01/31 03:39:22.7	93.730	-0.000	-0.620	1.120
2020/01/31 03:39:22.8	93.720	0.000	-0.590	1.130
2020/01/31 03:39:22.9	93.700	0.010	-0.560	1.150
2020/01/31 03:39:23.0	93.680	0.010	-0.530	1.160
2020/01/31 03:39:23.1	93.640	0.010	-0.490	1.180
2020/01/31 03:39:23.2	93.610	0.020	-0.450	1.200
2020/01/31 03:39:23.3	93.590	0.020	-0.410	1.220
2020/01/31 03:39:23.4	93.560	0.020	-0.370	1.240
2020/01/31 03:39:23.5	93.530	0.020	-0.330	1.260
2020/01/31 03:39:23.6	93.490	0.020	-0.300	1.280
2020/01/31 03:39:23.7	93.460	0.030	-0.260	1.300
2020/01/31 03:39:23.8	93.430	0.030	-0.220	1.320
2020/01/31 03:39:23.9	93.390	0.030	-0.190	1.340
2020/01/31 03:39:24.0	93.360	0.030	-0.160	1.360
2020/01/31 03:39:24.1	93.340	0.030	-0.130	1.380
2020/01/31 03:39:24.2	93.310	0.030	-0.110	1.390
2020/01/31 03:39:24.3	93.280	0.030	-0.090	1.400
2020/01/31 03:39:24.4	93.250	0.030	-0.070	1.420
2020/01/31 03:39:24.5	93.220	0.040	-0.070	1.420
2020/01/31 03:39:24.6	93.190	0.040	-0.060	1.430
2020/01/31 03:39:24.7	93.170	0.050	-0.070	1.430
2020/01/31 03:39:24.8	93.150	0.060	-0.070	1.430
2020/01/31 03:39:24.9	93.130	0.070	-0.090	1.420
2020/01/31 03:39:25.0	93.120	0.080	-0.110	1.410
2020/01/31 03:39:25.1	93.090	0.090	-0.130	1.390
2020/01/31 03:39:25.2	93.080	0.110	-0.160	1.370
2020/01/31 03:39:25.3	93.080	0.120	-0.190	1.340
2020/01/31 03:39:25.4	93.080	0.140	-0.230	1.310
2020/01/31 03:39:25.5	93.080	0.160	-0.260	1.280
2020/01/31 03:39:25.6	93.090	0.180	-0.300	1.240
2020/01/31 03:39:25.7	93.100	0.200	-0.340	1.200
2020/01/31 03:39:25.8	93.110	0.210	-0.370	1.160
2020/01/31 03:39:25.9	93.120	0.230	-0.410	1.110
2020/01/31 03:39:26.0	93.140	0.250	-0.440	1.070
2020/01/31 03:39:26.1	93.150	0.270	-0.470	1.030
2020/01/31 03:39:26.2	93.160	0.280	-0.490	0.980
2020/01/31 03:39:26.3	93.180	0.290	-0.510	0.940
2020/01/31 03:39:26.4	93.190	0.300	-0.520	0.900
2020/01/31 03:39:26.5	93.200	0.310	-0.520	0.860
2020/01/31 03:39:26.6	93.200	0.310	-0.510	0.830
2020/01/31 03:39:26.7	93.210	0.310	-0.500	0.790
2020/01/31 03:39:26.8	93.220	0.310	-0.480	0.760
2020/01/31 03:39:26.9	93.220	0.300	-0.460	0.730
2020/01/31 03:39:27.0	93.220	0.290	-0.420	0.700
2020/01/31 03:39:27.1	93.230	0.270	-0.380	0.670
2020/01/31 03:39:27.2	93.230	0.250	-0.330	0.650
2020/01/31 03:39:27.3	93.220	0.220	-0.270	0.630
2020/01/31 03:39:27.4	93.220	0.190	-0.210	0.610
2020/01/31 03:39:27.5	93.210	0.150	-0.140	0.590
2020/01/31 03:39:27.6	93.200	0.120	-0.070	0.580
2020/01/31 03:39:27.7	93.180	0.070	0.010	0.580
2020/01/31 03:39:27.8	93.170	0.030	0.090	0.570
2020/01/31 03:39:27.9	93.150	-0.020	0.170	0.570
2020/01/31 03:39:28.0	93.140	-0.070	0.250	0.570
2020/01/31 03:39:28.1	93.100	-0.120	0.340	0.580
2020/01/31 03:39:28.2	93.080	-0.170	0.420	0.590
2020/01/31 03:39:28.3	93.060	-0.230	0.490	0.600
2020/01/31 03:39:28.4	93.040	-0.280	0.560	0.620
2020/01/31 03:39:28.5	93.020	-0.340	0.630	0.640
2020/01/31 03:39:28.6	93.000	-0.390	0.680	0.660
2020/01/31 03:39:28.7	92.970	-0.440	0.730	0.690
2020/01/31 03:39:28.8	92.950	-0.480	0.770	0.710
2020/01/31 03:39:28.9	92.930	-0.530	0.800	0.740
2020/01/31 03:39:29.0	92.910	-0.570	0.820	0.770
2020/01/31 03:39:29.1	92.900	-0.610	0.820	0.800
2020/01/31 03:39:29.2	92.880	-0.640	0.820	0.830
2020/01/31 03:39:29.3	92.860	-0.660	0.800	0.860
2020/01/31 03:39:29.4	92.840	-0.680	0.770	0.890
2020/01/31 03:39:29.5	92.820	-0.700	0.720	0.920
2020/01/31 03:39:29.6	92.810	-0.710	0.660	0.950
2020/01/31 03:39:29.7	92.790	-0.710	0.600	0.970
2020/01/31 03:39:29.8	92.780	-0.710	0.520	1.000
2020/01/31 03:39:29.9	92.760	-0.700	0.430	1.020
2020/01/31 03:39:30.0	92.750	-0.690	0.330	1.040
2020/01/31 03:39:30.1	92.750	-0.670	0.220	1.060
2020/01/31 03:39:30.2	92.740	-0.640	0.110	1.080
2020/01/31 03:39:30.3	92.730	-0.610	-0.000	1.100
2020/01/31 03:39:30.4	92.720	-0.580	-0.120	1.110
2020/01/31 03:39:30.5	92.710	-0.540	-0.240	1.120
2020/01/31 03:39:30.6	92.710	-0.500	-0.360	1.120
2020/01/31 03:39:30.7	92.700	-0.460	-0.490	1.130
2020/01/31 03:39:30.8	92.700	-0.410	-0.610	1.130
2020/01/31 03:39:30.9	92.700	-0.360	-0.730	1.130
2020/01/31 03:39:31.0	92.700	-0.310	-0.840	1.130
2020/01/31 03:39:31.1	92.690	-0.250	-0.950	1.120
2020/01/31 03:39:31.2	92.690	-0.200	-1.060	1.120
2020/01/31 03:39:31.3	92.690	-0.150	-1.150	1.110
2020/01/31 03:39:31.4	92.690	-0.090	-1.240	1.110
2020/01/31 03:39:31.5	92.700	-0.040	-1.320	1.100
2020/01/31 03:39:31.6	92.700	0.010	-1.390	1.100
2020/01/31 03:39:31.7	92.700	0.060	-1.450	1.090
2020/01/31 03:39:31.8	92.710	0.110	-1.490	1.090
2020/01/31 03:39:31.9	92.720	0.150	-1.530	1.080
2020/01/31 03:39:32.0	92.720	0.200	-1.560	1.070
2020/01/31 03:39:32.1	92.720	0.240	-1.580	1.070
2020/01/31 03:39:32.2	92.720	0.280	-1.580	1.060
2020/01/31 03:39:32.3	92.730	0.310	-1.570	1.060
2020/01/31 03:39:32.4	92.740	0.340	-1.560	1.060
2020/01/31 03:39:32.5	92.750	0.370	-1.530	1.060
2020/01/31 03:39:32.6	92.760	0.400	-1.480	1.070
2020/01/31 03:39:32.7	92.770	0.420	-1.430	1.080
2020/01/31 03:39:32.8	92.770	0.440	-1.370	1.080
2020/01/31 03:39:32.9	92.780	0.450	-1.300	1.100
2020/01/31 03:39:33.0	92.790	0.460	-1.220	1.110
2020/01/31 03:39:33.1	92.770	0.470	-1.130	1.130
2020/01/31 03:39:33.2	92.770	0.480	-1.030	1.140
2020/01/31 03:39:33.3	92.770	0.480	-0.930	1.170
2020/01/31 03:39:33.4	92.780	0.470	-0.820	1.190
2020/01/31 03:39:33.5	92.770	0.470	-0.710	1.210
2020/01/31 03:39:33.6	92.770	0.460	-0.590	1.240
2020/01/31 03:39:33.7	92.760	0.450	-0.470	1.270
2020/01/31 03:39:33.8	92.750	0.440	-0.350	1.290
2020/01/31 03:39:33.9	92.740	0.420	-0.230	1.320
2020/01/31 03:39:34.0	92.730	0.400	-0.110	1.350
2020/01/31 03:39:34.1	92.730	0.380	0.010	1.380
2020/01/31 03:39:34.2	92.710	0.360	0.120	1.400
2020/01/31 03:39:34.3	92.690	0.330	0.230	1.420
2020/01/31 03:39:34.4	92.670	0.310	0.340	1.440
2020/01/31 03:39:34.5	92.650	0.280	0.440	1.460
2020/01/31 03:39:34.6	92.620	0.250	0.530	1.480
2020/01/31 03:39:34.7	92.590	0.220	0.620	1.490
2020/01/31 03:39:34.8	92.570	0.190	0.700	1.500
2020/01/31 03:39:34.9	92.540	0.160	0.770	1.500
2020/01/31 03:39:35.0	92.510	0.130	0.830	1.510
2020/01/31 03:39:35.1	92.490	0.100	0.880	1.500
2020/01/31 03:39:35.2	92.460	0.070	0.930	1.500
2020/01/31 03:39:35.3	92.430	0.040	0.970	1.490
2020/01/31 03:39:35.4	92.400	0.000	0.990	1.480
2020/01/31 03:39:35.5	92.370	-0.030	1.020	1.470
2020/01/31 03:39:35.6	92.340	-0.060	1.030	1.450
2020/01/31 03:39:35.7	92.310	-0.090	1.030	1.430
2020/01/31 03:39:35.8	92.280	-0.130	1.030	1.410
2020/01/31 03:39:35.9	92.250	-0.160	1.010	1.380
2020/01/31 03:39:36.0	92.220	-0.190	0.990	1.350
2020/01/31 03:39:36.1	92.200	-0.220	0.960	1.320
2020/01/31 03:39:36.2	92.180	-0.240	0.930	1.290
2020/01/31 03:39:36.3	92.150	-0.270	0.890	1.250
2020/01/31 03:39:36.4	92.130	-0.300	0.840	1.210
2020/01/31 03:39:36.5	92.120	-0.320	0.780	1.180
2020/01/31 03:39:36.6	92.100	-0.340	0.720	1.130
2020/01/31 03:39:36.7	92.090	-0.360	0.660	1.090
2020/01/31 03:39:36.8	92.080	-0.380	0.590	1.050
2020/01/31 03:39:36.9	92.070	-0.390	0.510	1.000
2020/01/31 03:39:37.0	92.070	-0.400	0.430	0.950
2020/01/31 03:39:37.1	92.070	-0.410	0.340	0.910
2020/01/31 03:39:37.2	92.080	-0.410	0.250	0.860
2020/01/31 03:39:37.3	92.080	-0.410	0.160	0.810
2020/01/31 03:39:37.4	92.090	-0.410	0.060	0.770
2020/01/31 03:39:37.5	92.090	-0.400	-0.030	0.720
2020/01/31 03:39:37.6	92.100	-0.390	-0.130	0.680
2020/01/31 03:39:37.7	92.120	-0.370	-0.230	0.640
2020/01/31 03:39:37.8	92.130	-0.350	-0.340	0.610
2020/01/31 03:39:37.9	92.140	-0.330	-0.440	0.570
2020/01/31 03:39:38.0	92.160	-0.300	-0.540	0.540
2020/01/31 03:39:38.1	92.160	-0.270	-0.640	0.510
2020/01/31 03:39:38.2	92.180	-0.240	-0.740	0.490
2020/01/31 03:39:38.3	92.200	-0.200	-0.830	0.460
2020/01/31 03:39:38.4	92.220	-0.160	-0.920	0.450
2020/01/31 03:39:38.5	92.240	-0.120	-1.000	0.430
2020/01/31 03:39:38.6	92.260	-0.070	-1.080	0.420
2020/01/31 03:39:38.7	92.280	-0.030	-1.160	0.410
2020/01/31 03:39:38.8	92.300	0.020	-1.230	0.410
2020/01/31 03:39:38.9	92.320	0.070	-1.290	0.410
2020/01/31 03:39:39.0	92.340	0.120	-1.340	0.410
2020/01/31 03:39:39.1	92.350	0.170	-1.400	0.420
2020/01/31 03:39:39.2	92.370	0.220	-1.440	0.430
2020/01/31 03:39:39.3	92.390	0.260	-1.470	0.450
2020/01/31 03:39:39.4	92.410	0.310	-1.490	0.470
2020/01/31 03:39:39.5	92.430	0.350	-1.510	0.500
2020/01/31 03:39:39.6	92.440	0.390	-1.510	0.530
2020/01/31 03:39:39.7	92.450	0.430	-1.510	0.570
2020/01/31 03:39:39.8	92.460	0.470	-1.500	0.610
2020/01/31 03:39:39.9	92.460	0.500	-1.470	0.660
2020/01/31 03:39:40.0	92.460	0.520	-1.440	0.700
2020/01/31 03:39:40.1	92.460	0.540	-1.400	0.760
2020/01/31 03:39:40.2	92.450	0.560	-1.340	0.810
2020/01/31 03:39:40.3	92.440	0.570	-1.280	0.860
2020/01/31 03:39:40.4	92.430	0.570	-1.210	0.920
2020/01/31 03:39:40.5	92.420	0.570	-1.130	0.980
2020/01/31 03:39:40.6	92.410	0.560	-1.040	1.040
2020/01/31 03:39:40.7	92.390	0.540	-0.950	1.100
2020/01/31 03:39:40.8	92.370	0.520	-0.850	1.160
2020/01/31 03:39:40.9	92.350	0.490	-0.740	1.210
2020/01/31 03:39:41.0	92.330	0.460	-0.620	1.270
2020/01/31 03:39:41.1	92.310	0.420	-0.500	1.320
2020/01/31 03:39:41.2	92.290	0.380	-0.380	1.380
2020/01/31 03:39:41.3	92.260	0.330	-0.250	1.430
2020/01/31 03:39:41.4	92.240	0.280	-0.120	1.480
2020/01/31 03:39:41.5	92.210	0.220	0.010	1.520
2020/01/31 03:39:41.6	92.190	0.160	0.140	1.560
2020/01/31 03:39:41.7	92.170	0.100	0.270	1.600
2020/01/31 03:39:41.8	92.140	0.030	0.390	1.620
2020/01/31 03:39:41.9	92.120	-0.040	0.510	1.650
2020/01/31 03:39:42.0	92.100	-0.110	0.630	1.670
2020/01/31 03:39:42.1	92.070	-0.180	0.740	1.680
2020/01/31 03:39:42.2	92.050	-0.250	0.840	1.690
2020/01/31 03:39:42.3	92.040	-0.310	0.940	1.690
2020/01/31 03:39:42.4	92.020	-0.380	1.020	1.680
2020/01/31 03:39:42.5	92.010	-0.440	1.090	1.670
2020/01/31 03:39:42.6	92.000	-0.500	1.150	1.650
2020/01/31 03:39:42.7	91.990	-0.560	1.200	1.620
2020/01/31 03:39:42.8	91.980	-0.610	1.240	1.590
2020/01/31 03:39:42.9	91.980	-0.660	1.260	1.560
2020/01/31 03:39:43.0	91.980	-0.700	1.270	1.520
2020/01/31 03:39:43.1	91.990	-0.730	1.260	1.470
2020/01/31 03:39:43.2	91.990	-0.760	1.240	1.420
2020/01/31 03:39:43.3	91.990	-0.780	1.200	1.360
2020/01/31 03:39:43.4	92.000	-0.790	1.150	1.310
2020/01/31 03:39:43.5	92.010	-0.790	1.090	1.250
2020/01/31 03:39:43.6	92.030	-0.790	1.010	1.180
2020/01/31 03:39:43.7	92.040	-0.780	0.920	1.120
2020/01/31 03:39:43.8	92.060	-0.760	0.820	1.060
2020/01/31 03:39:43.9	92.080	-0.730	0.710	1.000
2020/01/31 03:39:44.0	92.100	-0.700	0.590	0.940
2020/01/31 03:39:44.1	92.110	-0.660	0.460	0.880
2020/01/31 03:39:44.2	92.140	-0.610	0.320	0.820
2020/01/31 03:39:44.3	92.160	-0.560	0.190	0.770
2020/01/31 03:39:44.4	92.180	-0.500	0.050	0.730
2020/01/31 03:39:44.5	92.200	-0.440	-0.100	0.680
2020/01/31 03:39:44.6	92.220	-0.370	-0.240	0.650
2020/01/31 03:39:44.7	92.250	-0.300	-0.380	0.610
2020/01/31 03:39:44.8	92.270	-0.230	-0.520	0.580
2020/01/31 03:39:44.9	92.280	-0.160	-0.650	0.560
2020/01/31 03:39:45.0	92.300	-0.090	-0.780	0.540
2020/01/31 03:39:45.1	92.320	-0.020	-0.910	0.530
2020/01/31 03:39:45.2	92.330	0.060	-1.020	0.520
2020/01/31 03:39:45.3	92.350	0.130	-1.130	0.510
2020/01/31 03:39:45.4	92.360	0.190	-1.230	0.510
2020/01/31 03:39:45.5	92.370	0.260	-1.310	0.510
2020/01/31 03:39:45.6	92.380	0.320	-1.390	0.510
2020/01/31 03:39:45.7	92.390	0.370	-1.450	0.520
2020/01/31 03:39:45.8	92.400	0.430	-1.500	0.530
2020/01/31 03:39:45.9	92.410	0.470	-1.540	0.540
2020/01/31 03:39:46.0	92.410	0.510	-1.570	0.560
2020/01/31 03:39:46.1	92.420	0.550	-1.580	0.570
2020/01/31 03:39:46.2	92.420	0.570	-1.580	0.590
2020/01/31 03:39:46.3	92.430	0.590	-1.570	0.620
2020/01/31 03:39:46.4	92.430	0.610	-1.540	0.640
2020/01/31 03:39:46.5	92.440	0.620	-1.510	0.670
2020/01/31 03:39:46.6	92.440	0.620	-1.460	0.700
2020/01/31 03:39:46.7	92.450	0.610	-1.400	0.730
2020/01/31 03:39:46.8	92.450	0.600	-1.330	0.760
2020/01/31 03:39:46.9	92.450	0.580	-1.250	0.800
2020/01/31 03:39:47.0	92.450	0.560	-1.170	0.830
2020/01/31 03:39:47.1	92.480	0.520	-1.070	0.870
2020/01/31 03:39:47.2	92.490	0.490	-0.970	0.900
2020/01/31 03:39:47.3	92.490	0.450	-0.860	0.940
2020/01/31 03:39:47.4	92.490	0.400	-0.750	0.970
2020/01/31 03:39:47.5	92.480	0.350	-0.630	1.000
2020/01/31 03:39:47.6	92.480	0.300	-0.510	1.030
2020/01/31 03:39:47.7	92.480	0.250	-0.390	1.060
2020/01/31 03:39:47.8	92.480	0.190	-0.270	1.090
2020/01/31 03:39:47.9	92.470	0.140	-0.160	1.120
2020/01/31 03:39:48.0	92.470	0.080	-0.040	1.140
2020/01/31 03:39:48.1	92.460	0.020	0.080	1.160
2020/01/31 03:39:48.2	92.450	-0.040	0.190	1.180
2020/01/31 03:39:48.3	92.440	-0.090	0.300	1.190
2020/01/31 03:39:48.4	92.430	-0.150	0.400	1.210
2020/01/31 03:39:48.5	92.420	-0.200	0.500	1.220
2020/01/31 03:39:48.6	92.410	-0.250	0.590	1.230
2020/01/31 03:39:48.7	92.390	-0.300	0.680	1.240
2020/01/31 03:39:48.8	92.380	-0.340	0.750	1.250
2020/01/31 03:39:48.9	92.360	-0.380	0.820	1.250
2020/01/31 03:39:49.0	92.340	-0.420	0.890	1.260
2020/01/31 03:39:49.1	92.300	-0.450	0.940	1.260
2020/01/31 03:39:49.2	92.280	-0.480	0.980	1.260
2020/01/31 03:39:49.3	92.250	-0.500	1.020	1.270
2020/01/31 03:39:49.4	92.220	-0.520	1.040	1.270
2020/01/31 03:39:49.5	92.200	-0.540	1.060	1.260
2020/01/31 03:39:49.6	92.170	-0.550	1.060	1.260
2020/01/31 03:39:49.7	92.140	-0.550	1.060	1.250
2020/01/31 03:39:49.8	92.110	-0.560	1.050	1.240
2020/01/31 03:39:49.9	92.080	-0.550	1.030	1.230
2020/01/31 03:39:50.0	92.050	-0.550	0.990	1.210
2020/01/31 03:39:50.1	92.020	-0.540	0.950	1.190
2020/01/31 03:39:50.2	92.000	-0.520	0.900	1.160
2020/01/31 03:39:50.3	91.980	-0.500	0.840	1.130
2020/01/31 03:39:50.4	91.960	-0.480	0.770	1.090
2020/01/31 03:39:50.5	91.950	-0.450	0.690	1.060
2020/01/31 03:39:50.6	91.940	-0.420	0.600	1.010
2020/01/31 03:39:50.7	91.930	-0.380	0.500	0.970
2020/01/31 03:39:50.8	91.920	-0.340	0.400	0.920
2020/01/31 03:39:50.9	91.920	-0.300	0.290	0.880
2020/01/31 03:39:51.0	91.920	-0.250	0.180	0.830
2020/01/31 03:39:51.1	91.930	-0.200	0.050	0.770
2020/01/31 03:39:51.2	91.940	-0.150	-0.070	0.720
2020/01/31 03:39:51.3	91.960	-0.100	-0.190	0.670
2020/01/31 03:39:51.4	91.970	-0.040	-0.320	0.610
2020/01/31 03:39:51.5	91.990	0.020	-0.440	0.560
2020/01/31 03:39:51.6	92.020	0.070	-0.570	0.510
2020/01/31 03:39:51.7	92.050	0.130	-0.690	0.460
2020/01/31 03:39:51.8	92.080	0.180	-0.800	0.410
2020/01/31 03:39:51.9	92.110	0.240	-0.910	0.360
2020/01/31 03:39:52.0	92.140	0.290	-1.010	0.310
2020/01/31 03:39:52.1	92.160	0.340	-1.110	0.270
2020/01/31 03:39:52.2	92.190	0.390	-1.200	0.230
2020/01/31 03:39:52.3	92.230	0.430	-1.270	0.190
2020/01/31 03:39:52.4	92.260	0.480	-1.340	0.160
2020/01/31 03:39:52.5	92.290	0.510	-1.390	0.130
2020/01/31 03:39:52.6	92.320	0.550	-1.430	0.100
2020/01/31 03:39:52.7	92.340	0.580	-1.460	0.080
2020/01/31 03:39:52.8	92.360	0.600	-1.470	0.070
2020/01/31 03:39:52.9	92.380	0.620	-1.480	0.060
2020/01/31 03:39:53.0	92.400	0.640	-1.470	0.060
2020/01/31 03:39:53.1	92.410	0.650	-1.440	0.060
2020/01/31 03:39:53.2	92.420	0.650	-1.410	0.070
2020/01/31 03:39:53.3	92.420	0.660	-1.360	0.090
2020/01/31 03:39:53.4	92.420	0.650	-1.310	0.110
2020/01/31 03:39:53.5	92.410	0.650	-1.240	0.130
2020/01/31 03:39:53.6	92.400	0.640	-1.170	0.160
2020/01/31 03:39:53.7	92.390	0.620	-1.090	0.200
2020/01/31 03:39:53.8	92.370	0.600	-1.000	0.240
2020/01/31 03:39:53.9	92.350	0.580	-0.910	0.280
2020/01/31 03:39:54.0	92.330	0.560	-0.810	0.330
2020/01/31 03:39:54.1	92.290	0.530	-0.710	0.370
2020/01/31 03:39:54.2	92.270	0.500	-0.610	0.420
2020/01/31 03:39:54.3	92.240	0.470	-0.500	0.470
2020/01/31 03:39:54.4	92.220	0.430	-0.400	0.520
2020/01/31 03:39:54.5	92.200	0.400	-0.300	0.580
2020/01/31 03:39:54.6	92.180	0.360	-0.200	0.630
2020/01/31 03:39:54.7	92.160	0.320	-0.100	0.680
2020/01/31 03:39:54.8	92.140	0.290	-0.010	0.730
2020/01/31 03:39:54.9	92.130	0.250	0.080	0.780
2020/01/31 03:39:55.0	92.120	0.210	0.160	0.820
2020/01/31 03:39:55.1	92.130	0.170	0.230	0.870
2020/01/31 03:39:55.2	92.120	0.140	0.300	0.910
2020/01/31 03:39:55.3	92.120	0.100	0.360	0.950
2020/01/31 03:39:55.4	92.120	0.070	0.410	0.990
2020/01/31 03:39:55.5	92.120	0.030	0.460	1.030
2020/01/31 03:39:55.6	92.130	0.000	0.490	1.070
2020/01/31 03:39:55.7	92.140	-0.030	0.520	1.100
2020/01/31 03:39:55.8	92.150	-0.060	0.540	1.130
2020/01/31 03:39:55.9	92.160	-0.080	0.550	1.150
2020/01/31 03:39:56.0	92.180	-0.110	0.550	1.180
2020/01/31 03:39:56.1	92.190	-0.130	0.550	1.200
2020/01/31 03:39:56.2	92.200	-0.150	0.530	1.210
2020/01/31 03:39:56.3	92.220	-0.170	0.520	1.230
2020/01/31 03:39:56.4	92.240	-0.190	0.490	1.240
2020/01/31 03:39:56.5	92.250	-0.200	0.460	1.240
2020/01/31 03:39:56.6	92.270	-0.220	0.420	1.250
2020/01/31 03:39:56.7	92.280	-0.230	0.380	1.250
2020/01/31 03:39:56.8	92.290	-0.240	0.330	1.250
2020/01/31 03:39:56.9	92.300	-0.250	0.270	1.240
2020/01/31 03:39:57.0	92.310	-0.250	0.220	1.230
2020/01/31 03:39:57.1	92.330	-0.260	0.150	1.220
2020/01/31 03:39:57.2	92.330	-0.260	0.090	1.210
2020/01/31 03:39:57.3	92.340	-0.260	0.030	1.200
2020/01/31 03:39:57.4	92.350	-0.260	-0.030	1.190
2020/01/31 03:39:57.5	92.350	-0.260	-0.100	1.170
2020/01/31 03:39:57.6	92.350	-0.250	-0.160	1.160
2020/01/31 03:39:57.7	92.350	-0.250	-0.220	1.150
2020/01/31 03:39:57.8	92.350	-0.250	-0.280	1.140
2020/01/31 03:39:57.9	92.350	-0.240	-0.330	1.140
2020/01/31 03:39:58.0	92.350	-0.240	-0.380	1.130
2020/01/31 03:39:58.1	92.360	-0.230	-0.430	1.120
2020/01/31 03:39:58.2	92.360	-0.220	-0.470	1.120
2020/01/31 03:39:58.3	92.360	-0.220	-0.500	1.120
2020/01/31 03:39:58.4	92.360	-0.220	-0.530	1.130
2020/01/31 03:39:58.5	92.360	-0.210	-0.550	1.130
2020/01/31 03:39:58.6	92.360	-0.210	-0.570	1.140
2020/01/31 03:39:58.7	92.360	-0.210	-0.580	1.150
2020/01/31 03:39:58.8	92.360	-0.210	-0.580	1.160
2020/01/31 03:39:58.9	92.360	-0.210	-0.580	1.170
2020/01/31 03:39:59.0	92.360	-0.210	-0.570	1.190
2020/01/31 03:39:59.1	92.370	-0.210	-0.550	1.200
2020/01/31 03:39:59.2	92.370	-0.210	-0.540	1.210
2020/01/31 03:39:59.3	92.380	-0.220	-0.520	1.220
2020/01/31 03:39:59.4	92.390	-0.220	-0.490	1.240
2020/01/31 03:39:59.5	92.390	-0.230	-0.460	1.250
2020/01/31 03:39:59.6	92.400	-0.240	-0.430	1.260
2020/01/31 03:39:59.7	92.410	-0.240	-0.400	1.260
2020/01/31 03:39:59.8	92.430	-0.250	-0.370	1.270
2020/01/31 03:39:59.9	92.440	-0.260	-0.340	1.270
2020/01/31 03:40:00.0	92.460	-0.260	-0.310	1.270
2020/01/31 03:40:00.1	92.480	-0.270	-0.290	1.270
2020/01/31 03:40:00.2	92.500	-0.270	-0.260	1.260
2020/01/31 03:40:00.3	92.520	-0.280	-0.240	1.260
2020/01/31 03:40:00.4	92.540	-0.280	-0.210	1.250
2020/01/31 03:40:00.5	92.560	-0.280	-0.190	1.240
2020/01/31 03:40:00.6	92.580	-0.280	-0.170	1.230
2020/01/31 03:40:00.7	92.590	-0.280	-0.150	1.220
2020/01/31 03:40:00.8	92.610	-0.280	-0.140	1.210
2020/01/31 03:40:00.9	92.620	-0.280	-0.120	1.190
2020/01/31 03:40:01.0	92.640	-0.280	-0.110	1.170
2020/01/31 03:40:01.1	92.650	-0.270	-0.090	1.150
2020/01/31 03:40:01.2	92.660	-0.270	-0.080	1.130
2020/01/31 03:40:01.3	92.660	-0.260	-0.070	1.110
2020/01/31 03:40:01.4	92.670	-0.260	-0.060	1.090
2020/01/31 03:40:01.5	92.670	-0.250	-0.050	1.070
2020/01/31 03:40:01.6	92.670	-0.240	-0.040	1.040
2020/01/31 03:40:01.7	92.660	-0.230	-0.030	1.020
2020/01/31 03:40:01.8	92.660	-0.220	-0.030	0.990
2020/01/31 03:40:01.9	92.650	-0.210	-0.020	0.970
2020/01/31 03:40:02.0	92.650	-0.200	-0.010	0.940
2020/01/31 03:40:02.1	92.630	-0.190	-0.010	0.920
2020/01/31 03:40:02.2	92.620	-0.180	-0.010	0.890
2020/01/31 03:40:02.3	92.610	-0.170	-0.010	0.870
2020/01/31 03:40:02.4	92.600	-0.150	-0.000	0.850
2020/01/31 03:40:02.5	92.590	-0.140	-0.000	0.820
2020/01/31 03:40:02.6	92.590	-0.130	-0.010	0.800
2020/01/31 03:40:02.7	92.580	-0.110	-0.010	0.780
2020/01/31 03:40:02.8	92.570	-0.100	-0.010	0.760
2020/01/31 03:40:02.9	92.570	-0.080	-0.020	0.750
2020/01/31 03:40:03.0	92.570	-0.070	-0.020	0.730
2020/01/31 03:40:03.1	92.560	-0.050	-0.030	0.710
2020/01/31 03:40:03.2	92.560	-0.030	-0.040	0.690
2020/01/31 03:40:03.3	92.570	-0.020	-0.050	0.670
2020/01/31 03:40:03.4	92.570	-0.000	-0.060	0.660
2020/01/31 03:40:03.5	92.580	0.020	-0.070	0.640
2020/01/31 03:40:03.6	92.580	0.030	-0.080	0.620
2020/01/31 03:40:03.7	92.590	0.050	-0.100	0.600
2020/01/31 03:40:03.8	92.600	0.070	-0.110	0.580
2020/01/31 03:40:03.9	92.610	0.080	-0.120	0.560
2020/01/31 03:40:04.0	92.620	0.100	-0.140	0.540
2020/01/31 03:40:04.1	92.640	0.110	-0.160	0.520
2020/01/31 03:40:04.2	92.650	0.130	-0.170	0.500
2020/01/31 03:40:04.3	92.670	0.150	-0.180	0.480
2020/01/31 03:40:04.4	92.680	0.160	-0.200	0.460
2020/01/31 03:40:04.5	92.690	0.180	-0.210	0.440
2020/01/31 03:40:04.6	92.700	0.200	-0.220	0.420
2020/01/31 03:40:04.7	92.710	0.210	-0.240	0.400
2020/01/31 03:40:04.8	92.720	0.230	-0.250	0.380
2020/01/31 03:40:04.9	92.720	0.240	-0.260	0.360
2020/01/31 03:40:05.0	92.730	0.260	-0.270	0.340
2020/01/31 03:40:05.1	92.740	0.280	-0.280	0.320
2020/01/31 03:40:05.2	92.740	0.290	-0.300	0.310
2020/01/31 03:40:05.3	92.740	0.310	-0.310	0.300
2020/01/31 03:40:05.4	92.730	0.330	-0.320	0.290
2020/01/31 03:40:05.5	92.730	0.350	-0.330	0.280
2020/01/31 03:40:05.6	92.720	0.370	-0.350	0.280
2020/01/31 03:40:05.7	92.710	0.390	-0.360	0.270
2020/01/31 03:40:05.8	92.700	0.410	-0.380	0.270
2020/01/31 03:40:05.9	92.700	0.430	-0.390	0.280
2020/01/31 03:40:06.0	92.690	0.450	-0.410	0.280
2020/01/31 03:40:06.1	92.670	0.470	-0.430	0.280
2020/01/31 03:40:06.2	92.670	0.500	-0.460	0.290
2020/01/31 03:40:06.3	92.660	0.520	-0.480	0.300
2020/01/31 03:40:06.4	92.660	0.540	-0.510	0.310
2020/01/31 03:40:06.5	92.660	0.570	-0.530	0.320
2020/01/31 03:40:06.6	92.660	0.590	-0.560	0.330
2020/01/31 03:40:06.7	92.660	0.620	-0.590	0.350
2020/01/31 03:40:06.8	92.670	0.640	-0.620	0.360
2020/01/31 03:40:06.9	92.680	0.660	-0.650	0.380
2020/01/31 03:40:07.0	92.690	0.680	-0.680	0.390
2020/01/31 03:40:07.1	92.700	0.700	-0.710	0.410
2020/01/31 03:40:07.2	92.720	0.710	-0.730	0.430
2020/01/31 03:40:07.3	92.740	0.720	-0.750	0.450
2020/01/31 03:40:07.4	92.760	0.730	-0.770	0.470
2020/01/31 03:40:07.5	92.790	0.740	-0.790	0.500
2020/01/31 03:40:07.6	92.820	0.740	-0.800	0.520
2020/01/31 03:40:07.7	92.850	0.740	-0.800	0.550
2020/01/31 03:40:07.8	92.880	0.730	-0.800	0.580
2020/01/31 03:40:07.9	92.910	0.710	-0.800	0.610
2020/01/31 03:40:08.0	92.940	0.700	-0.790	0.640
2020/01/31 03:40:08.1	92.950	0.680	-0.780	0.670
2020/01/31 03:40:08.2	92.980	0.650	-0.750	0.700
2020/01/31 03:40:08.3	93.000	0.620	-0.730	0.730
2020/01/31 03:40:08.4	93.030	0.580	-0.690	0.760
2020/01/31 03:40:08.5	93.050	0.540	-0.660	0.790
2020/01/31 03:40:08.6	93.070	0.490	-0.610	0.820
2020/01/31 03:40:08.7	93.080	0.440	-0.560	0.850
2020/01/31 03:40:08.8	93.090	0.390	-0.510	0.890
2020/01/31 03:40:08.9	93.100	0.340	-0.450	0.920
2020/01/31 03:40:09.0	93.110	0.280	-0.390	0.950
2020/01/31 03:40:09.1	93.120	0.220	-0.320	0.980
2020/01/31 03:40:09.2	93.120	0.150	-0.250	1.020
2020/01/31 03:40:09.3	93.120	0.090	-0.170	1.050
2020/01/31 03:40:09.4	93.110	0.030	-0.090	1.090
2020/01/31 03:40:09.5	93.100	-0.040	-0.020	1.120
2020/01/31 03:40:09.6	93.090	-0.110	0.060	1.150
2020/01/31 03:40:09.7	93.080	-0.170	0.150	1.190
2020/01/31 03:40:09.8	93.060	-0.230	0.220	1.220
2020/01/31 03:40:09.9	93.050	-0.290	0.300	1.250
2020/01/31 03:40:10.0	93.030	-0.350	0.380	1.280
2020/01/31 03:40:10.1	93.010	-0.410	0.450	1.320
2020/01/31 03:40:10.2	92.990	-0.460	0.520	1.340
2020/01/31 03:40:10.3	92.970	-0.510	0.580	1.370
2020/01/31 03:40:10.4	92.950	-0.560	0.630	1.390
2020/01/31 03:40:10.5	92.930	-0.600	0.680	1.410
2020/01/31 03:40:10.6	92.910	-0.640	0.710	1.420
2020/01/31 03:40:10.7	92.890	-0.670	0.740	1.430
2020/01/31 03:40:10.8	92.870	-0.700	0.760	1.440
2020/01/31 03:40:10.9	92.850	-0.720	0.770	1.450
2020/01/31 03:40:11.0	92.840	-0.730	0.760	1.440
2020/01/31 03:40:11.1	92.820	-0.740	0.750	1.440
2020/01/31 03:40:11.2	92.810	-0.740	0.720	1.430
2020/01/31 03:40:11.3	92.800	-0.740	0.680	1.420
2020/01/31 03:40:11.4	92.790	-0.730	0.640	1.400
2020/01/31 03:40:11.5	92.790	-0.720	0.570	1.380
2020/01/31 03:40:11.6	92.780	-0.690	0.500	1.360
2020/01/31 03:40:11.7	92.780	-0.670	0.420	1.330
2020/01/31 03:40:11.8	92.790	-0.640	0.330	1.300
2020/01/31 03:40:11.9	92.790	-0.600	0.240	1.270
2020/01/31 03:40:12.0	92.800	-0.560	0.130	1.230
2020/01/31 03:40:12.1	92.820	-0.520	0.020	1.190
2020/01/31 03:40:12.2	92.830	-0.470	-0.090	1.150
2020/01/31 03:40:12.3	92.840	-0.420	-0.210	1.110
2020/01/31 03:40:12.4	92.860	-0.370	-0.320	1.060
2020/01/31 03:40:12.5	92.880	-0.320	-0.430	1.010
2020/01/31 03:40:12.6	92.910	-0.270	-0.540	0.960
2020/01/31 03:40:12.7	92.930	-0.210	-0.650	0.920
2020/01/31 03:40:12.8	92.950	-0.160	-0.750	0.870
2020/01/31 03:40:12.9	92.980	-0.120	-0.840	0.820
2020/01/31 03:40:13.0	93.000	-0.070	-0.920	0.770
2020/01/31 03:40:13.1	93.010	-0.030	-0.990	0.730
2020/01/31 03:40:13.2	93.030	0.010	-1.050	0.690
2020/01/31 03:40:13.3	93.060	0.040	-1.090	0.650
2020/01/31 03:40:13.4	93.080	0.070	-1.120	0.610
2020/01/31 03:40:13.5	93.100	0.090	-1.140	0.570
2020/01/31 03:40:13.6	93.120	0.100	-1.140	0.540
2020/01/31 03:40:13.7	93.140	0.110	-1.130	0.500
2020/01/31 03:40:13.8	93.150	0.110	-1.100	0.470
2020/01/31 03:40:13.9	93.170	0.110	-1.060	0.440
2020/01/31 03:40:14.0	93.190	0.100	-1.010	0.420
2020/01/31 03:40:14.1	93.190	0.090	-0.940	0.390
2020/01/31 03:40:14.2	93.210	0.060	-0.870	0.370
2020/01/31 03:40:14.3	93.220	0.040	-0.780	0.360
2020/01/31 03:40:14.4	93.220	0.010	-0.680	0.340
2020/01/31 03:40:14.5	93.230	-0.030	-0.580	0.330
2020/01/31 03:40:14.6	93.240	-0.070	-0.470	0.330
2020/01/31 03:40:14.7	93.240	-0.120	-0.360	0.320
2020/01/31 03:40:14.8	93.250	-0.170	-0.250	0.320
2020/01/31 03:40:14.9	93.250	-0.220	-0.130	0.320
2020/01/31 03:40:15.0	93.250	-0.270	-0.010	0.330
2020/01/31 03:40:15.1	93.260	-0.320	0.100	0.330
2020/01/31 03:40:15.2	93.260	-0.370	0.210	0.340
2020/01/31 03:40:15.3	93.260	-0.420	0.320	0.350
2020/01/31 03:40:15.4	93.260	-0.470	0.420	0.370
2020/01/31 03:40:15.5	93.260	-0.520	0.510	0.380
2020/01/31 03:40:15.6	93.260	-0.560	0.590	0.400
2020/01/31 03:40:15.7	93.260	-0.600	0.660	0.420
2020/01/31 03:40:15.8	93.260	-0.630	0.710	0.440
2020/01/31 03:40:15.9	93.260	-0.660	0.760	0.460
2020/01/31 03:40:16.0	93.260	-0.680	0.790	0.480
2020/01/31 03:40:16.1	93.260	-0.700	0.810	0.500
2020/01/31 03:40:16.2	93.260	-0.700	0.810	0.520
2020/01/31 03:40:16.3	93.250	-0.700	0.800	0.530
2020/01/31 03:40:16.4	93.250	-0.700	0.780	0.550
2020/01/31 03:40:16.5	93.250	-0.680	0.740	0.560
2020/01/31 03:40:16.6	93.240	-0.660	0.690	0.580
2020/01/31 03:40:16.7	93.230	-0.630	0.620	0.590
2020/01/31 03:40:16.8	93.230	-0.590	0.540	0.590
2020/01/31 03:40:16.9	93.220	-0.540	0.460	0.600
2020/01/31 03:40:17.0	93.210	-0.490	0.360	0.600
2020/01/31 03:40:17.1	93.200	-0.430	0.250	0.600
2020/01/31 03:40:17.2	93.190	-0.360	0.140	0.600
2020/01/31 03:40:17.3	93.190	-0.290	0.020	0.600
2020/01/31 03:40:17.4	93.180	-0.220	-0.100	0.590
2020/01/31 03:40:17.5	93.170	-0.140	-0.230	0.590
2020/01/31 03:40:17.6	93.170	-0.060	-0.350	0.580
2020/01/31 03:40:17.7	93.170	0.020	-0.470	0.570
2020/01/31 03:40:17.8	93.160	0.110	-0.590	0.560
2020/01/31 03:40:17.9	93.160	0.200	-0.710	0.550
2020/01/31 03:40:18.0	93.170	0.280	-0.810	0.540
2020/01/31 03:40:18.1	93.160	0.360	-0.920	0.530
2020/01/31 03:40:18.2	93.170	0.450	-1.010	0.520
2020/01/31 03:40:18.3	93.170	0.520	-1.100	0.520
2020/01/31 03:40:18.4	93.180	0.600	-1.170	0.510
2020/01/31 03:40:18.5	93.180	0.670	-1.230	0.510
2020/01/31 03:40:18.6	93.190	0.730	-1.280	0.510
2020/01/31 03:40:18.7	93.200	0.790	-1.320	0.510
2020/01/31 03:40:18.8	93.200	0.850	-1.350	0.510
2020/01/31 03:40:18.9	93.210	0.890	-1.360	0.510
2020/01/31 03:40:19.0	93.210	0.930	-1.360	0.510
2020/01/31 03:40:19.1	93.220	0.960	-1.340	0.510
2020/01/31 03:40:19.2	93.220	0.980	-1.310	0.520
2020/01/31 03:40:19.3	93.210	1.000	-1.270	0.520
2020/01/31 03:40:19.4	93.210	1.000	-1.210	0.520
2020/01/31 03:40:19.5	93.210	1.000	-1.150	0.520
2020/01/31 03:40:19.6	93.200	0.990	-1.070	0.520
2020/01/31 03:40:19.7	93.190	0.970	-0.990	0.520
2020/01/31 03:40:19.8	93.180	0.940	-0.890	0.510
2020/01/31 03:40:19.9	93.170	0.910	-0.790	0.510
2020/01/31 03:40:20.0	93.150	0.870	-0.680	0.500
2020/01/31 03:40:20.1	93.130	0.820	-0.570	0.500
2020/01/31 03:40:20.2	93.110	0.770	-0.450	0.490
2020/01/31 03:40:20.3	93.090	0.710	-0.330	0.480
2020/01/31 03:40:20.4	93.060	0.650	-0.210	0.470
2020/01/31 03:40:20.5	93.040	0.590	-0.080	0.460
2020/01/31 03:40:20.6	93.010	0.520	0.040	0.450
2020/01/31 03:40:20.7	92.980	0.450	0.160	0.450
2020/01/31 03:40:20.8	92.940	0.370	0.270	0.440
2020/01/31 03:40:20.9	92.910	0.300	0.390	0.430
2020/01/31 03:40:21.0	92.870	0.230	0.490	0.420
2020/01/31 03:40:21.1	92.840	0.160	0.600	0.420
2020/01/31 03:40:21.2	92.810	0.090	0.690	0.410
2020/01/31 03:40:21.3	92.780	0.020	0.770	0.410
2020/01/31 03:40:21.4	92.740	-0.050	0.840	0.400
2020/01/31 03:40:21.5	92.710	-0.110	0.890	0.400
2020/01/31 03:40:21.6	92.680	-0.160	0.940	0.390
2020/01/31 03:40:21.7	92.650	-0.210	0.970	0.390
2020/01/31 03:40:21.8	92.630	-0.260	0.990	0.380
2020/01/31 03:40:21.9	92.610	-0.300	0.990	0.380
2020/01/31 03:40:22.0	92.590	-0.330	0.970	0.370
2020/01/31 03:40:22.1	92.590	-0.350	0.940	0.360
2020/01/31 03:40:22.2	92.580	-0.370	0.900	0.360
2020/01/31 03:40:22.3	92.570	-0.380	0.840	0.350
2020/01/31 03:40:22.4	92.570	-0.380	0.760	0.340
2020/01/31 03:40:22.5	92.580	-0.370	0.680	0.330
2020/01/31 03:40:22.6	92.590	-0.360	0.580	0.320
2020/01/31 03:40:22.7	92.600	-0.340	0.470	0.310
2020/01/31 03:40:22.8	92.620	-0.320	0.350	0.300
2020/01/31 03:40:22.9	92.640	-0.290	0.220	0.290
2020/01/31 03:40:23.0	92.670	-0.250	0.090	0.280
2020/01/31 03:40:23.1	92.690	-0.210	-0.050	0.270
2020/01/31 03:40:23.2	92.720	-0.160	-0.190	0.260
2020/01/31 03:40:23.3	92.750	-0.120	-0.330	0.250
2020/01/31 03:40:23.4	92.780	-0.070	-0.460	0.240
2020/01/31 03:40:23.5	92.810	-0.020	-0.600	0.220
2020/01/31 03:40:23.6	92.840	0.030	-0.720	0.210
2020/01/31 03:40:23.7	92.880	0.080	-0.840	0.200
2020/01/31 03:40:23.8	92.910	0.130	-0.950	0.190
2020/01/31 03:40:23.9	92.950	0.170	-1.050	0.180
2020/01/31 03:40:24.0	92.980	0.220	-1.130	0.170
2020/01/31 03:40:24.1	93.020	0.260	-1.210	0.160
2020/01/31 03:40:24.2	93.050	0.290	-1.270	0.160
2020/01/31 03:40:24.3	93.070	0.330	-1.320	0.170
2020/01/31 03:40:24.4	93.100	0.350	-1.350	0.170
2020/01/31 03:40:24.5	93.120	0.380	-1.370	0.180
2020/01/31 03:40:24.6	93.140	0.390	-1.370	0.200
2020/01/31 03:40:24.7	93.160	0.410	-1.360	0.230
2020/01/31 03:40:24.8	93.170	0.410	-1.330	0.260
2020/01/31 03:40:24.9	93.180	0.420	-1.290	0.290
2020/01/31 03:40:25.0	93.190	0.410	-1.230	0.330
2020/01/31 03:40:25.1	93.200	0.400	-1.170	0.380
2020/01/31 03:40:25.2	93.210	0.380	-1.090	0.430
2020/01/31 03:40:25.3	93.210	0.360	-1.000	0.490
2020/01/31 03:40:25.4	93.210	0.340	-0.910	0.560
2020/01/31 03:40:25.5	93.210	0.300	-0.810	0.620
2020/01/31 03:40:25.6	93.210	0.270	-0.700	0.700
2020/01/31 03:40:25.7	93.210	0.230	-0.590	0.770
2020/01/31 03:40:25.8	93.210	0.190	-0.480	0.850
2020/01/31 03:40:25.9	93.200	0.140	-0.360	0.930
2020/01/31 03:40:26.0	93.200	0.090	-0.250	1.010
2020/01/31 03:40:26.1	93.190	0.040	-0.130	1.090
2020/01/31 03:40:26.2	93.190	-0.010	-0.020	1.170
2020/01/31 03:40:26.3	93.180	-0.060	0.080	1.250
2020/01/31 03:40:26.4	93.170	-0.120	0.190	1.320
2020/01/31 03:40:26.5	93.170	-0.170	0.280	1.390
2020/01/31 03:40:26.6	93.160	-0.220	0.370	1.450
2020/01/31 03:40:26.7	93.160	-0.270	0.450	1.510
2020/01/31 03:40:26.8	93.150	-0.320	0.530	1.570
2020/01/31 03:40:26.9	93.140	-0.370	0.590	1.620
2020/01/31 03:40:27.0	93.140	-0.410	0.650	1.660
2020/01/31 03:40:27.1	93.130	-0.450	0.700	1.690
2020/01/31 03:40:27.2	93.130	-0.490	0.740	1.720
2020/01/31 03:40:27.3	93.120	-0.530	0.770	1.740
2020/01/31 03:40:27.4	93.120	-0.560	0.790	1.750
2020/01/31 03:40:27.5	93.110	-0.590	0.800	1.750
2020/01/31 03:40:27.6	93.110	-0.610	0.810	1.750
2020/01/31 03:40:27.7	93.100	-0.630	0.810	1.740
2020/01/31 03:40:27.8	93.100	-0.640	0.790	1.720
2020/01/31 03:40:27.9	93.100	-0.660	0.780	1.700
2020/01/31 03:40:28.0	93.100	-0.660	0.750	1.670
2020/01/31 03:40:28.1	93.110	-0.670	0.720	1.640
2020/01/31 03:40:28.2	93.110	-0.660	0.680	1.600
2020/01/31 03:40:28.3	93.110	-0.660	0.640	1.560
2020/01/31 03:40:28.4	93.110	-0.650	0.590	1.510
2020/01/31 03:40:28.5	93.110	-0.640	0.530	1.470
2020/01/31 03:40:28.6	93.110	-0.620	0.470	1.420
2020/01/31 03:40:28.7	93.110	-0.600	0.410	1.370
2020/01/31 03:40:28.8	93.110	-0.580	0.340	1.320
2020/01/31 03:40:28.9	93.110	-0.550	0.260	1.270
2020/01/31 03:40:29.0	93.110	-0.520	0.190	1.220
2020/01/31 03:40:29.1	93.100	-0.490	0.100	1.170
2020/01/31 03:40:29.2	93.100	-0.450	0.020	1.120
2020/01/31 03:40:29.3	93.100	-0.410	-0.070	1.070
2020/01/31 03:40:29.4	93.100	-0.370	-0.160	1.010
2020/01/31 03:40:29.5	93.110	-0.330	-0.250	0.960
2020/01/31 03:40:29.6	93.120	-0.280	-0.340	0.910
2020/01/31 03:40:29.7	93.120	-0.230	-0.430	0.860
2020/01/31 03:40:29.8	93.140	-0.180	-0.520	0.810
2020/01/31 03:40:29.9	93.150	-0.130	-0.600	0.760
2020/01/31 03:40:30.0	93.170	-0.080	-0.690	0.710
2020/01/31 03:40:30.1	93.190	-0.030	-0.780	0.650
2020/01/31 03:40:30.2	93.210	0.020	-0.860	0.600
2020/01/31 03:40:30.3	93.240	0.070	-0.930	0.550
2020/01/31 03:40:30.4	93.270	0.120	-1.010	0.500
2020/01/31 03:40:30.5	93.300	0.170	-1.070	0.450
2020/01/31 03:40:30.6	93.340	0.220	-1.130	0.410
2020/01/31 03:40:30.7	93.380	0.260	-1.180	0.370
2020/01/31 03:40:30.8	93.410	0.300	-1.220	0.330
2020/01/31 03:40:30.9	93.450	0.340	-1.260	0.290
2020/01/31 03:40:31.0	93.490	0.380	-1.280	0.260
2020/01/31 03:40:31.1	93.520	0.410	-1.300	0.240
2020/01/31 03:40:31.2	93.560	0.430	-1.300	0.210
2020/01/31 03:40:31.3	93.600	0.460	-1.300	0.200
2020/01/31 03:40:31.4	93.640	0.470	-1.290	0.180
2020/01/31 03:40:31.5	93.670	0.490	-1.260	0.170
2020/01/31 03:40:31.6	93.700	0.500	-1.230	0.170
2020/01/31 03:40:31.7	93.730	0.500	-1.190	0.170
2020/01/31 03:40:31.8	93.760	0.500	-1.140	0.180
2020/01/31 03:40:31.9	93.780	0.500	-1.080	0.190
2020/01/31 03:40:32.0	93.800	0.490	-1.010	0.200
2020/01/31 03:40:32.1	93.820	0.470	-0.930	0.230
2020/01/31 03:40:32.2	93.830	0.460	-0.850	0.250
2020/01/31 03:40:32.3	93.840	0.440	-0.770	0.280
2020/01/31 03:40:32.4	93.840	0.410	-0.680	0.310
2020/01/31 03:40:32.5	93.840	0.390	-0.580	0.340
2020/01/31 03:40:32.6	93.840	0.360	-0.490	0.380
2020/01/31 03:40:32.7	93.830	0.330	-0.390	0.420
2020/01/31 03:40:32.8	93.820	0.290	-0.290	0.460
2020/01/31 03:40:32.9	93.810	0.260	-0.190	0.510
2020/01/31 03:40:33.0	93.790	0.220	-0.090	0.550
2020/01/31 03:40:33.1	93.780	0.180	0.010	0.590
2020/01/31 03:40:33.2	93.750	0.150	0.100	0.640
2020/01/31 03:40:33.3	93.730	0.110	0.190	0.680
2020/01/31 03:40:33.4	93.710	0.070	0.280	0.720
2020/01/31 03:40:33.5	93.680	0.040	0.360	0.760
2020/01/31 03:40:33.6	93.650	-0.000	0.430	0.800
2020/01/31 03:40:33.7	93.620	-0.030	0.490	0.830
2020/01/31 03:40:33.8	93.600	-0.070	0.550	0.860
2020/01/31 03:40:33.9	93.570	-0.100	0.600	0.890
2020/01/31 03:40:34.0	93.550	-0.120	0.640	0.910
2020/01/31 03:40:34.1	93.530	-0.150	0.670	0.930
2020/01/31 03:40:34.2	93.510	-0.170	0.680	0.950
2020/01/31 03:40:34.3	93.500	-0.190	0.690	0.960
2020/01/31 03:40:34.4	93.480	-0.200	0.690	0.960
2020/01/31 03:40:34.5	93.480	-0.210	0.670	0.960
2020/01/31 03:40:34.6	93.470	-0.220	0.650	0.950
2020/01/31 03:40:34.7	93.470	-0.230	0.610	0.940
2020/01/31 03:40:34.8	93.470	-0.230	0.570	0.930
2020/01/31 03:40:34.9	93.470	-0.220	0.510	0.910
2020/01/31 03:40:35.0	93.480	-0.220	0.450	0.890
2020/01/31 03:40:35.1	93.480	-0.200	0.390	0.870
2020/01/31 03:40:35.2	93.490	-0.190	0.320	0.860
2020/01/31 03:40:35.3	93.500	-0.180	0.240	0.840
2020/01/31 03:40:35.4	93.510	-0.160	0.160	0.820
2020/01/31 03:40:35.5	93.520	-0.140	0.080	0.800
2020/01/31 03:40:35.6	93.530	-0.120	-0.000	0.790
2020/01/31 03:40:35.7	93.550	-0.100	-0.080	0.770
2020/01/31 03:40:35.8	93.560	-0.080	-0.160	0.750
2020/01/31 03:40:35.9	93.570	-0.050	-0.240	0.730
2020/01/31 03:40:36.0	93.580	-0.030	-0.310	0.710
2020/01/31 03:40:36.1	93.590	-0.010	-0.380	0.690
2020/01/31 03:40:36.2	93.600	0.010	-0.450	0.670
2020/01/31 03:40:36.3	93.620	0.030	-0.500	0.640
2020/01/31 03:40:36.4	93.630	0.050	-0.550	0.610
2020/01/31 03:40:36.5	93.650	0.070	-0.600	0.580
2020/01/31 03:40:36.6	93.660	0.080	-0.640	0.540
2020/01/31 03:40:36.7	93.680	0.100	-0.670	0.510
2020/01/31 03:40:36.8	93.700	0.110	-0.690	0.470
2020/01/31 03:40:36.9	93.710	0.120	-0.710	0.430
2020/01/31 03:40:37.0	93.730	0.130	-0.720	0.390
2020/01/31 03:40:37.1	93.740	0.130	-0.710	0.340
2020/01/31 03:40:37.2	93.760	0.140	-0.710	0.300
2020/01/31 03:40:37.3	93.770	0.140	-0.700	0.250
2020/01/31 03:40:37.4	93.790	0.140	-0.680	0.210
2020/01/31 03:40:37.5	93.800	0.140	-0.660	0.170
2020/01/31 03:40:37.6	93.820	0.140	-0.640	0.130
2020/01/31 03:40:37.7	93.830	0.140	-0.610	0.090
2020/01/31 03:40:37.8	93.850	0.130	-0.570	0.060
2020/01/31 03:40:37.9	93.860	0.130	-0.530	0.030
2020/01/31 03:40:38.0	93.870	0.120	-0.490	0.000
2020/01/31 03:40:38.1	93.880	0.120	-0.450	-0.020
2020/01/31 03:40:38.2	93.890	0.110	-0.410	-0.040
2020/01/31 03:40:38.3	93.910	0.110	-0.370	-0.060
2020/01/31 03:40:38.4	93.920	0.100	-0.320	-0.070
2020/01/31 03:40:38.5	93.940	0.100	-0.280	-0.070
2020/01/31 03:40:38.6	93.960	0.090	-0.240	-0.070
2020/01/31 03:40:38.7	93.970	0.090	-0.190	-0.070
2020/01/31 03:40:38.8	93.990	0.090	-0.160	-0.060
2020/01/31 03:40:38.9	94.010	0.090	-0.120	-0.050
2020/01/31 03:40:39.0	94.020	0.090	-0.090	-0.040
2020/01/31 03:40:39.1	94.060	0.090	-0.050	-0.020
2020/01/31 03:40:39.2	94.080	0.090	-0.020	0.000
2020/01/31 03:40:39.3	94.100	0.090	-0.000	0.020
2020/01/31 03:40:39.4	94.120	0.090	0.020	0.040
2020/01/31 03:40:39.5	94.140	0.100	0.030	0.070
2020/01/31 03:40:39.6	94.160	0.100	0.040	0.090
2020/01/31 03:40:39.7	94.180	0.100	0.050	0.120
2020/01/31 03:40:39.8	94.210	0.110	0.050	0.140
2020/01/31 03:40:39.9	94.230	0.120	0.050	0.170
2020/01/31 03:40:40.0	94.250	0.120	0.040	0.200
2020/01/31 03:40:40.1	94.260	0.130	0.020	0.230
2020/01/31 03:40:40.2	94.280	0.140	0.010	0.260
2020/01/31 03:40:40.3	94.300	0.150	-0.010	0.290
2020/01/31 03:40:40.4	94.310	0.150	-0.030	0.330
2020/01/31 03:40:40.5	94.330	0.160	-0.050	0.360
2020/01/31 03:40:40.6	94.340	0.170	-0.080	0.400
2020/01/31 03:40:40.7	94.350	0.170	-0.100	0.440
2020/01/31 03:40:40.8	94.350	0.180	-0.130	0.480
2020/01/31 03:40:40.9	94.360	0.190	-0.160	0.530
2020/01/31 03:40:41.0	94.360	0.190	-0.190	0.570
2020/01/31 03:40:41.1	94.360	0.190	-0.220	0.620
2020/01/31 03:40:41.2	94.350	0.190	-0.250	0.660
2020/01/31 03:40:41.3	94.350	0.190	-0.270	0.710
2020/01/31 03:40:41.4	94.340	0.190	-0.300	0.760
2020/01/31 03:40:41.5	94.330	0.190	-0.320	0.800
2020/01/31 03:40:41.6	94.320	0.180	-0.330	0.850
2020/01/31 03:40:41.7	94.300	0.170	-0.350	0.890
2020/01/31 03:40:41.8	94.290	0.170	-0.360	0.930
2020/01/31 03:40:41.9	94.270	0.150	-0.370	0.970
2020/01/31 03:40:42.0	94.250	0.140	-0.370	1.010
2020/01/31 03:40:42.1	94.240	0.120	-0.380	1.050
2020/01/31 03:40:42.2	94.220	0.110	-0.370	1.080
2020/01/31 03:40:42.3	94.200	0.090	-0.360	1.110
2020/01/31 03:40:42.4	94.180	0.070	-0.350	1.130
2020/01/31 03:40:42.5	94.160	0.050	-0.340	1.150
2020/01/31 03:40:42.6	94.140	0.020	-0.320	1.170
2020/01/31 03:40:42.7	94.120	0.000	-0.300	1.190
2020/01/31 03:40:42.8	94.100	-0.020	-0.280	1.200
2020/01/31 03:40:42.9	94.080	-0.050	-0.260	1.210
2020/01/31 03:40:43.0	94.070	-0.070	-0.230	1.220
2020/01/31 03:40:43.1	94.040	-0.100	-0.210	1.220
2020/01/31 03:40:43.2	94.030	-0.120	-0.180	1.220
2020/01/31 03:40:43.3	94.020	-0.150	-0.160	1.220
2020/01/31 03:40:43.4	94.010	-0.170	-0.140	1.210
2020/01/31 03:40:43.5	94.010	-0.190	-0.120	1.210
2020/01/31 03:40:43.6	94.010	-0.210	-0.100	1.200
2020/01/31 03:40:43.7	94.010	-0.230	-0.090	1.180
2020/01/31 03:40:43.8	94.010	-0.250	-0.070	1.170
2020/01/31 03:40:43.9	94.020	-0.260	-0.060	1.150
2020/01/31 03:40:44.0	94.030	-0.280	-0.050	1.130
2020/01/31 03:40:44.1	94.060	-0.290	-0.050	1.110
2020/01/31 03:40:44.2	94.080	-0.300	-0.050	1.090
2020/01/31 03:40:44.3	94.100	-0.300	-0.050	1.070
2020/01/31 03:40:44.4	94.120	-0.310	-0.060	1.050
2020/01/31 03:40:44.5	94.140	-0.310	-0.070	1.020
2020/01/31 03:40:44.6	94.170	-0.300	-0.080	1.000
2020/01/31 03:40:44.7	94.190	-0.300	-0.100	0.970
2020/01/31 03:40:44.8	94.220	-0.290	-0.120	0.940
2020/01/31 03:40:44.9	94.240	-0.290	-0.140	0.920
2020/01/31 03:40:45.0	94.270	-0.270	-0.160	0.890
2020/01/31 03:40:45.1	94.290	-0.260	-0.190	0.860
2020/01/31 03:40:45.2	94.310	-0.250	-0.220	0.830
2020/01/31 03:40:45.3	94.330	-0.230	-0.250	0.810
2020/01/31 03:40:45.4	94.350	-0.210	-0.280	0.780
2020/01/31 03:40:45.5	94.370	-0.190	-0.310	0.750
2020/01/31 03:40:45.6	94.390	-0.160	-0.340	0.730
2020/01/31 03:40:45.7	94.400	-0.140	-0.370	0.700
2020/01/31 03:40:45.8	94.410	-0.120	-0.400	0.680
2020/01/31 03:40:45.9	94.420	-0.090	-0.430	0.660
2020/01/31 03:40:46.0	94.420	-0.060	-0.450	0.640
2020/01/31 03:40:46.1	94.420	-0.040	-0.480	0.620
2020/01/31 03:40:46.2	94.410	-0.010	-0.500	0.600
2020/01/31 03:40:46.3	94.410	0.010	-0.520	0.590
2020/01/31 03:40:46.4	94.400	0.040	-0.540	0.570
2020/01/31 03:40:46.5	94.380	0.060	-0.550	0.560
2020/01/31 03:40:46.6	94.370	0.080	-0.560	0.550
2020/01/31 03:40:46.7	94.350	0.100	-0.560	0.540
2020/01/31 03:40:46.8	94.340	0.120	-0.560	0.530
2020/01/31 03:40:46.9	94.320	0.130	-0.550	0.530
2020/01/31 03:40:47.0	94.300	0.140	-0.530	0.530
2020/01/31 03:40:47.1	94.270	0.150	-0.510	0.530
2020/01/31 03:40:47.2	94.250	0.160	-0.490	0.530
2020/01/31 03:40:47.3	94.230	0.160	-0.450	0.540
2020/01/31 03:40:47.4	94.210	0.160	-0.410	0.550
2020/01/31 03:40:47.5	94.190	0.150	-0.370	0.560
2020/01/31 03:40:47.6	94.170	0.150	-0.320	0.580
2020/01/31 03:40:47.7	94.150	0.140	-0.270	0.600
2020/01/31 03:40:47.8	94.130	0.120	-0.210	0.630
2020/01/31 03:40:47.9	94.120	0.110	-0.150	0.650
2020/01/31 03:40:48.0	94.110	0.090	-0.090	0.680
2020/01/31 03:40:48.1	94.100	0.060	-0.030	0.710
2020/01/31 03:40:48.2	94.090	0.040	0.040	0.740
2020/01/31 03:40:48.3	94.080	0.020	0.100	0.780
2020/01/31 03:40:48.4	94.070	-0.010	0.160	0.810
2020/01/31 03:40:48.5	94.070	-0.040	0.220	0.840
2020/01/31 03:40:48.6	94.060	-0.060	0.270	0.860
2020/01/31 03:40:48.7	94.060	-0.090	0.320	0.890
2020/01/31 03:40:48.8	94.070	-0.120	0.360	0.910
2020/01/31 03:40:48.9	94.070	-0.140	0.390	0.930
2020/01/31 03:40:49.0	94.080	-0.160	0.420	0.950
2020/01/31 03:40:49.1	94.090	-0.180	0.440	0.960
2020/01/31 03:40:49.2	94.110	-0.200	0.450	0.960
2020/01/31 03:40:49.3	94.120	-0.210	0.450	0.960
2020/01/31 03:40:49.4	94.140	-0.230	0.430	0.950
2020/01/31 03:40:49.5	94.170	-0.230	0.410	0.940
2020/01/31 03:40:49.6	94.190	-0.240	0.380	0.930
2020/01/31 03:40:49.7	94.220	-0.240	0.340	0.910
2020/01/31 03:40:49.8	94.240	-0.230	0.290	0.880
2020/01/31 03:40:49.9	94.270	-0.220	0.230	0.860
2020/01/31 03:40:50.0	94.300	-0.210	0.170	0.830
2020/01/31 03:40:50.1	94.370	-0.190	0.090	0.790
2020/01/31 03:40:50.2	94.400	-0.170	0.010	0.760
2020/01/31 03:40:50.3	94.430	-0.140	-0.080	0.730
2020/01/31 03:40:50.4	94.460	-0.110	-0.170	0.700
2020/01/31 03:40:50.5	94.480	-0.070	-0.260	0.670
2020/01/31 03:40:50.6	94.510	-0.030	-0.360	0.640
2020/01/31 03:40:50.7	94.540	0.010	-0.460	0.610
2020/01/31 03:40:50.8	94.560	0.050	-0.560	0.590
2020/01/31 03:40:50.9	94.590	0.100	-0.660	0.570
2020/01/31 03:40:51.0	94.610	0.150	-0.760	0.560
2020/01/31 03:40:51.1	94.620	0.200	-0.860	0.550
2020/01/31 03:40:51.2	94.640	0.250	-0.950	0.540
2020/01/31 03:40:51.3	94.660	0.300	-1.030	0.540
2020/01/31 03:40:51.4	94.670	0.350	-1.110	0.540
2020/01/31 03:40:51.5	94.690	0.390	-1.170	0.550
2020/01/31 03:40:51.6	94.700	0.440	-1.230	0.560
2020/01/31 03:40:51.7	94.710	0.480	-1.270	0.580
2020/01/31 03:40:51.8	94.710	0.510	-1.310	0.600
2020/01/31 03:40:51.9	94.720	0.540	-1.330	0.630
2020/01/31 03:40:52.0	94.720	0.570	-1.330	0.660
2020/01/31 03:40:52.1	94.710	0.590	-1.330	0.700
2020/01/31 03:40:52.2	94.700	0.610	-1.310	0.740
2020/01/31 03:40:52.3	94.700	0.620	-1.280	0.780
2020/01/31 03:40:52.4	94.690	0.620	-1.240	0.820
2020/01/31 03:40:52.5	94.690	0.620	-1.180	0.870
2020/01/31 03:40:52.6	94.680	0.610	-1.110	0.920
2020/01/31 03:40:52.7	94.670	0.600	-1.030	0.960
2020/01/31 03:40:52.8	94.660	0.570	-0.950	1.010
2020/01/31 03:40:52.9	94.650	0.550	-0.850	1.050
2020/01/31 03:40:53.0	94.630	0.510	-0.740	1.100
2020/01/31 03:40:53.1	94.630	0.470	-0.620	1.140
2020/01/31 03:40:53.2	94.610	0.420	-0.490	1.180
2020/01/31 03:40:53.3	94.600	0.370	-0.370	1.210
2020/01/31 03:40:53.4	94.580	0.320	-0.240	1.240
2020/01/31 03:40:53.5	94.570	0.260	-0.100	1.270
2020/01/31 03:40:53.6	94.550	0.200	0.030	1.280
2020/01/31 03:40:53.7	94.530	0.130	0.160	1.300
2020/01/31 03:40:53.8	94.520	0.070	0.290	1.310
2020/01/31 03:40:53.9	94.500	-0.000	0.410	1.320
2020/01/31 03:40:54.0	94.490	-0.070	0.530	1.320
2020/01/31 03:40:54.1	94.470	-0.140	0.650	1.310
2020/01/31 03:40:54.2	94.460	-0.210	0.750	1.300
2020/01/31 03:40:54.3	94.450	-0.270	0.840	1.290
2020/01/31 03:40:54.4	94.450	-0.330	0.920	1.270
2020/01/31 03:40:54.5	94.440	-0.390	0.990	1.250
2020/01/31 03:40:54.6	94.440	-0.450	1.040	1.230
2020/01/31 03:40:54.7	94.440	-0.500	1.080	1.200
2020/01/31 03:40:54.8	94.450	-0.550	1.110	1.170
2020/01/31 03:40:54.9	94.450	-0.590	1.120	1.140
2020/01/31 03:40:55.0	94.460	-0.620	1.120	1.110
2020/01/31 03:40:55.1	94.470	-0.650	1.110	1.070
2020/01/31 03:40:55.2	94.480	-0.680	1.080	1.040
2020/01/31 03:40:55.3	94.490	-0.690	1.040	1.010
2020/01/31 03:40:55.4	94.500	-0.710	0.980	0.980
2020/01/31 03:40:55.5	94.510	-0.710	0.920	0.940
2020/01/31 03:40:55.6	94.520	-0.710	0.840	0.910
2020/01/31 03:40:55.7	94.530	-0.700	0.750	0.880
2020/01/31 03:40:55.8	94.540	-0.690	0.660	0.850
2020/01/31 03:40:55.9	94.550	-0.680	0.560	0.820
2020/01/31 03:40:56.0	94.560	-0.660	0.460	0.790
2020/01/31 03:40:56.1	94.570	-0.630	0.340	0.760
2020/01/31 03:40:56.2	94.570	-0.600	0.230	0.730
2020/01/31 03:40:56.3	94.580	-0.570	0.110	0.690
2020/01/31 03:40:56.4	94.580	-0.540	0.000	0.660
2020/01/31 03:40:56.5	94.580	-0.500	-0.110	0.630
2020/01/31 03:40:56.6	94.590	-0.460	-0.220	0.590
2020/01/31 03:40:56.7	94.590	-0.420	-0.330	0.550
2020/01/31 03:40:56.8	94.590	-0.380	-0.440	0.520
2020/01/31 03:40:56.9	94.590	-0.340	-0.540	0.480
2020/01/31 03:40:57.0	94.590	-0.300	-0.630	0.450
2020/01/31 03:40:57.1	94.590	-0.260	-0.720	0.410
2020/01/31 03:40:57.2	94.590	-0.220	-0.800	0.380
2020/01/31 03:40:57.3	94.590	-0.180	-0.870	0.350
2020/01/31 03:40:57.4	94.590	-0.140	-0.940	0.320
2020/01/31 03:40:57.5	94.590	-0.100	-1.000	0.300
2020/01/31 03:40:57.6	94.590	-0.060	-1.040	0.280
2020/01/31 03:40:57.7	94.590	-0.030	-1.080	0.270
2020/01/31 03:40:57.8	94.600	0.010	-1.110	0.250
2020/01/31 03:40:57.9	94.600	0.040	-1.130	0.250
2020/01/31 03:40:58.0	94.610	0.070	-1.150	0.240
2020/01/31 03:40:58.1	94.610	0.100	-1.150	0.240
2020/01/31 03:40:58.2	94.630	0.130	-1.140	0.230
2020/01/31 03:40:58.3	94.640	0.150	-1.130	0.240
2020/01/31 03:40:58.4	94.650	0.180	-1.110	0.240
2020/01/31 03:40:58.5	94.670	0.200	-1.080	0.240
2020/01/31 03:40:58.6	94.690	0.220	-1.050	0.250
2020/01/31 03:40:58.7	94.710	0.240	-1.000	0.260
2020/01/31 03:40:58.8	94.730	0.250	-0.960	0.270
2020/01/31 03:40:58.9	94.750	0.260	-0.900	0.290
2020/01/31 03:40:59.0	94.780	0.280	-0.840	0.300
2020/01/31 03:40:59.1	94.800	0.290	-0.780	0.320
2020/01/31 03:40:59.2	94.820	0.290	-0.710	0.340
2020/01/31 03:40:59.3	94.840	0.300	-0.640	0.360
2020/01/31 03:40:59.4	94.870	0.300	-0.570	0.380
2020/01/31 03:40:59.5	94.890	0.310	-0.490	0.400
2020/01/31 03:40:59.6	94.910	0.310	-0.420	0.420
2020/01/31 03:40:59.7	94.930	0.300	-0.340	0.440
2020/01/31 03:40:59.8	94.950	0.300	-0.270	0.460
2020/01/31 03:40:59.9	94.970	0.300	-0.200	0.480
2020/01/31 03:41:00.0	94.980	0.290	-0.130	0.500
2020/01/31 03:41:00.1	94.990	0.280	-0.060	0.520
2020/01/31 03:41:00.2	95.000	0.280	0.010	0.540
2020/01/31 03:41:00.3	95.010	0.270	0.070	0.560
2020/01/31 03:41:00.4	95.010	0.260	0.130	0.580
2020/01/31 03:41:00.5	95.000	0.250	0.180	0.600
2020/01/31 03:41:00.6	95.000	0.240	0.220	0.620
2020/01/31 03:41:00.7	94.990	0.230	0.260	0.630
2020/01/31 03:41:00.8	94.980	0.230	0.290	0.650
2020/01/31 03:41:00.9	94.970	0.220	0.310	0.670
2020/01/31 03:41:01.0	94.950	0.210	0.330	0.680
2020/01/31 03:41:01.1	94.920	0.210	0.330	0.700
2020/01/31 03:41:01.2	94.900	0.210	0.340	0.720
2020/01/31 03:41:01.3	94.880	0.200	0.330	0.740
2020/01/31 03:41:01.4	94.860	0.200	0.320	0.760
2020/01/31 03:41:01.5	94.840	0.200	0.300	0.780
2020/01/31 03:41:01.6	94.820	0.210	0.270	0.800
2020/01/31 03:41:01.7	94.790	0.210	0.240	0.820
2020/01/31 03:41:01.8	94.770	0.210	0.200	0.840
2020/01/31 03:41:01.9	94.750	0.220	0.160	0.870
2020/01/31 03:41:02.0	94.720	0.230	0.120	0.890
2020/01/31 03:41:02.1	94.710	0.230	0.070	0.920
2020/01/31 03:41:02.2	94.690	0.240	0.020	0.940
2020/01/31 03:41:02.3	94.670	0.250	-0.030	0.960
2020/01/31 03:41:02.4	94.660	0.260	-0.080	0.990
2020/01/31 03:41:02.5	94.640	0.270	-0.130	1.010
2020/01/31 03:41:02.6	94.630	0.280	-0.180	1.030
2020/01/31 03:41:02.7	94.620	0.280	-0.230	1.040
2020/01/31 03:41:02.8	94.610	0.290	-0.280	1.060
2020/01/31 03:41:02.9	94.610	0.300	-0.330	1.070
2020/01/31 03:41:03.0	94.610	0.300	-0.370	1.080
2020/01/31 03:41:03.1	94.610	0.310	-0.410	1.080
2020/01/31 03:41:03.2	94.620	0.310	-0.440	1.090
2020/01/31 03:41:03.3	94.620	0.310	-0.470	1.090
2020/01/31 03:41:03.4	94.630	0.310	-0.500	1.080
2020/01/31 03:41:03.5	94.630	0.310	-0.520	1.080
2020/01/31 03:41:03.6	94.640	0.300	-0.530	1.070
2020/01/31 03:41:03.7	94.650	0.290	-0.540	1.050
2020/01/31 03:41:03.8	94.660	0.280	-0.540	1.040
2020/01/31 03:41:03.9	94.680	0.270	-0.540	1.020
2020/01/31 03:41:04.0	94.690	0.260	-0.540	1.000
2020/01/31 03:41:04.1	94.700	0.240	-0.530	0.980
2020/01/31 03:41:04.2	94.710	0.220	-0.510	0.960
2020/01/31 03:41:04.3	94.730	0.200	-0.490	0.940
2020/01/31 03:41:04.4	94.740	0.170	-0.470	0.910
2020/01/31 03:41:04.5	94.760	0.150	-0.440	0.890
2020/01/31 03:41:04.6	94.770	0.120	-0.410	0.860
2020/01/31 03:41:04.7	94.780	0.090	-0.380	0.840
2020/01/31 03:41:04.8	94.800	0.060	-0.340	0.820
2020/01/31 03:41:04.9	94.810	0.020	-0.300	0.790
2020/01/31 03:41:05.0	94.820	-0.010	-0.270	0.770
2020/01/31 03:41:05.1	94.830	-0.040	-0.230	0.750
2020/01/31 03:41:05.2	94.840	-0.070	-0.190	0.730
2020/01/31 03:41:05.3	94.850	-0.110	-0.160	0.710
2020/01/31 03:41:05.4	94.860	-0.140	-0.120	0.700
2020/01/31 03:41:05.5	94.870	-0.170	-0.090	0.680
2020/01/31 03:41:05.6	94.880	-0.200	-0.070	0.670
2020/01/31 03:41:05.7	94.890	-0.230	-0.040	0.660
2020/01/31 03:41:05.8	94.900	-0.260	-0.020	0.650
2020/01/31 03:41:05.9	94.910	-0.280	-0.010	0.640
2020/01/31 03:41:06.0	94.920	-0.310	0.010	0.630
2020/01/31 03:41:06.1	94.940	-0.330	0.010	0.630
2020/01/31 03:41:06.2	94.950	-0.350	0.020	0.630
2020/01/31 03:41:06.3	94.960	-0.360	0.010	0.640
2020/01/31 03:41:06.4	94.970	-0.380	0.010	0.640
2020/01/31 03:41:06.5	94.970	-0.390	-0.010	0.660
2020/01/31 03:41:06.6	94.980	-0.400	-0.020	0.670
2020/01/31 03:41:06.7	94.980	-0.410	-0.040	0.690
2020/01/31 03:41:06.8	94.990	-0.410	-0.060	0.720
2020/01/31 03:41:06.9	94.990	-0.410	-0.090	0.740
2020/01/31 03:41:07.0	94.990	-0.410	-0.120	0.770
2020/01/31 03:41:07.1	94.980	-0.410	-0.160	0.800
2020/01/31 03:41:07.2	94.970	-0.400	-0.190	0.840
2020/01/31 03:41:07.3	94.970	-0.390	-0.220	0.880
2020/01/31 03:41:07.4	94.960	-0.380	-0.260	0.920
2020/01/31 03:41:07.5	94.960	-0.370	-0.290	0.960
2020/01/31 03:41:07.6	94.950	-0.360	-0.330	0.990
2020/01/31 03:41:07.7	94.940	-0.340	-0.360	1.030
2020/01/31 03:41:07.8	94.930	-0.330	-0.390	1.070
2020/01/31 03:41:07.9	94.910	-0.310	-0.420	1.100
2020/01/31 03:41:08.0	94.900	-0.290	-0.440	1.130
2020/01/31 03:41:08.1	94.890	-0.280	-0.460	1.160
2020/01/31 03:41:08.2	94.880	-0.260	-0.480	1.190
2020/01/31 03:41:08.3	94.870	-0.240	-0.490	1.210
2020/01/31 03:41:08.4	94.850	-0.230	-0.500	1.230
2020/01/31 03:41:08.5	94.840	-0.210	-0.500	1.240
2020/01/31 03:41:08.6	94.830	-0.190	-0.500	1.260
2020/01/31 03:41:08.7	94.820	-0.180	-0.490	1.270
2020/01/31 03:41:08.8	94.810	-0.170	-0.480	1.270
2020/01/31 03:41:08.9	94.800	-0.160	-0.470	1.280
2020/01/31 03:41:09.0	94.780	-0.150	-0.450	1.280
2020/01/31 03:41:09.1	94.790	-0.140	-0.430	1.280
2020/01/31 03:41:09.2	94.770	-0.130	-0.400	1.280
2020/01/31 03:41:09.3	94.760	-0.130	-0.370	1.270
2020/01/31 03:41:09.4	94.750	-0.120	-0.330	1.270
2020/01/31 03:41:09.5	94.730	-0.120	-0.300	1.260
2020/01/31 03:41:09.6	94.720	-0.130	-0.260	1.250
2020/01/31 03:41:09.7	94.710	-0.130	-0.220	1.240
2020/01/31 03:41:09.8	94.700	-0.130	-0.180	1.230
2020/01/31 03:41:09.9	94.690	-0.140	-0.140	1.220
2020/01/31 03:41:10.0	94.680	-0.140	-0.100	1.210
2020/01/31 03:41:10.1	94.690	-0.150	-0.050	1.200
2020/01/31 03:41:10.2	94.680	-0.160	-0.010	1.190
2020/01/31 03:41:10.3	94.680	-0.170	0.020	1.180
2020/01/31 03:41:10.4	94.670	-0.180	0.050	1.160
2020/01/31 03:41:10.5	94.670	-0.190	0.080	1.140
2020/01/31 03:41:10.6	94.670	-0.200	0.110	1.130
2020/01/31 03:41:10.7	94.670	-0.210	0.130	1.110
2020/01/31 03:41:10.8	94.680	-0.210	0.150	1.080
2020/01/31 03:41:10.9	94.680	-0.220	0.160	1.060
2020/01/31 03:41:11.0	94.690	-0.220	0.170	1.030
2020/01/31 03:41:11.1	94.680	-0.230	0.170	1.000
2020/01/31 03:41:11.2	94.690	-0.230	0.170	0.970
2020/01/31 03:41:11.3	94.700	-0.230	0.170	0.940
2020/01/31 03:41:11.4	94.710	-0.230	0.170	0.910
2020/01/31 03:41:11.5	94.720	-0.220	0.160	0.870
2020/01/31 03:41:11.6	94.730	-0.220	0.150	0.840
2020/01/31 03:41:11.7	94.730	-0.210	0.130	0.800
2020/01/31 03:41:11.8	94.740	-0.200	0.110	0.760
2020/01/31 03:41:11.9	94.750	-0.180	0.090	0.720
2020/01/31 03:41:12.0	94.760	-0.170	0.070	0.690
2020/01/31 03:41:12.1	94.770	-0.150	0.050	0.650
2020/01/31 03:41:12.2	94.780	-0.130	0.020	0.620
2020/01/31 03:41:12.3	94.780	-0.100	-0.010	0.580
2020/01/31 03:41:12.4	94.790	-0.080	-0.040	0.550
2020/01/31 03:41:12.5	94.790	-0.050	-0.080	0.520
2020/01/31 03:41:12.6	94.800	-0.020	-0.120	0.480
2020/01/31 03:41:12.7	94.810	0.020	-0.160	0.450
2020/01/31 03:41:12.8	94.810	0.050	-0.200	0.420
2020/01/31 03:41:12.9	94.820	0.090	-0.240	0.390
2020/01/31 03:41:13.0	94.830	0.130	-0.280	0.360
2020/01/31 03:41:13.1	94.830	0.170	-0.330	0.340
2020/01/31 03:41:13.2	94.840	0.210	-0.370	0.310
2020/01/31 03:41:13.3	94.850	0.250	-0.420	0.290
2020/01/31 03:41:13.4	94.860	0.290	-0.460	0.270
2020/01/31 03:41:13.5	94.880	0.340	-0.510	0.250
2020/01/31 03:41:13.6	94.890	0.380	-0.550	0.240
2020/01/31 03:41:13.7	94.900	0.420	-0.590	0.220
2020/01/31 03:41:13.8	94.910	0.460	-0.630	0.220
2020/01/31 03:41:13.9	94.920	0.500	-0.660	0.210
2020/01/31 03:41:14.0	94.930	0.540	-0.690	0.210
2020/01/31 03:41:14.1	94.940	0.570	-0.720	0.210
2020/01/31 03:41:14.2	94.940	0.600	-0.740	0.210
2020/01/31 03:41:14.3	94.950	0.630	-0.760	0.220
2020/01/31 03:41:14.4	94.950	0.660	-0.770	0.230
2020/01/31 03:41:14.5	94.960	0.680	-0.780	0.240
2020/01/31 03:41:14.6	94.960	0.690	-0.780	0.260
2020/01/31 03:41:14.7	94.960	0.710	-0.770	0.280
2020/01/31 03:41:14.8	94.960	0.710	-0.760	0.300
2020/01/31 03:41:14.9	94.950	0.710	-0.740	0.320
2020/01/31 03:41:15.0	94.950	0.710	-0.710	0.340
2020/01/31 03:41:15.1	94.940	0.700	-0.670	0.370
2020/01/31 03:41:15.2	94.930	0.690	-0.630	0.390
2020/01/31 03:41:15.3	94.920	0.670	-0.590	0.420
2020/01/31 03:41:15.4	94.910	0.650	-0.540	0.450
2020/01/31 03:41:15.5	94.900	0.620	-0.480	0.480
2020/01/31 03:41:15.6	94.880	0.590	-0.420	0.510
2020/01/31 03:41:15.7	94.870	0.550	-0.360	0.540
2020/01/31 03:41:15.8	94.850	0.510	-0.290	0.570
2020/01/31 03:41:15.9	94.830	0.470	-0.220	0.610
2020/01/31 03:41:16.0	94.810	0.420	-0.150	0.650
2020/01/31 03:41:16.1	94.790	0.370	-0.080	0.680
2020/01/31 03:41:16.2	94.760	0.320	-0.010	0.730
2020/01/31 03:41:16.3	94.730	0.270	0.050	0.770
2020/01/31 03:41:16.4	94.700	0.210	0.120	0.820
2020/01/31 03:41:16.5	94.670	0.160	0.180	0.860
2020/01/31 03:41:16.6	94.640	0.110	0.230	0.910
2020/01/31 03:41:16.7	94.610	0.050	0.280	0.960
2020/01/31 03:41:16.8	94.570	0.000	0.330	1.010
2020/01/31 03:41:16.9	94.530	-0.050	0.370	1.060
2020/01/31 03:41:17.0	94.500	-0.100	0.400	1.110
2020/01/31 03:41:17.1	94.470	-0.140	0.420	1.170
2020/01/31 03:41:17.2	94.430	-0.180	0.430	1.210
2020/01/31 03:41:17.3	94.400	-0.220	0.440	1.260
2020/01/31 03:41:17.4	94.370	-0.250	0.430	1.300
2020/01/31 03:41:17.5	94.340	-0.280	0.420	1.330
2020/01/31 03:41:17.6	94.320	-0.310	0.400	1.370
2020/01/31 03:41:17.7	94.290	-0.330	0.370	1.400
2020/01/31 03:41:17.8	94.270	-0.350	0.330	1.420
2020/01/31 03:41:17.9	94.260	-0.360	0.290	1.440
2020/01/31 03:41:18.0	94.250	-0.370	0.240	1.460
2020/01/31 03:41:18.1	94.230	-0.370	0.180	1.470
2020/01/31 03:41:18.2	94.230	-0.370	0.110	1.480
2020/01/31 03:41:18.3	94.230	-0.370	0.050	1.480
2020/01/31 03:41:18.4	94.230	-0.360	-0.020	1.480
2020/01/31 03:41:18.5	94.230	-0.350	-0.100	1.470
2020/01/31 03:41:18.6	94.240	-0.340	-0.170	1.460
2020/01/31 03:41:18.7	94.250	-0.330	-0.250	1.450
2020/01/31 03:41:18.8	94.270	-0.310	-0.320	1.430
2020/01/31 03:41:18.9	94.280	-0.290	-0.400	1.410
2020/01/31 03:41:19.0	94.300	-0.270	-0.470	1.390
2020/01/31 03:41:19.1	94.320	-0.250	-0.540	1.360
2020/01/31 03:41:19.2	94.340	-0.230	-0.610	1.340
2020/01/31 03:41:19.3	94.370	-0.210	-0.670	1.320
2020/01/31 03:41:19.4	94.390	-0.180	-0.720	1.300
2020/01/31 03:41:19.5	94.410	-0.160	-0.780	1.270
2020/01/31 03:41:19.6	94.430	-0.140	-0.820	1.250
2020/01/31 03:41:19.7	94.450	-0.120	-0.860	1.240
2020/01/31 03:41:19.8	94.470	-0.100	-0.890	1.220
2020/01/31 03:41:19.9	94.480	-0.080	-0.910	1.210
2020/01/31 03:41:20.0	94.500	-0.060	-0.920	1.200
2020/01/31 03:41:20.1	94.520	-0.040	-0.930	1.200
2020/01/31 03:41:20.2	94.530	-0.030	-0.920	1.190
2020/01/31 03:41:20.3	94.530	-0.020	-0.910	1.200
2020/01/31 03:41:20.4	94.540	-0.010	-0.890	1.200
2020/01/31 03:41:20.5	94.540	0.000	-0.860	1.210
2020/01/31 03:41:20.6	94.540	0.010	-0.820	1.220
2020/01/31 03:41:20.7	94.540	0.010	-0.780	1.240
2020/01/31 03:41:20.8	94.530	0.010	-0.720	1.250
2020/01/31 03:41:20.9	94.520	0.010	-0.660	1.270
2020/01/31 03:41:21.0	94.510	0.010	-0.600	1.290
2020/01/31 03:41:21.1	94.480	0.000	-0.520	1.310
2020/01/31 03:41:21.2	94.470	-0.010	-0.450	1.340
2020/01/31 03:41:21.3	94.450	-0.020	-0.370	1.360
2020/01/31 03:41:21.4	94.440	-0.030	-0.290	1.380
2020/01/31 03:41:21.5	94.430	-0.050	-0.210	1.400
2020/01/31 03:41:21.6	94.410	-0.060	-0.130	1.420
2020/01/31 03:41:21.7	94.400	-0.080	-0.050	1.440
2020/01/31 03:41:21.8	94.380	-0.100	0.030	1.460
2020/01/31 03:41:21.9	94.370	-0.120	0.110	1.470
2020/01/31 03:41:22.0	94.360	-0.150	0.180	1.490
2020/01/31 03:41:22.1	94.340	-0.170	0.250	1.500
2020/01/31 03:41:22.2	94.320	-0.190	0.310	1.500
2020/01/31 03:41:22.3	94.310	-0.220	0.370	1.510
2020/01/31 03:41:22.4	94.290	-0.240	0.430	1.510
2020/01/31 03:41:22.5	94.280	-0.270	0.480	1.510
2020/01/31 03:41:22.6	94.260	-0.290	0.520	1.510
2020/01/31 03:41:22.7	94.250	-0.310	0.550	1.500
2020/01/31 03:41:22.8	94.240	-0.330	0.580	1.480
2020/01/31 03:41:22.9	94.230	-0.350	0.600	1.470
2020/01/31 03:41:23.0	94.210	-0.370	0.610	1.450
2020/01/31 03:41:23.1	94.190	-0.390	0.620	1.420
2020/01/31 03:41:23.2	94.180	-0.400	0.620	1.400
2020/01/31 03:41:23.3	94.170	-0.410	0.610	1.370
2020/01/31 03:41:23.4	94.150	-0.420	0.590	1.340
2020/01/31 03:41:23.5	94.140	-0.420	0.570	1.310
2020/01/31 03:41:23.6	94.130	-0.420	0.530	1.270
2020/01/31 03:41:23.7	94.120	-0.420	0.490	1.230
2020/01/31 03:41:23.8	94.110	-0.420	0.450	1.190
2020/01/31 03:41:23.9	94.090	-0.410	0.400	1.140
2020/01/31 03:41:24.0	94.080	-0.400	0.340	1.100
2020/01/31 03:41:24.1	94.080	-0.390	0.280	1.050
2020/01/31 03:41:24.2	94.070	-0.370	0.210	1.000
2020/01/31 03:41:24.3	94.060	-0.350	0.140	0.950
2020/01/31 03:41:24.4	94.060	-0.330	0.070	0.900
2020/01/31 03:41:24.5	94.060	-0.310	-0.000	0.840
2020/01/31 03:41:24.6	94.050	-0.280	-0.080	0.790
2020/01/31 03:41:24.7	94.050	-0.250	-0.150	0.730
2020/01/31 03:41:24.8	94.060	-0.220	-0.230	0.680
2020/01/31 03:41:24.9	94.060	-0.180	-0.310	0.620
2020/01/31 03:41:25.0	94.060	-0.150	-0.380	0.560
2020/01/31 03:41:25.1	94.060	-0.110	-0.460	0.510
2020/01/31 03:41:25.2	94.070	-0.070	-0.540	0.450
2020/01/31 03:41:25.3	94.080	-0.030	-0.610	0.400
2020/01/31 03:41:25.4	94.100	0.010	-0.680	0.360
2020/01/31 03:41:25.5	94.110	0.050	-0.750	0.310
2020/01/31 03:41:25.6	94.130	0.090	-0.810	0.270
2020/01/31 03:41:25.7	94.140	0.140	-0.870	0.230
2020/01/31 03:41:25.8	94.160	0.180	-0.920	0.200
2020/01/31 03:41:25.9	94.170	0.220	-0.970	0.170
2020/01/31 03:41:26.0	94.190	0.260	-1.010	0.150
2020/01/31 03:41:26.1	94.220	0.300	-1.050	0.130
2020/01/31 03:41:26.2	94.230	0.340	-1.080	0.120
2020/01/31 03:41:26.3	94.240	0.370	-1.100	0.120
2020/01/31 03:41:26.4	94.250	0.410	-1.110	0.130
2020/01/31 03:41:26.5	94.260	0.440	-1.120	0.140
2020/01/31 03:41:26.6	94.270	0.470	-1.120	0.150
2020/01/31 03:41:26.7	94.270	0.490	-1.120	0.180
2020/01/31 03:41:26.8	94.270	0.520	-1.110	0.210
2020/01/31 03:41:26.9	94.270	0.540	-1.090	0.240
2020/01/31 03:41:27.0	94.270	0.560	-1.060	0.280
2020/01/31 03:41:27.1	94.290	0.570	-1.040	0.320
2020/01/31 03:41:27.2	94.280	0.580	-1.000	0.370
2020/01/31 03:41:27.3	94.270	0.590	-0.960	0.410
2020/01/31 03:41:27.4	94.260	0.590	-0.920	0.460
2020/01/31 03:41:27.5	94.240	0.590	-0.870	0.520
2020/01/31 03:41:27.6	94.230	0.590	-0.820	0.570
2020/01/31 03:41:27.7	94.200	0.580	-0.760	0.630
2020/01/31 03:41:27.8	94.180	0.570	-0.700	0.690
2020/01/31 03:41:27.9	94.160	0.550	-0.640	0.750
2020/01/31 03:41:28.0	94.130	0.540	-0.580	0.810
2020/01/31 03:41:28.1	94.100	0.510	-0.510	0.870
2020/01/31 03:41:28.2	94.070	0.490	-0.440	0.930
2020/01/31 03:41:28.3	94.030	0.460	-0.370	0.990
2020/01/31 03:41:28.4	93.990	0.430	-0.300	1.050
2020/01/31 03:41:28.5	93.950	0.400	-0.230	1.100
2020/01/31 03:41:28.6	93.910	0.360	-0.170	1.160
2020/01/31 03:41:28.7	93.870	0.320	-0.100	1.210
2020/01/31 03:41:28.8	93.830	0.280	-0.030	1.260
2020/01/31 03:41:28.9	93.790	0.240	0.030	1.310
2020/01/31 03:41:29.0	93.750	0.200	0.090	1.360
2020/01/31 03:41:29.1	93.710	0.160	0.150	1.400
2020/01/31 03:41:29.2	93.670	0.120	0.210	1.430
2020/01/31 03:41:29.3	93.630	0.070	0.260	1.470
2020/01/31 03:41:29.4	93.600	0.030	0.310	1.490
2020/01/31 03:41:29.5	93.560	-0.010	0.360	1.510
2020/01/31 03:41:29.6	93.530	-0.050	0.400	1.530
2020/01/31 03:41:29.7	93.510	-0.090	0.440	1.540
2020/01/31 03:41:29.8	93.480	-0.130	0.480	1.540
2020/01/31 03:41:29.9	93.460	-0.170	0.510	1.540
2020/01/31 03:41:30.0	93.440	-0.210	0.540	1.530
2020/01/31 03:41:30.1	93.430	-0.240	0.560	1.520
2020/01/31 03:41:30.2	93.430	-0.270	0.580	1.500
2020/01/31 03:41:30.3	93.420	-0.300	0.590	1.480
2020/01/31 03:41:30.4	93.420	-0.330	0.610	1.450
2020/01/31 03:41:30.5	93.420	-0.360	0.610	1.420
2020/01/31 03:41:30.6	93.420	-0.380	0.610	1.390
2020/01/31 03:41:30.7	93.430	-0.400	0.610	1.350
2020/01/31 03:41:30.8	93.440	-0.420	0.600	1.320
2020/01/31 03:41:30.9	93.450	-0.430	0.590	1.280
2020/01/31 03:41:31.0	93.460	-0.440	0.570	1.230
2020/01/31 03:41:31.1	93.470	-0.450	0.550	1.180
2020/01/31 03:41:31.2	93.490	-0.450	0.520	1.140
2020/01/31 03:41:31.3	93.510	-0.450	0.490	1.090
2020/01/31 03:41:31.4	93.530	-0.440	0.450	1.040
2020/01/31 03:41:31.5	93.550	-0.430	0.400	1.000
2020/01/31 03:41:31.6	93.570	-0.420	0.350	0.950
2020/01/31 03:41:31.7	93.590	-0.400	0.300	0.910
2020/01/31 03:41:31.8	93.620	-0.380	0.230	0.860
2020/01/31 03:41:31.9	93.640	-0.350	0.160	0.830
2020/01/31 03:41:32.0	93.660	-0.320	0.090	0.790
2020/01/31 03:41:32.1	93.670	-0.290	0.010	0.750
2020/01/31 03:41:32.2	93.690	-0.250	-0.070	0.720
2020/01/31 03:41:32.3	93.700	-0.210	-0.160	0.700
2020/01/31 03:41:32.4	93.720	-0.170	-0.250	0.680
2020/01/31 03:41:32.5	93.740	-0.120	-0.340	0.660
2020/01/31 03:41:32.6	93.750	-0.070	-0.430	0.650
2020/01/31 03:41:32.7	93.760	-0.030	-0.520	0.640
2020/01/31 03:41:32.8	93.770	0.020	-0.610	0.640
2020/01/31 03:41:32.9	93.780	0.070	-0.690	0.650
2020/01/31 03:41:33.0	93.790	0.120	-0.780	0.660
2020/01/31 03:41:33.1	93.800	0.170	-0.860	0.670
2020/01/31 03:41:33.2	93.800	0.220	-0.940	0.680
2020/01/31 03:41:33.3	93.810	0.260	-1.000	0.700
2020/01/31 03:41:33.4	93.820	0.300	-1.070	0.720
2020/01/31 03:41:33.5	93.820	0.340	-1.120	0.750
2020/01/31 03:41:33.6	93.830	0.380	-1.160	0.770
2020/01/31 03:41:33.7	93.830	0.410	-1.200	0.800
2020/01/31 03:41:33.8	93.830	0.440	-1.220	0.830
2020/01/31 03:41:33.9	93.830	0.460	-1.240	0.860
2020/01/31 03:41:34.0	93.830	0.480	-1.240	0.890
2020/01/31 03:41:34.1	93.840	0.490	-1.230	0.920
2020/01/31 03:41:34.2	93.840	0.490	-1.210	0.950
2020/01/31 03:41:34.3	93.830	0.490	-1.180	0.990
2020/01/31 03:41:34.4	93.830	0.490	-1.130	1.020
2020/01/31 03:41:34.5	93.820	0.480	-1.080	1.050
2020/01/31 03:41:34.6	93.820	0.460	-1.010	1.080
2020/01/31 03:41:34.7	93.810	0.440	-0.930	1.110
2020/01/31 03:41:34.8	93.810	0.410	-0.850	1.140
2020/01/31 03:41:34.9	93.800	0.380	-0.760	1.170
2020/01/31 03:41:35.0	93.790	0.340	-0.660	1.210
2020/01/31 03:41:35.1	93.790	0.300	-0.550	1.240
2020/01/31 03:41:35.2	93.780	0.260	-0.440	1.270
2020/01/31 03:41:35.3	93.760	0.210	-0.320	1.290
2020/01/31 03:41:35.4	93.750	0.160	-0.210	1.320
2020/01/31 03:41:35.5	93.740	0.100	-0.090	1.350
2020/01/31 03:41:35.6	93.730	0.050	0.030	1.370
2020/01/31 03:41:35.7	93.710	-0.010	0.140	1.400
2020/01/31 03:41:35.8	93.700	-0.070	0.250	1.420
2020/01/31 03:41:35.9	93.690	-0.130	0.360	1.440
2020/01/31 03:41:36.0	93.680	-0.190	0.460	1.460
2020/01/31 03:41:36.1	93.660	-0.240	0.550	1.470
2020/01/31 03:41:36.2	93.650	-0.300	0.640	1.480
2020/01/31 03:41:36.3	93.630	-0.350	0.720	1.490
2020/01/31 03:41:36.4	93.620	-0.400	0.780	1.500
2020/01/31 03:41:36.5	93.610	-0.450	0.840	1.500
2020/01/31 03:41:36.6	93.600	-0.490	0.880	1.500
2020/01/31 03:41:36.7	93.600	-0.530	0.910	1.490
2020/01/31 03:41:36.8	93.590	-0.570	0.930	1.480
2020/01/31 03:41:36.9	93.580	-0.600	0.930	1.470
2020/01/31 03:41:37.0	93.580	-0.620	0.920	1.450
2020/01/31 03:41:37.1	93.570	-0.640	0.900	1.430
2020/01/31 03:41:37.2	93.570	-0.650	0.870	1.410
2020/01/31 03:41:37.3	93.560	-0.660	0.820	1.380
2020/01/31 03:41:37.4	93.560	-0.660	0.760	1.350
2020/01/31 03:41:37.5	93.560	-0.650	0.690	1.310
2020/01/31 03:41:37.6	93.570	-0.630	0.600	1.280
2020/01/31 03:41:37.7	93.570	-0.610	0.510	1.240
2020/01/31 03:41:37.8	93.570	-0.590	0.400	1.210
2020/01/31 03:41:37.9	93.570	-0.560	0.290	1.170
2020/01/31 03:41:38.0	93.570	-0.520	0.170	1.130
2020/01/31 03:41:38.1	93.560	-0.480	0.040	1.100
2020/01/31 03:41:38.2	93.560	-0.430	-0.090	1.070
2020/01/31 03:41:38.3	93.560	-0.380	-0.230	1.040
2020/01/31 03:41:38.4	93.550	-0.320	-0.360	1.010
2020/01/31 03:41:38.5	93.540	-0.260	-0.490	0.990
2020/01/31 03:41:38.6	93.530	-0.200	-0.630	0.970
2020/01/31 03:41:38.7	93.520	-0.140	-0.750	0.950
2020/01/31 03:41:38.8	93.510	-0.080	-0.880	0.940
2020/01/31 03:41:38.9	93.490	-0.010	-0.990	0.930
2020/01/31 03:41:39.0	93.480	0.050	-1.100	0.930
2020/01/31 03:41:39.1	93.470	0.110	-1.200	0.920
2020/01/31 03:41:39.2	93.460	0.160	-1.290	0.920
2020/01/31 03:41:39.3	93.440	0.220	-1.360	0.930
2020/01/31 03:41:39.4	93.420	0.270	-1.430	0.930
2020/01/31 03:41:39.5	93.400	0.320	-1.470	0.940
2020/01/31 03:41:39.6	93.380	0.360	-1.510	0.940
2020/01/31 03:41:39.7	93.360	0.400	-1.530	0.950
2020/01/31 03:41:39.8	93.340	0.430	-1.530	0.950
2020/01/31 03:41:39.9	93.320	0.460	-1.530	0.960
2020/01/31 03:41:40.0	93.300	0.480	-1.500	0.960
2020/01/31 03:41:40.1	93.270	0.490	-1.470	0.970
2020/01/31 03:41:40.2	93.250	0.500	-1.410	0.970
2020/01/31 03:41:40.3	93.240	0.510	-1.350	0.970
2020/01/31 03:41:40.4	93.220	0.510	-1.280	0.970
2020/01/31 03:41:40.5	93.200	0.500	-1.190	0.970
2020/01/31 03:41:40.6	93.190	0.490	-1.090	0.970
2020/01/31 03:41:40.7	93.170	0.470	-0.990	0.970
2020/01/31 03:41:40.8	93.150	0.450	-0.880	0.960
2020/01/31 03:41:40.9	93.140	0.420	-0.760	0.960
2020/01/31 03:41:41.0	93.120	0.390	-0.640	0.960
2020/01/31 03:41:41.1	93.120	0.350	-0.510	0.950
2020/01/31 03:41:41.2	93.100	0.320	-0.390	0.950
2020/01/31 03:41:41.3	93.090	0.280	-0.270	0.940
2020/01/31 03:41:41.4	93.070	0.230	-0.140	0.940
2020/01/31 03:41:41.5	93.060	0.190	-0.020	0.930
2020/01/31 03:41:41.6	93.050	0.140	0.090	0.930
2020/01/31 03:41:41.7	93.030	0.100	0.200	0.920
2020/01/31 03:41:41.8	93.020	0.050	0.310	0.920
2020/01/31 03:41:41.9	93.010	0.010	0.410	0.920
2020/01/31 03:41:42.0	92.990	-0.030	0.500	0.910
2020/01/31 03:41:42.1	92.980	-0.080	0.580	0.910
2020/01/31 03:41:42.2	92.970	-0.120	0.650	0.910
2020/01/31 03:41:42.3	92.960	-0.160	0.720	0.900
2020/01/31 03:41:42.4	92.950	-0.200	0.780	0.900
2020/01/31 03:41:42.5	92.940	-0.230	0.820	0.890
2020/01/31 03:41:42.6	92.940	-0.270	0.860	0.890
2020/01/31 03:41:42.7	92.930	-0.300	0.890	0.880
2020/01/31 03:41:42.8	92.930	-0.320	0.910	0.870
2020/01/31 03:41:42.9	92.930	-0.350	0.920	0.860
2020/01/31 03:41:43.0	92.930	-0.370	0.920	0.840
2020/01/31 03:41:43.1	92.950	-0.380	0.920	0.820
2020/01/31 03:41:43.2	92.960	-0.400	0.900	0.810
2020/01/31 03:41:43.3	92.970	-0.410	0.870	0.790
2020/01/31 03:41:43.4	92.970	-0.410	0.840	0.770
2020/01/31 03:41:43.5	92.980	-0.420	0.800	0.750
2020/01/31 03:41:43.6	92.990	-0.410	0.750	0.730
2020/01/31 03:41:43.7	93.010	-0.410	0.690	0.710
2020/01/31 03:41:43.8	93.020	-0.400	0.630	0.690
2020/01/31 03:41:43.9	93.030	-0.390	0.560	0.670
2020/01/31 03:41:44.0	93.050	-0.370	0.490	0.650
2020/01/31 03:41:44.1	93.050	-0.350	0.410	0.620
2020/01/31 03:41:44.2	93.070	-0.330	0.330	0.600
2020/01/31 03:41:44.3	93.080	-0.310	0.250	0.590
2020/01/31 03:41:44.4	93.090	-0.280	0.160	0.570
2020/01/31 03:41:44.5	93.110	-0.250	0.070	0.560
2020/01/31 03:41:44.6	93.120	-0.220	-0.020	0.550
2020/01/31 03:41:44.7	93.130	-0.180	-0.100	0.540
2020/01/31 03:41:44.8	93.140	-0.150	-0.190	0.540
2020/01/31 03:41:44.9	93.150	-0.110	-0.280	0.540
2020/01/31 03:41:45.0	93.160	-0.070	-0.360	0.540
2020/01/31 03:41:45.1	93.170	-0.030	-0.440	0.540
2020/01/31 03:41:45.2	93.180	0.010	-0.520	0.550
2020/01/31 03:41:45.3	93.190	0.050	-0.590	0.560
2020/01/31 03:41:45.4	93.190	0.090	-0.660	0.580
2020/01/31 03:41:45.5	93.200	0.130	-0.720	0.590
2020/01/31 03:41:45.6	93.210	0.170	-0.780	0.610
2020/01/31 03:41:45.7	93.210	0.210	-0.830	0.630
2020/01/31 03:41:45.8	93.210	0.250	-0.880	0.660
2020/01/31 03:41:45.9	93.210	0.280	-0.920	0.680
2020/01/31 03:41:46.0	93.210	0.320	-0.950	0.710
2020/01/31 03:41:46.1	93.210	0.350	-0.980	0.740
2020/01/31 03:41:46.2	93.200	0.380	-1.000	0.770
2020/01/31 03:41:46.3	93.200	0.400	-1.010	0.810
2020/01/31 03:41:46.4	93.190	0.420	-1.020	0.840
2020/01/31 03:41:46.5	93.180	0.440	-1.020	0.870
2020/01/31 03:41:46.6	93.170	0.460	-1.010	0.900
2020/01/31 03:41:46.7	93.160	0.470	-1.000	0.940
2020/01/31 03:41:46.8	93.150	0.480	-0.990	0.970
2020/01/31 03:41:46.9	93.140	0.480	-0.960	1.000
2020/01/31 03:41:47.0	93.120	0.480	-0.940	1.030
2020/01/31 03:41:47.1	93.110	0.480	-0.900	1.070
2020/01/31 03:41:47.2	93.100	0.480	-0.870	1.100
2020/01/31 03:41:47.3	93.090	0.470	-0.830	1.130
2020/01/31 03:41:47.4	93.080	0.460	-0.790	1.160
2020/01/31 03:41:47.5	93.060	0.440	-0.740	1.190
2020/01/31 03:41:47.6	93.050	0.430	-0.700	1.210
2020/01/31 03:41:47.7	93.040	0.410	-0.650	1.240
2020/01/31 03:41:47.8	93.030	0.390	-0.600	1.260
2020/01/31 03:41:47.9	93.020	0.370	-0.550	1.280
2020/01/31 03:41:48.0	93.010	0.350	-0.500	1.300
2020/01/31 03:41:48.1	93.000	0.320	-0.450	1.320
2020/01/31 03:41:48.2	92.990	0.300	-0.400	1.340
2020/01/31 03:41:48.3	92.970	0.270	-0.350	1.350
2020/01/31 03:41:48.4	92.960	0.240	-0.300	1.360
2020/01/31 03:41:48.5	92.950	0.210	-0.250	1.370
2020/01/31 03:41:48.6	92.940	0.180	-0.200	1.370
2020/01/31 03:41:48.7	92.920	0.150	-0.150	1.370
2020/01/31 03:41:48.8	92.910	0.120	-0.100	1.370
2020/01/31 03:41:48.9	92.900	0.090	-0.060	1.370
2020/01/31 03:41:49.0	92.880	0.060	-0.010	1.360
2020/01/31 03:41:49.1	92.890	0.030	0.040	1.350
2020/01/31 03:41:49.2	92.870	-0.000	0.080	1.340
2020/01/31 03:41:49.3	92.860	-0.030	0.120	1.330
2020/01/31 03:41:49.4	92.850	-0.070	0.170	1.320
2020/01/31 03:41:49.5	92.830	-0.100	0.200	1.300
2020/01/31 03:41:49.6	92.820	-0.130	0.240	1.280
2020/01/31 03:41:49.7	92.810	-0.160	0.280	1.270
2020/01/31 03:41:49.8	92.800	-0.190	0.310	1.250
2020/01/31 03:41:49.9	92.780	-0.230	0.350	1.230
2020/01/31 03:41:50.0	92.770	-0.260	0.380	1.220
2020/01/31 03:41:50.1	92.770	-0.290	0.400	1.200
2020/01/31 03:41:50.2	92.760	-0.320	0.420	1.180
2020/01/31 03:41:50.3	92.750	-0.350	0.440	1.170
2020/01/31 03:41:50.4	92.740	-0.370	0.460	1.150
2020/01/31 03:41:50.5	92.730	-0.400	0.470	1.130
2020/01/31 03:41:50.6	92.720	-0.430	0.480	1.120
2020/01/31 03:41:50.7	92.710	-0.450	0.480	1.100
2020/01/31 03:41:50.8	92.710	-0.470	0.480	1.090
2020/01/31 03:41:50.9	92.700	-0.490	0.470	1.070
2020/01/31 03:41:51.0	92.700	-0.510	0.460	1.060
2020/01/31 03:41:51.1	92.680	-0.520	0.440	1.040
2020/01/31 03:41:51.2	92.680	-0.530	0.410	1.030
2020/01/31 03:41:51.3	92.680	-0.540	0.380	1.010
2020/01/31 03:41:51.4	92.680	-0.550	0.340	0.990
2020/01/31 03:41:51.5	92.690	-0.550	0.290	0.980
2020/01/31 03:41:51.6	92.690	-0.540	0.240	0.960
2020/01/31 03:41:51.7	92.700	-0.530	0.180	0.950
2020/01/31 03:41:51.8	92.700	-0.520	0.110	0.930
2020/01/31 03:41:51.9	92.710	-0.500	0.040	0.920
2020/01/31 03:41:52.0	92.720	-0.480	-0.030	0.900
2020/01/31 03:41:52.1	92.720	-0.460	-0.110	0.890
2020/01/31 03:41:52.2	92.730	-0.430	-0.190	0.870
2020/01/31 03:41:52.3	92.740	-0.400	-0.270	0.860
2020/01/31 03:41:52.4	92.750	-0.360	-0.350	0.850
2020/01/31 03:41:52.5	92.760	-0.320	-0.430	0.840
2020/01/31 03:41:52.6	92.760	-0.280	-0.510	0.830
2020/01/31 03:41:52.7	92.770	-0.240	-0.590	0.830
2020/01/31 03:41:52.8	92.780	-0.200	-0.670	0.820
2020/01/31 03:41:52.9	92.780	-0.150	-0.750	0.820
2020/01/31 03:41:53.0	92.790	-0.100	-0.820	0.820
2020/01/31 03:41:53.1	92.790	-0.060	-0.890	0.820
2020/01/31 03:41:53.2	92.800	-0.010	-0.950	0.820
2020/01/31 03:41:53.3	92.800	0.030	-1.000	0.830
2020/01/31 03:41:53.4	92.800	0.080	-1.050	0.830
2020/01/31 03:41:53.5	92.800	0.120	-1.090	0.840
2020/01/31 03:41:53.6	92.790	0.160	-1.120	0.850
2020/01/31 03:41:53.7	92.790	0.190	-1.150	0.860
2020/01/31 03:41:53.8	92.780	0.230	-1.160	0.870
2020/01/31 03:41:53.9	92.780	0.260	-1.170	0.880
2020/01/31 03:41:54.0	92.770	0.280	-1.170	0.890
2020/01/31 03:41:54.1	92.750	0.310	-1.160	0.900
2020/01/31 03:41:54.2	92.740	0.320	-1.140	0.910
2020/01/31 03:41:54.3	92.730	0.340	-1.110	0.920
2020/01/31 03:41:54.4	92.720	0.340	-1.070	0.940
2020/01/31 03:41:54.5	92.710	0.350	-1.030	0.950
2020/01/31 03:41:54.6	92.700	0.350	-0.980	0.960
2020/01/31 03:41:54.7	92.690	0.340	-0.920	0.970
2020/01/31 03:41:54.8	92.680	0.330	-0.850	0.990
2020/01/31 03:41:54.9	92.670	0.320	-0.780	1.000
2020/01/31 03:41:55.0	92.660	0.300	-0.700	1.020
2020/01/31 03:41:55.1	92.650	0.280	-0.620	1.040
2020/01/31 03:41:55.2	92.640	0.250	-0.530	1.060
2020/01/31 03:41:55.3	92.620	0.230	-0.440	1.070
2020/01/31 03:41:55.4	92.610	0.200	-0.350	1.090
2020/01/31 03:41:55.5	92.600	0.160	-0.250	1.120
2020/01/31 03:41:55.6	92.590	0.130	-0.160	1.140
2020/01/31 03:41:55.7	92.580	0.090	-0.060	1.160
2020/01/31 03:41:55.8	92.570	0.050	0.030	1.180
2020/01/31 03:41:55.9	92.560	0.020	0.120	1.200
2020/01/31 03:41:56.0	92.550	-0.020	0.210	1.220
2020/01/31 03:41:56.1	92.540	-0.060	0.290	1.240
2020/01/31 03:41:56.2	92.530	-0.100	0.370	1.260
2020/01/31 03:41:56.3	92.520	-0.130	0.440	1.280
2020/01/31 03:41:56.4	92.510	-0.160	0.510	1.290
2020/01/31 03:41:56.5	92.500	-0.190	0.570	1.310
2020/01/31 03:41:56.6	92.500	-0.220	0.620	1.320
2020/01/31 03:41:56.7	92.490	-0.250	0.660	1.330
2020/01/31 03:41:56.8	92.480	-0.270	0.690	1.340
2020/01/31 03:41:56.9	92.480	-0.290	0.710	1.350
2020/01/31 03:41:57.0	92.470	-0.300	0.720	1.350
2020/01/31 03:41:57.1	92.480	-0.310	0.720	1.350
2020/01/31 03:41:57.2	92.480	-0.310	0.710	1.350
2020/01/31 03:41:57.3	92.480	-0.310	0.690	1.350
2020/01/31 03:41:57.4	92.480	-0.310	0.650	1.340
2020/01/31 03:41:57.5	92.480	-0.300	0.610	1.330
2020/01/31 03:41:57.6	92.480	-0.280	0.560	1.320
2020/01/31 03:41:57.7	92.490	-0.270	0.500	1.300
2020/01/31 03:41:57.8	92.490	-0.240	0.430	1.280
2020/01/31 03:41:57.9	92.500	-0.220	0.360	1.260
2020/01/31 03:41:58.0	92.510	-0.190	0.280	1.240
2020/01/31 03:41:58.1	92.510	-0.150	0.200	1.210
2020/01/31 03:41:58.2	92.520	-0.110	0.110	1.190
2020/01/31 03:41:58.3	92.530	-0.080	0.020	1.160
2020/01/31 03:41:58.4	92.540	-0.030	-0.060	1.130
2020/01/31 03:41:58.5	92.550	0.010	-0.150	1.110
2020/01/31 03:41:58.6	92.560	0.050	-0.240	1.090
2020/01/31 03:41:58.7	92.560	0.100	-0.320	1.060
2020/01/31 03:41:58.8	92.570	0.140	-0.400	1.040
2020/01/31 03:41:58.9	92.580	0.180	-0.470	1.020
2020/01/31 03:41:59.0	92.580	0.220	-0.540	1.010
2020/01/31 03:41:59.1	92.590	0.260	-0.610	0.990
2020/01/31 03:41:59.2	92.600	0.300	-0.660	0.980
2020/01/31 03:41:59.3	92.600	0.330	-0.710	0.970
2020/01/31 03:41:59.4	92.610	0.360	-0.750	0.960
2020/01/31 03:41:59.5	92.610	0.380	-0.780	0.960
2020/01/31 03:41:59.6	92.620	0.400	-0.800	0.950
2020/01/31 03:41:59.7	92.630	0.420	-0.810	0.950
2020/01/31 03:41:59.8	92.630	0.430	-0.810	0.950
2020/01/31 03:41:59.9	92.640	0.440	-0.800	0.950
2020/01/31 03:42:00.0	92.640	0.440	-0.790	0.960
2020/01/31 03:42:00.1	92.630	0.430	-0.760	0.970
2020/01/31 03:42:00.2	92.630	0.420	-0.720	0.970
2020/01/31 03:42:00.3	92.630	0.410	-0.680	0.980
2020/01/31 03:42:00.4	92.630	0.390	-0.640	0.990
2020/01/31 03:42:00.5	92.630	0.370	-0.580	1.000
2020/01/31 03:42:00.6	92.630	0.340	-0.520	1.010
2020/01/31 03:42:00.7	92.630	0.310	-0.460	1.020
2020/01/31 03:42:00.8	92.620	0.280	-0.400	1.030
2020/01/31 03:42:00.9	92.620	0.240	-0.330	1.030
2020/01/31 03:42:01.0	92.610	0.200	-0.260	1.040
2020/01/31 03:42:01.1	92.600	0.160	-0.190	1.050
2020/01/31 03:42:01.2	92.590	0.110	-0.130	1.060
2020/01/31 03:42:01.3	92.580	0.070	-0.070	1.070
2020/01/31 03:42:01.4	92.560	0.030	-0.010	1.080
2020/01/31 03:42:01.5	92.550	-0.020	0.050	1.090
2020/01/31 03:42:01.6	92.530	-0.060	0.100	1.100
2020/01/31 03:42:01.7	92.520	-0.100	0.140	1.110
2020/01/31 03:42:01.8	92.500	-0.130	0.170	1.120
2020/01/31 03:42:01.9	92.480	-0.170	0.190	1.130
2020/01/31 03:42:02.0	92.460	-0.190	0.210	1.140
2020/01/31 03:42:02.1	92.450	-0.220	0.220	1.150
2020/01/31 03:42:02.2	92.430	-0.240	0.210	1.160
2020/01/31 03:42:02.3	92.410	-0.250	0.200	1.170
2020/01/31 03:42:02.4	92.400	-0.260	0.170	1.180
2020/01/31 03:42:02.5	92.380	-0.260	0.140	1.180
2020/01/31 03:42:02.6	92.360	-0.260	0.100	1.190
2020/01/31 03:42:02.7	92.350	-0.260	0.050	1.190
2020/01/31 03:42:02.8	92.340	-0.240	-0.010	1.190
2020/01/31 03:42:02.9	92.330	-0.230	-0.070	1.190
2020/01/31 03:42:03.0	92.320	-0.200	-0.140	1.190
2020/01/31 03:42:03.1	92.320	-0.180	-0.210	1.190
2020/01/31 03:42:03.2	92.310	-0.150	-0.290	1.180
2020/01/31 03:42:03.3	92.310	-0.120	-0.360	1.180
2020/01/31 03:42:03.4	92.310	-0.090	-0.440	1.170
2020/01/31 03:42:03.5	92.310	-0.050	-0.510	1.170
2020/01/31 03:42:03.6	92.310	-0.020	-0.580	1.160
2020/01/31 03:42:03.7	92.320	0.020	-0.640	1.150
2020/01/31 03:42:03.8	92.320	0.050	-0.700	1.140
2020/01/31 03:42:03.9	92.330	0.090	-0.750	1.140
2020/01/31 03:42:04.0	92.340	0.120	-0.790	1.140
2020/01/31 03:42:04.1	92.340	0.150	-0.830	1.130
2020/01/31 03:42:04.2	92.350	0.170	-0.850	1.130
2020/01/31 03:42:04.3	92.350	0.190	-0.860	1.130
2020/01/31 03:42:04.4	92.360	0.210	-0.870	1.130
2020/01/31 03:42:04.5	92.370	0.220	-0.860	1.130
2020/01/31 03:42:04.6	92.370	0.230	-0.840	1.130
2020/01/31 03:42:04.7	92.380	0.240	-0.820	1.140
2020/01/31 03:42:04.8	92.380	0.240	-0.780	1.140
2020/01/31 03:42:04.9	92.390	0.230	-0.730	1.150
2020/01/31 03:42:05.0	92.390	0.220	-0.670	1.160
2020/01/31 03:42:05.1	92.380	0.210	-0.610	1.160
2020/01/31 03:42:05.2	92.380	0.190	-0.540	1.170
2020/01/31 03:42:05.3	92.380	0.170	-0.460	1.170
2020/01/31 03:42:05.4	92.380	0.150	-0.380	1.180
2020/01/31 03:42:05.5	92.370	0.120	-0.290	1.180
2020/01/31 03:42:05.6	92.370	0.090	-0.200	1.190
2020/01/31 03:42:05.7	92.370	0.050	-0.110	1.190
2020/01/31 03:42:05.8	92.360	0.020	-0.020	1.190
2020/01/31 03:42:05.9	92.350	-0.020	0.070	1.190
2020/01/31 03:42:06.0	92.350	-0.060	0.160	1.200
2020/01/31 03:42:06.1	92.340	-0.100	0.250	1.200
2020/01/31 03:42:06.2	92.340	-0.130	0.330	1.200
2020/01/31 03:42:06.3	92.330	-0.170	0.400	1.190
2020/01/31 03:42:06.4	92.320	-0.200	0.470	1.190
2020/01/31 03:42:06.5	92.310	-0.240	0.530	1.190
2020/01/31 03:42:06.6	92.310	-0.270	0.580	1.180
2020/01/31 03:42:06.7	92.300	-0.290	0.610	1.170
2020/01/31 03:42:06.8	92.300	-0.320	0.640	1.160
2020/01/31 03:42:06.9	92.300	-0.330	0.650	1.150
2020/01/31 03:42:07.0	92.290	-0.350	0.660	1.140
2020/01/31 03:42:07.1	92.290	-0.360	0.650	1.120
2020/01/31 03:42:07.2	92.290	-0.360	0.630	1.110
2020/01/31 03:42:07.3	92.290	-0.360	0.600	1.100
2020/01/31 03:42:07.4	92.290	-0.350	0.550	1.080
2020/01/31 03:42:07.5	92.300	-0.340	0.490	1.070
2020/01/31 03:42:07.6	92.300	-0.330	0.420	1.050
2020/01/31 03:42:07.7	92.310	-0.310	0.340	1.040
2020/01/31 03:42:07.8	92.310	-0.280	0.250	1.020
2020/01/31 03:42:07.9	92.320	-0.250	0.160	1.000
2020/01/31 03:42:08.0	92.330	-0.220	0.060	0.990
2020/01/31 03:42:08.1	92.340	-0.180	-0.060	0.970
2020/01/31 03:42:08.2	92.350	-0.140	-0.170	0.960
2020/01/31 03:42:08.3	92.360	-0.100	-0.280	0.940
2020/01/31 03:42:08.4	92.370	-0.060	-0.390	0.930
2020/01/31 03:42:08.5	92.380	-0.020	-0.500	0.920
2020/01/31 03:42:08.6	92.390	0.020	-0.600	0.900
2020/01/31 03:42:08.7	92.400	0.060	-0.690	0.890
2020/01/31 03:42:08.8	92.410	0.100	-0.780	0.880
2020/01/31 03:42:08.9	92.420	0.130	-0.860	0.870
2020/01/31 03:42:09.0	92.430	0.160	-0.920	0.860
2020/01/31 03:42:09.1	92.440	0.190	-0.980	0.850
2020/01/31 03:42:09.2	92.450	0.210	-1.020	0.840
2020/01/31 03:42:09.3	92.460	0.230	-1.040	0.830
2020/01/31 03:42:09.4	92.470	0.240	-1.050	0.820
2020/01/31 03:42:09.5	92.480	0.250	-1.050	0.810
2020/01/31 03:42:09.6	92.490	0.260	-1.030	0.800
2020/01/31 03:42:09.7	92.500	0.250	-1.000	0.790
2020/01/31 03:42:09.8	92.500	0.250	-0.960	0.780
2020/01/31 03:42:09.9	92.510	0.230	-0.900	0.780
2020/01/31 03:42:10.0	92.520	0.220	-0.830	0.770
2020/01/31 03:42:10.1	92.530	0.190	-0.740	0.760
2020/01/31 03:42:10.2	92.540	0.170	-0.650	0.760
2020/01/31 03:42:10.3	92.540	0.140	-0.550	0.760
2020/01/31 03:42:10.4	92.540	0.100	-0.440	0.760
2020/01/31 03:42:10.5	92.550	0.060	-0.330	0.760
2020/01/31 03:42:10.6	92.550	0.020	-0.220	0.770
2020/01/31 03:42:10.7	92.550	-0.020	-0.100	0.770
2020/01/31 03:42:10.8	92.550	-0.060	0.010	0.780
2020/01/31 03:42:10.9	92.550	-0.110	0.120	0.790
2020/01/31 03:42:11.0	92.550	-0.150	0.230	0.790
2020/01/31 03:42:11.1	92.550	-0.190	0.330	0.810
2020/01/31 03:42:11.2	92.550	-0.230	0.420	0.820
2020/01/31 03:42:11.3	92.550	-0.270	0.500	0.830
2020/01/31 03:42:11.4	92.550	-0.300	0.570	0.840
2020/01/31 03:42:11.5	92.550	-0.330	0.630	0.860
2020/01/31 03:42:11.6	92.550	-0.360	0.670	0.870
2020/01/31 03:42:11.7	92.550	-0.380	0.690	0.880
2020/01/31 03:42:11.8	92.550	-0.400	0.710	0.890
2020/01/31 03:42:11.9	92.550	-0.410	0.700	0.910
2020/01/31 03:42:12.0	92.550	-0.410	0.680	0.920
2020/01/31 03:42:12.1	92.550	-0.410	0.650	0.930
2020/01/31 03:42:12.2	92.550	-0.400	0.610	0.950
2020/01/31 03:42:12.3	92.550	-0.390	0.540	0.960
2020/01/31 03:42:12.4	92.550	-0.370	0.470	0.970
2020/01/31 03:42:12.5	92.550	-0.350	0.390	0.980
2020/01/31 03:42:12.6	92.550	-0.320	0.290	1.000
2020/01/31 03:42:12.7	92.550	-0.290	0.190	1.010
2020/01/31 03:42:12.8	92.560	-0.250	0.080	1.020
2020/01/31 03:42:12.9	92.560	-0.220	-0.030	1.030
2020/01/31 03:42:13.0	92.560	-0.180	-0.140	1.040
2020/01/31 03:42:13.1	92.560	-0.140	-0.260	1.040
2020/01/31 03:42:13.2	92.560	-0.090	-0.380	1.050
2020/01/31 03:42:13.3	92.560	-0.050	-0.490	1.060
2020/01/31 03:42:13.4	92.560	-0.010	-0.590	1.060
2020/01/31 03:42:13.5	92.560	0.030	-0.690	1.070
2020/01/31 03:42:13.6	92.560	0.060	-0.780	1.080
2020/01/31 03:42:13.7	92.560	0.100	-0.870	1.080
2020/01/31 03:42:13.8	92.560	0.130	-0.940	1.080
2020/01/31 03:42:13.9	92.550	0.150	-1.000	1.090
2020/01/31 03:42:14.0	92.550	0.180	-1.040	1.090
2020/01/31 03:42:14.1	92.540	0.200	-1.090	1.080
2020/01/31 03:42:14.2	92.530	0.210	-1.110	1.080
2020/01/31 03:42:14.3	92.520	0.220	-1.120	1.080
2020/01/31 03:42:14.4	92.520	0.220	-1.110	1.080
2020/01/31 03:42:14.5	92.510	0.220	-1.100	1.080
2020/01/31 03:42:14.6	92.500	0.220	-1.070	1.080
2020/01/31 03:42:14.7	92.490	0.210	-1.020	1.070
2020/01/31 03:42:14.8	92.480	0.200	-0.970	1.070
2020/01/31 03:42:14.9	92.470	0.180	-0.900	1.070
2020/01/31 03:42:15.0	92.460	0.160	-0.830	1.070
2020/01/31 03:42:15.1	92.450	0.140	-0.730	1.060
2020/01/31 03:42:15.2	92.440	0.110	-0.640	1.060
2020/01/31 03:42:15.3	92.430	0.080	-0.540	1.060
2020/01/31 03:42:15.4	92.420	0.050	-0.440	1.060
2020/01/31 03:42:15.5	92.410	0.010	-0.330	1.060
2020/01/31 03:42:15.6	92.400	-0.020	-0.230	1.060
2020/01/31 03:42:15.7	92.390	-0.050	-0.120	1.050
2020/01/31 03:42:15.8	92.380	-0.080	-0.020	1.050
2020/01/31 03:42:15.9	92.370	-0.120	0.080	1.050
2020/01/31 03:42:16.0	92.370	-0.150	0.180	1.040
2020/01/31 03:42:16.1	92.360	-0.170	0.260	1.030
2020/01/31 03:42:16.2	92.360	-0.200	0.340	1.020
2020/01/31 03:42:16.3	92.350	-0.220	0.410	1.010
2020/01/31 03:42:16.4	92.350	-0.230	0.470	0.990
2020/01/31 03:42:16.5	92.350	-0.240	0.510	0.970
2020/01/31 03:42:16.6	92.350	-0.250	0.540	0.950
2020/01/31 03:42:16.7	92.360	-0.250	0.560	0.920
2020/01/31 03:42:16.8	92.360	-0.240	0.560	0.890
2020/01/31 03:42:16.9	92.360	-0.230	0.550	0.860
2020/01/31 03:42:17.0	92.370	-0.210	0.530	0.830
2020/01/31 03:42:17.1	92.380	-0.190	0.490	0.790
2020/01/31 03:42:17.2	92.390	-0.160	0.440	0.750
2020/01/31 03:42:17.3	92.390	-0.130	0.370	0.710
2020/01/31 03:42:17.4	92.400	-0.090	0.300	0.680
2020/01/31 03:42:17.5	92.410	-0.040	0.210	0.640
2020/01/31 03:42:17.6	92.420	0.010	0.110	0.600
2020/01/31 03:42:17.7	92.430	0.060	0.010	0.560
2020/01/31 03:42:17.8	92.440	0.110	-0.100	0.520
2020/01/31 03:42:17.9	92.460	0.170	-0.210	0.490
2020/01/31 03:42:18.0	92.470	0.230	-0.320	0.460
2020/01/31 03:42:18.1	92.490	0.290	-0.440	0.420
2020/01/31 03:42:18.2	92.510	0.350	-0.550	0.390
2020/01/31 03:42:18.3	92.520	0.410	-0.660	0.370
2020/01/31 03:42:18.4	92.530	0.470	-0.760	0.350
2020/01/31 03:42:18.5	92.540	0.530	-0.860	0.330
2020/01/31 03:42:18.6	92.560	0.580	-0.950	0.310
2020/01/31 03:42:18.7	92.570	0.630	-1.020	0.300
2020/01/31 03:42:18.8	92.580	0.680	-1.090	0.290
2020/01/31 03:42:18.9	92.590	0.710	-1.140	0.280
2020/01/31 03:42:19.0	92.600	0.750	-1.180	0.280
2020/01/31 03:42:19.1	92.600	0.770	-1.210	0.280
2020/01/31 03:42:19.2	92.610	0.790	-1.220	0.290
2020/01/31 03:42:19.3	92.620	0.810	-1.210	0.290
2020/01/31 03:42:19.4	92.620	0.810	-1.190	0.300
2020/01/31 03:42:19.5	92.630	0.810	-1.150	0.310
2020/01/31 03:42:19.6	92.630	0.800	-1.100	0.320
2020/01/31 03:42:19.7	92.640	0.780	-1.030	0.340
2020/01/31 03:42:19.8	92.650	0.750	-0.950	0.350
2020/01/31 03:42:19.9	92.650	0.720	-0.860	0.360
2020/01/31 03:42:20.0	92.650	0.680	-0.750	0.380
2020/01/31 03:42:20.1	92.660	0.630	-0.630	0.390
2020/01/31 03:42:20.2	92.660	0.570	-0.510	0.410
2020/01/31 03:42:20.3	92.660	0.510	-0.380	0.420
2020/01/31 03:42:20.4	92.660	0.450	-0.240	0.440
2020/01/31 03:42:20.5	92.660	0.380	-0.100	0.460
2020/01/31 03:42:20.6	92.660	0.300	0.040	0.470
2020/01/31 03:42:20.7	92.660	0.230	0.180	0.490
2020/01/31 03:42:20.8	92.660	0.150	0.320	0.510
2020/01/31 03:42:20.9	92.660	0.070	0.460	0.530
2020/01/31 03:42:21.0	92.660	-0.010	0.600	0.560
2020/01/31 03:42:21.1	92.670	-0.090	0.730	0.580
2020/01/31 03:42:21.2	92.670	-0.170	0.850	0.600
2020/01/31 03:42:21.3	92.670	-0.250	0.960	0.630
2020/01/31 03:42:21.4	92.680	-0.320	1.060	0.650
2020/01/31 03:42:21.5	92.680	-0.390	1.140	0.680
2020/01/31 03:42:21.6	92.680	-0.460	1.220	0.710
2020/01/31 03:42:21.7	92.690	-0.520	1.280	0.730
2020/01/31 03:42:21.8	92.690	-0.570	1.320	0.760
2020/01/31 03:42:21.9	92.700	-0.620	1.340	0.790
2020/01/31 03:42:22.0	92.710	-0.660	1.350	0.810
2020/01/31 03:42:22.1	92.700	-0.690	1.340	0.840
2020/01/31 03:42:22.2	92.710	-0.710	1.310	0.860
2020/01/31 03:42:22.3	92.730	-0.730	1.270	0.890
2020/01/31 03:42:22.4	92.740	-0.740	1.210	0.910
2020/01/31 03:42:22.5	92.750	-0.740	1.130	0.930
2020/01/31 03:42:22.6	92.760	-0.730	1.040	0.950
2020/01/31 03:42:22.7	92.780	-0.720	0.940	0.970
2020/01/31 03:42:22.8	92.790	-0.700	0.820	0.990
2020/01/31 03:42:22.9	92.800	-0.670	0.690	1.000
2020/01/31 03:42:23.0	92.820	-0.630	0.560	1.020
2020/01/31 03:42:23.1	92.830	-0.600	0.420	1.030
2020/01/31 03:42:23.2	92.840	-0.550	0.260	1.040
2020/01/31 03:42:23.3	92.850	-0.500	0.110	1.050
2020/01/31 03:42:23.4	92.860	-0.450	-0.050	1.060
2020/01/31 03:42:23.5	92.860	-0.390	-0.210	1.070
2020/01/31 03:42:23.6	92.860	-0.330	-0.370	1.090
2020/01/31 03:42:23.7	92.860	-0.270	-0.520	1.100
2020/01/31 03:42:23.8	92.850	-0.210	-0.680	1.110
2020/01/31 03:42:23.9	92.850	-0.150	-0.820	1.130
2020/01/31 03:42:24.0	92.840	-0.090	-0.960	1.140
2020/01/31 03:42:24.1	92.830	-0.030	-1.110	1.150
2020/01/31 03:42:24.2	92.820	0.030	-1.230	1.170
2020/01/31 03:42:24.3	92.800	0.090	-1.340	1.180
2020/01/31 03:42:24.4	92.780	0.140	-1.440	1.200
2020/01/31 03:42:24.5	92.770	0.190	-1.520	1.210
2020/01/31 03:42:24.6	92.760	0.230	-1.590	1.230
2020/01/31 03:42:24.7	92.740	0.270	-1.640	1.240
2020/01/31 03:42:24.8	92.730	0.300	-1.680	1.260
2020/01/31 03:42:24.9	92.720	0.320	-1.700	1.280
2020/01/31 03:42:25.0	92.720	0.340	-1.710	1.300
2020/01/31 03:42:25.1	92.710	0.350	-1.690	1.310
2020/01/31 03:42:25.2	92.710	0.360	-1.670	1.330
2020/01/31 03:42:25.3	92.700	0.350	-1.630	1.350
2020/01/31 03:42:25.4	92.700	0.340	-1.580	1.360
2020/01/31 03:42:25.5	92.700	0.330	-1.510	1.380
2020/01/31 03:42:25.6	92.700	0.300	-1.430	1.390
2020/01/31 03:42:25.7	92.700	0.280	-1.330	1.410
2020/01/31 03:42:25.8	92.710	0.240	-1.230	1.420
2020/01/31 03:42:25.9	92.720	0.200	-1.110	1.430
2020/01/31 03:42:26.0	92.730	0.150	-0.990	1.430
2020/01/31 03:42:26.1	92.740	0.100	-0.860	1.440
2020/01/31 03:42:26.2	92.760	0.050	-0.720	1.440
2020/01/31 03:42:26.3	92.770	-0.010	-0.570	1.440
2020/01/31 03:42:26.4	92.790	-0.080	-0.430	1.430
2020/01/31 03:42:26.5	92.810	-0.140	-0.280	1.420
2020/01/31 03:42:26.6	92.830	-0.210	-0.130	1.400
2020/01/31 03:42:26.7	92.860	-0.270	0.020	1.380
2020/01/31 03:42:26.8	92.880	-0.340	0.170	1.360
2020/01/31 03:42:26.9	92.910	-0.410	0.310	1.330
2020/01/31 03:42:27.0	92.930	-0.470	0.450	1.300
2020/01/31 03:42:27.1	92.960	-0.530	0.580	1.270
2020/01/31 03:42:27.2	92.990	-0.590	0.700	1.230
2020/01/31 03:42:27.3	93.020	-0.650	0.810	1.190
2020/01/31 03:42:27.4	93.040	-0.700	0.920	1.150
2020/01/31 03:42:27.5	93.070	-0.740	1.000	1.110
2020/01/31 03:42:27.6	93.090	-0.780	1.080	1.070
2020/01/31 03:42:27.7	93.120	-0.810	1.140	1.020
2020/01/31 03:42:27.8	93.140	-0.840	1.190	0.980
2020/01/31 03:42:27.9	93.160	-0.860	1.230	0.940
2020/01/31 03:42:28.0	93.180	-0.870	1.250	0.890
2020/01/31 03:42:28.1	93.200	-0.880	1.250	0.860
2020/01/31 03:42:28.2	93.220	-0.870	1.240	0.820
2020/01/31 03:42:28.3	93.230	-0.860	1.220	0.780
2020/01/31 03:42:28.4	93.240	-0.850	1.180	0.750
2020/01/31 03:42:28.5	93.250	-0.820	1.120	0.720
2020/01/31 03:42:28.6	93.260	-0.790	1.060	0.690
2020/01/31 03:42:28.7	93.270	-0.750	0.980	0.660
2020/01/31 03:42:28.8	93.270	-0.700	0.890	0.640
2020/01/31 03:42:28.9	93.270	-0.640	0.790	0.620
2020/01/31 03:42:29.0	93.270	-0.590	0.670	0.600
2020/01/31 03:42:29.1	93.270	-0.520	0.550	0.590
2020/01/31 03:42:29.2	93.270	-0.450	0.430	0.570
2020/01/31 03:42:29.3	93.270	-0.380	0.300	0.560
2020/01/31 03:42:29.4	93.260	-0.300	0.160	0.560
2020/01/31 03:42:29.5	93.260	-0.230	0.030	0.550
2020/01/31 03:42:29.6	93.250	-0.140	-0.110	0.540
2020/01/31 03:42:29.7	93.250	-0.060	-0.250	0.540
2020/01/31 03:42:29.8	93.240	0.020	-0.390	0.530
2020/01/31 03:42:29.9	93.240	0.100	-0.520	0.530
2020/01/31 03:42:30.0	93.230	0.180	-0.650	0.530
2020/01/31 03:42:30.1	93.230	0.260	-0.780	0.520
2020/01/31 03:42:30.2	93.220	0.340	-0.900	0.520
2020/01/31 03:42:30.3	93.220	0.420	-1.020	0.520
2020/01/31 03:42:30.4	93.220	0.490	-1.130	0.520
2020/01/31 03:42:30.5	93.210	0.560	-1.230	0.510
2020/01/31 03:42:30.6	93.210	0.620	-1.320	0.510
2020/01/31 03:42:30.7	93.210	0.680	-1.400	0.510
2020/01/31 03:42:30.8	93.210	0.730	-1.470	0.510
2020/01/31 03:42:30.9	93.210	0.780	-1.530	0.510
2020/01/31 03:42:31.0	93.210	0.830	-1.580	0.510
2020/01/31 03:42:31.1	93.220	0.870	-1.620	0.510
2020/01/31 03:42:31.2	93.220	0.900	-1.650	0.510
2020/01/31 03:42:31.3	93.230	0.930	-1.660	0.510
2020/01/31 03:42:31.4	93.240	0.950	-1.670	0.510
2020/01/31 03:42:31.5	93.250	0.960	-1.660	0.510
2020/01/31 03:42:31.6	93.250	0.970	-1.640	0.520
2020/01/31 03:42:31.7	93.260	0.970	-1.610	0.520
2020/01/31 03:42:31.8	93.270	0.970	-1.570	0.530
2020/01/31 03:42:31.9	93.280	0.960	-1.520	0.530
2020/01/31 03:42:32.0	93.290	0.940	-1.450	0.540
2020/01/31 03:42:32.1	93.290	0.920	-1.380	0.550
2020/01/31 03:42:32.2	93.300	0.890	-1.300	0.570
2020/01/31 03:42:32.3	93.300	0.860	-1.210	0.580
2020/01/31 03:42:32.4	93.310	0.830	-1.110	0.590
2020/01/31 03:42:32.5	93.320	0.790	-1.010	0.600
2020/01/31 03:42:32.6	93.320	0.750	-0.890	0.610
2020/01/31 03:42:32.7	93.320	0.700	-0.780	0.620
2020/01/31 03:42:32.8	93.330	0.660	-0.650	0.640
2020/01/31 03:42:32.9	93.330	0.610	-0.530	0.650
2020/01/31 03:42:33.0	93.330	0.550	-0.400	0.650
2020/01/31 03:42:33.1	93.320	0.500	-0.270	0.660
2020/01/31 03:42:33.2	93.320	0.450	-0.150	0.670
2020/01/31 03:42:33.3	93.320	0.390	-0.020	0.680
2020/01/31 03:42:33.4	93.320	0.340	0.110	0.680
2020/01/31 03:42:33.5	93.320	0.280	0.230	0.680
2020/01/31 03:42:33.6	93.320	0.230	0.350	0.690
2020/01/31 03:42:33.7	93.320	0.180	0.460	0.690
2020/01/31 03:42:33.8	93.320	0.130	0.560	0.690
2020/01/31 03:42:33.9	93.310	0.080	0.660	0.690
2020/01/31 03:42:34.0	93.310	0.030	0.750	0.690
2020/01/31 03:42:34.1	93.310	-0.010	0.830	0.690
2020/01/31 03:42:34.2	93.310	-0.050	0.900	0.700
2020/01/31 03:42:34.3	93.310	-0.090	0.960	0.700
2020/01/31 03:42:34.4	93.300	-0.120	1.010	0.710
2020/01/31 03:42:34.5	93.300	-0.150	1.040	0.720
2020/01/31 03:42:34.6	93.300	-0.180	1.070	0.730
2020/01/31 03:42:34.7	93.300	-0.200	1.080	0.740
2020/01/31 03:42:34.8	93.290	-0.230	1.090	0.750
2020/01/31 03:42:34.9	93.290	-0.240	1.080	0.760
2020/01/31 03:42:35.0	93.290	-0.260	1.060	0.780
2020/01/31 03:42:35.1	93.280	-0.270	1.030	0.790
2020/01/31 03:42:35.2	93.280	-0.280	1.000	0.800
2020/01/31 03:42:35.3	93.280	-0.280	0.950	0.810
2020/01/31 03:42:35.4	93.290	-0.280	0.900	0.820
2020/01/31 03:42:35.5	93.290	-0.280	0.840	0.830
2020/01/31 03:42:35.6	93.300	-0.280	0.780	0.830
2020/01/31 03:42:35.7	93.310	-0.270	0.700	0.830
2020/01/31 03:42:35.8	93.320	-0.260	0.630	0.830
2020/01/31 03:42:35.9	93.340	-0.250	0.540	0.820
2020/01/31 03:42:36.0	93.350	-0.240	0.460	0.810
2020/01/31 03:42:36.1	93.370	-0.230	0.360	0.790
2020/01/31 03:42:36.2	93.390	-0.210	0.270	0.780
2020/01/31 03:42:36.3	93.410	-0.200	0.180	0.760
2020/01/31 03:42:36.4	93.440	-0.180	0.090	0.730
2020/01/31 03:42:36.5	93.460	-0.160	-0.000	0.710
2020/01/31 03:42:36.6	93.490	-0.140	-0.090	0.680
2020/01/31 03:42:36.7	93.520	-0.120	-0.180	0.650
2020/01/31 03:42:36.8	93.550	-0.100	-0.270	0.630
2020/01/31 03:42:36.9	93.580	-0.070	-0.350	0.600
2020/01/31 03:42:37.0	93.620	-0.050	-0.430	0.570
2020/01/31 03:42:37.1	93.660	-0.030	-0.500	0.540
2020/01/31 03:42:37.2	93.690	-0.010	-0.570	0.520
2020/01/31 03:42:37.3	93.720	0.010	-0.630	0.500
2020/01/31 03:42:37.4	93.750	0.040	-0.690	0.490
2020/01/31 03:42:37.5	93.780	0.060	-0.740	0.470
2020/01/31 03:42:37.6	93.810	0.080	-0.780	0.470
2020/01/31 03:42:37.7	93.830	0.100	-0.820	0.460
2020/01/31 03:42:37.8	93.850	0.110	-0.850	0.470
2020/01/31 03:42:37.9	93.860	0.130	-0.870	0.480
2020/01/31 03:42:38.0	93.880	0.140	-0.890	0.490
2020/01/31 03:42:38.1	93.880	0.150	-0.900	0.500
2020/01/31 03:42:38.2	93.880	0.160	-0.910	0.520
2020/01/31 03:42:38.3	93.880	0.170	-0.900	0.550
2020/01/31 03:42:38.4	93.880	0.180	-0.890	0.580
2020/01/31 03:42:38.5	93.880	0.180	-0.870	0.610
2020/01/31 03:42:38.6	93.870	0.180	-0.850	0.650
2020/01/31 03:42:38.7	93.860	0.180	-0.820	0.680
2020/01/31 03:42:38.8	93.850	0.180	-0.790	0.720
2020/01/31 03:42:38.9	93.840	0.170	-0.760	0.760
2020/01/31 03:42:39.0	93.830	0.170	-0.720	0.800
2020/01/31 03:42:39.1	93.800	0.160	-0.670	0.840
2020/01/31 03:42:39.2	93.790	0.150	-0.630	0.870
2020/01/31 03:42:39.3	93.770	0.130	-0.590	0.910
2020/01/31 03:42:39.4	93.760	0.120	-0.540	0.940
2020/01/31 03:42:39.5	93.740	0.110	-0.500	0.970
2020/01/31 03:42:39.6	93.730	0.090	-0.450	1.000
2020/01/31 03:42:39.7	93.720	0.070	-0.410	1.030
2020/01/31 03:42:39.8	93.710	0.060	-0.370	1.050
2020/01/31 03:42:39.9	93.690	0.040	-0.340	1.070
2020/01/31 03:42:40.0	93.690	0.020	-0.300	1.080
2020/01/31 03:42:40.1	93.690	0.010	-0.270	1.090
2020/01/31 03:42:40.2	93.690	-0.010	-0.240	1.090
2020/01/31 03:42:40.3	93.680	-0.020	-0.210	1.100
2020/01/31 03:42:40.4	93.680	-0.030	-0.190	1.100
2020/01/31 03:42:40.5	93.680	-0.050	-0.170	1.090
2020/01/31 03:42:40.6	93.680	-0.060	-0.160	1.090
2020/01/31 03:42:40.7	93.680	-0.070	-0.140	1.080
2020/01/31 03:42:40.8	93.680	-0.080	-0.130	1.070
2020/01/31 03:42:40.9	93.680	-0.090	-0.120	1.060
2020/01/31 03:42:41.0	93.680	-0.100	-0.110	1.050
2020/01/31 03:42:41.1	93.670	-0.110	-0.120	1.030
2020/01/31 03:42:41.2	93.670	-0.120	-0.110	1.020
2020/01/31 03:42:41.3	93.670	-0.120	-0.100	1.010
2020/01/31 03:42:41.4	93.670	-0.130	-0.090	1.000
2020/01/31 03:42:41.5	93.670	-0.140	-0.090	0.990
2020/01/31 03:42:41.6	93.670	-0.150	-0.080	0.980
2020/01/31 03:42:41.7	93.670	-0.160	-0.070	0.970
2020/01/31 03:42:41.8	93.660	-0.170	-0.060	0.960
2020/01/31 03:42:41.9	93.660	-0.180	-0.040	0.950
2020/01/31 03:42:42.0	93.650	-0.190	-0.030	0.940
2020/01/31 03:42:42.1	93.660	-0.210	-0.010	0.940
2020/01/31 03:42:42.2	93.660	-0.220	0.010	0.930
2020/01/31 03:42:42.3	93.650	-0.230	0.020	0.930
2020/01/31 03:42:42.4	93.640	-0.250	0.040	0.920
2020/01/31 03:42:42.5	93.630	-0.260	0.060	0.920
2020/01/31 03:42:42.6	93.630	-0.280	0.080	0.910
2020/01/31 03:42:42.7	93.620	-0.290	0.090	0.910
2020/01/31 03:42:42.8	93.610	-0.310	0.110	0.910
2020/01/31 03:42:42.9	93.600	-0.320	0.120	0.900
2020/01/31 03:42:43.0	93.600	-0.340	0.130	0.890
2020/01/31 03:42:43.1	93.580	-0.350	0.140	0.890
2020/01/31 03:42:43.2	93.580	-0.360	0.140	0.880
2020/01/31 03:42:43.3	93.570	-0.370	0.150	0.870
2020/01/31 03:42:43.4	93.570	-0.380	0.140	0.860
2020/01/31 03:42:43.5	93.570	-0.390	0.140	0.840
2020/01/31 03:42:43.6	93.570	-0.400	0.130	0.830
2020/01/31 03:42:43.7	93.570	-0.410	0.110	0.820
2020/01/31 03:42:43.8	93.570	-0.410	0.090	0.800
2020/01/31 03:42:43.9	93.580	-0.410	0.070	0.780
2020/01/31 03:42:44.0	93.580	-0.410	0.040	0.770
2020/01/31 03:42:44.1	93.600	-0.400	0.010	0.750
2020/01/31 03:42:44.2	93.610	-0.400	-0.030	0.730
2020/01/31 03:42:44.3	93.610	-0.390	-0.070	0.710
2020/01/31 03:42:44.4	93.620	-0.370	-0.120	0.700
2020/01/31 03:42:44.5	93.630	-0.360	-0.160	0.680
2020/01/31 03:42:44.6	93.640	-0.340	-0.210	0.670
2020/01/31 03:42:44.7	93.650	-0.320	-0.260	0.650
2020/01/31 03:42:44.8	93.660	-0.300	-0.310	0.640
2020/01/31 03:42:44.9	93.670	-0.270	-0.370	0.630
2020/01/31 03:42:45.0	93.680	-0.250	-0.420	0.620
2020/01/31 03:42:45.1	93.680	-0.220	-0.470	0.610
2020/01/31 03:42:45.2	93.680	-0.190	-0.520	0.610
2020/01/31 03:42:45.3	93.680	-0.160	-0.560	0.600
2020/01/31 03:42:45.4	93.690	-0.130	-0.600	0.590
2020/01/31 03:42:45.5	93.690	-0.100	-0.640	0.590
2020/01/31 03:42:45.6	93.680	-0.060	-0.670	0.590
2020/01/31 03:42:45.7	93.680	-0.030	-0.700	0.580
2020/01/31 03:42:45.8	93.680	0.000	-0.720	0.580
2020/01/31 03:42:45.9	93.670	0.030	-0.740	0.580
2020/01/31 03:42:46.0	93.670	0.070	-0.750	0.580
2020/01/31 03:42:46.1	93.650	0.100	-0.760	0.580
2020/01/31 03:42:46.2	93.640	0.130	-0.760	0.580
2020/01/31 03:42:46.3	93.630	0.160	-0.750	0.580
2020/01/31 03:42:46.4	93.630	0.180	-0.740	0.580
2020/01/31 03:42:46.5	93.620	0.210	-0.730	0.580
2020/01/31 03:42:46.6	93.610	0.230	-0.700	0.580
2020/01/31 03:42:46.7	93.600	0.250	-0.680	0.580
2020/01/31 03:42:46.8	93.600	0.270	-0.640	0.580
2020/01/31 03:42:46.9	93.590	0.290	-0.600	0.590
2020/01/31 03:42:47.0	93.580	0.300	-0.560	0.590
2020/01/31 03:42:47.1	93.580	0.320	-0.520	0.590
2020/01/31 03:42:47.2	93.570	0.330	-0.470	0.590
2020/01/31 03:42:47.3	93.570	0.330	-0.420	0.590
2020/01/31 03:42:47.4	93.560	0.340	-0.370	0.600
2020/01/31 03:42:47.5	93.560	0.340	-0.310	0.600
2020/01/31 03:42:47.6	93.560	0.350	-0.260	0.600
2020/01/31 03:42:47.7	93.560	0.340	-0.200	0.610
2020/01/31 03:42:47.8	93.560	0.340	-0.150	0.610
2020/01/31 03:42:47.9	93.560	0.340	-0.090	0.620
2020/01/31 03:42:48.0	93.550	0.330	-0.040	0.630
2020/01/31 03:42:48.1	93.560	0.330	0.020	0.640
2020/01/31 03:42:48.2	93.550	0.320	0.070	0.640
2020/01/31 03:42:48.3	93.550	0.310	0.110	0.650
2020/01/31 03:42:48.4	93.540	0.300	0.150	0.660
2020/01/31 03:42:48.5	93.540	0.290	0.190	0.670
2020/01/31 03:42:48.6	93.530	0.280	0.220	0.670
2020/01/31 03:42:48.7	93.530	0.270	0.250	0.680
2020/01/31 03:42:48.8	93.520	0.260	0.270	0.680
2020/01/31 03:42:48.9	93.510	0.250	0.290	0.690
2020/01/31 03:42:49.0	93.500	0.240	0.300	0.690
2020/01/31 03:42:49.1	93.500	0.230	0.300	0.700
2020/01/31 03:42:49.2	93.490	0.220	0.300	0.700
2020/01/31 03:42:49.3	93.480	0.220	0.290	0.700
2020/01/31 03:42:49.4	93.470	0.210	0.280	0.690
2020/01/31 03:42:49.5	93.460	0.210	0.260	0.690
2020/01/31 03:42:49.6	93.450	0.210	0.230	0.690
2020/01/31 03:42:49.7	93.440	0.210	0.200	0.680
2020/01/31 03:42:49.8	93.430	0.220	0.170	0.680
2020/01/31 03:42:49.9	93.430	0.220	0.130	0.670
2020/01/31 03:42:50.0	93.420	0.230	0.080	0.670
2020/01/31 03:42:50.1	93.420	0.240	0.030	0.660
2020/01/31 03:42:50.2	93.410	0.260	-0.020	0.650
2020/01/31 03:42:50.3	93.410	0.270	-0.080	0.650
2020/01/31 03:42:50.4	93.410	0.290	-0.140	0.650
2020/01/31 03:42:50.5	93.410	0.310	-0.210	0.650
2020/01/31 03:42:50.6	93.410	0.340	-0.270	0.650
2020/01/31 03:42:50.7	93.410	0.360	-0.340	0.650
2020/01/31 03:42:50.8	93.410	0.390	-0.400	0.660
2020/01/31 03:42:50.9	93.420	0.410	-0.470	0.670
2020/01/31 03:42:51.0	93.420	0.440	-0.530	0.680
2020/01/31 03:42:51.1	93.410	0.470	-0.600	0.690
2020/01/31 03:42:51.2	93.420	0.500	-0.650	0.710
2020/01/31 03:42:51.3	93.420	0.520	-0.700	0.730
2020/01/31 03:42:51.4	93.420	0.550	-0.750	0.750
2020/01/31 03:42:51.5	93.430	0.570	-0.780	0.780
2020/01/31 03:42:51.6	93.430	0.590	-0.820	0.800
2020/01/31 03:42:51.7	93.430	0.600	-0.840	0.830
2020/01/31 03:42:51.8	93.430	0.620	-0.860	0.860
2020/01/31 03:42:51.9	93.420	0.630	-0.860	0.890
2020/01/31 03:42:52.0	93.420	0.630	-0.860	0.920
2020/01/31 03:42:52.1	93.400	0.630	-0.860	0.950
2020/01/31 03:42:52.2	93.400	0.630	-0.840	0.980
2020/01/31 03:42:52.3	93.400	0.620	-0.820	1.010
2020/01/31 03:42:52.4	93.390	0.610	-0.790	1.040
2020/01/31 03:42:52.5	93.390	0.590	-0.750	1.070
2020/01/31 03:42:52.6	93.380	0.570	-0.710	1.100
2020/01/31 03:42:52.7	93.380	0.540	-0.660	1.120
2020/01/31 03:42:52.8	93.370	0.510	-0.600	1.150
2020/01/31 03:42:52.9	93.370	0.480	-0.540	1.170
2020/01/31 03:42:53.0	93.360	0.440	-0.480	1.190
2020/01/31 03:42:53.1	93.370	0.390	-0.410	1.210
2020/01/31 03:42:53.2	93.370	0.350	-0.340	1.230
2020/01/31 03:42:53.3	93.370	0.300	-0.270	1.250
2020/01/31 03:42:53.4	93.370	0.250	-0.190	1.260
2020/01/31 03:42:53.5	93.380	0.200	-0.120	1.280
2020/01/31 03:42:53.6	93.380	0.150	-0.050	1.290
2020/01/31 03:42:53.7	93.390	0.090	0.010	1.310
2020/01/31 03:42:53.8	93.400	0.040	0.080	1.320
2020/01/31 03:42:53.9	93.420	-0.020	0.140	1.330
2020/01/31 03:42:54.0	93.440	-0.070	0.200	1.340
2020/01/31 03:42:54.1	93.450	-0.120	0.250	1.350
2020/01/31 03:42:54.2	93.480	-0.170	0.300	1.350
2020/01/31 03:42:54.3	93.500	-0.220	0.340	1.360
2020/01/31 03:42:54.4	93.530	-0.270	0.380	1.370
2020/01/31 03:42:54.5	93.560	-0.310	0.420	1.370
2020/01/31 03:42:54.6	93.590	-0.350	0.440	1.380
2020/01/31 03:42:54.7	93.620	-0.390	0.460	1.380
2020/01/31 03:42:54.8	93.650	-0.430	0.480	1.390
2020/01/31 03:42:54.9	93.680	-0.460	0.490	1.390
2020/01/31 03:42:55.0	93.720	-0.490	0.490	1.400
2020/01/31 03:42:55.1	93.760	-0.510	0.490	1.400
2020/01/31 03:42:55.2	93.790	-0.530	0.480	1.410
2020/01/31 03:42:55.3	93.820	-0.550	0.460	1.410
2020/01/31 03:42:55.4	93.850	-0.570	0.450	1.420
2020/01/31 03:42:55.5	93.880	-0.580	0.420	1.420
2020/01/31 03:42:55.6	93.900	-0.590	0.390	1.430
2020/01/31 03:42:55.7	93.920	-0.600	0.360	1.430
2020/01/31 03:42:55.8	93.940	-0.600	0.330	1.430
2020/01/31 03:42:55.9	93.960	-0.600	0.290	1.430
2020/01/31 03:42:56.0	93.970	-0.600	0.250	1.430
2020/01/31 03:42:56.1	93.970	-0.600	0.200	1.420
2020/01/31 03:42:56.2	93.980	-0.600	0.160	1.410
2020/01/31 03:42:56.3	93.990	-0.600	0.110	1.400
2020/01/31 03:42:56.4	93.990	-0.590	0.070	1.390
2020/01/31 03:42:56.5	94.000	-0.580	0.020	1.370
2020/01/31 03:42:56.6	94.000	-0.570	-0.020	1.350
2020/01/31 03:42:56.7	94.000	-0.570	-0.060	1.330
2020/01/31 03:42:56.8	94.000	-0.560	-0.100	1.310
2020/01/31 03:42:56.9	94.000	-0.550	-0.140	1.290
2020/01/31 03:42:57.0	93.990	-0.540	-0.180	1.270
2020/01/31 03:42:57.1	93.980	-0.530	-0.220	1.240
2020/01/31 03:42:57.2	93.970	-0.520	-0.250	1.220
2020/01/31 03:42:57.3	93.960	-0.510	-0.280	1.200
2020/01/31 03:42:57.4	93.960	-0.500	-0.310	1.180
2020/01/31 03:42:57.5	93.950	-0.480	-0.330	1.170
2020/01/31 03:42:57.6	93.940	-0.470	-0.360	1.150
2020/01/31 03:42:57.7	93.930	-0.460	-0.370	1.130
2020/01/31 03:42:57.8	93.920	-0.450	-0.390	1.120
2020/01/31 03:42:57.9	93.910	-0.440	-0.400	1.100
2020/01/31 03:42:58.0	93.900	-0.430	-0.410	1.090
2020/01/31 03:42:58.1	93.910	-0.420	-0.420	1.080
2020/01/31 03:42:58.2	93.900	-0.410	-0.430	1.060
2020/01/31 03:42:58.3	93.880	-0.400	-0.430	1.050
2020/01/31 03:42:58.4	93.870	-0.390	-0.430	1.040
2020/01/31 03:42:58.5	93.860	-0.380	-0.430	1.020
2020/01/31 03:42:58.6	93.840	-0.370	-0.430	1.010
2020/01/31 03:42:58.7	93.830	-0.360	-0.430	1.000
2020/01/31 03:42:58.8	93.810	-0.340	-0.430	0.980
2020/01/31 03:42:58.9	93.800	-0.330	-0.430	0.960
2020/01/31 03:42:59.0	93.780	-0.310	-0.430	0.940
2020/01/31 03:42:59.1	93.750	-0.300	-0.430	0.920
2020/01/31 03:42:59.2	93.740	-0.280	-0.430	0.900
2020/01/31 03:42:59.3	93.730	-0.260	-0.440	0.870
2020/01/31 03:42:59.4	93.720	-0.240	-0.450	0.850
2020/01/31 03:42:59.5	93.700	-0.220	-0.460	0.820
2020/01/31 03:42:59.6	93.690	-0.200	-0.470	0.780
2020/01/31 03:42:59.7	93.690	-0.170	-0.490	0.750
2020/01/31 03:42:59.8	93.680	-0.140	-0.510	0.710
2020/01/31 03:42:59.9	93.670	-0.110	-0.540	0.670
2020/01/31 03:43:00.0	93.670	-0.080	-0.570	0.630
2020/01/31 03:43:00.1	93.660	-0.040	-0.590	0.590
2020/01/31 03:43:00.2	93.660	-0.010	-0.630	0.540
2020/01/31 03:43:00.3	93.660	0.030	-0.660	0.500
2020/01/31 03:43:00.4	93.660	0.070	-0.700	0.460
2020/01/31 03:43:00.5	93.670	0.110	-0.730	0.410
2020/01/31 03:43:00.6	93.670	0.160	-0.770	0.370
2020/01/31 03:43:00.7	93.680	0.200	-0.800	0.330
2020/01/31 03:43:00.8	93.680	0.240	-0.830	0.290
2020/01/31 03:43:00.9	93.690	0.290	-0.860	0.250
2020/01/31 03:43:01.0	93.690	0.330	-0.890	0.220
2020/01/31 03:43:01.1	93.700	0.370	-0.910	0.180
2020/01/31 03:43:01.2	93.710	0.410	-0.930	0.150
2020/01/31 03:43:01.3	93.720	0.450	-0.930	0.120
2020/01/31 03:43:01.4	93.720	0.480	-0.930	0.100
2020/01/31 03:43:01.5	93.730	0.510	-0.930	0.080
2020/01/31 03:43:01.6	93.730	0.540	-0.910	0.060
2020/01/31 03:43:01.7	93.740	0.560	-0.890	0.040
2020/01/31 03:43:01.8	93.740	0.580	-0.850	0.030
2020/01/31 03:43:01.9	93.750	0.600	-0.810	0.020
2020/01/31 03:43:02.0	93.750	0.600	-0.760	0.020
2020/01/31 03:43:02.1	93.750	0.610	-0.700	0.010
2020/01/31 03:43:02.2	93.750	0.610	-0.630	0.010
2020/01/31 03:43:02.3	93.750	0.600	-0.560	0.020
2020/01/31 03:43:02.4	93.750	0.590	-0.480	0.020
2020/01/31 03:43:02.5	93.750	0.580	-0.400	0.030
2020/01/31 03:43:02.6	93.750	0.560	-0.310	0.040
2020/01/31 03:43:02.7	93.750	0.530	-0.220	0.050
2020/01/31 03:43:02.8	93.740	0.500	-0.120	0.060
2020/01/31 03:43:02.9	93.740	0.470	-0.020	0.080
2020/01/31 03:43:03.0	93.730	0.430	0.070	0.090
2020/01/31 03:43:03.1	93.710	0.390	0.170	0.110
2020/01/31 03:43:03.2	93.710	0.350	0.260	0.130
2020/01/31 03:43:03.3	93.700	0.310	0.350	0.150
2020/01/31 03:43:03.4	93.700	0.270	0.440	0.170
2020/01/31 03:43:03.5	93.690	0.220	0.520	0.180
2020/01/31 03:43:03.6	93.690	0.180	0.590	0.200
2020/01/31 03:43:03.7	93.680	0.140	0.650	0.220
2020/01/31 03:43:03.8	93.680	0.090	0.710	0.240
2020/01/31 03:43:03.9	93.680	0.050	0.760	0.250
2020/01/31 03:43:04.0	93.680	0.020	0.790	0.260
2020/01/31 03:43:04.1	93.680	-0.020	0.820	0.280
2020/01/31 03:43:04.2	93.680	-0.050	0.840	0.290
2020/01/31 03:43:04.3	93.690	-0.070	0.830	0.290
2020/01/31 03:43:04.4	93.700	-0.100	0.820	0.300
2020/01/31 03:43:04.5	93.710	-0.110	0.800	0.310
2020/01/31 03:43:04.6	93.720	-0.130	0.760	0.320
2020/01/31 03:43:04.7	93.730	-0.130	0.710	0.330
2020/01/31 03:43:04.8	93.740	-0.140	0.660	0.330
2020/01/31 03:43:04.9	93.760	-0.140	0.590	0.340
2020/01/31 03:43:05.0	93.770	-0.130	0.520	0.360
2020/01/31 03:43:05.1	93.780	-0.130	0.420	0.370
2020/01/31 03:43:05.2	93.800	-0.120	0.340	0.380
2020/01/31 03:43:05.3	93.810	-0.100	0.240	0.400
2020/01/31 03:43:05.4	93.830	-0.080	0.150	0.410
2020/01/31 03:43:05.5	93.850	-0.070	0.050	0.430
2020/01/31 03:43:05.6	93.860	-0.040	-0.050	0.450
2020/01/31 03:43:05.7	93.880	-0.020	-0.150	0.460
2020/01/31 03:43:05.8	93.890	0.000	-0.250	0.490
2020/01/31 03:43:05.9	93.910	0.020	-0.350	0.510
2020/01/31 03:43:06.0	93.920	0.050	-0.450	0.530
2020/01/31 03:43:06.1	93.930	0.070	-0.530	0.560
2020/01/31 03:43:06.2	93.940	0.090	-0.620	0.580
2020/01/31 03:43:06.3	93.940	0.120	-0.700	0.610
2020/01/31 03:43:06.4	93.950	0.140	-0.770	0.640
2020/01/31 03:43:06.5	93.950	0.150	-0.840	0.680
2020/01/31 03:43:06.6	93.960	0.170	-0.890	0.710
2020/01/31 03:43:06.7	93.960	0.180	-0.940	0.740
2020/01/31 03:43:06.8	93.960	0.200	-0.980	0.780
2020/01/31 03:43:06.9	93.950	0.210	-1.020	0.820
2020/01/31 03:43:07.0	93.950	0.210	-1.040	0.850
2020/01/31 03:43:07.1	93.950	0.220	-1.050	0.890
2020/01/31 03:43:07.2	93.950	0.220	-1.060	0.930
2020/01/31 03:43:07.3	93.940	0.210	-1.050	0.970
2020/01/31 03:43:07.4	93.930	0.210	-1.030	1.000
2020/01/31 03:43:07.5	93.910	0.200	-1.010	1.040
2020/01/31 03:43:07.6	93.900	0.190	-0.970	1.080
2020/01/31 03:43:07.7	93.890	0.170	-0.920	1.110
2020/01/31 03:43:07.8	93.870	0.150	-0.870	1.150
2020/01/31 03:43:07.9	93.860	0.130	-0.810	1.180
2020/01/31 03:43:08.0	93.840	0.110	-0.740	1.210
2020/01/31 03:43:08.1	93.830	0.080	-0.660	1.240
2020/01/31 03:43:08.2	93.820	0.050	-0.580	1.270
2020/01/31 03:43:08.3	93.810	0.020	-0.490	1.300
2020/01/31 03:43:08.4	93.790	-0.010	-0.400	1.330
2020/01/31 03:43:08.5	93.780	-0.050	-0.310	1.360
2020/01/31 03:43:08.6	93.770	-0.080	-0.220	1.390
2020/01/31 03:43:08.7	93.760	-0.120	-0.130	1.410
2020/01/31 03:43:08.8	93.760	-0.150	-0.040	1.440
2020/01/31 03:43:08.9	93.750	-0.190	0.050	1.460
2020/01/31 03:43:09.0	93.750	-0.230	0.140	1.480
2020/01/31 03:43:09.1	93.730	-0.260	0.220	1.500
2020/01/31 03:43:09.2	93.730	-0.300	0.300	1.520
2020/01/31 03:43:09.3	93.730	-0.330	0.370	1.530
2020/01/31 03:43:09.4	93.740	-0.360	0.430	1.540
2020/01/31 03:43:09.5	93.740	-0.390	0.490	1.540
2020/01/31 03:43:09.6	93.750	-0.420	0.530	1.550
2020/01/31 03:43:09.7	93.750	-0.440	0.570	1.540
2020/01/31 03:43:09.8	93.760	-0.460	0.600	1.540
2020/01/31 03:43:09.9	93.770	-0.480	0.610	1.530
2020/01/31 03:43:10.0	93.790	-0.500	0.620	1.510
2020/01/31 03:43:10.1	93.800	-0.510	0.620	1.490
2020/01/31 03:43:10.2	93.820	-0.510	0.610	1.470
2020/01/31 03:43:10.3	93.830	-0.520	0.590	1.440
2020/01/31 03:43:10.4	93.840	-0.520	0.560	1.410
2020/01/31 03:43:10.5	93.850	-0.520	0.530	1.380
2020/01/31 03:43:10.6	93.860	-0.510	0.480	1.340
2020/01/31 03:43:10.7	93.860	-0.500	0.430	1.300
2020/01/31 03:43:10.8	93.870	-0.480	0.380	1.260
2020/01/31 03:43:10.9	93.870	-0.460	0.310	1.220
2020/01/31 03:43:11.0	93.870	-0.440	0.250	1.170
2020/01/31 03:43:11.1	93.880	-0.420	0.170	1.120
2020/01/31 03:43:11.2	93.880	-0.390	0.100	1.080
2020/01/31 03:43:11.3	93.870	-0.350	0.030	1.030
2020/01/31 03:43:11.4	93.860	-0.320	-0.050	0.980
2020/01/31 03:43:11.5	93.850	-0.280	-0.120	0.930
2020/01/31 03:43:11.6	93.840	-0.240	-0.190	0.880
2020/01/31 03:43:11.7	93.830	-0.200	-0.260	0.830
2020/01/31 03:43:11.8	93.820	-0.160	-0.330	0.780
2020/01/31 03:43:11.9	93.810	-0.120	-0.390	0.740
2020/01/31 03:43:12.0	93.800	-0.070	-0.450	0.690
2020/01/31 03:43:12.1	93.800	-0.030	-0.510	0.650
2020/01/31 03:43:12.2	93.800	0.010	-0.560	0.610
2020/01/31 03:43:12.3	93.790	0.060	-0.610	0.570
2020/01/31 03:43:12.4	93.780	0.110	-0.650	0.530
2020/01/31 03:43:12.5	93.770	0.150	-0.690	0.500
2020/01/31 03:43:12.6	93.760	0.190	-0.720	0.470
2020/01/31 03:43:12.7	93.760	0.240	-0.750	0.440
2020/01/31 03:43:12.8	93.750	0.280	-0.770	0.420
2020/01/31 03:43:12.9	93.750	0.320	-0.800	0.400
2020/01/31 03:43:13.0	93.740	0.360	-0.810	0.380
2020/01/31 03:43:13.1	93.750	0.400	-0.830	0.370
2020/01/31 03:43:13.2	93.750	0.440	-0.840	0.360
2020/01/31 03:43:13.3	93.750	0.480	-0.850	0.350
2020/01/31 03:43:13.4	93.760	0.510	-0.860	0.340
2020/01/31 03:43:13.5	93.760	0.540	-0.860	0.330
2020/01/31 03:43:13.6	93.770	0.570	-0.860	0.330
2020/01/31 03:43:13.7	93.780	0.600	-0.860	0.330
2020/01/31 03:43:13.8	93.790	0.620	-0.860	0.330
2020/01/31 03:43:13.9	93.810	0.640	-0.850	0.320
2020/01/31 03:43:14.0	93.820	0.660	-0.840	0.320
2020/01/31 03:43:14.1	93.810	0.670	-0.830	0.320
2020/01/31 03:43:14.2	93.830	0.680	-0.810	0.320
2020/01/31 03:43:14.3	93.840	0.690	-0.790	0.320
2020/01/31 03:43:14.4	93.860	0.690	-0.770	0.320
2020/01/31 03:43:14.5	93.880	0.690	-0.740	0.320
2020/01/31 03:43:14.6	93.910	0.680	-0.710	0.320
2020/01/31 03:43:14.7	93.930	0.670	-0.680	0.320
2020/01/31 03:43:14.8	93.950	0.650	-0.640	0.320
2020/01/31 03:43:14.9	93.970	0.630	-0.590	0.320
2020/01/31 03:43:15.0	93.990	0.610	-0.550	0.330
2020/01/31 03:43:15.1	94.010	0.570	-0.490	0.330
2020/01/31 03:43:15.2	94.030	0.540	-0.440	0.330
2020/01/31 03:43:15.3	94.050	0.500	-0.380	0.340
2020/01/31 03:43:15.4	94.070	0.450	-0.320	0.340
2020/01/31 03:43:15.5	94.090	0.400	-0.250	0.350
2020/01/31 03:43:15.6	94.110	0.350	-0.190	0.360
2020/01/31 03:43:15.7	94.120	0.290	-0.120	0.370
2020/01/31 03:43:15.8	94.140	0.230	-0.050	0.390
2020/01/31 03:43:15.9	94.150	0.170	0.020	0.410
2020/01/31 03:43:16.0	94.160	0.110	0.080	0.440
2020/01/31 03:43:16.1	94.170	0.040	0.150	0.470
2020/01/31 03:43:16.2	94.170	-0.020	0.220	0.500
2020/01/31 03:43:16.3	94.180	-0.090	0.280	0.540
2020/01/31 03:43:16.4	94.190	-0.160	0.340	0.590
2020/01/31 03:43:16.5	94.200	-0.230	0.400	0.630
2020/01/31 03:43:16.6	94.200	-0.290	0.450	0.680
2020/01/31 03:43:16.7	94.210	-0.360	0.500	0.730
2020/01/31 03:43:16.8	94.210	-0.420	0.540	0.790
2020/01/31 03:43:16.9	94.220	-0.480	0.570	0.840
2020/01/31 03:43:17.0	94.220	-0.530	0.600	0.900
2020/01/31 03:43:17.1	94.210	-0.590	0.620	0.960
2020/01/31 03:43:17.2	94.210	-0.640	0.640	1.010
2020/01/31 03:43:17.3	94.210	-0.680	0.640	1.070
2020/01/31 03:43:17.4	94.220	-0.720	0.630	1.120
2020/01/31 03:43:17.5	94.220	-0.750	0.620	1.170
2020/01/31 03:43:17.6	94.220	-0.780	0.600	1.220
2020/01/31 03:43:17.7	94.230	-0.800	0.570	1.260
2020/01/31 03:43:17.8	94.230	-0.820	0.530	1.300
2020/01/31 03:43:17.9	94.230	-0.830	0.480	1.330
2020/01/31 03:43:18.0	94.230	-0.830	0.420	1.370
2020/01/31 03:43:18.1	94.260	-0.830	0.360	1.400
2020/01/31 03:43:18.2	94.260	-0.820	0.290	1.420
2020/01/31 03:43:18.3	94.260	-0.810	0.220	1.440
2020/01/31 03:43:18.4	94.250	-0.800	0.140	1.460
2020/01/31 03:43:18.5	94.250	-0.770	0.060	1.470
2020/01/31 03:43:18.6	94.250	-0.750	-0.020	1.480
2020/01/31 03:43:18.7	94.240	-0.720	-0.110	1.490
2020/01/31 03:43:18.8	94.240	-0.690	-0.190	1.490
2020/01/31 03:43:18.9	94.230	-0.650	-0.270	1.500
2020/01/31 03:43:19.0	94.220	-0.610	-0.360	1.490
2020/01/31 03:43:19.1	94.220	-0.570	-0.440	1.490
2020/01/31 03:43:19.2	94.210	-0.530	-0.510	1.480
2020/01/31 03:43:19.3	94.190	-0.490	-0.580	1.470
2020/01/31 03:43:19.4	94.180	-0.450	-0.650	1.470
2020/01/31 03:43:19.5	94.160	-0.410	-0.710	1.450
2020/01/31 03:43:19.6	94.140	-0.370	-0.760	1.440
2020/01/31 03:43:19.7	94.120	-0.330	-0.810	1.430
2020/01/31 03:43:19.8	94.100	-0.290	-0.840	1.410
2020/01/31 03:43:19.9	94.080	-0.250	-0.870	1.390
2020/01/31 03:43:20.0	94.060	-0.210	-0.900	1.370
2020/01/31 03:43:20.1	94.030	-0.180	-0.910	1.350
2020/01/31 03:43:20.2	94.010	-0.140	-0.920	1.330
2020/01/31 03:43:20.3	93.990	-0.110	-0.910	1.310
2020/01/31 03:43:20.4	93.960	-0.080	-0.900	1.290
2020/01/31 03:43:20.5	93.940	-0.060	-0.890	1.260
2020/01/31 03:43:20.6	93.920	-0.030	-0.860	1.240
2020/01/31 03:43:20.7	93.890	-0.010	-0.830	1.210
2020/01/31 03:43:20.8	93.870	0.010	-0.800	1.180
2020/01/31 03:43:20.9	93.860	0.030	-0.750	1.150
2020/01/31 03:43:21.0	93.840	0.050	-0.710	1.120
2020/01/31 03:43:21.1	93.810	0.070	-0.660	1.090
2020/01/31 03:43:21.2	93.800	0.080	-0.610	1.050
2020/01/31 03:43:21.3	93.790	0.100	-0.560	1.010
2020/01/31 03:43:21.4	93.790	0.110	-0.500	0.970
2020/01/31 03:43:21.5	93.780	0.130	-0.450	0.930
2020/01/31 03:43:21.6	93.780	0.140	-0.400	0.880
2020/01/31 03:43:21.7	93.780	0.160	-0.350	0.840
2020/01/31 03:43:21.8	93.790	0.170	-0.310	0.780
2020/01/31 03:43:21.9	93.800	0.190	-0.260	0.730
2020/01/31 03:43:22.0	93.810	0.200	-0.230	0.670
2020/01/31 03:43:22.1	93.810	0.220	-0.190	0.620
2020/01/31 03:43:22.2	93.830	0.240	-0.160	0.560
2020/01/31 03:43:22.3	93.840	0.260	-0.140	0.500
2020/01/31 03:43:22.4	93.860	0.290	-0.130	0.440
2020/01/31 03:43:22.5	93.880	0.310	-0.110	0.380
2020/01/31 03:43:22.6	93.900	0.340	-0.110	0.330
2020/01/31 03:43:22.7	93.920	0.360	-0.110	0.280
2020/01/31 03:43:22.8	93.940	0.390	-0.110	0.230
2020/01/31 03:43:22.9	93.950	0.420	-0.120	0.180
2020/01/31 03:43:23.0	93.970	0.450	-0.130	0.140
2020/01/31 03:43:23.1	93.990	0.480	-0.150	0.100
2020/01/31 03:43:23.2	94.000	0.510	-0.170	0.070
2020/01/31 03:43:23.3	94.020	0.540	-0.190	0.040
2020/01/31 03:43:23.4	94.030	0.570	-0.210	0.020
2020/01/31 03:43:23.5	94.040	0.590	-0.230	0.000
2020/01/31 03:43:23.6	94.040	0.620	-0.260	-0.010
2020/01/31 03:43:23.7	94.050	0.640	-0.280	-0.010
2020/01/31 03:43:23.8	94.060	0.670	-0.290	-0.020
2020/01/31 03:43:23.9	94.060	0.690	-0.310	-0.010
2020/01/31 03:43:24.0	94.060	0.700	-0.320	-0.010
2020/01/31 03:43:24.1	94.060	0.710	-0.330	0.000
2020/01/31 03:43:24.2	94.060	0.720	-0.330	0.020
2020/01/31 03:43:24.3	94.060	0.730	-0.330	0.030
2020/01/31 03:43:24.4	94.060	0.730	-0.320	0.050
2020/01/31 03:43:24.5	94.060	0.730	-0.310	0.070
2020/01/31 03:43:24.6	94.060	0.720	-0.290	0.090
2020/01/31 03:43:24.7	94.060	0.710	-0.270	0.110
2020/01/31 03:43:24.8	94.060	0.690	-0.240	0.140
2020/01/31 03:43:24.9	94.060	0.670	-0.210	0.160
2020/01/31 03:43:25.0	94.050	0.650	-0.170	0.190
2020/01/31 03:43:25.1	94.050	0.620	-0.140	0.210
2020/01/31 03:43:25.2	94.050	0.590	-0.090	0.240
2020/01/31 03:43:25.3	94.050	0.550	-0.050	0.270
2020/01/31 03:43:25.4	94.040	0.510	-0.010	0.300
2020/01/31 03:43:25.5	94.040	0.470	0.040	0.330
2020/01/31 03:43:25.6	94.040	0.420	0.080	0.360
2020/01/31 03:43:25.7	94.030	0.370	0.130	0.390
2020/01/31 03:43:25.8	94.030	0.320	0.170	0.430
2020/01/31 03:43:25.9	94.030	0.270	0.210	0.460
2020/01/31 03:43:26.0	94.030	0.220	0.250	0.500
2020/01/31 03:43:26.1	94.040	0.160	0.280	0.540
2020/01/31 03:43:26.2	94.040	0.110	0.310	0.580
2020/01/31 03:43:26.3	94.040	0.060	0.340	0.610
2020/01/31 03:43:26.4	94.040	0.010	0.360	0.650
2020/01/31 03:43:26.5	94.040	-0.040	0.370	0.690
2020/01/31 03:43:26.6	94.040	-0.090	0.380	0.720
2020/01/31 03:43:26.7	94.050	-0.130	0.390	0.760
2020/01/31 03:43:26.8	94.050	-0.170	0.390	0.790
2020/01/31 03:43:26.9	94.050	-0.210	0.380	0.820
2020/01/31 03:43:27.0	94.060	-0.250	0.370	0.850
2020/01/31 03:43:27.1	94.060	-0.290	0.350	0.880
2020/01/31 03:43:27.2	94.060	-0.320	0.320	0.910
2020/01/31 03:43:27.3	94.070	-0.340	0.300	0.930
2020/01/31 03:43:27.4	94.080	-0.370	0.270	0.960
2020/01/31 03:43:27.5	94.080	-0.390	0.230	0.980
2020/01/31 03:43:27.6	94.090	-0.410	0.190	1.010
2020/01/31 03:43:27.7	94.100	-0.430	0.150	1.030
2020/01/31 03:43:27.8	94.100	-0.440	0.100	1.050
2020/01/31 03:43:27.9	94.110	-0.450	0.060	1.070
2020/01/31 03:43:28.0	94.120	-0.460	0.010	1.100
2020/01/31 03:43:28.1	94.120	-0.470	-0.040	1.120
2020/01/31 03:43:28.2	94.120	-0.470	-0.090	1.140
2020/01/31 03:43:28.3	94.120	-0.480	-0.140	1.160
2020/01/31 03:43:28.4	94.130	-0.480	-0.180	1.180
2020/01/31 03:43:28.5	94.130	-0.480	-0.230	1.200
2020/01/31 03:43:28.6	94.130	-0.480	-0.270	1.230
2020/01/31 03:43:28.7	94.130	-0.480	-0.310	1.250
2020/01/31 03:43:28.8	94.130	-0.480	-0.350	1.270
2020/01/31 03:43:28.9	94.130	-0.480	-0.390	1.290
2020/01/31 03:43:29.0	94.130	-0.480	-0.420	1.310
2020/01/31 03:43:29.1	94.130	-0.480	-0.450	1.330
2020/01/31 03:43:29.2	94.120	-0.480	-0.480	1.340
2020/01/31 03:43:29.3	94.120	-0.480	-0.500	1.360
2020/01/31 03:43:29.4	94.120	-0.490	-0.520	1.380
2020/01/31 03:43:29.5	94.120	-0.490	-0.530	1.400
2020/01/31 03:43:29.6	94.120	-0.490	-0.540	1.410
2020/01/31 03:43:29.7	94.120	-0.490	-0.550	1.420
2020/01/31 03:43:29.8	94.130	-0.490	-0.550	1.440
2020/01/31 03:43:29.9	94.130	-0.490	-0.560	1.450
2020/01/31 03:43:30.0	94.130	-0.490	-0.550	1.450
2020/01/31 03:43:30.1	94.130	-0.490	-0.550	1.460
2020/01/31 03:43:30.2	94.140	-0.480	-0.550	1.460
2020/01/31 03:43:30.3	94.150	-0.480	-0.540	1.460
2020/01/31 03:43:30.4	94.160	-0.480	-0.540	1.460
2020/01/31 03:43:30.5	94.160	-0.470	-0.530	1.460
2020/01/31 03:43:30.6	94.170	-0.460	-0.520	1.450
2020/01/31 03:43:30.7	94.180	-0.460	-0.510	1.440
2020/01/31 03:43:30.8	94.190	-0.450	-0.500	1.440
2020/01/31 03:43:30.9	94.200	-0.440	-0.500	1.430
2020/01/31 03:43:31.0	94.210	-0.420	-0.490	1.420
2020/01/31 03:43:31.1	94.210	-0.410	-0.480	1.400
2020/01/31 03:43:31.2	94.210	-0.390	-0.480	1.390
2020/01/31 03:43:31.3	94.210	-0.370	-0.470	1.380
2020/01/31 03:43:31.4	94.220	-0.350	-0.470	1.360
2020/01/31 03:43:31.5	94.220	-0.330	-0.460	1.350
2020/01/31 03:43:31.6	94.210	-0.300	-0.460	1.330
2020/01/31 03:43:31.7	94.210	-0.280	-0.460	1.320
2020/01/31 03:43:31.8	94.210	-0.250	-0.460	1.300
2020/01/31 03:43:31.9	94.200	-0.220	-0.470	1.280
2020/01/31 03:43:32.0	94.190	-0.190	-0.470	1.260
2020/01/31 03:43:32.1	94.200	-0.150	-0.480	1.250
2020/01/31 03:43:32.2	94.180	-0.120	-0.480	1.230
2020/01/31 03:43:32.3	94.170	-0.080	-0.490	1.210
2020/01/31 03:43:32.4	94.150	-0.040	-0.500	1.190
2020/01/31 03:43:32.5	94.140	-0.010	-0.510	1.170
2020/01/31 03:43:32.6	94.120	0.030	-0.520	1.140
2020/01/31 03:43:32.7	94.110	0.070	-0.530	1.120
2020/01/31 03:43:32.8	94.090	0.110	-0.540	1.100
2020/01/31 03:43:32.9	94.070	0.150	-0.540	1.070
2020/01/31 03:43:33.0	94.060	0.190	-0.550	1.040
2020/01/31 03:43:33.1	94.040	0.220	-0.560	1.010
2020/01/31 03:43:33.2	94.020	0.260	-0.560	0.980
2020/01/31 03:43:33.3	94.000	0.290	-0.560	0.950
2020/01/31 03:43:33.4	93.990	0.330	-0.560	0.920
2020/01/31 03:43:33.5	93.980	0.360	-0.550	0.890
2020/01/31 03:43:33.6	93.960	0.390	-0.540	0.850
2020/01/31 03:43:33.7	93.950	0.410	-0.530	0.820
2020/01/31 03:43:33.8	93.940	0.440	-0.520	0.780
2020/01/31 03:43:33.9	93.930	0.460	-0.500	0.750
2020/01/31 03:43:34.0	93.920	0.480	-0.480	0.710
2020/01/31 03:43:34.1	93.900	0.490	-0.460	0.680
2020/01/31 03:43:34.2	93.890	0.510	-0.440	0.640
2020/01/31 03:43:34.3	93.880	0.520	-0.410	0.600
2020/01/31 03:43:34.4	93.880	0.530	-0.390	0.560
2020/01/31 03:43:34.5	93.870	0.540	-0.360	0.530
2020/01/31 03:43:34.6	93.870	0.540	-0.320	0.490
2020/01/31 03:43:34.7	93.870	0.540	-0.290	0.450
2020/01/31 03:43:34.8	93.870	0.540	-0.260	0.410
2020/01/31 03:43:34.9	93.870	0.540	-0.220	0.370
2020/01/31 03:43:35.0	93.870	0.530	-0.190	0.330
2020/01/31 03:43:35.1	93.860	0.530	-0.150	0.290
2020/01/31 03:43:35.2	93.860	0.520	-0.110	0.250
2020/01/31 03:43:35.3	93.870	0.510	-0.080	0.210
2020/01/31 03:43:35.4	93.880	0.490	-0.040	0.170
2020/01/31 03:43:35.5	93.900	0.480	-0.000	0.130
2020/01/31 03:43:35.6	93.910	0.460	0.040	0.090
2020/01/31 03:43:35.7	93.920	0.450	0.070	0.050
2020/01/31 03:43:35.8	93.940	0.430	0.110	0.020
2020/01/31 03:43:35.9	93.950	0.410	0.150	-0.020
2020/01/31 03:43:36.0	93.970	0.390	0.180	-0.050
2020/01/31 03:43:36.1	93.980	0.370	0.210	-0.090
2020/01/31 03:43:36.2	94.000	0.340	0.250	-0.120
2020/01/31 03:43:36.3	94.020	0.320	0.280	-0.150
2020/01/31 03:43:36.4	94.030	0.290	0.310	-0.170
2020/01/31 03:43:36.5	94.040	0.270	0.340	-0.190
2020/01/31 03:43:36.6	94.060	0.240	0.360	-0.200
2020/01/31 03:43:36.7	94.070	0.220	0.390	-0.210
2020/01/31 03:43:36.8	94.080	0.190	0.410	-0.220
2020/01/31 03:43:36.9	94.090	0.160	0.430	-0.220
2020/01/31 03:43:37.0	94.100	0.130	0.450	-0.210
2020/01/31 03:43:37.1	94.110	0.100	0.460	-0.200
2020/01/31 03:43:37.2	94.110	0.070	0.470	-0.180
2020/01/31 03:43:37.3	94.120	0.050	0.480	-0.150
2020/01/31 03:43:37.4	94.130	0.020	0.480	-0.120
2020/01/31 03:43:37.5	94.130	-0.010	0.480	-0.080
2020/01/31 03:43:37.6	94.140	-0.040	0.480	-0.030
2020/01/31 03:43:37.7	94.140	-0.070	0.470	0.010
2020/01/31 03:43:37.8	94.150	-0.100	0.460	0.060
2020/01/31 03:43:37.9	94.160	-0.130	0.450	0.110
2020/01/31 03:43:38.0	94.170	-0.160	0.430	0.170
2020/01/31 03:43:38.1	94.180	-0.180	0.400	0.220
2020/01/31 03:43:38.2	94.190	-0.210	0.370	0.280
2020/01/31 03:43:38.3	94.200	-0.230	0.330	0.330
2020/01/31 03:43:38.4	94.210	-0.250	0.280	0.390
2020/01/31 03:43:38.5	94.230	-0.270	0.230	0.440
2020/01/31 03:43:38.6	94.240	-0.290	0.170	0.500
2020/01/31 03:43:38.7	94.260	-0.300	0.110	0.550
2020/01/31 03:43:38.8	94.280	-0.310	0.030	0.590
2020/01/31 03:43:38.9	94.300	-0.320	-0.050	0.640
2020/01/31 03:43:39.0	94.320	-0.320	-0.130	0.680
2020/01/31 03:43:39.1	94.340	-0.320	-0.220	0.720
2020/01/31 03:43:39.2	94.360	-0.320	-0.320	0.760
2020/01/31 03:43:39.3	94.370	-0.310	-0.410	0.800
2020/01/31 03:43:39.4	94.390	-0.300	-0.510	0.840
2020/01/31 03:43:39.5	94.410	-0.280	-0.610	0.880
2020/01/31 03:43:39.6	94.420	-0.270	-0.710	0.920
2020/01/31 03:43:39.7	94.430	-0.240	-0.800	0.960
2020/01/31 03:43:39.8	94.440	-0.220	-0.890	1.000
2020/01/31 03:43:39.9	94.450	-0.200	-0.970	1.040
2020/01/31 03:43:40.0	94.460	-0.170	-1.050	1.080
2020/01/31 03:43:40.1	94.480	-0.140	-1.120	1.120
2020/01/31 03:43:40.2	94.480	-0.110	-1.180	1.170
2020/01/31 03:43:40.3	94.480	-0.080	-1.230	1.220
2020/01/31 03:43:40.4	94.470	-0.050	-1.270	1.270
2020/01/31 03:43:40.5	94.460	-0.020	-1.300	1.320
2020/01/31 03:43:40.6	94.440	0.010	-1.310	1.370
2020/01/31 03:43:40.7	94.420	0.030	-1.310	1.430
2020/01/31 03:43:40.8	94.400	0.060	-1.290	1.480
2020/01/31 03:43:40.9	94.380	0.080	-1.260	1.530
2020/01/31 03:43:41.0	94.350	0.090	-1.220	1.580
2020/01/31 03:43:41.1	94.310	0.110	-1.170	1.630
2020/01/31 03:43:41.2	94.280	0.120	-1.110	1.680
2020/01/31 03:43:41.3	94.250	0.120	-1.030	1.720
2020/01/31 03:43:41.4	94.220	0.130	-0.950	1.760
2020/01/31 03:43:41.5	94.190	0.120	-0.850	1.800
2020/01/31 03:43:41.6	94.150	0.120	-0.750	1.830
2020/01/31 03:43:41.7	94.110	0.100	-0.650	1.860
2020/01/31 03:43:41.8	94.080	0.090	-0.540	1.880
2020/01/31 03:43:41.9	94.040	0.070	-0.430	1.890
2020/01/31 03:43:42.0	94.000	0.050	-0.310	1.900
2020/01/31 03:43:42.1	93.960	0.020	-0.190	1.900
2020/01/31 03:43:42.2	93.920	-0.010	-0.080	1.890
2020/01/31 03:43:42.3	93.890	-0.040	0.030	1.880
2020/01/31 03:43:42.4	93.860	-0.080	0.140	1.860
2020/01/31 03:43:42.5	93.820	-0.110	0.240	1.840
2020/01/31 03:43:42.6	93.790	-0.150	0.330	1.810
2020/01/31 03:43:42.7	93.770	-0.180	0.420	1.770
2020/01/31 03:43:42.8	93.740	-0.220	0.500	1.730
2020/01/31 03:43:42.9	93.720	-0.260	0.570	1.680
2020/01/31 03:43:43.0	93.700	-0.290	0.630	1.630
2020/01/31 03:43:43.1	93.690	-0.320	0.680	1.560
2020/01/31 03:43:43.2	93.680	-0.350	0.720	1.500
2020/01/31 03:43:43.3	93.680	-0.380	0.750	1.430
2020/01/31 03:43:43.4	93.670	-0.400	0.770	1.360
2020/01/31 03:43:43.5	93.680	-0.420	0.770	1.290
2020/01/31 03:43:43.6	93.680	-0.430	0.760	1.210
2020/01/31 03:43:43.7	93.690	-0.440	0.740	1.130
2020/01/31 03:43:43.8	93.700	-0.450	0.720	1.050
2020/01/31 03:43:43.9	93.720	-0.450	0.680	0.960
2020/01/31 03:43:44.0	93.730	-0.450	0.630	0.880
2020/01/31 03:43:44.1	93.770	-0.440	0.560	0.800
2020/01/31 03:43:44.2	93.790	-0.420	0.490	0.710
2020/01/31 03:43:44.3	93.810	-0.400	0.420	0.630
2020/01/31 03:43:44.4	93.830	-0.380	0.340	0.550
2020/01/31 03:43:44.5	93.850	-0.350	0.250	0.470
2020/01/31 03:43:44.6	93.870	-0.320	0.160	0.400
2020/01/31 03:43:44.7	93.890	-0.290	0.060	0.320
2020/01/31 03:43:44.8	93.910	-0.250	-0.030	0.250
2020/01/31 03:43:44.9	93.940	-0.210	-0.130	0.170
2020/01/31 03:43:45.0	93.960	-0.170	-0.230	0.110
2020/01/31 03:43:45.1	93.970	-0.120	-0.330	0.030
2020/01/31 03:43:45.2	93.990	-0.070	-0.420	-0.030
2020/01/31 03:43:45.3	94.010	-0.030	-0.510	-0.080
2020/01/31 03:43:45.4	94.030	0.020	-0.600	-0.130
2020/01/31 03:43:45.5	94.040	0.070	-0.680	-0.180
2020/01/31 03:43:45.6	94.050	0.110	-0.750	-0.220
2020/01/31 03:43:45.7	94.060	0.160	-0.820	-0.250
2020/01/31 03:43:45.8	94.080	0.210	-0.880	-0.270
2020/01/31 03:43:45.9	94.080	0.250	-0.930	-0.290
2020/01/31 03:43:46.0	94.090	0.290	-0.980	-0.300
2020/01/31 03:43:46.1	94.090	0.330	-1.010	-0.300
2020/01/31 03:43:46.2	94.100	0.360	-1.040	-0.300
2020/01/31 03:43:46.3	94.100	0.390	-1.050	-0.290
2020/01/31 03:43:46.4	94.110	0.420	-1.060	-0.270
2020/01/31 03:43:46.5	94.110	0.450	-1.060	-0.250
2020/01/31 03:43:46.6	94.110	0.470	-1.050	-0.210
2020/01/31 03:43:46.7	94.120	0.480	-1.030	-0.180
2020/01/31 03:43:46.8	94.120	0.490	-1.000	-0.140
2020/01/31 03:43:46.9	94.120	0.500	-0.960	-0.090
2020/01/31 03:43:47.0	94.130	0.500	-0.920	-0.040
2020/01/31 03:43:47.1	94.150	0.500	-0.870	0.010
2020/01/31 03:43:47.2	94.150	0.490	-0.820	0.060
2020/01/31 03:43:47.3	94.150	0.480	-0.760	0.120
2020/01/31 03:43:47.4	94.160	0.470	-0.700	0.180
2020/01/31 03:43:47.5	94.160	0.450	-0.630	0.240
2020/01/31 03:43:47.6	94.170	0.430	-0.570	0.290
2020/01/31 03:43:47.7	94.170	0.400	-0.490	0.350
2020/01/31 03:43:47.8	94.170	0.370	-0.420	0.410
2020/01/31 03:43:47.9	94.170	0.340	-0.350	0.470
2020/01/31 03:43:48.0	94.170	0.310	-0.280	0.530
2020/01/31 03:43:48.1	94.180	0.270	-0.210	0.590
2020/01/31 03:43:48.2	94.180	0.230	-0.140	0.640
2020/01/31 03:43:48.3	94.170	0.190	-0.070	0.690
2020/01/31 03:43:48.4	94.170	0.150	-0.000	0.740
2020/01/31 03:43:48.5	94.160	0.110	0.060	0.790
2020/01/31 03:43:48.6	94.150	0.060	0.120	0.840
2020/01/31 03:43:48.7	94.130	0.020	0.170	0.880
2020/01/31 03:43:48.8	94.120	-0.020	0.220	0.920
2020/01/31 03:43:48.9	94.110	-0.060	0.270	0.950
2020/01/31 03:43:49.0	94.090	-0.100	0.310	0.990
2020/01/31 03:43:49.1	94.050	-0.140	0.340	1.010
2020/01/31 03:43:49.2	94.030	-0.170	0.370	1.030
2020/01/31 03:43:49.3	94.010	-0.200	0.390	1.060
2020/01/31 03:43:49.4	93.990	-0.230	0.410	1.070
2020/01/31 03:43:49.5	93.970	-0.260	0.420	1.080
2020/01/31 03:43:49.6	93.950	-0.280	0.420	1.090
2020/01/31 03:43:49.7	93.930	-0.300	0.420	1.100
2020/01/31 03:43:49.8	93.920	-0.310	0.410	1.100
2020/01/31 03:43:49.9	93.900	-0.330	0.400	1.090
2020/01/31 03:43:50.0	93.880	-0.330	0.380	1.080
2020/01/31 03:43:50.1	93.870	-0.340	0.360	1.070
2020/01/31 03:43:50.2	93.860	-0.340	0.330	1.060
2020/01/31 03:43:50.3	93.850	-0.340	0.300	1.050
2020/01/31 03:43:50.4	93.840	-0.330	0.260	1.030
2020/01/31 03:43:50.5	93.830	-0.320	0.220	1.010
2020/01/31 03:43:50.6	93.830	-0.310	0.180	1.000
2020/01/31 03:43:50.7	93.820	-0.300	0.130	0.980
2020/01/31 03:43:50.8	93.820	-0.280	0.090	0.960
2020/01/31 03:43:50.9	93.820	-0.260	0.040	0.940
2020/01/31 03:43:51.0	93.820	-0.240	-0.020	0.920
2020/01/31 03:43:51.1	93.810	-0.210	-0.070	0.900
2020/01/31 03:43:51.2	93.810	-0.190	-0.130	0.890
2020/01/31 03:43:51.3	93.820	-0.160	-0.180	0.880
2020/01/31 03:43:51.4	93.830	-0.130	-0.230	0.870
2020/01/31 03:43:51.5	93.830	-0.100	-0.290	0.860
2020/01/31 03:43:51.6	93.840	-0.070	-0.340	0.850
2020/01/31 03:43:51.7	93.850	-0.040	-0.390	0.840
2020/01/31 03:43:51.8	93.860	-0.010	-0.440	0.840
2020/01/31 03:43:51.9	93.880	0.020	-0.490	0.840
2020/01/31 03:43:52.0	93.890	0.050	-0.540	0.830
2020/01/31 03:43:52.1	93.910	0.080	-0.590	0.830
2020/01/31 03:43:52.2	93.920	0.120	-0.630	0.830
2020/01/31 03:43:52.3	93.940	0.150	-0.670	0.830
2020/01/31 03:43:52.4	93.960	0.170	-0.700	0.830
2020/01/31 03:43:52.5	93.980	0.200	-0.730	0.830
2020/01/31 03:43:52.6	94.000	0.230	-0.760	0.830
2020/01/31 03:43:52.7	94.010	0.250	-0.780	0.830
2020/01/31 03:43:52.8	94.030	0.270	-0.800	0.840
2020/01/31 03:43:52.9	94.050	0.290	-0.810	0.840
2020/01/31 03:43:53.0	94.060	0.310	-0.820	0.840
2020/01/31 03:43:53.1	94.090	0.320	-0.820	0.840
2020/01/31 03:43:53.2	94.100	0.330	-0.820	0.850
2020/01/31 03:43:53.3	94.120	0.340	-0.800	0.850
2020/01/31 03:43:53.4	94.130	0.340	-0.790	0.850
2020/01/31 03:43:53.5	94.130	0.340	-0.760	0.860
2020/01/31 03:43:53.6	94.140	0.340	-0.730	0.860
2020/01/31 03:43:53.7	94.140	0.330	-0.700	0.870
2020/01/31 03:43:53.8	94.140	0.320	-0.660	0.880
2020/01/31 03:43:53.9	94.140	0.300	-0.610	0.890
2020/01/31 03:43:54.0	94.140	0.280	-0.560	0.900
2020/01/31 03:43:54.1	94.120	0.260	-0.500	0.910
2020/01/31 03:43:54.2	94.110	0.230	-0.440	0.930
2020/01/31 03:43:54.3	94.100	0.200	-0.380	0.950
2020/01/31 03:43:54.4	94.080	0.170	-0.310	0.970
2020/01/31 03:43:54.5	94.060	0.130	-0.240	0.990
2020/01/31 03:43:54.6	94.040	0.090	-0.170	1.010
2020/01/31 03:43:54.7	94.020	0.050	-0.100	1.040
2020/01/31 03:43:54.8	93.990	0.010	-0.030	1.070
2020/01/31 03:43:54.9	93.960	-0.030	0.040	1.090
2020/01/31 03:43:55.0	93.930	-0.070	0.100	1.120
2020/01/31 03:43:55.1	93.920	-0.120	0.170	1.150
2020/01/31 03:43:55.2	93.880	-0.160	0.240	1.180
2020/01/31 03:43:55.3	93.850	-0.210	0.300	1.210
2020/01/31 03:43:55.4	93.820	-0.250	0.350	1.240
2020/01/31 03:43:55.5	93.790	-0.290	0.400	1.270
2020/01/31 03:43:55.6	93.750	-0.330	0.450	1.290
2020/01/31 03:43:55.7	93.720	-0.370	0.490	1.310
2020/01/31 03:43:55.8	93.690	-0.400	0.520	1.330
2020/01/31 03:43:55.9	93.660	-0.440	0.550	1.340
2020/01/31 03:43:56.0	93.630	-0.470	0.570	1.340
2020/01/31 03:43:56.1	93.610	-0.490	0.580	1.350
2020/01/31 03:43:56.2	93.590	-0.510	0.590	1.340
2020/01/31 03:43:56.3	93.570	-0.530	0.590	1.330
2020/01/31 03:43:56.4	93.550	-0.550	0.580	1.310
2020/01/31 03:43:56.5	93.540	-0.550	0.570	1.290
2020/01/31 03:43:56.6	93.530	-0.560	0.550	1.260
2020/01/31 03:43:56.7	93.530	-0.560	0.520	1.230
2020/01/31 03:43:56.8	93.530	-0.550	0.480	1.190
2020/01/31 03:43:56.9	93.530	-0.540	0.440	1.150
2020/01/31 03:43:57.0	93.540	-0.530	0.390	1.100
2020/01/31 03:43:57.1	93.550	-0.500	0.330	1.050
2020/01/31 03:43:57.2	93.570	-0.480	0.270	0.990
2020/01/31 03:43:57.3	93.590	-0.450	0.190	0.940
2020/01/31 03:43:57.4	93.610	-0.410	0.120	0.880
2020/01/31 03:43:57.5	93.630	-0.370	0.040	0.820
2020/01/31 03:43:57.6	93.660	-0.320	-0.050	0.760
2020/01/31 03:43:57.7	93.680	-0.270	-0.140	0.710
2020/01/31 03:43:57.8	93.710	-0.210	-0.240	0.650
2020/01/31 03:43:57.9	93.740	-0.150	-0.340	0.600
2020/01/31 03:43:58.0	93.770	-0.090	-0.440	0.550
2020/01/31 03:43:58.1	93.790	-0.030	-0.540	0.490
2020/01/31 03:43:58.2	93.820	0.040	-0.640	0.450
2020/01/31 03:43:58.3	93.850	0.110	-0.730	0.410
2020/01/31 03:43:58.4	93.870	0.180	-0.830	0.370
2020/01/31 03:43:58.5	93.900	0.250	-0.910	0.330
2020/01/31 03:43:58.6	93.920	0.320	-1.000	0.300
2020/01/31 03:43:58.7	93.940	0.380	-1.070	0.280
2020/01/31 03:43:58.8	93.960	0.450	-1.140	0.260
2020/01/31 03:43:58.9	93.980	0.510	-1.190	0.250
2020/01/31 03:43:59.0	93.990	0.570	-1.240	0.240
2020/01/31 03:43:59.1	94.020	0.620	-1.270	0.240
2020/01/31 03:43:59.2	94.020	0.660	-1.300	0.240
2020/01/31 03:43:59.3	94.030	0.700	-1.310	0.250
2020/01/31 03:43:59.4	94.030	0.740	-1.300	0.270
2020/01/31 03:43:59.5	94.040	0.770	-1.280	0.290
2020/01/31 03:43:59.6	94.040	0.790	-1.250	0.320
2020/01/31 03:43:59.7	94.030	0.800	-1.210	0.350
2020/01/31 03:43:59.8	94.030	0.800	-1.160	0.380
2020/01/31 03:43:59.9	94.020	0.800	-1.090	0.420
2020/01/31 03:44:00.0	94.020	0.790	-1.010	0.470
2020/01/31 03:44:00.1	94.000	0.770	-0.920	0.510
2020/01/31 03:44:00.2	93.990	0.740	-0.820	0.560
2020/01/31 03:44:00.3	93.980	0.710	-0.720	0.610
2020/01/31 03:44:00.4	93.970	0.670	-0.610	0.660
2020/01/31 03:44:00.5	93.960	0.620	-0.490	0.720
2020/01/31 03:44:00.6	93.940	0.570	-0.370	0.770
2020/01/31 03:44:00.7	93.930	0.510	-0.250	0.820
2020/01/31 03:44:00.8	93.910	0.450	-0.130	0.870
2020/01/31 03:44:00.9	93.900	0.380	-0.010	0.920
2020/01/31 03:44:01.0	93.880	0.310	0.110	0.970
2020/01/31 03:44:01.1	93.850	0.230	0.230	1.010
2020/01/31 03:44:01.2	93.840	0.160	0.340	1.050
2020/01/31 03:44:01.3	93.820	0.080	0.440	1.090
2020/01/31 03:44:01.4	93.800	0.000	0.540	1.130
2020/01/31 03:44:01.5	93.780	-0.070	0.620	1.160
2020/01/31 03:44:01.6	93.760	-0.150	0.700	1.190
2020/01/31 03:44:01.7	93.750	-0.220	0.770	1.210
2020/01/31 03:44:01.8	93.730	-0.290	0.820	1.230
2020/01/31 03:44:01.9	93.710	-0.360	0.860	1.250
2020/01/31 03:44:02.0	93.690	-0.420	0.890	1.260
2020/01/31 03:44:02.1	93.670	-0.480	0.910	1.260
2020/01/31 03:44:02.2	93.650	-0.530	0.910	1.270
2020/01/31 03:44:02.3	93.630	-0.580	0.900	1.270
2020/01/31 03:44:02.4	93.610	-0.620	0.880	1.270
2020/01/31 03:44:02.5	93.590	-0.650	0.850	1.270
2020/01/31 03:44:02.6	93.570	-0.680	0.800	1.260
2020/01/31 03:44:02.7	93.550	-0.700	0.740	1.250
2020/01/31 03:44:02.8	93.540	-0.710	0.680	1.240
2020/01/31 03:44:02.9	93.520	-0.720	0.600	1.220
2020/01/31 03:44:03.0	93.500	-0.720	0.520	1.200
2020/01/31 03:44:03.1	93.470	-0.710	0.430	1.180
2020/01/31 03:44:03.2	93.450	-0.700	0.330	1.160
2020/01/31 03:44:03.3	93.440	-0.680	0.230	1.130
2020/01/31 03:44:03.4	93.430	-0.660	0.130	1.100
2020/01/31 03:44:03.5	93.420	-0.630	0.020	1.070
2020/01/31 03:44:03.6	93.410	-0.590	-0.080	1.040
2020/01/31 03:44:03.7	93.400	-0.550	-0.190	1.010
2020/01/31 03:44:03.8	93.400	-0.510	-0.290	0.980
2020/01/31 03:44:03.9	93.400	-0.470	-0.400	0.940
2020/01/31 03:44:04.0	93.390	-0.420	-0.500	0.910
2020/01/31 03:44:04.1	93.410	-0.360	-0.600	0.880
2020/01/31 03:44:04.2	93.410	-0.310	-0.690	0.850
2020/01/31 03:44:04.3	93.410	-0.250	-0.780	0.830
2020/01/31 03:44:04.4	93.410	-0.190	-0.870	0.810
2020/01/31 03:44:04.5	93.420	-0.130	-0.950	0.790
2020/01/31 03:44:04.6	93.420	-0.070	-1.020	0.780
2020/01/31 03:44:04.7	93.420	-0.010	-1.080	0.770
2020/01/31 03:44:04.8	93.430	0.050	-1.140	0.760
2020/01/31 03:44:04.9	93.430	0.110	-1.190	0.760
2020/01/31 03:44:05.0	93.440	0.170	-1.230	0.750
2020/01/31 03:44:05.1	93.440	0.230	-1.260	0.750
2020/01/31 03:44:05.2	93.450	0.280	-1.280	0.760
2020/01/31 03:44:05.3	93.460	0.340	-1.290	0.760
2020/01/31 03:44:05.4	93.470	0.390	-1.290	0.770
2020/01/31 03:44:05.5	93.480	0.440	-1.290	0.770
2020/01/31 03:44:05.6	93.490	0.480	-1.270	0.780
2020/01/31 03:44:05.7	93.500	0.520	-1.250	0.790
2020/01/31 03:44:05.8	93.510	0.560	-1.210	0.800
2020/01/31 03:44:05.9	93.520	0.590	-1.170	0.810
2020/01/31 03:44:06.0	93.530	0.620	-1.120	0.820
2020/01/31 03:44:06.1	93.540	0.650	-1.070	0.820
2020/01/31 03:44:06.2	93.550	0.660	-1.010	0.830
2020/01/31 03:44:06.3	93.550	0.680	-0.940	0.840
2020/01/31 03:44:06.4	93.560	0.690	-0.860	0.850
2020/01/31 03:44:06.5	93.570	0.690	-0.780	0.860
2020/01/31 03:44:06.6	93.570	0.690	-0.690	0.870
2020/01/31 03:44:06.7	93.580	0.680	-0.600	0.870
2020/01/31 03:44:06.8	93.580	0.670	-0.500	0.880
2020/01/31 03:44:06.9	93.580	0.650	-0.410	0.890
2020/01/31 03:44:07.0	93.580	0.630	-0.310	0.890
2020/01/31 03:44:07.1	93.570	0.600	-0.200	0.900
2020/01/31 03:44:07.2	93.570	0.570	-0.100	0.910
2020/01/31 03:44:07.3	93.560	0.530	-0.010	0.910
2020/01/31 03:44:07.4	93.560	0.490	0.090	0.920
2020/01/31 03:44:07.5	93.550	0.440	0.180	0.920
2020/01/31 03:44:07.6	93.540	0.400	0.270	0.930
2020/01/31 03:44:07.7	93.530	0.350	0.350	0.940
2020/01/31 03:44:07.8	93.520	0.290	0.430	0.940
2020/01/31 03:44:07.9	93.510	0.240	0.500	0.940
2020/01/31 03:44:08.0	93.490	0.190	0.560	0.950
2020/01/31 03:44:08.1	93.480	0.130	0.620	0.950
2020/01/31 03:44:08.2	93.470	0.070	0.670	0.950
2020/01/31 03:44:08.3	93.450	0.020	0.710	0.950
2020/01/31 03:44:08.4	93.440	-0.040	0.740	0.950
2020/01/31 03:44:08.5	93.430	-0.090	0.760	0.950
2020/01/31 03:44:08.6	93.420	-0.140	0.780	0.940
2020/01/31 03:44:08.7	93.410	-0.190	0.780	0.940
2020/01/31 03:44:08.8	93.400	-0.240	0.780	0.930
2020/01/31 03:44:08.9	93.400	-0.280	0.770	0.920
2020/01/31 03:44:09.0	93.390	-0.320	0.760	0.910
2020/01/31 03:44:09.1	93.380	-0.360	0.730	0.900
2020/01/31 03:44:09.2	93.380	-0.400	0.700	0.890
2020/01/31 03:44:09.3	93.380	-0.430	0.660	0.880
2020/01/31 03:44:09.4	93.380	-0.450	0.620	0.860
2020/01/31 03:44:09.5	93.380	-0.480	0.570	0.840
2020/01/31 03:44:09.6	93.390	-0.490	0.520	0.830
2020/01/31 03:44:09.7	93.400	-0.510	0.460	0.810
2020/01/31 03:44:09.8	93.410	-0.520	0.400	0.790
2020/01/31 03:44:09.9	93.420	-0.520	0.340	0.770
2020/01/31 03:44:10.0	93.430	-0.530	0.280	0.750
2020/01/31 03:44:10.1	93.430	-0.530	0.220	0.720
2020/01/31 03:44:10.2	93.450	-0.520	0.150	0.700
2020/01/31 03:44:10.3	93.460	-0.510	0.090	0.680
2020/01/31 03:44:10.4	93.480	-0.500	0.030	0.660
2020/01/31 03:44:10.5	93.490	-0.490	-0.030	0.640
2020/01/31 03:44:10.6	93.510	-0.470	-0.090	0.630
2020/01/31 03:44:10.7	93.520	-0.460	-0.140	0.610
2020/01/31 03:44:10.8	93.540	-0.440	-0.190	0.600
2020/01/31 03:44:10.9	93.550	-0.420	-0.240	0.590
2020/01/31 03:44:11.0	93.560	-0.390	-0.290	0.580
2020/01/31 03:44:11.1	93.580	-0.370	-0.330	0.570
2020/01/31 03:44:11.2	93.590	-0.350	-0.370	0.570
2020/01/31 03:44:11.3	93.600	-0.320	-0.410	0.570
2020/01/31 03:44:11.4	93.600	-0.300	-0.440	0.580
2020/01/31 03:44:11.5	93.610	-0.280	-0.470	0.580
2020/01/31 03:44:11.6	93.620	-0.250	-0.500	0.590
2020/01/31 03:44:11.7	93.620	-0.230	-0.530	0.610
2020/01/31 03:44:11.8	93.620	-0.210	-0.550	0.620
2020/01/31 03:44:11.9	93.620	-0.190	-0.570	0.640
2020/01/31 03:44:12.0	93.620	-0.170	-0.580	0.660
2020/01/31 03:44:12.1	93.620	-0.150	-0.600	0.690
2020/01/31 03:44:12.2	93.620	-0.130	-0.610	0.710
2020/01/31 03:44:12.3	93.610	-0.120	-0.610	0.740
2020/01/31 03:44:12.4	93.610	-0.110	-0.620	0.770
2020/01/31 03:44:12.5	93.600	-0.090	-0.630	0.790
2020/01/31 03:44:12.6	93.590	-0.080	-0.630	0.820
2020/01/31 03:44:12.7	93.590	-0.070	-0.630	0.850
2020/01/31 03:44:12.8	93.580	-0.060	-0.630	0.880
2020/01/31 03:44:12.9	93.570	-0.060	-0.630	0.910
2020/01/31 03:44:13.0	93.570	-0.050	-0.630	0.930
2020/01/31 03:44:13.1	93.570	-0.040	-0.630	0.960
2020/01/31 03:44:13.2	93.560	-0.040	-0.630	0.980
2020/01/31 03:44:13.3	93.550	-0.030	-0.630	1.010
2020/01/31 03:44:13.4	93.540	-0.030	-0.630	1.030
2020/01/31 03:44:13.5	93.540	-0.020	-0.630	1.060
2020/01/31 03:44:13.6	93.530	-0.010	-0.630	1.080
2020/01/31 03:44:13.7	93.530	-0.000	-0.620	1.100
2020/01/31 03:44:13.8	93.520	0.000	-0.620	1.120
2020/01/31 03:44:13.9	93.520	0.010	-0.630	1.140
2020/01/31 03:44:14.0	93.510	0.020	-0.630	1.150
2020/01/31 03:44:14.1	93.520	0.030	-0.630	1.170
2020/01/31 03:44:14.2	93.520	0.050	-0.630	1.180
2020/01/31 03:44:14.3	93.520	0.060	-0.630	1.190
2020/01/31 03:44:14.4	93.510	0.070	-0.630	1.200
2020/01/31 03:44:14.5	93.500	0.090	-0.630	1.210
2020/01/31 03:44:14.6	93.500	0.110	-0.630	1.220
2020/01/31 03:44:14.7	93.490	0.120	-0.630	1.220
2020/01/31 03:44:14.8	93.480	0.140	-0.630	1.230
2020/01/31 03:44:14.9	93.470	0.160	-0.620	1.230
2020/01/31 03:44:15.0	93.460	0.170	-0.620	1.230
2020/01/31 03:44:15.1	93.450	0.190	-0.610	1.220
2020/01/31 03:44:15.2	93.440	0.200	-0.600	1.210
2020/01/31 03:44:15.3	93.430	0.220	-0.590	1.210
2020/01/31 03:44:15.4	93.410	0.230	-0.570	1.190
2020/01/31 03:44:15.5	93.400	0.250	-0.550	1.180
2020/01/31 03:44:15.6	93.390	0.260	-0.530	1.160
2020/01/31 03:44:15.7	93.370	0.270	-0.510	1.140
2020/01/31 03:44:15.8	93.360	0.280	-0.480	1.120
2020/01/31 03:44:15.9	93.350	0.280	-0.450	1.100
2020/01/31 03:44:16.0	93.340	0.290	-0.420	1.070
2020/01/31 03:44:16.1	93.320	0.290	-0.380	1.040
2020/01/31 03:44:16.2	93.310	0.290	-0.340	1.010
2020/01/31 03:44:16.3	93.300	0.290	-0.300	0.990
2020/01/31 03:44:16.4	93.290	0.290	-0.260	0.960
2020/01/31 03:44:16.5	93.270	0.290	-0.210	0.930
2020/01/31 03:44:16.6	93.260	0.280	-0.170	0.900
2020/01/31 03:44:16.7	93.250	0.280	-0.120	0.870
2020/01/31 03:44:16.8	93.240	0.270	-0.080	0.840
2020/01/31 03:44:16.9	93.220	0.260	-0.030	0.810
2020/01/31 03:44:17.0	93.210	0.250	0.020	0.780
2020/01/31 03:44:17.1	93.210	0.240	0.060	0.750
2020/01/31 03:44:17.2	93.200	0.230	0.100	0.720
2020/01/31 03:44:17.3	93.180	0.220	0.140	0.690
2020/01/31 03:44:17.4	93.170	0.200	0.180	0.650
2020/01/31 03:44:17.5	93.150	0.190	0.210	0.620
2020/01/31 03:44:17.6	93.140	0.180	0.240	0.590
2020/01/31 03:44:17.7	93.120	0.170	0.270	0.550
2020/01/31 03:44:17.8	93.100	0.150	0.290	0.520
2020/01/31 03:44:17.9	93.080	0.140	0.310	0.480
2020/01/31 03:44:18.0	93.060	0.130	0.330	0.450
2020/01/31 03:44:18.1	93.040	0.120	0.340	0.420
2020/01/31 03:44:18.2	93.010	0.110	0.340	0.390
2020/01/31 03:44:18.3	92.990	0.110	0.340	0.360
2020/01/31 03:44:18.4	92.960	0.100	0.340	0.330
2020/01/31 03:44:18.5	92.930	0.100	0.320	0.300
2020/01/31 03:44:18.6	92.900	0.090	0.310	0.270
2020/01/31 03:44:18.7	92.880	0.090	0.290	0.240
2020/01/31 03:44:18.8	92.850	0.090	0.260	0.210
2020/01/31 03:44:18.9	92.830	0.090	0.240	0.190
2020/01/31 03:44:19.0	92.800	0.090	0.200	0.160
2020/01/31 03:44:19.1	92.780	0.100	0.160	0.140
2020/01/31 03:44:19.2	92.770	0.100	0.120	0.110
2020/01/31 03:44:19.3	92.750	0.110	0.070	0.100
2020/01/31 03:44:19.4	92.750	0.120	0.030	0.080
2020/01/31 03:44:19.5	92.750	0.120	-0.020	0.060
2020/01/31 03:44:19.6	92.750	0.130	-0.070	0.050
2020/01/31 03:44:19.7	92.760	0.140	-0.130	0.040
2020/01/31 03:44:19.8	92.770	0.150	-0.180	0.040
2020/01/31 03:44:19.9	92.790	0.160	-0.240	0.030
2020/01/31 03:44:20.0	92.810	0.170	-0.290	0.030
2020/01/31 03:44:20.1	92.850	0.180	-0.340	0.030
2020/01/31 03:44:20.2	92.880	0.200	-0.400	0.030
2020/01/31 03:44:20.3	92.920	0.210	-0.450	0.040
2020/01/31 03:44:20.4	92.970	0.220	-0.500	0.050
2020/01/31 03:44:20.5	93.020	0.230	-0.550	0.070
2020/01/31 03:44:20.6	93.070	0.230	-0.590	0.080
2020/01/31 03:44:20.7	93.130	0.240	-0.630	0.100
2020/01/31 03:44:20.8	93.180	0.250	-0.670	0.130
2020/01/31 03:44:20.9	93.250	0.250	-0.700	0.160
2020/01/31 03:44:21.0	93.310	0.250	-0.730	0.190
2020/01/31 03:44:21.1	93.370	0.250	-0.750	0.220
2020/01/31 03:44:21.2	93.430	0.250	-0.760	0.260
2020/01/31 03:44:21.3	93.490	0.240	-0.770	0.290
2020/01/31 03:44:21.4	93.550	0.240	-0.770	0.330
2020/01/31 03:44:21.5	93.610	0.220	-0.760	0.380
2020/01/31 03:44:21.6	93.670	0.210	-0.750	0.420
2020/01/31 03:44:21.7	93.720	0.190	-0.720	0.460
2020/01/31 03:44:21.8	93.770	0.180	-0.690	0.510
2020/01/31 03:44:21.9	93.810	0.150	-0.660	0.560
2020/01/31 03:44:22.0	93.850	0.130	-0.620	0.610
2020/01/31 03:44:22.1	93.890	0.100	-0.570	0.660
2020/01/31 03:44:22.2	93.930	0.070	-0.510	0.720
2020/01/31 03:44:22.3	93.950	0.040	-0.460	0.780
2020/01/31 03:44:22.4	93.970	0.010	-0.400	0.840
2020/01/31 03:44:22.5	93.990	-0.030	-0.330	0.900
2020/01/31 03:44:22.6	94.000	-0.060	-0.260	0.960
2020/01/31 03:44:22.7	94.010	-0.100	-0.190	1.030
2020/01/31 03:44:22.8	94.010	-0.140	-0.120	1.100
2020/01/31 03:44:22.9	94.000	-0.180	-0.050	1.170
2020/01/31 03:44:23.0	93.990	-0.220	0.020	1.240
2020/01/31 03:44:23.1	93.990	-0.270	0.090	1.310
2020/01/31 03:44:23.2	93.970	-0.310	0.160	1.390
2020/01/31 03:44:23.3	93.950	-0.350	0.230	1.460
2020/01/31 03:44:23.4	93.920	-0.390	0.290	1.540
2020/01/31 03:44:23.5	93.900	-0.430	0.350	1.610
2020/01/31 03:44:23.6	93.870	-0.470	0.410	1.680
2020/01/31 03:44:23.7	93.840	-0.510	0.460	1.750
2020/01/31 03:44:23.8	93.810	-0.550	0.510	1.820
2020/01/31 03:44:23.9	93.770	-0.580	0.550	1.880
2020/01/31 03:44:24.0	93.740	-0.610	0.580	1.940
2020/01/31 03:44:24.1	93.700	-0.650	0.610	2.000
2020/01/31 03:44:24.2	93.670	-0.670	0.620	2.050
2020/01/31 03:44:24.3	93.640	-0.700	0.640	2.090
2020/01/31 03:44:24.4	93.610	-0.720	0.640	2.130
2020/01/31 03:44:24.5	93.570	-0.740	0.630	2.160
2020/01/31 03:44:24.6	93.540	-0.760	0.620	2.190
2020/01/31 03:44:24.7	93.520	-0.770	0.600	2.200
2020/01/31 03:44:24.8	93.490	-0.780	0.560	2.210
2020/01/31 03:44:24.9	93.460	-0.790	0.530	2.210
2020/01/31 03:44:25.0	93.440	-0.790	0.480	2.200
2020/01/31 03:44:25.1	93.420	-0.790	0.420	2.170
2020/01/31 03:44:25.2	93.400	-0.780	0.360	2.150
2020/01/31 03:44:25.3	93.380	-0.770	0.300	2.110
2020/01/31 03:44:25.4	93.370	-0.760	0.220	2.070
2020/01/31 03:44:25.5	93.360	-0.740	0.150	2.020
2020/01/31 03:44:25.6	93.340	-0.720	0.070	1.970
2020/01/31 03:44:25.7	93.340	-0.690	-0.020	1.900
2020/01/31 03:44:25.8	93.330	-0.670	-0.100	1.830
2020/01/31 03:44:25.9	93.330	-0.630	-0.190	1.750
2020/01/31 03:44:26.0	93.320	-0.600	-0.280	1.670
2020/01/31 03:44:26.1	93.320	-0.560	-0.360	1.580
2020/01/31 03:44:26.2	93.320	-0.510	-0.450	1.500
2020/01/31 03:44:26.3	93.330	-0.470	-0.530	1.400
2020/01/31 03:44:26.4	93.330	-0.420	-0.620	1.310
2020/01/31 03:44:26.5	93.340	-0.370	-0.690	1.220
2020/01/31 03:44:26.6	93.350	-0.320	-0.770	1.120
2020/01/31 03:44:26.7	93.360	-0.270	-0.840	1.030
2020/01/31 03:44:26.8	93.370	-0.210	-0.900	0.940
2020/01/31 03:44:26.9	93.390	-0.150	-0.960	0.850
2020/01/31 03:44:27.0	93.400	-0.090	-1.010	0.760
2020/01/31 03:44:27.1	93.400	-0.040	-1.060	0.680
2020/01/31 03:44:27.2	93.420	0.020	-1.100	0.600
2020/01/31 03:44:27.3	93.430	0.080	-1.140	0.520
2020/01/31 03:44:27.4	93.450	0.140	-1.170	0.460
2020/01/31 03:44:27.5	93.460	0.190	-1.190	0.390
2020/01/31 03:44:27.6	93.470	0.250	-1.210	0.340
2020/01/31 03:44:27.7	93.480	0.300	-1.220	0.290
2020/01/31 03:44:27.8	93.490	0.360	-1.220	0.250
2020/01/31 03:44:27.9	93.500	0.410	-1.220	0.210
2020/01/31 03:44:28.0	93.510	0.460	-1.210	0.180
2020/01/31 03:44:28.1	93.510	0.500	-1.190	0.160
2020/01/31 03:44:28.2	93.520	0.540	-1.170	0.140
2020/01/31 03:44:28.3	93.530	0.580	-1.150	0.130
2020/01/31 03:44:28.4	93.530	0.620	-1.120	0.130
2020/01/31 03:44:28.5	93.540	0.650	-1.080	0.130
2020/01/31 03:44:28.6	93.540	0.680	-1.040	0.130
2020/01/31 03:44:28.7	93.540	0.710	-0.990	0.130
2020/01/31 03:44:28.8	93.540	0.730	-0.940	0.140
2020/01/31 03:44:28.9	93.540	0.740	-0.890	0.150
2020/01/31 03:44:29.0	93.540	0.760	-0.840	0.160
2020/01/31 03:44:29.1	93.520	0.770	-0.780	0.180
2020/01/31 03:44:29.2	93.520	0.770	-0.720	0.190
2020/01/31 03:44:29.3	93.520	0.770	-0.650	0.210
2020/01/31 03:44:29.4	93.520	0.770	-0.590	0.220
2020/01/31 03:44:29.5	93.520	0.760	-0.520	0.240
2020/01/31 03:44:29.6	93.520	0.750	-0.450	0.260
2020/01/31 03:44:29.7	93.510	0.730	-0.380	0.280
2020/01/31 03:44:29.8	93.510	0.710	-0.310	0.300
2020/01/31 03:44:29.9	93.500	0.690	-0.240	0.310
2020/01/31 03:44:30.0	93.500	0.670	-0.170	0.330
2020/01/31 03:44:30.1	93.500	0.640	-0.110	0.350
2020/01/31 03:44:30.2	93.490	0.610	-0.040	0.370
2020/01/31 03:44:30.3	93.480	0.570	0.020	0.390
2020/01/31 03:44:30.4	93.470	0.540	0.090	0.410
2020/01/31 03:44:30.5	93.470	0.500	0.150	0.430
2020/01/31 03:44:30.6	93.460	0.460	0.200	0.450
2020/01/31 03:44:30.7	93.450	0.420	0.260	0.480
2020/01/31 03:44:30.8	93.440	0.370	0.310	0.500
2020/01/31 03:44:30.9	93.440	0.330	0.360	0.520
2020/01/31 03:44:31.0	93.430	0.290	0.400	0.540
2020/01/31 03:44:31.1	93.400	0.240	0.450	0.560
2020/01/31 03:44:31.2	93.400	0.200	0.490	0.580
2020/01/31 03:44:31.3	93.390	0.150	0.530	0.600
2020/01/31 03:44:31.4	93.390	0.100	0.560	0.620
2020/01/31 03:44:31.5	93.380	0.060	0.590	0.630
2020/01/31 03:44:31.6	93.380	0.010	0.620	0.640
2020/01/31 03:44:31.7	93.380	-0.030	0.640	0.650
2020/01/31 03:44:31.8	93.380	-0.080	0.660	0.660
2020/01/31 03:44:31.9	93.390	-0.120	0.680	0.660
2020/01/31 03:44:32.0	93.390	-0.160	0.690	0.660
2020/01/31 03:44:32.1	93.410	-0.200	0.690	0.650
2020/01/31 03:44:32.2	93.420	-0.240	0.690	0.650
2020/01/31 03:44:32.3	93.430	-0.280	0.690	0.640
2020/01/31 03:44:32.4	93.450	-0.320	0.690	0.630
2020/01/31 03:44:32.5	93.460	-0.350	0.680	0.610
2020/01/31 03:44:32.6	93.480	-0.380	0.670	0.600
2020/01/31 03:44:32.7	93.510	-0.410	0.650	0.580
2020/01/31 03:44:32.8	93.530	-0.440	0.620	0.560
2020/01/31 03:44:32.9	93.560	-0.460	0.590	0.540
2020/01/31 03:44:33.0	93.590	-0.480	0.560	0.520
2020/01/31 03:44:33.1	93.610	-0.500	0.520	0.500
2020/01/31 03:44:33.2	93.640	-0.510	0.480	0.480
2020/01/31 03:44:33.3	93.670	-0.520	0.430	0.460
2020/01/31 03:44:33.4	93.710	-0.520	0.380	0.450
2020/01/31 03:44:33.5	93.740	-0.530	0.320	0.430
2020/01/31 03:44:33.6	93.770	-0.520	0.260	0.420
2020/01/31 03:44:33.7	93.800	-0.520	0.200	0.400
2020/01/31 03:44:33.8	93.830	-0.510	0.130	0.390
2020/01/31 03:44:33.9	93.860	-0.490	0.060	0.390
2020/01/31 03:44:34.0	93.890	-0.470	-0.020	0.380
2020/01/31 03:44:34.1	93.920	-0.450	-0.100	0.380
2020/01/31 03:44:34.2	93.950	-0.420	-0.180	0.390
2020/01/31 03:44:34.3	93.960	-0.390	-0.260	0.390
2020/01/31 03:44:34.4	93.980	-0.350	-0.340	0.400
2020/01/31 03:44:34.5	94.000	-0.310	-0.420	0.410
2020/01/31 03:44:34.6	94.010	-0.270	-0.510	0.430
2020/01/31 03:44:34.7	94.020	-0.220	-0.590	0.450
2020/01/31 03:44:34.8	94.020	-0.170	-0.670	0.470
2020/01/31 03:44:34.9	94.020	-0.120	-0.750	0.500
2020/01/31 03:44:35.0	94.020	-0.060	-0.830	0.530
2020/01/31 03:44:35.1	94.020	-0.010	-0.900	0.570
2020/01/31 03:44:35.2	94.010	0.050	-0.970	0.610
2020/01/31 03:44:35.3	94.000	0.100	-1.040	0.650
2020/01/31 03:44:35.4	93.980	0.160	-1.100	0.690
2020/01/31 03:44:35.5	93.970	0.210	-1.160	0.740
2020/01/31 03:44:35.6	93.950	0.260	-1.200	0.780
2020/01/31 03:44:35.7	93.930	0.310	-1.250	0.830
2020/01/31 03:44:35.8	93.910	0.360	-1.280	0.880
2020/01/31 03:44:35.9	93.890	0.400	-1.310	0.930
2020/01/31 03:44:36.0	93.870	0.440	-1.320	0.970
2020/01/31 03:44:36.1	93.850	0.470	-1.340	1.020
2020/01/31 03:44:36.2	93.830	0.500	-1.340	1.060
2020/01/31 03:44:36.3	93.810	0.520	-1.330	1.110
2020/01/31 03:44:36.4	93.800	0.530	-1.310	1.150
2020/01/31 03:44:36.5	93.780	0.540	-1.280	1.180
2020/01/31 03:44:36.6	93.760	0.550	-1.250	1.220
2020/01/31 03:44:36.7	93.750	0.540	-1.200	1.250
2020/01/31 03:44:36.8	93.740	0.530	-1.150	1.280
2020/01/31 03:44:36.9	93.730	0.520	-1.090	1.300
2020/01/31 03:44:37.0	93.720	0.500	-1.020	1.320
2020/01/31 03:44:37.1	93.720	0.470	-0.940	1.340
2020/01/31 03:44:37.2	93.720	0.430	-0.850	1.350
2020/01/31 03:44:37.3	93.710	0.400	-0.770	1.360
2020/01/31 03:44:37.4	93.710	0.350	-0.670	1.370
2020/01/31 03:44:37.5	93.710	0.300	-0.570	1.370
2020/01/31 03:44:37.6	93.710	0.250	-0.470	1.360
2020/01/31 03:44:37.7	93.710	0.200	-0.370	1.360
2020/01/31 03:44:37.8	93.710	0.140	-0.260	1.350
2020/01/31 03:44:37.9	93.710	0.070	-0.150	1.340
2020/01/31 03:44:38.0	93.700	0.010	-0.040	1.330
2020/01/31 03:44:38.1	93.690	-0.050	0.060	1.310
2020/01/31 03:44:38.2	93.690	-0.120	0.170	1.300
2020/01/31 03:44:38.3	93.690	-0.180	0.270	1.290
2020/01/31 03:44:38.4	93.690	-0.250	0.370	1.280
2020/01/31 03:44:38.5	93.680	-0.310	0.460	1.260
2020/01/31 03:44:38.6	93.680	-0.370	0.550	1.250
2020/01/31 03:44:38.7	93.680	-0.430	0.630	1.240
2020/01/31 03:44:38.8	93.670	-0.490	0.710	1.230
2020/01/31 03:44:38.9	93.660	-0.540	0.770	1.210
2020/01/31 03:44:39.0	93.660	-0.590	0.820	1.200
2020/01/31 03:44:39.1	93.660	-0.640	0.870	1.190
2020/01/31 03:44:39.2	93.650	-0.670	0.910	1.170
2020/01/31 03:44:39.3	93.650	-0.710	0.930	1.160
2020/01/31 03:44:39.4	93.640	-0.740	0.940	1.140
2020/01/31 03:44:39.5	93.640	-0.760	0.940	1.120
2020/01/31 03:44:39.6	93.630	-0.770	0.920	1.090
2020/01/31 03:44:39.7	93.630	-0.780	0.890	1.070
2020/01/31 03:44:39.8	93.630	-0.790	0.860	1.040
2020/01/31 03:44:39.9	93.630	-0.780	0.800	1.010
2020/01/31 03:44:40.0	93.630	-0.770	0.740	0.980
2020/01/31 03:44:40.1	93.640	-0.750	0.670	0.940
2020/01/31 03:44:40.2	93.640	-0.730	0.580	0.900
2020/01/31 03:44:40.3	93.650	-0.700	0.490	0.870
2020/01/31 03:44:40.4	93.650	-0.660	0.390	0.830
2020/01/31 03:44:40.5	93.660	-0.620	0.290	0.790
2020/01/31 03:44:40.6	93.660	-0.570	0.170	0.760
2020/01/31 03:44:40.7	93.670	-0.520	0.060	0.730
2020/01/31 03:44:40.8	93.680	-0.460	-0.060	0.690
2020/01/31 03:44:40.9	93.680	-0.400	-0.180	0.660
2020/01/31 03:44:41.0	93.690	-0.340	-0.310	0.640
2020/01/31 03:44:41.1	93.690	-0.270	-0.430	0.610
2020/01/31 03:44:41.2	93.700	-0.210	-0.550	0.590
2020/01/31 03:44:41.3	93.710	-0.140	-0.660	0.560
2020/01/31 03:44:41.4	93.720	-0.070	-0.760	0.540
2020/01/31 03:44:41.5	93.730	0.000	-0.860	0.520
2020/01/31 03:44:41.6	93.740	0.070	-0.950	0.510
2020/01/31 03:44:41.7	93.750	0.140	-1.030	0.490
2020/01/31 03:44:41.8	93.770	0.210	-1.100	0.480
2020/01/31 03:44:41.9	93.780	0.270	-1.150	0.470
2020/01/31 03:44:42.0	93.790	0.330	-1.200	0.450
2020/01/31 03:44:42.1	93.820	0.390	-1.230	0.440
2020/01/31 03:44:42.2	93.840	0.440	-1.250	0.430
2020/01/31 03:44:42.3	93.850	0.480	-1.260	0.420
2020/01/31 03:44:42.4	93.870	0.520	-1.250	0.410
2020/01/31 03:44:42.5	93.880	0.560	-1.230	0.410
2020/01/31 03:44:42.6	93.900	0.580	-1.190	0.400
2020/01/31 03:44:42.7	93.910	0.600	-1.140	0.400
2020/01/31 03:44:42.8	93.930	0.620	-1.080	0.400
2020/01/31 03:44:42.9	93.940	0.620	-1.010	0.400
2020/01/31 03:44:43.0	93.950	0.620	-0.930	0.400
2020/01/31 03:44:43.1	93.960	0.610	-0.840	0.400
2020/01/31 03:44:43.2	93.970	0.600	-0.730	0.410
2020/01/31 03:44:43.3	93.980	0.580	-0.630	0.420
2020/01/31 03:44:43.4	93.980	0.550	-0.510	0.430
2020/01/31 03:44:43.5	93.980	0.520	-0.390	0.450
2020/01/31 03:44:43.6	93.980	0.480	-0.270	0.460
2020/01/31 03:44:43.7	93.980	0.430	-0.150	0.480
2020/01/31 03:44:43.8	93.970	0.380	-0.020	0.500
2020/01/31 03:44:43.9	93.960	0.330	0.100	0.520
2020/01/31 03:44:44.0	93.950	0.270	0.220	0.550
2020/01/31 03:44:44.1	93.950	0.210	0.350	0.580
2020/01/31 03:44:44.2	93.930	0.150	0.460	0.600
2020/01/31 03:44:44.3	93.910	0.080	0.570	0.630
2020/01/31 03:44:44.4	93.890	0.020	0.670	0.660
2020/01/31 03:44:44.5	93.860	-0.050	0.760	0.680
2020/01/31 03:44:44.6	93.840	-0.110	0.840	0.710
2020/01/31 03:44:44.7	93.810	-0.180	0.910	0.740
2020/01/31 03:44:44.8	93.780	-0.240	0.970	0.760
2020/01/31 03:44:44.9	93.740	-0.300	1.020	0.780
2020/01/31 03:44:45.0	93.710	-0.350	1.060	0.800
2020/01/31 03:44:45.1	93.650	-0.400	1.080	0.820
2020/01/31 03:44:45.2	93.620	-0.450	1.090	0.830
2020/01/31 03:44:45.3	93.590	-0.490	1.080	0.850
2020/01/31 03:44:45.4	93.560	-0.520	1.060	0.860
2020/01/31 03:44:45.5	93.530	-0.550	1.030	0.870
2020/01/31 03:44:45.6	93.500	-0.570	0.980	0.880
2020/01/31 03:44:45.7	93.480	-0.580	0.920	0.880
2020/01/31 03:44:45.8	93.450	-0.590	0.850	0.880
2020/01/31 03:44:45.9	93.430	-0.590	0.760	0.880
2020/01/31 03:44:46.0	93.410	-0.580	0.660	0.880
2020/01/31 03:44:46.1	93.410	-0.570	0.550	0.860
2020/01/31 03:44:46.2	93.400	-0.540	0.430	0.850
2020/01/31 03:44:46.3	93.390	-0.510	0.310	0.840
2020/01/31 03:44:46.4	93.380	-0.480	0.180	0.830
2020/01/31 03:44:46.5	93.380	-0.440	0.040	0.810
2020/01/31 03:44:46.6	93.380	-0.390	-0.100	0.790
2020/01/31 03:44:46.7	93.380	-0.330	-0.250	0.760
2020/01/31 03:44:46.8	93.390	-0.270	-0.400	0.740
2020/01/31 03:44:46.9	93.400	-0.210	-0.550	0.710
2020/01/31 03:44:47.0	93.410	-0.140	-0.690	0.680
2020/01/31 03:44:47.1	93.430	-0.070	-0.840	0.650
2020/01/31 03:44:47.2	93.450	0.000	-0.980	0.620
2020/01/31 03:44:47.3	93.470	0.080	-1.120	0.590
2020/01/31 03:44:47.4	93.480	0.150	-1.250	0.560
2020/01/31 03:44:47.5	93.500	0.230	-1.380	0.530
2020/01/31 03:44:47.6	93.520	0.300	-1.490	0.510
2020/01/31 03:44:47.7	93.540	0.380	-1.590	0.490
2020/01/31 03:44:47.8	93.560	0.450	-1.680	0.470
2020/01/31 03:44:47.9	93.570	0.520	-1.760	0.450
2020/01/31 03:44:48.0	93.590	0.580	-1.820	0.440
2020/01/31 03:44:48.1	93.600	0.640	-1.870	0.430
2020/01/31 03:44:48.2	93.610	0.700	-1.900	0.430
2020/01/31 03:44:48.3	93.620	0.750	-1.910	0.430
2020/01/31 03:44:48.4	93.620	0.790	-1.910	0.440
2020/01/31 03:44:48.5	93.630	0.820	-1.890	0.450
2020/01/31 03:44:48.6	93.630	0.850	-1.850	0.470
2020/01/31 03:44:48.7	93.630	0.870	-1.790	0.490
2020/01/31 03:44:48.8	93.630	0.880	-1.720	0.520
2020/01/31 03:44:48.9	93.620	0.880	-1.630	0.550
2020/01/31 03:44:49.0	93.610	0.880	-1.530	0.590
2020/01/31 03:44:49.1	93.610	0.870	-1.410	0.620
2020/01/31 03:44:49.2	93.600	0.850	-1.280	0.670
2020/01/31 03:44:49.3	93.590	0.820	-1.140	0.720
2020/01/31 03:44:49.4	93.570	0.780	-1.000	0.770
2020/01/31 03:44:49.5	93.560	0.740	-0.840	0.820
2020/01/31 03:44:49.6	93.540	0.690	-0.680	0.870
2020/01/31 03:44:49.7	93.520	0.630	-0.520	0.920
2020/01/31 03:44:49.8	93.510	0.570	-0.350	0.980
2020/01/31 03:44:49.9	93.490	0.500	-0.190	1.030
2020/01/31 03:44:50.0	93.470	0.430	-0.020	1.080
2020/01/31 03:44:50.1	93.470	0.360	0.140	1.130
2020/01/31 03:44:50.2	93.450	0.280	0.290	1.180
2020/01/31 03:44:50.3	93.440	0.210	0.440	1.220
2020/01/31 03:44:50.4	93.430	0.130	0.570	1.250
2020/01/31 03:44:50.5	93.420	0.050	0.700	1.280
2020/01/31 03:44:50.6	93.410	-0.020	0.820	1.310
2020/01/31 03:44:50.7	93.410	-0.100	0.920	1.330
2020/01/31 03:44:50.8	93.400	-0.170	1.010	1.340
2020/01/31 03:44:50.9	93.400	-0.240	1.090	1.350
2020/01/31 03:44:51.0	93.400	-0.300	1.150	1.350
2020/01/31 03:44:51.1	93.390	-0.360	1.200	1.340
2020/01/31 03:44:51.2	93.380	-0.420	1.240	1.330
2020/01/31 03:44:51.3	93.380	-0.470	1.250	1.320
2020/01/31 03:44:51.4	93.380	-0.510	1.260	1.310
2020/01/31 03:44:51.5	93.370	-0.550	1.250	1.290
2020/01/31 03:44:51.6	93.360	-0.580	1.230	1.270
2020/01/31 03:44:51.7	93.350	-0.600	1.190	1.250
2020/01/31 03:44:51.8	93.340	-0.620	1.140	1.230
2020/01/31 03:44:51.9	93.330	-0.630	1.080	1.210
2020/01/31 03:44:52.0	93.320	-0.640	1.010	1.190
2020/01/31 03:44:52.1	93.300	-0.640	0.930	1.170
2020/01/31 03:44:52.2	93.280	-0.630	0.840	1.150
2020/01/31 03:44:52.3	93.270	-0.620	0.750	1.130
2020/01/31 03:44:52.4	93.250	-0.600	0.650	1.110
2020/01/31 03:44:52.5	93.230	-0.580	0.540	1.090
2020/01/31 03:44:52.6	93.220	-0.550	0.430	1.070
2020/01/31 03:44:52.7	93.200	-0.520	0.320	1.050
2020/01/31 03:44:52.8	93.190	-0.490	0.200	1.030
2020/01/31 03:44:52.9	93.180	-0.450	0.090	1.010
2020/01/31 03:44:53.0	93.170	-0.420	-0.020	0.980
2020/01/31 03:44:53.1	93.150	-0.380	-0.130	0.960
2020/01/31 03:44:53.2	93.150	-0.330	-0.240	0.930
2020/01/31 03:44:53.3	93.150	-0.290	-0.340	0.890
2020/01/31 03:44:53.4	93.150	-0.250	-0.440	0.860
2020/01/31 03:44:53.5	93.150	-0.210	-0.530	0.820
2020/01/31 03:44:53.6	93.150	-0.170	-0.610	0.780
2020/01/31 03:44:53.7	93.160	-0.130	-0.690	0.740
2020/01/31 03:44:53.8	93.170	-0.090	-0.760	0.700
2020/01/31 03:44:53.9	93.180	-0.050	-0.820	0.660
2020/01/31 03:44:54.0	93.190	-0.020	-0.870	0.620
2020/01/31 03:44:54.1	93.220	0.010	-0.920	0.570
2020/01/31 03:44:54.2	93.230	0.040	-0.950	0.540
2020/01/31 03:44:54.3	93.250	0.070	-0.980	0.500
2020/01/31 03:44:54.4	93.270	0.100	-0.990	0.470
2020/01/31 03:44:54.5	93.280	0.120	-1.000	0.440
2020/01/31 03:44:54.6	93.300	0.140	-1.000	0.420
2020/01/31 03:44:54.7	93.320	0.150	-0.990	0.400
2020/01/31 03:44:54.8	93.340	0.170	-0.970	0.380
2020/01/31 03:44:54.9	93.360	0.180	-0.950	0.380
2020/01/31 03:44:55.0	93.380	0.190	-0.920	0.370
2020/01/31 03:44:55.1	93.410	0.200	-0.880	0.380
2020/01/31 03:44:55.2	93.430	0.210	-0.830	0.380
2020/01/31 03:44:55.3	93.450	0.210	-0.780	0.400
2020/01/31 03:44:55.4	93.460	0.210	-0.730	0.420
2020/01/31 03:44:55.5	93.480	0.220	-0.680	0.440
2020/01/31 03:44:55.6	93.500	0.220	-0.620	0.470
2020/01/31 03:44:55.7	93.510	0.220	-0.560	0.500
2020/01/31 03:44:55.8	93.530	0.220	-0.500	0.530
2020/01/31 03:44:55.9	93.540	0.220	-0.440	0.560
2020/01/31 03:44:56.0	93.560	0.220	-0.390	0.600
2020/01/31 03:44:56.1	93.570	0.220	-0.330	0.640
2020/01/31 03:44:56.2	93.580	0.210	-0.280	0.680
2020/01/31 03:44:56.3	93.590	0.210	-0.240	0.710
2020/01/31 03:44:56.4	93.600	0.210	-0.200	0.750
2020/01/31 03:44:56.5	93.600	0.210	-0.160	0.790
2020/01/31 03:44:56.6	93.610	0.210	-0.130	0.830
2020/01/31 03:44:56.7	93.610	0.210	-0.100	0.870
2020/01/31 03:44:56.8	93.620	0.210	-0.080	0.900
2020/01/31 03:44:56.9	93.620	0.210	-0.070	0.930
2020/01/31 03:44:57.0	93.610	0.210	-0.050	0.970
2020/01/31 03:44:57.1	93.620	0.210	-0.050	1.000
2020/01/31 03:44:57.2	93.610	0.210	-0.040	1.030
2020/01/31 03:44:57.3	93.600	0.200	-0.040	1.060
2020/01/31 03:44:57.4	93.590	0.190	-0.040	1.080
2020/01/31 03:44:57.5	93.580	0.190	-0.050	1.110
2020/01/31 03:44:57.6	93.570	0.170	-0.050	1.130
2020/01/31 03:44:57.7	93.550	0.160	-0.060	1.150
2020/01/31 03:44:57.8	93.540	0.150	-0.060	1.170
2020/01/31 03:44:57.9	93.520	0.130	-0.070	1.190
2020/01/31 03:44:58.0	93.500	0.110	-0.080	1.210
2020/01/31 03:44:58.1	93.480	0.090	-0.090	1.220
2020/01/31 03:44:58.2	93.450	0.070	-0.090	1.230
2020/01/31 03:44:58.3	93.430	0.040	-0.090	1.240
2020/01/31 03:44:58.4	93.410	0.010	-0.100	1.250
2020/01/31 03:44:58.5	93.390	-0.010	-0.100	1.260
2020/01/31 03:44:58.6	93.370	-0.040	-0.100	1.260
2020/01/31 03:44:58.7	93.340	-0.070	-0.090	1.270
2020/01/31 03:44:58.8	93.320	-0.100	-0.090	1.270
2020/01/31 03:44:58.9	93.300	-0.130	-0.080	1.270
2020/01/31 03:44:59.0	93.290	-0.160	-0.080	1.270
2020/01/31 03:44:59.1	93.260	-0.190	-0.070	1.260
2020/01/31 03:44:59.2	93.250	-0.220	-0.060	1.250
2020/01/31 03:44:59.3	93.230	-0.250	-0.050	1.240
2020/01/31 03:44:59.4	93.220	-0.270	-0.040	1.230
2020/01/31 03:44:59.5	93.220	-0.300	-0.040	1.210
2020/01/31 03:44:59.6	93.210	-0.320	-0.030	1.190
2020/01/31 03:44:59.7	93.210	-0.340	-0.030	1.160
2020/01/31 03:44:59.8	93.210	-0.350	-0.030	1.140
2020/01/31 03:44:59.9	93.210	-0.360	-0.030	1.100
2020/01/31 03:45:00.0	93.220	-0.370	-0.040	1.070
2020/01/31 03:45:00.1	93.220	-0.370	-0.040	1.020
2020/01/31 03:45:00.2	93.230	-0.370	-0.050	0.980
2020/01/31 03:45:00.3	93.250	-0.370	-0.070	0.940
2020/01/31 03:45:00.4	93.270	-0.360	-0.090	0.890
2020/01/31 03:45:00.5	93.290	-0.350	-0.110	0.840
2020/01/31 03:45:00.6	93.310	-0.340	-0.130	0.790
2020/01/31 03:45:00.7	93.330	-0.320	-0.160	0.740
2020/01/31 03:45:00.8	93.360	-0.300	-0.190	0.690
2020/01/31 03:45:00.9	93.380	-0.280	-0.210	0.640
2020/01/31 03:45:01.0	93.410	-0.250	-0.240	0.590
2020/01/31 03:45:01.1	93.430	-0.230	-0.280	0.550
2020/01/31 03:45:01.2	93.450	-0.200	-0.310	0.500
2020/01/31 03:45:01.3	93.470	-0.170	-0.330	0.470
2020/01/31 03:45:01.4	93.490	-0.140	-0.360	0.430
2020/01/31 03:45:01.5	93.510	-0.100	-0.380	0.400
2020/01/31 03:45:01.6	93.520	-0.070	-0.400	0.370
2020/01/31 03:45:01.7	93.530	-0.040	-0.420	0.350
2020/01/31 03:45:01.8	93.540	-0.010	-0.430	0.340
2020/01/31 03:45:01.9	93.550	0.010	-0.440	0.330
2020/01/31 03:45:02.0	93.550	0.040	-0.440	0.330
2020/01/31 03:45:02.1	93.550	0.060	-0.440	0.330
2020/01/31 03:45:02.2	93.550	0.090	-0.430	0.340
2020/01/31 03:45:02.3	93.540	0.100	-0.420	0.350
2020/01/31 03:45:02.4	93.530	0.120	-0.400	0.360
2020/01/31 03:45:02.5	93.520	0.130	-0.390	0.380
2020/01/31 03:45:02.6	93.510	0.140	-0.360	0.400
2020/01/31 03:45:02.7	93.490	0.150	-0.340	0.420
2020/01/31 03:45:02.8	93.470	0.150	-0.310	0.440
2020/01/31 03:45:02.9	93.460	0.150	-0.280	0.460
2020/01/31 03:45:03.0	93.440	0.150	-0.250	0.480
2020/01/31 03:45:03.1	93.410	0.150	-0.210	0.510
2020/01/31 03:45:03.2	93.390	0.140	-0.180	0.530
2020/01/31 03:45:03.3	93.370	0.130	-0.150	0.550
2020/01/31 03:45:03.4	93.350	0.120	-0.120	0.560
2020/01/31 03:45:03.5	93.330	0.100	-0.090	0.580
2020/01/31 03:45:03.6	93.320	0.090	-0.070	0.590
2020/01/31 03:45:03.7	93.300	0.070	-0.040	0.610
2020/01/31 03:45:03.8	93.280	0.060	-0.020	0.620
2020/01/31 03:45:03.9	93.270	0.040	-0.010	0.620
2020/01/31 03:45:04.0	93.250	0.020	0.000	0.630
2020/01/31 03:45:04.1	93.250	0.010	0.010	0.630
2020/01/31 03:45:04.2	93.240	-0.010	0.010	0.630
2020/01/31 03:45:04.3	93.230	-0.020	0.000	0.630
2020/01/31 03:45:04.4	93.230	-0.030	-0.010	0.620
2020/01/31 03:45:04.5	93.220	-0.040	-0.020	0.620
2020/01/31 03:45:04.6	93.220	-0.040	-0.040	0.610
2020/01/31 03:45:04.7	93.220	-0.050	-0.060	0.610
2020/01/31 03:45:04.8	93.220	-0.050	-0.090	0.600
2020/01/31 03:45:04.9	93.220	-0.040	-0.130	0.590
2020/01/31 03:45:05.0	93.220	-0.040	-0.160	0.580
2020/01/31 03:45:05.1	93.220	-0.030	-0.200	0.570
2020/01/31 03:45:05.2	93.230	-0.020	-0.240	0.560
2020/01/31 03:45:05.3	93.230	-0.000	-0.290	0.550
2020/01/31 03:45:05.4	93.230	0.010	-0.340	0.540
2020/01/31 03:45:05.5	93.240	0.030	-0.380	0.530
2020/01/31 03:45:05.6	93.250	0.060	-0.430	0.520
2020/01/31 03:45:05.7	93.250	0.080	-0.480	0.510
2020/01/31 03:45:05.8	93.260	0.110	-0.520	0.500
2020/01/31 03:45:05.9	93.260	0.140	-0.570	0.490
2020/01/31 03:45:06.0	93.270	0.170	-0.610	0.480
2020/01/31 03:45:06.1	93.270	0.200	-0.660	0.470
2020/01/31 03:45:06.2	93.270	0.230	-0.700	0.460
2020/01/31 03:45:06.3	93.280	0.270	-0.730	0.450
2020/01/31 03:45:06.4	93.280	0.300	-0.760	0.450
2020/01/31 03:45:06.5	93.290	0.340	-0.790	0.440
2020/01/31 03:45:06.6	93.290	0.370	-0.800	0.440
2020/01/31 03:45:06.7	93.300	0.400	-0.820	0.430
2020/01/31 03:45:06.8	93.300	0.430	-0.830	0.430
2020/01/31 03:45:06.9	93.300	0.460	-0.830	0.440
2020/01/31 03:45:07.0	93.310	0.490	-0.820	0.440
2020/01/31 03:45:07.1	93.300	0.510	-0.810	0.440
2020/01/31 03:45:07.2	93.300	0.530	-0.790	0.450
2020/01/31 03:45:07.3	93.300	0.550	-0.760	0.460
2020/01/31 03:45:07.4	93.300	0.560	-0.730	0.480
2020/01/31 03:45:07.5	93.300	0.570	-0.690	0.490
2020/01/31 03:45:07.6	93.290	0.580	-0.640	0.510
2020/01/31 03:45:07.7	93.290	0.570	-0.580	0.530
2020/01/31 03:45:07.8	93.280	0.570	-0.520	0.550
2020/01/31 03:45:07.9	93.270	0.560	-0.450	0.570
2020/01/31 03:45:08.0	93.270	0.540	-0.380	0.600
2020/01/31 03:45:08.1	93.250	0.520	-0.310	0.620
2020/01/31 03:45:08.2	93.240	0.490	-0.230	0.640
2020/01/31 03:45:08.3	93.240	0.460	-0.150	0.670
2020/01/31 03:45:08.4	93.230	0.420	-0.060	0.700
2020/01/31 03:45:08.5	93.220	0.380	0.020	0.720
2020/01/31 03:45:08.6	93.210	0.340	0.100	0.750
2020/01/31 03:45:08.7	93.200	0.290	0.180	0.770
2020/01/31 03:45:08.8	93.200	0.240	0.260	0.800
2020/01/31 03:45:08.9	93.190	0.190	0.340	0.830
2020/01/31 03:45:09.0	93.180	0.130	0.410	0.850
2020/01/31 03:45:09.1	93.170	0.080	0.480	0.880
2020/01/31 03:45:09.2	93.160	0.020	0.540	0.900
2020/01/31 03:45:09.3	93.160	-0.040	0.600	0.920
2020/01/31 03:45:09.4	93.160	-0.090	0.640	0.940
2020/01/31 03:45:09.5	93.150	-0.150	0.680	0.950
2020/01/31 03:45:09.6	93.150	-0.200	0.710	0.970
2020/01/31 03:45:09.7	93.150	-0.250	0.730	0.980
2020/01/31 03:45:09.8	93.150	-0.300	0.740	0.980
2020/01/31 03:45:09.9	93.160	-0.340	0.750	0.980
2020/01/31 03:45:10.0	93.160	-0.380	0.740	0.980
2020/01/31 03:45:10.1	93.160	-0.420	0.720	0.980
2020/01/31 03:45:10.2	93.170	-0.450	0.690	0.970
2020/01/31 03:45:10.3	93.170	-0.480	0.660	0.960
2020/01/31 03:45:10.4	93.180	-0.500	0.620	0.950
2020/01/31 03:45:10.5	93.190	-0.510	0.570	0.930
2020/01/31 03:45:10.6	93.200	-0.520	0.510	0.920
2020/01/31 03:45:10.7	93.210	-0.520	0.450	0.900
2020/01/31 03:45:10.8	93.220	-0.520	0.380	0.880
2020/01/31 03:45:10.9	93.230	-0.520	0.310	0.860
2020/01/31 03:45:11.0	93.240	-0.510	0.240	0.850
2020/01/31 03:45:11.1	93.250	-0.490	0.150	0.830
2020/01/31 03:45:11.2	93.260	-0.470	0.070	0.810
2020/01/31 03:45:11.3	93.270	-0.450	-0.010	0.800
2020/01/31 03:45:11.4	93.280	-0.420	-0.090	0.790
2020/01/31 03:45:11.5	93.290	-0.390	-0.170	0.780
2020/01/31 03:45:11.6	93.290	-0.360	-0.250	0.770
2020/01/31 03:45:11.7	93.300	-0.330	-0.330	0.770
2020/01/31 03:45:11.8	93.300	-0.290	-0.400	0.770
2020/01/31 03:45:11.9	93.300	-0.250	-0.480	0.770
2020/01/31 03:45:12.0	93.300	-0.210	-0.540	0.770
2020/01/31 03:45:12.1	93.310	-0.180	-0.610	0.780
2020/01/31 03:45:12.2	93.310	-0.140	-0.660	0.790
2020/01/31 03:45:12.3	93.300	-0.100	-0.710	0.800
2020/01/31 03:45:12.4	93.290	-0.070	-0.760	0.810
2020/01/31 03:45:12.5	93.280	-0.030	-0.800	0.830
2020/01/31 03:45:12.6	93.270	-0.000	-0.830	0.840
2020/01/31 03:45:12.7	93.250	0.030	-0.860	0.860
2020/01/31 03:45:12.8	93.240	0.050	-0.880	0.870
2020/01/31 03:45:12.9	93.220	0.080	-0.900	0.890
2020/01/31 03:45:13.0	93.200	0.100	-0.900	0.900
2020/01/31 03:45:13.1	93.190	0.110	-0.900	0.910
2020/01/31 03:45:13.2	93.170	0.120	-0.900	0.920
2020/01/31 03:45:13.3	93.150	0.130	-0.890	0.930
2020/01/31 03:45:13.4	93.130	0.140	-0.870	0.940
2020/01/31 03:45:13.5	93.110	0.140	-0.850	0.950
2020/01/31 03:45:13.6	93.090	0.140	-0.820	0.960
2020/01/31 03:45:13.7	93.070	0.140	-0.790	0.960
2020/01/31 03:45:13.8	93.050	0.130	-0.750	0.970
2020/01/31 03:45:13.9	93.030	0.120	-0.710	0.970
2020/01/31 03:45:14.0	93.010	0.110	-0.670	0.970
2020/01/31 03:45:14.1	93.000	0.100	-0.620	0.970
2020/01/31 03:45:14.2	92.980	0.090	-0.580	0.970
2020/01/31 03:45:14.3	92.960	0.070	-0.530	0.970
2020/01/31 03:45:14.4	92.950	0.060	-0.480	0.970
2020/01/31 03:45:14.5	92.930	0.040	-0.440	0.970
2020/01/31 03:45:14.6	92.920	0.030	-0.390	0.970
2020/01/31 03:45:14.7	92.910	0.010	-0.350	0.960
2020/01/31 03:45:14.8	92.900	-0.010	-0.310	0.960
2020/01/31 03:45:14.9	92.890	-0.020	-0.270	0.960
2020/01/31 03:45:15.0	92.880	-0.030	-0.240	0.960
2020/01/31 03:45:15.1	92.880	-0.050	-0.210	0.950
2020/01/31 03:45:15.2	92.870	-0.060	-0.180	0.950
2020/01/31 03:45:15.3	92.870	-0.070	-0.160	0.950
2020/01/31 03:45:15.4	92.870	-0.070	-0.140	0.940
2020/01/31 03:45:15.5	92.870	-0.080	-0.130	0.940
2020/01/31 03:45:15.6	92.870	-0.080	-0.130	0.940
2020/01/31 03:45:15.7	92.870	-0.090	-0.120	0.940
2020/01/31 03:45:15.8	92.870	-0.090	-0.130	0.940
2020/01/31 03:45:15.9	92.870	-0.080	-0.130	0.940
2020/01/31 03:45:16.0	92.880	-0.080	-0.140	0.940
2020/01/31 03:45:16.1	92.900	-0.070	-0.160	0.940
2020/01/31 03:45:16.2	92.900	-0.070	-0.180	0.940
2020/01/31 03:45:16.3	92.910	-0.060	-0.200	0.940
2020/01/31 03:45:16.4	92.910	-0.050	-0.220	0.940
2020/01/31 03:45:16.5	92.910	-0.040	-0.240	0.940
2020/01/31 03:45:16.6	92.910	-0.030	-0.270	0.940
2020/01/31 03:45:16.7	92.920	-0.020	-0.290	0.930
2020/01/31 03:45:16.8	92.920	-0.010	-0.320	0.930
2020/01/31 03:45:16.9	92.910	0.000	-0.340	0.930
2020/01/31 03:45:17.0	92.910	0.010	-0.360	0.930
2020/01/31 03:45:17.1	92.900	0.030	-0.380	0.920
2020/01/31 03:45:17.2	92.900	0.030	-0.400	0.910
2020/01/31 03:45:17.3	92.890	0.040	-0.410	0.910
2020/01/31 03:45:17.4	92.890	0.050	-0.420	0.910
2020/01/31 03:45:17.5	92.880	0.060	-0.420	0.900
2020/01/31 03:45:17.6	92.870	0.060	-0.430	0.900
2020/01/31 03:45:17.7	92.870	0.070	-0.420	0.890
2020/01/31 03:45:17.8	92.860	0.070	-0.420	0.890
2020/01/31 03:45:17.9	92.850	0.070	-0.410	0.880
2020/01/31 03:45:18.0	92.850	0.070	-0.390	0.880
2020/01/31 03:45:18.1	92.840	0.070	-0.370	0.870
2020/01/31 03:45:18.2	92.830	0.060	-0.350	0.870
2020/01/31 03:45:18.3	92.830	0.060	-0.320	0.870
2020/01/31 03:45:18.4	92.830	0.050	-0.290	0.870
2020/01/31 03:45:18.5	92.830	0.050	-0.250	0.870
2020/01/31 03:45:18.6	92.830	0.040	-0.220	0.870
2020/01/31 03:45:18.7	92.840	0.030	-0.180	0.870
2020/01/31 03:45:18.8	92.840	0.030	-0.140	0.880
2020/01/31 03:45:18.9	92.850	0.020	-0.100	0.880
2020/01/31 03:45:19.0	92.860	0.010	-0.060	0.880
2020/01/31 03:45:19.1	92.890	0.010	-0.020	0.890
2020/01/31 03:45:19.2	92.900	0.000	0.010	0.890
2020/01/31 03:45:19.3	92.910	-0.000	0.050	0.890
2020/01/31 03:45:19.4	92.930	-0.010	0.080	0.900
2020/01/31 03:45:19.5	92.950	-0.010	0.110	0.900
2020/01/31 03:45:19.6	92.960	-0.010	0.140	0.910
2020/01/31 03:45:19.7	92.980	-0.000	0.160	0.910
2020/01/31 03:45:19.8	93.000	0.000	0.180	0.910
2020/01/31 03:45:19.9	93.020	0.010	0.190	0.920
2020/01/31 03:45:20.0	93.040	0.020	0.200	0.920
2020/01/31 03:45:20.1	93.030	0.030	0.210	0.920
2020/01/31 03:45:20.2	93.050	0.040	0.210	0.920
2020/01/31 03:45:20.3	93.060	0.050	0.210	0.920
2020/01/31 03:45:20.4	93.080	0.060	0.210	0.920
2020/01/31 03:45:20.5	93.100	0.080	0.210	0.910
2020/01/31 03:45:20.6	93.120	0.100	0.200	0.910
2020/01/31 03:45:20.7	93.130	0.110	0.190	0.900
2020/01/31 03:45:20.8	93.150	0.130	0.180	0.890
2020/01/31 03:45:20.9	93.160	0.150	0.170	0.880
2020/01/31 03:45:21.0	93.180	0.160	0.150	0.870
2020/01/31 03:45:21.1	93.180	0.180	0.140	0.850
2020/01/31 03:45:21.2	93.190	0.190	0.130	0.840
2020/01/31 03:45:21.3	93.200	0.200	0.110	0.820
2020/01/31 03:45:21.4	93.210	0.210	0.100	0.810
2020/01/31 03:45:21.5	93.210	0.220	0.090	0.800
2020/01/31 03:45:21.6	93.220	0.230	0.070	0.780
2020/01/31 03:45:21.7	93.220	0.230	0.060	0.770
2020/01/31 03:45:21.8	93.220	0.230	0.050	0.760
2020/01/31 03:45:21.9	93.220	0.230	0.040	0.750
2020/01/31 03:45:22.0	93.210	0.230	0.030	0.740
2020/01/31 03:45:22.1	93.230	0.230	0.020	0.740
2020/01/31 03:45:22.2	93.220	0.220	0.000	0.730
2020/01/31 03:45:22.3	93.210	0.210	-0.010	0.730
2020/01/31 03:45:22.4	93.200	0.200	-0.020	0.730
2020/01/31 03:45:22.5	93.190	0.190	-0.030	0.730
2020/01/31 03:45:22.6	93.180	0.180	-0.050	0.730
2020/01/31 03:45:22.7	93.160	0.160	-0.060	0.740
2020/01/31 03:45:22.8	93.150	0.150	-0.080	0.750
2020/01/31 03:45:22.9	93.130	0.130	-0.090	0.750
2020/01/31 03:45:23.0	93.110	0.110	-0.110	0.760
2020/01/31 03:45:23.1	93.090	0.090	-0.120	0.770
2020/01/31 03:45:23.2	93.070	0.080	-0.140	0.780
2020/01/31 03:45:23.3	93.050	0.060	-0.160	0.790
2020/01/31 03:45:23.4	93.030	0.040	-0.180	0.810
2020/01/31 03:45:23.5	93.010	0.030	-0.200	0.820
2020/01/31 03:45:23.6	92.990	0.010	-0.220	0.840
2020/01/31 03:45:23.7	92.970	-0.000	-0.240	0.850
2020/01/31 03:45:23.8	92.950	-0.020	-0.270	0.870
2020/01/31 03:45:23.9	92.930	-0.030	-0.290	0.890
2020/01/31 03:45:24.0	92.910	-0.040	-0.320	0.900
2020/01/31 03:45:24.1	92.890	-0.050	-0.350	0.920
2020/01/31 03:45:24.2	92.880	-0.060	-0.380	0.940
2020/01/31 03:45:24.3	92.860	-0.060	-0.410	0.950
2020/01/31 03:45:24.4	92.850	-0.070	-0.450	0.970
2020/01/31 03:45:24.5	92.850	-0.070	-0.480	0.980
2020/01/31 03:45:24.6	92.840	-0.070	-0.510	0.990
2020/01/31 03:45:24.7	92.840	-0.070	-0.550	1.000
2020/01/31 03:45:24.8	92.840	-0.070	-0.580	1.010
2020/01/31 03:45:24.9	92.840	-0.070	-0.620	1.020
2020/01/31 03:45:25.0	92.840	-0.070	-0.650	1.030
2020/01/31 03:45:25.1	92.850	-0.060	-0.680	1.030
2020/01/31 03:45:25.2	92.850	-0.060	-0.700	1.030
2020/01/31 03:45:25.3	92.860	-0.060	-0.730	1.030
2020/01/31 03:45:25.4	92.870	-0.050	-0.750	1.030
2020/01/31 03:45:25.5	92.870	-0.050	-0.770	1.030
2020/01/31 03:45:25.6	92.880	-0.050	-0.790	1.030
2020/01/31 03:45:25.7	92.890	-0.040	-0.800	1.030
2020/01/31 03:45:25.8	92.900	-0.040	-0.800	1.020
2020/01/31 03:45:25.9	92.910	-0.030	-0.810	1.020
2020/01/31 03:45:26.0	92.920	-0.030	-0.810	1.010
2020/01/31 03:45:26.1	92.930	-0.030	-0.810	1.010
2020/01/31 03:45:26.2	92.940	-0.020	-0.800	1.000
2020/01/31 03:45:26.3	92.950	-0.020	-0.780	1.000
2020/01/31 03:45:26.4	92.960	-0.020	-0.760	1.000
2020/01/31 03:45:26.5	92.980	-0.010	-0.740	0.990
2020/01/31 03:45:26.6	92.990	-0.010	-0.720	0.990
2020/01/31 03:45:26.7	93.000	-0.010	-0.690	0.990
2020/01/31 03:45:26.8	93.010	-0.000	-0.650	1.000
2020/01/31 03:45:26.9	93.020	-0.000	-0.610	1.000
2020/01/31 03:45:27.0	93.030	0.000	-0.570	1.010
2020/01/31 03:45:27.1	93.040	0.010	-0.530	1.010
2020/01/31 03:45:27.2	93.050	0.010	-0.480	1.020
2020/01/31 03:45:27.3	93.070	0.020	-0.440	1.030
2020/01/31 03:45:27.4	93.080	0.020	-0.390	1.040
2020/01/31 03:45:27.5	93.090	0.030	-0.350	1.060
2020/01/31 03:45:27.6	93.100	0.030	-0.300	1.070
2020/01/31 03:45:27.7	93.110	0.040	-0.260	1.090
2020/01/31 03:45:27.8	93.120	0.040	-0.220	1.100
2020/01/31 03:45:27.9	93.130	0.050	-0.170	1.120
2020/01/31 03:45:28.0	93.130	0.060	-0.140	1.140
2020/01/31 03:45:28.1	93.130	0.060	-0.100	1.160
2020/01/31 03:45:28.2	93.140	0.070	-0.070	1.180
2020/01/31 03:45:28.3	93.150	0.080	-0.040	1.190
2020/01/31 03:45:28.4	93.150	0.080	-0.010	1.210
2020/01/31 03:45:28.5	93.150	0.090	0.010	1.230
2020/01/31 03:45:28.6	93.160	0.090	0.030	1.240
2020/01/31 03:45:28.7	93.160	0.090	0.040	1.250
2020/01/31 03:45:28.8	93.160	0.100	0.050	1.260
2020/01/31 03:45:28.9	93.160	0.100	0.050	1.270
2020/01/31 03:45:29.0	93.160	0.100	0.060	1.270
2020/01/31 03:45:29.1	93.150	0.100	0.050	1.270
2020/01/31 03:45:29.2	93.150	0.090	0.050	1.280
2020/01/31 03:45:29.3	93.150	0.090	0.040	1.280
2020/01/31 03:45:29.4	93.140	0.080	0.030	1.280
2020/01/31 03:45:29.5	93.140	0.080	0.010	1.270
2020/01/31 03:45:29.6	93.130	0.070	-0.000	1.270
2020/01/31 03:45:29.7	93.120	0.060	-0.020	1.270
2020/01/31 03:45:29.8	93.110	0.040	-0.040	1.260
2020/01/31 03:45:29.9	93.100	0.030	-0.060	1.250
2020/01/31 03:45:30.0	93.090	0.010	-0.080	1.250
2020/01/31 03:45:30.1	93.080	-0.000	-0.100	1.230
2020/01/31 03:45:30.2	93.070	-0.020	-0.130	1.220
2020/01/31 03:45:30.3	93.060	-0.040	-0.150	1.210
2020/01/31 03:45:30.4	93.040	-0.060	-0.170	1.190
2020/01/31 03:45:30.5	93.030	-0.080	-0.190	1.180
2020/01/31 03:45:30.6	93.020	-0.090	-0.210	1.160
2020/01/31 03:45:30.7	93.000	-0.110	-0.230	1.140
2020/01/31 03:45:30.8	92.990	-0.130	-0.250	1.110
2020/01/31 03:45:30.9	92.980	-0.150	-0.260	1.090
2020/01/31 03:45:31.0	92.970	-0.170	-0.270	1.060
2020/01/31 03:45:31.1	92.950	-0.180	-0.280	1.030
2020/01/31 03:45:31.2	92.940	-0.200	-0.290	1.000
2020/01/31 03:45:31.3	92.930	-0.210	-0.290	0.960
2020/01/31 03:45:31.4	92.930	-0.220	-0.290	0.930
2020/01/31 03:45:31.5	92.920	-0.230	-0.290	0.900
2020/01/31 03:45:31.6	92.920	-0.240	-0.280	0.860
2020/01/31 03:45:31.7	92.920	-0.250	-0.270	0.820
2020/01/31 03:45:31.8	92.920	-0.260	-0.260	0.790
2020/01/31 03:45:31.9	92.920	-0.260	-0.240	0.750
2020/01/31 03:45:32.0	92.930	-0.260	-0.230	0.710
2020/01/31 03:45:32.1	92.940	-0.270	-0.210	0.670
2020/01/31 03:45:32.2	92.950	-0.270	-0.190	0.630
2020/01/31 03:45:32.3	92.960	-0.260	-0.170	0.590
2020/01/31 03:45:32.4	92.970	-0.260	-0.150	0.550
2020/01/31 03:45:32.5	92.990	-0.260	-0.130	0.510
2020/01/31 03:45:32.6	93.000	-0.250	-0.110	0.480
2020/01/31 03:45:32.7	93.020	-0.240	-0.090	0.440
2020/01/31 03:45:32.8	93.040	-0.230	-0.060	0.400
2020/01/31 03:45:32.9	93.070	-0.230	-0.040	0.370
2020/01/31 03:45:33.0	93.090	-0.220	-0.020	0.330
2020/01/31 03:45:33.1	93.140	-0.210	-0.000	0.300
2020/01/31 03:45:33.2	93.170	-0.200	0.020	0.270
2020/01/31 03:45:33.3	93.200	-0.190	0.040	0.240
2020/01/31 03:45:33.4	93.230	-0.180	0.050	0.210
2020/01/31 03:45:33.5	93.260	-0.170	0.070	0.190
2020/01/31 03:45:33.6	93.290	-0.160	0.090	0.170
2020/01/31 03:45:33.7	93.320	-0.150	0.110	0.150
2020/01/31 03:45:33.8	93.350	-0.150	0.120	0.140
2020/01/31 03:45:33.9	93.380	-0.140	0.140	0.130
2020/01/31 03:45:34.0	93.400	-0.140	0.160	0.130
2020/01/31 03:45:34.1	93.410	-0.140	0.170	0.130
2020/01/31 03:45:34.2	93.430	-0.130	0.190	0.140
2020/01/31 03:45:34.3	93.450	-0.130	0.200	0.150
2020/01/31 03:45:34.4	93.460	-0.140	0.210	0.160
2020/01/31 03:45:34.5	93.470	-0.140	0.230	0.170
2020/01/31 03:45:34.6	93.480	-0.140	0.240	0.190
2020/01/31 03:45:34.7	93.490	-0.150	0.250	0.210
2020/01/31 03:45:34.8	93.490	-0.160	0.260	0.230
2020/01/31 03:45:34.9	93.490	-0.160	0.260	0.260
2020/01/31 03:45:35.0	93.480	-0.170	0.270	0.280
2020/01/31 03:45:35.1	93.480	-0.180	0.270	0.300
2020/01/31 03:45:35.2	93.470	-0.190	0.270	0.330
2020/01/31 03:45:35.3	93.460	-0.200	0.260	0.350
2020/01/31 03:45:35.4	93.450	-0.210	0.250	0.380
2020/01/31 03:45:35.5	93.430	-0.210	0.240	0.400
2020/01/31 03:45:35.6	93.420	-0.220	0.220	0.420
2020/01/31 03:45:35.7	93.400	-0.220	0.190	0.440
2020/01/31 03:45:35.8	93.380	-0.220	0.160	0.460
2020/01/31 03:45:35.9	93.370	-0.220	0.130	0.480
2020/01/31 03:45:36.0	93.350	-0.220	0.080	0.500
2020/01/31 03:45:36.1	93.320	-0.220	0.040	0.510
2020/01/31 03:45:36.2	93.300	-0.210	-0.020	0.520
2020/01/31 03:45:36.3	93.290	-0.200	-0.080	0.540
2020/01/31 03:45:36.4	93.270	-0.180	-0.140	0.550
2020/01/31 03:45:36.5	93.260	-0.170	-0.210	0.560
2020/01/31 03:45:36.6	93.250	-0.150	-0.280	0.570
2020/01/31 03:45:36.7	93.230	-0.120	-0.360	0.580
2020/01/31 03:45:36.8	93.220	-0.100	-0.440	0.600
2020/01/31 03:45:36.9	93.210	-0.070	-0.520	0.610
2020/01/31 03:45:37.0	93.200	-0.040	-0.610	0.630
2020/01/31 03:45:37.1	93.210	-0.000	-0.690	0.640
2020/01/31 03:45:37.2	93.200	0.040	-0.780	0.650
2020/01/31 03:45:37.3	93.190	0.080	-0.870	0.670
2020/01/31 03:45:37.4	93.190	0.120	-0.950	0.690
2020/01/31 03:45:37.5	93.180	0.160	-1.030	0.700
2020/01/31 03:45:37.6	93.180	0.210	-1.110	0.720
2020/01/31 03:45:37.7	93.180	0.250	-1.180	0.740
2020/01/31 03:45:37.8	93.180	0.290	-1.240	0.760
2020/01/31 03:45:37.9	93.180	0.340	-1.300	0.770
2020/01/31 03:45:38.0	93.180	0.380	-1.350	0.790
2020/01/31 03:45:38.1	93.180	0.420	-1.400	0.800
2020/01/31 03:45:38.2	93.180	0.470	-1.440	0.820
2020/01/31 03:45:38.3	93.190	0.500	-1.460	0.830
2020/01/31 03:45:38.4	93.190	0.540	-1.470	0.840
2020/01/31 03:45:38.5	93.200	0.570	-1.480	0.850
2020/01/31 03:45:38.6	93.200	0.600	-1.470	0.850
2020/01/31 03:45:38.7	93.210	0.630	-1.460	0.860
2020/01/31 03:45:38.8	93.220	0.650	-1.430	0.860
2020/01/31 03:45:38.9	93.220	0.670	-1.400	0.860
2020/01/31 03:45:39.0	93.230	0.690	-1.350	0.860
2020/01/31 03:45:39.1	93.250	0.700	-1.290	0.870
2020/01/31 03:45:39.2	93.260	0.700	-1.230	0.870
2020/01/31 03:45:39.3	93.260	0.700	-1.160	0.860
2020/01/31 03:45:39.4	93.260	0.700	-1.080	0.860
2020/01/31 03:45:39.5	93.260	0.690	-1.000	0.860
2020/01/31 03:45:39.6	93.260	0.680	-0.910	0.860
2020/01/31 03:45:39.7	93.250	0.660	-0.810	0.860
2020/01/31 03:45:39.8	93.240	0.640	-0.710	0.870
2020/01/31 03:45:39.9	93.230	0.620	-0.610	0.870
2020/01/31 03:45:40.0	93.210	0.590	-0.500	0.880
2020/01/31 03:45:40.1	93.190	0.550	-0.400	0.880
2020/01/31 03:45:40.2	93.170	0.520	-0.290	0.890
2020/01/31 03:45:40.3	93.150	0.470	-0.180	0.900
2020/01/31 03:45:40.4	93.120	0.430	-0.080	0.910
2020/01/31 03:45:40.5	93.090	0.380	0.030	0.930
2020/01/31 03:45:40.6	93.060	0.330	0.130	0.950
2020/01/31 03:45:40.7	93.020	0.270	0.230	0.960
2020/01/31 03:45:40.8	92.980	0.210	0.330	0.980
2020/01/31 03:45:40.9	92.950	0.150	0.420	1.000
2020/01/31 03:45:41.0	92.910	0.090	0.510	1.010
2020/01/31 03:45:41.1	92.890	0.020	0.590	1.030
2020/01/31 03:45:41.2	92.850	-0.040	0.670	1.040
2020/01/31 03:45:41.3	92.820	-0.110	0.740	1.050
2020/01/31 03:45:41.4	92.790	-0.170	0.810	1.060
2020/01/31 03:45:41.5	92.760	-0.240	0.860	1.060
2020/01/31 03:45:41.6	92.730	-0.300	0.910	1.060
2020/01/31 03:45:41.7	92.710	-0.370	0.950	1.050
2020/01/31 03:45:41.8	92.690	-0.430	0.980	1.030
2020/01/31 03:45:41.9	92.680	-0.490	1.010	1.010
2020/01/31 03:45:42.0	92.670	-0.540	1.020	0.990
2020/01/31 03:45:42.1	92.670	-0.590	1.020	0.950
2020/01/31 03:45:42.2	92.670	-0.640	1.020	0.910
2020/01/31 03:45:42.3	92.670	-0.690	1.010	0.870
2020/01/31 03:45:42.4	92.670	-0.720	0.990	0.820
2020/01/31 03:45:42.5	92.680	-0.760	0.960	0.770
2020/01/31 03:45:42.6	92.700	-0.790	0.920	0.720
2020/01/31 03:45:42.7	92.710	-0.810	0.880	0.660
2020/01/31 03:45:42.8	92.730	-0.820	0.830	0.610
2020/01/31 03:45:42.9	92.760	-0.830	0.770	0.550
2020/01/31 03:45:43.0	92.780	-0.840	0.710	0.490
2020/01/31 03:45:43.1	92.790	-0.840	0.650	0.430
2020/01/31 03:45:43.2	92.820	-0.830	0.580	0.380
2020/01/31 03:45:43.3	92.850	-0.820	0.510	0.340
2020/01/31 03:45:43.4	92.880	-0.800	0.440	0.290
2020/01/31 03:45:43.5	92.910	-0.770	0.360	0.250
2020/01/31 03:45:43.6	92.940	-0.740	0.280	0.220
2020/01/31 03:45:43.7	92.970	-0.710	0.200	0.180
2020/01/31 03:45:43.8	93.000	-0.670	0.130	0.150
2020/01/31 03:45:43.9	93.020	-0.630	0.050	0.130
2020/01/31 03:45:44.0	93.050	-0.580	-0.030	0.110
2020/01/31 03:45:44.1	93.070	-0.530	-0.120	0.090
2020/01/31 03:45:44.2	93.090	-0.480	-0.200	0.080
2020/01/31 03:45:44.3	93.110	-0.430	-0.270	0.070
2020/01/31 03:45:44.4	93.130	-0.370	-0.350	0.060
2020/01/31 03:45:44.5	93.150	-0.310	-0.420	0.060
2020/01/31 03:45:44.6	93.160	-0.260	-0.490	0.060
2020/01/31 03:45:44.7	93.180	-0.200	-0.560	0.070
2020/01/31 03:45:44.8	93.180	-0.140	-0.620	0.080
2020/01/31 03:45:44.9	93.190	-0.080	-0.690	0.100
2020/01/31 03:45:45.0	93.190	-0.020	-0.750	0.120
2020/01/31 03:45:45.1	93.190	0.040	-0.800	0.150
2020/01/31 03:45:45.2	93.190	0.100	-0.860	0.170
2020/01/31 03:45:45.3	93.180	0.150	-0.910	0.210
2020/01/31 03:45:45.4	93.170	0.210	-0.960	0.240
2020/01/31 03:45:45.5	93.170	0.260	-1.000	0.280
2020/01/31 03:45:45.6	93.160	0.310	-1.040	0.310
2020/01/31 03:45:45.7	93.150	0.360	-1.080	0.350
2020/01/31 03:45:45.8	93.140	0.400	-1.110	0.400
2020/01/31 03:45:45.9	93.140	0.440	-1.140	0.440
2020/01/31 03:45:46.0	93.130	0.480	-1.160	0.490
2020/01/31 03:45:46.1	93.130	0.510	-1.180	0.530
2020/01/31 03:45:46.2	93.130	0.540	-1.190	0.570
2020/01/31 03:45:46.3	93.130	0.570	-1.200	0.620
2020/01/31 03:45:46.4	93.130	0.590	-1.210	0.670
2020/01/31 03:45:46.5	93.130	0.610	-1.200	0.720
2020/01/31 03:45:46.6	93.130	0.630	-1.200	0.760
2020/01/31 03:45:46.7	93.140	0.640	-1.180	0.810
2020/01/31 03:45:46.8	93.150	0.640	-1.160	0.860
2020/01/31 03:45:46.9	93.150	0.650	-1.130	0.900
2020/01/31 03:45:47.0	93.160	0.640	-1.100	0.950
2020/01/31 03:45:47.1	93.170	0.630	-1.060	0.990
2020/01/31 03:45:47.2	93.180	0.620	-1.010	1.030
2020/01/31 03:45:47.3	93.190	0.600	-0.950	1.070
2020/01/31 03:45:47.4	93.190	0.580	-0.890	1.110
2020/01/31 03:45:47.5	93.190	0.550	-0.820	1.150
2020/01/31 03:45:47.6	93.190	0.520	-0.740	1.180
2020/01/31 03:45:47.7	93.190	0.480	-0.660	1.220
2020/01/31 03:45:47.8	93.190	0.440	-0.570	1.250
2020/01/31 03:45:47.9	93.190	0.390	-0.480	1.280
2020/01/31 03:45:48.0	93.180	0.340	-0.380	1.310
2020/01/31 03:45:48.1	93.160	0.290	-0.270	1.330
2020/01/31 03:45:48.2	93.150	0.230	-0.170	1.360
2020/01/31 03:45:48.3	93.140	0.170	-0.060	1.380
2020/01/31 03:45:48.4	93.120	0.110	0.050	1.390
2020/01/31 03:45:48.5	93.110	0.050	0.160	1.410
2020/01/31 03:45:48.6	93.090	-0.020	0.270	1.420
2020/01/31 03:45:48.7	93.070	-0.090	0.370	1.430
2020/01/31 03:45:48.8	93.050	-0.150	0.470	1.430
2020/01/31 03:45:48.9	93.030	-0.220	0.570	1.430
2020/01/31 03:45:49.0	93.010	-0.280	0.660	1.430
2020/01/31 03:45:49.1	93.000	-0.350	0.750	1.420
2020/01/31 03:45:49.2	92.980	-0.410	0.820	1.410
2020/01/31 03:45:49.3	92.960	-0.470	0.890	1.390
2020/01/31 03:45:49.4	92.940	-0.520	0.940	1.380
2020/01/31 03:45:49.5	92.930	-0.580	0.980	1.360
2020/01/31 03:45:49.6	92.910	-0.620	1.010	1.330
2020/01/31 03:45:49.7	92.890	-0.670	1.030	1.300
2020/01/31 03:45:49.8	92.870	-0.700	1.040	1.270
2020/01/31 03:45:49.9	92.860	-0.730	1.030	1.240
2020/01/31 03:45:50.0	92.850	-0.760	1.010	1.200
2020/01/31 03:45:50.1	92.840	-0.770	0.980	1.160
2020/01/31 03:45:50.2	92.830	-0.780	0.940	1.120
2020/01/31 03:45:50.3	92.820	-0.790	0.880	1.080
2020/01/31 03:45:50.4	92.820	-0.780	0.810	1.030
2020/01/31 03:45:50.5	92.810	-0.770	0.730	0.980
2020/01/31 03:45:50.6	92.810	-0.760	0.640	0.940
2020/01/31 03:45:50.7	92.810	-0.730	0.540	0.890
2020/01/31 03:45:50.8	92.810	-0.700	0.430	0.840
2020/01/31 03:45:50.9	92.820	-0.660	0.310	0.790
2020/01/31 03:45:51.0	92.820	-0.610	0.190	0.750
2020/01/31 03:45:51.1	92.820	-0.560	0.060	0.700
2020/01/31 03:45:51.2	92.820	-0.500	-0.080	0.660
2020/01/31 03:45:51.3	92.830	-0.440	-0.210	0.620
2020/01/31 03:45:51.4	92.840	-0.370	-0.350	0.580
2020/01/31 03:45:51.5	92.850	-0.290	-0.490	0.550
2020/01/31 03:45:51.6	92.860	-0.220	-0.630	0.510
2020/01/31 03:45:51.7	92.870	-0.140	-0.760	0.480
2020/01/31 03:45:51.8	92.890	-0.060	-0.890	0.450
2020/01/31 03:45:51.9	92.900	0.030	-1.010	0.430
2020/01/31 03:45:52.0	92.920	0.110	-1.130	0.400
2020/01/31 03:45:52.1	92.920	0.190	-1.230	0.380
2020/01/31 03:45:52.2	92.940	0.270	-1.330	0.360
2020/01/31 03:45:52.3	92.960	0.350	-1.410	0.340
2020/01/31 03:45:52.4	92.980	0.420	-1.490	0.320
2020/01/31 03:45:52.5	93.000	0.490	-1.550	0.310
2020/01/31 03:45:52.6	93.020	0.550	-1.590	0.300
2020/01/31 03:45:52.7	93.040	0.610	-1.620	0.300
2020/01/31 03:45:52.8	93.060	0.660	-1.640	0.300
2020/01/31 03:45:52.9	93.080	0.700	-1.640	0.300
2020/01/31 03:45:53.0	93.100	0.740	-1.620	0.300
2020/01/31 03:45:53.1	93.120	0.770	-1.590	0.310
2020/01/31 03:45:53.2	93.130	0.790	-1.540	0.320
2020/01/31 03:45:53.3	93.150	0.800	-1.480	0.330
2020/01/31 03:45:53.4	93.160	0.800	-1.410	0.340
2020/01/31 03:45:53.5	93.170	0.790	-1.320	0.360
2020/01/31 03:45:53.6	93.180	0.780	-1.220	0.380
2020/01/31 03:45:53.7	93.190	0.760	-1.110	0.400
2020/01/31 03:45:53.8	93.190	0.730	-0.990	0.430
2020/01/31 03:45:53.9	93.200	0.690	-0.860	0.460
2020/01/31 03:45:54.0	93.200	0.640	-0.720	0.490
2020/01/31 03:45:54.1	93.230	0.590	-0.580	0.520
2020/01/31 03:45:54.2	93.230	0.530	-0.430	0.550
2020/01/31 03:45:54.3	93.230	0.470	-0.280	0.580
2020/01/31 03:45:54.4	93.220	0.400	-0.130	0.620
2020/01/31 03:45:54.5	93.220	0.330	0.010	0.660
2020/01/31 03:45:54.6	93.220	0.250	0.160	0.700
2020/01/31 03:45:54.7	93.210	0.170	0.300	0.730
2020/01/31 03:45:54.8	93.210	0.100	0.440	0.770
2020/01/31 03:45:54.9	93.200	0.020	0.560	0.810
2020/01/31 03:45:55.0	93.190	-0.060	0.690	0.850
2020/01/31 03:45:55.1	93.180	-0.140	0.800	0.880
2020/01/31 03:45:55.2	93.170	-0.220	0.900	0.920
2020/01/31 03:45:55.3	93.160	-0.290	0.990	0.950
2020/01/31 03:45:55.4	93.150	-0.360	1.060	0.980
2020/01/31 03:45:55.5	93.140	-0.430	1.120	1.020
2020/01/31 03:45:55.6	93.130	-0.490	1.170	1.050
2020/01/31 03:45:55.7	93.110	-0.540	1.200	1.070
2020/01/31 03:45:55.8	93.100	-0.590	1.220	1.100
2020/01/31 03:45:55.9	93.090	-0.640	1.220	1.120
2020/01/31 03:45:56.0	93.070	-0.680	1.210	1.140
2020/01/31 03:45:56.1	93.060	-0.710	1.170	1.160
2020/01/31 03:45:56.2	93.050	-0.730	1.130	1.180
2020/01/31 03:45:56.3	93.030	-0.750	1.070	1.190
2020/01/31 03:45:56.4	93.020	-0.760	1.000	1.190
2020/01/31 03:45:56.5	93.010	-0.760	0.920	1.190
2020/01/31 03:45:56.6	93.000	-0.760	0.830	1.190
2020/01/31 03:45:56.7	93.000	-0.740	0.730	1.180
2020/01/31 03:45:56.8	92.990	-0.730	0.620	1.170
2020/01/31 03:45:56.9	92.990	-0.700	0.510	1.150
2020/01/31 03:45:57.0	92.990	-0.680	0.390	1.130
2020/01/31 03:45:57.1	92.970	-0.640	0.270	1.100
2020/01/31 03:45:57.2	92.970	-0.600	0.150	1.070
2020/01/31 03:45:57.3	92.980	-0.560	0.020	1.040
2020/01/31 03:45:57.4	92.980	-0.520	-0.100	1.010
2020/01/31 03:45:57.5	92.990	-0.470	-0.220	0.980
2020/01/31 03:45:57.6	92.990	-0.410	-0.340	0.950
2020/01/31 03:45:57.7	93.000	-0.360	-0.450	0.920
2020/01/31 03:45:57.8	93.000	-0.300	-0.550	0.890
2020/01/31 03:45:57.9	93.010	-0.250	-0.650	0.860
2020/01/31 03:45:58.0	93.020	-0.190	-0.740	0.830
2020/01/31 03:45:58.1	93.020	-0.130	-0.820	0.800
2020/01/31 03:45:58.2	93.030	-0.080	-0.890	0.780
2020/01/31 03:45:58.3	93.040	-0.020	-0.950	0.760
2020/01/31 03:45:58.4	93.040	0.030	-1.000	0.740
2020/01/31 03:45:58.5	93.050	0.080	-1.040	0.720
2020/01/31 03:45:58.6	93.060	0.130	-1.080	0.700
2020/01/31 03:45:58.7	93.070	0.180	-1.100	0.680
2020/01/31 03:45:58.8	93.080	0.220	-1.110	0.660
2020/01/31 03:45:58.9	93.090	0.270	-1.110	0.650
2020/01/31 03:45:59.0	93.100	0.310	-1.110	0.630
2020/01/31 03:45:59.1	93.110	0.340	-1.090	0.620
2020/01/31 03:45:59.2	93.130	0.380	-1.070	0.610
2020/01/31 03:45:59.3	93.140	0.410	-1.050	0.600
2020/01/31 03:45:59.4	93.160	0.430	-1.020	0.580
2020/01/31 03:45:59.5	93.170	0.460	-0.990	0.580
2020/01/31 03:45:59.6	93.190	0.480	-0.960	0.570
2020/01/31 03:45:59.7	93.210	0.500	-0.920	0.560
2020/01/31 03:45:59.8	93.230	0.510	-0.880	0.550
2020/01/31 03:45:59.9	93.240	0.530	-0.840	0.550
2020/01/31 03:46:00.0	93.260	0.540	-0.800	0.540
2020/01/31 03:46:00.1	93.280	0.550	-0.760	0.540
2020/01/31 03:46:00.2	93.290	0.560	-0.720	0.540
2020/01/31 03:46:00.3	93.320	0.570	-0.690	0.540
2020/01/31 03:46:00.4	93.340	0.570	-0.650	0.540
2020/01/31 03:46:00.5	93.360	0.570	-0.620	0.540
2020/01/31 03:46:00.6	93.380	0.570	-0.590	0.550
2020/01/31 03:46:00.7	93.400	0.570	-0.560	0.560
2020/01/31 03:46:00.8	93.430	0.570	-0.540	0.570
2020/01/31 03:46:00.9	93.450	0.570	-0.510	0.580
2020/01/31 03:46:01.0	93.470	0.560	-0.490	0.590
2020/01/31 03:46:01.1	93.490	0.560	-0.470	0.600
2020/01/31 03:46:01.2	93.510	0.550	-0.440	0.620
2020/01/31 03:46:01.3	93.530	0.540	-0.420	0.640
2020/01/31 03:46:01.4	93.550	0.520	-0.390	0.660
2020/01/31 03:46:01.5	93.570	0.510	-0.370	0.690
2020/01/31 03:46:01.6	93.590	0.490	-0.340	0.710
2020/01/31 03:46:01.7	93.600	0.470	-0.310	0.740
2020/01/31 03:46:01.8	93.610	0.440	-0.280	0.770
2020/01/31 03:46:01.9	93.620	0.420	-0.240	0.810
2020/01/31 03:46:02.0	93.630	0.390	-0.210	0.840
2020/01/31 03:46:02.1	93.650	0.360	-0.170	0.870
2020/01/31 03:46:02.2	93.650	0.330	-0.130	0.900
2020/01/31 03:46:02.3	93.660	0.290	-0.090	0.940
2020/01/31 03:46:02.4	93.660	0.260	-0.040	0.970
2020/01/31 03:46:02.5	93.660	0.220	0.010	1.000
2020/01/31 03:46:02.6	93.650	0.180	0.060	1.030
2020/01/31 03:46:02.7	93.650	0.140	0.110	1.060
2020/01/31 03:46:02.8	93.640	0.090	0.160	1.090
2020/01/31 03:46:02.9	93.630	0.050	0.210	1.120
2020/01/31 03:46:03.0	93.620	0.000	0.270	1.140
2020/01/31 03:46:03.1	93.600	-0.040	0.320	1.160
2020/01/31 03:46:03.2	93.590	-0.090	0.370	1.190
2020/01/31 03:46:03.3	93.570	-0.130	0.420	1.210
2020/01/31 03:46:03.4	93.560	-0.180	0.470	1.230
2020/01/31 03:46:03.5	93.540	-0.220	0.510	1.240
2020/01/31 03:46:03.6	93.520	-0.270	0.560	1.260
2020/01/31 03:46:03.7	93.500	-0.310	0.590	1.270
2020/01/31 03:46:03.8	93.470	-0.350	0.620	1.290
2020/01/31 03:46:03.9	93.450	-0.390	0.650	1.300
2020/01/31 03:46:04.0	93.420	-0.420	0.670	1.310
2020/01/31 03:46:04.1	93.410	-0.450	0.680	1.310
2020/01/31 03:46:04.2	93.380	-0.480	0.680	1.320
2020/01/31 03:46:04.3	93.360	-0.510	0.680	1.320
2020/01/31 03:46:04.4	93.330	-0.530	0.670	1.320
2020/01/31 03:46:04.5	93.310	-0.540	0.650	1.330
2020/01/31 03:46:04.6	93.280	-0.560	0.620	1.330
2020/01/31 03:46:04.7	93.260	-0.570	0.580	1.320
2020/01/31 03:46:04.8	93.240	-0.570	0.530	1.320
2020/01/31 03:46:04.9	93.220	-0.570	0.480	1.310
2020/01/31 03:46:05.0	93.200	-0.570	0.410	1.300
2020/01/31 03:46:05.1	93.210	-0.560	0.340	1.280
2020/01/31 03:46:05.2	93.190	-0.550	0.260	1.260
2020/01/31 03:46:05.3	93.180	-0.530	0.180	1.240
2020/01/31 03:46:05.4	93.170	-0.510	0.090	1.210
2020/01/31 03:46:05.5	93.160	-0.490	0.000	1.180
2020/01/31 03:46:05.6	93.160	-0.460	-0.090	1.150
2020/01/31 03:46:05.7	93.160	-0.440	-0.190	1.110
2020/01/31 03:46:05.8	93.160	-0.400	-0.290	1.070
2020/01/31 03:46:05.9	93.160	-0.370	-0.390	1.030
2020/01/31 03:46:06.0	93.160	-0.330	-0.490	0.990
2020/01/31 03:46:06.1	93.170	-0.300	-0.600	0.940
2020/01/31 03:46:06.2	93.170	-0.260	-0.690	0.890
2020/01/31 03:46:06.3	93.180	-0.220	-0.790	0.840
2020/01/31 03:46:06.4	93.190	-0.170	-0.870	0.790
2020/01/31 03:46:06.5	93.210	-0.130	-0.960	0.740
2020/01/31 03:46:06.6	93.220	-0.090	-1.030	0.690
2020/01/31 03:46:06.7	93.230	-0.050	-1.100	0.640
2020/01/31 03:46:06.8	93.250	-0.010	-1.170	0.590
2020/01/31 03:46:06.9	93.270	0.040	-1.220	0.540
2020/01/31 03:46:07.0	93.290	0.080	-1.270	0.500
2020/01/31 03:46:07.1	93.300	0.110	-1.300	0.450
2020/01/31 03:46:07.2	93.320	0.150	-1.320	0.410
2020/01/31 03:46:07.3	93.340	0.190	-1.340	0.380
2020/01/31 03:46:07.4	93.360	0.220	-1.340	0.350
2020/01/31 03:46:07.5	93.390	0.250	-1.330	0.320
2020/01/31 03:46:07.6	93.410	0.280	-1.310	0.300
2020/01/31 03:46:07.7	93.430	0.300	-1.280	0.290
2020/01/31 03:46:07.8	93.450	0.320	-1.240	0.280
2020/01/31 03:46:07.9	93.480	0.340	-1.190	0.270
2020/01/31 03:46:08.0	93.500	0.350	-1.130	0.270
2020/01/31 03:46:08.1	93.530	0.360	-1.060	0.280
2020/01/31 03:46:08.2	93.550	0.370	-0.980	0.290
2020/01/31 03:46:08.3	93.570	0.370	-0.900	0.300
2020/01/31 03:46:08.4	93.590	0.370	-0.810	0.310
2020/01/31 03:46:08.5	93.610	0.360	-0.710	0.330
2020/01/31 03:46:08.6	93.630	0.360	-0.610	0.350
2020/01/31 03:46:08.7	93.650	0.340	-0.510	0.380
2020/01/31 03:46:08.8	93.660	0.330	-0.410	0.400
2020/01/31 03:46:08.9	93.680	0.310	-0.300	0.430
2020/01/31 03:46:09.0	93.700	0.290	-0.200	0.460
2020/01/31 03:46:09.1	93.720	0.260	-0.090	0.490
2020/01/31 03:46:09.2	93.730	0.240	0.010	0.510
2020/01/31 03:46:09.3	93.750	0.210	0.100	0.540
2020/01/31 03:46:09.4	93.760	0.180	0.190	0.570
2020/01/31 03:46:09.5	93.780	0.150	0.270	0.600
2020/01/31 03:46:09.6	93.790	0.120	0.350	0.630
2020/01/31 03:46:09.7	93.800	0.090	0.420	0.660
2020/01/31 03:46:09.8	93.810	0.060	0.480	0.690
2020/01/31 03:46:09.9	93.820	0.030	0.530	0.720
2020/01/31 03:46:10.0	93.830	0.000	0.580	0.750
2020/01/31 03:46:10.1	93.840	-0.030	0.620	0.780
2020/01/31 03:46:10.2	93.850	-0.050	0.640	0.810
2020/01/31 03:46:10.3	93.850	-0.080	0.660	0.840
2020/01/31 03:46:10.4	93.860	-0.100	0.670	0.860
2020/01/31 03:46:10.5	93.860	-0.120	0.670	0.890
2020/01/31 03:46:10.6	93.870	-0.140	0.670	0.910
2020/01/31 03:46:10.7	93.870	-0.160	0.660	0.930
2020/01/31 03:46:10.8	93.870	-0.170	0.640	0.950
2020/01/31 03:46:10.9	93.870	-0.190	0.610	0.970
2020/01/31 03:46:11.0	93.870	-0.200	0.580	0.980
2020/01/31 03:46:11.1	93.860	-0.210	0.550	0.990
2020/01/31 03:46:11.2	93.860	-0.210	0.510	1.000
2020/01/31 03:46:11.3	93.850	-0.220	0.470	1.010
2020/01/31 03:46:11.4	93.850	-0.220	0.420	1.010
2020/01/31 03:46:11.5	93.840	-0.230	0.370	1.020
2020/01/31 03:46:11.6	93.840	-0.230	0.320	1.020
2020/01/31 03:46:11.7	93.830	-0.220	0.270	1.020
2020/01/31 03:46:11.8	93.820	-0.220	0.210	1.020
2020/01/31 03:46:11.9	93.810	-0.210	0.160	1.010
2020/01/31 03:46:12.0	93.800	-0.210	0.100	1.010
2020/01/31 03:46:12.1	93.790	-0.200	0.050	1.000
2020/01/31 03:46:12.2	93.780	-0.190	-0.010	1.000
2020/01/31 03:46:12.3	93.770	-0.180	-0.060	0.990
2020/01/31 03:46:12.4	93.750	-0.170	-0.120	0.980
2020/01/31 03:46:12.5	93.740	-0.150	-0.170	0.970
2020/01/31 03:46:12.6	93.730	-0.140	-0.220	0.970
2020/01/31 03:46:12.7	93.710	-0.120	-0.270	0.960
2020/01/31 03:46:12.8	93.700	-0.110	-0.310	0.940
2020/01/31 03:46:12.9	93.690	-0.090	-0.350	0.930
2020/01/31 03:46:13.0	93.680	-0.080	-0.390	0.920
2020/01/31 03:46:13.1	93.670	-0.060	-0.430	0.900
2020/01/31 03:46:13.2	93.660	-0.050	-0.460	0.880
2020/01/31 03:46:13.3	93.660	-0.030	-0.490	0.860
2020/01/31 03:46:13.4	93.660	-0.020	-0.510	0.840
2020/01/31 03:46:13.5	93.660	-0.000	-0.530	0.810
2020/01/31 03:46:13.6	93.660	0.010	-0.550	0.790
2020/01/31 03:46:13.7	93.660	0.020	-0.560	0.760
2020/01/31 03:46:13.8	93.670	0.040	-0.570	0.740
2020/01/31 03:46:13.9	93.680	0.050	-0.580	0.710
2020/01/31 03:46:14.0	93.680	0.060	-0.580	0.680
2020/01/31 03:46:14.1	93.700	0.070	-0.580	0.650
2020/01/31 03:46:14.2	93.720	0.090	-0.580	0.620
2020/01/31 03:46:14.3	93.730	0.100	-0.580	0.590
2020/01/31 03:46:14.4	93.740	0.110	-0.580	0.560
2020/01/31 03:46:14.5	93.760	0.120	-0.590	0.530
2020/01/31 03:46:14.6	93.770	0.130	-0.590	0.500
2020/01/31 03:46:14.7	93.780	0.150	-0.590	0.470
2020/01/31 03:46:14.8	93.800	0.160	-0.600	0.440
2020/01/31 03:46:14.9	93.810	0.180	-0.610	0.410
2020/01/31 03:46:15.0	93.820	0.190	-0.620	0.390
2020/01/31 03:46:15.1	93.830	0.210	-0.630	0.370
2020/01/31 03:46:15.2	93.840	0.220	-0.640	0.350
2020/01/31 03:46:15.3	93.840	0.240	-0.650	0.330
2020/01/31 03:46:15.4	93.850	0.260	-0.670	0.320
2020/01/31 03:46:15.5	93.860	0.280	-0.680	0.310
2020/01/31 03:46:15.6	93.860	0.290	-0.690	0.300
2020/01/31 03:46:15.7	93.860	0.310	-0.700	0.300
2020/01/31 03:46:15.8	93.860	0.330	-0.710	0.300
2020/01/31 03:46:15.9	93.850	0.340	-0.720	0.300
2020/01/31 03:46:16.0	93.850	0.360	-0.720	0.310
2020/01/31 03:46:16.1	93.840	0.370	-0.720	0.320
2020/01/31 03:46:16.2	93.830	0.380	-0.720	0.330
2020/01/31 03:46:16.3	93.820	0.400	-0.720	0.350
2020/01/31 03:46:16.4	93.820	0.400	-0.710	0.370
2020/01/31 03:46:16.5	93.810	0.410	-0.690	0.390
2020/01/31 03:46:16.6	93.800	0.420	-0.680	0.410
2020/01/31 03:46:16.7	93.790	0.420	-0.650	0.430
2020/01/31 03:46:16.8	93.780	0.420	-0.630	0.450
2020/01/31 03:46:16.9	93.780	0.420	-0.600	0.480
2020/01/31 03:46:17.0	93.770	0.410	-0.570	0.510
2020/01/31 03:46:17.1	93.770	0.410	-0.540	0.530
2020/01/31 03:46:17.2	93.760	0.400	-0.500	0.550
2020/01/31 03:46:17.3	93.760	0.380	-0.460	0.580
2020/01/31 03:46:17.4	93.770	0.370	-0.420	0.600
2020/01/31 03:46:17.5	93.770	0.350	-0.380	0.630
2020/01/31 03:46:17.6	93.770	0.330	-0.340	0.650
2020/01/31 03:46:17.7	93.780	0.310	-0.300	0.670
2020/01/31 03:46:17.8	93.790	0.290	-0.260	0.690
2020/01/31 03:46:17.9	93.800	0.260	-0.220	0.710
2020/01/31 03:46:18.0	93.820	0.240	-0.180	0.730
2020/01/31 03:46:18.1	93.830	0.210	-0.140	0.750
2020/01/31 03:46:18.2	93.840	0.180	-0.100	0.770
2020/01/31 03:46:18.3	93.860	0.150	-0.070	0.780
2020/01/31 03:46:18.4	93.870	0.120	-0.040	0.800
2020/01/31 03:46:18.5	93.880	0.080	-0.000	0.820
2020/01/31 03:46:18.6	93.900	0.050	0.030	0.840
2020/01/31 03:46:18.7	93.910	0.010	0.060	0.860
2020/01/31 03:46:18.8	93.920	-0.020	0.090	0.890
2020/01/31 03:46:18.9	93.920	-0.060	0.120	0.910
2020/01/31 03:46:19.0	93.920	-0.100	0.150	0.940
2020/01/31 03:46:19.1	93.940	-0.140	0.170	0.960
2020/01/31 03:46:19.2	93.930	-0.170	0.200	0.990
2020/01/31 03:46:19.3	93.920	-0.210	0.230	1.020
2020/01/31 03:46:19.4	93.910	-0.250	0.260	1.060
2020/01/31 03:46:19.5	93.890	-0.290	0.290	1.090
2020/01/31 03:46:19.6	93.870	-0.330	0.310	1.130
2020/01/31 03:46:19.7	93.850	-0.360	0.340	1.160
2020/01/31 03:46:19.8	93.820	-0.400	0.360	1.190
2020/01/31 03:46:19.9	93.790	-0.430	0.390	1.230
2020/01/31 03:46:20.0	93.760	-0.470	0.410	1.260
2020/01/31 03:46:20.1	93.720	-0.500	0.430	1.290
2020/01/31 03:46:20.2	93.680	-0.530	0.450	1.310
2020/01/31 03:46:20.3	93.650	-0.560	0.460	1.330
2020/01/31 03:46:20.4	93.610	-0.580	0.470	1.350
2020/01/31 03:46:20.5	93.580	-0.610	0.480	1.360
2020/01/31 03:46:20.6	93.540	-0.630	0.480	1.370
2020/01/31 03:46:20.7	93.510	-0.650	0.470	1.370
2020/01/31 03:46:20.8	93.480	-0.660	0.460	1.370
2020/01/31 03:46:20.9	93.450	-0.670	0.450	1.370
2020/01/31 03:46:21.0	93.420	-0.680	0.420	1.360
2020/01/31 03:46:21.1	93.400	-0.680	0.390	1.330
2020/01/31 03:46:21.2	93.380	-0.680	0.360	1.310
2020/01/31 03:46:21.3	93.370	-0.670	0.310	1.290
2020/01/31 03:46:21.4	93.360	-0.660	0.260	1.260
2020/01/31 03:46:21.5	93.350	-0.640	0.210	1.220
2020/01/31 03:46:21.6	93.350	-0.620	0.140	1.180
2020/01/31 03:46:21.7	93.360	-0.590	0.070	1.140
2020/01/31 03:46:21.8	93.370	-0.560	-0.010	1.090
2020/01/31 03:46:21.9	93.380	-0.520	-0.090	1.050
2020/01/31 03:46:22.0	93.400	-0.480	-0.180	1.000
2020/01/31 03:46:22.1	93.420	-0.430	-0.270	0.950
2020/01/31 03:46:22.2	93.440	-0.380	-0.360	0.900
2020/01/31 03:46:22.3	93.470	-0.330	-0.450	0.850
2020/01/31 03:46:22.4	93.500	-0.270	-0.540	0.810
2020/01/31 03:46:22.5	93.530	-0.210	-0.620	0.760
2020/01/31 03:46:22.6	93.560	-0.150	-0.700	0.720
2020/01/31 03:46:22.7	93.580	-0.090	-0.780	0.690
2020/01/31 03:46:22.8	93.610	-0.020	-0.850	0.650
2020/01/31 03:46:22.9	93.630	0.040	-0.920	0.620
2020/01/31 03:46:23.0	93.650	0.100	-0.980	0.590
2020/01/31 03:46:23.1	93.670	0.160	-1.030	0.560
2020/01/31 03:46:23.2	93.680	0.220	-1.070	0.530
2020/01/31 03:46:23.3	93.690	0.280	-1.100	0.500
2020/01/31 03:46:23.4	93.700	0.330	-1.120	0.480
2020/01/31 03:46:23.5	93.700	0.380	-1.130	0.450
2020/01/31 03:46:23.6	93.710	0.430	-1.130	0.430
2020/01/31 03:46:23.7	93.710	0.470	-1.120	0.410
2020/01/31 03:46:23.8	93.700	0.510	-1.100	0.390
2020/01/31 03:46:23.9	93.700	0.540	-1.070	0.370
2020/01/31 03:46:24.0	93.690	0.570	-1.040	0.350
2020/01/31 03:46:24.1	93.700	0.590	-0.990	0.330
2020/01/31 03:46:24.2	93.690	0.610	-0.930	0.310
2020/01/31 03:46:24.3	93.680	0.620	-0.870	0.300
2020/01/31 03:46:24.4	93.660	0.630	-0.810	0.290
2020/01/31 03:46:24.5	93.650	0.630	-0.740	0.290
2020/01/31 03:46:24.6	93.640	0.630	-0.660	0.290
2020/01/31 03:46:24.7	93.620	0.620	-0.580	0.290
2020/01/31 03:46:24.8	93.610	0.610	-0.500	0.300
2020/01/31 03:46:24.9	93.600	0.600	-0.420	0.310
2020/01/31 03:46:25.0	93.590	0.580	-0.330	0.330
2020/01/31 03:46:25.1	93.570	0.560	-0.250	0.350
2020/01/31 03:46:25.2	93.560	0.530	-0.170	0.370
2020/01/31 03:46:25.3	93.550	0.500	-0.090	0.400
2020/01/31 03:46:25.4	93.540	0.480	-0.010	0.440
2020/01/31 03:46:25.5	93.540	0.440	0.060	0.470
2020/01/31 03:46:25.6	93.540	0.410	0.120	0.510
2020/01/31 03:46:25.7	93.540	0.380	0.190	0.550
2020/01/31 03:46:25.8	93.540	0.340	0.240	0.590
2020/01/31 03:46:25.9	93.540	0.300	0.290	0.640
2020/01/31 03:46:26.0	93.550	0.270	0.340	0.680
2020/01/31 03:46:26.1	93.550	0.230	0.380	0.720
2020/01/31 03:46:26.2	93.550	0.190	0.420	0.760
2020/01/31 03:46:26.3	93.560	0.150	0.440	0.800
2020/01/31 03:46:26.4	93.570	0.120	0.460	0.840
2020/01/31 03:46:26.5	93.570	0.080	0.480	0.880
2020/01/31 03:46:26.6	93.580	0.040	0.480	0.910
2020/01/31 03:46:26.7	93.590	0.010	0.480	0.940
2020/01/31 03:46:26.8	93.600	-0.030	0.480	0.970
2020/01/31 03:46:26.9	93.600	-0.060	0.470	0.990
2020/01/31 03:46:27.0	93.600	-0.090	0.450	1.000
2020/01/31 03:46:27.1	93.580	-0.130	0.420	1.010
2020/01/31 03:46:27.2	93.580	-0.160	0.400	1.020
2020/01/31 03:46:27.3	93.580	-0.180	0.370	1.030
2020/01/31 03:46:27.4	93.580	-0.210	0.330	1.030
2020/01/31 03:46:27.5	93.570	-0.240	0.290	1.030
2020/01/31 03:46:27.6	93.560	-0.260	0.250	1.030
2020/01/31 03:46:27.7	93.550	-0.280	0.210	1.030
2020/01/31 03:46:27.8	93.540	-0.300	0.160	1.020
2020/01/31 03:46:27.9	93.520	-0.310	0.120	1.020
2020/01/31 03:46:28.0	93.510	-0.330	0.070	1.010
2020/01/31 03:46:28.1	93.500	-0.340	0.030	1.010
2020/01/31 03:46:28.2	93.480	-0.350	-0.020	1.000
2020/01/31 03:46:28.3	93.460	-0.360	-0.060	1.000
2020/01/31 03:46:28.4	93.440	-0.370	-0.110	0.990
2020/01/31 03:46:28.5	93.420	-0.370	-0.150	0.990
2020/01/31 03:46:28.6	93.400	-0.370	-0.190	0.990
2020/01/31 03:46:28.7	93.380	-0.380	-0.230	0.990
2020/01/31 03:46:28.8	93.360	-0.380	-0.260	0.990
2020/01/31 03:46:28.9	93.350	-0.380	-0.290	0.990
2020/01/31 03:46:29.0	93.330	-0.380	-0.320	0.990
2020/01/31 03:46:29.1	93.320	-0.370	-0.350	1.000
2020/01/31 03:46:29.2	93.300	-0.370	-0.380	1.010
2020/01/31 03:46:29.3	93.290	-0.360	-0.400	1.020
2020/01/31 03:46:29.4	93.280	-0.360	-0.420	1.030
2020/01/31 03:46:29.5	93.270	-0.350	-0.440	1.050
2020/01/31 03:46:29.6	93.260	-0.340	-0.450	1.060
2020/01/31 03:46:29.7	93.260	-0.340	-0.470	1.070
2020/01/31 03:46:29.8	93.250	-0.330	-0.480	1.090
2020/01/31 03:46:29.9	93.250	-0.310	-0.490	1.100
2020/01/31 03:46:30.0	93.240	-0.300	-0.510	1.110
2020/01/31 03:46:30.1	93.240	-0.290	-0.510	1.120
2020/01/31 03:46:30.2	93.230	-0.280	-0.530	1.130
2020/01/31 03:46:30.3	93.230	-0.260	-0.540	1.130
2020/01/31 03:46:30.4	93.230	-0.240	-0.550	1.130
2020/01/31 03:46:30.5	93.220	-0.220	-0.570	1.120
2020/01/31 03:46:30.6	93.220	-0.200	-0.590	1.110
2020/01/31 03:46:30.7	93.220	-0.180	-0.610	1.090
2020/01/31 03:46:30.8	93.220	-0.160	-0.630	1.070
2020/01/31 03:46:30.9	93.220	-0.130	-0.650	1.040
2020/01/31 03:46:31.0	93.220	-0.100	-0.670	1.000
2020/01/31 03:46:31.1	93.220	-0.070	-0.690	0.960
2020/01/31 03:46:31.2	93.230	-0.040	-0.720	0.920
2020/01/31 03:46:31.3	93.230	-0.010	-0.750	0.870
2020/01/31 03:46:31.4	93.240	0.030	-0.780	0.830
2020/01/31 03:46:31.5	93.240	0.070	-0.810	0.780
2020/01/31 03:46:31.6	93.250	0.110	-0.830	0.730
2020/01/31 03:46:31.7	93.260	0.150	-0.860	0.680
2020/01/31 03:46:31.8	93.270	0.190	-0.890	0.640
2020/01/31 03:46:31.9	93.280	0.240	-0.910	0.590
2020/01/31 03:46:32.0	93.290	0.280	-0.940	0.560
2020/01/31 03:46:32.1	93.320	0.330	-0.960	0.520
2020/01/31 03:46:32.2	93.330	0.370	-0.980	0.490
2020/01/31 03:46:32.3	93.340	0.420	-0.990	0.470
2020/01/31 03:46:32.4	93.350	0.460	-0.990	0.460
2020/01/31 03:46:32.5	93.360	0.510	-0.990	0.450
2020/01/31 03:46:32.6	93.370	0.550	-0.990	0.450
2020/01/31 03:46:32.7	93.380	0.590	-0.970	0.450
2020/01/31 03:46:32.8	93.390	0.630	-0.960	0.470
2020/01/31 03:46:32.9	93.400	0.660	-0.930	0.480
2020/01/31 03:46:33.0	93.410	0.690	-0.900	0.510
2020/01/31 03:46:33.1	93.430	0.710	-0.850	0.530
2020/01/31 03:46:33.2	93.440	0.730	-0.800	0.560
2020/01/31 03:46:33.3	93.440	0.750	-0.750	0.600
2020/01/31 03:46:33.4	93.440	0.760	-0.690	0.630
2020/01/31 03:46:33.5	93.440	0.760	-0.620	0.660
2020/01/31 03:46:33.6	93.440	0.750	-0.540	0.700
2020/01/31 03:46:33.7	93.440	0.740	-0.460	0.730
2020/01/31 03:46:33.8	93.440	0.730	-0.370	0.770
2020/01/31 03:46:33.9	93.440	0.710	-0.280	0.800
2020/01/31 03:46:34.0	93.430	0.680	-0.190	0.830
2020/01/31 03:46:34.1	93.420	0.640	-0.090	0.850
2020/01/31 03:46:34.2	93.420	0.600	0.010	0.870
2020/01/31 03:46:34.3	93.410	0.550	0.110	0.890
2020/01/31 03:46:34.4	93.410	0.500	0.220	0.900
2020/01/31 03:46:34.5	93.400	0.440	0.320	0.910
2020/01/31 03:46:34.6	93.400	0.380	0.420	0.920
2020/01/31 03:46:34.7	93.400	0.310	0.520	0.920
2020/01/31 03:46:34.8	93.390	0.240	0.610	0.920
2020/01/31 03:46:34.9	93.390	0.170	0.710	0.910
2020/01/31 03:46:35.0	93.390	0.090	0.790	0.900
2020/01/31 03:46:35.1	93.390	0.020	0.880	0.890
2020/01/31 03:46:35.2	93.390	-0.060	0.950	0.870
2020/01/31 03:46:35.3	93.390	-0.140	1.020	0.850
2020/01/31 03:46:35.4	93.390	-0.210	1.080	0.830
2020/01/31 03:46:35.5	93.400	-0.290	1.130	0.810
2020/01/31 03:46:35.6	93.400	-0.360	1.170	0.790
2020/01/31 03:46:35.7	93.410	-0.430	1.210	0.770
2020/01/31 03:46:35.8	93.410	-0.490	1.230	0.750
2020/01/31 03:46:35.9	93.420	-0.550	1.240	0.730
2020/01/31 03:46:36.0	93.420	-0.610	1.230	0.720
2020/01/31 03:46:36.1	93.440	-0.660	1.220	0.690
2020/01/31 03:46:36.2	93.440	-0.700	1.190	0.680
2020/01/31 03:46:36.3	93.450	-0.730	1.150	0.670
2020/01/31 03:46:36.4	93.460	-0.760	1.100	0.660
2020/01/31 03:46:36.5	93.460	-0.780	1.040	0.650
2020/01/31 03:46:36.6	93.470	-0.790	0.960	0.640
2020/01/31 03:46:36.7	93.480	-0.790	0.870	0.640
2020/01/31 03:46:36.8	93.480	-0.780	0.770	0.630
2020/01/31 03:46:36.9	93.480	-0.770	0.670	0.620
2020/01/31 03:46:37.0	93.490	-0.750	0.550	0.620
2020/01/31 03:46:37.1	93.490	-0.720	0.430	0.620
2020/01/31 03:46:37.2	93.500	-0.690	0.300	0.610
2020/01/31 03:46:37.3	93.500	-0.650	0.170	0.600
2020/01/31 03:46:37.4	93.510	-0.600	0.040	0.590
2020/01/31 03:46:37.5	93.520	-0.550	-0.100	0.580
2020/01/31 03:46:37.6	93.520	-0.500	-0.230	0.570
2020/01/31 03:46:37.7	93.530	-0.440	-0.360	0.550
2020/01/31 03:46:37.8	93.540	-0.380	-0.490	0.540
2020/01/31 03:46:37.9	93.550	-0.320	-0.620	0.520
2020/01/31 03:46:38.0	93.560	-0.260	-0.740	0.500
2020/01/31 03:46:38.1	93.570	-0.200	-0.860	0.480
2020/01/31 03:46:38.2	93.580	-0.140	-0.970	0.460
2020/01/31 03:46:38.3	93.590	-0.080	-1.060	0.440
2020/01/31 03:46:38.4	93.610	-0.020	-1.150	0.420
2020/01/31 03:46:38.5	93.620	0.030	-1.230	0.400
2020/01/31 03:46:38.6	93.630	0.080	-1.300	0.390
2020/01/31 03:46:38.7	93.640	0.130	-1.350	0.370
2020/01/31 03:46:38.8	93.650	0.170	-1.400	0.360
2020/01/31 03:46:38.9	93.660	0.210	-1.430	0.350
2020/01/31 03:46:39.0	93.670	0.250	-1.450	0.340
2020/01/31 03:46:39.1	93.690	0.280	-1.460	0.330
2020/01/31 03:46:39.2	93.700	0.300	-1.450	0.330
2020/01/31 03:46:39.3	93.710	0.320	-1.440	0.330
2020/01/31 03:46:39.4	93.720	0.340	-1.410	0.340
2020/01/31 03:46:39.5	93.730	0.350	-1.380	0.350
2020/01/31 03:46:39.6	93.740	0.350	-1.330	0.360
2020/01/31 03:46:39.7	93.750	0.350	-1.280	0.380
2020/01/31 03:46:39.8	93.760	0.350	-1.220	0.400
2020/01/31 03:46:39.9	93.760	0.340	-1.140	0.430
2020/01/31 03:46:40.0	93.770	0.330	-1.070	0.460
2020/01/31 03:46:40.1	93.780	0.310	-0.980	0.480
2020/01/31 03:46:40.2	93.780	0.290	-0.890	0.520
2020/01/31 03:46:40.3	93.790	0.270	-0.800	0.560
2020/01/31 03:46:40.4	93.790	0.240	-0.710	0.600
2020/01/31 03:46:40.5	93.800	0.220	-0.620	0.640
2020/01/31 03:46:40.6	93.800	0.190	-0.520	0.680
2020/01/31 03:46:40.7	93.810	0.160	-0.430	0.720
2020/01/31 03:46:40.8	93.810	0.130	-0.340	0.760
2020/01/31 03:46:40.9	93.810	0.100	-0.260	0.800
2020/01/31 03:46:41.0	93.810	0.070	-0.170	0.840
2020/01/31 03:46:41.1	93.820	0.040	-0.090	0.880
2020/01/31 03:46:41.2	93.820	0.010	-0.020	0.920
2020/01/31 03:46:41.3	93.810	-0.020	0.040	0.960
2020/01/31 03:46:41.4	93.810	-0.050	0.100	0.990
2020/01/31 03:46:41.5	93.800	-0.070	0.150	1.020
2020/01/31 03:46:41.6	93.800	-0.100	0.190	1.050
2020/01/31 03:46:41.7	93.790	-0.120	0.230	1.070
2020/01/31 03:46:41.8	93.780	-0.140	0.260	1.090
2020/01/31 03:46:41.9	93.770	-0.150	0.280	1.110
2020/01/31 03:46:42.0	93.760	-0.170	0.290	1.130
2020/01/31 03:46:42.1	93.750	-0.180	0.290	1.130
2020/01/31 03:46:42.2	93.740	-0.190	0.290	1.140
2020/01/31 03:46:42.3	93.730	-0.190	0.280	1.150
2020/01/31 03:46:42.4	93.710	-0.200	0.260	1.150
2020/01/31 03:46:42.5	93.700	-0.200	0.240	1.160
2020/01/31 03:46:42.6	93.690	-0.200	0.200	1.160
2020/01/31 03:46:42.7	93.670	-0.190	0.170	1.160
2020/01/31 03:46:42.8	93.660	-0.190	0.130	1.170
2020/01/31 03:46:42.9	93.640	-0.180	0.080	1.170
2020/01/31 03:46:43.0	93.630	-0.170	0.040	1.170
2020/01/31 03:46:43.1	93.610	-0.160	-0.020	1.170
2020/01/31 03:46:43.2	93.600	-0.140	-0.070	1.170
2020/01/31 03:46:43.3	93.590	-0.130	-0.120	1.170
2020/01/31 03:46:43.4	93.580	-0.120	-0.170	1.170
2020/01/31 03:46:43.5	93.570	-0.100	-0.220	1.170
2020/01/31 03:46:43.6	93.560	-0.090	-0.270	1.160
2020/01/31 03:46:43.7	93.550	-0.070	-0.310	1.160
2020/01/31 03:46:43.8	93.540	-0.060	-0.350	1.160
2020/01/31 03:46:43.9	93.540	-0.040	-0.390	1.150
2020/01/31 03:46:44.0	93.530	-0.030	-0.420	1.140
2020/01/31 03:46:44.1	93.530	-0.020	-0.440	1.120
2020/01/31 03:46:44.2	93.530	-0.010	-0.470	1.110
2020/01/31 03:46:44.3	93.530	0.000	-0.480	1.090
2020/01/31 03:46:44.4	93.530	0.010	-0.490	1.080
2020/01/31 03:46:44.5	93.530	0.020	-0.500	1.050
2020/01/31 03:46:44.6	93.530	0.020	-0.500	1.030
2020/01/31 03:46:44.7	93.540	0.030	-0.490	1.010
2020/01/31 03:46:44.8	93.540	0.030	-0.480	0.980
2020/01/31 03:46:44.9	93.540	0.030	-0.460	0.950
2020/01/31 03:46:45.0	93.550	0.030	-0.440	0.920
2020/01/31 03:46:45.1	93.560	0.040	-0.420	0.890
2020/01/31 03:46:45.2	93.560	0.040	-0.390	0.860
2020/01/31 03:46:45.3	93.570	0.040	-0.360	0.820
2020/01/31 03:46:45.4	93.580	0.040	-0.330	0.790
2020/01/31 03:46:45.5	93.590	0.040	-0.300	0.750
2020/01/31 03:46:45.6	93.610	0.040	-0.270	0.710
2020/01/31 03:46:45.7	93.620	0.040	-0.240	0.680
2020/01/31 03:46:45.8	93.630	0.040	-0.210	0.640
2020/01/31 03:46:45.9	93.650	0.040	-0.180	0.610
2020/01/31 03:46:46.0	93.660	0.040	-0.160	0.570
2020/01/31 03:46:46.1	93.670	0.050	-0.130	0.540
2020/01/31 03:46:46.2	93.680	0.050	-0.110	0.510
2020/01/31 03:46:46.3	93.690	0.060	-0.090	0.490
2020/01/31 03:46:46.4	93.700	0.070	-0.080	0.470
2020/01/31 03:46:46.5	93.710	0.070	-0.070	0.450
2020/01/31 03:46:46.6	93.710	0.080	-0.060	0.440
2020/01/31 03:46:46.7	93.720	0.090	-0.050	0.430
2020/01/31 03:46:46.8	93.720	0.100	-0.040	0.420
2020/01/31 03:46:46.9	93.710	0.110	-0.040	0.420
2020/01/31 03:46:47.0	93.710	0.120	-0.040	0.420
2020/01/31 03:46:47.1	93.720	0.130	-0.040	0.420
2020/01/31 03:46:47.2	93.710	0.140	-0.040	0.430
2020/01/31 03:46:47.3	93.700	0.150	-0.040	0.430
2020/01/31 03:46:47.4	93.700	0.160	-0.050	0.440
2020/01/31 03:46:47.5	93.690	0.170	-0.050	0.450
2020/01/31 03:46:47.6	93.690	0.170	-0.050	0.460
2020/01/31 03:46:47.7	93.680	0.180	-0.060	0.470
2020/01/31 03:46:47.8	93.670	0.180	-0.070	0.470
2020/01/31 03:46:47.9	93.670	0.180	-0.070	0.480
2020/01/31 03:46:48.0	93.660	0.180	-0.080	0.490
2020/01/31 03:46:48.1	93.660	0.180	-0.090	0.490
2020/01/31 03:46:48.2	93.650	0.180	-0.100	0.500
2020/01/31 03:46:48.3	93.650	0.170	-0.110	0.500
2020/01/31 03:46:48.4	93.650	0.160	-0.120	0.500
2020/01/31 03:46:48.5	93.660	0.160	-0.140	0.500
2020/01/31 03:46:48.6	93.660	0.150	-0.150	0.500
2020/01/31 03:46:48.7	93.660	0.140	-0.170	0.500
2020/01/31 03:46:48.8	93.670	0.130	-0.180	0.500
2020/01/31 03:46:48.9	93.680	0.120	-0.200	0.490
2020/01/31 03:46:49.0	93.690	0.110	-0.220	0.490
2020/01/31 03:46:49.1	93.700	0.100	-0.230	0.480
2020/01/31 03:46:49.2	93.710	0.090	-0.250	0.480
2020/01/31 03:46:49.3	93.730	0.090	-0.270	0.470
2020/01/31 03:46:49.4	93.750	0.080	-0.290	0.470
2020/01/31 03:46:49.5	93.760	0.070	-0.300	0.470
2020/01/31 03:46:49.6	93.780	0.060	-0.320	0.470
2020/01/31 03:46:49.7	93.800	0.060	-0.330	0.480
2020/01/31 03:46:49.8	93.820	0.050	-0.340	0.480
2020/01/31 03:46:49.9	93.840	0.050	-0.350	0.490
2020/01/31 03:46:50.0	93.850	0.050	-0.350	0.510
2020/01/31 03:46:50.1	93.870	0.040	-0.360	0.520
2020/01/31 03:46:50.2	93.880	0.040	-0.350	0.540
2020/01/31 03:46:50.3	93.890	0.030	-0.340	0.560
2020/01/31 03:46:50.4	93.900	0.030	-0.330	0.590
2020/01/31 03:46:50.5	93.900	0.030	-0.310	0.620
2020/01/31 03:46:50.6	93.910	0.020	-0.280	0.640
2020/01/31 03:46:50.7	93.910	0.020	-0.260	0.670
2020/01/31 03:46:50.8	93.910	0.010	-0.220	0.700
2020/01/31 03:46:50.9	93.910	0.000	-0.190	0.730
2020/01/31 03:46:51.0	93.910	-0.010	-0.150	0.760
2020/01/31 03:46:51.1	93.910	-0.020	-0.100	0.780
2020/01/31 03:46:51.2	93.910	-0.030	-0.050	0.810
2020/01/31 03:46:51.3	93.910	-0.050	-0.000	0.830
2020/01/31 03:46:51.4	93.910	-0.070	0.050	0.860
2020/01/31 03:46:51.5	93.920	-0.090	0.100	0.880
2020/01/31 03:46:51.6	93.920	-0.110	0.150	0.900
2020/01/31 03:46:51.7	93.920	-0.130	0.200	0.920
2020/01/31 03:46:51.8	93.920	-0.150	0.250	0.940
2020/01/31 03:46:51.9	93.920	-0.180	0.290	0.960
2020/01/31 03:46:52.0	93.930	-0.200	0.330	0.970
2020/01/31 03:46:52.1	93.920	-0.230	0.370	0.980
2020/01/31 03:46:52.2	93.930	-0.260	0.410	1.000
2020/01/31 03:46:52.3	93.930	-0.280	0.430	1.010
2020/01/31 03:46:52.4	93.930	-0.310	0.460	1.020
2020/01/31 03:46:52.5	93.940	-0.330	0.470	1.030
2020/01/31 03:46:52.6	93.940	-0.360	0.480	1.040
2020/01/31 03:46:52.7	93.950	-0.380	0.480	1.040
2020/01/31 03:46:52.8	93.950	-0.400	0.480	1.050
2020/01/31 03:46:52.9	93.950	-0.420	0.460	1.050
2020/01/31 03:46:53.0	93.960	-0.430	0.440	1.060
2020/01/31 03:46:53.1	93.960	-0.440	0.410	1.060
2020/01/31 03:46:53.2	93.970	-0.450	0.360	1.060
2020/01/31 03:46:53.3	93.970	-0.450	0.310	1.060
2020/01/31 03:46:53.4	93.970	-0.440	0.250	1.050
2020/01/31 03:46:53.5	93.980	-0.430	0.190	1.050
2020/01/31 03:46:53.6	93.980	-0.420	0.110	1.040
2020/01/31 03:46:53.7	93.980	-0.400	0.030	1.040
2020/01/31 03:46:53.8	93.990	-0.370	-0.070	1.020
2020/01/31 03:46:53.9	93.990	-0.340	-0.160	1.010
2020/01/31 03:46:54.0	94.000	-0.310	-0.270	0.990
2020/01/31 03:46:54.1	93.990	-0.270	-0.380	0.970
2020/01/31 03:46:54.2	93.990	-0.220	-0.500	0.950
2020/01/31 03:46:54.3	94.000	-0.170	-0.620	0.930
2020/01/31 03:46:54.4	94.000	-0.120	-0.740	0.910
2020/01/31 03:46:54.5	94.000	-0.060	-0.860	0.890
2020/01/31 03:46:54.6	94.000	0.000	-0.980	0.870
2020/01/31 03:46:54.7	94.000	0.060	-1.100	0.850
2020/01/31 03:46:54.8	94.000	0.130	-1.220	0.830
2020/01/31 03:46:54.9	94.000	0.200	-1.340	0.810
2020/01/31 03:46:55.0	93.990	0.260	-1.450	0.800
2020/01/31 03:46:55.1	93.980	0.330	-1.550	0.780
2020/01/31 03:46:55.2	93.970	0.390	-1.640	0.770
2020/01/31 03:46:55.3	93.960	0.450	-1.730	0.750
2020/01/31 03:46:55.4	93.950	0.510	-1.800	0.730
2020/01/31 03:46:55.5	93.930	0.570	-1.860	0.720
2020/01/31 03:46:55.6	93.920	0.620	-1.900	0.700
2020/01/31 03:46:55.7	93.900	0.660	-1.930	0.690
2020/01/31 03:46:55.8	93.890	0.700	-1.940	0.680
2020/01/31 03:46:55.9	93.880	0.730	-1.930	0.660
2020/01/31 03:46:56.0	93.860	0.750	-1.910	0.650
2020/01/31 03:46:56.1	93.840	0.770	-1.880	0.640
2020/01/31 03:46:56.2	93.820	0.770	-1.820	0.630
2020/01/31 03:46:56.3	93.810	0.770	-1.740	0.630
2020/01/31 03:46:56.4	93.800	0.760	-1.650	0.630
2020/01/31 03:46:56.5	93.780	0.750	-1.540	0.630
2020/01/31 03:46:56.6	93.770	0.720	-1.410	0.640
2020/01/31 03:46:56.7	93.750	0.690	-1.270	0.650
2020/01/31 03:46:56.8	93.740	0.650	-1.120	0.660
2020/01/31 03:46:56.9	93.730	0.600	-0.950	0.670
2020/01/31 03:46:57.0	93.720	0.540	-0.770	0.690
2020/01/31 03:46:57.1	93.710	0.470	-0.580	0.710
2020/01/31 03:46:57.2	93.700	0.400	-0.380	0.730
2020/01/31 03:46:57.3	93.700	0.330	-0.190	0.750
2020/01/31 03:46:57.4	93.690	0.240	0.010	0.780
2020/01/31 03:46:57.5	93.690	0.160	0.220	0.800
2020/01/31 03:46:57.6	93.700	0.070	0.420	0.820
2020/01/31 03:46:57.7	93.700	-0.020	0.620	0.840
2020/01/31 03:46:57.8	93.710	-0.120	0.810	0.860
2020/01/31 03:46:57.9	93.710	-0.210	1.000	0.880
2020/01/31 03:46:58.0	93.720	-0.310	1.180	0.900
2020/01/31 03:46:58.1	93.740	-0.400	1.340	0.910
2020/01/31 03:46:58.2	93.750	-0.500	1.500	0.930
2020/01/31 03:46:58.3	93.760	-0.590	1.640	0.940
2020/01/31 03:46:58.4	93.780	-0.670	1.760	0.950
2020/01/31 03:46:58.5	93.800	-0.750	1.870	0.950
2020/01/31 03:46:58.6	93.810	-0.830	1.960	0.960
2020/01/31 03:46:58.7	93.830	-0.900	2.030	0.960
2020/01/31 03:46:58.8	93.850	-0.960	2.080	0.960
2020/01/31 03:46:58.9	93.870	-1.020	2.110	0.950
2020/01/31 03:46:59.0	93.890	-1.070	2.110	0.950
2020/01/31 03:46:59.1	93.900	-1.110	2.100	0.940
2020/01/31 03:46:59.2	93.920	-1.130	2.060	0.930
2020/01/31 03:46:59.3	93.930	-1.160	2.000	0.920
2020/01/31 03:46:59.4	93.950	-1.170	1.920	0.910
2020/01/31 03:46:59.5	93.970	-1.170	1.820	0.900
2020/01/31 03:46:59.6	93.980	-1.160	1.700	0.890
2020/01/31 03:46:59.7	94.000	-1.140	1.560	0.880
2020/01/31 03:46:59.8	94.010	-1.110	1.400	0.870
2020/01/31 03:46:59.9	94.020	-1.080	1.230	0.860
2020/01/31 03:47:00.0	94.020	-1.030	1.040	0.850
2020/01/31 03:47:00.1	94.020	-0.980	0.840	0.840
2020/01/31 03:47:00.2	94.020	-0.920	0.630	0.830
2020/01/31 03:47:00.3	94.020	-0.850	0.420	0.820
2020/01/31 03:47:00.4	94.020	-0.770	0.190	0.810
2020/01/31 03:47:00.5	94.020	-0.690	-0.030	0.800
2020/01/31 03:47:00.6	94.010	-0.610	-0.260	0.800
2020/01/31 03:47:00.7	94.000	-0.510	-0.480	0.790
2020/01/31 03:47:00.8	93.990	-0.420	-0.710	0.790
2020/01/31 03:47:00.9	93.980	-0.330	-0.920	0.780
2020/01/31 03:47:01.0	93.970	-0.230	-1.130	0.780
2020/01/31 03:47:01.1	93.970	-0.130	-1.340	0.780
2020/01/31 03:47:01.2	93.960	-0.030	-1.520	0.780
2020/01/31 03:47:01.3	93.950	0.070	-1.690	0.780
2020/01/31 03:47:01.4	93.940	0.160	-1.850	0.780
2020/01/31 03:47:01.5	93.940	0.250	-1.990	0.790
2020/01/31 03:47:01.6	93.930	0.340	-2.110	0.790
2020/01/31 03:47:01.7	93.920	0.430	-2.200	0.800
2020/01/31 03:47:01.8	93.910	0.510	-2.280	0.810
2020/01/31 03:47:01.9	93.910	0.580	-2.340	0.820
2020/01/31 03:47:02.0	93.910	0.650	-2.370	0.830
2020/01/31 03:47:02.1	93.910	0.710	-2.380	0.840
2020/01/31 03:47:02.2	93.910	0.770	-2.370	0.860
2020/01/31 03:47:02.3	93.920	0.820	-2.340	0.870
2020/01/31 03:47:02.4	93.920	0.860	-2.290	0.890
2020/01/31 03:47:02.5	93.930	0.890	-2.220	0.910
2020/01/31 03:47:02.6	93.930	0.920	-2.130	0.920
2020/01/31 03:47:02.7	93.940	0.940	-2.020	0.940
2020/01/31 03:47:02.8	93.950	0.950	-1.890	0.960
2020/01/31 03:47:02.9	93.960	0.950	-1.750	0.970
2020/01/31 03:47:03.0	93.970	0.950	-1.600	0.980
2020/01/31 03:47:03.1	93.970	0.940	-1.430	1.000
2020/01/31 03:47:03.2	93.980	0.920	-1.250	1.010
2020/01/31 03:47:03.3	93.990	0.900	-1.070	1.010
2020/01/31 03:47:03.4	94.000	0.870	-0.890	1.020
2020/01/31 03:47:03.5	94.010	0.830	-0.700	1.020
2020/01/31 03:47:03.6	94.020	0.790	-0.510	1.020
2020/01/31 03:47:03.7	94.030	0.740	-0.320	1.020
2020/01/31 03:47:03.8	94.030	0.690	-0.130	1.020
2020/01/31 03:47:03.9	94.040	0.640	0.050	1.020
2020/01/31 03:47:04.0	94.040	0.580	0.230	1.010
2020/01/31 03:47:04.1	94.040	0.530	0.400	0.990
2020/01/31 03:47:04.2	94.040	0.460	0.560	0.990
2020/01/31 03:47:04.3	94.030	0.400	0.710	0.980
2020/01/31 03:47:04.4	94.030	0.340	0.850	0.960
2020/01/31 03:47:04.5	94.030	0.280	0.980	0.950
2020/01/31 03:47:04.6	94.020	0.220	1.090	0.940
2020/01/31 03:47:04.7	94.010	0.160	1.180	0.930
2020/01/31 03:47:04.8	94.000	0.100	1.260	0.920
2020/01/31 03:47:04.9	94.000	0.050	1.320	0.910
2020/01/31 03:47:05.0	93.990	-0.000	1.360	0.900
2020/01/31 03:47:05.1	93.970	-0.050	1.390	0.890
2020/01/31 03:47:05.2	93.960	-0.090	1.400	0.880
2020/01/31 03:47:05.3	93.950	-0.130	1.390	0.870
2020/01/31 03:47:05.4	93.940	-0.160	1.360	0.870
2020/01/31 03:47:05.5	93.920	-0.190	1.320	0.860
2020/01/31 03:47:05.6	93.910	-0.210	1.260	0.860
2020/01/31 03:47:05.7	93.900	-0.230	1.180	0.860
2020/01/31 03:47:05.8	93.890	-0.230	1.100	0.850
2020/01/31 03:47:05.9	93.890	-0.240	1.000	0.850
2020/01/31 03:47:06.0	93.880	-0.240	0.890	0.840
2020/01/31 03:47:06.1	93.870	-0.230	0.760	0.830
2020/01/31 03:47:06.2	93.860	-0.220	0.640	0.820
2020/01/31 03:47:06.3	93.860	-0.200	0.510	0.820
2020/01/31 03:47:06.4	93.850	-0.180	0.370	0.810
2020/01/31 03:47:06.5	93.850	-0.160	0.230	0.800
2020/01/31 03:47:06.6	93.850	-0.130	0.100	0.790
2020/01/31 03:47:06.7	93.850	-0.100	-0.040	0.780
2020/01/31 03:47:06.8	93.840	-0.070	-0.170	0.770
2020/01/31 03:47:06.9	93.840	-0.040	-0.300	0.750
2020/01/31 03:47:07.0	93.840	-0.010	-0.420	0.740
2020/01/31 03:47:07.1	93.850	0.020	-0.530	0.730
2020/01/31 03:47:07.2	93.850	0.050	-0.640	0.720
2020/01/31 03:47:07.3	93.850	0.080	-0.730	0.720
2020/01/31 03:47:07.4	93.850	0.110	-0.810	0.710
2020/01/31 03:47:07.5	93.840	0.140	-0.890	0.700
2020/01/31 03:47:07.6	93.840	0.160	-0.950	0.700
2020/01/31 03:47:07.7	93.840	0.180	-0.990	0.700
2020/01/31 03:47:07.8	93.830	0.200	-1.030	0.690
2020/01/31 03:47:07.9	93.830	0.210	-1.050	0.690
2020/01/31 03:47:08.0	93.830	0.220	-1.070	0.700
2020/01/31 03:47:08.1	93.830	0.220	-1.070	0.700
2020/01/31 03:47:08.2	93.830	0.220	-1.060	0.700
2020/01/31 03:47:08.3	93.830	0.220	-1.040	0.710
2020/01/31 03:47:08.4	93.830	0.210	-1.010	0.720
2020/01/31 03:47:08.5	93.830	0.200	-0.970	0.730
2020/01/31 03:47:08.6	93.830	0.180	-0.930	0.750
2020/01/31 03:47:08.7	93.830	0.160	-0.880	0.770
2020/01/31 03:47:08.8	93.830	0.140	-0.820	0.790
2020/01/31 03:47:08.9	93.830	0.120	-0.760	0.810
2020/01/31 03:47:09.0	93.820	0.090	-0.700	0.830
2020/01/31 03:47:09.1	93.820	0.060	-0.630	0.860
2020/01/31 03:47:09.2	93.820	0.030	-0.570	0.890
2020/01/31 03:47:09.3	93.820	-0.010	-0.500	0.910
2020/01/31 03:47:09.4	93.820	-0.040	-0.440	0.940
2020/01/31 03:47:09.5	93.820	-0.080	-0.380	0.970
2020/01/31 03:47:09.6	93.810	-0.110	-0.320	1.000
2020/01/31 03:47:09.7	93.810	-0.150	-0.260	1.030
2020/01/31 03:47:09.8	93.810	-0.180	-0.210	1.050
2020/01/31 03:47:09.9	93.810	-0.210	-0.170	1.080
2020/01/31 03:47:10.0	93.800	-0.240	-0.130	1.100
2020/01/31 03:47:10.1	93.810	-0.270	-0.090	1.120
2020/01/31 03:47:10.2	93.800	-0.300	-0.070	1.140
2020/01/31 03:47:10.3	93.800	-0.320	-0.050	1.160
2020/01/31 03:47:10.4	93.800	-0.340	-0.040	1.180
2020/01/31 03:47:10.5	93.800	-0.360	-0.030	1.190
2020/01/31 03:47:10.6	93.790	-0.380	-0.030	1.210
2020/01/31 03:47:10.7	93.790	-0.390	-0.030	1.220
2020/01/31 03:47:10.8	93.790	-0.400	-0.040	1.230
2020/01/31 03:47:10.9	93.790	-0.400	-0.050	1.240
2020/01/31 03:47:11.0	93.790	-0.410	-0.070	1.250
2020/01/31 03:47:11.1	93.790	-0.410	-0.090	1.250
2020/01/31 03:47:11.2	93.790	-0.410	-0.110	1.260
2020/01/31 03:47:11.3	93.780	-0.400	-0.130	1.270
2020/01/31 03:47:11.4	93.780	-0.390	-0.150	1.280
2020/01/31 03:47:11.5	93.780	-0.390	-0.160	1.290
2020/01/31 03:47:11.6	93.770	-0.380	-0.180	1.310
2020/01/31 03:47:11.7	93.770	-0.370	-0.190	1.320
2020/01/31 03:47:11.8	93.760	-0.350	-0.210	1.330
2020/01/31 03:47:11.9	93.750	-0.340	-0.210	1.340
2020/01/31 03:47:12.0	93.750	-0.330	-0.220	1.360
2020/01/31 03:47:12.1	93.730	-0.320	-0.220	1.370
2020/01/31 03:47:12.2	93.720	-0.310	-0.220	1.380
2020/01/31 03:47:12.3	93.710	-0.300	-0.220	1.400
2020/01/31 03:47:12.4	93.700	-0.290	-0.210	1.410
2020/01/31 03:47:12.5	93.690	-0.280	-0.200	1.410
2020/01/31 03:47:12.6	93.690	-0.270	-0.190	1.420
2020/01/31 03:47:12.7	93.680	-0.260	-0.170	1.420
2020/01/31 03:47:12.8	93.680	-0.260	-0.160	1.420
2020/01/31 03:47:12.9	93.670	-0.250	-0.140	1.420
2020/01/31 03:47:13.0	93.670	-0.250	-0.120	1.410
2020/01/31 03:47:13.1	93.670	-0.250	-0.100	1.390
2020/01/31 03:47:13.2	93.670	-0.250	-0.080	1.370
2020/01/31 03:47:13.3	93.670	-0.250	-0.060	1.350
2020/01/31 03:47:13.4	93.680	-0.250	-0.050	1.330
2020/01/31 03:47:13.5	93.680	-0.250	-0.030	1.300
2020/01/31 03:47:13.6	93.690	-0.250	-0.010	1.260
2020/01/31 03:47:13.7	93.700	-0.260	0.000	1.220
2020/01/31 03:47:13.8	93.710	-0.260	0.010	1.180
2020/01/31 03:47:13.9	93.720	-0.260	0.020	1.140
2020/01/31 03:47:14.0	93.730	-0.260	0.030	1.090
2020/01/31 03:47:14.1	93.750	-0.260	0.040	1.050
2020/01/31 03:47:14.2	93.770	-0.260	0.040	1.000
2020/01/31 03:47:14.3	93.780	-0.260	0.040	0.960
2020/01/31 03:47:14.4	93.790	-0.260	0.040	0.910
2020/01/31 03:47:14.5	93.800	-0.250	0.030	0.870
2020/01/31 03:47:14.6	93.810	-0.240	0.020	0.830
2020/01/31 03:47:14.7	93.820	-0.230	0.010	0.790
2020/01/31 03:47:14.8	93.830	-0.220	-0.000	0.750
2020/01/31 03:47:14.9	93.840	-0.210	-0.020	0.720
2020/01/31 03:47:15.0	93.840	-0.190	-0.040	0.690
2020/01/31 03:47:15.1	93.840	-0.170	-0.070	0.660
2020/01/31 03:47:15.2	93.840	-0.150	-0.090	0.640
2020/01/31 03:47:15.3	93.830	-0.130	-0.120	0.610
2020/01/31 03:47:15.4	93.830	-0.100	-0.150	0.590
2020/01/31 03:47:15.5	93.820	-0.070	-0.180	0.580
2020/01/31 03:47:15.6	93.810	-0.040	-0.220	0.560
2020/01/31 03:47:15.7	93.800	-0.000	-0.260	0.550
2020/01/31 03:47:15.8	93.780	0.040	-0.290	0.540
2020/01/31 03:47:15.9	93.770	0.080	-0.330	0.530
2020/01/31 03:47:16.0	93.750	0.120	-0.370	0.520
2020/01/31 03:47:16.1	93.740	0.160	-0.420	0.500
2020/01/31 03:47:16.2	93.720	0.210	-0.460	0.490
2020/01/31 03:47:16.3	93.700	0.250	-0.490	0.480
2020/01/31 03:47:16.4	93.670	0.300	-0.530	0.480
2020/01/31 03:47:16.5	93.650	0.340	-0.560	0.470
2020/01/31 03:47:16.6	93.630	0.390	-0.600	0.460
2020/01/31 03:47:16.7	93.600	0.430	-0.620	0.460
2020/01/31 03:47:16.8	93.580	0.480	-0.650	0.450
2020/01/31 03:47:16.9	93.560	0.520	-0.670	0.450
2020/01/31 03:47:17.0	93.530	0.560	-0.690	0.440
2020/01/31 03:47:17.1	93.520	0.600	-0.700	0.440
2020/01/31 03:47:17.2	93.500	0.630	-0.710	0.440
2020/01/31 03:47:17.3	93.480	0.660	-0.720	0.440
2020/01/31 03:47:17.4	93.460	0.690	-0.720	0.450
2020/01/31 03:47:17.5	93.440	0.720	-0.710	0.450
2020/01/31 03:47:17.6	93.430	0.740	-0.710	0.460
2020/01/31 03:47:17.7	93.420	0.760	-0.700	0.470
2020/01/31 03:47:17.8	93.410	0.770	-0.680	0.470
2020/01/31 03:47:17.9	93.400	0.780	-0.660	0.480
2020/01/31 03:47:18.0	93.390	0.780	-0.640	0.490
2020/01/31 03:47:18.1	93.380	0.780	-0.610	0.500
2020/01/31 03:47:18.2	93.380	0.780	-0.580	0.510
2020/01/31 03:47:18.3	93.380	0.770	-0.550	0.520
2020/01/31 03:47:18.4	93.380	0.760	-0.520	0.530
2020/01/31 03:47:18.5	93.390	0.740	-0.480	0.530
2020/01/31 03:47:18.6	93.390	0.720	-0.450	0.540
2020/01/31 03:47:18.7	93.400	0.700	-0.410	0.540
2020/01/31 03:47:18.8	93.410	0.670	-0.370	0.540
2020/01/31 03:47:18.9	93.420	0.640	-0.330	0.540
2020/01/31 03:47:19.0	93.430	0.610	-0.290	0.530
2020/01/31 03:47:19.1	93.440	0.570	-0.260	0.530
2020/01/31 03:47:19.2	93.450	0.530	-0.220	0.520
2020/01/31 03:47:19.3	93.470	0.490	-0.180	0.510
2020/01/31 03:47:19.4	93.480	0.450	-0.140	0.500
2020/01/31 03:47:19.5	93.490	0.400	-0.110	0.490
2020/01/31 03:47:19.6	93.510	0.360	-0.070	0.480
2020/01/31 03:47:19.7	93.520	0.310	-0.040	0.470
2020/01/31 03:47:19.8	93.530	0.260	-0.010	0.460
2020/01/31 03:47:19.9	93.550	0.220	0.020	0.460
2020/01/31 03:47:20.0	93.560	0.170	0.050	0.460
2020/01/31 03:47:20.1	93.580	0.120	0.080	0.450
2020/01/31 03:47:20.2	93.590	0.080	0.100	0.460
2020/01/31 03:47:20.3	93.600	0.030	0.130	0.460
2020/01/31 03:47:20.4	93.610	-0.010	0.150	0.470
2020/01/31 03:47:20.5	93.610	-0.050	0.160	0.490
2020/01/31 03:47:20.6	93.620	-0.090	0.180	0.510
2020/01/31 03:47:20.7	93.620	-0.130	0.190	0.540
2020/01/31 03:47:20.8	93.620	-0.170	0.200	0.570
2020/01/31 03:47:20.9	93.620	-0.210	0.220	0.600
2020/01/31 03:47:21.0	93.620	-0.240	0.220	0.640
2020/01/31 03:47:21.1	93.600	-0.280	0.230	0.680
2020/01/31 03:47:21.2	93.590	-0.310	0.230	0.730
2020/01/31 03:47:21.3	93.590	-0.330	0.240	0.770
2020/01/31 03:47:21.4	93.580	-0.360	0.240	0.820
2020/01/31 03:47:21.5	93.560	-0.390	0.240	0.870
2020/01/31 03:47:21.6	93.550	-0.410	0.230	0.920
2020/01/31 03:47:21.7	93.540	-0.430	0.230	0.970
2020/01/31 03:47:21.8	93.520	-0.440	0.220	1.020
2020/01/31 03:47:21.9	93.510	-0.460	0.210	1.070
2020/01/31 03:47:22.0	93.490	-0.470	0.200	1.110
2020/01/31 03:47:22.1	93.450	-0.480	0.190	1.150
2020/01/31 03:47:22.2	93.440	-0.490	0.170	1.190
2020/01/31 03:47:22.3	93.420	-0.490	0.150	1.220
2020/01/31 03:47:22.4	93.410	-0.490	0.130	1.260
2020/01/31 03:47:22.5	93.400	-0.490	0.100	1.280
2020/01/31 03:47:22.6	93.390	-0.490	0.070	1.310
2020/01/31 03:47:22.7	93.380	-0.480	0.040	1.330
2020/01/31 03:47:22.8	93.370	-0.470	0.010	1.350
2020/01/31 03:47:22.9	93.360	-0.460	-0.030	1.360
2020/01/31 03:47:23.0	93.360	-0.450	-0.060	1.370
2020/01/31 03:47:23.1	93.350	-0.430	-0.110	1.370
2020/01/31 03:47:23.2	93.350	-0.410	-0.150	1.380
2020/01/31 03:47:23.3	93.350	-0.390	-0.190	1.380
2020/01/31 03:47:23.4	93.350	-0.360	-0.230	1.380
2020/01/31 03:47:23.5	93.350	-0.340	-0.280	1.370
2020/01/31 03:47:23.6	93.350	-0.310	-0.320	1.370
2020/01/31 03:47:23.7	93.350	-0.280	-0.360	1.370
2020/01/31 03:47:23.8	93.350	-0.250	-0.400	1.360
2020/01/31 03:47:23.9	93.360	-0.220	-0.440	1.360
2020/01/31 03:47:24.0	93.360	-0.190	-0.470	1.350
2020/01/31 03:47:24.1	93.370	-0.160	-0.510	1.340
2020/01/31 03:47:24.2	93.380	-0.130	-0.540	1.330
2020/01/31 03:47:24.3	93.380	-0.100	-0.560	1.320
2020/01/31 03:47:24.4	93.380	-0.070	-0.580	1.310
2020/01/31 03:47:24.5	93.380	-0.050	-0.600	1.300
2020/01/31 03:47:24.6	93.380	-0.020	-0.610	1.290
2020/01/31 03:47:24.7	93.380	0.000	-0.620	1.270
2020/01/31 03:47:24.8	93.380	0.030	-0.620	1.260
2020/01/31 03:47:24.9	93.370	0.050	-0.620	1.240
2020/01/31 03:47:25.0	93.370	0.070	-0.620	1.220
2020/01/31 03:47:25.1	93.370	0.080	-0.610	1.200
2020/01/31 03:47:25.2	93.360	0.100	-0.600	1.170
2020/01/31 03:47:25.3	93.360	0.110	-0.580	1.140
2020/01/31 03:47:25.4	93.350	0.120	-0.560	1.120
2020/01/31 03:47:25.5	93.340	0.130	-0.540	1.090
2020/01/31 03:47:25.6	93.340	0.130	-0.520	1.060
2020/01/31 03:47:25.7	93.330	0.140	-0.490	1.020
2020/01/31 03:47:25.8	93.320	0.140	-0.470	0.990
2020/01/31 03:47:25.9	93.310	0.140	-0.440	0.960
2020/01/31 03:47:26.0	93.300	0.140	-0.410	0.930
2020/01/31 03:47:26.1	93.290	0.130	-0.380	0.890
2020/01/31 03:47:26.2	93.280	0.130	-0.350	0.860
2020/01/31 03:47:26.3	93.280	0.120	-0.330	0.830
2020/01/31 03:47:26.4	93.270	0.110	-0.300	0.800
2020/01/31 03:47:26.5	93.260	0.100	-0.280	0.770
2020/01/31 03:47:26.6	93.250	0.100	-0.260	0.750
2020/01/31 03:47:26.7	93.250	0.090	-0.240	0.730
2020/01/31 03:47:26.8	93.240	0.080	-0.220	0.710
2020/01/31 03:47:26.9	93.240	0.070	-0.210	0.690
2020/01/31 03:47:27.0	93.230	0.060	-0.200	0.670
2020/01/31 03:47:27.1	93.230	0.060	-0.190	0.660
2020/01/31 03:47:27.2	93.220	0.050	-0.190	0.650
2020/01/31 03:47:27.3	93.220	0.040	-0.190	0.640
2020/01/31 03:47:27.4	93.210	0.040	-0.190	0.630
2020/01/31 03:47:27.5	93.210	0.030	-0.190	0.620
2020/01/31 03:47:27.6	93.210	0.030	-0.200	0.610
2020/01/31 03:47:27.7	93.200	0.030	-0.210	0.600
2020/01/31 03:47:27.8	93.200	0.030	-0.220	0.600
2020/01/31 03:47:27.9	93.190	0.030	-0.240	0.590
2020/01/31 03:47:28.0	93.190	0.030	-0.250	0.590
2020/01/31 03:47:28.1	93.180	0.040	-0.270	0.570
2020/01/31 03:47:28.2	93.180	0.040	-0.280	0.570
2020/01/31 03:47:28.3	93.180	0.050	-0.300	0.560
2020/01/31 03:47:28.4	93.180	0.060	-0.320	0.560
2020/01/31 03:47:28.5	93.180	0.060	-0.340	0.550
2020/01/31 03:47:28.6	93.180	0.070	-0.350	0.550
2020/01/31 03:47:28.7	93.180	0.080	-0.360	0.550
2020/01/31 03:47:28.8	93.180	0.080	-0.380	0.550
2020/01/31 03:47:28.9	93.190	0.090	-0.380	0.550
2020/01/31 03:47:29.0	93.200	0.100	-0.390	0.550
2020/01/31 03:47:29.1	93.190	0.110	-0.400	0.550
2020/01/31 03:47:29.2	93.210	0.110	-0.400	0.560
2020/01/31 03:47:29.3	93.220	0.110	-0.390	0.570
2020/01/31 03:47:29.4	93.230	0.120	-0.380	0.580
2020/01/31 03:47:29.5	93.240	0.120	-0.370	0.590
2020/01/31 03:47:29.6	93.250	0.120	-0.350	0.610
2020/01/31 03:47:29.7	93.260	0.110	-0.330	0.630
2020/01/31 03:47:29.8	93.270	0.110	-0.310	0.650
2020/01/31 03:47:29.9	93.280	0.100	-0.280	0.680
2020/01/31 03:47:30.0	93.290	0.090	-0.250	0.710
2020/01/31 03:47:30.1	93.290	0.080	-0.210	0.730
2020/01/31 03:47:30.2	93.300	0.060	-0.170	0.760
2020/01/31 03:47:30.3	93.310	0.040	-0.130	0.790
2020/01/31 03:47:30.4	93.310	0.020	-0.090	0.820
2020/01/31 03:47:30.5	93.320	0.000	-0.050	0.850
2020/01/31 03:47:30.6	93.320	-0.020	-0.010	0.880
2020/01/31 03:47:30.7	93.320	-0.050	0.030	0.910
2020/01/31 03:47:30.8	93.320	-0.080	0.070	0.940
2020/01/31 03:47:30.9	93.320	-0.100	0.110	0.970
2020/01/31 03:47:31.0	93.310	-0.130	0.150	1.000
2020/01/31 03:47:31.1	93.320	-0.160	0.190	1.030
2020/01/31 03:47:31.2	93.310	-0.190	0.220	1.060
2020/01/31 03:47:31.3	93.300	-0.220	0.250	1.090
2020/01/31 03:47:31.4	93.280	-0.250	0.270	1.120
2020/01/31 03:47:31.5	93.270	-0.270	0.290	1.150
2020/01/31 03:47:31.6	93.260	-0.300	0.300	1.180
2020/01/31 03:47:31.7	93.240	-0.320	0.310	1.210
2020/01/31 03:47:31.8	93.220	-0.340	0.310	1.240
2020/01/31 03:47:31.9	93.210	-0.360	0.310	1.270
2020/01/31 03:47:32.0	93.190	-0.370	0.300	1.300
2020/01/31 03:47:32.1	93.170	-0.390	0.290	1.320
2020/01/31 03:47:32.2	93.150	-0.400	0.270	1.350
2020/01/31 03:47:32.3	93.130	-0.400	0.250	1.370
2020/01/31 03:47:32.4	93.110	-0.410	0.220	1.400
2020/01/31 03:47:32.5	93.090	-0.410	0.190	1.420
2020/01/31 03:47:32.6	93.070	-0.400	0.150	1.430
2020/01/31 03:47:32.7	93.050	-0.400	0.110	1.450
2020/01/31 03:47:32.8	93.030	-0.390	0.070	1.460
2020/01/31 03:47:32.9	93.010	-0.370	0.030	1.470
2020/01/31 03:47:33.0	92.990	-0.360	-0.020	1.470
2020/01/31 03:47:33.1	92.970	-0.340	-0.070	1.470
2020/01/31 03:47:33.2	92.950	-0.320	-0.120	1.470
2020/01/31 03:47:33.3	92.940	-0.300	-0.170	1.460
2020/01/31 03:47:33.4	92.930	-0.270	-0.220	1.450
2020/01/31 03:47:33.5	92.920	-0.240	-0.270	1.430
2020/01/31 03:47:33.6	92.910	-0.210	-0.330	1.410
2020/01/31 03:47:33.7	92.910	-0.170	-0.380	1.380
2020/01/31 03:47:33.8	92.910	-0.140	-0.430	1.350
2020/01/31 03:47:33.9	92.920	-0.100	-0.490	1.320
2020/01/31 03:47:34.0	92.920	-0.060	-0.540	1.280
2020/01/31 03:47:34.1	92.940	-0.020	-0.590	1.230
2020/01/31 03:47:34.2	92.950	0.020	-0.640	1.190
2020/01/31 03:47:34.3	92.970	0.070	-0.690	1.140
2020/01/31 03:47:34.4	92.980	0.110	-0.730	1.090
2020/01/31 03:47:34.5	93.000	0.150	-0.780	1.040
2020/01/31 03:47:34.6	93.030	0.200	-0.820	0.980
2020/01/31 03:47:34.7	93.050	0.240	-0.860	0.930
2020/01/31 03:47:34.8	93.080	0.290	-0.890	0.880
2020/01/31 03:47:34.9	93.110	0.330	-0.920	0.820
2020/01/31 03:47:35.0	93.140	0.370	-0.940	0.770
2020/01/31 03:47:35.1	93.170	0.410	-0.960	0.720
2020/01/31 03:47:35.2	93.200	0.440	-0.970	0.680
2020/01/31 03:47:35.3	93.230	0.480	-0.980	0.630
2020/01/31 03:47:35.4	93.260	0.510	-0.970	0.600
2020/01/31 03:47:35.5	93.290	0.540	-0.960	0.560
2020/01/31 03:47:35.6	93.320	0.560	-0.950	0.530
2020/01/31 03:47:35.7	93.350	0.580	-0.920	0.510
2020/01/31 03:47:35.8	93.370	0.600	-0.890	0.490
2020/01/31 03:47:35.9	93.400	0.610	-0.850	0.470
2020/01/31 03:47:36.0	93.420	0.620	-0.800	0.460
2020/01/31 03:47:36.1	93.450	0.620	-0.750	0.460
2020/01/31 03:47:36.2	93.460	0.620	-0.690	0.460
2020/01/31 03:47:36.3	93.480	0.620	-0.630	0.460
2020/01/31 03:47:36.4	93.490	0.610	-0.570	0.470
2020/01/31 03:47:36.5	93.500	0.600	-0.490	0.480
2020/01/31 03:47:36.6	93.510	0.580	-0.420	0.490
2020/01/31 03:47:36.7	93.510	0.560	-0.350	0.510
2020/01/31 03:47:36.8	93.520	0.540	-0.270	0.530
2020/01/31 03:47:36.9	93.520	0.510	-0.200	0.540
2020/01/31 03:47:37.0	93.520	0.480	-0.120	0.560
2020/01/31 03:47:37.1	93.510	0.440	-0.040	0.580
2020/01/31 03:47:37.2	93.510	0.400	0.030	0.600
2020/01/31 03:47:37.3	93.510	0.360	0.100	0.620
2020/01/31 03:47:37.4	93.500	0.320	0.170	0.630
2020/01/31 03:47:37.5	93.490	0.280	0.230	0.650
2020/01/31 03:47:37.6	93.490	0.230	0.290	0.670
2020/01/31 03:47:37.7	93.480	0.190	0.350	0.690
2020/01/31 03:47:37.8	93.470	0.140	0.400	0.710
2020/01/31 03:47:37.9	93.450	0.090	0.440	0.730
2020/01/31 03:47:38.0	93.430	0.040	0.480	0.750
2020/01/31 03:47:38.1	93.420	-0.000	0.520	0.770
2020/01/31 03:47:38.2	93.400	-0.050	0.550	0.800
2020/01/31 03:47:38.3	93.370	-0.100	0.570	0.820
2020/01/31 03:47:38.4	93.350	-0.140	0.590	0.850
2020/01/31 03:47:38.5	93.320	-0.180	0.600	0.880
2020/01/31 03:47:38.6	93.290	-0.220	0.610	0.910
2020/01/31 03:47:38.7	93.260	-0.260	0.600	0.950
2020/01/31 03:47:38.8	93.220	-0.290	0.590	0.980
2020/01/31 03:47:38.9	93.190	-0.320	0.580	1.010
2020/01/31 03:47:39.0	93.150	-0.350	0.550	1.050
2020/01/31 03:47:39.1	93.110	-0.370	0.520	1.080
2020/01/31 03:47:39.2	93.070	-0.390	0.480	1.110
2020/01/31 03:47:39.3	93.030	-0.400	0.430	1.140
2020/01/31 03:47:39.4	93.000	-0.410	0.370	1.170
2020/01/31 03:47:39.5	92.960	-0.420	0.310	1.190
2020/01/31 03:47:39.6	92.930	-0.410	0.240	1.210
2020/01/31 03:47:39.7	92.900	-0.410	0.160	1.220
2020/01/31 03:47:39.8	92.870	-0.400	0.080	1.230
2020/01/31 03:47:39.9	92.850	-0.380	-0.010	1.230
2020/01/31 03:47:40.0	92.820	-0.360	-0.100	1.230
2020/01/31 03:47:40.1	92.800	-0.340	-0.190	1.220
2020/01/31 03:47:40.2	92.790	-0.310	-0.290	1.210
2020/01/31 03:47:40.3	92.780	-0.290	-0.390	1.190
2020/01/31 03:47:40.4	92.770	-0.250	-0.490	1.170
2020/01/31 03:47:40.5	92.770	-0.220	-0.580	1.150
2020/01/31 03:47:40.6	92.770	-0.190	-0.680	1.120
2020/01/31 03:47:40.7	92.780	-0.150	-0.770	1.090
2020/01/31 03:47:40.8	92.790	-0.110	-0.850	1.060
2020/01/31 03:47:40.9	92.800	-0.080	-0.930	1.020
2020/01/31 03:47:41.0	92.820	-0.040	-1.010	0.990
2020/01/31 03:47:41.1	92.850	-0.010	-1.080	0.950
2020/01/31 03:47:41.2	92.870	0.020	-1.140	0.910
2020/01/31 03:47:41.3	92.910	0.050	-1.180	0.870
2020/01/31 03:47:41.4	92.940	0.080	-1.220	0.840
2020/01/31 03:47:41.5	92.980	0.100	-1.250	0.800
2020/01/31 03:47:41.6	93.020	0.130	-1.260	0.770
2020/01/31 03:47:41.7	93.060	0.140	-1.270	0.740
2020/01/31 03:47:41.8	93.100	0.160	-1.260	0.720
2020/01/31 03:47:41.9	93.150	0.160	-1.240	0.690
2020/01/31 03:47:42.0	93.190	0.170	-1.210	0.670
2020/01/31 03:47:42.1	93.240	0.170	-1.170	0.660
2020/01/31 03:47:42.2	93.280	0.170	-1.110	0.640
2020/01/31 03:47:42.3	93.330	0.160	-1.050	0.630
2020/01/31 03:47:42.4	93.370	0.140	-0.970	0.630
2020/01/31 03:47:42.5	93.400	0.130	-0.890	0.620
2020/01/31 03:47:42.6	93.440	0.110	-0.790	0.620
2020/01/31 03:47:42.7	93.470	0.080	-0.690	0.630
2020/01/31 03:47:42.8	93.500	0.050	-0.580	0.630
2020/01/31 03:47:42.9	93.520	0.020	-0.460	0.640
2020/01/31 03:47:43.0	93.550	-0.010	-0.340	0.660
2020/01/31 03:47:43.1	93.570	-0.050	-0.210	0.670
2020/01/31 03:47:43.2	93.580	-0.090	-0.080	0.690
2020/01/31 03:47:43.3	93.580	-0.130	0.050	0.710
2020/01/31 03:47:43.4	93.580	-0.170	0.180	0.730
2020/01/31 03:47:43.5	93.580	-0.210	0.310	0.760
2020/01/31 03:47:43.6	93.570	-0.260	0.430	0.780
2020/01/31 03:47:43.7	93.560	-0.300	0.550	0.810
2020/01/31 03:47:43.8	93.540	-0.340	0.670	0.840
2020/01/31 03:47:43.9	93.510	-0.380	0.770	0.870
2020/01/31 03:47:44.0	93.490	-0.420	0.870	0.900
2020/01/31 03:47:44.1	93.460	-0.450	0.950	0.930
2020/01/31 03:47:44.2	93.420	-0.480	1.030	0.960
2020/01/31 03:47:44.3	93.390	-0.510	1.090	0.990
2020/01/31 03:47:44.4	93.350	-0.540	1.130	1.020
2020/01/31 03:47:44.5	93.310	-0.560	1.160	1.050
2020/01/31 03:47:44.6	93.270	-0.570	1.180	1.070
2020/01/31 03:47:44.7	93.230	-0.580	1.180	1.090
2020/01/31 03:47:44.8	93.190	-0.590	1.160	1.110
2020/01/31 03:47:44.9	93.160	-0.590	1.130	1.130
2020/01/31 03:47:45.0	93.120	-0.590	1.090	1.140
2020/01/31 03:47:45.1	93.090	-0.580	1.020	1.150
2020/01/31 03:47:45.2	93.060	-0.560	0.940	1.160
2020/01/31 03:47:45.3	93.030	-0.540	0.850	1.160
2020/01/31 03:47:45.4	93.000	-0.510	0.750	1.150
2020/01/31 03:47:45.5	92.970	-0.480	0.630	1.150
2020/01/31 03:47:45.6	92.950	-0.440	0.500	1.130
2020/01/31 03:47:45.7	92.930	-0.400	0.370	1.120
2020/01/31 03:47:45.8	92.910	-0.360	0.220	1.100
2020/01/31 03:47:45.9	92.900	-0.310	0.070	1.070
2020/01/31 03:47:46.0	92.880	-0.260	-0.080	1.040
2020/01/31 03:47:46.1	92.870	-0.200	-0.240	1.010
2020/01/31 03:47:46.2	92.860	-0.150	-0.390	0.970
2020/01/31 03:47:46.3	92.850	-0.090	-0.550	0.930
2020/01/31 03:47:46.4	92.850	-0.030	-0.700	0.880
2020/01/31 03:47:46.5	92.840	0.030	-0.840	0.830
2020/01/31 03:47:46.6	92.840	0.080	-0.980	0.780
2020/01/31 03:47:46.7	92.840	0.140	-1.110	0.730
2020/01/31 03:47:46.8	92.840	0.190	-1.230	0.670
2020/01/31 03:47:46.9	92.840	0.250	-1.340	0.620
2020/01/31 03:47:47.0	92.850	0.290	-1.430	0.570
2020/01/31 03:47:47.1	92.840	0.340	-1.510	0.510
2020/01/31 03:47:47.2	92.840	0.380	-1.580	0.460
2020/01/31 03:47:47.3	92.850	0.420	-1.630	0.410
2020/01/31 03:47:47.4	92.870	0.460	-1.670	0.360
2020/01/31 03:47:47.5	92.880	0.490	-1.690	0.320
2020/01/31 03:47:47.6	92.900	0.510	-1.690	0.280
2020/01/31 03:47:47.7	92.910	0.540	-1.680	0.250
2020/01/31 03:47:47.8	92.930	0.550	-1.660	0.220
2020/01/31 03:47:47.9	92.960	0.560	-1.620	0.190
2020/01/31 03:47:48.0	92.980	0.570	-1.560	0.170
2020/01/31 03:47:48.1	93.010	0.570	-1.500	0.160
2020/01/31 03:47:48.2	93.030	0.570	-1.420	0.150
2020/01/31 03:47:48.3	93.050	0.560	-1.340	0.150
2020/01/31 03:47:48.4	93.080	0.550	-1.240	0.150
2020/01/31 03:47:48.5	93.100	0.530	-1.140	0.160
2020/01/31 03:47:48.6	93.130	0.510	-1.030	0.180
2020/01/31 03:47:48.7	93.150	0.490	-0.920	0.200
2020/01/31 03:47:48.8	93.170	0.470	-0.800	0.220
2020/01/31 03:47:48.9	93.200	0.440	-0.680	0.250
2020/01/31 03:47:49.0	93.220	0.410	-0.560	0.290
2020/01/31 03:47:49.1	93.230	0.380	-0.440	0.330
2020/01/31 03:47:49.2	93.250	0.340	-0.320	0.370
2020/01/31 03:47:49.3	93.270	0.310	-0.200	0.420
2020/01/31 03:47:49.4	93.280	0.270	-0.090	0.470
2020/01/31 03:47:49.5	93.290	0.240	0.020	0.520
2020/01/31 03:47:49.6	93.300	0.200	0.120	0.580
2020/01/31 03:47:49.7	93.310	0.170	0.220	0.630
2020/01/31 03:47:49.8	93.310	0.130	0.320	0.690
2020/01/31 03:47:49.9	93.310	0.100	0.400	0.750
2020/01/31 03:47:50.0	93.310	0.070	0.480	0.800
2020/01/31 03:47:50.1	93.300	0.040	0.550	0.860
2020/01/31 03:47:50.2	93.300	0.010	0.610	0.920
2020/01/31 03:47:50.3	93.290	-0.020	0.660	0.970
2020/01/31 03:47:50.4	93.290	-0.040	0.700	1.020
2020/01/31 03:47:50.5	93.280	-0.060	0.730	1.070
2020/01/31 03:47:50.6	93.270	-0.080	0.760	1.120
2020/01/31 03:47:50.7	93.260	-0.090	0.770	1.160
2020/01/31 03:47:50.8	93.250	-0.110	0.770	1.200
2020/01/31 03:47:50.9	93.230	-0.110	0.760	1.230
2020/01/31 03:47:51.0	93.220	-0.120	0.750	1.270
2020/01/31 03:47:51.1	93.210	-0.130	0.720	1.290
2020/01/31 03:47:51.2	93.200	-0.130	0.690	1.320
2020/01/31 03:47:51.3	93.180	-0.130	0.650	1.350
2020/01/31 03:47:51.4	93.170	-0.120	0.600	1.370
2020/01/31 03:47:51.5	93.150	-0.120	0.550	1.390
2020/01/31 03:47:51.6	93.130	-0.110	0.500	1.400
2020/01/31 03:47:51.7	93.110	-0.100	0.430	1.420
2020/01/31 03:47:51.8	93.090	-0.090	0.370	1.430
2020/01/31 03:47:51.9	93.080	-0.080	0.300	1.430
2020/01/31 03:47:52.0	93.060	-0.070	0.230	1.440
2020/01/31 03:47:52.1	93.020	-0.060	0.160	1.440
2020/01/31 03:47:52.2	93.000	-0.050	0.090	1.430
2020/01/31 03:47:52.3	92.990	-0.040	0.020	1.420
2020/01/31 03:47:52.4	92.970	-0.030	-0.050	1.410
2020/01/31 03:47:52.5	92.950	-0.020	-0.110	1.400
2020/01/31 03:47:52.6	92.930	-0.020	-0.180	1.390
2020/01/31 03:47:52.7	92.920	-0.010	-0.230	1.370
2020/01/31 03:47:52.8	92.900	-0.010	-0.280	1.350
2020/01/31 03:47:52.9	92.890	-0.000	-0.330	1.330
2020/01/31 03:47:53.0	92.880	-0.000	-0.370	1.300
2020/01/31 03:47:53.1	92.870	-0.010	-0.400	1.280
2020/01/31 03:47:53.2	92.860	-0.010	-0.430	1.260
2020/01/31 03:47:53.3	92.850	-0.020	-0.450	1.230
2020/01/31 03:47:53.4	92.850	-0.020	-0.460	1.200
2020/01/31 03:47:53.5	92.840	-0.030	-0.470	1.170
2020/01/31 03:47:53.6	92.840	-0.050	-0.480	1.140
2020/01/31 03:47:53.7	92.840	-0.060	-0.470	1.110
2020/01/31 03:47:53.8	92.850	-0.070	-0.470	1.070
2020/01/31 03:47:53.9	92.850	-0.090	-0.460	1.040
2020/01/31 03:47:54.0	92.860	-0.110	-0.440	1.010
2020/01/31 03:47:54.1	92.880	-0.120	-0.420	0.970
2020/01/31 03:47:54.2	92.890	-0.140	-0.410	0.930
2020/01/31 03:47:54.3	92.910	-0.160	-0.390	0.900
2020/01/31 03:47:54.4	92.920	-0.180	-0.370	0.860
2020/01/31 03:47:54.5	92.940	-0.190	-0.340	0.830
2020/01/31 03:47:54.6	92.970	-0.210	-0.320	0.790
2020/01/31 03:47:54.7	92.990	-0.230	-0.300	0.760
2020/01/31 03:47:54.8	93.010	-0.240	-0.280	0.730
2020/01/31 03:47:54.9	93.040	-0.250	-0.270	0.700
2020/01/31 03:47:55.0	93.070	-0.260	-0.250	0.670
2020/01/31 03:47:55.1	93.080	-0.260	-0.240	0.630
2020/01/31 03:47:55.2	93.110	-0.270	-0.240	0.600
2020/01/31 03:47:55.3	93.150	-0.270	-0.230	0.580
2020/01/31 03:47:55.4	93.180	-0.260	-0.230	0.560
2020/01/31 03:47:55.5	93.210	-0.260	-0.240	0.540
2020/01/31 03:47:55.6	93.240	-0.250	-0.250	0.520
2020/01/31 03:47:55.7	93.260	-0.230	-0.260	0.510
2020/01/31 03:47:55.8	93.290	-0.220	-0.280	0.510
2020/01/31 03:47:55.9	93.310	-0.200	-0.300	0.500
2020/01/31 03:47:56.0	93.340	-0.170	-0.330	0.500
2020/01/31 03:47:56.1	93.350	-0.140	-0.360	0.510
2020/01/31 03:47:56.2	93.370	-0.110	-0.390	0.520
2020/01/31 03:47:56.3	93.380	-0.080	-0.430	0.530
2020/01/31 03:47:56.4	93.390	-0.050	-0.470	0.550
2020/01/31 03:47:56.5	93.400	-0.010	-0.510	0.570
2020/01/31 03:47:56.6	93.400	0.020	-0.550	0.590
2020/01/31 03:47:56.7	93.400	0.060	-0.590	0.620
2020/01/31 03:47:56.8	93.400	0.100	-0.630	0.650
2020/01/31 03:47:56.9	93.390	0.140	-0.670	0.680
2020/01/31 03:47:57.0	93.380	0.170	-0.700	0.710
2020/01/31 03:47:57.1	93.380	0.200	-0.730	0.740
2020/01/31 03:47:57.2	93.360	0.230	-0.760	0.770
2020/01/31 03:47:57.3	93.340	0.260	-0.770	0.810
2020/01/31 03:47:57.4	93.320	0.280	-0.780	0.840
2020/01/31 03:47:57.5	93.300	0.300	-0.780	0.870
2020/01/31 03:47:57.6	93.270	0.310	-0.780	0.910
2020/01/31 03:47:57.7	93.240	0.320	-0.760	0.940
2020/01/31 03:47:57.8	93.210	0.320	-0.740	0.980
2020/01/31 03:47:57.9	93.180	0.320	-0.710	1.010
2020/01/31 03:47:58.0	93.150	0.310	-0.660	1.040
2020/01/31 03:47:58.1	93.120	0.290	-0.610	1.070
2020/01/31 03:47:58.2	93.080	0.270	-0.560	1.100
2020/01/31 03:47:58.3	93.050	0.240	-0.490	1.130
2020/01/31 03:47:58.4	93.020	0.210	-0.420	1.160
2020/01/31 03:47:58.5	92.990	0.180	-0.350	1.190
2020/01/31 03:47:58.6	92.960	0.130	-0.260	1.210
2020/01/31 03:47:58.7	92.940	0.090	-0.180	1.230
2020/01/31 03:47:58.8	92.910	0.040	-0.090	1.250
2020/01/31 03:47:58.9	92.890	-0.010	0.000	1.270
2020/01/31 03:47:59.0	92.870	-0.070	0.100	1.280
2020/01/31 03:47:59.1	92.860	-0.120	0.190	1.290
2020/01/31 03:47:59.2	92.850	-0.180	0.280	1.290
2020/01/31 03:47:59.3	92.840	-0.240	0.370	1.290
2020/01/31 03:47:59.4	92.830	-0.300	0.460	1.290
2020/01/31 03:47:59.5	92.830	-0.350	0.530	1.280
2020/01/31 03:47:59.6	92.830	-0.410	0.610	1.260
2020/01/31 03:47:59.7	92.840	-0.460	0.670	1.240
2020/01/31 03:47:59.8	92.850	-0.500	0.720	1.210
2020/01/31 03:47:59.9	92.860	-0.550	0.770	1.180
2020/01/31 03:48:00.0	92.880	-0.580	0.800	1.140
2020/01/31 03:48:00.1	92.890	-0.610	0.820	1.100
2020/01/31 03:48:00.2	92.910	-0.640	0.830	1.050
2020/01/31 03:48:00.3	92.930	-0.660	0.820	1.000
2020/01/31 03:48:00.4	92.960	-0.660	0.810	0.950
2020/01/31 03:48:00.5	92.990	-0.670	0.770	0.900
2020/01/31 03:48:00.6	93.010	-0.660	0.730	0.850
2020/01/31 03:48:00.7	93.040	-0.640	0.670	0.790
2020/01/31 03:48:00.8	93.060	-0.620	0.600	0.740
2020/01/31 03:48:00.9	93.080	-0.590	0.520	0.690
2020/01/31 03:48:01.0	93.100	-0.550	0.430	0.640
2020/01/31 03:48:01.1	93.120	-0.500	0.330	0.590
2020/01/31 03:48:01.2	93.130	-0.450	0.220	0.550
2020/01/31 03:48:01.3	93.140	-0.390	0.110	0.500
2020/01/31 03:48:01.4	93.150	-0.320	-0.010	0.470
2020/01/31 03:48:01.5	93.160	-0.250	-0.140	0.430
2020/01/31 03:48:01.6	93.160	-0.170	-0.270	0.400
2020/01/31 03:48:01.7	93.160	-0.090	-0.390	0.370
2020/01/31 03:48:01.8	93.150	-0.010	-0.520	0.340
2020/01/31 03:48:01.9	93.140	0.070	-0.650	0.320
2020/01/31 03:48:02.0	93.140	0.160	-0.770	0.300
2020/01/31 03:48:02.1	93.120	0.250	-0.900	0.290
2020/01/31 03:48:02.2	93.120	0.330	-1.010	0.280
2020/01/31 03:48:02.3	93.100	0.410	-1.110	0.270
2020/01/31 03:48:02.4	93.090	0.490	-1.210	0.270
2020/01/31 03:48:02.5	93.080	0.570	-1.290	0.270
2020/01/31 03:48:02.6	93.070	0.640	-1.360	0.280
2020/01/31 03:48:02.7	93.060	0.710	-1.430	0.290
2020/01/31 03:48:02.8	93.050	0.770	-1.480	0.310
2020/01/31 03:48:02.9	93.040	0.820	-1.510	0.330
2020/01/31 03:48:03.0	93.030	0.870	-1.530	0.360
2020/01/31 03:48:03.1	93.020	0.910	-1.530	0.380
2020/01/31 03:48:03.2	93.010	0.940	-1.530	0.420
2020/01/31 03:48:03.3	93.000	0.970	-1.510	0.450
2020/01/31 03:48:03.4	93.000	0.990	-1.470	0.490
2020/01/31 03:48:03.5	92.990	0.990	-1.420	0.520
2020/01/31 03:48:03.6	92.990	0.990	-1.360	0.560
2020/01/31 03:48:03.7	92.990	0.990	-1.290	0.600
2020/01/31 03:48:03.8	92.990	0.970	-1.210	0.640
2020/01/31 03:48:03.9	92.990	0.940	-1.110	0.680
2020/01/31 03:48:04.0	92.990	0.910	-1.010	0.720
2020/01/31 03:48:04.1	92.980	0.870	-0.900	0.760
2020/01/31 03:48:04.2	92.980	0.820	-0.780	0.790
2020/01/31 03:48:04.3	92.980	0.770	-0.660	0.830
2020/01/31 03:48:04.4	92.980	0.710	-0.530	0.870
2020/01/31 03:48:04.5	92.980	0.640	-0.400	0.900
2020/01/31 03:48:04.6	92.990	0.570	-0.270	0.930
2020/01/31 03:48:04.7	92.990	0.500	-0.140	0.970
2020/01/31 03:48:04.8	92.990	0.420	-0.010	1.000
2020/01/31 03:48:04.9	93.000	0.340	0.120	1.030
2020/01/31 03:48:05.0	93.000	0.260	0.240	1.050
2020/01/31 03:48:05.1	93.010	0.180	0.360	1.080
2020/01/31 03:48:05.2	93.010	0.100	0.470	1.100
2020/01/31 03:48:05.3	93.010	0.010	0.580	1.120
2020/01/31 03:48:05.4	93.010	-0.070	0.670	1.150
2020/01/31 03:48:05.5	93.020	-0.150	0.760	1.160
2020/01/31 03:48:05.6	93.020	-0.230	0.840	1.180
2020/01/31 03:48:05.7	93.020	-0.310	0.920	1.190
2020/01/31 03:48:05.8	93.020	-0.390	0.980	1.210
2020/01/31 03:48:05.9	93.030	-0.460	1.030	1.220
2020/01/31 03:48:06.0	93.030	-0.530	1.070	1.220
2020/01/31 03:48:06.1	93.040	-0.590	1.110	1.230
2020/01/31 03:48:06.2	93.040	-0.650	1.130	1.230
2020/01/31 03:48:06.3	93.040	-0.710	1.150	1.230
2020/01/31 03:48:06.4	93.050	-0.760	1.150	1.230
2020/01/31 03:48:06.5	93.050	-0.800	1.150	1.220
2020/01/31 03:48:06.6	93.060	-0.840	1.130	1.220
2020/01/31 03:48:06.7	93.060	-0.870	1.110	1.210
2020/01/31 03:48:06.8	93.070	-0.900	1.070	1.200
2020/01/31 03:48:06.9	93.070	-0.920	1.030	1.190
2020/01/31 03:48:07.0	93.080	-0.930	0.980	1.180
2020/01/31 03:48:07.1	93.090	-0.940	0.920	1.170
2020/01/31 03:48:07.2	93.090	-0.940	0.850	1.160
2020/01/31 03:48:07.3	93.090	-0.930	0.780	1.140
2020/01/31 03:48:07.4	93.100	-0.920	0.700	1.130
2020/01/31 03:48:07.5	93.100	-0.900	0.610	1.130
2020/01/31 03:48:07.6	93.100	-0.880	0.520	1.120
2020/01/31 03:48:07.7	93.100	-0.850	0.420	1.110
2020/01/31 03:48:07.8	93.100	-0.820	0.330	1.110
2020/01/31 03:48:07.9	93.100	-0.780	0.220	1.100
2020/01/31 03:48:08.0	93.090	-0.740	0.120	1.100
2020/01/31 03:48:08.1	93.080	-0.690	0.010	1.090
2020/01/31 03:48:08.2	93.070	-0.640	-0.100	1.090
2020/01/31 03:48:08.3	93.070	-0.580	-0.210	1.090
2020/01/31 03:48:08.4	93.060	-0.520	-0.320	1.090
2020/01/31 03:48:08.5	93.050	-0.460	-0.430	1.080
2020/01/31 03:48:08.6	93.040	-0.400	-0.530	1.080
2020/01/31 03:48:08.7	93.030	-0.330	-0.640	1.070
2020/01/31 03:48:08.8	93.020	-0.270	-0.740	1.060
2020/01/31 03:48:08.9	93.020	-0.200	-0.840	1.050
2020/01/31 03:48:09.0	93.010	-0.130	-0.940	1.040
2020/01/31 03:48:09.1	92.990	-0.060	-1.030	1.020
2020/01/31 03:48:09.2	92.990	0.010	-1.110	1.010
2020/01/31 03:48:09.3	92.980	0.080	-1.190	1.000
2020/01/31 03:48:09.4	92.970	0.140	-1.270	0.980
2020/01/31 03:48:09.5	92.970	0.210	-1.340	0.960
2020/01/31 03:48:09.6	92.960	0.270	-1.400	0.950
2020/01/31 03:48:09.7	92.960	0.330	-1.450	0.930
2020/01/31 03:48:09.8	92.950	0.390	-1.490	0.910
2020/01/31 03:48:09.9	92.950	0.440	-1.520	0.890
2020/01/31 03:48:10.0	92.950	0.490	-1.550	0.880
2020/01/31 03:48:10.1	92.950	0.540	-1.570	0.860
2020/01/31 03:48:10.2	92.950	0.590	-1.570	0.840
2020/01/31 03:48:10.3	92.950	0.630	-1.570	0.810
2020/01/31 03:48:10.4	92.950	0.660	-1.550	0.790
2020/01/31 03:48:10.5	92.960	0.690	-1.530	0.770
2020/01/31 03:48:10.6	92.960	0.720	-1.500	0.750
2020/01/31 03:48:10.7	92.960	0.740	-1.450	0.730
2020/01/31 03:48:10.8	92.970	0.760	-1.400	0.710
2020/01/31 03:48:10.9	92.970	0.780	-1.340	0.690
2020/01/31 03:48:11.0	92.980	0.780	-1.280	0.670
2020/01/31 03:48:11.1	92.980	0.790	-1.200	0.660
2020/01/31 03:48:11.2	92.980	0.790	-1.120	0.640
2020/01/31 03:48:11.3	92.990	0.780	-1.030	0.620
2020/01/31 03:48:11.4	92.990	0.780	-0.930	0.610
2020/01/31 03:48:11.5	92.990	0.760	-0.840	0.600
2020/01/31 03:48:11.6	92.990	0.750	-0.740	0.590
2020/01/31 03:48:11.7	92.990	0.730	-0.630	0.590
2020/01/31 03:48:11.8	92.990	0.700	-0.520	0.590
2020/01/31 03:48:11.9	92.990	0.670	-0.420	0.590
2020/01/31 03:48:12.0	92.990	0.640	-0.310	0.590
2020/01/31 03:48:12.1	92.990	0.610	-0.190	0.600
2020/01/31 03:48:12.2	92.980	0.570	-0.090	0.610
2020/01/31 03:48:12.3	92.970	0.530	0.020	0.620
2020/01/31 03:48:12.4	92.950	0.490	0.130	0.640
2020/01/31 03:48:12.5	92.940	0.440	0.230	0.660
2020/01/31 03:48:12.6	92.920	0.400	0.330	0.680
2020/01/31 03:48:12.7	92.910	0.350	0.430	0.710
2020/01/31 03:48:12.8	92.890	0.300	0.520	0.730
2020/01/31 03:48:12.9	92.870	0.240	0.610	0.750
2020/01/31 03:48:13.0	92.850	0.190	0.690	0.780
2020/01/31 03:48:13.1	92.840	0.130	0.770	0.800
2020/01/31 03:48:13.2	92.820	0.080	0.840	0.830
2020/01/31 03:48:13.3	92.800	0.020	0.900	0.850
2020/01/31 03:48:13.4	92.780	-0.040	0.960	0.870
2020/01/31 03:48:13.5	92.760	-0.100	1.010	0.890
2020/01/31 03:48:13.6	92.740	-0.150	1.050	0.900
2020/01/31 03:48:13.7	92.710	-0.210	1.080	0.920
2020/01/31 03:48:13.8	92.700	-0.260	1.100	0.930
2020/01/31 03:48:13.9	92.680	-0.310	1.110	0.940
2020/01/31 03:48:14.0	92.660	-0.360	1.110	0.950
2020/01/31 03:48:14.1	92.650	-0.410	1.100	0.950
2020/01/31 03:48:14.2	92.630	-0.450	1.080	0.950
2020/01/31 03:48:14.3	92.620	-0.490	1.060	0.950
2020/01/31 03:48:14.4	92.610	-0.530	1.020	0.950
2020/01/31 03:48:14.5	92.600	-0.560	0.970	0.950
2020/01/31 03:48:14.6	92.600	-0.590	0.910	0.940
2020/01/31 03:48:14.7	92.600	-0.610	0.840	0.940
2020/01/31 03:48:14.8	92.600	-0.630	0.770	0.930
2020/01/31 03:48:14.9	92.600	-0.650	0.680	0.920
2020/01/31 03:48:15.0	92.600	-0.650	0.590	0.910
2020/01/31 03:48:15.1	92.620	-0.660	0.490	0.900
2020/01/31 03:48:15.2	92.620	-0.650	0.380	0.890
2020/01/31 03:48:15.3	92.630	-0.650	0.280	0.880
2020/01/31 03:48:15.4	92.640	-0.640	0.160	0.870
2020/01/31 03:48:15.5	92.650	-0.620	0.050	0.860
2020/01/31 03:48:15.6	92.660	-0.600	-0.060	0.860
2020/01/31 03:48:15.7	92.670	-0.570	-0.180	0.850
2020/01/31 03:48:15.8	92.680	-0.550	-0.290	0.850
2020/01/31 03:48:15.9	92.680	-0.510	-0.400	0.850
2020/01/31 03:48:16.0	92.690	-0.480	-0.510	0.850
2020/01/31 03:48:16.1	92.700	-0.440	-0.620	0.850
2020/01/31 03:48:16.2	92.710	-0.400	-0.720	0.850
2020/01/31 03:48:16.3	92.720	-0.360	-0.810	0.850
2020/01/31 03:48:16.4	92.730	-0.320	-0.890	0.850
2020/01/31 03:48:16.5	92.740	-0.280	-0.970	0.850
2020/01/31 03:48:16.6	92.750	-0.240	-1.030	0.850
2020/01/31 03:48:16.7	92.770	-0.200	-1.090	0.850
2020/01/31 03:48:16.8	92.780	-0.160	-1.140	0.850
2020/01/31 03:48:16.9	92.790	-0.120	-1.170	0.850
2020/01/31 03:48:17.0	92.800	-0.090	-1.200	0.860
2020/01/31 03:48:17.1	92.790	-0.050	-1.220	0.860
2020/01/31 03:48:17.2	92.800	-0.020	-1.230	0.860
2020/01/31 03:48:17.3	92.810	0.020	-1.230	0.860
2020/01/31 03:48:17.4	92.820	0.040	-1.220	0.870
2020/01/31 03:48:17.5	92.830	0.070	-1.200	0.870
2020/01/31 03:48:17.6	92.830	0.100	-1.180	0.880
2020/01/31 03:48:17.7	92.840	0.120	-1.150	0.890
2020/01/31 03:48:17.8	92.850	0.140	-1.110	0.900
2020/01/31 03:48:17.9	92.860	0.160	-1.070	0.910
2020/01/31 03:48:18.0	92.870	0.180	-1.020	0.920
2020/01/31 03:48:18.1	92.880	0.190	-0.960	0.930
2020/01/31 03:48:18.2	92.890	0.210	-0.910	0.950
2020/01/31 03:48:18.3	92.900	0.220	-0.850	0.960
2020/01/31 03:48:18.4	92.910	0.230	-0.800	0.980
2020/01/31 03:48:18.5	92.910	0.250	-0.740	1.000
2020/01/31 03:48:18.6	92.920	0.260	-0.680	1.020
2020/01/31 03:48:18.7	92.920	0.270	-0.620	1.040
2020/01/31 03:48:18.8	92.930	0.280	-0.560	1.060
2020/01/31 03:48:18.9	92.930	0.290	-0.510	1.080
2020/01/31 03:48:19.0	92.930	0.300	-0.450	1.100
2020/01/31 03:48:19.1	92.940	0.310	-0.400	1.120
2020/01/31 03:48:19.2	92.940	0.320	-0.350	1.140
2020/01/31 03:48:19.3	92.940	0.330	-0.310	1.160
2020/01/31 03:48:19.4	92.930	0.340	-0.260	1.180
2020/01/31 03:48:19.5	92.920	0.350	-0.220	1.200
2020/01/31 03:48:19.6	92.910	0.350	-0.180	1.220
2020/01/31 03:48:19.7	92.900	0.360	-0.140	1.240
2020/01/31 03:48:19.8	92.880	0.360	-0.100	1.250
2020/01/31 03:48:19.9	92.870	0.370	-0.070	1.260
2020/01/31 03:48:20.0	92.850	0.370	-0.030	1.280
2020/01/31 03:48:20.1	92.840	0.370	0.000	1.290
2020/01/31 03:48:20.2	92.810	0.370	0.030	1.300
2020/01/31 03:48:20.3	92.790	0.360	0.060	1.300
2020/01/31 03:48:20.4	92.770	0.350	0.090	1.310
2020/01/31 03:48:20.5	92.740	0.340	0.120	1.310
2020/01/31 03:48:20.6	92.720	0.330	0.150	1.310
2020/01/31 03:48:20.7	92.690	0.310	0.180	1.310
2020/01/31 03:48:20.8	92.670	0.290	0.200	1.300
2020/01/31 03:48:20.9	92.650	0.270	0.230	1.300
2020/01/31 03:48:21.0	92.620	0.250	0.250	1.290
2020/01/31 03:48:21.1	92.600	0.220	0.270	1.270
2020/01/31 03:48:21.2	92.580	0.190	0.280	1.260
2020/01/31 03:48:21.3	92.560	0.160	0.300	1.240
2020/01/31 03:48:21.4	92.540	0.130	0.310	1.220
2020/01/31 03:48:21.5	92.520	0.100	0.320	1.200
2020/01/31 03:48:21.6	92.510	0.060	0.330	1.180
2020/01/31 03:48:21.7	92.500	0.030	0.340	1.150
2020/01/31 03:48:21.8	92.480	-0.010	0.340	1.120
2020/01/31 03:48:21.9	92.470	-0.040	0.340	1.090
2020/01/31 03:48:22.0	92.470	-0.070	0.330	1.060
2020/01/31 03:48:22.1	92.430	-0.110	0.320	1.020
2020/01/31 03:48:22.2	92.430	-0.140	0.310	0.990
2020/01/31 03:48:22.3	92.420	-0.170	0.290	0.950
2020/01/31 03:48:22.4	92.420	-0.200	0.270	0.910
2020/01/31 03:48:22.5	92.420	-0.220	0.250	0.870
2020/01/31 03:48:22.6	92.420	-0.240	0.220	0.830
2020/01/31 03:48:22.7	92.420	-0.260	0.190	0.790
2020/01/31 03:48:22.8	92.420	-0.270	0.160	0.750
2020/01/31 03:48:22.9	92.420	-0.280	0.120	0.710
2020/01/31 03:48:23.0	92.430	-0.290	0.080	0.670
2020/01/31 03:48:23.1	92.440	-0.290	0.040	0.620
2020/01/31 03:48:23.2	92.450	-0.290	-0.010	0.580
2020/01/31 03:48:23.3	92.460	-0.280	-0.060	0.540
2020/01/31 03:48:23.4	92.470	-0.270	-0.110	0.510
2020/01/31 03:48:23.5	92.480	-0.250	-0.160	0.470
2020/01/31 03:48:23.6	92.490	-0.230	-0.220	0.440
2020/01/31 03:48:23.7	92.500	-0.210	-0.280	0.410
2020/01/31 03:48:23.8	92.510	-0.180	-0.340	0.380
2020/01/31 03:48:23.9	92.530	-0.140	-0.400	0.350
2020/01/31 03:48:24.0	92.540	-0.110	-0.450	0.330
2020/01/31 03:48:24.1	92.550	-0.070	-0.510	0.310
2020/01/31 03:48:24.2	92.560	-0.030	-0.570	0.290
2020/01/31 03:48:24.3	92.580	0.010	-0.620	0.280
2020/01/31 03:48:24.4	92.580	0.060	-0.670	0.270
2020/01/31 03:48:24.5	92.590	0.100	-0.720	0.260
2020/01/31 03:48:24.6	92.600	0.150	-0.760	0.260
2020/01/31 03:48:24.7	92.610	0.190	-0.800	0.260
2020/01/31 03:48:24.8	92.610	0.230	-0.830	0.270
2020/01/31 03:48:24.9	92.610	0.270	-0.860	0.280
2020/01/31 03:48:25.0	92.610	0.310	-0.880	0.300
2020/01/31 03:48:25.1	92.600	0.350	-0.900	0.320
2020/01/31 03:48:25.2	92.600	0.380	-0.910	0.340
2020/01/31 03:48:25.3	92.590	0.410	-0.910	0.370
2020/01/31 03:48:25.4	92.580	0.440	-0.900	0.410
2020/01/31 03:48:25.5	92.570	0.460	-0.890	0.440
2020/01/31 03:48:25.6	92.560	0.480	-0.880	0.480
2020/01/31 03:48:25.7	92.550	0.490	-0.860	0.520
2020/01/31 03:48:25.8	92.530	0.500	-0.830	0.560
2020/01/31 03:48:25.9	92.520	0.500	-0.790	0.610
2020/01/31 03:48:26.0	92.500	0.500	-0.760	0.650
2020/01/31 03:48:26.1	92.470	0.490	-0.710	0.700
2020/01/31 03:48:26.2	92.450	0.480	-0.670	0.740
2020/01/31 03:48:26.3	92.440	0.470	-0.620	0.780
2020/01/31 03:48:26.4	92.420	0.450	-0.570	0.820
2020/01/31 03:48:26.5	92.410	0.420	-0.510	0.860
2020/01/31 03:48:26.6	92.390	0.400	-0.460	0.900
2020/01/31 03:48:26.7	92.380	0.360	-0.400	0.930
2020/01/31 03:48:26.8	92.370	0.330	-0.350	0.970
2020/01/31 03:48:26.9	92.360	0.290	-0.290	1.000
2020/01/31 03:48:27.0	92.350	0.250	-0.230	1.030
2020/01/31 03:48:27.1	92.350	0.210	-0.170	1.050
2020/01/31 03:48:27.2	92.350	0.160	-0.110	1.080
2020/01/31 03:48:27.3	92.340	0.120	-0.060	1.100
2020/01/31 03:48:27.4	92.340	0.070	-0.000	1.120
2020/01/31 03:48:27.5	92.340	0.020	0.050	1.140
2020/01/31 03:48:27.6	92.340	-0.030	0.100	1.150
2020/01/31 03:48:27.7	92.340	-0.080	0.150	1.170
2020/01/31 03:48:27.8	92.340	-0.130	0.190	1.180
2020/01/31 03:48:27.9	92.350	-0.180	0.230	1.190
2020/01/31 03:48:28.0	92.350	-0.220	0.270	1.200
2020/01/31 03:48:28.1	92.360	-0.270	0.300	1.210
2020/01/31 03:48:28.2	92.360	-0.310	0.330	1.210
2020/01/31 03:48:28.3	92.370	-0.350	0.350	1.210
2020/01/31 03:48:28.4	92.390	-0.390	0.370	1.210
2020/01/31 03:48:28.5	92.400	-0.430	0.380	1.210
2020/01/31 03:48:28.6	92.410	-0.460	0.380	1.210
2020/01/31 03:48:28.7	92.420	-0.490	0.380	1.200
2020/01/31 03:48:28.8	92.440	-0.510	0.370	1.200
2020/01/31 03:48:28.9	92.450	-0.530	0.360	1.190
2020/01/31 03:48:29.0	92.470	-0.550	0.340	1.180
2020/01/31 03:48:29.1	92.470	-0.560	0.310	1.170
2020/01/31 03:48:29.2	92.480	-0.570	0.290	1.160
2020/01/31 03:48:29.3	92.500	-0.570	0.250	1.140
2020/01/31 03:48:29.4	92.520	-0.580	0.220	1.130
2020/01/31 03:48:29.5	92.530	-0.570	0.180	1.120
2020/01/31 03:48:29.6	92.540	-0.570	0.130	1.110
2020/01/31 03:48:29.7	92.560	-0.560	0.090	1.090
2020/01/31 03:48:29.8	92.570	-0.550	0.050	1.080
2020/01/31 03:48:29.9	92.580	-0.540	0.010	1.070
2020/01/31 03:48:30.0	92.590	-0.520	-0.030	1.060
2020/01/31 03:48:30.1	92.600	-0.510	-0.070	1.060
2020/01/31 03:48:30.2	92.610	-0.490	-0.110	1.050
2020/01/31 03:48:30.3	92.610	-0.480	-0.140	1.040
2020/01/31 03:48:30.4	92.610	-0.460	-0.170	1.040
2020/01/31 03:48:30.5	92.600	-0.440	-0.190	1.030
2020/01/31 03:48:30.6	92.600	-0.420	-0.210	1.030
2020/01/31 03:48:30.7	92.600	-0.400	-0.220	1.020
2020/01/31 03:48:30.8	92.600	-0.380	-0.240	1.020
2020/01/31 03:48:30.9	92.590	-0.370	-0.240	1.020
2020/01/31 03:48:31.0	92.590	-0.350	-0.240	1.020
2020/01/31 03:48:31.1	92.600	-0.330	-0.240	1.020
2020/01/31 03:48:31.2	92.590	-0.320	-0.230	1.020
2020/01/31 03:48:31.3	92.580	-0.300	-0.220	1.020
2020/01/31 03:48:31.4	92.570	-0.290	-0.210	1.030
2020/01/31 03:48:31.5	92.570	-0.270	-0.200	1.030
2020/01/31 03:48:31.6	92.560	-0.260	-0.190	1.040
2020/01/31 03:48:31.7	92.550	-0.250	-0.170	1.040
2020/01/31 03:48:31.8	92.540	-0.230	-0.160	1.050
2020/01/31 03:48:31.9	92.540	-0.220	-0.140	1.050
2020/01/31 03:48:32.0	92.530	-0.200	-0.130	1.060
2020/01/31 03:48:32.1	92.530	-0.190	-0.120	1.060
2020/01/31 03:48:32.2	92.530	-0.170	-0.120	1.070
2020/01/31 03:48:32.3	92.520	-0.150	-0.120	1.070
2020/01/31 03:48:32.4	92.510	-0.140	-0.120	1.080
2020/01/31 03:48:32.5	92.510	-0.120	-0.120	1.080
2020/01/31 03:48:32.6	92.500	-0.090	-0.140	1.080
2020/01/31 03:48:32.7	92.490	-0.070	-0.150	1.080
2020/01/31 03:48:32.8	92.480	-0.040	-0.170	1.080
2020/01/31 03:48:32.9	92.470	-0.020	-0.200	1.080
2020/01/31 03:48:33.0	92.460	0.010	-0.230	1.070
2020/01/31 03:48:33.1	92.460	0.040	-0.270	1.060
2020/01/31 03:48:33.2	92.450	0.070	-0.300	1.050
2020/01/31 03:48:33.3	92.440	0.110	-0.350	1.040
2020/01/31 03:48:33.4	92.430	0.140	-0.390	1.030
2020/01/31 03:48:33.5	92.410	0.180	-0.430	1.020
2020/01/31 03:48:33.6	92.400	0.210	-0.480	1.000
2020/01/31 03:48:33.7	92.390	0.250	-0.520	0.980
2020/01/31 03:48:33.8	92.380	0.280	-0.570	0.960
2020/01/31 03:48:33.9	92.370	0.320	-0.610	0.940
2020/01/31 03:48:34.0	92.360	0.350	-0.650	0.910
2020/01/31 03:48:34.1	92.340	0.390	-0.690	0.890
2020/01/31 03:48:34.2	92.330	0.420	-0.730	0.860
2020/01/31 03:48:34.3	92.320	0.450	-0.760	0.830
2020/01/31 03:48:34.4	92.310	0.480	-0.780	0.810
2020/01/31 03:48:34.5	92.300	0.510	-0.800	0.780
2020/01/31 03:48:34.6	92.290	0.530	-0.820	0.750
2020/01/31 03:48:34.7	92.280	0.550	-0.830	0.720
2020/01/31 03:48:34.8	92.270	0.580	-0.840	0.700
2020/01/31 03:48:34.9	92.270	0.590	-0.840	0.680
2020/01/31 03:48:35.0	92.260	0.610	-0.840	0.650
2020/01/31 03:48:35.1	92.260	0.620	-0.830	0.630
2020/01/31 03:48:35.2	92.260	0.630	-0.820	0.610
2020/01/31 03:48:35.3	92.260	0.640	-0.800	0.590
2020/01/31 03:48:35.4	92.260	0.640	-0.780	0.580
2020/01/31 03:48:35.5	92.260	0.640	-0.750	0.560
2020/01/31 03:48:35.6	92.260	0.640	-0.730	0.550
2020/01/31 03:48:35.7	92.270	0.640	-0.690	0.550
2020/01/31 03:48:35.8	92.270	0.630	-0.660	0.540
2020/01/31 03:48:35.9	92.280	0.620	-0.620	0.540
2020/01/31 03:48:36.0	92.290	0.610	-0.590	0.550
2020/01/31 03:48:36.1	92.280	0.600	-0.540	0.560
2020/01/31 03:48:36.2	92.290	0.580	-0.500	0.560
2020/01/31 03:48:36.3	92.290	0.560	-0.460	0.580
2020/01/31 03:48:36.4	92.300	0.540	-0.410	0.590
2020/01/31 03:48:36.5	92.310	0.520	-0.370	0.610
2020/01/31 03:48:36.6	92.320	0.500	-0.320	0.630
2020/01/31 03:48:36.7	92.320	0.470	-0.270	0.650
2020/01/31 03:48:36.8	92.330	0.440	-0.220	0.680
2020/01/31 03:48:36.9	92.330	0.410	-0.180	0.700
2020/01/31 03:48:37.0	92.340	0.380	-0.130	0.730
2020/01/31 03:48:37.1	92.340	0.350	-0.080	0.760
2020/01/31 03:48:37.2	92.340	0.320	-0.030	0.790
2020/01/31 03:48:37.3	92.340	0.280	0.020	0.820
2020/01/31 03:48:37.4	92.340	0.240	0.070	0.860
2020/01/31 03:48:37.5	92.340	0.210	0.120	0.890
2020/01/31 03:48:37.6	92.330	0.170	0.160	0.920
2020/01/31 03:48:37.7	92.330	0.130	0.210	0.950
2020/01/31 03:48:37.8	92.330	0.090	0.260	0.990
2020/01/31 03:48:37.9	92.320	0.050	0.300	1.020
2020/01/31 03:48:38.0	92.310	0.010	0.340	1.050
2020/01/31 03:48:38.1	92.310	-0.040	0.390	1.080
2020/01/31 03:48:38.2	92.300	-0.080	0.420	1.100
2020/01/31 03:48:38.3	92.290	-0.120	0.460	1.130
2020/01/31 03:48:38.4	92.280	-0.160	0.490	1.150
2020/01/31 03:48:38.5	92.270	-0.200	0.510	1.170
2020/01/31 03:48:38.6	92.260	-0.240	0.540	1.190
2020/01/31 03:48:38.7	92.250	-0.280	0.550	1.210
2020/01/31 03:48:38.8	92.240	-0.320	0.560	1.230
2020/01/31 03:48:38.9	92.230	-0.360	0.570	1.240
2020/01/31 03:48:39.0	92.230	-0.390	0.570	1.250
2020/01/31 03:48:39.1	92.220	-0.420	0.550	1.250
2020/01/31 03:48:39.2	92.210	-0.450	0.540	1.260
2020/01/31 03:48:39.3	92.210	-0.480	0.510	1.260
2020/01/31 03:48:39.4	92.200	-0.500	0.480	1.250
2020/01/31 03:48:39.5	92.200	-0.520	0.440	1.250
2020/01/31 03:48:39.6	92.200	-0.530	0.400	1.240
2020/01/31 03:48:39.7	92.200	-0.540	0.340	1.230
2020/01/31 03:48:39.8	92.210	-0.550	0.280	1.210
2020/01/31 03:48:39.9	92.210	-0.550	0.220	1.200
2020/01/31 03:48:40.0	92.220	-0.540	0.140	1.170
2020/01/31 03:48:40.1	92.240	-0.530	0.060	1.150
2020/01/31 03:48:40.2	92.260	-0.520	-0.020	1.130
2020/01/31 03:48:40.3	92.270	-0.500	-0.110	1.100
2020/01/31 03:48:40.4	92.290	-0.480	-0.200	1.070
2020/01/31 03:48:40.5	92.310	-0.450	-0.300	1.050
2020/01/31 03:48:40.6	92.330	-0.410	-0.390	1.020
2020/01/31 03:48:40.7	92.350	-0.370	-0.490	0.990
2020/01/31 03:48:40.8	92.380	-0.330	-0.580	0.960
2020/01/31 03:48:40.9	92.400	-0.290	-0.670	0.940
2020/01/31 03:48:41.0	92.430	-0.240	-0.760	0.910
2020/01/31 03:48:41.1	92.460	-0.190	-0.850	0.880
2020/01/31 03:48:41.2	92.480	-0.130	-0.920	0.860
2020/01/31 03:48:41.3	92.510	-0.080	-0.990	0.840
2020/01/31 03:48:41.4	92.540	-0.030	-1.050	0.810
2020/01/31 03:48:41.5	92.570	0.030	-1.110	0.790
2020/01/31 03:48:41.6	92.590	0.080	-1.150	0.770
2020/01/31 03:48:41.7	92.620	0.130	-1.180	0.760
2020/01/31 03:48:41.8	92.640	0.180	-1.210	0.740
2020/01/31 03:48:41.9	92.660	0.230	-1.220	0.730
2020/01/31 03:48:42.0	92.680	0.270	-1.220	0.720
2020/01/31 03:48:42.1	92.690	0.310	-1.200	0.710
2020/01/31 03:48:42.2	92.700	0.340	-1.180	0.710
2020/01/31 03:48:42.3	92.720	0.370	-1.150	0.700
2020/01/31 03:48:42.4	92.730	0.400	-1.110	0.710
2020/01/31 03:48:42.5	92.740	0.420	-1.050	0.710
2020/01/31 03:48:42.6	92.740	0.430	-0.990	0.720
2020/01/31 03:48:42.7	92.740	0.440	-0.920	0.740
2020/01/31 03:48:42.8	92.740	0.440	-0.850	0.750
2020/01/31 03:48:42.9	92.740	0.430	-0.760	0.770
2020/01/31 03:48:43.0	92.740	0.420	-0.670	0.800
2020/01/31 03:48:43.1	92.730	0.410	-0.580	0.820
2020/01/31 03:48:43.2	92.720	0.390	-0.480	0.850
2020/01/31 03:48:43.3	92.710	0.360	-0.390	0.880
2020/01/31 03:48:43.4	92.700	0.330	-0.290	0.910
2020/01/31 03:48:43.5	92.690	0.290	-0.190	0.950
2020/01/31 03:48:43.6	92.670	0.250	-0.090	0.980
2020/01/31 03:48:43.7	92.660	0.200	0.010	1.010
2020/01/31 03:48:43.8	92.640	0.160	0.100	1.040
2020/01/31 03:48:43.9	92.620	0.110	0.190	1.070
2020/01/31 03:48:44.0	92.600	0.050	0.280	1.100
2020/01/31 03:48:44.1	92.580	-0.000	0.370	1.120
2020/01/31 03:48:44.2	92.560	-0.060	0.440	1.150
2020/01/31 03:48:44.3	92.540	-0.110	0.510	1.170
2020/01/31 03:48:44.4	92.520	-0.160	0.570	1.190
2020/01/31 03:48:44.5	92.500	-0.220	0.620	1.200
2020/01/31 03:48:44.6	92.470	-0.270	0.660	1.220
2020/01/31 03:48:44.7	92.450	-0.320	0.700	1.230
2020/01/31 03:48:44.8	92.430	-0.370	0.720	1.230
2020/01/31 03:48:44.9	92.410	-0.410	0.740	1.240
2020/01/31 03:48:45.0	92.380	-0.450	0.740	1.230
2020/01/31 03:48:45.1	92.350	-0.490	0.730	1.230
2020/01/31 03:48:45.2	92.330	-0.520	0.720	1.220
2020/01/31 03:48:45.3	92.310	-0.540	0.690	1.210
2020/01/31 03:48:45.4	92.300	-0.570	0.650	1.190
2020/01/31 03:48:45.5	92.280	-0.580	0.600	1.170
2020/01/31 03:48:45.6	92.270	-0.590	0.550	1.150
2020/01/31 03:48:45.7	92.260	-0.590	0.480	1.120
2020/01/31 03:48:45.8	92.250	-0.590	0.410	1.090
2020/01/31 03:48:45.9	92.240	-0.580	0.330	1.060
2020/01/31 03:48:46.0	92.240	-0.570	0.250	1.020
2020/01/31 03:48:46.1	92.240	-0.550	0.160	0.980
2020/01/31 03:48:46.2	92.240	-0.530	0.070	0.940
2020/01/31 03:48:46.3	92.240	-0.500	-0.030	0.900
2020/01/31 03:48:46.4	92.250	-0.470	-0.120	0.860
2020/01/31 03:48:46.5	92.250	-0.430	-0.220	0.820
2020/01/31 03:48:46.6	92.260	-0.390	-0.310	0.780
2020/01/31 03:48:46.7	92.260	-0.340	-0.410	0.740
2020/01/31 03:48:46.8	92.270	-0.300	-0.500	0.700
2020/01/31 03:48:46.9	92.280	-0.250	-0.580	0.660
2020/01/31 03:48:47.0	92.290	-0.200	-0.660	0.630
2020/01/31 03:48:47.1	92.300	-0.150	-0.740	0.590
2020/01/31 03:48:47.2	92.320	-0.100	-0.810	0.550
2020/01/31 03:48:47.3	92.330	-0.050	-0.880	0.520
2020/01/31 03:48:47.4	92.340	-0.000	-0.930	0.490
2020/01/31 03:48:47.5	92.350	0.040	-0.980	0.470
2020/01/31 03:48:47.6	92.360	0.090	-1.010	0.450
2020/01/31 03:48:47.7	92.380	0.130	-1.040	0.430
2020/01/31 03:48:47.8	92.390	0.180	-1.060	0.410
2020/01/31 03:48:47.9	92.400	0.210	-1.070	0.400
2020/01/31 03:48:48.0	92.420	0.250	-1.070	0.390
2020/01/31 03:48:48.1	92.440	0.280	-1.060	0.390
2020/01/31 03:48:48.2	92.460	0.310	-1.040	0.380
2020/01/31 03:48:48.3	92.470	0.330	-1.010	0.380
2020/01/31 03:48:48.4	92.490	0.350	-0.980	0.390
2020/01/31 03:48:48.5	92.510	0.360	-0.930	0.390
2020/01/31 03:48:48.6	92.520	0.370	-0.880	0.400
2020/01/31 03:48:48.7	92.540	0.380	-0.820	0.410
2020/01/31 03:48:48.8	92.560	0.380	-0.760	0.430
2020/01/31 03:48:48.9	92.580	0.380	-0.690	0.440
2020/01/31 03:48:49.0	92.590	0.380	-0.610	0.460
2020/01/31 03:48:49.1	92.610	0.370	-0.540	0.480
2020/01/31 03:48:49.2	92.630	0.350	-0.450	0.500
2020/01/31 03:48:49.3	92.640	0.340	-0.370	0.520
2020/01/31 03:48:49.4	92.660	0.320	-0.280	0.540
2020/01/31 03:48:49.5	92.670	0.300	-0.200	0.570
2020/01/31 03:48:49.6	92.680	0.270	-0.110	0.590
2020/01/31 03:48:49.7	92.700	0.250	-0.030	0.620
2020/01/31 03:48:49.8	92.710	0.220	0.060	0.640
2020/01/31 03:48:49.9	92.720	0.190	0.130	0.670
2020/01/31 03:48:50.0	92.720	0.160	0.210	0.690
2020/01/31 03:48:50.1	92.730	0.130	0.280	0.720
2020/01/31 03:48:50.2	92.730	0.100	0.340	0.740
2020/01/31 03:48:50.3	92.730	0.070	0.400	0.770
2020/01/31 03:48:50.4	92.740	0.040	0.450	0.790
2020/01/31 03:48:50.5	92.740	0.010	0.490	0.810
2020/01/31 03:48:50.6	92.740	-0.010	0.520	0.830
2020/01/31 03:48:50.7	92.740	-0.040	0.550	0.850
2020/01/31 03:48:50.8	92.730	-0.060	0.570	0.870
2020/01/31 03:48:50.9	92.730	-0.080	0.570	0.890
2020/01/31 03:48:51.0	92.730	-0.100	0.570	0.900
2020/01/31 03:48:51.1	92.710	-0.120	0.560	0.910
2020/01/31 03:48:51.2	92.710	-0.130	0.550	0.930
2020/01/31 03:48:51.3	92.700	-0.140	0.520	0.940
2020/01/31 03:48:51.4	92.700	-0.150	0.490	0.950
2020/01/31 03:48:51.5	92.700	-0.160	0.460	0.950
2020/01/31 03:48:51.6	92.690	-0.170	0.410	0.960
2020/01/31 03:48:51.7	92.690	-0.170	0.370	0.970
2020/01/31 03:48:51.8	92.680	-0.170	0.310	0.970
2020/01/31 03:48:51.9	92.670	-0.170	0.260	0.980
2020/01/31 03:48:52.0	92.660	-0.170	0.200	0.980
2020/01/31 03:48:52.1	92.660	-0.160	0.140	0.990
2020/01/31 03:48:52.2	92.650	-0.160	0.080	0.990
2020/01/31 03:48:52.3	92.630	-0.160	0.010	1.000
2020/01/31 03:48:52.4	92.620	-0.150	-0.050	1.000
2020/01/31 03:48:52.5	92.610	-0.140	-0.110	1.000
2020/01/31 03:48:52.6	92.590	-0.130	-0.180	1.000
2020/01/31 03:48:52.7	92.580	-0.130	-0.240	1.000
2020/01/31 03:48:52.8	92.560	-0.120	-0.300	1.000
2020/01/31 03:48:52.9	92.550	-0.110	-0.360	1.000
2020/01/31 03:48:53.0	92.530	-0.100	-0.410	1.000
2020/01/31 03:48:53.1	92.520	-0.090	-0.470	0.990
2020/01/31 03:48:53.2	92.500	-0.080	-0.520	0.980
2020/01/31 03:48:53.3	92.490	-0.070	-0.580	0.970
2020/01/31 03:48:53.4	92.480	-0.050	-0.620	0.950
2020/01/31 03:48:53.5	92.470	-0.040	-0.670	0.930
2020/01/31 03:48:53.6	92.460	-0.030	-0.710	0.910
2020/01/31 03:48:53.7	92.450	-0.010	-0.750	0.890
2020/01/31 03:48:53.8	92.440	0.000	-0.790	0.860
2020/01/31 03:48:53.9	92.440	0.020	-0.830	0.830
2020/01/31 03:48:54.0	92.440	0.040	-0.860	0.790
2020/01/31 03:48:54.1	92.430	0.050	-0.890	0.760
2020/01/31 03:48:54.2	92.430	0.070	-0.920	0.720
2020/01/31 03:48:54.3	92.430	0.090	-0.950	0.680
2020/01/31 03:48:54.4	92.430	0.120	-0.970	0.640
2020/01/31 03:48:54.5	92.440	0.140	-1.000	0.590
2020/01/31 03:48:54.6	92.450	0.170	-1.010	0.550
2020/01/31 03:48:54.7	92.460	0.190	-1.030	0.520
2020/01/31 03:48:54.8	92.470	0.220	-1.040	0.480
2020/01/31 03:48:54.9	92.470	0.250	-1.050	0.450
2020/01/31 03:48:55.0	92.480	0.280	-1.060	0.430
2020/01/31 03:48:55.1	92.490	0.310	-1.060	0.400
2020/01/31 03:48:55.2	92.500	0.340	-1.050	0.380
2020/01/31 03:48:55.3	92.500	0.370	-1.050	0.370
2020/01/31 03:48:55.4	92.510	0.400	-1.030	0.370
2020/01/31 03:48:55.5	92.520	0.420	-1.020	0.370
2020/01/31 03:48:55.6	92.520	0.450	-0.990	0.370
2020/01/31 03:48:55.7	92.520	0.470	-0.960	0.390
2020/01/31 03:48:55.8	92.520	0.490	-0.930	0.410
2020/01/31 03:48:55.9	92.520	0.510	-0.890	0.430
2020/01/31 03:48:56.0	92.520	0.530	-0.840	0.460
2020/01/31 03:48:56.1	92.520	0.540	-0.780	0.490
2020/01/31 03:48:56.2	92.510	0.540	-0.720	0.520
2020/01/31 03:48:56.3	92.510	0.550	-0.660	0.550
2020/01/31 03:48:56.4	92.500	0.540	-0.580	0.590
2020/01/31 03:48:56.5	92.490	0.540	-0.510	0.620
2020/01/31 03:48:56.6	92.490	0.530	-0.420	0.650
2020/01/31 03:48:56.7	92.480	0.510	-0.340	0.690
2020/01/31 03:48:56.8	92.470	0.490	-0.250	0.720
2020/01/31 03:48:56.9	92.460	0.460	-0.160	0.750
2020/01/31 03:48:57.0	92.450	0.430	-0.060	0.770
2020/01/31 03:48:57.1	92.440	0.390	0.030	0.800
2020/01/31 03:48:57.2	92.430	0.350	0.130	0.820
2020/01/31 03:48:57.3	92.420	0.300	0.220	0.840
2020/01/31 03:48:57.4	92.420	0.250	0.310	0.860
2020/01/31 03:48:57.5	92.410	0.200	0.400	0.880
2020/01/31 03:48:57.6	92.400	0.140	0.490	0.900
2020/01/31 03:48:57.7	92.400	0.090	0.570	0.910
2020/01/31 03:48:57.8	92.400	0.030	0.640	0.920
2020/01/31 03:48:57.9	92.390	-0.040	0.710	0.930
2020/01/31 03:48:58.0	92.390	-0.100	0.770	0.930
2020/01/31 03:48:58.1	92.400	-0.160	0.830	0.930
2020/01/31 03:48:58.2	92.400	-0.220	0.870	0.930
2020/01/31 03:48:58.3	92.410	-0.280	0.910	0.930
2020/01/31 03:48:58.4	92.420	-0.340	0.930	0.930
2020/01/31 03:48:58.5	92.420	-0.390	0.940	0.920
2020/01/31 03:48:58.6	92.430	-0.440	0.940	0.910
2020/01/31 03:48:58.7	92.450	-0.490	0.930	0.890
2020/01/31 03:48:58.8	92.460	-0.540	0.910	0.880
2020/01/31 03:48:58.9	92.470	-0.570	0.880	0.860
2020/01/31 03:48:59.0	92.490	-0.610	0.840	0.840
2020/01/31 03:48:59.1	92.510	-0.640	0.780	0.820
2020/01/31 03:48:59.2	92.530	-0.660	0.720	0.800
2020/01/31 03:48:59.3	92.550	-0.680	0.650	0.780
2020/01/31 03:48:59.4	92.570	-0.690	0.580	0.760
2020/01/31 03:48:59.5	92.590	-0.700	0.490	0.740
2020/01/31 03:48:59.6	92.610	-0.700	0.410	0.720
2020/01/31 03:48:59.7	92.630	-0.690	0.320	0.710
2020/01/31 03:48:59.8	92.650	-0.690	0.220	0.700
2020/01/31 03:48:59.9	92.660	-0.670	0.130	0.690
2020/01/31 03:49:00.0	92.680	-0.660	0.040	0.690
2020/01/31 03:49:00.1	92.680	-0.640	-0.060	0.690
2020/01/31 03:49:00.2	92.690	-0.610	-0.150	0.700
2020/01/31 03:49:00.3	92.690	-0.590	-0.230	0.710
2020/01/31 03:49:00.4	92.700	-0.560	-0.300	0.730
2020/01/31 03:49:00.5	92.700	-0.530	-0.370	0.750
2020/01/31 03:49:00.6	92.690	-0.500	-0.440	0.770
2020/01/31 03:49:00.7	92.680	-0.470	-0.490	0.800
2020/01/31 03:49:00.8	92.670	-0.440	-0.540	0.830
2020/01/31 03:49:00.9	92.660	-0.410	-0.580	0.860
2020/01/31 03:49:01.0	92.650	-0.390	-0.610	0.890
2020/01/31 03:49:01.1	92.640	-0.360	-0.630	0.930
2020/01/31 03:49:01.2	92.630	-0.330	-0.650	0.960
2020/01/31 03:49:01.3	92.610	-0.310	-0.650	0.990
2020/01/31 03:49:01.4	92.590	-0.290	-0.650	1.010
2020/01/31 03:49:01.5	92.570	-0.270	-0.640	1.030
2020/01/31 03:49:01.6	92.560	-0.250	-0.630	1.050
2020/01/31 03:49:01.7	92.540	-0.240	-0.610	1.070
2020/01/31 03:49:01.8	92.520	-0.220	-0.590	1.090
2020/01/31 03:49:01.9	92.500	-0.210	-0.560	1.100
2020/01/31 03:49:02.0	92.490	-0.200	-0.530	1.110
2020/01/31 03:49:02.1	92.470	-0.200	-0.490	1.110
2020/01/31 03:49:02.2	92.450	-0.190	-0.460	1.120
2020/01/31 03:49:02.3	92.440	-0.190	-0.430	1.120
2020/01/31 03:49:02.4	92.430	-0.180	-0.390	1.120
2020/01/31 03:49:02.5	92.420	-0.180	-0.360	1.120
2020/01/31 03:49:02.6	92.410	-0.170	-0.330	1.110
2020/01/31 03:49:02.7	92.400	-0.170	-0.310	1.100
2020/01/31 03:49:02.8	92.390	-0.160	-0.280	1.090
2020/01/31 03:49:02.9	92.380	-0.150	-0.270	1.080
2020/01/31 03:49:03.0	92.380	-0.140	-0.260	1.060
2020/01/31 03:49:03.1	92.380	-0.120	-0.250	1.040
2020/01/31 03:49:03.2	92.380	-0.110	-0.250	1.020
2020/01/31 03:49:03.3	92.380	-0.090	-0.260	1.000
2020/01/31 03:49:03.4	92.390	-0.060	-0.280	0.970
2020/01/31 03:49:03.5	92.390	-0.040	-0.300	0.940
2020/01/31 03:49:03.6	92.400	-0.000	-0.330	0.910
2020/01/31 03:49:03.7	92.410	0.030	-0.370	0.880
2020/01/31 03:49:03.8	92.420	0.070	-0.410	0.840
2020/01/31 03:49:03.9	92.440	0.110	-0.460	0.810
2020/01/31 03:49:04.0	92.460	0.150	-0.510	0.770
2020/01/31 03:49:04.1	92.470	0.200	-0.560	0.730
2020/01/31 03:49:04.2	92.480	0.250	-0.620	0.690
2020/01/31 03:49:04.3	92.500	0.300	-0.670	0.660
2020/01/31 03:49:04.4	92.520	0.350	-0.720	0.620
2020/01/31 03:49:04.5	92.530	0.400	-0.770	0.590
2020/01/31 03:49:04.6	92.540	0.450	-0.810	0.550
2020/01/31 03:49:04.7	92.560	0.500	-0.850	0.520
2020/01/31 03:49:04.8	92.570	0.540	-0.880	0.480
2020/01/31 03:49:04.9	92.580	0.590	-0.900	0.450
2020/01/31 03:49:05.0	92.580	0.620	-0.920	0.420
2020/01/31 03:49:05.1	92.590	0.660	-0.920	0.390
2020/01/31 03:49:05.2	92.590	0.690	-0.920	0.360
2020/01/31 03:49:05.3	92.600	0.710	-0.910	0.330
2020/01/31 03:49:05.4	92.600	0.730	-0.890	0.310
2020/01/31 03:49:05.5	92.600	0.740	-0.860	0.280
2020/01/31 03:49:05.6	92.600	0.750	-0.820	0.260
2020/01/31 03:49:05.7	92.600	0.750	-0.780	0.250
2020/01/31 03:49:05.8	92.600	0.750	-0.730	0.230
2020/01/31 03:49:05.9	92.600	0.740	-0.670	0.220
2020/01/31 03:49:06.0	92.590	0.720	-0.610	0.220
2020/01/31 03:49:06.1	92.590	0.690	-0.540	0.210
2020/01/31 03:49:06.2	92.580	0.670	-0.470	0.210
2020/01/31 03:49:06.3	92.580	0.630	-0.390	0.220
2020/01/31 03:49:06.4	92.570	0.590	-0.310	0.230
2020/01/31 03:49:06.5	92.570	0.550	-0.240	0.250
2020/01/31 03:49:06.6	92.560	0.500	-0.160	0.270
2020/01/31 03:49:06.7	92.560	0.450	-0.080	0.290
2020/01/31 03:49:06.8	92.550	0.400	-0.010	0.320
2020/01/31 03:49:06.9	92.550	0.340	0.060	0.350
2020/01/31 03:49:07.0	92.540	0.280	0.130	0.380
2020/01/31 03:49:07.1	92.530	0.230	0.190	0.420
2020/01/31 03:49:07.2	92.520	0.170	0.250	0.460
2020/01/31 03:49:07.3	92.520	0.110	0.310	0.510
2020/01/31 03:49:07.4	92.510	0.050	0.360	0.550
2020/01/31 03:49:07.5	92.500	-0.000	0.400	0.600
2020/01/31 03:49:07.6	92.490	-0.060	0.440	0.650
2020/01/31 03:49:07.7	92.480	-0.110	0.470	0.700
2020/01/31 03:49:07.8	92.470	-0.160	0.500	0.750
2020/01/31 03:49:07.9	92.460	-0.210	0.520	0.800
2020/01/31 03:49:08.0	92.450	-0.250	0.530	0.850
2020/01/31 03:49:08.1	92.430	-0.290	0.540	0.890
2020/01/31 03:49:08.2	92.420	-0.330	0.540	0.940
2020/01/31 03:49:08.3	92.410	-0.360	0.530	0.980
2020/01/31 03:49:08.4	92.400	-0.380	0.510	1.020
2020/01/31 03:49:08.5	92.380	-0.410	0.490	1.050
2020/01/31 03:49:08.6	92.370	-0.430	0.460	1.080
2020/01/31 03:49:08.7	92.360	-0.440	0.430	1.110
2020/01/31 03:49:08.8	92.350	-0.450	0.380	1.130
2020/01/31 03:49:08.9	92.340	-0.450	0.330	1.150
2020/01/31 03:49:09.0	92.340	-0.450	0.280	1.160
2020/01/31 03:49:09.1	92.330	-0.440	0.220	1.170
2020/01/31 03:49:09.2	92.320	-0.440	0.150	1.180
2020/01/31 03:49:09.3	92.320	-0.420	0.080	1.180
2020/01/31 03:49:09.4	92.310	-0.400	0.010	1.180
2020/01/31 03:49:09.5	92.310	-0.380	-0.070	1.180
2020/01/31 03:49:09.6	92.310	-0.360	-0.150	1.170
2020/01/31 03:49:09.7	92.310	-0.330	-0.230	1.160
2020/01/31 03:49:09.8	92.310	-0.300	-0.320	1.140
2020/01/31 03:49:09.9	92.310	-0.270	-0.400	1.130
2020/01/31 03:49:10.0	92.310	-0.240	-0.480	1.110
2020/01/31 03:49:10.1	92.310	-0.200	-0.560	1.090
2020/01/31 03:49:10.2	92.320	-0.170	-0.630	1.070
2020/01/31 03:49:10.3	92.330	-0.130	-0.700	1.050
2020/01/31 03:49:10.4	92.340	-0.100	-0.770	1.030
2020/01/31 03:49:10.5	92.360	-0.060	-0.830	1.010
2020/01/31 03:49:10.6	92.370	-0.030	-0.880	1.000
2020/01/31 03:49:10.7	92.390	0.000	-0.920	0.980
2020/01/31 03:49:10.8	92.410	0.030	-0.960	0.970
2020/01/31 03:49:10.9	92.430	0.060	-0.980	0.960
2020/01/31 03:49:11.0	92.450	0.090	-1.000	0.950
2020/01/31 03:49:11.1	92.470	0.110	-1.010	0.940
2020/01/31 03:49:11.2	92.500	0.130	-1.000	0.940
2020/01/31 03:49:11.3	92.520	0.140	-0.990	0.940
2020/01/31 03:49:11.4	92.550	0.160	-0.960	0.940
2020/01/31 03:49:11.5	92.570	0.160	-0.930	0.940
2020/01/31 03:49:11.6	92.600	0.170	-0.880	0.940
2020/01/31 03:49:11.7	92.620	0.170	-0.830	0.940
2020/01/31 03:49:11.8	92.650	0.170	-0.760	0.940
2020/01/31 03:49:11.9	92.680	0.160	-0.690	0.950
2020/01/31 03:49:12.0	92.700	0.150	-0.610	0.950
2020/01/31 03:49:12.1	92.730	0.130	-0.530	0.950
2020/01/31 03:49:12.2	92.750	0.110	-0.440	0.960
2020/01/31 03:49:12.3	92.780	0.090	-0.350	0.960
2020/01/31 03:49:12.4	92.800	0.060	-0.250	0.960
2020/01/31 03:49:12.5	92.830	0.040	-0.150	0.960
2020/01/31 03:49:12.6	92.850	0.000	-0.060	0.960
2020/01/31 03:49:12.7	92.870	-0.030	0.040	0.960
2020/01/31 03:49:12.8	92.890	-0.060	0.130	0.950
2020/01/31 03:49:12.9	92.910	-0.100	0.220	0.950
2020/01/31 03:49:13.0	92.930	-0.140	0.310	0.950
2020/01/31 03:49:13.1	92.940	-0.170	0.400	0.940
2020/01/31 03:49:13.2	92.960	-0.210	0.470	0.940
2020/01/31 03:49:13.3	92.980	-0.250	0.540	0.940
2020/01/31 03:49:13.4	92.990	-0.280	0.600	0.930
2020/01/31 03:49:13.5	93.000	-0.310	0.650	0.930
2020/01/31 03:49:13.6	93.010	-0.340	0.690	0.920
2020/01/31 03:49:13.7	93.020	-0.370	0.720	0.920
2020/01/31 03:49:13.8	93.040	-0.390	0.740	0.910
2020/01/31 03:49:13.9	93.040	-0.410	0.750	0.910
2020/01/31 03:49:14.0	93.050	-0.420	0.750	0.900
2020/01/31 03:49:14.1	93.060	-0.430	0.730	0.890
2020/01/31 03:49:14.2	93.070	-0.440	0.710	0.880
2020/01/31 03:49:14.3	93.080	-0.440	0.680	0.870
2020/01/31 03:49:14.4	93.080	-0.430	0.630	0.860
2020/01/31 03:49:14.5	93.090	-0.420	0.580	0.860
2020/01/31 03:49:14.6	93.100	-0.410	0.520	0.850
2020/01/31 03:49:14.7	93.100	-0.390	0.450	0.840
2020/01/31 03:49:14.8	93.110	-0.370	0.370	0.830
2020/01/31 03:49:14.9	93.110	-0.340	0.290	0.830
2020/01/31 03:49:15.0	93.120	-0.310	0.200	0.820
2020/01/31 03:49:15.1	93.110	-0.280	0.110	0.820
2020/01/31 03:49:15.2	93.120	-0.240	0.020	0.820
2020/01/31 03:49:15.3	93.120	-0.200	-0.070	0.820
2020/01/31 03:49:15.4	93.120	-0.160	-0.160	0.810
2020/01/31 03:49:15.5	93.120	-0.120	-0.260	0.810
2020/01/31 03:49:15.6	93.130	-0.080	-0.340	0.800
2020/01/31 03:49:15.7	93.130	-0.030	-0.430	0.800
2020/01/31 03:49:15.8	93.130	0.010	-0.510	0.790
2020/01/31 03:49:15.9	93.130	0.060	-0.590	0.780
2020/01/31 03:49:16.0	93.140	0.100	-0.660	0.770
2020/01/31 03:49:16.1	93.140	0.140	-0.740	0.760
2020/01/31 03:49:16.2	93.140	0.180	-0.800	0.740
2020/01/31 03:49:16.3	93.140	0.220	-0.850	0.730
2020/01/31 03:49:16.4	93.150	0.250	-0.900	0.710
2020/01/31 03:49:16.5	93.150	0.290	-0.930	0.700
2020/01/31 03:49:16.6	93.150	0.320	-0.960	0.680
2020/01/31 03:49:16.7	93.150	0.340	-0.990	0.670
2020/01/31 03:49:16.8	93.160	0.370	-1.000	0.650
2020/01/31 03:49:16.9	93.160	0.390	-1.010	0.640
2020/01/31 03:49:17.0	93.160	0.400	-1.000	0.620
2020/01/31 03:49:17.1	93.180	0.420	-0.990	0.610
2020/01/31 03:49:17.2	93.180	0.430	-0.970	0.600
2020/01/31 03:49:17.3	93.180	0.430	-0.940	0.590
2020/01/31 03:49:17.4	93.180	0.430	-0.910	0.590
2020/01/31 03:49:17.5	93.180	0.430	-0.860	0.590
2020/01/31 03:49:17.6	93.170	0.430	-0.820	0.590
2020/01/31 03:49:17.7	93.170	0.420	-0.760	0.590
2020/01/31 03:49:17.8	93.170	0.400	-0.700	0.600
2020/01/31 03:49:17.9	93.160	0.390	-0.640	0.610
2020/01/31 03:49:18.0	93.150	0.370	-0.570	0.620
2020/01/31 03:49:18.1	93.150	0.350	-0.500	0.630
2020/01/31 03:49:18.2	93.140	0.320	-0.430	0.650
2020/01/31 03:49:18.3	93.130	0.300	-0.360	0.660
2020/01/31 03:49:18.4	93.120	0.270	-0.280	0.670
2020/01/31 03:49:18.5	93.110	0.240	-0.210	0.690
2020/01/31 03:49:18.6	93.100	0.210	-0.140	0.700
2020/01/31 03:49:18.7	93.090	0.180	-0.080	0.720
2020/01/31 03:49:18.8	93.080	0.160	-0.020	0.730
2020/01/31 03:49:18.9	93.070	0.130	0.030	0.750
2020/01/31 03:49:19.0	93.060	0.100	0.080	0.760
2020/01/31 03:49:19.1	93.060	0.070	0.130	0.760
2020/01/31 03:49:19.2	93.060	0.050	0.160	0.770
2020/01/31 03:49:19.3	93.050	0.030	0.190	0.770
2020/01/31 03:49:19.4	93.050	0.010	0.210	0.770
2020/01/31 03:49:19.5	93.050	-0.010	0.220	0.770
2020/01/31 03:49:19.6	93.050	-0.030	0.220	0.760
2020/01/31 03:49:19.7	93.050	-0.040	0.210	0.750
2020/01/31 03:49:19.8	93.060	-0.050	0.200	0.740
2020/01/31 03:49:19.9	93.070	-0.050	0.170	0.720
2020/01/31 03:49:20.0	93.080	-0.060	0.140	0.710
2020/01/31 03:49:20.1	93.080	-0.060	0.100	0.690
2020/01/31 03:49:20.2	93.090	-0.060	0.060	0.670
2020/01/31 03:49:20.3	93.110	-0.050	0.020	0.650
2020/01/31 03:49:20.4	93.140	-0.050	-0.040	0.630
2020/01/31 03:49:20.5	93.160	-0.040	-0.090	0.610
2020/01/31 03:49:20.6	93.190	-0.030	-0.140	0.590
2020/01/31 03:49:20.7	93.220	-0.010	-0.200	0.580
2020/01/31 03:49:20.8	93.240	0.000	-0.260	0.560
2020/01/31 03:49:20.9	93.280	0.020	-0.320	0.540
2020/01/31 03:49:21.0	93.310	0.040	-0.370	0.530
2020/01/31 03:49:21.1	93.360	0.060	-0.420	0.510
2020/01/31 03:49:21.2	93.390	0.080	-0.470	0.490
2020/01/31 03:49:21.3	93.430	0.100	-0.520	0.480
2020/01/31 03:49:21.4	93.460	0.110	-0.560	0.480
2020/01/31 03:49:21.5	93.490	0.130	-0.590	0.470
2020/01/31 03:49:21.6	93.530	0.150	-0.620	0.470
2020/01/31 03:49:21.7	93.560	0.170	-0.640	0.470
2020/01/31 03:49:21.8	93.580	0.190	-0.660	0.480
2020/01/31 03:49:21.9	93.610	0.200	-0.670	0.490
2020/01/31 03:49:22.0	93.630	0.220	-0.670	0.500
2020/01/31 03:49:22.1	93.640	0.230	-0.680	0.520
2020/01/31 03:49:22.2	93.660	0.240	-0.670	0.540
2020/01/31 03:49:22.3	93.670	0.240	-0.650	0.560
2020/01/31 03:49:22.4	93.680	0.250	-0.630	0.590
2020/01/31 03:49:22.5	93.680	0.250	-0.610	0.620
2020/01/31 03:49:22.6	93.680	0.250	-0.580	0.650
2020/01/31 03:49:22.7	93.680	0.250	-0.550	0.690
2020/01/31 03:49:22.8	93.680	0.240	-0.510	0.720
2020/01/31 03:49:22.9	93.670	0.230	-0.470	0.750
2020/01/31 03:49:23.0	93.660	0.220	-0.420	0.790
2020/01/31 03:49:23.1	93.640	0.210	-0.370	0.820
2020/01/31 03:49:23.2	93.630	0.190	-0.320	0.860
2020/01/31 03:49:23.3	93.620	0.170	-0.270	0.890
2020/01/31 03:49:23.4	93.600	0.140	-0.220	0.920
2020/01/31 03:49:23.5	93.590	0.110	-0.160	0.940
2020/01/31 03:49:23.6	93.570	0.080	-0.110	0.970
2020/01/31 03:49:23.7	93.560	0.050	-0.050	0.990
2020/01/31 03:49:23.8	93.540	0.010	0.000	1.010
2020/01/31 03:49:23.9	93.520	-0.030	0.060	1.030
2020/01/31 03:49:24.0	93.500	-0.070	0.110	1.040
2020/01/31 03:49:24.1	93.480	-0.110	0.160	1.050
2020/01/31 03:49:24.2	93.460	-0.160	0.210	1.050
2020/01/31 03:49:24.3	93.440	-0.200	0.260	1.060
2020/01/31 03:49:24.4	93.430	-0.250	0.310	1.050
2020/01/31 03:49:24.5	93.410	-0.290	0.350	1.050
2020/01/31 03:49:24.6	93.390	-0.340	0.380	1.040
2020/01/31 03:49:24.7	93.380	-0.390	0.420	1.020
2020/01/31 03:49:24.8	93.360	-0.430	0.440	1.010
2020/01/31 03:49:24.9	93.350	-0.470	0.470	0.980
2020/01/31 03:49:25.0	93.330	-0.510	0.480	0.960
2020/01/31 03:49:25.1	93.330	-0.550	0.500	0.930
2020/01/31 03:49:25.2	93.310	-0.580	0.500	0.890
2020/01/31 03:49:25.3	93.300	-0.610	0.500	0.860
2020/01/31 03:49:25.4	93.290	-0.640	0.490	0.820
2020/01/31 03:49:25.5	93.290	-0.660	0.470	0.780
2020/01/31 03:49:25.6	93.280	-0.680	0.440	0.740
2020/01/31 03:49:25.7	93.280	-0.690	0.410	0.700
2020/01/31 03:49:25.8	93.280	-0.700	0.370	0.660
2020/01/31 03:49:25.9	93.280	-0.690	0.330	0.610
2020/01/31 03:49:26.0	93.280	-0.690	0.270	0.570
2020/01/31 03:49:26.1	93.290	-0.670	0.210	0.520
2020/01/31 03:49:26.2	93.300	-0.660	0.150	0.470
2020/01/31 03:49:26.3	93.310	-0.630	0.080	0.430
2020/01/31 03:49:26.4	93.330	-0.600	0.010	0.380
2020/01/31 03:49:26.5	93.340	-0.560	-0.070	0.340
2020/01/31 03:49:26.6	93.360	-0.520	-0.150	0.310
2020/01/31 03:49:26.7	93.380	-0.470	-0.230	0.270
2020/01/31 03:49:26.8	93.400	-0.420	-0.320	0.240
2020/01/31 03:49:26.9	93.410	-0.360	-0.410	0.210
2020/01/31 03:49:27.0	93.430	-0.300	-0.490	0.180
2020/01/31 03:49:27.1	93.450	-0.240	-0.580	0.160
2020/01/31 03:49:27.2	93.470	-0.170	-0.660	0.140
2020/01/31 03:49:27.3	93.490	-0.100	-0.750	0.130
2020/01/31 03:49:27.4	93.510	-0.040	-0.830	0.110
2020/01/31 03:49:27.5	93.530	0.030	-0.900	0.100
2020/01/31 03:49:27.6	93.550	0.100	-0.970	0.090
2020/01/31 03:49:27.7	93.570	0.170	-1.040	0.090
2020/01/31 03:49:27.8	93.590	0.230	-1.100	0.090
2020/01/31 03:49:27.9	93.600	0.290	-1.150	0.090
2020/01/31 03:49:28.0	93.620	0.350	-1.200	0.090
2020/01/31 03:49:28.1	93.640	0.410	-1.240	0.100
2020/01/31 03:49:28.2	93.660	0.460	-1.270	0.120
2020/01/31 03:49:28.3	93.670	0.500	-1.290	0.130
2020/01/31 03:49:28.4	93.680	0.540	-1.300	0.150
2020/01/31 03:49:28.5	93.690	0.570	-1.300	0.170
2020/01/31 03:49:28.6	93.700	0.600	-1.290	0.190
2020/01/31 03:49:28.7	93.710	0.620	-1.270	0.220
2020/01/31 03:49:28.8	93.720	0.630	-1.240	0.250
2020/01/31 03:49:28.9	93.720	0.640	-1.200	0.290
2020/01/31 03:49:29.0	93.730	0.640	-1.150	0.320
2020/01/31 03:49:29.1	93.720	0.630	-1.090	0.360
2020/01/31 03:49:29.2	93.720	0.610	-1.020	0.410
2020/01/31 03:49:29.3	93.720	0.590	-0.940	0.450
2020/01/31 03:49:29.4	93.720	0.560	-0.850	0.500
2020/01/31 03:49:29.5	93.720	0.520	-0.750	0.550
2020/01/31 03:49:29.6	93.710	0.480	-0.650	0.600
2020/01/31 03:49:29.7	93.710	0.440	-0.530	0.660
2020/01/31 03:49:29.8	93.700	0.390	-0.420	0.710
2020/01/31 03:49:29.9	93.690	0.330	-0.290	0.760
2020/01/31 03:49:30.0	93.680	0.270	-0.170	0.810
2020/01/31 03:49:30.1	93.650	0.210	-0.030	0.870
2020/01/31 03:49:30.2	93.640	0.150	0.100	0.920
2020/01/31 03:49:30.3	93.630	0.080	0.230	0.960
2020/01/31 03:49:30.4	93.610	0.010	0.360	1.010
2020/01/31 03:49:30.5	93.600	-0.050	0.480	1.050
2020/01/31 03:49:30.6	93.580	-0.120	0.600	1.080
2020/01/31 03:49:30.7	93.570	-0.190	0.720	1.110
2020/01/31 03:49:30.8	93.550	-0.250	0.820	1.140
2020/01/31 03:49:30.9	93.540	-0.310	0.920	1.160
2020/01/31 03:49:31.0	93.520	-0.370	1.010	1.180
2020/01/31 03:49:31.1	93.510	-0.430	1.090	1.180
2020/01/31 03:49:31.2	93.490	-0.480	1.160	1.180
2020/01/31 03:49:31.3	93.470	-0.520	1.220	1.180
2020/01/31 03:49:31.4	93.460	-0.570	1.260	1.180
2020/01/31 03:49:31.5	93.440	-0.600	1.290	1.170
2020/01/31 03:49:31.6	93.430	-0.630	1.300	1.160
2020/01/31 03:49:31.7	93.410	-0.660	1.310	1.140
2020/01/31 03:49:31.8	93.400	-0.670	1.290	1.120
2020/01/31 03:49:31.9	93.380	-0.690	1.270	1.100
2020/01/31 03:49:32.0	93.370	-0.690	1.230	1.070
2020/01/31 03:49:32.1	93.340	-0.690	1.180	1.040
2020/01/31 03:49:32.2	93.340	-0.690	1.120	1.010
2020/01/31 03:49:32.3	93.330	-0.680	1.050	0.980
2020/01/31 03:49:32.4	93.320	-0.660	0.960	0.950
2020/01/31 03:49:32.5	93.310	-0.640	0.870	0.910
2020/01/31 03:49:32.6	93.310	-0.610	0.760	0.880
2020/01/31 03:49:32.7	93.300	-0.570	0.650	0.840
2020/01/31 03:49:32.8	93.300	-0.540	0.530	0.800
2020/01/31 03:49:32.9	93.300	-0.490	0.410	0.770
2020/01/31 03:49:33.0	93.300	-0.450	0.280	0.730
2020/01/31 03:49:33.1	93.310	-0.400	0.140	0.690
2020/01/31 03:49:33.2	93.310	-0.340	0.000	0.660
2020/01/31 03:49:33.3	93.310	-0.290	-0.140	0.630
2020/01/31 03:49:33.4	93.310	-0.230	-0.280	0.590
2020/01/31 03:49:33.5	93.320	-0.170	-0.410	0.560
2020/01/31 03:49:33.6	93.320	-0.110	-0.550	0.530
2020/01/31 03:49:33.7	93.330	-0.050	-0.680	0.500
2020/01/31 03:49:33.8	93.330	0.020	-0.810	0.470
2020/01/31 03:49:33.9	93.340	0.080	-0.930	0.440
2020/01/31 03:49:34.0	93.350	0.140	-1.040	0.420
2020/01/31 03:49:34.1	93.350	0.200	-1.150	0.390
2020/01/31 03:49:34.2	93.350	0.260	-1.250	0.370
2020/01/31 03:49:34.3	93.360	0.310	-1.330	0.350
2020/01/31 03:49:34.4	93.370	0.370	-1.410	0.340
2020/01/31 03:49:34.5	93.370	0.420	-1.470	0.330
2020/01/31 03:49:34.6	93.380	0.470	-1.530	0.320
2020/01/31 03:49:34.7	93.380	0.510	-1.570	0.320
2020/01/31 03:49:34.8	93.390	0.550	-1.600	0.320
2020/01/31 03:49:34.9	93.390	0.590	-1.620	0.330
2020/01/31 03:49:35.0	93.390	0.620	-1.620	0.340
2020/01/31 03:49:35.1	93.400	0.650	-1.620	0.350
2020/01/31 03:49:35.2	93.410	0.670	-1.600	0.360
2020/01/31 03:49:35.3	93.410	0.690	-1.570	0.380
2020/01/31 03:49:35.4	93.420	0.710	-1.530	0.410
2020/01/31 03:49:35.5	93.420	0.720	-1.490	0.430
2020/01/31 03:49:35.6	93.430	0.720	-1.430	0.460
2020/01/31 03:49:35.7	93.430	0.720	-1.370	0.490
2020/01/31 03:49:35.8	93.440	0.720	-1.290	0.520
2020/01/31 03:49:35.9	93.450	0.710	-1.220	0.550
2020/01/31 03:49:36.0	93.460	0.690	-1.130	0.580
2020/01/31 03:49:36.1	93.480	0.680	-1.050	0.620
2020/01/31 03:49:36.2	93.500	0.660	-0.960	0.650
2020/01/31 03:49:36.3	93.510	0.630	-0.870	0.680
2020/01/31 03:49:36.4	93.520	0.600	-0.770	0.720
2020/01/31 03:49:36.5	93.540	0.570	-0.680	0.750
2020/01/31 03:49:36.6	93.560	0.540	-0.580	0.780
2020/01/31 03:49:36.7	93.570	0.500	-0.490	0.820
2020/01/31 03:49:36.8	93.590	0.460	-0.390	0.850
2020/01/31 03:49:36.9	93.610	0.420	-0.300	0.880
2020/01/31 03:49:37.0	93.630	0.380	-0.210	0.920
2020/01/31 03:49:37.1	93.640	0.340	-0.130	0.950
2020/01/31 03:49:37.2	93.660	0.290	-0.040	0.990
2020/01/31 03:49:37.3	93.680	0.250	0.030	1.020
2020/01/31 03:49:37.4	93.690	0.210	0.110	1.060
2020/01/31 03:49:37.5	93.710	0.160	0.180	1.090
2020/01/31 03:49:37.6	93.720	0.120	0.240	1.130
2020/01/31 03:49:37.7	93.730	0.070	0.300	1.160
2020/01/31 03:49:37.8	93.740	0.030	0.360	1.200
2020/01/31 03:49:37.9	93.750	-0.020	0.400	1.230
2020/01/31 03:49:38.0	93.760	-0.060	0.450	1.260
2020/01/31 03:49:38.1	93.760	-0.100	0.480	1.300
2020/01/31 03:49:38.2	93.760	-0.140	0.520	1.330
2020/01/31 03:49:38.3	93.760	-0.170	0.540	1.360
2020/01/31 03:49:38.4	93.760	-0.210	0.560	1.380
2020/01/31 03:49:38.5	93.750	-0.240	0.580	1.410
2020/01/31 03:49:38.6	93.750	-0.270	0.590	1.430
2020/01/31 03:49:38.7	93.740	-0.290	0.600	1.450
2020/01/31 03:49:38.8	93.730	-0.320	0.600	1.470
2020/01/31 03:49:38.9	93.710	-0.340	0.600	1.490
2020/01/31 03:49:39.0	93.700	-0.360	0.590	1.510
2020/01/31 03:49:39.1	93.680	-0.370	0.590	1.520
2020/01/31 03:49:39.2	93.660	-0.390	0.570	1.530
2020/01/31 03:49:39.3	93.640	-0.400	0.550	1.540
2020/01/31 03:49:39.4	93.620	-0.400	0.530	1.540
2020/01/31 03:49:39.5	93.600	-0.410	0.510	1.540
2020/01/31 03:49:39.6	93.580	-0.410	0.480	1.530
2020/01/31 03:49:39.7	93.560	-0.400	0.450	1.530
2020/01/31 03:49:39.8	93.550	-0.400	0.410	1.510
2020/01/31 03:49:39.9	93.530	-0.390	0.380	1.500
2020/01/31 03:49:40.0	93.520	-0.380	0.340	1.480
2020/01/31 03:49:40.1	93.500	-0.360	0.290	1.450
2020/01/31 03:49:40.2	93.500	-0.350	0.240	1.420
2020/01/31 03:49:40.3	93.490	-0.330	0.200	1.380
2020/01/31 03:49:40.4	93.490	-0.310	0.140	1.350
2020/01/31 03:49:40.5	93.490	-0.290	0.090	1.310
2020/01/31 03:49:40.6	93.490	-0.260	0.030	1.270
2020/01/31 03:49:40.7	93.500	-0.240	-0.020	1.230
2020/01/31 03:49:40.8	93.500	-0.210	-0.080	1.190
2020/01/31 03:49:40.9	93.510	-0.180	-0.140	1.150
2020/01/31 03:49:41.0	93.520	-0.150	-0.200	1.110
2020/01/31 03:49:41.1	93.520	-0.120	-0.260	1.070
2020/01/31 03:49:41.2	93.530	-0.100	-0.310	1.030
2020/01/31 03:49:41.3	93.540	-0.070	-0.370	0.990
2020/01/31 03:49:41.4	93.550	-0.040	-0.420	0.950
2020/01/31 03:49:41.5	93.560	-0.010	-0.470	0.910
2020/01/31 03:49:41.6	93.570	0.020	-0.520	0.870
2020/01/31 03:49:41.7	93.580	0.050	-0.570	0.830
2020/01/31 03:49:41.8	93.590	0.070	-0.610	0.790
2020/01/31 03:49:41.9	93.600	0.100	-0.650	0.740
2020/01/31 03:49:42.0	93.610	0.120	-0.690	0.700
2020/01/31 03:49:42.1	93.640	0.150	-0.710	0.650
2020/01/31 03:49:42.2	93.650	0.170	-0.740	0.600
2020/01/31 03:49:42.3	93.670	0.190	-0.760	0.560
2020/01/31 03:49:42.4	93.680	0.210	-0.780	0.510
2020/01/31 03:49:42.5	93.700	0.220	-0.800	0.470
2020/01/31 03:49:42.6	93.720	0.240	-0.800	0.420
2020/01/31 03:49:42.7	93.740	0.250	-0.810	0.380
2020/01/31 03:49:42.8	93.760	0.260	-0.800	0.340
2020/01/31 03:49:42.9	93.790	0.270	-0.800	0.300
2020/01/31 03:49:43.0	93.810	0.280	-0.790	0.260
2020/01/31 03:49:43.1	93.840	0.280	-0.770	0.220
2020/01/31 03:49:43.2	93.870	0.280	-0.750	0.200
2020/01/31 03:49:43.3	93.890	0.290	-0.730	0.170
2020/01/31 03:49:43.4	93.920	0.280	-0.700	0.160
2020/01/31 03:49:43.5	93.950	0.280	-0.670	0.140
2020/01/31 03:49:43.6	93.970	0.280	-0.640	0.130
2020/01/31 03:49:43.7	94.000	0.270	-0.600	0.130
2020/01/31 03:49:43.8	94.020	0.260	-0.570	0.140
2020/01/31 03:49:43.9	94.040	0.250	-0.530	0.150
2020/01/31 03:49:44.0	94.050	0.240	-0.480	0.160
2020/01/31 03:49:44.1	94.060	0.230	-0.440	0.190
2020/01/31 03:49:44.2	94.070	0.210	-0.400	0.210
2020/01/31 03:49:44.3	94.080	0.200	-0.360	0.240
2020/01/31 03:49:44.4	94.090	0.180	-0.310	0.270
2020/01/31 03:49:44.5	94.100	0.160	-0.270	0.310
2020/01/31 03:49:44.6	94.110	0.140	-0.230	0.340
2020/01/31 03:49:44.7	94.110	0.120	-0.190	0.380
2020/01/31 03:49:44.8	94.120	0.090	-0.150	0.410
2020/01/31 03:49:44.9	94.120	0.070	-0.110	0.450
2020/01/31 03:49:45.0	94.120	0.040	-0.080	0.480
2020/01/31 03:49:45.1	94.120	0.010	-0.040	0.510
2020/01/31 03:49:45.2	94.130	-0.020	-0.010	0.540
2020/01/31 03:49:45.3	94.130	-0.050	0.020	0.570
2020/01/31 03:49:45.4	94.130	-0.080	0.050	0.600
2020/01/31 03:49:45.5	94.130	-0.110	0.080	0.630
2020/01/31 03:49:45.6	94.130	-0.140	0.100	0.660
2020/01/31 03:49:45.7	94.130	-0.170	0.120	0.680
2020/01/31 03:49:45.8	94.120	-0.200	0.140	0.710
2020/01/31 03:49:45.9	94.120	-0.230	0.160	0.730
2020/01/31 03:49:46.0	94.120	-0.260	0.180	0.760
2020/01/31 03:49:46.1	94.100	-0.300	0.190	0.790
2020/01/31 03:49:46.2	94.090	-0.330	0.210	0.810
2020/01/31 03:49:46.3	94.080	-0.350	0.220	0.840
2020/01/31 03:49:46.4	94.070	-0.380	0.230	0.870
2020/01/31 03:49:46.5	94.060	-0.410	0.240	0.900
2020/01/31 03:49:46.6	94.050	-0.440	0.250	0.930
2020/01/31 03:49:46.7	94.040	-0.460	0.260	0.970
2020/01/31 03:49:46.8	94.020	-0.480	0.260	1.000
2020/01/31 03:49:46.9	94.010	-0.500	0.260	1.040
2020/01/31 03:49:47.0	93.990	-0.520	0.260	1.070
2020/01/31 03:49:47.1	93.970	-0.540	0.260	1.100
2020/01/31 03:49:47.2	93.950	-0.550	0.250	1.140
2020/01/31 03:49:47.3	93.940	-0.560	0.240	1.170
2020/01/31 03:49:47.4	93.920	-0.570	0.230	1.190
2020/01/31 03:49:47.5	93.900	-0.570	0.210	1.220
2020/01/31 03:49:47.6	93.890	-0.570	0.180	1.240
2020/01/31 03:49:47.7	93.880	-0.570	0.150	1.250
2020/01/31 03:49:47.8	93.860	-0.560	0.110	1.260
2020/01/31 03:49:47.9	93.850	-0.550	0.070	1.260
2020/01/31 03:49:48.0	93.850	-0.530	0.020	1.260
2020/01/31 03:49:48.1	93.850	-0.510	-0.040	1.250
2020/01/31 03:49:48.2	93.850	-0.480	-0.090	1.240
2020/01/31 03:49:48.3	93.850	-0.450	-0.160	1.210
2020/01/31 03:49:48.4	93.850	-0.420	-0.230	1.180
2020/01/31 03:49:48.5	93.860	-0.380	-0.300	1.150
2020/01/31 03:49:48.6	93.860	-0.340	-0.380	1.110
2020/01/31 03:49:48.7	93.870	-0.290	-0.460	1.070
2020/01/31 03:49:48.8	93.880	-0.240	-0.540	1.020
2020/01/31 03:49:48.9	93.890	-0.190	-0.620	0.980
2020/01/31 03:49:49.0	93.900	-0.130	-0.700	0.930
2020/01/31 03:49:49.1	93.910	-0.070	-0.780	0.880
2020/01/31 03:49:49.2	93.920	-0.010	-0.860	0.840
2020/01/31 03:49:49.3	93.930	0.060	-0.930	0.800
2020/01/31 03:49:49.4	93.930	0.120	-1.000	0.760
2020/01/31 03:49:49.5	93.940	0.190	-1.070	0.720
2020/01/31 03:49:49.6	93.940	0.250	-1.120	0.690
2020/01/31 03:49:49.7	93.940	0.320	-1.170	0.670
2020/01/31 03:49:49.8	93.940	0.380	-1.210	0.650
2020/01/31 03:49:49.9	93.940	0.450	-1.240	0.630
2020/01/31 03:49:50.0	93.930	0.500	-1.260	0.620
2020/01/31 03:49:50.1	93.930	0.560	-1.270	0.610
2020/01/31 03:49:50.2	93.920	0.610	-1.270	0.600
2020/01/31 03:49:50.3	93.910	0.660	-1.260	0.600
2020/01/31 03:49:50.4	93.900	0.710	-1.230	0.600
2020/01/31 03:49:50.5	93.890	0.750	-1.200	0.610
2020/01/31 03:49:50.6	93.880	0.780	-1.160	0.610
2020/01/31 03:49:50.7	93.860	0.810	-1.100	0.620
2020/01/31 03:49:50.8	93.850	0.830	-1.040	0.620
2020/01/31 03:49:50.9	93.840	0.850	-0.970	0.630
2020/01/31 03:49:51.0	93.820	0.860	-0.890	0.630
2020/01/31 03:49:51.1	93.810	0.870	-0.810	0.630
2020/01/31 03:49:51.2	93.800	0.870	-0.720	0.630
2020/01/31 03:49:51.3	93.790	0.860	-0.620	0.630
2020/01/31 03:49:51.4	93.780	0.850	-0.530	0.620
2020/01/31 03:49:51.5	93.760	0.840	-0.430	0.610
2020/01/31 03:49:51.6	93.750	0.810	-0.330	0.600
2020/01/31 03:49:51.7	93.750	0.790	-0.230	0.590
2020/01/31 03:49:51.8	93.740	0.750	-0.130	0.570
2020/01/31 03:49:51.9	93.730	0.720	-0.030	0.560
2020/01/31 03:49:52.0	93.720	0.680	0.070	0.540
2020/01/31 03:49:52.1	93.710	0.630	0.170	0.520
2020/01/31 03:49:52.2	93.700	0.580	0.260	0.500
2020/01/31 03:49:52.3	93.700	0.530	0.340	0.470
2020/01/31 03:49:52.4	93.700	0.480	0.430	0.450
2020/01/31 03:49:52.5	93.700	0.420	0.500	0.430
2020/01/31 03:49:52.6	93.700	0.360	0.580	0.410
2020/01/31 03:49:52.7	93.700	0.300	0.640	0.390
2020/01/31 03:49:52.8	93.700	0.240	0.710	0.370
2020/01/31 03:49:52.9	93.700	0.180	0.760	0.350
2020/01/31 03:49:53.0	93.710	0.110	0.820	0.340
2020/01/31 03:49:53.1	93.720	0.050	0.870	0.330
2020/01/31 03:49:53.2	93.730	-0.010	0.910	0.320
2020/01/31 03:49:53.3	93.730	-0.080	0.940	0.320
2020/01/31 03:49:53.4	93.740	-0.140	0.970	0.310
2020/01/31 03:49:53.5	93.750	-0.200	1.000	0.320
2020/01/31 03:49:53.6	93.760	-0.260	1.020	0.320
2020/01/31 03:49:53.7	93.770	-0.320	1.030	0.320
2020/01/31 03:49:53.8	93.780	-0.370	1.040	0.330
2020/01/31 03:49:53.9	93.790	-0.420	1.040	0.340
2020/01/31 03:49:54.0	93.800	-0.470	1.030	0.350
2020/01/31 03:49:54.1	93.810	-0.510	1.010	0.360
2020/01/31 03:49:54.2	93.820	-0.560	0.990	0.370
2020/01/31 03:49:54.3	93.830	-0.590	0.960	0.380
2020/01/31 03:49:54.4	93.840	-0.620	0.920	0.400
2020/01/31 03:49:54.5	93.850	-0.650	0.880	0.410
2020/01/31 03:49:54.6	93.860	-0.680	0.820	0.420
2020/01/31 03:49:54.7	93.870	-0.690	0.760	0.430
2020/01/31 03:49:54.8	93.880	-0.710	0.700	0.440
2020/01/31 03:49:54.9	93.900	-0.720	0.620	0.450
2020/01/31 03:49:55.0	93.910	-0.720	0.530	0.450
2020/01/31 03:49:55.1	93.930	-0.720	0.450	0.460
2020/01/31 03:49:55.2	93.940	-0.710	0.350	0.470
2020/01/31 03:49:55.3	93.950	-0.690	0.240	0.480
2020/01/31 03:49:55.4	93.960	-0.670	0.130	0.490
2020/01/31 03:49:55.5	93.970	-0.650	0.010	0.500
2020/01/31 03:49:55.6	93.980	-0.620	-0.110	0.510
2020/01/31 03:49:55.7	93.990	-0.590	-0.240	0.530
2020/01/31 03:49:55.8	94.000	-0.550	-0.370	0.540
2020/01/31 03:49:55.9	94.010	-0.510	-0.500	0.560
2020/01/31 03:49:56.0	94.020	-0.460	-0.630	0.580
2020/01/31 03:49:56.1	94.030	-0.410	-0.760	0.600
2020/01/31 03:49:56.2	94.040	-0.360	-0.890	0.630
2020/01/31 03:49:56.3	94.050	-0.310	-1.020	0.650
2020/01/31 03:49:56.4	94.060	-0.250	-1.130	0.680
2020/01/31 03:49:56.5	94.070	-0.200	-1.250	0.710
2020/01/31 03:49:56.6	94.070	-0.140	-1.360	0.750
2020/01/31 03:49:56.7	94.080	-0.080	-1.460	0.780
2020/01/31 03:49:56.8	94.080	-0.030	-1.550	0.820
2020/01/31 03:49:56.9	94.080	0.030	-1.630	0.860
2020/01/31 03:49:57.0	94.080	0.080	-1.700	0.890
2020/01/31 03:49:57.1	94.080	0.130	-1.760	0.930
2020/01/31 03:49:57.2	94.070	0.180	-1.800	0.970
2020/01/31 03:49:57.3	94.060	0.230	-1.840	1.000
2020/01/31 03:49:57.4	94.050	0.270	-1.860	1.030
2020/01/31 03:49:57.5	94.040	0.310	-1.860	1.060
2020/01/31 03:49:57.6	94.030	0.350	-1.860	1.090
2020/01/31 03:49:57.7	94.010	0.380	-1.840	1.120
2020/01/31 03:49:57.8	93.990	0.400	-1.800	1.150
2020/01/31 03:49:57.9	93.970	0.420	-1.750	1.170
2020/01/31 03:49:58.0	93.950	0.440	-1.690	1.190
2020/01/31 03:49:58.1	93.920	0.450	-1.610	1.210
2020/01/31 03:49:58.2	93.890	0.460	-1.530	1.230
2020/01/31 03:49:58.3	93.860	0.460	-1.430	1.250
2020/01/31 03:49:58.4	93.840	0.460	-1.330	1.260
2020/01/31 03:49:58.5	93.810	0.450	-1.210	1.270
2020/01/31 03:49:58.6	93.780	0.440	-1.090	1.290
2020/01/31 03:49:58.7	93.750	0.430	-0.960	1.300
2020/01/31 03:49:58.8	93.710	0.400	-0.820	1.300
2020/01/31 03:49:58.9	93.680	0.380	-0.680	1.310
2020/01/31 03:49:59.0	93.650	0.350	-0.540	1.320
2020/01/31 03:49:59.1	93.630	0.320	-0.390	1.320
2020/01/31 03:49:59.2	93.600	0.290	-0.250	1.320
2020/01/31 03:49:59.3	93.570	0.250	-0.100	1.310
2020/01/31 03:49:59.4	93.540	0.210	0.040	1.310
2020/01/31 03:49:59.5	93.510	0.170	0.170	1.300
2020/01/31 03:49:59.6	93.490	0.130	0.300	1.290
2020/01/31 03:49:59.7	93.460	0.090	0.420	1.270
2020/01/31 03:49:59.8	93.440	0.050	0.540	1.250
2020/01/31 03:49:59.9	93.420	0.010	0.650	1.230
2020/01/31 03:50:00.0	93.400	-0.030	0.740	1.200
2020/01/31 03:50:00.1	93.370	-0.070	0.830	1.160
2020/01/31 03:50:00.2	93.360	-0.100	0.910	1.130
2020/01/31 03:50:00.3	93.340	-0.140	0.970	1.090
2020/01/31 03:50:00.4	93.330	-0.170	1.020	1.050
2020/01/31 03:50:00.5	93.320	-0.200	1.060	1.000
2020/01/31 03:50:00.6	93.310	-0.220	1.090	0.950
2020/01/31 03:50:00.7	93.300	-0.250	1.100	0.900
2020/01/31 03:50:00.8	93.290	-0.270	1.100	0.850
2020/01/31 03:50:00.9	93.280	-0.280	1.090	0.790
2020/01/31 03:50:01.0	93.270	-0.290	1.070	0.730
2020/01/31 03:50:01.1	93.260	-0.300	1.040	0.670
2020/01/31 03:50:01.2	93.260	-0.300	0.990	0.610
2020/01/31 03:50:01.3	93.250	-0.300	0.940	0.550
2020/01/31 03:50:01.4	93.250	-0.300	0.870	0.490
2020/01/31 03:50:01.5	93.250	-0.290	0.800	0.430
2020/01/31 03:50:01.6	93.240	-0.270	0.720	0.370
2020/01/31 03:50:01.7	93.240	-0.260	0.630	0.320
2020/01/31 03:50:01.8	93.240	-0.230	0.530	0.260
2020/01/31 03:50:01.9	93.240	-0.210	0.430	0.200
2020/01/31 03:50:02.0	93.240	-0.180	0.320	0.150
2020/01/31 03:50:02.1	93.260	-0.150	0.210	0.100
2020/01/31 03:50:02.2	93.270	-0.110	0.100	0.050
2020/01/31 03:50:02.3	93.280	-0.080	-0.020	0.010
2020/01/31 03:50:02.4	93.290	-0.040	-0.130	-0.040
2020/01/31 03:50:02.5	93.300	0.000	-0.240	-0.070
2020/01/31 03:50:02.6	93.310	0.050	-0.350	-0.110
2020/01/31 03:50:02.7	93.330	0.090	-0.460	-0.140
2020/01/31 03:50:02.8	93.340	0.130	-0.570	-0.160
2020/01/31 03:50:02.9	93.360	0.180	-0.670	-0.180
2020/01/31 03:50:03.0	93.390	0.220	-0.770	-0.200
2020/01/31 03:50:03.1	93.410	0.270	-0.860	-0.210
2020/01/31 03:50:03.2	93.440	0.310	-0.940	-0.210
2020/01/31 03:50:03.3	93.470	0.350	-1.020	-0.210
2020/01/31 03:50:03.4	93.490	0.390	-1.080	-0.200
2020/01/31 03:50:03.5	93.520	0.430	-1.140	-0.190
2020/01/31 03:50:03.6	93.550	0.460	-1.190	-0.170
2020/01/31 03:50:03.7	93.580	0.490	-1.230	-0.150
2020/01/31 03:50:03.8	93.610	0.520	-1.260	-0.120
2020/01/31 03:50:03.9	93.640	0.540	-1.270	-0.090
2020/01/31 03:50:04.0	93.670	0.560	-1.280	-0.060
2020/01/31 03:50:04.1	93.700	0.570	-1.280	-0.020
2020/01/31 03:50:04.2	93.730	0.580	-1.260	0.020
2020/01/31 03:50:04.3	93.750	0.580	-1.240	0.070
2020/01/31 03:50:04.4	93.780	0.580	-1.200	0.120
2020/01/31 03:50:04.5	93.800	0.570	-1.160	0.170
2020/01/31 03:50:04.6	93.820	0.560	-1.110	0.220
2020/01/31 03:50:04.7	93.840	0.540	-1.040	0.280
2020/01/31 03:50:04.8	93.850	0.510	-0.970	0.340
2020/01/31 03:50:04.9	93.860	0.480	-0.890	0.410
2020/01/31 03:50:05.0	93.870	0.450	-0.800	0.470
2020/01/31 03:50:05.1	93.880	0.400	-0.700	0.540
2020/01/31 03:50:05.2	93.880	0.360	-0.600	0.600
2020/01/31 03:50:05.3	93.870	0.310	-0.490	0.670
2020/01/31 03:50:05.4	93.870	0.250	-0.380	0.740
2020/01/31 03:50:05.5	93.860	0.190	-0.260	0.800
2020/01/31 03:50:05.6	93.850	0.130	-0.140	0.870
2020/01/31 03:50:05.7	93.830	0.060	-0.020	0.940
2020/01/31 03:50:05.8	93.810	-0.010	0.100	1.000
2020/01/31 03:50:05.9	93.790	-0.080	0.210	1.070
2020/01/31 03:50:06.0	93.770	-0.150	0.330	1.130
2020/01/31 03:50:06.1	93.750	-0.220	0.450	1.190
2020/01/31 03:50:06.2	93.720	-0.290	0.560	1.250
2020/01/31 03:50:06.3	93.690	-0.370	0.670	1.310
2020/01/31 03:50:06.4	93.650	-0.440	0.770	1.360
2020/01/31 03:50:06.5	93.620	-0.510	0.860	1.410
2020/01/31 03:50:06.6	93.590	-0.580	0.950	1.460
2020/01/31 03:50:06.7	93.550	-0.640	1.020	1.510
2020/01/31 03:50:06.8	93.520	-0.700	1.090	1.550
2020/01/31 03:50:06.9	93.490	-0.750	1.140	1.580
2020/01/31 03:50:07.0	93.460	-0.800	1.180	1.610
2020/01/31 03:50:07.1	93.420	-0.850	1.210	1.630
2020/01/31 03:50:07.2	93.400	-0.880	1.230	1.650
2020/01/31 03:50:07.3	93.370	-0.910	1.230	1.660
2020/01/31 03:50:07.4	93.350	-0.940	1.210	1.670
2020/01/31 03:50:07.5	93.340	-0.950	1.180	1.660
2020/01/31 03:50:07.6	93.320	-0.960	1.140	1.660
2020/01/31 03:50:07.7	93.310	-0.950	1.080	1.640
2020/01/31 03:50:07.8	93.310	-0.940	1.000	1.620
2020/01/31 03:50:07.9	93.310	-0.920	0.910	1.590
2020/01/31 03:50:08.0	93.310	-0.890	0.810	1.560
2020/01/31 03:50:08.1	93.310	-0.860	0.690	1.520
2020/01/31 03:50:08.2	93.310	-0.810	0.570	1.480
2020/01/31 03:50:08.3	93.330	-0.760	0.430	1.430
2020/01/31 03:50:08.4	93.340	-0.700	0.280	1.380
2020/01/31 03:50:08.5	93.360	-0.640	0.130	1.320
2020/01/31 03:50:08.6	93.380	-0.560	-0.030	1.260
2020/01/31 03:50:08.7	93.400	-0.490	-0.190	1.200
2020/01/31 03:50:08.8	93.430	-0.410	-0.350	1.140
2020/01/31 03:50:08.9	93.450	-0.320	-0.510	1.080
2020/01/31 03:50:09.0	93.470	-0.240	-0.670	1.020
2020/01/31 03:50:09.1	93.480	-0.150	-0.830	0.950
2020/01/31 03:50:09.2	93.500	-0.070	-0.980	0.890
2020/01/31 03:50:09.3	93.520	0.020	-1.130	0.840
2020/01/31 03:50:09.4	93.540	0.110	-1.260	0.780
2020/01/31 03:50:09.5	93.550	0.190	-1.380	0.730
2020/01/31 03:50:09.6	93.560	0.270	-1.500	0.680
2020/01/31 03:50:09.7	93.570	0.350	-1.590	0.630
2020/01/31 03:50:09.8	93.580	0.420	-1.680	0.590
2020/01/31 03:50:09.9	93.580	0.490	-1.750	0.550
2020/01/31 03:50:10.0	93.580	0.550	-1.800	0.510
2020/01/31 03:50:10.1	93.580	0.600	-1.840	0.480
2020/01/31 03:50:10.2	93.570	0.650	-1.850	0.460
2020/01/31 03:50:10.3	93.560	0.680	-1.850	0.430
2020/01/31 03:50:10.4	93.550	0.720	-1.840	0.410
2020/01/31 03:50:10.5	93.540	0.740	-1.810	0.400
2020/01/31 03:50:10.6	93.530	0.750	-1.760	0.390
2020/01/31 03:50:10.7	93.510	0.760	-1.700	0.390
2020/01/31 03:50:10.8	93.490	0.750	-1.620	0.390
2020/01/31 03:50:10.9	93.470	0.740	-1.530	0.390
2020/01/31 03:50:11.0	93.450	0.730	-1.430	0.400
2020/01/31 03:50:11.1	93.430	0.700	-1.300	0.410
2020/01/31 03:50:11.2	93.400	0.670	-1.180	0.420
2020/01/31 03:50:11.3	93.380	0.630	-1.050	0.440
2020/01/31 03:50:11.4	93.350	0.580	-0.910	0.460
2020/01/31 03:50:11.5	93.330	0.530	-0.770	0.490
2020/01/31 03:50:11.6	93.310	0.480	-0.630	0.510
2020/01/31 03:50:11.7	93.280	0.420	-0.480	0.540
2020/01/31 03:50:11.8	93.260	0.360	-0.340	0.560
2020/01/31 03:50:11.9	93.240	0.290	-0.190	0.590
2020/01/31 03:50:12.0	93.220	0.230	-0.050	0.610
2020/01/31 03:50:12.1	93.200	0.160	0.090	0.640
2020/01/31 03:50:12.2	93.190	0.100	0.220	0.660
2020/01/31 03:50:12.3	93.170	0.030	0.350	0.680
2020/01/31 03:50:12.4	93.160	-0.030	0.460	0.690
2020/01/31 03:50:12.5	93.140	-0.100	0.570	0.710
2020/01/31 03:50:12.6	93.130	-0.160	0.670	0.720
2020/01/31 03:50:12.7	93.120	-0.210	0.760	0.730
2020/01/31 03:50:12.8	93.110	-0.260	0.840	0.730
2020/01/31 03:50:12.9	93.100	-0.310	0.900	0.740
2020/01/31 03:50:13.0	93.100	-0.360	0.960	0.740
2020/01/31 03:50:13.1	93.080	-0.390	1.000	0.740
2020/01/31 03:50:13.2	93.070	-0.430	1.030	0.740
2020/01/31 03:50:13.3	93.070	-0.450	1.040	0.740
2020/01/31 03:50:13.4	93.060	-0.470	1.040	0.740
2020/01/31 03:50:13.5	93.050	-0.490	1.030	0.740
2020/01/31 03:50:13.6	93.040	-0.500	1.010	0.740
2020/01/31 03:50:13.7	93.030	-0.500	0.980	0.740
2020/01/31 03:50:13.8	93.020	-0.500	0.940	0.740
2020/01/31 03:50:13.9	93.010	-0.490	0.890	0.740
2020/01/31 03:50:14.0	93.000	-0.480	0.830	0.740
2020/01/31 03:50:14.1	92.990	-0.460	0.760	0.740
2020/01/31 03:50:14.2	92.980	-0.440	0.680	0.730
2020/01/31 03:50:14.3	92.970	-0.410	0.600	0.730
2020/01/31 03:50:14.4	92.960	-0.370	0.510	0.730
2020/01/31 03:50:14.5	92.950	-0.340	0.420	0.730
2020/01/31 03:50:14.6	92.950	-0.300	0.320	0.730
2020/01/31 03:50:14.7	92.940	-0.250	0.220	0.730
2020/01/31 03:50:14.8	92.940	-0.200	0.110	0.720
2020/01/31 03:50:14.9	92.930	-0.150	0.000	0.720
2020/01/31 03:50:15.0	92.930	-0.100	-0.110	0.710
2020/01/31 03:50:15.1	92.940	-0.040	-0.220	0.710
2020/01/31 03:50:15.2	92.940	0.010	-0.330	0.700
2020/01/31 03:50:15.3	92.950	0.070	-0.430	0.700
2020/01/31 03:50:15.4	92.950	0.130	-0.540	0.690
2020/01/31 03:50:15.5	92.960	0.190	-0.640	0.680
2020/01/31 03:50:15.6	92.970	0.240	-0.730	0.670
2020/01/31 03:50:15.7	92.980	0.300	-0.820	0.660
2020/01/31 03:50:15.8	93.000	0.360	-0.910	0.650
2020/01/31 03:50:15.9	93.020	0.410	-0.990	0.640
2020/01/31 03:50:16.0	93.040	0.470	-1.060	0.630
2020/01/31 03:50:16.1	93.060	0.520	-1.120	0.610
2020/01/31 03:50:16.2	93.090	0.570	-1.170	0.600
2020/01/31 03:50:16.3	93.110	0.610	-1.220	0.590
2020/01/31 03:50:16.4	93.140	0.650	-1.250	0.580
2020/01/31 03:50:16.5	93.160	0.690	-1.280	0.570
2020/01/31 03:50:16.6	93.190	0.730	-1.290	0.560
2020/01/31 03:50:16.7	93.220	0.760	-1.300	0.560
2020/01/31 03:50:16.8	93.250	0.780	-1.290	0.560
2020/01/31 03:50:16.9	93.280	0.800	-1.270	0.560
2020/01/31 03:50:17.0	93.300	0.820	-1.240	0.560
2020/01/31 03:50:17.1	93.330	0.830	-1.200	0.570
2020/01/31 03:50:17.2	93.350	0.830	-1.150	0.580
2020/01/31 03:50:17.3	93.370	0.830	-1.090	0.590
2020/01/31 03:50:17.4	93.390	0.820	-1.020	0.610
2020/01/31 03:50:17.5	93.410	0.800	-0.930	0.630
2020/01/31 03:50:17.6	93.420	0.780	-0.840	0.660
2020/01/31 03:50:17.7	93.420	0.750	-0.740	0.690
2020/01/31 03:50:17.8	93.430	0.710	-0.630	0.710
2020/01/31 03:50:17.9	93.430	0.670	-0.510	0.740
2020/01/31 03:50:18.0	93.430	0.620	-0.390	0.780
2020/01/31 03:50:18.1	93.410	0.560	-0.260	0.810
2020/01/31 03:50:18.2	93.400	0.500	-0.130	0.840
2020/01/31 03:50:18.3	93.390	0.430	0.010	0.870
2020/01/31 03:50:18.4	93.380	0.350	0.140	0.900
2020/01/31 03:50:18.5	93.360	0.280	0.280	0.930
2020/01/31 03:50:18.6	93.350	0.190	0.410	0.950
2020/01/31 03:50:18.7	93.330	0.110	0.540	0.980
2020/01/31 03:50:18.8	93.310	0.020	0.660	0.990
2020/01/31 03:50:18.9	93.280	-0.070	0.780	1.010
2020/01/31 03:50:19.0	93.260	-0.160	0.900	1.020
2020/01/31 03:50:19.1	93.240	-0.260	1.000	1.020
2020/01/31 03:50:19.2	93.220	-0.350	1.090	1.030
2020/01/31 03:50:19.3	93.200	-0.440	1.180	1.030
2020/01/31 03:50:19.4	93.180	-0.530	1.250	1.020
2020/01/31 03:50:19.5	93.150	-0.620	1.310	1.010
2020/01/31 03:50:19.6	93.140	-0.700	1.350	1.000
2020/01/31 03:50:19.7	93.120	-0.780	1.380	0.990
2020/01/31 03:50:19.8	93.100	-0.850	1.400	0.970
2020/01/31 03:50:19.9	93.090	-0.920	1.400	0.960
2020/01/31 03:50:20.0	93.080	-0.980	1.380	0.940
2020/01/31 03:50:20.1	93.060	-1.030	1.350	0.910
2020/01/31 03:50:20.2	93.050	-1.070	1.300	0.890
2020/01/31 03:50:20.3	93.050	-1.100	1.230	0.870
2020/01/31 03:50:20.4	93.050	-1.130	1.140	0.850
2020/01/31 03:50:20.5	93.050	-1.140	1.040	0.830
2020/01/31 03:50:20.6	93.050	-1.140	0.920	0.810
2020/01/31 03:50:20.7	93.050	-1.120	0.780	0.800
2020/01/31 03:50:20.8	93.060	-1.100	0.630	0.780
2020/01/31 03:50:20.9	93.060	-1.070	0.470	0.770
2020/01/31 03:50:21.0	93.070	-1.020	0.300	0.750
2020/01/31 03:50:21.1	93.090	-0.970	0.120	0.740
2020/01/31 03:50:21.2	93.100	-0.910	-0.060	0.730
2020/01/31 03:50:21.3	93.110	-0.840	-0.250	0.710
2020/01/31 03:50:21.4	93.120	-0.760	-0.440	0.700
2020/01/31 03:50:21.5	93.140	-0.670	-0.630	0.680
2020/01/31 03:50:21.6	93.150	-0.580	-0.820	0.660
2020/01/31 03:50:21.7	93.170	-0.480	-1.000	0.640
2020/01/31 03:50:21.8	93.180	-0.380	-1.180	0.620
2020/01/31 03:50:21.9	93.200	-0.280	-1.350	0.600
2020/01/31 03:50:22.0	93.220	-0.170	-1.510	0.580
2020/01/31 03:50:22.1	93.230	-0.070	-1.660	0.560
2020/01/31 03:50:22.2	93.250	0.040	-1.790	0.540
2020/01/31 03:50:22.3	93.260	0.140	-1.910	0.520
2020/01/31 03:50:22.4	93.280	0.240	-2.010	0.500
2020/01/31 03:50:22.5	93.290	0.330	-2.090	0.490
2020/01/31 03:50:22.6	93.300	0.420	-2.150	0.480
2020/01/31 03:50:22.7	93.300	0.500	-2.200	0.480
2020/01/31 03:50:22.8	93.310	0.580	-2.220	0.480
2020/01/31 03:50:22.9	93.310	0.650	-2.220	0.480
2020/01/31 03:50:23.0	93.310	0.710	-2.210	0.490
2020/01/31 03:50:23.1	93.310	0.760	-2.170	0.500
2020/01/31 03:50:23.2	93.300	0.800	-2.110	0.520
2020/01/31 03:50:23.3	93.290	0.830	-2.040	0.540
2020/01/31 03:50:23.4	93.280	0.860	-1.940	0.570
2020/01/31 03:50:23.5	93.270	0.870	-1.830	0.600
2020/01/31 03:50:23.6	93.260	0.870	-1.710	0.630
2020/01/31 03:50:23.7	93.240	0.870	-1.570	0.670
2020/01/31 03:50:23.8	93.220	0.850	-1.420	0.700
2020/01/31 03:50:23.9	93.200	0.830	-1.250	0.740
2020/01/31 03:50:24.0	93.180	0.800	-1.080	0.780
2020/01/31 03:50:24.1	93.160	0.760	-0.890	0.820
2020/01/31 03:50:24.2	93.130	0.710	-0.700	0.860
2020/01/31 03:50:24.3	93.110	0.650	-0.510	0.900
2020/01/31 03:50:24.4	93.080	0.590	-0.310	0.930
2020/01/31 03:50:24.5	93.050	0.520	-0.110	0.960
2020/01/31 03:50:24.6	93.020	0.450	0.090	0.990
2020/01/31 03:50:24.7	92.990	0.380	0.280	1.010
2020/01/31 03:50:24.8	92.960	0.300	0.470	1.030
2020/01/31 03:50:24.9	92.930	0.220	0.650	1.050
2020/01/31 03:50:25.0	92.900	0.130	0.820	1.060
2020/01/31 03:50:25.1	92.870	0.050	1.000	1.070
2020/01/31 03:50:25.2	92.840	-0.030	1.150	1.070
2020/01/31 03:50:25.3	92.820	-0.120	1.280	1.070
2020/01/31 03:50:25.4	92.790	-0.190	1.400	1.060
2020/01/31 03:50:25.5	92.770	-0.270	1.510	1.050
2020/01/31 03:50:25.6	92.750	-0.340	1.590	1.030
2020/01/31 03:50:25.7	92.730	-0.410	1.660	1.010
2020/01/31 03:50:25.8	92.720	-0.470	1.710	0.980
2020/01/31 03:50:25.9	92.710	-0.530	1.740	0.940
2020/01/31 03:50:26.0	92.700	-0.570	1.740	0.910
2020/01/31 03:50:26.1	92.690	-0.610	1.730	0.860
2020/01/31 03:50:26.2	92.690	-0.650	1.700	0.820
2020/01/31 03:50:26.3	92.690	-0.670	1.640	0.770
2020/01/31 03:50:26.4	92.700	-0.690	1.570	0.720
2020/01/31 03:50:26.5	92.700	-0.700	1.480	0.670
2020/01/31 03:50:26.6	92.710	-0.700	1.370	0.620
2020/01/31 03:50:26.7	92.730	-0.700	1.250	0.570
2020/01/31 03:50:26.8	92.740	-0.680	1.110	0.520
2020/01/31 03:50:26.9	92.760	-0.660	0.960	0.480
2020/01/31 03:50:27.0	92.770	-0.640	0.800	0.430
2020/01/31 03:50:27.1	92.780	-0.600	0.630	0.390
2020/01/31 03:50:27.2	92.800	-0.560	0.460	0.350
2020/01/31 03:50:27.3	92.820	-0.520	0.280	0.320
2020/01/31 03:50:27.4	92.830	-0.470	0.090	0.300
2020/01/31 03:50:27.5	92.850	-0.420	-0.090	0.270
2020/01/31 03:50:27.6	92.860	-0.360	-0.270	0.250
2020/01/31 03:50:27.7	92.870	-0.310	-0.450	0.240
2020/01/31 03:50:27.8	92.890	-0.250	-0.620	0.220
2020/01/31 03:50:27.9	92.900	-0.190	-0.780	0.210
2020/01/31 03:50:28.0	92.910	-0.130	-0.940	0.210
2020/01/31 03:50:28.1	92.920	-0.070	-1.090	0.200
2020/01/31 03:50:28.2	92.930	-0.010	-1.220	0.200
2020/01/31 03:50:28.3	92.940	0.040	-1.340	0.200
2020/01/31 03:50:28.4	92.950	0.090	-1.440	0.200
2020/01/31 03:50:28.5	92.960	0.140	-1.520	0.210
2020/01/31 03:50:28.6	92.970	0.190	-1.590	0.220
2020/01/31 03:50:28.7	92.980	0.230	-1.640	0.240
2020/01/31 03:50:28.8	92.980	0.260	-1.670	0.260
2020/01/31 03:50:28.9	92.990	0.290	-1.680	0.280
2020/01/31 03:50:29.0	92.990	0.320	-1.670	0.310
2020/01/31 03:50:29.1	92.990	0.340	-1.650	0.350
2020/01/31 03:50:29.2	92.990	0.360	-1.610	0.390
2020/01/31 03:50:29.3	92.990	0.370	-1.560	0.430
2020/01/31 03:50:29.4	92.990	0.370	-1.490	0.480
2020/01/31 03:50:29.5	92.990	0.370	-1.400	0.540
2020/01/31 03:50:29.6	92.990	0.370	-1.310	0.600
2020/01/31 03:50:29.7	92.980	0.360	-1.200	0.660
2020/01/31 03:50:29.8	92.980	0.350	-1.090	0.730
2020/01/31 03:50:29.9	92.980	0.330	-0.960	0.800
2020/01/31 03:50:30.0	92.970	0.310	-0.830	0.870
2020/01/31 03:50:30.1	92.960	0.280	-0.700	0.950
2020/01/31 03:50:30.2	92.960	0.260	-0.570	1.020
2020/01/31 03:50:30.3	92.960	0.230	-0.430	1.090
2020/01/31 03:50:30.4	92.960	0.200	-0.300	1.160
2020/01/31 03:50:30.5	92.960	0.160	-0.170	1.230
2020/01/31 03:50:30.6	92.970	0.130	-0.040	1.290
2020/01/31 03:50:30.7	92.970	0.100	0.080	1.350
2020/01/31 03:50:30.8	92.980	0.060	0.190	1.400
2020/01/31 03:50:30.9	92.990	0.030	0.300	1.440
2020/01/31 03:50:31.0	93.000	-0.000	0.390	1.480
2020/01/31 03:50:31.1	93.020	-0.030	0.480	1.500
2020/01/31 03:50:31.2	93.040	-0.060	0.550	1.520
2020/01/31 03:50:31.3	93.050	-0.090	0.610	1.540
2020/01/31 03:50:31.4	93.070	-0.110	0.650	1.540
2020/01/31 03:50:31.5	93.080	-0.130	0.680	1.540
2020/01/31 03:50:31.6	93.100	-0.150	0.700	1.530
2020/01/31 03:50:31.7	93.120	-0.160	0.710	1.510
2020/01/31 03:50:31.8	93.130	-0.170	0.700	1.490
2020/01/31 03:50:31.9	93.150	-0.170	0.680	1.470
2020/01/31 03:50:32.0	93.160	-0.170	0.640	1.440
2020/01/31 03:50:32.1	93.170	-0.170	0.600	1.410
2020/01/31 03:50:32.2	93.170	-0.160	0.540	1.380
2020/01/31 03:50:32.3	93.180	-0.150	0.480	1.350
2020/01/31 03:50:32.4	93.180	-0.140	0.410	1.320
2020/01/31 03:50:32.5	93.190	-0.120	0.330	1.290
2020/01/31 03:50:32.6	93.190	-0.100	0.250	1.260
2020/01/31 03:50:32.7	93.180	-0.070	0.160	1.230
2020/01/31 03:50:32.8	93.180	-0.050	0.080	1.200
2020/01/31 03:50:32.9	93.170	-0.020	-0.010	1.180
2020/01/31 03:50:33.0	93.160	0.010	-0.110	1.150
2020/01/31 03:50:33.1	93.140	0.040	-0.200	1.130
2020/01/31 03:50:33.2	93.130	0.080	-0.290	1.120
2020/01/31 03:50:33.3	93.110	0.110	-0.370	1.100
2020/01/31 03:50:33.4	93.100	0.140	-0.450	1.090
2020/01/31 03:50:33.5	93.080	0.180	-0.530	1.070
2020/01/31 03:50:33.6	93.060	0.210	-0.600	1.060
2020/01/31 03:50:33.7	93.040	0.250	-0.660	1.050
2020/01/31 03:50:33.8	93.020	0.280	-0.720	1.040
2020/01/31 03:50:33.9	93.000	0.310	-0.770	1.030
2020/01/31 03:50:34.0	92.980	0.340	-0.810	1.020
2020/01/31 03:50:34.1	92.960	0.370	-0.840	1.010
2020/01/31 03:50:34.2	92.950	0.400	-0.870	1.000
2020/01/31 03:50:34.3	92.940	0.430	-0.890	0.990
2020/01/31 03:50:34.4	92.930	0.450	-0.900	0.970
2020/01/31 03:50:34.5	92.920	0.470	-0.910	0.960
2020/01/31 03:50:34.6	92.920	0.480	-0.900	0.950
2020/01/31 03:50:34.7	92.920	0.500	-0.890	0.940
2020/01/31 03:50:34.8	92.930	0.510	-0.880	0.920
2020/01/31 03:50:34.9	92.930	0.520	-0.850	0.910
2020/01/31 03:50:35.0	92.950	0.520	-0.820	0.890
2020/01/31 03:50:35.1	92.970	0.520	-0.790	0.880
2020/01/31 03:50:35.2	92.990	0.520	-0.750	0.860
2020/01/31 03:50:35.3	93.010	0.510	-0.700	0.850
2020/01/31 03:50:35.4	93.030	0.500	-0.650	0.840
2020/01/31 03:50:35.5	93.050	0.480	-0.590	0.820
2020/01/31 03:50:35.6	93.080	0.460	-0.530	0.810
2020/01/31 03:50:35.7	93.100	0.440	-0.470	0.800
2020/01/31 03:50:35.8	93.130	0.420	-0.400	0.790
2020/01/31 03:50:35.9	93.150	0.390	-0.330	0.780
2020/01/31 03:50:36.0	93.170	0.350	-0.260	0.760
2020/01/31 03:50:36.1	93.200	0.320	-0.180	0.750
2020/01/31 03:50:36.2	93.230	0.280	-0.110	0.740
2020/01/31 03:50:36.3	93.250	0.240	-0.040	0.730
2020/01/31 03:50:36.4	93.270	0.190	0.030	0.720
2020/01/31 03:50:36.5	93.290	0.140	0.100	0.710
2020/01/31 03:50:36.6	93.310	0.090	0.170	0.700
2020/01/31 03:50:36.7	93.320	0.040	0.230	0.690
2020/01/31 03:50:36.8	93.340	-0.010	0.290	0.680
2020/01/31 03:50:36.9	93.350	-0.060	0.350	0.670
2020/01/31 03:50:37.0	93.360	-0.110	0.400	0.660
2020/01/31 03:50:37.1	93.360	-0.160	0.450	0.650
2020/01/31 03:50:37.2	93.370	-0.210	0.490	0.650
2020/01/31 03:50:37.3	93.370	-0.260	0.530	0.640
2020/01/31 03:50:37.4	93.370	-0.300	0.560	0.640
2020/01/31 03:50:37.5	93.360	-0.350	0.580	0.630
2020/01/31 03:50:37.6	93.360	-0.390	0.600	0.630
2020/01/31 03:50:37.7	93.350	-0.420	0.610	0.630
2020/01/31 03:50:37.8	93.340	-0.460	0.610	0.630
2020/01/31 03:50:37.9	93.320	-0.490	0.600	0.630
2020/01/31 03:50:38.0	93.310	-0.510	0.590	0.630
2020/01/31 03:50:38.1	93.290	-0.530	0.570	0.630
2020/01/31 03:50:38.2	93.270	-0.550	0.540	0.630
2020/01/31 03:50:38.3	93.250	-0.560	0.510	0.630
2020/01/31 03:50:38.4	93.230	-0.570	0.470	0.630
2020/01/31 03:50:38.5	93.220	-0.570	0.420	0.640
2020/01/31 03:50:38.6	93.200	-0.560	0.370	0.640
2020/01/31 03:50:38.7	93.180	-0.550	0.320	0.640
2020/01/31 03:50:38.8	93.170	-0.540	0.260	0.640
2020/01/31 03:50:38.9	93.160	-0.520	0.190	0.650
2020/01/31 03:50:39.0	93.150	-0.490	0.120	0.650
2020/01/31 03:50:39.1	93.140	-0.470	0.050	0.650
2020/01/31 03:50:39.2	93.130	-0.430	-0.030	0.650
2020/01/31 03:50:39.3	93.140	-0.400	-0.110	0.650
2020/01/31 03:50:39.4	93.140	-0.360	-0.190	0.650
2020/01/31 03:50:39.5	93.150	-0.320	-0.270	0.660
2020/01/31 03:50:39.6	93.160	-0.280	-0.350	0.660
2020/01/31 03:50:39.7	93.180	-0.230	-0.430	0.670
2020/01/31 03:50:39.8	93.200	-0.180	-0.510	0.670
2020/01/31 03:50:39.9	93.220	-0.140	-0.580	0.680
2020/01/31 03:50:40.0	93.250	-0.090	-0.650	0.690
2020/01/31 03:50:40.1	93.280	-0.040	-0.720	0.700
2020/01/31 03:50:40.2	93.310	0.000	-0.790	0.710
2020/01/31 03:50:40.3	93.330	0.050	-0.850	0.720
2020/01/31 03:50:40.4	93.360	0.090	-0.900	0.730
2020/01/31 03:50:40.5	93.390	0.130	-0.940	0.740
2020/01/31 03:50:40.6	93.420	0.170	-0.980	0.750
2020/01/31 03:50:40.7	93.440	0.210	-1.020	0.770
2020/01/31 03:50:40.8	93.470	0.240	-1.040	0.780
2020/01/31 03:50:40.9	93.490	0.270	-1.050	0.790
2020/01/31 03:50:41.0	93.510	0.290	-1.060	0.800
2020/01/31 03:50:41.1	93.530	0.310	-1.060	0.810
2020/01/31 03:50:41.2	93.550	0.330	-1.050	0.820
2020/01/31 03:50:41.3	93.560	0.340	-1.030	0.830
2020/01/31 03:50:41.4	93.560	0.350	-1.010	0.840
2020/01/31 03:50:41.5	93.560	0.350	-0.970	0.850
2020/01/31 03:50:41.6	93.560	0.350	-0.930	0.850
2020/01/31 03:50:41.7	93.550	0.340	-0.880	0.860
2020/01/31 03:50:41.8	93.540	0.330	-0.820	0.860
2020/01/31 03:50:41.9	93.530	0.320	-0.760	0.870
2020/01/31 03:50:42.0	93.510	0.300	-0.690	0.870
2020/01/31 03:50:42.1	93.490	0.280	-0.620	0.870
2020/01/31 03:50:42.2	93.470	0.260	-0.540	0.870
2020/01/31 03:50:42.3	93.450	0.230	-0.460	0.880
2020/01/31 03:50:42.4	93.420	0.200	-0.380	0.880
2020/01/31 03:50:42.5	93.390	0.160	-0.300	0.880
2020/01/31 03:50:42.6	93.360	0.130	-0.220	0.890
2020/01/31 03:50:42.7	93.330	0.090	-0.140	0.900
2020/01/31 03:50:42.8	93.290	0.050	-0.060	0.900
2020/01/31 03:50:42.9	93.260	0.020	0.010	0.910
2020/01/31 03:50:43.0	93.230	-0.020	0.080	0.920
2020/01/31 03:50:43.1	93.200	-0.060	0.150	0.930
2020/01/31 03:50:43.2	93.170	-0.100	0.210	0.940
2020/01/31 03:50:43.3	93.140	-0.140	0.270	0.950
2020/01/31 03:50:43.4	93.110	-0.170	0.310	0.960
2020/01/31 03:50:43.5	93.080	-0.200	0.350	0.970
2020/01/31 03:50:43.6	93.060	-0.230	0.390	0.980
2020/01/31 03:50:43.7	93.040	-0.260	0.410	0.990
2020/01/31 03:50:43.8	93.020	-0.280	0.430	0.990
2020/01/31 03:50:43.9	93.010	-0.300	0.430	1.000
2020/01/31 03:50:44.0	93.000	-0.320	0.430	0.990
2020/01/31 03:50:44.1	92.980	-0.330	0.420	0.990
2020/01/31 03:50:44.2	92.980	-0.340	0.400	0.980
2020/01/31 03:50:44.3	92.990	-0.340	0.380	0.970
2020/01/31 03:50:44.4	92.990	-0.340	0.350	0.950
2020/01/31 03:50:44.5	93.010	-0.340	0.310	0.930
2020/01/31 03:50:44.6	93.030	-0.330	0.260	0.900
2020/01/31 03:50:44.7	93.050	-0.310	0.220	0.880
2020/01/31 03:50:44.8	93.070	-0.300	0.160	0.840
2020/01/31 03:50:44.9	93.100	-0.270	0.100	0.810
2020/01/31 03:50:45.0	93.140	-0.250	0.040	0.770
2020/01/31 03:50:45.1	93.170	-0.220	-0.020	0.730
2020/01/31 03:50:45.2	93.210	-0.190	-0.090	0.690
2020/01/31 03:50:45.3	93.250	-0.160	-0.150	0.640
2020/01/31 03:50:45.4	93.290	-0.120	-0.220	0.600
2020/01/31 03:50:45.5	93.320	-0.090	-0.280	0.560
2020/01/31 03:50:45.6	93.360	-0.050	-0.350	0.520
2020/01/31 03:50:45.7	93.400	-0.010	-0.410	0.480
2020/01/31 03:50:45.8	93.430	0.030	-0.460	0.440
2020/01/31 03:50:45.9	93.470	0.070	-0.520	0.400
2020/01/31 03:50:46.0	93.490	0.110	-0.570	0.370
2020/01/31 03:50:46.1	93.520	0.140	-0.620	0.340
2020/01/31 03:50:46.2	93.550	0.180	-0.660	0.310
2020/01/31 03:50:46.3	93.560	0.220	-0.690	0.290
2020/01/31 03:50:46.4	93.580	0.250	-0.720	0.270
2020/01/31 03:50:46.5	93.590	0.280	-0.740	0.260
2020/01/31 03:50:46.6	93.600	0.310	-0.760	0.250
2020/01/31 03:50:46.7	93.600	0.340	-0.770	0.240
2020/01/31 03:50:46.8	93.600	0.360	-0.780	0.240
2020/01/31 03:50:46.9	93.600	0.380	-0.770	0.240
2020/01/31 03:50:47.0	93.590	0.390	-0.770	0.250
2020/01/31 03:50:47.1	93.580	0.400	-0.750	0.260
2020/01/31 03:50:47.2	93.560	0.410	-0.730	0.270
2020/01/31 03:50:47.3	93.550	0.410	-0.700	0.290
2020/01/31 03:50:47.4	93.530	0.410	-0.670	0.320
2020/01/31 03:50:47.5	93.500	0.410	-0.640	0.340
2020/01/31 03:50:47.6	93.480	0.400	-0.600	0.380
2020/01/31 03:50:47.7	93.450	0.390	-0.550	0.410
2020/01/31 03:50:47.8	93.420	0.370	-0.510	0.450
2020/01/31 03:50:47.9	93.390	0.360	-0.460	0.490
2020/01/31 03:50:48.0	93.360	0.330	-0.410	0.530
2020/01/31 03:50:48.1	93.330	0.310	-0.360	0.580
2020/01/31 03:50:48.2	93.290	0.280	-0.310	0.620
2020/01/31 03:50:48.3	93.260	0.250	-0.250	0.670
2020/01/31 03:50:48.4	93.230	0.220	-0.200	0.720
2020/01/31 03:50:48.5	93.200	0.190	-0.150	0.760
2020/01/31 03:50:48.6	93.170	0.160	-0.100	0.800
2020/01/31 03:50:48.7	93.140	0.120	-0.050	0.840
2020/01/31 03:50:48.8	93.120	0.090	-0.000	0.880
2020/01/31 03:50:48.9	93.100	0.050	0.040	0.910
2020/01/31 03:50:49.0	93.070	0.020	0.080	0.940
2020/01/31 03:50:49.1	93.050	-0.010	0.130	0.970
2020/01/31 03:50:49.2	93.040	-0.040	0.160	0.980
2020/01/31 03:50:49.3	93.030	-0.070	0.190	1.000
2020/01/31 03:50:49.4	93.030	-0.100	0.210	1.010
2020/01/31 03:50:49.5	93.020	-0.130	0.230	1.010
2020/01/31 03:50:49.6	93.030	-0.150	0.250	1.000
2020/01/31 03:50:49.7	93.030	-0.170	0.260	0.990
2020/01/31 03:50:49.8	93.050	-0.190	0.270	0.980
2020/01/31 03:50:49.9	93.060	-0.200	0.270	0.950
2020/01/31 03:50:50.0	93.080	-0.210	0.270	0.930
2020/01/31 03:50:50.1	93.100	-0.220	0.260	0.900
2020/01/31 03:50:50.2	93.130	-0.220	0.250	0.870
2020/01/31 03:50:50.3	93.150	-0.230	0.240	0.830
2020/01/31 03:50:50.4	93.180	-0.220	0.220	0.800
2020/01/31 03:50:50.5	93.200	-0.220	0.200	0.760
2020/01/31 03:50:50.6	93.230	-0.210	0.180	0.720
2020/01/31 03:50:50.7	93.250	-0.200	0.150	0.690
2020/01/31 03:50:50.8	93.270	-0.190	0.120	0.660
2020/01/31 03:50:50.9	93.290	-0.170	0.100	0.620
2020/01/31 03:50:51.0	93.310	-0.150	0.060	0.600
2020/01/31 03:50:51.1	93.330	-0.130	0.040	0.570
2020/01/31 03:50:51.2	93.340	-0.110	0.000	0.550
2020/01/31 03:50:51.3	93.360	-0.080	-0.030	0.530
2020/01/31 03:50:51.4	93.360	-0.060	-0.070	0.520
2020/01/31 03:50:51.5	93.370	-0.030	-0.100	0.510
2020/01/31 03:50:51.6	93.380	-0.000	-0.140	0.510
2020/01/31 03:50:51.7	93.380	0.020	-0.180	0.510
2020/01/31 03:50:51.8	93.380	0.050	-0.210	0.510
2020/01/31 03:50:51.9	93.380	0.080	-0.250	0.510
2020/01/31 03:50:52.0	93.380	0.110	-0.290	0.520
2020/01/31 03:50:52.1	93.390	0.130	-0.330	0.530
2020/01/31 03:50:52.2	93.390	0.160	-0.360	0.550
2020/01/31 03:50:52.3	93.390	0.180	-0.390	0.560
2020/01/31 03:50:52.4	93.390	0.200	-0.420	0.580
2020/01/31 03:50:52.5	93.390	0.220	-0.450	0.600
2020/01/31 03:50:52.6	93.390	0.240	-0.480	0.620
2020/01/31 03:50:52.7	93.390	0.250	-0.500	0.640
2020/01/31 03:50:52.8	93.400	0.270	-0.530	0.660
2020/01/31 03:50:52.9	93.400	0.280	-0.550	0.690
2020/01/31 03:50:53.0	93.410	0.280	-0.560	0.710
2020/01/31 03:50:53.1	93.410	0.290	-0.570	0.730
2020/01/31 03:50:53.2	93.420	0.290	-0.580	0.760
2020/01/31 03:50:53.3	93.430	0.280	-0.590	0.780
2020/01/31 03:50:53.4	93.440	0.280	-0.590	0.800
2020/01/31 03:50:53.5	93.450	0.270	-0.590	0.830
2020/01/31 03:50:53.6	93.460	0.260	-0.580	0.850
2020/01/31 03:50:53.7	93.470	0.240	-0.570	0.870
2020/01/31 03:50:53.8	93.480	0.220	-0.560	0.890
2020/01/31 03:50:53.9	93.500	0.200	-0.540	0.910
2020/01/31 03:50:54.0	93.510	0.180	-0.520	0.940
2020/01/31 03:50:54.1	93.530	0.160	-0.510	0.950
2020/01/31 03:50:54.2	93.540	0.130	-0.480	0.970
2020/01/31 03:50:54.3	93.560	0.100	-0.450	0.990
2020/01/31 03:50:54.4	93.570	0.070	-0.420	1.010
2020/01/31 03:50:54.5	93.580	0.040	-0.380	1.030
2020/01/31 03:50:54.6	93.600	0.010	-0.350	1.040
2020/01/31 03:50:54.7	93.610	-0.020	-0.310	1.060
2020/01/31 03:50:54.8	93.620	-0.060	-0.270	1.070
2020/01/31 03:50:54.9	93.630	-0.090	-0.230	1.090
2020/01/31 03:50:55.0	93.650	-0.120	-0.190	1.100
2020/01/31 03:50:55.1	93.650	-0.150	-0.150	1.110
2020/01/31 03:50:55.2	93.660	-0.190	-0.110	1.110
2020/01/31 03:50:55.3	93.680	-0.220	-0.070	1.120
2020/01/31 03:50:55.4	93.690	-0.250	-0.030	1.130
2020/01/31 03:50:55.5	93.700	-0.270	0.000	1.130
2020/01/31 03:50:55.6	93.700	-0.300	0.040	1.130
2020/01/31 03:50:55.7	93.710	-0.320	0.060	1.140
2020/01/31 03:50:55.8	93.720	-0.350	0.090	1.140
2020/01/31 03:50:55.9	93.730	-0.370	0.110	1.140
2020/01/31 03:50:56.0	93.730	-0.380	0.130	1.140
2020/01/31 03:50:56.1	93.730	-0.400	0.140	1.150
2020/01/31 03:50:56.2	93.730	-0.410	0.150	1.150
2020/01/31 03:50:56.3	93.730	-0.420	0.150	1.150
2020/01/31 03:50:56.4	93.730	-0.430	0.150	1.150
2020/01/31 03:50:56.5	93.730	-0.430	0.140	1.160
2020/01/31 03:50:56.6	93.730	-0.440	0.130	1.160
2020/01/31 03:50:56.7	93.720	-0.430	0.110	1.170
2020/01/31 03:50:56.8	93.720	-0.430	0.090	1.180
2020/01/31 03:50:56.9	93.710	-0.430	0.070	1.180
2020/01/31 03:50:57.0	93.700	-0.420	0.040	1.190
2020/01/31 03:50:57.1	93.690	-0.410	0.000	1.200
2020/01/31 03:50:57.2	93.680	-0.400	-0.030	1.210
2020/01/31 03:50:57.3	93.670	-0.380	-0.070	1.220
2020/01/31 03:50:57.4	93.660	-0.370	-0.120	1.220
2020/01/31 03:50:57.5	93.650	-0.350	-0.160	1.230
2020/01/31 03:50:57.6	93.640	-0.340	-0.210	1.230
2020/01/31 03:50:57.7	93.630	-0.320	-0.260	1.230
2020/01/31 03:50:57.8	93.620	-0.300	-0.300	1.230
2020/01/31 03:50:57.9	93.610	-0.280	-0.350	1.230
2020/01/31 03:50:58.0	93.600	-0.260	-0.400	1.220
2020/01/31 03:50:58.1	93.590	-0.240	-0.450	1.210
2020/01/31 03:50:58.2	93.580	-0.230	-0.490	1.190
2020/01/31 03:50:58.3	93.570	-0.210	-0.530	1.180
2020/01/31 03:50:58.4	93.570	-0.190	-0.560	1.160
2020/01/31 03:50:58.5	93.560	-0.170	-0.600	1.140
2020/01/31 03:50:58.6	93.550	-0.160	-0.620	1.110
2020/01/31 03:50:58.7	93.540	-0.140	-0.640	1.080
2020/01/31 03:50:58.8	93.540	-0.130	-0.660	1.050
2020/01/31 03:50:58.9	93.530	-0.120	-0.670	1.020
2020/01/31 03:50:59.0	93.530	-0.110	-0.670	0.990
2020/01/31 03:50:59.1	93.530	-0.100	-0.660	0.950
2020/01/31 03:50:59.2	93.520	-0.090	-0.660	0.910
2020/01/31 03:50:59.3	93.520	-0.080	-0.640	0.870
2020/01/31 03:50:59.4	93.520	-0.080	-0.620	0.840
2020/01/31 03:50:59.5	93.530	-0.070	-0.590	0.800
2020/01/31 03:50:59.6	93.530	-0.070	-0.560	0.760
2020/01/31 03:50:59.7	93.540	-0.060	-0.530	0.710
2020/01/31 03:50:59.8	93.540	-0.060	-0.490	0.670
2020/01/31 03:50:59.9	93.550	-0.060	-0.450	0.630
2020/01/31 03:51:00.0	93.570	-0.060	-0.400	0.590
2020/01/31 03:51:00.1	93.580	-0.060	-0.350	0.540
2020/01/31 03:51:00.2	93.590	-0.060	-0.310	0.500
2020/01/31 03:51:00.3	93.610	-0.060	-0.260	0.460
2020/01/31 03:51:00.4	93.630	-0.060	-0.220	0.410
2020/01/31 03:51:00.5	93.650	-0.060	-0.170	0.370
2020/01/31 03:51:00.6	93.680	-0.060	-0.130	0.330
2020/01/31 03:51:00.7	93.700	-0.060	-0.090	0.280
2020/01/31 03:51:00.8	93.730	-0.060	-0.060	0.250
2020/01/31 03:51:00.9	93.750	-0.050	-0.020	0.210
2020/01/31 03:51:01.0	93.780	-0.050	0.000	0.170
2020/01/31 03:51:01.1	93.810	-0.040	0.030	0.140
2020/01/31 03:51:01.2	93.840	-0.030	0.050	0.120
2020/01/31 03:51:01.3	93.860	-0.030	0.070	0.090
2020/01/31 03:51:01.4	93.890	-0.020	0.080	0.070
2020/01/31 03:51:01.5	93.910	-0.010	0.090	0.050
2020/01/31 03:51:01.6	93.930	0.010	0.090	0.030
2020/01/31 03:51:01.7	93.950	0.020	0.090	0.020
2020/01/31 03:51:01.8	93.980	0.030	0.090	0.000
2020/01/31 03:51:01.9	93.990	0.050	0.090	-0.010
2020/01/31 03:51:02.0	94.010	0.060	0.080	-0.010
2020/01/31 03:51:02.1	94.030	0.080	0.070	-0.020
2020/01/31 03:51:02.2	94.040	0.100	0.060	-0.020
2020/01/31 03:51:02.3	94.060	0.110	0.050	-0.020
2020/01/31 03:51:02.4	94.070	0.130	0.040	-0.020
2020/01/31 03:51:02.5	94.080	0.150	0.030	-0.010
2020/01/31 03:51:02.6	94.080	0.160	0.010	-0.000
2020/01/31 03:51:02.7	94.090	0.180	-0.000	0.010
2020/01/31 03:51:02.8	94.090	0.200	-0.020	0.030
2020/01/31 03:51:02.9	94.090	0.220	-0.030	0.040
2020/01/31 03:51:03.0	94.080	0.230	-0.050	0.060
2020/01/31 03:51:03.1	94.080	0.250	-0.060	0.080
2020/01/31 03:51:03.2	94.070	0.270	-0.080	0.110
2020/01/31 03:51:03.3	94.060	0.280	-0.090	0.130
2020/01/31 03:51:03.4	94.050	0.300	-0.110	0.160
2020/01/31 03:51:03.5	94.040	0.320	-0.130	0.190
2020/01/31 03:51:03.6	94.020	0.330	-0.140	0.220
2020/01/31 03:51:03.7	94.010	0.350	-0.150	0.260
2020/01/31 03:51:03.8	93.990	0.360	-0.170	0.290
2020/01/31 03:51:03.9	93.970	0.370	-0.180	0.330
2020/01/31 03:51:04.0	93.950	0.390	-0.200	0.370
2020/01/31 03:51:04.1	93.930	0.400	-0.210	0.410
2020/01/31 03:51:04.2	93.910	0.410	-0.230	0.450
2020/01/31 03:51:04.3	93.890	0.410	-0.240	0.490
2020/01/31 03:51:04.4	93.870	0.420	-0.250	0.530
2020/01/31 03:51:04.5	93.850	0.430	-0.270	0.570
2020/01/31 03:51:04.6	93.830	0.430	-0.280	0.610
2020/01/31 03:51:04.7	93.810	0.440	-0.300	0.650
2020/01/31 03:51:04.8	93.790	0.440	-0.310	0.680
2020/01/31 03:51:04.9	93.780	0.440	-0.330	0.720
2020/01/31 03:51:05.0	93.760	0.440	-0.340	0.750
2020/01/31 03:51:05.1	93.750	0.430	-0.350	0.780
2020/01/31 03:51:05.2	93.740	0.430	-0.370	0.800
2020/01/31 03:51:05.3	93.730	0.420	-0.380	0.820
2020/01/31 03:51:05.4	93.730	0.410	-0.390	0.840
2020/01/31 03:51:05.5	93.730	0.400	-0.410	0.850
2020/01/31 03:51:05.6	93.730	0.390	-0.420	0.860
2020/01/31 03:51:05.7	93.740	0.380	-0.440	0.870
2020/01/31 03:51:05.8	93.750	0.370	-0.450	0.870
2020/01/31 03:51:05.9	93.750	0.350	-0.460	0.870
2020/01/31 03:51:06.0	93.770	0.340	-0.470	0.860
2020/01/31 03:51:06.1	93.770	0.320	-0.480	0.850
2020/01/31 03:51:06.2	93.790	0.300	-0.490	0.850
2020/01/31 03:51:06.3	93.800	0.280	-0.500	0.840
2020/01/31 03:51:06.4	93.820	0.260	-0.500	0.830
2020/01/31 03:51:06.5	93.830	0.240	-0.510	0.820
2020/01/31 03:51:06.6	93.850	0.220	-0.510	0.810
2020/01/31 03:51:06.7	93.870	0.200	-0.510	0.800
2020/01/31 03:51:06.8	93.880	0.180	-0.510	0.790
2020/01/31 03:51:06.9	93.900	0.160	-0.510	0.780
2020/01/31 03:51:07.0	93.910	0.140	-0.500	0.780
2020/01/31 03:51:07.1	93.930	0.120	-0.500	0.780
2020/01/31 03:51:07.2	93.940	0.100	-0.490	0.780
2020/01/31 03:51:07.3	93.950	0.080	-0.480	0.780
2020/01/31 03:51:07.4	93.960	0.060	-0.470	0.790
2020/01/31 03:51:07.5	93.970	0.050	-0.460	0.800
2020/01/31 03:51:07.6	93.980	0.030	-0.440	0.810
2020/01/31 03:51:07.7	94.000	0.010	-0.430	0.820
2020/01/31 03:51:07.8	94.010	-0.000	-0.410	0.840
2020/01/31 03:51:07.9	94.020	-0.020	-0.390	0.850
2020/01/31 03:51:08.0	94.030	-0.040	-0.370	0.870
2020/01/31 03:51:08.1	94.040	-0.050	-0.350	0.900
2020/01/31 03:51:08.2	94.050	-0.070	-0.330	0.920
2020/01/31 03:51:08.3	94.070	-0.080	-0.310	0.950
2020/01/31 03:51:08.4	94.080	-0.100	-0.290	0.970
2020/01/31 03:51:08.5	94.100	-0.110	-0.270	1.010
2020/01/31 03:51:08.6	94.110	-0.130	-0.240	1.040
2020/01/31 03:51:08.7	94.130	-0.150	-0.220	1.070
2020/01/31 03:51:08.8	94.140	-0.170	-0.200	1.110
2020/01/31 03:51:08.9	94.150	-0.180	-0.170	1.140
2020/01/31 03:51:09.0	94.160	-0.200	-0.150	1.180
2020/01/31 03:51:09.1	94.170	-0.220	-0.130	1.220
2020/01/31 03:51:09.2	94.180	-0.240	-0.110	1.250
2020/01/31 03:51:09.3	94.190	-0.270	-0.080	1.290
2020/01/31 03:51:09.4	94.200	-0.290	-0.060	1.320
2020/01/31 03:51:09.5	94.200	-0.310	-0.040	1.360
2020/01/31 03:51:09.6	94.200	-0.340	-0.020	1.390
2020/01/31 03:51:09.7	94.210	-0.360	0.000	1.420
2020/01/31 03:51:09.8	94.200	-0.390	0.020	1.440
2020/01/31 03:51:09.9	94.200	-0.420	0.040	1.460
2020/01/31 03:51:10.0	94.200	-0.450	0.060	1.480
2020/01/31 03:51:10.1	94.190	-0.470	0.080	1.500
2020/01/31 03:51:10.2	94.180	-0.500	0.100	1.510
2020/01/31 03:51:10.3	94.170	-0.530	0.110	1.520
2020/01/31 03:51:10.4	94.160	-0.560	0.130	1.530
2020/01/31 03:51:10.5	94.150	-0.580	0.140	1.540
2020/01/31 03:51:10.6	94.130	-0.610	0.160	1.540
2020/01/31 03:51:10.7	94.110	-0.630	0.170	1.540
2020/01/31 03:51:10.8	94.090	-0.650	0.180	1.540
2020/01/31 03:51:10.9	94.070	-0.680	0.190	1.530
2020/01/31 03:51:11.0	94.050	-0.700	0.200	1.530
2020/01/31 03:51:11.1	94.030	-0.710	0.200	1.520
2020/01/31 03:51:11.2	94.000	-0.730	0.210	1.510
2020/01/31 03:51:11.3	93.980	-0.740	0.220	1.500
2020/01/31 03:51:11.4	93.960	-0.750	0.220	1.490
2020/01/31 03:51:11.5	93.940	-0.760	0.230	1.470
2020/01/31 03:51:11.6	93.920	-0.760	0.230	1.460
2020/01/31 03:51:11.7	93.900	-0.760	0.230	1.440
2020/01/31 03:51:11.8	93.880	-0.760	0.230	1.420
2020/01/31 03:51:11.9	93.870	-0.760	0.220	1.400
2020/01/31 03:51:12.0	93.850	-0.750	0.220	1.380
2020/01/31 03:51:12.1	93.850	-0.740	0.210	1.360
2020/01/31 03:51:12.2	93.840	-0.720	0.200	1.340
2020/01/31 03:51:12.3	93.840	-0.700	0.180	1.310
2020/01/31 03:51:12.4	93.840	-0.680	0.160	1.280
2020/01/31 03:51:12.5	93.840	-0.650	0.130	1.240
2020/01/31 03:51:12.6	93.840	-0.630	0.100	1.200
2020/01/31 03:51:12.7	93.850	-0.590	0.070	1.160
2020/01/31 03:51:12.8	93.860	-0.560	0.030	1.110
2020/01/31 03:51:12.9	93.870	-0.520	-0.020	1.060
2020/01/31 03:51:13.0	93.890	-0.480	-0.070	1.010
2020/01/31 03:51:13.1	93.910	-0.440	-0.120	0.950
2020/01/31 03:51:13.2	93.930	-0.390	-0.180	0.890
2020/01/31 03:51:13.3	93.950	-0.340	-0.240	0.820
2020/01/31 03:51:13.4	93.980	-0.290	-0.310	0.750
2020/01/31 03:51:13.5	94.010	-0.240	-0.380	0.680
2020/01/31 03:51:13.6	94.030	-0.180	-0.450	0.610
2020/01/31 03:51:13.7	94.060	-0.130	-0.530	0.530
2020/01/31 03:51:13.8	94.090	-0.070	-0.600	0.460
2020/01/31 03:51:13.9	94.110	-0.010	-0.680	0.380
2020/01/31 03:51:14.0	94.140	0.050	-0.750	0.310
2020/01/31 03:51:14.1	94.170	0.110	-0.820	0.240
2020/01/31 03:51:14.2	94.190	0.170	-0.890	0.170
2020/01/31 03:51:14.3	94.210	0.230	-0.960	0.100
2020/01/31 03:51:14.4	94.230	0.280	-1.010	0.040
2020/01/31 03:51:14.5	94.250	0.340	-1.070	-0.020
2020/01/31 03:51:14.6	94.260	0.390	-1.110	-0.080
2020/01/31 03:51:14.7	94.270	0.450	-1.150	-0.130
2020/01/31 03:51:14.8	94.290	0.500	-1.170	-0.180
2020/01/31 03:51:14.9	94.300	0.540	-1.190	-0.220
2020/01/31 03:51:15.0	94.310	0.590	-1.190	-0.260
2020/01/31 03:51:15.1	94.320	0.620	-1.190	-0.300
2020/01/31 03:51:15.2	94.320	0.660	-1.170	-0.320
2020/01/31 03:51:15.3	94.320	0.690	-1.150	-0.340
2020/01/31 03:51:15.4	94.330	0.720	-1.110	-0.350
2020/01/31 03:51:15.5	94.330	0.740	-1.060	-0.360
2020/01/31 03:51:15.6	94.330	0.760	-0.990	-0.360
2020/01/31 03:51:15.7	94.320	0.770	-0.930	-0.350
2020/01/31 03:51:15.8	94.320	0.780	-0.850	-0.340
2020/01/31 03:51:15.9	94.310	0.780	-0.760	-0.310
2020/01/31 03:51:16.0	94.300	0.780	-0.670	-0.290
2020/01/31 03:51:16.1	94.290	0.770	-0.570	-0.260
2020/01/31 03:51:16.2	94.280	0.760	-0.460	-0.220
2020/01/31 03:51:16.3	94.270	0.740	-0.360	-0.170
2020/01/31 03:51:16.4	94.250	0.730	-0.250	-0.120
2020/01/31 03:51:16.5	94.240	0.700	-0.140	-0.070
2020/01/31 03:51:16.6	94.230	0.680	-0.030	-0.010
2020/01/31 03:51:16.7	94.210	0.650	0.070	0.050
2020/01/31 03:51:16.8	94.200	0.610	0.170	0.110
2020/01/31 03:51:16.9	94.180	0.580	0.270	0.180
2020/01/31 03:51:17.0	94.170	0.540	0.360	0.240
2020/01/31 03:51:17.1	94.150	0.500	0.440	0.310
2020/01/31 03:51:17.2	94.140	0.460	0.510	0.370
2020/01/31 03:51:17.3	94.130	0.420	0.580	0.430
2020/01/31 03:51:17.4	94.120	0.380	0.630	0.490
2020/01/31 03:51:17.5	94.110	0.340	0.680	0.550
2020/01/31 03:51:17.6	94.110	0.300	0.710	0.600
2020/01/31 03:51:17.7	94.100	0.260	0.730	0.650
2020/01/31 03:51:17.8	94.090	0.210	0.740	0.690
2020/01/31 03:51:17.9	94.090	0.170	0.740	0.730
2020/01/31 03:51:18.0	94.080	0.130	0.730	0.760
2020/01/31 03:51:18.1	94.090	0.100	0.710	0.790
2020/01/31 03:51:18.2	94.080	0.060	0.680	0.820
2020/01/31 03:51:18.3	94.080	0.030	0.630	0.830
2020/01/31 03:51:18.4	94.080	-0.000	0.580	0.850
2020/01/31 03:51:18.5	94.070	-0.030	0.510	0.860
2020/01/31 03:51:18.6	94.070	-0.060	0.440	0.860
2020/01/31 03:51:18.7	94.070	-0.080	0.350	0.870
2020/01/31 03:51:18.8	94.060	-0.100	0.270	0.870
2020/01/31 03:51:18.9	94.060	-0.120	0.170	0.870
2020/01/31 03:51:19.0	94.050	-0.140	0.070	0.870
2020/01/31 03:51:19.1	94.040	-0.150	-0.030	0.870
2020/01/31 03:51:19.2	94.030	-0.160	-0.140	0.870
2020/01/31 03:51:19.3	94.020	-0.160	-0.240	0.870
2020/01/31 03:51:19.4	94.010	-0.170	-0.340	0.870
2020/01/31 03:51:19.5	94.010	-0.170	-0.440	0.880
2020/01/31 03:51:19.6	94.000	-0.170	-0.540	0.880
2020/01/31 03:51:19.7	93.990	-0.160	-0.630	0.890
2020/01/31 03:51:19.8	93.990	-0.160	-0.720	0.900
2020/01/31 03:51:19.9	93.980	-0.150	-0.800	0.910
2020/01/31 03:51:20.0	93.980	-0.140	-0.860	0.920
2020/01/31 03:51:20.1	93.970	-0.130	-0.930	0.940
2020/01/31 03:51:20.2	93.970	-0.120	-0.980	0.960
2020/01/31 03:51:20.3	93.970	-0.110	-1.020	0.980
2020/01/31 03:51:20.4	93.970	-0.100	-1.040	1.000
2020/01/31 03:51:20.5	93.970	-0.090	-1.060	1.030
2020/01/31 03:51:20.6	93.980	-0.080	-1.060	1.050
2020/01/31 03:51:20.7	93.980	-0.070	-1.060	1.080
2020/01/31 03:51:20.8	93.990	-0.060	-1.040	1.100
2020/01/31 03:51:20.9	94.000	-0.050	-1.010	1.130
2020/01/31 03:51:21.0	94.010	-0.050	-0.970	1.150
2020/01/31 03:51:21.1	94.020	-0.040	-0.930	1.170
2020/01/31 03:51:21.2	94.030	-0.040	-0.870	1.190
2020/01/31 03:51:21.3	94.050	-0.040	-0.810	1.210
2020/01/31 03:51:21.4	94.060	-0.040	-0.730	1.230
2020/01/31 03:51:21.5	94.080	-0.050	-0.660	1.250
2020/01/31 03:51:21.6	94.100	-0.060	-0.570	1.270
2020/01/31 03:51:21.7	94.120	-0.070	-0.480	1.280
2020/01/31 03:51:21.8	94.140	-0.080	-0.390	1.300
2020/01/31 03:51:21.9	94.170	-0.090	-0.300	1.310
2020/01/31 03:51:22.0	94.190	-0.110	-0.210	1.320
2020/01/31 03:51:22.1	94.200	-0.130	-0.110	1.330
2020/01/31 03:51:22.2	94.220	-0.150	-0.010	1.340
2020/01/31 03:51:22.3	94.240	-0.180	0.080	1.350
2020/01/31 03:51:22.4	94.250	-0.200	0.160	1.360
2020/01/31 03:51:22.5	94.270	-0.230	0.250	1.370
2020/01/31 03:51:22.6	94.280	-0.250	0.330	1.380
2020/01/31 03:51:22.7	94.290	-0.280	0.400	1.390
2020/01/31 03:51:22.8	94.290	-0.310	0.460	1.390
2020/01/31 03:51:22.9	94.300	-0.330	0.520	1.400
2020/01/31 03:51:23.0	94.300	-0.360	0.570	1.410
2020/01/31 03:51:23.1	94.290	-0.390	0.610	1.410
2020/01/31 03:51:23.2	94.290	-0.410	0.640	1.410
2020/01/31 03:51:23.3	94.280	-0.430	0.660	1.420
2020/01/31 03:51:23.4	94.280	-0.450	0.670	1.420
2020/01/31 03:51:23.5	94.270	-0.470	0.670	1.420
2020/01/31 03:51:23.6	94.260	-0.480	0.660	1.410
2020/01/31 03:51:23.7	94.250	-0.500	0.640	1.410
2020/01/31 03:51:23.8	94.230	-0.500	0.610	1.400
2020/01/31 03:51:23.9	94.220	-0.510	0.570	1.380
2020/01/31 03:51:24.0	94.210	-0.510	0.520	1.370
2020/01/31 03:51:24.1	94.200	-0.500	0.460	1.350
2020/01/31 03:51:24.2	94.180	-0.490	0.390	1.330
2020/01/31 03:51:24.3	94.170	-0.480	0.310	1.300
2020/01/31 03:51:24.4	94.160	-0.460	0.230	1.270
2020/01/31 03:51:24.5	94.150	-0.440	0.130	1.240
2020/01/31 03:51:24.6	94.140	-0.410	0.040	1.200
2020/01/31 03:51:24.7	94.130	-0.380	-0.060	1.170
2020/01/31 03:51:24.8	94.120	-0.350	-0.160	1.130
2020/01/31 03:51:24.9	94.110	-0.310	-0.270	1.090
2020/01/31 03:51:25.0	94.100	-0.270	-0.370	1.050
2020/01/31 03:51:25.1	94.090	-0.230	-0.480	1.010
2020/01/31 03:51:25.2	94.080	-0.180	-0.580	0.970
2020/01/31 03:51:25.3	94.070	-0.140	-0.670	0.930
2020/01/31 03:51:25.4	94.060	-0.090	-0.760	0.890
2020/01/31 03:51:25.5	94.050	-0.040	-0.840	0.860
2020/01/31 03:51:25.6	94.040	0.010	-0.920	0.820
2020/01/31 03:51:25.7	94.030	0.050	-0.990	0.790
2020/01/31 03:51:25.8	94.010	0.100	-1.040	0.750
2020/01/31 03:51:25.9	94.000	0.150	-1.090	0.720
2020/01/31 03:51:26.0	93.990	0.190	-1.130	0.690
2020/01/31 03:51:26.1	93.980	0.230	-1.160	0.660
2020/01/31 03:51:26.2	93.970	0.270	-1.180	0.630
2020/01/31 03:51:26.3	93.950	0.310	-1.190	0.610
2020/01/31 03:51:26.4	93.940	0.340	-1.180	0.580
2020/01/31 03:51:26.5	93.930	0.380	-1.170	0.560
2020/01/31 03:51:26.6	93.920	0.400	-1.150	0.540
2020/01/31 03:51:26.7	93.910	0.430	-1.110	0.520
2020/01/31 03:51:26.8	93.890	0.450	-1.070	0.500
2020/01/31 03:51:26.9	93.880	0.460	-1.020	0.480
2020/01/31 03:51:27.0	93.870	0.470	-0.960	0.470
2020/01/31 03:51:27.1	93.870	0.480	-0.890	0.460
2020/01/31 03:51:27.2	93.860	0.490	-0.820	0.450
2020/01/31 03:51:27.3	93.850	0.490	-0.740	0.440
2020/01/31 03:51:27.4	93.840	0.480	-0.660	0.430
2020/01/31 03:51:27.5	93.840	0.480	-0.580	0.430
2020/01/31 03:51:27.6	93.830	0.470	-0.490	0.430
2020/01/31 03:51:27.7	93.830	0.460	-0.410	0.430
2020/01/31 03:51:27.8	93.820	0.440	-0.320	0.430
2020/01/31 03:51:27.9	93.820	0.420	-0.230	0.440
2020/01/31 03:51:28.0	93.820	0.400	-0.150	0.450
2020/01/31 03:51:28.1	93.820	0.380	-0.070	0.460
2020/01/31 03:51:28.2	93.820	0.350	0.010	0.470
2020/01/31 03:51:28.3	93.820	0.330	0.080	0.490
2020/01/31 03:51:28.4	93.830	0.300	0.150	0.500
2020/01/31 03:51:28.5	93.830	0.270	0.210	0.520
2020/01/31 03:51:28.6	93.840	0.240	0.270	0.540
2020/01/31 03:51:28.7	93.850	0.210	0.320	0.560
2020/01/31 03:51:28.8	93.860	0.170	0.360	0.580
2020/01/31 03:51:28.9	93.870	0.140	0.400	0.610
2020/01/31 03:51:29.0	93.880	0.110	0.430	0.630
2020/01/31 03:51:29.1	93.890	0.070	0.450	0.650
2020/01/31 03:51:29.2	93.910	0.040	0.470	0.680
2020/01/31 03:51:29.3	93.920	0.000	0.480	0.710
2020/01/31 03:51:29.4	93.930	-0.030	0.480	0.730
2020/01/31 03:51:29.5	93.940	-0.070	0.480	0.760
2020/01/31 03:51:29.6	93.950	-0.100	0.470	0.790
2020/01/31 03:51:29.7	93.960	-0.140	0.460	0.820
2020/01/31 03:51:29.8	93.970	-0.170	0.440	0.840
2020/01/31 03:51:29.9	93.980	-0.210	0.420	0.870
2020/01/31 03:51:30.0	93.980	-0.240	0.390	0.900
2020/01/31 03:51:30.1	93.980	-0.280	0.360	0.920
2020/01/31 03:51:30.2	93.980	-0.310	0.320	0.950
2020/01/31 03:51:30.3	93.980	-0.340	0.280	0.970
2020/01/31 03:51:30.4	93.980	-0.370	0.240	1.000
2020/01/31 03:51:30.5	93.980	-0.400	0.200	1.020
2020/01/31 03:51:30.6	93.980	-0.420	0.150	1.040
2020/01/31 03:51:30.7	93.970	-0.450	0.100	1.060
2020/01/31 03:51:30.8	93.960	-0.470	0.060	1.080
2020/01/31 03:51:30.9	93.950	-0.490	0.010	1.100
2020/01/31 03:51:31.0	93.940	-0.500	-0.040	1.120
2020/01/31 03:51:31.1	93.930	-0.510	-0.090	1.130
2020/01/31 03:51:31.2	93.920	-0.520	-0.140	1.150
2020/01/31 03:51:31.3	93.900	-0.530	-0.180	1.170
2020/01/31 03:51:31.4	93.890	-0.530	-0.230	1.180
2020/01/31 03:51:31.5	93.870	-0.530	-0.270	1.200
2020/01/31 03:51:31.6	93.860	-0.530	-0.310	1.210
2020/01/31 03:51:31.7	93.840	-0.520	-0.350	1.220
2020/01/31 03:51:31.8	93.820	-0.510	-0.390	1.230
2020/01/31 03:51:31.9	93.800	-0.500	-0.420	1.240
2020/01/31 03:51:32.0	93.790	-0.480	-0.450	1.260
2020/01/31 03:51:32.1	93.770	-0.460	-0.480	1.270
2020/01/31 03:51:32.2	93.750	-0.440	-0.510	1.280
2020/01/31 03:51:32.3	93.730	-0.410	-0.530	1.290
2020/01/31 03:51:32.4	93.720	-0.380	-0.560	1.300
2020/01/31 03:51:32.5	93.700	-0.350	-0.580	1.300
2020/01/31 03:51:32.6	93.690	-0.320	-0.590	1.310
2020/01/31 03:51:32.7	93.680	-0.280	-0.610	1.320
2020/01/31 03:51:32.8	93.660	-0.250	-0.630	1.330
2020/01/31 03:51:32.9	93.650	-0.210	-0.640	1.330
2020/01/31 03:51:33.0	93.640	-0.170	-0.650	1.340
2020/01/31 03:51:33.1	93.620	-0.130	-0.660	1.340
2020/01/31 03:51:33.2	93.600	-0.090	-0.670	1.340
2020/01/31 03:51:33.3	93.590	-0.050	-0.680	1.340
2020/01/31 03:51:33.4	93.580	-0.010	-0.680	1.340
2020/01/31 03:51:33.5	93.580	0.020	-0.680	1.330
2020/01/31 03:51:33.6	93.570	0.060	-0.680	1.320
2020/01/31 03:51:33.7	93.560	0.090	-0.680	1.310
2020/01/31 03:51:33.8	93.550	0.130	-0.680	1.300
2020/01/31 03:51:33.9	93.550	0.160	-0.670	1.280
2020/01/31 03:51:34.0	93.540	0.180	-0.660	1.270
2020/01/31 03:51:34.1	93.530	0.210	-0.640	1.250
2020/01/31 03:51:34.2	93.530	0.230	-0.620	1.220
2020/01/31 03:51:34.3	93.530	0.250	-0.600	1.190
2020/01/31 03:51:34.4	93.530	0.270	-0.570	1.160
2020/01/31 03:51:34.5	93.520	0.280	-0.540	1.130
2020/01/31 03:51:34.6	93.530	0.290	-0.510	1.100
2020/01/31 03:51:34.7	93.530	0.290	-0.470	1.060
2020/01/31 03:51:34.8	93.530	0.290	-0.420	1.030
2020/01/31 03:51:34.9	93.530	0.290	-0.380	0.990
2020/01/31 03:51:35.0	93.540	0.290	-0.330	0.950
2020/01/31 03:51:35.1	93.540	0.280	-0.270	0.910
2020/01/31 03:51:35.2	93.550	0.270	-0.220	0.870
2020/01/31 03:51:35.3	93.560	0.250	-0.160	0.830
2020/01/31 03:51:35.4	93.560	0.240	-0.100	0.790
2020/01/31 03:51:35.5	93.570	0.220	-0.040	0.750
2020/01/31 03:51:35.6	93.580	0.200	0.020	0.710
2020/01/31 03:51:35.7	93.590	0.180	0.080	0.670
2020/01/31 03:51:35.8	93.600	0.150	0.140	0.640
2020/01/31 03:51:35.9	93.610	0.130	0.200	0.600
2020/01/31 03:51:36.0	93.620	0.110	0.250	0.570
2020/01/31 03:51:36.1	93.620	0.080	0.300	0.540
2020/01/31 03:51:36.2	93.630	0.060	0.350	0.510
2020/01/31 03:51:36.3	93.640	0.030	0.390	0.490
2020/01/31 03:51:36.4	93.640	0.010	0.430	0.460
2020/01/31 03:51:36.5	93.640	-0.010	0.460	0.440
2020/01/31 03:51:36.6	93.640	-0.030	0.490	0.430
2020/01/31 03:51:36.7	93.640	-0.050	0.500	0.410
2020/01/31 03:51:36.8	93.640	-0.070	0.510	0.400
2020/01/31 03:51:36.9	93.640	-0.080	0.510	0.390
2020/01/31 03:51:37.0	93.630	-0.090	0.500	0.390
2020/01/31 03:51:37.1	93.630	-0.100	0.480	0.380
2020/01/31 03:51:37.2	93.620	-0.110	0.460	0.380
2020/01/31 03:51:37.3	93.610	-0.110	0.420	0.390
2020/01/31 03:51:37.4	93.600	-0.110	0.380	0.390
2020/01/31 03:51:37.5	93.590	-0.100	0.330	0.400
2020/01/31 03:51:37.6	93.580	-0.090	0.270	0.400
2020/01/31 03:51:37.7	93.570	-0.080	0.200	0.410
2020/01/31 03:51:37.8	93.560	-0.060	0.120	0.420
2020/01/31 03:51:37.9	93.560	-0.050	0.050	0.430
2020/01/31 03:51:38.0	93.550	-0.020	-0.040	0.440
2020/01/31 03:51:38.1	93.550	0.000	-0.130	0.450
2020/01/31 03:51:38.2	93.550	0.030	-0.220	0.460
2020/01/31 03:51:38.3	93.550	0.050	-0.310	0.470
2020/01/31 03:51:38.4	93.550	0.080	-0.400	0.490
2020/01/31 03:51:38.5	93.550	0.120	-0.500	0.500
2020/01/31 03:51:38.6	93.550	0.150	-0.580	0.510
2020/01/31 03:51:38.7	93.560	0.180	-0.670	0.530
2020/01/31 03:51:38.8	93.560	0.210	-0.750	0.540
2020/01/31 03:51:38.9	93.560	0.240	-0.830	0.560
2020/01/31 03:51:39.0	93.570	0.280	-0.900	0.570
2020/01/31 03:51:39.1	93.570	0.310	-0.970	0.580
2020/01/31 03:51:39.2	93.570	0.330	-1.030	0.600
2020/01/31 03:51:39.3	93.570	0.360	-1.080	0.620
2020/01/31 03:51:39.4	93.580	0.380	-1.120	0.630
2020/01/31 03:51:39.5	93.580	0.400	-1.150	0.650
2020/01/31 03:51:39.6	93.580	0.420	-1.170	0.660
2020/01/31 03:51:39.7	93.580	0.440	-1.180	0.680
2020/01/31 03:51:39.8	93.590	0.450	-1.180	0.690
2020/01/31 03:51:39.9	93.590	0.460	-1.180	0.710
2020/01/31 03:51:40.0	93.590	0.460	-1.160	0.720
2020/01/31 03:51:40.1	93.580	0.460	-1.120	0.730
2020/01/31 03:51:40.2	93.580	0.460	-1.080	0.750
2020/01/31 03:51:40.3	93.580	0.450	-1.040	0.760
2020/01/31 03:51:40.4	93.570	0.440	-0.980	0.780
2020/01/31 03:51:40.5	93.560	0.420	-0.910	0.790
2020/01/31 03:51:40.6	93.560	0.400	-0.840	0.810
2020/01/31 03:51:40.7	93.550	0.380	-0.760	0.830
2020/01/31 03:51:40.8	93.540	0.350	-0.670	0.850
2020/01/31 03:51:40.9	93.520	0.320	-0.580	0.870
2020/01/31 03:51:41.0	93.510	0.290	-0.480	0.900
2020/01/31 03:51:41.1	93.490	0.250	-0.390	0.920
2020/01/31 03:51:41.2	93.480	0.210	-0.290	0.950
2020/01/31 03:51:41.3	93.460	0.170	-0.180	0.980
2020/01/31 03:51:41.4	93.440	0.120	-0.080	1.010
2020/01/31 03:51:41.5	93.420	0.080	0.020	1.050
2020/01/31 03:51:41.6	93.400	0.030	0.120	1.080
2020/01/31 03:51:41.7	93.390	-0.020	0.220	1.110
2020/01/31 03:51:41.8	93.370	-0.070	0.310	1.140
2020/01/31 03:51:41.9	93.350	-0.110	0.400	1.170
2020/01/31 03:51:42.0	93.330	-0.160	0.470	1.200
2020/01/31 03:51:42.1	93.310	-0.210	0.550	1.230
2020/01/31 03:51:42.2	93.300	-0.250	0.610	1.260
2020/01/31 03:51:42.3	93.280	-0.290	0.660	1.280
2020/01/31 03:51:42.4	93.270	-0.330	0.700	1.300
2020/01/31 03:51:42.5	93.260	-0.360	0.730	1.310
2020/01/31 03:51:42.6	93.250	-0.400	0.750	1.330
2020/01/31 03:51:42.7	93.250	-0.420	0.750	1.340
2020/01/31 03:51:42.8	93.240	-0.450	0.750	1.340
2020/01/31 03:51:42.9	93.240	-0.470	0.730	1.340
2020/01/31 03:51:43.0	93.240	-0.480	0.710	1.340
2020/01/31 03:51:43.1	93.240	-0.490	0.660	1.320
2020/01/31 03:51:43.2	93.250	-0.490	0.620	1.310
2020/01/31 03:51:43.3	93.260	-0.490	0.560	1.300
2020/01/31 03:51:43.4	93.260	-0.490	0.490	1.280
2020/01/31 03:51:43.5	93.270	-0.480	0.420	1.260
2020/01/31 03:51:43.6	93.280	-0.470	0.340	1.240
2020/01/31 03:51:43.7	93.290	-0.450	0.260	1.220
2020/01/31 03:51:43.8	93.300	-0.430	0.170	1.190
2020/01/31 03:51:43.9	93.320	-0.410	0.080	1.160
2020/01/31 03:51:44.0	93.330	-0.380	-0.010	1.140
2020/01/31 03:51:44.1	93.330	-0.350	-0.100	1.120
2020/01/31 03:51:44.2	93.340	-0.320	-0.190	1.090
2020/01/31 03:51:44.3	93.340	-0.290	-0.280	1.070
2020/01/31 03:51:44.4	93.350	-0.250	-0.370	1.050
2020/01/31 03:51:44.5	93.350	-0.220	-0.460	1.020
2020/01/31 03:51:44.6	93.350	-0.180	-0.530	1.000
2020/01/31 03:51:44.7	93.350	-0.150	-0.610	0.990
2020/01/31 03:51:44.8	93.350	-0.120	-0.680	0.970
2020/01/31 03:51:44.9	93.340	-0.080	-0.730	0.950
2020/01/31 03:51:45.0	93.340	-0.050	-0.790	0.940
2020/01/31 03:51:45.1	93.330	-0.030	-0.840	0.920
2020/01/31 03:51:45.2	93.320	0.000	-0.870	0.910
2020/01/31 03:51:45.3	93.310	0.030	-0.900	0.900
2020/01/31 03:51:45.4	93.300	0.050	-0.920	0.890
2020/01/31 03:51:45.5	93.290	0.060	-0.930	0.890
2020/01/31 03:51:45.6	93.270	0.080	-0.930	0.880
2020/01/31 03:51:45.7	93.250	0.090	-0.920	0.880
2020/01/31 03:51:45.8	93.240	0.100	-0.900	0.870
2020/01/31 03:51:45.9	93.220	0.100	-0.870	0.870
2020/01/31 03:51:46.0	93.200	0.100	-0.830	0.870
2020/01/31 03:51:46.1	93.180	0.100	-0.780	0.870
2020/01/31 03:51:46.2	93.160	0.090	-0.730	0.870
2020/01/31 03:51:46.3	93.130	0.080	-0.670	0.870
2020/01/31 03:51:46.4	93.110	0.070	-0.610	0.880
2020/01/31 03:51:46.5	93.090	0.050	-0.540	0.880
2020/01/31 03:51:46.6	93.070	0.030	-0.460	0.880
2020/01/31 03:51:46.7	93.050	0.010	-0.390	0.880
2020/01/31 03:51:46.8	93.030	-0.010	-0.310	0.880
2020/01/31 03:51:46.9	93.000	-0.030	-0.230	0.880
2020/01/31 03:51:47.0	92.990	-0.060	-0.150	0.880
2020/01/31 03:51:47.1	92.970	-0.090	-0.070	0.890
2020/01/31 03:51:47.2	92.950	-0.110	0.000	0.880
2020/01/31 03:51:47.3	92.930	-0.140	0.070	0.880
2020/01/31 03:51:47.4	92.920	-0.160	0.140	0.880
2020/01/31 03:51:47.5	92.910	-0.190	0.200	0.880
2020/01/31 03:51:47.6	92.890	-0.210	0.250	0.870
2020/01/31 03:51:47.7	92.890	-0.230	0.300	0.860
2020/01/31 03:51:47.8	92.880	-0.250	0.340	0.850
2020/01/31 03:51:47.9	92.870	-0.260	0.360	0.840
2020/01/31 03:51:48.0	92.870	-0.270	0.380	0.830
2020/01/31 03:51:48.1	92.870	-0.280	0.390	0.800
2020/01/31 03:51:48.2	92.860	-0.280	0.380	0.790
2020/01/31 03:51:48.3	92.860	-0.280	0.370	0.770
2020/01/31 03:51:48.4	92.870	-0.270	0.350	0.750
2020/01/31 03:51:48.5	92.870	-0.260	0.320	0.730
2020/01/31 03:51:48.6	92.870	-0.240	0.280	0.700
2020/01/31 03:51:48.7	92.880	-0.220	0.230	0.680
2020/01/31 03:51:48.8	92.890	-0.200	0.180	0.660
2020/01/31 03:51:48.9	92.900	-0.170	0.120	0.630
2020/01/31 03:51:49.0	92.900	-0.140	0.060	0.610
2020/01/31 03:51:49.1	92.920	-0.110	-0.010	0.590
2020/01/31 03:51:49.2	92.930	-0.070	-0.070	0.570
2020/01/31 03:51:49.3	92.940	-0.030	-0.140	0.550
2020/01/31 03:51:49.4	92.950	0.010	-0.210	0.540
2020/01/31 03:51:49.5	92.960	0.050	-0.270	0.520
2020/01/31 03:51:49.6	92.970	0.090	-0.330	0.510
2020/01/31 03:51:49.7	92.980	0.130	-0.390	0.500
2020/01/31 03:51:49.8	92.980	0.170	-0.450	0.490
2020/01/31 03:51:49.9	92.990	0.210	-0.500	0.490
2020/01/31 03:51:50.0	93.000	0.250	-0.540	0.490
2020/01/31 03:51:50.1	93.010	0.290	-0.590	0.490
2020/01/31 03:51:50.2	93.010	0.330	-0.620	0.500
2020/01/31 03:51:50.3	93.020	0.360	-0.640	0.510
2020/01/31 03:51:50.4	93.020	0.390	-0.660	0.520
2020/01/31 03:51:50.5	93.020	0.420	-0.670	0.540
2020/01/31 03:51:50.6	93.020	0.440	-0.670	0.560
2020/01/31 03:51:50.7	93.020	0.460	-0.670	0.590
2020/01/31 03:51:50.8	93.020	0.480	-0.650	0.620
2020/01/31 03:51:50.9	93.020	0.490	-0.640	0.650
2020/01/31 03:51:51.0	93.010	0.500	-0.620	0.680
2020/01/31 03:51:51.1	93.010	0.500	-0.580	0.720
2020/01/31 03:51:51.2	93.000	0.500	-0.550	0.760
2020/01/31 03:51:51.3	92.990	0.490	-0.520	0.800
2020/01/31 03:51:51.4	92.980	0.480	-0.480	0.840
2020/01/31 03:51:51.5	92.970	0.460	-0.430	0.890
2020/01/31 03:51:51.6	92.960	0.440	-0.390	0.930
2020/01/31 03:51:51.7	92.940	0.420	-0.340	0.970
2020/01/31 03:51:51.8	92.930	0.390	-0.300	1.010
2020/01/31 03:51:51.9	92.910	0.350	-0.250	1.050
2020/01/31 03:51:52.0	92.890	0.320	-0.200	1.090
2020/01/31 03:51:52.1	92.880	0.280	-0.160	1.130
2020/01/31 03:51:52.2	92.860	0.240	-0.120	1.160
2020/01/31 03:51:52.3	92.840	0.190	-0.080	1.200
2020/01/31 03:51:52.4	92.830	0.150	-0.040	1.230
2020/01/31 03:51:52.5	92.810	0.100	-0.010	1.250
2020/01/31 03:51:52.6	92.790	0.050	0.020	1.280
2020/01/31 03:51:52.7	92.760	0.000	0.040	1.300
2020/01/31 03:51:52.8	92.740	-0.040	0.060	1.320
2020/01/31 03:51:52.9	92.720	-0.090	0.080	1.340
2020/01/31 03:51:53.0	92.700	-0.140	0.090	1.350
2020/01/31 03:51:53.1	92.690	-0.180	0.100	1.360
2020/01/31 03:51:53.2	92.670	-0.220	0.100	1.370
2020/01/31 03:51:53.3	92.650	-0.260	0.090	1.380
2020/01/31 03:51:53.4	92.630	-0.290	0.080	1.380
2020/01/31 03:51:53.5	92.610	-0.320	0.060	1.380
2020/01/31 03:51:53.6	92.600	-0.350	0.040	1.370
2020/01/31 03:51:53.7	92.580	-0.380	0.020	1.370
2020/01/31 03:51:53.8	92.570	-0.390	-0.010	1.360
2020/01/31 03:51:53.9	92.550	-0.410	-0.040	1.350
2020/01/31 03:51:54.0	92.540	-0.420	-0.080	1.330
2020/01/31 03:51:54.1	92.520	-0.420	-0.120	1.320
2020/01/31 03:51:54.2	92.510	-0.420	-0.170	1.300
2020/01/31 03:51:54.3	92.500	-0.420	-0.210	1.280
2020/01/31 03:51:54.4	92.490	-0.410	-0.260	1.260
2020/01/31 03:51:54.5	92.480	-0.400	-0.310	1.240
2020/01/31 03:51:54.6	92.470	-0.380	-0.360	1.220
2020/01/31 03:51:54.7	92.470	-0.360	-0.410	1.200
2020/01/31 03:51:54.8	92.460	-0.330	-0.460	1.170
2020/01/31 03:51:54.9	92.460	-0.300	-0.500	1.140
2020/01/31 03:51:55.0	92.450	-0.270	-0.550	1.120
2020/01/31 03:51:55.1	92.440	-0.230	-0.600	1.090
2020/01/31 03:51:55.2	92.440	-0.200	-0.640	1.060
2020/01/31 03:51:55.3	92.440	-0.160	-0.680	1.030
2020/01/31 03:51:55.4	92.450	-0.110	-0.720	1.000
2020/01/31 03:51:55.5	92.450	-0.070	-0.750	0.970
2020/01/31 03:51:55.6	92.460	-0.030	-0.770	0.940
2020/01/31 03:51:55.7	92.460	0.010	-0.790	0.920
2020/01/31 03:51:55.8	92.470	0.060	-0.810	0.890
2020/01/31 03:51:55.9	92.470	0.100	-0.810	0.870
2020/01/31 03:51:56.0	92.480	0.140	-0.820	0.850
2020/01/31 03:51:56.1	92.480	0.180	-0.810	0.830
2020/01/31 03:51:56.2	92.480	0.220	-0.790	0.810
2020/01/31 03:51:56.3	92.490	0.250	-0.770	0.800
2020/01/31 03:51:56.4	92.490	0.290	-0.740	0.790
2020/01/31 03:51:56.5	92.490	0.320	-0.710	0.780
2020/01/31 03:51:56.6	92.490	0.350	-0.660	0.770
2020/01/31 03:51:56.7	92.490	0.370	-0.620	0.770
2020/01/31 03:51:56.8	92.480	0.390	-0.560	0.770
2020/01/31 03:51:56.9	92.480	0.410	-0.500	0.770
2020/01/31 03:51:57.0	92.470	0.420	-0.440	0.780
2020/01/31 03:51:57.1	92.450	0.430	-0.370	0.790
2020/01/31 03:51:57.2	92.440	0.440	-0.300	0.790
2020/01/31 03:51:57.3	92.430	0.440	-0.230	0.800
2020/01/31 03:51:57.4	92.420	0.440	-0.150	0.810
2020/01/31 03:51:57.5	92.410	0.440	-0.070	0.830
2020/01/31 03:51:57.6	92.400	0.430	0.000	0.840
2020/01/31 03:51:57.7	92.390	0.420	0.080	0.850
2020/01/31 03:51:57.8	92.380	0.410	0.150	0.860
2020/01/31 03:51:57.9	92.370	0.390	0.210	0.880
2020/01/31 03:51:58.0	92.360	0.370	0.280	0.890
2020/01/31 03:51:58.1	92.350	0.350	0.340	0.900
2020/01/31 03:51:58.2	92.350	0.330	0.390	0.920
2020/01/31 03:51:58.3	92.340	0.300	0.430	0.930
2020/01/31 03:51:58.4	92.340	0.280	0.470	0.950
2020/01/31 03:51:58.5	92.330	0.260	0.500	0.960
2020/01/31 03:51:58.6	92.330	0.230	0.510	0.970
2020/01/31 03:51:58.7	92.330	0.200	0.520	0.980
2020/01/31 03:51:58.8	92.330	0.180	0.520	0.990
2020/01/31 03:51:58.9	92.330	0.160	0.510	1.000
2020/01/31 03:51:59.0	92.330	0.130	0.490	1.010
2020/01/31 03:51:59.1	92.340	0.110	0.460	1.020
2020/01/31 03:51:59.2	92.350	0.090	0.430	1.020
2020/01/31 03:51:59.3	92.350	0.070	0.390	1.030
2020/01/31 03:51:59.4	92.360	0.050	0.340	1.030
2020/01/31 03:51:59.5	92.370	0.040	0.280	1.030
2020/01/31 03:51:59.6	92.390	0.020	0.220	1.020
2020/01/31 03:51:59.7	92.400	0.010	0.160	1.020
2020/01/31 03:51:59.8	92.420	-0.010	0.090	1.010
2020/01/31 03:51:59.9	92.430	-0.020	0.020	1.000
2020/01/31 03:52:00.0	92.450	-0.030	-0.050	0.990
2020/01/31 03:52:00.1	92.470	-0.030	-0.120	0.980
2020/01/31 03:52:00.2	92.490	-0.040	-0.190	0.970
2020/01/31 03:52:00.3	92.510	-0.050	-0.250	0.960
2020/01/31 03:52:00.4	92.530	-0.050	-0.310	0.950
2020/01/31 03:52:00.5	92.540	-0.060	-0.370	0.940
2020/01/31 03:52:00.6	92.560	-0.060	-0.420	0.930
2020/01/31 03:52:00.7	92.570	-0.060	-0.470	0.930
2020/01/31 03:52:00.8	92.590	-0.070	-0.510	0.920
2020/01/31 03:52:00.9	92.600	-0.070	-0.550	0.920
2020/01/31 03:52:01.0	92.610	-0.070	-0.570	0.920
2020/01/31 03:52:01.1	92.610	-0.070	-0.600	0.920
2020/01/31 03:52:01.2	92.610	-0.070	-0.610	0.930
2020/01/31 03:52:01.3	92.610	-0.070	-0.620	0.940
2020/01/31 03:52:01.4	92.610	-0.080	-0.630	0.960
2020/01/31 03:52:01.5	92.600	-0.080	-0.630	0.970
2020/01/31 03:52:01.6	92.600	-0.080	-0.620	1.000
2020/01/31 03:52:01.7	92.580	-0.080	-0.610	1.020
2020/01/31 03:52:01.8	92.570	-0.080	-0.590	1.050
2020/01/31 03:52:01.9	92.550	-0.090	-0.570	1.080
2020/01/31 03:52:02.0	92.530	-0.090	-0.540	1.110
2020/01/31 03:52:02.1	92.520	-0.090	-0.520	1.140
2020/01/31 03:52:02.2	92.500	-0.100	-0.490	1.170
2020/01/31 03:52:02.3	92.470	-0.100	-0.460	1.200
2020/01/31 03:52:02.4	92.450	-0.110	-0.420	1.240
2020/01/31 03:52:02.5	92.430	-0.110	-0.390	1.270
2020/01/31 03:52:02.6	92.410	-0.120	-0.350	1.300
2020/01/31 03:52:02.7	92.390	-0.130	-0.320	1.330
2020/01/31 03:52:02.8	92.370	-0.140	-0.290	1.360
2020/01/31 03:52:02.9	92.350	-0.150	-0.250	1.390
2020/01/31 03:52:03.0	92.330	-0.160	-0.220	1.410
2020/01/31 03:52:03.1	92.320	-0.170	-0.190	1.440
2020/01/31 03:52:03.2	92.310	-0.180	-0.160	1.460
2020/01/31 03:52:03.3	92.300	-0.190	-0.140	1.480
2020/01/31 03:52:03.4	92.290	-0.200	-0.120	1.500
2020/01/31 03:52:03.5	92.280	-0.210	-0.100	1.510
2020/01/31 03:52:03.6	92.280	-0.220	-0.080	1.520
2020/01/31 03:52:03.7	92.280	-0.230	-0.070	1.530
2020/01/31 03:52:03.8	92.280	-0.240	-0.070	1.540
2020/01/31 03:52:03.9	92.280	-0.240	-0.060	1.540
2020/01/31 03:52:04.0	92.290	-0.250	-0.060	1.530
2020/01/31 03:52:04.1	92.290	-0.260	-0.070	1.530
2020/01/31 03:52:04.2	92.300	-0.270	-0.070	1.520
2020/01/31 03:52:04.3	92.310	-0.270	-0.080	1.510
2020/01/31 03:52:04.4	92.330	-0.280	-0.090	1.490
2020/01/31 03:52:04.5	92.340	-0.280	-0.110	1.470
2020/01/31 03:52:04.6	92.350	-0.280	-0.120	1.440
2020/01/31 03:52:04.7	92.370	-0.280	-0.130	1.410
2020/01/31 03:52:04.8	92.390	-0.280	-0.150	1.370
2020/01/31 03:52:04.9	92.400	-0.280	-0.160	1.330
2020/01/31 03:52:05.0	92.420	-0.280	-0.180	1.290
2020/01/31 03:52:05.1	92.440	-0.280	-0.190	1.240
2020/01/31 03:52:05.2	92.450	-0.280	-0.200	1.190
2020/01/31 03:52:05.3	92.470	-0.270	-0.210	1.140
2020/01/31 03:52:05.4	92.490	-0.270	-0.220	1.090
2020/01/31 03:52:05.5	92.510	-0.260	-0.220	1.040
2020/01/31 03:52:05.6	92.530	-0.260	-0.220	0.980
2020/01/31 03:52:05.7	92.540	-0.250	-0.220	0.930
2020/01/31 03:52:05.8	92.560	-0.240	-0.210	0.880
2020/01/31 03:52:05.9	92.570	-0.230	-0.200	0.830
2020/01/31 03:52:06.0	92.580	-0.230	-0.190	0.780
2020/01/31 03:52:06.1	92.600	-0.220	-0.180	0.740
2020/01/31 03:52:06.2	92.610	-0.210	-0.160	0.700
2020/01/31 03:52:06.3	92.610	-0.200	-0.150	0.660
2020/01/31 03:52:06.4	92.610	-0.190	-0.130	0.630
2020/01/31 03:52:06.5	92.610	-0.170	-0.110	0.610
2020/01/31 03:52:06.6	92.610	-0.160	-0.100	0.590
2020/01/31 03:52:06.7	92.610	-0.150	-0.080	0.570
2020/01/31 03:52:06.8	92.600	-0.130	-0.070	0.570
2020/01/31 03:52:06.9	92.590	-0.120	-0.060	0.560
2020/01/31 03:52:07.0	92.570	-0.100	-0.060	0.560
2020/01/31 03:52:07.1	92.560	-0.080	-0.060	0.570
2020/01/31 03:52:07.2	92.550	-0.060	-0.060	0.580
2020/01/31 03:52:07.3	92.530	-0.040	-0.070	0.590
2020/01/31 03:52:07.4	92.520	-0.020	-0.090	0.600
2020/01/31 03:52:07.5	92.500	0.000	-0.110	0.610
2020/01/31 03:52:07.6	92.490	0.020	-0.130	0.620
2020/01/31 03:52:07.7	92.480	0.050	-0.170	0.640
2020/01/31 03:52:07.8	92.470	0.080	-0.200	0.650
2020/01/31 03:52:07.9	92.460	0.100	-0.250	0.660
2020/01/31 03:52:08.0	92.450	0.130	-0.300	0.670
2020/01/31 03:52:08.1	92.450	0.160	-0.350	0.670
2020/01/31 03:52:08.2	92.440	0.190	-0.410	0.670
2020/01/31 03:52:08.3	92.440	0.220	-0.470	0.680
2020/01/31 03:52:08.4	92.440	0.260	-0.530	0.680
2020/01/31 03:52:08.5	92.440	0.290	-0.590	0.670
2020/01/31 03:52:08.6	92.450	0.320	-0.650	0.670
2020/01/31 03:52:08.7	92.450	0.350	-0.720	0.660
2020/01/31 03:52:08.8	92.450	0.380	-0.780	0.650
2020/01/31 03:52:08.9	92.460	0.400	-0.830	0.630
2020/01/31 03:52:09.0	92.470	0.430	-0.880	0.610
2020/01/31 03:52:09.1	92.480	0.450	-0.930	0.590
2020/01/31 03:52:09.2	92.480	0.470	-0.970	0.570
2020/01/31 03:52:09.3	92.490	0.490	-1.010	0.550
2020/01/31 03:52:09.4	92.500	0.510	-1.030	0.520
2020/01/31 03:52:09.5	92.510	0.520	-1.050	0.500
2020/01/31 03:52:09.6	92.520	0.530	-1.050	0.470
2020/01/31 03:52:09.7	92.530	0.540	-1.050	0.450
2020/01/31 03:52:09.8	92.540	0.540	-1.030	0.430
2020/01/31 03:52:09.9	92.550	0.540	-1.000	0.410
2020/01/31 03:52:10.0	92.560	0.540	-0.970	0.390
2020/01/31 03:52:10.1	92.580	0.530	-0.920	0.370
2020/01/31 03:52:10.2	92.590	0.520	-0.860	0.360
2020/01/31 03:52:10.3	92.590	0.500	-0.790	0.360
2020/01/31 03:52:10.4	92.600	0.480	-0.710	0.360
2020/01/31 03:52:10.5	92.610	0.460	-0.620	0.360
2020/01/31 03:52:10.6	92.620	0.430	-0.520	0.370
2020/01/31 03:52:10.7	92.630	0.400	-0.420	0.380
2020/01/31 03:52:10.8	92.630	0.370	-0.320	0.390
2020/01/31 03:52:10.9	92.640	0.330	-0.210	0.410
2020/01/31 03:52:11.0	92.640	0.290	-0.090	0.440
2020/01/31 03:52:11.1	92.650	0.250	0.020	0.470
2020/01/31 03:52:11.2	92.650	0.210	0.130	0.500
2020/01/31 03:52:11.3	92.660	0.160	0.240	0.530
2020/01/31 03:52:11.4	92.660	0.110	0.350	0.570
2020/01/31 03:52:11.5	92.660	0.070	0.450	0.600
2020/01/31 03:52:11.6	92.660	0.020	0.540	0.640
2020/01/31 03:52:11.7	92.660	-0.020	0.630	0.680
2020/01/31 03:52:11.8	92.660	-0.070	0.710	0.710
2020/01/31 03:52:11.9	92.660	-0.120	0.780	0.740
2020/01/31 03:52:12.0	92.650	-0.160	0.840	0.770
2020/01/31 03:52:12.1	92.640	-0.200	0.890	0.800
2020/01/31 03:52:12.2	92.640	-0.240	0.930	0.830
2020/01/31 03:52:12.3	92.640	-0.280	0.950	0.850
2020/01/31 03:52:12.4	92.640	-0.310	0.970	0.870
2020/01/31 03:52:12.5	92.640	-0.340	0.970	0.880
2020/01/31 03:52:12.6	92.640	-0.370	0.960	0.890
2020/01/31 03:52:12.7	92.640	-0.400	0.930	0.900
2020/01/31 03:52:12.8	92.640	-0.420	0.900	0.900
2020/01/31 03:52:12.9	92.640	-0.430	0.850	0.910
2020/01/31 03:52:13.0	92.640	-0.440	0.790	0.900
2020/01/31 03:52:13.1	92.640	-0.450	0.720	0.900
2020/01/31 03:52:13.2	92.640	-0.450	0.630	0.890
2020/01/31 03:52:13.3	92.640	-0.450	0.540	0.880
2020/01/31 03:52:13.4	92.640	-0.440	0.450	0.870
2020/01/31 03:52:13.5	92.640	-0.420	0.340	0.860
2020/01/31 03:52:13.6	92.640	-0.410	0.230	0.860
2020/01/31 03:52:13.7	92.640	-0.380	0.110	0.850
2020/01/31 03:52:13.8	92.640	-0.360	-0.010	0.840
2020/01/31 03:52:13.9	92.640	-0.330	-0.130	0.830
2020/01/31 03:52:14.0	92.650	-0.290	-0.250	0.820
2020/01/31 03:52:14.1	92.640	-0.250	-0.380	0.820
2020/01/31 03:52:14.2	92.640	-0.210	-0.500	0.810
2020/01/31 03:52:14.3	92.650	-0.170	-0.610	0.810
2020/01/31 03:52:14.4	92.650	-0.130	-0.720	0.810
2020/01/31 03:52:14.5	92.650	-0.080	-0.820	0.810
2020/01/31 03:52:14.6	92.650	-0.030	-0.920	0.810
2020/01/31 03:52:14.7	92.650	0.010	-1.000	0.820
2020/01/31 03:52:14.8	92.660	0.060	-1.080	0.820
2020/01/31 03:52:14.9	92.660	0.100	-1.140	0.820
2020/01/31 03:52:15.0	92.660	0.140	-1.190	0.830
2020/01/31 03:52:15.1	92.680	0.180	-1.240	0.830
2020/01/31 03:52:15.2	92.680	0.220	-1.260	0.830
2020/01/31 03:52:15.3	92.690	0.250	-1.270	0.830
2020/01/31 03:52:15.4	92.700	0.280	-1.270	0.830
2020/01/31 03:52:15.5	92.710	0.310	-1.260	0.830
2020/01/31 03:52:15.6	92.720	0.330	-1.230	0.830
2020/01/31 03:52:15.7	92.730	0.350	-1.190	0.830
2020/01/31 03:52:15.8	92.740	0.360	-1.150	0.830
2020/01/31 03:52:15.9	92.750	0.370	-1.090	0.820
2020/01/31 03:52:16.0	92.750	0.370	-1.020	0.820
2020/01/31 03:52:16.1	92.760	0.360	-0.940	0.810
2020/01/31 03:52:16.2	92.770	0.360	-0.860	0.800
2020/01/31 03:52:16.3	92.780	0.340	-0.770	0.790
2020/01/31 03:52:16.4	92.790	0.330	-0.670	0.780
2020/01/31 03:52:16.5	92.800	0.300	-0.580	0.770
2020/01/31 03:52:16.6	92.810	0.280	-0.480	0.760
2020/01/31 03:52:16.7	92.820	0.250	-0.380	0.750
2020/01/31 03:52:16.8	92.830	0.220	-0.280	0.740
2020/01/31 03:52:16.9	92.840	0.180	-0.180	0.730
2020/01/31 03:52:17.0	92.840	0.140	-0.080	0.720
2020/01/31 03:52:17.1	92.850	0.110	0.010	0.720
2020/01/31 03:52:17.2	92.850	0.070	0.090	0.710
2020/01/31 03:52:17.3	92.860	0.030	0.170	0.710
2020/01/31 03:52:17.4	92.860	-0.010	0.240	0.700
2020/01/31 03:52:17.5	92.870	-0.050	0.310	0.700
2020/01/31 03:52:17.6	92.870	-0.080	0.360	0.700
2020/01/31 03:52:17.7	92.870	-0.120	0.410	0.700
2020/01/31 03:52:17.8	92.880	-0.150	0.440	0.700
2020/01/31 03:52:17.9	92.880	-0.180	0.470	0.700
2020/01/31 03:52:18.0	92.880	-0.210	0.490	0.700
2020/01/31 03:52:18.1	92.880	-0.230	0.500	0.710
2020/01/31 03:52:18.2	92.880	-0.250	0.500	0.710
2020/01/31 03:52:18.3	92.880	-0.270	0.500	0.710
2020/01/31 03:52:18.4	92.880	-0.290	0.480	0.720
2020/01/31 03:52:18.5	92.870	-0.300	0.460	0.730
2020/01/31 03:52:18.6	92.870	-0.310	0.430	0.740
2020/01/31 03:52:18.7	92.860	-0.320	0.400	0.750
2020/01/31 03:52:18.8	92.850	-0.320	0.360	0.760
2020/01/31 03:52:18.9	92.840	-0.320	0.320	0.770
2020/01/31 03:52:19.0	92.830	-0.320	0.270	0.780
2020/01/31 03:52:19.1	92.820	-0.320	0.210	0.790
2020/01/31 03:52:19.2	92.810	-0.320	0.160	0.800
2020/01/31 03:52:19.3	92.790	-0.310	0.110	0.810
2020/01/31 03:52:19.4	92.770	-0.300	0.060	0.820
2020/01/31 03:52:19.5	92.760	-0.300	0.010	0.840
2020/01/31 03:52:19.6	92.740	-0.290	-0.050	0.840
2020/01/31 03:52:19.7	92.720	-0.280	-0.100	0.850
2020/01/31 03:52:19.8	92.700	-0.270	-0.150	0.860
2020/01/31 03:52:19.9	92.680	-0.260	-0.190	0.860
2020/01/31 03:52:20.0	92.670	-0.260	-0.240	0.870
2020/01/31 03:52:20.1	92.640	-0.250	-0.280	0.870
2020/01/31 03:52:20.2	92.630	-0.240	-0.320	0.870
2020/01/31 03:52:20.3	92.610	-0.230	-0.360	0.870
2020/01/31 03:52:20.4	92.600	-0.230	-0.390	0.870
2020/01/31 03:52:20.5	92.590	-0.220	-0.420	0.870
2020/01/31 03:52:20.6	92.580	-0.210	-0.440	0.860
2020/01/31 03:52:20.7	92.580	-0.210	-0.460	0.850
2020/01/31 03:52:20.8	92.570	-0.200	-0.480	0.850
2020/01/31 03:52:20.9	92.570	-0.200	-0.500	0.840
2020/01/31 03:52:21.0	92.570	-0.200	-0.510	0.830
2020/01/31 03:52:21.1	92.570	-0.190	-0.510	0.820
2020/01/31 03:52:21.2	92.570	-0.190	-0.520	0.820
2020/01/31 03:52:21.3	92.580	-0.190	-0.520	0.810
2020/01/31 03:52:21.4	92.590	-0.180	-0.520	0.800
2020/01/31 03:52:21.5	92.600	-0.180	-0.520	0.800
2020/01/31 03:52:21.6	92.610	-0.180	-0.520	0.800
2020/01/31 03:52:21.7	92.620	-0.170	-0.510	0.790
2020/01/31 03:52:21.8	92.630	-0.170	-0.500	0.790
2020/01/31 03:52:21.9	92.650	-0.160	-0.500	0.790
2020/01/31 03:52:22.0	92.660	-0.160	-0.490	0.790
2020/01/31 03:52:22.1	92.680	-0.150	-0.480	0.790
2020/01/31 03:52:22.2	92.700	-0.140	-0.470	0.790
2020/01/31 03:52:22.3	92.710	-0.130	-0.460	0.790
2020/01/31 03:52:22.4	92.730	-0.120	-0.440	0.790
2020/01/31 03:52:22.5	92.740	-0.110	-0.430	0.790
2020/01/31 03:52:22.6	92.760	-0.100	-0.420	0.790
2020/01/31 03:52:22.7	92.770	-0.090	-0.400	0.790
2020/01/31 03:52:22.8	92.780	-0.080	-0.390	0.780
2020/01/31 03:52:22.9	92.790	-0.060	-0.380	0.780
2020/01/31 03:52:23.0	92.800	-0.050	-0.360	0.770
2020/01/31 03:52:23.1	92.820	-0.030	-0.350	0.760
2020/01/31 03:52:23.2	92.820	-0.020	-0.340	0.750
2020/01/31 03:52:23.3	92.820	-0.000	-0.330	0.740
2020/01/31 03:52:23.4	92.830	0.020	-0.320	0.740
2020/01/31 03:52:23.5	92.820	0.040	-0.310	0.730
2020/01/31 03:52:23.6	92.820	0.060	-0.300	0.720
2020/01/31 03:52:23.7	92.810	0.080	-0.290	0.720
2020/01/31 03:52:23.8	92.800	0.100	-0.290	0.710
2020/01/31 03:52:23.9	92.790	0.120	-0.280	0.710
2020/01/31 03:52:24.0	92.780	0.150	-0.280	0.700
2020/01/31 03:52:24.1	92.750	0.170	-0.280	0.700
2020/01/31 03:52:24.2	92.740	0.200	-0.280	0.700
2020/01/31 03:52:24.3	92.720	0.230	-0.290	0.710
2020/01/31 03:52:24.4	92.700	0.260	-0.290	0.710
2020/01/31 03:52:24.5	92.680	0.280	-0.300	0.720
2020/01/31 03:52:24.6	92.650	0.310	-0.300	0.730
2020/01/31 03:52:24.7	92.630	0.340	-0.310	0.750
2020/01/31 03:52:24.8	92.610	0.370	-0.320	0.760
2020/01/31 03:52:24.9	92.590	0.400	-0.330	0.780
2020/01/31 03:52:25.0	92.580	0.430	-0.350	0.800
2020/01/31 03:52:25.1	92.550	0.460	-0.360	0.820
2020/01/31 03:52:25.2	92.540	0.490	-0.370	0.840
2020/01/31 03:52:25.3	92.520	0.520	-0.380	0.870
2020/01/31 03:52:25.4	92.510	0.540	-0.400	0.890
2020/01/31 03:52:25.5	92.500	0.560	-0.410	0.920
2020/01/31 03:52:25.6	92.490	0.590	-0.420	0.940
2020/01/31 03:52:25.7	92.480	0.600	-0.430	0.970
2020/01/31 03:52:25.8	92.480	0.620	-0.440	0.990
2020/01/31 03:52:25.9	92.470	0.630	-0.450	1.020
2020/01/31 03:52:26.0	92.470	0.640	-0.450	1.040
2020/01/31 03:52:26.1	92.450	0.650	-0.450	1.060
2020/01/31 03:52:26.2	92.450	0.650	-0.460	1.080
2020/01/31 03:52:26.3	92.450	0.650	-0.450	1.090
2020/01/31 03:52:26.4	92.440	0.650	-0.450	1.110
2020/01/31 03:52:26.5	92.440	0.640	-0.440	1.120
2020/01/31 03:52:26.6	92.430	0.630	-0.430	1.120
2020/01/31 03:52:26.7	92.430	0.610	-0.410	1.130
2020/01/31 03:52:26.8	92.420	0.590	-0.390	1.130
2020/01/31 03:52:26.9	92.410	0.570	-0.370	1.130
2020/01/31 03:52:27.0	92.410	0.540	-0.340	1.120
2020/01/31 03:52:27.1	92.400	0.510	-0.310	1.120
2020/01/31 03:52:27.2	92.390	0.480	-0.270	1.110
2020/01/31 03:52:27.3	92.380	0.450	-0.230	1.100
2020/01/31 03:52:27.4	92.370	0.410	-0.180	1.100
2020/01/31 03:52:27.5	92.360	0.370	-0.130	1.090
2020/01/31 03:52:27.6	92.350	0.320	-0.080	1.080
2020/01/31 03:52:27.7	92.340	0.270	-0.020	1.070
2020/01/31 03:52:27.8	92.330	0.230	0.040	1.070
2020/01/31 03:52:27.9	92.320	0.170	0.100	1.060
2020/01/31 03:52:28.0	92.320	0.120	0.170	1.060
2020/01/31 03:52:28.1	92.320	0.070	0.230	1.050
2020/01/31 03:52:28.2	92.310	0.010	0.290	1.050
2020/01/31 03:52:28.3	92.310	-0.040	0.360	1.050
2020/01/31 03:52:28.4	92.310	-0.100	0.420	1.040
2020/01/31 03:52:28.5	92.310	-0.160	0.470	1.040
2020/01/31 03:52:28.6	92.310	-0.210	0.520	1.040
2020/01/31 03:52:28.7	92.310	-0.270	0.570	1.040
2020/01/31 03:52:28.8	92.320	-0.320	0.610	1.040
2020/01/31 03:52:28.9	92.330	-0.370	0.640	1.040
2020/01/31 03:52:29.0	92.340	-0.420	0.670	1.040
2020/01/31 03:52:29.1	92.340	-0.470	0.690	1.040
2020/01/31 03:52:29.2	92.360	-0.520	0.700	1.040
2020/01/31 03:52:29.3	92.370	-0.560	0.700	1.040
2020/01/31 03:52:29.4	92.390	-0.600	0.690	1.050
2020/01/31 03:52:29.5	92.410	-0.630	0.680	1.050
2020/01/31 03:52:29.6	92.430	-0.660	0.650	1.050
2020/01/31 03:52:29.7	92.460	-0.690	0.610	1.060
2020/01/31 03:52:29.8	92.480	-0.710	0.570	1.060
2020/01/31 03:52:29.9	92.500	-0.720	0.510	1.060
2020/01/31 03:52:30.0	92.530	-0.730	0.450	1.070
2020/01/31 03:52:30.1	92.560	-0.740	0.370	1.070
2020/01/31 03:52:30.2	92.580	-0.740	0.290	1.070
2020/01/31 03:52:30.3	92.610	-0.730	0.200	1.080
2020/01/31 03:52:30.4	92.630	-0.720	0.110	1.080
2020/01/31 03:52:30.5	92.660	-0.700	0.010	1.080
2020/01/31 03:52:30.6	92.680	-0.680	-0.100	1.080
2020/01/31 03:52:30.7	92.710	-0.660	-0.210	1.080
2020/01/31 03:52:30.8	92.730	-0.630	-0.320	1.090
2020/01/31 03:52:30.9	92.750	-0.590	-0.430	1.090
2020/01/31 03:52:31.0	92.770	-0.550	-0.540	1.090
2020/01/31 03:52:31.1	92.780	-0.510	-0.650	1.090
2020/01/31 03:52:31.2	92.790	-0.470	-0.750	1.100
2020/01/31 03:52:31.3	92.800	-0.420	-0.850	1.110
2020/01/31 03:52:31.4	92.810	-0.380	-0.950	1.110
2020/01/31 03:52:31.5	92.810	-0.330	-1.030	1.120
2020/01/31 03:52:31.6	92.810	-0.280	-1.110	1.130
2020/01/31 03:52:31.7	92.810	-0.230	-1.180	1.140
2020/01/31 03:52:31.8	92.800	-0.180	-1.240	1.160
2020/01/31 03:52:31.9	92.790	-0.140	-1.290	1.170
2020/01/31 03:52:32.0	92.780	-0.090	-1.320	1.180
2020/01/31 03:52:32.1	92.760	-0.050	-1.350	1.200
2020/01/31 03:52:32.2	92.740	-0.010	-1.360	1.220
2020/01/31 03:52:32.3	92.720	0.020	-1.360	1.230
2020/01/31 03:52:32.4	92.700	0.060	-1.350	1.260
2020/01/31 03:52:32.5	92.680	0.080	-1.320	1.280
2020/01/31 03:52:32.6	92.650	0.110	-1.280	1.300
2020/01/31 03:52:32.7	92.620	0.130	-1.240	1.330
2020/01/31 03:52:32.8	92.600	0.140	-1.180	1.360
2020/01/31 03:52:32.9	92.570	0.150	-1.110	1.380
2020/01/31 03:52:33.0	92.540	0.160	-1.040	1.410
2020/01/31 03:52:33.1	92.510	0.170	-0.950	1.450
2020/01/31 03:52:33.2	92.480	0.170	-0.860	1.470
2020/01/31 03:52:33.3	92.450	0.160	-0.760	1.500
2020/01/31 03:52:33.4	92.420	0.160	-0.660	1.530
2020/01/31 03:52:33.5	92.390	0.150	-0.560	1.550
2020/01/31 03:52:33.6	92.360	0.130	-0.450	1.570
2020/01/31 03:52:33.7	92.340	0.120	-0.350	1.590
2020/01/31 03:52:33.8	92.320	0.100	-0.240	1.600
2020/01/31 03:52:33.9	92.300	0.090	-0.140	1.610
2020/01/31 03:52:34.0	92.280	0.070	-0.050	1.610
2020/01/31 03:52:34.1	92.260	0.050	0.050	1.610
2020/01/31 03:52:34.2	92.250	0.040	0.140	1.600
2020/01/31 03:52:34.3	92.240	0.020	0.210	1.580
2020/01/31 03:52:34.4	92.230	0.010	0.290	1.560
2020/01/31 03:52:34.5	92.220	-0.010	0.350	1.530
2020/01/31 03:52:34.6	92.210	-0.010	0.400	1.500
2020/01/31 03:52:34.7	92.210	-0.020	0.440	1.450
2020/01/31 03:52:34.8	92.210	-0.030	0.470	1.410
2020/01/31 03:52:34.9	92.220	-0.030	0.500	1.350
2020/01/31 03:52:35.0	92.220	-0.030	0.510	1.290
2020/01/31 03:52:35.1	92.220	-0.020	0.510	1.230
2020/01/31 03:52:35.2	92.230	-0.010	0.500	1.160
2020/01/31 03:52:35.3	92.250	-0.000	0.480	1.090
2020/01/31 03:52:35.4	92.260	0.010	0.450	1.010
2020/01/31 03:52:35.5	92.280	0.030	0.420	0.930
2020/01/31 03:52:35.6	92.300	0.050	0.370	0.850
2020/01/31 03:52:35.7	92.320	0.070	0.320	0.770
2020/01/31 03:52:35.8	92.340	0.100	0.260	0.690
2020/01/31 03:52:35.9	92.370	0.120	0.190	0.610
2020/01/31 03:52:36.0	92.390	0.150	0.130	0.540
2020/01/31 03:52:36.1	92.420	0.180	0.050	0.460
2020/01/31 03:52:36.2	92.450	0.210	-0.030	0.380
2020/01/31 03:52:36.3	92.470	0.240	-0.100	0.320
2020/01/31 03:52:36.4	92.490	0.270	-0.170	0.260
2020/01/31 03:52:36.5	92.520	0.310	-0.250	0.200
2020/01/31 03:52:36.6	92.540	0.330	-0.320	0.150
2020/01/31 03:52:36.7	92.560	0.360	-0.380	0.100
2020/01/31 03:52:36.8	92.570	0.390	-0.440	0.070
2020/01/31 03:52:36.9	92.590	0.410	-0.490	0.040
2020/01/31 03:52:37.0	92.600	0.430	-0.540	0.010
2020/01/31 03:52:37.1	92.610	0.450	-0.580	-0.000
2020/01/31 03:52:37.2	92.620	0.470	-0.610	-0.010
2020/01/31 03:52:37.3	92.620	0.480	-0.640	-0.010
2020/01/31 03:52:37.4	92.620	0.490	-0.650	-0.010
2020/01/31 03:52:37.5	92.620	0.490	-0.660	0.010
2020/01/31 03:52:37.6	92.610	0.490	-0.660	0.020
2020/01/31 03:52:37.7	92.610	0.490	-0.650	0.050
2020/01/31 03:52:37.8	92.600	0.480	-0.630	0.080
2020/01/31 03:52:37.9	92.580	0.470	-0.610	0.110
2020/01/31 03:52:38.0	92.570	0.460	-0.580	0.150
2020/01/31 03:52:38.1	92.560	0.440	-0.540	0.190
2020/01/31 03:52:38.2	92.540	0.420	-0.500	0.230
2020/01/31 03:52:38.3	92.520	0.400	-0.450	0.280
2020/01/31 03:52:38.4	92.500	0.370	-0.400	0.330
2020/01/31 03:52:38.5	92.480	0.340	-0.350	0.380
2020/01/31 03:52:38.6	92.460	0.310	-0.290	0.430
2020/01/31 03:52:38.7	92.430	0.270	-0.230	0.490
2020/01/31 03:52:38.8	92.410	0.230	-0.180	0.540
2020/01/31 03:52:38.9	92.380	0.200	-0.120	0.590
2020/01/31 03:52:39.0	92.360	0.160	-0.060	0.650
2020/01/31 03:52:39.1	92.330	0.120	-0.010	0.700
2020/01/31 03:52:39.2	92.310	0.080	0.040	0.750
2020/01/31 03:52:39.3	92.290	0.040	0.090	0.800
2020/01/31 03:52:39.4	92.260	-0.010	0.130	0.840
2020/01/31 03:52:39.5	92.240	-0.040	0.160	0.880
2020/01/31 03:52:39.6	92.220	-0.080	0.200	0.920
2020/01/31 03:52:39.7	92.200	-0.120	0.220	0.960
2020/01/31 03:52:39.8	92.190	-0.150	0.240	0.990
2020/01/31 03:52:39.9	92.170	-0.190	0.250	1.020
2020/01/31 03:52:40.0	92.160	-0.220	0.250	1.050
2020/01/31 03:52:40.1	92.150	-0.250	0.250	1.070
2020/01/31 03:52:40.2	92.150	-0.270	0.240	1.080
2020/01/31 03:52:40.3	92.140	-0.300	0.220	1.100
2020/01/31 03:52:40.4	92.140	-0.320	0.200	1.110
2020/01/31 03:52:40.5	92.140	-0.330	0.180	1.120
2020/01/31 03:52:40.6	92.140	-0.350	0.150	1.120
2020/01/31 03:52:40.7	92.150	-0.360	0.110	1.120
2020/01/31 03:52:40.8	92.150	-0.370	0.070	1.120
2020/01/31 03:52:40.9	92.160	-0.370	0.030	1.120
2020/01/31 03:52:41.0	92.180	-0.380	-0.020	1.110
2020/01/31 03:52:41.1	92.200	-0.380	-0.070	1.100
2020/01/31 03:52:41.2	92.210	-0.370	-0.120	1.090
2020/01/31 03:52:41.3	92.230	-0.370	-0.170	1.080
2020/01/31 03:52:41.4	92.250	-0.360	-0.220	1.070
2020/01/31 03:52:41.5	92.260	-0.350	-0.280	1.060
2020/01/31 03:52:41.6	92.280	-0.340	-0.330	1.050
2020/01/31 03:52:41.7	92.300	-0.320	-0.380	1.030
2020/01/31 03:52:41.8	92.320	-0.310	-0.430	1.020
2020/01/31 03:52:41.9	92.340	-0.290	-0.480	1.010
2020/01/31 03:52:42.0	92.360	-0.270	-0.520	1.000
2020/01/31 03:52:42.1	92.370	-0.250	-0.560	0.990
2020/01/31 03:52:42.2	92.380	-0.230	-0.600	0.990
2020/01/31 03:52:42.3	92.400	-0.210	-0.630	0.980
2020/01/31 03:52:42.4	92.410	-0.190	-0.660	0.980
2020/01/31 03:52:42.5	92.420	-0.170	-0.680	0.980
2020/01/31 03:52:42.6	92.430	-0.150	-0.700	0.980
2020/01/31 03:52:42.7	92.440	-0.140	-0.710	0.980
2020/01/31 03:52:42.8	92.440	-0.120	-0.710	0.990
2020/01/31 03:52:42.9	92.450	-0.100	-0.710	0.990
2020/01/31 03:52:43.0	92.450	-0.090	-0.710	1.000
2020/01/31 03:52:43.1	92.450	-0.080	-0.690	1.010
2020/01/31 03:52:43.2	92.450	-0.060	-0.670	1.010
2020/01/31 03:52:43.3	92.450	-0.060	-0.650	1.020
2020/01/31 03:52:43.4	92.450	-0.050	-0.620	1.030
2020/01/31 03:52:43.5	92.450	-0.040	-0.590	1.050
2020/01/31 03:52:43.6	92.450	-0.040	-0.550	1.060
2020/01/31 03:52:43.7	92.440	-0.040	-0.510	1.070
2020/01/31 03:52:43.8	92.440	-0.040	-0.470	1.080
2020/01/31 03:52:43.9	92.440	-0.040	-0.420	1.090
2020/01/31 03:52:44.0	92.430	-0.040	-0.380	1.100
2020/01/31 03:52:44.1	92.420	-0.040	-0.330	1.110
2020/01/31 03:52:44.2	92.420	-0.050	-0.280	1.120
2020/01/31 03:52:44.3	92.420	-0.060	-0.240	1.130
2020/01/31 03:52:44.4	92.420	-0.060	-0.190	1.140
2020/01/31 03:52:44.5	92.410	-0.070	-0.150	1.150
2020/01/31 03:52:44.6	92.410	-0.080	-0.100	1.150
2020/01/31 03:52:44.7	92.410	-0.080	-0.060	1.160
2020/01/31 03:52:44.8	92.420	-0.090	-0.030	1.160
2020/01/31 03:52:44.9	92.420	-0.100	0.010	1.160
2020/01/31 03:52:45.0	92.420	-0.100	0.030	1.160
2020/01/31 03:52:45.1	92.410	-0.110	0.060	1.160
2020/01/31 03:52:45.2	92.410	-0.110	0.080	1.160
2020/01/31 03:52:45.3	92.420	-0.110	0.100	1.160
2020/01/31 03:52:45.4	92.420	-0.110	0.110	1.150
2020/01/31 03:52:45.5	92.420	-0.110	0.120	1.140
2020/01/31 03:52:45.6	92.420	-0.110	0.130	1.130
2020/01/31 03:52:45.7	92.420	-0.110	0.130	1.120
2020/01/31 03:52:45.8	92.420	-0.100	0.120	1.110
2020/01/31 03:52:45.9	92.420	-0.100	0.120	1.100
2020/01/31 03:52:46.0	92.420	-0.090	0.110	1.080
2020/01/31 03:52:46.1	92.410	-0.080	0.100	1.060
2020/01/31 03:52:46.2	92.410	-0.080	0.080	1.050
2020/01/31 03:52:46.3	92.420	-0.060	0.060	1.030
2020/01/31 03:52:46.4	92.420	-0.050	0.040	1.010
2020/01/31 03:52:46.5	92.420	-0.040	0.020	0.990
2020/01/31 03:52:46.6	92.420	-0.030	-0.000	0.970
2020/01/31 03:52:46.7	92.420	-0.010	-0.030	0.940
2020/01/31 03:52:46.8	92.420	-0.000	-0.060	0.920
2020/01/31 03:52:46.9	92.430	0.020	-0.080	0.890
2020/01/31 03:52:47.0	92.430	0.030	-0.110	0.860
2020/01/31 03:52:47.1	92.430	0.050	-0.140	0.840
2020/01/31 03:52:47.2	92.430	0.060	-0.180	0.810
2020/01/31 03:52:47.3	92.430	0.080	-0.210	0.780
2020/01/31 03:52:47.4	92.430	0.100	-0.240	0.740
2020/01/31 03:52:47.5	92.430	0.120	-0.270	0.710
2020/01/31 03:52:47.6	92.430	0.140	-0.310	0.680
2020/01/31 03:52:47.7	92.430	0.150	-0.340	0.650
2020/01/31 03:52:47.8	92.430	0.170	-0.370	0.610
2020/01/31 03:52:47.9	92.430	0.190	-0.410	0.580
2020/01/31 03:52:48.0	92.430	0.210	-0.440	0.550
2020/01/31 03:52:48.1	92.430	0.230	-0.470	0.520
2020/01/31 03:52:48.2	92.430	0.240	-0.500	0.490
2020/01/31 03:52:48.3	92.430	0.260	-0.530	0.460
2020/01/31 03:52:48.4	92.430	0.280	-0.550	0.430
2020/01/31 03:52:48.5	92.430	0.290	-0.570	0.410
2020/01/31 03:52:48.6	92.430	0.300	-0.590	0.380
2020/01/31 03:52:48.7	92.430	0.320	-0.610	0.370
2020/01/31 03:52:48.8	92.430	0.330	-0.620	0.350
2020/01/31 03:52:48.9	92.420	0.330	-0.620	0.340
2020/01/31 03:52:49.0	92.420	0.340	-0.630	0.340
2020/01/31 03:52:49.1	92.430	0.340	-0.630	0.340
2020/01/31 03:52:49.2	92.430	0.340	-0.620	0.350
2020/01/31 03:52:49.3	92.430	0.340	-0.600	0.360
2020/01/31 03:52:49.4	92.430	0.340	-0.580	0.370
2020/01/31 03:52:49.5	92.430	0.330	-0.560	0.390
2020/01/31 03:52:49.6	92.440	0.320	-0.520	0.420
2020/01/31 03:52:49.7	92.440	0.310	-0.490	0.450
2020/01/31 03:52:49.8	92.440	0.290	-0.440	0.490
2020/01/31 03:52:49.9	92.430	0.270	-0.400	0.520
2020/01/31 03:52:50.0	92.430	0.250	-0.350	0.560
2020/01/31 03:52:50.1	92.430	0.220	-0.290	0.610
2020/01/31 03:52:50.2	92.430	0.200	-0.230	0.650
2020/01/31 03:52:50.3	92.420	0.170	-0.170	0.690
2020/01/31 03:52:50.4	92.420	0.130	-0.110	0.730
2020/01/31 03:52:50.5	92.420	0.100	-0.050	0.780
2020/01/31 03:52:50.6	92.410	0.060	0.020	0.810
2020/01/31 03:52:50.7	92.410	0.020	0.080	0.850
2020/01/31 03:52:50.8	92.410	-0.020	0.140	0.880
2020/01/31 03:52:50.9	92.400	-0.060	0.200	0.900
2020/01/31 03:52:51.0	92.400	-0.100	0.250	0.920
2020/01/31 03:52:51.1	92.400	-0.140	0.300	0.940
2020/01/31 03:52:51.2	92.400	-0.180	0.340	0.950
2020/01/31 03:52:51.3	92.410	-0.220	0.380	0.960
2020/01/31 03:52:51.4	92.410	-0.260	0.410	0.960
2020/01/31 03:52:51.5	92.420	-0.290	0.440	0.960
2020/01/31 03:52:51.6	92.430	-0.330	0.460	0.950
2020/01/31 03:52:51.7	92.440	-0.360	0.470	0.940
2020/01/31 03:52:51.8	92.450	-0.390	0.470	0.920
2020/01/31 03:52:51.9	92.470	-0.420	0.470	0.910
2020/01/31 03:52:52.0	92.490	-0.440	0.450	0.890
2020/01/31 03:52:52.1	92.510	-0.460	0.430	0.870
2020/01/31 03:52:52.2	92.530	-0.470	0.400	0.850
2020/01/31 03:52:52.3	92.550	-0.480	0.360	0.840
2020/01/31 03:52:52.4	92.570	-0.480	0.310	0.820
2020/01/31 03:52:52.5	92.600	-0.480	0.250	0.810
2020/01/31 03:52:52.6	92.620	-0.480	0.190	0.800
2020/01/31 03:52:52.7	92.640	-0.460	0.120	0.790
2020/01/31 03:52:52.8	92.660	-0.450	0.040	0.790
2020/01/31 03:52:52.9	92.680	-0.430	-0.040	0.790
2020/01/31 03:52:53.0	92.700	-0.400	-0.130	0.790
2020/01/31 03:52:53.1	92.720	-0.370	-0.210	0.800
2020/01/31 03:52:53.2	92.740	-0.340	-0.300	0.810
2020/01/31 03:52:53.3	92.750	-0.300	-0.390	0.820
2020/01/31 03:52:53.4	92.760	-0.260	-0.480	0.840
2020/01/31 03:52:53.5	92.770	-0.220	-0.570	0.850
2020/01/31 03:52:53.6	92.780	-0.170	-0.650	0.870
2020/01/31 03:52:53.7	92.780	-0.130	-0.730	0.890
2020/01/31 03:52:53.8	92.780	-0.080	-0.810	0.910
2020/01/31 03:52:53.9	92.780	-0.030	-0.870	0.930
2020/01/31 03:52:54.0	92.780	0.010	-0.930	0.950
2020/01/31 03:52:54.1	92.780	0.060	-0.990	0.970
2020/01/31 03:52:54.2	92.770	0.100	-1.030	0.980
2020/01/31 03:52:54.3	92.760	0.140	-1.070	1.000
2020/01/31 03:52:54.4	92.740	0.180	-1.100	1.020
2020/01/31 03:52:54.5	92.730	0.210	-1.110	1.030
2020/01/31 03:52:54.6	92.720	0.240	-1.120	1.040
2020/01/31 03:52:54.7	92.700	0.270	-1.120	1.050
2020/01/31 03:52:54.8	92.680	0.290	-1.110	1.050
2020/01/31 03:52:54.9	92.670	0.310	-1.090	1.060
2020/01/31 03:52:55.0	92.650	0.330	-1.060	1.070
2020/01/31 03:52:55.1	92.640	0.340	-1.020	1.070
2020/01/31 03:52:55.2	92.620	0.340	-0.980	1.070
2020/01/31 03:52:55.3	92.600	0.350	-0.920	1.070
2020/01/31 03:52:55.4	92.590	0.350	-0.860	1.070
2020/01/31 03:52:55.5	92.570	0.340	-0.790	1.070
2020/01/31 03:52:55.6	92.560	0.330	-0.720	1.070
2020/01/31 03:52:55.7	92.540	0.320	-0.640	1.070
2020/01/31 03:52:55.8	92.530	0.310	-0.560	1.070
2020/01/31 03:52:55.9	92.510	0.290	-0.480	1.070
2020/01/31 03:52:56.0	92.500	0.280	-0.400	1.060
2020/01/31 03:52:56.1	92.480	0.260	-0.310	1.050
2020/01/31 03:52:56.2	92.480	0.240	-0.230	1.050
2020/01/31 03:52:56.3	92.470	0.220	-0.150	1.040
2020/01/31 03:52:56.4	92.460	0.200	-0.070	1.030
2020/01/31 03:52:56.5	92.450	0.180	-0.000	1.020
2020/01/31 03:52:56.6	92.450	0.170	0.060	1.000
2020/01/31 03:52:56.7	92.450	0.150	0.120	0.980
2020/01/31 03:52:56.8	92.450	0.140	0.160	0.960
2020/01/31 03:52:56.9	92.450	0.130	0.210	0.940
2020/01/31 03:52:57.0	92.450	0.120	0.240	0.910
2020/01/31 03:52:57.1	92.450	0.110	0.270	0.880
2020/01/31 03:52:57.2	92.460	0.110	0.290	0.850
2020/01/31 03:52:57.3	92.470	0.110	0.300	0.810
2020/01/31 03:52:57.4	92.470	0.110	0.300	0.770
2020/01/31 03:52:57.5	92.480	0.120	0.300	0.730
2020/01/31 03:52:57.6	92.490	0.130	0.290	0.690
2020/01/31 03:52:57.7	92.500	0.130	0.270	0.650
2020/01/31 03:52:57.8	92.510	0.150	0.250	0.610
2020/01/31 03:52:57.9	92.520	0.160	0.220	0.570
2020/01/31 03:52:58.0	92.540	0.170	0.190	0.530
2020/01/31 03:52:58.1	92.540	0.190	0.160	0.480
2020/01/31 03:52:58.2	92.560	0.200	0.120	0.440
2020/01/31 03:52:58.3	92.570	0.210	0.080	0.400
2020/01/31 03:52:58.4	92.580	0.230	0.050	0.360
2020/01/31 03:52:58.5	92.590	0.240	0.010	0.320
2020/01/31 03:52:58.6	92.600	0.240	-0.020	0.280
2020/01/31 03:52:58.7	92.620	0.250	-0.050	0.250
2020/01/31 03:52:58.8	92.630	0.250	-0.080	0.220
2020/01/31 03:52:58.9	92.640	0.250	-0.100	0.190
2020/01/31 03:52:59.0	92.660	0.250	-0.120	0.160
2020/01/31 03:52:59.1	92.670	0.240	-0.130	0.140
2020/01/31 03:52:59.2	92.680	0.230	-0.150	0.120
2020/01/31 03:52:59.3	92.690	0.210	-0.150	0.110
2020/01/31 03:52:59.4	92.700	0.190	-0.150	0.110
2020/01/31 03:52:59.5	92.710	0.170	-0.150	0.100
2020/01/31 03:52:59.6	92.720	0.140	-0.140	0.100
2020/01/31 03:52:59.7	92.730	0.110	-0.130	0.110
2020/01/31 03:52:59.8	92.740	0.070	-0.120	0.120
2020/01/31 03:52:59.9	92.750	0.030	-0.100	0.130
2020/01/31 03:53:00.0	92.750	-0.010	-0.080	0.150
2020/01/31 03:53:00.1	92.760	-0.050	-0.050	0.170
2020/01/31 03:53:00.2	92.770	-0.100	-0.020	0.190
2020/01/31 03:53:00.3	92.770	-0.150	0.010	0.220
2020/01/31 03:53:00.4	92.780	-0.190	0.040	0.240
2020/01/31 03:53:00.5	92.780	-0.240	0.070	0.270
2020/01/31 03:53:00.6	92.790	-0.290	0.100	0.300
2020/01/31 03:53:00.7	92.790	-0.340	0.140	0.330
2020/01/31 03:53:00.8	92.790	-0.390	0.170	0.360
2020/01/31 03:53:00.9	92.800	-0.440	0.200	0.390
2020/01/31 03:53:01.0	92.800	-0.480	0.230	0.420
2020/01/31 03:53:01.1	92.800	-0.520	0.250	0.450
2020/01/31 03:53:01.2	92.810	-0.560	0.270	0.480
2020/01/31 03:53:01.3	92.810	-0.590	0.290	0.510
2020/01/31 03:53:01.4	92.820	-0.620	0.300	0.530
2020/01/31 03:53:01.5	92.820	-0.640	0.300	0.560
2020/01/31 03:53:01.6	92.830	-0.660	0.300	0.590
2020/01/31 03:53:01.7	92.840	-0.670	0.290	0.610
2020/01/31 03:53:01.8	92.840	-0.680	0.280	0.640
2020/01/31 03:53:01.9	92.850	-0.680	0.250	0.660
2020/01/31 03:53:02.0	92.850	-0.680	0.220	0.680
2020/01/31 03:53:02.1	92.850	-0.670	0.180	0.710
2020/01/31 03:53:02.2	92.850	-0.650	0.140	0.730
2020/01/31 03:53:02.3	92.850	-0.630	0.080	0.750
2020/01/31 03:53:02.4	92.860	-0.600	0.030	0.770
2020/01/31 03:53:02.5	92.860	-0.570	-0.040	0.790
2020/01/31 03:53:02.6	92.860	-0.530	-0.110	0.810
2020/01/31 03:53:02.7	92.860	-0.490	-0.190	0.830
2020/01/31 03:53:02.8	92.850	-0.440	-0.260	0.850
2020/01/31 03:53:02.9	92.850	-0.390	-0.350	0.870
2020/01/31 03:53:03.0	92.840	-0.330	-0.430	0.880
2020/01/31 03:53:03.1	92.840	-0.280	-0.520	0.900
2020/01/31 03:53:03.2	92.830	-0.220	-0.610	0.920
2020/01/31 03:53:03.3	92.820	-0.160	-0.690	0.940
2020/01/31 03:53:03.4	92.800	-0.100	-0.780	0.950
2020/01/31 03:53:03.5	92.790	-0.040	-0.860	0.970
2020/01/31 03:53:03.6	92.770	0.020	-0.930	0.990
2020/01/31 03:53:03.7	92.750	0.080	-1.010	1.010
2020/01/31 03:53:03.8	92.730	0.140	-1.070	1.020
2020/01/31 03:53:03.9	92.710	0.190	-1.130	1.040
2020/01/31 03:53:04.0	92.690	0.250	-1.180	1.050
2020/01/31 03:53:04.1	92.670	0.300	-1.230	1.070
2020/01/31 03:53:04.2	92.650	0.340	-1.260	1.080
2020/01/31 03:53:04.3	92.630	0.380	-1.290	1.100
2020/01/31 03:53:04.4	92.610	0.420	-1.300	1.110
2020/01/31 03:53:04.5	92.580	0.450	-1.310	1.110
2020/01/31 03:53:04.6	92.570	0.470	-1.300	1.120
2020/01/31 03:53:04.7	92.550	0.500	-1.290	1.120
2020/01/31 03:53:04.8	92.530	0.510	-1.260	1.120
2020/01/31 03:53:04.9	92.520	0.520	-1.230	1.120
2020/01/31 03:53:05.0	92.500	0.530	-1.180	1.110
2020/01/31 03:53:05.1	92.490	0.530	-1.130	1.100
2020/01/31 03:53:05.2	92.480	0.520	-1.070	1.080
2020/01/31 03:53:05.3	92.470	0.510	-0.990	1.060
2020/01/31 03:53:05.4	92.460	0.490	-0.920	1.040
2020/01/31 03:53:05.5	92.460	0.470	-0.830	1.020
2020/01/31 03:53:05.6	92.450	0.450	-0.750	0.990
2020/01/31 03:53:05.7	92.450	0.420	-0.650	0.950
2020/01/31 03:53:05.8	92.450	0.390	-0.560	0.920
2020/01/31 03:53:05.9	92.450	0.360	-0.460	0.890
2020/01/31 03:53:06.0	92.450	0.320	-0.360	0.850
2020/01/31 03:53:06.1	92.450	0.290	-0.260	0.810
2020/01/31 03:53:06.2	92.450	0.250	-0.160	0.780
2020/01/31 03:53:06.3	92.450	0.210	-0.060	0.740
2020/01/31 03:53:06.4	92.460	0.170	0.030	0.710
2020/01/31 03:53:06.5	92.460	0.130	0.120	0.680
2020/01/31 03:53:06.6	92.470	0.100	0.210	0.650
2020/01/31 03:53:06.7	92.480	0.060	0.290	0.620
2020/01/31 03:53:06.8	92.490	0.030	0.360	0.590
2020/01/31 03:53:06.9	92.490	-0.010	0.430	0.570
2020/01/31 03:53:07.0	92.500	-0.030	0.480	0.550
2020/01/31 03:53:07.1	92.510	-0.060	0.530	0.530
2020/01/31 03:53:07.2	92.520	-0.080	0.570	0.510
2020/01/31 03:53:07.3	92.530	-0.100	0.600	0.500
2020/01/31 03:53:07.4	92.540	-0.120	0.620	0.490
2020/01/31 03:53:07.5	92.550	-0.130	0.630	0.490
2020/01/31 03:53:07.6	92.560	-0.140	0.640	0.480
2020/01/31 03:53:07.7	92.570	-0.140	0.630	0.480
2020/01/31 03:53:07.8	92.580	-0.140	0.610	0.480
2020/01/31 03:53:07.9	92.590	-0.140	0.580	0.480
2020/01/31 03:53:08.0	92.600	-0.140	0.550	0.480
2020/01/31 03:53:08.1	92.610	-0.130	0.510	0.480
2020/01/31 03:53:08.2	92.610	-0.120	0.460	0.490
2020/01/31 03:53:08.3	92.620	-0.100	0.410	0.490
2020/01/31 03:53:08.4	92.630	-0.090	0.350	0.490
2020/01/31 03:53:08.5	92.640	-0.070	0.290	0.500
2020/01/31 03:53:08.6	92.650	-0.050	0.230	0.500
2020/01/31 03:53:08.7	92.660	-0.030	0.170	0.510
2020/01/31 03:53:08.8	92.670	-0.010	0.100	0.510
2020/01/31 03:53:08.9	92.670	0.010	0.040	0.520
2020/01/31 03:53:09.0	92.680	0.020	-0.020	0.520
2020/01/31 03:53:09.1	92.690	0.040	-0.090	0.530
2020/01/31 03:53:09.2	92.690	0.060	-0.140	0.540
2020/01/31 03:53:09.3	92.700	0.070	-0.200	0.550
2020/01/31 03:53:09.4	92.700	0.090	-0.240	0.560
2020/01/31 03:53:09.5	92.700	0.100	-0.290	0.580
2020/01/31 03:53:09.6	92.700	0.110	-0.320	0.600
2020/01/31 03:53:09.7	92.690	0.110	-0.350	0.630
2020/01/31 03:53:09.8	92.690	0.120	-0.380	0.660
2020/01/31 03:53:09.9	92.680	0.120	-0.400	0.690
2020/01/31 03:53:10.0	92.670	0.120	-0.410	0.720
2020/01/31 03:53:10.1	92.660	0.110	-0.410	0.750
2020/01/31 03:53:10.2	92.640	0.100	-0.410	0.790
2020/01/31 03:53:10.3	92.630	0.090	-0.400	0.820
2020/01/31 03:53:10.4	92.610	0.080	-0.390	0.860
2020/01/31 03:53:10.5	92.580	0.060	-0.370	0.890
2020/01/31 03:53:10.6	92.560	0.040	-0.350	0.930
2020/01/31 03:53:10.7	92.540	0.020	-0.320	0.960
2020/01/31 03:53:10.8	92.510	-0.000	-0.290	0.990
2020/01/31 03:53:10.9	92.490	-0.030	-0.260	1.020
2020/01/31 03:53:11.0	92.470	-0.060	-0.230	1.050
2020/01/31 03:53:11.1	92.440	-0.080	-0.190	1.070
2020/01/31 03:53:11.2	92.420	-0.110	-0.160	1.090
2020/01/31 03:53:11.3	92.400	-0.140	-0.130	1.110
2020/01/31 03:53:11.4	92.380	-0.170	-0.090	1.120
2020/01/31 03:53:11.5	92.360	-0.190	-0.060	1.130
2020/01/31 03:53:11.6	92.340	-0.220	-0.040	1.130
2020/01/31 03:53:11.7	92.330	-0.240	-0.010	1.130
2020/01/31 03:53:11.8	92.310	-0.270	0.010	1.120
2020/01/31 03:53:11.9	92.300	-0.290	0.020	1.110
2020/01/31 03:53:12.0	92.300	-0.300	0.030	1.090
2020/01/31 03:53:12.1	92.300	-0.320	0.040	1.060
2020/01/31 03:53:12.2	92.310	-0.330	0.030	1.030
2020/01/31 03:53:12.3	92.310	-0.330	0.020	0.990
2020/01/31 03:53:12.4	92.320	-0.330	0.010	0.950
2020/01/31 03:53:12.5	92.340	-0.330	-0.020	0.910
2020/01/31 03:53:12.6	92.360	-0.320	-0.050	0.860
2020/01/31 03:53:12.7	92.380	-0.310	-0.080	0.810
2020/01/31 03:53:12.8	92.400	-0.290	-0.120	0.770
2020/01/31 03:53:12.9	92.430	-0.270	-0.170	0.720
2020/01/31 03:53:13.0	92.470	-0.250	-0.220	0.670
2020/01/31 03:53:13.1	92.500	-0.220	-0.280	0.620
2020/01/31 03:53:13.2	92.530	-0.190	-0.330	0.580
2020/01/31 03:53:13.3	92.570	-0.160	-0.390	0.540
2020/01/31 03:53:13.4	92.600	-0.120	-0.450	0.510
2020/01/31 03:53:13.5	92.640	-0.080	-0.500	0.480
2020/01/31 03:53:13.6	92.670	-0.040	-0.560	0.460
2020/01/31 03:53:13.7	92.710	0.010	-0.610	0.440
2020/01/31 03:53:13.8	92.740	0.050	-0.660	0.430
2020/01/31 03:53:13.9	92.770	0.090	-0.700	0.430
2020/01/31 03:53:14.0	92.790	0.140	-0.740	0.430
2020/01/31 03:53:14.1	92.820	0.180	-0.780	0.440
2020/01/31 03:53:14.2	92.840	0.220	-0.800	0.450
2020/01/31 03:53:14.3	92.860	0.260	-0.820	0.470
2020/01/31 03:53:14.4	92.870	0.300	-0.840	0.480
2020/01/31 03:53:14.5	92.880	0.330	-0.850	0.500
2020/01/31 03:53:14.6	92.890	0.360	-0.850	0.520
2020/01/31 03:53:14.7	92.900	0.390	-0.840	0.540
2020/01/31 03:53:14.8	92.900	0.410	-0.820	0.560
2020/01/31 03:53:14.9	92.900	0.430	-0.800	0.580
2020/01/31 03:53:15.0	92.900	0.440	-0.770	0.610
2020/01/31 03:53:15.1	92.900	0.450	-0.740	0.630
2020/01/31 03:53:15.2	92.890	0.460	-0.700	0.650
2020/01/31 03:53:15.3	92.880	0.460	-0.650	0.680
2020/01/31 03:53:15.4	92.870	0.450	-0.600	0.700
2020/01/31 03:53:15.5	92.850	0.440	-0.550	0.730
2020/01/31 03:53:15.6	92.840	0.430	-0.490	0.750
2020/01/31 03:53:15.7	92.820	0.410	-0.430	0.780
2020/01/31 03:53:15.8	92.800	0.390	-0.370	0.810
2020/01/31 03:53:15.9	92.780	0.360	-0.310	0.840
2020/01/31 03:53:16.0	92.760	0.330	-0.250	0.870
2020/01/31 03:53:16.1	92.740	0.300	-0.180	0.890
2020/01/31 03:53:16.2	92.710	0.260	-0.120	0.920
2020/01/31 03:53:16.3	92.690	0.220	-0.060	0.950
2020/01/31 03:53:16.4	92.670	0.180	0.000	0.980
2020/01/31 03:53:16.5	92.640	0.130	0.060	1.000
2020/01/31 03:53:16.6	92.620	0.090	0.110	1.030
2020/01/31 03:53:16.7	92.600	0.040	0.160	1.050
2020/01/31 03:53:16.8	92.580	-0.010	0.210	1.070
2020/01/31 03:53:16.9	92.560	-0.050	0.250	1.090
2020/01/31 03:53:17.0	92.550	-0.100	0.290	1.110
2020/01/31 03:53:17.1	92.530	-0.140	0.330	1.130
2020/01/31 03:53:17.2	92.520	-0.190	0.360	1.140
2020/01/31 03:53:17.3	92.510	-0.230	0.380	1.140
2020/01/31 03:53:17.4	92.500	-0.270	0.390	1.140
2020/01/31 03:53:17.5	92.490	-0.310	0.400	1.140
2020/01/31 03:53:17.6	92.490	-0.340	0.410	1.130
2020/01/31 03:53:17.7	92.490	-0.370	0.400	1.120
2020/01/31 03:53:17.8	92.500	-0.400	0.390	1.100
2020/01/31 03:53:17.9	92.500	-0.420	0.370	1.070
2020/01/31 03:53:18.0	92.510	-0.440	0.350	1.040
2020/01/31 03:53:18.1	92.510	-0.450	0.310	1.000
2020/01/31 03:53:18.2	92.530	-0.460	0.270	0.970
2020/01/31 03:53:18.3	92.540	-0.460	0.230	0.930
2020/01/31 03:53:18.4	92.560	-0.460	0.180	0.890
2020/01/31 03:53:18.5	92.580	-0.460	0.120	0.850
2020/01/31 03:53:18.6	92.600	-0.450	0.060	0.810
2020/01/31 03:53:18.7	92.620	-0.440	-0.000	0.780
2020/01/31 03:53:18.8	92.640	-0.420	-0.070	0.740
2020/01/31 03:53:18.9	92.660	-0.400	-0.140	0.700
2020/01/31 03:53:19.0	92.680	-0.370	-0.210	0.670
2020/01/31 03:53:19.1	92.700	-0.350	-0.290	0.640
2020/01/31 03:53:19.2	92.720	-0.320	-0.360	0.610
2020/01/31 03:53:19.3	92.740	-0.280	-0.440	0.590
2020/01/31 03:53:19.4	92.760	-0.250	-0.510	0.570
2020/01/31 03:53:19.5	92.770	-0.210	-0.570	0.560
2020/01/31 03:53:19.6	92.790	-0.180	-0.640	0.550
2020/01/31 03:53:19.7	92.800	-0.140	-0.700	0.550
2020/01/31 03:53:19.8	92.800	-0.100	-0.750	0.550
2020/01/31 03:53:19.9	92.810	-0.070	-0.790	0.560
2020/01/31 03:53:20.0	92.810	-0.030	-0.830	0.580
2020/01/31 03:53:20.1	92.810	0.000	-0.860	0.600
2020/01/31 03:53:20.2	92.800	0.030	-0.880	0.630
2020/01/31 03:53:20.3	92.790	0.060	-0.890	0.650
2020/01/31 03:53:20.4	92.780	0.090	-0.890	0.680
2020/01/31 03:53:20.5	92.760	0.110	-0.880	0.700
2020/01/31 03:53:20.6	92.750	0.120	-0.860	0.730
2020/01/31 03:53:20.7	92.730	0.140	-0.830	0.760
2020/01/31 03:53:20.8	92.710	0.150	-0.790	0.790
2020/01/31 03:53:20.9	92.690	0.150	-0.740	0.810
2020/01/31 03:53:21.0	92.670	0.150	-0.680	0.840
2020/01/31 03:53:21.1	92.640	0.150	-0.610	0.860
2020/01/31 03:53:21.2	92.620	0.140	-0.540	0.880
2020/01/31 03:53:21.3	92.600	0.130	-0.460	0.900
2020/01/31 03:53:21.4	92.580	0.110	-0.380	0.920
2020/01/31 03:53:21.5	92.560	0.090	-0.290	0.930
2020/01/31 03:53:21.6	92.540	0.070	-0.200	0.950
2020/01/31 03:53:21.7	92.520	0.040	-0.110	0.970
2020/01/31 03:53:21.8	92.500	0.010	-0.030	0.980
2020/01/31 03:53:21.9	92.480	-0.020	0.060	0.990
2020/01/31 03:53:22.0	92.470	-0.060	0.140	1.000
2020/01/31 03:53:22.1	92.450	-0.090	0.230	1.020
2020/01/31 03:53:22.2	92.440	-0.120	0.300	1.030
2020/01/31 03:53:22.3	92.430	-0.160	0.370	1.030
2020/01/31 03:53:22.4	92.420	-0.190	0.420	1.040
2020/01/31 03:53:22.5	92.410	-0.220	0.470	1.050
2020/01/31 03:53:22.6	92.410	-0.250	0.510	1.050
2020/01/31 03:53:22.7	92.410	-0.270	0.540	1.050
2020/01/31 03:53:22.8	92.410	-0.290	0.560	1.040
2020/01/31 03:53:22.9	92.410	-0.310	0.570	1.040
2020/01/31 03:53:23.0	92.420	-0.320	0.560	1.030
2020/01/31 03:53:23.1	92.440	-0.330	0.540	1.010
2020/01/31 03:53:23.2	92.450	-0.330	0.510	0.990
2020/01/31 03:53:23.3	92.460	-0.330	0.470	0.960
2020/01/31 03:53:23.4	92.480	-0.320	0.420	0.930
2020/01/31 03:53:23.5	92.500	-0.310	0.360	0.890
2020/01/31 03:53:23.6	92.520	-0.280	0.280	0.850
2020/01/31 03:53:23.7	92.540	-0.260	0.200	0.800
2020/01/31 03:53:23.8	92.570	-0.230	0.110	0.750
2020/01/31 03:53:23.9	92.600	-0.190	0.010	0.690
2020/01/31 03:53:24.0	92.630	-0.140	-0.090	0.630
2020/01/31 03:53:24.1	92.660	-0.090	-0.200	0.570
2020/01/31 03:53:24.2	92.690	-0.040	-0.310	0.500
2020/01/31 03:53:24.3	92.730	0.010	-0.420	0.440
2020/01/31 03:53:24.4	92.760	0.080	-0.540	0.380
2020/01/31 03:53:24.5	92.790	0.140	-0.650	0.320
2020/01/31 03:53:24.6	92.820	0.200	-0.750	0.260
2020/01/31 03:53:24.7	92.850	0.270	-0.850	0.210
2020/01/31 03:53:24.8	92.880	0.340	-0.950	0.160
2020/01/31 03:53:24.9	92.900	0.410	-1.040	0.120
2020/01/31 03:53:25.0	92.930	0.470	-1.120	0.090
2020/01/31 03:53:25.1	92.950	0.540	-1.190	0.070
2020/01/31 03:53:25.2	92.970	0.600	-1.250	0.050
2020/01/31 03:53:25.3	92.980	0.660	-1.290	0.040
2020/01/31 03:53:25.4	92.990	0.720	-1.330	0.040
2020/01/31 03:53:25.5	93.000	0.770	-1.350	0.050
2020/01/31 03:53:25.6	93.000	0.810	-1.350	0.060
2020/01/31 03:53:25.7	93.010	0.850	-1.350	0.080
2020/01/31 03:53:25.8	93.010	0.880	-1.320	0.100
2020/01/31 03:53:25.9	93.000	0.910	-1.290	0.140
2020/01/31 03:53:26.0	93.000	0.930	-1.240	0.170
2020/01/31 03:53:26.1	93.000	0.940	-1.180	0.210
2020/01/31 03:53:26.2	93.000	0.940	-1.100	0.260
2020/01/31 03:53:26.3	92.990	0.940	-1.020	0.300
2020/01/31 03:53:26.4	92.980	0.920	-0.920	0.350
2020/01/31 03:53:26.5	92.960	0.900	-0.810	0.400
2020/01/31 03:53:26.6	92.950	0.870	-0.690	0.460
2020/01/31 03:53:26.7	92.940	0.830	-0.570	0.510
2020/01/31 03:53:26.8	92.920	0.790	-0.440	0.570
2020/01/31 03:53:26.9	92.910	0.730	-0.300	0.620
2020/01/31 03:53:27.0	92.900	0.670	-0.160	0.680
2020/01/31 03:53:27.1	92.880	0.610	-0.020	0.720
2020/01/31 03:53:27.2	92.870	0.540	0.130	0.770
2020/01/31 03:53:27.3	92.850	0.460	0.270	0.830
2020/01/31 03:53:27.4	92.840	0.380	0.410	0.880
2020/01/31 03:53:27.5	92.830	0.290	0.550	0.920
2020/01/31 03:53:27.6	92.820	0.210	0.680	0.970
2020/01/31 03:53:27.7	92.800	0.120	0.800	1.010
2020/01/31 03:53:27.8	92.790	0.020	0.920	1.050
2020/01/31 03:53:27.9	92.780	-0.070	1.030	1.090
2020/01/31 03:53:28.0	92.770	-0.160	1.120	1.120
2020/01/31 03:53:28.1	92.760	-0.250	1.210	1.150
2020/01/31 03:53:28.2	92.760	-0.330	1.280	1.170
2020/01/31 03:53:28.3	92.750	-0.420	1.340	1.190
2020/01/31 03:53:28.4	92.750	-0.500	1.380	1.210
2020/01/31 03:53:28.5	92.740	-0.570	1.400	1.220
2020/01/31 03:53:28.6	92.740	-0.640	1.410	1.220
2020/01/31 03:53:28.7	92.740	-0.700	1.400	1.220
2020/01/31 03:53:28.8	92.750	-0.760	1.370	1.220
2020/01/31 03:53:28.9	92.760	-0.800	1.320	1.210
2020/01/31 03:53:29.0	92.760	-0.840	1.250	1.190
2020/01/31 03:53:29.1	92.770	-0.870	1.160	1.170
2020/01/31 03:53:29.2	92.780	-0.890	1.060	1.150
2020/01/31 03:53:29.3	92.800	-0.890	0.940	1.120
2020/01/31 03:53:29.4	92.820	-0.890	0.810	1.090
2020/01/31 03:53:29.5	92.830	-0.880	0.660	1.060
2020/01/31 03:53:29.6	92.860	-0.860	0.500	1.030
2020/01/31 03:53:29.7	92.880	-0.830	0.330	0.990
2020/01/31 03:53:29.8	92.900	-0.790	0.160	0.960
2020/01/31 03:53:29.9	92.920	-0.750	-0.030	0.930
2020/01/31 03:53:30.0	92.940	-0.690	-0.210	0.890
2020/01/31 03:53:30.1	92.960	-0.630	-0.410	0.860
2020/01/31 03:53:30.2	92.980	-0.570	-0.590	0.830
2020/01/31 03:53:30.3	93.000	-0.500	-0.780	0.810
2020/01/31 03:53:30.4	93.020	-0.430	-0.950	0.790
2020/01/31 03:53:30.5	93.030	-0.350	-1.120	0.770
2020/01/31 03:53:30.6	93.050	-0.270	-1.270	0.760
2020/01/31 03:53:30.7	93.060	-0.200	-1.420	0.750
2020/01/31 03:53:30.8	93.070	-0.120	-1.540	0.740
2020/01/31 03:53:30.9	93.080	-0.050	-1.650	0.740
2020/01/31 03:53:31.0	93.080	0.020	-1.740	0.750
2020/01/31 03:53:31.1	93.080	0.080	-1.810	0.750
2020/01/31 03:53:31.2	93.080	0.140	-1.860	0.760
2020/01/31 03:53:31.3	93.090	0.190	-1.880	0.780
2020/01/31 03:53:31.4	93.090	0.240	-1.880	0.790
2020/01/31 03:53:31.5	93.090	0.270	-1.870	0.810
2020/01/31 03:53:31.6	93.080	0.300	-1.830	0.830
2020/01/31 03:53:31.7	93.080	0.330	-1.770	0.850
2020/01/31 03:53:31.8	93.070	0.340	-1.700	0.870
2020/01/31 03:53:31.9	93.070	0.350	-1.600	0.900
2020/01/31 03:53:32.0	93.060	0.340	-1.490	0.930
2020/01/31 03:53:32.1	93.050	0.330	-1.360	0.960
2020/01/31 03:53:32.2	93.040	0.310	-1.220	0.980
2020/01/31 03:53:32.3	93.030	0.290	-1.070	1.010
2020/01/31 03:53:32.4	93.020	0.250	-0.910	1.040
2020/01/31 03:53:32.5	93.000	0.210	-0.740	1.070
2020/01/31 03:53:32.6	92.990	0.160	-0.570	1.100
2020/01/31 03:53:32.7	92.980	0.110	-0.390	1.130
2020/01/31 03:53:32.8	92.960	0.050	-0.210	1.150
2020/01/31 03:53:32.9	92.950	-0.010	-0.030	1.170
2020/01/31 03:53:33.0	92.930	-0.070	0.140	1.190
2020/01/31 03:53:33.1	92.910	-0.140	0.320	1.200
2020/01/31 03:53:33.2	92.900	-0.210	0.480	1.210
2020/01/31 03:53:33.3	92.890	-0.280	0.630	1.220
2020/01/31 03:53:33.4	92.870	-0.340	0.770	1.220
2020/01/31 03:53:33.5	92.860	-0.410	0.900	1.210
2020/01/31 03:53:33.6	92.850	-0.470	1.010	1.200
2020/01/31 03:53:33.7	92.840	-0.520	1.110	1.180
2020/01/31 03:53:33.8	92.830	-0.570	1.190	1.160
2020/01/31 03:53:33.9	92.820	-0.620	1.250	1.130
2020/01/31 03:53:34.0	92.810	-0.660	1.300	1.090
2020/01/31 03:53:34.1	92.800	-0.690	1.320	1.050
2020/01/31 03:53:34.2	92.790	-0.710	1.320	1.000
2020/01/31 03:53:34.3	92.790	-0.730	1.310	0.950
2020/01/31 03:53:34.4	92.790	-0.730	1.270	0.890
2020/01/31 03:53:34.5	92.790	-0.730	1.220	0.830
2020/01/31 03:53:34.6	92.790	-0.710	1.150	0.770
2020/01/31 03:53:34.7	92.800	-0.690	1.060	0.700
2020/01/31 03:53:34.8	92.800	-0.660	0.950	0.630
2020/01/31 03:53:34.9	92.810	-0.620	0.840	0.560
2020/01/31 03:53:35.0	92.820	-0.580	0.710	0.480
2020/01/31 03:53:35.1	92.830	-0.520	0.560	0.410
2020/01/31 03:53:35.2	92.850	-0.460	0.410	0.340
2020/01/31 03:53:35.3	92.860	-0.390	0.250	0.270
2020/01/31 03:53:35.4	92.870	-0.320	0.090	0.200
2020/01/31 03:53:35.5	92.890	-0.240	-0.080	0.140
2020/01/31 03:53:35.6	92.900	-0.160	-0.240	0.080
2020/01/31 03:53:35.7	92.920	-0.070	-0.410	0.030
2020/01/31 03:53:35.8	92.930	0.020	-0.570	-0.020
2020/01/31 03:53:35.9	92.940	0.100	-0.730	-0.060
2020/01/31 03:53:36.0	92.950	0.190	-0.890	-0.100
2020/01/31 03:53:36.1	92.980	0.280	-1.040	-0.130
2020/01/31 03:53:36.2	92.990	0.360	-1.170	-0.150
2020/01/31 03:53:36.3	93.000	0.450	-1.290	-0.160
2020/01/31 03:53:36.4	93.010	0.530	-1.410	-0.170
2020/01/31 03:53:36.5	93.020	0.600	-1.500	-0.180
2020/01/31 03:53:36.6	93.020	0.670	-1.580	-0.180
2020/01/31 03:53:36.7	93.030	0.730	-1.650	-0.170
2020/01/31 03:53:36.8	93.030	0.790	-1.700	-0.160
2020/01/31 03:53:36.9	93.030	0.840	-1.730	-0.150
2020/01/31 03:53:37.0	93.030	0.880	-1.740	-0.140
2020/01/31 03:53:37.1	93.030	0.920	-1.740	-0.120
2020/01/31 03:53:37.2	93.030	0.950	-1.720	-0.100
2020/01/31 03:53:37.3	93.030	0.970	-1.680	-0.080
2020/01/31 03:53:37.4	93.030	0.980	-1.630	-0.050
2020/01/31 03:53:37.5	93.020	0.980	-1.560	-0.030
2020/01/31 03:53:37.6	93.020	0.980	-1.470	-0.000
2020/01/31 03:53:37.7	93.010	0.970	-1.370	0.020
2020/01/31 03:53:37.8	93.010	0.950	-1.260	0.050
2020/01/31 03:53:37.9	93.000	0.920	-1.130	0.080
2020/01/31 03:53:38.0	93.000	0.890	-1.000	0.110
2020/01/31 03:53:38.1	92.990	0.850	-0.860	0.140
2020/01/31 03:53:38.2	92.990	0.800	-0.710	0.180
2020/01/31 03:53:38.3	92.990	0.750	-0.560	0.210
2020/01/31 03:53:38.4	92.990	0.690	-0.400	0.240
2020/01/31 03:53:38.5	92.980	0.630	-0.250	0.270
2020/01/31 03:53:38.6	92.980	0.570	-0.100	0.300
2020/01/31 03:53:38.7	92.990	0.500	0.050	0.340
2020/01/31 03:53:38.8	92.990	0.430	0.190	0.370
2020/01/31 03:53:38.9	92.990	0.360	0.330	0.400
2020/01/31 03:53:39.0	92.990	0.290	0.450	0.430
2020/01/31 03:53:39.1	93.000	0.230	0.580	0.470
2020/01/31 03:53:39.2	93.010	0.160	0.680	0.500
2020/01/31 03:53:39.3	93.010	0.090	0.780	0.530
2020/01/31 03:53:39.4	93.020	0.030	0.860	0.570
2020/01/31 03:53:39.5	93.020	-0.030	0.920	0.600
2020/01/31 03:53:39.6	93.030	-0.090	0.980	0.630
2020/01/31 03:53:39.7	93.030	-0.140	1.020	0.660
2020/01/31 03:53:39.8	93.030	-0.190	1.050	0.690
2020/01/31 03:53:39.9	93.030	-0.240	1.070	0.720
2020/01/31 03:53:40.0	93.030	-0.280	1.070	0.750
2020/01/31 03:53:40.1	93.040	-0.320	1.060	0.780
2020/01/31 03:53:40.2	93.040	-0.350	1.040	0.810
2020/01/31 03:53:40.3	93.040	-0.380	1.020	0.840
2020/01/31 03:53:40.4	93.030	-0.410	0.980	0.860
2020/01/31 03:53:40.5	93.030	-0.440	0.940	0.890
2020/01/31 03:53:40.6	93.020	-0.460	0.880	0.910
2020/01/31 03:53:40.7	93.020	-0.470	0.820	0.930
2020/01/31 03:53:40.8	93.020	-0.480	0.750	0.940
2020/01/31 03:53:40.9	93.010	-0.490	0.680	0.960
2020/01/31 03:53:41.0	93.010	-0.500	0.600	0.970
2020/01/31 03:53:41.1	92.980	-0.500	0.520	0.970
2020/01/31 03:53:41.2	92.980	-0.500	0.430	0.980
2020/01/31 03:53:41.3	92.970	-0.490	0.350	0.990
2020/01/31 03:53:41.4	92.970	-0.480	0.250	0.990
2020/01/31 03:53:41.5	92.970	-0.470	0.160	0.990
2020/01/31 03:53:41.6	92.960	-0.450	0.070	1.000
2020/01/31 03:53:41.7	92.960	-0.440	-0.030	1.000
2020/01/31 03:53:41.8	92.960	-0.420	-0.120	1.000
2020/01/31 03:53:41.9	92.960	-0.390	-0.210	1.000
2020/01/31 03:53:42.0	92.960	-0.370	-0.300	1.000
2020/01/31 03:53:42.1	92.960	-0.340	-0.390	1.000
2020/01/31 03:53:42.2	92.960	-0.320	-0.480	1.000
2020/01/31 03:53:42.3	92.960	-0.290	-0.560	1.010
2020/01/31 03:53:42.4	92.970	-0.260	-0.640	1.010
2020/01/31 03:53:42.5	92.970	-0.230	-0.710	1.020
2020/01/31 03:53:42.6	92.970	-0.200	-0.780	1.030
2020/01/31 03:53:42.7	92.980	-0.160	-0.840	1.040
2020/01/31 03:53:42.8	92.990	-0.130	-0.900	1.060
2020/01/31 03:53:42.9	92.990	-0.100	-0.950	1.070
2020/01/31 03:53:43.0	93.000	-0.070	-1.000	1.090
2020/01/31 03:53:43.1	93.000	-0.040	-1.040	1.110
2020/01/31 03:53:43.2	93.010	-0.020	-1.070	1.130
2020/01/31 03:53:43.3	93.020	0.010	-1.090	1.140
2020/01/31 03:53:43.4	93.030	0.040	-1.110	1.160
2020/01/31 03:53:43.5	93.040	0.060	-1.120	1.170
2020/01/31 03:53:43.6	93.060	0.080	-1.130	1.180
2020/01/31 03:53:43.7	93.070	0.100	-1.130	1.190
2020/01/31 03:53:43.8	93.080	0.120	-1.120	1.200
2020/01/31 03:53:43.9	93.100	0.130	-1.100	1.200
2020/01/31 03:53:44.0	93.110	0.150	-1.080	1.200
2020/01/31 03:53:44.1	93.120	0.160	-1.040	1.190
2020/01/31 03:53:44.2	93.140	0.170	-1.010	1.190
2020/01/31 03:53:44.3	93.150	0.180	-0.960	1.170
2020/01/31 03:53:44.4	93.180	0.180	-0.920	1.160
2020/01/31 03:53:44.5	93.200	0.180	-0.860	1.140
2020/01/31 03:53:44.6	93.220	0.180	-0.800	1.120
2020/01/31 03:53:44.7	93.250	0.180	-0.730	1.100
2020/01/31 03:53:44.8	93.270	0.180	-0.660	1.070
2020/01/31 03:53:44.9	93.300	0.170	-0.590	1.050
2020/01/31 03:53:45.0	93.320	0.160	-0.510	1.020
2020/01/31 03:53:45.1	93.340	0.160	-0.430	1.000
2020/01/31 03:53:45.2	93.360	0.150	-0.340	0.980
2020/01/31 03:53:45.3	93.390	0.130	-0.250	0.960
2020/01/31 03:53:45.4	93.410	0.120	-0.160	0.940
2020/01/31 03:53:45.5	93.440	0.110	-0.070	0.920
2020/01/31 03:53:45.6	93.460	0.090	0.020	0.910
2020/01/31 03:53:45.7	93.480	0.070	0.100	0.900
2020/01/31 03:53:45.8	93.500	0.060	0.190	0.890
2020/01/31 03:53:45.9	93.520	0.040	0.270	0.880
2020/01/31 03:53:46.0	93.530	0.020	0.350	0.880
2020/01/31 03:53:46.1	93.540	0.000	0.430	0.880
2020/01/31 03:53:46.2	93.550	-0.020	0.500	0.880
2020/01/31 03:53:46.3	93.560	-0.040	0.560	0.880
2020/01/31 03:53:46.4	93.570	-0.050	0.610	0.880
2020/01/31 03:53:46.5	93.580	-0.070	0.660	0.890
2020/01/31 03:53:46.6	93.580	-0.090	0.700	0.890
2020/01/31 03:53:46.7	93.590	-0.100	0.730	0.890
2020/01/31 03:53:46.8	93.590	-0.120	0.750	0.890
2020/01/31 03:53:46.9	93.590	-0.130	0.760	0.890
2020/01/31 03:53:47.0	93.590	-0.140	0.760	0.880
2020/01/31 03:53:47.1	93.580	-0.150	0.750	0.880
2020/01/31 03:53:47.2	93.580	-0.160	0.730	0.870
2020/01/31 03:53:47.3	93.570	-0.160	0.700	0.850
2020/01/31 03:53:47.4	93.570	-0.160	0.660	0.840
2020/01/31 03:53:47.5	93.560	-0.160	0.610	0.820
2020/01/31 03:53:47.6	93.550	-0.160	0.550	0.800
2020/01/31 03:53:47.7	93.540	-0.150	0.490	0.780
2020/01/31 03:53:47.8	93.540	-0.140	0.410	0.750
2020/01/31 03:53:47.9	93.520	-0.130	0.330	0.730
2020/01/31 03:53:48.0	93.510	-0.120	0.250	0.700
2020/01/31 03:53:48.1	93.500	-0.100	0.150	0.670
2020/01/31 03:53:48.2	93.490	-0.080	0.060	0.640
2020/01/31 03:53:48.3	93.470	-0.060	-0.040	0.620
2020/01/31 03:53:48.4	93.460	-0.030	-0.140	0.590
2020/01/31 03:53:48.5	93.440	-0.010	-0.230	0.570
2020/01/31 03:53:48.6	93.430	0.020	-0.330	0.550
2020/01/31 03:53:48.7	93.410	0.050	-0.430	0.530
2020/01/31 03:53:48.8	93.400	0.080	-0.520	0.510
2020/01/31 03:53:48.9	93.380	0.110	-0.600	0.500
2020/01/31 03:53:49.0	93.370	0.140	-0.680	0.480
2020/01/31 03:53:49.1	93.360	0.170	-0.760	0.470
2020/01/31 03:53:49.2	93.350	0.200	-0.830	0.460
2020/01/31 03:53:49.3	93.340	0.230	-0.890	0.450
2020/01/31 03:53:49.4	93.330	0.260	-0.950	0.450
2020/01/31 03:53:49.5	93.330	0.290	-0.990	0.440
2020/01/31 03:53:49.6	93.320	0.310	-1.030	0.430
2020/01/31 03:53:49.7	93.320	0.340	-1.070	0.430
2020/01/31 03:53:49.8	93.330	0.360	-1.090	0.430
2020/01/31 03:53:49.9	93.330	0.380	-1.110	0.420
2020/01/31 03:53:50.0	93.340	0.400	-1.120	0.420
2020/01/31 03:53:50.1	93.350	0.410	-1.120	0.410
2020/01/31 03:53:50.2	93.370	0.420	-1.110	0.410
2020/01/31 03:53:50.3	93.380	0.430	-1.100	0.410
2020/01/31 03:53:50.4	93.400	0.440	-1.080	0.400
2020/01/31 03:53:50.5	93.430	0.450	-1.060	0.400
2020/01/31 03:53:50.6	93.450	0.450	-1.030	0.400
2020/01/31 03:53:50.7	93.470	0.450	-1.000	0.400
2020/01/31 03:53:50.8	93.500	0.440	-0.960	0.400
2020/01/31 03:53:50.9	93.530	0.440	-0.920	0.400
2020/01/31 03:53:51.0	93.560	0.430	-0.880	0.400
2020/01/31 03:53:51.1	93.590	0.420	-0.830	0.390
2020/01/31 03:53:51.2	93.620	0.410	-0.780	0.400
2020/01/31 03:53:51.3	93.650	0.400	-0.730	0.400
2020/01/31 03:53:51.4	93.680	0.380	-0.670	0.410
2020/01/31 03:53:51.5	93.710	0.360	-0.620	0.410
2020/01/31 03:53:51.6	93.740	0.350	-0.560	0.430
2020/01/31 03:53:51.7	93.770	0.330	-0.510	0.440
2020/01/31 03:53:51.8	93.800	0.300	-0.450	0.460
2020/01/31 03:53:51.9	93.820	0.280	-0.400	0.480
2020/01/31 03:53:52.0	93.850	0.260	-0.340	0.500
2020/01/31 03:53:52.1	93.870	0.230	-0.290	0.530
2020/01/31 03:53:52.2	93.900	0.210	-0.240	0.560
2020/01/31 03:53:52.3	93.920	0.180	-0.180	0.600
2020/01/31 03:53:52.4	93.940	0.150	-0.130	0.640
2020/01/31 03:53:52.5	93.950	0.120	-0.090	0.680
2020/01/31 03:53:52.6	93.970	0.100	-0.040	0.720
2020/01/31 03:53:52.7	93.980	0.070	0.000	0.770
2020/01/31 03:53:52.8	94.000	0.040	0.050	0.820
2020/01/31 03:53:52.9	94.010	0.010	0.090	0.860
2020/01/31 03:53:53.0	94.020	-0.020	0.120	0.910
2020/01/31 03:53:53.1	94.030	-0.040	0.160	0.950
2020/01/31 03:53:53.2	94.040	-0.070	0.190	1.000
2020/01/31 03:53:53.3	94.050	-0.100	0.220	1.050
2020/01/31 03:53:53.4	94.050	-0.130	0.250	1.090
2020/01/31 03:53:53.5	94.060	-0.160	0.280	1.130
2020/01/31 03:53:53.6	94.060	-0.180	0.300	1.180
2020/01/31 03:53:53.7	94.070	-0.210	0.320	1.220
2020/01/31 03:53:53.8	94.070	-0.240	0.340	1.250
2020/01/31 03:53:53.9	94.070	-0.260	0.360	1.290
2020/01/31 03:53:54.0	94.070	-0.290	0.380	1.320
2020/01/31 03:53:54.1	94.070	-0.320	0.400	1.350
2020/01/31 03:53:54.2	94.070	-0.340	0.410	1.370
2020/01/31 03:53:54.3	94.060	-0.370	0.420	1.390
2020/01/31 03:53:54.4	94.060	-0.390	0.430	1.410
2020/01/31 03:53:54.5	94.050	-0.410	0.440	1.420
2020/01/31 03:53:54.6	94.050	-0.430	0.450	1.430
2020/01/31 03:53:54.7	94.040	-0.450	0.450	1.430
2020/01/31 03:53:54.8	94.030	-0.470	0.450	1.430
2020/01/31 03:53:54.9	94.020	-0.490	0.450	1.420
2020/01/31 03:53:55.0	94.010	-0.510	0.440	1.410
2020/01/31 03:53:55.1	94.000	-0.520	0.430	1.400
2020/01/31 03:53:55.2	93.990	-0.540	0.420	1.380
2020/01/31 03:53:55.3	93.980	-0.550	0.410	1.360
2020/01/31 03:53:55.4	93.970	-0.560	0.390	1.330
2020/01/31 03:53:55.5	93.960	-0.570	0.370	1.300
2020/01/31 03:53:55.6	93.950	-0.570	0.350	1.270
2020/01/31 03:53:55.7	93.950	-0.570	0.330	1.230
2020/01/31 03:53:55.8	93.940	-0.570	0.300	1.200
2020/01/31 03:53:55.9	93.930	-0.570	0.280	1.160
2020/01/31 03:53:56.0	93.930	-0.570	0.250	1.120
2020/01/31 03:53:56.1	93.930	-0.560	0.220	1.070
2020/01/31 03:53:56.2	93.930	-0.550	0.180	1.030
2020/01/31 03:53:56.3	93.930	-0.540	0.150	0.980
2020/01/31 03:53:56.4	93.940	-0.520	0.110	0.930
2020/01/31 03:53:56.5	93.940	-0.500	0.070	0.880
2020/01/31 03:53:56.6	93.950	-0.480	0.030	0.830
2020/01/31 03:53:56.7	93.960	-0.460	-0.020	0.770
2020/01/31 03:53:56.8	93.980	-0.430	-0.060	0.720
2020/01/31 03:53:56.9	93.990	-0.400	-0.110	0.660
2020/01/31 03:53:57.0	94.010	-0.360	-0.160	0.610
2020/01/31 03:53:57.1	94.040	-0.320	-0.220	0.550
2020/01/31 03:53:57.2	94.060	-0.280	-0.270	0.490
2020/01/31 03:53:57.3	94.090	-0.240	-0.330	0.430
2020/01/31 03:53:57.4	94.110	-0.190	-0.390	0.370
2020/01/31 03:53:57.5	94.140	-0.130	-0.460	0.320
2020/01/31 03:53:57.6	94.170	-0.080	-0.520	0.260
2020/01/31 03:53:57.7	94.200	-0.020	-0.590	0.200
2020/01/31 03:53:57.8	94.230	0.040	-0.660	0.150
2020/01/31 03:53:57.9	94.260	0.100	-0.730	0.100
2020/01/31 03:53:58.0	94.300	0.170	-0.800	0.050
2020/01/31 03:53:58.1	94.330	0.240	-0.870	-0.000
2020/01/31 03:53:58.2	94.360	0.310	-0.940	-0.050
2020/01/31 03:53:58.3	94.390	0.370	-1.000	-0.090
2020/01/31 03:53:58.4	94.420	0.440	-1.060	-0.120
2020/01/31 03:53:58.5	94.450	0.510	-1.120	-0.160
2020/01/31 03:53:58.6	94.470	0.580	-1.170	-0.180
2020/01/31 03:53:58.7	94.490	0.640	-1.220	-0.200
2020/01/31 03:53:58.8	94.510	0.710	-1.260	-0.210
2020/01/31 03:53:58.9	94.520	0.760	-1.290	-0.220
2020/01/31 03:53:59.0	94.530	0.820	-1.310	-0.210
2020/01/31 03:53:59.1	94.540	0.870	-1.320	-0.200
2020/01/31 03:53:59.2	94.540	0.910	-1.330	-0.180
2020/01/31 03:53:59.3	94.530	0.950	-1.320	-0.160
2020/01/31 03:53:59.4	94.520	0.980	-1.300	-0.120
2020/01/31 03:53:59.5	94.500	1.010	-1.270	-0.090
2020/01/31 03:53:59.6	94.480	1.020	-1.230	-0.040
2020/01/31 03:53:59.7	94.460	1.030	-1.180	0.000
2020/01/31 03:53:59.8	94.440	1.030	-1.110	0.050
2020/01/31 03:53:59.9	94.410	1.020	-1.040	0.110
2020/01/31 03:54:00.0	94.390	1.000	-0.960	0.170
2020/01/31 03:54:00.1	94.360	0.980	-0.870	0.220
2020/01/31 03:54:00.2	94.330	0.940	-0.770	0.290
2020/01/31 03:54:00.3	94.300	0.900	-0.670	0.350
2020/01/31 03:54:00.4	94.270	0.850	-0.560	0.410
2020/01/31 03:54:00.5	94.240	0.790	-0.440	0.470
2020/01/31 03:54:00.6	94.210	0.720	-0.330	0.530
2020/01/31 03:54:00.7	94.190	0.650	-0.210	0.590
2020/01/31 03:54:00.8	94.160	0.570	-0.090	0.640
2020/01/31 03:54:00.9	94.140	0.490	0.030	0.690
2020/01/31 03:54:01.0	94.110	0.400	0.150	0.730
2020/01/31 03:54:01.1	94.100	0.310	0.270	0.770
2020/01/31 03:54:01.2	94.090	0.220	0.370	0.800
2020/01/31 03:54:01.3	94.070	0.130	0.480	0.830
2020/01/31 03:54:01.4	94.060	0.030	0.570	0.850
2020/01/31 03:54:01.5	94.050	-0.060	0.660	0.870
2020/01/31 03:54:01.6	94.040	-0.160	0.740	0.880
2020/01/31 03:54:01.7	94.030	-0.250	0.810	0.890
2020/01/31 03:54:01.8	94.020	-0.330	0.870	0.890
2020/01/31 03:54:01.9	94.020	-0.420	0.920	0.890
2020/01/31 03:54:02.0	94.020	-0.500	0.960	0.880
2020/01/31 03:54:02.1	94.020	-0.570	0.990	0.870
2020/01/31 03:54:02.2	94.020	-0.630	1.010	0.870
2020/01/31 03:54:02.3	94.020	-0.690	1.010	0.860
2020/01/31 03:54:02.4	94.030	-0.740	1.010	0.850
2020/01/31 03:54:02.5	94.030	-0.790	0.990	0.840
2020/01/31 03:54:02.6	94.030	-0.820	0.960	0.840
2020/01/31 03:54:02.7	94.030	-0.850	0.930	0.830
2020/01/31 03:54:02.8	94.040	-0.860	0.880	0.820
2020/01/31 03:54:02.9	94.050	-0.870	0.820	0.810
2020/01/31 03:54:03.0	94.050	-0.880	0.760	0.810
2020/01/31 03:54:03.1	94.070	-0.870	0.680	0.800
2020/01/31 03:54:03.2	94.070	-0.850	0.600	0.790
2020/01/31 03:54:03.3	94.080	-0.830	0.520	0.790
2020/01/31 03:54:03.4	94.090	-0.810	0.430	0.780
2020/01/31 03:54:03.5	94.100	-0.770	0.330	0.770
2020/01/31 03:54:03.6	94.110	-0.730	0.240	0.770
2020/01/31 03:54:03.7	94.120	-0.690	0.140	0.760
2020/01/31 03:54:03.8	94.130	-0.640	0.030	0.750
2020/01/31 03:54:03.9	94.140	-0.590	-0.070	0.740
2020/01/31 03:54:04.0	94.150	-0.540	-0.170	0.740
2020/01/31 03:54:04.1	94.160	-0.480	-0.280	0.730
2020/01/31 03:54:04.2	94.170	-0.420	-0.380	0.720
2020/01/31 03:54:04.3	94.170	-0.360	-0.480	0.720
2020/01/31 03:54:04.4	94.180	-0.300	-0.570	0.710
2020/01/31 03:54:04.5	94.190	-0.240	-0.660	0.710
2020/01/31 03:54:04.6	94.190	-0.180	-0.750	0.710
2020/01/31 03:54:04.7	94.190	-0.120	-0.830	0.710
2020/01/31 03:54:04.8	94.190	-0.070	-0.900	0.710
2020/01/31 03:54:04.9	94.190	-0.010	-0.970	0.710
2020/01/31 03:54:05.0	94.190	0.040	-1.030	0.720
2020/01/31 03:54:05.1	94.190	0.090	-1.080	0.730
2020/01/31 03:54:05.2	94.190	0.140	-1.130	0.740
2020/01/31 03:54:05.3	94.180	0.190	-1.170	0.750
2020/01/31 03:54:05.4	94.180	0.230	-1.200	0.760
2020/01/31 03:54:05.5	94.180	0.260	-1.220	0.770
2020/01/31 03:54:05.6	94.170	0.300	-1.230	0.790
2020/01/31 03:54:05.7	94.170	0.330	-1.230	0.810
2020/01/31 03:54:05.8	94.170	0.350	-1.230	0.830
2020/01/31 03:54:05.9	94.160	0.380	-1.220	0.850
2020/01/31 03:54:06.0	94.160	0.400	-1.200	0.870
2020/01/31 03:54:06.1	94.150	0.410	-1.170	0.890
2020/01/31 03:54:06.2	94.150	0.420	-1.140	0.910
2020/01/31 03:54:06.3	94.150	0.430	-1.100	0.930
2020/01/31 03:54:06.4	94.150	0.430	-1.050	0.950
2020/01/31 03:54:06.5	94.140	0.430	-1.000	0.970
2020/01/31 03:54:06.6	94.140	0.430	-0.940	0.990
2020/01/31 03:54:06.7	94.140	0.430	-0.880	1.010
2020/01/31 03:54:06.8	94.130	0.420	-0.820	1.030
2020/01/31 03:54:06.9	94.130	0.410	-0.750	1.050
2020/01/31 03:54:07.0	94.120	0.390	-0.680	1.070
2020/01/31 03:54:07.1	94.100	0.380	-0.600	1.090
2020/01/31 03:54:07.2	94.100	0.360	-0.530	1.100
2020/01/31 03:54:07.3	94.090	0.340	-0.460	1.110
2020/01/31 03:54:07.4	94.080	0.320	-0.380	1.120
2020/01/31 03:54:07.5	94.080	0.300	-0.310	1.130
2020/01/31 03:54:07.6	94.070	0.280	-0.230	1.140
2020/01/31 03:54:07.7	94.060	0.250	-0.150	1.140
2020/01/31 03:54:07.8	94.050	0.230	-0.080	1.140
2020/01/31 03:54:07.9	94.050	0.200	-0.010	1.140
2020/01/31 03:54:08.0	94.040	0.180	0.070	1.130
2020/01/31 03:54:08.1	94.030	0.150	0.140	1.120
2020/01/31 03:54:08.2	94.020	0.120	0.210	1.110
2020/01/31 03:54:08.3	94.010	0.090	0.270	1.090
2020/01/31 03:54:08.4	94.000	0.060	0.340	1.070
2020/01/31 03:54:08.5	94.000	0.030	0.400	1.050
2020/01/31 03:54:08.6	93.990	0.000	0.460	1.030
2020/01/31 03:54:08.7	93.980	-0.030	0.520	1.010
2020/01/31 03:54:08.8	93.970	-0.060	0.570	0.980
2020/01/31 03:54:08.9	93.960	-0.090	0.620	0.960
2020/01/31 03:54:09.0	93.950	-0.120	0.670	0.930
2020/01/31 03:54:09.1	93.940	-0.150	0.710	0.900
2020/01/31 03:54:09.2	93.930	-0.180	0.750	0.870
2020/01/31 03:54:09.3	93.920	-0.200	0.780	0.840
2020/01/31 03:54:09.4	93.900	-0.230	0.800	0.810
2020/01/31 03:54:09.5	93.890	-0.260	0.820	0.780
2020/01/31 03:54:09.6	93.880	-0.280	0.830	0.750
2020/01/31 03:54:09.7	93.870	-0.300	0.830	0.720
2020/01/31 03:54:09.8	93.860	-0.320	0.830	0.700
2020/01/31 03:54:09.9	93.850	-0.340	0.820	0.670
2020/01/31 03:54:10.0	93.840	-0.350	0.800	0.640
2020/01/31 03:54:10.1	93.840	-0.370	0.780	0.620
2020/01/31 03:54:10.2	93.830	-0.370	0.740	0.590
2020/01/31 03:54:10.3	93.830	-0.380	0.700	0.570
2020/01/31 03:54:10.4	93.830	-0.380	0.660	0.540
2020/01/31 03:54:10.5	93.830	-0.390	0.600	0.520
2020/01/31 03:54:10.6	93.840	-0.380	0.540	0.500
2020/01/31 03:54:10.7	93.840	-0.380	0.470	0.480
2020/01/31 03:54:10.8	93.850	-0.370	0.400	0.450
2020/01/31 03:54:10.9	93.860	-0.350	0.320	0.430
2020/01/31 03:54:11.0	93.880	-0.340	0.240	0.410
2020/01/31 03:54:11.1	93.890	-0.320	0.140	0.390
2020/01/31 03:54:11.2	93.910	-0.290	0.050	0.370
2020/01/31 03:54:11.3	93.930	-0.270	-0.050	0.350
2020/01/31 03:54:11.4	93.950	-0.240	-0.150	0.330
2020/01/31 03:54:11.5	93.980	-0.210	-0.250	0.320
2020/01/31 03:54:11.6	94.000	-0.170	-0.350	0.310
2020/01/31 03:54:11.7	94.030	-0.140	-0.450	0.290
2020/01/31 03:54:11.8	94.050	-0.100	-0.550	0.280
2020/01/31 03:54:11.9	94.070	-0.060	-0.650	0.280
2020/01/31 03:54:12.0	94.090	-0.020	-0.750	0.270
2020/01/31 03:54:12.1	94.120	0.020	-0.850	0.270
2020/01/31 03:54:12.2	94.130	0.070	-0.940	0.270
2020/01/31 03:54:12.3	94.150	0.110	-1.030	0.270
2020/01/31 03:54:12.4	94.160	0.150	-1.110	0.280
2020/01/31 03:54:12.5	94.170	0.200	-1.180	0.290
2020/01/31 03:54:12.6	94.180	0.240	-1.250	0.300
2020/01/31 03:54:12.7	94.190	0.280	-1.310	0.310
2020/01/31 03:54:12.8	94.190	0.320	-1.360	0.330
2020/01/31 03:54:12.9	94.190	0.350	-1.400	0.350
2020/01/31 03:54:13.0	94.180	0.390	-1.430	0.380
2020/01/31 03:54:13.1	94.180	0.420	-1.450	0.400
2020/01/31 03:54:13.2	94.170	0.450	-1.460	0.430
2020/01/31 03:54:13.3	94.160	0.480	-1.460	0.460
2020/01/31 03:54:13.4	94.150	0.500	-1.450	0.500
2020/01/31 03:54:13.5	94.140	0.520	-1.430	0.530
2020/01/31 03:54:13.6	94.120	0.540	-1.400	0.570
2020/01/31 03:54:13.7	94.110	0.550	-1.350	0.610
2020/01/31 03:54:13.8	94.090	0.560	-1.300	0.650
2020/01/31 03:54:13.9	94.080	0.560	-1.240	0.700
2020/01/31 03:54:14.0	94.060	0.560	-1.170	0.740
2020/01/31 03:54:14.1	94.050	0.550	-1.090	0.790
2020/01/31 03:54:14.2	94.030	0.540	-1.000	0.840
2020/01/31 03:54:14.3	94.020	0.530	-0.910	0.890
2020/01/31 03:54:14.4	94.010	0.510	-0.820	0.940
2020/01/31 03:54:14.5	93.990	0.490	-0.720	0.990
2020/01/31 03:54:14.6	93.980	0.460	-0.620	1.040
2020/01/31 03:54:14.7	93.970	0.430	-0.520	1.090
2020/01/31 03:54:14.8	93.950	0.390	-0.410	1.140
2020/01/31 03:54:14.9	93.940	0.360	-0.310	1.190
2020/01/31 03:54:15.0	93.930	0.320	-0.210	1.230
2020/01/31 03:54:15.1	93.910	0.280	-0.110	1.270
2020/01/31 03:54:15.2	93.900	0.230	-0.020	1.310
2020/01/31 03:54:15.3	93.890	0.190	0.070	1.350
2020/01/31 03:54:15.4	93.880	0.140	0.160	1.380
2020/01/31 03:54:15.5	93.880	0.090	0.240	1.410
2020/01/31 03:54:15.6	93.870	0.050	0.310	1.430
2020/01/31 03:54:15.7	93.860	0.000	0.380	1.450
2020/01/31 03:54:15.8	93.850	-0.040	0.440	1.460
2020/01/31 03:54:15.9	93.840	-0.090	0.490	1.470
2020/01/31 03:54:16.0	93.840	-0.130	0.530	1.470
2020/01/31 03:54:16.1	93.820	-0.180	0.570	1.470
2020/01/31 03:54:16.2	93.810	-0.220	0.600	1.460
2020/01/31 03:54:16.3	93.810	-0.250	0.620	1.450
2020/01/31 03:54:16.4	93.800	-0.290	0.630	1.440
2020/01/31 03:54:16.5	93.790	-0.320	0.630	1.420
2020/01/31 03:54:16.6	93.790	-0.350	0.630	1.400
2020/01/31 03:54:16.7	93.780	-0.380	0.620	1.370
2020/01/31 03:54:16.8	93.770	-0.400	0.600	1.350
2020/01/31 03:54:16.9	93.770	-0.420	0.580	1.320
2020/01/31 03:54:17.0	93.760	-0.440	0.550	1.290
2020/01/31 03:54:17.1	93.760	-0.450	0.510	1.250
2020/01/31 03:54:17.2	93.750	-0.460	0.480	1.220
2020/01/31 03:54:17.3	93.750	-0.470	0.440	1.190
2020/01/31 03:54:17.4	93.750	-0.470	0.390	1.160
2020/01/31 03:54:17.5	93.750	-0.460	0.340	1.120
2020/01/31 03:54:17.6	93.750	-0.460	0.290	1.090
2020/01/31 03:54:17.7	93.750	-0.450	0.230	1.060
2020/01/31 03:54:17.8	93.760	-0.430	0.180	1.020
2020/01/31 03:54:17.9	93.760	-0.410	0.120	0.990
2020/01/31 03:54:18.0	93.770	-0.390	0.060	0.960
2020/01/31 03:54:18.1	93.770	-0.370	0.000	0.920
2020/01/31 03:54:18.2	93.770	-0.340	-0.060	0.890
2020/01/31 03:54:18.3	93.780	-0.310	-0.120	0.860
2020/01/31 03:54:18.4	93.790	-0.280	-0.180	0.820
2020/01/31 03:54:18.5	93.800	-0.250	-0.240	0.790
2020/01/31 03:54:18.6	93.810	-0.210	-0.300	0.760
2020/01/31 03:54:18.7	93.820	-0.180	-0.350	0.730
2020/01/31 03:54:18.8	93.830	-0.140	-0.400	0.700
2020/01/31 03:54:18.9	93.840	-0.110	-0.450	0.670
2020/01/31 03:54:19.0	93.850	-0.080	-0.490	0.640
2020/01/31 03:54:19.1	93.850	-0.040	-0.530	0.610
2020/01/31 03:54:19.2	93.860	-0.010	-0.560	0.580
2020/01/31 03:54:19.3	93.870	0.020	-0.590	0.550
2020/01/31 03:54:19.4	93.880	0.040	-0.610	0.530
2020/01/31 03:54:19.5	93.880	0.070	-0.630	0.500
2020/01/31 03:54:19.6	93.890	0.090	-0.640	0.480
2020/01/31 03:54:19.7	93.890	0.110	-0.650	0.460
2020/01/31 03:54:19.8	93.900	0.130	-0.650	0.440
2020/01/31 03:54:19.9	93.900	0.150	-0.650	0.430
2020/01/31 03:54:20.0	93.900	0.160	-0.640	0.420
2020/01/31 03:54:20.1	93.910	0.170	-0.630	0.410
2020/01/31 03:54:20.2	93.910	0.170	-0.620	0.400
2020/01/31 03:54:20.3	93.910	0.180	-0.600	0.400
2020/01/31 03:54:20.4	93.920	0.180	-0.580	0.400
2020/01/31 03:54:20.5	93.920	0.180	-0.560	0.400
2020/01/31 03:54:20.6	93.920	0.180	-0.540	0.400
2020/01/31 03:54:20.7	93.920	0.170	-0.510	0.410
2020/01/31 03:54:20.8	93.930	0.170	-0.490	0.410
2020/01/31 03:54:20.9	93.940	0.160	-0.460	0.420
2020/01/31 03:54:21.0	93.940	0.150	-0.430	0.430
2020/01/31 03:54:21.1	93.950	0.140	-0.400	0.440
2020/01/31 03:54:21.2	93.960	0.130	-0.370	0.450
2020/01/31 03:54:21.3	93.970	0.120	-0.340	0.470
2020/01/31 03:54:21.4	93.980	0.110	-0.300	0.480
2020/01/31 03:54:21.5	93.990	0.090	-0.270	0.500
2020/01/31 03:54:21.6	94.000	0.080	-0.240	0.510
2020/01/31 03:54:21.7	94.010	0.060	-0.210	0.530
2020/01/31 03:54:21.8	94.020	0.050	-0.170	0.540
2020/01/31 03:54:21.9	94.040	0.030	-0.140	0.560
2020/01/31 03:54:22.0	94.050	0.020	-0.110	0.580
2020/01/31 03:54:22.1	94.050	0.000	-0.080	0.600
2020/01/31 03:54:22.2	94.060	-0.010	-0.050	0.620
2020/01/31 03:54:22.3	94.070	-0.020	-0.030	0.640
2020/01/31 03:54:22.4	94.070	-0.030	0.000	0.660
2020/01/31 03:54:22.5	94.080	-0.040	0.030	0.690
2020/01/31 03:54:22.6	94.090	-0.050	0.050	0.710
2020/01/31 03:54:22.7	94.100	-0.060	0.070	0.730
2020/01/31 03:54:22.8	94.100	-0.070	0.080	0.750
2020/01/31 03:54:22.9	94.110	-0.070	0.100	0.770
2020/01/31 03:54:23.0	94.120	-0.080	0.110	0.790
2020/01/31 03:54:23.1	94.140	-0.080	0.120	0.810
2020/01/31 03:54:23.2	94.150	-0.080	0.130	0.820
2020/01/31 03:54:23.3	94.150	-0.070	0.130	0.840
2020/01/31 03:54:23.4	94.160	-0.070	0.130	0.850
2020/01/31 03:54:23.5	94.170	-0.060	0.130	0.860
2020/01/31 03:54:23.6	94.180	-0.060	0.120	0.880
2020/01/31 03:54:23.7	94.200	-0.050	0.110	0.890
2020/01/31 03:54:23.8	94.210	-0.040	0.090	0.900
2020/01/31 03:54:23.9	94.220	-0.030	0.080	0.910
2020/01/31 03:54:24.0	94.230	-0.010	0.060	0.920
2020/01/31 03:54:24.1	94.230	-0.000	0.030	0.930
2020/01/31 03:54:24.2	94.240	0.010	0.010	0.940
2020/01/31 03:54:24.3	94.250	0.030	-0.020	0.950
2020/01/31 03:54:24.4	94.260	0.040	-0.050	0.960
2020/01/31 03:54:24.5	94.260	0.060	-0.080	0.980
2020/01/31 03:54:24.6	94.260	0.070	-0.110	0.990
2020/01/31 03:54:24.7	94.260	0.090	-0.140	1.010
2020/01/31 03:54:24.8	94.250	0.100	-0.180	1.030
2020/01/31 03:54:24.9	94.240	0.120	-0.210	1.040
2020/01/31 03:54:25.0	94.230	0.130	-0.250	1.060
2020/01/31 03:54:25.1	94.210	0.140	-0.280	1.070
2020/01/31 03:54:25.2	94.190	0.150	-0.320	1.080
2020/01/31 03:54:25.3	94.180	0.160	-0.360	1.090
2020/01/31 03:54:25.4	94.150	0.170	-0.390	1.090
2020/01/31 03:54:25.5	94.130	0.180	-0.430	1.090
2020/01/31 03:54:25.6	94.110	0.190	-0.460	1.090
2020/01/31 03:54:25.7	94.080	0.190	-0.490	1.080
2020/01/31 03:54:25.8	94.060	0.200	-0.520	1.070
2020/01/31 03:54:25.9	94.030	0.200	-0.550	1.060
2020/01/31 03:54:26.0	94.000	0.200	-0.570	1.040
2020/01/31 03:54:26.1	93.980	0.200	-0.590	1.020
2020/01/31 03:54:26.2	93.950	0.200	-0.600	0.990
2020/01/31 03:54:26.3	93.930	0.200	-0.610	0.960
2020/01/31 03:54:26.4	93.910	0.190	-0.620	0.940
2020/01/31 03:54:26.5	93.890	0.180	-0.620	0.900
2020/01/31 03:54:26.6	93.870	0.180	-0.610	0.870
2020/01/31 03:54:26.7	93.860	0.170	-0.600	0.840
2020/01/31 03:54:26.8	93.850	0.160	-0.590	0.810
2020/01/31 03:54:26.9	93.830	0.140	-0.570	0.790
2020/01/31 03:54:27.0	93.830	0.130	-0.540	0.760
2020/01/31 03:54:27.1	93.820	0.120	-0.510	0.740
2020/01/31 03:54:27.2	93.820	0.100	-0.480	0.720
2020/01/31 03:54:27.3	93.820	0.090	-0.440	0.700
2020/01/31 03:54:27.4	93.810	0.070	-0.400	0.680
2020/01/31 03:54:27.5	93.810	0.050	-0.370	0.670
2020/01/31 03:54:27.6	93.820	0.040	-0.330	0.660
2020/01/31 03:54:27.7	93.820	0.020	-0.290	0.650
2020/01/31 03:54:27.8	93.820	0.000	-0.250	0.640
2020/01/31 03:54:27.9	93.830	-0.010	-0.210	0.630
2020/01/31 03:54:28.0	93.840	-0.030	-0.180	0.630
2020/01/31 03:54:28.1	93.840	-0.040	-0.150	0.620
2020/01/31 03:54:28.2	93.850	-0.050	-0.120	0.620
2020/01/31 03:54:28.3	93.860	-0.070	-0.100	0.620
2020/01/31 03:54:28.4	93.870	-0.080	-0.080	0.610
2020/01/31 03:54:28.5	93.880	-0.090	-0.060	0.600
2020/01/31 03:54:28.6	93.890	-0.090	-0.050	0.600
2020/01/31 03:54:28.7	93.910	-0.100	-0.040	0.590
2020/01/31 03:54:28.8	93.920	-0.100	-0.040	0.580
2020/01/31 03:54:28.9	93.940	-0.110	-0.040	0.570
2020/01/31 03:54:29.0	93.950	-0.110	-0.050	0.570
2020/01/31 03:54:29.1	93.960	-0.110	-0.050	0.560
2020/01/31 03:54:29.2	93.980	-0.110	-0.060	0.550
2020/01/31 03:54:29.3	93.990	-0.110	-0.070	0.540
2020/01/31 03:54:29.4	94.010	-0.110	-0.090	0.540
2020/01/31 03:54:29.5	94.020	-0.110	-0.100	0.540
2020/01/31 03:54:29.6	94.030	-0.110	-0.110	0.540
2020/01/31 03:54:29.7	94.040	-0.110	-0.130	0.540
2020/01/31 03:54:29.8	94.050	-0.110	-0.140	0.550
2020/01/31 03:54:29.9	94.060	-0.110	-0.150	0.570
2020/01/31 03:54:30.0	94.060	-0.110	-0.160	0.580
2020/01/31 03:54:30.1	94.060	-0.110	-0.170	0.600
2020/01/31 03:54:30.2	94.070	-0.110	-0.180	0.620
2020/01/31 03:54:30.3	94.070	-0.110	-0.180	0.650
2020/01/31 03:54:30.4	94.060	-0.120	-0.190	0.680
2020/01/31 03:54:30.5	94.060	-0.120	-0.190	0.710
2020/01/31 03:54:30.6	94.060	-0.130	-0.190	0.740
2020/01/31 03:54:30.7	94.050	-0.140	-0.190	0.770
2020/01/31 03:54:30.8	94.050	-0.150	-0.180	0.810
2020/01/31 03:54:30.9	94.040	-0.160	-0.180	0.840
2020/01/31 03:54:31.0	94.040	-0.170	-0.180	0.880
2020/01/31 03:54:31.1	94.040	-0.180	-0.170	0.910
2020/01/31 03:54:31.2	94.040	-0.190	-0.160	0.940
2020/01/31 03:54:31.3	94.030	-0.200	-0.160	0.970
2020/01/31 03:54:31.4	94.030	-0.210	-0.160	1.000
2020/01/31 03:54:31.5	94.030	-0.220	-0.160	1.030
2020/01/31 03:54:31.6	94.020	-0.230	-0.150	1.050
2020/01/31 03:54:31.7	94.020	-0.240	-0.150	1.070
2020/01/31 03:54:31.8	94.020	-0.240	-0.150	1.090
2020/01/31 03:54:31.9	94.020	-0.250	-0.160	1.110
2020/01/31 03:54:32.0	94.010	-0.250	-0.160	1.120
2020/01/31 03:54:32.1	94.020	-0.250	-0.170	1.130
2020/01/31 03:54:32.2	94.020	-0.250	-0.170	1.150
2020/01/31 03:54:32.3	94.020	-0.240	-0.180	1.160
2020/01/31 03:54:32.4	94.010	-0.230	-0.190	1.170
2020/01/31 03:54:32.5	94.010	-0.220	-0.210	1.180
2020/01/31 03:54:32.6	94.000	-0.210	-0.220	1.190
2020/01/31 03:54:32.7	94.000	-0.190	-0.240	1.200
2020/01/31 03:54:32.8	93.990	-0.170	-0.260	1.210
2020/01/31 03:54:32.9	93.980	-0.150	-0.280	1.230
2020/01/31 03:54:33.0	93.970	-0.120	-0.300	1.240
2020/01/31 03:54:33.1	93.960	-0.090	-0.330	1.250
2020/01/31 03:54:33.2	93.950	-0.050	-0.360	1.270
2020/01/31 03:54:33.3	93.930	-0.020	-0.380	1.280
2020/01/31 03:54:33.4	93.920	0.020	-0.410	1.290
2020/01/31 03:54:33.5	93.910	0.060	-0.450	1.290
2020/01/31 03:54:33.6	93.890	0.100	-0.480	1.300
2020/01/31 03:54:33.7	93.880	0.140	-0.510	1.300
2020/01/31 03:54:33.8	93.860	0.180	-0.540	1.300
2020/01/31 03:54:33.9	93.850	0.210	-0.570	1.300
2020/01/31 03:54:34.0	93.840	0.250	-0.600	1.290
2020/01/31 03:54:34.1	93.830	0.290	-0.630	1.280
2020/01/31 03:54:34.2	93.820	0.330	-0.650	1.260
2020/01/31 03:54:34.3	93.810	0.360	-0.670	1.240
2020/01/31 03:54:34.4	93.790	0.390	-0.690	1.220
2020/01/31 03:54:34.5	93.780	0.410	-0.700	1.190
2020/01/31 03:54:34.6	93.780	0.440	-0.710	1.160
2020/01/31 03:54:34.7	93.770	0.450	-0.710	1.130
2020/01/31 03:54:34.8	93.760	0.470	-0.710	1.090
2020/01/31 03:54:34.9	93.750	0.480	-0.700	1.060
2020/01/31 03:54:35.0	93.750	0.480	-0.680	1.030
2020/01/31 03:54:35.1	93.740	0.480	-0.660	0.990
2020/01/31 03:54:35.2	93.730	0.480	-0.630	0.960
2020/01/31 03:54:35.3	93.730	0.470	-0.600	0.930
2020/01/31 03:54:35.4	93.730	0.450	-0.560	0.900
2020/01/31 03:54:35.5	93.720	0.430	-0.510	0.870
2020/01/31 03:54:35.6	93.720	0.410	-0.460	0.840
2020/01/31 03:54:35.7	93.720	0.380	-0.390	0.820
2020/01/31 03:54:35.8	93.720	0.350	-0.330	0.800
2020/01/31 03:54:35.9	93.710	0.310	-0.260	0.780
2020/01/31 03:54:36.0	93.710	0.270	-0.180	0.770
2020/01/31 03:54:36.1	93.710	0.230	-0.100	0.750
2020/01/31 03:54:36.2	93.710	0.180	-0.020	0.740
2020/01/31 03:54:36.3	93.710	0.140	0.070	0.730
2020/01/31 03:54:36.4	93.700	0.090	0.150	0.720
2020/01/31 03:54:36.5	93.710	0.040	0.240	0.710
2020/01/31 03:54:36.6	93.710	-0.020	0.330	0.700
2020/01/31 03:54:36.7	93.710	-0.070	0.410	0.700
2020/01/31 03:54:36.8	93.710	-0.120	0.500	0.690
2020/01/31 03:54:36.9	93.710	-0.170	0.570	0.680
2020/01/31 03:54:37.0	93.720	-0.220	0.640	0.670
2020/01/31 03:54:37.1	93.730	-0.270	0.710	0.660
2020/01/31 03:54:37.2	93.740	-0.310	0.770	0.650
2020/01/31 03:54:37.3	93.750	-0.350	0.820	0.640
2020/01/31 03:54:37.4	93.760	-0.390	0.860	0.620
2020/01/31 03:54:37.5	93.770	-0.420	0.880	0.610
2020/01/31 03:54:37.6	93.790	-0.450	0.900	0.590
2020/01/31 03:54:37.7	93.800	-0.470	0.910	0.580
2020/01/31 03:54:37.8	93.810	-0.490	0.900	0.560
2020/01/31 03:54:37.9	93.830	-0.510	0.890	0.550
2020/01/31 03:54:38.0	93.840	-0.510	0.860	0.530
2020/01/31 03:54:38.1	93.860	-0.520	0.820	0.520
2020/01/31 03:54:38.2	93.870	-0.510	0.770	0.510
2020/01/31 03:54:38.3	93.890	-0.510	0.710	0.500
2020/01/31 03:54:38.4	93.900	-0.500	0.640	0.490
2020/01/31 03:54:38.5	93.910	-0.480	0.570	0.490
2020/01/31 03:54:38.6	93.920	-0.460	0.480	0.490
2020/01/31 03:54:38.7	93.930	-0.440	0.390	0.490
2020/01/31 03:54:38.8	93.930	-0.410	0.290	0.500
2020/01/31 03:54:38.9	93.940	-0.380	0.190	0.510
2020/01/31 03:54:39.0	93.940	-0.350	0.090	0.530
2020/01/31 03:54:39.1	93.950	-0.310	-0.030	0.550
2020/01/31 03:54:39.2	93.950	-0.280	-0.140	0.570
2020/01/31 03:54:39.3	93.950	-0.240	-0.250	0.600
2020/01/31 03:54:39.4	93.940	-0.200	-0.360	0.620
2020/01/31 03:54:39.5	93.940	-0.160	-0.460	0.650
2020/01/31 03:54:39.6	93.940	-0.120	-0.570	0.680
2020/01/31 03:54:39.7	93.930	-0.080	-0.670	0.700
2020/01/31 03:54:39.8	93.930	-0.040	-0.760	0.730
2020/01/31 03:54:39.9	93.930	-0.000	-0.850	0.760
2020/01/31 03:54:40.0	93.930	0.030	-0.930	0.780
2020/01/31 03:54:40.1	93.930	0.070	-1.010	0.800
2020/01/31 03:54:40.2	93.930	0.100	-1.070	0.820
2020/01/31 03:54:40.3	93.930	0.130	-1.130	0.840
2020/01/31 03:54:40.4	93.940	0.160	-1.190	0.860
2020/01/31 03:54:40.5	93.940	0.180	-1.230	0.880
2020/01/31 03:54:40.6	93.940	0.210	-1.270	0.890
2020/01/31 03:54:40.7	93.950	0.230	-1.290	0.910
2020/01/31 03:54:40.8	93.960	0.240	-1.310	0.920
2020/01/31 03:54:40.9	93.960	0.260	-1.320	0.940
2020/01/31 03:54:41.0	93.970	0.270	-1.320	0.950
2020/01/31 03:54:41.1	93.970	0.280	-1.320	0.960
2020/01/31 03:54:41.2	93.970	0.290	-1.300	0.970
2020/01/31 03:54:41.3	93.980	0.290	-1.280	0.990
2020/01/31 03:54:41.4	93.980	0.290	-1.250	1.000
2020/01/31 03:54:41.5	93.980	0.290	-1.210	1.020
2020/01/31 03:54:41.6	93.970	0.290	-1.160	1.040
2020/01/31 03:54:41.7	93.970	0.280	-1.110	1.050
2020/01/31 03:54:41.8	93.960	0.270	-1.050	1.070
2020/01/31 03:54:41.9	93.940	0.250	-0.980	1.090
2020/01/31 03:54:42.0	93.930	0.240	-0.910	1.110
2020/01/31 03:54:42.1	93.910	0.220	-0.830	1.130
2020/01/31 03:54:42.2	93.890	0.200	-0.750	1.150
2020/01/31 03:54:42.3	93.860	0.170	-0.660	1.160
2020/01/31 03:54:42.4	93.830	0.150	-0.570	1.180
2020/01/31 03:54:42.5	93.800	0.120	-0.480	1.190
2020/01/31 03:54:42.6	93.770	0.090	-0.380	1.200
2020/01/31 03:54:42.7	93.730	0.060	-0.290	1.210
2020/01/31 03:54:42.8	93.690	0.030	-0.190	1.220
2020/01/31 03:54:42.9	93.650	0.000	-0.100	1.220
2020/01/31 03:54:43.0	93.610	-0.030	-0.010	1.220
2020/01/31 03:54:43.1	93.570	-0.060	0.080	1.210
2020/01/31 03:54:43.2	93.530	-0.090	0.170	1.200
2020/01/31 03:54:43.3	93.490	-0.120	0.250	1.190
2020/01/31 03:54:43.4	93.460	-0.150	0.330	1.170
2020/01/31 03:54:43.5	93.420	-0.180	0.390	1.150
2020/01/31 03:54:43.6	93.390	-0.200	0.460	1.130
2020/01/31 03:54:43.7	93.360	-0.220	0.510	1.100
2020/01/31 03:54:43.8	93.330	-0.240	0.560	1.070
2020/01/31 03:54:43.9	93.300	-0.260	0.590	1.040
2020/01/31 03:54:44.0	93.280	-0.270	0.620	1.010
2020/01/31 03:54:44.1	93.260	-0.280	0.640	0.970
2020/01/31 03:54:44.2	93.240	-0.290	0.650	0.940
2020/01/31 03:54:44.3	93.230	-0.290	0.650	0.900
2020/01/31 03:54:44.4	93.220	-0.290	0.640	0.870
2020/01/31 03:54:44.5	93.210	-0.280	0.620	0.830
2020/01/31 03:54:44.6	93.210	-0.270	0.590	0.790
2020/01/31 03:54:44.7	93.210	-0.250	0.550	0.750
2020/01/31 03:54:44.8	93.220	-0.230	0.500	0.710
2020/01/31 03:54:44.9	93.220	-0.210	0.440	0.670
2020/01/31 03:54:45.0	93.230	-0.180	0.370	0.640
2020/01/31 03:54:45.1	93.250	-0.150	0.290	0.600
2020/01/31 03:54:45.2	93.260	-0.120	0.210	0.570
2020/01/31 03:54:45.3	93.270	-0.080	0.130	0.530
2020/01/31 03:54:45.4	93.290	-0.040	0.040	0.500
2020/01/31 03:54:45.5	93.300	0.000	-0.050	0.470
2020/01/31 03:54:45.6	93.310	0.040	-0.140	0.450
2020/01/31 03:54:45.7	93.330	0.080	-0.230	0.420
2020/01/31 03:54:45.8	93.340	0.120	-0.320	0.400
2020/01/31 03:54:45.9	93.350	0.160	-0.410	0.380
2020/01/31 03:54:46.0	93.360	0.200	-0.490	0.360
2020/01/31 03:54:46.1	93.360	0.240	-0.570	0.340
2020/01/31 03:54:46.2	93.370	0.270	-0.640	0.320
2020/01/31 03:54:46.3	93.370	0.300	-0.710	0.310
2020/01/31 03:54:46.4	93.370	0.320	-0.770	0.290
2020/01/31 03:54:46.5	93.370	0.350	-0.820	0.280
2020/01/31 03:54:46.6	93.360	0.360	-0.870	0.270
2020/01/31 03:54:46.7	93.360	0.380	-0.900	0.270
2020/01/31 03:54:46.8	93.350	0.380	-0.920	0.270
2020/01/31 03:54:46.9	93.330	0.390	-0.940	0.270
2020/01/31 03:54:47.0	93.320	0.380	-0.940	0.270
2020/01/31 03:54:47.1	93.300	0.370	-0.930	0.280
2020/01/31 03:54:47.2	93.280	0.360	-0.920	0.290
2020/01/31 03:54:47.3	93.260	0.340	-0.890	0.300
2020/01/31 03:54:47.4	93.240	0.320	-0.860	0.320
2020/01/31 03:54:47.5	93.210	0.290	-0.810	0.350
2020/01/31 03:54:47.6	93.190	0.260	-0.760	0.370
2020/01/31 03:54:47.7	93.160	0.220	-0.700	0.400
2020/01/31 03:54:47.8	93.130	0.180	-0.640	0.430
2020/01/31 03:54:47.9	93.110	0.140	-0.570	0.470
2020/01/31 03:54:48.0	93.080	0.100	-0.490	0.510
2020/01/31 03:54:48.1	93.050	0.050	-0.400	0.550
2020/01/31 03:54:48.2	93.030	-0.000	-0.320	0.590
2020/01/31 03:54:48.3	93.010	-0.050	-0.230	0.630
2020/01/31 03:54:48.4	92.980	-0.100	-0.150	0.670
2020/01/31 03:54:48.5	92.970	-0.150	-0.060	0.700
2020/01/31 03:54:48.6	92.950	-0.200	0.030	0.740
2020/01/31 03:54:48.7	92.930	-0.250	0.110	0.780
2020/01/31 03:54:48.8	92.920	-0.300	0.200	0.820
2020/01/31 03:54:48.9	92.910	-0.350	0.270	0.850
2020/01/31 03:54:49.0	92.900	-0.390	0.340	0.880
2020/01/31 03:54:49.1	92.900	-0.420	0.410	0.910
2020/01/31 03:54:49.2	92.890	-0.460	0.460	0.940
2020/01/31 03:54:49.3	92.890	-0.490	0.510	0.960
2020/01/31 03:54:49.4	92.890	-0.510	0.550	0.980
2020/01/31 03:54:49.5	92.890	-0.530	0.580	0.990
2020/01/31 03:54:49.6	92.900	-0.540	0.600	1.000
2020/01/31 03:54:49.7	92.910	-0.550	0.610	1.010
2020/01/31 03:54:49.8	92.910	-0.550	0.610	1.010
2020/01/31 03:54:49.9	92.920	-0.550	0.600	1.010
2020/01/31 03:54:50.0	92.930	-0.530	0.570	1.010
2020/01/31 03:54:50.1	92.940	-0.520	0.540	1.010
2020/01/31 03:54:50.2	92.950	-0.490	0.500	1.000
2020/01/31 03:54:50.3	92.960	-0.470	0.440	0.990
2020/01/31 03:54:50.4	92.970	-0.430	0.380	0.980
2020/01/31 03:54:50.5	92.970	-0.390	0.320	0.970
2020/01/31 03:54:50.6	92.980	-0.350	0.240	0.960
2020/01/31 03:54:50.7	92.980	-0.310	0.160	0.960
2020/01/31 03:54:50.8	92.980	-0.260	0.080	0.950
2020/01/31 03:54:50.9	92.980	-0.210	-0.010	0.940
2020/01/31 03:54:51.0	92.980	-0.150	-0.100	0.940
2020/01/31 03:54:51.1	92.970	-0.100	-0.190	0.940
2020/01/31 03:54:51.2	92.970	-0.040	-0.280	0.940
2020/01/31 03:54:51.3	92.960	0.010	-0.370	0.940
2020/01/31 03:54:51.4	92.950	0.060	-0.450	0.940
2020/01/31 03:54:51.5	92.940	0.120	-0.540	0.950
2020/01/31 03:54:51.6	92.930	0.170	-0.610	0.960
2020/01/31 03:54:51.7	92.920	0.210	-0.680	0.970
2020/01/31 03:54:51.8	92.900	0.260	-0.750	0.980
2020/01/31 03:54:51.9	92.890	0.300	-0.810	0.990
2020/01/31 03:54:52.0	92.870	0.340	-0.860	1.010
2020/01/31 03:54:52.1	92.850	0.370	-0.900	1.030
2020/01/31 03:54:52.2	92.830	0.400	-0.940	1.040
2020/01/31 03:54:52.3	92.810	0.420	-0.960	1.060
2020/01/31 03:54:52.4	92.800	0.440	-0.980	1.080
2020/01/31 03:54:52.5	92.780	0.460	-0.980	1.090
2020/01/31 03:54:52.6	92.760	0.470	-0.970	1.110
2020/01/31 03:54:52.7	92.730	0.470	-0.960	1.120
2020/01/31 03:54:52.8	92.710	0.470	-0.940	1.140
2020/01/31 03:54:52.9	92.690	0.460	-0.900	1.150
2020/01/31 03:54:53.0	92.670	0.450	-0.860	1.170
2020/01/31 03:54:53.1	92.650	0.430	-0.800	1.180
2020/01/31 03:54:53.2	92.620	0.410	-0.750	1.200
2020/01/31 03:54:53.3	92.600	0.380	-0.680	1.210
2020/01/31 03:54:53.4	92.580	0.350	-0.610	1.220
2020/01/31 03:54:53.5	92.550	0.310	-0.540	1.230
2020/01/31 03:54:53.6	92.530	0.270	-0.460	1.230
2020/01/31 03:54:53.7	92.510	0.230	-0.380	1.240
2020/01/31 03:54:53.8	92.490	0.190	-0.290	1.240
2020/01/31 03:54:53.9	92.460	0.140	-0.200	1.250
2020/01/31 03:54:54.0	92.440	0.090	-0.120	1.250
2020/01/31 03:54:54.1	92.410	0.040	-0.040	1.240
2020/01/31 03:54:54.2	92.390	-0.010	0.050	1.240
2020/01/31 03:54:54.3	92.370	-0.060	0.120	1.230
2020/01/31 03:54:54.4	92.350	-0.110	0.200	1.220
2020/01/31 03:54:54.5	92.340	-0.160	0.270	1.210
2020/01/31 03:54:54.6	92.320	-0.210	0.330	1.190
2020/01/31 03:54:54.7	92.310	-0.260	0.390	1.170
2020/01/31 03:54:54.8	92.300	-0.300	0.440	1.150
2020/01/31 03:54:54.9	92.290	-0.340	0.480	1.120
2020/01/31 03:54:55.0	92.280	-0.380	0.510	1.090
2020/01/31 03:54:55.1	92.270	-0.410	0.540	1.060
2020/01/31 03:54:55.2	92.270	-0.440	0.550	1.030
2020/01/31 03:54:55.3	92.270	-0.460	0.550	0.990
2020/01/31 03:54:55.4	92.270	-0.470	0.540	0.950
2020/01/31 03:54:55.5	92.270	-0.480	0.520	0.920
2020/01/31 03:54:55.6	92.280	-0.490	0.490	0.880
2020/01/31 03:54:55.7	92.290	-0.480	0.450	0.840
2020/01/31 03:54:55.8	92.300	-0.470	0.400	0.800
2020/01/31 03:54:55.9	92.310	-0.460	0.340	0.760
2020/01/31 03:54:56.0	92.320	-0.430	0.280	0.720
2020/01/31 03:54:56.1	92.330	-0.410	0.200	0.680
2020/01/31 03:54:56.2	92.340	-0.370	0.120	0.640
2020/01/31 03:54:56.3	92.360	-0.340	0.040	0.610
2020/01/31 03:54:56.4	92.380	-0.300	-0.040	0.570
2020/01/31 03:54:56.5	92.400	-0.250	-0.120	0.540
2020/01/31 03:54:56.6	92.410	-0.210	-0.200	0.510
2020/01/31 03:54:56.7	92.430	-0.160	-0.280	0.490
2020/01/31 03:54:56.8	92.450	-0.110	-0.360	0.470
2020/01/31 03:54:56.9	92.470	-0.060	-0.430	0.450
2020/01/31 03:54:57.0	92.490	-0.010	-0.500	0.440
2020/01/31 03:54:57.1	92.510	0.040	-0.560	0.440
2020/01/31 03:54:57.2	92.520	0.080	-0.610	0.440
2020/01/31 03:54:57.3	92.530	0.120	-0.660	0.440
2020/01/31 03:54:57.4	92.540	0.160	-0.700	0.450
2020/01/31 03:54:57.5	92.550	0.200	-0.720	0.460
2020/01/31 03:54:57.6	92.560	0.230	-0.740	0.480
2020/01/31 03:54:57.7	92.560	0.250	-0.760	0.500
2020/01/31 03:54:57.8	92.560	0.280	-0.760	0.520
2020/01/31 03:54:57.9	92.560	0.290	-0.760	0.550
2020/01/31 03:54:58.0	92.560	0.300	-0.750	0.580
2020/01/31 03:54:58.1	92.550	0.310	-0.730	0.600
2020/01/31 03:54:58.2	92.540	0.310	-0.700	0.630
2020/01/31 03:54:58.3	92.530	0.310	-0.670	0.670
2020/01/31 03:54:58.4	92.510	0.300	-0.640	0.700
2020/01/31 03:54:58.5	92.500	0.280	-0.600	0.730
2020/01/31 03:54:58.6	92.480	0.260	-0.550	0.770
2020/01/31 03:54:58.7	92.460	0.240	-0.510	0.800
2020/01/31 03:54:58.8	92.430	0.220	-0.460	0.840
2020/01/31 03:54:58.9	92.410	0.190	-0.410	0.870
2020/01/31 03:54:59.0	92.380	0.160	-0.360	0.910
2020/01/31 03:54:59.1	92.350	0.120	-0.300	0.940
2020/01/31 03:54:59.2	92.320	0.090	-0.260	0.970
2020/01/31 03:54:59.3	92.290	0.060	-0.210	1.010
2020/01/31 03:54:59.4	92.260	0.020	-0.170	1.040
2020/01/31 03:54:59.5	92.230	-0.010	-0.130	1.080
2020/01/31 03:54:59.6	92.200	-0.050	-0.090	1.110
2020/01/31 03:54:59.7	92.160	-0.080	-0.060	1.140
2020/01/31 03:54:59.8	92.130	-0.110	-0.040	1.160
2020/01/31 03:54:59.9	92.100	-0.140	-0.020	1.190
2020/01/31 03:55:00.0	92.070	-0.160	-0.000	1.220
2020/01/31 03:55:00.1	92.030	-0.180	0.000	1.240
2020/01/31 03:55:00.2	92.000	-0.200	0.010	1.260
2020/01/31 03:55:00.3	91.980	-0.220	0.000	1.270
2020/01/31 03:55:00.4	91.950	-0.230	-0.000	1.290
2020/01/31 03:55:00.5	91.930	-0.240	-0.010	1.300
2020/01/31 03:55:00.6	91.910	-0.250	-0.030	1.300
2020/01/31 03:55:00.7	91.890	-0.250	-0.050	1.300
2020/01/31 03:55:00.8	91.880	-0.250	-0.070	1.300
2020/01/31 03:55:00.9	91.870	-0.250	-0.100	1.280
2020/01/31 03:55:01.0	91.860	-0.240	-0.120	1.270
2020/01/31 03:55:01.1	91.860	-0.240	-0.150	1.250
2020/01/31 03:55:01.2	91.860	-0.230	-0.180	1.230
2020/01/31 03:55:01.3	91.870	-0.220	-0.220	1.200
2020/01/31 03:55:01.4	91.880	-0.200	-0.250	1.170
2020/01/31 03:55:01.5	91.890	-0.190	-0.280	1.130
2020/01/31 03:55:01.6	91.910	-0.170	-0.300	1.090
2020/01/31 03:55:01.7	91.930	-0.150	-0.330	1.050
2020/01/31 03:55:01.8	91.950	-0.140	-0.360	1.010
2020/01/31 03:55:01.9	91.970	-0.120	-0.380	0.970
2020/01/31 03:55:02.0	92.000	-0.100	-0.400	0.920
2020/01/31 03:55:02.1	92.040	-0.080	-0.420	0.880
2020/01/31 03:55:02.2	92.070	-0.060	-0.440	0.840
2020/01/31 03:55:02.3	92.100	-0.040	-0.450	0.790
2020/01/31 03:55:02.4	92.130	-0.020	-0.460	0.750
2020/01/31 03:55:02.5	92.160	0.000	-0.460	0.710
2020/01/31 03:55:02.6	92.190	0.030	-0.460	0.670
2020/01/31 03:55:02.7	92.220	0.050	-0.460	0.640
2020/01/31 03:55:02.8	92.240	0.070	-0.450	0.610
2020/01/31 03:55:02.9	92.270	0.090	-0.440	0.580
2020/01/31 03:55:03.0	92.300	0.110	-0.420	0.550
2020/01/31 03:55:03.1	92.320	0.130	-0.400	0.530
2020/01/31 03:55:03.2	92.330	0.140	-0.380	0.520
2020/01/31 03:55:03.3	92.350	0.160	-0.350	0.510
2020/01/31 03:55:03.4	92.360	0.180	-0.320	0.510
2020/01/31 03:55:03.5	92.380	0.190	-0.290	0.510
2020/01/31 03:55:03.6	92.380	0.210	-0.260	0.520
2020/01/31 03:55:03.7	92.390	0.220	-0.220	0.530
2020/01/31 03:55:03.8	92.390	0.240	-0.190	0.540
2020/01/31 03:55:03.9	92.390	0.250	-0.150	0.560
2020/01/31 03:55:04.0	92.390	0.260	-0.120	0.580
2020/01/31 03:55:04.1	92.390	0.270	-0.080	0.600
2020/01/31 03:55:04.2	92.390	0.270	-0.050	0.630
2020/01/31 03:55:04.3	92.380	0.280	-0.020	0.650
2020/01/31 03:55:04.4	92.370	0.280	0.010	0.680
2020/01/31 03:55:04.5	92.370	0.280	0.040	0.710
2020/01/31 03:55:04.6	92.360	0.280	0.060	0.730
2020/01/31 03:55:04.7	92.350	0.280	0.080	0.760
2020/01/31 03:55:04.8	92.340	0.280	0.100	0.790
2020/01/31 03:55:04.9	92.330	0.280	0.110	0.820
2020/01/31 03:55:05.0	92.330	0.270	0.120	0.840
2020/01/31 03:55:05.1	92.320	0.270	0.120	0.870
2020/01/31 03:55:05.2	92.320	0.260	0.120	0.900
2020/01/31 03:55:05.3	92.310	0.260	0.110	0.920
2020/01/31 03:55:05.4	92.310	0.250	0.100	0.940
2020/01/31 03:55:05.5	92.300	0.240	0.080	0.960
2020/01/31 03:55:05.6	92.300	0.230	0.060	0.980
2020/01/31 03:55:05.7	92.300	0.220	0.040	1.000
2020/01/31 03:55:05.8	92.300	0.210	0.010	1.020
2020/01/31 03:55:05.9	92.300	0.200	-0.020	1.030
2020/01/31 03:55:06.0	92.300	0.190	-0.060	1.040
2020/01/31 03:55:06.1	92.300	0.180	-0.100	1.050
2020/01/31 03:55:06.2	92.300	0.170	-0.140	1.060
2020/01/31 03:55:06.3	92.300	0.160	-0.180	1.060
2020/01/31 03:55:06.4	92.300	0.150	-0.220	1.060
2020/01/31 03:55:06.5	92.310	0.140	-0.260	1.060
2020/01/31 03:55:06.6	92.310	0.130	-0.300	1.050
2020/01/31 03:55:06.7	92.310	0.120	-0.340	1.040
2020/01/31 03:55:06.8	92.320	0.100	-0.370	1.020
2020/01/31 03:55:06.9	92.320	0.090	-0.400	1.000
2020/01/31 03:55:07.0	92.330	0.070	-0.420	0.980
2020/01/31 03:55:07.1	92.330	0.060	-0.440	0.950
2020/01/31 03:55:07.2	92.340	0.040	-0.460	0.920
2020/01/31 03:55:07.3	92.350	0.020	-0.470	0.890
2020/01/31 03:55:07.4	92.360	0.000	-0.470	0.860
2020/01/31 03:55:07.5	92.380	-0.020	-0.460	0.830
2020/01/31 03:55:07.6	92.390	-0.040	-0.450	0.800
2020/01/31 03:55:07.7	92.410	-0.060	-0.430	0.760
2020/01/31 03:55:07.8	92.430	-0.080	-0.410	0.740
2020/01/31 03:55:07.9	92.440	-0.100	-0.380	0.710
2020/01/31 03:55:08.0	92.460	-0.120	-0.350	0.690
2020/01/31 03:55:08.1	92.490	-0.150	-0.310	0.660
2020/01/31 03:55:08.2	92.510	-0.170	-0.270	0.640
2020/01/31 03:55:08.3	92.530	-0.200	-0.230	0.630
2020/01/31 03:55:08.4	92.550	-0.220	-0.180	0.620
2020/01/31 03:55:08.5	92.570	-0.240	-0.140	0.620
2020/01/31 03:55:08.6	92.590	-0.270	-0.090	0.620
2020/01/31 03:55:08.7	92.610	-0.290	-0.050	0.620
2020/01/31 03:55:08.8	92.630	-0.320	-0.000	0.630
2020/01/31 03:55:08.9	92.650	-0.340	0.040	0.640
2020/01/31 03:55:09.0	92.670	-0.360	0.080	0.660
2020/01/31 03:55:09.1	92.690	-0.380	0.110	0.680
2020/01/31 03:55:09.2	92.710	-0.400	0.140	0.710
2020/01/31 03:55:09.3	92.720	-0.410	0.160	0.730
2020/01/31 03:55:09.4	92.740	-0.430	0.180	0.760
2020/01/31 03:55:09.5	92.750	-0.440	0.200	0.790
2020/01/31 03:55:09.6	92.760	-0.450	0.200	0.820
2020/01/31 03:55:09.7	92.770	-0.460	0.200	0.850
2020/01/31 03:55:09.8	92.780	-0.470	0.190	0.880
2020/01/31 03:55:09.9	92.780	-0.480	0.180	0.910
2020/01/31 03:55:10.0	92.790	-0.480	0.160	0.930
2020/01/31 03:55:10.1	92.790	-0.480	0.130	0.960
2020/01/31 03:55:10.2	92.790	-0.480	0.090	0.980
2020/01/31 03:55:10.3	92.800	-0.470	0.050	1.000
2020/01/31 03:55:10.4	92.800	-0.460	0.000	1.020
2020/01/31 03:55:10.5	92.800	-0.450	-0.050	1.030
2020/01/31 03:55:10.6	92.790	-0.430	-0.100	1.040
2020/01/31 03:55:10.7	92.790	-0.420	-0.160	1.050
2020/01/31 03:55:10.8	92.790	-0.400	-0.230	1.050
2020/01/31 03:55:10.9	92.790	-0.370	-0.300	1.060
2020/01/31 03:55:11.0	92.790	-0.350	-0.360	1.060
2020/01/31 03:55:11.1	92.790	-0.320	-0.430	1.050
2020/01/31 03:55:11.2	92.790	-0.290	-0.500	1.050
2020/01/31 03:55:11.3	92.790	-0.260	-0.570	1.040
2020/01/31 03:55:11.4	92.790	-0.220	-0.640	1.030
2020/01/31 03:55:11.5	92.790	-0.180	-0.700	1.020
2020/01/31 03:55:11.6	92.790	-0.150	-0.760	1.010
2020/01/31 03:55:11.7	92.790	-0.110	-0.810	0.990
2020/01/31 03:55:11.8	92.800	-0.060	-0.870	0.970
2020/01/31 03:55:11.9	92.800	-0.020	-0.910	0.960
2020/01/31 03:55:12.0	92.810	0.020	-0.950	0.930
2020/01/31 03:55:12.1	92.820	0.060	-0.990	0.910
2020/01/31 03:55:12.2	92.830	0.110	-1.010	0.890
2020/01/31 03:55:12.3	92.850	0.150	-1.030	0.860
2020/01/31 03:55:12.4	92.860	0.190	-1.050	0.840
2020/01/31 03:55:12.5	92.870	0.230	-1.050	0.810
2020/01/31 03:55:12.6	92.890	0.270	-1.050	0.780
2020/01/31 03:55:12.7	92.910	0.310	-1.040	0.750
2020/01/31 03:55:12.8	92.920	0.340	-1.020	0.730
2020/01/31 03:55:12.9	92.930	0.370	-1.000	0.700
2020/01/31 03:55:13.0	92.950	0.400	-0.960	0.680
2020/01/31 03:55:13.1	92.960	0.420	-0.920	0.660
2020/01/31 03:55:13.2	92.960	0.440	-0.870	0.640
2020/01/31 03:55:13.3	92.970	0.460	-0.810	0.620
2020/01/31 03:55:13.4	92.980	0.470	-0.750	0.600
2020/01/31 03:55:13.5	92.980	0.470	-0.680	0.590
2020/01/31 03:55:13.6	92.980	0.480	-0.600	0.570
2020/01/31 03:55:13.7	92.970	0.470	-0.520	0.560
2020/01/31 03:55:13.8	92.970	0.460	-0.430	0.550
2020/01/31 03:55:13.9	92.960	0.450	-0.340	0.540
2020/01/31 03:55:14.0	92.950	0.430	-0.250	0.530
2020/01/31 03:55:14.1	92.940	0.410	-0.150	0.520
2020/01/31 03:55:14.2	92.930	0.380	-0.050	0.510
2020/01/31 03:55:14.3	92.910	0.350	0.050	0.510
2020/01/31 03:55:14.4	92.890	0.310	0.150	0.500
2020/01/31 03:55:14.5	92.880	0.270	0.250	0.500
2020/01/31 03:55:14.6	92.860	0.230	0.340	0.490
2020/01/31 03:55:14.7	92.840	0.180	0.430	0.480
2020/01/31 03:55:14.8	92.820	0.130	0.520	0.480
2020/01/31 03:55:14.9	92.800	0.080	0.610	0.470
2020/01/31 03:55:15.0	92.770	0.030	0.680	0.460
2020/01/31 03:55:15.1	92.750	-0.020	0.750	0.450
2020/01/31 03:55:15.2	92.730	-0.070	0.810	0.430
2020/01/31 03:55:15.3	92.720	-0.130	0.870	0.420
2020/01/31 03:55:15.4	92.700	-0.180	0.910	0.410
2020/01/31 03:55:15.5	92.680	-0.230	0.950	0.390
2020/01/31 03:55:15.6	92.660	-0.270	0.970	0.370
2020/01/31 03:55:15.7	92.650	-0.320	0.990	0.350
2020/01/31 03:55:15.8	92.640	-0.350	0.990	0.320
2020/01/31 03:55:15.9	92.630	-0.390	0.980	0.300
2020/01/31 03:55:16.0	92.620	-0.420	0.960	0.270
2020/01/31 03:55:16.1	92.620	-0.440	0.930	0.240
2020/01/31 03:55:16.2	92.610	-0.460	0.890	0.210
2020/01/31 03:55:16.3	92.610	-0.480	0.830	0.180
2020/01/31 03:55:16.4	92.610	-0.480	0.770	0.140
2020/01/31 03:55:16.5	92.620	-0.480	0.690	0.110
2020/01/31 03:55:16.6	92.630	-0.470	0.600	0.080
2020/01/31 03:55:16.7	92.640	-0.460	0.510	0.040
2020/01/31 03:55:16.8	92.650	-0.440	0.400	0.010
2020/01/31 03:55:16.9	92.670	-0.410	0.290	-0.020
2020/01/31 03:55:17.0	92.690	-0.380	0.170	-0.050
2020/01/31 03:55:17.1	92.710	-0.340	0.050	-0.070
2020/01/31 03:55:17.2	92.730	-0.290	-0.080	-0.090
2020/01/31 03:55:17.3	92.750	-0.240	-0.210	-0.110
2020/01/31 03:55:17.4	92.780	-0.190	-0.340	-0.120
2020/01/31 03:55:17.5	92.800	-0.130	-0.470	-0.130
2020/01/31 03:55:17.6	92.820	-0.070	-0.600	-0.130
2020/01/31 03:55:17.7	92.840	-0.000	-0.720	-0.120
2020/01/31 03:55:17.8	92.860	0.060	-0.840	-0.110
2020/01/31 03:55:17.9	92.870	0.130	-0.960	-0.100
2020/01/31 03:55:18.0	92.890	0.200	-1.070	-0.080
2020/01/31 03:55:18.1	92.900	0.260	-1.180	-0.050
2020/01/31 03:55:18.2	92.910	0.330	-1.270	-0.020
2020/01/31 03:55:18.3	92.920	0.390	-1.350	0.020
2020/01/31 03:55:18.4	92.920	0.450	-1.430	0.050
2020/01/31 03:55:18.5	92.920	0.500	-1.490	0.090
2020/01/31 03:55:18.6	92.920	0.560	-1.540	0.130
2020/01/31 03:55:18.7	92.920	0.600	-1.580	0.170
2020/01/31 03:55:18.8	92.920	0.640	-1.610	0.210
2020/01/31 03:55:18.9	92.910	0.680	-1.620	0.250
2020/01/31 03:55:19.0	92.900	0.710	-1.620	0.290
2020/01/31 03:55:19.1	92.900	0.730	-1.590	0.340
2020/01/31 03:55:19.2	92.890	0.740	-1.560	0.380
2020/01/31 03:55:19.3	92.880	0.750	-1.520	0.420
2020/01/31 03:55:19.4	92.870	0.750	-1.460	0.470
2020/01/31 03:55:19.5	92.860	0.740	-1.390	0.510
2020/01/31 03:55:19.6	92.850	0.730	-1.310	0.560
2020/01/31 03:55:19.7	92.840	0.710	-1.220	0.600
2020/01/31 03:55:19.8	92.830	0.680	-1.120	0.650
2020/01/31 03:55:19.9	92.820	0.650	-1.000	0.690
2020/01/31 03:55:20.0	92.820	0.610	-0.880	0.740
2020/01/31 03:55:20.1	92.810	0.570	-0.760	0.780
2020/01/31 03:55:20.2	92.800	0.520	-0.630	0.830
2020/01/31 03:55:20.3	92.800	0.470	-0.490	0.870
2020/01/31 03:55:20.4	92.790	0.410	-0.360	0.910
2020/01/31 03:55:20.5	92.790	0.350	-0.220	0.960
2020/01/31 03:55:20.6	92.790	0.290	-0.080	1.000
2020/01/31 03:55:20.7	92.790	0.230	0.050	1.040
2020/01/31 03:55:20.8	92.790	0.160	0.180	1.080
2020/01/31 03:55:20.9	92.790	0.100	0.310	1.120
2020/01/31 03:55:21.0	92.790	0.030	0.420	1.150
2020/01/31 03:55:21.1	92.790	-0.040	0.540	1.180
2020/01/31 03:55:21.2	92.800	-0.100	0.650	1.220
2020/01/31 03:55:21.3	92.800	-0.170	0.740	1.240
2020/01/31 03:55:21.4	92.810	-0.230	0.820	1.270
2020/01/31 03:55:21.5	92.820	-0.280	0.900	1.290
2020/01/31 03:55:21.6	92.830	-0.340	0.960	1.310
2020/01/31 03:55:21.7	92.840	-0.390	1.010	1.330
2020/01/31 03:55:21.8	92.850	-0.440	1.050	1.340
2020/01/31 03:55:21.9	92.850	-0.480	1.070	1.340
2020/01/31 03:55:22.0	92.860	-0.520	1.090	1.350
2020/01/31 03:55:22.1	92.870	-0.560	1.090	1.340
2020/01/31 03:55:22.2	92.880	-0.590	1.080	1.340
2020/01/31 03:55:22.3	92.890	-0.610	1.060	1.330
2020/01/31 03:55:22.4	92.890	-0.630	1.020	1.310
2020/01/31 03:55:22.5	92.900	-0.650	0.980	1.290
2020/01/31 03:55:22.6	92.910	-0.660	0.930	1.270
2020/01/31 03:55:22.7	92.910	-0.670	0.870	1.250
2020/01/31 03:55:22.8	92.920	-0.670	0.800	1.220
2020/01/31 03:55:22.9	92.920	-0.660	0.730	1.200
2020/01/31 03:55:23.0	92.920	-0.660	0.650	1.170
2020/01/31 03:55:23.1	92.920	-0.650	0.560	1.140
2020/01/31 03:55:23.2	92.920	-0.630	0.470	1.110
2020/01/31 03:55:23.3	92.920	-0.610	0.380	1.090
2020/01/31 03:55:23.4	92.920	-0.590	0.280	1.060
2020/01/31 03:55:23.5	92.910	-0.560	0.180	1.040
2020/01/31 03:55:23.6	92.900	-0.530	0.080	1.020
2020/01/31 03:55:23.7	92.900	-0.500	-0.020	1.000
2020/01/31 03:55:23.8	92.890	-0.470	-0.120	0.980
2020/01/31 03:55:23.9	92.870	-0.440	-0.210	0.970
2020/01/31 03:55:24.0	92.860	-0.400	-0.310	0.960
2020/01/31 03:55:24.1	92.850	-0.370	-0.400	0.950
2020/01/31 03:55:24.2	92.840	-0.330	-0.490	0.940
2020/01/31 03:55:24.3	92.830	-0.290	-0.580	0.930
2020/01/31 03:55:24.4	92.820	-0.250	-0.660	0.920
2020/01/31 03:55:24.5	92.800	-0.220	-0.740	0.910
2020/01/31 03:55:24.6	92.790	-0.180	-0.810	0.900
2020/01/31 03:55:24.7	92.780	-0.140	-0.880	0.900
2020/01/31 03:55:24.8	92.770	-0.110	-0.940	0.890
2020/01/31 03:55:24.9	92.760	-0.080	-0.990	0.890
2020/01/31 03:55:25.0	92.750	-0.040	-1.040	0.880
2020/01/31 03:55:25.1	92.750	-0.010	-1.080	0.870
2020/01/31 03:55:25.2	92.740	0.010	-1.110	0.860
2020/01/31 03:55:25.3	92.740	0.040	-1.130	0.860
2020/01/31 03:55:25.4	92.740	0.060	-1.150	0.850
2020/01/31 03:55:25.5	92.740	0.080	-1.160	0.850
2020/01/31 03:55:25.6	92.740	0.100	-1.160	0.840
2020/01/31 03:55:25.7	92.740	0.110	-1.150	0.840
2020/01/31 03:55:25.8	92.740	0.120	-1.140	0.830
2020/01/31 03:55:25.9	92.750	0.130	-1.110	0.830
2020/01/31 03:55:26.0	92.750	0.140	-1.080	0.830
2020/01/31 03:55:26.1	92.770	0.140	-1.040	0.830
2020/01/31 03:55:26.2	92.780	0.140	-1.000	0.830
2020/01/31 03:55:26.3	92.790	0.140	-0.940	0.830
2020/01/31 03:55:26.4	92.800	0.140	-0.880	0.830
2020/01/31 03:55:26.5	92.810	0.130	-0.820	0.830
2020/01/31 03:55:26.6	92.820	0.120	-0.750	0.830
2020/01/31 03:55:26.7	92.830	0.110	-0.670	0.830
2020/01/31 03:55:26.8	92.850	0.100	-0.590	0.830
2020/01/31 03:55:26.9	92.860	0.090	-0.510	0.840
2020/01/31 03:55:27.0	92.870	0.080	-0.430	0.840
2020/01/31 03:55:27.1	92.890	0.060	-0.340	0.840
2020/01/31 03:55:27.2	92.900	0.040	-0.250	0.840
2020/01/31 03:55:27.3	92.910	0.030	-0.170	0.840
2020/01/31 03:55:27.4	92.930	0.010	-0.090	0.840
2020/01/31 03:55:27.5	92.940	-0.000	-0.010	0.840
2020/01/31 03:55:27.6	92.950	-0.020	0.070	0.830
2020/01/31 03:55:27.7	92.960	-0.030	0.140	0.830
2020/01/31 03:55:27.8	92.970	-0.040	0.200	0.830
2020/01/31 03:55:27.9	92.980	-0.050	0.260	0.830
2020/01/31 03:55:28.0	92.990	-0.050	0.310	0.820
2020/01/31 03:55:28.1	92.990	-0.060	0.350	0.820
2020/01/31 03:55:28.2	93.000	-0.060	0.380	0.810
2020/01/31 03:55:28.3	93.000	-0.050	0.390	0.810
2020/01/31 03:55:28.4	93.010	-0.040	0.400	0.810
2020/01/31 03:55:28.5	93.010	-0.030	0.390	0.800
2020/01/31 03:55:28.6	93.010	-0.010	0.380	0.800
2020/01/31 03:55:28.7	93.020	0.010	0.350	0.790
2020/01/31 03:55:28.8	93.020	0.030	0.310	0.790
2020/01/31 03:55:28.9	93.030	0.060	0.270	0.790
2020/01/31 03:55:29.0	93.030	0.090	0.210	0.790
2020/01/31 03:55:29.1	93.030	0.120	0.150	0.780
2020/01/31 03:55:29.2	93.030	0.150	0.080	0.780
2020/01/31 03:55:29.3	93.040	0.190	0.010	0.790
2020/01/31 03:55:29.4	93.040	0.230	-0.070	0.790
2020/01/31 03:55:29.5	93.040	0.270	-0.150	0.800
2020/01/31 03:55:29.6	93.050	0.310	-0.230	0.810
2020/01/31 03:55:29.7	93.050	0.340	-0.310	0.820
2020/01/31 03:55:29.8	93.050	0.380	-0.380	0.830
2020/01/31 03:55:29.9	93.050	0.410	-0.450	0.840
2020/01/31 03:55:30.0	93.050	0.440	-0.520	0.860
2020/01/31 03:55:30.1	93.050	0.470	-0.580	0.870
2020/01/31 03:55:30.2	93.050	0.500	-0.630	0.890
2020/01/31 03:55:30.3	93.040	0.520	-0.680	0.900
2020/01/31 03:55:30.4	93.040	0.530	-0.710	0.910
2020/01/31 03:55:30.5	93.040	0.540	-0.730	0.930
2020/01/31 03:55:30.6	93.030	0.550	-0.740	0.940
2020/01/31 03:55:30.7	93.030	0.550	-0.750	0.940
2020/01/31 03:55:30.8	93.020	0.540	-0.740	0.950
2020/01/31 03:55:30.9	93.020	0.530	-0.720	0.950
2020/01/31 03:55:31.0	93.010	0.520	-0.690	0.960
2020/01/31 03:55:31.1	93.010	0.490	-0.640	0.950
2020/01/31 03:55:31.2	93.010	0.470	-0.590	0.940
2020/01/31 03:55:31.3	93.010	0.430	-0.540	0.940
2020/01/31 03:55:31.4	93.000	0.400	-0.470	0.930
2020/01/31 03:55:31.5	93.000	0.360	-0.400	0.920
2020/01/31 03:55:31.6	93.000	0.310	-0.320	0.910
2020/01/31 03:55:31.7	93.000	0.260	-0.230	0.900
2020/01/31 03:55:31.8	93.000	0.210	-0.140	0.890
2020/01/31 03:55:31.9	93.000	0.160	-0.050	0.870
2020/01/31 03:55:32.0	93.000	0.100	0.040	0.860
2020/01/31 03:55:32.1	93.000	0.050	0.140	0.850
2020/01/31 03:55:32.2	93.000	-0.010	0.230	0.840
2020/01/31 03:55:32.3	93.000	-0.070	0.320	0.830
2020/01/31 03:55:32.4	93.000	-0.120	0.400	0.810
2020/01/31 03:55:32.5	93.000	-0.170	0.480	0.800
2020/01/31 03:55:32.6	93.010	-0.220	0.560	0.790
2020/01/31 03:55:32.7	93.010	-0.270	0.620	0.780
2020/01/31 03:55:32.8	93.020	-0.320	0.680	0.780
2020/01/31 03:55:32.9	93.020	-0.360	0.720	0.770
2020/01/31 03:55:33.0	93.030	-0.390	0.760	0.760
2020/01/31 03:55:33.1	93.030	-0.420	0.790	0.760
2020/01/31 03:55:33.2	93.040	-0.450	0.800	0.750
2020/01/31 03:55:33.3	93.050	-0.470	0.800	0.750
2020/01/31 03:55:33.4	93.060	-0.490	0.790	0.750
2020/01/31 03:55:33.5	93.070	-0.490	0.770	0.740
2020/01/31 03:55:33.6	93.080	-0.500	0.730	0.740
2020/01/31 03:55:33.7	93.090	-0.500	0.680	0.740
2020/01/31 03:55:33.8	93.100	-0.490	0.630	0.730
2020/01/31 03:55:33.9	93.110	-0.470	0.560	0.730
2020/01/31 03:55:34.0	93.120	-0.450	0.480	0.730
2020/01/31 03:55:34.1	93.140	-0.430	0.390	0.730
2020/01/31 03:55:34.2	93.150	-0.400	0.290	0.740
2020/01/31 03:55:34.3	93.160	-0.370	0.190	0.740
2020/01/31 03:55:34.4	93.160	-0.330	0.090	0.740
2020/01/31 03:55:34.5	93.170	-0.290	-0.020	0.740
2020/01/31 03:55:34.6	93.180	-0.250	-0.130	0.750
2020/01/31 03:55:34.7	93.190	-0.210	-0.250	0.750
2020/01/31 03:55:34.8	93.200	-0.160	-0.360	0.760
2020/01/31 03:55:34.9	93.210	-0.110	-0.470	0.760
2020/01/31 03:55:35.0	93.210	-0.060	-0.580	0.760
2020/01/31 03:55:35.1	93.230	-0.010	-0.690	0.770
2020/01/31 03:55:35.2	93.230	0.040	-0.790	0.770
2020/01/31 03:55:35.3	93.240	0.090	-0.890	0.780
2020/01/31 03:55:35.4	93.250	0.140	-0.990	0.780
2020/01/31 03:55:35.5	93.260	0.180	-1.070	0.790
2020/01/31 03:55:35.6	93.270	0.230	-1.150	0.790
2020/01/31 03:55:35.7	93.280	0.270	-1.220	0.800
2020/01/31 03:55:35.8	93.290	0.320	-1.280	0.800
2020/01/31 03:55:35.9	93.300	0.360	-1.340	0.810
2020/01/31 03:55:36.0	93.310	0.390	-1.380	0.810
2020/01/31 03:55:36.1	93.320	0.430	-1.410	0.820
2020/01/31 03:55:36.2	93.330	0.460	-1.430	0.830
2020/01/31 03:55:36.3	93.340	0.480	-1.440	0.830
2020/01/31 03:55:36.4	93.350	0.510	-1.450	0.840
2020/01/31 03:55:36.5	93.350	0.530	-1.440	0.850
2020/01/31 03:55:36.6	93.360	0.540	-1.410	0.860
2020/01/31 03:55:36.7	93.370	0.550	-1.380	0.880
2020/01/31 03:55:36.8	93.370	0.560	-1.340	0.890
2020/01/31 03:55:36.9	93.380	0.560	-1.290	0.910
2020/01/31 03:55:37.0	93.380	0.550	-1.230	0.920
2020/01/31 03:55:37.1	93.380	0.550	-1.160	0.940
2020/01/31 03:55:37.2	93.380	0.530	-1.080	0.960
2020/01/31 03:55:37.3	93.380	0.510	-1.000	0.990
2020/01/31 03:55:37.4	93.380	0.490	-0.900	1.010
2020/01/31 03:55:37.5	93.380	0.460	-0.800	1.040
2020/01/31 03:55:37.6	93.380	0.430	-0.690	1.070
2020/01/31 03:55:37.7	93.380	0.390	-0.580	1.090
2020/01/31 03:55:37.8	93.380	0.350	-0.470	1.120
2020/01/31 03:55:37.9	93.380	0.300	-0.350	1.150
2020/01/31 03:55:38.0	93.380	0.250	-0.230	1.170
2020/01/31 03:55:38.1	93.380	0.200	-0.100	1.210
2020/01/31 03:55:38.2	93.380	0.140	0.020	1.230
2020/01/31 03:55:38.3	93.370	0.080	0.140	1.250
2020/01/31 03:55:38.4	93.370	0.010	0.260	1.270
2020/01/31 03:55:38.5	93.370	-0.060	0.380	1.280
2020/01/31 03:55:38.6	93.370	-0.130	0.490	1.290
2020/01/31 03:55:38.7	93.360	-0.200	0.600	1.300
2020/01/31 03:55:38.8	93.360	-0.270	0.700	1.300
2020/01/31 03:55:38.9	93.360	-0.340	0.790	1.300
2020/01/31 03:55:39.0	93.360	-0.410	0.880	1.300
2020/01/31 03:55:39.1	93.350	-0.480	0.960	1.290
2020/01/31 03:55:39.2	93.350	-0.550	1.030	1.280
2020/01/31 03:55:39.3	93.360	-0.620	1.090	1.260
2020/01/31 03:55:39.4	93.360	-0.680	1.140	1.240
2020/01/31 03:55:39.5	93.370	-0.740	1.170	1.220
2020/01/31 03:55:39.6	93.370	-0.790	1.200	1.190
2020/01/31 03:55:39.7	93.380	-0.850	1.210	1.160
2020/01/31 03:55:39.8	93.390	-0.890	1.210	1.130
2020/01/31 03:55:39.9	93.400	-0.930	1.200	1.100
2020/01/31 03:55:40.0	93.410	-0.960	1.180	1.070
2020/01/31 03:55:40.1	93.420	-0.990	1.140	1.030
2020/01/31 03:55:40.2	93.430	-1.010	1.090	0.990
2020/01/31 03:55:40.3	93.450	-1.020	1.020	0.960
2020/01/31 03:55:40.4	93.460	-1.020	0.950	0.920
2020/01/31 03:55:40.5	93.480	-1.020	0.860	0.880
2020/01/31 03:55:40.6	93.500	-1.010	0.760	0.840
2020/01/31 03:55:40.7	93.520	-0.980	0.640	0.800
2020/01/31 03:55:40.8	93.540	-0.950	0.520	0.770
2020/01/31 03:55:40.9	93.560	-0.920	0.390	0.730
2020/01/31 03:55:41.0	93.580	-0.870	0.260	0.690
2020/01/31 03:55:41.1	93.610	-0.820	0.100	0.660
2020/01/31 03:55:41.2	93.630	-0.760	-0.040	0.620
2020/01/31 03:55:41.3	93.650	-0.700	-0.190	0.590
2020/01/31 03:55:41.4	93.660	-0.630	-0.350	0.570
2020/01/31 03:55:41.5	93.680	-0.550	-0.500	0.540
2020/01/31 03:55:41.6	93.690	-0.470	-0.650	0.520
2020/01/31 03:55:41.7	93.710	-0.390	-0.800	0.500
2020/01/31 03:55:41.8	93.720	-0.310	-0.940	0.480
2020/01/31 03:55:41.9	93.730	-0.220	-1.080	0.460
2020/01/31 03:55:42.0	93.740	-0.140	-1.210	0.440
2020/01/31 03:55:42.1	93.750	-0.050	-1.330	0.430
2020/01/31 03:55:42.2	93.750	0.030	-1.430	0.420
2020/01/31 03:55:42.3	93.760	0.120	-1.530	0.410
2020/01/31 03:55:42.4	93.770	0.190	-1.610	0.400
2020/01/31 03:55:42.5	93.770	0.270	-1.680	0.400
2020/01/31 03:55:42.6	93.780	0.340	-1.730	0.390
2020/01/31 03:55:42.7	93.780	0.410	-1.770	0.390
2020/01/31 03:55:42.8	93.780	0.470	-1.790	0.400
2020/01/31 03:55:42.9	93.780	0.530	-1.790	0.410
2020/01/31 03:55:43.0	93.770	0.580	-1.780	0.420
2020/01/31 03:55:43.1	93.770	0.620	-1.750	0.430
2020/01/31 03:55:43.2	93.770	0.660	-1.710	0.440
2020/01/31 03:55:43.3	93.760	0.680	-1.650	0.460
2020/01/31 03:55:43.4	93.750	0.710	-1.570	0.480
2020/01/31 03:55:43.5	93.740	0.720	-1.490	0.500
2020/01/31 03:55:43.6	93.720	0.730	-1.390	0.520
2020/01/31 03:55:43.7	93.710	0.730	-1.280	0.550
2020/01/31 03:55:43.8	93.690	0.730	-1.160	0.570
2020/01/31 03:55:43.9	93.670	0.720	-1.030	0.590
2020/01/31 03:55:44.0	93.650	0.700	-0.900	0.610
2020/01/31 03:55:44.1	93.630	0.680	-0.760	0.630
2020/01/31 03:55:44.2	93.600	0.650	-0.620	0.650
2020/01/31 03:55:44.3	93.580	0.620	-0.470	0.670
2020/01/31 03:55:44.4	93.560	0.580	-0.330	0.680
2020/01/31 03:55:44.5	93.540	0.540	-0.180	0.690
2020/01/31 03:55:44.6	93.510	0.500	-0.040	0.700
2020/01/31 03:55:44.7	93.490	0.460	0.090	0.700
2020/01/31 03:55:44.8	93.470	0.410	0.230	0.700
2020/01/31 03:55:44.9	93.450	0.370	0.350	0.700
2020/01/31 03:55:45.0	93.430	0.320	0.470	0.690
2020/01/31 03:55:45.1	93.420	0.270	0.580	0.680
2020/01/31 03:55:45.2	93.410	0.220	0.680	0.670
2020/01/31 03:55:45.3	93.390	0.180	0.770	0.650
2020/01/31 03:55:45.4	93.380	0.140	0.840	0.630
2020/01/31 03:55:45.5	93.380	0.100	0.900	0.600
2020/01/31 03:55:45.6	93.370	0.060	0.950	0.580
2020/01/31 03:55:45.7	93.370	0.020	0.990	0.550
2020/01/31 03:55:45.8	93.370	-0.010	1.020	0.520
2020/01/31 03:55:45.9	93.370	-0.040	1.030	0.490
2020/01/31 03:55:46.0	93.370	-0.060	1.030	0.460
2020/01/31 03:55:46.1	93.370	-0.080	1.010	0.430
2020/01/31 03:55:46.2	93.370	-0.100	0.990	0.400
2020/01/31 03:55:46.3	93.380	-0.110	0.950	0.370
2020/01/31 03:55:46.4	93.380	-0.120	0.910	0.350
2020/01/31 03:55:46.5	93.390	-0.120	0.850	0.320
2020/01/31 03:55:46.6	93.400	-0.120	0.790	0.290
2020/01/31 03:55:46.7	93.400	-0.120	0.720	0.270
2020/01/31 03:55:46.8	93.410	-0.110	0.640	0.240
2020/01/31 03:55:46.9	93.430	-0.100	0.560	0.220
2020/01/31 03:55:47.0	93.440	-0.090	0.480	0.190
2020/01/31 03:55:47.1	93.460	-0.080	0.390	0.170
2020/01/31 03:55:47.2	93.470	-0.060	0.310	0.150
2020/01/31 03:55:47.3	93.490	-0.040	0.220	0.130
2020/01/31 03:55:47.4	93.510	-0.020	0.140	0.110
2020/01/31 03:55:47.5	93.530	-0.000	0.060	0.090
2020/01/31 03:55:47.6	93.550	0.010	-0.020	0.070
2020/01/31 03:55:47.7	93.570	0.030	-0.090	0.060
2020/01/31 03:55:47.8	93.590	0.050	-0.160	0.040
2020/01/31 03:55:47.9	93.620	0.070	-0.220	0.030
2020/01/31 03:55:48.0	93.640	0.090	-0.280	0.030
2020/01/31 03:55:48.1	93.670	0.100	-0.340	0.020
2020/01/31 03:55:48.2	93.700	0.120	-0.380	0.020
2020/01/31 03:55:48.3	93.720	0.130	-0.430	0.020
2020/01/31 03:55:48.4	93.750	0.140	-0.470	0.030
2020/01/31 03:55:48.5	93.770	0.150	-0.500	0.030
2020/01/31 03:55:48.6	93.800	0.160	-0.530	0.040
2020/01/31 03:55:48.7	93.820	0.160	-0.550	0.050
2020/01/31 03:55:48.8	93.850	0.170	-0.570	0.070
2020/01/31 03:55:48.9	93.870	0.170	-0.590	0.080
2020/01/31 03:55:49.0	93.900	0.170	-0.600	0.100
2020/01/31 03:55:49.1	93.930	0.170	-0.610	0.130
2020/01/31 03:55:49.2	93.960	0.160	-0.620	0.150
2020/01/31 03:55:49.3	93.980	0.160	-0.620	0.180
2020/01/31 03:55:49.4	94.000	0.150	-0.620	0.210
2020/01/31 03:55:49.5	94.020	0.150	-0.620	0.240
2020/01/31 03:55:49.6	94.040	0.140	-0.620	0.270
2020/01/31 03:55:49.7	94.060	0.130	-0.620	0.310
2020/01/31 03:55:49.8	94.080	0.120	-0.610	0.350
2020/01/31 03:55:49.9	94.090	0.110	-0.600	0.400
2020/01/31 03:55:50.0	94.100	0.100	-0.600	0.440
2020/01/31 03:55:50.1	94.110	0.090	-0.590	0.490
2020/01/31 03:55:50.2	94.120	0.080	-0.580	0.530
2020/01/31 03:55:50.3	94.130	0.080	-0.570	0.590
2020/01/31 03:55:50.4	94.140	0.070	-0.560	0.640
2020/01/31 03:55:50.5	94.140	0.060	-0.560	0.690
2020/01/31 03:55:50.6	94.140	0.050	-0.550	0.750
2020/01/31 03:55:50.7	94.150	0.050	-0.540	0.800
2020/01/31 03:55:50.8	94.140	0.040	-0.530	0.860
2020/01/31 03:55:50.9	94.140	0.030	-0.520	0.910
2020/01/31 03:55:51.0	94.140	0.030	-0.510	0.970
2020/01/31 03:55:51.1	94.120	0.030	-0.500	1.020
2020/01/31 03:55:51.2	94.120	0.020	-0.490	1.070
2020/01/31 03:55:51.3	94.110	0.020	-0.480	1.130
2020/01/31 03:55:51.4	94.100	0.020	-0.470	1.180
2020/01/31 03:55:51.5	94.090	0.010	-0.460	1.230
2020/01/31 03:55:51.6	94.070	0.010	-0.440	1.280
2020/01/31 03:55:51.7	94.060	0.010	-0.430	1.330
2020/01/31 03:55:51.8	94.050	0.000	-0.420	1.380
2020/01/31 03:55:51.9	94.030	-0.000	-0.400	1.420
2020/01/31 03:55:52.0	94.010	-0.010	-0.390	1.460
2020/01/31 03:55:52.1	93.990	-0.020	-0.370	1.500
2020/01/31 03:55:52.2	93.970	-0.030	-0.350	1.540
2020/01/31 03:55:52.3	93.950	-0.040	-0.330	1.570
2020/01/31 03:55:52.4	93.930	-0.050	-0.310	1.600
2020/01/31 03:55:52.5	93.900	-0.070	-0.280	1.630
2020/01/31 03:55:52.6	93.880	-0.080	-0.260	1.650
2020/01/31 03:55:52.7	93.850	-0.100	-0.230	1.670
2020/01/31 03:55:52.8	93.830	-0.120	-0.210	1.690
2020/01/31 03:55:52.9	93.800	-0.140	-0.180	1.700
2020/01/31 03:55:53.0	93.780	-0.160	-0.160	1.710
2020/01/31 03:55:53.1	93.750	-0.180	-0.130	1.710
2020/01/31 03:55:53.2	93.720	-0.200	-0.110	1.710
2020/01/31 03:55:53.3	93.700	-0.230	-0.090	1.720
2020/01/31 03:55:53.4	93.680	-0.250	-0.070	1.710
2020/01/31 03:55:53.5	93.660	-0.270	-0.050	1.710
2020/01/31 03:55:53.6	93.640	-0.290	-0.040	1.700
2020/01/31 03:55:53.7	93.620	-0.310	-0.030	1.680
2020/01/31 03:55:53.8	93.610	-0.330	-0.020	1.670
2020/01/31 03:55:53.9	93.590	-0.350	-0.020	1.650
2020/01/31 03:55:54.0	93.590	-0.370	-0.020	1.620
2020/01/31 03:55:54.1	93.580	-0.390	-0.020	1.590
2020/01/31 03:55:54.2	93.580	-0.400	-0.030	1.560
2020/01/31 03:55:54.3	93.580	-0.410	-0.040	1.530
2020/01/31 03:55:54.4	93.580	-0.420	-0.060	1.490
2020/01/31 03:55:54.5	93.590	-0.420	-0.080	1.450
2020/01/31 03:55:54.6	93.600	-0.420	-0.110	1.400
2020/01/31 03:55:54.7	93.620	-0.420	-0.140	1.360
2020/01/31 03:55:54.8	93.640	-0.410	-0.180	1.310
2020/01/31 03:55:54.9	93.660	-0.400	-0.210	1.260
2020/01/31 03:55:55.0	93.680	-0.390	-0.250	1.210
2020/01/31 03:55:55.1	93.700	-0.380	-0.290	1.160
2020/01/31 03:55:55.2	93.730	-0.360	-0.330	1.110
2020/01/31 03:55:55.3	93.750	-0.340	-0.370	1.060
2020/01/31 03:55:55.4	93.780	-0.310	-0.410	1.010
2020/01/31 03:55:55.5	93.800	-0.290	-0.440	0.960
2020/01/31 03:55:55.6	93.830	-0.260	-0.480	0.910
2020/01/31 03:55:55.7	93.850	-0.230	-0.510	0.870
2020/01/31 03:55:55.8	93.880	-0.200	-0.530	0.830
2020/01/31 03:55:55.9	93.900	-0.170	-0.550	0.790
2020/01/31 03:55:56.0	93.920	-0.140	-0.570	0.750
2020/01/31 03:55:56.1	93.930	-0.110	-0.570	0.710
2020/01/31 03:55:56.2	93.950	-0.080	-0.580	0.680
2020/01/31 03:55:56.3	93.970	-0.050	-0.570	0.640
2020/01/31 03:55:56.4	93.980	-0.020	-0.560	0.610
2020/01/31 03:55:56.5	94.000	0.000	-0.540	0.590
2020/01/31 03:55:56.6	94.010	0.030	-0.520	0.560
2020/01/31 03:55:56.7	94.020	0.050	-0.490	0.540
2020/01/31 03:55:56.8	94.030	0.070	-0.450	0.520
2020/01/31 03:55:56.9	94.030	0.090	-0.410	0.500
2020/01/31 03:55:57.0	94.040	0.100	-0.370	0.490
2020/01/31 03:55:57.1	94.040	0.110	-0.320	0.480
2020/01/31 03:55:57.2	94.040	0.120	-0.260	0.470
2020/01/31 03:55:57.3	94.040	0.120	-0.210	0.460
2020/01/31 03:55:57.4	94.040	0.130	-0.150	0.450
2020/01/31 03:55:57.5	94.040	0.130	-0.090	0.440
2020/01/31 03:55:57.6	94.030	0.130	-0.030	0.430
2020/01/31 03:55:57.7	94.030	0.130	0.030	0.430
2020/01/31 03:55:57.8	94.030	0.120	0.090	0.420
2020/01/31 03:55:57.9	94.020	0.110	0.150	0.410
2020/01/31 03:55:58.0	94.020	0.110	0.200	0.410
2020/01/31 03:55:58.1	94.020	0.100	0.260	0.400
2020/01/31 03:55:58.2	94.010	0.090	0.310	0.390
2020/01/31 03:55:58.3	94.010	0.080	0.350	0.380
2020/01/31 03:55:58.4	94.000	0.070	0.390	0.370
2020/01/31 03:55:58.5	94.000	0.070	0.420	0.360
2020/01/31 03:55:58.6	93.990	0.060	0.440	0.350
2020/01/31 03:55:58.7	93.990	0.050	0.460	0.340
2020/01/31 03:55:58.8	93.990	0.050	0.480	0.320
2020/01/31 03:55:58.9	93.980	0.040	0.480	0.310
2020/01/31 03:55:59.0	93.980	0.040	0.480	0.290
2020/01/31 03:55:59.1	93.970	0.040	0.470	0.270
2020/01/31 03:55:59.2	93.970	0.050	0.460	0.260
2020/01/31 03:55:59.3	93.970	0.050	0.440	0.240
2020/01/31 03:55:59.4	93.970	0.060	0.410	0.230
2020/01/31 03:55:59.5	93.970	0.060	0.380	0.210
2020/01/31 03:55:59.6	93.970	0.080	0.350	0.200
2020/01/31 03:55:59.7	93.970	0.090	0.300	0.180
2020/01/31 03:55:59.8	93.970	0.100	0.260	0.170
2020/01/31 03:55:59.9	93.980	0.120	0.210	0.160
2020/01/31 03:56:00.0	93.980	0.140	0.150	0.140
2020/01/31 03:56:00.1	93.990	0.160	0.100	0.130
2020/01/31 03:56:00.2	93.990	0.180	0.040	0.120
2020/01/31 03:56:00.3	93.990	0.210	-0.020	0.110
2020/01/31 03:56:00.4	94.000	0.230	-0.090	0.110
2020/01/31 03:56:00.5	94.000	0.260	-0.150	0.100
2020/01/31 03:56:00.6	94.010	0.280	-0.220	0.090
2020/01/31 03:56:00.7	94.010	0.310	-0.280	0.080
2020/01/31 03:56:00.8	94.020	0.340	-0.350	0.080
2020/01/31 03:56:00.9	94.030	0.360	-0.410	0.070
2020/01/31 03:56:01.0	94.030	0.390	-0.470	0.070
2020/01/31 03:56:01.1	94.040	0.410	-0.540	0.060
2020/01/31 03:56:01.2	94.050	0.430	-0.590	0.060
2020/01/31 03:56:01.3	94.060	0.450	-0.640	0.060
2020/01/31 03:56:01.4	94.060	0.470	-0.690	0.070
2020/01/31 03:56:01.5	94.070	0.490	-0.740	0.070
2020/01/31 03:56:01.6	94.070	0.500	-0.780	0.080
2020/01/31 03:56:01.7	94.080	0.510	-0.810	0.100
2020/01/31 03:56:01.8	94.080	0.520	-0.840	0.120
2020/01/31 03:56:01.9	94.070	0.530	-0.860	0.140
2020/01/31 03:56:02.0	94.070	0.530	-0.880	0.170
2020/01/31 03:56:02.1	94.070	0.530	-0.890	0.200
2020/01/31 03:56:02.2	94.060	0.520	-0.890	0.230
2020/01/31 03:56:02.3	94.050	0.510	-0.890	0.270
2020/01/31 03:56:02.4	94.040	0.500	-0.880	0.310
2020/01/31 03:56:02.5	94.030	0.480	-0.860	0.350
2020/01/31 03:56:02.6	94.020	0.460	-0.840	0.390
2020/01/31 03:56:02.7	94.010	0.430	-0.800	0.440
2020/01/31 03:56:02.8	93.990	0.400	-0.770	0.490
2020/01/31 03:56:02.9	93.980	0.370	-0.730	0.530
2020/01/31 03:56:03.0	93.970	0.340	-0.680	0.580
2020/01/31 03:56:03.1	93.950	0.300	-0.630	0.630
2020/01/31 03:56:03.2	93.940	0.260	-0.570	0.680
2020/01/31 03:56:03.3	93.920	0.220	-0.510	0.730
2020/01/31 03:56:03.4	93.910	0.170	-0.450	0.780
2020/01/31 03:56:03.5	93.900	0.130	-0.390	0.820
2020/01/31 03:56:03.6	93.890	0.080	-0.330	0.870
2020/01/31 03:56:03.7	93.880	0.030	-0.280	0.910
2020/01/31 03:56:03.8	93.870	-0.010	-0.220	0.960
2020/01/31 03:56:03.9	93.860	-0.060	-0.160	1.000
2020/01/31 03:56:04.0	93.860	-0.100	-0.110	1.040
2020/01/31 03:56:04.1	93.850	-0.150	-0.060	1.080
2020/01/31 03:56:04.2	93.850	-0.190	-0.020	1.120
2020/01/31 03:56:04.3	93.850	-0.230	0.020	1.160
2020/01/31 03:56:04.4	93.850	-0.260	0.050	1.200
2020/01/31 03:56:04.5	93.850	-0.300	0.080	1.230
2020/01/31 03:56:04.6	93.850	-0.330	0.100	1.260
2020/01/31 03:56:04.7	93.860	-0.360	0.120	1.300
2020/01/31 03:56:04.8	93.860	-0.380	0.130	1.330
2020/01/31 03:56:04.9	93.870	-0.400	0.130	1.360
2020/01/31 03:56:05.0	93.870	-0.420	0.130	1.380
2020/01/31 03:56:05.1	93.870	-0.430	0.130	1.410
2020/01/31 03:56:05.2	93.870	-0.440	0.120	1.430
2020/01/31 03:56:05.3	93.880	-0.450	0.110	1.460
2020/01/31 03:56:05.4	93.880	-0.450	0.090	1.480
2020/01/31 03:56:05.5	93.890	-0.450	0.080	1.490
2020/01/31 03:56:05.6	93.890	-0.450	0.060	1.510
2020/01/31 03:56:05.7	93.900	-0.450	0.040	1.510
2020/01/31 03:56:05.8	93.900	-0.440	0.010	1.520
2020/01/31 03:56:05.9	93.900	-0.430	-0.010	1.520
2020/01/31 03:56:06.0	93.910	-0.410	-0.030	1.520
2020/01/31 03:56:06.1	93.900	-0.400	-0.060	1.510
2020/01/31 03:56:06.2	93.900	-0.380	-0.080	1.500
2020/01/31 03:56:06.3	93.900	-0.360	-0.100	1.490
2020/01/31 03:56:06.4	93.910	-0.340	-0.120	1.470
2020/01/31 03:56:06.5	93.910	-0.320	-0.140	1.450
2020/01/31 03:56:06.6	93.910	-0.300	-0.160	1.430
2020/01/31 03:56:06.7	93.920	-0.280	-0.170	1.410
2020/01/31 03:56:06.8	93.920	-0.260	-0.190	1.380
2020/01/31 03:56:06.9	93.920	-0.230	-0.200	1.360
2020/01/31 03:56:07.0	93.930	-0.210	-0.210	1.330
2020/01/31 03:56:07.1	93.940	-0.180	-0.220	1.300
2020/01/31 03:56:07.2	93.940	-0.160	-0.230	1.270
2020/01/31 03:56:07.3	93.950	-0.140	-0.240	1.240
2020/01/31 03:56:07.4	93.950	-0.110	-0.260	1.210
2020/01/31 03:56:07.5	93.960	-0.090	-0.270	1.180
2020/01/31 03:56:07.6	93.970	-0.060	-0.280	1.150
2020/01/31 03:56:07.7	93.970	-0.040	-0.290	1.120
2020/01/31 03:56:07.8	93.980	-0.020	-0.300	1.090
2020/01/31 03:56:07.9	93.990	0.000	-0.310	1.060
2020/01/31 03:56:08.0	94.000	0.020	-0.320	1.030
2020/01/31 03:56:08.1	94.010	0.040	-0.340	1.000
2020/01/31 03:56:08.2	94.020	0.060	-0.350	0.970
2020/01/31 03:56:08.3	94.030	0.080	-0.360	0.940
2020/01/31 03:56:08.4	94.040	0.100	-0.370	0.920
2020/01/31 03:56:08.5	94.050	0.110	-0.380	0.890
2020/01/31 03:56:08.6	94.060	0.130	-0.390	0.870
2020/01/31 03:56:08.7	94.070	0.140	-0.400	0.850
2020/01/31 03:56:08.8	94.080	0.160	-0.410	0.830
2020/01/31 03:56:08.9	94.080	0.170	-0.410	0.820
2020/01/31 03:56:09.0	94.090	0.180	-0.420	0.800
2020/01/31 03:56:09.1	94.090	0.180	-0.420	0.790
2020/01/31 03:56:09.2	94.090	0.190	-0.420	0.780
2020/01/31 03:56:09.3	94.090	0.190	-0.410	0.770
2020/01/31 03:56:09.4	94.090	0.200	-0.400	0.770
2020/01/31 03:56:09.5	94.090	0.200	-0.400	0.760
2020/01/31 03:56:09.6	94.080	0.200	-0.380	0.760
2020/01/31 03:56:09.7	94.070	0.190	-0.370	0.750
2020/01/31 03:56:09.8	94.070	0.190	-0.350	0.750
2020/01/31 03:56:09.9	94.050	0.180	-0.330	0.740
2020/01/31 03:56:10.0	94.040	0.170	-0.300	0.740
2020/01/31 03:56:10.1	94.030	0.160	-0.270	0.730
2020/01/31 03:56:10.2	94.010	0.150	-0.240	0.720
2020/01/31 03:56:10.3	93.990	0.130	-0.210	0.710
2020/01/31 03:56:10.4	93.980	0.110	-0.180	0.700
2020/01/31 03:56:10.5	93.960	0.100	-0.140	0.700
2020/01/31 03:56:10.6	93.940	0.070	-0.100	0.680
2020/01/31 03:56:10.7	93.920	0.050	-0.060	0.670
2020/01/31 03:56:10.8	93.890	0.030	-0.020	0.660
2020/01/31 03:56:10.9	93.870	0.010	0.010	0.650
2020/01/31 03:56:11.0	93.850	-0.020	0.050	0.630
2020/01/31 03:56:11.1	93.830	-0.040	0.090	0.620
2020/01/31 03:56:11.2	93.810	-0.060	0.120	0.600
2020/01/31 03:56:11.3	93.790	-0.090	0.150	0.590
2020/01/31 03:56:11.4	93.770	-0.110	0.170	0.570
2020/01/31 03:56:11.5	93.750	-0.130	0.200	0.560
2020/01/31 03:56:11.6	93.730	-0.150	0.220	0.540
2020/01/31 03:56:11.7	93.720	-0.170	0.230	0.530
2020/01/31 03:56:11.8	93.710	-0.190	0.240	0.520
2020/01/31 03:56:11.9	93.690	-0.200	0.240	0.500
2020/01/31 03:56:12.0	93.680	-0.210	0.230	0.490
2020/01/31 03:56:12.1	93.680	-0.220	0.220	0.480
2020/01/31 03:56:12.2	93.670	-0.220	0.210	0.470
2020/01/31 03:56:12.3	93.670	-0.220	0.190	0.460
2020/01/31 03:56:12.4	93.670	-0.220	0.160	0.460
2020/01/31 03:56:12.5	93.670	-0.220	0.130	0.450
2020/01/31 03:56:12.6	93.670	-0.210	0.090	0.450
2020/01/31 03:56:12.7	93.670	-0.200	0.050	0.440
2020/01/31 03:56:12.8	93.670	-0.180	0.010	0.440
2020/01/31 03:56:12.9	93.670	-0.170	-0.040	0.440
2020/01/31 03:56:13.0	93.680	-0.150	-0.100	0.440
2020/01/31 03:56:13.1	93.680	-0.120	-0.150	0.440
2020/01/31 03:56:13.2	93.690	-0.100	-0.210	0.440
2020/01/31 03:56:13.3	93.700	-0.070	-0.270	0.450
2020/01/31 03:56:13.4	93.710	-0.040	-0.330	0.450
2020/01/31 03:56:13.5	93.720	-0.010	-0.390	0.460
2020/01/31 03:56:13.6	93.720	0.020	-0.450	0.460
2020/01/31 03:56:13.7	93.730	0.050	-0.510	0.470
2020/01/31 03:56:13.8	93.740	0.090	-0.570	0.470
2020/01/31 03:56:13.9	93.750	0.120	-0.620	0.480
2020/01/31 03:56:14.0	93.760	0.150	-0.680	0.490
2020/01/31 03:56:14.1	93.770	0.190	-0.730	0.510
2020/01/31 03:56:14.2	93.780	0.220	-0.780	0.520
2020/01/31 03:56:14.3	93.790	0.250	-0.820	0.540
2020/01/31 03:56:14.4	93.800	0.280	-0.860	0.560
2020/01/31 03:56:14.5	93.810	0.300	-0.900	0.580
2020/01/31 03:56:14.6	93.810	0.330	-0.920	0.610
2020/01/31 03:56:14.7	93.820	0.350	-0.950	0.630
2020/01/31 03:56:14.8	93.820	0.370	-0.960	0.660
2020/01/31 03:56:14.9	93.830	0.380	-0.970	0.700
2020/01/31 03:56:15.0	93.830	0.400	-0.970	0.730
2020/01/31 03:56:15.1	93.830	0.410	-0.960	0.770
2020/01/31 03:56:15.2	93.830	0.410	-0.950	0.810
2020/01/31 03:56:15.3	93.830	0.410	-0.930	0.850
2020/01/31 03:56:15.4	93.830	0.410	-0.900	0.890
2020/01/31 03:56:15.5	93.820	0.410	-0.870	0.930
2020/01/31 03:56:15.6	93.820	0.400	-0.830	0.970
2020/01/31 03:56:15.7	93.810	0.390	-0.780	1.010
2020/01/31 03:56:15.8	93.810	0.370	-0.720	1.050
2020/01/31 03:56:15.9	93.800	0.350	-0.660	1.090
2020/01/31 03:56:16.0	93.790	0.330	-0.590	1.130
2020/01/31 03:56:16.1	93.770	0.300	-0.530	1.170
2020/01/31 03:56:16.2	93.760	0.270	-0.450	1.210
2020/01/31 03:56:16.3	93.740	0.240	-0.370	1.250
2020/01/31 03:56:16.4	93.730	0.210	-0.290	1.280
2020/01/31 03:56:16.5	93.720	0.170	-0.200	1.310
2020/01/31 03:56:16.6	93.700	0.130	-0.120	1.340
2020/01/31 03:56:16.7	93.690	0.090	-0.030	1.370
2020/01/31 03:56:16.8	93.670	0.050	0.050	1.400
2020/01/31 03:56:16.9	93.660	0.010	0.130	1.420
2020/01/31 03:56:17.0	93.640	-0.040	0.210	1.440
2020/01/31 03:56:17.1	93.620	-0.080	0.290	1.460
2020/01/31 03:56:17.2	93.610	-0.120	0.360	1.480
2020/01/31 03:56:17.3	93.590	-0.160	0.430	1.490
2020/01/31 03:56:17.4	93.580	-0.200	0.490	1.500
2020/01/31 03:56:17.5	93.570	-0.240	0.540	1.500
2020/01/31 03:56:17.6	93.550	-0.270	0.580	1.510
2020/01/31 03:56:17.7	93.540	-0.300	0.620	1.510
2020/01/31 03:56:17.8	93.530	-0.330	0.650	1.510
2020/01/31 03:56:17.9	93.520	-0.360	0.670	1.500
2020/01/31 03:56:18.0	93.520	-0.380	0.690	1.490
2020/01/31 03:56:18.1	93.510	-0.400	0.690	1.490
2020/01/31 03:56:18.2	93.500	-0.420	0.690	1.470
2020/01/31 03:56:18.3	93.500	-0.430	0.680	1.460
2020/01/31 03:56:18.4	93.500	-0.440	0.670	1.440
2020/01/31 03:56:18.5	93.490	-0.440	0.640	1.420
2020/01/31 03:56:18.6	93.490	-0.440	0.610	1.390
2020/01/31 03:56:18.7	93.490	-0.440	0.580	1.370
2020/01/31 03:56:18.8	93.490	-0.430	0.540	1.340
2020/01/31 03:56:18.9	93.500	-0.420	0.490	1.300
2020/01/31 03:56:19.0	93.500	-0.400	0.440	1.270
2020/01/31 03:56:19.1	93.500	-0.390	0.380	1.220
2020/01/31 03:56:19.2	93.510	-0.370	0.320	1.180
2020/01/31 03:56:19.3	93.520	-0.340	0.260	1.130
2020/01/31 03:56:19.4	93.520	-0.310	0.190	1.090
2020/01/31 03:56:19.5	93.530	-0.280	0.120	1.030
2020/01/31 03:56:19.6	93.540	-0.250	0.050	0.980
2020/01/31 03:56:19.7	93.540	-0.220	-0.020	0.930
2020/01/31 03:56:19.8	93.550	-0.180	-0.100	0.880
2020/01/31 03:56:19.9	93.560	-0.140	-0.170	0.820
2020/01/31 03:56:20.0	93.570	-0.100	-0.240	0.770
2020/01/31 03:56:20.1	93.580	-0.050	-0.320	0.720
2020/01/31 03:56:20.2	93.590	-0.010	-0.390	0.670
2020/01/31 03:56:20.3	93.590	0.040	-0.460	0.620
2020/01/31 03:56:20.4	93.600	0.090	-0.530	0.580
2020/01/31 03:56:20.5	93.600	0.140	-0.600	0.540
2020/01/31 03:56:20.6	93.610	0.180	-0.660	0.510
2020/01/31 03:56:20.7	93.610	0.230	-0.720	0.480
2020/01/31 03:56:20.8	93.610	0.280	-0.770	0.450
2020/01/31 03:56:20.9	93.610	0.330	-0.820	0.430
2020/01/31 03:56:21.0	93.610	0.370	-0.870	0.410
2020/01/31 03:56:21.1	93.620	0.420	-0.920	0.400
2020/01/31 03:56:21.2	93.620	0.460	-0.950	0.390
2020/01/31 03:56:21.3	93.620	0.500	-0.980	0.390
2020/01/31 03:56:21.4	93.620	0.540	-1.000	0.390
2020/01/31 03:56:21.5	93.620	0.570	-1.020	0.390
2020/01/31 03:56:21.6	93.610	0.600	-1.030	0.400
2020/01/31 03:56:21.7	93.610	0.630	-1.040	0.410
2020/01/31 03:56:21.8	93.610	0.650	-1.040	0.430
2020/01/31 03:56:21.9	93.600	0.660	-1.030	0.450
2020/01/31 03:56:22.0	93.600	0.680	-1.020	0.470
2020/01/31 03:56:22.1	93.590	0.680	-0.990	0.490
2020/01/31 03:56:22.2	93.580	0.680	-0.970	0.510
2020/01/31 03:56:22.3	93.560	0.680	-0.930	0.540
2020/01/31 03:56:22.4	93.550	0.670	-0.900	0.560
2020/01/31 03:56:22.5	93.540	0.650	-0.850	0.590
2020/01/31 03:56:22.6	93.520	0.630	-0.810	0.610
2020/01/31 03:56:22.7	93.510	0.610	-0.750	0.640
2020/01/31 03:56:22.8	93.490	0.570	-0.700	0.660
2020/01/31 03:56:22.9	93.480	0.540	-0.640	0.680
2020/01/31 03:56:23.0	93.460	0.500	-0.580	0.690
2020/01/31 03:56:23.1	93.440	0.450	-0.510	0.710
2020/01/31 03:56:23.2	93.430	0.400	-0.450	0.720
2020/01/31 03:56:23.3	93.410	0.350	-0.380	0.720
2020/01/31 03:56:23.4	93.400	0.300	-0.310	0.730
2020/01/31 03:56:23.5	93.380	0.240	-0.250	0.730
2020/01/31 03:56:23.6	93.370	0.180	-0.180	0.730
2020/01/31 03:56:23.7	93.360	0.120	-0.110	0.720
2020/01/31 03:56:23.8	93.340	0.060	-0.050	0.720
2020/01/31 03:56:23.9	93.340	-0.010	0.020	0.710
2020/01/31 03:56:24.0	93.330	-0.070	0.080	0.700
2020/01/31 03:56:24.1	93.320	-0.130	0.130	0.680
2020/01/31 03:56:24.2	93.320	-0.190	0.190	0.670
2020/01/31 03:56:24.3	93.320	-0.240	0.240	0.660
2020/01/31 03:56:24.4	93.320	-0.300	0.280	0.650
2020/01/31 03:56:24.5	93.320	-0.350	0.330	0.630
2020/01/31 03:56:24.6	93.330	-0.390	0.360	0.620
2020/01/31 03:56:24.7	93.340	-0.440	0.400	0.610
2020/01/31 03:56:24.8	93.350	-0.480	0.420	0.600
2020/01/31 03:56:24.9	93.360	-0.510	0.450	0.600
2020/01/31 03:56:25.0	93.380	-0.540	0.460	0.590
2020/01/31 03:56:25.1	93.400	-0.570	0.480	0.590
2020/01/31 03:56:25.2	93.420	-0.590	0.480	0.590
2020/01/31 03:56:25.3	93.440	-0.610	0.480	0.590
2020/01/31 03:56:25.4	93.460	-0.620	0.480	0.590
2020/01/31 03:56:25.5	93.470	-0.630	0.470	0.600
2020/01/31 03:56:25.6	93.490	-0.640	0.460	0.610
2020/01/31 03:56:25.7	93.510	-0.640	0.440	0.620
2020/01/31 03:56:25.8	93.530	-0.630	0.420	0.630
2020/01/31 03:56:25.9	93.540	-0.620	0.390	0.640
2020/01/31 03:56:26.0	93.560	-0.610	0.360	0.660
2020/01/31 03:56:26.1	93.570	-0.590	0.310	0.680
2020/01/31 03:56:26.2	93.580	-0.570	0.270	0.700
2020/01/31 03:56:26.3	93.590	-0.550	0.230	0.720
2020/01/31 03:56:26.4	93.600	-0.520	0.180	0.740
2020/01/31 03:56:26.5	93.600	-0.490	0.130	0.770
2020/01/31 03:56:26.6	93.600	-0.460	0.070	0.790
2020/01/31 03:56:26.7	93.600	-0.430	0.010	0.820
2020/01/31 03:56:26.8	93.600	-0.390	-0.050	0.840
2020/01/31 03:56:26.9	93.600	-0.360	-0.100	0.870
2020/01/31 03:56:27.0	93.600	-0.320	-0.170	0.890
2020/01/31 03:56:27.1	93.590	-0.290	-0.220	0.920
2020/01/31 03:56:27.2	93.580	-0.250	-0.280	0.950
2020/01/31 03:56:27.3	93.580	-0.210	-0.340	0.980
2020/01/31 03:56:27.4	93.570	-0.180	-0.400	1.000
2020/01/31 03:56:27.5	93.550	-0.140	-0.450	1.030
2020/01/31 03:56:27.6	93.540	-0.110	-0.500	1.060
2020/01/31 03:56:27.7	93.530	-0.080	-0.540	1.080
2020/01/31 03:56:27.8	93.510	-0.050	-0.580	1.110
2020/01/31 03:56:27.9	93.500	-0.020	-0.620	1.130
2020/01/31 03:56:28.0	93.480	-0.000	-0.650	1.150
2020/01/31 03:56:28.1	93.460	0.020	-0.680	1.170
2020/01/31 03:56:28.2	93.440	0.040	-0.700	1.190
2020/01/31 03:56:28.3	93.430	0.050	-0.720	1.210
2020/01/31 03:56:28.4	93.410	0.060	-0.730	1.230
2020/01/31 03:56:28.5	93.390	0.070	-0.730	1.250
2020/01/31 03:56:28.6	93.370	0.070	-0.730	1.260
2020/01/31 03:56:28.7	93.350	0.080	-0.720	1.270
2020/01/31 03:56:28.8	93.330	0.070	-0.710	1.280
2020/01/31 03:56:28.9	93.310	0.070	-0.690	1.280
2020/01/31 03:56:29.0	93.290	0.060	-0.660	1.280
2020/01/31 03:56:29.1	93.270	0.050	-0.630	1.280
2020/01/31 03:56:29.2	93.260	0.040	-0.600	1.270
2020/01/31 03:56:29.3	93.240	0.020	-0.560	1.260
2020/01/31 03:56:29.4	93.230	0.010	-0.520	1.240
2020/01/31 03:56:29.5	93.210	-0.010	-0.470	1.220
2020/01/31 03:56:29.6	93.200	-0.030	-0.420	1.190
2020/01/31 03:56:29.7	93.190	-0.050	-0.370	1.160
2020/01/31 03:56:29.8	93.180	-0.070	-0.320	1.120
2020/01/31 03:56:29.9	93.170	-0.090	-0.270	1.080
2020/01/31 03:56:30.0	93.160	-0.110	-0.210	1.040
2020/01/31 03:56:30.1	93.150	-0.130	-0.150	1.000
2020/01/31 03:56:30.2	93.140	-0.150	-0.100	0.950
2020/01/31 03:56:30.3	93.140	-0.160	-0.050	0.900
2020/01/31 03:56:30.4	93.140	-0.180	-0.000	0.850
2020/01/31 03:56:30.5	93.130	-0.190	0.040	0.800
2020/01/31 03:56:30.6	93.130	-0.190	0.080	0.750
2020/01/31 03:56:30.7	93.130	-0.200	0.120	0.700
2020/01/31 03:56:30.8	93.130	-0.190	0.150	0.640
2020/01/31 03:56:30.9	93.140	-0.190	0.170	0.590
2020/01/31 03:56:31.0	93.140	-0.180	0.190	0.550
2020/01/31 03:56:31.1	93.140	-0.160	0.200	0.500
2020/01/31 03:56:31.2	93.140	-0.140	0.200	0.450
2020/01/31 03:56:31.3	93.150	-0.120	0.190	0.410
2020/01/31 03:56:31.4	93.150	-0.090	0.170	0.370
2020/01/31 03:56:31.5	93.150	-0.050	0.150	0.330
2020/01/31 03:56:31.6	93.150	-0.010	0.110	0.290
2020/01/31 03:56:31.7	93.150	0.030	0.070	0.260
2020/01/31 03:56:31.8	93.150	0.080	0.020	0.230
2020/01/31 03:56:31.9	93.160	0.130	-0.030	0.210
2020/01/31 03:56:32.0	93.160	0.190	-0.100	0.180
2020/01/31 03:56:32.1	93.170	0.250	-0.170	0.160
2020/01/31 03:56:32.2	93.170	0.310	-0.240	0.140
2020/01/31 03:56:32.3	93.170	0.380	-0.320	0.130
2020/01/31 03:56:32.4	93.180	0.440	-0.400	0.120
2020/01/31 03:56:32.5	93.180	0.510	-0.480	0.110
2020/01/31 03:56:32.6	93.180	0.570	-0.560	0.100
2020/01/31 03:56:32.7	93.180	0.630	-0.640	0.100
2020/01/31 03:56:32.8	93.190	0.690	-0.710	0.100
2020/01/31 03:56:32.9	93.190	0.750	-0.780	0.100
2020/01/31 03:56:33.0	93.190	0.810	-0.850	0.110
2020/01/31 03:56:33.1	93.190	0.860	-0.910	0.120
2020/01/31 03:56:33.2	93.190	0.900	-0.960	0.130
2020/01/31 03:56:33.3	93.190	0.940	-1.010	0.140
2020/01/31 03:56:33.4	93.200	0.970	-1.040	0.160
2020/01/31 03:56:33.5	93.200	0.990	-1.060	0.170
2020/01/31 03:56:33.6	93.200	1.000	-1.070	0.190
2020/01/31 03:56:33.7	93.200	1.010	-1.060	0.210
2020/01/31 03:56:33.8	93.210	1.010	-1.050	0.230
2020/01/31 03:56:33.9	93.210	0.990	-1.020	0.250
2020/01/31 03:56:34.0	93.210	0.970	-0.980	0.280
2020/01/31 03:56:34.1	93.220	0.940	-0.930	0.300
2020/01/31 03:56:34.2	93.220	0.900	-0.860	0.330
2020/01/31 03:56:34.3	93.220	0.860	-0.790	0.360
2020/01/31 03:56:34.4	93.230	0.800	-0.700	0.390
2020/01/31 03:56:34.5	93.230	0.740	-0.610	0.430
2020/01/31 03:56:34.6	93.230	0.660	-0.500	0.460
2020/01/31 03:56:34.7	93.230	0.590	-0.390	0.500
2020/01/31 03:56:34.8	93.230	0.500	-0.270	0.530
2020/01/31 03:56:34.9	93.230	0.410	-0.150	0.570
2020/01/31 03:56:35.0	93.230	0.310	-0.020	0.610
2020/01/31 03:56:35.1	93.220	0.210	0.110	0.650
2020/01/31 03:56:35.2	93.220	0.110	0.240	0.690
2020/01/31 03:56:35.3	93.220	0.000	0.380	0.730
2020/01/31 03:56:35.4	93.220	-0.110	0.500	0.770
2020/01/31 03:56:35.5	93.210	-0.220	0.630	0.810
2020/01/31 03:56:35.6	93.200	-0.320	0.750	0.850
2020/01/31 03:56:35.7	93.190	-0.430	0.870	0.890
2020/01/31 03:56:35.8	93.180	-0.530	0.980	0.930
2020/01/31 03:56:35.9	93.160	-0.630	1.070	0.980
2020/01/31 03:56:36.0	93.150	-0.730	1.160	1.020
2020/01/31 03:56:36.1	93.120	-0.820	1.250	1.060
2020/01/31 03:56:36.2	93.100	-0.900	1.310	1.100
2020/01/31 03:56:36.3	93.080	-0.980	1.360	1.140
2020/01/31 03:56:36.4	93.060	-1.040	1.400	1.180
2020/01/31 03:56:36.5	93.040	-1.100	1.410	1.220
2020/01/31 03:56:36.6	93.020	-1.150	1.420	1.250
2020/01/31 03:56:36.7	92.990	-1.190	1.400	1.280
2020/01/31 03:56:36.8	92.970	-1.220	1.370	1.310
2020/01/31 03:56:36.9	92.950	-1.240	1.320	1.330
2020/01/31 03:56:37.0	92.930	-1.250	1.260	1.350
2020/01/31 03:56:37.1	92.910	-1.250	1.170	1.370
2020/01/31 03:56:37.2	92.900	-1.230	1.080	1.380
2020/01/31 03:56:37.3	92.890	-1.210	0.960	1.390
2020/01/31 03:56:37.4	92.880	-1.170	0.840	1.390
2020/01/31 03:56:37.5	92.880	-1.130	0.700	1.390
2020/01/31 03:56:37.6	92.870	-1.070	0.550	1.390
2020/01/31 03:56:37.7	92.880	-1.010	0.380	1.380
2020/01/31 03:56:37.8	92.880	-0.940	0.220	1.370
2020/01/31 03:56:37.9	92.890	-0.860	0.040	1.360
2020/01/31 03:56:38.0	92.900	-0.780	-0.140	1.350
2020/01/31 03:56:38.1	92.910	-0.690	-0.330	1.330
2020/01/31 03:56:38.2	92.920	-0.600	-0.510	1.310
2020/01/31 03:56:38.3	92.930	-0.500	-0.690	1.290
2020/01/31 03:56:38.4	92.950	-0.400	-0.860	1.270
2020/01/31 03:56:38.5	92.960	-0.300	-1.030	1.250
2020/01/31 03:56:38.6	92.980	-0.200	-1.200	1.220
2020/01/31 03:56:38.7	92.990	-0.100	-1.350	1.200
2020/01/31 03:56:38.8	93.010	0.000	-1.490	1.170
2020/01/31 03:56:38.9	93.020	0.100	-1.630	1.150
2020/01/31 03:56:39.0	93.030	0.200	-1.740	1.120
2020/01/31 03:56:39.1	93.050	0.290	-1.840	1.100
2020/01/31 03:56:39.2	93.060	0.370	-1.920	1.070
2020/01/31 03:56:39.3	93.070	0.450	-1.990	1.050
2020/01/31 03:56:39.4	93.070	0.520	-2.040	1.020
2020/01/31 03:56:39.5	93.070	0.590	-2.070	1.000
2020/01/31 03:56:39.6	93.080	0.640	-2.080	0.980
2020/01/31 03:56:39.7	93.070	0.690	-2.070	0.950
2020/01/31 03:56:39.8	93.070	0.730	-2.040	0.940
2020/01/31 03:56:39.9	93.070	0.760	-1.980	0.920
2020/01/31 03:56:40.0	93.060	0.780	-1.910	0.900
2020/01/31 03:56:40.1	93.050	0.790	-1.830	0.890
2020/01/31 03:56:40.2	93.040	0.800	-1.720	0.880
2020/01/31 03:56:40.3	93.030	0.790	-1.600	0.880
2020/01/31 03:56:40.4	93.010	0.780	-1.470	0.880
2020/01/31 03:56:40.5	93.000	0.750	-1.320	0.880
2020/01/31 03:56:40.6	92.980	0.720	-1.160	0.880
2020/01/31 03:56:40.7	92.960	0.680	-0.990	0.890
2020/01/31 03:56:40.8	92.940	0.640	-0.810	0.890
2020/01/31 03:56:40.9	92.920	0.590	-0.630	0.900
2020/01/31 03:56:41.0	92.900	0.530	-0.450	0.910
2020/01/31 03:56:41.1	92.880	0.470	-0.250	0.920
2020/01/31 03:56:41.2	92.850	0.400	-0.070	0.930
2020/01/31 03:56:41.3	92.830	0.330	0.110	0.940
2020/01/31 03:56:41.4	92.810	0.260	0.290	0.950
2020/01/31 03:56:41.5	92.780	0.190	0.460	0.960
2020/01/31 03:56:41.6	92.760	0.110	0.620	0.960
2020/01/31 03:56:41.7	92.740	0.040	0.770	0.970
2020/01/31 03:56:41.8	92.720	-0.030	0.910	0.970
2020/01/31 03:56:41.9	92.700	-0.100	1.030	0.970
2020/01/31 03:56:42.0	92.680	-0.170	1.140	0.970
2020/01/31 03:56:42.1	92.660	-0.230	1.240	0.960
2020/01/31 03:56:42.2	92.640	-0.280	1.320	0.950
2020/01/31 03:56:42.3	92.630	-0.330	1.380	0.930
2020/01/31 03:56:42.4	92.620	-0.380	1.420	0.920
2020/01/31 03:56:42.5	92.610	-0.420	1.440	0.900
2020/01/31 03:56:42.6	92.600	-0.450	1.450	0.870
2020/01/31 03:56:42.7	92.600	-0.470	1.440	0.850
2020/01/31 03:56:42.8	92.590	-0.490	1.410	0.820
2020/01/31 03:56:42.9	92.590	-0.490	1.360	0.790
2020/01/31 03:56:43.0	92.590	-0.490	1.300	0.760
2020/01/31 03:56:43.1	92.590	-0.490	1.220	0.730
2020/01/31 03:56:43.2	92.590	-0.470	1.130	0.700
2020/01/31 03:56:43.3	92.600	-0.450	1.030	0.660
2020/01/31 03:56:43.4	92.600	-0.420	0.920	0.630
2020/01/31 03:56:43.5	92.610	-0.390	0.800	0.590
2020/01/31 03:56:43.6	92.610	-0.350	0.670	0.560
2020/01/31 03:56:43.7	92.620	-0.310	0.540	0.530
2020/01/31 03:56:43.8	92.630	-0.260	0.400	0.490
2020/01/31 03:56:43.9	92.640	-0.210	0.260	0.460
2020/01/31 03:56:44.0	92.650	-0.150	0.120	0.430
2020/01/31 03:56:44.1	92.650	-0.100	-0.030	0.400
2020/01/31 03:56:44.2	92.660	-0.040	-0.170	0.370
2020/01/31 03:56:44.3	92.660	0.020	-0.300	0.350
2020/01/31 03:56:44.4	92.670	0.070	-0.430	0.330
2020/01/31 03:56:44.5	92.670	0.130	-0.550	0.310
2020/01/31 03:56:44.6	92.670	0.180	-0.670	0.290
2020/01/31 03:56:44.7	92.670	0.230	-0.780	0.280
2020/01/31 03:56:44.8	92.670	0.270	-0.880	0.270
2020/01/31 03:56:44.9	92.660	0.320	-0.970	0.260
2020/01/31 03:56:45.0	92.660	0.360	-1.050	0.250
2020/01/31 03:56:45.1	92.650	0.390	-1.110	0.250
2020/01/31 03:56:45.2	92.650	0.420	-1.170	0.250
2020/01/31 03:56:45.3	92.640	0.440	-1.220	0.260
2020/01/31 03:56:45.4	92.640	0.460	-1.260	0.260
2020/01/31 03:56:45.5	92.630	0.470	-1.280	0.280
2020/01/31 03:56:45.6	92.630	0.480	-1.300	0.290
2020/01/31 03:56:45.7	92.620	0.480	-1.300	0.310
2020/01/31 03:56:45.8	92.610	0.480	-1.300	0.330
2020/01/31 03:56:45.9	92.610	0.470	-1.290	0.360
2020/01/31 03:56:46.0	92.600	0.450	-1.260	0.390
2020/01/31 03:56:46.1	92.600	0.430	-1.230	0.420
2020/01/31 03:56:46.2	92.600	0.400	-1.190	0.460
2020/01/31 03:56:46.3	92.600	0.370	-1.140	0.500
2020/01/31 03:56:46.4	92.600	0.340	-1.090	0.540
2020/01/31 03:56:46.5	92.600	0.300	-1.030	0.590
2020/01/31 03:56:46.6	92.600	0.260	-0.960	0.630
2020/01/31 03:56:46.7	92.600	0.220	-0.890	0.680
2020/01/31 03:56:46.8	92.600	0.180	-0.820	0.730
2020/01/31 03:56:46.9	92.610	0.130	-0.750	0.780
2020/01/31 03:56:47.0	92.610	0.090	-0.670	0.830
2020/01/31 03:56:47.1	92.630	0.040	-0.580	0.890
2020/01/31 03:56:47.2	92.630	-0.010	-0.500	0.940
2020/01/31 03:56:47.3	92.640	-0.050	-0.420	1.000
2020/01/31 03:56:47.4	92.650	-0.100	-0.340	1.050
2020/01/31 03:56:47.5	92.650	-0.140	-0.270	1.110
2020/01/31 03:56:47.6	92.650	-0.180	-0.190	1.160
2020/01/31 03:56:47.7	92.660	-0.220	-0.120	1.210
2020/01/31 03:56:47.8	92.660	-0.250	-0.050	1.270
2020/01/31 03:56:47.9	92.650	-0.290	0.020	1.310
2020/01/31 03:56:48.0	92.650	-0.320	0.080	1.360
2020/01/31 03:56:48.1	92.640	-0.340	0.140	1.410
2020/01/31 03:56:48.2	92.640	-0.370	0.190	1.450
2020/01/31 03:56:48.3	92.630	-0.390	0.240	1.480
2020/01/31 03:56:48.4	92.620	-0.400	0.280	1.520
2020/01/31 03:56:48.5	92.610	-0.410	0.320	1.550
2020/01/31 03:56:48.6	92.600	-0.420	0.360	1.570
2020/01/31 03:56:48.7	92.580	-0.430	0.390	1.590
2020/01/31 03:56:48.8	92.570	-0.430	0.410	1.600
2020/01/31 03:56:48.9	92.550	-0.430	0.440	1.610
2020/01/31 03:56:49.0	92.540	-0.420	0.450	1.610
2020/01/31 03:56:49.1	92.510	-0.420	0.470	1.600
2020/01/31 03:56:49.2	92.500	-0.410	0.480	1.600
2020/01/31 03:56:49.3	92.480	-0.400	0.480	1.590
2020/01/31 03:56:49.4	92.460	-0.380	0.480	1.570
2020/01/31 03:56:49.5	92.440	-0.360	0.480	1.560
2020/01/31 03:56:49.6	92.430	-0.350	0.470	1.540
2020/01/31 03:56:49.7	92.410	-0.320	0.450	1.520
2020/01/31 03:56:49.8	92.390	-0.300	0.430	1.500
2020/01/31 03:56:49.9	92.380	-0.280	0.410	1.480
2020/01/31 03:56:50.0	92.360	-0.250	0.380	1.460
2020/01/31 03:56:50.1	92.350	-0.220	0.350	1.450
2020/01/31 03:56:50.2	92.330	-0.190	0.310	1.430
2020/01/31 03:56:50.3	92.320	-0.160	0.260	1.410
2020/01/31 03:56:50.4	92.320	-0.120	0.210	1.390
2020/01/31 03:56:50.5	92.310	-0.090	0.160	1.370
2020/01/31 03:56:50.6	92.310	-0.050	0.100	1.350
2020/01/31 03:56:50.7	92.300	-0.010	0.030	1.340
2020/01/31 03:56:50.8	92.310	0.030	-0.030	1.320
2020/01/31 03:56:50.9	92.310	0.070	-0.110	1.290
2020/01/31 03:56:51.0	92.320	0.110	-0.180	1.270
2020/01/31 03:56:51.1	92.330	0.150	-0.260	1.240
2020/01/31 03:56:51.2	92.350	0.190	-0.340	1.210
2020/01/31 03:56:51.3	92.370	0.230	-0.420	1.180
2020/01/31 03:56:51.4	92.390	0.270	-0.500	1.150
2020/01/31 03:56:51.5	92.420	0.310	-0.580	1.110
2020/01/31 03:56:51.6	92.450	0.350	-0.650	1.070
2020/01/31 03:56:51.7	92.480	0.380	-0.730	1.020
2020/01/31 03:56:51.8	92.520	0.420	-0.800	0.970
2020/01/31 03:56:51.9	92.550	0.450	-0.860	0.920
2020/01/31 03:56:52.0	92.590	0.480	-0.920	0.870
2020/01/31 03:56:52.1	92.630	0.510	-0.980	0.830
2020/01/31 03:56:52.2	92.670	0.540	-1.020	0.770
2020/01/31 03:56:52.3	92.700	0.560	-1.060	0.720
2020/01/31 03:56:52.4	92.740	0.570	-1.080	0.670
2020/01/31 03:56:52.5	92.770	0.590	-1.100	0.610
2020/01/31 03:56:52.6	92.800	0.590	-1.100	0.560
2020/01/31 03:56:52.7	92.830	0.600	-1.090	0.510
2020/01/31 03:56:52.8	92.850	0.600	-1.070	0.470
2020/01/31 03:56:52.9	92.880	0.590	-1.040	0.420
2020/01/31 03:56:53.0	92.890	0.580	-1.000	0.380
2020/01/31 03:56:53.1	92.900	0.570	-0.940	0.350
2020/01/31 03:56:53.2	92.920	0.550	-0.870	0.320
2020/01/31 03:56:53.3	92.920	0.520	-0.790	0.290
2020/01/31 03:56:53.4	92.930	0.500	-0.700	0.270
2020/01/31 03:56:53.5	92.930	0.460	-0.600	0.260
2020/01/31 03:56:53.6	92.930	0.430	-0.500	0.260
2020/01/31 03:56:53.7	92.920	0.380	-0.380	0.260
2020/01/31 03:56:53.8	92.910	0.340	-0.260	0.270
2020/01/31 03:56:53.9	92.910	0.290	-0.140	0.280
2020/01/31 03:56:54.0	92.890	0.240	-0.020	0.300
2020/01/31 03:56:54.1	92.890	0.190	0.110	0.330
2020/01/31 03:56:54.2	92.870	0.130	0.240	0.360
2020/01/31 03:56:54.3	92.860	0.070	0.360	0.390
2020/01/31 03:56:54.4	92.840	0.020	0.480	0.430
2020/01/31 03:56:54.5	92.830	-0.040	0.590	0.470
2020/01/31 03:56:54.6	92.810	-0.100	0.700	0.510
2020/01/31 03:56:54.7	92.790	-0.160	0.790	0.560
2020/01/31 03:56:54.8	92.780	-0.220	0.870	0.600
2020/01/31 03:56:54.9	92.760	-0.270	0.950	0.640
2020/01/31 03:56:55.0	92.750	-0.320	1.010	0.690
2020/01/31 03:56:55.1	92.720	-0.370	1.060	0.730
2020/01/31 03:56:55.2	92.710	-0.420	1.090	0.780
2020/01/31 03:56:55.3	92.690	-0.460	1.100	0.820
2020/01/31 03:56:55.4	92.680	-0.500	1.100	0.860
2020/01/31 03:56:55.5	92.660	-0.530	1.090	0.890
2020/01/31 03:56:55.6	92.650	-0.560	1.060	0.930
2020/01/31 03:56:55.7	92.640	-0.590	1.020	0.960
2020/01/31 03:56:55.8	92.630	-0.610	0.960	0.990
2020/01/31 03:56:55.9	92.610	-0.620	0.890	1.010
2020/01/31 03:56:56.0	92.600	-0.630	0.800	1.030
2020/01/31 03:56:56.1	92.590	-0.640	0.700	1.050
2020/01/31 03:56:56.2	92.590	-0.640	0.600	1.050
2020/01/31 03:56:56.3	92.580	-0.630	0.480	1.060
2020/01/31 03:56:56.4	92.580	-0.620	0.350	1.060
2020/01/31 03:56:56.5	92.580	-0.600	0.220	1.050
2020/01/31 03:56:56.6	92.580	-0.580	0.090	1.040
2020/01/31 03:56:56.7	92.580	-0.560	-0.050	1.030
2020/01/31 03:56:56.8	92.590	-0.530	-0.200	1.010
2020/01/31 03:56:56.9	92.600	-0.500	-0.340	1.000
2020/01/31 03:56:57.0	92.610	-0.470	-0.480	0.970
2020/01/31 03:56:57.1	92.620	-0.430	-0.630	0.950
2020/01/31 03:56:57.2	92.640	-0.380	-0.770	0.930
2020/01/31 03:56:57.3	92.650	-0.340	-0.910	0.900
2020/01/31 03:56:57.4	92.670	-0.290	-1.040	0.880
2020/01/31 03:56:57.5	92.690	-0.240	-1.160	0.860
2020/01/31 03:56:57.6	92.700	-0.190	-1.270	0.850
2020/01/31 03:56:57.7	92.720	-0.140	-1.370	0.830
2020/01/31 03:56:57.8	92.740	-0.090	-1.470	0.820
2020/01/31 03:56:57.9	92.750	-0.040	-1.550	0.820
2020/01/31 03:56:58.0	92.760	0.010	-1.610	0.810
2020/01/31 03:56:58.1	92.780	0.060	-1.670	0.820
2020/01/31 03:56:58.2	92.790	0.110	-1.710	0.830
2020/01/31 03:56:58.3	92.790	0.160	-1.730	0.840
2020/01/31 03:56:58.4	92.790	0.200	-1.740	0.860
2020/01/31 03:56:58.5	92.790	0.240	-1.740	0.870
2020/01/31 03:56:58.6	92.790	0.280	-1.720	0.900
2020/01/31 03:56:58.7	92.780	0.310	-1.690	0.920
2020/01/31 03:56:58.8	92.770	0.340	-1.640	0.940
2020/01/31 03:56:58.9	92.760	0.370	-1.580	0.970
2020/01/31 03:56:59.0	92.750	0.390	-1.510	1.000
2020/01/31 03:56:59.1	92.740	0.410	-1.430	1.030
2020/01/31 03:56:59.2	92.730	0.420	-1.340	1.050
2020/01/31 03:56:59.3	92.710	0.420	-1.230	1.080
2020/01/31 03:56:59.4	92.700	0.420	-1.120	1.110
2020/01/31 03:56:59.5	92.680	0.420	-1.000	1.130
2020/01/31 03:56:59.6	92.670	0.410	-0.880	1.150
2020/01/31 03:56:59.7	92.650	0.400	-0.750	1.170
2020/01/31 03:56:59.8	92.640	0.380	-0.620	1.190
2020/01/31 03:56:59.9	92.630	0.360	-0.490	1.210
2020/01/31 03:57:00.0	92.620	0.330	-0.360	1.220
2020/01/31 03:57:00.1	92.620	0.300	-0.230	1.240
2020/01/31 03:57:00.2	92.620	0.270	-0.100	1.240
2020/01/31 03:57:00.3	92.610	0.240	0.020	1.250
2020/01/31 03:57:00.4	92.610	0.200	0.140	1.250
2020/01/31 03:57:00.5	92.610	0.160	0.250	1.250
2020/01/31 03:57:00.6	92.610	0.120	0.360	1.250
2020/01/31 03:57:00.7	92.620	0.080	0.460	1.240
2020/01/31 03:57:00.8	92.620	0.040	0.550	1.230
2020/01/31 03:57:00.9	92.630	0.000	0.630	1.210
2020/01/31 03:57:01.0	92.640	-0.030	0.700	1.190
2020/01/31 03:57:01.1	92.640	-0.070	0.770	1.160
2020/01/31 03:57:01.2	92.650	-0.110	0.830	1.130
2020/01/31 03:57:01.3	92.670	-0.140	0.870	1.100
2020/01/31 03:57:01.4	92.690	-0.170	0.910	1.060
2020/01/31 03:57:01.5	92.700	-0.200	0.930	1.020
2020/01/31 03:57:01.6	92.720	-0.230	0.950	0.980
2020/01/31 03:57:01.7	92.750	-0.250	0.960	0.930
2020/01/31 03:57:01.8	92.770	-0.270	0.950	0.890
2020/01/31 03:57:01.9	92.790	-0.280	0.940	0.830
2020/01/31 03:57:02.0	92.820	-0.290	0.920	0.780
2020/01/31 03:57:02.1	92.850	-0.300	0.900	0.730
2020/01/31 03:57:02.2	92.880	-0.300	0.870	0.680
2020/01/31 03:57:02.3	92.900	-0.300	0.820	0.620
2020/01/31 03:57:02.4	92.930	-0.300	0.770	0.570
2020/01/31 03:57:02.5	92.960	-0.290	0.720	0.520
2020/01/31 03:57:02.6	92.980	-0.270	0.660	0.460
2020/01/31 03:57:02.7	93.010	-0.250	0.590	0.410
2020/01/31 03:57:02.8	93.030	-0.230	0.520	0.370
2020/01/31 03:57:02.9	93.060	-0.210	0.440	0.320
2020/01/31 03:57:03.0	93.080	-0.180	0.360	0.290
2020/01/31 03:57:03.1	93.090	-0.140	0.270	0.240
2020/01/31 03:57:03.2	93.110	-0.110	0.190	0.210
2020/01/31 03:57:03.3	93.120	-0.070	0.100	0.190
2020/01/31 03:57:03.4	93.130	-0.030	0.010	0.160
2020/01/31 03:57:03.5	93.130	0.010	-0.080	0.150
2020/01/31 03:57:03.6	93.130	0.050	-0.160	0.130
2020/01/31 03:57:03.7	93.130	0.100	-0.250	0.120
2020/01/31 03:57:03.8	93.130	0.140	-0.330	0.120
2020/01/31 03:57:03.9	93.130	0.180	-0.410	0.120
2020/01/31 03:57:04.0	93.120	0.230	-0.490	0.120
2020/01/31 03:57:04.1	93.110	0.270	-0.550	0.130
2020/01/31 03:57:04.2	93.100	0.310	-0.620	0.150
2020/01/31 03:57:04.3	93.080	0.350	-0.680	0.160
2020/01/31 03:57:04.4	93.060	0.380	-0.740	0.180
2020/01/31 03:57:04.5	93.040	0.420	-0.780	0.200
2020/01/31 03:57:04.6	93.020	0.440	-0.830	0.220
2020/01/31 03:57:04.7	93.000	0.470	-0.860	0.250
2020/01/31 03:57:04.8	92.970	0.490	-0.880	0.280
2020/01/31 03:57:04.9	92.950	0.510	-0.900	0.310
2020/01/31 03:57:05.0	92.920	0.520	-0.910	0.350
2020/01/31 03:57:05.1	92.900	0.530	-0.910	0.380
2020/01/31 03:57:05.2	92.870	0.540	-0.900	0.420
2020/01/31 03:57:05.3	92.850	0.530	-0.890	0.450
2020/01/31 03:57:05.4	92.820	0.530	-0.870	0.490
2020/01/31 03:57:05.5	92.800	0.520	-0.840	0.520
2020/01/31 03:57:05.6	92.770	0.500	-0.810	0.560
2020/01/31 03:57:05.7	92.750	0.490	-0.770	0.590
2020/01/31 03:57:05.8	92.730	0.460	-0.730	0.630
2020/01/31 03:57:05.9	92.720	0.440	-0.680	0.660
2020/01/31 03:57:06.0	92.710	0.400	-0.630	0.690
2020/01/31 03:57:06.1	92.700	0.370	-0.570	0.710
2020/01/31 03:57:06.2	92.690	0.330	-0.520	0.740
2020/01/31 03:57:06.3	92.690	0.290	-0.470	0.760
2020/01/31 03:57:06.4	92.700	0.250	-0.410	0.780
2020/01/31 03:57:06.5	92.700	0.210	-0.360	0.790
2020/01/31 03:57:06.6	92.710	0.170	-0.310	0.810
2020/01/31 03:57:06.7	92.720	0.120	-0.260	0.820
2020/01/31 03:57:06.8	92.740	0.080	-0.210	0.830
2020/01/31 03:57:06.9	92.750	0.030	-0.170	0.830
2020/01/31 03:57:07.0	92.770	-0.010	-0.130	0.840
2020/01/31 03:57:07.1	92.800	-0.050	-0.090	0.840
2020/01/31 03:57:07.2	92.820	-0.090	-0.060	0.850
2020/01/31 03:57:07.3	92.850	-0.130	-0.030	0.850
2020/01/31 03:57:07.4	92.870	-0.170	-0.010	0.860
2020/01/31 03:57:07.5	92.900	-0.200	0.010	0.860
2020/01/31 03:57:07.6	92.920	-0.230	0.020	0.870
2020/01/31 03:57:07.7	92.950	-0.250	0.030	0.880
2020/01/31 03:57:07.8	92.970	-0.270	0.040	0.880
2020/01/31 03:57:07.9	93.000	-0.290	0.040	0.890
2020/01/31 03:57:08.0	93.020	-0.310	0.030	0.910
2020/01/31 03:57:08.1	93.040	-0.320	0.020	0.920
2020/01/31 03:57:08.2	93.060	-0.320	0.010	0.940
2020/01/31 03:57:08.3	93.080	-0.320	-0.010	0.950
2020/01/31 03:57:08.4	93.100	-0.320	-0.020	0.970
2020/01/31 03:57:08.5	93.110	-0.310	-0.050	0.990
2020/01/31 03:57:08.6	93.130	-0.300	-0.070	1.010
2020/01/31 03:57:08.7	93.140	-0.290	-0.090	1.030
2020/01/31 03:57:08.8	93.150	-0.280	-0.120	1.050
2020/01/31 03:57:08.9	93.160	-0.260	-0.140	1.070
2020/01/31 03:57:09.0	93.170	-0.230	-0.170	1.090
2020/01/31 03:57:09.1	93.180	-0.210	-0.190	1.110
2020/01/31 03:57:09.2	93.190	-0.190	-0.220	1.130
2020/01/31 03:57:09.3	93.200	-0.160	-0.250	1.150
2020/01/31 03:57:09.4	93.200	-0.130	-0.280	1.170
2020/01/31 03:57:09.5	93.210	-0.110	-0.300	1.190
2020/01/31 03:57:09.6	93.210	-0.080	-0.330	1.210
2020/01/31 03:57:09.7	93.210	-0.050	-0.350	1.230
2020/01/31 03:57:09.8	93.210	-0.030	-0.380	1.240
2020/01/31 03:57:09.9	93.210	-0.000	-0.400	1.260
2020/01/31 03:57:10.0	93.210	0.020	-0.420	1.280
2020/01/31 03:57:10.1	93.200	0.040	-0.430	1.290
2020/01/31 03:57:10.2	93.200	0.060	-0.450	1.310
2020/01/31 03:57:10.3	93.190	0.080	-0.460	1.330
2020/01/31 03:57:10.4	93.170	0.090	-0.460	1.350
2020/01/31 03:57:10.5	93.160	0.100	-0.460	1.370
2020/01/31 03:57:10.6	93.140	0.110	-0.460	1.390
2020/01/31 03:57:10.7	93.120	0.110	-0.450	1.410
2020/01/31 03:57:10.8	93.100	0.110	-0.440	1.420
2020/01/31 03:57:10.9	93.080	0.100	-0.420	1.430
2020/01/31 03:57:11.0	93.050	0.100	-0.400	1.440
2020/01/31 03:57:11.1	93.020	0.080	-0.380	1.450
2020/01/31 03:57:11.2	93.000	0.070	-0.350	1.460
2020/01/31 03:57:11.3	92.980	0.050	-0.310	1.450
2020/01/31 03:57:11.4	92.960	0.020	-0.270	1.450
2020/01/31 03:57:11.5	92.940	-0.000	-0.230	1.440
2020/01/31 03:57:11.6	92.920	-0.030	-0.180	1.420
2020/01/31 03:57:11.7	92.900	-0.070	-0.130	1.410
2020/01/31 03:57:11.8	92.880	-0.100	-0.080	1.380
2020/01/31 03:57:11.9	92.870	-0.140	-0.030	1.350
2020/01/31 03:57:12.0	92.860	-0.180	0.030	1.320
2020/01/31 03:57:12.1	92.850	-0.220	0.080	1.280
2020/01/31 03:57:12.2	92.840	-0.250	0.140	1.240
2020/01/31 03:57:12.3	92.840	-0.290	0.190	1.200
2020/01/31 03:57:12.4	92.850	-0.330	0.230	1.150
2020/01/31 03:57:12.5	92.850	-0.370	0.280	1.100
2020/01/31 03:57:12.6	92.860	-0.410	0.320	1.050
2020/01/31 03:57:12.7	92.860	-0.440	0.350	1.010
2020/01/31 03:57:12.8	92.870	-0.470	0.380	0.960
2020/01/31 03:57:12.9	92.890	-0.500	0.400	0.910
2020/01/31 03:57:13.0	92.900	-0.520	0.420	0.860
2020/01/31 03:57:13.1	92.900	-0.540	0.430	0.810
2020/01/31 03:57:13.2	92.920	-0.550	0.430	0.770
2020/01/31 03:57:13.3	92.930	-0.560	0.430	0.730
2020/01/31 03:57:13.4	92.950	-0.560	0.410	0.680
2020/01/31 03:57:13.5	92.960	-0.560	0.390	0.650
2020/01/31 03:57:13.6	92.980	-0.550	0.360	0.610
2020/01/31 03:57:13.7	93.000	-0.530	0.320	0.570
2020/01/31 03:57:13.8	93.010	-0.510	0.270	0.540
2020/01/31 03:57:13.9	93.030	-0.490	0.210	0.500
2020/01/31 03:57:14.0	93.050	-0.450	0.150	0.470
2020/01/31 03:57:14.1	93.060	-0.420	0.080	0.440
2020/01/31 03:57:14.2	93.080	-0.370	-0.000	0.410
2020/01/31 03:57:14.3	93.100	-0.330	-0.080	0.380
2020/01/31 03:57:14.4	93.120	-0.270	-0.170	0.350
2020/01/31 03:57:14.5	93.140	-0.220	-0.250	0.320
2020/01/31 03:57:14.6	93.160	-0.160	-0.340	0.300
2020/01/31 03:57:14.7	93.170	-0.100	-0.440	0.270
2020/01/31 03:57:14.8	93.190	-0.030	-0.530	0.250
2020/01/31 03:57:14.9	93.210	0.030	-0.610	0.230
2020/01/31 03:57:15.0	93.220	0.100	-0.700	0.220
2020/01/31 03:57:15.1	93.230	0.170	-0.780	0.210
2020/01/31 03:57:15.2	93.240	0.230	-0.860	0.200
2020/01/31 03:57:15.3	93.240	0.290	-0.930	0.200
2020/01/31 03:57:15.4	93.250	0.360	-0.990	0.200
2020/01/31 03:57:15.5	93.250	0.410	-1.040	0.210
2020/01/31 03:57:15.6	93.250	0.470	-1.080	0.220
2020/01/31 03:57:15.7	93.250	0.520	-1.120	0.240
2020/01/31 03:57:15.8	93.240	0.560	-1.140	0.260
2020/01/31 03:57:15.9	93.240	0.600	-1.150	0.290
2020/01/31 03:57:16.0	93.230	0.640	-1.150	0.310
2020/01/31 03:57:16.1	93.220	0.670	-1.130	0.350
2020/01/31 03:57:16.2	93.210	0.690	-1.110	0.380
2020/01/31 03:57:16.3	93.200	0.710	-1.070	0.420
2020/01/31 03:57:16.4	93.180	0.720	-1.030	0.460
2020/01/31 03:57:16.5	93.170	0.730	-0.970	0.500
2020/01/31 03:57:16.6	93.150	0.730	-0.910	0.540
2020/01/31 03:57:16.7	93.130	0.720	-0.840	0.580
2020/01/31 03:57:16.8	93.110	0.710	-0.760	0.620
2020/01/31 03:57:16.9	93.090	0.690	-0.670	0.660
2020/01/31 03:57:17.0	93.070	0.670	-0.580	0.690
2020/01/31 03:57:17.1	93.050	0.640	-0.490	0.730
2020/01/31 03:57:17.2	93.030	0.610	-0.390	0.760
2020/01/31 03:57:17.3	93.010	0.570	-0.300	0.790
2020/01/31 03:57:17.4	93.000	0.530	-0.200	0.820
2020/01/31 03:57:17.5	92.980	0.490	-0.110	0.840
2020/01/31 03:57:17.6	92.960	0.440	-0.020	0.860
2020/01/31 03:57:17.7	92.940	0.400	0.070	0.880
2020/01/31 03:57:17.8	92.930	0.350	0.150	0.900
2020/01/31 03:57:17.9	92.910	0.300	0.220	0.900
2020/01/31 03:57:18.0	92.900	0.260	0.290	0.910
2020/01/31 03:57:18.1	92.890	0.210	0.360	0.910
2020/01/31 03:57:18.2	92.880	0.160	0.410	0.910
2020/01/31 03:57:18.3	92.860	0.120	0.450	0.910
2020/01/31 03:57:18.4	92.850	0.070	0.490	0.900
2020/01/31 03:57:18.5	92.840	0.030	0.510	0.890
2020/01/31 03:57:18.6	92.830	-0.010	0.530	0.880
2020/01/31 03:57:18.7	92.820	-0.040	0.530	0.870
2020/01/31 03:57:18.8	92.820	-0.070	0.530	0.850
2020/01/31 03:57:18.9	92.810	-0.100	0.520	0.840
2020/01/31 03:57:19.0	92.810	-0.130	0.500	0.820
2020/01/31 03:57:19.1	92.820	-0.150	0.470	0.800
2020/01/31 03:57:19.2	92.820	-0.170	0.430	0.780
2020/01/31 03:57:19.3	92.820	-0.190	0.390	0.760
2020/01/31 03:57:19.4	92.830	-0.200	0.350	0.740
2020/01/31 03:57:19.5	92.840	-0.210	0.300	0.720
2020/01/31 03:57:19.6	92.850	-0.220	0.250	0.700
2020/01/31 03:57:19.7	92.860	-0.230	0.190	0.680
2020/01/31 03:57:19.8	92.870	-0.230	0.130	0.660
2020/01/31 03:57:19.9	92.880	-0.230	0.080	0.650
2020/01/31 03:57:20.0	92.890	-0.230	0.020	0.630
2020/01/31 03:57:20.1	92.890	-0.220	-0.040	0.620
2020/01/31 03:57:20.2	92.900	-0.220	-0.100	0.610
2020/01/31 03:57:20.3	92.910	-0.210	-0.150	0.610
2020/01/31 03:57:20.4	92.920	-0.200	-0.210	0.600
2020/01/31 03:57:20.5	92.930	-0.200	-0.250	0.600
2020/01/31 03:57:20.6	92.940	-0.190	-0.300	0.600
2020/01/31 03:57:20.7	92.950	-0.180	-0.340	0.610
2020/01/31 03:57:20.8	92.960	-0.170	-0.380	0.610
2020/01/31 03:57:20.9	92.970	-0.160	-0.410	0.620
2020/01/31 03:57:21.0	92.970	-0.150	-0.440	0.630
2020/01/31 03:57:21.1	92.980	-0.140	-0.460	0.640
2020/01/31 03:57:21.2	92.980	-0.130	-0.480	0.660
2020/01/31 03:57:21.3	92.980	-0.120	-0.500	0.680
2020/01/31 03:57:21.4	92.980	-0.110	-0.510	0.700
2020/01/31 03:57:21.5	92.980	-0.100	-0.510	0.720
2020/01/31 03:57:21.6	92.980	-0.090	-0.510	0.750
2020/01/31 03:57:21.7	92.980	-0.090	-0.510	0.770
2020/01/31 03:57:21.8	92.980	-0.080	-0.500	0.800
2020/01/31 03:57:21.9	92.980	-0.080	-0.490	0.830
2020/01/31 03:57:22.0	92.980	-0.070	-0.470	0.860
2020/01/31 03:57:22.1	92.970	-0.070	-0.450	0.890
2020/01/31 03:57:22.2	92.970	-0.070	-0.440	0.930
2020/01/31 03:57:22.3	92.970	-0.060	-0.410	0.960
2020/01/31 03:57:22.4	92.980	-0.060	-0.390	0.990
2020/01/31 03:57:22.5	92.980	-0.060	-0.370	1.020
2020/01/31 03:57:22.6	92.980	-0.070	-0.340	1.060
2020/01/31 03:57:22.7	92.980	-0.070	-0.320	1.090
2020/01/31 03:57:22.8	92.990	-0.070	-0.290	1.120
2020/01/31 03:57:22.9	92.990	-0.080	-0.270	1.160
2020/01/31 03:57:23.0	92.990	-0.080	-0.250	1.190
2020/01/31 03:57:23.1	92.990	-0.090	-0.220	1.230
2020/01/31 03:57:23.2	92.990	-0.090	-0.200	1.260
2020/01/31 03:57:23.3	92.990	-0.100	-0.180	1.290
2020/01/31 03:57:23.4	93.000	-0.100	-0.170	1.320
2020/01/31 03:57:23.5	93.000	-0.110	-0.160	1.350
2020/01/31 03:57:23.6	93.000	-0.120	-0.150	1.380
2020/01/31 03:57:23.7	92.990	-0.120	-0.140	1.400
2020/01/31 03:57:23.8	92.990	-0.130	-0.130	1.420
2020/01/31 03:57:23.9	92.990	-0.140	-0.130	1.440
2020/01/31 03:57:24.0	92.990	-0.140	-0.130	1.450
2020/01/31 03:57:24.1	92.990	-0.150	-0.140	1.460
2020/01/31 03:57:24.2	92.990	-0.150	-0.140	1.470
2020/01/31 03:57:24.3	93.000	-0.160	-0.150	1.470
2020/01/31 03:57:24.4	93.000	-0.160	-0.160	1.460
2020/01/31 03:57:24.5	93.000	-0.170	-0.160	1.460
2020/01/31 03:57:24.6	93.000	-0.170	-0.180	1.440
2020/01/31 03:57:24.7	93.010	-0.170	-0.190	1.430
2020/01/31 03:57:24.8	93.010	-0.170	-0.200	1.410
2020/01/31 03:57:24.9	93.020	-0.170	-0.210	1.380
2020/01/31 03:57:25.0	93.020	-0.170	-0.220	1.350
2020/01/31 03:57:25.1	93.030	-0.170	-0.230	1.320
2020/01/31 03:57:25.2	93.030	-0.160	-0.240	1.290
2020/01/31 03:57:25.3	93.030	-0.160	-0.250	1.260
2020/01/31 03:57:25.4	93.030	-0.150	-0.260	1.230
2020/01/31 03:57:25.5	93.030	-0.150	-0.270	1.190
2020/01/31 03:57:25.6	93.030	-0.140	-0.280	1.160
2020/01/31 03:57:25.7	93.030	-0.130	-0.280	1.130
2020/01/31 03:57:25.8	93.030	-0.120	-0.280	1.100
2020/01/31 03:57:25.9	93.020	-0.110	-0.290	1.080
2020/01/31 03:57:26.0	93.010	-0.100	-0.290	1.050
2020/01/31 03:57:26.1	93.000	-0.090	-0.290	1.030
2020/01/31 03:57:26.2	92.990	-0.070	-0.290	1.000
2020/01/31 03:57:26.3	92.980	-0.060	-0.290	0.990
2020/01/31 03:57:26.4	92.970	-0.040	-0.290	0.970
2020/01/31 03:57:26.5	92.960	-0.030	-0.290	0.950
2020/01/31 03:57:26.6	92.950	-0.010	-0.280	0.940
2020/01/31 03:57:26.7	92.930	0.000	-0.280	0.920
2020/01/31 03:57:26.8	92.920	0.020	-0.280	0.910
2020/01/31 03:57:26.9	92.910	0.030	-0.280	0.900
2020/01/31 03:57:27.0	92.900	0.050	-0.280	0.890
2020/01/31 03:57:27.1	92.880	0.060	-0.270	0.880
2020/01/31 03:57:27.2	92.880	0.080	-0.270	0.870
2020/01/31 03:57:27.3	92.870	0.090	-0.270	0.860
2020/01/31 03:57:27.4	92.860	0.110	-0.270	0.860
2020/01/31 03:57:27.5	92.860	0.120	-0.270	0.850
2020/01/31 03:57:27.6	92.860	0.130	-0.270	0.840
2020/01/31 03:57:27.7	92.850	0.140	-0.260	0.830
2020/01/31 03:57:27.8	92.850	0.150	-0.260	0.820
2020/01/31 03:57:27.9	92.860	0.150	-0.260	0.800
2020/01/31 03:57:28.0	92.860	0.160	-0.260	0.790
2020/01/31 03:57:28.1	92.870	0.160	-0.260	0.780
2020/01/31 03:57:28.2	92.870	0.160	-0.250	0.760
2020/01/31 03:57:28.3	92.870	0.160	-0.250	0.740
2020/01/31 03:57:28.4	92.880	0.160	-0.240	0.720
2020/01/31 03:57:28.5	92.880	0.160	-0.240	0.710
2020/01/31 03:57:28.6	92.890	0.160	-0.230	0.690
2020/01/31 03:57:28.7	92.890	0.150	-0.220	0.670
2020/01/31 03:57:28.8	92.900	0.150	-0.220	0.640
2020/01/31 03:57:28.9	92.900	0.140	-0.210	0.620
2020/01/31 03:57:29.0	92.910	0.130	-0.200	0.600
2020/01/31 03:57:29.1	92.910	0.130	-0.190	0.580
2020/01/31 03:57:29.2	92.920	0.120	-0.170	0.570
2020/01/31 03:57:29.3	92.920	0.110	-0.160	0.550
2020/01/31 03:57:29.4	92.920	0.100	-0.150	0.540
2020/01/31 03:57:29.5	92.930	0.090	-0.140	0.530
2020/01/31 03:57:29.6	92.930	0.080	-0.120	0.520
2020/01/31 03:57:29.7	92.930	0.070	-0.110	0.510
2020/01/31 03:57:29.8	92.920	0.070	-0.100	0.510
2020/01/31 03:57:29.9	92.920	0.060	-0.090	0.500
2020/01/31 03:57:30.0	92.920	0.050	-0.090	0.510
2020/01/31 03:57:30.1	92.910	0.050	-0.070	0.510
2020/01/31 03:57:30.2	92.900	0.050	-0.070	0.520
2020/01/31 03:57:30.3	92.900	0.050	-0.070	0.530
2020/01/31 03:57:30.4	92.890	0.050	-0.080	0.540
2020/01/31 03:57:30.5	92.880	0.050	-0.080	0.560
2020/01/31 03:57:30.6	92.870	0.050	-0.090	0.580
2020/01/31 03:57:30.7	92.870	0.060	-0.110	0.590
2020/01/31 03:57:30.8	92.860	0.070	-0.130	0.610
2020/01/31 03:57:30.9	92.850	0.080	-0.150	0.630
2020/01/31 03:57:31.0	92.850	0.090	-0.170	0.650
2020/01/31 03:57:31.1	92.840	0.100	-0.200	0.660
2020/01/31 03:57:31.2	92.840	0.110	-0.230	0.680
2020/01/31 03:57:31.3	92.840	0.130	-0.270	0.700
2020/01/31 03:57:31.4	92.840	0.140	-0.300	0.720
2020/01/31 03:57:31.5	92.850	0.160	-0.340	0.740
2020/01/31 03:57:31.6	92.860	0.180	-0.370	0.760
2020/01/31 03:57:31.7	92.870	0.190	-0.410	0.770
2020/01/31 03:57:31.8	92.880	0.210	-0.440	0.790
2020/01/31 03:57:31.9	92.890	0.220	-0.480	0.810
2020/01/31 03:57:32.0	92.910	0.230	-0.510	0.830
2020/01/31 03:57:32.1	92.930	0.240	-0.540	0.850
2020/01/31 03:57:32.2	92.950	0.250	-0.570	0.870
2020/01/31 03:57:32.3	92.960	0.260	-0.590	0.880
2020/01/31 03:57:32.4	92.980	0.260	-0.620	0.900
2020/01/31 03:57:32.5	93.000	0.270	-0.630	0.920
2020/01/31 03:57:32.6	93.020	0.260	-0.650	0.930
2020/01/31 03:57:32.7	93.040	0.260	-0.660	0.940
2020/01/31 03:57:32.8	93.060	0.260	-0.660	0.960
2020/01/31 03:57:32.9	93.080	0.250	-0.660	0.970
2020/01/31 03:57:33.0	93.110	0.230	-0.650	0.980
2020/01/31 03:57:33.1	93.130	0.220	-0.640	0.990
2020/01/31 03:57:33.2	93.150	0.200	-0.620	1.000
2020/01/31 03:57:33.3	93.170	0.190	-0.600	1.010
2020/01/31 03:57:33.4	93.200	0.160	-0.580	1.020
2020/01/31 03:57:33.5	93.210	0.140	-0.540	1.030
2020/01/31 03:57:33.6	93.230	0.120	-0.510	1.040
2020/01/31 03:57:33.7	93.250	0.090	-0.470	1.050
2020/01/31 03:57:33.8	93.270	0.070	-0.420	1.060
2020/01/31 03:57:33.9	93.290	0.040	-0.380	1.070
2020/01/31 03:57:34.0	93.300	0.010	-0.330	1.080
2020/01/31 03:57:34.1	93.320	-0.020	-0.270	1.090
2020/01/31 03:57:34.2	93.330	-0.040	-0.220	1.100
2020/01/31 03:57:34.3	93.340	-0.070	-0.160	1.110
2020/01/31 03:57:34.4	93.350	-0.100	-0.110	1.130
2020/01/31 03:57:34.5	93.360	-0.120	-0.050	1.140
2020/01/31 03:57:34.6	93.370	-0.150	-0.000	1.150
2020/01/31 03:57:34.7	93.380	-0.170	0.050	1.160
2020/01/31 03:57:34.8	93.390	-0.190	0.100	1.180
2020/01/31 03:57:34.9	93.390	-0.210	0.140	1.190
2020/01/31 03:57:35.0	93.390	-0.230	0.180	1.200
2020/01/31 03:57:35.1	93.400	-0.250	0.220	1.220
2020/01/31 03:57:35.2	93.400	-0.260	0.260	1.230
2020/01/31 03:57:35.3	93.390	-0.270	0.290	1.250
2020/01/31 03:57:35.4	93.390	-0.280	0.320	1.260
2020/01/31 03:57:35.5	93.380	-0.290	0.340	1.270
2020/01/31 03:57:35.6	93.380	-0.300	0.360	1.290
2020/01/31 03:57:35.7	93.370	-0.310	0.370	1.300
2020/01/31 03:57:35.8	93.360	-0.310	0.390	1.310
2020/01/31 03:57:35.9	93.350	-0.320	0.400	1.320
2020/01/31 03:57:36.0	93.330	-0.320	0.400	1.320
2020/01/31 03:57:36.1	93.320	-0.330	0.400	1.330
2020/01/31 03:57:36.2	93.310	-0.330	0.410	1.330
2020/01/31 03:57:36.3	93.300	-0.340	0.410	1.330
2020/01/31 03:57:36.4	93.280	-0.340	0.400	1.330
2020/01/31 03:57:36.5	93.270	-0.350	0.400	1.330
2020/01/31 03:57:36.6	93.260	-0.350	0.400	1.320
2020/01/31 03:57:36.7	93.250	-0.360	0.390	1.310
2020/01/31 03:57:36.8	93.240	-0.360	0.380	1.290
2020/01/31 03:57:36.9	93.230	-0.370	0.370	1.280
2020/01/31 03:57:37.0	93.220	-0.380	0.360	1.250
2020/01/31 03:57:37.1	93.210	-0.380	0.350	1.230
2020/01/31 03:57:37.2	93.200	-0.390	0.330	1.200
2020/01/31 03:57:37.3	93.200	-0.390	0.320	1.170
2020/01/31 03:57:37.4	93.190	-0.400	0.300	1.130
2020/01/31 03:57:37.5	93.190	-0.400	0.270	1.090
2020/01/31 03:57:37.6	93.180	-0.410	0.250	1.050
2020/01/31 03:57:37.7	93.180	-0.410	0.220	1.010
2020/01/31 03:57:37.8	93.170	-0.410	0.190	0.960
2020/01/31 03:57:37.9	93.170	-0.400	0.150	0.920
2020/01/31 03:57:38.0	93.160	-0.400	0.110	0.870
2020/01/31 03:57:38.1	93.160	-0.390	0.070	0.820
2020/01/31 03:57:38.2	93.150	-0.380	0.020	0.780
2020/01/31 03:57:38.3	93.150	-0.360	-0.030	0.730
2020/01/31 03:57:38.4	93.150	-0.340	-0.080	0.680
2020/01/31 03:57:38.5	93.150	-0.320	-0.140	0.640
2020/01/31 03:57:38.6	93.140	-0.300	-0.200	0.600
2020/01/31 03:57:38.7	93.140	-0.270	-0.270	0.550
2020/01/31 03:57:38.8	93.140	-0.240	-0.340	0.510
2020/01/31 03:57:38.9	93.150	-0.200	-0.410	0.470
2020/01/31 03:57:39.0	93.150	-0.160	-0.480	0.430
2020/01/31 03:57:39.1	93.150	-0.120	-0.560	0.390
2020/01/31 03:57:39.2	93.160	-0.080	-0.640	0.350
2020/01/31 03:57:39.3	93.160	-0.030	-0.710	0.320
2020/01/31 03:57:39.4	93.170	0.010	-0.780	0.280
2020/01/31 03:57:39.5	93.180	0.060	-0.860	0.250
2020/01/31 03:57:39.6	93.190	0.110	-0.930	0.230
2020/01/31 03:57:39.7	93.200	0.160	-0.990	0.200
2020/01/31 03:57:39.8	93.210	0.200	-1.050	0.180
2020/01/31 03:57:39.9	93.220	0.250	-1.110	0.170
2020/01/31 03:57:40.0	93.230	0.290	-1.160	0.150
2020/01/31 03:57:40.1	93.240	0.330	-1.200	0.140
2020/01/31 03:57:40.2	93.250	0.370	-1.240	0.140
2020/01/31 03:57:40.3	93.260	0.400	-1.270	0.130
2020/01/31 03:57:40.4	93.270	0.430	-1.290	0.130
2020/01/31 03:57:40.5	93.290	0.460	-1.300	0.130
2020/01/31 03:57:40.6	93.300	0.480	-1.310	0.130
2020/01/31 03:57:40.7	93.310	0.500	-1.300	0.140
2020/01/31 03:57:40.8	93.320	0.520	-1.290	0.150
2020/01/31 03:57:40.9	93.330	0.530	-1.270	0.160
2020/01/31 03:57:41.0	93.340	0.540	-1.250	0.170
2020/01/31 03:57:41.1	93.350	0.540	-1.210	0.190
2020/01/31 03:57:41.2	93.360	0.540	-1.160	0.210
2020/01/31 03:57:41.3	93.370	0.540	-1.110	0.230
2020/01/31 03:57:41.4	93.370	0.530	-1.050	0.260
2020/01/31 03:57:41.5	93.380	0.520	-0.990	0.280
2020/01/31 03:57:41.6	93.380	0.510	-0.920	0.320
2020/01/31 03:57:41.7	93.380	0.490	-0.840	0.350
2020/01/31 03:57:41.8	93.380	0.480	-0.760	0.390
2020/01/31 03:57:41.9	93.380	0.460	-0.680	0.420
2020/01/31 03:57:42.0	93.380	0.430	-0.590	0.460
2020/01/31 03:57:42.1	93.370	0.410	-0.500	0.500
2020/01/31 03:57:42.2	93.360	0.390	-0.410	0.550
2020/01/31 03:57:42.3	93.350	0.360	-0.320	0.590
2020/01/31 03:57:42.4	93.350	0.330	-0.230	0.630
2020/01/31 03:57:42.5	93.340	0.310	-0.140	0.680
2020/01/31 03:57:42.6	93.330	0.280	-0.050	0.720
2020/01/31 03:57:42.7	93.320	0.250	0.030	0.760
2020/01/31 03:57:42.8	93.300	0.220	0.110	0.800
2020/01/31 03:57:42.9	93.290	0.190	0.190	0.840
2020/01/31 03:57:43.0	93.280	0.170	0.260	0.880
2020/01/31 03:57:43.1	93.270	0.140	0.340	0.910
2020/01/31 03:57:43.2	93.260	0.110	0.400	0.950
2020/01/31 03:57:43.3	93.240	0.080	0.460	0.980
2020/01/31 03:57:43.4	93.230	0.050	0.520	1.010
2020/01/31 03:57:43.5	93.210	0.020	0.560	1.030
2020/01/31 03:57:43.6	93.190	-0.010	0.610	1.050
2020/01/31 03:57:43.7	93.170	-0.030	0.640	1.070
2020/01/31 03:57:43.8	93.150	-0.060	0.670	1.090
2020/01/31 03:57:43.9	93.140	-0.090	0.700	1.100
2020/01/31 03:57:44.0	93.120	-0.120	0.720	1.110
2020/01/31 03:57:44.1	93.090	-0.140	0.730	1.120
2020/01/31 03:57:44.2	93.070	-0.170	0.740	1.120
2020/01/31 03:57:44.3	93.060	-0.200	0.740	1.120
2020/01/31 03:57:44.4	93.040	-0.220	0.740	1.120
2020/01/31 03:57:44.5	93.020	-0.240	0.730	1.110
2020/01/31 03:57:44.6	93.010	-0.270	0.710	1.100
2020/01/31 03:57:44.7	92.990	-0.290	0.690	1.090
2020/01/31 03:57:44.8	92.980	-0.310	0.660	1.070
2020/01/31 03:57:44.9	92.960	-0.330	0.630	1.060
2020/01/31 03:57:45.0	92.950	-0.340	0.600	1.040
2020/01/31 03:57:45.1	92.930	-0.360	0.560	1.020
2020/01/31 03:57:45.2	92.920	-0.370	0.510	0.990
2020/01/31 03:57:45.3	92.910	-0.380	0.470	0.970
2020/01/31 03:57:45.4	92.910	-0.390	0.420	0.950
2020/01/31 03:57:45.5	92.900	-0.390	0.360	0.920
2020/01/31 03:57:45.6	92.900	-0.400	0.310	0.900
2020/01/31 03:57:45.7	92.890	-0.390	0.250	0.870
2020/01/31 03:57:45.8	92.890	-0.390	0.190	0.850
2020/01/31 03:57:45.9	92.890	-0.380	0.120	0.830
2020/01/31 03:57:46.0	92.890	-0.370	0.050	0.810
2020/01/31 03:57:46.1	92.880	-0.350	-0.020	0.780
2020/01/31 03:57:46.2	92.880	-0.330	-0.100	0.760
2020/01/31 03:57:46.3	92.890	-0.300	-0.180	0.740
2020/01/31 03:57:46.4	92.890	-0.280	-0.260	0.720
2020/01/31 03:57:46.5	92.890	-0.240	-0.340	0.710
2020/01/31 03:57:46.6	92.900	-0.200	-0.430	0.690
2020/01/31 03:57:46.7	92.900	-0.160	-0.520	0.680
2020/01/31 03:57:46.8	92.910	-0.120	-0.610	0.670
2020/01/31 03:57:46.9	92.910	-0.070	-0.700	0.660
2020/01/31 03:57:47.0	92.920	-0.020	-0.790	0.650
2020/01/31 03:57:47.1	92.920	0.040	-0.890	0.640
2020/01/31 03:57:47.2	92.930	0.090	-0.980	0.630
2020/01/31 03:57:47.3	92.930	0.150	-1.060	0.630
2020/01/31 03:57:47.4	92.940	0.210	-1.150	0.620
2020/01/31 03:57:47.5	92.950	0.270	-1.220	0.620
2020/01/31 03:57:47.6	92.950	0.320	-1.300	0.620
2020/01/31 03:57:47.7	92.960	0.380	-1.360	0.620
2020/01/31 03:57:47.8	92.970	0.430	-1.420	0.620
2020/01/31 03:57:47.9	92.970	0.480	-1.470	0.620
2020/01/31 03:57:48.0	92.980	0.530	-1.510	0.630
2020/01/31 03:57:48.1	92.990	0.570	-1.540	0.630
2020/01/31 03:57:48.2	93.000	0.610	-1.560	0.640
2020/01/31 03:57:48.3	93.020	0.640	-1.560	0.660
2020/01/31 03:57:48.4	93.030	0.670	-1.560	0.680
2020/01/31 03:57:48.5	93.040	0.690	-1.540	0.700
2020/01/31 03:57:48.6	93.050	0.700	-1.500	0.730
2020/01/31 03:57:48.7	93.070	0.710	-1.460	0.770
2020/01/31 03:57:48.8	93.080	0.710	-1.400	0.810
2020/01/31 03:57:48.9	93.090	0.700	-1.320	0.850
2020/01/31 03:57:49.0	93.100	0.680	-1.230	0.900
2020/01/31 03:57:49.1	93.110	0.650	-1.130	0.950
2020/01/31 03:57:49.2	93.120	0.610	-1.010	1.010
2020/01/31 03:57:49.3	93.120	0.570	-0.880	1.070
2020/01/31 03:57:49.4	93.120	0.520	-0.750	1.130
2020/01/31 03:57:49.5	93.120	0.460	-0.600	1.190
2020/01/31 03:57:49.6	93.120	0.390	-0.440	1.250
2020/01/31 03:57:49.7	93.110	0.310	-0.280	1.320
2020/01/31 03:57:49.8	93.110	0.230	-0.110	1.380
2020/01/31 03:57:49.9	93.100	0.140	0.060	1.440
2020/01/31 03:57:50.0	93.090	0.050	0.230	1.500
2020/01/31 03:57:50.1	93.070	-0.050	0.410	1.560
2020/01/31 03:57:50.2	93.060	-0.150	0.590	1.620
2020/01/31 03:57:50.3	93.040	-0.250	0.760	1.670
2020/01/31 03:57:50.4	93.030	-0.360	0.930	1.720
2020/01/31 03:57:50.5	93.010	-0.470	1.090	1.760
2020/01/31 03:57:50.6	92.990	-0.580	1.240	1.800
2020/01/31 03:57:50.7	92.970	-0.680	1.380	1.840
2020/01/31 03:57:50.8	92.950	-0.790	1.520	1.870
2020/01/31 03:57:50.9	92.930	-0.890	1.640	1.890
2020/01/31 03:57:51.0	92.910	-0.990	1.740	1.900
2020/01/31 03:57:51.1	92.900	-1.080	1.830	1.910
2020/01/31 03:57:51.2	92.880	-1.160	1.900	1.910
2020/01/31 03:57:51.3	92.860	-1.240	1.950	1.900
2020/01/31 03:57:51.4	92.850	-1.310	1.980	1.880
2020/01/31 03:57:51.5	92.840	-1.380	1.990	1.860
2020/01/31 03:57:51.6	92.830	-1.430	1.980	1.830
2020/01/31 03:57:51.7	92.830	-1.470	1.950	1.790
2020/01/31 03:57:51.8	92.820	-1.500	1.900	1.740
2020/01/31 03:57:51.9	92.820	-1.520	1.820	1.690
2020/01/31 03:57:52.0	92.830	-1.530	1.720	1.630
2020/01/31 03:57:52.1	92.830	-1.520	1.600	1.560
2020/01/31 03:57:52.2	92.840	-1.500	1.470	1.490
2020/01/31 03:57:52.3	92.850	-1.480	1.320	1.420
2020/01/31 03:57:52.4	92.870	-1.440	1.150	1.340
2020/01/31 03:57:52.5	92.880	-1.390	0.970	1.270
2020/01/31 03:57:52.6	92.900	-1.320	0.770	1.190
2020/01/31 03:57:52.7	92.910	-1.250	0.570	1.110
2020/01/31 03:57:52.8	92.930	-1.170	0.360	1.030
2020/01/31 03:57:52.9	92.950	-1.080	0.140	0.950
2020/01/31 03:57:53.0	92.970	-0.980	-0.080	0.880
2020/01/31 03:57:53.1	92.980	-0.880	-0.310	0.800
2020/01/31 03:57:53.2	92.990	-0.770	-0.530	0.730
2020/01/31 03:57:53.3	93.000	-0.650	-0.740	0.670
2020/01/31 03:57:53.4	93.010	-0.530	-0.950	0.610
2020/01/31 03:57:53.5	93.020	-0.410	-1.140	0.560
2020/01/31 03:57:53.6	93.030	-0.280	-1.330	0.510
2020/01/31 03:57:53.7	93.030	-0.160	-1.510	0.470
2020/01/31 03:57:53.8	93.030	-0.030	-1.670	0.430
2020/01/31 03:57:53.9	93.030	0.090	-1.810	0.390
2020/01/31 03:57:54.0	93.020	0.220	-1.940	0.370
2020/01/31 03:57:54.1	93.030	0.330	-2.050	0.350
2020/01/31 03:57:54.2	93.020	0.450	-2.140	0.330
2020/01/31 03:57:54.3	93.010	0.560	-2.210	0.310
2020/01/31 03:57:54.4	93.000	0.660	-2.260	0.300
2020/01/31 03:57:54.5	92.990	0.760	-2.300	0.280
2020/01/31 03:57:54.6	92.980	0.850	-2.310	0.280
2020/01/31 03:57:54.7	92.970	0.930	-2.300	0.270
2020/01/31 03:57:54.8	92.950	1.000	-2.280	0.270
2020/01/31 03:57:54.9	92.940	1.070	-2.240	0.270
2020/01/31 03:57:55.0	92.920	1.130	-2.180	0.270
2020/01/31 03:57:55.1	92.900	1.170	-2.100	0.280
2020/01/31 03:57:55.2	92.880	1.210	-2.010	0.280
2020/01/31 03:57:55.3	92.860	1.240	-1.910	0.300
2020/01/31 03:57:55.4	92.840	1.260	-1.800	0.310
2020/01/31 03:57:55.5	92.820	1.280	-1.680	0.320
2020/01/31 03:57:55.6	92.800	1.280	-1.550	0.340
2020/01/31 03:57:55.7	92.770	1.280	-1.420	0.360
2020/01/31 03:57:55.8	92.750	1.270	-1.280	0.380
2020/01/31 03:57:55.9	92.730	1.250	-1.140	0.410
2020/01/31 03:57:56.0	92.700	1.230	-1.000	0.430
2020/01/31 03:57:56.1	92.690	1.200	-0.850	0.450
2020/01/31 03:57:56.2	92.670	1.170	-0.710	0.480
2020/01/31 03:57:56.3	92.640	1.130	-0.580	0.510
2020/01/31 03:57:56.4	92.620	1.090	-0.450	0.540
2020/01/31 03:57:56.5	92.600	1.040	-0.320	0.570
2020/01/31 03:57:56.6	92.580	0.990	-0.200	0.590
2020/01/31 03:57:56.7	92.560	0.940	-0.090	0.620
2020/01/31 03:57:56.8	92.540	0.890	0.010	0.650
2020/01/31 03:57:56.9	92.530	0.840	0.110	0.680
2020/01/31 03:57:57.0	92.510	0.780	0.200	0.700
2020/01/31 03:57:57.1	92.500	0.730	0.280	0.720
2020/01/31 03:57:57.2	92.490	0.670	0.350	0.740
2020/01/31 03:57:57.3	92.490	0.610	0.420	0.760
2020/01/31 03:57:57.4	92.480	0.560	0.480	0.770
2020/01/31 03:57:57.5	92.480	0.500	0.530	0.780
2020/01/31 03:57:57.6	92.480	0.450	0.580	0.780
2020/01/31 03:57:57.7	92.480	0.390	0.620	0.780
2020/01/31 03:57:57.8	92.480	0.340	0.650	0.780
2020/01/31 03:57:57.9	92.490	0.280	0.680	0.770
2020/01/31 03:57:58.0	92.490	0.230	0.710	0.770
2020/01/31 03:57:58.1	92.500	0.180	0.730	0.750
2020/01/31 03:57:58.2	92.500	0.130	0.740	0.740
2020/01/31 03:57:58.3	92.510	0.080	0.750	0.730
2020/01/31 03:57:58.4	92.510	0.030	0.760	0.720
2020/01/31 03:57:58.5	92.520	-0.010	0.770	0.710
2020/01/31 03:57:58.6	92.520	-0.060	0.770	0.710
2020/01/31 03:57:58.7	92.520	-0.100	0.770	0.700
2020/01/31 03:57:58.8	92.520	-0.140	0.760	0.700
2020/01/31 03:57:58.9	92.520	-0.190	0.750	0.700
2020/01/31 03:57:59.0	92.520	-0.230	0.740	0.700
2020/01/31 03:57:59.1	92.510	-0.270	0.720	0.710
2020/01/31 03:57:59.2	92.500	-0.300	0.710	0.720
2020/01/31 03:57:59.3	92.490	-0.340	0.690	0.740
2020/01/31 03:57:59.4	92.480	-0.380	0.670	0.760
2020/01/31 03:57:59.5	92.460	-0.410	0.650	0.780
2020/01/31 03:57:59.6	92.450	-0.440	0.620	0.810
2020/01/31 03:57:59.7	92.430	-0.470	0.590	0.830
2020/01/31 03:57:59.8	92.410	-0.500	0.560	0.870
2020/01/31 03:57:59.9	92.400	-0.530	0.530	0.900
2020/01/31 03:58:00.0	92.380	-0.550	0.490	0.930
2020/01/31 03:58:00.1	92.360	-0.570	0.450	0.970
2020/01/31 03:58:00.2	92.340	-0.590	0.410	1.010
2020/01/31 03:58:00.3	92.320	-0.610	0.370	1.040
2020/01/31 03:58:00.4	92.310	-0.630	0.320	1.070
2020/01/31 03:58:00.5	92.290	-0.640	0.270	1.100
2020/01/31 03:58:00.6	92.280	-0.650	0.210	1.130
2020/01/31 03:58:00.7	92.260	-0.650	0.160	1.150
2020/01/31 03:58:00.8	92.250	-0.660	0.100	1.170
2020/01/31 03:58:00.9	92.250	-0.660	0.040	1.180
2020/01/31 03:58:01.0	92.240	-0.650	-0.030	1.190
2020/01/31 03:58:01.1	92.250	-0.640	-0.090	1.190
2020/01/31 03:58:01.2	92.250	-0.630	-0.160	1.190
2020/01/31 03:58:01.3	92.260	-0.620	-0.240	1.190
2020/01/31 03:58:01.4	92.270	-0.600	-0.310	1.180
2020/01/31 03:58:01.5	92.280	-0.580	-0.380	1.160
2020/01/31 03:58:01.6	92.300	-0.560	-0.460	1.150
2020/01/31 03:58:01.7	92.320	-0.530	-0.540	1.130
2020/01/31 03:58:01.8	92.340	-0.500	-0.610	1.100
2020/01/31 03:58:01.9	92.370	-0.470	-0.690	1.080
2020/01/31 03:58:02.0	92.400	-0.440	-0.760	1.060
2020/01/31 03:58:02.1	92.430	-0.400	-0.840	1.030
2020/01/31 03:58:02.2	92.470	-0.360	-0.900	1.010
2020/01/31 03:58:02.3	92.510	-0.320	-0.960	0.990
2020/01/31 03:58:02.4	92.550	-0.280	-1.020	0.970
2020/01/31 03:58:02.5	92.590	-0.240	-1.070	0.950
2020/01/31 03:58:02.6	92.630	-0.200	-1.110	0.930
2020/01/31 03:58:02.7	92.680	-0.160	-1.150	0.920
2020/01/31 03:58:02.8	92.720	-0.120	-1.170	0.910
2020/01/31 03:58:02.9	92.760	-0.090	-1.190	0.900
2020/01/31 03:58:03.0	92.800	-0.050	-1.190	0.900
2020/01/31 03:58:03.1	92.830	-0.020	-1.190	0.890
2020/01/31 03:58:03.2	92.870	0.010	-1.170	0.890
2020/01/31 03:58:03.3	92.900	0.030	-1.140	0.890
2020/01/31 03:58:03.4	92.930	0.060	-1.110	0.900
2020/01/31 03:58:03.5	92.960	0.070	-1.060	0.910
2020/01/31 03:58:03.6	92.980	0.090	-0.990	0.910
2020/01/31 03:58:03.7	93.000	0.100	-0.930	0.920
2020/01/31 03:58:03.8	93.020	0.110	-0.850	0.940
2020/01/31 03:58:03.9	93.030	0.110	-0.760	0.950
2020/01/31 03:58:04.0	93.040	0.110	-0.670	0.960
2020/01/31 03:58:04.1	93.040	0.100	-0.560	0.980
2020/01/31 03:58:04.2	93.040	0.090	-0.460	0.990
2020/01/31 03:58:04.3	93.040	0.080	-0.360	1.010
2020/01/31 03:58:04.4	93.030	0.060	-0.250	1.020
2020/01/31 03:58:04.5	93.020	0.050	-0.140	1.040
2020/01/31 03:58:04.6	93.010	0.030	-0.040	1.050
2020/01/31 03:58:04.7	92.990	0.000	0.070	1.070
2020/01/31 03:58:04.8	92.980	-0.020	0.170	1.080
2020/01/31 03:58:04.9	92.960	-0.040	0.260	1.100
2020/01/31 03:58:05.0	92.940	-0.070	0.350	1.110
2020/01/31 03:58:05.1	92.920	-0.090	0.430	1.110
2020/01/31 03:58:05.2	92.900	-0.110	0.500	1.120
2020/01/31 03:58:05.3	92.880	-0.140	0.560	1.130
2020/01/31 03:58:05.4	92.860	-0.160	0.610	1.130
2020/01/31 03:58:05.5	92.840	-0.170	0.650	1.140
2020/01/31 03:58:05.6	92.820	-0.190	0.680	1.140
2020/01/31 03:58:05.7	92.800	-0.200	0.690	1.140
2020/01/31 03:58:05.8	92.790	-0.200	0.690	1.130
2020/01/31 03:58:05.9	92.770	-0.210	0.680	1.130
2020/01/31 03:58:06.0	92.760	-0.210	0.650	1.120
2020/01/31 03:58:06.1	92.750	-0.200	0.620	1.110
2020/01/31 03:58:06.2	92.740	-0.190	0.570	1.110
2020/01/31 03:58:06.3	92.730	-0.180	0.510	1.100
2020/01/31 03:58:06.4	92.720	-0.160	0.450	1.080
2020/01/31 03:58:06.5	92.710	-0.140	0.370	1.070
2020/01/31 03:58:06.6	92.700	-0.120	0.290	1.050
2020/01/31 03:58:06.7	92.690	-0.090	0.200	1.030
2020/01/31 03:58:06.8	92.690	-0.060	0.110	1.010
2020/01/31 03:58:06.9	92.680	-0.030	0.020	0.990
2020/01/31 03:58:07.0	92.680	0.000	-0.080	0.960
2020/01/31 03:58:07.1	92.670	0.040	-0.180	0.940
2020/01/31 03:58:07.2	92.670	0.070	-0.280	0.900
2020/01/31 03:58:07.3	92.660	0.110	-0.380	0.870
2020/01/31 03:58:07.4	92.660	0.140	-0.470	0.830
2020/01/31 03:58:07.5	92.650	0.180	-0.560	0.800
2020/01/31 03:58:07.6	92.650	0.210	-0.640	0.760
2020/01/31 03:58:07.7	92.640	0.250	-0.720	0.720
2020/01/31 03:58:07.8	92.630	0.280	-0.800	0.680
2020/01/31 03:58:07.9	92.630	0.310	-0.860	0.640
2020/01/31 03:58:08.0	92.620	0.340	-0.920	0.600
2020/01/31 03:58:08.1	92.610	0.360	-0.970	0.550
2020/01/31 03:58:08.2	92.600	0.390	-1.010	0.510
2020/01/31 03:58:08.3	92.590	0.410	-1.030	0.470
2020/01/31 03:58:08.4	92.580	0.430	-1.050	0.440
2020/01/31 03:58:08.5	92.570	0.440	-1.060	0.400
2020/01/31 03:58:08.6	92.560	0.460	-1.060	0.370
2020/01/31 03:58:08.7	92.550	0.460	-1.040	0.340
2020/01/31 03:58:08.8	92.530	0.470	-1.020	0.310
2020/01/31 03:58:08.9	92.520	0.470	-0.990	0.290
2020/01/31 03:58:09.0	92.500	0.470	-0.950	0.270
2020/01/31 03:58:09.1	92.480	0.470	-0.900	0.250
2020/01/31 03:58:09.2	92.470	0.460	-0.840	0.240
2020/01/31 03:58:09.3	92.450	0.450	-0.780	0.230
2020/01/31 03:58:09.4	92.440	0.430	-0.720	0.220
2020/01/31 03:58:09.5	92.430	0.420	-0.650	0.220
2020/01/31 03:58:09.6	92.410	0.400	-0.580	0.220
2020/01/31 03:58:09.7	92.400	0.380	-0.510	0.220
2020/01/31 03:58:09.8	92.390	0.360	-0.430	0.230
2020/01/31 03:58:09.9	92.380	0.330	-0.360	0.230
2020/01/31 03:58:10.0	92.380	0.310	-0.290	0.240
2020/01/31 03:58:10.1	92.370	0.290	-0.220	0.250
2020/01/31 03:58:10.2	92.370	0.260	-0.150	0.250
2020/01/31 03:58:10.3	92.370	0.240	-0.090	0.270
2020/01/31 03:58:10.4	92.370	0.210	-0.030	0.280
2020/01/31 03:58:10.5	92.380	0.190	0.020	0.290
2020/01/31 03:58:10.6	92.390	0.160	0.070	0.300
2020/01/31 03:58:10.7	92.400	0.140	0.110	0.310
2020/01/31 03:58:10.8	92.410	0.110	0.140	0.330
2020/01/31 03:58:10.9	92.420	0.090	0.170	0.340
2020/01/31 03:58:11.0	92.440	0.070	0.190	0.350
2020/01/31 03:58:11.1	92.460	0.050	0.210	0.370
2020/01/31 03:58:11.2	92.480	0.040	0.220	0.380
2020/01/31 03:58:11.3	92.500	0.020	0.220	0.400
2020/01/31 03:58:11.4	92.530	0.010	0.220	0.410
2020/01/31 03:58:11.5	92.550	-0.010	0.220	0.430
2020/01/31 03:58:11.6	92.580	-0.020	0.210	0.450
2020/01/31 03:58:11.7	92.600	-0.030	0.190	0.470
2020/01/31 03:58:11.8	92.630	-0.040	0.180	0.490
2020/01/31 03:58:11.9	92.660	-0.050	0.160	0.510
2020/01/31 03:58:12.0	92.680	-0.060	0.130	0.530
2020/01/31 03:58:12.1	92.700	-0.070	0.110	0.550
2020/01/31 03:58:12.2	92.720	-0.070	0.090	0.580
2020/01/31 03:58:12.3	92.740	-0.080	0.060	0.610
2020/01/31 03:58:12.4	92.760	-0.080	0.040	0.630
2020/01/31 03:58:12.5	92.780	-0.090	0.020	0.660
2020/01/31 03:58:12.6	92.800	-0.090	-0.000	0.690
2020/01/31 03:58:12.7	92.820	-0.100	-0.020	0.720
2020/01/31 03:58:12.8	92.830	-0.100	-0.030	0.750
2020/01/31 03:58:12.9	92.840	-0.110	-0.050	0.780
2020/01/31 03:58:13.0	92.860	-0.120	-0.060	0.810
2020/01/31 03:58:13.1	92.860	-0.120	-0.070	0.840
2020/01/31 03:58:13.2	92.870	-0.130	-0.070	0.870
2020/01/31 03:58:13.3	92.880	-0.140	-0.070	0.900
2020/01/31 03:58:13.4	92.890	-0.150	-0.070	0.930
2020/01/31 03:58:13.5	92.900	-0.160	-0.070	0.960
2020/01/31 03:58:13.6	92.900	-0.170	-0.060	0.990
2020/01/31 03:58:13.7	92.910	-0.180	-0.060	1.020
2020/01/31 03:58:13.8	92.910	-0.190	-0.050	1.050
2020/01/31 03:58:13.9	92.920	-0.210	-0.040	1.080
2020/01/31 03:58:14.0	92.920	-0.220	-0.030	1.110
2020/01/31 03:58:14.1	92.920	-0.230	-0.010	1.130
2020/01/31 03:58:14.2	92.920	-0.240	-0.000	1.150
2020/01/31 03:58:14.3	92.930	-0.250	0.010	1.170
2020/01/31 03:58:14.4	92.930	-0.270	0.020	1.190
2020/01/31 03:58:14.5	92.940	-0.280	0.030	1.210
2020/01/31 03:58:14.6	92.950	-0.290	0.030	1.230
2020/01/31 03:58:14.7	92.950	-0.290	0.030	1.240
2020/01/31 03:58:14.8	92.960	-0.300	0.030	1.250
2020/01/31 03:58:14.9	92.970	-0.300	0.030	1.250
2020/01/31 03:58:15.0	92.970	-0.300	0.020	1.260
2020/01/31 03:58:15.1	92.980	-0.300	0.010	1.260
2020/01/31 03:58:15.2	92.990	-0.300	-0.010	1.260
2020/01/31 03:58:15.3	93.000	-0.290	-0.020	1.260
2020/01/31 03:58:15.4	93.010	-0.280	-0.050	1.260
2020/01/31 03:58:15.5	93.010	-0.270	-0.070	1.250
2020/01/31 03:58:15.6	93.020	-0.260	-0.110	1.240
2020/01/31 03:58:15.7	93.030	-0.240	-0.140	1.230
2020/01/31 03:58:15.8	93.040	-0.220	-0.180	1.220
2020/01/31 03:58:15.9	93.050	-0.200	-0.220	1.200
2020/01/31 03:58:16.0	93.060	-0.170	-0.260	1.180
2020/01/31 03:58:16.1	93.070	-0.140	-0.310	1.160
2020/01/31 03:58:16.2	93.080	-0.110	-0.360	1.140
2020/01/31 03:58:16.3	93.090	-0.080	-0.400	1.110
2020/01/31 03:58:16.4	93.100	-0.050	-0.450	1.090
2020/01/31 03:58:16.5	93.110	-0.020	-0.500	1.060
2020/01/31 03:58:16.6	93.120	0.010	-0.540	1.040
2020/01/31 03:58:16.7	93.130	0.040	-0.580	1.010
2020/01/31 03:58:16.8	93.140	0.080	-0.630	0.980
2020/01/31 03:58:16.9	93.150	0.110	-0.670	0.960
2020/01/31 03:58:17.0	93.160	0.140	-0.700	0.930
2020/01/31 03:58:17.1	93.160	0.170	-0.730	0.910
2020/01/31 03:58:17.2	93.160	0.200	-0.750	0.880
2020/01/31 03:58:17.3	93.170	0.220	-0.780	0.860
2020/01/31 03:58:17.4	93.170	0.250	-0.790	0.840
2020/01/31 03:58:17.5	93.170	0.270	-0.800	0.820
2020/01/31 03:58:17.6	93.170	0.290	-0.810	0.810
2020/01/31 03:58:17.7	93.170	0.300	-0.800	0.790
2020/01/31 03:58:17.8	93.160	0.310	-0.800	0.780
2020/01/31 03:58:17.9	93.150	0.320	-0.780	0.770
2020/01/31 03:58:18.0	93.140	0.320	-0.760	0.770
2020/01/31 03:58:18.1	93.130	0.320	-0.730	0.760
2020/01/31 03:58:18.2	93.120	0.320	-0.700	0.760
2020/01/31 03:58:18.3	93.100	0.310	-0.650	0.770
2020/01/31 03:58:18.4	93.080	0.300	-0.610	0.770
2020/01/31 03:58:18.5	93.070	0.290	-0.560	0.780
2020/01/31 03:58:18.6	93.050	0.270	-0.500	0.790
2020/01/31 03:58:18.7	93.030	0.250	-0.440	0.800
2020/01/31 03:58:18.8	93.010	0.230	-0.380	0.810
2020/01/31 03:58:18.9	92.990	0.200	-0.320	0.830
2020/01/31 03:58:19.0	92.960	0.180	-0.250	0.840
2020/01/31 03:58:19.1	92.950	0.150	-0.180	0.860
2020/01/31 03:58:19.2	92.930	0.120	-0.110	0.880
2020/01/31 03:58:19.3	92.910	0.090	-0.050	0.890
2020/01/31 03:58:19.4	92.880	0.050	0.010	0.910
2020/01/31 03:58:19.5	92.860	0.020	0.070	0.920
2020/01/31 03:58:19.6	92.840	-0.010	0.130	0.930
2020/01/31 03:58:19.7	92.820	-0.040	0.180	0.940
2020/01/31 03:58:19.8	92.800	-0.070	0.220	0.960
2020/01/31 03:58:19.9	92.780	-0.090	0.260	0.970
2020/01/31 03:58:20.0	92.760	-0.120	0.300	0.970
2020/01/31 03:58:20.1	92.730	-0.140	0.320	0.980
2020/01/31 03:58:20.2	92.720	-0.160	0.340	0.980
2020/01/31 03:58:20.3	92.700	-0.180	0.350	0.980
2020/01/31 03:58:20.4	92.680	-0.190	0.350	0.990
2020/01/31 03:58:20.5	92.670	-0.200	0.340	0.990
2020/01/31 03:58:20.6	92.660	-0.210	0.330	0.990
2020/01/31 03:58:20.7	92.650	-0.210	0.300	0.980
2020/01/31 03:58:20.8	92.640	-0.220	0.270	0.980
2020/01/31 03:58:20.9	92.630	-0.210	0.230	0.970
2020/01/31 03:58:21.0	92.620	-0.210	0.190	0.960
2020/01/31 03:58:21.1	92.620	-0.200	0.130	0.950
2020/01/31 03:58:21.2	92.620	-0.190	0.070	0.940
2020/01/31 03:58:21.3	92.620	-0.180	0.010	0.920
2020/01/31 03:58:21.4	92.630	-0.160	-0.060	0.900
2020/01/31 03:58:21.5	92.630	-0.140	-0.130	0.880
2020/01/31 03:58:21.6	92.640	-0.120	-0.200	0.850
2020/01/31 03:58:21.7	92.660	-0.100	-0.270	0.820
2020/01/31 03:58:21.8	92.670	-0.070	-0.340	0.790
2020/01/31 03:58:21.9	92.690	-0.050	-0.410	0.760
2020/01/31 03:58:22.0	92.710	-0.020	-0.480	0.720
2020/01/31 03:58:22.1	92.740	0.000	-0.550	0.680
2020/01/31 03:58:22.2	92.760	0.030	-0.610	0.650
2020/01/31 03:58:22.3	92.790	0.060	-0.660	0.610
2020/01/31 03:58:22.4	92.820	0.090	-0.720	0.570
2020/01/31 03:58:22.5	92.850	0.110	-0.760	0.530
2020/01/31 03:58:22.6	92.890	0.140	-0.800	0.500
2020/01/31 03:58:22.7	92.920	0.160	-0.830	0.460
2020/01/31 03:58:22.8	92.960	0.190	-0.850	0.430
2020/01/31 03:58:22.9	92.990	0.210	-0.860	0.410
2020/01/31 03:58:23.0	93.030	0.230	-0.860	0.380
2020/01/31 03:58:23.1	93.060	0.240	-0.850	0.360
2020/01/31 03:58:23.2	93.100	0.260	-0.840	0.340
2020/01/31 03:58:23.3	93.130	0.270	-0.810	0.320
2020/01/31 03:58:23.4	93.170	0.280	-0.770	0.310
2020/01/31 03:58:23.5	93.210	0.280	-0.730	0.310
2020/01/31 03:58:23.6	93.240	0.290	-0.680	0.300
2020/01/31 03:58:23.7	93.270	0.290	-0.620	0.300
2020/01/31 03:58:23.8	93.310	0.280	-0.560	0.310
2020/01/31 03:58:23.9	93.340	0.280	-0.480	0.320
2020/01/31 03:58:24.0	93.370	0.270	-0.410	0.340
2020/01/31 03:58:24.1	93.390	0.250	-0.320	0.360
2020/01/31 03:58:24.2	93.420	0.240	-0.240	0.380
2020/01/31 03:58:24.3	93.440	0.220	-0.150	0.410
2020/01/31 03:58:24.4	93.460	0.190	-0.070	0.440
2020/01/31 03:58:24.5	93.480	0.170	0.020	0.470
2020/01/31 03:58:24.6	93.490	0.140	0.110	0.510
2020/01/31 03:58:24.7	93.500	0.110	0.190	0.550
2020/01/31 03:58:24.8	93.510	0.080	0.280	0.590
2020/01/31 03:58:24.9	93.510	0.050	0.360	0.630
2020/01/31 03:58:25.0	93.520	0.010	0.440	0.680
2020/01/31 03:58:25.1	93.520	-0.030	0.510	0.720
2020/01/31 03:58:25.2	93.520	-0.060	0.570	0.760
2020/01/31 03:58:25.3	93.510	-0.100	0.630	0.810
2020/01/31 03:58:25.4	93.500	-0.140	0.680	0.850
2020/01/31 03:58:25.5	93.490	-0.180	0.720	0.890
2020/01/31 03:58:25.6	93.480	-0.210	0.760	0.930
2020/01/31 03:58:25.7	93.470	-0.250	0.780	0.970
2020/01/31 03:58:25.8	93.450	-0.280	0.790	1.010
2020/01/31 03:58:25.9	93.430	-0.310	0.800	1.040
2020/01/31 03:58:26.0	93.410	-0.340	0.790	1.070
2020/01/31 03:58:26.1	93.390	-0.360	0.770	1.110
2020/01/31 03:58:26.2	93.370	-0.380	0.750	1.130
2020/01/31 03:58:26.3	93.340	-0.400	0.710	1.160
2020/01/31 03:58:26.4	93.320	-0.410	0.650	1.180
2020/01/31 03:58:26.5	93.290	-0.420	0.590	1.200
2020/01/31 03:58:26.6	93.260	-0.420	0.520	1.210
2020/01/31 03:58:26.7	93.230	-0.410	0.440	1.220
2020/01/31 03:58:26.8	93.210	-0.400	0.350	1.230
2020/01/31 03:58:26.9	93.180	-0.390	0.260	1.230
2020/01/31 03:58:27.0	93.150	-0.370	0.150	1.230
2020/01/31 03:58:27.1	93.130	-0.340	0.040	1.230
2020/01/31 03:58:27.2	93.100	-0.310	-0.080	1.220
2020/01/31 03:58:27.3	93.070	-0.280	-0.190	1.210
2020/01/31 03:58:27.4	93.050	-0.240	-0.310	1.200
2020/01/31 03:58:27.5	93.020	-0.190	-0.430	1.190
2020/01/31 03:58:27.6	93.000	-0.150	-0.550	1.180
2020/01/31 03:58:27.7	92.980	-0.100	-0.660	1.160
2020/01/31 03:58:27.8	92.950	-0.050	-0.770	1.150
2020/01/31 03:58:27.9	92.930	0.000	-0.880	1.130
2020/01/31 03:58:28.0	92.910	0.060	-0.970	1.110
2020/01/31 03:58:28.1	92.900	0.110	-1.070	1.090
2020/01/31 03:58:28.2	92.880	0.160	-1.150	1.060
2020/01/31 03:58:28.3	92.870	0.210	-1.220	1.040
2020/01/31 03:58:28.4	92.850	0.270	-1.290	1.020
2020/01/31 03:58:28.5	92.840	0.310	-1.340	0.990
2020/01/31 03:58:28.6	92.830	0.360	-1.380	0.970
2020/01/31 03:58:28.7	92.830	0.400	-1.410	0.940
2020/01/31 03:58:28.8	92.820	0.440	-1.430	0.920
2020/01/31 03:58:28.9	92.820	0.480	-1.440	0.890
2020/01/31 03:58:29.0	92.820	0.510	-1.430	0.870
2020/01/31 03:58:29.1	92.820	0.540	-1.420	0.840
2020/01/31 03:58:29.2	92.820	0.560	-1.390	0.820
2020/01/31 03:58:29.3	92.830	0.580	-1.350	0.790
2020/01/31 03:58:29.4	92.830	0.600	-1.300	0.770
2020/01/31 03:58:29.5	92.840	0.600	-1.250	0.750
2020/01/31 03:58:29.6	92.850	0.610	-1.180	0.730
2020/01/31 03:58:29.7	92.860	0.610	-1.110	0.700
2020/01/31 03:58:29.8	92.880	0.600	-1.030	0.680
2020/01/31 03:58:29.9	92.890	0.590	-0.950	0.660
2020/01/31 03:58:30.0	92.910	0.580	-0.860	0.650
2020/01/31 03:58:30.1	92.930	0.560	-0.770	0.630
2020/01/31 03:58:30.2	92.950	0.540	-0.670	0.610
2020/01/31 03:58:30.3	92.980	0.510	-0.580	0.590
2020/01/31 03:58:30.4	93.000	0.480	-0.480	0.580
2020/01/31 03:58:30.5	93.020	0.450	-0.380	0.560
2020/01/31 03:58:30.6	93.050	0.410	-0.280	0.550
2020/01/31 03:58:30.7	93.070	0.370	-0.190	0.540
2020/01/31 03:58:30.8	93.100	0.330	-0.090	0.530
2020/01/31 03:58:30.9	93.120	0.290	0.000	0.520
2020/01/31 03:58:31.0	93.150	0.240	0.090	0.520
2020/01/31 03:58:31.1	93.170	0.200	0.180	0.520
2020/01/31 03:58:31.2	93.200	0.150	0.260	0.510
2020/01/31 03:58:31.3	93.220	0.100	0.340	0.520
2020/01/31 03:58:31.4	93.250	0.060	0.410	0.520
2020/01/31 03:58:31.5	93.270	0.010	0.470	0.530
2020/01/31 03:58:31.6	93.290	-0.030	0.530	0.540
2020/01/31 03:58:31.7	93.310	-0.080	0.580	0.550
2020/01/31 03:58:31.8	93.330	-0.120	0.630	0.570
2020/01/31 03:58:31.9	93.350	-0.160	0.670	0.590
2020/01/31 03:58:32.0	93.360	-0.200	0.700	0.620
2020/01/31 03:58:32.1	93.370	-0.240	0.720	0.650
2020/01/31 03:58:32.2	93.380	-0.270	0.740	0.680
2020/01/31 03:58:32.3	93.380	-0.300	0.750	0.720
2020/01/31 03:58:32.4	93.380	-0.330	0.750	0.760
2020/01/31 03:58:32.5	93.380	-0.360	0.750	0.800
2020/01/31 03:58:32.6	93.380	-0.380	0.740	0.840
2020/01/31 03:58:32.7	93.370	-0.410	0.720	0.890
2020/01/31 03:58:32.8	93.360	-0.430	0.690	0.940
2020/01/31 03:58:32.9	93.340	-0.440	0.670	0.990
2020/01/31 03:58:33.0	93.320	-0.460	0.630	1.030
2020/01/31 03:58:33.1	93.300	-0.470	0.590	1.080
2020/01/31 03:58:33.2	93.280	-0.480	0.550	1.130
2020/01/31 03:58:33.3	93.250	-0.490	0.500	1.170
2020/01/31 03:58:33.4	93.220	-0.490	0.450	1.210
2020/01/31 03:58:33.5	93.200	-0.490	0.390	1.240
2020/01/31 03:58:33.6	93.170	-0.490	0.330	1.280
2020/01/31 03:58:33.7	93.140	-0.490	0.270	1.300
2020/01/31 03:58:33.8	93.100	-0.490	0.200	1.330
2020/01/31 03:58:33.9	93.070	-0.480	0.140	1.340
2020/01/31 03:58:34.0	93.040	-0.480	0.070	1.360
2020/01/31 03:58:34.1	93.010	-0.460	-0.000	1.360
2020/01/31 03:58:34.2	92.980	-0.450	-0.080	1.370
2020/01/31 03:58:34.3	92.950	-0.440	-0.150	1.370
2020/01/31 03:58:34.4	92.930	-0.420	-0.230	1.360
2020/01/31 03:58:34.5	92.900	-0.400	-0.300	1.360
2020/01/31 03:58:34.6	92.880	-0.380	-0.380	1.340
2020/01/31 03:58:34.7	92.860	-0.360	-0.450	1.330
2020/01/31 03:58:34.8	92.840	-0.330	-0.530	1.310
2020/01/31 03:58:34.9	92.830	-0.300	-0.600	1.280
2020/01/31 03:58:35.0	92.810	-0.270	-0.670	1.260
2020/01/31 03:58:35.1	92.800	-0.240	-0.740	1.230
2020/01/31 03:58:35.2	92.800	-0.200	-0.810	1.200
2020/01/31 03:58:35.3	92.790	-0.170	-0.870	1.170
2020/01/31 03:58:35.4	92.790	-0.130	-0.920	1.130
2020/01/31 03:58:35.5	92.790	-0.090	-0.970	1.100
2020/01/31 03:58:35.6	92.790	-0.050	-1.020	1.070
2020/01/31 03:58:35.7	92.790	-0.010	-1.050	1.040
2020/01/31 03:58:35.8	92.800	0.030	-1.090	1.010
2020/01/31 03:58:35.9	92.810	0.070	-1.110	0.980
2020/01/31 03:58:36.0	92.820	0.100	-1.120	0.950
2020/01/31 03:58:36.1	92.820	0.140	-1.130	0.920
2020/01/31 03:58:36.2	92.830	0.180	-1.120	0.900
2020/01/31 03:58:36.3	92.850	0.210	-1.110	0.870
2020/01/31 03:58:36.4	92.860	0.240	-1.090	0.850
2020/01/31 03:58:36.5	92.880	0.270	-1.060	0.830
2020/01/31 03:58:36.6	92.890	0.300	-1.030	0.810
2020/01/31 03:58:36.7	92.910	0.320	-0.980	0.790
2020/01/31 03:58:36.8	92.930	0.330	-0.930	0.770
2020/01/31 03:58:36.9	92.940	0.350	-0.880	0.750
2020/01/31 03:58:37.0	92.960	0.360	-0.810	0.730
2020/01/31 03:58:37.1	92.980	0.360	-0.750	0.720
2020/01/31 03:58:37.2	92.990	0.370	-0.670	0.690
2020/01/31 03:58:37.3	93.010	0.360	-0.590	0.670
2020/01/31 03:58:37.4	93.020	0.360	-0.510	0.650
2020/01/31 03:58:37.5	93.030	0.350	-0.430	0.630
2020/01/31 03:58:37.6	93.030	0.330	-0.350	0.610
2020/01/31 03:58:37.7	93.040	0.320	-0.260	0.590
2020/01/31 03:58:37.8	93.040	0.300	-0.180	0.570
2020/01/31 03:58:37.9	93.050	0.270	-0.090	0.550
2020/01/31 03:58:38.0	93.050	0.250	-0.010	0.530
2020/01/31 03:58:38.1	93.060	0.220	0.080	0.510
2020/01/31 03:58:38.2	93.050	0.200	0.150	0.490
2020/01/31 03:58:38.3	93.050	0.170	0.220	0.480
2020/01/31 03:58:38.4	93.050	0.140	0.290	0.460
2020/01/31 03:58:38.5	93.040	0.110	0.350	0.450
2020/01/31 03:58:38.6	93.030	0.090	0.400	0.440
2020/01/31 03:58:38.7	93.020	0.060	0.440	0.440
2020/01/31 03:58:38.8	93.010	0.040	0.480	0.440
2020/01/31 03:58:38.9	93.000	0.010	0.510	0.440
2020/01/31 03:58:39.0	93.000	-0.010	0.530	0.440
2020/01/31 03:58:39.1	92.980	-0.020	0.540	0.440
2020/01/31 03:58:39.2	92.970	-0.040	0.550	0.450
2020/01/31 03:58:39.3	92.960	-0.050	0.550	0.460
2020/01/31 03:58:39.4	92.950	-0.060	0.540	0.470
2020/01/31 03:58:39.5	92.940	-0.070	0.520	0.490
2020/01/31 03:58:39.6	92.940	-0.070	0.500	0.510
2020/01/31 03:58:39.7	92.930	-0.070	0.470	0.530
2020/01/31 03:58:39.8	92.920	-0.070	0.430	0.550
2020/01/31 03:58:39.9	92.920	-0.070	0.390	0.580
2020/01/31 03:58:40.0	92.910	-0.060	0.350	0.610
2020/01/31 03:58:40.1	92.900	-0.060	0.300	0.640
2020/01/31 03:58:40.2	92.890	-0.050	0.250	0.670
2020/01/31 03:58:40.3	92.890	-0.030	0.200	0.700
2020/01/31 03:58:40.4	92.880	-0.020	0.140	0.730
2020/01/31 03:58:40.5	92.880	-0.010	0.090	0.750
2020/01/31 03:58:40.6	92.870	0.000	0.030	0.780
2020/01/31 03:58:40.7	92.870	0.020	-0.020	0.800
2020/01/31 03:58:40.8	92.870	0.030	-0.080	0.820
2020/01/31 03:58:40.9	92.870	0.040	-0.130	0.840
2020/01/31 03:58:41.0	92.870	0.050	-0.190	0.860
2020/01/31 03:58:41.1	92.870	0.060	-0.240	0.870
2020/01/31 03:58:41.2	92.870	0.070	-0.290	0.890
2020/01/31 03:58:41.3	92.880	0.080	-0.340	0.900
2020/01/31 03:58:41.4	92.880	0.090	-0.390	0.910
2020/01/31 03:58:41.5	92.880	0.090	-0.440	0.920
2020/01/31 03:58:41.6	92.880	0.100	-0.480	0.920
2020/01/31 03:58:41.7	92.880	0.100	-0.520	0.930
2020/01/31 03:58:41.8	92.880	0.100	-0.560	0.930
2020/01/31 03:58:41.9	92.880	0.100	-0.590	0.940
2020/01/31 03:58:42.0	92.880	0.090	-0.620	0.940
2020/01/31 03:58:42.1	92.870	0.090	-0.660	0.940
2020/01/31 03:58:42.2	92.870	0.080	-0.680	0.940
2020/01/31 03:58:42.3	92.870	0.080	-0.700	0.940
2020/01/31 03:58:42.4	92.870	0.070	-0.720	0.940
2020/01/31 03:58:42.5	92.870	0.060	-0.730	0.940
2020/01/31 03:58:42.6	92.870	0.050	-0.730	0.930
2020/01/31 03:58:42.7	92.870	0.030	-0.740	0.930
2020/01/31 03:58:42.8	92.880	0.020	-0.730	0.930
2020/01/31 03:58:42.9	92.880	0.010	-0.720	0.920
2020/01/31 03:58:43.0	92.890	-0.010	-0.710	0.920
2020/01/31 03:58:43.1	92.900	-0.020	-0.680	0.910
2020/01/31 03:58:43.2	92.910	-0.040	-0.660	0.900
2020/01/31 03:58:43.3	92.920	-0.050	-0.620	0.900
2020/01/31 03:58:43.4	92.930	-0.070	-0.590	0.900
2020/01/31 03:58:43.5	92.940	-0.080	-0.550	0.900
2020/01/31 03:58:43.6	92.950	-0.100	-0.500	0.900
2020/01/31 03:58:43.7	92.970	-0.110	-0.450	0.900
2020/01/31 03:58:43.8	92.980	-0.130	-0.400	0.900
2020/01/31 03:58:43.9	92.990	-0.140	-0.350	0.910
2020/01/31 03:58:44.0	93.010	-0.150	-0.300	0.920
2020/01/31 03:58:44.1	93.010	-0.160	-0.240	0.930
2020/01/31 03:58:44.2	93.020	-0.170	-0.190	0.940
2020/01/31 03:58:44.3	93.030	-0.180	-0.140	0.950
2020/01/31 03:58:44.4	93.040	-0.180	-0.090	0.970
2020/01/31 03:58:44.5	93.040	-0.190	-0.050	0.990
2020/01/31 03:58:44.6	93.050	-0.190	-0.000	1.000
2020/01/31 03:58:44.7	93.050	-0.190	0.030	1.020
2020/01/31 03:58:44.8	93.060	-0.190	0.060	1.040
2020/01/31 03:58:44.9	93.060	-0.180	0.090	1.060
2020/01/31 03:58:45.0	93.060	-0.180	0.110	1.080
2020/01/31 03:58:45.1	93.050	-0.170	0.130	1.100
2020/01/31 03:58:45.2	93.050	-0.160	0.140	1.120
2020/01/31 03:58:45.3	93.050	-0.150	0.140	1.140
2020/01/31 03:58:45.4	93.040	-0.130	0.140	1.150
2020/01/31 03:58:45.5	93.040	-0.120	0.130	1.160
2020/01/31 03:58:45.6	93.030	-0.100	0.120	1.180
2020/01/31 03:58:45.7	93.020	-0.090	0.100	1.190
2020/01/31 03:58:45.8	93.010	-0.070	0.080	1.190
2020/01/31 03:58:45.9	93.000	-0.050	0.060	1.200
2020/01/31 03:58:46.0	92.990	-0.040	0.030	1.200
2020/01/31 03:58:46.1	92.980	-0.020	0.000	1.200
2020/01/31 03:58:46.2	92.970	-0.000	-0.030	1.200
2020/01/31 03:58:46.3	92.960	0.010	-0.060	1.200
2020/01/31 03:58:46.4	92.950	0.030	-0.100	1.190
2020/01/31 03:58:46.5	92.940	0.040	-0.130	1.180
2020/01/31 03:58:46.6	92.930	0.060	-0.170	1.170
2020/01/31 03:58:46.7	92.920	0.070	-0.200	1.150
2020/01/31 03:58:46.8	92.920	0.080	-0.240	1.140
2020/01/31 03:58:46.9	92.910	0.100	-0.270	1.120
2020/01/31 03:58:47.0	92.900	0.110	-0.310	1.100
2020/01/31 03:58:47.1	92.910	0.120	-0.340	1.080
2020/01/31 03:58:47.2	92.910	0.130	-0.370	1.060
2020/01/31 03:58:47.3	92.910	0.130	-0.410	1.040
2020/01/31 03:58:47.4	92.910	0.140	-0.430	1.010
2020/01/31 03:58:47.5	92.910	0.150	-0.460	0.990
2020/01/31 03:58:47.6	92.920	0.150	-0.480	0.970
2020/01/31 03:58:47.7	92.930	0.160	-0.510	0.950
2020/01/31 03:58:47.8	92.950	0.160	-0.520	0.930
2020/01/31 03:58:47.9	92.960	0.170	-0.540	0.910
2020/01/31 03:58:48.0	92.980	0.170	-0.550	0.880
2020/01/31 03:58:48.1	92.990	0.180	-0.560	0.860
2020/01/31 03:58:48.2	93.010	0.180	-0.570	0.840
2020/01/31 03:58:48.3	93.040	0.180	-0.570	0.820
2020/01/31 03:58:48.4	93.060	0.180	-0.560	0.800
2020/01/31 03:58:48.5	93.080	0.180	-0.560	0.780
2020/01/31 03:58:48.6	93.100	0.190	-0.540	0.760
2020/01/31 03:58:48.7	93.130	0.190	-0.530	0.740
2020/01/31 03:58:48.8	93.150	0.180	-0.510	0.720
2020/01/31 03:58:48.9	93.160	0.180	-0.490	0.700
2020/01/31 03:58:49.0	93.180	0.180	-0.470	0.680
2020/01/31 03:58:49.1	93.190	0.180	-0.440	0.660
2020/01/31 03:58:49.2	93.210	0.170	-0.410	0.650
2020/01/31 03:58:49.3	93.220	0.170	-0.380	0.630
2020/01/31 03:58:49.4	93.220	0.160	-0.340	0.620
2020/01/31 03:58:49.5	93.230	0.150	-0.310	0.610
2020/01/31 03:58:49.6	93.230	0.150	-0.270	0.600
2020/01/31 03:58:49.7	93.230	0.140	-0.230	0.590
2020/01/31 03:58:49.8	93.230	0.130	-0.200	0.580
2020/01/31 03:58:49.9	93.230	0.110	-0.160	0.580
2020/01/31 03:58:50.0	93.220	0.100	-0.120	0.580
2020/01/31 03:58:50.1	93.210	0.090	-0.080	0.580
2020/01/31 03:58:50.2	93.190	0.070	-0.050	0.580
2020/01/31 03:58:50.3	93.180	0.060	-0.010	0.580
2020/01/31 03:58:50.4	93.170	0.040	0.030	0.590
2020/01/31 03:58:50.5	93.150	0.020	0.060	0.590
2020/01/31 03:58:50.6	93.130	0.010	0.090	0.600
2020/01/31 03:58:50.7	93.110	-0.010	0.120	0.610
2020/01/31 03:58:50.8	93.090	-0.030	0.150	0.620
2020/01/31 03:58:50.9	93.070	-0.050	0.170	0.640
2020/01/31 03:58:51.0	93.050	-0.070	0.190	0.650
2020/01/31 03:58:51.1	93.040	-0.090	0.210	0.660
2020/01/31 03:58:51.2	93.020	-0.100	0.230	0.680
2020/01/31 03:58:51.3	93.000	-0.120	0.240	0.700
2020/01/31 03:58:51.4	92.990	-0.140	0.240	0.720
2020/01/31 03:58:51.5	92.970	-0.150	0.250	0.740
2020/01/31 03:58:51.6	92.960	-0.170	0.250	0.760
2020/01/31 03:58:51.7	92.940	-0.180	0.240	0.780
2020/01/31 03:58:51.8	92.930	-0.190	0.230	0.800
2020/01/31 03:58:51.9	92.920	-0.200	0.220	0.820
2020/01/31 03:58:52.0	92.920	-0.210	0.200	0.830
2020/01/31 03:58:52.1	92.910	-0.220	0.180	0.860
2020/01/31 03:58:52.2	92.910	-0.230	0.150	0.870
2020/01/31 03:58:52.3	92.910	-0.230	0.130	0.890
2020/01/31 03:58:52.4	92.910	-0.240	0.100	0.900
2020/01/31 03:58:52.5	92.920	-0.240	0.070	0.910
2020/01/31 03:58:52.6	92.920	-0.240	0.030	0.920
2020/01/31 03:58:52.7	92.930	-0.240	-0.000	0.930
2020/01/31 03:58:52.8	92.940	-0.240	-0.040	0.930
2020/01/31 03:58:52.9	92.950	-0.240	-0.080	0.930
2020/01/31 03:58:53.0	92.970	-0.240	-0.120	0.930
2020/01/31 03:58:53.1	92.980	-0.240	-0.160	0.930
2020/01/31 03:58:53.2	92.990	-0.230	-0.200	0.920
2020/01/31 03:58:53.3	93.010	-0.230	-0.240	0.910
2020/01/31 03:58:53.4	93.030	-0.230	-0.280	0.900
2020/01/31 03:58:53.5	93.050	-0.220	-0.320	0.880
2020/01/31 03:58:53.6	93.070	-0.210	-0.360	0.860
2020/01/31 03:58:53.7	93.090	-0.210	-0.390	0.840
2020/01/31 03:58:53.8	93.120	-0.200	-0.430	0.810
2020/01/31 03:58:53.9	93.140	-0.190	-0.460	0.790
2020/01/31 03:58:54.0	93.160	-0.190	-0.490	0.760
2020/01/31 03:58:54.1	93.180	-0.180	-0.530	0.740
2020/01/31 03:58:54.2	93.200	-0.170	-0.560	0.710
2020/01/31 03:58:54.3	93.210	-0.160	-0.580	0.690
2020/01/31 03:58:54.4	93.230	-0.150	-0.600	0.660
2020/01/31 03:58:54.5	93.240	-0.130	-0.620	0.650
2020/01/31 03:58:54.6	93.250	-0.120	-0.640	0.630
2020/01/31 03:58:54.7	93.260	-0.110	-0.650	0.620
2020/01/31 03:58:54.8	93.270	-0.090	-0.660	0.620
2020/01/31 03:58:54.9	93.270	-0.080	-0.670	0.610
2020/01/31 03:58:55.0	93.270	-0.060	-0.670	0.620
2020/01/31 03:58:55.1	93.270	-0.040	-0.670	0.630
2020/01/31 03:58:55.2	93.270	-0.030	-0.670	0.640
2020/01/31 03:58:55.3	93.270	-0.010	-0.660	0.660
2020/01/31 03:58:55.4	93.270	0.010	-0.650	0.680
2020/01/31 03:58:55.5	93.270	0.030	-0.640	0.700
2020/01/31 03:58:55.6	93.260	0.050	-0.620	0.730
2020/01/31 03:58:55.7	93.260	0.060	-0.600	0.760
2020/01/31 03:58:55.8	93.250	0.080	-0.580	0.790
2020/01/31 03:58:55.9	93.240	0.090	-0.550	0.820
2020/01/31 03:58:56.0	93.240	0.110	-0.520	0.860
2020/01/31 03:58:56.1	93.240	0.120	-0.490	0.890
2020/01/31 03:58:56.2	93.230	0.130	-0.460	0.930
2020/01/31 03:58:56.3	93.220	0.140	-0.430	0.970
2020/01/31 03:58:56.4	93.220	0.150	-0.400	1.000
2020/01/31 03:58:56.5	93.210	0.160	-0.370	1.040
2020/01/31 03:58:56.6	93.200	0.160	-0.340	1.070
2020/01/31 03:58:56.7	93.190	0.160	-0.310	1.100
2020/01/31 03:58:56.8	93.180	0.160	-0.280	1.140
2020/01/31 03:58:56.9	93.180	0.160	-0.250	1.160
2020/01/31 03:58:57.0	93.170	0.160	-0.220	1.190
2020/01/31 03:58:57.1	93.150	0.150	-0.200	1.210
2020/01/31 03:58:57.2	93.140	0.150	-0.170	1.230
2020/01/31 03:58:57.3	93.130	0.140	-0.150	1.240
2020/01/31 03:58:57.4	93.110	0.130	-0.130	1.260
2020/01/31 03:58:57.5	93.100	0.120	-0.120	1.270
2020/01/31 03:58:57.6	93.080	0.110	-0.100	1.270
2020/01/31 03:58:57.7	93.060	0.100	-0.090	1.270
2020/01/31 03:58:57.8	93.040	0.080	-0.080	1.270
2020/01/31 03:58:57.9	93.020	0.070	-0.080	1.260
2020/01/31 03:58:58.0	93.000	0.060	-0.070	1.250
2020/01/31 03:58:58.1	92.970	0.040	-0.070	1.240
2020/01/31 03:58:58.2	92.950	0.030	-0.070	1.220
2020/01/31 03:58:58.3	92.930	0.010	-0.070	1.200
2020/01/31 03:58:58.4	92.910	0.000	-0.070	1.170
2020/01/31 03:58:58.5	92.880	-0.010	-0.070	1.150
2020/01/31 03:58:58.6	92.860	-0.030	-0.070	1.120
2020/01/31 03:58:58.7	92.840	-0.040	-0.070	1.090
2020/01/31 03:58:58.8	92.830	-0.050	-0.070	1.060
2020/01/31 03:58:58.9	92.810	-0.060	-0.070	1.030
2020/01/31 03:58:59.0	92.790	-0.070	-0.070	1.000
2020/01/31 03:58:59.1	92.780	-0.080	-0.070	0.970
2020/01/31 03:58:59.2	92.770	-0.080	-0.060	0.940
2020/01/31 03:58:59.3	92.760	-0.090	-0.060	0.910
2020/01/31 03:58:59.4	92.760	-0.090	-0.060	0.890
2020/01/31 03:58:59.5	92.750	-0.090	-0.050	0.870
2020/01/31 03:58:59.6	92.750	-0.100	-0.050	0.840
2020/01/31 03:58:59.7	92.750	-0.100	-0.040	0.820
2020/01/31 03:58:59.8	92.760	-0.100	-0.040	0.810
2020/01/31 03:58:59.9	92.770	-0.090	-0.030	0.790
2020/01/31 03:59:00.0	92.770	-0.090	-0.030	0.770
2020/01/31 03:59:00.1	92.780	-0.090	-0.020	0.760
2020/01/31 03:59:00.2	92.790	-0.080	-0.020	0.750
2020/01/31 03:59:00.3	92.800	-0.070	-0.020	0.740
2020/01/31 03:59:00.4	92.820	-0.070	-0.020	0.730
2020/01/31 03:59:00.5	92.840	-0.060	-0.020	0.710
2020/01/31 03:59:00.6	92.850	-0.050	-0.020	0.700
2020/01/31 03:59:00.7	92.870	-0.040	-0.020	0.690
2020/01/31 03:59:00.8	92.900	-0.030	-0.030	0.680
2020/01/31 03:59:00.9	92.920	-0.030	-0.030	0.660
2020/01/31 03:59:01.0	92.940	-0.020	-0.040	0.650
2020/01/31 03:59:01.1	92.970	-0.010	-0.050	0.630
2020/01/31 03:59:01.2	92.990	-0.000	-0.060	0.610
2020/01/31 03:59:01.3	93.020	0.010	-0.070	0.600
2020/01/31 03:59:01.4	93.040	0.020	-0.080	0.580
2020/01/31 03:59:01.5	93.070	0.020	-0.090	0.560
2020/01/31 03:59:01.6	93.090	0.030	-0.100	0.540
2020/01/31 03:59:01.7	93.110	0.040	-0.110	0.520
2020/01/31 03:59:01.8	93.140	0.040	-0.120	0.500
2020/01/31 03:59:01.9	93.160	0.050	-0.140	0.480
2020/01/31 03:59:02.0	93.180	0.050	-0.150	0.460
2020/01/31 03:59:02.1	93.200	0.060	-0.160	0.450
2020/01/31 03:59:02.2	93.220	0.060	-0.170	0.440
2020/01/31 03:59:02.3	93.240	0.070	-0.180	0.440
2020/01/31 03:59:02.4	93.250	0.070	-0.190	0.430
2020/01/31 03:59:02.5	93.270	0.080	-0.190	0.440
2020/01/31 03:59:02.6	93.280	0.080	-0.200	0.440
2020/01/31 03:59:02.7	93.290	0.080	-0.210	0.450
2020/01/31 03:59:02.8	93.300	0.080	-0.210	0.470
2020/01/31 03:59:02.9	93.310	0.090	-0.220	0.490
2020/01/31 03:59:03.0	93.320	0.090	-0.220	0.510
2020/01/31 03:59:03.1	93.320	0.090	-0.220	0.540
2020/01/31 03:59:03.2	93.330	0.090	-0.230	0.580
2020/01/31 03:59:03.3	93.330	0.090	-0.230	0.610
2020/01/31 03:59:03.4	93.330	0.090	-0.230	0.650
2020/01/31 03:59:03.5	93.330	0.090	-0.240	0.690
2020/01/31 03:59:03.6	93.340	0.090	-0.240	0.740
2020/01/31 03:59:03.7	93.330	0.090	-0.250	0.780
2020/01/31 03:59:03.8	93.330	0.090	-0.250	0.820
2020/01/31 03:59:03.9	93.330	0.090	-0.260	0.870
2020/01/31 03:59:04.0	93.330	0.080	-0.260	0.910
2020/01/31 03:59:04.1	93.320	0.080	-0.270	0.950
2020/01/31 03:59:04.2	93.320	0.080	-0.280	0.990
2020/01/31 03:59:04.3	93.310	0.070	-0.280	1.020
2020/01/31 03:59:04.4	93.300	0.070	-0.290	1.060
2020/01/31 03:59:04.5	93.290	0.060	-0.300	1.090
2020/01/31 03:59:04.6	93.280	0.050	-0.300	1.110
2020/01/31 03:59:04.7	93.270	0.050	-0.310	1.140
2020/01/31 03:59:04.8	93.260	0.040	-0.310	1.150
2020/01/31 03:59:04.9	93.250	0.030	-0.310	1.170
2020/01/31 03:59:05.0	93.230	0.020	-0.320	1.180
2020/01/31 03:59:05.1	93.220	0.010	-0.320	1.190
2020/01/31 03:59:05.2	93.200	-0.000	-0.320	1.200
2020/01/31 03:59:05.3	93.190	-0.010	-0.330	1.200
2020/01/31 03:59:05.4	93.170	-0.020	-0.330	1.200
2020/01/31 03:59:05.5	93.150	-0.030	-0.330	1.200
2020/01/31 03:59:05.6	93.130	-0.050	-0.340	1.190
2020/01/31 03:59:05.7	93.110	-0.060	-0.340	1.190
2020/01/31 03:59:05.8	93.090	-0.070	-0.340	1.180
2020/01/31 03:59:05.9	93.070	-0.080	-0.340	1.180
2020/01/31 03:59:06.0	93.050	-0.080	-0.340	1.170
2020/01/31 03:59:06.1	93.030	-0.090	-0.340	1.160
2020/01/31 03:59:06.2	93.010	-0.100	-0.340	1.150
2020/01/31 03:59:06.3	92.980	-0.100	-0.340	1.140
2020/01/31 03:59:06.4	92.960	-0.110	-0.340	1.130
2020/01/31 03:59:06.5	92.940	-0.110	-0.340	1.120
2020/01/31 03:59:06.6	92.920	-0.110	-0.340	1.110
2020/01/31 03:59:06.7	92.900	-0.110	-0.340	1.100
2020/01/31 03:59:06.8	92.880	-0.110	-0.340	1.080
2020/01/31 03:59:06.9	92.860	-0.110	-0.350	1.070
2020/01/31 03:59:07.0	92.840	-0.100	-0.350	1.060
2020/01/31 03:59:07.1	92.830	-0.090	-0.350	1.050
2020/01/31 03:59:07.2	92.810	-0.090	-0.360	1.040
2020/01/31 03:59:07.3	92.800	-0.080	-0.370	1.020
2020/01/31 03:59:07.4	92.790	-0.060	-0.370	1.000
2020/01/31 03:59:07.5	92.790	-0.050	-0.380	0.980
2020/01/31 03:59:07.6	92.790	-0.040	-0.390	0.960
2020/01/31 03:59:07.7	92.790	-0.020	-0.400	0.940
2020/01/31 03:59:07.8	92.790	-0.010	-0.410	0.910
2020/01/31 03:59:07.9	92.800	0.010	-0.420	0.880
2020/01/31 03:59:08.0	92.800	0.020	-0.430	0.850
2020/01/31 03:59:08.1	92.810	0.040	-0.440	0.820
2020/01/31 03:59:08.2	92.830	0.050	-0.450	0.790
2020/01/31 03:59:08.3	92.840	0.070	-0.450	0.760
2020/01/31 03:59:08.4	92.860	0.080	-0.460	0.730
2020/01/31 03:59:08.5	92.880	0.090	-0.460	0.690
2020/01/31 03:59:08.6	92.900	0.110	-0.470	0.660
2020/01/31 03:59:08.7	92.920	0.120	-0.470	0.630
2020/01/31 03:59:08.8	92.940	0.130	-0.470	0.600
2020/01/31 03:59:08.9	92.960	0.140	-0.470	0.580
2020/01/31 03:59:09.0	92.980	0.140	-0.460	0.550
2020/01/31 03:59:09.1	93.000	0.150	-0.450	0.530
2020/01/31 03:59:09.2	93.020	0.150	-0.440	0.510
2020/01/31 03:59:09.3	93.040	0.150	-0.430	0.490
2020/01/31 03:59:09.4	93.050	0.150	-0.410	0.480
2020/01/31 03:59:09.5	93.070	0.150	-0.400	0.470
2020/01/31 03:59:09.6	93.080	0.150	-0.370	0.470
2020/01/31 03:59:09.7	93.080	0.140	-0.350	0.470
2020/01/31 03:59:09.8	93.090	0.130	-0.330	0.480
2020/01/31 03:59:09.9	93.090	0.120	-0.300	0.490
2020/01/31 03:59:10.0	93.090	0.110	-0.270	0.500
2020/01/31 03:59:10.1	93.090	0.100	-0.240	0.520
2020/01/31 03:59:10.2	93.080	0.090	-0.210	0.540
2020/01/31 03:59:10.3	93.070	0.070	-0.180	0.570
2020/01/31 03:59:10.4	93.060	0.060	-0.150	0.590
2020/01/31 03:59:10.5	93.050	0.040	-0.120	0.620
2020/01/31 03:59:10.6	93.030	0.030	-0.090	0.660
2020/01/31 03:59:10.7	93.020	0.010	-0.060	0.690
2020/01/31 03:59:10.8	93.000	-0.010	-0.040	0.730
2020/01/31 03:59:10.9	92.990	-0.030	-0.010	0.760
2020/01/31 03:59:11.0	92.970	-0.040	0.010	0.790
2020/01/31 03:59:11.1	92.950	-0.060	0.030	0.830
2020/01/31 03:59:11.2	92.940	-0.080	0.050	0.860
2020/01/31 03:59:11.3	92.930	-0.090	0.060	0.900
2020/01/31 03:59:11.4	92.910	-0.110	0.080	0.920
2020/01/31 03:59:11.5	92.900	-0.120	0.090	0.950
2020/01/31 03:59:11.6	92.900	-0.140	0.090	0.970
2020/01/31 03:59:11.7	92.890	-0.150	0.100	0.990
2020/01/31 03:59:11.8	92.890	-0.160	0.100	1.010
2020/01/31 03:59:11.9	92.890	-0.170	0.100	1.020
2020/01/31 03:59:12.0	92.890	-0.180	0.100	1.030
2020/01/31 03:59:12.1	92.890	-0.190	0.100	1.040
2020/01/31 03:59:12.2	92.900	-0.200	0.090	1.050
2020/01/31 03:59:12.3	92.910	-0.200	0.080	1.050
2020/01/31 03:59:12.4	92.920	-0.210	0.080	1.050
2020/01/31 03:59:12.5	92.930	-0.210	0.070	1.040
2020/01/31 03:59:12.6	92.950	-0.220	0.060	1.030
2020/01/31 03:59:12.7	92.960	-0.220	0.050	1.020
2020/01/31 03:59:12.8	92.980	-0.230	0.050	1.010
2020/01/31 03:59:12.9	93.000	-0.230	0.040	1.000
2020/01/31 03:59:13.0	93.010	-0.240	0.040	0.990
2020/01/31 03:59:13.1	93.040	-0.250	0.030	0.970
2020/01/31 03:59:13.2	93.050	-0.250	0.030	0.950
2020/01/31 03:59:13.3	93.070	-0.260	0.030	0.940
2020/01/31 03:59:13.4	93.080	-0.270	0.030	0.920
2020/01/31 03:59:13.5	93.090	-0.280	0.040	0.900
2020/01/31 03:59:13.6	93.100	-0.290	0.050	0.880
2020/01/31 03:59:13.7	93.100	-0.300	0.060	0.860
2020/01/31 03:59:13.8	93.110	-0.310	0.070	0.840
2020/01/31 03:59:13.9	93.110	-0.320	0.090	0.820
2020/01/31 03:59:14.0	93.110	-0.330	0.100	0.800
2020/01/31 03:59:14.1	93.110	-0.340	0.120	0.790
2020/01/31 03:59:14.2	93.110	-0.350	0.140	0.770
2020/01/31 03:59:14.3	93.110	-0.360	0.160	0.760
2020/01/31 03:59:14.4	93.100	-0.370	0.170	0.740
2020/01/31 03:59:14.5	93.090	-0.380	0.190	0.730
2020/01/31 03:59:14.6	93.090	-0.390	0.200	0.720
2020/01/31 03:59:14.7	93.080	-0.390	0.210	0.710
2020/01/31 03:59:14.8	93.070	-0.400	0.220	0.710
2020/01/31 03:59:14.9	93.060	-0.400	0.220	0.700
2020/01/31 03:59:15.0	93.050	-0.400	0.210	0.700
2020/01/31 03:59:15.1	93.050	-0.400	0.210	0.700
2020/01/31 03:59:15.2	93.040	-0.400	0.190	0.700
2020/01/31 03:59:15.3	93.030	-0.390	0.170	0.690
2020/01/31 03:59:15.4	93.010	-0.380	0.150	0.700
2020/01/31 03:59:15.5	93.000	-0.360	0.110	0.700
2020/01/31 03:59:15.6	92.990	-0.340	0.070	0.700
2020/01/31 03:59:15.7	92.980	-0.320	0.030	0.700
2020/01/31 03:59:15.8	92.970	-0.290	-0.030	0.700
2020/01/31 03:59:15.9	92.960	-0.260	-0.090	0.700
2020/01/31 03:59:16.0	92.950	-0.230	-0.150	0.700
2020/01/31 03:59:16.1	92.930	-0.190	-0.230	0.700
2020/01/31 03:59:16.2	92.920	-0.150	-0.300	0.700
2020/01/31 03:59:16.3	92.910	-0.100	-0.380	0.700
2020/01/31 03:59:16.4	92.900	-0.050	-0.460	0.700
2020/01/31 03:59:16.5	92.890	0.000	-0.550	0.700
2020/01/31 03:59:16.6	92.880	0.060	-0.630	0.700
2020/01/31 03:59:16.7	92.870	0.110	-0.720	0.700
2020/01/31 03:59:16.8	92.870	0.170	-0.810	0.710
2020/01/31 03:59:16.9	92.860	0.230	-0.890	0.710
2020/01/31 03:59:17.0	92.860	0.290	-0.970	0.710
2020/01/31 03:59:17.1	92.860	0.350	-1.050	0.720
2020/01/31 03:59:17.2	92.860	0.410	-1.130	0.720
2020/01/31 03:59:17.3	92.860	0.470	-1.200	0.730
2020/01/31 03:59:17.4	92.850	0.520	-1.270	0.740
2020/01/31 03:59:17.5	92.850	0.580	-1.330	0.750
2020/01/31 03:59:17.6	92.850	0.640	-1.380	0.760
2020/01/31 03:59:17.7	92.850	0.690	-1.430	0.770
2020/01/31 03:59:17.8	92.840	0.740	-1.470	0.780
2020/01/31 03:59:17.9	92.840	0.780	-1.500	0.800
2020/01/31 03:59:18.0	92.840	0.820	-1.510	0.810
2020/01/31 03:59:18.1	92.840	0.860	-1.520	0.830
2020/01/31 03:59:18.2	92.830	0.890	-1.520	0.840
2020/01/31 03:59:18.3	92.820	0.910	-1.510	0.860
2020/01/31 03:59:18.4	92.820	0.930	-1.480	0.880
2020/01/31 03:59:18.5	92.810	0.940	-1.440	0.890
2020/01/31 03:59:18.6	92.800	0.950	-1.390	0.910
2020/01/31 03:59:18.7	92.790	0.940	-1.320	0.930
2020/01/31 03:59:18.8	92.790	0.930	-1.250	0.940
2020/01/31 03:59:18.9	92.780	0.920	-1.160	0.950
2020/01/31 03:59:19.0	92.780	0.900	-1.060	0.970
2020/01/31 03:59:19.1	92.780	0.860	-0.960	0.980
2020/01/31 03:59:19.2	92.780	0.830	-0.840	1.000
2020/01/31 03:59:19.3	92.780	0.780	-0.720	1.010
2020/01/31 03:59:19.4	92.780	0.730	-0.580	1.030
2020/01/31 03:59:19.5	92.780	0.680	-0.450	1.050
2020/01/31 03:59:19.6	92.790	0.620	-0.310	1.070
2020/01/31 03:59:19.7	92.790	0.550	-0.160	1.090
2020/01/31 03:59:19.8	92.800	0.480	-0.020	1.110
2020/01/31 03:59:19.9	92.810	0.400	0.130	1.130
2020/01/31 03:59:20.0	92.820	0.320	0.280	1.160
2020/01/31 03:59:20.1	92.820	0.240	0.430	1.180
2020/01/31 03:59:20.2	92.830	0.150	0.570	1.210
2020/01/31 03:59:20.3	92.850	0.060	0.700	1.240
2020/01/31 03:59:20.4	92.860	-0.030	0.830	1.270
2020/01/31 03:59:20.5	92.870	-0.120	0.950	1.300
2020/01/31 03:59:20.6	92.880	-0.210	1.060	1.330
2020/01/31 03:59:20.7	92.890	-0.290	1.160	1.360
2020/01/31 03:59:20.8	92.900	-0.380	1.250	1.400
2020/01/31 03:59:20.9	92.910	-0.460	1.330	1.430
2020/01/31 03:59:21.0	92.910	-0.540	1.390	1.460
2020/01/31 03:59:21.1	92.920	-0.620	1.440	1.490
2020/01/31 03:59:21.2	92.920	-0.690	1.480	1.520
2020/01/31 03:59:21.3	92.920	-0.760	1.510	1.550
2020/01/31 03:59:21.4	92.920	-0.820	1.520	1.570
2020/01/31 03:59:21.5	92.920	-0.880	1.520	1.590
2020/01/31 03:59:21.6	92.920	-0.930	1.500	1.610
2020/01/31 03:59:21.7	92.910	-0.980	1.470	1.620
2020/01/31 03:59:21.8	92.910	-1.010	1.430	1.630
2020/01/31 03:59:21.9	92.900	-1.040	1.370	1.640
2020/01/31 03:59:22.0	92.900	-1.060	1.300	1.630
2020/01/31 03:59:22.1	92.890	-1.080	1.220	1.630
2020/01/31 03:59:22.2	92.880	-1.090	1.120	1.610
2020/01/31 03:59:22.3	92.880	-1.080	1.010	1.600
2020/01/31 03:59:22.4	92.870	-1.080	0.890	1.580
2020/01/31 03:59:22.5	92.870	-1.060	0.760	1.550
2020/01/31 03:59:22.6	92.860	-1.030	0.630	1.530
2020/01/31 03:59:22.7	92.860	-1.000	0.480	1.500
2020/01/31 03:59:22.8	92.860	-0.970	0.340	1.470
2020/01/31 03:59:22.9	92.850	-0.920	0.180	1.450
2020/01/31 03:59:23.0	92.840	-0.870	0.030	1.420
2020/01/31 03:59:23.1	92.850	-0.820	-0.130	1.400
2020/01/31 03:59:23.2	92.840	-0.760	-0.290	1.380
2020/01/31 03:59:23.3	92.830	-0.700	-0.440	1.360
2020/01/31 03:59:23.4	92.830	-0.630	-0.590	1.350
2020/01/31 03:59:23.5	92.820	-0.560	-0.740	1.340
2020/01/31 03:59:23.6	92.810	-0.490	-0.880	1.330
2020/01/31 03:59:23.7	92.800	-0.420	-1.010	1.320
2020/01/31 03:59:23.8	92.800	-0.350	-1.140	1.310
2020/01/31 03:59:23.9	92.790	-0.270	-1.250	1.300
2020/01/31 03:59:24.0	92.790	-0.200	-1.360	1.300
2020/01/31 03:59:24.1	92.790	-0.130	-1.460	1.290
2020/01/31 03:59:24.2	92.790	-0.050	-1.550	1.290
2020/01/31 03:59:24.3	92.790	0.020	-1.620	1.280
2020/01/31 03:59:24.4	92.790	0.080	-1.680	1.270
2020/01/31 03:59:24.5	92.790	0.150	-1.730	1.260
2020/01/31 03:59:24.6	92.800	0.210	-1.770	1.240
2020/01/31 03:59:24.7	92.800	0.270	-1.790	1.230
2020/01/31 03:59:24.8	92.810	0.320	-1.800	1.210
2020/01/31 03:59:24.9	92.820	0.370	-1.800	1.190
2020/01/31 03:59:25.0	92.830	0.420	-1.780	1.170
2020/01/31 03:59:25.1	92.840	0.460	-1.750	1.150
2020/01/31 03:59:25.2	92.850	0.490	-1.710	1.130
2020/01/31 03:59:25.3	92.860	0.520	-1.650	1.110
2020/01/31 03:59:25.4	92.880	0.540	-1.580	1.090
2020/01/31 03:59:25.5	92.890	0.560	-1.500	1.070
2020/01/31 03:59:25.6	92.900	0.570	-1.400	1.050
2020/01/31 03:59:25.7	92.910	0.580	-1.300	1.030
2020/01/31 03:59:25.8	92.920	0.580	-1.180	1.020
2020/01/31 03:59:25.9	92.930	0.570	-1.060	1.000
2020/01/31 03:59:26.0	92.940	0.560	-0.930	0.990
2020/01/31 03:59:26.1	92.930	0.540	-0.790	0.980
2020/01/31 03:59:26.2	92.940	0.520	-0.650	0.970
2020/01/31 03:59:26.3	92.940	0.490	-0.510	0.960
2020/01/31 03:59:26.4	92.950	0.460	-0.360	0.960
2020/01/31 03:59:26.5	92.950	0.420	-0.210	0.950
2020/01/31 03:59:26.6	92.960	0.380	-0.060	0.950
2020/01/31 03:59:26.7	92.960	0.340	0.080	0.950
2020/01/31 03:59:26.8	92.960	0.290	0.220	0.940
2020/01/31 03:59:26.9	92.960	0.240	0.360	0.940
2020/01/31 03:59:27.0	92.960	0.190	0.490	0.940
2020/01/31 03:59:27.1	92.950	0.140	0.610	0.930
2020/01/31 03:59:27.2	92.950	0.090	0.730	0.930
2020/01/31 03:59:27.3	92.950	0.040	0.830	0.920
2020/01/31 03:59:27.4	92.960	-0.020	0.920	0.910
2020/01/31 03:59:27.5	92.960	-0.070	1.000	0.900
2020/01/31 03:59:27.6	92.960	-0.110	1.060	0.890
2020/01/31 03:59:27.7	92.960	-0.160	1.110	0.870
2020/01/31 03:59:27.8	92.960	-0.200	1.150	0.850
2020/01/31 03:59:27.9	92.960	-0.240	1.170	0.830
2020/01/31 03:59:28.0	92.960	-0.280	1.180	0.810
2020/01/31 03:59:28.1	92.960	-0.310	1.180	0.780
2020/01/31 03:59:28.2	92.960	-0.330	1.160	0.760
2020/01/31 03:59:28.3	92.960	-0.350	1.120	0.730
2020/01/31 03:59:28.4	92.960	-0.370	1.070	0.710
2020/01/31 03:59:28.5	92.960	-0.370	1.010	0.690
2020/01/31 03:59:28.6	92.950	-0.380	0.930	0.670
2020/01/31 03:59:28.7	92.940	-0.370	0.840	0.650
2020/01/31 03:59:28.8	92.930	-0.360	0.740	0.630
2020/01/31 03:59:28.9	92.920	-0.350	0.630	0.620
2020/01/31 03:59:29.0	92.910	-0.330	0.510	0.610
2020/01/31 03:59:29.1	92.880	-0.300	0.380	0.600
2020/01/31 03:59:29.2	92.860	-0.270	0.250	0.600
2020/01/31 03:59:29.3	92.840	-0.240	0.120	0.600
2020/01/31 03:59:29.4	92.820	-0.200	-0.020	0.610
2020/01/31 03:59:29.5	92.790	-0.160	-0.160	0.610
2020/01/31 03:59:29.6	92.760	-0.110	-0.290	0.620
2020/01/31 03:59:29.7	92.730	-0.070	-0.430	0.640
2020/01/31 03:59:29.8	92.700	-0.020	-0.560	0.650
2020/01/31 03:59:29.9	92.670	0.030	-0.680	0.670
2020/01/31 03:59:30.0	92.640	0.080	-0.800	0.680
2020/01/31 03:59:30.1	92.610	0.120	-0.910	0.690
2020/01/31 03:59:30.2	92.580	0.170	-1.010	0.710
2020/01/31 03:59:30.3	92.560	0.210	-1.110	0.720
2020/01/31 03:59:30.4	92.530	0.250	-1.190	0.740
2020/01/31 03:59:30.5	92.500	0.290	-1.250	0.750
2020/01/31 03:59:30.6	92.480	0.320	-1.310	0.760
2020/01/31 03:59:30.7	92.460	0.350	-1.350	0.780
2020/01/31 03:59:30.8	92.440	0.370	-1.380	0.790
2020/01/31 03:59:30.9	92.430	0.390	-1.390	0.810
2020/01/31 03:59:31.0	92.410	0.410	-1.400	0.820
2020/01/31 03:59:31.1	92.400	0.420	-1.380	0.830
2020/01/31 03:59:31.2	92.390	0.420	-1.360	0.850
2020/01/31 03:59:31.3	92.380	0.420	-1.320	0.860
2020/01/31 03:59:31.4	92.380	0.420	-1.270	0.880
2020/01/31 03:59:31.5	92.380	0.410	-1.200	0.900
2020/01/31 03:59:31.6	92.380	0.400	-1.130	0.910
2020/01/31 03:59:31.7	92.380	0.380	-1.050	0.930
2020/01/31 03:59:31.8	92.390	0.360	-0.950	0.950
2020/01/31 03:59:31.9	92.400	0.330	-0.850	0.960
2020/01/31 03:59:32.0	92.410	0.300	-0.750	0.980
2020/01/31 03:59:32.1	92.410	0.270	-0.630	1.000
2020/01/31 03:59:32.2	92.420	0.240	-0.520	1.020
2020/01/31 03:59:32.3	92.430	0.200	-0.400	1.030
2020/01/31 03:59:32.4	92.450	0.170	-0.290	1.050
2020/01/31 03:59:32.5	92.460	0.130	-0.170	1.070
2020/01/31 03:59:32.6	92.480	0.100	-0.060	1.080
2020/01/31 03:59:32.7	92.490	0.060	0.040	1.100
2020/01/31 03:59:32.8	92.510	0.030	0.140	1.110
2020/01/31 03:59:32.9	92.520	-0.000	0.240	1.130
2020/01/31 03:59:33.0	92.540	-0.030	0.320	1.140
2020/01/31 03:59:33.1	92.550	-0.050	0.400	1.150
2020/01/31 03:59:33.2	92.570	-0.070	0.460	1.160
2020/01/31 03:59:33.3	92.580	-0.090	0.510	1.170
2020/01/31 03:59:33.4	92.600	-0.100	0.550	1.180
2020/01/31 03:59:33.5	92.620	-0.110	0.580	1.190
2020/01/31 03:59:33.6	92.630	-0.110	0.590	1.190
2020/01/31 03:59:33.7	92.650	-0.100	0.600	1.200
2020/01/31 03:59:33.8	92.670	-0.100	0.590	1.210
2020/01/31 03:59:33.9	92.680	-0.080	0.570	1.210
2020/01/31 03:59:34.0	92.700	-0.060	0.540	1.210
2020/01/31 03:59:34.1	92.730	-0.040	0.490	1.210
2020/01/31 03:59:34.2	92.750	-0.020	0.440	1.210
2020/01/31 03:59:34.3	92.770	0.010	0.380	1.210
2020/01/31 03:59:34.4	92.790	0.040	0.320	1.200
2020/01/31 03:59:34.5	92.810	0.080	0.250	1.190
2020/01/31 03:59:34.6	92.830	0.110	0.170	1.180
2020/01/31 03:59:34.7	92.850	0.150	0.090	1.170
2020/01/31 03:59:34.8	92.870	0.180	0.010	1.160
2020/01/31 03:59:34.9	92.890	0.220	-0.070	1.150
2020/01/31 03:59:35.0	92.910	0.250	-0.150	1.140
2020/01/31 03:59:35.1	92.920	0.280	-0.230	1.130
2020/01/31 03:59:35.2	92.940	0.310	-0.300	1.130
2020/01/31 03:59:35.3	92.950	0.330	-0.370	1.130
2020/01/31 03:59:35.4	92.960	0.350	-0.430	1.140
2020/01/31 03:59:35.5	92.960	0.370	-0.490	1.150
2020/01/31 03:59:35.6	92.970	0.380	-0.540	1.160
2020/01/31 03:59:35.7	92.970	0.390	-0.580	1.180
2020/01/31 03:59:35.8	92.960	0.390	-0.610	1.200
2020/01/31 03:59:35.9	92.950	0.390	-0.640	1.220
2020/01/31 03:59:36.0	92.940	0.380	-0.660	1.250
2020/01/31 03:59:36.1	92.920	0.360	-0.670	1.270
2020/01/31 03:59:36.2	92.900	0.340	-0.670	1.300
2020/01/31 03:59:36.3	92.870	0.310	-0.650	1.330
2020/01/31 03:59:36.4	92.850	0.270	-0.630	1.360
2020/01/31 03:59:36.5	92.820	0.230	-0.610	1.380
2020/01/31 03:59:36.6	92.790	0.180	-0.570	1.410
2020/01/31 03:59:36.7	92.750	0.130	-0.530	1.430
2020/01/31 03:59:36.8	92.720	0.080	-0.480	1.440
2020/01/31 03:59:36.9	92.680	0.010	-0.420	1.460
2020/01/31 03:59:37.0	92.640	-0.050	-0.360	1.470
2020/01/31 03:59:37.1	92.610	-0.120	-0.290	1.480
2020/01/31 03:59:37.2	92.570	-0.190	-0.220	1.480
2020/01/31 03:59:37.3	92.540	-0.260	-0.150	1.480
2020/01/31 03:59:37.4	92.500	-0.340	-0.070	1.480
2020/01/31 03:59:37.5	92.470	-0.410	0.000	1.470
2020/01/31 03:59:37.6	92.430	-0.490	0.080	1.450
2020/01/31 03:59:37.7	92.400	-0.560	0.150	1.430
2020/01/31 03:59:37.8	92.370	-0.630	0.220	1.410
2020/01/31 03:59:37.9	92.350	-0.700	0.290	1.380
2020/01/31 03:59:38.0	92.320	-0.770	0.350	1.350
2020/01/31 03:59:38.1	92.300	-0.830	0.410	1.310
2020/01/31 03:59:38.2	92.280	-0.890	0.460	1.270
2020/01/31 03:59:38.3	92.270	-0.950	0.510	1.230
2020/01/31 03:59:38.4	92.260	-0.990	0.540	1.190
2020/01/31 03:59:38.5	92.260	-1.030	0.570	1.140
2020/01/31 03:59:38.6	92.250	-1.070	0.590	1.100
2020/01/31 03:59:38.7	92.250	-1.100	0.590	1.050
2020/01/31 03:59:38.8	92.260	-1.110	0.590	1.010
2020/01/31 03:59:38.9	92.270	-1.120	0.580	0.960
2020/01/31 03:59:39.0	92.280	-1.130	0.560	0.920
2020/01/31 03:59:39.1	92.290	-1.120	0.520	0.890
2020/01/31 03:59:39.2	92.310	-1.110	0.480	0.850
2020/01/31 03:59:39.3	92.330	-1.080	0.430	0.820
2020/01/31 03:59:39.4	92.350	-1.050	0.360	0.790
2020/01/31 03:59:39.5	92.370	-1.010	0.290	0.770
2020/01/31 03:59:39.6	92.390	-0.960	0.210	0.750
2020/01/31 03:59:39.7	92.410	-0.900	0.130	0.730
2020/01/31 03:59:39.8	92.430	-0.840	0.030	0.720
2020/01/31 03:59:39.9	92.460	-0.770	-0.060	0.700
2020/01/31 03:59:40.0	92.480	-0.700	-0.160	0.690
2020/01/31 03:59:40.1	92.510	-0.620	-0.270	0.690
2020/01/31 03:59:40.2	92.530	-0.530	-0.370	0.680
2020/01/31 03:59:40.3	92.550	-0.440	-0.470	0.680
2020/01/31 03:59:40.4	92.570	-0.350	-0.570	0.670
2020/01/31 03:59:40.5	92.580	-0.260	-0.670	0.660
2020/01/31 03:59:40.6	92.600	-0.170	-0.760	0.660
2020/01/31 03:59:40.7	92.610	-0.080	-0.850	0.650
2020/01/31 03:59:40.8	92.620	0.020	-0.930	0.650
2020/01/31 03:59:40.9	92.630	0.110	-1.010	0.640
2020/01/31 03:59:41.0	92.630	0.190	-1.070	0.640
2020/01/31 03:59:41.1	92.620	0.280	-1.130	0.640
2020/01/31 03:59:41.2	92.610	0.360	-1.180	0.630
2020/01/31 03:59:41.3	92.600	0.430	-1.220	0.630
2020/01/31 03:59:41.4	92.580	0.500	-1.240	0.630
2020/01/31 03:59:41.5	92.560	0.570	-1.260	0.630
2020/01/31 03:59:41.6	92.540	0.620	-1.260	0.630
2020/01/31 03:59:41.7	92.510	0.670	-1.260	0.630
2020/01/31 03:59:41.8	92.480	0.720	-1.240	0.630
2020/01/31 03:59:41.9	92.450	0.760	-1.210	0.630
2020/01/31 03:59:42.0	92.410	0.790	-1.170	0.640
2020/01/31 03:59:42.1	92.370	0.810	-1.120	0.640
2020/01/31 03:59:42.2	92.330	0.820	-1.070	0.650
2020/01/31 03:59:42.3	92.290	0.830	-1.000	0.670
2020/01/31 03:59:42.4	92.240	0.840	-0.930	0.680
2020/01/31 03:59:42.5	92.200	0.830	-0.850	0.690
2020/01/31 03:59:42.6	92.150	0.820	-0.770	0.710
2020/01/31 03:59:42.7	92.110	0.800	-0.680	0.720
2020/01/31 03:59:42.8	92.060	0.780	-0.600	0.740
2020/01/31 03:59:42.9	92.010	0.760	-0.500	0.750
2020/01/31 03:59:43.0	91.970	0.730	-0.410	0.760
2020/01/31 03:59:43.1	91.930	0.690	-0.320	0.780
2020/01/31 03:59:43.2	91.890	0.650	-0.230	0.780
2020/01/31 03:59:43.3	91.850	0.610	-0.140	0.790
2020/01/31 03:59:43.4	91.820	0.570	-0.050	0.790
2020/01/31 03:59:43.5	91.790	0.530	0.030	0.790
2020/01/31 03:59:43.6	91.760	0.490	0.110	0.790
2020/01/31 03:59:43.7	91.730	0.450	0.180	0.780
2020/01/31 03:59:43.8	91.710	0.400	0.240	0.760
2020/01/31 03:59:43.9	91.690	0.360	0.300	0.750
2020/01/31 03:59:44.0	91.670	0.320	0.350	0.720
2020/01/31 03:59:44.1	91.670	0.290	0.400	0.690
2020/01/31 03:59:44.2	91.660	0.250	0.430	0.660
2020/01/31 03:59:44.3	91.660	0.220	0.460	0.630
2020/01/31 03:59:44.4	91.650	0.200	0.480	0.590
2020/01/31 03:59:44.5	91.650	0.170	0.490	0.550
2020/01/31 03:59:44.6	91.650	0.150	0.490	0.510
2020/01/31 03:59:44.7	91.650	0.140	0.490	0.470
2020/01/31 03:59:44.8	91.660	0.130	0.480	0.430
2020/01/31 03:59:44.9	91.660	0.120	0.460	0.390
2020/01/31 03:59:45.0	91.670	0.120	0.430	0.350
2020/01/31 03:59:45.1	91.670	0.120	0.400	0.310
2020/01/31 03:59:45.2	91.670	0.120	0.360	0.280
2020/01/31 03:59:45.3	91.680	0.130	0.330	0.260
2020/01/31 03:59:45.4	91.670	0.130	0.290	0.230
2020/01/31 03:59:45.5	91.670	0.140	0.240	0.210
2020/01/31 03:59:45.6	91.670	0.150	0.200	0.200
2020/01/31 03:59:45.7	91.660	0.170	0.160	0.190
2020/01/31 03:59:45.8	91.660	0.180	0.110	0.190
2020/01/31 03:59:45.9	91.650	0.190	0.070	0.180
2020/01/31 03:59:46.0	91.640	0.200	0.030	0.190
2020/01/31 03:59:46.1	91.620	0.210	-0.020	0.190
2020/01/31 03:59:46.2	91.610	0.220	-0.050	0.210
2020/01/31 03:59:46.3	91.600	0.230	-0.090	0.220
2020/01/31 03:59:46.4	91.580	0.240	-0.130	0.250
2020/01/31 03:59:46.5	91.570	0.240	-0.160	0.270
2020/01/31 03:59:46.6	91.560	0.240	-0.190	0.300
2020/01/31 03:59:46.7	91.550	0.240	-0.220	0.340
2020/01/31 03:59:46.8	91.540	0.240	-0.240	0.380
2020/01/31 03:59:46.9	91.530	0.240	-0.270	0.420
2020/01/31 03:59:47.0	91.520	0.230	-0.290	0.470
2020/01/31 03:59:47.1	91.510	0.220	-0.310	0.520
2020/01/31 03:59:47.2	91.500	0.210	-0.330	0.570
2020/01/31 03:59:47.3	91.490	0.200	-0.350	0.620
2020/01/31 03:59:47.4	91.490	0.190	-0.370	0.680
2020/01/31 03:59:47.5	91.490	0.170	-0.390	0.740
2020/01/31 03:59:47.6	91.490	0.160	-0.410	0.810
2020/01/31 03:59:47.7	91.490	0.140	-0.430	0.870
2020/01/31 03:59:47.8	91.500	0.120	-0.450	0.940
2020/01/31 03:59:47.9	91.510	0.100	-0.460	1.010
2020/01/31 03:59:48.0	91.520	0.080	-0.480	1.080
2020/01/31 03:59:48.1	91.530	0.060	-0.500	1.150
2020/01/31 03:59:48.2	91.540	0.040	-0.520	1.220
2020/01/31 03:59:48.3	91.560	0.020	-0.530	1.290
2020/01/31 03:59:48.4	91.570	-0.000	-0.550	1.360
2020/01/31 03:59:48.5	91.590	-0.020	-0.560	1.430
2020/01/31 03:59:48.6	91.610	-0.040	-0.580	1.500
2020/01/31 03:59:48.7	91.630	-0.060	-0.590	1.560
2020/01/31 03:59:48.8	91.650	-0.070	-0.600	1.630
2020/01/31 03:59:48.9	91.670	-0.090	-0.600	1.690
2020/01/31 03:59:49.0	91.700	-0.110	-0.610	1.750
2020/01/31 03:59:49.1	91.720	-0.120	-0.610	1.810
2020/01/31 03:59:49.2	91.740	-0.140	-0.610	1.860
2020/01/31 03:59:49.3	91.760	-0.150	-0.610	1.910
2020/01/31 03:59:49.4	91.780	-0.160	-0.600	1.950
2020/01/31 03:59:49.5	91.800	-0.180	-0.590	1.990
2020/01/31 03:59:49.6	91.830	-0.190	-0.580	2.030
2020/01/31 03:59:49.7	91.840	-0.200	-0.560	2.060
2020/01/31 03:59:49.8	91.860	-0.210	-0.530	2.090
2020/01/31 03:59:49.9	91.880	-0.230	-0.510	2.120
2020/01/31 03:59:50.0	91.890	-0.240	-0.480	2.140
2020/01/31 03:59:50.1	91.910	-0.250	-0.440	2.160
2020/01/31 03:59:50.2	91.920	-0.260	-0.400	2.170
2020/01/31 03:59:50.3	91.930	-0.270	-0.370	2.180
2020/01/31 03:59:50.4	91.930	-0.280	-0.320	2.190
2020/01/31 03:59:50.5	91.940	-0.290	-0.280	2.200
2020/01/31 03:59:50.6	91.940	-0.300	-0.240	2.200
2020/01/31 03:59:50.7	91.930	-0.320	-0.190	2.200
2020/01/31 03:59:50.8	91.930	-0.330	-0.140	2.200
2020/01/31 03:59:50.9	91.920	-0.330	-0.090	2.200
2020/01/31 03:59:51.0	91.910	-0.340	-0.050	2.200
2020/01/31 03:59:51.1	91.900	-0.350	0.000	2.200
2020/01/31 03:59:51.2	91.890	-0.360	0.050	2.190
2020/01/31 03:59:51.3	91.870	-0.370	0.090	2.180
2020/01/31 03:59:51.4	91.860	-0.370	0.140	2.180
2020/01/31 03:59:51.5	91.840	-0.380	0.180	2.170
2020/01/31 03:59:51.6	91.810	-0.380	0.220	2.150
2020/01/31 03:59:51.7	91.790	-0.390	0.260	2.140
2020/01/31 03:59:51.8	91.770	-0.390	0.300	2.130
2020/01/31 03:59:51.9	91.740	-0.390	0.330	2.110
2020/01/31 03:59:52.0	91.710	-0.390	0.360	2.090
2020/01/31 03:59:52.1	91.670	-0.400	0.390	2.070
2020/01/31 03:59:52.2	91.640	-0.400	0.410	2.040
2020/01/31 03:59:52.3	91.610	-0.390	0.430	2.010
2020/01/31 03:59:52.4	91.590	-0.390	0.450	1.980
2020/01/31 03:59:52.5	91.560	-0.390	0.460	1.950
2020/01/31 03:59:52.6	91.530	-0.390	0.470	1.910
2020/01/31 03:59:52.7	91.510	-0.380	0.470	1.870
2020/01/31 03:59:52.8	91.480	-0.380	0.460	1.820
2020/01/31 03:59:52.9	91.460	-0.370	0.450	1.770
2020/01/31 03:59:53.0	91.440	-0.360	0.440	1.720
2020/01/31 03:59:53.1	91.420	-0.350	0.420	1.650
2020/01/31 03:59:53.2	91.410	-0.340	0.400	1.590
2020/01/31 03:59:53.3	91.390	-0.330	0.370	1.520
2020/01/31 03:59:53.4	91.380	-0.320	0.330	1.450
2020/01/31 03:59:53.5	91.380	-0.300	0.290	1.370
2020/01/31 03:59:53.6	91.370	-0.290	0.250	1.290
2020/01/31 03:59:53.7	91.370	-0.270	0.190	1.210
2020/01/31 03:59:53.8	91.370	-0.250	0.140	1.130
2020/01/31 03:59:53.9	91.380	-0.230	0.080	1.040
2020/01/31 03:59:54.0	91.390	-0.210	0.020	0.950
2020/01/31 03:59:54.1	91.400	-0.190	-0.050	0.860
2020/01/31 03:59:54.2	91.410	-0.160	-0.120	0.770
2020/01/31 03:59:54.3	91.430	-0.140	-0.190	0.690
2020/01/31 03:59:54.4	91.450	-0.110	-0.260	0.600
2020/01/31 03:59:54.5	91.470	-0.080	-0.330	0.510
2020/01/31 03:59:54.6	91.490	-0.050	-0.410	0.420
2020/01/31 03:59:54.7	91.520	-0.030	-0.470	0.340
2020/01/31 03:59:54.8	91.540	0.000	-0.540	0.260
2020/01/31 03:59:54.9	91.570	0.030	-0.600	0.190
2020/01/31 03:59:55.0	91.600	0.060	-0.660	0.110
2020/01/31 03:59:55.1	91.630	0.090	-0.720	0.050
2020/01/31 03:59:55.2	91.660	0.120	-0.770	-0.020
2020/01/31 03:59:55.3	91.680	0.150	-0.820	-0.070
2020/01/31 03:59:55.4	91.710	0.180	-0.860	-0.130
2020/01/31 03:59:55.5	91.740	0.200	-0.890	-0.170
2020/01/31 03:59:55.6	91.770	0.230	-0.920	-0.210
2020/01/31 03:59:55.7	91.800	0.260	-0.950	-0.250
2020/01/31 03:59:55.8	91.820	0.280	-0.970	-0.280
2020/01/31 03:59:55.9	91.850	0.310	-0.980	-0.300
2020/01/31 03:59:56.0	91.880	0.330	-0.980	-0.320
2020/01/31 03:59:56.1	91.910	0.360	-0.990	-0.320
2020/01/31 03:59:56.2	91.940	0.380	-0.980	-0.330
2020/01/31 03:59:56.3	91.960	0.400	-0.980	-0.330
2020/01/31 03:59:56.4	91.980	0.420	-0.960	-0.320
2020/01/31 03:59:56.5	92.010	0.430	-0.950	-0.300
2020/01/31 03:59:56.6	92.030	0.450	-0.930	-0.280
2020/01/31 03:59:56.7	92.050	0.470	-0.910	-0.260
2020/01/31 03:59:56.8	92.070	0.480	-0.880	-0.230
2020/01/31 03:59:56.9	92.090	0.500	-0.860	-0.190
2020/01/31 03:59:57.0	92.110	0.510	-0.830	-0.140
2020/01/31 03:59:57.1	92.140	0.520	-0.810	-0.100
2020/01/31 03:59:57.2	92.150	0.530	-0.780	-0.040
2020/01/31 03:59:57.3	92.160	0.540	-0.750	0.020
2020/01/31 03:59:57.4	92.170	0.540	-0.720	0.090
2020/01/31 03:59:57.5	92.170	0.550	-0.690	0.160
2020/01/31 03:59:57.6	92.170	0.550	-0.660	0.230
2020/01/31 03:59:57.7	92.170	0.550	-0.640	0.300
2020/01/31 03:59:57.8	92.160	0.550	-0.610	0.380
2020/01/31 03:59:57.9	92.150	0.550	-0.580	0.460
2020/01/31 03:59:58.0	92.140	0.550	-0.550	0.530
2020/01/31 03:59:58.1	92.150	0.540	-0.510	0.620
2020/01/31 03:59:58.2	92.130	0.530	-0.480	0.690
2020/01/31 03:59:58.3	92.110	0.520	-0.440	0.760
2020/01/31 03:59:58.4	92.090	0.510	-0.410	0.830
2020/01/31 03:59:58.5	92.070	0.490	-0.370	0.900
2020/01/31 03:59:58.6	92.040	0.470	-0.320	0.960
2020/01/31 03:59:58.7	92.020	0.440	-0.280	1.020
2020/01/31 03:59:58.8	91.990	0.420	-0.230	1.070
2020/01/31 03:59:58.9	91.960	0.390	-0.180	1.120
2020/01/31 03:59:59.0	91.930	0.350	-0.130	1.160
2020/01/31 03:59:59.1	91.900	0.320	-0.070	1.200
2020/01/31 03:59:59.2	91.870	0.280	-0.010	1.240
2020/01/31 03:59:59.3	91.840	0.240	0.050	1.270
2020/01/31 03:59:59.4	91.820	0.190	0.110	1.300
2020/01/31 03:59:59.5	91.790	0.150	0.170	1.320
2020/01/31 03:59:59.6	91.770	0.100	0.230	1.340
2020/01/31 03:59:59.7	91.740	0.050	0.290	1.350
2020/01/31 03:59:59.8	91.720	0.000	0.340	1.370
2020/01/31 03:59:59.9	91.700	-0.050	0.400	1.380
2020/01/31 04:00:00.0	91.690	-0.100	0.450	1.380
2020/01/31 04:00:00.1	91.670	-0.150	0.500	1.380
2020/01/31 04:00:00.2	91.660	-0.190	0.540	1.380
2020/01/31 04:00:00.3	91.650	-0.240	0.580	1.380
2020/01/31 04:00:00.4	91.650	-0.280	0.620	1.370
2020/01/31 04:00:00.5	91.650	-0.330	0.650	1.360
2020/01/31 04:00:00.6	91.650	-0.360	0.670	1.340
2020/01/31 04:00:00.7	91.660	-0.400	0.690	1.330
2020/01/31 04:00:00.8	91.670	-0.430	0.690	1.300
2020/01/31 04:00:00.9	91.680	-0.460	0.690	1.280
2020/01/31 04:00:01.0	91.700	-0.480	0.690	1.250
2020/01/31 04:00:01.1	91.730	-0.490	0.670	1.210
2020/01/31 04:00:01.2	91.760	-0.500	0.650	1.170
2020/01/31 04:00:01.3	91.790	-0.510	0.620	1.130
2020/01/31 04:00:01.4	91.820	-0.510	0.570	1.090
2020/01/31 04:00:01.5	91.860	-0.500	0.520	1.040
2020/01/31 04:00:01.6	91.900	-0.490	0.470	1.000
2020/01/31 04:00:01.7	91.940	-0.470	0.400	0.950
2020/01/31 04:00:01.8	91.990	-0.450	0.330	0.900
2020/01/31 04:00:01.9	92.030	-0.420	0.250	0.850
2020/01/31 04:00:02.0	92.080	-0.390	0.170	0.800
2020/01/31 04:00:02.1	92.130	-0.350	0.070	0.740
2020/01/31 04:00:02.2	92.180	-0.310	-0.020	0.690
2020/01/31 04:00:02.3	92.230	-0.260	-0.110	0.650
2020/01/31 04:00:02.4	92.280	-0.210	-0.200	0.600
2020/01/31 04:00:02.5	92.320	-0.160	-0.290	0.560
2020/01/31 04:00:02.6	92.370	-0.110	-0.380	0.530
2020/01/31 04:00:02.7	92.410	-0.060	-0.470	0.490
2020/01/31 04:00:02.8	92.450	-0.010	-0.550	0.470
2020/01/31 04:00:02.9	92.490	0.040	-0.630	0.440
2020/01/31 04:00:03.0	92.530	0.090	-0.710	0.430
2020/01/31 04:00:03.1	92.550	0.140	-0.780	0.420
2020/01/31 04:00:03.2	92.570	0.190	-0.840	0.420
2020/01/31 04:00:03.3	92.590	0.230	-0.900	0.420
2020/01/31 04:00:03.4	92.610	0.270	-0.940	0.430
2020/01/31 04:00:03.5	92.620	0.300	-0.980	0.440
2020/01/31 04:00:03.6	92.630	0.340	-1.010	0.460
2020/01/31 04:00:03.7	92.630	0.360	-1.030	0.490
2020/01/31 04:00:03.8	92.630	0.380	-1.040	0.510
2020/01/31 04:00:03.9	92.620	0.400	-1.050	0.540
2020/01/31 04:00:04.0	92.610	0.410	-1.040	0.570
2020/01/31 04:00:04.1	92.590	0.420	-1.020	0.600
2020/01/31 04:00:04.2	92.580	0.420	-1.000	0.640
2020/01/31 04:00:04.3	92.560	0.420	-0.970	0.670
2020/01/31 04:00:04.4	92.530	0.410	-0.920	0.710
2020/01/31 04:00:04.5	92.510	0.390	-0.880	0.750
2020/01/31 04:00:04.6	92.480	0.370	-0.820	0.780
2020/01/31 04:00:04.7	92.450	0.350	-0.760	0.820
2020/01/31 04:00:04.8	92.420	0.320	-0.690	0.860
2020/01/31 04:00:04.9	92.390	0.290	-0.620	0.890
2020/01/31 04:00:05.0	92.360	0.260	-0.540	0.930
2020/01/31 04:00:05.1	92.330	0.220	-0.460	0.960
2020/01/31 04:00:05.2	92.300	0.180	-0.370	1.000
2020/01/31 04:00:05.3	92.270	0.140	-0.290	1.030
2020/01/31 04:00:05.4	92.240	0.100	-0.210	1.050
2020/01/31 04:00:05.5	92.220	0.060	-0.130	1.080
2020/01/31 04:00:05.6	92.190	0.020	-0.050	1.100
2020/01/31 04:00:05.7	92.170	-0.030	0.030	1.120
2020/01/31 04:00:05.8	92.150	-0.070	0.100	1.130
2020/01/31 04:00:05.9	92.130	-0.110	0.170	1.140
2020/01/31 04:00:06.0	92.110	-0.160	0.240	1.150
2020/01/31 04:00:06.1	92.070	-0.200	0.300	1.150
2020/01/31 04:00:06.2	92.060	-0.230	0.360	1.150
2020/01/31 04:00:06.3	92.050	-0.270	0.410	1.150
2020/01/31 04:00:06.4	92.040	-0.310	0.450	1.140
2020/01/31 04:00:06.5	92.030	-0.340	0.490	1.130
2020/01/31 04:00:06.6	92.020	-0.370	0.520	1.120
2020/01/31 04:00:06.7	92.010	-0.400	0.550	1.100
2020/01/31 04:00:06.8	92.010	-0.420	0.560	1.080
2020/01/31 04:00:06.9	92.000	-0.440	0.580	1.050
2020/01/31 04:00:07.0	92.000	-0.460	0.580	1.030
2020/01/31 04:00:07.1	92.000	-0.470	0.580	1.000
2020/01/31 04:00:07.2	92.000	-0.490	0.570	0.970
2020/01/31 04:00:07.3	92.000	-0.490	0.550	0.940
2020/01/31 04:00:07.4	92.010	-0.500	0.530	0.900
2020/01/31 04:00:07.5	92.010	-0.500	0.500	0.870
2020/01/31 04:00:07.6	92.020	-0.500	0.460	0.830
2020/01/31 04:00:07.7	92.030	-0.490	0.420	0.790
2020/01/31 04:00:07.8	92.040	-0.480	0.370	0.750
2020/01/31 04:00:07.9	92.050	-0.470	0.320	0.710
2020/01/31 04:00:08.0	92.060	-0.460	0.260	0.670
2020/01/31 04:00:08.1	92.060	-0.440	0.200	0.640
2020/01/31 04:00:08.2	92.080	-0.420	0.130	0.600
2020/01/31 04:00:08.3	92.100	-0.400	0.060	0.560
2020/01/31 04:00:08.4	92.120	-0.380	-0.010	0.520
2020/01/31 04:00:08.5	92.130	-0.350	-0.090	0.480
2020/01/31 04:00:08.6	92.150	-0.320	-0.160	0.450
2020/01/31 04:00:08.7	92.170	-0.290	-0.240	0.410
2020/01/31 04:00:08.8	92.190	-0.260	-0.320	0.390
2020/01/31 04:00:08.9	92.210	-0.230	-0.400	0.360
2020/01/31 04:00:09.0	92.220	-0.190	-0.480	0.340
2020/01/31 04:00:09.1	92.240	-0.160	-0.560	0.310
2020/01/31 04:00:09.2	92.250	-0.120	-0.640	0.300
2020/01/31 04:00:09.3	92.270	-0.090	-0.710	0.290
2020/01/31 04:00:09.4	92.280	-0.050	-0.790	0.290
2020/01/31 04:00:09.5	92.280	-0.010	-0.860	0.290
2020/01/31 04:00:09.6	92.290	0.020	-0.920	0.290
2020/01/31 04:00:09.7	92.290	0.060	-0.980	0.300
2020/01/31 04:00:09.8	92.290	0.090	-1.040	0.320
2020/01/31 04:00:09.9	92.290	0.130	-1.090	0.340
2020/01/31 04:00:10.0	92.290	0.160	-1.130	0.360
2020/01/31 04:00:10.1	92.290	0.200	-1.170	0.390
2020/01/31 04:00:10.2	92.280	0.230	-1.200	0.420
2020/01/31 04:00:10.3	92.270	0.260	-1.230	0.460
2020/01/31 04:00:10.4	92.260	0.290	-1.250	0.490
2020/01/31 04:00:10.5	92.240	0.310	-1.260	0.530
2020/01/31 04:00:10.6	92.230	0.340	-1.270	0.570
2020/01/31 04:00:10.7	92.210	0.360	-1.260	0.610
2020/01/31 04:00:10.8	92.200	0.380	-1.250	0.650
2020/01/31 04:00:10.9	92.180	0.400	-1.230	0.700
2020/01/31 04:00:11.0	92.160	0.410	-1.200	0.740
2020/01/31 04:00:11.1	92.150	0.430	-1.160	0.780
2020/01/31 04:00:11.2	92.140	0.430	-1.120	0.820
2020/01/31 04:00:11.3	92.120	0.440	-1.070	0.860
2020/01/31 04:00:11.4	92.110	0.440	-1.010	0.890
2020/01/31 04:00:11.5	92.090	0.440	-0.940	0.930
2020/01/31 04:00:11.6	92.080	0.430	-0.870	0.960
2020/01/31 04:00:11.7	92.070	0.430	-0.790	0.990
2020/01/31 04:00:11.8	92.050	0.410	-0.710	1.020
2020/01/31 04:00:11.9	92.040	0.400	-0.620	1.040
2020/01/31 04:00:12.0	92.030	0.380	-0.530	1.070
2020/01/31 04:00:12.1	92.020	0.360	-0.430	1.080
2020/01/31 04:00:12.2	92.010	0.340	-0.340	1.100
2020/01/31 04:00:12.3	92.000	0.310	-0.240	1.120
2020/01/31 04:00:12.4	91.990	0.280	-0.140	1.130
2020/01/31 04:00:12.5	91.990	0.250	-0.040	1.130
2020/01/31 04:00:12.6	91.980	0.220	0.060	1.130
2020/01/31 04:00:12.7	91.980	0.190	0.150	1.130
2020/01/31 04:00:12.8	91.980	0.150	0.240	1.130
2020/01/31 04:00:12.9	91.970	0.120	0.330	1.120
2020/01/31 04:00:13.0	91.970	0.080	0.410	1.110
2020/01/31 04:00:13.1	91.980	0.040	0.490	1.090
2020/01/31 04:00:13.2	91.980	0.010	0.560	1.070
2020/01/31 04:00:13.3	91.990	-0.030	0.620	1.050
2020/01/31 04:00:13.4	91.990	-0.060	0.670	1.020
2020/01/31 04:00:13.5	92.000	-0.090	0.720	0.990
2020/01/31 04:00:13.6	92.010	-0.120	0.750	0.960
2020/01/31 04:00:13.7	92.020	-0.150	0.780	0.920
2020/01/31 04:00:13.8	92.030	-0.170	0.800	0.880
2020/01/31 04:00:13.9	92.040	-0.190	0.810	0.840
2020/01/31 04:00:14.0	92.060	-0.210	0.810	0.800
2020/01/31 04:00:14.1	92.060	-0.220	0.800	0.750
2020/01/31 04:00:14.2	92.080	-0.230	0.790	0.700
2020/01/31 04:00:14.3	92.100	-0.240	0.770	0.660
2020/01/31 04:00:14.4	92.110	-0.250	0.740	0.620
2020/01/31 04:00:14.5	92.130	-0.250	0.700	0.580
2020/01/31 04:00:14.6	92.150	-0.240	0.660	0.550
2020/01/31 04:00:14.7	92.170	-0.240	0.620	0.520
2020/01/31 04:00:14.8	92.180	-0.230	0.570	0.490
2020/01/31 04:00:14.9	92.200	-0.220	0.520	0.460
2020/01/31 04:00:15.0	92.220	-0.200	0.460	0.440
2020/01/31 04:00:15.1	92.220	-0.190	0.400	0.420
2020/01/31 04:00:15.2	92.240	-0.170	0.350	0.410
2020/01/31 04:00:15.3	92.250	-0.150	0.280	0.400
2020/01/31 04:00:15.4	92.260	-0.130	0.220	0.390
2020/01/31 04:00:15.5	92.280	-0.100	0.160	0.380
2020/01/31 04:00:15.6	92.290	-0.080	0.100	0.380
2020/01/31 04:00:15.7	92.290	-0.060	0.040	0.390
2020/01/31 04:00:15.8	92.300	-0.030	-0.020	0.400
2020/01/31 04:00:15.9	92.310	-0.010	-0.080	0.410
2020/01/31 04:00:16.0	92.310	0.010	-0.140	0.420
2020/01/31 04:00:16.1	92.320	0.030	-0.210	0.440
2020/01/31 04:00:16.2	92.320	0.050	-0.260	0.460
2020/01/31 04:00:16.3	92.320	0.070	-0.320	0.480
2020/01/31 04:00:16.4	92.320	0.090	-0.370	0.510
2020/01/31 04:00:16.5	92.310	0.100	-0.420	0.530
2020/01/31 04:00:16.6	92.310	0.120	-0.460	0.560
2020/01/31 04:00:16.7	92.310	0.130	-0.510	0.590
2020/01/31 04:00:16.8	92.300	0.140	-0.550	0.610
2020/01/31 04:00:16.9	92.300	0.140	-0.590	0.640
2020/01/31 04:00:17.0	92.290	0.150	-0.620	0.670
2020/01/31 04:00:17.1	92.280	0.150	-0.640	0.690
2020/01/31 04:00:17.2	92.270	0.150	-0.670	0.720
2020/01/31 04:00:17.3	92.270	0.150	-0.690	0.740
2020/01/31 04:00:17.4	92.260	0.150	-0.700	0.770
2020/01/31 04:00:17.5	92.260	0.140	-0.710	0.790
2020/01/31 04:00:17.6	92.260	0.140	-0.720	0.810
2020/01/31 04:00:17.7	92.250	0.130	-0.720	0.830
2020/01/31 04:00:17.8	92.250	0.120	-0.720	0.850
2020/01/31 04:00:17.9	92.250	0.110	-0.710	0.870
2020/01/31 04:00:18.0	92.250	0.100	-0.700	0.890
2020/01/31 04:00:18.1	92.250	0.090	-0.690	0.900
2020/01/31 04:00:18.2	92.250	0.070	-0.670	0.920
2020/01/31 04:00:18.3	92.250	0.060	-0.650	0.930
2020/01/31 04:00:18.4	92.250	0.050	-0.620	0.940
2020/01/31 04:00:18.5	92.260	0.040	-0.600	0.960
2020/01/31 04:00:18.6	92.260	0.030	-0.570	0.960
2020/01/31 04:00:18.7	92.270	0.020	-0.540	0.970
2020/01/31 04:00:18.8	92.280	0.010	-0.510	0.980
2020/01/31 04:00:18.9	92.280	0.000	-0.490	0.990
2020/01/31 04:00:19.0	92.290	-0.000	-0.460	0.990
2020/01/31 04:00:19.1	92.300	-0.010	-0.430	0.990
2020/01/31 04:00:19.2	92.310	-0.010	-0.410	0.990
2020/01/31 04:00:19.3	92.320	-0.010	-0.380	1.000
2020/01/31 04:00:19.4	92.330	-0.010	-0.360	1.000
2020/01/31 04:00:19.5	92.340	-0.010	-0.340	1.000
2020/01/31 04:00:19.6	92.350	-0.000	-0.330	1.000
2020/01/31 04:00:19.7	92.360	0.000	-0.320	1.000
2020/01/31 04:00:19.8	92.380	0.010	-0.310	1.000
2020/01/31 04:00:19.9	92.390	0.020	-0.300	1.000
2020/01/31 04:00:20.0	92.410	0.030	-0.300	0.990
2020/01/31 04:00:20.1	92.420	0.050	-0.300	0.990
2020/01/31 04:00:20.2	92.440	0.060	-0.300	0.990
2020/01/31 04:00:20.3	92.460	0.070	-0.310	0.990
2020/01/31 04:00:20.4	92.480	0.090	-0.310	0.980
2020/01/31 04:00:20.5	92.500	0.110	-0.320	0.980
2020/01/31 04:00:20.6	92.520	0.120	-0.330	0.980
2020/01/31 04:00:20.7	92.540	0.140	-0.340	0.970
2020/01/31 04:00:20.8	92.560	0.160	-0.350	0.970
2020/01/31 04:00:20.9	92.580	0.170	-0.360	0.960
2020/01/31 04:00:21.0	92.590	0.190	-0.370	0.960
2020/01/31 04:00:21.1	92.620	0.200	-0.380	0.950
2020/01/31 04:00:21.2	92.640	0.220	-0.380	0.950
2020/01/31 04:00:21.3	92.650	0.230	-0.390	0.940
2020/01/31 04:00:21.4	92.670	0.240	-0.390	0.940
2020/01/31 04:00:21.5	92.680	0.250	-0.390	0.930
2020/01/31 04:00:21.6	92.690	0.260	-0.390	0.930
2020/01/31 04:00:21.7	92.700	0.260	-0.390	0.930
2020/01/31 04:00:21.8	92.710	0.260	-0.380	0.920
2020/01/31 04:00:21.9	92.720	0.260	-0.370	0.920
2020/01/31 04:00:22.0	92.720	0.260	-0.360	0.910
2020/01/31 04:00:22.1	92.730	0.250	-0.360	0.910
2020/01/31 04:00:22.2	92.720	0.240	-0.340	0.910
2020/01/31 04:00:22.3	92.720	0.230	-0.320	0.910
2020/01/31 04:00:22.4	92.720	0.220	-0.300	0.910
2020/01/31 04:00:22.5	92.710	0.200	-0.280	0.910
2020/01/31 04:00:22.6	92.700	0.180	-0.260	0.910
2020/01/31 04:00:22.7	92.690	0.160	-0.230	0.910
2020/01/31 04:00:22.8	92.680	0.130	-0.200	0.920
2020/01/31 04:00:22.9	92.670	0.100	-0.170	0.920
2020/01/31 04:00:23.0	92.650	0.070	-0.140	0.920
2020/01/31 04:00:23.1	92.650	0.040	-0.100	0.920
2020/01/31 04:00:23.2	92.640	0.000	-0.060	0.920
2020/01/31 04:00:23.3	92.630	-0.030	-0.030	0.920
2020/01/31 04:00:23.4	92.620	-0.070	0.010	0.920
2020/01/31 04:00:23.5	92.620	-0.110	0.050	0.910
2020/01/31 04:00:23.6	92.620	-0.160	0.090	0.910
2020/01/31 04:00:23.7	92.620	-0.200	0.120	0.900
2020/01/31 04:00:23.8	92.620	-0.240	0.160	0.890
2020/01/31 04:00:23.9	92.630	-0.280	0.200	0.880
2020/01/31 04:00:24.0	92.630	-0.320	0.230	0.870
2020/01/31 04:00:24.1	92.660	-0.360	0.270	0.860
2020/01/31 04:00:24.2	92.670	-0.400	0.300	0.840
2020/01/31 04:00:24.3	92.690	-0.440	0.320	0.830
2020/01/31 04:00:24.4	92.710	-0.480	0.340	0.810
2020/01/31 04:00:24.5	92.730	-0.510	0.360	0.790
2020/01/31 04:00:24.6	92.750	-0.540	0.380	0.770
2020/01/31 04:00:24.7	92.780	-0.560	0.380	0.750
2020/01/31 04:00:24.8	92.800	-0.580	0.390	0.730
2020/01/31 04:00:24.9	92.830	-0.600	0.390	0.710
2020/01/31 04:00:25.0	92.860	-0.620	0.380	0.690
2020/01/31 04:00:25.1	92.890	-0.620	0.360	0.660
2020/01/31 04:00:25.2	92.920	-0.630	0.340	0.640
2020/01/31 04:00:25.3	92.940	-0.630	0.320	0.630
2020/01/31 04:00:25.4	92.970	-0.620	0.290	0.610
2020/01/31 04:00:25.5	93.000	-0.610	0.250	0.590
2020/01/31 04:00:25.6	93.030	-0.600	0.200	0.570
2020/01/31 04:00:25.7	93.050	-0.580	0.150	0.560
2020/01/31 04:00:25.8	93.080	-0.550	0.100	0.540
2020/01/31 04:00:25.9	93.100	-0.520	0.040	0.530
2020/01/31 04:00:26.0	93.130	-0.490	-0.020	0.510
2020/01/31 04:00:26.1	93.150	-0.450	-0.080	0.500
2020/01/31 04:00:26.2	93.170	-0.410	-0.150	0.480
2020/01/31 04:00:26.3	93.190	-0.370	-0.210	0.470
2020/01/31 04:00:26.4	93.210	-0.320	-0.280	0.460
2020/01/31 04:00:26.5	93.230	-0.280	-0.350	0.450
2020/01/31 04:00:26.6	93.240	-0.230	-0.410	0.440
2020/01/31 04:00:26.7	93.260	-0.180	-0.470	0.430
2020/01/31 04:00:26.8	93.270	-0.120	-0.540	0.430
2020/01/31 04:00:26.9	93.280	-0.070	-0.590	0.430
2020/01/31 04:00:27.0	93.290	-0.020	-0.650	0.430
2020/01/31 04:00:27.1	93.300	0.030	-0.700	0.440
2020/01/31 04:00:27.2	93.300	0.080	-0.740	0.450
2020/01/31 04:00:27.3	93.300	0.130	-0.780	0.470
2020/01/31 04:00:27.4	93.300	0.170	-0.820	0.480
2020/01/31 04:00:27.5	93.290	0.210	-0.840	0.510
2020/01/31 04:00:27.6	93.280	0.250	-0.860	0.540
2020/01/31 04:00:27.7	93.270	0.290	-0.870	0.570
2020/01/31 04:00:27.8	93.250	0.320	-0.880	0.600
2020/01/31 04:00:27.9	93.240	0.340	-0.880	0.640
2020/01/31 04:00:28.0	93.220	0.370	-0.860	0.680
2020/01/31 04:00:28.1	93.210	0.380	-0.840	0.720
2020/01/31 04:00:28.2	93.190	0.400	-0.820	0.760
2020/01/31 04:00:28.3	93.170	0.400	-0.790	0.800
2020/01/31 04:00:28.4	93.150	0.410	-0.750	0.840
2020/01/31 04:00:28.5	93.120	0.400	-0.710	0.870
2020/01/31 04:00:28.6	93.100	0.400	-0.660	0.910
2020/01/31 04:00:28.7	93.080	0.380	-0.600	0.940
2020/01/31 04:00:28.8	93.050	0.370	-0.540	0.960
2020/01/31 04:00:28.9	93.030	0.350	-0.480	0.990
2020/01/31 04:00:29.0	93.010	0.320	-0.420	1.000
2020/01/31 04:00:29.1	92.980	0.300	-0.350	1.020
2020/01/31 04:00:29.2	92.960	0.270	-0.280	1.020
2020/01/31 04:00:29.3	92.940	0.240	-0.210	1.020
2020/01/31 04:00:29.4	92.920	0.200	-0.150	1.020
2020/01/31 04:00:29.5	92.910	0.170	-0.080	1.010
2020/01/31 04:00:29.6	92.890	0.130	-0.020	1.000
2020/01/31 04:00:29.7	92.880	0.090	0.040	0.980
2020/01/31 04:00:29.8	92.870	0.060	0.100	0.960
2020/01/31 04:00:29.9	92.860	0.030	0.150	0.930
2020/01/31 04:00:30.0	92.860	-0.010	0.190	0.910
2020/01/31 04:00:30.1	92.860	-0.040	0.230	0.880
2020/01/31 04:00:30.2	92.850	-0.060	0.260	0.840
2020/01/31 04:00:30.3	92.850	-0.090	0.290	0.810
2020/01/31 04:00:30.4	92.860	-0.110	0.300	0.780
2020/01/31 04:00:30.5	92.860	-0.120	0.310	0.740
2020/01/31 04:00:30.6	92.870	-0.140	0.310	0.710
2020/01/31 04:00:30.7	92.880	-0.140	0.310	0.670
2020/01/31 04:00:30.8	92.890	-0.140	0.290	0.630
2020/01/31 04:00:30.9	92.910	-0.140	0.260	0.600
2020/01/31 04:00:31.0	92.920	-0.130	0.230	0.560
2020/01/31 04:00:31.1	92.920	-0.120	0.190	0.520
2020/01/31 04:00:31.2	92.940	-0.100	0.150	0.490
2020/01/31 04:00:31.3	92.960	-0.080	0.090	0.450
2020/01/31 04:00:31.4	92.980	-0.050	0.030	0.420
2020/01/31 04:00:31.5	93.000	-0.020	-0.030	0.390
2020/01/31 04:00:31.6	93.020	0.010	-0.100	0.360
2020/01/31 04:00:31.7	93.050	0.050	-0.170	0.330
2020/01/31 04:00:31.8	93.070	0.090	-0.250	0.300
2020/01/31 04:00:31.9	93.100	0.130	-0.330	0.280
2020/01/31 04:00:32.0	93.120	0.180	-0.410	0.250
2020/01/31 04:00:32.1	93.150	0.220	-0.490	0.230
2020/01/31 04:00:32.2	93.180	0.270	-0.570	0.210
2020/01/31 04:00:32.3	93.210	0.320	-0.640	0.190
2020/01/31 04:00:32.4	93.230	0.360	-0.710	0.180
2020/01/31 04:00:32.5	93.260	0.410	-0.780	0.170
2020/01/31 04:00:32.6	93.290	0.450	-0.840	0.160
2020/01/31 04:00:32.7	93.320	0.490	-0.900	0.150
2020/01/31 04:00:32.8	93.350	0.530	-0.940	0.150
2020/01/31 04:00:32.9	93.380	0.560	-0.980	0.160
2020/01/31 04:00:33.0	93.410	0.590	-1.010	0.170
2020/01/31 04:00:33.1	93.450	0.620	-1.020	0.190
2020/01/31 04:00:33.2	93.470	0.640	-1.030	0.200
2020/01/31 04:00:33.3	93.490	0.660	-1.020	0.230
2020/01/31 04:00:33.4	93.520	0.670	-1.000	0.260
2020/01/31 04:00:33.5	93.540	0.670	-0.970	0.290
2020/01/31 04:00:33.6	93.550	0.670	-0.930	0.330
2020/01/31 04:00:33.7	93.570	0.660	-0.870	0.370
2020/01/31 04:00:33.8	93.580	0.650	-0.810	0.410
2020/01/31 04:00:33.9	93.590	0.620	-0.730	0.460
2020/01/31 04:00:34.0	93.590	0.600	-0.640	0.510
2020/01/31 04:00:34.1	93.600	0.560	-0.540	0.560
2020/01/31 04:00:34.2	93.600	0.520	-0.440	0.620
2020/01/31 04:00:34.3	93.590	0.480	-0.330	0.670
2020/01/31 04:00:34.4	93.590	0.420	-0.210	0.730
2020/01/31 04:00:34.5	93.570	0.370	-0.090	0.790
2020/01/31 04:00:34.6	93.560	0.300	0.030	0.850
2020/01/31 04:00:34.7	93.540	0.240	0.160	0.910
2020/01/31 04:00:34.8	93.520	0.170	0.280	0.970
2020/01/31 04:00:34.9	93.500	0.090	0.400	1.020
2020/01/31 04:00:35.0	93.480	0.020	0.520	1.080
2020/01/31 04:00:35.1	93.430	-0.060	0.640	1.140
2020/01/31 04:00:35.2	93.410	-0.140	0.740	1.190
2020/01/31 04:00:35.3	93.380	-0.220	0.840	1.240
2020/01/31 04:00:35.4	93.350	-0.300	0.930	1.280
2020/01/31 04:00:35.5	93.330	-0.380	1.010	1.320
2020/01/31 04:00:35.6	93.300	-0.460	1.070	1.360
2020/01/31 04:00:35.7	93.280	-0.530	1.130	1.390
2020/01/31 04:00:35.8	93.260	-0.610	1.170	1.410
2020/01/31 04:00:35.9	93.240	-0.670	1.190	1.430
2020/01/31 04:00:36.0	93.220	-0.740	1.200	1.450
2020/01/31 04:00:36.1	93.210	-0.790	1.200	1.450
2020/01/31 04:00:36.2	93.190	-0.840	1.180	1.450
2020/01/31 04:00:36.3	93.180	-0.890	1.150	1.450
2020/01/31 04:00:36.4	93.170	-0.930	1.100	1.440
2020/01/31 04:00:36.5	93.170	-0.960	1.040	1.420
2020/01/31 04:00:36.6	93.170	-0.980	0.960	1.400
2020/01/31 04:00:36.7	93.170	-1.000	0.870	1.380
2020/01/31 04:00:36.8	93.170	-1.000	0.770	1.350
2020/01/31 04:00:36.9	93.170	-1.000	0.660	1.320
2020/01/31 04:00:37.0	93.170	-1.000	0.540	1.290
2020/01/31 04:00:37.1	93.180	-0.980	0.410	1.250
2020/01/31 04:00:37.2	93.180	-0.960	0.280	1.220
2020/01/31 04:00:37.3	93.190	-0.930	0.140	1.180
2020/01/31 04:00:37.4	93.200	-0.900	-0.000	1.140
2020/01/31 04:00:37.5	93.200	-0.860	-0.140	1.100
2020/01/31 04:00:37.6	93.210	-0.810	-0.280	1.060
2020/01/31 04:00:37.7	93.210	-0.760	-0.420	1.020
2020/01/31 04:00:37.8	93.220	-0.710	-0.560	0.980
2020/01/31 04:00:37.9	93.220	-0.650	-0.690	0.940
2020/01/31 04:00:38.0	93.220	-0.590	-0.810	0.910
2020/01/31 04:00:38.1	93.220	-0.520	-0.940	0.870
2020/01/31 04:00:38.2	93.220	-0.460	-1.050	0.830
2020/01/31 04:00:38.3	93.220	-0.390	-1.150	0.800
2020/01/31 04:00:38.4	93.210	-0.330	-1.240	0.770
2020/01/31 04:00:38.5	93.210	-0.260	-1.320	0.740
2020/01/31 04:00:38.6	93.200	-0.190	-1.390	0.720
2020/01/31 04:00:38.7	93.190	-0.120	-1.450	0.690
2020/01/31 04:00:38.8	93.180	-0.060	-1.510	0.670
2020/01/31 04:00:38.9	93.170	0.000	-1.540	0.660
2020/01/31 04:00:39.0	93.160	0.070	-1.570	0.640
2020/01/31 04:00:39.1	93.150	0.130	-1.590	0.630
2020/01/31 04:00:39.2	93.140	0.180	-1.600	0.630
2020/01/31 04:00:39.3	93.130	0.240	-1.590	0.630
2020/01/31 04:00:39.4	93.120	0.290	-1.580	0.630
2020/01/31 04:00:39.5	93.110	0.340	-1.560	0.630
2020/01/31 04:00:39.6	93.110	0.380	-1.530	0.640
2020/01/31 04:00:39.7	93.100	0.420	-1.490	0.650
2020/01/31 04:00:39.8	93.090	0.460	-1.440	0.660
2020/01/31 04:00:39.9	93.090	0.490	-1.390	0.670
2020/01/31 04:00:40.0	93.090	0.520	-1.330	0.690
2020/01/31 04:00:40.1	93.090	0.540	-1.260	0.700
2020/01/31 04:00:40.2	93.090	0.560	-1.190	0.720
2020/01/31 04:00:40.3	93.090	0.580	-1.110	0.730
2020/01/31 04:00:40.4	93.100	0.590	-1.040	0.750
2020/01/31 04:00:40.5	93.100	0.600	-0.960	0.770
2020/01/31 04:00:40.6	93.100	0.600	-0.870	0.790
2020/01/31 04:00:40.7	93.100	0.600	-0.780	0.810
2020/01/31 04:00:40.8	93.100	0.590	-0.700	0.820
2020/01/31 04:00:40.9	93.110	0.580	-0.610	0.840
2020/01/31 04:00:41.0	93.110	0.570	-0.520	0.850
2020/01/31 04:00:41.1	93.130	0.550	-0.430	0.870
2020/01/31 04:00:41.2	93.130	0.530	-0.340	0.880
2020/01/31 04:00:41.3	93.140	0.510	-0.250	0.890
2020/01/31 04:00:41.4	93.140	0.480	-0.160	0.900
2020/01/31 04:00:41.5	93.150	0.450	-0.070	0.910
2020/01/31 04:00:41.6	93.150	0.410	0.010	0.910
2020/01/31 04:00:41.7	93.160	0.370	0.090	0.910
2020/01/31 04:00:41.8	93.170	0.330	0.170	0.910
2020/01/31 04:00:41.9	93.170	0.290	0.250	0.910
2020/01/31 04:00:42.0	93.180	0.250	0.320	0.900
2020/01/31 04:00:42.1	93.180	0.210	0.390	0.900
2020/01/31 04:00:42.2	93.190	0.160	0.460	0.890
2020/01/31 04:00:42.3	93.190	0.120	0.510	0.880
2020/01/31 04:00:42.4	93.200	0.070	0.570	0.870
2020/01/31 04:00:42.5	93.200	0.020	0.620	0.860
2020/01/31 04:00:42.6	93.210	-0.020	0.660	0.850
2020/01/31 04:00:42.7	93.210	-0.060	0.700	0.840
2020/01/31 04:00:42.8	93.220	-0.110	0.740	0.820
2020/01/31 04:00:42.9	93.220	-0.150	0.770	0.810
2020/01/31 04:00:43.0	93.220	-0.190	0.800	0.800
2020/01/31 04:00:43.1	93.210	-0.220	0.820	0.790
2020/01/31 04:00:43.2	93.210	-0.260	0.840	0.780
2020/01/31 04:00:43.3	93.210	-0.290	0.850	0.770
2020/01/31 04:00:43.4	93.200	-0.320	0.860	0.760
2020/01/31 04:00:43.5	93.190	-0.340	0.860	0.750
2020/01/31 04:00:43.6	93.180	-0.370	0.850	0.740
2020/01/31 04:00:43.7	93.170	-0.390	0.850	0.730
2020/01/31 04:00:43.8	93.160	-0.400	0.830	0.730
2020/01/31 04:00:43.9	93.150	-0.410	0.810	0.720
2020/01/31 04:00:44.0	93.140	-0.420	0.780	0.710
2020/01/31 04:00:44.1	93.120	-0.420	0.750	0.700
2020/01/31 04:00:44.2	93.110	-0.420	0.710	0.690
2020/01/31 04:00:44.3	93.100	-0.410	0.670	0.680
2020/01/31 04:00:44.4	93.090	-0.400	0.620	0.670
2020/01/31 04:00:44.5	93.080	-0.390	0.560	0.660
2020/01/31 04:00:44.6	93.080	-0.370	0.500	0.640
2020/01/31 04:00:44.7	93.070	-0.350	0.430	0.620
2020/01/31 04:00:44.8	93.070	-0.320	0.350	0.610
2020/01/31 04:00:44.9	93.070	-0.290	0.270	0.590
2020/01/31 04:00:45.0	93.070	-0.250	0.190	0.560
2020/01/31 04:00:45.1	93.080	-0.210	0.100	0.540
2020/01/31 04:00:45.2	93.090	-0.160	0.000	0.520
2020/01/31 04:00:45.3	93.100	-0.120	-0.100	0.490
2020/01/31 04:00:45.4	93.110	-0.070	-0.200	0.470
2020/01/31 04:00:45.5	93.130	-0.010	-0.310	0.440
2020/01/31 04:00:45.6	93.150	0.040	-0.420	0.420
2020/01/31 04:00:45.7	93.170	0.100	-0.530	0.390
2020/01/31 04:00:45.8	93.190	0.160	-0.640	0.370
2020/01/31 04:00:45.9	93.210	0.230	-0.750	0.340
2020/01/31 04:00:46.0	93.240	0.290	-0.850	0.320
2020/01/31 04:00:46.1	93.260	0.350	-0.970	0.300
2020/01/31 04:00:46.2	93.280	0.420	-1.070	0.280
2020/01/31 04:00:46.3	93.310	0.480	-1.160	0.260
2020/01/31 04:00:46.4	93.330	0.540	-1.260	0.250
2020/01/31 04:00:46.5	93.340	0.600	-1.340	0.240
2020/01/31 04:00:46.6	93.360	0.660	-1.420	0.230
2020/01/31 04:00:46.7	93.380	0.710	-1.480	0.230
2020/01/31 04:00:46.8	93.390	0.760	-1.540	0.220
2020/01/31 04:00:46.9	93.400	0.810	-1.580	0.230
2020/01/31 04:00:47.0	93.410	0.840	-1.610	0.230
2020/01/31 04:00:47.1	93.420	0.880	-1.620	0.240
2020/01/31 04:00:47.2	93.420	0.900	-1.620	0.250
2020/01/31 04:00:47.3	93.420	0.920	-1.600	0.260
2020/01/31 04:00:47.4	93.420	0.930	-1.560	0.270
2020/01/31 04:00:47.5	93.420	0.940	-1.520	0.290
2020/01/31 04:00:47.6	93.420	0.930	-1.450	0.310
2020/01/31 04:00:47.7	93.410	0.920	-1.370	0.330
2020/01/31 04:00:47.8	93.400	0.900	-1.280	0.360
2020/01/31 04:00:47.9	93.400	0.870	-1.170	0.390
2020/01/31 04:00:48.0	93.390	0.830	-1.060	0.430
2020/01/31 04:00:48.1	93.370	0.790	-0.930	0.460
2020/01/31 04:00:48.2	93.360	0.740	-0.790	0.500
2020/01/31 04:00:48.3	93.340	0.680	-0.640	0.540
2020/01/31 04:00:48.4	93.330	0.610	-0.490	0.590
2020/01/31 04:00:48.5	93.310	0.540	-0.330	0.640
2020/01/31 04:00:48.6	93.300	0.460	-0.170	0.690
2020/01/31 04:00:48.7	93.290	0.380	-0.010	0.740
2020/01/31 04:00:48.8	93.270	0.290	0.150	0.790
2020/01/31 04:00:48.9	93.260	0.200	0.300	0.840
2020/01/31 04:00:49.0	93.250	0.100	0.450	0.900
2020/01/31 04:00:49.1	93.240	0.010	0.600	0.950
2020/01/31 04:00:49.2	93.230	-0.090	0.740	1.000
2020/01/31 04:00:49.3	93.230	-0.180	0.860	1.040
2020/01/31 04:00:49.4	93.220	-0.280	0.980	1.080
2020/01/31 04:00:49.5	93.220	-0.370	1.070	1.120
2020/01/31 04:00:49.6	93.220	-0.460	1.160	1.160
2020/01/31 04:00:49.7	93.220	-0.540	1.230	1.180
2020/01/31 04:00:49.8	93.220	-0.620	1.280	1.210
2020/01/31 04:00:49.9	93.220	-0.700	1.320	1.220
2020/01/31 04:00:50.0	93.230	-0.770	1.340	1.230
2020/01/31 04:00:50.1	93.240	-0.830	1.340	1.230
2020/01/31 04:00:50.2	93.250	-0.880	1.330	1.230
2020/01/31 04:00:50.3	93.270	-0.930	1.310	1.220
2020/01/31 04:00:50.4	93.290	-0.970	1.260	1.200
2020/01/31 04:00:50.5	93.310	-1.010	1.200	1.180
2020/01/31 04:00:50.6	93.330	-1.030	1.130	1.150
2020/01/31 04:00:50.7	93.350	-1.050	1.050	1.130
2020/01/31 04:00:50.8	93.380	-1.050	0.950	1.090
2020/01/31 04:00:50.9	93.400	-1.050	0.840	1.060
2020/01/31 04:00:51.0	93.430	-1.040	0.730	1.020
2020/01/31 04:00:51.1	93.470	-1.030	0.590	0.990
2020/01/31 04:00:51.2	93.500	-1.000	0.460	0.960
2020/01/31 04:00:51.3	93.520	-0.970	0.320	0.930
2020/01/31 04:00:51.4	93.550	-0.930	0.180	0.900
2020/01/31 04:00:51.5	93.580	-0.880	0.030	0.880
2020/01/31 04:00:51.6	93.600	-0.830	-0.110	0.860
2020/01/31 04:00:51.7	93.620	-0.780	-0.250	0.840
2020/01/31 04:00:51.8	93.640	-0.710	-0.390	0.830
2020/01/31 04:00:51.9	93.660	-0.650	-0.530	0.820
2020/01/31 04:00:52.0	93.670	-0.580	-0.660	0.820
2020/01/31 04:00:52.1	93.680	-0.510	-0.790	0.820
2020/01/31 04:00:52.2	93.690	-0.440	-0.900	0.830
2020/01/31 04:00:52.3	93.690	-0.370	-1.010	0.840
2020/01/31 04:00:52.4	93.690	-0.300	-1.110	0.850
2020/01/31 04:00:52.5	93.690	-0.230	-1.190	0.860
2020/01/31 04:00:52.6	93.690	-0.160	-1.270	0.880
2020/01/31 04:00:52.7	93.680	-0.100	-1.330	0.900
2020/01/31 04:00:52.8	93.670	-0.030	-1.390	0.910
2020/01/31 04:00:52.9	93.660	0.030	-1.430	0.930
2020/01/31 04:00:53.0	93.650	0.080	-1.450	0.940
2020/01/31 04:00:53.1	93.630	0.130	-1.470	0.960
2020/01/31 04:00:53.2	93.610	0.180	-1.470	0.970
2020/01/31 04:00:53.3	93.600	0.220	-1.460	0.980
2020/01/31 04:00:53.4	93.580	0.260	-1.440	1.000
2020/01/31 04:00:53.5	93.560	0.290	-1.400	1.000
2020/01/31 04:00:53.6	93.540	0.320	-1.360	1.010
2020/01/31 04:00:53.7	93.520	0.340	-1.310	1.020
2020/01/31 04:00:53.8	93.490	0.350	-1.240	1.020
2020/01/31 04:00:53.9	93.470	0.360	-1.170	1.020
2020/01/31 04:00:54.0	93.450	0.370	-1.090	1.030
2020/01/31 04:00:54.1	93.440	0.370	-1.000	1.020
2020/01/31 04:00:54.2	93.420	0.360	-0.910	1.020
2020/01/31 04:00:54.3	93.410	0.350	-0.810	1.020
2020/01/31 04:00:54.4	93.390	0.340	-0.710	1.010
2020/01/31 04:00:54.5	93.380	0.320	-0.610	1.010
2020/01/31 04:00:54.6	93.370	0.300	-0.500	1.000
2020/01/31 04:00:54.7	93.360	0.280	-0.400	0.990
2020/01/31 04:00:54.8	93.350	0.250	-0.290	0.980
2020/01/31 04:00:54.9	93.350	0.230	-0.190	0.970
2020/01/31 04:00:55.0	93.340	0.200	-0.090	0.950
2020/01/31 04:00:55.1	93.350	0.170	0.010	0.940
2020/01/31 04:00:55.2	93.350	0.140	0.100	0.920
2020/01/31 04:00:55.3	93.350	0.110	0.180	0.890
2020/01/31 04:00:55.4	93.360	0.080	0.260	0.870
2020/01/31 04:00:55.5	93.370	0.060	0.330	0.840
2020/01/31 04:00:55.6	93.380	0.030	0.390	0.810
2020/01/31 04:00:55.7	93.390	0.000	0.450	0.770
2020/01/31 04:00:55.8	93.400	-0.020	0.500	0.730
2020/01/31 04:00:55.9	93.410	-0.040	0.540	0.690
2020/01/31 04:00:56.0	93.430	-0.060	0.570	0.650
2020/01/31 04:00:56.1	93.450	-0.070	0.590	0.600
2020/01/31 04:00:56.2	93.460	-0.080	0.610	0.550
2020/01/31 04:00:56.3	93.480	-0.090	0.610	0.500
2020/01/31 04:00:56.4	93.500	-0.090	0.600	0.450
2020/01/31 04:00:56.5	93.520	-0.090	0.590	0.390
2020/01/31 04:00:56.6	93.540	-0.090	0.570	0.340
2020/01/31 04:00:56.7	93.560	-0.080	0.530	0.290
2020/01/31 04:00:56.8	93.580	-0.070	0.490	0.240
2020/01/31 04:00:56.9	93.600	-0.050	0.450	0.190
2020/01/31 04:00:57.0	93.620	-0.030	0.390	0.140
2020/01/31 04:00:57.1	93.630	-0.010	0.330	0.090
2020/01/31 04:00:57.2	93.640	0.020	0.260	0.050
2020/01/31 04:00:57.3	93.650	0.050	0.190	0.010
2020/01/31 04:00:57.4	93.670	0.080	0.110	-0.030
2020/01/31 04:00:57.5	93.680	0.120	0.040	-0.060
2020/01/31 04:00:57.6	93.690	0.160	-0.040	-0.090
2020/01/31 04:00:57.7	93.700	0.190	-0.120	-0.110
2020/01/31 04:00:57.8	93.710	0.230	-0.200	-0.120
2020/01/31 04:00:57.9	93.710	0.270	-0.270	-0.130
2020/01/31 04:00:58.0	93.720	0.310	-0.350	-0.140
2020/01/31 04:00:58.1	93.730	0.350	-0.410	-0.140
2020/01/31 04:00:58.2	93.730	0.390	-0.480	-0.130
2020/01/31 04:00:58.3	93.730	0.420	-0.540	-0.110
2020/01/31 04:00:58.4	93.730	0.460	-0.590	-0.090
2020/01/31 04:00:58.5	93.720	0.490	-0.640	-0.070
2020/01/31 04:00:58.6	93.720	0.510	-0.680	-0.040
2020/01/31 04:00:58.7	93.710	0.540	-0.720	-0.000
2020/01/31 04:00:58.8	93.700	0.560	-0.740	0.040
2020/01/31 04:00:58.9	93.690	0.570	-0.760	0.080
2020/01/31 04:00:59.0	93.670	0.580	-0.770	0.130
2020/01/31 04:00:59.1	93.640	0.590	-0.780	0.180
2020/01/31 04:00:59.2	93.630	0.590	-0.780	0.230
2020/01/31 04:00:59.3	93.600	0.580	-0.760	0.290
2020/01/31 04:00:59.4	93.580	0.570	-0.750	0.350
2020/01/31 04:00:59.5	93.560	0.560	-0.720	0.410
2020/01/31 04:00:59.6	93.540	0.540	-0.690	0.470
2020/01/31 04:00:59.7	93.510	0.510	-0.660	0.530
2020/01/31 04:00:59.8	93.490	0.480	-0.620	0.580
2020/01/31 04:00:59.9	93.460	0.450	-0.570	0.640
2020/01/31 04:01:00.0	93.440	0.410	-0.530	0.700
2020/01/31 04:01:00.1	93.420	0.370	-0.470	0.750
2020/01/31 04:01:00.2	93.400	0.330	-0.420	0.810
2020/01/31 04:01:00.3	93.380	0.280	-0.370	0.850
2020/01/31 04:01:00.4	93.360	0.230	-0.320	0.900
2020/01/31 04:01:00.5	93.340	0.180	-0.270	0.940
2020/01/31 04:01:00.6	93.330	0.130	-0.210	0.980
2020/01/31 04:01:00.7	93.320	0.080	-0.170	1.020
2020/01/31 04:01:00.8	93.310	0.030	-0.120	1.040
2020/01/31 04:01:00.9	93.300	-0.020	-0.070	1.070
2020/01/31 04:01:01.0	93.300	-0.070	-0.030	1.090
2020/01/31 04:01:01.1	93.300	-0.120	0.020	1.100
2020/01/31 04:01:01.2	93.300	-0.160	0.050	1.100
2020/01/31 04:01:01.3	93.310	-0.200	0.090	1.110
2020/01/31 04:01:01.4	93.320	-0.250	0.120	1.100
2020/01/31 04:01:01.5	93.330	-0.280	0.150	1.100
2020/01/31 04:01:01.6	93.340	-0.320	0.170	1.080
2020/01/31 04:01:01.7	93.360	-0.340	0.190	1.070
2020/01/31 04:01:01.8	93.380	-0.370	0.210	1.050
2020/01/31 04:01:01.9	93.410	-0.390	0.220	1.030
2020/01/31 04:01:02.0	93.430	-0.410	0.220	1.010
2020/01/31 04:01:02.1	93.480	-0.420	0.230	0.980
2020/01/31 04:01:02.2	93.500	-0.430	0.220	0.960
2020/01/31 04:01:02.3	93.530	-0.430	0.210	0.930
2020/01/31 04:01:02.4	93.560	-0.430	0.200	0.910
2020/01/31 04:01:02.5	93.590	-0.420	0.180	0.880
2020/01/31 04:01:02.6	93.620	-0.420	0.160	0.860
2020/01/31 04:01:02.7	93.660	-0.400	0.130	0.830
2020/01/31 04:01:02.8	93.690	-0.380	0.100	0.810
2020/01/31 04:01:02.9	93.720	-0.360	0.070	0.790
2020/01/31 04:01:03.0	93.750	-0.340	0.030	0.780
2020/01/31 04:01:03.1	93.790	-0.320	-0.010	0.760
2020/01/31 04:01:03.2	93.820	-0.290	-0.050	0.740
2020/01/31 04:01:03.3	93.860	-0.260	-0.090	0.730
2020/01/31 04:01:03.4	93.890	-0.230	-0.130	0.720
2020/01/31 04:01:03.5	93.920	-0.200	-0.170	0.720
2020/01/31 04:01:03.6	93.950	-0.170	-0.210	0.710
2020/01/31 04:01:03.7	93.980	-0.140	-0.250	0.710
2020/01/31 04:01:03.8	94.010	-0.110	-0.280	0.710
2020/01/31 04:01:03.9	94.030	-0.080	-0.320	0.720
2020/01/31 04:01:04.0	94.050	-0.050	-0.350	0.720
2020/01/31 04:01:04.1	94.060	-0.020	-0.380	0.730
2020/01/31 04:01:04.2	94.080	0.000	-0.410	0.740
2020/01/31 04:01:04.3	94.090	0.030	-0.430	0.760
2020/01/31 04:01:04.4	94.100	0.050	-0.450	0.770
2020/01/31 04:01:04.5	94.110	0.060	-0.470	0.790
2020/01/31 04:01:04.6	94.110	0.080	-0.480	0.810
2020/01/31 04:01:04.7	94.120	0.090	-0.480	0.830
2020/01/31 04:01:04.8	94.110	0.100	-0.490	0.850
2020/01/31 04:01:04.9	94.110	0.110	-0.480	0.880
2020/01/31 04:01:05.0	94.100	0.110	-0.470	0.900
2020/01/31 04:01:05.1	94.090	0.110	-0.460	0.930
2020/01/31 04:01:05.2	94.080	0.110	-0.440	0.960
2020/01/31 04:01:05.3	94.060	0.110	-0.420	0.980
2020/01/31 04:01:05.4	94.040	0.100	-0.390	1.010
2020/01/31 04:01:05.5	94.020	0.090	-0.360	1.040
2020/01/31 04:01:05.6	94.000	0.080	-0.330	1.070
2020/01/31 04:01:05.7	93.980	0.060	-0.300	1.090
2020/01/31 04:01:05.8	93.950	0.050	-0.260	1.120
2020/01/31 04:01:05.9	93.930	0.030	-0.220	1.150
2020/01/31 04:01:06.0	93.900	0.010	-0.190	1.170
2020/01/31 04:01:06.1	93.860	-0.010	-0.150	1.200
2020/01/31 04:01:06.2	93.840	-0.030	-0.110	1.220
2020/01/31 04:01:06.3	93.810	-0.050	-0.080	1.240
2020/01/31 04:01:06.4	93.780	-0.070	-0.040	1.260
2020/01/31 04:01:06.5	93.760	-0.080	-0.010	1.270
2020/01/31 04:01:06.6	93.740	-0.100	0.010	1.280
2020/01/31 04:01:06.7	93.710	-0.120	0.030	1.290
2020/01/31 04:01:06.8	93.690	-0.140	0.050	1.300
2020/01/31 04:01:06.9	93.670	-0.150	0.060	1.300
2020/01/31 04:01:07.0	93.650	-0.160	0.070	1.310
2020/01/31 04:01:07.1	93.630	-0.170	0.080	1.300
2020/01/31 04:01:07.2	93.610	-0.180	0.070	1.300
2020/01/31 04:01:07.3	93.600	-0.190	0.070	1.290
2020/01/31 04:01:07.4	93.580	-0.190	0.050	1.280
2020/01/31 04:01:07.5	93.560	-0.190	0.030	1.260
2020/01/31 04:01:07.6	93.550	-0.190	0.010	1.240
2020/01/31 04:01:07.7	93.540	-0.190	-0.020	1.220
2020/01/31 04:01:07.8	93.520	-0.180	-0.060	1.200
2020/01/31 04:01:07.9	93.510	-0.170	-0.100	1.170
2020/01/31 04:01:08.0	93.500	-0.160	-0.140	1.140
2020/01/31 04:01:08.1	93.490	-0.140	-0.200	1.100
2020/01/31 04:01:08.2	93.480	-0.130	-0.250	1.060
2020/01/31 04:01:08.3	93.470	-0.110	-0.300	1.020
2020/01/31 04:01:08.4	93.460	-0.080	-0.360	0.980
2020/01/31 04:01:08.5	93.460	-0.060	-0.420	0.930
2020/01/31 04:01:08.6	93.450	-0.030	-0.480	0.880
2020/01/31 04:01:08.7	93.450	-0.010	-0.530	0.830
2020/01/31 04:01:08.8	93.450	0.020	-0.590	0.770
2020/01/31 04:01:08.9	93.440	0.050	-0.640	0.720
2020/01/31 04:01:09.0	93.450	0.080	-0.700	0.670
2020/01/31 04:01:09.1	93.440	0.110	-0.740	0.610
2020/01/31 04:01:09.2	93.450	0.140	-0.780	0.550
2020/01/31 04:01:09.3	93.450	0.180	-0.820	0.500
2020/01/31 04:01:09.4	93.460	0.210	-0.860	0.450
2020/01/31 04:01:09.5	93.470	0.230	-0.880	0.400
2020/01/31 04:01:09.6	93.470	0.260	-0.910	0.360
2020/01/31 04:01:09.7	93.480	0.290	-0.920	0.320
2020/01/31 04:01:09.8	93.500	0.310	-0.930	0.280
2020/01/31 04:01:09.9	93.510	0.340	-0.930	0.240
2020/01/31 04:01:10.0	93.520	0.360	-0.930	0.210
2020/01/31 04:01:10.1	93.530	0.380	-0.920	0.190
2020/01/31 04:01:10.2	93.550	0.400	-0.900	0.170
2020/01/31 04:01:10.3	93.560	0.410	-0.880	0.160
2020/01/31 04:01:10.4	93.580	0.420	-0.850	0.150
2020/01/31 04:01:10.5	93.590	0.430	-0.810	0.140
2020/01/31 04:01:10.6	93.610	0.440	-0.770	0.150
2020/01/31 04:01:10.7	93.620	0.440	-0.720	0.150
2020/01/31 04:01:10.8	93.640	0.440	-0.660	0.170
2020/01/31 04:01:10.9	93.650	0.440	-0.600	0.180
2020/01/31 04:01:11.0	93.660	0.430	-0.540	0.210
2020/01/31 04:01:11.1	93.680	0.420	-0.470	0.230
2020/01/31 04:01:11.2	93.690	0.410	-0.400	0.270
2020/01/31 04:01:11.3	93.690	0.400	-0.320	0.300
2020/01/31 04:01:11.4	93.700	0.380	-0.250	0.340
2020/01/31 04:01:11.5	93.700	0.360	-0.170	0.380
2020/01/31 04:01:11.6	93.700	0.340	-0.100	0.420
2020/01/31 04:01:11.7	93.700	0.310	-0.020	0.470
2020/01/31 04:01:11.8	93.700	0.280	0.060	0.520
2020/01/31 04:01:11.9	93.690	0.250	0.130	0.570
2020/01/31 04:01:12.0	93.680	0.220	0.210	0.620
2020/01/31 04:01:12.1	93.670	0.190	0.280	0.670
2020/01/31 04:01:12.2	93.660	0.160	0.350	0.720
2020/01/31 04:01:12.3	93.650	0.120	0.410	0.760
2020/01/31 04:01:12.4	93.650	0.080	0.470	0.800
2020/01/31 04:01:12.5	93.640	0.050	0.520	0.850
2020/01/31 04:01:12.6	93.630	0.010	0.570	0.880
2020/01/31 04:01:12.7	93.630	-0.030	0.610	0.910
2020/01/31 04:01:12.8	93.630	-0.060	0.650	0.940
2020/01/31 04:01:12.9	93.630	-0.100	0.680	0.970
2020/01/31 04:01:13.0	93.630	-0.140	0.700	0.990
2020/01/31 04:01:13.1	93.640	-0.170	0.710	1.000
2020/01/31 04:01:13.2	93.650	-0.210	0.720	1.010
2020/01/31 04:01:13.3	93.650	-0.240	0.720	1.020
2020/01/31 04:01:13.4	93.660	-0.270	0.710	1.030
2020/01/31 04:01:13.5	93.670	-0.300	0.700	1.030
2020/01/31 04:01:13.6	93.680	-0.320	0.670	1.030
2020/01/31 04:01:13.7	93.690	-0.350	0.640	1.030
2020/01/31 04:01:13.8	93.700	-0.370	0.600	1.030
2020/01/31 04:01:13.9	93.710	-0.390	0.560	1.020
2020/01/31 04:01:14.0	93.720	-0.400	0.500	1.020
2020/01/31 04:01:14.1	93.720	-0.420	0.440	1.020
2020/01/31 04:01:14.2	93.730	-0.430	0.380	1.010
2020/01/31 04:01:14.3	93.740	-0.430	0.310	1.010
2020/01/31 04:01:14.4	93.740	-0.440	0.240	1.000
2020/01/31 04:01:14.5	93.750	-0.440	0.170	1.000
2020/01/31 04:01:14.6	93.750	-0.430	0.090	0.990
2020/01/31 04:01:14.7	93.750	-0.430	0.010	0.980
2020/01/31 04:01:14.8	93.750	-0.420	-0.070	0.980
2020/01/31 04:01:14.9	93.750	-0.410	-0.160	0.970
2020/01/31 04:01:15.0	93.760	-0.390	-0.240	0.960
2020/01/31 04:01:15.1	93.750	-0.370	-0.320	0.960
2020/01/31 04:01:15.2	93.750	-0.350	-0.390	0.950
2020/01/31 04:01:15.3	93.750	-0.330	-0.470	0.940
2020/01/31 04:01:15.4	93.750	-0.300	-0.540	0.930
2020/01/31 04:01:15.5	93.760	-0.280	-0.610	0.910
2020/01/31 04:01:15.6	93.760	-0.250	-0.670	0.900
2020/01/31 04:01:15.7	93.770	-0.220	-0.720	0.880
2020/01/31 04:01:15.8	93.780	-0.190	-0.770	0.870
2020/01/31 04:01:15.9	93.790	-0.160	-0.820	0.860
2020/01/31 04:01:16.0	93.800	-0.130	-0.850	0.840
2020/01/31 04:01:16.1	93.800	-0.090	-0.880	0.830
2020/01/31 04:01:16.2	93.810	-0.060	-0.900	0.810
2020/01/31 04:01:16.3	93.820	-0.030	-0.910	0.800
2020/01/31 04:01:16.4	93.830	0.000	-0.920	0.790
2020/01/31 04:01:16.5	93.840	0.030	-0.920	0.790
2020/01/31 04:01:16.6	93.850	0.060	-0.910	0.780
2020/01/31 04:01:16.7	93.870	0.090	-0.890	0.780
2020/01/31 04:01:16.8	93.880	0.120	-0.870	0.770
2020/01/31 04:01:16.9	93.890	0.150	-0.840	0.770
2020/01/31 04:01:17.0	93.900	0.170	-0.800	0.770
2020/01/31 04:01:17.1	93.910	0.200	-0.760	0.780
2020/01/31 04:01:17.2	93.920	0.220	-0.720	0.780
2020/01/31 04:01:17.3	93.930	0.240	-0.670	0.790
2020/01/31 04:01:17.4	93.930	0.260	-0.620	0.790
2020/01/31 04:01:17.5	93.940	0.280	-0.570	0.800
2020/01/31 04:01:17.6	93.940	0.290	-0.520	0.810
2020/01/31 04:01:17.7	93.940	0.310	-0.480	0.820
2020/01/31 04:01:17.8	93.950	0.320	-0.430	0.830
2020/01/31 04:01:17.9	93.950	0.330	-0.380	0.850
2020/01/31 04:01:18.0	93.950	0.340	-0.340	0.860
2020/01/31 04:01:18.1	93.940	0.350	-0.300	0.870
2020/01/31 04:01:18.2	93.940	0.360	-0.260	0.880
2020/01/31 04:01:18.3	93.940	0.370	-0.230	0.890
2020/01/31 04:01:18.4	93.940	0.380	-0.200	0.900
2020/01/31 04:01:18.5	93.930	0.380	-0.170	0.910
2020/01/31 04:01:18.6	93.930	0.380	-0.150	0.920
2020/01/31 04:01:18.7	93.920	0.390	-0.130	0.930
2020/01/31 04:01:18.8	93.920	0.390	-0.120	0.930
2020/01/31 04:01:18.9	93.910	0.390	-0.110	0.930
2020/01/31 04:01:19.0	93.900	0.380	-0.100	0.940
2020/01/31 04:01:19.1	93.910	0.380	-0.090	0.940
2020/01/31 04:01:19.2	93.900	0.380	-0.090	0.930
2020/01/31 04:01:19.3	93.890	0.370	-0.090	0.930
2020/01/31 04:01:19.4	93.890	0.360	-0.100	0.920
2020/01/31 04:01:19.5	93.880	0.350	-0.100	0.920
2020/01/31 04:01:19.6	93.880	0.340	-0.110	0.910
2020/01/31 04:01:19.7	93.870	0.320	-0.110	0.900
2020/01/31 04:01:19.8	93.870	0.310	-0.120	0.890
2020/01/31 04:01:19.9	93.860	0.290	-0.130	0.890
2020/01/31 04:01:20.0	93.860	0.270	-0.130	0.880
2020/01/31 04:01:20.1	93.850	0.250	-0.140	0.870
2020/01/31 04:01:20.2	93.850	0.230	-0.140	0.870
2020/01/31 04:01:20.3	93.840	0.210	-0.150	0.870
2020/01/31 04:01:20.4	93.840	0.190	-0.150	0.870
2020/01/31 04:01:20.5	93.840	0.160	-0.150	0.860
2020/01/31 04:01:20.6	93.830	0.140	-0.150	0.860
2020/01/31 04:01:20.7	93.830	0.110	-0.150	0.870
2020/01/31 04:01:20.8	93.830	0.080	-0.150	0.870
2020/01/31 04:01:20.9	93.830	0.060	-0.140	0.870
2020/01/31 04:01:21.0	93.830	0.030	-0.140	0.880
2020/01/31 04:01:21.1	93.820	0.010	-0.130	0.880
2020/01/31 04:01:21.2	93.820	-0.020	-0.130	0.890
2020/01/31 04:01:21.3	93.810	-0.040	-0.130	0.890
2020/01/31 04:01:21.4	93.810	-0.070	-0.120	0.900
2020/01/31 04:01:21.5	93.810	-0.090	-0.120	0.900
2020/01/31 04:01:21.6	93.800	-0.120	-0.120	0.900
2020/01/31 04:01:21.7	93.800	-0.140	-0.120	0.910
2020/01/31 04:01:21.8	93.800	-0.160	-0.130	0.910
2020/01/31 04:01:21.9	93.790	-0.180	-0.130	0.910
2020/01/31 04:01:22.0	93.790	-0.200	-0.140	0.910
2020/01/31 04:01:22.1	93.780	-0.210	-0.150	0.910
2020/01/31 04:01:22.2	93.780	-0.230	-0.170	0.910
2020/01/31 04:01:22.3	93.770	-0.240	-0.180	0.900
2020/01/31 04:01:22.4	93.770	-0.250	-0.200	0.900
2020/01/31 04:01:22.5	93.760	-0.260	-0.220	0.890
2020/01/31 04:01:22.6	93.760	-0.270	-0.230	0.880
2020/01/31 04:01:22.7	93.760	-0.280	-0.250	0.870
2020/01/31 04:01:22.8	93.760	-0.290	-0.280	0.860
2020/01/31 04:01:22.9	93.770	-0.300	-0.300	0.850
2020/01/31 04:01:23.0	93.770	-0.300	-0.320	0.840
2020/01/31 04:01:23.1	93.790	-0.310	-0.330	0.820
2020/01/31 04:01:23.2	93.800	-0.310	-0.350	0.810
2020/01/31 04:01:23.3	93.810	-0.320	-0.360	0.800
2020/01/31 04:01:23.4	93.820	-0.320	-0.380	0.790
2020/01/31 04:01:23.5	93.840	-0.320	-0.390	0.780
2020/01/31 04:01:23.6	93.850	-0.330	-0.390	0.770
2020/01/31 04:01:23.7	93.870	-0.330	-0.400	0.760
2020/01/31 04:01:23.8	93.890	-0.330	-0.400	0.760
2020/01/31 04:01:23.9	93.910	-0.330	-0.400	0.760
2020/01/31 04:01:24.0	93.930	-0.330	-0.390	0.760
2020/01/31 04:01:24.1	93.960	-0.330	-0.380	0.760
2020/01/31 04:01:24.2	93.980	-0.330	-0.370	0.760
2020/01/31 04:01:24.3	94.000	-0.320	-0.360	0.770
2020/01/31 04:01:24.4	94.020	-0.320	-0.340	0.780
2020/01/31 04:01:24.5	94.040	-0.320	-0.320	0.800
2020/01/31 04:01:24.6	94.060	-0.310	-0.300	0.810
2020/01/31 04:01:24.7	94.070	-0.300	-0.280	0.830
2020/01/31 04:01:24.8	94.090	-0.300	-0.250	0.860
2020/01/31 04:01:24.9	94.110	-0.290	-0.220	0.880
2020/01/31 04:01:25.0	94.120	-0.270	-0.200	0.910
2020/01/31 04:01:25.1	94.120	-0.260	-0.170	0.930
2020/01/31 04:01:25.2	94.130	-0.250	-0.150	0.960
2020/01/31 04:01:25.3	94.140	-0.230	-0.120	1.000
2020/01/31 04:01:25.4	94.140	-0.210	-0.100	1.030
2020/01/31 04:01:25.5	94.140	-0.190	-0.080	1.060
2020/01/31 04:01:25.6	94.140	-0.170	-0.060	1.100
2020/01/31 04:01:25.7	94.130	-0.150	-0.040	1.140
2020/01/31 04:01:25.8	94.120	-0.130	-0.030	1.170
2020/01/31 04:01:25.9	94.110	-0.100	-0.020	1.210
2020/01/31 04:01:26.0	94.090	-0.080	-0.010	1.240
2020/01/31 04:01:26.1	94.070	-0.050	-0.010	1.280
2020/01/31 04:01:26.2	94.060	-0.030	-0.010	1.300
2020/01/31 04:01:26.3	94.040	0.000	-0.010	1.330
2020/01/31 04:01:26.4	94.010	0.030	-0.010	1.350
2020/01/31 04:01:26.5	93.990	0.050	-0.020	1.370
2020/01/31 04:01:26.6	93.970	0.080	-0.040	1.380
2020/01/31 04:01:26.7	93.950	0.110	-0.050	1.390
2020/01/31 04:01:26.8	93.920	0.140	-0.080	1.390
2020/01/31 04:01:26.9	93.900	0.160	-0.100	1.390
2020/01/31 04:01:27.0	93.880	0.190	-0.130	1.380
2020/01/31 04:01:27.1	93.870	0.210	-0.160	1.370
2020/01/31 04:01:27.2	93.850	0.240	-0.190	1.360
2020/01/31 04:01:27.3	93.840	0.260	-0.230	1.340
2020/01/31 04:01:27.4	93.820	0.290	-0.270	1.310
2020/01/31 04:01:27.5	93.810	0.310	-0.310	1.290
2020/01/31 04:01:27.6	93.800	0.330	-0.360	1.250
2020/01/31 04:01:27.7	93.790	0.360	-0.400	1.220
2020/01/31 04:01:27.8	93.780	0.380	-0.450	1.180
2020/01/31 04:01:27.9	93.780	0.400	-0.490	1.140
2020/01/31 04:01:28.0	93.780	0.410	-0.530	1.100
2020/01/31 04:01:28.1	93.780	0.430	-0.570	1.050
2020/01/31 04:01:28.2	93.780	0.440	-0.610	1.010
2020/01/31 04:01:28.3	93.780	0.460	-0.640	0.970
2020/01/31 04:01:28.4	93.790	0.470	-0.670	0.920
2020/01/31 04:01:28.5	93.790	0.470	-0.680	0.880
2020/01/31 04:01:28.6	93.800	0.480	-0.690	0.830
2020/01/31 04:01:28.7	93.810	0.480	-0.700	0.790
2020/01/31 04:01:28.8	93.810	0.480	-0.690	0.750
2020/01/31 04:01:28.9	93.820	0.470	-0.670	0.710
2020/01/31 04:01:29.0	93.840	0.460	-0.650	0.670
2020/01/31 04:01:29.1	93.870	0.440	-0.620	0.640
2020/01/31 04:01:29.2	93.880	0.430	-0.570	0.610
2020/01/31 04:01:29.3	93.900	0.400	-0.520	0.570
2020/01/31 04:01:29.4	93.910	0.380	-0.450	0.540
2020/01/31 04:01:29.5	93.930	0.350	-0.380	0.510
2020/01/31 04:01:29.6	93.940	0.310	-0.300	0.490
2020/01/31 04:01:29.7	93.960	0.280	-0.210	0.460
2020/01/31 04:01:29.8	93.970	0.240	-0.120	0.440
2020/01/31 04:01:29.9	93.990	0.190	-0.020	0.420
2020/01/31 04:01:30.0	94.010	0.150	0.080	0.410
2020/01/31 04:01:30.1	94.010	0.100	0.190	0.390
2020/01/31 04:01:30.2	94.030	0.050	0.290	0.380
2020/01/31 04:01:30.3	94.050	-0.000	0.400	0.370
2020/01/31 04:01:30.4	94.060	-0.060	0.500	0.360
2020/01/31 04:01:30.5	94.080	-0.110	0.590	0.360
2020/01/31 04:01:30.6	94.090	-0.160	0.680	0.360
2020/01/31 04:01:30.7	94.110	-0.210	0.760	0.360
2020/01/31 04:01:30.8	94.120	-0.260	0.830	0.360
2020/01/31 04:01:30.9	94.130	-0.300	0.890	0.370
2020/01/31 04:01:31.0	94.140	-0.350	0.940	0.380
2020/01/31 04:01:31.1	94.150	-0.390	0.980	0.390
2020/01/31 04:01:31.2	94.160	-0.420	1.000	0.410
2020/01/31 04:01:31.3	94.160	-0.450	1.010	0.430
2020/01/31 04:01:31.4	94.170	-0.470	1.000	0.450
2020/01/31 04:01:31.5	94.170	-0.490	0.970	0.470
2020/01/31 04:01:31.6	94.180	-0.500	0.930	0.500
2020/01/31 04:01:31.7	94.180	-0.500	0.870	0.520
2020/01/31 04:01:31.8	94.180	-0.500	0.790	0.550
2020/01/31 04:01:31.9	94.180	-0.490	0.700	0.570
2020/01/31 04:01:32.0	94.170	-0.480	0.600	0.600
2020/01/31 04:01:32.1	94.170	-0.450	0.480	0.630
2020/01/31 04:01:32.2	94.160	-0.420	0.350	0.660
2020/01/31 04:01:32.3	94.160	-0.390	0.210	0.680
2020/01/31 04:01:32.4	94.150	-0.350	0.060	0.710
2020/01/31 04:01:32.5	94.150	-0.310	-0.100	0.740
2020/01/31 04:01:32.6	94.140	-0.260	-0.260	0.770
2020/01/31 04:01:32.7	94.130	-0.200	-0.420	0.790
2020/01/31 04:01:32.8	94.120	-0.150	-0.590	0.820
2020/01/31 04:01:32.9	94.110	-0.090	-0.750	0.850
2020/01/31 04:01:33.0	94.100	-0.030	-0.910	0.880
2020/01/31 04:01:33.1	94.080	0.030	-1.070	0.900
2020/01/31 04:01:33.2	94.070	0.090	-1.210	0.930
2020/01/31 04:01:33.3	94.060	0.150	-1.350	0.960
2020/01/31 04:01:33.4	94.050	0.210	-1.480	0.990
2020/01/31 04:01:33.5	94.040	0.260	-1.590	1.020
2020/01/31 04:01:33.6	94.030	0.320	-1.700	1.040
2020/01/31 04:01:33.7	94.020	0.370	-1.780	1.070
2020/01/31 04:01:33.8	94.010	0.410	-1.850	1.100
2020/01/31 04:01:33.9	94.000	0.450	-1.910	1.130
2020/01/31 04:01:34.0	94.000	0.490	-1.950	1.150
2020/01/31 04:01:34.1	93.980	0.520	-1.960	1.180
2020/01/31 04:01:34.2	93.970	0.540	-1.960	1.210
2020/01/31 04:01:34.3	93.960	0.560	-1.940	1.230
2020/01/31 04:01:34.4	93.960	0.570	-1.910	1.250
2020/01/31 04:01:34.5	93.950	0.570	-1.850	1.270
2020/01/31 04:01:34.6	93.940	0.570	-1.780	1.290
2020/01/31 04:01:34.7	93.930	0.550	-1.680	1.300
2020/01/31 04:01:34.8	93.920	0.530	-1.580	1.310
2020/01/31 04:01:34.9	93.910	0.510	-1.450	1.330
2020/01/31 04:01:35.0	93.900	0.470	-1.310	1.330
2020/01/31 04:01:35.1	93.880	0.430	-1.150	1.340
2020/01/31 04:01:35.2	93.860	0.380	-0.990	1.350
2020/01/31 04:01:35.3	93.850	0.330	-0.810	1.350
2020/01/31 04:01:35.4	93.830	0.270	-0.630	1.350
2020/01/31 04:01:35.5	93.820	0.200	-0.440	1.350
2020/01/31 04:01:35.6	93.800	0.130	-0.250	1.340
2020/01/31 04:01:35.7	93.780	0.050	-0.050	1.330
2020/01/31 04:01:35.8	93.760	-0.030	0.150	1.320
2020/01/31 04:01:35.9	93.740	-0.110	0.340	1.310
2020/01/31 04:01:36.0	93.720	-0.190	0.530	1.290
2020/01/31 04:01:36.1	93.690	-0.280	0.730	1.270
2020/01/31 04:01:36.2	93.670	-0.360	0.900	1.250
2020/01/31 04:01:36.3	93.650	-0.440	1.070	1.220
2020/01/31 04:01:36.4	93.630	-0.530	1.220	1.200
2020/01/31 04:01:36.5	93.610	-0.610	1.360	1.170
2020/01/31 04:01:36.6	93.590	-0.680	1.490	1.130
2020/01/31 04:01:36.7	93.570	-0.750	1.590	1.100
2020/01/31 04:01:36.8	93.560	-0.820	1.680	1.060
2020/01/31 04:01:36.9	93.540	-0.880	1.750	1.020
2020/01/31 04:01:37.0	93.520	-0.930	1.800	0.970
2020/01/31 04:01:37.1	93.500	-0.980	1.830	0.930
2020/01/31 04:01:37.2	93.490	-1.020	1.830	0.880
2020/01/31 04:01:37.3	93.470	-1.040	1.810	0.830
2020/01/31 04:01:37.4	93.460	-1.060	1.770	0.780
2020/01/31 04:01:37.5	93.450	-1.070	1.700	0.720
2020/01/31 04:01:37.6	93.440	-1.060	1.610	0.670
2020/01/31 04:01:37.7	93.430	-1.050	1.500	0.610
2020/01/31 04:01:37.8	93.420	-1.020	1.370	0.550
2020/01/31 04:01:37.9	93.410	-0.990	1.220	0.490
2020/01/31 04:01:38.0	93.410	-0.940	1.060	0.440
2020/01/31 04:01:38.1	93.390	-0.890	0.880	0.370
2020/01/31 04:01:38.2	93.390	-0.820	0.680	0.320
2020/01/31 04:01:38.3	93.390	-0.750	0.480	0.270
2020/01/31 04:01:38.4	93.390	-0.670	0.280	0.220
2020/01/31 04:01:38.5	93.380	-0.580	0.060	0.180
2020/01/31 04:01:38.6	93.380	-0.490	-0.150	0.140
2020/01/31 04:01:38.7	93.380	-0.390	-0.360	0.100
2020/01/31 04:01:38.8	93.380	-0.290	-0.570	0.060
2020/01/31 04:01:38.9	93.390	-0.190	-0.770	0.040
2020/01/31 04:01:39.0	93.390	-0.080	-0.970	0.010
2020/01/31 04:01:39.1	93.390	0.020	-1.160	-0.010
2020/01/31 04:01:39.2	93.400	0.130	-1.330	-0.030
2020/01/31 04:01:39.3	93.400	0.230	-1.490	-0.050
2020/01/31 04:01:39.4	93.410	0.340	-1.620	-0.060
2020/01/31 04:01:39.5	93.430	0.430	-1.740	-0.070
2020/01/31 04:01:39.6	93.440	0.530	-1.850	-0.080
2020/01/31 04:01:39.7	93.450	0.610	-1.930	-0.080
2020/01/31 04:01:39.8	93.470	0.700	-1.990	-0.090
2020/01/31 04:01:39.9	93.480	0.770	-2.030	-0.090
2020/01/31 04:01:40.0	93.500	0.840	-2.050	-0.080
2020/01/31 04:01:40.1	93.520	0.890	-2.050	-0.080
2020/01/31 04:01:40.2	93.530	0.940	-2.040	-0.070
2020/01/31 04:01:40.3	93.550	0.980	-2.000	-0.060
2020/01/31 04:01:40.4	93.570	1.010	-1.950	-0.050
2020/01/31 04:01:40.5	93.590	1.040	-1.880	-0.030
2020/01/31 04:01:40.6	93.600	1.050	-1.800	-0.010
2020/01/31 04:01:40.7	93.620	1.050	-1.700	0.010
2020/01/31 04:01:40.8	93.640	1.040	-1.590	0.030
2020/01/31 04:01:40.9	93.650	1.020	-1.470	0.060
2020/01/31 04:01:41.0	93.670	1.000	-1.340	0.090
2020/01/31 04:01:41.1	93.680	0.960	-1.210	0.120
2020/01/31 04:01:41.2	93.690	0.920	-1.060	0.160
2020/01/31 04:01:41.3	93.700	0.870	-0.910	0.190
2020/01/31 04:01:41.4	93.700	0.820	-0.760	0.230
2020/01/31 04:01:41.5	93.700	0.760	-0.610	0.270
2020/01/31 04:01:41.6	93.700	0.690	-0.450	0.320
2020/01/31 04:01:41.7	93.700	0.620	-0.300	0.360
2020/01/31 04:01:41.8	93.690	0.550	-0.150	0.410
2020/01/31 04:01:41.9	93.680	0.470	0.000	0.460
2020/01/31 04:01:42.0	93.670	0.400	0.150	0.510
2020/01/31 04:01:42.1	93.670	0.320	0.300	0.560
2020/01/31 04:01:42.2	93.650	0.240	0.430	0.610
2020/01/31 04:01:42.3	93.630	0.160	0.560	0.660
2020/01/31 04:01:42.4	93.600	0.080	0.680	0.710
2020/01/31 04:01:42.5	93.570	-0.000	0.800	0.760
2020/01/31 04:01:42.6	93.540	-0.080	0.900	0.810
2020/01/31 04:01:42.7	93.510	-0.150	1.000	0.860
2020/01/31 04:01:42.8	93.480	-0.220	1.090	0.910
2020/01/31 04:01:42.9	93.450	-0.290	1.170	0.960
2020/01/31 04:01:43.0	93.410	-0.360	1.230	1.000
2020/01/31 04:01:43.1	93.370	-0.420	1.290	1.050
2020/01/31 04:01:43.2	93.340	-0.470	1.340	1.100
2020/01/31 04:01:43.3	93.310	-0.520	1.380	1.140
2020/01/31 04:01:43.4	93.270	-0.570	1.400	1.180
2020/01/31 04:01:43.5	93.240	-0.610	1.410	1.220
2020/01/31 04:01:43.6	93.210	-0.640	1.400	1.250
2020/01/31 04:01:43.7	93.180	-0.660	1.380	1.280
2020/01/31 04:01:43.8	93.150	-0.680	1.350	1.310
2020/01/31 04:01:43.9	93.130	-0.690	1.300	1.340
2020/01/31 04:01:44.0	93.110	-0.700	1.240	1.360
2020/01/31 04:01:44.1	93.070	-0.700	1.170	1.370
2020/01/31 04:01:44.2	93.050	-0.690	1.080	1.390
2020/01/31 04:01:44.3	93.030	-0.670	0.980	1.390
2020/01/31 04:01:44.4	93.020	-0.650	0.870	1.400
2020/01/31 04:01:44.5	93.000	-0.620	0.750	1.400
2020/01/31 04:01:44.6	92.990	-0.590	0.610	1.390
2020/01/31 04:01:44.7	92.980	-0.550	0.470	1.380
2020/01/31 04:01:44.8	92.970	-0.500	0.320	1.370
2020/01/31 04:01:44.9	92.970	-0.450	0.170	1.350
2020/01/31 04:01:45.0	92.960	-0.400	0.010	1.330
2020/01/31 04:01:45.1	92.960	-0.350	-0.150	1.310
2020/01/31 04:01:45.2	92.960	-0.290	-0.310	1.290
2020/01/31 04:01:45.3	92.950	-0.230	-0.470	1.270
2020/01/31 04:01:45.4	92.950	-0.170	-0.630	1.240
2020/01/31 04:01:45.5	92.950	-0.110	-0.780	1.220
2020/01/31 04:01:45.6	92.940	-0.050	-0.930	1.200
2020/01/31 04:01:45.7	92.940	0.000	-1.070	1.180
2020/01/31 04:01:45.8	92.930	0.050	-1.190	1.160
2020/01/31 04:01:45.9	92.930	0.100	-1.310	1.150
2020/01/31 04:01:46.0	92.920	0.150	-1.410	1.130
2020/01/31 04:01:46.1	92.910	0.190	-1.510	1.120
2020/01/31 04:01:46.2	92.900	0.230	-1.580	1.110
2020/01/31 04:01:46.3	92.900	0.260	-1.650	1.100
2020/01/31 04:01:46.4	92.890	0.280	-1.690	1.100
2020/01/31 04:01:46.5	92.890	0.300	-1.720	1.100
2020/01/31 04:01:46.6	92.880	0.320	-1.740	1.100
2020/01/31 04:01:46.7	92.880	0.330	-1.730	1.100
2020/01/31 04:01:46.8	92.880	0.330	-1.720	1.100
2020/01/31 04:01:46.9	92.870	0.320	-1.680	1.100
2020/01/31 04:01:47.0	92.870	0.310	-1.630	1.110
2020/01/31 04:01:47.1	92.870	0.290	-1.570	1.110
2020/01/31 04:01:47.2	92.870	0.270	-1.490	1.120
2020/01/31 04:01:47.3	92.880	0.240	-1.400	1.120
2020/01/31 04:01:47.4	92.880	0.210	-1.300	1.130
2020/01/31 04:01:47.5	92.880	0.170	-1.190	1.130
2020/01/31 04:01:47.6	92.890	0.130	-1.070	1.140
2020/01/31 04:01:47.7	92.890	0.090	-0.940	1.140
2020/01/31 04:01:47.8	92.900	0.040	-0.800	1.140
2020/01/31 04:01:47.9	92.910	-0.010	-0.660	1.150
2020/01/31 04:01:48.0	92.910	-0.060	-0.520	1.150
2020/01/31 04:01:48.1	92.930	-0.110	-0.370	1.150
2020/01/31 04:01:48.2	92.940	-0.160	-0.220	1.160
2020/01/31 04:01:48.3	92.950	-0.220	-0.070	1.160
2020/01/31 04:01:48.4	92.960	-0.270	0.070	1.170
2020/01/31 04:01:48.5	92.970	-0.320	0.210	1.180
2020/01/31 04:01:48.6	92.980	-0.370	0.350	1.190
2020/01/31 04:01:48.7	92.980	-0.410	0.480	1.200
2020/01/31 04:01:48.8	92.990	-0.460	0.600	1.210
2020/01/31 04:01:48.9	93.000	-0.500	0.710	1.220
2020/01/31 04:01:49.0	93.000	-0.540	0.820	1.240
2020/01/31 04:01:49.1	93.010	-0.570	0.910	1.250
2020/01/31 04:01:49.2	93.010	-0.600	0.990	1.270
2020/01/31 04:01:49.3	93.010	-0.620	1.060	1.290
2020/01/31 04:01:49.4	93.010	-0.640	1.110	1.310
2020/01/31 04:01:49.5	93.010	-0.650	1.150	1.330
2020/01/31 04:01:49.6	93.000	-0.660	1.180	1.340
2020/01/31 04:01:49.7	93.000	-0.660	1.190	1.360
2020/01/31 04:01:49.8	93.000	-0.660	1.190	1.380
2020/01/31 04:01:49.9	92.990	-0.650	1.170	1.390
2020/01/31 04:01:50.0	92.980	-0.630	1.130	1.410
2020/01/31 04:01:50.1	92.990	-0.610	1.090	1.420
2020/01/31 04:01:50.2	92.980	-0.580	1.020	1.420
2020/01/31 04:01:50.3	92.980	-0.540	0.940	1.430
2020/01/31 04:01:50.4	92.980	-0.500	0.850	1.420
2020/01/31 04:01:50.5	92.970	-0.460	0.750	1.420
2020/01/31 04:01:50.6	92.970	-0.410	0.630	1.400
2020/01/31 04:01:50.7	92.970	-0.350	0.510	1.390
2020/01/31 04:01:50.8	92.970	-0.300	0.380	1.360
2020/01/31 04:01:50.9	92.970	-0.230	0.240	1.340
2020/01/31 04:01:51.0	92.970	-0.170	0.090	1.310
2020/01/31 04:01:51.1	92.970	-0.100	-0.060	1.270
2020/01/31 04:01:51.2	92.980	-0.030	-0.210	1.240
2020/01/31 04:01:51.3	92.980	0.040	-0.360	1.200
2020/01/31 04:01:51.4	92.980	0.110	-0.500	1.160
2020/01/31 04:01:51.5	92.980	0.180	-0.640	1.120
2020/01/31 04:01:51.6	92.980	0.250	-0.780	1.080
2020/01/31 04:01:51.7	92.970	0.310	-0.900	1.050
2020/01/31 04:01:51.8	92.970	0.380	-1.020	1.010
2020/01/31 04:01:51.9	92.970	0.440	-1.120	0.980
2020/01/31 04:01:52.0	92.960	0.500	-1.220	0.950
2020/01/31 04:01:52.1	92.960	0.550	-1.290	0.920
2020/01/31 04:01:52.2	92.950	0.590	-1.350	0.890
2020/01/31 04:01:52.3	92.940	0.630	-1.390	0.870
2020/01/31 04:01:52.4	92.930	0.670	-1.420	0.850
2020/01/31 04:01:52.5	92.920	0.700	-1.430	0.840
2020/01/31 04:01:52.6	92.900	0.710	-1.430	0.830
2020/01/31 04:01:52.7	92.890	0.730	-1.400	0.820
2020/01/31 04:01:52.8	92.870	0.730	-1.360	0.820
2020/01/31 04:01:52.9	92.860	0.730	-1.300	0.820
2020/01/31 04:01:53.0	92.840	0.720	-1.230	0.820
2020/01/31 04:01:53.1	92.820	0.700	-1.150	0.820
2020/01/31 04:01:53.2	92.800	0.670	-1.050	0.830
2020/01/31 04:01:53.3	92.790	0.640	-0.940	0.840
2020/01/31 04:01:53.4	92.770	0.600	-0.820	0.850
2020/01/31 04:01:53.5	92.750	0.550	-0.700	0.850
2020/01/31 04:01:53.6	92.730	0.500	-0.560	0.860
2020/01/31 04:01:53.7	92.710	0.450	-0.430	0.870
2020/01/31 04:01:53.8	92.700	0.390	-0.290	0.880
2020/01/31 04:01:53.9	92.680	0.330	-0.150	0.880
2020/01/31 04:01:54.0	92.670	0.260	-0.010	0.880
2020/01/31 04:01:54.1	92.640	0.190	0.130	0.880
2020/01/31 04:01:54.2	92.630	0.120	0.260	0.880
2020/01/31 04:01:54.3	92.620	0.060	0.380	0.870
2020/01/31 04:01:54.4	92.610	-0.010	0.500	0.850
2020/01/31 04:01:54.5	92.600	-0.080	0.610	0.830
2020/01/31 04:01:54.6	92.600	-0.140	0.700	0.810
2020/01/31 04:01:54.7	92.590	-0.200	0.790	0.790
2020/01/31 04:01:54.8	92.590	-0.250	0.860	0.760
2020/01/31 04:01:54.9	92.590	-0.300	0.920	0.720
2020/01/31 04:01:55.0	92.590	-0.350	0.960	0.690
2020/01/31 04:01:55.1	92.580	-0.380	0.990	0.650
2020/01/31 04:01:55.2	92.590	-0.410	1.000	0.610
2020/01/31 04:01:55.3	92.590	-0.430	0.990	0.570
2020/01/31 04:01:55.4	92.600	-0.440	0.970	0.530
2020/01/31 04:01:55.5	92.610	-0.450	0.920	0.490
2020/01/31 04:01:55.6	92.620	-0.440	0.860	0.460
2020/01/31 04:01:55.7	92.630	-0.420	0.790	0.420
2020/01/31 04:01:55.8	92.650	-0.390	0.690	0.390
2020/01/31 04:01:55.9	92.660	-0.360	0.590	0.360
2020/01/31 04:01:56.0	92.670	-0.310	0.460	0.340
2020/01/31 04:01:56.1	92.680	-0.250	0.330	0.320
2020/01/31 04:01:56.2	92.690	-0.190	0.180	0.310
2020/01/31 04:01:56.3	92.710	-0.120	0.020	0.310
2020/01/31 04:01:56.4	92.720	-0.040	-0.140	0.300
2020/01/31 04:01:56.5	92.720	0.040	-0.310	0.310
2020/01/31 04:01:56.6	92.730	0.130	-0.470	0.320
2020/01/31 04:01:56.7	92.740	0.220	-0.640	0.330
2020/01/31 04:01:56.8	92.740	0.310	-0.810	0.350
2020/01/31 04:01:56.9	92.740	0.400	-0.970	0.370
2020/01/31 04:01:57.0	92.740	0.490	-1.130	0.390
2020/01/31 04:01:57.1	92.740	0.580	-1.280	0.410
2020/01/31 04:01:57.2	92.730	0.670	-1.420	0.440
2020/01/31 04:01:57.3	92.730	0.750	-1.540	0.460
2020/01/31 04:01:57.4	92.720	0.820	-1.640	0.480
2020/01/31 04:01:57.5	92.710	0.890	-1.730	0.500
2020/01/31 04:01:57.6	92.700	0.950	-1.800	0.530
2020/01/31 04:01:57.7	92.690	1.000	-1.860	0.550
2020/01/31 04:01:57.8	92.670	1.040	-1.890	0.580
2020/01/31 04:01:57.9	92.660	1.070	-1.900	0.610
2020/01/31 04:01:58.0	92.640	1.090	-1.890	0.640
2020/01/31 04:01:58.1	92.610	1.100	-1.860	0.670
2020/01/31 04:01:58.2	92.590	1.090	-1.810	0.700
2020/01/31 04:01:58.3	92.570	1.080	-1.750	0.740
2020/01/31 04:01:58.4	92.550	1.050	-1.660	0.790
2020/01/31 04:01:58.5	92.530	1.010	-1.550	0.830
2020/01/31 04:01:58.6	92.510	0.960	-1.420	0.880
2020/01/31 04:01:58.7	92.490	0.900	-1.280	0.930
2020/01/31 04:01:58.8	92.480	0.830	-1.120	0.980
2020/01/31 04:01:58.9	92.460	0.750	-0.950	1.040
2020/01/31 04:01:59.0	92.440	0.660	-0.770	1.090
2020/01/31 04:01:59.1	92.440	0.570	-0.570	1.150
2020/01/31 04:01:59.2	92.420	0.460	-0.370	1.210
2020/01/31 04:01:59.3	92.410	0.350	-0.170	1.270
2020/01/31 04:01:59.4	92.400	0.230	0.040	1.330
2020/01/31 04:01:59.5	92.400	0.110	0.240	1.390
2020/01/31 04:01:59.6	92.390	-0.020	0.450	1.450
2020/01/31 04:01:59.7	92.390	-0.150	0.650	1.500
2020/01/31 04:01:59.8	92.400	-0.280	0.850	1.550
2020/01/31 04:01:59.9	92.400	-0.410	1.040	1.590
2020/01/31 04:02:00.0	92.410	-0.540	1.220	1.630
2020/01/31 04:02:00.1	92.420	-0.670	1.380	1.670
2020/01/31 04:02:00.2	92.430	-0.790	1.540	1.700
2020/01/31 04:02:00.3	92.450	-0.910	1.680	1.720
2020/01/31 04:02:00.4	92.460	-1.020	1.800	1.730
2020/01/31 04:02:00.5	92.480	-1.130	1.910	1.730
2020/01/31 04:02:00.6	92.510	-1.230	2.000	1.730
2020/01/31 04:02:00.7	92.530	-1.320	2.070	1.720
2020/01/31 04:02:00.8	92.560	-1.410	2.120	1.700
2020/01/31 04:02:00.9	92.590	-1.480	2.150	1.670
2020/01/31 04:02:01.0	92.620	-1.540	2.160	1.640
2020/01/31 04:02:01.1	92.640	-1.600	2.150	1.600
2020/01/31 04:02:01.2	92.680	-1.640	2.120	1.550
2020/01/31 04:02:01.3	92.710	-1.670	2.070	1.510
2020/01/31 04:02:01.4	92.740	-1.680	2.000	1.450
2020/01/31 04:02:01.5	92.770	-1.690	1.910	1.400
2020/01/31 04:02:01.6	92.800	-1.680	1.800	1.340
2020/01/31 04:02:01.7	92.830	-1.660	1.670	1.280
2020/01/31 04:02:01.8	92.850	-1.630	1.530	1.220
2020/01/31 04:02:01.9	92.880	-1.590	1.370	1.160
2020/01/31 04:02:02.0	92.900	-1.530	1.200	1.100
2020/01/31 04:02:02.1	92.910	-1.470	1.010	1.050
2020/01/31 04:02:02.2	92.930	-1.390	0.820	1.000
2020/01/31 04:02:02.3	92.940	-1.300	0.610	0.960
2020/01/31 04:02:02.4	92.950	-1.210	0.410	0.910
2020/01/31 04:02:02.5	92.960	-1.110	0.190	0.880
2020/01/31 04:02:02.6	92.960	-1.000	-0.020	0.850
2020/01/31 04:02:02.7	92.960	-0.880	-0.230	0.830
2020/01/31 04:02:02.8	92.960	-0.770	-0.450	0.810
2020/01/31 04:02:02.9	92.960	-0.640	-0.650	0.800
2020/01/31 04:02:03.0	92.950	-0.520	-0.850	0.800
2020/01/31 04:02:03.1	92.940	-0.390	-1.060	0.790
2020/01/31 04:02:03.2	92.930	-0.270	-1.240	0.790
2020/01/31 04:02:03.3	92.920	-0.140	-1.410	0.800
2020/01/31 04:02:03.4	92.910	-0.020	-1.570	0.800
2020/01/31 04:02:03.5	92.900	0.100	-1.720	0.810
2020/01/31 04:02:03.6	92.890	0.220	-1.850	0.810
2020/01/31 04:02:03.7	92.880	0.330	-1.960	0.820
2020/01/31 04:02:03.8	92.870	0.440	-2.050	0.820
2020/01/31 04:02:03.9	92.850	0.540	-2.130	0.830
2020/01/31 04:02:04.0	92.840	0.630	-2.190	0.830
2020/01/31 04:02:04.1	92.830	0.720	-2.230	0.840
2020/01/31 04:02:04.2	92.820	0.790	-2.250	0.840
2020/01/31 04:02:04.3	92.810	0.860	-2.250	0.840
2020/01/31 04:02:04.4	92.790	0.920	-2.240	0.840
2020/01/31 04:02:04.5	92.780	0.970	-2.210	0.840
2020/01/31 04:02:04.6	92.770	1.010	-2.160	0.840
2020/01/31 04:02:04.7	92.750	1.040	-2.100	0.830
2020/01/31 04:02:04.8	92.740	1.060	-2.020	0.830
2020/01/31 04:02:04.9	92.720	1.070	-1.930	0.830
2020/01/31 04:02:05.0	92.710	1.070	-1.820	0.820
2020/01/31 04:02:05.1	92.710	1.070	-1.700	0.810
2020/01/31 04:02:05.2	92.690	1.050	-1.580	0.810
2020/01/31 04:02:05.3	92.670	1.030	-1.440	0.800
2020/01/31 04:02:05.4	92.650	1.000	-1.300	0.790
2020/01/31 04:02:05.5	92.620	0.960	-1.160	0.780
2020/01/31 04:02:05.6	92.600	0.920	-1.000	0.780
2020/01/31 04:02:05.7	92.580	0.870	-0.850	0.770
2020/01/31 04:02:05.8	92.550	0.820	-0.700	0.760
2020/01/31 04:02:05.9	92.520	0.760	-0.540	0.750
2020/01/31 04:02:06.0	92.500	0.700	-0.390	0.740
2020/01/31 04:02:06.1	92.470	0.630	-0.240	0.730
2020/01/31 04:02:06.2	92.440	0.570	-0.090	0.720
2020/01/31 04:02:06.3	92.410	0.500	0.040	0.700
2020/01/31 04:02:06.4	92.380	0.440	0.180	0.680
2020/01/31 04:02:06.5	92.350	0.370	0.300	0.670
2020/01/31 04:02:06.6	92.330	0.310	0.420	0.650
2020/01/31 04:02:06.7	92.290	0.250	0.530	0.630
2020/01/31 04:02:06.8	92.260	0.190	0.630	0.610
2020/01/31 04:02:06.9	92.230	0.130	0.720	0.590
2020/01/31 04:02:07.0	92.200	0.070	0.800	0.560
2020/01/31 04:02:07.1	92.170	0.020	0.870	0.530
2020/01/31 04:02:07.2	92.140	-0.020	0.920	0.510
2020/01/31 04:02:07.3	92.110	-0.060	0.970	0.480
2020/01/31 04:02:07.4	92.080	-0.100	1.000	0.450
2020/01/31 04:02:07.5	92.050	-0.130	1.020	0.430
2020/01/31 04:02:07.6	92.020	-0.160	1.030	0.400
2020/01/31 04:02:07.7	92.000	-0.180	1.020	0.370
2020/01/31 04:02:07.8	91.970	-0.200	1.010	0.340
2020/01/31 04:02:07.9	91.950	-0.210	0.980	0.310
2020/01/31 04:02:08.0	91.920	-0.210	0.940	0.290
2020/01/31 04:02:08.1	91.890	-0.210	0.890	0.260
2020/01/31 04:02:08.2	91.870	-0.210	0.830	0.220
2020/01/31 04:02:08.3	91.860	-0.200	0.760	0.190
2020/01/31 04:02:08.4	91.850	-0.180	0.690	0.160
2020/01/31 04:02:08.5	91.840	-0.160	0.600	0.120
2020/01/31 04:02:08.6	91.840	-0.140	0.510	0.090
2020/01/31 04:02:08.7	91.850	-0.110	0.410	0.050
2020/01/31 04:02:08.8	91.860	-0.080	0.300	0.020
2020/01/31 04:02:08.9	91.870	-0.040	0.190	-0.020
2020/01/31 04:02:09.0	91.890	-0.010	0.080	-0.060
2020/01/31 04:02:09.1	91.910	0.030	-0.040	-0.090
2020/01/31 04:02:09.2	91.930	0.070	-0.160	-0.120
2020/01/31 04:02:09.3	91.960	0.110	-0.270	-0.150
2020/01/31 04:02:09.4	92.000	0.150	-0.380	-0.180
2020/01/31 04:02:09.5	92.030	0.190	-0.490	-0.200
2020/01/31 04:02:09.6	92.070	0.230	-0.590	-0.220
2020/01/31 04:02:09.7	92.110	0.270	-0.680	-0.230
2020/01/31 04:02:09.8	92.150	0.300	-0.770	-0.240
2020/01/31 04:02:09.9	92.190	0.330	-0.840	-0.240
2020/01/31 04:02:10.0	92.230	0.360	-0.910	-0.240
2020/01/31 04:02:10.1	92.280	0.380	-0.970	-0.230
2020/01/31 04:02:10.2	92.320	0.400	-1.010	-0.220
2020/01/31 04:02:10.3	92.360	0.420	-1.040	-0.200
2020/01/31 04:02:10.4	92.400	0.430	-1.060	-0.180
2020/01/31 04:02:10.5	92.430	0.440	-1.060	-0.150
2020/01/31 04:02:10.6	92.470	0.440	-1.060	-0.120
2020/01/31 04:02:10.7	92.500	0.430	-1.040	-0.080
2020/01/31 04:02:10.8	92.530	0.430	-1.000	-0.040
2020/01/31 04:02:10.9	92.560	0.410	-0.960	0.000
2020/01/31 04:02:11.0	92.590	0.390	-0.900	0.050
2020/01/31 04:02:11.1	92.600	0.370	-0.840	0.100
2020/01/31 04:02:11.2	92.620	0.340	-0.760	0.150
2020/01/31 04:02:11.3	92.640	0.310	-0.680	0.210
2020/01/31 04:02:11.4	92.650	0.270	-0.590	0.270
2020/01/31 04:02:11.5	92.660	0.230	-0.500	0.330
2020/01/31 04:02:11.6	92.670	0.180	-0.400	0.390
2020/01/31 04:02:11.7	92.670	0.140	-0.290	0.450
2020/01/31 04:02:11.8	92.670	0.090	-0.190	0.520
2020/01/31 04:02:11.9	92.660	0.040	-0.090	0.580
2020/01/31 04:02:12.0	92.650	-0.010	0.010	0.650
2020/01/31 04:02:12.1	92.640	-0.060	0.120	0.710
2020/01/31 04:02:12.2	92.620	-0.110	0.220	0.780
2020/01/31 04:02:12.3	92.600	-0.160	0.310	0.850
2020/01/31 04:02:12.4	92.580	-0.210	0.390	0.920
2020/01/31 04:02:12.5	92.560	-0.250	0.470	0.980
2020/01/31 04:02:12.6	92.530	-0.300	0.540	1.050
2020/01/31 04:02:12.7	92.500	-0.340	0.600	1.120
2020/01/31 04:02:12.8	92.470	-0.380	0.650	1.180
2020/01/31 04:02:12.9	92.430	-0.410	0.700	1.250
2020/01/31 04:02:13.0	92.390	-0.440	0.740	1.310
2020/01/31 04:02:13.1	92.360	-0.470	0.760	1.370
2020/01/31 04:02:13.2	92.310	-0.490	0.780	1.430
2020/01/31 04:02:13.3	92.270	-0.510	0.790	1.490
2020/01/31 04:02:13.4	92.220	-0.520	0.790	1.540
2020/01/31 04:02:13.5	92.170	-0.530	0.770	1.590
2020/01/31 04:02:13.6	92.120	-0.540	0.750	1.630
2020/01/31 04:02:13.7	92.070	-0.540	0.720	1.670
2020/01/31 04:02:13.8	92.020	-0.530	0.680	1.710
2020/01/31 04:02:13.9	91.970	-0.520	0.630	1.740
2020/01/31 04:02:14.0	91.930	-0.500	0.570	1.760
2020/01/31 04:02:14.1	91.900	-0.480	0.500	1.780
2020/01/31 04:02:14.2	91.860	-0.460	0.420	1.780
2020/01/31 04:02:14.3	91.820	-0.430	0.340	1.780
2020/01/31 04:02:14.4	91.790	-0.390	0.250	1.780
2020/01/31 04:02:14.5	91.760	-0.350	0.150	1.760
2020/01/31 04:02:14.6	91.740	-0.310	0.050	1.740
2020/01/31 04:02:14.7	91.720	-0.260	-0.060	1.710
2020/01/31 04:02:14.8	91.700	-0.210	-0.170	1.680
2020/01/31 04:02:14.9	91.700	-0.160	-0.280	1.630
2020/01/31 04:02:15.0	91.690	-0.110	-0.390	1.590
2020/01/31 04:02:15.1	91.710	-0.050	-0.500	1.530
2020/01/31 04:02:15.2	91.720	0.010	-0.620	1.470
2020/01/31 04:02:15.3	91.730	0.060	-0.720	1.410
2020/01/31 04:02:15.4	91.750	0.120	-0.830	1.340
2020/01/31 04:02:15.5	91.770	0.180	-0.930	1.270
2020/01/31 04:02:15.6	91.800	0.230	-1.020	1.200
2020/01/31 04:02:15.7	91.830	0.280	-1.110	1.130
2020/01/31 04:02:15.8	91.860	0.330	-1.190	1.060
2020/01/31 04:02:15.9	91.900	0.380	-1.250	1.000
2020/01/31 04:02:16.0	91.940	0.420	-1.310	0.930
2020/01/31 04:02:16.1	91.990	0.450	-1.360	0.870
2020/01/31 04:02:16.2	92.030	0.480	-1.390	0.810
2020/01/31 04:02:16.3	92.070	0.510	-1.410	0.760
2020/01/31 04:02:16.4	92.110	0.530	-1.410	0.710
2020/01/31 04:02:16.5	92.150	0.540	-1.400	0.660
2020/01/31 04:02:16.6	92.180	0.550	-1.370	0.620
2020/01/31 04:02:16.7	92.220	0.550	-1.340	0.580
2020/01/31 04:02:16.8	92.250	0.540	-1.280	0.550
2020/01/31 04:02:16.9	92.280	0.520	-1.220	0.520
2020/01/31 04:02:17.0	92.310	0.500	-1.140	0.490
2020/01/31 04:02:17.1	92.320	0.470	-1.050	0.470
2020/01/31 04:02:17.2	92.340	0.440	-0.950	0.460
2020/01/31 04:02:17.3	92.360	0.400	-0.840	0.450
2020/01/31 04:02:17.4	92.370	0.350	-0.720	0.440
2020/01/31 04:02:17.5	92.380	0.300	-0.590	0.440
2020/01/31 04:02:17.6	92.390	0.240	-0.460	0.440
2020/01/31 04:02:17.7	92.390	0.180	-0.330	0.450
2020/01/31 04:02:17.8	92.390	0.120	-0.190	0.460
2020/01/31 04:02:17.9	92.390	0.050	-0.060	0.480
2020/01/31 04:02:18.0	92.380	-0.010	0.080	0.490
2020/01/31 04:02:18.1	92.350	-0.080	0.210	0.510
2020/01/31 04:02:18.2	92.340	-0.150	0.340	0.540
2020/01/31 04:02:18.3	92.330	-0.220	0.460	0.570
2020/01/31 04:02:18.4	92.310	-0.280	0.580	0.590
2020/01/31 04:02:18.5	92.290	-0.350	0.680	0.620
2020/01/31 04:02:18.6	92.280	-0.410	0.780	0.660
2020/01/31 04:02:18.7	92.260	-0.470	0.860	0.690
2020/01/31 04:02:18.8	92.240	-0.520	0.940	0.730
2020/01/31 04:02:18.9	92.220	-0.570	1.000	0.760
2020/01/31 04:02:19.0	92.200	-0.620	1.050	0.800
2020/01/31 04:02:19.1	92.170	-0.660	1.090	0.840
2020/01/31 04:02:19.2	92.150	-0.690	1.110	0.870
2020/01/31 04:02:19.3	92.130	-0.720	1.120	0.910
2020/01/31 04:02:19.4	92.110	-0.740	1.110	0.940
2020/01/31 04:02:19.5	92.100	-0.760	1.090	0.980
2020/01/31 04:02:19.6	92.080	-0.770	1.060	1.010
2020/01/31 04:02:19.7	92.070	-0.770	1.010	1.040
2020/01/31 04:02:19.8	92.060	-0.760	0.960	1.070
2020/01/31 04:02:19.9	92.040	-0.750	0.890	1.100
2020/01/31 04:02:20.0	92.030	-0.740	0.810	1.120
2020/01/31 04:02:20.1	92.030	-0.710	0.720	1.140
2020/01/31 04:02:20.2	92.020	-0.680	0.630	1.160
2020/01/31 04:02:20.3	92.010	-0.650	0.520	1.170
2020/01/31 04:02:20.4	92.000	-0.610	0.410	1.180
2020/01/31 04:02:20.5	91.990	-0.570	0.300	1.180
2020/01/31 04:02:20.6	91.990	-0.520	0.180	1.180
2020/01/31 04:02:20.7	91.980	-0.460	0.050	1.180
2020/01/31 04:02:20.8	91.980	-0.410	-0.080	1.160
2020/01/31 04:02:20.9	91.980	-0.350	-0.200	1.140
2020/01/31 04:02:21.0	91.970	-0.280	-0.330	1.120
2020/01/31 04:02:21.1	91.970	-0.220	-0.460	1.090
2020/01/31 04:02:21.2	91.970	-0.150	-0.590	1.060
2020/01/31 04:02:21.3	91.970	-0.080	-0.710	1.030
2020/01/31 04:02:21.4	91.970	-0.010	-0.830	0.980
2020/01/31 04:02:21.5	91.970	0.060	-0.940	0.940
2020/01/31 04:02:21.6	91.970	0.120	-1.040	0.900
2020/01/31 04:02:21.7	91.970	0.190	-1.140	0.860
2020/01/31 04:02:21.8	91.970	0.260	-1.220	0.810
2020/01/31 04:02:21.9	91.970	0.330	-1.300	0.760
2020/01/31 04:02:22.0	91.960	0.390	-1.370	0.720
2020/01/31 04:02:22.1	91.970	0.460	-1.420	0.680
2020/01/31 04:02:22.2	91.970	0.520	-1.470	0.630
2020/01/31 04:02:22.3	91.970	0.580	-1.500	0.600
2020/01/31 04:02:22.4	91.960	0.630	-1.520	0.560
2020/01/31 04:02:22.5	91.960	0.680	-1.530	0.530
2020/01/31 04:02:22.6	91.950	0.730	-1.530	0.500
2020/01/31 04:02:22.7	91.950	0.770	-1.510	0.480
2020/01/31 04:02:22.8	91.940	0.810	-1.490	0.450
2020/01/31 04:02:22.9	91.940	0.850	-1.460	0.440
2020/01/31 04:02:23.0	91.940	0.880	-1.410	0.420
2020/01/31 04:02:23.1	91.930	0.900	-1.360	0.420
2020/01/31 04:02:23.2	91.930	0.930	-1.300	0.410
2020/01/31 04:02:23.3	91.930	0.940	-1.230	0.410
2020/01/31 04:02:23.4	91.930	0.960	-1.160	0.410
2020/01/31 04:02:23.5	91.930	0.970	-1.080	0.410
2020/01/31 04:02:23.6	91.930	0.970	-1.000	0.410
2020/01/31 04:02:23.7	91.930	0.970	-0.910	0.420
2020/01/31 04:02:23.8	91.930	0.970	-0.820	0.430
2020/01/31 04:02:23.9	91.930	0.960	-0.730	0.430
2020/01/31 04:02:24.0	91.940	0.950	-0.630	0.440
2020/01/31 04:02:24.1	91.940	0.930	-0.540	0.450
2020/01/31 04:02:24.2	91.950	0.910	-0.450	0.460
2020/01/31 04:02:24.3	91.960	0.880	-0.360	0.460
2020/01/31 04:02:24.4	91.960	0.860	-0.270	0.470
2020/01/31 04:02:24.5	91.970	0.830	-0.180	0.470
2020/01/31 04:02:24.6	91.980	0.790	-0.100	0.480
2020/01/31 04:02:24.7	91.990	0.760	-0.020	0.480
2020/01/31 04:02:24.8	92.000	0.720	0.060	0.480
2020/01/31 04:02:24.9	92.010	0.680	0.130	0.480
2020/01/31 04:02:25.0	92.030	0.630	0.190	0.470
2020/01/31 04:02:25.1	92.030	0.590	0.250	0.470
2020/01/31 04:02:25.2	92.050	0.540	0.310	0.470
2020/01/31 04:02:25.3	92.070	0.500	0.360	0.460
2020/01/31 04:02:25.4	92.080	0.450	0.410	0.460
2020/01/31 04:02:25.5	92.100	0.400	0.450	0.460
2020/01/31 04:02:25.6	92.120	0.350	0.490	0.460
2020/01/31 04:02:25.7	92.140	0.300	0.520	0.460
2020/01/31 04:02:25.8	92.160	0.250	0.550	0.460
2020/01/31 04:02:25.9	92.170	0.200	0.580	0.470
2020/01/31 04:02:26.0	92.190	0.150	0.600	0.480
2020/01/31 04:02:26.1	92.210	0.090	0.620	0.490
2020/01/31 04:02:26.2	92.220	0.040	0.640	0.500
2020/01/31 04:02:26.3	92.240	-0.010	0.650	0.520
2020/01/31 04:02:26.4	92.250	-0.060	0.660	0.550
2020/01/31 04:02:26.5	92.260	-0.110	0.670	0.570
2020/01/31 04:02:26.6	92.270	-0.160	0.680	0.600
2020/01/31 04:02:26.7	92.280	-0.210	0.680	0.630
2020/01/31 04:02:26.8	92.290	-0.260	0.680	0.660
2020/01/31 04:02:26.9	92.300	-0.300	0.680	0.700
2020/01/31 04:02:27.0	92.310	-0.350	0.680	0.740
2020/01/31 04:02:27.1	92.340	-0.390	0.670	0.770
2020/01/31 04:02:27.2	92.350	-0.440	0.660	0.810
2020/01/31 04:02:27.3	92.350	-0.480	0.650	0.850
2020/01/31 04:02:27.4	92.360	-0.520	0.640	0.890
2020/01/31 04:02:27.5	92.360	-0.560	0.620	0.930
2020/01/31 04:02:27.6	92.370	-0.600	0.600	0.970
2020/01/31 04:02:27.7	92.370	-0.630	0.580	1.020
2020/01/31 04:02:27.8	92.370	-0.660	0.550	1.060
2020/01/31 04:02:27.9	92.380	-0.690	0.520	1.100
2020/01/31 04:02:28.0	92.380	-0.720	0.490	1.140
2020/01/31 04:02:28.1	92.380	-0.740	0.450	1.180
2020/01/31 04:02:28.2	92.380	-0.770	0.410	1.220
2020/01/31 04:02:28.3	92.380	-0.790	0.370	1.260
2020/01/31 04:02:28.4	92.380	-0.800	0.330	1.290
2020/01/31 04:02:28.5	92.380	-0.820	0.280	1.320
2020/01/31 04:02:28.6	92.370	-0.830	0.230	1.350
2020/01/31 04:02:28.7	92.370	-0.840	0.180	1.380
2020/01/31 04:02:28.8	92.370	-0.840	0.120	1.410
2020/01/31 04:02:28.9	92.370	-0.840	0.060	1.430
2020/01/31 04:02:29.0	92.370	-0.840	0.010	1.450
2020/01/31 04:02:29.1	92.340	-0.840	-0.060	1.460
2020/01/31 04:02:29.2	92.340	-0.830	-0.120	1.480
2020/01/31 04:02:29.3	92.350	-0.820	-0.190	1.480
2020/01/31 04:02:29.4	92.350	-0.810	-0.260	1.490
2020/01/31 04:02:29.5	92.360	-0.790	-0.320	1.490
2020/01/31 04:02:29.6	92.360	-0.770	-0.390	1.490
2020/01/31 04:02:29.7	92.370	-0.750	-0.460	1.490
2020/01/31 04:02:29.8	92.380	-0.720	-0.530	1.480
2020/01/31 04:02:29.9	92.400	-0.690	-0.600	1.460
2020/01/31 04:02:30.0	92.410	-0.650	-0.670	1.450
2020/01/31 04:02:30.1	92.430	-0.620	-0.740	1.430
2020/01/31 04:02:30.2	92.450	-0.580	-0.810	1.410
2020/01/31 04:02:30.3	92.470	-0.530	-0.880	1.380
2020/01/31 04:02:30.4	92.490	-0.490	-0.950	1.360
2020/01/31 04:02:30.5	92.510	-0.440	-1.010	1.330
2020/01/31 04:02:30.6	92.540	-0.390	-1.070	1.300
2020/01/31 04:02:30.7	92.560	-0.340	-1.130	1.280
2020/01/31 04:02:30.8	92.590	-0.280	-1.180	1.250
2020/01/31 04:02:30.9	92.610	-0.220	-1.230	1.220
2020/01/31 04:02:31.0	92.640	-0.170	-1.270	1.190
2020/01/31 04:02:31.1	92.670	-0.110	-1.300	1.170
2020/01/31 04:02:31.2	92.700	-0.050	-1.330	1.140
2020/01/31 04:02:31.3	92.720	0.010	-1.360	1.120
2020/01/31 04:02:31.4	92.740	0.070	-1.370	1.090
2020/01/31 04:02:31.5	92.770	0.130	-1.380	1.070
2020/01/31 04:02:31.6	92.780	0.180	-1.370	1.050
2020/01/31 04:02:31.7	92.800	0.230	-1.360	1.030
2020/01/31 04:02:31.8	92.820	0.290	-1.340	1.010
2020/01/31 04:02:31.9	92.830	0.330	-1.310	0.990
2020/01/31 04:02:32.0	92.840	0.380	-1.270	0.970
2020/01/31 04:02:32.1	92.860	0.420	-1.220	0.960
2020/01/31 04:02:32.2	92.860	0.450	-1.160	0.940
2020/01/31 04:02:32.3	92.860	0.480	-1.100	0.920
2020/01/31 04:02:32.4	92.860	0.510	-1.020	0.900
2020/01/31 04:02:32.5	92.860	0.530	-0.940	0.880
2020/01/31 04:02:32.6	92.850	0.550	-0.860	0.860
2020/01/31 04:02:32.7	92.850	0.560	-0.760	0.840
2020/01/31 04:02:32.8	92.830	0.560	-0.660	0.820
2020/01/31 04:02:32.9	92.820	0.560	-0.560	0.790
2020/01/31 04:02:33.0	92.800	0.560	-0.460	0.770
2020/01/31 04:02:33.1	92.780	0.550	-0.340	0.740
2020/01/31 04:02:33.2	92.760	0.530	-0.240	0.710
2020/01/31 04:02:33.3	92.730	0.520	-0.130	0.680
2020/01/31 04:02:33.4	92.710	0.490	-0.030	0.650
2020/01/31 04:02:33.5	92.680	0.470	0.080	0.620
2020/01/31 04:02:33.6	92.660	0.440	0.170	0.580
2020/01/31 04:02:33.7	92.630	0.410	0.270	0.550
2020/01/31 04:02:33.8	92.600	0.380	0.360	0.510
2020/01/31 04:02:33.9	92.570	0.340	0.440	0.480
2020/01/31 04:02:34.0	92.550	0.310	0.520	0.440
2020/01/31 04:02:34.1	92.520	0.270	0.580	0.400
2020/01/31 04:02:34.2	92.490	0.240	0.640	0.360
2020/01/31 04:02:34.3	92.470	0.210	0.700	0.330
2020/01/31 04:02:34.4	92.440	0.170	0.740	0.290
2020/01/31 04:02:34.5	92.420	0.140	0.770	0.250
2020/01/31 04:02:34.6	92.400	0.110	0.800	0.210
2020/01/31 04:02:34.7	92.380	0.090	0.810	0.170
2020/01/31 04:02:34.8	92.360	0.070	0.820	0.140
2020/01/31 04:02:34.9	92.350	0.050	0.820	0.100
2020/01/31 04:02:35.0	92.330	0.030	0.810	0.070
2020/01/31 04:02:35.1	92.310	0.020	0.790	0.030
2020/01/31 04:02:35.2	92.300	0.010	0.760	-0.000
2020/01/31 04:02:35.3	92.290	0.010	0.720	-0.030
2020/01/31 04:02:35.4	92.290	0.010	0.680	-0.060
2020/01/31 04:02:35.5	92.280	0.010	0.620	-0.090
2020/01/31 04:02:35.6	92.280	0.020	0.570	-0.120
2020/01/31 04:02:35.7	92.280	0.030	0.500	-0.140
2020/01/31 04:02:35.8	92.280	0.040	0.430	-0.170
2020/01/31 04:02:35.9	92.290	0.060	0.360	-0.200
2020/01/31 04:02:36.0	92.300	0.080	0.280	-0.220
2020/01/31 04:02:36.1	92.300	0.100	0.200	-0.240
2020/01/31 04:02:36.2	92.310	0.120	0.110	-0.270
2020/01/31 04:02:36.3	92.330	0.140	0.030	-0.290
2020/01/31 04:02:36.4	92.350	0.170	-0.060	-0.310
2020/01/31 04:02:36.5	92.370	0.190	-0.140	-0.330
2020/01/31 04:02:36.6	92.390	0.220	-0.230	-0.350
2020/01/31 04:02:36.7	92.410	0.240	-0.310	-0.370
2020/01/31 04:02:36.8	92.440	0.270	-0.390	-0.390
2020/01/31 04:02:36.9	92.460	0.290	-0.470	-0.400
2020/01/31 04:02:37.0	92.490	0.310	-0.540	-0.420
2020/01/31 04:02:37.1	92.510	0.330	-0.620	-0.430
2020/01/31 04:02:37.2	92.540	0.350	-0.680	-0.440
2020/01/31 04:02:37.3	92.570	0.370	-0.740	-0.450
2020/01/31 04:02:37.4	92.600	0.380	-0.790	-0.450
2020/01/31 04:02:37.5	92.620	0.400	-0.840	-0.450
2020/01/31 04:02:37.6	92.650	0.410	-0.880	-0.450
2020/01/31 04:02:37.7	92.670	0.410	-0.910	-0.440
2020/01/31 04:02:37.8	92.690	0.420	-0.930	-0.430
2020/01/31 04:02:37.9	92.710	0.420	-0.950	-0.410
2020/01/31 04:02:38.0	92.730	0.420	-0.960	-0.390
2020/01/31 04:02:38.1	92.740	0.420	-0.950	-0.360
2020/01/31 04:02:38.2	92.760	0.410	-0.950	-0.330
2020/01/31 04:02:38.3	92.770	0.400	-0.930	-0.290
2020/01/31 04:02:38.4	92.790	0.390	-0.910	-0.250
2020/01/31 04:02:38.5	92.800	0.370	-0.880	-0.200
2020/01/31 04:02:38.6	92.810	0.350	-0.850	-0.150
2020/01/31 04:02:38.7	92.820	0.330	-0.810	-0.090
2020/01/31 04:02:38.8	92.820	0.310	-0.760	-0.030
2020/01/31 04:02:38.9	92.830	0.290	-0.720	0.040
2020/01/31 04:02:39.0	92.840	0.260	-0.660	0.110
2020/01/31 04:02:39.1	92.850	0.230	-0.610	0.190
2020/01/31 04:02:39.2	92.860	0.200	-0.550	0.270
2020/01/31 04:02:39.3	92.860	0.170	-0.490	0.360
2020/01/31 04:02:39.4	92.860	0.140	-0.430	0.440
2020/01/31 04:02:39.5	92.870	0.110	-0.370	0.530
2020/01/31 04:02:39.6	92.870	0.070	-0.310	0.620
2020/01/31 04:02:39.7	92.870	0.040	-0.250	0.710
2020/01/31 04:02:39.8	92.870	0.010	-0.190	0.800
2020/01/31 04:02:39.9	92.880	-0.030	-0.130	0.890
2020/01/31 04:02:40.0	92.880	-0.060	-0.070	0.980
2020/01/31 04:02:40.1	92.890	-0.090	-0.020	1.070
2020/01/31 04:02:40.2	92.890	-0.130	0.030	1.150
2020/01/31 04:02:40.3	92.890	-0.160	0.080	1.230
2020/01/31 04:02:40.4	92.900	-0.180	0.120	1.300
2020/01/31 04:02:40.5	92.900	-0.210	0.150	1.370
2020/01/31 04:02:40.6	92.900	-0.240	0.180	1.440
2020/01/31 04:02:40.7	92.900	-0.260	0.200	1.500
2020/01/31 04:02:40.8	92.900	-0.280	0.220	1.550
2020/01/31 04:02:40.9	92.900	-0.300	0.240	1.600
2020/01/31 04:02:41.0	92.900	-0.320	0.240	1.650
2020/01/31 04:02:41.1	92.910	-0.340	0.240	1.680
2020/01/31 04:02:41.2	92.910	-0.350	0.240	1.720
2020/01/31 04:02:41.3	92.900	-0.360	0.240	1.750
2020/01/31 04:02:41.4	92.900	-0.370	0.230	1.770
2020/01/31 04:02:41.5	92.890	-0.370	0.220	1.800
2020/01/31 04:02:41.6	92.890	-0.380	0.200	1.820
2020/01/31 04:02:41.7	92.880	-0.380	0.180	1.840
2020/01/31 04:02:41.8	92.860	-0.380	0.170	1.850
2020/01/31 04:02:41.9	92.850	-0.380	0.140	1.870
2020/01/31 04:02:42.0	92.840	-0.370	0.120	1.880
2020/01/31 04:02:42.1	92.830	-0.370	0.100	1.890
2020/01/31 04:02:42.2	92.810	-0.360	0.080	1.890
2020/01/31 04:02:42.3	92.790	-0.360	0.060	1.900
2020/01/31 04:02:42.4	92.770	-0.350	0.030	1.900
2020/01/31 04:02:42.5	92.760	-0.340	0.010	1.900
2020/01/31 04:02:42.6	92.740	-0.340	-0.010	1.890
2020/01/31 04:02:42.7	92.720	-0.330	-0.020	1.880
2020/01/31 04:02:42.8	92.700	-0.320	-0.040	1.870
2020/01/31 04:02:42.9	92.690	-0.320	-0.060	1.850
2020/01/31 04:02:43.0	92.680	-0.310	-0.070	1.830
2020/01/31 04:02:43.1	92.700	-0.310	-0.080	1.800
2020/01/31 04:02:43.2	92.690	-0.310	-0.090	1.770
2020/01/31 04:02:43.3	92.690	-0.310	-0.100	1.730
2020/01/31 04:02:43.4	92.690	-0.310	-0.110	1.690
2020/01/31 04:02:43.5	92.690	-0.310	-0.110	1.640
2020/01/31 04:02:43.6	92.700	-0.310	-0.120	1.590
2020/01/31 04:02:43.7	92.710	-0.310	-0.120	1.530
2020/01/31 04:02:43.8	92.720	-0.320	-0.120	1.480
2020/01/31 04:02:43.9	92.730	-0.320	-0.120	1.420
2020/01/31 04:02:44.0	92.750	-0.330	-0.120	1.360
2020/01/31 04:02:44.1	92.770	-0.330	-0.120	1.290
2020/01/31 04:02:44.2	92.790	-0.340	-0.120	1.220
2020/01/31 04:02:44.3	92.820	-0.340	-0.120	1.160
2020/01/31 04:02:44.4	92.850	-0.350	-0.110	1.090
2020/01/31 04:02:44.5	92.870	-0.350	-0.110	1.030
2020/01/31 04:02:44.6	92.900	-0.350	-0.110	0.970
2020/01/31 04:02:44.7	92.930	-0.360	-0.110	0.900
2020/01/31 04:02:44.8	92.960	-0.360	-0.110	0.840
2020/01/31 04:02:44.9	92.990	-0.360	-0.120	0.790
2020/01/31 04:02:45.0	93.020	-0.350	-0.120	0.730
2020/01/31 04:02:45.1	93.040	-0.340	-0.130	0.670
2020/01/31 04:02:45.2	93.060	-0.340	-0.140	0.620
2020/01/31 04:02:45.3	93.090	-0.320	-0.150	0.570
2020/01/31 04:02:45.4	93.110	-0.310	-0.170	0.530
2020/01/31 04:02:45.5	93.130	-0.290	-0.190	0.480
2020/01/31 04:02:45.6	93.150	-0.270	-0.210	0.440
2020/01/31 04:02:45.7	93.170	-0.240	-0.240	0.400
2020/01/31 04:02:45.8	93.190	-0.210	-0.270	0.360
2020/01/31 04:02:45.9	93.210	-0.180	-0.310	0.320
2020/01/31 04:02:46.0	93.230	-0.140	-0.350	0.280
2020/01/31 04:02:46.1	93.250	-0.100	-0.400	0.250
2020/01/31 04:02:46.2	93.260	-0.050	-0.450	0.220
2020/01/31 04:02:46.3	93.280	-0.010	-0.500	0.190
2020/01/31 04:02:46.4	93.290	0.040	-0.550	0.160
2020/01/31 04:02:46.5	93.310	0.090	-0.610	0.130
2020/01/31 04:02:46.6	93.320	0.150	-0.660	0.110
2020/01/31 04:02:46.7	93.330	0.200	-0.720	0.100
2020/01/31 04:02:46.8	93.340	0.260	-0.770	0.080
2020/01/31 04:02:46.9	93.350	0.310	-0.830	0.080
2020/01/31 04:02:47.0	93.360	0.360	-0.880	0.070
2020/01/31 04:02:47.1	93.360	0.410	-0.920	0.070
2020/01/31 04:02:47.2	93.360	0.460	-0.960	0.080
2020/01/31 04:02:47.3	93.350	0.510	-1.000	0.100
2020/01/31 04:02:47.4	93.350	0.550	-1.020	0.120
2020/01/31 04:02:47.5	93.340	0.590	-1.040	0.140
2020/01/31 04:02:47.6	93.320	0.630	-1.060	0.170
2020/01/31 04:02:47.7	93.310	0.660	-1.060	0.200
2020/01/31 04:02:47.8	93.290	0.680	-1.060	0.230
2020/01/31 04:02:47.9	93.270	0.700	-1.040	0.260
2020/01/31 04:02:48.0	93.250	0.710	-1.020	0.300
2020/01/31 04:02:48.1	93.220	0.710	-0.990	0.340
2020/01/31 04:02:48.2	93.200	0.710	-0.950	0.370
2020/01/31 04:02:48.3	93.170	0.700	-0.900	0.400
2020/01/31 04:02:48.4	93.140	0.690	-0.840	0.430
2020/01/31 04:02:48.5	93.120	0.670	-0.780	0.460
2020/01/31 04:02:48.6	93.090	0.640	-0.710	0.490
2020/01/31 04:02:48.7	93.060	0.610	-0.630	0.520
2020/01/31 04:02:48.8	93.040	0.570	-0.540	0.540
2020/01/31 04:02:48.9	93.010	0.520	-0.450	0.560
2020/01/31 04:02:49.0	92.990	0.480	-0.360	0.580
2020/01/31 04:02:49.1	92.950	0.420	-0.260	0.590
2020/01/31 04:02:49.2	92.930	0.360	-0.160	0.600
2020/01/31 04:02:49.3	92.910	0.300	-0.060	0.610
2020/01/31 04:02:49.4	92.890	0.240	0.040	0.620
2020/01/31 04:02:49.5	92.870	0.170	0.140	0.620
2020/01/31 04:02:49.6	92.860	0.110	0.240	0.620
2020/01/31 04:02:49.7	92.840	0.040	0.340	0.630
2020/01/31 04:02:49.8	92.830	-0.030	0.430	0.630
2020/01/31 04:02:49.9	92.820	-0.100	0.520	0.630
2020/01/31 04:02:50.0	92.810	-0.170	0.610	0.620
2020/01/31 04:02:50.1	92.800	-0.230	0.700	0.620
2020/01/31 04:02:50.2	92.800	-0.300	0.770	0.610
2020/01/31 04:02:50.3	92.800	-0.360	0.840	0.610
2020/01/31 04:02:50.4	92.800	-0.410	0.900	0.600
2020/01/31 04:02:50.5	92.810	-0.470	0.950	0.590
2020/01/31 04:02:50.6	92.820	-0.520	0.990	0.580
2020/01/31 04:02:50.7	92.830	-0.560	1.020	0.570
2020/01/31 04:02:50.8	92.850	-0.600	1.040	0.550
2020/01/31 04:02:50.9	92.870	-0.630	1.050	0.540
2020/01/31 04:02:51.0	92.890	-0.660	1.040	0.520
2020/01/31 04:02:51.1	92.910	-0.680	1.020	0.510
2020/01/31 04:02:51.2	92.930	-0.690	1.000	0.490
2020/01/31 04:02:51.3	92.960	-0.700	0.960	0.480
2020/01/31 04:02:51.4	92.980	-0.700	0.900	0.460
2020/01/31 04:02:51.5	93.010	-0.690	0.840	0.440
2020/01/31 04:02:51.6	93.040	-0.670	0.760	0.430
2020/01/31 04:02:51.7	93.060	-0.650	0.680	0.410
2020/01/31 04:02:51.8	93.090	-0.630	0.590	0.400
2020/01/31 04:02:51.9	93.110	-0.590	0.480	0.390
2020/01/31 04:02:52.0	93.140	-0.550	0.370	0.380
2020/01/31 04:02:52.1	93.170	-0.510	0.260	0.370
2020/01/31 04:02:52.2	93.190	-0.460	0.140	0.360
2020/01/31 04:02:52.3	93.210	-0.410	0.020	0.360
2020/01/31 04:02:52.4	93.230	-0.350	-0.110	0.350
2020/01/31 04:02:52.5	93.250	-0.290	-0.230	0.350
2020/01/31 04:02:52.6	93.270	-0.230	-0.360	0.350
2020/01/31 04:02:52.7	93.290	-0.170	-0.480	0.350
2020/01/31 04:02:52.8	93.300	-0.110	-0.600	0.350
2020/01/31 04:02:52.9	93.320	-0.040	-0.710	0.360
2020/01/31 04:02:53.0	93.330	0.020	-0.820	0.370
2020/01/31 04:02:53.1	93.350	0.090	-0.930	0.380
2020/01/31 04:02:53.2	93.360	0.150	-1.020	0.390
2020/01/31 04:02:53.3	93.370	0.210	-1.110	0.400
2020/01/31 04:02:53.4	93.390	0.270	-1.180	0.420
2020/01/31 04:02:53.5	93.400	0.320	-1.250	0.440
2020/01/31 04:02:53.6	93.410	0.370	-1.310	0.460
2020/01/31 04:02:53.7	93.420	0.420	-1.350	0.480
2020/01/31 04:02:53.8	93.430	0.460	-1.390	0.500
2020/01/31 04:02:53.9	93.430	0.500	-1.420	0.530
2020/01/31 04:02:54.0	93.440	0.540	-1.430	0.560
2020/01/31 04:02:54.1	93.460	0.560	-1.430	0.590
2020/01/31 04:02:54.2	93.460	0.590	-1.420	0.620
2020/01/31 04:02:54.3	93.460	0.600	-1.410	0.650
2020/01/31 04:02:54.4	93.470	0.620	-1.380	0.690
2020/01/31 04:02:54.5	93.470	0.620	-1.340	0.720
2020/01/31 04:02:54.6	93.470	0.620	-1.300	0.750
2020/01/31 04:02:54.7	93.460	0.620	-1.250	0.790
2020/01/31 04:02:54.8	93.460	0.610	-1.190	0.820
2020/01/31 04:02:54.9	93.460	0.590	-1.120	0.850
2020/01/31 04:02:55.0	93.450	0.570	-1.040	0.880
2020/01/31 04:02:55.1	93.450	0.550	-0.960	0.910
2020/01/31 04:02:55.2	93.440	0.520	-0.870	0.940
2020/01/31 04:02:55.3	93.430	0.490	-0.780	0.970
2020/01/31 04:02:55.4	93.420	0.460	-0.680	0.990
2020/01/31 04:02:55.5	93.410	0.420	-0.590	1.020
2020/01/31 04:02:55.6	93.400	0.380	-0.490	1.040
2020/01/31 04:02:55.7	93.390	0.340	-0.380	1.050
2020/01/31 04:02:55.8	93.370	0.300	-0.280	1.070
2020/01/31 04:02:55.9	93.360	0.250	-0.180	1.080
2020/01/31 04:02:56.0	93.350	0.210	-0.080	1.090
2020/01/31 04:02:56.1	93.340	0.160	0.020	1.090
2020/01/31 04:02:56.2	93.320	0.120	0.110	1.090
2020/01/31 04:02:56.3	93.310	0.070	0.200	1.090
2020/01/31 04:02:56.4	93.290	0.030	0.290	1.090
2020/01/31 04:02:56.5	93.270	-0.020	0.370	1.090
2020/01/31 04:02:56.6	93.250	-0.060	0.440	1.080
2020/01/31 04:02:56.7	93.240	-0.100	0.510	1.070
2020/01/31 04:02:56.8	93.220	-0.140	0.570	1.060
2020/01/31 04:02:56.9	93.200	-0.180	0.630	1.040
2020/01/31 04:02:57.0	93.180	-0.210	0.670	1.030
2020/01/31 04:02:57.1	93.160	-0.240	0.710	1.010
2020/01/31 04:02:57.2	93.140	-0.270	0.740	1.000
2020/01/31 04:02:57.3	93.120	-0.300	0.760	0.980
2020/01/31 04:02:57.4	93.100	-0.320	0.780	0.960
2020/01/31 04:02:57.5	93.080	-0.350	0.780	0.940
2020/01/31 04:02:57.6	93.060	-0.370	0.780	0.920
2020/01/31 04:02:57.7	93.040	-0.390	0.770	0.900
2020/01/31 04:02:57.8	93.030	-0.400	0.760	0.880
2020/01/31 04:02:57.9	93.010	-0.420	0.740	0.850
2020/01/31 04:02:58.0	93.000	-0.430	0.710	0.830
2020/01/31 04:02:58.1	92.980	-0.440	0.680	0.800
2020/01/31 04:02:58.2	92.980	-0.440	0.640	0.780
2020/01/31 04:02:58.3	92.980	-0.450	0.590	0.760
2020/01/31 04:02:58.4	92.980	-0.460	0.540	0.730
2020/01/31 04:02:58.5	92.980	-0.460	0.490	0.710
2020/01/31 04:02:58.6	92.980	-0.460	0.430	0.680
2020/01/31 04:02:58.7	92.990	-0.460	0.370	0.660
2020/01/31 04:02:58.8	93.000	-0.450	0.300	0.630
2020/01/31 04:02:58.9	93.010	-0.450	0.230	0.610
2020/01/31 04:02:59.0	93.030	-0.440	0.160	0.580
2020/01/31 04:02:59.1	93.040	-0.430	0.080	0.560
2020/01/31 04:02:59.2	93.060	-0.420	0.010	0.530
2020/01/31 04:02:59.3	93.090	-0.410	-0.070	0.510
2020/01/31 04:02:59.4	93.110	-0.390	-0.150	0.480
2020/01/31 04:02:59.5	93.140	-0.380	-0.230	0.450
2020/01/31 04:02:59.6	93.160	-0.360	-0.310	0.420
2020/01/31 04:02:59.7	93.190	-0.340	-0.390	0.400
2020/01/31 04:02:59.8	93.220	-0.310	-0.470	0.370
2020/01/31 04:02:59.9	93.250	-0.290	-0.550	0.340
2020/01/31 04:03:00.0	93.280	-0.260	-0.620	0.320
2020/01/31 04:03:00.1	93.310	-0.230	-0.690	0.290
2020/01/31 04:03:00.2	93.340	-0.200	-0.760	0.270
2020/01/31 04:03:00.3	93.370	-0.170	-0.830	0.250
2020/01/31 04:03:00.4	93.400	-0.140	-0.880	0.230
2020/01/31 04:03:00.5	93.420	-0.110	-0.940	0.220
2020/01/31 04:03:00.6	93.450	-0.080	-0.980	0.210
2020/01/31 04:03:00.7	93.470	-0.040	-1.020	0.200
2020/01/31 04:03:00.8	93.490	-0.010	-1.050	0.200
2020/01/31 04:03:00.9	93.500	0.020	-1.080	0.200
2020/01/31 04:03:01.0	93.520	0.050	-1.090	0.210
2020/01/31 04:03:01.1	93.520	0.080	-1.100	0.230
2020/01/31 04:03:01.2	93.530	0.110	-1.100	0.250
2020/01/31 04:03:01.3	93.530	0.140	-1.090	0.270
2020/01/31 04:03:01.4	93.530	0.160	-1.060	0.300
2020/01/31 04:03:01.5	93.520	0.180	-1.030	0.340
2020/01/31 04:03:01.6	93.510	0.190	-0.990	0.380
2020/01/31 04:03:01.7	93.500	0.200	-0.940	0.420
2020/01/31 04:03:01.8	93.490	0.210	-0.880	0.460
2020/01/31 04:03:01.9	93.470	0.210	-0.820	0.500
2020/01/31 04:03:02.0	93.450	0.210	-0.750	0.550
2020/01/31 04:03:02.1	93.430	0.200	-0.670	0.600
2020/01/31 04:03:02.2	93.410	0.190	-0.580	0.650
2020/01/31 04:03:02.3	93.390	0.170	-0.490	0.700
2020/01/31 04:03:02.4	93.360	0.150	-0.400	0.750
2020/01/31 04:03:02.5	93.340	0.130	-0.310	0.800
2020/01/31 04:03:02.6	93.310	0.100	-0.210	0.850
2020/01/31 04:03:02.7	93.280	0.070	-0.120	0.890
2020/01/31 04:03:02.8	93.260	0.040	-0.020	0.940
2020/01/31 04:03:02.9	93.240	0.000	0.070	0.980
2020/01/31 04:03:03.0	93.210	-0.030	0.160	1.010
2020/01/31 04:03:03.1	93.200	-0.070	0.250	1.050
2020/01/31 04:03:03.2	93.180	-0.110	0.330	1.080
2020/01/31 04:03:03.3	93.160	-0.150	0.400	1.110
2020/01/31 04:03:03.4	93.140	-0.180	0.470	1.130
2020/01/31 04:03:03.5	93.130	-0.220	0.530	1.140
2020/01/31 04:03:03.6	93.120	-0.250	0.580	1.150
2020/01/31 04:03:03.7	93.120	-0.280	0.620	1.150
2020/01/31 04:03:03.8	93.110	-0.310	0.660	1.140
2020/01/31 04:03:03.9	93.110	-0.330	0.680	1.130
2020/01/31 04:03:04.0	93.110	-0.350	0.690	1.110
2020/01/31 04:03:04.1	93.120	-0.370	0.690	1.080
2020/01/31 04:03:04.2	93.130	-0.380	0.690	1.050
2020/01/31 04:03:04.3	93.140	-0.380	0.670	1.010
2020/01/31 04:03:04.4	93.150	-0.380	0.650	0.970
2020/01/31 04:03:04.5	93.170	-0.380	0.610	0.930
2020/01/31 04:03:04.6	93.190	-0.360	0.570	0.880
2020/01/31 04:03:04.7	93.210	-0.350	0.520	0.830
2020/01/31 04:03:04.8	93.230	-0.320	0.460	0.770
2020/01/31 04:03:04.9	93.250	-0.300	0.390	0.720
2020/01/31 04:03:05.0	93.280	-0.260	0.320	0.660
2020/01/31 04:03:05.1	93.290	-0.220	0.240	0.600
2020/01/31 04:03:05.2	93.320	-0.180	0.160	0.550
2020/01/31 04:03:05.3	93.350	-0.140	0.070	0.500
2020/01/31 04:03:05.4	93.380	-0.090	-0.010	0.440
2020/01/31 04:03:05.5	93.400	-0.040	-0.100	0.390
2020/01/31 04:03:05.6	93.430	0.020	-0.190	0.350
2020/01/31 04:03:05.7	93.460	0.070	-0.280	0.300
2020/01/31 04:03:05.8	93.490	0.120	-0.360	0.260
2020/01/31 04:03:05.9	93.510	0.180	-0.440	0.230
2020/01/31 04:03:06.0	93.540	0.230	-0.520	0.200
2020/01/31 04:03:06.1	93.560	0.280	-0.600	0.170
2020/01/31 04:03:06.2	93.580	0.330	-0.660	0.150
2020/01/31 04:03:06.3	93.600	0.380	-0.730	0.130
2020/01/31 04:03:06.4	93.610	0.420	-0.780	0.130
2020/01/31 04:03:06.5	93.620	0.460	-0.830	0.120
2020/01/31 04:03:06.6	93.630	0.490	-0.860	0.130
2020/01/31 04:03:06.7	93.630	0.520	-0.900	0.130
2020/01/31 04:03:06.8	93.630	0.540	-0.920	0.150
2020/01/31 04:03:06.9	93.630	0.560	-0.930	0.170
2020/01/31 04:03:07.0	93.620	0.570	-0.940	0.190
2020/01/31 04:03:07.1	93.610	0.580	-0.940	0.220
2020/01/31 04:03:07.2	93.590	0.580	-0.930	0.250
2020/01/31 04:03:07.3	93.580	0.570	-0.910	0.290
2020/01/31 04:03:07.4	93.560	0.560	-0.890	0.320
2020/01/31 04:03:07.5	93.540	0.540	-0.860	0.360
2020/01/31 04:03:07.6	93.520	0.520	-0.830	0.400
2020/01/31 04:03:07.7	93.490	0.500	-0.780	0.440
2020/01/31 04:03:07.8	93.460	0.470	-0.740	0.490
2020/01/31 04:03:07.9	93.430	0.430	-0.690	0.530
2020/01/31 04:03:08.0	93.400	0.390	-0.640	0.580
2020/01/31 04:03:08.1	93.380	0.350	-0.580	0.620
2020/01/31 04:03:08.2	93.340	0.310	-0.520	0.670
2020/01/31 04:03:08.3	93.310	0.270	-0.470	0.710
2020/01/31 04:03:08.4	93.270	0.220	-0.410	0.750
2020/01/31 04:03:08.5	93.230	0.180	-0.360	0.790
2020/01/31 04:03:08.6	93.200	0.130	-0.300	0.820
2020/01/31 04:03:08.7	93.160	0.090	-0.250	0.860
2020/01/31 04:03:08.8	93.130	0.040	-0.210	0.890
2020/01/31 04:03:08.9	93.100	0.000	-0.160	0.910
2020/01/31 04:03:09.0	93.070	-0.040	-0.120	0.930
2020/01/31 04:03:09.1	93.040	-0.080	-0.090	0.950
2020/01/31 04:03:09.2	93.010	-0.110	-0.060	0.960
2020/01/31 04:03:09.3	92.980	-0.140	-0.030	0.970
2020/01/31 04:03:09.4	92.960	-0.170	-0.020	0.980
2020/01/31 04:03:09.5	92.940	-0.190	-0.000	0.980
2020/01/31 04:03:09.6	92.920	-0.210	0.000	0.980
2020/01/31 04:03:09.7	92.910	-0.230	0.000	0.980
2020/01/31 04:03:09.8	92.890	-0.240	-0.000	0.980
2020/01/31 04:03:09.9	92.880	-0.250	-0.020	0.970
2020/01/31 04:03:10.0	92.870	-0.250	-0.030	0.960
2020/01/31 04:03:10.1	92.860	-0.250	-0.060	0.950
2020/01/31 04:03:10.2	92.850	-0.240	-0.080	0.940
2020/01/31 04:03:10.3	92.850	-0.230	-0.120	0.930
2020/01/31 04:03:10.4	92.860	-0.220	-0.150	0.920
2020/01/31 04:03:10.5	92.860	-0.200	-0.190	0.910
2020/01/31 04:03:10.6	92.870	-0.180	-0.230	0.900
2020/01/31 04:03:10.7	92.880	-0.160	-0.270	0.890
2020/01/31 04:03:10.8	92.890	-0.140	-0.310	0.880
2020/01/31 04:03:10.9	92.910	-0.110	-0.350	0.870
2020/01/31 04:03:11.0	92.930	-0.080	-0.390	0.850
2020/01/31 04:03:11.1	92.960	-0.050	-0.430	0.840
2020/01/31 04:03:11.2	92.980	-0.020	-0.470	0.830
2020/01/31 04:03:11.3	93.010	0.010	-0.510	0.810
2020/01/31 04:03:11.4	93.040	0.040	-0.540	0.790
2020/01/31 04:03:11.5	93.070	0.070	-0.570	0.770
2020/01/31 04:03:11.6	93.100	0.090	-0.590	0.760
2020/01/31 04:03:11.7	93.140	0.120	-0.610	0.740
2020/01/31 04:03:11.8	93.170	0.150	-0.620	0.720
2020/01/31 04:03:11.9	93.210	0.170	-0.630	0.700
2020/01/31 04:03:12.0	93.240	0.190	-0.630	0.670
2020/01/31 04:03:12.1	93.270	0.200	-0.630	0.650
2020/01/31 04:03:12.2	93.300	0.210	-0.620	0.630
2020/01/31 04:03:12.3	93.340	0.220	-0.600	0.610
2020/01/31 04:03:12.4	93.370	0.230	-0.570	0.590
2020/01/31 04:03:12.5	93.410	0.220	-0.540	0.570
2020/01/31 04:03:12.6	93.450	0.220	-0.500	0.550
2020/01/31 04:03:12.7	93.480	0.210	-0.450	0.540
2020/01/31 04:03:12.8	93.520	0.200	-0.400	0.520
2020/01/31 04:03:12.9	93.550	0.180	-0.330	0.510
2020/01/31 04:03:13.0	93.580	0.150	-0.270	0.510
2020/01/31 04:03:13.1	93.620	0.130	-0.190	0.500
2020/01/31 04:03:13.2	93.640	0.090	-0.110	0.500
2020/01/31 04:03:13.3	93.670	0.060	-0.030	0.500
2020/01/31 04:03:13.4	93.690	0.020	0.050	0.510
2020/01/31 04:03:13.5	93.720	-0.030	0.140	0.520
2020/01/31 04:03:13.6	93.740	-0.070	0.220	0.530
2020/01/31 04:03:13.7	93.750	-0.120	0.310	0.550
2020/01/31 04:03:13.8	93.770	-0.170	0.400	0.570
2020/01/31 04:03:13.9	93.780	-0.220	0.480	0.600
2020/01/31 04:03:14.0	93.790	-0.280	0.560	0.630
2020/01/31 04:03:14.1	93.810	-0.330	0.640	0.660
2020/01/31 04:03:14.2	93.810	-0.390	0.720	0.700
2020/01/31 04:03:14.3	93.810	-0.440	0.780	0.730
2020/01/31 04:03:14.4	93.810	-0.490	0.840	0.770
2020/01/31 04:03:14.5	93.810	-0.550	0.900	0.810
2020/01/31 04:03:14.6	93.800	-0.590	0.940	0.840
2020/01/31 04:03:14.7	93.790	-0.640	0.970	0.880
2020/01/31 04:03:14.8	93.780	-0.680	0.990	0.920
2020/01/31 04:03:14.9	93.770	-0.710	1.000	0.960
2020/01/31 04:03:15.0	93.760	-0.740	1.000	0.990
2020/01/31 04:03:15.1	93.740	-0.770	0.990	1.020
2020/01/31 04:03:15.2	93.720	-0.780	0.970	1.050
2020/01/31 04:03:15.3	93.710	-0.800	0.930	1.070
2020/01/31 04:03:15.4	93.700	-0.800	0.880	1.090
2020/01/31 04:03:15.5	93.680	-0.800	0.820	1.110
2020/01/31 04:03:15.6	93.670	-0.790	0.760	1.120
2020/01/31 04:03:15.7	93.660	-0.780	0.680	1.120
2020/01/31 04:03:15.8	93.650	-0.760	0.590	1.120
2020/01/31 04:03:15.9	93.640	-0.730	0.490	1.110
2020/01/31 04:03:16.0	93.640	-0.690	0.390	1.100
2020/01/31 04:03:16.1	93.640	-0.650	0.270	1.080
2020/01/31 04:03:16.2	93.640	-0.600	0.160	1.060
2020/01/31 04:03:16.3	93.640	-0.550	0.040	1.030
2020/01/31 04:03:16.4	93.640	-0.490	-0.080	1.000
2020/01/31 04:03:16.5	93.640	-0.420	-0.210	0.960
2020/01/31 04:03:16.6	93.650	-0.360	-0.330	0.920
2020/01/31 04:03:16.7	93.650	-0.280	-0.450	0.880
2020/01/31 04:03:16.8	93.660	-0.210	-0.570	0.840
2020/01/31 04:03:16.9	93.660	-0.130	-0.690	0.800
2020/01/31 04:03:17.0	93.670	-0.050	-0.800	0.760
2020/01/31 04:03:17.1	93.680	0.030	-0.900	0.720
2020/01/31 04:03:17.2	93.680	0.110	-1.000	0.680
2020/01/31 04:03:17.3	93.690	0.180	-1.090	0.640
2020/01/31 04:03:17.4	93.690	0.260	-1.160	0.600
2020/01/31 04:03:17.5	93.700	0.330	-1.230	0.560
2020/01/31 04:03:17.6	93.700	0.410	-1.290	0.530
2020/01/31 04:03:17.7	93.710	0.470	-1.330	0.500
2020/01/31 04:03:17.8	93.710	0.540	-1.360	0.470
2020/01/31 04:03:17.9	93.710	0.590	-1.380	0.440
2020/01/31 04:03:18.0	93.720	0.650	-1.390	0.420
2020/01/31 04:03:18.1	93.720	0.690	-1.380	0.400
2020/01/31 04:03:18.2	93.730	0.730	-1.370	0.390
2020/01/31 04:03:18.3	93.730	0.760	-1.340	0.370
2020/01/31 04:03:18.4	93.740	0.790	-1.290	0.360
2020/01/31 04:03:18.5	93.740	0.810	-1.240	0.360
2020/01/31 04:03:18.6	93.750	0.820	-1.180	0.350
2020/01/31 04:03:18.7	93.750	0.820	-1.110	0.360
2020/01/31 04:03:18.8	93.760	0.820	-1.040	0.360
2020/01/31 04:03:18.9	93.760	0.810	-0.960	0.360
2020/01/31 04:03:19.0	93.770	0.790	-0.870	0.370
2020/01/31 04:03:19.1	93.770	0.770	-0.770	0.380
2020/01/31 04:03:19.2	93.780	0.740	-0.670	0.390
2020/01/31 04:03:19.3	93.790	0.710	-0.580	0.400
2020/01/31 04:03:19.4	93.790	0.670	-0.480	0.420
2020/01/31 04:03:19.5	93.800	0.630	-0.380	0.430
2020/01/31 04:03:19.6	93.810	0.580	-0.290	0.440
2020/01/31 04:03:19.7	93.820	0.530	-0.200	0.460
2020/01/31 04:03:19.8	93.830	0.480	-0.110	0.470
2020/01/31 04:03:19.9	93.840	0.420	-0.020	0.480
2020/01/31 04:03:20.0	93.850	0.370	0.050	0.490
2020/01/31 04:03:20.1	93.850	0.310	0.120	0.500
2020/01/31 04:03:20.2	93.860	0.260	0.190	0.510
2020/01/31 04:03:20.3	93.870	0.200	0.240	0.510
2020/01/31 04:03:20.4	93.880	0.150	0.290	0.520
2020/01/31 04:03:20.5	93.890	0.100	0.330	0.530
2020/01/31 04:03:20.6	93.900	0.050	0.370	0.530
2020/01/31 04:03:20.7	93.910	-0.000	0.390	0.540
2020/01/31 04:03:20.8	93.920	-0.040	0.410	0.540
2020/01/31 04:03:20.9	93.930	-0.090	0.420	0.550
2020/01/31 04:03:21.0	93.930	-0.120	0.420	0.550
2020/01/31 04:03:21.1	93.940	-0.160	0.420	0.560
2020/01/31 04:03:21.2	93.950	-0.190	0.400	0.570
2020/01/31 04:03:21.3	93.950	-0.210	0.380	0.580
2020/01/31 04:03:21.4	93.950	-0.240	0.360	0.590
2020/01/31 04:03:21.5	93.950	-0.250	0.320	0.610
2020/01/31 04:03:21.6	93.960	-0.270	0.290	0.620
2020/01/31 04:03:21.7	93.960	-0.280	0.240	0.630
2020/01/31 04:03:21.8	93.960	-0.280	0.190	0.650
2020/01/31 04:03:21.9	93.960	-0.280	0.140	0.670
2020/01/31 04:03:22.0	93.960	-0.280	0.080	0.680
2020/01/31 04:03:22.1	93.950	-0.270	0.020	0.700
2020/01/31 04:03:22.2	93.960	-0.260	-0.040	0.720
2020/01/31 04:03:22.3	93.960	-0.250	-0.110	0.740
2020/01/31 04:03:22.4	93.960	-0.240	-0.170	0.760
2020/01/31 04:03:22.5	93.960	-0.220	-0.240	0.780
2020/01/31 04:03:22.6	93.960	-0.200	-0.300	0.810
2020/01/31 04:03:22.7	93.970	-0.180	-0.370	0.830
2020/01/31 04:03:22.8	93.970	-0.160	-0.430	0.860
2020/01/31 04:03:22.9	93.970	-0.130	-0.490	0.880
2020/01/31 04:03:23.0	93.980	-0.110	-0.540	0.900
2020/01/31 04:03:23.1	94.000	-0.090	-0.600	0.930
2020/01/31 04:03:23.2	94.010	-0.070	-0.640	0.950
2020/01/31 04:03:23.3	94.010	-0.040	-0.680	0.960
2020/01/31 04:03:23.4	94.020	-0.020	-0.720	0.980
2020/01/31 04:03:23.5	94.030	-0.010	-0.740	0.990
2020/01/31 04:03:23.6	94.040	0.010	-0.760	1.000
2020/01/31 04:03:23.7	94.040	0.030	-0.770	1.000
2020/01/31 04:03:23.8	94.050	0.040	-0.780	1.000
2020/01/31 04:03:23.9	94.060	0.050	-0.780	1.000
2020/01/31 04:03:24.0	94.070	0.060	-0.770	1.000
2020/01/31 04:03:24.1	94.090	0.060	-0.750	0.990
2020/01/31 04:03:24.2	94.090	0.060	-0.730	0.980
2020/01/31 04:03:24.3	94.100	0.070	-0.700	0.960
2020/01/31 04:03:24.4	94.110	0.060	-0.660	0.950
2020/01/31 04:03:24.5	94.120	0.060	-0.620	0.930
2020/01/31 04:03:24.6	94.120	0.060	-0.570	0.910
2020/01/31 04:03:24.7	94.130	0.050	-0.520	0.900
2020/01/31 04:03:24.8	94.130	0.040	-0.460	0.880
2020/01/31 04:03:24.9	94.130	0.030	-0.400	0.860
2020/01/31 04:03:25.0	94.130	0.020	-0.340	0.850
2020/01/31 04:03:25.1	94.130	0.010	-0.270	0.830
2020/01/31 04:03:25.2	94.130	-0.000	-0.210	0.820
2020/01/31 04:03:25.3	94.120	-0.010	-0.150	0.810
2020/01/31 04:03:25.4	94.120	-0.020	-0.080	0.800
2020/01/31 04:03:25.5	94.110	-0.030	-0.030	0.790
2020/01/31 04:03:25.6	94.110	-0.040	0.030	0.780
2020/01/31 04:03:25.7	94.100	-0.050	0.080	0.780
2020/01/31 04:03:25.8	94.090	-0.060	0.130	0.780
2020/01/31 04:03:25.9	94.080	-0.070	0.170	0.770
2020/01/31 04:03:26.0	94.080	-0.070	0.210	0.770
2020/01/31 04:03:26.1	94.080	-0.080	0.240	0.770
2020/01/31 04:03:26.2	94.070	-0.080	0.270	0.770
2020/01/31 04:03:26.3	94.070	-0.080	0.280	0.770
2020/01/31 04:03:26.4	94.070	-0.080	0.300	0.760
2020/01/31 04:03:26.5	94.060	-0.080	0.300	0.760
2020/01/31 04:03:26.6	94.060	-0.080	0.300	0.750
2020/01/31 04:03:26.7	94.060	-0.070	0.300	0.740
2020/01/31 04:03:26.8	94.060	-0.070	0.290	0.730
2020/01/31 04:03:26.9	94.060	-0.060	0.270	0.710
2020/01/31 04:03:27.0	94.070	-0.050	0.250	0.700
2020/01/31 04:03:27.1	94.070	-0.050	0.220	0.680
2020/01/31 04:03:27.2	94.070	-0.040	0.190	0.650
2020/01/31 04:03:27.3	94.080	-0.030	0.160	0.630
2020/01/31 04:03:27.4	94.090	-0.020	0.120	0.600
2020/01/31 04:03:27.5	94.100	-0.010	0.080	0.570
2020/01/31 04:03:27.6	94.110	-0.000	0.040	0.540
2020/01/31 04:03:27.7	94.120	0.010	0.000	0.510
2020/01/31 04:03:27.8	94.130	0.020	-0.040	0.470
2020/01/31 04:03:27.9	94.140	0.020	-0.070	0.440
2020/01/31 04:03:28.0	94.150	0.030	-0.110	0.400
2020/01/31 04:03:28.1	94.150	0.040	-0.150	0.360
2020/01/31 04:03:28.2	94.160	0.040	-0.180	0.320
2020/01/31 04:03:28.3	94.170	0.040	-0.210	0.290
2020/01/31 04:03:28.4	94.190	0.050	-0.240	0.250
2020/01/31 04:03:28.5	94.200	0.050	-0.260	0.220
2020/01/31 04:03:28.6	94.210	0.050	-0.270	0.180
2020/01/31 04:03:28.7	94.230	0.040	-0.290	0.150
2020/01/31 04:03:28.8	94.240	0.040	-0.300	0.130
2020/01/31 04:03:28.9	94.250	0.030	-0.310	0.100
2020/01/31 04:03:29.0	94.270	0.030	-0.310	0.080
2020/01/31 04:03:29.1	94.280	0.020	-0.310	0.060
2020/01/31 04:03:29.2	94.290	0.010	-0.300	0.050
2020/01/31 04:03:29.3	94.310	0.010	-0.300	0.040
2020/01/31 04:03:29.4	94.320	-0.000	-0.290	0.040
2020/01/31 04:03:29.5	94.340	-0.010	-0.280	0.040
2020/01/31 04:03:29.6	94.350	-0.020	-0.270	0.050
2020/01/31 04:03:29.7	94.370	-0.030	-0.250	0.060
2020/01/31 04:03:29.8	94.380	-0.040	-0.240	0.070
2020/01/31 04:03:29.9	94.390	-0.050	-0.220	0.090
2020/01/31 04:03:30.0	94.410	-0.060	-0.210	0.110
2020/01/31 04:03:30.1	94.410	-0.070	-0.190	0.130
2020/01/31 04:03:30.2	94.420	-0.080	-0.180	0.160
2020/01/31 04:03:30.3	94.430	-0.090	-0.160	0.180
2020/01/31 04:03:30.4	94.440	-0.100	-0.150	0.210
2020/01/31 04:03:30.5	94.450	-0.100	-0.130	0.240
2020/01/31 04:03:30.6	94.460	-0.110	-0.120	0.270
2020/01/31 04:03:30.7	94.460	-0.120	-0.110	0.310
2020/01/31 04:03:30.8	94.470	-0.120	-0.100	0.340
2020/01/31 04:03:30.9	94.470	-0.130	-0.100	0.370
2020/01/31 04:03:31.0	94.470	-0.130	-0.090	0.400
2020/01/31 04:03:31.1	94.470	-0.140	-0.090	0.440
2020/01/31 04:03:31.2	94.470	-0.140	-0.090	0.470
2020/01/31 04:03:31.3	94.460	-0.140	-0.100	0.500
2020/01/31 04:03:31.4	94.460	-0.140	-0.110	0.540
2020/01/31 04:03:31.5	94.450	-0.140	-0.120	0.570
2020/01/31 04:03:31.6	94.440	-0.140	-0.140	0.600
2020/01/31 04:03:31.7	94.430	-0.140	-0.160	0.630
2020/01/31 04:03:31.8	94.420	-0.140	-0.180	0.660
2020/01/31 04:03:31.9	94.400	-0.140	-0.200	0.690
2020/01/31 04:03:32.0	94.390	-0.130	-0.230	0.720
2020/01/31 04:03:32.1	94.370	-0.130	-0.250	0.760
2020/01/31 04:03:32.2	94.350	-0.120	-0.280	0.790
2020/01/31 04:03:32.3	94.330	-0.120	-0.310	0.820
2020/01/31 04:03:32.4	94.310	-0.110	-0.350	0.860
2020/01/31 04:03:32.5	94.280	-0.100	-0.380	0.890
2020/01/31 04:03:32.6	94.260	-0.100	-0.410	0.920
2020/01/31 04:03:32.7	94.240	-0.090	-0.440	0.950
2020/01/31 04:03:32.8	94.210	-0.080	-0.460	0.980
2020/01/31 04:03:32.9	94.190	-0.070	-0.490	1.010
2020/01/31 04:03:33.0	94.170	-0.070	-0.510	1.030
2020/01/31 04:03:33.1	94.150	-0.060	-0.540	1.060
2020/01/31 04:03:33.2	94.130	-0.050	-0.550	1.080
2020/01/31 04:03:33.3	94.120	-0.050	-0.570	1.090
2020/01/31 04:03:33.4	94.110	-0.040	-0.570	1.100
2020/01/31 04:03:33.5	94.100	-0.040	-0.580	1.110
2020/01/31 04:03:33.6	94.090	-0.030	-0.580	1.110
2020/01/31 04:03:33.7	94.090	-0.030	-0.570	1.110
2020/01/31 04:03:33.8	94.090	-0.020	-0.560	1.110
2020/01/31 04:03:33.9	94.090	-0.020	-0.550	1.100
2020/01/31 04:03:34.0	94.100	-0.020	-0.530	1.090
2020/01/31 04:03:34.1	94.110	-0.010	-0.500	1.080
2020/01/31 04:03:34.2	94.120	-0.010	-0.470	1.060
2020/01/31 04:03:34.3	94.140	-0.010	-0.440	1.040
2020/01/31 04:03:34.4	94.150	-0.000	-0.400	1.020
2020/01/31 04:03:34.5	94.170	-0.000	-0.360	1.000
2020/01/31 04:03:34.6	94.180	0.000	-0.320	0.980
2020/01/31 04:03:34.7	94.200	0.000	-0.280	0.960
2020/01/31 04:03:34.8	94.220	0.000	-0.230	0.930
2020/01/31 04:03:34.9	94.240	0.010	-0.180	0.910
2020/01/31 04:03:35.0	94.250	0.010	-0.140	0.890
2020/01/31 04:03:35.1	94.260	0.010	-0.100	0.860
2020/01/31 04:03:35.2	94.280	0.020	-0.050	0.840
2020/01/31 04:03:35.3	94.290	0.020	-0.010	0.820
2020/01/31 04:03:35.4	94.300	0.030	0.020	0.800
2020/01/31 04:03:35.5	94.310	0.030	0.050	0.780
2020/01/31 04:03:35.6	94.320	0.040	0.080	0.760
2020/01/31 04:03:35.7	94.330	0.050	0.100	0.740
2020/01/31 04:03:35.8	94.330	0.050	0.120	0.730
2020/01/31 04:03:35.9	94.340	0.070	0.130	0.710
2020/01/31 04:03:36.0	94.340	0.080	0.130	0.700
2020/01/31 04:03:36.1	94.330	0.090	0.130	0.690
2020/01/31 04:03:36.2	94.330	0.110	0.120	0.670
2020/01/31 04:03:36.3	94.330	0.120	0.100	0.660
2020/01/31 04:03:36.4	94.320	0.140	0.070	0.650
2020/01/31 04:03:36.5	94.320	0.160	0.030	0.640
2020/01/31 04:03:36.6	94.320	0.190	-0.010	0.620
2020/01/31 04:03:36.7	94.310	0.210	-0.060	0.610
2020/01/31 04:03:36.8	94.310	0.240	-0.110	0.600
2020/01/31 04:03:36.9	94.310	0.260	-0.170	0.590
2020/01/31 04:03:37.0	94.300	0.290	-0.230	0.580
2020/01/31 04:03:37.1	94.290	0.320	-0.290	0.560
2020/01/31 04:03:37.2	94.290	0.350	-0.360	0.550
2020/01/31 04:03:37.3	94.290	0.380	-0.430	0.540
2020/01/31 04:03:37.4	94.280	0.410	-0.490	0.530
2020/01/31 04:03:37.5	94.270	0.430	-0.560	0.530
2020/01/31 04:03:37.6	94.270	0.460	-0.610	0.520
2020/01/31 04:03:37.7	94.260	0.480	-0.670	0.520
2020/01/31 04:03:37.8	94.250	0.510	-0.720	0.520
2020/01/31 04:03:37.9	94.240	0.530	-0.760	0.520
2020/01/31 04:03:38.0	94.230	0.540	-0.790	0.530
2020/01/31 04:03:38.1	94.240	0.550	-0.810	0.530
2020/01/31 04:03:38.2	94.220	0.560	-0.830	0.530
2020/01/31 04:03:38.3	94.210	0.560	-0.830	0.540
2020/01/31 04:03:38.4	94.190	0.560	-0.830	0.550
2020/01/31 04:03:38.5	94.170	0.550	-0.810	0.560
2020/01/31 04:03:38.6	94.160	0.540	-0.780	0.570
2020/01/31 04:03:38.7	94.140	0.520	-0.740	0.580
2020/01/31 04:03:38.8	94.120	0.490	-0.700	0.590
2020/01/31 04:03:38.9	94.110	0.460	-0.640	0.610
2020/01/31 04:03:39.0	94.090	0.430	-0.580	0.620
2020/01/31 04:03:39.1	94.080	0.390	-0.510	0.640
2020/01/31 04:03:39.2	94.060	0.340	-0.430	0.650
2020/01/31 04:03:39.3	94.040	0.290	-0.350	0.670
2020/01/31 04:03:39.4	94.030	0.240	-0.260	0.680
2020/01/31 04:03:39.5	94.010	0.180	-0.170	0.700
2020/01/31 04:03:39.6	94.000	0.120	-0.070	0.720
2020/01/31 04:03:39.7	93.990	0.060	0.020	0.740
2020/01/31 04:03:39.8	93.980	-0.000	0.110	0.750
2020/01/31 04:03:39.9	93.970	-0.070	0.200	0.770
2020/01/31 04:03:40.0	93.960	-0.130	0.290	0.790
2020/01/31 04:03:40.1	93.950	-0.200	0.380	0.810
2020/01/31 04:03:40.2	93.950	-0.260	0.460	0.830
2020/01/31 04:03:40.3	93.950	-0.330	0.540	0.850
2020/01/31 04:03:40.4	93.950	-0.390	0.600	0.870
2020/01/31 04:03:40.5	93.950	-0.450	0.660	0.890
2020/01/31 04:03:40.6	93.950	-0.510	0.710	0.920
2020/01/31 04:03:40.7	93.960	-0.560	0.750	0.940
2020/01/31 04:03:40.8	93.970	-0.600	0.780	0.950
2020/01/31 04:03:40.9	93.980	-0.640	0.790	0.970
2020/01/31 04:03:41.0	93.990	-0.680	0.800	0.990
2020/01/31 04:03:41.1	93.990	-0.710	0.790	1.000
2020/01/31 04:03:41.2	94.010	-0.730	0.770	1.010
2020/01/31 04:03:41.3	94.030	-0.750	0.740	1.020
2020/01/31 04:03:41.4	94.050	-0.750	0.700	1.030
2020/01/31 04:03:41.5	94.070	-0.760	0.640	1.030
2020/01/31 04:03:41.6	94.100	-0.750	0.580	1.040
2020/01/31 04:03:41.7	94.120	-0.740	0.510	1.040
2020/01/31 04:03:41.8	94.140	-0.720	0.430	1.040
2020/01/31 04:03:41.9	94.160	-0.700	0.340	1.040
2020/01/31 04:03:42.0	94.190	-0.670	0.250	1.030
2020/01/31 04:03:42.1	94.200	-0.640	0.150	1.030
2020/01/31 04:03:42.2	94.220	-0.600	0.050	1.030
2020/01/31 04:03:42.3	94.230	-0.560	-0.050	1.030
2020/01/31 04:03:42.4	94.240	-0.510	-0.160	1.030
2020/01/31 04:03:42.5	94.250	-0.460	-0.250	1.040
2020/01/31 04:03:42.6	94.250	-0.410	-0.350	1.040
2020/01/31 04:03:42.7	94.250	-0.360	-0.440	1.050
2020/01/31 04:03:42.8	94.250	-0.310	-0.530	1.060
2020/01/31 04:03:42.9	94.240	-0.260	-0.600	1.070
2020/01/31 04:03:43.0	94.230	-0.210	-0.670	1.080
2020/01/31 04:03:43.1	94.230	-0.170	-0.740	1.100
2020/01/31 04:03:43.2	94.220	-0.120	-0.790	1.110
2020/01/31 04:03:43.3	94.200	-0.080	-0.840	1.130
2020/01/31 04:03:43.4	94.180	-0.030	-0.870	1.150
2020/01/31 04:03:43.5	94.150	0.010	-0.890	1.160
2020/01/31 04:03:43.6	94.120	0.040	-0.900	1.180
2020/01/31 04:03:43.7	94.100	0.070	-0.910	1.200
2020/01/31 04:03:43.8	94.070	0.100	-0.900	1.220
2020/01/31 04:03:43.9	94.030	0.130	-0.880	1.240
2020/01/31 04:03:44.0	94.000	0.150	-0.850	1.260
2020/01/31 04:03:44.1	93.980	0.170	-0.810	1.280
2020/01/31 04:03:44.2	93.940	0.180	-0.770	1.300
2020/01/31 04:03:44.3	93.910	0.190	-0.720	1.310
2020/01/31 04:03:44.4	93.880	0.200	-0.660	1.320
2020/01/31 04:03:44.5	93.850	0.200	-0.600	1.330
2020/01/31 04:03:44.6	93.830	0.200	-0.540	1.340
2020/01/31 04:03:44.7	93.800	0.200	-0.480	1.340
2020/01/31 04:03:44.8	93.780	0.200	-0.420	1.340
2020/01/31 04:03:44.9	93.760	0.200	-0.360	1.340
2020/01/31 04:03:45.0	93.740	0.190	-0.300	1.330
2020/01/31 04:03:45.1	93.740	0.180	-0.250	1.310
2020/01/31 04:03:45.2	93.730	0.180	-0.200	1.290
2020/01/31 04:03:45.3	93.720	0.170	-0.160	1.260
2020/01/31 04:03:45.4	93.720	0.170	-0.120	1.230
2020/01/31 04:03:45.5	93.720	0.160	-0.090	1.200
2020/01/31 04:03:45.6	93.720	0.160	-0.070	1.160
2020/01/31 04:03:45.7	93.730	0.160	-0.060	1.120
2020/01/31 04:03:45.8	93.730	0.160	-0.050	1.080
2020/01/31 04:03:45.9	93.740	0.160	-0.060	1.030
2020/01/31 04:03:46.0	93.750	0.160	-0.070	0.990
2020/01/31 04:03:46.1	93.760	0.160	-0.080	0.940
2020/01/31 04:03:46.2	93.770	0.170	-0.110	0.900
2020/01/31 04:03:46.3	93.780	0.180	-0.140	0.850
2020/01/31 04:03:46.4	93.790	0.190	-0.170	0.810
2020/01/31 04:03:46.5	93.790	0.200	-0.210	0.770
2020/01/31 04:03:46.6	93.790	0.210	-0.250	0.730
2020/01/31 04:03:46.7	93.790	0.220	-0.290	0.690
2020/01/31 04:03:46.8	93.790	0.230	-0.340	0.650
2020/01/31 04:03:46.9	93.780	0.240	-0.380	0.610
2020/01/31 04:03:47.0	93.780	0.250	-0.420	0.570
2020/01/31 04:03:47.1	93.740	0.260	-0.470	0.530
2020/01/31 04:03:47.2	93.730	0.270	-0.500	0.490
2020/01/31 04:03:47.3	93.720	0.280	-0.540	0.460
2020/01/31 04:03:47.4	93.700	0.280	-0.560	0.420
2020/01/31 04:03:47.5	93.690	0.290	-0.580	0.380
2020/01/31 04:03:47.6	93.670	0.290	-0.600	0.350
2020/01/31 04:03:47.7	93.650	0.290	-0.610	0.320
2020/01/31 04:03:47.8	93.630	0.290	-0.610	0.290
2020/01/31 04:03:47.9	93.600	0.280	-0.600	0.270
2020/01/31 04:03:48.0	93.580	0.270	-0.590	0.260
2020/01/31 04:03:48.1	93.550	0.270	-0.570	0.240
2020/01/31 04:03:48.2	93.520	0.250	-0.540	0.240
2020/01/31 04:03:48.3	93.490	0.240	-0.510	0.240
2020/01/31 04:03:48.4	93.460	0.220	-0.470	0.240
2020/01/31 04:03:48.5	93.430	0.210	-0.420	0.260
2020/01/31 04:03:48.6	93.390	0.190	-0.380	0.280
2020/01/31 04:03:48.7	93.360	0.160	-0.320	0.300
2020/01/31 04:03:48.8	93.330	0.140	-0.270	0.340
2020/01/31 04:03:48.9	93.290	0.120	-0.210	0.370
2020/01/31 04:03:49.0	93.260	0.100	-0.150	0.410
2020/01/31 04:03:49.1	93.250	0.070	-0.100	0.460
2020/01/31 04:03:49.2	93.220	0.050	-0.040	0.500
2020/01/31 04:03:49.3	93.190	0.020	0.020	0.540
2020/01/31 04:03:49.4	93.150	0.000	0.070	0.590
2020/01/31 04:03:49.5	93.120	-0.020	0.120	0.630
2020/01/31 04:03:49.6	93.100	-0.040	0.160	0.680
2020/01/31 04:03:49.7	93.070	-0.060	0.200	0.720
2020/01/31 04:03:49.8	93.050	-0.080	0.240	0.750
2020/01/31 04:03:49.9	93.030	-0.090	0.260	0.780
2020/01/31 04:03:50.0	93.010	-0.110	0.280	0.810
2020/01/31 04:03:50.1	92.990	-0.120	0.300	0.830
2020/01/31 04:03:50.2	92.980	-0.130	0.300	0.850
2020/01/31 04:03:50.3	92.980	-0.140	0.300	0.860
2020/01/31 04:03:50.4	92.980	-0.140	0.290	0.870
2020/01/31 04:03:50.5	92.990	-0.140	0.270	0.870
2020/01/31 04:03:50.6	93.000	-0.150	0.250	0.870
2020/01/31 04:03:50.7	93.010	-0.140	0.220	0.860
2020/01/31 04:03:50.8	93.030	-0.140	0.190	0.850
2020/01/31 04:03:50.9	93.050	-0.140	0.150	0.840
2020/01/31 04:03:51.0	93.080	-0.130	0.110	0.830
2020/01/31 04:03:51.1	93.120	-0.120	0.060	0.810
2020/01/31 04:03:51.2	93.150	-0.120	0.010	0.790
2020/01/31 04:03:51.3	93.180	-0.110	-0.040	0.780
2020/01/31 04:03:51.4	93.210	-0.100	-0.090	0.760
2020/01/31 04:03:51.5	93.250	-0.090	-0.140	0.750
2020/01/31 04:03:51.6	93.280	-0.080	-0.190	0.730
2020/01/31 04:03:51.7	93.320	-0.070	-0.240	0.720
2020/01/31 04:03:51.8	93.350	-0.060	-0.280	0.710
2020/01/31 04:03:51.9	93.390	-0.050	-0.330	0.700
2020/01/31 04:03:52.0	93.420	-0.040	-0.370	0.700
2020/01/31 04:03:52.1	93.450	-0.030	-0.410	0.690
2020/01/31 04:03:52.2	93.480	-0.020	-0.440	0.690
2020/01/31 04:03:52.3	93.510	-0.020	-0.470	0.690
2020/01/31 04:03:52.4	93.530	-0.010	-0.490	0.700
2020/01/31 04:03:52.5	93.550	-0.010	-0.510	0.710
2020/01/31 04:03:52.6	93.570	-0.010	-0.520	0.720
2020/01/31 04:03:52.7	93.590	-0.010	-0.530	0.730
2020/01/31 04:03:52.8	93.600	-0.010	-0.530	0.740
2020/01/31 04:03:52.9	93.600	-0.020	-0.520	0.760
2020/01/31 04:03:53.0	93.600	-0.020	-0.500	0.780
2020/01/31 04:03:53.1	93.600	-0.030	-0.480	0.800
2020/01/31 04:03:53.2	93.600	-0.040	-0.450	0.830
2020/01/31 04:03:53.3	93.590	-0.050	-0.420	0.850
2020/01/31 04:03:53.4	93.570	-0.060	-0.380	0.880
2020/01/31 04:03:53.5	93.560	-0.070	-0.340	0.910
2020/01/31 04:03:53.6	93.540	-0.090	-0.290	0.930
2020/01/31 04:03:53.7	93.520	-0.100	-0.240	0.960
2020/01/31 04:03:53.8	93.490	-0.120	-0.180	0.990
2020/01/31 04:03:53.9	93.470	-0.140	-0.130	1.020
2020/01/31 04:03:54.0	93.440	-0.160	-0.070	1.050
2020/01/31 04:03:54.1	93.400	-0.180	-0.010	1.070
2020/01/31 04:03:54.2	93.370	-0.190	0.050	1.100
2020/01/31 04:03:54.3	93.340	-0.210	0.100	1.120
2020/01/31 04:03:54.4	93.310	-0.230	0.150	1.140
2020/01/31 04:03:54.5	93.290	-0.240	0.200	1.160
2020/01/31 04:03:54.6	93.260	-0.260	0.240	1.170
2020/01/31 04:03:54.7	93.240	-0.270	0.280	1.180
2020/01/31 04:03:54.8	93.220	-0.280	0.300	1.190
2020/01/31 04:03:54.9	93.200	-0.290	0.320	1.200
2020/01/31 04:03:55.0	93.180	-0.300	0.340	1.200
2020/01/31 04:03:55.1	93.170	-0.300	0.340	1.190
2020/01/31 04:03:55.2	93.160	-0.300	0.340	1.180
2020/01/31 04:03:55.3	93.150	-0.290	0.320	1.170
2020/01/31 04:03:55.4	93.150	-0.290	0.300	1.160
2020/01/31 04:03:55.5	93.150	-0.270	0.270	1.140
2020/01/31 04:03:55.6	93.150	-0.260	0.230	1.120
2020/01/31 04:03:55.7	93.160	-0.240	0.180	1.090
2020/01/31 04:03:55.8	93.170	-0.220	0.120	1.060
2020/01/31 04:03:55.9	93.180	-0.190	0.060	1.030
2020/01/31 04:03:56.0	93.190	-0.160	-0.010	0.990
2020/01/31 04:03:56.1	93.190	-0.130	-0.090	0.960
2020/01/31 04:03:56.2	93.210	-0.090	-0.160	0.920
2020/01/31 04:03:56.3	93.230	-0.060	-0.240	0.870
2020/01/31 04:03:56.4	93.250	-0.020	-0.320	0.820
2020/01/31 04:03:56.5	93.280	0.020	-0.400	0.770
2020/01/31 04:03:56.6	93.300	0.060	-0.480	0.720
2020/01/31 04:03:56.7	93.320	0.110	-0.560	0.660
2020/01/31 04:03:56.8	93.350	0.150	-0.630	0.610
2020/01/31 04:03:56.9	93.370	0.190	-0.700	0.560
2020/01/31 04:03:57.0	93.390	0.230	-0.770	0.500
2020/01/31 04:03:57.1	93.420	0.280	-0.830	0.450
2020/01/31 04:03:57.2	93.440	0.320	-0.880	0.400
2020/01/31 04:03:57.3	93.450	0.350	-0.920	0.360
2020/01/31 04:03:57.4	93.470	0.390	-0.960	0.320
2020/01/31 04:03:57.5	93.480	0.420	-0.990	0.280
2020/01/31 04:03:57.6	93.500	0.450	-1.000	0.250
2020/01/31 04:03:57.7	93.510	0.480	-1.010	0.220
2020/01/31 04:03:57.8	93.510	0.500	-1.010	0.200
2020/01/31 04:03:57.9	93.520	0.520	-1.010	0.190
2020/01/31 04:03:58.0	93.520	0.530	-0.990	0.180
2020/01/31 04:03:58.1	93.510	0.540	-0.960	0.180
2020/01/31 04:03:58.2	93.510	0.540	-0.930	0.190
2020/01/31 04:03:58.3	93.510	0.540	-0.890	0.200
2020/01/31 04:03:58.4	93.510	0.530	-0.840	0.210
2020/01/31 04:03:58.5	93.500	0.520	-0.790	0.230
2020/01/31 04:03:58.6	93.490	0.500	-0.730	0.260
2020/01/31 04:03:58.7	93.490	0.480	-0.660	0.290
2020/01/31 04:03:58.8	93.480	0.450	-0.600	0.330
2020/01/31 04:03:58.9	93.470	0.420	-0.530	0.370
2020/01/31 04:03:59.0	93.460	0.380	-0.450	0.410
2020/01/31 04:03:59.1	93.460	0.340	-0.380	0.460
2020/01/31 04:03:59.2	93.450	0.300	-0.300	0.510
2020/01/31 04:03:59.3	93.440	0.250	-0.230	0.560
2020/01/31 04:03:59.4	93.430	0.200	-0.160	0.610
2020/01/31 04:03:59.5	93.420	0.140	-0.090	0.670
2020/01/31 04:03:59.6	93.410	0.090	-0.020	0.720
2020/01/31 04:03:59.7	93.400	0.030	0.050	0.770
2020/01/31 04:03:59.8	93.390	-0.030	0.110	0.820
2020/01/31 04:03:59.9	93.380	-0.090	0.170	0.870
2020/01/31 04:04:00.0	93.370	-0.140	0.220	0.910
2020/01/31 04:04:00.1	93.360	-0.200	0.260	0.950
2020/01/31 04:04:00.2	93.350	-0.260	0.300	0.990
2020/01/31 04:04:00.3	93.340	-0.310	0.340	1.030
2020/01/31 04:04:00.4	93.320	-0.360	0.370	1.060
2020/01/31 04:04:00.5	93.310	-0.410	0.390	1.080
2020/01/31 04:04:00.6	93.300	-0.460	0.410	1.100
2020/01/31 04:04:00.7	93.290	-0.500	0.420	1.120
2020/01/31 04:04:00.8	93.290	-0.540	0.420	1.130
2020/01/31 04:04:00.9	93.280	-0.570	0.420	1.140
2020/01/31 04:04:01.0	93.270	-0.600	0.410	1.140
2020/01/31 04:04:01.1	93.260	-0.630	0.400	1.150
2020/01/31 04:04:01.2	93.260	-0.650	0.380	1.140
2020/01/31 04:04:01.3	93.260	-0.660	0.350	1.130
2020/01/31 04:04:01.4	93.260	-0.670	0.320	1.130
2020/01/31 04:04:01.5	93.260	-0.680	0.280	1.110
2020/01/31 04:04:01.6	93.260	-0.680	0.240	1.100
2020/01/31 04:04:01.7	93.270	-0.670	0.200	1.090
2020/01/31 04:04:01.8	93.270	-0.660	0.160	1.070
2020/01/31 04:04:01.9	93.280	-0.640	0.110	1.060
2020/01/31 04:04:02.0	93.290	-0.630	0.060	1.040
2020/01/31 04:04:02.1	93.310	-0.600	0.010	1.020
2020/01/31 04:04:02.2	93.320	-0.580	-0.040	1.010
2020/01/31 04:04:02.3	93.330	-0.550	-0.100	0.990
2020/01/31 04:04:02.4	93.340	-0.520	-0.140	0.970
2020/01/31 04:04:02.5	93.350	-0.480	-0.190	0.960
2020/01/31 04:04:02.6	93.360	-0.440	-0.240	0.940
2020/01/31 04:04:02.7	93.370	-0.410	-0.290	0.920
2020/01/31 04:04:02.8	93.390	-0.370	-0.330	0.890
2020/01/31 04:04:02.9	93.400	-0.330	-0.370	0.870
2020/01/31 04:04:03.0	93.410	-0.280	-0.410	0.850
2020/01/31 04:04:03.1	93.420	-0.240	-0.440	0.830
2020/01/31 04:04:03.2	93.440	-0.200	-0.470	0.800
2020/01/31 04:04:03.3	93.450	-0.160	-0.490	0.770
2020/01/31 04:04:03.4	93.460	-0.130	-0.510	0.740
2020/01/31 04:04:03.5	93.470	-0.090	-0.530	0.710
2020/01/31 04:04:03.6	93.480	-0.050	-0.540	0.680
2020/01/31 04:04:03.7	93.490	-0.020	-0.550	0.650
2020/01/31 04:04:03.8	93.500	0.010	-0.550	0.620
2020/01/31 04:04:03.9	93.510	0.040	-0.540	0.590
2020/01/31 04:04:04.0	93.510	0.070	-0.530	0.560
2020/01/31 04:04:04.1	93.510	0.100	-0.520	0.530
2020/01/31 04:04:04.2	93.510	0.120	-0.500	0.510
2020/01/31 04:04:04.3	93.510	0.140	-0.470	0.480
2020/01/31 04:04:04.4	93.520	0.160	-0.440	0.460
2020/01/31 04:04:04.5	93.520	0.170	-0.410	0.440
2020/01/31 04:04:04.6	93.510	0.180	-0.370	0.420
2020/01/31 04:04:04.7	93.510	0.190	-0.330	0.400
2020/01/31 04:04:04.8	93.510	0.200	-0.290	0.390
2020/01/31 04:04:04.9	93.500	0.210	-0.240	0.370
2020/01/31 04:04:05.0	93.490	0.210	-0.200	0.360
2020/01/31 04:04:05.1	93.500	0.220	-0.150	0.350
2020/01/31 04:04:05.2	93.490	0.220	-0.110	0.350
2020/01/31 04:04:05.3	93.480	0.220	-0.070	0.340
2020/01/31 04:04:05.4	93.470	0.220	-0.030	0.340
2020/01/31 04:04:05.5	93.460	0.210	0.010	0.330
2020/01/31 04:04:05.6	93.450	0.210	0.050	0.330
2020/01/31 04:04:05.7	93.440	0.210	0.070	0.330
2020/01/31 04:04:05.8	93.430	0.210	0.100	0.330
2020/01/31 04:04:05.9	93.430	0.210	0.120	0.320
2020/01/31 04:04:06.0	93.420	0.210	0.130	0.320
2020/01/31 04:04:06.1	93.420	0.210	0.140	0.320
2020/01/31 04:04:06.2	93.410	0.210	0.130	0.320
2020/01/31 04:04:06.3	93.410	0.220	0.120	0.310
2020/01/31 04:04:06.4	93.410	0.220	0.110	0.310
2020/01/31 04:04:06.5	93.410	0.230	0.080	0.300
2020/01/31 04:04:06.6	93.410	0.240	0.050	0.290
2020/01/31 04:04:06.7	93.410	0.250	0.010	0.280
2020/01/31 04:04:06.8	93.410	0.270	-0.040	0.270
2020/01/31 04:04:06.9	93.410	0.280	-0.090	0.260
2020/01/31 04:04:07.0	93.420	0.300	-0.160	0.250
2020/01/31 04:04:07.1	93.440	0.330	-0.220	0.240
2020/01/31 04:04:07.2	93.450	0.350	-0.290	0.230
2020/01/31 04:04:07.3	93.450	0.380	-0.370	0.220
2020/01/31 04:04:07.4	93.460	0.400	-0.450	0.210
2020/01/31 04:04:07.5	93.470	0.430	-0.530	0.200
2020/01/31 04:04:07.6	93.480	0.460	-0.620	0.200
2020/01/31 04:04:07.7	93.490	0.490	-0.700	0.190
2020/01/31 04:04:07.8	93.500	0.520	-0.780	0.190
2020/01/31 04:04:07.9	93.510	0.550	-0.860	0.200
2020/01/31 04:04:08.0	93.520	0.580	-0.930	0.210
2020/01/31 04:04:08.1	93.530	0.610	-0.990	0.220
2020/01/31 04:04:08.2	93.540	0.630	-1.050	0.240
2020/01/31 04:04:08.3	93.550	0.650	-1.100	0.260
2020/01/31 04:04:08.4	93.560	0.670	-1.130	0.290
2020/01/31 04:04:08.5	93.570	0.680	-1.160	0.330
2020/01/31 04:04:08.6	93.570	0.690	-1.170	0.370
2020/01/31 04:04:08.7	93.580	0.690	-1.170	0.410
2020/01/31 04:04:08.8	93.590	0.680	-1.150	0.460
2020/01/31 04:04:08.9	93.590	0.670	-1.130	0.510
2020/01/31 04:04:09.0	93.590	0.650	-1.080	0.560
2020/01/31 04:04:09.1	93.600	0.630	-1.030	0.610
2020/01/31 04:04:09.2	93.600	0.590	-0.960	0.670
2020/01/31 04:04:09.3	93.600	0.560	-0.880	0.730
2020/01/31 04:04:09.4	93.600	0.510	-0.790	0.790
2020/01/31 04:04:09.5	93.590	0.460	-0.690	0.850
2020/01/31 04:04:09.6	93.590	0.400	-0.570	0.910
2020/01/31 04:04:09.7	93.590	0.340	-0.450	0.970
2020/01/31 04:04:09.8	93.580	0.270	-0.330	1.030
2020/01/31 04:04:09.9	93.570	0.190	-0.200	1.080
2020/01/31 04:04:10.0	93.570	0.110	-0.060	1.130
2020/01/31 04:04:10.1	93.560	0.030	0.080	1.190
2020/01/31 04:04:10.2	93.550	-0.060	0.210	1.240
2020/01/31 04:04:10.3	93.550	-0.150	0.350	1.280
2020/01/31 04:04:10.4	93.540	-0.240	0.480	1.320
2020/01/31 04:04:10.5	93.540	-0.330	0.610	1.360
2020/01/31 04:04:10.6	93.530	-0.420	0.730	1.390
2020/01/31 04:04:10.7	93.530	-0.510	0.850	1.420
2020/01/31 04:04:10.8	93.520	-0.600	0.950	1.440
2020/01/31 04:04:10.9	93.520	-0.680	1.050	1.450
2020/01/31 04:04:11.0	93.510	-0.770	1.130	1.470
2020/01/31 04:04:11.1	93.510	-0.840	1.210	1.470
2020/01/31 04:04:11.2	93.510	-0.920	1.270	1.470
2020/01/31 04:04:11.3	93.510	-0.980	1.310	1.470
2020/01/31 04:04:11.4	93.510	-1.040	1.340	1.460
2020/01/31 04:04:11.5	93.510	-1.090	1.350	1.450
2020/01/31 04:04:11.6	93.510	-1.140	1.350	1.440
2020/01/31 04:04:11.7	93.510	-1.170	1.330	1.420
2020/01/31 04:04:11.8	93.510	-1.200	1.300	1.410
2020/01/31 04:04:11.9	93.500	-1.220	1.250	1.390
2020/01/31 04:04:12.0	93.500	-1.220	1.180	1.370
2020/01/31 04:04:12.1	93.510	-1.220	1.090	1.350
2020/01/31 04:04:12.2	93.500	-1.200	1.000	1.330
2020/01/31 04:04:12.3	93.500	-1.180	0.890	1.310
2020/01/31 04:04:12.4	93.490	-1.150	0.770	1.290
2020/01/31 04:04:12.5	93.490	-1.110	0.640	1.270
2020/01/31 04:04:12.6	93.480	-1.050	0.510	1.250
2020/01/31 04:04:12.7	93.470	-1.000	0.360	1.230
2020/01/31 04:04:12.8	93.460	-0.930	0.210	1.210
2020/01/31 04:04:12.9	93.450	-0.860	0.060	1.190
2020/01/31 04:04:13.0	93.450	-0.780	-0.100	1.160
2020/01/31 04:04:13.1	93.420	-0.700	-0.260	1.130
2020/01/31 04:04:13.2	93.420	-0.610	-0.420	1.100
2020/01/31 04:04:13.3	93.410	-0.520	-0.570	1.070
2020/01/31 04:04:13.4	93.410	-0.420	-0.730	1.040
2020/01/31 04:04:13.5	93.400	-0.330	-0.870	1.000
2020/01/31 04:04:13.6	93.400	-0.230	-1.010	0.970
2020/01/31 04:04:13.7	93.400	-0.140	-1.150	0.940
2020/01/31 04:04:13.8	93.400	-0.040	-1.270	0.900
2020/01/31 04:04:13.9	93.410	0.050	-1.380	0.870
2020/01/31 04:04:14.0	93.410	0.140	-1.490	0.830
2020/01/31 04:04:14.1	93.410	0.230	-1.580	0.800
2020/01/31 04:04:14.2	93.420	0.310	-1.650	0.760
2020/01/31 04:04:14.3	93.430	0.390	-1.720	0.730
2020/01/31 04:04:14.4	93.440	0.470	-1.760	0.710
2020/01/31 04:04:14.5	93.450	0.530	-1.800	0.680
2020/01/31 04:04:14.6	93.470	0.600	-1.820	0.660
2020/01/31 04:04:14.7	93.480	0.650	-1.820	0.640
2020/01/31 04:04:14.8	93.490	0.700	-1.810	0.620
2020/01/31 04:04:14.9	93.500	0.740	-1.780	0.610
2020/01/31 04:04:15.0	93.520	0.770	-1.740	0.600
2020/01/31 04:04:15.1	93.530	0.790	-1.680	0.590
2020/01/31 04:04:15.2	93.540	0.800	-1.600	0.590
2020/01/31 04:04:15.3	93.550	0.810	-1.520	0.580
2020/01/31 04:04:15.4	93.560	0.810	-1.420	0.580
2020/01/31 04:04:15.5	93.570	0.800	-1.300	0.580
2020/01/31 04:04:15.6	93.570	0.780	-1.180	0.580
2020/01/31 04:04:15.7	93.580	0.750	-1.050	0.580
2020/01/31 04:04:15.8	93.580	0.720	-0.910	0.580
2020/01/31 04:04:15.9	93.580	0.680	-0.760	0.580
2020/01/31 04:04:16.0	93.590	0.630	-0.610	0.580
2020/01/31 04:04:16.1	93.590	0.580	-0.450	0.590
2020/01/31 04:04:16.2	93.590	0.520	-0.290	0.590
2020/01/31 04:04:16.3	93.580	0.460	-0.140	0.580
2020/01/31 04:04:16.4	93.570	0.390	0.010	0.580
2020/01/31 04:04:16.5	93.570	0.320	0.160	0.580
2020/01/31 04:04:16.6	93.560	0.250	0.300	0.570
2020/01/31 04:04:16.7	93.550	0.180	0.440	0.560
2020/01/31 04:04:16.8	93.530	0.110	0.570	0.560
2020/01/31 04:04:16.9	93.520	0.040	0.680	0.550
2020/01/31 04:04:17.0	93.510	-0.030	0.790	0.540
2020/01/31 04:04:17.1	93.500	-0.090	0.880	0.520
2020/01/31 04:04:17.2	93.480	-0.160	0.960	0.510
2020/01/31 04:04:17.3	93.470	-0.210	1.030	0.500
2020/01/31 04:04:17.4	93.460	-0.270	1.080	0.490
2020/01/31 04:04:17.5	93.450	-0.310	1.110	0.480
2020/01/31 04:04:17.6	93.440	-0.350	1.130	0.470
2020/01/31 04:04:17.7	93.430	-0.390	1.140	0.460
2020/01/31 04:04:17.8	93.430	-0.410	1.130	0.450
2020/01/31 04:04:17.9	93.420	-0.430	1.100	0.440
2020/01/31 04:04:18.0	93.420	-0.450	1.060	0.430
2020/01/31 04:04:18.1	93.410	-0.450	1.010	0.420
2020/01/31 04:04:18.2	93.410	-0.450	0.940	0.410
2020/01/31 04:04:18.3	93.410	-0.430	0.860	0.410
2020/01/31 04:04:18.4	93.410	-0.420	0.760	0.400
2020/01/31 04:04:18.5	93.410	-0.390	0.660	0.400
2020/01/31 04:04:18.6	93.410	-0.360	0.550	0.400
2020/01/31 04:04:18.7	93.400	-0.320	0.440	0.400
2020/01/31 04:04:18.8	93.400	-0.280	0.320	0.400
2020/01/31 04:04:18.9	93.400	-0.230	0.200	0.410
2020/01/31 04:04:19.0	93.400	-0.180	0.070	0.410
2020/01/31 04:04:19.1	93.390	-0.130	-0.060	0.410
2020/01/31 04:04:19.2	93.390	-0.080	-0.180	0.420
2020/01/31 04:04:19.3	93.380	-0.020	-0.300	0.430
2020/01/31 04:04:19.4	93.370	0.040	-0.410	0.440
2020/01/31 04:04:19.5	93.370	0.090	-0.520	0.450
2020/01/31 04:04:19.6	93.360	0.150	-0.620	0.460
2020/01/31 04:04:19.7	93.350	0.200	-0.720	0.470
2020/01/31 04:04:19.8	93.340	0.260	-0.800	0.480
2020/01/31 04:04:19.9	93.330	0.300	-0.880	0.490
2020/01/31 04:04:20.0	93.320	0.350	-0.940	0.510
2020/01/31 04:04:20.1	93.320	0.390	-0.990	0.520
2020/01/31 04:04:20.2	93.310	0.430	-1.040	0.540
2020/01/31 04:04:20.3	93.300	0.460	-1.070	0.550
2020/01/31 04:04:20.4	93.290	0.490	-1.080	0.570
2020/01/31 04:04:20.5	93.280	0.510	-1.090	0.580
2020/01/31 04:04:20.6	93.270	0.520	-1.090	0.600
2020/01/31 04:04:20.7	93.270	0.530	-1.080	0.620
2020/01/31 04:04:20.8	93.260	0.540	-1.050	0.630
2020/01/31 04:04:20.9	93.260	0.530	-1.020	0.650
2020/01/31 04:04:21.0	93.250	0.530	-0.980	0.670
2020/01/31 04:04:21.1	93.280	0.510	-0.930	0.700
2020/01/31 04:04:21.2	93.280	0.490	-0.870	0.720
2020/01/31 04:04:21.3	93.280	0.470	-0.810	0.740
2020/01/31 04:04:21.4	93.280	0.440	-0.740	0.770
2020/01/31 04:04:21.5	93.280	0.410	-0.670	0.790
2020/01/31 04:04:21.6	93.280	0.370	-0.600	0.820
2020/01/31 04:04:21.7	93.290	0.330	-0.520	0.850
2020/01/31 04:04:21.8	93.290	0.290	-0.440	0.880
2020/01/31 04:04:21.9	93.300	0.240	-0.360	0.910
2020/01/31 04:04:22.0	93.300	0.200	-0.280	0.940
2020/01/31 04:04:22.1	93.320	0.150	-0.210	0.980
2020/01/31 04:04:22.2	93.320	0.100	-0.130	1.010
2020/01/31 04:04:22.3	93.320	0.040	-0.050	1.040
2020/01/31 04:04:22.4	93.320	-0.010	0.020	1.070
2020/01/31 04:04:22.5	93.320	-0.060	0.090	1.110
2020/01/31 04:04:22.6	93.320	-0.110	0.150	1.140
2020/01/31 04:04:22.7	93.320	-0.160	0.220	1.170
2020/01/31 04:04:22.8	93.320	-0.210	0.270	1.210
2020/01/31 04:04:22.9	93.320	-0.260	0.330	1.240
2020/01/31 04:04:23.0	93.320	-0.300	0.370	1.270
2020/01/31 04:04:23.1	93.310	-0.340	0.420	1.290
2020/01/31 04:04:23.2	93.310	-0.380	0.460	1.310
2020/01/31 04:04:23.3	93.310	-0.420	0.480	1.340
2020/01/31 04:04:23.4	93.300	-0.450	0.510	1.350
2020/01/31 04:04:23.5	93.300	-0.480	0.520	1.370
2020/01/31 04:04:23.6	93.300	-0.510	0.530	1.380
2020/01/31 04:04:23.7	93.300	-0.530	0.540	1.390
2020/01/31 04:04:23.8	93.290	-0.550	0.530	1.390
2020/01/31 04:04:23.9	93.290	-0.560	0.520	1.390
2020/01/31 04:04:24.0	93.290	-0.570	0.510	1.380
2020/01/31 04:04:24.1	93.310	-0.580	0.480	1.370
2020/01/31 04:04:24.2	93.310	-0.580	0.450	1.360
2020/01/31 04:04:24.3	93.310	-0.570	0.410	1.340
2020/01/31 04:04:24.4	93.310	-0.560	0.370	1.320
2020/01/31 04:04:24.5	93.320	-0.550	0.320	1.300
2020/01/31 04:04:24.6	93.320	-0.530	0.270	1.270
2020/01/31 04:04:24.7	93.330	-0.510	0.210	1.250
2020/01/31 04:04:24.8	93.330	-0.480	0.150	1.220
2020/01/31 04:04:24.9	93.330	-0.450	0.080	1.190
2020/01/31 04:04:25.0	93.330	-0.420	0.020	1.170
2020/01/31 04:04:25.1	93.330	-0.380	-0.050	1.140
2020/01/31 04:04:25.2	93.330	-0.340	-0.130	1.110
2020/01/31 04:04:25.3	93.330	-0.300	-0.200	1.080
2020/01/31 04:04:25.4	93.320	-0.250	-0.270	1.060
2020/01/31 04:04:25.5	93.320	-0.210	-0.340	1.040
2020/01/31 04:04:25.6	93.310	-0.160	-0.410	1.010
2020/01/31 04:04:25.7	93.300	-0.110	-0.470	0.990
2020/01/31 04:04:25.8	93.290	-0.060	-0.530	0.970
2020/01/31 04:04:25.9	93.280	-0.020	-0.590	0.950
2020/01/31 04:04:26.0	93.270	0.030	-0.640	0.930
2020/01/31 04:04:26.1	93.260	0.070	-0.700	0.910
2020/01/31 04:04:26.2	93.240	0.120	-0.740	0.890
2020/01/31 04:04:26.3	93.230	0.160	-0.780	0.870
2020/01/31 04:04:26.4	93.220	0.200	-0.810	0.850
2020/01/31 04:04:26.5	93.210	0.230	-0.840	0.830
2020/01/31 04:04:26.6	93.190	0.260	-0.860	0.810
2020/01/31 04:04:26.7	93.180	0.290	-0.870	0.790
2020/01/31 04:04:26.8	93.170	0.320	-0.880	0.770
2020/01/31 04:04:26.9	93.160	0.340	-0.880	0.750
2020/01/31 04:04:27.0	93.150	0.350	-0.880	0.730
2020/01/31 04:04:27.1	93.140	0.370	-0.870	0.710
2020/01/31 04:04:27.2	93.130	0.370	-0.860	0.690
2020/01/31 04:04:27.3	93.120	0.380	-0.840	0.670
2020/01/31 04:04:27.4	93.110	0.380	-0.810	0.660
2020/01/31 04:04:27.5	93.100	0.380	-0.780	0.640
2020/01/31 04:04:27.6	93.090	0.370	-0.750	0.620
2020/01/31 04:04:27.7	93.080	0.360	-0.710	0.610
2020/01/31 04:04:27.8	93.070	0.340	-0.670	0.600
2020/01/31 04:04:27.9	93.070	0.330	-0.630	0.590
2020/01/31 04:04:28.0	93.060	0.310	-0.580	0.590
2020/01/31 04:04:28.1	93.030	0.290	-0.530	0.580
2020/01/31 04:04:28.2	93.030	0.260	-0.480	0.580
2020/01/31 04:04:28.3	93.020	0.240	-0.430	0.580
2020/01/31 04:04:28.4	93.010	0.210	-0.380	0.580
2020/01/31 04:04:28.5	93.010	0.190	-0.330	0.590
2020/01/31 04:04:28.6	93.000	0.160	-0.280	0.590
2020/01/31 04:04:28.7	93.000	0.140	-0.230	0.600
2020/01/31 04:04:28.8	92.990	0.110	-0.180	0.600
2020/01/31 04:04:28.9	92.990	0.080	-0.140	0.610
2020/01/31 04:04:29.0	92.980	0.060	-0.090	0.620
2020/01/31 04:04:29.1	92.970	0.030	-0.050	0.620
2020/01/31 04:04:29.2	92.970	0.010	-0.010	0.630
2020/01/31 04:04:29.3	92.970	-0.010	0.030	0.630
2020/01/31 04:04:29.4	92.970	-0.030	0.060	0.640
2020/01/31 04:04:29.5	92.970	-0.050	0.090	0.640
2020/01/31 04:04:29.6	92.970	-0.070	0.120	0.640
2020/01/31 04:04:29.7	92.970	-0.080	0.140	0.650
2020/01/31 04:04:29.8	92.970	-0.100	0.160	0.650
2020/01/31 04:04:29.9	92.970	-0.110	0.180	0.650
2020/01/31 04:04:30.0	92.970	-0.120	0.190	0.650
2020/01/31 04:04:30.1	92.980	-0.120	0.190	0.660
2020/01/31 04:04:30.2	92.980	-0.130	0.200	0.660
2020/01/31 04:04:30.3	92.970	-0.130	0.200	0.670
2020/01/31 04:04:30.4	92.970	-0.130	0.190	0.670
2020/01/31 04:04:30.5	92.970	-0.130	0.180	0.680
2020/01/31 04:04:30.6	92.970	-0.130	0.170	0.690
2020/01/31 04:04:30.7	92.960	-0.130	0.150	0.710
2020/01/31 04:04:30.8	92.960	-0.120	0.130	0.720
2020/01/31 04:04:30.9	92.950	-0.120	0.110	0.740
2020/01/31 04:04:31.0	92.950	-0.110	0.080	0.760
2020/01/31 04:04:31.1	92.920	-0.100	0.050	0.780
2020/01/31 04:04:31.2	92.920	-0.080	0.010	0.810
2020/01/31 04:04:31.3	92.910	-0.070	-0.020	0.840
2020/01/31 04:04:31.4	92.900	-0.060	-0.060	0.870
2020/01/31 04:04:31.5	92.890	-0.040	-0.100	0.900
2020/01/31 04:04:31.6	92.880	-0.030	-0.140	0.930
2020/01/31 04:04:31.7	92.870	-0.010	-0.180	0.960
2020/01/31 04:04:31.8	92.860	0.000	-0.220	0.990
2020/01/31 04:04:31.9	92.860	0.020	-0.270	1.020
2020/01/31 04:04:32.0	92.850	0.030	-0.310	1.040
2020/01/31 04:04:32.1	92.840	0.050	-0.350	1.070
2020/01/31 04:04:32.2	92.830	0.060	-0.390	1.100
2020/01/31 04:04:32.3	92.830	0.080	-0.430	1.120
2020/01/31 04:04:32.4	92.820	0.090	-0.460	1.140
2020/01/31 04:04:32.5	92.820	0.100	-0.500	1.150
2020/01/31 04:04:32.6	92.820	0.120	-0.530	1.170
2020/01/31 04:04:32.7	92.820	0.130	-0.550	1.180
2020/01/31 04:04:32.8	92.830	0.140	-0.570	1.180
2020/01/31 04:04:32.9	92.830	0.140	-0.590	1.190
2020/01/31 04:04:33.0	92.840	0.150	-0.610	1.190
2020/01/31 04:04:33.1	92.860	0.160	-0.610	1.180
2020/01/31 04:04:33.2	92.880	0.160	-0.610	1.180
2020/01/31 04:04:33.3	92.900	0.170	-0.610	1.170
2020/01/31 04:04:33.4	92.920	0.170	-0.600	1.150
2020/01/31 04:04:33.5	92.940	0.170	-0.590	1.140
2020/01/31 04:04:33.6	92.970	0.160	-0.560	1.130
2020/01/31 04:04:33.7	92.990	0.160	-0.540	1.110
2020/01/31 04:04:33.8	93.020	0.150	-0.500	1.090
2020/01/31 04:04:33.9	93.050	0.150	-0.470	1.080
2020/01/31 04:04:34.0	93.070	0.140	-0.420	1.060
2020/01/31 04:04:34.1	93.110	0.130	-0.370	1.040
2020/01/31 04:04:34.2	93.140	0.110	-0.320	1.030
2020/01/31 04:04:34.3	93.170	0.100	-0.270	1.010
2020/01/31 04:04:34.4	93.190	0.080	-0.210	1.000
2020/01/31 04:04:34.5	93.210	0.060	-0.150	0.990
2020/01/31 04:04:34.6	93.230	0.040	-0.090	0.980
2020/01/31 04:04:34.7	93.250	0.020	-0.030	0.970
2020/01/31 04:04:34.8	93.270	-0.000	0.030	0.960
2020/01/31 04:04:34.9	93.280	-0.020	0.100	0.950
2020/01/31 04:04:35.0	93.290	-0.050	0.150	0.940
2020/01/31 04:04:35.1	93.300	-0.070	0.210	0.940
2020/01/31 04:04:35.2	93.300	-0.090	0.270	0.930
2020/01/31 04:04:35.3	93.310	-0.120	0.320	0.930
2020/01/31 04:04:35.4	93.300	-0.140	0.360	0.920
2020/01/31 04:04:35.5	93.300	-0.160	0.400	0.920
2020/01/31 04:04:35.6	93.300	-0.180	0.430	0.920
2020/01/31 04:04:35.7	93.290	-0.200	0.460	0.920
2020/01/31 04:04:35.8	93.280	-0.210	0.480	0.920
2020/01/31 04:04:35.9	93.270	-0.220	0.480	0.920
2020/01/31 04:04:36.0	93.250	-0.230	0.490	0.920
2020/01/31 04:04:36.1	93.250	-0.240	0.480	0.910
2020/01/31 04:04:36.2	93.230	-0.240	0.460	0.910
2020/01/31 04:04:36.3	93.220	-0.240	0.440	0.910
2020/01/31 04:04:36.4	93.200	-0.230	0.410	0.900
2020/01/31 04:04:36.5	93.180	-0.220	0.370	0.900
2020/01/31 04:04:36.6	93.160	-0.210	0.320	0.900
2020/01/31 04:04:36.7	93.150	-0.190	0.260	0.890
2020/01/31 04:04:36.8	93.130	-0.170	0.200	0.880
2020/01/31 04:04:36.9	93.120	-0.150	0.140	0.860
2020/01/31 04:04:37.0	93.110	-0.120	0.070	0.850
2020/01/31 04:04:37.1	93.100	-0.090	-0.010	0.840
2020/01/31 04:04:37.2	93.100	-0.060	-0.080	0.820
2020/01/31 04:04:37.3	93.090	-0.030	-0.160	0.800
2020/01/31 04:04:37.4	93.090	-0.000	-0.230	0.790
2020/01/31 04:04:37.5	93.080	0.030	-0.310	0.770
2020/01/31 04:04:37.6	93.080	0.060	-0.390	0.750
2020/01/31 04:04:37.7	93.080	0.090	-0.460	0.740
2020/01/31 04:04:37.8	93.070	0.120	-0.530	0.720
2020/01/31 04:04:37.9	93.070	0.150	-0.590	0.710
2020/01/31 04:04:38.0	93.070	0.170	-0.650	0.700
2020/01/31 04:04:38.1	93.080	0.190	-0.700	0.680
2020/01/31 04:04:38.2	93.080	0.210	-0.750	0.660
2020/01/31 04:04:38.3	93.070	0.220	-0.790	0.650
2020/01/31 04:04:38.4	93.070	0.240	-0.820	0.640
2020/01/31 04:04:38.5	93.070	0.240	-0.840	0.630
2020/01/31 04:04:38.6	93.070	0.250	-0.860	0.610
2020/01/31 04:04:38.7	93.060	0.250	-0.870	0.600
2020/01/31 04:04:38.8	93.060	0.250	-0.870	0.590
2020/01/31 04:04:38.9	93.060	0.240	-0.860	0.570
2020/01/31 04:04:39.0	93.060	0.230	-0.850	0.550
2020/01/31 04:04:39.1	93.050	0.220	-0.830	0.540
2020/01/31 04:04:39.2	93.050	0.200	-0.800	0.530
2020/01/31 04:04:39.3	93.050	0.180	-0.770	0.510
2020/01/31 04:04:39.4	93.050	0.160	-0.730	0.490
2020/01/31 04:04:39.5	93.050	0.140	-0.690	0.480
2020/01/31 04:04:39.6	93.040	0.120	-0.650	0.460
2020/01/31 04:04:39.7	93.040	0.090	-0.600	0.440
2020/01/31 04:04:39.8	93.040	0.070	-0.550	0.430
2020/01/31 04:04:39.9	93.040	0.040	-0.500	0.410
2020/01/31 04:04:40.0	93.040	0.020	-0.450	0.400
2020/01/31 04:04:40.1	93.020	-0.010	-0.400	0.380
2020/01/31 04:04:40.2	93.020	-0.030	-0.350	0.370
2020/01/31 04:04:40.3	93.020	-0.050	-0.310	0.360
2020/01/31 04:04:40.4	93.020	-0.070	-0.270	0.360
2020/01/31 04:04:40.5	93.020	-0.080	-0.230	0.360
2020/01/31 04:04:40.6	93.030	-0.090	-0.200	0.360
2020/01/31 04:04:40.7	93.030	-0.100	-0.170	0.360
2020/01/31 04:04:40.8	93.040	-0.100	-0.150	0.370
2020/01/31 04:04:40.9	93.040	-0.100	-0.130	0.380
2020/01/31 04:04:41.0	93.050	-0.100	-0.120	0.390
2020/01/31 04:04:41.1	93.050	-0.090	-0.110	0.410
2020/01/31 04:04:41.2	93.060	-0.080	-0.110	0.430
2020/01/31 04:04:41.3	93.060	-0.060	-0.120	0.450
2020/01/31 04:04:41.4	93.070	-0.050	-0.130	0.480
2020/01/31 04:04:41.5	93.080	-0.020	-0.150	0.500
2020/01/31 04:04:41.6	93.090	-0.000	-0.170	0.530
2020/01/31 04:04:41.7	93.090	0.020	-0.200	0.560
2020/01/31 04:04:41.8	93.100	0.050	-0.230	0.600
2020/01/31 04:04:41.9	93.100	0.080	-0.260	0.630
2020/01/31 04:04:42.0	93.110	0.110	-0.290	0.670
2020/01/31 04:04:42.1	93.100	0.130	-0.330	0.700
2020/01/31 04:04:42.2	93.100	0.160	-0.360	0.730
2020/01/31 04:04:42.3	93.100	0.190	-0.390	0.760
2020/01/31 04:04:42.4	93.100	0.210	-0.420	0.790
2020/01/31 04:04:42.5	93.090	0.230	-0.450	0.820
2020/01/31 04:04:42.6	93.090	0.250	-0.470	0.840
2020/01/31 04:04:42.7	93.080	0.270	-0.490	0.860
2020/01/31 04:04:42.8	93.080	0.290	-0.500	0.880
2020/01/31 04:04:42.9	93.070	0.300	-0.510	0.890
2020/01/31 04:04:43.0	93.060	0.300	-0.510	0.900
2020/01/31 04:04:43.1	93.050	0.310	-0.500	0.910
2020/01/31 04:04:43.2	93.030	0.310	-0.490	0.920
2020/01/31 04:04:43.3	93.020	0.300	-0.480	0.920
2020/01/31 04:04:43.4	93.000	0.290	-0.450	0.930
2020/01/31 04:04:43.5	92.990	0.280	-0.420	0.930
2020/01/31 04:04:43.6	92.970	0.260	-0.380	0.940
2020/01/31 04:04:43.7	92.950	0.240	-0.340	0.940
2020/01/31 04:04:43.8	92.930	0.220	-0.290	0.950
2020/01/31 04:04:43.9	92.910	0.190	-0.230	0.950
2020/01/31 04:04:44.0	92.880	0.160	-0.170	0.960
2020/01/31 04:04:44.1	92.860	0.120	-0.100	0.970
2020/01/31 04:04:44.2	92.840	0.080	-0.030	0.970
2020/01/31 04:04:44.3	92.820	0.040	0.040	0.980
2020/01/31 04:04:44.4	92.800	0.000	0.120	0.990
2020/01/31 04:04:44.5	92.770	-0.040	0.200	0.990
2020/01/31 04:04:44.6	92.750	-0.090	0.280	1.000
2020/01/31 04:04:44.7	92.730	-0.130	0.350	1.000
2020/01/31 04:04:44.8	92.710	-0.180	0.430	1.000
2020/01/31 04:04:44.9	92.690	-0.230	0.500	1.010
2020/01/31 04:04:45.0	92.670	-0.270	0.570	1.000
2020/01/31 04:04:45.1	92.650	-0.320	0.630	1.000
2020/01/31 04:04:45.2	92.630	-0.360	0.690	0.990
2020/01/31 04:04:45.3	92.620	-0.410	0.730	0.980
2020/01/31 04:04:45.4	92.610	-0.440	0.770	0.960
2020/01/31 04:04:45.5	92.600	-0.480	0.800	0.940
2020/01/31 04:04:45.6	92.600	-0.510	0.810	0.920
2020/01/31 04:04:45.7	92.590	-0.540	0.820	0.890
2020/01/31 04:04:45.8	92.600	-0.560	0.810	0.850
2020/01/31 04:04:45.9	92.600	-0.580	0.800	0.810
2020/01/31 04:04:46.0	92.610	-0.600	0.770	0.770
2020/01/31 04:04:46.1	92.620	-0.600	0.730	0.720
2020/01/31 04:04:46.2	92.640	-0.610	0.680	0.670
2020/01/31 04:04:46.3	92.660	-0.600	0.620	0.620
2020/01/31 04:04:46.4	92.680	-0.600	0.540	0.570
2020/01/31 04:04:46.5	92.710	-0.580	0.460	0.510
2020/01/31 04:04:46.6	92.740	-0.570	0.370	0.450
2020/01/31 04:04:46.7	92.770	-0.540	0.280	0.400
2020/01/31 04:04:46.8	92.810	-0.510	0.180	0.340
2020/01/31 04:04:46.9	92.840	-0.480	0.070	0.290
2020/01/31 04:04:47.0	92.880	-0.440	-0.040	0.240
2020/01/31 04:04:47.1	92.930	-0.400	-0.150	0.190
2020/01/31 04:04:47.2	92.960	-0.360	-0.260	0.150
2020/01/31 04:04:47.3	93.000	-0.310	-0.370	0.110
2020/01/31 04:04:47.4	93.040	-0.260	-0.480	0.080
2020/01/31 04:04:47.5	93.080	-0.210	-0.580	0.050
2020/01/31 04:04:47.6	93.110	-0.150	-0.680	0.030
2020/01/31 04:04:47.7	93.140	-0.100	-0.770	0.010
2020/01/31 04:04:47.8	93.170	-0.050	-0.860	-0.000
2020/01/31 04:04:47.9	93.200	0.010	-0.940	-0.000
2020/01/31 04:04:48.0	93.220	0.060	-1.000	-0.000
2020/01/31 04:04:48.1	93.240	0.110	-1.060	0.010
2020/01/31 04:04:48.2	93.250	0.160	-1.110	0.030
2020/01/31 04:04:48.3	93.260	0.210	-1.140	0.050
2020/01/31 04:04:48.4	93.270	0.260	-1.170	0.080
2020/01/31 04:04:48.5	93.270	0.300	-1.190	0.110
2020/01/31 04:04:48.6	93.270	0.340	-1.200	0.150
2020/01/31 04:04:48.7	93.260	0.380	-1.200	0.190
2020/01/31 04:04:48.8	93.250	0.410	-1.190	0.230
2020/01/31 04:04:48.9	93.240	0.430	-1.170	0.280
2020/01/31 04:04:49.0	93.220	0.460	-1.140	0.320
2020/01/31 04:04:49.1	93.200	0.480	-1.110	0.370
2020/01/31 04:04:49.2	93.170	0.490	-1.060	0.420
2020/01/31 04:04:49.3	93.140	0.500	-1.010	0.470
2020/01/31 04:04:49.4	93.110	0.500	-0.950	0.530
2020/01/31 04:04:49.5	93.080	0.500	-0.890	0.580
2020/01/31 04:04:49.6	93.050	0.500	-0.820	0.630
2020/01/31 04:04:49.7	93.010	0.490	-0.750	0.680
2020/01/31 04:04:49.8	92.980	0.480	-0.680	0.730
2020/01/31 04:04:49.9	92.940	0.460	-0.610	0.780
2020/01/31 04:04:50.0	92.910	0.440	-0.530	0.830
2020/01/31 04:04:50.1	92.890	0.420	-0.450	0.880
2020/01/31 04:04:50.2	92.850	0.390	-0.380	0.920
2020/01/31 04:04:50.3	92.820	0.370	-0.300	0.960
2020/01/31 04:04:50.4	92.800	0.340	-0.230	1.000
2020/01/31 04:04:50.5	92.770	0.300	-0.170	1.030
2020/01/31 04:04:50.6	92.740	0.270	-0.100	1.070
2020/01/31 04:04:50.7	92.720	0.230	-0.040	1.090
2020/01/31 04:04:50.8	92.700	0.190	0.020	1.120
2020/01/31 04:04:50.9	92.680	0.160	0.070	1.140
2020/01/31 04:04:51.0	92.660	0.120	0.120	1.150
2020/01/31 04:04:51.1	92.640	0.080	0.160	1.160
2020/01/31 04:04:51.2	92.630	0.040	0.200	1.160
2020/01/31 04:04:51.3	92.620	0.000	0.230	1.160
2020/01/31 04:04:51.4	92.610	-0.040	0.260	1.160
2020/01/31 04:04:51.5	92.600	-0.070	0.280	1.140
2020/01/31 04:04:51.6	92.600	-0.110	0.300	1.130
2020/01/31 04:04:51.7	92.600	-0.140	0.310	1.100
2020/01/31 04:04:51.8	92.600	-0.170	0.320	1.080
2020/01/31 04:04:51.9	92.610	-0.200	0.330	1.050
2020/01/31 04:04:52.0	92.610	-0.230	0.330	1.010
2020/01/31 04:04:52.1	92.620	-0.250	0.330	0.970
2020/01/31 04:04:52.2	92.630	-0.280	0.320	0.930
2020/01/31 04:04:52.3	92.650	-0.300	0.310	0.890
2020/01/31 04:04:52.4	92.660	-0.310	0.290	0.850
2020/01/31 04:04:52.5	92.680	-0.330	0.280	0.810
2020/01/31 04:04:52.6	92.700	-0.340	0.260	0.770
2020/01/31 04:04:52.7	92.730	-0.350	0.230	0.730
2020/01/31 04:04:52.8	92.750	-0.350	0.210	0.690
2020/01/31 04:04:52.9	92.770	-0.360	0.180	0.660
2020/01/31 04:04:53.0	92.790	-0.360	0.150	0.620
2020/01/31 04:04:53.1	92.810	-0.350	0.120	0.590
2020/01/31 04:04:53.2	92.840	-0.340	0.080	0.560
2020/01/31 04:04:53.3	92.860	-0.330	0.050	0.530
2020/01/31 04:04:53.4	92.880	-0.320	0.010	0.510
2020/01/31 04:04:53.5	92.890	-0.310	-0.030	0.490
2020/01/31 04:04:53.6	92.910	-0.290	-0.080	0.470
2020/01/31 04:04:53.7	92.920	-0.270	-0.120	0.450
2020/01/31 04:04:53.8	92.930	-0.240	-0.160	0.440
2020/01/31 04:04:53.9	92.940	-0.210	-0.210	0.430
2020/01/31 04:04:54.0	92.940	-0.190	-0.260	0.430
2020/01/31 04:04:54.1	92.950	-0.160	-0.310	0.430
2020/01/31 04:04:54.2	92.950	-0.120	-0.360	0.430
2020/01/31 04:04:54.3	92.940	-0.090	-0.410	0.430
2020/01/31 04:04:54.4	92.940	-0.060	-0.460	0.440
2020/01/31 04:04:54.5	92.930	-0.020	-0.510	0.450
2020/01/31 04:04:54.6	92.920	0.010	-0.550	0.470
2020/01/31 04:04:54.7	92.910	0.050	-0.600	0.480
2020/01/31 04:04:54.8	92.900	0.080	-0.640	0.500
2020/01/31 04:04:54.9	92.890	0.120	-0.680	0.520
2020/01/31 04:04:55.0	92.870	0.150	-0.710	0.550
2020/01/31 04:04:55.1	92.870	0.180	-0.750	0.570
2020/01/31 04:04:55.2	92.850	0.210	-0.770	0.600
2020/01/31 04:04:55.3	92.830	0.240	-0.790	0.620
2020/01/31 04:04:55.4	92.820	0.260	-0.810	0.650
2020/01/31 04:04:55.5	92.800	0.280	-0.820	0.680
2020/01/31 04:04:55.6	92.780	0.300	-0.820	0.710
2020/01/31 04:04:55.7	92.760	0.310	-0.810	0.730
2020/01/31 04:04:55.8	92.750	0.330	-0.800	0.760
2020/01/31 04:04:55.9	92.730	0.330	-0.790	0.780
2020/01/31 04:04:56.0	92.720	0.340	-0.770	0.810
2020/01/31 04:04:56.1	92.700	0.340	-0.730	0.830
2020/01/31 04:04:56.2	92.690	0.340	-0.700	0.850
2020/01/31 04:04:56.3	92.680	0.330	-0.660	0.870
2020/01/31 04:04:56.4	92.680	0.320	-0.620	0.880
2020/01/31 04:04:56.5	92.670	0.310	-0.570	0.890
2020/01/31 04:04:56.6	92.670	0.300	-0.510	0.900
2020/01/31 04:04:56.7	92.670	0.280	-0.460	0.910
2020/01/31 04:04:56.8	92.680	0.260	-0.400	0.910
2020/01/31 04:04:56.9	92.680	0.240	-0.340	0.910
2020/01/31 04:04:57.0	92.690	0.220	-0.280	0.900
2020/01/31 04:04:57.1	92.710	0.200	-0.210	0.900
2020/01/31 04:04:57.2	92.720	0.170	-0.150	0.890
2020/01/31 04:04:57.3	92.730	0.150	-0.090	0.870
2020/01/31 04:04:57.4	92.740	0.120	-0.030	0.860
2020/01/31 04:04:57.5	92.760	0.100	0.020	0.840
2020/01/31 04:04:57.6	92.770	0.080	0.070	0.830
2020/01/31 04:04:57.7	92.790	0.060	0.120	0.810
2020/01/31 04:04:57.8	92.810	0.040	0.160	0.790
2020/01/31 04:04:57.9	92.830	0.020	0.200	0.760
2020/01/31 04:04:58.0	92.850	0.000	0.230	0.740
2020/01/31 04:04:58.1	92.850	-0.010	0.260	0.720
2020/01/31 04:04:58.2	92.870	-0.020	0.280	0.690
2020/01/31 04:04:58.3	92.890	-0.030	0.300	0.670
2020/01/31 04:04:58.4	92.910	-0.040	0.300	0.640
2020/01/31 04:04:58.5	92.930	-0.040	0.300	0.620
2020/01/31 04:04:58.6	92.950	-0.040	0.300	0.590
2020/01/31 04:04:58.7	92.970	-0.040	0.290	0.570
2020/01/31 04:04:58.8	92.990	-0.030	0.270	0.550
2020/01/31 04:04:58.9	93.010	-0.020	0.250	0.530
2020/01/31 04:04:59.0	93.020	-0.010	0.220	0.510
2020/01/31 04:04:59.1	93.030	-0.000	0.190	0.490
2020/01/31 04:04:59.2	93.040	0.010	0.150	0.480
2020/01/31 04:04:59.3	93.060	0.030	0.110	0.470
2020/01/31 04:04:59.4	93.070	0.040	0.070	0.460
2020/01/31 04:04:59.5	93.080	0.060	0.020	0.450
2020/01/31 04:04:59.6	93.090	0.070	-0.020	0.450
2020/01/31 04:04:59.7	93.100	0.090	-0.070	0.450
2020/01/31 04:04:59.8	93.100	0.110	-0.120	0.460
2020/01/31 04:04:59.9	93.110	0.120	-0.160	0.470
2020/01/31 04:05:00.0	93.120	0.130	-0.210	0.480
2020/01/31 04:05:00.1	93.130	0.140	-0.250	0.500
2020/01/31 04:05:00.2	93.140	0.150	-0.300	0.520
2020/01/31 04:05:00.3	93.140	0.160	-0.330	0.540
2020/01/31 04:05:00.4	93.140	0.160	-0.370	0.570
2020/01/31 04:05:00.5	93.140	0.160	-0.400	0.600
2020/01/31 04:05:00.6	93.150	0.160	-0.430	0.640
2020/01/31 04:05:00.7	93.150	0.160	-0.450	0.670
2020/01/31 04:05:00.8	93.150	0.150	-0.470	0.710
2020/01/31 04:05:00.9	93.150	0.140	-0.480	0.750
2020/01/31 04:05:01.0	93.150	0.130	-0.490	0.790
2020/01/31 04:05:01.1	93.150	0.110	-0.490	0.820
2020/01/31 04:05:01.2	93.150	0.090	-0.480	0.860
2020/01/31 04:05:01.3	93.150	0.060	-0.470	0.900
2020/01/31 04:05:01.4	93.150	0.040	-0.450	0.930
2020/01/31 04:05:01.5	93.150	0.010	-0.430	0.970
2020/01/31 04:05:01.6	93.160	-0.020	-0.400	1.000
2020/01/31 04:05:01.7	93.160	-0.060	-0.360	1.030
2020/01/31 04:05:01.8	93.160	-0.090	-0.320	1.060
2020/01/31 04:05:01.9	93.160	-0.130	-0.280	1.090
2020/01/31 04:05:02.0	93.160	-0.170	-0.230	1.110
2020/01/31 04:05:02.1	93.150	-0.220	-0.180	1.130
2020/01/31 04:05:02.2	93.160	-0.260	-0.120	1.140
2020/01/31 04:05:02.3	93.160	-0.300	-0.070	1.150
2020/01/31 04:05:02.4	93.160	-0.350	-0.010	1.160
2020/01/31 04:05:02.5	93.160	-0.390	0.040	1.160
2020/01/31 04:05:02.6	93.160	-0.440	0.090	1.160
2020/01/31 04:05:02.7	93.160	-0.480	0.150	1.160
2020/01/31 04:05:02.8	93.160	-0.520	0.190	1.150
2020/01/31 04:05:02.9	93.160	-0.560	0.240	1.140
2020/01/31 04:05:03.0	93.170	-0.600	0.280	1.130
2020/01/31 04:05:03.1	93.180	-0.630	0.320	1.120
2020/01/31 04:05:03.2	93.180	-0.670	0.350	1.100
2020/01/31 04:05:03.3	93.180	-0.690	0.380	1.080
2020/01/31 04:05:03.4	93.180	-0.720	0.390	1.060
2020/01/31 04:05:03.5	93.180	-0.740	0.400	1.040
2020/01/31 04:05:03.6	93.180	-0.750	0.400	1.020
2020/01/31 04:05:03.7	93.180	-0.760	0.390	1.010
2020/01/31 04:05:03.8	93.180	-0.760	0.380	0.990
2020/01/31 04:05:03.9	93.180	-0.750	0.350	0.970
2020/01/31 04:05:04.0	93.180	-0.740	0.320	0.960
2020/01/31 04:05:04.1	93.190	-0.730	0.280	0.940
2020/01/31 04:05:04.2	93.190	-0.710	0.230	0.930
2020/01/31 04:05:04.3	93.190	-0.680	0.170	0.910
2020/01/31 04:05:04.4	93.190	-0.640	0.100	0.900
2020/01/31 04:05:04.5	93.190	-0.600	0.030	0.890
2020/01/31 04:05:04.6	93.180	-0.560	-0.050	0.870
2020/01/31 04:05:04.7	93.180	-0.500	-0.130	0.850
2020/01/31 04:05:04.8	93.180	-0.450	-0.220	0.840
2020/01/31 04:05:04.9	93.180	-0.390	-0.310	0.820
2020/01/31 04:05:05.0	93.180	-0.320	-0.400	0.790
2020/01/31 04:05:05.1	93.170	-0.260	-0.500	0.770
2020/01/31 04:05:05.2	93.170	-0.190	-0.590	0.740
2020/01/31 04:05:05.3	93.180	-0.110	-0.690	0.710
2020/01/31 04:05:05.4	93.180	-0.040	-0.780	0.680
2020/01/31 04:05:05.5	93.190	0.040	-0.860	0.650
2020/01/31 04:05:05.6	93.200	0.110	-0.950	0.620
2020/01/31 04:05:05.7	93.200	0.190	-1.020	0.590
2020/01/31 04:05:05.8	93.210	0.270	-1.100	0.550
2020/01/31 04:05:05.9	93.220	0.340	-1.160	0.530
2020/01/31 04:05:06.0	93.230	0.410	-1.220	0.500
2020/01/31 04:05:06.1	93.230	0.480	-1.270	0.460
2020/01/31 04:05:06.2	93.240	0.550	-1.310	0.440
2020/01/31 04:05:06.3	93.240	0.620	-1.340	0.420
2020/01/31 04:05:06.4	93.250	0.680	-1.360	0.410
2020/01/31 04:05:06.5	93.250	0.730	-1.370	0.390
2020/01/31 04:05:06.6	93.250	0.780	-1.370	0.380
2020/01/31 04:05:06.7	93.250	0.830	-1.360	0.380
2020/01/31 04:05:06.8	93.250	0.860	-1.330	0.370
2020/01/31 04:05:06.9	93.240	0.900	-1.300	0.380
2020/01/31 04:05:07.0	93.240	0.920	-1.250	0.380
2020/01/31 04:05:07.1	93.240	0.930	-1.190	0.390
2020/01/31 04:05:07.2	93.230	0.940	-1.120	0.400
2020/01/31 04:05:07.3	93.220	0.940	-1.040	0.410
2020/01/31 04:05:07.4	93.210	0.930	-0.950	0.420
2020/01/31 04:05:07.5	93.200	0.920	-0.860	0.440
2020/01/31 04:05:07.6	93.190	0.900	-0.750	0.450
2020/01/31 04:05:07.7	93.180	0.860	-0.640	0.470
2020/01/31 04:05:07.8	93.170	0.830	-0.520	0.490
2020/01/31 04:05:07.9	93.160	0.780	-0.400	0.510
2020/01/31 04:05:08.0	93.150	0.730	-0.280	0.520
2020/01/31 04:05:08.1	93.120	0.670	-0.150	0.540
2020/01/31 04:05:08.2	93.110	0.610	-0.020	0.560
2020/01/31 04:05:08.3	93.100	0.540	0.110	0.570
2020/01/31 04:05:08.4	93.090	0.470	0.230	0.590
2020/01/31 04:05:08.5	93.070	0.390	0.360	0.600
2020/01/31 04:05:08.6	93.060	0.310	0.470	0.620
2020/01/31 04:05:08.7	93.050	0.230	0.580	0.630
2020/01/31 04:05:08.8	93.040	0.150	0.690	0.650
2020/01/31 04:05:08.9	93.030	0.070	0.780	0.660
2020/01/31 04:05:09.0	93.020	-0.020	0.870	0.680
2020/01/31 04:05:09.1	93.000	-0.100	0.950	0.690
2020/01/31 04:05:09.2	92.990	-0.180	1.020	0.710
2020/01/31 04:05:09.3	92.980	-0.250	1.070	0.720
2020/01/31 04:05:09.4	92.970	-0.320	1.110	0.740
2020/01/31 04:05:09.5	92.960	-0.390	1.140	0.750
2020/01/31 04:05:09.6	92.950	-0.450	1.150	0.760
2020/01/31 04:05:09.7	92.940	-0.500	1.140	0.770
2020/01/31 04:05:09.8	92.930	-0.550	1.130	0.780
2020/01/31 04:05:09.9	92.930	-0.590	1.100	0.780
2020/01/31 04:05:10.0	92.920	-0.630	1.050	0.780
2020/01/31 04:05:10.1	92.910	-0.650	0.990	0.770
2020/01/31 04:05:10.2	92.910	-0.670	0.920	0.760
2020/01/31 04:05:10.3	92.920	-0.680	0.830	0.750
2020/01/31 04:05:10.4	92.930	-0.680	0.740	0.730
2020/01/31 04:05:10.5	92.950	-0.680	0.630	0.710
2020/01/31 04:05:10.6	92.960	-0.670	0.520	0.680
2020/01/31 04:05:10.7	92.980	-0.650	0.400	0.650
2020/01/31 04:05:10.8	93.000	-0.620	0.280	0.620
2020/01/31 04:05:10.9	93.030	-0.590	0.150	0.590
2020/01/31 04:05:11.0	93.050	-0.560	0.020	0.560
2020/01/31 04:05:11.1	93.080	-0.520	-0.120	0.520
2020/01/31 04:05:11.2	93.100	-0.470	-0.240	0.490
2020/01/31 04:05:11.3	93.120	-0.420	-0.370	0.470
2020/01/31 04:05:11.4	93.140	-0.370	-0.490	0.450
2020/01/31 04:05:11.5	93.160	-0.320	-0.610	0.430
2020/01/31 04:05:11.6	93.180	-0.270	-0.720	0.420
2020/01/31 04:05:11.7	93.190	-0.210	-0.830	0.410
2020/01/31 04:05:11.8	93.210	-0.160	-0.920	0.410
2020/01/31 04:05:11.9	93.220	-0.100	-1.000	0.410
2020/01/31 04:05:12.0	93.220	-0.050	-1.080	0.420
2020/01/31 04:05:12.1	93.230	0.000	-1.140	0.430
2020/01/31 04:05:12.2	93.240	0.050	-1.190	0.450
2020/01/31 04:05:12.3	93.240	0.100	-1.230	0.470
2020/01/31 04:05:12.4	93.240	0.140	-1.260	0.490
2020/01/31 04:05:12.5	93.250	0.180	-1.280	0.520
2020/01/31 04:05:12.6	93.240	0.220	-1.280	0.550
2020/01/31 04:05:12.7	93.240	0.250	-1.280	0.580
2020/01/31 04:05:12.8	93.240	0.270	-1.260	0.610
2020/01/31 04:05:12.9	93.240	0.290	-1.230	0.640
2020/01/31 04:05:13.0	93.230	0.310	-1.190	0.670
2020/01/31 04:05:13.1	93.240	0.320	-1.140	0.710
2020/01/31 04:05:13.2	93.230	0.330	-1.080	0.740
2020/01/31 04:05:13.3	93.230	0.330	-1.020	0.770
2020/01/31 04:05:13.4	93.230	0.330	-0.950	0.800
2020/01/31 04:05:13.5	93.220	0.330	-0.870	0.820
2020/01/31 04:05:13.6	93.220	0.320	-0.790	0.850
2020/01/31 04:05:13.7	93.220	0.300	-0.710	0.870
2020/01/31 04:05:13.8	93.210	0.290	-0.620	0.890
2020/01/31 04:05:13.9	93.210	0.270	-0.530	0.910
2020/01/31 04:05:14.0	93.210	0.250	-0.440	0.930
2020/01/31 04:05:14.1	93.210	0.230	-0.350	0.950
2020/01/31 04:05:14.2	93.210	0.200	-0.260	0.960
2020/01/31 04:05:14.3	93.210	0.180	-0.170	0.970
2020/01/31 04:05:14.4	93.210	0.150	-0.080	0.990
2020/01/31 04:05:14.5	93.210	0.120	-0.000	1.000
2020/01/31 04:05:14.6	93.210	0.090	0.070	1.000
2020/01/31 04:05:14.7	93.210	0.070	0.150	1.010
2020/01/31 04:05:14.8	93.210	0.040	0.210	1.010
2020/01/31 04:05:14.9	93.210	0.010	0.270	1.010
2020/01/31 04:05:15.0	93.200	-0.010	0.330	1.010
2020/01/31 04:05:15.1	93.210	-0.040	0.380	1.010
2020/01/31 04:05:15.2	93.200	-0.060	0.420	1.000
2020/01/31 04:05:15.3	93.200	-0.080	0.450	0.990
2020/01/31 04:05:15.4	93.190	-0.100	0.480	0.980
2020/01/31 04:05:15.5	93.190	-0.110	0.500	0.970
2020/01/31 04:05:15.6	93.180	-0.130	0.520	0.960
2020/01/31 04:05:15.7	93.170	-0.140	0.530	0.950
2020/01/31 04:05:15.8	93.160	-0.150	0.530	0.940
2020/01/31 04:05:15.9	93.140	-0.160	0.520	0.920
2020/01/31 04:05:16.0	93.130	-0.170	0.510	0.910
2020/01/31 04:05:16.1	93.110	-0.170	0.490	0.890
2020/01/31 04:05:16.2	93.090	-0.170	0.470	0.880
2020/01/31 04:05:16.3	93.070	-0.180	0.440	0.860
2020/01/31 04:05:16.4	93.050	-0.180	0.410	0.850
2020/01/31 04:05:16.5	93.020	-0.170	0.380	0.830
2020/01/31 04:05:16.6	93.000	-0.170	0.330	0.820
2020/01/31 04:05:16.7	92.980	-0.160	0.290	0.800
2020/01/31 04:05:16.8	92.950	-0.150	0.240	0.780
2020/01/31 04:05:16.9	92.930	-0.150	0.190	0.760
2020/01/31 04:05:17.0	92.900	-0.140	0.130	0.740
2020/01/31 04:05:17.1	92.880	-0.120	0.080	0.720
2020/01/31 04:05:17.2	92.870	-0.110	0.020	0.700
2020/01/31 04:05:17.3	92.850	-0.100	-0.040	0.670
2020/01/31 04:05:17.4	92.840	-0.080	-0.100	0.640
2020/01/31 04:05:17.5	92.830	-0.070	-0.160	0.610
2020/01/31 04:05:17.6	92.830	-0.050	-0.220	0.580
2020/01/31 04:05:17.7	92.830	-0.040	-0.290	0.550
2020/01/31 04:05:17.8	92.830	-0.020	-0.350	0.510
2020/01/31 04:05:17.9	92.840	-0.000	-0.410	0.480
2020/01/31 04:05:18.0	92.850	0.010	-0.470	0.440
2020/01/31 04:05:18.1	92.870	0.030	-0.520	0.390
2020/01/31 04:05:18.2	92.890	0.050	-0.580	0.350
2020/01/31 04:05:18.3	92.910	0.070	-0.630	0.320
2020/01/31 04:05:18.4	92.930	0.080	-0.670	0.280
2020/01/31 04:05:18.5	92.960	0.100	-0.720	0.250
2020/01/31 04:05:18.6	92.990	0.120	-0.750	0.210
2020/01/31 04:05:18.7	93.020	0.130	-0.790	0.180
2020/01/31 04:05:18.8	93.050	0.150	-0.810	0.160
2020/01/31 04:05:18.9	93.090	0.160	-0.840	0.140
2020/01/31 04:05:19.0	93.120	0.170	-0.850	0.120
2020/01/31 04:05:19.1	93.150	0.180	-0.860	0.120
2020/01/31 04:05:19.2	93.180	0.190	-0.860	0.120
2020/01/31 04:05:19.3	93.210	0.200	-0.860	0.120
2020/01/31 04:05:19.4	93.240	0.210	-0.860	0.130
2020/01/31 04:05:19.5	93.270	0.210	-0.850	0.140
2020/01/31 04:05:19.6	93.290	0.210	-0.830	0.170
2020/01/31 04:05:19.7	93.320	0.210	-0.810	0.200
2020/01/31 04:05:19.8	93.340	0.210	-0.780	0.230
2020/01/31 04:05:19.9	93.360	0.200	-0.750	0.270
2020/01/31 04:05:20.0	93.380	0.200	-0.710	0.310
2020/01/31 04:05:20.1	93.380	0.190	-0.680	0.360
2020/01/31 04:05:20.2	93.390	0.170	-0.640	0.410
2020/01/31 04:05:20.3	93.400	0.160	-0.590	0.470
2020/01/31 04:05:20.4	93.400	0.140	-0.550	0.520
2020/01/31 04:05:20.5	93.410	0.130	-0.500	0.580
2020/01/31 04:05:20.6	93.410	0.110	-0.450	0.640
2020/01/31 04:05:20.7	93.410	0.090	-0.400	0.690
2020/01/31 04:05:20.8	93.400	0.070	-0.350	0.740
2020/01/31 04:05:20.9	93.400	0.040	-0.310	0.800
2020/01/31 04:05:21.0	93.390	0.020	-0.260	0.850
2020/01/31 04:05:21.1	93.380	-0.000	-0.210	0.900
2020/01/31 04:05:21.2	93.370	-0.030	-0.160	0.940
2020/01/31 04:05:21.3	93.350	-0.050	-0.120	0.980
2020/01/31 04:05:21.4	93.340	-0.070	-0.080	1.010
2020/01/31 04:05:21.5	93.320	-0.100	-0.040	1.040
2020/01/31 04:05:21.6	93.300	-0.120	-0.010	1.060
2020/01/31 04:05:21.7	93.290	-0.140	0.020	1.080
2020/01/31 04:05:21.8	93.270	-0.160	0.050	1.100
2020/01/31 04:05:21.9	93.250	-0.180	0.080	1.110
2020/01/31 04:05:22.0	93.230	-0.190	0.100	1.120
2020/01/31 04:05:22.1	93.210	-0.210	0.110	1.120
2020/01/31 04:05:22.2	93.190	-0.220	0.130	1.120
2020/01/31 04:05:22.3	93.180	-0.240	0.150	1.120
2020/01/31 04:05:22.4	93.160	-0.250	0.160	1.120
2020/01/31 04:05:22.5	93.140	-0.250	0.170	1.110
2020/01/31 04:05:22.6	93.130	-0.260	0.180	1.110
2020/01/31 04:05:22.7	93.120	-0.260	0.190	1.100
2020/01/31 04:05:22.8	93.110	-0.270	0.200	1.090
2020/01/31 04:05:22.9	93.100	-0.270	0.200	1.070
2020/01/31 04:05:23.0	93.090	-0.260	0.210	1.060
2020/01/31 04:05:23.1	93.070	-0.260	0.210	1.040
2020/01/31 04:05:23.2	93.070	-0.250	0.220	1.030
2020/01/31 04:05:23.3	93.070	-0.250	0.210	1.010
2020/01/31 04:05:23.4	93.070	-0.240	0.210	0.990
2020/01/31 04:05:23.5	93.080	-0.220	0.210	0.970
2020/01/31 04:05:23.6	93.080	-0.210	0.200	0.950
2020/01/31 04:05:23.7	93.090	-0.190	0.190	0.930
2020/01/31 04:05:23.8	93.100	-0.180	0.180	0.900
2020/01/31 04:05:23.9	93.110	-0.160	0.170	0.880
2020/01/31 04:05:24.0	93.110	-0.140	0.160	0.850
2020/01/31 04:05:24.1	93.140	-0.120	0.140	0.830
2020/01/31 04:05:24.2	93.150	-0.100	0.120	0.800
2020/01/31 04:05:24.3	93.160	-0.070	0.090	0.770
2020/01/31 04:05:24.4	93.170	-0.050	0.070	0.740
2020/01/31 04:05:24.5	93.180	-0.030	0.050	0.710
2020/01/31 04:05:24.6	93.190	-0.000	0.020	0.680
2020/01/31 04:05:24.7	93.200	0.020	-0.010	0.640
2020/01/31 04:05:24.8	93.210	0.040	-0.040	0.610
2020/01/31 04:05:24.9	93.220	0.070	-0.070	0.570
2020/01/31 04:05:25.0	93.230	0.090	-0.100	0.530
2020/01/31 04:05:25.1	93.240	0.110	-0.140	0.490
2020/01/31 04:05:25.2	93.250	0.130	-0.170	0.450
2020/01/31 04:05:25.3	93.260	0.150	-0.200	0.410
2020/01/31 04:05:25.4	93.280	0.160	-0.230	0.360
2020/01/31 04:05:25.5	93.290	0.180	-0.270	0.320
2020/01/31 04:05:25.6	93.300	0.190	-0.300	0.270
2020/01/31 04:05:25.7	93.310	0.200	-0.330	0.230
2020/01/31 04:05:25.8	93.330	0.210	-0.360	0.190
2020/01/31 04:05:25.9	93.340	0.220	-0.390	0.150
2020/01/31 04:05:26.0	93.350	0.230	-0.420	0.120
2020/01/31 04:05:26.1	93.370	0.230	-0.440	0.090
2020/01/31 04:05:26.2	93.380	0.240	-0.460	0.060
2020/01/31 04:05:26.3	93.390	0.240	-0.490	0.040
2020/01/31 04:05:26.4	93.400	0.240	-0.510	0.030
2020/01/31 04:05:26.5	93.400	0.240	-0.530	0.020
2020/01/31 04:05:26.6	93.410	0.250	-0.550	0.020
2020/01/31 04:05:26.7	93.410	0.240	-0.570	0.030
2020/01/31 04:05:26.8	93.410	0.240	-0.580	0.040
2020/01/31 04:05:26.9	93.410	0.240	-0.590	0.060
2020/01/31 04:05:27.0	93.410	0.240	-0.610	0.090
2020/01/31 04:05:27.1	93.410	0.240	-0.620	0.120
2020/01/31 04:05:27.2	93.410	0.240	-0.630	0.150
2020/01/31 04:05:27.3	93.400	0.230	-0.630	0.190
2020/01/31 04:05:27.4	93.400	0.230	-0.640	0.240
2020/01/31 04:05:27.5	93.390	0.230	-0.640	0.280
2020/01/31 04:05:27.6	93.380	0.220	-0.640	0.330
2020/01/31 04:05:27.7	93.370	0.220	-0.640	0.370
2020/01/31 04:05:27.8	93.360	0.220	-0.640	0.420
2020/01/31 04:05:27.9	93.350	0.210	-0.630	0.470
2020/01/31 04:05:28.0	93.340	0.210	-0.630	0.510
2020/01/31 04:05:28.1	93.340	0.200	-0.620	0.560
2020/01/31 04:05:28.2	93.330	0.200	-0.610	0.600
2020/01/31 04:05:28.3	93.310	0.190	-0.600	0.640
2020/01/31 04:05:28.4	93.300	0.190	-0.580	0.670
2020/01/31 04:05:28.5	93.290	0.180	-0.570	0.710
2020/01/31 04:05:28.6	93.280	0.170	-0.550	0.730
2020/01/31 04:05:28.7	93.270	0.160	-0.540	0.760
2020/01/31 04:05:28.8	93.270	0.150	-0.520	0.780
2020/01/31 04:05:28.9	93.260	0.140	-0.500	0.810
2020/01/31 04:05:29.0	93.250	0.130	-0.470	0.820
2020/01/31 04:05:29.1	93.240	0.110	-0.450	0.840
2020/01/31 04:05:29.2	93.230	0.100	-0.420	0.860
2020/01/31 04:05:29.3	93.230	0.090	-0.390	0.870
2020/01/31 04:05:29.4	93.230	0.070	-0.360	0.880
2020/01/31 04:05:29.5	93.230	0.050	-0.320	0.900
2020/01/31 04:05:29.6	93.230	0.040	-0.290	0.910
2020/01/31 04:05:29.7	93.230	0.020	-0.250	0.920
2020/01/31 04:05:29.8	93.230	0.000	-0.210	0.930
2020/01/31 04:05:29.9	93.230	-0.020	-0.170	0.940
2020/01/31 04:05:30.0	93.230	-0.030	-0.120	0.950
2020/01/31 04:05:30.1	93.230	-0.050	-0.080	0.960
2020/01/31 04:05:30.2	93.230	-0.070	-0.030	0.970
2020/01/31 04:05:30.3	93.230	-0.090	0.010	0.980
2020/01/31 04:05:30.4	93.230	-0.110	0.050	0.990
2020/01/31 04:05:30.5	93.230	-0.130	0.100	1.000
2020/01/31 04:05:30.6	93.230	-0.150	0.140	1.000
2020/01/31 04:05:30.7	93.230	-0.170	0.180	1.000
2020/01/31 04:05:30.8	93.230	-0.190	0.210	1.000
2020/01/31 04:05:30.9	93.230	-0.200	0.250	0.990
2020/01/31 04:05:31.0	93.220	-0.220	0.280	0.990
2020/01/31 04:05:31.1	93.220	-0.230	0.300	0.980
2020/01/31 04:05:31.2	93.210	-0.250	0.320	0.960
2020/01/31 04:05:31.3	93.210	-0.260	0.340	0.950
2020/01/31 04:05:31.4	93.210	-0.260	0.350	0.930
2020/01/31 04:05:31.5	93.200	-0.270	0.360	0.910
2020/01/31 04:05:31.6	93.200	-0.270	0.360	0.890
2020/01/31 04:05:31.7	93.190	-0.270	0.360	0.860
2020/01/31 04:05:31.8	93.190	-0.270	0.350	0.830
2020/01/31 04:05:31.9	93.190	-0.260	0.330	0.810
2020/01/31 04:05:32.0	93.180	-0.250	0.310	0.770
2020/01/31 04:05:32.1	93.170	-0.240	0.280	0.750
2020/01/31 04:05:32.2	93.170	-0.230	0.250	0.710
2020/01/31 04:05:32.3	93.180	-0.210	0.210	0.680
2020/01/31 04:05:32.4	93.180	-0.190	0.170	0.650
2020/01/31 04:05:32.5	93.190	-0.170	0.120	0.620
2020/01/31 04:05:32.6	93.190	-0.150	0.070	0.590
2020/01/31 04:05:32.7	93.200	-0.120	0.010	0.560
2020/01/31 04:05:32.8	93.210	-0.090	-0.040	0.530
2020/01/31 04:05:32.9	93.220	-0.070	-0.100	0.510
2020/01/31 04:05:33.0	93.220	-0.040	-0.160	0.490
2020/01/31 04:05:33.1	93.250	-0.010	-0.220	0.470
2020/01/31 04:05:33.2	93.250	0.020	-0.280	0.460
2020/01/31 04:05:33.3	93.260	0.050	-0.340	0.440
2020/01/31 04:05:33.4	93.270	0.080	-0.390	0.440
2020/01/31 04:05:33.5	93.280	0.110	-0.450	0.430
2020/01/31 04:05:33.6	93.290	0.140	-0.500	0.430
2020/01/31 04:05:33.7	93.300	0.170	-0.540	0.420
2020/01/31 04:05:33.8	93.300	0.190	-0.580	0.420
2020/01/31 04:05:33.9	93.310	0.210	-0.620	0.430
2020/01/31 04:05:34.0	93.320	0.230	-0.660	0.430
2020/01/31 04:05:34.1	93.330	0.250	-0.680	0.440
2020/01/31 04:05:34.2	93.340	0.260	-0.710	0.440
2020/01/31 04:05:34.3	93.340	0.280	-0.720	0.450
2020/01/31 04:05:34.4	93.350	0.280	-0.730	0.460
2020/01/31 04:05:34.5	93.350	0.290	-0.740	0.470
2020/01/31 04:05:34.6	93.360	0.300	-0.740	0.480
2020/01/31 04:05:34.7	93.360	0.300	-0.740	0.490
2020/01/31 04:05:34.8	93.370	0.300	-0.730	0.500
2020/01/31 04:05:34.9	93.370	0.290	-0.710	0.520
2020/01/31 04:05:35.0	93.370	0.290	-0.690	0.530
2020/01/31 04:05:35.1	93.370	0.280	-0.670	0.540
2020/01/31 04:05:35.2	93.370	0.270	-0.640	0.550
2020/01/31 04:05:35.3	93.370	0.250	-0.600	0.560
2020/01/31 04:05:35.4	93.370	0.240	-0.570	0.570
2020/01/31 04:05:35.5	93.380	0.220	-0.520	0.580
2020/01/31 04:05:35.6	93.380	0.200	-0.480	0.600
2020/01/31 04:05:35.7	93.370	0.180	-0.430	0.610
2020/01/31 04:05:35.8	93.370	0.160	-0.380	0.620
2020/01/31 04:05:35.9	93.370	0.130	-0.330	0.640
2020/01/31 04:05:36.0	93.370	0.100	-0.280	0.650
2020/01/31 04:05:36.1	93.360	0.080	-0.220	0.670
2020/01/31 04:05:36.2	93.350	0.050	-0.160	0.690
2020/01/31 04:05:36.3	93.340	0.020	-0.110	0.710
2020/01/31 04:05:36.4	93.330	-0.010	-0.060	0.730
2020/01/31 04:05:36.5	93.320	-0.050	-0.000	0.750
2020/01/31 04:05:36.6	93.300	-0.080	0.050	0.770
2020/01/31 04:05:36.7	93.290	-0.110	0.090	0.800
2020/01/31 04:05:36.8	93.270	-0.140	0.140	0.820
2020/01/31 04:05:36.9	93.260	-0.170	0.180	0.850
2020/01/31 04:05:37.0	93.240	-0.210	0.220	0.880
2020/01/31 04:05:37.1	93.230	-0.240	0.260	0.900
2020/01/31 04:05:37.2	93.210	-0.260	0.280	0.930
2020/01/31 04:05:37.3	93.190	-0.290	0.310	0.960
2020/01/31 04:05:37.4	93.160	-0.320	0.330	0.990
2020/01/31 04:05:37.5	93.140	-0.340	0.350	1.020
2020/01/31 04:05:37.6	93.120	-0.370	0.360	1.050
2020/01/31 04:05:37.7	93.100	-0.390	0.360	1.080
2020/01/31 04:05:37.8	93.080	-0.410	0.360	1.100
2020/01/31 04:05:37.9	93.050	-0.420	0.350	1.130
2020/01/31 04:05:38.0	93.030	-0.440	0.340	1.150
2020/01/31 04:05:38.1	93.020	-0.450	0.330	1.170
2020/01/31 04:05:38.2	93.000	-0.460	0.300	1.190
2020/01/31 04:05:38.3	92.980	-0.470	0.280	1.200
2020/01/31 04:05:38.4	92.960	-0.470	0.250	1.220
2020/01/31 04:05:38.5	92.950	-0.470	0.210	1.220
2020/01/31 04:05:38.6	92.930	-0.470	0.170	1.230
2020/01/31 04:05:38.7	92.910	-0.460	0.120	1.230
2020/01/31 04:05:38.8	92.900	-0.460	0.080	1.230
2020/01/31 04:05:38.9	92.880	-0.450	0.020	1.220
2020/01/31 04:05:39.0	92.870	-0.430	-0.030	1.220
2020/01/31 04:05:39.1	92.850	-0.420	-0.090	1.200
2020/01/31 04:05:39.2	92.840	-0.400	-0.150	1.190
2020/01/31 04:05:39.3	92.830	-0.370	-0.210	1.170
2020/01/31 04:05:39.4	92.820	-0.350	-0.280	1.160
2020/01/31 04:05:39.5	92.810	-0.320	-0.340	1.140
2020/01/31 04:05:39.6	92.810	-0.290	-0.410	1.120
2020/01/31 04:05:39.7	92.810	-0.260	-0.470	1.090
2020/01/31 04:05:39.8	92.810	-0.230	-0.540	1.070
2020/01/31 04:05:39.9	92.820	-0.190	-0.600	1.050
2020/01/31 04:05:40.0	92.820	-0.160	-0.660	1.030
2020/01/31 04:05:40.1	92.840	-0.120	-0.720	1.010
2020/01/31 04:05:40.2	92.840	-0.080	-0.780	0.990
2020/01/31 04:05:40.3	92.850	-0.040	-0.830	0.970
2020/01/31 04:05:40.4	92.860	-0.010	-0.880	0.950
2020/01/31 04:05:40.5	92.870	0.030	-0.920	0.940
2020/01/31 04:05:40.6	92.880	0.070	-0.950	0.920
2020/01/31 04:05:40.7	92.890	0.100	-0.980	0.910
2020/01/31 04:05:40.8	92.910	0.140	-1.010	0.890
2020/01/31 04:05:40.9	92.920	0.170	-1.030	0.880
2020/01/31 04:05:41.0	92.930	0.200	-1.040	0.860
2020/01/31 04:05:41.1	92.940	0.230	-1.040	0.850
2020/01/31 04:05:41.2	92.950	0.260	-1.040	0.840
2020/01/31 04:05:41.3	92.960	0.290	-1.030	0.820
2020/01/31 04:05:41.4	92.970	0.310	-1.010	0.800
2020/01/31 04:05:41.5	92.980	0.330	-0.990	0.780
2020/01/31 04:05:41.6	92.990	0.350	-0.960	0.760
2020/01/31 04:05:41.7	93.000	0.360	-0.920	0.740
2020/01/31 04:05:41.8	93.010	0.370	-0.880	0.720
2020/01/31 04:05:41.9	93.020	0.380	-0.830	0.700
2020/01/31 04:05:42.0	93.030	0.390	-0.780	0.680
2020/01/31 04:05:42.1	93.050	0.390	-0.720	0.650
2020/01/31 04:05:42.2	93.050	0.390	-0.650	0.630
2020/01/31 04:05:42.3	93.060	0.390	-0.590	0.600
2020/01/31 04:05:42.4	93.060	0.380	-0.520	0.580
2020/01/31 04:05:42.5	93.060	0.380	-0.450	0.560
2020/01/31 04:05:42.6	93.060	0.370	-0.370	0.540
2020/01/31 04:05:42.7	93.050	0.360	-0.300	0.520
2020/01/31 04:05:42.8	93.050	0.350	-0.220	0.500
2020/01/31 04:05:42.9	93.040	0.340	-0.150	0.490
2020/01/31 04:05:43.0	93.030	0.320	-0.080	0.480
2020/01/31 04:05:43.1	93.010	0.310	-0.010	0.470
2020/01/31 04:05:43.2	92.990	0.290	0.060	0.460
2020/01/31 04:05:43.3	92.970	0.280	0.130	0.460
2020/01/31 04:05:43.4	92.950	0.260	0.190	0.460
2020/01/31 04:05:43.5	92.930	0.240	0.240	0.460
2020/01/31 04:05:43.6	92.900	0.230	0.290	0.470
2020/01/31 04:05:43.7	92.870	0.210	0.340	0.480
2020/01/31 04:05:43.8	92.840	0.200	0.380	0.490
2020/01/31 04:05:43.9	92.820	0.190	0.420	0.510
2020/01/31 04:05:44.0	92.790	0.180	0.450	0.520
2020/01/31 04:05:44.1	92.760	0.170	0.470	0.540
2020/01/31 04:05:44.2	92.730	0.160	0.490	0.560
2020/01/31 04:05:44.3	92.700	0.150	0.490	0.580
2020/01/31 04:05:44.4	92.670	0.140	0.490	0.600
2020/01/31 04:05:44.5	92.640	0.140	0.490	0.620
2020/01/31 04:05:44.6	92.620	0.140	0.470	0.640
2020/01/31 04:05:44.7	92.600	0.140	0.460	0.650
2020/01/31 04:05:44.8	92.580	0.140	0.430	0.670
2020/01/31 04:05:44.9	92.570	0.140	0.400	0.680
2020/01/31 04:05:45.0	92.560	0.140	0.360	0.690
2020/01/31 04:05:45.1	92.540	0.150	0.320	0.690
2020/01/31 04:05:45.2	92.530	0.150	0.280	0.700
2020/01/31 04:05:45.3	92.520	0.160	0.230	0.700
2020/01/31 04:05:45.4	92.520	0.160	0.180	0.700
2020/01/31 04:05:45.5	92.520	0.170	0.130	0.690
2020/01/31 04:05:45.6	92.520	0.170	0.080	0.690
2020/01/31 04:05:45.7	92.520	0.180	0.020	0.680
2020/01/31 04:05:45.8	92.520	0.180	-0.030	0.670
2020/01/31 04:05:45.9	92.530	0.190	-0.080	0.660
2020/01/31 04:05:46.0	92.530	0.190	-0.130	0.650
2020/01/31 04:05:46.1	92.540	0.190	-0.180	0.630
2020/01/31 04:05:46.2	92.550	0.190	-0.220	0.610
2020/01/31 04:05:46.3	92.550	0.190	-0.260	0.590
2020/01/31 04:05:46.4	92.560	0.190	-0.300	0.580
2020/01/31 04:05:46.5	92.570	0.180	-0.330	0.560
2020/01/31 04:05:46.6	92.580	0.180	-0.360	0.550
2020/01/31 04:05:46.7	92.580	0.170	-0.380	0.540
2020/01/31 04:05:46.8	92.590	0.170	-0.400	0.530
2020/01/31 04:05:46.9	92.600	0.160	-0.410	0.520
2020/01/31 04:05:47.0	92.610	0.150	-0.410	0.520
2020/01/31 04:05:47.1	92.620	0.140	-0.420	0.520
2020/01/31 04:05:47.2	92.630	0.120	-0.420	0.520
2020/01/31 04:05:47.3	92.640	0.110	-0.410	0.530
2020/01/31 04:05:47.4	92.650	0.090	-0.400	0.540
2020/01/31 04:05:47.5	92.660	0.070	-0.390	0.560
2020/01/31 04:05:47.6	92.680	0.060	-0.380	0.580
2020/01/31 04:05:47.7	92.690	0.040	-0.360	0.600
2020/01/31 04:05:47.8	92.710	0.020	-0.340	0.630
2020/01/31 04:05:47.9	92.720	-0.010	-0.320	0.660
2020/01/31 04:05:48.0	92.740	-0.030	-0.300	0.690
2020/01/31 04:05:48.1	92.770	-0.060	-0.270	0.740
2020/01/31 04:05:48.2	92.780	-0.080	-0.250	0.780
2020/01/31 04:05:48.3	92.800	-0.110	-0.230	0.820
2020/01/31 04:05:48.4	92.810	-0.130	-0.210	0.860
2020/01/31 04:05:48.5	92.830	-0.160	-0.200	0.910
2020/01/31 04:05:48.6	92.840	-0.190	-0.180	0.950
2020/01/31 04:05:48.7	92.850	-0.220	-0.160	0.990
2020/01/31 04:05:48.8	92.860	-0.250	-0.150	1.040
2020/01/31 04:05:48.9	92.870	-0.280	-0.140	1.080
2020/01/31 04:05:49.0	92.880	-0.310	-0.130	1.120
2020/01/31 04:05:49.1	92.890	-0.340	-0.130	1.160
2020/01/31 04:05:49.2	92.890	-0.360	-0.130	1.200
2020/01/31 04:05:49.3	92.900	-0.390	-0.130	1.230
2020/01/31 04:05:49.4	92.910	-0.420	-0.130	1.260
2020/01/31 04:05:49.5	92.910	-0.440	-0.130	1.290
2020/01/31 04:05:49.6	92.920	-0.460	-0.140	1.310
2020/01/31 04:05:49.7	92.920	-0.480	-0.150	1.330
2020/01/31 04:05:49.8	92.920	-0.500	-0.160	1.350
2020/01/31 04:05:49.9	92.920	-0.520	-0.170	1.360
2020/01/31 04:05:50.0	92.920	-0.530	-0.180	1.370
2020/01/31 04:05:50.1	92.920	-0.540	-0.190	1.380
2020/01/31 04:05:50.2	92.920	-0.550	-0.210	1.390
2020/01/31 04:05:50.3	92.920	-0.550	-0.230	1.390
2020/01/31 04:05:50.4	92.920	-0.550	-0.240	1.390
2020/01/31 04:05:50.5	92.920	-0.550	-0.260	1.380
2020/01/31 04:05:50.6	92.930	-0.550	-0.280	1.380
2020/01/31 04:05:50.7	92.930	-0.540	-0.290	1.370
2020/01/31 04:05:50.8	92.930	-0.530	-0.310	1.370
2020/01/31 04:05:50.9	92.930	-0.510	-0.320	1.360
2020/01/31 04:05:51.0	92.940	-0.500	-0.340	1.350
2020/01/31 04:05:51.1	92.950	-0.480	-0.360	1.340
2020/01/31 04:05:51.2	92.960	-0.450	-0.370	1.340
2020/01/31 04:05:51.3	92.960	-0.420	-0.390	1.330
2020/01/31 04:05:51.4	92.960	-0.390	-0.400	1.330
2020/01/31 04:05:51.5	92.960	-0.360	-0.420	1.330
2020/01/31 04:05:51.6	92.960	-0.320	-0.440	1.330
2020/01/31 04:05:51.7	92.960	-0.290	-0.450	1.330
2020/01/31 04:05:51.8	92.960	-0.250	-0.470	1.340
2020/01/31 04:05:51.9	92.950	-0.200	-0.480	1.350
2020/01/31 04:05:52.0	92.950	-0.160	-0.490	1.350
2020/01/31 04:05:52.1	92.960	-0.120	-0.510	1.360
2020/01/31 04:05:52.2	92.950	-0.080	-0.520	1.370
2020/01/31 04:05:52.3	92.940	-0.030	-0.530	1.380
2020/01/31 04:05:52.4	92.930	0.010	-0.540	1.380
2020/01/31 04:05:52.5	92.920	0.050	-0.550	1.380
2020/01/31 04:05:52.6	92.900	0.090	-0.550	1.370
2020/01/31 04:05:52.7	92.890	0.130	-0.560	1.370
2020/01/31 04:05:52.8	92.880	0.170	-0.560	1.350
2020/01/31 04:05:52.9	92.860	0.200	-0.560	1.340
2020/01/31 04:05:53.0	92.850	0.230	-0.560	1.320
2020/01/31 04:05:53.1	92.830	0.260	-0.560	1.290
2020/01/31 04:05:53.2	92.820	0.290	-0.550	1.250
2020/01/31 04:05:53.3	92.810	0.310	-0.540	1.220
2020/01/31 04:05:53.4	92.800	0.330	-0.530	1.180
2020/01/31 04:05:53.5	92.790	0.340	-0.520	1.130
2020/01/31 04:05:53.6	92.770	0.350	-0.510	1.080
2020/01/31 04:05:53.7	92.760	0.360	-0.490	1.030
2020/01/31 04:05:53.8	92.750	0.360	-0.470	0.980
2020/01/31 04:05:53.9	92.740	0.360	-0.450	0.920
2020/01/31 04:05:54.0	92.730	0.360	-0.420	0.860
2020/01/31 04:05:54.1	92.710	0.350	-0.400	0.800
2020/01/31 04:05:54.2	92.700	0.350	-0.370	0.750
2020/01/31 04:05:54.3	92.690	0.330	-0.340	0.690
2020/01/31 04:05:54.4	92.680	0.320	-0.310	0.640
2020/01/31 04:05:54.5	92.660	0.300	-0.280	0.590
2020/01/31 04:05:54.6	92.650	0.290	-0.240	0.540
2020/01/31 04:05:54.7	92.630	0.270	-0.210	0.500
2020/01/31 04:05:54.8	92.620	0.250	-0.170	0.460
2020/01/31 04:05:54.9	92.600	0.220	-0.140	0.420
2020/01/31 04:05:55.0	92.590	0.200	-0.100	0.380
2020/01/31 04:05:55.1	92.570	0.180	-0.060	0.350
2020/01/31 04:05:55.2	92.560	0.150	-0.030	0.310
2020/01/31 04:05:55.3	92.550	0.130	0.000	0.280
2020/01/31 04:05:55.4	92.540	0.110	0.040	0.250
2020/01/31 04:05:55.5	92.530	0.080	0.070	0.230
2020/01/31 04:05:55.6	92.520	0.060	0.100	0.200
2020/01/31 04:05:55.7	92.520	0.040	0.120	0.170
2020/01/31 04:05:55.8	92.520	0.010	0.150	0.140
2020/01/31 04:05:55.9	92.520	-0.010	0.170	0.120
2020/01/31 04:05:56.0	92.520	-0.030	0.190	0.090
2020/01/31 04:05:56.1	92.540	-0.050	0.210	0.060
2020/01/31 04:05:56.2	92.550	-0.070	0.230	0.030
2020/01/31 04:05:56.3	92.560	-0.080	0.240	0.000
2020/01/31 04:05:56.4	92.570	-0.100	0.240	-0.020
2020/01/31 04:05:56.5	92.590	-0.110	0.240	-0.050
2020/01/31 04:05:56.6	92.610	-0.120	0.240	-0.080
2020/01/31 04:05:56.7	92.640	-0.130	0.230	-0.100
2020/01/31 04:05:56.8	92.660	-0.140	0.220	-0.130
2020/01/31 04:05:56.9	92.690	-0.140	0.200	-0.150
2020/01/31 04:05:57.0	92.720	-0.140	0.170	-0.170
2020/01/31 04:05:57.1	92.730	-0.130	0.140	-0.190
2020/01/31 04:05:57.2	92.760	-0.130	0.110	-0.200
2020/01/31 04:05:57.3	92.800	-0.120	0.070	-0.210
2020/01/31 04:05:57.4	92.840	-0.100	0.020	-0.220
2020/01/31 04:05:57.5	92.870	-0.090	-0.020	-0.220
2020/01/31 04:05:57.6	92.910	-0.070	-0.070	-0.220
2020/01/31 04:05:57.7	92.950	-0.040	-0.130	-0.220
2020/01/31 04:05:57.8	92.980	-0.020	-0.180	-0.200
2020/01/31 04:05:57.9	93.020	0.010	-0.240	-0.190
2020/01/31 04:05:58.0	93.050	0.040	-0.300	-0.160
2020/01/31 04:05:58.1	93.080	0.070	-0.350	-0.140
2020/01/31 04:05:58.2	93.110	0.100	-0.410	-0.110
2020/01/31 04:05:58.3	93.140	0.130	-0.460	-0.070
2020/01/31 04:05:58.4	93.160	0.170	-0.510	-0.030
2020/01/31 04:05:58.5	93.180	0.200	-0.560	0.020
2020/01/31 04:05:58.6	93.200	0.230	-0.600	0.080
2020/01/31 04:05:58.7	93.210	0.260	-0.640	0.140
2020/01/31 04:05:58.8	93.220	0.290	-0.670	0.200
2020/01/31 04:05:58.9	93.220	0.320	-0.690	0.260
2020/01/31 04:05:59.0	93.220	0.340	-0.710	0.330
2020/01/31 04:05:59.1	93.220	0.360	-0.720	0.410
2020/01/31 04:05:59.2	93.210	0.380	-0.720	0.490
2020/01/31 04:05:59.3	93.200	0.390	-0.710	0.560
2020/01/31 04:05:59.4	93.180	0.400	-0.700	0.640
2020/01/31 04:05:59.5	93.160	0.400	-0.680	0.720
2020/01/31 04:05:59.6	93.140	0.400	-0.650	0.800
2020/01/31 04:05:59.7	93.110	0.400	-0.610	0.880
2020/01/31 04:05:59.8	93.090	0.390	-0.570	0.960
2020/01/31 04:05:59.9	93.060	0.370	-0.520	1.040
2020/01/31 04:06:00.0	93.020	0.360	-0.470	1.110
2020/01/31 04:06:00.1	93.010	0.330	-0.410	1.190
2020/01/31 04:06:00.2	92.970	0.310	-0.350	1.260
2020/01/31 04:06:00.3	92.940	0.270	-0.290	1.330
2020/01/31 04:06:00.4	92.900	0.240	-0.220	1.400
2020/01/31 04:06:00.5	92.870	0.200	-0.150	1.460
2020/01/31 04:06:00.6	92.840	0.160	-0.080	1.520
2020/01/31 04:06:00.7	92.810	0.120	-0.020	1.570
2020/01/31 04:06:00.8	92.780	0.070	0.050	1.620
2020/01/31 04:06:00.9	92.750	0.030	0.110	1.660
2020/01/31 04:06:01.0	92.730	-0.020	0.160	1.690
2020/01/31 04:06:01.1	92.710	-0.070	0.220	1.720
2020/01/31 04:06:01.2	92.690	-0.110	0.260	1.740
2020/01/31 04:06:01.3	92.680	-0.150	0.300	1.750
2020/01/31 04:06:01.4	92.670	-0.200	0.320	1.750
2020/01/31 04:06:01.5	92.660	-0.230	0.340	1.740
2020/01/31 04:06:01.6	92.660	-0.270	0.350	1.730
2020/01/31 04:06:01.7	92.650	-0.300	0.350	1.710
2020/01/31 04:06:01.8	92.660	-0.330	0.350	1.690
2020/01/31 04:06:01.9	92.660	-0.350	0.330	1.650
2020/01/31 04:06:02.0	92.670	-0.370	0.310	1.620
2020/01/31 04:06:02.1	92.670	-0.390	0.270	1.570
2020/01/31 04:06:02.2	92.680	-0.400	0.230	1.530
2020/01/31 04:06:02.3	92.700	-0.400	0.190	1.480
2020/01/31 04:06:02.4	92.710	-0.410	0.140	1.430
2020/01/31 04:06:02.5	92.720	-0.400	0.080	1.380
2020/01/31 04:06:02.6	92.740	-0.390	0.020	1.330
2020/01/31 04:06:02.7	92.750	-0.380	-0.040	1.280
2020/01/31 04:06:02.8	92.770	-0.370	-0.100	1.230
2020/01/31 04:06:02.9	92.790	-0.350	-0.160	1.180
2020/01/31 04:06:03.0	92.800	-0.330	-0.220	1.130
2020/01/31 04:06:03.1	92.820	-0.300	-0.280	1.080
2020/01/31 04:06:03.2	92.830	-0.280	-0.340	1.040
2020/01/31 04:06:03.3	92.850	-0.250	-0.390	0.990
2020/01/31 04:06:03.4	92.870	-0.220	-0.440	0.950
2020/01/31 04:06:03.5	92.880	-0.190	-0.490	0.920
2020/01/31 04:06:03.6	92.900	-0.150	-0.530	0.880
2020/01/31 04:06:03.7	92.910	-0.120	-0.570	0.850
2020/01/31 04:06:03.8	92.920	-0.090	-0.600	0.810
2020/01/31 04:06:03.9	92.940	-0.060	-0.630	0.780
2020/01/31 04:06:04.0	92.950	-0.030	-0.660	0.760
2020/01/31 04:06:04.1	92.950	-0.000	-0.670	0.730
2020/01/31 04:06:04.2	92.960	0.030	-0.690	0.710
2020/01/31 04:06:04.3	92.960	0.050	-0.700	0.690
2020/01/31 04:06:04.4	92.970	0.080	-0.700	0.670
2020/01/31 04:06:04.5	92.980	0.100	-0.700	0.650
2020/01/31 04:06:04.6	92.980	0.120	-0.700	0.630
2020/01/31 04:06:04.7	92.980	0.140	-0.690	0.620
2020/01/31 04:06:04.8	92.980	0.150	-0.680	0.610
2020/01/31 04:06:04.9	92.970	0.160	-0.660	0.600
2020/01/31 04:06:05.0	92.970	0.170	-0.640	0.590
2020/01/31 04:06:05.1	92.960	0.180	-0.610	0.590
2020/01/31 04:06:05.2	92.950	0.180	-0.580	0.580
2020/01/31 04:06:05.3	92.940	0.180	-0.550	0.580
2020/01/31 04:06:05.4	92.930	0.180	-0.510	0.580
2020/01/31 04:06:05.5	92.910	0.170	-0.470	0.580
2020/01/31 04:06:05.6	92.890	0.160	-0.430	0.580
2020/01/31 04:06:05.7	92.880	0.150	-0.380	0.580
2020/01/31 04:06:05.8	92.860	0.130	-0.330	0.590
2020/01/31 04:06:05.9	92.840	0.120	-0.280	0.600
2020/01/31 04:06:06.0	92.820	0.100	-0.230	0.600
2020/01/31 04:06:06.1	92.810	0.080	-0.180	0.610
2020/01/31 04:06:06.2	92.790	0.060	-0.130	0.620
2020/01/31 04:06:06.3	92.770	0.040	-0.080	0.630
2020/01/31 04:06:06.4	92.750	0.010	-0.030	0.640
2020/01/31 04:06:06.5	92.730	-0.010	0.020	0.650
2020/01/31 04:06:06.6	92.720	-0.040	0.060	0.650
2020/01/31 04:06:06.7	92.700	-0.060	0.110	0.660
2020/01/31 04:06:06.8	92.680	-0.090	0.150	0.660
2020/01/31 04:06:06.9	92.670	-0.110	0.180	0.660
2020/01/31 04:06:07.0	92.660	-0.130	0.210	0.660
2020/01/31 04:06:07.1	92.650	-0.150	0.240	0.650
2020/01/31 04:06:07.2	92.640	-0.180	0.260	0.640
2020/01/31 04:06:07.3	92.630	-0.190	0.270	0.630
2020/01/31 04:06:07.4	92.630	-0.210	0.280	0.620
2020/01/31 04:06:07.5	92.620	-0.230	0.280	0.600
2020/01/31 04:06:07.6	92.620	-0.240	0.270	0.580
2020/01/31 04:06:07.7	92.620	-0.250	0.260	0.550
2020/01/31 04:06:07.8	92.610	-0.250	0.240	0.530
2020/01/31 04:06:07.9	92.610	-0.260	0.220	0.500
2020/01/31 04:06:08.0	92.610	-0.260	0.190	0.480
2020/01/31 04:06:08.1	92.610	-0.260	0.160	0.450
2020/01/31 04:06:08.2	92.610	-0.250	0.120	0.430
2020/01/31 04:06:08.3	92.610	-0.240	0.080	0.410
2020/01/31 04:06:08.4	92.620	-0.230	0.030	0.390
2020/01/31 04:06:08.5	92.620	-0.220	-0.010	0.370
2020/01/31 04:06:08.6	92.630	-0.200	-0.060	0.360
2020/01/31 04:06:08.7	92.640	-0.180	-0.110	0.350
2020/01/31 04:06:08.8	92.640	-0.160	-0.170	0.340
2020/01/31 04:06:08.9	92.650	-0.140	-0.220	0.330
2020/01/31 04:06:09.0	92.660	-0.120	-0.270	0.330
2020/01/31 04:06:09.1	92.690	-0.090	-0.320	0.330
2020/01/31 04:06:09.2	92.700	-0.070	-0.370	0.330
2020/01/31 04:06:09.3	92.710	-0.040	-0.420	0.330
2020/01/31 04:06:09.4	92.730	-0.010	-0.460	0.340
2020/01/31 04:06:09.5	92.750	0.020	-0.500	0.350
2020/01/31 04:06:09.6	92.760	0.040	-0.540	0.350
2020/01/31 04:06:09.7	92.780	0.070	-0.570	0.360
2020/01/31 04:06:09.8	92.800	0.090	-0.600	0.370
2020/01/31 04:06:09.9	92.820	0.110	-0.630	0.380
2020/01/31 04:06:10.0	92.840	0.140	-0.650	0.390
2020/01/31 04:06:10.1	92.850	0.150	-0.660	0.400
2020/01/31 04:06:10.2	92.860	0.170	-0.670	0.410
2020/01/31 04:06:10.3	92.880	0.180	-0.670	0.430
2020/01/31 04:06:10.4	92.890	0.190	-0.670	0.440
2020/01/31 04:06:10.5	92.900	0.200	-0.660	0.460
2020/01/31 04:06:10.6	92.900	0.200	-0.650	0.480
2020/01/31 04:06:10.7	92.910	0.200	-0.630	0.490
2020/01/31 04:06:10.8	92.910	0.200	-0.600	0.520
2020/01/31 04:06:10.9	92.900	0.190	-0.570	0.540
2020/01/31 04:06:11.0	92.890	0.180	-0.540	0.560
2020/01/31 04:06:11.1	92.890	0.160	-0.500	0.590
2020/01/31 04:06:11.2	92.870	0.150	-0.460	0.620
2020/01/31 04:06:11.3	92.860	0.130	-0.410	0.650
2020/01/31 04:06:11.4	92.840	0.100	-0.370	0.680
2020/01/31 04:06:11.5	92.810	0.080	-0.320	0.710
2020/01/31 04:06:11.6	92.780	0.050	-0.260	0.750
2020/01/31 04:06:11.7	92.750	0.020	-0.210	0.780
2020/01/31 04:06:11.8	92.720	-0.010	-0.160	0.820
2020/01/31 04:06:11.9	92.690	-0.040	-0.110	0.860
2020/01/31 04:06:12.0	92.660	-0.070	-0.060	0.890
2020/01/31 04:06:12.1	92.610	-0.100	-0.010	0.930
2020/01/31 04:06:12.2	92.580	-0.130	0.030	0.970
2020/01/31 04:06:12.3	92.550	-0.150	0.070	1.000
2020/01/31 04:06:12.4	92.510	-0.180	0.100	1.030
2020/01/31 04:06:12.5	92.480	-0.210	0.130	1.060
2020/01/31 04:06:12.6	92.460	-0.230	0.150	1.090
2020/01/31 04:06:12.7	92.430	-0.250	0.160	1.110
2020/01/31 04:06:12.8	92.410	-0.260	0.160	1.130
2020/01/31 04:06:12.9	92.390	-0.270	0.160	1.150
2020/01/31 04:06:13.0	92.370	-0.280	0.150	1.160
2020/01/31 04:06:13.1	92.360	-0.280	0.130	1.160
2020/01/31 04:06:13.2	92.350	-0.280	0.100	1.170
2020/01/31 04:06:13.3	92.350	-0.280	0.070	1.160
2020/01/31 04:06:13.4	92.340	-0.260	0.030	1.150
2020/01/31 04:06:13.5	92.340	-0.250	-0.020	1.140
2020/01/31 04:06:13.6	92.350	-0.230	-0.080	1.120
2020/01/31 04:06:13.7	92.350	-0.210	-0.150	1.100
2020/01/31 04:06:13.8	92.360	-0.180	-0.210	1.070
2020/01/31 04:06:13.9	92.380	-0.150	-0.280	1.040
2020/01/31 04:06:14.0	92.390	-0.120	-0.360	1.000
2020/01/31 04:06:14.1	92.420	-0.080	-0.430	0.960
2020/01/31 04:06:14.2	92.440	-0.040	-0.500	0.920
2020/01/31 04:06:14.3	92.460	-0.000	-0.570	0.880
2020/01/31 04:06:14.4	92.490	0.030	-0.640	0.840
2020/01/31 04:06:14.5	92.510	0.070	-0.700	0.800
2020/01/31 04:06:14.6	92.530	0.110	-0.760	0.760
2020/01/31 04:06:14.7	92.560	0.140	-0.800	0.720
2020/01/31 04:06:14.8	92.580	0.180	-0.840	0.690
2020/01/31 04:06:14.9	92.600	0.210	-0.870	0.660
2020/01/31 04:06:15.0	92.610	0.240	-0.880	0.630
2020/01/31 04:06:15.1	92.630	0.260	-0.890	0.610
2020/01/31 04:06:15.2	92.640	0.280	-0.880	0.590
2020/01/31 04:06:15.3	92.640	0.300	-0.860	0.580
2020/01/31 04:06:15.4	92.650	0.310	-0.830	0.570
2020/01/31 04:06:15.5	92.650	0.310	-0.780	0.560
2020/01/31 04:06:15.6	92.640	0.310	-0.730	0.550
2020/01/31 04:06:15.7	92.640	0.310	-0.660	0.540
2020/01/31 04:06:15.8	92.630	0.300	-0.590	0.540
2020/01/31 04:06:15.9	92.620	0.290	-0.500	0.540
2020/01/31 04:06:16.0	92.610	0.270	-0.410	0.540
2020/01/31 04:06:16.1	92.620	0.250	-0.310	0.540
2020/01/31 04:06:16.2	92.600	0.220	-0.210	0.540
2020/01/31 04:06:16.3	92.590	0.190	-0.100	0.540
2020/01/31 04:06:16.4	92.570	0.160	0.010	0.550
2020/01/31 04:06:16.5	92.550	0.120	0.130	0.550
2020/01/31 04:06:16.6	92.540	0.080	0.240	0.550
2020/01/31 04:06:16.7	92.520	0.040	0.350	0.550
2020/01/31 04:06:16.8	92.500	0.000	0.450	0.560
2020/01/31 04:06:16.9	92.490	-0.040	0.550	0.550
2020/01/31 04:06:17.0	92.480	-0.080	0.640	0.550
2020/01/31 04:06:17.1	92.460	-0.120	0.720	0.550
2020/01/31 04:06:17.2	92.450	-0.160	0.800	0.550
2020/01/31 04:06:17.3	92.450	-0.190	0.860	0.540
2020/01/31 04:06:17.4	92.440	-0.220	0.900	0.530
2020/01/31 04:06:17.5	92.440	-0.250	0.940	0.520
2020/01/31 04:06:17.6	92.440	-0.270	0.950	0.510
2020/01/31 04:06:17.7	92.440	-0.290	0.960	0.500
2020/01/31 04:06:17.8	92.450	-0.300	0.940	0.490
2020/01/31 04:06:17.9	92.450	-0.310	0.920	0.480
2020/01/31 04:06:18.0	92.460	-0.310	0.870	0.480
2020/01/31 04:06:18.1	92.470	-0.310	0.820	0.470
2020/01/31 04:06:18.2	92.480	-0.290	0.740	0.460
2020/01/31 04:06:18.3	92.490	-0.280	0.660	0.450
2020/01/31 04:06:18.4	92.500	-0.260	0.560	0.450
2020/01/31 04:06:18.5	92.510	-0.230	0.450	0.440
2020/01/31 04:06:18.6	92.520	-0.200	0.330	0.440
2020/01/31 04:06:18.7	92.530	-0.160	0.210	0.430
2020/01/31 04:06:18.8	92.540	-0.120	0.080	0.430
2020/01/31 04:06:18.9	92.550	-0.070	-0.060	0.430
2020/01/31 04:06:19.0	92.570	-0.030	-0.200	0.420
2020/01/31 04:06:19.1	92.570	0.020	-0.350	0.420
2020/01/31 04:06:19.2	92.590	0.070	-0.480	0.420
2020/01/31 04:06:19.3	92.600	0.120	-0.620	0.410
2020/01/31 04:06:19.4	92.610	0.170	-0.750	0.410
2020/01/31 04:06:19.5	92.630	0.220	-0.880	0.410
2020/01/31 04:06:19.6	92.640	0.270	-0.990	0.410
2020/01/31 04:06:19.7	92.650	0.320	-1.100	0.410
2020/01/31 04:06:19.8	92.660	0.370	-1.200	0.410
2020/01/31 04:06:19.9	92.670	0.410	-1.280	0.410
2020/01/31 04:06:20.0	92.680	0.450	-1.350	0.420
2020/01/31 04:06:20.1	92.680	0.480	-1.410	0.420
2020/01/31 04:06:20.2	92.690	0.510	-1.450	0.430
2020/01/31 04:06:20.3	92.690	0.540	-1.480	0.440
2020/01/31 04:06:20.4	92.700	0.560	-1.490	0.460
2020/01/31 04:06:20.5	92.700	0.570	-1.490	0.470
2020/01/31 04:06:20.6	92.700	0.580	-1.470	0.490
2020/01/31 04:06:20.7	92.700	0.580	-1.430	0.520
2020/01/31 04:06:20.8	92.700	0.580	-1.390	0.540
2020/01/31 04:06:20.9	92.690	0.570	-1.320	0.570
2020/01/31 04:06:21.0	92.690	0.550	-1.250	0.610
2020/01/31 04:06:21.1	92.700	0.520	-1.160	0.650
2020/01/31 04:06:21.2	92.690	0.490	-1.060	0.690
2020/01/31 04:06:21.3	92.680	0.460	-0.950	0.730
2020/01/31 04:06:21.4	92.670	0.420	-0.830	0.770
2020/01/31 04:06:21.5	92.650	0.370	-0.710	0.820
2020/01/31 04:06:21.6	92.640	0.320	-0.580	0.860
2020/01/31 04:06:21.7	92.620	0.260	-0.450	0.900
2020/01/31 04:06:21.8	92.610	0.200	-0.320	0.950
2020/01/31 04:06:21.9	92.590	0.130	-0.180	0.990
2020/01/31 04:06:22.0	92.570	0.060	-0.050	1.040
2020/01/31 04:06:22.1	92.540	-0.010	0.080	1.070
2020/01/31 04:06:22.2	92.520	-0.080	0.210	1.110
2020/01/31 04:06:22.3	92.500	-0.150	0.330	1.140
2020/01/31 04:06:22.4	92.490	-0.220	0.450	1.180
2020/01/31 04:06:22.5	92.470	-0.300	0.550	1.200
2020/01/31 04:06:22.6	92.460	-0.370	0.650	1.230
2020/01/31 04:06:22.7	92.450	-0.430	0.730	1.250
2020/01/31 04:06:22.8	92.440	-0.500	0.810	1.260
2020/01/31 04:06:22.9	92.430	-0.560	0.870	1.270
2020/01/31 04:06:23.0	92.430	-0.610	0.910	1.270
2020/01/31 04:06:23.1	92.420	-0.660	0.960	1.260
2020/01/31 04:06:23.2	92.420	-0.710	0.980	1.250
2020/01/31 04:06:23.3	92.420	-0.750	0.980	1.240
2020/01/31 04:06:23.4	92.430	-0.780	0.970	1.220
2020/01/31 04:06:23.5	92.440	-0.810	0.950	1.190
2020/01/31 04:06:23.6	92.450	-0.820	0.920	1.160
2020/01/31 04:06:23.7	92.470	-0.830	0.870	1.120
2020/01/31 04:06:23.8	92.490	-0.840	0.810	1.080
2020/01/31 04:06:23.9	92.510	-0.830	0.740	1.040
2020/01/31 04:06:24.0	92.530	-0.820	0.660	1.000
2020/01/31 04:06:24.1	92.560	-0.800	0.560	0.950
2020/01/31 04:06:24.2	92.580	-0.780	0.460	0.900
2020/01/31 04:06:24.3	92.610	-0.740	0.360	0.850
2020/01/31 04:06:24.4	92.630	-0.710	0.250	0.810
2020/01/31 04:06:24.5	92.660	-0.660	0.130	0.760
2020/01/31 04:06:24.6	92.680	-0.610	0.020	0.710
2020/01/31 04:06:24.7	92.710	-0.560	-0.100	0.670
2020/01/31 04:06:24.8	92.730	-0.500	-0.220	0.630
2020/01/31 04:06:24.9	92.750	-0.440	-0.330	0.590
2020/01/31 04:06:25.0	92.770	-0.370	-0.450	0.550
2020/01/31 04:06:25.1	92.800	-0.310	-0.550	0.520
2020/01/31 04:06:25.2	92.810	-0.240	-0.660	0.490
2020/01/31 04:06:25.3	92.820	-0.170	-0.760	0.470
2020/01/31 04:06:25.4	92.830	-0.100	-0.850	0.460
2020/01/31 04:06:25.5	92.840	-0.030	-0.940	0.440
2020/01/31 04:06:25.6	92.840	0.030	-1.010	0.430
2020/01/31 04:06:25.7	92.850	0.100	-1.080	0.430
2020/01/31 04:06:25.8	92.840	0.160	-1.130	0.430
2020/01/31 04:06:25.9	92.840	0.210	-1.180	0.430
2020/01/31 04:06:26.0	92.840	0.260	-1.210	0.440
2020/01/31 04:06:26.1	92.840	0.310	-1.240	0.450
2020/01/31 04:06:26.2	92.830	0.350	-1.250	0.460
2020/01/31 04:06:26.3	92.820	0.390	-1.250	0.470
2020/01/31 04:06:26.4	92.810	0.420	-1.240	0.490
2020/01/31 04:06:26.5	92.800	0.440	-1.220	0.510
2020/01/31 04:06:26.6	92.790	0.460	-1.190	0.520
2020/01/31 04:06:26.7	92.780	0.470	-1.150	0.540
2020/01/31 04:06:26.8	92.770	0.470	-1.100	0.560
2020/01/31 04:06:26.9	92.760	0.470	-1.040	0.580
2020/01/31 04:06:27.0	92.760	0.460	-0.970	0.600
2020/01/31 04:06:27.1	92.740	0.450	-0.890	0.610
2020/01/31 04:06:27.2	92.740	0.430	-0.800	0.630
2020/01/31 04:06:27.3	92.740	0.410	-0.720	0.640
2020/01/31 04:06:27.4	92.740	0.380	-0.630	0.650
2020/01/31 04:06:27.5	92.740	0.350	-0.530	0.650
2020/01/31 04:06:27.6	92.750	0.310	-0.440	0.660
2020/01/31 04:06:27.7	92.750	0.270	-0.340	0.660
2020/01/31 04:06:27.8	92.760	0.230	-0.240	0.660
2020/01/31 04:06:27.9	92.780	0.190	-0.150	0.660
2020/01/31 04:06:28.0	92.790	0.140	-0.050	0.650
2020/01/31 04:06:28.1	92.810	0.100	0.040	0.650
2020/01/31 04:06:28.2	92.830	0.050	0.130	0.640
2020/01/31 04:06:28.3	92.850	0.000	0.210	0.630
2020/01/31 04:06:28.4	92.870	-0.040	0.280	0.620
2020/01/31 04:06:28.5	92.890	-0.080	0.350	0.610
2020/01/31 04:06:28.6	92.910	-0.120	0.420	0.600
2020/01/31 04:06:28.7	92.930	-0.160	0.480	0.580
2020/01/31 04:06:28.8	92.960	-0.190	0.520	0.570
2020/01/31 04:06:28.9	92.980	-0.230	0.570	0.550
2020/01/31 04:06:29.0	93.000	-0.250	0.600	0.540
2020/01/31 04:06:29.1	93.020	-0.270	0.620	0.520
2020/01/31 04:06:29.2	93.030	-0.290	0.640	0.510
2020/01/31 04:06:29.3	93.050	-0.310	0.640	0.490
2020/01/31 04:06:29.4	93.070	-0.310	0.640	0.480
2020/01/31 04:06:29.5	93.080	-0.320	0.630	0.460
2020/01/31 04:06:29.6	93.090	-0.320	0.610	0.440
2020/01/31 04:06:29.7	93.110	-0.310	0.580	0.430
2020/01/31 04:06:29.8	93.120	-0.300	0.540	0.410
2020/01/31 04:06:29.9	93.130	-0.280	0.500	0.400
2020/01/31 04:06:30.0	93.140	-0.270	0.450	0.380
2020/01/31 04:06:30.1	93.140	-0.240	0.390	0.370
2020/01/31 04:06:30.2	93.150	-0.220	0.330	0.350
2020/01/31 04:06:30.3	93.160	-0.190	0.270	0.340
2020/01/31 04:06:30.4	93.160	-0.160	0.200	0.330
2020/01/31 04:06:30.5	93.170	-0.130	0.130	0.320
2020/01/31 04:06:30.6	93.170	-0.100	0.060	0.310
2020/01/31 04:06:30.7	93.170	-0.060	-0.010	0.300
2020/01/31 04:06:30.8	93.170	-0.030	-0.090	0.300
2020/01/31 04:06:30.9	93.170	0.010	-0.160	0.300
2020/01/31 04:06:31.0	93.170	0.040	-0.230	0.300
2020/01/31 04:06:31.1	93.180	0.080	-0.300	0.300
2020/01/31 04:06:31.2	93.170	0.110	-0.370	0.310
2020/01/31 04:06:31.3	93.170	0.140	-0.440	0.320
2020/01/31 04:06:31.4	93.170	0.180	-0.500	0.340
2020/01/31 04:06:31.5	93.160	0.200	-0.560	0.350
2020/01/31 04:06:31.6	93.160	0.230	-0.610	0.370
2020/01/31 04:06:31.7	93.150	0.260	-0.660	0.380
2020/01/31 04:06:31.8	93.150	0.280	-0.700	0.400
2020/01/31 04:06:31.9	93.140	0.300	-0.740	0.420
2020/01/31 04:06:32.0	93.140	0.320	-0.770	0.430
2020/01/31 04:06:32.1	93.140	0.330	-0.800	0.450
2020/01/31 04:06:32.2	93.130	0.340	-0.820	0.460
2020/01/31 04:06:32.3	93.130	0.350	-0.830	0.470
2020/01/31 04:06:32.4	93.130	0.360	-0.840	0.480
2020/01/31 04:06:32.5	93.130	0.360	-0.840	0.480
2020/01/31 04:06:32.6	93.120	0.360	-0.830	0.490
2020/01/31 04:06:32.7	93.120	0.360	-0.820	0.490
2020/01/31 04:06:32.8	93.120	0.360	-0.810	0.490
2020/01/31 04:06:32.9	93.120	0.360	-0.780	0.490
2020/01/31 04:06:33.0	93.130	0.350	-0.750	0.490
2020/01/31 04:06:33.1	93.130	0.340	-0.710	0.490
2020/01/31 04:06:33.2	93.140	0.330	-0.680	0.480
2020/01/31 04:06:33.3	93.140	0.320	-0.630	0.470
2020/01/31 04:06:33.4	93.140	0.310	-0.590	0.470
2020/01/31 04:06:33.5	93.150	0.300	-0.530	0.460
2020/01/31 04:06:33.6	93.150	0.290	-0.480	0.450
2020/01/31 04:06:33.7	93.160	0.270	-0.430	0.440
2020/01/31 04:06:33.8	93.160	0.260	-0.370	0.440
2020/01/31 04:06:33.9	93.170	0.250	-0.320	0.430
2020/01/31 04:06:34.0	93.170	0.240	-0.260	0.420
2020/01/31 04:06:34.1	93.170	0.230	-0.200	0.420
2020/01/31 04:06:34.2	93.180	0.220	-0.150	0.410
2020/01/31 04:06:34.3	93.180	0.210	-0.100	0.420
2020/01/31 04:06:34.4	93.190	0.200	-0.050	0.420
2020/01/31 04:06:34.5	93.190	0.200	-0.000	0.430
2020/01/31 04:06:34.6	93.190	0.190	0.040	0.440
2020/01/31 04:06:34.7	93.190	0.190	0.080	0.450
2020/01/31 04:06:34.8	93.190	0.180	0.110	0.470
2020/01/31 04:06:34.9	93.200	0.180	0.140	0.480
2020/01/31 04:06:35.0	93.200	0.180	0.160	0.500
2020/01/31 04:06:35.1	93.180	0.180	0.180	0.530
2020/01/31 04:06:35.2	93.180	0.180	0.200	0.550
2020/01/31 04:06:35.3	93.180	0.180	0.210	0.580
2020/01/31 04:06:35.4	93.180	0.180	0.210	0.600
2020/01/31 04:06:35.5	93.180	0.180	0.210	0.620
2020/01/31 04:06:35.6	93.180	0.180	0.200	0.640
2020/01/31 04:06:35.7	93.180	0.180	0.190	0.660
2020/01/31 04:06:35.8	93.180	0.180	0.170	0.680
2020/01/31 04:06:35.9	93.180	0.180	0.150	0.700
2020/01/31 04:06:36.0	93.180	0.180	0.120	0.720
2020/01/31 04:06:36.1	93.190	0.180	0.090	0.730
2020/01/31 04:06:36.2	93.190	0.180	0.050	0.740
2020/01/31 04:06:36.3	93.200	0.180	0.020	0.750
2020/01/31 04:06:36.4	93.200	0.180	-0.020	0.750
2020/01/31 04:06:36.5	93.210	0.180	-0.060	0.760
2020/01/31 04:06:36.6	93.220	0.180	-0.110	0.760
2020/01/31 04:06:36.7	93.220	0.180	-0.150	0.760
2020/01/31 04:06:36.8	93.230	0.170	-0.190	0.760
2020/01/31 04:06:36.9	93.240	0.170	-0.230	0.760
2020/01/31 04:06:37.0	93.250	0.160	-0.280	0.760
2020/01/31 04:06:37.1	93.250	0.150	-0.320	0.760
2020/01/31 04:06:37.2	93.260	0.150	-0.360	0.760
2020/01/31 04:06:37.3	93.280	0.140	-0.400	0.760
2020/01/31 04:06:37.4	93.290	0.130	-0.430	0.760
2020/01/31 04:06:37.5	93.300	0.110	-0.470	0.760
2020/01/31 04:06:37.6	93.310	0.100	-0.500	0.770
2020/01/31 04:06:37.7	93.330	0.090	-0.530	0.770
2020/01/31 04:06:37.8	93.340	0.070	-0.550	0.770
2020/01/31 04:06:37.9	93.350	0.050	-0.570	0.780
2020/01/31 04:06:38.0	93.360	0.040	-0.590	0.790
2020/01/31 04:06:38.1	93.370	0.020	-0.600	0.800
2020/01/31 04:06:38.2	93.380	-0.000	-0.610	0.810
2020/01/31 04:06:38.3	93.390	-0.020	-0.620	0.820
2020/01/31 04:06:38.4	93.400	-0.050	-0.620	0.830
2020/01/31 04:06:38.5	93.410	-0.070	-0.610	0.840
2020/01/31 04:06:38.6	93.420	-0.090	-0.610	0.860
2020/01/31 04:06:38.7	93.420	-0.120	-0.590	0.870
2020/01/31 04:06:38.8	93.430	-0.140	-0.570	0.890
2020/01/31 04:06:38.9	93.430	-0.170	-0.540	0.900
2020/01/31 04:06:39.0	93.440	-0.190	-0.510	0.920
2020/01/31 04:06:39.1	93.440	-0.220	-0.480	0.940
2020/01/31 04:06:39.2	93.450	-0.250	-0.440	0.960
2020/01/31 04:06:39.3	93.450	-0.280	-0.390	0.980
2020/01/31 04:06:39.4	93.460	-0.310	-0.340	1.000
2020/01/31 04:06:39.5	93.460	-0.340	-0.290	1.010
2020/01/31 04:06:39.6	93.460	-0.370	-0.230	1.030
2020/01/31 04:06:39.7	93.470	-0.400	-0.170	1.050
2020/01/31 04:06:39.8	93.470	-0.430	-0.110	1.070
2020/01/31 04:06:39.9	93.470	-0.460	-0.050	1.090
2020/01/31 04:06:40.0	93.470	-0.490	0.010	1.110
2020/01/31 04:06:40.1	93.480	-0.530	0.070	1.120
2020/01/31 04:06:40.2	93.480	-0.560	0.130	1.140
2020/01/31 04:06:40.3	93.490	-0.590	0.190	1.150
2020/01/31 04:06:40.4	93.490	-0.620	0.250	1.160
2020/01/31 04:06:40.5	93.490	-0.650	0.300	1.170
2020/01/31 04:06:40.6	93.490	-0.670	0.350	1.180
2020/01/31 04:06:40.7	93.500	-0.700	0.390	1.180
2020/01/31 04:06:40.8	93.500	-0.720	0.420	1.180
2020/01/31 04:06:40.9	93.500	-0.750	0.450	1.180
2020/01/31 04:06:41.0	93.510	-0.770	0.470	1.180
2020/01/31 04:06:41.1	93.510	-0.780	0.490	1.170
2020/01/31 04:06:41.2	93.510	-0.800	0.490	1.160
2020/01/31 04:06:41.3	93.520	-0.810	0.490	1.150
2020/01/31 04:06:41.4	93.520	-0.810	0.480	1.140
2020/01/31 04:06:41.5	93.520	-0.820	0.470	1.120
2020/01/31 04:06:41.6	93.530	-0.820	0.440	1.100
2020/01/31 04:06:41.7	93.530	-0.810	0.410	1.090
2020/01/31 04:06:41.8	93.530	-0.810	0.370	1.070
2020/01/31 04:06:41.9	93.530	-0.790	0.330	1.050
2020/01/31 04:06:42.0	93.530	-0.780	0.270	1.040
2020/01/31 04:06:42.1	93.530	-0.760	0.220	1.020
2020/01/31 04:06:42.2	93.520	-0.730	0.160	1.010
2020/01/31 04:06:42.3	93.510	-0.710	0.100	1.000
2020/01/31 04:06:42.4	93.500	-0.670	0.030	0.990
2020/01/31 04:06:42.5	93.490	-0.640	-0.030	0.980
2020/01/31 04:06:42.6	93.480	-0.600	-0.100	0.960
2020/01/31 04:06:42.7	93.470	-0.560	-0.170	0.950
2020/01/31 04:06:42.8	93.450	-0.520	-0.230	0.930
2020/01/31 04:06:42.9	93.440	-0.480	-0.300	0.910
2020/01/31 04:06:43.0	93.430	-0.430	-0.360	0.890
2020/01/31 04:06:43.1	93.410	-0.390	-0.410	0.860
2020/01/31 04:06:43.2	93.400	-0.340	-0.470	0.830
2020/01/31 04:06:43.3	93.390	-0.290	-0.520	0.800
2020/01/31 04:06:43.4	93.380	-0.240	-0.570	0.770
2020/01/31 04:06:43.5	93.360	-0.190	-0.620	0.730
2020/01/31 04:06:43.6	93.350	-0.140	-0.660	0.700
2020/01/31 04:06:43.7	93.340	-0.090	-0.700	0.660
2020/01/31 04:06:43.8	93.330	-0.030	-0.740	0.620
2020/01/31 04:06:43.9	93.320	0.020	-0.780	0.580
2020/01/31 04:06:44.0	93.300	0.070	-0.810	0.530
2020/01/31 04:06:44.1	93.280	0.120	-0.840	0.490
2020/01/31 04:06:44.2	93.270	0.180	-0.870	0.450
2020/01/31 04:06:44.3	93.270	0.230	-0.890	0.410
2020/01/31 04:06:44.4	93.260	0.290	-0.920	0.370
2020/01/31 04:06:44.5	93.250	0.340	-0.940	0.330
2020/01/31 04:06:44.6	93.240	0.390	-0.960	0.290
2020/01/31 04:06:44.7	93.240	0.450	-0.980	0.250
2020/01/31 04:06:44.8	93.230	0.500	-0.990	0.210
2020/01/31 04:06:44.9	93.220	0.550	-1.010	0.180
2020/01/31 04:06:45.0	93.220	0.600	-1.020	0.150
2020/01/31 04:06:45.1	93.220	0.650	-1.020	0.120
2020/01/31 04:06:45.2	93.210	0.700	-1.020	0.090
2020/01/31 04:06:45.3	93.210	0.740	-1.020	0.070
2020/01/31 04:06:45.4	93.210	0.790	-1.020	0.050
2020/01/31 04:06:45.5	93.200	0.830	-1.010	0.030
2020/01/31 04:06:45.6	93.200	0.870	-0.990	0.020
2020/01/31 04:06:45.7	93.200	0.900	-0.970	0.010
2020/01/31 04:06:45.8	93.200	0.930	-0.950	0.000
2020/01/31 04:06:45.9	93.200	0.960	-0.920	-0.000
2020/01/31 04:06:46.0	93.200	0.980	-0.880	-0.010
2020/01/31 04:06:46.1	93.220	1.000	-0.840	-0.000
2020/01/31 04:06:46.2	93.230	1.010	-0.790	-0.000
2020/01/31 04:06:46.3	93.230	1.020	-0.740	0.000
2020/01/31 04:06:46.4	93.230	1.030	-0.690	0.010
2020/01/31 04:06:46.5	93.240	1.030	-0.630	0.010
2020/01/31 04:06:46.6	93.240	1.020	-0.570	0.020
2020/01/31 04:06:46.7	93.240	1.010	-0.510	0.030
2020/01/31 04:06:46.8	93.250	0.990	-0.440	0.040
2020/01/31 04:06:46.9	93.260	0.970	-0.370	0.040
2020/01/31 04:06:47.0	93.260	0.950	-0.290	0.050
2020/01/31 04:06:47.1	93.260	0.920	-0.220	0.060
2020/01/31 04:06:47.2	93.270	0.880	-0.140	0.060
2020/01/31 04:06:47.3	93.280	0.840	-0.060	0.070
2020/01/31 04:06:47.4	93.290	0.800	0.010	0.080
2020/01/31 04:06:47.5	93.290	0.750	0.090	0.090
2020/01/31 04:06:47.6	93.300	0.700	0.170	0.100
2020/01/31 04:06:47.7	93.310	0.650	0.250	0.110
2020/01/31 04:06:47.8	93.310	0.590	0.320	0.120
2020/01/31 04:06:47.9	93.320	0.530	0.400	0.130
2020/01/31 04:06:48.0	93.320	0.470	0.470	0.150
2020/01/31 04:06:48.1	93.330	0.410	0.540	0.160
2020/01/31 04:06:48.2	93.340	0.350	0.600	0.180
2020/01/31 04:06:48.3	93.340	0.290	0.660	0.200
2020/01/31 04:06:48.4	93.340	0.220	0.720	0.230
2020/01/31 04:06:48.5	93.350	0.160	0.770	0.250
2020/01/31 04:06:48.6	93.350	0.100	0.810	0.280
2020/01/31 04:06:48.7	93.350	0.040	0.850	0.310
2020/01/31 04:06:48.8	93.360	-0.020	0.890	0.340
2020/01/31 04:06:48.9	93.360	-0.080	0.910	0.370
2020/01/31 04:06:49.0	93.360	-0.130	0.930	0.400
2020/01/31 04:06:49.1	93.360	-0.180	0.950	0.430
2020/01/31 04:06:49.2	93.360	-0.230	0.950	0.470
2020/01/31 04:06:49.3	93.360	-0.280	0.940	0.500
2020/01/31 04:06:49.4	93.370	-0.320	0.930	0.540
2020/01/31 04:06:49.5	93.370	-0.350	0.910	0.570
2020/01/31 04:06:49.6	93.370	-0.380	0.880	0.610
2020/01/31 04:06:49.7	93.380	-0.410	0.840	0.640
2020/01/31 04:06:49.8	93.380	-0.430	0.790	0.680
2020/01/31 04:06:49.9	93.390	-0.440	0.730	0.710
2020/01/31 04:06:50.0	93.400	-0.450	0.660	0.750
2020/01/31 04:06:50.1	93.400	-0.450	0.570	0.780
2020/01/31 04:06:50.2	93.400	-0.450	0.490	0.820
2020/01/31 04:06:50.3	93.410	-0.440	0.390	0.850
2020/01/31 04:06:50.4	93.420	-0.430	0.290	0.880
2020/01/31 04:06:50.5	93.430	-0.410	0.180	0.920
2020/01/31 04:06:50.6	93.440	-0.390	0.060	0.950
2020/01/31 04:06:50.7	93.440	-0.360	-0.060	0.980
2020/01/31 04:06:50.8	93.450	-0.330	-0.180	1.010
2020/01/31 04:06:50.9	93.460	-0.290	-0.310	1.050
2020/01/31 04:06:51.0	93.470	-0.250	-0.430	1.080
2020/01/31 04:06:51.1	93.470	-0.220	-0.560	1.110
2020/01/31 04:06:51.2	93.480	-0.170	-0.690	1.140
2020/01/31 04:06:51.3	93.490	-0.130	-0.800	1.170
2020/01/31 04:06:51.4	93.490	-0.090	-0.920	1.200
2020/01/31 04:06:51.5	93.490	-0.050	-1.020	1.230
2020/01/31 04:06:51.6	93.490	-0.020	-1.120	1.260
2020/01/31 04:06:51.7	93.500	0.020	-1.210	1.290
2020/01/31 04:06:51.8	93.500	0.050	-1.290	1.310
2020/01/31 04:06:51.9	93.500	0.080	-1.360	1.330
2020/01/31 04:06:52.0	93.490	0.110	-1.420	1.350
2020/01/31 04:06:52.1	93.490	0.130	-1.470	1.370
2020/01/31 04:06:52.2	93.490	0.150	-1.500	1.390
2020/01/31 04:06:52.3	93.490	0.160	-1.520	1.410
2020/01/31 04:06:52.4	93.480	0.170	-1.530	1.420
2020/01/31 04:06:52.5	93.470	0.180	-1.520	1.440
2020/01/31 04:06:52.6	93.470	0.180	-1.500	1.450
2020/01/31 04:06:52.7	93.460	0.170	-1.470	1.470
2020/01/31 04:06:52.8	93.450	0.160	-1.420	1.480
2020/01/31 04:06:52.9	93.430	0.140	-1.360	1.490
2020/01/31 04:06:53.0	93.420	0.120	-1.300	1.500
2020/01/31 04:06:53.1	93.410	0.100	-1.210	1.520
2020/01/31 04:06:53.2	93.400	0.070	-1.130	1.530
2020/01/31 04:06:53.3	93.380	0.030	-1.030	1.540
2020/01/31 04:06:53.4	93.360	-0.000	-0.930	1.560
2020/01/31 04:06:53.5	93.350	-0.040	-0.820	1.570
2020/01/31 04:06:53.6	93.330	-0.090	-0.700	1.580
2020/01/31 04:06:53.7	93.310	-0.130	-0.580	1.590
2020/01/31 04:06:53.8	93.290	-0.180	-0.460	1.600
2020/01/31 04:06:53.9	93.280	-0.230	-0.340	1.600
2020/01/31 04:06:54.0	93.260	-0.280	-0.220	1.600
2020/01/31 04:06:54.1	93.250	-0.330	-0.100	1.610
2020/01/31 04:06:54.2	93.240	-0.370	0.020	1.600
2020/01/31 04:06:54.3	93.220	-0.420	0.130	1.590
2020/01/31 04:06:54.4	93.210	-0.470	0.240	1.580
2020/01/31 04:06:54.5	93.200	-0.520	0.350	1.560
2020/01/31 04:06:54.6	93.190	-0.560	0.450	1.540
2020/01/31 04:06:54.7	93.180	-0.610	0.540	1.510
2020/01/31 04:06:54.8	93.180	-0.650	0.630	1.480
2020/01/31 04:06:54.9	93.170	-0.690	0.700	1.450
2020/01/31 04:06:55.0	93.170	-0.720	0.770	1.410
2020/01/31 04:06:55.1	93.170	-0.760	0.840	1.370
2020/01/31 04:06:55.2	93.160	-0.790	0.890	1.320
2020/01/31 04:06:55.3	93.160	-0.810	0.930	1.270
2020/01/31 04:06:55.4	93.160	-0.830	0.960	1.220
2020/01/31 04:06:55.5	93.160	-0.850	0.990	1.160
2020/01/31 04:06:55.6	93.160	-0.870	1.000	1.100
2020/01/31 04:06:55.7	93.160	-0.870	1.000	1.040
2020/01/31 04:06:55.8	93.160	-0.880	0.990	0.980
2020/01/31 04:06:55.9	93.160	-0.880	0.980	0.920
2020/01/31 04:06:56.0	93.170	-0.870	0.950	0.850
2020/01/31 04:06:56.1	93.160	-0.860	0.910	0.780
2020/01/31 04:06:56.2	93.170	-0.840	0.860	0.720
2020/01/31 04:06:56.3	93.170	-0.820	0.800	0.650
2020/01/31 04:06:56.4	93.180	-0.790	0.730	0.590
2020/01/31 04:06:56.5	93.190	-0.750	0.650	0.520
2020/01/31 04:06:56.6	93.190	-0.710	0.560	0.460
2020/01/31 04:06:56.7	93.200	-0.670	0.470	0.400
2020/01/31 04:06:56.8	93.220	-0.620	0.370	0.340
2020/01/31 04:06:56.9	93.230	-0.570	0.260	0.280
2020/01/31 04:06:57.0	93.240	-0.510	0.150	0.220
2020/01/31 04:06:57.1	93.270	-0.450	0.030	0.160
2020/01/31 04:06:57.2	93.290	-0.380	-0.090	0.110
2020/01/31 04:06:57.3	93.300	-0.310	-0.200	0.060
2020/01/31 04:06:57.4	93.320	-0.240	-0.320	0.010
2020/01/31 04:06:57.5	93.330	-0.170	-0.440	-0.040
2020/01/31 04:06:57.6	93.350	-0.090	-0.550	-0.080
2020/01/31 04:06:57.7	93.360	-0.020	-0.660	-0.120
2020/01/31 04:06:57.8	93.380	0.060	-0.770	-0.160
2020/01/31 04:06:57.9	93.390	0.140	-0.870	-0.190
2020/01/31 04:06:58.0	93.400	0.210	-0.960	-0.220
2020/01/31 04:06:58.1	93.410	0.290	-1.050	-0.240
2020/01/31 04:06:58.2	93.420	0.360	-1.130	-0.260
2020/01/31 04:06:58.3	93.420	0.430	-1.200	-0.280
2020/01/31 04:06:58.4	93.430	0.500	-1.270	-0.290
2020/01/31 04:06:58.5	93.430	0.570	-1.320	-0.300
2020/01/31 04:06:58.6	93.430	0.630	-1.370	-0.310
2020/01/31 04:06:58.7	93.430	0.690	-1.400	-0.310
2020/01/31 04:06:58.8	93.420	0.740	-1.430	-0.310
2020/01/31 04:06:58.9	93.420	0.790	-1.440	-0.310
2020/01/31 04:06:59.0	93.410	0.840	-1.450	-0.300
2020/01/31 04:06:59.1	93.400	0.880	-1.440	-0.290
2020/01/31 04:06:59.2	93.390	0.910	-1.420	-0.270
2020/01/31 04:06:59.3	93.380	0.940	-1.400	-0.260
2020/01/31 04:06:59.4	93.370	0.970	-1.370	-0.240
2020/01/31 04:06:59.5	93.360	0.980	-1.320	-0.230
2020/01/31 04:06:59.6	93.350	1.000	-1.270	-0.210
2020/01/31 04:06:59.7	93.340	1.000	-1.210	-0.180
2020/01/31 04:06:59.8	93.330	1.000	-1.150	-0.160
2020/01/31 04:06:59.9	93.320	1.000	-1.070	-0.130
2020/01/31 04:07:00.0	93.310	0.990	-0.990	-0.100
2020/01/31 04:07:00.1	93.280	0.980	-0.910	-0.070
2020/01/31 04:07:00.2	93.270	0.960	-0.820	-0.030
2020/01/31 04:07:00.3	93.260	0.940	-0.720	0.010
2020/01/31 04:07:00.4	93.250	0.910	-0.630	0.040
2020/01/31 04:07:00.5	93.250	0.880	-0.530	0.090
2020/01/31 04:07:00.6	93.240	0.840	-0.430	0.130
2020/01/31 04:07:00.7	93.230	0.800	-0.330	0.170
2020/01/31 04:07:00.8	93.230	0.760	-0.230	0.220
2020/01/31 04:07:00.9	93.220	0.710	-0.130	0.260
2020/01/31 04:07:01.0	93.220	0.660	-0.030	0.310
2020/01/31 04:07:01.1	93.220	0.610	0.070	0.360
2020/01/31 04:07:01.2	93.220	0.560	0.160	0.410
2020/01/31 04:07:01.3	93.220	0.500	0.250	0.460
2020/01/31 04:07:01.4	93.220	0.440	0.330	0.510
2020/01/31 04:07:01.5	93.220	0.390	0.410	0.550
2020/01/31 04:07:01.6	93.220	0.330	0.480	0.600
2020/01/31 04:07:01.7	93.220	0.270	0.540	0.650
2020/01/31 04:07:01.8	93.220	0.210	0.600	0.690
2020/01/31 04:07:01.9	93.230	0.150	0.650	0.730
2020/01/31 04:07:02.0	93.230	0.090	0.700	0.770
2020/01/31 04:07:02.1	93.230	0.030	0.730	0.820
2020/01/31 04:07:02.2	93.230	-0.030	0.750	0.860
2020/01/31 04:07:02.3	93.230	-0.080	0.770	0.890
2020/01/31 04:07:02.4	93.230	-0.140	0.780	0.920
2020/01/31 04:07:02.5	93.230	-0.190	0.790	0.950
2020/01/31 04:07:02.6	93.230	-0.240	0.780	0.980
2020/01/31 04:07:02.7	93.230	-0.290	0.770	1.010
2020/01/31 04:07:02.8	93.230	-0.340	0.750	1.040
2020/01/31 04:07:02.9	93.230	-0.380	0.720	1.060
2020/01/31 04:07:03.0	93.230	-0.420	0.690	1.090
2020/01/31 04:07:03.1	93.240	-0.450	0.650	1.110
2020/01/31 04:07:03.2	93.240	-0.480	0.610	1.140
2020/01/31 04:07:03.3	93.230	-0.510	0.550	1.160
2020/01/31 04:07:03.4	93.220	-0.530	0.500	1.190
2020/01/31 04:07:03.5	93.220	-0.550	0.440	1.210
2020/01/31 04:07:03.6	93.210	-0.570	0.370	1.230
2020/01/31 04:07:03.7	93.200	-0.580	0.300	1.260
2020/01/31 04:07:03.8	93.200	-0.590	0.230	1.280
2020/01/31 04:07:03.9	93.190	-0.590	0.160	1.300
2020/01/31 04:07:04.0	93.190	-0.590	0.090	1.320
2020/01/31 04:07:04.1	93.160	-0.590	0.010	1.350
2020/01/31 04:07:04.2	93.160	-0.580	-0.060	1.370
2020/01/31 04:07:04.3	93.160	-0.570	-0.130	1.380
2020/01/31 04:07:04.4	93.150	-0.550	-0.200	1.400
2020/01/31 04:07:04.5	93.150	-0.530	-0.270	1.410
2020/01/31 04:07:04.6	93.150	-0.510	-0.330	1.420
2020/01/31 04:07:04.7	93.150	-0.490	-0.400	1.430
2020/01/31 04:07:04.8	93.150	-0.460	-0.460	1.430
2020/01/31 04:07:04.9	93.150	-0.430	-0.520	1.440
2020/01/31 04:07:05.0	93.150	-0.390	-0.570	1.440
2020/01/31 04:07:05.1	93.150	-0.360	-0.620	1.430
2020/01/31 04:07:05.2	93.160	-0.320	-0.660	1.430
2020/01/31 04:07:05.3	93.160	-0.290	-0.710	1.420
2020/01/31 04:07:05.4	93.160	-0.250	-0.750	1.420
2020/01/31 04:07:05.5	93.170	-0.210	-0.780	1.410
2020/01/31 04:07:05.6	93.180	-0.170	-0.810	1.400
2020/01/31 04:07:05.7	93.180	-0.130	-0.840	1.390
2020/01/31 04:07:05.8	93.190	-0.080	-0.860	1.380
2020/01/31 04:07:05.9	93.200	-0.040	-0.880	1.360
2020/01/31 04:07:06.0	93.200	-0.000	-0.890	1.350
2020/01/31 04:07:06.1	93.220	0.030	-0.900	1.340
2020/01/31 04:07:06.2	93.220	0.070	-0.910	1.320
2020/01/31 04:07:06.3	93.230	0.110	-0.910	1.300
2020/01/31 04:07:06.4	93.240	0.140	-0.910	1.280
2020/01/31 04:07:06.5	93.240	0.180	-0.900	1.260
2020/01/31 04:07:06.6	93.250	0.210	-0.890	1.240
2020/01/31 04:07:06.7	93.250	0.230	-0.870	1.220
2020/01/31 04:07:06.8	93.260	0.260	-0.850	1.190
2020/01/31 04:07:06.9	93.270	0.280	-0.820	1.170
2020/01/31 04:07:07.0	93.270	0.300	-0.790	1.140
2020/01/31 04:07:07.1	93.280	0.320	-0.760	1.120
2020/01/31 04:07:07.2	93.290	0.330	-0.720	1.090
2020/01/31 04:07:07.3	93.290	0.350	-0.680	1.060
2020/01/31 04:07:07.4	93.300	0.350	-0.630	1.030
2020/01/31 04:07:07.5	93.300	0.360	-0.580	1.010
2020/01/31 04:07:07.6	93.300	0.360	-0.530	0.980
2020/01/31 04:07:07.7	93.310	0.360	-0.480	0.950
2020/01/31 04:07:07.8	93.310	0.350	-0.420	0.920
2020/01/31 04:07:07.9	93.310	0.350	-0.360	0.890
2020/01/31 04:07:08.0	93.310	0.340	-0.300	0.860
2020/01/31 04:07:08.1	93.310	0.320	-0.230	0.830
2020/01/31 04:07:08.2	93.310	0.310	-0.160	0.800
2020/01/31 04:07:08.3	93.300	0.290	-0.090	0.770
2020/01/31 04:07:08.4	93.300	0.270	-0.020	0.740
2020/01/31 04:07:08.5	93.300	0.250	0.040	0.710
2020/01/31 04:07:08.6	93.290	0.220	0.110	0.680
2020/01/31 04:07:08.7	93.280	0.200	0.180	0.650
2020/01/31 04:07:08.8	93.280	0.170	0.250	0.620
2020/01/31 04:07:08.9	93.270	0.140	0.310	0.590
2020/01/31 04:07:09.0	93.260	0.110	0.370	0.560
2020/01/31 04:07:09.1	93.240	0.080	0.430	0.540
2020/01/31 04:07:09.2	93.230	0.050	0.480	0.510
2020/01/31 04:07:09.3	93.210	0.020	0.530	0.490
2020/01/31 04:07:09.4	93.200	-0.000	0.570	0.460
2020/01/31 04:07:09.5	93.180	-0.030	0.610	0.440
2020/01/31 04:07:09.6	93.160	-0.060	0.640	0.410
2020/01/31 04:07:09.7	93.140	-0.080	0.660	0.380
2020/01/31 04:07:09.8	93.120	-0.100	0.680	0.360
2020/01/31 04:07:09.9	93.100	-0.120	0.680	0.330
2020/01/31 04:07:10.0	93.080	-0.140	0.680	0.310
2020/01/31 04:07:10.1	93.050	-0.150	0.670	0.280
2020/01/31 04:07:10.2	93.030	-0.160	0.640	0.260
2020/01/31 04:07:10.3	93.010	-0.170	0.610	0.230
2020/01/31 04:07:10.4	92.990	-0.170	0.560	0.210
2020/01/31 04:07:10.5	92.970	-0.170	0.510	0.180
2020/01/31 04:07:10.6	92.950	-0.160	0.450	0.160
2020/01/31 04:07:10.7	92.930	-0.150	0.370	0.130
2020/01/31 04:07:10.8	92.910	-0.140	0.290	0.110
2020/01/31 04:07:10.9	92.890	-0.110	0.200	0.080
2020/01/31 04:07:11.0	92.880	-0.090	0.100	0.060
2020/01/31 04:07:11.1	92.860	-0.060	-0.010	0.030
2020/01/31 04:07:11.2	92.850	-0.030	-0.120	0.000
2020/01/31 04:07:11.3	92.840	0.000	-0.230	-0.020
2020/01/31 04:07:11.4	92.840	0.040	-0.350	-0.050
2020/01/31 04:07:11.5	92.850	0.080	-0.470	-0.070
2020/01/31 04:07:11.6	92.850	0.120	-0.590	-0.090
2020/01/31 04:07:11.7	92.860	0.160	-0.710	-0.110
2020/01/31 04:07:11.8	92.880	0.200	-0.830	-0.130
2020/01/31 04:07:11.9	92.890	0.250	-0.940	-0.140
2020/01/31 04:07:12.0	92.910	0.290	-1.040	-0.150
2020/01/31 04:07:12.1	92.930	0.320	-1.140	-0.160
2020/01/31 04:07:12.2	92.960	0.360	-1.230	-0.160
2020/01/31 04:07:12.3	92.980	0.390	-1.300	-0.150
2020/01/31 04:07:12.4	93.000	0.420	-1.370	-0.140
2020/01/31 04:07:12.5	93.020	0.440	-1.420	-0.130
2020/01/31 04:07:12.6	93.040	0.460	-1.450	-0.110
2020/01/31 04:07:12.7	93.060	0.470	-1.470	-0.080
2020/01/31 04:07:12.8	93.080	0.470	-1.470	-0.060
2020/01/31 04:07:12.9	93.100	0.470	-1.460	-0.020
2020/01/31 04:07:13.0	93.120	0.470	-1.430	0.010
2020/01/31 04:07:13.1	93.150	0.450	-1.390	0.050
2020/01/31 04:07:13.2	93.170	0.430	-1.340	0.090
2020/01/31 04:07:13.3	93.180	0.410	-1.260	0.130
2020/01/31 04:07:13.4	93.200	0.370	-1.180	0.170
2020/01/31 04:07:13.5	93.210	0.330	-1.080	0.210
2020/01/31 04:07:13.6	93.220	0.290	-0.970	0.250
2020/01/31 04:07:13.7	93.230	0.240	-0.850	0.290
2020/01/31 04:07:13.8	93.240	0.180	-0.720	0.340
2020/01/31 04:07:13.9	93.240	0.120	-0.580	0.380
2020/01/31 04:07:14.0	93.240	0.060	-0.440	0.420
2020/01/31 04:07:14.1	93.250	-0.010	-0.280	0.470
2020/01/31 04:07:14.2	93.250	-0.090	-0.130	0.520
2020/01/31 04:07:14.3	93.240	-0.160	0.020	0.560
2020/01/31 04:07:14.4	93.240	-0.240	0.170	0.600
2020/01/31 04:07:14.5	93.240	-0.310	0.310	0.650
2020/01/31 04:07:14.6	93.230	-0.390	0.450	0.690
2020/01/31 04:07:14.7	93.230	-0.470	0.590	0.740
2020/01/31 04:07:14.8	93.220	-0.540	0.710	0.780
2020/01/31 04:07:14.9	93.220	-0.610	0.820	0.830
2020/01/31 04:07:15.0	93.210	-0.680	0.930	0.870
2020/01/31 04:07:15.1	93.210	-0.740	1.020	0.920
2020/01/31 04:07:15.2	93.210	-0.800	1.100	0.970
2020/01/31 04:07:15.3	93.200	-0.860	1.160	1.010
2020/01/31 04:07:15.4	93.200	-0.900	1.210	1.060
2020/01/31 04:07:15.5	93.190	-0.950	1.250	1.100
2020/01/31 04:07:15.6	93.190	-0.980	1.270	1.150
2020/01/31 04:07:15.7	93.180	-1.010	1.270	1.200
2020/01/31 04:07:15.8	93.180	-1.040	1.260	1.240
2020/01/31 04:07:15.9	93.170	-1.050	1.240	1.280
2020/01/31 04:07:16.0	93.160	-1.060	1.210	1.320
2020/01/31 04:07:16.1	93.160	-1.060	1.160	1.360
2020/01/31 04:07:16.2	93.160	-1.060	1.090	1.390
2020/01/31 04:07:16.3	93.150	-1.040	1.020	1.420
2020/01/31 04:07:16.4	93.140	-1.020	0.930	1.440
2020/01/31 04:07:16.5	93.130	-0.990	0.840	1.460
2020/01/31 04:07:16.6	93.120	-0.960	0.730	1.480
2020/01/31 04:07:16.7	93.110	-0.920	0.610	1.480
2020/01/31 04:07:16.8	93.100	-0.870	0.490	1.490
2020/01/31 04:07:16.9	93.090	-0.810	0.360	1.490
2020/01/31 04:07:17.0	93.070	-0.750	0.220	1.480
2020/01/31 04:07:17.1	93.060	-0.680	0.070	1.460
2020/01/31 04:07:17.2	93.040	-0.610	-0.070	1.440
2020/01/31 04:07:17.3	93.030	-0.540	-0.220	1.410
2020/01/31 04:07:17.4	93.010	-0.450	-0.370	1.390
2020/01/31 04:07:17.5	93.000	-0.370	-0.520	1.350
2020/01/31 04:07:17.6	92.980	-0.280	-0.660	1.320
2020/01/31 04:07:17.7	92.970	-0.190	-0.810	1.280
2020/01/31 04:07:17.8	92.950	-0.100	-0.940	1.240
2020/01/31 04:07:17.9	92.940	-0.000	-1.080	1.200
2020/01/31 04:07:18.0	92.920	0.090	-1.200	1.160
2020/01/31 04:07:18.1	92.890	0.190	-1.320	1.120
2020/01/31 04:07:18.2	92.880	0.280	-1.420	1.080
2020/01/31 04:07:18.3	92.870	0.370	-1.520	1.040
2020/01/31 04:07:18.4	92.850	0.460	-1.600	1.000
2020/01/31 04:07:18.5	92.840	0.550	-1.670	0.960
2020/01/31 04:07:18.6	92.830	0.630	-1.730	0.920
2020/01/31 04:07:18.7	92.820	0.710	-1.770	0.890
2020/01/31 04:07:18.8	92.810	0.790	-1.790	0.860
2020/01/31 04:07:18.9	92.800	0.850	-1.810	0.830
2020/01/31 04:07:19.0	92.790	0.920	-1.800	0.800
2020/01/31 04:07:19.1	92.790	0.970	-1.780	0.770
2020/01/31 04:07:19.2	92.780	1.020	-1.750	0.750
2020/01/31 04:07:19.3	92.770	1.070	-1.700	0.730
2020/01/31 04:07:19.4	92.770	1.100	-1.640	0.700
2020/01/31 04:07:19.5	92.760	1.130	-1.570	0.680
2020/01/31 04:07:19.6	92.760	1.150	-1.480	0.670
2020/01/31 04:07:19.7	92.760	1.160	-1.390	0.650
2020/01/31 04:07:19.8	92.760	1.160	-1.280	0.640
2020/01/31 04:07:19.9	92.750	1.160	-1.170	0.620
2020/01/31 04:07:20.0	92.750	1.150	-1.050	0.610
2020/01/31 04:07:20.1	92.760	1.130	-0.920	0.600
2020/01/31 04:07:20.2	92.760	1.110	-0.790	0.590
2020/01/31 04:07:20.3	92.750	1.070	-0.650	0.580
2020/01/31 04:07:20.4	92.750	1.040	-0.520	0.570
2020/01/31 04:07:20.5	92.740	0.990	-0.380	0.560
2020/01/31 04:07:20.6	92.740	0.940	-0.240	0.550
2020/01/31 04:07:20.7	92.730	0.890	-0.110	0.540
2020/01/31 04:07:20.8	92.730	0.830	0.020	0.530
2020/01/31 04:07:20.9	92.720	0.770	0.150	0.530
2020/01/31 04:07:21.0	92.710	0.700	0.270	0.520
2020/01/31 04:07:21.1	92.690	0.640	0.390	0.510
2020/01/31 04:07:21.2	92.680	0.570	0.500	0.500
2020/01/31 04:07:21.3	92.670	0.500	0.590	0.500
2020/01/31 04:07:21.4	92.660	0.430	0.680	0.490
2020/01/31 04:07:21.5	92.650	0.360	0.760	0.490
2020/01/31 04:07:21.6	92.640	0.290	0.830	0.480
2020/01/31 04:07:21.7	92.630	0.220	0.890	0.470
2020/01/31 04:07:21.8	92.620	0.160	0.930	0.460
2020/01/31 04:07:21.9	92.620	0.100	0.960	0.460
2020/01/31 04:07:22.0	92.620	0.040	0.980	0.450
2020/01/31 04:07:22.1	92.630	-0.010	0.990	0.440
2020/01/31 04:07:22.2	92.630	-0.060	0.980	0.440
2020/01/31 04:07:22.3	92.640	-0.110	0.970	0.430
2020/01/31 04:07:22.4	92.640	-0.150	0.940	0.420
2020/01/31 04:07:22.5	92.650	-0.180	0.900	0.420
2020/01/31 04:07:22.6	92.660	-0.210	0.850	0.410
2020/01/31 04:07:22.7	92.670	-0.230	0.790	0.410
2020/01/31 04:07:22.8	92.680	-0.250	0.730	0.410
2020/01/31 04:07:22.9	92.690	-0.270	0.660	0.420
2020/01/31 04:07:23.0	92.700	-0.280	0.580	0.430
2020/01/31 04:07:23.1	92.710	-0.280	0.500	0.430
2020/01/31 04:07:23.2	92.720	-0.280	0.410	0.440
2020/01/31 04:07:23.3	92.740	-0.280	0.320	0.460
2020/01/31 04:07:23.4	92.750	-0.270	0.230	0.470
2020/01/31 04:07:23.5	92.760	-0.270	0.140	0.490
2020/01/31 04:07:23.6	92.770	-0.250	0.050	0.510
2020/01/31 04:07:23.7	92.780	-0.240	-0.040	0.530
2020/01/31 04:07:23.8	92.790	-0.230	-0.130	0.550
2020/01/31 04:07:23.9	92.800	-0.210	-0.210	0.570
2020/01/31 04:07:24.0	92.810	-0.190	-0.290	0.590
2020/01/31 04:07:24.1	92.800	-0.180	-0.370	0.610
2020/01/31 04:07:24.2	92.810	-0.160	-0.440	0.630
2020/01/31 04:07:24.3	92.820	-0.140	-0.500	0.660
2020/01/31 04:07:24.4	92.820	-0.130	-0.550	0.680
2020/01/31 04:07:24.5	92.830	-0.120	-0.600	0.710
2020/01/31 04:07:24.6	92.830	-0.100	-0.640	0.730
2020/01/31 04:07:24.7	92.830	-0.100	-0.670	0.760
2020/01/31 04:07:24.8	92.830	-0.090	-0.690	0.790
2020/01/31 04:07:24.9	92.830	-0.090	-0.710	0.820
2020/01/31 04:07:25.0	92.830	-0.090	-0.710	0.850
2020/01/31 04:07:25.1	92.820	-0.090	-0.710	0.880
2020/01/31 04:07:25.2	92.820	-0.100	-0.700	0.920
2020/01/31 04:07:25.3	92.820	-0.110	-0.680	0.950
2020/01/31 04:07:25.4	92.810	-0.120	-0.650	0.980
2020/01/31 04:07:25.5	92.810	-0.140	-0.620	1.020
2020/01/31 04:07:25.6	92.810	-0.160	-0.580	1.050
2020/01/31 04:07:25.7	92.800	-0.180	-0.540	1.090
2020/01/31 04:07:25.8	92.800	-0.210	-0.490	1.120
2020/01/31 04:07:25.9	92.800	-0.240	-0.430	1.150
2020/01/31 04:07:26.0	92.790	-0.270	-0.380	1.190
2020/01/31 04:07:26.1	92.800	-0.300	-0.320	1.230
2020/01/31 04:07:26.2	92.800	-0.330	-0.260	1.260
2020/01/31 04:07:26.3	92.800	-0.360	-0.190	1.290
2020/01/31 04:07:26.4	92.800	-0.400	-0.130	1.320
2020/01/31 04:07:26.5	92.800	-0.430	-0.080	1.350
2020/01/31 04:07:26.6	92.810	-0.460	-0.020	1.380
2020/01/31 04:07:26.7	92.810	-0.490	0.030	1.410
2020/01/31 04:07:26.8	92.820	-0.520	0.080	1.430
2020/01/31 04:07:26.9	92.820	-0.550	0.120	1.450
2020/01/31 04:07:27.0	92.830	-0.570	0.160	1.470
2020/01/31 04:07:27.1	92.830	-0.590	0.180	1.480
2020/01/31 04:07:27.2	92.840	-0.600	0.200	1.490
2020/01/31 04:07:27.3	92.850	-0.610	0.210	1.490
2020/01/31 04:07:27.4	92.860	-0.610	0.210	1.490
2020/01/31 04:07:27.5	92.870	-0.610	0.210	1.490
2020/01/31 04:07:27.6	92.880	-0.610	0.190	1.480
2020/01/31 04:07:27.7	92.890	-0.600	0.160	1.470
2020/01/31 04:07:27.8	92.890	-0.580	0.130	1.460
2020/01/31 04:07:27.9	92.900	-0.560	0.090	1.440
2020/01/31 04:07:28.0	92.900	-0.530	0.040	1.420
2020/01/31 04:07:28.1	92.900	-0.500	-0.020	1.390
2020/01/31 04:07:28.2	92.900	-0.460	-0.080	1.360
2020/01/31 04:07:28.3	92.890	-0.420	-0.150	1.320
2020/01/31 04:07:28.4	92.890	-0.380	-0.220	1.290
2020/01/31 04:07:28.5	92.880	-0.330	-0.300	1.250
2020/01/31 04:07:28.6	92.880	-0.280	-0.370	1.220
2020/01/31 04:07:28.7	92.870	-0.220	-0.450	1.180
2020/01/31 04:07:28.8	92.860	-0.160	-0.520	1.140
2020/01/31 04:07:28.9	92.840	-0.110	-0.600	1.100
2020/01/31 04:07:29.0	92.830	-0.050	-0.660	1.060
2020/01/31 04:07:29.1	92.820	0.010	-0.730	1.030
2020/01/31 04:07:29.2	92.810	0.070	-0.790	0.990
2020/01/31 04:07:29.3	92.790	0.130	-0.840	0.960
2020/01/31 04:07:29.4	92.780	0.190	-0.880	0.920
2020/01/31 04:07:29.5	92.770	0.250	-0.920	0.890
2020/01/31 04:07:29.6	92.760	0.300	-0.940	0.860
2020/01/31 04:07:29.7	92.750	0.350	-0.960	0.830
2020/01/31 04:07:29.8	92.740	0.400	-0.970	0.800
2020/01/31 04:07:29.9	92.730	0.440	-0.970	0.780
2020/01/31 04:07:30.0	92.720	0.480	-0.950	0.750
2020/01/31 04:07:30.1	92.720	0.510	-0.930	0.740
2020/01/31 04:07:30.2	92.720	0.540	-0.900	0.720
2020/01/31 04:07:30.3	92.710	0.560	-0.870	0.700
2020/01/31 04:07:30.4	92.710	0.580	-0.820	0.680
2020/01/31 04:07:30.5	92.710	0.590	-0.770	0.670
2020/01/31 04:07:30.6	92.710	0.600	-0.710	0.650
2020/01/31 04:07:30.7	92.710	0.600	-0.650	0.640
2020/01/31 04:07:30.8	92.710	0.590	-0.580	0.620
2020/01/31 04:07:30.9	92.720	0.580	-0.510	0.610
2020/01/31 04:07:31.0	92.720	0.570	-0.430	0.590
2020/01/31 04:07:31.1	92.730	0.550	-0.350	0.570
2020/01/31 04:07:31.2	92.730	0.520	-0.280	0.550
2020/01/31 04:07:31.3	92.740	0.490	-0.200	0.530
2020/01/31 04:07:31.4	92.740	0.460	-0.120	0.510
2020/01/31 04:07:31.5	92.750	0.420	-0.050	0.490
2020/01/31 04:07:31.6	92.750	0.380	0.020	0.460
2020/01/31 04:07:31.7	92.760	0.340	0.090	0.440
2020/01/31 04:07:31.8	92.760	0.290	0.160	0.410
2020/01/31 04:07:31.9	92.770	0.240	0.210	0.380
2020/01/31 04:07:32.0	92.780	0.190	0.270	0.350
2020/01/31 04:07:32.1	92.780	0.150	0.320	0.320
2020/01/31 04:07:32.2	92.790	0.100	0.360	0.290
2020/01/31 04:07:32.3	92.800	0.050	0.400	0.270
2020/01/31 04:07:32.4	92.800	-0.000	0.440	0.240
2020/01/31 04:07:32.5	92.810	-0.050	0.460	0.220
2020/01/31 04:07:32.6	92.810	-0.090	0.480	0.190
2020/01/31 04:07:32.7	92.820	-0.140	0.500	0.170
2020/01/31 04:07:32.8	92.820	-0.180	0.510	0.150
2020/01/31 04:07:32.9	92.830	-0.220	0.510	0.140
2020/01/31 04:07:33.0	92.830	-0.260	0.510	0.130
2020/01/31 04:07:33.1	92.840	-0.290	0.500	0.120
2020/01/31 04:07:33.2	92.840	-0.320	0.490	0.110
2020/01/31 04:07:33.3	92.850	-0.350	0.470	0.110
2020/01/31 04:07:33.4	92.850	-0.370	0.450	0.110
2020/01/31 04:07:33.5	92.850	-0.390	0.420	0.120
2020/01/31 04:07:33.6	92.860	-0.410	0.390	0.130
2020/01/31 04:07:33.7	92.860	-0.420	0.350	0.140
2020/01/31 04:07:33.8	92.860	-0.430	0.310	0.150
2020/01/31 04:07:33.9	92.870	-0.430	0.270	0.170
2020/01/31 04:07:34.0	92.870	-0.430	0.220	0.180
2020/01/31 04:07:34.1	92.870	-0.430	0.170	0.210
2020/01/31 04:07:34.2	92.880	-0.420	0.120	0.230
2020/01/31 04:07:34.3	92.880	-0.420	0.070	0.250
2020/01/31 04:07:34.4	92.890	-0.400	0.020	0.270
2020/01/31 04:07:34.5	92.890	-0.390	-0.040	0.290
2020/01/31 04:07:34.6	92.900	-0.370	-0.090	0.320
2020/01/31 04:07:34.7	92.900	-0.350	-0.150	0.340
2020/01/31 04:07:34.8	92.900	-0.320	-0.200	0.370
2020/01/31 04:07:34.9	92.910	-0.300	-0.260	0.390
2020/01/31 04:07:35.0	92.910	-0.270	-0.310	0.420
2020/01/31 04:07:35.1	92.910	-0.240	-0.360	0.450
2020/01/31 04:07:35.2	92.910	-0.210	-0.410	0.470
2020/01/31 04:07:35.3	92.910	-0.180	-0.460	0.510
2020/01/31 04:07:35.4	92.910	-0.150	-0.500	0.540
2020/01/31 04:07:35.5	92.910	-0.110	-0.540	0.570
2020/01/31 04:07:35.6	92.900	-0.080	-0.580	0.600
2020/01/31 04:07:35.7	92.890	-0.040	-0.620	0.640
2020/01/31 04:07:35.8	92.880	-0.010	-0.650	0.670
2020/01/31 04:07:35.9	92.870	0.020	-0.680	0.700
2020/01/31 04:07:36.0	92.860	0.060	-0.710	0.730
2020/01/31 04:07:36.1	92.840	0.090	-0.730	0.770
2020/01/31 04:07:36.2	92.830	0.120	-0.750	0.800
2020/01/31 04:07:36.3	92.810	0.160	-0.770	0.830
2020/01/31 04:07:36.4	92.800	0.190	-0.790	0.860
2020/01/31 04:07:36.5	92.780	0.220	-0.800	0.880
2020/01/31 04:07:36.6	92.760	0.250	-0.810	0.910
2020/01/31 04:07:36.7	92.750	0.280	-0.820	0.930
2020/01/31 04:07:36.8	92.730	0.310	-0.830	0.950
2020/01/31 04:07:36.9	92.720	0.330	-0.840	0.970
2020/01/31 04:07:37.0	92.710	0.360	-0.840	0.980
2020/01/31 04:07:37.1	92.700	0.390	-0.850	1.000
2020/01/31 04:07:37.2	92.690	0.420	-0.850	1.010
2020/01/31 04:07:37.3	92.680	0.440	-0.850	1.020
2020/01/31 04:07:37.4	92.680	0.470	-0.860	1.020
2020/01/31 04:07:37.5	92.670	0.490	-0.860	1.020
2020/01/31 04:07:37.6	92.670	0.510	-0.860	1.020
2020/01/31 04:07:37.7	92.670	0.540	-0.870	1.010
2020/01/31 04:07:37.8	92.660	0.560	-0.870	1.010
2020/01/31 04:07:37.9	92.660	0.580	-0.870	1.000
2020/01/31 04:07:38.0	92.670	0.600	-0.860	0.990
2020/01/31 04:07:38.1	92.680	0.620	-0.860	0.970
2020/01/31 04:07:38.2	92.680	0.640	-0.850	0.950
2020/01/31 04:07:38.3	92.680	0.660	-0.840	0.940
2020/01/31 04:07:38.4	92.680	0.670	-0.830	0.920
2020/01/31 04:07:38.5	92.690	0.690	-0.810	0.890
2020/01/31 04:07:38.6	92.690	0.700	-0.790	0.870
2020/01/31 04:07:38.7	92.690	0.710	-0.770	0.850
2020/01/31 04:07:38.8	92.700	0.710	-0.740	0.820
2020/01/31 04:07:38.9	92.700	0.710	-0.700	0.790
2020/01/31 04:07:39.0	92.700	0.710	-0.660	0.760
2020/01/31 04:07:39.1	92.710	0.710	-0.610	0.740
2020/01/31 04:07:39.2	92.720	0.700	-0.560	0.700
2020/01/31 04:07:39.3	92.720	0.680	-0.500	0.670
2020/01/31 04:07:39.4	92.720	0.670	-0.430	0.640
2020/01/31 04:07:39.5	92.730	0.640	-0.360	0.610
2020/01/31 04:07:39.6	92.730	0.620	-0.280	0.580
2020/01/31 04:07:39.7	92.730	0.590	-0.200	0.550
2020/01/31 04:07:39.8	92.730	0.550	-0.110	0.520
2020/01/31 04:07:39.9	92.740	0.520	-0.020	0.500
2020/01/31 04:07:40.0	92.740	0.470	0.070	0.470
2020/01/31 04:07:40.1	92.730	0.430	0.170	0.450
2020/01/31 04:07:40.2	92.730	0.380	0.260	0.430
2020/01/31 04:07:40.3	92.730	0.320	0.360	0.410
2020/01/31 04:07:40.4	92.730	0.270	0.460	0.400
2020/01/31 04:07:40.5	92.730	0.210	0.550	0.390
2020/01/31 04:07:40.6	92.730	0.150	0.640	0.380
2020/01/31 04:07:40.7	92.730	0.090	0.730	0.380
2020/01/31 04:07:40.8	92.730	0.020	0.810	0.370
2020/01/31 04:07:40.9	92.730	-0.040	0.890	0.370
2020/01/31 04:07:41.0	92.730	-0.110	0.960	0.370
2020/01/31 04:07:41.1	92.730	-0.170	1.030	0.380
2020/01/31 04:07:41.2	92.730	-0.230	1.080	0.380
2020/01/31 04:07:41.3	92.730	-0.290	1.120	0.390
2020/01/31 04:07:41.4	92.730	-0.350	1.150	0.390
2020/01/31 04:07:41.5	92.740	-0.410	1.170	0.400
2020/01/31 04:07:41.6	92.740	-0.470	1.180	0.400
2020/01/31 04:07:41.7	92.750	-0.520	1.170	0.410
2020/01/31 04:07:41.8	92.760	-0.570	1.150	0.410
2020/01/31 04:07:41.9	92.770	-0.610	1.120	0.410
2020/01/31 04:07:42.0	92.770	-0.650	1.080	0.420
2020/01/31 04:07:42.1	92.790	-0.680	1.020	0.420
2020/01/31 04:07:42.2	92.800	-0.710	0.960	0.430
2020/01/31 04:07:42.3	92.810	-0.740	0.890	0.440
2020/01/31 04:07:42.4	92.820	-0.760	0.800	0.450
2020/01/31 04:07:42.5	92.830	-0.770	0.710	0.460
2020/01/31 04:07:42.6	92.840	-0.790	0.610	0.470
2020/01/31 04:07:42.7	92.850	-0.790	0.500	0.490
2020/01/31 04:07:42.8	92.850	-0.790	0.380	0.500
2020/01/31 04:07:42.9	92.860	-0.790	0.270	0.520
2020/01/31 04:07:43.0	92.860	-0.790	0.150	0.540
2020/01/31 04:07:43.1	92.850	-0.780	0.020	0.560
2020/01/31 04:07:43.2	92.860	-0.760	-0.100	0.590
2020/01/31 04:07:43.3	92.860	-0.750	-0.230	0.610
2020/01/31 04:07:43.4	92.870	-0.730	-0.350	0.630
2020/01/31 04:07:43.5	92.870	-0.700	-0.470	0.650
2020/01/31 04:07:43.6	92.880	-0.680	-0.580	0.670
2020/01/31 04:07:43.7	92.880	-0.660	-0.690	0.700
2020/01/31 04:07:43.8	92.880	-0.630	-0.800	0.720
2020/01/31 04:07:43.9	92.890	-0.600	-0.890	0.750
2020/01/31 04:07:44.0	92.890	-0.580	-0.980	0.780
2020/01/31 04:07:44.1	92.880	-0.550	-1.060	0.800
2020/01/31 04:07:44.2	92.880	-0.520	-1.140	0.840
2020/01/31 04:07:44.3	92.880	-0.490	-1.200	0.870
2020/01/31 04:07:44.4	92.880	-0.460	-1.250	0.910
2020/01/31 04:07:44.5	92.880	-0.430	-1.290	0.950
2020/01/31 04:07:44.6	92.880	-0.410	-1.330	0.990
2020/01/31 04:07:44.7	92.880	-0.380	-1.350	1.040
2020/01/31 04:07:44.8	92.870	-0.360	-1.360	1.080
2020/01/31 04:07:44.9	92.860	-0.340	-1.350	1.130
2020/01/31 04:07:45.0	92.850	-0.310	-1.340	1.180
2020/01/31 04:07:45.1	92.830	-0.290	-1.320	1.230
2020/01/31 04:07:45.2	92.810	-0.280	-1.280	1.280
2020/01/31 04:07:45.3	92.800	-0.260	-1.240	1.330
2020/01/31 04:07:45.4	92.780	-0.250	-1.190	1.380
2020/01/31 04:07:45.5	92.760	-0.230	-1.130	1.420
2020/01/31 04:07:45.6	92.740	-0.220	-1.060	1.470
2020/01/31 04:07:45.7	92.710	-0.210	-0.990	1.510
2020/01/31 04:07:45.8	92.690	-0.200	-0.910	1.540
2020/01/31 04:07:45.9	92.660	-0.190	-0.830	1.580
2020/01/31 04:07:46.0	92.630	-0.190	-0.740	1.610
2020/01/31 04:07:46.1	92.610	-0.180	-0.660	1.630
2020/01/31 04:07:46.2	92.580	-0.180	-0.570	1.650
2020/01/31 04:07:46.3	92.560	-0.170	-0.480	1.660
2020/01/31 04:07:46.4	92.530	-0.170	-0.400	1.660
2020/01/31 04:07:46.5	92.510	-0.160	-0.320	1.660
2020/01/31 04:07:46.6	92.480	-0.160	-0.240	1.650
2020/01/31 04:07:46.7	92.460	-0.150	-0.160	1.640
2020/01/31 04:07:46.8	92.440	-0.150	-0.100	1.620
2020/01/31 04:07:46.9	92.420	-0.140	-0.030	1.590
2020/01/31 04:07:47.0	92.400	-0.130	0.020	1.560
2020/01/31 04:07:47.1	92.400	-0.120	0.070	1.530
2020/01/31 04:07:47.2	92.380	-0.110	0.110	1.490
2020/01/31 04:07:47.3	92.370	-0.090	0.140	1.440
2020/01/31 04:07:47.4	92.350	-0.080	0.170	1.400
2020/01/31 04:07:47.5	92.340	-0.060	0.180	1.350
2020/01/31 04:07:47.6	92.320	-0.040	0.190	1.300
2020/01/31 04:07:47.7	92.310	-0.020	0.190	1.250
2020/01/31 04:07:47.8	92.290	0.010	0.190	1.190
2020/01/31 04:07:47.9	92.280	0.030	0.170	1.140
2020/01/31 04:07:48.0	92.260	0.060	0.150	1.080
2020/01/31 04:07:48.1	92.250	0.090	0.130	1.020
2020/01/31 04:07:48.2	92.230	0.120	0.100	0.960
2020/01/31 04:07:48.3	92.220	0.150	0.060	0.900
2020/01/31 04:07:48.4	92.200	0.180	0.030	0.840
2020/01/31 04:07:48.5	92.180	0.220	-0.010	0.780
2020/01/31 04:07:48.6	92.170	0.260	-0.060	0.720
2020/01/31 04:07:48.7	92.150	0.290	-0.100	0.660
2020/01/31 04:07:48.8	92.130	0.330	-0.150	0.600
2020/01/31 04:07:48.9	92.120	0.370	-0.190	0.540
2020/01/31 04:07:49.0	92.110	0.400	-0.230	0.480
2020/01/31 04:07:49.1	92.120	0.440	-0.280	0.420
2020/01/31 04:07:49.2	92.110	0.480	-0.310	0.360
2020/01/31 04:07:49.3	92.100	0.510	-0.350	0.300
2020/01/31 04:07:49.4	92.100	0.540	-0.380	0.240
2020/01/31 04:07:49.5	92.090	0.580	-0.410	0.180
2020/01/31 04:07:49.6	92.090	0.610	-0.430	0.130
2020/01/31 04:07:49.7	92.090	0.640	-0.450	0.070
2020/01/31 04:07:49.8	92.100	0.670	-0.460	0.020
2020/01/31 04:07:49.9	92.100	0.690	-0.470	-0.040
2020/01/31 04:07:50.0	92.110	0.710	-0.470	-0.090
2020/01/31 04:07:50.1	92.130	0.730	-0.470	-0.140
2020/01/31 04:07:50.2	92.140	0.750	-0.470	-0.180
2020/01/31 04:07:50.3	92.160	0.760	-0.460	-0.220
2020/01/31 04:07:50.4	92.180	0.770	-0.440	-0.260
2020/01/31 04:07:50.5	92.200	0.780	-0.430	-0.300
2020/01/31 04:07:50.6	92.220	0.780	-0.410	-0.330
2020/01/31 04:07:50.7	92.250	0.780	-0.380	-0.350
2020/01/31 04:07:50.8	92.270	0.780	-0.360	-0.370
2020/01/31 04:07:50.9	92.300	0.770	-0.330	-0.380
2020/01/31 04:07:51.0	92.330	0.760	-0.300	-0.390
2020/01/31 04:07:51.1	92.350	0.750	-0.270	-0.390
2020/01/31 04:07:51.2	92.380	0.730	-0.240	-0.380
2020/01/31 04:07:51.3	92.410	0.710	-0.200	-0.370
2020/01/31 04:07:51.4	92.440	0.690	-0.170	-0.350
2020/01/31 04:07:51.5	92.470	0.660	-0.140	-0.320
2020/01/31 04:07:51.6	92.500	0.630	-0.110	-0.290
2020/01/31 04:07:51.7	92.520	0.590	-0.080	-0.260
2020/01/31 04:07:51.8	92.550	0.560	-0.050	-0.220
2020/01/31 04:07:51.9	92.570	0.520	-0.020	-0.170
2020/01/31 04:07:52.0	92.590	0.480	0.010	-0.120
2020/01/31 04:07:52.1	92.610	0.440	0.030	-0.070
2020/01/31 04:07:52.2	92.620	0.390	0.050	-0.020
2020/01/31 04:07:52.3	92.640	0.350	0.070	0.040
2020/01/31 04:07:52.4	92.650	0.300	0.080	0.100
2020/01/31 04:07:52.5	92.670	0.250	0.100	0.160
2020/01/31 04:07:52.6	92.670	0.200	0.100	0.220
2020/01/31 04:07:52.7	92.680	0.150	0.110	0.280
2020/01/31 04:07:52.8	92.690	0.110	0.110	0.350
2020/01/31 04:07:52.9	92.690	0.060	0.110	0.410
2020/01/31 04:07:53.0	92.690	0.010	0.100	0.480
2020/01/31 04:07:53.1	92.670	-0.030	0.090	0.540
2020/01/31 04:07:53.2	92.670	-0.070	0.080	0.610
2020/01/31 04:07:53.3	92.660	-0.120	0.060	0.680
2020/01/31 04:07:53.4	92.650	-0.160	0.040	0.740
2020/01/31 04:07:53.5	92.640	-0.190	0.020	0.810
2020/01/31 04:07:53.6	92.630	-0.230	-0.010	0.870
2020/01/31 04:07:53.7	92.620	-0.260	-0.040	0.930
2020/01/31 04:07:53.8	92.600	-0.290	-0.070	0.990
2020/01/31 04:07:53.9	92.590	-0.310	-0.100	1.050
2020/01/31 04:07:54.0	92.580	-0.340	-0.140	1.110
2020/01/31 04:07:54.1	92.570	-0.360	-0.170	1.180
2020/01/31 04:07:54.2	92.550	-0.370	-0.210	1.240
2020/01/31 04:07:54.3	92.540	-0.390	-0.250	1.290
2020/01/31 04:07:54.4	92.530	-0.400	-0.280	1.340
2020/01/31 04:07:54.5	92.520	-0.400	-0.320	1.390
2020/01/31 04:07:54.6	92.510	-0.410	-0.350	1.440
2020/01/31 04:07:54.7	92.500	-0.410	-0.390	1.490
2020/01/31 04:07:54.8	92.500	-0.410	-0.420	1.540
2020/01/31 04:07:54.9	92.490	-0.400	-0.450	1.580
2020/01/31 04:07:55.0	92.490	-0.400	-0.470	1.630
2020/01/31 04:07:55.1	92.490	-0.390	-0.500	1.660
2020/01/31 04:07:55.2	92.480	-0.380	-0.520	1.700
2020/01/31 04:07:55.3	92.480	-0.370	-0.530	1.740
2020/01/31 04:07:55.4	92.480	-0.360	-0.540	1.770
2020/01/31 04:07:55.5	92.470	-0.340	-0.550	1.800
2020/01/31 04:07:55.6	92.470	-0.330	-0.550	1.820
2020/01/31 04:07:55.7	92.460	-0.320	-0.540	1.840
2020/01/31 04:07:55.8	92.460	-0.300	-0.540	1.850
2020/01/31 04:07:55.9	92.450	-0.290	-0.520	1.860
2020/01/31 04:07:56.0	92.450	-0.280	-0.510	1.860
2020/01/31 04:07:56.1	92.440	-0.270	-0.480	1.850
2020/01/31 04:07:56.2	92.440	-0.260	-0.460	1.840
2020/01/31 04:07:56.3	92.430	-0.250	-0.430	1.820
2020/01/31 04:07:56.4	92.430	-0.240	-0.400	1.790
2020/01/31 04:07:56.5	92.420	-0.240	-0.370	1.760
2020/01/31 04:07:56.6	92.420	-0.230	-0.330	1.720
2020/01/31 04:07:56.7	92.420	-0.230	-0.290	1.680
2020/01/31 04:07:56.8	92.410	-0.230	-0.250	1.640
2020/01/31 04:07:56.9	92.410	-0.230	-0.210	1.590
2020/01/31 04:07:57.0	92.410	-0.230	-0.170	1.540
2020/01/31 04:07:57.1	92.410	-0.230	-0.120	1.490
2020/01/31 04:07:57.2	92.410	-0.230	-0.080	1.440
2020/01/31 04:07:57.3	92.410	-0.230	-0.040	1.390
2020/01/31 04:07:57.4	92.410	-0.230	0.000	1.340
2020/01/31 04:07:57.5	92.410	-0.230	0.040	1.290
2020/01/31 04:07:57.6	92.400	-0.230	0.080	1.240
2020/01/31 04:07:57.7	92.400	-0.230	0.110	1.190
2020/01/31 04:07:57.8	92.410	-0.230	0.130	1.150
2020/01/31 04:07:57.9	92.410	-0.220	0.160	1.110
2020/01/31 04:07:58.0	92.410	-0.220	0.180	1.070
2020/01/31 04:07:58.1	92.400	-0.220	0.190	1.030
2020/01/31 04:07:58.2	92.400	-0.210	0.200	0.990
2020/01/31 04:07:58.3	92.410	-0.200	0.200	0.960
2020/01/31 04:07:58.4	92.410	-0.190	0.190	0.920
2020/01/31 04:07:58.5	92.420	-0.180	0.180	0.890
2020/01/31 04:07:58.6	92.420	-0.160	0.160	0.850
2020/01/31 04:07:58.7	92.430	-0.150	0.140	0.820
2020/01/31 04:07:58.8	92.440	-0.130	0.110	0.790
2020/01/31 04:07:58.9	92.450	-0.110	0.070	0.750
2020/01/31 04:07:59.0	92.460	-0.090	0.030	0.720
2020/01/31 04:07:59.1	92.490	-0.070	-0.010	0.690
2020/01/31 04:07:59.2	92.500	-0.050	-0.060	0.650
2020/01/31 04:07:59.3	92.520	-0.020	-0.110	0.610
2020/01/31 04:07:59.4	92.530	-0.000	-0.170	0.570
2020/01/31 04:07:59.5	92.550	0.020	-0.220	0.530
2020/01/31 04:07:59.6	92.570	0.050	-0.280	0.490
2020/01/31 04:07:59.7	92.580	0.070	-0.340	0.450
2020/01/31 04:07:59.8	92.600	0.090	-0.400	0.410
2020/01/31 04:07:59.9	92.610	0.120	-0.450	0.370
2020/01/31 04:08:00.0	92.630	0.140	-0.510	0.340
2020/01/31 04:08:00.1	92.640	0.160	-0.560	0.300
2020/01/31 04:08:00.2	92.660	0.180	-0.610	0.260
2020/01/31 04:08:00.3	92.670	0.200	-0.660	0.230
2020/01/31 04:08:00.4	92.690	0.210	-0.700	0.190
2020/01/31 04:08:00.5	92.700	0.230	-0.730	0.160
2020/01/31 04:08:00.6	92.710	0.240	-0.760	0.140
2020/01/31 04:08:00.7	92.720	0.250	-0.780	0.110
2020/01/31 04:08:00.8	92.740	0.260	-0.790	0.090
2020/01/31 04:08:00.9	92.750	0.270	-0.790	0.070
2020/01/31 04:08:01.0	92.760	0.270	-0.790	0.050
2020/01/31 04:08:01.1	92.780	0.280	-0.780	0.030
2020/01/31 04:08:01.2	92.790	0.280	-0.760	0.020
2020/01/31 04:08:01.3	92.800	0.280	-0.730	0.020
2020/01/31 04:08:01.4	92.820	0.270	-0.700	0.020
2020/01/31 04:08:01.5	92.830	0.260	-0.660	0.020
2020/01/31 04:08:01.6	92.850	0.250	-0.610	0.030
2020/01/31 04:08:01.7	92.860	0.240	-0.550	0.040
2020/01/31 04:08:01.8	92.880	0.230	-0.490	0.050
2020/01/31 04:08:01.9	92.890	0.210	-0.430	0.070
2020/01/31 04:08:02.0	92.910	0.200	-0.360	0.090
2020/01/31 04:08:02.1	92.920	0.180	-0.290	0.120
2020/01/31 04:08:02.2	92.940	0.160	-0.220	0.140
2020/01/31 04:08:02.3	92.950	0.130	-0.140	0.170
2020/01/31 04:08:02.4	92.970	0.110	-0.060	0.200
2020/01/31 04:08:02.5	92.990	0.090	0.010	0.240
2020/01/31 04:08:02.6	93.010	0.060	0.090	0.270
2020/01/31 04:08:02.7	93.030	0.030	0.160	0.310
2020/01/31 04:08:02.8	93.050	0.010	0.230	0.350
2020/01/31 04:08:02.9	93.060	-0.020	0.290	0.390
2020/01/31 04:08:03.0	93.080	-0.050	0.350	0.430
2020/01/31 04:08:03.1	93.080	-0.080	0.410	0.480
2020/01/31 04:08:03.2	93.090	-0.100	0.460	0.520
2020/01/31 04:08:03.3	93.100	-0.130	0.490	0.570
2020/01/31 04:08:03.4	93.110	-0.150	0.520	0.610
2020/01/31 04:08:03.5	93.120	-0.180	0.540	0.650
2020/01/31 04:08:03.6	93.130	-0.200	0.550	0.690
2020/01/31 04:08:03.7	93.130	-0.220	0.560	0.740
2020/01/31 04:08:03.8	93.130	-0.240	0.550	0.770
2020/01/31 04:08:03.9	93.120	-0.260	0.530	0.810
2020/01/31 04:08:04.0	93.120	-0.280	0.510	0.850
2020/01/31 04:08:04.1	93.120	-0.290	0.460	0.880
2020/01/31 04:08:04.2	93.110	-0.310	0.420	0.910
2020/01/31 04:08:04.3	93.100	-0.320	0.370	0.930
2020/01/31 04:08:04.4	93.080	-0.320	0.310	0.950
2020/01/31 04:08:04.5	93.060	-0.330	0.250	0.970
2020/01/31 04:08:04.6	93.040	-0.330	0.170	0.980
2020/01/31 04:08:04.7	93.020	-0.330	0.100	0.980
2020/01/31 04:08:04.8	93.000	-0.330	0.020	0.990
2020/01/31 04:08:04.9	92.980	-0.320	-0.060	0.990
2020/01/31 04:08:05.0	92.960	-0.310	-0.150	0.980
2020/01/31 04:08:05.1	92.930	-0.300	-0.230	0.970
2020/01/31 04:08:05.2	92.910	-0.290	-0.320	0.960
2020/01/31 04:08:05.3	92.890	-0.270	-0.400	0.950
2020/01/31 04:08:05.4	92.870	-0.260	-0.480	0.940
2020/01/31 04:08:05.5	92.850	-0.240	-0.550	0.920
2020/01/31 04:08:05.6	92.840	-0.220	-0.630	0.900
2020/01/31 04:08:05.7	92.830	-0.190	-0.700	0.890
2020/01/31 04:08:05.8	92.820	-0.170	-0.760	0.870
2020/01/31 04:08:05.9	92.820	-0.140	-0.820	0.850
2020/01/31 04:08:06.0	92.810	-0.110	-0.870	0.840
2020/01/31 04:08:06.1	92.820	-0.080	-0.910	0.820
2020/01/31 04:08:06.2	92.820	-0.050	-0.950	0.810
2020/01/31 04:08:06.3	92.820	-0.020	-0.970	0.800
2020/01/31 04:08:06.4	92.820	0.010	-1.000	0.790
2020/01/31 04:08:06.5	92.820	0.050	-1.010	0.790
2020/01/31 04:08:06.6	92.820	0.080	-1.020	0.780
2020/01/31 04:08:06.7	92.830	0.110	-1.020	0.780
2020/01/31 04:08:06.8	92.830	0.140	-1.020	0.780
2020/01/31 04:08:06.9	92.840	0.180	-1.010	0.780
2020/01/31 04:08:07.0	92.840	0.210	-0.990	0.790
2020/01/31 04:08:07.1	92.850	0.240	-0.970	0.790
2020/01/31 04:08:07.2	92.850	0.270	-0.950	0.800
2020/01/31 04:08:07.3	92.860	0.300	-0.920	0.800
2020/01/31 04:08:07.4	92.860	0.330	-0.890	0.800
2020/01/31 04:08:07.5	92.870	0.350	-0.850	0.800
2020/01/31 04:08:07.6	92.880	0.380	-0.810	0.790
2020/01/31 04:08:07.7	92.880	0.400	-0.780	0.790
2020/01/31 04:08:07.8	92.890	0.420	-0.740	0.780
2020/01/31 04:08:07.9	92.900	0.440	-0.690	0.760
2020/01/31 04:08:08.0	92.910	0.460	-0.650	0.740
2020/01/31 04:08:08.1	92.910	0.470	-0.610	0.720
2020/01/31 04:08:08.2	92.920	0.480	-0.570	0.690
2020/01/31 04:08:08.3	92.940	0.490	-0.520	0.670
2020/01/31 04:08:08.4	92.950	0.500	-0.480	0.640
2020/01/31 04:08:08.5	92.960	0.500	-0.440	0.600
2020/01/31 04:08:08.6	92.980	0.500	-0.390	0.570
2020/01/31 04:08:08.7	92.990	0.490	-0.340	0.540
2020/01/31 04:08:08.8	93.000	0.480	-0.300	0.510
2020/01/31 04:08:08.9	93.010	0.470	-0.250	0.480
2020/01/31 04:08:09.0	93.030	0.460	-0.200	0.450
2020/01/31 04:08:09.1	93.050	0.440	-0.150	0.420
2020/01/31 04:08:09.2	93.060	0.420	-0.100	0.390
2020/01/31 04:08:09.3	93.070	0.390	-0.050	0.370
2020/01/31 04:08:09.4	93.080	0.360	-0.000	0.350
2020/01/31 04:08:09.5	93.080	0.330	0.040	0.340
2020/01/31 04:08:09.6	93.090	0.300	0.090	0.330
2020/01/31 04:08:09.7	93.090	0.260	0.140	0.320
2020/01/31 04:08:09.8	93.100	0.220	0.190	0.320
2020/01/31 04:08:09.9	93.100	0.180	0.230	0.320
2020/01/31 04:08:10.0	93.100	0.140	0.280	0.330
2020/01/31 04:08:10.1	93.100	0.100	0.320	0.340
2020/01/31 04:08:10.2	93.100	0.060	0.360	0.350
2020/01/31 04:08:10.3	93.100	0.020	0.390	0.370
2020/01/31 04:08:10.4	93.100	-0.030	0.420	0.390
2020/01/31 04:08:10.5	93.110	-0.070	0.450	0.410
2020/01/31 04:08:10.6	93.110	-0.110	0.470	0.430
2020/01/31 04:08:10.7	93.110	-0.150	0.490	0.460
2020/01/31 04:08:10.8	93.120	-0.190	0.500	0.480
2020/01/31 04:08:10.9	93.130	-0.230	0.500	0.510
2020/01/31 04:08:11.0	93.130	-0.260	0.510	0.530
2020/01/31 04:08:11.1	93.140	-0.290	0.500	0.550
2020/01/31 04:08:11.2	93.150	-0.320	0.500	0.570
2020/01/31 04:08:11.3	93.160	-0.350	0.480	0.590
2020/01/31 04:08:11.4	93.170	-0.370	0.460	0.610
2020/01/31 04:08:11.5	93.180	-0.390	0.440	0.630
2020/01/31 04:08:11.6	93.190	-0.400	0.420	0.640
2020/01/31 04:08:11.7	93.200	-0.410	0.380	0.660
2020/01/31 04:08:11.8	93.200	-0.420	0.350	0.670
2020/01/31 04:08:11.9	93.210	-0.430	0.310	0.680
2020/01/31 04:08:12.0	93.220	-0.430	0.270	0.690
2020/01/31 04:08:12.1	93.220	-0.430	0.220	0.690
2020/01/31 04:08:12.2	93.230	-0.420	0.180	0.700
2020/01/31 04:08:12.3	93.230	-0.410	0.130	0.710
2020/01/31 04:08:12.4	93.230	-0.400	0.090	0.710
2020/01/31 04:08:12.5	93.230	-0.390	0.040	0.720
2020/01/31 04:08:12.6	93.230	-0.370	-0.010	0.720
2020/01/31 04:08:12.7	93.230	-0.360	-0.050	0.730
2020/01/31 04:08:12.8	93.230	-0.340	-0.100	0.730
2020/01/31 04:08:12.9	93.220	-0.320	-0.140	0.730
2020/01/31 04:08:13.0	93.220	-0.300	-0.190	0.740
2020/01/31 04:08:13.1	93.220	-0.270	-0.230	0.750
2020/01/31 04:08:13.2	93.220	-0.250	-0.270	0.750
2020/01/31 04:08:13.3	93.210	-0.230	-0.300	0.760
2020/01/31 04:08:13.4	93.200	-0.210	-0.340	0.760
2020/01/31 04:08:13.5	93.190	-0.190	-0.370	0.760
2020/01/31 04:08:13.6	93.190	-0.170	-0.410	0.770
2020/01/31 04:08:13.7	93.180	-0.150	-0.440	0.770
2020/01/31 04:08:13.8	93.170	-0.120	-0.460	0.780
2020/01/31 04:08:13.9	93.170	-0.100	-0.490	0.780
2020/01/31 04:08:14.0	93.160	-0.090	-0.510	0.790
2020/01/31 04:08:14.1	93.140	-0.070	-0.530	0.800
2020/01/31 04:08:14.2	93.140	-0.050	-0.550	0.800
2020/01/31 04:08:14.3	93.140	-0.030	-0.570	0.800
2020/01/31 04:08:14.4	93.140	-0.020	-0.590	0.810
2020/01/31 04:08:14.5	93.140	-0.000	-0.600	0.810
2020/01/31 04:08:14.6	93.150	0.020	-0.610	0.810
2020/01/31 04:08:14.7	93.150	0.030	-0.630	0.810
2020/01/31 04:08:14.8	93.160	0.040	-0.640	0.800
2020/01/31 04:08:14.9	93.170	0.060	-0.650	0.800
2020/01/31 04:08:15.0	93.180	0.070	-0.660	0.790
2020/01/31 04:08:15.1	93.190	0.090	-0.660	0.780
2020/01/31 04:08:15.2	93.200	0.100	-0.670	0.770
2020/01/31 04:08:15.3	93.210	0.110	-0.680	0.760
2020/01/31 04:08:15.4	93.220	0.120	-0.680	0.750
2020/01/31 04:08:15.5	93.240	0.130	-0.680	0.740
2020/01/31 04:08:15.6	93.250	0.150	-0.680	0.720
2020/01/31 04:08:15.7	93.260	0.160	-0.680	0.720
2020/01/31 04:08:15.8	93.280	0.160	-0.680	0.710
2020/01/31 04:08:15.9	93.290	0.170	-0.670	0.700
2020/01/31 04:08:16.0	93.290	0.180	-0.660	0.700
2020/01/31 04:08:16.1	93.310	0.180	-0.650	0.700
2020/01/31 04:08:16.2	93.310	0.190	-0.640	0.700
2020/01/31 04:08:16.3	93.310	0.190	-0.620	0.700
2020/01/31 04:08:16.4	93.300	0.190	-0.600	0.700
2020/01/31 04:08:16.5	93.290	0.180	-0.570	0.710
2020/01/31 04:08:16.6	93.280	0.180	-0.540	0.710
2020/01/31 04:08:16.7	93.260	0.170	-0.510	0.720
2020/01/31 04:08:16.8	93.250	0.160	-0.470	0.740
2020/01/31 04:08:16.9	93.230	0.140	-0.430	0.750
2020/01/31 04:08:17.0	93.200	0.120	-0.380	0.760
2020/01/31 04:08:17.1	93.160	0.100	-0.330	0.780
2020/01/31 04:08:17.2	93.140	0.080	-0.280	0.800
2020/01/31 04:08:17.3	93.110	0.050	-0.220	0.810
2020/01/31 04:08:17.4	93.080	0.020	-0.160	0.830
2020/01/31 04:08:17.5	93.050	-0.010	-0.100	0.840
2020/01/31 04:08:17.6	93.020	-0.050	-0.040	0.860
2020/01/31 04:08:17.7	93.000	-0.090	0.020	0.870
2020/01/31 04:08:17.8	92.970	-0.130	0.080	0.880
2020/01/31 04:08:17.9	92.940	-0.170	0.140	0.890
2020/01/31 04:08:18.0	92.910	-0.210	0.190	0.890
2020/01/31 04:08:18.1	92.900	-0.260	0.250	0.900
2020/01/31 04:08:18.2	92.880	-0.300	0.300	0.900
2020/01/31 04:08:18.3	92.860	-0.340	0.350	0.890
2020/01/31 04:08:18.4	92.840	-0.380	0.390	0.890
2020/01/31 04:08:18.5	92.820	-0.430	0.430	0.880
2020/01/31 04:08:18.6	92.800	-0.460	0.460	0.860
2020/01/31 04:08:18.7	92.790	-0.500	0.480	0.850
2020/01/31 04:08:18.8	92.780	-0.530	0.500	0.830
2020/01/31 04:08:18.9	92.770	-0.560	0.500	0.800
2020/01/31 04:08:19.0	92.770	-0.590	0.500	0.770
2020/01/31 04:08:19.1	92.770	-0.610	0.490	0.740
2020/01/31 04:08:19.2	92.770	-0.620	0.470	0.710
2020/01/31 04:08:19.3	92.770	-0.630	0.450	0.670
2020/01/31 04:08:19.4	92.780	-0.630	0.410	0.630
2020/01/31 04:08:19.5	92.790	-0.630	0.370	0.590
2020/01/31 04:08:19.6	92.800	-0.620	0.320	0.550
2020/01/31 04:08:19.7	92.820	-0.610	0.260	0.510
2020/01/31 04:08:19.8	92.840	-0.580	0.200	0.460
2020/01/31 04:08:19.9	92.860	-0.550	0.130	0.420
2020/01/31 04:08:20.0	92.880	-0.520	0.060	0.380
2020/01/31 04:08:20.1	92.900	-0.480	-0.020	0.340
2020/01/31 04:08:20.2	92.920	-0.430	-0.100	0.300
2020/01/31 04:08:20.3	92.950	-0.380	-0.190	0.260
2020/01/31 04:08:20.4	92.970	-0.320	-0.270	0.230
2020/01/31 04:08:20.5	93.000	-0.260	-0.360	0.200
2020/01/31 04:08:20.6	93.020	-0.200	-0.450	0.170
2020/01/31 04:08:20.7	93.040	-0.130	-0.530	0.150
2020/01/31 04:08:20.8	93.060	-0.070	-0.620	0.130
2020/01/31 04:08:20.9	93.090	0.000	-0.700	0.120
2020/01/31 04:08:21.0	93.100	0.070	-0.770	0.100
2020/01/31 04:08:21.1	93.120	0.140	-0.850	0.100
2020/01/31 04:08:21.2	93.130	0.210	-0.920	0.090
2020/01/31 04:08:21.3	93.150	0.280	-0.980	0.090
2020/01/31 04:08:21.4	93.160	0.340	-1.030	0.100
2020/01/31 04:08:21.5	93.160	0.400	-1.080	0.110
2020/01/31 04:08:21.6	93.170	0.460	-1.120	0.120
2020/01/31 04:08:21.7	93.170	0.520	-1.150	0.140
2020/01/31 04:08:21.8	93.170	0.570	-1.180	0.160
2020/01/31 04:08:21.9	93.170	0.620	-1.190	0.180
2020/01/31 04:08:22.0	93.160	0.660	-1.200	0.210
2020/01/31 04:08:22.1	93.150	0.700	-1.190	0.240
2020/01/31 04:08:22.2	93.140	0.730	-1.180	0.260
2020/01/31 04:08:22.3	93.130	0.750	-1.160	0.290
2020/01/31 04:08:22.4	93.110	0.770	-1.140	0.320
2020/01/31 04:08:22.5	93.100	0.780	-1.100	0.350
2020/01/31 04:08:22.6	93.080	0.790	-1.060	0.380
2020/01/31 04:08:22.7	93.060	0.790	-1.010	0.410
2020/01/31 04:08:22.8	93.040	0.790	-0.950	0.440
2020/01/31 04:08:22.9	93.020	0.770	-0.880	0.470
2020/01/31 04:08:23.0	93.000	0.760	-0.810	0.500
2020/01/31 04:08:23.1	92.980	0.730	-0.740	0.530
2020/01/31 04:08:23.2	92.960	0.710	-0.660	0.560
2020/01/31 04:08:23.3	92.940	0.670	-0.570	0.600
2020/01/31 04:08:23.4	92.910	0.640	-0.480	0.630
2020/01/31 04:08:23.5	92.890	0.600	-0.390	0.660
2020/01/31 04:08:23.6	92.870	0.550	-0.300	0.700
2020/01/31 04:08:23.7	92.850	0.500	-0.200	0.730
2020/01/31 04:08:23.8	92.830	0.450	-0.110	0.760
2020/01/31 04:08:23.9	92.810	0.400	-0.010	0.790
2020/01/31 04:08:24.0	92.790	0.340	0.080	0.820
2020/01/31 04:08:24.1	92.780	0.290	0.180	0.860
2020/01/31 04:08:24.2	92.760	0.230	0.270	0.890
2020/01/31 04:08:24.3	92.740	0.170	0.360	0.920
2020/01/31 04:08:24.4	92.720	0.110	0.440	0.940
2020/01/31 04:08:24.5	92.710	0.050	0.520	0.970
2020/01/31 04:08:24.6	92.690	-0.010	0.590	0.990
2020/01/31 04:08:24.7	92.680	-0.070	0.660	1.010
2020/01/31 04:08:24.8	92.670	-0.120	0.720	1.030
2020/01/31 04:08:24.9	92.650	-0.170	0.770	1.040
2020/01/31 04:08:25.0	92.640	-0.230	0.810	1.050
2020/01/31 04:08:25.1	92.630	-0.280	0.840	1.060
2020/01/31 04:08:25.2	92.620	-0.320	0.870	1.060
2020/01/31 04:08:25.3	92.620	-0.360	0.880	1.060
2020/01/31 04:08:25.4	92.610	-0.400	0.880	1.050
2020/01/31 04:08:25.5	92.610	-0.430	0.880	1.050
2020/01/31 04:08:25.6	92.610	-0.460	0.860	1.030
2020/01/31 04:08:25.7	92.620	-0.490	0.830	1.020
2020/01/31 04:08:25.8	92.620	-0.510	0.790	1.000
2020/01/31 04:08:25.9	92.630	-0.530	0.750	0.980
2020/01/31 04:08:26.0	92.640	-0.540	0.690	0.950
2020/01/31 04:08:26.1	92.640	-0.540	0.630	0.930
2020/01/31 04:08:26.2	92.650	-0.540	0.560	0.900
2020/01/31 04:08:26.3	92.660	-0.540	0.480	0.870
2020/01/31 04:08:26.4	92.680	-0.530	0.390	0.840
2020/01/31 04:08:26.5	92.700	-0.520	0.300	0.810
2020/01/31 04:08:26.6	92.720	-0.500	0.200	0.790
2020/01/31 04:08:26.7	92.740	-0.480	0.100	0.760
2020/01/31 04:08:26.8	92.760	-0.450	-0.000	0.730
2020/01/31 04:08:26.9	92.780	-0.420	-0.110	0.710
2020/01/31 04:08:27.0	92.800	-0.390	-0.220	0.690
2020/01/31 04:08:27.1	92.820	-0.350	-0.320	0.670
2020/01/31 04:08:27.2	92.840	-0.310	-0.430	0.650
2020/01/31 04:08:27.3	92.860	-0.270	-0.530	0.630
2020/01/31 04:08:27.4	92.880	-0.230	-0.630	0.620
2020/01/31 04:08:27.5	92.900	-0.180	-0.730	0.600
2020/01/31 04:08:27.6	92.910	-0.140	-0.810	0.590
2020/01/31 04:08:27.7	92.930	-0.090	-0.890	0.580
2020/01/31 04:08:27.8	92.940	-0.040	-0.970	0.570
2020/01/31 04:08:27.9	92.950	0.000	-1.030	0.560
2020/01/31 04:08:28.0	92.960	0.040	-1.090	0.560
2020/01/31 04:08:28.1	92.960	0.090	-1.140	0.560
2020/01/31 04:08:28.2	92.970	0.130	-1.180	0.560
2020/01/31 04:08:28.3	92.980	0.160	-1.200	0.560
2020/01/31 04:08:28.4	92.980	0.200	-1.220	0.570
2020/01/31 04:08:28.5	92.990	0.230	-1.220	0.580
2020/01/31 04:08:28.6	92.990	0.250	-1.220	0.590
2020/01/31 04:08:28.7	92.990	0.270	-1.200	0.610
2020/01/31 04:08:28.8	92.990	0.290	-1.170	0.630
2020/01/31 04:08:28.9	92.990	0.300	-1.130	0.660
2020/01/31 04:08:29.0	92.990	0.310	-1.080	0.690
2020/01/31 04:08:29.1	93.000	0.310	-1.010	0.720
2020/01/31 04:08:29.2	92.990	0.300	-0.940	0.750
2020/01/31 04:08:29.3	92.990	0.290	-0.860	0.790
2020/01/31 04:08:29.4	92.990	0.280	-0.770	0.830
2020/01/31 04:08:29.5	92.990	0.260	-0.680	0.870
2020/01/31 04:08:29.6	92.990	0.230	-0.580	0.910
2020/01/31 04:08:29.7	92.990	0.200	-0.470	0.950
2020/01/31 04:08:29.8	92.990	0.170	-0.360	0.990
2020/01/31 04:08:29.9	92.990	0.130	-0.240	1.020
2020/01/31 04:08:30.0	92.990	0.080	-0.120	1.060
2020/01/31 04:08:30.1	93.000	0.040	-0.010	1.100
2020/01/31 04:08:30.2	93.000	-0.010	0.110	1.140
2020/01/31 04:08:30.3	93.000	-0.060	0.230	1.170
2020/01/31 04:08:30.4	93.010	-0.120	0.340	1.190
2020/01/31 04:08:30.5	93.020	-0.170	0.450	1.220
2020/01/31 04:08:30.6	93.020	-0.230	0.550	1.240
2020/01/31 04:08:30.7	93.030	-0.280	0.650	1.260
2020/01/31 04:08:30.8	93.040	-0.330	0.740	1.270
2020/01/31 04:08:30.9	93.050	-0.390	0.810	1.280
2020/01/31 04:08:31.0	93.060	-0.440	0.880	1.290
2020/01/31 04:08:31.1	93.080	-0.480	0.950	1.290
2020/01/31 04:08:31.2	93.090	-0.530	1.000	1.290
2020/01/31 04:08:31.3	93.100	-0.570	1.030	1.280
2020/01/31 04:08:31.4	93.120	-0.600	1.050	1.280
2020/01/31 04:08:31.5	93.130	-0.630	1.060	1.260
2020/01/31 04:08:31.6	93.140	-0.650	1.060	1.250
2020/01/31 04:08:31.7	93.150	-0.670	1.040	1.240
2020/01/31 04:08:31.8	93.160	-0.680	1.010	1.220
2020/01/31 04:08:31.9	93.170	-0.690	0.960	1.200
2020/01/31 04:08:32.0	93.180	-0.690	0.900	1.180
2020/01/31 04:08:32.1	93.180	-0.680	0.830	1.160
2020/01/31 04:08:32.2	93.180	-0.660	0.740	1.130
2020/01/31 04:08:32.3	93.190	-0.640	0.640	1.110
2020/01/31 04:08:32.4	93.190	-0.610	0.530	1.080
2020/01/31 04:08:32.5	93.190	-0.570	0.410	1.060
2020/01/31 04:08:32.6	93.190	-0.530	0.280	1.030
2020/01/31 04:08:32.7	93.190	-0.480	0.140	1.010
2020/01/31 04:08:32.8	93.190	-0.430	-0.010	0.980
2020/01/31 04:08:32.9	93.190	-0.370	-0.160	0.950
2020/01/31 04:08:33.0	93.190	-0.310	-0.320	0.930
2020/01/31 04:08:33.1	93.180	-0.240	-0.480	0.890
2020/01/31 04:08:33.2	93.180	-0.170	-0.640	0.870
2020/01/31 04:08:33.3	93.170	-0.100	-0.800	0.840
2020/01/31 04:08:33.4	93.160	-0.030	-0.950	0.820
2020/01/31 04:08:33.5	93.160	0.050	-1.100	0.800
2020/01/31 04:08:33.6	93.150	0.120	-1.240	0.780
2020/01/31 04:08:33.7	93.140	0.190	-1.370	0.750
2020/01/31 04:08:33.8	93.130	0.270	-1.500	0.740
2020/01/31 04:08:33.9	93.120	0.340	-1.610	0.720
2020/01/31 04:08:34.0	93.110	0.400	-1.700	0.700
2020/01/31 04:08:34.1	93.100	0.460	-1.780	0.680
2020/01/31 04:08:34.2	93.090	0.520	-1.840	0.670
2020/01/31 04:08:34.3	93.070	0.570	-1.890	0.660
2020/01/31 04:08:34.4	93.060	0.620	-1.920	0.650
2020/01/31 04:08:34.5	93.050	0.660	-1.930	0.640
2020/01/31 04:08:34.6	93.040	0.690	-1.920	0.630
2020/01/31 04:08:34.7	93.020	0.720	-1.890	0.620
2020/01/31 04:08:34.8	93.010	0.740	-1.840	0.620
2020/01/31 04:08:34.9	93.000	0.750	-1.780	0.610
2020/01/31 04:08:35.0	92.980	0.750	-1.700	0.610
2020/01/31 04:08:35.1	92.960	0.750	-1.600	0.610
2020/01/31 04:08:35.2	92.950	0.740	-1.490	0.600
2020/01/31 04:08:35.3	92.940	0.720	-1.360	0.600
2020/01/31 04:08:35.4	92.930	0.700	-1.220	0.600
2020/01/31 04:08:35.5	92.920	0.670	-1.070	0.600
2020/01/31 04:08:35.6	92.910	0.640	-0.920	0.600
2020/01/31 04:08:35.7	92.900	0.600	-0.750	0.600
2020/01/31 04:08:35.8	92.890	0.550	-0.580	0.600
2020/01/31 04:08:35.9	92.890	0.500	-0.410	0.600
2020/01/31 04:08:36.0	92.880	0.450	-0.230	0.600
2020/01/31 04:08:36.1	92.870	0.390	-0.060	0.600
2020/01/31 04:08:36.2	92.870	0.330	0.110	0.600
2020/01/31 04:08:36.3	92.870	0.270	0.280	0.600
2020/01/31 04:08:36.4	92.870	0.210	0.440	0.600
2020/01/31 04:08:36.5	92.870	0.150	0.590	0.600
2020/01/31 04:08:36.6	92.880	0.090	0.730	0.600
2020/01/31 04:08:36.7	92.890	0.030	0.850	0.600
2020/01/31 04:08:36.8	92.900	-0.020	0.970	0.600
2020/01/31 04:08:36.9	92.910	-0.080	1.070	0.600
2020/01/31 04:08:37.0	92.920	-0.130	1.150	0.600
2020/01/31 04:08:37.1	92.940	-0.170	1.220	0.600
2020/01/31 04:08:37.2	92.950	-0.210	1.280	0.590
2020/01/31 04:08:37.3	92.970	-0.250	1.310	0.590
2020/01/31 04:08:37.4	92.980	-0.280	1.330	0.590
2020/01/31 04:08:37.5	93.000	-0.310	1.330	0.590
2020/01/31 04:08:37.6	93.010	-0.330	1.320	0.580
2020/01/31 04:08:37.7	93.030	-0.350	1.280	0.580
2020/01/31 04:08:37.8	93.040	-0.360	1.240	0.580
2020/01/31 04:08:37.9	93.060	-0.360	1.180	0.570
2020/01/31 04:08:38.0	93.070	-0.370	1.100	0.570
2020/01/31 04:08:38.1	93.100	-0.360	1.010	0.560
2020/01/31 04:08:38.2	93.120	-0.350	0.910	0.550
2020/01/31 04:08:38.3	93.130	-0.340	0.810	0.540
2020/01/31 04:08:38.4	93.150	-0.320	0.690	0.530
2020/01/31 04:08:38.5	93.160	-0.300	0.570	0.530
2020/01/31 04:08:38.6	93.180	-0.270	0.440	0.510
2020/01/31 04:08:38.7	93.190	-0.250	0.310	0.500
2020/01/31 04:08:38.8	93.210	-0.220	0.170	0.490
2020/01/31 04:08:38.9	93.220	-0.190	0.040	0.480
2020/01/31 04:08:39.0	93.240	-0.150	-0.100	0.470
2020/01/31 04:08:39.1	93.250	-0.120	-0.230	0.460
2020/01/31 04:08:39.2	93.260	-0.080	-0.360	0.460
2020/01/31 04:08:39.3	93.280	-0.050	-0.480	0.450
2020/01/31 04:08:39.4	93.300	-0.010	-0.600	0.450
2020/01/31 04:08:39.5	93.310	0.020	-0.710	0.450
2020/01/31 04:08:39.6	93.330	0.050	-0.820	0.450
2020/01/31 04:08:39.7	93.340	0.080	-0.910	0.450
2020/01/31 04:08:39.8	93.350	0.110	-1.000	0.460
2020/01/31 04:08:39.9	93.370	0.140	-1.070	0.470
2020/01/31 04:08:40.0	93.380	0.160	-1.130	0.480
2020/01/31 04:08:40.1	93.390	0.180	-1.180	0.500
2020/01/31 04:08:40.2	93.400	0.200	-1.220	0.520
2020/01/31 04:08:40.3	93.410	0.210	-1.250	0.540
2020/01/31 04:08:40.4	93.410	0.220	-1.260	0.570
2020/01/31 04:08:40.5	93.420	0.220	-1.260	0.590
2020/01/31 04:08:40.6	93.420	0.220	-1.240	0.620
2020/01/31 04:08:40.7	93.420	0.210	-1.210	0.650
2020/01/31 04:08:40.8	93.420	0.200	-1.170	0.680
2020/01/31 04:08:40.9	93.420	0.190	-1.120	0.720
2020/01/31 04:08:41.0	93.410	0.170	-1.050	0.760
2020/01/31 04:08:41.1	93.400	0.150	-0.970	0.790
2020/01/31 04:08:41.2	93.400	0.130	-0.890	0.830
2020/01/31 04:08:41.3	93.390	0.100	-0.800	0.870
2020/01/31 04:08:41.4	93.390	0.070	-0.690	0.910
2020/01/31 04:08:41.5	93.380	0.030	-0.590	0.950
2020/01/31 04:08:41.6	93.370	-0.000	-0.480	0.980
2020/01/31 04:08:41.7	93.370	-0.040	-0.360	1.020
2020/01/31 04:08:41.8	93.360	-0.080	-0.250	1.050
2020/01/31 04:08:41.9	93.350	-0.120	-0.130	1.080
2020/01/31 04:08:42.0	93.350	-0.160	-0.020	1.110
2020/01/31 04:08:42.1	93.350	-0.200	0.100	1.140
2020/01/31 04:08:42.2	93.350	-0.230	0.200	1.170
2020/01/31 04:08:42.3	93.340	-0.270	0.300	1.190
2020/01/31 04:08:42.4	93.340	-0.300	0.390	1.210
2020/01/31 04:08:42.5	93.330	-0.330	0.470	1.220
2020/01/31 04:08:42.6	93.320	-0.360	0.540	1.240
2020/01/31 04:08:42.7	93.320	-0.390	0.600	1.250
2020/01/31 04:08:42.8	93.310	-0.400	0.640	1.260
2020/01/31 04:08:42.9	93.300	-0.420	0.670	1.270
2020/01/31 04:08:43.0	93.290	-0.430	0.690	1.270
2020/01/31 04:08:43.1	93.290	-0.430	0.690	1.270
2020/01/31 04:08:43.2	93.270	-0.430	0.670	1.280
2020/01/31 04:08:43.3	93.260	-0.420	0.650	1.280
2020/01/31 04:08:43.4	93.240	-0.410	0.600	1.280
2020/01/31 04:08:43.5	93.220	-0.390	0.550	1.270
2020/01/31 04:08:43.6	93.190	-0.370	0.480	1.270
2020/01/31 04:08:43.7	93.170	-0.340	0.400	1.260
2020/01/31 04:08:43.8	93.140	-0.300	0.310	1.250
2020/01/31 04:08:43.9	93.110	-0.260	0.210	1.240
2020/01/31 04:08:44.0	93.090	-0.210	0.100	1.230
2020/01/31 04:08:44.1	93.050	-0.170	-0.010	1.220
2020/01/31 04:08:44.2	93.020	-0.110	-0.130	1.200
2020/01/31 04:08:44.3	92.990	-0.060	-0.250	1.180
2020/01/31 04:08:44.4	92.960	-0.000	-0.370	1.160
2020/01/31 04:08:44.5	92.930	0.060	-0.490	1.130
2020/01/31 04:08:44.6	92.900	0.120	-0.610	1.110
2020/01/31 04:08:44.7	92.880	0.180	-0.730	1.080
2020/01/31 04:08:44.8	92.860	0.240	-0.840	1.050
2020/01/31 04:08:44.9	92.840	0.300	-0.940	1.020
2020/01/31 04:08:45.0	92.820	0.360	-1.030	0.980
2020/01/31 04:08:45.1	92.820	0.410	-1.110	0.940
2020/01/31 04:08:45.2	92.810	0.460	-1.180	0.900
2020/01/31 04:08:45.3	92.800	0.500	-1.240	0.860
2020/01/31 04:08:45.4	92.800	0.550	-1.280	0.830
2020/01/31 04:08:45.5	92.800	0.580	-1.310	0.790
2020/01/31 04:08:45.6	92.800	0.610	-1.320	0.760
2020/01/31 04:08:45.7	92.810	0.630	-1.320	0.720
2020/01/31 04:08:45.8	92.810	0.650	-1.310	0.690
2020/01/31 04:08:45.9	92.820	0.660	-1.280	0.660
2020/01/31 04:08:46.0	92.840	0.660	-1.240	0.620
2020/01/31 04:08:46.1	92.850	0.660	-1.180	0.590
2020/01/31 04:08:46.2	92.870	0.650	-1.110	0.570
2020/01/31 04:08:46.3	92.890	0.630	-1.030	0.540
2020/01/31 04:08:46.4	92.910	0.610	-0.940	0.510
2020/01/31 04:08:46.5	92.940	0.570	-0.840	0.490
2020/01/31 04:08:46.6	92.960	0.540	-0.730	0.460
2020/01/31 04:08:46.7	92.990	0.490	-0.610	0.440
2020/01/31 04:08:46.8	93.020	0.450	-0.480	0.420
2020/01/31 04:08:46.9	93.050	0.390	-0.350	0.400
2020/01/31 04:08:47.0	93.090	0.330	-0.220	0.380
2020/01/31 04:08:47.1	93.130	0.270	-0.080	0.360
2020/01/31 04:08:47.2	93.170	0.210	0.060	0.350
2020/01/31 04:08:47.3	93.200	0.140	0.200	0.330
2020/01/31 04:08:47.4	93.240	0.070	0.330	0.320
2020/01/31 04:08:47.5	93.270	0.000	0.460	0.300
2020/01/31 04:08:47.6	93.310	-0.070	0.580	0.290
2020/01/31 04:08:47.7	93.340	-0.140	0.700	0.290
2020/01/31 04:08:47.8	93.380	-0.200	0.810	0.280
2020/01/31 04:08:47.9	93.410	-0.270	0.910	0.280
2020/01/31 04:08:48.0	93.440	-0.330	1.000	0.280
2020/01/31 04:08:48.1	93.480	-0.390	1.080	0.280
2020/01/31 04:08:48.2	93.510	-0.450	1.140	0.280
2020/01/31 04:08:48.3	93.530	-0.500	1.190	0.300
2020/01/31 04:08:48.4	93.560	-0.550	1.230	0.310
2020/01/31 04:08:48.5	93.580	-0.590	1.250	0.330
2020/01/31 04:08:48.6	93.600	-0.630	1.250	0.350
2020/01/31 04:08:48.7	93.620	-0.660	1.250	0.380
2020/01/31 04:08:48.8	93.630	-0.680	1.230	0.410
2020/01/31 04:08:48.9	93.640	-0.700	1.190	0.440
2020/01/31 04:08:49.0	93.650	-0.710	1.140	0.480
2020/01/31 04:08:49.1	93.670	-0.720	1.080	0.520
2020/01/31 04:08:49.2	93.670	-0.720	1.000	0.560
2020/01/31 04:08:49.3	93.670	-0.720	0.920	0.600
2020/01/31 04:08:49.4	93.670	-0.710	0.820	0.650
2020/01/31 04:08:49.5	93.670	-0.690	0.720	0.690
2020/01/31 04:08:49.6	93.660	-0.670	0.610	0.740
2020/01/31 04:08:49.7	93.650	-0.650	0.490	0.780
2020/01/31 04:08:49.8	93.650	-0.620	0.370	0.820
2020/01/31 04:08:49.9	93.640	-0.590	0.240	0.860
2020/01/31 04:08:50.0	93.630	-0.550	0.110	0.900
2020/01/31 04:08:50.1	93.610	-0.510	-0.030	0.950
2020/01/31 04:08:50.2	93.590	-0.470	-0.160	0.990
2020/01/31 04:08:50.3	93.580	-0.430	-0.290	1.030
2020/01/31 04:08:50.4	93.560	-0.390	-0.420	1.070
2020/01/31 04:08:50.5	93.540	-0.340	-0.550	1.100
2020/01/31 04:08:50.6	93.520	-0.300	-0.670	1.140
2020/01/31 04:08:50.7	93.500	-0.250	-0.790	1.170
2020/01/31 04:08:50.8	93.470	-0.210	-0.900	1.200
2020/01/31 04:08:50.9	93.450	-0.170	-1.000	1.230
2020/01/31 04:08:51.0	93.420	-0.120	-1.090	1.250
2020/01/31 04:08:51.1	93.390	-0.080	-1.170	1.270
2020/01/31 04:08:51.2	93.370	-0.040	-1.240	1.280
2020/01/31 04:08:51.3	93.340	-0.010	-1.290	1.300
2020/01/31 04:08:51.4	93.320	0.030	-1.340	1.310
2020/01/31 04:08:51.5	93.290	0.060	-1.370	1.320
2020/01/31 04:08:51.6	93.260	0.090	-1.390	1.330
2020/01/31 04:08:51.7	93.240	0.110	-1.390	1.330
2020/01/31 04:08:51.8	93.210	0.130	-1.390	1.330
2020/01/31 04:08:51.9	93.190	0.150	-1.370	1.330
2020/01/31 04:08:52.0	93.160	0.170	-1.330	1.330
2020/01/31 04:08:52.1	93.140	0.180	-1.290	1.320
2020/01/31 04:08:52.2	93.120	0.190	-1.240	1.320
2020/01/31 04:08:52.3	93.100	0.200	-1.180	1.300
2020/01/31 04:08:52.4	93.080	0.200	-1.110	1.290
2020/01/31 04:08:52.5	93.060	0.200	-1.030	1.270
2020/01/31 04:08:52.6	93.040	0.200	-0.950	1.250
2020/01/31 04:08:52.7	93.020	0.200	-0.860	1.230
2020/01/31 04:08:52.8	93.000	0.190	-0.770	1.210
2020/01/31 04:08:52.9	92.990	0.190	-0.680	1.180
2020/01/31 04:08:53.0	92.970	0.180	-0.590	1.150
2020/01/31 04:08:53.1	92.950	0.170	-0.500	1.120
2020/01/31 04:08:53.2	92.940	0.170	-0.410	1.080
2020/01/31 04:08:53.3	92.920	0.160	-0.330	1.050
2020/01/31 04:08:53.4	92.910	0.150	-0.250	1.010
2020/01/31 04:08:53.5	92.900	0.140	-0.170	0.970
2020/01/31 04:08:53.6	92.880	0.130	-0.100	0.930
2020/01/31 04:08:53.7	92.870	0.130	-0.040	0.890
2020/01/31 04:08:53.8	92.860	0.120	0.020	0.840
2020/01/31 04:08:53.9	92.850	0.120	0.060	0.800
2020/01/31 04:08:54.0	92.840	0.120	0.100	0.750
2020/01/31 04:08:54.1	92.830	0.120	0.130	0.710
2020/01/31 04:08:54.2	92.820	0.130	0.150	0.660
2020/01/31 04:08:54.3	92.810	0.140	0.160	0.620
2020/01/31 04:08:54.4	92.810	0.150	0.160	0.570
2020/01/31 04:08:54.5	92.800	0.160	0.140	0.530
2020/01/31 04:08:54.6	92.790	0.180	0.120	0.490
2020/01/31 04:08:54.7	92.790	0.200	0.100	0.450
2020/01/31 04:08:54.8	92.780	0.220	0.060	0.410
2020/01/31 04:08:54.9	92.780	0.250	0.020	0.370
2020/01/31 04:08:55.0	92.780	0.280	-0.020	0.330
2020/01/31 04:08:55.1	92.790	0.300	-0.080	0.300
2020/01/31 04:08:55.2	92.780	0.330	-0.130	0.260
2020/01/31 04:08:55.3	92.780	0.360	-0.190	0.240
2020/01/31 04:08:55.4	92.780	0.390	-0.240	0.210
2020/01/31 04:08:55.5	92.780	0.420	-0.300	0.180
2020/01/31 04:08:55.6	92.770	0.450	-0.350	0.160
2020/01/31 04:08:55.7	92.770	0.480	-0.400	0.150
2020/01/31 04:08:55.8	92.770	0.510	-0.440	0.130
2020/01/31 04:08:55.9	92.760	0.530	-0.490	0.120
2020/01/31 04:08:56.0	92.760	0.550	-0.520	0.110
2020/01/31 04:08:56.1	92.740	0.570	-0.550	0.100
2020/01/31 04:08:56.2	92.730	0.590	-0.570	0.090
2020/01/31 04:08:56.3	92.730	0.600	-0.580	0.090
2020/01/31 04:08:56.4	92.720	0.610	-0.580	0.090
2020/01/31 04:08:56.5	92.710	0.610	-0.580	0.100
2020/01/31 04:08:56.6	92.700	0.610	-0.570	0.100
2020/01/31 04:08:56.7	92.690	0.600	-0.550	0.110
2020/01/31 04:08:56.8	92.670	0.590	-0.520	0.120
2020/01/31 04:08:56.9	92.660	0.580	-0.490	0.140
2020/01/31 04:08:57.0	92.650	0.560	-0.440	0.160
2020/01/31 04:08:57.1	92.650	0.530	-0.400	0.180
2020/01/31 04:08:57.2	92.640	0.510	-0.340	0.210
2020/01/31 04:08:57.3	92.620	0.470	-0.280	0.230
2020/01/31 04:08:57.4	92.600	0.440	-0.210	0.270
2020/01/31 04:08:57.5	92.580	0.400	-0.150	0.300
2020/01/31 04:08:57.6	92.570	0.360	-0.080	0.340
2020/01/31 04:08:57.7	92.550	0.310	-0.000	0.380
2020/01/31 04:08:57.8	92.530	0.270	0.070	0.430
2020/01/31 04:08:57.9	92.520	0.220	0.140	0.480
2020/01/31 04:08:58.0	92.500	0.170	0.210	0.530
2020/01/31 04:08:58.1	92.490	0.130	0.270	0.580
2020/01/31 04:08:58.2	92.480	0.080	0.340	0.630
2020/01/31 04:08:58.3	92.460	0.030	0.390	0.680
2020/01/31 04:08:58.4	92.450	-0.020	0.440	0.730
2020/01/31 04:08:58.5	92.440	-0.070	0.480	0.790
2020/01/31 04:08:58.6	92.430	-0.110	0.520	0.840
2020/01/31 04:08:58.7	92.430	-0.150	0.550	0.880
2020/01/31 04:08:58.8	92.420	-0.190	0.560	0.930
2020/01/31 04:08:58.9	92.420	-0.230	0.570	0.970
2020/01/31 04:08:59.0	92.420	-0.260	0.570	1.010
2020/01/31 04:08:59.1	92.410	-0.290	0.560	1.040
2020/01/31 04:08:59.2	92.420	-0.310	0.550	1.070
2020/01/31 04:08:59.3	92.420	-0.330	0.520	1.090
2020/01/31 04:08:59.4	92.430	-0.350	0.480	1.110
2020/01/31 04:08:59.5	92.450	-0.360	0.440	1.120
2020/01/31 04:08:59.6	92.460	-0.370	0.390	1.130
2020/01/31 04:08:59.7	92.480	-0.370	0.330	1.130
2020/01/31 04:08:59.8	92.500	-0.370	0.270	1.130
2020/01/31 04:08:59.9	92.510	-0.370	0.200	1.130
2020/01/31 04:09:00.0	92.530	-0.360	0.130	1.120
2020/01/31 04:09:00.1	92.540	-0.350	0.060	1.100
2020/01/31 04:09:00.2	92.560	-0.340	-0.020	1.090
2020/01/31 04:09:00.3	92.580	-0.320	-0.090	1.080
2020/01/31 04:09:00.4	92.600	-0.300	-0.160	1.080
2020/01/31 04:09:00.5	92.620	-0.280	-0.230	1.070
2020/01/31 04:09:00.6	92.630	-0.260	-0.300	1.070
2020/01/31 04:09:00.7	92.640	-0.240	-0.360	1.070
2020/01/31 04:09:00.8	92.660	-0.210	-0.420	1.080
2020/01/31 04:09:00.9	92.660	-0.190	-0.470	1.080
2020/01/31 04:09:01.0	92.670	-0.160	-0.520	1.100
2020/01/31 04:09:01.1	92.680	-0.140	-0.560	1.120
2020/01/31 04:09:01.2	92.680	-0.110	-0.600	1.140
2020/01/31 04:09:01.3	92.680	-0.090	-0.630	1.160
2020/01/31 04:09:01.4	92.680	-0.070	-0.650	1.180
2020/01/31 04:09:01.5	92.670	-0.050	-0.660	1.210
2020/01/31 04:09:01.6	92.670	-0.030	-0.670	1.240
2020/01/31 04:09:01.7	92.660	-0.020	-0.670	1.270
2020/01/31 04:09:01.8	92.650	-0.000	-0.670	1.300
2020/01/31 04:09:01.9	92.640	0.010	-0.660	1.330
2020/01/31 04:09:02.0	92.630	0.020	-0.650	1.370
2020/01/31 04:09:02.1	92.620	0.030	-0.630	1.400
2020/01/31 04:09:02.2	92.600	0.030	-0.610	1.430
2020/01/31 04:09:02.3	92.590	0.040	-0.590	1.460
2020/01/31 04:09:02.4	92.580	0.040	-0.560	1.480
2020/01/31 04:09:02.5	92.560	0.040	-0.540	1.510
2020/01/31 04:09:02.6	92.550	0.040	-0.510	1.530
2020/01/31 04:09:02.7	92.540	0.030	-0.480	1.550
2020/01/31 04:09:02.8	92.520	0.030	-0.460	1.570
2020/01/31 04:09:02.9	92.510	0.020	-0.430	1.590
2020/01/31 04:09:03.0	92.500	0.020	-0.400	1.600
2020/01/31 04:09:03.1	92.500	0.010	-0.380	1.610
2020/01/31 04:09:03.2	92.490	-0.000	-0.350	1.620
2020/01/31 04:09:03.3	92.480	-0.010	-0.330	1.630
2020/01/31 04:09:03.4	92.470	-0.020	-0.310	1.630
2020/01/31 04:09:03.5	92.460	-0.030	-0.290	1.630
2020/01/31 04:09:03.6	92.440	-0.050	-0.270	1.630
2020/01/31 04:09:03.7	92.430	-0.060	-0.260	1.630
2020/01/31 04:09:03.8	92.410	-0.070	-0.240	1.630
2020/01/31 04:09:03.9	92.400	-0.090	-0.220	1.620
2020/01/31 04:09:04.0	92.380	-0.100	-0.210	1.610
2020/01/31 04:09:04.1	92.370	-0.120	-0.190	1.600
2020/01/31 04:09:04.2	92.350	-0.130	-0.180	1.580
2020/01/31 04:09:04.3	92.340	-0.150	-0.160	1.570
2020/01/31 04:09:04.4	92.320	-0.160	-0.150	1.550
2020/01/31 04:09:04.5	92.310	-0.180	-0.130	1.520
2020/01/31 04:09:04.6	92.290	-0.190	-0.120	1.490
2020/01/31 04:09:04.7	92.280	-0.210	-0.110	1.460
2020/01/31 04:09:04.8	92.260	-0.220	-0.090	1.430
2020/01/31 04:09:04.9	92.250	-0.230	-0.080	1.390
2020/01/31 04:09:05.0	92.240	-0.250	-0.070	1.350
2020/01/31 04:09:05.1	92.230	-0.260	-0.050	1.300
2020/01/31 04:09:05.2	92.220	-0.270	-0.040	1.250
2020/01/31 04:09:05.3	92.220	-0.280	-0.030	1.200
2020/01/31 04:09:05.4	92.210	-0.290	-0.020	1.150
2020/01/31 04:09:05.5	92.210	-0.290	-0.010	1.090
2020/01/31 04:09:05.6	92.210	-0.290	-0.010	1.030
2020/01/31 04:09:05.7	92.210	-0.300	-0.000	0.970
2020/01/31 04:09:05.8	92.220	-0.290	0.000	0.910
2020/01/31 04:09:05.9	92.220	-0.290	0.000	0.850
2020/01/31 04:09:06.0	92.230	-0.280	-0.000	0.790
2020/01/31 04:09:06.1	92.240	-0.280	-0.010	0.720
2020/01/31 04:09:06.2	92.250	-0.270	-0.010	0.660
2020/01/31 04:09:06.3	92.260	-0.250	-0.020	0.600
2020/01/31 04:09:06.4	92.270	-0.230	-0.040	0.550
2020/01/31 04:09:06.5	92.280	-0.220	-0.050	0.500
2020/01/31 04:09:06.6	92.290	-0.190	-0.070	0.450
2020/01/31 04:09:06.7	92.300	-0.170	-0.090	0.410
2020/01/31 04:09:06.8	92.310	-0.140	-0.120	0.370
2020/01/31 04:09:06.9	92.310	-0.120	-0.140	0.340
2020/01/31 04:09:07.0	92.320	-0.090	-0.170	0.310
2020/01/31 04:09:07.1	92.310	-0.050	-0.200	0.280
2020/01/31 04:09:07.2	92.310	-0.020	-0.230	0.270
2020/01/31 04:09:07.3	92.310	0.010	-0.260	0.250
2020/01/31 04:09:07.4	92.300	0.040	-0.290	0.240
2020/01/31 04:09:07.5	92.300	0.080	-0.330	0.230
2020/01/31 04:09:07.6	92.300	0.110	-0.360	0.230
2020/01/31 04:09:07.7	92.290	0.140	-0.390	0.230
2020/01/31 04:09:07.8	92.280	0.170	-0.420	0.230
2020/01/31 04:09:07.9	92.280	0.200	-0.450	0.230
2020/01/31 04:09:08.0	92.270	0.230	-0.480	0.240
2020/01/31 04:09:08.1	92.260	0.250	-0.510	0.240
2020/01/31 04:09:08.2	92.250	0.280	-0.540	0.250
2020/01/31 04:09:08.3	92.240	0.300	-0.560	0.270
2020/01/31 04:09:08.4	92.230	0.320	-0.570	0.280
2020/01/31 04:09:08.5	92.220	0.330	-0.590	0.300
2020/01/31 04:09:08.6	92.210	0.350	-0.600	0.310
2020/01/31 04:09:08.7	92.200	0.350	-0.610	0.330
2020/01/31 04:09:08.8	92.190	0.360	-0.610	0.350
2020/01/31 04:09:08.9	92.180	0.360	-0.610	0.370
2020/01/31 04:09:09.0	92.170	0.360	-0.610	0.390
2020/01/31 04:09:09.1	92.170	0.360	-0.600	0.410
2020/01/31 04:09:09.2	92.160	0.360	-0.580	0.430
2020/01/31 04:09:09.3	92.150	0.350	-0.570	0.440
2020/01/31 04:09:09.4	92.140	0.330	-0.550	0.460
2020/01/31 04:09:09.5	92.140	0.320	-0.530	0.480
2020/01/31 04:09:09.6	92.130	0.300	-0.510	0.490
2020/01/31 04:09:09.7	92.130	0.290	-0.480	0.510
2020/01/31 04:09:09.8	92.130	0.260	-0.450	0.520
2020/01/31 04:09:09.9	92.130	0.240	-0.420	0.540
2020/01/31 04:09:10.0	92.130	0.220	-0.390	0.550
2020/01/31 04:09:10.1	92.130	0.190	-0.360	0.560
2020/01/31 04:09:10.2	92.140	0.170	-0.330	0.570
2020/01/31 04:09:10.3	92.140	0.140	-0.300	0.580
2020/01/31 04:09:10.4	92.150	0.120	-0.260	0.580
2020/01/31 04:09:10.5	92.160	0.090	-0.230	0.590
2020/01/31 04:09:10.6	92.170	0.070	-0.200	0.600
2020/01/31 04:09:10.7	92.190	0.050	-0.170	0.610
2020/01/31 04:09:10.8	92.200	0.020	-0.130	0.620
2020/01/31 04:09:10.9	92.220	0.000	-0.100	0.630
2020/01/31 04:09:11.0	92.230	-0.020	-0.070	0.640
2020/01/31 04:09:11.1	92.240	-0.030	-0.040	0.640
2020/01/31 04:09:11.2	92.260	-0.050	-0.010	0.660
2020/01/31 04:09:11.3	92.270	-0.060	0.010	0.670
2020/01/31 04:09:11.4	92.280	-0.070	0.040	0.690
2020/01/31 04:09:11.5	92.300	-0.080	0.060	0.700
2020/01/31 04:09:11.6	92.310	-0.090	0.080	0.720
2020/01/31 04:09:11.7	92.320	-0.090	0.100	0.740
2020/01/31 04:09:11.8	92.330	-0.090	0.110	0.760
2020/01/31 04:09:11.9	92.340	-0.090	0.130	0.780
2020/01/31 04:09:12.0	92.350	-0.090	0.130	0.800
2020/01/31 04:09:12.1	92.360	-0.080	0.140	0.820
2020/01/31 04:09:12.2	92.370	-0.070	0.140	0.840
2020/01/31 04:09:12.3	92.370	-0.060	0.140	0.860
2020/01/31 04:09:12.4	92.370	-0.040	0.130	0.880
2020/01/31 04:09:12.5	92.370	-0.030	0.130	0.900
2020/01/31 04:09:12.6	92.380	-0.010	0.110	0.920
2020/01/31 04:09:12.7	92.380	0.010	0.100	0.940
2020/01/31 04:09:12.8	92.380	0.030	0.080	0.950
2020/01/31 04:09:12.9	92.380	0.050	0.060	0.970
2020/01/31 04:09:13.0	92.380	0.070	0.040	0.980
2020/01/31 04:09:13.1	92.400	0.090	0.010	0.990
2020/01/31 04:09:13.2	92.400	0.110	-0.010	1.000
2020/01/31 04:09:13.3	92.400	0.130	-0.030	1.010
2020/01/31 04:09:13.4	92.400	0.150	-0.060	1.020
2020/01/31 04:09:13.5	92.400	0.160	-0.080	1.020
2020/01/31 04:09:13.6	92.400	0.180	-0.100	1.030
2020/01/31 04:09:13.7	92.400	0.190	-0.120	1.030
2020/01/31 04:09:13.8	92.410	0.200	-0.140	1.040
2020/01/31 04:09:13.9	92.410	0.210	-0.160	1.040
2020/01/31 04:09:14.0	92.410	0.220	-0.170	1.050
2020/01/31 04:09:14.1	92.410	0.220	-0.180	1.050
2020/01/31 04:09:14.2	92.420	0.220	-0.190	1.050
2020/01/31 04:09:14.3	92.420	0.220	-0.200	1.050
2020/01/31 04:09:14.4	92.420	0.210	-0.200	1.050
2020/01/31 04:09:14.5	92.430	0.200	-0.200	1.050
2020/01/31 04:09:14.6	92.430	0.190	-0.190	1.050
2020/01/31 04:09:14.7	92.440	0.180	-0.180	1.040
2020/01/31 04:09:14.8	92.450	0.170	-0.170	1.040
2020/01/31 04:09:14.9	92.460	0.150	-0.160	1.030
2020/01/31 04:09:15.0	92.460	0.130	-0.150	1.020
2020/01/31 04:09:15.1	92.460	0.110	-0.130	1.010
2020/01/31 04:09:15.2	92.460	0.090	-0.120	0.990
2020/01/31 04:09:15.3	92.470	0.060	-0.100	0.980
2020/01/31 04:09:15.4	92.480	0.040	-0.090	0.960
2020/01/31 04:09:15.5	92.490	0.020	-0.070	0.940
2020/01/31 04:09:15.6	92.500	-0.010	-0.060	0.920
2020/01/31 04:09:15.7	92.510	-0.030	-0.050	0.900
2020/01/31 04:09:15.8	92.520	-0.050	-0.050	0.870
2020/01/31 04:09:15.9	92.530	-0.070	-0.050	0.850
2020/01/31 04:09:16.0	92.540	-0.090	-0.050	0.820
2020/01/31 04:09:16.1	92.540	-0.100	-0.060	0.800
2020/01/31 04:09:16.2	92.550	-0.120	-0.070	0.770
2020/01/31 04:09:16.3	92.550	-0.130	-0.080	0.750
2020/01/31 04:09:16.4	92.560	-0.130	-0.100	0.730
2020/01/31 04:09:16.5	92.560	-0.140	-0.130	0.710
2020/01/31 04:09:16.6	92.560	-0.140	-0.150	0.690
2020/01/31 04:09:16.7	92.560	-0.140	-0.190	0.680
2020/01/31 04:09:16.8	92.560	-0.130	-0.220	0.660
2020/01/31 04:09:16.9	92.560	-0.120	-0.260	0.650
2020/01/31 04:09:17.0	92.560	-0.110	-0.300	0.640
2020/01/31 04:09:17.1	92.550	-0.100	-0.350	0.630
2020/01/31 04:09:17.2	92.540	-0.080	-0.390	0.630
2020/01/31 04:09:17.3	92.540	-0.060	-0.440	0.630
2020/01/31 04:09:17.4	92.530	-0.040	-0.490	0.630
2020/01/31 04:09:17.5	92.520	-0.010	-0.540	0.630
2020/01/31 04:09:17.6	92.510	0.010	-0.580	0.640
2020/01/31 04:09:17.7	92.500	0.040	-0.630	0.650
2020/01/31 04:09:17.8	92.480	0.060	-0.670	0.660
2020/01/31 04:09:17.9	92.470	0.090	-0.710	0.670
2020/01/31 04:09:18.0	92.460	0.120	-0.750	0.680
2020/01/31 04:09:18.1	92.450	0.140	-0.780	0.700
2020/01/31 04:09:18.2	92.440	0.170	-0.810	0.710
2020/01/31 04:09:18.3	92.430	0.190	-0.840	0.730
2020/01/31 04:09:18.4	92.410	0.210	-0.860	0.750
2020/01/31 04:09:18.5	92.400	0.230	-0.870	0.760
2020/01/31 04:09:18.6	92.390	0.250	-0.880	0.770
2020/01/31 04:09:18.7	92.380	0.270	-0.880	0.790
2020/01/31 04:09:18.8	92.360	0.280	-0.880	0.800
2020/01/31 04:09:18.9	92.350	0.290	-0.870	0.810
2020/01/31 04:09:19.0	92.340	0.300	-0.860	0.820
2020/01/31 04:09:19.1	92.330	0.300	-0.840	0.830
2020/01/31 04:09:19.2	92.320	0.300	-0.820	0.830
2020/01/31 04:09:19.3	92.310	0.300	-0.790	0.840
2020/01/31 04:09:19.4	92.300	0.290	-0.750	0.850
2020/01/31 04:09:19.5	92.300	0.280	-0.710	0.850
2020/01/31 04:09:19.6	92.290	0.270	-0.660	0.860
2020/01/31 04:09:19.7	92.290	0.250	-0.610	0.860
2020/01/31 04:09:19.8	92.280	0.230	-0.560	0.870
2020/01/31 04:09:19.9	92.280	0.210	-0.500	0.880
2020/01/31 04:09:20.0	92.280	0.180	-0.430	0.880
2020/01/31 04:09:20.1	92.290	0.150	-0.360	0.890
2020/01/31 04:09:20.2	92.280	0.120	-0.290	0.900
2020/01/31 04:09:20.3	92.280	0.080	-0.220	0.910
2020/01/31 04:09:20.4	92.280	0.050	-0.140	0.920
2020/01/31 04:09:20.5	92.280	0.000	-0.060	0.930
2020/01/31 04:09:20.6	92.280	-0.040	0.010	0.930
2020/01/31 04:09:20.7	92.280	-0.080	0.090	0.940
2020/01/31 04:09:20.8	92.290	-0.130	0.170	0.950
2020/01/31 04:09:20.9	92.290	-0.170	0.240	0.960
2020/01/31 04:09:21.0	92.290	-0.220	0.320	0.960
2020/01/31 04:09:21.1	92.310	-0.270	0.390	0.970
2020/01/31 04:09:21.2	92.310	-0.310	0.450	0.970
2020/01/31 04:09:21.3	92.320	-0.360	0.510	0.970
2020/01/31 04:09:21.4	92.330	-0.410	0.570	0.970
2020/01/31 04:09:21.5	92.340	-0.450	0.620	0.960
2020/01/31 04:09:21.6	92.350	-0.490	0.660	0.950
2020/01/31 04:09:21.7	92.360	-0.530	0.690	0.940
2020/01/31 04:09:21.8	92.370	-0.560	0.720	0.930
2020/01/31 04:09:21.9	92.380	-0.600	0.740	0.920
2020/01/31 04:09:22.0	92.390	-0.630	0.750	0.900
2020/01/31 04:09:22.1	92.400	-0.650	0.750	0.880
2020/01/31 04:09:22.2	92.420	-0.670	0.740	0.860
2020/01/31 04:09:22.3	92.430	-0.690	0.720	0.840
2020/01/31 04:09:22.4	92.440	-0.700	0.690	0.820
2020/01/31 04:09:22.5	92.460	-0.700	0.650	0.790
2020/01/31 04:09:22.6	92.470	-0.710	0.610	0.770
2020/01/31 04:09:22.7	92.490	-0.700	0.560	0.740
2020/01/31 04:09:22.8	92.510	-0.700	0.500	0.720
2020/01/31 04:09:22.9	92.520	-0.680	0.430	0.700
2020/01/31 04:09:23.0	92.540	-0.670	0.360	0.670
2020/01/31 04:09:23.1	92.550	-0.650	0.280	0.650
2020/01/31 04:09:23.2	92.570	-0.620	0.200	0.630
2020/01/31 04:09:23.3	92.580	-0.590	0.120	0.620
2020/01/31 04:09:23.4	92.600	-0.560	0.040	0.610
2020/01/31 04:09:23.5	92.610	-0.530	-0.050	0.590
2020/01/31 04:09:23.6	92.630	-0.490	-0.130	0.590
2020/01/31 04:09:23.7	92.640	-0.450	-0.220	0.580
2020/01/31 04:09:23.8	92.650	-0.410	-0.300	0.580
2020/01/31 04:09:23.9	92.670	-0.370	-0.380	0.570
2020/01/31 04:09:24.0	92.680	-0.330	-0.450	0.570
2020/01/31 04:09:24.1	92.690	-0.290	-0.520	0.580
2020/01/31 04:09:24.2	92.700	-0.250	-0.590	0.580
2020/01/31 04:09:24.3	92.710	-0.200	-0.650	0.580
2020/01/31 04:09:24.4	92.720	-0.160	-0.710	0.590
2020/01/31 04:09:24.5	92.720	-0.120	-0.760	0.590
2020/01/31 04:09:24.6	92.730	-0.080	-0.800	0.600
2020/01/31 04:09:24.7	92.730	-0.050	-0.830	0.600
2020/01/31 04:09:24.8	92.730	-0.010	-0.860	0.600
2020/01/31 04:09:24.9	92.720	0.020	-0.890	0.610
2020/01/31 04:09:25.0	92.720	0.050	-0.900	0.610
2020/01/31 04:09:25.1	92.720	0.080	-0.920	0.610
2020/01/31 04:09:25.2	92.710	0.110	-0.920	0.610
2020/01/31 04:09:25.3	92.690	0.130	-0.910	0.620
2020/01/31 04:09:25.4	92.680	0.160	-0.910	0.620
2020/01/31 04:09:25.5	92.660	0.180	-0.890	0.620
2020/01/31 04:09:25.6	92.640	0.190	-0.870	0.630
2020/01/31 04:09:25.7	92.620	0.210	-0.850	0.630
2020/01/31 04:09:25.8	92.600	0.230	-0.820	0.640
2020/01/31 04:09:25.9	92.570	0.240	-0.790	0.640
2020/01/31 04:09:26.0	92.550	0.250	-0.760	0.650
2020/01/31 04:09:26.1	92.530	0.260	-0.720	0.660
2020/01/31 04:09:26.2	92.500	0.270	-0.680	0.660
2020/01/31 04:09:26.3	92.470	0.280	-0.640	0.670
2020/01/31 04:09:26.4	92.440	0.290	-0.610	0.670
2020/01/31 04:09:26.5	92.410	0.300	-0.570	0.680
2020/01/31 04:09:26.6	92.380	0.300	-0.530	0.680
2020/01/31 04:09:26.7	92.350	0.310	-0.500	0.680
2020/01/31 04:09:26.8	92.320	0.320	-0.460	0.690
2020/01/31 04:09:26.9	92.300	0.320	-0.430	0.690
2020/01/31 04:09:27.0	92.270	0.330	-0.400	0.690
2020/01/31 04:09:27.1	92.250	0.330	-0.370	0.690
2020/01/31 04:09:27.2	92.220	0.340	-0.340	0.700
2020/01/31 04:09:27.3	92.200	0.340	-0.310	0.700
2020/01/31 04:09:27.4	92.170	0.340	-0.290	0.710
2020/01/31 04:09:27.5	92.150	0.350	-0.260	0.710
2020/01/31 04:09:27.6	92.130	0.350	-0.240	0.720
2020/01/31 04:09:27.7	92.100	0.350	-0.210	0.730
2020/01/31 04:09:27.8	92.080	0.350	-0.190	0.740
2020/01/31 04:09:27.9	92.060	0.350	-0.170	0.750
2020/01/31 04:09:28.0	92.040	0.350	-0.150	0.760
2020/01/31 04:09:28.1	92.020	0.350	-0.120	0.770
2020/01/31 04:09:28.2	92.000	0.340	-0.100	0.770
2020/01/31 04:09:28.3	91.980	0.340	-0.080	0.780
2020/01/31 04:09:28.4	91.970	0.330	-0.050	0.780
2020/01/31 04:09:28.5	91.960	0.320	-0.030	0.780
2020/01/31 04:09:28.6	91.950	0.310	-0.010	0.780
2020/01/31 04:09:28.7	91.940	0.300	0.010	0.770
2020/01/31 04:09:28.8	91.930	0.290	0.030	0.760
2020/01/31 04:09:28.9	91.930	0.280	0.050	0.750
2020/01/31 04:09:29.0	91.930	0.270	0.070	0.730
2020/01/31 04:09:29.1	91.930	0.260	0.080	0.710
2020/01/31 04:09:29.2	91.940	0.240	0.090	0.680
2020/01/31 04:09:29.3	91.950	0.230	0.100	0.650
2020/01/31 04:09:29.4	91.960	0.220	0.110	0.620
2020/01/31 04:09:29.5	91.970	0.200	0.120	0.590
2020/01/31 04:09:29.6	91.980	0.190	0.120	0.550
2020/01/31 04:09:29.7	92.000	0.180	0.120	0.520
2020/01/31 04:09:29.8	92.020	0.170	0.110	0.480
2020/01/31 04:09:29.9	92.040	0.160	0.100	0.450
2020/01/31 04:09:30.0	92.050	0.150	0.090	0.420
2020/01/31 04:09:30.1	92.080	0.140	0.080	0.390
2020/01/31 04:09:30.2	92.090	0.140	0.060	0.370
2020/01/31 04:09:30.3	92.110	0.130	0.040	0.350
2020/01/31 04:09:30.4	92.130	0.130	0.010	0.330
2020/01/31 04:09:30.5	92.150	0.130	-0.020	0.320
2020/01/31 04:09:30.6	92.170	0.130	-0.050	0.320
2020/01/31 04:09:30.7	92.180	0.140	-0.080	0.320
2020/01/31 04:09:30.8	92.200	0.140	-0.110	0.330
2020/01/31 04:09:30.9	92.210	0.150	-0.150	0.340
2020/01/31 04:09:31.0	92.220	0.160	-0.180	0.360
2020/01/31 04:09:31.1	92.230	0.160	-0.220	0.380
2020/01/31 04:09:31.2	92.240	0.170	-0.250	0.410
2020/01/31 04:09:31.3	92.250	0.180	-0.290	0.440
2020/01/31 04:09:31.4	92.250	0.190	-0.320	0.470
2020/01/31 04:09:31.5	92.260	0.200	-0.350	0.500
2020/01/31 04:09:31.6	92.260	0.200	-0.370	0.540
2020/01/31 04:09:31.7	92.260	0.210	-0.390	0.570
2020/01/31 04:09:31.8	92.260	0.220	-0.420	0.610
2020/01/31 04:09:31.9	92.270	0.220	-0.430	0.650
2020/01/31 04:09:32.0	92.270	0.220	-0.450	0.680
2020/01/31 04:09:32.1	92.270	0.220	-0.460	0.720
2020/01/31 04:09:32.2	92.270	0.220	-0.460	0.750
2020/01/31 04:09:32.3	92.270	0.220	-0.470	0.790
2020/01/31 04:09:32.4	92.270	0.210	-0.470	0.830
2020/01/31 04:09:32.5	92.270	0.200	-0.470	0.860
2020/01/31 04:09:32.6	92.260	0.190	-0.470	0.900
2020/01/31 04:09:32.7	92.260	0.180	-0.460	0.930
2020/01/31 04:09:32.8	92.250	0.170	-0.450	0.970
2020/01/31 04:09:32.9	92.250	0.150	-0.440	1.010
2020/01/31 04:09:33.0	92.250	0.140	-0.430	1.040
2020/01/31 04:09:33.1	92.240	0.120	-0.410	1.090
2020/01/31 04:09:33.2	92.240	0.100	-0.390	1.120
2020/01/31 04:09:33.3	92.240	0.080	-0.370	1.160
2020/01/31 04:09:33.4	92.230	0.050	-0.350	1.190
2020/01/31 04:09:33.5	92.230	0.030	-0.330	1.220
2020/01/31 04:09:33.6	92.230	0.010	-0.310	1.250
2020/01/31 04:09:33.7	92.230	-0.020	-0.290	1.280
2020/01/31 04:09:33.8	92.230	-0.040	-0.270	1.310
2020/01/31 04:09:33.9	92.230	-0.060	-0.240	1.330
2020/01/31 04:09:34.0	92.230	-0.090	-0.220	1.350
2020/01/31 04:09:34.1	92.230	-0.110	-0.190	1.370
2020/01/31 04:09:34.2	92.220	-0.140	-0.160	1.380
2020/01/31 04:09:34.3	92.220	-0.160	-0.140	1.390
2020/01/31 04:09:34.4	92.220	-0.180	-0.110	1.400
2020/01/31 04:09:34.5	92.220	-0.200	-0.080	1.400
2020/01/31 04:09:34.6	92.210	-0.220	-0.050	1.410
2020/01/31 04:09:34.7	92.210	-0.240	-0.030	1.410
2020/01/31 04:09:34.8	92.200	-0.260	0.000	1.400
2020/01/31 04:09:34.9	92.200	-0.280	0.030	1.400
2020/01/31 04:09:35.0	92.190	-0.300	0.060	1.390
2020/01/31 04:09:35.1	92.180	-0.310	0.090	1.380
2020/01/31 04:09:35.2	92.170	-0.330	0.120	1.370
2020/01/31 04:09:35.3	92.160	-0.340	0.140	1.360
2020/01/31 04:09:35.4	92.160	-0.360	0.170	1.350
2020/01/31 04:09:35.5	92.150	-0.370	0.190	1.340
2020/01/31 04:09:35.6	92.140	-0.380	0.210	1.320
2020/01/31 04:09:35.7	92.140	-0.390	0.230	1.300
2020/01/31 04:09:35.8	92.130	-0.400	0.250	1.290
2020/01/31 04:09:35.9	92.130	-0.410	0.260	1.270
2020/01/31 04:09:36.0	92.130	-0.420	0.270	1.250
2020/01/31 04:09:36.1	92.120	-0.420	0.280	1.220
2020/01/31 04:09:36.2	92.120	-0.430	0.280	1.200
2020/01/31 04:09:36.3	92.130	-0.440	0.280	1.170
2020/01/31 04:09:36.4	92.130	-0.440	0.270	1.150
2020/01/31 04:09:36.5	92.140	-0.440	0.260	1.120
2020/01/31 04:09:36.6	92.150	-0.440	0.240	1.090
2020/01/31 04:09:36.7	92.160	-0.440	0.220	1.060
2020/01/31 04:09:36.8	92.170	-0.440	0.200	1.030
2020/01/31 04:09:36.9	92.180	-0.440	0.170	1.000
2020/01/31 04:09:37.0	92.190	-0.440	0.130	0.960
2020/01/31 04:09:37.1	92.200	-0.430	0.090	0.930
2020/01/31 04:09:37.2	92.210	-0.430	0.050	0.890
2020/01/31 04:09:37.3	92.220	-0.420	0.010	0.860
2020/01/31 04:09:37.4	92.240	-0.410	-0.040	0.830
2020/01/31 04:09:37.5	92.250	-0.390	-0.100	0.800
2020/01/31 04:09:37.6	92.260	-0.380	-0.150	0.770
2020/01/31 04:09:37.7	92.270	-0.360	-0.210	0.740
2020/01/31 04:09:37.8	92.280	-0.340	-0.270	0.720
2020/01/31 04:09:37.9	92.290	-0.320	-0.330	0.700
2020/01/31 04:09:38.0	92.300	-0.300	-0.380	0.680
2020/01/31 04:09:38.1	92.310	-0.270	-0.440	0.670
2020/01/31 04:09:38.2	92.310	-0.250	-0.500	0.660
2020/01/31 04:09:38.3	92.310	-0.220	-0.550	0.650
2020/01/31 04:09:38.4	92.310	-0.190	-0.610	0.650
2020/01/31 04:09:38.5	92.310	-0.160	-0.660	0.650
2020/01/31 04:09:38.6	92.310	-0.130	-0.710	0.650
2020/01/31 04:09:38.7	92.310	-0.100	-0.750	0.650
2020/01/31 04:09:38.8	92.310	-0.070	-0.790	0.660
2020/01/31 04:09:38.9	92.300	-0.040	-0.830	0.670
2020/01/31 04:09:39.0	92.300	-0.010	-0.860	0.680
2020/01/31 04:09:39.1	92.290	0.010	-0.900	0.690
2020/01/31 04:09:39.2	92.290	0.040	-0.920	0.700
2020/01/31 04:09:39.3	92.280	0.070	-0.940	0.720
2020/01/31 04:09:39.4	92.280	0.090	-0.960	0.730
2020/01/31 04:09:39.5	92.270	0.110	-0.970	0.740
2020/01/31 04:09:39.6	92.260	0.130	-0.970	0.750
2020/01/31 04:09:39.7	92.260	0.140	-0.970	0.770
2020/01/31 04:09:39.8	92.250	0.160	-0.970	0.780
2020/01/31 04:09:39.9	92.240	0.170	-0.960	0.790
2020/01/31 04:09:40.0	92.230	0.170	-0.940	0.800
2020/01/31 04:09:40.1	92.230	0.180	-0.920	0.810
2020/01/31 04:09:40.2	92.210	0.180	-0.890	0.820
2020/01/31 04:09:40.3	92.200	0.170	-0.860	0.830
2020/01/31 04:09:40.4	92.190	0.170	-0.820	0.840
2020/01/31 04:09:40.5	92.170	0.160	-0.770	0.850
2020/01/31 04:09:40.6	92.160	0.150	-0.720	0.860
2020/01/31 04:09:40.7	92.140	0.130	-0.670	0.860
2020/01/31 04:09:40.8	92.120	0.120	-0.610	0.870
2020/01/31 04:09:40.9	92.100	0.100	-0.550	0.880
2020/01/31 04:09:41.0	92.080	0.080	-0.490	0.880
2020/01/31 04:09:41.1	92.070	0.060	-0.420	0.890
2020/01/31 04:09:41.2	92.050	0.040	-0.350	0.900
2020/01/31 04:09:41.3	92.030	0.020	-0.280	0.900
2020/01/31 04:09:41.4	92.010	-0.000	-0.210	0.910
2020/01/31 04:09:41.5	91.990	-0.030	-0.140	0.910
2020/01/31 04:09:41.6	91.970	-0.050	-0.080	0.920
2020/01/31 04:09:41.7	91.950	-0.070	-0.010	0.920
2020/01/31 04:09:41.8	91.940	-0.080	0.050	0.920
2020/01/31 04:09:41.9	91.920	-0.100	0.110	0.920
2020/01/31 04:09:42.0	91.910	-0.120	0.160	0.920
2020/01/31 04:09:42.1	91.920	-0.130	0.220	0.910
2020/01/31 04:09:42.2	91.910	-0.140	0.260	0.900
2020/01/31 04:09:42.3	91.910	-0.140	0.290	0.890
2020/01/31 04:09:42.4	91.910	-0.140	0.320	0.880
2020/01/31 04:09:42.5	91.920	-0.140	0.340	0.860
2020/01/31 04:09:42.6	91.920	-0.140	0.350	0.840
2020/01/31 04:09:42.7	91.940	-0.130	0.350	0.810
2020/01/31 04:09:42.8	91.960	-0.120	0.340	0.780
2020/01/31 04:09:42.9	91.980	-0.100	0.330	0.750
2020/01/31 04:09:43.0	92.000	-0.080	0.310	0.720
2020/01/31 04:09:43.1	92.030	-0.060	0.280	0.690
2020/01/31 04:09:43.2	92.060	-0.040	0.250	0.650
2020/01/31 04:09:43.3	92.090	-0.010	0.210	0.620
2020/01/31 04:09:43.4	92.130	0.020	0.160	0.580
2020/01/31 04:09:43.5	92.160	0.050	0.110	0.550
2020/01/31 04:09:43.6	92.200	0.080	0.060	0.510
2020/01/31 04:09:43.7	92.230	0.120	0.010	0.480
2020/01/31 04:09:43.8	92.260	0.150	-0.050	0.460
2020/01/31 04:09:43.9	92.290	0.180	-0.100	0.430
2020/01/31 04:09:44.0	92.310	0.210	-0.160	0.410
2020/01/31 04:09:44.1	92.340	0.240	-0.210	0.380
2020/01/31 04:09:44.2	92.360	0.270	-0.260	0.360
2020/01/31 04:09:44.3	92.380	0.300	-0.310	0.350
2020/01/31 04:09:44.4	92.390	0.320	-0.350	0.330
2020/01/31 04:09:44.5	92.400	0.340	-0.390	0.320
2020/01/31 04:09:44.6	92.410	0.360	-0.420	0.310
2020/01/31 04:09:44.7	92.410	0.380	-0.450	0.300
2020/01/31 04:09:44.8	92.410	0.390	-0.470	0.290
2020/01/31 04:09:44.9	92.400	0.390	-0.490	0.290
2020/01/31 04:09:45.0	92.400	0.400	-0.500	0.280
2020/01/31 04:09:45.1	92.370	0.400	-0.500	0.280
2020/01/31 04:09:45.2	92.350	0.390	-0.500	0.290
2020/01/31 04:09:45.3	92.330	0.390	-0.490	0.290
2020/01/31 04:09:45.4	92.310	0.380	-0.470	0.300
2020/01/31 04:09:45.5	92.290	0.360	-0.450	0.310
2020/01/31 04:09:45.6	92.270	0.350	-0.430	0.320
2020/01/31 04:09:45.7	92.250	0.330	-0.400	0.340
2020/01/31 04:09:45.8	92.220	0.300	-0.360	0.360
2020/01/31 04:09:45.9	92.200	0.280	-0.330	0.370
2020/01/31 04:09:46.0	92.170	0.250	-0.290	0.390
2020/01/31 04:09:46.1	92.160	0.220	-0.240	0.410
2020/01/31 04:09:46.2	92.140	0.200	-0.190	0.430
2020/01/31 04:09:46.3	92.120	0.170	-0.150	0.450
2020/01/31 04:09:46.4	92.100	0.130	-0.100	0.470
2020/01/31 04:09:46.5	92.090	0.100	-0.050	0.490
2020/01/31 04:09:46.6	92.070	0.070	-0.010	0.510
2020/01/31 04:09:46.7	92.060	0.040	0.040	0.530
2020/01/31 04:09:46.8	92.050	0.020	0.080	0.550
2020/01/31 04:09:46.9	92.050	-0.010	0.120	0.570
2020/01/31 04:09:47.0	92.040	-0.040	0.160	0.590
2020/01/31 04:09:47.1	92.040	-0.060	0.200	0.610
2020/01/31 04:09:47.2	92.040	-0.080	0.230	0.620
2020/01/31 04:09:47.3	92.040	-0.100	0.250	0.640
2020/01/31 04:09:47.4	92.050	-0.120	0.280	0.650
2020/01/31 04:09:47.5	92.060	-0.130	0.290	0.670
2020/01/31 04:09:47.6	92.070	-0.140	0.300	0.680
2020/01/31 04:09:47.7	92.080	-0.150	0.310	0.690
2020/01/31 04:09:47.8	92.090	-0.150	0.310	0.700
2020/01/31 04:09:47.9	92.100	-0.160	0.300	0.710
2020/01/31 04:09:48.0	92.110	-0.160	0.290	0.730
2020/01/31 04:09:48.1	92.120	-0.150	0.270	0.740
2020/01/31 04:09:48.2	92.130	-0.140	0.240	0.750
2020/01/31 04:09:48.3	92.140	-0.130	0.210	0.760
2020/01/31 04:09:48.4	92.150	-0.120	0.170	0.770
2020/01/31 04:09:48.5	92.160	-0.110	0.130	0.780
2020/01/31 04:09:48.6	92.160	-0.090	0.080	0.790
2020/01/31 04:09:48.7	92.170	-0.070	0.020	0.800
2020/01/31 04:09:48.8	92.170	-0.050	-0.040	0.810
2020/01/31 04:09:48.9	92.180	-0.030	-0.100	0.820
2020/01/31 04:09:49.0	92.180	-0.000	-0.170	0.820
2020/01/31 04:09:49.1	92.190	0.020	-0.240	0.830
2020/01/31 04:09:49.2	92.190	0.050	-0.310	0.830
2020/01/31 04:09:49.3	92.190	0.070	-0.370	0.830
2020/01/31 04:09:49.4	92.190	0.100	-0.440	0.830
2020/01/31 04:09:49.5	92.180	0.120	-0.510	0.830
2020/01/31 04:09:49.6	92.180	0.140	-0.570	0.830
2020/01/31 04:09:49.7	92.180	0.170	-0.630	0.830
2020/01/31 04:09:49.8	92.180	0.190	-0.680	0.830
2020/01/31 04:09:49.9	92.170	0.200	-0.730	0.830
2020/01/31 04:09:50.0	92.170	0.220	-0.780	0.830
2020/01/31 04:09:50.1	92.160	0.230	-0.810	0.820
2020/01/31 04:09:50.2	92.160	0.240	-0.840	0.830
2020/01/31 04:09:50.3	92.150	0.250	-0.870	0.830
2020/01/31 04:09:50.4	92.150	0.250	-0.880	0.840
2020/01/31 04:09:50.5	92.140	0.250	-0.890	0.850
2020/01/31 04:09:50.6	92.130	0.250	-0.890	0.860
2020/01/31 04:09:50.7	92.130	0.240	-0.880	0.880
2020/01/31 04:09:50.8	92.120	0.230	-0.870	0.890
2020/01/31 04:09:50.9	92.120	0.220	-0.840	0.910
2020/01/31 04:09:51.0	92.110	0.200	-0.810	0.930
2020/01/31 04:09:51.1	92.100	0.180	-0.780	0.960
2020/01/31 04:09:51.2	92.090	0.160	-0.730	0.980
2020/01/31 04:09:51.3	92.090	0.130	-0.680	1.010
2020/01/31 04:09:51.4	92.090	0.100	-0.630	1.030
2020/01/31 04:09:51.5	92.080	0.060	-0.570	1.060
2020/01/31 04:09:51.6	92.090	0.030	-0.500	1.080
2020/01/31 04:09:51.7	92.090	-0.010	-0.430	1.100
2020/01/31 04:09:51.8	92.090	-0.050	-0.360	1.130
2020/01/31 04:09:51.9	92.100	-0.090	-0.290	1.150
2020/01/31 04:09:52.0	92.110	-0.130	-0.220	1.160
2020/01/31 04:09:52.1	92.110	-0.170	-0.140	1.180
2020/01/31 04:09:52.2	92.120	-0.220	-0.070	1.190
2020/01/31 04:09:52.3	92.140	-0.260	-0.000	1.200
2020/01/31 04:09:52.4	92.160	-0.300	0.060	1.200
2020/01/31 04:09:52.5	92.180	-0.340	0.130	1.200
2020/01/31 04:09:52.6	92.200	-0.380	0.190	1.200
2020/01/31 04:09:52.7	92.230	-0.410	0.240	1.190
2020/01/31 04:09:52.8	92.250	-0.450	0.290	1.180
2020/01/31 04:09:52.9	92.280	-0.480	0.340	1.170
2020/01/31 04:09:53.0	92.300	-0.510	0.370	1.160
2020/01/31 04:09:53.1	92.330	-0.540	0.410	1.140
2020/01/31 04:09:53.2	92.350	-0.560	0.430	1.130
2020/01/31 04:09:53.3	92.370	-0.580	0.450	1.110
2020/01/31 04:09:53.4	92.390	-0.590	0.460	1.100
2020/01/31 04:09:53.5	92.410	-0.600	0.460	1.090
2020/01/31 04:09:53.6	92.430	-0.610	0.460	1.080
2020/01/31 04:09:53.7	92.440	-0.610	0.440	1.070
2020/01/31 04:09:53.8	92.460	-0.600	0.420	1.060
2020/01/31 04:09:53.9	92.470	-0.600	0.390	1.050
2020/01/31 04:09:54.0	92.470	-0.580	0.360	1.050
2020/01/31 04:09:54.1	92.480	-0.570	0.310	1.040
2020/01/31 04:09:54.2	92.480	-0.540	0.260	1.040
2020/01/31 04:09:54.3	92.480	-0.520	0.210	1.040
2020/01/31 04:09:54.4	92.470	-0.490	0.150	1.030
2020/01/31 04:09:54.5	92.470	-0.460	0.080	1.030
2020/01/31 04:09:54.6	92.470	-0.420	0.010	1.020
2020/01/31 04:09:54.7	92.460	-0.380	-0.060	1.010
2020/01/31 04:09:54.8	92.460	-0.340	-0.140	1.000
2020/01/31 04:09:54.9	92.450	-0.290	-0.220	0.990
2020/01/31 04:09:55.0	92.450	-0.250	-0.290	0.980
2020/01/31 04:09:55.1	92.430	-0.200	-0.370	0.960
2020/01/31 04:09:55.2	92.430	-0.150	-0.450	0.940
2020/01/31 04:09:55.3	92.420	-0.100	-0.530	0.920
2020/01/31 04:09:55.4	92.420	-0.050	-0.600	0.900
2020/01/31 04:09:55.5	92.410	-0.000	-0.680	0.880
2020/01/31 04:09:55.6	92.410	0.050	-0.740	0.850
2020/01/31 04:09:55.7	92.400	0.090	-0.800	0.830
2020/01/31 04:09:55.8	92.390	0.140	-0.860	0.800
2020/01/31 04:09:55.9	92.390	0.180	-0.900	0.770
2020/01/31 04:09:56.0	92.380	0.220	-0.940	0.740
2020/01/31 04:09:56.1	92.380	0.260	-0.970	0.710
2020/01/31 04:09:56.2	92.360	0.290	-0.990	0.690
2020/01/31 04:09:56.3	92.350	0.320	-1.000	0.670
2020/01/31 04:09:56.4	92.340	0.350	-0.990	0.640
2020/01/31 04:09:56.5	92.320	0.370	-0.980	0.630
2020/01/31 04:09:56.6	92.310	0.380	-0.960	0.610
2020/01/31 04:09:56.7	92.290	0.400	-0.930	0.590
2020/01/31 04:09:56.8	92.270	0.400	-0.880	0.580
2020/01/31 04:09:56.9	92.250	0.410	-0.830	0.570
2020/01/31 04:09:57.0	92.240	0.400	-0.770	0.560
2020/01/31 04:09:57.1	92.230	0.400	-0.700	0.560
2020/01/31 04:09:57.2	92.210	0.390	-0.620	0.560
2020/01/31 04:09:57.3	92.200	0.370	-0.540	0.550
2020/01/31 04:09:57.4	92.180	0.350	-0.460	0.550
2020/01/31 04:09:57.5	92.170	0.330	-0.370	0.540
2020/01/31 04:09:57.6	92.160	0.310	-0.280	0.540
2020/01/31 04:09:57.7	92.150	0.280	-0.190	0.530
2020/01/31 04:09:57.8	92.150	0.250	-0.100	0.530
2020/01/31 04:09:57.9	92.140	0.220	-0.020	0.520
2020/01/31 04:09:58.0	92.140	0.190	0.060	0.510
2020/01/31 04:09:58.1	92.140	0.150	0.140	0.490
2020/01/31 04:09:58.2	92.150	0.120	0.200	0.470
2020/01/31 04:09:58.3	92.160	0.090	0.260	0.450
2020/01/31 04:09:58.4	92.170	0.060	0.310	0.430
2020/01/31 04:09:58.5	92.190	0.030	0.350	0.410
2020/01/31 04:09:58.6	92.210	0.000	0.370	0.390
2020/01/31 04:09:58.7	92.230	-0.020	0.380	0.360
2020/01/31 04:09:58.8	92.250	-0.040	0.390	0.340
2020/01/31 04:09:58.9	92.270	-0.060	0.380	0.310
2020/01/31 04:09:59.0	92.290	-0.080	0.360	0.290
2020/01/31 04:09:59.1	92.320	-0.090	0.330	0.270
2020/01/31 04:09:59.2	92.340	-0.100	0.280	0.250
2020/01/31 04:09:59.3	92.360	-0.100	0.230	0.240
2020/01/31 04:09:59.4	92.380	-0.100	0.170	0.220
2020/01/31 04:09:59.5	92.390	-0.100	0.110	0.210
2020/01/31 04:09:59.6	92.410	-0.100	0.040	0.210
2020/01/31 04:09:59.7	92.420	-0.090	-0.040	0.210
2020/01/31 04:09:59.8	92.430	-0.080	-0.120	0.210
2020/01/31 04:09:59.9	92.440	-0.070	-0.200	0.210
2020/01/31 04:10:00.0	92.450	-0.050	-0.290	0.220
2020/01/31 04:10:00.1	92.460	-0.040	-0.370	0.230
2020/01/31 04:10:00.2	92.470	-0.020	-0.450	0.240
2020/01/31 04:10:00.3	92.470	-0.000	-0.530	0.260
2020/01/31 04:10:00.4	92.470	0.010	-0.600	0.270
2020/01/31 04:10:00.5	92.470	0.030	-0.670	0.290
2020/01/31 04:10:00.6	92.470	0.050	-0.730	0.310
2020/01/31 04:10:00.7	92.470	0.060	-0.780	0.340
2020/01/31 04:10:00.8	92.470	0.080	-0.820	0.360
2020/01/31 04:10:00.9	92.470	0.090	-0.860	0.390
2020/01/31 04:10:01.0	92.470	0.110	-0.880	0.410
2020/01/31 04:10:01.1	92.460	0.120	-0.890	0.440
2020/01/31 04:10:01.2	92.460	0.130	-0.900	0.470
2020/01/31 04:10:01.3	92.460	0.140	-0.890	0.510
2020/01/31 04:10:01.4	92.460	0.150	-0.880	0.540
2020/01/31 04:10:01.5	92.460	0.150	-0.850	0.570
2020/01/31 04:10:01.6	92.460	0.150	-0.810	0.610
2020/01/31 04:10:01.7	92.460	0.150	-0.770	0.640
2020/01/31 04:10:01.8	92.460	0.150	-0.710	0.680
2020/01/31 04:10:01.9	92.460	0.150	-0.650	0.710
2020/01/31 04:10:02.0	92.470	0.150	-0.580	0.750
2020/01/31 04:10:02.1	92.470	0.140	-0.510	0.780
2020/01/31 04:10:02.2	92.480	0.130	-0.430	0.820
2020/01/31 04:10:02.3	92.490	0.120	-0.340	0.860
2020/01/31 04:10:02.4	92.490	0.110	-0.250	0.890
2020/01/31 04:10:02.5	92.500	0.090	-0.160	0.920
2020/01/31 04:10:02.6	92.510	0.080	-0.070	0.960
2020/01/31 04:10:02.7	92.520	0.060	0.030	0.990
2020/01/31 04:10:02.8	92.530	0.040	0.120	1.020
2020/01/31 04:10:02.9	92.540	0.030	0.210	1.040
2020/01/31 04:10:03.0	92.550	0.010	0.300	1.070
2020/01/31 04:10:03.1	92.570	-0.010	0.390	1.100
2020/01/31 04:10:03.2	92.580	-0.030	0.470	1.120
2020/01/31 04:10:03.3	92.580	-0.060	0.550	1.130
2020/01/31 04:10:03.4	92.590	-0.080	0.620	1.140
2020/01/31 04:10:03.5	92.590	-0.100	0.680	1.150
2020/01/31 04:10:03.6	92.590	-0.120	0.740	1.160
2020/01/31 04:10:03.7	92.590	-0.140	0.790	1.160
2020/01/31 04:10:03.8	92.590	-0.150	0.830	1.160
2020/01/31 04:10:03.9	92.580	-0.170	0.860	1.160
2020/01/31 04:10:04.0	92.580	-0.190	0.880	1.150
2020/01/31 04:10:04.1	92.570	-0.200	0.880	1.140
2020/01/31 04:10:04.2	92.560	-0.210	0.880	1.130
2020/01/31 04:10:04.3	92.550	-0.220	0.870	1.110
2020/01/31 04:10:04.4	92.540	-0.220	0.850	1.090
2020/01/31 04:10:04.5	92.530	-0.220	0.820	1.070
2020/01/31 04:10:04.6	92.520	-0.220	0.770	1.050
2020/01/31 04:10:04.7	92.510	-0.210	0.720	1.030
2020/01/31 04:10:04.8	92.500	-0.200	0.660	1.000
2020/01/31 04:10:04.9	92.490	-0.190	0.590	0.980
2020/01/31 04:10:05.0	92.480	-0.170	0.510	0.960
2020/01/31 04:10:05.1	92.470	-0.150	0.420	0.930
2020/01/31 04:10:05.2	92.450	-0.120	0.330	0.910
2020/01/31 04:10:05.3	92.440	-0.100	0.230	0.890
2020/01/31 04:10:05.4	92.430	-0.060	0.120	0.870
2020/01/31 04:10:05.5	92.420	-0.030	0.010	0.850
2020/01/31 04:10:05.6	92.410	0.010	-0.100	0.830
2020/01/31 04:10:05.7	92.410	0.050	-0.210	0.820
2020/01/31 04:10:05.8	92.400	0.090	-0.320	0.800
2020/01/31 04:10:05.9	92.390	0.130	-0.440	0.780
2020/01/31 04:10:06.0	92.390	0.180	-0.550	0.760
2020/01/31 04:10:06.1	92.380	0.220	-0.670	0.740
2020/01/31 04:10:06.2	92.380	0.260	-0.770	0.720
2020/01/31 04:10:06.3	92.380	0.300	-0.870	0.700
2020/01/31 04:10:06.4	92.380	0.340	-0.970	0.680
2020/01/31 04:10:06.5	92.390	0.380	-1.060	0.650
2020/01/31 04:10:06.6	92.400	0.420	-1.140	0.630
2020/01/31 04:10:06.7	92.410	0.450	-1.220	0.600
2020/01/31 04:10:06.8	92.430	0.480	-1.280	0.570
2020/01/31 04:10:06.9	92.450	0.510	-1.340	0.530
2020/01/31 04:10:07.0	92.470	0.530	-1.390	0.500
2020/01/31 04:10:07.1	92.490	0.540	-1.420	0.460
2020/01/31 04:10:07.2	92.510	0.550	-1.450	0.430
2020/01/31 04:10:07.3	92.540	0.560	-1.470	0.400
2020/01/31 04:10:07.4	92.570	0.560	-1.470	0.370
2020/01/31 04:10:07.5	92.590	0.560	-1.460	0.350
2020/01/31 04:10:07.6	92.620	0.550	-1.450	0.330
2020/01/31 04:10:07.7	92.650	0.530	-1.420	0.310
2020/01/31 04:10:07.8	92.670	0.510	-1.380	0.290
2020/01/31 04:10:07.9	92.700	0.490	-1.330	0.280
2020/01/31 04:10:08.0	92.720	0.460	-1.260	0.280
2020/01/31 04:10:08.1	92.740	0.420	-1.190	0.280
2020/01/31 04:10:08.2	92.760	0.380	-1.110	0.280
2020/01/31 04:10:08.3	92.770	0.340	-1.020	0.290
2020/01/31 04:10:08.4	92.790	0.290	-0.920	0.300
2020/01/31 04:10:08.5	92.800	0.240	-0.820	0.320
2020/01/31 04:10:08.6	92.810	0.180	-0.710	0.340
2020/01/31 04:10:08.7	92.820	0.130	-0.590	0.370
2020/01/31 04:10:08.8	92.820	0.070	-0.470	0.400
2020/01/31 04:10:08.9	92.820	0.010	-0.350	0.440
2020/01/31 04:10:09.0	92.820	-0.060	-0.220	0.480
2020/01/31 04:10:09.1	92.810	-0.120	-0.100	0.520
2020/01/31 04:10:09.2	92.800	-0.180	0.030	0.560
2020/01/31 04:10:09.3	92.800	-0.250	0.150	0.600
2020/01/31 04:10:09.4	92.790	-0.310	0.260	0.640
2020/01/31 04:10:09.5	92.780	-0.370	0.380	0.690
2020/01/31 04:10:09.6	92.770	-0.430	0.480	0.730
2020/01/31 04:10:09.7	92.750	-0.490	0.580	0.770
2020/01/31 04:10:09.8	92.740	-0.550	0.670	0.800
2020/01/31 04:10:09.9	92.730	-0.600	0.750	0.840
2020/01/31 04:10:10.0	92.720	-0.650	0.820	0.870
2020/01/31 04:10:10.1	92.730	-0.700	0.880	0.900
2020/01/31 04:10:10.2	92.720	-0.740	0.930	0.930
2020/01/31 04:10:10.3	92.710	-0.780	0.970	0.960
2020/01/31 04:10:10.4	92.700	-0.810	1.000	0.980
2020/01/31 04:10:10.5	92.700	-0.840	1.010	1.000
2020/01/31 04:10:10.6	92.690	-0.860	1.010	1.020
2020/01/31 04:10:10.7	92.680	-0.880	1.000	1.040
2020/01/31 04:10:10.8	92.680	-0.890	0.980	1.060
2020/01/31 04:10:10.9	92.670	-0.900	0.950	1.080
2020/01/31 04:10:11.0	92.670	-0.910	0.910	1.090
2020/01/31 04:10:11.1	92.670	-0.910	0.860	1.110
2020/01/31 04:10:11.2	92.660	-0.900	0.800	1.120
2020/01/31 04:10:11.3	92.660	-0.890	0.730	1.130
2020/01/31 04:10:11.4	92.660	-0.870	0.650	1.150
2020/01/31 04:10:11.5	92.660	-0.850	0.570	1.160
2020/01/31 04:10:11.6	92.650	-0.830	0.490	1.170
2020/01/31 04:10:11.7	92.650	-0.800	0.390	1.170
2020/01/31 04:10:11.8	92.650	-0.770	0.300	1.170
2020/01/31 04:10:11.9	92.650	-0.730	0.200	1.170
2020/01/31 04:10:12.0	92.650	-0.700	0.100	1.160
2020/01/31 04:10:12.1	92.650	-0.650	-0.010	1.160
2020/01/31 04:10:12.2	92.650	-0.610	-0.110	1.140
2020/01/31 04:10:12.3	92.660	-0.560	-0.220	1.120
2020/01/31 04:10:12.4	92.670	-0.510	-0.320	1.090
2020/01/31 04:10:12.5	92.670	-0.460	-0.430	1.060
2020/01/31 04:10:12.6	92.680	-0.400	-0.530	1.020
2020/01/31 04:10:12.7	92.690	-0.350	-0.620	0.990
2020/01/31 04:10:12.8	92.700	-0.290	-0.720	0.950
2020/01/31 04:10:12.9	92.700	-0.230	-0.800	0.900
2020/01/31 04:10:13.0	92.710	-0.180	-0.890	0.860
2020/01/31 04:10:13.1	92.730	-0.120	-0.960	0.810
2020/01/31 04:10:13.2	92.730	-0.060	-1.030	0.760
2020/01/31 04:10:13.3	92.740	-0.000	-1.100	0.720
2020/01/31 04:10:13.4	92.740	0.050	-1.150	0.670
2020/01/31 04:10:13.5	92.750	0.110	-1.190	0.630
2020/01/31 04:10:13.6	92.760	0.160	-1.230	0.580
2020/01/31 04:10:13.7	92.760	0.210	-1.250	0.540
2020/01/31 04:10:13.8	92.770	0.260	-1.270	0.500
2020/01/31 04:10:13.9	92.770	0.310	-1.270	0.470
2020/01/31 04:10:14.0	92.770	0.350	-1.270	0.430
2020/01/31 04:10:14.1	92.770	0.390	-1.250	0.410
2020/01/31 04:10:14.2	92.770	0.430	-1.230	0.380
2020/01/31 04:10:14.3	92.770	0.470	-1.190	0.360
2020/01/31 04:10:14.4	92.770	0.500	-1.150	0.350
2020/01/31 04:10:14.5	92.770	0.530	-1.100	0.330
2020/01/31 04:10:14.6	92.770	0.550	-1.040	0.330
2020/01/31 04:10:14.7	92.770	0.570	-0.970	0.320
2020/01/31 04:10:14.8	92.770	0.590	-0.900	0.320
2020/01/31 04:10:14.9	92.770	0.600	-0.820	0.330
2020/01/31 04:10:15.0	92.770	0.610	-0.740	0.330
2020/01/31 04:10:15.1	92.770	0.620	-0.650	0.340
2020/01/31 04:10:15.2	92.770	0.620	-0.570	0.350
2020/01/31 04:10:15.3	92.760	0.620	-0.480	0.360
2020/01/31 04:10:15.4	92.760	0.620	-0.390	0.370
2020/01/31 04:10:15.5	92.750	0.610	-0.310	0.390
2020/01/31 04:10:15.6	92.740	0.600	-0.230	0.400
2020/01/31 04:10:15.7	92.740	0.590	-0.150	0.410
2020/01/31 04:10:15.8	92.730	0.570	-0.070	0.420
2020/01/31 04:10:15.9	92.720	0.560	-0.000	0.430
2020/01/31 04:10:16.0	92.710	0.540	0.060	0.430
2020/01/31 04:10:16.1	92.720	0.520	0.120	0.440
2020/01/31 04:10:16.2	92.710	0.510	0.170	0.450
2020/01/31 04:10:16.3	92.700	0.490	0.220	0.450
2020/01/31 04:10:16.4	92.690	0.470	0.250	0.450
2020/01/31 04:10:16.5	92.680	0.450	0.280	0.450
2020/01/31 04:10:16.6	92.670	0.430	0.300	0.450
2020/01/31 04:10:16.7	92.660	0.410	0.310	0.440
2020/01/31 04:10:16.8	92.660	0.390	0.320	0.440
2020/01/31 04:10:16.9	92.650	0.370	0.320	0.440
2020/01/31 04:10:17.0	92.650	0.350	0.310	0.440
2020/01/31 04:10:17.1	92.640	0.340	0.290	0.430
2020/01/31 04:10:17.2	92.630	0.320	0.270	0.430
2020/01/31 04:10:17.3	92.630	0.310	0.250	0.430
2020/01/31 04:10:17.4	92.630	0.300	0.210	0.430
2020/01/31 04:10:17.5	92.630	0.290	0.180	0.430
2020/01/31 04:10:17.6	92.630	0.280	0.140	0.430
2020/01/31 04:10:17.7	92.630	0.270	0.100	0.440
2020/01/31 04:10:17.8	92.630	0.260	0.060	0.440
2020/01/31 04:10:17.9	92.630	0.260	0.020	0.450
2020/01/31 04:10:18.0	92.630	0.250	-0.030	0.450
2020/01/31 04:10:18.1	92.640	0.240	-0.070	0.460
2020/01/31 04:10:18.2	92.650	0.240	-0.110	0.470
2020/01/31 04:10:18.3	92.650	0.230	-0.150	0.480
2020/01/31 04:10:18.4	92.660	0.220	-0.180	0.490
2020/01/31 04:10:18.5	92.660	0.210	-0.210	0.500
2020/01/31 04:10:18.6	92.670	0.200	-0.230	0.510
2020/01/31 04:10:18.7	92.680	0.190	-0.260	0.520
2020/01/31 04:10:18.8	92.690	0.180	-0.270	0.530
2020/01/31 04:10:18.9	92.690	0.170	-0.280	0.540
2020/01/31 04:10:19.0	92.700	0.150	-0.290	0.550
2020/01/31 04:10:19.1	92.690	0.130	-0.290	0.560
2020/01/31 04:10:19.2	92.700	0.110	-0.290	0.580
2020/01/31 04:10:19.3	92.720	0.090	-0.280	0.600
2020/01/31 04:10:19.4	92.730	0.070	-0.270	0.610
2020/01/31 04:10:19.5	92.740	0.040	-0.250	0.630
2020/01/31 04:10:19.6	92.750	0.010	-0.230	0.650
2020/01/31 04:10:19.7	92.770	-0.020	-0.200	0.680
2020/01/31 04:10:19.8	92.780	-0.050	-0.180	0.700
2020/01/31 04:10:19.9	92.790	-0.080	-0.140	0.720
2020/01/31 04:10:20.0	92.810	-0.120	-0.110	0.750
2020/01/31 04:10:20.1	92.830	-0.150	-0.080	0.770
2020/01/31 04:10:20.2	92.840	-0.190	-0.040	0.800
2020/01/31 04:10:20.3	92.860	-0.220	0.000	0.820
2020/01/31 04:10:20.4	92.870	-0.260	0.040	0.840
2020/01/31 04:10:20.5	92.880	-0.300	0.080	0.870
2020/01/31 04:10:20.6	92.900	-0.340	0.120	0.890
2020/01/31 04:10:20.7	92.910	-0.380	0.160	0.920
2020/01/31 04:10:20.8	92.920	-0.410	0.190	0.940
2020/01/31 04:10:20.9	92.930	-0.450	0.230	0.970
2020/01/31 04:10:21.0	92.940	-0.480	0.260	0.990
2020/01/31 04:10:21.1	92.940	-0.510	0.280	1.010
2020/01/31 04:10:21.2	92.950	-0.540	0.300	1.040
2020/01/31 04:10:21.3	92.960	-0.570	0.320	1.060
2020/01/31 04:10:21.4	92.970	-0.600	0.330	1.080
2020/01/31 04:10:21.5	92.970	-0.620	0.340	1.100
2020/01/31 04:10:21.6	92.980	-0.640	0.340	1.120
2020/01/31 04:10:21.7	92.980	-0.660	0.340	1.130
2020/01/31 04:10:21.8	92.980	-0.670	0.330	1.150
2020/01/31 04:10:21.9	92.980	-0.680	0.310	1.160
2020/01/31 04:10:22.0	92.980	-0.680	0.290	1.170
2020/01/31 04:10:22.1	92.980	-0.690	0.260	1.190
2020/01/31 04:10:22.2	92.980	-0.680	0.220	1.190
2020/01/31 04:10:22.3	92.970	-0.680	0.180	1.190
2020/01/31 04:10:22.4	92.970	-0.670	0.130	1.190
2020/01/31 04:10:22.5	92.960	-0.660	0.070	1.190
2020/01/31 04:10:22.6	92.960	-0.640	0.010	1.180
2020/01/31 04:10:22.7	92.950	-0.620	-0.050	1.170
2020/01/31 04:10:22.8	92.950	-0.590	-0.120	1.160
2020/01/31 04:10:22.9	92.940	-0.560	-0.200	1.140
2020/01/31 04:10:23.0	92.940	-0.530	-0.280	1.130
2020/01/31 04:10:23.1	92.930	-0.490	-0.360	1.100
2020/01/31 04:10:23.2	92.920	-0.450	-0.440	1.080
2020/01/31 04:10:23.3	92.920	-0.410	-0.530	1.060
2020/01/31 04:10:23.4	92.910	-0.360	-0.620	1.040
2020/01/31 04:10:23.5	92.910	-0.310	-0.700	1.020
2020/01/31 04:10:23.6	92.910	-0.260	-0.790	0.990
2020/01/31 04:10:23.7	92.900	-0.210	-0.870	0.970
2020/01/31 04:10:23.8	92.900	-0.150	-0.950	0.940
2020/01/31 04:10:23.9	92.900	-0.090	-1.020	0.920
2020/01/31 04:10:24.0	92.900	-0.030	-1.090	0.900
2020/01/31 04:10:24.1	92.900	0.020	-1.150	0.880
2020/01/31 04:10:24.2	92.900	0.080	-1.200	0.860
2020/01/31 04:10:24.3	92.900	0.140	-1.240	0.840
2020/01/31 04:10:24.4	92.890	0.200	-1.280	0.820
2020/01/31 04:10:24.5	92.890	0.250	-1.300	0.810
2020/01/31 04:10:24.6	92.890	0.300	-1.310	0.790
2020/01/31 04:10:24.7	92.890	0.350	-1.320	0.780
2020/01/31 04:10:24.8	92.890	0.400	-1.310	0.760
2020/01/31 04:10:24.9	92.880	0.440	-1.290	0.750
2020/01/31 04:10:25.0	92.880	0.480	-1.260	0.740
2020/01/31 04:10:25.1	92.880	0.510	-1.220	0.720
2020/01/31 04:10:25.2	92.880	0.540	-1.170	0.710
2020/01/31 04:10:25.3	92.880	0.560	-1.110	0.690
2020/01/31 04:10:25.4	92.880	0.580	-1.040	0.680
2020/01/31 04:10:25.5	92.870	0.590	-0.970	0.670
2020/01/31 04:10:25.6	92.870	0.590	-0.890	0.650
2020/01/31 04:10:25.7	92.870	0.600	-0.800	0.640
2020/01/31 04:10:25.8	92.870	0.590	-0.710	0.620
2020/01/31 04:10:25.9	92.870	0.590	-0.620	0.610
2020/01/31 04:10:26.0	92.870	0.570	-0.520	0.590
2020/01/31 04:10:26.1	92.870	0.560	-0.420	0.580
2020/01/31 04:10:26.2	92.870	0.540	-0.330	0.570
2020/01/31 04:10:26.3	92.860	0.510	-0.230	0.550
2020/01/31 04:10:26.4	92.860	0.490	-0.140	0.540
2020/01/31 04:10:26.5	92.860	0.460	-0.060	0.530
2020/01/31 04:10:26.6	92.850	0.430	0.030	0.530
2020/01/31 04:10:26.7	92.850	0.390	0.100	0.520
2020/01/31 04:10:26.8	92.850	0.360	0.180	0.510
2020/01/31 04:10:26.9	92.840	0.330	0.240	0.510
2020/01/31 04:10:27.0	92.830	0.300	0.300	0.500
2020/01/31 04:10:27.1	92.820	0.260	0.350	0.500
2020/01/31 04:10:27.2	92.820	0.230	0.390	0.500
2020/01/31 04:10:27.3	92.810	0.200	0.430	0.500
2020/01/31 04:10:27.4	92.800	0.170	0.450	0.500
2020/01/31 04:10:27.5	92.800	0.150	0.470	0.500
2020/01/31 04:10:27.6	92.790	0.120	0.480	0.500
2020/01/31 04:10:27.7	92.790	0.100	0.490	0.500
2020/01/31 04:10:27.8	92.780	0.080	0.480	0.500
2020/01/31 04:10:27.9	92.780	0.070	0.470	0.500
2020/01/31 04:10:28.0	92.780	0.050	0.460	0.490
2020/01/31 04:10:28.1	92.790	0.040	0.440	0.490
2020/01/31 04:10:28.2	92.790	0.030	0.410	0.490
2020/01/31 04:10:28.3	92.790	0.020	0.380	0.480
2020/01/31 04:10:28.4	92.800	0.020	0.350	0.480
2020/01/31 04:10:28.5	92.800	0.010	0.320	0.480
2020/01/31 04:10:28.6	92.810	0.010	0.280	0.480
2020/01/31 04:10:28.7	92.820	0.000	0.240	0.480
2020/01/31 04:10:28.8	92.820	0.000	0.200	0.480
2020/01/31 04:10:28.9	92.830	-0.000	0.170	0.490
2020/01/31 04:10:29.0	92.830	-0.010	0.130	0.490
2020/01/31 04:10:29.1	92.850	-0.010	0.090	0.500
2020/01/31 04:10:29.2	92.850	-0.010	0.060	0.510
2020/01/31 04:10:29.3	92.860	-0.020	0.020	0.520
2020/01/31 04:10:29.4	92.860	-0.030	-0.010	0.520
2020/01/31 04:10:29.5	92.870	-0.030	-0.040	0.530
2020/01/31 04:10:29.6	92.870	-0.040	-0.070	0.540
2020/01/31 04:10:29.7	92.880	-0.050	-0.100	0.560
2020/01/31 04:10:29.8	92.880	-0.060	-0.130	0.570
2020/01/31 04:10:29.9	92.880	-0.080	-0.150	0.580
2020/01/31 04:10:30.0	92.890	-0.090	-0.170	0.590
2020/01/31 04:10:30.1	92.880	-0.110	-0.190	0.600
2020/01/31 04:10:30.2	92.880	-0.130	-0.210	0.610
2020/01/31 04:10:30.3	92.890	-0.140	-0.220	0.620
2020/01/31 04:10:30.4	92.890	-0.170	-0.230	0.630
2020/01/31 04:10:30.5	92.890	-0.190	-0.230	0.630
2020/01/31 04:10:30.6	92.900	-0.210	-0.240	0.640
2020/01/31 04:10:30.7	92.900	-0.230	-0.230	0.650
2020/01/31 04:10:30.8	92.900	-0.260	-0.230	0.660
2020/01/31 04:10:30.9	92.900	-0.280	-0.220	0.670
2020/01/31 04:10:31.0	92.910	-0.310	-0.210	0.680
2020/01/31 04:10:31.1	92.910	-0.330	-0.190	0.690
2020/01/31 04:10:31.2	92.910	-0.350	-0.170	0.700
2020/01/31 04:10:31.3	92.910	-0.380	-0.150	0.710
2020/01/31 04:10:31.4	92.910	-0.400	-0.130	0.720
2020/01/31 04:10:31.5	92.910	-0.420	-0.110	0.740
2020/01/31 04:10:31.6	92.910	-0.440	-0.090	0.750
2020/01/31 04:10:31.7	92.910	-0.450	-0.060	0.770
2020/01/31 04:10:31.8	92.910	-0.460	-0.040	0.780
2020/01/31 04:10:31.9	92.920	-0.480	-0.030	0.800
2020/01/31 04:10:32.0	92.920	-0.480	-0.010	0.820
2020/01/31 04:10:32.1	92.900	-0.490	0.000	0.840
2020/01/31 04:10:32.2	92.900	-0.490	0.010	0.850
2020/01/31 04:10:32.3	92.900	-0.480	0.010	0.870
2020/01/31 04:10:32.4	92.910	-0.470	0.010	0.890
2020/01/31 04:10:32.5	92.910	-0.460	-0.000	0.900
2020/01/31 04:10:32.6	92.910	-0.440	-0.020	0.920
2020/01/31 04:10:32.7	92.920	-0.420	-0.050	0.930
2020/01/31 04:10:32.8	92.930	-0.390	-0.080	0.940
2020/01/31 04:10:32.9	92.930	-0.360	-0.120	0.950
2020/01/31 04:10:33.0	92.940	-0.320	-0.170	0.960
2020/01/31 04:10:33.1	92.950	-0.270	-0.230	0.970
2020/01/31 04:10:33.2	92.960	-0.230	-0.290	0.980
2020/01/31 04:10:33.3	92.960	-0.170	-0.360	0.980
2020/01/31 04:10:33.4	92.970	-0.120	-0.430	0.990
2020/01/31 04:10:33.5	92.970	-0.060	-0.500	1.000
2020/01/31 04:10:33.6	92.980	0.000	-0.580	1.010
2020/01/31 04:10:33.7	92.980	0.070	-0.660	1.020
2020/01/31 04:10:33.8	92.980	0.130	-0.740	1.030
2020/01/31 04:10:33.9	92.970	0.200	-0.810	1.050
2020/01/31 04:10:34.0	92.960	0.260	-0.880	1.070
2020/01/31 04:10:34.1	92.960	0.320	-0.950	1.090
2020/01/31 04:10:34.2	92.950	0.380	-1.010	1.110
2020/01/31 04:10:34.3	92.930	0.440	-1.060	1.140
2020/01/31 04:10:34.4	92.910	0.500	-1.110	1.160
2020/01/31 04:10:34.5	92.890	0.550	-1.140	1.180
2020/01/31 04:10:34.6	92.870	0.590	-1.160	1.210
2020/01/31 04:10:34.7	92.840	0.630	-1.170	1.230
2020/01/31 04:10:34.8	92.810	0.670	-1.170	1.250
2020/01/31 04:10:34.9	92.780	0.690	-1.160	1.270
2020/01/31 04:10:35.0	92.750	0.720	-1.140	1.290
2020/01/31 04:10:35.1	92.720	0.730	-1.100	1.310
2020/01/31 04:10:35.2	92.690	0.740	-1.060	1.320
2020/01/31 04:10:35.3	92.660	0.740	-1.000	1.330
2020/01/31 04:10:35.4	92.620	0.730	-0.930	1.340
2020/01/31 04:10:35.5	92.590	0.720	-0.860	1.340
2020/01/31 04:10:35.6	92.560	0.700	-0.770	1.330
2020/01/31 04:10:35.7	92.530	0.680	-0.680	1.330
2020/01/31 04:10:35.8	92.500	0.640	-0.580	1.320
2020/01/31 04:10:35.9	92.470	0.610	-0.470	1.300
2020/01/31 04:10:36.0	92.440	0.560	-0.360	1.280
2020/01/31 04:10:36.1	92.410	0.520	-0.250	1.250
2020/01/31 04:10:36.2	92.380	0.460	-0.140	1.220
2020/01/31 04:10:36.3	92.370	0.410	-0.020	1.190
2020/01/31 04:10:36.4	92.350	0.350	0.090	1.150
2020/01/31 04:10:36.5	92.340	0.290	0.200	1.110
2020/01/31 04:10:36.6	92.330	0.230	0.310	1.070
2020/01/31 04:10:36.7	92.330	0.170	0.410	1.020
2020/01/31 04:10:36.8	92.330	0.100	0.500	0.970
2020/01/31 04:10:36.9	92.330	0.040	0.590	0.920
2020/01/31 04:10:37.0	92.340	-0.020	0.670	0.870
2020/01/31 04:10:37.1	92.350	-0.080	0.750	0.810
2020/01/31 04:10:37.2	92.370	-0.140	0.820	0.760
2020/01/31 04:10:37.3	92.390	-0.190	0.870	0.700
2020/01/31 04:10:37.4	92.420	-0.240	0.920	0.650
2020/01/31 04:10:37.5	92.440	-0.290	0.950	0.600
2020/01/31 04:10:37.6	92.480	-0.340	0.980	0.550
2020/01/31 04:10:37.7	92.510	-0.380	0.990	0.510
2020/01/31 04:10:37.8	92.540	-0.410	0.990	0.460
2020/01/31 04:10:37.9	92.580	-0.450	0.980	0.420
2020/01/31 04:10:38.0	92.610	-0.470	0.970	0.380
2020/01/31 04:10:38.1	92.650	-0.500	0.930	0.350
2020/01/31 04:10:38.2	92.690	-0.520	0.890	0.320
2020/01/31 04:10:38.3	92.720	-0.530	0.840	0.300
2020/01/31 04:10:38.4	92.750	-0.540	0.780	0.270
2020/01/31 04:10:38.5	92.780	-0.540	0.720	0.250
2020/01/31 04:10:38.6	92.800	-0.540	0.640	0.240
2020/01/31 04:10:38.7	92.830	-0.540	0.560	0.220
2020/01/31 04:10:38.8	92.850	-0.530	0.460	0.210
2020/01/31 04:10:38.9	92.860	-0.520	0.370	0.210
2020/01/31 04:10:39.0	92.870	-0.500	0.260	0.200
2020/01/31 04:10:39.1	92.880	-0.480	0.160	0.200
2020/01/31 04:10:39.2	92.890	-0.450	0.050	0.200
2020/01/31 04:10:39.3	92.890	-0.430	-0.070	0.210
2020/01/31 04:10:39.4	92.880	-0.400	-0.180	0.210
2020/01/31 04:10:39.5	92.880	-0.360	-0.300	0.220
2020/01/31 04:10:39.6	92.870	-0.330	-0.410	0.230
2020/01/31 04:10:39.7	92.860	-0.290	-0.530	0.250
2020/01/31 04:10:39.8	92.850	-0.250	-0.640	0.260
2020/01/31 04:10:39.9	92.840	-0.210	-0.740	0.280
2020/01/31 04:10:40.0	92.820	-0.160	-0.850	0.310
2020/01/31 04:10:40.1	92.820	-0.120	-0.950	0.330
2020/01/31 04:10:40.2	92.800	-0.080	-1.040	0.360
2020/01/31 04:10:40.3	92.780	-0.040	-1.120	0.390
2020/01/31 04:10:40.4	92.750	0.010	-1.200	0.430
2020/01/31 04:10:40.5	92.730	0.050	-1.260	0.460
2020/01/31 04:10:40.6	92.700	0.090	-1.320	0.500
2020/01/31 04:10:40.7	92.680	0.130	-1.370	0.550
2020/01/31 04:10:40.8	92.650	0.170	-1.410	0.590
2020/01/31 04:10:40.9	92.630	0.200	-1.430	0.640
2020/01/31 04:10:41.0	92.600	0.230	-1.450	0.680
2020/01/31 04:10:41.1	92.560	0.260	-1.460	0.730
2020/01/31 04:10:41.2	92.540	0.290	-1.460	0.780
2020/01/31 04:10:41.3	92.520	0.310	-1.450	0.830
2020/01/31 04:10:41.4	92.500	0.330	-1.420	0.880
2020/01/31 04:10:41.5	92.490	0.350	-1.390	0.930
2020/01/31 04:10:41.6	92.470	0.370	-1.350	0.980
2020/01/31 04:10:41.7	92.450	0.380	-1.300	1.030
2020/01/31 04:10:41.8	92.440	0.380	-1.240	1.090
2020/01/31 04:10:41.9	92.430	0.380	-1.180	1.140
2020/01/31 04:10:42.0	92.420	0.380	-1.100	1.180
2020/01/31 04:10:42.1	92.390	0.380	-1.020	1.240
2020/01/31 04:10:42.2	92.380	0.370	-0.930	1.280
2020/01/31 04:10:42.3	92.370	0.360	-0.840	1.320
2020/01/31 04:10:42.4	92.370	0.340	-0.750	1.350
2020/01/31 04:10:42.5	92.360	0.320	-0.650	1.380
2020/01/31 04:10:42.6	92.360	0.290	-0.550	1.410
2020/01/31 04:10:42.7	92.350	0.260	-0.440	1.430
2020/01/31 04:10:42.8	92.340	0.230	-0.340	1.440
2020/01/31 04:10:42.9	92.340	0.190	-0.230	1.450
2020/01/31 04:10:43.0	92.330	0.150	-0.120	1.450
2020/01/31 04:10:43.1	92.330	0.110	-0.020	1.440
2020/01/31 04:10:43.2	92.320	0.070	0.080	1.420
2020/01/31 04:10:43.3	92.320	0.020	0.180	1.400
2020/01/31 04:10:43.4	92.320	-0.020	0.280	1.380
2020/01/31 04:10:43.5	92.310	-0.070	0.370	1.350
2020/01/31 04:10:43.6	92.310	-0.120	0.460	1.310
2020/01/31 04:10:43.7	92.310	-0.170	0.540	1.280
2020/01/31 04:10:43.8	92.300	-0.220	0.610	1.240
2020/01/31 04:10:43.9	92.300	-0.260	0.680	1.190
2020/01/31 04:10:44.0	92.300	-0.310	0.740	1.150
2020/01/31 04:10:44.1	92.310	-0.350	0.790	1.100
2020/01/31 04:10:44.2	92.310	-0.390	0.830	1.050
2020/01/31 04:10:44.3	92.310	-0.420	0.860	1.000
2020/01/31 04:10:44.4	92.310	-0.450	0.880	0.960
2020/01/31 04:10:44.5	92.310	-0.480	0.890	0.910
2020/01/31 04:10:44.6	92.310	-0.500	0.890	0.860
2020/01/31 04:10:44.7	92.310	-0.520	0.880	0.820
2020/01/31 04:10:44.8	92.320	-0.530	0.850	0.770
2020/01/31 04:10:44.9	92.320	-0.540	0.820	0.730
2020/01/31 04:10:45.0	92.330	-0.540	0.780	0.690
2020/01/31 04:10:45.1	92.340	-0.530	0.730	0.650
2020/01/31 04:10:45.2	92.350	-0.520	0.670	0.610
2020/01/31 04:10:45.3	92.360	-0.500	0.600	0.570
2020/01/31 04:10:45.4	92.380	-0.470	0.520	0.530
2020/01/31 04:10:45.5	92.390	-0.450	0.440	0.490
2020/01/31 04:10:45.6	92.400	-0.410	0.350	0.460
2020/01/31 04:10:45.7	92.420	-0.370	0.260	0.420
2020/01/31 04:10:45.8	92.440	-0.330	0.160	0.380
2020/01/31 04:10:45.9	92.460	-0.280	0.060	0.350
2020/01/31 04:10:46.0	92.480	-0.230	-0.030	0.310
2020/01/31 04:10:46.1	92.490	-0.180	-0.140	0.280
2020/01/31 04:10:46.2	92.510	-0.120	-0.230	0.250
2020/01/31 04:10:46.3	92.530	-0.070	-0.330	0.210
2020/01/31 04:10:46.4	92.550	-0.010	-0.420	0.190
2020/01/31 04:10:46.5	92.570	0.050	-0.500	0.160
2020/01/31 04:10:46.6	92.590	0.110	-0.580	0.130
2020/01/31 04:10:46.7	92.610	0.160	-0.650	0.110
2020/01/31 04:10:46.8	92.630	0.220	-0.720	0.090
2020/01/31 04:10:46.9	92.640	0.270	-0.780	0.070
2020/01/31 04:10:47.0	92.660	0.320	-0.830	0.050
2020/01/31 04:10:47.1	92.670	0.370	-0.870	0.030
2020/01/31 04:10:47.2	92.680	0.420	-0.910	0.020
2020/01/31 04:10:47.3	92.690	0.460	-0.930	0.010
2020/01/31 04:10:47.4	92.690	0.490	-0.940	0.000
2020/01/31 04:10:47.5	92.700	0.520	-0.940	-0.000
2020/01/31 04:10:47.6	92.700	0.550	-0.940	-0.000
2020/01/31 04:10:47.7	92.700	0.570	-0.920	-0.000
2020/01/31 04:10:47.8	92.700	0.580	-0.900	0.000
2020/01/31 04:10:47.9	92.700	0.590	-0.860	0.010
2020/01/31 04:10:48.0	92.700	0.600	-0.830	0.030
2020/01/31 04:10:48.1	92.690	0.600	-0.770	0.040
2020/01/31 04:10:48.2	92.690	0.590	-0.720	0.060
2020/01/31 04:10:48.3	92.690	0.580	-0.660	0.080
2020/01/31 04:10:48.4	92.680	0.570	-0.600	0.100
2020/01/31 04:10:48.5	92.670	0.550	-0.540	0.130
2020/01/31 04:10:48.6	92.670	0.520	-0.470	0.150
2020/01/31 04:10:48.7	92.660	0.500	-0.400	0.180
2020/01/31 04:10:48.8	92.650	0.460	-0.330	0.210
2020/01/31 04:10:48.9	92.650	0.430	-0.260	0.240
2020/01/31 04:10:49.0	92.640	0.390	-0.190	0.280
2020/01/31 04:10:49.1	92.630	0.350	-0.120	0.310
2020/01/31 04:10:49.2	92.620	0.310	-0.060	0.340
2020/01/31 04:10:49.3	92.620	0.270	0.000	0.380
2020/01/31 04:10:49.4	92.620	0.230	0.060	0.420
2020/01/31 04:10:49.5	92.610	0.180	0.110	0.450
2020/01/31 04:10:49.6	92.610	0.140	0.160	0.490
2020/01/31 04:10:49.7	92.610	0.100	0.200	0.530
2020/01/31 04:10:49.8	92.610	0.060	0.240	0.570
2020/01/31 04:10:49.9	92.610	0.020	0.270	0.610
2020/01/31 04:10:50.0	92.610	-0.020	0.290	0.650
2020/01/31 04:10:50.1	92.610	-0.050	0.300	0.680
2020/01/31 04:10:50.2	92.610	-0.090	0.310	0.720
2020/01/31 04:10:50.3	92.610	-0.120	0.310	0.760
2020/01/31 04:10:50.4	92.610	-0.140	0.300	0.790
2020/01/31 04:10:50.5	92.610	-0.160	0.280	0.820
2020/01/31 04:10:50.6	92.610	-0.180	0.250	0.850
2020/01/31 04:10:50.7	92.610	-0.190	0.220	0.880
2020/01/31 04:10:50.8	92.610	-0.200	0.180	0.910
2020/01/31 04:10:50.9	92.620	-0.210	0.140	0.930
2020/01/31 04:10:51.0	92.620	-0.210	0.080	0.950
2020/01/31 04:10:51.1	92.630	-0.210	0.020	0.970
2020/01/31 04:10:51.2	92.640	-0.200	-0.030	0.990
2020/01/31 04:10:51.3	92.640	-0.190	-0.100	1.000
2020/01/31 04:10:51.4	92.650	-0.180	-0.160	1.010
2020/01/31 04:10:51.5	92.660	-0.170	-0.230	1.020
2020/01/31 04:10:51.6	92.670	-0.150	-0.290	1.020
2020/01/31 04:10:51.7	92.680	-0.140	-0.350	1.030
2020/01/31 04:10:51.8	92.690	-0.120	-0.410	1.030
2020/01/31 04:10:51.9	92.700	-0.100	-0.470	1.040
2020/01/31 04:10:52.0	92.710	-0.090	-0.520	1.040
2020/01/31 04:10:52.1	92.720	-0.070	-0.570	1.050
2020/01/31 04:10:52.2	92.730	-0.060	-0.610	1.050
2020/01/31 04:10:52.3	92.730	-0.040	-0.650	1.060
2020/01/31 04:10:52.4	92.740	-0.030	-0.680	1.070
2020/01/31 04:10:52.5	92.740	-0.020	-0.700	1.080
2020/01/31 04:10:52.6	92.740	-0.010	-0.710	1.090
2020/01/31 04:10:52.7	92.740	-0.010	-0.720	1.110
2020/01/31 04:10:52.8	92.740	-0.010	-0.720	1.120
2020/01/31 04:10:52.9	92.740	-0.010	-0.720	1.130
2020/01/31 04:10:53.0	92.740	-0.010	-0.710	1.140
2020/01/31 04:10:53.1	92.730	-0.020	-0.690	1.160
2020/01/31 04:10:53.2	92.730	-0.030	-0.660	1.170
2020/01/31 04:10:53.3	92.730	-0.040	-0.630	1.180
2020/01/31 04:10:53.4	92.730	-0.060	-0.600	1.190
2020/01/31 04:10:53.5	92.720	-0.080	-0.560	1.190
2020/01/31 04:10:53.6	92.720	-0.100	-0.520	1.190
2020/01/31 04:10:53.7	92.710	-0.120	-0.470	1.190
2020/01/31 04:10:53.8	92.710	-0.140	-0.420	1.190
2020/01/31 04:10:53.9	92.700	-0.170	-0.370	1.180
2020/01/31 04:10:54.0	92.700	-0.190	-0.320	1.170
2020/01/31 04:10:54.1	92.710	-0.220	-0.270	1.160
2020/01/31 04:10:54.2	92.700	-0.250	-0.210	1.140
2020/01/31 04:10:54.3	92.700	-0.280	-0.160	1.130
2020/01/31 04:10:54.4	92.690	-0.300	-0.120	1.110
2020/01/31 04:10:54.5	92.690	-0.330	-0.070	1.090
2020/01/31 04:10:54.6	92.690	-0.350	-0.020	1.060
2020/01/31 04:10:54.7	92.690	-0.370	0.020	1.040
2020/01/31 04:10:54.8	92.680	-0.400	0.060	1.020
2020/01/31 04:10:54.9	92.680	-0.410	0.090	0.990
2020/01/31 04:10:55.0	92.680	-0.430	0.120	0.970
2020/01/31 04:10:55.1	92.680	-0.440	0.140	0.940
2020/01/31 04:10:55.2	92.680	-0.450	0.160	0.920
2020/01/31 04:10:55.3	92.680	-0.460	0.180	0.890
2020/01/31 04:10:55.4	92.670	-0.460	0.190	0.870
2020/01/31 04:10:55.5	92.670	-0.460	0.200	0.850
2020/01/31 04:10:55.6	92.670	-0.450	0.200	0.830
2020/01/31 04:10:55.7	92.660	-0.450	0.190	0.810
2020/01/31 04:10:55.8	92.660	-0.430	0.180	0.790
2020/01/31 04:10:55.9	92.660	-0.420	0.170	0.770
2020/01/31 04:10:56.0	92.660	-0.400	0.150	0.750
2020/01/31 04:10:56.1	92.650	-0.380	0.130	0.730
2020/01/31 04:10:56.2	92.650	-0.350	0.100	0.710
2020/01/31 04:10:56.3	92.650	-0.320	0.060	0.690
2020/01/31 04:10:56.4	92.650	-0.290	0.030	0.670
2020/01/31 04:10:56.5	92.650	-0.260	-0.020	0.650
2020/01/31 04:10:56.6	92.650	-0.220	-0.060	0.630
2020/01/31 04:10:56.7	92.650	-0.180	-0.110	0.610
2020/01/31 04:10:56.8	92.650	-0.140	-0.160	0.580
2020/01/31 04:10:56.9	92.660	-0.090	-0.210	0.560
2020/01/31 04:10:57.0	92.660	-0.050	-0.260	0.530
2020/01/31 04:10:57.1	92.670	-0.000	-0.320	0.500
2020/01/31 04:10:57.2	92.670	0.040	-0.380	0.470
2020/01/31 04:10:57.3	92.680	0.090	-0.430	0.440
2020/01/31 04:10:57.4	92.680	0.130	-0.480	0.410
2020/01/31 04:10:57.5	92.680	0.180	-0.530	0.380
2020/01/31 04:10:57.6	92.680	0.220	-0.570	0.350
2020/01/31 04:10:57.7	92.680	0.260	-0.610	0.320
2020/01/31 04:10:57.8	92.680	0.300	-0.650	0.290
2020/01/31 04:10:57.9	92.690	0.340	-0.680	0.260
2020/01/31 04:10:58.0	92.690	0.370	-0.710	0.240
2020/01/31 04:10:58.1	92.680	0.410	-0.730	0.210
2020/01/31 04:10:58.2	92.680	0.440	-0.740	0.190
2020/01/31 04:10:58.3	92.690	0.460	-0.740	0.170
2020/01/31 04:10:58.4	92.690	0.480	-0.740	0.160
2020/01/31 04:10:58.5	92.690	0.500	-0.740	0.140
2020/01/31 04:10:58.6	92.690	0.510	-0.720	0.130
2020/01/31 04:10:58.7	92.690	0.520	-0.700	0.130
2020/01/31 04:10:58.8	92.690	0.530	-0.680	0.120
2020/01/31 04:10:58.9	92.690	0.530	-0.640	0.120
2020/01/31 04:10:59.0	92.690	0.530	-0.600	0.120
2020/01/31 04:10:59.1	92.680	0.530	-0.560	0.120
2020/01/31 04:10:59.2	92.680	0.520	-0.510	0.130
2020/01/31 04:10:59.3	92.680	0.510	-0.460	0.140
2020/01/31 04:10:59.4	92.680	0.500	-0.410	0.150
2020/01/31 04:10:59.5	92.680	0.480	-0.350	0.170
2020/01/31 04:10:59.6	92.680	0.460	-0.290	0.180
2020/01/31 04:10:59.7	92.680	0.440	-0.230	0.200
2020/01/31 04:10:59.8	92.680	0.420	-0.170	0.220
2020/01/31 04:10:59.9	92.680	0.390	-0.100	0.230
2020/01/31 04:11:00.0	92.680	0.370	-0.050	0.250
2020/01/31 04:11:00.1	92.670	0.340	0.010	0.280
2020/01/31 04:11:00.2	92.670	0.320	0.070	0.300
2020/01/31 04:11:00.3	92.680	0.290	0.120	0.320
2020/01/31 04:11:00.4	92.680	0.270	0.160	0.340
2020/01/31 04:11:00.5	92.680	0.250	0.200	0.360
2020/01/31 04:11:00.6	92.690	0.220	0.240	0.380
2020/01/31 04:11:00.7	92.700	0.200	0.270	0.390
2020/01/31 04:11:00.8	92.710	0.180	0.290	0.410
2020/01/31 04:11:00.9	92.720	0.160	0.300	0.420
2020/01/31 04:11:01.0	92.740	0.150	0.310	0.440
2020/01/31 04:11:01.1	92.760	0.130	0.310	0.450
2020/01/31 04:11:01.2	92.770	0.120	0.300	0.470
2020/01/31 04:11:01.3	92.790	0.110	0.290	0.480
2020/01/31 04:11:01.4	92.810	0.100	0.270	0.500
2020/01/31 04:11:01.5	92.830	0.090	0.240	0.520
2020/01/31 04:11:01.6	92.850	0.080	0.210	0.540
2020/01/31 04:11:01.7	92.870	0.070	0.180	0.560
2020/01/31 04:11:01.8	92.890	0.070	0.140	0.580
2020/01/31 04:11:01.9	92.910	0.070	0.090	0.600
2020/01/31 04:11:02.0	92.920	0.060	0.050	0.630
2020/01/31 04:11:02.1	92.950	0.060	0.000	0.660
2020/01/31 04:11:02.2	92.960	0.050	-0.050	0.690
2020/01/31 04:11:02.3	92.970	0.050	-0.090	0.720
2020/01/31 04:11:02.4	92.980	0.050	-0.140	0.760
2020/01/31 04:11:02.5	92.980	0.040	-0.190	0.790
2020/01/31 04:11:02.6	92.990	0.040	-0.230	0.820
2020/01/31 04:11:02.7	92.990	0.030	-0.270	0.850
2020/01/31 04:11:02.8	92.990	0.020	-0.310	0.880
2020/01/31 04:11:02.9	92.990	0.020	-0.350	0.910
2020/01/31 04:11:03.0	92.990	0.010	-0.390	0.940
2020/01/31 04:11:03.1	92.990	-0.000	-0.420	0.970
2020/01/31 04:11:03.2	92.990	-0.010	-0.450	1.000
2020/01/31 04:11:03.3	92.980	-0.020	-0.470	1.030
2020/01/31 04:11:03.4	92.970	-0.030	-0.480	1.060
2020/01/31 04:11:03.5	92.960	-0.050	-0.500	1.090
2020/01/31 04:11:03.6	92.950	-0.060	-0.510	1.120
2020/01/31 04:11:03.7	92.930	-0.080	-0.510	1.140
2020/01/31 04:11:03.8	92.920	-0.090	-0.510	1.170
2020/01/31 04:11:03.9	92.900	-0.110	-0.510	1.200
2020/01/31 04:11:04.0	92.880	-0.120	-0.500	1.230
2020/01/31 04:11:04.1	92.860	-0.140	-0.490	1.250
2020/01/31 04:11:04.2	92.840	-0.150	-0.470	1.280
2020/01/31 04:11:04.3	92.820	-0.170	-0.460	1.310
2020/01/31 04:11:04.4	92.810	-0.190	-0.440	1.340
2020/01/31 04:11:04.5	92.790	-0.200	-0.410	1.370
2020/01/31 04:11:04.6	92.770	-0.220	-0.390	1.390
2020/01/31 04:11:04.7	92.750	-0.240	-0.360	1.420
2020/01/31 04:11:04.8	92.730	-0.250	-0.340	1.450
2020/01/31 04:11:04.9	92.720	-0.270	-0.310	1.480
2020/01/31 04:11:05.0	92.700	-0.290	-0.280	1.500
2020/01/31 04:11:05.1	92.670	-0.300	-0.250	1.520
2020/01/31 04:11:05.2	92.650	-0.320	-0.220	1.550
2020/01/31 04:11:05.3	92.640	-0.340	-0.190	1.560
2020/01/31 04:11:05.4	92.620	-0.350	-0.160	1.580
2020/01/31 04:11:05.5	92.610	-0.370	-0.130	1.590
2020/01/31 04:11:05.6	92.600	-0.380	-0.100	1.600
2020/01/31 04:11:05.7	92.590	-0.400	-0.070	1.600
2020/01/31 04:11:05.8	92.590	-0.410	-0.040	1.600
2020/01/31 04:11:05.9	92.580	-0.430	-0.010	1.600
2020/01/31 04:11:06.0	92.580	-0.440	0.010	1.590
2020/01/31 04:11:06.1	92.570	-0.460	0.030	1.570
2020/01/31 04:11:06.2	92.570	-0.470	0.060	1.550
2020/01/31 04:11:06.3	92.570	-0.480	0.080	1.530
2020/01/31 04:11:06.4	92.580	-0.490	0.100	1.500
2020/01/31 04:11:06.5	92.580	-0.500	0.110	1.460
2020/01/31 04:11:06.6	92.590	-0.510	0.130	1.430
2020/01/31 04:11:06.7	92.610	-0.520	0.140	1.380
2020/01/31 04:11:06.8	92.620	-0.530	0.150	1.330
2020/01/31 04:11:06.9	92.630	-0.530	0.150	1.280
2020/01/31 04:11:07.0	92.650	-0.540	0.160	1.230
2020/01/31 04:11:07.1	92.670	-0.540	0.160	1.180
2020/01/31 04:11:07.2	92.690	-0.530	0.150	1.120
2020/01/31 04:11:07.3	92.700	-0.530	0.150	1.060
2020/01/31 04:11:07.4	92.720	-0.520	0.140	1.000
2020/01/31 04:11:07.5	92.740	-0.510	0.120	0.940
2020/01/31 04:11:07.6	92.760	-0.500	0.100	0.880
2020/01/31 04:11:07.7	92.780	-0.490	0.080	0.820
2020/01/31 04:11:07.8	92.800	-0.470	0.060	0.760
2020/01/31 04:11:07.9	92.820	-0.450	0.030	0.710
2020/01/31 04:11:08.0	92.830	-0.430	-0.000	0.650
2020/01/31 04:11:08.1	92.840	-0.400	-0.040	0.600
2020/01/31 04:11:08.2	92.850	-0.370	-0.080	0.560
2020/01/31 04:11:08.3	92.860	-0.340	-0.120	0.510
2020/01/31 04:11:08.4	92.860	-0.310	-0.160	0.480
2020/01/31 04:11:08.5	92.870	-0.270	-0.200	0.440
2020/01/31 04:11:08.6	92.870	-0.240	-0.240	0.420
2020/01/31 04:11:08.7	92.870	-0.200	-0.280	0.390
2020/01/31 04:11:08.8	92.860	-0.160	-0.320	0.370
2020/01/31 04:11:08.9	92.860	-0.120	-0.360	0.350
2020/01/31 04:11:09.0	92.850	-0.070	-0.400	0.340
2020/01/31 04:11:09.1	92.850	-0.030	-0.440	0.330
2020/01/31 04:11:09.2	92.850	0.010	-0.480	0.320
2020/01/31 04:11:09.3	92.840	0.060	-0.510	0.320
2020/01/31 04:11:09.4	92.830	0.100	-0.540	0.310
2020/01/31 04:11:09.5	92.820	0.150	-0.570	0.310
2020/01/31 04:11:09.6	92.810	0.190	-0.600	0.310
2020/01/31 04:11:09.7	92.800	0.230	-0.620	0.310
2020/01/31 04:11:09.8	92.790	0.280	-0.650	0.310
2020/01/31 04:11:09.9	92.780	0.320	-0.670	0.310
2020/01/31 04:11:10.0	92.770	0.360	-0.680	0.300
2020/01/31 04:11:10.1	92.770	0.400	-0.700	0.300
2020/01/31 04:11:10.2	92.760	0.440	-0.710	0.300
2020/01/31 04:11:10.3	92.750	0.470	-0.720	0.290
2020/01/31 04:11:10.4	92.750	0.510	-0.720	0.280
2020/01/31 04:11:10.5	92.740	0.540	-0.730	0.270
2020/01/31 04:11:10.6	92.740	0.570	-0.730	0.260
2020/01/31 04:11:10.7	92.730	0.600	-0.730	0.250
2020/01/31 04:11:10.8	92.730	0.630	-0.730	0.240
2020/01/31 04:11:10.9	92.720	0.660	-0.720	0.220
2020/01/31 04:11:11.0	92.720	0.680	-0.710	0.210
2020/01/31 04:11:11.1	92.710	0.700	-0.700	0.200
2020/01/31 04:11:11.2	92.710	0.720	-0.690	0.180
2020/01/31 04:11:11.3	92.700	0.730	-0.670	0.170
2020/01/31 04:11:11.4	92.700	0.750	-0.650	0.150
2020/01/31 04:11:11.5	92.690	0.760	-0.630	0.140
2020/01/31 04:11:11.6	92.690	0.760	-0.610	0.130
2020/01/31 04:11:11.7	92.680	0.770	-0.590	0.120
2020/01/31 04:11:11.8	92.670	0.770	-0.560	0.120
2020/01/31 04:11:11.9	92.670	0.770	-0.530	0.110
2020/01/31 04:11:12.0	92.660	0.760	-0.500	0.110
2020/01/31 04:11:12.1	92.650	0.760	-0.470	0.110
2020/01/31 04:11:12.2	92.650	0.750	-0.430	0.120
2020/01/31 04:11:12.3	92.640	0.730	-0.400	0.130
2020/01/31 04:11:12.4	92.630	0.720	-0.360	0.140
2020/01/31 04:11:12.5	92.620	0.700	-0.320	0.160
2020/01/31 04:11:12.6	92.620	0.670	-0.280	0.180
2020/01/31 04:11:12.7	92.610	0.650	-0.240	0.200
2020/01/31 04:11:12.8	92.610	0.620	-0.190	0.230
2020/01/31 04:11:12.9	92.600	0.590	-0.150	0.250
2020/01/31 04:11:13.0	92.600	0.560	-0.110	0.280
2020/01/31 04:11:13.1	92.580	0.520	-0.070	0.310
2020/01/31 04:11:13.2	92.580	0.490	-0.030	0.340
2020/01/31 04:11:13.3	92.580	0.450	0.000	0.370
2020/01/31 04:11:13.4	92.580	0.410	0.030	0.400
2020/01/31 04:11:13.5	92.580	0.370	0.060	0.420
2020/01/31 04:11:13.6	92.580	0.330	0.090	0.440
2020/01/31 04:11:13.7	92.590	0.290	0.110	0.470
2020/01/31 04:11:13.8	92.590	0.250	0.130	0.490
2020/01/31 04:11:13.9	92.600	0.210	0.140	0.510
2020/01/31 04:11:14.0	92.610	0.170	0.140	0.520
2020/01/31 04:11:14.1	92.610	0.140	0.140	0.540
2020/01/31 04:11:14.2	92.620	0.100	0.140	0.550
2020/01/31 04:11:14.3	92.630	0.070	0.130	0.570
2020/01/31 04:11:14.4	92.640	0.040	0.120	0.580
2020/01/31 04:11:14.5	92.650	0.010	0.100	0.590
2020/01/31 04:11:14.6	92.660	-0.010	0.080	0.610
2020/01/31 04:11:14.7	92.670	-0.030	0.050	0.620
2020/01/31 04:11:14.8	92.680	-0.050	0.020	0.630
2020/01/31 04:11:14.9	92.690	-0.070	-0.010	0.650
2020/01/31 04:11:15.0	92.700	-0.080	-0.040	0.670
2020/01/31 04:11:15.1	92.720	-0.090	-0.080	0.690
2020/01/31 04:11:15.2	92.730	-0.100	-0.110	0.710
2020/01/31 04:11:15.3	92.740	-0.110	-0.150	0.740
2020/01/31 04:11:15.4	92.740	-0.110	-0.190	0.770
2020/01/31 04:11:15.5	92.750	-0.110	-0.230	0.810
2020/01/31 04:11:15.6	92.760	-0.110	-0.270	0.850
2020/01/31 04:11:15.7	92.760	-0.110	-0.300	0.890
2020/01/31 04:11:15.8	92.760	-0.110	-0.330	0.930
2020/01/31 04:11:15.9	92.760	-0.110	-0.360	0.980
2020/01/31 04:11:16.0	92.760	-0.110	-0.380	1.020
2020/01/31 04:11:16.1	92.750	-0.110	-0.410	1.080
2020/01/31 04:11:16.2	92.750	-0.110	-0.420	1.120
2020/01/31 04:11:16.3	92.740	-0.110	-0.420	1.170
2020/01/31 04:11:16.4	92.740	-0.120	-0.420	1.220
2020/01/31 04:11:16.5	92.730	-0.120	-0.410	1.260
2020/01/31 04:11:16.6	92.720	-0.130	-0.400	1.300
2020/01/31 04:11:16.7	92.720	-0.150	-0.380	1.340
2020/01/31 04:11:16.8	92.710	-0.160	-0.350	1.380
2020/01/31 04:11:16.9	92.710	-0.180	-0.320	1.410
2020/01/31 04:11:17.0	92.700	-0.200	-0.280	1.440
2020/01/31 04:11:17.1	92.700	-0.230	-0.230	1.470
2020/01/31 04:11:17.2	92.690	-0.260	-0.180	1.500
2020/01/31 04:11:17.3	92.690	-0.290	-0.120	1.510
2020/01/31 04:11:17.4	92.690	-0.330	-0.060	1.530
2020/01/31 04:11:17.5	92.690	-0.360	-0.000	1.540
2020/01/31 04:11:17.6	92.690	-0.400	0.060	1.550
2020/01/31 04:11:17.7	92.690	-0.450	0.130	1.550
2020/01/31 04:11:17.8	92.690	-0.490	0.200	1.550
2020/01/31 04:11:17.9	92.700	-0.540	0.260	1.540
2020/01/31 04:11:18.0	92.700	-0.580	0.330	1.530
2020/01/31 04:11:18.1	92.710	-0.630	0.390	1.520
2020/01/31 04:11:18.2	92.720	-0.670	0.450	1.500
2020/01/31 04:11:18.3	92.730	-0.720	0.500	1.490
2020/01/31 04:11:18.4	92.740	-0.760	0.550	1.470
2020/01/31 04:11:18.5	92.750	-0.800	0.590	1.450
2020/01/31 04:11:18.6	92.760	-0.840	0.630	1.420
2020/01/31 04:11:18.7	92.770	-0.870	0.650	1.400
2020/01/31 04:11:18.8	92.790	-0.900	0.670	1.370
2020/01/31 04:11:18.9	92.800	-0.930	0.680	1.340
2020/01/31 04:11:19.0	92.810	-0.950	0.690	1.310
2020/01/31 04:11:19.1	92.830	-0.960	0.680	1.280
2020/01/31 04:11:19.2	92.840	-0.970	0.660	1.240
2020/01/31 04:11:19.3	92.850	-0.970	0.630	1.210
2020/01/31 04:11:19.4	92.860	-0.970	0.590	1.170
2020/01/31 04:11:19.5	92.880	-0.960	0.540	1.130
2020/01/31 04:11:19.6	92.890	-0.940	0.490	1.090
2020/01/31 04:11:19.7	92.900	-0.910	0.420	1.050
2020/01/31 04:11:19.8	92.910	-0.880	0.340	1.010
2020/01/31 04:11:19.9	92.920	-0.840	0.260	0.970
2020/01/31 04:11:20.0	92.930	-0.790	0.170	0.930
2020/01/31 04:11:20.1	92.970	-0.740	0.070	0.880
2020/01/31 04:11:20.2	92.970	-0.680	-0.030	0.840
2020/01/31 04:11:20.3	92.980	-0.620	-0.130	0.790
2020/01/31 04:11:20.4	92.990	-0.550	-0.240	0.750
2020/01/31 04:11:20.5	92.990	-0.470	-0.350	0.700
2020/01/31 04:11:20.6	93.000	-0.400	-0.460	0.660
2020/01/31 04:11:20.7	93.000	-0.320	-0.570	0.620
2020/01/31 04:11:20.8	93.010	-0.230	-0.680	0.580
2020/01/31 04:11:20.9	93.010	-0.150	-0.790	0.550
2020/01/31 04:11:21.0	93.010	-0.060	-0.890	0.520
2020/01/31 04:11:21.1	92.990	0.020	-0.990	0.490
2020/01/31 04:11:21.2	92.990	0.110	-1.080	0.460
2020/01/31 04:11:21.3	92.980	0.190	-1.170	0.440
2020/01/31 04:11:21.4	92.980	0.270	-1.250	0.430
2020/01/31 04:11:21.5	92.970	0.350	-1.320	0.410
2020/01/31 04:11:21.6	92.960	0.420	-1.380	0.400
2020/01/31 04:11:21.7	92.950	0.490	-1.430	0.400
2020/01/31 04:11:21.8	92.940	0.560	-1.470	0.390
2020/01/31 04:11:21.9	92.930	0.620	-1.500	0.390
2020/01/31 04:11:22.0	92.920	0.670	-1.520	0.390
2020/01/31 04:11:22.1	92.910	0.720	-1.530	0.380
2020/01/31 04:11:22.2	92.900	0.760	-1.530	0.390
2020/01/31 04:11:22.3	92.880	0.800	-1.510	0.390
2020/01/31 04:11:22.4	92.870	0.830	-1.480	0.390
2020/01/31 04:11:22.5	92.860	0.840	-1.440	0.390
2020/01/31 04:11:22.6	92.850	0.860	-1.380	0.390
2020/01/31 04:11:22.7	92.840	0.860	-1.320	0.390
2020/01/31 04:11:22.8	92.830	0.860	-1.240	0.390
2020/01/31 04:11:22.9	92.820	0.850	-1.160	0.390
2020/01/31 04:11:23.0	92.820	0.830	-1.060	0.390
2020/01/31 04:11:23.1	92.810	0.810	-0.950	0.390
2020/01/31 04:11:23.2	92.810	0.770	-0.840	0.390
2020/01/31 04:11:23.3	92.800	0.740	-0.720	0.390
2020/01/31 04:11:23.4	92.790	0.700	-0.600	0.390
2020/01/31 04:11:23.5	92.790	0.650	-0.470	0.390
2020/01/31 04:11:23.6	92.780	0.590	-0.330	0.390
2020/01/31 04:11:23.7	92.780	0.540	-0.200	0.400
2020/01/31 04:11:23.8	92.780	0.480	-0.070	0.400
2020/01/31 04:11:23.9	92.770	0.420	0.070	0.410
2020/01/31 04:11:24.0	92.770	0.350	0.200	0.430
2020/01/31 04:11:24.1	92.770	0.290	0.330	0.440
2020/01/31 04:11:24.2	92.760	0.220	0.450	0.460
2020/01/31 04:11:24.3	92.760	0.160	0.560	0.480
2020/01/31 04:11:24.4	92.750	0.090	0.670	0.500
2020/01/31 04:11:24.5	92.750	0.030	0.770	0.520
2020/01/31 04:11:24.6	92.740	-0.030	0.850	0.540
2020/01/31 04:11:24.7	92.740	-0.080	0.930	0.560
2020/01/31 04:11:24.8	92.730	-0.140	0.990	0.580
2020/01/31 04:11:24.9	92.730	-0.190	1.030	0.600
2020/01/31 04:11:25.0	92.730	-0.230	1.070	0.620
2020/01/31 04:11:25.1	92.720	-0.270	1.080	0.640
2020/01/31 04:11:25.2	92.720	-0.300	1.090	0.650
2020/01/31 04:11:25.3	92.720	-0.330	1.070	0.660
2020/01/31 04:11:25.4	92.720	-0.350	1.050	0.670
2020/01/31 04:11:25.5	92.720	-0.370	1.000	0.670
2020/01/31 04:11:25.6	92.720	-0.380	0.940	0.670
2020/01/31 04:11:25.7	92.730	-0.380	0.870	0.660
2020/01/31 04:11:25.8	92.740	-0.370	0.780	0.650
2020/01/31 04:11:25.9	92.750	-0.360	0.680	0.630
2020/01/31 04:11:26.0	92.760	-0.340	0.570	0.610
2020/01/31 04:11:26.1	92.770	-0.320	0.440	0.590
2020/01/31 04:11:26.2	92.780	-0.280	0.300	0.570
2020/01/31 04:11:26.3	92.800	-0.250	0.160	0.540
2020/01/31 04:11:26.4	92.810	-0.200	0.010	0.520
2020/01/31 04:11:26.5	92.830	-0.150	-0.140	0.500
2020/01/31 04:11:26.6	92.850	-0.100	-0.300	0.480
2020/01/31 04:11:26.7	92.860	-0.040	-0.460	0.460
2020/01/31 04:11:26.8	92.880	0.020	-0.610	0.440
2020/01/31 04:11:26.9	92.900	0.080	-0.760	0.440
2020/01/31 04:11:27.0	92.910	0.150	-0.910	0.430
2020/01/31 04:11:27.1	92.910	0.210	-1.050	0.430
2020/01/31 04:11:27.2	92.910	0.280	-1.170	0.440
2020/01/31 04:11:27.3	92.920	0.340	-1.290	0.450
2020/01/31 04:11:27.4	92.920	0.410	-1.390	0.470
2020/01/31 04:11:27.5	92.920	0.470	-1.470	0.500
2020/01/31 04:11:27.6	92.920	0.520	-1.540	0.530
2020/01/31 04:11:27.7	92.910	0.570	-1.590	0.560
2020/01/31 04:11:27.8	92.910	0.610	-1.620	0.590
2020/01/31 04:11:27.9	92.890	0.650	-1.630	0.630
2020/01/31 04:11:28.0	92.880	0.680	-1.620	0.660
2020/01/31 04:11:28.1	92.870	0.700	-1.590	0.700
2020/01/31 04:11:28.2	92.860	0.710	-1.550	0.730
2020/01/31 04:11:28.3	92.840	0.710	-1.480	0.770
2020/01/31 04:11:28.4	92.820	0.700	-1.400	0.800
2020/01/31 04:11:28.5	92.790	0.690	-1.300	0.830
2020/01/31 04:11:28.6	92.770	0.670	-1.190	0.860
2020/01/31 04:11:28.7	92.750	0.630	-1.060	0.880
2020/01/31 04:11:28.8	92.720	0.590	-0.930	0.910
2020/01/31 04:11:28.9	92.700	0.540	-0.780	0.930
2020/01/31 04:11:29.0	92.670	0.490	-0.630	0.950
2020/01/31 04:11:29.1	92.640	0.420	-0.460	0.980
2020/01/31 04:11:29.2	92.610	0.350	-0.300	1.000
2020/01/31 04:11:29.3	92.580	0.280	-0.130	1.020
2020/01/31 04:11:29.4	92.560	0.200	0.030	1.030
2020/01/31 04:11:29.5	92.540	0.110	0.200	1.040
2020/01/31 04:11:29.6	92.510	0.030	0.360	1.060
2020/01/31 04:11:29.7	92.490	-0.060	0.520	1.070
2020/01/31 04:11:29.8	92.470	-0.150	0.660	1.070
2020/01/31 04:11:29.9	92.450	-0.240	0.800	1.080
2020/01/31 04:11:30.0	92.430	-0.320	0.930	1.080
2020/01/31 04:11:30.1	92.400	-0.410	1.060	1.090
2020/01/31 04:11:30.2	92.390	-0.490	1.160	1.090
2020/01/31 04:11:30.3	92.380	-0.560	1.240	1.080
2020/01/31 04:11:30.4	92.370	-0.630	1.310	1.080
2020/01/31 04:11:30.5	92.360	-0.690	1.370	1.070
2020/01/31 04:11:30.6	92.350	-0.750	1.400	1.060
2020/01/31 04:11:30.7	92.350	-0.790	1.420	1.050
2020/01/31 04:11:30.8	92.350	-0.830	1.420	1.030
2020/01/31 04:11:30.9	92.360	-0.860	1.400	1.010
2020/01/31 04:11:31.0	92.360	-0.880	1.370	0.990
2020/01/31 04:11:31.1	92.380	-0.890	1.310	0.960
2020/01/31 04:11:31.2	92.390	-0.890	1.240	0.930
2020/01/31 04:11:31.3	92.410	-0.880	1.160	0.900
2020/01/31 04:11:31.4	92.430	-0.870	1.060	0.860
2020/01/31 04:11:31.5	92.450	-0.840	0.940	0.830
2020/01/31 04:11:31.6	92.480	-0.800	0.820	0.790
2020/01/31 04:11:31.7	92.510	-0.760	0.680	0.750
2020/01/31 04:11:31.8	92.540	-0.710	0.540	0.710
2020/01/31 04:11:31.9	92.570	-0.650	0.390	0.670
2020/01/31 04:11:32.0	92.600	-0.580	0.230	0.630
2020/01/31 04:11:32.1	92.630	-0.510	0.070	0.590
2020/01/31 04:11:32.2	92.670	-0.440	-0.090	0.550
2020/01/31 04:11:32.3	92.700	-0.360	-0.250	0.510
2020/01/31 04:11:32.4	92.730	-0.280	-0.410	0.470
2020/01/31 04:11:32.5	92.760	-0.200	-0.570	0.440
2020/01/31 04:11:32.6	92.790	-0.120	-0.720	0.410
2020/01/31 04:11:32.7	92.820	-0.040	-0.860	0.390
2020/01/31 04:11:32.8	92.830	0.040	-0.990	0.380
2020/01/31 04:11:32.9	92.850	0.120	-1.110	0.370
2020/01/31 04:11:33.0	92.850	0.190	-1.210	0.360
2020/01/31 04:11:33.1	92.860	0.250	-1.310	0.360
2020/01/31 04:11:33.2	92.860	0.310	-1.380	0.360
2020/01/31 04:11:33.3	92.850	0.370	-1.430	0.370
2020/01/31 04:11:33.4	92.840	0.410	-1.460	0.370
2020/01/31 04:11:33.5	92.820	0.450	-1.480	0.380
2020/01/31 04:11:33.6	92.800	0.470	-1.480	0.400
2020/01/31 04:11:33.7	92.780	0.490	-1.460	0.410
2020/01/31 04:11:33.8	92.760	0.510	-1.430	0.430
2020/01/31 04:11:33.9	92.730	0.510	-1.380	0.450
2020/01/31 04:11:34.0	92.710	0.500	-1.320	0.470
2020/01/31 04:11:34.1	92.680	0.490	-1.230	0.500
2020/01/31 04:11:34.2	92.650	0.460	-1.140	0.520
2020/01/31 04:11:34.3	92.610	0.430	-1.040	0.550
2020/01/31 04:11:34.4	92.580	0.390	-0.920	0.570
2020/01/31 04:11:34.5	92.540	0.340	-0.800	0.590
2020/01/31 04:11:34.6	92.510	0.290	-0.670	0.620
2020/01/31 04:11:34.7	92.470	0.230	-0.540	0.640
2020/01/31 04:11:34.8	92.440	0.170	-0.400	0.660
2020/01/31 04:11:34.9	92.400	0.100	-0.260	0.680
2020/01/31 04:11:35.0	92.370	0.030	-0.130	0.700
2020/01/31 04:11:35.1	92.320	-0.040	0.010	0.720
2020/01/31 04:11:35.2	92.290	-0.110	0.140	0.730
2020/01/31 04:11:35.3	92.260	-0.180	0.270	0.740
2020/01/31 04:11:35.4	92.230	-0.250	0.390	0.750
2020/01/31 04:11:35.5	92.200	-0.320	0.500	0.760
2020/01/31 04:11:35.6	92.180	-0.390	0.600	0.760
2020/01/31 04:11:35.7	92.150	-0.450	0.680	0.760
2020/01/31 04:11:35.8	92.130	-0.500	0.760	0.750
2020/01/31 04:11:35.9	92.110	-0.550	0.820	0.750
2020/01/31 04:11:36.0	92.080	-0.590	0.860	0.740
2020/01/31 04:11:36.1	92.070	-0.630	0.900	0.730
2020/01/31 04:11:36.2	92.050	-0.660	0.910	0.720
2020/01/31 04:11:36.3	92.040	-0.680	0.910	0.700
2020/01/31 04:11:36.4	92.020	-0.680	0.890	0.680
2020/01/31 04:11:36.5	92.000	-0.690	0.860	0.660
2020/01/31 04:11:36.6	91.990	-0.680	0.810	0.640
2020/01/31 04:11:36.7	91.970	-0.660	0.740	0.620
2020/01/31 04:11:36.8	91.960	-0.630	0.660	0.600
2020/01/31 04:11:36.9	91.960	-0.600	0.570	0.570
2020/01/31 04:11:37.0	91.950	-0.560	0.470	0.540
2020/01/31 04:11:37.1	91.950	-0.500	0.350	0.520
2020/01/31 04:11:37.2	91.950	-0.450	0.230	0.490
2020/01/31 04:11:37.3	91.940	-0.380	0.100	0.470
2020/01/31 04:11:37.4	91.940	-0.310	-0.040	0.440
2020/01/31 04:11:37.5	91.940	-0.240	-0.180	0.420
2020/01/31 04:11:37.6	91.940	-0.160	-0.320	0.400
2020/01/31 04:11:37.7	91.940	-0.080	-0.460	0.370
2020/01/31 04:11:37.8	91.930	-0.000	-0.600	0.350
2020/01/31 04:11:37.9	91.930	0.080	-0.730	0.340
2020/01/31 04:11:38.0	91.930	0.160	-0.860	0.320
2020/01/31 04:11:38.1	91.920	0.240	-0.980	0.310
2020/01/31 04:11:38.2	91.910	0.320	-1.090	0.300
2020/01/31 04:11:38.3	91.900	0.390	-1.190	0.290
2020/01/31 04:11:38.4	91.900	0.450	-1.270	0.280
2020/01/31 04:11:38.5	91.890	0.520	-1.340	0.280
2020/01/31 04:11:38.6	91.880	0.570	-1.400	0.280
2020/01/31 04:11:38.7	91.860	0.620	-1.440	0.280
2020/01/31 04:11:38.8	91.850	0.660	-1.470	0.280
2020/01/31 04:11:38.9	91.840	0.690	-1.480	0.290
2020/01/31 04:11:39.0	91.830	0.720	-1.480	0.290
2020/01/31 04:11:39.1	91.800	0.740	-1.460	0.300
2020/01/31 04:11:39.2	91.790	0.750	-1.420	0.320
2020/01/31 04:11:39.3	91.770	0.750	-1.380	0.330
2020/01/31 04:11:39.4	91.750	0.740	-1.320	0.350
2020/01/31 04:11:39.5	91.730	0.720	-1.250	0.380
2020/01/31 04:11:39.6	91.710	0.700	-1.170	0.400
2020/01/31 04:11:39.7	91.690	0.670	-1.070	0.440
2020/01/31 04:11:39.8	91.670	0.630	-0.970	0.470
2020/01/31 04:11:39.9	91.650	0.590	-0.870	0.510
2020/01/31 04:11:40.0	91.630	0.540	-0.760	0.550
2020/01/31 04:11:40.1	91.620	0.490	-0.640	0.590
2020/01/31 04:11:40.2	91.600	0.430	-0.520	0.640
2020/01/31 04:11:40.3	91.580	0.370	-0.400	0.680
2020/01/31 04:11:40.4	91.570	0.310	-0.290	0.730
2020/01/31 04:11:40.5	91.560	0.240	-0.170	0.780
2020/01/31 04:11:40.6	91.550	0.180	-0.060	0.820
2020/01/31 04:11:40.7	91.540	0.110	0.040	0.860
2020/01/31 04:11:40.8	91.540	0.050	0.140	0.900
2020/01/31 04:11:40.9	91.540	-0.010	0.230	0.940
2020/01/31 04:11:41.0	91.550	-0.070	0.310	0.980
2020/01/31 04:11:41.1	91.560	-0.130	0.390	1.010
2020/01/31 04:11:41.2	91.570	-0.180	0.450	1.030
2020/01/31 04:11:41.3	91.590	-0.220	0.500	1.060
2020/01/31 04:11:41.4	91.600	-0.260	0.540	1.070
2020/01/31 04:11:41.5	91.620	-0.300	0.570	1.090
2020/01/31 04:11:41.6	91.640	-0.330	0.590	1.090
2020/01/31 04:11:41.7	91.660	-0.350	0.600	1.100
2020/01/31 04:11:41.8	91.690	-0.370	0.600	1.100
2020/01/31 04:11:41.9	91.710	-0.390	0.590	1.090
2020/01/31 04:11:42.0	91.740	-0.390	0.570	1.090
2020/01/31 04:11:42.1	91.770	-0.390	0.540	1.080
2020/01/31 04:11:42.2	91.800	-0.390	0.520	1.060
2020/01/31 04:11:42.3	91.820	-0.380	0.480	1.050
2020/01/31 04:11:42.4	91.840	-0.370	0.450	1.030
2020/01/31 04:11:42.5	91.860	-0.360	0.410	1.020
2020/01/31 04:11:42.6	91.870	-0.340	0.370	1.000
2020/01/31 04:11:42.7	91.890	-0.320	0.320	0.980
2020/01/31 04:11:42.8	91.900	-0.300	0.280	0.960
2020/01/31 04:11:42.9	91.910	-0.270	0.240	0.940
2020/01/31 04:11:43.0	91.920	-0.240	0.200	0.920
2020/01/31 04:11:43.1	91.920	-0.210	0.160	0.910
2020/01/31 04:11:43.2	91.920	-0.190	0.130	0.890
2020/01/31 04:11:43.3	91.920	-0.160	0.090	0.880
2020/01/31 04:11:43.4	91.920	-0.130	0.060	0.870
2020/01/31 04:11:43.5	91.920	-0.100	0.040	0.870
2020/01/31 04:11:43.6	91.920	-0.070	0.010	0.870
2020/01/31 04:11:43.7	91.910	-0.040	-0.010	0.870
2020/01/31 04:11:43.8	91.900	-0.020	-0.020	0.870
2020/01/31 04:11:43.9	91.900	0.010	-0.040	0.880
2020/01/31 04:11:44.0	91.890	0.030	-0.050	0.890
2020/01/31 04:11:44.1	91.890	0.060	-0.060	0.910
2020/01/31 04:11:44.2	91.880	0.080	-0.060	0.930
2020/01/31 04:11:44.3	91.870	0.100	-0.060	0.950
2020/01/31 04:11:44.4	91.860	0.110	-0.060	0.970
2020/01/31 04:11:44.5	91.850	0.130	-0.060	0.990
2020/01/31 04:11:44.6	91.840	0.150	-0.060	1.010
2020/01/31 04:11:44.7	91.840	0.160	-0.060	1.040
2020/01/31 04:11:44.8	91.840	0.170	-0.060	1.060
2020/01/31 04:11:44.9	91.830	0.180	-0.060	1.080
2020/01/31 04:11:45.0	91.830	0.190	-0.060	1.100
2020/01/31 04:11:45.1	91.840	0.200	-0.060	1.130
2020/01/31 04:11:45.2	91.840	0.200	-0.070	1.140
2020/01/31 04:11:45.3	91.840	0.210	-0.080	1.160
2020/01/31 04:11:45.4	91.840	0.210	-0.090	1.170
2020/01/31 04:11:45.5	91.840	0.210	-0.100	1.180
2020/01/31 04:11:45.6	91.840	0.220	-0.120	1.180
2020/01/31 04:11:45.7	91.850	0.220	-0.140	1.190
2020/01/31 04:11:45.8	91.850	0.220	-0.160	1.180
2020/01/31 04:11:45.9	91.850	0.220	-0.190	1.180
2020/01/31 04:11:46.0	91.850	0.220	-0.220	1.170
2020/01/31 04:11:46.1	91.850	0.220	-0.260	1.160
2020/01/31 04:11:46.2	91.850	0.220	-0.290	1.150
2020/01/31 04:11:46.3	91.850	0.220	-0.340	1.140
2020/01/31 04:11:46.4	91.850	0.230	-0.380	1.120
2020/01/31 04:11:46.5	91.850	0.230	-0.420	1.100
2020/01/31 04:11:46.6	91.840	0.230	-0.470	1.080
2020/01/31 04:11:46.7	91.840	0.230	-0.520	1.060
2020/01/31 04:11:46.8	91.830	0.240	-0.560	1.040
2020/01/31 04:11:46.9	91.830	0.240	-0.610	1.020
2020/01/31 04:11:47.0	91.820	0.240	-0.650	1.000
2020/01/31 04:11:47.1	91.800	0.240	-0.690	0.970
2020/01/31 04:11:47.2	91.790	0.240	-0.720	0.950
2020/01/31 04:11:47.3	91.790	0.240	-0.760	0.930
2020/01/31 04:11:47.4	91.780	0.240	-0.780	0.910
2020/01/31 04:11:47.5	91.770	0.240	-0.810	0.890
2020/01/31 04:11:47.6	91.760	0.240	-0.820	0.870
2020/01/31 04:11:47.7	91.750	0.240	-0.830	0.850
2020/01/31 04:11:47.8	91.740	0.240	-0.840	0.840
2020/01/31 04:11:47.9	91.730	0.240	-0.830	0.820
2020/01/31 04:11:48.0	91.720	0.230	-0.820	0.810
2020/01/31 04:11:48.1	91.710	0.230	-0.810	0.790
2020/01/31 04:11:48.2	91.700	0.220	-0.790	0.780
2020/01/31 04:11:48.3	91.700	0.210	-0.760	0.770
2020/01/31 04:11:48.4	91.690	0.210	-0.730	0.760
2020/01/31 04:11:48.5	91.690	0.200	-0.700	0.760
2020/01/31 04:11:48.6	91.690	0.190	-0.650	0.750
2020/01/31 04:11:48.7	91.690	0.180	-0.610	0.740
2020/01/31 04:11:48.8	91.690	0.170	-0.560	0.730
2020/01/31 04:11:48.9	91.690	0.160	-0.510	0.720
2020/01/31 04:11:49.0	91.700	0.140	-0.470	0.710
2020/01/31 04:11:49.1	91.710	0.130	-0.410	0.700
2020/01/31 04:11:49.2	91.720	0.120	-0.360	0.680
2020/01/31 04:11:49.3	91.740	0.110	-0.310	0.660
2020/01/31 04:11:49.4	91.750	0.100	-0.270	0.650
2020/01/31 04:11:49.5	91.770	0.090	-0.230	0.630
2020/01/31 04:11:49.6	91.790	0.080	-0.190	0.610
2020/01/31 04:11:49.7	91.810	0.070	-0.150	0.590
2020/01/31 04:11:49.8	91.840	0.060	-0.120	0.570
2020/01/31 04:11:49.9	91.860	0.040	-0.090	0.560
2020/01/31 04:11:50.0	91.890	0.030	-0.060	0.540
2020/01/31 04:11:50.1	91.900	0.020	-0.050	0.520
2020/01/31 04:11:50.2	91.930	0.010	-0.030	0.510
2020/01/31 04:11:50.3	91.960	-0.000	-0.010	0.490
2020/01/31 04:11:50.4	91.990	-0.010	0.000	0.480
2020/01/31 04:11:50.5	92.020	-0.030	0.010	0.470
2020/01/31 04:11:50.6	92.060	-0.040	0.020	0.460
2020/01/31 04:11:50.7	92.090	-0.060	0.030	0.450
2020/01/31 04:11:50.8	92.120	-0.070	0.040	0.440
2020/01/31 04:11:50.9	92.150	-0.090	0.040	0.430
2020/01/31 04:11:51.0	92.180	-0.110	0.050	0.430
2020/01/31 04:11:51.1	92.210	-0.130	0.060	0.420
2020/01/31 04:11:51.2	92.230	-0.150	0.060	0.420
2020/01/31 04:11:51.3	92.260	-0.170	0.070	0.430
2020/01/31 04:11:51.4	92.280	-0.200	0.080	0.430
2020/01/31 04:11:51.5	92.310	-0.220	0.090	0.440
2020/01/31 04:11:51.6	92.320	-0.250	0.100	0.450
2020/01/31 04:11:51.7	92.340	-0.270	0.110	0.460
2020/01/31 04:11:51.8	92.360	-0.300	0.120	0.470
2020/01/31 04:11:51.9	92.370	-0.320	0.130	0.490
2020/01/31 04:11:52.0	92.380	-0.350	0.150	0.510
2020/01/31 04:11:52.1	92.390	-0.380	0.170	0.530
2020/01/31 04:11:52.2	92.390	-0.400	0.180	0.550
2020/01/31 04:11:52.3	92.400	-0.420	0.200	0.570
2020/01/31 04:11:52.4	92.400	-0.450	0.220	0.590
2020/01/31 04:11:52.5	92.400	-0.470	0.230	0.610
2020/01/31 04:11:52.6	92.400	-0.490	0.240	0.640
2020/01/31 04:11:52.7	92.400	-0.510	0.250	0.660
2020/01/31 04:11:52.8	92.390	-0.520	0.260	0.680
2020/01/31 04:11:52.9	92.390	-0.530	0.260	0.710
2020/01/31 04:11:53.0	92.380	-0.540	0.260	0.730
2020/01/31 04:11:53.1	92.380	-0.550	0.250	0.750
2020/01/31 04:11:53.2	92.370	-0.550	0.230	0.780
2020/01/31 04:11:53.3	92.360	-0.540	0.210	0.800
2020/01/31 04:11:53.4	92.350	-0.540	0.180	0.820
2020/01/31 04:11:53.5	92.340	-0.520	0.150	0.850
2020/01/31 04:11:53.6	92.340	-0.510	0.110	0.870
2020/01/31 04:11:53.7	92.330	-0.480	0.060	0.880
2020/01/31 04:11:53.8	92.320	-0.460	0.000	0.900
2020/01/31 04:11:53.9	92.310	-0.430	-0.060	0.910
2020/01/31 04:11:54.0	92.310	-0.390	-0.120	0.930
2020/01/31 04:11:54.1	92.300	-0.350	-0.190	0.940
2020/01/31 04:11:54.2	92.300	-0.310	-0.260	0.940
2020/01/31 04:11:54.3	92.300	-0.270	-0.340	0.940
2020/01/31 04:11:54.4	92.290	-0.220	-0.410	0.940
2020/01/31 04:11:54.5	92.300	-0.170	-0.490	0.930
2020/01/31 04:11:54.6	92.300	-0.120	-0.560	0.920
2020/01/31 04:11:54.7	92.310	-0.070	-0.630	0.910
2020/01/31 04:11:54.8	92.320	-0.020	-0.700	0.890
2020/01/31 04:11:54.9	92.330	0.040	-0.760	0.860
2020/01/31 04:11:55.0	92.340	0.080	-0.810	0.840
2020/01/31 04:11:55.1	92.350	0.130	-0.870	0.810
2020/01/31 04:11:55.2	92.360	0.180	-0.910	0.770
2020/01/31 04:11:55.3	92.370	0.220	-0.940	0.740
2020/01/31 04:11:55.4	92.390	0.260	-0.970	0.700
2020/01/31 04:11:55.5	92.410	0.300	-0.990	0.660
2020/01/31 04:11:55.6	92.420	0.340	-0.990	0.620
2020/01/31 04:11:55.7	92.440	0.370	-0.990	0.580
2020/01/31 04:11:55.8	92.460	0.400	-0.980	0.530
2020/01/31 04:11:55.9	92.470	0.420	-0.960	0.500
2020/01/31 04:11:56.0	92.490	0.440	-0.930	0.460
2020/01/31 04:11:56.1	92.510	0.460	-0.890	0.420
2020/01/31 04:11:56.2	92.520	0.470	-0.850	0.390
2020/01/31 04:11:56.3	92.530	0.480	-0.800	0.360
2020/01/31 04:11:56.4	92.540	0.480	-0.740	0.330
2020/01/31 04:11:56.5	92.550	0.490	-0.670	0.310
2020/01/31 04:11:56.6	92.560	0.490	-0.600	0.290
2020/01/31 04:11:56.7	92.570	0.480	-0.520	0.280
2020/01/31 04:11:56.8	92.570	0.470	-0.450	0.260
2020/01/31 04:11:56.9	92.580	0.460	-0.360	0.260
2020/01/31 04:11:57.0	92.580	0.450	-0.280	0.250
2020/01/31 04:11:57.1	92.590	0.440	-0.200	0.250
2020/01/31 04:11:57.2	92.590	0.420	-0.120	0.250
2020/01/31 04:11:57.3	92.590	0.400	-0.040	0.250
2020/01/31 04:11:57.4	92.590	0.380	0.040	0.260
2020/01/31 04:11:57.5	92.590	0.360	0.120	0.260
2020/01/31 04:11:57.6	92.590	0.340	0.190	0.270
2020/01/31 04:11:57.7	92.590	0.320	0.250	0.280
2020/01/31 04:11:57.8	92.590	0.300	0.310	0.290
2020/01/31 04:11:57.9	92.590	0.280	0.360	0.300
2020/01/31 04:11:58.0	92.590	0.260	0.400	0.310
2020/01/31 04:11:58.1	92.580	0.240	0.440	0.320
2020/01/31 04:11:58.2	92.580	0.220	0.470	0.330
2020/01/31 04:11:58.3	92.580	0.200	0.490	0.350
2020/01/31 04:11:58.4	92.580	0.180	0.490	0.360
2020/01/31 04:11:58.5	92.580	0.170	0.490	0.370
2020/01/31 04:11:58.6	92.580	0.150	0.480	0.380
2020/01/31 04:11:58.7	92.580	0.140	0.460	0.390
2020/01/31 04:11:58.8	92.580	0.130	0.430	0.400
2020/01/31 04:11:58.9	92.580	0.110	0.400	0.420
2020/01/31 04:11:59.0	92.580	0.110	0.350	0.430
2020/01/31 04:11:59.1	92.590	0.100	0.290	0.440
2020/01/31 04:11:59.2	92.580	0.090	0.230	0.460
2020/01/31 04:11:59.3	92.580	0.080	0.170	0.470
2020/01/31 04:11:59.4	92.580	0.080	0.100	0.480
2020/01/31 04:11:59.5	92.580	0.080	0.020	0.490
2020/01/31 04:11:59.6	92.570	0.070	-0.050	0.510
2020/01/31 04:11:59.7	92.570	0.070	-0.130	0.520
2020/01/31 04:11:59.8	92.570	0.070	-0.210	0.530
2020/01/31 04:11:59.9	92.570	0.060	-0.290	0.540
2020/01/31 04:12:00.0	92.570	0.060	-0.360	0.560
2020/01/31 04:12:00.1	92.560	0.060	-0.430	0.570
2020/01/31 04:12:00.2	92.560	0.060	-0.500	0.580
2020/01/31 04:12:00.3	92.560	0.060	-0.560	0.590
2020/01/31 04:12:00.4	92.570	0.050	-0.620	0.600
2020/01/31 04:12:00.5	92.580	0.050	-0.670	0.610
2020/01/31 04:12:00.6	92.580	0.040	-0.720	0.620
2020/01/31 04:12:00.7	92.600	0.040	-0.750	0.620
2020/01/31 04:12:00.8	92.610	0.040	-0.780	0.620
2020/01/31 04:12:00.9	92.620	0.030	-0.810	0.620
2020/01/31 04:12:01.0	92.640	0.020	-0.820	0.620
2020/01/31 04:12:01.1	92.660	0.020	-0.830	0.620
2020/01/31 04:12:01.2	92.680	0.010	-0.830	0.620
2020/01/31 04:12:01.3	92.700	0.000	-0.820	0.620
2020/01/31 04:12:01.4	92.720	-0.010	-0.810	0.620
2020/01/31 04:12:01.5	92.750	-0.010	-0.790	0.620
2020/01/31 04:12:01.6	92.770	-0.020	-0.760	0.610
2020/01/31 04:12:01.7	92.800	-0.030	-0.720	0.620
2020/01/31 04:12:01.8	92.820	-0.040	-0.680	0.620
2020/01/31 04:12:01.9	92.850	-0.050	-0.640	0.620
2020/01/31 04:12:02.0	92.880	-0.060	-0.590	0.620
2020/01/31 04:12:02.1	92.900	-0.060	-0.540	0.630
2020/01/31 04:12:02.2	92.930	-0.070	-0.480	0.640
2020/01/31 04:12:02.3	92.950	-0.080	-0.430	0.650
2020/01/31 04:12:02.4	92.970	-0.090	-0.370	0.670
2020/01/31 04:12:02.5	93.000	-0.090	-0.320	0.680
2020/01/31 04:12:02.6	93.020	-0.100	-0.260	0.700
2020/01/31 04:12:02.7	93.040	-0.100	-0.200	0.720
2020/01/31 04:12:02.8	93.060	-0.110	-0.150	0.740
2020/01/31 04:12:02.9	93.080	-0.110	-0.100	0.760
2020/01/31 04:12:03.0	93.090	-0.110	-0.050	0.780
2020/01/31 04:12:03.1	93.120	-0.110	-0.000	0.810
2020/01/31 04:12:03.2	93.130	-0.110	0.040	0.830
2020/01/31 04:12:03.3	93.140	-0.110	0.080	0.850
2020/01/31 04:12:03.4	93.150	-0.110	0.110	0.870
2020/01/31 04:12:03.5	93.160	-0.110	0.140	0.890
2020/01/31 04:12:03.6	93.160	-0.110	0.170	0.900
2020/01/31 04:12:03.7	93.170	-0.100	0.190	0.920
2020/01/31 04:12:03.8	93.170	-0.100	0.210	0.930
2020/01/31 04:12:03.9	93.170	-0.100	0.220	0.940
2020/01/31 04:12:04.0	93.180	-0.090	0.230	0.940
2020/01/31 04:12:04.1	93.180	-0.090	0.240	0.950
2020/01/31 04:12:04.2	93.180	-0.080	0.230	0.950
2020/01/31 04:12:04.3	93.180	-0.070	0.230	0.950
2020/01/31 04:12:04.4	93.170	-0.070	0.220	0.940
2020/01/31 04:12:04.5	93.170	-0.060	0.200	0.930
2020/01/31 04:12:04.6	93.160	-0.060	0.180	0.920
2020/01/31 04:12:04.7	93.150	-0.050	0.160	0.910
2020/01/31 04:12:04.8	93.140	-0.040	0.140	0.890
2020/01/31 04:12:04.9	93.130	-0.040	0.110	0.870
2020/01/31 04:12:05.0	93.120	-0.030	0.080	0.860
2020/01/31 04:12:05.1	93.110	-0.030	0.040	0.830
2020/01/31 04:12:05.2	93.100	-0.020	0.010	0.810
2020/01/31 04:12:05.3	93.080	-0.010	-0.030	0.800
2020/01/31 04:12:05.4	93.070	-0.010	-0.060	0.780
2020/01/31 04:12:05.5	93.050	-0.000	-0.100	0.760
2020/01/31 04:12:05.6	93.030	0.000	-0.130	0.740
2020/01/31 04:12:05.7	93.010	0.010	-0.160	0.720
2020/01/31 04:12:05.8	92.990	0.010	-0.190	0.710
2020/01/31 04:12:05.9	92.980	0.010	-0.220	0.690
2020/01/31 04:12:06.0	92.960	0.010	-0.240	0.670
2020/01/31 04:12:06.1	92.940	0.010	-0.260	0.650
2020/01/31 04:12:06.2	92.920	0.010	-0.280	0.640
2020/01/31 04:12:06.3	92.910	0.010	-0.290	0.620
2020/01/31 04:12:06.4	92.890	0.010	-0.300	0.600
2020/01/31 04:12:06.5	92.880	0.000	-0.310	0.580
2020/01/31 04:12:06.6	92.870	-0.010	-0.310	0.560
2020/01/31 04:12:06.7	92.870	-0.010	-0.320	0.530
2020/01/31 04:12:06.8	92.860	-0.020	-0.310	0.510
2020/01/31 04:12:06.9	92.860	-0.030	-0.310	0.480
2020/01/31 04:12:07.0	92.860	-0.040	-0.300	0.450
2020/01/31 04:12:07.1	92.880	-0.050	-0.290	0.420
2020/01/31 04:12:07.2	92.890	-0.070	-0.280	0.390
2020/01/31 04:12:07.3	92.910	-0.080	-0.260	0.350
2020/01/31 04:12:07.4	92.920	-0.100	-0.250	0.320
2020/01/31 04:12:07.5	92.950	-0.110	-0.240	0.280
2020/01/31 04:12:07.6	92.970	-0.120	-0.220	0.240
2020/01/31 04:12:07.7	93.000	-0.140	-0.210	0.200
2020/01/31 04:12:07.8	93.030	-0.150	-0.200	0.170
2020/01/31 04:12:07.9	93.070	-0.170	-0.180	0.130
2020/01/31 04:12:08.0	93.110	-0.180	-0.170	0.100
2020/01/31 04:12:08.1	93.140	-0.200	-0.160	0.070
2020/01/31 04:12:08.2	93.190	-0.210	-0.150	0.040
2020/01/31 04:12:08.3	93.230	-0.220	-0.140	0.010
2020/01/31 04:12:08.4	93.280	-0.230	-0.130	-0.010
2020/01/31 04:12:08.5	93.330	-0.240	-0.130	-0.030
2020/01/31 04:12:08.6	93.380	-0.250	-0.120	-0.050
2020/01/31 04:12:08.7	93.420	-0.260	-0.120	-0.050
2020/01/31 04:12:08.8	93.470	-0.270	-0.120	-0.060
2020/01/31 04:12:08.9	93.510	-0.270	-0.110	-0.060
2020/01/31 04:12:09.0	93.550	-0.270	-0.110	-0.050
2020/01/31 04:12:09.1	93.580	-0.280	-0.120	-0.040
2020/01/31 04:12:09.2	93.610	-0.280	-0.120	-0.020
2020/01/31 04:12:09.3	93.630	-0.280	-0.130	0.000
2020/01/31 04:12:09.4	93.660	-0.280	-0.140	0.030
2020/01/31 04:12:09.5	93.670	-0.270	-0.150	0.060
2020/01/31 04:12:09.6	93.680	-0.270	-0.160	0.100
2020/01/31 04:12:09.7	93.690	-0.260	-0.170	0.140
2020/01/31 04:12:09.8	93.690	-0.250	-0.190	0.180
2020/01/31 04:12:09.9	93.690	-0.240	-0.210	0.220
2020/01/31 04:12:10.0	93.680	-0.230	-0.230	0.270
2020/01/31 04:12:10.1	93.650	-0.210	-0.250	0.320
2020/01/31 04:12:10.2	93.640	-0.200	-0.280	0.370
2020/01/31 04:12:10.3	93.620	-0.180	-0.300	0.410
2020/01/31 04:12:10.4	93.590	-0.160	-0.330	0.460
2020/01/31 04:12:10.5	93.570	-0.140	-0.360	0.510
2020/01/31 04:12:10.6	93.540	-0.120	-0.390	0.560
2020/01/31 04:12:10.7	93.510	-0.100	-0.420	0.610
2020/01/31 04:12:10.8	93.470	-0.070	-0.460	0.650
2020/01/31 04:12:10.9	93.440	-0.050	-0.490	0.700
2020/01/31 04:12:11.0	93.400	-0.020	-0.520	0.740
2020/01/31 04:12:11.1	93.400	0.000	-0.550	0.780
2020/01/31 04:12:11.2	93.360	0.030	-0.580	0.820
2020/01/31 04:12:11.3	93.330	0.060	-0.610	0.860
2020/01/31 04:12:11.4	93.300	0.090	-0.640	0.890
2020/01/31 04:12:11.5	93.270	0.120	-0.670	0.920
2020/01/31 04:12:11.6	93.230	0.150	-0.690	0.940
2020/01/31 04:12:11.7	93.210	0.180	-0.710	0.970
2020/01/31 04:12:11.8	93.180	0.210	-0.730	0.990
2020/01/31 04:12:11.9	93.150	0.240	-0.750	1.010
2020/01/31 04:12:12.0	93.130	0.270	-0.760	1.020
2020/01/31 04:12:12.1	93.100	0.300	-0.760	1.040
2020/01/31 04:12:12.2	93.070	0.330	-0.760	1.060
2020/01/31 04:12:12.3	93.050	0.350	-0.750	1.070
2020/01/31 04:12:12.4	93.030	0.370	-0.740	1.080
2020/01/31 04:12:12.5	93.010	0.390	-0.720	1.080
2020/01/31 04:12:12.6	92.990	0.410	-0.700	1.080
2020/01/31 04:12:12.7	92.970	0.420	-0.670	1.080
2020/01/31 04:12:12.8	92.960	0.430	-0.640	1.080
2020/01/31 04:12:12.9	92.940	0.440	-0.600	1.070
2020/01/31 04:12:13.0	92.930	0.450	-0.560	1.060
2020/01/31 04:12:13.1	92.910	0.440	-0.510	1.050
2020/01/31 04:12:13.2	92.900	0.440	-0.460	1.030
2020/01/31 04:12:13.3	92.900	0.430	-0.410	1.010
2020/01/31 04:12:13.4	92.890	0.420	-0.350	0.980
2020/01/31 04:12:13.5	92.890	0.410	-0.290	0.960
2020/01/31 04:12:13.6	92.890	0.390	-0.230	0.930
2020/01/31 04:12:13.7	92.890	0.370	-0.170	0.890
2020/01/31 04:12:13.8	92.900	0.340	-0.110	0.850
2020/01/31 04:12:13.9	92.900	0.310	-0.050	0.810
2020/01/31 04:12:14.0	92.910	0.280	0.010	0.770
2020/01/31 04:12:14.1	92.940	0.250	0.070	0.730
2020/01/31 04:12:14.2	92.950	0.220	0.120	0.690
2020/01/31 04:12:14.3	92.960	0.180	0.170	0.640
2020/01/31 04:12:14.4	92.970	0.150	0.220	0.590
2020/01/31 04:12:14.5	92.990	0.110	0.260	0.550
2020/01/31 04:12:14.6	93.000	0.080	0.290	0.500
2020/01/31 04:12:14.7	93.020	0.040	0.320	0.460
2020/01/31 04:12:14.8	93.040	0.000	0.350	0.410
2020/01/31 04:12:14.9	93.050	-0.030	0.370	0.370
2020/01/31 04:12:15.0	93.070	-0.060	0.390	0.330
2020/01/31 04:12:15.1	93.100	-0.090	0.400	0.300
2020/01/31 04:12:15.2	93.120	-0.120	0.400	0.260
2020/01/31 04:12:15.3	93.130	-0.150	0.400	0.230
2020/01/31 04:12:15.4	93.150	-0.170	0.400	0.210
2020/01/31 04:12:15.5	93.170	-0.190	0.390	0.180
2020/01/31 04:12:15.6	93.180	-0.210	0.380	0.160
2020/01/31 04:12:15.7	93.200	-0.220	0.360	0.140
2020/01/31 04:12:15.8	93.220	-0.230	0.330	0.130
2020/01/31 04:12:15.9	93.230	-0.240	0.300	0.120
2020/01/31 04:12:16.0	93.250	-0.240	0.270	0.110
2020/01/31 04:12:16.1	93.250	-0.250	0.240	0.110
2020/01/31 04:12:16.2	93.270	-0.240	0.200	0.110
2020/01/31 04:12:16.3	93.290	-0.240	0.160	0.110
2020/01/31 04:12:16.4	93.300	-0.230	0.110	0.110
2020/01/31 04:12:16.5	93.320	-0.210	0.060	0.120
2020/01/31 04:12:16.6	93.340	-0.200	0.010	0.120
2020/01/31 04:12:16.7	93.350	-0.180	-0.040	0.130
2020/01/31 04:12:16.8	93.370	-0.160	-0.090	0.140
2020/01/31 04:12:16.9	93.390	-0.140	-0.140	0.160
2020/01/31 04:12:17.0	93.410	-0.110	-0.200	0.170
2020/01/31 04:12:17.1	93.420	-0.090	-0.250	0.180
2020/01/31 04:12:17.2	93.440	-0.060	-0.310	0.200
2020/01/31 04:12:17.3	93.460	-0.030	-0.360	0.210
2020/01/31 04:12:17.4	93.480	-0.000	-0.410	0.230
2020/01/31 04:12:17.5	93.500	0.030	-0.460	0.250
2020/01/31 04:12:17.6	93.510	0.060	-0.510	0.270
2020/01/31 04:12:17.7	93.530	0.090	-0.560	0.300
2020/01/31 04:12:17.8	93.540	0.110	-0.600	0.320
2020/01/31 04:12:17.9	93.550	0.140	-0.640	0.350
2020/01/31 04:12:18.0	93.560	0.170	-0.680	0.390
2020/01/31 04:12:18.1	93.560	0.190	-0.710	0.420
2020/01/31 04:12:18.2	93.560	0.210	-0.730	0.460
2020/01/31 04:12:18.3	93.560	0.230	-0.750	0.500
2020/01/31 04:12:18.4	93.560	0.240	-0.760	0.540
2020/01/31 04:12:18.5	93.560	0.250	-0.770	0.590
2020/01/31 04:12:18.6	93.550	0.260	-0.760	0.630
2020/01/31 04:12:18.7	93.540	0.260	-0.750	0.680
2020/01/31 04:12:18.8	93.530	0.260	-0.730	0.720
2020/01/31 04:12:18.9	93.520	0.260	-0.710	0.760
2020/01/31 04:12:19.0	93.500	0.250	-0.680	0.800
2020/01/31 04:12:19.1	93.500	0.240	-0.640	0.850
2020/01/31 04:12:19.2	93.480	0.220	-0.590	0.890
2020/01/31 04:12:19.3	93.460	0.200	-0.550	0.920
2020/01/31 04:12:19.4	93.450	0.180	-0.490	0.960
2020/01/31 04:12:19.5	93.430	0.150	-0.440	0.990
2020/01/31 04:12:19.6	93.410	0.120	-0.380	1.020
2020/01/31 04:12:19.7	93.390	0.090	-0.310	1.050
2020/01/31 04:12:19.8	93.370	0.060	-0.250	1.070
2020/01/31 04:12:19.9	93.350	0.020	-0.190	1.090
2020/01/31 04:12:20.0	93.330	-0.020	-0.130	1.110
2020/01/31 04:12:20.1	93.330	-0.060	-0.060	1.130
2020/01/31 04:12:20.2	93.310	-0.100	-0.010	1.140
2020/01/31 04:12:20.3	93.290	-0.140	0.050	1.150
2020/01/31 04:12:20.4	93.280	-0.180	0.100	1.160
2020/01/31 04:12:20.5	93.260	-0.220	0.150	1.160
2020/01/31 04:12:20.6	93.250	-0.250	0.190	1.160
2020/01/31 04:12:20.7	93.230	-0.290	0.230	1.160
2020/01/31 04:12:20.8	93.220	-0.320	0.260	1.150
2020/01/31 04:12:20.9	93.200	-0.350	0.290	1.140
2020/01/31 04:12:21.0	93.190	-0.380	0.300	1.130
2020/01/31 04:12:21.1	93.180	-0.410	0.320	1.120
2020/01/31 04:12:21.2	93.170	-0.430	0.320	1.100
2020/01/31 04:12:21.3	93.160	-0.450	0.320	1.080
2020/01/31 04:12:21.4	93.150	-0.460	0.300	1.060
2020/01/31 04:12:21.5	93.140	-0.470	0.280	1.040
2020/01/31 04:12:21.6	93.130	-0.480	0.260	1.010
2020/01/31 04:12:21.7	93.130	-0.480	0.230	0.980
2020/01/31 04:12:21.8	93.120	-0.480	0.190	0.960
2020/01/31 04:12:21.9	93.110	-0.470	0.140	0.930
2020/01/31 04:12:22.0	93.110	-0.460	0.090	0.900
2020/01/31 04:12:22.1	93.110	-0.440	0.040	0.870
2020/01/31 04:12:22.2	93.110	-0.420	-0.020	0.840
2020/01/31 04:12:22.3	93.100	-0.400	-0.080	0.810
2020/01/31 04:12:22.4	93.110	-0.370	-0.140	0.780
2020/01/31 04:12:22.5	93.110	-0.340	-0.210	0.760
2020/01/31 04:12:22.6	93.110	-0.310	-0.280	0.730
2020/01/31 04:12:22.7	93.110	-0.270	-0.340	0.710
2020/01/31 04:12:22.8	93.120	-0.230	-0.400	0.690
2020/01/31 04:12:22.9	93.130	-0.190	-0.470	0.670
2020/01/31 04:12:23.0	93.140	-0.150	-0.530	0.650
2020/01/31 04:12:23.1	93.140	-0.110	-0.590	0.630
2020/01/31 04:12:23.2	93.150	-0.060	-0.640	0.620
2020/01/31 04:12:23.3	93.160	-0.020	-0.690	0.600
2020/01/31 04:12:23.4	93.180	0.020	-0.740	0.590
2020/01/31 04:12:23.5	93.190	0.070	-0.780	0.580
2020/01/31 04:12:23.6	93.210	0.110	-0.820	0.560
2020/01/31 04:12:23.7	93.230	0.150	-0.850	0.550
2020/01/31 04:12:23.8	93.240	0.190	-0.870	0.540
2020/01/31 04:12:23.9	93.260	0.220	-0.890	0.530
2020/01/31 04:12:24.0	93.280	0.250	-0.900	0.520
2020/01/31 04:12:24.1	93.290	0.280	-0.900	0.520
2020/01/31 04:12:24.2	93.310	0.310	-0.900	0.510
2020/01/31 04:12:24.3	93.320	0.330	-0.890	0.510
2020/01/31 04:12:24.4	93.340	0.350	-0.870	0.500
2020/01/31 04:12:24.5	93.350	0.370	-0.840	0.500
2020/01/31 04:12:24.6	93.360	0.380	-0.810	0.500
2020/01/31 04:12:24.7	93.360	0.380	-0.760	0.500
2020/01/31 04:12:24.8	93.370	0.390	-0.710	0.510
2020/01/31 04:12:24.9	93.380	0.380	-0.660	0.510
2020/01/31 04:12:25.0	93.380	0.380	-0.590	0.520
2020/01/31 04:12:25.1	93.380	0.370	-0.520	0.530
2020/01/31 04:12:25.2	93.380	0.350	-0.450	0.540
2020/01/31 04:12:25.3	93.370	0.330	-0.370	0.550
2020/01/31 04:12:25.4	93.370	0.310	-0.290	0.570
2020/01/31 04:12:25.5	93.360	0.280	-0.200	0.580
2020/01/31 04:12:25.6	93.350	0.250	-0.110	0.600
2020/01/31 04:12:25.7	93.350	0.220	-0.020	0.610
2020/01/31 04:12:25.8	93.340	0.190	0.060	0.630
2020/01/31 04:12:25.9	93.330	0.150	0.150	0.650
2020/01/31 04:12:26.0	93.320	0.120	0.230	0.670
2020/01/31 04:12:26.1	93.310	0.080	0.320	0.690
2020/01/31 04:12:26.2	93.300	0.040	0.390	0.710
2020/01/31 04:12:26.3	93.290	0.010	0.460	0.730
2020/01/31 04:12:26.4	93.280	-0.030	0.520	0.740
2020/01/31 04:12:26.5	93.270	-0.060	0.580	0.760
2020/01/31 04:12:26.6	93.260	-0.100	0.620	0.770
2020/01/31 04:12:26.7	93.260	-0.130	0.660	0.780
2020/01/31 04:12:26.8	93.250	-0.150	0.690	0.790
2020/01/31 04:12:26.9	93.250	-0.180	0.710	0.790
2020/01/31 04:12:27.0	93.250	-0.200	0.710	0.800
2020/01/31 04:12:27.1	93.260	-0.220	0.710	0.800
2020/01/31 04:12:27.2	93.260	-0.240	0.700	0.790
2020/01/31 04:12:27.3	93.260	-0.250	0.680	0.790
2020/01/31 04:12:27.4	93.260	-0.260	0.640	0.780
2020/01/31 04:12:27.5	93.260	-0.260	0.600	0.760
2020/01/31 04:12:27.6	93.270	-0.260	0.550	0.750
2020/01/31 04:12:27.7	93.270	-0.260	0.490	0.730
2020/01/31 04:12:27.8	93.280	-0.250	0.420	0.710
2020/01/31 04:12:27.9	93.290	-0.240	0.350	0.690
2020/01/31 04:12:28.0	93.300	-0.230	0.270	0.670
2020/01/31 04:12:28.1	93.300	-0.220	0.180	0.650
2020/01/31 04:12:28.2	93.310	-0.200	0.090	0.620
2020/01/31 04:12:28.3	93.320	-0.180	0.000	0.600
2020/01/31 04:12:28.4	93.330	-0.150	-0.090	0.580
2020/01/31 04:12:28.5	93.340	-0.130	-0.190	0.560
2020/01/31 04:12:28.6	93.350	-0.100	-0.280	0.540
2020/01/31 04:12:28.7	93.350	-0.070	-0.380	0.520
2020/01/31 04:12:28.8	93.360	-0.040	-0.470	0.500
2020/01/31 04:12:28.9	93.360	-0.010	-0.560	0.490
2020/01/31 04:12:29.0	93.370	0.020	-0.640	0.480
2020/01/31 04:12:29.1	93.380	0.050	-0.720	0.470
2020/01/31 04:12:29.2	93.380	0.080	-0.790	0.460
2020/01/31 04:12:29.3	93.380	0.120	-0.860	0.450
2020/01/31 04:12:29.4	93.380	0.150	-0.920	0.450
2020/01/31 04:12:29.5	93.380	0.170	-0.980	0.450
2020/01/31 04:12:29.6	93.370	0.200	-1.020	0.450
2020/01/31 04:12:29.7	93.370	0.230	-1.060	0.460
2020/01/31 04:12:29.8	93.360	0.250	-1.090	0.470
2020/01/31 04:12:29.9	93.350	0.270	-1.110	0.480
2020/01/31 04:12:30.0	93.340	0.290	-1.120	0.500
2020/01/31 04:12:30.1	93.310	0.310	-1.120	0.520
2020/01/31 04:12:30.2	93.300	0.320	-1.110	0.540
2020/01/31 04:12:30.3	93.280	0.330	-1.100	0.560
2020/01/31 04:12:30.4	93.270	0.330	-1.070	0.590
2020/01/31 04:12:30.5	93.260	0.340	-1.040	0.620
2020/01/31 04:12:30.6	93.240	0.340	-1.010	0.650
2020/01/31 04:12:30.7	93.230	0.340	-0.960	0.680
2020/01/31 04:12:30.8	93.220	0.330	-0.910	0.720
2020/01/31 04:12:30.9	93.210	0.320	-0.860	0.750
2020/01/31 04:12:31.0	93.200	0.310	-0.800	0.780
2020/01/31 04:12:31.1	93.190	0.300	-0.730	0.820
2020/01/31 04:12:31.2	93.180	0.280	-0.660	0.850
2020/01/31 04:12:31.3	93.180	0.260	-0.600	0.880
2020/01/31 04:12:31.4	93.170	0.240	-0.530	0.910
2020/01/31 04:12:31.5	93.170	0.220	-0.460	0.930
2020/01/31 04:12:31.6	93.170	0.200	-0.390	0.960
2020/01/31 04:12:31.7	93.170	0.180	-0.320	0.980
2020/01/31 04:12:31.8	93.180	0.150	-0.260	0.990
2020/01/31 04:12:31.9	93.180	0.130	-0.190	1.010
2020/01/31 04:12:32.0	93.190	0.110	-0.130	1.020
2020/01/31 04:12:32.1	93.180	0.080	-0.070	1.030
2020/01/31 04:12:32.2	93.190	0.060	-0.020	1.040
2020/01/31 04:12:32.3	93.190	0.030	0.030	1.050
2020/01/31 04:12:32.4	93.200	0.010	0.080	1.050
2020/01/31 04:12:32.5	93.210	-0.020	0.120	1.050
2020/01/31 04:12:32.6	93.220	-0.040	0.160	1.050
2020/01/31 04:12:32.7	93.220	-0.060	0.200	1.050
2020/01/31 04:12:32.8	93.230	-0.080	0.230	1.050
2020/01/31 04:12:32.9	93.240	-0.100	0.260	1.050
2020/01/31 04:12:33.0	93.240	-0.120	0.280	1.040
2020/01/31 04:12:33.1	93.240	-0.140	0.310	1.030
2020/01/31 04:12:33.2	93.250	-0.160	0.320	1.020
2020/01/31 04:12:33.3	93.250	-0.170	0.330	1.010
2020/01/31 04:12:33.4	93.260	-0.190	0.340	1.000
2020/01/31 04:12:33.5	93.260	-0.200	0.340	0.980
2020/01/31 04:12:33.6	93.270	-0.220	0.340	0.970
2020/01/31 04:12:33.7	93.270	-0.230	0.330	0.950
2020/01/31 04:12:33.8	93.280	-0.240	0.320	0.930
2020/01/31 04:12:33.9	93.280	-0.250	0.310	0.910
2020/01/31 04:12:34.0	93.290	-0.250	0.300	0.880
2020/01/31 04:12:34.1	93.300	-0.260	0.280	0.860
2020/01/31 04:12:34.2	93.300	-0.270	0.260	0.840
2020/01/31 04:12:34.3	93.310	-0.270	0.240	0.810
2020/01/31 04:12:34.4	93.310	-0.270	0.220	0.780
2020/01/31 04:12:34.5	93.320	-0.270	0.200	0.760
2020/01/31 04:12:34.6	93.320	-0.270	0.170	0.730
2020/01/31 04:12:34.7	93.330	-0.270	0.150	0.710
2020/01/31 04:12:34.8	93.340	-0.270	0.120	0.680
2020/01/31 04:12:34.9	93.340	-0.260	0.090	0.650
2020/01/31 04:12:35.0	93.350	-0.260	0.060	0.630
2020/01/31 04:12:35.1	93.360	-0.250	0.030	0.600
2020/01/31 04:12:35.2	93.370	-0.240	-0.000	0.580
2020/01/31 04:12:35.3	93.370	-0.230	-0.030	0.560
2020/01/31 04:12:35.4	93.380	-0.220	-0.070	0.540
2020/01/31 04:12:35.5	93.390	-0.210	-0.100	0.520
2020/01/31 04:12:35.6	93.400	-0.200	-0.130	0.500
2020/01/31 04:12:35.7	93.400	-0.190	-0.170	0.490
2020/01/31 04:12:35.8	93.410	-0.170	-0.200	0.480
2020/01/31 04:12:35.9	93.420	-0.160	-0.230	0.470
2020/01/31 04:12:36.0	93.430	-0.140	-0.260	0.460
2020/01/31 04:12:36.1	93.430	-0.130	-0.290	0.460
2020/01/31 04:12:36.2	93.440	-0.110	-0.320	0.450
2020/01/31 04:12:36.3	93.450	-0.100	-0.350	0.450
2020/01/31 04:12:36.4	93.460	-0.080	-0.370	0.460
2020/01/31 04:12:36.5	93.460	-0.070	-0.390	0.460
2020/01/31 04:12:36.6	93.470	-0.060	-0.420	0.460
2020/01/31 04:12:36.7	93.470	-0.040	-0.430	0.470
2020/01/31 04:12:36.8	93.470	-0.030	-0.450	0.470
2020/01/31 04:12:36.9	93.480	-0.020	-0.470	0.480
2020/01/31 04:12:37.0	93.470	-0.010	-0.480	0.490
2020/01/31 04:12:37.1	93.480	-0.000	-0.490	0.490
2020/01/31 04:12:37.2	93.480	0.010	-0.490	0.500
2020/01/31 04:12:37.3	93.470	0.010	-0.500	0.500
2020/01/31 04:12:37.4	93.460	0.020	-0.500	0.510
2020/01/31 04:12:37.5	93.450	0.030	-0.500	0.510
2020/01/31 04:12:37.6	93.440	0.030	-0.500	0.520
2020/01/31 04:12:37.7	93.430	0.040	-0.500	0.530
2020/01/31 04:12:37.8	93.420	0.040	-0.490	0.530
2020/01/31 04:12:37.9	93.400	0.040	-0.490	0.540
2020/01/31 04:12:38.0	93.390	0.050	-0.480	0.540
2020/01/31 04:12:38.1	93.360	0.050	-0.480	0.550
2020/01/31 04:12:38.2	93.340	0.060	-0.470	0.560
2020/01/31 04:12:38.3	93.320	0.060	-0.460	0.560
2020/01/31 04:12:38.4	93.310	0.060	-0.450	0.570
2020/01/31 04:12:38.5	93.290	0.070	-0.450	0.580
2020/01/31 04:12:38.6	93.270	0.070	-0.440	0.590
2020/01/31 04:12:38.7	93.250	0.070	-0.440	0.610
2020/01/31 04:12:38.8	93.240	0.080	-0.430	0.620
2020/01/31 04:12:38.9	93.220	0.080	-0.420	0.630
2020/01/31 04:12:39.0	93.200	0.090	-0.420	0.640
2020/01/31 04:12:39.1	93.190	0.090	-0.410	0.660
2020/01/31 04:12:39.2	93.180	0.090	-0.410	0.670
2020/01/31 04:12:39.3	93.160	0.100	-0.400	0.680
2020/01/31 04:12:39.4	93.150	0.100	-0.400	0.700
2020/01/31 04:12:39.5	93.150	0.110	-0.400	0.710
2020/01/31 04:12:39.6	93.140	0.110	-0.390	0.720
2020/01/31 04:12:39.7	93.140	0.110	-0.390	0.730
2020/01/31 04:12:39.8	93.130	0.120	-0.390	0.740
2020/01/31 04:12:39.9	93.130	0.120	-0.390	0.750
2020/01/31 04:12:40.0	93.140	0.120	-0.390	0.760
2020/01/31 04:12:40.1	93.140	0.130	-0.400	0.760
2020/01/31 04:12:40.2	93.150	0.130	-0.400	0.770
2020/01/31 04:12:40.3	93.150	0.130	-0.390	0.780
2020/01/31 04:12:40.4	93.160	0.130	-0.390	0.780
2020/01/31 04:12:40.5	93.170	0.130	-0.390	0.790
2020/01/31 04:12:40.6	93.190	0.130	-0.390	0.790
2020/01/31 04:12:40.7	93.200	0.130	-0.380	0.800
2020/01/31 04:12:40.8	93.220	0.130	-0.370	0.810
2020/01/31 04:12:40.9	93.230	0.130	-0.370	0.810
2020/01/31 04:12:41.0	93.250	0.130	-0.350	0.820
2020/01/31 04:12:41.1	93.270	0.120	-0.340	0.830
2020/01/31 04:12:41.2	93.290	0.120	-0.330	0.840
2020/01/31 04:12:41.3	93.310	0.110	-0.310	0.850
2020/01/31 04:12:41.4	93.330	0.110	-0.290	0.850
2020/01/31 04:12:41.5	93.340	0.100	-0.270	0.860
2020/01/31 04:12:41.6	93.360	0.090	-0.250	0.870
2020/01/31 04:12:41.7	93.380	0.080	-0.220	0.880
2020/01/31 04:12:41.8	93.390	0.080	-0.200	0.890
2020/01/31 04:12:41.9	93.410	0.070	-0.170	0.900
2020/01/31 04:12:42.0	93.420	0.060	-0.140	0.910
2020/01/31 04:12:42.1	93.430	0.050	-0.100	0.920
2020/01/31 04:12:42.2	93.440	0.040	-0.070	0.920
2020/01/31 04:12:42.3	93.450	0.030	-0.040	0.930
2020/01/31 04:12:42.4	93.450	0.020	-0.010	0.940
2020/01/31 04:12:42.5	93.460	0.000	0.030	0.950
2020/01/31 04:12:42.6	93.460	-0.010	0.060	0.960
2020/01/31 04:12:42.7	93.460	-0.020	0.100	0.970
2020/01/31 04:12:42.8	93.460	-0.030	0.130	0.980
2020/01/31 04:12:42.9	93.460	-0.050	0.160	0.990
2020/01/31 04:12:43.0	93.450	-0.060	0.200	1.000
2020/01/31 04:12:43.1	93.430	-0.080	0.220	1.010
2020/01/31 04:12:43.2	93.420	-0.090	0.250	1.020
2020/01/31 04:12:43.3	93.410	-0.110	0.280	1.040
2020/01/31 04:12:43.4	93.400	-0.120	0.300	1.050
2020/01/31 04:12:43.5	93.380	-0.140	0.320	1.060
2020/01/31 04:12:43.6	93.360	-0.150	0.330	1.070
2020/01/31 04:12:43.7	93.340	-0.170	0.340	1.080
2020/01/31 04:12:43.8	93.330	-0.180	0.350	1.090
2020/01/31 04:12:43.9	93.310	-0.190	0.350	1.100
2020/01/31 04:12:44.0	93.290	-0.200	0.340	1.110
2020/01/31 04:12:44.1	93.290	-0.210	0.330	1.120
2020/01/31 04:12:44.2	93.270	-0.220	0.320	1.120
2020/01/31 04:12:44.3	93.250	-0.230	0.300	1.130
2020/01/31 04:12:44.4	93.230	-0.230	0.270	1.130
2020/01/31 04:12:44.5	93.210	-0.240	0.240	1.130
2020/01/31 04:12:44.6	93.190	-0.240	0.200	1.120
2020/01/31 04:12:44.7	93.180	-0.240	0.160	1.120
2020/01/31 04:12:44.8	93.160	-0.230	0.110	1.110
2020/01/31 04:12:44.9	93.150	-0.230	0.060	1.090
2020/01/31 04:12:45.0	93.140	-0.220	0.010	1.080
2020/01/31 04:12:45.1	93.120	-0.210	-0.050	1.060
2020/01/31 04:12:45.2	93.110	-0.200	-0.100	1.050
2020/01/31 04:12:45.3	93.100	-0.190	-0.160	1.020
2020/01/31 04:12:45.4	93.090	-0.170	-0.210	1.000
2020/01/31 04:12:45.5	93.080	-0.160	-0.270	0.970
2020/01/31 04:12:45.6	93.070	-0.140	-0.320	0.940
2020/01/31 04:12:45.7	93.070	-0.120	-0.370	0.910
2020/01/31 04:12:45.8	93.070	-0.100	-0.420	0.870
2020/01/31 04:12:45.9	93.070	-0.080	-0.470	0.830
2020/01/31 04:12:46.0	93.070	-0.050	-0.510	0.790
2020/01/31 04:12:46.1	93.070	-0.030	-0.550	0.740
2020/01/31 04:12:46.2	93.080	-0.010	-0.590	0.690
2020/01/31 04:12:46.3	93.080	0.020	-0.630	0.640
2020/01/31 04:12:46.4	93.090	0.040	-0.660	0.590
2020/01/31 04:12:46.5	93.110	0.070	-0.680	0.530
2020/01/31 04:12:46.6	93.120	0.090	-0.710	0.480
2020/01/31 04:12:46.7	93.130	0.120	-0.730	0.430
2020/01/31 04:12:46.8	93.150	0.140	-0.750	0.370
2020/01/31 04:12:46.9	93.170	0.170	-0.760	0.320
2020/01/31 04:12:47.0	93.180	0.190	-0.770	0.270
2020/01/31 04:12:47.1	93.210	0.210	-0.770	0.220
2020/01/31 04:12:47.2	93.230	0.240	-0.780	0.180
2020/01/31 04:12:47.3	93.250	0.260	-0.780	0.140
2020/01/31 04:12:47.4	93.260	0.280	-0.780	0.100
2020/01/31 04:12:47.5	93.280	0.300	-0.770	0.070
2020/01/31 04:12:47.6	93.300	0.320	-0.760	0.040
2020/01/31 04:12:47.7	93.310	0.330	-0.750	0.020
2020/01/31 04:12:47.8	93.320	0.350	-0.730	0.010
2020/01/31 04:12:47.9	93.340	0.360	-0.720	-0.000
2020/01/31 04:12:48.0	93.350	0.380	-0.700	-0.000
2020/01/31 04:12:48.1	93.350	0.380	-0.670	0.010
2020/01/31 04:12:48.2	93.350	0.390	-0.650	0.020
2020/01/31 04:12:48.3	93.360	0.400	-0.620	0.040
2020/01/31 04:12:48.4	93.360	0.400	-0.590	0.070
2020/01/31 04:12:48.5	93.360	0.400	-0.550	0.100
2020/01/31 04:12:48.6	93.350	0.400	-0.520	0.140
2020/01/31 04:12:48.7	93.350	0.390	-0.480	0.180
2020/01/31 04:12:48.8	93.340	0.380	-0.440	0.220
2020/01/31 04:12:48.9	93.340	0.370	-0.400	0.270
2020/01/31 04:12:49.0	93.330	0.360	-0.350	0.320
2020/01/31 04:12:49.1	93.310	0.340	-0.310	0.380
2020/01/31 04:12:49.2	93.300	0.320	-0.270	0.430
2020/01/31 04:12:49.3	93.290	0.300	-0.220	0.490
2020/01/31 04:12:49.4	93.270	0.270	-0.180	0.540
2020/01/31 04:12:49.5	93.260	0.250	-0.130	0.600
2020/01/31 04:12:49.6	93.240	0.220	-0.090	0.660
2020/01/31 04:12:49.7	93.220	0.180	-0.050	0.710
2020/01/31 04:12:49.8	93.210	0.150	-0.010	0.770
2020/01/31 04:12:49.9	93.190	0.120	0.030	0.820
2020/01/31 04:12:50.0	93.170	0.080	0.070	0.870
2020/01/31 04:12:50.1	93.150	0.040	0.110	0.930
2020/01/31 04:12:50.2	93.120	0.000	0.140	0.980
2020/01/31 04:12:50.3	93.100	-0.040	0.170	1.030
2020/01/31 04:12:50.4	93.070	-0.080	0.200	1.070
2020/01/31 04:12:50.5	93.040	-0.120	0.230	1.120
2020/01/31 04:12:50.6	93.010	-0.160	0.260	1.160
2020/01/31 04:12:50.7	92.980	-0.200	0.280	1.200
2020/01/31 04:12:50.8	92.940	-0.250	0.310	1.240
2020/01/31 04:12:50.9	92.900	-0.290	0.330	1.280
2020/01/31 04:12:51.0	92.870	-0.330	0.340	1.310
2020/01/31 04:12:51.1	92.830	-0.370	0.360	1.350
2020/01/31 04:12:51.2	92.790	-0.400	0.370	1.380
2020/01/31 04:12:51.3	92.750	-0.440	0.380	1.400
2020/01/31 04:12:51.4	92.720	-0.470	0.380	1.420
2020/01/31 04:12:51.5	92.680	-0.500	0.380	1.440
2020/01/31 04:12:51.6	92.640	-0.530	0.380	1.450
2020/01/31 04:12:51.7	92.610	-0.560	0.370	1.460
2020/01/31 04:12:51.8	92.580	-0.580	0.350	1.460
2020/01/31 04:12:51.9	92.550	-0.600	0.340	1.450
2020/01/31 04:12:52.0	92.520	-0.620	0.310	1.450
2020/01/31 04:12:52.1	92.520	-0.630	0.280	1.430
2020/01/31 04:12:52.2	92.500	-0.640	0.250	1.410
2020/01/31 04:12:52.3	92.490	-0.650	0.210	1.380
2020/01/31 04:12:52.4	92.480	-0.650	0.160	1.350
2020/01/31 04:12:52.5	92.480	-0.640	0.110	1.320
2020/01/31 04:12:52.6	92.480	-0.630	0.050	1.280
2020/01/31 04:12:52.7	92.480	-0.610	-0.010	1.230
2020/01/31 04:12:52.8	92.490	-0.590	-0.080	1.180
2020/01/31 04:12:52.9	92.510	-0.570	-0.150	1.130
2020/01/31 04:12:53.0	92.530	-0.540	-0.220	1.070
2020/01/31 04:12:53.1	92.550	-0.500	-0.300	1.010
2020/01/31 04:12:53.2	92.570	-0.460	-0.380	0.940
2020/01/31 04:12:53.3	92.610	-0.420	-0.460	0.880
2020/01/31 04:12:53.4	92.640	-0.370	-0.540	0.810
2020/01/31 04:12:53.5	92.680	-0.310	-0.620	0.750
2020/01/31 04:12:53.6	92.710	-0.260	-0.700	0.680
2020/01/31 04:12:53.7	92.750	-0.200	-0.770	0.620
2020/01/31 04:12:53.8	92.790	-0.130	-0.840	0.550
2020/01/31 04:12:53.9	92.830	-0.070	-0.910	0.500
2020/01/31 04:12:54.0	92.870	-0.000	-0.970	0.440
2020/01/31 04:12:54.1	92.910	0.060	-1.020	0.390
2020/01/31 04:12:54.2	92.940	0.130	-1.070	0.350
2020/01/31 04:12:54.3	92.970	0.200	-1.100	0.320
2020/01/31 04:12:54.4	93.000	0.260	-1.130	0.290
2020/01/31 04:12:54.5	93.020	0.330	-1.150	0.260
2020/01/31 04:12:54.6	93.040	0.390	-1.160	0.250
2020/01/31 04:12:54.7	93.050	0.450	-1.160	0.240
2020/01/31 04:12:54.8	93.060	0.500	-1.150	0.240
2020/01/31 04:12:54.9	93.070	0.550	-1.130	0.240
2020/01/31 04:12:55.0	93.070	0.600	-1.100	0.250
2020/01/31 04:12:55.1	93.060	0.640	-1.060	0.270
2020/01/31 04:12:55.2	93.050	0.680	-1.010	0.290
2020/01/31 04:12:55.3	93.050	0.710	-0.960	0.310
2020/01/31 04:12:55.4	93.040	0.730	-0.900	0.340
2020/01/31 04:12:55.5	93.030	0.750	-0.830	0.370
2020/01/31 04:12:55.6	93.020	0.760	-0.760	0.400
2020/01/31 04:12:55.7	93.000	0.760	-0.680	0.430
2020/01/31 04:12:55.8	92.990	0.760	-0.600	0.470
2020/01/31 04:12:55.9	92.970	0.750	-0.510	0.500
2020/01/31 04:12:56.0	92.950	0.740	-0.430	0.540
2020/01/31 04:12:56.1	92.950	0.720	-0.340	0.570
2020/01/31 04:12:56.2	92.930	0.690	-0.250	0.610
2020/01/31 04:12:56.3	92.910	0.660	-0.160	0.640
2020/01/31 04:12:56.4	92.890	0.620	-0.080	0.680
2020/01/31 04:12:56.5	92.870	0.580	0.010	0.710
2020/01/31 04:12:56.6	92.840	0.530	0.090	0.730
2020/01/31 04:12:56.7	92.820	0.480	0.160	0.760
2020/01/31 04:12:56.8	92.800	0.430	0.240	0.790
2020/01/31 04:12:56.9	92.770	0.370	0.300	0.810
2020/01/31 04:12:57.0	92.740	0.310	0.370	0.830
2020/01/31 04:12:57.1	92.710	0.250	0.420	0.850
2020/01/31 04:12:57.2	92.680	0.190	0.470	0.870
2020/01/31 04:12:57.3	92.650	0.130	0.520	0.880
2020/01/31 04:12:57.4	92.620	0.070	0.560	0.900
2020/01/31 04:12:57.5	92.590	0.000	0.590	0.910
2020/01/31 04:12:57.6	92.560	-0.060	0.620	0.930
2020/01/31 04:12:57.7	92.540	-0.120	0.640	0.940
2020/01/31 04:12:57.8	92.510	-0.180	0.650	0.950
2020/01/31 04:12:57.9	92.480	-0.230	0.650	0.960
2020/01/31 04:12:58.0	92.460	-0.290	0.650	0.970
2020/01/31 04:12:58.1	92.450	-0.340	0.650	0.980
2020/01/31 04:12:58.2	92.420	-0.380	0.630	0.990
2020/01/31 04:12:58.3	92.400	-0.430	0.620	0.990
2020/01/31 04:12:58.4	92.390	-0.460	0.590	1.000
2020/01/31 04:12:58.5	92.370	-0.500	0.560	1.000
2020/01/31 04:12:58.6	92.360	-0.530	0.520	1.000
2020/01/31 04:12:58.7	92.350	-0.550	0.480	1.000
2020/01/31 04:12:58.8	92.350	-0.570	0.430	1.000
2020/01/31 04:12:58.9	92.340	-0.590	0.380	0.990
2020/01/31 04:12:59.0	92.340	-0.600	0.320	0.980
2020/01/31 04:12:59.1	92.350	-0.610	0.250	0.970
2020/01/31 04:12:59.2	92.350	-0.610	0.190	0.950
2020/01/31 04:12:59.3	92.360	-0.610	0.120	0.940
2020/01/31 04:12:59.4	92.360	-0.600	0.060	0.920
2020/01/31 04:12:59.5	92.370	-0.590	-0.010	0.900
2020/01/31 04:12:59.6	92.380	-0.580	-0.090	0.880
2020/01/31 04:12:59.7	92.390	-0.560	-0.160	0.850
2020/01/31 04:12:59.8	92.400	-0.540	-0.230	0.830
2020/01/31 04:12:59.9	92.410	-0.520	-0.310	0.800
2020/01/31 04:13:00.0	92.420	-0.490	-0.380	0.780
2020/01/31 04:13:00.1	92.420	-0.460	-0.450	0.750
2020/01/31 04:13:00.2	92.430	-0.430	-0.520	0.720
2020/01/31 04:13:00.3	92.440	-0.400	-0.580	0.700
2020/01/31 04:13:00.4	92.460	-0.370	-0.650	0.680
2020/01/31 04:13:00.5	92.470	-0.340	-0.710	0.660
2020/01/31 04:13:00.6	92.480	-0.310	-0.760	0.640
2020/01/31 04:13:00.7	92.490	-0.280	-0.810	0.630
2020/01/31 04:13:00.8	92.490	-0.250	-0.850	0.620
2020/01/31 04:13:00.9	92.500	-0.220	-0.880	0.620
2020/01/31 04:13:01.0	92.500	-0.190	-0.910	0.620
2020/01/31 04:13:01.1	92.520	-0.160	-0.930	0.620
2020/01/31 04:13:01.2	92.530	-0.130	-0.950	0.620
2020/01/31 04:13:01.3	92.530	-0.110	-0.950	0.630
2020/01/31 04:13:01.4	92.530	-0.090	-0.950	0.650
2020/01/31 04:13:01.5	92.540	-0.070	-0.940	0.660
2020/01/31 04:13:01.6	92.540	-0.050	-0.920	0.680
2020/01/31 04:13:01.7	92.540	-0.040	-0.890	0.710
2020/01/31 04:13:01.8	92.540	-0.030	-0.860	0.730
2020/01/31 04:13:01.9	92.550	-0.020	-0.820	0.750
2020/01/31 04:13:02.0	92.550	-0.010	-0.780	0.780
2020/01/31 04:13:02.1	92.550	-0.000	-0.720	0.810
2020/01/31 04:13:02.2	92.560	-0.000	-0.670	0.830
2020/01/31 04:13:02.3	92.560	0.000	-0.610	0.860
2020/01/31 04:13:02.4	92.570	0.000	-0.540	0.880
2020/01/31 04:13:02.5	92.580	0.000	-0.480	0.900
2020/01/31 04:13:02.6	92.590	-0.000	-0.410	0.920
2020/01/31 04:13:02.7	92.600	-0.000	-0.350	0.930
2020/01/31 04:13:02.8	92.610	-0.010	-0.280	0.950
2020/01/31 04:13:02.9	92.620	-0.010	-0.220	0.960
2020/01/31 04:13:03.0	92.630	-0.010	-0.150	0.960
2020/01/31 04:13:03.1	92.640	-0.020	-0.090	0.970
2020/01/31 04:13:03.2	92.650	-0.020	-0.040	0.970
2020/01/31 04:13:03.3	92.660	-0.020	0.020	0.970
2020/01/31 04:13:03.4	92.670	-0.020	0.070	0.970
2020/01/31 04:13:03.5	92.680	-0.020	0.110	0.970
2020/01/31 04:13:03.6	92.680	-0.020	0.150	0.970
2020/01/31 04:13:03.7	92.690	-0.020	0.190	0.960
2020/01/31 04:13:03.8	92.690	-0.020	0.220	0.960
2020/01/31 04:13:03.9	92.690	-0.020	0.240	0.950
2020/01/31 04:13:04.0	92.690	-0.010	0.260	0.940
2020/01/31 04:13:04.1	92.690	-0.000	0.280	0.930
2020/01/31 04:13:04.2	92.690	0.010	0.280	0.920
2020/01/31 04:13:04.3	92.680	0.020	0.290	0.900
2020/01/31 04:13:04.4	92.670	0.030	0.280	0.890
2020/01/31 04:13:04.5	92.660	0.040	0.270	0.870
2020/01/31 04:13:04.6	92.640	0.060	0.260	0.860
2020/01/31 04:13:04.7	92.630	0.080	0.240	0.840
2020/01/31 04:13:04.8	92.610	0.100	0.220	0.820
2020/01/31 04:13:04.9	92.590	0.120	0.190	0.810
2020/01/31 04:13:05.0	92.570	0.140	0.160	0.790
2020/01/31 04:13:05.1	92.540	0.160	0.130	0.770
2020/01/31 04:13:05.2	92.520	0.190	0.090	0.750
2020/01/31 04:13:05.3	92.500	0.220	0.040	0.730
2020/01/31 04:13:05.4	92.470	0.240	0.000	0.710
2020/01/31 04:13:05.5	92.450	0.270	-0.040	0.690
2020/01/31 04:13:05.6	92.430	0.300	-0.090	0.670
2020/01/31 04:13:05.7	92.410	0.320	-0.140	0.650
2020/01/31 04:13:05.8	92.390	0.350	-0.190	0.620
2020/01/31 04:13:05.9	92.370	0.370	-0.240	0.600
2020/01/31 04:13:06.0	92.350	0.400	-0.280	0.580
2020/01/31 04:13:06.1	92.330	0.420	-0.330	0.550
2020/01/31 04:13:06.2	92.310	0.450	-0.380	0.530
2020/01/31 04:13:06.3	92.300	0.470	-0.420	0.500
2020/01/31 04:13:06.4	92.290	0.490	-0.470	0.480
2020/01/31 04:13:06.5	92.280	0.500	-0.510	0.460
2020/01/31 04:13:06.6	92.270	0.520	-0.540	0.430
2020/01/31 04:13:06.7	92.270	0.530	-0.580	0.410
2020/01/31 04:13:06.8	92.270	0.540	-0.610	0.390
2020/01/31 04:13:06.9	92.270	0.550	-0.640	0.380
2020/01/31 04:13:07.0	92.280	0.560	-0.670	0.360
2020/01/31 04:13:07.1	92.290	0.560	-0.690	0.340
2020/01/31 04:13:07.2	92.300	0.560	-0.710	0.330
2020/01/31 04:13:07.3	92.310	0.560	-0.730	0.320
2020/01/31 04:13:07.4	92.320	0.560	-0.750	0.310
2020/01/31 04:13:07.5	92.330	0.550	-0.760	0.310
2020/01/31 04:13:07.6	92.350	0.540	-0.760	0.300
2020/01/31 04:13:07.7	92.360	0.530	-0.770	0.300
2020/01/31 04:13:07.8	92.380	0.520	-0.770	0.310
2020/01/31 04:13:07.9	92.390	0.500	-0.760	0.310
2020/01/31 04:13:08.0	92.410	0.480	-0.760	0.320
2020/01/31 04:13:08.1	92.430	0.460	-0.740	0.340
2020/01/31 04:13:08.2	92.440	0.430	-0.730	0.350
2020/01/31 04:13:08.3	92.450	0.410	-0.710	0.370
2020/01/31 04:13:08.4	92.460	0.380	-0.690	0.380
2020/01/31 04:13:08.5	92.470	0.340	-0.660	0.400
2020/01/31 04:13:08.6	92.470	0.310	-0.630	0.420
2020/01/31 04:13:08.7	92.480	0.270	-0.590	0.440
2020/01/31 04:13:08.8	92.480	0.240	-0.550	0.460
2020/01/31 04:13:08.9	92.490	0.200	-0.510	0.480
2020/01/31 04:13:09.0	92.490	0.160	-0.470	0.500
2020/01/31 04:13:09.1	92.500	0.110	-0.420	0.520
2020/01/31 04:13:09.2	92.500	0.070	-0.370	0.540
2020/01/31 04:13:09.3	92.490	0.020	-0.310	0.560
2020/01/31 04:13:09.4	92.490	-0.020	-0.260	0.590
2020/01/31 04:13:09.5	92.480	-0.070	-0.200	0.610
2020/01/31 04:13:09.6	92.480	-0.110	-0.140	0.640
2020/01/31 04:13:09.7	92.470	-0.160	-0.080	0.670
2020/01/31 04:13:09.8	92.460	-0.200	-0.020	0.710
2020/01/31 04:13:09.9	92.440	-0.250	0.040	0.740
2020/01/31 04:13:10.0	92.430	-0.290	0.100	0.780
2020/01/31 04:13:10.1	92.420	-0.330	0.160	0.820
2020/01/31 04:13:10.2	92.400	-0.370	0.220	0.870
2020/01/31 04:13:10.3	92.390	-0.410	0.270	0.910
2020/01/31 04:13:10.4	92.370	-0.450	0.320	0.970
2020/01/31 04:13:10.5	92.350	-0.480	0.370	1.020
2020/01/31 04:13:10.6	92.330	-0.510	0.410	1.070
2020/01/31 04:13:10.7	92.310	-0.540	0.450	1.130
2020/01/31 04:13:10.8	92.300	-0.570	0.480	1.180
2020/01/31 04:13:10.9	92.280	-0.590	0.500	1.230
2020/01/31 04:13:11.0	92.270	-0.610	0.520	1.280
2020/01/31 04:13:11.1	92.260	-0.620	0.530	1.340
2020/01/31 04:13:11.2	92.250	-0.630	0.530	1.380
2020/01/31 04:13:11.3	92.240	-0.640	0.520	1.420
2020/01/31 04:13:11.4	92.240	-0.640	0.510	1.450
2020/01/31 04:13:11.5	92.240	-0.640	0.490	1.480
2020/01/31 04:13:11.6	92.240	-0.640	0.460	1.500
2020/01/31 04:13:11.7	92.240	-0.630	0.430	1.520
2020/01/31 04:13:11.8	92.250	-0.620	0.380	1.530
2020/01/31 04:13:11.9	92.260	-0.610	0.330	1.530
2020/01/31 04:13:12.0	92.270	-0.590	0.280	1.520
2020/01/31 04:13:12.1	92.280	-0.570	0.220	1.500
2020/01/31 04:13:12.2	92.300	-0.550	0.150	1.480
2020/01/31 04:13:12.3	92.330	-0.530	0.080	1.450
2020/01/31 04:13:12.4	92.350	-0.500	0.000	1.420
2020/01/31 04:13:12.5	92.380	-0.470	-0.080	1.380
2020/01/31 04:13:12.6	92.410	-0.440	-0.160	1.340
2020/01/31 04:13:12.7	92.440	-0.400	-0.240	1.290
2020/01/31 04:13:12.8	92.470	-0.370	-0.320	1.240
2020/01/31 04:13:12.9	92.500	-0.330	-0.400	1.200
2020/01/31 04:13:13.0	92.530	-0.290	-0.470	1.150
2020/01/31 04:13:13.1	92.570	-0.250	-0.550	1.110
2020/01/31 04:13:13.2	92.590	-0.210	-0.620	1.060
2020/01/31 04:13:13.3	92.620	-0.180	-0.680	1.020
2020/01/31 04:13:13.4	92.640	-0.140	-0.740	0.980
2020/01/31 04:13:13.5	92.660	-0.100	-0.790	0.950
2020/01/31 04:13:13.6	92.680	-0.060	-0.830	0.920
2020/01/31 04:13:13.7	92.700	-0.030	-0.870	0.880
2020/01/31 04:13:13.8	92.710	0.000	-0.890	0.860
2020/01/31 04:13:13.9	92.720	0.030	-0.910	0.830
2020/01/31 04:13:14.0	92.740	0.060	-0.920	0.810
2020/01/31 04:13:14.1	92.730	0.090	-0.920	0.790
2020/01/31 04:13:14.2	92.740	0.110	-0.900	0.780
2020/01/31 04:13:14.3	92.740	0.130	-0.880	0.760
2020/01/31 04:13:14.4	92.740	0.150	-0.850	0.750
2020/01/31 04:13:14.5	92.740	0.160	-0.820	0.740
2020/01/31 04:13:14.6	92.740	0.170	-0.770	0.740
2020/01/31 04:13:14.7	92.740	0.170	-0.720	0.730
2020/01/31 04:13:14.8	92.730	0.180	-0.650	0.730
2020/01/31 04:13:14.9	92.720	0.170	-0.590	0.730
2020/01/31 04:13:15.0	92.710	0.170	-0.520	0.730
2020/01/31 04:13:15.1	92.690	0.160	-0.440	0.730
2020/01/31 04:13:15.2	92.680	0.150	-0.360	0.740
2020/01/31 04:13:15.3	92.660	0.130	-0.280	0.740
2020/01/31 04:13:15.4	92.640	0.120	-0.200	0.750
2020/01/31 04:13:15.5	92.610	0.100	-0.120	0.760
2020/01/31 04:13:15.6	92.590	0.080	-0.040	0.760
2020/01/31 04:13:15.7	92.560	0.050	0.040	0.770
2020/01/31 04:13:15.8	92.530	0.030	0.110	0.780
2020/01/31 04:13:15.9	92.510	0.000	0.180	0.790
2020/01/31 04:13:16.0	92.480	-0.020	0.250	0.790
2020/01/31 04:13:16.1	92.430	-0.050	0.310	0.800
2020/01/31 04:13:16.2	92.400	-0.070	0.370	0.810
2020/01/31 04:13:16.3	92.370	-0.100	0.410	0.810
2020/01/31 04:13:16.4	92.340	-0.120	0.450	0.810
2020/01/31 04:13:16.5	92.310	-0.150	0.480	0.810
2020/01/31 04:13:16.6	92.280	-0.170	0.500	0.810
2020/01/31 04:13:16.7	92.250	-0.190	0.520	0.800
2020/01/31 04:13:16.8	92.220	-0.200	0.530	0.800
2020/01/31 04:13:16.9	92.190	-0.220	0.520	0.790
2020/01/31 04:13:17.0	92.170	-0.230	0.510	0.770
2020/01/31 04:13:17.1	92.150	-0.240	0.500	0.750
2020/01/31 04:13:17.2	92.130	-0.250	0.470	0.730
2020/01/31 04:13:17.3	92.110	-0.250	0.440	0.710
2020/01/31 04:13:17.4	92.100	-0.250	0.390	0.680
2020/01/31 04:13:17.5	92.090	-0.250	0.340	0.660
2020/01/31 04:13:17.6	92.080	-0.250	0.290	0.620
2020/01/31 04:13:17.7	92.070	-0.240	0.230	0.590
2020/01/31 04:13:17.8	92.070	-0.220	0.160	0.550
2020/01/31 04:13:17.9	92.070	-0.200	0.090	0.510
2020/01/31 04:13:18.0	92.070	-0.180	0.010	0.470
2020/01/31 04:13:18.1	92.070	-0.160	-0.070	0.430
2020/01/31 04:13:18.2	92.090	-0.130	-0.160	0.390
2020/01/31 04:13:18.3	92.100	-0.100	-0.250	0.350
2020/01/31 04:13:18.4	92.120	-0.060	-0.330	0.310
2020/01/31 04:13:18.5	92.130	-0.020	-0.420	0.270
2020/01/31 04:13:18.6	92.150	0.020	-0.510	0.230
2020/01/31 04:13:18.7	92.180	0.060	-0.600	0.200
2020/01/31 04:13:18.8	92.200	0.100	-0.680	0.160
2020/01/31 04:13:18.9	92.220	0.150	-0.760	0.130
2020/01/31 04:13:19.0	92.250	0.200	-0.840	0.110
2020/01/31 04:13:19.1	92.270	0.250	-0.900	0.080
2020/01/31 04:13:19.2	92.300	0.290	-0.970	0.060
2020/01/31 04:13:19.3	92.320	0.340	-1.030	0.040
2020/01/31 04:13:19.4	92.350	0.390	-1.080	0.020
2020/01/31 04:13:19.5	92.370	0.440	-1.130	0.010
2020/01/31 04:13:19.6	92.390	0.480	-1.160	0.010
2020/01/31 04:13:19.7	92.410	0.530	-1.190	0.000
2020/01/31 04:13:19.8	92.430	0.570	-1.210	0.000
2020/01/31 04:13:19.9	92.440	0.600	-1.230	0.010
2020/01/31 04:13:20.0	92.450	0.640	-1.230	0.020
2020/01/31 04:13:20.1	92.450	0.670	-1.230	0.040
2020/01/31 04:13:20.2	92.460	0.690	-1.220	0.050
2020/01/31 04:13:20.3	92.460	0.720	-1.200	0.080
2020/01/31 04:13:20.4	92.460	0.730	-1.160	0.110
2020/01/31 04:13:20.5	92.450	0.740	-1.120	0.140
2020/01/31 04:13:20.6	92.440	0.750	-1.080	0.180
2020/01/31 04:13:20.7	92.420	0.750	-1.020	0.220
2020/01/31 04:13:20.8	92.400	0.740	-0.950	0.260
2020/01/31 04:13:20.9	92.380	0.730	-0.880	0.310
2020/01/31 04:13:21.0	92.360	0.710	-0.800	0.350
2020/01/31 04:13:21.1	92.330	0.690	-0.710	0.410
2020/01/31 04:13:21.2	92.300	0.660	-0.620	0.460
2020/01/31 04:13:21.3	92.270	0.630	-0.530	0.520
2020/01/31 04:13:21.4	92.230	0.590	-0.430	0.570
2020/01/31 04:13:21.5	92.200	0.550	-0.340	0.630
2020/01/31 04:13:21.6	92.160	0.500	-0.240	0.690
2020/01/31 04:13:21.7	92.130	0.450	-0.140	0.740
2020/01/31 04:13:21.8	92.090	0.400	-0.040	0.800
2020/01/31 04:13:21.9	92.060	0.340	0.050	0.860
2020/01/31 04:13:22.0	92.020	0.280	0.150	0.910
2020/01/31 04:13:22.1	92.000	0.220	0.240	0.960
2020/01/31 04:13:22.2	91.970	0.160	0.320	1.010
2020/01/31 04:13:22.3	91.940	0.100	0.410	1.060
2020/01/31 04:13:22.4	91.910	0.040	0.480	1.100
2020/01/31 04:13:22.5	91.890	-0.020	0.550	1.130
2020/01/31 04:13:22.6	91.860	-0.080	0.620	1.170
2020/01/31 04:13:22.7	91.840	-0.140	0.670	1.190
2020/01/31 04:13:22.8	91.830	-0.200	0.710	1.210
2020/01/31 04:13:22.9	91.810	-0.250	0.750	1.220
2020/01/31 04:13:23.0	91.800	-0.300	0.780	1.230
2020/01/31 04:13:23.1	91.800	-0.340	0.800	1.240
2020/01/31 04:13:23.2	91.790	-0.390	0.800	1.230
2020/01/31 04:13:23.3	91.790	-0.420	0.800	1.230
2020/01/31 04:13:23.4	91.780	-0.460	0.790	1.220
2020/01/31 04:13:23.5	91.780	-0.480	0.760	1.200
2020/01/31 04:13:23.6	91.780	-0.500	0.730	1.190
2020/01/31 04:13:23.7	91.790	-0.520	0.690	1.170
2020/01/31 04:13:23.8	91.790	-0.530	0.640	1.150
2020/01/31 04:13:23.9	91.800	-0.540	0.580	1.130
2020/01/31 04:13:24.0	91.810	-0.540	0.520	1.110
2020/01/31 04:13:24.1	91.800	-0.540	0.450	1.090
2020/01/31 04:13:24.2	91.820	-0.530	0.380	1.070
2020/01/31 04:13:24.3	91.830	-0.520	0.300	1.050
2020/01/31 04:13:24.4	91.850	-0.510	0.230	1.030
2020/01/31 04:13:24.5	91.870	-0.500	0.150	1.010
2020/01/31 04:13:24.6	91.890	-0.480	0.080	1.000
2020/01/31 04:13:24.7	91.910	-0.460	0.000	0.980
2020/01/31 04:13:24.8	91.930	-0.430	-0.070	0.970
2020/01/31 04:13:24.9	91.950	-0.410	-0.140	0.960
2020/01/31 04:13:25.0	91.980	-0.390	-0.210	0.940
2020/01/31 04:13:25.1	92.000	-0.360	-0.270	0.930
2020/01/31 04:13:25.2	92.020	-0.340	-0.330	0.920
2020/01/31 04:13:25.3	92.040	-0.310	-0.390	0.910
2020/01/31 04:13:25.4	92.060	-0.290	-0.440	0.900
2020/01/31 04:13:25.5	92.080	-0.260	-0.490	0.890
2020/01/31 04:13:25.6	92.100	-0.240	-0.530	0.880
2020/01/31 04:13:25.7	92.110	-0.220	-0.560	0.880
2020/01/31 04:13:25.8	92.120	-0.200	-0.590	0.870
2020/01/31 04:13:25.9	92.130	-0.180	-0.620	0.870
2020/01/31 04:13:26.0	92.140	-0.170	-0.640	0.860
2020/01/31 04:13:26.1	92.140	-0.150	-0.660	0.870
2020/01/31 04:13:26.2	92.140	-0.140	-0.670	0.870
2020/01/31 04:13:26.3	92.140	-0.120	-0.680	0.870
2020/01/31 04:13:26.4	92.140	-0.110	-0.680	0.870
2020/01/31 04:13:26.5	92.130	-0.100	-0.680	0.880
2020/01/31 04:13:26.6	92.120	-0.080	-0.680	0.890
2020/01/31 04:13:26.7	92.110	-0.070	-0.680	0.900
2020/01/31 04:13:26.8	92.100	-0.060	-0.670	0.920
2020/01/31 04:13:26.9	92.080	-0.050	-0.660	0.940
2020/01/31 04:13:27.0	92.070	-0.030	-0.650	0.960
2020/01/31 04:13:27.1	92.040	-0.020	-0.640	0.970
2020/01/31 04:13:27.2	92.030	-0.010	-0.630	1.000
2020/01/31 04:13:27.3	92.010	0.010	-0.620	1.020
2020/01/31 04:13:27.4	91.990	0.020	-0.610	1.040
2020/01/31 04:13:27.5	91.980	0.040	-0.600	1.070
2020/01/31 04:13:27.6	91.960	0.060	-0.580	1.090
2020/01/31 04:13:27.7	91.950	0.070	-0.570	1.110
2020/01/31 04:13:27.8	91.930	0.090	-0.560	1.130
2020/01/31 04:13:27.9	91.920	0.110	-0.550	1.150
2020/01/31 04:13:28.0	91.910	0.130	-0.540	1.170
2020/01/31 04:13:28.1	91.890	0.150	-0.530	1.190
2020/01/31 04:13:28.2	91.890	0.170	-0.520	1.200
2020/01/31 04:13:28.3	91.880	0.190	-0.510	1.210
2020/01/31 04:13:28.4	91.880	0.210	-0.500	1.220
2020/01/31 04:13:28.5	91.880	0.230	-0.490	1.220
2020/01/31 04:13:28.6	91.880	0.240	-0.470	1.220
2020/01/31 04:13:28.7	91.880	0.260	-0.460	1.220
2020/01/31 04:13:28.8	91.880	0.270	-0.440	1.210
2020/01/31 04:13:28.9	91.890	0.290	-0.430	1.200
2020/01/31 04:13:29.0	91.890	0.290	-0.410	1.190
2020/01/31 04:13:29.1	91.900	0.300	-0.380	1.170
2020/01/31 04:13:29.2	91.910	0.310	-0.360	1.150
2020/01/31 04:13:29.3	91.920	0.310	-0.340	1.130
2020/01/31 04:13:29.4	91.930	0.300	-0.310	1.100
2020/01/31 04:13:29.5	91.940	0.300	-0.290	1.070
2020/01/31 04:13:29.6	91.960	0.290	-0.260	1.030
2020/01/31 04:13:29.7	91.970	0.280	-0.230	1.000
2020/01/31 04:13:29.8	91.990	0.270	-0.200	0.960
2020/01/31 04:13:29.9	92.000	0.250	-0.170	0.920
2020/01/31 04:13:30.0	92.010	0.230	-0.130	0.880
2020/01/31 04:13:30.1	92.030	0.210	-0.100	0.830
2020/01/31 04:13:30.2	92.040	0.190	-0.060	0.790
2020/01/31 04:13:30.3	92.060	0.160	-0.020	0.750
2020/01/31 04:13:30.4	92.070	0.140	0.020	0.700
2020/01/31 04:13:30.5	92.070	0.110	0.050	0.660
2020/01/31 04:13:30.6	92.080	0.090	0.090	0.620
2020/01/31 04:13:30.7	92.080	0.060	0.130	0.580
2020/01/31 04:13:30.8	92.090	0.030	0.170	0.540
2020/01/31 04:13:30.9	92.090	0.010	0.200	0.510
2020/01/31 04:13:31.0	92.090	-0.010	0.240	0.470
2020/01/31 04:13:31.1	92.090	-0.040	0.270	0.440
2020/01/31 04:13:31.2	92.080	-0.060	0.300	0.410
2020/01/31 04:13:31.3	92.080	-0.070	0.320	0.390
2020/01/31 04:13:31.4	92.070	-0.090	0.340	0.370
2020/01/31 04:13:31.5	92.060	-0.100	0.360	0.350
2020/01/31 04:13:31.6	92.050	-0.110	0.370	0.330
2020/01/31 04:13:31.7	92.040	-0.120	0.370	0.310
2020/01/31 04:13:31.8	92.030	-0.130	0.370	0.300
2020/01/31 04:13:31.9	92.010	-0.130	0.360	0.290
2020/01/31 04:13:32.0	92.000	-0.130	0.350	0.280
2020/01/31 04:13:32.1	92.000	-0.130	0.330	0.280
2020/01/31 04:13:32.2	91.990	-0.120	0.300	0.280
2020/01/31 04:13:32.3	91.980	-0.120	0.260	0.280
2020/01/31 04:13:32.4	91.980	-0.110	0.220	0.280
2020/01/31 04:13:32.5	91.970	-0.100	0.170	0.290
2020/01/31 04:13:32.6	91.970	-0.080	0.120	0.290
2020/01/31 04:13:32.7	91.970	-0.070	0.060	0.300
2020/01/31 04:13:32.8	91.970	-0.050	-0.010	0.320
2020/01/31 04:13:32.9	91.970	-0.040	-0.080	0.330
2020/01/31 04:13:33.0	91.970	-0.020	-0.150	0.340
2020/01/31 04:13:33.1	91.990	-0.000	-0.230	0.360
2020/01/31 04:13:33.2	91.990	0.010	-0.310	0.370
2020/01/31 04:13:33.3	92.000	0.030	-0.390	0.390
2020/01/31 04:13:33.4	92.010	0.050	-0.470	0.410
2020/01/31 04:13:33.5	92.020	0.070	-0.550	0.430
2020/01/31 04:13:33.6	92.030	0.080	-0.630	0.440
2020/01/31 04:13:33.7	92.040	0.100	-0.710	0.460
2020/01/31 04:13:33.8	92.050	0.110	-0.780	0.470
2020/01/31 04:13:33.9	92.070	0.120	-0.850	0.480
2020/01/31 04:13:34.0	92.080	0.130	-0.910	0.490
2020/01/31 04:13:34.1	92.080	0.140	-0.970	0.500
2020/01/31 04:13:34.2	92.100	0.150	-1.020	0.510
2020/01/31 04:13:34.3	92.110	0.160	-1.060	0.510
2020/01/31 04:13:34.4	92.130	0.160	-1.090	0.520
2020/01/31 04:13:34.5	92.150	0.160	-1.110	0.520
2020/01/31 04:13:34.6	92.170	0.160	-1.120	0.520
2020/01/31 04:13:34.7	92.190	0.160	-1.120	0.520
2020/01/31 04:13:34.8	92.210	0.150	-1.110	0.520
2020/01/31 04:13:34.9	92.230	0.150	-1.090	0.510
2020/01/31 04:13:35.0	92.250	0.140	-1.050	0.510
2020/01/31 04:13:35.1	92.290	0.130	-1.000	0.510
2020/01/31 04:13:35.2	92.310	0.110	-0.940	0.510
2020/01/31 04:13:35.3	92.340	0.090	-0.870	0.510
2020/01/31 04:13:35.4	92.360	0.080	-0.790	0.510
2020/01/31 04:13:35.5	92.380	0.060	-0.700	0.510
2020/01/31 04:13:35.6	92.400	0.030	-0.600	0.510
2020/01/31 04:13:35.7	92.420	0.010	-0.500	0.510
2020/01/31 04:13:35.8	92.440	-0.020	-0.390	0.520
2020/01/31 04:13:35.9	92.460	-0.040	-0.280	0.520
2020/01/31 04:13:36.0	92.480	-0.070	-0.160	0.530
2020/01/31 04:13:36.1	92.490	-0.100	-0.050	0.550
2020/01/31 04:13:36.2	92.510	-0.130	0.070	0.560
2020/01/31 04:13:36.3	92.520	-0.150	0.180	0.570
2020/01/31 04:13:36.4	92.540	-0.180	0.290	0.580
2020/01/31 04:13:36.5	92.560	-0.210	0.390	0.600
2020/01/31 04:13:36.6	92.570	-0.230	0.490	0.610
2020/01/31 04:13:36.7	92.580	-0.260	0.580	0.630
2020/01/31 04:13:36.8	92.600	-0.280	0.660	0.650
2020/01/31 04:13:36.9	92.610	-0.300	0.730	0.660
2020/01/31 04:13:37.0	92.620	-0.320	0.780	0.680
2020/01/31 04:13:37.1	92.640	-0.330	0.830	0.690
2020/01/31 04:13:37.2	92.650	-0.340	0.870	0.710
2020/01/31 04:13:37.3	92.670	-0.350	0.880	0.730
2020/01/31 04:13:37.4	92.680	-0.350	0.890	0.740
2020/01/31 04:13:37.5	92.690	-0.350	0.880	0.750
2020/01/31 04:13:37.6	92.710	-0.340	0.850	0.770
2020/01/31 04:13:37.7	92.720	-0.330	0.810	0.770
2020/01/31 04:13:37.8	92.740	-0.320	0.760	0.780
2020/01/31 04:13:37.9	92.750	-0.300	0.700	0.780
2020/01/31 04:13:38.0	92.770	-0.270	0.620	0.780
2020/01/31 04:13:38.1	92.790	-0.240	0.530	0.790
2020/01/31 04:13:38.2	92.810	-0.210	0.440	0.780
2020/01/31 04:13:38.3	92.830	-0.170	0.330	0.780
2020/01/31 04:13:38.4	92.840	-0.130	0.220	0.770
2020/01/31 04:13:38.5	92.860	-0.090	0.100	0.750
2020/01/31 04:13:38.6	92.880	-0.040	-0.010	0.740
2020/01/31 04:13:38.7	92.890	0.010	-0.130	0.730
2020/01/31 04:13:38.8	92.900	0.060	-0.260	0.710
2020/01/31 04:13:38.9	92.910	0.110	-0.370	0.700
2020/01/31 04:13:39.0	92.920	0.160	-0.490	0.680
2020/01/31 04:13:39.1	92.930	0.200	-0.610	0.670
2020/01/31 04:13:39.2	92.930	0.250	-0.710	0.660
2020/01/31 04:13:39.3	92.930	0.300	-0.810	0.640
2020/01/31 04:13:39.4	92.920	0.340	-0.900	0.630
2020/01/31 04:13:39.5	92.910	0.390	-0.980	0.620
2020/01/31 04:13:39.6	92.900	0.420	-1.050	0.610
2020/01/31 04:13:39.7	92.880	0.460	-1.110	0.600
2020/01/31 04:13:39.8	92.860	0.490	-1.160	0.600
2020/01/31 04:13:39.9	92.840	0.510	-1.200	0.590
2020/01/31 04:13:40.0	92.820	0.530	-1.220	0.580
2020/01/31 04:13:40.1	92.790	0.540	-1.230	0.570
2020/01/31 04:13:40.2	92.770	0.550	-1.230	0.570
2020/01/31 04:13:40.3	92.740	0.560	-1.210	0.560
2020/01/31 04:13:40.4	92.700	0.550	-1.190	0.560
2020/01/31 04:13:40.5	92.670	0.540	-1.150	0.550
2020/01/31 04:13:40.6	92.640	0.530	-1.100	0.550
2020/01/31 04:13:40.7	92.610	0.510	-1.040	0.550
2020/01/31 04:13:40.8	92.570	0.490	-0.970	0.550
2020/01/31 04:13:40.9	92.540	0.460	-0.900	0.540
2020/01/31 04:13:41.0	92.510	0.420	-0.820	0.540
2020/01/31 04:13:41.1	92.490	0.390	-0.720	0.540
2020/01/31 04:13:41.2	92.460	0.340	-0.620	0.540
2020/01/31 04:13:41.3	92.430	0.300	-0.530	0.530
2020/01/31 04:13:41.4	92.400	0.250	-0.430	0.530
2020/01/31 04:13:41.5	92.380	0.200	-0.320	0.530
2020/01/31 04:13:41.6	92.360	0.150	-0.220	0.530
2020/01/31 04:13:41.7	92.340	0.100	-0.120	0.520
2020/01/31 04:13:41.8	92.320	0.040	-0.020	0.520
2020/01/31 04:13:41.9	92.300	-0.010	0.070	0.510
2020/01/31 04:13:42.0	92.290	-0.060	0.160	0.510
2020/01/31 04:13:42.1	92.280	-0.110	0.250	0.500
2020/01/31 04:13:42.2	92.270	-0.160	0.320	0.500
2020/01/31 04:13:42.3	92.270	-0.210	0.390	0.480
2020/01/31 04:13:42.4	92.260	-0.260	0.450	0.470
2020/01/31 04:13:42.5	92.270	-0.300	0.500	0.460
2020/01/31 04:13:42.6	92.270	-0.340	0.530	0.440
2020/01/31 04:13:42.7	92.280	-0.380	0.560	0.420
2020/01/31 04:13:42.8	92.290	-0.410	0.580	0.410
2020/01/31 04:13:42.9	92.300	-0.440	0.590	0.380
2020/01/31 04:13:43.0	92.320	-0.460	0.580	0.360
2020/01/31 04:13:43.1	92.340	-0.480	0.560	0.330
2020/01/31 04:13:43.2	92.360	-0.490	0.540	0.310
2020/01/31 04:13:43.3	92.380	-0.500	0.500	0.280
2020/01/31 04:13:43.4	92.410	-0.500	0.450	0.260
2020/01/31 04:13:43.5	92.430	-0.500	0.400	0.230
2020/01/31 04:13:43.6	92.460	-0.490	0.340	0.200
2020/01/31 04:13:43.7	92.490	-0.480	0.270	0.180
2020/01/31 04:13:43.8	92.510	-0.470	0.200	0.160
2020/01/31 04:13:43.9	92.540	-0.460	0.120	0.140
2020/01/31 04:13:44.0	92.560	-0.440	0.050	0.120
2020/01/31 04:13:44.1	92.580	-0.420	-0.040	0.100
2020/01/31 04:13:44.2	92.600	-0.390	-0.110	0.090
2020/01/31 04:13:44.3	92.620	-0.370	-0.190	0.080
2020/01/31 04:13:44.4	92.640	-0.340	-0.270	0.070
2020/01/31 04:13:44.5	92.650	-0.320	-0.340	0.060
2020/01/31 04:13:44.6	92.660	-0.290	-0.400	0.060
2020/01/31 04:13:44.7	92.680	-0.270	-0.470	0.060
2020/01/31 04:13:44.8	92.680	-0.240	-0.520	0.060
2020/01/31 04:13:44.9	92.690	-0.220	-0.570	0.070
2020/01/31 04:13:45.0	92.700	-0.190	-0.610	0.090
2020/01/31 04:13:45.1	92.680	-0.170	-0.640	0.110
2020/01/31 04:13:45.2	92.690	-0.150	-0.670	0.130
2020/01/31 04:13:45.3	92.690	-0.130	-0.680	0.170
2020/01/31 04:13:45.4	92.680	-0.120	-0.690	0.200
2020/01/31 04:13:45.5	92.680	-0.100	-0.690	0.250
2020/01/31 04:13:45.6	92.680	-0.090	-0.690	0.300
2020/01/31 04:13:45.7	92.670	-0.080	-0.680	0.350
2020/01/31 04:13:45.8	92.660	-0.070	-0.660	0.410
2020/01/31 04:13:45.9	92.660	-0.060	-0.630	0.470
2020/01/31 04:13:46.0	92.650	-0.060	-0.600	0.530
2020/01/31 04:13:46.1	92.660	-0.050	-0.570	0.600
2020/01/31 04:13:46.2	92.650	-0.050	-0.530	0.670
2020/01/31 04:13:46.3	92.640	-0.050	-0.490	0.730
2020/01/31 04:13:46.4	92.630	-0.050	-0.450	0.800
2020/01/31 04:13:46.5	92.630	-0.050	-0.410	0.860
2020/01/31 04:13:46.6	92.620	-0.050	-0.370	0.910
2020/01/31 04:13:46.7	92.610	-0.050	-0.330	0.970
2020/01/31 04:13:46.8	92.610	-0.050	-0.290	1.010
2020/01/31 04:13:46.9	92.610	-0.050	-0.250	1.060
2020/01/31 04:13:47.0	92.610	-0.050	-0.220	1.090
2020/01/31 04:13:47.1	92.630	-0.050	-0.190	1.120
2020/01/31 04:13:47.2	92.630	-0.050	-0.170	1.150
2020/01/31 04:13:47.3	92.630	-0.040	-0.140	1.160
2020/01/31 04:13:47.4	92.640	-0.040	-0.130	1.170
2020/01/31 04:13:47.5	92.640	-0.030	-0.120	1.170
2020/01/31 04:13:47.6	92.650	-0.020	-0.110	1.170
2020/01/31 04:13:47.7	92.660	-0.010	-0.110	1.160
2020/01/31 04:13:47.8	92.660	-0.000	-0.110	1.140
2020/01/31 04:13:47.9	92.670	0.010	-0.120	1.120
2020/01/31 04:13:48.0	92.680	0.020	-0.130	1.100
2020/01/31 04:13:48.1	92.670	0.040	-0.140	1.080
2020/01/31 04:13:48.2	92.670	0.050	-0.150	1.050
2020/01/31 04:13:48.3	92.670	0.070	-0.170	1.030
2020/01/31 04:13:48.4	92.670	0.080	-0.180	1.000
2020/01/31 04:13:48.5	92.670	0.100	-0.190	0.970
2020/01/31 04:13:48.6	92.660	0.110	-0.210	0.950
2020/01/31 04:13:48.7	92.660	0.130	-0.220	0.920
2020/01/31 04:13:48.8	92.650	0.140	-0.220	0.900
2020/01/31 04:13:48.9	92.640	0.150	-0.230	0.870
2020/01/31 04:13:49.0	92.640	0.160	-0.230	0.850
2020/01/31 04:13:49.1	92.630	0.170	-0.220	0.830
2020/01/31 04:13:49.2	92.610	0.180	-0.220	0.810
2020/01/31 04:13:49.3	92.600	0.180	-0.210	0.790
2020/01/31 04:13:49.4	92.590	0.190	-0.200	0.770
2020/01/31 04:13:49.5	92.570	0.190	-0.180	0.750
2020/01/31 04:13:49.6	92.560	0.190	-0.170	0.740
2020/01/31 04:13:49.7	92.540	0.180	-0.150	0.720
2020/01/31 04:13:49.8	92.520	0.180	-0.130	0.700
2020/01/31 04:13:49.9	92.510	0.170	-0.100	0.690
2020/01/31 04:13:50.0	92.490	0.170	-0.080	0.670
2020/01/31 04:13:50.1	92.470	0.160	-0.050	0.660
2020/01/31 04:13:50.2	92.450	0.150	-0.030	0.640
2020/01/31 04:13:50.3	92.440	0.140	-0.010	0.620
2020/01/31 04:13:50.4	92.420	0.120	0.010	0.610
2020/01/31 04:13:50.5	92.410	0.110	0.030	0.590
2020/01/31 04:13:50.6	92.390	0.100	0.050	0.580
2020/01/31 04:13:50.7	92.380	0.090	0.060	0.560
2020/01/31 04:13:50.8	92.360	0.080	0.070	0.550
2020/01/31 04:13:50.9	92.350	0.070	0.070	0.530
2020/01/31 04:13:51.0	92.340	0.060	0.070	0.520
2020/01/31 04:13:51.1	92.320	0.050	0.060	0.500
2020/01/31 04:13:51.2	92.320	0.040	0.050	0.490
2020/01/31 04:13:51.3	92.310	0.040	0.040	0.480
2020/01/31 04:13:51.4	92.310	0.040	0.020	0.470
2020/01/31 04:13:51.5	92.310	0.040	-0.000	0.450
2020/01/31 04:13:51.6	92.310	0.040	-0.030	0.440
2020/01/31 04:13:51.7	92.310	0.050	-0.060	0.430
2020/01/31 04:13:51.8	92.320	0.050	-0.090	0.430
2020/01/31 04:13:51.9	92.320	0.060	-0.130	0.420
2020/01/31 04:13:52.0	92.330	0.070	-0.170	0.420
2020/01/31 04:13:52.1	92.340	0.080	-0.200	0.410
2020/01/31 04:13:52.2	92.350	0.090	-0.240	0.410
2020/01/31 04:13:52.3	92.370	0.100	-0.280	0.410
2020/01/31 04:13:52.4	92.380	0.120	-0.310	0.420
2020/01/31 04:13:52.5	92.390	0.130	-0.350	0.420
2020/01/31 04:13:52.6	92.410	0.140	-0.380	0.430
2020/01/31 04:13:52.7	92.420	0.150	-0.410	0.440
2020/01/31 04:13:52.8	92.440	0.170	-0.440	0.450
2020/01/31 04:13:52.9	92.450	0.180	-0.460	0.460
2020/01/31 04:13:53.0	92.460	0.190	-0.480	0.470
2020/01/31 04:13:53.1	92.480	0.190	-0.500	0.480
2020/01/31 04:13:53.2	92.490	0.200	-0.510	0.490
2020/01/31 04:13:53.3	92.500	0.210	-0.520	0.510
2020/01/31 04:13:53.4	92.510	0.210	-0.530	0.520
2020/01/31 04:13:53.5	92.520	0.210	-0.520	0.540
2020/01/31 04:13:53.6	92.530	0.210	-0.520	0.560
2020/01/31 04:13:53.7	92.530	0.200	-0.510	0.580
2020/01/31 04:13:53.8	92.530	0.200	-0.500	0.600
2020/01/31 04:13:53.9	92.530	0.190	-0.480	0.620
2020/01/31 04:13:54.0	92.530	0.180	-0.470	0.650
2020/01/31 04:13:54.1	92.520	0.160	-0.440	0.670
2020/01/31 04:13:54.2	92.510	0.150	-0.420	0.700
2020/01/31 04:13:54.3	92.500	0.130	-0.390	0.740
2020/01/31 04:13:54.4	92.490	0.110	-0.360	0.770
2020/01/31 04:13:54.5	92.480	0.090	-0.330	0.810
2020/01/31 04:13:54.6	92.460	0.070	-0.300	0.850
2020/01/31 04:13:54.7	92.440	0.050	-0.260	0.890
2020/01/31 04:13:54.8	92.420	0.020	-0.230	0.930
2020/01/31 04:13:54.9	92.400	0.000	-0.200	0.970
2020/01/31 04:13:55.0	92.380	-0.020	-0.170	1.020
2020/01/31 04:13:55.1	92.380	-0.050	-0.140	1.060
2020/01/31 04:13:55.2	92.360	-0.070	-0.110	1.100
2020/01/31 04:13:55.3	92.340	-0.100	-0.080	1.140
2020/01/31 04:13:55.4	92.330	-0.120	-0.060	1.180
2020/01/31 04:13:55.5	92.310	-0.140	-0.040	1.210
2020/01/31 04:13:55.6	92.300	-0.170	-0.020	1.250
2020/01/31 04:13:55.7	92.290	-0.180	-0.010	1.270
2020/01/31 04:13:55.8	92.280	-0.200	-0.000	1.300
2020/01/31 04:13:55.9	92.270	-0.220	0.000	1.320
2020/01/31 04:13:56.0	92.270	-0.230	0.000	1.330
2020/01/31 04:13:56.1	92.270	-0.240	-0.010	1.340
2020/01/31 04:13:56.2	92.270	-0.250	-0.020	1.350
2020/01/31 04:13:56.3	92.270	-0.250	-0.040	1.350
2020/01/31 04:13:56.4	92.280	-0.250	-0.060	1.350
2020/01/31 04:13:56.5	92.280	-0.250	-0.090	1.350
2020/01/31 04:13:56.6	92.290	-0.250	-0.120	1.330
2020/01/31 04:13:56.7	92.300	-0.240	-0.160	1.320
2020/01/31 04:13:56.8	92.310	-0.230	-0.200	1.300
2020/01/31 04:13:56.9	92.330	-0.210	-0.250	1.280
2020/01/31 04:13:57.0	92.340	-0.190	-0.290	1.250
2020/01/31 04:13:57.1	92.360	-0.170	-0.340	1.230
2020/01/31 04:13:57.2	92.380	-0.150	-0.390	1.200
2020/01/31 04:13:57.3	92.400	-0.120	-0.440	1.170
2020/01/31 04:13:57.4	92.420	-0.100	-0.490	1.140
2020/01/31 04:13:57.5	92.440	-0.070	-0.540	1.110
2020/01/31 04:13:57.6	92.460	-0.040	-0.590	1.070
2020/01/31 04:13:57.7	92.480	-0.010	-0.630	1.040
2020/01/31 04:13:57.8	92.500	0.020	-0.660	1.010
2020/01/31 04:13:57.9	92.510	0.050	-0.690	0.980
2020/01/31 04:13:58.0	92.530	0.080	-0.710	0.950
2020/01/31 04:13:58.1	92.540	0.110	-0.730	0.920
2020/01/31 04:13:58.2	92.550	0.140	-0.740	0.900
2020/01/31 04:13:58.3	92.560	0.160	-0.730	0.880
2020/01/31 04:13:58.4	92.560	0.180	-0.720	0.870
2020/01/31 04:13:58.5	92.570	0.200	-0.690	0.850
2020/01/31 04:13:58.6	92.570	0.220	-0.660	0.840
2020/01/31 04:13:58.7	92.570	0.230	-0.610	0.830
2020/01/31 04:13:58.8	92.560	0.230	-0.560	0.830
2020/01/31 04:13:58.9	92.560	0.240	-0.500	0.820
2020/01/31 04:13:59.0	92.550	0.240	-0.440	0.820
2020/01/31 04:13:59.1	92.540	0.240	-0.360	0.820
2020/01/31 04:13:59.2	92.520	0.230	-0.280	0.820
2020/01/31 04:13:59.3	92.500	0.220	-0.200	0.820
2020/01/31 04:13:59.4	92.480	0.210	-0.120	0.820
2020/01/31 04:13:59.5	92.460	0.190	-0.040	0.820
2020/01/31 04:13:59.6	92.440	0.170	0.040	0.820
2020/01/31 04:13:59.7	92.420	0.150	0.110	0.820
2020/01/31 04:13:59.8	92.400	0.120	0.180	0.820
2020/01/31 04:13:59.9	92.370	0.100	0.250	0.820
2020/01/31 04:14:00.0	92.350	0.070	0.310	0.810
2020/01/31 04:14:00.1	92.330	0.050	0.360	0.800
2020/01/31 04:14:00.2	92.320	0.020	0.400	0.790
2020/01/31 04:14:00.3	92.300	-0.010	0.430	0.770
2020/01/31 04:14:00.4	92.290	-0.030	0.460	0.760
2020/01/31 04:14:00.5	92.280	-0.050	0.470	0.740
2020/01/31 04:14:00.6	92.270	-0.080	0.460	0.720
2020/01/31 04:14:00.7	92.270	-0.090	0.450	0.700
2020/01/31 04:14:00.8	92.270	-0.110	0.430	0.670
2020/01/31 04:14:00.9	92.280	-0.120	0.400	0.650
2020/01/31 04:14:01.0	92.290	-0.130	0.350	0.620
2020/01/31 04:14:01.1	92.300	-0.140	0.300	0.590
2020/01/31 04:14:01.2	92.310	-0.150	0.240	0.560
2020/01/31 04:14:01.3	92.330	-0.150	0.180	0.530
2020/01/31 04:14:01.4	92.350	-0.140	0.100	0.500
2020/01/31 04:14:01.5	92.370	-0.140	0.030	0.470
2020/01/31 04:14:01.6	92.390	-0.130	-0.050	0.440
2020/01/31 04:14:01.7	92.410	-0.120	-0.130	0.420
2020/01/31 04:14:01.8	92.440	-0.100	-0.210	0.390
2020/01/31 04:14:01.9	92.460	-0.090	-0.290	0.360
2020/01/31 04:14:02.0	92.480	-0.070	-0.370	0.340
2020/01/31 04:14:02.1	92.490	-0.050	-0.450	0.320
2020/01/31 04:14:02.2	92.510	-0.030	-0.520	0.300
2020/01/31 04:14:02.3	92.530	-0.020	-0.590	0.280
2020/01/31 04:14:02.4	92.550	0.000	-0.650	0.260
2020/01/31 04:14:02.5	92.570	0.020	-0.700	0.240
2020/01/31 04:14:02.6	92.590	0.040	-0.740	0.230
2020/01/31 04:14:02.7	92.610	0.060	-0.780	0.220
2020/01/31 04:14:02.8	92.620	0.070	-0.800	0.200
2020/01/31 04:14:02.9	92.640	0.090	-0.820	0.200
2020/01/31 04:14:03.0	92.650	0.100	-0.830	0.190
2020/01/31 04:14:03.1	92.650	0.100	-0.830	0.180
2020/01/31 04:14:03.2	92.660	0.110	-0.820	0.180
2020/01/31 04:14:03.3	92.670	0.110	-0.800	0.180
2020/01/31 04:14:03.4	92.680	0.110	-0.770	0.190
2020/01/31 04:14:03.5	92.690	0.110	-0.740	0.200
2020/01/31 04:14:03.6	92.700	0.100	-0.700	0.210
2020/01/31 04:14:03.7	92.700	0.090	-0.650	0.230
2020/01/31 04:14:03.8	92.710	0.080	-0.590	0.240
2020/01/31 04:14:03.9	92.710	0.060	-0.530	0.270
2020/01/31 04:14:04.0	92.720	0.050	-0.460	0.290
2020/01/31 04:14:04.1	92.720	0.020	-0.390	0.330
2020/01/31 04:14:04.2	92.720	0.000	-0.310	0.360
2020/01/31 04:14:04.3	92.720	-0.020	-0.240	0.400
2020/01/31 04:14:04.4	92.720	-0.050	-0.160	0.440
2020/01/31 04:14:04.5	92.720	-0.080	-0.080	0.480
2020/01/31 04:14:04.6	92.720	-0.110	0.000	0.530
2020/01/31 04:14:04.7	92.710	-0.140	0.080	0.580
2020/01/31 04:14:04.8	92.710	-0.180	0.150	0.620
2020/01/31 04:14:04.9	92.700	-0.210	0.220	0.670
2020/01/31 04:14:05.0	92.690	-0.240	0.290	0.720
2020/01/31 04:14:05.1	92.700	-0.270	0.360	0.770
2020/01/31 04:14:05.2	92.690	-0.300	0.410	0.820
2020/01/31 04:14:05.3	92.690	-0.330	0.460	0.860
2020/01/31 04:14:05.4	92.680	-0.360	0.500	0.900
2020/01/31 04:14:05.5	92.680	-0.380	0.540	0.940
2020/01/31 04:14:05.6	92.670	-0.410	0.560	0.980
2020/01/31 04:14:05.7	92.670	-0.420	0.570	1.010
2020/01/31 04:14:05.8	92.670	-0.440	0.580	1.030
2020/01/31 04:14:05.9	92.670	-0.450	0.570	1.050
2020/01/31 04:14:06.0	92.680	-0.460	0.560	1.070
2020/01/31 04:14:06.1	92.670	-0.470	0.530	1.080
2020/01/31 04:14:06.2	92.680	-0.470	0.490	1.080
2020/01/31 04:14:06.3	92.690	-0.460	0.450	1.090
2020/01/31 04:14:06.4	92.700	-0.450	0.390	1.080
2020/01/31 04:14:06.5	92.710	-0.440	0.330	1.070
2020/01/31 04:14:06.6	92.720	-0.430	0.260	1.060
2020/01/31 04:14:06.7	92.740	-0.410	0.190	1.040
2020/01/31 04:14:06.8	92.750	-0.380	0.100	1.030
2020/01/31 04:14:06.9	92.760	-0.360	0.020	1.010
2020/01/31 04:14:07.0	92.780	-0.330	-0.080	0.990
2020/01/31 04:14:07.1	92.790	-0.290	-0.170	0.970
2020/01/31 04:14:07.2	92.800	-0.260	-0.260	0.940
2020/01/31 04:14:07.3	92.810	-0.220	-0.360	0.920
2020/01/31 04:14:07.4	92.810	-0.180	-0.450	0.900
2020/01/31 04:14:07.5	92.820	-0.130	-0.550	0.880
2020/01/31 04:14:07.6	92.820	-0.090	-0.640	0.870
2020/01/31 04:14:07.7	92.820	-0.040	-0.720	0.850
2020/01/31 04:14:07.8	92.820	0.000	-0.800	0.840
2020/01/31 04:14:07.9	92.810	0.050	-0.880	0.830
2020/01/31 04:14:08.0	92.810	0.090	-0.950	0.810
2020/01/31 04:14:08.1	92.810	0.140	-1.010	0.800
2020/01/31 04:14:08.2	92.800	0.180	-1.060	0.790
2020/01/31 04:14:08.3	92.790	0.220	-1.100	0.780
2020/01/31 04:14:08.4	92.790	0.260	-1.140	0.780
2020/01/31 04:14:08.5	92.780	0.300	-1.160	0.770
2020/01/31 04:14:08.6	92.770	0.330	-1.170	0.760
2020/01/31 04:14:08.7	92.760	0.370	-1.180	0.750
2020/01/31 04:14:08.8	92.760	0.400	-1.170	0.740
2020/01/31 04:14:08.9	92.750	0.420	-1.150	0.740
2020/01/31 04:14:09.0	92.740	0.440	-1.120	0.730
2020/01/31 04:14:09.1	92.730	0.460	-1.080	0.720
2020/01/31 04:14:09.2	92.730	0.480	-1.040	0.710
2020/01/31 04:14:09.3	92.730	0.490	-0.980	0.700
2020/01/31 04:14:09.4	92.720	0.500	-0.920	0.700
2020/01/31 04:14:09.5	92.720	0.500	-0.860	0.690
2020/01/31 04:14:09.6	92.720	0.500	-0.780	0.680
2020/01/31 04:14:09.7	92.710	0.500	-0.710	0.680
2020/01/31 04:14:09.8	92.710	0.500	-0.630	0.670
2020/01/31 04:14:09.9	92.710	0.490	-0.540	0.660
2020/01/31 04:14:10.0	92.710	0.480	-0.460	0.660
2020/01/31 04:14:10.1	92.720	0.460	-0.370	0.660
2020/01/31 04:14:10.2	92.720	0.450	-0.290	0.650
2020/01/31 04:14:10.3	92.720	0.430	-0.200	0.640
2020/01/31 04:14:10.4	92.720	0.410	-0.120	0.630
2020/01/31 04:14:10.5	92.710	0.390	-0.050	0.620
2020/01/31 04:14:10.6	92.710	0.370	0.030	0.620
2020/01/31 04:14:10.7	92.700	0.350	0.100	0.600
2020/01/31 04:14:10.8	92.700	0.330	0.160	0.590
2020/01/31 04:14:10.9	92.690	0.300	0.220	0.580
2020/01/31 04:14:11.0	92.690	0.280	0.270	0.570
2020/01/31 04:14:11.1	92.700	0.260	0.310	0.550
2020/01/31 04:14:11.2	92.690	0.240	0.350	0.540
2020/01/31 04:14:11.3	92.680	0.220	0.380	0.520
2020/01/31 04:14:11.4	92.680	0.200	0.400	0.510
2020/01/31 04:14:11.5	92.670	0.180	0.420	0.490
2020/01/31 04:14:11.6	92.670	0.170	0.430	0.480
2020/01/31 04:14:11.7	92.660	0.150	0.420	0.470
2020/01/31 04:14:11.8	92.650	0.140	0.410	0.450
2020/01/31 04:14:11.9	92.650	0.130	0.390	0.430
2020/01/31 04:14:12.0	92.650	0.130	0.370	0.420
2020/01/31 04:14:12.1	92.650	0.120	0.340	0.410
2020/01/31 04:14:12.2	92.650	0.120	0.300	0.390
2020/01/31 04:14:12.3	92.650	0.130	0.250	0.370
2020/01/31 04:14:12.4	92.650	0.130	0.190	0.350
2020/01/31 04:14:12.5	92.660	0.140	0.130	0.330
2020/01/31 04:14:12.6	92.660	0.150	0.070	0.310
2020/01/31 04:14:12.7	92.670	0.160	0.000	0.290
2020/01/31 04:14:12.8	92.680	0.180	-0.070	0.270
2020/01/31 04:14:12.9	92.690	0.190	-0.140	0.250
2020/01/31 04:14:13.0	92.700	0.210	-0.210	0.230
2020/01/31 04:14:13.1	92.710	0.220	-0.280	0.210
2020/01/31 04:14:13.2	92.730	0.240	-0.350	0.190
2020/01/31 04:14:13.3	92.740	0.250	-0.420	0.180
2020/01/31 04:14:13.4	92.760	0.260	-0.480	0.170
2020/01/31 04:14:13.5	92.780	0.280	-0.530	0.160
2020/01/31 04:14:13.6	92.800	0.290	-0.580	0.150
2020/01/31 04:14:13.7	92.820	0.290	-0.630	0.150
2020/01/31 04:14:13.8	92.840	0.300	-0.660	0.150
2020/01/31 04:14:13.9	92.860	0.300	-0.690	0.150
2020/01/31 04:14:14.0	92.880	0.300	-0.710	0.160
2020/01/31 04:14:14.1	92.900	0.290	-0.720	0.170
2020/01/31 04:14:14.2	92.920	0.280	-0.730	0.190
2020/01/31 04:14:14.3	92.950	0.270	-0.720	0.210
2020/01/31 04:14:14.4	92.970	0.250	-0.710	0.230
2020/01/31 04:14:14.5	92.990	0.230	-0.680	0.250
2020/01/31 04:14:14.6	93.010	0.200	-0.650	0.280
2020/01/31 04:14:14.7	93.040	0.170	-0.610	0.310
2020/01/31 04:14:14.8	93.060	0.130	-0.560	0.340
2020/01/31 04:14:14.9	93.090	0.090	-0.510	0.380
2020/01/31 04:14:15.0	93.110	0.050	-0.450	0.410
2020/01/31 04:14:15.1	93.140	0.010	-0.390	0.460
2020/01/31 04:14:15.2	93.160	-0.040	-0.320	0.490
2020/01/31 04:14:15.3	93.180	-0.090	-0.250	0.540
2020/01/31 04:14:15.4	93.210	-0.150	-0.180	0.580
2020/01/31 04:14:15.5	93.230	-0.200	-0.100	0.620
2020/01/31 04:14:15.6	93.250	-0.250	-0.030	0.660
2020/01/31 04:14:15.7	93.270	-0.310	0.040	0.700
2020/01/31 04:14:15.8	93.290	-0.360	0.110	0.740
2020/01/31 04:14:15.9	93.300	-0.420	0.180	0.780
2020/01/31 04:14:16.0	93.320	-0.470	0.250	0.820
2020/01/31 04:14:16.1	93.330	-0.520	0.310	0.860
2020/01/31 04:14:16.2	93.350	-0.570	0.360	0.890
2020/01/31 04:14:16.3	93.360	-0.620	0.420	0.930
2020/01/31 04:14:16.4	93.370	-0.660	0.460	0.960
2020/01/31 04:14:16.5	93.380	-0.710	0.500	1.000
2020/01/31 04:14:16.6	93.390	-0.740	0.530	1.030
2020/01/31 04:14:16.7	93.400	-0.770	0.560	1.050
2020/01/31 04:14:16.8	93.410	-0.800	0.580	1.080
2020/01/31 04:14:16.9	93.420	-0.830	0.590	1.110
2020/01/31 04:14:17.0	93.430	-0.850	0.590	1.130
2020/01/31 04:14:17.1	93.430	-0.860	0.580	1.150
2020/01/31 04:14:17.2	93.430	-0.870	0.570	1.170
2020/01/31 04:14:17.3	93.440	-0.870	0.540	1.190
2020/01/31 04:14:17.4	93.440	-0.870	0.510	1.210
2020/01/31 04:14:17.5	93.440	-0.860	0.480	1.230
2020/01/31 04:14:17.6	93.440	-0.850	0.430	1.240
2020/01/31 04:14:17.7	93.440	-0.840	0.380	1.250
2020/01/31 04:14:17.8	93.430	-0.820	0.320	1.260
2020/01/31 04:14:17.9	93.430	-0.790	0.260	1.270
2020/01/31 04:14:18.0	93.420	-0.760	0.190	1.280
2020/01/31 04:14:18.1	93.420	-0.730	0.120	1.280
2020/01/31 04:14:18.2	93.410	-0.700	0.040	1.290
2020/01/31 04:14:18.3	93.400	-0.660	-0.030	1.290
2020/01/31 04:14:18.4	93.390	-0.620	-0.110	1.290
2020/01/31 04:14:18.5	93.380	-0.570	-0.190	1.290
2020/01/31 04:14:18.6	93.370	-0.530	-0.260	1.290
2020/01/31 04:14:18.7	93.350	-0.480	-0.340	1.280
2020/01/31 04:14:18.8	93.340	-0.440	-0.410	1.270
2020/01/31 04:14:18.9	93.330	-0.390	-0.490	1.260
2020/01/31 04:14:19.0	93.310	-0.350	-0.550	1.240
2020/01/31 04:14:19.1	93.290	-0.300	-0.620	1.220
2020/01/31 04:14:19.2	93.270	-0.250	-0.680	1.200
2020/01/31 04:14:19.3	93.260	-0.210	-0.740	1.180
2020/01/31 04:14:19.4	93.250	-0.160	-0.790	1.160
2020/01/31 04:14:19.5	93.240	-0.120	-0.830	1.130
2020/01/31 04:14:19.6	93.230	-0.080	-0.870	1.100
2020/01/31 04:14:19.7	93.220	-0.040	-0.910	1.070
2020/01/31 04:14:19.8	93.210	-0.000	-0.930	1.030
2020/01/31 04:14:19.9	93.200	0.030	-0.950	1.000
2020/01/31 04:14:20.0	93.190	0.070	-0.970	0.960
2020/01/31 04:14:20.1	93.180	0.100	-0.970	0.920
2020/01/31 04:14:20.2	93.180	0.130	-0.970	0.880
2020/01/31 04:14:20.3	93.170	0.160	-0.970	0.850
2020/01/31 04:14:20.4	93.170	0.180	-0.960	0.810
2020/01/31 04:14:20.5	93.170	0.200	-0.950	0.770
2020/01/31 04:14:20.6	93.170	0.230	-0.930	0.730
2020/01/31 04:14:20.7	93.170	0.240	-0.910	0.690
2020/01/31 04:14:20.8	93.170	0.260	-0.880	0.660
2020/01/31 04:14:20.9	93.170	0.280	-0.860	0.620
2020/01/31 04:14:21.0	93.170	0.300	-0.820	0.590
2020/01/31 04:14:21.1	93.170	0.310	-0.790	0.550
2020/01/31 04:14:21.2	93.180	0.320	-0.760	0.520
2020/01/31 04:14:21.3	93.180	0.340	-0.720	0.490
2020/01/31 04:14:21.4	93.190	0.350	-0.680	0.460
2020/01/31 04:14:21.5	93.190	0.360	-0.640	0.430
2020/01/31 04:14:21.6	93.200	0.370	-0.610	0.400
2020/01/31 04:14:21.7	93.210	0.380	-0.570	0.370
2020/01/31 04:14:21.8	93.220	0.390	-0.530	0.350
2020/01/31 04:14:21.9	93.230	0.400	-0.500	0.320
2020/01/31 04:14:22.0	93.240	0.410	-0.470	0.300
2020/01/31 04:14:22.1	93.240	0.420	-0.430	0.270
2020/01/31 04:14:22.2	93.250	0.430	-0.400	0.250
2020/01/31 04:14:22.3	93.260	0.430	-0.370	0.220
2020/01/31 04:14:22.4	93.280	0.440	-0.350	0.200
2020/01/31 04:14:22.5	93.290	0.450	-0.320	0.180
2020/01/31 04:14:22.6	93.310	0.460	-0.300	0.160
2020/01/31 04:14:22.7	93.330	0.470	-0.270	0.140
2020/01/31 04:14:22.8	93.340	0.470	-0.250	0.120
2020/01/31 04:14:22.9	93.360	0.480	-0.230	0.110
2020/01/31 04:14:23.0	93.370	0.490	-0.220	0.090
2020/01/31 04:14:23.1	93.370	0.490	-0.200	0.080
2020/01/31 04:14:23.2	93.390	0.490	-0.180	0.070
2020/01/31 04:14:23.3	93.400	0.500	-0.160	0.070
2020/01/31 04:14:23.4	93.410	0.500	-0.150	0.070
2020/01/31 04:14:23.5	93.420	0.500	-0.130	0.070
2020/01/31 04:14:23.6	93.420	0.500	-0.110	0.080
2020/01/31 04:14:23.7	93.430	0.490	-0.090	0.090
2020/01/31 04:14:23.8	93.430	0.490	-0.070	0.100
2020/01/31 04:14:23.9	93.430	0.480	-0.050	0.120
2020/01/31 04:14:24.0	93.420	0.470	-0.020	0.130
2020/01/31 04:14:24.1	93.410	0.460	0.000	0.150
2020/01/31 04:14:24.2	93.410	0.440	0.030	0.170
2020/01/31 04:14:24.3	93.400	0.420	0.060	0.190
2020/01/31 04:14:24.4	93.400	0.400	0.100	0.210
2020/01/31 04:14:24.5	93.390	0.380	0.130	0.230
2020/01/31 04:14:24.6	93.380	0.350	0.170	0.250
2020/01/31 04:14:24.7	93.380	0.320	0.210	0.260
2020/01/31 04:14:24.8	93.370	0.290	0.250	0.280
2020/01/31 04:14:24.9	93.360	0.260	0.290	0.300
2020/01/31 04:14:25.0	93.360	0.230	0.330	0.320
2020/01/31 04:14:25.1	93.360	0.190	0.370	0.330
2020/01/31 04:14:25.2	93.350	0.150	0.410	0.350
2020/01/31 04:14:25.3	93.350	0.110	0.450	0.360
2020/01/31 04:14:25.4	93.340	0.070	0.480	0.380
2020/01/31 04:14:25.5	93.340	0.030	0.520	0.390
2020/01/31 04:14:25.6	93.330	-0.000	0.540	0.410
2020/01/31 04:14:25.7	93.330	-0.040	0.570	0.420
2020/01/31 04:14:25.8	93.320	-0.080	0.580	0.440
2020/01/31 04:14:25.9	93.320	-0.120	0.600	0.460
2020/01/31 04:14:26.0	93.320	-0.150	0.600	0.470
2020/01/31 04:14:26.1	93.320	-0.180	0.600	0.490
2020/01/31 04:14:26.2	93.320	-0.210	0.590	0.510
2020/01/31 04:14:26.3	93.310	-0.230	0.570	0.530
2020/01/31 04:14:26.4	93.310	-0.260	0.540	0.540
2020/01/31 04:14:26.5	93.310	-0.270	0.510	0.560
2020/01/31 04:14:26.6	93.310	-0.290	0.460	0.580
2020/01/31 04:14:26.7	93.310	-0.290	0.410	0.590
2020/01/31 04:14:26.8	93.320	-0.300	0.350	0.600
2020/01/31 04:14:26.9	93.320	-0.300	0.280	0.620
2020/01/31 04:14:27.0	93.330	-0.290	0.210	0.630
2020/01/31 04:14:27.1	93.340	-0.280	0.130	0.630
2020/01/31 04:14:27.2	93.350	-0.270	0.040	0.640
2020/01/31 04:14:27.3	93.360	-0.250	-0.050	0.640
2020/01/31 04:14:27.4	93.370	-0.230	-0.150	0.650
2020/01/31 04:14:27.5	93.390	-0.200	-0.250	0.650
2020/01/31 04:14:27.6	93.400	-0.170	-0.350	0.650
2020/01/31 04:14:27.7	93.420	-0.140	-0.450	0.650
2020/01/31 04:14:27.8	93.440	-0.100	-0.560	0.650
2020/01/31 04:14:27.9	93.460	-0.070	-0.660	0.640
2020/01/31 04:14:28.0	93.470	-0.030	-0.760	0.640
2020/01/31 04:14:28.1	93.490	0.010	-0.860	0.640
2020/01/31 04:14:28.2	93.510	0.050	-0.950	0.640
2020/01/31 04:14:28.3	93.530	0.090	-1.030	0.640
2020/01/31 04:14:28.4	93.540	0.130	-1.110	0.640
2020/01/31 04:14:28.5	93.550	0.170	-1.180	0.650
2020/01/31 04:14:28.6	93.560	0.210	-1.240	0.650
2020/01/31 04:14:28.7	93.570	0.240	-1.290	0.660
2020/01/31 04:14:28.8	93.580	0.270	-1.330	0.670
2020/01/31 04:14:28.9	93.580	0.300	-1.360	0.680
2020/01/31 04:14:29.0	93.580	0.320	-1.380	0.700
2020/01/31 04:14:29.1	93.580	0.340	-1.390	0.720
2020/01/31 04:14:29.2	93.570	0.360	-1.380	0.740
2020/01/31 04:14:29.3	93.570	0.370	-1.360	0.760
2020/01/31 04:14:29.4	93.560	0.380	-1.340	0.790
2020/01/31 04:14:29.5	93.540	0.380	-1.300	0.810
2020/01/31 04:14:29.6	93.530	0.370	-1.250	0.850
2020/01/31 04:14:29.7	93.510	0.360	-1.190	0.880
2020/01/31 04:14:29.8	93.490	0.350	-1.120	0.910
2020/01/31 04:14:29.9	93.470	0.330	-1.040	0.940
2020/01/31 04:14:30.0	93.450	0.310	-0.950	0.980
2020/01/31 04:14:30.1	93.420	0.280	-0.860	1.020
2020/01/31 04:14:30.2	93.400	0.250	-0.760	1.050
2020/01/31 04:14:30.3	93.380	0.210	-0.660	1.090
2020/01/31 04:14:30.4	93.350	0.170	-0.550	1.120
2020/01/31 04:14:30.5	93.330	0.130	-0.440	1.160
2020/01/31 04:14:30.6	93.300	0.090	-0.340	1.190
2020/01/31 04:14:30.7	93.280	0.040	-0.230	1.220
2020/01/31 04:14:30.8	93.260	-0.010	-0.120	1.250
2020/01/31 04:14:30.9	93.240	-0.050	-0.020	1.280
2020/01/31 04:14:31.0	93.220	-0.100	0.080	1.300
2020/01/31 04:14:31.1	93.200	-0.150	0.170	1.330
2020/01/31 04:14:31.2	93.190	-0.200	0.260	1.350
2020/01/31 04:14:31.3	93.170	-0.240	0.340	1.370
2020/01/31 04:14:31.4	93.160	-0.290	0.410	1.380
2020/01/31 04:14:31.5	93.150	-0.330	0.470	1.390
2020/01/31 04:14:31.6	93.140	-0.360	0.520	1.400
2020/01/31 04:14:31.7	93.130	-0.400	0.570	1.400
2020/01/31 04:14:31.8	93.130	-0.430	0.600	1.400
2020/01/31 04:14:31.9	93.130	-0.460	0.620	1.400
2020/01/31 04:14:32.0	93.130	-0.480	0.640	1.390
2020/01/31 04:14:32.1	93.140	-0.500	0.640	1.380
2020/01/31 04:14:32.2	93.140	-0.520	0.630	1.360
2020/01/31 04:14:32.3	93.150	-0.530	0.620	1.340
2020/01/31 04:14:32.4	93.160	-0.540	0.600	1.310
2020/01/31 04:14:32.5	93.170	-0.540	0.570	1.290
2020/01/31 04:14:32.6	93.180	-0.550	0.540	1.260
2020/01/31 04:14:32.7	93.180	-0.540	0.500	1.230
2020/01/31 04:14:32.8	93.190	-0.540	0.460	1.190
2020/01/31 04:14:32.9	93.200	-0.540	0.420	1.160
2020/01/31 04:14:33.0	93.210	-0.530	0.380	1.120
2020/01/31 04:14:33.1	93.200	-0.520	0.330	1.080
2020/01/31 04:14:33.2	93.210	-0.520	0.290	1.040
2020/01/31 04:14:33.3	93.210	-0.510	0.240	1.000
2020/01/31 04:14:33.4	93.220	-0.500	0.200	0.960
2020/01/31 04:14:33.5	93.220	-0.490	0.160	0.920
2020/01/31 04:14:33.6	93.220	-0.480	0.120	0.880
2020/01/31 04:14:33.7	93.230	-0.470	0.080	0.840
2020/01/31 04:14:33.8	93.230	-0.460	0.040	0.800
2020/01/31 04:14:33.9	93.230	-0.450	0.010	0.760
2020/01/31 04:14:34.0	93.230	-0.440	-0.020	0.730
2020/01/31 04:14:34.1	93.230	-0.430	-0.050	0.690
2020/01/31 04:14:34.2	93.230	-0.420	-0.070	0.660
2020/01/31 04:14:34.3	93.230	-0.410	-0.100	0.630
2020/01/31 04:14:34.4	93.220	-0.400	-0.120	0.600
2020/01/31 04:14:34.5	93.220	-0.390	-0.140	0.580
2020/01/31 04:14:34.6	93.210	-0.380	-0.160	0.550
2020/01/31 04:14:34.7	93.210	-0.360	-0.170	0.530
2020/01/31 04:14:34.8	93.200	-0.350	-0.190	0.510
2020/01/31 04:14:34.9	93.200	-0.340	-0.210	0.490
2020/01/31 04:14:35.0	93.200	-0.320	-0.230	0.470
2020/01/31 04:14:35.1	93.190	-0.310	-0.250	0.460
2020/01/31 04:14:35.2	93.190	-0.290	-0.270	0.440
2020/01/31 04:14:35.3	93.190	-0.270	-0.290	0.430
2020/01/31 04:14:35.4	93.190	-0.240	-0.320	0.410
2020/01/31 04:14:35.5	93.200	-0.220	-0.340	0.390
2020/01/31 04:14:35.6	93.200	-0.190	-0.370	0.380
2020/01/31 04:14:35.7	93.210	-0.160	-0.400	0.360
2020/01/31 04:14:35.8	93.210	-0.130	-0.440	0.340
2020/01/31 04:14:35.9	93.220	-0.100	-0.470	0.320
2020/01/31 04:14:36.0	93.230	-0.060	-0.510	0.300
2020/01/31 04:14:36.1	93.260	-0.020	-0.550	0.280
2020/01/31 04:14:36.2	93.280	0.020	-0.580	0.270
2020/01/31 04:14:36.3	93.290	0.060	-0.620	0.250
2020/01/31 04:14:36.4	93.300	0.110	-0.660	0.230
2020/01/31 04:14:36.5	93.310	0.150	-0.700	0.210
2020/01/31 04:14:36.6	93.320	0.200	-0.730	0.190
2020/01/31 04:14:36.7	93.330	0.240	-0.760	0.180
2020/01/31 04:14:36.8	93.330	0.290	-0.790	0.160
2020/01/31 04:14:36.9	93.340	0.340	-0.820	0.150
2020/01/31 04:14:37.0	93.350	0.380	-0.840	0.140
2020/01/31 04:14:37.1	93.350	0.430	-0.870	0.130
2020/01/31 04:14:37.2	93.350	0.470	-0.880	0.120
2020/01/31 04:14:37.3	93.360	0.510	-0.890	0.120
2020/01/31 04:14:37.4	93.360	0.550	-0.900	0.120
2020/01/31 04:14:37.5	93.360	0.590	-0.900	0.120
2020/01/31 04:14:37.6	93.370	0.620	-0.890	0.130
2020/01/31 04:14:37.7	93.370	0.650	-0.870	0.140
2020/01/31 04:14:37.8	93.360	0.680	-0.850	0.150
2020/01/31 04:14:37.9	93.360	0.700	-0.830	0.170
2020/01/31 04:14:38.0	93.350	0.710	-0.790	0.190
2020/01/31 04:14:38.1	93.360	0.730	-0.750	0.220
2020/01/31 04:14:38.2	93.350	0.730	-0.700	0.250
2020/01/31 04:14:38.3	93.340	0.740	-0.650	0.280
2020/01/31 04:14:38.4	93.320	0.730	-0.590	0.320
2020/01/31 04:14:38.5	93.310	0.720	-0.520	0.360
2020/01/31 04:14:38.6	93.290	0.710	-0.450	0.400
2020/01/31 04:14:38.7	93.270	0.690	-0.370	0.440
2020/01/31 04:14:38.8	93.250	0.670	-0.290	0.490
2020/01/31 04:14:38.9	93.230	0.640	-0.210	0.530
2020/01/31 04:14:39.0	93.210	0.600	-0.120	0.580
2020/01/31 04:14:39.1	93.200	0.560	-0.040	0.620
2020/01/31 04:14:39.2	93.170	0.520	0.050	0.660
2020/01/31 04:14:39.3	93.150	0.470	0.130	0.700
2020/01/31 04:14:39.4	93.130	0.420	0.220	0.740
2020/01/31 04:14:39.5	93.100	0.360	0.300	0.780
2020/01/31 04:14:39.6	93.080	0.300	0.380	0.810
2020/01/31 04:14:39.7	93.050	0.240	0.450	0.840
2020/01/31 04:14:39.8	93.030	0.180	0.520	0.870
2020/01/31 04:14:39.9	93.010	0.120	0.580	0.890
2020/01/31 04:14:40.0	92.980	0.060	0.640	0.910
2020/01/31 04:14:40.1	92.960	-0.000	0.690	0.930
2020/01/31 04:14:40.2	92.940	-0.070	0.730	0.950
2020/01/31 04:14:40.3	92.920	-0.120	0.750	0.960
2020/01/31 04:14:40.4	92.910	-0.180	0.770	0.960
2020/01/31 04:14:40.5	92.890	-0.240	0.770	0.970
2020/01/31 04:14:40.6	92.880	-0.290	0.770	0.970
2020/01/31 04:14:40.7	92.880	-0.330	0.750	0.960
2020/01/31 04:14:40.8	92.870	-0.370	0.720	0.960
2020/01/31 04:14:40.9	92.870	-0.410	0.680	0.950
2020/01/31 04:14:41.0	92.870	-0.440	0.620	0.950
2020/01/31 04:14:41.1	92.860	-0.460	0.550	0.940
2020/01/31 04:14:41.2	92.860	-0.480	0.470	0.930
2020/01/31 04:14:41.3	92.870	-0.490	0.390	0.920
2020/01/31 04:14:41.4	92.870	-0.500	0.290	0.910
2020/01/31 04:14:41.5	92.880	-0.500	0.190	0.900
2020/01/31 04:14:41.6	92.890	-0.490	0.080	0.900
2020/01/31 04:14:41.7	92.900	-0.480	-0.030	0.890
2020/01/31 04:14:41.8	92.910	-0.460	-0.150	0.890
2020/01/31 04:14:41.9	92.920	-0.440	-0.270	0.890
2020/01/31 04:14:42.0	92.930	-0.410	-0.390	0.890
2020/01/31 04:14:42.1	92.930	-0.380	-0.510	0.890
2020/01/31 04:14:42.2	92.930	-0.350	-0.630	0.890
2020/01/31 04:14:42.3	92.940	-0.310	-0.740	0.890
2020/01/31 04:14:42.4	92.940	-0.270	-0.850	0.900
2020/01/31 04:14:42.5	92.950	-0.230	-0.940	0.900
2020/01/31 04:14:42.6	92.950	-0.190	-1.030	0.910
2020/01/31 04:14:42.7	92.950	-0.140	-1.120	0.910
2020/01/31 04:14:42.8	92.950	-0.100	-1.190	0.920
2020/01/31 04:14:42.9	92.940	-0.060	-1.250	0.920
2020/01/31 04:14:43.0	92.940	-0.010	-1.300	0.930
2020/01/31 04:14:43.1	92.920	0.030	-1.340	0.940
2020/01/31 04:14:43.2	92.910	0.070	-1.370	0.940
2020/01/31 04:14:43.3	92.900	0.100	-1.390	0.950
2020/01/31 04:14:43.4	92.890	0.140	-1.390	0.960
2020/01/31 04:14:43.5	92.880	0.170	-1.390	0.970
2020/01/31 04:14:43.6	92.860	0.190	-1.370	0.980
2020/01/31 04:14:43.7	92.850	0.220	-1.340	0.990
2020/01/31 04:14:43.8	92.830	0.230	-1.300	1.000
2020/01/31 04:14:43.9	92.820	0.250	-1.250	1.010
2020/01/31 04:14:44.0	92.810	0.260	-1.190	1.030
2020/01/31 04:14:44.1	92.800	0.260	-1.120	1.040
2020/01/31 04:14:44.2	92.790	0.270	-1.040	1.060
2020/01/31 04:14:44.3	92.770	0.260	-0.960	1.070
2020/01/31 04:14:44.4	92.760	0.260	-0.870	1.080
2020/01/31 04:14:44.5	92.760	0.250	-0.780	1.100
2020/01/31 04:14:44.6	92.750	0.230	-0.690	1.110
2020/01/31 04:14:44.7	92.740	0.220	-0.590	1.120
2020/01/31 04:14:44.8	92.740	0.200	-0.490	1.140
2020/01/31 04:14:44.9	92.740	0.170	-0.400	1.150
2020/01/31 04:14:45.0	92.750	0.150	-0.300	1.150
2020/01/31 04:14:45.1	92.750	0.130	-0.200	1.160
2020/01/31 04:14:45.2	92.760	0.100	-0.110	1.170
2020/01/31 04:14:45.3	92.770	0.070	-0.020	1.170
2020/01/31 04:14:45.4	92.780	0.040	0.060	1.170
2020/01/31 04:14:45.5	92.790	0.020	0.140	1.170
2020/01/31 04:14:45.6	92.810	-0.010	0.220	1.160
2020/01/31 04:14:45.7	92.830	-0.040	0.290	1.150
2020/01/31 04:14:45.8	92.840	-0.060	0.350	1.140
2020/01/31 04:14:45.9	92.860	-0.090	0.410	1.120
2020/01/31 04:14:46.0	92.880	-0.110	0.460	1.100
2020/01/31 04:14:46.1	92.900	-0.130	0.510	1.080
2020/01/31 04:14:46.2	92.920	-0.150	0.550	1.050
2020/01/31 04:14:46.3	92.940	-0.170	0.580	1.030
2020/01/31 04:14:46.4	92.960	-0.190	0.600	1.000
2020/01/31 04:14:46.5	92.970	-0.200	0.620	0.960
2020/01/31 04:14:46.6	92.990	-0.210	0.640	0.930
2020/01/31 04:14:46.7	93.010	-0.210	0.640	0.900
2020/01/31 04:14:46.8	93.020	-0.220	0.650	0.860
2020/01/31 04:14:46.9	93.040	-0.220	0.640	0.830
2020/01/31 04:14:47.0	93.050	-0.220	0.630	0.790
2020/01/31 04:14:47.1	93.070	-0.220	0.610	0.750
2020/01/31 04:14:47.2	93.080	-0.210	0.590	0.720
2020/01/31 04:14:47.3	93.080	-0.200	0.570	0.690
2020/01/31 04:14:47.4	93.090	-0.190	0.540	0.650
2020/01/31 04:14:47.5	93.090	-0.180	0.510	0.620
2020/01/31 04:14:47.6	93.090	-0.160	0.470	0.590
2020/01/31 04:14:47.7	93.090	-0.150	0.430	0.570
2020/01/31 04:14:47.8	93.080	-0.130	0.390	0.540
2020/01/31 04:14:47.9	93.070	-0.110	0.340	0.520
2020/01/31 04:14:48.0	93.060	-0.090	0.300	0.500
2020/01/31 04:14:48.1	93.060	-0.070	0.250	0.490
2020/01/31 04:14:48.2	93.050	-0.050	0.200	0.470
2020/01/31 04:14:48.3	93.030	-0.030	0.150	0.460
2020/01/31 04:14:48.4	93.010	-0.010	0.100	0.450
2020/01/31 04:14:48.5	93.000	0.010	0.040	0.450
2020/01/31 04:14:48.6	92.980	0.030	-0.010	0.450
2020/01/31 04:14:48.7	92.960	0.050	-0.060	0.450
2020/01/31 04:14:48.8	92.940	0.070	-0.100	0.450
2020/01/31 04:14:48.9	92.910	0.090	-0.150	0.460
2020/01/31 04:14:49.0	92.890	0.100	-0.200	0.460
2020/01/31 04:14:49.1	92.870	0.120	-0.240	0.470
2020/01/31 04:14:49.2	92.840	0.130	-0.280	0.480
2020/01/31 04:14:49.3	92.820	0.140	-0.320	0.490
2020/01/31 04:14:49.4	92.800	0.150	-0.350	0.510
2020/01/31 04:14:49.5	92.790	0.150	-0.380	0.520
2020/01/31 04:14:49.6	92.770	0.160	-0.410	0.530
2020/01/31 04:14:49.7	92.760	0.160	-0.430	0.540
2020/01/31 04:14:49.8	92.750	0.160	-0.450	0.550
2020/01/31 04:14:49.9	92.740	0.150	-0.470	0.570
2020/01/31 04:14:50.0	92.740	0.150	-0.490	0.580
2020/01/31 04:14:50.1	92.760	0.140	-0.500	0.590
2020/01/31 04:14:50.2	92.760	0.130	-0.510	0.600
2020/01/31 04:14:50.3	92.770	0.120	-0.520	0.610
2020/01/31 04:14:50.4	92.780	0.110	-0.530	0.610
2020/01/31 04:14:50.5	92.790	0.090	-0.530	0.620
2020/01/31 04:14:50.6	92.810	0.080	-0.540	0.630
2020/01/31 04:14:50.7	92.830	0.060	-0.540	0.630
2020/01/31 04:14:50.8	92.850	0.050	-0.550	0.640
2020/01/31 04:14:50.9	92.880	0.030	-0.550	0.640
2020/01/31 04:14:51.0	92.910	0.010	-0.550	0.650
2020/01/31 04:14:51.1	92.930	-0.010	-0.550	0.650
2020/01/31 04:14:51.2	92.960	-0.030	-0.550	0.660
2020/01/31 04:14:51.3	92.990	-0.050	-0.550	0.670
2020/01/31 04:14:51.4	93.020	-0.070	-0.540	0.680
2020/01/31 04:14:51.5	93.050	-0.090	-0.540	0.690
2020/01/31 04:14:51.6	93.080	-0.110	-0.540	0.700
2020/01/31 04:14:51.7	93.100	-0.130	-0.530	0.710
2020/01/31 04:14:51.8	93.130	-0.150	-0.530	0.730
2020/01/31 04:14:51.9	93.150	-0.170	-0.520	0.740
2020/01/31 04:14:52.0	93.170	-0.180	-0.510	0.760
2020/01/31 04:14:52.1	93.170	-0.200	-0.500	0.770
2020/01/31 04:14:52.2	93.180	-0.220	-0.490	0.790
2020/01/31 04:14:52.3	93.190	-0.240	-0.490	0.810
2020/01/31 04:14:52.4	93.210	-0.250	-0.480	0.830
2020/01/31 04:14:52.5	93.210	-0.270	-0.470	0.850
2020/01/31 04:14:52.6	93.220	-0.280	-0.460	0.870
2020/01/31 04:14:52.7	93.220	-0.290	-0.450	0.890
2020/01/31 04:14:52.8	93.220	-0.300	-0.440	0.910
2020/01/31 04:14:52.9	93.220	-0.310	-0.420	0.930
2020/01/31 04:14:53.0	93.220	-0.320	-0.410	0.950
2020/01/31 04:14:53.1	93.220	-0.320	-0.400	0.970
2020/01/31 04:14:53.2	93.220	-0.320	-0.390	1.000
2020/01/31 04:14:53.3	93.210	-0.330	-0.380	1.020
2020/01/31 04:14:53.4	93.210	-0.320	-0.370	1.040
2020/01/31 04:14:53.5	93.200	-0.320	-0.360	1.060
2020/01/31 04:14:53.6	93.200	-0.320	-0.350	1.090
2020/01/31 04:14:53.7	93.190	-0.310	-0.340	1.110
2020/01/31 04:14:53.8	93.180	-0.300	-0.330	1.130
2020/01/31 04:14:53.9	93.180	-0.290	-0.320	1.150
2020/01/31 04:14:54.0	93.170	-0.270	-0.310	1.180
2020/01/31 04:14:54.1	93.160	-0.260	-0.300	1.200
2020/01/31 04:14:54.2	93.150	-0.240	-0.290	1.220
2020/01/31 04:14:54.3	93.140	-0.220	-0.280	1.240
2020/01/31 04:14:54.4	93.130	-0.200	-0.270	1.270
2020/01/31 04:14:54.5	93.120	-0.180	-0.260	1.290
2020/01/31 04:14:54.6	93.100	-0.160	-0.250	1.310
2020/01/31 04:14:54.7	93.090	-0.140	-0.250	1.330
2020/01/31 04:14:54.8	93.080	-0.110	-0.240	1.350
2020/01/31 04:14:54.9	93.060	-0.090	-0.230	1.370
2020/01/31 04:14:55.0	93.050	-0.070	-0.220	1.380
2020/01/31 04:14:55.1	93.030	-0.050	-0.210	1.390
2020/01/31 04:14:55.2	93.010	-0.020	-0.200	1.400
2020/01/31 04:14:55.3	92.990	-0.000	-0.190	1.410
2020/01/31 04:14:55.4	92.980	0.020	-0.180	1.410
2020/01/31 04:14:55.5	92.960	0.040	-0.170	1.410
2020/01/31 04:14:55.6	92.940	0.060	-0.160	1.400
2020/01/31 04:14:55.7	92.930	0.070	-0.150	1.390
2020/01/31 04:14:55.8	92.910	0.090	-0.140	1.380
2020/01/31 04:14:55.9	92.900	0.100	-0.130	1.350
2020/01/31 04:14:56.0	92.880	0.120	-0.120	1.330
2020/01/31 04:14:56.1	92.850	0.130	-0.110	1.290
2020/01/31 04:14:56.2	92.830	0.140	-0.110	1.260
2020/01/31 04:14:56.3	92.820	0.150	-0.100	1.210
2020/01/31 04:14:56.4	92.810	0.160	-0.100	1.160
2020/01/31 04:14:56.5	92.800	0.170	-0.100	1.110
2020/01/31 04:14:56.6	92.790	0.180	-0.100	1.050
2020/01/31 04:14:56.7	92.780	0.190	-0.100	0.990
2020/01/31 04:14:56.8	92.770	0.200	-0.110	0.930
2020/01/31 04:14:56.9	92.760	0.210	-0.110	0.860
2020/01/31 04:14:57.0	92.760	0.210	-0.120	0.790
2020/01/31 04:14:57.1	92.760	0.220	-0.120	0.710
2020/01/31 04:14:57.2	92.760	0.230	-0.130	0.640
2020/01/31 04:14:57.3	92.760	0.230	-0.140	0.560
2020/01/31 04:14:57.4	92.760	0.240	-0.150	0.490
2020/01/31 04:14:57.5	92.760	0.250	-0.160	0.420
2020/01/31 04:14:57.6	92.770	0.260	-0.180	0.340
2020/01/31 04:14:57.7	92.780	0.270	-0.190	0.280
2020/01/31 04:14:57.8	92.790	0.280	-0.200	0.210
2020/01/31 04:14:57.9	92.800	0.290	-0.220	0.140
2020/01/31 04:14:58.0	92.820	0.300	-0.230	0.080
2020/01/31 04:14:58.1	92.850	0.310	-0.250	0.020
2020/01/31 04:14:58.2	92.880	0.320	-0.260	-0.030
2020/01/31 04:14:58.3	92.900	0.330	-0.280	-0.080
2020/01/31 04:14:58.4	92.930	0.340	-0.290	-0.130
2020/01/31 04:14:58.5	92.960	0.350	-0.300	-0.180
2020/01/31 04:14:58.6	92.990	0.370	-0.320	-0.220
2020/01/31 04:14:58.7	93.020	0.380	-0.330	-0.260
2020/01/31 04:14:58.8	93.060	0.390	-0.340	-0.290
2020/01/31 04:14:58.9	93.090	0.400	-0.350	-0.330
2020/01/31 04:14:59.0	93.130	0.410	-0.360	-0.350
2020/01/31 04:14:59.1	93.160	0.420	-0.370	-0.370
2020/01/31 04:14:59.2	93.200	0.420	-0.370	-0.390
2020/01/31 04:14:59.3	93.230	0.430	-0.370	-0.400
2020/01/31 04:14:59.4	93.270	0.430	-0.370	-0.400
2020/01/31 04:14:59.5	93.300	0.430	-0.360	-0.400
2020/01/31 04:14:59.6	93.330	0.430	-0.360	-0.390
2020/01/31 04:14:59.7	93.360	0.420	-0.350	-0.380
2020/01/31 04:14:59.8	93.390	0.420	-0.330	-0.360
2020/01/31 04:14:59.9	93.410	0.410	-0.320	-0.330
2020/01/31 04:15:00.0	93.430	0.400	-0.300	-0.300
2020/01/31 04:15:00.1	93.440	0.380	-0.270	-0.270
2020/01/31 04:15:00.2	93.450	0.370	-0.250	-0.230
2020/01/31 04:15:00.3	93.460	0.350	-0.220	-0.180
2020/01/31 04:15:00.4	93.460	0.330	-0.200	-0.130
2020/01/31 04:15:00.5	93.460	0.310	-0.170	-0.070
2020/01/31 04:15:00.6	93.450	0.290	-0.140	-0.020
2020/01/31 04:15:00.7	93.440	0.260	-0.110	0.040
2020/01/31 04:15:00.8	93.430	0.230	-0.070	0.110
2020/01/31 04:15:00.9	93.420	0.210	-0.040	0.170
2020/01/31 04:15:01.0	93.400	0.180	-0.010	0.230
2020/01/31 04:15:01.1	93.390	0.150	0.020	0.300
2020/01/31 04:15:01.2	93.370	0.120	0.050	0.360
2020/01/31 04:15:01.3	93.350	0.090	0.080	0.420
2020/01/31 04:15:01.4	93.330	0.060	0.110	0.480
2020/01/31 04:15:01.5	93.310	0.030	0.130	0.540
2020/01/31 04:15:01.6	93.290	-0.000	0.150	0.600
2020/01/31 04:15:01.7	93.270	-0.030	0.170	0.650
2020/01/31 04:15:01.8	93.260	-0.060	0.190	0.710
2020/01/31 04:15:01.9	93.240	-0.090	0.200	0.760
2020/01/31 04:15:02.0	93.220	-0.110	0.210	0.810
2020/01/31 04:15:02.1	93.210	-0.140	0.210	0.850
2020/01/31 04:15:02.2	93.200	-0.170	0.210	0.890
2020/01/31 04:15:02.3	93.190	-0.190	0.200	0.930
2020/01/31 04:15:02.4	93.180	-0.210	0.190	0.970
2020/01/31 04:15:02.5	93.170	-0.230	0.180	1.010
2020/01/31 04:15:02.6	93.170	-0.250	0.150	1.040
2020/01/31 04:15:02.7	93.170	-0.270	0.130	1.080
2020/01/31 04:15:02.8	93.160	-0.280	0.100	1.110
2020/01/31 04:15:02.9	93.160	-0.300	0.060	1.140
2020/01/31 04:15:03.0	93.160	-0.310	0.020	1.170
2020/01/31 04:15:03.1	93.170	-0.320	-0.020	1.190
2020/01/31 04:15:03.2	93.170	-0.330	-0.070	1.220
2020/01/31 04:15:03.3	93.170	-0.330	-0.110	1.240
2020/01/31 04:15:03.4	93.180	-0.340	-0.170	1.260
2020/01/31 04:15:03.5	93.180	-0.340	-0.220	1.280
2020/01/31 04:15:03.6	93.190	-0.350	-0.270	1.290
2020/01/31 04:15:03.7	93.190	-0.350	-0.320	1.300
2020/01/31 04:15:03.8	93.200	-0.350	-0.380	1.310
2020/01/31 04:15:03.9	93.200	-0.350	-0.430	1.310
2020/01/31 04:15:04.0	93.210	-0.350	-0.480	1.310
2020/01/31 04:15:04.1	93.220	-0.350	-0.530	1.310
2020/01/31 04:15:04.2	93.230	-0.350	-0.570	1.300
2020/01/31 04:15:04.3	93.240	-0.340	-0.610	1.290
2020/01/31 04:15:04.4	93.250	-0.340	-0.640	1.280
2020/01/31 04:15:04.5	93.250	-0.330	-0.670	1.260
2020/01/31 04:15:04.6	93.260	-0.330	-0.690	1.240
2020/01/31 04:15:04.7	93.270	-0.330	-0.710	1.220
2020/01/31 04:15:04.8	93.280	-0.320	-0.720	1.200
2020/01/31 04:15:04.9	93.280	-0.320	-0.720	1.180
2020/01/31 04:15:05.0	93.290	-0.310	-0.720	1.150
2020/01/31 04:15:05.1	93.300	-0.300	-0.700	1.130
2020/01/31 04:15:05.2	93.310	-0.300	-0.690	1.100
2020/01/31 04:15:05.3	93.310	-0.290	-0.670	1.070
2020/01/31 04:15:05.4	93.310	-0.290	-0.650	1.050
2020/01/31 04:15:05.5	93.320	-0.280	-0.620	1.030
2020/01/31 04:15:05.6	93.320	-0.270	-0.590	1.010
2020/01/31 04:15:05.7	93.320	-0.270	-0.550	0.990
2020/01/31 04:15:05.8	93.320	-0.260	-0.520	0.970
2020/01/31 04:15:05.9	93.320	-0.260	-0.480	0.960
2020/01/31 04:15:06.0	93.320	-0.250	-0.440	0.950
2020/01/31 04:15:06.1	93.300	-0.250	-0.400	0.940
2020/01/31 04:15:06.2	93.290	-0.240	-0.360	0.930
2020/01/31 04:15:06.3	93.290	-0.240	-0.310	0.930
2020/01/31 04:15:06.4	93.290	-0.240	-0.270	0.930
2020/01/31 04:15:06.5	93.280	-0.230	-0.230	0.930
2020/01/31 04:15:06.6	93.280	-0.230	-0.180	0.940
2020/01/31 04:15:06.7	93.270	-0.230	-0.140	0.940
2020/01/31 04:15:06.8	93.260	-0.220	-0.110	0.950
2020/01/31 04:15:06.9	93.260	-0.220	-0.070	0.960
2020/01/31 04:15:07.0	93.250	-0.220	-0.040	0.960
2020/01/31 04:15:07.1	93.240	-0.210	-0.010	0.970
2020/01/31 04:15:07.2	93.240	-0.210	0.010	0.970
2020/01/31 04:15:07.3	93.230	-0.210	0.030	0.970
2020/01/31 04:15:07.4	93.230	-0.200	0.050	0.970
2020/01/31 04:15:07.5	93.230	-0.200	0.060	0.970
2020/01/31 04:15:07.6	93.220	-0.190	0.060	0.960
2020/01/31 04:15:07.7	93.220	-0.180	0.060	0.940
2020/01/31 04:15:07.8	93.220	-0.180	0.050	0.930
2020/01/31 04:15:07.9	93.220	-0.160	0.040	0.910
2020/01/31 04:15:08.0	93.210	-0.150	0.020	0.890
2020/01/31 04:15:08.1	93.210	-0.140	0.000	0.870
2020/01/31 04:15:08.2	93.200	-0.120	-0.030	0.840
2020/01/31 04:15:08.3	93.200	-0.100	-0.060	0.810
2020/01/31 04:15:08.4	93.200	-0.080	-0.090	0.770
2020/01/31 04:15:08.5	93.190	-0.060	-0.130	0.740
2020/01/31 04:15:08.6	93.190	-0.030	-0.180	0.710
2020/01/31 04:15:08.7	93.180	-0.000	-0.220	0.670
2020/01/31 04:15:08.8	93.170	0.030	-0.270	0.640
2020/01/31 04:15:08.9	93.160	0.060	-0.310	0.610
2020/01/31 04:15:09.0	93.150	0.090	-0.360	0.580
2020/01/31 04:15:09.1	93.150	0.120	-0.410	0.540
2020/01/31 04:15:09.2	93.140	0.150	-0.450	0.520
2020/01/31 04:15:09.3	93.130	0.180	-0.500	0.500
2020/01/31 04:15:09.4	93.110	0.220	-0.540	0.480
2020/01/31 04:15:09.5	93.090	0.250	-0.570	0.470
2020/01/31 04:15:09.6	93.070	0.280	-0.600	0.450
2020/01/31 04:15:09.7	93.050	0.310	-0.630	0.450
2020/01/31 04:15:09.8	93.030	0.330	-0.650	0.440
2020/01/31 04:15:09.9	93.010	0.350	-0.660	0.440
2020/01/31 04:15:10.0	92.990	0.380	-0.670	0.430
2020/01/31 04:15:10.1	92.970	0.390	-0.670	0.440
2020/01/31 04:15:10.2	92.950	0.410	-0.670	0.430
2020/01/31 04:15:10.3	92.930	0.420	-0.650	0.430
2020/01/31 04:15:10.4	92.910	0.430	-0.640	0.430
2020/01/31 04:15:10.5	92.890	0.430	-0.610	0.430
2020/01/31 04:15:10.6	92.880	0.430	-0.580	0.420
2020/01/31 04:15:10.7	92.860	0.420	-0.550	0.410
2020/01/31 04:15:10.8	92.850	0.420	-0.510	0.410
2020/01/31 04:15:10.9	92.840	0.400	-0.460	0.400
2020/01/31 04:15:11.0	92.830	0.390	-0.410	0.390
2020/01/31 04:15:11.1	92.820	0.370	-0.360	0.380
2020/01/31 04:15:11.2	92.810	0.350	-0.300	0.370
2020/01/31 04:15:11.3	92.800	0.330	-0.250	0.350
2020/01/31 04:15:11.4	92.800	0.300	-0.190	0.340
2020/01/31 04:15:11.5	92.800	0.270	-0.130	0.330
2020/01/31 04:15:11.6	92.800	0.240	-0.070	0.310
2020/01/31 04:15:11.7	92.800	0.210	-0.010	0.300
2020/01/31 04:15:11.8	92.810	0.180	0.050	0.290
2020/01/31 04:15:11.9	92.820	0.140	0.110	0.280
2020/01/31 04:15:12.0	92.830	0.110	0.170	0.270
2020/01/31 04:15:12.1	92.850	0.080	0.220	0.260
2020/01/31 04:15:12.2	92.860	0.050	0.270	0.260
2020/01/31 04:15:12.3	92.870	0.010	0.320	0.260
2020/01/31 04:15:12.4	92.890	-0.020	0.360	0.260
2020/01/31 04:15:12.5	92.900	-0.040	0.390	0.270
2020/01/31 04:15:12.6	92.920	-0.070	0.420	0.280
2020/01/31 04:15:12.7	92.940	-0.090	0.450	0.290
2020/01/31 04:15:12.8	92.960	-0.110	0.470	0.310
2020/01/31 04:15:12.9	92.980	-0.130	0.480	0.330
2020/01/31 04:15:13.0	93.000	-0.150	0.490	0.360
2020/01/31 04:15:13.1	93.010	-0.160	0.480	0.380
2020/01/31 04:15:13.2	93.030	-0.170	0.470	0.410
2020/01/31 04:15:13.3	93.050	-0.170	0.460	0.450
2020/01/31 04:15:13.4	93.070	-0.170	0.430	0.480
2020/01/31 04:15:13.5	93.090	-0.170	0.400	0.520
2020/01/31 04:15:13.6	93.110	-0.170	0.360	0.560
2020/01/31 04:15:13.7	93.130	-0.160	0.320	0.600
2020/01/31 04:15:13.8	93.150	-0.140	0.270	0.640
2020/01/31 04:15:13.9	93.160	-0.130	0.210	0.680
2020/01/31 04:15:14.0	93.180	-0.110	0.150	0.720
2020/01/31 04:15:14.1	93.190	-0.090	0.080	0.760
2020/01/31 04:15:14.2	93.210	-0.060	0.000	0.800
2020/01/31 04:15:14.3	93.220	-0.040	-0.070	0.830
2020/01/31 04:15:14.4	93.230	-0.010	-0.150	0.860
2020/01/31 04:15:14.5	93.230	0.020	-0.230	0.890
2020/01/31 04:15:14.6	93.240	0.050	-0.310	0.920
2020/01/31 04:15:14.7	93.250	0.080	-0.400	0.940
2020/01/31 04:15:14.8	93.260	0.110	-0.480	0.960
2020/01/31 04:15:14.9	93.260	0.140	-0.560	0.970
2020/01/31 04:15:15.0	93.270	0.180	-0.630	0.990
2020/01/31 04:15:15.1	93.270	0.210	-0.710	1.000
2020/01/31 04:15:15.2	93.280	0.240	-0.770	1.010
2020/01/31 04:15:15.3	93.280	0.260	-0.840	1.020
2020/01/31 04:15:15.4	93.280	0.290	-0.890	1.020
2020/01/31 04:15:15.5	93.280	0.320	-0.940	1.030
2020/01/31 04:15:15.6	93.280	0.340	-0.980	1.040
2020/01/31 04:15:15.7	93.280	0.360	-1.010	1.050
2020/01/31 04:15:15.8	93.270	0.380	-1.030	1.060
2020/01/31 04:15:15.9	93.270	0.400	-1.050	1.080
2020/01/31 04:15:16.0	93.260	0.410	-1.050	1.090
2020/01/31 04:15:16.1	93.250	0.420	-1.040	1.110
2020/01/31 04:15:16.2	93.240	0.430	-1.030	1.130
2020/01/31 04:15:16.3	93.230	0.430	-1.000	1.140
2020/01/31 04:15:16.4	93.210	0.440	-0.970	1.160
2020/01/31 04:15:16.5	93.200	0.440	-0.930	1.190
2020/01/31 04:15:16.6	93.180	0.430	-0.880	1.210
2020/01/31 04:15:16.7	93.170	0.420	-0.830	1.230
2020/01/31 04:15:16.8	93.150	0.420	-0.770	1.250
2020/01/31 04:15:16.9	93.130	0.400	-0.700	1.270
2020/01/31 04:15:17.0	93.110	0.390	-0.640	1.290
2020/01/31 04:15:17.1	93.100	0.370	-0.560	1.310
2020/01/31 04:15:17.2	93.080	0.350	-0.490	1.320
2020/01/31 04:15:17.3	93.060	0.330	-0.420	1.330
2020/01/31 04:15:17.4	93.050	0.310	-0.340	1.340
2020/01/31 04:15:17.5	93.030	0.280	-0.270	1.340
2020/01/31 04:15:17.6	93.020	0.260	-0.200	1.340
2020/01/31 04:15:17.7	93.000	0.230	-0.130	1.330
2020/01/31 04:15:17.8	92.990	0.200	-0.070	1.320
2020/01/31 04:15:17.9	92.980	0.170	-0.010	1.300
2020/01/31 04:15:18.0	92.970	0.140	0.040	1.280
2020/01/31 04:15:18.1	92.960	0.110	0.100	1.260
2020/01/31 04:15:18.2	92.950	0.080	0.150	1.230
2020/01/31 04:15:18.3	92.940	0.040	0.190	1.200
2020/01/31 04:15:18.4	92.930	0.010	0.220	1.170
2020/01/31 04:15:18.5	92.920	-0.020	0.250	1.130
2020/01/31 04:15:18.6	92.910	-0.050	0.280	1.100
2020/01/31 04:15:18.7	92.900	-0.090	0.300	1.060
2020/01/31 04:15:18.8	92.880	-0.120	0.320	1.030
2020/01/31 04:15:18.9	92.870	-0.150	0.340	0.990
2020/01/31 04:15:19.0	92.860	-0.190	0.350	0.960
2020/01/31 04:15:19.1	92.840	-0.220	0.350	0.920
2020/01/31 04:15:19.2	92.830	-0.250	0.350	0.890
2020/01/31 04:15:19.3	92.820	-0.280	0.350	0.860
2020/01/31 04:15:19.4	92.800	-0.310	0.350	0.830
2020/01/31 04:15:19.5	92.790	-0.340	0.350	0.800
2020/01/31 04:15:19.6	92.780	-0.370	0.340	0.770
2020/01/31 04:15:19.7	92.770	-0.400	0.330	0.740
2020/01/31 04:15:19.8	92.760	-0.430	0.320	0.720
2020/01/31 04:15:19.9	92.760	-0.450	0.300	0.690
2020/01/31 04:15:20.0	92.750	-0.480	0.280	0.670
2020/01/31 04:15:20.1	92.760	-0.500	0.270	0.640
2020/01/31 04:15:20.2	92.760	-0.520	0.240	0.620
2020/01/31 04:15:20.3	92.760	-0.540	0.220	0.600
2020/01/31 04:15:20.4	92.770	-0.560	0.190	0.580
2020/01/31 04:15:20.5	92.780	-0.570	0.150	0.560
2020/01/31 04:15:20.6	92.790	-0.580	0.120	0.530
2020/01/31 04:15:20.7	92.800	-0.590	0.080	0.510
2020/01/31 04:15:20.8	92.810	-0.600	0.040	0.490
2020/01/31 04:15:20.9	92.830	-0.600	-0.010	0.480
2020/01/31 04:15:21.0	92.850	-0.600	-0.050	0.460
2020/01/31 04:15:21.1	92.870	-0.600	-0.100	0.450
2020/01/31 04:15:21.2	92.890	-0.600	-0.150	0.430
2020/01/31 04:15:21.3	92.910	-0.590	-0.210	0.410
2020/01/31 04:15:21.4	92.930	-0.580	-0.260	0.400
2020/01/31 04:15:21.5	92.940	-0.570	-0.310	0.390
2020/01/31 04:15:21.6	92.960	-0.560	-0.360	0.380
2020/01/31 04:15:21.7	92.980	-0.550	-0.410	0.370
2020/01/31 04:15:21.8	93.000	-0.530	-0.460	0.370
2020/01/31 04:15:21.9	93.020	-0.510	-0.510	0.370
2020/01/31 04:15:22.0	93.030	-0.490	-0.550	0.370
2020/01/31 04:15:22.1	93.060	-0.470	-0.590	0.370
2020/01/31 04:15:22.2	93.070	-0.450	-0.630	0.380
2020/01/31 04:15:22.3	93.090	-0.430	-0.660	0.390
2020/01/31 04:15:22.4	93.100	-0.410	-0.680	0.400
2020/01/31 04:15:22.5	93.110	-0.380	-0.700	0.420
2020/01/31 04:15:22.6	93.120	-0.360	-0.710	0.430
2020/01/31 04:15:22.7	93.120	-0.340	-0.720	0.450
2020/01/31 04:15:22.8	93.130	-0.320	-0.720	0.470
2020/01/31 04:15:22.9	93.130	-0.300	-0.710	0.500
2020/01/31 04:15:23.0	93.140	-0.290	-0.700	0.520
2020/01/31 04:15:23.1	93.140	-0.270	-0.680	0.550
2020/01/31 04:15:23.2	93.140	-0.250	-0.660	0.570
2020/01/31 04:15:23.3	93.140	-0.240	-0.630	0.590
2020/01/31 04:15:23.4	93.140	-0.230	-0.600	0.620
2020/01/31 04:15:23.5	93.140	-0.220	-0.560	0.640
2020/01/31 04:15:23.6	93.140	-0.210	-0.520	0.660
2020/01/31 04:15:23.7	93.130	-0.200	-0.480	0.670
2020/01/31 04:15:23.8	93.130	-0.190	-0.440	0.690
2020/01/31 04:15:23.9	93.130	-0.180	-0.400	0.700
2020/01/31 04:15:24.0	93.120	-0.170	-0.360	0.710
2020/01/31 04:15:24.1	93.130	-0.160	-0.320	0.710
2020/01/31 04:15:24.2	93.120	-0.150	-0.280	0.720
2020/01/31 04:15:24.3	93.120	-0.140	-0.240	0.720
2020/01/31 04:15:24.4	93.120	-0.130	-0.210	0.720
2020/01/31 04:15:24.5	93.110	-0.120	-0.180	0.710
2020/01/31 04:15:24.6	93.110	-0.110	-0.150	0.700
2020/01/31 04:15:24.7	93.110	-0.100	-0.130	0.690
2020/01/31 04:15:24.8	93.110	-0.080	-0.120	0.680
2020/01/31 04:15:24.9	93.110	-0.060	-0.110	0.670
2020/01/31 04:15:25.0	93.110	-0.040	-0.100	0.650
2020/01/31 04:15:25.1	93.080	-0.020	-0.100	0.630
2020/01/31 04:15:25.2	93.080	0.010	-0.100	0.610
2020/01/31 04:15:25.3	93.090	0.040	-0.110	0.590
2020/01/31 04:15:25.4	93.090	0.070	-0.130	0.570
2020/01/31 04:15:25.5	93.090	0.110	-0.150	0.540
2020/01/31 04:15:25.6	93.080	0.140	-0.180	0.520
2020/01/31 04:15:25.7	93.080	0.180	-0.210	0.500
2020/01/31 04:15:25.8	93.080	0.230	-0.240	0.480
2020/01/31 04:15:25.9	93.080	0.270	-0.280	0.460
2020/01/31 04:15:26.0	93.070	0.320	-0.310	0.440
2020/01/31 04:15:26.1	93.080	0.370	-0.360	0.420
2020/01/31 04:15:26.2	93.070	0.420	-0.400	0.400
2020/01/31 04:15:26.3	93.060	0.470	-0.440	0.380
2020/01/31 04:15:26.4	93.050	0.520	-0.480	0.370
2020/01/31 04:15:26.5	93.040	0.570	-0.520	0.350
2020/01/31 04:15:26.6	93.030	0.620	-0.550	0.340
2020/01/31 04:15:26.7	93.020	0.670	-0.590	0.330
2020/01/31 04:15:26.8	93.000	0.720	-0.620	0.310
2020/01/31 04:15:26.9	92.990	0.760	-0.640	0.300
2020/01/31 04:15:27.0	92.970	0.800	-0.670	0.290
2020/01/31 04:15:27.1	92.950	0.840	-0.680	0.280
2020/01/31 04:15:27.2	92.930	0.880	-0.700	0.270
2020/01/31 04:15:27.3	92.900	0.910	-0.700	0.260
2020/01/31 04:15:27.4	92.880	0.930	-0.700	0.240
2020/01/31 04:15:27.5	92.850	0.950	-0.700	0.230
2020/01/31 04:15:27.6	92.830	0.960	-0.690	0.220
2020/01/31 04:15:27.7	92.800	0.970	-0.670	0.210
2020/01/31 04:15:27.8	92.780	0.970	-0.640	0.200
2020/01/31 04:15:27.9	92.750	0.970	-0.610	0.190
2020/01/31 04:15:28.0	92.730	0.960	-0.570	0.180
2020/01/31 04:15:28.1	92.700	0.940	-0.530	0.170
2020/01/31 04:15:28.2	92.680	0.920	-0.480	0.170
2020/01/31 04:15:28.3	92.660	0.890	-0.420	0.170
2020/01/31 04:15:28.4	92.640	0.850	-0.360	0.170
2020/01/31 04:15:28.5	92.620	0.810	-0.290	0.170
2020/01/31 04:15:28.6	92.600	0.770	-0.220	0.170
2020/01/31 04:15:28.7	92.590	0.710	-0.140	0.180
2020/01/31 04:15:28.8	92.570	0.660	-0.060	0.190
2020/01/31 04:15:28.9	92.560	0.600	0.020	0.210
2020/01/31 04:15:29.0	92.550	0.530	0.110	0.220
2020/01/31 04:15:29.1	92.560	0.460	0.200	0.240
2020/01/31 04:15:29.2	92.560	0.390	0.280	0.260
2020/01/31 04:15:29.3	92.560	0.320	0.360	0.280
2020/01/31 04:15:29.4	92.560	0.250	0.450	0.300
2020/01/31 04:15:29.5	92.560	0.170	0.520	0.320
2020/01/31 04:15:29.6	92.570	0.100	0.600	0.340
2020/01/31 04:15:29.7	92.590	0.020	0.660	0.360
2020/01/31 04:15:29.8	92.600	-0.050	0.730	0.380
2020/01/31 04:15:29.9	92.620	-0.120	0.780	0.400
2020/01/31 04:15:30.0	92.640	-0.190	0.820	0.420
2020/01/31 04:15:30.1	92.650	-0.250	0.860	0.440
2020/01/31 04:15:30.2	92.680	-0.310	0.880	0.460
2020/01/31 04:15:30.3	92.700	-0.370	0.890	0.470
2020/01/31 04:15:30.4	92.730	-0.420	0.890	0.490
2020/01/31 04:15:30.5	92.760	-0.460	0.880	0.500
2020/01/31 04:15:30.6	92.790	-0.500	0.850	0.520
2020/01/31 04:15:30.7	92.820	-0.540	0.820	0.530
2020/01/31 04:15:30.8	92.850	-0.560	0.770	0.550
2020/01/31 04:15:30.9	92.880	-0.580	0.710	0.570
2020/01/31 04:15:31.0	92.900	-0.600	0.640	0.580
2020/01/31 04:15:31.1	92.930	-0.610	0.560	0.600
2020/01/31 04:15:31.2	92.960	-0.610	0.470	0.620
2020/01/31 04:15:31.3	92.980	-0.600	0.370	0.640
2020/01/31 04:15:31.4	93.010	-0.600	0.270	0.670
2020/01/31 04:15:31.5	93.030	-0.580	0.160	0.690
2020/01/31 04:15:31.6	93.050	-0.570	0.050	0.720
2020/01/31 04:15:31.7	93.080	-0.550	-0.060	0.760
2020/01/31 04:15:31.8	93.100	-0.520	-0.180	0.790
2020/01/31 04:15:31.9	93.110	-0.500	-0.290	0.840
2020/01/31 04:15:32.0	93.130	-0.470	-0.410	0.880
2020/01/31 04:15:32.1	93.120	-0.440	-0.520	0.930
2020/01/31 04:15:32.2	93.130	-0.410	-0.630	0.980
2020/01/31 04:15:32.3	93.140	-0.380	-0.730	1.040
2020/01/31 04:15:32.4	93.140	-0.350	-0.820	1.100
2020/01/31 04:15:32.5	93.150	-0.320	-0.910	1.160
2020/01/31 04:15:32.6	93.150	-0.290	-0.990	1.230
2020/01/31 04:15:32.7	93.150	-0.260	-1.060	1.290
2020/01/31 04:15:32.8	93.140	-0.240	-1.120	1.360
2020/01/31 04:15:32.9	93.140	-0.220	-1.170	1.430
2020/01/31 04:15:33.0	93.140	-0.200	-1.210	1.490
2020/01/31 04:15:33.1	93.140	-0.190	-1.240	1.560
2020/01/31 04:15:33.2	93.130	-0.180	-1.250	1.620
2020/01/31 04:15:33.3	93.120	-0.170	-1.260	1.680
2020/01/31 04:15:33.4	93.110	-0.160	-1.250	1.740
2020/01/31 04:15:33.5	93.100	-0.160	-1.240	1.800
2020/01/31 04:15:33.6	93.080	-0.170	-1.210	1.850
2020/01/31 04:15:33.7	93.070	-0.170	-1.170	1.890
2020/01/31 04:15:33.8	93.060	-0.180	-1.130	1.930
2020/01/31 04:15:33.9	93.050	-0.190	-1.070	1.960
2020/01/31 04:15:34.0	93.030	-0.210	-1.000	1.990
2020/01/31 04:15:34.1	93.010	-0.230	-0.930	2.020
2020/01/31 04:15:34.2	93.000	-0.250	-0.850	2.040
2020/01/31 04:15:34.3	92.990	-0.270	-0.760	2.040
2020/01/31 04:15:34.4	92.980	-0.290	-0.670	2.050
2020/01/31 04:15:34.5	92.960	-0.310	-0.580	2.050
2020/01/31 04:15:34.6	92.950	-0.340	-0.490	2.040
2020/01/31 04:15:34.7	92.940	-0.360	-0.390	2.030
2020/01/31 04:15:34.8	92.930	-0.390	-0.290	2.010
2020/01/31 04:15:34.9	92.920	-0.410	-0.190	1.990
2020/01/31 04:15:35.0	92.910	-0.430	-0.100	1.970
2020/01/31 04:15:35.1	92.880	-0.460	-0.000	1.940
2020/01/31 04:15:35.2	92.870	-0.480	0.090	1.910
2020/01/31 04:15:35.3	92.860	-0.500	0.170	1.880
2020/01/31 04:15:35.4	92.840	-0.510	0.250	1.840
2020/01/31 04:15:35.5	92.820	-0.530	0.330	1.800
2020/01/31 04:15:35.6	92.810	-0.540	0.400	1.750
2020/01/31 04:15:35.7	92.790	-0.550	0.460	1.700
2020/01/31 04:15:35.8	92.770	-0.550	0.510	1.650
2020/01/31 04:15:35.9	92.750	-0.550	0.550	1.600
2020/01/31 04:15:36.0	92.730	-0.550	0.590	1.540
2020/01/31 04:15:36.1	92.710	-0.550	0.610	1.480
2020/01/31 04:15:36.2	92.690	-0.540	0.630	1.410
2020/01/31 04:15:36.3	92.660	-0.520	0.630	1.340
2020/01/31 04:15:36.4	92.640	-0.500	0.630	1.270
2020/01/31 04:15:36.5	92.620	-0.480	0.610	1.200
2020/01/31 04:15:36.6	92.600	-0.450	0.590	1.120
2020/01/31 04:15:36.7	92.580	-0.420	0.550	1.040
2020/01/31 04:15:36.8	92.560	-0.380	0.510	0.950
2020/01/31 04:15:36.9	92.550	-0.340	0.450	0.870
2020/01/31 04:15:37.0	92.530	-0.300	0.390	0.780
2020/01/31 04:15:37.1	92.510	-0.250	0.320	0.700
2020/01/31 04:15:37.2	92.500	-0.190	0.240	0.610
2020/01/31 04:15:37.3	92.490	-0.140	0.160	0.520
2020/01/31 04:15:37.4	92.480	-0.080	0.070	0.430
2020/01/31 04:15:37.5	92.480	-0.020	-0.030	0.340
2020/01/31 04:15:37.6	92.470	0.050	-0.120	0.260
2020/01/31 04:15:37.7	92.470	0.110	-0.220	0.170
2020/01/31 04:15:37.8	92.470	0.180	-0.320	0.090
2020/01/31 04:15:37.9	92.480	0.250	-0.420	0.020
2020/01/31 04:15:38.0	92.480	0.320	-0.510	-0.050
2020/01/31 04:15:38.1	92.500	0.390	-0.610	-0.120
2020/01/31 04:15:38.2	92.510	0.460	-0.700	-0.180
2020/01/31 04:15:38.3	92.520	0.520	-0.780	-0.240
2020/01/31 04:15:38.4	92.530	0.590	-0.860	-0.280
2020/01/31 04:15:38.5	92.540	0.650	-0.940	-0.330
2020/01/31 04:15:38.6	92.550	0.710	-1.010	-0.360
2020/01/31 04:15:38.7	92.560	0.760	-1.060	-0.390
2020/01/31 04:15:38.8	92.570	0.810	-1.110	-0.420
2020/01/31 04:15:38.9	92.580	0.850	-1.150	-0.440
2020/01/31 04:15:39.0	92.590	0.890	-1.180	-0.460
2020/01/31 04:15:39.1	92.590	0.930	-1.210	-0.470
2020/01/31 04:15:39.2	92.600	0.950	-1.220	-0.480
2020/01/31 04:15:39.3	92.620	0.970	-1.220	-0.490
2020/01/31 04:15:39.4	92.630	0.990	-1.210	-0.500
2020/01/31 04:15:39.5	92.640	0.990	-1.190	-0.500
2020/01/31 04:15:39.6	92.660	0.990	-1.160	-0.500
2020/01/31 04:15:39.7	92.670	0.990	-1.120	-0.500
2020/01/31 04:15:39.8	92.680	0.970	-1.070	-0.500
2020/01/31 04:15:39.9	92.690	0.950	-1.010	-0.490
2020/01/31 04:15:40.0	92.710	0.930	-0.950	-0.470
2020/01/31 04:15:40.1	92.720	0.900	-0.870	-0.450
2020/01/31 04:15:40.2	92.740	0.860	-0.800	-0.430
2020/01/31 04:15:40.3	92.750	0.820	-0.720	-0.410
2020/01/31 04:15:40.4	92.760	0.780	-0.630	-0.380
2020/01/31 04:15:40.5	92.770	0.730	-0.540	-0.350
2020/01/31 04:15:40.6	92.780	0.680	-0.450	-0.310
2020/01/31 04:15:40.7	92.790	0.620	-0.360	-0.270
2020/01/31 04:15:40.8	92.800	0.570	-0.260	-0.230
2020/01/31 04:15:40.9	92.810	0.510	-0.170	-0.180
2020/01/31 04:15:41.0	92.830	0.450	-0.080	-0.130
2020/01/31 04:15:41.1	92.840	0.390	0.000	-0.080
2020/01/31 04:15:41.2	92.850	0.340	0.080	-0.020
2020/01/31 04:15:41.3	92.860	0.280	0.160	0.040
2020/01/31 04:15:41.4	92.870	0.230	0.230	0.100
2020/01/31 04:15:41.5	92.880	0.170	0.290	0.160
2020/01/31 04:15:41.6	92.890	0.120	0.350	0.220
2020/01/31 04:15:41.7	92.900	0.080	0.390	0.280
2020/01/31 04:15:41.8	92.910	0.030	0.430	0.340
2020/01/31 04:15:41.9	92.920	-0.010	0.460	0.400
2020/01/31 04:15:42.0	92.930	-0.050	0.480	0.460
2020/01/31 04:15:42.1	92.940	-0.080	0.500	0.520
2020/01/31 04:15:42.2	92.950	-0.110	0.510	0.580
2020/01/31 04:15:42.3	92.960	-0.140	0.510	0.640
2020/01/31 04:15:42.4	92.960	-0.160	0.500	0.700
2020/01/31 04:15:42.5	92.970	-0.190	0.490	0.750
2020/01/31 04:15:42.6	92.970	-0.210	0.480	0.810
2020/01/31 04:15:42.7	92.970	-0.230	0.460	0.860
2020/01/31 04:15:42.8	92.970	-0.240	0.440	0.910
2020/01/31 04:15:42.9	92.970	-0.260	0.410	0.960
2020/01/31 04:15:43.0	92.960	-0.270	0.390	1.010
2020/01/31 04:15:43.1	92.960	-0.290	0.360	1.070
2020/01/31 04:15:43.2	92.940	-0.310	0.340	1.120
2020/01/31 04:15:43.3	92.930	-0.320	0.320	1.160
2020/01/31 04:15:43.4	92.910	-0.340	0.300	1.210
2020/01/31 04:15:43.5	92.890	-0.350	0.280	1.260
2020/01/31 04:15:43.6	92.870	-0.370	0.260	1.300
2020/01/31 04:15:43.7	92.850	-0.390	0.250	1.340
2020/01/31 04:15:43.8	92.830	-0.410	0.240	1.380
2020/01/31 04:15:43.9	92.800	-0.430	0.230	1.420
2020/01/31 04:15:44.0	92.780	-0.450	0.220	1.460
2020/01/31 04:15:44.1	92.760	-0.470	0.220	1.500
2020/01/31 04:15:44.2	92.740	-0.490	0.220	1.530
2020/01/31 04:15:44.3	92.710	-0.510	0.210	1.560
2020/01/31 04:15:44.4	92.690	-0.530	0.210	1.590
2020/01/31 04:15:44.5	92.660	-0.540	0.210	1.610
2020/01/31 04:15:44.6	92.640	-0.560	0.200	1.630
2020/01/31 04:15:44.7	92.620	-0.580	0.200	1.640
2020/01/31 04:15:44.8	92.600	-0.590	0.190	1.650
2020/01/31 04:15:44.9	92.580	-0.600	0.170	1.660
2020/01/31 04:15:45.0	92.560	-0.610	0.160	1.650
2020/01/31 04:15:45.1	92.560	-0.620	0.140	1.650
2020/01/31 04:15:45.2	92.550	-0.620	0.110	1.640
2020/01/31 04:15:45.3	92.540	-0.610	0.080	1.610
2020/01/31 04:15:45.4	92.540	-0.600	0.040	1.590
2020/01/31 04:15:45.5	92.540	-0.590	-0.010	1.550
2020/01/31 04:15:45.6	92.540	-0.570	-0.060	1.510
2020/01/31 04:15:45.7	92.550	-0.540	-0.120	1.470
2020/01/31 04:15:45.8	92.550	-0.510	-0.190	1.420
2020/01/31 04:15:45.9	92.570	-0.480	-0.260	1.370
2020/01/31 04:15:46.0	92.580	-0.440	-0.340	1.320
2020/01/31 04:15:46.1	92.600	-0.390	-0.420	1.260
2020/01/31 04:15:46.2	92.620	-0.340	-0.500	1.200
2020/01/31 04:15:46.3	92.640	-0.280	-0.590	1.140
2020/01/31 04:15:46.4	92.650	-0.220	-0.680	1.080
2020/01/31 04:15:46.5	92.670	-0.160	-0.770	1.030
2020/01/31 04:15:46.6	92.690	-0.100	-0.860	0.970
2020/01/31 04:15:46.7	92.710	-0.030	-0.950	0.920
2020/01/31 04:15:46.8	92.720	0.040	-1.030	0.870
2020/01/31 04:15:46.9	92.740	0.110	-1.110	0.830
2020/01/31 04:15:47.0	92.750	0.180	-1.190	0.780
2020/01/31 04:15:47.1	92.770	0.240	-1.250	0.740
2020/01/31 04:15:47.2	92.780	0.310	-1.310	0.700
2020/01/31 04:15:47.3	92.790	0.370	-1.360	0.670
2020/01/31 04:15:47.4	92.790	0.430	-1.400	0.640
2020/01/31 04:15:47.5	92.800	0.480	-1.430	0.610
2020/01/31 04:15:47.6	92.810	0.530	-1.450	0.590
2020/01/31 04:15:47.7	92.810	0.580	-1.450	0.570
2020/01/31 04:15:47.8	92.810	0.610	-1.440	0.560
2020/01/31 04:15:47.9	92.810	0.650	-1.420	0.540
2020/01/31 04:15:48.0	92.820	0.670	-1.390	0.530
2020/01/31 04:15:48.1	92.820	0.690	-1.340	0.530
2020/01/31 04:15:48.2	92.810	0.700	-1.280	0.530
2020/01/31 04:15:48.3	92.810	0.700	-1.210	0.530
2020/01/31 04:15:48.4	92.810	0.700	-1.130	0.530
2020/01/31 04:15:48.5	92.810	0.690	-1.030	0.530
2020/01/31 04:15:48.6	92.800	0.670	-0.930	0.540
2020/01/31 04:15:48.7	92.800	0.640	-0.820	0.550
2020/01/31 04:15:48.8	92.790	0.610	-0.700	0.550
2020/01/31 04:15:48.9	92.790	0.570	-0.580	0.560
2020/01/31 04:15:49.0	92.780	0.530	-0.450	0.570
2020/01/31 04:15:49.1	92.770	0.480	-0.320	0.580
2020/01/31 04:15:49.2	92.770	0.420	-0.180	0.590
2020/01/31 04:15:49.3	92.760	0.360	-0.050	0.610
2020/01/31 04:15:49.4	92.740	0.300	0.090	0.620
2020/01/31 04:15:49.5	92.730	0.230	0.220	0.630
2020/01/31 04:15:49.6	92.720	0.160	0.350	0.650
2020/01/31 04:15:49.7	92.700	0.090	0.470	0.660
2020/01/31 04:15:49.8	92.680	0.020	0.590	0.680
2020/01/31 04:15:49.9	92.660	-0.060	0.710	0.690
2020/01/31 04:15:50.0	92.640	-0.130	0.810	0.710
2020/01/31 04:15:50.1	92.610	-0.200	0.910	0.730
2020/01/31 04:15:50.2	92.580	-0.280	0.990	0.740
2020/01/31 04:15:50.3	92.550	-0.340	1.070	0.760
2020/01/31 04:15:50.4	92.520	-0.410	1.130	0.780
2020/01/31 04:15:50.5	92.490	-0.470	1.180	0.790
2020/01/31 04:15:50.6	92.460	-0.530	1.210	0.800
2020/01/31 04:15:50.7	92.440	-0.580	1.240	0.810
2020/01/31 04:15:50.8	92.410	-0.630	1.250	0.810
2020/01/31 04:15:50.9	92.390	-0.670	1.240	0.810
2020/01/31 04:15:51.0	92.370	-0.700	1.220	0.810
2020/01/31 04:15:51.1	92.340	-0.730	1.190	0.800
2020/01/31 04:15:51.2	92.330	-0.750	1.150	0.780
2020/01/31 04:15:51.3	92.320	-0.770	1.090	0.760
2020/01/31 04:15:51.4	92.320	-0.770	1.020	0.730
2020/01/31 04:15:51.5	92.320	-0.770	0.930	0.700
2020/01/31 04:15:51.6	92.330	-0.760	0.840	0.670
2020/01/31 04:15:51.7	92.340	-0.750	0.730	0.630
2020/01/31 04:15:51.8	92.350	-0.730	0.620	0.580
2020/01/31 04:15:51.9	92.370	-0.700	0.500	0.540
2020/01/31 04:15:52.0	92.400	-0.660	0.370	0.490
2020/01/31 04:15:52.1	92.420	-0.620	0.230	0.440
2020/01/31 04:15:52.2	92.450	-0.580	0.100	0.400
2020/01/31 04:15:52.3	92.480	-0.520	-0.040	0.350
2020/01/31 04:15:52.4	92.510	-0.470	-0.180	0.310
2020/01/31 04:15:52.5	92.540	-0.410	-0.320	0.270
2020/01/31 04:15:52.6	92.570	-0.340	-0.460	0.240
2020/01/31 04:15:52.7	92.600	-0.280	-0.600	0.210
2020/01/31 04:15:52.8	92.630	-0.210	-0.720	0.180
2020/01/31 04:15:52.9	92.660	-0.130	-0.850	0.160
2020/01/31 04:15:53.0	92.680	-0.060	-0.960	0.150
2020/01/31 04:15:53.1	92.720	0.010	-1.070	0.130
2020/01/31 04:15:53.2	92.740	0.080	-1.160	0.130
2020/01/31 04:15:53.3	92.760	0.160	-1.250	0.130
2020/01/31 04:15:53.4	92.770	0.230	-1.320	0.140
2020/01/31 04:15:53.5	92.780	0.290	-1.380	0.150
2020/01/31 04:15:53.6	92.790	0.360	-1.420	0.170
2020/01/31 04:15:53.7	92.800	0.420	-1.460	0.190
2020/01/31 04:15:53.8	92.810	0.480	-1.480	0.220
2020/01/31 04:15:53.9	92.810	0.530	-1.480	0.250
2020/01/31 04:15:54.0	92.810	0.580	-1.470	0.280
2020/01/31 04:15:54.1	92.810	0.620	-1.460	0.320
2020/01/31 04:15:54.2	92.810	0.650	-1.420	0.360
2020/01/31 04:15:54.3	92.800	0.680	-1.380	0.400
2020/01/31 04:15:54.4	92.790	0.700	-1.330	0.450
2020/01/31 04:15:54.5	92.780	0.720	-1.260	0.490
2020/01/31 04:15:54.6	92.770	0.730	-1.200	0.530
2020/01/31 04:15:54.7	92.760	0.730	-1.120	0.580
2020/01/31 04:15:54.8	92.750	0.730	-1.040	0.630
2020/01/31 04:15:54.9	92.730	0.720	-0.950	0.670
2020/01/31 04:15:55.0	92.720	0.710	-0.860	0.720
2020/01/31 04:15:55.1	92.700	0.690	-0.770	0.760
2020/01/31 04:15:55.2	92.690	0.660	-0.680	0.810
2020/01/31 04:15:55.3	92.670	0.640	-0.590	0.850
2020/01/31 04:15:55.4	92.660	0.600	-0.500	0.890
2020/01/31 04:15:55.5	92.650	0.570	-0.420	0.920
2020/01/31 04:15:55.6	92.630	0.530	-0.340	0.960
2020/01/31 04:15:55.7	92.620	0.490	-0.260	0.990
2020/01/31 04:15:55.8	92.610	0.440	-0.190	1.010
2020/01/31 04:15:55.9	92.600	0.400	-0.130	1.030
2020/01/31 04:15:56.0	92.580	0.360	-0.070	1.050
2020/01/31 04:15:56.1	92.550	0.310	-0.020	1.070
2020/01/31 04:15:56.2	92.540	0.270	0.020	1.080
2020/01/31 04:15:56.3	92.520	0.220	0.060	1.080
2020/01/31 04:15:56.4	92.510	0.180	0.090	1.080
2020/01/31 04:15:56.5	92.500	0.150	0.110	1.080
2020/01/31 04:15:56.6	92.480	0.110	0.130	1.070
2020/01/31 04:15:56.7	92.470	0.080	0.140	1.060
2020/01/31 04:15:56.8	92.450	0.040	0.140	1.050
2020/01/31 04:15:56.9	92.440	0.020	0.140	1.040
2020/01/31 04:15:57.0	92.430	-0.010	0.140	1.020
2020/01/31 04:15:57.1	92.410	-0.030	0.140	1.000
2020/01/31 04:15:57.2	92.400	-0.040	0.130	0.980
2020/01/31 04:15:57.3	92.390	-0.060	0.120	0.960
2020/01/31 04:15:57.4	92.380	-0.070	0.110	0.930
2020/01/31 04:15:57.5	92.370	-0.070	0.100	0.910
2020/01/31 04:15:57.6	92.370	-0.080	0.090	0.880
2020/01/31 04:15:57.7	92.370	-0.080	0.080	0.860
2020/01/31 04:15:57.8	92.370	-0.080	0.070	0.830
2020/01/31 04:15:57.9	92.380	-0.070	0.070	0.800
2020/01/31 04:15:58.0	92.380	-0.070	0.060	0.770
2020/01/31 04:15:58.1	92.390	-0.060	0.060	0.740
2020/01/31 04:15:58.2	92.400	-0.050	0.060	0.710
2020/01/31 04:15:58.3	92.420	-0.040	0.060	0.690
2020/01/31 04:15:58.4	92.440	-0.040	0.060	0.660
2020/01/31 04:15:58.5	92.460	-0.030	0.070	0.630
2020/01/31 04:15:58.6	92.490	-0.020	0.070	0.600
2020/01/31 04:15:58.7	92.510	-0.010	0.080	0.580
2020/01/31 04:15:58.8	92.540	-0.010	0.080	0.550
2020/01/31 04:15:58.9	92.570	-0.000	0.090	0.530
2020/01/31 04:15:59.0	92.600	0.000	0.100	0.510
2020/01/31 04:15:59.1	92.650	0.010	0.100	0.490
2020/01/31 04:15:59.2	92.680	0.010	0.110	0.470
2020/01/31 04:15:59.3	92.710	0.010	0.110	0.450
2020/01/31 04:15:59.4	92.740	0.000	0.120	0.440
2020/01/31 04:15:59.5	92.770	-0.000	0.120	0.420
2020/01/31 04:15:59.6	92.800	-0.010	0.120	0.410
2020/01/31 04:15:59.7	92.820	-0.020	0.120	0.400
2020/01/31 04:15:59.8	92.850	-0.020	0.110	0.390
2020/01/31 04:15:59.9	92.870	-0.030	0.110	0.390
2020/01/31 04:16:00.0	92.890	-0.050	0.100	0.390
2020/01/31 04:16:00.1	92.900	-0.060	0.090	0.390
2020/01/31 04:16:00.2	92.910	-0.070	0.070	0.390
2020/01/31 04:16:00.3	92.930	-0.090	0.060	0.390
2020/01/31 04:16:00.4	92.940	-0.100	0.040	0.400
2020/01/31 04:16:00.5	92.950	-0.120	0.030	0.410
2020/01/31 04:16:00.6	92.960	-0.140	0.010	0.420
2020/01/31 04:16:00.7	92.960	-0.150	-0.010	0.440
2020/01/31 04:16:00.8	92.970	-0.170	-0.030	0.450
2020/01/31 04:16:00.9	92.970	-0.180	-0.050	0.470
2020/01/31 04:16:01.0	92.970	-0.200	-0.070	0.490
2020/01/31 04:16:01.1	92.970	-0.210	-0.090	0.510
2020/01/31 04:16:01.2	92.970	-0.220	-0.110	0.530
2020/01/31 04:16:01.3	92.970	-0.230	-0.130	0.550
2020/01/31 04:16:01.4	92.960	-0.240	-0.150	0.580
2020/01/31 04:16:01.5	92.960	-0.250	-0.160	0.600
2020/01/31 04:16:01.6	92.960	-0.260	-0.180	0.620
2020/01/31 04:16:01.7	92.960	-0.260	-0.200	0.640
2020/01/31 04:16:01.8	92.960	-0.270	-0.220	0.660
2020/01/31 04:16:01.9	92.960	-0.270	-0.240	0.680
2020/01/31 04:16:02.0	92.960	-0.270	-0.260	0.700
2020/01/31 04:16:02.1	92.950	-0.260	-0.270	0.720
2020/01/31 04:16:02.2	92.960	-0.260	-0.290	0.730
2020/01/31 04:16:02.3	92.960	-0.250	-0.310	0.750
2020/01/31 04:16:02.4	92.970	-0.240	-0.340	0.760
2020/01/31 04:16:02.5	92.980	-0.230	-0.360	0.770
2020/01/31 04:16:02.6	92.990	-0.220	-0.380	0.790
2020/01/31 04:16:02.7	93.000	-0.200	-0.410	0.800
2020/01/31 04:16:02.8	93.020	-0.180	-0.430	0.810
2020/01/31 04:16:02.9	93.030	-0.170	-0.460	0.820
2020/01/31 04:16:03.0	93.040	-0.150	-0.490	0.840
2020/01/31 04:16:03.1	93.060	-0.120	-0.510	0.850
2020/01/31 04:16:03.2	93.070	-0.100	-0.540	0.860
2020/01/31 04:16:03.3	93.080	-0.080	-0.570	0.880
2020/01/31 04:16:03.4	93.090	-0.060	-0.590	0.890
2020/01/31 04:16:03.5	93.100	-0.040	-0.620	0.910
2020/01/31 04:16:03.6	93.110	-0.010	-0.640	0.930
2020/01/31 04:16:03.7	93.110	0.010	-0.660	0.940
2020/01/31 04:16:03.8	93.110	0.030	-0.680	0.960
2020/01/31 04:16:03.9	93.100	0.050	-0.690	0.970
2020/01/31 04:16:04.0	93.100	0.070	-0.700	0.980
2020/01/31 04:16:04.1	93.090	0.080	-0.710	1.000
2020/01/31 04:16:04.2	93.080	0.090	-0.710	1.000
2020/01/31 04:16:04.3	93.060	0.100	-0.700	1.000
2020/01/31 04:16:04.4	93.050	0.110	-0.690	1.000
2020/01/31 04:16:04.5	93.040	0.120	-0.670	0.990
2020/01/31 04:16:04.6	93.020	0.120	-0.640	0.980
2020/01/31 04:16:04.7	93.000	0.120	-0.610	0.970
2020/01/31 04:16:04.8	92.980	0.120	-0.580	0.950
2020/01/31 04:16:04.9	92.960	0.110	-0.540	0.930
2020/01/31 04:16:05.0	92.940	0.100	-0.490	0.900
2020/01/31 04:16:05.1	92.920	0.090	-0.440	0.870
2020/01/31 04:16:05.2	92.900	0.070	-0.390	0.850
2020/01/31 04:16:05.3	92.880	0.060	-0.330	0.820
2020/01/31 04:16:05.4	92.860	0.040	-0.270	0.790
2020/01/31 04:16:05.5	92.840	0.020	-0.210	0.760
2020/01/31 04:16:05.6	92.830	-0.000	-0.150	0.730
2020/01/31 04:16:05.7	92.810	-0.030	-0.090	0.710
2020/01/31 04:16:05.8	92.800	-0.050	-0.030	0.680
2020/01/31 04:16:05.9	92.780	-0.070	0.020	0.660
2020/01/31 04:16:06.0	92.780	-0.100	0.080	0.640
2020/01/31 04:16:06.1	92.780	-0.120	0.130	0.620
2020/01/31 04:16:06.2	92.770	-0.140	0.170	0.600
2020/01/31 04:16:06.3	92.770	-0.160	0.210	0.580
2020/01/31 04:16:06.4	92.770	-0.170	0.240	0.560
2020/01/31 04:16:06.5	92.770	-0.190	0.270	0.550
2020/01/31 04:16:06.6	92.780	-0.200	0.290	0.530
2020/01/31 04:16:06.7	92.790	-0.210	0.300	0.520
2020/01/31 04:16:06.8	92.800	-0.210	0.300	0.500
2020/01/31 04:16:06.9	92.810	-0.220	0.300	0.490
2020/01/31 04:16:07.0	92.820	-0.210	0.290	0.470
2020/01/31 04:16:07.1	92.830	-0.210	0.270	0.460
2020/01/31 04:16:07.2	92.850	-0.200	0.240	0.440
2020/01/31 04:16:07.3	92.860	-0.190	0.210	0.420
2020/01/31 04:16:07.4	92.880	-0.170	0.180	0.410
2020/01/31 04:16:07.5	92.890	-0.150	0.140	0.390
2020/01/31 04:16:07.6	92.910	-0.130	0.090	0.370
2020/01/31 04:16:07.7	92.920	-0.110	0.040	0.350
2020/01/31 04:16:07.8	92.930	-0.080	-0.010	0.330
2020/01/31 04:16:07.9	92.940	-0.050	-0.070	0.310
2020/01/31 04:16:08.0	92.950	-0.020	-0.130	0.290
2020/01/31 04:16:08.1	92.960	0.020	-0.190	0.270
2020/01/31 04:16:08.2	92.960	0.050	-0.260	0.250
2020/01/31 04:16:08.3	92.960	0.090	-0.320	0.230
2020/01/31 04:16:08.4	92.960	0.130	-0.380	0.210
2020/01/31 04:16:08.5	92.960	0.170	-0.440	0.200
2020/01/31 04:16:08.6	92.950	0.200	-0.500	0.180
2020/01/31 04:16:08.7	92.940	0.240	-0.550	0.160
2020/01/31 04:16:08.8	92.930	0.280	-0.600	0.150
2020/01/31 04:16:08.9	92.920	0.310	-0.650	0.140
2020/01/31 04:16:09.0	92.910	0.340	-0.700	0.130
2020/01/31 04:16:09.1	92.900	0.380	-0.730	0.110
2020/01/31 04:16:09.2	92.890	0.400	-0.770	0.110
2020/01/31 04:16:09.3	92.880	0.430	-0.800	0.110
2020/01/31 04:16:09.4	92.860	0.450	-0.820	0.110
2020/01/31 04:16:09.5	92.850	0.470	-0.840	0.120
2020/01/31 04:16:09.6	92.830	0.480	-0.850	0.130
2020/01/31 04:16:09.7	92.820	0.500	-0.850	0.150
2020/01/31 04:16:09.8	92.800	0.500	-0.850	0.180
2020/01/31 04:16:09.9	92.780	0.510	-0.840	0.200
2020/01/31 04:16:10.0	92.770	0.510	-0.830	0.240
2020/01/31 04:16:10.1	92.740	0.510	-0.800	0.270
2020/01/31 04:16:10.2	92.730	0.500	-0.780	0.310
2020/01/31 04:16:10.3	92.710	0.490	-0.750	0.350
2020/01/31 04:16:10.4	92.700	0.480	-0.710	0.400
2020/01/31 04:16:10.5	92.690	0.470	-0.670	0.440
2020/01/31 04:16:10.6	92.680	0.450	-0.620	0.490
2020/01/31 04:16:10.7	92.670	0.430	-0.570	0.530
2020/01/31 04:16:10.8	92.660	0.410	-0.520	0.580
2020/01/31 04:16:10.9	92.650	0.390	-0.460	0.620
2020/01/31 04:16:11.0	92.640	0.370	-0.410	0.660
2020/01/31 04:16:11.1	92.650	0.340	-0.350	0.700
2020/01/31 04:16:11.2	92.640	0.310	-0.290	0.740
2020/01/31 04:16:11.3	92.640	0.290	-0.230	0.780
2020/01/31 04:16:11.4	92.650	0.260	-0.170	0.810
2020/01/31 04:16:11.5	92.650	0.230	-0.110	0.840
2020/01/31 04:16:11.6	92.660	0.210	-0.050	0.860
2020/01/31 04:16:11.7	92.670	0.180	-0.000	0.880
2020/01/31 04:16:11.8	92.680	0.150	0.050	0.900
2020/01/31 04:16:11.9	92.690	0.130	0.090	0.910
2020/01/31 04:16:12.0	92.710	0.100	0.130	0.920
2020/01/31 04:16:12.1	92.730	0.080	0.170	0.930
2020/01/31 04:16:12.2	92.740	0.060	0.200	0.930
2020/01/31 04:16:12.3	92.760	0.030	0.230	0.930
2020/01/31 04:16:12.4	92.780	0.010	0.250	0.940
2020/01/31 04:16:12.5	92.800	-0.010	0.270	0.940
2020/01/31 04:16:12.6	92.810	-0.030	0.280	0.940
2020/01/31 04:16:12.7	92.830	-0.050	0.290	0.940
2020/01/31 04:16:12.8	92.840	-0.060	0.300	0.940
2020/01/31 04:16:12.9	92.850	-0.080	0.300	0.950
2020/01/31 04:16:13.0	92.860	-0.100	0.300	0.950
2020/01/31 04:16:13.1	92.860	-0.120	0.300	0.960
2020/01/31 04:16:13.2	92.870	-0.140	0.300	0.960
2020/01/31 04:16:13.3	92.870	-0.160	0.290	0.970
2020/01/31 04:16:13.4	92.870	-0.180	0.280	0.980
2020/01/31 04:16:13.5	92.870	-0.190	0.270	0.980
2020/01/31 04:16:13.6	92.870	-0.210	0.260	0.990
2020/01/31 04:16:13.7	92.870	-0.230	0.240	1.000
2020/01/31 04:16:13.8	92.870	-0.250	0.230	1.010
2020/01/31 04:16:13.9	92.870	-0.270	0.220	1.010
2020/01/31 04:16:14.0	92.870	-0.290	0.200	1.020
2020/01/31 04:16:14.1	92.860	-0.310	0.180	1.030
2020/01/31 04:16:14.2	92.860	-0.330	0.170	1.030
2020/01/31 04:16:14.3	92.860	-0.350	0.150	1.030
2020/01/31 04:16:14.4	92.860	-0.370	0.130	1.030
2020/01/31 04:16:14.5	92.860	-0.380	0.110	1.040
2020/01/31 04:16:14.6	92.860	-0.400	0.090	1.030
2020/01/31 04:16:14.7	92.870	-0.410	0.070	1.030
2020/01/31 04:16:14.8	92.870	-0.430	0.050	1.030
2020/01/31 04:16:14.9	92.880	-0.440	0.030	1.020
2020/01/31 04:16:15.0	92.880	-0.450	0.010	1.010
2020/01/31 04:16:15.1	92.900	-0.460	-0.020	1.010
2020/01/31 04:16:15.2	92.900	-0.460	-0.040	1.000
2020/01/31 04:16:15.3	92.900	-0.460	-0.070	1.000
2020/01/31 04:16:15.4	92.910	-0.460	-0.090	1.000
2020/01/31 04:16:15.5	92.900	-0.460	-0.120	1.000
2020/01/31 04:16:15.6	92.900	-0.460	-0.150	1.000
2020/01/31 04:16:15.7	92.900	-0.450	-0.180	1.000
2020/01/31 04:16:15.8	92.890	-0.440	-0.200	1.010
2020/01/31 04:16:15.9	92.880	-0.430	-0.230	1.020
2020/01/31 04:16:16.0	92.870	-0.410	-0.260	1.030
2020/01/31 04:16:16.1	92.860	-0.390	-0.290	1.040
2020/01/31 04:16:16.2	92.850	-0.380	-0.320	1.050
2020/01/31 04:16:16.3	92.830	-0.350	-0.340	1.060
2020/01/31 04:16:16.4	92.820	-0.330	-0.370	1.080
2020/01/31 04:16:16.5	92.800	-0.310	-0.390	1.090
2020/01/31 04:16:16.6	92.790	-0.280	-0.410	1.100
2020/01/31 04:16:16.7	92.770	-0.260	-0.430	1.100
2020/01/31 04:16:16.8	92.760	-0.230	-0.450	1.110
2020/01/31 04:16:16.9	92.740	-0.200	-0.470	1.110
2020/01/31 04:16:17.0	92.730	-0.180	-0.480	1.110
2020/01/31 04:16:17.1	92.710	-0.150	-0.490	1.110
2020/01/31 04:16:17.2	92.700	-0.120	-0.500	1.100
2020/01/31 04:16:17.3	92.690	-0.090	-0.510	1.100
2020/01/31 04:16:17.4	92.680	-0.070	-0.520	1.080
2020/01/31 04:16:17.5	92.670	-0.040	-0.530	1.070
2020/01/31 04:16:17.6	92.670	-0.020	-0.530	1.050
2020/01/31 04:16:17.7	92.670	0.010	-0.540	1.040
2020/01/31 04:16:17.8	92.670	0.030	-0.540	1.020
2020/01/31 04:16:17.9	92.670	0.050	-0.540	0.990
2020/01/31 04:16:18.0	92.670	0.080	-0.550	0.970
2020/01/31 04:16:18.1	92.680	0.100	-0.550	0.940
2020/01/31 04:16:18.2	92.680	0.120	-0.550	0.910
2020/01/31 04:16:18.3	92.690	0.140	-0.550	0.880
2020/01/31 04:16:18.4	92.700	0.160	-0.560	0.850
2020/01/31 04:16:18.5	92.720	0.180	-0.560	0.810
2020/01/31 04:16:18.6	92.730	0.210	-0.560	0.780
2020/01/31 04:16:18.7	92.740	0.230	-0.570	0.750
2020/01/31 04:16:18.8	92.760	0.250	-0.570	0.720
2020/01/31 04:16:18.9	92.780	0.270	-0.580	0.690
2020/01/31 04:16:19.0	92.800	0.290	-0.580	0.660
2020/01/31 04:16:19.1	92.810	0.320	-0.580	0.630
2020/01/31 04:16:19.2	92.830	0.340	-0.580	0.610
2020/01/31 04:16:19.3	92.850	0.360	-0.580	0.580
2020/01/31 04:16:19.4	92.870	0.380	-0.580	0.560
2020/01/31 04:16:19.5	92.890	0.400	-0.580	0.540
2020/01/31 04:16:19.6	92.910	0.430	-0.580	0.520
2020/01/31 04:16:19.7	92.930	0.450	-0.570	0.510
2020/01/31 04:16:19.8	92.950	0.470	-0.560	0.500
2020/01/31 04:16:19.9	92.970	0.490	-0.550	0.490
2020/01/31 04:16:20.0	92.980	0.500	-0.540	0.480
2020/01/31 04:16:20.1	93.020	0.520	-0.530	0.480
2020/01/31 04:16:20.2	93.030	0.530	-0.510	0.470
2020/01/31 04:16:20.3	93.040	0.540	-0.490	0.480
2020/01/31 04:16:20.4	93.050	0.540	-0.460	0.480
2020/01/31 04:16:20.5	93.050	0.550	-0.440	0.490
2020/01/31 04:16:20.6	93.050	0.550	-0.410	0.500
2020/01/31 04:16:20.7	93.050	0.540	-0.370	0.510
2020/01/31 04:16:20.8	93.050	0.530	-0.340	0.520
2020/01/31 04:16:20.9	93.040	0.520	-0.300	0.530
2020/01/31 04:16:21.0	93.040	0.510	-0.270	0.550
2020/01/31 04:16:21.1	93.020	0.490	-0.230	0.570
2020/01/31 04:16:21.2	93.010	0.460	-0.190	0.580
2020/01/31 04:16:21.3	93.000	0.440	-0.150	0.600
2020/01/31 04:16:21.4	92.980	0.410	-0.110	0.620
2020/01/31 04:16:21.5	92.970	0.370	-0.070	0.630
2020/01/31 04:16:21.6	92.950	0.340	-0.040	0.650
2020/01/31 04:16:21.7	92.930	0.300	-0.000	0.670
2020/01/31 04:16:21.8	92.910	0.260	0.030	0.690
2020/01/31 04:16:21.9	92.890	0.210	0.060	0.700
2020/01/31 04:16:22.0	92.870	0.170	0.090	0.720
2020/01/31 04:16:22.1	92.870	0.130	0.110	0.730
2020/01/31 04:16:22.2	92.850	0.080	0.130	0.750
2020/01/31 04:16:22.3	92.830	0.040	0.150	0.760
2020/01/31 04:16:22.4	92.810	-0.010	0.170	0.780
2020/01/31 04:16:22.5	92.800	-0.050	0.180	0.790
2020/01/31 04:16:22.6	92.780	-0.090	0.190	0.800
2020/01/31 04:16:22.7	92.770	-0.130	0.190	0.810
2020/01/31 04:16:22.8	92.760	-0.170	0.190	0.820
2020/01/31 04:16:22.9	92.740	-0.200	0.190	0.830
2020/01/31 04:16:23.0	92.730	-0.230	0.190	0.830
2020/01/31 04:16:23.1	92.710	-0.260	0.180	0.840
2020/01/31 04:16:23.2	92.710	-0.280	0.170	0.840
2020/01/31 04:16:23.3	92.700	-0.300	0.150	0.840
2020/01/31 04:16:23.4	92.700	-0.310	0.140	0.840
2020/01/31 04:16:23.5	92.690	-0.320	0.110	0.840
2020/01/31 04:16:23.6	92.690	-0.330	0.090	0.840
2020/01/31 04:16:23.7	92.690	-0.330	0.060	0.830
2020/01/31 04:16:23.8	92.690	-0.330	0.030	0.830
2020/01/31 04:16:23.9	92.700	-0.320	-0.010	0.820
2020/01/31 04:16:24.0	92.700	-0.310	-0.050	0.810
2020/01/31 04:16:24.1	92.710	-0.290	-0.100	0.800
2020/01/31 04:16:24.2	92.720	-0.270	-0.140	0.780
2020/01/31 04:16:24.3	92.730	-0.240	-0.190	0.770
2020/01/31 04:16:24.4	92.740	-0.220	-0.240	0.750
2020/01/31 04:16:24.5	92.750	-0.190	-0.300	0.740
2020/01/31 04:16:24.6	92.770	-0.160	-0.350	0.720
2020/01/31 04:16:24.7	92.780	-0.120	-0.400	0.700
2020/01/31 04:16:24.8	92.800	-0.090	-0.450	0.680
2020/01/31 04:16:24.9	92.820	-0.060	-0.490	0.670
2020/01/31 04:16:25.0	92.830	-0.020	-0.540	0.650
2020/01/31 04:16:25.1	92.840	0.010	-0.570	0.640
2020/01/31 04:16:25.2	92.860	0.040	-0.610	0.630
2020/01/31 04:16:25.3	92.870	0.070	-0.630	0.620
2020/01/31 04:16:25.4	92.890	0.090	-0.650	0.610
2020/01/31 04:16:25.5	92.910	0.110	-0.660	0.600
2020/01/31 04:16:25.6	92.920	0.130	-0.670	0.600
2020/01/31 04:16:25.7	92.940	0.140	-0.670	0.590
2020/01/31 04:16:25.8	92.950	0.150	-0.660	0.590
2020/01/31 04:16:25.9	92.960	0.160	-0.640	0.590
2020/01/31 04:16:26.0	92.970	0.160	-0.620	0.590
2020/01/31 04:16:26.1	92.980	0.160	-0.590	0.600
2020/01/31 04:16:26.2	92.990	0.150	-0.550	0.610
2020/01/31 04:16:26.3	92.990	0.140	-0.500	0.620
2020/01/31 04:16:26.4	93.000	0.130	-0.450	0.630
2020/01/31 04:16:26.5	93.000	0.110	-0.400	0.640
2020/01/31 04:16:26.6	93.000	0.090	-0.330	0.650
2020/01/31 04:16:26.7	93.000	0.060	-0.270	0.660
2020/01/31 04:16:26.8	93.000	0.040	-0.200	0.680
2020/01/31 04:16:26.9	93.000	0.010	-0.130	0.690
2020/01/31 04:16:27.0	92.990	-0.030	-0.060	0.700
2020/01/31 04:16:27.1	92.990	-0.060	0.010	0.720
2020/01/31 04:16:27.2	92.980	-0.090	0.080	0.730
2020/01/31 04:16:27.3	92.980	-0.120	0.150	0.740
2020/01/31 04:16:27.4	92.970	-0.160	0.210	0.750
2020/01/31 04:16:27.5	92.970	-0.190	0.270	0.760
2020/01/31 04:16:27.6	92.960	-0.220	0.330	0.760
2020/01/31 04:16:27.7	92.960	-0.250	0.370	0.760
2020/01/31 04:16:27.8	92.950	-0.280	0.410	0.760
2020/01/31 04:16:27.9	92.950	-0.310	0.440	0.760
2020/01/31 04:16:28.0	92.950	-0.330	0.470	0.760
2020/01/31 04:16:28.1	92.960	-0.350	0.480	0.750
2020/01/31 04:16:28.2	92.960	-0.370	0.480	0.730
2020/01/31 04:16:28.3	92.960	-0.380	0.480	0.720
2020/01/31 04:16:28.4	92.960	-0.390	0.460	0.700
2020/01/31 04:16:28.5	92.970	-0.390	0.440	0.680
2020/01/31 04:16:28.6	92.970	-0.390	0.410	0.660
2020/01/31 04:16:28.7	92.980	-0.390	0.370	0.640
2020/01/31 04:16:28.8	92.990	-0.390	0.320	0.620
2020/01/31 04:16:28.9	93.000	-0.380	0.270	0.600
2020/01/31 04:16:29.0	93.010	-0.360	0.210	0.570
2020/01/31 04:16:29.1	93.010	-0.350	0.140	0.550
2020/01/31 04:16:29.2	93.020	-0.330	0.070	0.530
2020/01/31 04:16:29.3	93.030	-0.310	0.000	0.520
2020/01/31 04:16:29.4	93.040	-0.280	-0.070	0.500
2020/01/31 04:16:29.5	93.060	-0.260	-0.150	0.490
2020/01/31 04:16:29.6	93.070	-0.230	-0.220	0.470
2020/01/31 04:16:29.7	93.080	-0.200	-0.290	0.460
2020/01/31 04:16:29.8	93.090	-0.180	-0.360	0.460
2020/01/31 04:16:29.9	93.100	-0.150	-0.430	0.450
2020/01/31 04:16:30.0	93.100	-0.120	-0.490	0.450
2020/01/31 04:16:30.1	93.120	-0.090	-0.550	0.450
2020/01/31 04:16:30.2	93.120	-0.070	-0.610	0.450
2020/01/31 04:16:30.3	93.120	-0.040	-0.650	0.460
2020/01/31 04:16:30.4	93.120	-0.010	-0.690	0.470
2020/01/31 04:16:30.5	93.120	0.010	-0.730	0.470
2020/01/31 04:16:30.6	93.120	0.030	-0.750	0.480
2020/01/31 04:16:30.7	93.120	0.050	-0.770	0.500
2020/01/31 04:16:30.8	93.110	0.070	-0.780	0.510
2020/01/31 04:16:30.9	93.110	0.080	-0.780	0.520
2020/01/31 04:16:31.0	93.100	0.090	-0.770	0.530
2020/01/31 04:16:31.1	93.110	0.100	-0.760	0.550
2020/01/31 04:16:31.2	93.100	0.110	-0.740	0.570
2020/01/31 04:16:31.3	93.090	0.120	-0.720	0.580
2020/01/31 04:16:31.4	93.080	0.120	-0.690	0.600
2020/01/31 04:16:31.5	93.070	0.120	-0.650	0.620
2020/01/31 04:16:31.6	93.060	0.120	-0.610	0.640
2020/01/31 04:16:31.7	93.040	0.120	-0.570	0.660
2020/01/31 04:16:31.8	93.030	0.110	-0.520	0.680
2020/01/31 04:16:31.9	93.020	0.110	-0.480	0.700
2020/01/31 04:16:32.0	93.000	0.100	-0.430	0.720
2020/01/31 04:16:32.1	92.990	0.090	-0.380	0.740
2020/01/31 04:16:32.2	92.970	0.080	-0.340	0.760
2020/01/31 04:16:32.3	92.960	0.070	-0.300	0.780
2020/01/31 04:16:32.4	92.950	0.060	-0.260	0.800
2020/01/31 04:16:32.5	92.930	0.050	-0.230	0.820
2020/01/31 04:16:32.6	92.920	0.050	-0.200	0.840
2020/01/31 04:16:32.7	92.910	0.040	-0.180	0.860
2020/01/31 04:16:32.8	92.900	0.030	-0.170	0.880
2020/01/31 04:16:32.9	92.890	0.020	-0.150	0.900
2020/01/31 04:16:33.0	92.880	0.020	-0.150	0.920
2020/01/31 04:16:33.1	92.860	0.010	-0.150	0.930
2020/01/31 04:16:33.2	92.860	0.010	-0.160	0.940
2020/01/31 04:16:33.3	92.850	0.010	-0.170	0.950
2020/01/31 04:16:33.4	92.850	0.010	-0.190	0.960
2020/01/31 04:16:33.5	92.850	0.020	-0.210	0.970
2020/01/31 04:16:33.6	92.840	0.020	-0.240	0.970
2020/01/31 04:16:33.7	92.840	0.030	-0.270	0.980
2020/01/31 04:16:33.8	92.840	0.040	-0.310	0.980
2020/01/31 04:16:33.9	92.840	0.060	-0.350	0.970
2020/01/31 04:16:34.0	92.840	0.070	-0.390	0.970
2020/01/31 04:16:34.1	92.860	0.090	-0.430	0.970
2020/01/31 04:16:34.2	92.860	0.110	-0.470	0.970
2020/01/31 04:16:34.3	92.860	0.130	-0.520	0.960
2020/01/31 04:16:34.4	92.860	0.150	-0.560	0.950
2020/01/31 04:16:34.5	92.860	0.180	-0.600	0.940
2020/01/31 04:16:34.6	92.860	0.200	-0.640	0.930
2020/01/31 04:16:34.7	92.850	0.230	-0.670	0.920
2020/01/31 04:16:34.8	92.850	0.250	-0.700	0.910
2020/01/31 04:16:34.9	92.850	0.270	-0.720	0.900
2020/01/31 04:16:35.0	92.840	0.300	-0.740	0.890
2020/01/31 04:16:35.1	92.850	0.320	-0.750	0.880
2020/01/31 04:16:35.2	92.840	0.340	-0.750	0.870
2020/01/31 04:16:35.3	92.830	0.360	-0.740	0.870
2020/01/31 04:16:35.4	92.830	0.370	-0.720	0.860
2020/01/31 04:16:35.5	92.820	0.380	-0.690	0.850
2020/01/31 04:16:35.6	92.810	0.390	-0.660	0.840
2020/01/31 04:16:35.7	92.800	0.390	-0.610	0.840
2020/01/31 04:16:35.8	92.790	0.390	-0.560	0.830
2020/01/31 04:16:35.9	92.770	0.380	-0.500	0.830
2020/01/31 04:16:36.0	92.760	0.370	-0.430	0.820
2020/01/31 04:16:36.1	92.750	0.360	-0.350	0.820
2020/01/31 04:16:36.2	92.730	0.340	-0.270	0.820
2020/01/31 04:16:36.3	92.710	0.310	-0.180	0.810
2020/01/31 04:16:36.4	92.700	0.280	-0.090	0.810
2020/01/31 04:16:36.5	92.680	0.250	0.000	0.810
2020/01/31 04:16:36.6	92.660	0.210	0.090	0.810
2020/01/31 04:16:36.7	92.640	0.170	0.190	0.810
2020/01/31 04:16:36.8	92.620	0.130	0.280	0.810
2020/01/31 04:16:36.9	92.600	0.090	0.370	0.800
2020/01/31 04:16:37.0	92.580	0.040	0.450	0.800
2020/01/31 04:16:37.1	92.540	-0.010	0.540	0.800
2020/01/31 04:16:37.2	92.520	-0.060	0.610	0.790
2020/01/31 04:16:37.3	92.510	-0.110	0.680	0.790
2020/01/31 04:16:37.4	92.490	-0.160	0.730	0.780
2020/01/31 04:16:37.5	92.480	-0.210	0.780	0.770
2020/01/31 04:16:37.6	92.470	-0.250	0.810	0.760
2020/01/31 04:16:37.7	92.460	-0.290	0.830	0.750
2020/01/31 04:16:37.8	92.450	-0.330	0.840	0.730
2020/01/31 04:16:37.9	92.450	-0.370	0.840	0.720
2020/01/31 04:16:38.0	92.450	-0.400	0.820	0.700
2020/01/31 04:16:38.1	92.440	-0.420	0.790	0.670
2020/01/31 04:16:38.2	92.440	-0.440	0.750	0.650
2020/01/31 04:16:38.3	92.450	-0.460	0.700	0.630
2020/01/31 04:16:38.4	92.460	-0.470	0.630	0.600
2020/01/31 04:16:38.5	92.470	-0.470	0.550	0.580
2020/01/31 04:16:38.6	92.490	-0.460	0.460	0.550
2020/01/31 04:16:38.7	92.510	-0.450	0.360	0.530
2020/01/31 04:16:38.8	92.530	-0.430	0.260	0.510
2020/01/31 04:16:38.9	92.550	-0.410	0.150	0.490
2020/01/31 04:16:39.0	92.570	-0.380	0.030	0.470
2020/01/31 04:16:39.1	92.590	-0.340	-0.090	0.460
2020/01/31 04:16:39.2	92.610	-0.300	-0.220	0.440
2020/01/31 04:16:39.3	92.640	-0.260	-0.340	0.430
2020/01/31 04:16:39.4	92.660	-0.210	-0.460	0.420
2020/01/31 04:16:39.5	92.690	-0.160	-0.580	0.410
2020/01/31 04:16:39.6	92.710	-0.110	-0.690	0.400
2020/01/31 04:16:39.7	92.740	-0.060	-0.800	0.400
2020/01/31 04:16:39.8	92.760	-0.000	-0.900	0.390
2020/01/31 04:16:39.9	92.790	0.050	-0.990	0.390
2020/01/31 04:16:40.0	92.810	0.100	-1.070	0.390
2020/01/31 04:16:40.1	92.850	0.150	-1.140	0.390
2020/01/31 04:16:40.2	92.870	0.190	-1.200	0.390
2020/01/31 04:16:40.3	92.890	0.230	-1.240	0.390
2020/01/31 04:16:40.4	92.900	0.270	-1.260	0.400
2020/01/31 04:16:40.5	92.920	0.300	-1.270	0.410
2020/01/31 04:16:40.6	92.930	0.330	-1.270	0.420
2020/01/31 04:16:40.7	92.940	0.340	-1.250	0.430
2020/01/31 04:16:40.8	92.950	0.350	-1.220	0.440
2020/01/31 04:16:40.9	92.960	0.360	-1.170	0.460
2020/01/31 04:16:41.0	92.960	0.360	-1.110	0.470
2020/01/31 04:16:41.1	92.980	0.350	-1.030	0.500
2020/01/31 04:16:41.2	92.980	0.330	-0.940	0.520
2020/01/31 04:16:41.3	92.980	0.310	-0.840	0.540
2020/01/31 04:16:41.4	92.980	0.270	-0.730	0.570
2020/01/31 04:16:41.5	92.970	0.240	-0.620	0.600
2020/01/31 04:16:41.6	92.970	0.190	-0.500	0.620
2020/01/31 04:16:41.7	92.960	0.140	-0.370	0.660
2020/01/31 04:16:41.8	92.960	0.090	-0.230	0.690
2020/01/31 04:16:41.9	92.950	0.030	-0.100	0.720
2020/01/31 04:16:42.0	92.940	-0.030	0.030	0.760
2020/01/31 04:16:42.1	92.930	-0.100	0.170	0.790
2020/01/31 04:16:42.2	92.920	-0.170	0.300	0.830
2020/01/31 04:16:42.3	92.910	-0.240	0.420	0.870
2020/01/31 04:16:42.4	92.900	-0.300	0.540	0.900
2020/01/31 04:16:42.5	92.890	-0.370	0.650	0.940
2020/01/31 04:16:42.6	92.880	-0.440	0.750	0.970
2020/01/31 04:16:42.7	92.870	-0.500	0.840	1.000
2020/01/31 04:16:42.8	92.860	-0.570	0.920	1.020
2020/01/31 04:16:42.9	92.860	-0.620	0.980	1.040
2020/01/31 04:16:43.0	92.850	-0.680	1.030	1.060
2020/01/31 04:16:43.1	92.850	-0.720	1.070	1.080
2020/01/31 04:16:43.2	92.840	-0.760	1.090	1.090
2020/01/31 04:16:43.3	92.830	-0.800	1.090	1.090
2020/01/31 04:16:43.4	92.830	-0.830	1.080	1.100
2020/01/31 04:16:43.5	92.820	-0.840	1.050	1.090
2020/01/31 04:16:43.6	92.820	-0.850	1.010	1.090
2020/01/31 04:16:43.7	92.820	-0.860	0.950	1.080
2020/01/31 04:16:43.8	92.810	-0.850	0.870	1.060
2020/01/31 04:16:43.9	92.810	-0.830	0.790	1.050
2020/01/31 04:16:44.0	92.800	-0.810	0.680	1.030
2020/01/31 04:16:44.1	92.790	-0.780	0.570	1.020
2020/01/31 04:16:44.2	92.780	-0.740	0.450	1.000
2020/01/31 04:16:44.3	92.770	-0.690	0.310	0.980
2020/01/31 04:16:44.4	92.770	-0.630	0.170	0.960
2020/01/31 04:16:44.5	92.760	-0.570	0.020	0.940
2020/01/31 04:16:44.6	92.750	-0.500	-0.130	0.920
2020/01/31 04:16:44.7	92.740	-0.420	-0.280	0.900
2020/01/31 04:16:44.8	92.730	-0.340	-0.440	0.880
2020/01/31 04:16:44.9	92.720	-0.260	-0.600	0.860
2020/01/31 04:16:45.0	92.710	-0.170	-0.750	0.840
2020/01/31 04:16:45.1	92.700	-0.080	-0.900	0.820
2020/01/31 04:16:45.2	92.690	0.010	-1.050	0.800
2020/01/31 04:16:45.3	92.680	0.100	-1.180	0.780
2020/01/31 04:16:45.4	92.670	0.190	-1.310	0.770
2020/01/31 04:16:45.5	92.660	0.280	-1.430	0.750
2020/01/31 04:16:45.6	92.650	0.370	-1.530	0.740
2020/01/31 04:16:45.7	92.650	0.450	-1.630	0.720
2020/01/31 04:16:45.8	92.640	0.530	-1.700	0.710
2020/01/31 04:16:45.9	92.630	0.610	-1.770	0.690
2020/01/31 04:16:46.0	92.630	0.680	-1.810	0.680
2020/01/31 04:16:46.1	92.630	0.740	-1.840	0.680
2020/01/31 04:16:46.2	92.630	0.800	-1.850	0.670
2020/01/31 04:16:46.3	92.620	0.840	-1.850	0.660
2020/01/31 04:16:46.4	92.610	0.880	-1.830	0.660
2020/01/31 04:16:46.5	92.610	0.920	-1.790	0.660
2020/01/31 04:16:46.6	92.600	0.940	-1.740	0.660
2020/01/31 04:16:46.7	92.590	0.950	-1.670	0.660
2020/01/31 04:16:46.8	92.590	0.960	-1.590	0.660
2020/01/31 04:16:46.9	92.580	0.960	-1.500	0.670
2020/01/31 04:16:47.0	92.570	0.940	-1.390	0.680
2020/01/31 04:16:47.1	92.570	0.920	-1.260	0.690
2020/01/31 04:16:47.2	92.560	0.900	-1.130	0.700
2020/01/31 04:16:47.3	92.560	0.860	-1.000	0.710
2020/01/31 04:16:47.4	92.550	0.820	-0.850	0.730
2020/01/31 04:16:47.5	92.550	0.760	-0.700	0.740
2020/01/31 04:16:47.6	92.540	0.710	-0.550	0.760
2020/01/31 04:16:47.7	92.540	0.640	-0.400	0.780
2020/01/31 04:16:47.8	92.530	0.580	-0.250	0.790
2020/01/31 04:16:47.9	92.530	0.510	-0.090	0.810
2020/01/31 04:16:48.0	92.520	0.430	0.050	0.820
2020/01/31 04:16:48.1	92.500	0.350	0.200	0.840
2020/01/31 04:16:48.2	92.500	0.270	0.340	0.850
2020/01/31 04:16:48.3	92.500	0.190	0.470	0.870
2020/01/31 04:16:48.4	92.500	0.110	0.590	0.870
2020/01/31 04:16:48.5	92.500	0.030	0.700	0.880
2020/01/31 04:16:48.6	92.500	-0.050	0.800	0.890
2020/01/31 04:16:48.7	92.510	-0.130	0.890	0.890
2020/01/31 04:16:48.8	92.520	-0.200	0.970	0.890
2020/01/31 04:16:48.9	92.520	-0.270	1.040	0.890
2020/01/31 04:16:49.0	92.530	-0.340	1.090	0.890
2020/01/31 04:16:49.1	92.550	-0.410	1.140	0.880
2020/01/31 04:16:49.2	92.570	-0.470	1.170	0.870
2020/01/31 04:16:49.3	92.580	-0.520	1.180	0.860
2020/01/31 04:16:49.4	92.590	-0.570	1.190	0.850
2020/01/31 04:16:49.5	92.610	-0.610	1.180	0.840
2020/01/31 04:16:49.6	92.630	-0.650	1.160	0.820
2020/01/31 04:16:49.7	92.650	-0.670	1.120	0.810
2020/01/31 04:16:49.8	92.670	-0.700	1.080	0.790
2020/01/31 04:16:49.9	92.690	-0.710	1.020	0.770
2020/01/31 04:16:50.0	92.710	-0.720	0.960	0.760
2020/01/31 04:16:50.1	92.730	-0.720	0.880	0.740
2020/01/31 04:16:50.2	92.750	-0.710	0.790	0.720
2020/01/31 04:16:50.3	92.770	-0.700	0.700	0.710
2020/01/31 04:16:50.4	92.800	-0.680	0.600	0.690
2020/01/31 04:16:50.5	92.820	-0.650	0.500	0.670
2020/01/31 04:16:50.6	92.840	-0.610	0.390	0.650
2020/01/31 04:16:50.7	92.870	-0.570	0.280	0.630
2020/01/31 04:16:50.8	92.890	-0.530	0.160	0.620
2020/01/31 04:16:50.9	92.910	-0.480	0.050	0.600
2020/01/31 04:16:51.0	92.930	-0.420	-0.070	0.590
2020/01/31 04:16:51.1	92.950	-0.360	-0.190	0.570
2020/01/31 04:16:51.2	92.970	-0.300	-0.300	0.560
2020/01/31 04:16:51.3	92.990	-0.240	-0.410	0.550
2020/01/31 04:16:51.4	93.000	-0.170	-0.510	0.540
2020/01/31 04:16:51.5	93.020	-0.110	-0.610	0.530
2020/01/31 04:16:51.6	93.030	-0.040	-0.700	0.530
2020/01/31 04:16:51.7	93.040	0.030	-0.790	0.530
2020/01/31 04:16:51.8	93.050	0.090	-0.860	0.530
2020/01/31 04:16:51.9	93.060	0.160	-0.930	0.530
2020/01/31 04:16:52.0	93.070	0.210	-0.980	0.540
2020/01/31 04:16:52.1	93.090	0.270	-1.030	0.560
2020/01/31 04:16:52.2	93.090	0.320	-1.060	0.570
2020/01/31 04:16:52.3	93.090	0.370	-1.090	0.590
2020/01/31 04:16:52.4	93.090	0.410	-1.100	0.610
2020/01/31 04:16:52.5	93.090	0.450	-1.100	0.630
2020/01/31 04:16:52.6	93.100	0.480	-1.090	0.660
2020/01/31 04:16:52.7	93.100	0.500	-1.070	0.690
2020/01/31 04:16:52.8	93.100	0.520	-1.040	0.720
2020/01/31 04:16:52.9	93.090	0.530	-1.010	0.760
2020/01/31 04:16:53.0	93.090	0.540	-0.960	0.790
2020/01/31 04:16:53.1	93.090	0.540	-0.910	0.830
2020/01/31 04:16:53.2	93.090	0.530	-0.850	0.870
2020/01/31 04:16:53.3	93.090	0.510	-0.790	0.910
2020/01/31 04:16:53.4	93.090	0.490	-0.730	0.940
2020/01/31 04:16:53.5	93.090	0.470	-0.660	0.980
2020/01/31 04:16:53.6	93.090	0.440	-0.590	1.020
2020/01/31 04:16:53.7	93.090	0.410	-0.520	1.050
2020/01/31 04:16:53.8	93.090	0.370	-0.450	1.090
2020/01/31 04:16:53.9	93.090	0.330	-0.380	1.120
2020/01/31 04:16:54.0	93.090	0.280	-0.300	1.140
2020/01/31 04:16:54.1	93.090	0.240	-0.240	1.170
2020/01/31 04:16:54.2	93.090	0.190	-0.170	1.190
2020/01/31 04:16:54.3	93.090	0.140	-0.110	1.210
2020/01/31 04:16:54.4	93.090	0.090	-0.040	1.230
2020/01/31 04:16:54.5	93.090	0.040	0.010	1.240
2020/01/31 04:16:54.6	93.090	-0.010	0.070	1.240
2020/01/31 04:16:54.7	93.090	-0.060	0.110	1.250
2020/01/31 04:16:54.8	93.090	-0.110	0.160	1.250
2020/01/31 04:16:54.9	93.090	-0.150	0.200	1.250
2020/01/31 04:16:55.0	93.090	-0.200	0.230	1.250
2020/01/31 04:16:55.1	93.080	-0.230	0.260	1.230
2020/01/31 04:16:55.2	93.070	-0.270	0.280	1.220
2020/01/31 04:16:55.3	93.070	-0.300	0.290	1.210
2020/01/31 04:16:55.4	93.070	-0.330	0.300	1.200
2020/01/31 04:16:55.5	93.060	-0.350	0.300	1.180
2020/01/31 04:16:55.6	93.060	-0.370	0.300	1.160
2020/01/31 04:16:55.7	93.050	-0.390	0.290	1.140
2020/01/31 04:16:55.8	93.050	-0.400	0.280	1.120
2020/01/31 04:16:55.9	93.040	-0.400	0.260	1.090
2020/01/31 04:16:56.0	93.030	-0.400	0.240	1.070
2020/01/31 04:16:56.1	93.020	-0.400	0.210	1.050
2020/01/31 04:16:56.2	93.010	-0.390	0.180	1.020
2020/01/31 04:16:56.3	92.990	-0.380	0.150	1.000
2020/01/31 04:16:56.4	92.980	-0.360	0.110	0.980
2020/01/31 04:16:56.5	92.960	-0.340	0.070	0.950
2020/01/31 04:16:56.6	92.940	-0.320	0.030	0.930
2020/01/31 04:16:56.7	92.930	-0.300	-0.020	0.910
2020/01/31 04:16:56.8	92.910	-0.270	-0.060	0.880
2020/01/31 04:16:56.9	92.890	-0.240	-0.110	0.850
2020/01/31 04:16:57.0	92.870	-0.210	-0.160	0.830
2020/01/31 04:16:57.1	92.860	-0.170	-0.210	0.800
2020/01/31 04:16:57.2	92.840	-0.140	-0.250	0.770
2020/01/31 04:16:57.3	92.830	-0.100	-0.300	0.740
2020/01/31 04:16:57.4	92.810	-0.070	-0.350	0.710
2020/01/31 04:16:57.5	92.800	-0.030	-0.390	0.680
2020/01/31 04:16:57.6	92.790	0.010	-0.440	0.650
2020/01/31 04:16:57.7	92.790	0.050	-0.480	0.610
2020/01/31 04:16:57.8	92.790	0.080	-0.520	0.580
2020/01/31 04:16:57.9	92.790	0.120	-0.560	0.550
2020/01/31 04:16:58.0	92.790	0.150	-0.590	0.520
2020/01/31 04:16:58.1	92.810	0.190	-0.620	0.480
2020/01/31 04:16:58.2	92.820	0.220	-0.650	0.450
2020/01/31 04:16:58.3	92.830	0.250	-0.680	0.420
2020/01/31 04:16:58.4	92.850	0.270	-0.700	0.400
2020/01/31 04:16:58.5	92.870	0.300	-0.710	0.370
2020/01/31 04:16:58.6	92.900	0.320	-0.730	0.350
2020/01/31 04:16:58.7	92.920	0.340	-0.730	0.320
2020/01/31 04:16:58.8	92.950	0.360	-0.740	0.310
2020/01/31 04:16:58.9	92.980	0.370	-0.730	0.290
2020/01/31 04:16:59.0	93.010	0.380	-0.730	0.270
2020/01/31 04:16:59.1	93.050	0.380	-0.710	0.260
2020/01/31 04:16:59.2	93.080	0.390	-0.700	0.250
2020/01/31 04:16:59.3	93.120	0.380	-0.670	0.250
2020/01/31 04:16:59.4	93.150	0.380	-0.650	0.240
2020/01/31 04:16:59.5	93.180	0.370	-0.620	0.240
2020/01/31 04:16:59.6	93.220	0.350	-0.580	0.230
2020/01/31 04:16:59.7	93.250	0.340	-0.540	0.240
2020/01/31 04:16:59.8	93.280	0.320	-0.500	0.240
2020/01/31 04:16:59.9	93.310	0.290	-0.450	0.240
2020/01/31 04:17:00.0	93.330	0.260	-0.400	0.250
2020/01/31 04:17:00.1	93.360	0.230	-0.340	0.260
2020/01/31 04:17:00.2	93.380	0.190	-0.290	0.270
2020/01/31 04:17:00.3	93.390	0.160	-0.230	0.290
2020/01/31 04:17:00.4	93.410	0.110	-0.170	0.300
2020/01/31 04:17:00.5	93.420	0.070	-0.100	0.320
2020/01/31 04:17:00.6	93.430	0.030	-0.040	0.350
2020/01/31 04:17:00.7	93.430	-0.020	0.020	0.370
2020/01/31 04:17:00.8	93.430	-0.070	0.090	0.400
2020/01/31 04:17:00.9	93.420	-0.120	0.150	0.440
2020/01/31 04:17:01.0	93.410	-0.170	0.210	0.470
2020/01/31 04:17:01.1	93.400	-0.220	0.280	0.510
2020/01/31 04:17:01.2	93.390	-0.270	0.330	0.550
2020/01/31 04:17:01.3	93.360	-0.320	0.390	0.590
2020/01/31 04:17:01.4	93.340	-0.370	0.440	0.630
2020/01/31 04:17:01.5	93.310	-0.420	0.480	0.680
2020/01/31 04:17:01.6	93.290	-0.460	0.520	0.720
2020/01/31 04:17:01.7	93.260	-0.500	0.560	0.770
2020/01/31 04:17:01.8	93.230	-0.540	0.580	0.810
2020/01/31 04:17:01.9	93.190	-0.580	0.600	0.860
2020/01/31 04:17:02.0	93.160	-0.610	0.620	0.900
2020/01/31 04:17:02.1	93.120	-0.640	0.620	0.940
2020/01/31 04:17:02.2	93.090	-0.660	0.610	0.980
2020/01/31 04:17:02.3	93.060	-0.680	0.600	1.010
2020/01/31 04:17:02.4	93.040	-0.690	0.570	1.040
2020/01/31 04:17:02.5	93.020	-0.690	0.540	1.070
2020/01/31 04:17:02.6	93.000	-0.690	0.490	1.090
2020/01/31 04:17:02.7	92.980	-0.690	0.440	1.110
2020/01/31 04:17:02.8	92.970	-0.670	0.370	1.120
2020/01/31 04:17:02.9	92.950	-0.650	0.300	1.130
2020/01/31 04:17:03.0	92.950	-0.630	0.220	1.140
2020/01/31 04:17:03.1	92.930	-0.600	0.130	1.140
2020/01/31 04:17:03.2	92.930	-0.560	0.030	1.130
2020/01/31 04:17:03.3	92.930	-0.520	-0.070	1.130
2020/01/31 04:17:03.4	92.930	-0.470	-0.180	1.120
2020/01/31 04:17:03.5	92.940	-0.410	-0.280	1.100
2020/01/31 04:17:03.6	92.940	-0.360	-0.400	1.080
2020/01/31 04:17:03.7	92.950	-0.300	-0.510	1.060
2020/01/31 04:17:03.8	92.960	-0.230	-0.620	1.040
2020/01/31 04:17:03.9	92.970	-0.170	-0.720	1.020
2020/01/31 04:17:04.0	92.980	-0.100	-0.830	0.990
2020/01/31 04:17:04.1	92.980	-0.030	-0.930	0.970
2020/01/31 04:17:04.2	92.990	0.040	-1.020	0.940
2020/01/31 04:17:04.3	92.990	0.100	-1.100	0.910
2020/01/31 04:17:04.4	92.990	0.170	-1.170	0.890
2020/01/31 04:17:04.5	93.000	0.230	-1.230	0.860
2020/01/31 04:17:04.6	93.000	0.290	-1.280	0.830
2020/01/31 04:17:04.7	92.990	0.350	-1.320	0.800
2020/01/31 04:17:04.8	92.990	0.410	-1.350	0.770
2020/01/31 04:17:04.9	92.990	0.460	-1.360	0.750
2020/01/31 04:17:05.0	92.990	0.500	-1.370	0.720
2020/01/31 04:17:05.1	92.990	0.540	-1.350	0.690
2020/01/31 04:17:05.2	92.990	0.580	-1.330	0.670
2020/01/31 04:17:05.3	92.980	0.610	-1.290	0.650
2020/01/31 04:17:05.4	92.980	0.630	-1.250	0.630
2020/01/31 04:17:05.5	92.970	0.650	-1.190	0.610
2020/01/31 04:17:05.6	92.960	0.660	-1.120	0.600
2020/01/31 04:17:05.7	92.950	0.670	-1.040	0.590
2020/01/31 04:17:05.8	92.950	0.670	-0.960	0.580
2020/01/31 04:17:05.9	92.940	0.670	-0.870	0.570
2020/01/31 04:17:06.0	92.930	0.660	-0.770	0.570
2020/01/31 04:17:06.1	92.920	0.640	-0.670	0.570
2020/01/31 04:17:06.2	92.910	0.630	-0.560	0.570
2020/01/31 04:17:06.3	92.900	0.610	-0.460	0.580
2020/01/31 04:17:06.4	92.890	0.580	-0.350	0.590
2020/01/31 04:17:06.5	92.890	0.550	-0.240	0.600
2020/01/31 04:17:06.6	92.880	0.520	-0.130	0.610
2020/01/31 04:17:06.7	92.870	0.490	-0.020	0.630
2020/01/31 04:17:06.8	92.860	0.450	0.080	0.650
2020/01/31 04:17:06.9	92.850	0.420	0.180	0.660
2020/01/31 04:17:07.0	92.840	0.380	0.280	0.680
2020/01/31 04:17:07.1	92.830	0.340	0.370	0.710
2020/01/31 04:17:07.2	92.820	0.300	0.460	0.720
2020/01/31 04:17:07.3	92.810	0.260	0.540	0.740
2020/01/31 04:17:07.4	92.800	0.220	0.610	0.760
2020/01/31 04:17:07.5	92.790	0.180	0.670	0.780
2020/01/31 04:17:07.6	92.780	0.140	0.730	0.790
2020/01/31 04:17:07.7	92.770	0.110	0.770	0.810
2020/01/31 04:17:07.8	92.760	0.070	0.810	0.820
2020/01/31 04:17:07.9	92.750	0.030	0.830	0.820
2020/01/31 04:17:08.0	92.740	0.000	0.850	0.830
2020/01/31 04:17:08.1	92.730	-0.030	0.860	0.830
2020/01/31 04:17:08.2	92.720	-0.060	0.860	0.830
2020/01/31 04:17:08.3	92.720	-0.090	0.850	0.830
2020/01/31 04:17:08.4	92.710	-0.110	0.830	0.820
2020/01/31 04:17:08.5	92.710	-0.130	0.790	0.810
2020/01/31 04:17:08.6	92.700	-0.150	0.750	0.800
2020/01/31 04:17:08.7	92.700	-0.160	0.700	0.790
2020/01/31 04:17:08.8	92.700	-0.170	0.650	0.780
2020/01/31 04:17:08.9	92.700	-0.180	0.580	0.760
2020/01/31 04:17:09.0	92.690	-0.190	0.510	0.750
2020/01/31 04:17:09.1	92.700	-0.190	0.430	0.720
2020/01/31 04:17:09.2	92.700	-0.190	0.340	0.710
2020/01/31 04:17:09.3	92.710	-0.190	0.250	0.690
2020/01/31 04:17:09.4	92.710	-0.180	0.160	0.670
2020/01/31 04:17:09.5	92.720	-0.170	0.060	0.660
2020/01/31 04:17:09.6	92.730	-0.160	-0.040	0.640
2020/01/31 04:17:09.7	92.740	-0.140	-0.150	0.620
2020/01/31 04:17:09.8	92.750	-0.130	-0.250	0.610
2020/01/31 04:17:09.9	92.760	-0.110	-0.350	0.600
2020/01/31 04:17:10.0	92.780	-0.090	-0.450	0.590
2020/01/31 04:17:10.1	92.800	-0.060	-0.550	0.580
2020/01/31 04:17:10.2	92.820	-0.040	-0.640	0.580
2020/01/31 04:17:10.3	92.840	-0.020	-0.730	0.570
2020/01/31 04:17:10.4	92.850	0.010	-0.810	0.580
2020/01/31 04:17:10.5	92.870	0.030	-0.890	0.580
2020/01/31 04:17:10.6	92.890	0.050	-0.950	0.590
2020/01/31 04:17:10.7	92.910	0.070	-1.010	0.610
2020/01/31 04:17:10.8	92.920	0.090	-1.060	0.620
2020/01/31 04:17:10.9	92.940	0.110	-1.100	0.640
2020/01/31 04:17:11.0	92.950	0.130	-1.130	0.670
2020/01/31 04:17:11.1	92.950	0.140	-1.150	0.700
2020/01/31 04:17:11.2	92.960	0.160	-1.160	0.730
2020/01/31 04:17:11.3	92.970	0.160	-1.160	0.760
2020/01/31 04:17:11.4	92.980	0.170	-1.140	0.800
2020/01/31 04:17:11.5	92.980	0.170	-1.120	0.840
2020/01/31 04:17:11.6	92.990	0.170	-1.090	0.880
2020/01/31 04:17:11.7	92.990	0.170	-1.060	0.920
2020/01/31 04:17:11.8	92.980	0.160	-1.010	0.970
2020/01/31 04:17:11.9	92.980	0.150	-0.950	1.020
2020/01/31 04:17:12.0	92.970	0.140	-0.890	1.060
2020/01/31 04:17:12.1	92.960	0.120	-0.820	1.120
2020/01/31 04:17:12.2	92.950	0.100	-0.750	1.170
2020/01/31 04:17:12.3	92.940	0.080	-0.670	1.220
2020/01/31 04:17:12.4	92.930	0.050	-0.590	1.270
2020/01/31 04:17:12.5	92.910	0.020	-0.500	1.310
2020/01/31 04:17:12.6	92.900	-0.010	-0.420	1.360
2020/01/31 04:17:12.7	92.880	-0.040	-0.330	1.400
2020/01/31 04:17:12.8	92.860	-0.080	-0.240	1.440
2020/01/31 04:17:12.9	92.850	-0.120	-0.160	1.480
2020/01/31 04:17:13.0	92.830	-0.150	-0.070	1.510
2020/01/31 04:17:13.1	92.820	-0.190	0.010	1.530
2020/01/31 04:17:13.2	92.800	-0.230	0.090	1.550
2020/01/31 04:17:13.3	92.780	-0.270	0.170	1.560
2020/01/31 04:17:13.4	92.770	-0.310	0.240	1.570
2020/01/31 04:17:13.5	92.750	-0.350	0.310	1.570
2020/01/31 04:17:13.6	92.740	-0.390	0.370	1.560
2020/01/31 04:17:13.7	92.720	-0.430	0.420	1.550
2020/01/31 04:17:13.8	92.710	-0.460	0.470	1.530
2020/01/31 04:17:13.9	92.700	-0.500	0.510	1.500
2020/01/31 04:17:14.0	92.690	-0.530	0.550	1.470
2020/01/31 04:17:14.1	92.680	-0.550	0.580	1.440
2020/01/31 04:17:14.2	92.670	-0.570	0.600	1.400
2020/01/31 04:17:14.3	92.660	-0.590	0.610	1.360
2020/01/31 04:17:14.4	92.650	-0.610	0.610	1.320
2020/01/31 04:17:14.5	92.640	-0.610	0.610	1.270
2020/01/31 04:17:14.6	92.630	-0.620	0.600	1.220
2020/01/31 04:17:14.7	92.620	-0.620	0.580	1.170
2020/01/31 04:17:14.8	92.620	-0.610	0.550	1.120
2020/01/31 04:17:14.9	92.610	-0.600	0.520	1.070
2020/01/31 04:17:15.0	92.610	-0.580	0.470	1.020
2020/01/31 04:17:15.1	92.600	-0.560	0.420	0.970
2020/01/31 04:17:15.2	92.600	-0.530	0.370	0.920
2020/01/31 04:17:15.3	92.610	-0.500	0.310	0.870
2020/01/31 04:17:15.4	92.610	-0.460	0.250	0.810
2020/01/31 04:17:15.5	92.620	-0.420	0.180	0.760
2020/01/31 04:17:15.6	92.630	-0.380	0.110	0.710
2020/01/31 04:17:15.7	92.640	-0.330	0.040	0.660
2020/01/31 04:17:15.8	92.650	-0.280	-0.040	0.610
2020/01/31 04:17:15.9	92.660	-0.220	-0.120	0.570
2020/01/31 04:17:16.0	92.670	-0.170	-0.200	0.520
2020/01/31 04:17:16.1	92.680	-0.110	-0.270	0.480
2020/01/31 04:17:16.2	92.690	-0.050	-0.350	0.430
2020/01/31 04:17:16.3	92.710	0.010	-0.430	0.390
2020/01/31 04:17:16.4	92.720	0.080	-0.510	0.350
2020/01/31 04:17:16.5	92.730	0.140	-0.590	0.310
2020/01/31 04:17:16.6	92.740	0.200	-0.660	0.270
2020/01/31 04:17:16.7	92.750	0.260	-0.740	0.240
2020/01/31 04:17:16.8	92.760	0.320	-0.810	0.200
2020/01/31 04:17:16.9	92.770	0.380	-0.870	0.170
2020/01/31 04:17:17.0	92.780	0.440	-0.930	0.140
2020/01/31 04:17:17.1	92.790	0.490	-0.990	0.100
2020/01/31 04:17:17.2	92.790	0.540	-1.040	0.080
2020/01/31 04:17:17.3	92.800	0.590	-1.090	0.050
2020/01/31 04:17:17.4	92.800	0.640	-1.130	0.030
2020/01/31 04:17:17.5	92.800	0.680	-1.160	0.010
2020/01/31 04:17:17.6	92.800	0.720	-1.190	-0.010
2020/01/31 04:17:17.7	92.800	0.760	-1.210	-0.030
2020/01/31 04:17:17.8	92.800	0.790	-1.220	-0.040
2020/01/31 04:17:17.9	92.800	0.820	-1.230	-0.040
2020/01/31 04:17:18.0	92.800	0.840	-1.230	-0.050
2020/01/31 04:17:18.1	92.810	0.860	-1.220	-0.040
2020/01/31 04:17:18.2	92.810	0.870	-1.200	-0.040
2020/01/31 04:17:18.3	92.810	0.880	-1.180	-0.030
2020/01/31 04:17:18.4	92.820	0.880	-1.140	-0.010
2020/01/31 04:17:18.5	92.820	0.880	-1.110	0.000
2020/01/31 04:17:18.6	92.830	0.880	-1.060	0.020
2020/01/31 04:17:18.7	92.840	0.870	-1.010	0.050
2020/01/31 04:17:18.8	92.850	0.850	-0.950	0.080
2020/01/31 04:17:18.9	92.860	0.830	-0.880	0.110
2020/01/31 04:17:19.0	92.870	0.810	-0.810	0.150
2020/01/31 04:17:19.1	92.890	0.780	-0.740	0.190
2020/01/31 04:17:19.2	92.900	0.750	-0.660	0.230
2020/01/31 04:17:19.3	92.920	0.710	-0.570	0.280
2020/01/31 04:17:19.4	92.940	0.670	-0.490	0.330
2020/01/31 04:17:19.5	92.960	0.630	-0.400	0.380
2020/01/31 04:17:19.6	92.980	0.580	-0.310	0.430
2020/01/31 04:17:19.7	93.010	0.530	-0.220	0.490
2020/01/31 04:17:19.8	93.030	0.480	-0.130	0.550
2020/01/31 04:17:19.9	93.050	0.420	-0.040	0.610
2020/01/31 04:17:20.0	93.070	0.360	0.040	0.670
2020/01/31 04:17:20.1	93.090	0.300	0.130	0.730
2020/01/31 04:17:20.2	93.110	0.240	0.210	0.800
2020/01/31 04:17:20.3	93.130	0.180	0.290	0.860
2020/01/31 04:17:20.4	93.150	0.110	0.370	0.920
2020/01/31 04:17:20.5	93.170	0.040	0.440	0.980
2020/01/31 04:17:20.6	93.180	-0.020	0.520	1.030
2020/01/31 04:17:20.7	93.190	-0.090	0.580	1.090
2020/01/31 04:17:20.8	93.200	-0.160	0.640	1.140
2020/01/31 04:17:20.9	93.200	-0.230	0.700	1.180
2020/01/31 04:17:21.0	93.210	-0.300	0.750	1.220
2020/01/31 04:17:21.1	93.200	-0.360	0.810	1.270
2020/01/31 04:17:21.2	93.200	-0.430	0.850	1.300
2020/01/31 04:17:21.3	93.200	-0.500	0.890	1.320
2020/01/31 04:17:21.4	93.190	-0.560	0.930	1.350
2020/01/31 04:17:21.5	93.190	-0.620	0.950	1.370
2020/01/31 04:17:21.6	93.180	-0.680	0.980	1.380
2020/01/31 04:17:21.7	93.170	-0.730	0.990	1.390
2020/01/31 04:17:21.8	93.150	-0.790	1.010	1.400
2020/01/31 04:17:21.9	93.140	-0.830	1.010	1.410
2020/01/31 04:17:22.0	93.120	-0.880	1.010	1.420
2020/01/31 04:17:22.1	93.100	-0.920	1.000	1.420
2020/01/31 04:17:22.2	93.090	-0.950	0.990	1.420
2020/01/31 04:17:22.3	93.070	-0.980	0.960	1.430
2020/01/31 04:17:22.4	93.050	-1.010	0.930	1.430
2020/01/31 04:17:22.5	93.040	-1.030	0.890	1.430
2020/01/31 04:17:22.6	93.020	-1.040	0.850	1.430
2020/01/31 04:17:22.7	93.010	-1.040	0.790	1.430
2020/01/31 04:17:22.8	93.000	-1.040	0.730	1.430
2020/01/31 04:17:22.9	92.990	-1.030	0.650	1.430
2020/01/31 04:17:23.0	92.990	-1.020	0.570	1.420
2020/01/31 04:17:23.1	92.980	-0.990	0.480	1.410
2020/01/31 04:17:23.2	92.980	-0.970	0.380	1.400
2020/01/31 04:17:23.3	92.990	-0.930	0.270	1.390
2020/01/31 04:17:23.4	93.000	-0.890	0.160	1.370
2020/01/31 04:17:23.5	93.010	-0.840	0.040	1.350
2020/01/31 04:17:23.6	93.030	-0.790	-0.080	1.320
2020/01/31 04:17:23.7	93.040	-0.730	-0.210	1.290
2020/01/31 04:17:23.8	93.070	-0.660	-0.340	1.260
2020/01/31 04:17:23.9	93.090	-0.590	-0.470	1.220
2020/01/31 04:17:24.0	93.110	-0.520	-0.600	1.180
2020/01/31 04:17:24.1	93.130	-0.450	-0.740	1.140
2020/01/31 04:17:24.2	93.160	-0.370	-0.870	1.100
2020/01/31 04:17:24.3	93.180	-0.290	-0.990	1.050
2020/01/31 04:17:24.4	93.200	-0.210	-1.110	1.010
2020/01/31 04:17:24.5	93.230	-0.130	-1.220	0.960
2020/01/31 04:17:24.6	93.250	-0.050	-1.330	0.910
2020/01/31 04:17:24.7	93.260	0.030	-1.420	0.870
2020/01/31 04:17:24.8	93.280	0.110	-1.500	0.820
2020/01/31 04:17:24.9	93.290	0.180	-1.570	0.770
2020/01/31 04:17:25.0	93.300	0.260	-1.630	0.730
2020/01/31 04:17:25.1	93.320	0.320	-1.670	0.690
2020/01/31 04:17:25.2	93.330	0.390	-1.700	0.640
2020/01/31 04:17:25.3	93.330	0.450	-1.710	0.600
2020/01/31 04:17:25.4	93.340	0.500	-1.710	0.560
2020/01/31 04:17:25.5	93.340	0.550	-1.690	0.530
2020/01/31 04:17:25.6	93.340	0.590	-1.650	0.490
2020/01/31 04:17:25.7	93.340	0.620	-1.600	0.460
2020/01/31 04:17:25.8	93.340	0.650	-1.540	0.440
2020/01/31 04:17:25.9	93.330	0.670	-1.460	0.410
2020/01/31 04:17:26.0	93.330	0.680	-1.370	0.390
2020/01/31 04:17:26.1	93.320	0.690	-1.270	0.380
2020/01/31 04:17:26.2	93.310	0.690	-1.150	0.360
2020/01/31 04:17:26.3	93.310	0.690	-1.030	0.350
2020/01/31 04:17:26.4	93.300	0.680	-0.900	0.340
2020/01/31 04:17:26.5	93.290	0.660	-0.760	0.340
2020/01/31 04:17:26.6	93.280	0.640	-0.620	0.330
2020/01/31 04:17:26.7	93.280	0.610	-0.480	0.330
2020/01/31 04:17:26.8	93.270	0.580	-0.340	0.330
2020/01/31 04:17:26.9	93.260	0.540	-0.190	0.330
2020/01/31 04:17:27.0	93.250	0.500	-0.050	0.340
2020/01/31 04:17:27.1	93.250	0.460	0.090	0.340
2020/01/31 04:17:27.2	93.240	0.410	0.230	0.350
2020/01/31 04:17:27.3	93.230	0.360	0.350	0.360
2020/01/31 04:17:27.4	93.220	0.320	0.470	0.370
2020/01/31 04:17:27.5	93.210	0.270	0.580	0.380
2020/01/31 04:17:27.6	93.210	0.220	0.680	0.390
2020/01/31 04:17:27.7	93.200	0.170	0.770	0.400
2020/01/31 04:17:27.8	93.190	0.130	0.850	0.410
2020/01/31 04:17:27.9	93.190	0.080	0.910	0.420
2020/01/31 04:17:28.0	93.180	0.040	0.950	0.430
2020/01/31 04:17:28.1	93.170	0.010	0.990	0.440
2020/01/31 04:17:28.2	93.170	-0.030	1.010	0.450
2020/01/31 04:17:28.3	93.160	-0.060	1.010	0.460
2020/01/31 04:17:28.4	93.160	-0.080	0.990	0.460
2020/01/31 04:17:28.5	93.160	-0.100	0.960	0.460
2020/01/31 04:17:28.6	93.150	-0.110	0.910	0.460
2020/01/31 04:17:28.7	93.150	-0.120	0.850	0.460
2020/01/31 04:17:28.8	93.150	-0.120	0.770	0.460
2020/01/31 04:17:28.9	93.150	-0.120	0.690	0.450
2020/01/31 04:17:29.0	93.150	-0.110	0.590	0.440
2020/01/31 04:17:29.1	93.170	-0.100	0.480	0.430
2020/01/31 04:17:29.2	93.170	-0.080	0.360	0.410
2020/01/31 04:17:29.3	93.170	-0.060	0.240	0.400
2020/01/31 04:17:29.4	93.170	-0.030	0.110	0.380
2020/01/31 04:17:29.5	93.170	0.000	-0.030	0.360
2020/01/31 04:17:29.6	93.170	0.030	-0.160	0.340
2020/01/31 04:17:29.7	93.170	0.070	-0.290	0.320
2020/01/31 04:17:29.8	93.170	0.110	-0.420	0.310
2020/01/31 04:17:29.9	93.170	0.140	-0.550	0.290
2020/01/31 04:17:30.0	93.160	0.180	-0.670	0.280
2020/01/31 04:17:30.1	93.160	0.220	-0.790	0.270
2020/01/31 04:17:30.2	93.150	0.260	-0.900	0.260
2020/01/31 04:17:30.3	93.140	0.290	-1.000	0.250
2020/01/31 04:17:30.4	93.130	0.330	-1.090	0.250
2020/01/31 04:17:30.5	93.120	0.360	-1.160	0.260
2020/01/31 04:17:30.6	93.110	0.390	-1.220	0.260
2020/01/31 04:17:30.7	93.090	0.420	-1.270	0.270
2020/01/31 04:17:30.8	93.080	0.440	-1.310	0.280
2020/01/31 04:17:30.9	93.060	0.460	-1.330	0.300
2020/01/31 04:17:31.0	93.040	0.470	-1.340	0.320
2020/01/31 04:17:31.1	93.020	0.480	-1.330	0.340
2020/01/31 04:17:31.2	93.000	0.480	-1.310	0.370
2020/01/31 04:17:31.3	92.990	0.480	-1.280	0.390
2020/01/31 04:17:31.4	92.980	0.470	-1.240	0.420
2020/01/31 04:17:31.5	92.970	0.460	-1.180	0.450
2020/01/31 04:17:31.6	92.970	0.440	-1.110	0.480
2020/01/31 04:17:31.7	92.960	0.420	-1.040	0.520
2020/01/31 04:17:31.8	92.960	0.390	-0.950	0.560
2020/01/31 04:17:31.9	92.960	0.360	-0.860	0.590
2020/01/31 04:17:32.0	92.960	0.320	-0.760	0.630
2020/01/31 04:17:32.1	92.970	0.280	-0.660	0.670
2020/01/31 04:17:32.2	92.980	0.230	-0.550	0.710
2020/01/31 04:17:32.3	92.990	0.180	-0.440	0.750
2020/01/31 04:17:32.4	93.010	0.130	-0.330	0.790
2020/01/31 04:17:32.5	93.030	0.080	-0.230	0.820
2020/01/31 04:17:32.6	93.050	0.020	-0.120	0.860
2020/01/31 04:17:32.7	93.080	-0.030	-0.020	0.890
2020/01/31 04:17:32.8	93.100	-0.090	0.080	0.930
2020/01/31 04:17:32.9	93.130	-0.150	0.170	0.960
2020/01/31 04:17:33.0	93.160	-0.200	0.260	0.990
2020/01/31 04:17:33.1	93.190	-0.260	0.340	1.010
2020/01/31 04:17:33.2	93.220	-0.310	0.410	1.040
2020/01/31 04:17:33.3	93.250	-0.360	0.480	1.070
2020/01/31 04:17:33.4	93.280	-0.400	0.530	1.090
2020/01/31 04:17:33.5	93.310	-0.450	0.570	1.110
2020/01/31 04:17:33.6	93.340	-0.490	0.610	1.140
2020/01/31 04:17:33.7	93.370	-0.520	0.630	1.160
2020/01/31 04:17:33.8	93.390	-0.550	0.650	1.170
2020/01/31 04:17:33.9	93.420	-0.570	0.650	1.190
2020/01/31 04:17:34.0	93.440	-0.590	0.650	1.200
2020/01/31 04:17:34.1	93.450	-0.600	0.630	1.220
2020/01/31 04:17:34.2	93.470	-0.610	0.610	1.230
2020/01/31 04:17:34.3	93.490	-0.610	0.580	1.240
2020/01/31 04:17:34.4	93.500	-0.610	0.540	1.240
2020/01/31 04:17:34.5	93.510	-0.600	0.490	1.250
2020/01/31 04:17:34.6	93.520	-0.590	0.440	1.250
2020/01/31 04:17:34.7	93.530	-0.570	0.380	1.260
2020/01/31 04:17:34.8	93.530	-0.540	0.320	1.260
2020/01/31 04:17:34.9	93.530	-0.520	0.260	1.270
2020/01/31 04:17:35.0	93.530	-0.490	0.190	1.270
2020/01/31 04:17:35.1	93.530	-0.450	0.130	1.270
2020/01/31 04:17:35.2	93.520	-0.420	0.060	1.280
2020/01/31 04:17:35.3	93.520	-0.380	-0.010	1.280
2020/01/31 04:17:35.4	93.510	-0.340	-0.070	1.290
2020/01/31 04:17:35.5	93.490	-0.300	-0.130	1.290
2020/01/31 04:17:35.6	93.480	-0.260	-0.190	1.300
2020/01/31 04:17:35.7	93.460	-0.230	-0.250	1.310
2020/01/31 04:17:35.8	93.450	-0.190	-0.300	1.310
2020/01/31 04:17:35.9	93.430	-0.150	-0.350	1.320
2020/01/31 04:17:36.0	93.410	-0.120	-0.390	1.330
2020/01/31 04:17:36.1	93.380	-0.080	-0.430	1.340
2020/01/31 04:17:36.2	93.360	-0.050	-0.460	1.340
2020/01/31 04:17:36.3	93.340	-0.020	-0.480	1.340
2020/01/31 04:17:36.4	93.320	0.000	-0.500	1.340
2020/01/31 04:17:36.5	93.300	0.020	-0.510	1.340
2020/01/31 04:17:36.6	93.290	0.040	-0.520	1.330
2020/01/31 04:17:36.7	93.270	0.060	-0.520	1.320
2020/01/31 04:17:36.8	93.250	0.070	-0.510	1.310
2020/01/31 04:17:36.9	93.230	0.070	-0.500	1.290
2020/01/31 04:17:37.0	93.220	0.080	-0.480	1.270
2020/01/31 04:17:37.1	93.200	0.080	-0.460	1.240
2020/01/31 04:17:37.2	93.190	0.080	-0.430	1.210
2020/01/31 04:17:37.3	93.180	0.070	-0.400	1.170
2020/01/31 04:17:37.4	93.170	0.060	-0.370	1.130
2020/01/31 04:17:37.5	93.160	0.050	-0.330	1.080
2020/01/31 04:17:37.6	93.160	0.040	-0.290	1.030
2020/01/31 04:17:37.7	93.150	0.030	-0.250	0.980
2020/01/31 04:17:37.8	93.150	0.020	-0.210	0.920
2020/01/31 04:17:37.9	93.150	0.000	-0.170	0.860
2020/01/31 04:17:38.0	93.150	-0.010	-0.130	0.800
2020/01/31 04:17:38.1	93.150	-0.030	-0.090	0.740
2020/01/31 04:17:38.2	93.160	-0.040	-0.050	0.680
2020/01/31 04:17:38.3	93.160	-0.060	-0.020	0.620
2020/01/31 04:17:38.4	93.170	-0.070	0.010	0.550
2020/01/31 04:17:38.5	93.170	-0.080	0.040	0.490
2020/01/31 04:17:38.6	93.180	-0.090	0.070	0.430
2020/01/31 04:17:38.7	93.190	-0.090	0.090	0.380
2020/01/31 04:17:38.8	93.200	-0.100	0.100	0.320
2020/01/31 04:17:38.9	93.210	-0.100	0.110	0.270
2020/01/31 04:17:39.0	93.220	-0.100	0.110	0.220
2020/01/31 04:17:39.1	93.220	-0.100	0.110	0.170
2020/01/31 04:17:39.2	93.230	-0.090	0.110	0.120
2020/01/31 04:17:39.3	93.250	-0.080	0.090	0.080
2020/01/31 04:17:39.4	93.260	-0.070	0.080	0.040
2020/01/31 04:17:39.5	93.280	-0.050	0.050	-0.000
2020/01/31 04:17:39.6	93.290	-0.030	0.020	-0.040
2020/01/31 04:17:39.7	93.310	-0.010	-0.010	-0.080
2020/01/31 04:17:39.8	93.330	0.010	-0.050	-0.110
2020/01/31 04:17:39.9	93.350	0.030	-0.090	-0.140
2020/01/31 04:17:40.0	93.370	0.060	-0.140	-0.170
2020/01/31 04:17:40.1	93.390	0.080	-0.190	-0.190
2020/01/31 04:17:40.2	93.420	0.110	-0.240	-0.220
2020/01/31 04:17:40.3	93.440	0.140	-0.290	-0.240
2020/01/31 04:17:40.4	93.460	0.170	-0.350	-0.250
2020/01/31 04:17:40.5	93.480	0.190	-0.400	-0.260
2020/01/31 04:17:40.6	93.500	0.220	-0.450	-0.270
2020/01/31 04:17:40.7	93.520	0.250	-0.500	-0.270
2020/01/31 04:17:40.8	93.540	0.270	-0.550	-0.270
2020/01/31 04:17:40.9	93.560	0.300	-0.600	-0.260
2020/01/31 04:17:41.0	93.570	0.320	-0.640	-0.240
2020/01/31 04:17:41.1	93.590	0.340	-0.680	-0.220
2020/01/31 04:17:41.2	93.600	0.350	-0.710	-0.190
2020/01/31 04:17:41.3	93.610	0.370	-0.740	-0.160
2020/01/31 04:17:41.4	93.610	0.380	-0.760	-0.110
2020/01/31 04:17:41.5	93.610	0.390	-0.780	-0.060
2020/01/31 04:17:41.6	93.600	0.390	-0.790	-0.010
2020/01/31 04:17:41.7	93.590	0.390	-0.790	0.050
2020/01/31 04:17:41.8	93.580	0.390	-0.790	0.120
2020/01/31 04:17:41.9	93.570	0.380	-0.780	0.190
2020/01/31 04:17:42.0	93.550	0.370	-0.770	0.260
2020/01/31 04:17:42.1	93.530	0.360	-0.740	0.340
2020/01/31 04:17:42.2	93.510	0.340	-0.720	0.410
2020/01/31 04:17:42.3	93.480	0.320	-0.680	0.490
2020/01/31 04:17:42.4	93.450	0.290	-0.640	0.560
2020/01/31 04:17:42.5	93.420	0.270	-0.600	0.630
2020/01/31 04:17:42.6	93.390	0.240	-0.550	0.700
2020/01/31 04:17:42.7	93.350	0.210	-0.490	0.770
2020/01/31 04:17:42.8	93.310	0.170	-0.440	0.840
2020/01/31 04:17:42.9	93.270	0.140	-0.380	0.900
2020/01/31 04:17:43.0	93.240	0.100	-0.310	0.950
2020/01/31 04:17:43.1	93.200	0.060	-0.250	1.000
2020/01/31 04:17:43.2	93.160	0.020	-0.180	1.050
2020/01/31 04:17:43.3	93.120	-0.020	-0.120	1.090
2020/01/31 04:17:43.4	93.080	-0.060	-0.050	1.120
2020/01/31 04:17:43.5	93.050	-0.100	0.010	1.150
2020/01/31 04:17:43.6	93.010	-0.140	0.070	1.170
2020/01/31 04:17:43.7	92.980	-0.170	0.120	1.200
2020/01/31 04:17:43.8	92.950	-0.210	0.170	1.210
2020/01/31 04:17:43.9	92.920	-0.240	0.220	1.220
2020/01/31 04:17:44.0	92.890	-0.270	0.250	1.230
2020/01/31 04:17:44.1	92.860	-0.300	0.290	1.240
2020/01/31 04:17:44.2	92.830	-0.320	0.310	1.250
2020/01/31 04:17:44.3	92.810	-0.340	0.330	1.250
2020/01/31 04:17:44.4	92.800	-0.350	0.330	1.250
2020/01/31 04:17:44.5	92.780	-0.360	0.330	1.250
2020/01/31 04:17:44.6	92.770	-0.370	0.320	1.240
2020/01/31 04:17:44.7	92.760	-0.370	0.300	1.240
2020/01/31 04:17:44.8	92.750	-0.370	0.270	1.230
2020/01/31 04:17:44.9	92.750	-0.360	0.230	1.220
2020/01/31 04:17:45.0	92.750	-0.350	0.190	1.210
2020/01/31 04:17:45.1	92.740	-0.330	0.130	1.190
2020/01/31 04:17:45.2	92.750	-0.310	0.070	1.170
2020/01/31 04:17:45.3	92.750	-0.280	0.010	1.150
2020/01/31 04:17:45.4	92.760	-0.250	-0.060	1.130
2020/01/31 04:17:45.5	92.770	-0.220	-0.140	1.100
2020/01/31 04:17:45.6	92.780	-0.180	-0.210	1.080
2020/01/31 04:17:45.7	92.790	-0.140	-0.290	1.040
2020/01/31 04:17:45.8	92.800	-0.090	-0.370	1.010
2020/01/31 04:17:45.9	92.810	-0.050	-0.450	0.970
2020/01/31 04:17:46.0	92.820	0.000	-0.530	0.940
2020/01/31 04:17:46.1	92.820	0.050	-0.610	0.900
2020/01/31 04:17:46.2	92.830	0.100	-0.690	0.860
2020/01/31 04:17:46.3	92.840	0.150	-0.750	0.820
2020/01/31 04:17:46.4	92.840	0.200	-0.810	0.780
2020/01/31 04:17:46.5	92.850	0.250	-0.870	0.750
2020/01/31 04:17:46.6	92.850	0.300	-0.920	0.710
2020/01/31 04:17:46.7	92.850	0.350	-0.950	0.680
2020/01/31 04:17:46.8	92.850	0.400	-0.980	0.650
2020/01/31 04:17:46.9	92.850	0.440	-1.000	0.620
2020/01/31 04:17:47.0	92.850	0.480	-1.010	0.600
2020/01/31 04:17:47.1	92.850	0.520	-1.000	0.590
2020/01/31 04:17:47.2	92.850	0.550	-0.990	0.580
2020/01/31 04:17:47.3	92.840	0.580	-0.970	0.570
2020/01/31 04:17:47.4	92.840	0.610	-0.940	0.570
2020/01/31 04:17:47.5	92.840	0.630	-0.900	0.570
2020/01/31 04:17:47.6	92.830	0.640	-0.850	0.580
2020/01/31 04:17:47.7	92.830	0.650	-0.800	0.590
2020/01/31 04:17:47.8	92.830	0.660	-0.730	0.600
2020/01/31 04:17:47.9	92.830	0.660	-0.660	0.620
2020/01/31 04:17:48.0	92.830	0.650	-0.590	0.650
2020/01/31 04:17:48.1	92.830	0.640	-0.510	0.680
2020/01/31 04:17:48.2	92.830	0.620	-0.430	0.700
2020/01/31 04:17:48.3	92.840	0.600	-0.350	0.730
2020/01/31 04:17:48.4	92.850	0.570	-0.260	0.760
2020/01/31 04:17:48.5	92.860	0.540	-0.180	0.780
2020/01/31 04:17:48.6	92.870	0.510	-0.100	0.810
2020/01/31 04:17:48.7	92.880	0.470	-0.020	0.840
2020/01/31 04:17:48.8	92.890	0.430	0.060	0.860
2020/01/31 04:17:48.9	92.910	0.380	0.130	0.880
2020/01/31 04:17:49.0	92.920	0.340	0.200	0.900
2020/01/31 04:17:49.1	92.940	0.290	0.270	0.910
2020/01/31 04:17:49.2	92.960	0.240	0.330	0.920
2020/01/31 04:17:49.3	92.970	0.180	0.380	0.940
2020/01/31 04:17:49.4	92.990	0.130	0.430	0.940
2020/01/31 04:17:49.5	93.000	0.070	0.480	0.950
2020/01/31 04:17:49.6	93.020	0.010	0.520	0.960
2020/01/31 04:17:49.7	93.030	-0.040	0.550	0.960
2020/01/31 04:17:49.8	93.040	-0.100	0.580	0.960
2020/01/31 04:17:49.9	93.040	-0.150	0.610	0.960
2020/01/31 04:17:50.0	93.050	-0.210	0.620	0.970
2020/01/31 04:17:50.1	93.060	-0.260	0.640	0.970
2020/01/31 04:17:50.2	93.070	-0.310	0.650	0.970
2020/01/31 04:17:50.3	93.060	-0.360	0.660	0.970
2020/01/31 04:17:50.4	93.060	-0.410	0.660	0.970
2020/01/31 04:17:50.5	93.060	-0.450	0.660	0.970
2020/01/31 04:17:50.6	93.050	-0.490	0.650	0.970
2020/01/31 04:17:50.7	93.040	-0.530	0.640	0.970
2020/01/31 04:17:50.8	93.030	-0.570	0.630	0.980
2020/01/31 04:17:50.9	93.020	-0.600	0.610	0.980
2020/01/31 04:17:51.0	93.010	-0.630	0.590	0.980
2020/01/31 04:17:51.1	92.990	-0.650	0.560	0.980
2020/01/31 04:17:51.2	92.980	-0.670	0.530	0.980
2020/01/31 04:17:51.3	92.970	-0.690	0.490	0.980
2020/01/31 04:17:51.4	92.960	-0.700	0.450	0.970
2020/01/31 04:17:51.5	92.950	-0.700	0.410	0.970
2020/01/31 04:17:51.6	92.940	-0.700	0.360	0.970
2020/01/31 04:17:51.7	92.930	-0.700	0.300	0.960
2020/01/31 04:17:51.8	92.920	-0.690	0.240	0.950
2020/01/31 04:17:51.9	92.920	-0.680	0.170	0.950
2020/01/31 04:17:52.0	92.910	-0.670	0.100	0.940
2020/01/31 04:17:52.1	92.910	-0.650	0.030	0.930
2020/01/31 04:17:52.2	92.910	-0.620	-0.050	0.920
2020/01/31 04:17:52.3	92.910	-0.590	-0.130	0.910
2020/01/31 04:17:52.4	92.900	-0.560	-0.210	0.900
2020/01/31 04:17:52.5	92.900	-0.530	-0.300	0.890
2020/01/31 04:17:52.6	92.900	-0.490	-0.390	0.890
2020/01/31 04:17:52.7	92.900	-0.450	-0.470	0.880
2020/01/31 04:17:52.8	92.910	-0.400	-0.560	0.870
2020/01/31 04:17:52.9	92.910	-0.360	-0.650	0.870
2020/01/31 04:17:53.0	92.910	-0.310	-0.730	0.860
2020/01/31 04:17:53.1	92.920	-0.260	-0.810	0.860
2020/01/31 04:17:53.2	92.920	-0.210	-0.890	0.850
2020/01/31 04:17:53.3	92.930	-0.170	-0.960	0.840
2020/01/31 04:17:53.4	92.940	-0.120	-1.030	0.830
2020/01/31 04:17:53.5	92.940	-0.070	-1.090	0.820
2020/01/31 04:17:53.6	92.950	-0.020	-1.150	0.810
2020/01/31 04:17:53.7	92.960	0.030	-1.190	0.800
2020/01/31 04:17:53.8	92.970	0.070	-1.230	0.780
2020/01/31 04:17:53.9	92.980	0.110	-1.270	0.770
2020/01/31 04:17:54.0	92.990	0.150	-1.290	0.750
2020/01/31 04:17:54.1	93.010	0.190	-1.300	0.740
2020/01/31 04:17:54.2	93.020	0.220	-1.310	0.720
2020/01/31 04:17:54.3	93.030	0.250	-1.310	0.700
2020/01/31 04:17:54.4	93.040	0.280	-1.290	0.690
2020/01/31 04:17:54.5	93.050	0.300	-1.270	0.670
2020/01/31 04:17:54.6	93.060	0.320	-1.250	0.650
2020/01/31 04:17:54.7	93.060	0.340	-1.210	0.640
2020/01/31 04:17:54.8	93.070	0.350	-1.160	0.630
2020/01/31 04:17:54.9	93.070	0.360	-1.110	0.620
2020/01/31 04:17:55.0	93.070	0.360	-1.050	0.610
2020/01/31 04:17:55.1	93.070	0.350	-0.980	0.600
2020/01/31 04:17:55.2	93.070	0.350	-0.910	0.590
2020/01/31 04:17:55.3	93.060	0.340	-0.830	0.580
2020/01/31 04:17:55.4	93.060	0.320	-0.750	0.580
2020/01/31 04:17:55.5	93.050	0.300	-0.660	0.580
2020/01/31 04:17:55.6	93.040	0.280	-0.570	0.580
2020/01/31 04:17:55.7	93.020	0.250	-0.480	0.580
2020/01/31 04:17:55.8	93.010	0.230	-0.390	0.580
2020/01/31 04:17:55.9	93.000	0.190	-0.300	0.580
2020/01/31 04:17:56.0	92.980	0.160	-0.200	0.590
2020/01/31 04:17:56.1	92.970	0.120	-0.110	0.590
2020/01/31 04:17:56.2	92.950	0.090	-0.020	0.600
2020/01/31 04:17:56.3	92.930	0.050	0.070	0.600
2020/01/31 04:17:56.4	92.910	0.010	0.160	0.600
2020/01/31 04:17:56.5	92.900	-0.030	0.240	0.610
2020/01/31 04:17:56.6	92.880	-0.070	0.330	0.610
2020/01/31 04:17:56.7	92.860	-0.120	0.400	0.610
2020/01/31 04:17:56.8	92.850	-0.160	0.480	0.610
2020/01/31 04:17:56.9	92.830	-0.200	0.550	0.610
2020/01/31 04:17:57.0	92.810	-0.230	0.610	0.610
2020/01/31 04:17:57.1	92.800	-0.270	0.680	0.600
2020/01/31 04:17:57.2	92.790	-0.310	0.730	0.600
2020/01/31 04:17:57.3	92.770	-0.340	0.770	0.590
2020/01/31 04:17:57.4	92.760	-0.370	0.810	0.580
2020/01/31 04:17:57.5	92.740	-0.400	0.850	0.570
2020/01/31 04:17:57.6	92.730	-0.420	0.870	0.560
2020/01/31 04:17:57.7	92.720	-0.440	0.890	0.540
2020/01/31 04:17:57.8	92.710	-0.460	0.900	0.530
2020/01/31 04:17:57.9	92.700	-0.470	0.900	0.510
2020/01/31 04:17:58.0	92.690	-0.480	0.890	0.490
2020/01/31 04:17:58.1	92.670	-0.490	0.870	0.470
2020/01/31 04:17:58.2	92.670	-0.490	0.850	0.450
2020/01/31 04:17:58.3	92.660	-0.490	0.810	0.430
2020/01/31 04:17:58.4	92.660	-0.480	0.770	0.410
2020/01/31 04:17:58.5	92.650	-0.470	0.720	0.380
2020/01/31 04:17:58.6	92.650	-0.460	0.670	0.360
2020/01/31 04:17:58.7	92.650	-0.440	0.600	0.330
2020/01/31 04:17:58.8	92.650	-0.410	0.530	0.310
2020/01/31 04:17:58.9	92.650	-0.390	0.460	0.280
2020/01/31 04:17:59.0	92.650	-0.360	0.380	0.250
2020/01/31 04:17:59.1	92.650	-0.330	0.300	0.220
2020/01/31 04:17:59.2	92.650	-0.300	0.210	0.200
2020/01/31 04:17:59.3	92.650	-0.260	0.120	0.170
2020/01/31 04:17:59.4	92.660	-0.220	0.020	0.150
2020/01/31 04:17:59.5	92.670	-0.180	-0.080	0.120
2020/01/31 04:17:59.6	92.670	-0.130	-0.170	0.100
2020/01/31 04:17:59.7	92.680	-0.090	-0.270	0.080
2020/01/31 04:17:59.8	92.690	-0.040	-0.370	0.060
2020/01/31 04:17:59.9	92.700	0.010	-0.470	0.040
2020/01/31 04:18:00.0	92.700	0.060	-0.570	0.020
2020/01/31 04:18:00.1	92.720	0.110	-0.670	0.010
2020/01/31 04:18:00.2	92.730	0.170	-0.770	0.010
2020/01/31 04:18:00.3	92.730	0.220	-0.860	0.000
2020/01/31 04:18:00.4	92.740	0.270	-0.950	0.000
2020/01/31 04:18:00.5	92.740	0.330	-1.040	0.010
2020/01/31 04:18:00.6	92.750	0.380	-1.120	0.020
2020/01/31 04:18:00.7	92.750	0.430	-1.200	0.030
2020/01/31 04:18:00.8	92.760	0.490	-1.270	0.050
2020/01/31 04:18:00.9	92.760	0.540	-1.330	0.070
2020/01/31 04:18:01.0	92.770	0.590	-1.390	0.090
2020/01/31 04:18:01.1	92.770	0.630	-1.440	0.130
2020/01/31 04:18:01.2	92.770	0.680	-1.480	0.160
2020/01/31 04:18:01.3	92.780	0.720	-1.520	0.200
2020/01/31 04:18:01.4	92.780	0.760	-1.550	0.240
2020/01/31 04:18:01.5	92.780	0.800	-1.560	0.280
2020/01/31 04:18:01.6	92.780	0.830	-1.570	0.330
2020/01/31 04:18:01.7	92.780	0.860	-1.570	0.370
2020/01/31 04:18:01.8	92.780	0.890	-1.560	0.420
2020/01/31 04:18:01.9	92.780	0.910	-1.530	0.470
2020/01/31 04:18:02.0	92.770	0.930	-1.500	0.510
2020/01/31 04:18:02.1	92.780	0.940	-1.460	0.570
2020/01/31 04:18:02.2	92.780	0.940	-1.400	0.620
2020/01/31 04:18:02.3	92.770	0.940	-1.330	0.670
2020/01/31 04:18:02.4	92.760	0.930	-1.260	0.710
2020/01/31 04:18:02.5	92.750	0.920	-1.170	0.760
2020/01/31 04:18:02.6	92.740	0.900	-1.070	0.810
2020/01/31 04:18:02.7	92.730	0.870	-0.960	0.850
2020/01/31 04:18:02.8	92.720	0.840	-0.850	0.890
2020/01/31 04:18:02.9	92.710	0.800	-0.730	0.930
2020/01/31 04:18:03.0	92.690	0.760	-0.600	0.970
2020/01/31 04:18:03.1	92.690	0.710	-0.460	1.000
2020/01/31 04:18:03.2	92.680	0.650	-0.330	1.030
2020/01/31 04:18:03.3	92.660	0.590	-0.190	1.060
2020/01/31 04:18:03.4	92.650	0.530	-0.050	1.090
2020/01/31 04:18:03.5	92.630	0.460	0.090	1.120
2020/01/31 04:18:03.6	92.610	0.380	0.230	1.140
2020/01/31 04:18:03.7	92.600	0.300	0.370	1.150
2020/01/31 04:18:03.8	92.580	0.230	0.500	1.170
2020/01/31 04:18:03.9	92.560	0.140	0.630	1.180
2020/01/31 04:18:04.0	92.550	0.060	0.750	1.190
2020/01/31 04:18:04.1	92.520	-0.020	0.870	1.200
2020/01/31 04:18:04.2	92.510	-0.100	0.970	1.200
2020/01/31 04:18:04.3	92.500	-0.180	1.060	1.200
2020/01/31 04:18:04.4	92.490	-0.260	1.150	1.200
2020/01/31 04:18:04.5	92.480	-0.340	1.220	1.200
2020/01/31 04:18:04.6	92.470	-0.410	1.280	1.190
2020/01/31 04:18:04.7	92.460	-0.480	1.320	1.180
2020/01/31 04:18:04.8	92.460	-0.540	1.360	1.170
2020/01/31 04:18:04.9	92.460	-0.600	1.370	1.160
2020/01/31 04:18:05.0	92.450	-0.650	1.380	1.150
2020/01/31 04:18:05.1	92.450	-0.700	1.370	1.140
2020/01/31 04:18:05.2	92.460	-0.740	1.340	1.120
2020/01/31 04:18:05.3	92.460	-0.770	1.300	1.100
2020/01/31 04:18:05.4	92.460	-0.790	1.250	1.080
2020/01/31 04:18:05.5	92.470	-0.810	1.190	1.060
2020/01/31 04:18:05.6	92.480	-0.820	1.110	1.040
2020/01/31 04:18:05.7	92.490	-0.820	1.010	1.010
2020/01/31 04:18:05.8	92.500	-0.820	0.910	0.990
2020/01/31 04:18:05.9	92.510	-0.810	0.800	0.960
2020/01/31 04:18:06.0	92.520	-0.790	0.670	0.940
2020/01/31 04:18:06.1	92.520	-0.760	0.540	0.920
2020/01/31 04:18:06.2	92.530	-0.730	0.400	0.890
2020/01/31 04:18:06.3	92.540	-0.690	0.250	0.870
2020/01/31 04:18:06.4	92.550	-0.650	0.100	0.850
2020/01/31 04:18:06.5	92.550	-0.600	-0.050	0.830
2020/01/31 04:18:06.6	92.560	-0.550	-0.210	0.810
2020/01/31 04:18:06.7	92.560	-0.490	-0.360	0.800
2020/01/31 04:18:06.8	92.570	-0.440	-0.510	0.780
2020/01/31 04:18:06.9	92.570	-0.380	-0.660	0.770
2020/01/31 04:18:07.0	92.570	-0.320	-0.800	0.760
2020/01/31 04:18:07.1	92.570	-0.260	-0.940	0.750
2020/01/31 04:18:07.2	92.570	-0.200	-1.060	0.750
2020/01/31 04:18:07.3	92.560	-0.140	-1.180	0.750
2020/01/31 04:18:07.4	92.560	-0.080	-1.280	0.750
2020/01/31 04:18:07.5	92.560	-0.030	-1.370	0.750
2020/01/31 04:18:07.6	92.550	0.020	-1.450	0.760
2020/01/31 04:18:07.7	92.540	0.060	-1.520	0.770
2020/01/31 04:18:07.8	92.530	0.100	-1.570	0.790
2020/01/31 04:18:07.9	92.520	0.140	-1.600	0.810
2020/01/31 04:18:08.0	92.510	0.170	-1.620	0.830
2020/01/31 04:18:08.1	92.520	0.190	-1.630	0.860
2020/01/31 04:18:08.2	92.510	0.200	-1.620	0.890
2020/01/31 04:18:08.3	92.490	0.210	-1.600	0.920
2020/01/31 04:18:08.4	92.480	0.220	-1.560	0.950
2020/01/31 04:18:08.5	92.470	0.210	-1.510	0.980
2020/01/31 04:18:08.6	92.460	0.200	-1.440	1.010
2020/01/31 04:18:08.7	92.450	0.180	-1.370	1.040
2020/01/31 04:18:08.8	92.440	0.160	-1.280	1.070
2020/01/31 04:18:08.9	92.430	0.130	-1.180	1.100
2020/01/31 04:18:09.0	92.420	0.100	-1.070	1.130
2020/01/31 04:18:09.1	92.410	0.060	-0.960	1.150
2020/01/31 04:18:09.2	92.410	0.010	-0.830	1.170
2020/01/31 04:18:09.3	92.400	-0.040	-0.710	1.190
2020/01/31 04:18:09.4	92.400	-0.090	-0.580	1.210
2020/01/31 04:18:09.5	92.400	-0.150	-0.440	1.220
2020/01/31 04:18:09.6	92.390	-0.200	-0.310	1.230
2020/01/31 04:18:09.7	92.400	-0.260	-0.170	1.230
2020/01/31 04:18:09.8	92.400	-0.320	-0.040	1.230
2020/01/31 04:18:09.9	92.400	-0.380	0.090	1.230
2020/01/31 04:18:10.0	92.410	-0.440	0.220	1.230
2020/01/31 04:18:10.1	92.410	-0.500	0.340	1.220
2020/01/31 04:18:10.2	92.420	-0.560	0.450	1.210
2020/01/31 04:18:10.3	92.430	-0.610	0.560	1.190
2020/01/31 04:18:10.4	92.440	-0.660	0.660	1.180
2020/01/31 04:18:10.5	92.450	-0.700	0.750	1.160
2020/01/31 04:18:10.6	92.460	-0.740	0.820	1.150
2020/01/31 04:18:10.7	92.470	-0.770	0.890	1.130
2020/01/31 04:18:10.8	92.480	-0.790	0.950	1.110
2020/01/31 04:18:10.9	92.490	-0.810	0.990	1.090
2020/01/31 04:18:11.0	92.510	-0.820	1.010	1.060
2020/01/31 04:18:11.1	92.510	-0.820	1.030	1.040
2020/01/31 04:18:11.2	92.520	-0.820	1.030	1.020
2020/01/31 04:18:11.3	92.530	-0.800	1.020	1.000
2020/01/31 04:18:11.4	92.540	-0.780	0.990	0.970
2020/01/31 04:18:11.5	92.550	-0.750	0.950	0.950
2020/01/31 04:18:11.6	92.560	-0.710	0.900	0.930
2020/01/31 04:18:11.7	92.560	-0.670	0.840	0.900
2020/01/31 04:18:11.8	92.570	-0.610	0.760	0.880
2020/01/31 04:18:11.9	92.570	-0.550	0.680	0.860
2020/01/31 04:18:12.0	92.570	-0.490	0.590	0.830
2020/01/31 04:18:12.1	92.570	-0.420	0.480	0.810
2020/01/31 04:18:12.2	92.570	-0.340	0.370	0.780
2020/01/31 04:18:12.3	92.560	-0.260	0.260	0.750
2020/01/31 04:18:12.4	92.560	-0.180	0.150	0.720
2020/01/31 04:18:12.5	92.550	-0.100	0.040	0.690
2020/01/31 04:18:12.6	92.550	-0.020	-0.080	0.660
2020/01/31 04:18:12.7	92.540	0.070	-0.190	0.630
2020/01/31 04:18:12.8	92.530	0.150	-0.300	0.600
2020/01/31 04:18:12.9	92.530	0.240	-0.400	0.570
2020/01/31 04:18:13.0	92.520	0.320	-0.500	0.540
2020/01/31 04:18:13.1	92.500	0.400	-0.590	0.510
2020/01/31 04:18:13.2	92.490	0.470	-0.680	0.490
2020/01/31 04:18:13.3	92.480	0.540	-0.760	0.460
2020/01/31 04:18:13.4	92.470	0.610	-0.840	0.430
2020/01/31 04:18:13.5	92.450	0.680	-0.900	0.410
2020/01/31 04:18:13.6	92.440	0.730	-0.960	0.380
2020/01/31 04:18:13.7	92.420	0.790	-1.010	0.360
2020/01/31 04:18:13.8	92.400	0.830	-1.050	0.340
2020/01/31 04:18:13.9	92.380	0.880	-1.090	0.320
2020/01/31 04:18:14.0	92.360	0.910	-1.110	0.300
2020/01/31 04:18:14.1	92.340	0.940	-1.130	0.290
2020/01/31 04:18:14.2	92.320	0.970	-1.140	0.270
2020/01/31 04:18:14.3	92.300	0.990	-1.140	0.260
2020/01/31 04:18:14.4	92.270	1.000	-1.140	0.250
2020/01/31 04:18:14.5	92.250	1.010	-1.120	0.240
2020/01/31 04:18:14.6	92.220	1.010	-1.100	0.240
2020/01/31 04:18:14.7	92.190	1.010	-1.080	0.230
2020/01/31 04:18:14.8	92.170	1.000	-1.050	0.220
2020/01/31 04:18:14.9	92.140	0.990	-1.010	0.220
2020/01/31 04:18:15.0	92.110	0.980	-0.970	0.220
2020/01/31 04:18:15.1	92.090	0.960	-0.920	0.210
2020/01/31 04:18:15.2	92.070	0.940	-0.870	0.210
2020/01/31 04:18:15.3	92.050	0.920	-0.820	0.200
2020/01/31 04:18:15.4	92.030	0.890	-0.770	0.200
2020/01/31 04:18:15.5	92.020	0.860	-0.710	0.190
2020/01/31 04:18:15.6	92.010	0.830	-0.650	0.180
2020/01/31 04:18:15.7	92.010	0.790	-0.590	0.180
2020/01/31 04:18:15.8	92.010	0.760	-0.520	0.170
2020/01/31 04:18:15.9	92.010	0.720	-0.460	0.160
2020/01/31 04:18:16.0	92.020	0.680	-0.400	0.150
2020/01/31 04:18:16.1	92.030	0.650	-0.330	0.140
2020/01/31 04:18:16.2	92.050	0.610	-0.260	0.140
2020/01/31 04:18:16.3	92.070	0.570	-0.200	0.140
2020/01/31 04:18:16.4	92.090	0.520	-0.130	0.140
2020/01/31 04:18:16.5	92.120	0.480	-0.070	0.140
2020/01/31 04:18:16.6	92.150	0.440	-0.000	0.150
2020/01/31 04:18:16.7	92.180	0.400	0.060	0.160
2020/01/31 04:18:16.8	92.210	0.350	0.120	0.170
2020/01/31 04:18:16.9	92.250	0.310	0.180	0.190
2020/01/31 04:18:17.0	92.280	0.270	0.240	0.210
2020/01/31 04:18:17.1	92.320	0.220	0.290	0.240
2020/01/31 04:18:17.2	92.350	0.180	0.340	0.270
2020/01/31 04:18:17.3	92.390	0.140	0.390	0.310
2020/01/31 04:18:17.4	92.430	0.100	0.430	0.350
2020/01/31 04:18:17.5	92.460	0.050	0.470	0.400
2020/01/31 04:18:17.6	92.500	0.010	0.500	0.450
2020/01/31 04:18:17.7	92.540	-0.030	0.530	0.500
2020/01/31 04:18:17.8	92.570	-0.070	0.550	0.550
2020/01/31 04:18:17.9	92.610	-0.100	0.560	0.610
2020/01/31 04:18:18.0	92.640	-0.140	0.570	0.660
2020/01/31 04:18:18.1	92.670	-0.170	0.560	0.720
2020/01/31 04:18:18.2	92.700	-0.200	0.560	0.780
2020/01/31 04:18:18.3	92.720	-0.230	0.540	0.840
2020/01/31 04:18:18.4	92.740	-0.260	0.520	0.900
2020/01/31 04:18:18.5	92.760	-0.290	0.490	0.960
2020/01/31 04:18:18.6	92.780	-0.310	0.460	1.020
2020/01/31 04:18:18.7	92.790	-0.340	0.420	1.090
2020/01/31 04:18:18.8	92.790	-0.360	0.370	1.160
2020/01/31 04:18:18.9	92.790	-0.380	0.330	1.220
2020/01/31 04:18:19.0	92.790	-0.390	0.270	1.290
2020/01/31 04:18:19.1	92.790	-0.410	0.220	1.360
2020/01/31 04:18:19.2	92.770	-0.430	0.160	1.430
2020/01/31 04:18:19.3	92.760	-0.440	0.090	1.500
2020/01/31 04:18:19.4	92.740	-0.450	0.030	1.570
2020/01/31 04:18:19.5	92.720	-0.460	-0.030	1.640
2020/01/31 04:18:19.6	92.700	-0.470	-0.100	1.700
2020/01/31 04:18:19.7	92.680	-0.480	-0.160	1.770
2020/01/31 04:18:19.8	92.650	-0.490	-0.230	1.830
2020/01/31 04:18:19.9	92.630	-0.500	-0.290	1.890
2020/01/31 04:18:20.0	92.610	-0.510	-0.350	1.940
2020/01/31 04:18:20.1	92.570	-0.520	-0.420	2.000
2020/01/31 04:18:20.2	92.550	-0.520	-0.470	2.050
2020/01/31 04:18:20.3	92.520	-0.530	-0.530	2.100
2020/01/31 04:18:20.4	92.500	-0.540	-0.580	2.140
2020/01/31 04:18:20.5	92.480	-0.540	-0.630	2.180
2020/01/31 04:18:20.6	92.460	-0.540	-0.670	2.210
2020/01/31 04:18:20.7	92.440	-0.540	-0.720	2.240
2020/01/31 04:18:20.8	92.420	-0.550	-0.750	2.270
2020/01/31 04:18:20.9	92.410	-0.550	-0.780	2.280
2020/01/31 04:18:21.0	92.390	-0.550	-0.810	2.290
2020/01/31 04:18:21.1	92.390	-0.540	-0.830	2.300
2020/01/31 04:18:21.2	92.370	-0.540	-0.850	2.300
2020/01/31 04:18:21.3	92.360	-0.540	-0.850	2.290
2020/01/31 04:18:21.4	92.350	-0.530	-0.860	2.280
2020/01/31 04:18:21.5	92.340	-0.530	-0.850	2.260
2020/01/31 04:18:21.6	92.330	-0.520	-0.840	2.230
2020/01/31 04:18:21.7	92.310	-0.510	-0.830	2.200
2020/01/31 04:18:21.8	92.300	-0.500	-0.800	2.170
2020/01/31 04:18:21.9	92.290	-0.500	-0.770	2.130
2020/01/31 04:18:22.0	92.280	-0.490	-0.740	2.080
2020/01/31 04:18:22.1	92.260	-0.480	-0.690	2.040
2020/01/31 04:18:22.2	92.250	-0.470	-0.640	1.980
2020/01/31 04:18:22.3	92.240	-0.460	-0.590	1.930
2020/01/31 04:18:22.4	92.220	-0.450	-0.530	1.870
2020/01/31 04:18:22.5	92.210	-0.440	-0.470	1.800
2020/01/31 04:18:22.6	92.200	-0.430	-0.410	1.740
2020/01/31 04:18:22.7	92.180	-0.410	-0.340	1.670
2020/01/31 04:18:22.8	92.170	-0.400	-0.270	1.600
2020/01/31 04:18:22.9	92.160	-0.390	-0.210	1.530
2020/01/31 04:18:23.0	92.150	-0.370	-0.140	1.460
2020/01/31 04:18:23.1	92.130	-0.360	-0.070	1.380
2020/01/31 04:18:23.2	92.120	-0.340	-0.010	1.310
2020/01/31 04:18:23.3	92.110	-0.320	0.050	1.240
2020/01/31 04:18:23.4	92.100	-0.310	0.110	1.170
2020/01/31 04:18:23.5	92.090	-0.280	0.160	1.100
2020/01/31 04:18:23.6	92.070	-0.260	0.210	1.030
2020/01/31 04:18:23.7	92.060	-0.240	0.240	0.960
2020/01/31 04:18:23.8	92.060	-0.210	0.280	0.890
2020/01/31 04:18:23.9	92.050	-0.180	0.300	0.820
2020/01/31 04:18:24.0	92.040	-0.150	0.310	0.750
2020/01/31 04:18:24.1	92.040	-0.120	0.330	0.680
2020/01/31 04:18:24.2	92.040	-0.090	0.320	0.610
2020/01/31 04:18:24.3	92.040	-0.050	0.310	0.540
2020/01/31 04:18:24.4	92.040	-0.010	0.290	0.470
2020/01/31 04:18:24.5	92.040	0.030	0.260	0.400
2020/01/31 04:18:24.6	92.050	0.080	0.230	0.320
2020/01/31 04:18:24.7	92.050	0.120	0.190	0.250
2020/01/31 04:18:24.8	92.060	0.170	0.140	0.180
2020/01/31 04:18:24.9	92.070	0.210	0.080	0.100
2020/01/31 04:18:25.0	92.090	0.260	0.020	0.030
2020/01/31 04:18:25.1	92.100	0.310	-0.040	-0.040
2020/01/31 04:18:25.2	92.120	0.360	-0.110	-0.110
2020/01/31 04:18:25.3	92.140	0.410	-0.170	-0.180
2020/01/31 04:18:25.4	92.160	0.460	-0.240	-0.240
2020/01/31 04:18:25.5	92.170	0.510	-0.300	-0.310
2020/01/31 04:18:25.6	92.200	0.560	-0.370	-0.360
2020/01/31 04:18:25.7	92.220	0.600	-0.430	-0.420
2020/01/31 04:18:25.8	92.240	0.640	-0.490	-0.470
2020/01/31 04:18:25.9	92.260	0.690	-0.540	-0.510
2020/01/31 04:18:26.0	92.280	0.720	-0.590	-0.550
2020/01/31 04:18:26.1	92.300	0.760	-0.640	-0.590
2020/01/31 04:18:26.2	92.330	0.790	-0.680	-0.620
2020/01/31 04:18:26.3	92.350	0.820	-0.710	-0.640
2020/01/31 04:18:26.4	92.370	0.850	-0.740	-0.650
2020/01/31 04:18:26.5	92.390	0.870	-0.760	-0.650
2020/01/31 04:18:26.6	92.410	0.880	-0.770	-0.650
2020/01/31 04:18:26.7	92.430	0.890	-0.780	-0.630
2020/01/31 04:18:26.8	92.440	0.900	-0.780	-0.620
2020/01/31 04:18:26.9	92.460	0.900	-0.770	-0.590
2020/01/31 04:18:27.0	92.470	0.900	-0.760	-0.560
2020/01/31 04:18:27.1	92.490	0.890	-0.730	-0.520
2020/01/31 04:18:27.2	92.500	0.870	-0.710	-0.480
2020/01/31 04:18:27.3	92.510	0.850	-0.680	-0.440
2020/01/31 04:18:27.4	92.520	0.830	-0.640	-0.390
2020/01/31 04:18:27.5	92.520	0.800	-0.600	-0.340
2020/01/31 04:18:27.6	92.530	0.760	-0.550	-0.280
2020/01/31 04:18:27.7	92.530	0.720	-0.500	-0.220
2020/01/31 04:18:27.8	92.530	0.680	-0.450	-0.160
2020/01/31 04:18:27.9	92.530	0.630	-0.400	-0.090
2020/01/31 04:18:28.0	92.520	0.580	-0.340	-0.020
2020/01/31 04:18:28.1	92.520	0.520	-0.280	0.050
2020/01/31 04:18:28.2	92.510	0.460	-0.220	0.120
2020/01/31 04:18:28.3	92.500	0.400	-0.160	0.190
2020/01/31 04:18:28.4	92.490	0.330	-0.100	0.270
2020/01/31 04:18:28.5	92.470	0.270	-0.040	0.340
2020/01/31 04:18:28.6	92.450	0.200	0.020	0.410
2020/01/31 04:18:28.7	92.430	0.130	0.080	0.490
2020/01/31 04:18:28.8	92.400	0.060	0.140	0.560
2020/01/31 04:18:28.9	92.380	-0.020	0.190	0.630
2020/01/31 04:18:29.0	92.350	-0.090	0.240	0.700
2020/01/31 04:18:29.1	92.320	-0.160	0.300	0.770
2020/01/31 04:18:29.2	92.290	-0.230	0.340	0.840
2020/01/31 04:18:29.3	92.260	-0.300	0.380	0.910
2020/01/31 04:18:29.4	92.230	-0.360	0.420	0.970
2020/01/31 04:18:29.5	92.200	-0.430	0.450	1.040
2020/01/31 04:18:29.6	92.170	-0.490	0.470	1.100
2020/01/31 04:18:29.7	92.140	-0.550	0.490	1.150
2020/01/31 04:18:29.8	92.110	-0.600	0.510	1.210
2020/01/31 04:18:29.9	92.090	-0.650	0.520	1.260
2020/01/31 04:18:30.0	92.060	-0.700	0.520	1.300
2020/01/31 04:18:30.1	92.050	-0.740	0.510	1.340
2020/01/31 04:18:30.2	92.030	-0.770	0.490	1.380
2020/01/31 04:18:30.3	92.010	-0.800	0.470	1.410
2020/01/31 04:18:30.4	92.000	-0.820	0.450	1.440
2020/01/31 04:18:30.5	92.000	-0.840	0.410	1.470
2020/01/31 04:18:30.6	91.990	-0.850	0.370	1.480
2020/01/31 04:18:30.7	91.990	-0.860	0.330	1.500
2020/01/31 04:18:30.8	91.990	-0.860	0.270	1.510
2020/01/31 04:18:30.9	91.990	-0.850	0.210	1.510
2020/01/31 04:18:31.0	92.000	-0.840	0.150	1.520
2020/01/31 04:18:31.1	92.020	-0.820	0.080	1.520
2020/01/31 04:18:31.2	92.030	-0.790	0.010	1.520
2020/01/31 04:18:31.3	92.040	-0.760	-0.070	1.510
2020/01/31 04:18:31.4	92.050	-0.720	-0.150	1.510
2020/01/31 04:18:31.5	92.060	-0.680	-0.240	1.500
2020/01/31 04:18:31.6	92.070	-0.630	-0.320	1.500
2020/01/31 04:18:31.7	92.080	-0.580	-0.400	1.490
2020/01/31 04:18:31.8	92.090	-0.530	-0.490	1.480
2020/01/31 04:18:31.9	92.100	-0.470	-0.570	1.470
2020/01/31 04:18:32.0	92.100	-0.420	-0.640	1.470
2020/01/31 04:18:32.1	92.110	-0.360	-0.720	1.460
2020/01/31 04:18:32.2	92.120	-0.300	-0.790	1.450
2020/01/31 04:18:32.3	92.120	-0.240	-0.850	1.440
2020/01/31 04:18:32.4	92.120	-0.180	-0.910	1.430
2020/01/31 04:18:32.5	92.110	-0.120	-0.960	1.420
2020/01/31 04:18:32.6	92.110	-0.060	-1.000	1.410
2020/01/31 04:18:32.7	92.110	-0.010	-1.030	1.390
2020/01/31 04:18:32.8	92.100	0.050	-1.050	1.380
2020/01/31 04:18:32.9	92.090	0.100	-1.070	1.360
2020/01/31 04:18:33.0	92.080	0.140	-1.080	1.340
2020/01/31 04:18:33.1	92.070	0.180	-1.080	1.320
2020/01/31 04:18:33.2	92.060	0.220	-1.080	1.300
2020/01/31 04:18:33.3	92.050	0.260	-1.060	1.270
2020/01/31 04:18:33.4	92.050	0.290	-1.040	1.250
2020/01/31 04:18:33.5	92.040	0.320	-1.020	1.220
2020/01/31 04:18:33.6	92.030	0.340	-0.980	1.190
2020/01/31 04:18:33.7	92.020	0.360	-0.940	1.170
2020/01/31 04:18:33.8	92.010	0.370	-0.900	1.140
2020/01/31 04:18:33.9	92.000	0.390	-0.850	1.110
2020/01/31 04:18:34.0	91.990	0.390	-0.800	1.080
2020/01/31 04:18:34.1	91.980	0.400	-0.730	1.050
2020/01/31 04:18:34.2	91.970	0.400	-0.670	1.030
2020/01/31 04:18:34.3	91.970	0.400	-0.610	1.000
2020/01/31 04:18:34.4	91.960	0.400	-0.540	0.970
2020/01/31 04:18:34.5	91.960	0.390	-0.480	0.950
2020/01/31 04:18:34.6	91.960	0.380	-0.410	0.920
2020/01/31 04:18:34.7	91.950	0.380	-0.340	0.900
2020/01/31 04:18:34.8	91.950	0.370	-0.270	0.880
2020/01/31 04:18:34.9	91.950	0.360	-0.200	0.860
2020/01/31 04:18:35.0	91.950	0.350	-0.130	0.840
2020/01/31 04:18:35.1	91.940	0.330	-0.070	0.820
2020/01/31 04:18:35.2	91.940	0.320	-0.000	0.800
2020/01/31 04:18:35.3	91.940	0.310	0.060	0.780
2020/01/31 04:18:35.4	91.940	0.300	0.120	0.770
2020/01/31 04:18:35.5	91.930	0.280	0.180	0.750
2020/01/31 04:18:35.6	91.930	0.270	0.240	0.740
2020/01/31 04:18:35.7	91.930	0.250	0.290	0.720
2020/01/31 04:18:35.8	91.920	0.240	0.340	0.700
2020/01/31 04:18:35.9	91.920	0.220	0.390	0.690
2020/01/31 04:18:36.0	91.910	0.210	0.430	0.670
2020/01/31 04:18:36.1	91.910	0.190	0.470	0.650
2020/01/31 04:18:36.2	91.900	0.170	0.500	0.630
2020/01/31 04:18:36.3	91.900	0.160	0.520	0.600
2020/01/31 04:18:36.4	91.890	0.140	0.550	0.570
2020/01/31 04:18:36.5	91.880	0.130	0.560	0.540
2020/01/31 04:18:36.6	91.880	0.110	0.580	0.510
2020/01/31 04:18:36.7	91.870	0.090	0.580	0.470
2020/01/31 04:18:36.8	91.870	0.080	0.580	0.430
2020/01/31 04:18:36.9	91.860	0.060	0.580	0.390
2020/01/31 04:18:37.0	91.860	0.040	0.570	0.340
2020/01/31 04:18:37.1	91.840	0.030	0.550	0.300
2020/01/31 04:18:37.2	91.840	0.010	0.530	0.250
2020/01/31 04:18:37.3	91.840	-0.000	0.500	0.210
2020/01/31 04:18:37.4	91.840	-0.020	0.470	0.170
2020/01/31 04:18:37.5	91.840	-0.030	0.440	0.140
2020/01/31 04:18:37.6	91.840	-0.040	0.400	0.100
2020/01/31 04:18:37.7	91.840	-0.050	0.350	0.070
2020/01/31 04:18:37.8	91.850	-0.060	0.310	0.050
2020/01/31 04:18:37.9	91.850	-0.070	0.250	0.030
2020/01/31 04:18:38.0	91.850	-0.080	0.200	0.010
2020/01/31 04:18:38.1	91.850	-0.080	0.140	0.000
2020/01/31 04:18:38.2	91.850	-0.080	0.080	-0.000
2020/01/31 04:18:38.3	91.860	-0.090	0.020	0.000
2020/01/31 04:18:38.4	91.860	-0.090	-0.040	0.010
2020/01/31 04:18:38.5	91.870	-0.090	-0.100	0.020
2020/01/31 04:18:38.6	91.870	-0.090	-0.160	0.040
2020/01/31 04:18:38.7	91.880	-0.080	-0.230	0.060
2020/01/31 04:18:38.8	91.890	-0.080	-0.290	0.090
2020/01/31 04:18:38.9	91.890	-0.070	-0.350	0.120
2020/01/31 04:18:39.0	91.900	-0.060	-0.410	0.160
2020/01/31 04:18:39.1	91.910	-0.060	-0.470	0.200
2020/01/31 04:18:39.2	91.910	-0.050	-0.520	0.240
2020/01/31 04:18:39.3	91.920	-0.040	-0.580	0.280
2020/01/31 04:18:39.4	91.920	-0.030	-0.630	0.320
2020/01/31 04:18:39.5	91.920	-0.020	-0.680	0.370
2020/01/31 04:18:39.6	91.920	-0.010	-0.730	0.410
2020/01/31 04:18:39.7	91.920	0.000	-0.770	0.460
2020/01/31 04:18:39.8	91.910	0.010	-0.810	0.510
2020/01/31 04:18:39.9	91.900	0.020	-0.850	0.560
2020/01/31 04:18:40.0	91.890	0.030	-0.880	0.600
2020/01/31 04:18:40.1	91.890	0.040	-0.910	0.650
2020/01/31 04:18:40.2	91.870	0.050	-0.940	0.700
2020/01/31 04:18:40.3	91.860	0.060	-0.960	0.740
2020/01/31 04:18:40.4	91.850	0.060	-0.980	0.790
2020/01/31 04:18:40.5	91.830	0.070	-1.000	0.830
2020/01/31 04:18:40.6	91.820	0.070	-1.010	0.880
2020/01/31 04:18:40.7	91.800	0.080	-1.010	0.920
2020/01/31 04:18:40.8	91.790	0.080	-1.020	0.960
2020/01/31 04:18:40.9	91.780	0.080	-1.010	0.990
2020/01/31 04:18:41.0	91.760	0.080	-1.010	1.030
2020/01/31 04:18:41.1	91.770	0.080	-1.000	1.070
2020/01/31 04:18:41.2	91.760	0.080	-0.980	1.100
2020/01/31 04:18:41.3	91.760	0.080	-0.960	1.130
2020/01/31 04:18:41.4	91.750	0.070	-0.940	1.160
2020/01/31 04:18:41.5	91.740	0.060	-0.910	1.190
2020/01/31 04:18:41.6	91.740	0.060	-0.880	1.220
2020/01/31 04:18:41.7	91.740	0.050	-0.850	1.250
2020/01/31 04:18:41.8	91.730	0.040	-0.810	1.280
2020/01/31 04:18:41.9	91.730	0.030	-0.760	1.300
2020/01/31 04:18:42.0	91.730	0.020	-0.710	1.330
2020/01/31 04:18:42.1	91.740	0.000	-0.650	1.350
2020/01/31 04:18:42.2	91.740	-0.010	-0.600	1.370
2020/01/31 04:18:42.3	91.740	-0.030	-0.530	1.390
2020/01/31 04:18:42.4	91.740	-0.040	-0.470	1.410
2020/01/31 04:18:42.5	91.740	-0.060	-0.400	1.430
2020/01/31 04:18:42.6	91.730	-0.080	-0.320	1.450
2020/01/31 04:18:42.7	91.730	-0.100	-0.250	1.470
2020/01/31 04:18:42.8	91.730	-0.120	-0.180	1.480
2020/01/31 04:18:42.9	91.730	-0.150	-0.100	1.490
2020/01/31 04:18:43.0	91.730	-0.170	-0.020	1.500
2020/01/31 04:18:43.1	91.730	-0.190	0.060	1.510
2020/01/31 04:18:43.2	91.730	-0.210	0.130	1.510
2020/01/31 04:18:43.3	91.730	-0.230	0.200	1.510
2020/01/31 04:18:43.4	91.730	-0.260	0.270	1.500
2020/01/31 04:18:43.5	91.730	-0.280	0.330	1.500
2020/01/31 04:18:43.6	91.730	-0.300	0.390	1.490
2020/01/31 04:18:43.7	91.730	-0.310	0.440	1.470
2020/01/31 04:18:43.8	91.730	-0.330	0.490	1.460
2020/01/31 04:18:43.9	91.730	-0.340	0.530	1.440
2020/01/31 04:18:44.0	91.730	-0.360	0.560	1.410
2020/01/31 04:18:44.1	91.720	-0.370	0.580	1.380
2020/01/31 04:18:44.2	91.730	-0.370	0.600	1.350
2020/01/31 04:18:44.3	91.740	-0.380	0.610	1.320
2020/01/31 04:18:44.4	91.740	-0.380	0.610	1.280
2020/01/31 04:18:44.5	91.750	-0.380	0.610	1.250
2020/01/31 04:18:44.6	91.760	-0.380	0.600	1.210
2020/01/31 04:18:44.7	91.780	-0.370	0.580	1.160
2020/01/31 04:18:44.8	91.790	-0.360	0.550	1.120
2020/01/31 04:18:44.9	91.810	-0.350	0.520	1.070
2020/01/31 04:18:45.0	91.820	-0.340	0.480	1.020
2020/01/31 04:18:45.1	91.830	-0.320	0.430	0.970
2020/01/31 04:18:45.2	91.850	-0.310	0.390	0.930
2020/01/31 04:18:45.3	91.870	-0.290	0.340	0.880
2020/01/31 04:18:45.4	91.880	-0.270	0.290	0.830
2020/01/31 04:18:45.5	91.900	-0.240	0.230	0.790
2020/01/31 04:18:45.6	91.920	-0.220	0.170	0.750
2020/01/31 04:18:45.7	91.930	-0.190	0.120	0.710
2020/01/31 04:18:45.8	91.940	-0.170	0.060	0.670
2020/01/31 04:18:45.9	91.960	-0.140	0.000	0.640
2020/01/31 04:18:46.0	91.970	-0.110	-0.050	0.610
2020/01/31 04:18:46.1	91.970	-0.080	-0.110	0.580
2020/01/31 04:18:46.2	91.980	-0.060	-0.170	0.560
2020/01/31 04:18:46.3	91.980	-0.030	-0.220	0.540
2020/01/31 04:18:46.4	91.980	0.000	-0.270	0.520
2020/01/31 04:18:46.5	91.990	0.030	-0.310	0.510
2020/01/31 04:18:46.6	91.990	0.060	-0.360	0.500
2020/01/31 04:18:46.7	91.980	0.080	-0.400	0.480
2020/01/31 04:18:46.8	91.980	0.110	-0.440	0.480
2020/01/31 04:18:46.9	91.980	0.140	-0.480	0.470
2020/01/31 04:18:47.0	91.970	0.160	-0.510	0.460
2020/01/31 04:18:47.1	91.960	0.190	-0.540	0.460
2020/01/31 04:18:47.2	91.950	0.210	-0.570	0.450
2020/01/31 04:18:47.3	91.940	0.230	-0.590	0.450
2020/01/31 04:18:47.4	91.940	0.250	-0.610	0.440
2020/01/31 04:18:47.5	91.930	0.270	-0.630	0.430
2020/01/31 04:18:47.6	91.920	0.290	-0.640	0.420
2020/01/31 04:18:47.7	91.910	0.310	-0.650	0.410
2020/01/31 04:18:47.8	91.910	0.330	-0.660	0.400
2020/01/31 04:18:47.9	91.900	0.340	-0.660	0.390
2020/01/31 04:18:48.0	91.890	0.360	-0.660	0.380
2020/01/31 04:18:48.1	91.890	0.370	-0.660	0.370
2020/01/31 04:18:48.2	91.880	0.380	-0.650	0.360
2020/01/31 04:18:48.3	91.880	0.390	-0.650	0.350
2020/01/31 04:18:48.4	91.870	0.390	-0.630	0.350
2020/01/31 04:18:48.5	91.860	0.400	-0.620	0.340
2020/01/31 04:18:48.6	91.860	0.400	-0.600	0.340
2020/01/31 04:18:48.7	91.850	0.400	-0.590	0.340
2020/01/31 04:18:48.8	91.840	0.410	-0.570	0.340
2020/01/31 04:18:48.9	91.830	0.400	-0.540	0.340
2020/01/31 04:18:49.0	91.830	0.400	-0.520	0.340
2020/01/31 04:18:49.1	91.800	0.400	-0.490	0.350
2020/01/31 04:18:49.2	91.800	0.390	-0.460	0.360
2020/01/31 04:18:49.3	91.790	0.380	-0.440	0.360
2020/01/31 04:18:49.4	91.790	0.370	-0.410	0.370
2020/01/31 04:18:49.5	91.790	0.360	-0.380	0.380
2020/01/31 04:18:49.6	91.790	0.340	-0.350	0.390
2020/01/31 04:18:49.7	91.790	0.330	-0.320	0.400
2020/01/31 04:18:49.8	91.800	0.310	-0.290	0.400
2020/01/31 04:18:49.9	91.800	0.290	-0.260	0.410
2020/01/31 04:18:50.0	91.810	0.270	-0.230	0.420
2020/01/31 04:18:50.1	91.830	0.250	-0.200	0.430
2020/01/31 04:18:50.2	91.840	0.230	-0.170	0.430
2020/01/31 04:18:50.3	91.850	0.200	-0.140	0.440
2020/01/31 04:18:50.4	91.860	0.180	-0.120	0.450
2020/01/31 04:18:50.5	91.880	0.150	-0.090	0.460
2020/01/31 04:18:50.6	91.890	0.120	-0.060	0.470
2020/01/31 04:18:50.7	91.910	0.100	-0.040	0.480
2020/01/31 04:18:50.8	91.920	0.070	-0.010	0.490
2020/01/31 04:18:50.9	91.940	0.040	0.010	0.500
2020/01/31 04:18:51.0	91.960	0.010	0.030	0.510
2020/01/31 04:18:51.1	91.980	-0.020	0.050	0.530
2020/01/31 04:18:51.2	92.000	-0.050	0.070	0.540
2020/01/31 04:18:51.3	92.010	-0.070	0.080	0.560
2020/01/31 04:18:51.4	92.030	-0.100	0.100	0.580
2020/01/31 04:18:51.5	92.050	-0.120	0.110	0.590
2020/01/31 04:18:51.6	92.070	-0.150	0.120	0.610
2020/01/31 04:18:51.7	92.090	-0.170	0.130	0.640
2020/01/31 04:18:51.8	92.110	-0.190	0.130	0.660
2020/01/31 04:18:51.9	92.120	-0.200	0.130	0.680
2020/01/31 04:18:52.0	92.140	-0.220	0.130	0.710
2020/01/31 04:18:52.1	92.160	-0.230	0.130	0.740
2020/01/31 04:18:52.2	92.170	-0.240	0.120	0.770
2020/01/31 04:18:52.3	92.190	-0.250	0.110	0.800
2020/01/31 04:18:52.4	92.200	-0.250	0.090	0.830
2020/01/31 04:18:52.5	92.210	-0.250	0.070	0.870
2020/01/31 04:18:52.6	92.220	-0.250	0.050	0.900
2020/01/31 04:18:52.7	92.230	-0.240	0.020	0.940
2020/01/31 04:18:52.8	92.230	-0.230	-0.010	0.970
2020/01/31 04:18:52.9	92.230	-0.220	-0.040	1.010
2020/01/31 04:18:53.0	92.230	-0.210	-0.080	1.050
2020/01/31 04:18:53.1	92.230	-0.190	-0.120	1.090
2020/01/31 04:18:53.2	92.220	-0.180	-0.170	1.120
2020/01/31 04:18:53.3	92.210	-0.160	-0.210	1.150
2020/01/31 04:18:53.4	92.190	-0.130	-0.260	1.190
2020/01/31 04:18:53.5	92.180	-0.110	-0.310	1.220
2020/01/31 04:18:53.6	92.160	-0.080	-0.370	1.250
2020/01/31 04:18:53.7	92.130	-0.060	-0.420	1.270
2020/01/31 04:18:53.8	92.110	-0.030	-0.470	1.300
2020/01/31 04:18:53.9	92.080	-0.000	-0.530	1.320
2020/01/31 04:18:54.0	92.060	0.030	-0.580	1.340
2020/01/31 04:18:54.1	92.030	0.050	-0.640	1.360
2020/01/31 04:18:54.2	92.000	0.080	-0.690	1.370
2020/01/31 04:18:54.3	91.970	0.110	-0.740	1.380
2020/01/31 04:18:54.4	91.930	0.140	-0.780	1.390
2020/01/31 04:18:54.5	91.900	0.160	-0.820	1.400
2020/01/31 04:18:54.6	91.860	0.190	-0.860	1.410
2020/01/31 04:18:54.7	91.830	0.210	-0.890	1.410
2020/01/31 04:18:54.8	91.800	0.240	-0.910	1.410
2020/01/31 04:18:54.9	91.770	0.260	-0.930	1.410
2020/01/31 04:18:55.0	91.740	0.270	-0.940	1.400
2020/01/31 04:18:55.1	91.710	0.290	-0.950	1.400
2020/01/31 04:18:55.2	91.680	0.300	-0.950	1.390
2020/01/31 04:18:55.3	91.660	0.320	-0.940	1.380
2020/01/31 04:18:55.4	91.640	0.320	-0.920	1.370
2020/01/31 04:18:55.5	91.620	0.330	-0.890	1.360
2020/01/31 04:18:55.6	91.610	0.330	-0.860	1.340
2020/01/31 04:18:55.7	91.600	0.330	-0.820	1.320
2020/01/31 04:18:55.8	91.600	0.330	-0.780	1.300
2020/01/31 04:18:55.9	91.600	0.320	-0.720	1.280
2020/01/31 04:18:56.0	91.600	0.310	-0.660	1.250
2020/01/31 04:18:56.1	91.620	0.300	-0.600	1.220
2020/01/31 04:18:56.2	91.630	0.290	-0.530	1.190
2020/01/31 04:18:56.3	91.650	0.270	-0.460	1.160
2020/01/31 04:18:56.4	91.670	0.250	-0.390	1.120
2020/01/31 04:18:56.5	91.690	0.220	-0.310	1.090
2020/01/31 04:18:56.6	91.720	0.200	-0.230	1.050
2020/01/31 04:18:56.7	91.750	0.170	-0.160	1.010
2020/01/31 04:18:56.8	91.780	0.140	-0.080	0.960
2020/01/31 04:18:56.9	91.810	0.110	-0.000	0.920
2020/01/31 04:18:57.0	91.850	0.080	0.070	0.870
2020/01/31 04:18:57.1	91.890	0.050	0.140	0.830
2020/01/31 04:18:57.2	91.930	0.010	0.210	0.780
2020/01/31 04:18:57.3	91.960	-0.020	0.280	0.730
2020/01/31 04:18:57.4	92.000	-0.060	0.340	0.690
2020/01/31 04:18:57.5	92.040	-0.090	0.400	0.640
2020/01/31 04:18:57.6	92.070	-0.130	0.450	0.600
2020/01/31 04:18:57.7	92.110	-0.170	0.500	0.550
2020/01/31 04:18:57.8	92.140	-0.200	0.540	0.510
2020/01/31 04:18:57.9	92.170	-0.240	0.580	0.470
2020/01/31 04:18:58.0	92.200	-0.270	0.610	0.430
2020/01/31 04:18:58.1	92.250	-0.300	0.640	0.390
2020/01/31 04:18:58.2	92.270	-0.340	0.660	0.360
2020/01/31 04:18:58.3	92.290	-0.370	0.670	0.330
2020/01/31 04:18:58.4	92.320	-0.390	0.670	0.310
2020/01/31 04:18:58.5	92.330	-0.420	0.670	0.290
2020/01/31 04:18:58.6	92.350	-0.440	0.660	0.270
2020/01/31 04:18:58.7	92.370	-0.460	0.640	0.260
2020/01/31 04:18:58.8	92.380	-0.480	0.620	0.250
2020/01/31 04:18:58.9	92.390	-0.490	0.590	0.240
2020/01/31 04:18:59.0	92.400	-0.500	0.550	0.240
2020/01/31 04:18:59.1	92.390	-0.510	0.500	0.240
2020/01/31 04:18:59.2	92.390	-0.520	0.450	0.250
2020/01/31 04:18:59.3	92.400	-0.520	0.390	0.260
2020/01/31 04:18:59.4	92.400	-0.520	0.330	0.270
2020/01/31 04:18:59.5	92.400	-0.520	0.270	0.290
2020/01/31 04:18:59.6	92.400	-0.510	0.200	0.310
2020/01/31 04:18:59.7	92.400	-0.500	0.130	0.330
2020/01/31 04:18:59.8	92.390	-0.490	0.050	0.360
2020/01/31 04:18:59.9	92.380	-0.480	-0.020	0.390
2020/01/31 04:19:00.0	92.370	-0.470	-0.090	0.430
2020/01/31 04:19:00.1	92.370	-0.450	-0.160	0.470
2020/01/31 04:19:00.2	92.350	-0.440	-0.230	0.510
2020/01/31 04:19:00.3	92.340	-0.420	-0.290	0.550
2020/01/31 04:19:00.4	92.330	-0.400	-0.350	0.590
2020/01/31 04:19:00.5	92.310	-0.390	-0.400	0.640
2020/01/31 04:19:00.6	92.300	-0.370	-0.450	0.680
2020/01/31 04:19:00.7	92.280	-0.360	-0.490	0.730
2020/01/31 04:19:00.8	92.270	-0.350	-0.530	0.770
2020/01/31 04:19:00.9	92.260	-0.340	-0.550	0.810
2020/01/31 04:19:01.0	92.240	-0.330	-0.570	0.850
2020/01/31 04:19:01.1	92.240	-0.320	-0.580	0.880
2020/01/31 04:19:01.2	92.230	-0.310	-0.590	0.920
2020/01/31 04:19:01.3	92.220	-0.310	-0.590	0.950
2020/01/31 04:19:01.4	92.220	-0.300	-0.580	0.980
2020/01/31 04:19:01.5	92.210	-0.300	-0.570	1.000
2020/01/31 04:19:01.6	92.200	-0.300	-0.560	1.020
2020/01/31 04:19:01.7	92.200	-0.300	-0.540	1.040
2020/01/31 04:19:01.8	92.190	-0.310	-0.510	1.050
2020/01/31 04:19:01.9	92.190	-0.310	-0.490	1.060
2020/01/31 04:19:02.0	92.190	-0.310	-0.460	1.060
2020/01/31 04:19:02.1	92.180	-0.320	-0.430	1.060
2020/01/31 04:19:02.2	92.180	-0.320	-0.410	1.060
2020/01/31 04:19:02.3	92.180	-0.320	-0.380	1.050
2020/01/31 04:19:02.4	92.180	-0.320	-0.360	1.040
2020/01/31 04:19:02.5	92.190	-0.320	-0.330	1.030
2020/01/31 04:19:02.6	92.190	-0.320	-0.320	1.020
2020/01/31 04:19:02.7	92.190	-0.320	-0.300	1.000
2020/01/31 04:19:02.8	92.190	-0.310	-0.290	0.980
2020/01/31 04:19:02.9	92.200	-0.300	-0.290	0.970
2020/01/31 04:19:03.0	92.200	-0.280	-0.290	0.950
2020/01/31 04:19:03.1	92.210	-0.260	-0.300	0.920
2020/01/31 04:19:03.2	92.210	-0.230	-0.310	0.900
2020/01/31 04:19:03.3	92.220	-0.200	-0.330	0.880
2020/01/31 04:19:03.4	92.220	-0.170	-0.360	0.850
2020/01/31 04:19:03.5	92.230	-0.130	-0.390	0.830
2020/01/31 04:19:03.6	92.230	-0.090	-0.430	0.810
2020/01/31 04:19:03.7	92.240	-0.040	-0.470	0.780
2020/01/31 04:19:03.8	92.240	0.010	-0.520	0.760
2020/01/31 04:19:03.9	92.240	0.070	-0.570	0.740
2020/01/31 04:19:04.0	92.240	0.130	-0.620	0.720
2020/01/31 04:19:04.1	92.240	0.190	-0.670	0.700
2020/01/31 04:19:04.2	92.240	0.260	-0.720	0.680
2020/01/31 04:19:04.3	92.240	0.320	-0.770	0.670
2020/01/31 04:19:04.4	92.230	0.390	-0.820	0.650
2020/01/31 04:19:04.5	92.230	0.460	-0.870	0.630
2020/01/31 04:19:04.6	92.220	0.520	-0.920	0.620
2020/01/31 04:19:04.7	92.210	0.590	-0.950	0.600
2020/01/31 04:19:04.8	92.190	0.650	-0.980	0.590
2020/01/31 04:19:04.9	92.180	0.710	-1.010	0.580
2020/01/31 04:19:05.0	92.160	0.770	-1.030	0.570
2020/01/31 04:19:05.1	92.140	0.820	-1.040	0.550
2020/01/31 04:19:05.2	92.120	0.870	-1.040	0.540
2020/01/31 04:19:05.3	92.100	0.920	-1.030	0.530
2020/01/31 04:19:05.4	92.080	0.950	-1.020	0.520
2020/01/31 04:19:05.5	92.060	0.990	-0.990	0.510
2020/01/31 04:19:05.6	92.040	1.010	-0.960	0.500
2020/01/31 04:19:05.7	92.010	1.030	-0.920	0.500
2020/01/31 04:19:05.8	91.990	1.050	-0.870	0.490
2020/01/31 04:19:05.9	91.970	1.050	-0.810	0.490
2020/01/31 04:19:06.0	91.940	1.050	-0.740	0.490
2020/01/31 04:19:06.1	91.920	1.050	-0.670	0.490
2020/01/31 04:19:06.2	91.900	1.030	-0.590	0.490
2020/01/31 04:19:06.3	91.880	1.010	-0.510	0.490
2020/01/31 04:19:06.4	91.850	0.980	-0.420	0.500
2020/01/31 04:19:06.5	91.830	0.950	-0.330	0.500
2020/01/31 04:19:06.6	91.810	0.910	-0.240	0.510
2020/01/31 04:19:06.7	91.780	0.870	-0.140	0.510
2020/01/31 04:19:06.8	91.760	0.820	-0.050	0.520
2020/01/31 04:19:06.9	91.740	0.760	0.050	0.530
2020/01/31 04:19:07.0	91.720	0.700	0.140	0.540
2020/01/31 04:19:07.1	91.710	0.640	0.240	0.540
2020/01/31 04:19:07.2	91.690	0.580	0.320	0.550
2020/01/31 04:19:07.3	91.680	0.510	0.400	0.560
2020/01/31 04:19:07.4	91.670	0.450	0.480	0.570
2020/01/31 04:19:07.5	91.660	0.380	0.550	0.580
2020/01/31 04:19:07.6	91.650	0.310	0.620	0.590
2020/01/31 04:19:07.7	91.640	0.240	0.670	0.610
2020/01/31 04:19:07.8	91.630	0.180	0.720	0.620
2020/01/31 04:19:07.9	91.630	0.110	0.760	0.630
2020/01/31 04:19:08.0	91.620	0.050	0.800	0.640
2020/01/31 04:19:08.1	91.620	-0.010	0.820	0.650
2020/01/31 04:19:08.2	91.620	-0.070	0.830	0.660
2020/01/31 04:19:08.3	91.630	-0.120	0.840	0.670
2020/01/31 04:19:08.4	91.630	-0.170	0.830	0.670
2020/01/31 04:19:08.5	91.640	-0.220	0.820	0.680
2020/01/31 04:19:08.6	91.650	-0.260	0.790	0.680
2020/01/31 04:19:08.7	91.670	-0.290	0.760	0.680
2020/01/31 04:19:08.8	91.690	-0.330	0.720	0.680
2020/01/31 04:19:08.9	91.710	-0.350	0.670	0.680
2020/01/31 04:19:09.0	91.730	-0.380	0.620	0.670
2020/01/31 04:19:09.1	91.760	-0.390	0.550	0.660
2020/01/31 04:19:09.2	91.790	-0.410	0.480	0.660
2020/01/31 04:19:09.3	91.820	-0.410	0.410	0.650
2020/01/31 04:19:09.4	91.860	-0.420	0.320	0.640
2020/01/31 04:19:09.5	91.900	-0.420	0.240	0.640
2020/01/31 04:19:09.6	91.930	-0.410	0.150	0.630
2020/01/31 04:19:09.7	91.970	-0.400	0.060	0.630
2020/01/31 04:19:09.8	92.010	-0.390	-0.040	0.630
2020/01/31 04:19:09.9	92.050	-0.380	-0.130	0.630
2020/01/31 04:19:10.0	92.090	-0.360	-0.220	0.640
2020/01/31 04:19:10.1	92.120	-0.340	-0.320	0.650
2020/01/31 04:19:10.2	92.160	-0.330	-0.400	0.670
2020/01/31 04:19:10.3	92.190	-0.310	-0.480	0.700
2020/01/31 04:19:10.4	92.220	-0.290	-0.560	0.730
2020/01/31 04:19:10.5	92.240	-0.260	-0.630	0.770
2020/01/31 04:19:10.6	92.270	-0.250	-0.690	0.810
2020/01/31 04:19:10.7	92.290	-0.230	-0.740	0.850
2020/01/31 04:19:10.8	92.310	-0.210	-0.780	0.900
2020/01/31 04:19:10.9	92.330	-0.190	-0.810	0.950
2020/01/31 04:19:11.0	92.340	-0.180	-0.830	1.010
2020/01/31 04:19:11.1	92.340	-0.170	-0.840	1.070
2020/01/31 04:19:11.2	92.350	-0.170	-0.840	1.120
2020/01/31 04:19:11.3	92.360	-0.170	-0.830	1.180
2020/01/31 04:19:11.4	92.370	-0.170	-0.800	1.240
2020/01/31 04:19:11.5	92.370	-0.170	-0.770	1.300
2020/01/31 04:19:11.6	92.370	-0.180	-0.730	1.360
2020/01/31 04:19:11.7	92.370	-0.190	-0.670	1.420
2020/01/31 04:19:11.8	92.360	-0.210	-0.610	1.480
2020/01/31 04:19:11.9	92.350	-0.230	-0.540	1.540
2020/01/31 04:19:12.0	92.340	-0.260	-0.470	1.590
2020/01/31 04:19:12.1	92.340	-0.280	-0.380	1.640
2020/01/31 04:19:12.2	92.330	-0.310	-0.300	1.690
2020/01/31 04:19:12.3	92.310	-0.350	-0.210	1.730
2020/01/31 04:19:12.4	92.300	-0.380	-0.120	1.770
2020/01/31 04:19:12.5	92.280	-0.420	-0.030	1.810
2020/01/31 04:19:12.6	92.260	-0.460	0.060	1.830
2020/01/31 04:19:12.7	92.240	-0.500	0.140	1.860
2020/01/31 04:19:12.8	92.210	-0.540	0.230	1.870
2020/01/31 04:19:12.9	92.190	-0.580	0.310	1.890
2020/01/31 04:19:13.0	92.170	-0.620	0.380	1.890
2020/01/31 04:19:13.1	92.140	-0.660	0.440	1.890
2020/01/31 04:19:13.2	92.120	-0.700	0.500	1.880
2020/01/31 04:19:13.3	92.090	-0.740	0.550	1.870
2020/01/31 04:19:13.4	92.070	-0.770	0.580	1.860
2020/01/31 04:19:13.5	92.050	-0.800	0.610	1.840
2020/01/31 04:19:13.6	92.030	-0.830	0.620	1.810
2020/01/31 04:19:13.7	92.010	-0.850	0.620	1.780
2020/01/31 04:19:13.8	91.990	-0.860	0.610	1.750
2020/01/31 04:19:13.9	91.980	-0.870	0.590	1.710
2020/01/31 04:19:14.0	91.960	-0.870	0.550	1.670
2020/01/31 04:19:14.1	91.960	-0.870	0.510	1.620
2020/01/31 04:19:14.2	91.950	-0.860	0.440	1.570
2020/01/31 04:19:14.3	91.940	-0.840	0.370	1.520
2020/01/31 04:19:14.4	91.930	-0.820	0.280	1.470
2020/01/31 04:19:14.5	91.920	-0.780	0.190	1.410
2020/01/31 04:19:14.6	91.920	-0.750	0.090	1.360
2020/01/31 04:19:14.7	91.910	-0.700	-0.030	1.300
2020/01/31 04:19:14.8	91.910	-0.650	-0.140	1.240
2020/01/31 04:19:14.9	91.910	-0.590	-0.260	1.180
2020/01/31 04:19:15.0	91.910	-0.530	-0.390	1.120
2020/01/31 04:19:15.1	91.910	-0.460	-0.520	1.050
2020/01/31 04:19:15.2	91.910	-0.400	-0.640	0.990
2020/01/31 04:19:15.3	91.910	-0.320	-0.760	0.920
2020/01/31 04:19:15.4	91.910	-0.250	-0.880	0.860
2020/01/31 04:19:15.5	91.920	-0.170	-0.990	0.800
2020/01/31 04:19:15.6	91.920	-0.100	-1.100	0.740
2020/01/31 04:19:15.7	91.920	-0.020	-1.200	0.680
2020/01/31 04:19:15.8	91.920	0.050	-1.290	0.620
2020/01/31 04:19:15.9	91.920	0.130	-1.370	0.560
2020/01/31 04:19:16.0	91.920	0.200	-1.440	0.500
2020/01/31 04:19:16.1	91.920	0.270	-1.500	0.450
2020/01/31 04:19:16.2	91.910	0.330	-1.540	0.400
2020/01/31 04:19:16.3	91.910	0.390	-1.580	0.350
2020/01/31 04:19:16.4	91.910	0.450	-1.610	0.310
2020/01/31 04:19:16.5	91.900	0.500	-1.620	0.270
2020/01/31 04:19:16.6	91.900	0.550	-1.620	0.230
2020/01/31 04:19:16.7	91.900	0.590	-1.610	0.200
2020/01/31 04:19:16.8	91.890	0.620	-1.580	0.170
2020/01/31 04:19:16.9	91.880	0.650	-1.540	0.140
2020/01/31 04:19:17.0	91.880	0.680	-1.490	0.120
2020/01/31 04:19:17.1	91.860	0.690	-1.430	0.110
2020/01/31 04:19:17.2	91.850	0.700	-1.360	0.100
2020/01/31 04:19:17.3	91.840	0.710	-1.280	0.090
2020/01/31 04:19:17.4	91.830	0.710	-1.190	0.090
2020/01/31 04:19:17.5	91.820	0.700	-1.090	0.100
2020/01/31 04:19:17.6	91.810	0.690	-0.990	0.100
2020/01/31 04:19:17.7	91.790	0.680	-0.870	0.110
2020/01/31 04:19:17.8	91.780	0.660	-0.760	0.130
2020/01/31 04:19:17.9	91.770	0.630	-0.630	0.140
2020/01/31 04:19:18.0	91.750	0.610	-0.510	0.160
2020/01/31 04:19:18.1	91.750	0.570	-0.380	0.180
2020/01/31 04:19:18.2	91.740	0.540	-0.250	0.190
2020/01/31 04:19:18.3	91.730	0.500	-0.120	0.210
2020/01/31 04:19:18.4	91.720	0.470	0.010	0.230
2020/01/31 04:19:18.5	91.700	0.430	0.130	0.250
2020/01/31 04:19:18.6	91.690	0.390	0.250	0.270
2020/01/31 04:19:18.7	91.690	0.350	0.360	0.280
2020/01/31 04:19:18.8	91.680	0.310	0.470	0.300
2020/01/31 04:19:18.9	91.670	0.270	0.570	0.310
2020/01/31 04:19:19.0	91.670	0.230	0.660	0.320
2020/01/31 04:19:19.1	91.650	0.190	0.740	0.320
2020/01/31 04:19:19.2	91.650	0.150	0.810	0.330
2020/01/31 04:19:19.3	91.660	0.120	0.880	0.330
2020/01/31 04:19:19.4	91.660	0.090	0.930	0.330
2020/01/31 04:19:19.5	91.660	0.060	0.970	0.330
2020/01/31 04:19:19.6	91.670	0.040	1.000	0.320
2020/01/31 04:19:19.7	91.680	0.010	1.020	0.320
2020/01/31 04:19:19.8	91.680	-0.000	1.020	0.310
2020/01/31 04:19:19.9	91.690	-0.020	1.010	0.300
2020/01/31 04:19:20.0	91.700	-0.030	1.000	0.290
2020/01/31 04:19:20.1	91.710	-0.040	0.970	0.280
2020/01/31 04:19:20.2	91.720	-0.040	0.930	0.270
2020/01/31 04:19:20.3	91.730	-0.040	0.880	0.260
2020/01/31 04:19:20.4	91.740	-0.030	0.820	0.240
2020/01/31 04:19:20.5	91.750	-0.020	0.750	0.230
2020/01/31 04:19:20.6	91.760	-0.000	0.670	0.220
2020/01/31 04:19:20.7	91.770	0.010	0.590	0.200
2020/01/31 04:19:20.8	91.790	0.030	0.500	0.190
2020/01/31 04:19:20.9	91.800	0.060	0.410	0.180
2020/01/31 04:19:21.0	91.810	0.080	0.320	0.170
2020/01/31 04:19:21.1	91.820	0.110	0.220	0.160
2020/01/31 04:19:21.2	91.830	0.140	0.120	0.150
2020/01/31 04:19:21.3	91.850	0.170	0.020	0.140
2020/01/31 04:19:21.4	91.860	0.200	-0.070	0.130
2020/01/31 04:19:21.5	91.870	0.240	-0.160	0.130
2020/01/31 04:19:21.6	91.890	0.270	-0.250	0.130
2020/01/31 04:19:21.7	91.900	0.300	-0.330	0.130
2020/01/31 04:19:21.8	91.920	0.320	-0.410	0.130
2020/01/31 04:19:21.9	91.930	0.350	-0.480	0.140
2020/01/31 04:19:22.0	91.950	0.380	-0.540	0.160
2020/01/31 04:19:22.1	91.960	0.400	-0.600	0.170
2020/01/31 04:19:22.2	91.980	0.420	-0.650	0.190
2020/01/31 04:19:22.3	91.990	0.430	-0.700	0.210
2020/01/31 04:19:22.4	92.000	0.450	-0.740	0.240
2020/01/31 04:19:22.5	92.010	0.460	-0.770	0.270
2020/01/31 04:19:22.6	92.020	0.460	-0.790	0.310
2020/01/31 04:19:22.7	92.030	0.460	-0.810	0.350
2020/01/31 04:19:22.8	92.030	0.460	-0.820	0.390
2020/01/31 04:19:22.9	92.040	0.450	-0.820	0.430
2020/01/31 04:19:23.0	92.040	0.440	-0.820	0.480
2020/01/31 04:19:23.1	92.030	0.430	-0.810	0.530
2020/01/31 04:19:23.2	92.030	0.410	-0.800	0.580
2020/01/31 04:19:23.3	92.030	0.390	-0.780	0.630
2020/01/31 04:19:23.4	92.020	0.360	-0.760	0.690
2020/01/31 04:19:23.5	92.020	0.330	-0.730	0.740
2020/01/31 04:19:23.6	92.010	0.300	-0.690	0.790
2020/01/31 04:19:23.7	92.000	0.260	-0.660	0.840
2020/01/31 04:19:23.8	91.980	0.230	-0.620	0.890
2020/01/31 04:19:23.9	91.970	0.180	-0.570	0.940
2020/01/31 04:19:24.0	91.960	0.140	-0.530	0.990
2020/01/31 04:19:24.1	91.960	0.090	-0.480	1.030
2020/01/31 04:19:24.2	91.950	0.050	-0.430	1.070
2020/01/31 04:19:24.3	91.940	0.000	-0.380	1.110
2020/01/31 04:19:24.4	91.930	-0.050	-0.340	1.140
2020/01/31 04:19:24.5	91.920	-0.100	-0.290	1.170
2020/01/31 04:19:24.6	91.910	-0.140	-0.240	1.200
2020/01/31 04:19:24.7	91.910	-0.190	-0.190	1.220
2020/01/31 04:19:24.8	91.900	-0.240	-0.150	1.240
2020/01/31 04:19:24.9	91.900	-0.280	-0.110	1.260
2020/01/31 04:19:25.0	91.910	-0.320	-0.070	1.270
2020/01/31 04:19:25.1	91.910	-0.360	-0.040	1.280
2020/01/31 04:19:25.2	91.920	-0.400	-0.010	1.290
2020/01/31 04:19:25.3	91.930	-0.440	0.020	1.290
2020/01/31 04:19:25.4	91.950	-0.470	0.040	1.290
2020/01/31 04:19:25.5	91.970	-0.490	0.050	1.290
2020/01/31 04:19:25.6	91.990	-0.520	0.060	1.280
2020/01/31 04:19:25.7	92.010	-0.540	0.070	1.280
2020/01/31 04:19:25.8	92.030	-0.550	0.070	1.270
2020/01/31 04:19:25.9	92.060	-0.560	0.060	1.270
2020/01/31 04:19:26.0	92.080	-0.570	0.060	1.260
2020/01/31 04:19:26.1	92.100	-0.580	0.050	1.260
2020/01/31 04:19:26.2	92.120	-0.570	0.030	1.250
2020/01/31 04:19:26.3	92.150	-0.570	0.020	1.240
2020/01/31 04:19:26.4	92.170	-0.560	-0.000	1.240
2020/01/31 04:19:26.5	92.200	-0.550	-0.020	1.230
2020/01/31 04:19:26.6	92.220	-0.540	-0.050	1.230
2020/01/31 04:19:26.7	92.240	-0.520	-0.070	1.220
2020/01/31 04:19:26.8	92.260	-0.510	-0.090	1.220
2020/01/31 04:19:26.9	92.280	-0.490	-0.110	1.210
2020/01/31 04:19:27.0	92.300	-0.470	-0.130	1.200
2020/01/31 04:19:27.1	92.320	-0.450	-0.140	1.200
2020/01/31 04:19:27.2	92.330	-0.430	-0.160	1.190
2020/01/31 04:19:27.3	92.350	-0.400	-0.170	1.180
2020/01/31 04:19:27.4	92.360	-0.380	-0.170	1.170
2020/01/31 04:19:27.5	92.370	-0.360	-0.170	1.160
2020/01/31 04:19:27.6	92.380	-0.340	-0.170	1.150
2020/01/31 04:19:27.7	92.390	-0.320	-0.170	1.140
2020/01/31 04:19:27.8	92.400	-0.310	-0.160	1.120
2020/01/31 04:19:27.9	92.410	-0.290	-0.150	1.110
2020/01/31 04:19:28.0	92.410	-0.270	-0.140	1.100
2020/01/31 04:19:28.1	92.410	-0.260	-0.120	1.090
2020/01/31 04:19:28.2	92.410	-0.250	-0.100	1.080
2020/01/31 04:19:28.3	92.410	-0.240	-0.090	1.070
2020/01/31 04:19:28.4	92.400	-0.230	-0.070	1.060
2020/01/31 04:19:28.5	92.400	-0.220	-0.060	1.050
2020/01/31 04:19:28.6	92.390	-0.210	-0.040	1.050
2020/01/31 04:19:28.7	92.380	-0.210	-0.030	1.040
2020/01/31 04:19:28.8	92.370	-0.200	-0.030	1.030
2020/01/31 04:19:28.9	92.360	-0.200	-0.020	1.030
2020/01/31 04:19:29.0	92.340	-0.190	-0.030	1.030
2020/01/31 04:19:29.1	92.340	-0.190	-0.030	1.020
2020/01/31 04:19:29.2	92.330	-0.180	-0.040	1.020
2020/01/31 04:19:29.3	92.310	-0.170	-0.060	1.020
2020/01/31 04:19:29.4	92.290	-0.160	-0.080	1.010
2020/01/31 04:19:29.5	92.270	-0.160	-0.110	1.010
2020/01/31 04:19:29.6	92.260	-0.140	-0.140	1.010
2020/01/31 04:19:29.7	92.240	-0.130	-0.180	1.000
2020/01/31 04:19:29.8	92.220	-0.120	-0.220	0.990
2020/01/31 04:19:29.9	92.200	-0.100	-0.260	0.980
2020/01/31 04:19:30.0	92.180	-0.090	-0.310	0.970
2020/01/31 04:19:30.1	92.150	-0.070	-0.360	0.940
2020/01/31 04:19:30.2	92.130	-0.050	-0.410	0.920
2020/01/31 04:19:30.3	92.120	-0.030	-0.470	0.900
2020/01/31 04:19:30.4	92.110	-0.010	-0.520	0.870
2020/01/31 04:19:30.5	92.100	0.010	-0.560	0.830
2020/01/31 04:19:30.6	92.090	0.030	-0.610	0.800
2020/01/31 04:19:30.7	92.080	0.060	-0.650	0.760
2020/01/31 04:19:30.8	92.080	0.080	-0.690	0.720
2020/01/31 04:19:30.9	92.080	0.100	-0.720	0.680
2020/01/31 04:19:31.0	92.080	0.130	-0.750	0.640
2020/01/31 04:19:31.1	92.080	0.150	-0.770	0.590
2020/01/31 04:19:31.2	92.080	0.170	-0.780	0.550
2020/01/31 04:19:31.3	92.090	0.190	-0.790	0.510
2020/01/31 04:19:31.4	92.090	0.220	-0.800	0.460
2020/01/31 04:19:31.5	92.100	0.240	-0.790	0.420
2020/01/31 04:19:31.6	92.110	0.250	-0.780	0.380
2020/01/31 04:19:31.7	92.130	0.270	-0.770	0.340
2020/01/31 04:19:31.8	92.140	0.290	-0.750	0.300
2020/01/31 04:19:31.9	92.160	0.300	-0.720	0.270
2020/01/31 04:19:32.0	92.170	0.310	-0.690	0.230
2020/01/31 04:19:32.1	92.200	0.320	-0.650	0.200
2020/01/31 04:19:32.2	92.220	0.330	-0.610	0.180
2020/01/31 04:19:32.3	92.230	0.340	-0.560	0.150
2020/01/31 04:19:32.4	92.250	0.340	-0.520	0.130
2020/01/31 04:19:32.5	92.270	0.340	-0.470	0.110
2020/01/31 04:19:32.6	92.290	0.340	-0.420	0.090
2020/01/31 04:19:32.7	92.300	0.340	-0.370	0.090
2020/01/31 04:19:32.8	92.320	0.340	-0.320	0.080
2020/01/31 04:19:32.9	92.330	0.340	-0.270	0.080
2020/01/31 04:19:33.0	92.350	0.330	-0.220	0.080
2020/01/31 04:19:33.1	92.380	0.320	-0.170	0.090
2020/01/31 04:19:33.2	92.400	0.320	-0.130	0.100
2020/01/31 04:19:33.3	92.410	0.310	-0.080	0.110
2020/01/31 04:19:33.4	92.420	0.300	-0.040	0.130
2020/01/31 04:19:33.5	92.430	0.290	-0.010	0.150
2020/01/31 04:19:33.6	92.440	0.280	0.030	0.180
2020/01/31 04:19:33.7	92.440	0.260	0.060	0.200
2020/01/31 04:19:33.8	92.450	0.250	0.080	0.230
2020/01/31 04:19:33.9	92.450	0.240	0.110	0.250
2020/01/31 04:19:34.0	92.450	0.220	0.130	0.280
2020/01/31 04:19:34.1	92.450	0.210	0.140	0.310
2020/01/31 04:19:34.2	92.450	0.200	0.150	0.340
2020/01/31 04:19:34.3	92.440	0.180	0.160	0.370
2020/01/31 04:19:34.4	92.440	0.170	0.160	0.400
2020/01/31 04:19:34.5	92.440	0.150	0.170	0.430
2020/01/31 04:19:34.6	92.430	0.140	0.160	0.460
2020/01/31 04:19:34.7	92.420	0.120	0.160	0.490
2020/01/31 04:19:34.8	92.410	0.110	0.150	0.520
2020/01/31 04:19:34.9	92.400	0.100	0.140	0.560
2020/01/31 04:19:35.0	92.390	0.080	0.120	0.590
2020/01/31 04:19:35.1	92.380	0.070	0.110	0.620
2020/01/31 04:19:35.2	92.370	0.060	0.090	0.660
2020/01/31 04:19:35.3	92.350	0.050	0.060	0.690
2020/01/31 04:19:35.4	92.330	0.040	0.040	0.730
2020/01/31 04:19:35.5	92.310	0.030	0.010	0.760
2020/01/31 04:19:35.6	92.290	0.020	-0.020	0.800
2020/01/31 04:19:35.7	92.280	0.010	-0.050	0.830
2020/01/31 04:19:35.8	92.260	0.000	-0.080	0.860
2020/01/31 04:19:35.9	92.240	-0.000	-0.110	0.890
2020/01/31 04:19:36.0	92.230	-0.010	-0.140	0.920
2020/01/31 04:19:36.1	92.200	-0.010	-0.180	0.950
2020/01/31 04:19:36.2	92.190	-0.020	-0.210	0.970
2020/01/31 04:19:36.3	92.190	-0.020	-0.240	0.980
2020/01/31 04:19:36.4	92.180	-0.030	-0.270	1.000
2020/01/31 04:19:36.5	92.190	-0.030	-0.300	1.010
2020/01/31 04:19:36.6	92.190	-0.030	-0.320	1.010
2020/01/31 04:19:36.7	92.200	-0.030	-0.350	1.010
2020/01/31 04:19:36.8	92.210	-0.030	-0.370	1.010
2020/01/31 04:19:36.9	92.230	-0.030	-0.390	1.000
2020/01/31 04:19:37.0	92.250	-0.030	-0.410	0.990
2020/01/31 04:19:37.1	92.270	-0.030	-0.420	0.960
2020/01/31 04:19:37.2	92.300	-0.030	-0.440	0.940
2020/01/31 04:19:37.3	92.330	-0.030	-0.450	0.920
2020/01/31 04:19:37.4	92.370	-0.030	-0.460	0.890
2020/01/31 04:19:37.5	92.410	-0.020	-0.460	0.860
2020/01/31 04:19:37.6	92.450	-0.020	-0.470	0.830
2020/01/31 04:19:37.7	92.500	-0.020	-0.470	0.800
2020/01/31 04:19:37.8	92.540	-0.020	-0.470	0.770
2020/01/31 04:19:37.9	92.590	-0.010	-0.460	0.740
2020/01/31 04:19:38.0	92.640	-0.010	-0.460	0.710
2020/01/31 04:19:38.1	92.680	-0.010	-0.450	0.690
2020/01/31 04:19:38.2	92.730	-0.000	-0.440	0.660
2020/01/31 04:19:38.3	92.770	0.000	-0.430	0.650
2020/01/31 04:19:38.4	92.810	0.010	-0.420	0.630
2020/01/31 04:19:38.5	92.850	0.010	-0.410	0.620
2020/01/31 04:19:38.6	92.890	0.010	-0.390	0.620
2020/01/31 04:19:38.7	92.920	0.020	-0.380	0.620
2020/01/31 04:19:38.8	92.940	0.020	-0.360	0.630
2020/01/31 04:19:38.9	92.960	0.030	-0.340	0.640
2020/01/31 04:19:39.0	92.980	0.030	-0.320	0.650
2020/01/31 04:19:39.1	92.990	0.040	-0.290	0.670
2020/01/31 04:19:39.2	92.990	0.040	-0.270	0.700
2020/01/31 04:19:39.3	92.990	0.050	-0.250	0.720
2020/01/31 04:19:39.4	92.990	0.050	-0.220	0.750
2020/01/31 04:19:39.5	92.990	0.050	-0.190	0.780
2020/01/31 04:19:39.6	92.970	0.050	-0.160	0.810
2020/01/31 04:19:39.7	92.960	0.050	-0.130	0.850
2020/01/31 04:19:39.8	92.940	0.050	-0.100	0.880
2020/01/31 04:19:39.9	92.920	0.050	-0.070	0.920
2020/01/31 04:19:40.0	92.900	0.040	-0.030	0.950
2020/01/31 04:19:40.1	92.870	0.040	0.000	0.990
2020/01/31 04:19:40.2	92.840	0.030	0.030	1.020
2020/01/31 04:19:40.3	92.810	0.020	0.060	1.050
2020/01/31 04:19:40.4	92.780	0.010	0.100	1.080
2020/01/31 04:19:40.5	92.750	0.000	0.120	1.110
2020/01/31 04:19:40.6	92.720	-0.010	0.150	1.140
2020/01/31 04:19:40.7	92.690	-0.020	0.170	1.170
2020/01/31 04:19:40.8	92.650	-0.030	0.190	1.190
2020/01/31 04:19:40.9	92.620	-0.050	0.210	1.220
2020/01/31 04:19:41.0	92.580	-0.060	0.230	1.250
2020/01/31 04:19:41.1	92.560	-0.070	0.240	1.270
2020/01/31 04:19:41.2	92.520	-0.090	0.250	1.290
2020/01/31 04:19:41.3	92.490	-0.100	0.250	1.310
2020/01/31 04:19:41.4	92.450	-0.120	0.240	1.330
2020/01/31 04:19:41.5	92.420	-0.130	0.230	1.340
2020/01/31 04:19:41.6	92.390	-0.140	0.220	1.350
2020/01/31 04:19:41.7	92.370	-0.150	0.200	1.350
2020/01/31 04:19:41.8	92.340	-0.160	0.170	1.350
2020/01/31 04:19:41.9	92.320	-0.170	0.140	1.350
2020/01/31 04:19:42.0	92.300	-0.180	0.110	1.330
2020/01/31 04:19:42.1	92.280	-0.180	0.060	1.310
2020/01/31 04:19:42.2	92.270	-0.190	0.020	1.290
2020/01/31 04:19:42.3	92.270	-0.190	-0.030	1.250
2020/01/31 04:19:42.4	92.270	-0.180	-0.080	1.210
2020/01/31 04:19:42.5	92.270	-0.180	-0.140	1.160
2020/01/31 04:19:42.6	92.280	-0.180	-0.200	1.110
2020/01/31 04:19:42.7	92.290	-0.170	-0.250	1.050
2020/01/31 04:19:42.8	92.310	-0.160	-0.310	0.980
2020/01/31 04:19:42.9	92.330	-0.150	-0.370	0.910
2020/01/31 04:19:43.0	92.350	-0.130	-0.430	0.840
2020/01/31 04:19:43.1	92.370	-0.120	-0.480	0.760
2020/01/31 04:19:43.2	92.400	-0.100	-0.540	0.680
2020/01/31 04:19:43.3	92.430	-0.080	-0.580	0.600
2020/01/31 04:19:43.4	92.460	-0.070	-0.630	0.530
2020/01/31 04:19:43.5	92.490	-0.050	-0.660	0.450
2020/01/31 04:19:43.6	92.520	-0.030	-0.700	0.380
2020/01/31 04:19:43.7	92.550	-0.010	-0.720	0.310
2020/01/31 04:19:43.8	92.580	0.010	-0.740	0.250
2020/01/31 04:19:43.9	92.610	0.020	-0.750	0.200
2020/01/31 04:19:44.0	92.630	0.040	-0.760	0.150
2020/01/31 04:19:44.1	92.680	0.060	-0.750	0.110
2020/01/31 04:19:44.2	92.700	0.070	-0.740	0.070
2020/01/31 04:19:44.3	92.720	0.080	-0.730	0.040
2020/01/31 04:19:44.4	92.740	0.090	-0.710	0.020
2020/01/31 04:19:44.5	92.760	0.100	-0.690	0.010
2020/01/31 04:19:44.6	92.770	0.110	-0.660	0.000
2020/01/31 04:19:44.7	92.780	0.110	-0.620	0.010
2020/01/31 04:19:44.8	92.790	0.110	-0.590	0.010
2020/01/31 04:19:44.9	92.800	0.120	-0.550	0.030
2020/01/31 04:19:45.0	92.800	0.110	-0.510	0.050
2020/01/31 04:19:45.1	92.810	0.110	-0.470	0.080
2020/01/31 04:19:45.2	92.810	0.100	-0.430	0.100
2020/01/31 04:19:45.3	92.810	0.100	-0.390	0.130
2020/01/31 04:19:45.4	92.810	0.090	-0.360	0.170
2020/01/31 04:19:45.5	92.800	0.080	-0.320	0.200
2020/01/31 04:19:45.6	92.800	0.070	-0.290	0.230
2020/01/31 04:19:45.7	92.790	0.050	-0.260	0.270
2020/01/31 04:19:45.8	92.780	0.040	-0.230	0.310
2020/01/31 04:19:45.9	92.780	0.030	-0.210	0.340
2020/01/31 04:19:46.0	92.770	0.010	-0.190	0.380
2020/01/31 04:19:46.1	92.760	-0.000	-0.170	0.410
2020/01/31 04:19:46.2	92.750	-0.020	-0.160	0.440
2020/01/31 04:19:46.3	92.740	-0.030	-0.150	0.470
2020/01/31 04:19:46.4	92.730	-0.050	-0.140	0.500
2020/01/31 04:19:46.5	92.720	-0.060	-0.140	0.530
2020/01/31 04:19:46.6	92.710	-0.080	-0.140	0.560
2020/01/31 04:19:46.7	92.700	-0.090	-0.140	0.580
2020/01/31 04:19:46.8	92.690	-0.100	-0.140	0.610
2020/01/31 04:19:46.9	92.680	-0.120	-0.140	0.630
2020/01/31 04:19:47.0	92.670	-0.120	-0.150	0.660
2020/01/31 04:19:47.1	92.660	-0.130	-0.150	0.680
2020/01/31 04:19:47.2	92.640	-0.140	-0.160	0.700
2020/01/31 04:19:47.3	92.630	-0.140	-0.160	0.720
2020/01/31 04:19:47.4	92.620	-0.150	-0.170	0.740
2020/01/31 04:19:47.5	92.610	-0.150	-0.180	0.760
2020/01/31 04:19:47.6	92.600	-0.140	-0.180	0.780
2020/01/31 04:19:47.7	92.600	-0.140	-0.190	0.790
2020/01/31 04:19:47.8	92.590	-0.130	-0.190	0.810
2020/01/31 04:19:47.9	92.580	-0.130	-0.200	0.820
2020/01/31 04:19:48.0	92.580	-0.110	-0.200	0.830
2020/01/31 04:19:48.1	92.560	-0.100	-0.210	0.850
2020/01/31 04:19:48.2	92.560	-0.090	-0.210	0.860
2020/01/31 04:19:48.3	92.560	-0.070	-0.210	0.860
2020/01/31 04:19:48.4	92.570	-0.060	-0.210	0.870
2020/01/31 04:19:48.5	92.570	-0.040	-0.210	0.870
2020/01/31 04:19:48.6	92.570	-0.020	-0.210	0.880
2020/01/31 04:19:48.7	92.570	-0.010	-0.200	0.880
2020/01/31 04:19:48.8	92.570	0.010	-0.200	0.880
2020/01/31 04:19:48.9	92.570	0.030	-0.200	0.880
2020/01/31 04:19:49.0	92.580	0.050	-0.190	0.880
2020/01/31 04:19:49.1	92.560	0.060	-0.180	0.880
2020/01/31 04:19:49.2	92.560	0.080	-0.180	0.880
2020/01/31 04:19:49.3	92.560	0.090	-0.170	0.880
2020/01/31 04:19:49.4	92.550	0.100	-0.160	0.870
2020/01/31 04:19:49.5	92.550	0.110	-0.160	0.870
2020/01/31 04:19:49.6	92.550	0.120	-0.150	0.860
2020/01/31 04:19:49.7	92.550	0.130	-0.140	0.850
2020/01/31 04:19:49.8	92.550	0.140	-0.140	0.840
2020/01/31 04:19:49.9	92.540	0.140	-0.130	0.830
2020/01/31 04:19:50.0	92.540	0.140	-0.120	0.820
2020/01/31 04:19:50.1	92.550	0.140	-0.120	0.810
2020/01/31 04:19:50.2	92.550	0.130	-0.110	0.790
2020/01/31 04:19:50.3	92.550	0.130	-0.110	0.780
2020/01/31 04:19:50.4	92.550	0.120	-0.100	0.760
2020/01/31 04:19:50.5	92.550	0.110	-0.100	0.750
2020/01/31 04:19:50.6	92.550	0.090	-0.100	0.730
2020/01/31 04:19:50.7	92.550	0.080	-0.100	0.710
2020/01/31 04:19:50.8	92.550	0.060	-0.100	0.690
2020/01/31 04:19:50.9	92.550	0.050	-0.100	0.670
2020/01/31 04:19:51.0	92.540	0.030	-0.100	0.660
2020/01/31 04:19:51.1	92.560	0.010	-0.100	0.640
2020/01/31 04:19:51.2	92.550	-0.010	-0.110	0.620
2020/01/31 04:19:51.3	92.550	-0.030	-0.110	0.600
2020/01/31 04:19:51.4	92.550	-0.050	-0.120	0.580
2020/01/31 04:19:51.5	92.550	-0.070	-0.130	0.560
2020/01/31 04:19:51.6	92.550	-0.090	-0.140	0.540
2020/01/31 04:19:51.7	92.540	-0.110	-0.150	0.530
2020/01/31 04:19:51.8	92.540	-0.120	-0.160	0.510
2020/01/31 04:19:51.9	92.540	-0.140	-0.170	0.500
2020/01/31 04:19:52.0	92.540	-0.150	-0.180	0.480
2020/01/31 04:19:52.1	92.550	-0.170	-0.190	0.470
2020/01/31 04:19:52.2	92.540	-0.180	-0.210	0.460
2020/01/31 04:19:52.3	92.540	-0.180	-0.220	0.450
2020/01/31 04:19:52.4	92.540	-0.190	-0.240	0.440
2020/01/31 04:19:52.5	92.530	-0.190	-0.250	0.430
2020/01/31 04:19:52.6	92.530	-0.200	-0.270	0.430
2020/01/31 04:19:52.7	92.530	-0.190	-0.280	0.430
2020/01/31 04:19:52.8	92.530	-0.190	-0.300	0.420
2020/01/31 04:19:52.9	92.530	-0.180	-0.320	0.420
2020/01/31 04:19:53.0	92.530	-0.170	-0.330	0.420
2020/01/31 04:19:53.1	92.530	-0.160	-0.350	0.430
2020/01/31 04:19:53.2	92.540	-0.150	-0.370	0.430
2020/01/31 04:19:53.3	92.540	-0.130	-0.380	0.440
2020/01/31 04:19:53.4	92.550	-0.110	-0.400	0.440
2020/01/31 04:19:53.5	92.560	-0.090	-0.410	0.440
2020/01/31 04:19:53.6	92.570	-0.070	-0.430	0.450
2020/01/31 04:19:53.7	92.580	-0.050	-0.440	0.460
2020/01/31 04:19:53.8	92.600	-0.020	-0.450	0.470
2020/01/31 04:19:53.9	92.610	0.000	-0.460	0.470
2020/01/31 04:19:54.0	92.620	0.020	-0.460	0.480
2020/01/31 04:19:54.1	92.630	0.050	-0.470	0.490
2020/01/31 04:19:54.2	92.650	0.070	-0.470	0.500
2020/01/31 04:19:54.3	92.660	0.100	-0.470	0.510
2020/01/31 04:19:54.4	92.680	0.120	-0.460	0.520
2020/01/31 04:19:54.5	92.700	0.140	-0.450	0.530
2020/01/31 04:19:54.6	92.710	0.160	-0.440	0.540
2020/01/31 04:19:54.7	92.730	0.170	-0.430	0.560
2020/01/31 04:19:54.8	92.740	0.190	-0.410	0.570
2020/01/31 04:19:54.9	92.760	0.200	-0.390	0.590
2020/01/31 04:19:55.0	92.770	0.210	-0.370	0.610
2020/01/31 04:19:55.1	92.790	0.220	-0.340	0.630
2020/01/31 04:19:55.2	92.800	0.230	-0.320	0.660
2020/01/31 04:19:55.3	92.810	0.230	-0.290	0.680
2020/01/31 04:19:55.4	92.820	0.230	-0.260	0.710
2020/01/31 04:19:55.5	92.830	0.230	-0.230	0.740
2020/01/31 04:19:55.6	92.830	0.230	-0.200	0.770
2020/01/31 04:19:55.7	92.840	0.220	-0.180	0.800
2020/01/31 04:19:55.8	92.840	0.220	-0.150	0.830
2020/01/31 04:19:55.9	92.850	0.210	-0.120	0.860
2020/01/31 04:19:56.0	92.850	0.200	-0.100	0.890
2020/01/31 04:19:56.1	92.850	0.190	-0.080	0.930
2020/01/31 04:19:56.2	92.850	0.180	-0.060	0.960
2020/01/31 04:19:56.3	92.850	0.160	-0.040	0.990
2020/01/31 04:19:56.4	92.860	0.150	-0.030	1.020
2020/01/31 04:19:56.5	92.860	0.130	-0.020	1.050
2020/01/31 04:19:56.6	92.860	0.120	-0.010	1.070
2020/01/31 04:19:56.7	92.860	0.100	-0.000	1.100
2020/01/31 04:19:56.8	92.860	0.090	0.000	1.120
2020/01/31 04:19:56.9	92.850	0.070	0.000	1.130
2020/01/31 04:19:57.0	92.850	0.060	0.010	1.150
2020/01/31 04:19:57.1	92.840	0.040	0.000	1.160
2020/01/31 04:19:57.2	92.840	0.030	0.000	1.160
2020/01/31 04:19:57.3	92.830	0.010	-0.000	1.170
2020/01/31 04:19:57.4	92.820	-0.000	-0.000	1.170
2020/01/31 04:19:57.5	92.810	-0.020	-0.000	1.160
2020/01/31 04:19:57.6	92.800	-0.040	-0.010	1.160
2020/01/31 04:19:57.7	92.790	-0.050	-0.000	1.150
2020/01/31 04:19:57.8	92.770	-0.070	-0.000	1.140
2020/01/31 04:19:57.9	92.760	-0.090	0.000	1.120
2020/01/31 04:19:58.0	92.740	-0.110	0.010	1.100
2020/01/31 04:19:58.1	92.720	-0.120	0.020	1.090
2020/01/31 04:19:58.2	92.700	-0.140	0.030	1.070
2020/01/31 04:19:58.3	92.690	-0.160	0.040	1.050
2020/01/31 04:19:58.4	92.670	-0.180	0.060	1.030
2020/01/31 04:19:58.5	92.650	-0.200	0.070	1.010
2020/01/31 04:19:58.6	92.620	-0.220	0.090	0.990
2020/01/31 04:19:58.7	92.600	-0.230	0.100	0.970
2020/01/31 04:19:58.8	92.580	-0.250	0.120	0.960
2020/01/31 04:19:58.9	92.560	-0.270	0.130	0.940
2020/01/31 04:19:59.0	92.540	-0.280	0.140	0.920
2020/01/31 04:19:59.1	92.530	-0.290	0.150	0.900
2020/01/31 04:19:59.2	92.510	-0.300	0.160	0.880
2020/01/31 04:19:59.3	92.490	-0.310	0.160	0.860
2020/01/31 04:19:59.4	92.480	-0.320	0.150	0.850
2020/01/31 04:19:59.5	92.460	-0.320	0.140	0.830
2020/01/31 04:19:59.6	92.450	-0.320	0.130	0.800
2020/01/31 04:19:59.7	92.440	-0.320	0.110	0.780
2020/01/31 04:19:59.8	92.430	-0.320	0.080	0.760
2020/01/31 04:19:59.9	92.420	-0.310	0.040	0.730
2020/01/31 04:20:00.0	92.420	-0.290	0.000	0.700
2020/01/31 04:20:00.1	92.420	-0.270	-0.050	0.670
2020/01/31 04:20:00.2	92.420	-0.250	-0.100	0.640
2020/01/31 04:20:00.3	92.430	-0.230	-0.170	0.600
2020/01/31 04:20:00.4	92.440	-0.200	-0.240	0.560
2020/01/31 04:20:00.5	92.450	-0.160	-0.310	0.520
2020/01/31 04:20:00.6	92.460	-0.120	-0.390	0.480
2020/01/31 04:20:00.7	92.480	-0.080	-0.480	0.440
2020/01/31 04:20:00.8	92.500	-0.030	-0.560	0.400
2020/01/31 04:20:00.9	92.510	0.020	-0.650	0.370
2020/01/31 04:20:01.0	92.530	0.070	-0.730	0.330
2020/01/31 04:20:01.1	92.540	0.120	-0.820	0.300
2020/01/31 04:20:01.2	92.560	0.170	-0.900	0.270
2020/01/31 04:20:01.3	92.580	0.220	-0.970	0.240
2020/01/31 04:20:01.4	92.600	0.280	-1.040	0.220
2020/01/31 04:20:01.5	92.610	0.330	-1.100	0.200
2020/01/31 04:20:01.6	92.630	0.380	-1.150	0.180
2020/01/31 04:20:01.7	92.650	0.420	-1.200	0.170
2020/01/31 04:20:01.8	92.660	0.460	-1.230	0.160
2020/01/31 04:20:01.9	92.680	0.500	-1.250	0.150
2020/01/31 04:20:02.0	92.690	0.540	-1.260	0.150
2020/01/31 04:20:02.1	92.720	0.570	-1.250	0.160
2020/01/31 04:20:02.2	92.730	0.590	-1.240	0.160
2020/01/31 04:20:02.3	92.740	0.610	-1.210	0.170
2020/01/31 04:20:02.4	92.750	0.630	-1.170	0.190
2020/01/31 04:20:02.5	92.750	0.640	-1.120	0.210
2020/01/31 04:20:02.6	92.760	0.640	-1.060	0.230
2020/01/31 04:20:02.7	92.760	0.630	-0.980	0.260
2020/01/31 04:20:02.8	92.760	0.620	-0.900	0.290
2020/01/31 04:20:02.9	92.760	0.610	-0.820	0.330
2020/01/31 04:20:03.0	92.760	0.590	-0.720	0.370
2020/01/31 04:20:03.1	92.770	0.560	-0.610	0.420
2020/01/31 04:20:03.2	92.760	0.530	-0.510	0.460
2020/01/31 04:20:03.3	92.750	0.490	-0.400	0.510
2020/01/31 04:20:03.4	92.740	0.450	-0.290	0.570
2020/01/31 04:20:03.5	92.730	0.410	-0.180	0.620
2020/01/31 04:20:03.6	92.720	0.360	-0.070	0.680
2020/01/31 04:20:03.7	92.700	0.310	0.040	0.730
2020/01/31 04:20:03.8	92.680	0.250	0.150	0.790
2020/01/31 04:20:03.9	92.670	0.200	0.250	0.850
2020/01/31 04:20:04.0	92.650	0.140	0.350	0.910
2020/01/31 04:20:04.1	92.620	0.090	0.440	0.970
2020/01/31 04:20:04.2	92.600	0.030	0.520	1.030
2020/01/31 04:20:04.3	92.580	-0.020	0.590	1.090
2020/01/31 04:20:04.4	92.550	-0.070	0.660	1.140
2020/01/31 04:20:04.5	92.530	-0.130	0.710	1.190
2020/01/31 04:20:04.6	92.500	-0.170	0.750	1.240
2020/01/31 04:20:04.7	92.480	-0.220	0.780	1.290
2020/01/31 04:20:04.8	92.460	-0.260	0.800	1.320
2020/01/31 04:20:04.9	92.430	-0.300	0.810	1.360
2020/01/31 04:20:05.0	92.410	-0.330	0.800	1.380
2020/01/31 04:20:05.1	92.390	-0.360	0.780	1.410
2020/01/31 04:20:05.2	92.370	-0.390	0.750	1.420
2020/01/31 04:20:05.3	92.350	-0.410	0.710	1.430
2020/01/31 04:20:05.4	92.330	-0.420	0.660	1.430
2020/01/31 04:20:05.5	92.320	-0.430	0.590	1.420
2020/01/31 04:20:05.6	92.300	-0.440	0.520	1.410
2020/01/31 04:20:05.7	92.290	-0.440	0.450	1.390
2020/01/31 04:20:05.8	92.280	-0.440	0.360	1.370
2020/01/31 04:20:05.9	92.270	-0.440	0.270	1.350
2020/01/31 04:20:06.0	92.260	-0.430	0.180	1.320
2020/01/31 04:20:06.1	92.250	-0.420	0.070	1.280
2020/01/31 04:20:06.2	92.250	-0.400	-0.020	1.250
2020/01/31 04:20:06.3	92.240	-0.390	-0.120	1.210
2020/01/31 04:20:06.4	92.240	-0.370	-0.220	1.180
2020/01/31 04:20:06.5	92.250	-0.350	-0.310	1.140
2020/01/31 04:20:06.6	92.250	-0.330	-0.410	1.100
2020/01/31 04:20:06.7	92.260	-0.310	-0.490	1.070
2020/01/31 04:20:06.8	92.270	-0.290	-0.570	1.030
2020/01/31 04:20:06.9	92.280	-0.270	-0.650	0.990
2020/01/31 04:20:07.0	92.290	-0.250	-0.720	0.960
2020/01/31 04:20:07.1	92.300	-0.240	-0.770	0.930
2020/01/31 04:20:07.2	92.310	-0.220	-0.820	0.900
2020/01/31 04:20:07.3	92.320	-0.200	-0.860	0.870
2020/01/31 04:20:07.4	92.340	-0.190	-0.890	0.840
2020/01/31 04:20:07.5	92.350	-0.170	-0.910	0.820
2020/01/31 04:20:07.6	92.370	-0.160	-0.930	0.790
2020/01/31 04:20:07.7	92.380	-0.150	-0.930	0.770
2020/01/31 04:20:07.8	92.390	-0.140	-0.920	0.760
2020/01/31 04:20:07.9	92.410	-0.140	-0.900	0.740
2020/01/31 04:20:08.0	92.420	-0.130	-0.870	0.730
2020/01/31 04:20:08.1	92.420	-0.130	-0.830	0.720
2020/01/31 04:20:08.2	92.430	-0.120	-0.790	0.720
2020/01/31 04:20:08.3	92.440	-0.120	-0.740	0.710
2020/01/31 04:20:08.4	92.450	-0.120	-0.680	0.710
2020/01/31 04:20:08.5	92.450	-0.120	-0.620	0.720
2020/01/31 04:20:08.6	92.460	-0.120	-0.550	0.720
2020/01/31 04:20:08.7	92.460	-0.120	-0.480	0.730
2020/01/31 04:20:08.8	92.460	-0.120	-0.420	0.740
2020/01/31 04:20:08.9	92.460	-0.120	-0.350	0.760
2020/01/31 04:20:09.0	92.470	-0.120	-0.280	0.780
2020/01/31 04:20:09.1	92.470	-0.120	-0.210	0.790
2020/01/31 04:20:09.2	92.470	-0.120	-0.150	0.810
2020/01/31 04:20:09.3	92.470	-0.120	-0.100	0.840
2020/01/31 04:20:09.4	92.470	-0.110	-0.050	0.860
2020/01/31 04:20:09.5	92.470	-0.100	-0.010	0.880
2020/01/31 04:20:09.6	92.470	-0.090	0.030	0.900
2020/01/31 04:20:09.7	92.480	-0.080	0.060	0.920
2020/01/31 04:20:09.8	92.490	-0.070	0.080	0.940
2020/01/31 04:20:09.9	92.490	-0.050	0.090	0.960
2020/01/31 04:20:10.0	92.500	-0.040	0.090	0.970
2020/01/31 04:20:10.1	92.510	-0.020	0.090	0.990
2020/01/31 04:20:10.2	92.520	0.000	0.070	1.000
2020/01/31 04:20:10.3	92.530	0.030	0.060	1.010
2020/01/31 04:20:10.4	92.540	0.050	0.040	1.020
2020/01/31 04:20:10.5	92.550	0.070	0.010	1.030
2020/01/31 04:20:10.6	92.560	0.090	-0.010	1.030
2020/01/31 04:20:10.7	92.560	0.110	-0.040	1.040
2020/01/31 04:20:10.8	92.560	0.130	-0.070	1.040
2020/01/31 04:20:10.9	92.560	0.150	-0.110	1.040
2020/01/31 04:20:11.0	92.560	0.170	-0.140	1.030
2020/01/31 04:20:11.1	92.540	0.180	-0.170	1.030
2020/01/31 04:20:11.2	92.530	0.190	-0.200	1.030
2020/01/31 04:20:11.3	92.530	0.210	-0.220	1.020
2020/01/31 04:20:11.4	92.520	0.210	-0.250	1.010
2020/01/31 04:20:11.5	92.510	0.220	-0.260	1.000
2020/01/31 04:20:11.6	92.500	0.220	-0.280	0.980
2020/01/31 04:20:11.7	92.480	0.220	-0.290	0.970
2020/01/31 04:20:11.8	92.470	0.220	-0.290	0.960
2020/01/31 04:20:11.9	92.450	0.220	-0.290	0.950
2020/01/31 04:20:12.0	92.440	0.210	-0.290	0.930
2020/01/31 04:20:12.1	92.420	0.200	-0.270	0.920
2020/01/31 04:20:12.2	92.400	0.190	-0.260	0.910
2020/01/31 04:20:12.3	92.380	0.170	-0.240	0.890
2020/01/31 04:20:12.4	92.360	0.160	-0.210	0.880
2020/01/31 04:20:12.5	92.340	0.140	-0.180	0.870
2020/01/31 04:20:12.6	92.320	0.120	-0.150	0.860
2020/01/31 04:20:12.7	92.300	0.100	-0.120	0.850
2020/01/31 04:20:12.8	92.290	0.070	-0.090	0.830
2020/01/31 04:20:12.9	92.280	0.050	-0.050	0.820
2020/01/31 04:20:13.0	92.260	0.030	-0.020	0.800
2020/01/31 04:20:13.1	92.250	0.000	0.020	0.780
2020/01/31 04:20:13.2	92.240	-0.020	0.050	0.760
2020/01/31 04:20:13.3	92.240	-0.040	0.080	0.740
2020/01/31 04:20:13.4	92.230	-0.070	0.110	0.710
2020/01/31 04:20:13.5	92.230	-0.090	0.130	0.680
2020/01/31 04:20:13.6	92.230	-0.110	0.150	0.650
2020/01/31 04:20:13.7	92.230	-0.130	0.170	0.610
2020/01/31 04:20:13.8	92.230	-0.150	0.180	0.570
2020/01/31 04:20:13.9	92.230	-0.160	0.190	0.540
2020/01/31 04:20:14.0	92.240	-0.180	0.190	0.500
2020/01/31 04:20:14.1	92.260	-0.190	0.190	0.460
2020/01/31 04:20:14.2	92.260	-0.200	0.180	0.420
2020/01/31 04:20:14.3	92.270	-0.210	0.170	0.380
2020/01/31 04:20:14.4	92.280	-0.210	0.150	0.350
2020/01/31 04:20:14.5	92.280	-0.210	0.120	0.310
2020/01/31 04:20:14.6	92.290	-0.210	0.090	0.280
2020/01/31 04:20:14.7	92.290	-0.200	0.060	0.250
2020/01/31 04:20:14.8	92.300	-0.200	0.030	0.220
2020/01/31 04:20:14.9	92.300	-0.190	-0.010	0.200
2020/01/31 04:20:15.0	92.300	-0.170	-0.060	0.180
2020/01/31 04:20:15.1	92.310	-0.160	-0.100	0.160
2020/01/31 04:20:15.2	92.310	-0.140	-0.150	0.140
2020/01/31 04:20:15.3	92.310	-0.110	-0.200	0.130
2020/01/31 04:20:15.4	92.310	-0.090	-0.250	0.120
2020/01/31 04:20:15.5	92.300	-0.060	-0.300	0.110
2020/01/31 04:20:15.6	92.300	-0.040	-0.350	0.100
2020/01/31 04:20:15.7	92.300	-0.010	-0.410	0.090
2020/01/31 04:20:15.8	92.300	0.020	-0.460	0.080
2020/01/31 04:20:15.9	92.300	0.060	-0.510	0.080
2020/01/31 04:20:16.0	92.300	0.090	-0.560	0.080
2020/01/31 04:20:16.1	92.320	0.120	-0.610	0.080
2020/01/31 04:20:16.2	92.320	0.160	-0.660	0.080
2020/01/31 04:20:16.3	92.320	0.190	-0.710	0.080
2020/01/31 04:20:16.4	92.320	0.230	-0.760	0.080
2020/01/31 04:20:16.5	92.330	0.260	-0.800	0.090
2020/01/31 04:20:16.6	92.330	0.300	-0.840	0.100
2020/01/31 04:20:16.7	92.330	0.330	-0.870	0.110
2020/01/31 04:20:16.8	92.330	0.360	-0.910	0.130
2020/01/31 04:20:16.9	92.330	0.390	-0.940	0.150
2020/01/31 04:20:17.0	92.340	0.420	-0.960	0.170
2020/01/31 04:20:17.1	92.350	0.440	-0.980	0.200
2020/01/31 04:20:17.2	92.350	0.470	-1.000	0.230
2020/01/31 04:20:17.3	92.350	0.490	-1.010	0.260
2020/01/31 04:20:17.4	92.350	0.500	-1.010	0.300
2020/01/31 04:20:17.5	92.350	0.520	-1.010	0.330
2020/01/31 04:20:17.6	92.360	0.530	-1.010	0.370
2020/01/31 04:20:17.7	92.360	0.530	-0.990	0.400
2020/01/31 04:20:17.8	92.360	0.530	-0.980	0.440
2020/01/31 04:20:17.9	92.360	0.530	-0.950	0.480
2020/01/31 04:20:18.0	92.360	0.520	-0.920	0.520
2020/01/31 04:20:18.1	92.360	0.510	-0.880	0.570
2020/01/31 04:20:18.2	92.370	0.500	-0.840	0.610
2020/01/31 04:20:18.3	92.370	0.480	-0.780	0.650
2020/01/31 04:20:18.4	92.380	0.460	-0.730	0.690
2020/01/31 04:20:18.5	92.380	0.430	-0.670	0.730
2020/01/31 04:20:18.6	92.390	0.400	-0.600	0.770
2020/01/31 04:20:18.7	92.390	0.360	-0.520	0.810
2020/01/31 04:20:18.8	92.400	0.330	-0.440	0.840
2020/01/31 04:20:18.9	92.410	0.280	-0.360	0.880
2020/01/31 04:20:19.0	92.420	0.240	-0.280	0.910
2020/01/31 04:20:19.1	92.430	0.190	-0.190	0.940
2020/01/31 04:20:19.2	92.440	0.140	-0.100	0.970
2020/01/31 04:20:19.3	92.450	0.090	-0.010	1.000
2020/01/31 04:20:19.4	92.450	0.040	0.080	1.030
2020/01/31 04:20:19.5	92.460	-0.010	0.170	1.050
2020/01/31 04:20:19.6	92.470	-0.060	0.260	1.080
2020/01/31 04:20:19.7	92.480	-0.120	0.340	1.100
2020/01/31 04:20:19.8	92.480	-0.170	0.420	1.120
2020/01/31 04:20:19.9	92.490	-0.220	0.490	1.130
2020/01/31 04:20:20.0	92.500	-0.280	0.570	1.150
2020/01/31 04:20:20.1	92.510	-0.330	0.630	1.160
2020/01/31 04:20:20.2	92.510	-0.370	0.690	1.170
2020/01/31 04:20:20.3	92.510	-0.420	0.740	1.180
2020/01/31 04:20:20.4	92.520	-0.460	0.780	1.190
2020/01/31 04:20:20.5	92.520	-0.500	0.810	1.190
2020/01/31 04:20:20.6	92.520	-0.540	0.830	1.200
2020/01/31 04:20:20.7	92.520	-0.570	0.840	1.200
2020/01/31 04:20:20.8	92.530	-0.600	0.840	1.200
2020/01/31 04:20:20.9	92.530	-0.620	0.840	1.190
2020/01/31 04:20:21.0	92.530	-0.630	0.820	1.190
2020/01/31 04:20:21.1	92.520	-0.650	0.800	1.180
2020/01/31 04:20:21.2	92.520	-0.650	0.760	1.170
2020/01/31 04:20:21.3	92.520	-0.660	0.720	1.160
2020/01/31 04:20:21.4	92.520	-0.660	0.670	1.140
2020/01/31 04:20:21.5	92.530	-0.650	0.610	1.130
2020/01/31 04:20:21.6	92.530	-0.640	0.540	1.110
2020/01/31 04:20:21.7	92.530	-0.620	0.470	1.080
2020/01/31 04:20:21.8	92.540	-0.610	0.400	1.060
2020/01/31 04:20:21.9	92.540	-0.580	0.320	1.040
2020/01/31 04:20:22.0	92.540	-0.560	0.230	1.010
2020/01/31 04:20:22.1	92.530	-0.530	0.150	0.980
2020/01/31 04:20:22.2	92.540	-0.500	0.060	0.960
2020/01/31 04:20:22.3	92.540	-0.470	-0.030	0.940
2020/01/31 04:20:22.4	92.540	-0.430	-0.110	0.910
2020/01/31 04:20:22.5	92.540	-0.400	-0.200	0.890
2020/01/31 04:20:22.6	92.540	-0.360	-0.280	0.870
2020/01/31 04:20:22.7	92.540	-0.320	-0.370	0.840
2020/01/31 04:20:22.8	92.540	-0.280	-0.440	0.820
2020/01/31 04:20:22.9	92.540	-0.250	-0.520	0.800
2020/01/31 04:20:23.0	92.540	-0.210	-0.580	0.790
2020/01/31 04:20:23.1	92.540	-0.170	-0.650	0.770
2020/01/31 04:20:23.2	92.530	-0.140	-0.700	0.750
2020/01/31 04:20:23.3	92.530	-0.100	-0.750	0.740
2020/01/31 04:20:23.4	92.520	-0.070	-0.790	0.720
2020/01/31 04:20:23.5	92.510	-0.040	-0.820	0.710
2020/01/31 04:20:23.6	92.500	-0.010	-0.840	0.700
2020/01/31 04:20:23.7	92.500	0.010	-0.860	0.680
2020/01/31 04:20:23.8	92.490	0.040	-0.870	0.670
2020/01/31 04:20:23.9	92.480	0.060	-0.870	0.660
2020/01/31 04:20:24.0	92.470	0.080	-0.870	0.650
2020/01/31 04:20:24.1	92.470	0.100	-0.850	0.640
2020/01/31 04:20:24.2	92.460	0.110	-0.840	0.630
2020/01/31 04:20:24.3	92.460	0.120	-0.820	0.620
2020/01/31 04:20:24.4	92.450	0.130	-0.790	0.610
2020/01/31 04:20:24.5	92.440	0.140	-0.760	0.610
2020/01/31 04:20:24.6	92.440	0.150	-0.730	0.600
2020/01/31 04:20:24.7	92.430	0.150	-0.690	0.590
2020/01/31 04:20:24.8	92.430	0.160	-0.660	0.580
2020/01/31 04:20:24.9	92.430	0.160	-0.620	0.570
2020/01/31 04:20:25.0	92.430	0.170	-0.590	0.570
2020/01/31 04:20:25.1	92.430	0.170	-0.560	0.560
2020/01/31 04:20:25.2	92.430	0.170	-0.530	0.550
2020/01/31 04:20:25.3	92.430	0.180	-0.510	0.540
2020/01/31 04:20:25.4	92.430	0.180	-0.480	0.540
2020/01/31 04:20:25.5	92.430	0.190	-0.460	0.530
2020/01/31 04:20:25.6	92.430	0.190	-0.450	0.530
2020/01/31 04:20:25.7	92.440	0.200	-0.440	0.530
2020/01/31 04:20:25.8	92.440	0.210	-0.430	0.520
2020/01/31 04:20:25.9	92.440	0.210	-0.430	0.520
2020/01/31 04:20:26.0	92.450	0.220	-0.430	0.530
2020/01/31 04:20:26.1	92.450	0.230	-0.430	0.530
2020/01/31 04:20:26.2	92.450	0.240	-0.430	0.540
2020/01/31 04:20:26.3	92.460	0.250	-0.440	0.540
2020/01/31 04:20:26.4	92.460	0.270	-0.450	0.550
2020/01/31 04:20:26.5	92.470	0.280	-0.470	0.560
2020/01/31 04:20:26.6	92.470	0.290	-0.480	0.560
2020/01/31 04:20:26.7	92.480	0.300	-0.490	0.570
2020/01/31 04:20:26.8	92.490	0.310	-0.500	0.580
2020/01/31 04:20:26.9	92.500	0.310	-0.520	0.590
2020/01/31 04:20:27.0	92.510	0.320	-0.520	0.600
2020/01/31 04:20:27.1	92.500	0.330	-0.530	0.610
2020/01/31 04:20:27.2	92.510	0.330	-0.540	0.620
2020/01/31 04:20:27.3	92.520	0.330	-0.530	0.630
2020/01/31 04:20:27.4	92.530	0.320	-0.530	0.640
2020/01/31 04:20:27.5	92.550	0.320	-0.520	0.650
2020/01/31 04:20:27.6	92.560	0.310	-0.510	0.660
2020/01/31 04:20:27.7	92.570	0.300	-0.490	0.670
2020/01/31 04:20:27.8	92.580	0.280	-0.460	0.680
2020/01/31 04:20:27.9	92.590	0.260	-0.430	0.700
2020/01/31 04:20:28.0	92.600	0.240	-0.400	0.710
2020/01/31 04:20:28.1	92.600	0.210	-0.350	0.730
2020/01/31 04:20:28.2	92.600	0.180	-0.310	0.740
2020/01/31 04:20:28.3	92.600	0.150	-0.260	0.760
2020/01/31 04:20:28.4	92.600	0.110	-0.200	0.780
2020/01/31 04:20:28.5	92.600	0.070	-0.140	0.800
2020/01/31 04:20:28.6	92.600	0.030	-0.070	0.820
2020/01/31 04:20:28.7	92.590	-0.010	-0.000	0.840
2020/01/31 04:20:28.8	92.580	-0.060	0.070	0.850
2020/01/31 04:20:28.9	92.570	-0.100	0.140	0.870
2020/01/31 04:20:29.0	92.560	-0.150	0.220	0.890
2020/01/31 04:20:29.1	92.540	-0.200	0.300	0.900
2020/01/31 04:20:29.2	92.520	-0.240	0.370	0.920
2020/01/31 04:20:29.3	92.500	-0.290	0.450	0.930
2020/01/31 04:20:29.4	92.480	-0.330	0.520	0.940
2020/01/31 04:20:29.5	92.460	-0.380	0.600	0.950
2020/01/31 04:20:29.6	92.430	-0.420	0.660	0.960
2020/01/31 04:20:29.7	92.400	-0.450	0.720	0.960
2020/01/31 04:20:29.8	92.380	-0.490	0.780	0.970
2020/01/31 04:20:29.9	92.350	-0.520	0.830	0.970
2020/01/31 04:20:30.0	92.320	-0.540	0.870	0.970
2020/01/31 04:20:30.1	92.280	-0.560	0.910	0.970
2020/01/31 04:20:30.2	92.260	-0.570	0.930	0.970
2020/01/31 04:20:30.3	92.230	-0.580	0.940	0.960
2020/01/31 04:20:30.4	92.200	-0.570	0.930	0.960
2020/01/31 04:20:30.5	92.180	-0.560	0.910	0.940
2020/01/31 04:20:30.6	92.160	-0.550	0.880	0.930
2020/01/31 04:20:30.7	92.140	-0.520	0.830	0.910
2020/01/31 04:20:30.8	92.120	-0.490	0.770	0.890
2020/01/31 04:20:30.9	92.110	-0.440	0.700	0.870
2020/01/31 04:20:31.0	92.100	-0.390	0.610	0.840
2020/01/31 04:20:31.1	92.100	-0.340	0.500	0.820
2020/01/31 04:20:31.2	92.100	-0.270	0.390	0.790
2020/01/31 04:20:31.3	92.100	-0.200	0.270	0.760
2020/01/31 04:20:31.4	92.110	-0.130	0.140	0.730
2020/01/31 04:20:31.5	92.110	-0.050	0.010	0.700
2020/01/31 04:20:31.6	92.130	0.030	-0.130	0.670
2020/01/31 04:20:31.7	92.140	0.110	-0.270	0.630
2020/01/31 04:20:31.8	92.150	0.190	-0.410	0.600
2020/01/31 04:20:31.9	92.170	0.270	-0.540	0.560
2020/01/31 04:20:32.0	92.190	0.350	-0.680	0.530
2020/01/31 04:20:32.1	92.200	0.430	-0.810	0.490
2020/01/31 04:20:32.2	92.220	0.510	-0.930	0.460
2020/01/31 04:20:32.3	92.240	0.580	-1.040	0.420
2020/01/31 04:20:32.4	92.270	0.650	-1.150	0.380
2020/01/31 04:20:32.5	92.290	0.710	-1.250	0.340
2020/01/31 04:20:32.6	92.310	0.760	-1.330	0.310
2020/01/31 04:20:32.7	92.330	0.810	-1.410	0.270
2020/01/31 04:20:32.8	92.350	0.850	-1.470	0.230
2020/01/31 04:20:32.9	92.370	0.890	-1.520	0.200
2020/01/31 04:20:33.0	92.390	0.920	-1.560	0.160
2020/01/31 04:20:33.1	92.400	0.930	-1.580	0.130
2020/01/31 04:20:33.2	92.420	0.940	-1.590	0.100
2020/01/31 04:20:33.3	92.440	0.950	-1.580	0.080
2020/01/31 04:20:33.4	92.450	0.940	-1.560	0.060
2020/01/31 04:20:33.5	92.460	0.920	-1.520	0.050
2020/01/31 04:20:33.6	92.470	0.900	-1.470	0.040
2020/01/31 04:20:33.7	92.480	0.870	-1.400	0.030
2020/01/31 04:20:33.8	92.490	0.830	-1.330	0.030
2020/01/31 04:20:33.9	92.490	0.790	-1.240	0.040
2020/01/31 04:20:34.0	92.490	0.740	-1.140	0.060
2020/01/31 04:20:34.1	92.510	0.680	-1.030	0.080
2020/01/31 04:20:34.2	92.510	0.620	-0.910	0.100
2020/01/31 04:20:34.3	92.510	0.550	-0.780	0.130
2020/01/31 04:20:34.4	92.500	0.480	-0.650	0.170
2020/01/31 04:20:34.5	92.500	0.400	-0.510	0.210
2020/01/31 04:20:34.6	92.500	0.320	-0.370	0.250
2020/01/31 04:20:34.7	92.490	0.240	-0.230	0.300
2020/01/31 04:20:34.8	92.480	0.160	-0.090	0.350
2020/01/31 04:20:34.9	92.480	0.070	0.050	0.400
2020/01/31 04:20:35.0	92.470	-0.010	0.190	0.450
2020/01/31 04:20:35.1	92.460	-0.100	0.330	0.510
2020/01/31 04:20:35.2	92.450	-0.180	0.460	0.570
2020/01/31 04:20:35.3	92.440	-0.260	0.580	0.630
2020/01/31 04:20:35.4	92.430	-0.340	0.700	0.690
2020/01/31 04:20:35.5	92.420	-0.420	0.800	0.750
2020/01/31 04:20:35.6	92.400	-0.500	0.900	0.810
2020/01/31 04:20:35.7	92.390	-0.570	0.990	0.870
2020/01/31 04:20:35.8	92.370	-0.640	1.060	0.930
2020/01/31 04:20:35.9	92.350	-0.700	1.120	0.990
2020/01/31 04:20:36.0	92.330	-0.760	1.170	1.040
2020/01/31 04:20:36.1	92.320	-0.810	1.210	1.100
2020/01/31 04:20:36.2	92.300	-0.860	1.230	1.150
2020/01/31 04:20:36.3	92.280	-0.900	1.230	1.200
2020/01/31 04:20:36.4	92.250	-0.940	1.220	1.240
2020/01/31 04:20:36.5	92.230	-0.970	1.200	1.280
2020/01/31 04:20:36.6	92.210	-0.990	1.160	1.320
2020/01/31 04:20:36.7	92.190	-1.000	1.110	1.350
2020/01/31 04:20:36.8	92.170	-1.010	1.040	1.370
2020/01/31 04:20:36.9	92.160	-1.010	0.970	1.390
2020/01/31 04:20:37.0	92.140	-1.010	0.880	1.410
2020/01/31 04:20:37.1	92.130	-1.000	0.770	1.420
2020/01/31 04:20:37.2	92.120	-0.980	0.660	1.420
2020/01/31 04:20:37.3	92.110	-0.950	0.540	1.420
2020/01/31 04:20:37.4	92.100	-0.920	0.410	1.410
2020/01/31 04:20:37.5	92.090	-0.880	0.280	1.400
2020/01/31 04:20:37.6	92.080	-0.840	0.140	1.380
2020/01/31 04:20:37.7	92.080	-0.790	-0.010	1.360
2020/01/31 04:20:37.8	92.080	-0.740	-0.150	1.340
2020/01/31 04:20:37.9	92.080	-0.680	-0.290	1.310
2020/01/31 04:20:38.0	92.080	-0.620	-0.430	1.280
2020/01/31 04:20:38.1	92.090	-0.560	-0.580	1.250
2020/01/31 04:20:38.2	92.100	-0.490	-0.710	1.220
2020/01/31 04:20:38.3	92.120	-0.430	-0.830	1.180
2020/01/31 04:20:38.4	92.130	-0.360	-0.940	1.150
2020/01/31 04:20:38.5	92.140	-0.300	-1.040	1.120
2020/01/31 04:20:38.6	92.160	-0.240	-1.140	1.090
2020/01/31 04:20:38.7	92.170	-0.170	-1.220	1.060
2020/01/31 04:20:38.8	92.190	-0.110	-1.280	1.040
2020/01/31 04:20:38.9	92.210	-0.060	-1.340	1.020
2020/01/31 04:20:39.0	92.220	-0.000	-1.380	0.990
2020/01/31 04:20:39.1	92.230	0.050	-1.410	0.980
2020/01/31 04:20:39.2	92.250	0.100	-1.420	0.960
2020/01/31 04:20:39.3	92.260	0.140	-1.430	0.940
2020/01/31 04:20:39.4	92.280	0.180	-1.420	0.920
2020/01/31 04:20:39.5	92.290	0.210	-1.400	0.900
2020/01/31 04:20:39.6	92.310	0.240	-1.360	0.890
2020/01/31 04:20:39.7	92.320	0.260	-1.320	0.870
2020/01/31 04:20:39.8	92.330	0.280	-1.270	0.860
2020/01/31 04:20:39.9	92.340	0.300	-1.210	0.840
2020/01/31 04:20:40.0	92.350	0.310	-1.140	0.820
2020/01/31 04:20:40.1	92.350	0.320	-1.060	0.810
2020/01/31 04:20:40.2	92.360	0.320	-0.980	0.790
2020/01/31 04:20:40.3	92.360	0.320	-0.900	0.770
2020/01/31 04:20:40.4	92.370	0.310	-0.810	0.750
2020/01/31 04:20:40.5	92.370	0.300	-0.720	0.720
2020/01/31 04:20:40.6	92.370	0.290	-0.630	0.700
2020/01/31 04:20:40.7	92.370	0.280	-0.530	0.670
2020/01/31 04:20:40.8	92.370	0.270	-0.440	0.650
2020/01/31 04:20:40.9	92.370	0.250	-0.350	0.620
2020/01/31 04:20:41.0	92.370	0.230	-0.260	0.590
2020/01/31 04:20:41.1	92.370	0.210	-0.170	0.560
2020/01/31 04:20:41.2	92.370	0.190	-0.090	0.530
2020/01/31 04:20:41.3	92.370	0.170	-0.010	0.500
2020/01/31 04:20:41.4	92.370	0.160	0.060	0.470
2020/01/31 04:20:41.5	92.370	0.140	0.130	0.440
2020/01/31 04:20:41.6	92.370	0.120	0.190	0.410
2020/01/31 04:20:41.7	92.380	0.110	0.240	0.390
2020/01/31 04:20:41.8	92.380	0.100	0.280	0.360
2020/01/31 04:20:41.9	92.390	0.090	0.320	0.340
2020/01/31 04:20:42.0	92.390	0.080	0.350	0.320
2020/01/31 04:20:42.1	92.400	0.070	0.370	0.310
2020/01/31 04:20:42.2	92.410	0.070	0.380	0.300
2020/01/31 04:20:42.3	92.420	0.070	0.380	0.290
2020/01/31 04:20:42.4	92.420	0.080	0.380	0.280
2020/01/31 04:20:42.5	92.430	0.080	0.370	0.280
2020/01/31 04:20:42.6	92.440	0.090	0.350	0.280
2020/01/31 04:20:42.7	92.440	0.100	0.330	0.280
2020/01/31 04:20:42.8	92.450	0.110	0.300	0.290
2020/01/31 04:20:42.9	92.450	0.130	0.270	0.290
2020/01/31 04:20:43.0	92.460	0.140	0.230	0.300
2020/01/31 04:20:43.1	92.460	0.160	0.190	0.310
2020/01/31 04:20:43.2	92.460	0.180	0.140	0.320
2020/01/31 04:20:43.3	92.460	0.200	0.100	0.320
2020/01/31 04:20:43.4	92.470	0.220	0.050	0.330
2020/01/31 04:20:43.5	92.470	0.230	0.000	0.330
2020/01/31 04:20:43.6	92.470	0.250	-0.050	0.330
2020/01/31 04:20:43.7	92.480	0.270	-0.100	0.330
2020/01/31 04:20:43.8	92.480	0.280	-0.140	0.320
2020/01/31 04:20:43.9	92.480	0.300	-0.180	0.320
2020/01/31 04:20:44.0	92.480	0.310	-0.220	0.310
2020/01/31 04:20:44.1	92.500	0.320	-0.260	0.300
2020/01/31 04:20:44.2	92.500	0.330	-0.300	0.300
2020/01/31 04:20:44.3	92.500	0.330	-0.320	0.300
2020/01/31 04:20:44.4	92.490	0.330	-0.350	0.290
2020/01/31 04:20:44.5	92.490	0.330	-0.360	0.290
2020/01/31 04:20:44.6	92.480	0.330	-0.380	0.290
2020/01/31 04:20:44.7	92.480	0.330	-0.380	0.300
2020/01/31 04:20:44.8	92.470	0.320	-0.380	0.310
2020/01/31 04:20:44.9	92.460	0.310	-0.380	0.320
2020/01/31 04:20:45.0	92.450	0.300	-0.370	0.330
2020/01/31 04:20:45.1	92.430	0.280	-0.360	0.350
2020/01/31 04:20:45.2	92.420	0.270	-0.340	0.370
2020/01/31 04:20:45.3	92.410	0.250	-0.320	0.390
2020/01/31 04:20:45.4	92.400	0.230	-0.300	0.410
2020/01/31 04:20:45.5	92.390	0.210	-0.270	0.440
2020/01/31 04:20:45.6	92.380	0.190	-0.240	0.460
2020/01/31 04:20:45.7	92.370	0.170	-0.220	0.490
2020/01/31 04:20:45.8	92.370	0.140	-0.190	0.520
2020/01/31 04:20:45.9	92.360	0.120	-0.160	0.540
2020/01/31 04:20:46.0	92.360	0.100	-0.130	0.570
2020/01/31 04:20:46.1	92.370	0.080	-0.100	0.590
2020/01/31 04:20:46.2	92.370	0.060	-0.080	0.610
2020/01/31 04:20:46.3	92.370	0.040	-0.060	0.630
2020/01/31 04:20:46.4	92.370	0.020	-0.050	0.650
2020/01/31 04:20:46.5	92.380	-0.000	-0.040	0.660
2020/01/31 04:20:46.6	92.390	-0.020	-0.030	0.670
2020/01/31 04:20:46.7	92.410	-0.030	-0.030	0.670
2020/01/31 04:20:46.8	92.420	-0.040	-0.030	0.680
2020/01/31 04:20:46.9	92.440	-0.050	-0.040	0.680
2020/01/31 04:20:47.0	92.470	-0.060	-0.050	0.680
2020/01/31 04:20:47.1	92.500	-0.060	-0.060	0.680
2020/01/31 04:20:47.2	92.530	-0.070	-0.080	0.680
2020/01/31 04:20:47.3	92.550	-0.070	-0.110	0.670
2020/01/31 04:20:47.4	92.580	-0.070	-0.130	0.670
2020/01/31 04:20:47.5	92.610	-0.070	-0.160	0.660
2020/01/31 04:20:47.6	92.640	-0.070	-0.190	0.650
2020/01/31 04:20:47.7	92.670	-0.070	-0.220	0.650
2020/01/31 04:20:47.8	92.700	-0.060	-0.250	0.640
2020/01/31 04:20:47.9	92.720	-0.060	-0.290	0.640
2020/01/31 04:20:48.0	92.750	-0.060	-0.320	0.630
2020/01/31 04:20:48.1	92.760	-0.050	-0.350	0.630
2020/01/31 04:20:48.2	92.790	-0.040	-0.380	0.620
2020/01/31 04:20:48.3	92.810	-0.040	-0.410	0.620
2020/01/31 04:20:48.4	92.840	-0.030	-0.440	0.620
2020/01/31 04:20:48.5	92.860	-0.030	-0.460	0.620
2020/01/31 04:20:48.6	92.880	-0.020	-0.480	0.620
2020/01/31 04:20:48.7	92.890	-0.020	-0.500	0.620
2020/01/31 04:20:48.8	92.910	-0.010	-0.510	0.620
2020/01/31 04:20:48.9	92.930	-0.010	-0.520	0.620
2020/01/31 04:20:49.0	92.940	-0.000	-0.530	0.620
2020/01/31 04:20:49.1	92.950	-0.000	-0.530	0.620
2020/01/31 04:20:49.2	92.960	0.000	-0.530	0.630
2020/01/31 04:20:49.3	92.970	0.000	-0.520	0.630
2020/01/31 04:20:49.4	92.980	0.000	-0.500	0.640
2020/01/31 04:20:49.5	92.980	0.000	-0.490	0.640
2020/01/31 04:20:49.6	92.990	0.000	-0.470	0.650
2020/01/31 04:20:49.7	92.990	-0.000	-0.440	0.660
2020/01/31 04:20:49.8	93.000	-0.000	-0.410	0.670
2020/01/31 04:20:49.9	93.000	-0.010	-0.380	0.680
2020/01/31 04:20:50.0	93.000	-0.020	-0.350	0.690
2020/01/31 04:20:50.1	92.990	-0.020	-0.310	0.710
2020/01/31 04:20:50.2	92.990	-0.030	-0.270	0.720
2020/01/31 04:20:50.3	92.980	-0.040	-0.230	0.740
2020/01/31 04:20:50.4	92.970	-0.050	-0.190	0.770
2020/01/31 04:20:50.5	92.960	-0.070	-0.150	0.790
2020/01/31 04:20:50.6	92.940	-0.080	-0.110	0.810
2020/01/31 04:20:50.7	92.920	-0.090	-0.070	0.840
2020/01/31 04:20:50.8	92.910	-0.110	-0.030	0.860
2020/01/31 04:20:50.9	92.890	-0.130	0.010	0.880
2020/01/31 04:20:51.0	92.870	-0.140	0.050	0.910
2020/01/31 04:20:51.1	92.830	-0.160	0.080	0.930
2020/01/31 04:20:51.2	92.810	-0.180	0.110	0.950
2020/01/31 04:20:51.3	92.790	-0.190	0.140	0.960
2020/01/31 04:20:51.4	92.760	-0.210	0.170	0.980
2020/01/31 04:20:51.5	92.740	-0.220	0.190	0.980
2020/01/31 04:20:51.6	92.720	-0.240	0.200	0.990
2020/01/31 04:20:51.7	92.700	-0.250	0.210	0.990
2020/01/31 04:20:51.8	92.680	-0.260	0.220	0.980
2020/01/31 04:20:51.9	92.660	-0.270	0.220	0.970
2020/01/31 04:20:52.0	92.640	-0.280	0.210	0.960
2020/01/31 04:20:52.1	92.620	-0.290	0.200	0.930
2020/01/31 04:20:52.2	92.610	-0.290	0.190	0.910
2020/01/31 04:20:52.3	92.600	-0.290	0.170	0.880
2020/01/31 04:20:52.4	92.590	-0.290	0.140	0.840
2020/01/31 04:20:52.5	92.580	-0.280	0.110	0.800
2020/01/31 04:20:52.6	92.580	-0.270	0.070	0.760
2020/01/31 04:20:52.7	92.580	-0.260	0.030	0.710
2020/01/31 04:20:52.8	92.580	-0.250	-0.020	0.670
2020/01/31 04:20:52.9	92.580	-0.230	-0.070	0.620
2020/01/31 04:20:53.0	92.590	-0.210	-0.120	0.570
2020/01/31 04:20:53.1	92.590	-0.190	-0.180	0.520
2020/01/31 04:20:53.2	92.600	-0.170	-0.230	0.470
2020/01/31 04:20:53.3	92.610	-0.140	-0.290	0.420
2020/01/31 04:20:53.4	92.610	-0.110	-0.350	0.380
2020/01/31 04:20:53.5	92.620	-0.080	-0.400	0.340
2020/01/31 04:20:53.6	92.630	-0.060	-0.450	0.300
2020/01/31 04:20:53.7	92.640	-0.030	-0.500	0.270
2020/01/31 04:20:53.8	92.650	0.000	-0.550	0.240
2020/01/31 04:20:53.9	92.660	0.030	-0.590	0.210
2020/01/31 04:20:54.0	92.660	0.060	-0.630	0.190
2020/01/31 04:20:54.1	92.670	0.090	-0.660	0.170
2020/01/31 04:20:54.2	92.680	0.110	-0.680	0.150
2020/01/31 04:20:54.3	92.690	0.130	-0.700	0.140
2020/01/31 04:20:54.4	92.700	0.150	-0.710	0.130
2020/01/31 04:20:54.5	92.710	0.170	-0.720	0.120
2020/01/31 04:20:54.6	92.720	0.190	-0.720	0.120
2020/01/31 04:20:54.7	92.730	0.200	-0.710	0.120
2020/01/31 04:20:54.8	92.740	0.210	-0.700	0.120
2020/01/31 04:20:54.9	92.750	0.210	-0.680	0.120
2020/01/31 04:20:55.0	92.760	0.220	-0.660	0.130
2020/01/31 04:20:55.1	92.770	0.210	-0.620	0.140
2020/01/31 04:20:55.2	92.780	0.210	-0.590	0.150
2020/01/31 04:20:55.3	92.790	0.200	-0.550	0.160
2020/01/31 04:20:55.4	92.800	0.190	-0.510	0.170
2020/01/31 04:20:55.5	92.800	0.180	-0.470	0.190
2020/01/31 04:20:55.6	92.810	0.170	-0.420	0.200
2020/01/31 04:20:55.7	92.820	0.150	-0.370	0.220
2020/01/31 04:20:55.8	92.830	0.130	-0.320	0.240
2020/01/31 04:20:55.9	92.830	0.110	-0.270	0.260
2020/01/31 04:20:56.0	92.840	0.090	-0.220	0.280
2020/01/31 04:20:56.1	92.840	0.060	-0.170	0.300
2020/01/31 04:20:56.2	92.840	0.040	-0.120	0.320
2020/01/31 04:20:56.3	92.840	0.020	-0.070	0.350
2020/01/31 04:20:56.4	92.840	-0.010	-0.030	0.380
2020/01/31 04:20:56.5	92.840	-0.030	0.010	0.400
2020/01/31 04:20:56.6	92.840	-0.050	0.050	0.430
2020/01/31 04:20:56.7	92.840	-0.070	0.090	0.470
2020/01/31 04:20:56.8	92.840	-0.090	0.120	0.500
2020/01/31 04:20:56.9	92.830	-0.110	0.140	0.530
2020/01/31 04:20:57.0	92.830	-0.120	0.160	0.560
2020/01/31 04:20:57.1	92.850	-0.130	0.190	0.590
2020/01/31 04:20:57.2	92.840	-0.140	0.190	0.630
2020/01/31 04:20:57.3	92.840	-0.150	0.200	0.660
2020/01/31 04:20:57.4	92.840	-0.150	0.200	0.690
2020/01/31 04:20:57.5	92.840	-0.150	0.190	0.710
2020/01/31 04:20:57.6	92.840	-0.150	0.170	0.740
2020/01/31 04:20:57.7	92.840	-0.140	0.160	0.760
2020/01/31 04:20:57.8	92.840	-0.130	0.130	0.770
2020/01/31 04:20:57.9	92.850	-0.120	0.100	0.790
2020/01/31 04:20:58.0	92.850	-0.110	0.060	0.800
2020/01/31 04:20:58.1	92.850	-0.090	0.020	0.820
2020/01/31 04:20:58.2	92.850	-0.070	-0.020	0.820
2020/01/31 04:20:58.3	92.860	-0.050	-0.070	0.830
2020/01/31 04:20:58.4	92.860	-0.030	-0.120	0.830
2020/01/31 04:20:58.5	92.870	-0.000	-0.170	0.820
2020/01/31 04:20:58.6	92.880	0.020	-0.220	0.820
2020/01/31 04:20:58.7	92.880	0.050	-0.280	0.810
2020/01/31 04:20:58.8	92.890	0.080	-0.330	0.800
2020/01/31 04:20:58.9	92.890	0.110	-0.380	0.800
2020/01/31 04:20:59.0	92.890	0.140	-0.430	0.790
2020/01/31 04:20:59.1	92.900	0.170	-0.480	0.770
2020/01/31 04:20:59.2	92.900	0.200	-0.520	0.770
2020/01/31 04:20:59.3	92.900	0.230	-0.560	0.760
2020/01/31 04:20:59.4	92.900	0.250	-0.600	0.750
2020/01/31 04:20:59.5	92.900	0.280	-0.630	0.740
2020/01/31 04:20:59.6	92.900	0.300	-0.660	0.740
2020/01/31 04:20:59.7	92.890	0.330	-0.680	0.730
2020/01/31 04:20:59.8	92.890	0.350	-0.700	0.730
2020/01/31 04:20:59.9	92.890	0.360	-0.700	0.720
2020/01/31 04:21:00.0	92.880	0.380	-0.710	0.720
2020/01/31 04:21:00.1	92.880	0.390	-0.700	0.720
2020/01/31 04:21:00.2	92.880	0.400	-0.690	0.720
2020/01/31 04:21:00.3	92.870	0.410	-0.680	0.710
2020/01/31 04:21:00.4	92.870	0.410	-0.650	0.720
2020/01/31 04:21:00.5	92.870	0.410	-0.620	0.720
2020/01/31 04:21:00.6	92.860	0.410	-0.590	0.720
2020/01/31 04:21:00.7	92.860	0.400	-0.550	0.720
2020/01/31 04:21:00.8	92.860	0.390	-0.500	0.720
2020/01/31 04:21:00.9	92.860	0.380	-0.460	0.720
2020/01/31 04:21:01.0	92.870	0.360	-0.410	0.720
2020/01/31 04:21:01.1	92.860	0.340	-0.350	0.720
2020/01/31 04:21:01.2	92.870	0.320	-0.300	0.710
2020/01/31 04:21:01.3	92.870	0.300	-0.240	0.710
2020/01/31 04:21:01.4	92.880	0.270	-0.180	0.710
2020/01/31 04:21:01.5	92.890	0.250	-0.130	0.700
2020/01/31 04:21:01.6	92.900	0.220	-0.080	0.700
2020/01/31 04:21:01.7	92.900	0.190	-0.020	0.690
2020/01/31 04:21:01.8	92.910	0.160	0.020	0.690
2020/01/31 04:21:01.9	92.920	0.130	0.070	0.680
2020/01/31 04:21:02.0	92.930	0.100	0.110	0.670
2020/01/31 04:21:02.1	92.950	0.070	0.150	0.670
2020/01/31 04:21:02.2	92.960	0.040	0.180	0.660
2020/01/31 04:21:02.3	92.970	0.010	0.210	0.650
2020/01/31 04:21:02.4	92.980	-0.020	0.230	0.650
2020/01/31 04:21:02.5	92.990	-0.050	0.250	0.640
2020/01/31 04:21:02.6	93.000	-0.070	0.260	0.640
2020/01/31 04:21:02.7	93.010	-0.100	0.270	0.640
2020/01/31 04:21:02.8	93.020	-0.120	0.270	0.630
2020/01/31 04:21:02.9	93.030	-0.140	0.260	0.630
2020/01/31 04:21:03.0	93.040	-0.160	0.250	0.630
2020/01/31 04:21:03.1	93.050	-0.170	0.230	0.640
2020/01/31 04:21:03.2	93.060	-0.190	0.210	0.640
2020/01/31 04:21:03.3	93.070	-0.200	0.180	0.640
2020/01/31 04:21:03.4	93.080	-0.200	0.140	0.650
2020/01/31 04:21:03.5	93.090	-0.210	0.100	0.650
2020/01/31 04:21:03.6	93.100	-0.210	0.050	0.660
2020/01/31 04:21:03.7	93.120	-0.210	0.000	0.670
2020/01/31 04:21:03.8	93.130	-0.200	-0.050	0.680
2020/01/31 04:21:03.9	93.150	-0.200	-0.110	0.680
2020/01/31 04:21:04.0	93.160	-0.190	-0.160	0.690
2020/01/31 04:21:04.1	93.170	-0.180	-0.230	0.710
2020/01/31 04:21:04.2	93.180	-0.170	-0.290	0.720
2020/01/31 04:21:04.3	93.200	-0.160	-0.350	0.730
2020/01/31 04:21:04.4	93.210	-0.150	-0.400	0.750
2020/01/31 04:21:04.5	93.220	-0.130	-0.460	0.760
2020/01/31 04:21:04.6	93.230	-0.120	-0.510	0.780
2020/01/31 04:21:04.7	93.230	-0.110	-0.560	0.800
2020/01/31 04:21:04.8	93.230	-0.090	-0.600	0.820
2020/01/31 04:21:04.9	93.220	-0.080	-0.640	0.840
2020/01/31 04:21:05.0	93.220	-0.070	-0.670	0.860
2020/01/31 04:21:05.1	93.200	-0.060	-0.690	0.880
2020/01/31 04:21:05.2	93.180	-0.050	-0.710	0.900
2020/01/31 04:21:05.3	93.170	-0.050	-0.720	0.920
2020/01/31 04:21:05.4	93.150	-0.040	-0.730	0.930
2020/01/31 04:21:05.5	93.130	-0.040	-0.720	0.940
2020/01/31 04:21:05.6	93.110	-0.040	-0.710	0.960
2020/01/31 04:21:05.7	93.090	-0.040	-0.690	0.970
2020/01/31 04:21:05.8	93.070	-0.040	-0.660	0.970
2020/01/31 04:21:05.9	93.050	-0.050	-0.620	0.980
2020/01/31 04:21:06.0	93.030	-0.060	-0.580	0.980
2020/01/31 04:21:06.1	93.010	-0.070	-0.530	0.990
2020/01/31 04:21:06.2	92.990	-0.080	-0.480	0.990
2020/01/31 04:21:06.3	92.970	-0.090	-0.420	0.980
2020/01/31 04:21:06.4	92.950	-0.110	-0.350	0.980
2020/01/31 04:21:06.5	92.940	-0.120	-0.290	0.980
2020/01/31 04:21:06.6	92.930	-0.140	-0.220	0.970
2020/01/31 04:21:06.7	92.920	-0.160	-0.150	0.960
2020/01/31 04:21:06.8	92.910	-0.170	-0.070	0.950
2020/01/31 04:21:06.9	92.910	-0.190	-0.000	0.930
2020/01/31 04:21:07.0	92.910	-0.210	0.060	0.920
2020/01/31 04:21:07.1	92.900	-0.220	0.130	0.900
2020/01/31 04:21:07.2	92.910	-0.240	0.190	0.880
2020/01/31 04:21:07.3	92.910	-0.250	0.250	0.860
2020/01/31 04:21:07.4	92.930	-0.260	0.300	0.840
2020/01/31 04:21:07.5	92.940	-0.270	0.340	0.810
2020/01/31 04:21:07.6	92.960	-0.280	0.380	0.790
2020/01/31 04:21:07.7	92.970	-0.280	0.410	0.760
2020/01/31 04:21:07.8	92.990	-0.280	0.430	0.730
2020/01/31 04:21:07.9	93.020	-0.280	0.440	0.700
2020/01/31 04:21:08.0	93.040	-0.280	0.440	0.670
2020/01/31 04:21:08.1	93.060	-0.270	0.440	0.640
2020/01/31 04:21:08.2	93.080	-0.260	0.430	0.610
2020/01/31 04:21:08.3	93.100	-0.250	0.400	0.580
2020/01/31 04:21:08.4	93.130	-0.230	0.370	0.540
2020/01/31 04:21:08.5	93.150	-0.210	0.340	0.510
2020/01/31 04:21:08.6	93.170	-0.190	0.290	0.470
2020/01/31 04:21:08.7	93.200	-0.160	0.240	0.430
2020/01/31 04:21:08.8	93.220	-0.140	0.190	0.400
2020/01/31 04:21:08.9	93.250	-0.110	0.120	0.360
2020/01/31 04:21:09.0	93.270	-0.080	0.060	0.320
2020/01/31 04:21:09.1	93.310	-0.040	-0.010	0.280
2020/01/31 04:21:09.2	93.330	-0.010	-0.090	0.240
2020/01/31 04:21:09.3	93.360	0.020	-0.160	0.200
2020/01/31 04:21:09.4	93.380	0.060	-0.230	0.170
2020/01/31 04:21:09.5	93.400	0.090	-0.310	0.130
2020/01/31 04:21:09.6	93.420	0.130	-0.380	0.100
2020/01/31 04:21:09.7	93.440	0.160	-0.450	0.070
2020/01/31 04:21:09.8	93.460	0.200	-0.520	0.050
2020/01/31 04:21:09.9	93.470	0.230	-0.590	0.030
2020/01/31 04:21:10.0	93.490	0.260	-0.650	0.010
2020/01/31 04:21:10.1	93.510	0.290	-0.700	0.010
2020/01/31 04:21:10.2	93.520	0.320	-0.750	0.010
2020/01/31 04:21:10.3	93.530	0.350	-0.800	0.010
2020/01/31 04:21:10.4	93.540	0.370	-0.840	0.020
2020/01/31 04:21:10.5	93.540	0.390	-0.870	0.030
2020/01/31 04:21:10.6	93.550	0.410	-0.900	0.060
2020/01/31 04:21:10.7	93.550	0.420	-0.910	0.080
2020/01/31 04:21:10.8	93.550	0.430	-0.920	0.110
2020/01/31 04:21:10.9	93.550	0.440	-0.930	0.150
2020/01/31 04:21:11.0	93.550	0.440	-0.920	0.190
2020/01/31 04:21:11.1	93.580	0.440	-0.910	0.240
2020/01/31 04:21:11.2	93.570	0.430	-0.890	0.290
2020/01/31 04:21:11.3	93.570	0.420	-0.860	0.340
2020/01/31 04:21:11.4	93.560	0.410	-0.820	0.400
2020/01/31 04:21:11.5	93.550	0.390	-0.780	0.450
2020/01/31 04:21:11.6	93.540	0.370	-0.730	0.510
2020/01/31 04:21:11.7	93.520	0.350	-0.670	0.560
2020/01/31 04:21:11.8	93.510	0.320	-0.610	0.620
2020/01/31 04:21:11.9	93.490	0.290	-0.540	0.670
2020/01/31 04:21:12.0	93.470	0.250	-0.470	0.720
2020/01/31 04:21:12.1	93.450	0.220	-0.400	0.780
2020/01/31 04:21:12.2	93.430	0.180	-0.320	0.820
2020/01/31 04:21:12.3	93.410	0.140	-0.240	0.860
2020/01/31 04:21:12.4	93.380	0.100	-0.160	0.900
2020/01/31 04:21:12.5	93.360	0.050	-0.090	0.930
2020/01/31 04:21:12.6	93.330	0.010	-0.010	0.960
2020/01/31 04:21:12.7	93.310	-0.030	0.060	0.980
2020/01/31 04:21:12.8	93.280	-0.070	0.130	1.000
2020/01/31 04:21:12.9	93.250	-0.110	0.190	1.020
2020/01/31 04:21:13.0	93.220	-0.150	0.250	1.030
2020/01/31 04:21:13.1	93.180	-0.180	0.300	1.030
2020/01/31 04:21:13.2	93.150	-0.210	0.350	1.030
2020/01/31 04:21:13.3	93.120	-0.240	0.380	1.020
2020/01/31 04:21:13.4	93.100	-0.260	0.410	1.020
2020/01/31 04:21:13.5	93.070	-0.280	0.420	1.000
2020/01/31 04:21:13.6	93.050	-0.290	0.430	0.990
2020/01/31 04:21:13.7	93.030	-0.300	0.430	0.980
2020/01/31 04:21:13.8	93.010	-0.310	0.420	0.960
2020/01/31 04:21:13.9	92.990	-0.310	0.400	0.940
2020/01/31 04:21:14.0	92.980	-0.300	0.370	0.920
2020/01/31 04:21:14.1	92.960	-0.290	0.340	0.900
2020/01/31 04:21:14.2	92.950	-0.280	0.300	0.880
2020/01/31 04:21:14.3	92.940	-0.260	0.250	0.860
2020/01/31 04:21:14.4	92.940	-0.240	0.190	0.840
2020/01/31 04:21:14.5	92.930	-0.220	0.130	0.810
2020/01/31 04:21:14.6	92.930	-0.190	0.070	0.790
2020/01/31 04:21:14.7	92.940	-0.160	0.000	0.770
2020/01/31 04:21:14.8	92.940	-0.130	-0.070	0.740
2020/01/31 04:21:14.9	92.950	-0.090	-0.140	0.720
2020/01/31 04:21:15.0	92.950	-0.060	-0.210	0.690
2020/01/31 04:21:15.1	92.960	-0.020	-0.290	0.670
2020/01/31 04:21:15.2	92.970	0.020	-0.360	0.640
2020/01/31 04:21:15.3	92.980	0.060	-0.440	0.620
2020/01/31 04:21:15.4	92.990	0.100	-0.510	0.590
2020/01/31 04:21:15.5	93.010	0.140	-0.580	0.560
2020/01/31 04:21:15.6	93.030	0.170	-0.640	0.530
2020/01/31 04:21:15.7	93.040	0.210	-0.700	0.500
2020/01/31 04:21:15.8	93.060	0.240	-0.760	0.470
2020/01/31 04:21:15.9	93.080	0.280	-0.810	0.440
2020/01/31 04:21:16.0	93.100	0.310	-0.850	0.410
2020/01/31 04:21:16.1	93.120	0.330	-0.890	0.390
2020/01/31 04:21:16.2	93.140	0.360	-0.920	0.360
2020/01/31 04:21:16.3	93.160	0.380	-0.940	0.330
2020/01/31 04:21:16.4	93.180	0.390	-0.950	0.310
2020/01/31 04:21:16.5	93.190	0.410	-0.960	0.290
2020/01/31 04:21:16.6	93.210	0.410	-0.950	0.280
2020/01/31 04:21:16.7	93.230	0.420	-0.930	0.260
2020/01/31 04:21:16.8	93.250	0.420	-0.910	0.260
2020/01/31 04:21:16.9	93.260	0.420	-0.880	0.250
2020/01/31 04:21:17.0	93.280	0.410	-0.840	0.250
2020/01/31 04:21:17.1	93.310	0.400	-0.790	0.250
2020/01/31 04:21:17.2	93.320	0.380	-0.730	0.260
2020/01/31 04:21:17.3	93.330	0.360	-0.660	0.270
2020/01/31 04:21:17.4	93.340	0.340	-0.590	0.290
2020/01/31 04:21:17.5	93.350	0.310	-0.510	0.310
2020/01/31 04:21:17.6	93.360	0.280	-0.430	0.330
2020/01/31 04:21:17.7	93.370	0.250	-0.340	0.360
2020/01/31 04:21:17.8	93.370	0.210	-0.260	0.390
2020/01/31 04:21:17.9	93.380	0.170	-0.160	0.420
2020/01/31 04:21:18.0	93.380	0.130	-0.070	0.460
2020/01/31 04:21:18.1	93.390	0.090	0.020	0.500
2020/01/31 04:21:18.2	93.390	0.050	0.110	0.540
2020/01/31 04:21:18.3	93.390	0.010	0.190	0.580
2020/01/31 04:21:18.4	93.390	-0.030	0.280	0.620
2020/01/31 04:21:18.5	93.400	-0.070	0.360	0.660
2020/01/31 04:21:18.6	93.400	-0.110	0.430	0.700
2020/01/31 04:21:18.7	93.400	-0.150	0.490	0.740
2020/01/31 04:21:18.8	93.400	-0.190	0.550	0.770
2020/01/31 04:21:18.9	93.400	-0.220	0.600	0.810
2020/01/31 04:21:19.0	93.400	-0.260	0.640	0.840
2020/01/31 04:21:19.1	93.390	-0.290	0.670	0.880
2020/01/31 04:21:19.2	93.390	-0.320	0.700	0.910
2020/01/31 04:21:19.3	93.390	-0.340	0.710	0.940
2020/01/31 04:21:19.4	93.380	-0.360	0.710	0.960
2020/01/31 04:21:19.5	93.380	-0.380	0.710	0.990
2020/01/31 04:21:19.6	93.370	-0.390	0.690	1.010
2020/01/31 04:21:19.7	93.370	-0.410	0.670	1.030
2020/01/31 04:21:19.8	93.360	-0.410	0.640	1.050
2020/01/31 04:21:19.9	93.350	-0.420	0.600	1.070
2020/01/31 04:21:20.0	93.340	-0.420	0.550	1.080
2020/01/31 04:21:20.1	93.310	-0.420	0.500	1.100
2020/01/31 04:21:20.2	93.300	-0.410	0.440	1.110
2020/01/31 04:21:20.3	93.290	-0.400	0.370	1.110
2020/01/31 04:21:20.4	93.270	-0.390	0.300	1.120
2020/01/31 04:21:20.5	93.260	-0.380	0.230	1.120
2020/01/31 04:21:20.6	93.240	-0.360	0.150	1.120
2020/01/31 04:21:20.7	93.220	-0.350	0.070	1.130
2020/01/31 04:21:20.8	93.200	-0.320	-0.010	1.120
2020/01/31 04:21:20.9	93.180	-0.300	-0.100	1.120
2020/01/31 04:21:21.0	93.170	-0.280	-0.180	1.120
2020/01/31 04:21:21.1	93.140	-0.250	-0.270	1.110
2020/01/31 04:21:21.2	93.130	-0.230	-0.350	1.100
2020/01/31 04:21:21.3	93.110	-0.200	-0.430	1.090
2020/01/31 04:21:21.4	93.100	-0.170	-0.500	1.080
2020/01/31 04:21:21.5	93.080	-0.140	-0.580	1.070
2020/01/31 04:21:21.6	93.070	-0.120	-0.640	1.060
2020/01/31 04:21:21.7	93.060	-0.090	-0.710	1.040
2020/01/31 04:21:21.8	93.050	-0.070	-0.760	1.020
2020/01/31 04:21:21.9	93.050	-0.040	-0.810	1.010
2020/01/31 04:21:22.0	93.040	-0.020	-0.850	0.990
2020/01/31 04:21:22.1	93.040	0.000	-0.890	0.970
2020/01/31 04:21:22.2	93.040	0.020	-0.920	0.960
2020/01/31 04:21:22.3	93.040	0.040	-0.940	0.940
2020/01/31 04:21:22.4	93.040	0.060	-0.960	0.930
2020/01/31 04:21:22.5	93.040	0.070	-0.970	0.910
2020/01/31 04:21:22.6	93.040	0.090	-0.970	0.890
2020/01/31 04:21:22.7	93.050	0.100	-0.970	0.880
2020/01/31 04:21:22.8	93.050	0.100	-0.950	0.870
2020/01/31 04:21:22.9	93.060	0.110	-0.940	0.860
2020/01/31 04:21:23.0	93.060	0.110	-0.910	0.850
2020/01/31 04:21:23.1	93.080	0.120	-0.880	0.840
2020/01/31 04:21:23.2	93.080	0.120	-0.850	0.830
2020/01/31 04:21:23.3	93.100	0.120	-0.810	0.820
2020/01/31 04:21:23.4	93.110	0.110	-0.770	0.810
2020/01/31 04:21:23.5	93.120	0.110	-0.720	0.810
2020/01/31 04:21:23.6	93.140	0.100	-0.670	0.800
2020/01/31 04:21:23.7	93.150	0.100	-0.630	0.790
2020/01/31 04:21:23.8	93.170	0.090	-0.570	0.780
2020/01/31 04:21:23.9	93.180	0.080	-0.520	0.770
2020/01/31 04:21:24.0	93.200	0.070	-0.470	0.760
2020/01/31 04:21:24.1	93.210	0.060	-0.420	0.760
2020/01/31 04:21:24.2	93.230	0.050	-0.370	0.750
2020/01/31 04:21:24.3	93.250	0.040	-0.320	0.740
2020/01/31 04:21:24.4	93.270	0.030	-0.270	0.730
2020/01/31 04:21:24.5	93.290	0.020	-0.230	0.730
2020/01/31 04:21:24.6	93.300	0.010	-0.180	0.720
2020/01/31 04:21:24.7	93.320	-0.000	-0.140	0.710
2020/01/31 04:21:24.8	93.330	-0.010	-0.110	0.710
2020/01/31 04:21:24.9	93.350	-0.020	-0.070	0.700
2020/01/31 04:21:25.0	93.360	-0.040	-0.040	0.700
2020/01/31 04:21:25.1	93.370	-0.050	-0.020	0.690
2020/01/31 04:21:25.2	93.380	-0.060	0.000	0.690
2020/01/31 04:21:25.3	93.390	-0.070	0.030	0.690
2020/01/31 04:21:25.4	93.390	-0.080	0.040	0.680
2020/01/31 04:21:25.5	93.390	-0.090	0.060	0.680
2020/01/31 04:21:25.6	93.390	-0.100	0.070	0.670
2020/01/31 04:21:25.7	93.390	-0.110	0.080	0.670
2020/01/31 04:21:25.8	93.390	-0.110	0.090	0.660
2020/01/31 04:21:25.9	93.380	-0.120	0.100	0.650
2020/01/31 04:21:26.0	93.380	-0.130	0.100	0.650
2020/01/31 04:21:26.1	93.370	-0.140	0.110	0.650
2020/01/31 04:21:26.2	93.360	-0.140	0.110	0.640
2020/01/31 04:21:26.3	93.350	-0.150	0.110	0.640
2020/01/31 04:21:26.4	93.340	-0.150	0.120	0.630
2020/01/31 04:21:26.5	93.330	-0.160	0.120	0.630
2020/01/31 04:21:26.6	93.320	-0.160	0.110	0.630
2020/01/31 04:21:26.7	93.300	-0.160	0.110	0.630
2020/01/31 04:21:26.8	93.290	-0.160	0.110	0.630
2020/01/31 04:21:26.9	93.270	-0.160	0.110	0.630
2020/01/31 04:21:27.0	93.250	-0.150	0.110	0.640
2020/01/31 04:21:27.1	93.230	-0.140	0.100	0.640
2020/01/31 04:21:27.2	93.210	-0.130	0.090	0.640
2020/01/31 04:21:27.3	93.200	-0.120	0.080	0.650
2020/01/31 04:21:27.4	93.180	-0.110	0.070	0.650
2020/01/31 04:21:27.5	93.160	-0.090	0.060	0.660
2020/01/31 04:21:27.6	93.140	-0.080	0.050	0.670
2020/01/31 04:21:27.7	93.130	-0.060	0.030	0.670
2020/01/31 04:21:27.8	93.110	-0.030	0.010	0.680
2020/01/31 04:21:27.9	93.090	-0.010	-0.010	0.690
2020/01/31 04:21:28.0	93.060	0.020	-0.030	0.690
2020/01/31 04:21:28.1	93.040	0.050	-0.060	0.700
2020/01/31 04:21:28.2	93.020	0.080	-0.090	0.710
2020/01/31 04:21:28.3	92.990	0.110	-0.120	0.710
2020/01/31 04:21:28.4	92.970	0.140	-0.150	0.710
2020/01/31 04:21:28.5	92.950	0.170	-0.180	0.710
2020/01/31 04:21:28.6	92.930	0.200	-0.210	0.710
2020/01/31 04:21:28.7	92.920	0.230	-0.240	0.700
2020/01/31 04:21:28.8	92.900	0.260	-0.270	0.700
2020/01/31 04:21:28.9	92.880	0.290	-0.300	0.680
2020/01/31 04:21:29.0	92.870	0.320	-0.340	0.670
2020/01/31 04:21:29.1	92.870	0.350	-0.370	0.650
2020/01/31 04:21:29.2	92.860	0.370	-0.400	0.640
2020/01/31 04:21:29.3	92.850	0.390	-0.430	0.620
2020/01/31 04:21:29.4	92.840	0.420	-0.450	0.600
2020/01/31 04:21:29.5	92.830	0.430	-0.480	0.570
2020/01/31 04:21:29.6	92.830	0.450	-0.500	0.550
2020/01/31 04:21:29.7	92.830	0.460	-0.520	0.530
2020/01/31 04:21:29.8	92.830	0.470	-0.540	0.510
2020/01/31 04:21:29.9	92.830	0.480	-0.550	0.490
2020/01/31 04:21:30.0	92.840	0.480	-0.570	0.470
2020/01/31 04:21:30.1	92.850	0.480	-0.570	0.460
2020/01/31 04:21:30.2	92.860	0.480	-0.580	0.440
2020/01/31 04:21:30.3	92.870	0.470	-0.590	0.430
2020/01/31 04:21:30.4	92.880	0.470	-0.590	0.420
2020/01/31 04:21:30.5	92.900	0.460	-0.600	0.420
2020/01/31 04:21:30.6	92.910	0.450	-0.590	0.420
2020/01/31 04:21:30.7	92.930	0.430	-0.590	0.430
2020/01/31 04:21:30.8	92.950	0.410	-0.580	0.440
2020/01/31 04:21:30.9	92.960	0.400	-0.570	0.450
2020/01/31 04:21:31.0	92.980	0.370	-0.560	0.470
2020/01/31 04:21:31.1	93.000	0.350	-0.540	0.490
2020/01/31 04:21:31.2	93.010	0.330	-0.520	0.520
2020/01/31 04:21:31.3	93.030	0.300	-0.490	0.550
2020/01/31 04:21:31.4	93.040	0.270	-0.460	0.580
2020/01/31 04:21:31.5	93.050	0.240	-0.430	0.620
2020/01/31 04:21:31.6	93.060	0.210	-0.390	0.660
2020/01/31 04:21:31.7	93.070	0.180	-0.350	0.690
2020/01/31 04:21:31.8	93.080	0.150	-0.310	0.730
2020/01/31 04:21:31.9	93.080	0.110	-0.270	0.780
2020/01/31 04:21:32.0	93.090	0.080	-0.220	0.820
2020/01/31 04:21:32.1	93.090	0.040	-0.170	0.860
2020/01/31 04:21:32.2	93.080	0.000	-0.120	0.910
2020/01/31 04:21:32.3	93.080	-0.040	-0.070	0.960
2020/01/31 04:21:32.4	93.070	-0.070	-0.020	1.000
2020/01/31 04:21:32.5	93.060	-0.110	0.030	1.050
2020/01/31 04:21:32.6	93.050	-0.150	0.080	1.100
2020/01/31 04:21:32.7	93.040	-0.180	0.130	1.140
2020/01/31 04:21:32.8	93.020	-0.220	0.170	1.190
2020/01/31 04:21:32.9	93.010	-0.250	0.210	1.240
2020/01/31 04:21:33.0	92.990	-0.290	0.250	1.280
2020/01/31 04:21:33.1	92.960	-0.320	0.290	1.330
2020/01/31 04:21:33.2	92.940	-0.350	0.310	1.370
2020/01/31 04:21:33.3	92.910	-0.380	0.330	1.410
2020/01/31 04:21:33.4	92.890	-0.400	0.350	1.440
2020/01/31 04:21:33.5	92.870	-0.430	0.360	1.480
2020/01/31 04:21:33.6	92.850	-0.450	0.360	1.510
2020/01/31 04:21:33.7	92.820	-0.470	0.360	1.530
2020/01/31 04:21:33.8	92.800	-0.490	0.350	1.550
2020/01/31 04:21:33.9	92.780	-0.500	0.330	1.570
2020/01/31 04:21:34.0	92.760	-0.510	0.310	1.580
2020/01/31 04:21:34.1	92.750	-0.510	0.270	1.580
2020/01/31 04:21:34.2	92.740	-0.520	0.230	1.580
2020/01/31 04:21:34.3	92.720	-0.520	0.190	1.570
2020/01/31 04:21:34.4	92.710	-0.510	0.150	1.560
2020/01/31 04:21:34.5	92.700	-0.500	0.090	1.540
2020/01/31 04:21:34.6	92.690	-0.490	0.040	1.520
2020/01/31 04:21:34.7	92.680	-0.470	-0.030	1.490
2020/01/31 04:21:34.8	92.680	-0.450	-0.090	1.460
2020/01/31 04:21:34.9	92.670	-0.420	-0.160	1.430
2020/01/31 04:21:35.0	92.670	-0.390	-0.240	1.390
2020/01/31 04:21:35.1	92.670	-0.360	-0.310	1.360
2020/01/31 04:21:35.2	92.670	-0.320	-0.380	1.320
2020/01/31 04:21:35.3	92.670	-0.280	-0.460	1.290
2020/01/31 04:21:35.4	92.660	-0.230	-0.530	1.250
2020/01/31 04:21:35.5	92.660	-0.180	-0.610	1.220
2020/01/31 04:21:35.6	92.660	-0.130	-0.680	1.180
2020/01/31 04:21:35.7	92.660	-0.070	-0.750	1.150
2020/01/31 04:21:35.8	92.660	-0.020	-0.810	1.120
2020/01/31 04:21:35.9	92.660	0.040	-0.870	1.100
2020/01/31 04:21:36.0	92.670	0.100	-0.920	1.070
2020/01/31 04:21:36.1	92.680	0.150	-0.960	1.050
2020/01/31 04:21:36.2	92.680	0.210	-1.000	1.020
2020/01/31 04:21:36.3	92.690	0.260	-1.020	1.000
2020/01/31 04:21:36.4	92.700	0.320	-1.040	0.980
2020/01/31 04:21:36.5	92.720	0.360	-1.050	0.950
2020/01/31 04:21:36.6	92.730	0.410	-1.050	0.930
2020/01/31 04:21:36.7	92.750	0.450	-1.030	0.910
2020/01/31 04:21:36.8	92.760	0.480	-1.010	0.890
2020/01/31 04:21:36.9	92.780	0.510	-0.980	0.870
2020/01/31 04:21:37.0	92.790	0.530	-0.930	0.850
2020/01/31 04:21:37.1	92.810	0.550	-0.880	0.830
2020/01/31 04:21:37.2	92.830	0.560	-0.820	0.820
2020/01/31 04:21:37.3	92.840	0.560	-0.750	0.800
2020/01/31 04:21:37.4	92.860	0.560	-0.680	0.780
2020/01/31 04:21:37.5	92.870	0.550	-0.600	0.760
2020/01/31 04:21:37.6	92.880	0.530	-0.510	0.750
2020/01/31 04:21:37.7	92.900	0.510	-0.420	0.730
2020/01/31 04:21:37.8	92.910	0.480	-0.330	0.710
2020/01/31 04:21:37.9	92.920	0.450	-0.240	0.700
2020/01/31 04:21:38.0	92.920	0.410	-0.140	0.680
2020/01/31 04:21:38.1	92.930	0.360	-0.050	0.660
2020/01/31 04:21:38.2	92.930	0.320	0.040	0.650
2020/01/31 04:21:38.3	92.930	0.260	0.130	0.640
2020/01/31 04:21:38.4	92.930	0.210	0.220	0.620
2020/01/31 04:21:38.5	92.930	0.150	0.300	0.610
2020/01/31 04:21:38.6	92.920	0.090	0.370	0.600
2020/01/31 04:21:38.7	92.920	0.030	0.440	0.600
2020/01/31 04:21:38.8	92.910	-0.030	0.500	0.590
2020/01/31 04:21:38.9	92.900	-0.090	0.550	0.580
2020/01/31 04:21:39.0	92.890	-0.150	0.600	0.580
2020/01/31 04:21:39.1	92.890	-0.210	0.630	0.580
2020/01/31 04:21:39.2	92.870	-0.270	0.660	0.580
2020/01/31 04:21:39.3	92.860	-0.320	0.680	0.580
2020/01/31 04:21:39.4	92.840	-0.370	0.690	0.590
2020/01/31 04:21:39.5	92.830	-0.420	0.690	0.590
2020/01/31 04:21:39.6	92.810	-0.460	0.680	0.600
2020/01/31 04:21:39.7	92.790	-0.500	0.670	0.610
2020/01/31 04:21:39.8	92.780	-0.530	0.640	0.620
2020/01/31 04:21:39.9	92.760	-0.560	0.610	0.630
2020/01/31 04:21:40.0	92.740	-0.580	0.570	0.640
2020/01/31 04:21:40.1	92.720	-0.600	0.520	0.650
2020/01/31 04:21:40.2	92.700	-0.620	0.470	0.670
2020/01/31 04:21:40.3	92.690	-0.620	0.410	0.680
2020/01/31 04:21:40.4	92.670	-0.630	0.340	0.700
2020/01/31 04:21:40.5	92.660	-0.620	0.260	0.710
2020/01/31 04:21:40.6	92.640	-0.610	0.180	0.730
2020/01/31 04:21:40.7	92.630	-0.600	0.100	0.750
2020/01/31 04:21:40.8	92.620	-0.580	0.020	0.760
2020/01/31 04:21:40.9	92.600	-0.560	-0.070	0.780
2020/01/31 04:21:41.0	92.590	-0.540	-0.160	0.810
2020/01/31 04:21:41.1	92.580	-0.510	-0.250	0.830
2020/01/31 04:21:41.2	92.560	-0.470	-0.340	0.850
2020/01/31 04:21:41.3	92.550	-0.440	-0.430	0.880
2020/01/31 04:21:41.4	92.530	-0.400	-0.510	0.900
2020/01/31 04:21:41.5	92.520	-0.370	-0.590	0.930
2020/01/31 04:21:41.6	92.500	-0.330	-0.670	0.950
2020/01/31 04:21:41.7	92.490	-0.290	-0.740	0.980
2020/01/31 04:21:41.8	92.470	-0.250	-0.800	1.000
2020/01/31 04:21:41.9	92.460	-0.210	-0.860	1.020
2020/01/31 04:21:42.0	92.440	-0.170	-0.910	1.040
2020/01/31 04:21:42.1	92.440	-0.130	-0.960	1.060
2020/01/31 04:21:42.2	92.420	-0.100	-0.990	1.080
2020/01/31 04:21:42.3	92.410	-0.060	-1.020	1.090
2020/01/31 04:21:42.4	92.400	-0.030	-1.030	1.100
2020/01/31 04:21:42.5	92.390	-0.000	-1.040	1.110
2020/01/31 04:21:42.6	92.380	0.020	-1.040	1.110
2020/01/31 04:21:42.7	92.380	0.040	-1.020	1.110
2020/01/31 04:21:42.8	92.370	0.060	-1.000	1.110
2020/01/31 04:21:42.9	92.370	0.080	-0.970	1.110
2020/01/31 04:21:43.0	92.360	0.090	-0.940	1.110
2020/01/31 04:21:43.1	92.360	0.100	-0.890	1.100
2020/01/31 04:21:43.2	92.360	0.110	-0.840	1.100
2020/01/31 04:21:43.3	92.360	0.120	-0.780	1.090
2020/01/31 04:21:43.4	92.360	0.120	-0.720	1.080
2020/01/31 04:21:43.5	92.370	0.120	-0.660	1.080
2020/01/31 04:21:43.6	92.370	0.120	-0.590	1.070
2020/01/31 04:21:43.7	92.380	0.120	-0.530	1.060
2020/01/31 04:21:43.8	92.390	0.120	-0.460	1.050
2020/01/31 04:21:43.9	92.400	0.120	-0.390	1.050
2020/01/31 04:21:44.0	92.410	0.110	-0.330	1.040
2020/01/31 04:21:44.1	92.430	0.110	-0.270	1.030
2020/01/31 04:21:44.2	92.440	0.110	-0.210	1.030
2020/01/31 04:21:44.3	92.460	0.110	-0.150	1.020
2020/01/31 04:21:44.4	92.470	0.110	-0.100	1.010
2020/01/31 04:21:44.5	92.480	0.110	-0.060	1.010
2020/01/31 04:21:44.6	92.500	0.120	-0.020	1.000
2020/01/31 04:21:44.7	92.510	0.120	0.010	1.000
2020/01/31 04:21:44.8	92.530	0.130	0.040	0.990
2020/01/31 04:21:44.9	92.540	0.140	0.060	0.990
2020/01/31 04:21:45.0	92.550	0.160	0.070	0.980
2020/01/31 04:21:45.1	92.550	0.170	0.080	0.980
2020/01/31 04:21:45.2	92.560	0.190	0.080	0.980
2020/01/31 04:21:45.3	92.560	0.210	0.080	0.980
2020/01/31 04:21:45.4	92.560	0.230	0.080	0.980
2020/01/31 04:21:45.5	92.560	0.260	0.070	0.980
2020/01/31 04:21:45.6	92.550	0.280	0.050	0.970
2020/01/31 04:21:45.7	92.540	0.310	0.040	0.970
2020/01/31 04:21:45.8	92.530	0.330	0.020	0.960
2020/01/31 04:21:45.9	92.520	0.350	0.000	0.950
2020/01/31 04:21:46.0	92.510	0.380	-0.010	0.930
2020/01/31 04:21:46.1	92.500	0.400	-0.030	0.920
2020/01/31 04:21:46.2	92.480	0.420	-0.050	0.900
2020/01/31 04:21:46.3	92.460	0.440	-0.070	0.880
2020/01/31 04:21:46.4	92.440	0.450	-0.080	0.850
2020/01/31 04:21:46.5	92.420	0.470	-0.100	0.830
2020/01/31 04:21:46.6	92.400	0.480	-0.110	0.800
2020/01/31 04:21:46.7	92.380	0.490	-0.110	0.770
2020/01/31 04:21:46.8	92.360	0.500	-0.120	0.740
2020/01/31 04:21:46.9	92.330	0.500	-0.120	0.710
2020/01/31 04:21:47.0	92.310	0.500	-0.120	0.680
2020/01/31 04:21:47.1	92.310	0.490	-0.120	0.650
2020/01/31 04:21:47.2	92.290	0.490	-0.120	0.620
2020/01/31 04:21:47.3	92.270	0.480	-0.110	0.590
2020/01/31 04:21:47.4	92.260	0.470	-0.100	0.570
2020/01/31 04:21:47.5	92.250	0.450	-0.090	0.550
2020/01/31 04:21:47.6	92.240	0.430	-0.080	0.520
2020/01/31 04:21:47.7	92.230	0.410	-0.070	0.500
2020/01/31 04:21:47.8	92.230	0.390	-0.060	0.480
2020/01/31 04:21:47.9	92.230	0.360	-0.040	0.470
2020/01/31 04:21:48.0	92.230	0.340	-0.030	0.450
2020/01/31 04:21:48.1	92.220	0.310	-0.010	0.440
2020/01/31 04:21:48.2	92.230	0.280	-0.000	0.430
2020/01/31 04:21:48.3	92.240	0.250	0.010	0.420
2020/01/31 04:21:48.4	92.260	0.210	0.020	0.410
2020/01/31 04:21:48.5	92.280	0.180	0.030	0.410
2020/01/31 04:21:48.6	92.300	0.150	0.040	0.400
2020/01/31 04:21:48.7	92.330	0.120	0.040	0.400
2020/01/31 04:21:48.8	92.350	0.090	0.050	0.400
2020/01/31 04:21:48.9	92.380	0.060	0.050	0.410
2020/01/31 04:21:49.0	92.410	0.030	0.050	0.410
2020/01/31 04:21:49.1	92.430	0.000	0.040	0.420
2020/01/31 04:21:49.2	92.460	-0.020	0.040	0.430
2020/01/31 04:21:49.3	92.490	-0.050	0.030	0.440
2020/01/31 04:21:49.4	92.510	-0.070	0.020	0.460
2020/01/31 04:21:49.5	92.540	-0.090	0.000	0.480
2020/01/31 04:21:49.6	92.560	-0.110	-0.010	0.500
2020/01/31 04:21:49.7	92.580	-0.130	-0.030	0.530
2020/01/31 04:21:49.8	92.600	-0.140	-0.050	0.560
2020/01/31 04:21:49.9	92.620	-0.160	-0.070	0.590
2020/01/31 04:21:50.0	92.630	-0.170	-0.100	0.610
2020/01/31 04:21:50.1	92.640	-0.180	-0.130	0.650
2020/01/31 04:21:50.2	92.650	-0.190	-0.160	0.680
2020/01/31 04:21:50.3	92.660	-0.190	-0.190	0.710
2020/01/31 04:21:50.4	92.660	-0.200	-0.220	0.740
2020/01/31 04:21:50.5	92.660	-0.200	-0.250	0.780
2020/01/31 04:21:50.6	92.660	-0.210	-0.280	0.810
2020/01/31 04:21:50.7	92.650	-0.210	-0.320	0.840
2020/01/31 04:21:50.8	92.640	-0.210	-0.350	0.880
2020/01/31 04:21:50.9	92.630	-0.210	-0.380	0.910
2020/01/31 04:21:51.0	92.620	-0.210	-0.420	0.950
2020/01/31 04:21:51.1	92.590	-0.210	-0.450	0.990
2020/01/31 04:21:51.2	92.570	-0.210	-0.480	1.020
2020/01/31 04:21:51.3	92.550	-0.210	-0.510	1.070
2020/01/31 04:21:51.4	92.530	-0.210	-0.540	1.110
2020/01/31 04:21:51.5	92.500	-0.210	-0.570	1.150
2020/01/31 04:21:51.6	92.470	-0.210	-0.600	1.190
2020/01/31 04:21:51.7	92.440	-0.210	-0.630	1.230
2020/01/31 04:21:51.8	92.410	-0.200	-0.650	1.280
2020/01/31 04:21:51.9	92.380	-0.200	-0.670	1.320
2020/01/31 04:21:52.0	92.350	-0.200	-0.690	1.370
2020/01/31 04:21:52.1	92.320	-0.200	-0.710	1.410
2020/01/31 04:21:52.2	92.280	-0.200	-0.730	1.460
2020/01/31 04:21:52.3	92.250	-0.200	-0.740	1.500
2020/01/31 04:21:52.4	92.220	-0.190	-0.750	1.540
2020/01/31 04:21:52.5	92.180	-0.190	-0.760	1.580
2020/01/31 04:21:52.6	92.150	-0.190	-0.760	1.620
2020/01/31 04:21:52.7	92.120	-0.190	-0.760	1.650
2020/01/31 04:21:52.8	92.090	-0.190	-0.760	1.680
2020/01/31 04:21:52.9	92.070	-0.190	-0.750	1.710
2020/01/31 04:21:53.0	92.040	-0.190	-0.740	1.730
2020/01/31 04:21:53.1	92.020	-0.200	-0.720	1.750
2020/01/31 04:21:53.2	92.000	-0.200	-0.700	1.760
2020/01/31 04:21:53.3	91.990	-0.200	-0.680	1.770
2020/01/31 04:21:53.4	91.970	-0.200	-0.650	1.770
2020/01/31 04:21:53.5	91.960	-0.210	-0.620	1.760
2020/01/31 04:21:53.6	91.950	-0.210	-0.580	1.750
2020/01/31 04:21:53.7	91.940	-0.220	-0.540	1.730
2020/01/31 04:21:53.8	91.940	-0.220	-0.500	1.710
2020/01/31 04:21:53.9	91.940	-0.230	-0.460	1.690
2020/01/31 04:21:54.0	91.940	-0.230	-0.410	1.660
2020/01/31 04:21:54.1	91.960	-0.240	-0.360	1.620
2020/01/31 04:21:54.2	91.960	-0.240	-0.310	1.580
2020/01/31 04:21:54.3	91.970	-0.250	-0.260	1.550
2020/01/31 04:21:54.4	91.980	-0.250	-0.210	1.510
2020/01/31 04:21:54.5	91.990	-0.260	-0.160	1.460
2020/01/31 04:21:54.6	92.000	-0.260	-0.110	1.420
2020/01/31 04:21:54.7	92.020	-0.270	-0.060	1.380
2020/01/31 04:21:54.8	92.030	-0.270	-0.010	1.340
2020/01/31 04:21:54.9	92.040	-0.270	0.040	1.290
2020/01/31 04:21:55.0	92.050	-0.280	0.090	1.250
2020/01/31 04:21:55.1	92.070	-0.280	0.130	1.210
2020/01/31 04:21:55.2	92.080	-0.280	0.170	1.170
2020/01/31 04:21:55.3	92.090	-0.280	0.210	1.130
2020/01/31 04:21:55.4	92.100	-0.280	0.240	1.090
2020/01/31 04:21:55.5	92.110	-0.280	0.270	1.060
2020/01/31 04:21:55.6	92.120	-0.270	0.300	1.020
2020/01/31 04:21:55.7	92.130	-0.270	0.320	0.980
2020/01/31 04:21:55.8	92.140	-0.260	0.330	0.950
2020/01/31 04:21:55.9	92.150	-0.250	0.340	0.910
2020/01/31 04:21:56.0	92.160	-0.240	0.350	0.870
2020/01/31 04:21:56.1	92.160	-0.230	0.340	0.840
2020/01/31 04:21:56.2	92.170	-0.220	0.340	0.800
2020/01/31 04:21:56.3	92.170	-0.200	0.330	0.760
2020/01/31 04:21:56.4	92.180	-0.190	0.310	0.720
2020/01/31 04:21:56.5	92.180	-0.170	0.290	0.690
2020/01/31 04:21:56.6	92.190	-0.150	0.270	0.650
2020/01/31 04:21:56.7	92.200	-0.130	0.240	0.610
2020/01/31 04:21:56.8	92.200	-0.100	0.210	0.570
2020/01/31 04:21:56.9	92.210	-0.080	0.170	0.530
2020/01/31 04:21:57.0	92.220	-0.050	0.130	0.490
2020/01/31 04:21:57.1	92.220	-0.020	0.100	0.450
2020/01/31 04:21:57.2	92.220	0.000	0.060	0.410
2020/01/31 04:21:57.3	92.230	0.030	0.010	0.370
2020/01/31 04:21:57.4	92.240	0.060	-0.030	0.340
2020/01/31 04:21:57.5	92.250	0.090	-0.070	0.310
2020/01/31 04:21:57.6	92.250	0.120	-0.110	0.280
2020/01/31 04:21:57.7	92.260	0.150	-0.150	0.260
2020/01/31 04:21:57.8	92.270	0.180	-0.190	0.240
2020/01/31 04:21:57.9	92.270	0.210	-0.230	0.220
2020/01/31 04:21:58.0	92.280	0.230	-0.270	0.200
2020/01/31 04:21:58.1	92.290	0.260	-0.310	0.190
2020/01/31 04:21:58.2	92.290	0.280	-0.340	0.190
2020/01/31 04:21:58.3	92.290	0.310	-0.370	0.180
2020/01/31 04:21:58.4	92.290	0.330	-0.400	0.180
2020/01/31 04:21:58.5	92.290	0.350	-0.420	0.180
2020/01/31 04:21:58.6	92.290	0.360	-0.440	0.180
2020/01/31 04:21:58.7	92.290	0.380	-0.460	0.190
2020/01/31 04:21:58.8	92.280	0.390	-0.480	0.190
2020/01/31 04:21:58.9	92.270	0.400	-0.490	0.210
2020/01/31 04:21:59.0	92.270	0.410	-0.500	0.220
2020/01/31 04:21:59.1	92.250	0.420	-0.500	0.240
2020/01/31 04:21:59.2	92.240	0.420	-0.500	0.260
2020/01/31 04:21:59.3	92.230	0.420	-0.500	0.280
2020/01/31 04:21:59.4	92.210	0.420	-0.500	0.300
2020/01/31 04:21:59.5	92.200	0.420	-0.490	0.320
2020/01/31 04:21:59.6	92.180	0.410	-0.480	0.340
2020/01/31 04:21:59.7	92.170	0.400	-0.460	0.360
2020/01/31 04:21:59.8	92.150	0.380	-0.440	0.380
2020/01/31 04:21:59.9	92.140	0.370	-0.420	0.400
2020/01/31 04:22:00.0	92.130	0.350	-0.390	0.420
2020/01/31 04:22:00.1	92.130	0.330	-0.370	0.440
2020/01/31 04:22:00.2	92.120	0.310	-0.350	0.460
2020/01/31 04:22:00.3	92.120	0.280	-0.310	0.480
2020/01/31 04:22:00.4	92.110	0.260	-0.280	0.500
2020/01/31 04:22:00.5	92.110	0.230	-0.250	0.510
2020/01/31 04:22:00.6	92.110	0.200	-0.220	0.530
2020/01/31 04:22:00.7	92.110	0.170	-0.190	0.550
2020/01/31 04:22:00.8	92.110	0.140	-0.160	0.570
2020/01/31 04:22:00.9	92.120	0.110	-0.130	0.590
2020/01/31 04:22:01.0	92.120	0.080	-0.100	0.610
2020/01/31 04:22:01.1	92.120	0.050	-0.070	0.630
2020/01/31 04:22:01.2	92.130	0.030	-0.060	0.640
2020/01/31 04:22:01.3	92.130	0.000	-0.040	0.660
2020/01/31 04:22:01.4	92.150	-0.020	-0.030	0.680
2020/01/31 04:22:01.5	92.160	-0.040	-0.020	0.700
2020/01/31 04:22:01.6	92.170	-0.050	-0.030	0.720
2020/01/31 04:22:01.7	92.180	-0.070	-0.030	0.730
2020/01/31 04:22:01.8	92.190	-0.080	-0.040	0.750
2020/01/31 04:22:01.9	92.200	-0.080	-0.060	0.770
2020/01/31 04:22:02.0	92.210	-0.080	-0.090	0.790
2020/01/31 04:22:02.1	92.230	-0.080	-0.120	0.800
2020/01/31 04:22:02.2	92.240	-0.070	-0.150	0.820
2020/01/31 04:22:02.3	92.240	-0.060	-0.190	0.840
2020/01/31 04:22:02.4	92.240	-0.040	-0.240	0.860
2020/01/31 04:22:02.5	92.250	-0.020	-0.290	0.880
2020/01/31 04:22:02.6	92.250	0.000	-0.340	0.900
2020/01/31 04:22:02.7	92.240	0.030	-0.400	0.920
2020/01/31 04:22:02.8	92.240	0.060	-0.450	0.940
2020/01/31 04:22:02.9	92.230	0.090	-0.510	0.960
2020/01/31 04:22:03.0	92.230	0.130	-0.560	0.980
2020/01/31 04:22:03.1	92.210	0.160	-0.610	1.010
2020/01/31 04:22:03.2	92.200	0.190	-0.660	1.030
2020/01/31 04:22:03.3	92.190	0.230	-0.700	1.050
2020/01/31 04:22:03.4	92.180	0.260	-0.740	1.080
2020/01/31 04:22:03.5	92.160	0.290	-0.760	1.100
2020/01/31 04:22:03.6	92.150	0.320	-0.790	1.130
2020/01/31 04:22:03.7	92.130	0.340	-0.800	1.150
2020/01/31 04:22:03.8	92.120	0.360	-0.810	1.180
2020/01/31 04:22:03.9	92.100	0.380	-0.810	1.200
2020/01/31 04:22:04.0	92.090	0.390	-0.800	1.230
2020/01/31 04:22:04.1	92.080	0.390	-0.790	1.250
2020/01/31 04:22:04.2	92.070	0.390	-0.760	1.270
2020/01/31 04:22:04.3	92.060	0.390	-0.730	1.290
2020/01/31 04:22:04.4	92.040	0.380	-0.690	1.310
2020/01/31 04:22:04.5	92.030	0.360	-0.650	1.330
2020/01/31 04:22:04.6	92.020	0.340	-0.600	1.340
2020/01/31 04:22:04.7	92.010	0.320	-0.550	1.350
2020/01/31 04:22:04.8	92.000	0.280	-0.490	1.360
2020/01/31 04:22:04.9	91.990	0.250	-0.420	1.370
2020/01/31 04:22:05.0	91.980	0.210	-0.360	1.380
2020/01/31 04:22:05.1	91.970	0.160	-0.290	1.390
2020/01/31 04:22:05.2	91.960	0.120	-0.220	1.390
2020/01/31 04:22:05.3	91.950	0.060	-0.150	1.390
2020/01/31 04:22:05.4	91.940	0.010	-0.080	1.390
2020/01/31 04:22:05.5	91.930	-0.040	-0.010	1.380
2020/01/31 04:22:05.6	91.920	-0.100	0.060	1.380
2020/01/31 04:22:05.7	91.910	-0.160	0.130	1.370
2020/01/31 04:22:05.8	91.890	-0.210	0.190	1.360
2020/01/31 04:22:05.9	91.880	-0.270	0.260	1.360
2020/01/31 04:22:06.0	91.870	-0.330	0.320	1.350
2020/01/31 04:22:06.1	91.860	-0.380	0.370	1.330
2020/01/31 04:22:06.2	91.850	-0.430	0.430	1.320
2020/01/31 04:22:06.3	91.830	-0.480	0.470	1.310
2020/01/31 04:22:06.4	91.820	-0.530	0.510	1.300
2020/01/31 04:22:06.5	91.810	-0.570	0.550	1.280
2020/01/31 04:22:06.6	91.800	-0.610	0.580	1.270
2020/01/31 04:22:06.7	91.790	-0.650	0.600	1.250
2020/01/31 04:22:06.8	91.790	-0.680	0.610	1.230
2020/01/31 04:22:06.9	91.780	-0.700	0.620	1.210
2020/01/31 04:22:07.0	91.780	-0.730	0.620	1.190
2020/01/31 04:22:07.1	91.780	-0.740	0.610	1.170
2020/01/31 04:22:07.2	91.780	-0.750	0.600	1.140
2020/01/31 04:22:07.3	91.780	-0.760	0.570	1.110
2020/01/31 04:22:07.4	91.780	-0.760	0.540	1.080
2020/01/31 04:22:07.5	91.790	-0.750	0.500	1.040
2020/01/31 04:22:07.6	91.800	-0.740	0.460	1.000
2020/01/31 04:22:07.7	91.810	-0.730	0.410	0.960
2020/01/31 04:22:07.8	91.830	-0.710	0.350	0.910
2020/01/31 04:22:07.9	91.840	-0.680	0.290	0.860
2020/01/31 04:22:08.0	91.860	-0.650	0.220	0.810
2020/01/31 04:22:08.1	91.890	-0.620	0.140	0.750
2020/01/31 04:22:08.2	91.910	-0.590	0.070	0.700
2020/01/31 04:22:08.3	91.930	-0.550	-0.010	0.650
2020/01/31 04:22:08.4	91.960	-0.500	-0.080	0.590
2020/01/31 04:22:08.5	91.980	-0.460	-0.160	0.540
2020/01/31 04:22:08.6	92.000	-0.410	-0.240	0.490
2020/01/31 04:22:08.7	92.020	-0.370	-0.320	0.450
2020/01/31 04:22:08.8	92.040	-0.320	-0.390	0.400
2020/01/31 04:22:08.9	92.060	-0.270	-0.460	0.360
2020/01/31 04:22:09.0	92.080	-0.220	-0.530	0.330
2020/01/31 04:22:09.1	92.100	-0.170	-0.590	0.300
2020/01/31 04:22:09.2	92.120	-0.120	-0.650	0.280
2020/01/31 04:22:09.3	92.130	-0.070	-0.710	0.260
2020/01/31 04:22:09.4	92.140	-0.020	-0.760	0.250
2020/01/31 04:22:09.5	92.150	0.030	-0.800	0.240
2020/01/31 04:22:09.6	92.150	0.080	-0.830	0.240
2020/01/31 04:22:09.7	92.150	0.120	-0.860	0.240
2020/01/31 04:22:09.8	92.160	0.160	-0.880	0.240
2020/01/31 04:22:09.9	92.160	0.200	-0.900	0.250
2020/01/31 04:22:10.0	92.150	0.240	-0.900	0.260
2020/01/31 04:22:10.1	92.150	0.270	-0.900	0.270
2020/01/31 04:22:10.2	92.140	0.300	-0.900	0.280
2020/01/31 04:22:10.3	92.130	0.330	-0.880	0.290
2020/01/31 04:22:10.4	92.130	0.350	-0.870	0.300
2020/01/31 04:22:10.5	92.120	0.380	-0.840	0.320
2020/01/31 04:22:10.6	92.110	0.390	-0.810	0.330
2020/01/31 04:22:10.7	92.100	0.410	-0.780	0.340
2020/01/31 04:22:10.8	92.090	0.420	-0.740	0.350
2020/01/31 04:22:10.9	92.080	0.430	-0.700	0.360
2020/01/31 04:22:11.0	92.070	0.440	-0.660	0.370
2020/01/31 04:22:11.1	92.060	0.440	-0.610	0.380
2020/01/31 04:22:11.2	92.050	0.440	-0.570	0.380
2020/01/31 04:22:11.3	92.040	0.440	-0.520	0.390
2020/01/31 04:22:11.4	92.020	0.440	-0.470	0.400
2020/01/31 04:22:11.5	92.010	0.430	-0.430	0.400
2020/01/31 04:22:11.6	91.990	0.420	-0.380	0.410
2020/01/31 04:22:11.7	91.980	0.410	-0.340	0.410
2020/01/31 04:22:11.8	91.970	0.400	-0.300	0.420
2020/01/31 04:22:11.9	91.950	0.390	-0.260	0.430
2020/01/31 04:22:12.0	91.940	0.380	-0.230	0.440
2020/01/31 04:22:12.1	91.920	0.360	-0.190	0.450
2020/01/31 04:22:12.2	91.910	0.350	-0.160	0.460
2020/01/31 04:22:12.3	91.890	0.330	-0.140	0.470
2020/01/31 04:22:12.4	91.880	0.320	-0.120	0.490
2020/01/31 04:22:12.5	91.870	0.300	-0.100	0.510
2020/01/31 04:22:12.6	91.860	0.280	-0.090	0.530
2020/01/31 04:22:12.7	91.840	0.270	-0.070	0.560
2020/01/31 04:22:12.8	91.830	0.250	-0.070	0.580
2020/01/31 04:22:12.9	91.820	0.230	-0.060	0.610
2020/01/31 04:22:13.0	91.810	0.210	-0.050	0.640
2020/01/31 04:22:13.1	91.790	0.200	-0.050	0.660
2020/01/31 04:22:13.2	91.780	0.180	-0.050	0.690
2020/01/31 04:22:13.3	91.780	0.160	-0.050	0.720
2020/01/31 04:22:13.4	91.770	0.140	-0.040	0.740
2020/01/31 04:22:13.5	91.760	0.120	-0.040	0.760
2020/01/31 04:22:13.6	91.750	0.100	-0.030	0.790
2020/01/31 04:22:13.7	91.740	0.080	-0.030	0.810
2020/01/31 04:22:13.8	91.740	0.060	-0.020	0.820
2020/01/31 04:22:13.9	91.730	0.040	-0.010	0.830
2020/01/31 04:22:14.0	91.720	0.020	-0.000	0.850
2020/01/31 04:22:14.1	91.730	-0.000	0.020	0.850
2020/01/31 04:22:14.2	91.720	-0.020	0.030	0.860
2020/01/31 04:22:14.3	91.720	-0.040	0.040	0.860
2020/01/31 04:22:14.4	91.710	-0.070	0.050	0.860
2020/01/31 04:22:14.5	91.700	-0.090	0.060	0.860
2020/01/31 04:22:14.6	91.690	-0.110	0.070	0.850
2020/01/31 04:22:14.7	91.680	-0.120	0.080	0.850
2020/01/31 04:22:14.8	91.670	-0.140	0.090	0.840
2020/01/31 04:22:14.9	91.660	-0.160	0.100	0.830
2020/01/31 04:22:15.0	91.660	-0.180	0.110	0.820
2020/01/31 04:22:15.1	91.640	-0.190	0.100	0.820
2020/01/31 04:22:15.2	91.630	-0.200	0.110	0.810
2020/01/31 04:22:15.3	91.610	-0.220	0.100	0.800
2020/01/31 04:22:15.4	91.600	-0.230	0.100	0.800
2020/01/31 04:22:15.5	91.590	-0.240	0.090	0.790
2020/01/31 04:22:15.6	91.580	-0.240	0.080	0.790
2020/01/31 04:22:15.7	91.560	-0.250	0.060	0.790
2020/01/31 04:22:15.8	91.550	-0.250	0.050	0.800
2020/01/31 04:22:15.9	91.540	-0.250	0.020	0.800
2020/01/31 04:22:16.0	91.520	-0.250	0.000	0.810
2020/01/31 04:22:16.1	91.500	-0.250	-0.020	0.820
2020/01/31 04:22:16.2	91.490	-0.250	-0.050	0.830
2020/01/31 04:22:16.3	91.480	-0.240	-0.080	0.840
2020/01/31 04:22:16.4	91.460	-0.240	-0.110	0.850
2020/01/31 04:22:16.5	91.450	-0.230	-0.140	0.870
2020/01/31 04:22:16.6	91.440	-0.230	-0.170	0.880
2020/01/31 04:22:16.7	91.420	-0.220	-0.200	0.900
2020/01/31 04:22:16.8	91.410	-0.210	-0.230	0.920
2020/01/31 04:22:16.9	91.400	-0.200	-0.260	0.930
2020/01/31 04:22:17.0	91.390	-0.190	-0.290	0.950
2020/01/31 04:22:17.1	91.380	-0.180	-0.320	0.960
2020/01/31 04:22:17.2	91.370	-0.160	-0.350	0.970
2020/01/31 04:22:17.3	91.370	-0.150	-0.380	0.980
2020/01/31 04:22:17.4	91.360	-0.140	-0.400	0.990
2020/01/31 04:22:17.5	91.360	-0.130	-0.430	1.000
2020/01/31 04:22:17.6	91.350	-0.110	-0.450	1.010
2020/01/31 04:22:17.7	91.350	-0.100	-0.470	1.010
2020/01/31 04:22:17.8	91.350	-0.080	-0.490	1.020
2020/01/31 04:22:17.9	91.360	-0.070	-0.510	1.020
2020/01/31 04:22:18.0	91.360	-0.050	-0.530	1.020
2020/01/31 04:22:18.1	91.360	-0.030	-0.550	1.020
2020/01/31 04:22:18.2	91.370	-0.020	-0.560	1.020
2020/01/31 04:22:18.3	91.380	0.000	-0.580	1.020
2020/01/31 04:22:18.4	91.390	0.020	-0.600	1.020
2020/01/31 04:22:18.5	91.400	0.040	-0.610	1.010
2020/01/31 04:22:18.6	91.410	0.060	-0.630	1.010
2020/01/31 04:22:18.7	91.430	0.080	-0.640	1.010
2020/01/31 04:22:18.8	91.440	0.100	-0.660	1.010
2020/01/31 04:22:18.9	91.450	0.120	-0.670	1.010
2020/01/31 04:22:19.0	91.470	0.140	-0.680	1.010
2020/01/31 04:22:19.1	91.480	0.160	-0.690	1.020
2020/01/31 04:22:19.2	91.490	0.180	-0.690	1.030
2020/01/31 04:22:19.3	91.490	0.200	-0.700	1.040
2020/01/31 04:22:19.4	91.500	0.210	-0.700	1.050
2020/01/31 04:22:19.5	91.500	0.230	-0.690	1.060
2020/01/31 04:22:19.6	91.500	0.240	-0.690	1.070
2020/01/31 04:22:19.7	91.500	0.250	-0.680	1.080
2020/01/31 04:22:19.8	91.500	0.260	-0.670	1.090
2020/01/31 04:22:19.9	91.500	0.270	-0.650	1.100
2020/01/31 04:22:20.0	91.490	0.280	-0.630	1.110
2020/01/31 04:22:20.1	91.490	0.280	-0.610	1.110
2020/01/31 04:22:20.2	91.480	0.280	-0.580	1.110
2020/01/31 04:22:20.3	91.470	0.280	-0.560	1.110
2020/01/31 04:22:20.4	91.470	0.280	-0.520	1.110
2020/01/31 04:22:20.5	91.460	0.270	-0.490	1.100
2020/01/31 04:22:20.6	91.460	0.260	-0.450	1.090
2020/01/31 04:22:20.7	91.450	0.250	-0.410	1.080
2020/01/31 04:22:20.8	91.450	0.240	-0.370	1.070
2020/01/31 04:22:20.9	91.440	0.220	-0.320	1.050
2020/01/31 04:22:21.0	91.440	0.200	-0.270	1.040
2020/01/31 04:22:21.1	91.430	0.180	-0.220	1.030
2020/01/31 04:22:21.2	91.430	0.160	-0.170	1.020
2020/01/31 04:22:21.3	91.420	0.130	-0.110	1.010
2020/01/31 04:22:21.4	91.410	0.110	-0.050	1.000
2020/01/31 04:22:21.5	91.410	0.080	0.010	1.000
2020/01/31 04:22:21.6	91.400	0.050	0.060	1.000
2020/01/31 04:22:21.7	91.390	0.020	0.120	1.000
2020/01/31 04:22:21.8	91.390	-0.010	0.180	1.000
2020/01/31 04:22:21.9	91.380	-0.040	0.240	1.010
2020/01/31 04:22:22.0	91.370	-0.070	0.300	1.010
2020/01/31 04:22:22.1	91.380	-0.100	0.360	1.020
2020/01/31 04:22:22.2	91.370	-0.130	0.410	1.030
2020/01/31 04:22:22.3	91.360	-0.160	0.460	1.030
2020/01/31 04:22:22.4	91.360	-0.190	0.510	1.040
2020/01/31 04:22:22.5	91.350	-0.220	0.550	1.040
2020/01/31 04:22:22.6	91.340	-0.250	0.580	1.040
2020/01/31 04:22:22.7	91.340	-0.270	0.610	1.040
2020/01/31 04:22:22.8	91.340	-0.300	0.630	1.040
2020/01/31 04:22:22.9	91.330	-0.320	0.650	1.030
2020/01/31 04:22:23.0	91.340	-0.340	0.660	1.020
2020/01/31 04:22:23.1	91.330	-0.360	0.660	1.000
2020/01/31 04:22:23.2	91.330	-0.370	0.650	0.980
2020/01/31 04:22:23.3	91.340	-0.380	0.640	0.960
2020/01/31 04:22:23.4	91.350	-0.390	0.610	0.930
2020/01/31 04:22:23.5	91.360	-0.390	0.570	0.900
2020/01/31 04:22:23.6	91.370	-0.390	0.530	0.860
2020/01/31 04:22:23.7	91.380	-0.390	0.480	0.820
2020/01/31 04:22:23.8	91.400	-0.380	0.420	0.780
2020/01/31 04:22:23.9	91.410	-0.370	0.360	0.750
2020/01/31 04:22:24.0	91.430	-0.360	0.290	0.710
2020/01/31 04:22:24.1	91.440	-0.340	0.220	0.660
2020/01/31 04:22:24.2	91.450	-0.320	0.140	0.630
2020/01/31 04:22:24.3	91.470	-0.300	0.070	0.600
2020/01/31 04:22:24.4	91.480	-0.280	-0.010	0.570
2020/01/31 04:22:24.5	91.490	-0.260	-0.090	0.550
2020/01/31 04:22:24.6	91.510	-0.230	-0.160	0.530
2020/01/31 04:22:24.7	91.520	-0.210	-0.240	0.510
2020/01/31 04:22:24.8	91.530	-0.180	-0.310	0.500
2020/01/31 04:22:24.9	91.540	-0.160	-0.380	0.490
2020/01/31 04:22:25.0	91.540	-0.130	-0.440	0.490
2020/01/31 04:22:25.1	91.550	-0.100	-0.500	0.490
2020/01/31 04:22:25.2	91.550	-0.080	-0.560	0.490
2020/01/31 04:22:25.3	91.560	-0.050	-0.610	0.500
2020/01/31 04:22:25.4	91.560	-0.030	-0.660	0.510
2020/01/31 04:22:25.5	91.560	-0.000	-0.700	0.520
2020/01/31 04:22:25.6	91.570	0.020	-0.740	0.530
2020/01/31 04:22:25.7	91.570	0.040	-0.770	0.550
2020/01/31 04:22:25.8	91.570	0.060	-0.800	0.560
2020/01/31 04:22:25.9	91.560	0.080	-0.820	0.580
2020/01/31 04:22:26.0	91.560	0.100	-0.840	0.590
2020/01/31 04:22:26.1	91.560	0.120	-0.850	0.610
2020/01/31 04:22:26.2	91.550	0.130	-0.860	0.630
2020/01/31 04:22:26.3	91.540	0.150	-0.860	0.640
2020/01/31 04:22:26.4	91.530	0.160	-0.860	0.660
2020/01/31 04:22:26.5	91.520	0.170	-0.860	0.670
2020/01/31 04:22:26.6	91.510	0.180	-0.850	0.680
2020/01/31 04:22:26.7	91.500	0.190	-0.840	0.700
2020/01/31 04:22:26.8	91.490	0.200	-0.820	0.710
2020/01/31 04:22:26.9	91.480	0.200	-0.800	0.730
2020/01/31 04:22:27.0	91.470	0.210	-0.780	0.740
2020/01/31 04:22:27.1	91.450	0.210	-0.750	0.760
2020/01/31 04:22:27.2	91.440	0.220	-0.720	0.770
2020/01/31 04:22:27.3	91.430	0.220	-0.690	0.790
2020/01/31 04:22:27.4	91.420	0.220	-0.660	0.810
2020/01/31 04:22:27.5	91.410	0.210	-0.620	0.820
2020/01/31 04:22:27.6	91.410	0.210	-0.590	0.840
2020/01/31 04:22:27.7	91.400	0.210	-0.550	0.850
2020/01/31 04:22:27.8	91.400	0.200	-0.520	0.860
2020/01/31 04:22:27.9	91.400	0.200	-0.480	0.880
2020/01/31 04:22:28.0	91.390	0.190	-0.440	0.890
2020/01/31 04:22:28.1	91.390	0.190	-0.410	0.900
2020/01/31 04:22:28.2	91.390	0.180	-0.380	0.900
2020/01/31 04:22:28.3	91.400	0.170	-0.340	0.910
2020/01/31 04:22:28.4	91.400	0.160	-0.310	0.910
2020/01/31 04:22:28.5	91.410	0.160	-0.290	0.910
2020/01/31 04:22:28.6	91.420	0.150	-0.260	0.910
2020/01/31 04:22:28.7	91.430	0.140	-0.240	0.900
2020/01/31 04:22:28.8	91.440	0.130	-0.220	0.890
2020/01/31 04:22:28.9	91.450	0.130	-0.200	0.880
2020/01/31 04:22:29.0	91.460	0.120	-0.190	0.870
2020/01/31 04:22:29.1	91.470	0.120	-0.180	0.860
2020/01/31 04:22:29.2	91.480	0.120	-0.180	0.850
2020/01/31 04:22:29.3	91.490	0.110	-0.180	0.830
2020/01/31 04:22:29.4	91.490	0.110	-0.170	0.820
2020/01/31 04:22:29.5	91.500	0.110	-0.180	0.800
2020/01/31 04:22:29.6	91.510	0.110	-0.180	0.790
2020/01/31 04:22:29.7	91.510	0.110	-0.190	0.780
2020/01/31 04:22:29.8	91.510	0.120	-0.190	0.770
2020/01/31 04:22:29.9	91.510	0.120	-0.200	0.760
2020/01/31 04:22:30.0	91.510	0.120	-0.210	0.760
2020/01/31 04:22:30.1	91.510	0.130	-0.210	0.760
2020/01/31 04:22:30.2	91.500	0.130	-0.220	0.760
2020/01/31 04:22:30.3	91.500	0.140	-0.220	0.760
2020/01/31 04:22:30.4	91.490	0.140	-0.220	0.770
2020/01/31 04:22:30.5	91.470	0.140	-0.230	0.770
2020/01/31 04:22:30.6	91.460	0.150	-0.220	0.780
2020/01/31 04:22:30.7	91.450	0.150	-0.220	0.800
2020/01/31 04:22:30.8	91.430	0.150	-0.220	0.810
2020/01/31 04:22:30.9	91.420	0.150	-0.210	0.820
2020/01/31 04:22:31.0	91.400	0.140	-0.200	0.840
2020/01/31 04:22:31.1	91.400	0.140	-0.180	0.850
2020/01/31 04:22:31.2	91.380	0.130	-0.170	0.860
2020/01/31 04:22:31.3	91.370	0.120	-0.150	0.870
2020/01/31 04:22:31.4	91.360	0.110	-0.130	0.880
2020/01/31 04:22:31.5	91.350	0.100	-0.110	0.890
2020/01/31 04:22:31.6	91.350	0.080	-0.090	0.900
2020/01/31 04:22:31.7	91.340	0.060	-0.070	0.900
2020/01/31 04:22:31.8	91.340	0.040	-0.050	0.900
2020/01/31 04:22:31.9	91.340	0.010	-0.020	0.890
2020/01/31 04:22:32.0	91.350	-0.010	0.000	0.890
2020/01/31 04:22:32.1	91.360	-0.040	0.030	0.880
2020/01/31 04:22:32.2	91.370	-0.070	0.050	0.870
2020/01/31 04:22:32.3	91.380	-0.100	0.070	0.850
2020/01/31 04:22:32.4	91.390	-0.130	0.100	0.840
2020/01/31 04:22:32.5	91.410	-0.160	0.120	0.820
2020/01/31 04:22:32.6	91.430	-0.190	0.130	0.800
2020/01/31 04:22:32.7	91.450	-0.230	0.150	0.780
2020/01/31 04:22:32.8	91.470	-0.260	0.170	0.750
2020/01/31 04:22:32.9	91.500	-0.290	0.180	0.730
2020/01/31 04:22:33.0	91.520	-0.320	0.190	0.710
2020/01/31 04:22:33.1	91.550	-0.350	0.200	0.690
2020/01/31 04:22:33.2	91.580	-0.380	0.200	0.670
2020/01/31 04:22:33.3	91.610	-0.400	0.210	0.650
2020/01/31 04:22:33.4	91.630	-0.420	0.200	0.640
2020/01/31 04:22:33.5	91.660	-0.440	0.200	0.620
2020/01/31 04:22:33.6	91.690	-0.460	0.190	0.610
2020/01/31 04:22:33.7	91.710	-0.470	0.180	0.600
2020/01/31 04:22:33.8	91.740	-0.480	0.170	0.590
2020/01/31 04:22:33.9	91.760	-0.490	0.150	0.580
2020/01/31 04:22:34.0	91.780	-0.490	0.140	0.570
2020/01/31 04:22:34.1	91.810	-0.490	0.120	0.560
2020/01/31 04:22:34.2	91.830	-0.490	0.090	0.560
2020/01/31 04:22:34.3	91.850	-0.480	0.070	0.550
2020/01/31 04:22:34.4	91.860	-0.470	0.040	0.550
2020/01/31 04:22:34.5	91.880	-0.460	0.010	0.550
2020/01/31 04:22:34.6	91.890	-0.440	-0.030	0.550
2020/01/31 04:22:34.7	91.900	-0.420	-0.060	0.550
2020/01/31 04:22:34.8	91.910	-0.400	-0.100	0.550
2020/01/31 04:22:34.9	91.920	-0.370	-0.140	0.560
2020/01/31 04:22:35.0	91.920	-0.340	-0.180	0.560
2020/01/31 04:22:35.1	91.940	-0.310	-0.220	0.570
2020/01/31 04:22:35.2	91.930	-0.280	-0.260	0.580
2020/01/31 04:22:35.3	91.930	-0.250	-0.300	0.590
2020/01/31 04:22:35.4	91.920	-0.210	-0.350	0.610
2020/01/31 04:22:35.5	91.910	-0.180	-0.390	0.620
2020/01/31 04:22:35.6	91.900	-0.140	-0.430	0.640
2020/01/31 04:22:35.7	91.880	-0.100	-0.480	0.660
2020/01/31 04:22:35.8	91.870	-0.060	-0.520	0.680
2020/01/31 04:22:35.9	91.850	-0.020	-0.570	0.710
2020/01/31 04:22:36.0	91.830	0.020	-0.610	0.730
2020/01/31 04:22:36.1	91.810	0.060	-0.650	0.760
2020/01/31 04:22:36.2	91.790	0.100	-0.690	0.780
2020/01/31 04:22:36.3	91.770	0.130	-0.720	0.810
2020/01/31 04:22:36.4	91.750	0.170	-0.760	0.840
2020/01/31 04:22:36.5	91.730	0.200	-0.790	0.860
2020/01/31 04:22:36.6	91.720	0.240	-0.810	0.890
2020/01/31 04:22:36.7	91.700	0.270	-0.830	0.910
2020/01/31 04:22:36.8	91.680	0.300	-0.850	0.940
2020/01/31 04:22:36.9	91.670	0.330	-0.860	0.960
2020/01/31 04:22:37.0	91.660	0.350	-0.860	0.980
2020/01/31 04:22:37.1	91.650	0.370	-0.870	1.000
2020/01/31 04:22:37.2	91.640	0.390	-0.860	1.020
2020/01/31 04:22:37.3	91.630	0.410	-0.850	1.030
2020/01/31 04:22:37.4	91.630	0.420	-0.830	1.040
2020/01/31 04:22:37.5	91.630	0.430	-0.810	1.050
2020/01/31 04:22:37.6	91.630	0.440	-0.780	1.060
2020/01/31 04:22:37.7	91.640	0.440	-0.750	1.060
2020/01/31 04:22:37.8	91.640	0.440	-0.710	1.050
2020/01/31 04:22:37.9	91.650	0.440	-0.660	1.050
2020/01/31 04:22:38.0	91.660	0.440	-0.610	1.040
2020/01/31 04:22:38.1	91.670	0.430	-0.560	1.020
2020/01/31 04:22:38.2	91.680	0.420	-0.500	1.000
2020/01/31 04:22:38.3	91.700	0.400	-0.440	0.980
2020/01/31 04:22:38.4	91.710	0.390	-0.380	0.960
2020/01/31 04:22:38.5	91.730	0.370	-0.320	0.930
2020/01/31 04:22:38.6	91.750	0.350	-0.260	0.890
2020/01/31 04:22:38.7	91.770	0.330	-0.190	0.860
2020/01/31 04:22:38.8	91.790	0.310	-0.130	0.820
2020/01/31 04:22:38.9	91.810	0.280	-0.060	0.790
2020/01/31 04:22:39.0	91.820	0.250	-0.000	0.750
2020/01/31 04:22:39.1	91.840	0.230	0.060	0.710
2020/01/31 04:22:39.2	91.860	0.200	0.120	0.680
2020/01/31 04:22:39.3	91.870	0.170	0.180	0.640
2020/01/31 04:22:39.4	91.880	0.140	0.230	0.610
2020/01/31 04:22:39.5	91.890	0.120	0.280	0.590
2020/01/31 04:22:39.6	91.900	0.090	0.330	0.560
2020/01/31 04:22:39.7	91.900	0.060	0.380	0.540
2020/01/31 04:22:39.8	91.910	0.030	0.410	0.530
2020/01/31 04:22:39.9	91.910	0.010	0.450	0.510
2020/01/31 04:22:40.0	91.910	-0.020	0.480	0.510
2020/01/31 04:22:40.1	91.910	-0.040	0.500	0.500
2020/01/31 04:22:40.2	91.910	-0.070	0.520	0.500
2020/01/31 04:22:40.3	91.910	-0.090	0.530	0.500
2020/01/31 04:22:40.4	91.900	-0.110	0.540	0.510
2020/01/31 04:22:40.5	91.900	-0.130	0.540	0.520
2020/01/31 04:22:40.6	91.890	-0.150	0.540	0.530
2020/01/31 04:22:40.7	91.880	-0.170	0.530	0.550
2020/01/31 04:22:40.8	91.880	-0.190	0.510	0.570
2020/01/31 04:22:40.9	91.870	-0.200	0.480	0.590
2020/01/31 04:22:41.0	91.870	-0.210	0.450	0.610
2020/01/31 04:22:41.1	91.860	-0.220	0.420	0.640
2020/01/31 04:22:41.2	91.850	-0.230	0.380	0.670
2020/01/31 04:22:41.3	91.850	-0.240	0.330	0.700
2020/01/31 04:22:41.4	91.850	-0.250	0.270	0.720
2020/01/31 04:22:41.5	91.850	-0.250	0.210	0.750
2020/01/31 04:22:41.6	91.850	-0.250	0.150	0.770
2020/01/31 04:22:41.7	91.850	-0.260	0.080	0.790
2020/01/31 04:22:41.8	91.850	-0.250	0.010	0.810
2020/01/31 04:22:41.9	91.850	-0.250	-0.070	0.830
2020/01/31 04:22:42.0	91.850	-0.250	-0.140	0.840
2020/01/31 04:22:42.1	91.850	-0.240	-0.230	0.850
2020/01/31 04:22:42.2	91.860	-0.230	-0.310	0.860
2020/01/31 04:22:42.3	91.870	-0.220	-0.390	0.860
2020/01/31 04:22:42.4	91.880	-0.210	-0.470	0.860
2020/01/31 04:22:42.5	91.890	-0.200	-0.550	0.860
2020/01/31 04:22:42.6	91.910	-0.190	-0.630	0.850
2020/01/31 04:22:42.7	91.920	-0.170	-0.700	0.840
2020/01/31 04:22:42.8	91.940	-0.160	-0.770	0.830
2020/01/31 04:22:42.9	91.960	-0.140	-0.840	0.810
2020/01/31 04:22:43.0	91.980	-0.120	-0.900	0.790
2020/01/31 04:22:43.1	92.000	-0.100	-0.950	0.780
2020/01/31 04:22:43.2	92.020	-0.090	-0.990	0.760
2020/01/31 04:22:43.3	92.030	-0.070	-1.030	0.740
2020/01/31 04:22:43.4	92.050	-0.050	-1.060	0.730
2020/01/31 04:22:43.5	92.060	-0.030	-1.070	0.720
2020/01/31 04:22:43.6	92.070	-0.010	-1.080	0.720
2020/01/31 04:22:43.7	92.070	0.010	-1.080	0.720
2020/01/31 04:22:43.8	92.070	0.030	-1.070	0.720
2020/01/31 04:22:43.9	92.070	0.050	-1.050	0.730
2020/01/31 04:22:44.0	92.070	0.070	-1.020	0.740
2020/01/31 04:22:44.1	92.050	0.080	-0.980	0.750
2020/01/31 04:22:44.2	92.040	0.100	-0.930	0.770
2020/01/31 04:22:44.3	92.030	0.110	-0.880	0.790
2020/01/31 04:22:44.4	92.010	0.120	-0.820	0.820
2020/01/31 04:22:44.5	91.990	0.140	-0.750	0.850
2020/01/31 04:22:44.6	91.970	0.140	-0.680	0.880
2020/01/31 04:22:44.7	91.940	0.150	-0.600	0.900
2020/01/31 04:22:44.8	91.920	0.160	-0.530	0.930
2020/01/31 04:22:44.9	91.890	0.160	-0.450	0.960
2020/01/31 04:22:45.0	91.870	0.170	-0.370	0.980
2020/01/31 04:22:45.1	91.840	0.170	-0.290	1.000
2020/01/31 04:22:45.2	91.820	0.170	-0.210	1.020
2020/01/31 04:22:45.3	91.790	0.160	-0.140	1.030
2020/01/31 04:22:45.4	91.770	0.160	-0.070	1.040
2020/01/31 04:22:45.5	91.750	0.150	-0.010	1.040
2020/01/31 04:22:45.6	91.740	0.150	0.040	1.040
2020/01/31 04:22:45.7	91.720	0.140	0.090	1.030
2020/01/31 04:22:45.8	91.710	0.130	0.140	1.020
2020/01/31 04:22:45.9	91.700	0.130	0.170	1.000
2020/01/31 04:22:46.0	91.690	0.120	0.200	0.980
2020/01/31 04:22:46.1	91.680	0.110	0.220	0.950
2020/01/31 04:22:46.2	91.680	0.100	0.230	0.930
2020/01/31 04:22:46.3	91.680	0.090	0.240	0.900
2020/01/31 04:22:46.4	91.690	0.080	0.230	0.860
2020/01/31 04:22:46.5	91.700	0.080	0.220	0.830
2020/01/31 04:22:46.6	91.710	0.070	0.200	0.790
2020/01/31 04:22:46.7	91.720	0.070	0.170	0.750
2020/01/31 04:22:46.8	91.730	0.060	0.140	0.720
2020/01/31 04:22:46.9	91.740	0.060	0.110	0.680
2020/01/31 04:22:47.0	91.760	0.060	0.070	0.650
2020/01/31 04:22:47.1	91.780	0.050	0.020	0.620
2020/01/31 04:22:47.2	91.790	0.050	-0.020	0.590
2020/01/31 04:22:47.3	91.810	0.050	-0.070	0.560
2020/01/31 04:22:47.4	91.820	0.050	-0.120	0.540
2020/01/31 04:22:47.5	91.840	0.050	-0.160	0.520
2020/01/31 04:22:47.6	91.850	0.060	-0.210	0.510
2020/01/31 04:22:47.7	91.860	0.060	-0.250	0.490
2020/01/31 04:22:47.8	91.870	0.060	-0.290	0.480
2020/01/31 04:22:47.9	91.880	0.060	-0.320	0.480
2020/01/31 04:22:48.0	91.890	0.060	-0.350	0.470
2020/01/31 04:22:48.1	91.900	0.070	-0.380	0.470
2020/01/31 04:22:48.2	91.910	0.070	-0.400	0.470
2020/01/31 04:22:48.3	91.910	0.070	-0.410	0.460
2020/01/31 04:22:48.4	91.910	0.070	-0.420	0.460
2020/01/31 04:22:48.5	91.920	0.060	-0.430	0.460
2020/01/31 04:22:48.6	91.920	0.060	-0.430	0.450
2020/01/31 04:22:48.7	91.920	0.060	-0.430	0.450
2020/01/31 04:22:48.8	91.920	0.050	-0.410	0.450
2020/01/31 04:22:48.9	91.920	0.040	-0.400	0.440
2020/01/31 04:22:49.0	91.910	0.030	-0.380	0.440
2020/01/31 04:22:49.1	91.920	0.020	-0.350	0.430
2020/01/31 04:22:49.2	91.920	0.010	-0.320	0.430
2020/01/31 04:22:49.3	91.910	-0.010	-0.290	0.430
2020/01/31 04:22:49.4	91.910	-0.030	-0.260	0.430
2020/01/31 04:22:49.5	91.900	-0.040	-0.220	0.430
2020/01/31 04:22:49.6	91.900	-0.060	-0.180	0.430
2020/01/31 04:22:49.7	91.890	-0.080	-0.140	0.440
2020/01/31 04:22:49.8	91.880	-0.100	-0.100	0.450
2020/01/31 04:22:49.9	91.880	-0.120	-0.070	0.460
2020/01/31 04:22:50.0	91.870	-0.150	-0.030	0.470
2020/01/31 04:22:50.1	91.870	-0.170	0.010	0.490
2020/01/31 04:22:50.2	91.860	-0.190	0.040	0.510
2020/01/31 04:22:50.3	91.860	-0.210	0.070	0.540
2020/01/31 04:22:50.4	91.850	-0.230	0.100	0.560
2020/01/31 04:22:50.5	91.850	-0.250	0.120	0.590
2020/01/31 04:22:50.6	91.850	-0.270	0.140	0.620
2020/01/31 04:22:50.7	91.840	-0.290	0.150	0.650
2020/01/31 04:22:50.8	91.840	-0.300	0.160	0.690
2020/01/31 04:22:50.9	91.840	-0.310	0.160	0.720
2020/01/31 04:22:51.0	91.850	-0.320	0.150	0.750
2020/01/31 04:22:51.1	91.850	-0.330	0.140	0.780
2020/01/31 04:22:51.2	91.860	-0.330	0.120	0.810
2020/01/31 04:22:51.3	91.860	-0.340	0.100	0.840
2020/01/31 04:22:51.4	91.870	-0.330	0.070	0.870
2020/01/31 04:22:51.5	91.880	-0.330	0.040	0.890
2020/01/31 04:22:51.6	91.890	-0.320	-0.000	0.920
2020/01/31 04:22:51.7	91.900	-0.320	-0.050	0.930
2020/01/31 04:22:51.8	91.910	-0.300	-0.090	0.950
2020/01/31 04:22:51.9	91.920	-0.290	-0.140	0.960
2020/01/31 04:22:52.0	91.930	-0.270	-0.190	0.970
2020/01/31 04:22:52.1	91.940	-0.260	-0.240	0.990
2020/01/31 04:22:52.2	91.950	-0.240	-0.280	0.990
2020/01/31 04:22:52.3	91.960	-0.220	-0.330	0.990
2020/01/31 04:22:52.4	91.960	-0.200	-0.370	0.990
2020/01/31 04:22:52.5	91.970	-0.180	-0.410	0.990
2020/01/31 04:22:52.6	91.980	-0.150	-0.450	0.990
2020/01/31 04:22:52.7	91.980	-0.130	-0.480	0.980
2020/01/31 04:22:52.8	91.990	-0.110	-0.500	0.970
2020/01/31 04:22:52.9	91.990	-0.090	-0.520	0.960
2020/01/31 04:22:53.0	92.000	-0.070	-0.540	0.950
2020/01/31 04:22:53.1	91.990	-0.050	-0.550	0.940
2020/01/31 04:22:53.2	92.000	-0.030	-0.550	0.930
2020/01/31 04:22:53.3	92.000	-0.010	-0.550	0.910
2020/01/31 04:22:53.4	92.000	0.010	-0.540	0.900
2020/01/31 04:22:53.5	92.000	0.020	-0.530	0.890
2020/01/31 04:22:53.6	92.000	0.040	-0.510	0.880
2020/01/31 04:22:53.7	92.000	0.050	-0.500	0.870
2020/01/31 04:22:53.8	92.000	0.070	-0.470	0.860
2020/01/31 04:22:53.9	91.990	0.080	-0.450	0.860
2020/01/31 04:22:54.0	91.990	0.100	-0.430	0.850
2020/01/31 04:22:54.1	91.990	0.110	-0.400	0.840
2020/01/31 04:22:54.2	91.980	0.120	-0.380	0.840
2020/01/31 04:22:54.3	91.980	0.130	-0.350	0.830
2020/01/31 04:22:54.4	91.970	0.150	-0.330	0.830
2020/01/31 04:22:54.5	91.970	0.160	-0.310	0.820
2020/01/31 04:22:54.6	91.960	0.170	-0.290	0.820
2020/01/31 04:22:54.7	91.960	0.190	-0.280	0.810
2020/01/31 04:22:54.8	91.950	0.200	-0.270	0.810
2020/01/31 04:22:54.9	91.940	0.220	-0.260	0.800
2020/01/31 04:22:55.0	91.940	0.230	-0.250	0.800
2020/01/31 04:22:55.1	91.910	0.240	-0.240	0.790
2020/01/31 04:22:55.2	91.910	0.260	-0.240	0.790
2020/01/31 04:22:55.3	91.900	0.270	-0.230	0.780
2020/01/31 04:22:55.4	91.890	0.280	-0.230	0.780
2020/01/31 04:22:55.5	91.880	0.290	-0.230	0.770
2020/01/31 04:22:55.6	91.860	0.300	-0.230	0.760
2020/01/31 04:22:55.7	91.850	0.310	-0.230	0.760
2020/01/31 04:22:55.8	91.830	0.310	-0.220	0.750
2020/01/31 04:22:55.9	91.820	0.320	-0.220	0.750
2020/01/31 04:22:56.0	91.800	0.320	-0.220	0.750
2020/01/31 04:22:56.1	91.770	0.320	-0.210	0.740
2020/01/31 04:22:56.2	91.750	0.310	-0.210	0.730
2020/01/31 04:22:56.3	91.730	0.300	-0.200	0.730
2020/01/31 04:22:56.4	91.710	0.300	-0.190	0.720
2020/01/31 04:22:56.5	91.680	0.280	-0.180	0.720
2020/01/31 04:22:56.6	91.660	0.270	-0.170	0.710
2020/01/31 04:22:56.7	91.640	0.250	-0.150	0.700
2020/01/31 04:22:56.8	91.620	0.230	-0.140	0.700
2020/01/31 04:22:56.9	91.600	0.210	-0.130	0.690
2020/01/31 04:22:57.0	91.580	0.180	-0.110	0.680
2020/01/31 04:22:57.1	91.560	0.160	-0.100	0.670
2020/01/31 04:22:57.2	91.540	0.130	-0.080	0.650
2020/01/31 04:22:57.3	91.530	0.100	-0.070	0.640
2020/01/31 04:22:57.4	91.520	0.070	-0.060	0.620
2020/01/31 04:22:57.5	91.510	0.040	-0.040	0.610
2020/01/31 04:22:57.6	91.500	0.020	-0.030	0.590
2020/01/31 04:22:57.7	91.490	-0.010	-0.020	0.570
2020/01/31 04:22:57.8	91.490	-0.040	-0.010	0.550
2020/01/31 04:22:57.9	91.480	-0.070	-0.010	0.530
2020/01/31 04:22:58.0	91.490	-0.090	-0.000	0.510
2020/01/31 04:22:58.1	91.480	-0.120	-0.000	0.480
2020/01/31 04:22:58.2	91.490	-0.140	-0.000	0.470
2020/01/31 04:22:58.3	91.490	-0.160	-0.000	0.450
2020/01/31 04:22:58.4	91.500	-0.180	-0.010	0.430
2020/01/31 04:22:58.5	91.510	-0.190	-0.020	0.420
2020/01/31 04:22:58.6	91.520	-0.200	-0.030	0.420
2020/01/31 04:22:58.7	91.530	-0.210	-0.040	0.410
2020/01/31 04:22:58.8	91.530	-0.210	-0.060	0.420
2020/01/31 04:22:58.9	91.540	-0.210	-0.070	0.420
2020/01/31 04:22:59.0	91.550	-0.210	-0.090	0.430
2020/01/31 04:22:59.1	91.560	-0.210	-0.110	0.450
2020/01/31 04:22:59.2	91.570	-0.200	-0.140	0.460
2020/01/31 04:22:59.3	91.570	-0.200	-0.160	0.480
2020/01/31 04:22:59.4	91.580	-0.190	-0.180	0.500
2020/01/31 04:22:59.5	91.590	-0.170	-0.210	0.520
2020/01/31 04:22:59.6	91.590	-0.160	-0.230	0.550
2020/01/31 04:22:59.7	91.600	-0.150	-0.260	0.580
2020/01/31 04:22:59.8	91.610	-0.130	-0.290	0.600
2020/01/31 04:22:59.9	91.610	-0.110	-0.310	0.630
2020/01/31 04:23:00.0	91.620	-0.100	-0.340	0.660
2020/01/31 04:23:00.1	91.620	-0.080	-0.370	0.690
2020/01/31 04:23:00.2	91.630	-0.060	-0.390	0.720
2020/01/31 04:23:00.3	91.640	-0.050	-0.420	0.750
2020/01/31 04:23:00.4	91.640	-0.030	-0.440	0.780
2020/01/31 04:23:00.5	91.650	-0.010	-0.460	0.810
2020/01/31 04:23:00.6	91.660	0.000	-0.480	0.830
2020/01/31 04:23:00.7	91.660	0.020	-0.500	0.850
2020/01/31 04:23:00.8	91.670	0.030	-0.520	0.880
2020/01/31 04:23:00.9	91.670	0.040	-0.540	0.890
2020/01/31 04:23:01.0	91.680	0.050	-0.560	0.910
2020/01/31 04:23:01.1	91.690	0.070	-0.570	0.920
2020/01/31 04:23:01.2	91.690	0.080	-0.580	0.940
2020/01/31 04:23:01.3	91.690	0.080	-0.590	0.950
2020/01/31 04:23:01.4	91.700	0.090	-0.600	0.950
2020/01/31 04:23:01.5	91.700	0.100	-0.600	0.960
2020/01/31 04:23:01.6	91.700	0.100	-0.610	0.970
2020/01/31 04:23:01.7	91.700	0.110	-0.610	0.970
2020/01/31 04:23:01.8	91.700	0.110	-0.600	0.980
2020/01/31 04:23:01.9	91.700	0.120	-0.590	0.980
2020/01/31 04:23:02.0	91.690	0.120	-0.580	0.990
2020/01/31 04:23:02.1	91.690	0.120	-0.570	1.000
2020/01/31 04:23:02.2	91.690	0.120	-0.550	1.010
2020/01/31 04:23:02.3	91.680	0.120	-0.520	1.010
2020/01/31 04:23:02.4	91.680	0.120	-0.500	1.020
2020/01/31 04:23:02.5	91.670	0.120	-0.460	1.030
2020/01/31 04:23:02.6	91.660	0.120	-0.430	1.040
2020/01/31 04:23:02.7	91.660	0.120	-0.390	1.050
2020/01/31 04:23:02.8	91.650	0.110	-0.340	1.060
2020/01/31 04:23:02.9	91.650	0.110	-0.300	1.070
2020/01/31 04:23:03.0	91.640	0.100	-0.250	1.080
2020/01/31 04:23:03.1	91.640	0.100	-0.190	1.090
2020/01/31 04:23:03.2	91.640	0.090	-0.140	1.090
2020/01/31 04:23:03.3	91.640	0.080	-0.090	1.090
2020/01/31 04:23:03.4	91.630	0.070	-0.040	1.090
2020/01/31 04:23:03.5	91.630	0.060	0.010	1.090
2020/01/31 04:23:03.6	91.630	0.050	0.060	1.090
2020/01/31 04:23:03.7	91.630	0.040	0.100	1.080
2020/01/31 04:23:03.8	91.630	0.030	0.150	1.070
2020/01/31 04:23:03.9	91.630	0.020	0.190	1.060
2020/01/31 04:23:04.0	91.630	0.000	0.230	1.050
2020/01/31 04:23:04.1	91.630	-0.010	0.260	1.040
2020/01/31 04:23:04.2	91.630	-0.030	0.290	1.020
2020/01/31 04:23:04.3	91.630	-0.040	0.310	1.000
2020/01/31 04:23:04.4	91.630	-0.050	0.330	0.970
2020/01/31 04:23:04.5	91.630	-0.070	0.340	0.950
2020/01/31 04:23:04.6	91.630	-0.080	0.350	0.920
2020/01/31 04:23:04.7	91.630	-0.100	0.350	0.890
2020/01/31 04:23:04.8	91.620	-0.110	0.340	0.860
2020/01/31 04:23:04.9	91.620	-0.120	0.330	0.830
2020/01/31 04:23:05.0	91.620	-0.130	0.310	0.800
2020/01/31 04:23:05.1	91.620	-0.140	0.280	0.760
2020/01/31 04:23:05.2	91.610	-0.150	0.250	0.730
2020/01/31 04:23:05.3	91.610	-0.150	0.210	0.690
2020/01/31 04:23:05.4	91.610	-0.160	0.170	0.660
2020/01/31 04:23:05.5	91.600	-0.160	0.130	0.620
2020/01/31 04:23:05.6	91.600	-0.160	0.080	0.590
2020/01/31 04:23:05.7	91.600	-0.170	0.030	0.560
2020/01/31 04:23:05.8	91.600	-0.160	-0.020	0.520
2020/01/31 04:23:05.9	91.610	-0.160	-0.080	0.490
2020/01/31 04:23:06.0	91.610	-0.160	-0.130	0.460
2020/01/31 04:23:06.1	91.620	-0.150	-0.190	0.430
2020/01/31 04:23:06.2	91.630	-0.150	-0.240	0.410
2020/01/31 04:23:06.3	91.640	-0.140	-0.290	0.390
2020/01/31 04:23:06.4	91.650	-0.130	-0.340	0.370
2020/01/31 04:23:06.5	91.660	-0.120	-0.390	0.350
2020/01/31 04:23:06.6	91.670	-0.110	-0.430	0.330
2020/01/31 04:23:06.7	91.680	-0.100	-0.470	0.320
2020/01/31 04:23:06.8	91.700	-0.090	-0.510	0.310
2020/01/31 04:23:06.9	91.720	-0.070	-0.540	0.310
2020/01/31 04:23:07.0	91.730	-0.060	-0.570	0.300
2020/01/31 04:23:07.1	91.760	-0.050	-0.590	0.310
2020/01/31 04:23:07.2	91.780	-0.040	-0.620	0.310
2020/01/31 04:23:07.3	91.800	-0.030	-0.630	0.310
2020/01/31 04:23:07.4	91.820	-0.010	-0.650	0.320
2020/01/31 04:23:07.5	91.840	-0.000	-0.660	0.330
2020/01/31 04:23:07.6	91.860	0.010	-0.670	0.340
2020/01/31 04:23:07.7	91.880	0.020	-0.670	0.350
2020/01/31 04:23:07.8	91.890	0.030	-0.670	0.370
2020/01/31 04:23:07.9	91.910	0.030	-0.670	0.380
2020/01/31 04:23:08.0	91.920	0.040	-0.660	0.400
2020/01/31 04:23:08.1	91.930	0.050	-0.650	0.430
2020/01/31 04:23:08.2	91.940	0.050	-0.640	0.450
2020/01/31 04:23:08.3	91.950	0.060	-0.620	0.470
2020/01/31 04:23:08.4	91.960	0.060	-0.600	0.490
2020/01/31 04:23:08.5	91.970	0.060	-0.580	0.520
2020/01/31 04:23:08.6	91.970	0.060	-0.560	0.540
2020/01/31 04:23:08.7	91.970	0.060	-0.530	0.570
2020/01/31 04:23:08.8	91.970	0.050	-0.500	0.600
2020/01/31 04:23:08.9	91.970	0.050	-0.470	0.630
2020/01/31 04:23:09.0	91.970	0.040	-0.440	0.660
2020/01/31 04:23:09.1	91.960	0.030	-0.400	0.680
2020/01/31 04:23:09.2	91.960	0.030	-0.370	0.710
2020/01/31 04:23:09.3	91.950	0.010	-0.330	0.740
2020/01/31 04:23:09.4	91.940	0.000	-0.300	0.770
2020/01/31 04:23:09.5	91.920	-0.010	-0.260	0.800
2020/01/31 04:23:09.6	91.910	-0.020	-0.220	0.830
2020/01/31 04:23:09.7	91.890	-0.040	-0.190	0.860
2020/01/31 04:23:09.8	91.870	-0.050	-0.150	0.890
2020/01/31 04:23:09.9	91.850	-0.070	-0.110	0.920
2020/01/31 04:23:10.0	91.830	-0.080	-0.080	0.950
2020/01/31 04:23:10.1	91.800	-0.100	-0.050	0.980
2020/01/31 04:23:10.2	91.780	-0.120	-0.020	1.000
2020/01/31 04:23:10.3	91.750	-0.130	0.010	1.020
2020/01/31 04:23:10.4	91.730	-0.140	0.040	1.040
2020/01/31 04:23:10.5	91.710	-0.160	0.060	1.060
2020/01/31 04:23:10.6	91.690	-0.170	0.080	1.080
2020/01/31 04:23:10.7	91.670	-0.180	0.100	1.090
2020/01/31 04:23:10.8	91.640	-0.190	0.120	1.100
2020/01/31 04:23:10.9	91.620	-0.200	0.130	1.110
2020/01/31 04:23:11.0	91.610	-0.200	0.140	1.120
2020/01/31 04:23:11.1	91.590	-0.210	0.140	1.120
2020/01/31 04:23:11.2	91.570	-0.210	0.140	1.120
2020/01/31 04:23:11.3	91.560	-0.210	0.140	1.110
2020/01/31 04:23:11.4	91.550	-0.210	0.140	1.100
2020/01/31 04:23:11.5	91.540	-0.200	0.130	1.090
2020/01/31 04:23:11.6	91.540	-0.200	0.120	1.070
2020/01/31 04:23:11.7	91.530	-0.190	0.110	1.050
2020/01/31 04:23:11.8	91.530	-0.180	0.090	1.030
2020/01/31 04:23:11.9	91.540	-0.170	0.070	1.000
2020/01/31 04:23:12.0	91.540	-0.150	0.050	0.970
2020/01/31 04:23:12.1	91.570	-0.140	0.020	0.940
2020/01/31 04:23:12.2	91.580	-0.120	-0.000	0.910
2020/01/31 04:23:12.3	91.590	-0.100	-0.030	0.870
2020/01/31 04:23:12.4	91.610	-0.080	-0.060	0.830
2020/01/31 04:23:12.5	91.630	-0.060	-0.100	0.790
2020/01/31 04:23:12.6	91.650	-0.030	-0.130	0.750
2020/01/31 04:23:12.7	91.680	-0.000	-0.170	0.710
2020/01/31 04:23:12.8	91.700	0.030	-0.210	0.670
2020/01/31 04:23:12.9	91.730	0.050	-0.250	0.640
2020/01/31 04:23:13.0	91.760	0.080	-0.290	0.600
2020/01/31 04:23:13.1	91.780	0.120	-0.330	0.570
2020/01/31 04:23:13.2	91.810	0.150	-0.370	0.540
2020/01/31 04:23:13.3	91.830	0.180	-0.410	0.510
2020/01/31 04:23:13.4	91.860	0.210	-0.450	0.480
2020/01/31 04:23:13.5	91.880	0.240	-0.480	0.450
2020/01/31 04:23:13.6	91.900	0.270	-0.510	0.430
2020/01/31 04:23:13.7	91.920	0.300	-0.550	0.410
2020/01/31 04:23:13.8	91.930	0.330	-0.570	0.400
2020/01/31 04:23:13.9	91.950	0.350	-0.600	0.380
2020/01/31 04:23:14.0	91.960	0.380	-0.620	0.370
2020/01/31 04:23:14.1	91.970	0.400	-0.630	0.360
2020/01/31 04:23:14.2	91.970	0.420	-0.640	0.350
2020/01/31 04:23:14.3	91.980	0.440	-0.650	0.350
2020/01/31 04:23:14.4	91.980	0.460	-0.650	0.350
2020/01/31 04:23:14.5	91.980	0.470	-0.650	0.350
2020/01/31 04:23:14.6	91.980	0.480	-0.650	0.350
2020/01/31 04:23:14.7	91.970	0.490	-0.640	0.360
2020/01/31 04:23:14.8	91.970	0.490	-0.620	0.370
2020/01/31 04:23:14.9	91.960	0.490	-0.610	0.380
2020/01/31 04:23:15.0	91.950	0.490	-0.580	0.390
2020/01/31 04:23:15.1	91.930	0.480	-0.560	0.420
2020/01/31 04:23:15.2	91.920	0.470	-0.530	0.440
2020/01/31 04:23:15.3	91.900	0.460	-0.500	0.460
2020/01/31 04:23:15.4	91.890	0.450	-0.470	0.490
2020/01/31 04:23:15.5	91.870	0.430	-0.430	0.510
2020/01/31 04:23:15.6	91.860	0.410	-0.390	0.540
2020/01/31 04:23:15.7	91.840	0.380	-0.350	0.570
2020/01/31 04:23:15.8	91.820	0.350	-0.310	0.600
2020/01/31 04:23:15.9	91.810	0.320	-0.270	0.630
2020/01/31 04:23:16.0	91.790	0.290	-0.230	0.660
2020/01/31 04:23:16.1	91.770	0.260	-0.190	0.690
2020/01/31 04:23:16.2	91.760	0.220	-0.150	0.720
2020/01/31 04:23:16.3	91.740	0.180	-0.110	0.750
2020/01/31 04:23:16.4	91.730	0.140	-0.070	0.770
2020/01/31 04:23:16.5	91.720	0.100	-0.030	0.800
2020/01/31 04:23:16.6	91.710	0.060	0.010	0.830
2020/01/31 04:23:16.7	91.700	0.020	0.040	0.850
2020/01/31 04:23:16.8	91.690	-0.020	0.070	0.870
2020/01/31 04:23:16.9	91.680	-0.070	0.090	0.900
2020/01/31 04:23:17.0	91.680	-0.110	0.120	0.920
2020/01/31 04:23:17.1	91.680	-0.150	0.140	0.930
2020/01/31 04:23:17.2	91.670	-0.180	0.150	0.950
2020/01/31 04:23:17.3	91.670	-0.220	0.170	0.960
2020/01/31 04:23:17.4	91.670	-0.260	0.170	0.980
2020/01/31 04:23:17.5	91.670	-0.290	0.180	0.980
2020/01/31 04:23:17.6	91.670	-0.320	0.180	0.990
2020/01/31 04:23:17.7	91.680	-0.350	0.170	1.000
2020/01/31 04:23:17.8	91.680	-0.380	0.170	1.010
2020/01/31 04:23:17.9	91.690	-0.400	0.160	1.010
2020/01/31 04:23:18.0	91.700	-0.420	0.150	1.010
2020/01/31 04:23:18.1	91.710	-0.430	0.140	1.020
2020/01/31 04:23:18.2	91.720	-0.450	0.120	1.020
2020/01/31 04:23:18.3	91.720	-0.460	0.110	1.020
2020/01/31 04:23:18.4	91.730	-0.470	0.090	1.020
2020/01/31 04:23:18.5	91.740	-0.470	0.070	1.020
2020/01/31 04:23:18.6	91.750	-0.480	0.050	1.020
2020/01/31 04:23:18.7	91.760	-0.480	0.040	1.020
2020/01/31 04:23:18.8	91.770	-0.470	0.020	1.010
2020/01/31 04:23:18.9	91.770	-0.470	-0.000	1.010
2020/01/31 04:23:19.0	91.780	-0.460	-0.020	1.010
2020/01/31 04:23:19.1	91.790	-0.450	-0.040	1.000
2020/01/31 04:23:19.2	91.790	-0.440	-0.070	0.990
2020/01/31 04:23:19.3	91.800	-0.430	-0.090	0.990
2020/01/31 04:23:19.4	91.800	-0.410	-0.110	0.980
2020/01/31 04:23:19.5	91.810	-0.400	-0.130	0.970
2020/01/31 04:23:19.6	91.810	-0.380	-0.150	0.960
2020/01/31 04:23:19.7	91.820	-0.360	-0.170	0.950
2020/01/31 04:23:19.8	91.820	-0.350	-0.190	0.940
2020/01/31 04:23:19.9	91.820	-0.330	-0.210	0.930
2020/01/31 04:23:20.0	91.820	-0.310	-0.240	0.920
2020/01/31 04:23:20.1	91.810	-0.290	-0.250	0.910
2020/01/31 04:23:20.2	91.810	-0.270	-0.270	0.900
2020/01/31 04:23:20.3	91.810	-0.250	-0.290	0.890
2020/01/31 04:23:20.4	91.820	-0.240	-0.310	0.880
2020/01/31 04:23:20.5	91.820	-0.220	-0.330	0.870
2020/01/31 04:23:20.6	91.820	-0.200	-0.350	0.860
2020/01/31 04:23:20.7	91.820	-0.180	-0.370	0.850
2020/01/31 04:23:20.8	91.820	-0.160	-0.380	0.840
2020/01/31 04:23:20.9	91.820	-0.150	-0.400	0.830
2020/01/31 04:23:21.0	91.820	-0.130	-0.420	0.820
2020/01/31 04:23:21.1	91.830	-0.110	-0.440	0.810
2020/01/31 04:23:21.2	91.830	-0.090	-0.450	0.800
2020/01/31 04:23:21.3	91.830	-0.070	-0.470	0.790
2020/01/31 04:23:21.4	91.830	-0.060	-0.490	0.780
2020/01/31 04:23:21.5	91.840	-0.040	-0.500	0.770
2020/01/31 04:23:21.6	91.840	-0.020	-0.520	0.760
2020/01/31 04:23:21.7	91.840	0.000	-0.530	0.750
2020/01/31 04:23:21.8	91.840	0.020	-0.550	0.740
2020/01/31 04:23:21.9	91.840	0.040	-0.560	0.730
2020/01/31 04:23:22.0	91.840	0.060	-0.580	0.720
2020/01/31 04:23:22.1	91.850	0.080	-0.590	0.720
2020/01/31 04:23:22.2	91.840	0.110	-0.610	0.710
2020/01/31 04:23:22.3	91.840	0.130	-0.620	0.700
2020/01/31 04:23:22.4	91.840	0.150	-0.630	0.690
2020/01/31 04:23:22.5	91.830	0.180	-0.640	0.680
2020/01/31 04:23:22.6	91.830	0.200	-0.650	0.680
2020/01/31 04:23:22.7	91.820	0.220	-0.650	0.670
2020/01/31 04:23:22.8	91.820	0.240	-0.660	0.650
2020/01/31 04:23:22.9	91.810	0.270	-0.660	0.640
2020/01/31 04:23:23.0	91.800	0.290	-0.660	0.630
2020/01/31 04:23:23.1	91.800	0.310	-0.660	0.620
2020/01/31 04:23:23.2	91.790	0.330	-0.660	0.610
2020/01/31 04:23:23.3	91.780	0.340	-0.650	0.590
2020/01/31 04:23:23.4	91.770	0.360	-0.640	0.580
2020/01/31 04:23:23.5	91.760	0.370	-0.630	0.570
2020/01/31 04:23:23.6	91.750	0.390	-0.610	0.550
2020/01/31 04:23:23.7	91.740	0.390	-0.590	0.540
2020/01/31 04:23:23.8	91.730	0.400	-0.570	0.530
2020/01/31 04:23:23.9	91.720	0.410	-0.540	0.510
2020/01/31 04:23:24.0	91.710	0.410	-0.510	0.500
2020/01/31 04:23:24.1	91.700	0.410	-0.480	0.490
2020/01/31 04:23:24.2	91.690	0.400	-0.450	0.480
2020/01/31 04:23:24.3	91.680	0.400	-0.410	0.470
2020/01/31 04:23:24.4	91.660	0.390	-0.360	0.470
2020/01/31 04:23:24.5	91.650	0.370	-0.320	0.460
2020/01/31 04:23:24.6	91.640	0.360	-0.270	0.460
2020/01/31 04:23:24.7	91.630	0.340	-0.220	0.460
2020/01/31 04:23:24.8	91.620	0.320	-0.170	0.460
2020/01/31 04:23:24.9	91.610	0.300	-0.120	0.460
2020/01/31 04:23:25.0	91.600	0.270	-0.060	0.470
2020/01/31 04:23:25.1	91.590	0.250	-0.010	0.470
2020/01/31 04:23:25.2	91.580	0.220	0.040	0.480
2020/01/31 04:23:25.3	91.580	0.190	0.090	0.490
2020/01/31 04:23:25.4	91.570	0.160	0.140	0.500
2020/01/31 04:23:25.5	91.570	0.130	0.190	0.510
2020/01/31 04:23:25.6	91.570	0.100	0.230	0.520
2020/01/31 04:23:25.7	91.580	0.070	0.270	0.520
2020/01/31 04:23:25.8	91.580	0.040	0.300	0.530
2020/01/31 04:23:25.9	91.590	0.020	0.330	0.540
2020/01/31 04:23:26.0	91.600	-0.010	0.360	0.550
2020/01/31 04:23:26.1	91.620	-0.040	0.380	0.560
2020/01/31 04:23:26.2	91.630	-0.060	0.400	0.560
2020/01/31 04:23:26.3	91.650	-0.080	0.400	0.570
2020/01/31 04:23:26.4	91.660	-0.100	0.410	0.570
2020/01/31 04:23:26.5	91.680	-0.120	0.400	0.580
2020/01/31 04:23:26.6	91.690	-0.140	0.390	0.580
2020/01/31 04:23:26.7	91.700	-0.160	0.380	0.590
2020/01/31 04:23:26.8	91.720	-0.170	0.360	0.600
2020/01/31 04:23:26.9	91.730	-0.180	0.340	0.610
2020/01/31 04:23:27.0	91.740	-0.190	0.310	0.620
2020/01/31 04:23:27.1	91.730	-0.200	0.270	0.630
2020/01/31 04:23:27.2	91.740	-0.210	0.240	0.640
2020/01/31 04:23:27.3	91.740	-0.210	0.200	0.660
2020/01/31 04:23:27.4	91.750	-0.220	0.150	0.670
2020/01/31 04:23:27.5	91.750	-0.220	0.110	0.690
2020/01/31 04:23:27.6	91.740	-0.220	0.060	0.700
2020/01/31 04:23:27.7	91.740	-0.220	0.010	0.720
2020/01/31 04:23:27.8	91.740	-0.220	-0.040	0.750
2020/01/31 04:23:27.9	91.730	-0.220	-0.090	0.770
2020/01/31 04:23:28.0	91.720	-0.220	-0.140	0.790
2020/01/31 04:23:28.1	91.700	-0.220	-0.180	0.820
2020/01/31 04:23:28.2	91.690	-0.210	-0.230	0.850
2020/01/31 04:23:28.3	91.680	-0.210	-0.270	0.870
2020/01/31 04:23:28.4	91.670	-0.210	-0.320	0.900
2020/01/31 04:23:28.5	91.660	-0.200	-0.360	0.930
2020/01/31 04:23:28.6	91.650	-0.190	-0.400	0.970
2020/01/31 04:23:28.7	91.630	-0.190	-0.440	1.000
2020/01/31 04:23:28.8	91.620	-0.180	-0.470	1.030
2020/01/31 04:23:28.9	91.600	-0.170	-0.510	1.060
2020/01/31 04:23:29.0	91.590	-0.170	-0.530	1.090
2020/01/31 04:23:29.1	91.580	-0.160	-0.560	1.120
2020/01/31 04:23:29.2	91.570	-0.150	-0.590	1.140
2020/01/31 04:23:29.3	91.560	-0.140	-0.610	1.170
2020/01/31 04:23:29.4	91.540	-0.130	-0.630	1.190
2020/01/31 04:23:29.5	91.540	-0.120	-0.650	1.210
2020/01/31 04:23:29.6	91.530	-0.110	-0.660	1.230
2020/01/31 04:23:29.7	91.520	-0.100	-0.670	1.240
2020/01/31 04:23:29.8	91.520	-0.080	-0.680	1.250
2020/01/31 04:23:29.9	91.520	-0.070	-0.690	1.260
2020/01/31 04:23:30.0	91.520	-0.060	-0.690	1.270
2020/01/31 04:23:30.1	91.530	-0.040	-0.690	1.270
2020/01/31 04:23:30.2	91.530	-0.030	-0.690	1.270
2020/01/31 04:23:30.3	91.540	-0.010	-0.680	1.270
2020/01/31 04:23:30.4	91.550	0.010	-0.670	1.260
2020/01/31 04:23:30.5	91.560	0.020	-0.660	1.250
2020/01/31 04:23:30.6	91.570	0.040	-0.650	1.240
2020/01/31 04:23:30.7	91.590	0.060	-0.640	1.230
2020/01/31 04:23:30.8	91.600	0.070	-0.620	1.220
2020/01/31 04:23:30.9	91.620	0.090	-0.600	1.200
2020/01/31 04:23:31.0	91.640	0.110	-0.570	1.180
2020/01/31 04:23:31.1	91.640	0.130	-0.550	1.160
2020/01/31 04:23:31.2	91.670	0.140	-0.520	1.140
2020/01/31 04:23:31.3	91.690	0.160	-0.490	1.120
2020/01/31 04:23:31.4	91.710	0.170	-0.450	1.090
2020/01/31 04:23:31.5	91.730	0.190	-0.420	1.070
2020/01/31 04:23:31.6	91.750	0.200	-0.380	1.050
2020/01/31 04:23:31.7	91.770	0.210	-0.340	1.030
2020/01/31 04:23:31.8	91.790	0.220	-0.300	1.010
2020/01/31 04:23:31.9	91.810	0.220	-0.250	1.000
2020/01/31 04:23:32.0	91.820	0.230	-0.210	0.980
2020/01/31 04:23:32.1	91.850	0.230	-0.160	0.970
2020/01/31 04:23:32.2	91.860	0.230	-0.120	0.950
2020/01/31 04:23:32.3	91.870	0.230	-0.070	0.940
2020/01/31 04:23:32.4	91.880	0.220	-0.030	0.930
2020/01/31 04:23:32.5	91.890	0.210	0.020	0.920
2020/01/31 04:23:32.6	91.890	0.200	0.060	0.910
2020/01/31 04:23:32.7	91.900	0.190	0.100	0.910
2020/01/31 04:23:32.8	91.900	0.170	0.140	0.900
2020/01/31 04:23:32.9	91.900	0.150	0.180	0.890
2020/01/31 04:23:33.0	91.900	0.130	0.220	0.880
2020/01/31 04:23:33.1	91.890	0.110	0.250	0.870
2020/01/31 04:23:33.2	91.890	0.080	0.280	0.860
2020/01/31 04:23:33.3	91.880	0.060	0.310	0.850
2020/01/31 04:23:33.4	91.880	0.030	0.340	0.840
2020/01/31 04:23:33.5	91.870	-0.000	0.360	0.830
2020/01/31 04:23:33.6	91.870	-0.040	0.380	0.810
2020/01/31 04:23:33.7	91.860	-0.070	0.390	0.800
2020/01/31 04:23:33.8	91.850	-0.100	0.400	0.780
2020/01/31 04:23:33.9	91.840	-0.140	0.410	0.760
2020/01/31 04:23:34.0	91.830	-0.170	0.410	0.750
2020/01/31 04:23:34.1	91.820	-0.200	0.410	0.730
2020/01/31 04:23:34.2	91.810	-0.230	0.400	0.710
2020/01/31 04:23:34.3	91.790	-0.260	0.390	0.700
2020/01/31 04:23:34.4	91.780	-0.290	0.370	0.680
2020/01/31 04:23:34.5	91.760	-0.310	0.340	0.670
2020/01/31 04:23:34.6	91.740	-0.340	0.320	0.660
2020/01/31 04:23:34.7	91.720	-0.360	0.280	0.650
2020/01/31 04:23:34.8	91.690	-0.370	0.240	0.640
2020/01/31 04:23:34.9	91.670	-0.380	0.200	0.640
2020/01/31 04:23:35.0	91.640	-0.390	0.140	0.640
2020/01/31 04:23:35.1	91.620	-0.390	0.090	0.640
2020/01/31 04:23:35.2	91.600	-0.390	0.030	0.640
2020/01/31 04:23:35.3	91.570	-0.380	-0.040	0.640
2020/01/31 04:23:35.4	91.550	-0.370	-0.110	0.640
2020/01/31 04:23:35.5	91.530	-0.350	-0.180	0.640
2020/01/31 04:23:35.6	91.510	-0.320	-0.260	0.630
2020/01/31 04:23:35.7	91.500	-0.300	-0.340	0.630
2020/01/31 04:23:35.8	91.490	-0.260	-0.430	0.620
2020/01/31 04:23:35.9	91.480	-0.220	-0.510	0.620
2020/01/31 04:23:36.0	91.480	-0.180	-0.600	0.600
2020/01/31 04:23:36.1	91.480	-0.130	-0.690	0.590
2020/01/31 04:23:36.2	91.490	-0.080	-0.770	0.570
2020/01/31 04:23:36.3	91.490	-0.030	-0.860	0.560
2020/01/31 04:23:36.4	91.500	0.030	-0.940	0.540
2020/01/31 04:23:36.5	91.510	0.090	-1.020	0.520
2020/01/31 04:23:36.6	91.520	0.150	-1.100	0.500
2020/01/31 04:23:36.7	91.530	0.210	-1.170	0.490
2020/01/31 04:23:36.8	91.550	0.270	-1.230	0.470
2020/01/31 04:23:36.9	91.560	0.330	-1.280	0.460
2020/01/31 04:23:37.0	91.570	0.390	-1.330	0.450
2020/01/31 04:23:37.1	91.570	0.440	-1.360	0.440
2020/01/31 04:23:37.2	91.580	0.500	-1.390	0.430
2020/01/31 04:23:37.3	91.590	0.550	-1.400	0.420
2020/01/31 04:23:37.4	91.590	0.590	-1.410	0.420
2020/01/31 04:23:37.5	91.600	0.630	-1.400	0.420
2020/01/31 04:23:37.6	91.600	0.660	-1.380	0.420
2020/01/31 04:23:37.7	91.610	0.690	-1.350	0.420
2020/01/31 04:23:37.8	91.610	0.710	-1.310	0.420
2020/01/31 04:23:37.9	91.610	0.730	-1.260	0.430
2020/01/31 04:23:38.0	91.610	0.740	-1.200	0.440
2020/01/31 04:23:38.1	91.620	0.740	-1.130	0.460
2020/01/31 04:23:38.2	91.610	0.740	-1.050	0.480
2020/01/31 04:23:38.3	91.610	0.730	-0.960	0.500
2020/01/31 04:23:38.4	91.610	0.710	-0.860	0.520
2020/01/31 04:23:38.5	91.610	0.690	-0.760	0.540
2020/01/31 04:23:38.6	91.600	0.660	-0.650	0.570
2020/01/31 04:23:38.7	91.600	0.630	-0.540	0.600
2020/01/31 04:23:38.8	91.600	0.590	-0.420	0.640
2020/01/31 04:23:38.9	91.600	0.540	-0.310	0.670
2020/01/31 04:23:39.0	91.600	0.490	-0.190	0.710
2020/01/31 04:23:39.1	91.600	0.440	-0.070	0.740
2020/01/31 04:23:39.2	91.600	0.390	0.050	0.780
2020/01/31 04:23:39.3	91.610	0.330	0.160	0.810
2020/01/31 04:23:39.4	91.610	0.270	0.270	0.850
2020/01/31 04:23:39.5	91.620	0.210	0.380	0.880
2020/01/31 04:23:39.6	91.630	0.150	0.480	0.910
2020/01/31 04:23:39.7	91.640	0.080	0.570	0.940
2020/01/31 04:23:39.8	91.650	0.020	0.650	0.970
2020/01/31 04:23:39.9	91.670	-0.040	0.730	1.000
2020/01/31 04:23:40.0	91.680	-0.100	0.800	1.020
2020/01/31 04:23:40.1	91.690	-0.150	0.860	1.040
2020/01/31 04:23:40.2	91.700	-0.210	0.900	1.070
2020/01/31 04:23:40.3	91.720	-0.260	0.940	1.090
2020/01/31 04:23:40.4	91.730	-0.310	0.970	1.110
2020/01/31 04:23:40.5	91.740	-0.360	0.980	1.120
2020/01/31 04:23:40.6	91.750	-0.400	0.990	1.140
2020/01/31 04:23:40.7	91.750	-0.440	0.990	1.160
2020/01/31 04:23:40.8	91.760	-0.480	0.980	1.170
2020/01/31 04:23:40.9	91.760	-0.510	0.960	1.190
2020/01/31 04:23:41.0	91.760	-0.540	0.930	1.200
2020/01/31 04:23:41.1	91.760	-0.560	0.890	1.220
2020/01/31 04:23:41.2	91.760	-0.590	0.840	1.230
2020/01/31 04:23:41.3	91.750	-0.600	0.790	1.240
2020/01/31 04:23:41.4	91.740	-0.620	0.730	1.250
2020/01/31 04:23:41.5	91.730	-0.630	0.660	1.260
2020/01/31 04:23:41.6	91.720	-0.630	0.590	1.270
2020/01/31 04:23:41.7	91.710	-0.630	0.510	1.270
2020/01/31 04:23:41.8	91.700	-0.630	0.430	1.280
2020/01/31 04:23:41.9	91.690	-0.630	0.340	1.280
2020/01/31 04:23:42.0	91.670	-0.620	0.250	1.280
2020/01/31 04:23:42.1	91.660	-0.600	0.150	1.280
2020/01/31 04:23:42.2	91.650	-0.590	0.060	1.280
2020/01/31 04:23:42.3	91.650	-0.570	-0.040	1.270
2020/01/31 04:23:42.4	91.640	-0.550	-0.140	1.260
2020/01/31 04:23:42.5	91.640	-0.530	-0.240	1.240
2020/01/31 04:23:42.6	91.640	-0.500	-0.340	1.230
2020/01/31 04:23:42.7	91.640	-0.480	-0.430	1.210
2020/01/31 04:23:42.8	91.650	-0.450	-0.520	1.180
2020/01/31 04:23:42.9	91.660	-0.420	-0.610	1.160
2020/01/31 04:23:43.0	91.670	-0.390	-0.700	1.130
2020/01/31 04:23:43.1	91.670	-0.360	-0.780	1.100
2020/01/31 04:23:43.2	91.680	-0.330	-0.850	1.070
2020/01/31 04:23:43.3	91.700	-0.300	-0.920	1.040
2020/01/31 04:23:43.4	91.720	-0.260	-0.980	1.010
2020/01/31 04:23:43.5	91.750	-0.230	-1.030	0.980
2020/01/31 04:23:43.6	91.770	-0.200	-1.080	0.950
2020/01/31 04:23:43.7	91.800	-0.170	-1.110	0.930
2020/01/31 04:23:43.8	91.820	-0.140	-1.140	0.900
2020/01/31 04:23:43.9	91.850	-0.120	-1.150	0.880
2020/01/31 04:23:44.0	91.870	-0.090	-1.160	0.850
2020/01/31 04:23:44.1	91.900	-0.060	-1.160	0.840
2020/01/31 04:23:44.2	91.930	-0.040	-1.150	0.820
2020/01/31 04:23:44.3	91.950	-0.020	-1.130	0.800
2020/01/31 04:23:44.4	91.980	0.000	-1.090	0.790
2020/01/31 04:23:44.5	92.000	0.020	-1.050	0.780
2020/01/31 04:23:44.6	92.010	0.040	-1.010	0.770
2020/01/31 04:23:44.7	92.030	0.050	-0.950	0.770
2020/01/31 04:23:44.8	92.050	0.070	-0.890	0.760
2020/01/31 04:23:44.9	92.060	0.080	-0.820	0.760
2020/01/31 04:23:45.0	92.070	0.090	-0.740	0.770
2020/01/31 04:23:45.1	92.060	0.090	-0.660	0.770
2020/01/31 04:23:45.2	92.070	0.100	-0.570	0.780
2020/01/31 04:23:45.3	92.060	0.100	-0.490	0.800
2020/01/31 04:23:45.4	92.060	0.110	-0.400	0.810
2020/01/31 04:23:45.5	92.050	0.110	-0.310	0.820
2020/01/31 04:23:45.6	92.040	0.110	-0.220	0.840
2020/01/31 04:23:45.7	92.030	0.110	-0.140	0.860
2020/01/31 04:23:45.8	92.010	0.100	-0.060	0.870
2020/01/31 04:23:45.9	91.990	0.100	0.020	0.890
2020/01/31 04:23:46.0	91.970	0.100	0.100	0.910
2020/01/31 04:23:46.1	91.950	0.090	0.170	0.920
2020/01/31 04:23:46.2	91.930	0.090	0.230	0.930
2020/01/31 04:23:46.3	91.900	0.080	0.290	0.940
2020/01/31 04:23:46.4	91.880	0.080	0.330	0.950
2020/01/31 04:23:46.5	91.860	0.070	0.370	0.950
2020/01/31 04:23:46.6	91.840	0.070	0.410	0.960
2020/01/31 04:23:46.7	91.820	0.070	0.430	0.950
2020/01/31 04:23:46.8	91.800	0.070	0.440	0.940
2020/01/31 04:23:46.9	91.790	0.070	0.440	0.930
2020/01/31 04:23:47.0	91.770	0.070	0.440	0.920
2020/01/31 04:23:47.1	91.760	0.080	0.430	0.910
2020/01/31 04:23:47.2	91.740	0.080	0.410	0.890
2020/01/31 04:23:47.3	91.730	0.090	0.380	0.860
2020/01/31 04:23:47.4	91.730	0.100	0.340	0.830
2020/01/31 04:23:47.5	91.720	0.110	0.300	0.800
2020/01/31 04:23:47.6	91.720	0.120	0.250	0.770
2020/01/31 04:23:47.7	91.720	0.130	0.190	0.730
2020/01/31 04:23:47.8	91.710	0.150	0.130	0.700
2020/01/31 04:23:47.9	91.720	0.160	0.060	0.660
2020/01/31 04:23:48.0	91.720	0.180	-0.010	0.620
2020/01/31 04:23:48.1	91.730	0.200	-0.080	0.570
2020/01/31 04:23:48.2	91.730	0.220	-0.160	0.530
2020/01/31 04:23:48.3	91.740	0.240	-0.230	0.480
2020/01/31 04:23:48.4	91.750	0.260	-0.300	0.430
2020/01/31 04:23:48.5	91.770	0.290	-0.380	0.380
2020/01/31 04:23:48.6	91.780	0.310	-0.450	0.340
2020/01/31 04:23:48.7	91.800	0.330	-0.510	0.290
2020/01/31 04:23:48.8	91.820	0.350	-0.570	0.240
2020/01/31 04:23:48.9	91.840	0.370	-0.630	0.200
2020/01/31 04:23:49.0	91.860	0.390	-0.680	0.150
2020/01/31 04:23:49.1	91.890	0.410	-0.720	0.110
2020/01/31 04:23:49.2	91.920	0.430	-0.760	0.070
2020/01/31 04:23:49.3	91.940	0.440	-0.790	0.040
2020/01/31 04:23:49.4	91.970	0.450	-0.810	0.000
2020/01/31 04:23:49.5	92.000	0.460	-0.830	-0.030
2020/01/31 04:23:49.6	92.020	0.470	-0.830	-0.050
2020/01/31 04:23:49.7	92.050	0.470	-0.830	-0.070
2020/01/31 04:23:49.8	92.070	0.470	-0.810	-0.090
2020/01/31 04:23:49.9	92.100	0.460	-0.790	-0.100
2020/01/31 04:23:50.0	92.120	0.460	-0.760	-0.100
2020/01/31 04:23:50.1	92.140	0.450	-0.730	-0.100
2020/01/31 04:23:50.2	92.160	0.430	-0.680	-0.100
2020/01/31 04:23:50.3	92.180	0.420	-0.630	-0.090
2020/01/31 04:23:50.4	92.190	0.400	-0.570	-0.080
2020/01/31 04:23:50.5	92.210	0.370	-0.510	-0.060
2020/01/31 04:23:50.6	92.210	0.350	-0.440	-0.040
2020/01/31 04:23:50.7	92.220	0.320	-0.360	-0.010
2020/01/31 04:23:50.8	92.230	0.280	-0.290	0.020
2020/01/31 04:23:50.9	92.230	0.250	-0.210	0.050
2020/01/31 04:23:51.0	92.230	0.210	-0.130	0.090
2020/01/31 04:23:51.1	92.220	0.180	-0.060	0.130
2020/01/31 04:23:51.2	92.210	0.140	0.020	0.170
2020/01/31 04:23:51.3	92.210	0.100	0.090	0.220
2020/01/31 04:23:51.4	92.200	0.060	0.150	0.270
2020/01/31 04:23:51.5	92.200	0.020	0.210	0.320
2020/01/31 04:23:51.6	92.190	-0.020	0.260	0.370
2020/01/31 04:23:51.7	92.180	-0.060	0.310	0.430
2020/01/31 04:23:51.8	92.170	-0.090	0.340	0.480
2020/01/31 04:23:51.9	92.160	-0.120	0.370	0.540
2020/01/31 04:23:52.0	92.150	-0.150	0.380	0.600
2020/01/31 04:23:52.1	92.160	-0.180	0.390	0.660
2020/01/31 04:23:52.2	92.150	-0.200	0.380	0.720
2020/01/31 04:23:52.3	92.140	-0.220	0.360	0.780
2020/01/31 04:23:52.4	92.130	-0.230	0.330	0.830
2020/01/31 04:23:52.5	92.130	-0.240	0.290	0.880
2020/01/31 04:23:52.6	92.120	-0.250	0.240	0.930
2020/01/31 04:23:52.7	92.120	-0.250	0.180	0.980
2020/01/31 04:23:52.8	92.110	-0.250	0.110	1.020
2020/01/31 04:23:52.9	92.110	-0.240	0.030	1.060
2020/01/31 04:23:53.0	92.110	-0.230	-0.040	1.100
2020/01/31 04:23:53.1	92.100	-0.220	-0.130	1.130
2020/01/31 04:23:53.2	92.110	-0.210	-0.210	1.150
2020/01/31 04:23:53.3	92.120	-0.190	-0.300	1.170
2020/01/31 04:23:53.4	92.120	-0.170	-0.380	1.190
2020/01/31 04:23:53.5	92.130	-0.150	-0.470	1.200
2020/01/31 04:23:53.6	92.150	-0.130	-0.550	1.200
2020/01/31 04:23:53.7	92.160	-0.110	-0.620	1.210
2020/01/31 04:23:53.8	92.170	-0.090	-0.690	1.200
2020/01/31 04:23:53.9	92.190	-0.070	-0.750	1.200
2020/01/31 04:23:54.0	92.210	-0.050	-0.800	1.200
2020/01/31 04:23:54.1	92.220	-0.040	-0.840	1.190
2020/01/31 04:23:54.2	92.240	-0.020	-0.870	1.180
2020/01/31 04:23:54.3	92.260	-0.010	-0.890	1.180
2020/01/31 04:23:54.4	92.270	-0.000	-0.900	1.180
2020/01/31 04:23:54.5	92.290	0.000	-0.900	1.180
2020/01/31 04:23:54.6	92.300	0.000	-0.880	1.180
2020/01/31 04:23:54.7	92.310	0.000	-0.860	1.180
2020/01/31 04:23:54.8	92.330	-0.000	-0.830	1.180
2020/01/31 04:23:54.9	92.340	-0.010	-0.780	1.190
2020/01/31 04:23:55.0	92.350	-0.020	-0.730	1.190
2020/01/31 04:23:55.1	92.370	-0.030	-0.660	1.210
2020/01/31 04:23:55.2	92.380	-0.050	-0.600	1.210
2020/01/31 04:23:55.3	92.390	-0.070	-0.520	1.220
2020/01/31 04:23:55.4	92.400	-0.090	-0.440	1.230
2020/01/31 04:23:55.5	92.410	-0.120	-0.360	1.230
2020/01/31 04:23:55.6	92.420	-0.140	-0.280	1.230
2020/01/31 04:23:55.7	92.430	-0.170	-0.190	1.230
2020/01/31 04:23:55.8	92.430	-0.200	-0.100	1.230
2020/01/31 04:23:55.9	92.440	-0.230	-0.020	1.230
2020/01/31 04:23:56.0	92.450	-0.260	0.060	1.220
2020/01/31 04:23:56.1	92.460	-0.290	0.140	1.210
2020/01/31 04:23:56.2	92.460	-0.320	0.210	1.190
2020/01/31 04:23:56.3	92.470	-0.350	0.280	1.170
2020/01/31 04:23:56.4	92.470	-0.370	0.340	1.150
2020/01/31 04:23:56.5	92.470	-0.390	0.390	1.120
2020/01/31 04:23:56.6	92.480	-0.410	0.430	1.090
2020/01/31 04:23:56.7	92.480	-0.420	0.460	1.060
2020/01/31 04:23:56.8	92.480	-0.430	0.480	1.020
2020/01/31 04:23:56.9	92.480	-0.440	0.490	0.990
2020/01/31 04:23:57.0	92.480	-0.440	0.480	0.950
2020/01/31 04:23:57.1	92.480	-0.440	0.480	0.910
2020/01/31 04:23:57.2	92.480	-0.430	0.450	0.870
2020/01/31 04:23:57.3	92.470	-0.410	0.410	0.830
2020/01/31 04:23:57.4	92.470	-0.400	0.370	0.790
2020/01/31 04:23:57.5	92.460	-0.370	0.310	0.750
2020/01/31 04:23:57.6	92.450	-0.350	0.250	0.710
2020/01/31 04:23:57.7	92.450	-0.310	0.180	0.670
2020/01/31 04:23:57.8	92.440	-0.280	0.110	0.640
2020/01/31 04:23:57.9	92.430	-0.240	0.030	0.600
2020/01/31 04:23:58.0	92.420	-0.200	-0.050	0.570
2020/01/31 04:23:58.1	92.400	-0.160	-0.140	0.540
2020/01/31 04:23:58.2	92.390	-0.120	-0.220	0.520
2020/01/31 04:23:58.3	92.380	-0.070	-0.310	0.490
2020/01/31 04:23:58.4	92.370	-0.030	-0.390	0.460
2020/01/31 04:23:58.5	92.360	0.010	-0.470	0.440
2020/01/31 04:23:58.6	92.350	0.060	-0.540	0.420
2020/01/31 04:23:58.7	92.340	0.100	-0.610	0.390
2020/01/31 04:23:58.8	92.330	0.140	-0.670	0.370
2020/01/31 04:23:58.9	92.330	0.180	-0.730	0.350
2020/01/31 04:23:59.0	92.320	0.210	-0.780	0.330
2020/01/31 04:23:59.1	92.330	0.240	-0.820	0.310
2020/01/31 04:23:59.2	92.320	0.270	-0.860	0.290
2020/01/31 04:23:59.3	92.320	0.300	-0.880	0.270
2020/01/31 04:23:59.4	92.320	0.320	-0.900	0.260
2020/01/31 04:23:59.5	92.330	0.340	-0.910	0.240
2020/01/31 04:23:59.6	92.330	0.360	-0.900	0.220
2020/01/31 04:23:59.7	92.340	0.370	-0.890	0.210
2020/01/31 04:23:59.8	92.350	0.370	-0.870	0.190
2020/01/31 04:23:59.9	92.360	0.380	-0.840	0.180
2020/01/31 04:24:00.0	92.370	0.380	-0.800	0.160
2020/01/31 04:24:00.1	92.400	0.370	-0.760	0.150
2020/01/31 04:24:00.2	92.410	0.370	-0.700	0.140
2020/01/31 04:24:00.3	92.430	0.360	-0.640	0.130
2020/01/31 04:24:00.4	92.450	0.340	-0.580	0.120
2020/01/31 04:24:00.5	92.460	0.320	-0.510	0.120
2020/01/31 04:24:00.6	92.480	0.310	-0.440	0.120
2020/01/31 04:24:00.7	92.500	0.280	-0.360	0.120
2020/01/31 04:24:00.8	92.510	0.260	-0.280	0.120
2020/01/31 04:24:00.9	92.530	0.230	-0.200	0.130
2020/01/31 04:24:01.0	92.540	0.210	-0.120	0.150
2020/01/31 04:24:01.1	92.560	0.180	-0.040	0.170
2020/01/31 04:24:01.2	92.570	0.140	0.030	0.190
2020/01/31 04:24:01.3	92.580	0.110	0.110	0.210
2020/01/31 04:24:01.4	92.590	0.080	0.180	0.240
2020/01/31 04:24:01.5	92.600	0.050	0.250	0.270
2020/01/31 04:24:01.6	92.600	0.010	0.320	0.300
2020/01/31 04:24:01.7	92.610	-0.020	0.370	0.340
2020/01/31 04:24:01.8	92.610	-0.050	0.430	0.370
2020/01/31 04:24:01.9	92.610	-0.080	0.470	0.410
2020/01/31 04:24:02.0	92.610	-0.120	0.510	0.450
2020/01/31 04:24:02.1	92.590	-0.150	0.540	0.490
2020/01/31 04:24:02.2	92.590	-0.170	0.560	0.530
2020/01/31 04:24:02.3	92.590	-0.200	0.570	0.570
2020/01/31 04:24:02.4	92.590	-0.230	0.580	0.610
2020/01/31 04:24:02.5	92.590	-0.250	0.570	0.640
2020/01/31 04:24:02.6	92.600	-0.270	0.550	0.680
2020/01/31 04:24:02.7	92.600	-0.290	0.530	0.710
2020/01/31 04:24:02.8	92.600	-0.300	0.500	0.750
2020/01/31 04:24:02.9	92.600	-0.310	0.460	0.780
2020/01/31 04:24:03.0	92.600	-0.320	0.410	0.810
2020/01/31 04:24:03.1	92.610	-0.330	0.360	0.840
2020/01/31 04:24:03.2	92.610	-0.330	0.300	0.870
2020/01/31 04:24:03.3	92.620	-0.330	0.230	0.900
2020/01/31 04:24:03.4	92.620	-0.320	0.160	0.920
2020/01/31 04:24:03.5	92.630	-0.310	0.080	0.940
2020/01/31 04:24:03.6	92.640	-0.300	0.010	0.960
2020/01/31 04:24:03.7	92.640	-0.290	-0.070	0.980
2020/01/31 04:24:03.8	92.650	-0.270	-0.150	1.000
2020/01/31 04:24:03.9	92.660	-0.250	-0.230	1.020
2020/01/31 04:24:04.0	92.660	-0.230	-0.310	1.030
2020/01/31 04:24:04.1	92.640	-0.210	-0.390	1.060
2020/01/31 04:24:04.2	92.640	-0.180	-0.460	1.070
2020/01/31 04:24:04.3	92.650	-0.160	-0.520	1.090
2020/01/31 04:24:04.4	92.640	-0.130	-0.580	1.100
2020/01/31 04:24:04.5	92.640	-0.100	-0.640	1.120
2020/01/31 04:24:04.6	92.640	-0.070	-0.680	1.130
2020/01/31 04:24:04.7	92.630	-0.040	-0.720	1.150
2020/01/31 04:24:04.8	92.620	-0.010	-0.750	1.160
2020/01/31 04:24:04.9	92.610	0.010	-0.770	1.170
2020/01/31 04:24:05.0	92.600	0.040	-0.790	1.180
2020/01/31 04:24:05.1	92.590	0.070	-0.790	1.190
2020/01/31 04:24:05.2	92.570	0.090	-0.790	1.190
2020/01/31 04:24:05.3	92.560	0.110	-0.780	1.190
2020/01/31 04:24:05.4	92.540	0.130	-0.770	1.190
2020/01/31 04:24:05.5	92.530	0.140	-0.740	1.190
2020/01/31 04:24:05.6	92.520	0.160	-0.720	1.190
2020/01/31 04:24:05.7	92.500	0.170	-0.680	1.180
2020/01/31 04:24:05.8	92.490	0.180	-0.650	1.170
2020/01/31 04:24:05.9	92.480	0.180	-0.610	1.150
2020/01/31 04:24:06.0	92.470	0.190	-0.570	1.140
2020/01/31 04:24:06.1	92.460	0.190	-0.520	1.120
2020/01/31 04:24:06.2	92.460	0.190	-0.480	1.110
2020/01/31 04:24:06.3	92.450	0.190	-0.440	1.080
2020/01/31 04:24:06.4	92.440	0.180	-0.400	1.060
2020/01/31 04:24:06.5	92.440	0.180	-0.360	1.040
2020/01/31 04:24:06.6	92.440	0.170	-0.330	1.010
2020/01/31 04:24:06.7	92.440	0.170	-0.290	0.990
2020/01/31 04:24:06.8	92.430	0.160	-0.270	0.960
2020/01/31 04:24:06.9	92.430	0.160	-0.250	0.940
2020/01/31 04:24:07.0	92.430	0.160	-0.230	0.910
2020/01/31 04:24:07.1	92.440	0.150	-0.220	0.880
2020/01/31 04:24:07.2	92.440	0.150	-0.210	0.860
2020/01/31 04:24:07.3	92.440	0.150	-0.210	0.830
2020/01/31 04:24:07.4	92.440	0.160	-0.220	0.810
2020/01/31 04:24:07.5	92.440	0.160	-0.230	0.780
2020/01/31 04:24:07.6	92.440	0.170	-0.250	0.760
2020/01/31 04:24:07.7	92.440	0.180	-0.270	0.740
2020/01/31 04:24:07.8	92.440	0.190	-0.300	0.710
2020/01/31 04:24:07.9	92.450	0.210	-0.330	0.690
2020/01/31 04:24:08.0	92.450	0.230	-0.360	0.670
2020/01/31 04:24:08.1	92.460	0.250	-0.400	0.650
2020/01/31 04:24:08.2	92.460	0.270	-0.440	0.630
2020/01/31 04:24:08.3	92.470	0.300	-0.480	0.610
2020/01/31 04:24:08.4	92.480	0.320	-0.520	0.580
2020/01/31 04:24:08.5	92.490	0.350	-0.550	0.560
2020/01/31 04:24:08.6	92.500	0.380	-0.590	0.540
2020/01/31 04:24:08.7	92.510	0.410	-0.630	0.520
2020/01/31 04:24:08.8	92.520	0.440	-0.660	0.500
2020/01/31 04:24:08.9	92.530	0.470	-0.680	0.480
2020/01/31 04:24:09.0	92.540	0.490	-0.710	0.460
2020/01/31 04:24:09.1	92.560	0.520	-0.720	0.440
2020/01/31 04:24:09.2	92.570	0.540	-0.730	0.430
2020/01/31 04:24:09.3	92.580	0.560	-0.730	0.420
2020/01/31 04:24:09.4	92.590	0.580	-0.730	0.410
2020/01/31 04:24:09.5	92.600	0.590	-0.710	0.400
2020/01/31 04:24:09.6	92.610	0.590	-0.690	0.400
2020/01/31 04:24:09.7	92.610	0.590	-0.660	0.400
2020/01/31 04:24:09.8	92.620	0.590	-0.620	0.410
2020/01/31 04:24:09.9	92.620	0.580	-0.580	0.410
2020/01/31 04:24:10.0	92.620	0.560	-0.530	0.420
2020/01/31 04:24:10.1	92.610	0.540	-0.470	0.430
2020/01/31 04:24:10.2	92.600	0.510	-0.400	0.450
2020/01/31 04:24:10.3	92.600	0.480	-0.330	0.460
2020/01/31 04:24:10.4	92.590	0.440	-0.250	0.480
2020/01/31 04:24:10.5	92.580	0.400	-0.160	0.500
2020/01/31 04:24:10.6	92.570	0.350	-0.080	0.520
2020/01/31 04:24:10.7	92.560	0.290	0.020	0.540
2020/01/31 04:24:10.8	92.550	0.230	0.110	0.560
2020/01/31 04:24:10.9	92.530	0.160	0.200	0.580
2020/01/31 04:24:11.0	92.520	0.100	0.300	0.610
2020/01/31 04:24:11.1	92.510	0.030	0.390	0.630
2020/01/31 04:24:11.2	92.500	-0.050	0.490	0.660
2020/01/31 04:24:11.3	92.480	-0.120	0.580	0.680
2020/01/31 04:24:11.4	92.470	-0.200	0.660	0.710
2020/01/31 04:24:11.5	92.460	-0.270	0.750	0.730
2020/01/31 04:24:11.6	92.440	-0.350	0.820	0.750
2020/01/31 04:24:11.7	92.430	-0.420	0.890	0.770
2020/01/31 04:24:11.8	92.420	-0.490	0.960	0.790
2020/01/31 04:24:11.9	92.410	-0.560	1.010	0.810
2020/01/31 04:24:12.0	92.400	-0.630	1.060	0.830
2020/01/31 04:24:12.1	92.400	-0.690	1.100	0.840
2020/01/31 04:24:12.2	92.400	-0.740	1.130	0.850
2020/01/31 04:24:12.3	92.390	-0.790	1.140	0.860
2020/01/31 04:24:12.4	92.390	-0.840	1.140	0.870
2020/01/31 04:24:12.5	92.390	-0.880	1.130	0.870
2020/01/31 04:24:12.6	92.390	-0.910	1.110	0.870
2020/01/31 04:24:12.7	92.390	-0.930	1.080	0.870
2020/01/31 04:24:12.8	92.390	-0.940	1.030	0.860
2020/01/31 04:24:12.9	92.390	-0.950	0.970	0.860
2020/01/31 04:24:13.0	92.400	-0.950	0.890	0.850
2020/01/31 04:24:13.1	92.400	-0.930	0.810	0.840
2020/01/31 04:24:13.2	92.410	-0.910	0.710	0.830
2020/01/31 04:24:13.3	92.420	-0.890	0.600	0.820
2020/01/31 04:24:13.4	92.430	-0.850	0.480	0.800
2020/01/31 04:24:13.5	92.440	-0.810	0.350	0.790
2020/01/31 04:24:13.6	92.450	-0.750	0.210	0.770
2020/01/31 04:24:13.7	92.460	-0.690	0.070	0.760
2020/01/31 04:24:13.8	92.480	-0.630	-0.080	0.740
2020/01/31 04:24:13.9	92.500	-0.560	-0.230	0.720
2020/01/31 04:24:14.0	92.520	-0.480	-0.390	0.700
2020/01/31 04:24:14.1	92.540	-0.400	-0.550	0.670
2020/01/31 04:24:14.2	92.560	-0.320	-0.710	0.650
2020/01/31 04:24:14.3	92.590	-0.230	-0.860	0.620
2020/01/31 04:24:14.4	92.620	-0.140	-1.010	0.600
2020/01/31 04:24:14.5	92.640	-0.050	-1.150	0.570
2020/01/31 04:24:14.6	92.670	0.040	-1.290	0.540
2020/01/31 04:24:14.7	92.700	0.120	-1.410	0.520
2020/01/31 04:24:14.8	92.730	0.210	-1.530	0.500
2020/01/31 04:24:14.9	92.760	0.290	-1.630	0.480
2020/01/31 04:24:15.0	92.780	0.370	-1.720	0.470
2020/01/31 04:24:15.1	92.810	0.440	-1.790	0.460
2020/01/31 04:24:15.2	92.830	0.500	-1.850	0.450
2020/01/31 04:24:15.3	92.860	0.560	-1.890	0.440
2020/01/31 04:24:15.4	92.880	0.620	-1.920	0.440
2020/01/31 04:24:15.5	92.890	0.660	-1.920	0.440
2020/01/31 04:24:15.6	92.910	0.700	-1.910	0.440
2020/01/31 04:24:15.7	92.920	0.720	-1.880	0.450
2020/01/31 04:24:15.8	92.930	0.740	-1.840	0.450
2020/01/31 04:24:15.9	92.930	0.750	-1.780	0.460
2020/01/31 04:24:16.0	92.940	0.750	-1.700	0.470
2020/01/31 04:24:16.1	92.960	0.750	-1.600	0.490
2020/01/31 04:24:16.2	92.960	0.730	-1.500	0.500
2020/01/31 04:24:16.3	92.950	0.700	-1.380	0.520
2020/01/31 04:24:16.4	92.950	0.670	-1.240	0.530
2020/01/31 04:24:16.5	92.940	0.630	-1.100	0.540
2020/01/31 04:24:16.6	92.930	0.580	-0.950	0.550
2020/01/31 04:24:16.7	92.920	0.520	-0.790	0.560
2020/01/31 04:24:16.8	92.900	0.460	-0.620	0.580
2020/01/31 04:24:16.9	92.890	0.390	-0.450	0.590
2020/01/31 04:24:17.0	92.870	0.320	-0.270	0.600
2020/01/31 04:24:17.1	92.860	0.240	-0.100	0.600
2020/01/31 04:24:17.2	92.840	0.160	0.080	0.610
2020/01/31 04:24:17.3	92.820	0.080	0.250	0.620
2020/01/31 04:24:17.4	92.790	-0.000	0.410	0.620
2020/01/31 04:24:17.5	92.770	-0.090	0.570	0.620
2020/01/31 04:24:17.6	92.750	-0.170	0.720	0.630
2020/01/31 04:24:17.7	92.720	-0.250	0.870	0.630
2020/01/31 04:24:17.8	92.700	-0.330	1.000	0.630
2020/01/31 04:24:17.9	92.670	-0.410	1.110	0.630
2020/01/31 04:24:18.0	92.650	-0.480	1.220	0.630
2020/01/31 04:24:18.1	92.610	-0.550	1.310	0.640
2020/01/31 04:24:18.2	92.580	-0.620	1.390	0.640
2020/01/31 04:24:18.3	92.560	-0.670	1.440	0.640
2020/01/31 04:24:18.4	92.540	-0.720	1.480	0.640
2020/01/31 04:24:18.5	92.520	-0.770	1.500	0.640
2020/01/31 04:24:18.6	92.500	-0.800	1.500	0.640
2020/01/31 04:24:18.7	92.480	-0.830	1.490	0.630
2020/01/31 04:24:18.8	92.460	-0.850	1.450	0.630
2020/01/31 04:24:18.9	92.440	-0.870	1.400	0.630
2020/01/31 04:24:19.0	92.420	-0.870	1.340	0.620
2020/01/31 04:24:19.1	92.380	-0.870	1.260	0.610
2020/01/31 04:24:19.2	92.370	-0.860	1.160	0.600
2020/01/31 04:24:19.3	92.350	-0.840	1.050	0.590
2020/01/31 04:24:19.4	92.340	-0.810	0.930	0.570
2020/01/31 04:24:19.5	92.330	-0.780	0.800	0.550
2020/01/31 04:24:19.6	92.320	-0.740	0.660	0.530
2020/01/31 04:24:19.7	92.310	-0.690	0.510	0.500
2020/01/31 04:24:19.8	92.300	-0.640	0.350	0.470
2020/01/31 04:24:19.9	92.300	-0.580	0.190	0.430
2020/01/31 04:24:20.0	92.300	-0.520	0.030	0.400
2020/01/31 04:24:20.1	92.300	-0.450	-0.140	0.360
2020/01/31 04:24:20.2	92.300	-0.380	-0.310	0.320
2020/01/31 04:24:20.3	92.300	-0.310	-0.480	0.280
2020/01/31 04:24:20.4	92.300	-0.230	-0.650	0.250
2020/01/31 04:24:20.5	92.310	-0.150	-0.810	0.210
2020/01/31 04:24:20.6	92.310	-0.070	-0.970	0.180
2020/01/31 04:24:20.7	92.320	0.020	-1.120	0.160
2020/01/31 04:24:20.8	92.320	0.100	-1.260	0.140
2020/01/31 04:24:20.9	92.330	0.190	-1.390	0.120
2020/01/31 04:24:21.0	92.340	0.270	-1.520	0.110
2020/01/31 04:24:21.1	92.360	0.350	-1.630	0.110
2020/01/31 04:24:21.2	92.360	0.430	-1.730	0.110
2020/01/31 04:24:21.3	92.370	0.500	-1.810	0.110
2020/01/31 04:24:21.4	92.380	0.570	-1.880	0.120
2020/01/31 04:24:21.5	92.380	0.640	-1.930	0.130
2020/01/31 04:24:21.6	92.390	0.700	-1.970	0.150
2020/01/31 04:24:21.7	92.390	0.750	-1.990	0.170
2020/01/31 04:24:21.8	92.400	0.790	-1.990	0.190
2020/01/31 04:24:21.9	92.400	0.830	-1.970	0.220
2020/01/31 04:24:22.0	92.400	0.870	-1.940	0.250
2020/01/31 04:24:22.1	92.400	0.890	-1.890	0.290
2020/01/31 04:24:22.2	92.400	0.910	-1.830	0.320
2020/01/31 04:24:22.3	92.400	0.910	-1.750	0.350
2020/01/31 04:24:22.4	92.400	0.910	-1.660	0.380
2020/01/31 04:24:22.5	92.400	0.900	-1.550	0.410
2020/01/31 04:24:22.6	92.390	0.890	-1.430	0.440
2020/01/31 04:24:22.7	92.390	0.870	-1.300	0.470
2020/01/31 04:24:22.8	92.390	0.830	-1.160	0.500
2020/01/31 04:24:22.9	92.390	0.800	-1.020	0.530
2020/01/31 04:24:23.0	92.390	0.750	-0.860	0.550
2020/01/31 04:24:23.1	92.380	0.700	-0.700	0.580
2020/01/31 04:24:23.2	92.380	0.650	-0.530	0.600
2020/01/31 04:24:23.3	92.380	0.580	-0.370	0.630
2020/01/31 04:24:23.4	92.380	0.520	-0.200	0.650
2020/01/31 04:24:23.5	92.380	0.450	-0.030	0.670
2020/01/31 04:24:23.6	92.380	0.380	0.130	0.690
2020/01/31 04:24:23.7	92.380	0.310	0.290	0.710
2020/01/31 04:24:23.8	92.390	0.230	0.450	0.730
2020/01/31 04:24:23.9	92.390	0.160	0.600	0.740
2020/01/31 04:24:24.0	92.400	0.080	0.740	0.760
2020/01/31 04:24:24.1	92.400	0.010	0.880	0.770
2020/01/31 04:24:24.2	92.410	-0.070	1.000	0.780
2020/01/31 04:24:24.3	92.420	-0.140	1.110	0.780
2020/01/31 04:24:24.4	92.430	-0.200	1.220	0.780
2020/01/31 04:24:24.5	92.440	-0.270	1.300	0.780
2020/01/31 04:24:24.6	92.450	-0.330	1.380	0.780
2020/01/31 04:24:24.7	92.470	-0.380	1.440	0.770
2020/01/31 04:24:24.8	92.490	-0.430	1.490	0.760
2020/01/31 04:24:24.9	92.500	-0.480	1.520	0.740
2020/01/31 04:24:25.0	92.520	-0.520	1.540	0.730
2020/01/31 04:24:25.1	92.520	-0.550	1.540	0.710
2020/01/31 04:24:25.2	92.540	-0.570	1.530	0.680
2020/01/31 04:24:25.3	92.560	-0.590	1.500	0.660
2020/01/31 04:24:25.4	92.570	-0.600	1.460	0.640
2020/01/31 04:24:25.5	92.590	-0.610	1.400	0.620
2020/01/31 04:24:25.6	92.610	-0.600	1.330	0.590
2020/01/31 04:24:25.7	92.620	-0.590	1.250	0.570
2020/01/31 04:24:25.8	92.630	-0.570	1.150	0.550
2020/01/31 04:24:25.9	92.650	-0.550	1.040	0.540
2020/01/31 04:24:26.0	92.660	-0.520	0.930	0.520
2020/01/31 04:24:26.1	92.670	-0.480	0.800	0.500
2020/01/31 04:24:26.2	92.680	-0.440	0.670	0.490
2020/01/31 04:24:26.3	92.690	-0.390	0.530	0.480
2020/01/31 04:24:26.4	92.690	-0.340	0.390	0.470
2020/01/31 04:24:26.5	92.700	-0.290	0.240	0.470
2020/01/31 04:24:26.6	92.700	-0.230	0.100	0.470
2020/01/31 04:24:26.7	92.710	-0.170	-0.050	0.470
2020/01/31 04:24:26.8	92.710	-0.110	-0.190	0.470
2020/01/31 04:24:26.9	92.710	-0.050	-0.330	0.480
2020/01/31 04:24:27.0	92.720	0.010	-0.470	0.490
2020/01/31 04:24:27.1	92.720	0.060	-0.590	0.500
2020/01/31 04:24:27.2	92.730	0.120	-0.720	0.510
2020/01/31 04:24:27.3	92.730	0.170	-0.830	0.520
2020/01/31 04:24:27.4	92.730	0.230	-0.940	0.540
2020/01/31 04:24:27.5	92.740	0.270	-1.030	0.560
2020/01/31 04:24:27.6	92.740	0.320	-1.120	0.570
2020/01/31 04:24:27.7	92.740	0.360	-1.190	0.590
2020/01/31 04:24:27.8	92.750	0.390	-1.250	0.610
2020/01/31 04:24:27.9	92.750	0.420	-1.300	0.630
2020/01/31 04:24:28.0	92.760	0.440	-1.340	0.650
2020/01/31 04:24:28.1	92.770	0.460	-1.370	0.670
2020/01/31 04:24:28.2	92.770	0.470	-1.390	0.690
2020/01/31 04:24:28.3	92.780	0.480	-1.390	0.710
2020/01/31 04:24:28.4	92.790	0.480	-1.380	0.730
2020/01/31 04:24:28.5	92.790	0.480	-1.360	0.760
2020/01/31 04:24:28.6	92.800	0.470	-1.330	0.780
2020/01/31 04:24:28.7	92.810	0.460	-1.290	0.800
2020/01/31 04:24:28.8	92.810	0.440	-1.240	0.830
2020/01/31 04:24:28.9	92.810	0.420	-1.190	0.850
2020/01/31 04:24:29.0	92.820	0.400	-1.120	0.880
2020/01/31 04:24:29.1	92.840	0.370	-1.050	0.910
2020/01/31 04:24:29.2	92.840	0.340	-0.970	0.940
2020/01/31 04:24:29.3	92.840	0.300	-0.890	0.970
2020/01/31 04:24:29.4	92.840	0.270	-0.810	0.990
2020/01/31 04:24:29.5	92.840	0.230	-0.730	1.020
2020/01/31 04:24:29.6	92.840	0.190	-0.640	1.050
2020/01/31 04:24:29.7	92.840	0.150	-0.550	1.080
2020/01/31 04:24:29.8	92.840	0.110	-0.460	1.110
2020/01/31 04:24:29.9	92.840	0.070	-0.380	1.130
2020/01/31 04:24:30.0	92.830	0.030	-0.300	1.160
2020/01/31 04:24:30.1	92.830	-0.010	-0.220	1.180
2020/01/31 04:24:30.2	92.830	-0.050	-0.140	1.200
2020/01/31 04:24:30.3	92.830	-0.080	-0.070	1.220
2020/01/31 04:24:30.4	92.820	-0.120	-0.000	1.240
2020/01/31 04:24:30.5	92.820	-0.150	0.060	1.250
2020/01/31 04:24:30.6	92.820	-0.180	0.110	1.260
2020/01/31 04:24:30.7	92.820	-0.200	0.160	1.270
2020/01/31 04:24:30.8	92.820	-0.230	0.200	1.280
2020/01/31 04:24:30.9	92.820	-0.250	0.240	1.280
2020/01/31 04:24:31.0	92.820	-0.270	0.270	1.280
2020/01/31 04:24:31.1	92.820	-0.290	0.290	1.280
2020/01/31 04:24:31.2	92.820	-0.300	0.300	1.270
2020/01/31 04:24:31.3	92.820	-0.310	0.310	1.260
2020/01/31 04:24:31.4	92.820	-0.320	0.310	1.250
2020/01/31 04:24:31.5	92.820	-0.320	0.300	1.230
2020/01/31 04:24:31.6	92.820	-0.320	0.290	1.210
2020/01/31 04:24:31.7	92.820	-0.320	0.270	1.190
2020/01/31 04:24:31.8	92.820	-0.310	0.240	1.160
2020/01/31 04:24:31.9	92.820	-0.310	0.210	1.140
2020/01/31 04:24:32.0	92.820	-0.300	0.180	1.110
2020/01/31 04:24:32.1	92.810	-0.290	0.140	1.080
2020/01/31 04:24:32.2	92.820	-0.280	0.100	1.040
2020/01/31 04:24:32.3	92.820	-0.260	0.060	1.010
2020/01/31 04:24:32.4	92.820	-0.240	0.010	0.980
2020/01/31 04:24:32.5	92.820	-0.230	-0.040	0.940
2020/01/31 04:24:32.6	92.820	-0.210	-0.090	0.910
2020/01/31 04:24:32.7	92.820	-0.190	-0.140	0.880
2020/01/31 04:24:32.8	92.820	-0.170	-0.190	0.850
2020/01/31 04:24:32.9	92.820	-0.150	-0.240	0.810
2020/01/31 04:24:33.0	92.820	-0.120	-0.280	0.780
2020/01/31 04:24:33.1	92.840	-0.100	-0.330	0.750
2020/01/31 04:24:33.2	92.840	-0.080	-0.370	0.720
2020/01/31 04:24:33.3	92.840	-0.060	-0.400	0.700
2020/01/31 04:24:33.4	92.830	-0.040	-0.430	0.670
2020/01/31 04:24:33.5	92.830	-0.020	-0.460	0.640
2020/01/31 04:24:33.6	92.830	-0.000	-0.480	0.620
2020/01/31 04:24:33.7	92.830	0.020	-0.500	0.600
2020/01/31 04:24:33.8	92.830	0.030	-0.510	0.580
2020/01/31 04:24:33.9	92.820	0.050	-0.510	0.550
2020/01/31 04:24:34.0	92.820	0.060	-0.510	0.530
2020/01/31 04:24:34.1	92.830	0.070	-0.500	0.510
2020/01/31 04:24:34.2	92.830	0.080	-0.490	0.490
2020/01/31 04:24:34.3	92.830	0.080	-0.470	0.470
2020/01/31 04:24:34.4	92.830	0.080	-0.450	0.450
2020/01/31 04:24:34.5	92.830	0.080	-0.420	0.430
2020/01/31 04:24:34.6	92.830	0.080	-0.390	0.410
2020/01/31 04:24:34.7	92.840	0.080	-0.360	0.390
2020/01/31 04:24:34.8	92.840	0.070	-0.320	0.370
2020/01/31 04:24:34.9	92.840	0.060	-0.280	0.350
2020/01/31 04:24:35.0	92.850	0.050	-0.240	0.330
2020/01/31 04:24:35.1	92.860	0.030	-0.190	0.310
2020/01/31 04:24:35.2	92.870	0.020	-0.150	0.290
2020/01/31 04:24:35.3	92.870	0.000	-0.110	0.270
2020/01/31 04:24:35.4	92.880	-0.020	-0.070	0.250
2020/01/31 04:24:35.5	92.880	-0.040	-0.030	0.230
2020/01/31 04:24:35.6	92.890	-0.060	0.010	0.200
2020/01/31 04:24:35.7	92.890	-0.080	0.040	0.180
2020/01/31 04:24:35.8	92.900	-0.100	0.070	0.160
2020/01/31 04:24:35.9	92.900	-0.120	0.090	0.140
2020/01/31 04:24:36.0	92.910	-0.140	0.110	0.130
2020/01/31 04:24:36.1	92.910	-0.150	0.130	0.110
2020/01/31 04:24:36.2	92.910	-0.170	0.130	0.090
2020/01/31 04:24:36.3	92.920	-0.180	0.130	0.080
2020/01/31 04:24:36.4	92.920	-0.190	0.130	0.070
2020/01/31 04:24:36.5	92.920	-0.200	0.120	0.070
2020/01/31 04:24:36.6	92.930	-0.200	0.100	0.060
2020/01/31 04:24:36.7	92.930	-0.200	0.070	0.060
2020/01/31 04:24:36.8	92.940	-0.190	0.040	0.060
2020/01/31 04:24:36.9	92.940	-0.190	0.000	0.070
2020/01/31 04:24:37.0	92.950	-0.170	-0.040	0.070
2020/01/31 04:24:37.1	92.950	-0.160	-0.090	0.080
2020/01/31 04:24:37.2	92.960	-0.140	-0.140	0.090
2020/01/31 04:24:37.3	92.980	-0.110	-0.190	0.100
2020/01/31 04:24:37.4	92.990	-0.080	-0.250	0.110
2020/01/31 04:24:37.5	93.000	-0.050	-0.310	0.130
2020/01/31 04:24:37.6	93.020	-0.020	-0.370	0.150
2020/01/31 04:24:37.7	93.030	0.020	-0.430	0.170
2020/01/31 04:24:37.8	93.050	0.060	-0.480	0.190
2020/01/31 04:24:37.9	93.060	0.100	-0.540	0.210
2020/01/31 04:24:38.0	93.080	0.140	-0.590	0.240
2020/01/31 04:24:38.1	93.100	0.180	-0.640	0.260
2020/01/31 04:24:38.2	93.110	0.220	-0.690	0.290
2020/01/31 04:24:38.3	93.120	0.260	-0.720	0.310
2020/01/31 04:24:38.4	93.140	0.300	-0.760	0.340
2020/01/31 04:24:38.5	93.150	0.340	-0.780	0.370
2020/01/31 04:24:38.6	93.160	0.380	-0.800	0.390
2020/01/31 04:24:38.7	93.170	0.410	-0.810	0.420
2020/01/31 04:24:38.8	93.170	0.440	-0.820	0.440
2020/01/31 04:24:38.9	93.180	0.470	-0.810	0.460
2020/01/31 04:24:39.0	93.190	0.500	-0.800	0.480
2020/01/31 04:24:39.1	93.190	0.520	-0.790	0.510
2020/01/31 04:24:39.2	93.190	0.540	-0.760	0.530
2020/01/31 04:24:39.3	93.190	0.550	-0.730	0.550
2020/01/31 04:24:39.4	93.190	0.560	-0.690	0.570
2020/01/31 04:24:39.5	93.190	0.560	-0.650	0.590
2020/01/31 04:24:39.6	93.180	0.560	-0.590	0.610
2020/01/31 04:24:39.7	93.180	0.560	-0.540	0.630
2020/01/31 04:24:39.8	93.170	0.550	-0.480	0.650
2020/01/31 04:24:39.9	93.160	0.540	-0.410	0.680
2020/01/31 04:24:40.0	93.150	0.520	-0.340	0.700
2020/01/31 04:24:40.1	93.130	0.500	-0.270	0.730
2020/01/31 04:24:40.2	93.110	0.470	-0.190	0.760
2020/01/31 04:24:40.3	93.090	0.450	-0.120	0.790
2020/01/31 04:24:40.4	93.070	0.410	-0.040	0.820
2020/01/31 04:24:40.5	93.050	0.380	0.030	0.860
2020/01/31 04:24:40.6	93.030	0.340	0.110	0.890
2020/01/31 04:24:40.7	93.000	0.300	0.180	0.920
2020/01/31 04:24:40.8	92.980	0.260	0.250	0.960
2020/01/31 04:24:40.9	92.950	0.220	0.320	0.990
2020/01/31 04:24:41.0	92.930	0.170	0.380	1.020
2020/01/31 04:24:41.1	92.910	0.130	0.430	1.060
2020/01/31 04:24:41.2	92.880	0.080	0.480	1.090
2020/01/31 04:24:41.3	92.860	0.030	0.530	1.110
2020/01/31 04:24:41.4	92.840	-0.010	0.560	1.130
2020/01/31 04:24:41.5	92.820	-0.050	0.590	1.140
2020/01/31 04:24:41.6	92.800	-0.100	0.610	1.150
2020/01/31 04:24:41.7	92.790	-0.140	0.620	1.150
2020/01/31 04:24:41.8	92.770	-0.170	0.630	1.150
2020/01/31 04:24:41.9	92.760	-0.210	0.620	1.130
2020/01/31 04:24:42.0	92.760	-0.240	0.600	1.120
2020/01/31 04:24:42.1	92.750	-0.270	0.580	1.090
2020/01/31 04:24:42.2	92.750	-0.290	0.540	1.060
2020/01/31 04:24:42.3	92.750	-0.310	0.500	1.020
2020/01/31 04:24:42.4	92.750	-0.330	0.450	0.980
2020/01/31 04:24:42.5	92.760	-0.340	0.380	0.930
2020/01/31 04:24:42.6	92.760	-0.350	0.310	0.880
2020/01/31 04:24:42.7	92.770	-0.350	0.240	0.830
2020/01/31 04:24:42.8	92.780	-0.340	0.160	0.770
2020/01/31 04:24:42.9	92.790	-0.340	0.070	0.720
2020/01/31 04:24:43.0	92.800	-0.320	-0.020	0.660
2020/01/31 04:24:43.1	92.820	-0.310	-0.120	0.610
2020/01/31 04:24:43.2	92.840	-0.290	-0.210	0.550
2020/01/31 04:24:43.3	92.850	-0.270	-0.300	0.500
2020/01/31 04:24:43.4	92.870	-0.240	-0.390	0.460
2020/01/31 04:24:43.5	92.890	-0.210	-0.480	0.410
2020/01/31 04:24:43.6	92.900	-0.180	-0.570	0.370
2020/01/31 04:24:43.7	92.920	-0.140	-0.650	0.340
2020/01/31 04:24:43.8	92.940	-0.110	-0.730	0.310
2020/01/31 04:24:43.9	92.960	-0.070	-0.790	0.290
2020/01/31 04:24:44.0	92.980	-0.040	-0.860	0.270
2020/01/31 04:24:44.1	93.000	-0.000	-0.910	0.250
2020/01/31 04:24:44.2	93.010	0.030	-0.950	0.250
2020/01/31 04:24:44.3	93.030	0.070	-0.990	0.240
2020/01/31 04:24:44.4	93.050	0.100	-1.010	0.240
2020/01/31 04:24:44.5	93.060	0.130	-1.030	0.250
2020/01/31 04:24:44.6	93.080	0.150	-1.030	0.260
2020/01/31 04:24:44.7	93.090	0.180	-1.030	0.270
2020/01/31 04:24:44.8	93.100	0.200	-1.020	0.290
2020/01/31 04:24:44.9	93.110	0.210	-0.990	0.310
2020/01/31 04:24:45.0	93.110	0.220	-0.960	0.330
2020/01/31 04:24:45.1	93.110	0.230	-0.920	0.350
2020/01/31 04:24:45.2	93.110	0.240	-0.870	0.380
2020/01/31 04:24:45.3	93.110	0.240	-0.820	0.410
2020/01/31 04:24:45.4	93.110	0.230	-0.760	0.440
2020/01/31 04:24:45.5	93.100	0.220	-0.690	0.470
2020/01/31 04:24:45.6	93.100	0.210	-0.620	0.500
2020/01/31 04:24:45.7	93.090	0.190	-0.540	0.530
2020/01/31 04:24:45.8	93.080	0.170	-0.470	0.560
2020/01/31 04:24:45.9	93.070	0.150	-0.390	0.590
2020/01/31 04:24:46.0	93.050	0.130	-0.310	0.620
2020/01/31 04:24:46.1	93.030	0.100	-0.230	0.660
2020/01/31 04:24:46.2	93.010	0.070	-0.160	0.690
2020/01/31 04:24:46.3	92.990	0.040	-0.090	0.720
2020/01/31 04:24:46.4	92.970	0.010	-0.020	0.750
2020/01/31 04:24:46.5	92.950	-0.020	0.040	0.780
2020/01/31 04:24:46.6	92.930	-0.050	0.100	0.810
2020/01/31 04:24:46.7	92.910	-0.080	0.150	0.840
2020/01/31 04:24:46.8	92.890	-0.110	0.190	0.870
2020/01/31 04:24:46.9	92.870	-0.140	0.220	0.890
2020/01/31 04:24:47.0	92.850	-0.160	0.250	0.920
2020/01/31 04:24:47.1	92.830	-0.180	0.270	0.940
2020/01/31 04:24:47.2	92.810	-0.200	0.280	0.960
2020/01/31 04:24:47.3	92.800	-0.220	0.280	0.970
2020/01/31 04:24:47.4	92.780	-0.230	0.280	0.980
2020/01/31 04:24:47.5	92.770	-0.240	0.260	0.990
2020/01/31 04:24:47.6	92.760	-0.250	0.240	1.000
2020/01/31 04:24:47.7	92.750	-0.250	0.220	1.010
2020/01/31 04:24:47.8	92.750	-0.260	0.190	1.010
2020/01/31 04:24:47.9	92.740	-0.250	0.150	1.010
2020/01/31 04:24:48.0	92.740	-0.250	0.110	1.010
2020/01/31 04:24:48.1	92.730	-0.250	0.070	1.010
2020/01/31 04:24:48.2	92.730	-0.240	0.020	1.000
2020/01/31 04:24:48.3	92.730	-0.230	-0.020	0.990
2020/01/31 04:24:48.4	92.740	-0.220	-0.070	0.970
2020/01/31 04:24:48.5	92.750	-0.210	-0.110	0.950
2020/01/31 04:24:48.6	92.750	-0.200	-0.160	0.930
2020/01/31 04:24:48.7	92.760	-0.190	-0.200	0.910
2020/01/31 04:24:48.8	92.780	-0.170	-0.230	0.880
2020/01/31 04:24:48.9	92.790	-0.160	-0.270	0.850
2020/01/31 04:24:49.0	92.800	-0.150	-0.300	0.820
2020/01/31 04:24:49.1	92.810	-0.140	-0.320	0.780
2020/01/31 04:24:49.2	92.820	-0.130	-0.330	0.750
2020/01/31 04:24:49.3	92.840	-0.130	-0.350	0.710
2020/01/31 04:24:49.4	92.850	-0.120	-0.360	0.670
2020/01/31 04:24:49.5	92.860	-0.120	-0.360	0.630
2020/01/31 04:24:49.6	92.870	-0.110	-0.360	0.580
2020/01/31 04:24:49.7	92.880	-0.110	-0.350	0.540
2020/01/31 04:24:49.8	92.890	-0.110	-0.340	0.500
2020/01/31 04:24:49.9	92.900	-0.110	-0.320	0.470
2020/01/31 04:24:50.0	92.910	-0.110	-0.300	0.430
2020/01/31 04:24:50.1	92.930	-0.120	-0.270	0.390
2020/01/31 04:24:50.2	92.930	-0.120	-0.240	0.360
2020/01/31 04:24:50.3	92.940	-0.120	-0.210	0.340
2020/01/31 04:24:50.4	92.940	-0.130	-0.180	0.310
2020/01/31 04:24:50.5	92.940	-0.130	-0.150	0.300
2020/01/31 04:24:50.6	92.940	-0.130	-0.110	0.280
2020/01/31 04:24:50.7	92.940	-0.140	-0.080	0.270
2020/01/31 04:24:50.8	92.930	-0.140	-0.050	0.270
2020/01/31 04:24:50.9	92.930	-0.140	-0.020	0.260
2020/01/31 04:24:51.0	92.920	-0.140	0.000	0.270
2020/01/31 04:24:51.1	92.910	-0.140	0.020	0.280
2020/01/31 04:24:51.2	92.900	-0.130	0.040	0.290
2020/01/31 04:24:51.3	92.890	-0.130	0.050	0.300
2020/01/31 04:24:51.4	92.880	-0.120	0.050	0.320
2020/01/31 04:24:51.5	92.870	-0.100	0.050	0.330
2020/01/31 04:24:51.6	92.860	-0.090	0.040	0.350
2020/01/31 04:24:51.7	92.850	-0.070	0.020	0.360
2020/01/31 04:24:51.8	92.840	-0.050	0.000	0.380
2020/01/31 04:24:51.9	92.830	-0.030	-0.020	0.390
2020/01/31 04:24:52.0	92.820	-0.010	-0.060	0.400
2020/01/31 04:24:52.1	92.810	0.020	-0.100	0.410
2020/01/31 04:24:52.2	92.800	0.040	-0.140	0.420
2020/01/31 04:24:52.3	92.800	0.070	-0.180	0.420
2020/01/31 04:24:52.4	92.800	0.100	-0.230	0.430
2020/01/31 04:24:52.5	92.790	0.130	-0.280	0.430
2020/01/31 04:24:52.6	92.790	0.170	-0.340	0.430
2020/01/31 04:24:52.7	92.790	0.200	-0.390	0.430
2020/01/31 04:24:52.8	92.790	0.230	-0.450	0.430
2020/01/31 04:24:52.9	92.790	0.260	-0.500	0.430
2020/01/31 04:24:53.0	92.790	0.290	-0.550	0.440
2020/01/31 04:24:53.1	92.780	0.320	-0.600	0.430
2020/01/31 04:24:53.2	92.780	0.350	-0.640	0.430
2020/01/31 04:24:53.3	92.780	0.380	-0.690	0.440
2020/01/31 04:24:53.4	92.770	0.400	-0.730	0.440
2020/01/31 04:24:53.5	92.770	0.430	-0.760	0.440
2020/01/31 04:24:53.6	92.770	0.450	-0.800	0.440
2020/01/31 04:24:53.7	92.760	0.470	-0.820	0.440
2020/01/31 04:24:53.8	92.750	0.480	-0.840	0.450
2020/01/31 04:24:53.9	92.750	0.500	-0.860	0.450
2020/01/31 04:24:54.0	92.740	0.510	-0.870	0.450
2020/01/31 04:24:54.1	92.740	0.510	-0.870	0.450
2020/01/31 04:24:54.2	92.730	0.520	-0.870	0.450
2020/01/31 04:24:54.3	92.730	0.520	-0.860	0.450
2020/01/31 04:24:54.4	92.720	0.520	-0.840	0.450
2020/01/31 04:24:54.5	92.710	0.510	-0.820	0.450
2020/01/31 04:24:54.6	92.710	0.510	-0.790	0.450
2020/01/31 04:24:54.7	92.710	0.500	-0.750	0.440
2020/01/31 04:24:54.8	92.710	0.480	-0.710	0.440
2020/01/31 04:24:54.9	92.710	0.470	-0.660	0.430
2020/01/31 04:24:55.0	92.710	0.450	-0.610	0.430
2020/01/31 04:24:55.1	92.700	0.430	-0.550	0.430
2020/01/31 04:24:55.2	92.710	0.410	-0.490	0.430
2020/01/31 04:24:55.3	92.720	0.390	-0.430	0.430
2020/01/31 04:24:55.4	92.730	0.370	-0.370	0.430
2020/01/31 04:24:55.5	92.740	0.340	-0.300	0.440
2020/01/31 04:24:55.6	92.750	0.310	-0.230	0.440
2020/01/31 04:24:55.7	92.760	0.280	-0.170	0.450
2020/01/31 04:24:55.8	92.780	0.250	-0.100	0.460
2020/01/31 04:24:55.9	92.790	0.220	-0.030	0.480
2020/01/31 04:24:56.0	92.810	0.190	0.030	0.500
2020/01/31 04:24:56.1	92.830	0.160	0.090	0.520
2020/01/31 04:24:56.2	92.850	0.130	0.150	0.540
2020/01/31 04:24:56.3	92.870	0.090	0.210	0.570
2020/01/31 04:24:56.4	92.880	0.060	0.270	0.590
2020/01/31 04:24:56.5	92.900	0.020	0.320	0.620
2020/01/31 04:24:56.6	92.920	-0.010	0.370	0.650
2020/01/31 04:24:56.7	92.930	-0.050	0.420	0.680
2020/01/31 04:24:56.8	92.950	-0.080	0.460	0.710
2020/01/31 04:24:56.9	92.960	-0.120	0.500	0.740
2020/01/31 04:24:57.0	92.970	-0.150	0.530	0.770
2020/01/31 04:24:57.1	92.990	-0.190	0.550	0.810
2020/01/31 04:24:57.2	92.990	-0.220	0.570	0.830
2020/01/31 04:24:57.3	93.000	-0.250	0.590	0.860
2020/01/31 04:24:57.4	93.000	-0.280	0.590	0.880
2020/01/31 04:24:57.5	93.000	-0.310	0.600	0.910
2020/01/31 04:24:57.6	93.000	-0.340	0.590	0.920
2020/01/31 04:24:57.7	93.000	-0.370	0.580	0.940
2020/01/31 04:24:57.8	92.990	-0.400	0.560	0.950
2020/01/31 04:24:57.9	92.990	-0.420	0.540	0.960
2020/01/31 04:24:58.0	92.980	-0.440	0.510	0.960
2020/01/31 04:24:58.1	92.960	-0.460	0.480	0.970
2020/01/31 04:24:58.2	92.950	-0.480	0.440	0.970
2020/01/31 04:24:58.3	92.940	-0.490	0.390	0.960
2020/01/31 04:24:58.4	92.930	-0.500	0.350	0.960
2020/01/31 04:24:58.5	92.910	-0.510	0.300	0.950
2020/01/31 04:24:58.6	92.900	-0.520	0.240	0.940
2020/01/31 04:24:58.7	92.890	-0.520	0.190	0.930
2020/01/31 04:24:58.8	92.870	-0.520	0.130	0.920
2020/01/31 04:24:58.9	92.860	-0.520	0.070	0.910
2020/01/31 04:24:59.0	92.850	-0.520	0.010	0.890
2020/01/31 04:24:59.1	92.840	-0.510	-0.050	0.880
2020/01/31 04:24:59.2	92.830	-0.490	-0.110	0.870
2020/01/31 04:24:59.3	92.820	-0.480	-0.170	0.860
2020/01/31 04:24:59.4	92.800	-0.460	-0.220	0.840
2020/01/31 04:24:59.5	92.800	-0.440	-0.280	0.830
2020/01/31 04:24:59.6	92.790	-0.420	-0.340	0.820
2020/01/31 04:24:59.7	92.780	-0.390	-0.390	0.810
2020/01/31 04:24:59.8	92.780	-0.360	-0.450	0.800
2020/01/31 04:24:59.9	92.770	-0.330	-0.500	0.790
2020/01/31 04:25:00.0	92.770	-0.290	-0.550	0.770
2020/01/31 04:25:00.1	92.770	-0.260	-0.590	0.760
2020/01/31 04:25:00.2	92.770	-0.220	-0.640	0.750
2020/01/31 04:25:00.3	92.780	-0.180	-0.690	0.740
2020/01/31 04:25:00.4	92.790	-0.130	-0.730	0.730
2020/01/31 04:25:00.5	92.800	-0.090	-0.780	0.710
2020/01/31 04:25:00.6	92.810	-0.050	-0.820	0.700
2020/01/31 04:25:00.7	92.820	-0.000	-0.860	0.680
2020/01/31 04:25:00.8	92.830	0.050	-0.890	0.670
2020/01/31 04:25:00.9	92.850	0.090	-0.930	0.650
2020/01/31 04:25:01.0	92.860	0.140	-0.960	0.630
2020/01/31 04:25:01.1	92.900	0.180	-0.990	0.620
2020/01/31 04:25:01.2	92.910	0.230	-1.020	0.600
2020/01/31 04:25:01.3	92.930	0.270	-1.040	0.580
2020/01/31 04:25:01.4	92.950	0.310	-1.050	0.570
2020/01/31 04:25:01.5	92.960	0.350	-1.070	0.550
2020/01/31 04:25:01.6	92.980	0.390	-1.070	0.540
2020/01/31 04:25:01.7	92.990	0.420	-1.080	0.530
2020/01/31 04:25:01.8	93.000	0.450	-1.070	0.520
2020/01/31 04:25:01.9	93.010	0.480	-1.060	0.510
2020/01/31 04:25:02.0	93.020	0.500	-1.040	0.500
2020/01/31 04:25:02.1	93.020	0.520	-1.020	0.500
2020/01/31 04:25:02.2	93.010	0.540	-0.990	0.500
2020/01/31 04:25:02.3	93.010	0.540	-0.950	0.490
2020/01/31 04:25:02.4	93.000	0.550	-0.900	0.490
2020/01/31 04:25:02.5	92.990	0.540	-0.850	0.490
2020/01/31 04:25:02.6	92.970	0.530	-0.790	0.490
2020/01/31 04:25:02.7	92.960	0.520	-0.720	0.490
2020/01/31 04:25:02.8	92.940	0.500	-0.650	0.490
2020/01/31 04:25:02.9	92.910	0.480	-0.570	0.500
2020/01/31 04:25:03.0	92.890	0.450	-0.490	0.500
2020/01/31 04:25:03.1	92.880	0.410	-0.400	0.500
2020/01/31 04:25:03.2	92.850	0.380	-0.310	0.510
2020/01/31 04:25:03.3	92.820	0.330	-0.220	0.510
2020/01/31 04:25:03.4	92.790	0.290	-0.130	0.520
2020/01/31 04:25:03.5	92.760	0.240	-0.030	0.520
2020/01/31 04:25:03.6	92.730	0.190	0.060	0.530
2020/01/31 04:25:03.7	92.700	0.130	0.150	0.530
2020/01/31 04:25:03.8	92.680	0.080	0.240	0.530
2020/01/31 04:25:03.9	92.650	0.020	0.330	0.540
2020/01/31 04:25:04.0	92.630	-0.040	0.410	0.540
2020/01/31 04:25:04.1	92.600	-0.100	0.490	0.540
2020/01/31 04:25:04.2	92.590	-0.150	0.550	0.540
2020/01/31 04:25:04.3	92.570	-0.210	0.620	0.540
2020/01/31 04:25:04.4	92.560	-0.260	0.670	0.540
2020/01/31 04:25:04.5	92.560	-0.310	0.720	0.530
2020/01/31 04:25:04.6	92.560	-0.350	0.750	0.520
2020/01/31 04:25:04.7	92.560	-0.400	0.780	0.520
2020/01/31 04:25:04.8	92.560	-0.440	0.800	0.510
2020/01/31 04:25:04.9	92.570	-0.470	0.810	0.500
2020/01/31 04:25:05.0	92.580	-0.500	0.810	0.500
2020/01/31 04:25:05.1	92.580	-0.530	0.800	0.490
2020/01/31 04:25:05.2	92.600	-0.550	0.790	0.480
2020/01/31 04:25:05.3	92.610	-0.570	0.770	0.480
2020/01/31 04:25:05.4	92.630	-0.580	0.740	0.470
2020/01/31 04:25:05.5	92.650	-0.590	0.700	0.470
2020/01/31 04:25:05.6	92.660	-0.600	0.650	0.460
2020/01/31 04:25:05.7	92.680	-0.600	0.610	0.460
2020/01/31 04:25:05.8	92.700	-0.590	0.550	0.450
2020/01/31 04:25:05.9	92.710	-0.590	0.490	0.450
2020/01/31 04:25:06.0	92.730	-0.570	0.430	0.450
2020/01/31 04:25:06.1	92.740	-0.560	0.360	0.440
2020/01/31 04:25:06.2	92.750	-0.540	0.290	0.440
2020/01/31 04:25:06.3	92.770	-0.520	0.220	0.430
2020/01/31 04:25:06.4	92.780	-0.490	0.140	0.430
2020/01/31 04:25:06.5	92.790	-0.460	0.070	0.420
2020/01/31 04:25:06.6	92.800	-0.430	-0.010	0.420
2020/01/31 04:25:06.7	92.810	-0.400	-0.090	0.410
2020/01/31 04:25:06.8	92.810	-0.370	-0.160	0.410
2020/01/31 04:25:06.9	92.810	-0.330	-0.240	0.410
2020/01/31 04:25:07.0	92.810	-0.290	-0.320	0.400
2020/01/31 04:25:07.1	92.810	-0.250	-0.390	0.400
2020/01/31 04:25:07.2	92.810	-0.210	-0.460	0.400
2020/01/31 04:25:07.3	92.800	-0.170	-0.530	0.410
2020/01/31 04:25:07.4	92.790	-0.130	-0.600	0.410
2020/01/31 04:25:07.5	92.780	-0.080	-0.670	0.420
2020/01/31 04:25:07.6	92.770	-0.040	-0.730	0.440
2020/01/31 04:25:07.7	92.750	0.000	-0.790	0.450
2020/01/31 04:25:07.8	92.740	0.040	-0.840	0.470
2020/01/31 04:25:07.9	92.720	0.080	-0.890	0.490
2020/01/31 04:25:08.0	92.700	0.120	-0.940	0.520
2020/01/31 04:25:08.1	92.700	0.160	-0.990	0.550
2020/01/31 04:25:08.2	92.690	0.200	-1.030	0.570
2020/01/31 04:25:08.3	92.670	0.230	-1.060	0.600
2020/01/31 04:25:08.4	92.660	0.260	-1.090	0.630
2020/01/31 04:25:08.5	92.650	0.300	-1.110	0.660
2020/01/31 04:25:08.6	92.640	0.320	-1.130	0.680
2020/01/31 04:25:08.7	92.630	0.350	-1.140	0.710
2020/01/31 04:25:08.8	92.630	0.370	-1.150	0.740
2020/01/31 04:25:08.9	92.620	0.400	-1.150	0.770
2020/01/31 04:25:09.0	92.620	0.410	-1.150	0.800
2020/01/31 04:25:09.1	92.630	0.430	-1.140	0.820
2020/01/31 04:25:09.2	92.630	0.440	-1.120	0.850
2020/01/31 04:25:09.3	92.640	0.450	-1.100	0.870
2020/01/31 04:25:09.4	92.650	0.460	-1.080	0.890
2020/01/31 04:25:09.5	92.650	0.470	-1.050	0.910
2020/01/31 04:25:09.6	92.660	0.470	-1.010	0.930
2020/01/31 04:25:09.7	92.670	0.470	-0.970	0.950
2020/01/31 04:25:09.8	92.680	0.470	-0.920	0.960
2020/01/31 04:25:09.9	92.690	0.460	-0.870	0.980
2020/01/31 04:25:10.0	92.700	0.450	-0.810	0.990
2020/01/31 04:25:10.1	92.690	0.450	-0.750	1.010
2020/01/31 04:25:10.2	92.700	0.430	-0.690	1.020
2020/01/31 04:25:10.3	92.710	0.420	-0.620	1.020
2020/01/31 04:25:10.4	92.720	0.410	-0.550	1.030
2020/01/31 04:25:10.5	92.720	0.390	-0.480	1.040
2020/01/31 04:25:10.6	92.730	0.380	-0.400	1.040
2020/01/31 04:25:10.7	92.740	0.360	-0.320	1.050
2020/01/31 04:25:10.8	92.750	0.340	-0.240	1.050
2020/01/31 04:25:10.9	92.750	0.320	-0.160	1.050
2020/01/31 04:25:11.0	92.760	0.300	-0.080	1.050
2020/01/31 04:25:11.1	92.760	0.270	-0.000	1.050
2020/01/31 04:25:11.2	92.770	0.250	0.080	1.050
2020/01/31 04:25:11.3	92.770	0.230	0.160	1.050
2020/01/31 04:25:11.4	92.780	0.200	0.230	1.040
2020/01/31 04:25:11.5	92.790	0.180	0.310	1.040
2020/01/31 04:25:11.6	92.790	0.150	0.370	1.030
2020/01/31 04:25:11.7	92.790	0.130	0.440	1.030
2020/01/31 04:25:11.8	92.800	0.100	0.500	1.020
2020/01/31 04:25:11.9	92.800	0.080	0.550	1.010
2020/01/31 04:25:12.0	92.800	0.050	0.600	1.000
2020/01/31 04:25:12.1	92.790	0.030	0.640	1.000
2020/01/31 04:25:12.2	92.790	0.000	0.670	0.990
2020/01/31 04:25:12.3	92.790	-0.020	0.690	0.980
2020/01/31 04:25:12.4	92.790	-0.040	0.710	0.970
2020/01/31 04:25:12.5	92.780	-0.060	0.710	0.960
2020/01/31 04:25:12.6	92.780	-0.080	0.710	0.950
2020/01/31 04:25:12.7	92.780	-0.100	0.700	0.940
2020/01/31 04:25:12.8	92.770	-0.120	0.690	0.920
2020/01/31 04:25:12.9	92.770	-0.140	0.660	0.910
2020/01/31 04:25:13.0	92.760	-0.160	0.630	0.890
2020/01/31 04:25:13.1	92.750	-0.170	0.600	0.870
2020/01/31 04:25:13.2	92.740	-0.190	0.560	0.860
2020/01/31 04:25:13.3	92.740	-0.200	0.510	0.840
2020/01/31 04:25:13.4	92.730	-0.210	0.460	0.820
2020/01/31 04:25:13.5	92.720	-0.220	0.410	0.800
2020/01/31 04:25:13.6	92.710	-0.230	0.350	0.780
2020/01/31 04:25:13.7	92.700	-0.240	0.290	0.760
2020/01/31 04:25:13.8	92.690	-0.250	0.230	0.740
2020/01/31 04:25:13.9	92.670	-0.250	0.170	0.720
2020/01/31 04:25:14.0	92.660	-0.260	0.110	0.710
2020/01/31 04:25:14.1	92.650	-0.260	0.050	0.690
2020/01/31 04:25:14.2	92.630	-0.260	-0.010	0.670
2020/01/31 04:25:14.3	92.610	-0.260	-0.070	0.650
2020/01/31 04:25:14.4	92.590	-0.260	-0.130	0.630
2020/01/31 04:25:14.5	92.570	-0.260	-0.190	0.610
2020/01/31 04:25:14.6	92.560	-0.250	-0.240	0.590
2020/01/31 04:25:14.7	92.540	-0.250	-0.290	0.570
2020/01/31 04:25:14.8	92.520	-0.240	-0.340	0.550
2020/01/31 04:25:14.9	92.500	-0.230	-0.380	0.530
2020/01/31 04:25:15.0	92.480	-0.220	-0.420	0.510
2020/01/31 04:25:15.1	92.470	-0.210	-0.450	0.490
2020/01/31 04:25:15.2	92.450	-0.200	-0.490	0.460
2020/01/31 04:25:15.3	92.440	-0.190	-0.520	0.440
2020/01/31 04:25:15.4	92.430	-0.180	-0.550	0.420
2020/01/31 04:25:15.5	92.410	-0.160	-0.570	0.400
2020/01/31 04:25:15.6	92.410	-0.150	-0.600	0.380
2020/01/31 04:25:15.7	92.400	-0.130	-0.620	0.360
2020/01/31 04:25:15.8	92.400	-0.110	-0.640	0.340
2020/01/31 04:25:15.9	92.390	-0.100	-0.650	0.320
2020/01/31 04:25:16.0	92.400	-0.080	-0.660	0.300
2020/01/31 04:25:16.1	92.410	-0.060	-0.680	0.290
2020/01/31 04:25:16.2	92.410	-0.040	-0.680	0.270
2020/01/31 04:25:16.3	92.420	-0.020	-0.690	0.260
2020/01/31 04:25:16.4	92.430	0.000	-0.690	0.240
2020/01/31 04:25:16.5	92.450	0.020	-0.690	0.230
2020/01/31 04:25:16.6	92.460	0.040	-0.690	0.220
2020/01/31 04:25:16.7	92.480	0.060	-0.690	0.220
2020/01/31 04:25:16.8	92.500	0.080	-0.680	0.210
2020/01/31 04:25:16.9	92.510	0.100	-0.670	0.210
2020/01/31 04:25:17.0	92.530	0.120	-0.660	0.210
2020/01/31 04:25:17.1	92.550	0.140	-0.650	0.210
2020/01/31 04:25:17.2	92.570	0.160	-0.630	0.220
2020/01/31 04:25:17.3	92.580	0.180	-0.620	0.220
2020/01/31 04:25:17.4	92.600	0.190	-0.600	0.230
2020/01/31 04:25:17.5	92.620	0.210	-0.590	0.250
2020/01/31 04:25:17.6	92.630	0.220	-0.570	0.260
2020/01/31 04:25:17.7	92.650	0.240	-0.560	0.280
2020/01/31 04:25:17.8	92.660	0.250	-0.540	0.300
2020/01/31 04:25:17.9	92.680	0.260	-0.530	0.320
2020/01/31 04:25:18.0	92.690	0.270	-0.510	0.340
2020/01/31 04:25:18.1	92.680	0.280	-0.500	0.370
2020/01/31 04:25:18.2	92.690	0.290	-0.490	0.400
2020/01/31 04:25:18.3	92.700	0.290	-0.470	0.430
2020/01/31 04:25:18.4	92.710	0.300	-0.460	0.460
2020/01/31 04:25:18.5	92.720	0.300	-0.450	0.490
2020/01/31 04:25:18.6	92.730	0.300	-0.440	0.520
2020/01/31 04:25:18.7	92.740	0.300	-0.420	0.550
2020/01/31 04:25:18.8	92.750	0.300	-0.410	0.580
2020/01/31 04:25:18.9	92.760	0.290	-0.400	0.620
2020/01/31 04:25:19.0	92.760	0.280	-0.380	0.650
2020/01/31 04:25:19.1	92.770	0.270	-0.360	0.690
2020/01/31 04:25:19.2	92.770	0.260	-0.340	0.730
2020/01/31 04:25:19.3	92.770	0.250	-0.310	0.770
2020/01/31 04:25:19.4	92.770	0.230	-0.290	0.810
2020/01/31 04:25:19.5	92.760	0.210	-0.260	0.850
2020/01/31 04:25:19.6	92.760	0.180	-0.230	0.890
2020/01/31 04:25:19.7	92.750	0.160	-0.190	0.930
2020/01/31 04:25:19.8	92.750	0.130	-0.160	0.970
2020/01/31 04:25:19.9	92.740	0.100	-0.120	1.010
2020/01/31 04:25:20.0	92.730	0.060	-0.070	1.040
2020/01/31 04:25:20.1	92.730	0.030	-0.030	1.080
2020/01/31 04:25:20.2	92.720	-0.010	0.010	1.110
2020/01/31 04:25:20.3	92.710	-0.050	0.060	1.140
2020/01/31 04:25:20.4	92.700	-0.090	0.110	1.170
2020/01/31 04:25:20.5	92.690	-0.130	0.150	1.190
2020/01/31 04:25:20.6	92.670	-0.180	0.190	1.210
2020/01/31 04:25:20.7	92.660	-0.220	0.240	1.220
2020/01/31 04:25:20.8	92.650	-0.260	0.270	1.230
2020/01/31 04:25:20.9	92.640	-0.300	0.310	1.240
2020/01/31 04:25:21.0	92.630	-0.340	0.340	1.240
2020/01/31 04:25:21.1	92.620	-0.380	0.370	1.240
2020/01/31 04:25:21.2	92.620	-0.420	0.390	1.240
2020/01/31 04:25:21.3	92.610	-0.460	0.400	1.230
2020/01/31 04:25:21.4	92.610	-0.490	0.410	1.210
2020/01/31 04:25:21.5	92.610	-0.510	0.400	1.190
2020/01/31 04:25:21.6	92.610	-0.540	0.390	1.170
2020/01/31 04:25:21.7	92.620	-0.560	0.380	1.150
2020/01/31 04:25:21.8	92.620	-0.570	0.350	1.120
2020/01/31 04:25:21.9	92.630	-0.580	0.320	1.100
2020/01/31 04:25:22.0	92.640	-0.580	0.280	1.070
2020/01/31 04:25:22.1	92.650	-0.580	0.230	1.030
2020/01/31 04:25:22.2	92.660	-0.570	0.170	1.000
2020/01/31 04:25:22.3	92.670	-0.560	0.120	0.980
2020/01/31 04:25:22.4	92.680	-0.540	0.060	0.950
2020/01/31 04:25:22.5	92.690	-0.520	-0.010	0.920
2020/01/31 04:25:22.6	92.700	-0.500	-0.080	0.900
2020/01/31 04:25:22.7	92.710	-0.470	-0.140	0.880
2020/01/31 04:25:22.8	92.710	-0.430	-0.210	0.860
2020/01/31 04:25:22.9	92.710	-0.400	-0.280	0.840
2020/01/31 04:25:23.0	92.710	-0.360	-0.350	0.830
2020/01/31 04:25:23.1	92.720	-0.310	-0.410	0.810
2020/01/31 04:25:23.2	92.720	-0.270	-0.480	0.800
2020/01/31 04:25:23.3	92.710	-0.230	-0.540	0.790
2020/01/31 04:25:23.4	92.710	-0.180	-0.590	0.770
2020/01/31 04:25:23.5	92.700	-0.140	-0.640	0.760
2020/01/31 04:25:23.6	92.690	-0.090	-0.690	0.750
2020/01/31 04:25:23.7	92.680	-0.040	-0.730	0.740
2020/01/31 04:25:23.8	92.660	-0.000	-0.770	0.730
2020/01/31 04:25:23.9	92.650	0.040	-0.800	0.720
2020/01/31 04:25:24.0	92.630	0.080	-0.820	0.710
2020/01/31 04:25:24.1	92.610	0.120	-0.840	0.700
2020/01/31 04:25:24.2	92.600	0.160	-0.850	0.680
2020/01/31 04:25:24.3	92.580	0.190	-0.850	0.670
2020/01/31 04:25:24.4	92.560	0.220	-0.850	0.660
2020/01/31 04:25:24.5	92.540	0.250	-0.850	0.640
2020/01/31 04:25:24.6	92.520	0.270	-0.830	0.620
2020/01/31 04:25:24.7	92.500	0.290	-0.810	0.610
2020/01/31 04:25:24.8	92.490	0.310	-0.790	0.590
2020/01/31 04:25:24.9	92.470	0.320	-0.760	0.570
2020/01/31 04:25:25.0	92.450	0.330	-0.720	0.550
2020/01/31 04:25:25.1	92.430	0.340	-0.680	0.530
2020/01/31 04:25:25.2	92.410	0.340	-0.630	0.510
2020/01/31 04:25:25.3	92.400	0.340	-0.580	0.490
2020/01/31 04:25:25.4	92.380	0.340	-0.520	0.470
2020/01/31 04:25:25.5	92.370	0.330	-0.460	0.450
2020/01/31 04:25:25.6	92.350	0.320	-0.400	0.430
2020/01/31 04:25:25.7	92.340	0.310	-0.330	0.410
2020/01/31 04:25:25.8	92.330	0.300	-0.260	0.390
2020/01/31 04:25:25.9	92.320	0.280	-0.190	0.370
2020/01/31 04:25:26.0	92.320	0.260	-0.120	0.350
2020/01/31 04:25:26.1	92.320	0.240	-0.050	0.340
2020/01/31 04:25:26.2	92.310	0.220	0.020	0.320
2020/01/31 04:25:26.3	92.310	0.200	0.080	0.310
2020/01/31 04:25:26.4	92.310	0.180	0.140	0.300
2020/01/31 04:25:26.5	92.300	0.160	0.200	0.290
2020/01/31 04:25:26.6	92.300	0.140	0.260	0.280
2020/01/31 04:25:26.7	92.300	0.120	0.300	0.270
2020/01/31 04:25:26.8	92.300	0.100	0.340	0.260
2020/01/31 04:25:26.9	92.310	0.080	0.380	0.250
2020/01/31 04:25:27.0	92.310	0.060	0.410	0.250
2020/01/31 04:25:27.1	92.310	0.040	0.420	0.240
2020/01/31 04:25:27.2	92.320	0.020	0.440	0.240
2020/01/31 04:25:27.3	92.320	0.010	0.440	0.230
2020/01/31 04:25:27.4	92.330	-0.000	0.440	0.230
2020/01/31 04:25:27.5	92.340	-0.010	0.430	0.230
2020/01/31 04:25:27.6	92.350	-0.020	0.410	0.220
2020/01/31 04:25:27.7	92.360	-0.020	0.380	0.220
2020/01/31 04:25:27.8	92.380	-0.030	0.340	0.220
2020/01/31 04:25:27.9	92.390	-0.030	0.300	0.220
2020/01/31 04:25:28.0	92.400	-0.030	0.250	0.220
2020/01/31 04:25:28.1	92.400	-0.020	0.200	0.220
2020/01/31 04:25:28.2	92.410	-0.020	0.130	0.230
2020/01/31 04:25:28.3	92.420	-0.010	0.070	0.240
2020/01/31 04:25:28.4	92.430	0.000	-0.010	0.250
2020/01/31 04:25:28.5	92.430	0.010	-0.090	0.270
2020/01/31 04:25:28.6	92.440	0.030	-0.170	0.290
2020/01/31 04:25:28.7	92.440	0.050	-0.260	0.310
2020/01/31 04:25:28.8	92.440	0.070	-0.340	0.340
2020/01/31 04:25:28.9	92.440	0.090	-0.430	0.370
2020/01/31 04:25:29.0	92.440	0.110	-0.520	0.400
2020/01/31 04:25:29.1	92.440	0.140	-0.600	0.430
2020/01/31 04:25:29.2	92.430	0.160	-0.680	0.470
2020/01/31 04:25:29.3	92.430	0.190	-0.760	0.500
2020/01/31 04:25:29.4	92.430	0.220	-0.830	0.540
2020/01/31 04:25:29.5	92.430	0.240	-0.890	0.570
2020/01/31 04:25:29.6	92.430	0.270	-0.950	0.610
2020/01/31 04:25:29.7	92.440	0.300	-1.000	0.640
2020/01/31 04:25:29.8	92.440	0.320	-1.040	0.680
2020/01/31 04:25:29.9	92.450	0.340	-1.070	0.710
2020/01/31 04:25:30.0	92.460	0.360	-1.090	0.750
2020/01/31 04:25:30.1	92.480	0.380	-1.110	0.780
2020/01/31 04:25:30.2	92.490	0.400	-1.100	0.820
2020/01/31 04:25:30.3	92.500	0.410	-1.090	0.860
2020/01/31 04:25:30.4	92.520	0.410	-1.070	0.900
2020/01/31 04:25:30.5	92.540	0.420	-1.040	0.940
2020/01/31 04:25:30.6	92.560	0.420	-1.000	0.980
2020/01/31 04:25:30.7	92.570	0.410	-0.950	1.020
2020/01/31 04:25:30.8	92.590	0.400	-0.890	1.060
2020/01/31 04:25:30.9	92.610	0.390	-0.820	1.100
2020/01/31 04:25:31.0	92.630	0.370	-0.740	1.140
2020/01/31 04:25:31.1	92.640	0.340	-0.650	1.180
2020/01/31 04:25:31.2	92.650	0.310	-0.560	1.210
2020/01/31 04:25:31.3	92.660	0.280	-0.470	1.250
2020/01/31 04:25:31.4	92.670	0.240	-0.370	1.280
2020/01/31 04:25:31.5	92.680	0.200	-0.270	1.320
2020/01/31 04:25:31.6	92.690	0.150	-0.170	1.350
2020/01/31 04:25:31.7	92.690	0.100	-0.070	1.370
2020/01/31 04:25:31.8	92.690	0.040	0.040	1.400
2020/01/31 04:25:31.9	92.690	-0.010	0.140	1.420
2020/01/31 04:25:32.0	92.690	-0.070	0.240	1.430
2020/01/31 04:25:32.1	92.700	-0.130	0.330	1.450
2020/01/31 04:25:32.2	92.690	-0.190	0.430	1.460
2020/01/31 04:25:32.3	92.670	-0.250	0.510	1.460
2020/01/31 04:25:32.4	92.660	-0.320	0.600	1.460
2020/01/31 04:25:32.5	92.640	-0.380	0.670	1.450
2020/01/31 04:25:32.6	92.630	-0.430	0.740	1.450
2020/01/31 04:25:32.7	92.610	-0.490	0.810	1.430
2020/01/31 04:25:32.8	92.580	-0.550	0.860	1.410
2020/01/31 04:25:32.9	92.560	-0.600	0.910	1.390
2020/01/31 04:25:33.0	92.540	-0.650	0.950	1.370
2020/01/31 04:25:33.1	92.520	-0.690	0.970	1.340
2020/01/31 04:25:33.2	92.500	-0.730	1.000	1.310
2020/01/31 04:25:33.3	92.480	-0.760	1.010	1.270
2020/01/31 04:25:33.4	92.460	-0.790	1.010	1.230
2020/01/31 04:25:33.5	92.440	-0.810	1.000	1.190
2020/01/31 04:25:33.6	92.430	-0.830	0.980	1.150
2020/01/31 04:25:33.7	92.420	-0.840	0.940	1.100
2020/01/31 04:25:33.8	92.410	-0.840	0.900	1.060
2020/01/31 04:25:33.9	92.400	-0.840	0.850	1.010
2020/01/31 04:25:34.0	92.390	-0.830	0.780	0.970
2020/01/31 04:25:34.1	92.380	-0.810	0.710	0.920
2020/01/31 04:25:34.2	92.380	-0.790	0.630	0.880
2020/01/31 04:25:34.3	92.380	-0.760	0.540	0.840
2020/01/31 04:25:34.4	92.380	-0.720	0.430	0.800
2020/01/31 04:25:34.5	92.380	-0.680	0.330	0.760
2020/01/31 04:25:34.6	92.390	-0.630	0.210	0.730
2020/01/31 04:25:34.7	92.400	-0.580	0.090	0.690
2020/01/31 04:25:34.8	92.410	-0.520	-0.040	0.660
2020/01/31 04:25:34.9	92.420	-0.460	-0.170	0.630
2020/01/31 04:25:35.0	92.430	-0.390	-0.300	0.590
2020/01/31 04:25:35.1	92.450	-0.330	-0.440	0.560
2020/01/31 04:25:35.2	92.460	-0.260	-0.570	0.530
2020/01/31 04:25:35.3	92.480	-0.180	-0.700	0.500
2020/01/31 04:25:35.4	92.490	-0.110	-0.830	0.470
2020/01/31 04:25:35.5	92.510	-0.040	-0.960	0.440
2020/01/31 04:25:35.6	92.530	0.030	-1.080	0.410
2020/01/31 04:25:35.7	92.540	0.100	-1.190	0.370
2020/01/31 04:25:35.8	92.560	0.170	-1.300	0.330
2020/01/31 04:25:35.9	92.580	0.240	-1.390	0.290
2020/01/31 04:25:36.0	92.600	0.310	-1.480	0.250
2020/01/31 04:25:36.1	92.610	0.370	-1.560	0.210
2020/01/31 04:25:36.2	92.630	0.420	-1.620	0.170
2020/01/31 04:25:36.3	92.640	0.470	-1.670	0.130
2020/01/31 04:25:36.4	92.660	0.520	-1.710	0.090
2020/01/31 04:25:36.5	92.670	0.560	-1.740	0.050
2020/01/31 04:25:36.6	92.680	0.600	-1.740	0.010
2020/01/31 04:25:36.7	92.700	0.630	-1.740	-0.020
2020/01/31 04:25:36.8	92.700	0.660	-1.720	-0.050
2020/01/31 04:25:36.9	92.710	0.680	-1.680	-0.070
2020/01/31 04:25:37.0	92.720	0.690	-1.630	-0.090
2020/01/31 04:25:37.1	92.720	0.690	-1.560	-0.100
2020/01/31 04:25:37.2	92.720	0.690	-1.480	-0.110
2020/01/31 04:25:37.3	92.730	0.690	-1.390	-0.110
2020/01/31 04:25:37.4	92.730	0.680	-1.290	-0.100
2020/01/31 04:25:37.5	92.720	0.660	-1.170	-0.090
2020/01/31 04:25:37.6	92.720	0.630	-1.050	-0.070
2020/01/31 04:25:37.7	92.720	0.600	-0.920	-0.040
2020/01/31 04:25:37.8	92.710	0.570	-0.780	-0.000
2020/01/31 04:25:37.9	92.700	0.530	-0.640	0.040
2020/01/31 04:25:38.0	92.700	0.480	-0.500	0.080
2020/01/31 04:25:38.1	92.690	0.440	-0.350	0.130
2020/01/31 04:25:38.2	92.680	0.390	-0.210	0.180
2020/01/31 04:25:38.3	92.670	0.330	-0.060	0.240
2020/01/31 04:25:38.4	92.670	0.280	0.080	0.290
2020/01/31 04:25:38.5	92.660	0.220	0.220	0.350
2020/01/31 04:25:38.6	92.650	0.160	0.350	0.410
2020/01/31 04:25:38.7	92.650	0.100	0.470	0.460
2020/01/31 04:25:38.8	92.640	0.050	0.580	0.520
2020/01/31 04:25:38.9	92.630	-0.010	0.680	0.570
2020/01/31 04:25:39.0	92.630	-0.070	0.780	0.610
2020/01/31 04:25:39.1	92.630	-0.120	0.860	0.660
2020/01/31 04:25:39.2	92.630	-0.170	0.930	0.700
2020/01/31 04:25:39.3	92.620	-0.220	0.980	0.730
2020/01/31 04:25:39.4	92.620	-0.270	1.020	0.760
2020/01/31 04:25:39.5	92.620	-0.310	1.040	0.780
2020/01/31 04:25:39.6	92.620	-0.340	1.060	0.800
2020/01/31 04:25:39.7	92.620	-0.370	1.050	0.810
2020/01/31 04:25:39.8	92.620	-0.400	1.040	0.820
2020/01/31 04:25:39.9	92.620	-0.420	1.000	0.820
2020/01/31 04:25:40.0	92.620	-0.430	0.960	0.810
2020/01/31 04:25:40.1	92.630	-0.440	0.910	0.800
2020/01/31 04:25:40.2	92.630	-0.450	0.840	0.790
2020/01/31 04:25:40.3	92.630	-0.440	0.760	0.770
2020/01/31 04:25:40.4	92.640	-0.440	0.680	0.750
2020/01/31 04:25:40.5	92.640	-0.430	0.580	0.730
2020/01/31 04:25:40.6	92.650	-0.410	0.480	0.700
2020/01/31 04:25:40.7	92.660	-0.390	0.380	0.680
2020/01/31 04:25:40.8	92.670	-0.370	0.270	0.650
2020/01/31 04:25:40.9	92.680	-0.340	0.160	0.620
2020/01/31 04:25:41.0	92.690	-0.310	0.060	0.590
2020/01/31 04:25:41.1	92.710	-0.280	-0.060	0.560
2020/01/31 04:25:41.2	92.720	-0.240	-0.160	0.530
2020/01/31 04:25:41.3	92.740	-0.210	-0.260	0.510
2020/01/31 04:25:41.4	92.750	-0.170	-0.360	0.480
2020/01/31 04:25:41.5	92.770	-0.130	-0.450	0.460
2020/01/31 04:25:41.6	92.780	-0.100	-0.540	0.440
2020/01/31 04:25:41.7	92.800	-0.060	-0.620	0.420
2020/01/31 04:25:41.8	92.820	-0.030	-0.690	0.410
2020/01/31 04:25:41.9	92.830	0.010	-0.750	0.400
2020/01/31 04:25:42.0	92.850	0.040	-0.800	0.400
2020/01/31 04:25:42.1	92.860	0.070	-0.850	0.400
2020/01/31 04:25:42.2	92.870	0.090	-0.880	0.410
2020/01/31 04:25:42.3	92.890	0.120	-0.910	0.420
2020/01/31 04:25:42.4	92.900	0.140	-0.930	0.430
2020/01/31 04:25:42.5	92.910	0.160	-0.940	0.450
2020/01/31 04:25:42.6	92.920	0.180	-0.940	0.470
2020/01/31 04:25:42.7	92.930	0.190	-0.930	0.490
2020/01/31 04:25:42.8	92.940	0.200	-0.910	0.520
2020/01/31 04:25:42.9	92.950	0.210	-0.890	0.550
2020/01/31 04:25:43.0	92.960	0.210	-0.860	0.590
2020/01/31 04:25:43.1	92.970	0.210	-0.830	0.630
2020/01/31 04:25:43.2	92.970	0.210	-0.790	0.660
2020/01/31 04:25:43.3	92.970	0.200	-0.750	0.700
2020/01/31 04:25:43.4	92.970	0.200	-0.700	0.740
2020/01/31 04:25:43.5	92.970	0.190	-0.650	0.770
2020/01/31 04:25:43.6	92.970	0.180	-0.600	0.810
2020/01/31 04:25:43.7	92.970	0.170	-0.540	0.840
2020/01/31 04:25:43.8	92.970	0.150	-0.490	0.880
2020/01/31 04:25:43.9	92.960	0.140	-0.430	0.910
2020/01/31 04:25:44.0	92.960	0.120	-0.380	0.940
2020/01/31 04:25:44.1	92.960	0.100	-0.330	0.970
2020/01/31 04:25:44.2	92.950	0.090	-0.280	1.000
2020/01/31 04:25:44.3	92.940	0.070	-0.230	1.020
2020/01/31 04:25:44.4	92.940	0.050	-0.180	1.040
2020/01/31 04:25:44.5	92.930	0.030	-0.140	1.060
2020/01/31 04:25:44.6	92.920	0.020	-0.100	1.070
2020/01/31 04:25:44.7	92.920	-0.000	-0.060	1.080
2020/01/31 04:25:44.8	92.910	-0.020	-0.030	1.090
2020/01/31 04:25:44.9	92.900	-0.030	-0.000	1.100
2020/01/31 04:25:45.0	92.900	-0.050	0.030	1.100
2020/01/31 04:25:45.1	92.900	-0.070	0.050	1.100
2020/01/31 04:25:45.2	92.890	-0.080	0.060	1.100
2020/01/31 04:25:45.3	92.890	-0.090	0.080	1.090
2020/01/31 04:25:45.4	92.890	-0.110	0.090	1.080
2020/01/31 04:25:45.5	92.880	-0.120	0.100	1.070
2020/01/31 04:25:45.6	92.880	-0.130	0.100	1.060
2020/01/31 04:25:45.7	92.880	-0.140	0.100	1.050
2020/01/31 04:25:45.8	92.870	-0.150	0.100	1.040
2020/01/31 04:25:45.9	92.870	-0.160	0.100	1.020
2020/01/31 04:25:46.0	92.870	-0.170	0.090	1.010
2020/01/31 04:25:46.1	92.860	-0.170	0.090	0.990
2020/01/31 04:25:46.2	92.860	-0.180	0.080	0.980
2020/01/31 04:25:46.3	92.850	-0.180	0.070	0.960
2020/01/31 04:25:46.4	92.850	-0.190	0.050	0.950
2020/01/31 04:25:46.5	92.850	-0.190	0.040	0.930
2020/01/31 04:25:46.6	92.840	-0.190	0.020	0.920
2020/01/31 04:25:46.7	92.840	-0.190	0.010	0.900
2020/01/31 04:25:46.8	92.830	-0.190	-0.010	0.880
2020/01/31 04:25:46.9	92.830	-0.180	-0.030	0.870
2020/01/31 04:25:47.0	92.830	-0.180	-0.050	0.850
2020/01/31 04:25:47.1	92.820	-0.170	-0.070	0.830
2020/01/31 04:25:47.2	92.810	-0.170	-0.090	0.810
2020/01/31 04:25:47.3	92.810	-0.160	-0.110	0.790
2020/01/31 04:25:47.4	92.810	-0.150	-0.140	0.770
2020/01/31 04:25:47.5	92.800	-0.140	-0.160	0.750
2020/01/31 04:25:47.6	92.800	-0.120	-0.180	0.720
2020/01/31 04:25:47.7	92.790	-0.110	-0.210	0.690
2020/01/31 04:25:47.8	92.790	-0.100	-0.230	0.670
2020/01/31 04:25:47.9	92.780	-0.080	-0.250	0.640
2020/01/31 04:25:48.0	92.780	-0.070	-0.280	0.610
2020/01/31 04:25:48.1	92.790	-0.050	-0.300	0.580
2020/01/31 04:25:48.2	92.790	-0.040	-0.320	0.550
2020/01/31 04:25:48.3	92.780	-0.020	-0.340	0.520
2020/01/31 04:25:48.4	92.780	-0.010	-0.360	0.490
2020/01/31 04:25:48.5	92.770	0.010	-0.380	0.460
2020/01/31 04:25:48.6	92.770	0.020	-0.390	0.430
2020/01/31 04:25:48.7	92.770	0.030	-0.410	0.410
2020/01/31 04:25:48.8	92.760	0.040	-0.420	0.380
2020/01/31 04:25:48.9	92.760	0.060	-0.430	0.360
2020/01/31 04:25:49.0	92.760	0.070	-0.440	0.340
2020/01/31 04:25:49.1	92.760	0.080	-0.450	0.320
2020/01/31 04:25:49.2	92.760	0.080	-0.450	0.300
2020/01/31 04:25:49.3	92.760	0.090	-0.460	0.290
2020/01/31 04:25:49.4	92.770	0.100	-0.460	0.280
2020/01/31 04:25:49.5	92.770	0.100	-0.460	0.260
2020/01/31 04:25:49.6	92.770	0.110	-0.470	0.260
2020/01/31 04:25:49.7	92.780	0.110	-0.470	0.250
2020/01/31 04:25:49.8	92.790	0.110	-0.460	0.250
2020/01/31 04:25:49.9	92.790	0.120	-0.460	0.250
2020/01/31 04:25:50.0	92.800	0.120	-0.460	0.250
2020/01/31 04:25:50.1	92.810	0.120	-0.450	0.250
2020/01/31 04:25:50.2	92.830	0.120	-0.440	0.250
2020/01/31 04:25:50.3	92.840	0.110	-0.440	0.250
2020/01/31 04:25:50.4	92.860	0.110	-0.430	0.250
2020/01/31 04:25:50.5	92.880	0.110	-0.410	0.260
2020/01/31 04:25:50.6	92.900	0.110	-0.400	0.260
2020/01/31 04:25:50.7	92.930	0.100	-0.390	0.260
2020/01/31 04:25:50.8	92.950	0.100	-0.370	0.270
2020/01/31 04:25:50.9	92.980	0.090	-0.350	0.270
2020/01/31 04:25:51.0	93.010	0.080	-0.330	0.270
2020/01/31 04:25:51.1	93.040	0.080	-0.310	0.280
2020/01/31 04:25:51.2	93.070	0.070	-0.290	0.290
2020/01/31 04:25:51.3	93.100	0.070	-0.270	0.290
2020/01/31 04:25:51.4	93.130	0.060	-0.240	0.290
2020/01/31 04:25:51.5	93.160	0.050	-0.220	0.300
2020/01/31 04:25:51.6	93.190	0.050	-0.190	0.310
2020/01/31 04:25:51.7	93.220	0.040	-0.160	0.330
2020/01/31 04:25:51.8	93.250	0.030	-0.140	0.340
2020/01/31 04:25:51.9	93.270	0.030	-0.110	0.360
2020/01/31 04:25:52.0	93.290	0.020	-0.080	0.390
2020/01/31 04:25:52.1	93.300	0.010	-0.050	0.420
2020/01/31 04:25:52.2	93.310	0.000	-0.030	0.460
2020/01/31 04:25:52.3	93.320	-0.000	0.000	0.500
2020/01/31 04:25:52.4	93.320	-0.010	0.030	0.540
2020/01/31 04:25:52.5	93.310	-0.020	0.060	0.580
2020/01/31 04:25:52.6	93.310	-0.030	0.080	0.630
2020/01/31 04:25:52.7	93.300	-0.040	0.110	0.670
2020/01/31 04:25:52.8	93.280	-0.050	0.130	0.720
2020/01/31 04:25:52.9	93.270	-0.060	0.150	0.760
2020/01/31 04:25:53.0	93.250	-0.080	0.170	0.810
2020/01/31 04:25:53.1	93.230	-0.090	0.190	0.850
2020/01/31 04:25:53.2	93.200	-0.100	0.210	0.890
2020/01/31 04:25:53.3	93.180	-0.120	0.220	0.930
2020/01/31 04:25:53.4	93.160	-0.130	0.230	0.960
2020/01/31 04:25:53.5	93.140	-0.150	0.240	0.990
2020/01/31 04:25:53.6	93.110	-0.160	0.240	1.020
2020/01/31 04:25:53.7	93.090	-0.170	0.240	1.040
2020/01/31 04:25:53.8	93.070	-0.190	0.240	1.060
2020/01/31 04:25:53.9	93.040	-0.200	0.230	1.070
2020/01/31 04:25:54.0	93.020	-0.210	0.210	1.080
2020/01/31 04:25:54.1	93.000	-0.220	0.200	1.080
2020/01/31 04:25:54.2	92.980	-0.230	0.170	1.080
2020/01/31 04:25:54.3	92.960	-0.230	0.150	1.080
2020/01/31 04:25:54.4	92.950	-0.240	0.110	1.070
2020/01/31 04:25:54.5	92.940	-0.240	0.080	1.060
2020/01/31 04:25:54.6	92.920	-0.230	0.040	1.050
2020/01/31 04:25:54.7	92.910	-0.230	-0.010	1.040
2020/01/31 04:25:54.8	92.900	-0.220	-0.060	1.020
2020/01/31 04:25:54.9	92.890	-0.210	-0.110	1.010
2020/01/31 04:25:55.0	92.890	-0.200	-0.160	0.990
2020/01/31 04:25:55.1	92.870	-0.180	-0.220	0.980
2020/01/31 04:25:55.2	92.860	-0.160	-0.280	0.960
2020/01/31 04:25:55.3	92.850	-0.140	-0.340	0.950
2020/01/31 04:25:55.4	92.840	-0.110	-0.400	0.930
2020/01/31 04:25:55.5	92.830	-0.090	-0.450	0.920
2020/01/31 04:25:55.6	92.820	-0.060	-0.510	0.900
2020/01/31 04:25:55.7	92.810	-0.030	-0.570	0.890
2020/01/31 04:25:55.8	92.800	0.010	-0.620	0.870
2020/01/31 04:25:55.9	92.780	0.040	-0.670	0.860
2020/01/31 04:25:56.0	92.770	0.080	-0.720	0.840
2020/01/31 04:25:56.1	92.760	0.110	-0.760	0.830
2020/01/31 04:25:56.2	92.750	0.150	-0.800	0.810
2020/01/31 04:25:56.3	92.740	0.180	-0.840	0.790
2020/01/31 04:25:56.4	92.720	0.220	-0.870	0.760
2020/01/31 04:25:56.5	92.710	0.250	-0.890	0.740
2020/01/31 04:25:56.6	92.710	0.290	-0.920	0.720
2020/01/31 04:25:56.7	92.700	0.320	-0.930	0.690
2020/01/31 04:25:56.8	92.690	0.350	-0.940	0.660
2020/01/31 04:25:56.9	92.680	0.380	-0.950	0.640
2020/01/31 04:25:57.0	92.670	0.410	-0.950	0.610
2020/01/31 04:25:57.1	92.670	0.430	-0.950	0.580
2020/01/31 04:25:57.2	92.660	0.460	-0.940	0.560
2020/01/31 04:25:57.3	92.660	0.470	-0.920	0.530
2020/01/31 04:25:57.4	92.650	0.490	-0.900	0.510
2020/01/31 04:25:57.5	92.650	0.500	-0.880	0.490
2020/01/31 04:25:57.6	92.640	0.510	-0.840	0.470
2020/01/31 04:25:57.7	92.630	0.510	-0.810	0.460
2020/01/31 04:25:57.8	92.630	0.510	-0.770	0.440
2020/01/31 04:25:57.9	92.620	0.510	-0.730	0.430
2020/01/31 04:25:58.0	92.610	0.500	-0.680	0.430
2020/01/31 04:25:58.1	92.610	0.490	-0.620	0.420
2020/01/31 04:25:58.2	92.610	0.470	-0.570	0.420
2020/01/31 04:25:58.3	92.600	0.450	-0.510	0.420
2020/01/31 04:25:58.4	92.590	0.430	-0.450	0.430
2020/01/31 04:25:58.5	92.590	0.400	-0.390	0.430
2020/01/31 04:25:58.6	92.580	0.370	-0.330	0.440
2020/01/31 04:25:58.7	92.570	0.340	-0.260	0.460
2020/01/31 04:25:58.8	92.570	0.300	-0.200	0.470
2020/01/31 04:25:58.9	92.560	0.260	-0.140	0.490
2020/01/31 04:25:59.0	92.560	0.230	-0.070	0.510
2020/01/31 04:25:59.1	92.560	0.180	-0.010	0.530
2020/01/31 04:25:59.2	92.560	0.140	0.050	0.550
2020/01/31 04:25:59.3	92.560	0.100	0.110	0.570
2020/01/31 04:25:59.4	92.560	0.060	0.160	0.590
2020/01/31 04:25:59.5	92.560	0.010	0.220	0.610
2020/01/31 04:25:59.6	92.560	-0.030	0.270	0.630
2020/01/31 04:25:59.7	92.560	-0.070	0.310	0.650
2020/01/31 04:25:59.8	92.560	-0.120	0.350	0.670
2020/01/31 04:25:59.9	92.560	-0.160	0.390	0.690
2020/01/31 04:26:00.0	92.570	-0.200	0.420	0.710
2020/01/31 04:26:00.1	92.560	-0.240	0.450	0.730
2020/01/31 04:26:00.2	92.570	-0.270	0.470	0.750
2020/01/31 04:26:00.3	92.570	-0.310	0.490	0.760
2020/01/31 04:26:00.4	92.570	-0.340	0.510	0.770
2020/01/31 04:26:00.5	92.580	-0.380	0.510	0.780
2020/01/31 04:26:00.6	92.580	-0.410	0.520	0.790
2020/01/31 04:26:00.7	92.590	-0.430	0.520	0.790
2020/01/31 04:26:00.8	92.590	-0.460	0.510	0.800
2020/01/31 04:26:00.9	92.600	-0.490	0.510	0.800
2020/01/31 04:26:01.0	92.600	-0.510	0.490	0.800
2020/01/31 04:26:01.1	92.620	-0.530	0.480	0.800
2020/01/31 04:26:01.2	92.620	-0.550	0.460	0.800
2020/01/31 04:26:01.3	92.630	-0.560	0.430	0.800
2020/01/31 04:26:01.4	92.640	-0.570	0.400	0.800
2020/01/31 04:26:01.5	92.650	-0.580	0.370	0.800
2020/01/31 04:26:01.6	92.650	-0.590	0.330	0.800
2020/01/31 04:26:01.7	92.660	-0.590	0.290	0.800
2020/01/31 04:26:01.8	92.670	-0.590	0.240	0.800
2020/01/31 04:26:01.9	92.670	-0.590	0.190	0.800
2020/01/31 04:26:02.0	92.680	-0.580	0.140	0.800
2020/01/31 04:26:02.1	92.680	-0.570	0.090	0.810
2020/01/31 04:26:02.2	92.690	-0.560	0.030	0.810
2020/01/31 04:26:02.3	92.690	-0.540	-0.040	0.820
2020/01/31 04:26:02.4	92.700	-0.520	-0.100	0.830
2020/01/31 04:26:02.5	92.700	-0.500	-0.170	0.830
2020/01/31 04:26:02.6	92.710	-0.470	-0.240	0.840
2020/01/31 04:26:02.7	92.710	-0.440	-0.310	0.850
2020/01/31 04:26:02.8	92.710	-0.400	-0.390	0.860
2020/01/31 04:26:02.9	92.720	-0.360	-0.460	0.880
2020/01/31 04:26:03.0	92.720	-0.320	-0.530	0.890
2020/01/31 04:26:03.1	92.710	-0.280	-0.610	0.900
2020/01/31 04:26:03.2	92.710	-0.230	-0.680	0.910
2020/01/31 04:26:03.3	92.720	-0.180	-0.750	0.920
2020/01/31 04:26:03.4	92.720	-0.130	-0.820	0.920
2020/01/31 04:26:03.5	92.720	-0.080	-0.880	0.930
2020/01/31 04:26:03.6	92.720	-0.020	-0.940	0.940
2020/01/31 04:26:03.7	92.720	0.030	-0.990	0.940
2020/01/31 04:26:03.8	92.720	0.080	-1.030	0.950
2020/01/31 04:26:03.9	92.710	0.130	-1.070	0.950
2020/01/31 04:26:04.0	92.710	0.180	-1.100	0.950
2020/01/31 04:26:04.1	92.710	0.230	-1.120	0.960
2020/01/31 04:26:04.2	92.700	0.270	-1.130	0.960
2020/01/31 04:26:04.3	92.690	0.310	-1.130	0.960
2020/01/31 04:26:04.4	92.680	0.350	-1.120	0.960
2020/01/31 04:26:04.5	92.660	0.380	-1.100	0.950
2020/01/31 04:26:04.6	92.650	0.410	-1.070	0.950
2020/01/31 04:26:04.7	92.630	0.430	-1.030	0.950
2020/01/31 04:26:04.8	92.610	0.450	-0.980	0.940
2020/01/31 04:26:04.9	92.590	0.460	-0.920	0.930
2020/01/31 04:26:05.0	92.560	0.460	-0.850	0.920
2020/01/31 04:26:05.1	92.540	0.470	-0.780	0.920
2020/01/31 04:26:05.2	92.510	0.460	-0.690	0.910
2020/01/31 04:26:05.3	92.490	0.450	-0.600	0.890
2020/01/31 04:26:05.4	92.460	0.430	-0.510	0.880
2020/01/31 04:26:05.5	92.420	0.410	-0.410	0.860
2020/01/31 04:26:05.6	92.390	0.390	-0.300	0.850
2020/01/31 04:26:05.7	92.360	0.360	-0.200	0.830
2020/01/31 04:26:05.8	92.320	0.330	-0.090	0.820
2020/01/31 04:26:05.9	92.290	0.290	0.010	0.800
2020/01/31 04:26:06.0	92.250	0.250	0.120	0.790
2020/01/31 04:26:06.1	92.210	0.210	0.220	0.770
2020/01/31 04:26:06.2	92.180	0.170	0.320	0.760
2020/01/31 04:26:06.3	92.140	0.120	0.410	0.740
2020/01/31 04:26:06.4	92.100	0.080	0.490	0.730
2020/01/31 04:26:06.5	92.070	0.030	0.570	0.710
2020/01/31 04:26:06.6	92.030	-0.010	0.640	0.700
2020/01/31 04:26:06.7	92.000	-0.050	0.700	0.680
2020/01/31 04:26:06.8	91.970	-0.090	0.750	0.670
2020/01/31 04:26:06.9	91.940	-0.130	0.790	0.650
2020/01/31 04:26:07.0	91.910	-0.160	0.810	0.620
2020/01/31 04:26:07.1	91.880	-0.190	0.830	0.610
2020/01/31 04:26:07.2	91.860	-0.220	0.830	0.580
2020/01/31 04:26:07.3	91.840	-0.240	0.820	0.550
2020/01/31 04:26:07.4	91.820	-0.250	0.790	0.510
2020/01/31 04:26:07.5	91.810	-0.260	0.760	0.480
2020/01/31 04:26:07.6	91.800	-0.270	0.710	0.440
2020/01/31 04:26:07.7	91.800	-0.270	0.650	0.390
2020/01/31 04:26:07.8	91.790	-0.260	0.570	0.350
2020/01/31 04:26:07.9	91.790	-0.250	0.490	0.300
2020/01/31 04:26:08.0	91.800	-0.230	0.390	0.250
2020/01/31 04:26:08.1	91.800	-0.210	0.290	0.190
2020/01/31 04:26:08.2	91.810	-0.180	0.180	0.140
2020/01/31 04:26:08.3	91.820	-0.150	0.070	0.090
2020/01/31 04:26:08.4	91.830	-0.120	-0.050	0.040
2020/01/31 04:26:08.5	91.850	-0.080	-0.180	-0.010
2020/01/31 04:26:08.6	91.870	-0.030	-0.300	-0.060
2020/01/31 04:26:08.7	91.890	0.010	-0.430	-0.110
2020/01/31 04:26:08.8	91.910	0.060	-0.560	-0.150
2020/01/31 04:26:08.9	91.930	0.110	-0.680	-0.180
2020/01/31 04:26:09.0	91.950	0.160	-0.800	-0.210
2020/01/31 04:26:09.1	91.970	0.210	-0.920	-0.240
2020/01/31 04:26:09.2	91.990	0.270	-1.030	-0.250
2020/01/31 04:26:09.3	92.010	0.320	-1.130	-0.260
2020/01/31 04:26:09.4	92.030	0.370	-1.230	-0.260
2020/01/31 04:26:09.5	92.060	0.420	-1.310	-0.260
2020/01/31 04:26:09.6	92.080	0.460	-1.380	-0.250
2020/01/31 04:26:09.7	92.100	0.500	-1.450	-0.230
2020/01/31 04:26:09.8	92.120	0.540	-1.500	-0.210
2020/01/31 04:26:09.9	92.150	0.580	-1.530	-0.180
2020/01/31 04:26:10.0	92.170	0.610	-1.550	-0.140
2020/01/31 04:26:10.1	92.190	0.630	-1.560	-0.100
2020/01/31 04:26:10.2	92.220	0.650	-1.550	-0.050
2020/01/31 04:26:10.3	92.240	0.660	-1.520	-0.000
2020/01/31 04:26:10.4	92.260	0.660	-1.480	0.050
2020/01/31 04:26:10.5	92.280	0.660	-1.430	0.100
2020/01/31 04:26:10.6	92.300	0.650	-1.360	0.160
2020/01/31 04:26:10.7	92.310	0.630	-1.270	0.220
2020/01/31 04:26:10.8	92.330	0.600	-1.180	0.280
2020/01/31 04:26:10.9	92.340	0.570	-1.070	0.340
2020/01/31 04:26:11.0	92.350	0.530	-0.940	0.400
2020/01/31 04:26:11.1	92.360	0.480	-0.810	0.460
2020/01/31 04:26:11.2	92.360	0.420	-0.670	0.520
2020/01/31 04:26:11.3	92.370	0.360	-0.520	0.590
2020/01/31 04:26:11.4	92.370	0.290	-0.370	0.650
2020/01/31 04:26:11.5	92.360	0.220	-0.210	0.710
2020/01/31 04:26:11.6	92.360	0.140	-0.050	0.770
2020/01/31 04:26:11.7	92.350	0.050	0.120	0.820
2020/01/31 04:26:11.8	92.340	-0.030	0.280	0.880
2020/01/31 04:26:11.9	92.330	-0.130	0.440	0.940
2020/01/31 04:26:12.0	92.310	-0.220	0.600	1.000
2020/01/31 04:26:12.1	92.310	-0.310	0.760	1.060
2020/01/31 04:26:12.2	92.290	-0.410	0.900	1.110
2020/01/31 04:26:12.3	92.270	-0.500	1.040	1.170
2020/01/31 04:26:12.4	92.250	-0.600	1.170	1.220
2020/01/31 04:26:12.5	92.230	-0.690	1.280	1.270
2020/01/31 04:26:12.6	92.210	-0.770	1.380	1.310
2020/01/31 04:26:12.7	92.190	-0.860	1.470	1.360
2020/01/31 04:26:12.8	92.170	-0.940	1.540	1.400
2020/01/31 04:26:12.9	92.150	-1.010	1.600	1.430
2020/01/31 04:26:13.0	92.130	-1.070	1.640	1.460
2020/01/31 04:26:13.1	92.110	-1.130	1.660	1.490
2020/01/31 04:26:13.2	92.090	-1.180	1.670	1.510
2020/01/31 04:26:13.3	92.070	-1.210	1.650	1.520
2020/01/31 04:26:13.4	92.050	-1.240	1.610	1.530
2020/01/31 04:26:13.5	92.040	-1.260	1.560	1.530
2020/01/31 04:26:13.6	92.020	-1.270	1.480	1.530
2020/01/31 04:26:13.7	92.010	-1.260	1.390	1.520
2020/01/31 04:26:13.8	91.990	-1.250	1.280	1.500
2020/01/31 04:26:13.9	91.970	-1.220	1.150	1.480
2020/01/31 04:26:14.0	91.960	-1.180	1.010	1.460
2020/01/31 04:26:14.1	91.950	-1.140	0.850	1.430
2020/01/31 04:26:14.2	91.930	-1.080	0.680	1.390
2020/01/31 04:26:14.3	91.920	-1.010	0.500	1.360
2020/01/31 04:26:14.4	91.910	-0.940	0.320	1.320
2020/01/31 04:26:14.5	91.900	-0.850	0.120	1.280
2020/01/31 04:26:14.6	91.890	-0.760	-0.080	1.230
2020/01/31 04:26:14.7	91.880	-0.670	-0.280	1.190
2020/01/31 04:26:14.8	91.870	-0.570	-0.480	1.140
2020/01/31 04:26:14.9	91.860	-0.460	-0.680	1.100
2020/01/31 04:26:15.0	91.860	-0.350	-0.870	1.050
2020/01/31 04:26:15.1	91.860	-0.240	-1.070	1.000
2020/01/31 04:26:15.2	91.850	-0.130	-1.260	0.960
2020/01/31 04:26:15.3	91.850	-0.020	-1.430	0.910
2020/01/31 04:26:15.4	91.860	0.090	-1.590	0.870
2020/01/31 04:26:15.5	91.860	0.200	-1.740	0.830
2020/01/31 04:26:15.6	91.860	0.310	-1.880	0.780
2020/01/31 04:26:15.7	91.870	0.410	-2.000	0.750
2020/01/31 04:26:15.8	91.880	0.510	-2.100	0.710
2020/01/31 04:26:15.9	91.890	0.600	-2.180	0.670
2020/01/31 04:26:16.0	91.900	0.680	-2.250	0.630
2020/01/31 04:26:16.1	91.910	0.760	-2.290	0.600
2020/01/31 04:26:16.2	91.920	0.830	-2.310	0.570
2020/01/31 04:26:16.3	91.940	0.890	-2.310	0.540
2020/01/31 04:26:16.4	91.950	0.940	-2.300	0.510
2020/01/31 04:26:16.5	91.960	0.990	-2.260	0.480
2020/01/31 04:26:16.6	91.970	1.020	-2.200	0.460
2020/01/31 04:26:16.7	91.990	1.050	-2.120	0.430
2020/01/31 04:26:16.8	92.000	1.060	-2.020	0.410
2020/01/31 04:26:16.9	92.010	1.070	-1.910	0.390
2020/01/31 04:26:17.0	92.020	1.060	-1.780	0.370
2020/01/31 04:26:17.1	92.030	1.050	-1.630	0.350
2020/01/31 04:26:17.2	92.050	1.030	-1.470	0.340
2020/01/31 04:26:17.3	92.060	1.000	-1.300	0.330
2020/01/31 04:26:17.4	92.070	0.960	-1.120	0.310
2020/01/31 04:26:17.5	92.080	0.920	-0.930	0.310
2020/01/31 04:26:17.6	92.090	0.870	-0.740	0.300
2020/01/31 04:26:17.7	92.100	0.810	-0.540	0.300
2020/01/31 04:26:17.8	92.110	0.750	-0.340	0.300
2020/01/31 04:26:17.9	92.120	0.680	-0.140	0.310
2020/01/31 04:26:18.0	92.130	0.610	0.060	0.310
2020/01/31 04:26:18.1	92.120	0.540	0.270	0.320
2020/01/31 04:26:18.2	92.120	0.470	0.450	0.340
2020/01/31 04:26:18.3	92.120	0.390	0.630	0.350
2020/01/31 04:26:18.4	92.120	0.310	0.800	0.370
2020/01/31 04:26:18.5	92.120	0.240	0.950	0.390
2020/01/31 04:26:18.6	92.110	0.160	1.090	0.410
2020/01/31 04:26:18.7	92.100	0.090	1.210	0.440
2020/01/31 04:26:18.8	92.090	0.020	1.320	0.460
2020/01/31 04:26:18.9	92.070	-0.050	1.410	0.490
2020/01/31 04:26:19.0	92.060	-0.120	1.490	0.520
2020/01/31 04:26:19.1	92.030	-0.170	1.550	0.550
2020/01/31 04:26:19.2	92.010	-0.230	1.580	0.590
2020/01/31 04:26:19.3	91.990	-0.280	1.600	0.620
2020/01/31 04:26:19.4	91.960	-0.320	1.610	0.650
2020/01/31 04:26:19.5	91.930	-0.360	1.590	0.680
2020/01/31 04:26:19.6	91.900	-0.390	1.550	0.710
2020/01/31 04:26:19.7	91.870	-0.410	1.500	0.740
2020/01/31 04:26:19.8	91.840	-0.430	1.430	0.760
2020/01/31 04:26:19.9	91.810	-0.450	1.350	0.790
2020/01/31 04:26:20.0	91.780	-0.450	1.250	0.810
2020/01/31 04:26:20.1	91.750	-0.450	1.140	0.820
2020/01/31 04:26:20.2	91.730	-0.450	1.020	0.840
2020/01/31 04:26:20.3	91.710	-0.430	0.890	0.850
2020/01/31 04:26:20.4	91.690	-0.420	0.750	0.850
2020/01/31 04:26:20.5	91.680	-0.390	0.600	0.850
2020/01/31 04:26:20.6	91.670	-0.370	0.450	0.850
2020/01/31 04:26:20.7	91.670	-0.330	0.290	0.850
2020/01/31 04:26:20.8	91.660	-0.300	0.130	0.830
2020/01/31 04:26:20.9	91.670	-0.260	-0.030	0.820
2020/01/31 04:26:21.0	91.670	-0.220	-0.190	0.810
2020/01/31 04:26:21.1	91.680	-0.170	-0.350	0.790
2020/01/31 04:26:21.2	91.690	-0.120	-0.510	0.770
2020/01/31 04:26:21.3	91.710	-0.070	-0.660	0.750
2020/01/31 04:26:21.4	91.740	-0.020	-0.810	0.730
2020/01/31 04:26:21.5	91.760	0.030	-0.950	0.710
2020/01/31 04:26:21.6	91.790	0.080	-1.080	0.690
2020/01/31 04:26:21.7	91.810	0.130	-1.200	0.670
2020/01/31 04:26:21.8	91.840	0.170	-1.300	0.660
2020/01/31 04:26:21.9	91.870	0.220	-1.400	0.650
2020/01/31 04:26:22.0	91.890	0.260	-1.480	0.650
2020/01/31 04:26:22.1	91.910	0.290	-1.540	0.650
2020/01/31 04:26:22.2	91.940	0.330	-1.590	0.650
2020/01/31 04:26:22.3	91.960	0.360	-1.620	0.650
2020/01/31 04:26:22.4	91.980	0.380	-1.640	0.660
2020/01/31 04:26:22.5	92.000	0.400	-1.640	0.670
2020/01/31 04:26:22.6	92.020	0.410	-1.630	0.680
2020/01/31 04:26:22.7	92.030	0.420	-1.600	0.700
2020/01/31 04:26:22.8	92.050	0.420	-1.560	0.710
2020/01/31 04:26:22.9	92.060	0.420	-1.500	0.730
2020/01/31 04:26:23.0	92.080	0.400	-1.430	0.750
2020/01/31 04:26:23.1	92.080	0.390	-1.340	0.770
2020/01/31 04:26:23.2	92.100	0.370	-1.250	0.790
2020/01/31 04:26:23.3	92.100	0.340	-1.150	0.810
2020/01/31 04:26:23.4	92.110	0.300	-1.030	0.830
2020/01/31 04:26:23.5	92.110	0.270	-0.910	0.850
2020/01/31 04:26:23.6	92.110	0.220	-0.790	0.870
2020/01/31 04:26:23.7	92.110	0.180	-0.650	0.890
2020/01/31 04:26:23.8	92.110	0.130	-0.520	0.910
2020/01/31 04:26:23.9	92.110	0.070	-0.380	0.930
2020/01/31 04:26:24.0	92.100	0.020	-0.250	0.950
2020/01/31 04:26:24.1	92.100	-0.040	-0.110	0.980
2020/01/31 04:26:24.2	92.090	-0.100	0.020	1.000
2020/01/31 04:26:24.3	92.080	-0.150	0.140	1.020
2020/01/31 04:26:24.4	92.060	-0.210	0.270	1.040
2020/01/31 04:26:24.5	92.050	-0.270	0.380	1.060
2020/01/31 04:26:24.6	92.030	-0.320	0.490	1.080
2020/01/31 04:26:24.7	92.010	-0.380	0.590	1.110
2020/01/31 04:26:24.8	92.000	-0.430	0.680	1.130
2020/01/31 04:26:24.9	91.980	-0.470	0.760	1.150
2020/01/31 04:26:25.0	91.950	-0.510	0.830	1.170
2020/01/31 04:26:25.1	91.930	-0.550	0.890	1.190
2020/01/31 04:26:25.2	91.910	-0.590	0.930	1.210
2020/01/31 04:26:25.3	91.890	-0.610	0.970	1.220
2020/01/31 04:26:25.4	91.870	-0.640	0.990	1.230
2020/01/31 04:26:25.5	91.850	-0.650	0.990	1.240
2020/01/31 04:26:25.6	91.830	-0.660	0.990	1.240
2020/01/31 04:26:25.7	91.820	-0.670	0.970	1.240
2020/01/31 04:26:25.8	91.800	-0.660	0.940	1.230
2020/01/31 04:26:25.9	91.790	-0.650	0.900	1.210
2020/01/31 04:26:26.0	91.780	-0.640	0.840	1.190
2020/01/31 04:26:26.1	91.780	-0.620	0.780	1.170
2020/01/31 04:26:26.2	91.780	-0.590	0.700	1.140
2020/01/31 04:26:26.3	91.770	-0.560	0.620	1.100
2020/01/31 04:26:26.4	91.780	-0.520	0.530	1.060
2020/01/31 04:26:26.5	91.780	-0.480	0.430	1.020
2020/01/31 04:26:26.6	91.780	-0.430	0.330	0.980
2020/01/31 04:26:26.7	91.790	-0.380	0.220	0.930
2020/01/31 04:26:26.8	91.790	-0.330	0.110	0.880
2020/01/31 04:26:26.9	91.800	-0.270	-0.000	0.840
2020/01/31 04:26:27.0	91.810	-0.210	-0.110	0.790
2020/01/31 04:26:27.1	91.810	-0.160	-0.230	0.740
2020/01/31 04:26:27.2	91.810	-0.100	-0.330	0.700
2020/01/31 04:26:27.3	91.810	-0.050	-0.430	0.660
2020/01/31 04:26:27.4	91.810	0.010	-0.520	0.620
2020/01/31 04:26:27.5	91.810	0.060	-0.610	0.580
2020/01/31 04:26:27.6	91.810	0.100	-0.690	0.540
2020/01/31 04:26:27.7	91.800	0.150	-0.760	0.500
2020/01/31 04:26:27.8	91.790	0.190	-0.820	0.470
2020/01/31 04:26:27.9	91.780	0.230	-0.870	0.440
2020/01/31 04:26:28.0	91.770	0.260	-0.920	0.410
2020/01/31 04:26:28.1	91.770	0.290	-0.950	0.390
2020/01/31 04:26:28.2	91.750	0.320	-0.980	0.360
2020/01/31 04:26:28.3	91.740	0.340	-0.990	0.340
2020/01/31 04:26:28.4	91.730	0.350	-1.000	0.320
2020/01/31 04:26:28.5	91.710	0.370	-1.000	0.300
2020/01/31 04:26:28.6	91.700	0.370	-0.990	0.280
2020/01/31 04:26:28.7	91.680	0.380	-0.960	0.260
2020/01/31 04:26:28.8	91.670	0.380	-0.940	0.250
2020/01/31 04:26:28.9	91.660	0.370	-0.900	0.230
2020/01/31 04:26:29.0	91.650	0.360	-0.860	0.220
2020/01/31 04:26:29.1	91.640	0.350	-0.810	0.200
2020/01/31 04:26:29.2	91.630	0.340	-0.750	0.190
2020/01/31 04:26:29.3	91.620	0.320	-0.700	0.180
2020/01/31 04:26:29.4	91.620	0.300	-0.640	0.170
2020/01/31 04:26:29.5	91.620	0.280	-0.580	0.160
2020/01/31 04:26:29.6	91.620	0.260	-0.510	0.150
2020/01/31 04:26:29.7	91.620	0.250	-0.450	0.150
2020/01/31 04:26:29.8	91.630	0.230	-0.390	0.140
2020/01/31 04:26:29.9	91.630	0.210	-0.330	0.140
2020/01/31 04:26:30.0	91.640	0.190	-0.270	0.140
2020/01/31 04:26:30.1	91.640	0.170	-0.220	0.140
2020/01/31 04:26:30.2	91.650	0.150	-0.160	0.150
2020/01/31 04:26:30.3	91.660	0.140	-0.110	0.150
2020/01/31 04:26:30.4	91.670	0.120	-0.070	0.160
2020/01/31 04:26:30.5	91.680	0.110	-0.020	0.170
2020/01/31 04:26:30.6	91.680	0.090	0.020	0.180
2020/01/31 04:26:30.7	91.690	0.080	0.050	0.200
2020/01/31 04:26:30.8	91.700	0.070	0.090	0.220
2020/01/31 04:26:30.9	91.710	0.060	0.120	0.240
2020/01/31 04:26:31.0	91.720	0.050	0.140	0.260
2020/01/31 04:26:31.1	91.730	0.040	0.170	0.280
2020/01/31 04:26:31.2	91.730	0.030	0.190	0.300
2020/01/31 04:26:31.3	91.730	0.020	0.200	0.330
2020/01/31 04:26:31.4	91.740	0.010	0.210	0.350
2020/01/31 04:26:31.5	91.740	-0.000	0.220	0.370
2020/01/31 04:26:31.6	91.740	-0.010	0.220	0.400
2020/01/31 04:26:31.7	91.730	-0.020	0.220	0.420
2020/01/31 04:26:31.8	91.730	-0.020	0.220	0.440
2020/01/31 04:26:31.9	91.720	-0.030	0.210	0.470
2020/01/31 04:26:32.0	91.710	-0.030	0.190	0.490
2020/01/31 04:26:32.1	91.710	-0.030	0.170	0.520
2020/01/31 04:26:32.2	91.700	-0.030	0.150	0.540
2020/01/31 04:26:32.3	91.690	-0.030	0.120	0.560
2020/01/31 04:26:32.4	91.670	-0.030	0.090	0.580
2020/01/31 04:26:32.5	91.660	-0.030	0.050	0.610
2020/01/31 04:26:32.6	91.640	-0.020	0.010	0.630
2020/01/31 04:26:32.7	91.620	-0.020	-0.040	0.650
2020/01/31 04:26:32.8	91.610	-0.010	-0.080	0.670
2020/01/31 04:26:32.9	91.590	0.000	-0.130	0.690
2020/01/31 04:26:33.0	91.570	0.010	-0.180	0.710
2020/01/31 04:26:33.1	91.550	0.030	-0.230	0.730
2020/01/31 04:26:33.2	91.540	0.040	-0.280	0.750
2020/01/31 04:26:33.3	91.520	0.050	-0.330	0.770
2020/01/31 04:26:33.4	91.510	0.070	-0.380	0.780
2020/01/31 04:26:33.5	91.500	0.080	-0.420	0.800
2020/01/31 04:26:33.6	91.490	0.100	-0.460	0.820
2020/01/31 04:26:33.7	91.480	0.110	-0.500	0.840
2020/01/31 04:26:33.8	91.470	0.130	-0.530	0.850
2020/01/31 04:26:33.9	91.460	0.140	-0.560	0.870
2020/01/31 04:26:34.0	91.460	0.160	-0.590	0.890
2020/01/31 04:26:34.1	91.460	0.170	-0.610	0.900
2020/01/31 04:26:34.2	91.460	0.180	-0.630	0.920
2020/01/31 04:26:34.3	91.460	0.190	-0.640	0.930
2020/01/31 04:26:34.4	91.460	0.210	-0.650	0.950
2020/01/31 04:26:34.5	91.460	0.220	-0.650	0.960
2020/01/31 04:26:34.6	91.460	0.230	-0.660	0.970
2020/01/31 04:26:34.7	91.460	0.230	-0.650	0.980
2020/01/31 04:26:34.8	91.470	0.240	-0.650	0.990
2020/01/31 04:26:34.9	91.470	0.250	-0.640	0.990
2020/01/31 04:26:35.0	91.470	0.250	-0.630	1.000
2020/01/31 04:26:35.1	91.480	0.260	-0.620	1.000
2020/01/31 04:26:35.2	91.480	0.260	-0.610	1.000
2020/01/31 04:26:35.3	91.490	0.270	-0.600	1.000
2020/01/31 04:26:35.4	91.490	0.270	-0.580	1.000
2020/01/31 04:26:35.5	91.500	0.270	-0.570	1.000
2020/01/31 04:26:35.6	91.500	0.270	-0.550	0.990
2020/01/31 04:26:35.7	91.500	0.270	-0.530	0.990
2020/01/31 04:26:35.8	91.500	0.270	-0.520	0.980
2020/01/31 04:26:35.9	91.510	0.270	-0.500	0.970
2020/01/31 04:26:36.0	91.510	0.260	-0.480	0.970
2020/01/31 04:26:36.1	91.510	0.260	-0.450	0.960
2020/01/31 04:26:36.2	91.510	0.250	-0.430	0.950
2020/01/31 04:26:36.3	91.510	0.250	-0.410	0.940
2020/01/31 04:26:36.4	91.510	0.240	-0.380	0.920
2020/01/31 04:26:36.5	91.510	0.230	-0.360	0.910
2020/01/31 04:26:36.6	91.500	0.220	-0.330	0.900
2020/01/31 04:26:36.7	91.500	0.210	-0.310	0.890
2020/01/31 04:26:36.8	91.500	0.200	-0.280	0.870
2020/01/31 04:26:36.9	91.490	0.190	-0.250	0.860
2020/01/31 04:26:37.0	91.490	0.170	-0.220	0.840
2020/01/31 04:26:37.1	91.480	0.160	-0.200	0.830
2020/01/31 04:26:37.2	91.470	0.140	-0.170	0.820
2020/01/31 04:26:37.3	91.470	0.130	-0.140	0.800
2020/01/31 04:26:37.4	91.460	0.110	-0.110	0.790
2020/01/31 04:26:37.5	91.450	0.090	-0.080	0.770
2020/01/31 04:26:37.6	91.450	0.070	-0.060	0.760
2020/01/31 04:26:37.7	91.440	0.050	-0.030	0.740
2020/01/31 04:26:37.8	91.430	0.030	-0.010	0.730
2020/01/31 04:26:37.9	91.420	0.010	0.020	0.720
2020/01/31 04:26:38.0	91.420	-0.010	0.040	0.700
2020/01/31 04:26:38.1	91.410	-0.030	0.060	0.690
2020/01/31 04:26:38.2	91.410	-0.050	0.080	0.670
2020/01/31 04:26:38.3	91.400	-0.070	0.100	0.660
2020/01/31 04:26:38.4	91.400	-0.080	0.110	0.640
2020/01/31 04:26:38.5	91.400	-0.100	0.120	0.630
2020/01/31 04:26:38.6	91.390	-0.120	0.130	0.610
2020/01/31 04:26:38.7	91.390	-0.140	0.140	0.600
2020/01/31 04:26:38.8	91.400	-0.160	0.150	0.580
2020/01/31 04:26:38.9	91.400	-0.170	0.150	0.570
2020/01/31 04:26:39.0	91.400	-0.190	0.160	0.560
2020/01/31 04:26:39.1	91.410	-0.200	0.160	0.550
2020/01/31 04:26:39.2	91.420	-0.220	0.160	0.540
2020/01/31 04:26:39.3	91.430	-0.230	0.160	0.530
2020/01/31 04:26:39.4	91.440	-0.240	0.160	0.520
2020/01/31 04:26:39.5	91.450	-0.250	0.160	0.520
2020/01/31 04:26:39.6	91.470	-0.270	0.150	0.510
2020/01/31 04:26:39.7	91.480	-0.280	0.150	0.510
2020/01/31 04:26:39.8	91.490	-0.290	0.150	0.510
2020/01/31 04:26:39.9	91.510	-0.300	0.140	0.510
2020/01/31 04:26:40.0	91.520	-0.310	0.140	0.510
2020/01/31 04:26:40.1	91.540	-0.320	0.140	0.520
2020/01/31 04:26:40.2	91.550	-0.330	0.130	0.520
2020/01/31 04:26:40.3	91.560	-0.340	0.120	0.530
2020/01/31 04:26:40.4	91.570	-0.350	0.110	0.530
2020/01/31 04:26:40.5	91.580	-0.350	0.100	0.530
2020/01/31 04:26:40.6	91.590	-0.360	0.090	0.540
2020/01/31 04:26:40.7	91.600	-0.360	0.080	0.540
2020/01/31 04:26:40.8	91.610	-0.370	0.060	0.540
2020/01/31 04:26:40.9	91.620	-0.370	0.040	0.540
2020/01/31 04:26:41.0	91.620	-0.370	0.020	0.540
2020/01/31 04:26:41.1	91.630	-0.370	-0.010	0.540
2020/01/31 04:26:41.2	91.640	-0.360	-0.040	0.540
2020/01/31 04:26:41.3	91.640	-0.360	-0.070	0.540
2020/01/31 04:26:41.4	91.650	-0.350	-0.100	0.530
2020/01/31 04:26:41.5	91.650	-0.340	-0.140	0.530
2020/01/31 04:26:41.6	91.660	-0.330	-0.180	0.530
2020/01/31 04:26:41.7	91.660	-0.320	-0.220	0.530
2020/01/31 04:26:41.8	91.670	-0.300	-0.260	0.530
2020/01/31 04:26:41.9	91.670	-0.280	-0.300	0.530
2020/01/31 04:26:42.0	91.680	-0.260	-0.340	0.530
2020/01/31 04:26:42.1	91.690	-0.240	-0.380	0.540
2020/01/31 04:26:42.2	91.690	-0.210	-0.430	0.540
2020/01/31 04:26:42.3	91.700	-0.190	-0.470	0.550
2020/01/31 04:26:42.4	91.700	-0.160	-0.510	0.550
2020/01/31 04:26:42.5	91.710	-0.130	-0.550	0.560
2020/01/31 04:26:42.6	91.720	-0.100	-0.590	0.570
2020/01/31 04:26:42.7	91.730	-0.070	-0.630	0.580
2020/01/31 04:26:42.8	91.740	-0.040	-0.660	0.590
2020/01/31 04:26:42.9	91.740	-0.010	-0.690	0.610
2020/01/31 04:26:43.0	91.750	0.030	-0.720	0.620
2020/01/31 04:26:43.1	91.760	0.060	-0.750	0.640
2020/01/31 04:26:43.2	91.770	0.090	-0.770	0.660
2020/01/31 04:26:43.3	91.770	0.120	-0.790	0.680
2020/01/31 04:26:43.4	91.780	0.150	-0.800	0.700
2020/01/31 04:26:43.5	91.780	0.180	-0.810	0.720
2020/01/31 04:26:43.6	91.780	0.210	-0.820	0.750
2020/01/31 04:26:43.7	91.780	0.240	-0.820	0.770
2020/01/31 04:26:43.8	91.780	0.260	-0.810	0.800
2020/01/31 04:26:43.9	91.770	0.280	-0.800	0.830
2020/01/31 04:26:44.0	91.770	0.300	-0.790	0.850
2020/01/31 04:26:44.1	91.770	0.320	-0.760	0.880
2020/01/31 04:26:44.2	91.770	0.330	-0.740	0.900
2020/01/31 04:26:44.3	91.760	0.340	-0.710	0.920
2020/01/31 04:26:44.4	91.760	0.350	-0.670	0.930
2020/01/31 04:26:44.5	91.750	0.350	-0.630	0.950
2020/01/31 04:26:44.6	91.750	0.350	-0.580	0.960
2020/01/31 04:26:44.7	91.740	0.340	-0.530	0.970
2020/01/31 04:26:44.8	91.740	0.330	-0.470	0.980
2020/01/31 04:26:44.9	91.740	0.320	-0.410	0.980
2020/01/31 04:26:45.0	91.740	0.310	-0.350	0.990
2020/01/31 04:26:45.1	91.730	0.290	-0.280	0.990
2020/01/31 04:26:45.2	91.730	0.270	-0.210	0.990
2020/01/31 04:26:45.3	91.730	0.240	-0.140	0.990
2020/01/31 04:26:45.4	91.740	0.220	-0.070	0.980
2020/01/31 04:26:45.5	91.740	0.190	0.000	0.980
2020/01/31 04:26:45.6	91.750	0.160	0.070	0.970
2020/01/31 04:26:45.7	91.750	0.120	0.140	0.960
2020/01/31 04:26:45.8	91.760	0.090	0.210	0.950
2020/01/31 04:26:45.9	91.770	0.060	0.280	0.930
2020/01/31 04:26:46.0	91.780	0.020	0.340	0.920
2020/01/31 04:26:46.1	91.780	-0.010	0.400	0.900
2020/01/31 04:26:46.2	91.800	-0.050	0.460	0.890
2020/01/31 04:26:46.3	91.810	-0.080	0.510	0.870
2020/01/31 04:26:46.4	91.820	-0.110	0.550	0.850
2020/01/31 04:26:46.5	91.830	-0.140	0.590	0.830
2020/01/31 04:26:46.6	91.840	-0.170	0.620	0.810
2020/01/31 04:26:46.7	91.850	-0.200	0.640	0.790
2020/01/31 04:26:46.8	91.860	-0.220	0.650	0.770
2020/01/31 04:26:46.9	91.870	-0.240	0.660	0.740
2020/01/31 04:26:47.0	91.880	-0.260	0.650	0.720
2020/01/31 04:26:47.1	91.900	-0.270	0.640	0.700
2020/01/31 04:26:47.2	91.910	-0.280	0.620	0.680
2020/01/31 04:26:47.3	91.920	-0.290	0.590	0.660
2020/01/31 04:26:47.4	91.920	-0.290	0.540	0.650
2020/01/31 04:26:47.5	91.930	-0.280	0.490	0.630
2020/01/31 04:26:47.6	91.930	-0.280	0.430	0.610
2020/01/31 04:26:47.7	91.940	-0.260	0.360	0.590
2020/01/31 04:26:47.8	91.940	-0.240	0.290	0.580
2020/01/31 04:26:47.9	91.940	-0.220	0.200	0.560
2020/01/31 04:26:48.0	91.950	-0.190	0.110	0.540
2020/01/31 04:26:48.1	91.950	-0.160	0.020	0.530
2020/01/31 04:26:48.2	91.950	-0.130	-0.080	0.510
2020/01/31 04:26:48.3	91.960	-0.090	-0.190	0.500
2020/01/31 04:26:48.4	91.960	-0.050	-0.290	0.480
2020/01/31 04:26:48.5	91.960	-0.010	-0.400	0.470
2020/01/31 04:26:48.6	91.960	0.030	-0.500	0.460
2020/01/31 04:26:48.7	91.960	0.080	-0.600	0.450
2020/01/31 04:26:48.8	91.970	0.120	-0.700	0.440
2020/01/31 04:26:48.9	91.970	0.170	-0.800	0.430
2020/01/31 04:26:49.0	91.970	0.210	-0.890	0.420
2020/01/31 04:26:49.1	91.980	0.260	-0.970	0.410
2020/01/31 04:26:49.2	91.980	0.300	-1.050	0.410
2020/01/31 04:26:49.3	91.990	0.340	-1.120	0.410
2020/01/31 04:26:49.4	91.990	0.380	-1.180	0.410
2020/01/31 04:26:49.5	91.990	0.420	-1.230	0.410
2020/01/31 04:26:49.6	92.000	0.450	-1.270	0.410
2020/01/31 04:26:49.7	92.000	0.480	-1.300	0.420
2020/01/31 04:26:49.8	92.010	0.510	-1.320	0.420
2020/01/31 04:26:49.9	92.010	0.530	-1.340	0.430
2020/01/31 04:26:50.0	92.010	0.550	-1.340	0.440
2020/01/31 04:26:50.1	92.020	0.560	-1.320	0.450
2020/01/31 04:26:50.2	92.020	0.570	-1.300	0.470
2020/01/31 04:26:50.3	92.030	0.580	-1.270	0.480
2020/01/31 04:26:50.4	92.030	0.580	-1.240	0.490
2020/01/31 04:26:50.5	92.030	0.580	-1.190	0.510
2020/01/31 04:26:50.6	92.030	0.570	-1.130	0.530
2020/01/31 04:26:50.7	92.030	0.560	-1.070	0.540
2020/01/31 04:26:50.8	92.030	0.540	-1.000	0.560
2020/01/31 04:26:50.9	92.020	0.520	-0.930	0.590
2020/01/31 04:26:51.0	92.020	0.500	-0.840	0.610
2020/01/31 04:26:51.1	92.020	0.470	-0.760	0.630
2020/01/31 04:26:51.2	92.020	0.440	-0.660	0.650
2020/01/31 04:26:51.3	92.020	0.410	-0.570	0.680
2020/01/31 04:26:51.4	92.020	0.370	-0.470	0.710
2020/01/31 04:26:51.5	92.010	0.330	-0.370	0.730
2020/01/31 04:26:51.6	92.010	0.280	-0.270	0.760
2020/01/31 04:26:51.7	92.010	0.240	-0.170	0.790
2020/01/31 04:26:51.8	92.000	0.190	-0.070	0.820
2020/01/31 04:26:51.9	92.000	0.140	0.030	0.840
2020/01/31 04:26:52.0	92.000	0.090	0.120	0.870
2020/01/31 04:26:52.1	92.000	0.040	0.220	0.900
2020/01/31 04:26:52.2	92.000	-0.020	0.310	0.920
2020/01/31 04:26:52.3	92.000	-0.070	0.390	0.940
2020/01/31 04:26:52.4	92.000	-0.120	0.470	0.960
2020/01/31 04:26:52.5	92.000	-0.170	0.550	0.970
2020/01/31 04:26:52.6	92.000	-0.220	0.610	0.990
2020/01/31 04:26:52.7	92.000	-0.270	0.670	1.000
2020/01/31 04:26:52.8	92.010	-0.310	0.720	1.010
2020/01/31 04:26:52.9	92.010	-0.360	0.770	1.020
2020/01/31 04:26:53.0	92.020	-0.400	0.800	1.020
2020/01/31 04:26:53.1	92.030	-0.440	0.830	1.030
2020/01/31 04:26:53.2	92.040	-0.470	0.840	1.030
2020/01/31 04:26:53.3	92.050	-0.500	0.850	1.020
2020/01/31 04:26:53.4	92.060	-0.520	0.840	1.020
2020/01/31 04:26:53.5	92.080	-0.540	0.830	1.010
2020/01/31 04:26:53.6	92.090	-0.560	0.800	1.000
2020/01/31 04:26:53.7	92.110	-0.570	0.770	0.990
2020/01/31 04:26:53.8	92.120	-0.580	0.720	0.970
2020/01/31 04:26:53.9	92.140	-0.580	0.670	0.960
2020/01/31 04:26:54.0	92.160	-0.580	0.610	0.940
2020/01/31 04:26:54.1	92.170	-0.570	0.550	0.920
2020/01/31 04:26:54.2	92.190	-0.560	0.470	0.900
2020/01/31 04:26:54.3	92.210	-0.550	0.390	0.880
2020/01/31 04:26:54.4	92.230	-0.530	0.310	0.860
2020/01/31 04:26:54.5	92.250	-0.510	0.230	0.840
2020/01/31 04:26:54.6	92.270	-0.480	0.140	0.810
2020/01/31 04:26:54.7	92.290	-0.460	0.050	0.790
2020/01/31 04:26:54.8	92.310	-0.430	-0.040	0.760
2020/01/31 04:26:54.9	92.320	-0.400	-0.120	0.740
2020/01/31 04:26:55.0	92.340	-0.360	-0.210	0.710
2020/01/31 04:26:55.1	92.360	-0.330	-0.300	0.690
2020/01/31 04:26:55.2	92.380	-0.290	-0.380	0.660
2020/01/31 04:26:55.3	92.390	-0.260	-0.450	0.640
2020/01/31 04:26:55.4	92.400	-0.220	-0.530	0.610
2020/01/31 04:26:55.5	92.420	-0.190	-0.590	0.590
2020/01/31 04:26:55.6	92.430	-0.150	-0.650	0.560
2020/01/31 04:26:55.7	92.430	-0.120	-0.700	0.540
2020/01/31 04:26:55.8	92.440	-0.080	-0.750	0.520
2020/01/31 04:26:55.9	92.450	-0.050	-0.790	0.490
2020/01/31 04:26:56.0	92.450	-0.020	-0.820	0.470
2020/01/31 04:26:56.1	92.460	0.010	-0.850	0.450
2020/01/31 04:26:56.2	92.460	0.040	-0.860	0.440
2020/01/31 04:26:56.3	92.460	0.060	-0.870	0.420
2020/01/31 04:26:56.4	92.460	0.090	-0.880	0.410
2020/01/31 04:26:56.5	92.460	0.110	-0.880	0.400
2020/01/31 04:26:56.6	92.460	0.130	-0.870	0.400
2020/01/31 04:26:56.7	92.450	0.150	-0.850	0.400
2020/01/31 04:26:56.8	92.450	0.160	-0.830	0.400
2020/01/31 04:26:56.9	92.440	0.180	-0.810	0.400
2020/01/31 04:26:57.0	92.430	0.190	-0.780	0.410
2020/01/31 04:26:57.1	92.420	0.200	-0.750	0.420
2020/01/31 04:26:57.2	92.410	0.210	-0.720	0.440
2020/01/31 04:26:57.3	92.400	0.220	-0.680	0.450
2020/01/31 04:26:57.4	92.390	0.230	-0.650	0.470
2020/01/31 04:26:57.5	92.380	0.230	-0.610	0.490
2020/01/31 04:26:57.6	92.370	0.240	-0.570	0.510
2020/01/31 04:26:57.7	92.360	0.240	-0.530	0.530
2020/01/31 04:26:57.8	92.350	0.240	-0.490	0.560
2020/01/31 04:26:57.9	92.340	0.240	-0.450	0.580
2020/01/31 04:26:58.0	92.340	0.240	-0.410	0.600
2020/01/31 04:26:58.1	92.330	0.240	-0.370	0.620
2020/01/31 04:26:58.2	92.330	0.230	-0.330	0.640
2020/01/31 04:26:58.3	92.330	0.230	-0.300	0.660
2020/01/31 04:26:58.4	92.330	0.220	-0.260	0.670
2020/01/31 04:26:58.5	92.330	0.210	-0.220	0.690
2020/01/31 04:26:58.6	92.330	0.200	-0.180	0.700
2020/01/31 04:26:58.7	92.340	0.190	-0.150	0.710
2020/01/31 04:26:58.8	92.340	0.170	-0.110	0.730
2020/01/31 04:26:58.9	92.350	0.160	-0.070	0.730
2020/01/31 04:26:59.0	92.350	0.140	-0.040	0.740
2020/01/31 04:26:59.1	92.360	0.120	0.000	0.750
2020/01/31 04:26:59.2	92.360	0.100	0.040	0.750
2020/01/31 04:26:59.3	92.370	0.080	0.070	0.760
2020/01/31 04:26:59.4	92.370	0.060	0.100	0.760
2020/01/31 04:26:59.5	92.370	0.030	0.130	0.770
2020/01/31 04:26:59.6	92.370	0.010	0.160	0.770
2020/01/31 04:26:59.7	92.370	-0.020	0.190	0.770
2020/01/31 04:26:59.8	92.370	-0.050	0.220	0.770
2020/01/31 04:26:59.9	92.360	-0.070	0.240	0.770
2020/01/31 04:27:00.0	92.360	-0.100	0.260	0.770
2020/01/31 04:27:00.1	92.360	-0.130	0.270	0.780
2020/01/31 04:27:00.2	92.350	-0.150	0.290	0.780
2020/01/31 04:27:00.3	92.350	-0.180	0.300	0.780
2020/01/31 04:27:00.4	92.340	-0.210	0.300	0.770
2020/01/31 04:27:00.5	92.330	-0.230	0.300	0.770
2020/01/31 04:27:00.6	92.330	-0.250	0.300	0.770
2020/01/31 04:27:00.7	92.320	-0.270	0.290	0.760
2020/01/31 04:27:00.8	92.310	-0.290	0.280	0.760
2020/01/31 04:27:00.9	92.310	-0.310	0.260	0.750
2020/01/31 04:27:01.0	92.300	-0.320	0.240	0.740
2020/01/31 04:27:01.1	92.310	-0.330	0.220	0.730
2020/01/31 04:27:01.2	92.300	-0.340	0.190	0.720
2020/01/31 04:27:01.3	92.300	-0.340	0.160	0.710
2020/01/31 04:27:01.4	92.300	-0.340	0.120	0.700
2020/01/31 04:27:01.5	92.300	-0.340	0.080	0.690
2020/01/31 04:27:01.6	92.300	-0.330	0.040	0.680
2020/01/31 04:27:01.7	92.300	-0.320	-0.010	0.670
2020/01/31 04:27:01.8	92.300	-0.310	-0.060	0.660
2020/01/31 04:27:01.9	92.300	-0.290	-0.110	0.650
2020/01/31 04:27:02.0	92.310	-0.270	-0.160	0.640
2020/01/31 04:27:02.1	92.310	-0.250	-0.220	0.640
2020/01/31 04:27:02.2	92.320	-0.220	-0.280	0.630
2020/01/31 04:27:02.3	92.320	-0.190	-0.340	0.620
2020/01/31 04:27:02.4	92.330	-0.160	-0.400	0.610
2020/01/31 04:27:02.5	92.330	-0.130	-0.450	0.610
2020/01/31 04:27:02.6	92.340	-0.090	-0.510	0.600
2020/01/31 04:27:02.7	92.350	-0.050	-0.570	0.600
2020/01/31 04:27:02.8	92.360	-0.020	-0.620	0.600
2020/01/31 04:27:02.9	92.360	0.020	-0.670	0.590
2020/01/31 04:27:03.0	92.370	0.060	-0.720	0.590
2020/01/31 04:27:03.1	92.380	0.100	-0.760	0.590
2020/01/31 04:27:03.2	92.380	0.140	-0.800	0.590
2020/01/31 04:27:03.3	92.390	0.170	-0.840	0.590
2020/01/31 04:27:03.4	92.400	0.210	-0.860	0.600
2020/01/31 04:27:03.5	92.400	0.240	-0.890	0.600
2020/01/31 04:27:03.6	92.400	0.270	-0.900	0.600
2020/01/31 04:27:03.7	92.410	0.300	-0.910	0.610
2020/01/31 04:27:03.8	92.410	0.330	-0.920	0.610
2020/01/31 04:27:03.9	92.410	0.350	-0.910	0.620
2020/01/31 04:27:04.0	92.410	0.370	-0.910	0.620
2020/01/31 04:27:04.1	92.410	0.390	-0.890	0.630
2020/01/31 04:27:04.2	92.410	0.400	-0.870	0.640
2020/01/31 04:27:04.3	92.400	0.410	-0.840	0.650
2020/01/31 04:27:04.4	92.400	0.420	-0.810	0.660
2020/01/31 04:27:04.5	92.400	0.430	-0.770	0.670
2020/01/31 04:27:04.6	92.390	0.430	-0.730	0.690
2020/01/31 04:27:04.7	92.390	0.420	-0.680	0.700
2020/01/31 04:27:04.8	92.380	0.420	-0.630	0.710
2020/01/31 04:27:04.9	92.380	0.400	-0.580	0.730
2020/01/31 04:27:05.0	92.370	0.390	-0.520	0.750
2020/01/31 04:27:05.1	92.370	0.370	-0.460	0.760
2020/01/31 04:27:05.2	92.370	0.360	-0.400	0.780
2020/01/31 04:27:05.3	92.360	0.330	-0.330	0.800
2020/01/31 04:27:05.4	92.350	0.310	-0.270	0.810
2020/01/31 04:27:05.5	92.350	0.280	-0.200	0.830
2020/01/31 04:27:05.6	92.350	0.250	-0.130	0.840
2020/01/31 04:27:05.7	92.340	0.220	-0.070	0.860
2020/01/31 04:27:05.8	92.340	0.190	-0.000	0.870
2020/01/31 04:27:05.9	92.340	0.150	0.060	0.880
2020/01/31 04:27:06.0	92.340	0.120	0.120	0.890
2020/01/31 04:27:06.1	92.340	0.080	0.170	0.900
2020/01/31 04:27:06.2	92.340	0.040	0.220	0.900
2020/01/31 04:27:06.3	92.340	0.010	0.260	0.900
2020/01/31 04:27:06.4	92.350	-0.030	0.300	0.900
2020/01/31 04:27:06.5	92.350	-0.060	0.330	0.890
2020/01/31 04:27:06.6	92.360	-0.090	0.360	0.880
2020/01/31 04:27:06.7	92.360	-0.120	0.380	0.870
2020/01/31 04:27:06.8	92.370	-0.150	0.390	0.850
2020/01/31 04:27:06.9	92.380	-0.180	0.390	0.830
2020/01/31 04:27:07.0	92.390	-0.200	0.380	0.810
2020/01/31 04:27:07.1	92.400	-0.220	0.370	0.780
2020/01/31 04:27:07.2	92.410	-0.240	0.350	0.760
2020/01/31 04:27:07.3	92.420	-0.250	0.320	0.730
2020/01/31 04:27:07.4	92.430	-0.260	0.290	0.690
2020/01/31 04:27:07.5	92.440	-0.270	0.250	0.660
2020/01/31 04:27:07.6	92.450	-0.280	0.200	0.630
2020/01/31 04:27:07.7	92.470	-0.280	0.150	0.600
2020/01/31 04:27:07.8	92.480	-0.280	0.100	0.560
2020/01/31 04:27:07.9	92.490	-0.270	0.040	0.530
2020/01/31 04:27:08.0	92.500	-0.260	-0.020	0.510
2020/01/31 04:27:08.1	92.510	-0.250	-0.080	0.480
2020/01/31 04:27:08.2	92.520	-0.240	-0.140	0.450
2020/01/31 04:27:08.3	92.530	-0.220	-0.200	0.430
2020/01/31 04:27:08.4	92.540	-0.200	-0.250	0.410
2020/01/31 04:27:08.5	92.550	-0.190	-0.310	0.400
2020/01/31 04:27:08.6	92.550	-0.160	-0.360	0.380
2020/01/31 04:27:08.7	92.560	-0.140	-0.410	0.370
2020/01/31 04:27:08.8	92.570	-0.120	-0.450	0.370
2020/01/31 04:27:08.9	92.570	-0.100	-0.490	0.360
2020/01/31 04:27:09.0	92.570	-0.070	-0.520	0.360
2020/01/31 04:27:09.1	92.580	-0.050	-0.540	0.360
2020/01/31 04:27:09.2	92.580	-0.030	-0.560	0.360
2020/01/31 04:27:09.3	92.580	-0.010	-0.580	0.370
2020/01/31 04:27:09.4	92.580	0.010	-0.580	0.370
2020/01/31 04:27:09.5	92.580	0.030	-0.580	0.380
2020/01/31 04:27:09.6	92.580	0.040	-0.580	0.380
2020/01/31 04:27:09.7	92.580	0.050	-0.570	0.390
2020/01/31 04:27:09.8	92.580	0.070	-0.550	0.400
2020/01/31 04:27:09.9	92.570	0.070	-0.530	0.410
2020/01/31 04:27:10.0	92.570	0.080	-0.500	0.420
2020/01/31 04:27:10.1	92.560	0.080	-0.460	0.430
2020/01/31 04:27:10.2	92.550	0.080	-0.420	0.440
2020/01/31 04:27:10.3	92.550	0.080	-0.380	0.460
2020/01/31 04:27:10.4	92.540	0.080	-0.340	0.470
2020/01/31 04:27:10.5	92.520	0.070	-0.290	0.490
2020/01/31 04:27:10.6	92.510	0.060	-0.250	0.510
2020/01/31 04:27:10.7	92.500	0.040	-0.200	0.530
2020/01/31 04:27:10.8	92.480	0.030	-0.140	0.550
2020/01/31 04:27:10.9	92.460	0.010	-0.090	0.570
2020/01/31 04:27:11.0	92.440	-0.010	-0.040	0.600
2020/01/31 04:27:11.1	92.410	-0.030	0.010	0.620
2020/01/31 04:27:11.2	92.390	-0.050	0.060	0.650
2020/01/31 04:27:11.3	92.370	-0.080	0.100	0.670
2020/01/31 04:27:11.4	92.350	-0.110	0.150	0.700
2020/01/31 04:27:11.5	92.330	-0.130	0.200	0.720
2020/01/31 04:27:11.6	92.310	-0.160	0.240	0.750
2020/01/31 04:27:11.7	92.290	-0.190	0.270	0.770
2020/01/31 04:27:11.8	92.270	-0.220	0.310	0.790
2020/01/31 04:27:11.9	92.250	-0.250	0.330	0.800
2020/01/31 04:27:12.0	92.240	-0.270	0.350	0.810
2020/01/31 04:27:12.1	92.230	-0.300	0.380	0.820
2020/01/31 04:27:12.2	92.220	-0.330	0.380	0.820
2020/01/31 04:27:12.3	92.210	-0.350	0.390	0.820
2020/01/31 04:27:12.4	92.210	-0.370	0.380	0.810
2020/01/31 04:27:12.5	92.210	-0.390	0.370	0.800
2020/01/31 04:27:12.6	92.220	-0.410	0.350	0.780
2020/01/31 04:27:12.7	92.230	-0.420	0.330	0.760
2020/01/31 04:27:12.8	92.240	-0.430	0.290	0.730
2020/01/31 04:27:12.9	92.250	-0.430	0.250	0.700
2020/01/31 04:27:13.0	92.270	-0.430	0.200	0.670
2020/01/31 04:27:13.1	92.300	-0.430	0.130	0.630
2020/01/31 04:27:13.2	92.320	-0.420	0.070	0.590
2020/01/31 04:27:13.3	92.350	-0.410	-0.010	0.540
2020/01/31 04:27:13.4	92.380	-0.390	-0.090	0.500
2020/01/31 04:27:13.5	92.410	-0.370	-0.180	0.460
2020/01/31 04:27:13.6	92.440	-0.340	-0.270	0.410
2020/01/31 04:27:13.7	92.480	-0.310	-0.360	0.370
2020/01/31 04:27:13.8	92.520	-0.270	-0.460	0.330
2020/01/31 04:27:13.9	92.550	-0.230	-0.560	0.300
2020/01/31 04:27:14.0	92.590	-0.180	-0.660	0.270
2020/01/31 04:27:14.1	92.620	-0.130	-0.760	0.250
2020/01/31 04:27:14.2	92.650	-0.080	-0.860	0.230
2020/01/31 04:27:14.3	92.680	-0.020	-0.950	0.210
2020/01/31 04:27:14.4	92.710	0.040	-1.040	0.200
2020/01/31 04:27:14.5	92.740	0.100	-1.120	0.200
2020/01/31 04:27:14.6	92.770	0.160	-1.200	0.200
2020/01/31 04:27:14.7	92.790	0.220	-1.270	0.210
2020/01/31 04:27:14.8	92.810	0.280	-1.330	0.220
2020/01/31 04:27:14.9	92.830	0.350	-1.370	0.230
2020/01/31 04:27:15.0	92.840	0.400	-1.410	0.250
2020/01/31 04:27:15.1	92.860	0.460	-1.430	0.270
2020/01/31 04:27:15.2	92.870	0.510	-1.450	0.300
2020/01/31 04:27:15.3	92.870	0.560	-1.450	0.320
2020/01/31 04:27:15.4	92.880	0.600	-1.440	0.340
2020/01/31 04:27:15.5	92.880	0.640	-1.420	0.370
2020/01/31 04:27:15.6	92.880	0.680	-1.380	0.400
2020/01/31 04:27:15.7	92.870	0.700	-1.330	0.430
2020/01/31 04:27:15.8	92.860	0.720	-1.270	0.460
2020/01/31 04:27:15.9	92.850	0.740	-1.200	0.490
2020/01/31 04:27:16.0	92.840	0.740	-1.120	0.530
2020/01/31 04:27:16.1	92.820	0.740	-1.030	0.560
2020/01/31 04:27:16.2	92.800	0.730	-0.930	0.600
2020/01/31 04:27:16.3	92.780	0.720	-0.820	0.640
2020/01/31 04:27:16.4	92.760	0.690	-0.700	0.670
2020/01/31 04:27:16.5	92.740	0.660	-0.580	0.710
2020/01/31 04:27:16.6	92.710	0.630	-0.460	0.750
2020/01/31 04:27:16.7	92.680	0.580	-0.330	0.790
2020/01/31 04:27:16.8	92.660	0.540	-0.200	0.830
2020/01/31 04:27:16.9	92.630	0.480	-0.070	0.870
2020/01/31 04:27:17.0	92.600	0.420	0.060	0.910
2020/01/31 04:27:17.1	92.580	0.360	0.190	0.960
2020/01/31 04:27:17.2	92.550	0.300	0.310	0.990
2020/01/31 04:27:17.3	92.520	0.230	0.430	1.020
2020/01/31 04:27:17.4	92.500	0.160	0.550	1.050
2020/01/31 04:27:17.5	92.470	0.090	0.650	1.070
2020/01/31 04:27:17.6	92.440	0.020	0.750	1.090
2020/01/31 04:27:17.7	92.420	-0.060	0.850	1.100
2020/01/31 04:27:17.8	92.390	-0.130	0.930	1.110
2020/01/31 04:27:17.9	92.360	-0.200	1.000	1.110
2020/01/31 04:27:18.0	92.340	-0.270	1.070	1.110
2020/01/31 04:27:18.1	92.310	-0.340	1.120	1.100
2020/01/31 04:27:18.2	92.290	-0.400	1.170	1.090
2020/01/31 04:27:18.3	92.270	-0.460	1.200	1.070
2020/01/31 04:27:18.4	92.240	-0.520	1.220	1.040
2020/01/31 04:27:18.5	92.220	-0.570	1.230	1.010
2020/01/31 04:27:18.6	92.200	-0.620	1.230	0.980
2020/01/31 04:27:18.7	92.180	-0.660	1.220	0.940
2020/01/31 04:27:18.8	92.160	-0.690	1.190	0.900
2020/01/31 04:27:18.9	92.150	-0.720	1.150	0.850
2020/01/31 04:27:19.0	92.130	-0.740	1.100	0.800
2020/01/31 04:27:19.1	92.130	-0.760	1.050	0.750
2020/01/31 04:27:19.2	92.120	-0.770	0.970	0.700
2020/01/31 04:27:19.3	92.110	-0.770	0.890	0.650
2020/01/31 04:27:19.4	92.100	-0.760	0.790	0.600
2020/01/31 04:27:19.5	92.100	-0.740	0.690	0.550
2020/01/31 04:27:19.6	92.100	-0.720	0.580	0.490
2020/01/31 04:27:19.7	92.110	-0.690	0.460	0.440
2020/01/31 04:27:19.8	92.110	-0.660	0.330	0.390
2020/01/31 04:27:19.9	92.130	-0.610	0.200	0.340
2020/01/31 04:27:20.0	92.150	-0.560	0.060	0.290
2020/01/31 04:27:20.1	92.170	-0.510	-0.090	0.240
2020/01/31 04:27:20.2	92.190	-0.450	-0.230	0.190
2020/01/31 04:27:20.3	92.220	-0.390	-0.370	0.150
2020/01/31 04:27:20.4	92.250	-0.320	-0.510	0.110
2020/01/31 04:27:20.5	92.290	-0.250	-0.640	0.070
2020/01/31 04:27:20.6	92.330	-0.180	-0.770	0.040
2020/01/31 04:27:20.7	92.360	-0.110	-0.900	0.010
2020/01/31 04:27:20.8	92.400	-0.040	-1.020	-0.020
2020/01/31 04:27:20.9	92.440	0.040	-1.130	-0.040
2020/01/31 04:27:21.0	92.480	0.110	-1.230	-0.060
2020/01/31 04:27:21.1	92.520	0.170	-1.320	-0.070
2020/01/31 04:27:21.2	92.550	0.240	-1.400	-0.080
2020/01/31 04:27:21.3	92.590	0.300	-1.470	-0.080
2020/01/31 04:27:21.4	92.620	0.360	-1.520	-0.080
2020/01/31 04:27:21.5	92.650	0.410	-1.560	-0.080
2020/01/31 04:27:21.6	92.680	0.460	-1.590	-0.070
2020/01/31 04:27:21.7	92.710	0.500	-1.610	-0.060
2020/01/31 04:27:21.8	92.730	0.540	-1.610	-0.040
2020/01/31 04:27:21.9	92.750	0.570	-1.600	-0.030
2020/01/31 04:27:22.0	92.760	0.590	-1.570	-0.010
2020/01/31 04:27:22.1	92.780	0.610	-1.530	0.020
2020/01/31 04:27:22.2	92.780	0.620	-1.480	0.050
2020/01/31 04:27:22.3	92.790	0.620	-1.420	0.070
2020/01/31 04:27:22.4	92.790	0.610	-1.340	0.100
2020/01/31 04:27:22.5	92.790	0.600	-1.260	0.140
2020/01/31 04:27:22.6	92.780	0.580	-1.160	0.170
2020/01/31 04:27:22.7	92.770	0.560	-1.060	0.210
2020/01/31 04:27:22.8	92.760	0.530	-0.950	0.260
2020/01/31 04:27:22.9	92.740	0.500	-0.830	0.300
2020/01/31 04:27:23.0	92.720	0.460	-0.710	0.350
2020/01/31 04:27:23.1	92.700	0.410	-0.580	0.400
2020/01/31 04:27:23.2	92.670	0.360	-0.460	0.460
2020/01/31 04:27:23.3	92.640	0.310	-0.330	0.510
2020/01/31 04:27:23.4	92.620	0.260	-0.200	0.570
2020/01/31 04:27:23.5	92.590	0.200	-0.080	0.630
2020/01/31 04:27:23.6	92.560	0.150	0.040	0.680
2020/01/31 04:27:23.7	92.530	0.090	0.150	0.740
2020/01/31 04:27:23.8	92.500	0.030	0.260	0.800
2020/01/31 04:27:23.9	92.470	-0.020	0.360	0.850
2020/01/31 04:27:24.0	92.440	-0.080	0.460	0.910
2020/01/31 04:27:24.1	92.420	-0.130	0.550	0.960
2020/01/31 04:27:24.2	92.390	-0.180	0.630	1.010
2020/01/31 04:27:24.3	92.370	-0.230	0.690	1.050
2020/01/31 04:27:24.4	92.340	-0.280	0.750	1.090
2020/01/31 04:27:24.5	92.320	-0.320	0.800	1.130
2020/01/31 04:27:24.6	92.300	-0.350	0.840	1.160
2020/01/31 04:27:24.7	92.280	-0.390	0.870	1.180
2020/01/31 04:27:24.8	92.270	-0.420	0.880	1.200
2020/01/31 04:27:24.9	92.250	-0.440	0.890	1.210
2020/01/31 04:27:25.0	92.240	-0.470	0.890	1.210
2020/01/31 04:27:25.1	92.230	-0.480	0.880	1.210
2020/01/31 04:27:25.2	92.220	-0.490	0.860	1.200
2020/01/31 04:27:25.3	92.210	-0.500	0.830	1.180
2020/01/31 04:27:25.4	92.210	-0.510	0.790	1.160
2020/01/31 04:27:25.5	92.210	-0.500	0.740	1.120
2020/01/31 04:27:25.6	92.210	-0.500	0.690	1.090
2020/01/31 04:27:25.7	92.210	-0.490	0.630	1.050
2020/01/31 04:27:25.8	92.210	-0.470	0.560	1.000
2020/01/31 04:27:25.9	92.210	-0.450	0.480	0.950
2020/01/31 04:27:26.0	92.220	-0.430	0.400	0.900
2020/01/31 04:27:26.1	92.230	-0.400	0.310	0.850
2020/01/31 04:27:26.2	92.230	-0.370	0.220	0.800
2020/01/31 04:27:26.3	92.240	-0.330	0.120	0.740
2020/01/31 04:27:26.4	92.250	-0.290	0.030	0.690
2020/01/31 04:27:26.5	92.260	-0.250	-0.070	0.640
2020/01/31 04:27:26.6	92.270	-0.210	-0.170	0.590
2020/01/31 04:27:26.7	92.280	-0.160	-0.270	0.540
2020/01/31 04:27:26.8	92.290	-0.120	-0.380	0.500
2020/01/31 04:27:26.9	92.300	-0.070	-0.470	0.460
2020/01/31 04:27:27.0	92.310	-0.020	-0.570	0.420
2020/01/31 04:27:27.1	92.320	0.030	-0.660	0.390
2020/01/31 04:27:27.2	92.330	0.080	-0.750	0.360
2020/01/31 04:27:27.3	92.350	0.120	-0.840	0.330
2020/01/31 04:27:27.4	92.360	0.170	-0.910	0.310
2020/01/31 04:27:27.5	92.370	0.210	-0.980	0.300
2020/01/31 04:27:27.6	92.380	0.250	-1.050	0.280
2020/01/31 04:27:27.7	92.390	0.290	-1.100	0.270
2020/01/31 04:27:27.8	92.390	0.330	-1.150	0.260
2020/01/31 04:27:27.9	92.400	0.360	-1.180	0.260
2020/01/31 04:27:28.0	92.410	0.390	-1.210	0.250
2020/01/31 04:27:28.1	92.410	0.410	-1.230	0.260
2020/01/31 04:27:28.2	92.420	0.430	-1.230	0.260
2020/01/31 04:27:28.3	92.430	0.440	-1.230	0.270
2020/01/31 04:27:28.4	92.430	0.450	-1.210	0.270
2020/01/31 04:27:28.5	92.440	0.450	-1.180	0.280
2020/01/31 04:27:28.6	92.450	0.440	-1.140	0.290
2020/01/31 04:27:28.7	92.450	0.440	-1.090	0.300
2020/01/31 04:27:28.8	92.460	0.420	-1.040	0.320
2020/01/31 04:27:28.9	92.460	0.400	-0.970	0.340
2020/01/31 04:27:29.0	92.460	0.380	-0.890	0.360
2020/01/31 04:27:29.1	92.470	0.350	-0.800	0.380
2020/01/31 04:27:29.2	92.470	0.320	-0.720	0.400
2020/01/31 04:27:29.3	92.470	0.290	-0.620	0.430
2020/01/31 04:27:29.4	92.470	0.250	-0.520	0.460
2020/01/31 04:27:29.5	92.470	0.200	-0.420	0.480
2020/01/31 04:27:29.6	92.470	0.160	-0.320	0.510
2020/01/31 04:27:29.7	92.470	0.110	-0.210	0.540
2020/01/31 04:27:29.8	92.460	0.070	-0.110	0.570
2020/01/31 04:27:29.9	92.460	0.020	-0.000	0.600
2020/01/31 04:27:30.0	92.450	-0.030	0.100	0.630
2020/01/31 04:27:30.1	92.450	-0.080	0.190	0.670
2020/01/31 04:27:30.2	92.450	-0.120	0.280	0.690
2020/01/31 04:27:30.3	92.440	-0.170	0.360	0.710
2020/01/31 04:27:30.4	92.440	-0.210	0.440	0.730
2020/01/31 04:27:30.5	92.430	-0.240	0.500	0.740
2020/01/31 04:27:30.6	92.430	-0.280	0.550	0.750
2020/01/31 04:27:30.7	92.430	-0.310	0.590	0.760
2020/01/31 04:27:30.8	92.430	-0.330	0.620	0.760
2020/01/31 04:27:30.9	92.430	-0.350	0.640	0.760
2020/01/31 04:27:31.0	92.430	-0.360	0.640	0.750
2020/01/31 04:27:31.1	92.440	-0.370	0.640	0.740
2020/01/31 04:27:31.2	92.450	-0.370	0.610	0.720
2020/01/31 04:27:31.3	92.460	-0.370	0.580	0.700
2020/01/31 04:27:31.4	92.470	-0.360	0.530	0.680
2020/01/31 04:27:31.5	92.480	-0.340	0.480	0.660
2020/01/31 04:27:31.6	92.490	-0.320	0.410	0.630
2020/01/31 04:27:31.7	92.500	-0.300	0.340	0.610
2020/01/31 04:27:31.8	92.520	-0.270	0.260	0.590
2020/01/31 04:27:31.9	92.530	-0.230	0.180	0.580
2020/01/31 04:27:32.0	92.540	-0.200	0.090	0.560
2020/01/31 04:27:32.1	92.540	-0.160	0.000	0.550
2020/01/31 04:27:32.2	92.550	-0.130	-0.080	0.540
2020/01/31 04:27:32.3	92.550	-0.090	-0.170	0.540
2020/01/31 04:27:32.4	92.550	-0.050	-0.250	0.540
2020/01/31 04:27:32.5	92.550	-0.020	-0.330	0.530
2020/01/31 04:27:32.6	92.540	0.020	-0.400	0.530
2020/01/31 04:27:32.7	92.540	0.050	-0.460	0.530
2020/01/31 04:27:32.8	92.530	0.080	-0.520	0.530
2020/01/31 04:27:32.9	92.530	0.100	-0.570	0.530
2020/01/31 04:27:33.0	92.520	0.130	-0.610	0.530
2020/01/31 04:27:33.1	92.510	0.150	-0.640	0.530
2020/01/31 04:27:33.2	92.500	0.160	-0.660	0.530
2020/01/31 04:27:33.3	92.490	0.170	-0.680	0.530
2020/01/31 04:27:33.4	92.480	0.180	-0.680	0.530
2020/01/31 04:27:33.5	92.470	0.180	-0.680	0.530
2020/01/31 04:27:33.6	92.460	0.180	-0.670	0.520
2020/01/31 04:27:33.7	92.450	0.170	-0.650	0.520
2020/01/31 04:27:33.8	92.440	0.160	-0.620	0.520
2020/01/31 04:27:33.9	92.430	0.150	-0.590	0.520
2020/01/31 04:27:34.0	92.420	0.130	-0.550	0.520
2020/01/31 04:27:34.1	92.410	0.110	-0.500	0.520
2020/01/31 04:27:34.2	92.410	0.090	-0.460	0.520
2020/01/31 04:27:34.3	92.400	0.060	-0.410	0.510
2020/01/31 04:27:34.4	92.390	0.040	-0.360	0.510
2020/01/31 04:27:34.5	92.390	0.010	-0.300	0.510
2020/01/31 04:27:34.6	92.380	-0.020	-0.250	0.510
2020/01/31 04:27:34.7	92.380	-0.050	-0.200	0.510
2020/01/31 04:27:34.8	92.380	-0.080	-0.150	0.510
2020/01/31 04:27:34.9	92.380	-0.100	-0.100	0.510
2020/01/31 04:27:35.0	92.380	-0.130	-0.060	0.510
2020/01/31 04:27:35.1	92.390	-0.150	-0.020	0.520
2020/01/31 04:27:35.2	92.400	-0.170	0.020	0.520
2020/01/31 04:27:35.3	92.400	-0.190	0.050	0.520
2020/01/31 04:27:35.4	92.410	-0.200	0.070	0.520
2020/01/31 04:27:35.5	92.420	-0.210	0.090	0.520
2020/01/31 04:27:35.6	92.430	-0.220	0.100	0.520
2020/01/31 04:27:35.7	92.450	-0.220	0.110	0.530
2020/01/31 04:27:35.8	92.460	-0.220	0.110	0.530
2020/01/31 04:27:35.9	92.480	-0.210	0.110	0.530
2020/01/31 04:27:36.0	92.490	-0.210	0.100	0.530
2020/01/31 04:27:36.1	92.510	-0.190	0.080	0.530
2020/01/31 04:27:36.2	92.520	-0.180	0.060	0.530
2020/01/31 04:27:36.3	92.540	-0.160	0.030	0.530
2020/01/31 04:27:36.4	92.550	-0.140	0.000	0.530
2020/01/31 04:27:36.5	92.560	-0.110	-0.030	0.520
2020/01/31 04:27:36.6	92.570	-0.090	-0.070	0.520
2020/01/31 04:27:36.7	92.580	-0.060	-0.110	0.520
2020/01/31 04:27:36.8	92.590	-0.030	-0.160	0.510
2020/01/31 04:27:36.9	92.590	0.000	-0.200	0.510
2020/01/31 04:27:37.0	92.590	0.040	-0.250	0.510
2020/01/31 04:27:37.1	92.590	0.070	-0.300	0.500
2020/01/31 04:27:37.2	92.590	0.100	-0.340	0.500
2020/01/31 04:27:37.3	92.590	0.140	-0.390	0.500
2020/01/31 04:27:37.4	92.580	0.170	-0.430	0.500
2020/01/31 04:27:37.5	92.570	0.200	-0.470	0.500
2020/01/31 04:27:37.6	92.560	0.230	-0.500	0.500
2020/01/31 04:27:37.7	92.550	0.260	-0.530	0.510
2020/01/31 04:27:37.8	92.530	0.280	-0.560	0.520
2020/01/31 04:27:37.9	92.520	0.300	-0.580	0.530
2020/01/31 04:27:38.0	92.500	0.320	-0.590	0.540
2020/01/31 04:27:38.1	92.470	0.340	-0.600	0.560
2020/01/31 04:27:38.2	92.450	0.350	-0.610	0.570
2020/01/31 04:27:38.3	92.430	0.360	-0.600	0.600
2020/01/31 04:27:38.4	92.410	0.370	-0.590	0.620
2020/01/31 04:27:38.5	92.390	0.370	-0.570	0.640
2020/01/31 04:27:38.6	92.360	0.370	-0.540	0.670
2020/01/31 04:27:38.7	92.340	0.370	-0.510	0.700
2020/01/31 04:27:38.8	92.330	0.360	-0.470	0.720
2020/01/31 04:27:38.9	92.310	0.350	-0.430	0.750
2020/01/31 04:27:39.0	92.290	0.340	-0.390	0.780
2020/01/31 04:27:39.1	92.270	0.320	-0.330	0.810
2020/01/31 04:27:39.2	92.260	0.300	-0.280	0.830
2020/01/31 04:27:39.3	92.250	0.280	-0.230	0.850
2020/01/31 04:27:39.4	92.240	0.250	-0.170	0.870
2020/01/31 04:27:39.5	92.240	0.230	-0.120	0.890
2020/01/31 04:27:39.6	92.240	0.200	-0.060	0.900
2020/01/31 04:27:39.7	92.240	0.170	-0.010	0.910
2020/01/31 04:27:39.8	92.240	0.140	0.040	0.920
2020/01/31 04:27:39.9	92.240	0.110	0.090	0.920
2020/01/31 04:27:40.0	92.250	0.070	0.140	0.920
2020/01/31 04:27:40.1	92.260	0.040	0.170	0.920
2020/01/31 04:27:40.2	92.270	0.010	0.210	0.910
2020/01/31 04:27:40.3	92.280	-0.010	0.230	0.890
2020/01/31 04:27:40.4	92.300	-0.040	0.250	0.880
2020/01/31 04:27:40.5	92.320	-0.070	0.260	0.860
2020/01/31 04:27:40.6	92.340	-0.090	0.270	0.840
2020/01/31 04:27:40.7	92.360	-0.110	0.260	0.810
2020/01/31 04:27:40.8	92.380	-0.120	0.250	0.780
2020/01/31 04:27:40.9	92.410	-0.140	0.230	0.750
2020/01/31 04:27:41.0	92.440	-0.150	0.210	0.720
2020/01/31 04:27:41.1	92.470	-0.160	0.170	0.690
2020/01/31 04:27:41.2	92.500	-0.160	0.130	0.650
2020/01/31 04:27:41.3	92.530	-0.160	0.090	0.620
2020/01/31 04:27:41.4	92.560	-0.160	0.030	0.580
2020/01/31 04:27:41.5	92.590	-0.150	-0.030	0.550
2020/01/31 04:27:41.6	92.620	-0.140	-0.090	0.520
2020/01/31 04:27:41.7	92.650	-0.130	-0.150	0.490
2020/01/31 04:27:41.8	92.680	-0.110	-0.220	0.460
2020/01/31 04:27:41.9	92.700	-0.090	-0.290	0.430
2020/01/31 04:27:42.0	92.730	-0.080	-0.350	0.410
2020/01/31 04:27:42.1	92.750	-0.060	-0.420	0.390
2020/01/31 04:27:42.2	92.770	-0.030	-0.480	0.370
2020/01/31 04:27:42.3	92.790	-0.010	-0.540	0.360
2020/01/31 04:27:42.4	92.800	0.010	-0.590	0.350
2020/01/31 04:27:42.5	92.810	0.030	-0.640	0.340
2020/01/31 04:27:42.6	92.820	0.050	-0.680	0.340
2020/01/31 04:27:42.7	92.830	0.060	-0.700	0.340
2020/01/31 04:27:42.8	92.830	0.080	-0.720	0.340
2020/01/31 04:27:42.9	92.830	0.090	-0.740	0.350
2020/01/31 04:27:43.0	92.830	0.100	-0.740	0.360
2020/01/31 04:27:43.1	92.830	0.100	-0.730	0.370
2020/01/31 04:27:43.2	92.820	0.100	-0.710	0.380
2020/01/31 04:27:43.3	92.810	0.100	-0.690	0.390
2020/01/31 04:27:43.4	92.810	0.100	-0.660	0.410
2020/01/31 04:27:43.5	92.800	0.090	-0.620	0.420
2020/01/31 04:27:43.6	92.790	0.070	-0.570	0.440
2020/01/31 04:27:43.7	92.780	0.060	-0.520	0.460
2020/01/31 04:27:43.8	92.760	0.040	-0.460	0.480
2020/01/31 04:27:43.9	92.750	0.010	-0.400	0.510
2020/01/31 04:27:44.0	92.740	-0.010	-0.340	0.530
2020/01/31 04:27:44.1	92.730	-0.040	-0.280	0.560
2020/01/31 04:27:44.2	92.710	-0.070	-0.210	0.580
2020/01/31 04:27:44.3	92.700	-0.100	-0.150	0.600
2020/01/31 04:27:44.4	92.680	-0.130	-0.090	0.620
2020/01/31 04:27:44.5	92.670	-0.160	-0.030	0.640
2020/01/31 04:27:44.6	92.660	-0.190	0.030	0.660
2020/01/31 04:27:44.7	92.650	-0.220	0.080	0.670
2020/01/31 04:27:44.8	92.640	-0.250	0.120	0.690
2020/01/31 04:27:44.9	92.630	-0.280	0.160	0.700
2020/01/31 04:27:45.0	92.630	-0.300	0.200	0.710
2020/01/31 04:27:45.1	92.620	-0.330	0.230	0.710
2020/01/31 04:27:45.2	92.610	-0.340	0.250	0.720
2020/01/31 04:27:45.3	92.610	-0.360	0.260	0.720
2020/01/31 04:27:45.4	92.610	-0.370	0.270	0.720
2020/01/31 04:27:45.5	92.610	-0.380	0.270	0.720
2020/01/31 04:27:45.6	92.610	-0.380	0.260	0.720
2020/01/31 04:27:45.7	92.610	-0.380	0.250	0.710
2020/01/31 04:27:45.8	92.610	-0.380	0.230	0.710
2020/01/31 04:27:45.9	92.610	-0.370	0.210	0.700
2020/01/31 04:27:46.0	92.610	-0.360	0.180	0.690
2020/01/31 04:27:46.1	92.610	-0.340	0.140	0.690
2020/01/31 04:27:46.2	92.620	-0.330	0.110	0.680
2020/01/31 04:27:46.3	92.620	-0.310	0.070	0.670
2020/01/31 04:27:46.4	92.620	-0.280	0.020	0.660
2020/01/31 04:27:46.5	92.620	-0.260	-0.020	0.650
2020/01/31 04:27:46.6	92.620	-0.230	-0.070	0.650
2020/01/31 04:27:46.7	92.620	-0.200	-0.120	0.640
2020/01/31 04:27:46.8	92.620	-0.170	-0.170	0.630
2020/01/31 04:27:46.9	92.620	-0.140	-0.220	0.620
2020/01/31 04:27:47.0	92.620	-0.110	-0.270	0.610
2020/01/31 04:27:47.1	92.610	-0.080	-0.330	0.600
2020/01/31 04:27:47.2	92.610	-0.040	-0.380	0.590
2020/01/31 04:27:47.3	92.600	-0.010	-0.430	0.580
2020/01/31 04:27:47.4	92.600	0.020	-0.480	0.560
2020/01/31 04:27:47.5	92.600	0.050	-0.540	0.550
2020/01/31 04:27:47.6	92.600	0.080	-0.580	0.530
2020/01/31 04:27:47.7	92.600	0.100	-0.630	0.510
2020/01/31 04:27:47.8	92.600	0.130	-0.670	0.490
2020/01/31 04:27:47.9	92.600	0.150	-0.710	0.460
2020/01/31 04:27:48.0	92.600	0.170	-0.750	0.440
2020/01/31 04:27:48.1	92.610	0.190	-0.780	0.420
2020/01/31 04:27:48.2	92.610	0.210	-0.810	0.390
2020/01/31 04:27:48.3	92.610	0.230	-0.830	0.370
2020/01/31 04:27:48.4	92.620	0.240	-0.850	0.340
2020/01/31 04:27:48.5	92.620	0.250	-0.860	0.320
2020/01/31 04:27:48.6	92.620	0.260	-0.860	0.300
2020/01/31 04:27:48.7	92.620	0.260	-0.860	0.280
2020/01/31 04:27:48.8	92.620	0.260	-0.850	0.270
2020/01/31 04:27:48.9	92.630	0.270	-0.830	0.250
2020/01/31 04:27:49.0	92.630	0.260	-0.810	0.240
2020/01/31 04:27:49.1	92.630	0.260	-0.780	0.230
2020/01/31 04:27:49.2	92.630	0.260	-0.750	0.220
2020/01/31 04:27:49.3	92.630	0.250	-0.710	0.220
2020/01/31 04:27:49.4	92.630	0.240	-0.670	0.220
2020/01/31 04:27:49.5	92.630	0.240	-0.620	0.220
2020/01/31 04:27:49.6	92.630	0.230	-0.570	0.220
2020/01/31 04:27:49.7	92.630	0.220	-0.520	0.220
2020/01/31 04:27:49.8	92.630	0.210	-0.460	0.230
2020/01/31 04:27:49.9	92.640	0.200	-0.410	0.230
2020/01/31 04:27:50.0	92.640	0.190	-0.350	0.240
2020/01/31 04:27:50.1	92.650	0.180	-0.290	0.260
2020/01/31 04:27:50.2	92.650	0.170	-0.240	0.260
2020/01/31 04:27:50.3	92.660	0.170	-0.180	0.270
2020/01/31 04:27:50.4	92.670	0.160	-0.130	0.280
2020/01/31 04:27:50.5	92.680	0.160	-0.080	0.280
2020/01/31 04:27:50.6	92.690	0.150	-0.030	0.290
2020/01/31 04:27:50.7	92.710	0.150	0.010	0.290
2020/01/31 04:27:50.8	92.720	0.150	0.050	0.290
2020/01/31 04:27:50.9	92.740	0.140	0.090	0.290
2020/01/31 04:27:51.0	92.760	0.140	0.120	0.280
2020/01/31 04:27:51.1	92.770	0.140	0.160	0.280
2020/01/31 04:27:51.2	92.790	0.140	0.190	0.270
2020/01/31 04:27:51.3	92.820	0.140	0.210	0.260
2020/01/31 04:27:51.4	92.840	0.140	0.240	0.250
2020/01/31 04:27:51.5	92.860	0.140	0.260	0.240
2020/01/31 04:27:51.6	92.890	0.140	0.280	0.230
2020/01/31 04:27:51.7	92.910	0.140	0.290	0.230
2020/01/31 04:27:51.8	92.940	0.140	0.310	0.220
2020/01/31 04:27:51.9	92.960	0.130	0.320	0.210
2020/01/31 04:27:52.0	92.980	0.130	0.340	0.210
2020/01/31 04:27:52.1	93.000	0.120	0.350	0.210
2020/01/31 04:27:52.2	93.020	0.120	0.360	0.210
2020/01/31 04:27:52.3	93.040	0.110	0.370	0.210
2020/01/31 04:27:52.4	93.060	0.100	0.380	0.220
2020/01/31 04:27:52.5	93.070	0.090	0.390	0.230
2020/01/31 04:27:52.6	93.080	0.080	0.400	0.250
2020/01/31 04:27:52.7	93.080	0.070	0.410	0.260
2020/01/31 04:27:52.8	93.090	0.050	0.410	0.280
2020/01/31 04:27:52.9	93.090	0.040	0.420	0.310
2020/01/31 04:27:53.0	93.090	0.020	0.420	0.330
2020/01/31 04:27:53.1	93.080	0.010	0.420	0.360
2020/01/31 04:27:53.2	93.080	-0.010	0.420	0.390
2020/01/31 04:27:53.3	93.070	-0.030	0.420	0.410
2020/01/31 04:27:53.4	93.060	-0.050	0.410	0.440
2020/01/31 04:27:53.5	93.040	-0.070	0.400	0.460
2020/01/31 04:27:53.6	93.030	-0.080	0.390	0.490
2020/01/31 04:27:53.7	93.020	-0.100	0.370	0.510
2020/01/31 04:27:53.8	93.000	-0.120	0.350	0.530
2020/01/31 04:27:53.9	92.990	-0.130	0.320	0.550
2020/01/31 04:27:54.0	92.970	-0.150	0.290	0.570
2020/01/31 04:27:54.1	92.960	-0.160	0.250	0.580
2020/01/31 04:27:54.2	92.940	-0.170	0.210	0.590
2020/01/31 04:27:54.3	92.930	-0.180	0.170	0.600
2020/01/31 04:27:54.4	92.920	-0.190	0.110	0.600
2020/01/31 04:27:54.5	92.910	-0.190	0.060	0.610
2020/01/31 04:27:54.6	92.900	-0.200	-0.000	0.610
2020/01/31 04:27:54.7	92.900	-0.200	-0.070	0.620
2020/01/31 04:27:54.8	92.890	-0.190	-0.130	0.620
2020/01/31 04:27:54.9	92.890	-0.190	-0.210	0.620
2020/01/31 04:27:55.0	92.880	-0.180	-0.280	0.630
2020/01/31 04:27:55.1	92.880	-0.170	-0.350	0.630
2020/01/31 04:27:55.2	92.880	-0.160	-0.430	0.630
2020/01/31 04:27:55.3	92.880	-0.150	-0.510	0.640
2020/01/31 04:27:55.4	92.880	-0.130	-0.590	0.640
2020/01/31 04:27:55.5	92.890	-0.110	-0.670	0.640
2020/01/31 04:27:55.6	92.890	-0.090	-0.750	0.640
2020/01/31 04:27:55.7	92.900	-0.070	-0.830	0.650
2020/01/31 04:27:55.8	92.900	-0.050	-0.910	0.650
2020/01/31 04:27:55.9	92.910	-0.020	-0.990	0.650
2020/01/31 04:27:56.0	92.920	0.000	-1.060	0.650
2020/01/31 04:27:56.1	92.930	0.030	-1.130	0.650
2020/01/31 04:27:56.2	92.950	0.050	-1.200	0.650
2020/01/31 04:27:56.3	92.960	0.080	-1.260	0.650
2020/01/31 04:27:56.4	92.970	0.110	-1.310	0.650
2020/01/31 04:27:56.5	92.990	0.130	-1.360	0.650
2020/01/31 04:27:56.6	93.000	0.160	-1.400	0.650
2020/01/31 04:27:56.7	93.020	0.180	-1.440	0.640
2020/01/31 04:27:56.8	93.040	0.200	-1.460	0.640
2020/01/31 04:27:56.9	93.050	0.220	-1.470	0.630
2020/01/31 04:27:57.0	93.070	0.240	-1.480	0.620
2020/01/31 04:27:57.1	93.090	0.260	-1.470	0.620
2020/01/31 04:27:57.2	93.110	0.270	-1.450	0.610
2020/01/31 04:27:57.3	93.130	0.280	-1.420	0.600
2020/01/31 04:27:57.4	93.150	0.280	-1.380	0.590
2020/01/31 04:27:57.5	93.170	0.290	-1.330	0.590
2020/01/31 04:27:57.6	93.190	0.280	-1.260	0.580
2020/01/31 04:27:57.7	93.200	0.280	-1.190	0.580
2020/01/31 04:27:57.8	93.220	0.270	-1.100	0.580
2020/01/31 04:27:57.9	93.230	0.260	-1.010	0.580
2020/01/31 04:27:58.0	93.250	0.240	-0.900	0.590
2020/01/31 04:27:58.1	93.260	0.220	-0.790	0.600
2020/01/31 04:27:58.2	93.270	0.200	-0.670	0.610
2020/01/31 04:27:58.3	93.270	0.170	-0.540	0.620
2020/01/31 04:27:58.4	93.280	0.140	-0.410	0.640
2020/01/31 04:27:58.5	93.280	0.110	-0.280	0.650
2020/01/31 04:27:58.6	93.280	0.070	-0.150	0.670
2020/01/31 04:27:58.7	93.270	0.030	-0.010	0.690
2020/01/31 04:27:58.8	93.270	-0.010	0.120	0.710
2020/01/31 04:27:58.9	93.260	-0.050	0.250	0.740
2020/01/31 04:27:59.0	93.250	-0.100	0.370	0.760
2020/01/31 04:27:59.1	93.230	-0.140	0.490	0.790
2020/01/31 04:27:59.2	93.220	-0.180	0.600	0.810
2020/01/31 04:27:59.3	93.200	-0.220	0.700	0.840
2020/01/31 04:27:59.4	93.190	-0.270	0.790	0.860
2020/01/31 04:27:59.5	93.170	-0.300	0.870	0.880
2020/01/31 04:27:59.6	93.150	-0.340	0.940	0.900
2020/01/31 04:27:59.7	93.130	-0.370	1.000	0.910
2020/01/31 04:27:59.8	93.110	-0.410	1.040	0.920
2020/01/31 04:27:59.9	93.090	-0.430	1.060	0.930
2020/01/31 04:28:00.0	93.070	-0.450	1.070	0.940
2020/01/31 04:28:00.1	93.050	-0.470	1.070	0.940
2020/01/31 04:28:00.2	93.030	-0.480	1.050	0.940
2020/01/31 04:28:00.3	93.020	-0.490	1.020	0.930
2020/01/31 04:28:00.4	93.000	-0.490	0.970	0.920
2020/01/31 04:28:00.5	92.990	-0.480	0.910	0.910
2020/01/31 04:28:00.6	92.980	-0.470	0.840	0.890
2020/01/31 04:28:00.7	92.970	-0.450	0.750	0.860
2020/01/31 04:28:00.8	92.960	-0.430	0.660	0.840
2020/01/31 04:28:00.9	92.960	-0.400	0.550	0.810
2020/01/31 04:28:01.0	92.960	-0.370	0.440	0.780
2020/01/31 04:28:01.1	92.950	-0.330	0.320	0.740
2020/01/31 04:28:01.2	92.950	-0.290	0.200	0.710
2020/01/31 04:28:01.3	92.960	-0.240	0.080	0.670
2020/01/31 04:28:01.4	92.960	-0.200	-0.040	0.620
2020/01/31 04:28:01.5	92.970	-0.150	-0.160	0.580
2020/01/31 04:28:01.6	92.980	-0.100	-0.280	0.530
2020/01/31 04:28:01.7	92.990	-0.050	-0.390	0.480
2020/01/31 04:28:01.8	93.000	0.000	-0.500	0.430
2020/01/31 04:28:01.9	93.020	0.050	-0.590	0.380
2020/01/31 04:28:02.0	93.040	0.100	-0.680	0.330
2020/01/31 04:28:02.1	93.070	0.150	-0.760	0.280
2020/01/31 04:28:02.2	93.090	0.190	-0.830	0.230
2020/01/31 04:28:02.3	93.110	0.230	-0.890	0.180
2020/01/31 04:28:02.4	93.130	0.260	-0.930	0.130
2020/01/31 04:28:02.5	93.160	0.290	-0.960	0.090
2020/01/31 04:28:02.6	93.180	0.320	-0.980	0.050
2020/01/31 04:28:02.7	93.200	0.340	-0.980	0.020
2020/01/31 04:28:02.8	93.220	0.350	-0.980	-0.010
2020/01/31 04:28:02.9	93.250	0.360	-0.960	-0.040
2020/01/31 04:28:03.0	93.270	0.370	-0.930	-0.060
2020/01/31 04:28:03.1	93.280	0.370	-0.880	-0.070
2020/01/31 04:28:03.2	93.300	0.360	-0.830	-0.080
2020/01/31 04:28:03.3	93.320	0.350	-0.770	-0.090
2020/01/31 04:28:03.4	93.340	0.330	-0.710	-0.090
2020/01/31 04:28:03.5	93.350	0.310	-0.640	-0.090
2020/01/31 04:28:03.6	93.370	0.290	-0.560	-0.090
2020/01/31 04:28:03.7	93.380	0.260	-0.480	-0.080
2020/01/31 04:28:03.8	93.390	0.230	-0.390	-0.060
2020/01/31 04:28:03.9	93.400	0.190	-0.310	-0.050
2020/01/31 04:28:04.0	93.400	0.160	-0.220	-0.020
2020/01/31 04:28:04.1	93.410	0.120	-0.130	0.000
2020/01/31 04:28:04.2	93.410	0.080	-0.050	0.030
2020/01/31 04:28:04.3	93.410	0.040	0.030	0.060
2020/01/31 04:28:04.4	93.410	0.000	0.110	0.090
2020/01/31 04:28:04.5	93.420	-0.040	0.180	0.120
2020/01/31 04:28:04.6	93.420	-0.070	0.240	0.150
2020/01/31 04:28:04.7	93.420	-0.100	0.300	0.180
2020/01/31 04:28:04.8	93.410	-0.140	0.350	0.210
2020/01/31 04:28:04.9	93.410	-0.160	0.390	0.240
2020/01/31 04:28:05.0	93.410	-0.180	0.410	0.270
2020/01/31 04:28:05.1	93.410	-0.200	0.440	0.300
2020/01/31 04:28:05.2	93.410	-0.220	0.440	0.330
2020/01/31 04:28:05.3	93.410	-0.230	0.440	0.360
2020/01/31 04:28:05.4	93.410	-0.230	0.430	0.390
2020/01/31 04:28:05.5	93.410	-0.230	0.410	0.410
2020/01/31 04:28:05.6	93.410	-0.220	0.380	0.440
2020/01/31 04:28:05.7	93.410	-0.220	0.340	0.470
2020/01/31 04:28:05.8	93.410	-0.200	0.290	0.500
2020/01/31 04:28:05.9	93.400	-0.180	0.240	0.520
2020/01/31 04:28:06.0	93.400	-0.160	0.180	0.550
2020/01/31 04:28:06.1	93.390	-0.140	0.110	0.580
2020/01/31 04:28:06.2	93.380	-0.110	0.050	0.610
2020/01/31 04:28:06.3	93.370	-0.090	-0.030	0.630
2020/01/31 04:28:06.4	93.360	-0.060	-0.100	0.660
2020/01/31 04:28:06.5	93.350	-0.030	-0.170	0.680
2020/01/31 04:28:06.6	93.340	0.000	-0.250	0.700
2020/01/31 04:28:06.7	93.330	0.030	-0.320	0.720
2020/01/31 04:28:06.8	93.310	0.060	-0.390	0.740
2020/01/31 04:28:06.9	93.300	0.090	-0.460	0.760
2020/01/31 04:28:07.0	93.290	0.120	-0.530	0.770
2020/01/31 04:28:07.1	93.280	0.140	-0.590	0.790
2020/01/31 04:28:07.2	93.270	0.170	-0.640	0.800
2020/01/31 04:28:07.3	93.250	0.190	-0.700	0.810
2020/01/31 04:28:07.4	93.240	0.210	-0.740	0.820
2020/01/31 04:28:07.5	93.230	0.220	-0.780	0.820
2020/01/31 04:28:07.6	93.220	0.240	-0.820	0.830
2020/01/31 04:28:07.7	93.220	0.250	-0.850	0.830
2020/01/31 04:28:07.8	93.210	0.250	-0.870	0.830
2020/01/31 04:28:07.9	93.210	0.260	-0.880	0.820
2020/01/31 04:28:08.0	93.200	0.260	-0.880	0.820
2020/01/31 04:28:08.1	93.200	0.250	-0.890	0.810
2020/01/31 04:28:08.2	93.200	0.250	-0.880	0.800
2020/01/31 04:28:08.3	93.210	0.240	-0.860	0.790
2020/01/31 04:28:08.4	93.210	0.230	-0.840	0.770
2020/01/31 04:28:08.5	93.220	0.220	-0.820	0.750
2020/01/31 04:28:08.6	93.220	0.200	-0.780	0.730
2020/01/31 04:28:08.7	93.230	0.190	-0.750	0.700
2020/01/31 04:28:08.8	93.240	0.170	-0.710	0.680
2020/01/31 04:28:08.9	93.250	0.150	-0.660	0.650
2020/01/31 04:28:09.0	93.270	0.130	-0.610	0.620
2020/01/31 04:28:09.1	93.280	0.110	-0.560	0.580
2020/01/31 04:28:09.2	93.290	0.090	-0.500	0.550
2020/01/31 04:28:09.3	93.300	0.070	-0.450	0.520
2020/01/31 04:28:09.4	93.310	0.050	-0.390	0.480
2020/01/31 04:28:09.5	93.320	0.030	-0.340	0.450
2020/01/31 04:28:09.6	93.330	0.020	-0.290	0.420
2020/01/31 04:28:09.7	93.340	0.000	-0.230	0.390
2020/01/31 04:28:09.8	93.340	-0.010	-0.180	0.370
2020/01/31 04:28:09.9	93.350	-0.030	-0.130	0.340
2020/01/31 04:28:10.0	93.350	-0.030	-0.090	0.320
2020/01/31 04:28:10.1	93.350	-0.040	-0.050	0.310
2020/01/31 04:28:10.2	93.350	-0.050	-0.010	0.290
2020/01/31 04:28:10.3	93.350	-0.050	0.020	0.290
2020/01/31 04:28:10.4	93.340	-0.050	0.050	0.280
2020/01/31 04:28:10.5	93.330	-0.050	0.070	0.280
2020/01/31 04:28:10.6	93.320	-0.040	0.090	0.280
2020/01/31 04:28:10.7	93.300	-0.040	0.100	0.290
2020/01/31 04:28:10.8	93.290	-0.030	0.110	0.300
2020/01/31 04:28:10.9	93.270	-0.020	0.120	0.320
2020/01/31 04:28:11.0	93.240	-0.010	0.120	0.330
2020/01/31 04:28:11.1	93.220	0.000	0.110	0.350
2020/01/31 04:28:11.2	93.200	0.010	0.110	0.370
2020/01/31 04:28:11.3	93.170	0.030	0.100	0.390
2020/01/31 04:28:11.4	93.150	0.040	0.090	0.410
2020/01/31 04:28:11.5	93.120	0.050	0.070	0.420
2020/01/31 04:28:11.6	93.100	0.060	0.050	0.440
2020/01/31 04:28:11.7	93.080	0.080	0.030	0.450
2020/01/31 04:28:11.8	93.060	0.090	0.010	0.460
2020/01/31 04:28:11.9	93.040	0.100	-0.010	0.470
2020/01/31 04:28:12.0	93.020	0.110	-0.030	0.470
2020/01/31 04:28:12.1	93.000	0.110	-0.060	0.480
2020/01/31 04:28:12.2	92.990	0.120	-0.080	0.480
2020/01/31 04:28:12.3	92.990	0.120	-0.100	0.470
2020/01/31 04:28:12.4	92.990	0.120	-0.130	0.470
2020/01/31 04:28:12.5	92.990	0.130	-0.150	0.460
2020/01/31 04:28:12.6	92.990	0.120	-0.180	0.450
2020/01/31 04:28:12.7	93.000	0.120	-0.200	0.440
2020/01/31 04:28:12.8	93.020	0.120	-0.220	0.420
2020/01/31 04:28:12.9	93.040	0.110	-0.240	0.410
2020/01/31 04:28:13.0	93.060	0.100	-0.260	0.400
2020/01/31 04:28:13.1	93.080	0.090	-0.270	0.380
2020/01/31 04:28:13.2	93.110	0.080	-0.290	0.370
2020/01/31 04:28:13.3	93.140	0.060	-0.300	0.360
2020/01/31 04:28:13.4	93.170	0.050	-0.300	0.350
2020/01/31 04:28:13.5	93.200	0.030	-0.310	0.340
2020/01/31 04:28:13.6	93.240	0.010	-0.310	0.330
2020/01/31 04:28:13.7	93.270	-0.010	-0.310	0.330
2020/01/31 04:28:13.8	93.310	-0.030	-0.300	0.320
2020/01/31 04:28:13.9	93.350	-0.060	-0.290	0.320
2020/01/31 04:28:14.0	93.380	-0.080	-0.280	0.310
2020/01/31 04:28:14.1	93.420	-0.100	-0.260	0.310
2020/01/31 04:28:14.2	93.450	-0.130	-0.250	0.320
2020/01/31 04:28:14.3	93.480	-0.160	-0.230	0.320
2020/01/31 04:28:14.4	93.520	-0.180	-0.200	0.320
2020/01/31 04:28:14.5	93.540	-0.210	-0.180	0.330
2020/01/31 04:28:14.6	93.570	-0.230	-0.150	0.340
2020/01/31 04:28:14.7	93.590	-0.260	-0.120	0.350
2020/01/31 04:28:14.8	93.620	-0.280	-0.100	0.370
2020/01/31 04:28:14.9	93.630	-0.310	-0.070	0.390
2020/01/31 04:28:15.0	93.650	-0.330	-0.040	0.410
2020/01/31 04:28:15.1	93.650	-0.350	-0.020	0.440
2020/01/31 04:28:15.2	93.660	-0.360	0.010	0.470
2020/01/31 04:28:15.3	93.660	-0.380	0.030	0.500
2020/01/31 04:28:15.4	93.660	-0.390	0.050	0.540
2020/01/31 04:28:15.5	93.660	-0.400	0.070	0.570
2020/01/31 04:28:15.6	93.650	-0.410	0.080	0.620
2020/01/31 04:28:15.7	93.640	-0.410	0.090	0.660
2020/01/31 04:28:15.8	93.630	-0.410	0.100	0.700
2020/01/31 04:28:15.9	93.610	-0.410	0.100	0.750
2020/01/31 04:28:16.0	93.590	-0.410	0.100	0.790
2020/01/31 04:28:16.1	93.570	-0.400	0.100	0.840
2020/01/31 04:28:16.2	93.550	-0.390	0.090	0.890
2020/01/31 04:28:16.3	93.520	-0.380	0.080	0.930
2020/01/31 04:28:16.4	93.500	-0.370	0.070	0.970
2020/01/31 04:28:16.5	93.480	-0.360	0.050	1.000
2020/01/31 04:28:16.6	93.460	-0.340	0.030	1.030
2020/01/31 04:28:16.7	93.430	-0.320	0.000	1.060
2020/01/31 04:28:16.8	93.410	-0.300	-0.030	1.080
2020/01/31 04:28:16.9	93.390	-0.280	-0.060	1.100
2020/01/31 04:28:17.0	93.370	-0.260	-0.090	1.110
2020/01/31 04:28:17.1	93.350	-0.240	-0.130	1.120
2020/01/31 04:28:17.2	93.330	-0.220	-0.170	1.130
2020/01/31 04:28:17.3	93.310	-0.200	-0.210	1.130
2020/01/31 04:28:17.4	93.300	-0.170	-0.260	1.120
2020/01/31 04:28:17.5	93.280	-0.150	-0.300	1.110
2020/01/31 04:28:17.6	93.270	-0.120	-0.350	1.100
2020/01/31 04:28:17.7	93.260	-0.100	-0.390	1.080
2020/01/31 04:28:17.8	93.250	-0.070	-0.440	1.060
2020/01/31 04:28:17.9	93.250	-0.040	-0.480	1.040
2020/01/31 04:28:18.0	93.240	-0.020	-0.530	1.020
2020/01/31 04:28:18.1	93.240	0.010	-0.570	0.990
2020/01/31 04:28:18.2	93.230	0.030	-0.610	0.960
2020/01/31 04:28:18.3	93.220	0.060	-0.650	0.940
2020/01/31 04:28:18.4	93.220	0.080	-0.680	0.910
2020/01/31 04:28:18.5	93.210	0.110	-0.710	0.880
2020/01/31 04:28:18.6	93.200	0.130	-0.730	0.850
2020/01/31 04:28:18.7	93.190	0.150	-0.750	0.820
2020/01/31 04:28:18.8	93.190	0.180	-0.760	0.790
2020/01/31 04:28:18.9	93.180	0.200	-0.760	0.760
2020/01/31 04:28:19.0	93.170	0.220	-0.760	0.720
2020/01/31 04:28:19.1	93.170	0.230	-0.750	0.690
2020/01/31 04:28:19.2	93.170	0.250	-0.740	0.650
2020/01/31 04:28:19.3	93.160	0.270	-0.720	0.610
2020/01/31 04:28:19.4	93.160	0.280	-0.690	0.570
2020/01/31 04:28:19.5	93.160	0.290	-0.660	0.530
2020/01/31 04:28:19.6	93.160	0.300	-0.620	0.490
2020/01/31 04:28:19.7	93.160	0.310	-0.580	0.450
2020/01/31 04:28:19.8	93.160	0.320	-0.540	0.410
2020/01/31 04:28:19.9	93.160	0.320	-0.490	0.360
2020/01/31 04:28:20.0	93.160	0.320	-0.440	0.310
2020/01/31 04:28:20.1	93.170	0.330	-0.380	0.270
2020/01/31 04:28:20.2	93.180	0.330	-0.330	0.230
2020/01/31 04:28:20.3	93.190	0.330	-0.280	0.180
2020/01/31 04:28:20.4	93.200	0.330	-0.230	0.130
2020/01/31 04:28:20.5	93.210	0.320	-0.170	0.090
2020/01/31 04:28:20.6	93.220	0.320	-0.120	0.040
2020/01/31 04:28:20.7	93.240	0.310	-0.080	-0.000
2020/01/31 04:28:20.8	93.250	0.310	-0.040	-0.040
2020/01/31 04:28:20.9	93.260	0.300	0.000	-0.080
2020/01/31 04:28:21.0	93.280	0.300	0.030	-0.110
2020/01/31 04:28:21.1	93.290	0.290	0.060	-0.140
2020/01/31 04:28:21.2	93.300	0.280	0.090	-0.160
2020/01/31 04:28:21.3	93.320	0.280	0.100	-0.180
2020/01/31 04:28:21.4	93.330	0.270	0.110	-0.190
2020/01/31 04:28:21.5	93.340	0.270	0.120	-0.200
2020/01/31 04:28:21.6	93.350	0.260	0.120	-0.200
2020/01/31 04:28:21.7	93.360	0.260	0.110	-0.190
2020/01/31 04:28:21.8	93.360	0.250	0.100	-0.180
2020/01/31 04:28:21.9	93.370	0.250	0.080	-0.160
2020/01/31 04:28:22.0	93.370	0.240	0.050	-0.140
2020/01/31 04:28:22.1	93.380	0.240	0.030	-0.110
2020/01/31 04:28:22.2	93.380	0.240	-0.010	-0.080
2020/01/31 04:28:22.3	93.380	0.230	-0.040	-0.050
2020/01/31 04:28:22.4	93.380	0.230	-0.080	-0.010
2020/01/31 04:28:22.5	93.380	0.230	-0.130	0.020
2020/01/31 04:28:22.6	93.380	0.230	-0.170	0.060
2020/01/31 04:28:22.7	93.370	0.220	-0.220	0.090
2020/01/31 04:28:22.8	93.370	0.220	-0.260	0.130
2020/01/31 04:28:22.9	93.370	0.220	-0.300	0.170
2020/01/31 04:28:23.0	93.360	0.210	-0.350	0.200
2020/01/31 04:28:23.1	93.360	0.200	-0.390	0.240
2020/01/31 04:28:23.2	93.360	0.200	-0.430	0.270
2020/01/31 04:28:23.3	93.350	0.190	-0.470	0.310
2020/01/31 04:28:23.4	93.340	0.180	-0.500	0.340
2020/01/31 04:28:23.5	93.340	0.170	-0.530	0.380
2020/01/31 04:28:23.6	93.330	0.160	-0.550	0.410
2020/01/31 04:28:23.7	93.330	0.150	-0.560	0.440
2020/01/31 04:28:23.8	93.320	0.130	-0.580	0.480
2020/01/31 04:28:23.9	93.310	0.120	-0.580	0.510
2020/01/31 04:28:24.0	93.310	0.100	-0.580	0.540
2020/01/31 04:28:24.1	93.300	0.080	-0.570	0.580
2020/01/31 04:28:24.2	93.290	0.060	-0.560	0.620
2020/01/31 04:28:24.3	93.280	0.040	-0.540	0.660
2020/01/31 04:28:24.4	93.270	0.010	-0.510	0.700
2020/01/31 04:28:24.5	93.260	-0.010	-0.470	0.740
2020/01/31 04:28:24.6	93.250	-0.040	-0.440	0.790
2020/01/31 04:28:24.7	93.240	-0.070	-0.390	0.830
2020/01/31 04:28:24.8	93.230	-0.090	-0.340	0.880
2020/01/31 04:28:24.9	93.220	-0.120	-0.290	0.930
2020/01/31 04:28:25.0	93.200	-0.150	-0.230	0.970
2020/01/31 04:28:25.1	93.190	-0.180	-0.170	1.020
2020/01/31 04:28:25.2	93.180	-0.220	-0.110	1.070
2020/01/31 04:28:25.3	93.170	-0.250	-0.040	1.110
2020/01/31 04:28:25.4	93.150	-0.280	0.030	1.150
2020/01/31 04:28:25.5	93.140	-0.310	0.090	1.200
2020/01/31 04:28:25.6	93.120	-0.340	0.160	1.230
2020/01/31 04:28:25.7	93.110	-0.380	0.220	1.270
2020/01/31 04:28:25.8	93.100	-0.410	0.280	1.300
2020/01/31 04:28:25.9	93.090	-0.430	0.340	1.330
2020/01/31 04:28:26.0	93.080	-0.460	0.390	1.350
2020/01/31 04:28:26.1	93.060	-0.490	0.440	1.370
2020/01/31 04:28:26.2	93.060	-0.510	0.480	1.390
2020/01/31 04:28:26.3	93.050	-0.530	0.520	1.390
2020/01/31 04:28:26.4	93.040	-0.550	0.540	1.400
2020/01/31 04:28:26.5	93.040	-0.560	0.560	1.390
2020/01/31 04:28:26.6	93.030	-0.570	0.570	1.380
2020/01/31 04:28:26.7	93.030	-0.570	0.570	1.370
2020/01/31 04:28:26.8	93.030	-0.580	0.560	1.340
2020/01/31 04:28:26.9	93.040	-0.570	0.540	1.320
2020/01/31 04:28:27.0	93.040	-0.570	0.520	1.290
2020/01/31 04:28:27.1	93.040	-0.560	0.480	1.250
2020/01/31 04:28:27.2	93.050	-0.540	0.440	1.210
2020/01/31 04:28:27.3	93.060	-0.520	0.390	1.170
2020/01/31 04:28:27.4	93.070	-0.500	0.330	1.120
2020/01/31 04:28:27.5	93.080	-0.470	0.260	1.070
2020/01/31 04:28:27.6	93.090	-0.440	0.190	1.020
2020/01/31 04:28:27.7	93.110	-0.400	0.110	0.970
2020/01/31 04:28:27.8	93.120	-0.360	0.030	0.920
2020/01/31 04:28:27.9	93.140	-0.320	-0.050	0.860
2020/01/31 04:28:28.0	93.150	-0.280	-0.140	0.810
2020/01/31 04:28:28.1	93.160	-0.230	-0.240	0.750
2020/01/31 04:28:28.2	93.180	-0.180	-0.330	0.700
2020/01/31 04:28:28.3	93.190	-0.120	-0.420	0.640
2020/01/31 04:28:28.4	93.210	-0.070	-0.510	0.600
2020/01/31 04:28:28.5	93.220	-0.010	-0.590	0.550
2020/01/31 04:28:28.6	93.230	0.040	-0.680	0.510
2020/01/31 04:28:28.7	93.240	0.100	-0.760	0.470
2020/01/31 04:28:28.8	93.260	0.150	-0.830	0.440
2020/01/31 04:28:28.9	93.270	0.210	-0.900	0.400
2020/01/31 04:28:29.0	93.270	0.260	-0.960	0.380
2020/01/31 04:28:29.1	93.280	0.310	-1.010	0.350
2020/01/31 04:28:29.2	93.290	0.360	-1.050	0.340
2020/01/31 04:28:29.3	93.300	0.400	-1.080	0.320
2020/01/31 04:28:29.4	93.300	0.440	-1.110	0.310
2020/01/31 04:28:29.5	93.310	0.480	-1.120	0.310
2020/01/31 04:28:29.6	93.310	0.510	-1.120	0.310
2020/01/31 04:28:29.7	93.310	0.540	-1.120	0.310
2020/01/31 04:28:29.8	93.310	0.560	-1.110	0.310
2020/01/31 04:28:29.9	93.310	0.580	-1.080	0.320
2020/01/31 04:28:30.0	93.300	0.590	-1.050	0.330
2020/01/31 04:28:30.1	93.300	0.590	-1.020	0.350
2020/01/31 04:28:30.2	93.290	0.590	-0.970	0.360
2020/01/31 04:28:30.3	93.280	0.590	-0.920	0.370
2020/01/31 04:28:30.4	93.270	0.580	-0.860	0.390
2020/01/31 04:28:30.5	93.250	0.560	-0.790	0.400
2020/01/31 04:28:30.6	93.240	0.540	-0.730	0.420
2020/01/31 04:28:30.7	93.220	0.520	-0.660	0.430
2020/01/31 04:28:30.8	93.210	0.490	-0.580	0.440
2020/01/31 04:28:30.9	93.190	0.450	-0.510	0.460
2020/01/31 04:28:31.0	93.160	0.420	-0.430	0.470
2020/01/31 04:28:31.1	93.140	0.380	-0.350	0.490
2020/01/31 04:28:31.2	93.120	0.340	-0.270	0.500
2020/01/31 04:28:31.3	93.090	0.300	-0.200	0.520
2020/01/31 04:28:31.4	93.060	0.250	-0.120	0.530
2020/01/31 04:28:31.5	93.040	0.210	-0.050	0.550
2020/01/31 04:28:31.6	93.010	0.160	0.010	0.560
2020/01/31 04:28:31.7	92.980	0.110	0.080	0.580
2020/01/31 04:28:31.8	92.960	0.070	0.130	0.590
2020/01/31 04:28:31.9	92.930	0.020	0.190	0.610
2020/01/31 04:28:32.0	92.910	-0.020	0.240	0.620
2020/01/31 04:28:32.1	92.880	-0.070	0.280	0.640
2020/01/31 04:28:32.2	92.860	-0.110	0.320	0.660
2020/01/31 04:28:32.3	92.840	-0.150	0.350	0.670
2020/01/31 04:28:32.4	92.830	-0.180	0.380	0.680
2020/01/31 04:28:32.5	92.810	-0.220	0.400	0.690
2020/01/31 04:28:32.6	92.800	-0.250	0.420	0.700
2020/01/31 04:28:32.7	92.790	-0.280	0.420	0.710
2020/01/31 04:28:32.8	92.780	-0.300	0.420	0.720
2020/01/31 04:28:32.9	92.780	-0.330	0.420	0.730
2020/01/31 04:28:33.0	92.770	-0.340	0.410	0.740
2020/01/31 04:28:33.1	92.770	-0.360	0.390	0.740
2020/01/31 04:28:33.2	92.770	-0.370	0.370	0.750
2020/01/31 04:28:33.3	92.780	-0.380	0.340	0.750
2020/01/31 04:28:33.4	92.780	-0.380	0.300	0.760
2020/01/31 04:28:33.5	92.780	-0.380	0.260	0.760
2020/01/31 04:28:33.6	92.790	-0.380	0.210	0.760
2020/01/31 04:28:33.7	92.800	-0.380	0.160	0.760
2020/01/31 04:28:33.8	92.800	-0.370	0.110	0.750
2020/01/31 04:28:33.9	92.810	-0.360	0.060	0.750
2020/01/31 04:28:34.0	92.810	-0.350	-0.000	0.740
2020/01/31 04:28:34.1	92.820	-0.330	-0.060	0.740
2020/01/31 04:28:34.2	92.820	-0.310	-0.120	0.730
2020/01/31 04:28:34.3	92.830	-0.290	-0.180	0.710
2020/01/31 04:28:34.4	92.830	-0.270	-0.240	0.700
2020/01/31 04:28:34.5	92.840	-0.250	-0.290	0.680
2020/01/31 04:28:34.6	92.840	-0.230	-0.350	0.660
2020/01/31 04:28:34.7	92.850	-0.210	-0.400	0.640
2020/01/31 04:28:34.8	92.850	-0.190	-0.450	0.620
2020/01/31 04:28:34.9	92.860	-0.160	-0.490	0.600
2020/01/31 04:28:35.0	92.860	-0.140	-0.530	0.570
2020/01/31 04:28:35.1	92.860	-0.120	-0.560	0.550
2020/01/31 04:28:35.2	92.860	-0.100	-0.590	0.530
2020/01/31 04:28:35.3	92.860	-0.080	-0.610	0.510
2020/01/31 04:28:35.4	92.860	-0.050	-0.630	0.490
2020/01/31 04:28:35.5	92.860	-0.030	-0.640	0.470
2020/01/31 04:28:35.6	92.860	-0.020	-0.650	0.460
2020/01/31 04:28:35.7	92.860	0.000	-0.650	0.450
2020/01/31 04:28:35.8	92.850	0.020	-0.640	0.440
2020/01/31 04:28:35.9	92.850	0.040	-0.630	0.440
2020/01/31 04:28:36.0	92.840	0.050	-0.610	0.440
2020/01/31 04:28:36.1	92.840	0.070	-0.590	0.440
2020/01/31 04:28:36.2	92.830	0.080	-0.570	0.450
2020/01/31 04:28:36.3	92.820	0.090	-0.540	0.460
2020/01/31 04:28:36.4	92.810	0.110	-0.520	0.470
2020/01/31 04:28:36.5	92.800	0.120	-0.490	0.490
2020/01/31 04:28:36.6	92.790	0.130	-0.460	0.510
2020/01/31 04:28:36.7	92.780	0.140	-0.430	0.530
2020/01/31 04:28:36.8	92.770	0.150	-0.400	0.550
2020/01/31 04:28:36.9	92.770	0.170	-0.370	0.580
2020/01/31 04:28:37.0	92.760	0.180	-0.340	0.600
2020/01/31 04:28:37.1	92.750	0.190	-0.310	0.630
2020/01/31 04:28:37.2	92.750	0.200	-0.280	0.660
2020/01/31 04:28:37.3	92.750	0.210	-0.260	0.680
2020/01/31 04:28:37.4	92.750	0.220	-0.240	0.700
2020/01/31 04:28:37.5	92.740	0.230	-0.220	0.730
2020/01/31 04:28:37.6	92.740	0.240	-0.200	0.740
2020/01/31 04:28:37.7	92.740	0.250	-0.190	0.760
2020/01/31 04:28:37.8	92.750	0.260	-0.170	0.780
2020/01/31 04:28:37.9	92.750	0.270	-0.160	0.790
2020/01/31 04:28:38.0	92.750	0.270	-0.150	0.800
2020/01/31 04:28:38.1	92.750	0.270	-0.140	0.810
2020/01/31 04:28:38.2	92.750	0.280	-0.130	0.810
2020/01/31 04:28:38.3	92.750	0.280	-0.130	0.810
2020/01/31 04:28:38.4	92.750	0.280	-0.120	0.810
2020/01/31 04:28:38.5	92.750	0.270	-0.110	0.810
2020/01/31 04:28:38.6	92.750	0.270	-0.100	0.810
2020/01/31 04:28:38.7	92.750	0.260	-0.100	0.800
2020/01/31 04:28:38.8	92.740	0.250	-0.090	0.790
2020/01/31 04:28:38.9	92.740	0.240	-0.080	0.780
2020/01/31 04:28:39.0	92.740	0.230	-0.080	0.770
2020/01/31 04:28:39.1	92.730	0.210	-0.070	0.750
2020/01/31 04:28:39.2	92.720	0.200	-0.070	0.740
2020/01/31 04:28:39.3	92.720	0.180	-0.060	0.730
2020/01/31 04:28:39.4	92.710	0.160	-0.060	0.710
2020/01/31 04:28:39.5	92.700	0.150	-0.050	0.700
2020/01/31 04:28:39.6	92.690	0.130	-0.050	0.690
2020/01/31 04:28:39.7	92.680	0.110	-0.050	0.680
2020/01/31 04:28:39.8	92.670	0.090	-0.050	0.670
2020/01/31 04:28:39.9	92.660	0.070	-0.050	0.670
2020/01/31 04:28:40.0	92.650	0.050	-0.050	0.660
2020/01/31 04:28:40.1	92.640	0.030	-0.050	0.660
2020/01/31 04:28:40.2	92.620	0.010	-0.060	0.660
2020/01/31 04:28:40.3	92.610	-0.010	-0.070	0.660
2020/01/31 04:28:40.4	92.600	-0.020	-0.070	0.670
2020/01/31 04:28:40.5	92.580	-0.040	-0.080	0.670
2020/01/31 04:28:40.6	92.570	-0.050	-0.090	0.680
2020/01/31 04:28:40.7	92.550	-0.060	-0.100	0.690
2020/01/31 04:28:40.8	92.530	-0.070	-0.120	0.700
2020/01/31 04:28:40.9	92.520	-0.090	-0.130	0.710
2020/01/31 04:28:41.0	92.500	-0.100	-0.140	0.720
2020/01/31 04:28:41.1	92.480	-0.100	-0.160	0.740
2020/01/31 04:28:41.2	92.460	-0.110	-0.170	0.750
2020/01/31 04:28:41.3	92.450	-0.120	-0.180	0.760
2020/01/31 04:28:41.4	92.430	-0.130	-0.190	0.770
2020/01/31 04:28:41.5	92.420	-0.130	-0.200	0.780
2020/01/31 04:28:41.6	92.410	-0.140	-0.210	0.790
2020/01/31 04:28:41.7	92.400	-0.150	-0.220	0.790
2020/01/31 04:28:41.8	92.400	-0.150	-0.230	0.800
2020/01/31 04:28:41.9	92.390	-0.160	-0.240	0.800
2020/01/31 04:28:42.0	92.390	-0.170	-0.240	0.800
2020/01/31 04:28:42.1	92.390	-0.170	-0.240	0.800
2020/01/31 04:28:42.2	92.400	-0.180	-0.250	0.790
2020/01/31 04:28:42.3	92.410	-0.190	-0.250	0.780
2020/01/31 04:28:42.4	92.420	-0.190	-0.250	0.770
2020/01/31 04:28:42.5	92.430	-0.200	-0.250	0.760
2020/01/31 04:28:42.6	92.450	-0.210	-0.240	0.750
2020/01/31 04:28:42.7	92.460	-0.220	-0.240	0.740
2020/01/31 04:28:42.8	92.480	-0.220	-0.230	0.720
2020/01/31 04:28:42.9	92.500	-0.230	-0.220	0.710
2020/01/31 04:28:43.0	92.520	-0.240	-0.210	0.690
2020/01/31 04:28:43.1	92.540	-0.250	-0.200	0.680
2020/01/31 04:28:43.2	92.560	-0.250	-0.190	0.670
2020/01/31 04:28:43.3	92.580	-0.260	-0.180	0.650
2020/01/31 04:28:43.4	92.600	-0.270	-0.170	0.640
2020/01/31 04:28:43.5	92.620	-0.270	-0.150	0.630
2020/01/31 04:28:43.6	92.630	-0.280	-0.140	0.620
2020/01/31 04:28:43.7	92.640	-0.280	-0.120	0.620
2020/01/31 04:28:43.8	92.650	-0.290	-0.100	0.610
2020/01/31 04:28:43.9	92.660	-0.290	-0.090	0.610
2020/01/31 04:28:44.0	92.660	-0.290	-0.070	0.610
2020/01/31 04:28:44.1	92.670	-0.290	-0.060	0.600
2020/01/31 04:28:44.2	92.670	-0.290	-0.050	0.600
2020/01/31 04:28:44.3	92.670	-0.280	-0.030	0.610
2020/01/31 04:28:44.4	92.660	-0.280	-0.020	0.610
2020/01/31 04:28:44.5	92.660	-0.270	-0.020	0.620
2020/01/31 04:28:44.6	92.650	-0.260	-0.010	0.620
2020/01/31 04:28:44.7	92.640	-0.250	-0.010	0.630
2020/01/31 04:28:44.8	92.630	-0.240	-0.010	0.640
2020/01/31 04:28:44.9	92.610	-0.220	-0.020	0.650
2020/01/31 04:28:45.0	92.600	-0.200	-0.030	0.660
2020/01/31 04:28:45.1	92.580	-0.180	-0.040	0.680
2020/01/31 04:28:45.2	92.570	-0.150	-0.050	0.690
2020/01/31 04:28:45.3	92.550	-0.130	-0.080	0.710
2020/01/31 04:28:45.4	92.530	-0.100	-0.110	0.720
2020/01/31 04:28:45.5	92.520	-0.070	-0.140	0.740
2020/01/31 04:28:45.6	92.500	-0.030	-0.180	0.760
2020/01/31 04:28:45.7	92.480	0.000	-0.220	0.780
2020/01/31 04:28:45.8	92.460	0.040	-0.270	0.800
2020/01/31 04:28:45.9	92.440	0.080	-0.320	0.820
2020/01/31 04:28:46.0	92.420	0.110	-0.370	0.840
2020/01/31 04:28:46.1	92.400	0.150	-0.430	0.860
2020/01/31 04:28:46.2	92.370	0.190	-0.480	0.880
2020/01/31 04:28:46.3	92.350	0.230	-0.540	0.910
2020/01/31 04:28:46.4	92.330	0.270	-0.600	0.930
2020/01/31 04:28:46.5	92.310	0.300	-0.650	0.950
2020/01/31 04:28:46.6	92.290	0.330	-0.710	0.970
2020/01/31 04:28:46.7	92.270	0.370	-0.760	0.990
2020/01/31 04:28:46.8	92.250	0.400	-0.810	1.010
2020/01/31 04:28:46.9	92.230	0.420	-0.860	1.020
2020/01/31 04:28:47.0	92.220	0.450	-0.900	1.030
2020/01/31 04:28:47.1	92.200	0.470	-0.940	1.050
2020/01/31 04:28:47.2	92.180	0.480	-0.970	1.060
2020/01/31 04:28:47.3	92.170	0.500	-1.000	1.060
2020/01/31 04:28:47.4	92.160	0.510	-1.020	1.060
2020/01/31 04:28:47.5	92.150	0.510	-1.030	1.060
2020/01/31 04:28:47.6	92.140	0.510	-1.040	1.050
2020/01/31 04:28:47.7	92.130	0.510	-1.040	1.050
2020/01/31 04:28:47.8	92.130	0.500	-1.030	1.040
2020/01/31 04:28:47.9	92.130	0.490	-1.010	1.030
2020/01/31 04:28:48.0	92.120	0.480	-0.980	1.020
2020/01/31 04:28:48.1	92.120	0.460	-0.940	1.000
2020/01/31 04:28:48.2	92.130	0.440	-0.900	0.990
2020/01/31 04:28:48.3	92.130	0.410	-0.840	0.980
2020/01/31 04:28:48.4	92.130	0.390	-0.780	0.960
2020/01/31 04:28:48.5	92.130	0.350	-0.710	0.950
2020/01/31 04:28:48.6	92.130	0.320	-0.630	0.940
2020/01/31 04:28:48.7	92.130	0.280	-0.540	0.930
2020/01/31 04:28:48.8	92.120	0.240	-0.450	0.930
2020/01/31 04:28:48.9	92.120	0.200	-0.350	0.920
2020/01/31 04:28:49.0	92.120	0.160	-0.250	0.910
2020/01/31 04:28:49.1	92.110	0.120	-0.140	0.910
2020/01/31 04:28:49.2	92.110	0.070	-0.030	0.910
2020/01/31 04:28:49.3	92.100	0.030	0.080	0.910
2020/01/31 04:28:49.4	92.090	-0.020	0.190	0.900
2020/01/31 04:28:49.5	92.080	-0.060	0.300	0.900
2020/01/31 04:28:49.6	92.060	-0.100	0.400	0.900
2020/01/31 04:28:49.7	92.050	-0.150	0.500	0.900
2020/01/31 04:28:49.8	92.030	-0.190	0.600	0.900
2020/01/31 04:28:49.9	92.010	-0.230	0.680	0.900
2020/01/31 04:28:50.0	92.000	-0.260	0.760	0.900
2020/01/31 04:28:50.1	91.980	-0.300	0.830	0.900
2020/01/31 04:28:50.2	91.960	-0.330	0.890	0.900
2020/01/31 04:28:50.3	91.940	-0.360	0.940	0.890
2020/01/31 04:28:50.4	91.920	-0.380	0.980	0.890
2020/01/31 04:28:50.5	91.910	-0.400	1.000	0.880
2020/01/31 04:28:50.6	91.890	-0.420	1.020	0.860
2020/01/31 04:28:50.7	91.880	-0.430	1.010	0.850
2020/01/31 04:28:50.8	91.870	-0.440	1.000	0.830
2020/01/31 04:28:50.9	91.860	-0.440	0.960	0.800
2020/01/31 04:28:51.0	91.860	-0.430	0.920	0.780
2020/01/31 04:28:51.1	91.850	-0.430	0.860	0.760
2020/01/31 04:28:51.2	91.850	-0.410	0.790	0.730
2020/01/31 04:28:51.3	91.850	-0.400	0.710	0.710
2020/01/31 04:28:51.4	91.850	-0.370	0.610	0.690
2020/01/31 04:28:51.5	91.850	-0.350	0.510	0.670
2020/01/31 04:28:51.6	91.850	-0.320	0.390	0.650
2020/01/31 04:28:51.7	91.860	-0.280	0.270	0.630
2020/01/31 04:28:51.8	91.860	-0.240	0.150	0.620
2020/01/31 04:28:51.9	91.870	-0.210	0.020	0.600
2020/01/31 04:28:52.0	91.870	-0.160	-0.120	0.590
2020/01/31 04:28:52.1	91.880	-0.120	-0.260	0.580
2020/01/31 04:28:52.2	91.890	-0.080	-0.390	0.570
2020/01/31 04:28:52.3	91.900	-0.030	-0.530	0.550
2020/01/31 04:28:52.4	91.910	0.010	-0.660	0.540
2020/01/31 04:28:52.5	91.920	0.060	-0.780	0.530
2020/01/31 04:28:52.6	91.930	0.100	-0.900	0.520
2020/01/31 04:28:52.7	91.940	0.140	-1.010	0.510
2020/01/31 04:28:52.8	91.960	0.180	-1.110	0.490
2020/01/31 04:28:52.9	91.970	0.220	-1.200	0.480
2020/01/31 04:28:53.0	91.990	0.250	-1.270	0.470
2020/01/31 04:28:53.1	92.010	0.280	-1.340	0.460
2020/01/31 04:28:53.2	92.030	0.310	-1.390	0.450
2020/01/31 04:28:53.3	92.050	0.330	-1.430	0.440
2020/01/31 04:28:53.4	92.070	0.350	-1.450	0.440
2020/01/31 04:28:53.5	92.090	0.360	-1.450	0.430
2020/01/31 04:28:53.6	92.110	0.370	-1.450	0.430
2020/01/31 04:28:53.7	92.130	0.370	-1.420	0.440
2020/01/31 04:28:53.8	92.150	0.370	-1.380	0.440
2020/01/31 04:28:53.9	92.160	0.370	-1.330	0.460
2020/01/31 04:28:54.0	92.180	0.350	-1.260	0.470
2020/01/31 04:28:54.1	92.190	0.340	-1.180	0.500
2020/01/31 04:28:54.2	92.190	0.320	-1.080	0.530
2020/01/31 04:28:54.3	92.200	0.290	-0.980	0.560
2020/01/31 04:28:54.4	92.200	0.260	-0.860	0.600
2020/01/31 04:28:54.5	92.210	0.220	-0.730	0.640
2020/01/31 04:28:54.6	92.200	0.180	-0.600	0.690
2020/01/31 04:28:54.7	92.200	0.140	-0.460	0.740
2020/01/31 04:28:54.8	92.190	0.090	-0.320	0.790
2020/01/31 04:28:54.9	92.180	0.040	-0.170	0.840
2020/01/31 04:28:55.0	92.160	-0.010	-0.020	0.900
2020/01/31 04:28:55.1	92.150	-0.070	0.140	0.960
2020/01/31 04:28:55.2	92.120	-0.120	0.280	1.010
2020/01/31 04:28:55.3	92.100	-0.180	0.420	1.070
2020/01/31 04:28:55.4	92.070	-0.240	0.560	1.120
2020/01/31 04:28:55.5	92.050	-0.300	0.690	1.160
2020/01/31 04:28:55.6	92.020	-0.360	0.810	1.210
2020/01/31 04:28:55.7	91.990	-0.420	0.930	1.240
2020/01/31 04:28:55.8	91.950	-0.470	1.030	1.280
2020/01/31 04:28:55.9	91.920	-0.530	1.120	1.310
2020/01/31 04:28:56.0	91.890	-0.580	1.190	1.330
2020/01/31 04:28:56.1	91.860	-0.630	1.250	1.350
2020/01/31 04:28:56.2	91.830	-0.670	1.290	1.360
2020/01/31 04:28:56.3	91.790	-0.700	1.320	1.360
2020/01/31 04:28:56.4	91.760	-0.730	1.330	1.360
2020/01/31 04:28:56.5	91.740	-0.750	1.320	1.350
2020/01/31 04:28:56.6	91.710	-0.770	1.290	1.340
2020/01/31 04:28:56.7	91.690	-0.780	1.240	1.320
2020/01/31 04:28:56.8	91.670	-0.780	1.180	1.290
2020/01/31 04:28:56.9	91.650	-0.770	1.090	1.260
2020/01/31 04:28:57.0	91.630	-0.750	0.990	1.220
2020/01/31 04:28:57.1	91.620	-0.720	0.880	1.190
2020/01/31 04:28:57.2	91.610	-0.680	0.740	1.150
2020/01/31 04:28:57.3	91.600	-0.640	0.600	1.110
2020/01/31 04:28:57.4	91.590	-0.580	0.450	1.070
2020/01/31 04:28:57.5	91.590	-0.520	0.280	1.020
2020/01/31 04:28:57.6	91.590	-0.450	0.110	0.980
2020/01/31 04:28:57.7	91.590	-0.380	-0.070	0.940
2020/01/31 04:28:57.8	91.590	-0.300	-0.250	0.900
2020/01/31 04:28:57.9	91.590	-0.210	-0.430	0.860
2020/01/31 04:28:58.0	91.590	-0.120	-0.610	0.830
2020/01/31 04:28:58.1	91.600	-0.030	-0.790	0.790
2020/01/31 04:28:58.2	91.600	0.060	-0.970	0.750
2020/01/31 04:28:58.3	91.600	0.160	-1.130	0.720
2020/01/31 04:28:58.4	91.600	0.260	-1.290	0.690
2020/01/31 04:28:58.5	91.600	0.350	-1.440	0.660
2020/01/31 04:28:58.6	91.600	0.450	-1.570	0.630
2020/01/31 04:28:58.7	91.600	0.540	-1.700	0.600
2020/01/31 04:28:58.8	91.590	0.630	-1.800	0.580
2020/01/31 04:28:58.9	91.580	0.710	-1.900	0.550
2020/01/31 04:28:59.0	91.580	0.790	-1.970	0.530
2020/01/31 04:28:59.1	91.570	0.860	-2.020	0.500
2020/01/31 04:28:59.2	91.550	0.930	-2.060	0.480
2020/01/31 04:28:59.3	91.540	0.980	-2.080	0.450
2020/01/31 04:28:59.4	91.520	1.030	-2.080	0.430
2020/01/31 04:28:59.5	91.510	1.070	-2.060	0.400
2020/01/31 04:28:59.6	91.490	1.100	-2.030	0.380
2020/01/31 04:28:59.7	91.470	1.120	-1.970	0.360
2020/01/31 04:28:59.8	91.450	1.130	-1.900	0.340
2020/01/31 04:28:59.9	91.430	1.130	-1.810	0.320
2020/01/31 04:29:00.0	91.410	1.120	-1.710	0.300
2020/01/31 04:29:00.1	91.390	1.110	-1.580	0.290
2020/01/31 04:29:00.2	91.370	1.080	-1.450	0.280
2020/01/31 04:29:00.3	91.340	1.040	-1.310	0.280
2020/01/31 04:29:00.4	91.320	1.000	-1.160	0.280
2020/01/31 04:29:00.5	91.300	0.940	-0.990	0.290
2020/01/31 04:29:00.6	91.270	0.880	-0.830	0.300
2020/01/31 04:29:00.7	91.250	0.810	-0.650	0.320
2020/01/31 04:29:00.8	91.230	0.740	-0.470	0.340
2020/01/31 04:29:00.9	91.210	0.660	-0.300	0.370
2020/01/31 04:29:01.0	91.190	0.580	-0.120	0.400
2020/01/31 04:29:01.1	91.170	0.490	0.070	0.430
2020/01/31 04:29:01.2	91.160	0.400	0.240	0.470
2020/01/31 04:29:01.3	91.140	0.300	0.410	0.510
2020/01/31 04:29:01.4	91.130	0.210	0.560	0.550
2020/01/31 04:29:01.5	91.120	0.110	0.710	0.590
2020/01/31 04:29:01.6	91.120	0.020	0.850	0.630
2020/01/31 04:29:01.7	91.110	-0.070	0.980	0.670
2020/01/31 04:29:01.8	91.110	-0.160	1.100	0.710
2020/01/31 04:29:01.9	91.110	-0.250	1.200	0.740
2020/01/31 04:29:02.0	91.120	-0.330	1.280	0.780
2020/01/31 04:29:02.1	91.120	-0.410	1.350	0.810
2020/01/31 04:29:02.2	91.130	-0.490	1.400	0.840
2020/01/31 04:29:02.3	91.140	-0.550	1.440	0.860
2020/01/31 04:29:02.4	91.160	-0.610	1.460	0.880
2020/01/31 04:29:02.5	91.170	-0.670	1.460	0.900
2020/01/31 04:29:02.6	91.190	-0.720	1.450	0.910
2020/01/31 04:29:02.7	91.210	-0.760	1.420	0.920
2020/01/31 04:29:02.8	91.230	-0.790	1.380	0.930
2020/01/31 04:29:02.9	91.250	-0.820	1.320	0.940
2020/01/31 04:29:03.0	91.260	-0.840	1.250	0.940
2020/01/31 04:29:03.1	91.290	-0.850	1.170	0.940
2020/01/31 04:29:03.2	91.300	-0.850	1.080	0.940
2020/01/31 04:29:03.3	91.320	-0.850	0.980	0.940
2020/01/31 04:29:03.4	91.340	-0.850	0.870	0.940
2020/01/31 04:29:03.5	91.350	-0.830	0.750	0.930
2020/01/31 04:29:03.6	91.370	-0.820	0.640	0.930
2020/01/31 04:29:03.7	91.380	-0.790	0.520	0.930
2020/01/31 04:29:03.8	91.390	-0.770	0.390	0.930
2020/01/31 04:29:03.9	91.400	-0.740	0.270	0.940
2020/01/31 04:29:04.0	91.400	-0.700	0.140	0.940
2020/01/31 04:29:04.1	91.410	-0.670	0.020	0.950
2020/01/31 04:29:04.2	91.410	-0.630	-0.100	0.960
2020/01/31 04:29:04.3	91.410	-0.590	-0.220	0.980
2020/01/31 04:29:04.4	91.410	-0.550	-0.330	1.000
2020/01/31 04:29:04.5	91.400	-0.510	-0.430	1.030
2020/01/31 04:29:04.6	91.390	-0.470	-0.530	1.050
2020/01/31 04:29:04.7	91.380	-0.430	-0.620	1.080
2020/01/31 04:29:04.8	91.370	-0.400	-0.700	1.110
2020/01/31 04:29:04.9	91.350	-0.360	-0.770	1.150
2020/01/31 04:29:05.0	91.340	-0.330	-0.840	1.180
2020/01/31 04:29:05.1	91.330	-0.290	-0.890	1.220
2020/01/31 04:29:05.2	91.310	-0.270	-0.940	1.260
2020/01/31 04:29:05.3	91.300	-0.240	-0.980	1.290
2020/01/31 04:29:05.4	91.280	-0.220	-1.010	1.330
2020/01/31 04:29:05.5	91.270	-0.200	-1.030	1.360
2020/01/31 04:29:05.6	91.250	-0.180	-1.030	1.390
2020/01/31 04:29:05.7	91.240	-0.170	-1.040	1.420
2020/01/31 04:29:05.8	91.230	-0.160	-1.030	1.450
2020/01/31 04:29:05.9	91.210	-0.150	-1.020	1.480
2020/01/31 04:29:06.0	91.200	-0.140	-0.990	1.500
2020/01/31 04:29:06.1	91.190	-0.140	-0.960	1.520
2020/01/31 04:29:06.2	91.180	-0.140	-0.930	1.530
2020/01/31 04:29:06.3	91.180	-0.140	-0.890	1.550
2020/01/31 04:29:06.4	91.170	-0.140	-0.840	1.560
2020/01/31 04:29:06.5	91.160	-0.140	-0.790	1.560
2020/01/31 04:29:06.6	91.160	-0.140	-0.730	1.570
2020/01/31 04:29:06.7	91.160	-0.140	-0.680	1.570
2020/01/31 04:29:06.8	91.150	-0.150	-0.620	1.560
2020/01/31 04:29:06.9	91.150	-0.150	-0.560	1.560
2020/01/31 04:29:07.0	91.150	-0.150	-0.490	1.550
2020/01/31 04:29:07.1	91.150	-0.160	-0.430	1.540
2020/01/31 04:29:07.2	91.140	-0.160	-0.370	1.520
2020/01/31 04:29:07.3	91.140	-0.160	-0.310	1.510
2020/01/31 04:29:07.4	91.140	-0.160	-0.260	1.490
2020/01/31 04:29:07.5	91.140	-0.150	-0.200	1.460
2020/01/31 04:29:07.6	91.140	-0.140	-0.160	1.440
2020/01/31 04:29:07.7	91.140	-0.140	-0.110	1.410
2020/01/31 04:29:07.8	91.140	-0.130	-0.070	1.380
2020/01/31 04:29:07.9	91.140	-0.110	-0.040	1.350
2020/01/31 04:29:08.0	91.140	-0.100	-0.010	1.310
2020/01/31 04:29:08.1	91.140	-0.080	0.010	1.270
2020/01/31 04:29:08.2	91.140	-0.060	0.030	1.230
2020/01/31 04:29:08.3	91.140	-0.040	0.040	1.180
2020/01/31 04:29:08.4	91.140	-0.010	0.050	1.130
2020/01/31 04:29:08.5	91.140	0.010	0.050	1.080
2020/01/31 04:29:08.6	91.130	0.040	0.040	1.030
2020/01/31 04:29:08.7	91.130	0.070	0.030	0.980
2020/01/31 04:29:08.8	91.120	0.110	0.020	0.920
2020/01/31 04:29:08.9	91.120	0.140	-0.000	0.860
2020/01/31 04:29:09.0	91.110	0.170	-0.030	0.810
2020/01/31 04:29:09.1	91.100	0.210	-0.050	0.750
2020/01/31 04:29:09.2	91.090	0.240	-0.090	0.690
2020/01/31 04:29:09.3	91.080	0.280	-0.120	0.630
2020/01/31 04:29:09.4	91.060	0.320	-0.150	0.570
2020/01/31 04:29:09.5	91.050	0.350	-0.190	0.520
2020/01/31 04:29:09.6	91.040	0.390	-0.230	0.460
2020/01/31 04:29:09.7	91.030	0.420	-0.270	0.410
2020/01/31 04:29:09.8	91.020	0.460	-0.310	0.360
2020/01/31 04:29:09.9	91.010	0.490	-0.350	0.310
2020/01/31 04:29:10.0	91.000	0.520	-0.390	0.260
2020/01/31 04:29:10.1	90.990	0.550	-0.420	0.220
2020/01/31 04:29:10.2	90.980	0.570	-0.460	0.180
2020/01/31 04:29:10.3	90.970	0.600	-0.490	0.150
2020/01/31 04:29:10.4	90.970	0.620	-0.520	0.120
2020/01/31 04:29:10.5	90.970	0.640	-0.550	0.090
2020/01/31 04:29:10.6	90.960	0.660	-0.570	0.070
2020/01/31 04:29:10.7	90.970	0.680	-0.600	0.060
2020/01/31 04:29:10.8	90.970	0.690	-0.610	0.050
2020/01/31 04:29:10.9	90.970	0.700	-0.630	0.040
2020/01/31 04:29:11.0	90.980	0.710	-0.640	0.040
2020/01/31 04:29:11.1	90.980	0.710	-0.640	0.040
2020/01/31 04:29:11.2	90.990	0.720	-0.640	0.050
2020/01/31 04:29:11.3	91.000	0.710	-0.640	0.050
2020/01/31 04:29:11.4	91.000	0.710	-0.630	0.070
2020/01/31 04:29:11.5	91.010	0.700	-0.610	0.080
2020/01/31 04:29:11.6	91.010	0.690	-0.590	0.100
2020/01/31 04:29:11.7	91.010	0.670	-0.570	0.120
2020/01/31 04:29:11.8	91.020	0.650	-0.540	0.140
2020/01/31 04:29:11.9	91.020	0.630	-0.500	0.160
2020/01/31 04:29:12.0	91.020	0.600	-0.470	0.190
2020/01/31 04:29:12.1	91.020	0.570	-0.430	0.210
2020/01/31 04:29:12.2	91.020	0.540	-0.380	0.230
2020/01/31 04:29:12.3	91.020	0.500	-0.330	0.250
2020/01/31 04:29:12.4	91.010	0.460	-0.290	0.270
2020/01/31 04:29:12.5	91.010	0.420	-0.240	0.290
2020/01/31 04:29:12.6	91.010	0.380	-0.190	0.300
2020/01/31 04:29:12.7	91.000	0.330	-0.140	0.320
2020/01/31 04:29:12.8	91.000	0.280	-0.080	0.340
2020/01/31 04:29:12.9	90.990	0.230	-0.040	0.350
2020/01/31 04:29:13.0	90.990	0.180	0.010	0.370
2020/01/31 04:29:13.1	90.990	0.130	0.060	0.390
2020/01/31 04:29:13.2	90.980	0.080	0.100	0.400
2020/01/31 04:29:13.3	90.980	0.030	0.130	0.420
2020/01/31 04:29:13.4	90.970	-0.020	0.170	0.440
2020/01/31 04:29:13.5	90.970	-0.070	0.190	0.460
2020/01/31 04:29:13.6	90.970	-0.110	0.220	0.480
2020/01/31 04:29:13.7	90.970	-0.150	0.240	0.500
2020/01/31 04:29:13.8	90.970	-0.190	0.250	0.520
2020/01/31 04:29:13.9	90.970	-0.230	0.260	0.550
2020/01/31 04:29:14.0	90.970	-0.260	0.260	0.570
2020/01/31 04:29:14.1	90.970	-0.290	0.260	0.600
2020/01/31 04:29:14.2	90.980	-0.320	0.250	0.630
2020/01/31 04:29:14.3	90.980	-0.340	0.240	0.660
2020/01/31 04:29:14.4	90.980	-0.360	0.220	0.690
2020/01/31 04:29:14.5	90.990	-0.370	0.200	0.730
2020/01/31 04:29:14.6	90.990	-0.380	0.180	0.770
2020/01/31 04:29:14.7	91.000	-0.390	0.150	0.800
2020/01/31 04:29:14.8	91.010	-0.390	0.130	0.840
2020/01/31 04:29:14.9	91.010	-0.400	0.100	0.880
2020/01/31 04:29:15.0	91.020	-0.390	0.070	0.920
2020/01/31 04:29:15.1	91.030	-0.390	0.040	0.960
2020/01/31 04:29:15.2	91.050	-0.380	0.010	1.000
2020/01/31 04:29:15.3	91.060	-0.380	-0.020	1.030
2020/01/31 04:29:15.4	91.070	-0.370	-0.050	1.060
2020/01/31 04:29:15.5	91.090	-0.350	-0.070	1.090
2020/01/31 04:29:15.6	91.110	-0.340	-0.100	1.120
2020/01/31 04:29:15.7	91.120	-0.330	-0.120	1.150
2020/01/31 04:29:15.8	91.140	-0.320	-0.140	1.170
2020/01/31 04:29:15.9	91.160	-0.300	-0.160	1.180
2020/01/31 04:29:16.0	91.170	-0.290	-0.180	1.200
2020/01/31 04:29:16.1	91.190	-0.280	-0.190	1.210
2020/01/31 04:29:16.2	91.210	-0.260	-0.200	1.220
2020/01/31 04:29:16.3	91.220	-0.250	-0.210	1.220
2020/01/31 04:29:16.4	91.240	-0.240	-0.220	1.220
2020/01/31 04:29:16.5	91.260	-0.230	-0.230	1.220
2020/01/31 04:29:16.6	91.270	-0.220	-0.230	1.210
2020/01/31 04:29:16.7	91.290	-0.220	-0.230	1.200
2020/01/31 04:29:16.8	91.300	-0.210	-0.230	1.190
2020/01/31 04:29:16.9	91.310	-0.210	-0.230	1.180
2020/01/31 04:29:17.0	91.320	-0.210	-0.230	1.170
2020/01/31 04:29:17.1	91.340	-0.200	-0.230	1.150
2020/01/31 04:29:17.2	91.350	-0.200	-0.220	1.130
2020/01/31 04:29:17.3	91.360	-0.200	-0.220	1.120
2020/01/31 04:29:17.4	91.360	-0.210	-0.210	1.100
2020/01/31 04:29:17.5	91.370	-0.210	-0.200	1.080
2020/01/31 04:29:17.6	91.370	-0.210	-0.200	1.070
2020/01/31 04:29:17.7	91.380	-0.220	-0.190	1.050
2020/01/31 04:29:17.8	91.380	-0.220	-0.180	1.040
2020/01/31 04:29:17.9	91.380	-0.230	-0.180	1.030
2020/01/31 04:29:18.0	91.380	-0.230	-0.170	1.020
2020/01/31 04:29:18.1	91.380	-0.240	-0.170	1.010
2020/01/31 04:29:18.2	91.370	-0.240	-0.170	1.000
2020/01/31 04:29:18.3	91.370	-0.250	-0.170	1.000
2020/01/31 04:29:18.4	91.360	-0.250	-0.170	0.990
2020/01/31 04:29:18.5	91.350	-0.250	-0.180	0.990
2020/01/31 04:29:18.6	91.340	-0.250	-0.180	0.990
2020/01/31 04:29:18.7	91.330	-0.250	-0.190	0.990
2020/01/31 04:29:18.8	91.320	-0.240	-0.200	0.990
2020/01/31 04:29:18.9	91.310	-0.240	-0.220	0.990
2020/01/31 04:29:19.0	91.300	-0.230	-0.240	1.000
2020/01/31 04:29:19.1	91.290	-0.220	-0.260	1.000
2020/01/31 04:29:19.2	91.280	-0.200	-0.280	1.000
2020/01/31 04:29:19.3	91.270	-0.190	-0.300	1.000
2020/01/31 04:29:19.4	91.270	-0.170	-0.330	1.000
2020/01/31 04:29:19.5	91.260	-0.150	-0.360	1.000
2020/01/31 04:29:19.6	91.250	-0.130	-0.390	1.000
2020/01/31 04:29:19.7	91.240	-0.100	-0.420	1.000
2020/01/31 04:29:19.8	91.230	-0.080	-0.460	1.000
2020/01/31 04:29:19.9	91.230	-0.050	-0.490	0.990
2020/01/31 04:29:20.0	91.220	-0.020	-0.520	0.980
2020/01/31 04:29:20.1	91.210	0.010	-0.560	0.970
2020/01/31 04:29:20.2	91.200	0.030	-0.590	0.960
2020/01/31 04:29:20.3	91.190	0.060	-0.620	0.950
2020/01/31 04:29:20.4	91.180	0.090	-0.650	0.940
2020/01/31 04:29:20.5	91.180	0.120	-0.670	0.920
2020/01/31 04:29:20.6	91.170	0.150	-0.690	0.900
2020/01/31 04:29:20.7	91.160	0.170	-0.710	0.880
2020/01/31 04:29:20.8	91.150	0.200	-0.730	0.860
2020/01/31 04:29:20.9	91.140	0.220	-0.740	0.840
2020/01/31 04:29:21.0	91.130	0.240	-0.750	0.820
2020/01/31 04:29:21.1	91.120	0.260	-0.750	0.800
2020/01/31 04:29:21.2	91.110	0.270	-0.740	0.770
2020/01/31 04:29:21.3	91.100	0.290	-0.740	0.750
2020/01/31 04:29:21.4	91.100	0.300	-0.720	0.730
2020/01/31 04:29:21.5	91.090	0.310	-0.710	0.710
2020/01/31 04:29:21.6	91.080	0.310	-0.680	0.700
2020/01/31 04:29:21.7	91.080	0.310	-0.660	0.680
2020/01/31 04:29:21.8	91.070	0.310	-0.620	0.670
2020/01/31 04:29:21.9	91.070	0.300	-0.590	0.650
2020/01/31 04:29:22.0	91.070	0.290	-0.540	0.650
2020/01/31 04:29:22.1	91.070	0.280	-0.500	0.640
2020/01/31 04:29:22.2	91.070	0.260	-0.450	0.630
2020/01/31 04:29:22.3	91.060	0.240	-0.390	0.630
2020/01/31 04:29:22.4	91.060	0.220	-0.330	0.630
2020/01/31 04:29:22.5	91.060	0.190	-0.270	0.630
2020/01/31 04:29:22.6	91.060	0.160	-0.200	0.630
2020/01/31 04:29:22.7	91.060	0.120	-0.140	0.630
2020/01/31 04:29:22.8	91.060	0.090	-0.070	0.630
2020/01/31 04:29:22.9	91.060	0.050	0.000	0.630
2020/01/31 04:29:23.0	91.070	0.010	0.080	0.630
2020/01/31 04:29:23.1	91.070	-0.040	0.150	0.630
2020/01/31 04:29:23.2	91.070	-0.080	0.220	0.630
2020/01/31 04:29:23.3	91.070	-0.130	0.290	0.620
2020/01/31 04:29:23.4	91.070	-0.170	0.360	0.620
2020/01/31 04:29:23.5	91.080	-0.220	0.430	0.610
2020/01/31 04:29:23.6	91.080	-0.260	0.490	0.600
2020/01/31 04:29:23.7	91.080	-0.310	0.540	0.590
2020/01/31 04:29:23.8	91.090	-0.350	0.590	0.570
2020/01/31 04:29:23.9	91.090	-0.390	0.640	0.560
2020/01/31 04:29:24.0	91.100	-0.420	0.680	0.540
2020/01/31 04:29:24.1	91.100	-0.460	0.710	0.520
2020/01/31 04:29:24.2	91.110	-0.490	0.730	0.500
2020/01/31 04:29:24.3	91.110	-0.510	0.740	0.490
2020/01/31 04:29:24.4	91.120	-0.530	0.740	0.470
2020/01/31 04:29:24.5	91.120	-0.540	0.740	0.450
2020/01/31 04:29:24.6	91.130	-0.550	0.720	0.440
2020/01/31 04:29:24.7	91.140	-0.550	0.690	0.430
2020/01/31 04:29:24.8	91.140	-0.540	0.650	0.410
2020/01/31 04:29:24.9	91.150	-0.530	0.600	0.400
2020/01/31 04:29:25.0	91.150	-0.510	0.530	0.400
2020/01/31 04:29:25.1	91.160	-0.480	0.460	0.390
2020/01/31 04:29:25.2	91.160	-0.440	0.380	0.380
2020/01/31 04:29:25.3	91.170	-0.400	0.290	0.380
2020/01/31 04:29:25.4	91.170	-0.360	0.190	0.380
2020/01/31 04:29:25.5	91.180	-0.310	0.080	0.380
2020/01/31 04:29:25.6	91.190	-0.250	-0.030	0.380
2020/01/31 04:29:25.7	91.200	-0.190	-0.150	0.380
2020/01/31 04:29:25.8	91.210	-0.120	-0.270	0.380
2020/01/31 04:29:25.9	91.220	-0.050	-0.400	0.390
2020/01/31 04:29:26.0	91.230	0.020	-0.520	0.390
2020/01/31 04:29:26.1	91.240	0.090	-0.650	0.400
2020/01/31 04:29:26.2	91.250	0.170	-0.770	0.400
2020/01/31 04:29:26.3	91.260	0.240	-0.890	0.410
2020/01/31 04:29:26.4	91.260	0.310	-1.000	0.420
2020/01/31 04:29:26.5	91.270	0.380	-1.100	0.420
2020/01/31 04:29:26.6	91.270	0.450	-1.190	0.430
2020/01/31 04:29:26.7	91.280	0.510	-1.280	0.440
2020/01/31 04:29:26.8	91.280	0.570	-1.350	0.450
2020/01/31 04:29:26.9	91.280	0.630	-1.410	0.460
2020/01/31 04:29:27.0	91.280	0.680	-1.450	0.460
2020/01/31 04:29:27.1	91.280	0.720	-1.490	0.470
2020/01/31 04:29:27.2	91.280	0.760	-1.510	0.480
2020/01/31 04:29:27.3	91.280	0.800	-1.520	0.490
2020/01/31 04:29:27.4	91.270	0.830	-1.520	0.490
2020/01/31 04:29:27.5	91.260	0.850	-1.500	0.500
2020/01/31 04:29:27.6	91.260	0.870	-1.470	0.510
2020/01/31 04:29:27.7	91.250	0.880	-1.420	0.520
2020/01/31 04:29:27.8	91.240	0.880	-1.360	0.530
2020/01/31 04:29:27.9	91.230	0.880	-1.300	0.550
2020/01/31 04:29:28.0	91.210	0.870	-1.220	0.560
2020/01/31 04:29:28.1	91.200	0.860	-1.120	0.580
2020/01/31 04:29:28.2	91.180	0.840	-1.020	0.600
2020/01/31 04:29:28.3	91.170	0.820	-0.920	0.620
2020/01/31 04:29:28.4	91.150	0.800	-0.800	0.640
2020/01/31 04:29:28.5	91.130	0.770	-0.680	0.670
2020/01/31 04:29:28.6	91.120	0.730	-0.560	0.700
2020/01/31 04:29:28.7	91.100	0.700	-0.440	0.720
2020/01/31 04:29:28.8	91.080	0.660	-0.320	0.750
2020/01/31 04:29:28.9	91.060	0.620	-0.190	0.780
2020/01/31 04:29:29.0	91.050	0.580	-0.070	0.810
2020/01/31 04:29:29.1	91.040	0.530	0.040	0.840
2020/01/31 04:29:29.2	91.020	0.490	0.150	0.860
2020/01/31 04:29:29.3	91.010	0.450	0.260	0.880
2020/01/31 04:29:29.4	91.000	0.410	0.350	0.900
2020/01/31 04:29:29.5	90.990	0.360	0.440	0.920
2020/01/31 04:29:29.6	90.980	0.320	0.520	0.940
2020/01/31 04:29:29.7	90.970	0.280	0.590	0.950
2020/01/31 04:29:29.8	90.970	0.250	0.640	0.970
2020/01/31 04:29:29.9	90.970	0.210	0.690	0.970
2020/01/31 04:29:30.0	90.970	0.170	0.730	0.980
2020/01/31 04:29:30.1	90.970	0.140	0.750	0.980
2020/01/31 04:29:30.2	90.970	0.110	0.760	0.980
2020/01/31 04:29:30.3	90.980	0.080	0.770	0.980
2020/01/31 04:29:30.4	90.980	0.050	0.760	0.970
2020/01/31 04:29:30.5	90.990	0.020	0.750	0.970
2020/01/31 04:29:30.6	91.000	-0.000	0.720	0.950
2020/01/31 04:29:30.7	91.010	-0.020	0.690	0.940
2020/01/31 04:29:30.8	91.020	-0.050	0.650	0.930
2020/01/31 04:29:30.9	91.030	-0.070	0.600	0.910
2020/01/31 04:29:31.0	91.040	-0.090	0.550	0.900
2020/01/31 04:29:31.1	91.060	-0.110	0.490	0.880
2020/01/31 04:29:31.2	91.070	-0.130	0.430	0.860
2020/01/31 04:29:31.3	91.080	-0.150	0.370	0.840
2020/01/31 04:29:31.4	91.090	-0.170	0.300	0.830
2020/01/31 04:29:31.5	91.100	-0.190	0.240	0.810
2020/01/31 04:29:31.6	91.120	-0.210	0.180	0.800
2020/01/31 04:29:31.7	91.130	-0.230	0.120	0.790
2020/01/31 04:29:31.8	91.140	-0.250	0.050	0.780
2020/01/31 04:29:31.9	91.150	-0.260	-0.000	0.770
2020/01/31 04:29:32.0	91.170	-0.280	-0.060	0.760
2020/01/31 04:29:32.1	91.180	-0.300	-0.110	0.760
2020/01/31 04:29:32.2	91.190	-0.320	-0.150	0.750
2020/01/31 04:29:32.3	91.200	-0.340	-0.200	0.750
2020/01/31 04:29:32.4	91.220	-0.360	-0.230	0.750
2020/01/31 04:29:32.5	91.230	-0.380	-0.260	0.750
2020/01/31 04:29:32.6	91.240	-0.400	-0.290	0.750
2020/01/31 04:29:32.7	91.250	-0.420	-0.300	0.760
2020/01/31 04:29:32.8	91.260	-0.440	-0.310	0.760
2020/01/31 04:29:32.9	91.270	-0.470	-0.320	0.770
2020/01/31 04:29:33.0	91.280	-0.490	-0.310	0.780
2020/01/31 04:29:33.1	91.290	-0.510	-0.310	0.790
2020/01/31 04:29:33.2	91.300	-0.530	-0.290	0.810
2020/01/31 04:29:33.3	91.320	-0.560	-0.270	0.820
2020/01/31 04:29:33.4	91.330	-0.580	-0.250	0.830
2020/01/31 04:29:33.5	91.330	-0.610	-0.210	0.850
2020/01/31 04:29:33.6	91.340	-0.630	-0.180	0.870
2020/01/31 04:29:33.7	91.350	-0.650	-0.140	0.880
2020/01/31 04:29:33.8	91.360	-0.680	-0.100	0.900
2020/01/31 04:29:33.9	91.370	-0.700	-0.060	0.910
2020/01/31 04:29:34.0	91.380	-0.720	-0.020	0.930
2020/01/31 04:29:34.1	91.390	-0.740	0.030	0.950
2020/01/31 04:29:34.2	91.400	-0.750	0.070	0.960
2020/01/31 04:29:34.3	91.410	-0.770	0.100	0.970
2020/01/31 04:29:34.4	91.420	-0.780	0.130	0.990
2020/01/31 04:29:34.5	91.420	-0.790	0.160	1.000
2020/01/31 04:29:34.6	91.430	-0.800	0.180	1.010
2020/01/31 04:29:34.7	91.440	-0.800	0.190	1.010
2020/01/31 04:29:34.8	91.450	-0.800	0.200	1.010
2020/01/31 04:29:34.9	91.450	-0.790	0.200	1.020
2020/01/31 04:29:35.0	91.460	-0.790	0.190	1.010
2020/01/31 04:29:35.1	91.470	-0.770	0.180	1.010
2020/01/31 04:29:35.2	91.480	-0.750	0.150	1.000
2020/01/31 04:29:35.3	91.480	-0.730	0.120	0.990
2020/01/31 04:29:35.4	91.490	-0.700	0.080	0.980
2020/01/31 04:29:35.5	91.490	-0.670	0.030	0.960
2020/01/31 04:29:35.6	91.500	-0.630	-0.030	0.950
2020/01/31 04:29:35.7	91.500	-0.590	-0.100	0.930
2020/01/31 04:29:35.8	91.500	-0.540	-0.170	0.920
2020/01/31 04:29:35.9	91.500	-0.480	-0.250	0.900
2020/01/31 04:29:36.0	91.500	-0.430	-0.330	0.890
2020/01/31 04:29:36.1	91.500	-0.360	-0.420	0.870
2020/01/31 04:29:36.2	91.500	-0.300	-0.500	0.860
2020/01/31 04:29:36.3	91.490	-0.230	-0.590	0.840
2020/01/31 04:29:36.4	91.490	-0.160	-0.680	0.830
2020/01/31 04:29:36.5	91.480	-0.090	-0.770	0.820
2020/01/31 04:29:36.6	91.480	-0.020	-0.860	0.810
2020/01/31 04:29:36.7	91.470	0.060	-0.940	0.800
2020/01/31 04:29:36.8	91.460	0.130	-1.010	0.790
2020/01/31 04:29:36.9	91.460	0.200	-1.080	0.780
2020/01/31 04:29:37.0	91.450	0.270	-1.140	0.780
2020/01/31 04:29:37.1	91.430	0.340	-1.200	0.770
2020/01/31 04:29:37.2	91.420	0.400	-1.240	0.770
2020/01/31 04:29:37.3	91.410	0.460	-1.280	0.770
2020/01/31 04:29:37.4	91.400	0.510	-1.300	0.760
2020/01/31 04:29:37.5	91.390	0.560	-1.320	0.760
2020/01/31 04:29:37.6	91.380	0.610	-1.320	0.760
2020/01/31 04:29:37.7	91.360	0.650	-1.310	0.750
2020/01/31 04:29:37.8	91.350	0.680	-1.290	0.750
2020/01/31 04:29:37.9	91.330	0.710	-1.270	0.750
2020/01/31 04:29:38.0	91.310	0.730	-1.230	0.740
2020/01/31 04:29:38.1	91.290	0.740	-1.180	0.740
2020/01/31 04:29:38.2	91.270	0.750	-1.120	0.740
2020/01/31 04:29:38.3	91.250	0.750	-1.060	0.730
2020/01/31 04:29:38.4	91.240	0.740	-0.990	0.720
2020/01/31 04:29:38.5	91.220	0.730	-0.910	0.720
2020/01/31 04:29:38.6	91.200	0.710	-0.830	0.710
2020/01/31 04:29:38.7	91.180	0.690	-0.740	0.710
2020/01/31 04:29:38.8	91.160	0.670	-0.650	0.700
2020/01/31 04:29:38.9	91.140	0.630	-0.560	0.690
2020/01/31 04:29:39.0	91.120	0.600	-0.460	0.690
2020/01/31 04:29:39.1	91.100	0.560	-0.360	0.680
2020/01/31 04:29:39.2	91.080	0.520	-0.270	0.670
2020/01/31 04:29:39.3	91.070	0.480	-0.180	0.660
2020/01/31 04:29:39.4	91.050	0.430	-0.090	0.650
2020/01/31 04:29:39.5	91.040	0.390	-0.010	0.640
2020/01/31 04:29:39.6	91.020	0.350	0.070	0.620
2020/01/31 04:29:39.7	91.010	0.300	0.140	0.610
2020/01/31 04:29:39.8	91.000	0.260	0.210	0.590
2020/01/31 04:29:39.9	91.000	0.220	0.260	0.570
2020/01/31 04:29:40.0	90.990	0.180	0.310	0.550
2020/01/31 04:29:40.1	91.000	0.140	0.350	0.530
2020/01/31 04:29:40.2	91.000	0.110	0.380	0.510
2020/01/31 04:29:40.3	91.000	0.080	0.410	0.490
2020/01/31 04:29:40.4	91.010	0.050	0.420	0.460
2020/01/31 04:29:40.5	91.020	0.030	0.420	0.440
2020/01/31 04:29:40.6	91.030	0.010	0.420	0.420
2020/01/31 04:29:40.7	91.040	-0.000	0.410	0.390
2020/01/31 04:29:40.8	91.050	-0.020	0.390	0.370
2020/01/31 04:29:40.9	91.070	-0.020	0.360	0.350
2020/01/31 04:29:41.0	91.090	-0.030	0.330	0.330
2020/01/31 04:29:41.1	91.110	-0.030	0.290	0.310
2020/01/31 04:29:41.2	91.130	-0.020	0.250	0.290
2020/01/31 04:29:41.3	91.150	-0.020	0.200	0.270
2020/01/31 04:29:41.4	91.170	-0.010	0.150	0.250
2020/01/31 04:29:41.5	91.190	0.000	0.100	0.230
2020/01/31 04:29:41.6	91.220	0.010	0.050	0.210
2020/01/31 04:29:41.7	91.240	0.030	0.000	0.200
2020/01/31 04:29:41.8	91.260	0.040	-0.050	0.180
2020/01/31 04:29:41.9	91.290	0.060	-0.100	0.170
2020/01/31 04:29:42.0	91.310	0.080	-0.140	0.160
2020/01/31 04:29:42.1	91.340	0.090	-0.180	0.150
2020/01/31 04:29:42.2	91.360	0.110	-0.210	0.140
2020/01/31 04:29:42.3	91.380	0.120	-0.240	0.140
2020/01/31 04:29:42.4	91.400	0.140	-0.260	0.140
2020/01/31 04:29:42.5	91.420	0.150	-0.280	0.140
2020/01/31 04:29:42.6	91.430	0.160	-0.290	0.150
2020/01/31 04:29:42.7	91.450	0.170	-0.290	0.160
2020/01/31 04:29:42.8	91.460	0.180	-0.290	0.170
2020/01/31 04:29:42.9	91.470	0.180	-0.280	0.180
2020/01/31 04:29:43.0	91.480	0.180	-0.260	0.200
2020/01/31 04:29:43.1	91.490	0.180	-0.240	0.220
2020/01/31 04:29:43.2	91.500	0.180	-0.220	0.240
2020/01/31 04:29:43.3	91.500	0.180	-0.180	0.270
2020/01/31 04:29:43.4	91.500	0.170	-0.150	0.290
2020/01/31 04:29:43.5	91.500	0.160	-0.110	0.320
2020/01/31 04:29:43.6	91.500	0.150	-0.070	0.350
2020/01/31 04:29:43.7	91.490	0.130	-0.030	0.390
2020/01/31 04:29:43.8	91.490	0.120	0.010	0.420
2020/01/31 04:29:43.9	91.480	0.100	0.050	0.450
2020/01/31 04:29:44.0	91.470	0.080	0.090	0.480
2020/01/31 04:29:44.1	91.470	0.060	0.130	0.520
2020/01/31 04:29:44.2	91.460	0.040	0.170	0.550
2020/01/31 04:29:44.3	91.440	0.020	0.200	0.580
2020/01/31 04:29:44.4	91.430	-0.010	0.230	0.610
2020/01/31 04:29:44.5	91.420	-0.030	0.250	0.640
2020/01/31 04:29:44.6	91.410	-0.050	0.270	0.680
2020/01/31 04:29:44.7	91.400	-0.070	0.280	0.710
2020/01/31 04:29:44.8	91.390	-0.090	0.280	0.730
2020/01/31 04:29:44.9	91.380	-0.110	0.280	0.760
2020/01/31 04:29:45.0	91.370	-0.120	0.270	0.790
2020/01/31 04:29:45.1	91.360	-0.140	0.250	0.820
2020/01/31 04:29:45.2	91.350	-0.150	0.230	0.840
2020/01/31 04:29:45.3	91.350	-0.160	0.200	0.860
2020/01/31 04:29:45.4	91.340	-0.170	0.160	0.880
2020/01/31 04:29:45.5	91.340	-0.170	0.120	0.900
2020/01/31 04:29:45.6	91.330	-0.180	0.070	0.920
2020/01/31 04:29:45.7	91.330	-0.180	0.020	0.930
2020/01/31 04:29:45.8	91.330	-0.180	-0.040	0.950
2020/01/31 04:29:45.9	91.330	-0.170	-0.100	0.960
2020/01/31 04:29:46.0	91.330	-0.170	-0.160	0.960
2020/01/31 04:29:46.1	91.340	-0.160	-0.230	0.960
2020/01/31 04:29:46.2	91.350	-0.150	-0.290	0.970
2020/01/31 04:29:46.3	91.350	-0.130	-0.350	0.970
2020/01/31 04:29:46.4	91.360	-0.120	-0.410	0.960
2020/01/31 04:29:46.5	91.370	-0.110	-0.470	0.960
2020/01/31 04:29:46.6	91.380	-0.090	-0.530	0.950
2020/01/31 04:29:46.7	91.400	-0.070	-0.580	0.940
2020/01/31 04:29:46.8	91.410	-0.060	-0.630	0.930
2020/01/31 04:29:46.9	91.430	-0.040	-0.680	0.920
2020/01/31 04:29:47.0	91.450	-0.020	-0.720	0.900
2020/01/31 04:29:47.1	91.460	-0.000	-0.750	0.890
2020/01/31 04:29:47.2	91.480	0.010	-0.780	0.870
2020/01/31 04:29:47.3	91.500	0.030	-0.800	0.860
2020/01/31 04:29:47.4	91.520	0.040	-0.820	0.850
2020/01/31 04:29:47.5	91.540	0.060	-0.830	0.840
2020/01/31 04:29:47.6	91.550	0.070	-0.840	0.830
2020/01/31 04:29:47.7	91.570	0.080	-0.840	0.820
2020/01/31 04:29:47.8	91.580	0.090	-0.830	0.820
2020/01/31 04:29:47.9	91.590	0.090	-0.820	0.820
2020/01/31 04:29:48.0	91.600	0.090	-0.800	0.820
2020/01/31 04:29:48.1	91.610	0.100	-0.780	0.830
2020/01/31 04:29:48.2	91.610	0.090	-0.750	0.840
2020/01/31 04:29:48.3	91.620	0.090	-0.720	0.860
2020/01/31 04:29:48.4	91.620	0.080	-0.680	0.870
2020/01/31 04:29:48.5	91.620	0.070	-0.640	0.900
2020/01/31 04:29:48.6	91.610	0.060	-0.590	0.920
2020/01/31 04:29:48.7	91.610	0.040	-0.540	0.950
2020/01/31 04:29:48.8	91.600	0.020	-0.480	0.980
2020/01/31 04:29:48.9	91.590	0.000	-0.430	1.010
2020/01/31 04:29:49.0	91.580	-0.020	-0.370	1.050
2020/01/31 04:29:49.1	91.570	-0.050	-0.310	1.080
2020/01/31 04:29:49.2	91.550	-0.080	-0.250	1.120
2020/01/31 04:29:49.3	91.540	-0.110	-0.180	1.150
2020/01/31 04:29:49.4	91.520	-0.140	-0.120	1.190
2020/01/31 04:29:49.5	91.500	-0.170	-0.060	1.220
2020/01/31 04:29:49.6	91.480	-0.210	0.000	1.250
2020/01/31 04:29:49.7	91.460	-0.240	0.060	1.280
2020/01/31 04:29:49.8	91.440	-0.280	0.110	1.310
2020/01/31 04:29:49.9	91.420	-0.320	0.170	1.330
2020/01/31 04:29:50.0	91.400	-0.350	0.210	1.350
2020/01/31 04:29:50.1	91.380	-0.390	0.270	1.360
2020/01/31 04:29:50.2	91.360	-0.420	0.300	1.370
2020/01/31 04:29:50.3	91.340	-0.450	0.330	1.380
2020/01/31 04:29:50.4	91.330	-0.480	0.360	1.380
2020/01/31 04:29:50.5	91.320	-0.510	0.380	1.380
2020/01/31 04:29:50.6	91.300	-0.530	0.390	1.370
2020/01/31 04:29:50.7	91.290	-0.550	0.390	1.360
2020/01/31 04:29:50.8	91.280	-0.570	0.390	1.340
2020/01/31 04:29:50.9	91.280	-0.580	0.380	1.310
2020/01/31 04:29:51.0	91.270	-0.590	0.360	1.290
2020/01/31 04:29:51.1	91.270	-0.590	0.330	1.250
2020/01/31 04:29:51.2	91.270	-0.590	0.300	1.220
2020/01/31 04:29:51.3	91.270	-0.580	0.260	1.180
2020/01/31 04:29:51.4	91.270	-0.570	0.210	1.140
2020/01/31 04:29:51.5	91.270	-0.560	0.160	1.090
2020/01/31 04:29:51.6	91.280	-0.540	0.100	1.050
2020/01/31 04:29:51.7	91.280	-0.510	0.040	1.000
2020/01/31 04:29:51.8	91.290	-0.480	-0.030	0.950
2020/01/31 04:29:51.9	91.300	-0.440	-0.100	0.900
2020/01/31 04:29:52.0	91.310	-0.400	-0.170	0.850
2020/01/31 04:29:52.1	91.320	-0.360	-0.250	0.800
2020/01/31 04:29:52.2	91.330	-0.310	-0.320	0.750
2020/01/31 04:29:52.3	91.350	-0.260	-0.400	0.690
2020/01/31 04:29:52.4	91.360	-0.210	-0.470	0.640
2020/01/31 04:29:52.5	91.370	-0.150	-0.550	0.590
2020/01/31 04:29:52.6	91.380	-0.090	-0.620	0.540
2020/01/31 04:29:52.7	91.400	-0.040	-0.690	0.500
2020/01/31 04:29:52.8	91.410	0.020	-0.750	0.450
2020/01/31 04:29:52.9	91.420	0.080	-0.810	0.410
2020/01/31 04:29:53.0	91.430	0.140	-0.860	0.370
2020/01/31 04:29:53.1	91.440	0.200	-0.910	0.340
2020/01/31 04:29:53.2	91.450	0.260	-0.950	0.310
2020/01/31 04:29:53.3	91.460	0.310	-0.990	0.280
2020/01/31 04:29:53.4	91.470	0.360	-1.020	0.250
2020/01/31 04:29:53.5	91.470	0.410	-1.040	0.230
2020/01/31 04:29:53.6	91.480	0.460	-1.050	0.200
2020/01/31 04:29:53.7	91.490	0.500	-1.060	0.190
2020/01/31 04:29:53.8	91.490	0.540	-1.060	0.170
2020/01/31 04:29:53.9	91.500	0.580	-1.050	0.150
2020/01/31 04:29:54.0	91.500	0.610	-1.030	0.140
2020/01/31 04:29:54.1	91.510	0.640	-1.010	0.130
2020/01/31 04:29:54.2	91.510	0.660	-0.980	0.120
2020/01/31 04:29:54.3	91.520	0.680	-0.940	0.110
2020/01/31 04:29:54.4	91.530	0.690	-0.900	0.110
2020/01/31 04:29:54.5	91.530	0.700	-0.850	0.100
2020/01/31 04:29:54.6	91.540	0.700	-0.790	0.090
2020/01/31 04:29:54.7	91.550	0.700	-0.730	0.090
2020/01/31 04:29:54.8	91.550	0.700	-0.660	0.090
2020/01/31 04:29:54.9	91.560	0.690	-0.590	0.090
2020/01/31 04:29:55.0	91.570	0.670	-0.520	0.090
2020/01/31 04:29:55.1	91.580	0.650	-0.440	0.100
2020/01/31 04:29:55.2	91.580	0.630	-0.360	0.110
2020/01/31 04:29:55.3	91.590	0.600	-0.270	0.120
2020/01/31 04:29:55.4	91.590	0.570	-0.180	0.140
2020/01/31 04:29:55.5	91.600	0.540	-0.090	0.160
2020/01/31 04:29:55.6	91.600	0.500	-0.000	0.180
2020/01/31 04:29:55.7	91.600	0.460	0.090	0.210
2020/01/31 04:29:55.8	91.600	0.410	0.180	0.240
2020/01/31 04:29:55.9	91.600	0.370	0.270	0.270
2020/01/31 04:29:56.0	91.600	0.320	0.360	0.300
2020/01/31 04:29:56.1	91.610	0.270	0.450	0.340
2020/01/31 04:29:56.2	91.600	0.220	0.530	0.380
2020/01/31 04:29:56.3	91.600	0.160	0.610	0.420
2020/01/31 04:29:56.4	91.590	0.110	0.690	0.460
2020/01/31 04:29:56.5	91.590	0.060	0.750	0.500
2020/01/31 04:29:56.6	91.580	0.000	0.820	0.540
2020/01/31 04:29:56.7	91.580	-0.050	0.880	0.580
2020/01/31 04:29:56.8	91.570	-0.100	0.920	0.620
2020/01/31 04:29:56.9	91.560	-0.150	0.960	0.660
2020/01/31 04:29:57.0	91.550	-0.190	0.990	0.700
2020/01/31 04:29:57.1	91.540	-0.240	1.020	0.740
2020/01/31 04:29:57.2	91.530	-0.280	1.030	0.770
2020/01/31 04:29:57.3	91.520	-0.320	1.030	0.810
2020/01/31 04:29:57.4	91.510	-0.350	1.020	0.840
2020/01/31 04:29:57.5	91.490	-0.380	1.000	0.870
2020/01/31 04:29:57.6	91.480	-0.400	0.960	0.900
2020/01/31 04:29:57.7	91.470	-0.420	0.920	0.920
2020/01/31 04:29:57.8	91.450	-0.440	0.860	0.950
2020/01/31 04:29:57.9	91.440	-0.450	0.790	0.970
2020/01/31 04:29:58.0	91.430	-0.460	0.720	0.980
2020/01/31 04:29:58.1	91.420	-0.460	0.620	1.000
2020/01/31 04:29:58.2	91.410	-0.450	0.530	1.010
2020/01/31 04:29:58.3	91.400	-0.440	0.420	1.010
2020/01/31 04:29:58.4	91.390	-0.430	0.310	1.020
2020/01/31 04:29:58.5	91.380	-0.410	0.190	1.020
2020/01/31 04:29:58.6	91.380	-0.390	0.070	1.010
2020/01/31 04:29:58.7	91.370	-0.360	-0.060	1.010
2020/01/31 04:29:58.8	91.370	-0.330	-0.190	1.000
2020/01/31 04:29:58.9	91.370	-0.290	-0.320	1.000
2020/01/31 04:29:59.0	91.370	-0.260	-0.450	0.990
2020/01/31 04:29:59.1	91.370	-0.220	-0.580	0.970
2020/01/31 04:29:59.2	91.380	-0.170	-0.710	0.960
2020/01/31 04:29:59.3	91.390	-0.130	-0.830	0.950
2020/01/31 04:29:59.4	91.400	-0.090	-0.950	0.930
2020/01/31 04:29:59.5	91.410	-0.050	-1.060	0.920
2020/01/31 04:29:59.6	91.420	-0.000	-1.170	0.910
2020/01/31 04:29:59.7	91.430	0.040	-1.260	0.890
2020/01/31 04:29:59.8	91.450	0.080	-1.350	0.880
2020/01/31 04:29:59.9	91.460	0.120	-1.430	0.870
2020/01/31 04:30:00.0	91.480	0.160	-1.500	0.870
2020/01/31 04:30:00.1	91.500	0.200	-1.560	0.860
2020/01/31 04:30:00.2	91.510	0.230	-1.600	0.850
2020/01/31 04:30:00.3	91.530	0.260	-1.630	0.850
2020/01/31 04:30:00.4	91.550	0.280	-1.650	0.850
2020/01/31 04:30:00.5	91.560	0.310	-1.660	0.840
2020/01/31 04:30:00.6	91.580	0.330	-1.660	0.840
2020/01/31 04:30:00.7	91.600	0.340	-1.640	0.840
2020/01/31 04:30:00.8	91.610	0.350	-1.610	0.850
2020/01/31 04:30:00.9	91.630	0.360	-1.560	0.850
2020/01/31 04:30:01.0	91.640	0.360	-1.510	0.850
2020/01/31 04:30:01.1	91.650	0.360	-1.440	0.860
2020/01/31 04:30:01.2	91.660	0.350	-1.360	0.860
2020/01/31 04:30:01.3	91.670	0.350	-1.280	0.870
2020/01/31 04:30:01.4	91.680	0.330	-1.180	0.880
2020/01/31 04:30:01.5	91.690	0.320	-1.080	0.890
2020/01/31 04:30:01.6	91.700	0.300	-0.960	0.900
2020/01/31 04:30:01.7	91.700	0.270	-0.850	0.900
2020/01/31 04:30:01.8	91.710	0.250	-0.720	0.910
2020/01/31 04:30:01.9	91.710	0.220	-0.590	0.920
2020/01/31 04:30:02.0	91.710	0.180	-0.460	0.930
2020/01/31 04:30:02.1	91.710	0.150	-0.330	0.950
2020/01/31 04:30:02.2	91.710	0.110	-0.190	0.960
2020/01/31 04:30:02.3	91.710	0.070	-0.060	0.960
2020/01/31 04:30:02.4	91.710	0.030	0.080	0.970
2020/01/31 04:30:02.5	91.700	-0.010	0.210	0.980
2020/01/31 04:30:02.6	91.700	-0.050	0.340	0.980
2020/01/31 04:30:02.7	91.690	-0.100	0.460	0.990
2020/01/31 04:30:02.8	91.680	-0.140	0.580	0.990
2020/01/31 04:30:02.9	91.670	-0.180	0.690	1.000
2020/01/31 04:30:03.0	91.660	-0.230	0.790	1.000
2020/01/31 04:30:03.1	91.650	-0.270	0.890	1.000
2020/01/31 04:30:03.2	91.640	-0.310	0.970	1.010
2020/01/31 04:30:03.3	91.620	-0.340	1.040	1.010
2020/01/31 04:30:03.4	91.610	-0.380	1.100	1.010
2020/01/31 04:30:03.5	91.590	-0.410	1.150	1.010
2020/01/31 04:30:03.6	91.580	-0.440	1.180	1.020
2020/01/31 04:30:03.7	91.560	-0.470	1.200	1.020
2020/01/31 04:30:03.8	91.550	-0.490	1.200	1.020
2020/01/31 04:30:03.9	91.540	-0.510	1.200	1.020
2020/01/31 04:30:04.0	91.530	-0.520	1.170	1.010
2020/01/31 04:30:04.1	91.520	-0.530	1.140	1.010
2020/01/31 04:30:04.2	91.510	-0.530	1.090	1.010
2020/01/31 04:30:04.3	91.500	-0.530	1.030	1.010
2020/01/31 04:30:04.4	91.500	-0.530	0.950	1.000
2020/01/31 04:30:04.5	91.490	-0.520	0.860	0.990
2020/01/31 04:30:04.6	91.490	-0.500	0.770	0.990
2020/01/31 04:30:04.7	91.490	-0.480	0.660	0.980
2020/01/31 04:30:04.8	91.490	-0.460	0.550	0.960
2020/01/31 04:30:04.9	91.490	-0.430	0.420	0.950
2020/01/31 04:30:05.0	91.490	-0.400	0.290	0.930
2020/01/31 04:30:05.1	91.500	-0.360	0.150	0.910
2020/01/31 04:30:05.2	91.500	-0.320	0.010	0.880
2020/01/31 04:30:05.3	91.510	-0.280	-0.130	0.850
2020/01/31 04:30:05.4	91.520	-0.230	-0.270	0.820
2020/01/31 04:30:05.5	91.520	-0.180	-0.410	0.780
2020/01/31 04:30:05.6	91.530	-0.130	-0.550	0.750
2020/01/31 04:30:05.7	91.540	-0.080	-0.680	0.710
2020/01/31 04:30:05.8	91.550	-0.030	-0.810	0.670
2020/01/31 04:30:05.9	91.550	0.020	-0.930	0.630
2020/01/31 04:30:06.0	91.560	0.080	-1.050	0.590
2020/01/31 04:30:06.1	91.560	0.130	-1.150	0.550
2020/01/31 04:30:06.2	91.560	0.180	-1.250	0.510
2020/01/31 04:30:06.3	91.570	0.230	-1.330	0.470
2020/01/31 04:30:06.4	91.570	0.280	-1.400	0.440
2020/01/31 04:30:06.5	91.570	0.320	-1.450	0.400
2020/01/31 04:30:06.6	91.570	0.360	-1.490	0.380
2020/01/31 04:30:06.7	91.570	0.400	-1.520	0.350
2020/01/31 04:30:06.8	91.570	0.430	-1.530	0.330
2020/01/31 04:30:06.9	91.570	0.460	-1.520	0.310
2020/01/31 04:30:07.0	91.570	0.490	-1.500	0.290
2020/01/31 04:30:07.1	91.570	0.510	-1.470	0.280
2020/01/31 04:30:07.2	91.570	0.520	-1.420	0.280
2020/01/31 04:30:07.3	91.570	0.530	-1.360	0.280
2020/01/31 04:30:07.4	91.570	0.540	-1.290	0.280
2020/01/31 04:30:07.5	91.570	0.540	-1.210	0.280
2020/01/31 04:30:07.6	91.570	0.530	-1.120	0.300
2020/01/31 04:30:07.7	91.570	0.530	-1.020	0.310
2020/01/31 04:30:07.8	91.570	0.510	-0.910	0.330
2020/01/31 04:30:07.9	91.570	0.490	-0.800	0.350
2020/01/31 04:30:08.0	91.570	0.470	-0.690	0.380
2020/01/31 04:30:08.1	91.570	0.440	-0.560	0.410
2020/01/31 04:30:08.2	91.570	0.420	-0.440	0.440
2020/01/31 04:30:08.3	91.570	0.380	-0.320	0.480
2020/01/31 04:30:08.4	91.580	0.350	-0.210	0.510
2020/01/31 04:30:08.5	91.580	0.310	-0.090	0.540
2020/01/31 04:30:08.6	91.570	0.280	0.020	0.580
2020/01/31 04:30:08.7	91.570	0.240	0.130	0.610
2020/01/31 04:30:08.8	91.570	0.200	0.230	0.650
2020/01/31 04:30:08.9	91.570	0.160	0.320	0.680
2020/01/31 04:30:09.0	91.570	0.120	0.410	0.710
2020/01/31 04:30:09.1	91.560	0.080	0.480	0.750
2020/01/31 04:30:09.2	91.560	0.050	0.550	0.780
2020/01/31 04:30:09.3	91.550	0.010	0.600	0.800
2020/01/31 04:30:09.4	91.550	-0.020	0.650	0.830
2020/01/31 04:30:09.5	91.540	-0.050	0.690	0.850
2020/01/31 04:30:09.6	91.530	-0.080	0.710	0.870
2020/01/31 04:30:09.7	91.530	-0.110	0.720	0.890
2020/01/31 04:30:09.8	91.520	-0.130	0.730	0.910
2020/01/31 04:30:09.9	91.510	-0.150	0.720	0.920
2020/01/31 04:30:10.0	91.510	-0.170	0.710	0.930
2020/01/31 04:30:10.1	91.500	-0.190	0.680	0.940
2020/01/31 04:30:10.2	91.500	-0.200	0.650	0.950
2020/01/31 04:30:10.3	91.490	-0.210	0.610	0.950
2020/01/31 04:30:10.4	91.490	-0.210	0.560	0.960
2020/01/31 04:30:10.5	91.480	-0.210	0.500	0.950
2020/01/31 04:30:10.6	91.480	-0.210	0.440	0.950
2020/01/31 04:30:10.7	91.480	-0.210	0.370	0.950
2020/01/31 04:30:10.8	91.480	-0.210	0.300	0.950
2020/01/31 04:30:10.9	91.480	-0.200	0.230	0.940
2020/01/31 04:30:11.0	91.480	-0.190	0.150	0.930
2020/01/31 04:30:11.1	91.490	-0.180	0.070	0.920
2020/01/31 04:30:11.2	91.490	-0.170	-0.010	0.910
2020/01/31 04:30:11.3	91.500	-0.160	-0.090	0.900
2020/01/31 04:30:11.4	91.510	-0.140	-0.170	0.890
2020/01/31 04:30:11.5	91.520	-0.130	-0.250	0.880
2020/01/31 04:30:11.6	91.540	-0.110	-0.320	0.880
2020/01/31 04:30:11.7	91.550	-0.100	-0.390	0.870
2020/01/31 04:30:11.8	91.570	-0.090	-0.450	0.860
2020/01/31 04:30:11.9	91.580	-0.070	-0.510	0.860
2020/01/31 04:30:12.0	91.600	-0.060	-0.560	0.850
2020/01/31 04:30:12.1	91.610	-0.050	-0.610	0.860
2020/01/31 04:30:12.2	91.630	-0.040	-0.650	0.860
2020/01/31 04:30:12.3	91.640	-0.030	-0.680	0.860
2020/01/31 04:30:12.4	91.660	-0.030	-0.700	0.870
2020/01/31 04:30:12.5	91.670	-0.020	-0.710	0.880
2020/01/31 04:30:12.6	91.690	-0.020	-0.720	0.890
2020/01/31 04:30:12.7	91.700	-0.020	-0.720	0.900
2020/01/31 04:30:12.8	91.720	-0.020	-0.710	0.910
2020/01/31 04:30:12.9	91.730	-0.020	-0.690	0.920
2020/01/31 04:30:13.0	91.740	-0.020	-0.670	0.940
2020/01/31 04:30:13.1	91.760	-0.030	-0.640	0.960
2020/01/31 04:30:13.2	91.770	-0.030	-0.610	0.970
2020/01/31 04:30:13.3	91.780	-0.040	-0.570	0.990
2020/01/31 04:30:13.4	91.790	-0.050	-0.530	1.000
2020/01/31 04:30:13.5	91.800	-0.060	-0.490	1.010
2020/01/31 04:30:13.6	91.810	-0.070	-0.440	1.020
2020/01/31 04:30:13.7	91.820	-0.080	-0.400	1.030
2020/01/31 04:30:13.8	91.830	-0.090	-0.350	1.040
2020/01/31 04:30:13.9	91.830	-0.100	-0.310	1.040
2020/01/31 04:30:14.0	91.840	-0.110	-0.260	1.040
2020/01/31 04:30:14.1	91.850	-0.120	-0.220	1.040
2020/01/31 04:30:14.2	91.850	-0.130	-0.180	1.040
2020/01/31 04:30:14.3	91.860	-0.140	-0.140	1.030
2020/01/31 04:30:14.4	91.860	-0.150	-0.100	1.020
2020/01/31 04:30:14.5	91.860	-0.160	-0.070	1.010
2020/01/31 04:30:14.6	91.860	-0.170	-0.050	1.000
2020/01/31 04:30:14.7	91.860	-0.170	-0.020	0.990
2020/01/31 04:30:14.8	91.860	-0.180	-0.000	0.980
2020/01/31 04:30:14.9	91.850	-0.180	0.010	0.960
2020/01/31 04:30:15.0	91.850	-0.180	0.020	0.950
2020/01/31 04:30:15.1	91.840	-0.180	0.030	0.950
2020/01/31 04:30:15.2	91.830	-0.180	0.040	0.940
2020/01/31 04:30:15.3	91.820	-0.180	0.030	0.930
2020/01/31 04:30:15.4	91.810	-0.180	0.030	0.930
2020/01/31 04:30:15.5	91.790	-0.170	0.020	0.920
2020/01/31 04:30:15.6	91.780	-0.170	0.010	0.920
2020/01/31 04:30:15.7	91.770	-0.160	-0.010	0.910
2020/01/31 04:30:15.8	91.750	-0.150	-0.030	0.910
2020/01/31 04:30:15.9	91.740	-0.140	-0.050	0.910
2020/01/31 04:30:16.0	91.720	-0.130	-0.070	0.900
2020/01/31 04:30:16.1	91.710	-0.110	-0.100	0.900
2020/01/31 04:30:16.2	91.700	-0.100	-0.130	0.890
2020/01/31 04:30:16.3	91.690	-0.080	-0.160	0.890
2020/01/31 04:30:16.4	91.680	-0.070	-0.190	0.880
2020/01/31 04:30:16.5	91.670	-0.050	-0.230	0.870
2020/01/31 04:30:16.6	91.670	-0.030	-0.260	0.850
2020/01/31 04:30:16.7	91.660	-0.010	-0.290	0.840
2020/01/31 04:30:16.8	91.660	0.010	-0.330	0.820
2020/01/31 04:30:16.9	91.660	0.030	-0.360	0.810
2020/01/31 04:30:17.0	91.660	0.050	-0.400	0.780
2020/01/31 04:30:17.1	91.660	0.070	-0.430	0.760
2020/01/31 04:30:17.2	91.660	0.080	-0.460	0.740
2020/01/31 04:30:17.3	91.670	0.100	-0.490	0.710
2020/01/31 04:30:17.4	91.670	0.120	-0.510	0.690
2020/01/31 04:30:17.5	91.670	0.140	-0.540	0.660
2020/01/31 04:30:17.6	91.670	0.160	-0.560	0.630
2020/01/31 04:30:17.7	91.680	0.170	-0.580	0.600
2020/01/31 04:30:17.8	91.680	0.190	-0.590	0.570
2020/01/31 04:30:17.9	91.680	0.200	-0.600	0.540
2020/01/31 04:30:18.0	91.680	0.210	-0.610	0.510
2020/01/31 04:30:18.1	91.690	0.220	-0.610	0.480
2020/01/31 04:30:18.2	91.690	0.230	-0.600	0.450
2020/01/31 04:30:18.3	91.690	0.240	-0.590	0.430
2020/01/31 04:30:18.4	91.690	0.250	-0.580	0.400
2020/01/31 04:30:18.5	91.700	0.250	-0.560	0.370
2020/01/31 04:30:18.6	91.700	0.250	-0.540	0.350
2020/01/31 04:30:18.7	91.700	0.250	-0.520	0.330
2020/01/31 04:30:18.8	91.710	0.250	-0.490	0.310
2020/01/31 04:30:18.9	91.710	0.250	-0.460	0.290
2020/01/31 04:30:19.0	91.720	0.240	-0.430	0.270
2020/01/31 04:30:19.1	91.720	0.240	-0.390	0.260
2020/01/31 04:30:19.2	91.730	0.230	-0.360	0.250
2020/01/31 04:30:19.3	91.730	0.220	-0.320	0.240
2020/01/31 04:30:19.4	91.730	0.210	-0.280	0.240
2020/01/31 04:30:19.5	91.730	0.200	-0.250	0.230
2020/01/31 04:30:19.6	91.730	0.190	-0.210	0.240
2020/01/31 04:30:19.7	91.730	0.180	-0.180	0.240
2020/01/31 04:30:19.8	91.730	0.170	-0.140	0.250
2020/01/31 04:30:19.9	91.730	0.150	-0.110	0.260
2020/01/31 04:30:20.0	91.720	0.140	-0.080	0.280
2020/01/31 04:30:20.1	91.720	0.130	-0.050	0.300
2020/01/31 04:30:20.2	91.710	0.110	-0.030	0.320
2020/01/31 04:30:20.3	91.700	0.100	-0.010	0.350
2020/01/31 04:30:20.4	91.690	0.090	0.010	0.370
2020/01/31 04:30:20.5	91.690	0.070	0.020	0.390
2020/01/31 04:30:20.6	91.680	0.060	0.030	0.420
2020/01/31 04:30:20.7	91.680	0.050	0.040	0.440
2020/01/31 04:30:20.8	91.670	0.030	0.040	0.470
2020/01/31 04:30:20.9	91.670	0.020	0.040	0.490
2020/01/31 04:30:21.0	91.670	0.010	0.040	0.520
2020/01/31 04:30:21.1	91.670	0.000	0.030	0.540
2020/01/31 04:30:21.2	91.670	-0.010	0.020	0.570
2020/01/31 04:30:21.3	91.670	-0.020	0.010	0.590
2020/01/31 04:30:21.4	91.680	-0.020	-0.010	0.610
2020/01/31 04:30:21.5	91.690	-0.030	-0.020	0.620
2020/01/31 04:30:21.6	91.700	-0.030	-0.040	0.640
2020/01/31 04:30:21.7	91.710	-0.040	-0.060	0.660
2020/01/31 04:30:21.8	91.730	-0.040	-0.080	0.670
2020/01/31 04:30:21.9	91.740	-0.040	-0.100	0.680
2020/01/31 04:30:22.0	91.760	-0.040	-0.130	0.690
2020/01/31 04:30:22.1	91.780	-0.040	-0.150	0.700
2020/01/31 04:30:22.2	91.810	-0.030	-0.170	0.710
2020/01/31 04:30:22.3	91.830	-0.030	-0.190	0.720
2020/01/31 04:30:22.4	91.850	-0.020	-0.210	0.730
2020/01/31 04:30:22.5	91.880	-0.020	-0.220	0.740
2020/01/31 04:30:22.6	91.900	-0.010	-0.240	0.750
2020/01/31 04:30:22.7	91.930	-0.010	-0.250	0.760
2020/01/31 04:30:22.8	91.960	0.000	-0.260	0.770
2020/01/31 04:30:22.9	91.980	0.010	-0.270	0.780
2020/01/31 04:30:23.0	92.010	0.010	-0.280	0.800
2020/01/31 04:30:23.1	92.030	0.020	-0.290	0.820
2020/01/31 04:30:23.2	92.050	0.030	-0.290	0.840
2020/01/31 04:30:23.3	92.070	0.030	-0.290	0.860
2020/01/31 04:30:23.4	92.090	0.040	-0.290	0.880
2020/01/31 04:30:23.5	92.110	0.040	-0.280	0.900
2020/01/31 04:30:23.6	92.120	0.040	-0.270	0.920
2020/01/31 04:30:23.7	92.130	0.040	-0.270	0.950
2020/01/31 04:30:23.8	92.140	0.040	-0.260	0.970
2020/01/31 04:30:23.9	92.150	0.030	-0.240	1.000
2020/01/31 04:30:24.0	92.160	0.020	-0.230	1.020
2020/01/31 04:30:24.1	92.160	0.020	-0.220	1.050
2020/01/31 04:30:24.2	92.160	0.010	-0.210	1.070
2020/01/31 04:30:24.3	92.160	-0.000	-0.190	1.090
2020/01/31 04:30:24.4	92.160	-0.020	-0.180	1.110
2020/01/31 04:30:24.5	92.160	-0.030	-0.170	1.120
2020/01/31 04:30:24.6	92.150	-0.040	-0.160	1.140
2020/01/31 04:30:24.7	92.140	-0.060	-0.150	1.150
2020/01/31 04:30:24.8	92.140	-0.080	-0.140	1.160
2020/01/31 04:30:24.9	92.120	-0.090	-0.130	1.160
2020/01/31 04:30:25.0	92.110	-0.110	-0.120	1.170
2020/01/31 04:30:25.1	92.100	-0.130	-0.120	1.170
2020/01/31 04:30:25.2	92.090	-0.140	-0.120	1.170
2020/01/31 04:30:25.3	92.070	-0.160	-0.110	1.170
2020/01/31 04:30:25.4	92.060	-0.170	-0.120	1.160
2020/01/31 04:30:25.5	92.040	-0.190	-0.120	1.150
2020/01/31 04:30:25.6	92.030	-0.200	-0.120	1.140
2020/01/31 04:30:25.7	92.010	-0.210	-0.130	1.120
2020/01/31 04:30:25.8	92.000	-0.220	-0.140	1.110
2020/01/31 04:30:25.9	91.980	-0.220	-0.150	1.090
2020/01/31 04:30:26.0	91.960	-0.230	-0.160	1.070
2020/01/31 04:30:26.1	91.950	-0.230	-0.170	1.050
2020/01/31 04:30:26.2	91.930	-0.230	-0.170	1.030
2020/01/31 04:30:26.3	91.920	-0.230	-0.180	1.010
2020/01/31 04:30:26.4	91.900	-0.230	-0.190	0.990
2020/01/31 04:30:26.5	91.880	-0.220	-0.200	0.970
2020/01/31 04:30:26.6	91.870	-0.210	-0.210	0.940
2020/01/31 04:30:26.7	91.850	-0.210	-0.210	0.920
2020/01/31 04:30:26.8	91.840	-0.200	-0.220	0.900
2020/01/31 04:30:26.9	91.820	-0.190	-0.220	0.870
2020/01/31 04:30:27.0	91.810	-0.180	-0.210	0.840
2020/01/31 04:30:27.1	91.800	-0.170	-0.210	0.820
2020/01/31 04:30:27.2	91.780	-0.160	-0.210	0.790
2020/01/31 04:30:27.3	91.770	-0.150	-0.200	0.770
2020/01/31 04:30:27.4	91.750	-0.140	-0.190	0.740
2020/01/31 04:30:27.5	91.740	-0.130	-0.180	0.710
2020/01/31 04:30:27.6	91.730	-0.120	-0.170	0.690
2020/01/31 04:30:27.7	91.710	-0.110	-0.150	0.660
2020/01/31 04:30:27.8	91.700	-0.110	-0.140	0.630
2020/01/31 04:30:27.9	91.690	-0.100	-0.130	0.600
2020/01/31 04:30:28.0	91.680	-0.090	-0.120	0.560
2020/01/31 04:30:28.1	91.670	-0.090	-0.100	0.530
2020/01/31 04:30:28.2	91.670	-0.090	-0.090	0.490
2020/01/31 04:30:28.3	91.660	-0.080	-0.090	0.460
2020/01/31 04:30:28.4	91.660	-0.080	-0.090	0.420
2020/01/31 04:30:28.5	91.650	-0.080	-0.090	0.380
2020/01/31 04:30:28.6	91.650	-0.080	-0.090	0.350
2020/01/31 04:30:28.7	91.660	-0.080	-0.100	0.310
2020/01/31 04:30:28.8	91.660	-0.080	-0.110	0.270
2020/01/31 04:30:28.9	91.670	-0.070	-0.120	0.230
2020/01/31 04:30:29.0	91.670	-0.070	-0.140	0.190
2020/01/31 04:30:29.1	91.690	-0.070	-0.160	0.160
2020/01/31 04:30:29.2	91.700	-0.060	-0.190	0.130
2020/01/31 04:30:29.3	91.710	-0.060	-0.220	0.100
2020/01/31 04:30:29.4	91.720	-0.050	-0.250	0.070
2020/01/31 04:30:29.5	91.730	-0.040	-0.280	0.050
2020/01/31 04:30:29.6	91.750	-0.030	-0.310	0.030
2020/01/31 04:30:29.7	91.760	-0.020	-0.350	0.010
2020/01/31 04:30:29.8	91.770	-0.010	-0.380	-0.010
2020/01/31 04:30:29.9	91.790	0.010	-0.420	-0.020
2020/01/31 04:30:30.0	91.800	0.020	-0.450	-0.020
2020/01/31 04:30:30.1	91.820	0.040	-0.490	-0.020
2020/01/31 04:30:30.2	91.830	0.060	-0.520	-0.020
2020/01/31 04:30:30.3	91.840	0.080	-0.550	-0.020
2020/01/31 04:30:30.4	91.850	0.100	-0.570	-0.010
2020/01/31 04:30:30.5	91.860	0.120	-0.600	0.000
2020/01/31 04:30:30.6	91.860	0.140	-0.610	0.020
2020/01/31 04:30:30.7	91.870	0.160	-0.630	0.030
2020/01/31 04:30:30.8	91.870	0.180	-0.640	0.050
2020/01/31 04:30:30.9	91.870	0.200	-0.640	0.070
2020/01/31 04:30:31.0	91.870	0.210	-0.640	0.100
2020/01/31 04:30:31.1	91.870	0.230	-0.640	0.120
2020/01/31 04:30:31.2	91.870	0.250	-0.630	0.150
2020/01/31 04:30:31.3	91.870	0.260	-0.610	0.180
2020/01/31 04:30:31.4	91.860	0.270	-0.590	0.210
2020/01/31 04:30:31.5	91.860	0.280	-0.570	0.240
2020/01/31 04:30:31.6	91.860	0.290	-0.540	0.270
2020/01/31 04:30:31.7	91.850	0.300	-0.500	0.300
2020/01/31 04:30:31.8	91.840	0.300	-0.470	0.340
2020/01/31 04:30:31.9	91.840	0.300	-0.430	0.380
2020/01/31 04:30:32.0	91.830	0.300	-0.380	0.420
2020/01/31 04:30:32.1	91.830	0.300	-0.340	0.460
2020/01/31 04:30:32.2	91.820	0.290	-0.290	0.500
2020/01/31 04:30:32.3	91.810	0.280	-0.250	0.540
2020/01/31 04:30:32.4	91.810	0.270	-0.200	0.590
2020/01/31 04:30:32.5	91.800	0.260	-0.150	0.630
2020/01/31 04:30:32.6	91.790	0.240	-0.110	0.680
2020/01/31 04:30:32.7	91.790	0.230	-0.060	0.720
2020/01/31 04:30:32.8	91.780	0.210	-0.020	0.760
2020/01/31 04:30:32.9	91.780	0.190	0.020	0.810
2020/01/31 04:30:33.0	91.770	0.160	0.060	0.850
2020/01/31 04:30:33.1	91.770	0.140	0.100	0.890
2020/01/31 04:30:33.2	91.770	0.120	0.130	0.930
2020/01/31 04:30:33.3	91.770	0.090	0.150	0.960
2020/01/31 04:30:33.4	91.770	0.070	0.170	0.990
2020/01/31 04:30:33.5	91.770	0.050	0.180	1.020
2020/01/31 04:30:33.6	91.770	0.020	0.190	1.040
2020/01/31 04:30:33.7	91.770	-0.000	0.200	1.070
2020/01/31 04:30:33.8	91.780	-0.020	0.190	1.080
2020/01/31 04:30:33.9	91.780	-0.040	0.190	1.100
2020/01/31 04:30:34.0	91.790	-0.060	0.170	1.110
2020/01/31 04:30:34.1	91.800	-0.080	0.160	1.120
2020/01/31 04:30:34.2	91.810	-0.100	0.130	1.130
2020/01/31 04:30:34.3	91.820	-0.110	0.110	1.130
2020/01/31 04:30:34.4	91.830	-0.130	0.080	1.130
2020/01/31 04:30:34.5	91.840	-0.140	0.040	1.130
2020/01/31 04:30:34.6	91.850	-0.150	0.010	1.130
2020/01/31 04:30:34.7	91.860	-0.150	-0.030	1.130
2020/01/31 04:30:34.8	91.870	-0.160	-0.070	1.130
2020/01/31 04:30:34.9	91.880	-0.160	-0.110	1.120
2020/01/31 04:30:35.0	91.890	-0.160	-0.150	1.120
2020/01/31 04:30:35.1	91.900	-0.170	-0.190	1.120
2020/01/31 04:30:35.2	91.900	-0.170	-0.230	1.120
2020/01/31 04:30:35.3	91.900	-0.170	-0.260	1.120
2020/01/31 04:30:35.4	91.900	-0.160	-0.300	1.120
2020/01/31 04:30:35.5	91.900	-0.160	-0.320	1.130
2020/01/31 04:30:35.6	91.900	-0.160	-0.350	1.130
2020/01/31 04:30:35.7	91.900	-0.160	-0.370	1.130
2020/01/31 04:30:35.8	91.900	-0.160	-0.390	1.130
2020/01/31 04:30:35.9	91.900	-0.160	-0.400	1.130
2020/01/31 04:30:36.0	91.900	-0.160	-0.410	1.130
2020/01/31 04:30:36.1	91.900	-0.160	-0.410	1.130
2020/01/31 04:30:36.2	91.890	-0.160	-0.410	1.130
2020/01/31 04:30:36.3	91.890	-0.160	-0.410	1.130
2020/01/31 04:30:36.4	91.890	-0.170	-0.400	1.130
2020/01/31 04:30:36.5	91.890	-0.170	-0.390	1.130
2020/01/31 04:30:36.6	91.880	-0.170	-0.380	1.120
2020/01/31 04:30:36.7	91.880	-0.170	-0.360	1.120
2020/01/31 04:30:36.8	91.880	-0.180	-0.350	1.120
2020/01/31 04:30:36.9	91.870	-0.180	-0.330	1.120
2020/01/31 04:30:37.0	91.870	-0.180	-0.310	1.110
2020/01/31 04:30:37.1	91.870	-0.180	-0.300	1.110
2020/01/31 04:30:37.2	91.860	-0.180	-0.280	1.110
2020/01/31 04:30:37.3	91.860	-0.180	-0.260	1.110
2020/01/31 04:30:37.4	91.860	-0.180	-0.250	1.100
2020/01/31 04:30:37.5	91.850	-0.180	-0.230	1.100
2020/01/31 04:30:37.6	91.840	-0.170	-0.220	1.100
2020/01/31 04:30:37.7	91.840	-0.160	-0.220	1.090
2020/01/31 04:30:37.8	91.830	-0.150	-0.210	1.090
2020/01/31 04:30:37.9	91.820	-0.140	-0.210	1.080
2020/01/31 04:30:38.0	91.810	-0.120	-0.210	1.070
2020/01/31 04:30:38.1	91.800	-0.100	-0.220	1.070
2020/01/31 04:30:38.2	91.790	-0.080	-0.230	1.060
2020/01/31 04:30:38.3	91.780	-0.060	-0.240	1.050
2020/01/31 04:30:38.4	91.770	-0.030	-0.260	1.030
2020/01/31 04:30:38.5	91.760	0.000	-0.280	1.020
2020/01/31 04:30:38.6	91.750	0.030	-0.300	1.000
2020/01/31 04:30:38.7	91.740	0.060	-0.330	0.980
2020/01/31 04:30:38.8	91.730	0.100	-0.350	0.960
2020/01/31 04:30:38.9	91.720	0.130	-0.380	0.930
2020/01/31 04:30:39.0	91.710	0.170	-0.410	0.910
2020/01/31 04:30:39.1	91.700	0.210	-0.440	0.880
2020/01/31 04:30:39.2	91.690	0.240	-0.470	0.850
2020/01/31 04:30:39.3	91.690	0.280	-0.500	0.820
2020/01/31 04:30:39.4	91.680	0.310	-0.530	0.790
2020/01/31 04:30:39.5	91.670	0.350	-0.550	0.750
2020/01/31 04:30:39.6	91.670	0.380	-0.570	0.720
2020/01/31 04:30:39.7	91.670	0.410	-0.590	0.680
2020/01/31 04:30:39.8	91.670	0.440	-0.610	0.650
2020/01/31 04:30:39.9	91.670	0.470	-0.620	0.610
2020/01/31 04:30:40.0	91.670	0.490	-0.630	0.580
2020/01/31 04:30:40.1	91.670	0.510	-0.640	0.540
2020/01/31 04:30:40.2	91.680	0.530	-0.640	0.510
2020/01/31 04:30:40.3	91.680	0.540	-0.630	0.480
2020/01/31 04:30:40.4	91.690	0.550	-0.620	0.450
2020/01/31 04:30:40.5	91.700	0.550	-0.600	0.430
2020/01/31 04:30:40.6	91.700	0.550	-0.580	0.410
2020/01/31 04:30:40.7	91.710	0.540	-0.550	0.390
2020/01/31 04:30:40.8	91.720	0.530	-0.510	0.370
2020/01/31 04:30:40.9	91.720	0.520	-0.460	0.360
2020/01/31 04:30:41.0	91.730	0.500	-0.410	0.350
2020/01/31 04:30:41.1	91.740	0.470	-0.360	0.350
2020/01/31 04:30:41.2	91.740	0.440	-0.290	0.340
2020/01/31 04:30:41.3	91.740	0.410	-0.230	0.350
2020/01/31 04:30:41.4	91.750	0.370	-0.160	0.350
2020/01/31 04:30:41.5	91.750	0.330	-0.090	0.360
2020/01/31 04:30:41.6	91.750	0.290	-0.010	0.380
2020/01/31 04:30:41.7	91.740	0.240	0.070	0.390
2020/01/31 04:30:41.8	91.740	0.190	0.150	0.410
2020/01/31 04:30:41.9	91.740	0.140	0.230	0.440
2020/01/31 04:30:42.0	91.730	0.090	0.300	0.460
2020/01/31 04:30:42.1	91.730	0.030	0.380	0.490
2020/01/31 04:30:42.2	91.720	-0.020	0.450	0.520
2020/01/31 04:30:42.3	91.710	-0.080	0.520	0.550
2020/01/31 04:30:42.4	91.700	-0.130	0.590	0.580
2020/01/31 04:30:42.5	91.700	-0.180	0.640	0.610
2020/01/31 04:30:42.6	91.690	-0.230	0.690	0.640
2020/01/31 04:30:42.7	91.680	-0.280	0.740	0.660
2020/01/31 04:30:42.8	91.680	-0.330	0.770	0.690
2020/01/31 04:30:42.9	91.670	-0.370	0.790	0.700
2020/01/31 04:30:43.0	91.670	-0.410	0.810	0.720
2020/01/31 04:30:43.1	91.670	-0.450	0.810	0.730
2020/01/31 04:30:43.2	91.670	-0.480	0.800	0.740
2020/01/31 04:30:43.3	91.670	-0.510	0.770	0.740
2020/01/31 04:30:43.4	91.680	-0.530	0.740	0.740
2020/01/31 04:30:43.5	91.680	-0.540	0.690	0.740
2020/01/31 04:30:43.6	91.690	-0.560	0.630	0.730
2020/01/31 04:30:43.7	91.700	-0.560	0.560	0.720
2020/01/31 04:30:43.8	91.710	-0.560	0.480	0.710
2020/01/31 04:30:43.9	91.720	-0.550	0.390	0.690
2020/01/31 04:30:44.0	91.740	-0.540	0.290	0.680
2020/01/31 04:30:44.1	91.750	-0.530	0.180	0.660
2020/01/31 04:30:44.2	91.760	-0.500	0.060	0.650
2020/01/31 04:30:44.3	91.780	-0.480	-0.060	0.630
2020/01/31 04:30:44.4	91.790	-0.450	-0.180	0.620
2020/01/31 04:30:44.5	91.800	-0.410	-0.310	0.610
2020/01/31 04:30:44.6	91.820	-0.370	-0.440	0.600
2020/01/31 04:30:44.7	91.830	-0.330	-0.570	0.600
2020/01/31 04:30:44.8	91.840	-0.290	-0.690	0.610
2020/01/31 04:30:44.9	91.850	-0.250	-0.810	0.610
2020/01/31 04:30:45.0	91.850	-0.200	-0.920	0.620
2020/01/31 04:30:45.1	91.860	-0.160	-1.030	0.640
2020/01/31 04:30:45.2	91.860	-0.110	-1.130	0.660
2020/01/31 04:30:45.3	91.860	-0.070	-1.210	0.680
2020/01/31 04:30:45.4	91.860	-0.030	-1.290	0.690
2020/01/31 04:30:45.5	91.860	0.010	-1.350	0.710
2020/01/31 04:30:45.6	91.870	0.050	-1.400	0.730
2020/01/31 04:30:45.7	91.870	0.080	-1.440	0.750
2020/01/31 04:30:45.8	91.870	0.110	-1.460	0.780
2020/01/31 04:30:45.9	91.870	0.140	-1.460	0.800
2020/01/31 04:30:46.0	91.870	0.160	-1.460	0.820
2020/01/31 04:30:46.1	91.870	0.180	-1.440	0.840
2020/01/31 04:30:46.2	91.870	0.190	-1.400	0.860
2020/01/31 04:30:46.3	91.870	0.200	-1.350	0.880
2020/01/31 04:30:46.4	91.860	0.210	-1.290	0.910
2020/01/31 04:30:46.5	91.860	0.210	-1.220	0.930
2020/01/31 04:30:46.6	91.860	0.200	-1.130	0.950
2020/01/31 04:30:46.7	91.860	0.190	-1.040	0.970
2020/01/31 04:30:46.8	91.860	0.180	-0.930	0.990
2020/01/31 04:30:46.9	91.850	0.160	-0.820	1.010
2020/01/31 04:30:47.0	91.850	0.140	-0.710	1.030
2020/01/31 04:30:47.1	91.840	0.120	-0.580	1.050
2020/01/31 04:30:47.2	91.840	0.090	-0.460	1.070
2020/01/31 04:30:47.3	91.830	0.060	-0.330	1.090
2020/01/31 04:30:47.4	91.820	0.030	-0.210	1.100
2020/01/31 04:30:47.5	91.810	-0.010	-0.080	1.120
2020/01/31 04:30:47.6	91.800	-0.040	0.040	1.140
2020/01/31 04:30:47.7	91.790	-0.080	0.160	1.160
2020/01/31 04:30:47.8	91.770	-0.120	0.270	1.180
2020/01/31 04:30:47.9	91.760	-0.160	0.370	1.200
2020/01/31 04:30:48.0	91.740	-0.190	0.470	1.220
2020/01/31 04:30:48.1	91.720	-0.230	0.570	1.240
2020/01/31 04:30:48.2	91.690	-0.270	0.650	1.260
2020/01/31 04:30:48.3	91.670	-0.300	0.720	1.270
2020/01/31 04:30:48.4	91.640	-0.340	0.770	1.290
2020/01/31 04:30:48.5	91.620	-0.370	0.820	1.300
2020/01/31 04:30:48.6	91.590	-0.400	0.850	1.310
2020/01/31 04:30:48.7	91.560	-0.420	0.870	1.320
2020/01/31 04:30:48.8	91.530	-0.440	0.870	1.330
2020/01/31 04:30:48.9	91.510	-0.460	0.870	1.330
2020/01/31 04:30:49.0	91.480	-0.470	0.850	1.330
2020/01/31 04:30:49.1	91.460	-0.480	0.810	1.330
2020/01/31 04:30:49.2	91.430	-0.480	0.770	1.330
2020/01/31 04:30:49.3	91.410	-0.480	0.710	1.310
2020/01/31 04:30:49.4	91.390	-0.480	0.640	1.290
2020/01/31 04:30:49.5	91.370	-0.470	0.560	1.270
2020/01/31 04:30:49.6	91.360	-0.450	0.470	1.240
2020/01/31 04:30:49.7	91.350	-0.430	0.370	1.210
2020/01/31 04:30:49.8	91.340	-0.410	0.270	1.170
2020/01/31 04:30:49.9	91.330	-0.380	0.160	1.130
2020/01/31 04:30:50.0	91.330	-0.350	0.040	1.080
2020/01/31 04:30:50.1	91.330	-0.310	-0.080	1.030
2020/01/31 04:30:50.2	91.330	-0.270	-0.200	0.980
2020/01/31 04:30:50.3	91.330	-0.230	-0.320	0.930
2020/01/31 04:30:50.4	91.330	-0.180	-0.440	0.870
2020/01/31 04:30:50.5	91.340	-0.130	-0.560	0.820
2020/01/31 04:30:50.6	91.350	-0.080	-0.670	0.770
2020/01/31 04:30:50.7	91.350	-0.030	-0.780	0.710
2020/01/31 04:30:50.8	91.370	0.020	-0.880	0.660
2020/01/31 04:30:50.9	91.380	0.080	-0.970	0.610
2020/01/31 04:30:51.0	91.390	0.130	-1.050	0.560
2020/01/31 04:30:51.1	91.400	0.190	-1.120	0.520
2020/01/31 04:30:51.2	91.410	0.240	-1.170	0.480
2020/01/31 04:30:51.3	91.430	0.290	-1.220	0.440
2020/01/31 04:30:51.4	91.440	0.340	-1.250	0.400
2020/01/31 04:30:51.5	91.460	0.380	-1.270	0.370
2020/01/31 04:30:51.6	91.470	0.430	-1.270	0.340
2020/01/31 04:30:51.7	91.490	0.470	-1.260	0.320
2020/01/31 04:30:51.8	91.500	0.500	-1.240	0.300
2020/01/31 04:30:51.9	91.520	0.530	-1.200	0.290
2020/01/31 04:30:52.0	91.530	0.550	-1.150	0.280
2020/01/31 04:30:52.1	91.550	0.570	-1.090	0.270
2020/01/31 04:30:52.2	91.570	0.590	-1.020	0.270
2020/01/31 04:30:52.3	91.580	0.600	-0.940	0.280
2020/01/31 04:30:52.4	91.590	0.600	-0.850	0.290
2020/01/31 04:30:52.5	91.600	0.600	-0.750	0.300
2020/01/31 04:30:52.6	91.610	0.590	-0.640	0.320
2020/01/31 04:30:52.7	91.620	0.580	-0.530	0.340
2020/01/31 04:30:52.8	91.620	0.570	-0.420	0.360
2020/01/31 04:30:52.9	91.620	0.540	-0.310	0.380
2020/01/31 04:30:53.0	91.620	0.520	-0.190	0.400
2020/01/31 04:30:53.1	91.620	0.490	-0.070	0.430
2020/01/31 04:30:53.2	91.610	0.450	0.040	0.460
2020/01/31 04:30:53.3	91.600	0.420	0.150	0.490
2020/01/31 04:30:53.4	91.590	0.380	0.260	0.510
2020/01/31 04:30:53.5	91.570	0.340	0.350	0.540
2020/01/31 04:30:53.6	91.560	0.290	0.450	0.570
2020/01/31 04:30:53.7	91.540	0.250	0.530	0.590
2020/01/31 04:30:53.8	91.520	0.200	0.600	0.620
2020/01/31 04:30:53.9	91.500	0.160	0.670	0.640
2020/01/31 04:30:54.0	91.480	0.120	0.720	0.660
2020/01/31 04:30:54.1	91.460	0.080	0.760	0.680
2020/01/31 04:30:54.2	91.440	0.040	0.790	0.700
2020/01/31 04:30:54.3	91.420	0.000	0.810	0.720
2020/01/31 04:30:54.4	91.400	-0.030	0.820	0.730
2020/01/31 04:30:54.5	91.390	-0.060	0.810	0.740
2020/01/31 04:30:54.6	91.380	-0.090	0.790	0.750
2020/01/31 04:30:54.7	91.370	-0.110	0.760	0.760
2020/01/31 04:30:54.8	91.360	-0.130	0.720	0.760
2020/01/31 04:30:54.9	91.360	-0.150	0.670	0.760
2020/01/31 04:30:55.0	91.350	-0.160	0.610	0.760
2020/01/31 04:30:55.1	91.360	-0.170	0.540	0.760
2020/01/31 04:30:55.2	91.360	-0.170	0.470	0.760
2020/01/31 04:30:55.3	91.370	-0.170	0.380	0.750
2020/01/31 04:30:55.4	91.380	-0.160	0.290	0.740
2020/01/31 04:30:55.5	91.390	-0.150	0.200	0.730
2020/01/31 04:30:55.6	91.410	-0.140	0.100	0.730
2020/01/31 04:30:55.7	91.420	-0.120	-0.000	0.720
2020/01/31 04:30:55.8	91.440	-0.100	-0.110	0.710
2020/01/31 04:30:55.9	91.460	-0.080	-0.210	0.700
2020/01/31 04:30:56.0	91.480	-0.060	-0.310	0.690
2020/01/31 04:30:56.1	91.500	-0.030	-0.410	0.690
2020/01/31 04:30:56.2	91.530	-0.000	-0.510	0.680
2020/01/31 04:30:56.3	91.550	0.020	-0.600	0.670
2020/01/31 04:30:56.4	91.580	0.050	-0.690	0.660
2020/01/31 04:30:56.5	91.600	0.080	-0.770	0.650
2020/01/31 04:30:56.6	91.630	0.110	-0.840	0.650
2020/01/31 04:30:56.7	91.660	0.130	-0.900	0.640
2020/01/31 04:30:56.8	91.680	0.150	-0.950	0.630
2020/01/31 04:30:56.9	91.710	0.170	-0.990	0.630
2020/01/31 04:30:57.0	91.730	0.190	-1.020	0.630
2020/01/31 04:30:57.1	91.760	0.200	-1.050	0.630
2020/01/31 04:30:57.2	91.780	0.210	-1.060	0.630
2020/01/31 04:30:57.3	91.790	0.210	-1.060	0.640
2020/01/31 04:30:57.4	91.810	0.210	-1.050	0.650
2020/01/31 04:30:57.5	91.820	0.210	-1.030	0.660
2020/01/31 04:30:57.6	91.820	0.200	-1.000	0.680
2020/01/31 04:30:57.7	91.830	0.190	-0.970	0.700
2020/01/31 04:30:57.8	91.830	0.170	-0.920	0.720
2020/01/31 04:30:57.9	91.820	0.150	-0.870	0.740
2020/01/31 04:30:58.0	91.810	0.130	-0.810	0.770
2020/01/31 04:30:58.1	91.800	0.100	-0.740	0.800
2020/01/31 04:30:58.2	91.780	0.060	-0.670	0.840
2020/01/31 04:30:58.3	91.770	0.030	-0.590	0.870
2020/01/31 04:30:58.4	91.740	-0.010	-0.520	0.910
2020/01/31 04:30:58.5	91.720	-0.050	-0.440	0.950
2020/01/31 04:30:58.6	91.690	-0.100	-0.350	0.990
2020/01/31 04:30:58.7	91.660	-0.140	-0.270	1.030
2020/01/31 04:30:58.8	91.630	-0.190	-0.190	1.070
2020/01/31 04:30:58.9	91.600	-0.230	-0.120	1.100
2020/01/31 04:30:59.0	91.560	-0.280	-0.040	1.140
2020/01/31 04:30:59.1	91.530	-0.320	0.030	1.180
2020/01/31 04:30:59.2	91.500	-0.370	0.100	1.210
2020/01/31 04:30:59.3	91.470	-0.410	0.160	1.240
2020/01/31 04:30:59.4	91.440	-0.450	0.220	1.260
2020/01/31 04:30:59.5	91.410	-0.480	0.260	1.280
2020/01/31 04:30:59.6	91.380	-0.520	0.310	1.300
2020/01/31 04:30:59.7	91.350	-0.540	0.340	1.310
2020/01/31 04:30:59.8	91.320	-0.570	0.370	1.320
2020/01/31 04:30:59.9	91.300	-0.590	0.390	1.320
2020/01/31 04:31:00.0	91.270	-0.610	0.400	1.320
2020/01/31 04:31:00.1	91.240	-0.620	0.410	1.310
2020/01/31 04:31:00.2	91.220	-0.630	0.400	1.300
2020/01/31 04:31:00.3	91.200	-0.630	0.400	1.290
2020/01/31 04:31:00.4	91.180	-0.630	0.380	1.270
2020/01/31 04:31:00.5	91.170	-0.630	0.360	1.240
2020/01/31 04:31:00.6	91.150	-0.610	0.330	1.210
2020/01/31 04:31:00.7	91.140	-0.600	0.300	1.180
2020/01/31 04:31:00.8	91.120	-0.580	0.260	1.150
2020/01/31 04:31:00.9	91.110	-0.560	0.210	1.110
2020/01/31 04:31:01.0	91.100	-0.530	0.160	1.070
2020/01/31 04:31:01.1	91.100	-0.500	0.100	1.030
2020/01/31 04:31:01.2	91.090	-0.460	0.040	0.980
2020/01/31 04:31:01.3	91.080	-0.420	-0.030	0.940
2020/01/31 04:31:01.4	91.080	-0.380	-0.090	0.890
2020/01/31 04:31:01.5	91.070	-0.330	-0.160	0.850
2020/01/31 04:31:01.6	91.070	-0.280	-0.240	0.800
2020/01/31 04:31:01.7	91.070	-0.230	-0.310	0.760
2020/01/31 04:31:01.8	91.070	-0.180	-0.390	0.710
2020/01/31 04:31:01.9	91.070	-0.130	-0.460	0.670
2020/01/31 04:31:02.0	91.080	-0.070	-0.540	0.620
2020/01/31 04:31:02.1	91.080	-0.020	-0.610	0.580
2020/01/31 04:31:02.2	91.090	0.040	-0.680	0.530
2020/01/31 04:31:02.3	91.100	0.100	-0.750	0.490
2020/01/31 04:31:02.4	91.110	0.150	-0.820	0.450
2020/01/31 04:31:02.5	91.120	0.210	-0.880	0.410
2020/01/31 04:31:02.6	91.130	0.260	-0.930	0.380
2020/01/31 04:31:02.7	91.140	0.310	-0.980	0.340
2020/01/31 04:31:02.8	91.150	0.350	-1.020	0.310
2020/01/31 04:31:02.9	91.170	0.400	-1.050	0.280
2020/01/31 04:31:03.0	91.180	0.440	-1.070	0.250
2020/01/31 04:31:03.1	91.200	0.470	-1.090	0.230
2020/01/31 04:31:03.2	91.210	0.500	-1.100	0.210
2020/01/31 04:31:03.3	91.230	0.530	-1.090	0.200
2020/01/31 04:31:03.4	91.240	0.550	-1.070	0.180
2020/01/31 04:31:03.5	91.250	0.560	-1.040	0.170
2020/01/31 04:31:03.6	91.270	0.570	-1.000	0.170
2020/01/31 04:31:03.7	91.280	0.570	-0.960	0.170
2020/01/31 04:31:03.8	91.290	0.570	-0.900	0.170
2020/01/31 04:31:03.9	91.300	0.560	-0.830	0.180
2020/01/31 04:31:04.0	91.310	0.540	-0.760	0.190
2020/01/31 04:31:04.1	91.330	0.520	-0.670	0.210
2020/01/31 04:31:04.2	91.330	0.500	-0.590	0.230
2020/01/31 04:31:04.3	91.340	0.470	-0.490	0.250
2020/01/31 04:31:04.4	91.340	0.430	-0.400	0.280
2020/01/31 04:31:04.5	91.340	0.390	-0.300	0.310
2020/01/31 04:31:04.6	91.340	0.350	-0.190	0.350
2020/01/31 04:31:04.7	91.340	0.300	-0.090	0.380
2020/01/31 04:31:04.8	91.340	0.250	0.010	0.420
2020/01/31 04:31:04.9	91.330	0.200	0.110	0.460
2020/01/31 04:31:05.0	91.320	0.140	0.200	0.510
2020/01/31 04:31:05.1	91.320	0.090	0.300	0.560
2020/01/31 04:31:05.2	91.300	0.030	0.380	0.600
2020/01/31 04:31:05.3	91.290	-0.030	0.460	0.640
2020/01/31 04:31:05.4	91.280	-0.080	0.530	0.680
2020/01/31 04:31:05.5	91.270	-0.140	0.590	0.720
2020/01/31 04:31:05.6	91.260	-0.190	0.650	0.760
2020/01/31 04:31:05.7	91.250	-0.240	0.690	0.790
2020/01/31 04:31:05.8	91.240	-0.290	0.730	0.820
2020/01/31 04:31:05.9	91.230	-0.330	0.750	0.840
2020/01/31 04:31:06.0	91.220	-0.370	0.770	0.860
2020/01/31 04:31:06.1	91.220	-0.410	0.770	0.880
2020/01/31 04:31:06.2	91.210	-0.440	0.760	0.890
2020/01/31 04:31:06.3	91.210	-0.470	0.740	0.900
2020/01/31 04:31:06.4	91.220	-0.490	0.710	0.900
2020/01/31 04:31:06.5	91.220	-0.500	0.670	0.890
2020/01/31 04:31:06.6	91.230	-0.510	0.630	0.880
2020/01/31 04:31:06.7	91.240	-0.510	0.570	0.870
2020/01/31 04:31:06.8	91.250	-0.510	0.500	0.860
2020/01/31 04:31:06.9	91.260	-0.500	0.430	0.850
2020/01/31 04:31:07.0	91.270	-0.480	0.350	0.840
2020/01/31 04:31:07.1	91.280	-0.460	0.270	0.820
2020/01/31 04:31:07.2	91.290	-0.440	0.190	0.820
2020/01/31 04:31:07.3	91.300	-0.410	0.100	0.810
2020/01/31 04:31:07.4	91.310	-0.370	0.010	0.810
2020/01/31 04:31:07.5	91.320	-0.330	-0.080	0.810
2020/01/31 04:31:07.6	91.320	-0.290	-0.160	0.820
2020/01/31 04:31:07.7	91.320	-0.250	-0.250	0.820
2020/01/31 04:31:07.8	91.320	-0.210	-0.320	0.830
2020/01/31 04:31:07.9	91.320	-0.160	-0.390	0.850
2020/01/31 04:31:08.0	91.310	-0.120	-0.460	0.860
2020/01/31 04:31:08.1	91.300	-0.070	-0.520	0.880
2020/01/31 04:31:08.2	91.280	-0.030	-0.570	0.890
2020/01/31 04:31:08.3	91.270	0.010	-0.610	0.910
2020/01/31 04:31:08.4	91.250	0.050	-0.640	0.920
2020/01/31 04:31:08.5	91.220	0.090	-0.660	0.940
2020/01/31 04:31:08.6	91.200	0.120	-0.670	0.950
2020/01/31 04:31:08.7	91.170	0.140	-0.670	0.970
2020/01/31 04:31:08.8	91.140	0.170	-0.670	0.980
2020/01/31 04:31:08.9	91.120	0.190	-0.650	0.980
2020/01/31 04:31:09.0	91.090	0.200	-0.630	0.990
2020/01/31 04:31:09.1	91.060	0.220	-0.600	0.990
2020/01/31 04:31:09.2	91.030	0.220	-0.560	0.980
2020/01/31 04:31:09.3	91.000	0.230	-0.520	0.980
2020/01/31 04:31:09.4	90.980	0.230	-0.470	0.970
2020/01/31 04:31:09.5	90.950	0.220	-0.420	0.960
2020/01/31 04:31:09.6	90.920	0.210	-0.360	0.940
2020/01/31 04:31:09.7	90.890	0.200	-0.310	0.920
2020/01/31 04:31:09.8	90.870	0.190	-0.250	0.910
2020/01/31 04:31:09.9	90.850	0.170	-0.190	0.880
2020/01/31 04:31:10.0	90.830	0.150	-0.130	0.860
2020/01/31 04:31:10.1	90.810	0.140	-0.090	0.830
2020/01/31 04:31:10.2	90.800	0.120	-0.040	0.810
2020/01/31 04:31:10.3	90.790	0.100	0.010	0.780
2020/01/31 04:31:10.4	90.780	0.080	0.050	0.750
2020/01/31 04:31:10.5	90.780	0.070	0.080	0.720
2020/01/31 04:31:10.6	90.780	0.050	0.110	0.690
2020/01/31 04:31:10.7	90.780	0.040	0.120	0.650
2020/01/31 04:31:10.8	90.790	0.030	0.130	0.620
2020/01/31 04:31:10.9	90.800	0.030	0.120	0.590
2020/01/31 04:31:11.0	90.810	0.030	0.110	0.550
2020/01/31 04:31:11.1	90.820	0.030	0.090	0.520
2020/01/31 04:31:11.2	90.840	0.040	0.050	0.490
2020/01/31 04:31:11.3	90.860	0.060	0.010	0.460
2020/01/31 04:31:11.4	90.880	0.080	-0.050	0.430
2020/01/31 04:31:11.5	90.900	0.100	-0.110	0.410
2020/01/31 04:31:11.6	90.920	0.130	-0.180	0.380
2020/01/31 04:31:11.7	90.940	0.170	-0.260	0.350
2020/01/31 04:31:11.8	90.960	0.200	-0.340	0.330
2020/01/31 04:31:11.9	90.980	0.240	-0.430	0.310
2020/01/31 04:31:12.0	91.000	0.280	-0.510	0.290
2020/01/31 04:31:12.1	91.020	0.330	-0.610	0.270
2020/01/31 04:31:12.2	91.040	0.370	-0.690	0.250
2020/01/31 04:31:12.3	91.060	0.410	-0.780	0.230
2020/01/31 04:31:12.4	91.080	0.460	-0.860	0.220
2020/01/31 04:31:12.5	91.100	0.500	-0.940	0.210
2020/01/31 04:31:12.6	91.120	0.540	-1.010	0.200
2020/01/31 04:31:12.7	91.130	0.570	-1.070	0.190
2020/01/31 04:31:12.8	91.150	0.610	-1.120	0.190
2020/01/31 04:31:12.9	91.160	0.630	-1.150	0.200
2020/01/31 04:31:13.0	91.160	0.660	-1.180	0.210
2020/01/31 04:31:13.1	91.170	0.670	-1.200	0.220
2020/01/31 04:31:13.2	91.170	0.680	-1.200	0.240
2020/01/31 04:31:13.3	91.170	0.690	-1.190	0.260
2020/01/31 04:31:13.4	91.160	0.680	-1.170	0.290
2020/01/31 04:31:13.5	91.160	0.670	-1.130	0.320
2020/01/31 04:31:13.6	91.150	0.660	-1.090	0.360
2020/01/31 04:31:13.7	91.140	0.630	-1.030	0.390
2020/01/31 04:31:13.8	91.130	0.600	-0.960	0.430
2020/01/31 04:31:13.9	91.110	0.570	-0.880	0.480
2020/01/31 04:31:14.0	91.100	0.520	-0.790	0.520
2020/01/31 04:31:14.1	91.080	0.470	-0.680	0.570
2020/01/31 04:31:14.2	91.050	0.420	-0.580	0.620
2020/01/31 04:31:14.3	91.030	0.360	-0.470	0.670
2020/01/31 04:31:14.4	91.010	0.300	-0.350	0.720
2020/01/31 04:31:14.5	90.980	0.230	-0.230	0.770
2020/01/31 04:31:14.6	90.950	0.160	-0.110	0.820
2020/01/31 04:31:14.7	90.920	0.080	0.010	0.870
2020/01/31 04:31:14.8	90.890	0.010	0.120	0.920
2020/01/31 04:31:14.9	90.850	-0.070	0.240	0.970
2020/01/31 04:31:15.0	90.820	-0.150	0.350	1.010
2020/01/31 04:31:15.1	90.780	-0.220	0.460	1.060
2020/01/31 04:31:15.2	90.750	-0.300	0.560	1.100
2020/01/31 04:31:15.3	90.710	-0.370	0.650	1.140
2020/01/31 04:31:15.4	90.680	-0.440	0.730	1.170
2020/01/31 04:31:15.5	90.650	-0.500	0.800	1.210
2020/01/31 04:31:15.6	90.620	-0.560	0.860	1.240
2020/01/31 04:31:15.7	90.580	-0.620	0.900	1.260
2020/01/31 04:31:15.8	90.550	-0.670	0.940	1.280
2020/01/31 04:31:15.9	90.530	-0.710	0.960	1.300
2020/01/31 04:31:16.0	90.500	-0.750	0.970	1.310
2020/01/31 04:31:16.1	90.480	-0.780	0.960	1.320
2020/01/31 04:31:16.2	90.460	-0.810	0.950	1.320
2020/01/31 04:31:16.3	90.450	-0.830	0.920	1.320
2020/01/31 04:31:16.4	90.440	-0.840	0.890	1.310
2020/01/31 04:31:16.5	90.430	-0.840	0.840	1.300
2020/01/31 04:31:16.6	90.430	-0.850	0.790	1.290
2020/01/31 04:31:16.7	90.430	-0.840	0.720	1.270
2020/01/31 04:31:16.8	90.430	-0.830	0.660	1.240
2020/01/31 04:31:16.9	90.440	-0.810	0.580	1.220
2020/01/31 04:31:17.0	90.450	-0.790	0.500	1.190
2020/01/31 04:31:17.1	90.460	-0.770	0.410	1.160
2020/01/31 04:31:17.2	90.480	-0.740	0.330	1.120
2020/01/31 04:31:17.3	90.490	-0.710	0.240	1.090
2020/01/31 04:31:17.4	90.510	-0.680	0.150	1.050
2020/01/31 04:31:17.5	90.540	-0.640	0.060	1.010
2020/01/31 04:31:17.6	90.560	-0.600	-0.040	0.960
2020/01/31 04:31:17.7	90.590	-0.560	-0.130	0.920
2020/01/31 04:31:17.8	90.620	-0.520	-0.220	0.870
2020/01/31 04:31:17.9	90.650	-0.480	-0.310	0.830
2020/01/31 04:31:18.0	90.680	-0.430	-0.390	0.780
2020/01/31 04:31:18.1	90.710	-0.390	-0.480	0.740
2020/01/31 04:31:18.2	90.740	-0.340	-0.560	0.690
2020/01/31 04:31:18.3	90.770	-0.300	-0.630	0.650
2020/01/31 04:31:18.4	90.800	-0.250	-0.700	0.600
2020/01/31 04:31:18.5	90.830	-0.200	-0.770	0.560
2020/01/31 04:31:18.6	90.860	-0.160	-0.830	0.530
2020/01/31 04:31:18.7	90.880	-0.120	-0.890	0.490
2020/01/31 04:31:18.8	90.910	-0.070	-0.940	0.460
2020/01/31 04:31:18.9	90.930	-0.030	-0.980	0.440
2020/01/31 04:31:19.0	90.950	0.010	-1.020	0.420
2020/01/31 04:31:19.1	90.970	0.050	-1.050	0.400
2020/01/31 04:31:19.2	90.990	0.090	-1.070	0.390
2020/01/31 04:31:19.3	91.010	0.120	-1.080	0.380
2020/01/31 04:31:19.4	91.020	0.160	-1.090	0.370
2020/01/31 04:31:19.5	91.030	0.190	-1.090	0.370
2020/01/31 04:31:19.6	91.050	0.220	-1.080	0.370
2020/01/31 04:31:19.7	91.060	0.240	-1.060	0.370
2020/01/31 04:31:19.8	91.070	0.270	-1.040	0.370
2020/01/31 04:31:19.9	91.070	0.290	-1.010	0.380
2020/01/31 04:31:20.0	91.080	0.310	-0.980	0.380
2020/01/31 04:31:20.1	91.090	0.320	-0.940	0.390
2020/01/31 04:31:20.2	91.100	0.330	-0.890	0.400
2020/01/31 04:31:20.3	91.100	0.340	-0.840	0.410
2020/01/31 04:31:20.4	91.110	0.350	-0.780	0.420
2020/01/31 04:31:20.5	91.110	0.350	-0.720	0.430
2020/01/31 04:31:20.6	91.120	0.360	-0.660	0.440
2020/01/31 04:31:20.7	91.120	0.350	-0.590	0.450
2020/01/31 04:31:20.8	91.120	0.350	-0.520	0.470
2020/01/31 04:31:20.9	91.130	0.340	-0.450	0.480
2020/01/31 04:31:21.0	91.130	0.330	-0.380	0.500
2020/01/31 04:31:21.1	91.130	0.320	-0.300	0.510
2020/01/31 04:31:21.2	91.140	0.310	-0.230	0.530
2020/01/31 04:31:21.3	91.140	0.290	-0.160	0.550
2020/01/31 04:31:21.4	91.140	0.280	-0.100	0.560
2020/01/31 04:31:21.5	91.140	0.260	-0.030	0.580
2020/01/31 04:31:21.6	91.150	0.240	0.030	0.600
2020/01/31 04:31:21.7	91.150	0.220	0.090	0.620
2020/01/31 04:31:21.8	91.160	0.200	0.150	0.640
2020/01/31 04:31:21.9	91.160	0.180	0.200	0.660
2020/01/31 04:31:22.0	91.170	0.150	0.240	0.680
2020/01/31 04:31:22.1	91.180	0.130	0.280	0.700
2020/01/31 04:31:22.2	91.180	0.110	0.320	0.710
2020/01/31 04:31:22.3	91.190	0.090	0.350	0.730
2020/01/31 04:31:22.4	91.190	0.060	0.380	0.750
2020/01/31 04:31:22.5	91.200	0.040	0.400	0.760
2020/01/31 04:31:22.6	91.200	0.020	0.410	0.770
2020/01/31 04:31:22.7	91.200	0.000	0.420	0.780
2020/01/31 04:31:22.8	91.200	-0.020	0.420	0.790
2020/01/31 04:31:22.9	91.200	-0.030	0.420	0.790
2020/01/31 04:31:23.0	91.200	-0.050	0.420	0.790
2020/01/31 04:31:23.1	91.190	-0.070	0.410	0.790
2020/01/31 04:31:23.2	91.190	-0.080	0.400	0.790
2020/01/31 04:31:23.3	91.180	-0.090	0.380	0.790
2020/01/31 04:31:23.4	91.170	-0.100	0.350	0.790
2020/01/31 04:31:23.5	91.160	-0.110	0.330	0.780
2020/01/31 04:31:23.6	91.150	-0.110	0.300	0.770
2020/01/31 04:31:23.7	91.140	-0.120	0.260	0.760
2020/01/31 04:31:23.8	91.130	-0.120	0.220	0.750
2020/01/31 04:31:23.9	91.120	-0.120	0.180	0.740
2020/01/31 04:31:24.0	91.110	-0.110	0.130	0.730
2020/01/31 04:31:24.1	91.090	-0.110	0.080	0.710
2020/01/31 04:31:24.2	91.080	-0.100	0.030	0.700
2020/01/31 04:31:24.3	91.070	-0.090	-0.030	0.680
2020/01/31 04:31:24.4	91.060	-0.070	-0.090	0.670
2020/01/31 04:31:24.5	91.050	-0.060	-0.150	0.650
2020/01/31 04:31:24.6	91.050	-0.040	-0.210	0.640
2020/01/31 04:31:24.7	91.040	-0.020	-0.280	0.620
2020/01/31 04:31:24.8	91.040	0.010	-0.350	0.600
2020/01/31 04:31:24.9	91.040	0.030	-0.420	0.590
2020/01/31 04:31:25.0	91.040	0.060	-0.480	0.570
2020/01/31 04:31:25.1	91.040	0.090	-0.550	0.550
2020/01/31 04:31:25.2	91.050	0.120	-0.620	0.540
2020/01/31 04:31:25.3	91.060	0.160	-0.680	0.520
2020/01/31 04:31:25.4	91.070	0.190	-0.750	0.510
2020/01/31 04:31:25.5	91.080	0.220	-0.800	0.500
2020/01/31 04:31:25.6	91.080	0.260	-0.860	0.490
2020/01/31 04:31:25.7	91.090	0.290	-0.910	0.480
2020/01/31 04:31:25.8	91.100	0.330	-0.950	0.470
2020/01/31 04:31:25.9	91.110	0.360	-0.990	0.470
2020/01/31 04:31:26.0	91.120	0.390	-1.020	0.460
2020/01/31 04:31:26.1	91.140	0.430	-1.050	0.460
2020/01/31 04:31:26.2	91.150	0.450	-1.060	0.460
2020/01/31 04:31:26.3	91.160	0.480	-1.070	0.460
2020/01/31 04:31:26.4	91.170	0.510	-1.070	0.450
2020/01/31 04:31:26.5	91.180	0.530	-1.070	0.450
2020/01/31 04:31:26.6	91.200	0.540	-1.050	0.450
2020/01/31 04:31:26.7	91.210	0.560	-1.030	0.440
2020/01/31 04:31:26.8	91.220	0.570	-1.000	0.440
2020/01/31 04:31:26.9	91.240	0.580	-0.960	0.430
2020/01/31 04:31:27.0	91.250	0.580	-0.910	0.420
2020/01/31 04:31:27.1	91.270	0.580	-0.860	0.410
2020/01/31 04:31:27.2	91.290	0.580	-0.800	0.400
2020/01/31 04:31:27.3	91.310	0.570	-0.740	0.400
2020/01/31 04:31:27.4	91.320	0.560	-0.670	0.390
2020/01/31 04:31:27.5	91.340	0.540	-0.600	0.380
2020/01/31 04:31:27.6	91.360	0.520	-0.530	0.380
2020/01/31 04:31:27.7	91.370	0.500	-0.450	0.370
2020/01/31 04:31:27.8	91.390	0.470	-0.370	0.370
2020/01/31 04:31:27.9	91.400	0.450	-0.290	0.370
2020/01/31 04:31:28.0	91.410	0.410	-0.210	0.380
2020/01/31 04:31:28.1	91.420	0.380	-0.120	0.380
2020/01/31 04:31:28.2	91.430	0.340	-0.040	0.390
2020/01/31 04:31:28.3	91.450	0.300	0.040	0.400
2020/01/31 04:31:28.4	91.460	0.260	0.120	0.410
2020/01/31 04:31:28.5	91.470	0.220	0.200	0.430
2020/01/31 04:31:28.6	91.480	0.170	0.270	0.440
2020/01/31 04:31:28.7	91.490	0.130	0.340	0.460
2020/01/31 04:31:28.8	91.510	0.080	0.400	0.470
2020/01/31 04:31:28.9	91.520	0.030	0.460	0.490
2020/01/31 04:31:29.0	91.540	-0.010	0.510	0.510
2020/01/31 04:31:29.1	91.560	-0.060	0.560	0.530
2020/01/31 04:31:29.2	91.580	-0.110	0.600	0.540
2020/01/31 04:31:29.3	91.600	-0.160	0.640	0.560
2020/01/31 04:31:29.4	91.620	-0.200	0.660	0.580
2020/01/31 04:31:29.5	91.650	-0.250	0.680	0.590
2020/01/31 04:31:29.6	91.680	-0.290	0.700	0.600
2020/01/31 04:31:29.7	91.700	-0.340	0.710	0.620
2020/01/31 04:31:29.8	91.730	-0.380	0.710	0.630
2020/01/31 04:31:29.9	91.760	-0.420	0.700	0.640
2020/01/31 04:31:30.0	91.790	-0.460	0.700	0.650
2020/01/31 04:31:30.1	91.820	-0.500	0.680	0.660
2020/01/31 04:31:30.2	91.850	-0.540	0.660	0.670
2020/01/31 04:31:30.3	91.880	-0.580	0.640	0.680
2020/01/31 04:31:30.4	91.910	-0.610	0.610	0.680
2020/01/31 04:31:30.5	91.930	-0.640	0.570	0.690
2020/01/31 04:31:30.6	91.960	-0.680	0.540	0.700
2020/01/31 04:31:30.7	91.980	-0.700	0.500	0.700
2020/01/31 04:31:30.8	92.010	-0.730	0.460	0.710
2020/01/31 04:31:30.9	92.030	-0.760	0.410	0.710
2020/01/31 04:31:31.0	92.050	-0.780	0.370	0.710
2020/01/31 04:31:31.1	92.070	-0.800	0.330	0.720
2020/01/31 04:31:31.2	92.090	-0.820	0.280	0.730
2020/01/31 04:31:31.3	92.100	-0.830	0.230	0.730
2020/01/31 04:31:31.4	92.110	-0.850	0.170	0.740
2020/01/31 04:31:31.5	92.120	-0.860	0.120	0.740
2020/01/31 04:31:31.6	92.130	-0.860	0.070	0.750
2020/01/31 04:31:31.7	92.140	-0.870	0.020	0.760
2020/01/31 04:31:31.8	92.140	-0.860	-0.030	0.770
2020/01/31 04:31:31.9	92.150	-0.860	-0.090	0.790
2020/01/31 04:31:32.0	92.150	-0.850	-0.140	0.800
2020/01/31 04:31:32.1	92.150	-0.840	-0.190	0.820
2020/01/31 04:31:32.2	92.150	-0.820	-0.240	0.840
2020/01/31 04:31:32.3	92.150	-0.800	-0.290	0.860
2020/01/31 04:31:32.4	92.140	-0.780	-0.340	0.880
2020/01/31 04:31:32.5	92.140	-0.750	-0.390	0.900
2020/01/31 04:31:32.6	92.140	-0.720	-0.440	0.920
2020/01/31 04:31:32.7	92.140	-0.680	-0.490	0.940
2020/01/31 04:31:32.8	92.130	-0.640	-0.540	0.950
2020/01/31 04:31:32.9	92.130	-0.590	-0.590	0.970
2020/01/31 04:31:33.0	92.130	-0.550	-0.630	0.980
2020/01/31 04:31:33.1	92.120	-0.490	-0.680	1.000
2020/01/31 04:31:33.2	92.120	-0.440	-0.720	1.010
2020/01/31 04:31:33.3	92.120	-0.380	-0.770	1.020
2020/01/31 04:31:33.4	92.120	-0.320	-0.810	1.020
2020/01/31 04:31:33.5	92.120	-0.260	-0.850	1.030
2020/01/31 04:31:33.6	92.120	-0.190	-0.900	1.030
2020/01/31 04:31:33.7	92.120	-0.130	-0.940	1.030
2020/01/31 04:31:33.8	92.120	-0.060	-0.970	1.020
2020/01/31 04:31:33.9	92.110	0.010	-1.010	1.020
2020/01/31 04:31:34.0	92.110	0.070	-1.040	1.010
2020/01/31 04:31:34.1	92.100	0.140	-1.080	1.000
2020/01/31 04:31:34.2	92.090	0.210	-1.100	0.990
2020/01/31 04:31:34.3	92.080	0.270	-1.130	0.970
2020/01/31 04:31:34.4	92.070	0.330	-1.150	0.950
2020/01/31 04:31:34.5	92.050	0.390	-1.170	0.940
2020/01/31 04:31:34.6	92.040	0.450	-1.180	0.910
2020/01/31 04:31:34.7	92.020	0.510	-1.190	0.890
2020/01/31 04:31:34.8	92.010	0.560	-1.190	0.860
2020/01/31 04:31:34.9	91.990	0.610	-1.190	0.840
2020/01/31 04:31:35.0	91.970	0.660	-1.190	0.810
2020/01/31 04:31:35.1	91.950	0.700	-1.170	0.780
2020/01/31 04:31:35.2	91.930	0.740	-1.150	0.750
2020/01/31 04:31:35.3	91.910	0.780	-1.130	0.720
2020/01/31 04:31:35.4	91.890	0.810	-1.110	0.690
2020/01/31 04:31:35.5	91.870	0.840	-1.080	0.660
2020/01/31 04:31:35.6	91.850	0.860	-1.040	0.630
2020/01/31 04:31:35.7	91.830	0.870	-1.000	0.600
2020/01/31 04:31:35.8	91.820	0.890	-0.950	0.570
2020/01/31 04:31:35.9	91.810	0.900	-0.900	0.550
2020/01/31 04:31:36.0	91.790	0.900	-0.850	0.520
2020/01/31 04:31:36.1	91.790	0.900	-0.790	0.500
2020/01/31 04:31:36.2	91.790	0.900	-0.730	0.470
2020/01/31 04:31:36.3	91.780	0.890	-0.660	0.450
2020/01/31 04:31:36.4	91.780	0.870	-0.600	0.430
2020/01/31 04:31:36.5	91.780	0.860	-0.530	0.410
2020/01/31 04:31:36.6	91.790	0.840	-0.450	0.390
2020/01/31 04:31:36.7	91.790	0.810	-0.380	0.370
2020/01/31 04:31:36.8	91.800	0.780	-0.300	0.350
2020/01/31 04:31:36.9	91.800	0.750	-0.220	0.330
2020/01/31 04:31:37.0	91.810	0.710	-0.140	0.320
2020/01/31 04:31:37.1	91.830	0.680	-0.060	0.300
2020/01/31 04:31:37.2	91.840	0.630	0.020	0.290
2020/01/31 04:31:37.3	91.850	0.590	0.100	0.270
2020/01/31 04:31:37.4	91.860	0.540	0.180	0.260
2020/01/31 04:31:37.5	91.880	0.490	0.260	0.240
2020/01/31 04:31:37.6	91.890	0.440	0.330	0.220
2020/01/31 04:31:37.7	91.910	0.380	0.400	0.200
2020/01/31 04:31:37.8	91.930	0.320	0.470	0.180
2020/01/31 04:31:37.9	91.940	0.270	0.540	0.160
2020/01/31 04:31:38.0	91.960	0.210	0.600	0.140
2020/01/31 04:31:38.1	91.980	0.150	0.660	0.110
2020/01/31 04:31:38.2	91.990	0.090	0.720	0.090
2020/01/31 04:31:38.3	92.010	0.030	0.770	0.060
2020/01/31 04:31:38.4	92.030	-0.030	0.810	0.030
2020/01/31 04:31:38.5	92.050	-0.090	0.850	0.000
2020/01/31 04:31:38.6	92.070	-0.140	0.880	-0.020
2020/01/31 04:31:38.7	92.090	-0.190	0.910	-0.050
2020/01/31 04:31:38.8	92.100	-0.240	0.920	-0.080
2020/01/31 04:31:38.9	92.120	-0.290	0.930	-0.110
2020/01/31 04:31:39.0	92.140	-0.340	0.940	-0.130
2020/01/31 04:31:39.1	92.150	-0.380	0.930	-0.150
2020/01/31 04:31:39.2	92.170	-0.410	0.920	-0.160
2020/01/31 04:31:39.3	92.180	-0.440	0.900	-0.180
2020/01/31 04:31:39.4	92.190	-0.470	0.870	-0.180
2020/01/31 04:31:39.5	92.200	-0.490	0.830	-0.180
2020/01/31 04:31:39.6	92.210	-0.500	0.790	-0.170
2020/01/31 04:31:39.7	92.220	-0.510	0.740	-0.160
2020/01/31 04:31:39.8	92.220	-0.520	0.680	-0.140
2020/01/31 04:31:39.9	92.220	-0.520	0.610	-0.120
2020/01/31 04:31:40.0	92.220	-0.510	0.540	-0.090
2020/01/31 04:31:40.1	92.230	-0.500	0.460	-0.050
2020/01/31 04:31:40.2	92.230	-0.480	0.380	-0.010
2020/01/31 04:31:40.3	92.230	-0.460	0.280	0.040
2020/01/31 04:31:40.4	92.230	-0.430	0.190	0.080
2020/01/31 04:31:40.5	92.230	-0.400	0.090	0.130
2020/01/31 04:31:40.6	92.240	-0.370	-0.020	0.180
2020/01/31 04:31:40.7	92.240	-0.330	-0.130	0.230
2020/01/31 04:31:40.8	92.250	-0.290	-0.230	0.280
2020/01/31 04:31:40.9	92.260	-0.240	-0.340	0.330
2020/01/31 04:31:41.0	92.270	-0.200	-0.450	0.370
2020/01/31 04:31:41.1	92.280	-0.150	-0.570	0.420
2020/01/31 04:31:41.2	92.300	-0.100	-0.670	0.450
2020/01/31 04:31:41.3	92.310	-0.050	-0.780	0.490
2020/01/31 04:31:41.4	92.330	-0.010	-0.870	0.520
2020/01/31 04:31:41.5	92.340	0.040	-0.960	0.540
2020/01/31 04:31:41.6	92.360	0.080	-1.050	0.570
2020/01/31 04:31:41.7	92.370	0.130	-1.120	0.590
2020/01/31 04:31:41.8	92.380	0.160	-1.190	0.610
2020/01/31 04:31:41.9	92.390	0.200	-1.240	0.620
2020/01/31 04:31:42.0	92.390	0.230	-1.290	0.640
2020/01/31 04:31:42.1	92.400	0.250	-1.310	0.650
2020/01/31 04:31:42.2	92.400	0.270	-1.330	0.670
2020/01/31 04:31:42.3	92.400	0.290	-1.340	0.680
2020/01/31 04:31:42.4	92.400	0.300	-1.340	0.690
2020/01/31 04:31:42.5	92.400	0.300	-1.320	0.700
2020/01/31 04:31:42.6	92.390	0.300	-1.290	0.710
2020/01/31 04:31:42.7	92.380	0.300	-1.250	0.720
2020/01/31 04:31:42.8	92.380	0.290	-1.190	0.740
2020/01/31 04:31:42.9	92.370	0.270	-1.130	0.750
2020/01/31 04:31:43.0	92.350	0.250	-1.050	0.770
2020/01/31 04:31:43.1	92.340	0.220	-0.970	0.790
2020/01/31 04:31:43.2	92.320	0.190	-0.880	0.810
2020/01/31 04:31:43.3	92.310	0.160	-0.780	0.830
2020/01/31 04:31:43.4	92.290	0.120	-0.670	0.860
2020/01/31 04:31:43.5	92.270	0.080	-0.560	0.880
2020/01/31 04:31:43.6	92.250	0.040	-0.450	0.910
2020/01/31 04:31:43.7	92.230	-0.000	-0.330	0.930
2020/01/31 04:31:43.8	92.210	-0.050	-0.220	0.960
2020/01/31 04:31:43.9	92.200	-0.100	-0.110	0.980
2020/01/31 04:31:44.0	92.180	-0.140	-0.000	1.000
2020/01/31 04:31:44.1	92.170	-0.190	0.110	1.020
2020/01/31 04:31:44.2	92.150	-0.230	0.210	1.040
2020/01/31 04:31:44.3	92.140	-0.270	0.290	1.050
2020/01/31 04:31:44.4	92.130	-0.310	0.370	1.060
2020/01/31 04:31:44.5	92.120	-0.340	0.440	1.060
2020/01/31 04:31:44.6	92.120	-0.370	0.490	1.050
2020/01/31 04:31:44.7	92.110	-0.400	0.530	1.050
2020/01/31 04:31:44.8	92.110	-0.420	0.560	1.030
2020/01/31 04:31:44.9	92.120	-0.440	0.580	1.010
2020/01/31 04:31:45.0	92.120	-0.450	0.580	0.990
2020/01/31 04:31:45.1	92.130	-0.460	0.580	0.970
2020/01/31 04:31:45.2	92.140	-0.470	0.560	0.940
2020/01/31 04:31:45.3	92.150	-0.470	0.530	0.910
2020/01/31 04:31:45.4	92.170	-0.460	0.490	0.870
2020/01/31 04:31:45.5	92.180	-0.460	0.440	0.840
2020/01/31 04:31:45.6	92.190	-0.440	0.390	0.810
2020/01/31 04:31:45.7	92.200	-0.430	0.330	0.770
2020/01/31 04:31:45.8	92.220	-0.410	0.260	0.740
2020/01/31 04:31:45.9	92.230	-0.390	0.190	0.700
2020/01/31 04:31:46.0	92.240	-0.370	0.120	0.670
2020/01/31 04:31:46.1	92.250	-0.340	0.040	0.630
2020/01/31 04:31:46.2	92.260	-0.320	-0.030	0.600
2020/01/31 04:31:46.3	92.260	-0.290	-0.110	0.560
2020/01/31 04:31:46.4	92.270	-0.260	-0.180	0.520
2020/01/31 04:31:46.5	92.270	-0.230	-0.250	0.490
2020/01/31 04:31:46.6	92.280	-0.200	-0.320	0.450
2020/01/31 04:31:46.7	92.280	-0.170	-0.380	0.410
2020/01/31 04:31:46.8	92.280	-0.150	-0.440	0.370
2020/01/31 04:31:46.9	92.290	-0.120	-0.490	0.330
2020/01/31 04:31:47.0	92.290	-0.090	-0.530	0.290
2020/01/31 04:31:47.1	92.290	-0.060	-0.570	0.250
2020/01/31 04:31:47.2	92.290	-0.040	-0.600	0.210
2020/01/31 04:31:47.3	92.290	-0.010	-0.620	0.180
2020/01/31 04:31:47.4	92.290	0.010	-0.640	0.150
2020/01/31 04:31:47.5	92.290	0.030	-0.650	0.110
2020/01/31 04:31:47.6	92.300	0.050	-0.650	0.080
2020/01/31 04:31:47.7	92.300	0.070	-0.640	0.060
2020/01/31 04:31:47.8	92.310	0.090	-0.630	0.030
2020/01/31 04:31:47.9	92.310	0.100	-0.610	0.010
2020/01/31 04:31:48.0	92.320	0.120	-0.590	-0.010
2020/01/31 04:31:48.1	92.330	0.130	-0.560	-0.020
2020/01/31 04:31:48.2	92.340	0.150	-0.530	-0.040
2020/01/31 04:31:48.3	92.350	0.160	-0.490	-0.050
2020/01/31 04:31:48.4	92.360	0.170	-0.460	-0.060
2020/01/31 04:31:48.5	92.380	0.180	-0.420	-0.060
2020/01/31 04:31:48.6	92.390	0.190	-0.380	-0.060
2020/01/31 04:31:48.7	92.410	0.200	-0.340	-0.060
2020/01/31 04:31:48.8	92.420	0.210	-0.300	-0.060
2020/01/31 04:31:48.9	92.430	0.220	-0.260	-0.050
2020/01/31 04:31:49.0	92.450	0.230	-0.220	-0.040
2020/01/31 04:31:49.1	92.460	0.230	-0.180	-0.030
2020/01/31 04:31:49.2	92.470	0.240	-0.150	-0.020
2020/01/31 04:31:49.3	92.480	0.240	-0.110	-0.000
2020/01/31 04:31:49.4	92.490	0.250	-0.080	0.010
2020/01/31 04:31:49.5	92.500	0.250	-0.060	0.030
2020/01/31 04:31:49.6	92.500	0.250	-0.030	0.050
2020/01/31 04:31:49.7	92.510	0.260	-0.020	0.060
2020/01/31 04:31:49.8	92.510	0.260	0.000	0.080
2020/01/31 04:31:49.9	92.520	0.260	0.010	0.090
2020/01/31 04:31:50.0	92.520	0.260	0.020	0.110
2020/01/31 04:31:50.1	92.520	0.260	0.030	0.120
2020/01/31 04:31:50.2	92.520	0.260	0.030	0.140
2020/01/31 04:31:50.3	92.520	0.250	0.030	0.150
2020/01/31 04:31:50.4	92.520	0.250	0.020	0.170
2020/01/31 04:31:50.5	92.510	0.250	0.010	0.180
2020/01/31 04:31:50.6	92.510	0.250	0.000	0.190
2020/01/31 04:31:50.7	92.500	0.240	-0.010	0.200
2020/01/31 04:31:50.8	92.490	0.240	-0.020	0.220
2020/01/31 04:31:50.9	92.490	0.230	-0.040	0.230
2020/01/31 04:31:51.0	92.480	0.230	-0.060	0.250
2020/01/31 04:31:51.1	92.460	0.220	-0.080	0.260
2020/01/31 04:31:51.2	92.450	0.220	-0.090	0.280
2020/01/31 04:31:51.3	92.440	0.210	-0.110	0.300
2020/01/31 04:31:51.4	92.420	0.210	-0.130	0.320
2020/01/31 04:31:51.5	92.400	0.200	-0.150	0.330
2020/01/31 04:31:51.6	92.390	0.200	-0.170	0.360
2020/01/31 04:31:51.7	92.370	0.190	-0.190	0.380
2020/01/31 04:31:51.8	92.350	0.190	-0.210	0.400
2020/01/31 04:31:51.9	92.330	0.180	-0.220	0.420
2020/01/31 04:31:52.0	92.310	0.180	-0.240	0.450
2020/01/31 04:31:52.1	92.290	0.180	-0.250	0.470
2020/01/31 04:31:52.2	92.270	0.180	-0.270	0.490
2020/01/31 04:31:52.3	92.260	0.170	-0.280	0.510
2020/01/31 04:31:52.4	92.240	0.170	-0.300	0.530
2020/01/31 04:31:52.5	92.230	0.170	-0.310	0.550
2020/01/31 04:31:52.6	92.220	0.170	-0.320	0.570
2020/01/31 04:31:52.7	92.210	0.170	-0.340	0.580
2020/01/31 04:31:52.8	92.210	0.170	-0.350	0.600
2020/01/31 04:31:52.9	92.200	0.170	-0.370	0.610
2020/01/31 04:31:53.0	92.200	0.180	-0.380	0.620
2020/01/31 04:31:53.1	92.210	0.180	-0.400	0.630
2020/01/31 04:31:53.2	92.210	0.180	-0.420	0.640
2020/01/31 04:31:53.3	92.220	0.190	-0.440	0.640
2020/01/31 04:31:53.4	92.230	0.190	-0.460	0.650
2020/01/31 04:31:53.5	92.240	0.200	-0.480	0.660
2020/01/31 04:31:53.6	92.250	0.210	-0.500	0.680
2020/01/31 04:31:53.7	92.260	0.210	-0.520	0.690
2020/01/31 04:31:53.8	92.280	0.220	-0.530	0.700
2020/01/31 04:31:53.9	92.290	0.220	-0.550	0.720
2020/01/31 04:31:54.0	92.300	0.230	-0.570	0.740
2020/01/31 04:31:54.1	92.310	0.230	-0.580	0.760
2020/01/31 04:31:54.2	92.320	0.230	-0.590	0.770
2020/01/31 04:31:54.3	92.340	0.230	-0.600	0.790
2020/01/31 04:31:54.4	92.350	0.230	-0.600	0.810
2020/01/31 04:31:54.5	92.360	0.230	-0.610	0.830
2020/01/31 04:31:54.6	92.370	0.230	-0.610	0.850
2020/01/31 04:31:54.7	92.380	0.220	-0.600	0.870
2020/01/31 04:31:54.8	92.390	0.210	-0.590	0.880
2020/01/31 04:31:54.9	92.400	0.200	-0.580	0.890
2020/01/31 04:31:55.0	92.410	0.180	-0.570	0.900
2020/01/31 04:31:55.1	92.420	0.170	-0.560	0.910
2020/01/31 04:31:55.2	92.430	0.150	-0.530	0.920
2020/01/31 04:31:55.3	92.440	0.130	-0.510	0.930
2020/01/31 04:31:55.4	92.440	0.110	-0.480	0.930
2020/01/31 04:31:55.5	92.450	0.080	-0.450	0.940
2020/01/31 04:31:55.6	92.460	0.060	-0.420	0.940
2020/01/31 04:31:55.7	92.460	0.030	-0.380	0.940
2020/01/31 04:31:55.8	92.470	0.000	-0.340	0.940
2020/01/31 04:31:55.9	92.480	-0.030	-0.300	0.950
2020/01/31 04:31:56.0	92.480	-0.060	-0.260	0.950
2020/01/31 04:31:56.1	92.480	-0.090	-0.210	0.950
2020/01/31 04:31:56.2	92.490	-0.120	-0.160	0.950
2020/01/31 04:31:56.3	92.490	-0.150	-0.110	0.960
2020/01/31 04:31:56.4	92.500	-0.190	-0.060	0.970
2020/01/31 04:31:56.5	92.510	-0.220	-0.010	0.970
2020/01/31 04:31:56.6	92.510	-0.250	0.040	0.980
2020/01/31 04:31:56.7	92.520	-0.280	0.090	0.990
2020/01/31 04:31:56.8	92.530	-0.310	0.130	1.000
2020/01/31 04:31:56.9	92.530	-0.340	0.180	1.000
2020/01/31 04:31:57.0	92.540	-0.370	0.230	1.010
2020/01/31 04:31:57.1	92.550	-0.390	0.270	1.020
2020/01/31 04:31:57.2	92.560	-0.420	0.310	1.020
2020/01/31 04:31:57.3	92.570	-0.440	0.350	1.020
2020/01/31 04:31:57.4	92.580	-0.460	0.380	1.020
2020/01/31 04:31:57.5	92.600	-0.480	0.410	1.010
2020/01/31 04:31:57.6	92.610	-0.490	0.440	1.000
2020/01/31 04:31:57.7	92.630	-0.500	0.460	0.980
2020/01/31 04:31:57.8	92.640	-0.510	0.470	0.970
2020/01/31 04:31:57.9	92.650	-0.520	0.480	0.940
2020/01/31 04:31:58.0	92.670	-0.520	0.490	0.920
2020/01/31 04:31:58.1	92.680	-0.530	0.480	0.890
2020/01/31 04:31:58.2	92.690	-0.520	0.480	0.860
2020/01/31 04:31:58.3	92.710	-0.520	0.460	0.820
2020/01/31 04:31:58.4	92.720	-0.510	0.450	0.780
2020/01/31 04:31:58.5	92.730	-0.500	0.430	0.740
2020/01/31 04:31:58.6	92.740	-0.490	0.400	0.700
2020/01/31 04:31:58.7	92.740	-0.470	0.370	0.660
2020/01/31 04:31:58.8	92.750	-0.460	0.330	0.620
2020/01/31 04:31:58.9	92.760	-0.440	0.290	0.580
2020/01/31 04:31:59.0	92.760	-0.410	0.250	0.530
2020/01/31 04:31:59.1	92.770	-0.390	0.200	0.490
2020/01/31 04:31:59.2	92.770	-0.360	0.150	0.450
2020/01/31 04:31:59.3	92.780	-0.340	0.100	0.420
2020/01/31 04:31:59.4	92.780	-0.310	0.040	0.380
2020/01/31 04:31:59.5	92.790	-0.280	-0.020	0.340
2020/01/31 04:31:59.6	92.790	-0.250	-0.080	0.310
2020/01/31 04:31:59.7	92.800	-0.210	-0.140	0.280
2020/01/31 04:31:59.8	92.800	-0.180	-0.200	0.250
2020/01/31 04:31:59.9	92.810	-0.150	-0.260	0.230
2020/01/31 04:32:00.0	92.820	-0.110	-0.320	0.200
2020/01/31 04:32:00.1	92.820	-0.080	-0.380	0.180
2020/01/31 04:32:00.2	92.830	-0.050	-0.440	0.160
2020/01/31 04:32:00.3	92.840	-0.010	-0.500	0.150
2020/01/31 04:32:00.4	92.850	0.020	-0.560	0.130
2020/01/31 04:32:00.5	92.860	0.050	-0.610	0.120
2020/01/31 04:32:00.6	92.870	0.080	-0.660	0.100
2020/01/31 04:32:00.7	92.880	0.110	-0.710	0.090
2020/01/31 04:32:00.8	92.890	0.140	-0.750	0.080
2020/01/31 04:32:00.9	92.900	0.170	-0.790	0.070
2020/01/31 04:32:01.0	92.910	0.190	-0.830	0.060
2020/01/31 04:32:01.1	92.920	0.220	-0.860	0.050
2020/01/31 04:32:01.2	92.930	0.240	-0.890	0.050
2020/01/31 04:32:01.3	92.940	0.270	-0.910	0.040
2020/01/31 04:32:01.4	92.950	0.290	-0.930	0.030
2020/01/31 04:32:01.5	92.950	0.310	-0.940	0.020
2020/01/31 04:32:01.6	92.960	0.330	-0.940	0.010
2020/01/31 04:32:01.7	92.970	0.350	-0.950	0.010
2020/01/31 04:32:01.8	92.970	0.360	-0.940	0.000
2020/01/31 04:32:01.9	92.970	0.380	-0.930	-0.000
2020/01/31 04:32:02.0	92.980	0.390	-0.920	-0.000
2020/01/31 04:32:02.1	92.980	0.400	-0.900	-0.010
2020/01/31 04:32:02.2	92.980	0.420	-0.880	-0.000
2020/01/31 04:32:02.3	92.980	0.430	-0.850	0.010
2020/01/31 04:32:02.4	92.970	0.440	-0.820	0.020
2020/01/31 04:32:02.5	92.970	0.440	-0.780	0.040
2020/01/31 04:32:02.6	92.960	0.450	-0.740	0.060
2020/01/31 04:32:02.7	92.950	0.450	-0.700	0.090
2020/01/31 04:32:02.8	92.940	0.460	-0.650	0.130
2020/01/31 04:32:02.9	92.930	0.460	-0.600	0.160
2020/01/31 04:32:03.0	92.910	0.450	-0.550	0.200
2020/01/31 04:32:03.1	92.900	0.450	-0.490	0.250
2020/01/31 04:32:03.2	92.880	0.440	-0.440	0.300
2020/01/31 04:32:03.3	92.870	0.440	-0.380	0.350
2020/01/31 04:32:03.4	92.860	0.430	-0.320	0.390
2020/01/31 04:32:03.5	92.840	0.410	-0.270	0.440
2020/01/31 04:32:03.6	92.830	0.400	-0.210	0.490
2020/01/31 04:32:03.7	92.810	0.380	-0.150	0.540
2020/01/31 04:32:03.8	92.800	0.360	-0.100	0.580
2020/01/31 04:32:03.9	92.790	0.340	-0.050	0.630
2020/01/31 04:32:04.0	92.780	0.310	-0.000	0.670
2020/01/31 04:32:04.1	92.770	0.290	0.050	0.710
2020/01/31 04:32:04.2	92.770	0.260	0.090	0.740
2020/01/31 04:32:04.3	92.760	0.230	0.130	0.770
2020/01/31 04:32:04.4	92.760	0.200	0.160	0.800
2020/01/31 04:32:04.5	92.760	0.170	0.190	0.830
2020/01/31 04:32:04.6	92.760	0.130	0.210	0.840
2020/01/31 04:32:04.7	92.770	0.100	0.230	0.860
2020/01/31 04:32:04.8	92.770	0.070	0.240	0.870
2020/01/31 04:32:04.9	92.780	0.040	0.250	0.880
2020/01/31 04:32:05.0	92.790	0.000	0.250	0.880
2020/01/31 04:32:05.1	92.800	-0.030	0.250	0.890
2020/01/31 04:32:05.2	92.820	-0.060	0.240	0.890
2020/01/31 04:32:05.3	92.830	-0.090	0.230	0.880
2020/01/31 04:32:05.4	92.840	-0.120	0.220	0.880
2020/01/31 04:32:05.5	92.850	-0.150	0.200	0.880
2020/01/31 04:32:05.6	92.870	-0.180	0.180	0.870
2020/01/31 04:32:05.7	92.880	-0.200	0.160	0.870
2020/01/31 04:32:05.8	92.900	-0.230	0.130	0.860
2020/01/31 04:32:05.9	92.910	-0.250	0.110	0.860
2020/01/31 04:32:06.0	92.930	-0.260	0.080	0.850
2020/01/31 04:32:06.1	92.950	-0.280	0.050	0.850
2020/01/31 04:32:06.2	92.960	-0.290	0.020	0.840
2020/01/31 04:32:06.3	92.980	-0.300	-0.010	0.840
2020/01/31 04:32:06.4	93.000	-0.310	-0.050	0.840
2020/01/31 04:32:06.5	93.010	-0.320	-0.080	0.830
2020/01/31 04:32:06.6	93.030	-0.320	-0.110	0.830
2020/01/31 04:32:06.7	93.050	-0.320	-0.150	0.820
2020/01/31 04:32:06.8	93.060	-0.310	-0.180	0.820
2020/01/31 04:32:06.9	93.080	-0.300	-0.220	0.810
2020/01/31 04:32:07.0	93.100	-0.290	-0.250	0.810
2020/01/31 04:32:07.1	93.120	-0.280	-0.290	0.800
2020/01/31 04:32:07.2	93.140	-0.270	-0.330	0.800
2020/01/31 04:32:07.3	93.160	-0.250	-0.360	0.800
2020/01/31 04:32:07.4	93.170	-0.230	-0.390	0.790
2020/01/31 04:32:07.5	93.190	-0.220	-0.420	0.790
2020/01/31 04:32:07.6	93.200	-0.200	-0.440	0.790
2020/01/31 04:32:07.7	93.220	-0.180	-0.460	0.790
2020/01/31 04:32:07.8	93.230	-0.160	-0.480	0.790
2020/01/31 04:32:07.9	93.240	-0.140	-0.500	0.800
2020/01/31 04:32:08.0	93.240	-0.120	-0.510	0.810
2020/01/31 04:32:08.1	93.240	-0.100	-0.510	0.810
2020/01/31 04:32:08.2	93.240	-0.090	-0.510	0.820
2020/01/31 04:32:08.3	93.240	-0.070	-0.500	0.830
2020/01/31 04:32:08.4	93.240	-0.060	-0.490	0.830
2020/01/31 04:32:08.5	93.240	-0.060	-0.480	0.840
2020/01/31 04:32:08.6	93.230	-0.050	-0.450	0.840
2020/01/31 04:32:08.7	93.230	-0.050	-0.430	0.840
2020/01/31 04:32:08.8	93.220	-0.050	-0.390	0.850
2020/01/31 04:32:08.9	93.210	-0.050	-0.360	0.850
2020/01/31 04:32:09.0	93.200	-0.060	-0.320	0.850
2020/01/31 04:32:09.1	93.190	-0.070	-0.270	0.850
2020/01/31 04:32:09.2	93.180	-0.080	-0.230	0.840
2020/01/31 04:32:09.3	93.170	-0.090	-0.180	0.840
2020/01/31 04:32:09.4	93.150	-0.110	-0.130	0.840
2020/01/31 04:32:09.5	93.140	-0.120	-0.080	0.830
2020/01/31 04:32:09.6	93.120	-0.140	-0.030	0.830
2020/01/31 04:32:09.7	93.110	-0.160	0.020	0.820
2020/01/31 04:32:09.8	93.090	-0.180	0.070	0.820
2020/01/31 04:32:09.9	93.080	-0.200	0.120	0.810
2020/01/31 04:32:10.0	93.060	-0.220	0.160	0.810
2020/01/31 04:32:10.1	93.050	-0.240	0.190	0.810
2020/01/31 04:32:10.2	93.040	-0.260	0.230	0.800
2020/01/31 04:32:10.3	93.020	-0.270	0.250	0.800
2020/01/31 04:32:10.4	93.010	-0.280	0.270	0.800
2020/01/31 04:32:10.5	93.000	-0.290	0.280	0.800
2020/01/31 04:32:10.6	92.990	-0.300	0.290	0.790
2020/01/31 04:32:10.7	92.980	-0.300	0.290	0.790
2020/01/31 04:32:10.8	92.970	-0.300	0.280	0.790
2020/01/31 04:32:10.9	92.960	-0.290	0.260	0.780
2020/01/31 04:32:11.0	92.950	-0.280	0.240	0.780
2020/01/31 04:32:11.1	92.940	-0.260	0.210	0.770
2020/01/31 04:32:11.2	92.940	-0.250	0.170	0.760
2020/01/31 04:32:11.3	92.930	-0.220	0.120	0.740
2020/01/31 04:32:11.4	92.930	-0.190	0.070	0.720
2020/01/31 04:32:11.5	92.920	-0.160	0.020	0.690
2020/01/31 04:32:11.6	92.920	-0.130	-0.040	0.660
2020/01/31 04:32:11.7	92.920	-0.090	-0.110	0.630
2020/01/31 04:32:11.8	92.920	-0.050	-0.170	0.590
2020/01/31 04:32:11.9	92.920	-0.000	-0.240	0.550
2020/01/31 04:32:12.0	92.920	0.040	-0.310	0.510
2020/01/31 04:32:12.1	92.920	0.090	-0.380	0.460
2020/01/31 04:32:12.2	92.920	0.140	-0.450	0.410
2020/01/31 04:32:12.3	92.920	0.190	-0.520	0.370
2020/01/31 04:32:12.4	92.920	0.240	-0.590	0.320
2020/01/31 04:32:12.5	92.910	0.300	-0.650	0.270
2020/01/31 04:32:12.6	92.910	0.350	-0.700	0.230
2020/01/31 04:32:12.7	92.910	0.390	-0.760	0.190
2020/01/31 04:32:12.8	92.910	0.440	-0.800	0.150
2020/01/31 04:32:12.9	92.910	0.490	-0.840	0.120
2020/01/31 04:32:13.0	92.910	0.530	-0.880	0.090
2020/01/31 04:32:13.1	92.910	0.570	-0.900	0.060
2020/01/31 04:32:13.2	92.910	0.610	-0.920	0.050
2020/01/31 04:32:13.3	92.900	0.640	-0.930	0.030
2020/01/31 04:32:13.4	92.900	0.670	-0.940	0.030
2020/01/31 04:32:13.5	92.900	0.690	-0.940	0.020
2020/01/31 04:32:13.6	92.900	0.710	-0.920	0.020
2020/01/31 04:32:13.7	92.900	0.730	-0.900	0.030
2020/01/31 04:32:13.8	92.900	0.730	-0.880	0.040
2020/01/31 04:32:13.9	92.900	0.740	-0.840	0.050
2020/01/31 04:32:14.0	92.900	0.740	-0.800	0.070
2020/01/31 04:32:14.1	92.900	0.730	-0.750	0.090
2020/01/31 04:32:14.2	92.900	0.720	-0.700	0.110
2020/01/31 04:32:14.3	92.900	0.700	-0.640	0.140
2020/01/31 04:32:14.4	92.900	0.680	-0.570	0.160
2020/01/31 04:32:14.5	92.910	0.650	-0.510	0.180
2020/01/31 04:32:14.6	92.910	0.620	-0.430	0.200
2020/01/31 04:32:14.7	92.910	0.580	-0.360	0.220
2020/01/31 04:32:14.8	92.920	0.540	-0.280	0.250
2020/01/31 04:32:14.9	92.930	0.500	-0.210	0.270
2020/01/31 04:32:15.0	92.930	0.450	-0.130	0.290
2020/01/31 04:32:15.1	92.940	0.400	-0.050	0.310
2020/01/31 04:32:15.2	92.950	0.350	0.020	0.340
2020/01/31 04:32:15.3	92.960	0.290	0.090	0.360
2020/01/31 04:32:15.4	92.970	0.240	0.150	0.380
2020/01/31 04:32:15.5	92.980	0.180	0.210	0.410
2020/01/31 04:32:15.6	92.990	0.130	0.270	0.430
2020/01/31 04:32:15.7	92.990	0.070	0.310	0.460
2020/01/31 04:32:15.8	93.000	0.020	0.350	0.480
2020/01/31 04:32:15.9	93.010	-0.040	0.390	0.510
2020/01/31 04:32:16.0	93.020	-0.090	0.420	0.530
2020/01/31 04:32:16.1	93.030	-0.140	0.430	0.560
2020/01/31 04:32:16.2	93.040	-0.180	0.450	0.590
2020/01/31 04:32:16.3	93.040	-0.230	0.450	0.620
2020/01/31 04:32:16.4	93.050	-0.270	0.440	0.640
2020/01/31 04:32:16.5	93.050	-0.310	0.430	0.670
2020/01/31 04:32:16.6	93.060	-0.340	0.410	0.700
2020/01/31 04:32:16.7	93.060	-0.380	0.390	0.720
2020/01/31 04:32:16.8	93.060	-0.410	0.350	0.750
2020/01/31 04:32:16.9	93.060	-0.430	0.310	0.770
2020/01/31 04:32:17.0	93.060	-0.450	0.260	0.790
2020/01/31 04:32:17.1	93.060	-0.470	0.210	0.810
2020/01/31 04:32:17.2	93.060	-0.480	0.160	0.830
2020/01/31 04:32:17.3	93.060	-0.490	0.100	0.850
2020/01/31 04:32:17.4	93.050	-0.500	0.040	0.870
2020/01/31 04:32:17.5	93.050	-0.500	-0.030	0.890
2020/01/31 04:32:17.6	93.040	-0.510	-0.090	0.910
2020/01/31 04:32:17.7	93.030	-0.500	-0.160	0.930
2020/01/31 04:32:17.8	93.020	-0.500	-0.220	0.950
2020/01/31 04:32:17.9	93.010	-0.490	-0.280	0.980
2020/01/31 04:32:18.0	92.990	-0.490	-0.340	1.000
2020/01/31 04:32:18.1	92.980	-0.480	-0.390	1.030
2020/01/31 04:32:18.2	92.960	-0.470	-0.440	1.060
2020/01/31 04:32:18.3	92.930	-0.450	-0.480	1.100
2020/01/31 04:32:18.4	92.910	-0.440	-0.520	1.130
2020/01/31 04:32:18.5	92.890	-0.430	-0.550	1.170
2020/01/31 04:32:18.6	92.860	-0.410	-0.570	1.210
2020/01/31 04:32:18.7	92.830	-0.400	-0.580	1.250
2020/01/31 04:32:18.8	92.810	-0.380	-0.590	1.290
2020/01/31 04:32:18.9	92.780	-0.370	-0.590	1.330
2020/01/31 04:32:19.0	92.750	-0.360	-0.580	1.380
2020/01/31 04:32:19.1	92.720	-0.340	-0.570	1.420
2020/01/31 04:32:19.2	92.700	-0.330	-0.550	1.460
2020/01/31 04:32:19.3	92.670	-0.310	-0.530	1.490
2020/01/31 04:32:19.4	92.650	-0.300	-0.500	1.520
2020/01/31 04:32:19.5	92.630	-0.290	-0.470	1.550
2020/01/31 04:32:19.6	92.610	-0.280	-0.430	1.570
2020/01/31 04:32:19.7	92.590	-0.270	-0.400	1.580
2020/01/31 04:32:19.8	92.580	-0.260	-0.360	1.590
2020/01/31 04:32:19.9	92.570	-0.240	-0.320	1.590
2020/01/31 04:32:20.0	92.560	-0.230	-0.290	1.580
2020/01/31 04:32:20.1	92.560	-0.220	-0.260	1.570
2020/01/31 04:32:20.2	92.560	-0.210	-0.230	1.550
2020/01/31 04:32:20.3	92.560	-0.200	-0.200	1.520
2020/01/31 04:32:20.4	92.570	-0.180	-0.190	1.480
2020/01/31 04:32:20.5	92.570	-0.170	-0.170	1.440
2020/01/31 04:32:20.6	92.580	-0.150	-0.170	1.380
2020/01/31 04:32:20.7	92.590	-0.130	-0.170	1.330
2020/01/31 04:32:20.8	92.600	-0.110	-0.180	1.270
2020/01/31 04:32:20.9	92.610	-0.090	-0.190	1.210
2020/01/31 04:32:21.0	92.620	-0.070	-0.210	1.140
2020/01/31 04:32:21.1	92.630	-0.040	-0.230	1.070
2020/01/31 04:32:21.2	92.640	-0.020	-0.260	1.000
2020/01/31 04:32:21.3	92.650	0.010	-0.290	0.940
2020/01/31 04:32:21.4	92.650	0.040	-0.330	0.870
2020/01/31 04:32:21.5	92.660	0.070	-0.370	0.800
2020/01/31 04:32:21.6	92.660	0.100	-0.410	0.740
2020/01/31 04:32:21.7	92.660	0.130	-0.450	0.680
2020/01/31 04:32:21.8	92.660	0.160	-0.490	0.620
2020/01/31 04:32:21.9	92.650	0.190	-0.530	0.560
2020/01/31 04:32:22.0	92.650	0.230	-0.570	0.510
2020/01/31 04:32:22.1	92.640	0.260	-0.610	0.460
2020/01/31 04:32:22.2	92.630	0.290	-0.640	0.410
2020/01/31 04:32:22.3	92.620	0.310	-0.660	0.370
2020/01/31 04:32:22.4	92.610	0.340	-0.680	0.320
2020/01/31 04:32:22.5	92.600	0.360	-0.700	0.280
2020/01/31 04:32:22.6	92.600	0.390	-0.700	0.250
2020/01/31 04:32:22.7	92.590	0.410	-0.710	0.210
2020/01/31 04:32:22.8	92.580	0.430	-0.700	0.180
2020/01/31 04:32:22.9	92.570	0.440	-0.690	0.160
2020/01/31 04:32:23.0	92.560	0.450	-0.670	0.130
2020/01/31 04:32:23.1	92.560	0.460	-0.640	0.110
2020/01/31 04:32:23.2	92.550	0.460	-0.610	0.090
2020/01/31 04:32:23.3	92.550	0.460	-0.570	0.080
2020/01/31 04:32:23.4	92.550	0.460	-0.530	0.060
2020/01/31 04:32:23.5	92.540	0.460	-0.480	0.050
2020/01/31 04:32:23.6	92.540	0.440	-0.430	0.050
2020/01/31 04:32:23.7	92.540	0.430	-0.370	0.050
2020/01/31 04:32:23.8	92.540	0.410	-0.310	0.050
2020/01/31 04:32:23.9	92.540	0.390	-0.250	0.060
2020/01/31 04:32:24.0	92.540	0.370	-0.180	0.060
2020/01/31 04:32:24.1	92.540	0.340	-0.120	0.080
2020/01/31 04:32:24.2	92.540	0.310	-0.050	0.090
2020/01/31 04:32:24.3	92.540	0.280	0.020	0.110
2020/01/31 04:32:24.4	92.540	0.240	0.090	0.130
2020/01/31 04:32:24.5	92.540	0.210	0.160	0.150
2020/01/31 04:32:24.6	92.540	0.170	0.220	0.170
2020/01/31 04:32:24.7	92.540	0.130	0.290	0.200
2020/01/31 04:32:24.8	92.540	0.090	0.350	0.220
2020/01/31 04:32:24.9	92.540	0.050	0.400	0.250
2020/01/31 04:32:25.0	92.550	0.010	0.460	0.280
2020/01/31 04:32:25.1	92.550	-0.030	0.500	0.310
2020/01/31 04:32:25.2	92.550	-0.070	0.540	0.340
2020/01/31 04:32:25.3	92.550	-0.110	0.580	0.360
2020/01/31 04:32:25.4	92.560	-0.150	0.610	0.390
2020/01/31 04:32:25.5	92.560	-0.180	0.630	0.420
2020/01/31 04:32:25.6	92.570	-0.220	0.640	0.440
2020/01/31 04:32:25.7	92.570	-0.250	0.640	0.470
2020/01/31 04:32:25.8	92.580	-0.270	0.640	0.490
2020/01/31 04:32:25.9	92.590	-0.300	0.630	0.500
2020/01/31 04:32:26.0	92.600	-0.320	0.610	0.520
2020/01/31 04:32:26.1	92.610	-0.340	0.590	0.540
2020/01/31 04:32:26.2	92.620	-0.350	0.560	0.550
2020/01/31 04:32:26.3	92.630	-0.360	0.520	0.560
2020/01/31 04:32:26.4	92.630	-0.370	0.470	0.570
2020/01/31 04:32:26.5	92.640	-0.370	0.420	0.580
2020/01/31 04:32:26.6	92.650	-0.380	0.370	0.600
2020/01/31 04:32:26.7	92.650	-0.370	0.310	0.610
2020/01/31 04:32:26.8	92.660	-0.370	0.240	0.620
2020/01/31 04:32:26.9	92.660	-0.360	0.170	0.640
2020/01/31 04:32:27.0	92.660	-0.350	0.100	0.660
2020/01/31 04:32:27.1	92.650	-0.330	0.030	0.670
2020/01/31 04:32:27.2	92.650	-0.320	-0.040	0.700
2020/01/31 04:32:27.3	92.640	-0.300	-0.120	0.720
2020/01/31 04:32:27.4	92.630	-0.280	-0.190	0.750
2020/01/31 04:32:27.5	92.620	-0.250	-0.260	0.770
2020/01/31 04:32:27.6	92.610	-0.230	-0.340	0.800
2020/01/31 04:32:27.7	92.600	-0.200	-0.410	0.830
2020/01/31 04:32:27.8	92.590	-0.170	-0.480	0.850
2020/01/31 04:32:27.9	92.580	-0.150	-0.540	0.880
2020/01/31 04:32:28.0	92.570	-0.120	-0.610	0.910
2020/01/31 04:32:28.1	92.570	-0.090	-0.660	0.930
2020/01/31 04:32:28.2	92.560	-0.060	-0.720	0.960
2020/01/31 04:32:28.3	92.550	-0.030	-0.770	0.980
2020/01/31 04:32:28.4	92.550	-0.000	-0.810	1.000
2020/01/31 04:32:28.5	92.540	0.020	-0.850	1.020
2020/01/31 04:32:28.6	92.540	0.050	-0.890	1.040
2020/01/31 04:32:28.7	92.540	0.080	-0.920	1.060
2020/01/31 04:32:28.8	92.540	0.100	-0.940	1.070
2020/01/31 04:32:28.9	92.540	0.120	-0.960	1.080
2020/01/31 04:32:29.0	92.550	0.140	-0.980	1.100
2020/01/31 04:32:29.1	92.550	0.160	-0.980	1.110
2020/01/31 04:32:29.2	92.550	0.180	-0.990	1.110
2020/01/31 04:32:29.3	92.560	0.200	-0.980	1.120
2020/01/31 04:32:29.4	92.560	0.210	-0.970	1.120
2020/01/31 04:32:29.5	92.570	0.220	-0.960	1.130
2020/01/31 04:32:29.6	92.570	0.230	-0.940	1.130
2020/01/31 04:32:29.7	92.570	0.240	-0.920	1.120
2020/01/31 04:32:29.8	92.580	0.250	-0.890	1.120
2020/01/31 04:32:29.9	92.580	0.250	-0.860	1.110
2020/01/31 04:32:30.0	92.580	0.250	-0.820	1.100
2020/01/31 04:32:30.1	92.590	0.250	-0.770	1.090
2020/01/31 04:32:30.2	92.590	0.250	-0.730	1.070
2020/01/31 04:32:30.3	92.590	0.240	-0.680	1.050
2020/01/31 04:32:30.4	92.590	0.230	-0.620	1.030
2020/01/31 04:32:30.5	92.590	0.230	-0.560	1.010
2020/01/31 04:32:30.6	92.600	0.220	-0.500	0.980
2020/01/31 04:32:30.7	92.600	0.200	-0.440	0.950
2020/01/31 04:32:30.8	92.600	0.190	-0.370	0.930
2020/01/31 04:32:30.9	92.600	0.170	-0.310	0.900
2020/01/31 04:32:31.0	92.600	0.150	-0.240	0.870
2020/01/31 04:32:31.1	92.600	0.140	-0.170	0.840
2020/01/31 04:32:31.2	92.610	0.120	-0.100	0.810
2020/01/31 04:32:31.3	92.610	0.090	-0.040	0.780
2020/01/31 04:32:31.4	92.610	0.070	0.030	0.750
2020/01/31 04:32:31.5	92.610	0.050	0.090	0.720
2020/01/31 04:32:31.6	92.610	0.030	0.150	0.690
2020/01/31 04:32:31.7	92.600	0.010	0.200	0.670
2020/01/31 04:32:31.8	92.600	-0.020	0.250	0.650
2020/01/31 04:32:31.9	92.600	-0.040	0.290	0.630
2020/01/31 04:32:32.0	92.600	-0.060	0.330	0.620
2020/01/31 04:32:32.1	92.590	-0.080	0.360	0.600
2020/01/31 04:32:32.2	92.590	-0.090	0.380	0.590
2020/01/31 04:32:32.3	92.580	-0.110	0.400	0.590
2020/01/31 04:32:32.4	92.570	-0.120	0.410	0.580
2020/01/31 04:32:32.5	92.560	-0.140	0.410	0.580
2020/01/31 04:32:32.6	92.550	-0.140	0.390	0.580
2020/01/31 04:32:32.7	92.540	-0.150	0.380	0.580
2020/01/31 04:32:32.8	92.530	-0.160	0.350	0.580
2020/01/31 04:32:32.9	92.520	-0.160	0.310	0.580
2020/01/31 04:32:33.0	92.520	-0.160	0.270	0.580
2020/01/31 04:32:33.1	92.510	-0.150	0.220	0.590
2020/01/31 04:32:33.2	92.500	-0.140	0.170	0.590
2020/01/31 04:32:33.3	92.490	-0.130	0.110	0.590
2020/01/31 04:32:33.4	92.480	-0.120	0.040	0.590
2020/01/31 04:32:33.5	92.480	-0.110	-0.030	0.580
2020/01/31 04:32:33.6	92.470	-0.090	-0.100	0.580
2020/01/31 04:32:33.7	92.460	-0.070	-0.180	0.570
2020/01/31 04:32:33.8	92.460	-0.050	-0.250	0.570
2020/01/31 04:32:33.9	92.450	-0.030	-0.330	0.560
2020/01/31 04:32:34.0	92.450	-0.010	-0.400	0.550
2020/01/31 04:32:34.1	92.440	0.010	-0.470	0.540
2020/01/31 04:32:34.2	92.440	0.040	-0.530	0.530
2020/01/31 04:32:34.3	92.440	0.060	-0.590	0.520
2020/01/31 04:32:34.4	92.440	0.080	-0.650	0.510
2020/01/31 04:32:34.5	92.440	0.110	-0.700	0.510
2020/01/31 04:32:34.6	92.440	0.130	-0.740	0.500
2020/01/31 04:32:34.7	92.440	0.150	-0.780	0.500
2020/01/31 04:32:34.8	92.440	0.170	-0.810	0.500
2020/01/31 04:32:34.9	92.440	0.180	-0.830	0.500
2020/01/31 04:32:35.0	92.440	0.200	-0.840	0.500
2020/01/31 04:32:35.1	92.430	0.210	-0.850	0.510
2020/01/31 04:32:35.2	92.430	0.220	-0.840	0.520
2020/01/31 04:32:35.3	92.430	0.230	-0.830	0.540
2020/01/31 04:32:35.4	92.430	0.230	-0.810	0.550
2020/01/31 04:32:35.5	92.430	0.240	-0.780	0.570
2020/01/31 04:32:35.6	92.430	0.230	-0.750	0.590
2020/01/31 04:32:35.7	92.430	0.230	-0.710	0.620
2020/01/31 04:32:35.8	92.430	0.220	-0.660	0.640
2020/01/31 04:32:35.9	92.430	0.210	-0.610	0.670
2020/01/31 04:32:36.0	92.430	0.200	-0.550	0.700
2020/01/31 04:32:36.1	92.430	0.180	-0.500	0.730
2020/01/31 04:32:36.2	92.430	0.160	-0.430	0.760
2020/01/31 04:32:36.3	92.420	0.130	-0.370	0.790
2020/01/31 04:32:36.4	92.420	0.110	-0.300	0.820
2020/01/31 04:32:36.5	92.420	0.080	-0.230	0.850
2020/01/31 04:32:36.6	92.420	0.050	-0.160	0.880
2020/01/31 04:32:36.7	92.410	0.020	-0.100	0.910
2020/01/31 04:32:36.8	92.410	-0.010	-0.030	0.940
2020/01/31 04:32:36.9	92.410	-0.040	0.030	0.970
2020/01/31 04:32:37.0	92.400	-0.070	0.090	0.990
2020/01/31 04:32:37.1	92.400	-0.100	0.150	1.020
2020/01/31 04:32:37.2	92.390	-0.130	0.210	1.040
2020/01/31 04:32:37.3	92.390	-0.160	0.260	1.060
2020/01/31 04:32:37.4	92.390	-0.190	0.300	1.080
2020/01/31 04:32:37.5	92.380	-0.220	0.340	1.100
2020/01/31 04:32:37.6	92.370	-0.250	0.370	1.110
2020/01/31 04:32:37.7	92.370	-0.270	0.390	1.120
2020/01/31 04:32:37.8	92.360	-0.290	0.410	1.130
2020/01/31 04:32:37.9	92.360	-0.310	0.420	1.140
2020/01/31 04:32:38.0	92.350	-0.330	0.430	1.150
2020/01/31 04:32:38.1	92.350	-0.340	0.430	1.160
2020/01/31 04:32:38.2	92.350	-0.350	0.420	1.160
2020/01/31 04:32:38.3	92.340	-0.350	0.410	1.160
2020/01/31 04:32:38.4	92.340	-0.360	0.390	1.160
2020/01/31 04:32:38.5	92.330	-0.360	0.360	1.160
2020/01/31 04:32:38.6	92.330	-0.350	0.320	1.160
2020/01/31 04:32:38.7	92.330	-0.340	0.280	1.150
2020/01/31 04:32:38.8	92.330	-0.330	0.230	1.150
2020/01/31 04:32:38.9	92.330	-0.310	0.180	1.140
2020/01/31 04:32:39.0	92.330	-0.290	0.120	1.130
2020/01/31 04:32:39.1	92.340	-0.270	0.060	1.120
2020/01/31 04:32:39.2	92.340	-0.250	-0.010	1.110
2020/01/31 04:32:39.3	92.350	-0.220	-0.080	1.100
2020/01/31 04:32:39.4	92.360	-0.190	-0.150	1.080
2020/01/31 04:32:39.5	92.360	-0.150	-0.230	1.070
2020/01/31 04:32:39.6	92.370	-0.120	-0.310	1.050
2020/01/31 04:32:39.7	92.380	-0.080	-0.390	1.030
2020/01/31 04:32:39.8	92.380	-0.040	-0.460	1.010
2020/01/31 04:32:39.9	92.390	-0.000	-0.540	0.990
2020/01/31 04:32:40.0	92.400	0.030	-0.610	0.970
2020/01/31 04:32:40.1	92.410	0.070	-0.680	0.950
2020/01/31 04:32:40.2	92.420	0.110	-0.740	0.920
2020/01/31 04:32:40.3	92.430	0.150	-0.790	0.900
2020/01/31 04:32:40.4	92.440	0.180	-0.840	0.870
2020/01/31 04:32:40.5	92.450	0.210	-0.880	0.840
2020/01/31 04:32:40.6	92.460	0.240	-0.910	0.810
2020/01/31 04:32:40.7	92.470	0.270	-0.930	0.780
2020/01/31 04:32:40.8	92.480	0.290	-0.940	0.750
2020/01/31 04:32:40.9	92.480	0.310	-0.940	0.730
2020/01/31 04:32:41.0	92.490	0.320	-0.930	0.700
2020/01/31 04:32:41.1	92.490	0.330	-0.910	0.680
2020/01/31 04:32:41.2	92.490	0.340	-0.880	0.650
2020/01/31 04:32:41.3	92.490	0.340	-0.840	0.630
2020/01/31 04:32:41.4	92.490	0.330	-0.780	0.620
2020/01/31 04:32:41.5	92.490	0.320	-0.720	0.600
2020/01/31 04:32:41.6	92.480	0.310	-0.650	0.590
2020/01/31 04:32:41.7	92.480	0.290	-0.570	0.590
2020/01/31 04:32:41.8	92.470	0.270	-0.480	0.580
2020/01/31 04:32:41.9	92.470	0.240	-0.390	0.580
2020/01/31 04:32:42.0	92.460	0.210	-0.300	0.580
2020/01/31 04:32:42.1	92.450	0.180	-0.190	0.590
2020/01/31 04:32:42.2	92.440	0.140	-0.090	0.600
2020/01/31 04:32:42.3	92.440	0.100	0.010	0.600
2020/01/31 04:32:42.4	92.430	0.060	0.120	0.610
2020/01/31 04:32:42.5	92.420	0.010	0.220	0.620
2020/01/31 04:32:42.6	92.410	-0.030	0.310	0.630
2020/01/31 04:32:42.7	92.400	-0.080	0.410	0.640
2020/01/31 04:32:42.8	92.390	-0.130	0.490	0.650
2020/01/31 04:32:42.9	92.380	-0.180	0.570	0.660
2020/01/31 04:32:43.0	92.380	-0.220	0.640	0.670
2020/01/31 04:32:43.1	92.370	-0.270	0.700	0.680
2020/01/31 04:32:43.2	92.370	-0.310	0.750	0.680
2020/01/31 04:32:43.3	92.360	-0.350	0.790	0.680
2020/01/31 04:32:43.4	92.360	-0.390	0.820	0.680
2020/01/31 04:32:43.5	92.350	-0.430	0.840	0.680
2020/01/31 04:32:43.6	92.350	-0.460	0.840	0.680
2020/01/31 04:32:43.7	92.350	-0.480	0.820	0.680
2020/01/31 04:32:43.8	92.340	-0.500	0.800	0.670
2020/01/31 04:32:43.9	92.340	-0.510	0.750	0.660
2020/01/31 04:32:44.0	92.340	-0.520	0.700	0.660
2020/01/31 04:32:44.1	92.350	-0.520	0.630	0.640
2020/01/31 04:32:44.2	92.350	-0.510	0.550	0.630
2020/01/31 04:32:44.3	92.350	-0.500	0.460	0.620
2020/01/31 04:32:44.4	92.350	-0.480	0.350	0.610
2020/01/31 04:32:44.5	92.360	-0.450	0.240	0.610
2020/01/31 04:32:44.6	92.360	-0.420	0.120	0.600
2020/01/31 04:32:44.7	92.360	-0.390	-0.010	0.590
2020/01/31 04:32:44.8	92.360	-0.340	-0.140	0.590
2020/01/31 04:32:44.9	92.360	-0.300	-0.280	0.590
2020/01/31 04:32:45.0	92.350	-0.250	-0.410	0.590
2020/01/31 04:32:45.1	92.350	-0.200	-0.550	0.600
2020/01/31 04:32:45.2	92.340	-0.140	-0.680	0.610
2020/01/31 04:32:45.3	92.330	-0.090	-0.800	0.620
2020/01/31 04:32:45.4	92.320	-0.030	-0.920	0.630
2020/01/31 04:32:45.5	92.300	0.020	-1.030	0.650
2020/01/31 04:32:45.6	92.290	0.080	-1.130	0.660
2020/01/31 04:32:45.7	92.270	0.130	-1.210	0.680
2020/01/31 04:32:45.8	92.250	0.180	-1.290	0.700
2020/01/31 04:32:45.9	92.230	0.220	-1.350	0.720
2020/01/31 04:32:46.0	92.200	0.260	-1.400	0.740
2020/01/31 04:32:46.1	92.180	0.300	-1.440	0.770
2020/01/31 04:32:46.2	92.150	0.340	-1.460	0.800
2020/01/31 04:32:46.3	92.120	0.360	-1.470	0.820
2020/01/31 04:32:46.4	92.090	0.390	-1.460	0.850
2020/01/31 04:32:46.5	92.060	0.400	-1.450	0.880
2020/01/31 04:32:46.6	92.030	0.410	-1.410	0.910
2020/01/31 04:32:46.7	91.990	0.420	-1.370	0.940
2020/01/31 04:32:46.8	91.960	0.420	-1.310	0.970
2020/01/31 04:32:46.9	91.930	0.410	-1.250	0.990
2020/01/31 04:32:47.0	91.900	0.400	-1.170	1.020
2020/01/31 04:32:47.1	91.870	0.390	-1.090	1.050
2020/01/31 04:32:47.2	91.840	0.370	-1.000	1.080
2020/01/31 04:32:47.3	91.810	0.350	-0.900	1.100
2020/01/31 04:32:47.4	91.780	0.320	-0.800	1.130
2020/01/31 04:32:47.5	91.750	0.290	-0.700	1.150
2020/01/31 04:32:47.6	91.730	0.250	-0.590	1.180
2020/01/31 04:32:47.7	91.710	0.220	-0.490	1.200
2020/01/31 04:32:47.8	91.690	0.180	-0.380	1.210
2020/01/31 04:32:47.9	91.670	0.140	-0.280	1.230
2020/01/31 04:32:48.0	91.660	0.100	-0.180	1.240
2020/01/31 04:32:48.1	91.650	0.070	-0.080	1.250
2020/01/31 04:32:48.2	91.640	0.030	0.020	1.250
2020/01/31 04:32:48.3	91.640	-0.010	0.100	1.250
2020/01/31 04:32:48.4	91.640	-0.040	0.180	1.240
2020/01/31 04:32:48.5	91.640	-0.070	0.240	1.230
2020/01/31 04:32:48.6	91.640	-0.100	0.310	1.220
2020/01/31 04:32:48.7	91.650	-0.120	0.360	1.210
2020/01/31 04:32:48.8	91.660	-0.150	0.400	1.180
2020/01/31 04:32:48.9	91.670	-0.160	0.430	1.160
2020/01/31 04:32:49.0	91.680	-0.180	0.460	1.140
2020/01/31 04:32:49.1	91.690	-0.190	0.470	1.110
2020/01/31 04:32:49.2	91.710	-0.190	0.480	1.080
2020/01/31 04:32:49.3	91.720	-0.200	0.480	1.050
2020/01/31 04:32:49.4	91.730	-0.200	0.480	1.020
2020/01/31 04:32:49.5	91.740	-0.190	0.460	0.990
2020/01/31 04:32:49.6	91.750	-0.190	0.440	0.960
2020/01/31 04:32:49.7	91.760	-0.180	0.420	0.920
2020/01/31 04:32:49.8	91.770	-0.170	0.390	0.890
2020/01/31 04:32:49.9	91.770	-0.150	0.360	0.860
2020/01/31 04:32:50.0	91.780	-0.130	0.320	0.830
2020/01/31 04:32:50.1	91.780	-0.120	0.280	0.800
2020/01/31 04:32:50.2	91.780	-0.100	0.240	0.770
2020/01/31 04:32:50.3	91.770	-0.070	0.210	0.740
2020/01/31 04:32:50.4	91.770	-0.050	0.170	0.710
2020/01/31 04:32:50.5	91.760	-0.030	0.130	0.680
2020/01/31 04:32:50.6	91.760	-0.010	0.090	0.650
2020/01/31 04:32:50.7	91.740	0.010	0.060	0.620
2020/01/31 04:32:50.8	91.730	0.030	0.020	0.590
2020/01/31 04:32:50.9	91.720	0.060	-0.010	0.570
2020/01/31 04:32:51.0	91.700	0.070	-0.030	0.540
2020/01/31 04:32:51.1	91.690	0.090	-0.050	0.520
2020/01/31 04:32:51.2	91.670	0.110	-0.070	0.500
2020/01/31 04:32:51.3	91.650	0.130	-0.090	0.490
2020/01/31 04:32:51.4	91.630	0.140	-0.100	0.470
2020/01/31 04:32:51.5	91.610	0.150	-0.120	0.460
2020/01/31 04:32:51.6	91.590	0.170	-0.120	0.450
2020/01/31 04:32:51.7	91.570	0.180	-0.130	0.440
2020/01/31 04:32:51.8	91.550	0.190	-0.140	0.440
2020/01/31 04:32:51.9	91.520	0.190	-0.140	0.430
2020/01/31 04:32:52.0	91.500	0.200	-0.140	0.430
2020/01/31 04:32:52.1	91.490	0.210	-0.140	0.440
2020/01/31 04:32:52.2	91.470	0.210	-0.140	0.440
2020/01/31 04:32:52.3	91.450	0.220	-0.150	0.450
2020/01/31 04:32:52.4	91.430	0.220	-0.150	0.450
2020/01/31 04:32:52.5	91.420	0.220	-0.150	0.460
2020/01/31 04:32:52.6	91.400	0.230	-0.160	0.460
2020/01/31 04:32:52.7	91.390	0.230	-0.170	0.470
2020/01/31 04:32:52.8	91.390	0.240	-0.180	0.470
2020/01/31 04:32:52.9	91.380	0.240	-0.190	0.470
2020/01/31 04:32:53.0	91.380	0.250	-0.210	0.480
2020/01/31 04:32:53.1	91.380	0.260	-0.230	0.480
2020/01/31 04:32:53.2	91.380	0.260	-0.250	0.480
2020/01/31 04:32:53.3	91.380	0.270	-0.270	0.480
2020/01/31 04:32:53.4	91.390	0.280	-0.300	0.480
2020/01/31 04:32:53.5	91.400	0.290	-0.320	0.490
2020/01/31 04:32:53.6	91.400	0.300	-0.350	0.490
2020/01/31 04:32:53.7	91.410	0.310	-0.380	0.500
2020/01/31 04:32:53.8	91.420	0.320	-0.400	0.500
2020/01/31 04:32:53.9	91.420	0.320	-0.430	0.510
2020/01/31 04:32:54.0	91.430	0.330	-0.460	0.520
2020/01/31 04:32:54.1	91.440	0.340	-0.480	0.530
2020/01/31 04:32:54.2	91.440	0.340	-0.510	0.540
2020/01/31 04:32:54.3	91.450	0.350	-0.520	0.550
2020/01/31 04:32:54.4	91.450	0.350	-0.540	0.560
2020/01/31 04:32:54.5	91.460	0.350	-0.560	0.570
2020/01/31 04:32:54.6	91.460	0.340	-0.570	0.580
2020/01/31 04:32:54.7	91.460	0.340	-0.570	0.590
2020/01/31 04:32:54.8	91.460	0.330	-0.580	0.600
2020/01/31 04:32:54.9	91.460	0.320	-0.580	0.610
2020/01/31 04:32:55.0	91.460	0.310	-0.570	0.630
2020/01/31 04:32:55.1	91.460	0.290	-0.560	0.650
2020/01/31 04:32:55.2	91.460	0.270	-0.550	0.660
2020/01/31 04:32:55.3	91.450	0.250	-0.540	0.680
2020/01/31 04:32:55.4	91.450	0.230	-0.520	0.710
2020/01/31 04:32:55.5	91.450	0.200	-0.500	0.730
2020/01/31 04:32:55.6	91.440	0.170	-0.470	0.760
2020/01/31 04:32:55.7	91.430	0.140	-0.450	0.790
2020/01/31 04:32:55.8	91.420	0.110	-0.410	0.830
2020/01/31 04:32:55.9	91.420	0.070	-0.380	0.860
2020/01/31 04:32:56.0	91.410	0.040	-0.340	0.900
2020/01/31 04:32:56.1	91.400	-0.000	-0.310	0.950
2020/01/31 04:32:56.2	91.390	-0.040	-0.270	0.990
2020/01/31 04:32:56.3	91.380	-0.080	-0.230	1.040
2020/01/31 04:32:56.4	91.370	-0.120	-0.190	1.090
2020/01/31 04:32:56.5	91.360	-0.160	-0.150	1.140
2020/01/31 04:32:56.6	91.350	-0.210	-0.110	1.190
2020/01/31 04:32:56.7	91.340	-0.250	-0.070	1.240
2020/01/31 04:32:56.8	91.330	-0.290	-0.030	1.290
2020/01/31 04:32:56.9	91.310	-0.330	0.010	1.340
2020/01/31 04:32:57.0	91.300	-0.370	0.050	1.390
2020/01/31 04:32:57.1	91.290	-0.410	0.080	1.440
2020/01/31 04:32:57.2	91.270	-0.450	0.110	1.490
2020/01/31 04:32:57.3	91.260	-0.490	0.140	1.540
2020/01/31 04:32:57.4	91.240	-0.520	0.170	1.590
2020/01/31 04:32:57.5	91.230	-0.550	0.190	1.630
2020/01/31 04:32:57.6	91.220	-0.590	0.210	1.670
2020/01/31 04:32:57.7	91.200	-0.610	0.220	1.710
2020/01/31 04:32:57.8	91.190	-0.640	0.230	1.750
2020/01/31 04:32:57.9	91.170	-0.660	0.240	1.780
2020/01/31 04:32:58.0	91.160	-0.680	0.230	1.820
2020/01/31 04:32:58.1	91.140	-0.690	0.230	1.850
2020/01/31 04:32:58.2	91.130	-0.700	0.210	1.870
2020/01/31 04:32:58.3	91.110	-0.710	0.190	1.890
2020/01/31 04:32:58.4	91.100	-0.710	0.170	1.910
2020/01/31 04:32:58.5	91.080	-0.710	0.140	1.920
2020/01/31 04:32:58.6	91.070	-0.710	0.100	1.930
2020/01/31 04:32:58.7	91.050	-0.700	0.050	1.940
2020/01/31 04:32:58.8	91.040	-0.680	0.010	1.940
2020/01/31 04:32:58.9	91.020	-0.660	-0.050	1.930
2020/01/31 04:32:59.0	91.010	-0.640	-0.110	1.920
2020/01/31 04:32:59.1	91.000	-0.620	-0.170	1.910
2020/01/31 04:32:59.2	90.980	-0.590	-0.240	1.890
2020/01/31 04:32:59.3	90.970	-0.550	-0.310	1.870
2020/01/31 04:32:59.4	90.960	-0.510	-0.380	1.840
2020/01/31 04:32:59.5	90.960	-0.470	-0.450	1.810
2020/01/31 04:32:59.6	90.950	-0.430	-0.520	1.770
2020/01/31 04:32:59.7	90.940	-0.390	-0.590	1.730
2020/01/31 04:32:59.8	90.930	-0.340	-0.660	1.690
2020/01/31 04:32:59.9	90.930	-0.290	-0.730	1.650
2020/01/31 04:33:00.0	90.920	-0.240	-0.790	1.600
2020/01/31 04:33:00.1	90.910	-0.190	-0.850	1.560
2020/01/31 04:33:00.2	90.900	-0.140	-0.910	1.510
2020/01/31 04:33:00.3	90.890	-0.090	-0.950	1.460
2020/01/31 04:33:00.4	90.890	-0.040	-0.990	1.420
2020/01/31 04:33:00.5	90.880	0.000	-1.020	1.370
2020/01/31 04:33:00.6	90.880	0.050	-1.050	1.320
2020/01/31 04:33:00.7	90.880	0.090	-1.060	1.280
2020/01/31 04:33:00.8	90.870	0.130	-1.060	1.230
2020/01/31 04:33:00.9	90.870	0.170	-1.060	1.190
2020/01/31 04:33:01.0	90.860	0.200	-1.040	1.140
2020/01/31 04:33:01.1	90.860	0.230	-1.020	1.100
2020/01/31 04:33:01.2	90.850	0.260	-0.990	1.060
2020/01/31 04:33:01.3	90.850	0.280	-0.950	1.020
2020/01/31 04:33:01.4	90.850	0.300	-0.890	0.980
2020/01/31 04:33:01.5	90.840	0.310	-0.840	0.950
2020/01/31 04:33:01.6	90.840	0.320	-0.770	0.910
2020/01/31 04:33:01.7	90.840	0.320	-0.700	0.870
2020/01/31 04:33:01.8	90.840	0.320	-0.620	0.840
2020/01/31 04:33:01.9	90.840	0.320	-0.530	0.800
2020/01/31 04:33:02.0	90.840	0.310	-0.440	0.770
2020/01/31 04:33:02.1	90.850	0.290	-0.340	0.740
2020/01/31 04:33:02.2	90.860	0.270	-0.250	0.700
2020/01/31 04:33:02.3	90.860	0.250	-0.150	0.670
2020/01/31 04:33:02.4	90.870	0.230	-0.060	0.630
2020/01/31 04:33:02.5	90.880	0.200	0.040	0.600
2020/01/31 04:33:02.6	90.900	0.170	0.130	0.560
2020/01/31 04:33:02.7	90.910	0.130	0.220	0.520
2020/01/31 04:33:02.8	90.930	0.100	0.310	0.490
2020/01/31 04:33:02.9	90.950	0.070	0.390	0.450
2020/01/31 04:33:03.0	90.970	0.030	0.460	0.410
2020/01/31 04:33:03.1	90.990	-0.010	0.530	0.370
2020/01/31 04:33:03.2	91.010	-0.040	0.590	0.330
2020/01/31 04:33:03.3	91.030	-0.070	0.650	0.280
2020/01/31 04:33:03.4	91.050	-0.110	0.690	0.240
2020/01/31 04:33:03.5	91.080	-0.140	0.730	0.200
2020/01/31 04:33:03.6				
2020/01/31 04:33:03.7	91.100	-0.160	0.750	0.170
2020/01/31 04:33:03.8	91.140	-0.210	0.780	0.100
2020/01/31 04:33:03.9	91.150	-0.220	0.780	0.070
2020/01/31 04:33:04.0	91.170	-0.240	0.770	0.040
2020/01/31 04:33:04.1	91.180	-0.240	0.750	0.020
2020/01/31 04:33:04.2	91.200	-0.250	0.730	-0.000
2020/01/31 04:33:04.3	91.210	-0.250	0.700	-0.020
2020/01/31 04:33:04.4	91.210	-0.240	0.660	-0.030
2020/01/31 04:33:04.5	91.220	-0.230	0.610	-0.030
2020/01/31 04:33:04.6	91.230	-0.210	0.560	-0.040
2020/01/31 04:33:04.7	91.230	-0.190	0.500	-0.030
2020/01/31 04:33:04.8	91.230	-0.170	0.440	-0.030
2020/01/31 04:33:04.9	91.220	-0.140	0.370	-0.020
2020/01/31 04:33:05.0	91.220	-0.100	0.300	-0.000
2020/01/31 04:33:05.1	91.220	-0.060	0.230	0.020
2020/01/31 04:33:05.2	91.210	-0.020	0.150	0.030
2020/01/31 04:33:05.3	91.200	0.020	0.080	0.050
2020/01/31 04:33:05.4	91.200	0.060	-0.000	0.080
2020/01/31 04:33:05.5	91.190	0.110	-0.080	0.100
2020/01/31 04:33:05.6	91.190	0.160	-0.150	0.120
2020/01/31 04:33:05.7	91.180	0.210	-0.230	0.140
2020/01/31 04:33:05.8	91.180	0.250	-0.300	0.170
2020/01/31 04:33:05.9	91.170	0.300	-0.370	0.190
2020/01/31 04:33:06.0	91.170	0.350	-0.430	0.210
2020/01/31 04:33:06.1	91.180	0.390	-0.500	0.230
2020/01/31 04:33:06.2	91.180	0.440	-0.560	0.250
2020/01/31 04:33:06.3	91.180	0.480	-0.610	0.270
2020/01/31 04:33:06.4	91.190	0.510	-0.660	0.290
2020/01/31 04:33:06.5	91.200	0.550	-0.710	0.310
2020/01/31 04:33:06.6	91.210	0.580	-0.750	0.330
2020/01/31 04:33:06.7	91.220	0.610	-0.790	0.340
2020/01/31 04:33:06.8	91.230	0.630	-0.820	0.360
2020/01/31 04:33:06.9	91.250	0.650	-0.850	0.380
2020/01/31 04:33:07.0	91.260	0.670	-0.880	0.400
2020/01/31 04:33:07.1	91.280	0.680	-0.900	0.410
2020/01/31 04:33:07.2	91.290	0.690	-0.910	0.430
2020/01/31 04:33:07.3	91.310	0.690	-0.920	0.450
2020/01/31 04:33:07.4	91.330	0.700	-0.930	0.460
2020/01/31 04:33:07.5	91.350	0.690	-0.930	0.480
2020/01/31 04:33:07.6	91.360	0.690	-0.930	0.490
2020/01/31 04:33:07.7	91.380	0.670	-0.930	0.510
2020/01/31 04:33:07.8	91.400	0.660	-0.920	0.530
2020/01/31 04:33:07.9	91.410	0.640	-0.910	0.550
2020/01/31 04:33:08.0	91.430	0.630	-0.890	0.570
2020/01/31 04:33:08.1	91.440	0.600	-0.870	0.590
2020/01/31 04:33:08.2	91.450	0.580	-0.850	0.610
2020/01/31 04:33:08.3	91.460	0.550	-0.830	0.640
2020/01/31 04:33:08.4	91.470	0.530	-0.810	0.660
2020/01/31 04:33:08.5	91.480	0.500	-0.780	0.690
2020/01/31 04:33:08.6	91.480	0.460	-0.750	0.720
2020/01/31 04:33:08.7	91.480	0.430	-0.720	0.740
2020/01/31 04:33:08.8	91.490	0.400	-0.680	0.770
2020/01/31 04:33:08.9	91.490	0.370	-0.640	0.800
2020/01/31 04:33:09.0	91.490	0.330	-0.610	0.830
2020/01/31 04:33:09.1	91.480	0.300	-0.560	0.860
2020/01/31 04:33:09.2	91.480	0.260	-0.520	0.900
2020/01/31 04:33:09.3	91.480	0.220	-0.480	0.930
2020/01/31 04:33:09.4	91.470	0.190	-0.430	0.960
2020/01/31 04:33:09.5	91.470	0.150	-0.390	0.990
2020/01/31 04:33:09.6	91.460	0.110	-0.340	1.030
2020/01/31 04:33:09.7	91.460	0.080	-0.290	1.060
2020/01/31 04:33:09.8	91.450	0.040	-0.240	1.090
2020/01/31 04:33:09.9	91.450	0.000	-0.190	1.120
2020/01/31 04:33:10.0	91.440	-0.040	-0.150	1.160
2020/01/31 04:33:10.1	91.430	-0.070	-0.100	1.190
2020/01/31 04:33:10.2	91.430	-0.110	-0.050	1.230
2020/01/31 04:33:10.3	91.420	-0.150	-0.010	1.260
2020/01/31 04:33:10.4	91.420	-0.180	0.040	1.290
2020/01/31 04:33:10.5	91.410	-0.220	0.080	1.320
2020/01/31 04:33:10.6	91.410	-0.260	0.120	1.340
2020/01/31 04:33:10.7	91.400	-0.290	0.160	1.370
2020/01/31 04:33:10.8	91.400	-0.320	0.200	1.390
2020/01/31 04:33:10.9	91.400	-0.360	0.240	1.410
2020/01/31 04:33:11.0	91.400	-0.390	0.270	1.420
2020/01/31 04:33:11.1	91.400	-0.420	0.300	1.440
2020/01/31 04:33:11.2	91.390	-0.450	0.330	1.440
2020/01/31 04:33:11.3	91.400	-0.480	0.350	1.450
2020/01/31 04:33:11.4	91.400	-0.510	0.370	1.450
2020/01/31 04:33:11.5	91.400	-0.530	0.380	1.450
2020/01/31 04:33:11.6	91.400	-0.560	0.390	1.440
2020/01/31 04:33:11.7	91.400	-0.580	0.390	1.430
2020/01/31 04:33:11.8	91.410	-0.600	0.390	1.420
2020/01/31 04:33:11.9	91.410	-0.620	0.380	1.400
2020/01/31 04:33:12.0	91.410	-0.630	0.370	1.380
2020/01/31 04:33:12.1	91.420	-0.640	0.360	1.360
2020/01/31 04:33:12.2	91.420	-0.650	0.330	1.340
2020/01/31 04:33:12.3	91.420	-0.650	0.310	1.310
2020/01/31 04:33:12.4	91.430	-0.650	0.270	1.290
2020/01/31 04:33:12.5	91.430	-0.650	0.240	1.270
2020/01/31 04:33:12.6	91.430	-0.650	0.190	1.240
2020/01/31 04:33:12.7	91.430	-0.640	0.150	1.220
2020/01/31 04:33:12.8	91.430	-0.630	0.100	1.200
2020/01/31 04:33:12.9	91.430	-0.620	0.050	1.170
2020/01/31 04:33:13.0	91.430	-0.600	-0.010	1.150
2020/01/31 04:33:13.1	91.430	-0.580	-0.070	1.140
2020/01/31 04:33:13.2	91.430	-0.560	-0.120	1.110
2020/01/31 04:33:13.3	91.430	-0.540	-0.180	1.090
2020/01/31 04:33:13.4	91.430	-0.520	-0.240	1.070
2020/01/31 04:33:13.5	91.430	-0.490	-0.290	1.050
2020/01/31 04:33:13.6	91.430	-0.460	-0.350	1.030
2020/01/31 04:33:13.7	91.430	-0.440	-0.400	1.010
2020/01/31 04:33:13.8	91.430	-0.410	-0.450	0.980
2020/01/31 04:33:13.9	91.430	-0.380	-0.500	0.960
2020/01/31 04:33:14.0	91.430	-0.350	-0.540	0.930
2020/01/31 04:33:14.1	91.440	-0.320	-0.590	0.900
2020/01/31 04:33:14.2	91.440	-0.300	-0.620	0.870
2020/01/31 04:33:14.3	91.450	-0.270	-0.660	0.840
2020/01/31 04:33:14.4	91.460	-0.240	-0.680	0.800
2020/01/31 04:33:14.5	91.460	-0.220	-0.710	0.770
2020/01/31 04:33:14.6	91.470	-0.190	-0.730	0.730
2020/01/31 04:33:14.7	91.480	-0.170	-0.740	0.690
2020/01/31 04:33:14.8	91.490	-0.140	-0.750	0.640
2020/01/31 04:33:14.9	91.500	-0.120	-0.760	0.600
2020/01/31 04:33:15.0	91.510	-0.100	-0.760	0.560
2020/01/31 04:33:15.1	91.520	-0.080	-0.760	0.520
2020/01/31 04:33:15.2	91.530	-0.060	-0.750	0.480
2020/01/31 04:33:15.3	91.540	-0.040	-0.730	0.440
2020/01/31 04:33:15.4	91.550	-0.020	-0.720	0.400
2020/01/31 04:33:15.5	91.560	-0.010	-0.690	0.370
2020/01/31 04:33:15.6	91.570	0.010	-0.670	0.340
2020/01/31 04:33:15.7	91.580	0.020	-0.640	0.310
2020/01/31 04:33:15.8	91.590	0.040	-0.600	0.290
2020/01/31 04:33:15.9	91.600	0.050	-0.560	0.260
2020/01/31 04:33:16.0	91.620	0.060	-0.520	0.250
2020/01/31 04:33:16.1	91.630	0.070	-0.470	0.240
2020/01/31 04:33:16.2	91.650	0.080	-0.420	0.220
2020/01/31 04:33:16.3	91.670	0.090	-0.370	0.210
2020/01/31 04:33:16.4	91.690	0.100	-0.320	0.210
2020/01/31 04:33:16.5	91.710	0.100	-0.260	0.200
2020/01/31 04:33:16.6	91.730	0.110	-0.210	0.200
2020/01/31 04:33:16.7	91.750	0.110	-0.150	0.200
2020/01/31 04:33:16.8	91.770	0.110	-0.090	0.200
2020/01/31 04:33:16.9	91.790	0.120	-0.030	0.200
2020/01/31 04:33:17.0	91.810	0.120	0.030	0.210
2020/01/31 04:33:17.1	91.840	0.110	0.080	0.220
2020/01/31 04:33:17.2	91.860	0.110	0.140	0.220
2020/01/31 04:33:17.3	91.880	0.110	0.190	0.230
2020/01/31 04:33:17.4	91.890	0.100	0.240	0.230
2020/01/31 04:33:17.5	91.910	0.090	0.290	0.240
2020/01/31 04:33:17.6	91.930	0.090	0.330	0.240
2020/01/31 04:33:17.7	91.940	0.080	0.370	0.250
2020/01/31 04:33:17.8	91.950	0.070	0.410	0.260
2020/01/31 04:33:17.9	91.960	0.060	0.440	0.260
2020/01/31 04:33:18.0	91.970	0.050	0.460	0.270
2020/01/31 04:33:18.1	91.970	0.040	0.480	0.280
2020/01/31 04:33:18.2	91.970	0.020	0.490	0.290
2020/01/31 04:33:18.3	91.970	0.010	0.490	0.300
2020/01/31 04:33:18.4	91.960	0.000	0.490	0.320
2020/01/31 04:33:18.5	91.950	-0.010	0.480	0.330
2020/01/31 04:33:18.6	91.940	-0.020	0.470	0.350
2020/01/31 04:33:18.7	91.930	-0.030	0.450	0.370
2020/01/31 04:33:18.8	91.920	-0.040	0.420	0.390
2020/01/31 04:33:18.9	91.900	-0.050	0.390	0.420
2020/01/31 04:33:19.0	91.880	-0.060	0.360	0.440
2020/01/31 04:33:19.1	91.860	-0.070	0.310	0.470
2020/01/31 04:33:19.2	91.840	-0.080	0.270	0.500
2020/01/31 04:33:19.3	91.810	-0.080	0.210	0.530
2020/01/31 04:33:19.4	91.790	-0.080	0.160	0.560
2020/01/31 04:33:19.5	91.760	-0.090	0.100	0.590
2020/01/31 04:33:19.6	91.730	-0.090	0.040	0.630
2020/01/31 04:33:19.7	91.710	-0.080	-0.020	0.660
2020/01/31 04:33:19.8	91.680	-0.080	-0.090	0.690
2020/01/31 04:33:19.9	91.650	-0.070	-0.160	0.720
2020/01/31 04:33:20.0	91.620	-0.060	-0.230	0.740
2020/01/31 04:33:20.1	91.590	-0.050	-0.300	0.770
2020/01/31 04:33:20.2	91.560	-0.030	-0.380	0.800
2020/01/31 04:33:20.3	91.540	-0.020	-0.450	0.820
2020/01/31 04:33:20.4	91.510	0.000	-0.530	0.840
2020/01/31 04:33:20.5	91.490	0.020	-0.610	0.860
2020/01/31 04:33:20.6	91.470	0.050	-0.680	0.870
2020/01/31 04:33:20.7	91.440	0.070	-0.760	0.880
2020/01/31 04:33:20.8	91.430	0.100	-0.830	0.890
2020/01/31 04:33:20.9	91.410	0.130	-0.900	0.890
2020/01/31 04:33:21.0	91.390	0.160	-0.970	0.890
2020/01/31 04:33:21.1	91.380	0.200	-1.040	0.900
2020/01/31 04:33:21.2	91.370	0.230	-1.100	0.890
2020/01/31 04:33:21.3	91.360	0.260	-1.150	0.890
2020/01/31 04:33:21.4	91.360	0.300	-1.210	0.880
2020/01/31 04:33:21.5	91.350	0.330	-1.250	0.870
2020/01/31 04:33:21.6	91.350	0.370	-1.290	0.860
2020/01/31 04:33:21.7	91.350	0.400	-1.320	0.850
2020/01/31 04:33:21.8	91.340	0.430	-1.350	0.840
2020/01/31 04:33:21.9	91.340	0.470	-1.370	0.840
2020/01/31 04:33:22.0	91.340	0.490	-1.380	0.830
2020/01/31 04:33:22.1	91.350	0.520	-1.380	0.820
2020/01/31 04:33:22.2	91.350	0.550	-1.370	0.810
2020/01/31 04:33:22.3	91.350	0.570	-1.350	0.800
2020/01/31 04:33:22.4	91.350	0.590	-1.320	0.800
2020/01/31 04:33:22.5	91.350	0.600	-1.280	0.790
2020/01/31 04:33:22.6	91.340	0.620	-1.230	0.780
2020/01/31 04:33:22.7	91.340	0.620	-1.170	0.780
2020/01/31 04:33:22.8	91.340	0.630	-1.110	0.770
2020/01/31 04:33:22.9	91.330	0.620	-1.030	0.770
2020/01/31 04:33:23.0	91.320	0.620	-0.950	0.770
2020/01/31 04:33:23.1	91.320	0.610	-0.860	0.760
2020/01/31 04:33:23.2	91.310	0.590	-0.760	0.760
2020/01/31 04:33:23.3	91.300	0.570	-0.660	0.760
2020/01/31 04:33:23.4	91.290	0.550	-0.550	0.760
2020/01/31 04:33:23.5	91.270	0.520	-0.430	0.760
2020/01/31 04:33:23.6	91.260	0.490	-0.320	0.760
2020/01/31 04:33:23.7	91.240	0.450	-0.200	0.770
2020/01/31 04:33:23.8	91.230	0.410	-0.080	0.770
2020/01/31 04:33:23.9	91.210	0.370	0.040	0.780
2020/01/31 04:33:24.0	91.190	0.330	0.160	0.790
2020/01/31 04:33:24.1	91.180	0.280	0.270	0.800
2020/01/31 04:33:24.2	91.160	0.230	0.380	0.810
2020/01/31 04:33:24.3	91.140	0.180	0.490	0.820
2020/01/31 04:33:24.4	91.130	0.130	0.590	0.830
2020/01/31 04:33:24.5	91.110	0.080	0.690	0.840
2020/01/31 04:33:24.6	91.100	0.020	0.770	0.850
2020/01/31 04:33:24.7	91.090	-0.030	0.850	0.860
2020/01/31 04:33:24.8	91.080	-0.080	0.920	0.870
2020/01/31 04:33:24.9	91.070	-0.130	0.980	0.880
2020/01/31 04:33:25.0	91.070	-0.180	1.020	0.880
2020/01/31 04:33:25.1	91.070	-0.220	1.060	0.890
2020/01/31 04:33:25.2	91.070	-0.260	1.090	0.890
2020/01/31 04:33:25.3	91.070	-0.300	1.100	0.890
2020/01/31 04:33:25.4	91.080	-0.340	1.110	0.900
2020/01/31 04:33:25.5	91.090	-0.370	1.100	0.890
2020/01/31 04:33:25.6	91.100	-0.400	1.070	0.890
2020/01/31 04:33:25.7	91.110	-0.430	1.040	0.890
2020/01/31 04:33:25.8	91.130	-0.450	1.000	0.880
2020/01/31 04:33:25.9	91.150	-0.470	0.940	0.870
2020/01/31 04:33:26.0	91.170	-0.480	0.880	0.860
2020/01/31 04:33:26.1	91.190	-0.490	0.800	0.850
2020/01/31 04:33:26.2	91.210	-0.500	0.720	0.840
2020/01/31 04:33:26.3	91.230	-0.500	0.640	0.820
2020/01/31 04:33:26.4	91.260	-0.490	0.540	0.810
2020/01/31 04:33:26.5	91.280	-0.490	0.450	0.790
2020/01/31 04:33:26.6	91.300	-0.480	0.340	0.780
2020/01/31 04:33:26.7	91.320	-0.460	0.240	0.760
2020/01/31 04:33:26.8	91.340	-0.450	0.130	0.750
2020/01/31 04:33:26.9	91.360	-0.430	0.030	0.740
2020/01/31 04:33:27.0	91.380	-0.410	-0.080	0.720
2020/01/31 04:33:27.1	91.390	-0.390	-0.180	0.710
2020/01/31 04:33:27.2	91.410	-0.360	-0.280	0.700
2020/01/31 04:33:27.3	91.420	-0.340	-0.370	0.690
2020/01/31 04:33:27.4	91.430	-0.310	-0.460	0.690
2020/01/31 04:33:27.5	91.440	-0.280	-0.550	0.680
2020/01/31 04:33:27.6	91.440	-0.260	-0.630	0.680
2020/01/31 04:33:27.7	91.450	-0.230	-0.690	0.670
2020/01/31 04:33:27.8	91.450	-0.210	-0.760	0.670
2020/01/31 04:33:27.9	91.450	-0.180	-0.810	0.680
2020/01/31 04:33:28.0	91.450	-0.160	-0.850	0.690
2020/01/31 04:33:28.1	91.440	-0.140	-0.890	0.690
2020/01/31 04:33:28.2	91.440	-0.120	-0.910	0.710
2020/01/31 04:33:28.3	91.430	-0.100	-0.930	0.730
2020/01/31 04:33:28.4	91.420	-0.080	-0.940	0.750
2020/01/31 04:33:28.5	91.410	-0.070	-0.940	0.770
2020/01/31 04:33:28.6	91.400	-0.060	-0.930	0.800
2020/01/31 04:33:28.7	91.390	-0.050	-0.910	0.840
2020/01/31 04:33:28.8	91.380	-0.040	-0.890	0.870
2020/01/31 04:33:28.9	91.370	-0.040	-0.860	0.910
2020/01/31 04:33:29.0	91.350	-0.030	-0.830	0.950
2020/01/31 04:33:29.1	91.340	-0.030	-0.790	1.000
2020/01/31 04:33:29.2	91.330	-0.030	-0.750	1.040
2020/01/31 04:33:29.3	91.320	-0.030	-0.700	1.080
2020/01/31 04:33:29.4	91.310	-0.030	-0.650	1.130
2020/01/31 04:33:29.5	91.300	-0.030	-0.600	1.170
2020/01/31 04:33:29.6	91.290	-0.040	-0.550	1.210
2020/01/31 04:33:29.7	91.290	-0.040	-0.500	1.250
2020/01/31 04:33:29.8	91.280	-0.050	-0.450	1.280
2020/01/31 04:33:29.9	91.270	-0.050	-0.400	1.310
2020/01/31 04:33:30.0	91.270	-0.060	-0.360	1.330
2020/01/31 04:33:30.1	91.260	-0.060	-0.320	1.360
2020/01/31 04:33:30.2	91.250	-0.060	-0.290	1.380
2020/01/31 04:33:30.3	91.250	-0.070	-0.250	1.390
2020/01/31 04:33:30.4	91.240	-0.070	-0.230	1.400
2020/01/31 04:33:30.5	91.240	-0.060	-0.210	1.400
2020/01/31 04:33:30.6	91.230	-0.060	-0.190	1.400
2020/01/31 04:33:30.7	91.220	-0.060	-0.180	1.390
2020/01/31 04:33:30.8	91.210	-0.050	-0.180	1.390
2020/01/31 04:33:30.9	91.200	-0.040	-0.180	1.380
2020/01/31 04:33:31.0	91.190	-0.030	-0.180	1.360
2020/01/31 04:33:31.1	91.170	-0.020	-0.190	1.350
2020/01/31 04:33:31.2	91.150	-0.010	-0.200	1.330
2020/01/31 04:33:31.3	91.140	0.000	-0.210	1.320
2020/01/31 04:33:31.4	91.120	0.020	-0.230	1.300
2020/01/31 04:33:31.5	91.100	0.030	-0.250	1.280
2020/01/31 04:33:31.6	91.070	0.050	-0.270	1.260
2020/01/31 04:33:31.7	91.050	0.070	-0.290	1.250
2020/01/31 04:33:31.8	91.030	0.080	-0.310	1.230
2020/01/31 04:33:31.9	91.000	0.100	-0.330	1.210
2020/01/31 04:33:32.0	90.980	0.120	-0.340	1.190
2020/01/31 04:33:32.1	90.950	0.130	-0.360	1.180
2020/01/31 04:33:32.2	90.930	0.150	-0.380	1.160
2020/01/31 04:33:32.3	90.900	0.160	-0.390	1.140
2020/01/31 04:33:32.4	90.870	0.180	-0.400	1.120
2020/01/31 04:33:32.5	90.850	0.190	-0.410	1.110
2020/01/31 04:33:32.6	90.820	0.200	-0.420	1.090
2020/01/31 04:33:32.7	90.800	0.210	-0.420	1.070
2020/01/31 04:33:32.8	90.770	0.220	-0.420	1.050
2020/01/31 04:33:32.9	90.750	0.220	-0.430	1.030
2020/01/31 04:33:33.0	90.730	0.230	-0.420	1.010
2020/01/31 04:33:33.1	90.720	0.230	-0.420	0.990
2020/01/31 04:33:33.2	90.710	0.230	-0.420	0.970
2020/01/31 04:33:33.3	90.690	0.220	-0.410	0.940
2020/01/31 04:33:33.4	90.680	0.220	-0.400	0.910
2020/01/31 04:33:33.5	90.680	0.220	-0.390	0.880
2020/01/31 04:33:33.6	90.670	0.210	-0.380	0.850
2020/01/31 04:33:33.7	90.670	0.200	-0.370	0.820
2020/01/31 04:33:33.8	90.670	0.190	-0.360	0.780
2020/01/31 04:33:33.9	90.680	0.180	-0.350	0.740
2020/01/31 04:33:34.0	90.690	0.160	-0.330	0.700
2020/01/31 04:33:34.1	90.700	0.150	-0.320	0.650
2020/01/31 04:33:34.2	90.710	0.130	-0.300	0.610
2020/01/31 04:33:34.3	90.730	0.110	-0.280	0.570
2020/01/31 04:33:34.4	90.750	0.100	-0.260	0.520
2020/01/31 04:33:34.5	90.780	0.080	-0.240	0.470
2020/01/31 04:33:34.6	90.800	0.060	-0.220	0.430
2020/01/31 04:33:34.7	90.830	0.040	-0.190	0.390
2020/01/31 04:33:34.8	90.860	0.010	-0.160	0.340
2020/01/31 04:33:34.9	90.890	-0.010	-0.130	0.300
2020/01/31 04:33:35.0	90.920	-0.030	-0.100	0.260
2020/01/31 04:33:35.1	90.950	-0.060	-0.060	0.230
2020/01/31 04:33:35.2	90.990	-0.080	-0.020	0.200
2020/01/31 04:33:35.3	91.020	-0.100	0.020	0.170
2020/01/31 04:33:35.4	91.050	-0.130	0.060	0.150
2020/01/31 04:33:35.5	91.070	-0.160	0.100	0.130
2020/01/31 04:33:35.6	91.100	-0.180	0.150	0.120
2020/01/31 04:33:35.7	91.130	-0.210	0.200	0.110
2020/01/31 04:33:35.8	91.150	-0.230	0.240	0.110
2020/01/31 04:33:35.9	91.170	-0.260	0.290	0.110
2020/01/31 04:33:36.0	91.190	-0.280	0.340	0.120
2020/01/31 04:33:36.1	91.200	-0.310	0.380	0.130
2020/01/31 04:33:36.2	91.220	-0.330	0.430	0.150
2020/01/31 04:33:36.3	91.230	-0.360	0.460	0.180
2020/01/31 04:33:36.4	91.240	-0.380	0.500	0.200
2020/01/31 04:33:36.5	91.240	-0.400	0.520	0.230
2020/01/31 04:33:36.6	91.250	-0.410	0.550	0.260
2020/01/31 04:33:36.7	91.250	-0.430	0.560	0.300
2020/01/31 04:33:36.8	91.260	-0.440	0.570	0.330
2020/01/31 04:33:36.9	91.260	-0.450	0.570	0.370
2020/01/31 04:33:37.0	91.260	-0.450	0.560	0.410
2020/01/31 04:33:37.1	91.260	-0.450	0.540	0.450
2020/01/31 04:33:37.2	91.260	-0.450	0.510	0.490
2020/01/31 04:33:37.3	91.260	-0.440	0.470	0.520
2020/01/31 04:33:37.4	91.250	-0.430	0.420	0.560
2020/01/31 04:33:37.5	91.250	-0.410	0.360	0.590
2020/01/31 04:33:37.6	91.250	-0.390	0.290	0.620
2020/01/31 04:33:37.7	91.250	-0.360	0.210	0.650
2020/01/31 04:33:37.8	91.260	-0.330	0.130	0.670
2020/01/31 04:33:37.9	91.260	-0.300	0.030	0.690
2020/01/31 04:33:38.0	91.260	-0.260	-0.070	0.710
2020/01/31 04:33:38.1	91.260	-0.210	-0.180	0.740
2020/01/31 04:33:38.2	91.270	-0.160	-0.290	0.750
2020/01/31 04:33:38.3	91.270	-0.110	-0.400	0.770
2020/01/31 04:33:38.4	91.280	-0.060	-0.520	0.780
2020/01/31 04:33:38.5	91.280	-0.000	-0.630	0.800
2020/01/31 04:33:38.6	91.280	0.050	-0.740	0.810
2020/01/31 04:33:38.7	91.280	0.110	-0.840	0.820
2020/01/31 04:33:38.8	91.280	0.170	-0.940	0.830
2020/01/31 04:33:38.9	91.280	0.230	-1.040	0.840
2020/01/31 04:33:39.0	91.280	0.280	-1.120	0.850
2020/01/31 04:33:39.1	91.280	0.340	-1.200	0.850
2020/01/31 04:33:39.2	91.280	0.390	-1.260	0.860
2020/01/31 04:33:39.3	91.270	0.440	-1.320	0.870
2020/01/31 04:33:39.4	91.270	0.480	-1.360	0.870
2020/01/31 04:33:39.5	91.260	0.520	-1.390	0.880
2020/01/31 04:33:39.6	91.250	0.560	-1.400	0.890
2020/01/31 04:33:39.7	91.250	0.590	-1.400	0.900
2020/01/31 04:33:39.8	91.240	0.610	-1.390	0.900
2020/01/31 04:33:39.9	91.230	0.630	-1.360	0.910
2020/01/31 04:33:40.0	91.210	0.640	-1.320	0.920
2020/01/31 04:33:40.1	91.200	0.650	-1.260	0.940
2020/01/31 04:33:40.2	91.190	0.650	-1.190	0.950
2020/01/31 04:33:40.3	91.170	0.640	-1.120	0.960
2020/01/31 04:33:40.4	91.160	0.630	-1.030	0.970
2020/01/31 04:33:40.5	91.140	0.610	-0.930	0.970
2020/01/31 04:33:40.6	91.130	0.580	-0.830	0.980
2020/01/31 04:33:40.7	91.110	0.550	-0.720	0.990
2020/01/31 04:33:40.8	91.100	0.510	-0.600	0.990
2020/01/31 04:33:40.9	91.080	0.470	-0.480	1.000
2020/01/31 04:33:41.0	91.060	0.420	-0.360	1.000
2020/01/31 04:33:41.1	91.050	0.370	-0.240	0.990
2020/01/31 04:33:41.2	91.040	0.320	-0.120	0.990
2020/01/31 04:33:41.3	91.020	0.260	-0.010	0.990
2020/01/31 04:33:41.4	91.010	0.210	0.100	0.980
2020/01/31 04:33:41.5	91.000	0.150	0.210	0.960
2020/01/31 04:33:41.6	91.000	0.090	0.310	0.950
2020/01/31 04:33:41.7	90.990	0.030	0.400	0.930
2020/01/31 04:33:41.8	90.990	-0.030	0.480	0.900
2020/01/31 04:33:41.9	91.000	-0.090	0.560	0.870
2020/01/31 04:33:42.0	91.000	-0.140	0.620	0.840
2020/01/31 04:33:42.1	91.010	-0.190	0.670	0.810
2020/01/31 04:33:42.2	91.020	-0.230	0.710	0.770
2020/01/31 04:33:42.3	91.030	-0.270	0.730	0.730
2020/01/31 04:33:42.4	91.040	-0.310	0.740	0.690
2020/01/31 04:33:42.5	91.060	-0.340	0.740	0.640
2020/01/31 04:33:42.6	91.080	-0.360	0.730	0.600
2020/01/31 04:33:42.7	91.100	-0.380	0.710	0.560
2020/01/31 04:33:42.8	91.120	-0.390	0.670	0.510
2020/01/31 04:33:42.9	91.150	-0.400	0.620	0.470
2020/01/31 04:33:43.0	91.170	-0.400	0.570	0.430
2020/01/31 04:33:43.1	91.200	-0.390	0.500	0.390
2020/01/31 04:33:43.2	91.230	-0.380	0.430	0.360
2020/01/31 04:33:43.3	91.250	-0.360	0.360	0.330
2020/01/31 04:33:43.4	91.280	-0.340	0.280	0.300
2020/01/31 04:33:43.5	91.310	-0.320	0.200	0.280
2020/01/31 04:33:43.6	91.330	-0.290	0.120	0.260
2020/01/31 04:33:43.7	91.360	-0.260	0.040	0.250
2020/01/31 04:33:43.8	91.380	-0.220	-0.050	0.240
2020/01/31 04:33:43.9	91.400	-0.180	-0.130	0.230
2020/01/31 04:33:44.0	91.430	-0.150	-0.200	0.230
2020/01/31 04:33:44.1	91.450	-0.110	-0.280	0.240
2020/01/31 04:33:44.2	91.460	-0.070	-0.350	0.240
2020/01/31 04:33:44.3	91.480	-0.030	-0.420	0.250
2020/01/31 04:33:44.4	91.500	0.010	-0.470	0.260
2020/01/31 04:33:44.5	91.510	0.050	-0.530	0.270
2020/01/31 04:33:44.6	91.530	0.080	-0.570	0.290
2020/01/31 04:33:44.7	91.540	0.110	-0.610	0.300
2020/01/31 04:33:44.8	91.550	0.140	-0.640	0.320
2020/01/31 04:33:44.9	91.560	0.170	-0.660	0.330
2020/01/31 04:33:45.0	91.570	0.190	-0.680	0.350
2020/01/31 04:33:45.1	91.570	0.210	-0.690	0.370
2020/01/31 04:33:45.2	91.570	0.230	-0.690	0.390
2020/01/31 04:33:45.3	91.570	0.240	-0.680	0.400
2020/01/31 04:33:45.4	91.570	0.240	-0.670	0.420
2020/01/31 04:33:45.5	91.570	0.240	-0.650	0.440
2020/01/31 04:33:45.6	91.560	0.240	-0.620	0.460
2020/01/31 04:33:45.7	91.560	0.230	-0.590	0.480
2020/01/31 04:33:45.8	91.550	0.220	-0.550	0.500
2020/01/31 04:33:45.9	91.540	0.210	-0.510	0.530
2020/01/31 04:33:46.0	91.530	0.190	-0.460	0.550
2020/01/31 04:33:46.1	91.510	0.160	-0.410	0.580
2020/01/31 04:33:46.2	91.500	0.140	-0.360	0.600
2020/01/31 04:33:46.3	91.480	0.110	-0.300	0.620
2020/01/31 04:33:46.4	91.470	0.080	-0.250	0.650
2020/01/31 04:33:46.5	91.450	0.040	-0.190	0.680
2020/01/31 04:33:46.6	91.430	0.010	-0.140	0.700
2020/01/31 04:33:46.7	91.410	-0.030	-0.080	0.720
2020/01/31 04:33:46.8	91.400	-0.070	-0.030	0.750
2020/01/31 04:33:46.9	91.380	-0.110	0.020	0.770
2020/01/31 04:33:47.0	91.370	-0.150	0.070	0.790
2020/01/31 04:33:47.1	91.350	-0.190	0.120	0.810
2020/01/31 04:33:47.2	91.340	-0.230	0.160	0.820
2020/01/31 04:33:47.3	91.340	-0.270	0.190	0.830
2020/01/31 04:33:47.4	91.330	-0.300	0.230	0.840
2020/01/31 04:33:47.5	91.320	-0.340	0.250	0.850
2020/01/31 04:33:47.6	91.320	-0.370	0.270	0.850
2020/01/31 04:33:47.7	91.320	-0.400	0.290	0.850
2020/01/31 04:33:47.8	91.320	-0.420	0.300	0.850
2020/01/31 04:33:47.9	91.320	-0.440	0.300	0.840
2020/01/31 04:33:48.0	91.320	-0.460	0.290	0.830
2020/01/31 04:33:48.1	91.330	-0.470	0.280	0.820
2020/01/31 04:33:48.2	91.330	-0.480	0.270	0.800
2020/01/31 04:33:48.3	91.340	-0.490	0.240	0.790
2020/01/31 04:33:48.4	91.340	-0.480	0.210	0.770
2020/01/31 04:33:48.5	91.340	-0.480	0.170	0.760
2020/01/31 04:33:48.6	91.350	-0.470	0.120	0.740
2020/01/31 04:33:48.7	91.350	-0.450	0.070	0.720
2020/01/31 04:33:48.8	91.350	-0.430	0.020	0.710
2020/01/31 04:33:48.9	91.350	-0.410	-0.050	0.690
2020/01/31 04:33:49.0	91.350	-0.380	-0.110	0.680
2020/01/31 04:33:49.1	91.350	-0.340	-0.190	0.670
2020/01/31 04:33:49.2	91.340	-0.310	-0.260	0.660
2020/01/31 04:33:49.3	91.330	-0.270	-0.330	0.650
2020/01/31 04:33:49.4	91.330	-0.220	-0.410	0.640
2020/01/31 04:33:49.5	91.310	-0.180	-0.480	0.640
2020/01/31 04:33:49.6	91.300	-0.130	-0.560	0.630
2020/01/31 04:33:49.7	91.290	-0.080	-0.630	0.630
2020/01/31 04:33:49.8	91.280	-0.040	-0.700	0.620
2020/01/31 04:33:49.9	91.270	0.010	-0.770	0.620
2020/01/31 04:33:50.0	91.260	0.060	-0.830	0.610
2020/01/31 04:33:50.1	91.250	0.100	-0.890	0.610
2020/01/31 04:33:50.2	91.240	0.150	-0.940	0.600
2020/01/31 04:33:50.3	91.230	0.190	-0.980	0.600
2020/01/31 04:33:50.4	91.220	0.230	-1.020	0.600
2020/01/31 04:33:50.5	91.210	0.260	-1.040	0.600
2020/01/31 04:33:50.6	91.210	0.300	-1.060	0.600
2020/01/31 04:33:50.7	91.200	0.320	-1.070	0.600
2020/01/31 04:33:50.8	91.200	0.350	-1.080	0.610
2020/01/31 04:33:50.9	91.200	0.370	-1.070	0.610
2020/01/31 04:33:51.0	91.200	0.380	-1.050	0.620
2020/01/31 04:33:51.1	91.200	0.390	-1.030	0.630
2020/01/31 04:33:51.2	91.210	0.390	-0.990	0.640
2020/01/31 04:33:51.3	91.210	0.390	-0.950	0.650
2020/01/31 04:33:51.4	91.220	0.380	-0.890	0.670
2020/01/31 04:33:51.5	91.230	0.370	-0.840	0.680
2020/01/31 04:33:51.6	91.240	0.350	-0.770	0.700
2020/01/31 04:33:51.7	91.260	0.330	-0.700	0.720
2020/01/31 04:33:51.8	91.270	0.300	-0.620	0.730
2020/01/31 04:33:51.9	91.280	0.270	-0.540	0.750
2020/01/31 04:33:52.0	91.300	0.240	-0.450	0.770
2020/01/31 04:33:52.1	91.320	0.200	-0.360	0.790
2020/01/31 04:33:52.2	91.330	0.160	-0.260	0.800
2020/01/31 04:33:52.3	91.350	0.120	-0.170	0.810
2020/01/31 04:33:52.4	91.370	0.080	-0.070	0.830
2020/01/31 04:33:52.5	91.390	0.030	0.020	0.840
2020/01/31 04:33:52.6	91.410	-0.010	0.120	0.850
2020/01/31 04:33:52.7	91.420	-0.060	0.210	0.850
2020/01/31 04:33:52.8	91.440	-0.110	0.300	0.860
2020/01/31 04:33:52.9	91.460	-0.150	0.380	0.870
2020/01/31 04:33:53.0	91.480	-0.190	0.460	0.870
2020/01/31 04:33:53.1	91.490	-0.230	0.540	0.870
2020/01/31 04:33:53.2	91.500	-0.270	0.610	0.870
2020/01/31 04:33:53.3	91.520	-0.310	0.670	0.870
2020/01/31 04:33:53.4	91.530	-0.340	0.720	0.870
2020/01/31 04:33:53.5	91.540	-0.360	0.760	0.870
2020/01/31 04:33:53.6	91.550	-0.390	0.790	0.870
2020/01/31 04:33:53.7	91.550	-0.400	0.810	0.860
2020/01/31 04:33:53.8	91.560	-0.420	0.830	0.860
2020/01/31 04:33:53.9	91.560	-0.420	0.830	0.850
2020/01/31 04:33:54.0	91.560	-0.430	0.810	0.850
2020/01/31 04:33:54.1	91.570	-0.420	0.790	0.840
2020/01/31 04:33:54.2	91.570	-0.410	0.760	0.840
2020/01/31 04:33:54.3	91.560	-0.400	0.710	0.830
2020/01/31 04:33:54.4	91.560	-0.380	0.660	0.820
2020/01/31 04:33:54.5	91.560	-0.350	0.600	0.820
2020/01/31 04:33:54.6	91.550	-0.320	0.520	0.810
2020/01/31 04:33:54.7	91.540	-0.290	0.440	0.810
2020/01/31 04:33:54.8	91.530	-0.250	0.360	0.800
2020/01/31 04:33:54.9	91.520	-0.210	0.260	0.800
2020/01/31 04:33:55.0	91.510	-0.160	0.170	0.810
2020/01/31 04:33:55.1	91.500	-0.120	0.060	0.810
2020/01/31 04:33:55.2	91.480	-0.070	-0.040	0.820
2020/01/31 04:33:55.3	91.470	-0.010	-0.150	0.820
2020/01/31 04:33:55.4	91.450	0.040	-0.260	0.830
2020/01/31 04:33:55.5	91.430	0.100	-0.370	0.830
2020/01/31 04:33:55.6	91.420	0.160	-0.480	0.840
2020/01/31 04:33:55.7	91.400	0.210	-0.590	0.850
2020/01/31 04:33:55.8	91.390	0.270	-0.690	0.850
2020/01/31 04:33:55.9	91.380	0.330	-0.790	0.860
2020/01/31 04:33:56.0	91.370	0.380	-0.890	0.860
2020/01/31 04:33:56.1	91.360	0.430	-0.990	0.860
2020/01/31 04:33:56.2	91.350	0.490	-1.070	0.860
2020/01/31 04:33:56.3	91.350	0.530	-1.150	0.860
2020/01/31 04:33:56.4	91.350	0.580	-1.220	0.860
2020/01/31 04:33:56.5	91.350	0.620	-1.280	0.860
2020/01/31 04:33:56.6	91.360	0.660	-1.330	0.850
2020/01/31 04:33:56.7	91.370	0.690	-1.370	0.850
2020/01/31 04:33:56.8	91.380	0.720	-1.400	0.840
2020/01/31 04:33:56.9	91.390	0.750	-1.420	0.840
2020/01/31 04:33:57.0	91.410	0.770	-1.420	0.830
2020/01/31 04:33:57.1	91.420	0.780	-1.420	0.820
2020/01/31 04:33:57.2	91.440	0.790	-1.400	0.810
2020/01/31 04:33:57.3	91.460	0.800	-1.370	0.800
2020/01/31 04:33:57.4	91.480	0.790	-1.330	0.800
2020/01/31 04:33:57.5	91.500	0.790	-1.280	0.790
2020/01/31 04:33:57.6	91.530	0.780	-1.220	0.780
2020/01/31 04:33:57.7	91.550	0.760	-1.150	0.770
2020/01/31 04:33:57.8	91.570	0.730	-1.070	0.770
2020/01/31 04:33:57.9	91.580	0.710	-0.980	0.760
2020/01/31 04:33:58.0	91.600	0.670	-0.890	0.760
2020/01/31 04:33:58.1	91.620	0.630	-0.780	0.760
2020/01/31 04:33:58.2	91.630	0.590	-0.670	0.760
2020/01/31 04:33:58.3	91.640	0.540	-0.560	0.760
2020/01/31 04:33:58.4	91.650	0.490	-0.440	0.760
2020/01/31 04:33:58.5	91.660	0.440	-0.320	0.770
2020/01/31 04:33:58.6	91.670	0.380	-0.190	0.780
2020/01/31 04:33:58.7	91.670	0.320	-0.070	0.790
2020/01/31 04:33:58.8	91.670	0.250	0.060	0.800
2020/01/31 04:33:58.9	91.670	0.190	0.180	0.820
2020/01/31 04:33:59.0	91.660	0.120	0.300	0.830
2020/01/31 04:33:59.1	91.660	0.050	0.410	0.850
2020/01/31 04:33:59.2	91.650	-0.020	0.520	0.870
2020/01/31 04:33:59.3	91.640	-0.090	0.630	0.890
2020/01/31 04:33:59.4	91.630	-0.170	0.730	0.910
2020/01/31 04:33:59.5	91.620	-0.240	0.820	0.930
2020/01/31 04:33:59.6	91.610	-0.310	0.910	0.950
2020/01/31 04:33:59.7	91.590	-0.370	0.980	0.980
2020/01/31 04:33:59.8	91.580	-0.440	1.050	1.000
2020/01/31 04:33:59.9	91.570	-0.510	1.100	1.020
2020/01/31 04:34:00.0	91.550	-0.570	1.150	1.040
2020/01/31 04:34:00.1	91.540	-0.620	1.180	1.070
2020/01/31 04:34:00.2	91.530	-0.680	1.210	1.090
2020/01/31 04:34:00.3	91.520	-0.730	1.220	1.110
2020/01/31 04:34:00.4	91.510	-0.770	1.220	1.120
2020/01/31 04:34:00.5	91.500	-0.810	1.210	1.140
2020/01/31 04:34:00.6	91.490	-0.850	1.180	1.150
2020/01/31 04:34:00.7	91.480	-0.880	1.140	1.160
2020/01/31 04:34:00.8	91.480	-0.900	1.090	1.170
2020/01/31 04:34:00.9	91.470	-0.920	1.030	1.180
2020/01/31 04:34:01.0	91.470	-0.930	0.960	1.180
2020/01/31 04:34:01.1	91.470	-0.930	0.870	1.180
2020/01/31 04:34:01.2	91.470	-0.920	0.780	1.170
2020/01/31 04:34:01.3	91.470	-0.910	0.670	1.160
2020/01/31 04:34:01.4	91.480	-0.900	0.560	1.150
2020/01/31 04:34:01.5	91.490	-0.870	0.440	1.130
2020/01/31 04:34:01.6	91.500	-0.840	0.320	1.110
2020/01/31 04:34:01.7	91.510	-0.800	0.190	1.090
2020/01/31 04:34:01.8	91.520	-0.760	0.060	1.060
2020/01/31 04:34:01.9	91.540	-0.720	-0.080	1.020
2020/01/31 04:34:02.0	91.560	-0.670	-0.210	0.990
2020/01/31 04:34:02.1	91.580	-0.610	-0.350	0.950
2020/01/31 04:34:02.2	91.600	-0.550	-0.480	0.920
2020/01/31 04:34:02.3	91.620	-0.490	-0.610	0.880
2020/01/31 04:34:02.4	91.650	-0.430	-0.730	0.840
2020/01/31 04:34:02.5	91.670	-0.370	-0.850	0.810
2020/01/31 04:34:02.6	91.700	-0.300	-0.950	0.770
2020/01/31 04:34:02.7	91.730	-0.240	-1.050	0.740
2020/01/31 04:34:02.8	91.750	-0.170	-1.140	0.710
2020/01/31 04:34:02.9	91.780	-0.110	-1.210	0.680
2020/01/31 04:34:03.0	91.810	-0.050	-1.280	0.650
2020/01/31 04:34:03.1	91.830	0.010	-1.330	0.630
2020/01/31 04:34:03.2	91.860	0.070	-1.370	0.600
2020/01/31 04:34:03.3	91.890	0.120	-1.400	0.580
2020/01/31 04:34:03.4	91.910	0.170	-1.410	0.560
2020/01/31 04:34:03.5	91.940	0.210	-1.410	0.540
2020/01/31 04:34:03.6	91.960	0.250	-1.400	0.530
2020/01/31 04:34:03.7	91.990	0.290	-1.380	0.520
2020/01/31 04:34:03.8	92.010	0.320	-1.350	0.510
2020/01/31 04:34:03.9	92.030	0.350	-1.310	0.510
2020/01/31 04:34:04.0	92.050	0.370	-1.250	0.510
2020/01/31 04:34:04.1	92.060	0.390	-1.190	0.510
2020/01/31 04:34:04.2	92.070	0.400	-1.120	0.520
2020/01/31 04:34:04.3	92.090	0.410	-1.050	0.530
2020/01/31 04:34:04.4	92.100	0.420	-0.970	0.550
2020/01/31 04:34:04.5	92.100	0.420	-0.880	0.560
2020/01/31 04:34:04.6	92.110	0.410	-0.790	0.580
2020/01/31 04:34:04.7	92.110	0.410	-0.700	0.610
2020/01/31 04:34:04.8	92.100	0.400	-0.610	0.630
2020/01/31 04:34:04.9	92.100	0.390	-0.510	0.660
2020/01/31 04:34:05.0	92.090	0.380	-0.420	0.690
2020/01/31 04:34:05.1	92.090	0.360	-0.330	0.730
2020/01/31 04:34:05.2	92.070	0.340	-0.240	0.760
2020/01/31 04:34:05.3	92.060	0.330	-0.160	0.790
2020/01/31 04:34:05.4	92.040	0.310	-0.080	0.830
2020/01/31 04:34:05.5	92.020	0.290	-0.010	0.860
2020/01/31 04:34:05.6	92.000	0.270	0.060	0.890
2020/01/31 04:34:05.7	91.970	0.250	0.110	0.920
2020/01/31 04:34:05.8	91.950	0.230	0.160	0.950
2020/01/31 04:34:05.9	91.920	0.210	0.210	0.980
2020/01/31 04:34:06.0	91.890	0.200	0.240	1.000
2020/01/31 04:34:06.1	91.860	0.180	0.270	1.030
2020/01/31 04:34:06.2	91.820	0.160	0.290	1.050
2020/01/31 04:34:06.3	91.780	0.150	0.310	1.070
2020/01/31 04:34:06.4	91.740	0.130	0.310	1.090
2020/01/31 04:34:06.5	91.700	0.110	0.320	1.110
2020/01/31 04:34:06.6	91.660	0.100	0.320	1.120
2020/01/31 04:34:06.7	91.620	0.080	0.310	1.130
2020/01/31 04:34:06.8	91.580	0.070	0.300	1.140
2020/01/31 04:34:06.9	91.540	0.050	0.290	1.140
2020/01/31 04:34:07.0	91.500	0.040	0.270	1.140
2020/01/31 04:34:07.1	91.460	0.020	0.250	1.140
2020/01/31 04:34:07.2	91.430	0.010	0.230	1.130
2020/01/31 04:34:07.3	91.400	-0.010	0.210	1.110
2020/01/31 04:34:07.4	91.370	-0.020	0.180	1.090
2020/01/31 04:34:07.5	91.340	-0.030	0.150	1.070
2020/01/31 04:34:07.6	91.320	-0.050	0.120	1.040
2020/01/31 04:34:07.7	91.300	-0.060	0.090	1.010
2020/01/31 04:34:07.8	91.280	-0.070	0.050	0.970
2020/01/31 04:34:07.9	91.270	-0.080	0.010	0.930
2020/01/31 04:34:08.0	91.270	-0.090	-0.020	0.890
2020/01/31 04:34:08.1	91.260	-0.090	-0.070	0.840
2020/01/31 04:34:08.2	91.260	-0.100	-0.110	0.780
2020/01/31 04:34:08.3	91.270	-0.100	-0.150	0.730
2020/01/31 04:34:08.4	91.280	-0.090	-0.200	0.670
2020/01/31 04:34:08.5	91.300	-0.090	-0.240	0.610
2020/01/31 04:34:08.6	91.320	-0.080	-0.290	0.550
2020/01/31 04:34:08.7	91.340	-0.070	-0.340	0.490
2020/01/31 04:34:08.8	91.370	-0.060	-0.390	0.420
2020/01/31 04:34:08.9	91.400	-0.040	-0.440	0.360
2020/01/31 04:34:09.0	91.430	-0.020	-0.490	0.300
2020/01/31 04:34:09.1	91.460	0.010	-0.550	0.240
2020/01/31 04:34:09.2	91.500	0.040	-0.600	0.180
2020/01/31 04:34:09.3	91.540	0.070	-0.650	0.120
2020/01/31 04:34:09.4	91.580	0.100	-0.700	0.070
2020/01/31 04:34:09.5	91.620	0.140	-0.740	0.020
2020/01/31 04:34:09.6	91.660	0.180	-0.780	-0.030
2020/01/31 04:34:09.7	91.690	0.220	-0.820	-0.070
2020/01/31 04:34:09.8	91.730	0.260	-0.860	-0.100
2020/01/31 04:34:09.9	91.770	0.300	-0.890	-0.120
2020/01/31 04:34:10.0	91.800	0.340	-0.910	-0.140
2020/01/31 04:34:10.1	91.840	0.380	-0.930	-0.150
2020/01/31 04:34:10.2	91.860	0.420	-0.940	-0.150
2020/01/31 04:34:10.3	91.890	0.460	-0.950	-0.140
2020/01/31 04:34:10.4	91.900	0.490	-0.940	-0.130
2020/01/31 04:34:10.5	91.920	0.520	-0.930	-0.100
2020/01/31 04:34:10.6	91.930	0.550	-0.900	-0.070
2020/01/31 04:34:10.7	91.930	0.570	-0.870	-0.030
2020/01/31 04:34:10.8	91.930	0.580	-0.830	0.010
2020/01/31 04:34:10.9	91.920	0.590	-0.780	0.050
2020/01/31 04:34:11.0	91.920	0.590	-0.720	0.110
2020/01/31 04:34:11.1	91.910	0.580	-0.650	0.170
2020/01/31 04:34:11.2	91.900	0.570	-0.570	0.220
2020/01/31 04:34:11.3	91.890	0.550	-0.490	0.280
2020/01/31 04:34:11.4	91.870	0.520	-0.410	0.340
2020/01/31 04:34:11.5	91.860	0.490	-0.310	0.400
2020/01/31 04:34:11.6	91.840	0.450	-0.220	0.460
2020/01/31 04:34:11.7	91.830	0.400	-0.120	0.520
2020/01/31 04:34:11.8	91.810	0.350	-0.020	0.580
2020/01/31 04:34:11.9	91.790	0.300	0.090	0.630
2020/01/31 04:34:12.0	91.770	0.230	0.190	0.680
2020/01/31 04:34:12.1	91.750	0.170	0.290	0.730
2020/01/31 04:34:12.2	91.730	0.100	0.390	0.780
2020/01/31 04:34:12.3	91.710	0.030	0.490	0.820
2020/01/31 04:34:12.4	91.700	-0.050	0.580	0.860
2020/01/31 04:34:12.5	91.680	-0.120	0.670	0.890
2020/01/31 04:34:12.6	91.660	-0.200	0.750	0.920
2020/01/31 04:34:12.7	91.650	-0.270	0.820	0.950
2020/01/31 04:34:12.8	91.640	-0.350	0.890	0.970
2020/01/31 04:34:12.9	91.620	-0.420	0.950	0.990
2020/01/31 04:34:13.0	91.610	-0.480	1.000	1.010
2020/01/31 04:34:13.1	91.600	-0.550	1.030	1.030
2020/01/31 04:34:13.2	91.590	-0.600	1.060	1.040
2020/01/31 04:34:13.3	91.590	-0.650	1.070	1.050
2020/01/31 04:34:13.4	91.580	-0.700	1.070	1.060
2020/01/31 04:34:13.5	91.570	-0.740	1.060	1.060
2020/01/31 04:34:13.6	91.570	-0.770	1.040	1.070
2020/01/31 04:34:13.7	91.560	-0.790	1.000	1.070
2020/01/31 04:34:13.8	91.560	-0.810	0.940	1.070
2020/01/31 04:34:13.9	91.560	-0.810	0.880	1.060
2020/01/31 04:34:14.0	91.550	-0.810	0.800	1.060
2020/01/31 04:34:14.1	91.550	-0.800	0.710	1.050
2020/01/31 04:34:14.2	91.550	-0.780	0.610	1.030
2020/01/31 04:34:14.3	91.560	-0.760	0.500	1.020
2020/01/31 04:34:14.4	91.560	-0.720	0.390	1.000
2020/01/31 04:34:14.5	91.560	-0.680	0.260	0.990
2020/01/31 04:34:14.6	91.570	-0.640	0.130	0.970
2020/01/31 04:34:14.7	91.570	-0.590	-0.000	0.940
2020/01/31 04:34:14.8	91.580	-0.530	-0.140	0.920
2020/01/31 04:34:14.9	91.590	-0.470	-0.270	0.900
2020/01/31 04:34:15.0	91.590	-0.410	-0.400	0.880
2020/01/31 04:34:15.1	91.600	-0.340	-0.540	0.860
2020/01/31 04:34:15.2	91.610	-0.280	-0.670	0.830
2020/01/31 04:34:15.3	91.620	-0.210	-0.790	0.810
2020/01/31 04:34:15.4	91.630	-0.150	-0.900	0.790
2020/01/31 04:34:15.5	91.640	-0.080	-1.010	0.760
2020/01/31 04:34:15.6	91.640	-0.020	-1.100	0.740
2020/01/31 04:34:15.7	91.650	0.040	-1.190	0.720
2020/01/31 04:34:15.8	91.650	0.100	-1.270	0.710
2020/01/31 04:34:15.9	91.660	0.150	-1.330	0.690
2020/01/31 04:34:16.0	91.660	0.200	-1.380	0.680
2020/01/31 04:34:16.1	91.670	0.250	-1.420	0.680
2020/01/31 04:34:16.2	91.670	0.290	-1.440	0.670
2020/01/31 04:34:16.3	91.670	0.320	-1.450	0.670
2020/01/31 04:34:16.4	91.670	0.350	-1.440	0.670
2020/01/31 04:34:16.5	91.670	0.380	-1.420	0.680
2020/01/31 04:34:16.6	91.670	0.390	-1.390	0.680
2020/01/31 04:34:16.7	91.670	0.400	-1.350	0.690
2020/01/31 04:34:16.8	91.670	0.400	-1.290	0.700
2020/01/31 04:34:16.9	91.670	0.400	-1.220	0.720
2020/01/31 04:34:17.0	91.670	0.390	-1.150	0.730
2020/01/31 04:34:17.1	91.670	0.380	-1.060	0.750
2020/01/31 04:34:17.2	91.670	0.360	-0.960	0.770
2020/01/31 04:34:17.3	91.670	0.330	-0.860	0.790
2020/01/31 04:34:17.4	91.670	0.300	-0.760	0.800
2020/01/31 04:34:17.5	91.670	0.270	-0.650	0.820
2020/01/31 04:34:17.6	91.670	0.230	-0.540	0.840
2020/01/31 04:34:17.7	91.670	0.190	-0.430	0.860
2020/01/31 04:34:17.8	91.670	0.150	-0.320	0.880
2020/01/31 04:34:17.9	91.670	0.110	-0.210	0.890
2020/01/31 04:34:18.0	91.670	0.060	-0.100	0.910
2020/01/31 04:34:18.1	91.670	0.010	0.000	0.920
2020/01/31 04:34:18.2	91.680	-0.030	0.100	0.940
2020/01/31 04:34:18.3	91.680	-0.080	0.190	0.950
2020/01/31 04:34:18.4	91.680	-0.120	0.270	0.950
2020/01/31 04:34:18.5	91.690	-0.160	0.350	0.960
2020/01/31 04:34:18.6	91.690	-0.200	0.420	0.960
2020/01/31 04:34:18.7	91.690	-0.240	0.480	0.960
2020/01/31 04:34:18.8	91.700	-0.280	0.520	0.960
2020/01/31 04:34:18.9	91.700	-0.310	0.560	0.950
2020/01/31 04:34:19.0	91.710	-0.330	0.590	0.950
2020/01/31 04:34:19.1	91.710	-0.360	0.610	0.940
2020/01/31 04:34:19.2	91.710	-0.380	0.620	0.920
2020/01/31 04:34:19.3	91.710	-0.390	0.620	0.910
2020/01/31 04:34:19.4	91.710	-0.400	0.610	0.900
2020/01/31 04:34:19.5	91.710	-0.410	0.590	0.880
2020/01/31 04:34:19.6	91.710	-0.410	0.570	0.860
2020/01/31 04:34:19.7	91.710	-0.410	0.540	0.850
2020/01/31 04:34:19.8	91.700	-0.400	0.500	0.830
2020/01/31 04:34:19.9	91.690	-0.390	0.450	0.820
2020/01/31 04:34:20.0	91.680	-0.370	0.400	0.810
2020/01/31 04:34:20.1	91.680	-0.350	0.340	0.800
2020/01/31 04:34:20.2	91.660	-0.330	0.280	0.800
2020/01/31 04:34:20.3	91.650	-0.300	0.220	0.800
2020/01/31 04:34:20.4	91.630	-0.270	0.150	0.790
2020/01/31 04:34:20.5	91.620	-0.230	0.080	0.800
2020/01/31 04:34:20.6	91.600	-0.190	0.010	0.800
2020/01/31 04:34:20.7	91.580	-0.150	-0.060	0.810
2020/01/31 04:34:20.8	91.560	-0.110	-0.130	0.820
2020/01/31 04:34:20.9	91.550	-0.070	-0.210	0.830
2020/01/31 04:34:21.0	91.530	-0.030	-0.280	0.830
2020/01/31 04:34:21.1	91.510	0.020	-0.360	0.840
2020/01/31 04:34:21.2	91.500	0.060	-0.430	0.850
2020/01/31 04:34:21.3	91.490	0.110	-0.500	0.860
2020/01/31 04:34:21.4	91.480	0.150	-0.560	0.870
2020/01/31 04:34:21.5	91.470	0.200	-0.630	0.870
2020/01/31 04:34:21.6	91.460	0.240	-0.680	0.870
2020/01/31 04:34:21.7	91.460	0.280	-0.740	0.880
2020/01/31 04:34:21.8	91.450	0.310	-0.790	0.880
2020/01/31 04:34:21.9	91.450	0.350	-0.830	0.880
2020/01/31 04:34:22.0	91.450	0.380	-0.870	0.870
2020/01/31 04:34:22.1	91.450	0.410	-0.900	0.870
2020/01/31 04:34:22.2	91.460	0.430	-0.920	0.860
2020/01/31 04:34:22.3	91.460	0.450	-0.930	0.860
2020/01/31 04:34:22.4	91.470	0.460	-0.940	0.850
2020/01/31 04:34:22.5	91.480	0.470	-0.930	0.840
2020/01/31 04:34:22.6	91.480	0.480	-0.920	0.820
2020/01/31 04:34:22.7	91.490	0.480	-0.900	0.810
2020/01/31 04:34:22.8	91.500	0.480	-0.870	0.800
2020/01/31 04:34:22.9	91.500	0.480	-0.830	0.790
2020/01/31 04:34:23.0	91.510	0.470	-0.790	0.780
2020/01/31 04:34:23.1	91.520	0.450	-0.730	0.770
2020/01/31 04:34:23.2	91.530	0.430	-0.670	0.770
2020/01/31 04:34:23.3	91.530	0.410	-0.610	0.760
2020/01/31 04:34:23.4	91.530	0.390	-0.540	0.760
2020/01/31 04:34:23.5	91.530	0.360	-0.470	0.760
2020/01/31 04:34:23.6	91.530	0.340	-0.390	0.760
2020/01/31 04:34:23.7	91.530	0.310	-0.310	0.760
2020/01/31 04:34:23.8	91.530	0.280	-0.230	0.760
2020/01/31 04:34:23.9	91.530	0.250	-0.150	0.770
2020/01/31 04:34:24.0	91.520	0.210	-0.070	0.770
2020/01/31 04:34:24.1	91.520	0.180	0.000	0.790
2020/01/31 04:34:24.2	91.510	0.160	0.070	0.790
2020/01/31 04:34:24.3	91.510	0.130	0.130	0.800
2020/01/31 04:34:24.4	91.510	0.100	0.190	0.800
2020/01/31 04:34:24.5	91.500	0.080	0.240	0.810
2020/01/31 04:34:24.6	91.500	0.060	0.280	0.810
2020/01/31 04:34:24.7	91.500	0.050	0.310	0.810
2020/01/31 04:34:24.8	91.510	0.030	0.330	0.800
2020/01/31 04:34:24.9	91.510	0.030	0.340	0.800
2020/01/31 04:34:25.0	91.520	0.020	0.340	0.790
2020/01/31 04:34:25.1	91.530	0.020	0.340	0.780
2020/01/31 04:34:25.2	91.550	0.030	0.320	0.760
2020/01/31 04:34:25.3	91.560	0.040	0.290	0.750
2020/01/31 04:34:25.4	91.580	0.050	0.250	0.730
2020/01/31 04:34:25.5	91.590	0.070	0.210	0.720
2020/01/31 04:34:25.6	91.610	0.090	0.160	0.710
2020/01/31 04:34:25.7	91.630	0.110	0.100	0.690
2020/01/31 04:34:25.8	91.650	0.140	0.040	0.680
2020/01/31 04:34:25.9	91.660	0.160	-0.030	0.670
2020/01/31 04:34:26.0	91.680	0.190	-0.090	0.660
2020/01/31 04:34:26.1	91.700	0.220	-0.170	0.650
2020/01/31 04:34:26.2	91.710	0.250	-0.240	0.640
2020/01/31 04:34:26.3	91.730	0.280	-0.300	0.630
2020/01/31 04:34:26.4	91.750	0.310	-0.360	0.620
2020/01/31 04:34:26.5	91.760	0.330	-0.420	0.610
2020/01/31 04:34:26.6	91.780	0.360	-0.470	0.610
2020/01/31 04:34:26.7	91.790	0.380	-0.520	0.600
2020/01/31 04:34:26.8	91.800	0.390	-0.560	0.600
2020/01/31 04:34:26.9	91.810	0.410	-0.590	0.590
2020/01/31 04:34:27.0	91.820	0.410	-0.610	0.590
2020/01/31 04:34:27.1	91.830	0.420	-0.620	0.600
2020/01/31 04:34:27.2	91.830	0.420	-0.620	0.600
2020/01/31 04:34:27.3	91.840	0.410	-0.620	0.600
2020/01/31 04:34:27.4	91.840	0.400	-0.600	0.610
2020/01/31 04:34:27.5	91.840	0.390	-0.580	0.620
2020/01/31 04:34:27.6	91.830	0.370	-0.550	0.640
2020/01/31 04:34:27.7	91.830	0.340	-0.510	0.650
2020/01/31 04:34:27.8	91.820	0.310	-0.460	0.670
2020/01/31 04:34:27.9	91.810	0.280	-0.400	0.700
2020/01/31 04:34:28.0	91.800	0.240	-0.340	0.720
2020/01/31 04:34:28.1	91.790	0.190	-0.280	0.750
2020/01/31 04:34:28.2	91.770	0.150	-0.200	0.780
2020/01/31 04:34:28.3	91.760	0.100	-0.130	0.810
2020/01/31 04:34:28.4	91.740	0.050	-0.050	0.840
2020/01/31 04:34:28.5	91.720	-0.000	0.020	0.870
2020/01/31 04:34:28.6	91.700	-0.050	0.100	0.900
2020/01/31 04:34:28.7	91.680	-0.110	0.170	0.930
2020/01/31 04:34:28.8	91.660	-0.160	0.240	0.960
2020/01/31 04:34:28.9	91.640	-0.220	0.310	0.990
2020/01/31 04:34:29.0	91.620	-0.270	0.370	1.020
2020/01/31 04:34:29.1	91.600	-0.320	0.430	1.050
2020/01/31 04:34:29.2	91.580	-0.360	0.480	1.070
2020/01/31 04:34:29.3	91.560	-0.410	0.520	1.100
2020/01/31 04:34:29.4	91.550	-0.450	0.550	1.110
2020/01/31 04:34:29.5	91.530	-0.480	0.570	1.130
2020/01/31 04:34:29.6	91.520	-0.520	0.580	1.140
2020/01/31 04:34:29.7	91.510	-0.540	0.570	1.150
2020/01/31 04:34:29.8				
2020/01/31 04:34:29.9	91.500	-0.560	0.560	1.150
2020/01/31 04:34:30.0	91.490	-0.590	0.500	1.140
2020/01/31 04:34:30.1	91.490	-0.600	0.450	1.130
2020/01/31 04:34:30.2	91.490	-0.600	0.390	1.120
2020/01/31 04:34:30.3	91.500	-0.590	0.320	1.110
2020/01/31 04:34:30.4	91.500	-0.590	0.250	1.090
2020/01/31 04:34:30.5	91.510	-0.570	0.170	1.060
2020/01/31 04:34:30.6	91.520	-0.550	0.080	1.040
2020/01/31 04:34:30.7	91.530	-0.530	-0.020	1.010
2020/01/31 04:34:30.8	91.540	-0.510	-0.120	0.990
2020/01/31 04:34:30.9	91.550	-0.480	-0.220	0.960
2020/01/31 04:34:31.0	91.570	-0.440	-0.320	0.930
2020/01/31 04:34:31.1	91.580	-0.410	-0.430	0.910
2020/01/31 04:34:31.2	91.590	-0.380	-0.530	0.880
2020/01/31 04:34:31.3	91.610	-0.340	-0.630	0.860
2020/01/31 04:34:31.4	91.620	-0.300	-0.730	0.840
2020/01/31 04:34:31.5	91.640	-0.260	-0.820	0.820
2020/01/31 04:34:31.6	91.650	-0.220	-0.910	0.800
2020/01/31 04:34:31.7	91.660	-0.190	-0.980	0.780
2020/01/31 04:34:31.8	91.670	-0.150	-1.050	0.770
2020/01/31 04:34:31.9	91.680	-0.120	-1.120	0.760
2020/01/31 04:34:32.0	91.690	-0.090	-1.170	0.760
2020/01/31 04:34:32.1	91.700	-0.060	-1.210	0.750
2020/01/31 04:34:32.2	91.700	-0.030	-1.240	0.750
2020/01/31 04:34:32.3	91.700	-0.000	-1.260	0.760
2020/01/31 04:34:32.4	91.700	0.020	-1.260	0.760
2020/01/31 04:34:32.5	91.700	0.030	-1.260	0.770
2020/01/31 04:34:32.6	91.700	0.050	-1.240	0.780
2020/01/31 04:34:32.7	91.690	0.060	-1.200	0.790
2020/01/31 04:34:32.8	91.680	0.060	-1.160	0.810
2020/01/31 04:34:32.9	91.670	0.060	-1.110	0.820
2020/01/31 04:34:33.0	91.650	0.060	-1.040	0.840
2020/01/31 04:34:33.1	91.640	0.060	-0.960	0.860
2020/01/31 04:34:33.2	91.620	0.050	-0.870	0.880
2020/01/31 04:34:33.3	91.600	0.030	-0.780	0.900
2020/01/31 04:34:33.4	91.580	0.010	-0.670	0.910
2020/01/31 04:34:33.5	91.560	-0.010	-0.560	0.930
2020/01/31 04:34:33.6	91.530	-0.030	-0.450	0.950
2020/01/31 04:34:33.7	91.500	-0.060	-0.330	0.960
2020/01/31 04:34:33.8	91.480	-0.090	-0.210	0.980
2020/01/31 04:34:33.9	91.450	-0.120	-0.090	1.000
2020/01/31 04:34:34.0	91.420	-0.150	0.030	1.010
2020/01/31 04:34:34.1	91.400	-0.180	0.150	1.030
2020/01/31 04:34:34.2	91.370	-0.210	0.260	1.040
2020/01/31 04:34:34.3	91.350	-0.250	0.370	1.050
2020/01/31 04:34:34.4	91.320	-0.280	0.470	1.050
2020/01/31 04:34:34.5	91.300	-0.310	0.560	1.060
2020/01/31 04:34:34.6	91.280	-0.330	0.650	1.060
2020/01/31 04:34:34.7	91.260	-0.360	0.720	1.060
2020/01/31 04:34:34.8	91.250	-0.380	0.790	1.050
2020/01/31 04:34:34.9	91.240	-0.400	0.840	1.040
2020/01/31 04:34:35.0	91.230	-0.410	0.880	1.020
2020/01/31 04:34:35.1	91.230	-0.430	0.910	1.000
2020/01/31 04:34:35.2	91.220	-0.430	0.930	0.970
2020/01/31 04:34:35.3	91.220	-0.440	0.940	0.940
2020/01/31 04:34:35.4	91.230	-0.430	0.930	0.900
2020/01/31 04:34:35.5	91.230	-0.430	0.910	0.860
2020/01/31 04:34:35.6	91.240	-0.410	0.880	0.810
2020/01/31 04:34:35.7	91.250	-0.400	0.840	0.750
2020/01/31 04:34:35.8	91.260	-0.380	0.780	0.690
2020/01/31 04:34:35.9	91.270	-0.350	0.710	0.630
2020/01/31 04:34:36.0	91.290	-0.320	0.640	0.570
2020/01/31 04:34:36.1	91.300	-0.280	0.550	0.500
2020/01/31 04:34:36.2	91.320	-0.240	0.450	0.430
2020/01/31 04:34:36.3	91.340	-0.190	0.350	0.350
2020/01/31 04:34:36.4	91.360	-0.140	0.240	0.280
2020/01/31 04:34:36.5	91.370	-0.090	0.120	0.210
2020/01/31 04:34:36.6	91.390	-0.030	-0.000	0.140
2020/01/31 04:34:36.7	91.410	0.030	-0.120	0.080
2020/01/31 04:34:36.8	91.420	0.100	-0.250	0.020
2020/01/31 04:34:36.9	91.440	0.170	-0.380	-0.040
2020/01/31 04:34:37.0	91.450	0.240	-0.500	-0.080
2020/01/31 04:34:37.1	91.470	0.310	-0.630	-0.130
2020/01/31 04:34:37.2	91.480	0.380	-0.750	-0.160
2020/01/31 04:34:37.3	91.490	0.450	-0.860	-0.190
2020/01/31 04:34:37.4	91.500	0.520	-0.970	-0.210
2020/01/31 04:34:37.5	91.500	0.590	-1.080	-0.220
2020/01/31 04:34:37.6	91.510	0.660	-1.170	-0.230
2020/01/31 04:34:37.7	91.510	0.720	-1.260	-0.230
2020/01/31 04:34:37.8	91.520	0.780	-1.340	-0.230
2020/01/31 04:34:37.9	91.520	0.840	-1.410	-0.210
2020/01/31 04:34:38.0	91.530	0.900	-1.470	-0.200
2020/01/31 04:34:38.1	91.540	0.950	-1.510	-0.180
2020/01/31 04:34:38.2	91.540	0.990	-1.550	-0.160
2020/01/31 04:34:38.3	91.550	1.030	-1.570	-0.130
2020/01/31 04:34:38.4	91.550	1.060	-1.580	-0.100
2020/01/31 04:34:38.5	91.560	1.080	-1.580	-0.070
2020/01/31 04:34:38.6	91.560	1.100	-1.570	-0.030
2020/01/31 04:34:38.7	91.570	1.110	-1.540	0.010
2020/01/31 04:34:38.8	91.570	1.110	-1.500	0.050
2020/01/31 04:34:38.9	91.570	1.110	-1.450	0.100
2020/01/31 04:34:39.0	91.570	1.100	-1.380	0.140
2020/01/31 04:34:39.1	91.570	1.070	-1.310	0.200
2020/01/31 04:34:39.2	91.570	1.040	-1.220	0.250
2020/01/31 04:34:39.3	91.570	1.010	-1.120	0.310
2020/01/31 04:34:39.4	91.580	0.960	-1.010	0.360
2020/01/31 04:34:39.5	91.580	0.910	-0.890	0.420
2020/01/31 04:34:39.6	91.580	0.850	-0.760	0.480
2020/01/31 04:34:39.7	91.580	0.780	-0.630	0.540
2020/01/31 04:34:39.8	91.580	0.710	-0.490	0.610
2020/01/31 04:34:39.9	91.580	0.630	-0.340	0.670
2020/01/31 04:34:40.0	91.590	0.550	-0.190	0.740
2020/01/31 04:34:40.1	91.590	0.460	-0.040	0.800
2020/01/31 04:34:40.2	91.590	0.370	0.120	0.870
2020/01/31 04:34:40.3	91.590	0.270	0.270	0.930
2020/01/31 04:34:40.4	91.600	0.170	0.420	0.990
2020/01/31 04:34:40.5	91.600	0.070	0.570	1.050
2020/01/31 04:34:40.6	91.600	-0.030	0.720	1.110
2020/01/31 04:34:40.7	91.610	-0.130	0.850	1.160
2020/01/31 04:34:40.8	91.610	-0.240	0.990	1.210
2020/01/31 04:34:40.9	91.620	-0.340	1.110	1.260
2020/01/31 04:34:41.0	91.630	-0.440	1.220	1.300
2020/01/31 04:34:41.1	91.630	-0.540	1.320	1.340
2020/01/31 04:34:41.2	91.640	-0.630	1.410	1.370
2020/01/31 04:34:41.3	91.650	-0.720	1.490	1.400
2020/01/31 04:34:41.4	91.650	-0.800	1.550	1.420
2020/01/31 04:34:41.5	91.660	-0.880	1.600	1.440
2020/01/31 04:34:41.6	91.660	-0.950	1.630	1.450
2020/01/31 04:34:41.7	91.660	-1.010	1.640	1.460
2020/01/31 04:34:41.8	91.670	-1.070	1.630	1.470
2020/01/31 04:34:41.9	91.670	-1.110	1.610	1.470
2020/01/31 04:34:42.0	91.670	-1.150	1.570	1.470
2020/01/31 04:34:42.1	91.670	-1.170	1.510	1.470
2020/01/31 04:34:42.2	91.660	-1.190	1.440	1.470
2020/01/31 04:34:42.3	91.660	-1.200	1.340	1.470
2020/01/31 04:34:42.4				
2020/01/31 04:34:42.5	91.650	-1.190	1.230	1.470
2020/01/31 04:34:42.6	91.630	-1.150	0.970	1.460
2020/01/31 04:34:42.7	91.630	-1.110	0.820	1.450
2020/01/31 04:34:42.8	91.620	-1.070	0.660	1.440
2020/01/31 04:34:42.9	91.610	-1.010	0.490	1.430
2020/01/31 04:34:43.0	91.600	-0.950	0.310	1.410
2020/01/31 04:34:43.1	91.590	-0.880	0.120	1.400
2020/01/31 04:34:43.2	91.590	-0.810	-0.070	1.380
2020/01/31 04:34:43.3	91.580	-0.720	-0.250	1.360
2020/01/31 04:34:43.4	91.580	-0.640	-0.440	1.330
2020/01/31 04:34:43.5	91.580	-0.550	-0.630	1.310
2020/01/31 04:34:43.6	91.580	-0.450	-0.820	1.280
2020/01/31 04:34:43.7	91.580	-0.350	-0.990	1.240
2020/01/31 04:34:43.8	91.590	-0.260	-1.160	1.210
2020/01/31 04:34:43.9	91.600	-0.160	-1.320	1.170
2020/01/31 04:34:44.0	91.600	-0.060	-1.470	1.130
2020/01/31 04:34:44.1	91.620	0.040	-1.610	1.100
2020/01/31 04:34:44.2	91.630	0.140	-1.730	1.060
2020/01/31 04:34:44.3	91.640	0.230	-1.840	1.020
2020/01/31 04:34:44.4	91.660	0.320	-1.930	0.980
2020/01/31 04:34:44.5	91.680	0.410	-2.010	0.940
2020/01/31 04:34:44.6	91.690	0.490	-2.060	0.910
2020/01/31 04:34:44.7	91.710	0.570	-2.100	0.870
2020/01/31 04:34:44.8	91.730	0.640	-2.120	0.840
2020/01/31 04:34:44.9	91.750	0.700	-2.120	0.810
2020/01/31 04:34:45.0	91.770	0.750	-2.100	0.780
2020/01/31 04:34:45.1	91.790	0.800	-2.060	0.750
2020/01/31 04:34:45.2	91.810	0.840	-2.010	0.730
2020/01/31 04:34:45.3	91.830	0.870	-1.940	0.700
2020/01/31 04:34:45.4	91.850	0.890	-1.850	0.690
2020/01/31 04:34:45.5	91.880	0.910	-1.750	0.670
2020/01/31 04:34:45.6	91.900	0.910	-1.630	0.650
2020/01/31 04:34:45.7	91.920	0.910	-1.500	0.640
2020/01/31 04:34:45.8	91.940	0.900	-1.370	0.630
2020/01/31 04:34:45.9	91.960	0.880	-1.220	0.630
2020/01/31 04:34:46.0	91.980	0.850	-1.070	0.620
2020/01/31 04:34:46.1	92.000	0.820	-0.900	0.620
2020/01/31 04:34:46.2	92.020	0.780	-0.740	0.620
2020/01/31 04:34:46.3	92.040	0.730	-0.570	0.620
2020/01/31 04:34:46.4	92.060	0.680	-0.410	0.620
2020/01/31 04:34:46.5	92.080	0.620	-0.240	0.620
2020/01/31 04:34:46.6				
2020/01/31 04:34:46.7	92.100	0.560	-0.080	0.620
2020/01/31 04:34:46.8	92.120	0.430	0.230	0.620
2020/01/31 04:34:46.9	92.130	0.360	0.380	0.620
2020/01/31 04:34:47.0	92.140	0.290	0.520	0.630
2020/01/31 04:34:47.1	92.140	0.220	0.650	0.630
2020/01/31 04:34:47.2	92.150	0.150	0.770	0.640
2020/01/31 04:34:47.3	92.150	0.080	0.890	0.650
2020/01/31 04:34:47.4	92.140	0.010	0.990	0.650
2020/01/31 04:34:47.5	92.140	-0.060	1.070	0.660
2020/01/31 04:34:47.6	92.130	-0.130	1.150	0.660
2020/01/31 04:34:47.7	92.120	-0.200	1.210	0.670
2020/01/31 04:34:47.8	92.100	-0.260	1.260	0.680
2020/01/31 04:34:47.9	92.090	-0.310	1.300	0.690
2020/01/31 04:34:48.0	92.070	-0.370	1.320	0.690
2020/01/31 04:34:48.1	92.060	-0.410	1.330	0.700
2020/01/31 04:34:48.2	92.040	-0.460	1.320	0.710
2020/01/31 04:34:48.3	92.020	-0.490	1.300	0.710
2020/01/31 04:34:48.4	92.000	-0.530	1.270	0.720
2020/01/31 04:34:48.5	91.990	-0.550	1.220	0.720
2020/01/31 04:34:48.6	91.970	-0.570	1.160	0.730
2020/01/31 04:34:48.7	91.950	-0.590	1.090	0.730
2020/01/31 04:34:48.8	91.940	-0.600	1.010	0.730
2020/01/31 04:34:48.9	91.930	-0.600	0.920	0.740
2020/01/31 04:34:49.0	91.920	-0.600	0.820	0.740
2020/01/31 04:34:49.1	91.910	-0.590	0.710	0.740
2020/01/31 04:34:49.2	91.900	-0.580	0.600	0.740
2020/01/31 04:34:49.3	91.900	-0.560	0.480	0.740
2020/01/31 04:34:49.4	91.900	-0.540	0.360	0.740
2020/01/31 04:34:49.5	91.900	-0.510	0.240	0.730
2020/01/31 04:34:49.6	91.900	-0.480	0.110	0.730
2020/01/31 04:34:49.7	91.900	-0.450	-0.010	0.720
2020/01/31 04:34:49.8	91.910	-0.420	-0.140	0.710
2020/01/31 04:34:49.9	91.910	-0.380	-0.260	0.700
2020/01/31 04:34:50.0	91.920	-0.340	-0.380	0.680
2020/01/31 04:34:50.1	91.930	-0.300	-0.490	0.670
2020/01/31 04:34:50.2	91.940	-0.250	-0.600	0.650
2020/01/31 04:34:50.3	91.950	-0.210	-0.700	0.630
2020/01/31 04:34:50.4	91.970	-0.170	-0.800	0.620
2020/01/31 04:34:50.5	91.980	-0.120	-0.880	0.600
2020/01/31 04:34:50.6	91.990	-0.080	-0.960	0.580
2020/01/31 04:34:50.7	92.000	-0.040	-1.030	0.570
2020/01/31 04:34:50.8	92.010	-0.000	-1.100	0.550
2020/01/31 04:34:50.9	92.020	0.040	-1.150	0.530
2020/01/31 04:34:51.0	92.030	0.070	-1.190	0.520
2020/01/31 04:34:51.1	92.040	0.100	-1.220	0.510
2020/01/31 04:34:51.2	92.050	0.130	-1.240	0.490
2020/01/31 04:34:51.3	92.060	0.160	-1.260	0.480
2020/01/31 04:34:51.4	92.070	0.180	-1.260	0.470
2020/01/31 04:34:51.5	92.080	0.200	-1.260	0.460
2020/01/31 04:34:51.6	92.080	0.210	-1.240	0.450
2020/01/31 04:34:51.7	92.090	0.230	-1.220	0.450
2020/01/31 04:34:51.8	92.090	0.230	-1.190	0.440
2020/01/31 04:34:51.9	92.100	0.240	-1.160	0.440
2020/01/31 04:34:52.0	92.110	0.240	-1.110	0.440
2020/01/31 04:34:52.1	92.110	0.240	-1.070	0.450
2020/01/31 04:34:52.2	92.120	0.240	-1.020	0.450
2020/01/31 04:34:52.3	92.120	0.230	-0.960	0.460
2020/01/31 04:34:52.4	92.130	0.220	-0.900	0.470
2020/01/31 04:34:52.5	92.130	0.210	-0.840	0.480
2020/01/31 04:34:52.6	92.130	0.190	-0.770	0.490
2020/01/31 04:34:52.7	92.140	0.180	-0.710	0.500
2020/01/31 04:34:52.8	92.140	0.160	-0.640	0.520
2020/01/31 04:34:52.9				
2020/01/31 04:34:53.0	92.140	0.150	-0.570	0.530
2020/01/31 04:34:53.1	92.140	0.110	-0.430	0.560
2020/01/31 04:34:53.2	92.140	0.090	-0.360	0.580
2020/01/31 04:34:53.3	92.140	0.070	-0.300	0.600
2020/01/31 04:34:53.4	92.140	0.050	-0.230	0.620
2020/01/31 04:34:53.5	92.140	0.030	-0.170	0.640
2020/01/31 04:34:53.6	92.130	0.020	-0.100	0.650
2020/01/31 04:34:53.7	92.130	-0.000	-0.040	0.670
2020/01/31 04:34:53.8	92.130	-0.020	0.020	0.690
2020/01/31 04:34:53.9	92.130	-0.040	0.070	0.710
2020/01/31 04:34:54.0	92.120	-0.050	0.130	0.730
2020/01/31 04:34:54.1	92.120	-0.070	0.180	0.750
2020/01/31 04:34:54.2	92.120	-0.080	0.230	0.770
2020/01/31 04:34:54.3	92.120	-0.090	0.270	0.790
2020/01/31 04:34:54.4	92.120	-0.100	0.320	0.810
2020/01/31 04:34:54.5	92.110	-0.110	0.360	0.830
2020/01/31 04:34:54.6	92.110	-0.120	0.390	0.840
2020/01/31 04:34:54.7	92.110	-0.130	0.420	0.860
2020/01/31 04:34:54.8	92.110	-0.130	0.450	0.870
2020/01/31 04:34:54.9	92.110	-0.140	0.470	0.880
2020/01/31 04:34:55.0				
2020/01/31 04:34:55.1	92.110	-0.140	0.490	0.890
2020/01/31 04:34:55.2	92.110	-0.140	0.510	0.900
2020/01/31 04:34:55.3	92.110	-0.140	0.510	0.900
2020/01/31 04:34:55.4	92.110	-0.140	0.510	0.900
2020/01/31 04:34:55.5	92.110	-0.140	0.510	0.900
2020/01/31 04:34:55.6	92.110	-0.140	0.500	0.890
2020/01/31 04:34:55.7	92.110	-0.140	0.480	0.880
2020/01/31 04:34:55.8	92.110	-0.130	0.460	0.870
2020/01/31 04:34:55.9	92.110	-0.130	0.430	0.850
2020/01/31 04:34:56.0	92.120	-0.120	0.410	0.830
2020/01/31 04:34:56.1	92.120	-0.120	0.370	0.820
2020/01/31 04:34:56.2	92.120	-0.110	0.340	0.800
2020/01/31 04:34:56.3	92.120	-0.100	0.300	0.770
2020/01/31 04:34:56.4	92.120	-0.100	0.250	0.750
2020/01/31 04:34:56.5	92.120	-0.090	0.210	0.720
2020/01/31 04:34:56.6	92.120	-0.080	0.160	0.700
2020/01/31 04:34:56.7	92.120	-0.070	0.100	0.670
2020/01/31 04:34:56.8	92.120	-0.060	0.050	0.650
2020/01/31 04:34:56.9	92.110	-0.040	-0.000	0.620
2020/01/31 04:34:57.0	92.110	-0.030	-0.060	0.600
2020/01/31 04:34:57.1	92.110	-0.010	-0.120	0.570
2020/01/31 04:34:57.2	92.100	0.000	-0.180	0.550
2020/01/31 04:34:57.3	92.100	0.020	-0.230	0.520
2020/01/31 04:34:57.4	92.090	0.040	-0.290	0.500
2020/01/31 04:34:57.5	92.090	0.060	-0.350	0.480
2020/01/31 04:34:57.6	92.080	0.080	-0.400	0.460
2020/01/31 04:34:57.7	92.080	0.100	-0.450	0.440
2020/01/31 04:34:57.8	92.080	0.120	-0.510	0.420
2020/01/31 04:34:57.9	92.080	0.140	-0.550	0.400
2020/01/31 04:34:58.0	92.080	0.160	-0.600	0.380
2020/01/31 04:34:58.1	92.090	0.190	-0.640	0.360
2020/01/31 04:34:58.2	92.090	0.210	-0.680	0.340
2020/01/31 04:34:58.3	92.100	0.240	-0.720	0.320
2020/01/31 04:34:58.4	92.110	0.260	-0.750	0.310
2020/01/31 04:34:58.5	92.110	0.280	-0.780	0.300
2020/01/31 04:34:58.6	92.120	0.310	-0.800	0.280
2020/01/31 04:34:58.7	92.130	0.330	-0.820	0.270
2020/01/31 04:34:58.8	92.150	0.350	-0.840	0.270
2020/01/31 04:34:58.9	92.160	0.380	-0.850	0.260
2020/01/31 04:34:59.0	92.170	0.400	-0.860	0.250
2020/01/31 04:34:59.1	92.180	0.420	-0.870	0.260
2020/01/31 04:34:59.2				
2020/01/31 04:34:59.3	92.200	0.430	-0.870	0.260
2020/01/31 04:34:59.4	92.220	0.460	-0.870	0.270
2020/01/31 04:34:59.5	92.230	0.480	-0.870	0.280
2020/01/31 04:34:59.6	92.250	0.490	-0.860	0.290
2020/01/31 04:34:59.7	92.260	0.500	-0.860	0.300
2020/01/31 04:34:59.8	92.270	0.500	-0.840	0.320
2020/01/31 04:34:59.9	92.280	0.510	-0.830	0.350
2020/01/31 04:35:00.0	92.290	0.510	-0.820	0.370
2020/01/31 04:35:00.1	92.290	0.510	-0.800	0.410
2020/01/31 04:35:00.2	92.300	0.510	-0.780	0.440
2020/01/31 04:35:00.3	92.300	0.500	-0.750	0.480
2020/01/31 04:35:00.4	92.300	0.500	-0.730	0.520
2020/01/31 04:35:00.5	92.300	0.490	-0.700	0.560
2020/01/31 04:35:00.6	92.300	0.470	-0.660	0.610
2020/01/31 04:35:00.7	92.300	0.460	-0.620	0.650
2020/01/31 04:35:00.8	92.300	0.440	-0.580	0.700
2020/01/31 04:35:00.9	92.290	0.420	-0.540	0.750
2020/01/31 04:35:01.0	92.290	0.400	-0.490	0.800
2020/01/31 04:35:01.1	92.280	0.370	-0.440	0.850
2020/01/31 04:35:01.2	92.280	0.340	-0.380	0.890
2020/01/31 04:35:01.3				
2020/01/31 04:35:01.4	92.270	0.300	-0.330	0.930
2020/01/31 04:35:01.5	92.260	0.230	-0.200	1.010
2020/01/31 04:35:01.6	92.250	0.190	-0.140	1.050
2020/01/31 04:35:01.7	92.240	0.140	-0.070	1.080
2020/01/31 04:35:01.8	92.240	0.100	-0.010	1.110
2020/01/31 04:35:01.9	92.230	0.050	0.060	1.140
2020/01/31 04:35:02.0	92.230	0.000	0.120	1.160
2020/01/31 04:35:02.1	92.220	-0.050	0.190	1.190
2020/01/31 04:35:02.2	92.220	-0.100	0.250	1.200
2020/01/31 04:35:02.3	92.210	-0.150	0.320	1.220
2020/01/31 04:35:02.4	92.210	-0.210	0.370	1.230
2020/01/31 04:35:02.5	92.210	-0.260	0.430	1.250
2020/01/31 04:35:02.6	92.210	-0.310	0.480	1.260
2020/01/31 04:35:02.7	92.200	-0.370	0.530	1.260
2020/01/31 04:35:02.8	92.200	-0.420	0.570	1.270
2020/01/31 04:35:02.9	92.200	-0.470	0.610	1.280
2020/01/31 04:35:03.0	92.200	-0.510	0.640	1.280
2020/01/31 04:35:03.1	92.200	-0.560	0.670	1.280
2020/01/31 04:35:03.2	92.210	-0.600	0.690	1.280
2020/01/31 04:35:03.3	92.210	-0.640	0.700	1.280
2020/01/31 04:35:03.4				
2020/01/31 04:35:03.5	92.210	-0.670	0.710	1.280
2020/01/31 04:35:03.6	92.210	-0.740	0.700	1.270
2020/01/31 04:35:03.7	92.210	-0.760	0.690	1.260
2020/01/31 04:35:03.8	92.210	-0.780	0.670	1.260
2020/01/31 04:35:03.9	92.210	-0.800	0.640	1.250
2020/01/31 04:35:04.0	92.210	-0.810	0.600	1.240
2020/01/31 04:35:04.1	92.210	-0.820	0.570	1.230
2020/01/31 04:35:04.2	92.200	-0.820	0.520	1.210
2020/01/31 04:35:04.3	92.200	-0.820	0.470	1.190
2020/01/31 04:35:04.4	92.190	-0.810	0.420	1.180
2020/01/31 04:35:04.5	92.180	-0.800	0.360	1.160
2020/01/31 04:35:04.6	92.180	-0.790	0.300	1.130
2020/01/31 04:35:04.7	92.170	-0.770	0.230	1.110
2020/01/31 04:35:04.8	92.160	-0.740	0.160	1.080
2020/01/31 04:35:04.9	92.150	-0.710	0.090	1.050
2020/01/31 04:35:05.0	92.140	-0.680	0.010	1.010
2020/01/31 04:35:05.1	92.130	-0.640	-0.070	0.970
2020/01/31 04:35:05.2	92.130	-0.590	-0.150	0.930
2020/01/31 04:35:05.3	92.130	-0.550	-0.230	0.890
2020/01/31 04:35:05.4	92.120	-0.500	-0.310	0.850
2020/01/31 04:35:05.5				
2020/01/31 04:35:05.6	92.120	-0.440	-0.390	0.800
2020/01/31 04:35:05.7	92.130	-0.320	-0.560	0.710
2020/01/31 04:35:05.8	92.130	-0.260	-0.640	0.660
2020/01/31 04:35:05.9	92.140	-0.200	-0.720	0.610
2020/01/31 04:35:06.0	92.150	-0.130	-0.800	0.570
2020/01/31 04:35:06.1	92.170	-0.060	-0.880	0.530
2020/01/31 04:35:06.2	92.180	0.000	-0.950	0.480
2020/01/31 04:35:06.3	92.200	0.070	-1.020	0.450
2020/01/31 04:35:06.4	92.210	0.140	-1.090	0.410
2020/01/31 04:35:06.5	92.230	0.210	-1.150	0.380
2020/01/31 04:35:06.6	92.250	0.280	-1.210	0.350
2020/01/31 04:35:06.7	92.260	0.340	-1.260	0.330
2020/01/31 04:35:06.8	92.280	0.410	-1.300	0.320
2020/01/31 04:35:06.9	92.290	0.470	-1.340	0.300
2020/01/31 04:35:07.0	92.300	0.530	-1.370	0.300
2020/01/31 04:35:07.1	92.310	0.580	-1.390	0.300
2020/01/31 04:35:07.2	92.320	0.630	-1.400	0.300
2020/01/31 04:35:07.3	92.320	0.670	-1.400	0.310
2020/01/31 04:35:07.4	92.320	0.710	-1.380	0.310
2020/01/31 04:35:07.5	92.320	0.740	-1.360	0.320
2020/01/31 04:35:07.6				
2020/01/31 04:35:07.7	92.320	0.770	-1.320	0.330
2020/01/31 04:35:07.8	92.310	0.800	-1.220	0.350
2020/01/31 04:35:07.9	92.300	0.810	-1.150	0.360
2020/01/31 04:35:08.0	92.290	0.810	-1.080	0.370
2020/01/31 04:35:08.1	92.270	0.800	-0.990	0.380
2020/01/31 04:35:08.2	92.250	0.790	-0.890	0.390
2020/01/31 04:35:08.3	92.230	0.770	-0.790	0.390
2020/01/31 04:35:08.4	92.210	0.740	-0.680	0.400
2020/01/31 04:35:08.5	92.190	0.710	-0.560	0.400
2020/01/31 04:35:08.6	92.160	0.670	-0.440	0.410
2020/01/31 04:35:08.7	92.140	0.630	-0.310	0.420
2020/01/31 04:35:08.8	92.110	0.580	-0.180	0.430
2020/01/31 04:35:08.9	92.080	0.530	-0.050	0.440
2020/01/31 04:35:09.0	92.050	0.470	0.080	0.450
2020/01/31 04:35:09.1	92.020	0.410	0.210	0.460
2020/01/31 04:35:09.2	91.990	0.350	0.330	0.470
2020/01/31 04:35:09.3	91.960	0.290	0.450	0.490
2020/01/31 04:35:09.4	91.930	0.230	0.570	0.500
2020/01/31 04:35:09.5	91.900	0.160	0.670	0.520
2020/01/31 04:35:09.6	91.870	0.100	0.770	0.540
2020/01/31 04:35:09.7				
2020/01/31 04:35:09.8	91.840	0.040	0.860	0.560
2020/01/31 04:35:09.9	91.800	-0.080	1.010	0.590
2020/01/31 04:35:10.0	91.780	-0.130	1.060	0.610
2020/01/31 04:35:10.1	91.760	-0.180	1.100	0.630
2020/01/31 04:35:10.2	91.750	-0.230	1.130	0.650
2020/01/31 04:35:10.3	91.740	-0.270	1.150	0.660
2020/01/31 04:35:10.4	91.730	-0.310	1.150	0.670
2020/01/31 04:35:10.5	91.720	-0.340	1.140	0.680
2020/01/31 04:35:10.6	91.710	-0.370	1.120	0.690
2020/01/31 04:35:10.7	91.710	-0.390	1.080	0.700
2020/01/31 04:35:10.8	91.710	-0.400	1.030	0.700
2020/01/31 04:35:10.9	91.720	-0.410	0.970	0.700
2020/01/31 04:35:11.0	91.720	-0.420	0.890	0.700
2020/01/31 04:35:11.1	91.730	-0.420	0.800	0.690
2020/01/31 04:35:11.2	91.730	-0.410	0.710	0.690
2020/01/31 04:35:11.3	91.740	-0.390	0.600	0.670
2020/01/31 04:35:11.4	91.760	-0.370	0.490	0.660
2020/01/31 04:35:11.5	91.770	-0.350	0.370	0.640
2020/01/31 04:35:11.6	91.780	-0.320	0.240	0.610
2020/01/31 04:35:11.7	91.800	-0.290	0.110	0.590
2020/01/31 04:35:11.8				
2020/01/31 04:35:11.9	91.820	-0.250	-0.030	0.560
2020/01/31 04:35:12.0	91.860	-0.170	-0.310	0.500
2020/01/31 04:35:12.1	91.880	-0.120	-0.450	0.460
2020/01/31 04:35:12.2	91.900	-0.070	-0.580	0.430
2020/01/31 04:35:12.3	91.920	-0.020	-0.720	0.400
2020/01/31 04:35:12.4	91.940	0.020	-0.840	0.370
2020/01/31 04:35:12.5	91.970	0.070	-0.960	0.340
2020/01/31 04:35:12.6	91.990	0.120	-1.070	0.310
2020/01/31 04:35:12.7	92.010	0.170	-1.180	0.290
2020/01/31 04:35:12.8	92.030	0.220	-1.270	0.280
2020/01/31 04:35:12.9	92.050	0.260	-1.350	0.270
2020/01/31 04:35:13.0	92.060	0.300	-1.420	0.270
2020/01/31 04:35:13.1	92.080	0.340	-1.480	0.270
2020/01/31 04:35:13.2	92.090	0.370	-1.520	0.280
2020/01/31 04:35:13.3	92.100	0.400	-1.550	0.300
2020/01/31 04:35:13.4	92.110	0.430	-1.570	0.320
2020/01/31 04:35:13.5	92.110	0.450	-1.570	0.350
2020/01/31 04:35:13.6	92.110	0.470	-1.560	0.390
2020/01/31 04:35:13.7	92.100	0.480	-1.530	0.430
2020/01/31 04:35:13.8	92.100	0.480	-1.490	0.480
2020/01/31 04:35:13.9				
2020/01/31 04:35:14.0	92.090	0.480	-1.440	0.530
2020/01/31 04:35:14.1	92.060	0.460	-1.290	0.650
2020/01/31 04:35:14.2	92.050	0.450	-1.200	0.710
2020/01/31 04:35:14.3	92.030	0.420	-1.100	0.770
2020/01/31 04:35:14.4	92.010	0.390	-0.990	0.840
2020/01/31 04:35:14.5	91.990	0.360	-0.870	0.900
2020/01/31 04:35:14.6	91.980	0.320	-0.750	0.970
2020/01/31 04:35:14.7	91.950	0.280	-0.620	1.030
2020/01/31 04:35:14.8	91.930	0.230	-0.490	1.100
2020/01/31 04:35:14.9	91.910	0.170	-0.350	1.160
2020/01/31 04:35:15.0	91.890	0.120	-0.210	1.220
2020/01/31 04:35:15.1	91.870	0.060	-0.080	1.280
2020/01/31 04:35:15.2	91.850	-0.000	0.060	1.330
2020/01/31 04:35:15.3	91.820	-0.070	0.190	1.390
2020/01/31 04:35:15.4	91.800	-0.130	0.320	1.430
2020/01/31 04:35:15.5	91.780	-0.200	0.440	1.470
2020/01/31 04:35:15.6	91.760	-0.270	0.550	1.510
2020/01/31 04:35:15.7	91.730	-0.330	0.660	1.550
2020/01/31 04:35:15.8	91.710	-0.400	0.760	1.580
2020/01/31 04:35:15.9	91.690	-0.460	0.840	1.600
2020/01/31 04:35:16.0				
2020/01/31 04:35:16.1	91.670	-0.520	0.920	1.620
2020/01/31 04:35:16.2	91.630	-0.630	1.040	1.640
2020/01/31 04:35:16.3	91.610	-0.680	1.080	1.640
2020/01/31 04:35:16.4	91.590	-0.720	1.100	1.640
2020/01/31 04:35:16.5	91.570	-0.760	1.120	1.630
2020/01/31 04:35:16.6	91.550	-0.800	1.110	1.610
2020/01/31 04:35:16.7	91.540	-0.820	1.100	1.590
2020/01/31 04:35:16.8	91.520	-0.850	1.070	1.560
2020/01/31 04:35:16.9	91.510	-0.860	1.030	1.530
2020/01/31 04:35:17.0	91.500	-0.870	0.970	1.490
2020/01/31 04:35:17.1	91.490	-0.870	0.900	1.440
2020/01/31 04:35:17.2	91.490	-0.860	0.820	1.390
2020/01/31 04:35:17.3	91.480	-0.840	0.720	1.330
2020/01/31 04:35:17.4	91.480	-0.820	0.620	1.280
2020/01/31 04:35:17.5	91.480	-0.790	0.510	1.220
2020/01/31 04:35:17.6	91.480	-0.750	0.390	1.160
2020/01/31 04:35:17.7	91.480	-0.710	0.260	1.090
2020/01/31 04:35:17.8	91.490	-0.660	0.130	1.030
2020/01/31 04:35:17.9	91.490	-0.600	-0.010	0.970
2020/01/31 04:35:18.0	91.500	-0.540	-0.140	0.910
2020/01/31 04:35:18.1				
2020/01/31 04:35:18.2	91.510	-0.470	-0.280	0.850
2020/01/31 04:35:18.3	91.530	-0.330	-0.550	0.740
2020/01/31 04:35:18.4	91.540	-0.250	-0.680	0.690
2020/01/31 04:35:18.5	91.560	-0.170	-0.800	0.640
2020/01/31 04:35:18.6	91.570	-0.090	-0.920	0.590
2020/01/31 04:35:18.7	91.590	-0.020	-1.020	0.550
2020/01/31 04:35:18.8	91.610	0.060	-1.110	0.510
2020/01/31 04:35:18.9	91.630	0.130	-1.190	0.470
2020/01/31 04:35:19.0	91.650	0.200	-1.260	0.430
2020/01/31 04:35:19.1	91.670	0.270	-1.310	0.400
2020/01/31 04:35:19.2	91.700	0.330	-1.350	0.370
2020/01/31 04:35:19.3	91.720	0.390	-1.370	0.340
2020/01/31 04:35:19.4	91.750	0.440	-1.380	0.320
2020/01/31 04:35:19.5	91.770	0.480	-1.380	0.290
2020/01/31 04:35:19.6	91.800	0.520	-1.360	0.270
2020/01/31 04:35:19.7	91.820	0.550	-1.330	0.250
2020/01/31 04:35:19.8	91.850	0.570	-1.290	0.240
2020/01/31 04:35:19.9	91.870	0.590	-1.230	0.220
2020/01/31 04:35:20.0	91.890	0.600	-1.160	0.210
2020/01/31 04:35:20.1	91.910	0.600	-1.080	0.210
2020/01/31 04:35:20.2				
2020/01/31 04:35:20.3	91.930	0.600	-0.990	0.200
2020/01/31 04:35:20.4	91.960	0.570	-0.790	0.200
2020/01/31 04:35:20.5	91.970	0.540	-0.690	0.200
2020/01/31 04:35:20.6	91.980	0.510	-0.570	0.200
2020/01/31 04:35:20.7	91.990	0.480	-0.460	0.210
2020/01/31 04:35:20.8	92.000	0.440	-0.350	0.220
2020/01/31 04:35:20.9	92.000	0.390	-0.230	0.240
2020/01/31 04:35:21.0	92.000	0.350	-0.120	0.250
2020/01/31 04:35:21.1	92.000	0.300	-0.010	0.270
2020/01/31 04:35:21.2	91.990	0.250	0.100	0.300
2020/01/31 04:35:21.3	91.990	0.200	0.200	0.330
2020/01/31 04:35:21.4	91.980	0.150	0.290	0.360
2020/01/31 04:35:21.5	91.970	0.090	0.380	0.390
2020/01/31 04:35:21.6	91.950	0.040	0.460	0.430
2020/01/31 04:35:21.7	91.940	-0.010	0.530	0.470
2020/01/31 04:35:21.8	91.920	-0.050	0.590	0.510
2020/01/31 04:35:21.9	91.900	-0.100	0.640	0.560
2020/01/31 04:35:22.0	91.880	-0.140	0.680	0.600
2020/01/31 04:35:22.1	91.860	-0.170	0.710	0.650
2020/01/31 04:35:22.2	91.840	-0.200	0.730	0.690
2020/01/31 04:35:22.3				
2020/01/31 04:35:22.4	91.820	-0.230	0.740	0.740
2020/01/31 04:35:22.5	91.770	-0.270	0.720	0.810
2020/01/31 04:35:22.6	91.750	-0.290	0.700	0.850
2020/01/31 04:35:22.7	91.730	-0.300	0.660	0.880
2020/01/31 04:35:22.8	91.710	-0.300	0.620	0.910
2020/01/31 04:35:22.9	91.700	-0.300	0.570	0.940
2020/01/31 04:35:23.0	91.680	-0.290	0.510	0.960
2020/01/31 04:35:23.1				
2020/01/31 04:35:23.2	91.670	-0.280	0.440	0.980
2020/01/31 04:35:23.3	91.640	-0.240	0.280	1.000
2020/01/31 04:35:23.4	91.630	-0.220	0.190	1.000
2020/01/31 04:35:23.5	91.630	-0.190	0.100	1.000
2020/01/31 04:35:23.6	91.620	-0.160	0.000	0.990
2020/01/31 04:35:23.7	91.610	-0.130	-0.100	0.980
2020/01/31 04:35:23.8				
2020/01/31 04:35:23.9	91.610	-0.090	-0.210	0.960
2020/01/31 04:35:24.0	91.610	-0.010	-0.410	0.920
2020/01/31 04:35:24.1	91.610	0.040	-0.520	0.890
2020/01/31 04:35:24.2	91.610	0.080	-0.620	0.870
2020/01/31 04:35:24.3	91.620	0.130	-0.720	0.840
2020/01/31 04:35:24.4				
2020/01/31 04:35:24.5	91.620	0.170	-0.810	0.820
2020/01/31 04:35:24.6	91.640	0.260	-0.980	0.770
2020/01/31 04:35:24.7	91.650	0.300	-1.050	0.750
2020/01/31 04:35:24.8				
2020/01/31 04:35:24.9	91.660	0.350	-1.110	0.730
2020/01/31 04:35:25.0	91.680	0.420	-1.210	0.700
2020/01/31 04:35:25.1	91.690	0.450	-1.230	0.690
2020/01/31 04:35:25.2	91.710	0.490	-1.250	0.680
2020/01/31 04:35:25.3	91.720	0.510	-1.260	0.680
2020/01/31 04:35:25.4	91.730	0.530	-1.260	0.680
2020/01/31 04:35:25.5	91.740	0.550	-1.240	0.680
2020/01/31 04:35:25.6	91.750	0.570	-1.220	0.690
2020/01/31 04:35:25.7	91.760	0.570	-1.180	0.690
2020/01/31 04:35:25.8	91.770	0.580	-1.130	0.700
2020/01/31 04:35:25.9	91.780	0.580	-1.070	0.710
2020/01/31 04:35:26.0	91.800	0.570	-1.000	0.720
2020/01/31 04:35:26.1	91.810	0.560	-0.930	0.740
2020/01/31 04:35:26.2	91.820	0.540	-0.840	0.750
2020/01/31 04:35:26.3				
2020/01/31 04:35:26.4	91.820	0.520	-0.750	0.770
2020/01/31 04:35:26.5				
2020/01/31 04:35:26.6	91.840	0.460	-0.560	0.800
2020/01/31 04:35:26.7	91.860	0.390	-0.350	0.830
2020/01/31 04:35:26.8	91.860	0.350	-0.250	0.850
2020/01/31 04:35:26.9	91.870	0.300	-0.140	0.860
2020/01/31 04:35:27.0	91.880	0.250	-0.040	0.870
2020/01/31 04:35:27.1	91.880	0.200	0.070	0.890
2020/01/31 04:35:27.2	91.880	0.150	0.160	0.900
2020/01/31 04:35:27.3	91.880	0.100	0.260	0.910
2020/01/31 04:35:27.4	91.880	0.040	0.350	0.920
2020/01/31 04:35:27.5	91.880	-0.010	0.430	0.930
2020/01/31 04:35:27.6	91.870	-0.060	0.510	0.940
2020/01/31 04:35:27.7				
2020/01/31 04:35:27.8	91.860	-0.120	0.580	0.950
2020/01/31 04:35:27.9	91.850	-0.220	0.700	0.980
2020/01/31 04:35:28.0	91.840	-0.270	0.750	0.990
2020/01/31 04:35:28.1	91.820	-0.320	0.800	1.000
2020/01/31 04:35:28.2	91.810	-0.370	0.830	1.010
2020/01/31 04:35:28.3	91.800	-0.410	0.850	1.020
2020/01/31 04:35:28.4	91.780	-0.450	0.870	1.030
2020/01/31 04:35:28.5	91.760	-0.480	0.880	1.040
2020/01/31 04:35:28.6				
2020/01/31 04:35:28.7	91.750	-0.510	0.880	1.050
2020/01/31 04:35:28.8	91.720	-0.560	0.860	1.060
2020/01/31 04:35:28.9	91.700	-0.580	0.830	1.070
2020/01/31 04:35:29.0	91.690	-0.590	0.800	1.070
2020/01/31 04:35:29.1	91.680	-0.600	0.760	1.080
2020/01/31 04:35:29.2	91.670	-0.600	0.710	1.080
2020/01/31 04:35:29.3	91.660	-0.600	0.650	1.070
2020/01/31 04:35:29.4				
2020/01/31 04:35:29.5	91.650	-0.590	0.580	1.070
2020/01/31 04:35:29.6	91.630	-0.560	0.420	1.060
2020/01/31 04:35:29.7	91.630	-0.540	0.340	1.050
2020/01/31 04:35:29.8	91.630	-0.510	0.240	1.040
2020/01/31 04:35:29.9	91.620	-0.480	0.140	1.030
2020/01/31 04:35:30.0	91.630	-0.440	0.040	1.020
2020/01/31 04:35:30.1	91.630	-0.410	-0.070	1.000
2020/01/31 04:35:30.2	91.630	-0.370	-0.180	0.980
2020/01/31 04:35:30.3	91.640	-0.320	-0.290	0.960
2020/01/31 04:35:30.4	91.650	-0.280	-0.400	0.940
2020/01/31 04:35:30.5				
2020/01/31 04:35:30.6	91.660	-0.230	-0.510	0.910
2020/01/31 04:35:30.7				
2020/01/31 04:35:30.8	91.680	-0.130	-0.720	0.870
2020/01/31 04:35:30.9	91.700	-0.040	-0.920	0.820
2020/01/31 04:35:31.0	91.710	0.010	-1.010	0.790
2020/01/31 04:35:31.1	91.720	0.050	-1.100	0.770
2020/01/31 04:35:31.2	91.740	0.090	-1.170	0.750
2020/01/31 04:35:31.3	91.750	0.130	-1.240	0.720
2020/01/31 04:35:31.4	91.760	0.160	-1.300	0.700
2020/01/31 04:35:31.5	91.770	0.200	-1.350	0.670
2020/01/31 04:35:31.6				
2020/01/31 04:35:31.7	91.790	0.220	-1.390	0.650
2020/01/31 04:35:31.8	91.810	0.270	-1.430	0.600
2020/01/31 04:35:31.9	91.820	0.280	-1.440	0.580
2020/01/31 04:35:32.0	91.830	0.290	-1.440	0.560
2020/01/31 04:35:32.1	91.840	0.300	-1.420	0.540
2020/01/31 04:35:32.2	91.850	0.300	-1.400	0.530
2020/01/31 04:35:32.3	91.860	0.300	-1.370	0.520
2020/01/31 04:35:32.4	91.870	0.300	-1.320	0.510
2020/01/31 04:35:32.5	91.870	0.290	-1.270	0.510
2020/01/31 04:35:32.6	91.880	0.270	-1.210	0.510
2020/01/31 04:35:32.7				
2020/01/31 04:35:32.8	91.880	0.250	-1.140	0.510
2020/01/31 04:35:32.9	91.880	0.230	-1.060	0.520
2020/01/31 04:35:33.0	91.880	0.180	-0.880	0.540
2020/01/31 04:35:33.1	91.880	0.150	-0.780	0.560
2020/01/31 04:35:33.2	91.880	0.120	-0.670	0.590
2020/01/31 04:35:33.3	91.880	0.090	-0.560	0.610
2020/01/31 04:35:33.4	91.870	0.050	-0.450	0.640
2020/01/31 04:35:33.5	91.870	0.020	-0.330	0.660
2020/01/31 04:35:33.6	91.860	-0.020	-0.220	0.690
2020/01/31 04:35:33.7	91.850	-0.060	-0.090	0.730
2020/01/31 04:35:33.8	91.840	-0.090	0.030	0.760
2020/01/31 04:35:33.9				
2020/01/31 04:35:34.0	91.830	-0.130	0.150	0.790
2020/01/31 04:35:34.1	91.810	-0.200	0.380	0.860
2020/01/31 04:35:34.2	91.800	-0.240	0.490	0.890
2020/01/31 04:35:34.3	91.780	-0.270	0.600	0.920
2020/01/31 04:35:34.4	91.770	-0.310	0.700	0.950
2020/01/31 04:35:34.5	91.760	-0.340	0.800	0.970
2020/01/31 04:35:34.6	91.740	-0.370	0.880	0.990
2020/01/31 04:35:34.7	91.730	-0.390	0.960	1.000
2020/01/31 04:35:34.8	91.720	-0.410	1.020	1.010
2020/01/31 04:35:34.9				
2020/01/31 04:35:35.0	91.700	-0.430	1.070	1.020
2020/01/31 04:35:35.1	91.690	-0.440	1.110	1.020
2020/01/31 04:35:35.2	91.670	-0.460	1.150	1.010
2020/01/31 04:35:35.3	91.660	-0.460	1.150	1.010
2020/01/31 04:35:35.4	91.650	-0.450	1.130	1.000
2020/01/31 04:35:35.5	91.640	-0.440	1.100	0.980
2020/01/31 04:35:35.6	91.630	-0.420	1.050	0.970
2020/01/31 04:35:35.7				
2020/01/31 04:35:35.8	91.620	-0.400	0.990	0.950
2020/01/31 04:35:35.9				
2020/01/31 04:35:36.0	91.590	-0.350	0.830	0.920
2020/01/31 04:35:36.1	91.580	-0.310	0.730	0.910
2020/01/31 04:35:36.2	91.550	-0.230	0.510	0.870
2020/01/31 04:35:36.3				
2020/01/31 04:35:36.4	91.530	-0.180	0.390	0.850
2020/01/31 04:35:36.5	91.500	-0.080	0.130	0.800
2020/01/31 04:35:36.6	91.490	-0.020	-0.010	0.770
2020/01/31 04:35:36.7	91.480	0.030	-0.150	0.740
2020/01/31 04:35:36.8	91.480	0.090	-0.280	0.700
2020/01/31 04:35:36.9	91.470	0.140	-0.420	0.650
2020/01/31 04:35:37.0				
2020/01/31 04:35:37.1	91.470	0.200	-0.550	0.610
2020/01/31 04:35:37.2	91.480	0.310	-0.810	0.500
2020/01/31 04:35:37.3	91.490	0.360	-0.920	0.450
2020/01/31 04:35:37.4				
2020/01/31 04:35:37.5	91.500	0.410	-1.030	0.390
2020/01/31 04:35:37.6	91.530	0.500	-1.220	0.290
2020/01/31 04:35:37.7	91.550	0.540	-1.300	0.230
2020/01/31 04:35:37.8	91.570	0.570	-1.370	0.190
2020/01/31 04:35:37.9	91.600	0.600	-1.420	0.140
2020/01/31 04:35:38.0	91.620	0.630	-1.460	0.100
2020/01/31 04:35:38.1	91.650	0.650	-1.490	0.070
2020/01/31 04:35:38.2	91.680	0.670	-1.510	0.040
2020/01/31 04:35:38.3	91.710	0.680	-1.500	0.020
2020/01/31 04:35:38.4				
2020/01/31 04:35:38.5	91.740	0.690	-1.490	0.010
2020/01/31 04:35:38.6	91.800	0.690	-1.420	0.010
2020/01/31 04:35:38.7				
2020/01/31 04:35:38.8	91.830	0.680	-1.360	0.020
2020/01/31 04:35:38.9	91.880	0.650	-1.220	0.050
2020/01/31 04:35:39.0	91.900	0.630	-1.130	0.080
2020/01/31 04:35:39.1				
2020/01/31 04:35:39.2	91.920	0.600	-1.020	0.120
2020/01/31 04:35:39.3	91.960	0.540	-0.800	0.200
2020/01/31 04:35:39.4				
2020/01/31 04:35:39.5	91.970	0.500	-0.680	0.240
2020/01/31 04:35:39.6	91.990	0.410	-0.430	0.340
2020/01/31 04:35:39.7	91.990	0.370	-0.300	0.390
2020/01/31 04:35:39.8				
2020/01/31 04:35:39.9	91.990	0.320	-0.180	0.440
2020/01/31 04:35:40.0	91.980	0.220	0.080	0.550
2020/01/31 04:35:40.1	91.970	0.160	0.190	0.600
2020/01/31 04:35:40.2	91.960	0.110	0.310	0.650
2020/01/31 04:35:40.3	91.940	0.060	0.410	0.700
2020/01/31 04:35:40.4				
2020/01/31 04:35:40.5	91.930	0.000	0.510	0.750
2020/01/31 04:35:40.6	91.880	-0.100	0.680	0.840
2020/01/31 04:35:40.7	91.860	-0.150	0.750	0.890
2020/01/31 04:35:40.8				
2020/01/31 04:35:40.9	91.840	-0.190	0.810	0.930
2020/01/31 04:35:41.0				
2020/01/31 04:35:41.1	91.790	-0.280	0.900	1.000
2020/01/31 04:35:41.2				
2020/01/31 04:35:41.3	91.750	-0.360	0.950	1.060
2020/01/31 04:35:41.4	91.710	-0.430	0.960	1.120
2020/01/31 04:35:41.5	91.690	-0.460	0.940	1.140
2020/01/31 04:35:41.6				
2020/01/31 04:35:41.7	91.680	-0.490	0.920	1.160
2020/01/31 04:35:41.8	91.660	-0.520	0.890	1.180
2020/01/31 04:35:41.9	91.640	-0.560	0.800	1.210
2020/01/31 04:35:42.0	91.630	-0.570	0.740	1.210
2020/01/31 04:35:42.1	91.620	-0.580	0.680	1.220
2020/01/31 04:35:42.2				
2020/01/31 04:35:42.3	91.620	-0.590	0.610	1.230
2020/01/31 04:35:42.4	91.620	-0.600	0.450	1.230
2020/01/31 04:35:42.5	91.620	-0.600	0.370	1.230
2020/01/31 04:35:42.6	91.620	-0.600	0.280	1.230
2020/01/31 04:35:42.7				
2020/01/31 04:35:42.8	91.620	-0.590	0.180	1.230
2020/01/31 04:35:42.9				
2020/01/31 04:35:43.0	91.630	-0.560	-0.010	1.220
2020/01/31 04:35:43.1	91.630	-0.550	-0.100	1.220
2020/01/31 04:35:43.2	91.640	-0.520	-0.200	1.210
2020/01/31 04:35:43.3				
2020/01/31 04:35:43.4	91.660	-0.470	-0.400	1.190
2020/01/31 04:35:43.5	91.670	-0.410	-0.580	1.170
2020/01/31 04:35:43.6	91.680	-0.370	-0.670	1.160
2020/01/31 04:35:43.7	91.690	-0.340	-0.760	1.140
2020/01/31 04:35:43.8				
2020/01/31 04:35:43.9	91.710	-0.300	-0.840	1.130
2020/01/31 04:35:44.0	91.720	-0.250	-0.920	1.110
2020/01/31 04:35:44.1	91.730	-0.210	-0.990	1.100
2020/01/31 04:35:44.2	91.760	-0.120	-1.120	1.070
2020/01/31 04:35:44.3	91.770	-0.070	-1.170	1.050
2020/01/31 04:35:44.4	91.780	-0.020	-1.220	1.030
2020/01/31 04:35:44.5	91.800	0.030	-1.260	1.020
2020/01/31 04:35:44.6				
2020/01/31 04:35:44.7	91.810	0.080	-1.290	1.010
2020/01/31 04:35:44.8	91.820	0.120	-1.310	0.990
2020/01/31 04:35:44.9	91.840	0.210	-1.330	0.970
2020/01/31 04:35:45.0	91.850	0.260	-1.330	0.970
2020/01/31 04:35:45.1	91.850	0.300	-1.320	0.970
2020/01/31 04:35:45.2				
2020/01/31 04:35:45.3	91.850	0.330	-1.300	0.960
2020/01/31 04:35:45.4	91.850	0.370	-1.270	0.960
2020/01/31 04:35:45.5	91.850	0.400	-1.240	0.960
2020/01/31 04:35:45.6	91.850	0.440	-1.150	0.970
2020/01/31 04:35:45.7	91.840	0.460	-1.090	0.970
2020/01/31 04:35:45.8				
2020/01/31 04:35:45.9	91.830	0.470	-1.030	0.980
2020/01/31 04:35:46.0	91.810	0.490	-0.900	0.990
2020/01/31 04:35:46.1				
2020/01/31 04:35:46.2	91.800	0.490	-0.820	0.990
2020/01/31 04:35:46.3	91.790	0.480	-0.740	1.000
2020/01/31 04:35:46.4	91.770	0.460	-0.580	1.000
2020/01/31 04:35:46.5	91.760	0.440	-0.500	1.000
2020/01/31 04:35:46.6	91.750	0.430	-0.410	1.000
2020/01/31 04:35:46.7				
2020/01/31 04:35:46.8	91.740	0.400	-0.330	0.990
2020/01/31 04:35:46.9	91.730	0.380	-0.250	0.980
2020/01/31 04:35:47.0	91.730	0.350	-0.170	0.970
2020/01/31 04:35:47.1	91.720	0.320	-0.090	0.960
2020/01/31 04:35:47.2	91.720	0.260	0.050	0.930
2020/01/31 04:35:47.3	91.720	0.220	0.120	0.910
2020/01/31 04:35:47.4	91.720	0.190	0.180	0.880
2020/01/31 04:35:47.5				
2020/01/31 04:35:47.6	91.720	0.150	0.240	0.860
2020/01/31 04:35:47.7	91.720	0.090	0.340	0.800
2020/01/31 04:35:47.8				
2020/01/31 04:35:47.9	91.720	0.060	0.390	0.770
2020/01/31 04:35:48.0	91.730	0.030	0.430	0.730
2020/01/31 04:35:48.1	91.730	-0.000	0.470	0.700
2020/01/31 04:35:48.2	91.740	-0.050	0.520	0.630
2020/01/31 04:35:48.3				
2020/01/31 04:35:48.4	91.740	-0.070	0.540	0.590
2020/01/31 04:35:48.5	91.750	-0.110	0.570	0.520
2020/01/31 04:35:48.6	91.760	-0.120	0.570	0.490
2020/01/31 04:35:48.7				
2020/01/31 04:35:48.8	91.760	-0.130	0.570	0.450
2020/01/31 04:35:48.9	91.760	-0.150	0.550	0.400
2020/01/31 04:35:49.0	91.760	-0.150	0.540	0.370
2020/01/31 04:35:49.1	91.760	-0.150	0.520	0.350
2020/01/31 04:35:49.2	91.760	-0.150	0.490	0.330
2020/01/31 04:35:49.3	91.760	-0.150	0.460	0.310
2020/01/31 04:35:49.4				
2020/01/31 04:35:49.5	91.750	-0.140	0.430	0.290
2020/01/31 04:35:49.6				
2020/01/31 04:35:49.7	91.740	-0.130	0.350	0.270
2020/01/31 04:35:49.8				
2020/01/31 04:35:49.9	91.730	-0.110	0.270	0.260
2020/01/31 04:35:50.0	91.720	-0.100	0.220	0.260
2020/01/31 04:35:50.1	91.710	-0.080	0.120	0.260
2020/01/31 04:35:50.2	91.710	-0.070	0.080	0.270
2020/01/31 04:35:50.3				
2020/01/31 04:35:50.4	91.700	-0.070	0.030	0.270
2020/01/31 04:35:50.5	91.700	-0.060	-0.010	0.280
2020/01/31 04:35:50.6	91.680	-0.050	-0.100	0.300
2020/01/31 04:35:50.7	91.680	-0.040	-0.140	0.310
2020/01/31 04:35:50.8				
2020/01/31 04:35:50.9	91.670	-0.040	-0.180	0.320
2020/01/31 04:35:51.0	91.670	-0.040	-0.220	0.340
2020/01/31 04:35:51.1				
2020/01/31 04:35:51.2	91.670	-0.040	-0.280	0.360
2020/01/31 04:35:51.3	91.660	-0.040	-0.310	0.370
2020/01/31 04:35:51.4	91.660	-0.050	-0.370	0.400
2020/01/31 04:35:51.5	91.660	-0.050	-0.390	0.410
2020/01/31 04:35:51.6				
2020/01/31 04:35:51.7	91.660	-0.050	-0.410	0.420
2020/01/31 04:35:51.8	91.660	-0.060	-0.430	0.430
2020/01/31 04:35:51.9	91.670	-0.060	-0.450	0.450
2020/01/31 04:35:52.0	91.670	-0.060	-0.470	0.460
2020/01/31 04:35:52.1	91.680	-0.070	-0.480	0.470
2020/01/31 04:35:52.2				
2020/01/31 04:35:52.3	91.700	-0.070	-0.510	0.500
2020/01/31 04:35:52.4	91.710	-0.070	-0.520	0.520
2020/01/31 04:35:52.5	91.720	-0.070	-0.530	0.530
2020/01/31 04:35:52.6	91.740	-0.070	-0.550	0.570
2020/01/31 04:35:52.7	91.760	-0.060	-0.560	0.580
2020/01/31 04:35:52.8	91.770	-0.060	-0.570	0.600
2020/01/31 04:35:52.9	91.790	-0.050	-0.580	0.620
2020/01/31 04:35:53.0				
2020/01/31 04:35:53.1	91.800	-0.040	-0.590	0.640
2020/01/31 04:35:53.2	91.820	-0.030	-0.600	0.660
2020/01/31 04:35:53.3	91.850	-0.010	-0.620	0.710
2020/01/31 04:35:53.4	91.870	0.000	-0.630	0.730
2020/01/31 04:35:53.5	91.890	0.020	-0.640	0.760
2020/01/31 04:35:53.6				
2020/01/31 04:35:53.7	91.900	0.030	-0.640	0.780
2020/01/31 04:35:53.8	91.910	0.050	-0.650	0.810
2020/01/31 04:35:53.9	91.930	0.060	-0.650	0.840
2020/01/31 04:35:54.0	91.950	0.090	-0.650	0.900
2020/01/31 04:35:54.1	91.950	0.110	-0.640	0.940
2020/01/31 04:35:54.2	91.960	0.120	-0.640	0.970
2020/01/31 04:35:54.3	91.960	0.140	-0.620	1.000
2020/01/31 04:35:54.4	91.960	0.150	-0.610	1.030
2020/01/31 04:35:54.5				
2020/01/31 04:35:54.6	91.960	0.160	-0.590	1.070
2020/01/31 04:35:54.7	91.960	0.170	-0.560	1.100
2020/01/31 04:35:54.8	91.950	0.170	-0.530	1.130
2020/01/31 04:35:54.9	91.940	0.180	-0.490	1.170
2020/01/31 04:35:55.0	91.920	0.180	-0.410	1.230
2020/01/31 04:35:55.1				
2020/01/31 04:35:55.2	91.910	0.170	-0.370	1.260
2020/01/31 04:35:55.3	91.900	0.170	-0.310	1.300
2020/01/31 04:35:55.4				
2020/01/31 04:35:55.5	91.860	0.150	-0.210	1.360
2020/01/31 04:35:55.6	91.840	0.130	-0.150	1.380
2020/01/31 04:35:55.7	91.820	0.120	-0.090	1.410
2020/01/31 04:35:55.8	91.800	0.100	-0.030	1.440
2020/01/31 04:35:55.9	91.780	0.080	0.030	1.460
2020/01/31 04:35:56.0	91.750	0.050	0.090	1.480
2020/01/31 04:35:56.1				
2020/01/31 04:35:56.2	91.700	-0.000	0.210	1.530
2020/01/31 04:35:56.3	91.680	-0.030	0.260	1.540
2020/01/31 04:35:56.4				
2020/01/31 04:35:56.5	91.630	-0.090	0.360	1.560
2020/01/31 04:35:56.6	91.600	-0.120	0.400	1.560
2020/01/31 04:35:56.7	91.580	-0.150	0.430	1.550
2020/01/31 04:35:56.8	91.560	-0.180	0.470	1.540
2020/01/31 04:35:56.9	91.520	-0.240	0.510	1.510
2020/01/31 04:35:57.0	91.510	-0.260	0.520	1.490
2020/01/31 04:35:57.1				
2020/01/31 04:35:57.2	91.500	-0.290	0.530	1.460
2020/01/31 04:35:57.3	91.490	-0.310	0.530	1.420
2020/01/31 04:35:57.4	91.480	-0.330	0.520	1.390
2020/01/31 04:35:57.5	91.480	-0.350	0.500	1.340
2020/01/31 04:35:57.6	91.480	-0.360	0.470	1.300
2020/01/31 04:35:57.7	91.480	-0.370	0.440	1.240
2020/01/31 04:35:57.8	91.480	-0.380	0.400	1.190
2020/01/31 04:35:57.9	91.490	-0.390	0.360	1.130
2020/01/31 04:35:58.0				
2020/01/31 04:35:58.1	91.500	-0.380	0.250	1.010
2020/01/31 04:35:58.2	91.510	-0.380	0.190	0.940
2020/01/31 04:35:58.3	91.520	-0.370	0.120	0.880
2020/01/31 04:35:58.4	91.530	-0.360	0.060	0.810
2020/01/31 04:35:58.5	91.540	-0.340	-0.010	0.750
2020/01/31 04:35:58.6	91.550	-0.320	-0.080	0.680
2020/01/31 04:35:58.7	91.560	-0.300	-0.150	0.610
2020/01/31 04:35:58.8	91.580	-0.270	-0.230	0.550
2020/01/31 04:35:58.9	91.590	-0.240	-0.300	0.480
2020/01/31 04:35:59.0	91.600	-0.210	-0.370	0.420
2020/01/31 04:35:59.1	91.610	-0.180	-0.440	0.360
2020/01/31 04:35:59.2	91.630	-0.140	-0.510	0.310
2020/01/31 04:35:59.3	91.640	-0.110	-0.580	0.260
2020/01/31 04:35:59.4	91.650	-0.070	-0.640	0.210
2020/01/31 04:35:59.5	91.660	-0.030	-0.710	0.160
2020/01/31 04:35:59.6	91.670	0.010	-0.760	0.120
2020/01/31 04:35:59.7	91.690	0.050	-0.820	0.090
2020/01/31 04:35:59.8	91.700	0.090	-0.860	0.060
2020/01/31 04:35:59.9	91.710	0.140	-0.910	0.030
2020/01/31 04:36:00.0	91.720	0.170	-0.940	0.020
2020/01/31 04:36:00.1	91.720	0.210	-0.970	0.010
2020/01/31 04:36:00.2	91.730	0.250	-1.000	0.000
2020/01/31 04:36:00.3	91.730	0.280	-1.020	0.000
2020/01/31 04:36:00.4	91.740	0.320	-1.030	0.010
2020/01/31 04:36:00.5	91.740	0.340	-1.030	0.020
2020/01/31 04:36:00.6	91.730	0.370	-1.030	0.040
2020/01/31 04:36:00.7	91.730	0.390	-1.020	0.060
2020/01/31 04:36:00.8	91.720	0.410	-1.000	0.080
2020/01/31 04:36:00.9	91.720	0.430	-0.970	0.110
2020/01/31 04:36:01.0				
2020/01/31 04:36:01.1	91.690	0.450	-0.900	0.170
2020/01/31 04:36:01.2	91.680	0.450	-0.860	0.210
2020/01/31 04:36:01.3	91.670	0.450	-0.810	0.250
2020/01/31 04:36:01.4	91.650	0.450	-0.760	0.290
2020/01/31 04:36:01.5	91.640	0.440	-0.710	0.330
2020/01/31 04:36:01.6				
2020/01/31 04:36:01.7	91.600	0.410	-0.600	0.410
2020/01/31 04:36:01.8	91.580	0.390	-0.540	0.450
2020/01/31 04:36:01.9	91.570	0.370	-0.480	0.490
2020/01/31 04:36:02.0	91.550	0.350	-0.420	0.530
2020/01/31 04:36:02.1	91.530	0.320	-0.370	0.560
2020/01/31 04:36:02.2	91.520	0.300	-0.310	0.600
2020/01/31 04:36:02.3	91.500	0.270	-0.260	0.630
2020/01/31 04:36:02.4	91.480	0.210	-0.170	0.700
2020/01/31 04:36:02.5				
2020/01/31 04:36:02.6	91.470	0.180	-0.130	0.720
2020/01/31 04:36:02.7	91.460	0.150	-0.090	0.750
2020/01/31 04:36:02.8	91.460	0.120	-0.060	0.770
2020/01/31 04:36:02.9	91.450	0.090	-0.030	0.790
2020/01/31 04:36:03.0	91.450	0.040	0.010	0.820
2020/01/31 04:36:03.1				
2020/01/31 04:36:03.2	91.460	0.010	0.030	0.840
2020/01/31 04:36:03.3	91.470	-0.010	0.040	0.850
2020/01/31 04:36:03.4	91.470	-0.030	0.040	0.860
2020/01/31 04:36:03.5	91.480	-0.050	0.050	0.860
2020/01/31 04:36:03.6	91.490	-0.070	0.050	0.870
2020/01/31 04:36:03.7	91.500	-0.090	0.050	0.870
2020/01/31 04:36:03.8	91.510	-0.100	0.050	0.870
2020/01/31 04:36:03.9	91.510	-0.110	0.050	0.880
2020/01/31 04:36:04.0	91.520	-0.120	0.050	0.880
2020/01/31 04:36:04.1	91.530	-0.130	0.050	0.880
2020/01/31 04:36:04.2	91.540	-0.140	0.050	0.880
2020/01/31 04:36:04.3	91.540	-0.150	0.050	0.890
2020/01/31 04:36:04.4	91.540	-0.150	0.040	0.890
2020/01/31 04:36:04.5	91.540	-0.160	0.050	0.900
2020/01/31 04:36:04.6	91.540	-0.160	0.050	0.900
2020/01/31 04:36:04.7	91.540	-0.170	0.050	0.910
2020/01/31 04:36:04.8	91.540	-0.170	0.050	0.910
2020/01/31 04:36:04.9	91.530	-0.170	0.060	0.920
2020/01/31 04:36:05.0	91.530	-0.170	0.060	0.920
2020/01/31 04:36:05.1	91.520	-0.180	0.070	0.920
2020/01/31 04:36:05.2	91.510	-0.180	0.080	0.930
2020/01/31 04:36:05.3	91.510	-0.180	0.080	0.920
2020/01/31 04:36:05.4	91.500	-0.180	0.090	0.920
2020/01/31 04:36:05.5	91.490	-0.180	0.100	0.920
2020/01/31 04:36:05.6	91.490	-0.190	0.100	0.910
2020/01/31 04:36:05.7	91.480	-0.190	0.110	0.910
2020/01/31 04:36:05.8				
2020/01/31 04:36:05.9	91.470	-0.190	0.120	0.900
2020/01/31 04:36:06.0	91.470	-0.200	0.120	0.890
2020/01/31 04:36:06.1	91.470	-0.200	0.120	0.880
2020/01/31 04:36:06.2				
2020/01/31 04:36:06.3	91.470	-0.200	0.100	0.860
2020/01/31 04:36:06.4	91.480	-0.200	0.100	0.860
2020/01/31 04:36:06.5	91.480	-0.200	0.090	0.850
2020/01/31 04:36:06.6	91.490	-0.200	0.070	0.840
2020/01/31 04:36:06.7	91.500	-0.200	0.050	0.830
2020/01/31 04:36:06.8	91.500	-0.200	0.030	0.820
2020/01/31 04:36:06.9	91.520	-0.190	0.010	0.810
2020/01/31 04:36:07.0	91.530	-0.190	-0.010	0.800
2020/01/31 04:36:07.1				
2020/01/31 04:36:07.2	91.550	-0.180	-0.060	0.780
2020/01/31 04:36:07.3	91.570	-0.170	-0.090	0.770
2020/01/31 04:36:07.4	91.580	-0.160	-0.120	0.750
2020/01/31 04:36:07.5	91.600	-0.150	-0.150	0.740
2020/01/31 04:36:07.6	91.610	-0.140	-0.180	0.730
2020/01/31 04:36:07.7	91.630	-0.130	-0.210	0.710
2020/01/31 04:36:07.8	91.650	-0.120	-0.240	0.690
2020/01/31 04:36:07.9	91.660	-0.110	-0.270	0.670
2020/01/31 04:36:08.0	91.680	-0.100	-0.300	0.650
2020/01/31 04:36:08.1	91.700	-0.090	-0.320	0.630
2020/01/31 04:36:08.2	91.710	-0.080	-0.340	0.610
2020/01/31 04:36:08.3	91.730	-0.060	-0.360	0.590
2020/01/31 04:36:08.4	91.740	-0.050	-0.380	0.570
2020/01/31 04:36:08.5	91.760	-0.030	-0.400	0.540
2020/01/31 04:36:08.6	91.770	-0.020	-0.410	0.520
2020/01/31 04:36:08.7	91.780	-0.000	-0.420	0.500
2020/01/31 04:36:08.8	91.790	0.010	-0.430	0.490
2020/01/31 04:36:08.9	91.800	0.030	-0.440	0.470
2020/01/31 04:36:09.0	91.800	0.040	-0.440	0.460
2020/01/31 04:36:09.1	91.800	0.060	-0.440	0.450
2020/01/31 04:36:09.2	91.800	0.070	-0.440	0.440
2020/01/31 04:36:09.3	91.800	0.090	-0.430	0.440
2020/01/31 04:36:09.4	91.800	0.100	-0.430	0.440
2020/01/31 04:36:09.5	91.800	0.120	-0.420	0.450
2020/01/31 04:36:09.6	91.800	0.130	-0.410	0.450
2020/01/31 04:36:09.7	91.800	0.140	-0.390	0.460
2020/01/31 04:36:09.8	91.790	0.150	-0.380	0.480
2020/01/31 04:36:09.9	91.790	0.160	-0.360	0.490
2020/01/31 04:36:10.0	91.790	0.170	-0.350	0.510
2020/01/31 04:36:10.1	91.780	0.180	-0.330	0.540
2020/01/31 04:36:10.2	91.780	0.180	-0.320	0.560
2020/01/31 04:36:10.3	91.780	0.180	-0.300	0.580
2020/01/31 04:36:10.4				
2020/01/31 04:36:10.5	91.770	0.190	-0.270	0.640
2020/01/31 04:36:10.6	91.770	0.190	-0.250	0.660
2020/01/31 04:36:10.7	91.770	0.190	-0.240	0.690
2020/01/31 04:36:10.8	91.760	0.180	-0.230	0.710
2020/01/31 04:36:10.9	91.760	0.180	-0.220	0.730
2020/01/31 04:36:11.0	91.760	0.180	-0.220	0.760
2020/01/31 04:36:11.1	91.750	0.170	-0.210	0.780
2020/01/31 04:36:11.2	91.750	0.160	-0.210	0.800
2020/01/31 04:36:11.3	91.740	0.160	-0.210	0.820
2020/01/31 04:36:11.4	91.730	0.150	-0.220	0.840
2020/01/31 04:36:11.5	91.730	0.140	-0.220	0.860
2020/01/31 04:36:11.6	91.720	0.130	-0.230	0.870
2020/01/31 04:36:11.7	91.710	0.120	-0.250	0.880
2020/01/31 04:36:11.8	91.700	0.110	-0.260	0.890
2020/01/31 04:36:11.9	91.690	0.100	-0.270	0.900
2020/01/31 04:36:12.0	91.680	0.090	-0.290	0.900
2020/01/31 04:36:12.1	91.670	0.080	-0.300	0.910
2020/01/31 04:36:12.2	91.660	0.060	-0.320	0.910
2020/01/31 04:36:12.3	91.640	0.050	-0.330	0.910
2020/01/31 04:36:12.4	91.630	0.040	-0.350	0.910
2020/01/31 04:36:12.5	91.620	0.030	-0.360	0.910
2020/01/31 04:36:12.6	91.610	0.020	-0.370	0.910
2020/01/31 04:36:12.7	91.600	0.010	-0.380	0.920
2020/01/31 04:36:12.8	91.590	0.000	-0.390	0.920
2020/01/31 04:36:12.9	91.580	-0.000	-0.390	0.920
2020/01/31 04:36:13.0	91.580	-0.010	-0.400	0.920
2020/01/31 04:36:13.1	91.570	-0.020	-0.400	0.920
2020/01/31 04:36:13.2	91.560	-0.030	-0.400	0.920
2020/01/31 04:36:13.3	91.550	-0.030	-0.400	0.920
2020/01/31 04:36:13.4	91.540	-0.040	-0.390	0.920
2020/01/31 04:36:13.5	91.530	-0.040	-0.390	0.920
2020/01/31 04:36:13.6	91.520	-0.050	-0.380	0.920
2020/01/31 04:36:13.7	91.520	-0.050	-0.370	0.920
2020/01/31 04:36:13.8	91.510	-0.060	-0.350	0.920
2020/01/31 04:36:13.9	91.500	-0.060	-0.340	0.910
2020/01/31 04:36:14.0	91.490	-0.070	-0.320	0.910
2020/01/31 04:36:14.1	91.490	-0.080	-0.300	0.900
2020/01/31 04:36:14.2	91.480	-0.080	-0.280	0.890
2020/01/31 04:36:14.3	91.480	-0.090	-0.260	0.890
2020/01/31 04:36:14.4	91.470	-0.100	-0.230	0.880
2020/01/31 04:36:14.5	91.470	-0.110	-0.210	0.860
2020/01/31 04:36:14.6	91.470	-0.120	-0.190	0.850
2020/01/31 04:36:14.7	91.460	-0.130	-0.160	0.840
2020/01/31 04:36:14.8	91.460	-0.140	-0.130	0.820
2020/01/31 04:36:14.9	91.460	-0.150	-0.110	0.800
2020/01/31 04:36:15.0	91.470	-0.170	-0.080	0.790
2020/01/31 04:36:15.1	91.470	-0.180	-0.060	0.770
2020/01/31 04:36:15.2	91.470	-0.190	-0.030	0.750
2020/01/31 04:36:15.3	91.480	-0.200	-0.010	0.730
2020/01/31 04:36:15.4	91.490	-0.220	0.010	0.710
2020/01/31 04:36:15.5	91.490	-0.230	0.030	0.690
2020/01/31 04:36:15.6	91.510	-0.250	0.050	0.670
2020/01/31 04:36:15.7	91.520	-0.260	0.070	0.650
2020/01/31 04:36:15.8	91.530	-0.270	0.080	0.630
2020/01/31 04:36:15.9	91.550	-0.280	0.100	0.610
2020/01/31 04:36:16.0	91.560	-0.290	0.100	0.590
2020/01/31 04:36:16.1	91.580	-0.300	0.110	0.560
2020/01/31 04:36:16.2	91.600	-0.310	0.120	0.540
2020/01/31 04:36:16.3	91.620	-0.320	0.120	0.510
2020/01/31 04:36:16.4	91.640	-0.320	0.110	0.490
2020/01/31 04:36:16.5	91.660	-0.330	0.100	0.460
2020/01/31 04:36:16.6	91.680	-0.330	0.090	0.430
2020/01/31 04:36:16.7	91.700	-0.330	0.080	0.410
2020/01/31 04:36:16.8	91.720	-0.330	0.060	0.380
2020/01/31 04:36:16.9	91.740	-0.320	0.040	0.360
2020/01/31 04:36:17.0	91.760	-0.310	0.020	0.330
2020/01/31 04:36:17.1	91.780	-0.300	-0.010	0.310
2020/01/31 04:36:17.2	91.800	-0.290	-0.040	0.290
2020/01/31 04:36:17.3	91.820	-0.270	-0.080	0.270
2020/01/31 04:36:17.4	91.830	-0.250	-0.110	0.250
2020/01/31 04:36:17.5	91.840	-0.230	-0.150	0.240
2020/01/31 04:36:17.6	91.850	-0.210	-0.190	0.230
2020/01/31 04:36:17.7	91.860	-0.180	-0.240	0.230
2020/01/31 04:36:17.8	91.860	-0.150	-0.290	0.230
2020/01/31 04:36:17.9	91.860	-0.110	-0.330	0.240
2020/01/31 04:36:18.0	91.860	-0.070	-0.380	0.250
2020/01/31 04:36:18.1	91.860	-0.040	-0.430	0.260
2020/01/31 04:36:18.2	91.860	0.010	-0.470	0.280
2020/01/31 04:36:18.3	91.850	0.050	-0.520	0.310
2020/01/31 04:36:18.4	91.840	0.090	-0.560	0.330
2020/01/31 04:36:18.5	91.830	0.140	-0.610	0.360
2020/01/31 04:36:18.6	91.820	0.180	-0.650	0.390
2020/01/31 04:36:18.7	91.800	0.230	-0.680	0.420
2020/01/31 04:36:18.8	91.790	0.270	-0.710	0.450
2020/01/31 04:36:18.9	91.780	0.310	-0.740	0.480
2020/01/31 04:36:19.0	91.760	0.350	-0.760	0.510
2020/01/31 04:36:19.1	91.750	0.390	-0.770	0.540
2020/01/31 04:36:19.2	91.740	0.420	-0.780	0.570
2020/01/31 04:36:19.3	91.730	0.450	-0.780	0.600
2020/01/31 04:36:19.4	91.720	0.470	-0.770	0.630
2020/01/31 04:36:19.5	91.700	0.490	-0.750	0.650
2020/01/31 04:36:19.6	91.690	0.510	-0.730	0.680
2020/01/31 04:36:19.7	91.680	0.520	-0.700	0.700
2020/01/31 04:36:19.8	91.670	0.530	-0.660	0.720
2020/01/31 04:36:19.9	91.660	0.530	-0.620	0.750
2020/01/31 04:36:20.0	91.650	0.530	-0.570	0.770
2020/01/31 04:36:20.1	91.650	0.520	-0.510	0.790
2020/01/31 04:36:20.2	91.640	0.500	-0.450	0.810
2020/01/31 04:36:20.3	91.630	0.490	-0.390	0.830
2020/01/31 04:36:20.4	91.630	0.460	-0.320	0.850
2020/01/31 04:36:20.5	91.620	0.440	-0.250	0.870
2020/01/31 04:36:20.6	91.610	0.410	-0.180	0.880
2020/01/31 04:36:20.7	91.610	0.380	-0.100	0.900
2020/01/31 04:36:20.8	91.610	0.340	-0.030	0.910
2020/01/31 04:36:20.9	91.600	0.300	0.040	0.920
2020/01/31 04:36:21.0	91.600	0.260	0.110	0.930
2020/01/31 04:36:21.1	91.600	0.220	0.180	0.930
2020/01/31 04:36:21.2	91.600	0.180	0.250	0.940
2020/01/31 04:36:21.3	91.600	0.140	0.310	0.930
2020/01/31 04:36:21.4	91.600	0.100	0.370	0.930
2020/01/31 04:36:21.5	91.600	0.060	0.420	0.920
2020/01/31 04:36:21.6	91.610	0.020	0.460	0.910
2020/01/31 04:36:21.7	91.610	-0.010	0.500	0.890
2020/01/31 04:36:21.8	91.620	-0.050	0.520	0.870
2020/01/31 04:36:21.9	91.630	-0.080	0.540	0.850
2020/01/31 04:36:22.0	91.640	-0.100	0.550	0.820
2020/01/31 04:36:22.1	91.650	-0.130	0.550	0.790
2020/01/31 04:36:22.2	91.670	-0.150	0.540	0.770
2020/01/31 04:36:22.3	91.680	-0.160	0.510	0.730
2020/01/31 04:36:22.4	91.690	-0.180	0.480	0.700
2020/01/31 04:36:22.5	91.710	-0.190	0.440	0.660
2020/01/31 04:36:22.6	91.720	-0.190	0.390	0.630
2020/01/31 04:36:22.7	91.740	-0.190	0.330	0.600
2020/01/31 04:36:22.8	91.750	-0.180	0.270	0.560
2020/01/31 04:36:22.9	91.770	-0.180	0.190	0.530
2020/01/31 04:36:23.0	91.780	-0.170	0.110	0.500
2020/01/31 04:36:23.1	91.800	-0.150	0.030	0.480
2020/01/31 04:36:23.2	91.810	-0.130	-0.060	0.460
2020/01/31 04:36:23.3	91.820	-0.120	-0.150	0.430
2020/01/31 04:36:23.4	91.830	-0.100	-0.240	0.420
2020/01/31 04:36:23.5	91.840	-0.070	-0.340	0.400
2020/01/31 04:36:23.6	91.850	-0.050	-0.430	0.390
2020/01/31 04:36:23.7	91.860	-0.030	-0.510	0.390
2020/01/31 04:36:23.8	91.860	-0.010	-0.590	0.380
2020/01/31 04:36:23.9	91.870	0.010	-0.670	0.390
2020/01/31 04:36:24.0	91.870	0.030	-0.740	0.390
2020/01/31 04:36:24.1	91.880	0.050	-0.800	0.400
2020/01/31 04:36:24.2	91.880	0.070	-0.860	0.410
2020/01/31 04:36:24.3	91.890	0.080	-0.900	0.430
2020/01/31 04:36:24.4	91.890	0.100	-0.940	0.450
2020/01/31 04:36:24.5	91.890	0.100	-0.960	0.480
2020/01/31 04:36:24.6	91.890	0.110	-0.980	0.510
2020/01/31 04:36:24.7	91.890	0.110	-0.980	0.540
2020/01/31 04:36:24.8	91.890	0.110	-0.980	0.570
2020/01/31 04:36:24.9	91.890	0.110	-0.960	0.610
2020/01/31 04:36:25.0	91.890	0.110	-0.940	0.640
2020/01/31 04:36:25.1	91.890	0.100	-0.900	0.680
2020/01/31 04:36:25.2	91.890	0.080	-0.860	0.720
2020/01/31 04:36:25.3	91.890	0.070	-0.810	0.760
2020/01/31 04:36:25.4	91.890	0.050	-0.750	0.800
2020/01/31 04:36:25.5	91.900	0.040	-0.690	0.840
2020/01/31 04:36:25.6	91.900	0.020	-0.620	0.870
2020/01/31 04:36:25.7	91.900	-0.000	-0.550	0.910
2020/01/31 04:36:25.8	91.900	-0.030	-0.480	0.950
2020/01/31 04:36:25.9	91.900	-0.050	-0.410	0.980
2020/01/31 04:36:26.0	91.900	-0.070	-0.330	1.010
2020/01/31 04:36:26.1	91.900	-0.100	-0.260	1.050
2020/01/31 04:36:26.2	91.890	-0.120	-0.190	1.070
2020/01/31 04:36:26.3	91.890	-0.140	-0.120	1.100
2020/01/31 04:36:26.4	91.890	-0.160	-0.060	1.130
2020/01/31 04:36:26.5	91.890	-0.180	-0.010	1.150
2020/01/31 04:36:26.6	91.880	-0.200	0.040	1.180
2020/01/31 04:36:26.7	91.880	-0.210	0.090	1.200
2020/01/31 04:36:26.8	91.870	-0.220	0.120	1.220
2020/01/31 04:36:26.9	91.870	-0.230	0.150	1.230
2020/01/31 04:36:27.0	91.860	-0.240	0.170	1.250
2020/01/31 04:36:27.1	91.850	-0.250	0.180	1.260
2020/01/31 04:36:27.2	91.840	-0.250	0.180	1.280
2020/01/31 04:36:27.3	91.830	-0.250	0.180	1.290
2020/01/31 04:36:27.4	91.820	-0.250	0.170	1.290
2020/01/31 04:36:27.5	91.810	-0.240	0.150	1.300
2020/01/31 04:36:27.6	91.800	-0.230	0.120	1.300
2020/01/31 04:36:27.7	91.790	-0.220	0.090	1.300
2020/01/31 04:36:27.8	91.780	-0.210	0.050	1.300
2020/01/31 04:36:27.9	91.770	-0.190	0.010	1.290
2020/01/31 04:36:28.0	91.760	-0.180	-0.040	1.280
2020/01/31 04:36:28.1	91.750	-0.160	-0.090	1.270
2020/01/31 04:36:28.2	91.730	-0.140	-0.140	1.260
2020/01/31 04:36:28.3	91.720	-0.120	-0.190	1.250
2020/01/31 04:36:28.4	91.720	-0.100	-0.240	1.230
2020/01/31 04:36:28.5	91.710	-0.080	-0.290	1.210
2020/01/31 04:36:28.6	91.700	-0.060	-0.350	1.190
2020/01/31 04:36:28.7	91.690	-0.040	-0.390	1.170
2020/01/31 04:36:28.8	91.690	-0.020	-0.440	1.150
2020/01/31 04:36:28.9	91.690	-0.010	-0.480	1.130
2020/01/31 04:36:29.0	91.680	0.010	-0.520	1.100
2020/01/31 04:36:29.1	91.680	0.020	-0.550	1.080
2020/01/31 04:36:29.2	91.680	0.040	-0.570	1.050
2020/01/31 04:36:29.3	91.680	0.050	-0.590	1.030
2020/01/31 04:36:29.4	91.670	0.050	-0.600	1.000
2020/01/31 04:36:29.5	91.670	0.060	-0.600	0.970
2020/01/31 04:36:29.6	91.670	0.060	-0.590	0.940
2020/01/31 04:36:29.7	91.670	0.060	-0.570	0.910
2020/01/31 04:36:29.8	91.680	0.050	-0.550	0.880
2020/01/31 04:36:29.9	91.680	0.050	-0.520	0.850
2020/01/31 04:36:30.0	91.680	0.040	-0.480	0.820
2020/01/31 04:36:30.1	91.680	0.020	-0.430	0.790
2020/01/31 04:36:30.2	91.690	0.010	-0.370	0.760
2020/01/31 04:36:30.3	91.690	-0.010	-0.310	0.730
2020/01/31 04:36:30.4	91.700	-0.040	-0.240	0.700
2020/01/31 04:36:30.5	91.700	-0.060	-0.170	0.670
2020/01/31 04:36:30.6	91.700	-0.090	-0.090	0.640
2020/01/31 04:36:30.7	91.710	-0.110	-0.010	0.600
2020/01/31 04:36:30.8	91.710	-0.140	0.070	0.580
2020/01/31 04:36:30.9	91.720	-0.170	0.150	0.550
2020/01/31 04:36:31.0	91.720	-0.200	0.230	0.520
2020/01/31 04:36:31.1	91.730	-0.230	0.300	0.490
2020/01/31 04:36:31.2	91.730	-0.260	0.370	0.460
2020/01/31 04:36:31.3	91.740	-0.290	0.440	0.430
2020/01/31 04:36:31.4	91.750	-0.320	0.500	0.410
2020/01/31 04:36:31.5	91.760	-0.340	0.550	0.380
2020/01/31 04:36:31.6	91.770	-0.370	0.600	0.360
2020/01/31 04:36:31.7	91.790	-0.380	0.630	0.330
2020/01/31 04:36:31.8	91.800	-0.400	0.650	0.310
2020/01/31 04:36:31.9	91.820	-0.410	0.670	0.280
2020/01/31 04:36:32.0	91.830	-0.420	0.670	0.260
2020/01/31 04:36:32.1	91.850	-0.420	0.660	0.240
2020/01/31 04:36:32.2	91.870	-0.420	0.640	0.230
2020/01/31 04:36:32.3	91.890	-0.410	0.610	0.220
2020/01/31 04:36:32.4	91.910	-0.400	0.570	0.200
2020/01/31 04:36:32.5	91.930	-0.390	0.520	0.190
2020/01/31 04:36:32.6	91.950	-0.370	0.460	0.190
2020/01/31 04:36:32.7	91.970	-0.340	0.400	0.180
2020/01/31 04:36:32.8	91.980	-0.310	0.320	0.180
2020/01/31 04:36:32.9	92.000	-0.280	0.240	0.180
2020/01/31 04:36:33.0	92.020	-0.240	0.150	0.180
2020/01/31 04:36:33.1	92.030	-0.200	0.060	0.190
2020/01/31 04:36:33.2	92.040	-0.160	-0.040	0.200
2020/01/31 04:36:33.3	92.060	-0.110	-0.140	0.210
2020/01/31 04:36:33.4	92.060	-0.060	-0.240	0.220
2020/01/31 04:36:33.5	92.070	-0.010	-0.340	0.230
2020/01/31 04:36:33.6	92.080	0.040	-0.440	0.250
2020/01/31 04:36:33.7	92.080	0.100	-0.540	0.260
2020/01/31 04:36:33.8	92.080	0.150	-0.630	0.280
2020/01/31 04:36:33.9	92.090	0.200	-0.720	0.300
2020/01/31 04:36:34.0	92.090	0.250	-0.800	0.320
2020/01/31 04:36:34.1	92.080	0.300	-0.870	0.340
2020/01/31 04:36:34.2	92.080	0.350	-0.940	0.360
2020/01/31 04:36:34.3	92.080	0.390	-0.990	0.380
2020/01/31 04:36:34.4	92.080	0.430	-1.040	0.410
2020/01/31 04:36:34.5	92.070	0.460	-1.070	0.430
2020/01/31 04:36:34.6	92.060	0.490	-1.100	0.460
2020/01/31 04:36:34.7	92.060	0.520	-1.110	0.490
2020/01/31 04:36:34.8	92.050	0.540	-1.110	0.510
2020/01/31 04:36:34.9	92.040	0.560	-1.100	0.550
2020/01/31 04:36:35.0	92.030	0.570	-1.080	0.580
2020/01/31 04:36:35.1	92.020	0.570	-1.050	0.610
2020/01/31 04:36:35.2	92.020	0.570	-1.000	0.650
2020/01/31 04:36:35.3	92.010	0.560	-0.950	0.680
2020/01/31 04:36:35.4	92.000	0.550	-0.890	0.720
2020/01/31 04:36:35.5	91.990	0.530	-0.820	0.750
2020/01/31 04:36:35.6	91.970	0.510	-0.750	0.790
2020/01/31 04:36:35.7	91.960	0.480	-0.670	0.820
2020/01/31 04:36:35.8	91.950	0.450	-0.580	0.860
2020/01/31 04:36:35.9	91.940	0.410	-0.500	0.890
2020/01/31 04:36:36.0	91.930	0.380	-0.410	0.930
2020/01/31 04:36:36.1	91.920	0.340	-0.320	0.960
2020/01/31 04:36:36.2	91.910	0.290	-0.230	1.000
2020/01/31 04:36:36.3	91.890	0.250	-0.140	1.030
2020/01/31 04:36:36.4	91.880	0.210	-0.060	1.060
2020/01/31 04:36:36.5	91.870	0.160	0.030	1.080
2020/01/31 04:36:36.6	91.860	0.120	0.100	1.110
2020/01/31 04:36:36.7	91.860	0.080	0.170	1.130
2020/01/31 04:36:36.8	91.850	0.030	0.230	1.150
2020/01/31 04:36:36.9	91.840	-0.000	0.280	1.160
2020/01/31 04:36:37.0	91.830	-0.040	0.320	1.170
2020/01/31 04:36:37.1	91.830	-0.070	0.360	1.180
2020/01/31 04:36:37.2	91.820	-0.100	0.380	1.190
2020/01/31 04:36:37.3	91.820	-0.120	0.390	1.190
2020/01/31 04:36:37.4	91.820	-0.140	0.390	1.180
2020/01/31 04:36:37.5	91.810	-0.150	0.370	1.180
2020/01/31 04:36:37.6	91.810	-0.160	0.350	1.170
2020/01/31 04:36:37.7	91.810	-0.160	0.310	1.160
2020/01/31 04:36:37.8	91.810	-0.160	0.260	1.140
2020/01/31 04:36:37.9	91.810	-0.150	0.200	1.130
2020/01/31 04:36:38.0	91.810	-0.140	0.140	1.110
2020/01/31 04:36:38.1	91.810	-0.120	0.070	1.090
2020/01/31 04:36:38.2	91.810	-0.100	-0.010	1.070
2020/01/31 04:36:38.3	91.810	-0.080	-0.090	1.050
2020/01/31 04:36:38.4	91.810	-0.050	-0.180	1.030
2020/01/31 04:36:38.5	91.810	-0.020	-0.260	1.010
2020/01/31 04:36:38.6	91.810	0.010	-0.350	0.990
2020/01/31 04:36:38.7	91.810	0.050	-0.440	0.970
2020/01/31 04:36:38.8	91.810	0.080	-0.520	0.950
2020/01/31 04:36:38.9	91.800	0.120	-0.600	0.930
2020/01/31 04:36:39.0	91.800	0.160	-0.670	0.920
2020/01/31 04:36:39.1	91.790	0.190	-0.740	0.900
2020/01/31 04:36:39.2	91.790	0.220	-0.800	0.890
2020/01/31 04:36:39.3	91.790	0.250	-0.850	0.880
2020/01/31 04:36:39.4	91.780	0.280	-0.890	0.870
2020/01/31 04:36:39.5	91.780	0.300	-0.920	0.860
2020/01/31 04:36:39.6	91.780	0.320	-0.930	0.850
2020/01/31 04:36:39.7	91.780	0.340	-0.940	0.840
2020/01/31 04:36:39.8	91.780	0.350	-0.940	0.830
2020/01/31 04:36:39.9	91.780	0.360	-0.920	0.830
2020/01/31 04:36:40.0	91.770	0.360	-0.900	0.820
2020/01/31 04:36:40.1	91.780	0.360	-0.860	0.820
2020/01/31 04:36:40.2	91.770	0.350	-0.820	0.820
2020/01/31 04:36:40.3	91.780	0.330	-0.770	0.820
2020/01/31 04:36:40.4	91.780	0.320	-0.710	0.820
2020/01/31 04:36:40.5	91.780	0.290	-0.640	0.820
2020/01/31 04:36:40.6	91.780	0.270	-0.570	0.820
2020/01/31 04:36:40.7	91.790	0.230	-0.490	0.820
2020/01/31 04:36:40.8	91.800	0.200	-0.400	0.810
2020/01/31 04:36:40.9	91.800	0.160	-0.320	0.810
2020/01/31 04:36:41.0	91.810	0.120	-0.230	0.810
2020/01/31 04:36:41.1	91.820	0.080	-0.140	0.810
2020/01/31 04:36:41.2	91.830	0.030	-0.050	0.820
2020/01/31 04:36:41.3	91.840	-0.010	0.030	0.810
2020/01/31 04:36:41.4	91.850	-0.060	0.110	0.810
2020/01/31 04:36:41.5	91.870	-0.110	0.190	0.810
2020/01/31 04:36:41.6	91.880	-0.150	0.260	0.810
2020/01/31 04:36:41.7	91.900	-0.200	0.330	0.800
2020/01/31 04:36:41.8	91.910	-0.240	0.380	0.800
2020/01/31 04:36:41.9	91.930	-0.280	0.430	0.800
2020/01/31 04:36:42.0	91.940	-0.320	0.470	0.790
2020/01/31 04:36:42.1	91.950	-0.350	0.500	0.790
2020/01/31 04:36:42.2	91.970	-0.390	0.520	0.790
2020/01/31 04:36:42.3	91.980	-0.410	0.530	0.780
2020/01/31 04:36:42.4	91.990	-0.430	0.530	0.780
2020/01/31 04:36:42.5	92.010	-0.450	0.520	0.780
2020/01/31 04:36:42.6	92.020	-0.470	0.510	0.780
2020/01/31 04:36:42.7	92.030	-0.470	0.480	0.780
2020/01/31 04:36:42.8	92.040	-0.480	0.450	0.790
2020/01/31 04:36:42.9	92.040	-0.480	0.410	0.790
2020/01/31 04:36:43.0	92.050	-0.480	0.370	0.800
2020/01/31 04:36:43.1	92.050	-0.470	0.320	0.810
2020/01/31 04:36:43.2	92.060	-0.460	0.270	0.820
2020/01/31 04:36:43.3	92.050	-0.450	0.210	0.830
2020/01/31 04:36:43.4	92.050	-0.430	0.160	0.850
2020/01/31 04:36:43.5	92.050	-0.420	0.110	0.860
2020/01/31 04:36:43.6	92.040	-0.400	0.060	0.870
2020/01/31 04:36:43.7	92.040	-0.380	0.010	0.890
2020/01/31 04:36:43.8	92.030	-0.360	-0.040	0.900
2020/01/31 04:36:43.9	92.020	-0.350	-0.080	0.920
2020/01/31 04:36:44.0	92.010	-0.330	-0.120	0.930
2020/01/31 04:36:44.1	92.000	-0.310	-0.160	0.940
2020/01/31 04:36:44.2	91.990	-0.290	-0.190	0.950
2020/01/31 04:36:44.3	91.980	-0.280	-0.220	0.960
2020/01/31 04:36:44.4	91.960	-0.260	-0.240	0.970
2020/01/31 04:36:44.5	91.950	-0.250	-0.260	0.970
2020/01/31 04:36:44.6	91.940	-0.240	-0.270	0.980
2020/01/31 04:36:44.7	91.920	-0.230	-0.280	0.980
2020/01/31 04:36:44.8	91.910	-0.220	-0.290	0.990
2020/01/31 04:36:44.9	91.890	-0.210	-0.290	0.990
2020/01/31 04:36:45.0	91.880	-0.210	-0.290	0.990
2020/01/31 04:36:45.1	91.870	-0.200	-0.290	1.000
2020/01/31 04:36:45.2	91.860	-0.200	-0.280	1.000
2020/01/31 04:36:45.3	91.850	-0.190	-0.270	1.000
2020/01/31 04:36:45.4	91.840	-0.190	-0.270	1.010
2020/01/31 04:36:45.5	91.830	-0.180	-0.260	1.010
2020/01/31 04:36:45.6	91.830	-0.180	-0.250	1.010
2020/01/31 04:36:45.7	91.820	-0.180	-0.250	1.020
2020/01/31 04:36:45.8	91.820	-0.170	-0.240	1.020
2020/01/31 04:36:45.9	91.820	-0.170	-0.240	1.030
2020/01/31 04:36:46.0	91.820	-0.160	-0.240	1.030
2020/01/31 04:36:46.1	91.830	-0.160	-0.240	1.030
2020/01/31 04:36:46.2	91.830	-0.150	-0.240	1.030
2020/01/31 04:36:46.3	91.840	-0.140	-0.250	1.030
2020/01/31 04:36:46.4	91.840	-0.130	-0.260	1.030
2020/01/31 04:36:46.5	91.850	-0.120	-0.270	1.030
2020/01/31 04:36:46.6	91.860	-0.110	-0.290	1.020
2020/01/31 04:36:46.7	91.880	-0.090	-0.310	1.010
2020/01/31 04:36:46.8	91.890	-0.080	-0.340	1.000
2020/01/31 04:36:46.9	91.900	-0.060	-0.360	0.990
2020/01/31 04:36:47.0	91.910	-0.040	-0.390	0.980
2020/01/31 04:36:47.1	91.920	-0.020	-0.420	0.960
2020/01/31 04:36:47.2	91.940	0.000	-0.460	0.940
2020/01/31 04:36:47.3	91.950	0.020	-0.500	0.920
2020/01/31 04:36:47.4	91.960	0.040	-0.540	0.900
2020/01/31 04:36:47.5	91.970	0.070	-0.580	0.870
2020/01/31 04:36:47.6	91.970	0.090	-0.610	0.850
2020/01/31 04:36:47.7	91.980	0.110	-0.650	0.820
2020/01/31 04:36:47.8	91.980	0.140	-0.680	0.790
2020/01/31 04:36:47.9	91.990	0.160	-0.720	0.770
2020/01/31 04:36:48.0	91.990	0.180	-0.750	0.740
2020/01/31 04:36:48.1	91.980	0.200	-0.770	0.720
2020/01/31 04:36:48.2	91.980	0.220	-0.790	0.700
2020/01/31 04:36:48.3	91.970	0.240	-0.810	0.680
2020/01/31 04:36:48.4	91.960	0.250	-0.820	0.660
2020/01/31 04:36:48.5	91.950	0.260	-0.820	0.640
2020/01/31 04:36:48.6	91.940	0.280	-0.820	0.630
2020/01/31 04:36:48.7	91.930	0.290	-0.810	0.620
2020/01/31 04:36:48.8	91.910	0.290	-0.790	0.610
2020/01/31 04:36:48.9	91.890	0.300	-0.770	0.600
2020/01/31 04:36:49.0	91.880	0.300	-0.740	0.590
2020/01/31 04:36:49.1	91.860	0.300	-0.700	0.590
2020/01/31 04:36:49.2	91.850	0.290	-0.650	0.580
2020/01/31 04:36:49.3	91.830	0.280	-0.600	0.580
2020/01/31 04:36:49.4	91.810	0.280	-0.550	0.580
2020/01/31 04:36:49.5	91.790	0.260	-0.490	0.590
2020/01/31 04:36:49.6	91.780	0.250	-0.420	0.590
2020/01/31 04:36:49.7	91.760	0.230	-0.350	0.600
2020/01/31 04:36:49.8	91.740	0.220	-0.280	0.610
2020/01/31 04:36:49.9	91.730	0.200	-0.210	0.620
2020/01/31 04:36:50.0	91.710	0.170	-0.130	0.630
2020/01/31 04:36:50.1	91.690	0.150	-0.050	0.640
2020/01/31 04:36:50.2	91.680	0.130	0.020	0.650
2020/01/31 04:36:50.3	91.660	0.100	0.100	0.670
2020/01/31 04:36:50.4	91.650	0.080	0.170	0.680
2020/01/31 04:36:50.5	91.640	0.050	0.240	0.690
2020/01/31 04:36:50.6	91.630	0.030	0.300	0.710
2020/01/31 04:36:50.7	91.620	0.000	0.360	0.720
2020/01/31 04:36:50.8	91.610	-0.020	0.410	0.730
2020/01/31 04:36:50.9	91.600	-0.050	0.460	0.750
2020/01/31 04:36:51.0	91.590	-0.070	0.500	0.760
2020/01/31 04:36:51.1	91.590	-0.090	0.530	0.770
2020/01/31 04:36:51.2	91.580	-0.110	0.560	0.790
2020/01/31 04:36:51.3	91.580	-0.120	0.570	0.800
2020/01/31 04:36:51.4	91.580	-0.140	0.580	0.810
2020/01/31 04:36:51.5	91.570	-0.150	0.580	0.810
2020/01/31 04:36:51.6	91.570	-0.160	0.570	0.820
2020/01/31 04:36:51.7	91.570	-0.170	0.550	0.820
2020/01/31 04:36:51.8	91.570	-0.170	0.520	0.820
2020/01/31 04:36:51.9	91.570	-0.170	0.490	0.820
2020/01/31 04:36:52.0	91.580	-0.170	0.450	0.820
2020/01/31 04:36:52.1	91.580	-0.170	0.400	0.810
2020/01/31 04:36:52.2	91.590	-0.160	0.340	0.810
2020/01/31 04:36:52.3	91.590	-0.150	0.280	0.800
2020/01/31 04:36:52.4	91.600	-0.140	0.210	0.790
2020/01/31 04:36:52.5	91.600	-0.120	0.140	0.770
2020/01/31 04:36:52.6	91.610	-0.110	0.060	0.760
2020/01/31 04:36:52.7	91.620	-0.090	-0.020	0.740
2020/01/31 04:36:52.8	91.630	-0.060	-0.100	0.730
2020/01/31 04:36:52.9	91.630	-0.040	-0.190	0.710
2020/01/31 04:36:53.0	91.640	-0.010	-0.280	0.700
2020/01/31 04:36:53.1	91.650	0.020	-0.360	0.690
2020/01/31 04:36:53.2	91.650	0.050	-0.450	0.680
2020/01/31 04:36:53.3	91.650	0.080	-0.530	0.670
2020/01/31 04:36:53.4	91.650	0.120	-0.610	0.660
2020/01/31 04:36:53.5	91.660	0.150	-0.680	0.660
2020/01/31 04:36:53.6	91.650	0.180	-0.750	0.660
2020/01/31 04:36:53.7	91.650	0.210	-0.810	0.660
2020/01/31 04:36:53.8	91.650	0.240	-0.860	0.660
2020/01/31 04:36:53.9	91.640	0.270	-0.910	0.670
2020/01/31 04:36:54.0	91.640	0.300	-0.940	0.680
2020/01/31 04:36:54.1	91.630	0.320	-0.970	0.690
2020/01/31 04:36:54.2	91.620	0.340	-0.990	0.710
2020/01/31 04:36:54.3	91.610	0.360	-1.000	0.730
2020/01/31 04:36:54.4	91.590	0.380	-1.000	0.750
2020/01/31 04:36:54.5	91.580	0.390	-1.000	0.770
2020/01/31 04:36:54.6	91.560	0.400	-0.980	0.800
2020/01/31 04:36:54.7	91.550	0.400	-0.950	0.820
2020/01/31 04:36:54.8	91.530	0.400	-0.910	0.840
2020/01/31 04:36:54.9	91.510	0.400	-0.870	0.870
2020/01/31 04:36:55.0	91.500	0.390	-0.820	0.890
2020/01/31 04:36:55.1	91.480	0.380	-0.770	0.910
2020/01/31 04:36:55.2	91.460	0.370	-0.700	0.940
2020/01/31 04:36:55.3	91.440	0.350	-0.640	0.960
2020/01/31 04:36:55.4	91.430	0.330	-0.570	0.980
2020/01/31 04:36:55.5	91.410	0.310	-0.490	1.000
2020/01/31 04:36:55.6	91.390	0.290	-0.420	1.020
2020/01/31 04:36:55.7	91.370	0.260	-0.340	1.030
2020/01/31 04:36:55.8	91.360	0.230	-0.270	1.040
2020/01/31 04:36:55.9	91.350	0.200	-0.190	1.050
2020/01/31 04:36:56.0	91.330	0.170	-0.120	1.050
2020/01/31 04:36:56.1	91.320	0.140	-0.050	1.050
2020/01/31 04:36:56.2	91.310	0.110	0.020	1.050
2020/01/31 04:36:56.3	91.310	0.080	0.080	1.050
2020/01/31 04:36:56.4	91.300	0.050	0.140	1.040
2020/01/31 04:36:56.5	91.300	0.020	0.190	1.030
2020/01/31 04:36:56.6	91.300	-0.010	0.240	1.010
2020/01/31 04:36:56.7	91.300	-0.030	0.270	1.000
2020/01/31 04:36:56.8	91.300	-0.060	0.310	0.980
2020/01/31 04:36:56.9	91.310	-0.080	0.330	0.950
2020/01/31 04:36:57.0	91.320	-0.100	0.350	0.930
2020/01/31 04:36:57.1	91.330	-0.120	0.360	0.900
2020/01/31 04:36:57.2	91.340	-0.130	0.370	0.880
2020/01/31 04:36:57.3	91.360	-0.140	0.360	0.850
2020/01/31 04:36:57.4	91.370	-0.150	0.360	0.820
2020/01/31 04:36:57.5	91.390	-0.160	0.340	0.790
2020/01/31 04:36:57.6	91.410	-0.160	0.320	0.770
2020/01/31 04:36:57.7	91.430	-0.160	0.290	0.740
2020/01/31 04:36:57.8	91.440	-0.160	0.260	0.720
2020/01/31 04:36:57.9	91.460	-0.160	0.230	0.700
2020/01/31 04:36:58.0	91.480	-0.160	0.190	0.680
2020/01/31 04:36:58.1	91.490	-0.150	0.140	0.660
2020/01/31 04:36:58.2	91.510	-0.140	0.100	0.650
2020/01/31 04:36:58.3	91.520	-0.130	0.050	0.630
2020/01/31 04:36:58.4	91.540	-0.120	0.000	0.630
2020/01/31 04:36:58.5	91.550	-0.110	-0.040	0.620
2020/01/31 04:36:58.6	91.550	-0.100	-0.090	0.620
2020/01/31 04:36:58.7	91.560	-0.090	-0.140	0.620
2020/01/31 04:36:58.8	91.560	-0.080	-0.180	0.620
2020/01/31 04:36:58.9	91.560	-0.070	-0.220	0.620
2020/01/31 04:36:59.0	91.560	-0.060	-0.260	0.630
2020/01/31 04:36:59.1	91.550	-0.060	-0.300	0.640
2020/01/31 04:36:59.2	91.540	-0.050	-0.330	0.660
2020/01/31 04:36:59.3	91.530	-0.040	-0.360	0.670
2020/01/31 04:36:59.4	91.520	-0.040	-0.390	0.680
2020/01/31 04:36:59.5	91.500	-0.040	-0.410	0.700
2020/01/31 04:36:59.6	91.480	-0.040	-0.430	0.720
2020/01/31 04:36:59.7	91.470	-0.040	-0.450	0.730
2020/01/31 04:36:59.8	91.440	-0.040	-0.460	0.750
2020/01/31 04:36:59.9	91.420	-0.050	-0.470	0.770
2020/01/31 04:37:00.0	91.400	-0.050	-0.480	0.790
2020/01/31 04:37:00.1	91.380	-0.060	-0.480	0.810
2020/01/31 04:37:00.2	91.350	-0.070	-0.480	0.830
2020/01/31 04:37:00.3	91.330	-0.080	-0.480	0.860
2020/01/31 04:37:00.4	91.310	-0.100	-0.470	0.880
2020/01/31 04:37:00.5	91.290	-0.110	-0.460	0.900
2020/01/31 04:37:00.6	91.270	-0.120	-0.450	0.920
2020/01/31 04:37:00.7	91.250	-0.140	-0.430	0.930
2020/01/31 04:37:00.8	91.230	-0.160	-0.420	0.950
2020/01/31 04:37:00.9	91.220	-0.170	-0.400	0.970
2020/01/31 04:37:01.0	91.210	-0.190	-0.380	0.980
2020/01/31 04:37:01.1	91.200	-0.210	-0.360	1.000
2020/01/31 04:37:01.2	91.190	-0.230	-0.340	1.020
2020/01/31 04:37:01.3	91.180	-0.240	-0.320	1.030
2020/01/31 04:37:01.4	91.180	-0.260	-0.290	1.040
2020/01/31 04:37:01.5	91.170	-0.280	-0.270	1.050
2020/01/31 04:37:01.6	91.170	-0.300	-0.240	1.060
2020/01/31 04:37:01.7	91.160	-0.320	-0.210	1.070
2020/01/31 04:37:01.8	91.160	-0.330	-0.180	1.080
2020/01/31 04:37:01.9	91.160	-0.350	-0.150	1.080
2020/01/31 04:37:02.0	91.160	-0.370	-0.110	1.080
2020/01/31 04:37:02.1	91.160	-0.390	-0.080	1.080
2020/01/31 04:37:02.2	91.170	-0.410	-0.050	1.080
2020/01/31 04:37:02.3	91.170	-0.420	-0.020	1.070
2020/01/31 04:37:02.4	91.170	-0.440	0.020	1.050
2020/01/31 04:37:02.5	91.180	-0.450	0.050	1.040
2020/01/31 04:37:02.6	91.180	-0.470	0.080	1.010
2020/01/31 04:37:02.7	91.190	-0.480	0.110	0.990
2020/01/31 04:37:02.8	91.200	-0.490	0.130	0.960
2020/01/31 04:37:02.9	91.210	-0.500	0.150	0.930
2020/01/31 04:37:03.0	91.220	-0.500	0.170	0.890
2020/01/31 04:37:03.1	91.230	-0.510	0.180	0.850
2020/01/31 04:37:03.2	91.240	-0.510	0.180	0.810
2020/01/31 04:37:03.3	91.250	-0.500	0.180	0.770
2020/01/31 04:37:03.4	91.260	-0.490	0.160	0.720
2020/01/31 04:37:03.5	91.270	-0.480	0.140	0.670
2020/01/31 04:37:03.6	91.280	-0.460	0.120	0.630
2020/01/31 04:37:03.7	91.280	-0.440	0.080	0.580
2020/01/31 04:37:03.8	91.290	-0.420	0.030	0.540
2020/01/31 04:37:03.9	91.300	-0.380	-0.020	0.500
2020/01/31 04:37:04.0	91.300	-0.350	-0.080	0.460
2020/01/31 04:37:04.1	91.310	-0.310	-0.150	0.420
2020/01/31 04:37:04.2	91.310	-0.260	-0.220	0.390
2020/01/31 04:37:04.3	91.310	-0.210	-0.290	0.360
2020/01/31 04:37:04.4	91.300	-0.160	-0.380	0.330
2020/01/31 04:37:04.5	91.300	-0.100	-0.460	0.310
2020/01/31 04:37:04.6	91.300	-0.040	-0.550	0.290
2020/01/31 04:37:04.7	91.290	0.020	-0.630	0.280
2020/01/31 04:37:04.8	91.280	0.090	-0.720	0.270
2020/01/31 04:37:04.9	91.270	0.150	-0.800	0.270
2020/01/31 04:37:05.0	91.250	0.210	-0.870	0.270
2020/01/31 04:37:05.1	91.240	0.280	-0.940	0.270
2020/01/31 04:37:05.2	91.220	0.340	-1.010	0.280
2020/01/31 04:37:05.3	91.200	0.400	-1.060	0.280
2020/01/31 04:37:05.4	91.180	0.450	-1.100	0.290
2020/01/31 04:37:05.5	91.160	0.500	-1.140	0.300
2020/01/31 04:37:05.6	91.140	0.550	-1.160	0.310
2020/01/31 04:37:05.7	91.120	0.590	-1.170	0.320
2020/01/31 04:37:05.8	91.100	0.620	-1.170	0.320
2020/01/31 04:37:05.9	91.080	0.650	-1.160	0.330
2020/01/31 04:37:06.0	91.050	0.680	-1.140	0.340
2020/01/31 04:37:06.1	91.030	0.700	-1.100	0.340
2020/01/31 04:37:06.2	91.010	0.710	-1.060	0.350
2020/01/31 04:37:06.3	90.990	0.710	-1.000	0.350
2020/01/31 04:37:06.4	90.960	0.710	-0.940	0.350
2020/01/31 04:37:06.5	90.940	0.700	-0.860	0.350
2020/01/31 04:37:06.6	90.920	0.690	-0.780	0.350
2020/01/31 04:37:06.7	90.900	0.670	-0.690	0.350
2020/01/31 04:37:06.8	90.880	0.650	-0.600	0.350
2020/01/31 04:37:06.9	90.860	0.620	-0.500	0.360
2020/01/31 04:37:07.0	90.840	0.580	-0.390	0.360
2020/01/31 04:37:07.1	90.820	0.550	-0.290	0.370
2020/01/31 04:37:07.2	90.810	0.500	-0.180	0.380
2020/01/31 04:37:07.3	90.800	0.460	-0.070	0.380
2020/01/31 04:37:07.4	90.790	0.410	0.030	0.390
2020/01/31 04:37:07.5	90.780	0.370	0.130	0.400
2020/01/31 04:37:07.6	90.770	0.320	0.230	0.420
2020/01/31 04:37:07.7	90.770	0.270	0.330	0.430
2020/01/31 04:37:07.8	90.770	0.220	0.410	0.440
2020/01/31 04:37:07.9	90.770	0.170	0.490	0.460
2020/01/31 04:37:08.0	90.780	0.120	0.570	0.470
2020/01/31 04:37:08.1	90.780	0.080	0.630	0.490
2020/01/31 04:37:08.2	90.800	0.030	0.680	0.510
2020/01/31 04:37:08.3	90.810	-0.010	0.730	0.520
2020/01/31 04:37:08.4	90.820	-0.050	0.760	0.530
2020/01/31 04:37:08.5	90.840	-0.080	0.790	0.550
2020/01/31 04:37:08.6	90.860	-0.120	0.800	0.560
2020/01/31 04:37:08.7	90.880	-0.150	0.800	0.560
2020/01/31 04:37:08.8	90.900	-0.170	0.790	0.570
2020/01/31 04:37:08.9	90.930	-0.190	0.780	0.570
2020/01/31 04:37:09.0	90.960	-0.210	0.750	0.570
2020/01/31 04:37:09.1	90.990	-0.230	0.710	0.570
2020/01/31 04:37:09.2	91.010	-0.240	0.670	0.570
2020/01/31 04:37:09.3	91.050	-0.250	0.610	0.560
2020/01/31 04:37:09.4	91.080	-0.260	0.550	0.560
2020/01/31 04:37:09.5	91.110	-0.260	0.480	0.550
2020/01/31 04:37:09.6	91.140	-0.260	0.410	0.540
2020/01/31 04:37:09.7	91.170	-0.250	0.330	0.530
2020/01/31 04:37:09.8	91.200	-0.250	0.250	0.520
2020/01/31 04:37:09.9	91.220	-0.240	0.160	0.520
2020/01/31 04:37:10.0	91.250	-0.230	0.070	0.520
2020/01/31 04:37:10.1	91.270	-0.210	-0.010	0.510
2020/01/31 04:37:10.2	91.290	-0.200	-0.100	0.520
2020/01/31 04:37:10.3	91.300	-0.180	-0.190	0.520
2020/01/31 04:37:10.4	91.310	-0.160	-0.280	0.530
2020/01/31 04:37:10.5	91.320	-0.140	-0.360	0.540
2020/01/31 04:37:10.6	91.320	-0.120	-0.440	0.560
2020/01/31 04:37:10.7	91.320	-0.100	-0.510	0.580
2020/01/31 04:37:10.8	91.320	-0.070	-0.580	0.610
2020/01/31 04:37:10.9	91.310	-0.050	-0.640	0.640
2020/01/31 04:37:11.0	91.300	-0.030	-0.690	0.670
2020/01/31 04:37:11.1	91.290	-0.010	-0.740	0.710
2020/01/31 04:37:11.2	91.280	0.010	-0.780	0.750
2020/01/31 04:37:11.3	91.260	0.030	-0.810	0.790
2020/01/31 04:37:11.4	91.240	0.050	-0.830	0.830
2020/01/31 04:37:11.5	91.220	0.070	-0.840	0.880
2020/01/31 04:37:11.6	91.210	0.090	-0.850	0.920
2020/01/31 04:37:11.7	91.190	0.100	-0.840	0.970
2020/01/31 04:37:11.8	91.170	0.110	-0.830	1.010
2020/01/31 04:37:11.9	91.150	0.120	-0.820	1.060
2020/01/31 04:37:12.0	91.130	0.130	-0.790	1.100
2020/01/31 04:37:12.1	91.110	0.140	-0.760	1.130
2020/01/31 04:37:12.2	91.100	0.150	-0.720	1.170
2020/01/31 04:37:12.3	91.090	0.150	-0.680	1.200
2020/01/31 04:37:12.4	91.080	0.150	-0.630	1.230
2020/01/31 04:37:12.5	91.070	0.150	-0.590	1.250
2020/01/31 04:37:12.6	91.060	0.150	-0.540	1.270
2020/01/31 04:37:12.7	91.050	0.150	-0.490	1.280
2020/01/31 04:37:12.8	91.050	0.140	-0.430	1.290
2020/01/31 04:37:12.9	91.050	0.130	-0.380	1.290
2020/01/31 04:37:13.0	91.050	0.120	-0.330	1.290
2020/01/31 04:37:13.1	91.050	0.110	-0.270	1.280
2020/01/31 04:37:13.2	91.060	0.100	-0.230	1.270
2020/01/31 04:37:13.3	91.070	0.090	-0.180	1.250
2020/01/31 04:37:13.4	91.080	0.080	-0.140	1.220
2020/01/31 04:37:13.5	91.090	0.070	-0.090	1.190
2020/01/31 04:37:13.6	91.110	0.060	-0.060	1.160
2020/01/31 04:37:13.7	91.120	0.050	-0.020	1.120
2020/01/31 04:37:13.8	91.140	0.040	0.010	1.080
2020/01/31 04:37:13.9	91.160	0.030	0.030	1.040
2020/01/31 04:37:14.0	91.180	0.020	0.050	1.000
2020/01/31 04:37:14.1	91.200	0.010	0.060	0.960
2020/01/31 04:37:14.2	91.220	0.000	0.070	0.910
2020/01/31 04:37:14.3	91.250	-0.010	0.080	0.870
2020/01/31 04:37:14.4	91.270	-0.010	0.080	0.820
2020/01/31 04:37:14.5	91.290	-0.010	0.070	0.780
2020/01/31 04:37:14.6	91.310	-0.020	0.070	0.730
2020/01/31 04:37:14.7	91.340	-0.020	0.060	0.690
2020/01/31 04:37:14.8	91.360	-0.020	0.040	0.650
2020/01/31 04:37:14.9	91.380	-0.020	0.030	0.610
2020/01/31 04:37:15.0	91.400	-0.020	0.010	0.580
2020/01/31 04:37:15.1	91.410	-0.020	-0.000	0.550
2020/01/31 04:37:15.2	91.430	-0.020	-0.020	0.520
2020/01/31 04:37:15.3	91.440	-0.020	-0.040	0.500
2020/01/31 04:37:15.4	91.460	-0.010	-0.060	0.480
2020/01/31 04:37:15.5	91.460	-0.010	-0.080	0.460
2020/01/31 04:37:15.6	91.470	-0.010	-0.100	0.450
2020/01/31 04:37:15.7	91.480	-0.010	-0.120	0.440
2020/01/31 04:37:15.8	91.480	-0.010	-0.140	0.430
2020/01/31 04:37:15.9	91.480	-0.000	-0.160	0.430
2020/01/31 04:37:16.0	91.480	-0.000	-0.180	0.430
2020/01/31 04:37:16.1	91.470	-0.000	-0.200	0.440
2020/01/31 04:37:16.2	91.470	-0.000	-0.210	0.450
2020/01/31 04:37:16.3	91.460	-0.000	-0.230	0.460
2020/01/31 04:37:16.4	91.450	-0.000	-0.240	0.470
2020/01/31 04:37:16.5	91.450	-0.010	-0.250	0.480
2020/01/31 04:37:16.6	91.440	-0.010	-0.260	0.490
2020/01/31 04:37:16.7	91.430	-0.020	-0.270	0.500
2020/01/31 04:37:16.8	91.430	-0.020	-0.280	0.520
2020/01/31 04:37:16.9	91.420	-0.030	-0.290	0.530
2020/01/31 04:37:17.0	91.420	-0.040	-0.290	0.540
2020/01/31 04:37:17.1	91.420	-0.050	-0.300	0.550
2020/01/31 04:37:17.2	91.420	-0.060	-0.300	0.570
2020/01/31 04:37:17.3	91.420	-0.070	-0.300	0.590
2020/01/31 04:37:17.4	91.420	-0.090	-0.300	0.600
2020/01/31 04:37:17.5	91.420	-0.100	-0.310	0.610
2020/01/31 04:37:17.6	91.420	-0.120	-0.310	0.620
2020/01/31 04:37:17.7	91.420	-0.130	-0.310	0.630
2020/01/31 04:37:17.8	91.420	-0.150	-0.320	0.640
2020/01/31 04:37:17.9	91.430	-0.160	-0.320	0.650
2020/01/31 04:37:18.0	91.430	-0.180	-0.320	0.660
2020/01/31 04:37:18.1	91.430	-0.190	-0.330	0.670
2020/01/31 04:37:18.2	91.440	-0.210	-0.330	0.680
2020/01/31 04:37:18.3	91.440	-0.220	-0.330	0.690
2020/01/31 04:37:18.4	91.450	-0.240	-0.340	0.700
2020/01/31 04:37:18.5	91.450	-0.250	-0.340	0.710
2020/01/31 04:37:18.6	91.450	-0.270	-0.340	0.720
2020/01/31 04:37:18.7	91.460	-0.280	-0.330	0.730
2020/01/31 04:37:18.8	91.460	-0.290	-0.330	0.740
2020/01/31 04:37:18.9	91.470	-0.310	-0.330	0.740
2020/01/31 04:37:19.0	91.470	-0.320	-0.320	0.740
2020/01/31 04:37:19.1	91.480	-0.330	-0.310	0.740
2020/01/31 04:37:19.2	91.480	-0.340	-0.310	0.750
2020/01/31 04:37:19.3	91.490	-0.350	-0.290	0.740
2020/01/31 04:37:19.4	91.500	-0.360	-0.280	0.740
2020/01/31 04:37:19.5	91.510	-0.360	-0.270	0.730
2020/01/31 04:37:19.6	91.520	-0.370	-0.260	0.720
2020/01/31 04:37:19.7	91.530	-0.370	-0.250	0.700
2020/01/31 04:37:19.8	91.550	-0.380	-0.240	0.690
2020/01/31 04:37:19.9	91.560	-0.380	-0.230	0.670
2020/01/31 04:37:20.0	91.570	-0.380	-0.220	0.650
2020/01/31 04:37:20.1	91.590	-0.370	-0.210	0.630
2020/01/31 04:37:20.2	91.600	-0.370	-0.210	0.600
2020/01/31 04:37:20.3	91.620	-0.360	-0.200	0.580
2020/01/31 04:37:20.4	91.640	-0.360	-0.200	0.560
2020/01/31 04:37:20.5	91.650	-0.350	-0.190	0.540
2020/01/31 04:37:20.6	91.670	-0.330	-0.190	0.510
2020/01/31 04:37:20.7	91.690	-0.320	-0.190	0.490
2020/01/31 04:37:20.8	91.700	-0.310	-0.190	0.470
2020/01/31 04:37:20.9	91.720	-0.290	-0.190	0.460
2020/01/31 04:37:21.0	91.730	-0.270	-0.200	0.440
2020/01/31 04:37:21.1	91.740	-0.250	-0.200	0.430
2020/01/31 04:37:21.2	91.760	-0.230	-0.210	0.430
2020/01/31 04:37:21.3	91.770	-0.210	-0.210	0.420
2020/01/31 04:37:21.4	91.780	-0.180	-0.220	0.420
2020/01/31 04:37:21.5	91.790	-0.160	-0.220	0.410
2020/01/31 04:37:21.6	91.800	-0.130	-0.230	0.410
2020/01/31 04:37:21.7	91.820	-0.100	-0.240	0.420
2020/01/31 04:37:21.8	91.830	-0.070	-0.250	0.420
2020/01/31 04:37:21.9	91.840	-0.040	-0.250	0.420
2020/01/31 04:37:22.0	91.850	-0.010	-0.260	0.420
2020/01/31 04:37:22.1	91.860	0.020	-0.270	0.430
2020/01/31 04:37:22.2	91.870	0.050	-0.280	0.430
2020/01/31 04:37:22.3	91.880	0.080	-0.290	0.430
2020/01/31 04:37:22.4	91.890	0.110	-0.300	0.430
2020/01/31 04:37:22.5	91.900	0.140	-0.310	0.430
2020/01/31 04:37:22.6	91.910	0.170	-0.320	0.430
2020/01/31 04:37:22.7	91.920	0.200	-0.330	0.430
2020/01/31 04:37:22.8	91.920	0.230	-0.340	0.430
2020/01/31 04:37:22.9	91.930	0.260	-0.350	0.420
2020/01/31 04:37:23.0	91.930	0.290	-0.360	0.420
2020/01/31 04:37:23.1	91.940	0.320	-0.370	0.410
2020/01/31 04:37:23.2	91.940	0.340	-0.380	0.410
2020/01/31 04:37:23.3	91.940	0.370	-0.380	0.400
2020/01/31 04:37:23.4	91.940	0.390	-0.380	0.390
2020/01/31 04:37:23.5	91.930	0.410	-0.380	0.390
2020/01/31 04:37:23.6	91.930	0.420	-0.380	0.380
2020/01/31 04:37:23.7	91.920	0.440	-0.380	0.380
2020/01/31 04:37:23.8	91.910	0.450	-0.370	0.370
2020/01/31 04:37:23.9	91.900	0.460	-0.360	0.370
2020/01/31 04:37:24.0	91.890	0.460	-0.350	0.370
2020/01/31 04:37:24.1	91.880	0.470	-0.340	0.360
2020/01/31 04:37:24.2	91.870	0.470	-0.320	0.370
2020/01/31 04:37:24.3	91.850	0.470	-0.300	0.370
2020/01/31 04:37:24.4	91.830	0.460	-0.280	0.360
2020/01/31 04:37:24.5	91.820	0.460	-0.250	0.360
2020/01/31 04:37:24.6	91.800	0.450	-0.230	0.360
2020/01/31 04:37:24.7	91.780	0.440	-0.200	0.360
2020/01/31 04:37:24.8	91.760	0.420	-0.180	0.360
2020/01/31 04:37:24.9	91.740	0.410	-0.150	0.350
2020/01/31 04:37:25.0	91.720	0.390	-0.120	0.350
2020/01/31 04:37:25.1	91.710	0.380	-0.100	0.340
2020/01/31 04:37:25.2	91.690	0.360	-0.070	0.340
2020/01/31 04:37:25.3	91.680	0.340	-0.050	0.330
2020/01/31 04:37:25.4	91.660	0.320	-0.020	0.320
2020/01/31 04:37:25.5	91.650	0.310	-0.000	0.300
2020/01/31 04:37:25.6	91.640	0.290	0.020	0.290
2020/01/31 04:37:25.7	91.630	0.270	0.030	0.280
2020/01/31 04:37:25.8	91.620	0.250	0.040	0.260
2020/01/31 04:37:25.9	91.610	0.240	0.050	0.250
2020/01/31 04:37:26.0	91.610	0.220	0.050	0.230
2020/01/31 04:37:26.1	91.610	0.210	0.060	0.220
2020/01/31 04:37:26.2	91.600	0.200	0.050	0.200
2020/01/31 04:37:26.3	91.600	0.190	0.040	0.190
2020/01/31 04:37:26.4	91.600	0.180	0.030	0.170
2020/01/31 04:37:26.5	91.600	0.170	0.010	0.160
2020/01/31 04:37:26.6	91.600	0.170	-0.020	0.150
2020/01/31 04:37:26.7	91.600	0.160	-0.040	0.150
2020/01/31 04:37:26.8	91.600	0.160	-0.070	0.150
2020/01/31 04:37:26.9	91.600	0.160	-0.110	0.150
2020/01/31 04:37:27.0	91.600	0.160	-0.150	0.150
2020/01/31 04:37:27.1	91.600	0.170	-0.190	0.150
2020/01/31 04:37:27.2	91.610	0.170	-0.230	0.170
2020/01/31 04:37:27.3	91.610	0.180	-0.280	0.180
2020/01/31 04:37:27.4	91.610	0.180	-0.330	0.190
2020/01/31 04:37:27.5	91.610	0.190	-0.370	0.200
2020/01/31 04:37:27.6	91.610	0.200	-0.420	0.220
2020/01/31 04:37:27.7	91.620	0.210	-0.460	0.240
2020/01/31 04:37:27.8	91.620	0.210	-0.510	0.250
2020/01/31 04:37:27.9	91.630	0.220	-0.550	0.270
2020/01/31 04:37:28.0	91.640	0.230	-0.580	0.300
2020/01/31 04:37:28.1	91.650	0.230	-0.610	0.320
2020/01/31 04:37:28.2	91.660	0.240	-0.640	0.340
2020/01/31 04:37:28.3	91.670	0.240	-0.660	0.370
2020/01/31 04:37:28.4	91.680	0.240	-0.680	0.390
2020/01/31 04:37:28.5	91.690	0.240	-0.690	0.420
2020/01/31 04:37:28.6	91.710	0.240	-0.700	0.450
2020/01/31 04:37:28.7	91.730	0.230	-0.690	0.480
2020/01/31 04:37:28.8	91.740	0.220	-0.690	0.510
2020/01/31 04:37:28.9	91.760	0.210	-0.670	0.540
2020/01/31 04:37:29.0	91.790	0.200	-0.650	0.570
2020/01/31 04:37:29.1	91.810	0.180	-0.620	0.600
2020/01/31 04:37:29.2	91.840	0.160	-0.590	0.640
2020/01/31 04:37:29.3	91.860	0.130	-0.550	0.670
2020/01/31 04:37:29.4	91.890	0.110	-0.500	0.710
2020/01/31 04:37:29.5	91.910	0.080	-0.450	0.740
2020/01/31 04:37:29.6	91.940	0.040	-0.400	0.780
2020/01/31 04:37:29.7	91.970	0.010	-0.340	0.820
2020/01/31 04:37:29.8	92.000	-0.030	-0.280	0.860
2020/01/31 04:37:29.9	92.020	-0.070	-0.220	0.900
2020/01/31 04:37:30.0	92.050	-0.110	-0.150	0.940
2020/01/31 04:37:30.1	92.070	-0.160	-0.080	0.980
2020/01/31 04:37:30.2	92.090	-0.210	-0.020	1.020
2020/01/31 04:37:30.3	92.110	-0.260	0.050	1.060
2020/01/31 04:37:30.4	92.130	-0.310	0.120	1.100
2020/01/31 04:37:30.5	92.150	-0.360	0.190	1.140
2020/01/31 04:37:30.6	92.160	-0.410	0.260	1.180
2020/01/31 04:37:30.7	92.180	-0.460	0.320	1.220
2020/01/31 04:37:30.8	92.190	-0.510	0.390	1.260
2020/01/31 04:37:30.9	92.190	-0.560	0.450	1.290
2020/01/31 04:37:31.0	92.200	-0.610	0.510	1.330
2020/01/31 04:37:31.1	92.200	-0.660	0.560	1.360
2020/01/31 04:37:31.2	92.210	-0.710	0.620	1.400
2020/01/31 04:37:31.3	92.210	-0.750	0.660	1.430
2020/01/31 04:37:31.4	92.200	-0.800	0.700	1.450
2020/01/31 04:37:31.5	92.200	-0.840	0.740	1.470
2020/01/31 04:37:31.6	92.190	-0.880	0.770	1.490
2020/01/31 04:37:31.7	92.190	-0.910	0.790	1.510
2020/01/31 04:37:31.8	92.180	-0.940	0.810	1.520
2020/01/31 04:37:31.9	92.170	-0.970	0.820	1.520
2020/01/31 04:37:32.0	92.150	-0.990	0.820	1.520
2020/01/31 04:37:32.1	92.140	-1.010	0.810	1.520
2020/01/31 04:37:32.2	92.130	-1.020	0.800	1.510
2020/01/31 04:37:32.3	92.120	-1.030	0.780	1.500
2020/01/31 04:37:32.4	92.100	-1.030	0.740	1.480
2020/01/31 04:37:32.5	92.090	-1.020	0.700	1.460
2020/01/31 04:37:32.6	92.080	-1.010	0.650	1.430
2020/01/31 04:37:32.7	92.070	-0.990	0.590	1.400
2020/01/31 04:37:32.8	92.060	-0.970	0.520	1.370
2020/01/31 04:37:32.9	92.040	-0.940	0.440	1.340
2020/01/31 04:37:33.0	92.040	-0.900	0.350	1.300
2020/01/31 04:37:33.1	92.030	-0.860	0.260	1.270
2020/01/31 04:37:33.2	92.020	-0.810	0.150	1.230
2020/01/31 04:37:33.3	92.010	-0.750	0.050	1.190
2020/01/31 04:37:33.4	92.010	-0.690	-0.070	1.150
2020/01/31 04:37:33.5	92.010	-0.620	-0.180	1.110
2020/01/31 04:37:33.6	92.000	-0.550	-0.310	1.070
2020/01/31 04:37:33.7	92.000	-0.480	-0.430	1.030
2020/01/31 04:37:33.8	92.000	-0.400	-0.550	0.990
2020/01/31 04:37:33.9	92.000	-0.320	-0.670	0.940
2020/01/31 04:37:34.0	92.000	-0.240	-0.790	0.900
2020/01/31 04:37:34.1	92.000	-0.150	-0.910	0.860
2020/01/31 04:37:34.2	91.990	-0.070	-1.020	0.820
2020/01/31 04:37:34.3	91.990	0.010	-1.130	0.780
2020/01/31 04:37:34.4	91.990	0.100	-1.220	0.730
2020/01/31 04:37:34.5	91.980	0.180	-1.310	0.690
2020/01/31 04:37:34.6	91.980	0.260	-1.390	0.640
2020/01/31 04:37:34.7	91.980	0.340	-1.470	0.590
2020/01/31 04:37:34.8	91.970	0.410	-1.530	0.540
2020/01/31 04:37:34.9	91.970	0.480	-1.580	0.490
2020/01/31 04:37:35.0	91.960	0.550	-1.610	0.440
2020/01/31 04:37:35.1	91.950	0.610	-1.640	0.390
2020/01/31 04:37:35.2	91.940	0.670	-1.660	0.350
2020/01/31 04:37:35.3	91.930	0.720	-1.660	0.300
2020/01/31 04:37:35.4	91.920	0.770	-1.650	0.260
2020/01/31 04:37:35.5	91.910	0.810	-1.630	0.220
2020/01/31 04:37:35.6	91.890	0.850	-1.590	0.180
2020/01/31 04:37:35.7	91.880	0.880	-1.550	0.140
2020/01/31 04:37:35.8	91.870	0.900	-1.490	0.110
2020/01/31 04:37:35.9	91.850	0.920	-1.420	0.080
2020/01/31 04:37:36.0	91.840	0.930	-1.350	0.060
2020/01/31 04:37:36.1	91.820	0.940	-1.270	0.040
2020/01/31 04:37:36.2	91.810	0.940	-1.170	0.020
2020/01/31 04:37:36.3	91.800	0.940	-1.070	0.010
2020/01/31 04:37:36.4	91.790	0.930	-0.970	0.000
2020/01/31 04:37:36.5	91.780	0.910	-0.860	-0.000
2020/01/31 04:37:36.6	91.770	0.890	-0.750	-0.000
2020/01/31 04:37:36.7	91.760	0.870	-0.640	-0.000
2020/01/31 04:37:36.8	91.760	0.840	-0.530	0.000
2020/01/31 04:37:36.9	91.760	0.800	-0.410	0.010
2020/01/31 04:37:37.0	91.760	0.770	-0.300	0.020
2020/01/31 04:37:37.1	91.760	0.730	-0.190	0.030
2020/01/31 04:37:37.2	91.760	0.680	-0.090	0.050
2020/01/31 04:37:37.3	91.760	0.640	0.010	0.070
2020/01/31 04:37:37.4	91.770	0.590	0.100	0.080
2020/01/31 04:37:37.5	91.780	0.540	0.190	0.100
2020/01/31 04:37:37.6	91.790	0.490	0.260	0.120
2020/01/31 04:37:37.7	91.800	0.440	0.330	0.130
2020/01/31 04:37:37.8	91.810	0.390	0.390	0.150
2020/01/31 04:37:37.9	91.820	0.340	0.440	0.160
2020/01/31 04:37:38.0	91.830	0.290	0.490	0.180
2020/01/31 04:37:38.1	91.850	0.240	0.520	0.190
2020/01/31 04:37:38.2	91.860	0.200	0.540	0.210
2020/01/31 04:37:38.3	91.870	0.150	0.550	0.230
2020/01/31 04:37:38.4	91.880	0.110	0.550	0.250
2020/01/31 04:37:38.5	91.890	0.070	0.540	0.270
2020/01/31 04:37:38.6	91.900	0.040	0.520	0.280
2020/01/31 04:37:38.7	91.910	0.000	0.500	0.310
2020/01/31 04:37:38.8	91.910	-0.030	0.470	0.330
2020/01/31 04:37:38.9	91.920	-0.050	0.430	0.350
2020/01/31 04:37:39.0	91.920	-0.080	0.380	0.380
2020/01/31 04:37:39.1	91.920	-0.100	0.340	0.410
2020/01/31 04:37:39.2	91.920	-0.120	0.290	0.450
2020/01/31 04:37:39.3	91.920	-0.140	0.240	0.480
2020/01/31 04:37:39.4	91.910	-0.150	0.190	0.520
2020/01/31 04:37:39.5	91.910	-0.160	0.140	0.560
2020/01/31 04:37:39.6	91.900	-0.180	0.100	0.600
2020/01/31 04:37:39.7	91.890	-0.190	0.050	0.640
2020/01/31 04:37:39.8	91.880	-0.200	0.020	0.680
2020/01/31 04:37:39.9	91.860	-0.210	-0.010	0.720
2020/01/31 04:37:40.0	91.850	-0.220	-0.040	0.770
2020/01/31 04:37:40.1	91.830	-0.230	-0.060	0.810
2020/01/31 04:37:40.2	91.810	-0.240	-0.070	0.850
2020/01/31 04:37:40.3	91.800	-0.260	-0.080	0.890
2020/01/31 04:37:40.4	91.780	-0.270	-0.080	0.930
2020/01/31 04:37:40.5	91.760	-0.280	-0.070	0.970
2020/01/31 04:37:40.6	91.740	-0.300	-0.060	1.010
2020/01/31 04:37:40.7	91.720	-0.310	-0.040	1.040
2020/01/31 04:37:40.8	91.710	-0.330	-0.020	1.070
2020/01/31 04:37:40.9	91.690	-0.340	0.010	1.100
2020/01/31 04:37:41.0	91.680	-0.360	0.040	1.120
2020/01/31 04:37:41.1	91.670	-0.380	0.080	1.140
2020/01/31 04:37:41.2	91.660	-0.400	0.110	1.160
2020/01/31 04:37:41.3	91.650	-0.410	0.150	1.170
2020/01/31 04:37:41.4	91.650	-0.430	0.180	1.180
2020/01/31 04:37:41.5	91.650	-0.450	0.220	1.180
2020/01/31 04:37:41.6	91.650	-0.460	0.240	1.180
2020/01/31 04:37:41.7	91.660	-0.480	0.270	1.180
2020/01/31 04:37:41.8	91.670	-0.490	0.290	1.170
2020/01/31 04:37:41.9	91.690	-0.500	0.300	1.160
2020/01/31 04:37:42.0	91.700	-0.510	0.310	1.140
2020/01/31 04:37:42.1	91.720	-0.510	0.310	1.130
2020/01/31 04:37:42.2	91.740	-0.510	0.300	1.110
2020/01/31 04:37:42.3	91.770	-0.510	0.280	1.100
2020/01/31 04:37:42.4	91.790	-0.500	0.260	1.080
2020/01/31 04:37:42.5	91.820	-0.490	0.230	1.060
2020/01/31 04:37:42.6	91.840	-0.480	0.180	1.040
2020/01/31 04:37:42.7	91.870	-0.460	0.130	1.020
2020/01/31 04:37:42.8	91.890	-0.440	0.070	1.000
2020/01/31 04:37:42.9	91.920	-0.410	0.010	0.990
2020/01/31 04:37:43.0	91.940	-0.380	-0.070	0.970
2020/01/31 04:37:43.1	91.960	-0.340	-0.140	0.960
2020/01/31 04:37:43.2	91.980	-0.300	-0.230	0.950
2020/01/31 04:37:43.3	92.000	-0.260	-0.310	0.940
2020/01/31 04:37:43.4	92.020	-0.210	-0.400	0.930
2020/01/31 04:37:43.5	92.040	-0.160	-0.490	0.920
2020/01/31 04:37:43.6	92.050	-0.110	-0.580	0.910
2020/01/31 04:37:43.7	92.060	-0.060	-0.670	0.900
2020/01/31 04:37:43.8	92.070	-0.010	-0.750	0.900
2020/01/31 04:37:43.9	92.070	0.050	-0.830	0.890
2020/01/31 04:37:44.0	92.080	0.100	-0.900	0.880
2020/01/31 04:37:44.1	92.080	0.160	-0.960	0.870
2020/01/31 04:37:44.2	92.090	0.210	-1.020	0.860
2020/01/31 04:37:44.3	92.090	0.260	-1.060	0.850
2020/01/31 04:37:44.4	92.090	0.310	-1.100	0.840
2020/01/31 04:37:44.5	92.080	0.350	-1.120	0.830
2020/01/31 04:37:44.6	92.080	0.390	-1.130	0.820
2020/01/31 04:37:44.7	92.080	0.430	-1.140	0.810
2020/01/31 04:37:44.8	92.070	0.470	-1.130	0.790
2020/01/31 04:37:44.9	92.070	0.500	-1.110	0.780
2020/01/31 04:37:45.0	92.060	0.530	-1.080	0.770
2020/01/31 04:37:45.1	92.050	0.550	-1.040	0.760
2020/01/31 04:37:45.2	92.040	0.570	-0.990	0.760
2020/01/31 04:37:45.3	92.030	0.580	-0.930	0.750
2020/01/31 04:37:45.4	92.020	0.590	-0.870	0.740
2020/01/31 04:37:45.5	92.010	0.590	-0.800	0.740
2020/01/31 04:37:45.6	92.000	0.590	-0.730	0.740
2020/01/31 04:37:45.7	91.990	0.590	-0.650	0.730
2020/01/31 04:37:45.8	91.970	0.580	-0.570	0.730
2020/01/31 04:37:45.9	91.960	0.570	-0.490	0.730
2020/01/31 04:37:46.0	91.950	0.560	-0.410	0.730
2020/01/31 04:37:46.1	91.930	0.540	-0.330	0.740
2020/01/31 04:37:46.2	91.920	0.520	-0.250	0.740
2020/01/31 04:37:46.3	91.910	0.500	-0.170	0.740
2020/01/31 04:37:46.4	91.890	0.480	-0.100	0.750
2020/01/31 04:37:46.5	91.880	0.460	-0.040	0.750
2020/01/31 04:37:46.6	91.870	0.430	0.020	0.750
2020/01/31 04:37:46.7	91.860	0.410	0.070	0.760
2020/01/31 04:37:46.8	91.850	0.380	0.110	0.760
2020/01/31 04:37:46.9	91.840	0.360	0.150	0.760
2020/01/31 04:37:47.0	91.840	0.330	0.180	0.750
2020/01/31 04:37:47.1	91.830	0.310	0.200	0.750
2020/01/31 04:37:47.2	91.820	0.290	0.210	0.750
2020/01/31 04:37:47.3	91.810	0.260	0.210	0.750
2020/01/31 04:37:47.4	91.810	0.240	0.210	0.740
2020/01/31 04:37:47.5	91.800	0.220	0.200	0.730
2020/01/31 04:37:47.6	91.800	0.200	0.190	0.720
2020/01/31 04:37:47.7	91.790	0.190	0.170	0.720
2020/01/31 04:37:47.8	91.780	0.170	0.140	0.710
2020/01/31 04:37:47.9	91.770	0.160	0.110	0.700
2020/01/31 04:37:48.0	91.760	0.140	0.070	0.690
2020/01/31 04:37:48.1	91.740	0.130	0.040	0.690
2020/01/31 04:37:48.2	91.730	0.120	-0.000	0.680
2020/01/31 04:37:48.3	91.710	0.110	-0.040	0.670
2020/01/31 04:37:48.4	91.700	0.090	-0.080	0.660
2020/01/31 04:37:48.5	91.680	0.080	-0.120	0.660
2020/01/31 04:37:48.6	91.670	0.070	-0.160	0.650
2020/01/31 04:37:48.7	91.660	0.060	-0.200	0.640
2020/01/31 04:37:48.8	91.640	0.050	-0.230	0.630
2020/01/31 04:37:48.9	91.630	0.040	-0.260	0.620
2020/01/31 04:37:49.0	91.620	0.020	-0.290	0.610
2020/01/31 04:37:49.1	91.620	0.010	-0.310	0.600
2020/01/31 04:37:49.2	91.610	-0.010	-0.320	0.590
2020/01/31 04:37:49.3	91.610	-0.020	-0.330	0.580
2020/01/31 04:37:49.4	91.600	-0.040	-0.340	0.580
2020/01/31 04:37:49.5	91.600	-0.060	-0.340	0.580
2020/01/31 04:37:49.6	91.600	-0.080	-0.330	0.580
2020/01/31 04:37:49.7	91.610	-0.100	-0.320	0.580
2020/01/31 04:37:49.8	91.610	-0.120	-0.310	0.580
2020/01/31 04:37:49.9	91.610	-0.150	-0.290	0.590
2020/01/31 04:37:50.0	91.620	-0.170	-0.260	0.600
2020/01/31 04:37:50.1	91.620	-0.200	-0.240	0.620
2020/01/31 04:37:50.2	91.630	-0.220	-0.210	0.640
2020/01/31 04:37:50.3	91.640	-0.250	-0.180	0.660
2020/01/31 04:37:50.4	91.650	-0.270	-0.140	0.680
2020/01/31 04:37:50.5	91.650	-0.300	-0.110	0.700
2020/01/31 04:37:50.6	91.660	-0.330	-0.070	0.730
2020/01/31 04:37:50.7	91.670	-0.350	-0.040	0.750
2020/01/31 04:37:50.8	91.680	-0.380	-0.010	0.780
2020/01/31 04:37:50.9	91.690	-0.400	0.020	0.810
2020/01/31 04:37:51.0	91.700	-0.430	0.050	0.840
2020/01/31 04:37:51.1	91.710	-0.450	0.080	0.860
2020/01/31 04:37:51.2	91.720	-0.470	0.100	0.890
2020/01/31 04:37:51.3	91.730	-0.490	0.120	0.920
2020/01/31 04:37:51.4	91.740	-0.510	0.140	0.940
2020/01/31 04:37:51.5	91.750	-0.520	0.150	0.960
2020/01/31 04:37:51.6	91.760	-0.530	0.150	0.980
2020/01/31 04:37:51.7	91.770	-0.540	0.160	1.000
2020/01/31 04:37:51.8	91.780	-0.550	0.150	1.010
2020/01/31 04:37:51.9	91.780	-0.560	0.140	1.030
2020/01/31 04:37:52.0	91.790	-0.560	0.130	1.040
2020/01/31 04:37:52.1	91.800	-0.560	0.110	1.050
2020/01/31 04:37:52.2	91.810	-0.550	0.090	1.070
2020/01/31 04:37:52.3	91.810	-0.540	0.060	1.080
2020/01/31 04:37:52.4	91.820	-0.530	0.030	1.080
2020/01/31 04:37:52.5	91.820	-0.520	-0.010	1.090
2020/01/31 04:37:52.6	91.830	-0.500	-0.050	1.100
2020/01/31 04:37:52.7	91.840	-0.480	-0.090	1.100
2020/01/31 04:37:52.8	91.840	-0.460	-0.140	1.100
2020/01/31 04:37:52.9	91.850	-0.440	-0.190	1.100
2020/01/31 04:37:53.0	91.860	-0.410	-0.230	1.110
2020/01/31 04:37:53.1	91.860	-0.380	-0.280	1.110
2020/01/31 04:37:53.2	91.870	-0.350	-0.330	1.110
2020/01/31 04:37:53.3	91.880	-0.320	-0.380	1.110
2020/01/31 04:37:53.4	91.890	-0.290	-0.430	1.110
2020/01/31 04:37:53.5	91.900	-0.260	-0.470	1.110
2020/01/31 04:37:53.6	91.910	-0.230	-0.510	1.110
2020/01/31 04:37:53.7	91.920	-0.190	-0.550	1.100
2020/01/31 04:37:53.8	91.930	-0.160	-0.580	1.100
2020/01/31 04:37:53.9	91.940	-0.130	-0.610	1.090
2020/01/31 04:37:54.0	91.950	-0.100	-0.630	1.090
2020/01/31 04:37:54.1	91.960	-0.070	-0.650	1.080
2020/01/31 04:37:54.2	91.970	-0.050	-0.660	1.070
2020/01/31 04:37:54.3	91.980	-0.020	-0.660	1.060
2020/01/31 04:37:54.4	91.990	-0.000	-0.670	1.050
2020/01/31 04:37:54.5	92.000	0.020	-0.660	1.040
2020/01/31 04:37:54.6	92.000	0.040	-0.650	1.030
2020/01/31 04:37:54.7	92.000	0.050	-0.630	1.020
2020/01/31 04:37:54.8	92.000	0.060	-0.610	1.000
2020/01/31 04:37:54.9	92.000	0.070	-0.580	0.980
2020/01/31 04:37:55.0	92.000	0.080	-0.550	0.970
2020/01/31 04:37:55.1	92.000	0.080	-0.510	0.950
2020/01/31 04:37:55.2	91.990	0.080	-0.460	0.940
2020/01/31 04:37:55.3	91.980	0.080	-0.420	0.920
2020/01/31 04:37:55.4	91.970	0.080	-0.370	0.900
2020/01/31 04:37:55.5	91.960	0.070	-0.320	0.870
2020/01/31 04:37:55.6	91.950	0.070	-0.270	0.850
2020/01/31 04:37:55.7	91.940	0.060	-0.220	0.830
2020/01/31 04:37:55.8	91.930	0.050	-0.170	0.810
2020/01/31 04:37:55.9	91.910	0.040	-0.120	0.780
2020/01/31 04:37:56.0	91.900	0.030	-0.070	0.760
2020/01/31 04:37:56.1	91.890	0.020	-0.030	0.740
2020/01/31 04:37:56.2	91.880	0.010	0.010	0.710
2020/01/31 04:37:56.3	91.860	0.010	0.040	0.690
2020/01/31 04:37:56.4	91.850	-0.000	0.080	0.660
2020/01/31 04:37:56.5	91.840	-0.010	0.100	0.640
2020/01/31 04:37:56.6	91.830	-0.010	0.120	0.620
2020/01/31 04:37:56.7	91.820	-0.020	0.140	0.610
2020/01/31 04:37:56.8	91.800	-0.020	0.150	0.590
2020/01/31 04:37:56.9	91.790	-0.020	0.150	0.570
2020/01/31 04:37:57.0	91.780	-0.010	0.140	0.550
2020/01/31 04:37:57.1	91.770	-0.010	0.130	0.540
2020/01/31 04:37:57.2	91.770	-0.000	0.120	0.530
2020/01/31 04:37:57.3	91.760	0.010	0.090	0.510
2020/01/31 04:37:57.4	91.750	0.020	0.060	0.490
2020/01/31 04:37:57.5	91.740	0.040	0.020	0.480
2020/01/31 04:37:57.6	91.730	0.060	-0.020	0.460
2020/01/31 04:37:57.7	91.720	0.080	-0.060	0.440
2020/01/31 04:37:57.8	91.720	0.110	-0.110	0.420
2020/01/31 04:37:57.9	91.710	0.130	-0.170	0.400
2020/01/31 04:37:58.0	91.700	0.160	-0.220	0.380
2020/01/31 04:37:58.1	91.690	0.190	-0.280	0.350
2020/01/31 04:37:58.2	91.680	0.220	-0.340	0.330
2020/01/31 04:37:58.3	91.670	0.260	-0.400	0.310
2020/01/31 04:37:58.4	91.660	0.290	-0.460	0.280
2020/01/31 04:37:58.5	91.650	0.320	-0.520	0.260
2020/01/31 04:37:58.6	91.640	0.350	-0.570	0.230
2020/01/31 04:37:58.7	91.630	0.390	-0.630	0.210
2020/01/31 04:37:58.8	91.610	0.420	-0.670	0.180
2020/01/31 04:37:58.9	91.600	0.450	-0.720	0.160
2020/01/31 04:37:59.0	91.590	0.480	-0.760	0.140
2020/01/31 04:37:59.1	91.580	0.510	-0.790	0.120
2020/01/31 04:37:59.2	91.560	0.530	-0.810	0.110
2020/01/31 04:37:59.3	91.550	0.550	-0.830	0.100
2020/01/31 04:37:59.4	91.540	0.580	-0.840	0.090
2020/01/31 04:37:59.5	91.520	0.590	-0.850	0.080
2020/01/31 04:37:59.6	91.510	0.610	-0.850	0.070
2020/01/31 04:37:59.7	91.490	0.620	-0.840	0.070
2020/01/31 04:37:59.8	91.480	0.630	-0.820	0.080
2020/01/31 04:37:59.9	91.470	0.630	-0.790	0.080
2020/01/31 04:38:00.0	91.450	0.630	-0.760	0.090
2020/01/31 04:38:00.1	91.440	0.630	-0.720	0.100
2020/01/31 04:38:00.2	91.430	0.630	-0.680	0.110
2020/01/31 04:38:00.3	91.430	0.620	-0.630	0.120
2020/01/31 04:38:00.4	91.420	0.610	-0.570	0.140
2020/01/31 04:38:00.5	91.420	0.590	-0.520	0.150
2020/01/31 04:38:00.6	91.410	0.580	-0.460	0.170
2020/01/31 04:38:00.7	91.420	0.560	-0.390	0.180
2020/01/31 04:38:00.8	91.420	0.540	-0.330	0.190
2020/01/31 04:38:00.9	91.430	0.510	-0.270	0.210
2020/01/31 04:38:01.0	91.440	0.490	-0.210	0.220
2020/01/31 04:38:01.1	91.450	0.460	-0.150	0.230
2020/01/31 04:38:01.2	91.460	0.430	-0.090	0.250
2020/01/31 04:38:01.3	91.480	0.400	-0.040	0.260
2020/01/31 04:38:01.4	91.500	0.380	0.010	0.270
2020/01/31 04:38:01.5	91.530	0.350	0.060	0.280
2020/01/31 04:38:01.6	91.550	0.320	0.090	0.290
2020/01/31 04:38:01.7	91.580	0.290	0.130	0.300
2020/01/31 04:38:01.8	91.600	0.260	0.150	0.310
2020/01/31 04:38:01.9	91.630	0.230	0.170	0.330
2020/01/31 04:38:02.0	91.660	0.210	0.190	0.340
2020/01/31 04:38:02.1	91.680	0.180	0.200	0.360
2020/01/31 04:38:02.2	91.710	0.160	0.210	0.380
2020/01/31 04:38:02.3	91.730	0.130	0.210	0.400
2020/01/31 04:38:02.4	91.750	0.110	0.200	0.420
2020/01/31 04:38:02.5	91.770	0.080	0.200	0.450
2020/01/31 04:38:02.6	91.790	0.060	0.190	0.480
2020/01/31 04:38:02.7	91.800	0.030	0.180	0.510
2020/01/31 04:38:02.8	91.810	0.010	0.170	0.540
2020/01/31 04:38:02.9	91.820	-0.010	0.160	0.580
2020/01/31 04:38:03.0	91.830	-0.040	0.150	0.620
2020/01/31 04:38:03.1	91.830	-0.060	0.150	0.650
2020/01/31 04:38:03.2	91.830	-0.090	0.140	0.700
2020/01/31 04:38:03.3	91.830	-0.110	0.140	0.740
2020/01/31 04:38:03.4	91.830	-0.140	0.140	0.780
2020/01/31 04:38:03.5	91.830	-0.170	0.140	0.820
2020/01/31 04:38:03.6	91.820	-0.190	0.150	0.860
2020/01/31 04:38:03.7	91.810	-0.220	0.160	0.910
2020/01/31 04:38:03.8	91.800	-0.250	0.170	0.950
2020/01/31 04:38:03.9	91.790	-0.290	0.180	0.990
2020/01/31 04:38:04.0	91.780	-0.320	0.200	1.040
2020/01/31 04:38:04.1	91.760	-0.350	0.220	1.090
2020/01/31 04:38:04.2	91.750	-0.380	0.240	1.130
2020/01/31 04:38:04.3	91.730	-0.420	0.260	1.180
2020/01/31 04:38:04.4	91.720	-0.450	0.280	1.230
2020/01/31 04:38:04.5	91.700	-0.480	0.300	1.280
2020/01/31 04:38:04.6	91.690	-0.520	0.310	1.330
2020/01/31 04:38:04.7	91.670	-0.550	0.330	1.380
2020/01/31 04:38:04.8	91.660	-0.580	0.330	1.420
2020/01/31 04:38:04.9	91.650	-0.610	0.340	1.470
2020/01/31 04:38:05.0	91.630	-0.640	0.340	1.520
2020/01/31 04:38:05.1	91.620	-0.670	0.340	1.560
2020/01/31 04:38:05.2	91.610	-0.690	0.330	1.600
2020/01/31 04:38:05.3	91.610	-0.710	0.310	1.630
2020/01/31 04:38:05.4	91.600	-0.730	0.290	1.660
2020/01/31 04:38:05.5	91.600	-0.750	0.260	1.680
2020/01/31 04:38:05.6	91.600	-0.760	0.220	1.700
2020/01/31 04:38:05.7	91.610	-0.770	0.180	1.710
2020/01/31 04:38:05.8	91.610	-0.770	0.120	1.720
2020/01/31 04:38:05.9	91.620	-0.770	0.070	1.720
2020/01/31 04:38:06.0	91.630	-0.770	-0.000	1.710
2020/01/31 04:38:06.1	91.640	-0.760	-0.070	1.700
2020/01/31 04:38:06.2	91.660	-0.740	-0.150	1.680
2020/01/31 04:38:06.3	91.670	-0.720	-0.240	1.650
2020/01/31 04:38:06.4	91.680	-0.690	-0.330	1.620
2020/01/31 04:38:06.5	91.700	-0.660	-0.430	1.590
2020/01/31 04:38:06.6	91.710	-0.630	-0.530	1.550
2020/01/31 04:38:06.7	91.720	-0.590	-0.630	1.520
2020/01/31 04:38:06.8	91.730	-0.540	-0.730	1.480
2020/01/31 04:38:06.9	91.740	-0.500	-0.840	1.440
2020/01/31 04:38:07.0	91.750	-0.450	-0.930	1.410
2020/01/31 04:38:07.1	91.750	-0.390	-1.030	1.370
2020/01/31 04:38:07.2	91.750	-0.340	-1.130	1.340
2020/01/31 04:38:07.3	91.760	-0.280	-1.210	1.310
2020/01/31 04:38:07.4	91.750	-0.220	-1.290	1.280
2020/01/31 04:38:07.5	91.750	-0.160	-1.360	1.250
2020/01/31 04:38:07.6	91.750	-0.110	-1.420	1.230
2020/01/31 04:38:07.7	91.740	-0.050	-1.460	1.200
2020/01/31 04:38:07.8	91.740	0.010	-1.500	1.190
2020/01/31 04:38:07.9	91.730	0.060	-1.530	1.170
2020/01/31 04:38:08.0	91.720	0.110	-1.540	1.160
2020/01/31 04:38:08.1	91.710	0.150	-1.550	1.150
2020/01/31 04:38:08.2	91.700	0.200	-1.540	1.150
2020/01/31 04:38:08.3	91.690	0.230	-1.520	1.140
2020/01/31 04:38:08.4	91.670	0.270	-1.490	1.140
2020/01/31 04:38:08.5	91.660	0.300	-1.440	1.140
2020/01/31 04:38:08.6	91.640	0.320	-1.380	1.140
2020/01/31 04:38:08.7	91.630	0.340	-1.320	1.140
2020/01/31 04:38:08.8	91.610	0.350	-1.240	1.150
2020/01/31 04:38:08.9	91.590	0.350	-1.150	1.150
2020/01/31 04:38:09.0	91.570	0.350	-1.050	1.150
2020/01/31 04:38:09.1	91.550	0.350	-0.950	1.150
2020/01/31 04:38:09.2	91.530	0.340	-0.830	1.150
2020/01/31 04:38:09.3	91.510	0.320	-0.710	1.150
2020/01/31 04:38:09.4	91.490	0.300	-0.590	1.150
2020/01/31 04:38:09.5	91.470	0.280	-0.460	1.140
2020/01/31 04:38:09.6	91.450	0.250	-0.330	1.130
2020/01/31 04:38:09.7	91.430	0.210	-0.200	1.110
2020/01/31 04:38:09.8	91.410	0.170	-0.060	1.090
2020/01/31 04:38:09.9	91.390	0.130	0.070	1.070
2020/01/31 04:38:10.0	91.380	0.090	0.200	1.040
2020/01/31 04:38:10.1	91.360	0.050	0.320	1.010
2020/01/31 04:38:10.2	91.350	0.000	0.440	0.970
2020/01/31 04:38:10.3	91.340	-0.040	0.560	0.930
2020/01/31 04:38:10.4	91.330	-0.090	0.670	0.880
2020/01/31 04:38:10.5	91.320	-0.130	0.770	0.830
2020/01/31 04:38:10.6	91.320	-0.180	0.860	0.780
2020/01/31 04:38:10.7	91.310	-0.220	0.950	0.720
2020/01/31 04:38:10.8	91.310	-0.260	1.030	0.660
2020/01/31 04:38:10.9	91.310	-0.300	1.090	0.600
2020/01/31 04:38:11.0	91.310	-0.330	1.140	0.540
2020/01/31 04:38:11.1	91.310	-0.360	1.180	0.480
2020/01/31 04:38:11.2	91.320	-0.390	1.220	0.410
2020/01/31 04:38:11.3	91.320	-0.410	1.230	0.350
2020/01/31 04:38:11.4	91.330	-0.420	1.230	0.290
2020/01/31 04:38:11.5	91.330	-0.430	1.220	0.240
2020/01/31 04:38:11.6	91.340	-0.430	1.190	0.180
2020/01/31 04:38:11.7	91.340	-0.430	1.140	0.130
2020/01/31 04:38:11.8	91.350	-0.410	1.080	0.090
2020/01/31 04:38:11.9	91.360	-0.390	1.010	0.040
2020/01/31 04:38:12.0	91.360	-0.370	0.920	0.000
2020/01/31 04:38:12.1	91.370	-0.340	0.820	-0.030
2020/01/31 04:38:12.2	91.380	-0.300	0.710	-0.060
2020/01/31 04:38:12.3	91.390	-0.250	0.590	-0.080
2020/01/31 04:38:12.4	91.400	-0.200	0.460	-0.110
2020/01/31 04:38:12.5	91.400	-0.140	0.330	-0.120
2020/01/31 04:38:12.6	91.410	-0.090	0.190	-0.140
2020/01/31 04:38:12.7	91.420	-0.020	0.050	-0.150
2020/01/31 04:38:12.8	91.430	0.040	-0.100	-0.160
2020/01/31 04:38:12.9	91.440	0.110	-0.240	-0.170
2020/01/31 04:38:13.0	91.450	0.180	-0.380	-0.170
2020/01/31 04:38:13.1	91.460	0.250	-0.520	-0.170
2020/01/31 04:38:13.2	91.470	0.320	-0.660	-0.170
2020/01/31 04:38:13.3	91.470	0.380	-0.790	-0.170
2020/01/31 04:38:13.4	91.480	0.450	-0.910	-0.170
2020/01/31 04:38:13.5	91.490	0.510	-1.030	-0.160
2020/01/31 04:38:13.6	91.500	0.570	-1.130	-0.160
2020/01/31 04:38:13.7	91.500	0.620	-1.220	-0.150
2020/01/31 04:38:13.8	91.510	0.670	-1.310	-0.140
2020/01/31 04:38:13.9	91.510	0.720	-1.380	-0.120
2020/01/31 04:38:14.0	91.510	0.760	-1.440	-0.110
2020/01/31 04:38:14.1	91.510	0.800	-1.480	-0.090
2020/01/31 04:38:14.2	91.520	0.830	-1.520	-0.070
2020/01/31 04:38:14.3	91.520	0.850	-1.540	-0.040
2020/01/31 04:38:14.4	91.520	0.870	-1.540	-0.020
2020/01/31 04:38:14.5	91.520	0.880	-1.530	0.010
2020/01/31 04:38:14.6	91.510	0.880	-1.510	0.040
2020/01/31 04:38:14.7	91.510	0.880	-1.480	0.080
2020/01/31 04:38:14.8	91.510	0.870	-1.430	0.120
2020/01/31 04:38:14.9	91.500	0.850	-1.370	0.160
2020/01/31 04:38:15.0	91.490	0.830	-1.300	0.210
2020/01/31 04:38:15.1	91.490	0.810	-1.220	0.260
2020/01/31 04:38:15.2	91.480	0.780	-1.120	0.310
2020/01/31 04:38:15.3	91.470	0.740	-1.030	0.370
2020/01/31 04:38:15.4	91.460	0.700	-0.920	0.420
2020/01/31 04:38:15.5	91.460	0.660	-0.810	0.480
2020/01/31 04:38:15.6	91.450	0.610	-0.700	0.540
2020/01/31 04:38:15.7	91.440	0.560	-0.580	0.600
2020/01/31 04:38:15.8	91.440	0.500	-0.460	0.660
2020/01/31 04:38:15.9	91.430	0.450	-0.340	0.720
2020/01/31 04:38:16.0	91.430	0.390	-0.220	0.780
2020/01/31 04:38:16.1	91.430	0.330	-0.110	0.840
2020/01/31 04:38:16.2	91.430	0.270	0.000	0.900
2020/01/31 04:38:16.3	91.430	0.210	0.110	0.950
2020/01/31 04:38:16.4	91.430	0.150	0.210	1.010
2020/01/31 04:38:16.5	91.430	0.100	0.310	1.050
2020/01/31 04:38:16.6	91.440	0.040	0.400	1.100
2020/01/31 04:38:16.7	91.440	-0.020	0.480	1.140
2020/01/31 04:38:16.8	91.450	-0.070	0.560	1.180
2020/01/31 04:38:16.9	91.460	-0.120	0.620	1.220
2020/01/31 04:38:17.0	91.470	-0.170	0.680	1.250
2020/01/31 04:38:17.1	91.470	-0.220	0.720	1.280
2020/01/31 04:38:17.2	91.480	-0.270	0.760	1.300
2020/01/31 04:38:17.3	91.500	-0.310	0.790	1.320
2020/01/31 04:38:17.4	91.510	-0.350	0.810	1.340
2020/01/31 04:38:17.5	91.520	-0.380	0.820	1.350
2020/01/31 04:38:17.6	91.530	-0.420	0.820	1.360
2020/01/31 04:38:17.7	91.550	-0.450	0.820	1.370
2020/01/31 04:38:17.8	91.560	-0.480	0.810	1.370
2020/01/31 04:38:17.9	91.580	-0.510	0.790	1.370
2020/01/31 04:38:18.0	91.590	-0.530	0.760	1.360
2020/01/31 04:38:18.1	91.600	-0.550	0.730	1.360
2020/01/31 04:38:18.2	91.620	-0.570	0.690	1.350
2020/01/31 04:38:18.3	91.640	-0.580	0.640	1.340
2020/01/31 04:38:18.4	91.650	-0.590	0.600	1.330
2020/01/31 04:38:18.5	91.660	-0.600	0.540	1.320
2020/01/31 04:38:18.6	91.670	-0.610	0.490	1.310
2020/01/31 04:38:18.7	91.690	-0.610	0.430	1.300
2020/01/31 04:38:18.8	91.700	-0.610	0.370	1.290
2020/01/31 04:38:18.9	91.710	-0.610	0.300	1.280
2020/01/31 04:38:19.0	91.720	-0.610	0.240	1.270
2020/01/31 04:38:19.1	91.720	-0.600	0.170	1.260
2020/01/31 04:38:19.2	91.740	-0.590	0.100	1.260
2020/01/31 04:38:19.3	91.740	-0.580	0.040	1.250
2020/01/31 04:38:19.4	91.750	-0.560	-0.030	1.240
2020/01/31 04:38:19.5	91.750	-0.540	-0.100	1.230
2020/01/31 04:38:19.6	91.760	-0.520	-0.170	1.230
2020/01/31 04:38:19.7	91.760	-0.490	-0.240	1.220
2020/01/31 04:38:19.8	91.760	-0.460	-0.310	1.210
2020/01/31 04:38:19.9	91.770	-0.430	-0.370	1.200
2020/01/31 04:38:20.0	91.770	-0.400	-0.440	1.190
2020/01/31 04:38:20.1	91.780	-0.360	-0.510	1.180
2020/01/31 04:38:20.2	91.780	-0.330	-0.580	1.170
2020/01/31 04:38:20.3	91.790	-0.290	-0.650	1.150
2020/01/31 04:38:20.4	91.790	-0.240	-0.710	1.130
2020/01/31 04:38:20.5	91.800	-0.200	-0.780	1.110
2020/01/31 04:38:20.6	91.810	-0.150	-0.840	1.090
2020/01/31 04:38:20.7	91.810	-0.110	-0.900	1.070
2020/01/31 04:38:20.8	91.820	-0.060	-0.960	1.040
2020/01/31 04:38:20.9	91.830	-0.010	-1.020	1.010
2020/01/31 04:38:21.0	91.840	0.040	-1.080	0.980
2020/01/31 04:38:21.1	91.850	0.090	-1.130	0.950
2020/01/31 04:38:21.2	91.870	0.140	-1.180	0.920
2020/01/31 04:38:21.3	91.880	0.190	-1.220	0.890
2020/01/31 04:38:21.4	91.890	0.230	-1.250	0.860
2020/01/31 04:38:21.5	91.900	0.280	-1.280	0.830
2020/01/31 04:38:21.6	91.910	0.320	-1.290	0.800
2020/01/31 04:38:21.7	91.920	0.350	-1.300	0.780
2020/01/31 04:38:21.8	91.930	0.390	-1.300	0.750
2020/01/31 04:38:21.9	91.940	0.420	-1.280	0.720
2020/01/31 04:38:22.0	91.940	0.440	-1.260	0.700
2020/01/31 04:38:22.1	91.950	0.460	-1.220	0.680
2020/01/31 04:38:22.2	91.960	0.470	-1.170	0.660
2020/01/31 04:38:22.3	91.970	0.480	-1.110	0.640
2020/01/31 04:38:22.4	91.970	0.490	-1.040	0.630
2020/01/31 04:38:22.5	91.980	0.490	-0.960	0.610
2020/01/31 04:38:22.6	91.980	0.480	-0.870	0.600
2020/01/31 04:38:22.7	91.980	0.470	-0.770	0.590
2020/01/31 04:38:22.8	91.990	0.450	-0.660	0.590
2020/01/31 04:38:22.9	91.990	0.420	-0.550	0.580
2020/01/31 04:38:23.0	91.990	0.390	-0.430	0.570
2020/01/31 04:38:23.1	91.990	0.360	-0.310	0.570
2020/01/31 04:38:23.2	91.980	0.320	-0.170	0.570
2020/01/31 04:38:23.3	91.980	0.280	-0.040	0.570
2020/01/31 04:38:23.4	91.970	0.230	0.080	0.560
2020/01/31 04:38:23.5	91.970	0.180	0.210	0.560
2020/01/31 04:38:23.6	91.960	0.130	0.330	0.560
2020/01/31 04:38:23.7	91.950	0.080	0.450	0.550
2020/01/31 04:38:23.8	91.930	0.030	0.570	0.550
2020/01/31 04:38:23.9	91.920	-0.030	0.670	0.550
2020/01/31 04:38:24.0	91.900	-0.080	0.770	0.540
2020/01/31 04:38:24.1	91.880	-0.140	0.850	0.530
2020/01/31 04:38:24.2	91.850	-0.190	0.920	0.530
2020/01/31 04:38:24.3	91.830	-0.240	0.980	0.520
2020/01/31 04:38:24.4	91.800	-0.280	1.030	0.510
2020/01/31 04:38:24.5	91.780	-0.330	1.070	0.500
2020/01/31 04:38:24.6	91.750	-0.360	1.090	0.490
2020/01/31 04:38:24.7	91.730	-0.400	1.090	0.470
2020/01/31 04:38:24.8	91.700	-0.430	1.080	0.460
2020/01/31 04:38:24.9	91.670	-0.450	1.060	0.440
2020/01/31 04:38:25.0	91.650	-0.470	1.020	0.420
2020/01/31 04:38:25.1	91.630	-0.490	0.970	0.400
2020/01/31 04:38:25.2	91.610	-0.490	0.900	0.380
2020/01/31 04:38:25.3	91.590	-0.500	0.820	0.360
2020/01/31 04:38:25.4	91.570	-0.490	0.730	0.340
2020/01/31 04:38:25.5	91.560	-0.480	0.630	0.310
2020/01/31 04:38:25.6	91.550	-0.470	0.510	0.290
2020/01/31 04:38:25.7	91.550	-0.450	0.390	0.270
2020/01/31 04:38:25.8	91.540	-0.420	0.260	0.250
2020/01/31 04:38:25.9	91.540	-0.390	0.120	0.240
2020/01/31 04:38:26.0	91.550	-0.350	-0.020	0.220
2020/01/31 04:38:26.1	91.560	-0.310	-0.170	0.210
2020/01/31 04:38:26.2	91.570	-0.270	-0.310	0.190
2020/01/31 04:38:26.3	91.580	-0.230	-0.460	0.180
2020/01/31 04:38:26.4	91.590	-0.180	-0.600	0.180
2020/01/31 04:38:26.5	91.610	-0.130	-0.740	0.170
2020/01/31 04:38:26.6	91.620	-0.080	-0.860	0.170
2020/01/31 04:38:26.7	91.640	-0.030	-0.980	0.170
2020/01/31 04:38:26.8	91.660	0.010	-1.090	0.170
2020/01/31 04:38:26.9	91.680	0.060	-1.190	0.180
2020/01/31 04:38:27.0	91.700	0.100	-1.280	0.180
2020/01/31 04:38:27.1	91.720	0.140	-1.350	0.190
2020/01/31 04:38:27.2	91.740	0.180	-1.410	0.200
2020/01/31 04:38:27.3	91.760	0.210	-1.450	0.210
2020/01/31 04:38:27.4	91.780	0.240	-1.480	0.220
2020/01/31 04:38:27.5	91.800	0.260	-1.490	0.230
2020/01/31 04:38:27.6	91.820	0.280	-1.490	0.240
2020/01/31 04:38:27.7	91.840	0.290	-1.470	0.260
2020/01/31 04:38:27.8	91.860	0.300	-1.440	0.270
2020/01/31 04:38:27.9	91.880	0.300	-1.390	0.290
2020/01/31 04:38:28.0	91.890	0.300	-1.330	0.310
2020/01/31 04:38:28.1	91.900	0.300	-1.260	0.330
2020/01/31 04:38:28.2	91.920	0.290	-1.170	0.360
2020/01/31 04:38:28.3	91.920	0.270	-1.080	0.390
2020/01/31 04:38:28.4	91.930	0.250	-0.970	0.420
2020/01/31 04:38:28.5	91.940	0.230	-0.860	0.450
2020/01/31 04:38:28.6	91.940	0.200	-0.740	0.490
2020/01/31 04:38:28.7	91.950	0.170	-0.620	0.530
2020/01/31 04:38:28.8	91.950	0.140	-0.500	0.570
2020/01/31 04:38:28.9	91.950	0.100	-0.370	0.610
2020/01/31 04:38:29.0	91.960	0.060	-0.240	0.660
2020/01/31 04:38:29.1	91.960	0.030	-0.120	0.710
2020/01/31 04:38:29.2	91.960	-0.010	0.000	0.760
2020/01/31 04:38:29.3	91.960	-0.050	0.120	0.810
2020/01/31 04:38:29.4	91.960	-0.090	0.230	0.860
2020/01/31 04:38:29.5	91.960	-0.120	0.330	0.910
2020/01/31 04:38:29.6	91.960	-0.160	0.420	0.960
2020/01/31 04:38:29.7	91.960	-0.190	0.510	1.010
2020/01/31 04:38:29.8	91.950	-0.220	0.580	1.060
2020/01/31 04:38:29.9	91.950	-0.250	0.650	1.110
2020/01/31 04:38:30.0	91.940	-0.280	0.700	1.150
2020/01/31 04:38:30.1	91.940	-0.300	0.740	1.190
2020/01/31 04:38:30.2	91.930	-0.320	0.760	1.230
2020/01/31 04:38:30.3	91.930	-0.330	0.780	1.260
2020/01/31 04:38:30.4	91.920	-0.340	0.790	1.290
2020/01/31 04:38:30.5	91.910	-0.350	0.780	1.300
2020/01/31 04:38:30.6	91.910	-0.350	0.760	1.310
2020/01/31 04:38:30.7	91.900	-0.350	0.740	1.320
2020/01/31 04:38:30.8	91.900	-0.350	0.700	1.320
2020/01/31 04:38:30.9	91.890	-0.340	0.650	1.300
2020/01/31 04:38:31.0	91.890	-0.330	0.590	1.290
2020/01/31 04:38:31.1	91.890	-0.310	0.530	1.260
2020/01/31 04:38:31.2	91.890	-0.290	0.460	1.240
2020/01/31 04:38:31.3	91.890	-0.260	0.380	1.200
2020/01/31 04:38:31.4	91.890	-0.230	0.300	1.160
2020/01/31 04:38:31.5	91.890	-0.200	0.220	1.120
2020/01/31 04:38:31.6	91.900	-0.170	0.130	1.080
2020/01/31 04:38:31.7	91.900	-0.130	0.040	1.030
2020/01/31 04:38:31.8	91.900	-0.090	-0.050	0.990
2020/01/31 04:38:31.9	91.910	-0.050	-0.140	0.940
2020/01/31 04:38:32.0	91.910	-0.010	-0.220	0.900
2020/01/31 04:38:32.1	91.910	0.030	-0.310	0.860
2020/01/31 04:38:32.2	91.910	0.080	-0.390	0.820
2020/01/31 04:38:32.3	91.910	0.120	-0.460	0.780
2020/01/31 04:38:32.4	91.910	0.160	-0.530	0.740
2020/01/31 04:38:32.5	91.910	0.200	-0.590	0.710
2020/01/31 04:38:32.6	91.910	0.240	-0.640	0.680
2020/01/31 04:38:32.7	91.910	0.280	-0.690	0.650
2020/01/31 04:38:32.8	91.900	0.310	-0.730	0.620
2020/01/31 04:38:32.9	91.900	0.350	-0.760	0.600
2020/01/31 04:38:33.0	91.890	0.380	-0.790	0.580
2020/01/31 04:38:33.1	91.890	0.410	-0.810	0.560
2020/01/31 04:38:33.2	91.880	0.430	-0.820	0.540
2020/01/31 04:38:33.3	91.870	0.450	-0.820	0.530
2020/01/31 04:38:33.4	91.870	0.470	-0.820	0.510
2020/01/31 04:38:33.5	91.860	0.490	-0.810	0.490
2020/01/31 04:38:33.6	91.850	0.500	-0.800	0.470
2020/01/31 04:38:33.7	91.840	0.510	-0.780	0.450
2020/01/31 04:38:33.8	91.830	0.520	-0.760	0.430
2020/01/31 04:38:33.9	91.820	0.520	-0.740	0.410
2020/01/31 04:38:34.0	91.800	0.520	-0.710	0.390
2020/01/31 04:38:34.1	91.790	0.520	-0.670	0.370
2020/01/31 04:38:34.2	91.790	0.520	-0.640	0.340
2020/01/31 04:38:34.3	91.780	0.510	-0.610	0.320
2020/01/31 04:38:34.4	91.770	0.510	-0.570	0.290
2020/01/31 04:38:34.5	91.760	0.500	-0.530	0.260
2020/01/31 04:38:34.6	91.760	0.490	-0.490	0.230
2020/01/31 04:38:34.7	91.760	0.480	-0.460	0.210
2020/01/31 04:38:34.8	91.750	0.460	-0.420	0.180
2020/01/31 04:38:34.9	91.750	0.450	-0.380	0.160
2020/01/31 04:38:35.0	91.750	0.430	-0.340	0.130
2020/01/31 04:38:35.1	91.750	0.420	-0.310	0.110
2020/01/31 04:38:35.2	91.760	0.400	-0.270	0.100
2020/01/31 04:38:35.3	91.760	0.390	-0.240	0.090
2020/01/31 04:38:35.4	91.760	0.370	-0.200	0.080
2020/01/31 04:38:35.5	91.770	0.360	-0.170	0.080
2020/01/31 04:38:35.6	91.770	0.340	-0.140	0.080
2020/01/31 04:38:35.7	91.770	0.320	-0.110	0.090
2020/01/31 04:38:35.8	91.780	0.310	-0.080	0.100
2020/01/31 04:38:35.9	91.780	0.290	-0.050	0.120
2020/01/31 04:38:36.0	91.790	0.270	-0.020	0.140
2020/01/31 04:38:36.1	91.790	0.250	-0.000	0.160
2020/01/31 04:38:36.2	91.800	0.240	0.020	0.190
2020/01/31 04:38:36.3	91.800	0.220	0.040	0.220
2020/01/31 04:38:36.4	91.800	0.200	0.060	0.250
2020/01/31 04:38:36.5	91.810	0.180	0.070	0.290
2020/01/31 04:38:36.6	91.810	0.170	0.080	0.320
2020/01/31 04:38:36.7	91.810	0.150	0.090	0.360
2020/01/31 04:38:36.8	91.820	0.130	0.090	0.390
2020/01/31 04:38:36.9	91.820	0.120	0.090	0.430
2020/01/31 04:38:37.0	91.830	0.100	0.080	0.460
2020/01/31 04:38:37.1	91.830	0.090	0.080	0.490
2020/01/31 04:38:37.2	91.840	0.070	0.070	0.530
2020/01/31 04:38:37.3	91.850	0.050	0.050	0.560
2020/01/31 04:38:37.4	91.850	0.040	0.040	0.580
2020/01/31 04:38:37.5	91.860	0.030	0.020	0.610
2020/01/31 04:38:37.6	91.870	0.010	-0.010	0.630
2020/01/31 04:38:37.7	91.880	-0.000	-0.030	0.660
2020/01/31 04:38:37.8	91.890	-0.020	-0.050	0.680
2020/01/31 04:38:37.9	91.900	-0.030	-0.080	0.710
2020/01/31 04:38:38.0	91.910	-0.050	-0.100	0.730
2020/01/31 04:38:38.1	91.920	-0.060	-0.130	0.750
2020/01/31 04:38:38.2	91.930	-0.080	-0.150	0.770
2020/01/31 04:38:38.3	91.940	-0.090	-0.180	0.800
2020/01/31 04:38:38.4	91.950	-0.110	-0.200	0.820
2020/01/31 04:38:38.5	91.960	-0.130	-0.220	0.840
2020/01/31 04:38:38.6	91.970	-0.140	-0.230	0.870
2020/01/31 04:38:38.7	91.980	-0.160	-0.250	0.890
2020/01/31 04:38:38.8	91.990	-0.180	-0.260	0.920
2020/01/31 04:38:38.9	91.990	-0.210	-0.270	0.940
2020/01/31 04:38:39.0	92.000	-0.230	-0.270	0.970
2020/01/31 04:38:39.1	92.010	-0.250	-0.280	1.000
2020/01/31 04:38:39.2	92.020	-0.280	-0.280	1.020
2020/01/31 04:38:39.3	92.020	-0.310	-0.270	1.050
2020/01/31 04:38:39.4	92.030	-0.330	-0.260	1.080
2020/01/31 04:38:39.5	92.040	-0.360	-0.260	1.100
2020/01/31 04:38:39.6	92.040	-0.390	-0.240	1.130
2020/01/31 04:38:39.7	92.050	-0.420	-0.230	1.150
2020/01/31 04:38:39.8	92.060	-0.460	-0.220	1.180
2020/01/31 04:38:39.9	92.070	-0.490	-0.200	1.200
2020/01/31 04:38:40.0	92.080	-0.520	-0.180	1.220
2020/01/31 04:38:40.1	92.090	-0.550	-0.170	1.250
2020/01/31 04:38:40.2	92.100	-0.580	-0.160	1.270
2020/01/31 04:38:40.3	92.100	-0.610	-0.140	1.290
2020/01/31 04:38:40.4	92.110	-0.640	-0.120	1.310
2020/01/31 04:38:40.5	92.120	-0.670	-0.100	1.330
2020/01/31 04:38:40.6	92.130	-0.700	-0.090	1.350
2020/01/31 04:38:40.7	92.140	-0.720	-0.070	1.370
2020/01/31 04:38:40.8	92.150	-0.740	-0.060	1.390
2020/01/31 04:38:40.9	92.150	-0.760	-0.040	1.400
2020/01/31 04:38:41.0	92.160	-0.770	-0.030	1.410
2020/01/31 04:38:41.1	92.160	-0.780	-0.020	1.420
2020/01/31 04:38:41.2	92.160	-0.790	-0.010	1.430
2020/01/31 04:38:41.3	92.160	-0.790	-0.000	1.440
2020/01/31 04:38:41.4	92.160	-0.790	0.000	1.440
2020/01/31 04:38:41.5	92.150	-0.780	0.000	1.440
2020/01/31 04:38:41.6	92.150	-0.770	-0.000	1.430
2020/01/31 04:38:41.7	92.140	-0.750	-0.010	1.430
2020/01/31 04:38:41.8	92.130	-0.730	-0.020	1.420
2020/01/31 04:38:41.9	92.110	-0.700	-0.040	1.400
2020/01/31 04:38:42.0	92.100	-0.670	-0.060	1.380
2020/01/31 04:38:42.1	92.080	-0.630	-0.090	1.360
2020/01/31 04:38:42.2	92.070	-0.590	-0.120	1.340
2020/01/31 04:38:42.3	92.050	-0.550	-0.160	1.310
2020/01/31 04:38:42.4	92.030	-0.490	-0.200	1.270
2020/01/31 04:38:42.5	92.020	-0.440	-0.250	1.230
2020/01/31 04:38:42.6	92.000	-0.380	-0.300	1.190
2020/01/31 04:38:42.7	91.990	-0.310	-0.350	1.140
2020/01/31 04:38:42.8	91.970	-0.250	-0.410	1.090
2020/01/31 04:38:42.9	91.960	-0.180	-0.470	1.040
2020/01/31 04:38:43.0	91.950	-0.100	-0.530	0.990
2020/01/31 04:38:43.1	91.940	-0.030	-0.590	0.930
2020/01/31 04:38:43.2	91.930	0.040	-0.650	0.880
2020/01/31 04:38:43.3	91.920	0.120	-0.720	0.820
2020/01/31 04:38:43.4	91.920	0.190	-0.770	0.770
2020/01/31 04:38:43.5	91.920	0.260	-0.830	0.710
2020/01/31 04:38:43.6	91.920	0.330	-0.880	0.660
2020/01/31 04:38:43.7	91.920	0.400	-0.930	0.600
2020/01/31 04:38:43.8	91.920	0.460	-0.970	0.550
2020/01/31 04:38:43.9	91.930	0.520	-1.000	0.500
2020/01/31 04:38:44.0	91.930	0.580	-1.020	0.450
2020/01/31 04:38:44.1	91.940	0.630	-1.030	0.400
2020/01/31 04:38:44.2	91.950	0.670	-1.040	0.350
2020/01/31 04:38:44.3	91.960	0.710	-1.030	0.310
2020/01/31 04:38:44.4	91.970	0.740	-1.020	0.260
2020/01/31 04:38:44.5	91.970	0.760	-0.990	0.220
2020/01/31 04:38:44.6	91.980	0.780	-0.950	0.170
2020/01/31 04:38:44.7	91.990	0.780	-0.910	0.130
2020/01/31 04:38:44.8	92.000	0.790	-0.850	0.090
2020/01/31 04:38:44.9	92.010	0.780	-0.790	0.050
2020/01/31 04:38:45.0	92.020	0.770	-0.710	0.010
2020/01/31 04:38:45.1	92.030	0.750	-0.630	-0.030
2020/01/31 04:38:45.2	92.040	0.730	-0.540	-0.060
2020/01/31 04:38:45.3	92.050	0.700	-0.440	-0.090
2020/01/31 04:38:45.4	92.060	0.660	-0.340	-0.120
2020/01/31 04:38:45.5	92.070	0.620	-0.230	-0.150
2020/01/31 04:38:45.6	92.070	0.570	-0.120	-0.170
2020/01/31 04:38:45.7	92.070	0.530	-0.010	-0.190
2020/01/31 04:38:45.8	92.080	0.480	0.100	-0.210
2020/01/31 04:38:45.9	92.080	0.420	0.210	-0.220
2020/01/31 04:38:46.0	92.080	0.370	0.310	-0.230
2020/01/31 04:38:46.1	92.090	0.310	0.420	-0.240
2020/01/31 04:38:46.2	92.090	0.260	0.520	-0.230
2020/01/31 04:38:46.3	92.090	0.200	0.610	-0.230
2020/01/31 04:38:46.4	92.090	0.150	0.690	-0.230
2020/01/31 04:38:46.5	92.090	0.090	0.770	-0.220
2020/01/31 04:38:46.6	92.090	0.040	0.830	-0.200
2020/01/31 04:38:46.7	92.090	-0.010	0.890	-0.190
2020/01/31 04:38:46.8	92.090	-0.050	0.930	-0.170
2020/01/31 04:38:46.9	92.080	-0.090	0.960	-0.150
2020/01/31 04:38:47.0	92.080	-0.130	0.980	-0.120
2020/01/31 04:38:47.1	92.070	-0.170	0.990	-0.090
2020/01/31 04:38:47.2	92.070	-0.200	0.980	-0.050
2020/01/31 04:38:47.3	92.060	-0.220	0.960	-0.020
2020/01/31 04:38:47.4	92.060	-0.240	0.930	0.010
2020/01/31 04:38:47.5	92.050	-0.260	0.890	0.050
2020/01/31 04:38:47.6	92.040	-0.270	0.830	0.090
2020/01/31 04:38:47.7	92.040	-0.270	0.760	0.120
2020/01/31 04:38:47.8	92.030	-0.280	0.680	0.160
2020/01/31 04:38:47.9	92.030	-0.270	0.590	0.200
2020/01/31 04:38:48.0	92.020	-0.260	0.490	0.230
2020/01/31 04:38:48.1	92.020	-0.250	0.380	0.270
2020/01/31 04:38:48.2	92.020	-0.230	0.250	0.300
2020/01/31 04:38:48.3	92.020	-0.210	0.130	0.330
2020/01/31 04:38:48.4	92.020	-0.180	-0.010	0.360
2020/01/31 04:38:48.5	92.020	-0.150	-0.150	0.390
2020/01/31 04:38:48.6	92.030	-0.120	-0.290	0.410
2020/01/31 04:38:48.7	92.040	-0.080	-0.440	0.440
2020/01/31 04:38:48.8	92.050	-0.040	-0.580	0.460
2020/01/31 04:38:48.9	92.050	0.000	-0.720	0.470
2020/01/31 04:38:49.0	92.070	0.040	-0.860	0.490
2020/01/31 04:38:49.1	92.080	0.090	-0.990	0.510
2020/01/31 04:38:49.2	92.090	0.130	-1.120	0.530
2020/01/31 04:38:49.3	92.100	0.170	-1.230	0.540
2020/01/31 04:38:49.4	92.110	0.210	-1.330	0.560
2020/01/31 04:38:49.5	92.120	0.240	-1.410	0.590
2020/01/31 04:38:49.6	92.120	0.280	-1.480	0.610
2020/01/31 04:38:49.7	92.130	0.310	-1.530	0.630
2020/01/31 04:38:49.8	92.130	0.330	-1.570	0.650
2020/01/31 04:38:49.9	92.140	0.360	-1.590	0.680
2020/01/31 04:38:50.0	92.140	0.370	-1.590	0.710
2020/01/31 04:38:50.1	92.140	0.380	-1.570	0.730
2020/01/31 04:38:50.2	92.150	0.390	-1.530	0.760
2020/01/31 04:38:50.3	92.150	0.390	-1.480	0.790
2020/01/31 04:38:50.4	92.150	0.380	-1.410	0.820
2020/01/31 04:38:50.5	92.150	0.370	-1.320	0.850
2020/01/31 04:38:50.6	92.150	0.350	-1.220	0.870
2020/01/31 04:38:50.7	92.140	0.330	-1.100	0.900
2020/01/31 04:38:50.8	92.140	0.300	-0.980	0.930
2020/01/31 04:38:50.9	92.140	0.270	-0.840	0.950
2020/01/31 04:38:51.0	92.130	0.230	-0.700	0.980
2020/01/31 04:38:51.1	92.120	0.180	-0.550	1.000
2020/01/31 04:38:51.2	92.120	0.140	-0.390	1.030
2020/01/31 04:38:51.3	92.110	0.090	-0.240	1.050
2020/01/31 04:38:51.4	92.100	0.030	-0.080	1.070
2020/01/31 04:38:51.5	92.100	-0.020	0.070	1.080
2020/01/31 04:38:51.6	92.090	-0.080	0.220	1.090
2020/01/31 04:38:51.7	92.080	-0.140	0.360	1.100
2020/01/31 04:38:51.8	92.070	-0.190	0.490	1.110
2020/01/31 04:38:51.9	92.060	-0.250	0.620	1.110
2020/01/31 04:38:52.0	92.050	-0.300	0.730	1.110
2020/01/31 04:38:52.1	92.050	-0.350	0.830	1.110
2020/01/31 04:38:52.2	92.040	-0.400	0.910	1.110
2020/01/31 04:38:52.3	92.030	-0.450	0.980	1.110
2020/01/31 04:38:52.4	92.020	-0.480	1.040	1.100
2020/01/31 04:38:52.5	92.020	-0.520	1.070	1.090
2020/01/31 04:38:52.6	92.010	-0.540	1.090	1.080
2020/01/31 04:38:52.7	92.010	-0.560	1.090	1.070
2020/01/31 04:38:52.8	92.000	-0.570	1.080	1.050
2020/01/31 04:38:52.9	92.000	-0.580	1.040	1.040
2020/01/31 04:38:53.0	92.000	-0.570	0.990	1.020
2020/01/31 04:38:53.1	91.990	-0.560	0.930	1.010
2020/01/31 04:38:53.2	91.990	-0.550	0.850	0.990
2020/01/31 04:38:53.3	91.990	-0.520	0.750	0.970
2020/01/31 04:38:53.4	91.990	-0.490	0.640	0.950
2020/01/31 04:38:53.5	91.980	-0.450	0.520	0.930
2020/01/31 04:38:53.6	91.980	-0.410	0.400	0.910
2020/01/31 04:38:53.7	91.980	-0.360	0.260	0.890
2020/01/31 04:38:53.8	91.980	-0.310	0.130	0.870
2020/01/31 04:38:53.9	91.980	-0.250	-0.020	0.850
2020/01/31 04:38:54.0	91.970	-0.190	-0.160	0.830
2020/01/31 04:38:54.1	91.970	-0.130	-0.300	0.800
2020/01/31 04:38:54.2	91.970	-0.070	-0.440	0.770
2020/01/31 04:38:54.3	91.970	-0.000	-0.570	0.740
2020/01/31 04:38:54.4	91.970	0.060	-0.700	0.710
2020/01/31 04:38:54.5	91.960	0.120	-0.810	0.670
2020/01/31 04:38:54.6	91.960	0.180	-0.920	0.640
2020/01/31 04:38:54.7	91.960	0.230	-1.020	0.600
2020/01/31 04:38:54.8	91.960	0.280	-1.100	0.560
2020/01/31 04:38:54.9	91.960	0.330	-1.170	0.530
2020/01/31 04:38:55.0	91.960	0.370	-1.220	0.490
2020/01/31 04:38:55.1	91.960	0.410	-1.260	0.460
2020/01/31 04:38:55.2	91.960	0.440	-1.280	0.430
2020/01/31 04:38:55.3	91.960	0.470	-1.290	0.400
2020/01/31 04:38:55.4	91.960	0.490	-1.280	0.380
2020/01/31 04:38:55.5	91.950	0.500	-1.260	0.370
2020/01/31 04:38:55.6	91.950	0.510	-1.220	0.350
2020/01/31 04:38:55.7	91.950	0.510	-1.170	0.350
2020/01/31 04:38:55.8	91.940	0.500	-1.110	0.340
2020/01/31 04:38:55.9	91.940	0.480	-1.030	0.350
2020/01/31 04:38:56.0	91.940	0.460	-0.940	0.350
2020/01/31 04:38:56.1	91.930	0.430	-0.840	0.370
2020/01/31 04:38:56.2	91.930	0.400	-0.730	0.380
2020/01/31 04:38:56.3	91.920	0.360	-0.620	0.400
2020/01/31 04:38:56.4	91.910	0.320	-0.510	0.430
2020/01/31 04:38:56.5	91.910	0.270	-0.390	0.450
2020/01/31 04:38:56.6	91.900	0.220	-0.270	0.480
2020/01/31 04:38:56.7	91.900	0.160	-0.150	0.500
2020/01/31 04:38:56.8	91.890	0.100	-0.030	0.530
2020/01/31 04:38:56.9	91.890	0.040	0.090	0.550
2020/01/31 04:38:57.0	91.880	-0.020	0.200	0.580
2020/01/31 04:38:57.1	91.880	-0.080	0.300	0.600
2020/01/31 04:38:57.2	91.870	-0.140	0.390	0.620
2020/01/31 04:38:57.3	91.870	-0.200	0.480	0.630
2020/01/31 04:38:57.4	91.860	-0.260	0.560	0.640
2020/01/31 04:38:57.5	91.860	-0.310	0.620	0.650
2020/01/31 04:38:57.6	91.850	-0.370	0.680	0.650
2020/01/31 04:38:57.7	91.850	-0.410	0.720	0.650
2020/01/31 04:38:57.8	91.850	-0.460	0.750	0.640
2020/01/31 04:38:57.9	91.840	-0.500	0.770	0.640
2020/01/31 04:38:58.0	91.840	-0.530	0.780	0.630
2020/01/31 04:38:58.1	91.840	-0.560	0.770	0.610
2020/01/31 04:38:58.2	91.830	-0.580	0.750	0.600
2020/01/31 04:38:58.3	91.830	-0.600	0.720	0.580
2020/01/31 04:38:58.4	91.830	-0.610	0.680	0.560
2020/01/31 04:38:58.5	91.820	-0.610	0.630	0.550
2020/01/31 04:38:58.6	91.820	-0.610	0.570	0.530
2020/01/31 04:38:58.7	91.810	-0.600	0.510	0.520
2020/01/31 04:38:58.8	91.810	-0.580	0.430	0.500
2020/01/31 04:38:58.9	91.810	-0.560	0.350	0.490
2020/01/31 04:38:59.0	91.810	-0.530	0.270	0.480
2020/01/31 04:38:59.1	91.810	-0.500	0.180	0.470
2020/01/31 04:38:59.2	91.810	-0.460	0.080	0.470
2020/01/31 04:38:59.3	91.810	-0.410	-0.010	0.460
2020/01/31 04:38:59.4	91.810	-0.360	-0.110	0.460
2020/01/31 04:38:59.5	91.810	-0.310	-0.210	0.450
2020/01/31 04:38:59.6	91.820	-0.260	-0.310	0.450
2020/01/31 04:38:59.7	91.830	-0.200	-0.400	0.450
2020/01/31 04:38:59.8	91.840	-0.140	-0.500	0.450
2020/01/31 04:38:59.9	91.850	-0.080	-0.590	0.450
2020/01/31 04:39:00.0	91.860	-0.020	-0.670	0.440
2020/01/31 04:39:00.1	91.880	0.050	-0.760	0.440
2020/01/31 04:39:00.2	91.900	0.110	-0.840	0.440
2020/01/31 04:39:00.3	91.920	0.170	-0.910	0.440
2020/01/31 04:39:00.4	91.940	0.230	-0.970	0.440
2020/01/31 04:39:00.5	91.960	0.280	-1.030	0.440
2020/01/31 04:39:00.6	91.980	0.330	-1.070	0.440
2020/01/31 04:39:00.7	92.000	0.380	-1.110	0.440
2020/01/31 04:39:00.8	92.020	0.430	-1.140	0.450
2020/01/31 04:39:00.9	92.040	0.460	-1.160	0.450
2020/01/31 04:39:01.0	92.060	0.500	-1.170	0.460
2020/01/31 04:39:01.1	92.070	0.520	-1.180	0.460
2020/01/31 04:39:01.2	92.090	0.540	-1.170	0.470
2020/01/31 04:39:01.3	92.100	0.560	-1.150	0.470
2020/01/31 04:39:01.4	92.110	0.570	-1.120	0.480
2020/01/31 04:39:01.5	92.120	0.570	-1.080	0.480
2020/01/31 04:39:01.6	92.120	0.560	-1.040	0.490
2020/01/31 04:39:01.7	92.120	0.550	-0.980	0.490
2020/01/31 04:39:01.8	92.120	0.530	-0.920	0.490
2020/01/31 04:39:01.9	92.120	0.500	-0.850	0.500
2020/01/31 04:39:02.0	92.120	0.470	-0.770	0.500
2020/01/31 04:39:02.1	92.110	0.440	-0.690	0.510
2020/01/31 04:39:02.2	92.100	0.400	-0.600	0.510
2020/01/31 04:39:02.3	92.090	0.350	-0.510	0.510
2020/01/31 04:39:02.4	92.070	0.300	-0.420	0.520
2020/01/31 04:39:02.5	92.060	0.250	-0.330	0.520
2020/01/31 04:39:02.6	92.040	0.190	-0.230	0.530
2020/01/31 04:39:02.7	92.020	0.140	-0.140	0.530
2020/01/31 04:39:02.8	92.000	0.080	-0.050	0.530
2020/01/31 04:39:02.9	91.970	0.020	0.040	0.540
2020/01/31 04:39:03.0	91.950	-0.040	0.130	0.540
2020/01/31 04:39:03.1	91.930	-0.090	0.210	0.540
2020/01/31 04:39:03.2	91.910	-0.150	0.290	0.550
2020/01/31 04:39:03.3	91.890	-0.200	0.370	0.550
2020/01/31 04:39:03.4	91.860	-0.250	0.430	0.550
2020/01/31 04:39:03.5	91.840	-0.290	0.490	0.550
2020/01/31 04:39:03.6	91.820	-0.330	0.540	0.550
2020/01/31 04:39:03.7	91.800	-0.370	0.580	0.550
2020/01/31 04:39:03.8	91.780	-0.400	0.610	0.560
2020/01/31 04:39:03.9	91.760	-0.430	0.640	0.560
2020/01/31 04:39:04.0	91.730	-0.450	0.650	0.550
2020/01/31 04:39:04.1	91.710	-0.460	0.660	0.550
2020/01/31 04:39:04.2	91.690	-0.470	0.650	0.550
2020/01/31 04:39:04.3	91.670	-0.470	0.640	0.550
2020/01/31 04:39:04.4	91.650	-0.470	0.620	0.550
2020/01/31 04:39:04.5	91.630	-0.460	0.590	0.540
2020/01/31 04:39:04.6	91.610	-0.440	0.550	0.540
2020/01/31 04:39:04.7	91.590	-0.420	0.510	0.530
2020/01/31 04:39:04.8	91.570	-0.390	0.450	0.530
2020/01/31 04:39:04.9	91.550	-0.360	0.400	0.520
2020/01/31 04:39:05.0	91.540	-0.320	0.330	0.500
2020/01/31 04:39:05.1	91.520	-0.280	0.260	0.490
2020/01/31 04:39:05.2	91.500	-0.240	0.190	0.480
2020/01/31 04:39:05.3	91.490	-0.190	0.110	0.460
2020/01/31 04:39:05.4	91.480	-0.140	0.030	0.440
2020/01/31 04:39:05.5	91.470	-0.080	-0.050	0.410
2020/01/31 04:39:05.6	91.460	-0.030	-0.140	0.380
2020/01/31 04:39:05.7	91.460	0.030	-0.220	0.350
2020/01/31 04:39:05.8	91.460	0.080	-0.310	0.320
2020/01/31 04:39:05.9	91.460	0.140	-0.390	0.290
2020/01/31 04:39:06.0	91.460	0.200	-0.470	0.250
2020/01/31 04:39:06.1	91.460	0.250	-0.550	0.220
2020/01/31 04:39:06.2	91.470	0.310	-0.630	0.180
2020/01/31 04:39:06.3	91.480	0.360	-0.700	0.140
2020/01/31 04:39:06.4	91.490	0.410	-0.760	0.110
2020/01/31 04:39:06.5	91.500	0.450	-0.820	0.080
2020/01/31 04:39:06.6	91.520	0.490	-0.880	0.050
2020/01/31 04:39:06.7	91.530	0.530	-0.930	0.030
2020/01/31 04:39:06.8	91.550	0.570	-0.970	0.010
2020/01/31 04:39:06.9	91.570	0.600	-1.000	-0.010
2020/01/31 04:39:07.0	91.600	0.620	-1.020	-0.020
2020/01/31 04:39:07.1	91.620	0.640	-1.040	-0.020
2020/01/31 04:39:07.2	91.640	0.650	-1.040	-0.020
2020/01/31 04:39:07.3	91.670	0.660	-1.040	-0.020
2020/01/31 04:39:07.4	91.690	0.660	-1.020	-0.010
2020/01/31 04:39:07.5	91.720	0.660	-1.000	0.010
2020/01/31 04:39:07.6	91.740	0.640	-0.970	0.030
2020/01/31 04:39:07.7	91.770	0.630	-0.920	0.050
2020/01/31 04:39:07.8	91.790	0.610	-0.870	0.080
2020/01/31 04:39:07.9	91.810	0.580	-0.810	0.120
2020/01/31 04:39:08.0	91.830	0.550	-0.740	0.150
2020/01/31 04:39:08.1	91.850	0.510	-0.670	0.190
2020/01/31 04:39:08.2	91.860	0.470	-0.580	0.240
2020/01/31 04:39:08.3	91.880	0.420	-0.500	0.290
2020/01/31 04:39:08.4	91.890	0.370	-0.410	0.330
2020/01/31 04:39:08.5	91.890	0.310	-0.310	0.370
2020/01/31 04:39:08.6	91.900	0.260	-0.220	0.420
2020/01/31 04:39:08.7	91.900	0.200	-0.120	0.470
2020/01/31 04:39:08.8	91.900	0.140	-0.030	0.520
2020/01/31 04:39:08.9	91.900	0.080	0.070	0.570
2020/01/31 04:39:09.0	91.900	0.010	0.160	0.620
2020/01/31 04:39:09.1	91.890	-0.050	0.250	0.670
2020/01/31 04:39:09.2	91.890	-0.110	0.330	0.720
2020/01/31 04:39:09.3	91.880	-0.160	0.410	0.770
2020/01/31 04:39:09.4	91.870	-0.220	0.480	0.820
2020/01/31 04:39:09.5	91.860	-0.270	0.540	0.870
2020/01/31 04:39:09.6	91.840	-0.320	0.590	0.920
2020/01/31 04:39:09.7	91.830	-0.370	0.630	0.970
2020/01/31 04:39:09.8	91.810	-0.410	0.670	1.010
2020/01/31 04:39:09.9	91.800	-0.440	0.690	1.060
2020/01/31 04:39:10.0	91.780	-0.470	0.700	1.100
2020/01/31 04:39:10.1	91.760	-0.500	0.700	1.140
2020/01/31 04:39:10.2	91.750	-0.520	0.680	1.190
2020/01/31 04:39:10.3	91.730	-0.530	0.660	1.220
2020/01/31 04:39:10.4	91.720	-0.540	0.630	1.260
2020/01/31 04:39:10.5	91.700	-0.540	0.590	1.290
2020/01/31 04:39:10.6	91.690	-0.540	0.540	1.310
2020/01/31 04:39:10.7	91.670	-0.530	0.480	1.330
2020/01/31 04:39:10.8	91.660	-0.520	0.410	1.350
2020/01/31 04:39:10.9	91.650	-0.500	0.340	1.360
2020/01/31 04:39:11.0	91.640	-0.480	0.270	1.370
2020/01/31 04:39:11.1	91.630	-0.460	0.190	1.370
2020/01/31 04:39:11.2	91.630	-0.430	0.100	1.370
2020/01/31 04:39:11.3	91.620	-0.400	0.020	1.370
2020/01/31 04:39:11.4	91.620	-0.370	-0.070	1.360
2020/01/31 04:39:11.5	91.620	-0.340	-0.160	1.340
2020/01/31 04:39:11.6	91.620	-0.300	-0.250	1.330
2020/01/31 04:39:11.7	91.630	-0.260	-0.330	1.310
2020/01/31 04:39:11.8	91.630	-0.220	-0.410	1.290
2020/01/31 04:39:11.9	91.640	-0.190	-0.490	1.260
2020/01/31 04:39:12.0	91.650	-0.150	-0.570	1.240
2020/01/31 04:39:12.1	91.660	-0.110	-0.640	1.210
2020/01/31 04:39:12.2	91.670	-0.070	-0.710	1.190
2020/01/31 04:39:12.3	91.680	-0.040	-0.770	1.160
2020/01/31 04:39:12.4	91.700	-0.000	-0.820	1.130
2020/01/31 04:39:12.5	91.720	0.030	-0.870	1.110
2020/01/31 04:39:12.6	91.730	0.060	-0.900	1.080
2020/01/31 04:39:12.7	91.750	0.100	-0.940	1.050
2020/01/31 04:39:12.8	91.770	0.120	-0.960	1.020
2020/01/31 04:39:12.9	91.790	0.150	-0.970	0.990
2020/01/31 04:39:13.0	91.810	0.170	-0.980	0.970
2020/01/31 04:39:13.1	91.830	0.190	-0.980	0.940
2020/01/31 04:39:13.2	91.850	0.210	-0.970	0.910
2020/01/31 04:39:13.3	91.870	0.220	-0.950	0.880
2020/01/31 04:39:13.4	91.890	0.240	-0.930	0.850
2020/01/31 04:39:13.5	91.910	0.250	-0.890	0.820
2020/01/31 04:39:13.6	91.920	0.250	-0.860	0.790
2020/01/31 04:39:13.7	91.940	0.250	-0.810	0.760
2020/01/31 04:39:13.8	91.960	0.250	-0.760	0.730
2020/01/31 04:39:13.9	91.980	0.250	-0.700	0.700
2020/01/31 04:39:14.0	91.990	0.240	-0.640	0.670
2020/01/31 04:39:14.1	92.010	0.230	-0.580	0.640
2020/01/31 04:39:14.2	92.020	0.220	-0.500	0.620
2020/01/31 04:39:14.3	92.030	0.210	-0.430	0.590
2020/01/31 04:39:14.4	92.040	0.190	-0.360	0.570
2020/01/31 04:39:14.5	92.050	0.170	-0.280	0.540
2020/01/31 04:39:14.6	92.050	0.150	-0.210	0.520
2020/01/31 04:39:14.7	92.050	0.120	-0.130	0.490
2020/01/31 04:39:14.8	92.050	0.100	-0.060	0.470
2020/01/31 04:39:14.9	92.050	0.070	0.010	0.450
2020/01/31 04:39:15.0	92.040	0.050	0.080	0.440
2020/01/31 04:39:15.1	92.040	0.020	0.150	0.420
2020/01/31 04:39:15.2	92.030	-0.010	0.200	0.410
2020/01/31 04:39:15.3	92.020	-0.040	0.260	0.400
2020/01/31 04:39:15.4	92.000	-0.060	0.320	0.390
2020/01/31 04:39:15.5	91.990	-0.090	0.360	0.390
2020/01/31 04:39:15.6	91.970	-0.110	0.400	0.380
2020/01/31 04:39:15.7	91.960	-0.140	0.440	0.380
2020/01/31 04:39:15.8	91.940	-0.160	0.460	0.380
2020/01/31 04:39:15.9	91.930	-0.170	0.480	0.390
2020/01/31 04:39:16.0	91.910	-0.190	0.490	0.390
2020/01/31 04:39:16.1	91.900	-0.200	0.490	0.400
2020/01/31 04:39:16.2	91.880	-0.210	0.500	0.400
2020/01/31 04:39:16.3	91.870	-0.220	0.480	0.410
2020/01/31 04:39:16.4	91.860	-0.220	0.460	0.420
2020/01/31 04:39:16.5	91.850	-0.220	0.430	0.430
2020/01/31 04:39:16.6	91.850	-0.210	0.390	0.440
2020/01/31 04:39:16.7	91.840	-0.200	0.350	0.440
2020/01/31 04:39:16.8	91.840	-0.190	0.300	0.450
2020/01/31 04:39:16.9	91.840	-0.180	0.240	0.460
2020/01/31 04:39:17.0	91.840	-0.160	0.180	0.460
2020/01/31 04:39:17.1	91.850	-0.140	0.120	0.470
2020/01/31 04:39:17.2	91.850	-0.110	0.040	0.470
2020/01/31 04:39:17.3	91.860	-0.090	-0.030	0.480
2020/01/31 04:39:17.4	91.870	-0.060	-0.100	0.480
2020/01/31 04:39:17.5	91.880	-0.030	-0.180	0.480
2020/01/31 04:39:17.6	91.880	0.000	-0.250	0.490
2020/01/31 04:39:17.7	91.890	0.030	-0.330	0.490
2020/01/31 04:39:17.8	91.900	0.070	-0.400	0.490
2020/01/31 04:39:17.9	91.900	0.100	-0.470	0.500
2020/01/31 04:39:18.0	91.900	0.130	-0.540	0.500
2020/01/31 04:39:18.1	91.900	0.160	-0.610	0.500
2020/01/31 04:39:18.2	91.900	0.190	-0.670	0.510
2020/01/31 04:39:18.3	91.900	0.220	-0.720	0.520
2020/01/31 04:39:18.4	91.890	0.250	-0.770	0.530
2020/01/31 04:39:18.5	91.880	0.280	-0.810	0.540
2020/01/31 04:39:18.6	91.870	0.300	-0.840	0.550
2020/01/31 04:39:18.7	91.850	0.320	-0.870	0.560
2020/01/31 04:39:18.8	91.830	0.330	-0.880	0.570
2020/01/31 04:39:18.9	91.820	0.340	-0.890	0.580
2020/01/31 04:39:19.0	91.790	0.350	-0.880	0.600
2020/01/31 04:39:19.1	91.770	0.360	-0.870	0.610
2020/01/31 04:39:19.2	91.750	0.360	-0.850	0.630
2020/01/31 04:39:19.3	91.730	0.350	-0.820	0.650
2020/01/31 04:39:19.4	91.700	0.340	-0.780	0.670
2020/01/31 04:39:19.5	91.680	0.330	-0.730	0.690
2020/01/31 04:39:19.6	91.650	0.310	-0.680	0.710
2020/01/31 04:39:19.7	91.620	0.290	-0.620	0.730
2020/01/31 04:39:19.8	91.600	0.260	-0.560	0.750
2020/01/31 04:39:19.9	91.570	0.240	-0.500	0.770
2020/01/31 04:39:20.0	91.550	0.200	-0.430	0.790
2020/01/31 04:39:20.1	91.520	0.170	-0.370	0.810
2020/01/31 04:39:20.2	91.510	0.140	-0.300	0.840
2020/01/31 04:39:20.3	91.490	0.100	-0.230	0.860
2020/01/31 04:39:20.4	91.470	0.060	-0.170	0.880
2020/01/31 04:39:20.5	91.450	0.020	-0.110	0.900
2020/01/31 04:39:20.6	91.440	-0.010	-0.060	0.920
2020/01/31 04:39:20.7	91.420	-0.050	-0.010	0.930
2020/01/31 04:39:20.8	91.410	-0.090	0.030	0.950
2020/01/31 04:39:20.9	91.410	-0.120	0.070	0.960
2020/01/31 04:39:21.0	91.400	-0.150	0.100	0.970
2020/01/31 04:39:21.1	91.400	-0.180	0.120	0.980
2020/01/31 04:39:21.2	91.400	-0.200	0.130	0.980
2020/01/31 04:39:21.3	91.400	-0.220	0.140	0.990
2020/01/31 04:39:21.4	91.400	-0.240	0.130	0.990
2020/01/31 04:39:21.5	91.400	-0.250	0.120	0.980
2020/01/31 04:39:21.6	91.410	-0.250	0.100	0.980
2020/01/31 04:39:21.7	91.410	-0.250	0.080	0.970
2020/01/31 04:39:21.8	91.420	-0.250	0.050	0.960
2020/01/31 04:39:21.9	91.430	-0.240	0.010	0.950
2020/01/31 04:39:22.0	91.440	-0.230	-0.040	0.930
2020/01/31 04:39:22.1	91.450	-0.210	-0.080	0.920
2020/01/31 04:39:22.2	91.460	-0.180	-0.140	0.900
2020/01/31 04:39:22.3	91.470	-0.160	-0.190	0.880
2020/01/31 04:39:22.4	91.480	-0.130	-0.250	0.860
2020/01/31 04:39:22.5	91.490	-0.090	-0.310	0.840
2020/01/31 04:39:22.6	91.510	-0.050	-0.360	0.810
2020/01/31 04:39:22.7	91.520	-0.010	-0.420	0.790
2020/01/31 04:39:22.8	91.540	0.030	-0.470	0.760
2020/01/31 04:39:22.9	91.550	0.070	-0.520	0.740
2020/01/31 04:39:23.0	91.570	0.110	-0.570	0.720
2020/01/31 04:39:23.1	91.580	0.150	-0.610	0.690
2020/01/31 04:39:23.2	91.600	0.190	-0.640	0.670
2020/01/31 04:39:23.3	91.620	0.220	-0.670	0.650
2020/01/31 04:39:23.4	91.640	0.260	-0.700	0.630
2020/01/31 04:39:23.5	91.660	0.290	-0.710	0.610
2020/01/31 04:39:23.6	91.680	0.320	-0.710	0.600
2020/01/31 04:39:23.7	91.700	0.340	-0.710	0.580
2020/01/31 04:39:23.8	91.720	0.360	-0.700	0.570
2020/01/31 04:39:23.9	91.740	0.370	-0.680	0.560
2020/01/31 04:39:24.0	91.760	0.380	-0.650	0.550
2020/01/31 04:39:24.1	91.780	0.380	-0.610	0.540
2020/01/31 04:39:24.2	91.800	0.380	-0.570	0.540
2020/01/31 04:39:24.3	91.820	0.370	-0.510	0.540
2020/01/31 04:39:24.4	91.830	0.360	-0.450	0.540
2020/01/31 04:39:24.5	91.850	0.340	-0.380	0.550
2020/01/31 04:39:24.6	91.870	0.320	-0.300	0.550
2020/01/31 04:39:24.7	91.880	0.290	-0.220	0.560
2020/01/31 04:39:24.8	91.900	0.260	-0.140	0.570
2020/01/31 04:39:24.9	91.910	0.220	-0.050	0.590
2020/01/31 04:39:25.0	91.920	0.180	0.040	0.610
2020/01/31 04:39:25.1	91.930	0.140	0.140	0.620
2020/01/31 04:39:25.2	91.940	0.090	0.230	0.650
2020/01/31 04:39:25.3	91.940	0.040	0.320	0.670
2020/01/31 04:39:25.4	91.950	-0.010	0.410	0.690
2020/01/31 04:39:25.5	91.950	-0.060	0.500	0.720
2020/01/31 04:39:25.6	91.950	-0.110	0.580	0.740
2020/01/31 04:39:25.7	91.960	-0.160	0.660	0.770
2020/01/31 04:39:25.8	91.960	-0.210	0.730	0.800
2020/01/31 04:39:25.9	91.960	-0.250	0.790	0.830
2020/01/31 04:39:26.0	91.950	-0.300	0.850	0.860
2020/01/31 04:39:26.1	91.950	-0.340	0.890	0.890
2020/01/31 04:39:26.2	91.940	-0.370	0.920	0.910
2020/01/31 04:39:26.3	91.930	-0.410	0.950	0.940
2020/01/31 04:39:26.4	91.920	-0.440	0.960	0.970
2020/01/31 04:39:26.5	91.910	-0.460	0.950	1.000
2020/01/31 04:39:26.6	91.900	-0.480	0.940	1.020
2020/01/31 04:39:26.7	91.880	-0.490	0.920	1.040
2020/01/31 04:39:26.8	91.870	-0.500	0.880	1.060
2020/01/31 04:39:26.9	91.850	-0.500	0.830	1.080
2020/01/31 04:39:27.0	91.830	-0.490	0.770	1.090
2020/01/31 04:39:27.1	91.810	-0.480	0.690	1.100
2020/01/31 04:39:27.2	91.790	-0.470	0.610	1.100
2020/01/31 04:39:27.3	91.770	-0.440	0.520	1.100
2020/01/31 04:39:27.4	91.750	-0.420	0.420	1.100
2020/01/31 04:39:27.5	91.730	-0.390	0.320	1.090
2020/01/31 04:39:27.6	91.710	-0.350	0.200	1.080
2020/01/31 04:39:27.7	91.700	-0.310	0.080	1.070
2020/01/31 04:39:27.8	91.680	-0.270	-0.040	1.060
2020/01/31 04:39:27.9	91.660	-0.220	-0.170	1.040
2020/01/31 04:39:28.0	91.640	-0.170	-0.300	1.020
2020/01/31 04:39:28.1	91.630	-0.120	-0.420	1.010
2020/01/31 04:39:28.2	91.620	-0.070	-0.560	0.990
2020/01/31 04:39:28.3	91.600	-0.010	-0.680	0.970
2020/01/31 04:39:28.4	91.590	0.040	-0.800	0.960
2020/01/31 04:39:28.5	91.580	0.100	-0.920	0.940
2020/01/31 04:39:28.6	91.570	0.150	-1.030	0.930
2020/01/31 04:39:28.7	91.560	0.210	-1.130	0.920
2020/01/31 04:39:28.8	91.550	0.260	-1.230	0.910
2020/01/31 04:39:28.9	91.540	0.310	-1.310	0.900
2020/01/31 04:39:29.0	91.530	0.350	-1.390	0.890
2020/01/31 04:39:29.1	91.520	0.390	-1.450	0.890
2020/01/31 04:39:29.2	91.520	0.430	-1.490	0.880
2020/01/31 04:39:29.3	91.510	0.460	-1.530	0.870
2020/01/31 04:39:29.4	91.500	0.490	-1.560	0.860
2020/01/31 04:39:29.5	91.500	0.510	-1.570	0.850
2020/01/31 04:39:29.6	91.500	0.520	-1.570	0.830
2020/01/31 04:39:29.7	91.500	0.530	-1.550	0.810
2020/01/31 04:39:29.8	91.500	0.540	-1.520	0.800
2020/01/31 04:39:29.9	91.500	0.530	-1.470	0.780
2020/01/31 04:39:30.0	91.500	0.520	-1.420	0.760
2020/01/31 04:39:30.1	91.500	0.510	-1.350	0.740
2020/01/31 04:39:30.2	91.500	0.480	-1.270	0.720
2020/01/31 04:39:30.3	91.510	0.460	-1.180	0.710
2020/01/31 04:39:30.4	91.510	0.420	-1.070	0.690
2020/01/31 04:39:30.5	91.510	0.390	-0.960	0.680
2020/01/31 04:39:30.6	91.510	0.340	-0.840	0.670
2020/01/31 04:39:30.7	91.520	0.300	-0.720	0.660
2020/01/31 04:39:30.8	91.520	0.250	-0.590	0.660
2020/01/31 04:39:30.9	91.530	0.190	-0.460	0.660
2020/01/31 04:39:31.0	91.540	0.140	-0.330	0.660
2020/01/31 04:39:31.1	91.550	0.080	-0.190	0.660
2020/01/31 04:39:31.2	91.550	0.020	-0.060	0.670
2020/01/31 04:39:31.3	91.560	-0.040	0.070	0.680
2020/01/31 04:39:31.4	91.570	-0.100	0.200	0.690
2020/01/31 04:39:31.5	91.580	-0.160	0.320	0.710
2020/01/31 04:39:31.6	91.590	-0.220	0.430	0.720
2020/01/31 04:39:31.7	91.600	-0.280	0.530	0.740
2020/01/31 04:39:31.8	91.610	-0.330	0.620	0.760
2020/01/31 04:39:31.9	91.620	-0.390	0.700	0.780
2020/01/31 04:39:32.0	91.630	-0.430	0.770	0.800
2020/01/31 04:39:32.1	91.640	-0.480	0.820	0.820
2020/01/31 04:39:32.2	91.650	-0.520	0.860	0.840
2020/01/31 04:39:32.3	91.660	-0.550	0.890	0.860
2020/01/31 04:39:32.4	91.670	-0.580	0.900	0.870
2020/01/31 04:39:32.5	91.690	-0.600	0.890	0.890
2020/01/31 04:39:32.6	91.700	-0.610	0.870	0.900
2020/01/31 04:39:32.7	91.710	-0.620	0.830	0.910
2020/01/31 04:39:32.8	91.720	-0.620	0.780	0.910
2020/01/31 04:39:32.9	91.730	-0.610	0.710	0.910
2020/01/31 04:39:33.0	91.750	-0.600	0.630	0.910
2020/01/31 04:39:33.1	91.760	-0.580	0.540	0.910
2020/01/31 04:39:33.2	91.770	-0.550	0.440	0.900
2020/01/31 04:39:33.3	91.780	-0.520	0.330	0.890
2020/01/31 04:39:33.4	91.790	-0.480	0.210	0.880
2020/01/31 04:39:33.5	91.810	-0.430	0.090	0.870
2020/01/31 04:39:33.6	91.820	-0.380	-0.040	0.860
2020/01/31 04:39:33.7	91.820	-0.330	-0.160	0.850
2020/01/31 04:39:33.8	91.830	-0.280	-0.290	0.850
2020/01/31 04:39:33.9	91.840	-0.220	-0.410	0.840
2020/01/31 04:39:34.0	91.840	-0.160	-0.520	0.830
2020/01/31 04:39:34.1	91.850	-0.100	-0.630	0.830
2020/01/31 04:39:34.2	91.850	-0.040	-0.730	0.830
2020/01/31 04:39:34.3	91.850	0.030	-0.820	0.820
2020/01/31 04:39:34.4	91.850	0.080	-0.900	0.820
2020/01/31 04:39:34.5	91.860	0.140	-0.970	0.830
2020/01/31 04:39:34.6	91.860	0.190	-1.020	0.830
2020/01/31 04:39:34.7	91.860	0.240	-1.060	0.830
2020/01/31 04:39:34.8	91.850	0.290	-1.090	0.840
2020/01/31 04:39:34.9	91.850	0.330	-1.100	0.850
2020/01/31 04:39:35.0	91.850	0.370	-1.100	0.860
2020/01/31 04:39:35.1	91.840	0.400	-1.080	0.860
2020/01/31 04:39:35.2	91.840	0.430	-1.050	0.880
2020/01/31 04:39:35.3	91.830	0.450	-1.010	0.890
2020/01/31 04:39:35.4	91.820	0.460	-0.960	0.900
2020/01/31 04:39:35.5	91.820	0.470	-0.890	0.910
2020/01/31 04:39:35.6	91.810	0.470	-0.820	0.910
2020/01/31 04:39:35.7	91.800	0.470	-0.730	0.920
2020/01/31 04:39:35.8	91.790	0.460	-0.640	0.930
2020/01/31 04:39:35.9	91.780	0.450	-0.540	0.930
2020/01/31 04:39:36.0	91.760	0.430	-0.440	0.930
2020/01/31 04:39:36.1	91.750	0.400	-0.340	0.930
2020/01/31 04:39:36.2	91.730	0.380	-0.220	0.930
2020/01/31 04:39:36.3	91.720	0.340	-0.120	0.920
2020/01/31 04:39:36.4	91.700	0.310	-0.010	0.920
2020/01/31 04:39:36.5	91.680	0.270	0.100	0.910
2020/01/31 04:39:36.6	91.670	0.230	0.200	0.900
2020/01/31 04:39:36.7	91.650	0.180	0.300	0.890
2020/01/31 04:39:36.8	91.630	0.140	0.400	0.880
2020/01/31 04:39:36.9	91.610	0.090	0.480	0.860
2020/01/31 04:39:37.0	91.590	0.050	0.560	0.850
2020/01/31 04:39:37.1	91.570	0.000	0.630	0.830
2020/01/31 04:39:37.2	91.560	-0.040	0.690	0.820
2020/01/31 04:39:37.3	91.540	-0.080	0.740	0.800
2020/01/31 04:39:37.4	91.530	-0.120	0.780	0.780
2020/01/31 04:39:37.5	91.510	-0.160	0.800	0.760
2020/01/31 04:39:37.6	91.500	-0.190	0.810	0.730
2020/01/31 04:39:37.7	91.490	-0.220	0.810	0.710
2020/01/31 04:39:37.8	91.490	-0.240	0.790	0.690
2020/01/31 04:39:37.9	91.480	-0.260	0.770	0.660
2020/01/31 04:39:38.0	91.480	-0.270	0.730	0.640
2020/01/31 04:39:38.1	91.480	-0.280	0.670	0.610
2020/01/31 04:39:38.2	91.490	-0.280	0.610	0.580
2020/01/31 04:39:38.3	91.490	-0.280	0.530	0.560
2020/01/31 04:39:38.4	91.500	-0.270	0.450	0.530
2020/01/31 04:39:38.5	91.510	-0.260	0.350	0.500
2020/01/31 04:39:38.6	91.530	-0.240	0.250	0.480
2020/01/31 04:39:38.7	91.540	-0.220	0.140	0.450
2020/01/31 04:39:38.8	91.560	-0.190	0.020	0.420
2020/01/31 04:39:38.9	91.580	-0.160	-0.100	0.390
2020/01/31 04:39:39.0	91.600	-0.130	-0.220	0.360
2020/01/31 04:39:39.1	91.620	-0.090	-0.340	0.330
2020/01/31 04:39:39.2	91.640	-0.050	-0.470	0.310
2020/01/31 04:39:39.3	91.670	-0.010	-0.590	0.280
2020/01/31 04:39:39.4	91.690	0.030	-0.700	0.260
2020/01/31 04:39:39.5	91.710	0.080	-0.810	0.240
2020/01/31 04:39:39.6	91.730	0.120	-0.920	0.220
2020/01/31 04:39:39.7	91.750	0.160	-1.010	0.210
2020/01/31 04:39:39.8	91.760	0.210	-1.100	0.200
2020/01/31 04:39:39.9	91.780	0.250	-1.170	0.200
2020/01/31 04:39:40.0	91.790	0.290	-1.230	0.200
2020/01/31 04:39:40.1	91.790	0.320	-1.280	0.210
2020/01/31 04:39:40.2	91.800	0.360	-1.310	0.220
2020/01/31 04:39:40.3	91.800	0.380	-1.330	0.230
2020/01/31 04:39:40.4	91.800	0.410	-1.340	0.260
2020/01/31 04:39:40.5	91.800	0.430	-1.330	0.280
2020/01/31 04:39:40.6	91.800	0.440	-1.310	0.310
2020/01/31 04:39:40.7	91.790	0.450	-1.270	0.340
2020/01/31 04:39:40.8	91.790	0.460	-1.220	0.380
2020/01/31 04:39:40.9	91.780	0.460	-1.160	0.420
2020/01/31 04:39:41.0	91.770	0.450	-1.080	0.460
2020/01/31 04:39:41.1	91.760	0.440	-1.000	0.500
2020/01/31 04:39:41.2	91.750	0.420	-0.900	0.560
2020/01/31 04:39:41.3	91.740	0.400	-0.800	0.610
2020/01/31 04:39:41.4	91.730	0.370	-0.700	0.660
2020/01/31 04:39:41.5	91.710	0.340	-0.590	0.710
2020/01/31 04:39:41.6	91.700	0.310	-0.470	0.770
2020/01/31 04:39:41.7	91.690	0.270	-0.360	0.820
2020/01/31 04:39:41.8	91.680	0.230	-0.240	0.880
2020/01/31 04:39:41.9	91.670	0.180	-0.130	0.930
2020/01/31 04:39:42.0	91.660	0.140	-0.010	0.980
2020/01/31 04:39:42.1	91.650	0.090	0.090	1.030
2020/01/31 04:39:42.2	91.650	0.040	0.190	1.080
2020/01/31 04:39:42.3	91.640	-0.000	0.290	1.120
2020/01/31 04:39:42.4	91.640	-0.050	0.380	1.160
2020/01/31 04:39:42.5	91.630	-0.100	0.450	1.200
2020/01/31 04:39:42.6	91.630	-0.140	0.520	1.230
2020/01/31 04:39:42.7	91.620	-0.180	0.580	1.260
2020/01/31 04:39:42.8	91.620	-0.220	0.630	1.280
2020/01/31 04:39:42.9	91.620	-0.260	0.670	1.300
2020/01/31 04:39:43.0	91.620	-0.290	0.690	1.320
2020/01/31 04:39:43.1	91.610	-0.320	0.710	1.330
2020/01/31 04:39:43.2	91.610	-0.340	0.710	1.340
2020/01/31 04:39:43.3	91.610	-0.360	0.710	1.340
2020/01/31 04:39:43.4	91.610	-0.380	0.700	1.340
2020/01/31 04:39:43.5	91.600	-0.400	0.680	1.340
2020/01/31 04:39:43.6	91.600	-0.410	0.650	1.330
2020/01/31 04:39:43.7	91.590	-0.420	0.620	1.310
2020/01/31 04:39:43.8	91.590	-0.430	0.580	1.300
2020/01/31 04:39:43.9	91.590	-0.430	0.540	1.280
2020/01/31 04:39:44.0	91.580	-0.430	0.490	1.250
2020/01/31 04:39:44.1	91.580	-0.430	0.440	1.230
2020/01/31 04:39:44.2	91.580	-0.430	0.380	1.200
2020/01/31 04:39:44.3	91.570	-0.420	0.330	1.160
2020/01/31 04:39:44.4	91.570	-0.410	0.270	1.130
2020/01/31 04:39:44.5	91.570	-0.400	0.210	1.090
2020/01/31 04:39:44.6	91.570	-0.390	0.140	1.050
2020/01/31 04:39:44.7	91.570	-0.370	0.080	1.010
2020/01/31 04:39:44.8	91.570	-0.360	0.020	0.970
2020/01/31 04:39:44.9	91.570	-0.340	-0.050	0.930
2020/01/31 04:39:45.0	91.570	-0.320	-0.110	0.890
2020/01/31 04:39:45.1	91.570	-0.300	-0.170	0.850
2020/01/31 04:39:45.2	91.580	-0.280	-0.230	0.820
2020/01/31 04:39:45.3	91.580	-0.260	-0.290	0.780
2020/01/31 04:39:45.4	91.580	-0.240	-0.350	0.760
2020/01/31 04:39:45.5	91.570	-0.210	-0.410	0.730
2020/01/31 04:39:45.6	91.570	-0.190	-0.460	0.710
2020/01/31 04:39:45.7	91.570	-0.170	-0.520	0.690
2020/01/31 04:39:45.8	91.570	-0.140	-0.570	0.680
2020/01/31 04:39:45.9	91.560	-0.120	-0.610	0.670
2020/01/31 04:39:46.0	91.560	-0.100	-0.660	0.660
2020/01/31 04:39:46.1	91.560	-0.070	-0.700	0.650
2020/01/31 04:39:46.2	91.570	-0.050	-0.740	0.650
2020/01/31 04:39:46.3	91.570	-0.030	-0.770	0.640
2020/01/31 04:39:46.4	91.570	-0.010	-0.800	0.640
2020/01/31 04:39:46.5	91.570	0.010	-0.830	0.640
2020/01/31 04:39:46.6	91.580	0.030	-0.850	0.640
2020/01/31 04:39:46.7	91.580	0.050	-0.870	0.640
2020/01/31 04:39:46.8	91.590	0.070	-0.880	0.640
2020/01/31 04:39:46.9	91.600	0.090	-0.890	0.640
2020/01/31 04:39:47.0	91.610	0.100	-0.900	0.650
2020/01/31 04:39:47.1	91.620	0.120	-0.900	0.650
2020/01/31 04:39:47.2	91.630	0.130	-0.910	0.650
2020/01/31 04:39:47.3	91.640	0.150	-0.900	0.650
2020/01/31 04:39:47.4	91.650	0.160	-0.900	0.660
2020/01/31 04:39:47.5	91.660	0.180	-0.890	0.660
2020/01/31 04:39:47.6	91.670	0.190	-0.870	0.670
2020/01/31 04:39:47.7	91.680	0.200	-0.860	0.680
2020/01/31 04:39:47.8	91.690	0.210	-0.840	0.690
2020/01/31 04:39:47.9	91.690	0.220	-0.810	0.700
2020/01/31 04:39:48.0	91.700	0.230	-0.790	0.720
2020/01/31 04:39:48.1	91.700	0.240	-0.760	0.730
2020/01/31 04:39:48.2	91.700	0.250	-0.720	0.760
2020/01/31 04:39:48.3	91.700	0.250	-0.690	0.780
2020/01/31 04:39:48.4	91.690	0.260	-0.650	0.800
2020/01/31 04:39:48.5	91.690	0.260	-0.610	0.820
2020/01/31 04:39:48.6	91.680	0.260	-0.570	0.850
2020/01/31 04:39:48.7	91.670	0.260	-0.530	0.870
2020/01/31 04:39:48.8	91.660	0.260	-0.480	0.890
2020/01/31 04:39:48.9	91.650	0.260	-0.430	0.920
2020/01/31 04:39:49.0	91.640	0.250	-0.380	0.940
2020/01/31 04:39:49.1	91.630	0.240	-0.330	0.970
2020/01/31 04:39:49.2	91.620	0.230	-0.280	0.990
2020/01/31 04:39:49.3	91.610	0.220	-0.220	1.010
2020/01/31 04:39:49.4	91.600	0.210	-0.160	1.030
2020/01/31 04:39:49.5	91.590	0.190	-0.110	1.050
2020/01/31 04:39:49.6	91.580	0.170	-0.050	1.070
2020/01/31 04:39:49.7	91.570	0.150	0.010	1.090
2020/01/31 04:39:49.8	91.560	0.130	0.070	1.110
2020/01/31 04:39:49.9	91.550	0.100	0.120	1.120
2020/01/31 04:39:50.0	91.540	0.070	0.180	1.130
2020/01/31 04:39:50.1	91.530	0.040	0.230	1.140
2020/01/31 04:39:50.2	91.520	0.010	0.290	1.150
2020/01/31 04:39:50.3	91.510	-0.020	0.340	1.150
2020/01/31 04:39:50.4	91.500	-0.050	0.390	1.150
2020/01/31 04:39:50.5	91.500	-0.080	0.430	1.140
2020/01/31 04:39:50.6	91.490	-0.120	0.480	1.140
2020/01/31 04:39:50.7	91.490	-0.150	0.520	1.120
2020/01/31 04:39:50.8	91.480	-0.180	0.550	1.110
2020/01/31 04:39:50.9	91.470	-0.210	0.580	1.090
2020/01/31 04:39:51.0	91.470	-0.240	0.600	1.070
2020/01/31 04:39:51.1	91.460	-0.270	0.610	1.040
2020/01/31 04:39:51.2	91.450	-0.300	0.630	1.020
2020/01/31 04:39:51.3	91.440	-0.320	0.630	0.990
2020/01/31 04:39:51.4	91.430	-0.340	0.630	0.960
2020/01/31 04:39:51.5	91.420	-0.360	0.620	0.930
2020/01/31 04:39:51.6	91.400	-0.370	0.600	0.900
2020/01/31 04:39:51.7	91.390	-0.380	0.580	0.870
2020/01/31 04:39:51.8	91.380	-0.380	0.550	0.840
2020/01/31 04:39:51.9	91.370	-0.380	0.510	0.810
2020/01/31 04:39:52.0	91.350	-0.380	0.470	0.780
2020/01/31 04:39:52.1	91.340	-0.370	0.420	0.750
2020/01/31 04:39:52.2	91.330	-0.360	0.370	0.730
2020/01/31 04:39:52.3	91.320	-0.340	0.310	0.700
2020/01/31 04:39:52.4	91.310	-0.320	0.240	0.670
2020/01/31 04:39:52.5	91.300	-0.290	0.180	0.650
2020/01/31 04:39:52.6	91.300	-0.260	0.110	0.620
2020/01/31 04:39:52.7	91.290	-0.230	0.030	0.600
2020/01/31 04:39:52.8	91.290	-0.190	-0.040	0.580
2020/01/31 04:39:52.9	91.290	-0.150	-0.120	0.550
2020/01/31 04:39:53.0	91.290	-0.110	-0.200	0.530
2020/01/31 04:39:53.1	91.300	-0.060	-0.280	0.510
2020/01/31 04:39:53.2	91.310	-0.010	-0.360	0.480
2020/01/31 04:39:53.3	91.320	0.040	-0.440	0.460
2020/01/31 04:39:53.4	91.330	0.090	-0.520	0.440
2020/01/31 04:39:53.5	91.340	0.140	-0.600	0.410
2020/01/31 04:39:53.6	91.360	0.190	-0.670	0.380
2020/01/31 04:39:53.7	91.380	0.240	-0.750	0.360
2020/01/31 04:39:53.8	91.390	0.290	-0.820	0.330
2020/01/31 04:39:53.9	91.420	0.340	-0.880	0.300
2020/01/31 04:39:54.0	91.440	0.380	-0.940	0.270
2020/01/31 04:39:54.1	91.460	0.430	-1.000	0.250
2020/01/31 04:39:54.2	91.480	0.470	-1.050	0.220
2020/01/31 04:39:54.3	91.500	0.500	-1.090	0.190
2020/01/31 04:39:54.4	91.530	0.540	-1.130	0.170
2020/01/31 04:39:54.5	91.550	0.570	-1.160	0.150
2020/01/31 04:39:54.6	91.570	0.590	-1.190	0.130
2020/01/31 04:39:54.7	91.590	0.620	-1.200	0.120
2020/01/31 04:39:54.8	91.610	0.630	-1.210	0.110
2020/01/31 04:39:54.9	91.630	0.640	-1.210	0.100
2020/01/31 04:39:55.0	91.650	0.650	-1.200	0.100
2020/01/31 04:39:55.1	91.670	0.650	-1.180	0.100
2020/01/31 04:39:55.2	91.680	0.650	-1.150	0.110
2020/01/31 04:39:55.3	91.700	0.640	-1.120	0.120
2020/01/31 04:39:55.4	91.710	0.620	-1.070	0.150
2020/01/31 04:39:55.5	91.720	0.600	-1.020	0.170
2020/01/31 04:39:55.6	91.730	0.580	-0.960	0.210
2020/01/31 04:39:55.7	91.740	0.550	-0.890	0.250
2020/01/31 04:39:55.8	91.750	0.510	-0.810	0.290
2020/01/31 04:39:55.9	91.750	0.470	-0.720	0.340
2020/01/31 04:39:56.0	91.750	0.430	-0.630	0.400
2020/01/31 04:39:56.1	91.760	0.380	-0.530	0.460
2020/01/31 04:39:56.2	91.760	0.330	-0.430	0.520
2020/01/31 04:39:56.3	91.760	0.270	-0.320	0.590
2020/01/31 04:39:56.4	91.750	0.220	-0.210	0.650
2020/01/31 04:39:56.5	91.750	0.150	-0.090	0.720
2020/01/31 04:39:56.6	91.740	0.090	0.020	0.790
2020/01/31 04:39:56.7	91.740	0.020	0.140	0.860
2020/01/31 04:39:56.8	91.730	-0.040	0.250	0.930
2020/01/31 04:39:56.9	91.720	-0.110	0.360	0.990
2020/01/31 04:39:57.0	91.710	-0.180	0.470	1.060
2020/01/31 04:39:57.1	91.700	-0.250	0.570	1.120
2020/01/31 04:39:57.2	91.700	-0.320	0.670	1.180
2020/01/31 04:39:57.3	91.680	-0.380	0.750	1.230
2020/01/31 04:39:57.4	91.670	-0.450	0.830	1.280
2020/01/31 04:39:57.5	91.660	-0.510	0.900	1.330
2020/01/31 04:39:57.6	91.650	-0.560	0.950	1.370
2020/01/31 04:39:57.7	91.640	-0.620	1.000	1.410
2020/01/31 04:39:57.8	91.630	-0.670	1.030	1.440
2020/01/31 04:39:57.9	91.620	-0.710	1.040	1.470
2020/01/31 04:39:58.0	91.610	-0.740	1.040	1.490
2020/01/31 04:39:58.1	91.610	-0.770	1.030	1.510
2020/01/31 04:39:58.2	91.600	-0.800	1.000	1.520
2020/01/31 04:39:58.3	91.590	-0.810	0.960	1.530
2020/01/31 04:39:58.4	91.590	-0.820	0.900	1.530
2020/01/31 04:39:58.5	91.580	-0.820	0.830	1.530
2020/01/31 04:39:58.6	91.580	-0.820	0.750	1.530
2020/01/31 04:39:58.7	91.580	-0.800	0.650	1.520
2020/01/31 04:39:58.8	91.580	-0.780	0.550	1.500
2020/01/31 04:39:58.9	91.570	-0.750	0.440	1.490
2020/01/31 04:39:59.0	91.580	-0.720	0.320	1.470
2020/01/31 04:39:59.1	91.580	-0.680	0.190	1.450
2020/01/31 04:39:59.2	91.580	-0.630	0.060	1.420
2020/01/31 04:39:59.3	91.580	-0.580	-0.070	1.390
2020/01/31 04:39:59.4	91.580	-0.530	-0.200	1.360
2020/01/31 04:39:59.5	91.590	-0.470	-0.330	1.330
2020/01/31 04:39:59.6	91.590	-0.410	-0.460	1.290
2020/01/31 04:39:59.7	91.590	-0.340	-0.580	1.250
2020/01/31 04:39:59.8	91.600	-0.270	-0.700	1.220
2020/01/31 04:39:59.9	91.600	-0.210	-0.820	1.180
2020/01/31 04:40:00.0	91.600	-0.140	-0.920	1.130
2020/01/31 04:40:00.1	91.610	-0.070	-1.010	1.090
2020/01/31 04:40:00.2	91.610	-0.000	-1.100	1.060
2020/01/31 04:40:00.3	91.610	0.060	-1.170	1.010
2020/01/31 04:40:00.4	91.600	0.130	-1.230	0.970
2020/01/31 04:40:00.5	91.600	0.190	-1.280	0.930
2020/01/31 04:40:00.6	91.600	0.240	-1.310	0.890
2020/01/31 04:40:00.7	91.590	0.300	-1.330	0.860
2020/01/31 04:40:00.8	91.590	0.340	-1.340	0.820
2020/01/31 04:40:00.9	91.580	0.390	-1.330	0.780
2020/01/31 04:40:01.0	91.580	0.420	-1.320	0.750
2020/01/31 04:40:01.1	91.570	0.460	-1.280	0.710
2020/01/31 04:40:01.2	91.560	0.480	-1.230	0.680
2020/01/31 04:40:01.3	91.550	0.500	-1.180	0.650
2020/01/31 04:40:01.4	91.540	0.520	-1.110	0.620
2020/01/31 04:40:01.5	91.530	0.530	-1.030	0.600
2020/01/31 04:40:01.6	91.520	0.530	-0.950	0.570
2020/01/31 04:40:01.7	91.510	0.530	-0.850	0.550
2020/01/31 04:40:01.8	91.500	0.520	-0.760	0.530
2020/01/31 04:40:01.9	91.490	0.500	-0.650	0.510
2020/01/31 04:40:02.0	91.480	0.480	-0.540	0.500
2020/01/31 04:40:02.1	91.470	0.460	-0.440	0.480
2020/01/31 04:40:02.2	91.460	0.430	-0.330	0.480
2020/01/31 04:40:02.3	91.450	0.390	-0.220	0.470
2020/01/31 04:40:02.4	91.440	0.360	-0.110	0.460
2020/01/31 04:40:02.5	91.430	0.320	-0.010	0.450
2020/01/31 04:40:02.6	91.430	0.270	0.090	0.450
2020/01/31 04:40:02.7	91.420	0.230	0.180	0.440
2020/01/31 04:40:02.8	91.420	0.180	0.270	0.440
2020/01/31 04:40:02.9	91.420	0.140	0.340	0.430
2020/01/31 04:40:03.0	91.420	0.090	0.410	0.430
2020/01/31 04:40:03.1	91.430	0.040	0.470	0.420
2020/01/31 04:40:03.2	91.440	-0.000	0.520	0.420
2020/01/31 04:40:03.3	91.450	-0.050	0.560	0.410
2020/01/31 04:40:03.4	91.460	-0.090	0.590	0.410
2020/01/31 04:40:03.5	91.480	-0.130	0.610	0.410
2020/01/31 04:40:03.6	91.490	-0.160	0.610	0.400
2020/01/31 04:40:03.7	91.510	-0.200	0.610	0.400
2020/01/31 04:40:03.8	91.530	-0.230	0.600	0.400
2020/01/31 04:40:03.9	91.560	-0.260	0.580	0.410
2020/01/31 04:40:04.0	91.580	-0.280	0.560	0.410
2020/01/31 04:40:04.1	91.600	-0.310	0.520	0.420
2020/01/31 04:40:04.2	91.630	-0.330	0.480	0.420
2020/01/31 04:40:04.3	91.650	-0.340	0.430	0.430
2020/01/31 04:40:04.4	91.680	-0.350	0.380	0.450
2020/01/31 04:40:04.5	91.700	-0.360	0.320	0.460
2020/01/31 04:40:04.6	91.730	-0.370	0.260	0.470
2020/01/31 04:40:04.7	91.750	-0.370	0.200	0.490
2020/01/31 04:40:04.8	91.780	-0.370	0.140	0.510
2020/01/31 04:40:04.9	91.800	-0.370	0.070	0.520
2020/01/31 04:40:05.0	91.820	-0.360	0.000	0.540
2020/01/31 04:40:05.1	91.840	-0.350	-0.070	0.560
2020/01/31 04:40:05.2	91.860	-0.340	-0.130	0.580
2020/01/31 04:40:05.3	91.880	-0.320	-0.200	0.600
2020/01/31 04:40:05.4	91.900	-0.300	-0.270	0.630
2020/01/31 04:40:05.5	91.910	-0.280	-0.340	0.650
2020/01/31 04:40:05.6	91.920	-0.260	-0.400	0.670
2020/01/31 04:40:05.7	91.930	-0.230	-0.470	0.700
2020/01/31 04:40:05.8	91.940	-0.210	-0.530	0.730
2020/01/31 04:40:05.9	91.940	-0.180	-0.580	0.760
2020/01/31 04:40:06.0	91.940	-0.150	-0.630	0.800
2020/01/31 04:40:06.1	91.930	-0.120	-0.680	0.830
2020/01/31 04:40:06.2	91.920	-0.090	-0.730	0.880
2020/01/31 04:40:06.3	91.910	-0.060	-0.760	0.920
2020/01/31 04:40:06.4	91.900	-0.040	-0.790	0.970
2020/01/31 04:40:06.5	91.880	-0.010	-0.820	1.020
2020/01/31 04:40:06.6	91.850	0.020	-0.830	1.070
2020/01/31 04:40:06.7	91.830	0.050	-0.840	1.120
2020/01/31 04:40:06.8	91.800	0.070	-0.850	1.170
2020/01/31 04:40:06.9	91.770	0.090	-0.840	1.220
2020/01/31 04:40:07.0	91.730	0.110	-0.830	1.270
2020/01/31 04:40:07.1	91.700	0.130	-0.820	1.320
2020/01/31 04:40:07.2	91.660	0.140	-0.790	1.370
2020/01/31 04:40:07.3	91.620	0.150	-0.770	1.410
2020/01/31 04:40:07.4	91.580	0.160	-0.730	1.460
2020/01/31 04:40:07.5	91.540	0.170	-0.690	1.490
2020/01/31 04:40:07.6	91.500	0.170	-0.650	1.530
2020/01/31 04:40:07.7	91.460	0.170	-0.600	1.560
2020/01/31 04:40:07.8	91.430	0.160	-0.550	1.580
2020/01/31 04:40:07.9	91.390	0.150	-0.490	1.600
2020/01/31 04:40:08.0	91.350	0.140	-0.440	1.620
2020/01/31 04:40:08.1	91.320	0.130	-0.380	1.620
2020/01/31 04:40:08.2	91.280	0.120	-0.320	1.630
2020/01/31 04:40:08.3	91.250	0.100	-0.260	1.630
2020/01/31 04:40:08.4	91.230	0.080	-0.200	1.620
2020/01/31 04:40:08.5	91.200	0.070	-0.150	1.600
2020/01/31 04:40:08.6	91.180	0.050	-0.100	1.580
2020/01/31 04:40:08.7	91.160	0.030	-0.040	1.550
2020/01/31 04:40:08.8	91.150	0.010	0.000	1.520
2020/01/31 04:40:08.9	91.130	-0.010	0.050	1.480
2020/01/31 04:40:09.0	91.120	-0.030	0.080	1.440
2020/01/31 04:40:09.1	91.120	-0.040	0.120	1.400
2020/01/31 04:40:09.2	91.120	-0.050	0.150	1.350
2020/01/31 04:40:09.3	91.120	-0.060	0.170	1.300
2020/01/31 04:40:09.4	91.120	-0.070	0.180	1.240
2020/01/31 04:40:09.5	91.130	-0.070	0.190	1.190
2020/01/31 04:40:09.6	91.140	-0.070	0.200	1.130
2020/01/31 04:40:09.7	91.150	-0.060	0.190	1.070
2020/01/31 04:40:09.8	91.160	-0.050	0.180	1.010
2020/01/31 04:40:09.9	91.180	-0.040	0.160	0.950
2020/01/31 04:40:10.0	91.200	-0.020	0.140	0.890
2020/01/31 04:40:10.1	91.220	-0.000	0.110	0.830
2020/01/31 04:40:10.2	91.240	0.030	0.070	0.770
2020/01/31 04:40:10.3	91.270	0.060	0.030	0.710
2020/01/31 04:40:10.4	91.290	0.090	-0.020	0.650
2020/01/31 04:40:10.5	91.310	0.130	-0.070	0.600
2020/01/31 04:40:10.6	91.340	0.170	-0.120	0.540
2020/01/31 04:40:10.7	91.360	0.210	-0.170	0.490
2020/01/31 04:40:10.8	91.380	0.250	-0.230	0.450
2020/01/31 04:40:10.9	91.400	0.290	-0.280	0.400
2020/01/31 04:40:11.0	91.410	0.340	-0.340	0.370
2020/01/31 04:40:11.1	91.430	0.380	-0.390	0.330
2020/01/31 04:40:11.2	91.440	0.420	-0.440	0.300
2020/01/31 04:40:11.3	91.450	0.460	-0.490	0.270
2020/01/31 04:40:11.4	91.450	0.500	-0.540	0.240
2020/01/31 04:40:11.5	91.460	0.540	-0.580	0.220
2020/01/31 04:40:11.6	91.460	0.570	-0.610	0.200
2020/01/31 04:40:11.7	91.460	0.600	-0.640	0.180
2020/01/31 04:40:11.8	91.450	0.620	-0.660	0.170
2020/01/31 04:40:11.9	91.450	0.640	-0.680	0.160
2020/01/31 04:40:12.0	91.440	0.660	-0.690	0.160
2020/01/31 04:40:12.1	91.430	0.670	-0.690	0.150
2020/01/31 04:40:12.2	91.420	0.670	-0.690	0.160
2020/01/31 04:40:12.3	91.410	0.670	-0.680	0.160
2020/01/31 04:40:12.4	91.400	0.660	-0.660	0.170
2020/01/31 04:40:12.5	91.390	0.650	-0.630	0.180
2020/01/31 04:40:12.6	91.370	0.630	-0.600	0.190
2020/01/31 04:40:12.7	91.360	0.600	-0.560	0.210
2020/01/31 04:40:12.8	91.350	0.570	-0.520	0.230
2020/01/31 04:40:12.9	91.340	0.540	-0.470	0.250
2020/01/31 04:40:13.0	91.330	0.500	-0.410	0.280
2020/01/31 04:40:13.1	91.330	0.460	-0.350	0.310
2020/01/31 04:40:13.2	91.320	0.410	-0.290	0.340
2020/01/31 04:40:13.3	91.320	0.360	-0.220	0.370
2020/01/31 04:40:13.4	91.320	0.300	-0.150	0.410
2020/01/31 04:40:13.5	91.330	0.250	-0.070	0.440
2020/01/31 04:40:13.6	91.330	0.190	0.000	0.480
2020/01/31 04:40:13.7	91.340	0.130	0.080	0.520
2020/01/31 04:40:13.8	91.360	0.060	0.150	0.550
2020/01/31 04:40:13.9	91.380	0.000	0.220	0.590
2020/01/31 04:40:14.0	91.400	-0.060	0.290	0.620
2020/01/31 04:40:14.1	91.430	-0.120	0.360	0.660
2020/01/31 04:40:14.2	91.460	-0.180	0.420	0.690
2020/01/31 04:40:14.3	91.490	-0.240	0.480	0.730
2020/01/31 04:40:14.4	91.520	-0.300	0.530	0.760
2020/01/31 04:40:14.5	91.560	-0.350	0.570	0.790
2020/01/31 04:40:14.6	91.600	-0.410	0.610	0.820
2020/01/31 04:40:14.7	91.640	-0.460	0.640	0.840
2020/01/31 04:40:14.8	91.680	-0.500	0.660	0.870
2020/01/31 04:40:14.9	91.720	-0.540	0.680	0.900
2020/01/31 04:40:15.0	91.760	-0.580	0.680	0.920
2020/01/31 04:40:15.1	91.800	-0.610	0.680	0.950
2020/01/31 04:40:15.2	91.830	-0.640	0.660	0.970
2020/01/31 04:40:15.3	91.870	-0.670	0.650	0.990
2020/01/31 04:40:15.4	91.900	-0.690	0.620	1.020
2020/01/31 04:40:15.5	91.930	-0.700	0.580	1.040
2020/01/31 04:40:15.6	91.950	-0.710	0.540	1.060
2020/01/31 04:40:15.7	91.970	-0.720	0.480	1.090
2020/01/31 04:40:15.8	91.990	-0.720	0.430	1.110
2020/01/31 04:40:15.9	92.000	-0.720	0.360	1.140
2020/01/31 04:40:16.0	92.000	-0.710	0.290	1.170
2020/01/31 04:40:16.1	92.000	-0.700	0.220	1.200
2020/01/31 04:40:16.2	92.000	-0.680	0.140	1.230
2020/01/31 04:40:16.3	91.990	-0.660	0.050	1.260
2020/01/31 04:40:16.4	91.980	-0.630	-0.030	1.300
2020/01/31 04:40:16.5	91.970	-0.600	-0.120	1.340
2020/01/31 04:40:16.6	91.950	-0.570	-0.200	1.370
2020/01/31 04:40:16.7	91.920	-0.540	-0.290	1.410
2020/01/31 04:40:16.8	91.900	-0.500	-0.380	1.450
2020/01/31 04:40:16.9	91.870	-0.470	-0.460	1.490
2020/01/31 04:40:17.0	91.840	-0.430	-0.550	1.530
2020/01/31 04:40:17.1	91.800	-0.390	-0.630	1.580
2020/01/31 04:40:17.2	91.770	-0.350	-0.700	1.620
2020/01/31 04:40:17.3	91.740	-0.310	-0.770	1.660
2020/01/31 04:40:17.4	91.700	-0.270	-0.840	1.700
2020/01/31 04:40:17.5	91.670	-0.230	-0.900	1.740
2020/01/31 04:40:17.6	91.630	-0.190	-0.960	1.780
2020/01/31 04:40:17.7	91.600	-0.160	-1.010	1.810
2020/01/31 04:40:17.8	91.570	-0.120	-1.050	1.840
2020/01/31 04:40:17.9	91.550	-0.090	-1.090	1.860
2020/01/31 04:40:18.0	91.520	-0.060	-1.120	1.880
2020/01/31 04:40:18.1	91.500	-0.030	-1.140	1.900
2020/01/31 04:40:18.2	91.480	-0.010	-1.150	1.910
2020/01/31 04:40:18.3	91.470	0.020	-1.160	1.910
2020/01/31 04:40:18.4	91.450	0.040	-1.170	1.910
2020/01/31 04:40:18.5	91.450	0.060	-1.160	1.910
2020/01/31 04:40:18.6	91.440	0.080	-1.150	1.890
2020/01/31 04:40:18.7	91.440	0.090	-1.140	1.880
2020/01/31 04:40:18.8	91.440	0.110	-1.120	1.850
2020/01/31 04:40:18.9	91.450	0.120	-1.090	1.820
2020/01/31 04:40:19.0	91.450	0.130	-1.060	1.790
2020/01/31 04:40:19.1	91.460	0.140	-1.020	1.740
2020/01/31 04:40:19.2	91.480	0.150	-0.980	1.700
2020/01/31 04:40:19.3	91.490	0.150	-0.930	1.650
2020/01/31 04:40:19.4	91.510	0.160	-0.880	1.600
2020/01/31 04:40:19.5	91.530	0.160	-0.830	1.540
2020/01/31 04:40:19.6	91.550	0.170	-0.770	1.480
2020/01/31 04:40:19.7	91.560	0.170	-0.710	1.420
2020/01/31 04:40:19.8	91.580	0.170	-0.650	1.350
2020/01/31 04:40:19.9	91.600	0.170	-0.580	1.280
2020/01/31 04:40:20.0	91.620	0.170	-0.510	1.220
2020/01/31 04:40:20.1	91.630	0.170	-0.440	1.150
2020/01/31 04:40:20.2	91.650	0.170	-0.360	1.080
2020/01/31 04:40:20.3	91.660	0.160	-0.290	1.010
2020/01/31 04:40:20.4	91.680	0.160	-0.210	0.940
2020/01/31 04:40:20.5	91.690	0.160	-0.130	0.870
2020/01/31 04:40:20.6	91.700	0.150	-0.050	0.800
2020/01/31 04:40:20.7	91.710	0.150	0.020	0.730
2020/01/31 04:40:20.8	91.720	0.140	0.100	0.660
2020/01/31 04:40:20.9	91.730	0.130	0.170	0.590
2020/01/31 04:40:21.0	91.730	0.130	0.240	0.520
2020/01/31 04:40:21.1	91.740	0.120	0.310	0.460
2020/01/31 04:40:21.2	91.750	0.110	0.380	0.400
2020/01/31 04:40:21.3	91.750	0.100	0.440	0.340
2020/01/31 04:40:21.4	91.750	0.090	0.500	0.280
2020/01/31 04:40:21.5	91.760	0.080	0.550	0.230
2020/01/31 04:40:21.6	91.760	0.070	0.590	0.180
2020/01/31 04:40:21.7	91.760	0.060	0.630	0.140
2020/01/31 04:40:21.8	91.760	0.050	0.670	0.090
2020/01/31 04:40:21.9	91.770	0.040	0.690	0.060
2020/01/31 04:40:22.0	91.770	0.030	0.710	0.020
2020/01/31 04:40:22.1	91.770	0.030	0.720	-0.000
2020/01/31 04:40:22.2	91.760	0.020	0.720	-0.030
2020/01/31 04:40:22.3	91.760	0.020	0.720	-0.050
2020/01/31 04:40:22.4	91.760	0.010	0.700	-0.060
2020/01/31 04:40:22.5	91.760	0.010	0.670	-0.060
2020/01/31 04:40:22.6	91.750	0.010	0.640	-0.070
2020/01/31 04:40:22.7	91.750	0.010	0.600	-0.060
2020/01/31 04:40:22.8	91.740	0.010	0.550	-0.050
2020/01/31 04:40:22.9	91.740	0.010	0.500	-0.040
2020/01/31 04:40:23.0	91.730	0.010	0.440	-0.030
2020/01/31 04:40:23.1	91.730	0.020	0.370	-0.020
2020/01/31 04:40:23.2	91.720	0.030	0.290	0.000
2020/01/31 04:40:23.3	91.710	0.040	0.210	0.020
2020/01/31 04:40:23.4	91.710	0.050	0.130	0.040
2020/01/31 04:40:23.5	91.710	0.060	0.040	0.050
2020/01/31 04:40:23.6	91.700	0.070	-0.050	0.070
2020/01/31 04:40:23.7	91.700	0.090	-0.140	0.080
2020/01/31 04:40:23.8	91.700	0.100	-0.230	0.100
2020/01/31 04:40:23.9	91.700	0.120	-0.320	0.110
2020/01/31 04:40:24.0	91.700	0.130	-0.410	0.120
2020/01/31 04:40:24.1	91.710	0.150	-0.490	0.130
2020/01/31 04:40:24.2	91.710	0.170	-0.580	0.140
2020/01/31 04:40:24.3	91.720	0.190	-0.660	0.150
2020/01/31 04:40:24.4	91.730	0.200	-0.740	0.160
2020/01/31 04:40:24.5	91.740	0.220	-0.810	0.170
2020/01/31 04:40:24.6	91.750	0.240	-0.880	0.170
2020/01/31 04:40:24.7	91.760	0.260	-0.950	0.190
2020/01/31 04:40:24.8	91.770	0.280	-1.000	0.200
2020/01/31 04:40:24.9	91.780	0.290	-1.060	0.210
2020/01/31 04:40:25.0	91.790	0.310	-1.100	0.230
2020/01/31 04:40:25.1	91.800	0.320	-1.140	0.250
2020/01/31 04:40:25.2	91.820	0.340	-1.170	0.280
2020/01/31 04:40:25.3	91.830	0.350	-1.190	0.300
2020/01/31 04:40:25.4	91.840	0.360	-1.200	0.340
2020/01/31 04:40:25.5	91.840	0.370	-1.210	0.370
2020/01/31 04:40:25.6	91.850	0.380	-1.210	0.410
2020/01/31 04:40:25.7	91.850	0.390	-1.200	0.460
2020/01/31 04:40:25.8	91.850	0.390	-1.180	0.500
2020/01/31 04:40:25.9	91.850	0.400	-1.160	0.550
2020/01/31 04:40:26.0	91.840	0.400	-1.130	0.610
2020/01/31 04:40:26.1	91.840	0.400	-1.090	0.660
2020/01/31 04:40:26.2	91.830	0.390	-1.040	0.720
2020/01/31 04:40:26.3	91.830	0.390	-0.990	0.780
2020/01/31 04:40:26.4	91.820	0.380	-0.930	0.840
2020/01/31 04:40:26.5	91.810	0.370	-0.870	0.900
2020/01/31 04:40:26.6	91.790	0.360	-0.800	0.960
2020/01/31 04:40:26.7	91.780	0.340	-0.720	1.020
2020/01/31 04:40:26.8	91.770	0.320	-0.640	1.080
2020/01/31 04:40:26.9	91.760	0.300	-0.550	1.130
2020/01/31 04:40:27.0	91.750	0.280	-0.460	1.190
2020/01/31 04:40:27.1	91.740	0.250	-0.370	1.240
2020/01/31 04:40:27.2	91.720	0.220	-0.280	1.300
2020/01/31 04:40:27.3	91.710	0.190	-0.190	1.350
2020/01/31 04:40:27.4	91.710	0.160	-0.090	1.400
2020/01/31 04:40:27.5	91.700	0.130	-0.000	1.440
2020/01/31 04:40:27.6	91.690	0.090	0.090	1.480
2020/01/31 04:40:27.7	91.690	0.060	0.170	1.520
2020/01/31 04:40:27.8	91.680	0.020	0.260	1.550
2020/01/31 04:40:27.9	91.680	-0.020	0.330	1.580
2020/01/31 04:40:28.0	91.670	-0.060	0.410	1.600
2020/01/31 04:40:28.1	91.670	-0.100	0.470	1.620
2020/01/31 04:40:28.2	91.670	-0.140	0.530	1.630
2020/01/31 04:40:28.3	91.670	-0.180	0.590	1.640
2020/01/31 04:40:28.4	91.670	-0.220	0.630	1.640
2020/01/31 04:40:28.5	91.670	-0.260	0.670	1.640
2020/01/31 04:40:28.6	91.670	-0.290	0.700	1.630
2020/01/31 04:40:28.7	91.670	-0.330	0.720	1.620
2020/01/31 04:40:28.8	91.670	-0.360	0.730	1.610
2020/01/31 04:40:28.9	91.670	-0.390	0.740	1.590
2020/01/31 04:40:29.0	91.680	-0.420	0.730	1.560
2020/01/31 04:40:29.1	91.680	-0.450	0.720	1.540
2020/01/31 04:40:29.2	91.680	-0.480	0.700	1.510
2020/01/31 04:40:29.3	91.690	-0.500	0.680	1.470
2020/01/31 04:40:29.4	91.700	-0.520	0.650	1.430
2020/01/31 04:40:29.5	91.700	-0.540	0.610	1.390
2020/01/31 04:40:29.6	91.710	-0.550	0.570	1.350
2020/01/31 04:40:29.7	91.720	-0.560	0.520	1.310
2020/01/31 04:40:29.8	91.730	-0.570	0.480	1.270
2020/01/31 04:40:29.9	91.740	-0.580	0.420	1.220
2020/01/31 04:40:30.0	91.750	-0.580	0.370	1.180
2020/01/31 04:40:30.1	91.760	-0.580	0.310	1.140
2020/01/31 04:40:30.2	91.770	-0.580	0.260	1.090
2020/01/31 04:40:30.3	91.790	-0.570	0.200	1.050
2020/01/31 04:40:30.4	91.800	-0.560	0.150	1.010
2020/01/31 04:40:30.5	91.810	-0.550	0.090	0.980
2020/01/31 04:40:30.6	91.820	-0.540	0.040	0.940
2020/01/31 04:40:30.7	91.830	-0.520	-0.010	0.910
2020/01/31 04:40:30.8	91.840	-0.510	-0.060	0.880
2020/01/31 04:40:30.9	91.850	-0.490	-0.110	0.850
2020/01/31 04:40:31.0	91.850	-0.470	-0.150	0.820
2020/01/31 04:40:31.1	91.860	-0.450	-0.190	0.800
2020/01/31 04:40:31.2	91.870	-0.430	-0.220	0.780
2020/01/31 04:40:31.3	91.870	-0.400	-0.250	0.760
2020/01/31 04:40:31.4	91.880	-0.380	-0.280	0.740
2020/01/31 04:40:31.5	91.880	-0.360	-0.310	0.720
2020/01/31 04:40:31.6	91.880	-0.330	-0.330	0.710
2020/01/31 04:40:31.7	91.880	-0.310	-0.350	0.700
2020/01/31 04:40:31.8	91.880	-0.280	-0.370	0.690
2020/01/31 04:40:31.9	91.880	-0.260	-0.390	0.680
2020/01/31 04:40:32.0	91.870	-0.230	-0.400	0.680
2020/01/31 04:40:32.1	91.870	-0.210	-0.410	0.670
2020/01/31 04:40:32.2	91.860	-0.180	-0.430	0.670
2020/01/31 04:40:32.3	91.860	-0.150	-0.440	0.670
2020/01/31 04:40:32.4	91.860	-0.130	-0.460	0.670
2020/01/31 04:40:32.5	91.850	-0.100	-0.470	0.670
2020/01/31 04:40:32.6	91.850	-0.080	-0.480	0.670
2020/01/31 04:40:32.7	91.850	-0.050	-0.500	0.660
2020/01/31 04:40:32.8	91.850	-0.030	-0.520	0.660
2020/01/31 04:40:32.9	91.850	0.000	-0.540	0.660
2020/01/31 04:40:33.0	91.850	0.030	-0.560	0.660
2020/01/31 04:40:33.1	91.850	0.050	-0.580	0.660
2020/01/31 04:40:33.2	91.860	0.080	-0.600	0.650
2020/01/31 04:40:33.3	91.860	0.110	-0.630	0.650
2020/01/31 04:40:33.4	91.860	0.130	-0.660	0.650
2020/01/31 04:40:33.5	91.870	0.160	-0.680	0.640
2020/01/31 04:40:33.6	91.870	0.180	-0.710	0.640
2020/01/31 04:40:33.7	91.870	0.210	-0.740	0.640
2020/01/31 04:40:33.8	91.880	0.230	-0.770	0.640
2020/01/31 04:40:33.9	91.880	0.250	-0.790	0.640
2020/01/31 04:40:34.0	91.880	0.280	-0.810	0.630
2020/01/31 04:40:34.1	91.880	0.300	-0.830	0.630
2020/01/31 04:40:34.2	91.870	0.320	-0.860	0.630
2020/01/31 04:40:34.3	91.870	0.330	-0.870	0.630
2020/01/31 04:40:34.4	91.870	0.350	-0.880	0.630
2020/01/31 04:40:34.5	91.860	0.360	-0.890	0.630
2020/01/31 04:40:34.6	91.850	0.370	-0.890	0.640
2020/01/31 04:40:34.7	91.840	0.380	-0.880	0.640
2020/01/31 04:40:34.8	91.830	0.390	-0.870	0.650
2020/01/31 04:40:34.9	91.820	0.400	-0.860	0.660
2020/01/31 04:40:35.0	91.800	0.400	-0.840	0.670
2020/01/31 04:40:35.1	91.790	0.400	-0.820	0.680
2020/01/31 04:40:35.2	91.770	0.400	-0.780	0.700
2020/01/31 04:40:35.3	91.750	0.400	-0.750	0.720
2020/01/31 04:40:35.4	91.730	0.400	-0.710	0.740
2020/01/31 04:40:35.5	91.700	0.390	-0.670	0.770
2020/01/31 04:40:35.6	91.670	0.390	-0.630	0.790
2020/01/31 04:40:35.7	91.650	0.380	-0.580	0.820
2020/01/31 04:40:35.8	91.620	0.370	-0.530	0.850
2020/01/31 04:40:35.9	91.590	0.360	-0.480	0.880
2020/01/31 04:40:36.0	91.560	0.350	-0.430	0.910
2020/01/31 04:40:36.1	91.530	0.330	-0.370	0.940
2020/01/31 04:40:36.2	91.500	0.320	-0.320	0.970
2020/01/31 04:40:36.3	91.470	0.310	-0.270	0.990
2020/01/31 04:40:36.4	91.440	0.290	-0.220	1.020
2020/01/31 04:40:36.5	91.410	0.280	-0.170	1.040
2020/01/31 04:40:36.6	91.390	0.260	-0.130	1.060
2020/01/31 04:40:36.7	91.370	0.250	-0.080	1.070
2020/01/31 04:40:36.8	91.340	0.230	-0.040	1.080
2020/01/31 04:40:36.9	91.330	0.220	-0.000	1.090
2020/01/31 04:40:37.0	91.310	0.210	0.030	1.100
2020/01/31 04:40:37.1	91.290	0.190	0.060	1.100
2020/01/31 04:40:37.2	91.280	0.180	0.090	1.090
2020/01/31 04:40:37.3	91.280	0.170	0.110	1.090
2020/01/31 04:40:37.4	91.270	0.160	0.130	1.080
2020/01/31 04:40:37.5	91.270	0.150	0.140	1.060
2020/01/31 04:40:37.6	91.270	0.130	0.150	1.050
2020/01/31 04:40:37.7	91.270	0.120	0.160	1.030
2020/01/31 04:40:37.8	91.280	0.110	0.160	1.020
2020/01/31 04:40:37.9	91.280	0.100	0.160	1.000
2020/01/31 04:40:38.0	91.290	0.090	0.160	0.980
2020/01/31 04:40:38.1	91.310	0.080	0.160	0.970
2020/01/31 04:40:38.2	91.320	0.070	0.150	0.950
2020/01/31 04:40:38.3	91.330	0.060	0.150	0.940
2020/01/31 04:40:38.4	91.350	0.050	0.140	0.930
2020/01/31 04:40:38.5	91.370	0.040	0.130	0.920
2020/01/31 04:40:38.6	91.390	0.020	0.120	0.910
2020/01/31 04:40:38.7	91.410	0.010	0.110	0.900
2020/01/31 04:40:38.8	91.430	-0.010	0.090	0.890
2020/01/31 04:40:38.9	91.450	-0.020	0.080	0.880
2020/01/31 04:40:39.0	91.470	-0.040	0.070	0.870
2020/01/31 04:40:39.1	91.490	-0.060	0.060	0.860
2020/01/31 04:40:39.2	91.510	-0.080	0.050	0.860
2020/01/31 04:40:39.3	91.530	-0.100	0.050	0.850
2020/01/31 04:40:39.4	91.550	-0.120	0.040	0.840
2020/01/31 04:40:39.5	91.570	-0.140	0.040	0.840
2020/01/31 04:40:39.6	91.580	-0.160	0.040	0.830
2020/01/31 04:40:39.7	91.600	-0.180	0.040	0.820
2020/01/31 04:40:39.8	91.610	-0.200	0.040	0.810
2020/01/31 04:40:39.9	91.620	-0.220	0.040	0.810
2020/01/31 04:40:40.0	91.630	-0.250	0.050	0.800
2020/01/31 04:40:40.1	91.640	-0.270	0.060	0.790
2020/01/31 04:40:40.2	91.640	-0.290	0.060	0.790
2020/01/31 04:40:40.3	91.640	-0.310	0.070	0.780
2020/01/31 04:40:40.4	91.640	-0.330	0.080	0.770
2020/01/31 04:40:40.5	91.630	-0.340	0.080	0.770
2020/01/31 04:40:40.6	91.630	-0.360	0.090	0.760
2020/01/31 04:40:40.7	91.620	-0.370	0.090	0.760
2020/01/31 04:40:40.8	91.610	-0.390	0.090	0.760
2020/01/31 04:40:40.9	91.610	-0.400	0.100	0.750
2020/01/31 04:40:41.0	91.600	-0.410	0.090	0.750
2020/01/31 04:40:41.1	91.590	-0.410	0.090	0.750
2020/01/31 04:40:41.2	91.580	-0.420	0.090	0.760
2020/01/31 04:40:41.3	91.570	-0.420	0.080	0.770
2020/01/31 04:40:41.4	91.560	-0.420	0.060	0.770
2020/01/31 04:40:41.5	91.560	-0.420	0.040	0.780
2020/01/31 04:40:41.6	91.550	-0.410	0.020	0.790
2020/01/31 04:40:41.7	91.540	-0.400	-0.000	0.810
2020/01/31 04:40:41.8	91.540	-0.390	-0.030	0.820
2020/01/31 04:40:41.9	91.530	-0.380	-0.060	0.840
2020/01/31 04:40:42.0	91.530	-0.370	-0.100	0.850
2020/01/31 04:40:42.1	91.530	-0.350	-0.130	0.870
2020/01/31 04:40:42.2	91.520	-0.330	-0.170	0.890
2020/01/31 04:40:42.3	91.520	-0.310	-0.210	0.910
2020/01/31 04:40:42.4	91.520	-0.290	-0.260	0.920
2020/01/31 04:40:42.5	91.520	-0.270	-0.300	0.940
2020/01/31 04:40:42.6	91.520	-0.250	-0.340	0.950
2020/01/31 04:40:42.7	91.520	-0.220	-0.380	0.960
2020/01/31 04:40:42.8	91.520	-0.200	-0.420	0.970
2020/01/31 04:40:42.9	91.530	-0.180	-0.460	0.970
2020/01/31 04:40:43.0	91.530	-0.150	-0.500	0.980
2020/01/31 04:40:43.1	91.530	-0.130	-0.530	0.980
2020/01/31 04:40:43.2	91.540	-0.110	-0.560	0.970
2020/01/31 04:40:43.3	91.540	-0.090	-0.580	0.970
2020/01/31 04:40:43.4	91.540	-0.070	-0.600	0.960
2020/01/31 04:40:43.5	91.550	-0.050	-0.610	0.950
2020/01/31 04:40:43.6	91.550	-0.030	-0.620	0.940
2020/01/31 04:40:43.7	91.550	-0.010	-0.620	0.920
2020/01/31 04:40:43.8	91.560	0.000	-0.610	0.910
2020/01/31 04:40:43.9	91.560	0.020	-0.600	0.890
2020/01/31 04:40:44.0	91.570	0.030	-0.580	0.870
2020/01/31 04:40:44.1	91.570	0.040	-0.560	0.850
2020/01/31 04:40:44.2	91.570	0.050	-0.530	0.830
2020/01/31 04:40:44.3	91.570	0.060	-0.500	0.810
2020/01/31 04:40:44.4	91.580	0.070	-0.470	0.800
2020/01/31 04:40:44.5	91.580	0.080	-0.430	0.780
2020/01/31 04:40:44.6	91.580	0.090	-0.390	0.760
2020/01/31 04:40:44.7	91.580	0.090	-0.350	0.750
2020/01/31 04:40:44.8	91.580	0.100	-0.320	0.740
2020/01/31 04:40:44.9	91.580	0.110	-0.280	0.730
2020/01/31 04:40:45.0	91.580	0.110	-0.240	0.720
2020/01/31 04:40:45.1	91.570	0.120	-0.210	0.720
2020/01/31 04:40:45.2	91.570	0.130	-0.180	0.710
2020/01/31 04:40:45.3	91.570	0.130	-0.160	0.720
2020/01/31 04:40:45.4	91.560	0.140	-0.130	0.720
2020/01/31 04:40:45.5	91.550	0.150	-0.120	0.720
2020/01/31 04:40:45.6	91.540	0.170	-0.110	0.730
2020/01/31 04:40:45.7	91.530	0.180	-0.110	0.740
2020/01/31 04:40:45.8	91.520	0.190	-0.110	0.750
2020/01/31 04:40:45.9	91.500	0.210	-0.120	0.760
2020/01/31 04:40:46.0	91.490	0.230	-0.140	0.780
2020/01/31 04:40:46.1	91.470	0.250	-0.160	0.800
2020/01/31 04:40:46.2	91.460	0.270	-0.190	0.810
2020/01/31 04:40:46.3	91.440	0.290	-0.220	0.830
2020/01/31 04:40:46.4	91.430	0.320	-0.270	0.850
2020/01/31 04:40:46.5	91.420	0.340	-0.310	0.870
2020/01/31 04:40:46.6	91.400	0.370	-0.360	0.890
2020/01/31 04:40:46.7	91.390	0.390	-0.410	0.910
2020/01/31 04:40:46.8	91.380	0.420	-0.470	0.930
2020/01/31 04:40:46.9	91.370	0.440	-0.520	0.940
2020/01/31 04:40:47.0	91.360	0.470	-0.580	0.960
2020/01/31 04:40:47.1	91.350	0.490	-0.630	0.980
2020/01/31 04:40:47.2	91.340	0.510	-0.690	1.000
2020/01/31 04:40:47.3	91.330	0.530	-0.740	1.020
2020/01/31 04:40:47.4	91.330	0.550	-0.780	1.040
2020/01/31 04:40:47.5	91.320	0.560	-0.820	1.050
2020/01/31 04:40:47.6	91.310	0.570	-0.860	1.070
2020/01/31 04:40:47.7	91.300	0.580	-0.880	1.090
2020/01/31 04:40:47.8	91.290	0.580	-0.900	1.110
2020/01/31 04:40:47.9	91.280	0.580	-0.910	1.130
2020/01/31 04:40:48.0	91.270	0.570	-0.910	1.140
2020/01/31 04:40:48.1	91.260	0.560	-0.910	1.160
2020/01/31 04:40:48.2	91.260	0.540	-0.890	1.180
2020/01/31 04:40:48.3	91.250	0.520	-0.860	1.190
2020/01/31 04:40:48.4	91.240	0.490	-0.820	1.200
2020/01/31 04:40:48.5	91.230	0.460	-0.780	1.210
2020/01/31 04:40:48.6	91.230	0.420	-0.720	1.220
2020/01/31 04:40:48.7	91.220	0.380	-0.650	1.220
2020/01/31 04:40:48.8	91.210	0.330	-0.580	1.230
2020/01/31 04:40:48.9	91.200	0.280	-0.490	1.230
2020/01/31 04:40:49.0	91.190	0.220	-0.400	1.230
2020/01/31 04:40:49.1	91.180	0.160	-0.310	1.230
2020/01/31 04:40:49.2	91.170	0.090	-0.200	1.230
2020/01/31 04:40:49.3	91.160	0.030	-0.090	1.230
2020/01/31 04:40:49.4	91.150	-0.040	0.020	1.230
2020/01/31 04:40:49.5	91.140	-0.110	0.130	1.220
2020/01/31 04:40:49.6	91.140	-0.190	0.250	1.220
2020/01/31 04:40:49.7	91.130	-0.260	0.370	1.210
2020/01/31 04:40:49.8	91.120	-0.330	0.480	1.200
2020/01/31 04:40:49.9	91.110	-0.410	0.590	1.190
2020/01/31 04:40:50.0	91.100	-0.480	0.700	1.190
2020/01/31 04:40:50.1	91.090	-0.550	0.800	1.180
2020/01/31 04:40:50.2	91.090	-0.620	0.890	1.170
2020/01/31 04:40:50.3	91.080	-0.680	0.980	1.160
2020/01/31 04:40:50.4	91.070	-0.740	1.050	1.140
2020/01/31 04:40:50.5	91.070	-0.800	1.110	1.130
2020/01/31 04:40:50.6	91.060	-0.850	1.170	1.120
2020/01/31 04:40:50.7	91.060	-0.890	1.210	1.100
2020/01/31 04:40:50.8	91.050	-0.930	1.230	1.090
2020/01/31 04:40:50.9	91.050	-0.970	1.240	1.070
2020/01/31 04:40:51.0	91.050	-0.990	1.230	1.040
2020/01/31 04:40:51.1	91.050	-1.010	1.210	1.020
2020/01/31 04:40:51.2	91.060	-1.020	1.180	0.990
2020/01/31 04:40:51.3	91.060	-1.020	1.130	0.960
2020/01/31 04:40:51.4	91.070	-1.010	1.060	0.930
2020/01/31 04:40:51.5	91.080	-1.000	0.980	0.890
2020/01/31 04:40:51.6	91.090	-0.980	0.880	0.850
2020/01/31 04:40:51.7	91.100	-0.940	0.780	0.810
2020/01/31 04:40:51.8	91.120	-0.900	0.650	0.760
2020/01/31 04:40:51.9	91.140	-0.860	0.520	0.720
2020/01/31 04:40:52.0	91.160	-0.800	0.380	0.670
2020/01/31 04:40:52.1	91.190	-0.740	0.230	0.630
2020/01/31 04:40:52.2	91.220	-0.670	0.070	0.580
2020/01/31 04:40:52.3	91.240	-0.600	-0.080	0.530
2020/01/31 04:40:52.4	91.270	-0.520	-0.250	0.490
2020/01/31 04:40:52.5	91.310	-0.440	-0.410	0.450
2020/01/31 04:40:52.6	91.340	-0.360	-0.570	0.410
2020/01/31 04:40:52.7	91.370	-0.280	-0.730	0.370
2020/01/31 04:40:52.8	91.400	-0.190	-0.880	0.340
2020/01/31 04:40:52.9	91.430	-0.100	-1.020	0.310
2020/01/31 04:40:53.0	91.460	-0.020	-1.160	0.290
2020/01/31 04:40:53.1	91.490	0.070	-1.280	0.260
2020/01/31 04:40:53.2	91.510	0.150	-1.400	0.250
2020/01/31 04:40:53.3	91.530	0.220	-1.490	0.240
2020/01/31 04:40:53.4	91.550	0.300	-1.580	0.240
2020/01/31 04:40:53.5	91.560	0.370	-1.650	0.240
2020/01/31 04:40:53.6	91.560	0.430	-1.700	0.240
2020/01/31 04:40:53.7	91.560	0.480	-1.730	0.240
2020/01/31 04:40:53.8	91.560	0.530	-1.750	0.250
2020/01/31 04:40:53.9	91.550	0.580	-1.740	0.260
2020/01/31 04:40:54.0	91.530	0.610	-1.720	0.280
2020/01/31 04:40:54.1	91.510	0.640	-1.680	0.300
2020/01/31 04:40:54.2	91.480	0.660	-1.630	0.310
2020/01/31 04:40:54.3	91.450	0.670	-1.560	0.330
2020/01/31 04:40:54.4	91.410	0.670	-1.470	0.350
2020/01/31 04:40:54.5	91.370	0.670	-1.360	0.370
2020/01/31 04:40:54.6	91.330	0.650	-1.240	0.390
2020/01/31 04:40:54.7	91.280	0.630	-1.110	0.410
2020/01/31 04:40:54.8	91.230	0.600	-0.970	0.430
2020/01/31 04:40:54.9	91.170	0.570	-0.820	0.460
2020/01/31 04:40:55.0	91.120	0.530	-0.670	0.480
2020/01/31 04:40:55.1	91.060	0.480	-0.510	0.500
2020/01/31 04:40:55.2	91.000	0.430	-0.340	0.530
2020/01/31 04:40:55.3	90.940	0.380	-0.180	0.550
2020/01/31 04:40:55.4	90.880	0.320	-0.020	0.570
2020/01/31 04:40:55.5	90.820	0.260	0.130	0.600
2020/01/31 04:40:55.6	90.760	0.200	0.280	0.620
2020/01/31 04:40:55.7	90.710	0.140	0.430	0.640
2020/01/31 04:40:55.8	90.650	0.080	0.560	0.650
2020/01/31 04:40:55.9	90.610	0.020	0.680	0.670
2020/01/31 04:40:56.0	90.560	-0.040	0.790	0.680
2020/01/31 04:40:56.1	90.520	-0.090	0.880	0.700
2020/01/31 04:40:56.2	90.480	-0.150	0.960	0.700
2020/01/31 04:40:56.3	90.450	-0.190	1.020	0.710
2020/01/31 04:40:56.4	90.420	-0.230	1.050	0.710
2020/01/31 04:40:56.5	90.400	-0.270	1.070	0.710
2020/01/31 04:40:56.6	90.390	-0.300	1.070	0.700
2020/01/31 04:40:56.7	90.380	-0.320	1.050	0.690
2020/01/31 04:40:56.8	90.370	-0.330	1.010	0.680
2020/01/31 04:40:56.9	90.380	-0.340	0.950	0.660
2020/01/31 04:40:57.0	90.380	-0.330	0.870	0.640
2020/01/31 04:40:57.1	90.390	-0.320	0.780	0.610
2020/01/31 04:40:57.2	90.410	-0.300	0.670	0.590
2020/01/31 04:40:57.3	90.430	-0.280	0.540	0.550
2020/01/31 04:40:57.4	90.460	-0.250	0.410	0.520
2020/01/31 04:40:57.5	90.490	-0.210	0.260	0.480
2020/01/31 04:40:57.6	90.520	-0.170	0.110	0.440
2020/01/31 04:40:57.7	90.550	-0.120	-0.050	0.400
2020/01/31 04:40:57.8	90.580	-0.070	-0.200	0.360
2020/01/31 04:40:57.9	90.610	-0.020	-0.360	0.330
2020/01/31 04:40:58.0	90.640	0.040	-0.510	0.290
2020/01/31 04:40:58.1	90.670	0.090	-0.650	0.260
2020/01/31 04:40:58.2	90.690	0.150	-0.800	0.230
2020/01/31 04:40:58.3	90.710	0.200	-0.920	0.200
2020/01/31 04:40:58.4	90.730	0.250	-1.030	0.180
2020/01/31 04:40:58.5	90.740	0.290	-1.130	0.150
2020/01/31 04:40:58.6	90.760	0.330	-1.210	0.130
2020/01/31 04:40:58.7	90.760	0.370	-1.270	0.120
2020/01/31 04:40:58.8	90.770	0.400	-1.310	0.100
2020/01/31 04:40:58.9	90.770	0.430	-1.340	0.100
2020/01/31 04:40:59.0	90.770	0.450	-1.350	0.090
2020/01/31 04:40:59.1	90.770	0.460	-1.340	0.090
2020/01/31 04:40:59.2	90.760	0.470	-1.310	0.100
2020/01/31 04:40:59.3	90.750	0.460	-1.260	0.110
2020/01/31 04:40:59.4	90.730	0.460	-1.200	0.130
2020/01/31 04:40:59.5	90.710	0.440	-1.130	0.150
2020/01/31 04:40:59.6	90.690	0.420	-1.040	0.180
2020/01/31 04:40:59.7	90.660	0.390	-0.940	0.220
2020/01/31 04:40:59.8	90.630	0.360	-0.830	0.270
2020/01/31 04:40:59.9	90.590	0.320	-0.710	0.310
2020/01/31 04:41:00.0	90.560	0.270	-0.580	0.370
2020/01/31 04:41:00.1	90.520	0.220	-0.450	0.430
2020/01/31 04:41:00.2	90.480	0.170	-0.310	0.500
2020/01/31 04:41:00.3	90.430	0.110	-0.180	0.560
2020/01/31 04:41:00.4	90.390	0.050	-0.050	0.630
2020/01/31 04:41:00.5	90.350	-0.020	0.080	0.700
2020/01/31 04:41:00.6	90.310	-0.080	0.210	0.770
2020/01/31 04:41:00.7	90.270	-0.140	0.320	0.840
2020/01/31 04:41:00.8	90.240	-0.200	0.430	0.910
2020/01/31 04:41:00.9	90.210	-0.260	0.530	0.980
2020/01/31 04:41:01.0	90.180	-0.320	0.620	1.040
2020/01/31 04:41:01.1	90.150	-0.370	0.690	1.100
2020/01/31 04:41:01.2	90.120	-0.420	0.760	1.150
2020/01/31 04:41:01.3	90.100	-0.470	0.810	1.200
2020/01/31 04:41:01.4	90.090	-0.510	0.840	1.240
2020/01/31 04:41:01.5	90.080	-0.540	0.850	1.270
2020/01/31 04:41:01.6	90.070	-0.570	0.860	1.300
2020/01/31 04:41:01.7	90.060	-0.590	0.850	1.320
2020/01/31 04:41:01.8	90.060	-0.600	0.830	1.330
2020/01/31 04:41:01.9	90.060	-0.610	0.800	1.330
2020/01/31 04:41:02.0	90.060	-0.620	0.760	1.330
2020/01/31 04:41:02.1	90.070	-0.620	0.710	1.320
2020/01/31 04:41:02.2	90.080	-0.610	0.650	1.310
2020/01/31 04:41:02.3	90.080	-0.600	0.590	1.290
2020/01/31 04:41:02.4	90.090	-0.580	0.520	1.260
2020/01/31 04:41:02.5	90.100	-0.570	0.450	1.230
2020/01/31 04:41:02.6	90.100	-0.540	0.380	1.190
2020/01/31 04:41:02.7	90.110	-0.520	0.300	1.150
2020/01/31 04:41:02.8	90.120	-0.490	0.220	1.110
2020/01/31 04:41:02.9	90.120	-0.460	0.150	1.060
2020/01/31 04:41:03.0	90.130	-0.420	0.070	1.000
2020/01/31 04:41:03.1	90.130	-0.390	0.000	0.950
2020/01/31 04:41:03.2	90.130	-0.350	-0.070	0.900
2020/01/31 04:41:03.3	90.130	-0.310	-0.140	0.850
2020/01/31 04:41:03.4	90.140	-0.270	-0.200	0.800
2020/01/31 04:41:03.5	90.130	-0.230	-0.260	0.750
2020/01/31 04:41:03.6	90.130	-0.200	-0.320	0.700
2020/01/31 04:41:03.7	90.130	-0.160	-0.370	0.650
2020/01/31 04:41:03.8	90.130	-0.120	-0.420	0.610
2020/01/31 04:41:03.9	90.120	-0.080	-0.470	0.570
2020/01/31 04:41:04.0	90.110	-0.040	-0.510	0.540
2020/01/31 04:41:04.1	90.100	0.000	-0.550	0.520
2020/01/31 04:41:04.2	90.090	0.040	-0.590	0.500
2020/01/31 04:41:04.3	90.080	0.080	-0.620	0.480
2020/01/31 04:41:04.4	90.070	0.110	-0.650	0.470
2020/01/31 04:41:04.5	90.050	0.150	-0.680	0.460
2020/01/31 04:41:04.6	90.040	0.180	-0.700	0.460
2020/01/31 04:41:04.7	90.020	0.210	-0.720	0.470
2020/01/31 04:41:04.8	90.010	0.240	-0.730	0.480
2020/01/31 04:41:04.9	89.990	0.270	-0.750	0.480
2020/01/31 04:41:05.0	89.980	0.300	-0.760	0.500
2020/01/31 04:41:05.1	89.960	0.330	-0.770	0.510
2020/01/31 04:41:05.2	89.950	0.350	-0.770	0.530
2020/01/31 04:41:05.3	89.930	0.370	-0.780	0.540
2020/01/31 04:41:05.4	89.910	0.400	-0.780	0.550
2020/01/31 04:41:05.5	89.900	0.420	-0.780	0.570
2020/01/31 04:41:05.6	89.890	0.440	-0.790	0.580
2020/01/31 04:41:05.7	89.870	0.460	-0.790	0.590
2020/01/31 04:41:05.8	89.860	0.470	-0.790	0.600
2020/01/31 04:41:05.9	89.850	0.490	-0.790	0.620
2020/01/31 04:41:06.0	89.840	0.500	-0.790	0.630
2020/01/31 04:41:06.1	89.830	0.520	-0.790	0.630
2020/01/31 04:41:06.2	89.820	0.530	-0.800	0.640
2020/01/31 04:41:06.3	89.820	0.540	-0.800	0.650
2020/01/31 04:41:06.4	89.810	0.550	-0.800	0.650
2020/01/31 04:41:06.5	89.810	0.560	-0.800	0.660
2020/01/31 04:41:06.6	89.810	0.570	-0.800	0.660
2020/01/31 04:41:06.7	89.810	0.580	-0.800	0.660
2020/01/31 04:41:06.8	89.810	0.590	-0.800	0.670
2020/01/31 04:41:06.9	89.810	0.590	-0.800	0.670
2020/01/31 04:41:07.0	89.810	0.600	-0.790	0.670
2020/01/31 04:41:07.1	89.820	0.600	-0.790	0.670
2020/01/31 04:41:07.2	89.820	0.600	-0.770	0.670
2020/01/31 04:41:07.3	89.830	0.600	-0.760	0.660
2020/01/31 04:41:07.4	89.840	0.600	-0.750	0.660
2020/01/31 04:41:07.5	89.850	0.600	-0.730	0.650
2020/01/31 04:41:07.6	89.870	0.590	-0.710	0.650
2020/01/31 04:41:07.7	89.890	0.590	-0.680	0.640
2020/01/31 04:41:07.8	89.910	0.580	-0.650	0.640
2020/01/31 04:41:07.9	89.930	0.560	-0.620	0.630
2020/01/31 04:41:08.0	89.950	0.550	-0.580	0.620
2020/01/31 04:41:08.1	89.980	0.530	-0.530	0.620
2020/01/31 04:41:08.2	90.010	0.510	-0.480	0.610
2020/01/31 04:41:08.3	90.040	0.480	-0.430	0.610
2020/01/31 04:41:08.4	90.070	0.450	-0.370	0.610
2020/01/31 04:41:08.5	90.110	0.420	-0.300	0.610
2020/01/31 04:41:08.6	90.140	0.380	-0.230	0.610
2020/01/31 04:41:08.7	90.180	0.340	-0.150	0.610
2020/01/31 04:41:08.8	90.210	0.300	-0.070	0.620
2020/01/31 04:41:08.9	90.250	0.250	0.020	0.630
2020/01/31 04:41:09.0	90.290	0.200	0.100	0.630
2020/01/31 04:41:09.1	90.320	0.140	0.190	0.650
2020/01/31 04:41:09.2	90.360	0.080	0.290	0.660
2020/01/31 04:41:09.3	90.390	0.020	0.380	0.680
2020/01/31 04:41:09.4	90.430	-0.040	0.470	0.700
2020/01/31 04:41:09.5	90.460	-0.110	0.560	0.720
2020/01/31 04:41:09.6	90.490	-0.180	0.650	0.740
2020/01/31 04:41:09.7	90.520	-0.240	0.730	0.760
2020/01/31 04:41:09.8	90.550	-0.310	0.810	0.780
2020/01/31 04:41:09.9	90.580	-0.380	0.880	0.800
2020/01/31 04:41:10.0	90.610	-0.450	0.950	0.820
2020/01/31 04:41:10.1	90.630	-0.520	1.010	0.850
2020/01/31 04:41:10.2	90.650	-0.590	1.060	0.870
2020/01/31 04:41:10.3	90.680	-0.650	1.100	0.890
2020/01/31 04:41:10.4	90.700	-0.710	1.140	0.920
2020/01/31 04:41:10.5	90.710	-0.770	1.160	0.940
2020/01/31 04:41:10.6	90.730	-0.830	1.170	0.960
2020/01/31 04:41:10.7	90.740	-0.880	1.170	0.980
2020/01/31 04:41:10.8	90.760	-0.920	1.160	1.000
2020/01/31 04:41:10.9	90.770	-0.960	1.140	1.020
2020/01/31 04:41:11.0	90.780	-1.000	1.100	1.040
2020/01/31 04:41:11.1	90.780	-1.030	1.050	1.060
2020/01/31 04:41:11.2	90.790	-1.050	1.000	1.070
2020/01/31 04:41:11.3	90.800	-1.060	0.930	1.090
2020/01/31 04:41:11.4	90.800	-1.070	0.850	1.100
2020/01/31 04:41:11.5	90.810	-1.070	0.760	1.120
2020/01/31 04:41:11.6	90.810	-1.070	0.670	1.130
2020/01/31 04:41:11.7	90.810	-1.060	0.560	1.140
2020/01/31 04:41:11.8	90.810	-1.040	0.460	1.150
2020/01/31 04:41:11.9	90.810	-1.020	0.340	1.150
2020/01/31 04:41:12.0	90.820	-0.990	0.220	1.150
2020/01/31 04:41:12.1	90.820	-0.950	0.100	1.150
2020/01/31 04:41:12.2	90.830	-0.910	-0.030	1.150
2020/01/31 04:41:12.3	90.830	-0.860	-0.150	1.140
2020/01/31 04:41:12.4	90.840	-0.810	-0.270	1.130
2020/01/31 04:41:12.5	90.840	-0.750	-0.390	1.120
2020/01/31 04:41:12.6	90.850	-0.700	-0.510	1.100
2020/01/31 04:41:12.7	90.860	-0.630	-0.630	1.090
2020/01/31 04:41:12.8	90.880	-0.570	-0.740	1.070
2020/01/31 04:41:12.9	90.890	-0.500	-0.850	1.050
2020/01/31 04:41:13.0	90.900	-0.430	-0.950	1.030
2020/01/31 04:41:13.1	90.920	-0.360	-1.040	1.000
2020/01/31 04:41:13.2	90.930	-0.290	-1.120	0.980
2020/01/31 04:41:13.3	90.950	-0.220	-1.200	0.960
2020/01/31 04:41:13.4	90.970	-0.150	-1.270	0.930
2020/01/31 04:41:13.5	90.980	-0.080	-1.330	0.910
2020/01/31 04:41:13.6	91.000	-0.010	-1.380	0.890
2020/01/31 04:41:13.7	91.020	0.050	-1.420	0.860
2020/01/31 04:41:13.8	91.040	0.120	-1.450	0.840
2020/01/31 04:41:13.9	91.060	0.180	-1.470	0.820
2020/01/31 04:41:14.0	91.070	0.240	-1.480	0.790
2020/01/31 04:41:14.1	91.090	0.290	-1.490	0.770
2020/01/31 04:41:14.2	91.110	0.340	-1.480	0.750
2020/01/31 04:41:14.3	91.130	0.390	-1.460	0.720
2020/01/31 04:41:14.4	91.150	0.430	-1.430	0.700
2020/01/31 04:41:14.5	91.170	0.470	-1.390	0.670
2020/01/31 04:41:14.6	91.190	0.510	-1.350	0.640
2020/01/31 04:41:14.7	91.210	0.540	-1.300	0.620
2020/01/31 04:41:14.8	91.230	0.560	-1.230	0.590
2020/01/31 04:41:14.9	91.250	0.580	-1.170	0.560
2020/01/31 04:41:15.0	91.270	0.590	-1.090	0.530
2020/01/31 04:41:15.1	91.290	0.600	-1.010	0.510
2020/01/31 04:41:15.2	91.310	0.610	-0.920	0.480
2020/01/31 04:41:15.3	91.330	0.610	-0.830	0.450
2020/01/31 04:41:15.4	91.350	0.610	-0.740	0.420
2020/01/31 04:41:15.5	91.370	0.600	-0.650	0.390
2020/01/31 04:41:15.6	91.390	0.580	-0.550	0.360
2020/01/31 04:41:15.7	91.410	0.570	-0.460	0.330
2020/01/31 04:41:15.8	91.430	0.550	-0.360	0.300
2020/01/31 04:41:15.9	91.450	0.530	-0.270	0.280
2020/01/31 04:41:16.0	91.470	0.500	-0.170	0.250
2020/01/31 04:41:16.1	91.480	0.470	-0.080	0.230
2020/01/31 04:41:16.2	91.490	0.440	0.000	0.210
2020/01/31 04:41:16.3	91.510	0.410	0.090	0.190
2020/01/31 04:41:16.4	91.520	0.380	0.160	0.170
2020/01/31 04:41:16.5	91.530	0.340	0.230	0.150
2020/01/31 04:41:16.6	91.540	0.310	0.300	0.140
2020/01/31 04:41:16.7	91.540	0.270	0.350	0.120
2020/01/31 04:41:16.8	91.550	0.240	0.400	0.110
2020/01/31 04:41:16.9	91.550	0.200	0.450	0.100
2020/01/31 04:41:17.0	91.560	0.170	0.480	0.090
2020/01/31 04:41:17.1	91.560	0.140	0.510	0.090
2020/01/31 04:41:17.2	91.560	0.110	0.530	0.080
2020/01/31 04:41:17.3	91.560	0.090	0.540	0.080
2020/01/31 04:41:17.4	91.560	0.060	0.540	0.080
2020/01/31 04:41:17.5	91.560	0.040	0.540	0.080
2020/01/31 04:41:17.6	91.550	0.020	0.530	0.080
2020/01/31 04:41:17.7	91.550	0.010	0.510	0.080
2020/01/31 04:41:17.8	91.540	0.000	0.480	0.090
2020/01/31 04:41:17.9	91.530	-0.010	0.440	0.100
2020/01/31 04:41:18.0	91.520	-0.010	0.400	0.110
2020/01/31 04:41:18.1	91.520	-0.010	0.350	0.120
2020/01/31 04:41:18.2	91.500	-0.000	0.290	0.130
2020/01/31 04:41:18.3	91.490	0.010	0.230	0.140
2020/01/31 04:41:18.4	91.490	0.030	0.160	0.150
2020/01/31 04:41:18.5	91.480	0.040	0.090	0.170
2020/01/31 04:41:18.6	91.470	0.070	0.010	0.180
2020/01/31 04:41:18.7	91.460	0.100	-0.070	0.200
2020/01/31 04:41:18.8	91.460	0.130	-0.160	0.210
2020/01/31 04:41:18.9	91.460	0.160	-0.240	0.220
2020/01/31 04:41:19.0	91.460	0.190	-0.330	0.230
2020/01/31 04:41:19.1	91.460	0.230	-0.420	0.240
2020/01/31 04:41:19.2	91.470	0.270	-0.500	0.240
2020/01/31 04:41:19.3	91.480	0.310	-0.590	0.250
2020/01/31 04:41:19.4	91.500	0.350	-0.660	0.240
2020/01/31 04:41:19.5	91.520	0.390	-0.740	0.240
2020/01/31 04:41:19.6	91.540	0.430	-0.810	0.240
2020/01/31 04:41:19.7	91.570	0.470	-0.870	0.230
2020/01/31 04:41:19.8	91.600	0.510	-0.920	0.220
2020/01/31 04:41:19.9	91.630	0.540	-0.960	0.210
2020/01/31 04:41:20.0	91.670	0.570	-1.000	0.210
2020/01/31 04:41:20.1	91.710	0.600	-1.020	0.200
2020/01/31 04:41:20.2	91.750	0.620	-1.040	0.200
2020/01/31 04:41:20.3	91.790	0.640	-1.040	0.190
2020/01/31 04:41:20.4	91.840	0.650	-1.030	0.190
2020/01/31 04:41:20.5	91.880	0.660	-1.010	0.190
2020/01/31 04:41:20.6	91.920	0.660	-0.980	0.190
2020/01/31 04:41:20.7	91.970	0.660	-0.940	0.190
2020/01/31 04:41:20.8	92.010	0.650	-0.880	0.200
2020/01/31 04:41:20.9	92.060	0.640	-0.820	0.210
2020/01/31 04:41:21.0	92.100	0.620	-0.750	0.220
2020/01/31 04:41:21.1	92.150	0.600	-0.670	0.240
2020/01/31 04:41:21.2	92.190	0.570	-0.590	0.260
2020/01/31 04:41:21.3	92.230	0.530	-0.490	0.280
2020/01/31 04:41:21.4	92.270	0.490	-0.400	0.300
2020/01/31 04:41:21.5	92.310	0.450	-0.290	0.330
2020/01/31 04:41:21.6	92.350	0.400	-0.190	0.360
2020/01/31 04:41:21.7	92.380	0.340	-0.080	0.390
2020/01/31 04:41:21.8	92.410	0.290	0.030	0.420
2020/01/31 04:41:21.9	92.440	0.230	0.130	0.460
2020/01/31 04:41:22.0	92.470	0.170	0.240	0.500
2020/01/31 04:41:22.1	92.490	0.100	0.340	0.530
2020/01/31 04:41:22.2	92.510	0.040	0.430	0.570
2020/01/31 04:41:22.3	92.530	-0.030	0.520	0.610
2020/01/31 04:41:22.4	92.550	-0.090	0.610	0.640
2020/01/31 04:41:22.5	92.570	-0.160	0.690	0.670
2020/01/31 04:41:22.6	92.580	-0.220	0.760	0.710
2020/01/31 04:41:22.7	92.600	-0.290	0.820	0.740
2020/01/31 04:41:22.8	92.610	-0.350	0.870	0.770
2020/01/31 04:41:22.9	92.620	-0.410	0.920	0.790
2020/01/31 04:41:23.0	92.630	-0.470	0.950	0.820
2020/01/31 04:41:23.1	92.630	-0.530	0.980	0.850
2020/01/31 04:41:23.2	92.640	-0.580	0.990	0.880
2020/01/31 04:41:23.3	92.640	-0.630	1.000	0.900
2020/01/31 04:41:23.4	92.640	-0.670	1.000	0.930
2020/01/31 04:41:23.5	92.640	-0.720	0.990	0.960
2020/01/31 04:41:23.6	92.630	-0.760	0.970	0.980
2020/01/31 04:41:23.7	92.630	-0.790	0.940	1.010
2020/01/31 04:41:23.8	92.620	-0.820	0.900	1.030
2020/01/31 04:41:23.9	92.610	-0.840	0.860	1.060
2020/01/31 04:41:24.0	92.600	-0.860	0.800	1.080
2020/01/31 04:41:24.1	92.590	-0.880	0.740	1.100
2020/01/31 04:41:24.2	92.580	-0.890	0.660	1.130
2020/01/31 04:41:24.3	92.570	-0.890	0.590	1.150
2020/01/31 04:41:24.4	92.570	-0.890	0.500	1.160
2020/01/31 04:41:24.5	92.560	-0.880	0.400	1.180
2020/01/31 04:41:24.6	92.550	-0.870	0.300	1.190
2020/01/31 04:41:24.7	92.540	-0.850	0.200	1.190
2020/01/31 04:41:24.8	92.540	-0.820	0.090	1.200
2020/01/31 04:41:24.9	92.530	-0.800	-0.020	1.190
2020/01/31 04:41:25.0	92.530	-0.760	-0.140	1.190
2020/01/31 04:41:25.1	92.530	-0.730	-0.260	1.180
2020/01/31 04:41:25.2	92.540	-0.690	-0.370	1.160
2020/01/31 04:41:25.3	92.540	-0.640	-0.490	1.140
2020/01/31 04:41:25.4	92.540	-0.590	-0.600	1.120
2020/01/31 04:41:25.5	92.550	-0.540	-0.710	1.090
2020/01/31 04:41:25.6	92.560	-0.490	-0.820	1.060
2020/01/31 04:41:25.7	92.560	-0.440	-0.920	1.030
2020/01/31 04:41:25.8	92.570	-0.390	-1.020	1.000
2020/01/31 04:41:25.9	92.580	-0.330	-1.110	0.970
2020/01/31 04:41:26.0	92.590	-0.280	-1.180	0.940
2020/01/31 04:41:26.1	92.600	-0.220	-1.250	0.910
2020/01/31 04:41:26.2	92.610	-0.170	-1.310	0.880
2020/01/31 04:41:26.3	92.620	-0.120	-1.360	0.850
2020/01/31 04:41:26.4	92.630	-0.080	-1.390	0.820
2020/01/31 04:41:26.5	92.630	-0.030	-1.420	0.800
2020/01/31 04:41:26.6	92.640	0.010	-1.420	0.770
2020/01/31 04:41:26.7	92.640	0.050	-1.420	0.750
2020/01/31 04:41:26.8	92.650	0.080	-1.410	0.740
2020/01/31 04:41:26.9	92.650	0.110	-1.380	0.720
2020/01/31 04:41:27.0	92.650	0.130	-1.340	0.700
2020/01/31 04:41:27.1	92.650	0.150	-1.290	0.690
2020/01/31 04:41:27.2	92.650	0.170	-1.230	0.680
2020/01/31 04:41:27.3	92.650	0.180	-1.160	0.670
2020/01/31 04:41:27.4	92.650	0.180	-1.090	0.660
2020/01/31 04:41:27.5	92.640	0.180	-1.000	0.650
2020/01/31 04:41:27.6	92.640	0.180	-0.920	0.640
2020/01/31 04:41:27.7	92.630	0.180	-0.820	0.630
2020/01/31 04:41:27.8	92.630	0.170	-0.730	0.620
2020/01/31 04:41:27.9	92.620	0.150	-0.630	0.610
2020/01/31 04:41:28.0	92.610	0.140	-0.530	0.590
2020/01/31 04:41:28.1	92.600	0.120	-0.430	0.580
2020/01/31 04:41:28.2	92.590	0.100	-0.330	0.570
2020/01/31 04:41:28.3	92.580	0.080	-0.240	0.560
2020/01/31 04:41:28.4	92.570	0.060	-0.150	0.540
2020/01/31 04:41:28.5	92.560	0.040	-0.070	0.530
2020/01/31 04:41:28.6	92.550	0.020	0.010	0.510
2020/01/31 04:41:28.7	92.540	0.000	0.080	0.490
2020/01/31 04:41:28.8	92.530	-0.010	0.140	0.470
2020/01/31 04:41:28.9	92.520	-0.030	0.190	0.460
2020/01/31 04:41:29.0	92.510	-0.040	0.230	0.440
2020/01/31 04:41:29.1	92.500	-0.050	0.260	0.420
2020/01/31 04:41:29.2	92.490	-0.050	0.280	0.400
2020/01/31 04:41:29.3	92.490	-0.060	0.290	0.380
2020/01/31 04:41:29.4	92.480	-0.050	0.290	0.360
2020/01/31 04:41:29.5	92.480	-0.050	0.280	0.350
2020/01/31 04:41:29.6	92.470	-0.040	0.270	0.330
2020/01/31 04:41:29.7	92.470	-0.020	0.240	0.310
2020/01/31 04:41:29.8	92.470	-0.000	0.210	0.290
2020/01/31 04:41:29.9	92.470	0.020	0.170	0.270
2020/01/31 04:41:30.0	92.480	0.050	0.120	0.250
2020/01/31 04:41:30.1	92.480	0.080	0.070	0.240
2020/01/31 04:41:30.2	92.490	0.110	0.020	0.220
2020/01/31 04:41:30.3	92.500	0.150	-0.040	0.210
2020/01/31 04:41:30.4	92.510	0.180	-0.110	0.190
2020/01/31 04:41:30.5	92.520	0.220	-0.170	0.180
2020/01/31 04:41:30.6	92.530	0.260	-0.230	0.160
2020/01/31 04:41:30.7	92.540	0.300	-0.290	0.150
2020/01/31 04:41:30.8	92.540	0.350	-0.350	0.140
2020/01/31 04:41:30.9	92.550	0.390	-0.400	0.130
2020/01/31 04:41:31.0	92.560	0.420	-0.450	0.110
2020/01/31 04:41:31.1	92.570	0.460	-0.500	0.100
2020/01/31 04:41:31.2	92.580	0.500	-0.540	0.090
2020/01/31 04:41:31.3	92.580	0.530	-0.570	0.080
2020/01/31 04:41:31.4	92.590	0.560	-0.600	0.080
2020/01/31 04:41:31.5	92.600	0.580	-0.620	0.070
2020/01/31 04:41:31.6	92.600	0.610	-0.630	0.070
2020/01/31 04:41:31.7	92.600	0.620	-0.630	0.060
2020/01/31 04:41:31.8	92.600	0.640	-0.620	0.060
2020/01/31 04:41:31.9	92.600	0.650	-0.610	0.070
2020/01/31 04:41:32.0	92.600	0.650	-0.590	0.080
2020/01/31 04:41:32.1	92.600	0.650	-0.560	0.090
2020/01/31 04:41:32.2	92.600	0.640	-0.520	0.110
2020/01/31 04:41:32.3	92.590	0.630	-0.480	0.120
2020/01/31 04:41:32.4	92.580	0.620	-0.430	0.150
2020/01/31 04:41:32.5	92.580	0.600	-0.380	0.180
2020/01/31 04:41:32.6	92.570	0.580	-0.320	0.210
2020/01/31 04:41:32.7	92.560	0.550	-0.260	0.240
2020/01/31 04:41:32.8	92.550	0.520	-0.190	0.280
2020/01/31 04:41:32.9	92.540	0.490	-0.120	0.320
2020/01/31 04:41:33.0	92.530	0.450	-0.050	0.370
2020/01/31 04:41:33.1	92.520	0.410	0.010	0.410
2020/01/31 04:41:33.2	92.510	0.370	0.080	0.460
2020/01/31 04:41:33.3	92.500	0.330	0.150	0.500
2020/01/31 04:41:33.4	92.490	0.280	0.210	0.550
2020/01/31 04:41:33.5	92.480	0.240	0.270	0.600
2020/01/31 04:41:33.6	92.470	0.190	0.320	0.640
2020/01/31 04:41:33.7	92.460	0.150	0.380	0.680
2020/01/31 04:41:33.8	92.450	0.110	0.420	0.720
2020/01/31 04:41:33.9	92.450	0.070	0.460	0.760
2020/01/31 04:41:34.0	92.440	0.030	0.490	0.790
2020/01/31 04:41:34.1	92.440	-0.010	0.510	0.820
2020/01/31 04:41:34.2	92.440	-0.040	0.530	0.850
2020/01/31 04:41:34.3	92.440	-0.070	0.530	0.870
2020/01/31 04:41:34.4	92.440	-0.100	0.530	0.880
2020/01/31 04:41:34.5	92.440	-0.120	0.520	0.890
2020/01/31 04:41:34.6	92.440	-0.140	0.500	0.900
2020/01/31 04:41:34.7	92.440	-0.160	0.470	0.900
2020/01/31 04:41:34.8	92.440	-0.170	0.430	0.900
2020/01/31 04:41:34.9	92.450	-0.180	0.390	0.900
2020/01/31 04:41:35.0	92.450	-0.180	0.340	0.890
2020/01/31 04:41:35.1	92.460	-0.180	0.290	0.880
2020/01/31 04:41:35.2	92.460	-0.180	0.220	0.860
2020/01/31 04:41:35.3	92.470	-0.170	0.160	0.850
2020/01/31 04:41:35.4	92.480	-0.170	0.090	0.830
2020/01/31 04:41:35.5	92.490	-0.160	0.020	0.810
2020/01/31 04:41:35.6	92.490	-0.140	-0.050	0.790
2020/01/31 04:41:35.7	92.500	-0.130	-0.120	0.780
2020/01/31 04:41:35.8	92.510	-0.110	-0.190	0.760
2020/01/31 04:41:35.9	92.520	-0.100	-0.260	0.740
2020/01/31 04:41:36.0	92.540	-0.080	-0.330	0.730
2020/01/31 04:41:36.1	92.550	-0.060	-0.390	0.720
2020/01/31 04:41:36.2	92.570	-0.040	-0.450	0.710
2020/01/31 04:41:36.3	92.580	-0.020	-0.510	0.700
2020/01/31 04:41:36.4	92.590	-0.000	-0.560	0.700
2020/01/31 04:41:36.5	92.610	0.020	-0.610	0.700
2020/01/31 04:41:36.6	92.620	0.030	-0.650	0.700
2020/01/31 04:41:36.7	92.630	0.050	-0.680	0.710
2020/01/31 04:41:36.8	92.640	0.070	-0.710	0.720
2020/01/31 04:41:36.9	92.650	0.080	-0.730	0.730
2020/01/31 04:41:37.0	92.660	0.090	-0.750	0.750
2020/01/31 04:41:37.1	92.670	0.100	-0.750	0.770
2020/01/31 04:41:37.2	92.680	0.100	-0.750	0.790
2020/01/31 04:41:37.3	92.690	0.100	-0.740	0.810
2020/01/31 04:41:37.4	92.700	0.110	-0.730	0.840
2020/01/31 04:41:37.5	92.710	0.100	-0.710	0.870
2020/01/31 04:41:37.6	92.720	0.100	-0.680	0.900
2020/01/31 04:41:37.7	92.720	0.090	-0.640	0.940
2020/01/31 04:41:37.8	92.730	0.080	-0.600	0.970
2020/01/31 04:41:37.9	92.740	0.070	-0.560	1.010
2020/01/31 04:41:38.0	92.740	0.050	-0.510	1.040
2020/01/31 04:41:38.1	92.750	0.030	-0.460	1.070
2020/01/31 04:41:38.2	92.760	0.010	-0.410	1.110
2020/01/31 04:41:38.3	92.760	-0.010	-0.360	1.140
2020/01/31 04:41:38.4	92.770	-0.030	-0.300	1.170
2020/01/31 04:41:38.5	92.770	-0.050	-0.250	1.200
2020/01/31 04:41:38.6	92.780	-0.080	-0.200	1.220
2020/01/31 04:41:38.7	92.780	-0.100	-0.160	1.250
2020/01/31 04:41:38.8	92.780	-0.130	-0.120	1.270
2020/01/31 04:41:38.9	92.790	-0.150	-0.080	1.280
2020/01/31 04:41:39.0	92.790	-0.180	-0.040	1.300
2020/01/31 04:41:39.1	92.790	-0.200	-0.010	1.310
2020/01/31 04:41:39.2	92.780	-0.220	0.020	1.320
2020/01/31 04:41:39.3	92.780	-0.240	0.040	1.330
2020/01/31 04:41:39.4	92.780	-0.270	0.060	1.340
2020/01/31 04:41:39.5	92.770	-0.280	0.070	1.340
2020/01/31 04:41:39.6	92.770	-0.300	0.080	1.340
2020/01/31 04:41:39.7	92.760	-0.320	0.080	1.340
2020/01/31 04:41:39.8	92.750	-0.330	0.080	1.340
2020/01/31 04:41:39.9	92.740	-0.340	0.070	1.340
2020/01/31 04:41:40.0	92.740	-0.350	0.060	1.330
2020/01/31 04:41:40.1	92.730	-0.350	0.050	1.320
2020/01/31 04:41:40.2	92.720	-0.360	0.030	1.310
2020/01/31 04:41:40.3	92.710	-0.360	0.010	1.300
2020/01/31 04:41:40.4	92.700	-0.360	-0.010	1.280
2020/01/31 04:41:40.5	92.680	-0.350	-0.040	1.270
2020/01/31 04:41:40.6	92.670	-0.350	-0.070	1.250
2020/01/31 04:41:40.7	92.660	-0.340	-0.100	1.240
2020/01/31 04:41:40.8	92.650	-0.330	-0.130	1.220
2020/01/31 04:41:40.9	92.640	-0.320	-0.160	1.200
2020/01/31 04:41:41.0	92.630	-0.300	-0.200	1.180
2020/01/31 04:41:41.1	92.610	-0.280	-0.230	1.160
2020/01/31 04:41:41.2	92.600	-0.270	-0.260	1.140
2020/01/31 04:41:41.3	92.590	-0.240	-0.300	1.120
2020/01/31 04:41:41.4	92.580	-0.220	-0.340	1.100
2020/01/31 04:41:41.5	92.560	-0.200	-0.370	1.080
2020/01/31 04:41:41.6	92.550	-0.170	-0.410	1.060
2020/01/31 04:41:41.7	92.540	-0.140	-0.440	1.040
2020/01/31 04:41:41.8	92.530	-0.110	-0.480	1.020
2020/01/31 04:41:41.9	92.520	-0.080	-0.510	0.990
2020/01/31 04:41:42.0	92.520	-0.050	-0.540	0.970
2020/01/31 04:41:42.1	92.510	-0.020	-0.570	0.940
2020/01/31 04:41:42.2	92.500	0.010	-0.600	0.910
2020/01/31 04:41:42.3	92.500	0.040	-0.620	0.890
2020/01/31 04:41:42.4	92.490	0.070	-0.640	0.860
2020/01/31 04:41:42.5	92.490	0.100	-0.660	0.830
2020/01/31 04:41:42.6	92.490	0.140	-0.670	0.800
2020/01/31 04:41:42.7	92.490	0.170	-0.680	0.770
2020/01/31 04:41:42.8	92.500	0.200	-0.690	0.730
2020/01/31 04:41:42.9	92.500	0.230	-0.690	0.700
2020/01/31 04:41:43.0	92.500	0.250	-0.690	0.670
2020/01/31 04:41:43.1	92.510	0.280	-0.690	0.630
2020/01/31 04:41:43.2	92.510	0.300	-0.680	0.600
2020/01/31 04:41:43.3	92.520	0.330	-0.660	0.570
2020/01/31 04:41:43.4	92.530	0.350	-0.650	0.530
2020/01/31 04:41:43.5	92.540	0.370	-0.630	0.490
2020/01/31 04:41:43.6	92.550	0.380	-0.600	0.460
2020/01/31 04:41:43.7	92.560	0.400	-0.570	0.420
2020/01/31 04:41:43.8	92.580	0.410	-0.540	0.390
2020/01/31 04:41:43.9	92.590	0.420	-0.510	0.350
2020/01/31 04:41:44.0	92.600	0.430	-0.470	0.320
2020/01/31 04:41:44.1	92.620	0.430	-0.430	0.290
2020/01/31 04:41:44.2	92.620	0.430	-0.390	0.260
2020/01/31 04:41:44.3	92.640	0.430	-0.340	0.230
2020/01/31 04:41:44.4	92.650	0.430	-0.290	0.200
2020/01/31 04:41:44.5	92.660	0.420	-0.250	0.180
2020/01/31 04:41:44.6	92.670	0.410	-0.200	0.160
2020/01/31 04:41:44.7	92.680	0.400	-0.150	0.140
2020/01/31 04:41:44.8	92.690	0.390	-0.100	0.120
2020/01/31 04:41:44.9	92.700	0.370	-0.050	0.110
2020/01/31 04:41:45.0	92.710	0.350	0.000	0.100
2020/01/31 04:41:45.1	92.720	0.330	0.050	0.090
2020/01/31 04:41:45.2	92.730	0.310	0.100	0.090
2020/01/31 04:41:45.3	92.740	0.280	0.150	0.090
2020/01/31 04:41:45.4	92.740	0.250	0.190	0.090
2020/01/31 04:41:45.5	92.740	0.230	0.230	0.090
2020/01/31 04:41:45.6	92.750	0.200	0.270	0.100
2020/01/31 04:41:45.7	92.750	0.170	0.310	0.110
2020/01/31 04:41:45.8	92.750	0.140	0.340	0.120
2020/01/31 04:41:45.9	92.750	0.100	0.370	0.140
2020/01/31 04:41:46.0	92.750	0.070	0.400	0.160
2020/01/31 04:41:46.1	92.750	0.040	0.420	0.180
2020/01/31 04:41:46.2	92.750	0.000	0.440	0.200
2020/01/31 04:41:46.3	92.750	-0.030	0.450	0.230
2020/01/31 04:41:46.4	92.740	-0.060	0.460	0.260
2020/01/31 04:41:46.5	92.740	-0.090	0.470	0.300
2020/01/31 04:41:46.6	92.740	-0.120	0.470	0.330
2020/01/31 04:41:46.7	92.730	-0.150	0.470	0.370
2020/01/31 04:41:46.8	92.730	-0.180	0.460	0.400
2020/01/31 04:41:46.9	92.720	-0.210	0.450	0.440
2020/01/31 04:41:47.0	92.720	-0.240	0.430	0.480
2020/01/31 04:41:47.1	92.720	-0.260	0.410	0.510
2020/01/31 04:41:47.2	92.710	-0.280	0.380	0.550
2020/01/31 04:41:47.3	92.710	-0.300	0.350	0.590
2020/01/31 04:41:47.4	92.700	-0.320	0.320	0.620
2020/01/31 04:41:47.5	92.700	-0.330	0.280	0.650
2020/01/31 04:41:47.6	92.700	-0.340	0.230	0.680
2020/01/31 04:41:47.7	92.700	-0.350	0.190	0.710
2020/01/31 04:41:47.8	92.700	-0.350	0.140	0.730
2020/01/31 04:41:47.9	92.710	-0.360	0.090	0.760
2020/01/31 04:41:48.0	92.710	-0.360	0.030	0.780
2020/01/31 04:41:48.1	92.710	-0.350	-0.020	0.800
2020/01/31 04:41:48.2	92.720	-0.350	-0.080	0.810
2020/01/31 04:41:48.3	92.720	-0.340	-0.130	0.830
2020/01/31 04:41:48.4	92.730	-0.320	-0.190	0.840
2020/01/31 04:41:48.5	92.730	-0.310	-0.250	0.850
2020/01/31 04:41:48.6	92.740	-0.290	-0.310	0.860
2020/01/31 04:41:48.7	92.750	-0.280	-0.370	0.870
2020/01/31 04:41:48.8	92.750	-0.250	-0.420	0.880
2020/01/31 04:41:48.9	92.760	-0.230	-0.480	0.880
2020/01/31 04:41:49.0	92.770	-0.210	-0.530	0.880
2020/01/31 04:41:49.1	92.780	-0.180	-0.590	0.880
2020/01/31 04:41:49.2	92.790	-0.150	-0.640	0.880
2020/01/31 04:41:49.3	92.800	-0.120	-0.690	0.880
2020/01/31 04:41:49.4	92.810	-0.090	-0.730	0.870
2020/01/31 04:41:49.5	92.830	-0.060	-0.780	0.870
2020/01/31 04:41:49.6	92.840	-0.030	-0.820	0.860
2020/01/31 04:41:49.7	92.850	0.000	-0.860	0.850
2020/01/31 04:41:49.8	92.870	0.040	-0.890	0.850
2020/01/31 04:41:49.9	92.880	0.070	-0.920	0.840
2020/01/31 04:41:50.0	92.900	0.100	-0.950	0.840
2020/01/31 04:41:50.1	92.910	0.130	-0.970	0.830
2020/01/31 04:41:50.2	92.920	0.170	-0.990	0.830
2020/01/31 04:41:50.3	92.930	0.200	-1.010	0.840
2020/01/31 04:41:50.4	92.940	0.230	-1.020	0.840
2020/01/31 04:41:50.5	92.950	0.260	-1.030	0.850
2020/01/31 04:41:50.6	92.950	0.290	-1.040	0.860
2020/01/31 04:41:50.7	92.950	0.320	-1.040	0.870
2020/01/31 04:41:50.8	92.950	0.340	-1.030	0.880
2020/01/31 04:41:50.9	92.950	0.360	-1.020	0.900
2020/01/31 04:41:51.0	92.950	0.380	-1.010	0.920
2020/01/31 04:41:51.1	92.940	0.400	-0.990	0.940
2020/01/31 04:41:51.2	92.930	0.420	-0.970	0.960
2020/01/31 04:41:51.3	92.920	0.430	-0.940	0.990
2020/01/31 04:41:51.4	92.910	0.430	-0.900	1.010
2020/01/31 04:41:51.5	92.890	0.440	-0.860	1.030
2020/01/31 04:41:51.6	92.880	0.440	-0.820	1.050
2020/01/31 04:41:51.7	92.860	0.440	-0.770	1.080
2020/01/31 04:41:51.8	92.840	0.430	-0.720	1.100
2020/01/31 04:41:51.9	92.820	0.420	-0.660	1.120
2020/01/31 04:41:52.0	92.800	0.410	-0.600	1.140
2020/01/31 04:41:52.1	92.780	0.390	-0.530	1.160
2020/01/31 04:41:52.2	92.760	0.370	-0.460	1.180
2020/01/31 04:41:52.3	92.740	0.340	-0.390	1.190
2020/01/31 04:41:52.4	92.710	0.320	-0.320	1.210
2020/01/31 04:41:52.5	92.690	0.290	-0.240	1.220
2020/01/31 04:41:52.6	92.670	0.250	-0.170	1.230
2020/01/31 04:41:52.7	92.640	0.220	-0.100	1.240
2020/01/31 04:41:52.8	92.620	0.180	-0.020	1.250
2020/01/31 04:41:52.9	92.590	0.150	0.050	1.250
2020/01/31 04:41:53.0	92.570	0.110	0.110	1.250
2020/01/31 04:41:53.1	92.540	0.070	0.180	1.250
2020/01/31 04:41:53.2	92.520	0.030	0.240	1.250
2020/01/31 04:41:53.3	92.500	-0.010	0.300	1.240
2020/01/31 04:41:53.4	92.480	-0.050	0.340	1.230
2020/01/31 04:41:53.5	92.470	-0.090	0.390	1.220
2020/01/31 04:41:53.6	92.450	-0.120	0.420	1.200
2020/01/31 04:41:53.7	92.440	-0.150	0.450	1.180
2020/01/31 04:41:53.8	92.430	-0.180	0.480	1.150
2020/01/31 04:41:53.9	92.430	-0.210	0.490	1.120
2020/01/31 04:41:54.0	92.430	-0.240	0.500	1.090
2020/01/31 04:41:54.1	92.430	-0.260	0.500	1.050
2020/01/31 04:41:54.2	92.440	-0.280	0.500	1.010
2020/01/31 04:41:54.3	92.440	-0.290	0.490	0.970
2020/01/31 04:41:54.4	92.450	-0.300	0.480	0.930
2020/01/31 04:41:54.5	92.460	-0.310	0.460	0.880
2020/01/31 04:41:54.6	92.480	-0.310	0.430	0.830
2020/01/31 04:41:54.7	92.490	-0.320	0.400	0.790
2020/01/31 04:41:54.8	92.510	-0.310	0.370	0.740
2020/01/31 04:41:54.9	92.530	-0.310	0.330	0.690
2020/01/31 04:41:55.0	92.550	-0.300	0.300	0.640
2020/01/31 04:41:55.1	92.570	-0.290	0.260	0.590
2020/01/31 04:41:55.2	92.590	-0.280	0.210	0.540
2020/01/31 04:41:55.3	92.610	-0.270	0.170	0.500
2020/01/31 04:41:55.4	92.630	-0.250	0.120	0.450
2020/01/31 04:41:55.5	92.650	-0.240	0.080	0.400
2020/01/31 04:41:55.6	92.670	-0.220	0.040	0.360
2020/01/31 04:41:55.7	92.700	-0.200	-0.010	0.310
2020/01/31 04:41:55.8	92.720	-0.180	-0.050	0.270
2020/01/31 04:41:55.9	92.740	-0.160	-0.090	0.230
2020/01/31 04:41:56.0	92.760	-0.140	-0.130	0.200
2020/01/31 04:41:56.1	92.770	-0.110	-0.160	0.160
2020/01/31 04:41:56.2	92.800	-0.090	-0.190	0.130
2020/01/31 04:41:56.3	92.820	-0.070	-0.220	0.110
2020/01/31 04:41:56.4	92.830	-0.050	-0.250	0.080
2020/01/31 04:41:56.5	92.850	-0.040	-0.280	0.070
2020/01/31 04:41:56.6	92.860	-0.020	-0.300	0.060
2020/01/31 04:41:56.7	92.870	-0.000	-0.310	0.050
2020/01/31 04:41:56.8	92.880	0.010	-0.330	0.050
2020/01/31 04:41:56.9	92.890	0.020	-0.340	0.050
2020/01/31 04:41:57.0	92.900	0.030	-0.340	0.060
2020/01/31 04:41:57.1	92.900	0.030	-0.340	0.070
2020/01/31 04:41:57.2	92.910	0.040	-0.340	0.090
2020/01/31 04:41:57.3	92.910	0.040	-0.330	0.110
2020/01/31 04:41:57.4	92.910	0.040	-0.320	0.140
2020/01/31 04:41:57.5	92.920	0.040	-0.310	0.170
2020/01/31 04:41:57.6	92.910	0.030	-0.290	0.200
2020/01/31 04:41:57.7	92.910	0.020	-0.270	0.240
2020/01/31 04:41:57.8	92.910	0.010	-0.250	0.280
2020/01/31 04:41:57.9	92.910	0.000	-0.230	0.320
2020/01/31 04:41:58.0	92.900	-0.010	-0.200	0.360
2020/01/31 04:41:58.1	92.900	-0.020	-0.180	0.400
2020/01/31 04:41:58.2	92.900	-0.040	-0.160	0.440
2020/01/31 04:41:58.3	92.890	-0.060	-0.130	0.490
2020/01/31 04:41:58.4	92.890	-0.070	-0.110	0.530
2020/01/31 04:41:58.5	92.880	-0.090	-0.090	0.570
2020/01/31 04:41:58.6	92.870	-0.110	-0.070	0.610
2020/01/31 04:41:58.7	92.860	-0.120	-0.050	0.650
2020/01/31 04:41:58.8	92.850	-0.140	-0.030	0.690
2020/01/31 04:41:58.9	92.840	-0.160	-0.020	0.730
2020/01/31 04:41:59.0	92.820	-0.170	-0.010	0.760
2020/01/31 04:41:59.1	92.810	-0.180	0.000	0.800
2020/01/31 04:41:59.2	92.790	-0.190	0.010	0.830
2020/01/31 04:41:59.3	92.770	-0.200	0.010	0.870
2020/01/31 04:41:59.4	92.750	-0.210	0.010	0.900
2020/01/31 04:41:59.5	92.730	-0.220	0.010	0.930
2020/01/31 04:41:59.6	92.710	-0.220	-0.000	0.950
2020/01/31 04:41:59.7	92.680	-0.220	-0.010	0.980
2020/01/31 04:41:59.8	92.660	-0.220	-0.030	1.010
2020/01/31 04:41:59.9	92.630	-0.220	-0.050	1.030
2020/01/31 04:42:00.0	92.610	-0.210	-0.070	1.050
2020/01/31 04:42:00.1	92.580	-0.200	-0.100	1.060
2020/01/31 04:42:00.2	92.560	-0.180	-0.140	1.080
2020/01/31 04:42:00.3	92.530	-0.160	-0.180	1.090
2020/01/31 04:42:00.4	92.500	-0.140	-0.220	1.100
2020/01/31 04:42:00.5	92.480	-0.120	-0.270	1.100
2020/01/31 04:42:00.6	92.450	-0.090	-0.320	1.100
2020/01/31 04:42:00.7	92.430	-0.060	-0.380	1.100
2020/01/31 04:42:00.8	92.400	-0.020	-0.440	1.090
2020/01/31 04:42:00.9	92.380	0.010	-0.500	1.080
2020/01/31 04:42:01.0	92.360	0.050	-0.560	1.060
2020/01/31 04:42:01.1	92.340	0.090	-0.630	1.040
2020/01/31 04:42:01.2	92.330	0.140	-0.690	1.020
2020/01/31 04:42:01.3	92.310	0.180	-0.760	0.990
2020/01/31 04:42:01.4	92.300	0.220	-0.830	0.970
2020/01/31 04:42:01.5	92.290	0.270	-0.890	0.940
2020/01/31 04:42:01.6	92.280	0.310	-0.950	0.910
2020/01/31 04:42:01.7	92.270	0.360	-1.000	0.890
2020/01/31 04:42:01.8	92.270	0.400	-1.060	0.860
2020/01/31 04:42:01.9	92.260	0.440	-1.100	0.840
2020/01/31 04:42:02.0	92.260	0.480	-1.140	0.820
2020/01/31 04:42:02.1	92.260	0.510	-1.180	0.800
2020/01/31 04:42:02.2	92.260	0.550	-1.210	0.780
2020/01/31 04:42:02.3	92.260	0.580	-1.230	0.770
2020/01/31 04:42:02.4	92.270	0.610	-1.240	0.750
2020/01/31 04:42:02.5	92.270	0.630	-1.240	0.750
2020/01/31 04:42:02.6	92.280	0.650	-1.240	0.740
2020/01/31 04:42:02.7	92.280	0.670	-1.220	0.730
2020/01/31 04:42:02.8	92.290	0.680	-1.200	0.730
2020/01/31 04:42:02.9	92.300	0.680	-1.160	0.730
2020/01/31 04:42:03.0	92.310	0.680	-1.120	0.720
2020/01/31 04:42:03.1	92.320	0.680	-1.070	0.720
2020/01/31 04:42:03.2	92.330	0.670	-1.010	0.720
2020/01/31 04:42:03.3	92.340	0.660	-0.940	0.720
2020/01/31 04:42:03.4	92.360	0.640	-0.870	0.720
2020/01/31 04:42:03.5	92.370	0.610	-0.790	0.720
2020/01/31 04:42:03.6	92.390	0.580	-0.700	0.710
2020/01/31 04:42:03.7	92.400	0.550	-0.610	0.710
2020/01/31 04:42:03.8	92.420	0.510	-0.510	0.700
2020/01/31 04:42:03.9	92.430	0.470	-0.410	0.700
2020/01/31 04:42:04.0	92.440	0.420	-0.310	0.700
2020/01/31 04:42:04.1	92.460	0.370	-0.210	0.690
2020/01/31 04:42:04.2	92.480	0.310	-0.100	0.690
2020/01/31 04:42:04.3	92.490	0.260	0.010	0.690
2020/01/31 04:42:04.4	92.500	0.200	0.120	0.700
2020/01/31 04:42:04.5	92.510	0.130	0.220	0.700
2020/01/31 04:42:04.6	92.520	0.070	0.320	0.710
2020/01/31 04:42:04.7	92.530	0.000	0.420	0.720
2020/01/31 04:42:04.8	92.540	-0.060	0.520	0.740
2020/01/31 04:42:04.9	92.540	-0.130	0.610	0.760
2020/01/31 04:42:05.0	92.550	-0.200	0.700	0.780
2020/01/31 04:42:05.1	92.550	-0.270	0.780	0.800
2020/01/31 04:42:05.2	92.540	-0.330	0.850	0.830
2020/01/31 04:42:05.3	92.530	-0.400	0.920	0.850
2020/01/31 04:42:05.4	92.530	-0.460	0.980	0.890
2020/01/31 04:42:05.5	92.520	-0.520	1.030	0.920
2020/01/31 04:42:05.6	92.520	-0.580	1.070	0.950
2020/01/31 04:42:05.7	92.510	-0.630	1.110	0.990
2020/01/31 04:42:05.8	92.500	-0.690	1.140	1.030
2020/01/31 04:42:05.9	92.480	-0.740	1.160	1.060
2020/01/31 04:42:06.0	92.470	-0.780	1.170	1.100
2020/01/31 04:42:06.1	92.460	-0.820	1.170	1.130
2020/01/31 04:42:06.2	92.440	-0.860	1.160	1.170
2020/01/31 04:42:06.3	92.430	-0.890	1.140	1.190
2020/01/31 04:42:06.4	92.410	-0.920	1.120	1.220
2020/01/31 04:42:06.5	92.400	-0.940	1.080	1.240
2020/01/31 04:42:06.6	92.390	-0.950	1.030	1.260
2020/01/31 04:42:06.7	92.380	-0.960	0.980	1.270
2020/01/31 04:42:06.8	92.370	-0.970	0.910	1.280
2020/01/31 04:42:06.9	92.360	-0.960	0.830	1.280
2020/01/31 04:42:07.0	92.350	-0.950	0.750	1.280
2020/01/31 04:42:07.1	92.340	-0.930	0.650	1.270
2020/01/31 04:42:07.2	92.340	-0.910	0.550	1.260
2020/01/31 04:42:07.3	92.330	-0.880	0.430	1.250
2020/01/31 04:42:07.4	92.320	-0.840	0.310	1.230
2020/01/31 04:42:07.5	92.320	-0.790	0.180	1.210
2020/01/31 04:42:07.6	92.310	-0.740	0.050	1.190
2020/01/31 04:42:07.7	92.310	-0.680	-0.090	1.170
2020/01/31 04:42:07.8	92.300	-0.610	-0.230	1.140
2020/01/31 04:42:07.9	92.300	-0.540	-0.380	1.110
2020/01/31 04:42:08.0	92.290	-0.470	-0.530	1.090
2020/01/31 04:42:08.1	92.280	-0.390	-0.670	1.060
2020/01/31 04:42:08.2	92.280	-0.310	-0.820	1.030
2020/01/31 04:42:08.3	92.270	-0.220	-0.950	1.010
2020/01/31 04:42:08.4	92.270	-0.130	-1.090	0.980
2020/01/31 04:42:08.5	92.260	-0.050	-1.210	0.960
2020/01/31 04:42:08.6	92.260	0.040	-1.330	0.930
2020/01/31 04:42:08.7	92.250	0.130	-1.430	0.910
2020/01/31 04:42:08.8	92.240	0.220	-1.530	0.890
2020/01/31 04:42:08.9	92.240	0.300	-1.600	0.860
2020/01/31 04:42:09.0	92.230	0.380	-1.670	0.840
2020/01/31 04:42:09.1	92.220	0.450	-1.720	0.830
2020/01/31 04:42:09.2	92.210	0.520	-1.760	0.810
2020/01/31 04:42:09.3	92.200	0.580	-1.770	0.800
2020/01/31 04:42:09.4	92.190	0.630	-1.770	0.780
2020/01/31 04:42:09.5	92.180	0.680	-1.760	0.770
2020/01/31 04:42:09.6	92.170	0.710	-1.720	0.750
2020/01/31 04:42:09.7	92.160	0.740	-1.670	0.740
2020/01/31 04:42:09.8	92.150	0.760	-1.610	0.730
2020/01/31 04:42:09.9	92.140	0.780	-1.530	0.720
2020/01/31 04:42:10.0	92.130	0.780	-1.440	0.710
2020/01/31 04:42:10.1	92.130	0.770	-1.340	0.700
2020/01/31 04:42:10.2	92.110	0.760	-1.220	0.690
2020/01/31 04:42:10.3	92.100	0.730	-1.100	0.680
2020/01/31 04:42:10.4	92.090	0.700	-0.970	0.670
2020/01/31 04:42:10.5	92.090	0.660	-0.830	0.660
2020/01/31 04:42:10.6	92.080	0.620	-0.690	0.660
2020/01/31 04:42:10.7	92.070	0.570	-0.550	0.650
2020/01/31 04:42:10.8	92.060	0.510	-0.400	0.640
2020/01/31 04:42:10.9	92.050	0.450	-0.260	0.630
2020/01/31 04:42:11.0	92.040	0.390	-0.110	0.630
2020/01/31 04:42:11.1	92.040	0.320	0.020	0.620
2020/01/31 04:42:11.2	92.030	0.250	0.160	0.620
2020/01/31 04:42:11.3	92.020	0.180	0.290	0.620
2020/01/31 04:42:11.4	92.010	0.110	0.410	0.610
2020/01/31 04:42:11.5	92.010	0.050	0.520	0.610
2020/01/31 04:42:11.6	92.010	-0.020	0.620	0.610
2020/01/31 04:42:11.7	92.010	-0.080	0.710	0.610
2020/01/31 04:42:11.8	92.010	-0.140	0.790	0.610
2020/01/31 04:42:11.9	92.010	-0.200	0.850	0.610
2020/01/31 04:42:12.0	92.010	-0.240	0.910	0.610
2020/01/31 04:42:12.1	92.020	-0.290	0.950	0.620
2020/01/31 04:42:12.2	92.020	-0.320	0.970	0.620
2020/01/31 04:42:12.3	92.030	-0.350	0.980	0.620
2020/01/31 04:42:12.4	92.040	-0.380	0.980	0.630
2020/01/31 04:42:12.5	92.050	-0.390	0.960	0.640
2020/01/31 04:42:12.6	92.060	-0.400	0.930	0.650
2020/01/31 04:42:12.7	92.070	-0.400	0.880	0.660
2020/01/31 04:42:12.8	92.080	-0.390	0.820	0.670
2020/01/31 04:42:12.9	92.100	-0.380	0.750	0.680
2020/01/31 04:42:13.0	92.110	-0.360	0.680	0.690
2020/01/31 04:42:13.1	92.120	-0.340	0.590	0.710
2020/01/31 04:42:13.2	92.140	-0.310	0.490	0.730
2020/01/31 04:42:13.3	92.150	-0.270	0.390	0.740
2020/01/31 04:42:13.4	92.160	-0.230	0.280	0.760
2020/01/31 04:42:13.5	92.170	-0.190	0.180	0.770
2020/01/31 04:42:13.6	92.180	-0.150	0.070	0.790
2020/01/31 04:42:13.7	92.190	-0.100	-0.040	0.800
2020/01/31 04:42:13.8	92.200	-0.060	-0.150	0.820
2020/01/31 04:42:13.9	92.200	-0.010	-0.250	0.830
2020/01/31 04:42:14.0	92.210	0.030	-0.350	0.840
2020/01/31 04:42:14.1	92.210	0.070	-0.430	0.860
2020/01/31 04:42:14.2	92.210	0.110	-0.520	0.870
2020/01/31 04:42:14.3	92.210	0.140	-0.590	0.880
2020/01/31 04:42:14.4	92.210	0.170	-0.650	0.890
2020/01/31 04:42:14.5	92.210	0.200	-0.700	0.900
2020/01/31 04:42:14.6	92.200	0.210	-0.730	0.900
2020/01/31 04:42:14.7	92.190	0.230	-0.760	0.910
2020/01/31 04:42:14.8	92.180	0.240	-0.780	0.910
2020/01/31 04:42:14.9	92.170	0.240	-0.780	0.910
2020/01/31 04:42:15.0	92.150	0.240	-0.780	0.910
2020/01/31 04:42:15.1	92.140	0.230	-0.760	0.910
2020/01/31 04:42:15.2	92.120	0.210	-0.740	0.910
2020/01/31 04:42:15.3	92.100	0.190	-0.700	0.910
2020/01/31 04:42:15.4	92.080	0.170	-0.660	0.910
2020/01/31 04:42:15.5	92.060	0.140	-0.610	0.910
2020/01/31 04:42:15.6	92.040	0.100	-0.550	0.910
2020/01/31 04:42:15.7	92.010	0.060	-0.490	0.910
2020/01/31 04:42:15.8	91.990	0.020	-0.420	0.900
2020/01/31 04:42:15.9	91.960	-0.020	-0.350	0.900
2020/01/31 04:42:16.0	91.940	-0.070	-0.270	0.900
2020/01/31 04:42:16.1	91.910	-0.120	-0.200	0.900
2020/01/31 04:42:16.2	91.880	-0.170	-0.120	0.900
2020/01/31 04:42:16.3	91.850	-0.220	-0.040	0.900
2020/01/31 04:42:16.4	91.820	-0.260	0.030	0.900
2020/01/31 04:42:16.5	91.790	-0.310	0.100	0.890
2020/01/31 04:42:16.6	91.760	-0.350	0.160	0.890
2020/01/31 04:42:16.7	91.730	-0.390	0.220	0.880
2020/01/31 04:42:16.8	91.700	-0.430	0.270	0.880
2020/01/31 04:42:16.9	91.670	-0.460	0.310	0.870
2020/01/31 04:42:17.0	91.640	-0.490	0.350	0.860
2020/01/31 04:42:17.1	91.620	-0.510	0.370	0.850
2020/01/31 04:42:17.2	91.590	-0.520	0.390	0.840
2020/01/31 04:42:17.3	91.570	-0.530	0.400	0.820
2020/01/31 04:42:17.4	91.540	-0.540	0.400	0.810
2020/01/31 04:42:17.5	91.520	-0.540	0.390	0.790
2020/01/31 04:42:17.6	91.510	-0.530	0.370	0.770
2020/01/31 04:42:17.7	91.490	-0.510	0.340	0.740
2020/01/31 04:42:17.8	91.480	-0.490	0.300	0.720
2020/01/31 04:42:17.9	91.470	-0.460	0.260	0.690
2020/01/31 04:42:18.0	91.460	-0.430	0.200	0.660
2020/01/31 04:42:18.1	91.450	-0.390	0.140	0.630
2020/01/31 04:42:18.2	91.440	-0.340	0.070	0.600
2020/01/31 04:42:18.3	91.440	-0.300	-0.000	0.570
2020/01/31 04:42:18.4	91.430	-0.240	-0.080	0.530
2020/01/31 04:42:18.5	91.430	-0.190	-0.170	0.500
2020/01/31 04:42:18.6	91.430	-0.130	-0.260	0.460
2020/01/31 04:42:18.7	91.430	-0.070	-0.350	0.430
2020/01/31 04:42:18.8	91.430	-0.000	-0.450	0.390
2020/01/31 04:42:18.9	91.430	0.060	-0.540	0.360
2020/01/31 04:42:19.0	91.420	0.120	-0.630	0.330
2020/01/31 04:42:19.1	91.420	0.190	-0.720	0.300
2020/01/31 04:42:19.2	91.420	0.250	-0.810	0.270
2020/01/31 04:42:19.3	91.410	0.310	-0.890	0.240
2020/01/31 04:42:19.4	91.410	0.370	-0.970	0.220
2020/01/31 04:42:19.5	91.410	0.420	-1.040	0.190
2020/01/31 04:42:19.6	91.400	0.470	-1.100	0.180
2020/01/31 04:42:19.7	91.390	0.510	-1.150	0.160
2020/01/31 04:42:19.8	91.390	0.550	-1.190	0.150
2020/01/31 04:42:19.9	91.380	0.580	-1.220	0.140
2020/01/31 04:42:20.0	91.370	0.610	-1.240	0.140
2020/01/31 04:42:20.1	91.360	0.630	-1.250	0.140
2020/01/31 04:42:20.2	91.360	0.650	-1.240	0.140
2020/01/31 04:42:20.3	91.350	0.650	-1.220	0.150
2020/01/31 04:42:20.4	91.340	0.660	-1.190	0.170
2020/01/31 04:42:20.5	91.320	0.650	-1.150	0.190
2020/01/31 04:42:20.6	91.310	0.640	-1.090	0.210
2020/01/31 04:42:20.7	91.300	0.620	-1.030	0.240
2020/01/31 04:42:20.8	91.280	0.590	-0.950	0.280
2020/01/31 04:42:20.9	91.270	0.560	-0.870	0.320
2020/01/31 04:42:21.0	91.260	0.520	-0.780	0.360
2020/01/31 04:42:21.1	91.240	0.480	-0.680	0.400
2020/01/31 04:42:21.2	91.230	0.430	-0.580	0.450
2020/01/31 04:42:21.3	91.220	0.380	-0.470	0.500
2020/01/31 04:42:21.4	91.210	0.320	-0.370	0.550
2020/01/31 04:42:21.5	91.190	0.260	-0.260	0.590
2020/01/31 04:42:21.6	91.180	0.200	-0.160	0.640
2020/01/31 04:42:21.7	91.170	0.140	-0.050	0.680
2020/01/31 04:42:21.8	91.170	0.070	0.050	0.720
2020/01/31 04:42:21.9	91.160	0.010	0.140	0.770
2020/01/31 04:42:22.0	91.150	-0.060	0.230	0.800
2020/01/31 04:42:22.1	91.150	-0.120	0.320	0.840
2020/01/31 04:42:22.2	91.150	-0.180	0.390	0.870
2020/01/31 04:42:22.3	91.150	-0.240	0.460	0.900
2020/01/31 04:42:22.4	91.140	-0.300	0.510	0.930
2020/01/31 04:42:22.5	91.150	-0.350	0.560	0.950
2020/01/31 04:42:22.6	91.150	-0.400	0.600	0.970
2020/01/31 04:42:22.7	91.150	-0.440	0.620	0.990
2020/01/31 04:42:22.8	91.160	-0.480	0.640	1.010
2020/01/31 04:42:22.9	91.160	-0.510	0.640	1.020
2020/01/31 04:42:23.0	91.170	-0.540	0.640	1.030
2020/01/31 04:42:23.1	91.170	-0.560	0.630	1.040
2020/01/31 04:42:23.2	91.180	-0.570	0.610	1.050
2020/01/31 04:42:23.3	91.190	-0.580	0.580	1.060
2020/01/31 04:42:23.4	91.200	-0.580	0.540	1.070
2020/01/31 04:42:23.5	91.200	-0.570	0.490	1.080
2020/01/31 04:42:23.6	91.210	-0.560	0.440	1.080
2020/01/31 04:42:23.7	91.220	-0.540	0.390	1.090
2020/01/31 04:42:23.8	91.220	-0.520	0.330	1.100
2020/01/31 04:42:23.9	91.230	-0.490	0.270	1.100
2020/01/31 04:42:24.0	91.240	-0.460	0.200	1.100
2020/01/31 04:42:24.1	91.240	-0.420	0.140	1.110
2020/01/31 04:42:24.2	91.250	-0.380	0.070	1.120
2020/01/31 04:42:24.3	91.250	-0.330	0.010	1.120
2020/01/31 04:42:24.4	91.260	-0.280	-0.060	1.110
2020/01/31 04:42:24.5	91.260	-0.230	-0.120	1.110
2020/01/31 04:42:24.6	91.270	-0.180	-0.180	1.110
2020/01/31 04:42:24.7	91.270	-0.130	-0.240	1.100
2020/01/31 04:42:24.8	91.270	-0.080	-0.300	1.090
2020/01/31 04:42:24.9	91.280	-0.030	-0.350	1.080
2020/01/31 04:42:25.0	91.280	0.030	-0.400	1.070
2020/01/31 04:42:25.1	91.280	0.080	-0.450	1.060
2020/01/31 04:42:25.2	91.280	0.120	-0.500	1.050
2020/01/31 04:42:25.3	91.280	0.170	-0.530	1.040
2020/01/31 04:42:25.4	91.280	0.210	-0.560	1.020
2020/01/31 04:42:25.5	91.280	0.250	-0.590	1.010
2020/01/31 04:42:25.6	91.280	0.290	-0.610	1.000
2020/01/31 04:42:25.7	91.280	0.320	-0.620	0.990
2020/01/31 04:42:25.8	91.280	0.350	-0.630	0.970
2020/01/31 04:42:25.9	91.280	0.370	-0.640	0.960
2020/01/31 04:42:26.0	91.280	0.390	-0.640	0.950
2020/01/31 04:42:26.1	91.280	0.410	-0.630	0.940
2020/01/31 04:42:26.2	91.280	0.420	-0.610	0.940
2020/01/31 04:42:26.3	91.280	0.420	-0.590	0.930
2020/01/31 04:42:26.4	91.280	0.420	-0.570	0.920
2020/01/31 04:42:26.5	91.280	0.420	-0.540	0.910
2020/01/31 04:42:26.6	91.280	0.410	-0.510	0.910
2020/01/31 04:42:26.7	91.280	0.400	-0.480	0.900
2020/01/31 04:42:26.8	91.280	0.380	-0.430	0.900
2020/01/31 04:42:26.9	91.280	0.360	-0.390	0.890
2020/01/31 04:42:27.0	91.280	0.340	-0.340	0.890
2020/01/31 04:42:27.1	91.280	0.310	-0.300	0.880
2020/01/31 04:42:27.2	91.290	0.280	-0.250	0.880
2020/01/31 04:42:27.3	91.290	0.240	-0.190	0.880
2020/01/31 04:42:27.4	91.290	0.210	-0.140	0.870
2020/01/31 04:42:27.5	91.300	0.170	-0.090	0.860
2020/01/31 04:42:27.6	91.300	0.130	-0.050	0.860
2020/01/31 04:42:27.7	91.310	0.090	-0.000	0.850
2020/01/31 04:42:27.8	91.320	0.050	0.040	0.840
2020/01/31 04:42:27.9	91.330	0.020	0.080	0.820
2020/01/31 04:42:28.0	91.330	-0.020	0.110	0.810
2020/01/31 04:42:28.1	91.340	-0.060	0.140	0.790
2020/01/31 04:42:28.2	91.350	-0.090	0.170	0.770
2020/01/31 04:42:28.3	91.360	-0.130	0.180	0.760
2020/01/31 04:42:28.4	91.370	-0.160	0.190	0.730
2020/01/31 04:42:28.5	91.380	-0.190	0.200	0.710
2020/01/31 04:42:28.6	91.390	-0.220	0.200	0.690
2020/01/31 04:42:28.7	91.390	-0.240	0.190	0.670
2020/01/31 04:42:28.8	91.400	-0.260	0.170	0.650
2020/01/31 04:42:28.9	91.400	-0.280	0.150	0.630
2020/01/31 04:42:29.0	91.400	-0.300	0.130	0.610
2020/01/31 04:42:29.1	91.400	-0.310	0.100	0.600
2020/01/31 04:42:29.2	91.390	-0.320	0.060	0.580
2020/01/31 04:42:29.3	91.390	-0.330	0.030	0.560
2020/01/31 04:42:29.4	91.390	-0.330	-0.010	0.550
2020/01/31 04:42:29.5	91.390	-0.330	-0.050	0.530
2020/01/31 04:42:29.6	91.390	-0.330	-0.090	0.520
2020/01/31 04:42:29.7	91.380	-0.330	-0.130	0.520
2020/01/31 04:42:29.8	91.380	-0.330	-0.170	0.510
2020/01/31 04:42:29.9	91.380	-0.320	-0.210	0.510
2020/01/31 04:42:30.0	91.370	-0.320	-0.250	0.510
2020/01/31 04:42:30.1	91.370	-0.310	-0.280	0.510
2020/01/31 04:42:30.2	91.370	-0.300	-0.320	0.520
2020/01/31 04:42:30.3	91.370	-0.290	-0.340	0.530
2020/01/31 04:42:30.4	91.380	-0.280	-0.370	0.540
2020/01/31 04:42:30.5	91.380	-0.270	-0.390	0.540
2020/01/31 04:42:30.6	91.390	-0.260	-0.410	0.560
2020/01/31 04:42:30.7	91.400	-0.250	-0.420	0.570
2020/01/31 04:42:30.8	91.410	-0.230	-0.430	0.580
2020/01/31 04:42:30.9	91.420	-0.220	-0.430	0.590
2020/01/31 04:42:31.0	91.430	-0.210	-0.430	0.600
2020/01/31 04:42:31.1	91.440	-0.200	-0.430	0.620
2020/01/31 04:42:31.2	91.460	-0.190	-0.420	0.630
2020/01/31 04:42:31.3	91.480	-0.180	-0.420	0.640
2020/01/31 04:42:31.4	91.490	-0.170	-0.410	0.660
2020/01/31 04:42:31.5	91.510	-0.170	-0.390	0.670
2020/01/31 04:42:31.6	91.530	-0.160	-0.380	0.690
2020/01/31 04:42:31.7	91.550	-0.150	-0.370	0.700
2020/01/31 04:42:31.8	91.570	-0.140	-0.350	0.710
2020/01/31 04:42:31.9	91.590	-0.140	-0.330	0.730
2020/01/31 04:42:32.0	91.600	-0.130	-0.320	0.740
2020/01/31 04:42:32.1	91.620	-0.120	-0.300	0.750
2020/01/31 04:42:32.2	91.640	-0.120	-0.290	0.770
2020/01/31 04:42:32.3	91.650	-0.110	-0.280	0.780
2020/01/31 04:42:32.4	91.670	-0.100	-0.270	0.790
2020/01/31 04:42:32.5	91.690	-0.100	-0.260	0.800
2020/01/31 04:42:32.6	91.700	-0.090	-0.260	0.810
2020/01/31 04:42:32.7	91.720	-0.080	-0.250	0.820
2020/01/31 04:42:32.8	91.730	-0.070	-0.250	0.830
2020/01/31 04:42:32.9	91.740	-0.050	-0.260	0.850
2020/01/31 04:42:33.0	91.750	-0.040	-0.260	0.860
2020/01/31 04:42:33.1	91.750	-0.030	-0.270	0.870
2020/01/31 04:42:33.2	91.750	-0.010	-0.270	0.880
2020/01/31 04:42:33.3	91.750	0.010	-0.290	0.890
2020/01/31 04:42:33.4	91.750	0.030	-0.300	0.900
2020/01/31 04:42:33.5	91.750	0.050	-0.320	0.910
2020/01/31 04:42:33.6	91.740	0.070	-0.340	0.920
2020/01/31 04:42:33.7	91.730	0.090	-0.360	0.940
2020/01/31 04:42:33.8	91.720	0.110	-0.380	0.950
2020/01/31 04:42:33.9	91.710	0.140	-0.410	0.960
2020/01/31 04:42:34.0	91.690	0.160	-0.430	0.980
2020/01/31 04:42:34.1	91.670	0.190	-0.460	0.990
2020/01/31 04:42:34.2	91.650	0.220	-0.480	1.010
2020/01/31 04:42:34.3	91.630	0.240	-0.510	1.020
2020/01/31 04:42:34.4	91.610	0.270	-0.530	1.030
2020/01/31 04:42:34.5	91.580	0.300	-0.550	1.050
2020/01/31 04:42:34.6	91.560	0.320	-0.580	1.060
2020/01/31 04:42:34.7	91.530	0.350	-0.600	1.070
2020/01/31 04:42:34.8	91.510	0.370	-0.620	1.080
2020/01/31 04:42:34.9	91.480	0.400	-0.630	1.090
2020/01/31 04:42:35.0	91.460	0.420	-0.650	1.090
2020/01/31 04:42:35.1	91.440	0.440	-0.660	1.100
2020/01/31 04:42:35.2	91.410	0.460	-0.670	1.100
2020/01/31 04:42:35.3	91.390	0.480	-0.670	1.100
2020/01/31 04:42:35.4	91.380	0.490	-0.670	1.090
2020/01/31 04:42:35.5	91.360	0.510	-0.670	1.090
2020/01/31 04:42:35.6	91.350	0.520	-0.660	1.080
2020/01/31 04:42:35.7	91.340	0.530	-0.640	1.070
2020/01/31 04:42:35.8	91.330	0.540	-0.620	1.050
2020/01/31 04:42:35.9	91.320	0.540	-0.590	1.040
2020/01/31 04:42:36.0	91.320	0.540	-0.560	1.020
2020/01/31 04:42:36.1	91.310	0.540	-0.520	1.000
2020/01/31 04:42:36.2	91.320	0.530	-0.470	0.980
2020/01/31 04:42:36.3	91.320	0.520	-0.420	0.960
2020/01/31 04:42:36.4	91.320	0.510	-0.360	0.930
2020/01/31 04:42:36.5	91.330	0.490	-0.300	0.900
2020/01/31 04:42:36.6	91.330	0.480	-0.230	0.870
2020/01/31 04:42:36.7	91.340	0.450	-0.160	0.840
2020/01/31 04:42:36.8	91.350	0.430	-0.080	0.800
2020/01/31 04:42:36.9	91.360	0.400	-0.010	0.760
2020/01/31 04:42:37.0	91.380	0.370	0.070	0.720
2020/01/31 04:42:37.1	91.390	0.340	0.150	0.680
2020/01/31 04:42:37.2	91.410	0.300	0.230	0.640
2020/01/31 04:42:37.3	91.430	0.270	0.310	0.600
2020/01/31 04:42:37.4	91.450	0.230	0.390	0.550
2020/01/31 04:42:37.5	91.470	0.190	0.460	0.500
2020/01/31 04:42:37.6	91.490	0.150	0.530	0.450
2020/01/31 04:42:37.7	91.520	0.110	0.590	0.400
2020/01/31 04:42:37.8	91.540	0.070	0.650	0.350
2020/01/31 04:42:37.9	91.570	0.030	0.700	0.290
2020/01/31 04:42:38.0	91.600	-0.020	0.750	0.240
2020/01/31 04:42:38.1	91.630	-0.060	0.790	0.190
2020/01/31 04:42:38.2	91.660	-0.090	0.820	0.140
2020/01/31 04:42:38.3	91.680	-0.130	0.830	0.100
2020/01/31 04:42:38.4	91.710	-0.170	0.840	0.060
2020/01/31 04:42:38.5	91.740	-0.200	0.840	0.020
2020/01/31 04:42:38.6	91.770	-0.230	0.830	-0.010
2020/01/31 04:42:38.7	91.790	-0.250	0.810	-0.040
2020/01/31 04:42:38.8	91.820	-0.280	0.780	-0.060
2020/01/31 04:42:38.9	91.840	-0.290	0.740	-0.080
2020/01/31 04:42:39.0	91.860	-0.310	0.680	-0.080
2020/01/31 04:42:39.1	91.880	-0.320	0.620	-0.090
2020/01/31 04:42:39.2	91.900	-0.330	0.550	-0.080
2020/01/31 04:42:39.3	91.910	-0.330	0.470	-0.070
2020/01/31 04:42:39.4	91.930	-0.330	0.380	-0.050
2020/01/31 04:42:39.5	91.930	-0.320	0.280	-0.020
2020/01/31 04:42:39.6	91.940	-0.310	0.180	0.010
2020/01/31 04:42:39.7	91.940	-0.300	0.070	0.040
2020/01/31 04:42:39.8	91.940	-0.290	-0.040	0.080
2020/01/31 04:42:39.9	91.940	-0.270	-0.150	0.120
2020/01/31 04:42:40.0	91.940	-0.250	-0.260	0.160
2020/01/31 04:42:40.1	91.940	-0.230	-0.380	0.200
2020/01/31 04:42:40.2	91.930	-0.200	-0.490	0.250
2020/01/31 04:42:40.3	91.920	-0.180	-0.600	0.300
2020/01/31 04:42:40.4	91.920	-0.150	-0.700	0.340
2020/01/31 04:42:40.5	91.910	-0.120	-0.800	0.380
2020/01/31 04:42:40.6	91.900	-0.100	-0.890	0.420
2020/01/31 04:42:40.7	91.890	-0.070	-0.980	0.470
2020/01/31 04:42:40.8	91.880	-0.050	-1.050	0.510
2020/01/31 04:42:40.9	91.870	-0.030	-1.120	0.550
2020/01/31 04:42:41.0	91.860	-0.010	-1.170	0.590
2020/01/31 04:42:41.1	91.850	0.010	-1.210	0.630
2020/01/31 04:42:41.2	91.840	0.030	-1.250	0.670
2020/01/31 04:42:41.3	91.830	0.040	-1.270	0.710
2020/01/31 04:42:41.4	91.820	0.050	-1.280	0.750
2020/01/31 04:42:41.5	91.810	0.060	-1.280	0.790
2020/01/31 04:42:41.6	91.800	0.060	-1.270	0.830
2020/01/31 04:42:41.7	91.790	0.060	-1.250	0.870
2020/01/31 04:42:41.8	91.780	0.050	-1.210	0.910
2020/01/31 04:42:41.9	91.770	0.050	-1.170	0.950
2020/01/31 04:42:42.0	91.760	0.040	-1.120	0.990
2020/01/31 04:42:42.1	91.750	0.020	-1.060	1.030
2020/01/31 04:42:42.2	91.750	0.000	-0.990	1.070
2020/01/31 04:42:42.3	91.740	-0.020	-0.920	1.110
2020/01/31 04:42:42.4	91.740	-0.040	-0.840	1.140
2020/01/31 04:42:42.5	91.740	-0.060	-0.760	1.180
2020/01/31 04:42:42.6	91.730	-0.090	-0.680	1.210
2020/01/31 04:42:42.7	91.730	-0.120	-0.590	1.250
2020/01/31 04:42:42.8	91.730	-0.150	-0.500	1.280
2020/01/31 04:42:42.9	91.730	-0.180	-0.410	1.300
2020/01/31 04:42:43.0	91.730	-0.210	-0.320	1.330
2020/01/31 04:42:43.1	91.730	-0.250	-0.240	1.350
2020/01/31 04:42:43.2	91.730	-0.280	-0.150	1.360
2020/01/31 04:42:43.3	91.730	-0.310	-0.070	1.370
2020/01/31 04:42:43.4	91.730	-0.340	0.010	1.380
2020/01/31 04:42:43.5	91.730	-0.370	0.080	1.390
2020/01/31 04:42:43.6	91.730	-0.390	0.140	1.390
2020/01/31 04:42:43.7	91.730	-0.420	0.200	1.380
2020/01/31 04:42:43.8	91.730	-0.440	0.250	1.370
2020/01/31 04:42:43.9	91.730	-0.460	0.290	1.360
2020/01/31 04:42:44.0	91.730	-0.470	0.330	1.340
2020/01/31 04:42:44.1	91.730	-0.480	0.350	1.310
2020/01/31 04:42:44.2	91.720	-0.490	0.370	1.290
2020/01/31 04:42:44.3	91.720	-0.490	0.380	1.260
2020/01/31 04:42:44.4	91.720	-0.490	0.380	1.220
2020/01/31 04:42:44.5	91.710	-0.490	0.370	1.190
2020/01/31 04:42:44.6	91.710	-0.480	0.360	1.150
2020/01/31 04:42:44.7	91.700	-0.460	0.340	1.110
2020/01/31 04:42:44.8	91.690	-0.440	0.310	1.070
2020/01/31 04:42:44.9	91.690	-0.420	0.280	1.030
2020/01/31 04:42:45.0	91.680	-0.390	0.240	0.990
2020/01/31 04:42:45.1	91.670	-0.360	0.200	0.960
2020/01/31 04:42:45.2	91.660	-0.330	0.150	0.920
2020/01/31 04:42:45.3	91.650	-0.290	0.100	0.890
2020/01/31 04:42:45.4	91.640	-0.250	0.050	0.860
2020/01/31 04:42:45.5	91.630	-0.210	-0.010	0.830
2020/01/31 04:42:45.6	91.610	-0.170	-0.060	0.810
2020/01/31 04:42:45.7	91.600	-0.130	-0.110	0.780
2020/01/31 04:42:45.8	91.590	-0.080	-0.170	0.760
2020/01/31 04:42:45.9	91.580	-0.040	-0.220	0.740
2020/01/31 04:42:46.0	91.570	0.010	-0.270	0.720
2020/01/31 04:42:46.1	91.570	0.060	-0.320	0.700
2020/01/31 04:42:46.2	91.560	0.100	-0.380	0.680
2020/01/31 04:42:46.3	91.560	0.140	-0.420	0.660
2020/01/31 04:42:46.4	91.560	0.190	-0.460	0.650
2020/01/31 04:42:46.5	91.560	0.230	-0.500	0.630
2020/01/31 04:42:46.6	91.560	0.270	-0.540	0.610
2020/01/31 04:42:46.7	91.560	0.300	-0.570	0.590
2020/01/31 04:42:46.8	91.560	0.340	-0.590	0.570
2020/01/31 04:42:46.9	91.560	0.360	-0.620	0.550
2020/01/31 04:42:47.0	91.570	0.390	-0.630	0.530
2020/01/31 04:42:47.1	91.570	0.410	-0.640	0.500
2020/01/31 04:42:47.2	91.580	0.430	-0.650	0.480
2020/01/31 04:42:47.3	91.580	0.450	-0.650	0.450
2020/01/31 04:42:47.4	91.590	0.460	-0.640	0.420
2020/01/31 04:42:47.5	91.600	0.460	-0.630	0.390
2020/01/31 04:42:47.6	91.610	0.470	-0.610	0.360
2020/01/31 04:42:47.7	91.620	0.470	-0.590	0.330
2020/01/31 04:42:47.8	91.630	0.460	-0.560	0.290
2020/01/31 04:42:47.9	91.640	0.460	-0.530	0.260
2020/01/31 04:42:48.0	91.640	0.440	-0.490	0.240
2020/01/31 04:42:48.1	91.650	0.430	-0.440	0.210
2020/01/31 04:42:48.2	91.660	0.410	-0.390	0.190
2020/01/31 04:42:48.3	91.670	0.400	-0.340	0.160
2020/01/31 04:42:48.4	91.680	0.370	-0.280	0.150
2020/01/31 04:42:48.5	91.690	0.350	-0.220	0.130
2020/01/31 04:42:48.6	91.690	0.330	-0.160	0.120
2020/01/31 04:42:48.7	91.700	0.300	-0.090	0.120
2020/01/31 04:42:48.8	91.710	0.280	-0.030	0.120
2020/01/31 04:42:48.9	91.710	0.250	0.030	0.120
2020/01/31 04:42:49.0	91.720	0.220	0.090	0.120
2020/01/31 04:42:49.1	91.720	0.200	0.150	0.130
2020/01/31 04:42:49.2	91.730	0.170	0.200	0.140
2020/01/31 04:42:49.3	91.730	0.150	0.250	0.160
2020/01/31 04:42:49.4	91.740	0.130	0.290	0.180
2020/01/31 04:42:49.5	91.740	0.110	0.330	0.200
2020/01/31 04:42:49.6	91.740	0.090	0.360	0.230
2020/01/31 04:42:49.7	91.740	0.070	0.380	0.250
2020/01/31 04:42:49.8	91.740	0.060	0.390	0.280
2020/01/31 04:42:49.9	91.740	0.050	0.400	0.310
2020/01/31 04:42:50.0	91.740	0.040	0.400	0.340
2020/01/31 04:42:50.1	91.740	0.030	0.390	0.370
2020/01/31 04:42:50.2	91.730	0.020	0.380	0.400
2020/01/31 04:42:50.3	91.730	0.020	0.350	0.430
2020/01/31 04:42:50.4	91.730	0.010	0.320	0.460
2020/01/31 04:42:50.5	91.720	0.010	0.290	0.490
2020/01/31 04:42:50.6	91.720	0.010	0.250	0.520
2020/01/31 04:42:50.7	91.720	0.010	0.200	0.540
2020/01/31 04:42:50.8	91.710	0.020	0.150	0.570
2020/01/31 04:42:50.9	91.710	0.020	0.100	0.590
2020/01/31 04:42:51.0	91.700	0.020	0.040	0.620
2020/01/31 04:42:51.1	91.690	0.020	-0.010	0.640
2020/01/31 04:42:51.2	91.700	0.020	-0.070	0.660
2020/01/31 04:42:51.3	91.690	0.020	-0.120	0.680
2020/01/31 04:42:51.4	91.680	0.020	-0.170	0.700
2020/01/31 04:42:51.5	91.680	0.020	-0.220	0.720
2020/01/31 04:42:51.6	91.670	0.020	-0.270	0.730
2020/01/31 04:42:51.7	91.670	0.020	-0.310	0.750
2020/01/31 04:42:51.8	91.660	0.010	-0.340	0.760
2020/01/31 04:42:51.9	91.660	0.010	-0.370	0.770
2020/01/31 04:42:52.0	91.650	-0.000	-0.400	0.790
2020/01/31 04:42:52.1	91.650	-0.010	-0.420	0.800
2020/01/31 04:42:52.2	91.650	-0.020	-0.430	0.800
2020/01/31 04:42:52.3	91.650	-0.030	-0.440	0.810
2020/01/31 04:42:52.4	91.650	-0.040	-0.450	0.820
2020/01/31 04:42:52.5	91.650	-0.060	-0.450	0.830
2020/01/31 04:42:52.6	91.650	-0.070	-0.440	0.840
2020/01/31 04:42:52.7	91.650	-0.090	-0.440	0.840
2020/01/31 04:42:52.8	91.660	-0.100	-0.430	0.850
2020/01/31 04:42:52.9	91.660	-0.120	-0.410	0.850
2020/01/31 04:42:53.0	91.660	-0.130	-0.400	0.860
2020/01/31 04:42:53.1	91.670	-0.150	-0.390	0.860
2020/01/31 04:42:53.2	91.660	-0.160	-0.370	0.870
2020/01/31 04:42:53.3	91.670	-0.170	-0.350	0.880
2020/01/31 04:42:53.4	91.670	-0.190	-0.340	0.880
2020/01/31 04:42:53.5	91.670	-0.200	-0.320	0.890
2020/01/31 04:42:53.6	91.680	-0.210	-0.310	0.890
2020/01/31 04:42:53.7	91.680	-0.220	-0.300	0.900
2020/01/31 04:42:53.8	91.680	-0.230	-0.290	0.910
2020/01/31 04:42:53.9	91.670	-0.240	-0.280	0.930
2020/01/31 04:42:54.0	91.670	-0.240	-0.270	0.940
2020/01/31 04:42:54.1	91.660	-0.250	-0.260	0.960
2020/01/31 04:42:54.2	91.640	-0.250	-0.260	0.970
2020/01/31 04:42:54.3	91.630	-0.250	-0.260	0.990
2020/01/31 04:42:54.4	91.620	-0.250	-0.260	1.010
2020/01/31 04:42:54.5	91.600	-0.250	-0.260	1.030
2020/01/31 04:42:54.6	91.590	-0.250	-0.270	1.040
2020/01/31 04:42:54.7	91.570	-0.250	-0.270	1.060
2020/01/31 04:42:54.8	91.550	-0.240	-0.280	1.080
2020/01/31 04:42:54.9	91.540	-0.240	-0.290	1.090
2020/01/31 04:42:55.0	91.520	-0.230	-0.310	1.100
2020/01/31 04:42:55.1	91.500	-0.220	-0.320	1.100
2020/01/31 04:42:55.2	91.490	-0.210	-0.340	1.110
2020/01/31 04:42:55.3	91.470	-0.200	-0.350	1.110
2020/01/31 04:42:55.4	91.460	-0.190	-0.370	1.110
2020/01/31 04:42:55.5	91.450	-0.170	-0.390	1.100
2020/01/31 04:42:55.6	91.440	-0.160	-0.410	1.080
2020/01/31 04:42:55.7	91.430	-0.140	-0.430	1.060
2020/01/31 04:42:55.8	91.430	-0.120	-0.450	1.040
2020/01/31 04:42:55.9	91.430	-0.100	-0.470	1.020
2020/01/31 04:42:56.0	91.430	-0.080	-0.490	0.990
2020/01/31 04:42:56.1	91.430	-0.050	-0.510	0.950
2020/01/31 04:42:56.2	91.440	-0.030	-0.540	0.920
2020/01/31 04:42:56.3	91.450	-0.000	-0.550	0.880
2020/01/31 04:42:56.4	91.460	0.020	-0.570	0.840
2020/01/31 04:42:56.5	91.480	0.050	-0.590	0.800
2020/01/31 04:42:56.6	91.490	0.080	-0.600	0.760
2020/01/31 04:42:56.7	91.500	0.110	-0.620	0.730
2020/01/31 04:42:56.8	91.520	0.140	-0.630	0.690
2020/01/31 04:42:56.9	91.530	0.170	-0.630	0.660
2020/01/31 04:42:57.0	91.540	0.200	-0.640	0.630
2020/01/31 04:42:57.1	91.550	0.230	-0.640	0.610
2020/01/31 04:42:57.2	91.560	0.260	-0.630	0.590
2020/01/31 04:42:57.3	91.560	0.290	-0.620	0.570
2020/01/31 04:42:57.4	91.560	0.310	-0.610	0.560
2020/01/31 04:42:57.5	91.560	0.340	-0.590	0.550
2020/01/31 04:42:57.6	91.560	0.360	-0.570	0.540
2020/01/31 04:42:57.7	91.550	0.380	-0.540	0.540
2020/01/31 04:42:57.8	91.550	0.400	-0.510	0.540
2020/01/31 04:42:57.9	91.530	0.410	-0.470	0.550
2020/01/31 04:42:58.0	91.520	0.420	-0.440	0.560
2020/01/31 04:42:58.1	91.500	0.430	-0.390	0.560
2020/01/31 04:42:58.2	91.490	0.440	-0.350	0.580
2020/01/31 04:42:58.3	91.470	0.440	-0.300	0.580
2020/01/31 04:42:58.4	91.450	0.440	-0.260	0.590
2020/01/31 04:42:58.5	91.420	0.430	-0.210	0.600
2020/01/31 04:42:58.6	91.400	0.420	-0.160	0.600
2020/01/31 04:42:58.7	91.370	0.410	-0.110	0.610
2020/01/31 04:42:58.8	91.340	0.400	-0.060	0.610
2020/01/31 04:42:58.9	91.310	0.380	-0.010	0.610
2020/01/31 04:42:59.0	91.280	0.360	0.030	0.610
2020/01/31 04:42:59.1	91.260	0.340	0.080	0.600
2020/01/31 04:42:59.2	91.230	0.320	0.120	0.600
2020/01/31 04:42:59.3	91.200	0.290	0.160	0.590
2020/01/31 04:42:59.4	91.180	0.260	0.190	0.580
2020/01/31 04:42:59.5	91.150	0.230	0.220	0.570
2020/01/31 04:42:59.6	91.130	0.200	0.250	0.560
2020/01/31 04:42:59.7	91.110	0.160	0.280	0.550
2020/01/31 04:42:59.8	91.090	0.130	0.290	0.540
2020/01/31 04:42:59.9	91.070	0.090	0.310	0.530
2020/01/31 04:43:00.0	91.060	0.050	0.320	0.520
2020/01/31 04:43:00.1	91.050	0.010	0.320	0.510
2020/01/31 04:43:00.2	91.050	-0.020	0.320	0.500
2020/01/31 04:43:00.3	91.040	-0.060	0.320	0.500
2020/01/31 04:43:00.4	91.030	-0.100	0.310	0.490
2020/01/31 04:43:00.5	91.030	-0.140	0.300	0.490
2020/01/31 04:43:00.6	91.030	-0.180	0.290	0.490
2020/01/31 04:43:00.7	91.030	-0.210	0.270	0.500
2020/01/31 04:43:00.8	91.040	-0.250	0.260	0.510
2020/01/31 04:43:00.9	91.040	-0.280	0.240	0.520
2020/01/31 04:43:01.0	91.050	-0.320	0.210	0.530
2020/01/31 04:43:01.1	91.050	-0.350	0.190	0.550
2020/01/31 04:43:01.2	91.060	-0.380	0.170	0.570
2020/01/31 04:43:01.3	91.070	-0.410	0.140	0.580
2020/01/31 04:43:01.4	91.080	-0.430	0.120	0.600
2020/01/31 04:43:01.5	91.100	-0.460	0.090	0.620
2020/01/31 04:43:01.6	91.110	-0.480	0.070	0.630
2020/01/31 04:43:01.7	91.120	-0.500	0.040	0.650
2020/01/31 04:43:01.8	91.130	-0.520	0.010	0.660
2020/01/31 04:43:01.9	91.140	-0.530	-0.010	0.670
2020/01/31 04:43:02.0	91.160	-0.550	-0.040	0.680
2020/01/31 04:43:02.1	91.170	-0.560	-0.060	0.690
2020/01/31 04:43:02.2	91.180	-0.560	-0.100	0.700
2020/01/31 04:43:02.3	91.190	-0.570	-0.120	0.700
2020/01/31 04:43:02.4	91.200	-0.570	-0.150	0.700
2020/01/31 04:43:02.5	91.210	-0.560	-0.180	0.700
2020/01/31 04:43:02.6	91.210	-0.560	-0.210	0.700
2020/01/31 04:43:02.7	91.220	-0.550	-0.250	0.700
2020/01/31 04:43:02.8	91.220	-0.540	-0.280	0.710
2020/01/31 04:43:02.9	91.230	-0.520	-0.320	0.710
2020/01/31 04:43:03.0	91.230	-0.500	-0.350	0.710
2020/01/31 04:43:03.1	91.230	-0.480	-0.390	0.710
2020/01/31 04:43:03.2	91.230	-0.460	-0.420	0.720
2020/01/31 04:43:03.3	91.230	-0.430	-0.460	0.730
2020/01/31 04:43:03.4	91.220	-0.400	-0.500	0.740
2020/01/31 04:43:03.5	91.220	-0.370	-0.530	0.760
2020/01/31 04:43:03.6	91.210	-0.340	-0.570	0.770
2020/01/31 04:43:03.7	91.200	-0.310	-0.600	0.790
2020/01/31 04:43:03.8	91.200	-0.270	-0.630	0.810
2020/01/31 04:43:03.9	91.190	-0.240	-0.650	0.840
2020/01/31 04:43:04.0	91.180	-0.200	-0.680	0.870
2020/01/31 04:43:04.1	91.170	-0.170	-0.690	0.900
2020/01/31 04:43:04.2	91.160	-0.140	-0.710	0.930
2020/01/31 04:43:04.3	91.150	-0.110	-0.720	0.970
2020/01/31 04:43:04.4	91.140	-0.080	-0.720	1.010
2020/01/31 04:43:04.5	91.130	-0.050	-0.720	1.040
2020/01/31 04:43:04.6	91.120	-0.020	-0.720	1.080
2020/01/31 04:43:04.7	91.110	0.010	-0.710	1.120
2020/01/31 04:43:04.8	91.110	0.030	-0.700	1.150
2020/01/31 04:43:04.9	91.100	0.050	-0.680	1.190
2020/01/31 04:43:05.0	91.090	0.070	-0.660	1.220
2020/01/31 04:43:05.1	91.090	0.090	-0.630	1.250
2020/01/31 04:43:05.2	91.080	0.100	-0.600	1.270
2020/01/31 04:43:05.3	91.080	0.110	-0.570	1.290
2020/01/31 04:43:05.4	91.080	0.130	-0.530	1.300
2020/01/31 04:43:05.5	91.080	0.130	-0.500	1.310
2020/01/31 04:43:05.6	91.080	0.140	-0.460	1.310
2020/01/31 04:43:05.7	91.080	0.150	-0.420	1.300
2020/01/31 04:43:05.8	91.080	0.150	-0.380	1.290
2020/01/31 04:43:05.9	91.080	0.150	-0.340	1.270
2020/01/31 04:43:06.0	91.090	0.160	-0.300	1.240
2020/01/31 04:43:06.1	91.090	0.160	-0.260	1.210
2020/01/31 04:43:06.2	91.100	0.160	-0.220	1.170
2020/01/31 04:43:06.3	91.100	0.160	-0.180	1.130
2020/01/31 04:43:06.4	91.110	0.160	-0.140	1.080
2020/01/31 04:43:06.5	91.110	0.160	-0.110	1.030
2020/01/31 04:43:06.6	91.120	0.160	-0.070	0.980
2020/01/31 04:43:06.7	91.120	0.150	-0.040	0.930
2020/01/31 04:43:06.8	91.130	0.150	-0.010	0.870
2020/01/31 04:43:06.9	91.140	0.150	0.020	0.820
2020/01/31 04:43:07.0	91.140	0.160	0.050	0.760
2020/01/31 04:43:07.1	91.150	0.160	0.080	0.710
2020/01/31 04:43:07.2	91.160	0.160	0.110	0.660
2020/01/31 04:43:07.3	91.170	0.160	0.130	0.610
2020/01/31 04:43:07.4	91.180	0.160	0.150	0.570
2020/01/31 04:43:07.5	91.190	0.170	0.160	0.520
2020/01/31 04:43:07.6	91.190	0.170	0.180	0.490
2020/01/31 04:43:07.7	91.200	0.180	0.190	0.450
2020/01/31 04:43:07.8	91.210	0.190	0.190	0.420
2020/01/31 04:43:07.9	91.220	0.190	0.190	0.390
2020/01/31 04:43:08.0	91.230	0.200	0.190	0.370
2020/01/31 04:43:08.1	91.230	0.210	0.180	0.350
2020/01/31 04:43:08.2	91.240	0.230	0.160	0.330
2020/01/31 04:43:08.3	91.240	0.240	0.140	0.310
2020/01/31 04:43:08.4	91.250	0.250	0.120	0.300
2020/01/31 04:43:08.5	91.250	0.270	0.090	0.300
2020/01/31 04:43:08.6	91.250	0.280	0.050	0.290
2020/01/31 04:43:08.7	91.260	0.300	0.020	0.290
2020/01/31 04:43:08.8	91.260	0.310	-0.020	0.290
2020/01/31 04:43:08.9	91.260	0.330	-0.060	0.300
2020/01/31 04:43:09.0	91.260	0.350	-0.110	0.300
2020/01/31 04:43:09.1	91.260	0.360	-0.150	0.300
2020/01/31 04:43:09.2	91.260	0.380	-0.200	0.310
2020/01/31 04:43:09.3	91.260	0.390	-0.250	0.320
2020/01/31 04:43:09.4	91.250	0.410	-0.290	0.320
2020/01/31 04:43:09.5	91.250	0.420	-0.340	0.330
2020/01/31 04:43:09.6	91.250	0.430	-0.380	0.340
2020/01/31 04:43:09.7	91.250	0.440	-0.420	0.350
2020/01/31 04:43:09.8	91.240	0.440	-0.460	0.370
2020/01/31 04:43:09.9	91.240	0.450	-0.490	0.380
2020/01/31 04:43:10.0	91.230	0.450	-0.520	0.400
2020/01/31 04:43:10.1	91.220	0.450	-0.540	0.430
2020/01/31 04:43:10.2	91.210	0.440	-0.560	0.450
2020/01/31 04:43:10.3	91.200	0.440	-0.570	0.480
2020/01/31 04:43:10.4	91.200	0.430	-0.580	0.500
2020/01/31 04:43:10.5	91.190	0.410	-0.580	0.540
2020/01/31 04:43:10.6	91.180	0.390	-0.570	0.570
2020/01/31 04:43:10.7	91.170	0.370	-0.560	0.600
2020/01/31 04:43:10.8	91.160	0.350	-0.550	0.640
2020/01/31 04:43:10.9	91.150	0.320	-0.520	0.670
2020/01/31 04:43:11.0	91.140	0.290	-0.500	0.710
2020/01/31 04:43:11.1	91.130	0.260	-0.470	0.740
2020/01/31 04:43:11.2	91.130	0.220	-0.430	0.780
2020/01/31 04:43:11.3	91.120	0.180	-0.390	0.810
2020/01/31 04:43:11.4	91.120	0.140	-0.350	0.840
2020/01/31 04:43:11.5	91.110	0.100	-0.310	0.860
2020/01/31 04:43:11.6	91.110	0.050	-0.270	0.890
2020/01/31 04:43:11.7	91.100	0.010	-0.230	0.910
2020/01/31 04:43:11.8	91.100	-0.040	-0.190	0.920
2020/01/31 04:43:11.9	91.100	-0.080	-0.150	0.940
2020/01/31 04:43:12.0	91.100	-0.130	-0.110	0.950
2020/01/31 04:43:12.1	91.100	-0.170	-0.080	0.960
2020/01/31 04:43:12.2	91.100	-0.210	-0.050	0.970
2020/01/31 04:43:12.3	91.110	-0.250	-0.020	0.980
2020/01/31 04:43:12.4	91.110	-0.280	-0.000	0.980
2020/01/31 04:43:12.5	91.120	-0.310	0.020	0.980
2020/01/31 04:43:12.6	91.120	-0.340	0.030	0.980
2020/01/31 04:43:12.7	91.130	-0.370	0.040	0.980
2020/01/31 04:43:12.8	91.140	-0.380	0.040	0.980
2020/01/31 04:43:12.9	91.140	-0.400	0.040	0.980
2020/01/31 04:43:13.0	91.150	-0.410	0.030	0.980
2020/01/31 04:43:13.1	91.150	-0.410	0.020	0.980
2020/01/31 04:43:13.2	91.160	-0.410	0.010	0.980
2020/01/31 04:43:13.3	91.170	-0.410	-0.010	0.980
2020/01/31 04:43:13.4	91.170	-0.400	-0.030	0.980
2020/01/31 04:43:13.5	91.180	-0.390	-0.060	0.980
2020/01/31 04:43:13.6	91.190	-0.380	-0.090	0.980
2020/01/31 04:43:13.7	91.190	-0.360	-0.120	0.980
2020/01/31 04:43:13.8	91.200	-0.330	-0.150	0.980
2020/01/31 04:43:13.9	91.210	-0.310	-0.190	0.980
2020/01/31 04:43:14.0	91.210	-0.280	-0.220	0.980
2020/01/31 04:43:14.1	91.220	-0.250	-0.260	0.980
2020/01/31 04:43:14.2	91.240	-0.220	-0.300	0.990
2020/01/31 04:43:14.3	91.240	-0.190	-0.340	0.990
2020/01/31 04:43:14.4	91.250	-0.160	-0.380	1.000
2020/01/31 04:43:14.5	91.260	-0.120	-0.420	1.000
2020/01/31 04:43:14.6	91.270	-0.090	-0.450	1.010
2020/01/31 04:43:14.7	91.280	-0.060	-0.490	1.010
2020/01/31 04:43:14.8	91.280	-0.030	-0.520	1.010
2020/01/31 04:43:14.9	91.290	-0.000	-0.550	1.020
2020/01/31 04:43:15.0	91.310	0.020	-0.580	1.020
2020/01/31 04:43:15.1	91.320	0.050	-0.600	1.020
2020/01/31 04:43:15.2	91.340	0.070	-0.620	1.020
2020/01/31 04:43:15.3	91.350	0.080	-0.630	1.020
2020/01/31 04:43:15.4	91.370	0.090	-0.640	1.010
2020/01/31 04:43:15.5	91.380	0.100	-0.640	1.000
2020/01/31 04:43:15.6	91.400	0.100	-0.630	0.990
2020/01/31 04:43:15.7	91.410	0.100	-0.620	0.980
2020/01/31 04:43:15.8	91.420	0.090	-0.600	0.970
2020/01/31 04:43:15.9	91.440	0.070	-0.570	0.950
2020/01/31 04:43:16.0	91.450	0.060	-0.530	0.940
2020/01/31 04:43:16.1	91.460	0.040	-0.490	0.920
2020/01/31 04:43:16.2	91.470	0.010	-0.440	0.900
2020/01/31 04:43:16.3	91.480	-0.020	-0.380	0.870
2020/01/31 04:43:16.4	91.490	-0.060	-0.320	0.850
2020/01/31 04:43:16.5	91.490	-0.100	-0.250	0.820
2020/01/31 04:43:16.6	91.500	-0.140	-0.170	0.800
2020/01/31 04:43:16.7	91.500	-0.180	-0.100	0.770
2020/01/31 04:43:16.8	91.500	-0.230	-0.020	0.750
2020/01/31 04:43:16.9	91.500	-0.270	0.070	0.720
2020/01/31 04:43:17.0	91.500	-0.320	0.150	0.700
2020/01/31 04:43:17.1	91.500	-0.370	0.230	0.670
2020/01/31 04:43:17.2	91.490	-0.420	0.320	0.650
2020/01/31 04:43:17.3	91.490	-0.470	0.390	0.620
2020/01/31 04:43:17.4	91.480	-0.510	0.470	0.600
2020/01/31 04:43:17.5	91.470	-0.560	0.540	0.580
2020/01/31 04:43:17.6	91.460	-0.590	0.600	0.560
2020/01/31 04:43:17.7	91.450	-0.630	0.650	0.540
2020/01/31 04:43:17.8	91.440	-0.660	0.700	0.530
2020/01/31 04:43:17.9	91.430	-0.690	0.730	0.510
2020/01/31 04:43:18.0	91.410	-0.710	0.750	0.490
2020/01/31 04:43:18.1	91.400	-0.720	0.760	0.470
2020/01/31 04:43:18.2	91.400	-0.730	0.760	0.460
2020/01/31 04:43:18.3	91.400	-0.730	0.740	0.440
2020/01/31 04:43:18.4	91.390	-0.730	0.710	0.420
2020/01/31 04:43:18.5	91.380	-0.710	0.670	0.410
2020/01/31 04:43:18.6	91.380	-0.690	0.620	0.390
2020/01/31 04:43:18.7	91.380	-0.670	0.550	0.380
2020/01/31 04:43:18.8	91.380	-0.640	0.470	0.360
2020/01/31 04:43:18.9	91.370	-0.600	0.390	0.350
2020/01/31 04:43:19.0	91.370	-0.550	0.290	0.340
2020/01/31 04:43:19.1	91.380	-0.500	0.190	0.320
2020/01/31 04:43:19.2	91.370	-0.450	0.080	0.310
2020/01/31 04:43:19.3	91.380	-0.390	-0.040	0.300
2020/01/31 04:43:19.4	91.380	-0.330	-0.160	0.290
2020/01/31 04:43:19.5	91.380	-0.260	-0.280	0.280
2020/01/31 04:43:19.6	91.380	-0.190	-0.390	0.270
2020/01/31 04:43:19.7	91.390	-0.130	-0.510	0.260
2020/01/31 04:43:19.8	91.390	-0.060	-0.630	0.240
2020/01/31 04:43:19.9	91.390	0.010	-0.740	0.230
2020/01/31 04:43:20.0	91.400	0.080	-0.850	0.220
2020/01/31 04:43:20.1	91.400	0.150	-0.950	0.200
2020/01/31 04:43:20.2	91.410	0.220	-1.050	0.190
2020/01/31 04:43:20.3	91.420	0.280	-1.130	0.170
2020/01/31 04:43:20.4	91.430	0.340	-1.210	0.160
2020/01/31 04:43:20.5	91.440	0.400	-1.270	0.140
2020/01/31 04:43:20.6	91.450	0.450	-1.320	0.120
2020/01/31 04:43:20.7	91.450	0.490	-1.360	0.110
2020/01/31 04:43:20.8	91.460	0.540	-1.380	0.100
2020/01/31 04:43:20.9	91.470	0.570	-1.390	0.090
2020/01/31 04:43:21.0	91.480	0.600	-1.390	0.090
2020/01/31 04:43:21.1	91.480	0.630	-1.370	0.090
2020/01/31 04:43:21.2	91.490	0.650	-1.340	0.090
2020/01/31 04:43:21.3	91.490	0.660	-1.300	0.100
2020/01/31 04:43:21.4	91.490	0.670	-1.250	0.110
2020/01/31 04:43:21.5	91.490	0.680	-1.180	0.130
2020/01/31 04:43:21.6	91.490	0.670	-1.110	0.160
2020/01/31 04:43:21.7	91.490	0.670	-1.020	0.190
2020/01/31 04:43:21.8	91.490	0.660	-0.920	0.220
2020/01/31 04:43:21.9	91.480	0.640	-0.820	0.260
2020/01/31 04:43:22.0	91.480	0.620	-0.710	0.310
2020/01/31 04:43:22.1	91.470	0.590	-0.600	0.350
2020/01/31 04:43:22.2	91.450	0.570	-0.470	0.410
2020/01/31 04:43:22.3	91.440	0.540	-0.350	0.460
2020/01/31 04:43:22.4	91.430	0.500	-0.230	0.510
2020/01/31 04:43:22.5	91.410	0.470	-0.110	0.570
2020/01/31 04:43:22.6	91.400	0.430	0.000	0.620
2020/01/31 04:43:22.7	91.380	0.400	0.110	0.670
2020/01/31 04:43:22.8	91.360	0.360	0.220	0.730
2020/01/31 04:43:22.9	91.340	0.320	0.320	0.770
2020/01/31 04:43:23.0	91.320	0.280	0.410	0.820
2020/01/31 04:43:23.1	91.300	0.250	0.490	0.860
2020/01/31 04:43:23.2	91.280	0.210	0.570	0.900
2020/01/31 04:43:23.3	91.260	0.180	0.630	0.930
2020/01/31 04:43:23.4	91.240	0.150	0.680	0.960
2020/01/31 04:43:23.5	91.220	0.120	0.720	0.980
2020/01/31 04:43:23.6	91.200	0.090	0.740	0.990
2020/01/31 04:43:23.7	91.180	0.070	0.750	1.000
2020/01/31 04:43:23.8	91.160	0.050	0.760	1.010
2020/01/31 04:43:23.9	91.140	0.030	0.740	1.010
2020/01/31 04:43:24.0	91.120	0.020	0.720	1.000
2020/01/31 04:43:24.1	91.100	0.010	0.680	0.990
2020/01/31 04:43:24.2	91.090	-0.000	0.640	0.980
2020/01/31 04:43:24.3	91.070	-0.000	0.580	0.960
2020/01/31 04:43:24.4	91.060	-0.010	0.520	0.940
2020/01/31 04:43:24.5	91.050	-0.000	0.440	0.930
2020/01/31 04:43:24.6	91.040	0.000	0.360	0.910
2020/01/31 04:43:24.7	91.030	0.010	0.280	0.890
2020/01/31 04:43:24.8	91.030	0.020	0.190	0.870
2020/01/31 04:43:24.9	91.020	0.030	0.090	0.860
2020/01/31 04:43:25.0	91.020	0.040	-0.000	0.840
2020/01/31 04:43:25.1	91.030	0.050	-0.100	0.830
2020/01/31 04:43:25.2	91.030	0.060	-0.200	0.820
2020/01/31 04:43:25.3	91.040	0.080	-0.290	0.820
2020/01/31 04:43:25.4	91.050	0.090	-0.380	0.810
2020/01/31 04:43:25.5	91.060	0.100	-0.460	0.810
2020/01/31 04:43:25.6	91.070	0.110	-0.540	0.810
2020/01/31 04:43:25.7	91.090	0.120	-0.620	0.810
2020/01/31 04:43:25.8	91.110	0.130	-0.680	0.810
2020/01/31 04:43:25.9	91.130	0.130	-0.740	0.810
2020/01/31 04:43:26.0	91.150	0.140	-0.780	0.800
2020/01/31 04:43:26.1	91.170	0.140	-0.820	0.800
2020/01/31 04:43:26.2	91.190	0.130	-0.850	0.800
2020/01/31 04:43:26.3	91.210	0.130	-0.870	0.790
2020/01/31 04:43:26.4	91.240	0.120	-0.880	0.790
2020/01/31 04:43:26.5	91.270	0.110	-0.880	0.780
2020/01/31 04:43:26.6	91.300	0.090	-0.860	0.770
2020/01/31 04:43:26.7	91.320	0.070	-0.840	0.760
2020/01/31 04:43:26.8	91.350	0.050	-0.810	0.750
2020/01/31 04:43:26.9	91.380	0.030	-0.770	0.740
2020/01/31 04:43:27.0	91.400	0.010	-0.720	0.740
2020/01/31 04:43:27.1	91.430	-0.020	-0.660	0.730
2020/01/31 04:43:27.2	91.450	-0.050	-0.590	0.730
2020/01/31 04:43:27.3	91.470	-0.080	-0.520	0.730
2020/01/31 04:43:27.4	91.490	-0.110	-0.440	0.740
2020/01/31 04:43:27.5	91.510	-0.140	-0.370	0.750
2020/01/31 04:43:27.6	91.520	-0.170	-0.290	0.760
2020/01/31 04:43:27.7	91.540	-0.200	-0.200	0.780
2020/01/31 04:43:27.8	91.550	-0.230	-0.120	0.810
2020/01/31 04:43:27.9	91.560	-0.260	-0.040	0.840
2020/01/31 04:43:28.0	91.560	-0.290	0.040	0.870
2020/01/31 04:43:28.1	91.570	-0.320	0.120	0.910
2020/01/31 04:43:28.2	91.570	-0.350	0.190	0.950
2020/01/31 04:43:28.3	91.570	-0.370	0.260	1.000
2020/01/31 04:43:28.4	91.570	-0.400	0.320	1.050
2020/01/31 04:43:28.5	91.560	-0.420	0.370	1.100
2020/01/31 04:43:28.6	91.550	-0.440	0.420	1.150
2020/01/31 04:43:28.7	91.540	-0.460	0.450	1.200
2020/01/31 04:43:28.8	91.530	-0.470	0.480	1.260
2020/01/31 04:43:28.9	91.520	-0.480	0.500	1.300
2020/01/31 04:43:29.0	91.510	-0.490	0.510	1.350
2020/01/31 04:43:29.1	91.490	-0.500	0.510	1.390
2020/01/31 04:43:29.2	91.480	-0.500	0.500	1.430
2020/01/31 04:43:29.3	91.470	-0.500	0.480	1.470
2020/01/31 04:43:29.4	91.460	-0.490	0.450	1.500
2020/01/31 04:43:29.5	91.460	-0.490	0.410	1.520
2020/01/31 04:43:29.6	91.450	-0.480	0.360	1.540
2020/01/31 04:43:29.7	91.450	-0.460	0.300	1.550
2020/01/31 04:43:29.8	91.440	-0.450	0.240	1.560
2020/01/31 04:43:29.9	91.440	-0.430	0.170	1.560
2020/01/31 04:43:30.0	91.440	-0.410	0.100	1.550
2020/01/31 04:43:30.1	91.440	-0.390	0.020	1.540
2020/01/31 04:43:30.2	91.440	-0.360	-0.070	1.520
2020/01/31 04:43:30.3	91.440	-0.330	-0.150	1.500
2020/01/31 04:43:30.4	91.450	-0.310	-0.230	1.470
2020/01/31 04:43:30.5	91.450	-0.280	-0.320	1.440
2020/01/31 04:43:30.6	91.450	-0.250	-0.400	1.400
2020/01/31 04:43:30.7	91.460	-0.220	-0.480	1.360
2020/01/31 04:43:30.8	91.460	-0.190	-0.550	1.310
2020/01/31 04:43:30.9	91.460	-0.160	-0.620	1.270
2020/01/31 04:43:31.0	91.470	-0.140	-0.680	1.220
2020/01/31 04:43:31.1	91.470	-0.110	-0.740	1.170
2020/01/31 04:43:31.2	91.460	-0.080	-0.790	1.110
2020/01/31 04:43:31.3	91.460	-0.050	-0.840	1.060
2020/01/31 04:43:31.4	91.460	-0.030	-0.870	1.000
2020/01/31 04:43:31.5	91.450	-0.000	-0.900	0.950
2020/01/31 04:43:31.6	91.450	0.020	-0.910	0.900
2020/01/31 04:43:31.7	91.440	0.040	-0.920	0.850
2020/01/31 04:43:31.8	91.430	0.060	-0.920	0.800
2020/01/31 04:43:31.9	91.420	0.080	-0.910	0.750
2020/01/31 04:43:32.0	91.410	0.100	-0.900	0.700
2020/01/31 04:43:32.1	91.400	0.120	-0.880	0.660
2020/01/31 04:43:32.2	91.390	0.140	-0.850	0.620
2020/01/31 04:43:32.3	91.380	0.160	-0.810	0.580
2020/01/31 04:43:32.4	91.360	0.170	-0.770	0.540
2020/01/31 04:43:32.5	91.350	0.190	-0.730	0.510
2020/01/31 04:43:32.6	91.330	0.200	-0.690	0.480
2020/01/31 04:43:32.7	91.320	0.220	-0.640	0.450
2020/01/31 04:43:32.8	91.310	0.230	-0.590	0.420
2020/01/31 04:43:32.9	91.300	0.250	-0.540	0.400
2020/01/31 04:43:33.0	91.280	0.260	-0.500	0.380
2020/01/31 04:43:33.1	91.270	0.280	-0.450	0.360
2020/01/31 04:43:33.2	91.260	0.290	-0.410	0.340
2020/01/31 04:43:33.3	91.250	0.310	-0.370	0.330
2020/01/31 04:43:33.4	91.250	0.320	-0.330	0.310
2020/01/31 04:43:33.5	91.240	0.340	-0.300	0.300
2020/01/31 04:43:33.6	91.230	0.350	-0.270	0.290
2020/01/31 04:43:33.7	91.230	0.370	-0.240	0.290
2020/01/31 04:43:33.8	91.220	0.380	-0.220	0.280
2020/01/31 04:43:33.9	91.220	0.390	-0.200	0.280
2020/01/31 04:43:34.0	91.220	0.400	-0.180	0.270
2020/01/31 04:43:34.1	91.220	0.410	-0.170	0.260
2020/01/31 04:43:34.2	91.240	0.410	-0.160	0.260
2020/01/31 04:43:34.3	91.240	0.420	-0.150	0.250
2020/01/31 04:43:34.4	91.250	0.420	-0.140	0.250
2020/01/31 04:43:34.5	91.260	0.420	-0.140	0.240
2020/01/31 04:43:34.6	91.270	0.420	-0.130	0.230
2020/01/31 04:43:34.7	91.290	0.410	-0.130	0.230
2020/01/31 04:43:34.8	91.300	0.410	-0.120	0.220
2020/01/31 04:43:34.9	91.320	0.400	-0.120	0.220
2020/01/31 04:43:35.0	91.330	0.380	-0.110	0.220
2020/01/31 04:43:35.1	91.350	0.370	-0.110	0.220
2020/01/31 04:43:35.2	91.370	0.350	-0.100	0.220
2020/01/31 04:43:35.3	91.390	0.330	-0.100	0.220
2020/01/31 04:43:35.4	91.410	0.310	-0.090	0.230
2020/01/31 04:43:35.5	91.430	0.280	-0.080	0.230
2020/01/31 04:43:35.6	91.440	0.250	-0.070	0.240
2020/01/31 04:43:35.7	91.460	0.230	-0.050	0.260
2020/01/31 04:43:35.8	91.480	0.200	-0.040	0.270
2020/01/31 04:43:35.9	91.490	0.170	-0.030	0.290
2020/01/31 04:43:36.0	91.510	0.130	-0.010	0.300
2020/01/31 04:43:36.1	91.520	0.100	0.010	0.320
2020/01/31 04:43:36.2	91.540	0.070	0.030	0.350
2020/01/31 04:43:36.3	91.550	0.030	0.050	0.370
2020/01/31 04:43:36.4	91.560	0.000	0.070	0.400
2020/01/31 04:43:36.5	91.570	-0.030	0.090	0.420
2020/01/31 04:43:36.6	91.580	-0.060	0.110	0.450
2020/01/31 04:43:36.7	91.590	-0.090	0.130	0.480
2020/01/31 04:43:36.8	91.600	-0.130	0.150	0.510
2020/01/31 04:43:36.9	91.600	-0.160	0.170	0.540
2020/01/31 04:43:37.0	91.610	-0.180	0.190	0.570
2020/01/31 04:43:37.1	91.610	-0.210	0.210	0.610
2020/01/31 04:43:37.2	91.610	-0.230	0.220	0.640
2020/01/31 04:43:37.3	91.620	-0.260	0.240	0.670
2020/01/31 04:43:37.4	91.620	-0.280	0.240	0.700
2020/01/31 04:43:37.5	91.620	-0.300	0.250	0.720
2020/01/31 04:43:37.6	91.620	-0.320	0.250	0.750
2020/01/31 04:43:37.7	91.630	-0.330	0.250	0.770
2020/01/31 04:43:37.8	91.630	-0.350	0.240	0.800
2020/01/31 04:43:37.9	91.630	-0.360	0.230	0.820
2020/01/31 04:43:38.0	91.640	-0.370	0.210	0.840
2020/01/31 04:43:38.1	91.640	-0.370	0.190	0.860
2020/01/31 04:43:38.2	91.650	-0.380	0.170	0.870
2020/01/31 04:43:38.3	91.660	-0.380	0.140	0.890
2020/01/31 04:43:38.4	91.660	-0.380	0.110	0.910
2020/01/31 04:43:38.5	91.670	-0.380	0.080	0.930
2020/01/31 04:43:38.6	91.670	-0.380	0.040	0.950
2020/01/31 04:43:38.7	91.670	-0.380	0.000	0.970
2020/01/31 04:43:38.8	91.680	-0.370	-0.040	0.990
2020/01/31 04:43:38.9	91.680	-0.360	-0.080	1.010
2020/01/31 04:43:39.0	91.680	-0.360	-0.120	1.030
2020/01/31 04:43:39.1	91.680	-0.350	-0.170	1.050
2020/01/31 04:43:39.2	91.680	-0.340	-0.210	1.080
2020/01/31 04:43:39.3	91.680	-0.330	-0.250	1.100
2020/01/31 04:43:39.4	91.670	-0.320	-0.290	1.120
2020/01/31 04:43:39.5	91.670	-0.300	-0.330	1.130
2020/01/31 04:43:39.6	91.660	-0.290	-0.360	1.150
2020/01/31 04:43:39.7	91.650	-0.280	-0.390	1.160
2020/01/31 04:43:39.8	91.650	-0.270	-0.410	1.170
2020/01/31 04:43:39.9	91.640	-0.250	-0.430	1.180
2020/01/31 04:43:40.0	91.630	-0.240	-0.450	1.180
2020/01/31 04:43:40.1	91.620	-0.230	-0.460	1.180
2020/01/31 04:43:40.2	91.600	-0.210	-0.470	1.180
2020/01/31 04:43:40.3	91.580	-0.200	-0.480	1.170
2020/01/31 04:43:40.4	91.570	-0.190	-0.480	1.160
2020/01/31 04:43:40.5	91.560	-0.170	-0.470	1.140
2020/01/31 04:43:40.6	91.550	-0.160	-0.470	1.120
2020/01/31 04:43:40.7	91.530	-0.140	-0.460	1.100
2020/01/31 04:43:40.8	91.520	-0.130	-0.450	1.080
2020/01/31 04:43:40.9	91.510	-0.110	-0.440	1.050
2020/01/31 04:43:41.0	91.500	-0.090	-0.420	1.020
2020/01/31 04:43:41.1	91.480	-0.070	-0.410	0.990
2020/01/31 04:43:41.2	91.470	-0.050	-0.400	0.950
2020/01/31 04:43:41.3	91.460	-0.030	-0.390	0.920
2020/01/31 04:43:41.4	91.450	-0.010	-0.380	0.880
2020/01/31 04:43:41.5	91.440	0.020	-0.380	0.840
2020/01/31 04:43:41.6	91.440	0.050	-0.380	0.810
2020/01/31 04:43:41.7	91.430	0.080	-0.390	0.770
2020/01/31 04:43:41.8	91.430	0.110	-0.400	0.730
2020/01/31 04:43:41.9	91.420	0.140	-0.410	0.690
2020/01/31 04:43:42.0	91.420	0.180	-0.430	0.660
2020/01/31 04:43:42.1	91.420	0.220	-0.450	0.620
2020/01/31 04:43:42.2	91.410	0.260	-0.480	0.590
2020/01/31 04:43:42.3	91.410	0.300	-0.510	0.560
2020/01/31 04:43:42.4	91.410	0.350	-0.550	0.530
2020/01/31 04:43:42.5	91.410	0.390	-0.580	0.500
2020/01/31 04:43:42.6	91.410	0.440	-0.620	0.470
2020/01/31 04:43:42.7	91.420	0.480	-0.660	0.440
2020/01/31 04:43:42.8	91.420	0.530	-0.700	0.420
2020/01/31 04:43:42.9	91.430	0.570	-0.730	0.390
2020/01/31 04:43:43.0	91.440	0.620	-0.770	0.370
2020/01/31 04:43:43.1	91.450	0.660	-0.800	0.350
2020/01/31 04:43:43.2	91.460	0.700	-0.840	0.340
2020/01/31 04:43:43.3	91.470	0.730	-0.860	0.330
2020/01/31 04:43:43.4	91.480	0.760	-0.880	0.320
2020/01/31 04:43:43.5	91.480	0.790	-0.900	0.310
2020/01/31 04:43:43.6	91.490	0.810	-0.900	0.310
2020/01/31 04:43:43.7	91.500	0.830	-0.910	0.320
2020/01/31 04:43:43.8	91.500	0.840	-0.900	0.330
2020/01/31 04:43:43.9	91.500	0.850	-0.880	0.340
2020/01/31 04:43:44.0	91.500	0.850	-0.850	0.350
2020/01/31 04:43:44.1	91.500	0.840	-0.820	0.370
2020/01/31 04:43:44.2	91.490	0.820	-0.780	0.380
2020/01/31 04:43:44.3	91.490	0.800	-0.720	0.400
2020/01/31 04:43:44.4	91.480	0.770	-0.660	0.410
2020/01/31 04:43:44.5	91.470	0.730	-0.590	0.430
2020/01/31 04:43:44.6	91.460	0.690	-0.520	0.450
2020/01/31 04:43:44.7	91.450	0.640	-0.430	0.470
2020/01/31 04:43:44.8	91.440	0.580	-0.340	0.480
2020/01/31 04:43:44.9	91.430	0.520	-0.250	0.500
2020/01/31 04:43:45.0	91.410	0.450	-0.140	0.510
2020/01/31 04:43:45.1	91.400	0.380	-0.040	0.520
2020/01/31 04:43:45.2	91.380	0.300	0.080	0.540
2020/01/31 04:43:45.3	91.360	0.220	0.190	0.550
2020/01/31 04:43:45.4	91.340	0.130	0.300	0.560
2020/01/31 04:43:45.5	91.320	0.050	0.420	0.560
2020/01/31 04:43:45.6	91.310	-0.040	0.530	0.570
2020/01/31 04:43:45.7	91.290	-0.130	0.630	0.580
2020/01/31 04:43:45.8	91.270	-0.220	0.730	0.580
2020/01/31 04:43:45.9	91.250	-0.310	0.830	0.580
2020/01/31 04:43:46.0	91.230	-0.400	0.920	0.580
2020/01/31 04:43:46.1	91.210	-0.490	1.000	0.590
2020/01/31 04:43:46.2	91.200	-0.570	1.070	0.590
2020/01/31 04:43:46.3	91.180	-0.650	1.130	0.590
2020/01/31 04:43:46.4	91.170	-0.720	1.180	0.590
2020/01/31 04:43:46.5	91.160	-0.790	1.220	0.590
2020/01/31 04:43:46.6	91.150	-0.850	1.240	0.600
2020/01/31 04:43:46.7	91.130	-0.910	1.250	0.600
2020/01/31 04:43:46.8	91.120	-0.960	1.240	0.610
2020/01/31 04:43:46.9	91.110	-1.000	1.230	0.610
2020/01/31 04:43:47.0	91.110	-1.030	1.190	0.620
2020/01/31 04:43:47.1	91.100	-1.050	1.150	0.630
2020/01/31 04:43:47.2	91.090	-1.070	1.080	0.640
2020/01/31 04:43:47.3	91.080	-1.080	1.010	0.640
2020/01/31 04:43:47.4	91.080	-1.070	0.920	0.650
2020/01/31 04:43:47.5	91.080	-1.060	0.820	0.660
2020/01/31 04:43:47.6	91.080	-1.040	0.710	0.660
2020/01/31 04:43:47.7	91.080	-1.010	0.580	0.670
2020/01/31 04:43:47.8	91.080	-0.970	0.450	0.670
2020/01/31 04:43:47.9	91.090	-0.920	0.310	0.670
2020/01/31 04:43:48.0	91.100	-0.870	0.160	0.670
2020/01/31 04:43:48.1	91.110	-0.800	0.010	0.660
2020/01/31 04:43:48.2	91.110	-0.730	-0.160	0.650
2020/01/31 04:43:48.3	91.120	-0.660	-0.320	0.640
2020/01/31 04:43:48.4	91.140	-0.580	-0.480	0.630
2020/01/31 04:43:48.5	91.150	-0.490	-0.640	0.620
2020/01/31 04:43:48.6	91.170	-0.400	-0.790	0.600
2020/01/31 04:43:48.7	91.180	-0.310	-0.940	0.590
2020/01/31 04:43:48.8	91.200	-0.210	-1.090	0.570
2020/01/31 04:43:48.9	91.210	-0.120	-1.220	0.560
2020/01/31 04:43:49.0	91.220	-0.020	-1.350	0.540
2020/01/31 04:43:49.1	91.230	0.070	-1.470	0.530
2020/01/31 04:43:49.2	91.240	0.160	-1.570	0.520
2020/01/31 04:43:49.3	91.240	0.250	-1.660	0.520
2020/01/31 04:43:49.4	91.250	0.330	-1.740	0.510
2020/01/31 04:43:49.5	91.250	0.410	-1.800	0.500
2020/01/31 04:43:49.6	91.250	0.490	-1.840	0.500
2020/01/31 04:43:49.7	91.240	0.560	-1.870	0.500
2020/01/31 04:43:49.8	91.240	0.620	-1.880	0.500
2020/01/31 04:43:49.9	91.240	0.670	-1.870	0.510
2020/01/31 04:43:50.0	91.230	0.720	-1.850	0.510
2020/01/31 04:43:50.1	91.220	0.760	-1.810	0.520
2020/01/31 04:43:50.2	91.220	0.790	-1.760	0.530
2020/01/31 04:43:50.3	91.210	0.810	-1.690	0.550
2020/01/31 04:43:50.4	91.200	0.820	-1.610	0.570
2020/01/31 04:43:50.5	91.190	0.830	-1.510	0.590
2020/01/31 04:43:50.6	91.180	0.820	-1.410	0.610
2020/01/31 04:43:50.7	91.170	0.810	-1.290	0.640
2020/01/31 04:43:50.8	91.160	0.790	-1.160	0.670
2020/01/31 04:43:50.9	91.150	0.760	-1.030	0.700
2020/01/31 04:43:51.0	91.140	0.720	-0.890	0.730
2020/01/31 04:43:51.1	91.130	0.680	-0.740	0.750
2020/01/31 04:43:51.2	91.120	0.630	-0.590	0.790
2020/01/31 04:43:51.3	91.110	0.580	-0.440	0.810
2020/01/31 04:43:51.4	91.110	0.520	-0.290	0.840
2020/01/31 04:43:51.5	91.100	0.460	-0.130	0.860
2020/01/31 04:43:51.6	91.100	0.390	0.020	0.890
2020/01/31 04:43:51.7	91.100	0.330	0.160	0.910
2020/01/31 04:43:51.8	91.100	0.250	0.300	0.930
2020/01/31 04:43:51.9	91.100	0.180	0.440	0.950
2020/01/31 04:43:52.0	91.100	0.110	0.570	0.960
2020/01/31 04:43:52.1	91.100	0.040	0.690	0.970
2020/01/31 04:43:52.2	91.100	-0.040	0.810	0.990
2020/01/31 04:43:52.3	91.100	-0.110	0.920	0.990
2020/01/31 04:43:52.4	91.100	-0.180	1.010	1.000
2020/01/31 04:43:52.5	91.100	-0.250	1.100	1.010
2020/01/31 04:43:52.6	91.090	-0.320	1.180	1.010
2020/01/31 04:43:52.7	91.090	-0.380	1.250	1.010
2020/01/31 04:43:52.8	91.090	-0.450	1.320	1.010
2020/01/31 04:43:52.9	91.080	-0.500	1.370	1.010
2020/01/31 04:43:53.0	91.080	-0.560	1.410	1.010
2020/01/31 04:43:53.1	91.070	-0.610	1.430	1.000
2020/01/31 04:43:53.2	91.070	-0.650	1.450	0.990
2020/01/31 04:43:53.3	91.070	-0.690	1.450	0.990
2020/01/31 04:43:53.4	91.060	-0.730	1.450	0.980
2020/01/31 04:43:53.5	91.060	-0.760	1.420	0.960
2020/01/31 04:43:53.6	91.050	-0.780	1.390	0.950
2020/01/31 04:43:53.7	91.040	-0.790	1.340	0.940
2020/01/31 04:43:53.8	91.040	-0.800	1.280	0.920
2020/01/31 04:43:53.9	91.030	-0.800	1.200	0.900
2020/01/31 04:43:54.0	91.030	-0.790	1.110	0.880
2020/01/31 04:43:54.1	91.030	-0.780	1.010	0.850
2020/01/31 04:43:54.2	91.030	-0.760	0.900	0.830
2020/01/31 04:43:54.3	91.030	-0.730	0.770	0.800
2020/01/31 04:43:54.4	91.030	-0.700	0.630	0.770
2020/01/31 04:43:54.5	91.030	-0.660	0.490	0.730
2020/01/31 04:43:54.6	91.040	-0.610	0.340	0.700
2020/01/31 04:43:54.7	91.040	-0.550	0.180	0.660
2020/01/31 04:43:54.8	91.050	-0.490	0.010	0.630
2020/01/31 04:43:54.9	91.060	-0.430	-0.160	0.590
2020/01/31 04:43:55.0	91.060	-0.360	-0.330	0.560
2020/01/31 04:43:55.1	91.070	-0.290	-0.500	0.530
2020/01/31 04:43:55.2	91.080	-0.210	-0.670	0.500
2020/01/31 04:43:55.3	91.090	-0.130	-0.840	0.480
2020/01/31 04:43:55.4	91.100	-0.050	-1.000	0.460
2020/01/31 04:43:55.5	91.110	0.030	-1.160	0.440
2020/01/31 04:43:55.6	91.110	0.110	-1.300	0.430
2020/01/31 04:43:55.7	91.120	0.190	-1.440	0.420
2020/01/31 04:43:55.8	91.120	0.270	-1.560	0.420
2020/01/31 04:43:55.9	91.120	0.350	-1.680	0.420
2020/01/31 04:43:56.0	91.120	0.430	-1.780	0.430
2020/01/31 04:43:56.1	91.120	0.500	-1.860	0.430
2020/01/31 04:43:56.2	91.110	0.560	-1.930	0.450
2020/01/31 04:43:56.3	91.110	0.620	-1.980	0.460
2020/01/31 04:43:56.4	91.100	0.680	-2.010	0.480
2020/01/31 04:43:56.5	91.090	0.730	-2.020	0.490
2020/01/31 04:43:56.6	91.080	0.770	-2.020	0.510
2020/01/31 04:43:56.7	91.070	0.810	-2.000	0.530
2020/01/31 04:43:56.8	91.060	0.840	-1.970	0.550
2020/01/31 04:43:56.9	91.060	0.860	-1.910	0.570
2020/01/31 04:43:57.0	91.040	0.870	-1.840	0.590
2020/01/31 04:43:57.1	91.040	0.880	-1.760	0.600
2020/01/31 04:43:57.2	91.030	0.880	-1.660	0.620
2020/01/31 04:43:57.3	91.020	0.870	-1.550	0.640
2020/01/31 04:43:57.4	91.010	0.850	-1.420	0.660
2020/01/31 04:43:57.5	91.000	0.830	-1.290	0.680
2020/01/31 04:43:57.6	91.000	0.800	-1.150	0.690
2020/01/31 04:43:57.7	90.990	0.760	-1.000	0.710
2020/01/31 04:43:57.8	90.980	0.720	-0.840	0.730
2020/01/31 04:43:57.9	90.980	0.670	-0.690	0.740
2020/01/31 04:43:58.0	90.980	0.620	-0.530	0.760
2020/01/31 04:43:58.1	90.980	0.570	-0.370	0.770
2020/01/31 04:43:58.2	90.990	0.510	-0.200	0.790
2020/01/31 04:43:58.3	91.000	0.450	-0.050	0.800
2020/01/31 04:43:58.4	91.000	0.390	0.100	0.820
2020/01/31 04:43:58.5	91.010	0.320	0.240	0.830
2020/01/31 04:43:58.6	91.020	0.260	0.380	0.850
2020/01/31 04:43:58.7	91.030	0.190	0.510	0.870
2020/01/31 04:43:58.8	91.040	0.130	0.620	0.880
2020/01/31 04:43:58.9	91.050	0.070	0.730	0.900
2020/01/31 04:43:59.0	91.060	0.010	0.820	0.920
2020/01/31 04:43:59.1	91.070	-0.050	0.900	0.940
2020/01/31 04:43:59.2	91.080	-0.100	0.970	0.950
2020/01/31 04:43:59.3	91.090	-0.150	1.020	0.970
2020/01/31 04:43:59.4	91.100	-0.190	1.060	0.980
2020/01/31 04:43:59.5	91.110	-0.240	1.090	1.000
2020/01/31 04:43:59.6	91.120	-0.270	1.100	1.010
2020/01/31 04:43:59.7	91.140	-0.310	1.100	1.010
2020/01/31 04:43:59.8	91.150	-0.330	1.090	1.020
2020/01/31 04:43:59.9	91.160	-0.350	1.060	1.010
2020/01/31 04:44:00.0	91.170	-0.370	1.020	1.010
2020/01/31 04:44:00.1	91.180	-0.380	0.970	1.000
2020/01/31 04:44:00.2	91.200	-0.390	0.910	0.980
2020/01/31 04:44:00.3	91.210	-0.390	0.840	0.960
2020/01/31 04:44:00.4	91.220	-0.390	0.760	0.940
2020/01/31 04:44:00.5	91.240	-0.380	0.670	0.910
2020/01/31 04:44:00.6	91.250	-0.370	0.580	0.880
2020/01/31 04:44:00.7	91.270	-0.360	0.480	0.850
2020/01/31 04:44:00.8	91.280	-0.340	0.380	0.810
2020/01/31 04:44:00.9	91.290	-0.320	0.280	0.780
2020/01/31 04:44:01.0	91.300	-0.290	0.170	0.750
2020/01/31 04:44:01.1	91.310	-0.260	0.070	0.710
2020/01/31 04:44:01.2	91.320	-0.240	-0.040	0.690
2020/01/31 04:44:01.3	91.330	-0.210	-0.140	0.660
2020/01/31 04:44:01.4	91.330	-0.170	-0.240	0.640
2020/01/31 04:44:01.5	91.330	-0.140	-0.330	0.630
2020/01/31 04:44:01.6	91.320	-0.110	-0.420	0.610
2020/01/31 04:44:01.7	91.320	-0.080	-0.490	0.610
2020/01/31 04:44:01.8	91.310	-0.050	-0.560	0.600
2020/01/31 04:44:01.9	91.300	-0.020	-0.620	0.600
2020/01/31 04:44:02.0	91.290	0.010	-0.670	0.610
2020/01/31 04:44:02.1	91.280	0.040	-0.720	0.620
2020/01/31 04:44:02.2	91.260	0.060	-0.750	0.630
2020/01/31 04:44:02.3	91.250	0.080	-0.770	0.650
2020/01/31 04:44:02.4	91.230	0.100	-0.780	0.660
2020/01/31 04:44:02.5	91.220	0.110	-0.790	0.680
2020/01/31 04:44:02.6	91.210	0.120	-0.780	0.700
2020/01/31 04:44:02.7	91.190	0.130	-0.760	0.720
2020/01/31 04:44:02.8	91.180	0.130	-0.740	0.740
2020/01/31 04:44:02.9	91.180	0.130	-0.710	0.750
2020/01/31 04:44:03.0	91.170	0.130	-0.680	0.770
2020/01/31 04:44:03.1	91.170	0.120	-0.640	0.780
2020/01/31 04:44:03.2	91.180	0.110	-0.590	0.790
2020/01/31 04:44:03.3	91.180	0.090	-0.550	0.800
2020/01/31 04:44:03.4	91.190	0.080	-0.490	0.810
2020/01/31 04:44:03.5	91.200	0.060	-0.440	0.820
2020/01/31 04:44:03.6	91.220	0.030	-0.390	0.820
2020/01/31 04:44:03.7	91.240	0.010	-0.340	0.820
2020/01/31 04:44:03.8	91.260	-0.020	-0.290	0.820
2020/01/31 04:44:03.9	91.280	-0.050	-0.240	0.810
2020/01/31 04:44:04.0	91.310	-0.080	-0.190	0.810
2020/01/31 04:44:04.1	91.340	-0.100	-0.150	0.800
2020/01/31 04:44:04.2	91.370	-0.130	-0.110	0.790
2020/01/31 04:44:04.3	91.410	-0.160	-0.080	0.780
2020/01/31 04:44:04.4	91.450	-0.190	-0.050	0.760
2020/01/31 04:44:04.5	91.490	-0.220	-0.030	0.750
2020/01/31 04:44:04.6	91.530	-0.240	-0.010	0.740
2020/01/31 04:44:04.7	91.570	-0.260	-0.000	0.730
2020/01/31 04:44:04.8	91.610	-0.280	0.000	0.710
2020/01/31 04:44:04.9	91.650	-0.290	-0.000	0.700
2020/01/31 04:44:05.0	91.690	-0.310	-0.010	0.690
2020/01/31 04:44:05.1	91.730	-0.320	-0.020	0.680
2020/01/31 04:44:05.2	91.760	-0.320	-0.040	0.680
2020/01/31 04:44:05.3	91.790	-0.320	-0.060	0.670
2020/01/31 04:44:05.4	91.820	-0.320	-0.090	0.670
2020/01/31 04:44:05.5	91.850	-0.310	-0.120	0.670
2020/01/31 04:44:05.6	91.880	-0.300	-0.150	0.670
2020/01/31 04:44:05.7	91.900	-0.280	-0.190	0.680
2020/01/31 04:44:05.8	91.920	-0.260	-0.230	0.680
2020/01/31 04:44:05.9	91.940	-0.240	-0.260	0.690
2020/01/31 04:44:06.0	91.950	-0.210	-0.300	0.700
2020/01/31 04:44:06.1	91.960	-0.180	-0.340	0.710
2020/01/31 04:44:06.2	91.960	-0.150	-0.380	0.720
2020/01/31 04:44:06.3	91.970	-0.120	-0.420	0.730
2020/01/31 04:44:06.4	91.960	-0.080	-0.450	0.750
2020/01/31 04:44:06.5	91.960	-0.040	-0.480	0.760
2020/01/31 04:44:06.6	91.950	-0.010	-0.510	0.780
2020/01/31 04:44:06.7	91.940	0.030	-0.540	0.790
2020/01/31 04:44:06.8	91.930	0.070	-0.570	0.810
2020/01/31 04:44:06.9	91.910	0.110	-0.590	0.820
2020/01/31 04:44:07.0	91.890	0.150	-0.610	0.840
2020/01/31 04:44:07.1	91.870	0.190	-0.620	0.860
2020/01/31 04:44:07.2	91.850	0.230	-0.630	0.880
2020/01/31 04:44:07.3	91.830	0.260	-0.640	0.900
2020/01/31 04:44:07.4	91.800	0.290	-0.640	0.920
2020/01/31 04:44:07.5	91.770	0.320	-0.630	0.930
2020/01/31 04:44:07.6	91.750	0.340	-0.620	0.950
2020/01/31 04:44:07.7	91.710	0.360	-0.610	0.970
2020/01/31 04:44:07.8	91.680	0.380	-0.590	0.980
2020/01/31 04:44:07.9	91.650	0.390	-0.560	0.990
2020/01/31 04:44:08.0	91.620	0.400	-0.520	1.000
2020/01/31 04:44:08.1	91.600	0.400	-0.490	1.010
2020/01/31 04:44:08.2	91.570	0.400	-0.440	1.000
2020/01/31 04:44:08.3	91.550	0.390	-0.390	1.000
2020/01/31 04:44:08.4	91.530	0.380	-0.330	1.000
2020/01/31 04:44:08.5	91.510	0.360	-0.270	0.990
2020/01/31 04:44:08.6	91.490	0.340	-0.210	0.970
2020/01/31 04:44:08.7	91.480	0.310	-0.140	0.950
2020/01/31 04:44:08.8	91.470	0.280	-0.070	0.930
2020/01/31 04:44:08.9	91.470	0.250	0.000	0.890
2020/01/31 04:44:09.0	91.470	0.210	0.080	0.860
2020/01/31 04:44:09.1	91.470	0.160	0.150	0.820
2020/01/31 04:44:09.2	91.470	0.120	0.230	0.780
2020/01/31 04:44:09.3	91.480	0.070	0.300	0.730
2020/01/31 04:44:09.4	91.500	0.020	0.370	0.680
2020/01/31 04:44:09.5	91.510	-0.040	0.430	0.620
2020/01/31 04:44:09.6	91.530	-0.090	0.500	0.560
2020/01/31 04:44:09.7	91.550	-0.140	0.550	0.510
2020/01/31 04:44:09.8	91.570	-0.190	0.600	0.450
2020/01/31 04:44:09.9	91.600	-0.240	0.650	0.390
2020/01/31 04:44:10.0	91.620	-0.290	0.690	0.330
2020/01/31 04:44:10.1	91.650	-0.340	0.720	0.280
2020/01/31 04:44:10.2	91.670	-0.380	0.740	0.230
2020/01/31 04:44:10.3	91.690	-0.420	0.750	0.180
2020/01/31 04:44:10.4	91.720	-0.450	0.750	0.140
2020/01/31 04:44:10.5	91.740	-0.480	0.750	0.110
2020/01/31 04:44:10.6	91.760	-0.500	0.730	0.070
2020/01/31 04:44:10.7	91.780	-0.520	0.700	0.050
2020/01/31 04:44:10.8	91.800	-0.530	0.660	0.020
2020/01/31 04:44:10.9	91.810	-0.540	0.610	0.010
2020/01/31 04:44:11.0	91.830	-0.530	0.550	-0.010
2020/01/31 04:44:11.1	91.840	-0.520	0.480	-0.010
2020/01/31 04:44:11.2	91.850	-0.510	0.400	-0.010
2020/01/31 04:44:11.3	91.860	-0.490	0.300	-0.020
2020/01/31 04:44:11.4	91.870	-0.460	0.210	-0.020
2020/01/31 04:44:11.5	91.880	-0.420	0.100	-0.010
2020/01/31 04:44:11.6	91.890	-0.380	-0.010	-0.010
2020/01/31 04:44:11.7	91.900	-0.340	-0.130	-0.000
2020/01/31 04:44:11.8	91.910	-0.290	-0.250	0.010
2020/01/31 04:44:11.9	91.920	-0.240	-0.370	0.010
2020/01/31 04:44:12.0	91.930	-0.180	-0.500	0.020
2020/01/31 04:44:12.1	91.940	-0.130	-0.620	0.040
2020/01/31 04:44:12.2	91.950	-0.070	-0.750	0.050
2020/01/31 04:44:12.3	91.960	-0.000	-0.870	0.060
2020/01/31 04:44:12.4	91.970	0.060	-0.990	0.070
2020/01/31 04:44:12.5	91.970	0.120	-1.100	0.090
2020/01/31 04:44:12.6	91.980	0.180	-1.210	0.100
2020/01/31 04:44:12.7	91.990	0.240	-1.300	0.120
2020/01/31 04:44:12.8	92.000	0.290	-1.390	0.140
2020/01/31 04:44:12.9	92.010	0.350	-1.470	0.160
2020/01/31 04:44:13.0	92.020	0.400	-1.540	0.190
2020/01/31 04:44:13.1	92.030	0.450	-1.590	0.210
2020/01/31 04:44:13.2	92.030	0.490	-1.640	0.240
2020/01/31 04:44:13.3	92.040	0.530	-1.670	0.280
2020/01/31 04:44:13.4	92.050	0.570	-1.690	0.310
2020/01/31 04:44:13.5	92.060	0.600	-1.690	0.360
2020/01/31 04:44:13.6	92.070	0.630	-1.680	0.400
2020/01/31 04:44:13.7	92.080	0.650	-1.660	0.450
2020/01/31 04:44:13.8	92.080	0.670	-1.620	0.500
2020/01/31 04:44:13.9	92.090	0.680	-1.570	0.550
2020/01/31 04:44:14.0	92.100	0.690	-1.510	0.610
2020/01/31 04:44:14.1	92.100	0.690	-1.430	0.670
2020/01/31 04:44:14.2	92.110	0.690	-1.340	0.730
2020/01/31 04:44:14.3	92.120	0.680	-1.240	0.780
2020/01/31 04:44:14.4	92.120	0.660	-1.130	0.840
2020/01/31 04:44:14.5	92.130	0.650	-1.010	0.890
2020/01/31 04:44:14.6	92.130	0.620	-0.880	0.940
2020/01/31 04:44:14.7	92.130	0.600	-0.750	0.990
2020/01/31 04:44:14.8	92.130	0.570	-0.610	1.040
2020/01/31 04:44:14.9	92.130	0.530	-0.470	1.080
2020/01/31 04:44:15.0	92.120	0.500	-0.330	1.120
2020/01/31 04:44:15.1	92.110	0.450	-0.180	1.160
2020/01/31 04:44:15.2	92.100	0.410	-0.040	1.190
2020/01/31 04:44:15.3	92.100	0.370	0.100	1.220
2020/01/31 04:44:15.4	92.080	0.320	0.240	1.240
2020/01/31 04:44:15.5	92.070	0.270	0.370	1.250
2020/01/31 04:44:15.6	92.060	0.220	0.500	1.260
2020/01/31 04:44:15.7	92.050	0.170	0.610	1.270
2020/01/31 04:44:15.8	92.040	0.120	0.720	1.270
2020/01/31 04:44:15.9	92.030	0.070	0.820	1.270
2020/01/31 04:44:16.0	92.020	0.020	0.920	1.260
2020/01/31 04:44:16.1	92.000	-0.030	1.000	1.250
2020/01/31 04:44:16.2	92.000	-0.080	1.070	1.230
2020/01/31 04:44:16.3	91.990	-0.130	1.130	1.210
2020/01/31 04:44:16.4	91.980	-0.170	1.180	1.190
2020/01/31 04:44:16.5	91.970	-0.220	1.210	1.160
2020/01/31 04:44:16.6	91.960	-0.260	1.230	1.130
2020/01/31 04:44:16.7	91.950	-0.300	1.240	1.100
2020/01/31 04:44:16.8	91.950	-0.330	1.240	1.070
2020/01/31 04:44:16.9	91.940	-0.360	1.230	1.040
2020/01/31 04:44:17.0	91.940	-0.390	1.200	1.000
2020/01/31 04:44:17.1	91.930	-0.410	1.160	0.970
2020/01/31 04:44:17.2	91.930	-0.430	1.100	0.930
2020/01/31 04:44:17.3	91.920	-0.450	1.040	0.890
2020/01/31 04:44:17.4	91.920	-0.460	0.970	0.860
2020/01/31 04:44:17.5	91.920	-0.460	0.890	0.820
2020/01/31 04:44:17.6	91.930	-0.460	0.810	0.780
2020/01/31 04:44:17.7	91.930	-0.460	0.710	0.740
2020/01/31 04:44:17.8	91.930	-0.450	0.610	0.700
2020/01/31 04:44:17.9	91.940	-0.440	0.500	0.670
2020/01/31 04:44:18.0	91.940	-0.420	0.390	0.630
2020/01/31 04:44:18.1	91.940	-0.400	0.270	0.600
2020/01/31 04:44:18.2	91.950	-0.380	0.150	0.570
2020/01/31 04:44:18.3	91.960	-0.350	0.040	0.540
2020/01/31 04:44:18.4	91.960	-0.320	-0.080	0.510
2020/01/31 04:44:18.5	91.970	-0.290	-0.200	0.480
2020/01/31 04:44:18.6	91.970	-0.260	-0.310	0.450
2020/01/31 04:44:18.7	91.980	-0.220	-0.420	0.420
2020/01/31 04:44:18.8	91.990	-0.180	-0.520	0.400
2020/01/31 04:44:18.9	91.990	-0.150	-0.620	0.370
2020/01/31 04:44:19.0	92.000	-0.110	-0.710	0.350
2020/01/31 04:44:19.1	92.010	-0.070	-0.800	0.330
2020/01/31 04:44:19.2	92.010	-0.030	-0.880	0.310
2020/01/31 04:44:19.3	92.020	0.010	-0.950	0.290
2020/01/31 04:44:19.4	92.020	0.040	-1.010	0.270
2020/01/31 04:44:19.5	92.030	0.070	-1.060	0.250
2020/01/31 04:44:19.6	92.040	0.110	-1.100	0.240
2020/01/31 04:44:19.7	92.050	0.130	-1.130	0.230
2020/01/31 04:44:19.8	92.060	0.160	-1.150	0.220
2020/01/31 04:44:19.9	92.060	0.180	-1.160	0.210
2020/01/31 04:44:20.0	92.070	0.200	-1.170	0.210
2020/01/31 04:44:20.1	92.080	0.220	-1.160	0.210
2020/01/31 04:44:20.2	92.080	0.230	-1.150	0.220
2020/01/31 04:44:20.3	92.080	0.240	-1.120	0.230
2020/01/31 04:44:20.4	92.090	0.250	-1.100	0.240
2020/01/31 04:44:20.5	92.090	0.250	-1.060	0.250
2020/01/31 04:44:20.6	92.100	0.250	-1.020	0.270
2020/01/31 04:44:20.7	92.100	0.250	-0.970	0.290
2020/01/31 04:44:20.8	92.100	0.240	-0.920	0.320
2020/01/31 04:44:20.9	92.100	0.230	-0.860	0.340
2020/01/31 04:44:21.0	92.100	0.220	-0.800	0.370
2020/01/31 04:44:21.1	92.100	0.210	-0.740	0.410
2020/01/31 04:44:21.2	92.110	0.190	-0.670	0.440
2020/01/31 04:44:21.3	92.100	0.170	-0.610	0.480
2020/01/31 04:44:21.4	92.100	0.150	-0.550	0.510
2020/01/31 04:44:21.5	92.100	0.140	-0.480	0.550
2020/01/31 04:44:21.6	92.100	0.120	-0.420	0.590
2020/01/31 04:44:21.7	92.100	0.100	-0.360	0.620
2020/01/31 04:44:21.8	92.100	0.080	-0.310	0.660
2020/01/31 04:44:21.9	92.100	0.060	-0.250	0.700
2020/01/31 04:44:22.0	92.100	0.040	-0.200	0.740
2020/01/31 04:44:22.1	92.100	0.030	-0.160	0.770
2020/01/31 04:44:22.2	92.100	0.010	-0.110	0.820
2020/01/31 04:44:22.3	92.090	-0.000	-0.070	0.850
2020/01/31 04:44:22.4	92.090	-0.020	-0.040	0.890
2020/01/31 04:44:22.5	92.090	-0.030	-0.010	0.930
2020/01/31 04:44:22.6	92.080	-0.040	0.010	0.970
2020/01/31 04:44:22.7	92.070	-0.050	0.030	1.010
2020/01/31 04:44:22.8	92.060	-0.050	0.050	1.040
2020/01/31 04:44:22.9	92.050	-0.060	0.060	1.080
2020/01/31 04:44:23.0	92.030	-0.070	0.070	1.120
2020/01/31 04:44:23.1	92.010	-0.080	0.080	1.160
2020/01/31 04:44:23.2	91.990	-0.080	0.080	1.190
2020/01/31 04:44:23.3	91.970	-0.090	0.090	1.220
2020/01/31 04:44:23.4	91.940	-0.100	0.090	1.240
2020/01/31 04:44:23.5	91.920	-0.110	0.090	1.270
2020/01/31 04:44:23.6	91.890	-0.110	0.090	1.290
2020/01/31 04:44:23.7	91.870	-0.120	0.090	1.300
2020/01/31 04:44:23.8	91.840	-0.130	0.090	1.310
2020/01/31 04:44:23.9	91.820	-0.150	0.090	1.320
2020/01/31 04:44:24.0	91.790	-0.160	0.090	1.330
2020/01/31 04:44:24.1	91.770	-0.170	0.090	1.320
2020/01/31 04:44:24.2	91.750	-0.190	0.090	1.320
2020/01/31 04:44:24.3	91.730	-0.200	0.090	1.310
2020/01/31 04:44:24.4	91.710	-0.220	0.100	1.300
2020/01/31 04:44:24.5	91.690	-0.230	0.090	1.280
2020/01/31 04:44:24.6	91.680	-0.250	0.100	1.260
2020/01/31 04:44:24.7	91.670	-0.260	0.100	1.230
2020/01/31 04:44:24.8	91.660	-0.280	0.100	1.210
2020/01/31 04:44:24.9	91.650	-0.290	0.100	1.180
2020/01/31 04:44:25.0	91.650	-0.300	0.100	1.150
2020/01/31 04:44:25.1	91.640	-0.310	0.100	1.120
2020/01/31 04:44:25.2	91.640	-0.320	0.110	1.100
2020/01/31 04:44:25.3	91.640	-0.330	0.110	1.070
2020/01/31 04:44:25.4	91.640	-0.340	0.110	1.050
2020/01/31 04:44:25.5	91.650	-0.350	0.110	1.020
2020/01/31 04:44:25.6	91.650	-0.350	0.120	1.000
2020/01/31 04:44:25.7	91.660	-0.350	0.120	0.980
2020/01/31 04:44:25.8	91.670	-0.350	0.120	0.960
2020/01/31 04:44:25.9	91.670	-0.350	0.110	0.940
2020/01/31 04:44:26.0	91.680	-0.340	0.110	0.920
2020/01/31 04:44:26.1	91.690	-0.330	0.100	0.900
2020/01/31 04:44:26.2	91.700	-0.320	0.090	0.890
2020/01/31 04:44:26.3	91.720	-0.310	0.080	0.870
2020/01/31 04:44:26.4	91.730	-0.290	0.060	0.850
2020/01/31 04:44:26.5	91.740	-0.270	0.040	0.840
2020/01/31 04:44:26.6	91.750	-0.250	0.010	0.820
2020/01/31 04:44:26.7	91.760	-0.230	-0.020	0.810
2020/01/31 04:44:26.8	91.770	-0.200	-0.050	0.790
2020/01/31 04:44:26.9	91.770	-0.170	-0.090	0.780
2020/01/31 04:44:27.0	91.780	-0.140	-0.130	0.770
2020/01/31 04:44:27.1	91.780	-0.110	-0.180	0.760
2020/01/31 04:44:27.2	91.780	-0.080	-0.230	0.750
2020/01/31 04:44:27.3	91.770	-0.040	-0.280	0.740
2020/01/31 04:44:27.4	91.760	-0.010	-0.340	0.720
2020/01/31 04:44:27.5	91.750	0.030	-0.400	0.710
2020/01/31 04:44:27.6	91.740	0.070	-0.450	0.700
2020/01/31 04:44:27.7	91.720	0.110	-0.520	0.690
2020/01/31 04:44:27.8	91.700	0.150	-0.580	0.680
2020/01/31 04:44:27.9	91.680	0.190	-0.640	0.670
2020/01/31 04:44:28.0	91.660	0.230	-0.700	0.660
2020/01/31 04:44:28.1	91.630	0.270	-0.760	0.650
2020/01/31 04:44:28.2	91.600	0.310	-0.820	0.640
2020/01/31 04:44:28.3	91.580	0.350	-0.870	0.630
2020/01/31 04:44:28.4	91.550	0.390	-0.930	0.630
2020/01/31 04:44:28.5	91.520	0.420	-0.980	0.620
2020/01/31 04:44:28.6	91.490	0.460	-1.020	0.620
2020/01/31 04:44:28.7	91.470	0.500	-1.060	0.610
2020/01/31 04:44:28.8	91.440	0.530	-1.100	0.610
2020/01/31 04:44:28.9	91.420	0.560	-1.130	0.620
2020/01/31 04:44:29.0	91.390	0.590	-1.150	0.620
2020/01/31 04:44:29.1	91.380	0.620	-1.160	0.620
2020/01/31 04:44:29.2	91.360	0.650	-1.170	0.630
2020/01/31 04:44:29.3	91.350	0.670	-1.170	0.640
2020/01/31 04:44:29.4	91.340	0.690	-1.170	0.660
2020/01/31 04:44:29.5	91.330	0.710	-1.150	0.670
2020/01/31 04:44:29.6	91.320	0.720	-1.120	0.690
2020/01/31 04:44:29.7	91.310	0.730	-1.090	0.710
2020/01/31 04:44:29.8	91.300	0.740	-1.050	0.730
2020/01/31 04:44:29.9	91.300	0.740	-1.000	0.760
2020/01/31 04:44:30.0	91.300	0.730	-0.940	0.780
2020/01/31 04:44:30.1	91.290	0.730	-0.870	0.810
2020/01/31 04:44:30.2	91.300	0.710	-0.790	0.840
2020/01/31 04:44:30.3	91.290	0.690	-0.710	0.860
2020/01/31 04:44:30.4	91.290	0.670	-0.620	0.880
2020/01/31 04:44:30.5	91.290	0.640	-0.530	0.900
2020/01/31 04:44:30.6	91.290	0.610	-0.430	0.920
2020/01/31 04:44:30.7	91.290	0.580	-0.320	0.930
2020/01/31 04:44:30.8	91.280	0.540	-0.210	0.940
2020/01/31 04:44:30.9	91.280	0.490	-0.100	0.950
2020/01/31 04:44:31.0	91.270	0.440	0.010	0.950
2020/01/31 04:44:31.1	91.270	0.390	0.120	0.950
2020/01/31 04:44:31.2	91.260	0.340	0.240	0.940
2020/01/31 04:44:31.3	91.250	0.280	0.340	0.930
2020/01/31 04:44:31.4	91.240	0.220	0.450	0.910
2020/01/31 04:44:31.5	91.230	0.170	0.550	0.900
2020/01/31 04:44:31.6	91.220	0.110	0.650	0.870
2020/01/31 04:44:31.7	91.210	0.050	0.740	0.850
2020/01/31 04:44:31.8	91.200	-0.010	0.820	0.820
2020/01/31 04:44:31.9	91.190	-0.070	0.890	0.800
2020/01/31 04:44:32.0	91.180	-0.120	0.960	0.770
2020/01/31 04:44:32.1	91.170	-0.180	1.010	0.740
2020/01/31 04:44:32.2	91.160	-0.220	1.050	0.710
2020/01/31 04:44:32.3	91.150	-0.270	1.080	0.690
2020/01/31 04:44:32.4	91.140	-0.310	1.090	0.660
2020/01/31 04:44:32.5	91.130	-0.340	1.090	0.640
2020/01/31 04:44:32.6	91.120	-0.370	1.080	0.620
2020/01/31 04:44:32.7	91.110	-0.390	1.050	0.600
2020/01/31 04:44:32.8	91.100	-0.410	1.010	0.580
2020/01/31 04:44:32.9	91.100	-0.420	0.950	0.570
2020/01/31 04:44:33.0	91.100	-0.420	0.890	0.560
2020/01/31 04:44:33.1	91.090	-0.420	0.810	0.550
2020/01/31 04:44:33.2	91.100	-0.420	0.720	0.540
2020/01/31 04:44:33.3	91.100	-0.400	0.620	0.530
2020/01/31 04:44:33.4	91.110	-0.390	0.510	0.530
2020/01/31 04:44:33.5	91.110	-0.370	0.400	0.530
2020/01/31 04:44:33.6	91.130	-0.350	0.290	0.540
2020/01/31 04:44:33.7	91.140	-0.320	0.170	0.540
2020/01/31 04:44:33.8	91.160	-0.290	0.050	0.540
2020/01/31 04:44:33.9	91.180	-0.260	-0.070	0.550
2020/01/31 04:44:34.0	91.200	-0.230	-0.190	0.550
2020/01/31 04:44:34.1	91.220	-0.200	-0.300	0.560
2020/01/31 04:44:34.2	91.240	-0.170	-0.420	0.580
2020/01/31 04:44:34.3	91.260	-0.140	-0.530	0.580
2020/01/31 04:44:34.4	91.290	-0.110	-0.630	0.590
2020/01/31 04:44:34.5	91.310	-0.080	-0.720	0.590
2020/01/31 04:44:34.6	91.330	-0.060	-0.810	0.600
2020/01/31 04:44:34.7	91.350	-0.040	-0.890	0.600
2020/01/31 04:44:34.8	91.370	-0.020	-0.950	0.600
2020/01/31 04:44:34.9	91.400	-0.000	-1.010	0.600
2020/01/31 04:44:35.0	91.410	0.010	-1.050	0.600
2020/01/31 04:44:35.1	91.430	0.010	-1.080	0.600
2020/01/31 04:44:35.2	91.450	0.020	-1.100	0.600
2020/01/31 04:44:35.3	91.460	0.020	-1.110	0.600
2020/01/31 04:44:35.4	91.470	0.010	-1.100	0.600
2020/01/31 04:44:35.5	91.480	-0.000	-1.080	0.600
2020/01/31 04:44:35.6	91.490	-0.010	-1.040	0.610
2020/01/31 04:44:35.7	91.500	-0.030	-1.000	0.610
2020/01/31 04:44:35.8	91.500	-0.050	-0.940	0.620
2020/01/31 04:44:35.9	91.510	-0.080	-0.870	0.640
2020/01/31 04:44:36.0	91.510	-0.110	-0.790	0.650
2020/01/31 04:44:36.1	91.500	-0.140	-0.710	0.670
2020/01/31 04:44:36.2	91.500	-0.170	-0.610	0.700
2020/01/31 04:44:36.3	91.490	-0.200	-0.510	0.720
2020/01/31 04:44:36.4	91.490	-0.240	-0.400	0.750
2020/01/31 04:44:36.5	91.480	-0.280	-0.300	0.780
2020/01/31 04:44:36.6	91.470	-0.310	-0.190	0.820
2020/01/31 04:44:36.7	91.460	-0.350	-0.080	0.860
2020/01/31 04:44:36.8	91.450	-0.390	0.030	0.900
2020/01/31 04:44:36.9	91.440	-0.420	0.130	0.940
2020/01/31 04:44:37.0	91.430	-0.460	0.220	0.990
2020/01/31 04:44:37.1	91.420	-0.490	0.310	1.040
2020/01/31 04:44:37.2	91.410	-0.520	0.390	1.080
2020/01/31 04:44:37.3	91.400	-0.540	0.460	1.130
2020/01/31 04:44:37.4	91.390	-0.560	0.520	1.180
2020/01/31 04:44:37.5	91.380	-0.580	0.570	1.220
2020/01/31 04:44:37.6	91.360	-0.590	0.600	1.260
2020/01/31 04:44:37.7	91.350	-0.600	0.620	1.300
2020/01/31 04:44:37.8	91.340	-0.600	0.620	1.340
2020/01/31 04:44:37.9	91.330	-0.590	0.610	1.370
2020/01/31 04:44:38.0	91.320	-0.590	0.590	1.400
2020/01/31 04:44:38.1	91.310	-0.570	0.550	1.430
2020/01/31 04:44:38.2	91.300	-0.550	0.500	1.450
2020/01/31 04:44:38.3	91.280	-0.530	0.440	1.460
2020/01/31 04:44:38.4	91.270	-0.500	0.370	1.470
2020/01/31 04:44:38.5	91.250	-0.460	0.290	1.480
2020/01/31 04:44:38.6	91.240	-0.420	0.200	1.480
2020/01/31 04:44:38.7	91.220	-0.380	0.110	1.470
2020/01/31 04:44:38.8	91.210	-0.330	0.010	1.460
2020/01/31 04:44:38.9	91.190	-0.290	-0.100	1.440
2020/01/31 04:44:39.0	91.170	-0.230	-0.210	1.410
2020/01/31 04:44:39.1	91.160	-0.180	-0.320	1.380
2020/01/31 04:44:39.2	91.130	-0.120	-0.430	1.350
2020/01/31 04:44:39.3	91.120	-0.070	-0.540	1.310
2020/01/31 04:44:39.4	91.100	-0.010	-0.640	1.270
2020/01/31 04:44:39.5	91.090	0.050	-0.750	1.220
2020/01/31 04:44:39.6	91.070	0.110	-0.840	1.180
2020/01/31 04:44:39.7	91.060	0.170	-0.930	1.130
2020/01/31 04:44:39.8	91.050	0.230	-1.020	1.080
2020/01/31 04:44:39.9	91.040	0.280	-1.090	1.030
2020/01/31 04:44:40.0	91.040	0.330	-1.160	0.980
2020/01/31 04:44:40.1	91.030	0.380	-1.220	0.940
2020/01/31 04:44:40.2	91.030	0.430	-1.270	0.890
2020/01/31 04:44:40.3	91.030	0.480	-1.300	0.850
2020/01/31 04:44:40.4	91.030	0.520	-1.330	0.800
2020/01/31 04:44:40.5	91.030	0.550	-1.340	0.760
2020/01/31 04:44:40.6	91.040	0.590	-1.350	0.730
2020/01/31 04:44:40.7	91.040	0.620	-1.340	0.690
2020/01/31 04:44:40.8	91.050	0.640	-1.320	0.660
2020/01/31 04:44:40.9	91.060	0.660	-1.290	0.620
2020/01/31 04:44:41.0	91.070	0.670	-1.250	0.590
2020/01/31 04:44:41.1	91.090	0.680	-1.200	0.560
2020/01/31 04:44:41.2	91.100	0.680	-1.140	0.540
2020/01/31 04:44:41.3	91.120	0.680	-1.070	0.510
2020/01/31 04:44:41.4	91.140	0.680	-1.000	0.480
2020/01/31 04:44:41.5	91.150	0.670	-0.920	0.460
2020/01/31 04:44:41.6	91.170	0.650	-0.840	0.440
2020/01/31 04:44:41.7	91.200	0.630	-0.750	0.420
2020/01/31 04:44:41.8	91.220	0.610	-0.660	0.390
2020/01/31 04:44:41.9	91.240	0.580	-0.560	0.370
2020/01/31 04:44:42.0	91.260	0.550	-0.460	0.350
2020/01/31 04:44:42.1	91.280	0.520	-0.360	0.330
2020/01/31 04:44:42.2	91.310	0.480	-0.260	0.320
2020/01/31 04:44:42.3	91.330	0.440	-0.160	0.300
2020/01/31 04:44:42.4	91.350	0.400	-0.070	0.290
2020/01/31 04:44:42.5	91.370	0.360	0.030	0.270
2020/01/31 04:44:42.6	91.380	0.320	0.120	0.260
2020/01/31 04:44:42.7	91.400	0.270	0.210	0.250
2020/01/31 04:44:42.8	91.410	0.230	0.290	0.240
2020/01/31 04:44:42.9	91.430	0.190	0.380	0.230
2020/01/31 04:44:43.0	91.440	0.140	0.450	0.230
2020/01/31 04:44:43.1	91.450	0.100	0.520	0.230
2020/01/31 04:44:43.2	91.460	0.060	0.590	0.230
2020/01/31 04:44:43.3	91.470	0.010	0.650	0.240
2020/01/31 04:44:43.4	91.480	-0.030	0.700	0.250
2020/01/31 04:44:43.5	91.490	-0.070	0.750	0.260
2020/01/31 04:44:43.6	91.500	-0.100	0.790	0.270
2020/01/31 04:44:43.7	91.510	-0.140	0.830	0.290
2020/01/31 04:44:43.8	91.510	-0.170	0.850	0.300
2020/01/31 04:44:43.9	91.520	-0.210	0.870	0.320
2020/01/31 04:44:44.0	91.530	-0.240	0.880	0.340
2020/01/31 04:44:44.1	91.540	-0.260	0.890	0.360
2020/01/31 04:44:44.2	91.550	-0.290	0.880	0.380
2020/01/31 04:44:44.3	91.560	-0.310	0.870	0.400
2020/01/31 04:44:44.4	91.560	-0.330	0.840	0.420
2020/01/31 04:44:44.5	91.570	-0.340	0.810	0.440
2020/01/31 04:44:44.6	91.580	-0.350	0.770	0.460
2020/01/31 04:44:44.7	91.580	-0.360	0.710	0.480
2020/01/31 04:44:44.8	91.590	-0.360	0.660	0.500
2020/01/31 04:44:44.9	91.590	-0.360	0.590	0.520
2020/01/31 04:44:45.0	91.600	-0.360	0.510	0.540
2020/01/31 04:44:45.1	91.600	-0.350	0.430	0.560
2020/01/31 04:44:45.2	91.610	-0.340	0.340	0.590
2020/01/31 04:44:45.3	91.610	-0.330	0.240	0.610
2020/01/31 04:44:45.4	91.610	-0.310	0.140	0.630
2020/01/31 04:44:45.5	91.600	-0.290	0.040	0.660
2020/01/31 04:44:45.6	91.600	-0.270	-0.060	0.680
2020/01/31 04:44:45.7	91.600	-0.240	-0.160	0.710
2020/01/31 04:44:45.8	91.590	-0.220	-0.270	0.730
2020/01/31 04:44:45.9	91.580	-0.190	-0.370	0.750
2020/01/31 04:44:46.0	91.580	-0.170	-0.460	0.780
2020/01/31 04:44:46.1	91.570	-0.140	-0.560	0.800
2020/01/31 04:44:46.2	91.560	-0.110	-0.650	0.830
2020/01/31 04:44:46.3	91.550	-0.090	-0.730	0.850
2020/01/31 04:44:46.4	91.530	-0.060	-0.800	0.880
2020/01/31 04:44:46.5	91.520	-0.040	-0.870	0.900
2020/01/31 04:44:46.6	91.510	-0.020	-0.920	0.920
2020/01/31 04:44:46.7	91.500	-0.000	-0.970	0.940
2020/01/31 04:44:46.8	91.480	0.020	-1.010	0.960
2020/01/31 04:44:46.9	91.470	0.030	-1.040	0.970
2020/01/31 04:44:47.0	91.450	0.050	-1.060	0.990
2020/01/31 04:44:47.1	91.440	0.060	-1.070	1.000
2020/01/31 04:44:47.2	91.420	0.060	-1.070	1.010
2020/01/31 04:44:47.3	91.410	0.070	-1.060	1.020
2020/01/31 04:44:47.4	91.390	0.070	-1.050	1.030
2020/01/31 04:44:47.5	91.380	0.070	-1.020	1.030
2020/01/31 04:44:47.6	91.370	0.070	-0.990	1.040
2020/01/31 04:44:47.7	91.360	0.070	-0.950	1.040
2020/01/31 04:44:47.8	91.350	0.060	-0.900	1.040
2020/01/31 04:44:47.9	91.340	0.060	-0.850	1.030
2020/01/31 04:44:48.0	91.340	0.050	-0.800	1.020
2020/01/31 04:44:48.1	91.330	0.040	-0.740	1.010
2020/01/31 04:44:48.2	91.320	0.030	-0.670	1.000
2020/01/31 04:44:48.3	91.330	0.020	-0.610	0.990
2020/01/31 04:44:48.4	91.330	0.010	-0.540	0.970
2020/01/31 04:44:48.5	91.340	-0.000	-0.480	0.950
2020/01/31 04:44:48.6	91.350	-0.010	-0.410	0.930
2020/01/31 04:44:48.7	91.360	-0.020	-0.340	0.910
2020/01/31 04:44:48.8	91.380	-0.030	-0.280	0.890
2020/01/31 04:44:48.9	91.400	-0.030	-0.220	0.870
2020/01/31 04:44:49.0	91.420	-0.040	-0.160	0.850
2020/01/31 04:44:49.1	91.440	-0.040	-0.110	0.830
2020/01/31 04:44:49.2	91.470	-0.040	-0.050	0.810
2020/01/31 04:44:49.3	91.500	-0.040	-0.010	0.790
2020/01/31 04:44:49.4	91.520	-0.040	0.030	0.780
2020/01/31 04:44:49.5	91.550	-0.040	0.070	0.760
2020/01/31 04:44:49.6	91.570	-0.040	0.110	0.750
2020/01/31 04:44:49.7	91.600	-0.030	0.130	0.740
2020/01/31 04:44:49.8	91.630	-0.030	0.160	0.730
2020/01/31 04:44:49.9	91.650	-0.020	0.180	0.710
2020/01/31 04:44:50.0	91.680	-0.010	0.190	0.700
2020/01/31 04:44:50.1	91.700	-0.010	0.200	0.690
2020/01/31 04:44:50.2	91.730	0.000	0.210	0.690
2020/01/31 04:44:50.3	91.750	0.010	0.210	0.680
2020/01/31 04:44:50.4	91.780	0.020	0.200	0.670
2020/01/31 04:44:50.5	91.800	0.020	0.200	0.650
2020/01/31 04:44:50.6	91.820	0.030	0.180	0.640
2020/01/31 04:44:50.7	91.840	0.040	0.170	0.630
2020/01/31 04:44:50.8	91.870	0.040	0.150	0.610
2020/01/31 04:44:50.9	91.890	0.050	0.130	0.600
2020/01/31 04:44:51.0	91.910	0.050	0.100	0.590
2020/01/31 04:44:51.1	91.930	0.050	0.080	0.580
2020/01/31 04:44:51.2	91.940	0.050	0.050	0.560
2020/01/31 04:44:51.3	91.960	0.050	0.020	0.550
2020/01/31 04:44:51.4	91.970	0.050	-0.010	0.550
2020/01/31 04:44:51.5	91.990	0.050	-0.040	0.540
2020/01/31 04:44:51.6	92.000	0.050	-0.060	0.540
2020/01/31 04:44:51.7	92.000	0.040	-0.090	0.540
2020/01/31 04:44:51.8	92.010	0.040	-0.120	0.540
2020/01/31 04:44:51.9	92.010	0.030	-0.140	0.550
2020/01/31 04:44:52.0	92.010	0.020	-0.160	0.560
2020/01/31 04:44:52.1	92.000	0.010	-0.180	0.570
2020/01/31 04:44:52.2	92.000	-0.000	-0.190	0.590
2020/01/31 04:44:52.3	91.980	-0.010	-0.200	0.610
2020/01/31 04:44:52.4	91.970	-0.030	-0.200	0.630
2020/01/31 04:44:52.5	91.950	-0.040	-0.210	0.660
2020/01/31 04:44:52.6	91.930	-0.060	-0.200	0.690
2020/01/31 04:44:52.7	91.910	-0.080	-0.200	0.710
2020/01/31 04:44:52.8	91.880	-0.090	-0.190	0.740
2020/01/31 04:44:52.9	91.840	-0.110	-0.180	0.770
2020/01/31 04:44:53.0	91.810	-0.130	-0.160	0.800
2020/01/31 04:44:53.1	91.770	-0.150	-0.150	0.820
2020/01/31 04:44:53.2	91.740	-0.170	-0.130	0.860
2020/01/31 04:44:53.3	91.690	-0.200	-0.110	0.880
2020/01/31 04:44:53.4	91.650	-0.220	-0.090	0.900
2020/01/31 04:44:53.5	91.610	-0.240	-0.070	0.920
2020/01/31 04:44:53.6	91.560	-0.260	-0.050	0.930
2020/01/31 04:44:53.7	91.510	-0.270	-0.040	0.940
2020/01/31 04:44:53.8	91.470	-0.290	-0.020	0.950
2020/01/31 04:44:53.9	91.420	-0.310	-0.010	0.960
2020/01/31 04:44:54.0	91.380	-0.320	-0.010	0.950
2020/01/31 04:44:54.1	91.340	-0.340	-0.010	0.950
2020/01/31 04:44:54.2	91.300	-0.350	-0.000	0.940
2020/01/31 04:44:54.3	91.270	-0.360	-0.010	0.930
2020/01/31 04:44:54.4	91.230	-0.360	-0.030	0.910
2020/01/31 04:44:54.5	91.200	-0.360	-0.050	0.890
2020/01/31 04:44:54.6	91.180	-0.360	-0.070	0.870
2020/01/31 04:44:54.7	91.150	-0.360	-0.100	0.840
2020/01/31 04:44:54.8	91.130	-0.350	-0.140	0.810
2020/01/31 04:44:54.9	91.120	-0.340	-0.180	0.780
2020/01/31 04:44:55.0	91.110	-0.320	-0.230	0.740
2020/01/31 04:44:55.1	91.100	-0.300	-0.280	0.700
2020/01/31 04:44:55.2	91.100	-0.280	-0.340	0.660
2020/01/31 04:44:55.3	91.100	-0.260	-0.410	0.610
2020/01/31 04:44:55.4	91.110	-0.230	-0.470	0.570
2020/01/31 04:44:55.5	91.120	-0.190	-0.530	0.530
2020/01/31 04:44:55.6	91.130	-0.160	-0.600	0.490
2020/01/31 04:44:55.7	91.140	-0.120	-0.670	0.440
2020/01/31 04:44:55.8	91.160	-0.080	-0.730	0.400
2020/01/31 04:44:55.9	91.180	-0.040	-0.800	0.370
2020/01/31 04:44:56.0	91.200	0.000	-0.860	0.330
2020/01/31 04:44:56.1	91.220	0.050	-0.920	0.300
2020/01/31 04:44:56.2	91.240	0.090	-0.970	0.270
2020/01/31 04:44:56.3	91.260	0.140	-1.020	0.250
2020/01/31 04:44:56.4	91.290	0.180	-1.060	0.220
2020/01/31 04:44:56.5	91.310	0.230	-1.090	0.200
2020/01/31 04:44:56.6	91.330	0.270	-1.110	0.180
2020/01/31 04:44:56.7	91.360	0.310	-1.130	0.170
2020/01/31 04:44:56.8	91.380	0.350	-1.140	0.160
2020/01/31 04:44:56.9	91.410	0.380	-1.140	0.150
2020/01/31 04:44:57.0	91.430	0.420	-1.120	0.140
2020/01/31 04:44:57.1	91.450	0.450	-1.100	0.140
2020/01/31 04:44:57.2	91.470	0.470	-1.080	0.140
2020/01/31 04:44:57.3	91.490	0.500	-1.040	0.150
2020/01/31 04:44:57.4	91.510	0.520	-0.990	0.160
2020/01/31 04:44:57.5	91.530	0.530	-0.940	0.170
2020/01/31 04:44:57.6	91.550	0.540	-0.880	0.180
2020/01/31 04:44:57.7	91.570	0.540	-0.810	0.200
2020/01/31 04:44:57.8	91.590	0.550	-0.730	0.220
2020/01/31 04:44:57.9	91.600	0.540	-0.650	0.240
2020/01/31 04:44:58.0	91.620	0.530	-0.560	0.270
2020/01/31 04:44:58.1	91.630	0.520	-0.470	0.290
2020/01/31 04:44:58.2	91.650	0.510	-0.370	0.330
2020/01/31 04:44:58.3	91.670	0.490	-0.280	0.360
2020/01/31 04:44:58.4	91.680	0.460	-0.180	0.400
2020/01/31 04:44:58.5	91.690	0.430	-0.080	0.440
2020/01/31 04:44:58.6	91.700	0.400	0.020	0.490
2020/01/31 04:44:58.7	91.710	0.370	0.110	0.540
2020/01/31 04:44:58.8	91.710	0.330	0.210	0.590
2020/01/31 04:44:58.9	91.720	0.290	0.300	0.640
2020/01/31 04:44:59.0	91.720	0.250	0.390	0.700
2020/01/31 04:44:59.1	91.710	0.200	0.480	0.760
2020/01/31 04:44:59.2	91.710	0.160	0.560	0.820
2020/01/31 04:44:59.3	91.700	0.110	0.640	0.880
2020/01/31 04:44:59.4	91.690	0.060	0.710	0.950
2020/01/31 04:44:59.5	91.680	0.010	0.770	1.000
2020/01/31 04:44:59.6	91.660	-0.040	0.830	1.060
2020/01/31 04:44:59.7	91.640	-0.090	0.880	1.110
2020/01/31 04:44:59.8	91.620	-0.140	0.920	1.160
2020/01/31 04:44:59.9	91.600	-0.190	0.960	1.200
2020/01/31 04:45:00.0	91.580	-0.230	0.980	1.240
2020/01/31 04:45:00.1	91.560	-0.280	1.000	1.270
2020/01/31 04:45:00.2	91.530	-0.320	1.010	1.300
2020/01/31 04:45:00.3	91.500	-0.360	1.020	1.320
2020/01/31 04:45:00.4	91.470	-0.400	1.010	1.330
2020/01/31 04:45:00.5	91.450	-0.440	0.990	1.330
2020/01/31 04:45:00.6	91.420	-0.470	0.970	1.330
2020/01/31 04:45:00.7	91.390	-0.500	0.930	1.320
2020/01/31 04:45:00.8	91.370	-0.520	0.890	1.300
2020/01/31 04:45:00.9	91.350	-0.540	0.840	1.270
2020/01/31 04:45:01.0	91.320	-0.560	0.790	1.250
2020/01/31 04:45:01.1	91.300	-0.570	0.730	1.210
2020/01/31 04:45:01.2	91.290	-0.580	0.660	1.170
2020/01/31 04:45:01.3	91.280	-0.580	0.590	1.130
2020/01/31 04:45:01.4	91.260	-0.580	0.510	1.090
2020/01/31 04:45:01.5	91.250	-0.580	0.430	1.050
2020/01/31 04:45:01.6	91.250	-0.570	0.340	1.010
2020/01/31 04:45:01.7	91.240	-0.550	0.250	0.970
2020/01/31 04:45:01.8	91.240	-0.530	0.160	0.940
2020/01/31 04:45:01.9	91.240	-0.510	0.070	0.900
2020/01/31 04:45:02.0	91.240	-0.480	-0.030	0.870
2020/01/31 04:45:02.1	91.250	-0.450	-0.120	0.830
2020/01/31 04:45:02.2	91.240	-0.420	-0.220	0.800
2020/01/31 04:45:02.3	91.250	-0.380	-0.320	0.780
2020/01/31 04:45:02.4	91.260	-0.350	-0.410	0.750
2020/01/31 04:45:02.5	91.270	-0.300	-0.510	0.720
2020/01/31 04:45:02.6	91.290	-0.260	-0.600	0.700
2020/01/31 04:45:02.7	91.300	-0.210	-0.690	0.670
2020/01/31 04:45:02.8	91.320	-0.160	-0.790	0.650
2020/01/31 04:45:02.9	91.330	-0.110	-0.870	0.620
2020/01/31 04:45:03.0	91.350	-0.060	-0.960	0.590
2020/01/31 04:45:03.1	91.370	-0.000	-1.040	0.560
2020/01/31 04:45:03.2	91.390	0.050	-1.120	0.540
2020/01/31 04:45:03.3	91.410	0.110	-1.200	0.510
2020/01/31 04:45:03.4	91.440	0.160	-1.270	0.480
2020/01/31 04:45:03.5	91.460	0.220	-1.330	0.450
2020/01/31 04:45:03.6	91.480	0.280	-1.390	0.420
2020/01/31 04:45:03.7	91.510	0.330	-1.450	0.390
2020/01/31 04:45:03.8	91.530	0.390	-1.500	0.370
2020/01/31 04:45:03.9	91.550	0.440	-1.540	0.340
2020/01/31 04:45:04.0	91.570	0.490	-1.570	0.320
2020/01/31 04:45:04.1	91.590	0.540	-1.600	0.310
2020/01/31 04:45:04.2	91.600	0.590	-1.610	0.300
2020/01/31 04:45:04.3	91.610	0.640	-1.620	0.300
2020/01/31 04:45:04.4	91.620	0.680	-1.620	0.300
2020/01/31 04:45:04.5	91.620	0.720	-1.610	0.310
2020/01/31 04:45:04.6	91.620	0.750	-1.590	0.320
2020/01/31 04:45:04.7	91.620	0.780	-1.560	0.340
2020/01/31 04:45:04.8	91.610	0.800	-1.520	0.360
2020/01/31 04:45:04.9	91.600	0.820	-1.480	0.390
2020/01/31 04:45:05.0	91.590	0.840	-1.420	0.420
2020/01/31 04:45:05.1	91.580	0.840	-1.350	0.460
2020/01/31 04:45:05.2	91.560	0.840	-1.270	0.500
2020/01/31 04:45:05.3	91.540	0.830	-1.180	0.540
2020/01/31 04:45:05.4	91.510	0.820	-1.090	0.580
2020/01/31 04:45:05.5	91.490	0.800	-0.980	0.630
2020/01/31 04:45:05.6	91.460	0.770	-0.870	0.670
2020/01/31 04:45:05.7	91.440	0.740	-0.750	0.720
2020/01/31 04:45:05.8	91.410	0.700	-0.630	0.770
2020/01/31 04:45:05.9	91.380	0.650	-0.500	0.820
2020/01/31 04:45:06.0	91.350	0.590	-0.370	0.870
2020/01/31 04:45:06.1	91.330	0.530	-0.230	0.920
2020/01/31 04:45:06.2	91.310	0.470	-0.090	0.970
2020/01/31 04:45:06.3	91.280	0.400	0.050	1.020
2020/01/31 04:45:06.4	91.250	0.320	0.190	1.060
2020/01/31 04:45:06.5	91.230	0.240	0.330	1.100
2020/01/31 04:45:06.6	91.200	0.160	0.470	1.140
2020/01/31 04:45:06.7	91.180	0.080	0.600	1.180
2020/01/31 04:45:06.8	91.160	-0.010	0.730	1.210
2020/01/31 04:45:06.9	91.130	-0.100	0.850	1.240
2020/01/31 04:45:07.0	91.110	-0.180	0.970	1.270
2020/01/31 04:45:07.1	91.090	-0.270	1.080	1.290
2020/01/31 04:45:07.2	91.070	-0.360	1.190	1.310
2020/01/31 04:45:07.3	91.060	-0.440	1.280	1.330
2020/01/31 04:45:07.4	91.040	-0.530	1.370	1.340
2020/01/31 04:45:07.5	91.030	-0.610	1.440	1.340
2020/01/31 04:45:07.6	91.010	-0.680	1.500	1.350
2020/01/31 04:45:07.7	91.000	-0.750	1.540	1.350
2020/01/31 04:45:07.8	90.990	-0.810	1.570	1.340
2020/01/31 04:45:07.9	90.980	-0.870	1.590	1.330
2020/01/31 04:45:08.0	90.980	-0.920	1.590	1.320
2020/01/31 04:45:08.1	90.970	-0.960	1.570	1.310
2020/01/31 04:45:08.2	90.970	-1.000	1.540	1.290
2020/01/31 04:45:08.3	90.970	-1.020	1.490	1.260
2020/01/31 04:45:08.4	90.970	-1.040	1.420	1.240
2020/01/31 04:45:08.5	90.970	-1.040	1.340	1.200
2020/01/31 04:45:08.6	90.980	-1.040	1.240	1.170
2020/01/31 04:45:08.7	90.990	-1.030	1.120	1.130
2020/01/31 04:45:08.8	90.990	-1.010	0.990	1.090
2020/01/31 04:45:08.9	91.010	-0.980	0.850	1.040
2020/01/31 04:45:09.0	91.020	-0.940	0.700	1.000
2020/01/31 04:45:09.1	91.040	-0.900	0.540	0.950
2020/01/31 04:45:09.2	91.060	-0.850	0.360	0.890
2020/01/31 04:45:09.3	91.080	-0.790	0.190	0.840
2020/01/31 04:45:09.4	91.100	-0.730	0.010	0.790
2020/01/31 04:45:09.5	91.120	-0.660	-0.180	0.730
2020/01/31 04:45:09.6	91.150	-0.590	-0.360	0.680
2020/01/31 04:45:09.7	91.170	-0.510	-0.540	0.630
2020/01/31 04:45:09.8	91.190	-0.430	-0.720	0.590
2020/01/31 04:45:09.9	91.220	-0.350	-0.900	0.540
2020/01/31 04:45:10.0	91.240	-0.270	-1.070	0.500
2020/01/31 04:45:10.1	91.260	-0.190	-1.230	0.470
2020/01/31 04:45:10.2	91.290	-0.110	-1.390	0.440
2020/01/31 04:45:10.3	91.300	-0.030	-1.530	0.410
2020/01/31 04:45:10.4	91.320	0.050	-1.650	0.390
2020/01/31 04:45:10.5	91.340	0.120	-1.760	0.370
2020/01/31 04:45:10.6	91.350	0.190	-1.860	0.360
2020/01/31 04:45:10.7	91.370	0.260	-1.930	0.350
2020/01/31 04:45:10.8	91.380	0.320	-1.990	0.350
2020/01/31 04:45:10.9	91.390	0.370	-2.030	0.350
2020/01/31 04:45:11.0	91.400	0.420	-2.060	0.350
2020/01/31 04:45:11.1	91.410	0.460	-2.060	0.360
2020/01/31 04:45:11.2	91.420	0.500	-2.040	0.380
2020/01/31 04:45:11.3	91.420	0.530	-2.000	0.390
2020/01/31 04:45:11.4	91.430	0.560	-1.950	0.410
2020/01/31 04:45:11.5	91.430	0.570	-1.880	0.430
2020/01/31 04:45:11.6	91.440	0.580	-1.780	0.450
2020/01/31 04:45:11.7	91.440	0.590	-1.680	0.470
2020/01/31 04:45:11.8	91.440	0.590	-1.550	0.490
2020/01/31 04:45:11.9	91.440	0.580	-1.420	0.510
2020/01/31 04:45:12.0	91.440	0.570	-1.270	0.540
2020/01/31 04:45:12.1	91.440	0.550	-1.110	0.560
2020/01/31 04:45:12.2	91.440	0.520	-0.930	0.580
2020/01/31 04:45:12.3	91.440	0.490	-0.760	0.610
2020/01/31 04:45:12.4	91.440	0.460	-0.570	0.630
2020/01/31 04:45:12.5	91.440	0.420	-0.390	0.660
2020/01/31 04:45:12.6	91.440	0.390	-0.200	0.680
2020/01/31 04:45:12.7	91.430	0.340	-0.020	0.700
2020/01/31 04:45:12.8	91.430	0.300	0.170	0.720
2020/01/31 04:45:12.9	91.420	0.250	0.340	0.740
2020/01/31 04:45:13.0	91.420	0.210	0.510	0.760
2020/01/31 04:45:13.1	91.410	0.160	0.670	0.770
2020/01/31 04:45:13.2	91.390	0.110	0.820	0.790
2020/01/31 04:45:13.3	91.390	0.070	0.960	0.800
2020/01/31 04:45:13.4	91.380	0.030	1.080	0.800
2020/01/31 04:45:13.5	91.360	-0.020	1.190	0.810
2020/01/31 04:45:13.6	91.350	-0.060	1.280	0.810
2020/01/31 04:45:13.7	91.340	-0.090	1.350	0.810
2020/01/31 04:45:13.8	91.330	-0.130	1.410	0.800
2020/01/31 04:45:13.9	91.310	-0.160	1.440	0.790
2020/01/31 04:45:14.0	91.300	-0.180	1.460	0.780
2020/01/31 04:45:14.1	91.290	-0.210	1.460	0.760
2020/01/31 04:45:14.2	91.270	-0.230	1.440	0.740
2020/01/31 04:45:14.3	91.260	-0.240	1.410	0.720
2020/01/31 04:45:14.4	91.250	-0.250	1.360	0.690
2020/01/31 04:45:14.5	91.240	-0.260	1.290	0.670
2020/01/31 04:45:14.6	91.230	-0.270	1.220	0.640
2020/01/31 04:45:14.7	91.220	-0.270	1.120	0.610
2020/01/31 04:45:14.8	91.210	-0.260	1.020	0.580
2020/01/31 04:45:14.9	91.200	-0.260	0.910	0.560
2020/01/31 04:45:15.0	91.200	-0.250	0.790	0.530
2020/01/31 04:45:15.1	91.190	-0.230	0.660	0.500
2020/01/31 04:45:15.2	91.190	-0.220	0.530	0.480
2020/01/31 04:45:15.3	91.190	-0.200	0.390	0.460
2020/01/31 04:45:15.4	91.190	-0.180	0.250	0.440
2020/01/31 04:45:15.5	91.190	-0.160	0.110	0.430
2020/01/31 04:45:15.6	91.180	-0.130	-0.030	0.410
2020/01/31 04:45:15.7	91.180	-0.110	-0.170	0.400
2020/01/31 04:45:15.8	91.190	-0.080	-0.300	0.390
2020/01/31 04:45:15.9	91.190	-0.060	-0.430	0.380
2020/01/31 04:45:16.0	91.190	-0.030	-0.550	0.380
2020/01/31 04:45:16.1	91.200	-0.000	-0.670	0.370
2020/01/31 04:45:16.2	91.200	0.020	-0.780	0.370
2020/01/31 04:45:16.3	91.210	0.050	-0.880	0.370
2020/01/31 04:45:16.4	91.220	0.070	-0.980	0.370
2020/01/31 04:45:16.5	91.220	0.090	-1.060	0.370
2020/01/31 04:45:16.6	91.230	0.120	-1.140	0.370
2020/01/31 04:45:16.7	91.240	0.140	-1.200	0.380
2020/01/31 04:45:16.8	91.250	0.160	-1.260	0.380
2020/01/31 04:45:16.9	91.250	0.170	-1.310	0.390
2020/01/31 04:45:17.0	91.260	0.190	-1.340	0.400
2020/01/31 04:45:17.1	91.270	0.200	-1.370	0.410
2020/01/31 04:45:17.2	91.280	0.210	-1.390	0.430
2020/01/31 04:45:17.3	91.280	0.220	-1.390	0.440
2020/01/31 04:45:17.4	91.290	0.230	-1.390	0.460
2020/01/31 04:45:17.5	91.290	0.230	-1.380	0.480
2020/01/31 04:45:17.6	91.300	0.240	-1.360	0.500
2020/01/31 04:45:17.7	91.300	0.240	-1.340	0.520
2020/01/31 04:45:17.8	91.300	0.240	-1.300	0.550
2020/01/31 04:45:17.9	91.310	0.240	-1.260	0.570
2020/01/31 04:45:18.0	91.310	0.230	-1.210	0.600
2020/01/31 04:45:18.1	91.310	0.230	-1.160	0.630
2020/01/31 04:45:18.2	91.320	0.220	-1.100	0.660
2020/01/31 04:45:18.3	91.330	0.220	-1.040	0.690
2020/01/31 04:45:18.4	91.330	0.210	-0.970	0.720
2020/01/31 04:45:18.5	91.340	0.200	-0.900	0.750
2020/01/31 04:45:18.6	91.340	0.190	-0.830	0.780
2020/01/31 04:45:18.7	91.350	0.180	-0.750	0.810
2020/01/31 04:45:18.8	91.360	0.170	-0.670	0.840
2020/01/31 04:45:18.9	91.370	0.160	-0.590	0.870
2020/01/31 04:45:19.0	91.380	0.150	-0.510	0.890
2020/01/31 04:45:19.1	91.390	0.130	-0.430	0.920
2020/01/31 04:45:19.2	91.410	0.120	-0.350	0.950
2020/01/31 04:45:19.3	91.420	0.110	-0.270	0.980
2020/01/31 04:45:19.4	91.430	0.100	-0.190	1.010
2020/01/31 04:45:19.5	91.440	0.080	-0.120	1.040
2020/01/31 04:45:19.6	91.450	0.070	-0.040	1.070
2020/01/31 04:45:19.7	91.460	0.060	0.030	1.100
2020/01/31 04:45:19.8	91.470	0.040	0.100	1.120
2020/01/31 04:45:19.9	91.480	0.030	0.170	1.150
2020/01/31 04:45:20.0	91.490	0.010	0.230	1.180
2020/01/31 04:45:20.1	91.490	0.000	0.280	1.200
2020/01/31 04:45:20.2	91.500	-0.010	0.340	1.230
2020/01/31 04:45:20.3	91.500	-0.030	0.390	1.260
2020/01/31 04:45:20.4	91.500	-0.040	0.430	1.280
2020/01/31 04:45:20.5	91.500	-0.050	0.460	1.300
2020/01/31 04:45:20.6	91.500	-0.060	0.490	1.320
2020/01/31 04:45:20.7	91.490	-0.080	0.520	1.330
2020/01/31 04:45:20.8	91.490	-0.090	0.540	1.340
2020/01/31 04:45:20.9	91.490	-0.100	0.550	1.350
2020/01/31 04:45:21.0	91.480	-0.110	0.560	1.360
2020/01/31 04:45:21.1	91.480	-0.120	0.560	1.360
2020/01/31 04:45:21.2	91.470	-0.130	0.550	1.350
2020/01/31 04:45:21.3	91.470	-0.140	0.540	1.350
2020/01/31 04:45:21.4	91.470	-0.150	0.520	1.330
2020/01/31 04:45:21.5	91.470	-0.150	0.500	1.320
2020/01/31 04:45:21.6	91.470	-0.160	0.470	1.300
2020/01/31 04:45:21.7	91.480	-0.160	0.440	1.270
2020/01/31 04:45:21.8	91.480	-0.160	0.400	1.250
2020/01/31 04:45:21.9	91.490	-0.170	0.360	1.210
2020/01/31 04:45:22.0	91.500	-0.170	0.320	1.170
2020/01/31 04:45:22.1	91.510	-0.160	0.270	1.130
2020/01/31 04:45:22.2	91.530	-0.160	0.220	1.090
2020/01/31 04:45:22.3	91.540	-0.160	0.170	1.050
2020/01/31 04:45:22.4	91.560	-0.150	0.110	1.000
2020/01/31 04:45:22.5	91.570	-0.150	0.050	0.950
2020/01/31 04:45:22.6	91.590	-0.140	-0.000	0.900
2020/01/31 04:45:22.7	91.600	-0.130	-0.060	0.850
2020/01/31 04:45:22.8	91.620	-0.120	-0.120	0.800
2020/01/31 04:45:22.9	91.630	-0.100	-0.180	0.750
2020/01/31 04:45:23.0	91.650	-0.090	-0.230	0.700
2020/01/31 04:45:23.1	91.660	-0.080	-0.290	0.660
2020/01/31 04:45:23.2	91.680	-0.060	-0.350	0.610
2020/01/31 04:45:23.3	91.690	-0.050	-0.390	0.570
2020/01/31 04:45:23.4	91.700	-0.040	-0.440	0.530
2020/01/31 04:45:23.5	91.710	-0.020	-0.480	0.500
2020/01/31 04:45:23.6	91.720	-0.010	-0.510	0.460
2020/01/31 04:45:23.7	91.730	0.010	-0.540	0.430
2020/01/31 04:45:23.8	91.740	0.020	-0.570	0.410
2020/01/31 04:45:23.9	91.750	0.030	-0.580	0.380
2020/01/31 04:45:24.0	91.770	0.050	-0.600	0.360
2020/01/31 04:45:24.1	91.780	0.060	-0.610	0.340
2020/01/31 04:45:24.2	91.790	0.070	-0.600	0.320
2020/01/31 04:45:24.3	91.810	0.070	-0.600	0.300
2020/01/31 04:45:24.4	91.820	0.080	-0.590	0.290
2020/01/31 04:45:24.5	91.840	0.090	-0.580	0.280
2020/01/31 04:45:24.6	91.850	0.090	-0.560	0.270
2020/01/31 04:45:24.7	91.870	0.090	-0.540	0.270
2020/01/31 04:45:24.8	91.890	0.090	-0.510	0.260
2020/01/31 04:45:24.9	91.900	0.090	-0.480	0.260
2020/01/31 04:45:25.0	91.920	0.080	-0.450	0.270
2020/01/31 04:45:25.1	91.940	0.070	-0.410	0.270
2020/01/31 04:45:25.2	91.960	0.070	-0.370	0.280
2020/01/31 04:45:25.3	91.980	0.060	-0.340	0.290
2020/01/31 04:45:25.4	91.990	0.050	-0.300	0.310
2020/01/31 04:45:25.5	92.010	0.030	-0.260	0.330
2020/01/31 04:45:25.6	92.020	0.020	-0.220	0.350
2020/01/31 04:45:25.7	92.040	0.010	-0.180	0.370
2020/01/31 04:45:25.8	92.050	-0.010	-0.150	0.390
2020/01/31 04:45:25.9	92.060	-0.030	-0.110	0.420
2020/01/31 04:45:26.0	92.060	-0.040	-0.080	0.450
2020/01/31 04:45:26.1	92.060	-0.060	-0.060	0.480
2020/01/31 04:45:26.2	92.060	-0.080	-0.030	0.520
2020/01/31 04:45:26.3	92.050	-0.100	-0.010	0.550
2020/01/31 04:45:26.4	92.040	-0.110	0.000	0.580
2020/01/31 04:45:26.5	92.030	-0.130	0.010	0.620
2020/01/31 04:45:26.6	92.020	-0.150	0.020	0.650
2020/01/31 04:45:26.7	92.010	-0.170	0.020	0.680
2020/01/31 04:45:26.8	91.990	-0.180	0.020	0.710
2020/01/31 04:45:26.9	91.980	-0.200	0.020	0.740
2020/01/31 04:45:27.0	91.960	-0.210	0.010	0.760
2020/01/31 04:45:27.1	91.940	-0.230	-0.000	0.790
2020/01/31 04:45:27.2	91.920	-0.240	-0.020	0.810
2020/01/31 04:45:27.3	91.910	-0.260	-0.030	0.830
2020/01/31 04:45:27.4	91.890	-0.270	-0.050	0.850
2020/01/31 04:45:27.5	91.880	-0.280	-0.080	0.860
2020/01/31 04:45:27.6	91.860	-0.290	-0.100	0.870
2020/01/31 04:45:27.7	91.850	-0.300	-0.130	0.890
2020/01/31 04:45:27.8	91.840	-0.310	-0.160	0.900
2020/01/31 04:45:27.9	91.830	-0.310	-0.190	0.910
2020/01/31 04:45:28.0	91.820	-0.310	-0.220	0.920
2020/01/31 04:45:28.1	91.810	-0.310	-0.250	0.930
2020/01/31 04:45:28.2	91.800	-0.310	-0.280	0.940
2020/01/31 04:45:28.3	91.790	-0.310	-0.320	0.940
2020/01/31 04:45:28.4	91.790	-0.300	-0.350	0.950
2020/01/31 04:45:28.5	91.780	-0.300	-0.380	0.950
2020/01/31 04:45:28.6	91.770	-0.280	-0.410	0.960
2020/01/31 04:45:28.7	91.770	-0.270	-0.440	0.960
2020/01/31 04:45:28.8	91.770	-0.260	-0.460	0.960
2020/01/31 04:45:28.9	91.770	-0.240	-0.490	0.960
2020/01/31 04:45:29.0	91.770	-0.220	-0.520	0.950
2020/01/31 04:45:29.1	91.770	-0.190	-0.540	0.950
2020/01/31 04:45:29.2	91.760	-0.170	-0.560	0.930
2020/01/31 04:45:29.3	91.760	-0.140	-0.580	0.920
2020/01/31 04:45:29.4	91.770	-0.110	-0.600	0.910
2020/01/31 04:45:29.5	91.770	-0.070	-0.610	0.890
2020/01/31 04:45:29.6	91.780	-0.040	-0.630	0.870
2020/01/31 04:45:29.7	91.780	-0.000	-0.640	0.850
2020/01/31 04:45:29.8	91.790	0.040	-0.650	0.820
2020/01/31 04:45:29.9	91.800	0.080	-0.650	0.800
2020/01/31 04:45:30.0	91.810	0.120	-0.660	0.780
2020/01/31 04:45:30.1	91.830	0.160	-0.660	0.750
2020/01/31 04:45:30.2	91.840	0.200	-0.660	0.740
2020/01/31 04:45:30.3	91.850	0.240	-0.660	0.710
2020/01/31 04:45:30.4	91.860	0.280	-0.650	0.690
2020/01/31 04:45:30.5	91.880	0.320	-0.640	0.680
2020/01/31 04:45:30.6	91.890	0.360	-0.630	0.660
2020/01/31 04:45:30.7	91.900	0.390	-0.610	0.640
2020/01/31 04:45:30.8	91.910	0.420	-0.590	0.630
2020/01/31 04:45:30.9	91.910	0.450	-0.570	0.620
2020/01/31 04:45:31.0	91.920	0.480	-0.540	0.600
2020/01/31 04:45:31.1	91.920	0.500	-0.510	0.590
2020/01/31 04:45:31.2	91.930	0.520	-0.470	0.580
2020/01/31 04:45:31.3	91.930	0.530	-0.440	0.570
2020/01/31 04:45:31.4	91.930	0.540	-0.400	0.560
2020/01/31 04:45:31.5	91.930	0.540	-0.350	0.550
2020/01/31 04:45:31.6	91.930	0.540	-0.300	0.530
2020/01/31 04:45:31.7	91.920	0.530	-0.250	0.520
2020/01/31 04:45:31.8	91.920	0.510	-0.200	0.500
2020/01/31 04:45:31.9	91.910	0.490	-0.150	0.490
2020/01/31 04:45:32.0	91.900	0.470	-0.090	0.470
2020/01/31 04:45:32.1	91.890	0.440	-0.030	0.450
2020/01/31 04:45:32.2	91.880	0.400	0.030	0.440
2020/01/31 04:45:32.3	91.870	0.360	0.090	0.420
2020/01/31 04:45:32.4	91.850	0.320	0.150	0.400
2020/01/31 04:45:32.5	91.840	0.280	0.210	0.380
2020/01/31 04:45:32.6	91.820	0.230	0.270	0.360
2020/01/31 04:45:32.7	91.800	0.180	0.320	0.350
2020/01/31 04:45:32.8	91.790	0.120	0.380	0.330
2020/01/31 04:45:32.9	91.770	0.070	0.430	0.320
2020/01/31 04:45:33.0	91.750	0.010	0.480	0.310
2020/01/31 04:45:33.1	91.740	-0.040	0.520	0.300
2020/01/31 04:45:33.2	91.730	-0.100	0.560	0.290
2020/01/31 04:45:33.3	91.720	-0.150	0.590	0.290
2020/01/31 04:45:33.4	91.710	-0.200	0.620	0.280
2020/01/31 04:45:33.5	91.700	-0.250	0.640	0.280
2020/01/31 04:45:33.6	91.690	-0.300	0.650	0.280
2020/01/31 04:45:33.7	91.680	-0.340	0.660	0.280
2020/01/31 04:45:33.8	91.670	-0.380	0.660	0.280
2020/01/31 04:45:33.9	91.670	-0.420	0.650	0.290
2020/01/31 04:45:34.0	91.670	-0.450	0.630	0.290
2020/01/31 04:45:34.1	91.660	-0.470	0.610	0.300
2020/01/31 04:45:34.2	91.670	-0.490	0.580	0.310
2020/01/31 04:45:34.3	91.670	-0.500	0.530	0.330
2020/01/31 04:45:34.4	91.670	-0.510	0.480	0.340
2020/01/31 04:45:34.5	91.680	-0.510	0.420	0.350
2020/01/31 04:45:34.6	91.680	-0.510	0.350	0.370
2020/01/31 04:45:34.7	91.690	-0.490	0.270	0.390
2020/01/31 04:45:34.8	91.690	-0.470	0.190	0.410
2020/01/31 04:45:34.9	91.700	-0.450	0.100	0.430
2020/01/31 04:45:35.0	91.710	-0.420	-0.000	0.440
2020/01/31 04:45:35.1	91.710	-0.380	-0.100	0.460
2020/01/31 04:45:35.2	91.730	-0.340	-0.220	0.480
2020/01/31 04:45:35.3	91.740	-0.300	-0.330	0.500
2020/01/31 04:45:35.4	91.740	-0.250	-0.440	0.510
2020/01/31 04:45:35.5	91.750	-0.190	-0.550	0.520
2020/01/31 04:45:35.6	91.760	-0.140	-0.660	0.540
2020/01/31 04:45:35.7	91.770	-0.080	-0.770	0.550
2020/01/31 04:45:35.8	91.780	-0.010	-0.880	0.560
2020/01/31 04:45:35.9	91.780	0.050	-0.980	0.570
2020/01/31 04:45:36.0	91.790	0.110	-1.080	0.580
2020/01/31 04:45:36.1	91.790	0.170	-1.170	0.590
2020/01/31 04:45:36.2	91.800	0.230	-1.250	0.610
2020/01/31 04:45:36.3	91.800	0.290	-1.320	0.620
2020/01/31 04:45:36.4	91.800	0.350	-1.380	0.640
2020/01/31 04:45:36.5	91.790	0.400	-1.420	0.660
2020/01/31 04:45:36.6	91.790	0.450	-1.460	0.680
2020/01/31 04:45:36.7	91.780	0.490	-1.470	0.710
2020/01/31 04:45:36.8	91.770	0.530	-1.480	0.730
2020/01/31 04:45:36.9	91.760	0.560	-1.470	0.760
2020/01/31 04:45:37.0	91.750	0.580	-1.440	0.800
2020/01/31 04:45:37.1	91.740	0.600	-1.400	0.830
2020/01/31 04:45:37.2	91.730	0.610	-1.340	0.870
2020/01/31 04:45:37.3	91.720	0.610	-1.270	0.910
2020/01/31 04:45:37.4	91.700	0.610	-1.180	0.950
2020/01/31 04:45:37.5	91.690	0.600	-1.090	1.000
2020/01/31 04:45:37.6	91.670	0.580	-0.980	1.040
2020/01/31 04:45:37.7	91.660	0.560	-0.860	1.080
2020/01/31 04:45:37.8	91.640	0.530	-0.730	1.120
2020/01/31 04:45:37.9	91.630	0.490	-0.590	1.160
2020/01/31 04:45:38.0	91.610	0.440	-0.450	1.200
2020/01/31 04:45:38.1	91.600	0.390	-0.300	1.240
2020/01/31 04:45:38.2	91.590	0.340	-0.150	1.270
2020/01/31 04:45:38.3	91.580	0.280	0.010	1.300
2020/01/31 04:45:38.4	91.570	0.210	0.160	1.330
2020/01/31 04:45:38.5	91.560	0.150	0.310	1.350
2020/01/31 04:45:38.6	91.560	0.080	0.460	1.370
2020/01/31 04:45:38.7	91.550	0.010	0.600	1.380
2020/01/31 04:45:38.8	91.550	-0.060	0.730	1.390
2020/01/31 04:45:38.9	91.550	-0.140	0.860	1.390
2020/01/31 04:45:39.0	91.540	-0.210	0.970	1.390
2020/01/31 04:45:39.1	91.540	-0.280	1.070	1.390
2020/01/31 04:45:39.2	91.550	-0.340	1.170	1.380
2020/01/31 04:45:39.3	91.550	-0.410	1.240	1.360
2020/01/31 04:45:39.4	91.550	-0.470	1.300	1.350
2020/01/31 04:45:39.5	91.550	-0.520	1.350	1.330
2020/01/31 04:45:39.6	91.550	-0.570	1.370	1.310
2020/01/31 04:45:39.7	91.550	-0.610	1.380	1.280
2020/01/31 04:45:39.8	91.560	-0.650	1.380	1.260
2020/01/31 04:45:39.9	91.560	-0.680	1.350	1.230
2020/01/31 04:45:40.0	91.560	-0.700	1.310	1.200
2020/01/31 04:45:40.1	91.560	-0.710	1.250	1.170
2020/01/31 04:45:40.2	91.550	-0.720	1.180	1.150
2020/01/31 04:45:40.3	91.550	-0.720	1.090	1.120
2020/01/31 04:45:40.4	91.550	-0.710	0.980	1.090
2020/01/31 04:45:40.5	91.550	-0.690	0.870	1.050
2020/01/31 04:45:40.6	91.550	-0.670	0.740	1.020
2020/01/31 04:45:40.7	91.540	-0.640	0.600	0.980
2020/01/31 04:45:40.8	91.540	-0.610	0.450	0.950
2020/01/31 04:45:40.9	91.540	-0.570	0.300	0.910
2020/01/31 04:45:41.0	91.540	-0.520	0.130	0.880
2020/01/31 04:45:41.1	91.530	-0.470	-0.030	0.840
2020/01/31 04:45:41.2	91.530	-0.420	-0.200	0.810
2020/01/31 04:45:41.3	91.530	-0.360	-0.360	0.770
2020/01/31 04:45:41.4	91.530	-0.300	-0.530	0.740
2020/01/31 04:45:41.5	91.520	-0.230	-0.690	0.710
2020/01/31 04:45:41.6	91.520	-0.170	-0.840	0.690
2020/01/31 04:45:41.7	91.520	-0.110	-0.990	0.660
2020/01/31 04:45:41.8	91.520	-0.040	-1.140	0.640
2020/01/31 04:45:41.9	91.510	0.030	-1.270	0.610
2020/01/31 04:45:42.0	91.510	0.090	-1.400	0.590
2020/01/31 04:45:42.1	91.510	0.150	-1.510	0.580
2020/01/31 04:45:42.2	91.510	0.210	-1.610	0.570
2020/01/31 04:45:42.3	91.510	0.270	-1.700	0.550
2020/01/31 04:45:42.4	91.510	0.330	-1.770	0.550
2020/01/31 04:45:42.5	91.510	0.380	-1.830	0.540
2020/01/31 04:45:42.6	91.510	0.430	-1.880	0.540
2020/01/31 04:45:42.7	91.510	0.470	-1.910	0.540
2020/01/31 04:45:42.8	91.510	0.510	-1.920	0.550
2020/01/31 04:45:42.9	91.510	0.550	-1.920	0.560
2020/01/31 04:45:43.0	91.510	0.580	-1.910	0.570
2020/01/31 04:45:43.1	91.510	0.600	-1.880	0.590
2020/01/31 04:45:43.2	91.510	0.620	-1.830	0.610
2020/01/31 04:45:43.3	91.510	0.640	-1.770	0.630
2020/01/31 04:45:43.4	91.510	0.640	-1.700	0.660
2020/01/31 04:45:43.5	91.500	0.640	-1.610	0.690
2020/01/31 04:45:43.6	91.500	0.640	-1.520	0.710
2020/01/31 04:45:43.7	91.490	0.630	-1.410	0.740
2020/01/31 04:45:43.8	91.490	0.610	-1.290	0.770
2020/01/31 04:45:43.9	91.480	0.580	-1.160	0.800
2020/01/31 04:45:44.0	91.470	0.550	-1.020	0.830
2020/01/31 04:45:44.1	91.460	0.520	-0.870	0.860
2020/01/31 04:45:44.2	91.460	0.480	-0.710	0.880
2020/01/31 04:45:44.3	91.450	0.430	-0.560	0.910
2020/01/31 04:45:44.4	91.440	0.380	-0.400	0.930
2020/01/31 04:45:44.5	91.430	0.320	-0.230	0.950
2020/01/31 04:45:44.6	91.410	0.260	-0.070	0.970
2020/01/31 04:45:44.7	91.390	0.190	0.090	0.990
2020/01/31 04:45:44.8	91.380	0.120	0.250	1.000
2020/01/31 04:45:44.9	91.360	0.050	0.410	1.010
2020/01/31 04:45:45.0	91.340	-0.020	0.560	1.020
2020/01/31 04:45:45.1	91.320	-0.090	0.710	1.030
2020/01/31 04:45:45.2	91.300	-0.170	0.840	1.030
2020/01/31 04:45:45.3	91.290	-0.240	0.970	1.030
2020/01/31 04:45:45.4	91.270	-0.310	1.090	1.030
2020/01/31 04:45:45.5	91.250	-0.380	1.190	1.020
2020/01/31 04:45:45.6	91.230	-0.450	1.290	1.010
2020/01/31 04:45:45.7	91.220	-0.520	1.370	1.000
2020/01/31 04:45:45.8	91.210	-0.580	1.430	0.980
2020/01/31 04:45:45.9	91.200	-0.630	1.480	0.960
2020/01/31 04:45:46.0	91.190	-0.680	1.510	0.940
2020/01/31 04:45:46.1	91.180	-0.720	1.530	0.910
2020/01/31 04:45:46.2	91.180	-0.760	1.530	0.890
2020/01/31 04:45:46.3	91.180	-0.790	1.520	0.860
2020/01/31 04:45:46.4	91.180	-0.810	1.480	0.830
2020/01/31 04:45:46.5	91.180	-0.820	1.430	0.790
2020/01/31 04:45:46.6	91.190	-0.830	1.370	0.760
2020/01/31 04:45:46.7	91.190	-0.820	1.280	0.730
2020/01/31 04:45:46.8	91.200	-0.810	1.190	0.700
2020/01/31 04:45:46.9	91.200	-0.790	1.080	0.660
2020/01/31 04:45:47.0	91.210	-0.770	0.960	0.630
2020/01/31 04:45:47.1	91.220	-0.730	0.830	0.600
2020/01/31 04:45:47.2	91.230	-0.690	0.690	0.570
2020/01/31 04:45:47.3	91.230	-0.640	0.540	0.550
2020/01/31 04:45:47.4	91.240	-0.580	0.390	0.520
2020/01/31 04:45:47.5	91.250	-0.520	0.230	0.490
2020/01/31 04:45:47.6	91.260	-0.450	0.070	0.460
2020/01/31 04:45:47.7	91.270	-0.380	-0.080	0.430
2020/01/31 04:45:47.8	91.280	-0.310	-0.240	0.400
2020/01/31 04:45:47.9	91.290	-0.230	-0.400	0.370
2020/01/31 04:45:48.0	91.300	-0.150	-0.550	0.340
2020/01/31 04:45:48.1	91.310	-0.070	-0.690	0.310
2020/01/31 04:45:48.2	91.320	0.010	-0.830	0.290
2020/01/31 04:45:48.3	91.330	0.090	-0.960	0.260
2020/01/31 04:45:48.4	91.340	0.170	-1.080	0.230
2020/01/31 04:45:48.5	91.350	0.250	-1.180	0.200
2020/01/31 04:45:48.6	91.350	0.320	-1.270	0.180
2020/01/31 04:45:48.7	91.360	0.390	-1.350	0.160
2020/01/31 04:45:48.8	91.360	0.450	-1.420	0.140
2020/01/31 04:45:48.9	91.370	0.510	-1.470	0.120
2020/01/31 04:45:49.0	91.370	0.570	-1.510	0.110
2020/01/31 04:45:49.1	91.380	0.610	-1.530	0.100
2020/01/31 04:45:49.2	91.380	0.660	-1.540	0.090
2020/01/31 04:45:49.3	91.390	0.690	-1.530	0.090
2020/01/31 04:45:49.4	91.390	0.720	-1.510	0.100
2020/01/31 04:45:49.5	91.390	0.740	-1.480	0.100
2020/01/31 04:45:49.6	91.390	0.750	-1.440	0.120
2020/01/31 04:45:49.7	91.390	0.760	-1.390	0.140
2020/01/31 04:45:49.8	91.390	0.760	-1.320	0.160
2020/01/31 04:45:49.9	91.390	0.760	-1.250	0.190
2020/01/31 04:45:50.0	91.390	0.740	-1.180	0.220
2020/01/31 04:45:50.1	91.390	0.730	-1.090	0.260
2020/01/31 04:45:50.2	91.390	0.700	-1.000	0.300
2020/01/31 04:45:50.3	91.390	0.680	-0.910	0.340
2020/01/31 04:45:50.4	91.380	0.640	-0.810	0.390
2020/01/31 04:45:50.5	91.380	0.610	-0.710	0.440
2020/01/31 04:45:50.6	91.380	0.570	-0.620	0.490
2020/01/31 04:45:50.7	91.380	0.520	-0.520	0.540
2020/01/31 04:45:50.8	91.370	0.480	-0.430	0.590
2020/01/31 04:45:50.9	91.370	0.430	-0.340	0.650
2020/01/31 04:45:51.0	91.370	0.390	-0.250	0.700
2020/01/31 04:45:51.1	91.360	0.340	-0.170	0.750
2020/01/31 04:45:51.2	91.360	0.290	-0.090	0.800
2020/01/31 04:45:51.3	91.350	0.250	-0.010	0.850
2020/01/31 04:45:51.4	91.340	0.200	0.060	0.900
2020/01/31 04:45:51.5	91.340	0.150	0.120	0.940
2020/01/31 04:45:51.6	91.330	0.110	0.180	0.980
2020/01/31 04:45:51.7	91.320	0.070	0.230	1.020
2020/01/31 04:45:51.8	91.310	0.030	0.280	1.060
2020/01/31 04:45:51.9	91.300	-0.010	0.330	1.100
2020/01/31 04:45:52.0	91.300	-0.050	0.370	1.130
2020/01/31 04:45:52.1	91.290	-0.090	0.400	1.160
2020/01/31 04:45:52.2	91.270	-0.120	0.430	1.190
2020/01/31 04:45:52.3	91.260	-0.150	0.450	1.220
2020/01/31 04:45:52.4	91.260	-0.180	0.470	1.250
2020/01/31 04:45:52.5	91.250	-0.210	0.490	1.270
2020/01/31 04:45:52.6	91.240	-0.240	0.500	1.290
2020/01/31 04:45:52.7	91.240	-0.260	0.500	1.310
2020/01/31 04:45:52.8	91.230	-0.280	0.500	1.330
2020/01/31 04:45:52.9	91.230	-0.300	0.500	1.350
2020/01/31 04:45:53.0	91.220	-0.310	0.490	1.360
2020/01/31 04:45:53.1	91.220	-0.330	0.470	1.370
2020/01/31 04:45:53.2	91.230	-0.340	0.460	1.380
2020/01/31 04:45:53.3	91.230	-0.340	0.430	1.390
2020/01/31 04:45:53.4	91.230	-0.350	0.400	1.400
2020/01/31 04:45:53.5	91.230	-0.350	0.370	1.400
2020/01/31 04:45:53.6	91.240	-0.350	0.330	1.400
2020/01/31 04:45:53.7	91.240	-0.350	0.290	1.400
2020/01/31 04:45:53.8	91.250	-0.340	0.250	1.390
2020/01/31 04:45:53.9	91.250	-0.340	0.200	1.380
2020/01/31 04:45:54.0	91.260	-0.330	0.160	1.370
2020/01/31 04:45:54.1	91.270	-0.320	0.110	1.360
2020/01/31 04:45:54.2	91.280	-0.300	0.060	1.340
2020/01/31 04:45:54.3	91.280	-0.290	0.010	1.330
2020/01/31 04:45:54.4	91.290	-0.270	-0.040	1.310
2020/01/31 04:45:54.5	91.290	-0.250	-0.090	1.290
2020/01/31 04:45:54.6	91.300	-0.240	-0.130	1.260
2020/01/31 04:45:54.7	91.300	-0.220	-0.180	1.240
2020/01/31 04:45:54.8	91.300	-0.200	-0.220	1.220
2020/01/31 04:45:54.9	91.310	-0.170	-0.270	1.190
2020/01/31 04:45:55.0	91.310	-0.150	-0.310	1.160
2020/01/31 04:45:55.1	91.320	-0.130	-0.340	1.140
2020/01/31 04:45:55.2	91.320	-0.110	-0.380	1.110
2020/01/31 04:45:55.3	91.320	-0.090	-0.410	1.080
2020/01/31 04:45:55.4	91.320	-0.070	-0.440	1.050
2020/01/31 04:45:55.5	91.330	-0.040	-0.460	1.020
2020/01/31 04:45:55.6	91.330	-0.020	-0.490	1.000
2020/01/31 04:45:55.7	91.330	-0.000	-0.510	0.970
2020/01/31 04:45:55.8	91.330	0.020	-0.520	0.940
2020/01/31 04:45:55.9	91.330	0.040	-0.530	0.920
2020/01/31 04:45:56.0	91.330	0.050	-0.540	0.900
2020/01/31 04:45:56.1	91.330	0.070	-0.550	0.870
2020/01/31 04:45:56.2	91.320	0.080	-0.550	0.850
2020/01/31 04:45:56.3	91.320	0.100	-0.550	0.840
2020/01/31 04:45:56.4	91.320	0.110	-0.550	0.820
2020/01/31 04:45:56.5	91.320	0.120	-0.540	0.800
2020/01/31 04:45:56.6	91.310	0.130	-0.530	0.790
2020/01/31 04:45:56.7	91.310	0.130	-0.520	0.780
2020/01/31 04:45:56.8	91.310	0.130	-0.500	0.770
2020/01/31 04:45:56.9	91.310	0.140	-0.490	0.760
2020/01/31 04:45:57.0	91.310	0.130	-0.460	0.750
2020/01/31 04:45:57.1	91.310	0.130	-0.440	0.750
2020/01/31 04:45:57.2	91.310	0.130	-0.420	0.740
2020/01/31 04:45:57.3	91.310	0.120	-0.390	0.730
2020/01/31 04:45:57.4	91.320	0.110	-0.370	0.720
2020/01/31 04:45:57.5	91.320	0.100	-0.350	0.710
2020/01/31 04:45:57.6	91.330	0.090	-0.320	0.700
2020/01/31 04:45:57.7	91.330	0.080	-0.300	0.690
2020/01/31 04:45:57.8	91.340	0.060	-0.280	0.670
2020/01/31 04:45:57.9	91.350	0.050	-0.260	0.660
2020/01/31 04:45:58.0	91.360	0.040	-0.240	0.640
2020/01/31 04:45:58.1	91.380	0.020	-0.230	0.620
2020/01/31 04:45:58.2	91.400	0.010	-0.220	0.610
2020/01/31 04:45:58.3	91.410	-0.010	-0.210	0.590
2020/01/31 04:45:58.4	91.430	-0.020	-0.200	0.570
2020/01/31 04:45:58.5	91.440	-0.030	-0.190	0.540
2020/01/31 04:45:58.6	91.460	-0.040	-0.190	0.520
2020/01/31 04:45:58.7	91.470	-0.050	-0.190	0.500
2020/01/31 04:45:58.8	91.490	-0.060	-0.190	0.480
2020/01/31 04:45:58.9	91.500	-0.060	-0.200	0.460
2020/01/31 04:45:59.0	91.510	-0.070	-0.210	0.440
2020/01/31 04:45:59.1	91.530	-0.070	-0.220	0.430
2020/01/31 04:45:59.2	91.540	-0.070	-0.220	0.410
2020/01/31 04:45:59.3	91.550	-0.070	-0.240	0.400
2020/01/31 04:45:59.4	91.560	-0.060	-0.250	0.390
2020/01/31 04:45:59.5	91.570	-0.050	-0.260	0.380
2020/01/31 04:45:59.6	91.570	-0.050	-0.280	0.370
2020/01/31 04:45:59.7	91.580	-0.030	-0.290	0.360
2020/01/31 04:45:59.8	91.580	-0.020	-0.300	0.360
2020/01/31 04:45:59.9	91.580	-0.010	-0.310	0.360
2020/01/31 04:46:00.0	91.580	0.010	-0.330	0.360
2020/01/31 04:46:00.1	91.580	0.020	-0.340	0.360
2020/01/31 04:46:00.2	91.580	0.040	-0.350	0.370
2020/01/31 04:46:00.3	91.570	0.060	-0.360	0.390
2020/01/31 04:46:00.4	91.570	0.080	-0.360	0.400
2020/01/31 04:46:00.5	91.560	0.100	-0.360	0.430
2020/01/31 04:46:00.6	91.550	0.110	-0.370	0.450
2020/01/31 04:46:00.7	91.540	0.130	-0.370	0.480
2020/01/31 04:46:00.8	91.520	0.140	-0.360	0.520
2020/01/31 04:46:00.9	91.510	0.160	-0.360	0.550
2020/01/31 04:46:01.0	91.490	0.170	-0.350	0.590
2020/01/31 04:46:01.1	91.480	0.180	-0.340	0.640
2020/01/31 04:46:01.2	91.450	0.190	-0.320	0.690
2020/01/31 04:46:01.3	91.430	0.190	-0.310	0.730
2020/01/31 04:46:01.4	91.420	0.190	-0.290	0.780
2020/01/31 04:46:01.5	91.400	0.190	-0.270	0.830
2020/01/31 04:46:01.6	91.380	0.190	-0.250	0.880
2020/01/31 04:46:01.7	91.370	0.180	-0.230	0.920
2020/01/31 04:46:01.8	91.350	0.170	-0.210	0.960
2020/01/31 04:46:01.9	91.340	0.150	-0.190	1.010
2020/01/31 04:46:02.0	91.330	0.140	-0.170	1.040
2020/01/31 04:46:02.1	91.320	0.120	-0.150	1.080
2020/01/31 04:46:02.2	91.310	0.100	-0.130	1.110
2020/01/31 04:46:02.3	91.310	0.080	-0.110	1.130
2020/01/31 04:46:02.4	91.310	0.050	-0.100	1.150
2020/01/31 04:46:02.5	91.310	0.020	-0.080	1.160
2020/01/31 04:46:02.6	91.320	-0.000	-0.070	1.170
2020/01/31 04:46:02.7	91.320	-0.030	-0.060	1.170
2020/01/31 04:46:02.8	91.330	-0.060	-0.050	1.160
2020/01/31 04:46:02.9	91.350	-0.090	-0.040	1.150
2020/01/31 04:46:03.0	91.360	-0.120	-0.040	1.130
2020/01/31 04:46:03.1	91.380	-0.140	-0.040	1.110
2020/01/31 04:46:03.2	91.390	-0.170	-0.040	1.090
2020/01/31 04:46:03.3	91.410	-0.200	-0.040	1.060
2020/01/31 04:46:03.4	91.430	-0.220	-0.050	1.030
2020/01/31 04:46:03.5	91.450	-0.240	-0.050	1.000
2020/01/31 04:46:03.6	91.470	-0.260	-0.060	0.970
2020/01/31 04:46:03.7	91.490	-0.280	-0.070	0.940
2020/01/31 04:46:03.8	91.510	-0.290	-0.080	0.910
2020/01/31 04:46:03.9	91.530	-0.300	-0.100	0.880
2020/01/31 04:46:04.0	91.550	-0.310	-0.110	0.850
2020/01/31 04:46:04.1	91.560	-0.310	-0.120	0.820
2020/01/31 04:46:04.2	91.580	-0.310	-0.140	0.800
2020/01/31 04:46:04.3	91.590	-0.310	-0.160	0.770
2020/01/31 04:46:04.4	91.610	-0.310	-0.170	0.750
2020/01/31 04:46:04.5	91.620	-0.300	-0.190	0.730
2020/01/31 04:46:04.6	91.620	-0.290	-0.200	0.710
2020/01/31 04:46:04.7	91.630	-0.270	-0.210	0.690
2020/01/31 04:46:04.8	91.640	-0.260	-0.220	0.680
2020/01/31 04:46:04.9	91.640	-0.240	-0.230	0.670
2020/01/31 04:46:05.0	91.640	-0.220	-0.240	0.660
2020/01/31 04:46:05.1	91.640	-0.200	-0.240	0.650
2020/01/31 04:46:05.2	91.640	-0.180	-0.240	0.650
2020/01/31 04:46:05.3	91.640	-0.150	-0.240	0.650
2020/01/31 04:46:05.4	91.640	-0.130	-0.240	0.650
2020/01/31 04:46:05.5	91.630	-0.110	-0.240	0.660
2020/01/31 04:46:05.6	91.630	-0.080	-0.230	0.660
2020/01/31 04:46:05.7	91.620	-0.060	-0.220	0.670
2020/01/31 04:46:05.8	91.610	-0.040	-0.210	0.680
2020/01/31 04:46:05.9	91.600	-0.020	-0.190	0.700
2020/01/31 04:46:06.0	91.590	0.000	-0.170	0.710
2020/01/31 04:46:06.1	91.580	0.020	-0.150	0.730
2020/01/31 04:46:06.2	91.570	0.040	-0.130	0.750
2020/01/31 04:46:06.3	91.560	0.060	-0.110	0.770
2020/01/31 04:46:06.4	91.550	0.070	-0.090	0.790
2020/01/31 04:46:06.5	91.540	0.090	-0.060	0.810
2020/01/31 04:46:06.6	91.520	0.100	-0.040	0.820
2020/01/31 04:46:06.7	91.510	0.110	-0.020	0.840
2020/01/31 04:46:06.8	91.490	0.120	-0.000	0.860
2020/01/31 04:46:06.9	91.480	0.140	0.020	0.870
2020/01/31 04:46:07.0	91.460	0.150	0.030	0.880
2020/01/31 04:46:07.1	91.450	0.160	0.040	0.890
2020/01/31 04:46:07.2	91.430	0.170	0.040	0.900
2020/01/31 04:46:07.3	91.420	0.180	0.050	0.900
2020/01/31 04:46:07.4	91.400	0.190	0.040	0.900
2020/01/31 04:46:07.5	91.390	0.200	0.040	0.900
2020/01/31 04:46:07.6	91.380	0.210	0.030	0.890
2020/01/31 04:46:07.7	91.370	0.230	0.010	0.870
2020/01/31 04:46:07.8	91.360	0.240	-0.010	0.850
2020/01/31 04:46:07.9	91.360	0.260	-0.040	0.830
2020/01/31 04:46:08.0	91.360	0.270	-0.070	0.810
2020/01/31 04:46:08.1	91.350	0.290	-0.110	0.780
2020/01/31 04:46:08.2	91.350	0.310	-0.140	0.740
2020/01/31 04:46:08.3	91.360	0.320	-0.180	0.710
2020/01/31 04:46:08.4	91.360	0.340	-0.230	0.670
2020/01/31 04:46:08.5	91.370	0.360	-0.280	0.630
2020/01/31 04:46:08.6	91.380	0.380	-0.330	0.590
2020/01/31 04:46:08.7	91.390	0.390	-0.370	0.550
2020/01/31 04:46:08.8	91.400	0.410	-0.420	0.520
2020/01/31 04:46:08.9	91.410	0.420	-0.470	0.480
2020/01/31 04:46:09.0	91.430	0.440	-0.520	0.440
2020/01/31 04:46:09.1	91.440	0.450	-0.570	0.400
2020/01/31 04:46:09.2	91.460	0.460	-0.620	0.370
2020/01/31 04:46:09.3	91.480	0.470	-0.660	0.340
2020/01/31 04:46:09.4	91.490	0.480	-0.690	0.320
2020/01/31 04:46:09.5	91.510	0.480	-0.730	0.290
2020/01/31 04:46:09.6	91.530	0.480	-0.750	0.270
2020/01/31 04:46:09.7	91.540	0.480	-0.780	0.260
2020/01/31 04:46:09.8	91.560	0.480	-0.790	0.240
2020/01/31 04:46:09.9	91.570	0.480	-0.810	0.240
2020/01/31 04:46:10.0	91.580	0.470	-0.810	0.230
2020/01/31 04:46:10.1	91.600	0.460	-0.810	0.230
2020/01/31 04:46:10.2	91.610	0.450	-0.800	0.230
2020/01/31 04:46:10.3	91.620	0.430	-0.780	0.240
2020/01/31 04:46:10.4	91.630	0.420	-0.760	0.250
2020/01/31 04:46:10.5	91.640	0.400	-0.740	0.260
2020/01/31 04:46:10.6	91.640	0.380	-0.700	0.270
2020/01/31 04:46:10.7	91.650	0.350	-0.660	0.290
2020/01/31 04:46:10.8	91.650	0.330	-0.620	0.310
2020/01/31 04:46:10.9	91.650	0.300	-0.570	0.330
2020/01/31 04:46:11.0	91.650	0.270	-0.520	0.360
2020/01/31 04:46:11.1	91.650	0.240	-0.460	0.390
2020/01/31 04:46:11.2	91.640	0.210	-0.410	0.420
2020/01/31 04:46:11.3	91.640	0.170	-0.350	0.450
2020/01/31 04:46:11.4	91.630	0.140	-0.290	0.480
2020/01/31 04:46:11.5	91.620	0.110	-0.220	0.520
2020/01/31 04:46:11.6	91.620	0.070	-0.160	0.550
2020/01/31 04:46:11.7	91.610	0.040	-0.100	0.590
2020/01/31 04:46:11.8	91.590	0.000	-0.040	0.620
2020/01/31 04:46:11.9	91.580	-0.030	0.010	0.660
2020/01/31 04:46:12.0	91.570	-0.070	0.070	0.700
2020/01/31 04:46:12.1	91.560	-0.100	0.110	0.740
2020/01/31 04:46:12.2	91.550	-0.130	0.160	0.770
2020/01/31 04:46:12.3	91.540	-0.160	0.200	0.810
2020/01/31 04:46:12.4	91.530	-0.180	0.230	0.850
2020/01/31 04:46:12.5	91.520	-0.210	0.260	0.880
2020/01/31 04:46:12.6	91.510	-0.230	0.280	0.920
2020/01/31 04:46:12.7	91.500	-0.260	0.290	0.960
2020/01/31 04:46:12.8	91.490	-0.280	0.300	1.000
2020/01/31 04:46:12.9	91.480	-0.300	0.310	1.040
2020/01/31 04:46:13.0	91.460	-0.320	0.310	1.080
2020/01/31 04:46:13.1	91.450	-0.330	0.310	1.120
2020/01/31 04:46:13.2	91.420	-0.350	0.300	1.170
2020/01/31 04:46:13.3	91.400	-0.370	0.290	1.210
2020/01/31 04:46:13.4	91.380	-0.380	0.280	1.250
2020/01/31 04:46:13.5	91.360	-0.400	0.260	1.290
2020/01/31 04:46:13.6	91.330	-0.420	0.250	1.330
2020/01/31 04:46:13.7	91.310	-0.430	0.230	1.370
2020/01/31 04:46:13.8	91.280	-0.450	0.210	1.400
2020/01/31 04:46:13.9	91.260	-0.470	0.190	1.420
2020/01/31 04:46:14.0	91.230	-0.480	0.170	1.440
2020/01/31 04:46:14.1	91.210	-0.500	0.140	1.460
2020/01/31 04:46:14.2	91.190	-0.510	0.120	1.470
2020/01/31 04:46:14.3	91.170	-0.530	0.100	1.470
2020/01/31 04:46:14.4	91.160	-0.540	0.070	1.470
2020/01/31 04:46:14.5	91.140	-0.560	0.050	1.460
2020/01/31 04:46:14.6	91.130	-0.570	0.030	1.440
2020/01/31 04:46:14.7	91.130	-0.580	0.010	1.420
2020/01/31 04:46:14.8	91.120	-0.590	-0.010	1.400
2020/01/31 04:46:14.9	91.120	-0.600	-0.040	1.370
2020/01/31 04:46:15.0	91.120	-0.610	-0.060	1.330
2020/01/31 04:46:15.1	91.120	-0.610	-0.080	1.300
2020/01/31 04:46:15.2	91.140	-0.620	-0.100	1.250
2020/01/31 04:46:15.3	91.140	-0.620	-0.120	1.210
2020/01/31 04:46:15.4	91.160	-0.610	-0.140	1.170
2020/01/31 04:46:15.5	91.170	-0.610	-0.170	1.130
2020/01/31 04:46:15.6	91.180	-0.600	-0.190	1.090
2020/01/31 04:46:15.7	91.200	-0.580	-0.210	1.040
2020/01/31 04:46:15.8	91.210	-0.570	-0.240	1.000
2020/01/31 04:46:15.9	91.230	-0.550	-0.260	0.960
2020/01/31 04:46:16.0	91.250	-0.520	-0.280	0.920
2020/01/31 04:46:16.1	91.270	-0.500	-0.310	0.890
2020/01/31 04:46:16.2	91.280	-0.470	-0.330	0.850
2020/01/31 04:46:16.3	91.300	-0.440	-0.360	0.820
2020/01/31 04:46:16.4	91.320	-0.400	-0.380	0.800
2020/01/31 04:46:16.5	91.330	-0.370	-0.400	0.770
2020/01/31 04:46:16.6	91.340	-0.330	-0.430	0.750
2020/01/31 04:46:16.7	91.350	-0.290	-0.450	0.730
2020/01/31 04:46:16.8	91.360	-0.250	-0.470	0.720
2020/01/31 04:46:16.9	91.370	-0.210	-0.490	0.700
2020/01/31 04:46:17.0	91.380	-0.170	-0.510	0.690
2020/01/31 04:46:17.1	91.390	-0.120	-0.530	0.670
2020/01/31 04:46:17.2	91.390	-0.080	-0.540	0.670
2020/01/31 04:46:17.3	91.400	-0.040	-0.550	0.660
2020/01/31 04:46:17.4	91.400	0.010	-0.570	0.650
2020/01/31 04:46:17.5	91.400	0.050	-0.580	0.640
2020/01/31 04:46:17.6	91.400	0.090	-0.600	0.630
2020/01/31 04:46:17.7	91.400	0.130	-0.610	0.610
2020/01/31 04:46:17.8	91.400	0.170	-0.620	0.600
2020/01/31 04:46:17.9	91.390	0.210	-0.630	0.590
2020/01/31 04:46:18.0	91.390	0.250	-0.640	0.580
2020/01/31 04:46:18.1	91.390	0.290	-0.650	0.560
2020/01/31 04:46:18.2	91.380	0.320	-0.670	0.550
2020/01/31 04:46:18.3	91.380	0.350	-0.680	0.540
2020/01/31 04:46:18.4	91.370	0.380	-0.680	0.530
2020/01/31 04:46:18.5	91.370	0.410	-0.680	0.510
2020/01/31 04:46:18.6	91.360	0.440	-0.690	0.500
2020/01/31 04:46:18.7	91.350	0.460	-0.680	0.490
2020/01/31 04:46:18.8	91.340	0.480	-0.680	0.480
2020/01/31 04:46:18.9	91.330	0.500	-0.670	0.470
2020/01/31 04:46:19.0	91.330	0.510	-0.660	0.470
2020/01/31 04:46:19.1	91.320	0.520	-0.650	0.460
2020/01/31 04:46:19.2	91.310	0.530	-0.630	0.460
2020/01/31 04:46:19.3	91.300	0.530	-0.600	0.460
2020/01/31 04:46:19.4	91.290	0.530	-0.570	0.460
2020/01/31 04:46:19.5	91.280	0.530	-0.540	0.470
2020/01/31 04:46:19.6	91.270	0.530	-0.500	0.480
2020/01/31 04:46:19.7	91.260	0.510	-0.460	0.490
2020/01/31 04:46:19.8	91.250	0.500	-0.410	0.500
2020/01/31 04:46:19.9	91.240	0.480	-0.360	0.510
2020/01/31 04:46:20.0	91.230	0.460	-0.300	0.530
2020/01/31 04:46:20.1	91.220	0.440	-0.240	0.550
2020/01/31 04:46:20.2	91.220	0.410	-0.180	0.570
2020/01/31 04:46:20.3	91.210	0.380	-0.120	0.590
2020/01/31 04:46:20.4	91.190	0.350	-0.050	0.610
2020/01/31 04:46:20.5	91.180	0.310	0.020	0.630
2020/01/31 04:46:20.6	91.170	0.280	0.090	0.650
2020/01/31 04:46:20.7	91.160	0.240	0.160	0.670
2020/01/31 04:46:20.8	91.150	0.200	0.230	0.680
2020/01/31 04:46:20.9	91.130	0.160	0.290	0.700
2020/01/31 04:46:21.0	91.120	0.120	0.350	0.710
2020/01/31 04:46:21.1	91.110	0.080	0.410	0.720
2020/01/31 04:46:21.2	91.100	0.040	0.470	0.720
2020/01/31 04:46:21.3	91.080	-0.000	0.520	0.720
2020/01/31 04:46:21.4	91.070	-0.040	0.560	0.730
2020/01/31 04:46:21.5	91.050	-0.070	0.600	0.720
2020/01/31 04:46:21.6	91.040	-0.110	0.630	0.720
2020/01/31 04:46:21.7	91.020	-0.140	0.650	0.720
2020/01/31 04:46:21.8	91.010	-0.170	0.660	0.710
2020/01/31 04:46:21.9	90.990	-0.190	0.660	0.700
2020/01/31 04:46:22.0	90.980	-0.210	0.660	0.690
2020/01/31 04:46:22.1	90.970	-0.230	0.640	0.680
2020/01/31 04:46:22.2	90.960	-0.240	0.620	0.670
2020/01/31 04:46:22.3	90.950	-0.250	0.590	0.650
2020/01/31 04:46:22.4	90.940	-0.250	0.550	0.640
2020/01/31 04:46:22.5	90.930	-0.250	0.500	0.630
2020/01/31 04:46:22.6	90.920	-0.250	0.450	0.610
2020/01/31 04:46:22.7	90.920	-0.240	0.390	0.590
2020/01/31 04:46:22.8	90.910	-0.220	0.320	0.580
2020/01/31 04:46:22.9	90.910	-0.210	0.250	0.560
2020/01/31 04:46:23.0	90.910	-0.190	0.170	0.550
2020/01/31 04:46:23.1	90.920	-0.170	0.090	0.540
2020/01/31 04:46:23.2	90.920	-0.140	0.000	0.520
2020/01/31 04:46:23.3	90.930	-0.110	-0.090	0.510
2020/01/31 04:46:23.4	90.940	-0.080	-0.180	0.500
2020/01/31 04:46:23.5	90.950	-0.050	-0.270	0.490
2020/01/31 04:46:23.6	90.960	-0.010	-0.370	0.490
2020/01/31 04:46:23.7	90.970	0.030	-0.460	0.480
2020/01/31 04:46:23.8	90.990	0.060	-0.560	0.470
2020/01/31 04:46:23.9	91.000	0.100	-0.650	0.470
2020/01/31 04:46:24.0	91.020	0.140	-0.740	0.470
2020/01/31 04:46:24.1	91.030	0.180	-0.830	0.460
2020/01/31 04:46:24.2	91.060	0.220	-0.920	0.460
2020/01/31 04:46:24.3	91.070	0.260	-1.000	0.460
2020/01/31 04:46:24.4	91.090	0.300	-1.080	0.460
2020/01/31 04:46:24.5	91.110	0.330	-1.140	0.470
2020/01/31 04:46:24.6	91.130	0.370	-1.210	0.470
2020/01/31 04:46:24.7	91.150	0.400	-1.260	0.480
2020/01/31 04:46:24.8	91.160	0.430	-1.300	0.490
2020/01/31 04:46:24.9	91.180	0.450	-1.340	0.490
2020/01/31 04:46:25.0	91.190	0.470	-1.360	0.500
2020/01/31 04:46:25.1	91.210	0.490	-1.380	0.510
2020/01/31 04:46:25.2	91.220	0.510	-1.390	0.530
2020/01/31 04:46:25.3	91.240	0.520	-1.380	0.540
2020/01/31 04:46:25.4	91.250	0.530	-1.370	0.550
2020/01/31 04:46:25.5	91.260	0.530	-1.340	0.560
2020/01/31 04:46:25.6	91.260	0.530	-1.300	0.580
2020/01/31 04:46:25.7	91.270	0.530	-1.250	0.590
2020/01/31 04:46:25.8	91.280	0.520	-1.190	0.610
2020/01/31 04:46:25.9	91.280	0.500	-1.120	0.630
2020/01/31 04:46:26.0	91.280	0.480	-1.040	0.640
2020/01/31 04:46:26.1	91.290	0.460	-0.940	0.660
2020/01/31 04:46:26.2	91.290	0.430	-0.840	0.680
2020/01/31 04:46:26.3	91.290	0.400	-0.730	0.700
2020/01/31 04:46:26.4	91.290	0.370	-0.620	0.730
2020/01/31 04:46:26.5	91.290	0.330	-0.500	0.750
2020/01/31 04:46:26.6	91.280	0.290	-0.380	0.770
2020/01/31 04:46:26.7	91.280	0.250	-0.250	0.800
2020/01/31 04:46:26.8	91.270	0.200	-0.130	0.830
2020/01/31 04:46:26.9	91.260	0.150	0.000	0.850
2020/01/31 04:46:27.0	91.260	0.100	0.130	0.880
2020/01/31 04:46:27.1	91.250	0.050	0.250	0.900
2020/01/31 04:46:27.2	91.240	-0.010	0.370	0.930
2020/01/31 04:46:27.3	91.230	-0.060	0.490	0.950
2020/01/31 04:46:27.4	91.220	-0.120	0.600	0.970
2020/01/31 04:46:27.5	91.210	-0.170	0.700	0.990
2020/01/31 04:46:27.6	91.200	-0.230	0.790	1.010
2020/01/31 04:46:27.7	91.200	-0.280	0.870	1.030
2020/01/31 04:46:27.8	91.190	-0.330	0.940	1.040
2020/01/31 04:46:27.9	91.180	-0.380	1.000	1.050
2020/01/31 04:46:28.0	91.180	-0.420	1.050	1.060
2020/01/31 04:46:28.1	91.170	-0.460	1.090	1.060
2020/01/31 04:46:28.2	91.170	-0.500	1.110	1.070
2020/01/31 04:46:28.3	91.170	-0.540	1.120	1.070
2020/01/31 04:46:28.4	91.170	-0.570	1.120	1.070
2020/01/31 04:46:28.5	91.170	-0.600	1.100	1.060
2020/01/31 04:46:28.6	91.170	-0.620	1.070	1.060
2020/01/31 04:46:28.7	91.170	-0.640	1.040	1.050
2020/01/31 04:46:28.8	91.170	-0.650	0.990	1.050
2020/01/31 04:46:28.9	91.170	-0.660	0.930	1.040
2020/01/31 04:46:29.0	91.170	-0.670	0.860	1.030
2020/01/31 04:46:29.1	91.170	-0.670	0.790	1.020
2020/01/31 04:46:29.2	91.180	-0.670	0.700	1.000
2020/01/31 04:46:29.3	91.180	-0.660	0.610	0.990
2020/01/31 04:46:29.4	91.180	-0.650	0.520	0.980
2020/01/31 04:46:29.5	91.180	-0.630	0.420	0.970
2020/01/31 04:46:29.6	91.180	-0.610	0.320	0.950
2020/01/31 04:46:29.7	91.180	-0.590	0.220	0.930
2020/01/31 04:46:29.8	91.180	-0.570	0.120	0.920
2020/01/31 04:46:29.9	91.180	-0.540	0.010	0.900
2020/01/31 04:46:30.0	91.170	-0.510	-0.090	0.870
2020/01/31 04:46:30.1	91.170	-0.480	-0.190	0.850
2020/01/31 04:46:30.2	91.170	-0.450	-0.290	0.830
2020/01/31 04:46:30.3	91.170	-0.420	-0.380	0.800
2020/01/31 04:46:30.4	91.170	-0.380	-0.470	0.780
2020/01/31 04:46:30.5	91.170	-0.350	-0.560	0.750
2020/01/31 04:46:30.6	91.170	-0.320	-0.640	0.720
2020/01/31 04:46:30.7	91.170	-0.280	-0.710	0.700
2020/01/31 04:46:30.8	91.160	-0.250	-0.780	0.670
2020/01/31 04:46:30.9	91.160	-0.220	-0.850	0.650
2020/01/31 04:46:31.0	91.160	-0.190	-0.910	0.630
2020/01/31 04:46:31.1	91.150	-0.160	-0.960	0.610
2020/01/31 04:46:31.2	91.150	-0.130	-1.000	0.590
2020/01/31 04:46:31.3	91.150	-0.100	-1.040	0.580
2020/01/31 04:46:31.4	91.140	-0.080	-1.070	0.570
2020/01/31 04:46:31.5	91.140	-0.050	-1.090	0.560
2020/01/31 04:46:31.6	91.140	-0.030	-1.110	0.560
2020/01/31 04:46:31.7	91.140	-0.020	-1.120	0.550
2020/01/31 04:46:31.8	91.130	-0.000	-1.120	0.560
2020/01/31 04:46:31.9	91.130	0.010	-1.110	0.560
2020/01/31 04:46:32.0	91.130	0.020	-1.100	0.570
2020/01/31 04:46:32.1	91.130	0.030	-1.090	0.580
2020/01/31 04:46:32.2	91.140	0.040	-1.060	0.600
2020/01/31 04:46:32.3	91.140	0.040	-1.030	0.620
2020/01/31 04:46:32.4	91.150	0.040	-1.000	0.640
2020/01/31 04:46:32.5	91.150	0.040	-0.970	0.660
2020/01/31 04:46:32.6	91.150	0.040	-0.930	0.670
2020/01/31 04:46:32.7	91.150	0.040	-0.890	0.690
2020/01/31 04:46:32.8	91.150	0.030	-0.840	0.710
2020/01/31 04:46:32.9	91.150	0.030	-0.790	0.730
2020/01/31 04:46:33.0	91.150	0.020	-0.740	0.740
2020/01/31 04:46:33.1	91.150	0.010	-0.690	0.750
2020/01/31 04:46:33.2	91.150	0.000	-0.630	0.760
2020/01/31 04:46:33.3	91.140	-0.010	-0.580	0.770
2020/01/31 04:46:33.4	91.140	-0.020	-0.520	0.780
2020/01/31 04:46:33.5	91.130	-0.030	-0.460	0.780
2020/01/31 04:46:33.6	91.130	-0.040	-0.400	0.780
2020/01/31 04:46:33.7	91.120	-0.040	-0.350	0.780
2020/01/31 04:46:33.8	91.110	-0.050	-0.290	0.780
2020/01/31 04:46:33.9	91.100	-0.060	-0.230	0.780
2020/01/31 04:46:34.0	91.090	-0.070	-0.180	0.770
2020/01/31 04:46:34.1	91.070	-0.080	-0.120	0.760
2020/01/31 04:46:34.2	91.060	-0.080	-0.070	0.750
2020/01/31 04:46:34.3	91.050	-0.090	-0.020	0.740
2020/01/31 04:46:34.4	91.040	-0.090	0.030	0.730
2020/01/31 04:46:34.5	91.020	-0.090	0.080	0.720
2020/01/31 04:46:34.6	91.010	-0.100	0.130	0.710
2020/01/31 04:46:34.7	90.990	-0.090	0.170	0.700
2020/01/31 04:46:34.8	90.970	-0.090	0.210	0.700
2020/01/31 04:46:34.9	90.960	-0.090	0.240	0.690
2020/01/31 04:46:35.0	90.940	-0.080	0.270	0.680
2020/01/31 04:46:35.1	90.930	-0.070	0.300	0.680
2020/01/31 04:46:35.2	90.920	-0.060	0.330	0.680
2020/01/31 04:46:35.3	90.900	-0.050	0.340	0.680
2020/01/31 04:46:35.4	90.890	-0.030	0.360	0.680
2020/01/31 04:46:35.5	90.880	-0.010	0.360	0.680
2020/01/31 04:46:35.6	90.860	0.010	0.360	0.680
2020/01/31 04:46:35.7	90.850	0.030	0.350	0.680
2020/01/31 04:46:35.8	90.840	0.060	0.340	0.680
2020/01/31 04:46:35.9	90.840	0.090	0.320	0.690
2020/01/31 04:46:36.0	90.830	0.120	0.290	0.690
2020/01/31 04:46:36.1	90.830	0.160	0.250	0.690
2020/01/31 04:46:36.2	90.830	0.190	0.200	0.700
2020/01/31 04:46:36.3	90.830	0.230	0.150	0.700
2020/01/31 04:46:36.4	90.830	0.270	0.100	0.700
2020/01/31 04:46:36.5	90.830	0.320	0.040	0.690
2020/01/31 04:46:36.6	90.840	0.360	-0.030	0.690
2020/01/31 04:46:36.7	90.840	0.400	-0.090	0.680
2020/01/31 04:46:36.8	90.850	0.440	-0.160	0.680
2020/01/31 04:46:36.9	90.850	0.480	-0.230	0.670
2020/01/31 04:46:37.0	90.850	0.520	-0.290	0.670
2020/01/31 04:46:37.1	90.860	0.560	-0.350	0.660
2020/01/31 04:46:37.2	90.860	0.590	-0.410	0.660
2020/01/31 04:46:37.3	90.860	0.620	-0.470	0.660
2020/01/31 04:46:37.4	90.860	0.650	-0.520	0.650
2020/01/31 04:46:37.5	90.860	0.670	-0.560	0.650
2020/01/31 04:46:37.6	90.850	0.690	-0.600	0.640
2020/01/31 04:46:37.7	90.850	0.700	-0.630	0.640
2020/01/31 04:46:37.8	90.850	0.710	-0.650	0.640
2020/01/31 04:46:37.9	90.840	0.710	-0.670	0.640
2020/01/31 04:46:38.0	90.840	0.710	-0.670	0.640
2020/01/31 04:46:38.1	90.830	0.700	-0.670	0.640
2020/01/31 04:46:38.2	90.830	0.690	-0.670	0.640
2020/01/31 04:46:38.3	90.820	0.670	-0.660	0.640
2020/01/31 04:46:38.4	90.820	0.650	-0.640	0.650
2020/01/31 04:46:38.5	90.820	0.620	-0.610	0.660
2020/01/31 04:46:38.6	90.810	0.590	-0.580	0.670
2020/01/31 04:46:38.7	90.810	0.550	-0.550	0.680
2020/01/31 04:46:38.8	90.810	0.510	-0.510	0.700
2020/01/31 04:46:38.9	90.810	0.460	-0.470	0.710
2020/01/31 04:46:39.0	90.810	0.420	-0.420	0.730
2020/01/31 04:46:39.1	90.820	0.370	-0.380	0.750
2020/01/31 04:46:39.2	90.820	0.320	-0.330	0.770
2020/01/31 04:46:39.3	90.830	0.270	-0.280	0.790
2020/01/31 04:46:39.4	90.840	0.210	-0.240	0.810
2020/01/31 04:46:39.5	90.850	0.160	-0.190	0.820
2020/01/31 04:46:39.6	90.860	0.110	-0.150	0.840
2020/01/31 04:46:39.7	90.870	0.060	-0.100	0.860
2020/01/31 04:46:39.8	90.890	0.000	-0.060	0.880
2020/01/31 04:46:39.9	90.900	-0.050	-0.020	0.890
2020/01/31 04:46:40.0	90.920	-0.100	0.010	0.910
2020/01/31 04:46:40.1	90.930	-0.150	0.040	0.930
2020/01/31 04:46:40.2	90.940	-0.190	0.070	0.940
2020/01/31 04:46:40.3	90.950	-0.230	0.100	0.960
2020/01/31 04:46:40.4	90.970	-0.270	0.130	0.970
2020/01/31 04:46:40.5	90.980	-0.310	0.150	0.980
2020/01/31 04:46:40.6	90.980	-0.350	0.160	1.000
2020/01/31 04:46:40.7	90.990	-0.380	0.180	1.010
2020/01/31 04:46:40.8	90.990	-0.410	0.190	1.020
2020/01/31 04:46:40.9	91.000	-0.430	0.200	1.030
2020/01/31 04:46:41.0	91.000	-0.460	0.210	1.040
2020/01/31 04:46:41.1	91.000	-0.470	0.210	1.050
2020/01/31 04:46:41.2	90.990	-0.490	0.220	1.060
2020/01/31 04:46:41.3	90.990	-0.500	0.220	1.070
2020/01/31 04:46:41.4	90.980	-0.510	0.220	1.070
2020/01/31 04:46:41.5	90.980	-0.510	0.210	1.080
2020/01/31 04:46:41.6	90.970	-0.520	0.200	1.080
2020/01/31 04:46:41.7	90.960	-0.510	0.190	1.090
2020/01/31 04:46:41.8	90.960	-0.510	0.180	1.090
2020/01/31 04:46:41.9	90.950	-0.500	0.170	1.090
2020/01/31 04:46:42.0	90.950	-0.490	0.150	1.090
2020/01/31 04:46:42.1	90.940	-0.470	0.130	1.100
2020/01/31 04:46:42.2	90.930	-0.460	0.100	1.100
2020/01/31 04:46:42.3	90.930	-0.430	0.080	1.100
2020/01/31 04:46:42.4	90.930	-0.410	0.050	1.100
2020/01/31 04:46:42.5	90.930	-0.380	0.020	1.090
2020/01/31 04:46:42.6	90.930	-0.350	-0.020	1.090
2020/01/31 04:46:42.7	90.940	-0.320	-0.060	1.090
2020/01/31 04:46:42.8	90.940	-0.290	-0.100	1.090
2020/01/31 04:46:42.9	90.950	-0.250	-0.140	1.090
2020/01/31 04:46:43.0	90.950	-0.210	-0.190	1.090
2020/01/31 04:46:43.1	90.960	-0.170	-0.240	1.090
2020/01/31 04:46:43.2	90.960	-0.130	-0.280	1.090
2020/01/31 04:46:43.3	90.970	-0.090	-0.330	1.090
2020/01/31 04:46:43.4	90.980	-0.050	-0.380	1.080
2020/01/31 04:46:43.5	90.990	-0.010	-0.430	1.080
2020/01/31 04:46:43.6	90.990	0.030	-0.480	1.080
2020/01/31 04:46:43.7	91.000	0.070	-0.530	1.070
2020/01/31 04:46:43.8	91.000	0.110	-0.580	1.070
2020/01/31 04:46:43.9	91.000	0.150	-0.620	1.060
2020/01/31 04:46:44.0	91.010	0.180	-0.660	1.050
2020/01/31 04:46:44.1	91.010	0.220	-0.700	1.050
2020/01/31 04:46:44.2	91.000	0.250	-0.730	1.040
2020/01/31 04:46:44.3	91.000	0.270	-0.760	1.030
2020/01/31 04:46:44.4	91.000	0.300	-0.780	1.010
2020/01/31 04:46:44.5	90.990	0.310	-0.790	1.000
2020/01/31 04:46:44.6	90.980	0.330	-0.790	0.980
2020/01/31 04:46:44.7	90.970	0.340	-0.790	0.960
2020/01/31 04:46:44.8	90.960	0.340	-0.790	0.950
2020/01/31 04:46:44.9	90.950	0.340	-0.770	0.920
2020/01/31 04:46:45.0	90.940	0.340	-0.750	0.900
2020/01/31 04:46:45.1	90.920	0.330	-0.720	0.880
2020/01/31 04:46:45.2	90.910	0.310	-0.680	0.850
2020/01/31 04:46:45.3	90.890	0.290	-0.640	0.830
2020/01/31 04:46:45.4	90.870	0.270	-0.600	0.800
2020/01/31 04:46:45.5	90.850	0.240	-0.540	0.770
2020/01/31 04:46:45.6	90.820	0.210	-0.490	0.740
2020/01/31 04:46:45.7	90.800	0.170	-0.430	0.710
2020/01/31 04:46:45.8	90.770	0.130	-0.360	0.670
2020/01/31 04:46:45.9	90.750	0.090	-0.290	0.640
2020/01/31 04:46:46.0	90.720	0.050	-0.230	0.610
2020/01/31 04:46:46.1	90.700	0.000	-0.160	0.580
2020/01/31 04:46:46.2	90.670	-0.050	-0.080	0.550
2020/01/31 04:46:46.3	90.650	-0.100	-0.020	0.530
2020/01/31 04:46:46.4	90.630	-0.150	0.050	0.500
2020/01/31 04:46:46.5	90.610	-0.190	0.110	0.480
2020/01/31 04:46:46.6	90.580	-0.240	0.170	0.460
2020/01/31 04:46:46.7	90.570	-0.290	0.230	0.430
2020/01/31 04:46:46.8	90.550	-0.330	0.280	0.420
2020/01/31 04:46:46.9	90.540	-0.370	0.320	0.400
2020/01/31 04:46:47.0	90.530	-0.410	0.360	0.380
2020/01/31 04:46:47.1	90.520	-0.440	0.390	0.360
2020/01/31 04:46:47.2	90.520	-0.470	0.410	0.350
2020/01/31 04:46:47.3	90.520	-0.490	0.420	0.340
2020/01/31 04:46:47.4	90.520	-0.510	0.430	0.320
2020/01/31 04:46:47.5	90.520	-0.530	0.420	0.310
2020/01/31 04:46:47.6	90.530	-0.540	0.410	0.300
2020/01/31 04:46:47.7	90.530	-0.540	0.390	0.290
2020/01/31 04:46:47.8	90.540	-0.540	0.360	0.290
2020/01/31 04:46:47.9	90.550	-0.540	0.330	0.280
2020/01/31 04:46:48.0	90.550	-0.530	0.290	0.280
2020/01/31 04:46:48.1	90.560	-0.510	0.240	0.280
2020/01/31 04:46:48.2	90.570	-0.500	0.180	0.280
2020/01/31 04:46:48.3	90.580	-0.470	0.130	0.270
2020/01/31 04:46:48.4	90.580	-0.450	0.070	0.270
2020/01/31 04:46:48.5	90.590	-0.420	0.000	0.270
2020/01/31 04:46:48.6	90.600	-0.390	-0.070	0.270
2020/01/31 04:46:48.7	90.610	-0.360	-0.140	0.270
2020/01/31 04:46:48.8	90.610	-0.320	-0.210	0.260
2020/01/31 04:46:48.9	90.620	-0.280	-0.280	0.260
2020/01/31 04:46:49.0	90.630	-0.250	-0.350	0.260
2020/01/31 04:46:49.1	90.640	-0.210	-0.420	0.250
2020/01/31 04:46:49.2	90.650	-0.170	-0.500	0.250
2020/01/31 04:46:49.3	90.660	-0.130	-0.560	0.250
2020/01/31 04:46:49.4	90.670	-0.090	-0.630	0.250
2020/01/31 04:46:49.5	90.680	-0.050	-0.690	0.250
2020/01/31 04:46:49.6	90.700	-0.010	-0.750	0.250
2020/01/31 04:46:49.7	90.710	0.030	-0.800	0.260
2020/01/31 04:46:49.8	90.720	0.060	-0.850	0.270
2020/01/31 04:46:49.9	90.730	0.100	-0.890	0.290
2020/01/31 04:46:50.0	90.740	0.130	-0.930	0.310
2020/01/31 04:46:50.1	90.760	0.170	-0.960	0.330
2020/01/31 04:46:50.2	90.770	0.190	-0.990	0.360
2020/01/31 04:46:50.3	90.790	0.220	-1.000	0.390
2020/01/31 04:46:50.4	90.800	0.250	-1.010	0.430
2020/01/31 04:46:50.5	90.810	0.270	-1.020	0.470
2020/01/31 04:46:50.6	90.820	0.290	-1.010	0.510
2020/01/31 04:46:50.7	90.830	0.300	-1.000	0.560
2020/01/31 04:46:50.8	90.840	0.310	-0.970	0.610
2020/01/31 04:46:50.9	90.840	0.320	-0.940	0.670
2020/01/31 04:46:51.0	90.850	0.320	-0.900	0.720
2020/01/31 04:46:51.1	90.850	0.330	-0.860	0.780
2020/01/31 04:46:51.2	90.850	0.320	-0.800	0.840
2020/01/31 04:46:51.3	90.850	0.320	-0.740	0.890
2020/01/31 04:46:51.4	90.850	0.310	-0.680	0.940
2020/01/31 04:46:51.5	90.850	0.290	-0.610	0.990
2020/01/31 04:46:51.6	90.850	0.280	-0.530	1.040
2020/01/31 04:46:51.7	90.850	0.260	-0.450	1.080
2020/01/31 04:46:51.8	90.850	0.230	-0.370	1.110
2020/01/31 04:46:51.9	90.840	0.210	-0.290	1.140
2020/01/31 04:46:52.0	90.840	0.180	-0.210	1.170
2020/01/31 04:46:52.1	90.840	0.160	-0.130	1.190
2020/01/31 04:46:52.2	90.840	0.130	-0.040	1.200
2020/01/31 04:46:52.3	90.840	0.100	0.030	1.210
2020/01/31 04:46:52.4	90.840	0.070	0.110	1.210
2020/01/31 04:46:52.5	90.840	0.040	0.180	1.210
2020/01/31 04:46:52.6	90.840	0.010	0.240	1.200
2020/01/31 04:46:52.7	90.840	-0.020	0.300	1.190
2020/01/31 04:46:52.8	90.840	-0.040	0.350	1.170
2020/01/31 04:46:52.9	90.840	-0.060	0.390	1.160
2020/01/31 04:46:53.0	90.840	-0.080	0.430	1.140
2020/01/31 04:46:53.1	90.840	-0.100	0.460	1.110
2020/01/31 04:46:53.2	90.840	-0.110	0.470	1.090
2020/01/31 04:46:53.3	90.840	-0.120	0.480	1.070
2020/01/31 04:46:53.4	90.830	-0.130	0.490	1.040
2020/01/31 04:46:53.5	90.830	-0.130	0.480	1.020
2020/01/31 04:46:53.6	90.830	-0.120	0.470	0.990
2020/01/31 04:46:53.7	90.820	-0.110	0.450	0.970
2020/01/31 04:46:53.8	90.820	-0.100	0.420	0.940
2020/01/31 04:46:53.9	90.820	-0.090	0.380	0.910
2020/01/31 04:46:54.0	90.810	-0.070	0.350	0.890
2020/01/31 04:46:54.1	90.810	-0.050	0.300	0.860
2020/01/31 04:46:54.2	90.800	-0.020	0.260	0.830
2020/01/31 04:46:54.3	90.800	0.000	0.210	0.800
2020/01/31 04:46:54.4	90.800	0.030	0.170	0.770
2020/01/31 04:46:54.5	90.790	0.060	0.120	0.740
2020/01/31 04:46:54.6	90.790	0.090	0.070	0.700
2020/01/31 04:46:54.7	90.790	0.120	0.030	0.670
2020/01/31 04:46:54.8	90.790	0.140	-0.020	0.630
2020/01/31 04:46:54.9	90.790	0.170	-0.060	0.590
2020/01/31 04:46:55.0	90.790	0.200	-0.100	0.560
2020/01/31 04:46:55.1	90.800	0.220	-0.130	0.520
2020/01/31 04:46:55.2	90.800	0.250	-0.170	0.480
2020/01/31 04:46:55.3	90.810	0.270	-0.190	0.440
2020/01/31 04:46:55.4	90.810	0.290	-0.220	0.410
2020/01/31 04:46:55.5	90.820	0.300	-0.230	0.370
2020/01/31 04:46:55.6	90.830	0.310	-0.250	0.340
2020/01/31 04:46:55.7	90.830	0.320	-0.260	0.310
2020/01/31 04:46:55.8	90.840	0.330	-0.270	0.280
2020/01/31 04:46:55.9	90.850	0.330	-0.280	0.260
2020/01/31 04:46:56.0	90.860	0.340	-0.280	0.230
2020/01/31 04:46:56.1	90.870	0.330	-0.280	0.220
2020/01/31 04:46:56.2	90.880	0.330	-0.280	0.200
2020/01/31 04:46:56.3	90.890	0.320	-0.280	0.190
2020/01/31 04:46:56.4	90.900	0.320	-0.280	0.180
2020/01/31 04:46:56.5	90.910	0.300	-0.270	0.170
2020/01/31 04:46:56.6	90.920	0.290	-0.270	0.170
2020/01/31 04:46:56.7	90.940	0.280	-0.270	0.170
2020/01/31 04:46:56.8	90.950	0.260	-0.270	0.170
2020/01/31 04:46:56.9	90.970	0.250	-0.270	0.180
2020/01/31 04:46:57.0	90.990	0.230	-0.260	0.180
2020/01/31 04:46:57.1	91.010	0.210	-0.260	0.190
2020/01/31 04:46:57.2	91.030	0.190	-0.270	0.200
2020/01/31 04:46:57.3	91.050	0.170	-0.270	0.210
2020/01/31 04:46:57.4	91.070	0.160	-0.270	0.220
2020/01/31 04:46:57.5	91.100	0.140	-0.270	0.240
2020/01/31 04:46:57.6	91.120	0.120	-0.280	0.250
2020/01/31 04:46:57.7	91.150	0.100	-0.280	0.260
2020/01/31 04:46:57.8	91.180	0.080	-0.290	0.280
2020/01/31 04:46:57.9	91.200	0.060	-0.290	0.290
2020/01/31 04:46:58.0	91.230	0.050	-0.300	0.310
2020/01/31 04:46:58.1	91.260	0.030	-0.300	0.320
2020/01/31 04:46:58.2	91.290	0.010	-0.300	0.340
2020/01/31 04:46:58.3	91.320	-0.010	-0.300	0.360
2020/01/31 04:46:58.4	91.340	-0.020	-0.310	0.380
2020/01/31 04:46:58.5	91.370	-0.040	-0.310	0.400
2020/01/31 04:46:58.6	91.390	-0.060	-0.310	0.420
2020/01/31 04:46:58.7	91.410	-0.070	-0.310	0.450
2020/01/31 04:46:58.8	91.430	-0.090	-0.310	0.480
2020/01/31 04:46:58.9	91.450	-0.100	-0.310	0.500
2020/01/31 04:46:59.0	91.460	-0.120	-0.310	0.540
2020/01/31 04:46:59.1	91.480	-0.130	-0.310	0.570
2020/01/31 04:46:59.2	91.500	-0.150	-0.320	0.610
2020/01/31 04:46:59.3	91.510	-0.160	-0.320	0.650
2020/01/31 04:46:59.4	91.510	-0.170	-0.320	0.690
2020/01/31 04:46:59.5	91.520	-0.180	-0.320	0.740
2020/01/31 04:46:59.6	91.520	-0.190	-0.330	0.790
2020/01/31 04:46:59.7	91.520	-0.200	-0.330	0.840
2020/01/31 04:46:59.8	91.520	-0.210	-0.340	0.890
2020/01/31 04:46:59.9	91.510	-0.210	-0.340	0.940
2020/01/31 04:47:00.0	91.510	-0.220	-0.350	1.000
2020/01/31 04:47:00.1	91.500	-0.220	-0.360	1.050
2020/01/31 04:47:00.2	91.480	-0.220	-0.370	1.110
2020/01/31 04:47:00.3	91.470	-0.220	-0.380	1.170
2020/01/31 04:47:00.4	91.460	-0.220	-0.390	1.220
2020/01/31 04:47:00.5	91.440	-0.220	-0.400	1.270
2020/01/31 04:47:00.6	91.430	-0.210	-0.420	1.320
2020/01/31 04:47:00.7	91.410	-0.210	-0.430	1.360
2020/01/31 04:47:00.8	91.400	-0.200	-0.440	1.410
2020/01/31 04:47:00.9	91.380	-0.200	-0.450	1.450
2020/01/31 04:47:01.0	91.360	-0.190	-0.450	1.480
2020/01/31 04:47:01.1	91.350	-0.190	-0.460	1.520
2020/01/31 04:47:01.2	91.330	-0.180	-0.460	1.540
2020/01/31 04:47:01.3	91.310	-0.180	-0.460	1.570
2020/01/31 04:47:01.4	91.300	-0.170	-0.460	1.590
2020/01/31 04:47:01.5	91.280	-0.170	-0.450	1.600
2020/01/31 04:47:01.6	91.270	-0.170	-0.450	1.610
2020/01/31 04:47:01.7	91.260	-0.170	-0.430	1.610
2020/01/31 04:47:01.8	91.250	-0.170	-0.420	1.610
2020/01/31 04:47:01.9	91.240	-0.170	-0.400	1.610
2020/01/31 04:47:02.0	91.230	-0.170	-0.380	1.590
2020/01/31 04:47:02.1	91.220	-0.180	-0.360	1.580
2020/01/31 04:47:02.2	91.200	-0.190	-0.330	1.560
2020/01/31 04:47:02.3	91.190	-0.200	-0.300	1.530
2020/01/31 04:47:02.4	91.190	-0.210	-0.270	1.500
2020/01/31 04:47:02.5	91.180	-0.220	-0.230	1.460
2020/01/31 04:47:02.6	91.180	-0.230	-0.200	1.420
2020/01/31 04:47:02.7	91.180	-0.250	-0.160	1.370
2020/01/31 04:47:02.8	91.170	-0.270	-0.120	1.320
2020/01/31 04:47:02.9	91.170	-0.280	-0.080	1.270
2020/01/31 04:47:03.0	91.170	-0.300	-0.040	1.210
2020/01/31 04:47:03.1	91.170	-0.320	-0.010	1.140
2020/01/31 04:47:03.2	91.160	-0.340	0.040	1.080
2020/01/31 04:47:03.3	91.160	-0.360	0.070	1.010
2020/01/31 04:47:03.4	91.160	-0.370	0.110	0.940
2020/01/31 04:47:03.5	91.160	-0.390	0.140	0.870
2020/01/31 04:47:03.6	91.160	-0.400	0.170	0.800
2020/01/31 04:47:03.7	91.160	-0.410	0.190	0.720
2020/01/31 04:47:03.8	91.160	-0.420	0.210	0.650
2020/01/31 04:47:03.9	91.160	-0.430	0.230	0.580
2020/01/31 04:47:04.0	91.150	-0.430	0.240	0.510
2020/01/31 04:47:04.1	91.160	-0.430	0.250	0.450
2020/01/31 04:47:04.2	91.160	-0.420	0.240	0.380
2020/01/31 04:47:04.3	91.160	-0.400	0.230	0.320
2020/01/31 04:47:04.4	91.170	-0.390	0.220	0.260
2020/01/31 04:47:04.5	91.170	-0.360	0.190	0.200
2020/01/31 04:47:04.6	91.180	-0.330	0.160	0.140
2020/01/31 04:47:04.7	91.190	-0.290	0.130	0.090
2020/01/31 04:47:04.8	91.200	-0.250	0.080	0.040
2020/01/31 04:47:04.9	91.210	-0.200	0.020	-0.010
2020/01/31 04:47:05.0	91.230	-0.150	-0.040	-0.050
2020/01/31 04:47:05.1	91.240	-0.090	-0.120	-0.100
2020/01/31 04:47:05.2	91.260	-0.020	-0.190	-0.130
2020/01/31 04:47:05.3	91.280	0.050	-0.280	-0.170
2020/01/31 04:47:05.4	91.300	0.120	-0.370	-0.200
2020/01/31 04:47:05.5	91.320	0.200	-0.470	-0.230
2020/01/31 04:47:05.6	91.340	0.280	-0.560	-0.260
2020/01/31 04:47:05.7	91.360	0.360	-0.670	-0.290
2020/01/31 04:47:05.8	91.380	0.440	-0.760	-0.320
2020/01/31 04:47:05.9	91.410	0.520	-0.860	-0.340
2020/01/31 04:47:06.0	91.430	0.600	-0.960	-0.370
2020/01/31 04:47:06.1	91.450	0.670	-1.050	-0.390
2020/01/31 04:47:06.2	91.490	0.750	-1.130	-0.410
2020/01/31 04:47:06.3	91.510	0.820	-1.210	-0.430
2020/01/31 04:47:06.4	91.530	0.880	-1.270	-0.440
2020/01/31 04:47:06.5	91.550	0.940	-1.320	-0.450
2020/01/31 04:47:06.6	91.570	0.980	-1.360	-0.460
2020/01/31 04:47:06.7	91.580	1.030	-1.380	-0.470
2020/01/31 04:47:06.8	91.600	1.060	-1.400	-0.470
2020/01/31 04:47:06.9	91.610	1.080	-1.390	-0.470
2020/01/31 04:47:07.0	91.630	1.100	-1.370	-0.470
2020/01/31 04:47:07.1	91.640	1.100	-1.330	-0.460
2020/01/31 04:47:07.2	91.660	1.100	-1.280	-0.440
2020/01/31 04:47:07.3	91.670	1.080	-1.210	-0.420
2020/01/31 04:47:07.4	91.680	1.060	-1.120	-0.400
2020/01/31 04:47:07.5	91.690	1.020	-1.020	-0.370
2020/01/31 04:47:07.6	91.700	0.970	-0.900	-0.330
2020/01/31 04:47:07.7	91.710	0.920	-0.770	-0.290
2020/01/31 04:47:07.8	91.720	0.860	-0.630	-0.250
2020/01/31 04:47:07.9	91.730	0.790	-0.480	-0.200
2020/01/31 04:47:08.0	91.740	0.710	-0.320	-0.140
2020/01/31 04:47:08.1	91.740	0.620	-0.150	-0.090
2020/01/31 04:47:08.2	91.740	0.530	0.030	-0.020
2020/01/31 04:47:08.3	91.750	0.430	0.210	0.040
2020/01/31 04:47:08.4	91.750	0.320	0.390	0.100
2020/01/31 04:47:08.5	91.750	0.210	0.560	0.160
2020/01/31 04:47:08.6	91.760	0.100	0.740	0.230
2020/01/31 04:47:08.7	91.760	-0.010	0.910	0.290
2020/01/31 04:47:08.8	91.770	-0.130	1.070	0.360
2020/01/31 04:47:08.9	91.770	-0.240	1.230	0.420
2020/01/31 04:47:09.0	91.780	-0.350	1.370	0.480
2020/01/31 04:47:09.1	91.780	-0.470	1.500	0.550
2020/01/31 04:47:09.2	91.780	-0.580	1.620	0.610
2020/01/31 04:47:09.3	91.790	-0.680	1.720	0.670
2020/01/31 04:47:09.4	91.790	-0.780	1.800	0.720
2020/01/31 04:47:09.5	91.800	-0.870	1.870	0.780
2020/01/31 04:47:09.6	91.800	-0.950	1.910	0.830
2020/01/31 04:47:09.7	91.810	-1.030	1.930	0.880
2020/01/31 04:47:09.8	91.810	-1.100	1.940	0.920
2020/01/31 04:47:09.9	91.820	-1.160	1.920	0.960
2020/01/31 04:47:10.0	91.820	-1.210	1.880	1.000
2020/01/31 04:47:10.1	91.830	-1.250	1.820	1.030
2020/01/31 04:47:10.2	91.830	-1.280	1.750	1.070
2020/01/31 04:47:10.3	91.840	-1.300	1.660	1.090
2020/01/31 04:47:10.4	91.840	-1.310	1.550	1.110
2020/01/31 04:47:10.5	91.850	-1.310	1.430	1.130
2020/01/31 04:47:10.6	91.860	-1.310	1.290	1.140
2020/01/31 04:47:10.7	91.860	-1.290	1.140	1.140
2020/01/31 04:47:10.8	91.870	-1.270	0.980	1.150
2020/01/31 04:47:10.9	91.880	-1.230	0.810	1.140
2020/01/31 04:47:11.0	91.880	-1.190	0.640	1.140
2020/01/31 04:47:11.1	91.890	-1.150	0.450	1.130
2020/01/31 04:47:11.2	91.900	-1.090	0.260	1.120
2020/01/31 04:47:11.3	91.910	-1.030	0.070	1.110
2020/01/31 04:47:11.4	91.920	-0.960	-0.120	1.090
2020/01/31 04:47:11.5	91.930	-0.890	-0.320	1.080
2020/01/31 04:47:11.6	91.940	-0.810	-0.510	1.060
2020/01/31 04:47:11.7	91.950	-0.730	-0.700	1.050
2020/01/31 04:47:11.8	91.950	-0.640	-0.880	1.030
2020/01/31 04:47:11.9	91.960	-0.550	-1.060	1.020
2020/01/31 04:47:12.0	91.970	-0.460	-1.230	1.010
2020/01/31 04:47:12.1	91.970	-0.360	-1.400	1.000
2020/01/31 04:47:12.2	91.970	-0.270	-1.560	0.990
2020/01/31 04:47:12.3	91.970	-0.170	-1.700	0.980
2020/01/31 04:47:12.4	91.970	-0.070	-1.830	0.980
2020/01/31 04:47:12.5	91.970	0.020	-1.950	0.980
2020/01/31 04:47:12.6	91.970	0.120	-2.060	0.980
2020/01/31 04:47:12.7	91.970	0.210	-2.150	0.980
2020/01/31 04:47:12.8	91.960	0.300	-2.230	0.980
2020/01/31 04:47:12.9	91.950	0.390	-2.290	0.980
2020/01/31 04:47:13.0	91.950	0.480	-2.340	0.980
2020/01/31 04:47:13.1	91.940	0.560	-2.370	0.980
2020/01/31 04:47:13.2	91.930	0.640	-2.380	0.980
2020/01/31 04:47:13.3	91.920	0.710	-2.380	0.980
2020/01/31 04:47:13.4	91.910	0.770	-2.370	0.980
2020/01/31 04:47:13.5	91.910	0.830	-2.340	0.970
2020/01/31 04:47:13.6	91.900	0.880	-2.290	0.970
2020/01/31 04:47:13.7	91.890	0.930	-2.230	0.970
2020/01/31 04:47:13.8	91.880	0.970	-2.150	0.960
2020/01/31 04:47:13.9	91.870	1.000	-2.070	0.960
2020/01/31 04:47:14.0	91.860	1.030	-1.960	0.960
2020/01/31 04:47:14.1	91.850	1.040	-1.850	0.960
2020/01/31 04:47:14.2	91.840	1.050	-1.730	0.950
2020/01/31 04:47:14.3	91.830	1.050	-1.590	0.950
2020/01/31 04:47:14.4	91.820	1.050	-1.450	0.950
2020/01/31 04:47:14.5	91.810	1.040	-1.300	0.950
2020/01/31 04:47:14.6	91.800	1.010	-1.150	0.940
2020/01/31 04:47:14.7	91.790	0.990	-0.980	0.940
2020/01/31 04:47:14.8	91.780	0.950	-0.820	0.940
2020/01/31 04:47:14.9	91.770	0.910	-0.650	0.940
2020/01/31 04:47:15.0	91.770	0.860	-0.480	0.940
2020/01/31 04:47:15.1	91.760	0.810	-0.310	0.940
2020/01/31 04:47:15.2	91.740	0.750	-0.130	0.950
2020/01/31 04:47:15.3	91.730	0.690	0.030	0.950
2020/01/31 04:47:15.4	91.720	0.620	0.200	0.950
2020/01/31 04:47:15.5	91.710	0.550	0.360	0.940
2020/01/31 04:47:15.6	91.700	0.480	0.510	0.940
2020/01/31 04:47:15.7	91.700	0.400	0.660	0.930
2020/01/31 04:47:15.8	91.690	0.320	0.790	0.930
2020/01/31 04:47:15.9	91.680	0.240	0.920	0.920
2020/01/31 04:47:16.0	91.670	0.160	1.040	0.910
2020/01/31 04:47:16.1	91.670	0.070	1.150	0.890
2020/01/31 04:47:16.2	91.660	-0.010	1.250	0.880
2020/01/31 04:47:16.3	91.650	-0.090	1.340	0.860
2020/01/31 04:47:16.4	91.650	-0.170	1.410	0.840
2020/01/31 04:47:16.5	91.640	-0.240	1.480	0.810
2020/01/31 04:47:16.6	91.630	-0.310	1.520	0.780
2020/01/31 04:47:16.7	91.630	-0.380	1.560	0.750
2020/01/31 04:47:16.8	91.630	-0.450	1.580	0.720
2020/01/31 04:47:16.9	91.620	-0.510	1.590	0.680
2020/01/31 04:47:17.0	91.620	-0.560	1.580	0.640
2020/01/31 04:47:17.1	91.620	-0.610	1.560	0.600
2020/01/31 04:47:17.2	91.620	-0.650	1.530	0.550
2020/01/31 04:47:17.3	91.630	-0.680	1.480	0.510
2020/01/31 04:47:17.4	91.630	-0.710	1.420	0.460
2020/01/31 04:47:17.5	91.640	-0.730	1.340	0.410
2020/01/31 04:47:17.6	91.660	-0.740	1.260	0.350
2020/01/31 04:47:17.7	91.670	-0.740	1.160	0.300
2020/01/31 04:47:17.8	91.690	-0.740	1.060	0.250
2020/01/31 04:47:17.9	91.710	-0.730	0.940	0.190
2020/01/31 04:47:18.0	91.730	-0.710	0.820	0.140
2020/01/31 04:47:18.1	91.760	-0.680	0.690	0.080
2020/01/31 04:47:18.2	91.790	-0.650	0.550	0.030
2020/01/31 04:47:18.3	91.820	-0.620	0.410	-0.020
2020/01/31 04:47:18.4	91.850	-0.570	0.270	-0.060
2020/01/31 04:47:18.5	91.890	-0.530	0.130	-0.100
2020/01/31 04:47:18.6	91.920	-0.480	-0.010	-0.140
2020/01/31 04:47:18.7	91.950	-0.420	-0.150	-0.170
2020/01/31 04:47:18.8	91.990	-0.360	-0.290	-0.200
2020/01/31 04:47:18.9	92.020	-0.310	-0.420	-0.220
2020/01/31 04:47:19.0	92.050	-0.250	-0.550	-0.240
2020/01/31 04:47:19.1	92.090	-0.190	-0.670	-0.250
2020/01/31 04:47:19.2	92.120	-0.130	-0.790	-0.250
2020/01/31 04:47:19.3	92.140	-0.070	-0.900	-0.250
2020/01/31 04:47:19.4	92.170	-0.010	-0.990	-0.250
2020/01/31 04:47:19.5	92.190	0.050	-1.080	-0.240
2020/01/31 04:47:19.6	92.210	0.110	-1.160	-0.230
2020/01/31 04:47:19.7	92.230	0.160	-1.220	-0.210
2020/01/31 04:47:19.8	92.240	0.210	-1.280	-0.190
2020/01/31 04:47:19.9	92.250	0.250	-1.320	-0.170
2020/01/31 04:47:20.0	92.260	0.290	-1.340	-0.140
2020/01/31 04:47:20.1	92.260	0.320	-1.360	-0.110
2020/01/31 04:47:20.2	92.260	0.350	-1.360	-0.080
2020/01/31 04:47:20.3	92.260	0.380	-1.350	-0.050
2020/01/31 04:47:20.4	92.260	0.400	-1.330	-0.020
2020/01/31 04:47:20.5	92.250	0.410	-1.290	0.010
2020/01/31 04:47:20.6	92.240	0.420	-1.240	0.040
2020/01/31 04:47:20.7	92.230	0.420	-1.180	0.080
2020/01/31 04:47:20.8	92.210	0.420	-1.120	0.110
2020/01/31 04:47:20.9	92.190	0.410	-1.040	0.150
2020/01/31 04:47:21.0	92.170	0.400	-0.960	0.190
2020/01/31 04:47:21.1	92.150	0.380	-0.860	0.220
2020/01/31 04:47:21.2	92.130	0.360	-0.760	0.260
2020/01/31 04:47:21.3	92.100	0.340	-0.660	0.300
2020/01/31 04:47:21.4	92.070	0.310	-0.560	0.340
2020/01/31 04:47:21.5	92.040	0.270	-0.450	0.390
2020/01/31 04:47:21.6	92.010	0.240	-0.350	0.430
2020/01/31 04:47:21.7	91.970	0.200	-0.250	0.470
2020/01/31 04:47:21.8	91.940	0.170	-0.150	0.520
2020/01/31 04:47:21.9	91.910	0.130	-0.060	0.560
2020/01/31 04:47:22.0	91.870	0.090	0.030	0.610
2020/01/31 04:47:22.1	91.840	0.050	0.120	0.650
2020/01/31 04:47:22.2	91.800	0.010	0.190	0.690
2020/01/31 04:47:22.3	91.770	-0.030	0.260	0.730
2020/01/31 04:47:22.4	91.740	-0.060	0.310	0.770
2020/01/31 04:47:22.5	91.710	-0.090	0.360	0.800
2020/01/31 04:47:22.6	91.680	-0.120	0.390	0.830
2020/01/31 04:47:22.7	91.660	-0.150	0.410	0.860
2020/01/31 04:47:22.8	91.640	-0.170	0.420	0.880
2020/01/31 04:47:22.9	91.620	-0.190	0.420	0.900
2020/01/31 04:47:23.0	91.600	-0.200	0.400	0.910
2020/01/31 04:47:23.1	91.590	-0.210	0.380	0.910
2020/01/31 04:47:23.2	91.580	-0.210	0.340	0.910
2020/01/31 04:47:23.3	91.580	-0.210	0.290	0.910
2020/01/31 04:47:23.4	91.580	-0.210	0.230	0.890
2020/01/31 04:47:23.5	91.580	-0.190	0.170	0.880
2020/01/31 04:47:23.6	91.590	-0.180	0.100	0.860
2020/01/31 04:47:23.7	91.600	-0.160	0.020	0.830
2020/01/31 04:47:23.8	91.610	-0.140	-0.060	0.810
2020/01/31 04:47:23.9	91.630	-0.110	-0.140	0.780
2020/01/31 04:47:24.0	91.640	-0.080	-0.230	0.750
2020/01/31 04:47:24.1	91.660	-0.050	-0.310	0.720
2020/01/31 04:47:24.2	91.680	-0.020	-0.400	0.700
2020/01/31 04:47:24.3	91.690	0.010	-0.480	0.680
2020/01/31 04:47:24.4	91.710	0.050	-0.560	0.660
2020/01/31 04:47:24.5	91.720	0.080	-0.630	0.640
2020/01/31 04:47:24.6	91.740	0.120	-0.690	0.630
2020/01/31 04:47:24.7	91.750	0.150	-0.750	0.620
2020/01/31 04:47:24.8	91.760	0.180	-0.800	0.610
2020/01/31 04:47:24.9	91.770	0.210	-0.840	0.610
2020/01/31 04:47:25.0	91.780	0.240	-0.870	0.610
2020/01/31 04:47:25.1	91.780	0.260	-0.900	0.620
2020/01/31 04:47:25.2	91.790	0.280	-0.920	0.630
2020/01/31 04:47:25.3	91.790	0.300	-0.930	0.640
2020/01/31 04:47:25.4	91.790	0.310	-0.930	0.660
2020/01/31 04:47:25.5	91.790	0.330	-0.920	0.680
2020/01/31 04:47:25.6	91.790	0.330	-0.900	0.700
2020/01/31 04:47:25.7	91.790	0.330	-0.880	0.730
2020/01/31 04:47:25.8	91.780	0.330	-0.850	0.750
2020/01/31 04:47:25.9	91.770	0.320	-0.810	0.780
2020/01/31 04:47:26.0	91.770	0.310	-0.760	0.810
2020/01/31 04:47:26.1	91.760	0.300	-0.710	0.840
2020/01/31 04:47:26.2	91.760	0.280	-0.650	0.870
2020/01/31 04:47:26.3	91.750	0.260	-0.590	0.890
2020/01/31 04:47:26.4	91.740	0.230	-0.520	0.920
2020/01/31 04:47:26.5	91.730	0.200	-0.450	0.940
2020/01/31 04:47:26.6	91.730	0.170	-0.380	0.970
2020/01/31 04:47:26.7	91.720	0.130	-0.300	0.990
2020/01/31 04:47:26.8	91.710	0.090	-0.220	1.020
2020/01/31 04:47:26.9	91.710	0.050	-0.140	1.040
2020/01/31 04:47:27.0	91.700	0.000	-0.060	1.060
2020/01/31 04:47:27.1	91.700	-0.040	0.020	1.080
2020/01/31 04:47:27.2	91.700	-0.090	0.100	1.100
2020/01/31 04:47:27.3	91.700	-0.130	0.170	1.120
2020/01/31 04:47:27.4	91.700	-0.180	0.250	1.130
2020/01/31 04:47:27.5	91.690	-0.230	0.320	1.140
2020/01/31 04:47:27.6	91.690	-0.280	0.390	1.160
2020/01/31 04:47:27.7	91.690	-0.320	0.450	1.160
2020/01/31 04:47:27.8	91.690	-0.370	0.510	1.170
2020/01/31 04:47:27.9	91.700	-0.410	0.570	1.170
2020/01/31 04:47:28.0	91.700	-0.450	0.610	1.170
2020/01/31 04:47:28.1	91.710	-0.490	0.650	1.170
2020/01/31 04:47:28.2	91.720	-0.530	0.690	1.160
2020/01/31 04:47:28.3	91.730	-0.560	0.720	1.150
2020/01/31 04:47:28.4	91.740	-0.590	0.730	1.140
2020/01/31 04:47:28.5	91.750	-0.610	0.750	1.120
2020/01/31 04:47:28.6	91.760	-0.630	0.750	1.090
2020/01/31 04:47:28.7	91.770	-0.650	0.750	1.060
2020/01/31 04:47:28.8	91.790	-0.660	0.730	1.030
2020/01/31 04:47:28.9	91.800	-0.670	0.710	0.990
2020/01/31 04:47:29.0	91.810	-0.670	0.690	0.960
2020/01/31 04:47:29.1	91.830	-0.670	0.650	0.920
2020/01/31 04:47:29.2	91.830	-0.660	0.610	0.870
2020/01/31 04:47:29.3	91.840	-0.640	0.560	0.830
2020/01/31 04:47:29.4	91.850	-0.620	0.510	0.790
2020/01/31 04:47:29.5	91.860	-0.600	0.450	0.750
2020/01/31 04:47:29.6	91.880	-0.570	0.390	0.710
2020/01/31 04:47:29.7	91.880	-0.540	0.330	0.670
2020/01/31 04:47:29.8	91.890	-0.500	0.260	0.630
2020/01/31 04:47:29.9	91.900	-0.460	0.190	0.600
2020/01/31 04:47:30.0	91.910	-0.410	0.110	0.570
2020/01/31 04:47:30.1	91.910	-0.360	0.040	0.540
2020/01/31 04:47:30.2	91.910	-0.310	-0.040	0.510
2020/01/31 04:47:30.3	91.910	-0.250	-0.110	0.490
2020/01/31 04:47:30.4	91.910	-0.200	-0.190	0.470
2020/01/31 04:47:30.5	91.910	-0.140	-0.260	0.440
2020/01/31 04:47:30.6	91.910	-0.080	-0.340	0.420
2020/01/31 04:47:30.7	91.920	-0.010	-0.410	0.400
2020/01/31 04:47:30.8	91.920	0.050	-0.480	0.380
2020/01/31 04:47:30.9	91.920	0.110	-0.540	0.370
2020/01/31 04:47:31.0	91.920	0.170	-0.600	0.350
2020/01/31 04:47:31.1	91.920	0.230	-0.660	0.330
2020/01/31 04:47:31.2	91.930	0.290	-0.720	0.310
2020/01/31 04:47:31.3	91.930	0.340	-0.780	0.290
2020/01/31 04:47:31.4	91.940	0.400	-0.830	0.270
2020/01/31 04:47:31.5	91.940	0.450	-0.870	0.250
2020/01/31 04:47:31.6	91.950	0.500	-0.910	0.230
2020/01/31 04:47:31.7	91.960	0.550	-0.950	0.210
2020/01/31 04:47:31.8	91.970	0.590	-0.980	0.200
2020/01/31 04:47:31.9	91.980	0.630	-1.010	0.180
2020/01/31 04:47:32.0	91.990	0.670	-1.030	0.160
2020/01/31 04:47:32.1	92.000	0.700	-1.050	0.140
2020/01/31 04:47:32.2	92.020	0.730	-1.070	0.130
2020/01/31 04:47:32.3	92.030	0.760	-1.080	0.120
2020/01/31 04:47:32.4	92.040	0.780	-1.080	0.110
2020/01/31 04:47:32.5	92.060	0.800	-1.080	0.100
2020/01/31 04:47:32.6	92.070	0.820	-1.070	0.100
2020/01/31 04:47:32.7	92.080	0.830	-1.060	0.110
2020/01/31 04:47:32.8	92.090	0.840	-1.050	0.120
2020/01/31 04:47:32.9	92.100	0.840	-1.020	0.130
2020/01/31 04:47:33.0	92.100	0.840	-1.000	0.150
2020/01/31 04:47:33.1	92.110	0.840	-0.960	0.170
2020/01/31 04:47:33.2	92.120	0.830	-0.920	0.200
2020/01/31 04:47:33.3	92.130	0.820	-0.880	0.230
2020/01/31 04:47:33.4	92.130	0.810	-0.830	0.260
2020/01/31 04:47:33.5	92.130	0.790	-0.770	0.290
2020/01/31 04:47:33.6	92.130	0.770	-0.720	0.330
2020/01/31 04:47:33.7	92.130	0.740	-0.650	0.370
2020/01/31 04:47:33.8	92.130	0.710	-0.590	0.410
2020/01/31 04:47:33.9	92.120	0.680	-0.520	0.440
2020/01/31 04:47:34.0	92.120	0.650	-0.450	0.480
2020/01/31 04:47:34.1	92.110	0.610	-0.380	0.520
2020/01/31 04:47:34.2	92.110	0.580	-0.300	0.550
2020/01/31 04:47:34.3	92.100	0.540	-0.230	0.590
2020/01/31 04:47:34.4	92.090	0.500	-0.150	0.620
2020/01/31 04:47:34.5	92.080	0.450	-0.080	0.650
2020/01/31 04:47:34.6	92.070	0.410	-0.000	0.680
2020/01/31 04:47:34.7	92.060	0.370	0.070	0.710
2020/01/31 04:47:34.8	92.050	0.320	0.140	0.740
2020/01/31 04:47:34.9	92.030	0.280	0.200	0.760
2020/01/31 04:47:35.0	92.020	0.230	0.260	0.780
2020/01/31 04:47:35.1	92.010	0.190	0.320	0.800
2020/01/31 04:47:35.2	91.990	0.140	0.370	0.820
2020/01/31 04:47:35.3	91.980	0.100	0.420	0.840
2020/01/31 04:47:35.4	91.960	0.050	0.460	0.860
2020/01/31 04:47:35.5	91.950	0.010	0.490	0.880
2020/01/31 04:47:35.6	91.930	-0.040	0.520	0.890
2020/01/31 04:47:35.7	91.920	-0.080	0.540	0.910
2020/01/31 04:47:35.8	91.910	-0.120	0.550	0.930
2020/01/31 04:47:35.9	91.890	-0.160	0.560	0.940
2020/01/31 04:47:36.0	91.880	-0.190	0.550	0.950
2020/01/31 04:47:36.1	91.870	-0.230	0.540	0.970
2020/01/31 04:47:36.2	91.850	-0.260	0.530	0.980
2020/01/31 04:47:36.3	91.840	-0.290	0.500	0.990
2020/01/31 04:47:36.4	91.830	-0.320	0.470	1.000
2020/01/31 04:47:36.5	91.830	-0.350	0.440	1.010
2020/01/31 04:47:36.6	91.820	-0.370	0.390	1.020
2020/01/31 04:47:36.7	91.820	-0.390	0.350	1.030
2020/01/31 04:47:36.8	91.820	-0.420	0.290	1.030
2020/01/31 04:47:36.9	91.820	-0.430	0.240	1.040
2020/01/31 04:47:37.0	91.820	-0.450	0.180	1.040
2020/01/31 04:47:37.1	91.820	-0.460	0.120	1.040
2020/01/31 04:47:37.2	91.830	-0.470	0.060	1.040
2020/01/31 04:47:37.3	91.830	-0.480	-0.010	1.030
2020/01/31 04:47:37.4	91.840	-0.490	-0.070	1.030
2020/01/31 04:47:37.5	91.840	-0.490	-0.140	1.020
2020/01/31 04:47:37.6	91.850	-0.490	-0.200	1.000
2020/01/31 04:47:37.7	91.860	-0.490	-0.270	0.990
2020/01/31 04:47:37.8	91.870	-0.490	-0.330	0.970
2020/01/31 04:47:37.9	91.880	-0.480	-0.390	0.950
2020/01/31 04:47:38.0	91.890	-0.480	-0.450	0.930
2020/01/31 04:47:38.1	91.900	-0.470	-0.500	0.910
2020/01/31 04:47:38.2	91.910	-0.450	-0.550	0.890
2020/01/31 04:47:38.3	91.920	-0.440	-0.600	0.870
2020/01/31 04:47:38.4	91.930	-0.420	-0.640	0.850
2020/01/31 04:47:38.5	91.950	-0.400	-0.680	0.830
2020/01/31 04:47:38.6	91.960	-0.380	-0.720	0.800
2020/01/31 04:47:38.7	91.980	-0.360	-0.750	0.780
2020/01/31 04:47:38.8	92.000	-0.330	-0.770	0.750
2020/01/31 04:47:38.9	92.020	-0.310	-0.790	0.730
2020/01/31 04:47:39.0	92.040	-0.280	-0.800	0.710
2020/01/31 04:47:39.1	92.060	-0.250	-0.810	0.680
2020/01/31 04:47:39.2	92.080	-0.220	-0.810	0.660
2020/01/31 04:47:39.3	92.110	-0.200	-0.810	0.640
2020/01/31 04:47:39.4	92.130	-0.170	-0.800	0.620
2020/01/31 04:47:39.5	92.150	-0.140	-0.780	0.600
2020/01/31 04:47:39.6	92.170	-0.110	-0.760	0.580
2020/01/31 04:47:39.7	92.190	-0.090	-0.740	0.570
2020/01/31 04:47:39.8	92.210	-0.060	-0.710	0.550
2020/01/31 04:47:39.9	92.230	-0.040	-0.670	0.540
2020/01/31 04:47:40.0	92.250	-0.020	-0.640	0.530
2020/01/31 04:47:40.1	92.270	0.010	-0.590	0.530
2020/01/31 04:47:40.2	92.280	0.020	-0.550	0.530
2020/01/31 04:47:40.3	92.290	0.040	-0.510	0.530
2020/01/31 04:47:40.4	92.310	0.060	-0.460	0.530
2020/01/31 04:47:40.5	92.310	0.070	-0.410	0.530
2020/01/31 04:47:40.6	92.320	0.080	-0.360	0.540
2020/01/31 04:47:40.7	92.320	0.090	-0.310	0.550
2020/01/31 04:47:40.8	92.320	0.090	-0.250	0.560
2020/01/31 04:47:40.9	92.320	0.090	-0.200	0.580
2020/01/31 04:47:41.0	92.320	0.090	-0.150	0.590
2020/01/31 04:47:41.1	92.310	0.090	-0.100	0.610
2020/01/31 04:47:41.2	92.310	0.080	-0.050	0.620
2020/01/31 04:47:41.3	92.300	0.070	0.000	0.640
2020/01/31 04:47:41.4	92.290	0.060	0.050	0.660
2020/01/31 04:47:41.5	92.270	0.050	0.100	0.680
2020/01/31 04:47:41.6	92.260	0.030	0.150	0.690
2020/01/31 04:47:41.7	92.240	0.020	0.190	0.710
2020/01/31 04:47:41.8	92.230	-0.000	0.230	0.720
2020/01/31 04:47:41.9	92.210	-0.020	0.270	0.730
2020/01/31 04:47:42.0	92.190	-0.040	0.300	0.740
2020/01/31 04:47:42.1	92.170	-0.070	0.330	0.750
2020/01/31 04:47:42.2	92.140	-0.090	0.360	0.750
2020/01/31 04:47:42.3	92.120	-0.110	0.380	0.760
2020/01/31 04:47:42.4	92.100	-0.130	0.400	0.760
2020/01/31 04:47:42.5	92.080	-0.160	0.410	0.760
2020/01/31 04:47:42.6	92.050	-0.180	0.420	0.750
2020/01/31 04:47:42.7	92.030	-0.200	0.430	0.750
2020/01/31 04:47:42.8	92.010	-0.210	0.430	0.740
2020/01/31 04:47:42.9	91.990	-0.230	0.430	0.730
2020/01/31 04:47:43.0	91.960	-0.240	0.420	0.720
2020/01/31 04:47:43.1	91.940	-0.250	0.410	0.700
2020/01/31 04:47:43.2	91.920	-0.260	0.390	0.690
2020/01/31 04:47:43.3	91.900	-0.270	0.370	0.680
2020/01/31 04:47:43.4	91.880	-0.270	0.340	0.660
2020/01/31 04:47:43.5	91.860	-0.270	0.310	0.640
2020/01/31 04:47:43.6	91.840	-0.270	0.270	0.630
2020/01/31 04:47:43.7	91.820	-0.270	0.240	0.610
2020/01/31 04:47:43.8	91.800	-0.260	0.190	0.580
2020/01/31 04:47:43.9	91.780	-0.250	0.150	0.560
2020/01/31 04:47:44.0	91.760	-0.230	0.100	0.540
2020/01/31 04:47:44.1	91.740	-0.220	0.040	0.520
2020/01/31 04:47:44.2	91.720	-0.200	-0.020	0.490
2020/01/31 04:47:44.3	91.710	-0.170	-0.070	0.460
2020/01/31 04:47:44.4	91.700	-0.150	-0.130	0.430
2020/01/31 04:47:44.5	91.680	-0.120	-0.190	0.400
2020/01/31 04:47:44.6	91.680	-0.090	-0.260	0.370
2020/01/31 04:47:44.7	91.670	-0.060	-0.320	0.340
2020/01/31 04:47:44.8	91.670	-0.030	-0.380	0.300
2020/01/31 04:47:44.9	91.670	0.010	-0.440	0.270
2020/01/31 04:47:45.0	91.670	0.050	-0.510	0.240
2020/01/31 04:47:45.1	91.670	0.080	-0.570	0.200
2020/01/31 04:47:45.2	91.690	0.120	-0.620	0.180
2020/01/31 04:47:45.3	91.700	0.160	-0.680	0.150
2020/01/31 04:47:45.4	91.710	0.200	-0.730	0.120
2020/01/31 04:47:45.5	91.730	0.240	-0.790	0.090
2020/01/31 04:47:45.6	91.740	0.280	-0.840	0.070
2020/01/31 04:47:45.7	91.760	0.320	-0.880	0.050
2020/01/31 04:47:45.8	91.780	0.360	-0.930	0.030
2020/01/31 04:47:45.9	91.800	0.400	-0.960	0.020
2020/01/31 04:47:46.0	91.820	0.440	-1.000	0.010
2020/01/31 04:47:46.1	91.830	0.470	-1.020	0.010
2020/01/31 04:47:46.2	91.860	0.500	-1.050	0.000
2020/01/31 04:47:46.3	91.880	0.530	-1.070	0.010
2020/01/31 04:47:46.4	91.900	0.560	-1.080	0.020
2020/01/31 04:47:46.5	91.910	0.580	-1.080	0.030
2020/01/31 04:47:46.6	91.930	0.600	-1.070	0.050
2020/01/31 04:47:46.7	91.950	0.610	-1.060	0.070
2020/01/31 04:47:46.8	91.960	0.620	-1.040	0.100
2020/01/31 04:47:46.9	91.970	0.630	-1.010	0.130
2020/01/31 04:47:47.0	91.980	0.630	-0.970	0.170
2020/01/31 04:47:47.1	91.990	0.630	-0.930	0.210
2020/01/31 04:47:47.2	92.000	0.620	-0.870	0.260
2020/01/31 04:47:47.3	92.010	0.610	-0.810	0.300
2020/01/31 04:47:47.4	92.010	0.590	-0.740	0.350
2020/01/31 04:47:47.5	92.010	0.560	-0.670	0.390
2020/01/31 04:47:47.6	92.010	0.540	-0.590	0.440
2020/01/31 04:47:47.7	92.010	0.500	-0.510	0.500
2020/01/31 04:47:47.8	92.010	0.470	-0.430	0.550
2020/01/31 04:47:47.9	92.000	0.430	-0.340	0.600
2020/01/31 04:47:48.0	91.990	0.390	-0.240	0.650
2020/01/31 04:47:48.1	91.980	0.340	-0.150	0.700
2020/01/31 04:47:48.2	91.970	0.290	-0.060	0.740
2020/01/31 04:47:48.3	91.960	0.240	0.040	0.790
2020/01/31 04:47:48.4	91.950	0.190	0.130	0.830
2020/01/31 04:47:48.5	91.930	0.140	0.220	0.880
2020/01/31 04:47:48.6	91.920	0.090	0.310	0.920
2020/01/31 04:47:48.7	91.900	0.040	0.390	0.950
2020/01/31 04:47:48.8	91.880	-0.010	0.460	0.990
2020/01/31 04:47:48.9	91.860	-0.060	0.530	1.020
2020/01/31 04:47:49.0	91.840	-0.110	0.580	1.050
2020/01/31 04:47:49.1	91.830	-0.150	0.630	1.080
2020/01/31 04:47:49.2	91.800	-0.200	0.670	1.110
2020/01/31 04:47:49.3	91.790	-0.230	0.700	1.130
2020/01/31 04:47:49.4	91.770	-0.270	0.720	1.140
2020/01/31 04:47:49.5	91.750	-0.290	0.720	1.160
2020/01/31 04:47:49.6	91.730	-0.320	0.710	1.170
2020/01/31 04:47:49.7	91.710	-0.340	0.690	1.180
2020/01/31 04:47:49.8	91.690	-0.350	0.660	1.180
2020/01/31 04:47:49.9	91.680	-0.360	0.620	1.190
2020/01/31 04:47:50.0	91.660	-0.360	0.570	1.190
2020/01/31 04:47:50.1	91.640	-0.360	0.510	1.180
2020/01/31 04:47:50.2	91.610	-0.350	0.450	1.180
2020/01/31 04:47:50.3	91.600	-0.340	0.370	1.170
2020/01/31 04:47:50.4	91.580	-0.330	0.290	1.160
2020/01/31 04:47:50.5	91.560	-0.310	0.210	1.150
2020/01/31 04:47:50.6	91.550	-0.280	0.120	1.140
2020/01/31 04:47:50.7	91.540	-0.260	0.030	1.120
2020/01/31 04:47:50.8	91.530	-0.230	-0.060	1.110
2020/01/31 04:47:50.9	91.520	-0.200	-0.150	1.090
2020/01/31 04:47:51.0	91.510	-0.170	-0.240	1.060
2020/01/31 04:47:51.1	91.500	-0.130	-0.330	1.040
2020/01/31 04:47:51.2	91.500	-0.100	-0.410	1.010
2020/01/31 04:47:51.3	91.500	-0.060	-0.490	0.980
2020/01/31 04:47:51.4	91.510	-0.030	-0.570	0.950
2020/01/31 04:47:51.5	91.510	0.010	-0.640	0.920
2020/01/31 04:47:51.6	91.520	0.040	-0.710	0.890
2020/01/31 04:47:51.7	91.530	0.070	-0.770	0.850
2020/01/31 04:47:51.8	91.540	0.100	-0.820	0.820
2020/01/31 04:47:51.9	91.560	0.130	-0.860	0.790
2020/01/31 04:47:52.0	91.570	0.160	-0.900	0.750
2020/01/31 04:47:52.1	91.590	0.180	-0.930	0.720
2020/01/31 04:47:52.2	91.610	0.200	-0.950	0.690
2020/01/31 04:47:52.3	91.630	0.220	-0.960	0.660
2020/01/31 04:47:52.4	91.650	0.230	-0.960	0.630
2020/01/31 04:47:52.5	91.670	0.240	-0.950	0.600
2020/01/31 04:47:52.6	91.690	0.250	-0.930	0.580
2020/01/31 04:47:52.7	91.710	0.250	-0.900	0.560
2020/01/31 04:47:52.8	91.730	0.240	-0.860	0.540
2020/01/31 04:47:52.9	91.740	0.240	-0.820	0.530
2020/01/31 04:47:53.0	91.750	0.220	-0.760	0.520
2020/01/31 04:47:53.1	91.760	0.210	-0.700	0.510
2020/01/31 04:47:53.2	91.770	0.180	-0.630	0.510
2020/01/31 04:47:53.3	91.780	0.160	-0.550	0.510
2020/01/31 04:47:53.4	91.780	0.130	-0.470	0.510
2020/01/31 04:47:53.5	91.780	0.090	-0.380	0.510
2020/01/31 04:47:53.6	91.780	0.060	-0.290	0.520
2020/01/31 04:47:53.7	91.770	0.020	-0.190	0.530
2020/01/31 04:47:53.8	91.760	-0.030	-0.090	0.540
2020/01/31 04:47:53.9	91.750	-0.070	0.010	0.560
2020/01/31 04:47:54.0	91.740	-0.120	0.100	0.580
2020/01/31 04:47:54.1	91.730	-0.170	0.200	0.600
2020/01/31 04:47:54.2	91.710	-0.220	0.290	0.620
2020/01/31 04:47:54.3	91.700	-0.270	0.380	0.640
2020/01/31 04:47:54.4	91.680	-0.320	0.460	0.660
2020/01/31 04:47:54.5	91.660	-0.360	0.540	0.690
2020/01/31 04:47:54.6	91.650	-0.410	0.600	0.710
2020/01/31 04:47:54.7	91.630	-0.450	0.660	0.730
2020/01/31 04:47:54.8	91.620	-0.500	0.710	0.750
2020/01/31 04:47:54.9	91.600	-0.530	0.740	0.770
2020/01/31 04:47:55.0	91.590	-0.570	0.770	0.790
2020/01/31 04:47:55.1	91.580	-0.590	0.780	0.810
2020/01/31 04:47:55.2	91.580	-0.620	0.780	0.820
2020/01/31 04:47:55.3	91.580	-0.630	0.760	0.830
2020/01/31 04:47:55.4	91.570	-0.640	0.730	0.840
2020/01/31 04:47:55.5	91.570	-0.650	0.680	0.850
2020/01/31 04:47:55.6	91.570	-0.640	0.620	0.850
2020/01/31 04:47:55.7	91.580	-0.630	0.540	0.850
2020/01/31 04:47:55.8	91.580	-0.620	0.460	0.850
2020/01/31 04:47:55.9	91.590	-0.590	0.360	0.840
2020/01/31 04:47:56.0	91.600	-0.560	0.250	0.830
2020/01/31 04:47:56.1	91.610	-0.520	0.140	0.820
2020/01/31 04:47:56.2	91.620	-0.480	0.010	0.810
2020/01/31 04:47:56.3	91.630	-0.430	-0.120	0.800
2020/01/31 04:47:56.4	91.640	-0.380	-0.250	0.790
2020/01/31 04:47:56.5	91.660	-0.320	-0.380	0.770
2020/01/31 04:47:56.6	91.670	-0.260	-0.510	0.760
2020/01/31 04:47:56.7	91.680	-0.190	-0.640	0.740
2020/01/31 04:47:56.8	91.690	-0.130	-0.760	0.730
2020/01/31 04:47:56.9	91.700	-0.060	-0.880	0.720
2020/01/31 04:47:57.0	91.700	0.010	-0.990	0.710
2020/01/31 04:47:57.1	91.710	0.080	-1.090	0.700
2020/01/31 04:47:57.2	91.710	0.140	-1.180	0.690
2020/01/31 04:47:57.3	91.710	0.210	-1.260	0.680
2020/01/31 04:47:57.4	91.710	0.270	-1.320	0.670
2020/01/31 04:47:57.5	91.710	0.320	-1.370	0.660
2020/01/31 04:47:57.6	91.710	0.380	-1.410	0.650
2020/01/31 04:47:57.7	91.700	0.430	-1.430	0.640
2020/01/31 04:47:57.8	91.690	0.470	-1.440	0.630
2020/01/31 04:47:57.9	91.690	0.510	-1.440	0.620
2020/01/31 04:47:58.0	91.680	0.550	-1.420	0.610
2020/01/31 04:47:58.1	91.670	0.570	-1.390	0.610
2020/01/31 04:47:58.2	91.660	0.590	-1.340	0.600
2020/01/31 04:47:58.3	91.650	0.610	-1.280	0.600
2020/01/31 04:47:58.4	91.640	0.620	-1.220	0.600
2020/01/31 04:47:58.5	91.630	0.620	-1.140	0.590
2020/01/31 04:47:58.6	91.610	0.610	-1.050	0.590
2020/01/31 04:47:58.7	91.600	0.600	-0.950	0.590
2020/01/31 04:47:58.8	91.590	0.590	-0.850	0.600
2020/01/31 04:47:58.9	91.580	0.560	-0.730	0.600
2020/01/31 04:47:59.0	91.560	0.540	-0.620	0.600
2020/01/31 04:47:59.1	91.550	0.500	-0.500	0.610
2020/01/31 04:47:59.2	91.540	0.460	-0.370	0.610
2020/01/31 04:47:59.3	91.530	0.420	-0.250	0.620
2020/01/31 04:47:59.4	91.520	0.380	-0.120	0.630
2020/01/31 04:47:59.5	91.510	0.330	0.000	0.630
2020/01/31 04:47:59.6	91.500	0.280	0.120	0.640
2020/01/31 04:47:59.7	91.490	0.220	0.240	0.650
2020/01/31 04:47:59.8	91.480	0.170	0.350	0.650
2020/01/31 04:47:59.9	91.470	0.110	0.460	0.660
2020/01/31 04:48:00.0	91.460	0.060	0.560	0.670
2020/01/31 04:48:00.1	91.450	0.000	0.650	0.670
2020/01/31 04:48:00.2	91.440	-0.050	0.740	0.670
2020/01/31 04:48:00.3	91.430	-0.110	0.810	0.670
2020/01/31 04:48:00.4	91.420	-0.160	0.870	0.670
2020/01/31 04:48:00.5	91.410	-0.210	0.920	0.660
2020/01/31 04:48:00.6	91.400	-0.260	0.960	0.650
2020/01/31 04:48:00.7	91.400	-0.300	0.990	0.640
2020/01/31 04:48:00.8	91.390	-0.340	1.010	0.620
2020/01/31 04:48:00.9	91.380	-0.380	1.010	0.600
2020/01/31 04:48:01.0	91.380	-0.410	1.000	0.580
2020/01/31 04:48:01.1	91.370	-0.430	0.980	0.550
2020/01/31 04:48:01.2	91.360	-0.460	0.950	0.520
2020/01/31 04:48:01.3	91.360	-0.470	0.900	0.480
2020/01/31 04:48:01.4	91.360	-0.490	0.850	0.450
2020/01/31 04:48:01.5	91.360	-0.490	0.790	0.410
2020/01/31 04:48:01.6	91.360	-0.490	0.710	0.370
2020/01/31 04:48:01.7	91.360	-0.490	0.630	0.330
2020/01/31 04:48:01.8	91.360	-0.480	0.540	0.290
2020/01/31 04:48:01.9	91.370	-0.470	0.450	0.250
2020/01/31 04:48:02.0	91.370	-0.450	0.350	0.220
2020/01/31 04:48:02.1	91.380	-0.430	0.250	0.180
2020/01/31 04:48:02.2	91.390	-0.400	0.140	0.150
2020/01/31 04:48:02.3	91.400	-0.370	0.040	0.110
2020/01/31 04:48:02.4	91.410	-0.340	-0.070	0.080
2020/01/31 04:48:02.5	91.430	-0.310	-0.180	0.060
2020/01/31 04:48:02.6	91.440	-0.270	-0.280	0.030
2020/01/31 04:48:02.7	91.460	-0.230	-0.380	0.010
2020/01/31 04:48:02.8	91.470	-0.190	-0.480	-0.010
2020/01/31 04:48:02.9	91.490	-0.150	-0.580	-0.030
2020/01/31 04:48:03.0	91.510	-0.100	-0.660	-0.040
2020/01/31 04:48:03.1	91.530	-0.060	-0.750	-0.050
2020/01/31 04:48:03.2	91.560	-0.020	-0.830	-0.050
2020/01/31 04:48:03.3	91.580	0.030	-0.900	-0.060
2020/01/31 04:48:03.4	91.610	0.070	-0.960	-0.050
2020/01/31 04:48:03.5	91.630	0.110	-1.020	-0.050
2020/01/31 04:48:03.6	91.650	0.150	-1.070	-0.040
2020/01/31 04:48:03.7	91.680	0.190	-1.110	-0.030
2020/01/31 04:48:03.8	91.700	0.220	-1.140	-0.020
2020/01/31 04:48:03.9	91.720	0.260	-1.160	0.000
2020/01/31 04:48:04.0	91.750	0.290	-1.180	0.020
2020/01/31 04:48:04.1	91.770	0.310	-1.180	0.050
2020/01/31 04:48:04.2	91.790	0.340	-1.180	0.070
2020/01/31 04:48:04.3	91.800	0.360	-1.170	0.100
2020/01/31 04:48:04.4	91.820	0.370	-1.150	0.130
2020/01/31 04:48:04.5	91.840	0.380	-1.120	0.160
2020/01/31 04:48:04.6	91.850	0.390	-1.080	0.190
2020/01/31 04:48:04.7	91.860	0.400	-1.040	0.220
2020/01/31 04:48:04.8	91.870	0.400	-0.990	0.250
2020/01/31 04:48:04.9	91.880	0.390	-0.940	0.280
2020/01/31 04:48:05.0	91.890	0.390	-0.880	0.310
2020/01/31 04:48:05.1	91.890	0.380	-0.810	0.350
2020/01/31 04:48:05.2	91.900	0.360	-0.740	0.380
2020/01/31 04:48:05.3	91.900	0.350	-0.670	0.420
2020/01/31 04:48:05.4	91.900	0.330	-0.600	0.460
2020/01/31 04:48:05.5	91.890	0.310	-0.530	0.500
2020/01/31 04:48:05.6	91.890	0.290	-0.460	0.540
2020/01/31 04:48:05.7	91.880	0.260	-0.380	0.580
2020/01/31 04:48:05.8	91.880	0.240	-0.310	0.630
2020/01/31 04:48:05.9	91.870	0.210	-0.240	0.670
2020/01/31 04:48:06.0	91.860	0.190	-0.170	0.720
2020/01/31 04:48:06.1	91.840	0.160	-0.100	0.770
2020/01/31 04:48:06.2	91.830	0.130	-0.040	0.810
2020/01/31 04:48:06.3	91.810	0.100	0.020	0.860
2020/01/31 04:48:06.4	91.790	0.080	0.070	0.910
2020/01/31 04:48:06.5	91.770	0.050	0.120	0.960
2020/01/31 04:48:06.6	91.750	0.020	0.170	1.000
2020/01/31 04:48:06.7	91.730	-0.000	0.210	1.050
2020/01/31 04:48:06.8	91.710	-0.030	0.250	1.090
2020/01/31 04:48:06.9	91.690	-0.060	0.280	1.130
2020/01/31 04:48:07.0	91.660	-0.080	0.310	1.170
2020/01/31 04:48:07.1	91.640	-0.100	0.340	1.200
2020/01/31 04:48:07.2	91.620	-0.130	0.360	1.240
2020/01/31 04:48:07.3	91.600	-0.150	0.370	1.260
2020/01/31 04:48:07.4	91.570	-0.170	0.380	1.280
2020/01/31 04:48:07.5	91.560	-0.190	0.390	1.300
2020/01/31 04:48:07.6	91.540	-0.210	0.390	1.310
2020/01/31 04:48:07.7	91.520	-0.220	0.390	1.310
2020/01/31 04:48:07.8	91.510	-0.240	0.380	1.310
2020/01/31 04:48:07.9	91.500	-0.250	0.370	1.300
2020/01/31 04:48:08.0	91.490	-0.270	0.350	1.290
2020/01/31 04:48:08.1	91.490	-0.280	0.330	1.280
2020/01/31 04:48:08.2	91.480	-0.290	0.320	1.250
2020/01/31 04:48:08.3	91.480	-0.300	0.290	1.230
2020/01/31 04:48:08.4	91.480	-0.300	0.260	1.200
2020/01/31 04:48:08.5	91.490	-0.310	0.230	1.170
2020/01/31 04:48:08.6	91.490	-0.310	0.200	1.130
2020/01/31 04:48:08.7	91.500	-0.310	0.160	1.100
2020/01/31 04:48:08.8	91.510	-0.310	0.120	1.060
2020/01/31 04:48:08.9	91.520	-0.310	0.080	1.020
2020/01/31 04:48:09.0	91.530	-0.310	0.040	0.970
2020/01/31 04:48:09.1	91.550	-0.310	-0.000	0.930
2020/01/31 04:48:09.2	91.570	-0.300	-0.050	0.880
2020/01/31 04:48:09.3	91.580	-0.290	-0.100	0.830
2020/01/31 04:48:09.4	91.600	-0.280	-0.140	0.780
2020/01/31 04:48:09.5	91.620	-0.270	-0.190	0.740
2020/01/31 04:48:09.6	91.630	-0.260	-0.240	0.690
2020/01/31 04:48:09.7	91.650	-0.250	-0.280	0.640
2020/01/31 04:48:09.8	91.660	-0.230	-0.330	0.600
2020/01/31 04:48:09.9	91.680	-0.210	-0.370	0.550
2020/01/31 04:48:10.0	91.690	-0.200	-0.410	0.510
2020/01/31 04:48:10.1	91.710	-0.180	-0.450	0.470
2020/01/31 04:48:10.2	91.720	-0.160	-0.490	0.430
2020/01/31 04:48:10.3	91.730	-0.140	-0.530	0.400
2020/01/31 04:48:10.4	91.740	-0.110	-0.560	0.360
2020/01/31 04:48:10.5	91.740	-0.090	-0.590	0.330
2020/01/31 04:48:10.6	91.750	-0.070	-0.610	0.310
2020/01/31 04:48:10.7	91.750	-0.040	-0.630	0.280
2020/01/31 04:48:10.8	91.760	-0.020	-0.650	0.260
2020/01/31 04:48:10.9	91.760	0.010	-0.660	0.240
2020/01/31 04:48:11.0	91.760	0.030	-0.670	0.220
2020/01/31 04:48:11.1	91.760	0.060	-0.680	0.210
2020/01/31 04:48:11.2	91.760	0.080	-0.680	0.190
2020/01/31 04:48:11.3	91.760	0.110	-0.680	0.190
2020/01/31 04:48:11.4	91.750	0.130	-0.680	0.180
2020/01/31 04:48:11.5	91.750	0.150	-0.670	0.180
2020/01/31 04:48:11.6	91.750	0.170	-0.660	0.180
2020/01/31 04:48:11.7	91.740	0.200	-0.650	0.180
2020/01/31 04:48:11.8	91.740	0.220	-0.640	0.190
2020/01/31 04:48:11.9	91.730	0.240	-0.620	0.200
2020/01/31 04:48:12.0	91.730	0.250	-0.600	0.210
2020/01/31 04:48:12.1	91.720	0.270	-0.580	0.220
2020/01/31 04:48:12.2	91.720	0.290	-0.550	0.240
2020/01/31 04:48:12.3	91.710	0.300	-0.530	0.270
2020/01/31 04:48:12.4	91.700	0.310	-0.510	0.290
2020/01/31 04:48:12.5	91.690	0.320	-0.480	0.320
2020/01/31 04:48:12.6	91.680	0.330	-0.450	0.350
2020/01/31 04:48:12.7	91.680	0.340	-0.420	0.380
2020/01/31 04:48:12.8	91.670	0.340	-0.390	0.410
2020/01/31 04:48:12.9	91.660	0.340	-0.360	0.450
2020/01/31 04:48:13.0	91.650	0.340	-0.330	0.480
2020/01/31 04:48:13.1	91.640	0.340	-0.300	0.520
2020/01/31 04:48:13.2	91.620	0.330	-0.270	0.560
2020/01/31 04:48:13.3	91.610	0.320	-0.230	0.590
2020/01/31 04:48:13.4	91.610	0.310	-0.200	0.620
2020/01/31 04:48:13.5	91.600	0.300	-0.160	0.650
2020/01/31 04:48:13.6	91.590	0.280	-0.130	0.670
2020/01/31 04:48:13.7	91.580	0.270	-0.100	0.700
2020/01/31 04:48:13.8	91.570	0.240	-0.060	0.720
2020/01/31 04:48:13.9	91.560	0.220	-0.030	0.730
2020/01/31 04:48:14.0	91.560	0.200	0.010	0.740
2020/01/31 04:48:14.1	91.550	0.170	0.040	0.750
2020/01/31 04:48:14.2	91.540	0.150	0.070	0.750
2020/01/31 04:48:14.3	91.540	0.120	0.100	0.750
2020/01/31 04:48:14.4	91.530	0.090	0.130	0.750
2020/01/31 04:48:14.5	91.530	0.060	0.160	0.740
2020/01/31 04:48:14.6	91.520	0.030	0.180	0.730
2020/01/31 04:48:14.7	91.520	-0.000	0.200	0.710
2020/01/31 04:48:14.8	91.510	-0.030	0.220	0.700
2020/01/31 04:48:14.9	91.510	-0.070	0.240	0.690
2020/01/31 04:48:15.0	91.510	-0.090	0.260	0.670
2020/01/31 04:48:15.1	91.500	-0.120	0.270	0.660
2020/01/31 04:48:15.2	91.490	-0.150	0.280	0.650
2020/01/31 04:48:15.3	91.490	-0.170	0.280	0.640
2020/01/31 04:48:15.4	91.490	-0.200	0.280	0.630
2020/01/31 04:48:15.5	91.480	-0.220	0.280	0.630
2020/01/31 04:48:15.6	91.480	-0.230	0.280	0.630
2020/01/31 04:48:15.7	91.470	-0.250	0.270	0.630
2020/01/31 04:48:15.8	91.470	-0.260	0.250	0.630
2020/01/31 04:48:15.9	91.470	-0.270	0.230	0.630
2020/01/31 04:48:16.0	91.470	-0.270	0.200	0.630
2020/01/31 04:48:16.1	91.480	-0.270	0.170	0.640
2020/01/31 04:48:16.2	91.480	-0.270	0.140	0.640
2020/01/31 04:48:16.3	91.480	-0.260	0.090	0.650
2020/01/31 04:48:16.4	91.490	-0.250	0.050	0.650
2020/01/31 04:48:16.5	91.500	-0.240	-0.000	0.650
2020/01/31 04:48:16.6	91.510	-0.220	-0.060	0.650
2020/01/31 04:48:16.7	91.520	-0.200	-0.120	0.650
2020/01/31 04:48:16.8	91.530	-0.180	-0.180	0.650
2020/01/31 04:48:16.9	91.540	-0.160	-0.250	0.660
2020/01/31 04:48:17.0	91.550	-0.130	-0.310	0.660
2020/01/31 04:48:17.1	91.560	-0.100	-0.380	0.660
2020/01/31 04:48:17.2	91.570	-0.070	-0.450	0.660
2020/01/31 04:48:17.3	91.580	-0.040	-0.510	0.660
2020/01/31 04:48:17.4	91.590	-0.020	-0.580	0.660
2020/01/31 04:48:17.5	91.590	0.010	-0.640	0.660
2020/01/31 04:48:17.6	91.590	0.040	-0.690	0.660
2020/01/31 04:48:17.7	91.590	0.070	-0.740	0.660
2020/01/31 04:48:17.8	91.590	0.090	-0.790	0.660
2020/01/31 04:48:17.9	91.590	0.110	-0.830	0.660
2020/01/31 04:48:18.0	91.580	0.130	-0.860	0.660
2020/01/31 04:48:18.1	91.580	0.150	-0.880	0.660
2020/01/31 04:48:18.2	91.570	0.160	-0.900	0.660
2020/01/31 04:48:18.3	91.560	0.170	-0.910	0.660
2020/01/31 04:48:18.4	91.550	0.180	-0.910	0.670
2020/01/31 04:48:18.5	91.540	0.180	-0.900	0.670
2020/01/31 04:48:18.6	91.530	0.180	-0.880	0.680
2020/01/31 04:48:18.7	91.510	0.170	-0.850	0.690
2020/01/31 04:48:18.8	91.500	0.160	-0.820	0.710
2020/01/31 04:48:18.9	91.480	0.150	-0.780	0.720
2020/01/31 04:48:19.0	91.470	0.140	-0.730	0.740
2020/01/31 04:48:19.1	91.450	0.120	-0.670	0.760
2020/01/31 04:48:19.2	91.440	0.100	-0.600	0.780
2020/01/31 04:48:19.3	91.420	0.070	-0.530	0.800
2020/01/31 04:48:19.4	91.400	0.050	-0.460	0.830
2020/01/31 04:48:19.5	91.390	0.020	-0.380	0.850
2020/01/31 04:48:19.6	91.380	-0.010	-0.300	0.880
2020/01/31 04:48:19.7	91.360	-0.040	-0.220	0.900
2020/01/31 04:48:19.8	91.350	-0.070	-0.140	0.930
2020/01/31 04:48:19.9	91.340	-0.110	-0.050	0.950
2020/01/31 04:48:20.0	91.330	-0.140	0.030	0.980
2020/01/31 04:48:20.1	91.320	-0.170	0.110	1.000
2020/01/31 04:48:20.2	91.310	-0.200	0.190	1.020
2020/01/31 04:48:20.3	91.310	-0.230	0.260	1.040
2020/01/31 04:48:20.4	91.300	-0.260	0.330	1.060
2020/01/31 04:48:20.5	91.300	-0.290	0.390	1.080
2020/01/31 04:48:20.6	91.300	-0.310	0.450	1.090
2020/01/31 04:48:20.7	91.300	-0.330	0.490	1.100
2020/01/31 04:48:20.8	91.300	-0.350	0.530	1.100
2020/01/31 04:48:20.9	91.300	-0.360	0.560	1.100
2020/01/31 04:48:21.0	91.300	-0.370	0.580	1.100
2020/01/31 04:48:21.1	91.310	-0.380	0.590	1.090
2020/01/31 04:48:21.2	91.300	-0.380	0.580	1.080
2020/01/31 04:48:21.3	91.310	-0.380	0.570	1.070
2020/01/31 04:48:21.4	91.320	-0.370	0.540	1.050
2020/01/31 04:48:21.5	91.320	-0.360	0.510	1.020
2020/01/31 04:48:21.6	91.330	-0.340	0.460	1.000
2020/01/31 04:48:21.7	91.340	-0.320	0.400	0.970
2020/01/31 04:48:21.8	91.350	-0.290	0.340	0.940
2020/01/31 04:48:21.9	91.350	-0.260	0.260	0.910
2020/01/31 04:48:22.0	91.370	-0.220	0.180	0.870
2020/01/31 04:48:22.1	91.380	-0.180	0.090	0.840
2020/01/31 04:48:22.2	91.390	-0.140	-0.010	0.810
2020/01/31 04:48:22.3	91.400	-0.090	-0.110	0.770
2020/01/31 04:48:22.4	91.420	-0.040	-0.210	0.750
2020/01/31 04:48:22.5	91.430	0.010	-0.320	0.720
2020/01/31 04:48:22.6	91.440	0.060	-0.420	0.690
2020/01/31 04:48:22.7	91.450	0.110	-0.520	0.670
2020/01/31 04:48:22.8	91.470	0.160	-0.620	0.660
2020/01/31 04:48:22.9	91.480	0.210	-0.720	0.640
2020/01/31 04:48:23.0	91.490	0.260	-0.800	0.630
2020/01/31 04:48:23.1	91.490	0.310	-0.890	0.630
2020/01/31 04:48:23.2	91.500	0.350	-0.960	0.630
2020/01/31 04:48:23.3	91.510	0.390	-1.020	0.630
2020/01/31 04:48:23.4	91.510	0.430	-1.070	0.640
2020/01/31 04:48:23.5	91.510	0.460	-1.110	0.640
2020/01/31 04:48:23.6	91.520	0.480	-1.130	0.650
2020/01/31 04:48:23.7	91.520	0.500	-1.140	0.650
2020/01/31 04:48:23.8	91.520	0.510	-1.130	0.660
2020/01/31 04:48:23.9	91.510	0.520	-1.110	0.670
2020/01/31 04:48:24.0	91.510	0.510	-1.080	0.670
2020/01/31 04:48:24.1	91.510	0.510	-1.030	0.680
2020/01/31 04:48:24.2	91.500	0.490	-0.970	0.680
2020/01/31 04:48:24.3	91.500	0.470	-0.900	0.680
2020/01/31 04:48:24.4	91.490	0.440	-0.820	0.680
2020/01/31 04:48:24.5	91.480	0.400	-0.720	0.680
2020/01/31 04:48:24.6	91.470	0.360	-0.620	0.680
2020/01/31 04:48:24.7	91.460	0.310	-0.510	0.680
2020/01/31 04:48:24.8	91.450	0.260	-0.400	0.670
2020/01/31 04:48:24.9	91.430	0.210	-0.280	0.670
2020/01/31 04:48:25.0	91.420	0.150	-0.150	0.660
2020/01/31 04:48:25.1	91.400	0.090	-0.030	0.650
2020/01/31 04:48:25.2	91.390	0.030	0.100	0.650
2020/01/31 04:48:25.3	91.370	-0.040	0.220	0.640
2020/01/31 04:48:25.4	91.350	-0.100	0.340	0.630
2020/01/31 04:48:25.5	91.330	-0.170	0.450	0.630
2020/01/31 04:48:25.6	91.310	-0.230	0.560	0.620
2020/01/31 04:48:25.7	91.290	-0.290	0.660	0.610
2020/01/31 04:48:25.8	91.270	-0.350	0.750	0.600
2020/01/31 04:48:25.9	91.250	-0.400	0.830	0.600
2020/01/31 04:48:26.0	91.230	-0.450	0.890	0.590
2020/01/31 04:48:26.1	91.220	-0.490	0.940	0.580
2020/01/31 04:48:26.2	91.190	-0.530	0.980	0.570
2020/01/31 04:48:26.3	91.180	-0.560	1.000	0.560
2020/01/31 04:48:26.4	91.160	-0.590	1.010	0.550
2020/01/31 04:48:26.5	91.150	-0.600	1.000	0.540
2020/01/31 04:48:26.6	91.140	-0.610	0.970	0.530
2020/01/31 04:48:26.7	91.130	-0.610	0.930	0.510
2020/01/31 04:48:26.8	91.120	-0.600	0.880	0.500
2020/01/31 04:48:26.9	91.120	-0.590	0.800	0.490
2020/01/31 04:48:27.0	91.120	-0.570	0.720	0.470
2020/01/31 04:48:27.1	91.110	-0.540	0.620	0.460
2020/01/31 04:48:27.2	91.110	-0.500	0.510	0.450
2020/01/31 04:48:27.3	91.110	-0.460	0.390	0.430
2020/01/31 04:48:27.4	91.110	-0.410	0.260	0.420
2020/01/31 04:48:27.5	91.120	-0.350	0.130	0.400
2020/01/31 04:48:27.6	91.120	-0.290	-0.020	0.390
2020/01/31 04:48:27.7	91.120	-0.220	-0.170	0.380
2020/01/31 04:48:27.8	91.130	-0.150	-0.320	0.360
2020/01/31 04:48:27.9	91.130	-0.080	-0.470	0.350
2020/01/31 04:48:28.0	91.140	-0.010	-0.620	0.330
2020/01/31 04:48:28.1	91.150	0.070	-0.770	0.310
2020/01/31 04:48:28.2	91.160	0.140	-0.930	0.300
2020/01/31 04:48:28.3	91.170	0.220	-1.070	0.280
2020/01/31 04:48:28.4	91.180	0.290	-1.200	0.260
2020/01/31 04:48:28.5	91.190	0.370	-1.330	0.240
2020/01/31 04:48:28.6	91.200	0.430	-1.440	0.220
2020/01/31 04:48:28.7	91.210	0.500	-1.540	0.210
2020/01/31 04:48:28.8	91.220	0.560	-1.620	0.190
2020/01/31 04:48:28.9	91.230	0.610	-1.690	0.180
2020/01/31 04:48:29.0	91.240	0.660	-1.750	0.180
2020/01/31 04:48:29.1	91.250	0.710	-1.780	0.170
2020/01/31 04:48:29.2	91.260	0.740	-1.800	0.180
2020/01/31 04:48:29.3	91.270	0.770	-1.800	0.180
2020/01/31 04:48:29.4	91.280	0.790	-1.780	0.190
2020/01/31 04:48:29.5	91.280	0.800	-1.740	0.210
2020/01/31 04:48:29.6	91.280	0.800	-1.690	0.230
2020/01/31 04:48:29.7	91.290	0.790	-1.610	0.250
2020/01/31 04:48:29.8	91.290	0.780	-1.520	0.280
2020/01/31 04:48:29.9	91.290	0.750	-1.410	0.310
2020/01/31 04:48:30.0	91.290	0.720	-1.290	0.350
2020/01/31 04:48:30.1	91.280	0.680	-1.150	0.390
2020/01/31 04:48:30.2	91.280	0.630	-1.000	0.440
2020/01/31 04:48:30.3	91.270	0.570	-0.840	0.490
2020/01/31 04:48:30.4	91.260	0.500	-0.670	0.540
2020/01/31 04:48:30.5	91.250	0.430	-0.500	0.590
2020/01/31 04:48:30.6	91.240	0.360	-0.320	0.640
2020/01/31 04:48:30.7	91.230	0.270	-0.130	0.690
2020/01/31 04:48:30.8	91.220	0.190	0.050	0.750
2020/01/31 04:48:30.9	91.200	0.100	0.230	0.800
2020/01/31 04:48:31.0	91.190	0.010	0.410	0.850
2020/01/31 04:48:31.1	91.170	-0.090	0.580	0.900
2020/01/31 04:48:31.2	91.150	-0.180	0.740	0.950
2020/01/31 04:48:31.3	91.130	-0.280	0.890	0.990
2020/01/31 04:48:31.4	91.120	-0.370	1.030	1.030
2020/01/31 04:48:31.5	91.110	-0.460	1.160	1.060
2020/01/31 04:48:31.6	91.100	-0.540	1.270	1.090
2020/01/31 04:48:31.7	91.090	-0.630	1.370	1.110
2020/01/31 04:48:31.8	91.080	-0.700	1.450	1.120
2020/01/31 04:48:31.9	91.070	-0.770	1.510	1.120
2020/01/31 04:48:32.0	91.070	-0.830	1.550	1.120
2020/01/31 04:48:32.1	91.060	-0.890	1.570	1.110
2020/01/31 04:48:32.2	91.060	-0.940	1.580	1.100
2020/01/31 04:48:32.3	91.060	-0.980	1.560	1.080
2020/01/31 04:48:32.4	91.060	-1.000	1.530	1.050
2020/01/31 04:48:32.5	91.070	-1.020	1.470	1.010
2020/01/31 04:48:32.6	91.080	-1.030	1.400	0.970
2020/01/31 04:48:32.7	91.100	-1.030	1.310	0.930
2020/01/31 04:48:32.8	91.110	-1.030	1.200	0.880
2020/01/31 04:48:32.9	91.130	-1.010	1.090	0.830
2020/01/31 04:48:33.0	91.150	-0.980	0.960	0.780
2020/01/31 04:48:33.1	91.170	-0.940	0.810	0.740
2020/01/31 04:48:33.2	91.180	-0.900	0.660	0.690
2020/01/31 04:48:33.3	91.200	-0.850	0.500	0.650
2020/01/31 04:48:33.4	91.220	-0.790	0.340	0.610
2020/01/31 04:48:33.5	91.240	-0.730	0.180	0.580
2020/01/31 04:48:33.6	91.250	-0.660	0.010	0.550
2020/01/31 04:48:33.7	91.270	-0.590	-0.150	0.520
2020/01/31 04:48:33.8	91.280	-0.520	-0.310	0.500
2020/01/31 04:48:33.9	91.290	-0.440	-0.470	0.480
2020/01/31 04:48:34.0	91.300	-0.360	-0.610	0.470
2020/01/31 04:48:34.1	91.310	-0.280	-0.760	0.460
2020/01/31 04:48:34.2	91.310	-0.200	-0.890	0.450
2020/01/31 04:48:34.3	91.310	-0.130	-1.010	0.450
2020/01/31 04:48:34.4	91.310	-0.050	-1.120	0.440
2020/01/31 04:48:34.5	91.310	0.020	-1.220	0.440
2020/01/31 04:48:34.6	91.310	0.090	-1.300	0.440
2020/01/31 04:48:34.7	91.310	0.150	-1.370	0.430
2020/01/31 04:48:34.8	91.300	0.220	-1.420	0.430
2020/01/31 04:48:34.9	91.290	0.270	-1.460	0.430
2020/01/31 04:48:35.0	91.280	0.320	-1.480	0.430
2020/01/31 04:48:35.1	91.270	0.370	-1.490	0.430
2020/01/31 04:48:35.2	91.250	0.400	-1.480	0.440
2020/01/31 04:48:35.3	91.240	0.440	-1.460	0.440
2020/01/31 04:48:35.4	91.220	0.460	-1.430	0.440
2020/01/31 04:48:35.5	91.200	0.480	-1.380	0.450
2020/01/31 04:48:35.6	91.180	0.500	-1.320	0.450
2020/01/31 04:48:35.7	91.160	0.510	-1.250	0.460
2020/01/31 04:48:35.8	91.140	0.510	-1.170	0.460
2020/01/31 04:48:35.9	91.120	0.500	-1.080	0.470
2020/01/31 04:48:36.0	91.100	0.500	-0.990	0.480
2020/01/31 04:48:36.1	91.080	0.480	-0.890	0.480
2020/01/31 04:48:36.2	91.070	0.460	-0.780	0.490
2020/01/31 04:48:36.3	91.050	0.440	-0.680	0.500
2020/01/31 04:48:36.4	91.040	0.420	-0.570	0.510
2020/01/31 04:48:36.5	91.020	0.390	-0.470	0.510
2020/01/31 04:48:36.6	91.010	0.360	-0.370	0.520
2020/01/31 04:48:36.7	90.990	0.330	-0.270	0.530
2020/01/31 04:48:36.8	90.980	0.300	-0.170	0.540
2020/01/31 04:48:36.9	90.980	0.270	-0.080	0.540
2020/01/31 04:48:37.0	90.970	0.240	0.000	0.550
2020/01/31 04:48:37.1	90.970	0.210	0.080	0.550
2020/01/31 04:48:37.2	90.950	0.180	0.150	0.560
2020/01/31 04:48:37.3	90.950	0.150	0.210	0.560
2020/01/31 04:48:37.4	90.950	0.130	0.260	0.560
2020/01/31 04:48:37.5	90.960	0.100	0.310	0.560
2020/01/31 04:48:37.6	90.960	0.080	0.350	0.550
2020/01/31 04:48:37.7	90.970	0.060	0.370	0.550
2020/01/31 04:48:37.8	90.970	0.040	0.390	0.540
2020/01/31 04:48:37.9	90.980	0.030	0.400	0.530
2020/01/31 04:48:38.0	90.990	0.020	0.400	0.520
2020/01/31 04:48:38.1	91.000	0.020	0.390	0.500
2020/01/31 04:48:38.2	91.000	0.020	0.380	0.490
2020/01/31 04:48:38.3	91.010	0.020	0.350	0.470
2020/01/31 04:48:38.4	91.020	0.020	0.320	0.450
2020/01/31 04:48:38.5	91.030	0.030	0.280	0.440
2020/01/31 04:48:38.6	91.030	0.040	0.240	0.420
2020/01/31 04:48:38.7	91.040	0.060	0.190	0.400
2020/01/31 04:48:38.8	91.040	0.070	0.140	0.380
2020/01/31 04:48:38.9	91.050	0.090	0.090	0.370
2020/01/31 04:48:39.0	91.050	0.110	0.030	0.350
2020/01/31 04:48:39.1	91.050	0.130	-0.020	0.330
2020/01/31 04:48:39.2	91.050	0.160	-0.080	0.320
2020/01/31 04:48:39.3	91.040	0.180	-0.130	0.310
2020/01/31 04:48:39.4	91.040	0.200	-0.180	0.290
2020/01/31 04:48:39.5	91.040	0.220	-0.230	0.280
2020/01/31 04:48:39.6	91.030	0.240	-0.280	0.270
2020/01/31 04:48:39.7	91.020	0.250	-0.320	0.260
2020/01/31 04:48:39.8	91.020	0.270	-0.360	0.250
2020/01/31 04:48:39.9	91.010	0.280	-0.390	0.240
2020/01/31 04:48:40.0	91.010	0.290	-0.420	0.240
2020/01/31 04:48:40.1	91.000	0.300	-0.440	0.230
2020/01/31 04:48:40.2	91.000	0.300	-0.450	0.240
2020/01/31 04:48:40.3	91.000	0.310	-0.460	0.240
2020/01/31 04:48:40.4	90.990	0.300	-0.470	0.250
2020/01/31 04:48:40.5	90.990	0.300	-0.470	0.250
2020/01/31 04:48:40.6	90.990	0.290	-0.470	0.270
2020/01/31 04:48:40.7	90.990	0.280	-0.470	0.280
2020/01/31 04:48:40.8	90.990	0.260	-0.460	0.300
2020/01/31 04:48:40.9	90.990	0.250	-0.450	0.320
2020/01/31 04:48:41.0	91.000	0.220	-0.430	0.340
2020/01/31 04:48:41.1	91.000	0.200	-0.420	0.370
2020/01/31 04:48:41.2	91.020	0.180	-0.400	0.390
2020/01/31 04:48:41.3	91.030	0.150	-0.380	0.420
2020/01/31 04:48:41.4	91.040	0.120	-0.360	0.450
2020/01/31 04:48:41.5	91.050	0.090	-0.330	0.480
2020/01/31 04:48:41.6	91.070	0.060	-0.310	0.510
2020/01/31 04:48:41.7	91.090	0.020	-0.280	0.540
2020/01/31 04:48:41.8	91.100	-0.010	-0.260	0.570
2020/01/31 04:48:41.9	91.120	-0.040	-0.230	0.590
2020/01/31 04:48:42.0	91.150	-0.080	-0.200	0.620
2020/01/31 04:48:42.1	91.170	-0.110	-0.180	0.650
2020/01/31 04:48:42.2	91.200	-0.150	-0.150	0.670
2020/01/31 04:48:42.3	91.220	-0.180	-0.130	0.700
2020/01/31 04:48:42.4	91.250	-0.210	-0.100	0.720
2020/01/31 04:48:42.5	91.270	-0.250	-0.080	0.740
2020/01/31 04:48:42.6	91.300	-0.280	-0.050	0.750
2020/01/31 04:48:42.7	91.320	-0.300	-0.030	0.770
2020/01/31 04:48:42.8	91.350	-0.330	-0.010	0.780
2020/01/31 04:48:42.9	91.380	-0.350	0.010	0.800
2020/01/31 04:48:43.0	91.410	-0.380	0.030	0.810
2020/01/31 04:48:43.1	91.430	-0.400	0.040	0.820
2020/01/31 04:48:43.2	91.460	-0.410	0.060	0.830
2020/01/31 04:48:43.3	91.490	-0.430	0.070	0.840
2020/01/31 04:48:43.4	91.510	-0.440	0.080	0.850
2020/01/31 04:48:43.5	91.530	-0.450	0.090	0.860
2020/01/31 04:48:43.6	91.550	-0.450	0.090	0.870
2020/01/31 04:48:43.7	91.570	-0.450	0.100	0.880
2020/01/31 04:48:43.8	91.590	-0.450	0.090	0.900
2020/01/31 04:48:43.9	91.600	-0.450	0.090	0.910
2020/01/31 04:48:44.0	91.610	-0.440	0.080	0.920
2020/01/31 04:48:44.1	91.620	-0.430	0.070	0.930
2020/01/31 04:48:44.2	91.620	-0.420	0.060	0.940
2020/01/31 04:48:44.3	91.630	-0.400	0.040	0.960
2020/01/31 04:48:44.4	91.630	-0.380	0.020	0.970
2020/01/31 04:48:44.5	91.630	-0.360	0.000	0.980
2020/01/31 04:48:44.6	91.630	-0.340	-0.020	0.990
2020/01/31 04:48:44.7	91.630	-0.310	-0.050	1.000
2020/01/31 04:48:44.8	91.620	-0.280	-0.080	1.010
2020/01/31 04:48:44.9	91.610	-0.260	-0.110	1.020
2020/01/31 04:48:45.0	91.610	-0.220	-0.140	1.030
2020/01/31 04:48:45.1	91.600	-0.190	-0.170	1.040
2020/01/31 04:48:45.2	91.590	-0.160	-0.210	1.040
2020/01/31 04:48:45.3	91.580	-0.130	-0.240	1.050
2020/01/31 04:48:45.4	91.580	-0.090	-0.280	1.050
2020/01/31 04:48:45.5	91.570	-0.060	-0.310	1.050
2020/01/31 04:48:45.6	91.560	-0.030	-0.340	1.050
2020/01/31 04:48:45.7	91.560	0.010	-0.370	1.050
2020/01/31 04:48:45.8	91.560	0.040	-0.400	1.040
2020/01/31 04:48:45.9	91.550	0.070	-0.430	1.040
2020/01/31 04:48:46.0	91.550	0.100	-0.460	1.030
2020/01/31 04:48:46.1	91.550	0.120	-0.480	1.020
2020/01/31 04:48:46.2	91.550	0.150	-0.510	1.010
2020/01/31 04:48:46.3	91.550	0.170	-0.520	1.000
2020/01/31 04:48:46.4	91.550	0.190	-0.540	0.980
2020/01/31 04:48:46.5	91.550	0.210	-0.550	0.960
2020/01/31 04:48:46.6	91.550	0.220	-0.550	0.940
2020/01/31 04:48:46.7	91.560	0.230	-0.560	0.920
2020/01/31 04:48:46.8	91.560	0.240	-0.550	0.890
2020/01/31 04:48:46.9	91.560	0.250	-0.550	0.860
2020/01/31 04:48:47.0	91.570	0.250	-0.540	0.830
2020/01/31 04:48:47.1	91.570	0.250	-0.520	0.800
2020/01/31 04:48:47.2	91.570	0.250	-0.500	0.760
2020/01/31 04:48:47.3	91.580	0.240	-0.470	0.720
2020/01/31 04:48:47.4	91.580	0.230	-0.440	0.680
2020/01/31 04:48:47.5	91.580	0.220	-0.410	0.640
2020/01/31 04:48:47.6	91.580	0.210	-0.370	0.600
2020/01/31 04:48:47.7	91.580	0.190	-0.330	0.550
2020/01/31 04:48:47.8	91.580	0.180	-0.290	0.510
2020/01/31 04:48:47.9	91.580	0.160	-0.240	0.460
2020/01/31 04:48:48.0	91.580	0.140	-0.200	0.420
2020/01/31 04:48:48.1	91.580	0.120	-0.150	0.370
2020/01/31 04:48:48.2	91.570	0.100	-0.100	0.320
2020/01/31 04:48:48.3	91.570	0.080	-0.050	0.280
2020/01/31 04:48:48.4	91.570	0.070	-0.010	0.230
2020/01/31 04:48:48.5	91.570	0.050	0.040	0.190
2020/01/31 04:48:48.6	91.570	0.030	0.080	0.140
2020/01/31 04:48:48.7	91.570	0.020	0.120	0.100
2020/01/31 04:48:48.8	91.570	0.010	0.150	0.060
2020/01/31 04:48:48.9	91.570	0.000	0.180	0.020
2020/01/31 04:48:49.0	91.570	-0.000	0.200	-0.020
2020/01/31 04:48:49.1	91.580	-0.000	0.210	-0.050
2020/01/31 04:48:49.2	91.580	-0.000	0.220	-0.080
2020/01/31 04:48:49.3	91.580	0.010	0.220	-0.110
2020/01/31 04:48:49.4	91.590	0.020	0.200	-0.140
2020/01/31 04:48:49.5	91.600	0.030	0.180	-0.160
2020/01/31 04:48:49.6	91.610	0.050	0.150	-0.180
2020/01/31 04:48:49.7	91.620	0.080	0.110	-0.200
2020/01/31 04:48:49.8	91.620	0.110	0.070	-0.210
2020/01/31 04:48:49.9	91.630	0.140	0.010	-0.220
2020/01/31 04:48:50.0	91.650	0.170	-0.050	-0.230
2020/01/31 04:48:50.1	91.660	0.210	-0.120	-0.240
2020/01/31 04:48:50.2	91.670	0.250	-0.210	-0.240
2020/01/31 04:48:50.3	91.680	0.300	-0.290	-0.240
2020/01/31 04:48:50.4	91.700	0.340	-0.370	-0.240
2020/01/31 04:48:50.5	91.710	0.380	-0.460	-0.240
2020/01/31 04:48:50.6	91.730	0.430	-0.540	-0.230
2020/01/31 04:48:50.7	91.740	0.470	-0.620	-0.220
2020/01/31 04:48:50.8	91.760	0.510	-0.700	-0.210
2020/01/31 04:48:50.9	91.780	0.540	-0.780	-0.200
2020/01/31 04:48:51.0	91.800	0.580	-0.850	-0.190
2020/01/31 04:48:51.1	91.810	0.610	-0.910	-0.180
2020/01/31 04:48:51.2	91.840	0.630	-0.970	-0.160
2020/01/31 04:48:51.3	91.860	0.650	-1.020	-0.140
2020/01/31 04:48:51.4	91.880	0.660	-1.060	-0.130
2020/01/31 04:48:51.5	91.900	0.670	-1.080	-0.110
2020/01/31 04:48:51.6	91.920	0.670	-1.100	-0.090
2020/01/31 04:48:51.7	91.940	0.660	-1.110	-0.070
2020/01/31 04:48:51.8	91.960	0.650	-1.100	-0.040
2020/01/31 04:48:51.9	91.970	0.630	-1.090	-0.020
2020/01/31 04:48:52.0	91.990	0.600	-1.060	0.010
2020/01/31 04:48:52.1	92.010	0.570	-1.010	0.050
2020/01/31 04:48:52.2	92.030	0.530	-0.960	0.080
2020/01/31 04:48:52.3	92.040	0.480	-0.900	0.120
2020/01/31 04:48:52.4	92.050	0.430	-0.820	0.160
2020/01/31 04:48:52.5	92.060	0.370	-0.730	0.200
2020/01/31 04:48:52.6	92.070	0.310	-0.630	0.250
2020/01/31 04:48:52.7	92.080	0.250	-0.530	0.290
2020/01/31 04:48:52.8	92.090	0.180	-0.420	0.340
2020/01/31 04:48:52.9	92.100	0.100	-0.300	0.390
2020/01/31 04:48:53.0	92.100	0.030	-0.170	0.440
2020/01/31 04:48:53.1	92.110	-0.050	-0.040	0.500
2020/01/31 04:48:53.2	92.110	-0.130	0.090	0.560
2020/01/31 04:48:53.3	92.120	-0.210	0.220	0.610
2020/01/31 04:48:53.4	92.120	-0.290	0.350	0.660
2020/01/31 04:48:53.5	92.130	-0.370	0.470	0.720
2020/01/31 04:48:53.6	92.140	-0.440	0.590	0.770
2020/01/31 04:48:53.7	92.140	-0.520	0.700	0.820
2020/01/31 04:48:53.8	92.150	-0.590	0.800	0.870
2020/01/31 04:48:53.9	92.160	-0.660	0.900	0.920
2020/01/31 04:48:54.0	92.170	-0.720	0.980	0.960
2020/01/31 04:48:54.1	92.190	-0.780	1.050	1.000
2020/01/31 04:48:54.2	92.200	-0.830	1.100	1.040
2020/01/31 04:48:54.3	92.220	-0.880	1.140	1.080
2020/01/31 04:48:54.4	92.230	-0.920	1.160	1.100
2020/01/31 04:48:54.5	92.250	-0.950	1.170	1.130
2020/01/31 04:48:54.6	92.270	-0.980	1.170	1.150
2020/01/31 04:48:54.7	92.290	-1.000	1.150	1.160
2020/01/31 04:48:54.8	92.310	-1.010	1.110	1.170
2020/01/31 04:48:54.9	92.330	-1.020	1.060	1.180
2020/01/31 04:48:55.0	92.350	-1.010	0.990	1.180
2020/01/31 04:48:55.1	92.370	-1.000	0.910	1.180
2020/01/31 04:48:55.2	92.390	-0.980	0.820	1.180
2020/01/31 04:48:55.3	92.410	-0.960	0.710	1.180
2020/01/31 04:48:55.4	92.420	-0.920	0.600	1.170
2020/01/31 04:48:55.5	92.440	-0.890	0.470	1.160
2020/01/31 04:48:55.6	92.450	-0.840	0.340	1.160
2020/01/31 04:48:55.7	92.450	-0.790	0.200	1.140
2020/01/31 04:48:55.8	92.460	-0.730	0.060	1.130
2020/01/31 04:48:55.9	92.460	-0.670	-0.080	1.120
2020/01/31 04:48:56.0	92.460	-0.610	-0.220	1.110
2020/01/31 04:48:56.1	92.450	-0.540	-0.360	1.090
2020/01/31 04:48:56.2	92.450	-0.480	-0.510	1.080
2020/01/31 04:48:56.3	92.440	-0.410	-0.640	1.060
2020/01/31 04:48:56.4	92.430	-0.330	-0.770	1.040
2020/01/31 04:48:56.5	92.420	-0.260	-0.890	1.020
2020/01/31 04:48:56.6	92.400	-0.190	-1.000	1.000
2020/01/31 04:48:56.7	92.390	-0.120	-1.100	0.970
2020/01/31 04:48:56.8	92.370	-0.050	-1.180	0.950
2020/01/31 04:48:56.9	92.350	0.010	-1.260	0.920
2020/01/31 04:48:57.0	92.330	0.080	-1.320	0.900
2020/01/31 04:48:57.1	92.320	0.140	-1.370	0.870
2020/01/31 04:48:57.2	92.300	0.190	-1.400	0.850
2020/01/31 04:48:57.3	92.280	0.240	-1.430	0.830
2020/01/31 04:48:57.4	92.260	0.290	-1.430	0.810
2020/01/31 04:48:57.5	92.240	0.330	-1.420	0.780
2020/01/31 04:48:57.6	92.220	0.370	-1.400	0.760
2020/01/31 04:48:57.7	92.210	0.400	-1.370	0.740
2020/01/31 04:48:57.8	92.190	0.430	-1.320	0.720
2020/01/31 04:48:57.9	92.180	0.450	-1.270	0.700
2020/01/31 04:48:58.0	92.160	0.470	-1.200	0.690
2020/01/31 04:48:58.1	92.150	0.480	-1.120	0.670
2020/01/31 04:48:58.2	92.140	0.490	-1.040	0.650
2020/01/31 04:48:58.3	92.130	0.490	-0.950	0.630
2020/01/31 04:48:58.4	92.120	0.490	-0.850	0.610
2020/01/31 04:48:58.5	92.110	0.480	-0.760	0.600
2020/01/31 04:48:58.6	92.110	0.470	-0.660	0.580
2020/01/31 04:48:58.7	92.100	0.460	-0.560	0.560
2020/01/31 04:48:58.8	92.100	0.440	-0.450	0.540
2020/01/31 04:48:58.9	92.110	0.430	-0.360	0.520
2020/01/31 04:48:59.0	92.110	0.410	-0.260	0.500
2020/01/31 04:48:59.1	92.120	0.390	-0.170	0.470
2020/01/31 04:48:59.2	92.120	0.360	-0.080	0.450
2020/01/31 04:48:59.3	92.130	0.340	0.000	0.420
2020/01/31 04:48:59.4	92.150	0.320	0.080	0.380
2020/01/31 04:48:59.5	92.170	0.290	0.140	0.350
2020/01/31 04:48:59.6	92.190	0.270	0.210	0.310
2020/01/31 04:48:59.7	92.210	0.250	0.260	0.270
2020/01/31 04:48:59.8	92.240	0.220	0.310	0.220
2020/01/31 04:48:59.9	92.270	0.200	0.350	0.180
2020/01/31 04:49:00.0	92.300	0.180	0.380	0.130
2020/01/31 04:49:00.1	92.330	0.160	0.410	0.080
2020/01/31 04:49:00.2	92.370	0.140	0.430	0.030
2020/01/31 04:49:00.3	92.400	0.120	0.440	-0.010
2020/01/31 04:49:00.4	92.430	0.100	0.450	-0.060
2020/01/31 04:49:00.5	92.470	0.080	0.450	-0.100
2020/01/31 04:49:00.6	92.500	0.070	0.440	-0.140
2020/01/31 04:49:00.7	92.540	0.050	0.440	-0.180
2020/01/31 04:49:00.8	92.570	0.040	0.420	-0.210
2020/01/31 04:49:00.9	92.600	0.030	0.400	-0.230
2020/01/31 04:49:01.0	92.630	0.020	0.380	-0.260
2020/01/31 04:49:01.1	92.650	0.020	0.360	-0.270
2020/01/31 04:49:01.2	92.680	0.010	0.330	-0.280
2020/01/31 04:49:01.3	92.700	0.010	0.300	-0.280
2020/01/31 04:49:01.4	92.710	0.000	0.270	-0.290
2020/01/31 04:49:01.5	92.730	0.000	0.230	-0.280
2020/01/31 04:49:01.6	92.740	0.000	0.190	-0.270
2020/01/31 04:49:01.7	92.750	0.010	0.150	-0.250
2020/01/31 04:49:01.8	92.750	0.010	0.110	-0.230
2020/01/31 04:49:01.9	92.760	0.010	0.070	-0.200
2020/01/31 04:49:02.0	92.760	0.020	0.030	-0.180
2020/01/31 04:49:02.1	92.760	0.030	-0.020	-0.140
2020/01/31 04:49:02.2	92.760	0.040	-0.070	-0.110
2020/01/31 04:49:02.3	92.760	0.040	-0.110	-0.070
2020/01/31 04:49:02.4	92.750	0.050	-0.150	-0.030
2020/01/31 04:49:02.5	92.750	0.060	-0.190	0.010
2020/01/31 04:49:02.6	92.740	0.070	-0.230	0.050
2020/01/31 04:49:02.7	92.730	0.080	-0.270	0.090
2020/01/31 04:49:02.8	92.730	0.090	-0.310	0.140
2020/01/31 04:49:02.9	92.720	0.100	-0.340	0.180
2020/01/31 04:49:03.0	92.710	0.110	-0.370	0.220
2020/01/31 04:49:03.1	92.700	0.120	-0.400	0.270
2020/01/31 04:49:03.2	92.690	0.130	-0.420	0.310
2020/01/31 04:49:03.3	92.680	0.130	-0.440	0.350
2020/01/31 04:49:03.4	92.670	0.140	-0.450	0.390
2020/01/31 04:49:03.5	92.660	0.140	-0.460	0.420
2020/01/31 04:49:03.6	92.660	0.140	-0.470	0.460
2020/01/31 04:49:03.7	92.650	0.150	-0.470	0.490
2020/01/31 04:49:03.8	92.640	0.140	-0.470	0.520
2020/01/31 04:49:03.9	92.630	0.140	-0.470	0.540
2020/01/31 04:49:04.0	92.620	0.140	-0.460	0.560
2020/01/31 04:49:04.1	92.610	0.140	-0.450	0.590
2020/01/31 04:49:04.2	92.600	0.130	-0.440	0.600
2020/01/31 04:49:04.3	92.590	0.120	-0.420	0.620
2020/01/31 04:49:04.4	92.580	0.120	-0.410	0.630
2020/01/31 04:49:04.5	92.580	0.110	-0.390	0.640
2020/01/31 04:49:04.6	92.570	0.100	-0.370	0.650
2020/01/31 04:49:04.7	92.560	0.090	-0.350	0.660
2020/01/31 04:49:04.8	92.550	0.090	-0.340	0.660
2020/01/31 04:49:04.9	92.530	0.080	-0.320	0.660
2020/01/31 04:49:05.0	92.520	0.070	-0.300	0.660
2020/01/31 04:49:05.1	92.510	0.070	-0.290	0.660
2020/01/31 04:49:05.2	92.490	0.060	-0.270	0.670
2020/01/31 04:49:05.3	92.470	0.060	-0.260	0.660
2020/01/31 04:49:05.4	92.460	0.060	-0.250	0.660
2020/01/31 04:49:05.5	92.440	0.060	-0.240	0.660
2020/01/31 04:49:05.6	92.430	0.060	-0.240	0.660
2020/01/31 04:49:05.7	92.410	0.070	-0.240	0.660
2020/01/31 04:49:05.8	92.390	0.070	-0.240	0.660
2020/01/31 04:49:05.9	92.380	0.080	-0.240	0.660
2020/01/31 04:49:06.0	92.360	0.090	-0.240	0.660
2020/01/31 04:49:06.1	92.340	0.100	-0.250	0.660
2020/01/31 04:49:06.2	92.330	0.110	-0.260	0.660
2020/01/31 04:49:06.3	92.310	0.120	-0.270	0.660
2020/01/31 04:49:06.4	92.300	0.130	-0.280	0.660
2020/01/31 04:49:06.5	92.290	0.150	-0.300	0.660
2020/01/31 04:49:06.6	92.280	0.160	-0.310	0.660
2020/01/31 04:49:06.7	92.270	0.170	-0.330	0.660
2020/01/31 04:49:06.8	92.260	0.190	-0.350	0.660
2020/01/31 04:49:06.9	92.260	0.200	-0.360	0.660
2020/01/31 04:49:07.0	92.260	0.210	-0.380	0.660
2020/01/31 04:49:07.1	92.250	0.220	-0.400	0.660
2020/01/31 04:49:07.2	92.260	0.230	-0.420	0.660
2020/01/31 04:49:07.3	92.260	0.240	-0.440	0.660
2020/01/31 04:49:07.4	92.270	0.240	-0.450	0.650
2020/01/31 04:49:07.5	92.270	0.250	-0.470	0.650
2020/01/31 04:49:07.6	92.280	0.250	-0.490	0.650
2020/01/31 04:49:07.7	92.280	0.250	-0.500	0.640
2020/01/31 04:49:07.8	92.290	0.240	-0.510	0.640
2020/01/31 04:49:07.9	92.300	0.240	-0.520	0.630
2020/01/31 04:49:08.0	92.320	0.230	-0.530	0.630
2020/01/31 04:49:08.1	92.330	0.210	-0.530	0.620
2020/01/31 04:49:08.2	92.340	0.200	-0.540	0.620
2020/01/31 04:49:08.3	92.350	0.180	-0.540	0.620
2020/01/31 04:49:08.4	92.370	0.160	-0.540	0.610
2020/01/31 04:49:08.5	92.380	0.140	-0.530	0.610
2020/01/31 04:49:08.6	92.390	0.110	-0.520	0.600
2020/01/31 04:49:08.7	92.400	0.090	-0.510	0.600
2020/01/31 04:49:08.8	92.420	0.060	-0.490	0.600
2020/01/31 04:49:08.9	92.430	0.030	-0.470	0.600
2020/01/31 04:49:09.0	92.440	-0.010	-0.450	0.600
2020/01/31 04:49:09.1	92.450	-0.040	-0.420	0.600
2020/01/31 04:49:09.2	92.470	-0.080	-0.390	0.610
2020/01/31 04:49:09.3	92.480	-0.110	-0.350	0.620
2020/01/31 04:49:09.4	92.490	-0.150	-0.310	0.630
2020/01/31 04:49:09.5	92.500	-0.190	-0.270	0.640
2020/01/31 04:49:09.6	92.510	-0.230	-0.220	0.650
2020/01/31 04:49:09.7	92.520	-0.270	-0.170	0.660
2020/01/31 04:49:09.8	92.530	-0.310	-0.110	0.680
2020/01/31 04:49:09.9	92.540	-0.350	-0.060	0.700
2020/01/31 04:49:10.0	92.550	-0.390	0.000	0.720
2020/01/31 04:49:10.1	92.550	-0.430	0.060	0.740
2020/01/31 04:49:10.2	92.560	-0.470	0.120	0.750
2020/01/31 04:49:10.3	92.570	-0.500	0.170	0.780
2020/01/31 04:49:10.4	92.570	-0.540	0.230	0.800
2020/01/31 04:49:10.5	92.580	-0.570	0.290	0.820
2020/01/31 04:49:10.6	92.590	-0.600	0.340	0.850
2020/01/31 04:49:10.7	92.590	-0.630	0.390	0.870
2020/01/31 04:49:10.8	92.600	-0.660	0.440	0.900
2020/01/31 04:49:10.9	92.600	-0.690	0.480	0.920
2020/01/31 04:49:11.0	92.610	-0.710	0.510	0.940
2020/01/31 04:49:11.1	92.610	-0.730	0.540	0.960
2020/01/31 04:49:11.2	92.620	-0.750	0.570	0.980
2020/01/31 04:49:11.3	92.620	-0.760	0.590	1.000
2020/01/31 04:49:11.4	92.630	-0.770	0.600	1.010
2020/01/31 04:49:11.5	92.640	-0.780	0.600	1.020
2020/01/31 04:49:11.6	92.640	-0.780	0.590	1.030
2020/01/31 04:49:11.7	92.650	-0.780	0.580	1.040
2020/01/31 04:49:11.8	92.660	-0.770	0.560	1.050
2020/01/31 04:49:11.9	92.670	-0.770	0.530	1.050
2020/01/31 04:49:12.0	92.680	-0.750	0.490	1.050
2020/01/31 04:49:12.1	92.680	-0.740	0.450	1.050
2020/01/31 04:49:12.2	92.680	-0.720	0.390	1.050
2020/01/31 04:49:12.3	92.690	-0.690	0.330	1.050
2020/01/31 04:49:12.4	92.700	-0.670	0.270	1.050
2020/01/31 04:49:12.5	92.700	-0.640	0.200	1.050
2020/01/31 04:49:12.6	92.710	-0.600	0.130	1.040
2020/01/31 04:49:12.7	92.720	-0.560	0.050	1.040
2020/01/31 04:49:12.8	92.720	-0.520	-0.020	1.030
2020/01/31 04:49:12.9	92.730	-0.480	-0.100	1.030
2020/01/31 04:49:13.0	92.740	-0.440	-0.180	1.020
2020/01/31 04:49:13.1	92.740	-0.390	-0.270	1.010
2020/01/31 04:49:13.2	92.750	-0.340	-0.350	1.000
2020/01/31 04:49:13.3	92.750	-0.290	-0.420	0.990
2020/01/31 04:49:13.4	92.750	-0.240	-0.500	0.980
2020/01/31 04:49:13.5	92.760	-0.190	-0.570	0.960
2020/01/31 04:49:13.6	92.760	-0.140	-0.640	0.950
2020/01/31 04:49:13.7	92.770	-0.090	-0.710	0.930
2020/01/31 04:49:13.8	92.770	-0.030	-0.770	0.900
2020/01/31 04:49:13.9	92.770	0.020	-0.830	0.880
2020/01/31 04:49:14.0	92.770	0.070	-0.880	0.850
2020/01/31 04:49:14.1	92.770	0.120	-0.930	0.830
2020/01/31 04:49:14.2	92.770	0.170	-0.970	0.800
2020/01/31 04:49:14.3	92.760	0.220	-1.010	0.770
2020/01/31 04:49:14.4	92.760	0.270	-1.030	0.740
2020/01/31 04:49:14.5	92.750	0.310	-1.060	0.700
2020/01/31 04:49:14.6	92.750	0.350	-1.070	0.670
2020/01/31 04:49:14.7	92.740	0.390	-1.080	0.640
2020/01/31 04:49:14.8	92.730	0.430	-1.080	0.610
2020/01/31 04:49:14.9	92.710	0.470	-1.080	0.580
2020/01/31 04:49:15.0	92.700	0.500	-1.060	0.550
2020/01/31 04:49:15.1	92.680	0.530	-1.050	0.530
2020/01/31 04:49:15.2	92.670	0.560	-1.020	0.500
2020/01/31 04:49:15.3	92.650	0.580	-0.990	0.480
2020/01/31 04:49:15.4	92.630	0.600	-0.950	0.470
2020/01/31 04:49:15.5	92.600	0.620	-0.900	0.450
2020/01/31 04:49:15.6	92.580	0.630	-0.850	0.440
2020/01/31 04:49:15.7	92.550	0.640	-0.800	0.430
2020/01/31 04:49:15.8	92.520	0.650	-0.740	0.420
2020/01/31 04:49:15.9	92.500	0.660	-0.680	0.410
2020/01/31 04:49:16.0	92.470	0.660	-0.610	0.410
2020/01/31 04:49:16.1	92.440	0.660	-0.540	0.400
2020/01/31 04:49:16.2	92.410	0.660	-0.470	0.400
2020/01/31 04:49:16.3	92.380	0.650	-0.390	0.400
2020/01/31 04:49:16.4	92.350	0.640	-0.320	0.400
2020/01/31 04:49:16.5	92.320	0.630	-0.250	0.400
2020/01/31 04:49:16.6	92.290	0.620	-0.170	0.400
2020/01/31 04:49:16.7	92.260	0.610	-0.100	0.400
2020/01/31 04:49:16.8	92.230	0.600	-0.040	0.390
2020/01/31 04:49:16.9	92.210	0.580	0.030	0.390
2020/01/31 04:49:17.0	92.190	0.560	0.090	0.380
2020/01/31 04:49:17.1	92.170	0.550	0.140	0.370
2020/01/31 04:49:17.2	92.160	0.530	0.190	0.360
2020/01/31 04:49:17.3	92.150	0.510	0.240	0.340
2020/01/31 04:49:17.4	92.140	0.490	0.270	0.320
2020/01/31 04:49:17.5	92.130	0.470	0.310	0.300
2020/01/31 04:49:17.6	92.130	0.450	0.330	0.270
2020/01/31 04:49:17.7	92.130	0.430	0.350	0.250
2020/01/31 04:49:17.8	92.140	0.410	0.360	0.220
2020/01/31 04:49:17.9	92.140	0.400	0.370	0.200
2020/01/31 04:49:18.0	92.150	0.380	0.360	0.170
2020/01/31 04:49:18.1	92.160	0.360	0.350	0.150
2020/01/31 04:49:18.2	92.180	0.340	0.340	0.130
2020/01/31 04:49:18.3	92.190	0.330	0.320	0.100
2020/01/31 04:49:18.4	92.210	0.310	0.290	0.080
2020/01/31 04:49:18.5	92.230	0.300	0.260	0.070
2020/01/31 04:49:18.6	92.240	0.290	0.220	0.050
2020/01/31 04:49:18.7	92.260	0.270	0.180	0.050
2020/01/31 04:49:18.8	92.280	0.260	0.130	0.040
2020/01/31 04:49:18.9	92.300	0.250	0.080	0.040
2020/01/31 04:49:19.0	92.320	0.240	0.030	0.050
2020/01/31 04:49:19.1	92.340	0.230	-0.020	0.060
2020/01/31 04:49:19.2	92.360	0.220	-0.080	0.070
2020/01/31 04:49:19.3	92.370	0.210	-0.130	0.090
2020/01/31 04:49:19.4	92.390	0.200	-0.180	0.120
2020/01/31 04:49:19.5	92.410	0.180	-0.220	0.150
2020/01/31 04:49:19.6	92.420	0.170	-0.260	0.190
2020/01/31 04:49:19.7	92.430	0.160	-0.300	0.230
2020/01/31 04:49:19.8	92.440	0.140	-0.330	0.280
2020/01/31 04:49:19.9	92.450	0.120	-0.360	0.330
2020/01/31 04:49:20.0	92.460	0.100	-0.380	0.380
2020/01/31 04:49:20.1	92.470	0.080	-0.390	0.440
2020/01/31 04:49:20.2	92.470	0.060	-0.410	0.500
2020/01/31 04:49:20.3	92.480	0.030	-0.410	0.560
2020/01/31 04:49:20.4	92.480	0.010	-0.400	0.620
2020/01/31 04:49:20.5	92.480	-0.020	-0.390	0.680
2020/01/31 04:49:20.6	92.470	-0.050	-0.380	0.740
2020/01/31 04:49:20.7	92.470	-0.090	-0.350	0.800
2020/01/31 04:49:20.8	92.460	-0.120	-0.320	0.860
2020/01/31 04:49:20.9	92.450	-0.160	-0.290	0.920
2020/01/31 04:49:21.0	92.440	-0.200	-0.250	0.980
2020/01/31 04:49:21.1	92.430	-0.240	-0.210	1.030
2020/01/31 04:49:21.2	92.430	-0.280	-0.160	1.080
2020/01/31 04:49:21.3	92.410	-0.330	-0.120	1.140
2020/01/31 04:49:21.4	92.400	-0.370	-0.070	1.190
2020/01/31 04:49:21.5	92.390	-0.410	-0.020	1.240
2020/01/31 04:49:21.6	92.380	-0.450	0.030	1.290
2020/01/31 04:49:21.7	92.370	-0.500	0.070	1.340
2020/01/31 04:49:21.8	92.360	-0.540	0.120	1.390
2020/01/31 04:49:21.9	92.350	-0.570	0.160	1.430
2020/01/31 04:49:22.0	92.340	-0.610	0.200	1.480
2020/01/31 04:49:22.1	92.340	-0.640	0.230	1.520
2020/01/31 04:49:22.2	92.330	-0.670	0.260	1.560
2020/01/31 04:49:22.3	92.330	-0.700	0.280	1.600
2020/01/31 04:49:22.4	92.330	-0.720	0.290	1.630
2020/01/31 04:49:22.5	92.330	-0.740	0.290	1.660
2020/01/31 04:49:22.6	92.340	-0.760	0.290	1.690
2020/01/31 04:49:22.7	92.340	-0.770	0.280	1.710
2020/01/31 04:49:22.8	92.350	-0.770	0.260	1.730
2020/01/31 04:49:22.9	92.350	-0.770	0.240	1.750
2020/01/31 04:49:23.0	92.360	-0.760	0.200	1.760
2020/01/31 04:49:23.1	92.370	-0.750	0.160	1.770
2020/01/31 04:49:23.2	92.380	-0.730	0.110	1.780
2020/01/31 04:49:23.3	92.380	-0.700	0.050	1.780
2020/01/31 04:49:23.4	92.390	-0.670	-0.020	1.770
2020/01/31 04:49:23.5	92.400	-0.640	-0.090	1.760
2020/01/31 04:49:23.6	92.410	-0.600	-0.170	1.740
2020/01/31 04:49:23.7	92.410	-0.560	-0.250	1.720
2020/01/31 04:49:23.8	92.420	-0.510	-0.330	1.690
2020/01/31 04:49:23.9	92.430	-0.450	-0.420	1.650
2020/01/31 04:49:24.0	92.430	-0.400	-0.500	1.610
2020/01/31 04:49:24.1	92.440	-0.340	-0.590	1.570
2020/01/31 04:49:24.2	92.440	-0.280	-0.680	1.530
2020/01/31 04:49:24.3	92.440	-0.220	-0.760	1.480
2020/01/31 04:49:24.4	92.430	-0.160	-0.830	1.420
2020/01/31 04:49:24.5	92.420	-0.100	-0.890	1.370
2020/01/31 04:49:24.6	92.410	-0.040	-0.950	1.320
2020/01/31 04:49:24.7	92.400	0.010	-0.990	1.260
2020/01/31 04:49:24.8	92.380	0.070	-1.030	1.210
2020/01/31 04:49:24.9	92.370	0.120	-1.050	1.150
2020/01/31 04:49:25.0	92.350	0.160	-1.070	1.100
2020/01/31 04:49:25.1	92.330	0.210	-1.070	1.050
2020/01/31 04:49:25.2	92.300	0.250	-1.060	0.990
2020/01/31 04:49:25.3	92.280	0.280	-1.040	0.950
2020/01/31 04:49:25.4	92.260	0.310	-1.000	0.900
2020/01/31 04:49:25.5	92.230	0.340	-0.960	0.860
2020/01/31 04:49:25.6	92.210	0.360	-0.900	0.810
2020/01/31 04:49:25.7	92.180	0.380	-0.840	0.770
2020/01/31 04:49:25.8	92.150	0.390	-0.760	0.740
2020/01/31 04:49:25.9	92.130	0.390	-0.680	0.700
2020/01/31 04:49:26.0	92.100	0.400	-0.590	0.670
2020/01/31 04:49:26.1	92.070	0.390	-0.500	0.640
2020/01/31 04:49:26.2	92.050	0.390	-0.390	0.610
2020/01/31 04:49:26.3	92.020	0.380	-0.290	0.580
2020/01/31 04:49:26.4	92.000	0.360	-0.190	0.550
2020/01/31 04:49:26.5	91.970	0.350	-0.090	0.520
2020/01/31 04:49:26.6	91.950	0.330	0.010	0.490
2020/01/31 04:49:26.7	91.930	0.310	0.110	0.460
2020/01/31 04:49:26.8	91.910	0.290	0.190	0.430
2020/01/31 04:49:26.9	91.890	0.270	0.270	0.400
2020/01/31 04:49:27.0	91.880	0.250	0.340	0.370
2020/01/31 04:49:27.1	91.860	0.230	0.400	0.340
2020/01/31 04:49:27.2	91.860	0.210	0.450	0.310
2020/01/31 04:49:27.3	91.850	0.200	0.480	0.280
2020/01/31 04:49:27.4	91.840	0.190	0.510	0.250
2020/01/31 04:49:27.5	91.830	0.180	0.510	0.210
2020/01/31 04:49:27.6	91.830	0.170	0.510	0.180
2020/01/31 04:49:27.7	91.820	0.170	0.490	0.150
2020/01/31 04:49:27.8	91.820	0.170	0.450	0.110
2020/01/31 04:49:27.9	91.820	0.180	0.410	0.080
2020/01/31 04:49:28.0	91.830	0.190	0.350	0.050
2020/01/31 04:49:28.1	91.830	0.200	0.280	0.020
2020/01/31 04:49:28.2	91.840	0.210	0.200	-0.020
2020/01/31 04:49:28.3	91.840	0.230	0.120	-0.050
2020/01/31 04:49:28.4	91.850	0.240	0.030	-0.080
2020/01/31 04:49:28.5	91.870	0.260	-0.060	-0.100
2020/01/31 04:49:28.6	91.880	0.280	-0.150	-0.130
2020/01/31 04:49:28.7	91.890	0.300	-0.240	-0.160
2020/01/31 04:49:28.8	91.900	0.310	-0.340	-0.180
2020/01/31 04:49:28.9	91.910	0.330	-0.430	-0.200
2020/01/31 04:49:29.0	91.930	0.340	-0.510	-0.210
2020/01/31 04:49:29.1	91.940	0.350	-0.590	-0.220
2020/01/31 04:49:29.2	91.950	0.360	-0.660	-0.220
2020/01/31 04:49:29.3	91.960	0.370	-0.720	-0.220
2020/01/31 04:49:29.4	91.960	0.370	-0.780	-0.220
2020/01/31 04:49:29.5	91.970	0.370	-0.820	-0.210
2020/01/31 04:49:29.6	91.970	0.360	-0.860	-0.190
2020/01/31 04:49:29.7	91.970	0.360	-0.880	-0.170
2020/01/31 04:49:29.8	91.970	0.340	-0.890	-0.140
2020/01/31 04:49:29.9	91.960	0.330	-0.890	-0.100
2020/01/31 04:49:30.0	91.960	0.300	-0.880	-0.060
2020/01/31 04:49:30.1	91.950	0.280	-0.860	-0.020
2020/01/31 04:49:30.2	91.950	0.250	-0.830	0.040
2020/01/31 04:49:30.3	91.940	0.220	-0.780	0.100
2020/01/31 04:49:30.4	91.930	0.180	-0.730	0.160
2020/01/31 04:49:30.5	91.920	0.150	-0.670	0.230
2020/01/31 04:49:30.6	91.910	0.100	-0.600	0.300
2020/01/31 04:49:30.7	91.890	0.060	-0.530	0.370
2020/01/31 04:49:30.8	91.880	0.020	-0.450	0.440
2020/01/31 04:49:30.9	91.860	-0.030	-0.360	0.520
2020/01/31 04:49:31.0	91.850	-0.080	-0.270	0.600
2020/01/31 04:49:31.1	91.830	-0.120	-0.190	0.670
2020/01/31 04:49:31.2	91.820	-0.170	-0.090	0.750
2020/01/31 04:49:31.3	91.810	-0.220	-0.010	0.830
2020/01/31 04:49:31.4	91.800	-0.270	0.080	0.900
2020/01/31 04:49:31.5	91.780	-0.310	0.160	0.970
2020/01/31 04:49:31.6	91.770	-0.360	0.240	1.040
2020/01/31 04:49:31.7	91.760	-0.400	0.310	1.100
2020/01/31 04:49:31.8	91.750	-0.430	0.370	1.160
2020/01/31 04:49:31.9	91.750	-0.470	0.420	1.210
2020/01/31 04:49:32.0	91.740	-0.500	0.470	1.260
2020/01/31 04:49:32.1	91.740	-0.530	0.510	1.310
2020/01/31 04:49:32.2	91.740	-0.550	0.530	1.350
2020/01/31 04:49:32.3	91.740	-0.570	0.550	1.390
2020/01/31 04:49:32.4	91.740	-0.590	0.560	1.420
2020/01/31 04:49:32.5	91.740	-0.600	0.560	1.440
2020/01/31 04:49:32.6	91.750	-0.610	0.560	1.460
2020/01/31 04:49:32.7	91.760	-0.610	0.540	1.480
2020/01/31 04:49:32.8	91.770	-0.610	0.510	1.490
2020/01/31 04:49:32.9	91.780	-0.600	0.480	1.490
2020/01/31 04:49:33.0	91.790	-0.590	0.430	1.500
2020/01/31 04:49:33.1	91.810	-0.580	0.390	1.500
2020/01/31 04:49:33.2	91.820	-0.560	0.330	1.490
2020/01/31 04:49:33.3	91.830	-0.540	0.270	1.490
2020/01/31 04:49:33.4	91.840	-0.520	0.210	1.480
2020/01/31 04:49:33.5	91.850	-0.500	0.140	1.470
2020/01/31 04:49:33.6	91.860	-0.470	0.070	1.460
2020/01/31 04:49:33.7	91.870	-0.440	-0.010	1.450
2020/01/31 04:49:33.8	91.870	-0.410	-0.080	1.430
2020/01/31 04:49:33.9	91.880	-0.370	-0.150	1.410
2020/01/31 04:49:34.0	91.880	-0.340	-0.220	1.390
2020/01/31 04:49:34.1	91.880	-0.300	-0.290	1.370
2020/01/31 04:49:34.2	91.880	-0.270	-0.360	1.350
2020/01/31 04:49:34.3	91.870	-0.230	-0.420	1.320
2020/01/31 04:49:34.4	91.870	-0.200	-0.480	1.290
2020/01/31 04:49:34.5	91.860	-0.160	-0.530	1.260
2020/01/31 04:49:34.6	91.860	-0.130	-0.580	1.230
2020/01/31 04:49:34.7	91.850	-0.090	-0.610	1.200
2020/01/31 04:49:34.8	91.840	-0.060	-0.650	1.170
2020/01/31 04:49:34.9	91.830	-0.030	-0.670	1.140
2020/01/31 04:49:35.0	91.820	-0.010	-0.680	1.100
2020/01/31 04:49:35.1	91.810	0.020	-0.690	1.070
2020/01/31 04:49:35.2	91.800	0.040	-0.690	1.040
2020/01/31 04:49:35.3	91.790	0.060	-0.680	1.010
2020/01/31 04:49:35.4	91.780	0.080	-0.670	0.980
2020/01/31 04:49:35.5	91.770	0.100	-0.650	0.960
2020/01/31 04:49:35.6	91.760	0.110	-0.620	0.930
2020/01/31 04:49:35.7	91.750	0.120	-0.580	0.900
2020/01/31 04:49:35.8	91.740	0.120	-0.550	0.880
2020/01/31 04:49:35.9	91.730	0.130	-0.510	0.850
2020/01/31 04:49:36.0	91.730	0.130	-0.460	0.830
2020/01/31 04:49:36.1	91.720	0.130	-0.410	0.810
2020/01/31 04:49:36.2	91.710	0.130	-0.370	0.780
2020/01/31 04:49:36.3	91.710	0.120	-0.320	0.760
2020/01/31 04:49:36.4	91.710	0.120	-0.270	0.740
2020/01/31 04:49:36.5	91.700	0.110	-0.230	0.720
2020/01/31 04:49:36.6	91.700	0.110	-0.190	0.690
2020/01/31 04:49:36.7	91.700	0.100	-0.150	0.670
2020/01/31 04:49:36.8	91.700	0.090	-0.120	0.650
2020/01/31 04:49:36.9	91.700	0.090	-0.090	0.630
2020/01/31 04:49:37.0	91.710	0.080	-0.070	0.610
2020/01/31 04:49:37.1	91.710	0.080	-0.050	0.580
2020/01/31 04:49:37.2	91.710	0.080	-0.040	0.560
2020/01/31 04:49:37.3	91.710	0.080	-0.040	0.540
2020/01/31 04:49:37.4	91.720	0.080	-0.040	0.510
2020/01/31 04:49:37.5	91.720	0.080	-0.050	0.490
2020/01/31 04:49:37.6	91.720	0.090	-0.070	0.460
2020/01/31 04:49:37.7	91.730	0.100	-0.100	0.440
2020/01/31 04:49:37.8	91.730	0.120	-0.130	0.420
2020/01/31 04:49:37.9	91.730	0.140	-0.170	0.390
2020/01/31 04:49:38.0	91.740	0.160	-0.210	0.370
2020/01/31 04:49:38.1	91.740	0.180	-0.250	0.340
2020/01/31 04:49:38.2	91.740	0.210	-0.310	0.320
2020/01/31 04:49:38.3	91.740	0.230	-0.360	0.300
2020/01/31 04:49:38.4	91.750	0.270	-0.410	0.280
2020/01/31 04:49:38.5	91.750	0.300	-0.460	0.260
2020/01/31 04:49:38.6	91.750	0.330	-0.510	0.240
2020/01/31 04:49:38.7	91.750	0.360	-0.560	0.220
2020/01/31 04:49:38.8	91.750	0.400	-0.600	0.210
2020/01/31 04:49:38.9	91.750	0.430	-0.640	0.200
2020/01/31 04:49:39.0	91.750	0.460	-0.680	0.190
2020/01/31 04:49:39.1	91.750	0.490	-0.700	0.180
2020/01/31 04:49:39.2	91.750	0.510	-0.720	0.180
2020/01/31 04:49:39.3	91.740	0.530	-0.730	0.180
2020/01/31 04:49:39.4	91.730	0.550	-0.730	0.180
2020/01/31 04:49:39.5	91.720	0.560	-0.720	0.190
2020/01/31 04:49:39.6	91.710	0.560	-0.700	0.200
2020/01/31 04:49:39.7	91.700	0.560	-0.670	0.210
2020/01/31 04:49:39.8	91.690	0.560	-0.640	0.230
2020/01/31 04:49:39.9	91.680	0.550	-0.590	0.250
2020/01/31 04:49:40.0	91.670	0.530	-0.540	0.270
2020/01/31 04:49:40.1	91.660	0.510	-0.480	0.290
2020/01/31 04:49:40.2	91.640	0.480	-0.410	0.310
2020/01/31 04:49:40.3	91.630	0.440	-0.340	0.340
2020/01/31 04:49:40.4	91.610	0.400	-0.250	0.360
2020/01/31 04:49:40.5	91.590	0.360	-0.170	0.390
2020/01/31 04:49:40.6	91.580	0.310	-0.080	0.420
2020/01/31 04:49:40.7	91.560	0.250	0.010	0.450
2020/01/31 04:49:40.8	91.540	0.190	0.100	0.470
2020/01/31 04:49:40.9	91.520	0.130	0.190	0.500
2020/01/31 04:49:41.0	91.510	0.070	0.280	0.520
2020/01/31 04:49:41.1	91.490	0.000	0.370	0.550
2020/01/31 04:49:41.2	91.480	-0.070	0.450	0.570
2020/01/31 04:49:41.3	91.460	-0.130	0.530	0.590
2020/01/31 04:49:41.4	91.450	-0.200	0.610	0.610
2020/01/31 04:49:41.5	91.440	-0.270	0.670	0.630
2020/01/31 04:49:41.6	91.420	-0.330	0.720	0.650
2020/01/31 04:49:41.7	91.410	-0.390	0.770	0.660
2020/01/31 04:49:41.8	91.400	-0.450	0.800	0.670
2020/01/31 04:49:41.9	91.390	-0.500	0.830	0.680
2020/01/31 04:49:42.0	91.390	-0.550	0.830	0.690
2020/01/31 04:49:42.1	91.380	-0.590	0.830	0.700
2020/01/31 04:49:42.2	91.380	-0.620	0.810	0.710
2020/01/31 04:49:42.3	91.380	-0.650	0.780	0.710
2020/01/31 04:49:42.4	91.380	-0.670	0.730	0.710
2020/01/31 04:49:42.5	91.380	-0.680	0.660	0.710
2020/01/31 04:49:42.6	91.390	-0.680	0.590	0.700
2020/01/31 04:49:42.7	91.390	-0.670	0.490	0.700
2020/01/31 04:49:42.8	91.400	-0.660	0.390	0.690
2020/01/31 04:49:42.9	91.410	-0.630	0.280	0.680
2020/01/31 04:49:43.0	91.420	-0.600	0.150	0.670
2020/01/31 04:49:43.1	91.430	-0.560	0.020	0.660
2020/01/31 04:49:43.2	91.440	-0.520	-0.120	0.650
2020/01/31 04:49:43.3	91.450	-0.470	-0.260	0.640
2020/01/31 04:49:43.4	91.460	-0.420	-0.400	0.630
2020/01/31 04:49:43.5	91.470	-0.370	-0.540	0.620
2020/01/31 04:49:43.6	91.470	-0.310	-0.670	0.620
2020/01/31 04:49:43.7	91.480	-0.250	-0.800	0.610
2020/01/31 04:49:43.8	91.480	-0.190	-0.920	0.610
2020/01/31 04:49:43.9	91.480	-0.130	-1.030	0.610
2020/01/31 04:49:44.0	91.470	-0.070	-1.130	0.610
2020/01/31 04:49:44.1	91.470	-0.020	-1.220	0.610
2020/01/31 04:49:44.2	91.460	0.030	-1.300	0.620
2020/01/31 04:49:44.3	91.450	0.080	-1.370	0.630
2020/01/31 04:49:44.4	91.440	0.130	-1.420	0.630
2020/01/31 04:49:44.5	91.430	0.170	-1.450	0.640
2020/01/31 04:49:44.6	91.420	0.210	-1.470	0.660
2020/01/31 04:49:44.7	91.400	0.240	-1.480	0.670
2020/01/31 04:49:44.8	91.390	0.260	-1.470	0.690
2020/01/31 04:49:44.9	91.370	0.280	-1.440	0.700
2020/01/31 04:49:45.0	91.350	0.300	-1.400	0.720
2020/01/31 04:49:45.1	91.340	0.310	-1.340	0.750
2020/01/31 04:49:45.2	91.330	0.310	-1.270	0.770
2020/01/31 04:49:45.3	91.310	0.310	-1.190	0.800
2020/01/31 04:49:45.4	91.300	0.300	-1.090	0.820
2020/01/31 04:49:45.5	91.280	0.280	-0.990	0.850
2020/01/31 04:49:45.6	91.270	0.260	-0.880	0.880
2020/01/31 04:49:45.7	91.260	0.240	-0.760	0.900
2020/01/31 04:49:45.8	91.250	0.210	-0.630	0.930
2020/01/31 04:49:45.9	91.240	0.180	-0.500	0.950
2020/01/31 04:49:46.0	91.230	0.150	-0.360	0.970
2020/01/31 04:49:46.1	91.230	0.110	-0.230	0.990
2020/01/31 04:49:46.2	91.220	0.070	-0.090	1.020
2020/01/31 04:49:46.3	91.220	0.030	0.040	1.030
2020/01/31 04:49:46.4	91.210	-0.010	0.170	1.050
2020/01/31 04:49:46.5	91.210	-0.050	0.290	1.060
2020/01/31 04:49:46.6	91.210	-0.100	0.400	1.060
2020/01/31 04:49:46.7	91.210	-0.140	0.510	1.060
2020/01/31 04:49:46.8	91.220	-0.180	0.600	1.060
2020/01/31 04:49:46.9	91.220	-0.210	0.690	1.060
2020/01/31 04:49:47.0	91.220	-0.250	0.760	1.050
2020/01/31 04:49:47.1	91.230	-0.280	0.820	1.040
2020/01/31 04:49:47.2	91.230	-0.310	0.870	1.030
2020/01/31 04:49:47.3	91.240	-0.330	0.910	1.010
2020/01/31 04:49:47.4	91.240	-0.350	0.930	0.990
2020/01/31 04:49:47.5	91.240	-0.370	0.940	0.970
2020/01/31 04:49:47.6	91.250	-0.380	0.930	0.950
2020/01/31 04:49:47.7	91.250	-0.390	0.910	0.920
2020/01/31 04:49:47.8	91.260	-0.390	0.880	0.900
2020/01/31 04:49:47.9	91.260	-0.390	0.840	0.870
2020/01/31 04:49:48.0	91.260	-0.390	0.790	0.840
2020/01/31 04:49:48.1	91.260	-0.380	0.730	0.810
2020/01/31 04:49:48.2	91.260	-0.370	0.660	0.790
2020/01/31 04:49:48.3	91.260	-0.350	0.580	0.760
2020/01/31 04:49:48.4	91.260	-0.330	0.500	0.730
2020/01/31 04:49:48.5	91.260	-0.310	0.410	0.700
2020/01/31 04:49:48.6	91.260	-0.290	0.320	0.670
2020/01/31 04:49:48.7	91.260	-0.260	0.230	0.650
2020/01/31 04:49:48.8	91.260	-0.240	0.130	0.620
2020/01/31 04:49:48.9	91.260	-0.210	0.040	0.590
2020/01/31 04:49:49.0	91.250	-0.180	-0.050	0.570
2020/01/31 04:49:49.1	91.250	-0.150	-0.140	0.540
2020/01/31 04:49:49.2	91.250	-0.120	-0.230	0.520
2020/01/31 04:49:49.3	91.240	-0.090	-0.310	0.490
2020/01/31 04:49:49.4	91.240	-0.060	-0.380	0.480
2020/01/31 04:49:49.5	91.240	-0.030	-0.450	0.460
2020/01/31 04:49:49.6	91.230	-0.010	-0.510	0.440
2020/01/31 04:49:49.7	91.230	0.020	-0.570	0.430
2020/01/31 04:49:49.8	91.230	0.040	-0.620	0.420
2020/01/31 04:49:49.9	91.220	0.060	-0.660	0.410
2020/01/31 04:49:50.0	91.220	0.080	-0.690	0.400
2020/01/31 04:49:50.1	91.220	0.100	-0.710	0.400
2020/01/31 04:49:50.2	91.210	0.120	-0.730	0.400
2020/01/31 04:49:50.3	91.210	0.130	-0.740	0.410
2020/01/31 04:49:50.4	91.200	0.140	-0.740	0.410
2020/01/31 04:49:50.5	91.200	0.150	-0.740	0.420
2020/01/31 04:49:50.6	91.200	0.150	-0.730	0.430
2020/01/31 04:49:50.7	91.190	0.160	-0.720	0.440
2020/01/31 04:49:50.8	91.190	0.160	-0.700	0.460
2020/01/31 04:49:50.9	91.180	0.160	-0.680	0.470
2020/01/31 04:49:51.0	91.180	0.160	-0.660	0.490
2020/01/31 04:49:51.1	91.170	0.150	-0.630	0.510
2020/01/31 04:49:51.2	91.160	0.150	-0.600	0.530
2020/01/31 04:49:51.3	91.160	0.140	-0.570	0.550
2020/01/31 04:49:51.4	91.150	0.130	-0.540	0.570
2020/01/31 04:49:51.5	91.150	0.120	-0.510	0.590
2020/01/31 04:49:51.6	91.140	0.110	-0.480	0.620
2020/01/31 04:49:51.7	91.140	0.100	-0.450	0.640
2020/01/31 04:49:51.8	91.130	0.090	-0.420	0.660
2020/01/31 04:49:51.9	91.130	0.080	-0.400	0.680
2020/01/31 04:49:52.0	91.120	0.070	-0.370	0.700
2020/01/31 04:49:52.1	91.120	0.060	-0.350	0.720
2020/01/31 04:49:52.2	91.110	0.050	-0.320	0.750
2020/01/31 04:49:52.3	91.110	0.040	-0.310	0.770
2020/01/31 04:49:52.4	91.110	0.030	-0.290	0.780
2020/01/31 04:49:52.5	91.110	0.030	-0.280	0.800
2020/01/31 04:49:52.6	91.120	0.020	-0.270	0.820
2020/01/31 04:49:52.7	91.120	0.010	-0.270	0.830
2020/01/31 04:49:52.8	91.120	0.010	-0.270	0.850
2020/01/31 04:49:52.9	91.120	0.010	-0.270	0.860
2020/01/31 04:49:53.0	91.120	0.010	-0.280	0.880
2020/01/31 04:49:53.1	91.120	0.010	-0.290	0.890
2020/01/31 04:49:53.2	91.120	0.020	-0.300	0.910
2020/01/31 04:49:53.3	91.120	0.020	-0.310	0.920
2020/01/31 04:49:53.4	91.120	0.030	-0.320	0.940
2020/01/31 04:49:53.5	91.120	0.030	-0.330	0.950
2020/01/31 04:49:53.6	91.110	0.040	-0.350	0.960
2020/01/31 04:49:53.7	91.110	0.050	-0.360	0.970
2020/01/31 04:49:53.8	91.100	0.060	-0.370	0.980
2020/01/31 04:49:53.9	91.090	0.070	-0.380	0.980
2020/01/31 04:49:54.0	91.090	0.070	-0.390	0.990
2020/01/31 04:49:54.1	91.080	0.080	-0.390	1.000
2020/01/31 04:49:54.2	91.070	0.090	-0.390	1.000
2020/01/31 04:49:54.3	91.060	0.100	-0.390	1.000
2020/01/31 04:49:54.4	91.060	0.110	-0.380	1.000
2020/01/31 04:49:54.5	91.050	0.110	-0.380	1.000
2020/01/31 04:49:54.6	91.050	0.120	-0.370	1.000
2020/01/31 04:49:54.7	91.040	0.120	-0.350	1.000
2020/01/31 04:49:54.8	91.040	0.130	-0.340	1.000
2020/01/31 04:49:54.9	91.040	0.130	-0.320	0.990
2020/01/31 04:49:55.0	91.030	0.130	-0.300	0.990
2020/01/31 04:49:55.1	91.030	0.130	-0.270	0.980
2020/01/31 04:49:55.2	91.030	0.130	-0.240	0.970
2020/01/31 04:49:55.3	91.030	0.130	-0.220	0.970
2020/01/31 04:49:55.4	91.030	0.130	-0.190	0.960
2020/01/31 04:49:55.5	91.030	0.130	-0.170	0.950
2020/01/31 04:49:55.6	91.030	0.120	-0.140	0.940
2020/01/31 04:49:55.7	91.030	0.120	-0.110	0.930
2020/01/31 04:49:55.8	91.040	0.120	-0.090	0.920
2020/01/31 04:49:55.9	91.040	0.110	-0.060	0.910
2020/01/31 04:49:56.0	91.050	0.110	-0.040	0.890
2020/01/31 04:49:56.1	91.050	0.110	-0.020	0.880
2020/01/31 04:49:56.2	91.050	0.100	-0.010	0.870
2020/01/31 04:49:56.3	91.060	0.100	0.010	0.850
2020/01/31 04:49:56.4	91.070	0.100	0.020	0.840
2020/01/31 04:49:56.5	91.070	0.100	0.030	0.820
2020/01/31 04:49:56.6	91.080	0.100	0.040	0.800
2020/01/31 04:49:56.7	91.090	0.100	0.040	0.780
2020/01/31 04:49:56.8	91.100	0.110	0.040	0.760
2020/01/31 04:49:56.9	91.120	0.110	0.040	0.740
2020/01/31 04:49:57.0	91.130	0.120	0.030	0.720
2020/01/31 04:49:57.1	91.140	0.120	0.020	0.700
2020/01/31 04:49:57.2	91.160	0.130	0.010	0.680
2020/01/31 04:49:57.3	91.170	0.130	-0.010	0.650
2020/01/31 04:49:57.4	91.190	0.140	-0.030	0.630
2020/01/31 04:49:57.5	91.210	0.150	-0.050	0.610
2020/01/31 04:49:57.6	91.220	0.160	-0.070	0.590
2020/01/31 04:49:57.7	91.240	0.160	-0.100	0.580
2020/01/31 04:49:57.8	91.250	0.170	-0.120	0.560
2020/01/31 04:49:57.9	91.260	0.180	-0.150	0.550
2020/01/31 04:49:58.0	91.280	0.180	-0.170	0.530
2020/01/31 04:49:58.1	91.290	0.190	-0.200	0.530
2020/01/31 04:49:58.2	91.300	0.190	-0.220	0.520
2020/01/31 04:49:58.3	91.300	0.190	-0.240	0.510
2020/01/31 04:49:58.4	91.310	0.190	-0.260	0.510
2020/01/31 04:49:58.5	91.320	0.190	-0.270	0.500
2020/01/31 04:49:58.6	91.320	0.180	-0.280	0.500
2020/01/31 04:49:58.7	91.330	0.170	-0.290	0.500
2020/01/31 04:49:58.8	91.330	0.170	-0.290	0.490
2020/01/31 04:49:58.9	91.340	0.150	-0.290	0.490
2020/01/31 04:49:59.0	91.340	0.140	-0.290	0.480
2020/01/31 04:49:59.1	91.340	0.130	-0.280	0.480
2020/01/31 04:49:59.2	91.340	0.110	-0.260	0.470
2020/01/31 04:49:59.3	91.330	0.090	-0.250	0.470
2020/01/31 04:49:59.4	91.330	0.070	-0.230	0.460
2020/01/31 04:49:59.5	91.330	0.050	-0.200	0.450
2020/01/31 04:49:59.6	91.330	0.020	-0.180	0.450
2020/01/31 04:49:59.7	91.320	-0.000	-0.150	0.440
2020/01/31 04:49:59.8	91.320	-0.030	-0.120	0.430
2020/01/31 04:49:59.9	91.320	-0.060	-0.090	0.430
2020/01/31 04:50:00.0	91.310	-0.080	-0.060	0.430
2020/01/31 04:50:00.1	91.310	-0.110	-0.030	0.420
2020/01/31 04:50:00.2	91.300	-0.140	0.000	0.420
2020/01/31 04:50:00.3	91.290	-0.160	0.030	0.430
2020/01/31 04:50:00.4	91.290	-0.190	0.060	0.430
2020/01/31 04:50:00.5	91.280	-0.220	0.090	0.440
2020/01/31 04:50:00.6	91.270	-0.240	0.120	0.450
2020/01/31 04:50:00.7	91.260	-0.260	0.140	0.460
2020/01/31 04:50:00.8	91.250	-0.280	0.160	0.480
2020/01/31 04:50:00.9	91.250	-0.300	0.180	0.500
2020/01/31 04:50:01.0	91.240	-0.320	0.190	0.530
2020/01/31 04:50:01.1	91.230	-0.330	0.200	0.550
2020/01/31 04:50:01.2	91.220	-0.340	0.200	0.590
2020/01/31 04:50:01.3	91.200	-0.350	0.200	0.620
2020/01/31 04:50:01.4	91.200	-0.360	0.200	0.650
2020/01/31 04:50:01.5	91.190	-0.370	0.190	0.680
2020/01/31 04:50:01.6	91.180	-0.370	0.170	0.710
2020/01/31 04:50:01.7	91.170	-0.370	0.150	0.740
2020/01/31 04:50:01.8	91.170	-0.370	0.130	0.770
2020/01/31 04:50:01.9	91.160	-0.360	0.090	0.800
2020/01/31 04:50:02.0	91.160	-0.350	0.060	0.820
2020/01/31 04:50:02.1	91.160	-0.340	0.020	0.840
2020/01/31 04:50:02.2	91.170	-0.330	-0.020	0.860
2020/01/31 04:50:02.3	91.170	-0.310	-0.070	0.870
2020/01/31 04:50:02.4	91.180	-0.290	-0.120	0.870
2020/01/31 04:50:02.5	91.190	-0.270	-0.170	0.870
2020/01/31 04:50:02.6	91.200	-0.250	-0.230	0.870
2020/01/31 04:50:02.7	91.210	-0.230	-0.280	0.870
2020/01/31 04:50:02.8	91.220	-0.200	-0.340	0.860
2020/01/31 04:50:02.9	91.240	-0.170	-0.400	0.850
2020/01/31 04:50:03.0	91.250	-0.140	-0.460	0.840
2020/01/31 04:50:03.1	91.270	-0.110	-0.510	0.830
2020/01/31 04:50:03.2	91.290	-0.080	-0.570	0.810
2020/01/31 04:50:03.3	91.310	-0.040	-0.630	0.800
2020/01/31 04:50:03.4	91.320	-0.010	-0.680	0.780
2020/01/31 04:50:03.5	91.340	0.020	-0.730	0.770
2020/01/31 04:50:03.6	91.360	0.060	-0.780	0.760
2020/01/31 04:50:03.7	91.370	0.090	-0.820	0.750
2020/01/31 04:50:03.8	91.390	0.130	-0.860	0.740
2020/01/31 04:50:03.9	91.400	0.160	-0.890	0.740
2020/01/31 04:50:04.0	91.420	0.190	-0.920	0.740
2020/01/31 04:50:04.1	91.430	0.220	-0.940	0.740
2020/01/31 04:50:04.2	91.440	0.240	-0.960	0.740
2020/01/31 04:50:04.3	91.450	0.270	-0.970	0.750
2020/01/31 04:50:04.4	91.450	0.290	-0.970	0.750
2020/01/31 04:50:04.5	91.460	0.310	-0.970	0.760
2020/01/31 04:50:04.6	91.460	0.320	-0.950	0.770
2020/01/31 04:50:04.7	91.470	0.330	-0.930	0.780
2020/01/31 04:50:04.8	91.470	0.340	-0.910	0.790
2020/01/31 04:50:04.9	91.470	0.340	-0.880	0.800
2020/01/31 04:50:05.0	91.470	0.340	-0.840	0.810
2020/01/31 04:50:05.1	91.470	0.340	-0.790	0.820
2020/01/31 04:50:05.2	91.460	0.330	-0.740	0.840
2020/01/31 04:50:05.3	91.460	0.320	-0.690	0.850
2020/01/31 04:50:05.4	91.460	0.310	-0.630	0.870
2020/01/31 04:50:05.5	91.450	0.290	-0.570	0.880
2020/01/31 04:50:05.6	91.440	0.270	-0.510	0.890
2020/01/31 04:50:05.7	91.440	0.250	-0.450	0.910
2020/01/31 04:50:05.8	91.430	0.220	-0.390	0.920
2020/01/31 04:50:05.9	91.430	0.190	-0.330	0.930
2020/01/31 04:50:06.0	91.420	0.160	-0.260	0.940
2020/01/31 04:50:06.1	91.420	0.130	-0.210	0.950
2020/01/31 04:50:06.2	91.400	0.100	-0.150	0.950
2020/01/31 04:50:06.3	91.400	0.070	-0.090	0.950
2020/01/31 04:50:06.4	91.400	0.040	-0.040	0.960
2020/01/31 04:50:06.5	91.390	0.000	0.010	0.960
2020/01/31 04:50:06.6	91.390	-0.030	0.050	0.950
2020/01/31 04:50:06.7	91.390	-0.060	0.090	0.950
2020/01/31 04:50:06.8	91.390	-0.090	0.130	0.940
2020/01/31 04:50:06.9	91.390	-0.120	0.160	0.930
2020/01/31 04:50:07.0	91.390	-0.150	0.190	0.910
2020/01/31 04:50:07.1	91.390	-0.170	0.210	0.900
2020/01/31 04:50:07.2	91.400	-0.200	0.230	0.880
2020/01/31 04:50:07.3	91.400	-0.220	0.250	0.860
2020/01/31 04:50:07.4	91.400	-0.240	0.270	0.830
2020/01/31 04:50:07.5	91.410	-0.270	0.280	0.810
2020/01/31 04:50:07.6	91.410	-0.290	0.300	0.780
2020/01/31 04:50:07.7	91.420	-0.300	0.310	0.750
2020/01/31 04:50:07.8	91.420	-0.320	0.320	0.720
2020/01/31 04:50:07.9	91.420	-0.340	0.330	0.690
2020/01/31 04:50:08.0	91.420	-0.350	0.330	0.660
2020/01/31 04:50:08.1	91.420	-0.360	0.340	0.630
2020/01/31 04:50:08.2	91.420	-0.370	0.340	0.590
2020/01/31 04:50:08.3	91.420	-0.380	0.350	0.560
2020/01/31 04:50:08.4	91.420	-0.390	0.340	0.530
2020/01/31 04:50:08.5	91.420	-0.390	0.340	0.500
2020/01/31 04:50:08.6	91.410	-0.400	0.340	0.470
2020/01/31 04:50:08.7	91.410	-0.400	0.330	0.440
2020/01/31 04:50:08.8	91.400	-0.390	0.320	0.410
2020/01/31 04:50:08.9	91.390	-0.390	0.300	0.380
2020/01/31 04:50:09.0	91.380	-0.380	0.290	0.360
2020/01/31 04:50:09.1	91.370	-0.370	0.270	0.340
2020/01/31 04:50:09.2	91.360	-0.360	0.240	0.320
2020/01/31 04:50:09.3	91.350	-0.350	0.210	0.300
2020/01/31 04:50:09.4	91.340	-0.330	0.180	0.280
2020/01/31 04:50:09.5	91.330	-0.310	0.140	0.260
2020/01/31 04:50:09.6	91.320	-0.280	0.100	0.240
2020/01/31 04:50:09.7	91.310	-0.260	0.060	0.220
2020/01/31 04:50:09.8	91.300	-0.230	0.010	0.210
2020/01/31 04:50:09.9	91.290	-0.190	-0.040	0.190
2020/01/31 04:50:10.0	91.280	-0.160	-0.100	0.180
2020/01/31 04:50:10.1	91.270	-0.120	-0.160	0.170
2020/01/31 04:50:10.2	91.270	-0.080	-0.220	0.160
2020/01/31 04:50:10.3	91.270	-0.040	-0.280	0.150
2020/01/31 04:50:10.4	91.260	0.010	-0.340	0.140
2020/01/31 04:50:10.5	91.260	0.060	-0.410	0.130
2020/01/31 04:50:10.6	91.260	0.100	-0.470	0.120
2020/01/31 04:50:10.7	91.260	0.150	-0.530	0.120
2020/01/31 04:50:10.8	91.260	0.200	-0.600	0.110
2020/01/31 04:50:10.9	91.260	0.250	-0.660	0.110
2020/01/31 04:50:11.0	91.260	0.300	-0.710	0.110
2020/01/31 04:50:11.1	91.260	0.350	-0.770	0.110
2020/01/31 04:50:11.2	91.280	0.390	-0.820	0.110
2020/01/31 04:50:11.3	91.280	0.440	-0.870	0.120
2020/01/31 04:50:11.4	91.290	0.480	-0.900	0.120
2020/01/31 04:50:11.5	91.290	0.510	-0.940	0.130
2020/01/31 04:50:11.6	91.300	0.550	-0.960	0.140
2020/01/31 04:50:11.7	91.310	0.580	-0.980	0.150
2020/01/31 04:50:11.8	91.320	0.610	-1.000	0.160
2020/01/31 04:50:11.9	91.330	0.630	-1.000	0.170
2020/01/31 04:50:12.0	91.340	0.650	-1.000	0.180
2020/01/31 04:50:12.1	91.360	0.660	-0.990	0.200
2020/01/31 04:50:12.2	91.370	0.670	-0.970	0.220
2020/01/31 04:50:12.3	91.380	0.670	-0.940	0.240
2020/01/31 04:50:12.4	91.400	0.660	-0.910	0.250
2020/01/31 04:50:12.5	91.410	0.660	-0.870	0.270
2020/01/31 04:50:12.6	91.420	0.640	-0.820	0.290
2020/01/31 04:50:12.7	91.440	0.620	-0.760	0.310
2020/01/31 04:50:12.8	91.450	0.600	-0.700	0.330
2020/01/31 04:50:12.9	91.460	0.570	-0.640	0.350
2020/01/31 04:50:13.0	91.480	0.530	-0.570	0.370
2020/01/31 04:50:13.1	91.490	0.490	-0.490	0.390
2020/01/31 04:50:13.2	91.500	0.450	-0.410	0.400
2020/01/31 04:50:13.3	91.510	0.400	-0.320	0.420
2020/01/31 04:50:13.4	91.520	0.350	-0.240	0.440
2020/01/31 04:50:13.5	91.530	0.300	-0.150	0.460
2020/01/31 04:50:13.6	91.540	0.240	-0.060	0.490
2020/01/31 04:50:13.7	91.550	0.190	0.030	0.510
2020/01/31 04:50:13.8	91.550	0.130	0.120	0.530
2020/01/31 04:50:13.9	91.560	0.070	0.210	0.550
2020/01/31 04:50:14.0	91.560	0.010	0.300	0.580
2020/01/31 04:50:14.1	91.560	-0.050	0.390	0.610
2020/01/31 04:50:14.2	91.570	-0.110	0.470	0.640
2020/01/31 04:50:14.3	91.570	-0.160	0.550	0.670
2020/01/31 04:50:14.4	91.570	-0.220	0.620	0.700
2020/01/31 04:50:14.5	91.570	-0.270	0.690	0.730
2020/01/31 04:50:14.6	91.560	-0.320	0.750	0.760
2020/01/31 04:50:14.7	91.560	-0.370	0.800	0.800
2020/01/31 04:50:14.8	91.560	-0.410	0.850	0.830
2020/01/31 04:50:14.9	91.560	-0.450	0.890	0.860
2020/01/31 04:50:15.0	91.550	-0.490	0.910	0.900
2020/01/31 04:50:15.1	91.550	-0.520	0.930	0.930
2020/01/31 04:50:15.2	91.550	-0.550	0.940	0.960
2020/01/31 04:50:15.3	91.550	-0.570	0.940	0.990
2020/01/31 04:50:15.4	91.560	-0.580	0.930	1.010
2020/01/31 04:50:15.5	91.560	-0.600	0.900	1.030
2020/01/31 04:50:15.6	91.560	-0.600	0.860	1.050
2020/01/31 04:50:15.7	91.570	-0.600	0.820	1.060
2020/01/31 04:50:15.8	91.580	-0.600	0.760	1.080
2020/01/31 04:50:15.9	91.580	-0.590	0.690	1.080
2020/01/31 04:50:16.0	91.590	-0.570	0.610	1.090
2020/01/31 04:50:16.1	91.600	-0.550	0.520	1.090
2020/01/31 04:50:16.2	91.620	-0.520	0.420	1.080
2020/01/31 04:50:16.3	91.630	-0.490	0.310	1.080
2020/01/31 04:50:16.4	91.640	-0.450	0.200	1.070
2020/01/31 04:50:16.5	91.660	-0.410	0.080	1.060
2020/01/31 04:50:16.6	91.670	-0.370	-0.050	1.040
2020/01/31 04:50:16.7	91.690	-0.320	-0.180	1.030
2020/01/31 04:50:16.8	91.700	-0.270	-0.310	1.010
2020/01/31 04:50:16.9	91.720	-0.210	-0.440	0.990
2020/01/31 04:50:17.0	91.730	-0.150	-0.580	0.970
2020/01/31 04:50:17.1	91.740	-0.090	-0.710	0.950
2020/01/31 04:50:17.2	91.760	-0.030	-0.850	0.930
2020/01/31 04:50:17.3	91.770	0.030	-0.980	0.910
2020/01/31 04:50:17.4	91.770	0.090	-1.100	0.900
2020/01/31 04:50:17.5	91.780	0.150	-1.220	0.880
2020/01/31 04:50:17.6	91.780	0.210	-1.320	0.870
2020/01/31 04:50:17.7	91.780	0.260	-1.420	0.870
2020/01/31 04:50:17.8	91.780	0.320	-1.500	0.860
2020/01/31 04:50:17.9	91.770	0.370	-1.570	0.850
2020/01/31 04:50:18.0	91.770	0.410	-1.630	0.850
2020/01/31 04:50:18.1	91.750	0.460	-1.680	0.850
2020/01/31 04:50:18.2	91.740	0.490	-1.700	0.850
2020/01/31 04:50:18.3	91.730	0.520	-1.710	0.850
2020/01/31 04:50:18.4	91.710	0.550	-1.710	0.850
2020/01/31 04:50:18.5	91.690	0.560	-1.690	0.850
2020/01/31 04:50:18.6	91.670	0.580	-1.660	0.860
2020/01/31 04:50:18.7	91.650	0.580	-1.620	0.860
2020/01/31 04:50:18.8	91.630	0.580	-1.550	0.860
2020/01/31 04:50:18.9	91.600	0.570	-1.480	0.870
2020/01/31 04:50:19.0	91.580	0.560	-1.390	0.870
2020/01/31 04:50:19.1	91.560	0.540	-1.290	0.880
2020/01/31 04:50:19.2	91.530	0.510	-1.190	0.880
2020/01/31 04:50:19.3	91.500	0.480	-1.070	0.880
2020/01/31 04:50:19.4	91.480	0.440	-0.940	0.890
2020/01/31 04:50:19.5	91.460	0.400	-0.810	0.900
2020/01/31 04:50:19.6	91.440	0.350	-0.680	0.910
2020/01/31 04:50:19.7	91.420	0.300	-0.540	0.920
2020/01/31 04:50:19.8	91.410	0.250	-0.410	0.920
2020/01/31 04:50:19.9	91.390	0.190	-0.270	0.930
2020/01/31 04:50:20.0	91.370	0.140	-0.140	0.940
2020/01/31 04:50:20.1	91.360	0.080	-0.010	0.950
2020/01/31 04:50:20.2	91.350	0.020	0.130	0.960
2020/01/31 04:50:20.3	91.340	-0.040	0.250	0.970
2020/01/31 04:50:20.4	91.330	-0.090	0.360	0.970
2020/01/31 04:50:20.5	91.320	-0.150	0.460	0.980
2020/01/31 04:50:20.6	91.320	-0.200	0.550	0.980
2020/01/31 04:50:20.7	91.320	-0.250	0.630	0.980
2020/01/31 04:50:20.8	91.310	-0.300	0.700	0.970
2020/01/31 04:50:20.9	91.310	-0.340	0.760	0.970
2020/01/31 04:50:21.0	91.310	-0.380	0.810	0.960
2020/01/31 04:50:21.1	91.310	-0.420	0.840	0.950
2020/01/31 04:50:21.2	91.300	-0.450	0.860	0.940
2020/01/31 04:50:21.3	91.310	-0.470	0.870	0.920
2020/01/31 04:50:21.4	91.310	-0.490	0.870	0.900
2020/01/31 04:50:21.5	91.310	-0.510	0.860	0.880
2020/01/31 04:50:21.6	91.310	-0.510	0.830	0.860
2020/01/31 04:50:21.7	91.320	-0.520	0.800	0.830
2020/01/31 04:50:21.8	91.320	-0.520	0.750	0.800
2020/01/31 04:50:21.9	91.320	-0.510	0.700	0.770
2020/01/31 04:50:22.0	91.320	-0.500	0.640	0.740
2020/01/31 04:50:22.1	91.330	-0.480	0.570	0.710
2020/01/31 04:50:22.2	91.330	-0.460	0.500	0.670
2020/01/31 04:50:22.3	91.330	-0.430	0.420	0.640
2020/01/31 04:50:22.4	91.340	-0.410	0.340	0.600
2020/01/31 04:50:22.5	91.340	-0.380	0.260	0.560
2020/01/31 04:50:22.6	91.350	-0.340	0.170	0.530
2020/01/31 04:50:22.7	91.350	-0.310	0.090	0.490
2020/01/31 04:50:22.8	91.360	-0.270	0.010	0.450
2020/01/31 04:50:22.9	91.370	-0.230	-0.070	0.420
2020/01/31 04:50:23.0	91.380	-0.200	-0.140	0.390
2020/01/31 04:50:23.1	91.390	-0.160	-0.210	0.350
2020/01/31 04:50:23.2	91.400	-0.120	-0.280	0.330
2020/01/31 04:50:23.3	91.410	-0.090	-0.340	0.300
2020/01/31 04:50:23.4	91.420	-0.050	-0.390	0.270
2020/01/31 04:50:23.5	91.430	-0.020	-0.440	0.250
2020/01/31 04:50:23.6	91.440	0.010	-0.480	0.240
2020/01/31 04:50:23.7	91.450	0.040	-0.510	0.220
2020/01/31 04:50:23.8	91.470	0.060	-0.540	0.210
2020/01/31 04:50:23.9	91.480	0.080	-0.560	0.200
2020/01/31 04:50:24.0	91.490	0.100	-0.570	0.200
2020/01/31 04:50:24.1	91.500	0.110	-0.570	0.190
2020/01/31 04:50:24.2	91.500	0.120	-0.560	0.200
2020/01/31 04:50:24.3	91.510	0.130	-0.550	0.200
2020/01/31 04:50:24.4	91.520	0.130	-0.530	0.210
2020/01/31 04:50:24.5	91.520	0.130	-0.510	0.220
2020/01/31 04:50:24.6	91.530	0.120	-0.470	0.240
2020/01/31 04:50:24.7	91.530	0.110	-0.440	0.260
2020/01/31 04:50:24.8	91.540	0.100	-0.390	0.280
2020/01/31 04:50:24.9	91.540	0.080	-0.350	0.300
2020/01/31 04:50:25.0	91.540	0.060	-0.290	0.320
2020/01/31 04:50:25.1	91.550	0.040	-0.240	0.340
2020/01/31 04:50:25.2	91.550	0.020	-0.180	0.370
2020/01/31 04:50:25.3	91.550	-0.010	-0.120	0.400
2020/01/31 04:50:25.4	91.560	-0.040	-0.060	0.420
2020/01/31 04:50:25.5	91.560	-0.070	0.000	0.440
2020/01/31 04:50:25.6	91.570	-0.100	0.060	0.470
2020/01/31 04:50:25.7	91.570	-0.130	0.120	0.490
2020/01/31 04:50:25.8	91.580	-0.160	0.180	0.510
2020/01/31 04:50:25.9	91.580	-0.190	0.230	0.530
2020/01/31 04:50:26.0	91.590	-0.230	0.280	0.540
2020/01/31 04:50:26.1	91.600	-0.260	0.330	0.560
2020/01/31 04:50:26.2	91.610	-0.290	0.370	0.570
2020/01/31 04:50:26.3	91.610	-0.310	0.400	0.570
2020/01/31 04:50:26.4	91.620	-0.340	0.430	0.580
2020/01/31 04:50:26.5	91.630	-0.360	0.450	0.580
2020/01/31 04:50:26.6	91.640	-0.380	0.460	0.580
2020/01/31 04:50:26.7	91.660	-0.390	0.460	0.580
2020/01/31 04:50:26.8	91.670	-0.410	0.460	0.580
2020/01/31 04:50:26.9	91.680	-0.410	0.440	0.570
2020/01/31 04:50:27.0	91.690	-0.420	0.410	0.560
2020/01/31 04:50:27.1	91.710	-0.410	0.380	0.550
2020/01/31 04:50:27.2	91.720	-0.410	0.330	0.550
2020/01/31 04:50:27.3	91.730	-0.390	0.280	0.540
2020/01/31 04:50:27.4	91.740	-0.370	0.210	0.530
2020/01/31 04:50:27.5	91.750	-0.350	0.140	0.520
2020/01/31 04:50:27.6	91.760	-0.320	0.050	0.510
2020/01/31 04:50:27.7	91.770	-0.280	-0.040	0.510
2020/01/31 04:50:27.8	91.780	-0.240	-0.130	0.500
2020/01/31 04:50:27.9	91.790	-0.200	-0.230	0.500
2020/01/31 04:50:28.0	91.800	-0.150	-0.340	0.500
2020/01/31 04:50:28.1	91.800	-0.090	-0.450	0.500
2020/01/31 04:50:28.2	91.820	-0.040	-0.560	0.500
2020/01/31 04:50:28.3	91.820	0.020	-0.670	0.510
2020/01/31 04:50:28.4	91.820	0.090	-0.780	0.520
2020/01/31 04:50:28.5	91.820	0.150	-0.880	0.530
2020/01/31 04:50:28.6	91.810	0.210	-0.980	0.550
2020/01/31 04:50:28.7	91.800	0.270	-1.070	0.560
2020/01/31 04:50:28.8	91.790	0.330	-1.150	0.580
2020/01/31 04:50:28.9	91.780	0.390	-1.220	0.600
2020/01/31 04:50:29.0	91.760	0.450	-1.280	0.610
2020/01/31 04:50:29.1	91.740	0.500	-1.330	0.630
2020/01/31 04:50:29.2	91.730	0.550	-1.370	0.650
2020/01/31 04:50:29.3	91.700	0.590	-1.390	0.670
2020/01/31 04:50:29.4	91.680	0.630	-1.400	0.690
2020/01/31 04:50:29.5	91.650	0.660	-1.390	0.700
2020/01/31 04:50:29.6	91.630	0.690	-1.370	0.720
2020/01/31 04:50:29.7	91.600	0.710	-1.350	0.730
2020/01/31 04:50:29.8	91.570	0.720	-1.300	0.740
2020/01/31 04:50:29.9	91.550	0.730	-1.250	0.750
2020/01/31 04:50:30.0	91.520	0.730	-1.190	0.770
2020/01/31 04:50:30.1	91.490	0.730	-1.120	0.780
2020/01/31 04:50:30.2	91.470	0.720	-1.020	0.790
2020/01/31 04:50:30.3	91.440	0.710	-0.940	0.800
2020/01/31 04:50:30.4	91.410	0.690	-0.840	0.810
2020/01/31 04:50:30.5	91.380	0.660	-0.740	0.820
2020/01/31 04:50:30.6	91.350	0.630	-0.640	0.830
2020/01/31 04:50:30.7	91.330	0.600	-0.530	0.840
2020/01/31 04:50:30.8	91.300	0.560	-0.430	0.840
2020/01/31 04:50:30.9	91.280	0.520	-0.320	0.850
2020/01/31 04:50:31.0	91.260	0.480	-0.220	0.860
2020/01/31 04:50:31.1	91.250	0.440	-0.120	0.860
2020/01/31 04:50:31.2	91.230	0.400	-0.030	0.860
2020/01/31 04:50:31.3	91.220	0.350	0.050	0.860
2020/01/31 04:50:31.4	91.210	0.310	0.130	0.850
2020/01/31 04:50:31.5	91.210	0.270	0.200	0.850
2020/01/31 04:50:31.6	91.200	0.230	0.260	0.840
2020/01/31 04:50:31.7	91.200	0.190	0.310	0.830
2020/01/31 04:50:31.8	91.200	0.160	0.360	0.820
2020/01/31 04:50:31.9	91.210	0.130	0.390	0.810
2020/01/31 04:50:32.0	91.210	0.100	0.410	0.800
2020/01/31 04:50:32.1	91.220	0.070	0.430	0.780
2020/01/31 04:50:32.2	91.220	0.040	0.440	0.770
2020/01/31 04:50:32.3	91.220	0.020	0.430	0.750
2020/01/31 04:50:32.4	91.230	-0.000	0.430	0.730
2020/01/31 04:50:32.5	91.240	-0.020	0.410	0.700
2020/01/31 04:50:32.6	91.240	-0.040	0.390	0.680
2020/01/31 04:50:32.7	91.250	-0.060	0.360	0.650
2020/01/31 04:50:32.8	91.250	-0.070	0.330	0.630
2020/01/31 04:50:32.9	91.250	-0.080	0.290	0.600
2020/01/31 04:50:33.0	91.260	-0.090	0.250	0.570
2020/01/31 04:50:33.1	91.260	-0.100	0.200	0.540
2020/01/31 04:50:33.2	91.250	-0.100	0.150	0.510
2020/01/31 04:50:33.3	91.250	-0.100	0.090	0.480
2020/01/31 04:50:33.4	91.250	-0.110	0.040	0.450
2020/01/31 04:50:33.5	91.240	-0.110	-0.010	0.430
2020/01/31 04:50:33.6	91.230	-0.110	-0.060	0.410
2020/01/31 04:50:33.7	91.230	-0.100	-0.110	0.390
2020/01/31 04:50:33.8	91.220	-0.100	-0.150	0.370
2020/01/31 04:50:33.9	91.210	-0.100	-0.190	0.360
2020/01/31 04:50:34.0	91.200	-0.100	-0.230	0.350
2020/01/31 04:50:34.1	91.190	-0.100	-0.260	0.340
2020/01/31 04:50:34.2	91.180	-0.090	-0.280	0.340
2020/01/31 04:50:34.3	91.170	-0.090	-0.310	0.350
2020/01/31 04:50:34.4	91.160	-0.090	-0.320	0.350
2020/01/31 04:50:34.5	91.150	-0.090	-0.330	0.370
2020/01/31 04:50:34.6	91.140	-0.090	-0.330	0.380
2020/01/31 04:50:34.7	91.130	-0.090	-0.330	0.400
2020/01/31 04:50:34.8	91.120	-0.100	-0.320	0.430
2020/01/31 04:50:34.9	91.110	-0.100	-0.310	0.460
2020/01/31 04:50:35.0	91.110	-0.110	-0.290	0.490
2020/01/31 04:50:35.1	91.100	-0.110	-0.270	0.520
2020/01/31 04:50:35.2	91.100	-0.120	-0.250	0.550
2020/01/31 04:50:35.3	91.100	-0.130	-0.230	0.580
2020/01/31 04:50:35.4	91.100	-0.140	-0.200	0.620
2020/01/31 04:50:35.5	91.100	-0.150	-0.170	0.650
2020/01/31 04:50:35.6	91.100	-0.160	-0.140	0.690
2020/01/31 04:50:35.7	91.100	-0.180	-0.110	0.720
2020/01/31 04:50:35.8	91.100	-0.190	-0.080	0.750
2020/01/31 04:50:35.9	91.110	-0.200	-0.050	0.780
2020/01/31 04:50:36.0	91.110	-0.210	-0.030	0.810
2020/01/31 04:50:36.1	91.120	-0.220	-0.010	0.830
2020/01/31 04:50:36.2	91.130	-0.240	0.010	0.860
2020/01/31 04:50:36.3	91.130	-0.250	0.030	0.880
2020/01/31 04:50:36.4	91.140	-0.260	0.040	0.890
2020/01/31 04:50:36.5	91.150	-0.270	0.040	0.900
2020/01/31 04:50:36.6	91.160	-0.280	0.040	0.910
2020/01/31 04:50:36.7	91.170	-0.280	0.040	0.910
2020/01/31 04:50:36.8	91.180	-0.290	0.040	0.910
2020/01/31 04:50:36.9	91.200	-0.300	0.030	0.910
2020/01/31 04:50:37.0	91.210	-0.310	0.020	0.900
2020/01/31 04:50:37.1	91.230	-0.310	0.010	0.890
2020/01/31 04:50:37.2	91.250	-0.320	-0.010	0.870
2020/01/31 04:50:37.3	91.270	-0.320	-0.030	0.850
2020/01/31 04:50:37.4	91.280	-0.330	-0.040	0.830
2020/01/31 04:50:37.5	91.300	-0.330	-0.060	0.810
2020/01/31 04:50:37.6	91.320	-0.330	-0.070	0.790
2020/01/31 04:50:37.7	91.340	-0.330	-0.090	0.770
2020/01/31 04:50:37.8	91.360	-0.330	-0.100	0.750
2020/01/31 04:50:37.9	91.380	-0.330	-0.110	0.730
2020/01/31 04:50:38.0	91.400	-0.330	-0.120	0.710
2020/01/31 04:50:38.1	91.420	-0.330	-0.130	0.700
2020/01/31 04:50:38.2	91.430	-0.330	-0.140	0.680
2020/01/31 04:50:38.3	91.450	-0.330	-0.150	0.670
2020/01/31 04:50:38.4	91.470	-0.320	-0.150	0.660
2020/01/31 04:50:38.5	91.480	-0.320	-0.160	0.660
2020/01/31 04:50:38.6	91.500	-0.310	-0.160	0.660
2020/01/31 04:50:38.7	91.510	-0.310	-0.160	0.660
2020/01/31 04:50:38.8	91.520	-0.300	-0.160	0.660
2020/01/31 04:50:38.9	91.540	-0.290	-0.160	0.670
2020/01/31 04:50:39.0	91.550	-0.280	-0.160	0.670
2020/01/31 04:50:39.1	91.560	-0.270	-0.160	0.680
2020/01/31 04:50:39.2	91.580	-0.260	-0.160	0.690
2020/01/31 04:50:39.3	91.590	-0.240	-0.160	0.700
2020/01/31 04:50:39.4	91.600	-0.230	-0.160	0.710
2020/01/31 04:50:39.5	91.610	-0.220	-0.160	0.720
2020/01/31 04:50:39.6	91.620	-0.200	-0.160	0.720
2020/01/31 04:50:39.7	91.630	-0.180	-0.160	0.730
2020/01/31 04:50:39.8	91.640	-0.170	-0.160	0.740
2020/01/31 04:50:39.9	91.650	-0.150	-0.160	0.740
2020/01/31 04:50:40.0	91.650	-0.130	-0.170	0.750
2020/01/31 04:50:40.1	91.660	-0.110	-0.170	0.750
2020/01/31 04:50:40.2	91.670	-0.090	-0.170	0.750
2020/01/31 04:50:40.3	91.680	-0.070	-0.180	0.760
2020/01/31 04:50:40.4	91.690	-0.050	-0.180	0.760
2020/01/31 04:50:40.5	91.690	-0.040	-0.190	0.770
2020/01/31 04:50:40.6	91.700	-0.020	-0.200	0.780
2020/01/31 04:50:40.7	91.700	0.000	-0.210	0.780
2020/01/31 04:50:40.8	91.700	0.020	-0.210	0.790
2020/01/31 04:50:40.9	91.700	0.040	-0.220	0.800
2020/01/31 04:50:41.0	91.700	0.050	-0.230	0.810
2020/01/31 04:50:41.1	91.690	0.070	-0.250	0.820
2020/01/31 04:50:41.2	91.690	0.090	-0.260	0.830
2020/01/31 04:50:41.3	91.680	0.100	-0.280	0.840
2020/01/31 04:50:41.4	91.670	0.110	-0.290	0.850
2020/01/31 04:50:41.5	91.660	0.130	-0.310	0.860
2020/01/31 04:50:41.6	91.650	0.140	-0.330	0.860
2020/01/31 04:50:41.7	91.640	0.150	-0.350	0.870
2020/01/31 04:50:41.8	91.630	0.160	-0.370	0.870
2020/01/31 04:50:41.9	91.620	0.170	-0.390	0.880
2020/01/31 04:50:42.0	91.610	0.180	-0.420	0.880
2020/01/31 04:50:42.1	91.590	0.190	-0.450	0.880
2020/01/31 04:50:42.2	91.580	0.200	-0.470	0.880
2020/01/31 04:50:42.3	91.570	0.210	-0.500	0.880
2020/01/31 04:50:42.4	91.550	0.220	-0.530	0.870
2020/01/31 04:50:42.5	91.540	0.230	-0.560	0.870
2020/01/31 04:50:42.6	91.530	0.240	-0.590	0.870
2020/01/31 04:50:42.7	91.520	0.250	-0.630	0.860
2020/01/31 04:50:42.8	91.500	0.260	-0.650	0.860
2020/01/31 04:50:42.9	91.490	0.270	-0.680	0.860
2020/01/31 04:50:43.0	91.480	0.270	-0.710	0.850
2020/01/31 04:50:43.1	91.460	0.280	-0.740	0.850
2020/01/31 04:50:43.2	91.440	0.290	-0.760	0.850
2020/01/31 04:50:43.3	91.430	0.300	-0.780	0.850
2020/01/31 04:50:43.4	91.410	0.310	-0.800	0.850
2020/01/31 04:50:43.5	91.390	0.320	-0.810	0.850
2020/01/31 04:50:43.6	91.370	0.330	-0.820	0.850
2020/01/31 04:50:43.7	91.350	0.330	-0.820	0.850
2020/01/31 04:50:43.8	91.330	0.340	-0.820	0.860
2020/01/31 04:50:43.9	91.310	0.350	-0.810	0.860
2020/01/31 04:50:44.0	91.290	0.350	-0.800	0.860
2020/01/31 04:50:44.1	91.270	0.350	-0.770	0.860
2020/01/31 04:50:44.2	91.260	0.350	-0.750	0.860
2020/01/31 04:50:44.3	91.240	0.350	-0.710	0.860
2020/01/31 04:50:44.4	91.220	0.350	-0.670	0.850
2020/01/31 04:50:44.5	91.210	0.350	-0.620	0.850
2020/01/31 04:50:44.6	91.190	0.340	-0.560	0.840
2020/01/31 04:50:44.7	91.180	0.340	-0.510	0.830
2020/01/31 04:50:44.8	91.170	0.330	-0.440	0.820
2020/01/31 04:50:44.9	91.160	0.320	-0.370	0.800
2020/01/31 04:50:45.0	91.150	0.310	-0.300	0.790
2020/01/31 04:50:45.1	91.140	0.290	-0.230	0.770
2020/01/31 04:50:45.2	91.140	0.280	-0.150	0.750
2020/01/31 04:50:45.3	91.140	0.260	-0.080	0.730
2020/01/31 04:50:45.4	91.150	0.240	-0.010	0.700
2020/01/31 04:50:45.5	91.150	0.230	0.060	0.680
2020/01/31 04:50:45.6	91.160	0.210	0.120	0.650
2020/01/31 04:50:45.7	91.180	0.190	0.180	0.630
2020/01/31 04:50:45.8	91.190	0.170	0.240	0.600
2020/01/31 04:50:45.9	91.210	0.160	0.280	0.580
2020/01/31 04:50:46.0	91.230	0.140	0.320	0.550
2020/01/31 04:50:46.1	91.250	0.130	0.360	0.530
2020/01/31 04:50:46.2	91.290	0.110	0.380	0.510
2020/01/31 04:50:46.3	91.310	0.100	0.390	0.480
2020/01/31 04:50:46.4	91.340	0.090	0.400	0.460
2020/01/31 04:50:46.5	91.370	0.090	0.400	0.450
2020/01/31 04:50:46.6	91.400	0.080	0.380	0.430
2020/01/31 04:50:46.7	91.430	0.080	0.360	0.420
2020/01/31 04:50:46.8	91.460	0.070	0.340	0.410
2020/01/31 04:50:46.9	91.490	0.070	0.300	0.410
2020/01/31 04:50:47.0	91.520	0.070	0.260	0.400
2020/01/31 04:50:47.1	91.550	0.080	0.220	0.400
2020/01/31 04:50:47.2	91.580	0.080	0.160	0.400
2020/01/31 04:50:47.3	91.600	0.090	0.110	0.400
2020/01/31 04:50:47.4	91.620	0.090	0.060	0.410
2020/01/31 04:50:47.5	91.640	0.090	0.000	0.410
2020/01/31 04:50:47.6	91.660	0.100	-0.050	0.410
2020/01/31 04:50:47.7	91.670	0.100	-0.110	0.420
2020/01/31 04:50:47.8	91.680	0.110	-0.160	0.420
2020/01/31 04:50:47.9	91.690	0.110	-0.210	0.430
2020/01/31 04:50:48.0	91.700	0.110	-0.250	0.430
2020/01/31 04:50:48.1	91.710	0.110	-0.290	0.440
2020/01/31 04:50:48.2	91.700	0.110	-0.330	0.440
2020/01/31 04:50:48.3	91.700	0.100	-0.360	0.440
2020/01/31 04:50:48.4	91.700	0.090	-0.380	0.440
2020/01/31 04:50:48.5	91.700	0.080	-0.390	0.450
2020/01/31 04:50:48.6	91.700	0.070	-0.400	0.460
2020/01/31 04:50:48.7	91.690	0.060	-0.400	0.470
2020/01/31 04:50:48.8	91.690	0.040	-0.390	0.480
2020/01/31 04:50:48.9	91.680	0.020	-0.380	0.490
2020/01/31 04:50:49.0	91.670	0.000	-0.360	0.510
2020/01/31 04:50:49.1	91.660	-0.020	-0.340	0.540
2020/01/31 04:50:49.2	91.650	-0.040	-0.300	0.560
2020/01/31 04:50:49.3	91.640	-0.070	-0.270	0.590
2020/01/31 04:50:49.4	91.630	-0.100	-0.230	0.630
2020/01/31 04:50:49.5	91.620	-0.120	-0.190	0.660
2020/01/31 04:50:49.6	91.610	-0.150	-0.140	0.700
2020/01/31 04:50:49.7	91.610	-0.180	-0.100	0.750
2020/01/31 04:50:49.8	91.600	-0.210	-0.050	0.790
2020/01/31 04:50:49.9	91.590	-0.240	-0.010	0.840
2020/01/31 04:50:50.0	91.590	-0.270	0.040	0.880
2020/01/31 04:50:50.1	91.580	-0.300	0.080	0.920
2020/01/31 04:50:50.2	91.580	-0.320	0.110	0.970
2020/01/31 04:50:50.3	91.580	-0.340	0.150	1.020
2020/01/31 04:50:50.4	91.580	-0.360	0.170	1.050
2020/01/31 04:50:50.5	91.580	-0.380	0.200	1.090
2020/01/31 04:50:50.6	91.590	-0.400	0.210	1.120
2020/01/31 04:50:50.7	91.590	-0.410	0.220	1.150
2020/01/31 04:50:50.8	91.590	-0.420	0.220	1.170
2020/01/31 04:50:50.9	91.600	-0.430	0.220	1.190
2020/01/31 04:50:51.0	91.610	-0.430	0.200	1.200
2020/01/31 04:50:51.1	91.620	-0.430	0.190	1.200
2020/01/31 04:50:51.2	91.620	-0.420	0.160	1.200
2020/01/31 04:50:51.3	91.630	-0.410	0.130	1.200
2020/01/31 04:50:51.4	91.650	-0.400	0.090	1.180
2020/01/31 04:50:51.5	91.660	-0.380	0.040	1.160
2020/01/31 04:50:51.6	91.670	-0.360	-0.000	1.140
2020/01/31 04:50:51.7	91.680	-0.340	-0.060	1.110
2020/01/31 04:50:51.8	91.700	-0.310	-0.110	1.080
2020/01/31 04:50:51.9	91.710	-0.290	-0.170	1.050
2020/01/31 04:50:52.0	91.720	-0.260	-0.230	1.020
2020/01/31 04:50:52.1	91.730	-0.220	-0.290	0.990
2020/01/31 04:50:52.2	91.750	-0.190	-0.360	0.960
2020/01/31 04:50:52.3	91.750	-0.160	-0.420	0.930
2020/01/31 04:50:52.4	91.760	-0.120	-0.470	0.910
2020/01/31 04:50:52.5	91.760	-0.080	-0.530	0.890
2020/01/31 04:50:52.6	91.770	-0.050	-0.570	0.870
2020/01/31 04:50:52.7	91.770	-0.010	-0.620	0.860
2020/01/31 04:50:52.8	91.760	0.020	-0.660	0.850
2020/01/31 04:50:52.9	91.760	0.050	-0.690	0.840
2020/01/31 04:50:53.0	91.750	0.090	-0.710	0.840
2020/01/31 04:50:53.1	91.740	0.110	-0.730	0.840
2020/01/31 04:50:53.2	91.720	0.140	-0.740	0.850
2020/01/31 04:50:53.3	91.710	0.160	-0.750	0.860
2020/01/31 04:50:53.4	91.690	0.180	-0.750	0.870
2020/01/31 04:50:53.5	91.670	0.200	-0.740	0.880
2020/01/31 04:50:53.6	91.650	0.210	-0.730	0.890
2020/01/31 04:50:53.7	91.630	0.220	-0.710	0.900
2020/01/31 04:50:53.8	91.610	0.230	-0.680	0.910
2020/01/31 04:50:53.9	91.590	0.230	-0.650	0.930
2020/01/31 04:50:54.0	91.560	0.230	-0.620	0.940
2020/01/31 04:50:54.1	91.540	0.230	-0.580	0.950
2020/01/31 04:50:54.2	91.510	0.220	-0.540	0.960
2020/01/31 04:50:54.3	91.490	0.210	-0.500	0.980
2020/01/31 04:50:54.4	91.470	0.190	-0.450	0.980
2020/01/31 04:50:54.5	91.440	0.180	-0.410	0.990
2020/01/31 04:50:54.6	91.420	0.160	-0.360	0.990
2020/01/31 04:50:54.7	91.400	0.130	-0.310	0.990
2020/01/31 04:50:54.8	91.380	0.110	-0.260	0.990
2020/01/31 04:50:54.9	91.360	0.090	-0.220	0.980
2020/01/31 04:50:55.0	91.350	0.060	-0.180	0.970
2020/01/31 04:50:55.1	91.330	0.040	-0.130	0.960
2020/01/31 04:50:55.2	91.330	0.010	-0.090	0.950
2020/01/31 04:50:55.3	91.320	-0.010	-0.060	0.930
2020/01/31 04:50:55.4	91.310	-0.040	-0.030	0.900
2020/01/31 04:50:55.5	91.310	-0.060	-0.000	0.870
2020/01/31 04:50:55.6	91.310	-0.080	0.020	0.840
2020/01/31 04:50:55.7	91.310	-0.100	0.040	0.810
2020/01/31 04:50:55.8	91.320	-0.120	0.050	0.770
2020/01/31 04:50:55.9	91.330	-0.130	0.050	0.730
2020/01/31 04:50:56.0	91.340	-0.140	0.050	0.690
2020/01/31 04:50:56.1	91.350	-0.150	0.050	0.650
2020/01/31 04:50:56.2	91.380	-0.150	0.040	0.600
2020/01/31 04:50:56.3	91.400	-0.150	0.030	0.560
2020/01/31 04:50:56.4	91.420	-0.150	0.010	0.520
2020/01/31 04:50:56.5	91.440	-0.150	-0.010	0.480
2020/01/31 04:50:56.6	91.470	-0.140	-0.040	0.430
2020/01/31 04:50:56.7	91.490	-0.130	-0.070	0.390
2020/01/31 04:50:56.8	91.520	-0.120	-0.100	0.350
2020/01/31 04:50:56.9	91.540	-0.100	-0.130	0.320
2020/01/31 04:50:57.0	91.560	-0.090	-0.160	0.280
2020/01/31 04:50:57.1	91.580	-0.070	-0.190	0.250
2020/01/31 04:50:57.2	91.600	-0.050	-0.220	0.230
2020/01/31 04:50:57.3	91.620	-0.030	-0.250	0.210
2020/01/31 04:50:57.4	91.630	-0.020	-0.280	0.190
2020/01/31 04:50:57.5	91.640	-0.000	-0.310	0.170
2020/01/31 04:50:57.6	91.650	0.010	-0.330	0.160
2020/01/31 04:50:57.7	91.650	0.020	-0.340	0.140
2020/01/31 04:50:57.8	91.650	0.040	-0.360	0.130
2020/01/31 04:50:57.9	91.650	0.040	-0.370	0.130
2020/01/31 04:50:58.0	91.650	0.050	-0.380	0.120
2020/01/31 04:50:58.1	91.640	0.060	-0.380	0.120
2020/01/31 04:50:58.2	91.640	0.060	-0.380	0.120
2020/01/31 04:50:58.3	91.620	0.060	-0.380	0.130
2020/01/31 04:50:58.4	91.610	0.060	-0.380	0.130
2020/01/31 04:50:58.5	91.590	0.060	-0.370	0.140
2020/01/31 04:50:58.6	91.570	0.050	-0.360	0.150
2020/01/31 04:50:58.7	91.550	0.040	-0.340	0.170
2020/01/31 04:50:58.8	91.530	0.040	-0.330	0.180
2020/01/31 04:50:58.9	91.500	0.030	-0.310	0.200
2020/01/31 04:50:59.0	91.480	0.020	-0.290	0.220
2020/01/31 04:50:59.1	91.450	0.000	-0.270	0.240
2020/01/31 04:50:59.2	91.430	-0.010	-0.250	0.260
2020/01/31 04:50:59.3	91.400	-0.020	-0.230	0.280
2020/01/31 04:50:59.4	91.380	-0.030	-0.210	0.310
2020/01/31 04:50:59.5	91.360	-0.040	-0.190	0.330
2020/01/31 04:50:59.6	91.340	-0.050	-0.170	0.350
2020/01/31 04:50:59.7	91.320	-0.060	-0.150	0.370
2020/01/31 04:50:59.8	91.310	-0.060	-0.140	0.390
2020/01/31 04:50:59.9	91.290	-0.070	-0.120	0.400
2020/01/31 04:51:00.0	91.290	-0.070	-0.110	0.420
2020/01/31 04:51:00.1	91.280	-0.070	-0.100	0.430
2020/01/31 04:51:00.2	91.270	-0.070	-0.090	0.450
2020/01/31 04:51:00.3	91.270	-0.070	-0.080	0.460
2020/01/31 04:51:00.4	91.270	-0.070	-0.080	0.470
2020/01/31 04:51:00.5	91.270	-0.060	-0.070	0.480
2020/01/31 04:51:00.6	91.270	-0.060	-0.070	0.480
2020/01/31 04:51:00.7	91.270	-0.050	-0.070	0.480
2020/01/31 04:51:00.8	91.270	-0.040	-0.070	0.490
2020/01/31 04:51:00.9	91.280	-0.030	-0.070	0.490
2020/01/31 04:51:01.0	91.280	-0.020	-0.070	0.480
2020/01/31 04:51:01.1	91.290	-0.010	-0.070	0.480
2020/01/31 04:51:01.2	91.290	-0.000	-0.080	0.470
2020/01/31 04:51:01.3	91.290	0.010	-0.080	0.470
2020/01/31 04:51:01.4	91.300	0.020	-0.090	0.460
2020/01/31 04:51:01.5	91.300	0.030	-0.100	0.450
2020/01/31 04:51:01.6	91.310	0.040	-0.100	0.440
2020/01/31 04:51:01.7	91.310	0.050	-0.110	0.430
2020/01/31 04:51:01.8	91.320	0.060	-0.120	0.420
2020/01/31 04:51:01.9	91.320	0.070	-0.130	0.410
2020/01/31 04:51:02.0	91.320	0.080	-0.140	0.400
2020/01/31 04:51:02.1	91.330	0.090	-0.150	0.390
2020/01/31 04:51:02.2	91.330	0.100	-0.160	0.390
2020/01/31 04:51:02.3	91.330	0.110	-0.170	0.380
2020/01/31 04:51:02.4	91.330	0.120	-0.180	0.380
2020/01/31 04:51:02.5	91.330	0.120	-0.200	0.380
2020/01/31 04:51:02.6	91.330	0.130	-0.210	0.380
2020/01/31 04:51:02.7	91.320	0.130	-0.220	0.390
2020/01/31 04:51:02.8	91.320	0.140	-0.240	0.390
2020/01/31 04:51:02.9	91.320	0.140	-0.250	0.400
2020/01/31 04:51:03.0	91.310	0.150	-0.260	0.410
2020/01/31 04:51:03.1	91.310	0.150	-0.280	0.420
2020/01/31 04:51:03.2	91.300	0.160	-0.290	0.420
2020/01/31 04:51:03.3	91.300	0.160	-0.300	0.440
2020/01/31 04:51:03.4	91.290	0.160	-0.310	0.450
2020/01/31 04:51:03.5	91.290	0.160	-0.320	0.460
2020/01/31 04:51:03.6	91.290	0.160	-0.330	0.480
2020/01/31 04:51:03.7	91.280	0.160	-0.340	0.490
2020/01/31 04:51:03.8	91.280	0.160	-0.340	0.510
2020/01/31 04:51:03.9	91.270	0.160	-0.350	0.530
2020/01/31 04:51:04.0	91.270	0.150	-0.350	0.550
2020/01/31 04:51:04.1	91.270	0.150	-0.350	0.570
2020/01/31 04:51:04.2	91.260	0.150	-0.360	0.590
2020/01/31 04:51:04.3	91.260	0.140	-0.360	0.610
2020/01/31 04:51:04.4	91.250	0.130	-0.350	0.630
2020/01/31 04:51:04.5	91.250	0.130	-0.350	0.650
2020/01/31 04:51:04.6	91.240	0.120	-0.340	0.680
2020/01/31 04:51:04.7	91.240	0.110	-0.340	0.700
2020/01/31 04:51:04.8	91.230	0.100	-0.330	0.720
2020/01/31 04:51:04.9	91.220	0.090	-0.320	0.740
2020/01/31 04:51:05.0	91.220	0.080	-0.310	0.760
2020/01/31 04:51:05.1	91.210	0.070	-0.300	0.780
2020/01/31 04:51:05.2	91.210	0.050	-0.280	0.800
2020/01/31 04:51:05.3	91.200	0.040	-0.270	0.810
2020/01/31 04:51:05.4	91.200	0.030	-0.260	0.830
2020/01/31 04:51:05.5	91.200	0.010	-0.240	0.840
2020/01/31 04:51:05.6	91.200	-0.000	-0.230	0.850
2020/01/31 04:51:05.7	91.200	-0.020	-0.210	0.860
2020/01/31 04:51:05.8	91.200	-0.030	-0.200	0.870
2020/01/31 04:51:05.9	91.200	-0.050	-0.180	0.870
2020/01/31 04:51:06.0	91.210	-0.070	-0.160	0.880
2020/01/31 04:51:06.1	91.210	-0.080	-0.150	0.880
2020/01/31 04:51:06.2	91.220	-0.100	-0.130	0.880
2020/01/31 04:51:06.3	91.220	-0.120	-0.120	0.880
2020/01/31 04:51:06.4	91.230	-0.130	-0.100	0.880
2020/01/31 04:51:06.5	91.240	-0.150	-0.080	0.880
2020/01/31 04:51:06.6	91.250	-0.160	-0.070	0.880
2020/01/31 04:51:06.7	91.260	-0.180	-0.050	0.880
2020/01/31 04:51:06.8	91.260	-0.190	-0.030	0.880
2020/01/31 04:51:06.9	91.270	-0.210	-0.020	0.880
2020/01/31 04:51:07.0	91.280	-0.220	-0.000	0.890
2020/01/31 04:51:07.1	91.280	-0.230	0.010	0.890
2020/01/31 04:51:07.2	91.290	-0.240	0.030	0.890
2020/01/31 04:51:07.3	91.290	-0.250	0.040	0.890
2020/01/31 04:51:07.4	91.290	-0.260	0.050	0.890
2020/01/31 04:51:07.5	91.300	-0.260	0.050	0.890
2020/01/31 04:51:07.6	91.300	-0.270	0.050	0.890
2020/01/31 04:51:07.7	91.300	-0.270	0.060	0.890
2020/01/31 04:51:07.8	91.300	-0.270	0.050	0.890
2020/01/31 04:51:07.9	91.290	-0.260	0.050	0.890
2020/01/31 04:51:08.0	91.290	-0.260	0.040	0.890
2020/01/31 04:51:08.1	91.290	-0.250	0.020	0.890
2020/01/31 04:51:08.2	91.290	-0.230	0.000	0.880
2020/01/31 04:51:08.3	91.290	-0.220	-0.020	0.870
2020/01/31 04:51:08.4	91.290	-0.200	-0.040	0.860
2020/01/31 04:51:08.5	91.290	-0.180	-0.070	0.850
2020/01/31 04:51:08.6	91.290	-0.160	-0.100	0.840
2020/01/31 04:51:08.7	91.290	-0.130	-0.140	0.820
2020/01/31 04:51:08.8	91.290	-0.100	-0.170	0.810
2020/01/31 04:51:08.9	91.280	-0.070	-0.210	0.790
2020/01/31 04:51:09.0	91.280	-0.040	-0.250	0.770
2020/01/31 04:51:09.1	91.280	-0.000	-0.300	0.750
2020/01/31 04:51:09.2	91.280	0.040	-0.340	0.730
2020/01/31 04:51:09.3	91.280	0.070	-0.380	0.700
2020/01/31 04:51:09.4	91.270	0.110	-0.420	0.690
2020/01/31 04:51:09.5	91.260	0.150	-0.460	0.670
2020/01/31 04:51:09.6	91.260	0.190	-0.490	0.650
2020/01/31 04:51:09.7	91.250	0.230	-0.530	0.630
2020/01/31 04:51:09.8	91.230	0.270	-0.560	0.610
2020/01/31 04:51:09.9	91.220	0.300	-0.580	0.600
2020/01/31 04:51:10.0	91.210	0.340	-0.600	0.580
2020/01/31 04:51:10.1	91.200	0.370	-0.620	0.560
2020/01/31 04:51:10.2	91.190	0.400	-0.630	0.550
2020/01/31 04:51:10.3	91.180	0.420	-0.640	0.530
2020/01/31 04:51:10.4	91.170	0.450	-0.640	0.520
2020/01/31 04:51:10.5	91.150	0.460	-0.630	0.500
2020/01/31 04:51:10.6	91.140	0.480	-0.620	0.490
2020/01/31 04:51:10.7	91.130	0.490	-0.610	0.470
2020/01/31 04:51:10.8	91.120	0.500	-0.590	0.460
2020/01/31 04:51:10.9	91.120	0.500	-0.560	0.450
2020/01/31 04:51:11.0	91.110	0.490	-0.540	0.440
2020/01/31 04:51:11.1	91.110	0.490	-0.500	0.420
2020/01/31 04:51:11.2	91.100	0.480	-0.470	0.410
2020/01/31 04:51:11.3	91.100	0.460	-0.430	0.410
2020/01/31 04:51:11.4	91.100	0.440	-0.390	0.400
2020/01/31 04:51:11.5	91.100	0.410	-0.340	0.400
2020/01/31 04:51:11.6	91.110	0.380	-0.300	0.390
2020/01/31 04:51:11.7	91.110	0.350	-0.250	0.390
2020/01/31 04:51:11.8	91.110	0.310	-0.210	0.390
2020/01/31 04:51:11.9	91.120	0.270	-0.160	0.390
2020/01/31 04:51:12.0	91.130	0.230	-0.120	0.400
2020/01/31 04:51:12.1	91.130	0.190	-0.070	0.400
2020/01/31 04:51:12.2	91.140	0.140	-0.040	0.410
2020/01/31 04:51:12.3	91.150	0.090	0.000	0.410
2020/01/31 04:51:12.4	91.160	0.050	0.040	0.420
2020/01/31 04:51:12.5	91.170	-0.000	0.070	0.430
2020/01/31 04:51:12.6	91.190	-0.050	0.090	0.450
2020/01/31 04:51:12.7	91.200	-0.100	0.120	0.460
2020/01/31 04:51:12.8	91.210	-0.150	0.130	0.470
2020/01/31 04:51:12.9	91.230	-0.190	0.150	0.480
2020/01/31 04:51:13.0	91.250	-0.240	0.150	0.500
2020/01/31 04:51:13.1	91.270	-0.280	0.150	0.510
2020/01/31 04:51:13.2	91.290	-0.320	0.150	0.530
2020/01/31 04:51:13.3	91.310	-0.350	0.140	0.540
2020/01/31 04:51:13.4	91.330	-0.380	0.130	0.550
2020/01/31 04:51:13.5	91.360	-0.410	0.100	0.570
2020/01/31 04:51:13.6	91.380	-0.440	0.080	0.580
2020/01/31 04:51:13.7	91.400	-0.460	0.040	0.600
2020/01/31 04:51:13.8	91.430	-0.470	0.010	0.610
2020/01/31 04:51:13.9	91.450	-0.480	-0.040	0.630
2020/01/31 04:51:14.0	91.480	-0.490	-0.080	0.640
2020/01/31 04:51:14.1	91.500	-0.490	-0.130	0.660
2020/01/31 04:51:14.2	91.510	-0.490	-0.180	0.680
2020/01/31 04:51:14.3	91.530	-0.490	-0.240	0.700
2020/01/31 04:51:14.4	91.550	-0.480	-0.290	0.730
2020/01/31 04:51:14.5	91.560	-0.460	-0.340	0.750
2020/01/31 04:51:14.6	91.580	-0.450	-0.390	0.780
2020/01/31 04:51:14.7	91.590	-0.430	-0.440	0.800
2020/01/31 04:51:14.8	91.600	-0.410	-0.480	0.830
2020/01/31 04:51:14.9	91.600	-0.390	-0.520	0.860
2020/01/31 04:51:15.0	91.610	-0.360	-0.560	0.900
2020/01/31 04:51:15.1	91.610	-0.340	-0.590	0.930
2020/01/31 04:51:15.2	91.610	-0.310	-0.610	0.980
2020/01/31 04:51:15.3	91.600	-0.290	-0.630	1.020
2020/01/31 04:51:15.4	91.600	-0.260	-0.640	1.060
2020/01/31 04:51:15.5	91.590	-0.240	-0.640	1.100
2020/01/31 04:51:15.6	91.580	-0.220	-0.640	1.140
2020/01/31 04:51:15.7	91.560	-0.200	-0.630	1.180
2020/01/31 04:51:15.8	91.550	-0.180	-0.610	1.220
2020/01/31 04:51:15.9	91.530	-0.160	-0.590	1.260
2020/01/31 04:51:16.0	91.520	-0.140	-0.560	1.300
2020/01/31 04:51:16.1	91.500	-0.130	-0.520	1.340
2020/01/31 04:51:16.2	91.490	-0.110	-0.490	1.380
2020/01/31 04:51:16.3	91.470	-0.100	-0.440	1.410
2020/01/31 04:51:16.4	91.450	-0.090	-0.400	1.440
2020/01/31 04:51:16.5	91.440	-0.090	-0.350	1.470
2020/01/31 04:51:16.6	91.430	-0.080	-0.300	1.490
2020/01/31 04:51:16.7	91.410	-0.080	-0.250	1.510
2020/01/31 04:51:16.8	91.400	-0.070	-0.200	1.520
2020/01/31 04:51:16.9	91.390	-0.070	-0.150	1.530
2020/01/31 04:51:17.0	91.390	-0.070	-0.100	1.540
2020/01/31 04:51:17.1	91.380	-0.070	-0.050	1.540
2020/01/31 04:51:17.2	91.370	-0.070	-0.010	1.530
2020/01/31 04:51:17.3	91.370	-0.070	0.030	1.520
2020/01/31 04:51:17.4	91.370	-0.070	0.070	1.500
2020/01/31 04:51:17.5	91.370	-0.070	0.100	1.480
2020/01/31 04:51:17.6	91.370	-0.070	0.130	1.460
2020/01/31 04:51:17.7	91.370	-0.070	0.150	1.430
2020/01/31 04:51:17.8	91.370	-0.060	0.170	1.400
2020/01/31 04:51:17.9	91.380	-0.060	0.180	1.360
2020/01/31 04:51:18.0	91.380	-0.050	0.190	1.330
2020/01/31 04:51:18.1	91.380	-0.050	0.200	1.280
2020/01/31 04:51:18.2	91.380	-0.040	0.200	1.240
2020/01/31 04:51:18.3	91.380	-0.030	0.190	1.190
2020/01/31 04:51:18.4	91.390	-0.020	0.180	1.140
2020/01/31 04:51:18.5	91.390	-0.010	0.160	1.090
2020/01/31 04:51:18.6	91.400	0.000	0.140	1.040
2020/01/31 04:51:18.7	91.400	0.010	0.120	0.980
2020/01/31 04:51:18.8	91.400	0.030	0.090	0.920
2020/01/31 04:51:18.9	91.410	0.040	0.060	0.860
2020/01/31 04:51:19.0	91.410	0.060	0.030	0.800
2020/01/31 04:51:19.1	91.420	0.080	-0.010	0.730
2020/01/31 04:51:19.2	91.420	0.100	-0.050	0.670
2020/01/31 04:51:19.3	91.430	0.110	-0.090	0.600
2020/01/31 04:51:19.4	91.430	0.130	-0.140	0.540
2020/01/31 04:51:19.5	91.440	0.150	-0.180	0.470
2020/01/31 04:51:19.6	91.440	0.170	-0.230	0.410
2020/01/31 04:51:19.7	91.450	0.190	-0.270	0.340
2020/01/31 04:51:19.8	91.450	0.210	-0.310	0.280
2020/01/31 04:51:19.9	91.460	0.230	-0.360	0.230
2020/01/31 04:51:20.0	91.460	0.250	-0.400	0.170
2020/01/31 04:51:20.1	91.460	0.260	-0.430	0.120
2020/01/31 04:51:20.2	91.450	0.280	-0.470	0.080
2020/01/31 04:51:20.3	91.450	0.300	-0.500	0.040
2020/01/31 04:51:20.4	91.450	0.310	-0.530	0.010
2020/01/31 04:51:20.5	91.440	0.330	-0.550	-0.020
2020/01/31 04:51:20.6	91.440	0.340	-0.570	-0.050
2020/01/31 04:51:20.7	91.430	0.360	-0.590	-0.060
2020/01/31 04:51:20.8	91.410	0.370	-0.600	-0.080
2020/01/31 04:51:20.9	91.400	0.380	-0.610	-0.080
2020/01/31 04:51:21.0	91.390	0.380	-0.610	-0.090
2020/01/31 04:51:21.1	91.370	0.390	-0.610	-0.090
2020/01/31 04:51:21.2	91.360	0.390	-0.600	-0.090
2020/01/31 04:51:21.3	91.340	0.400	-0.590	-0.080
2020/01/31 04:51:21.4	91.330	0.400	-0.570	-0.070
2020/01/31 04:51:21.5	91.310	0.400	-0.550	-0.060
2020/01/31 04:51:21.6	91.300	0.390	-0.530	-0.050
2020/01/31 04:51:21.7	91.290	0.390	-0.500	-0.040
2020/01/31 04:51:21.8	91.280	0.380	-0.470	-0.030
2020/01/31 04:51:21.9	91.270	0.370	-0.440	-0.020
2020/01/31 04:51:22.0	91.270	0.360	-0.400	-0.000
2020/01/31 04:51:22.1	91.260	0.340	-0.360	0.010
2020/01/31 04:51:22.2	91.270	0.330	-0.320	0.020
2020/01/31 04:51:22.3	91.270	0.310	-0.280	0.030
2020/01/31 04:51:22.4	91.280	0.290	-0.240	0.040
2020/01/31 04:51:22.5	91.290	0.270	-0.200	0.050
2020/01/31 04:51:22.6	91.300	0.240	-0.160	0.060
2020/01/31 04:51:22.7	91.320	0.220	-0.120	0.070
2020/01/31 04:51:22.8	91.340	0.190	-0.080	0.080
2020/01/31 04:51:22.9	91.360	0.170	-0.040	0.090
2020/01/31 04:51:23.0	91.380	0.140	0.000	0.100
2020/01/31 04:51:23.1	91.410	0.110	0.040	0.110
2020/01/31 04:51:23.2	91.430	0.080	0.070	0.120
2020/01/31 04:51:23.3	91.460	0.050	0.100	0.140
2020/01/31 04:51:23.4	91.490	0.020	0.130	0.160
2020/01/31 04:51:23.5	91.520	-0.010	0.150	0.180
2020/01/31 04:51:23.6	91.550	-0.040	0.170	0.200
2020/01/31 04:51:23.7	91.590	-0.070	0.190	0.220
2020/01/31 04:51:23.8	91.620	-0.100	0.200	0.240
2020/01/31 04:51:23.9	91.650	-0.120	0.210	0.260
2020/01/31 04:51:24.0	91.680	-0.150	0.220	0.290
2020/01/31 04:51:24.1	91.710	-0.170	0.220	0.310
2020/01/31 04:51:24.2	91.740	-0.190	0.220	0.340
2020/01/31 04:51:24.3	91.760	-0.210	0.210	0.370
2020/01/31 04:51:24.4	91.790	-0.230	0.200	0.390
2020/01/31 04:51:24.5	91.810	-0.240	0.180	0.420
2020/01/31 04:51:24.6	91.830	-0.250	0.170	0.450
2020/01/31 04:51:24.7	91.850	-0.260	0.140	0.480
2020/01/31 04:51:24.8	91.860	-0.260	0.120	0.500
2020/01/31 04:51:24.9	91.880	-0.260	0.090	0.530
2020/01/31 04:51:25.0	91.890	-0.260	0.060	0.560
2020/01/31 04:51:25.1	91.890	-0.260	0.030	0.590
2020/01/31 04:51:25.2	91.890	-0.250	-0.010	0.620
2020/01/31 04:51:25.3	91.890	-0.240	-0.040	0.640
2020/01/31 04:51:25.4	91.890	-0.230	-0.080	0.670
2020/01/31 04:51:25.5	91.880	-0.220	-0.120	0.700
2020/01/31 04:51:25.6	91.870	-0.200	-0.160	0.740
2020/01/31 04:51:25.7	91.860	-0.180	-0.200	0.770
2020/01/31 04:51:25.8	91.850	-0.160	-0.240	0.810
2020/01/31 04:51:25.9	91.840	-0.140	-0.280	0.840
2020/01/31 04:51:26.0	91.820	-0.110	-0.330	0.880
2020/01/31 04:51:26.1	91.810	-0.090	-0.370	0.920
2020/01/31 04:51:26.2	91.790	-0.060	-0.410	0.960
2020/01/31 04:51:26.3	91.770	-0.040	-0.460	1.010
2020/01/31 04:51:26.4	91.750	-0.010	-0.500	1.050
2020/01/31 04:51:26.5	91.740	0.010	-0.540	1.100
2020/01/31 04:51:26.6	91.720	0.040	-0.580	1.140
2020/01/31 04:51:26.7	91.700	0.060	-0.620	1.190
2020/01/31 04:51:26.8	91.680	0.080	-0.660	1.240
2020/01/31 04:51:26.9	91.660	0.100	-0.690	1.280
2020/01/31 04:51:27.0	91.640	0.120	-0.730	1.320
2020/01/31 04:51:27.1	91.620	0.140	-0.750	1.360
2020/01/31 04:51:27.2	91.610	0.150	-0.780	1.410
2020/01/31 04:51:27.3	91.600	0.160	-0.800	1.440
2020/01/31 04:51:27.4	91.580	0.170	-0.810	1.470
2020/01/31 04:51:27.5	91.570	0.180	-0.820	1.490
2020/01/31 04:51:27.6	91.560	0.180	-0.830	1.500
2020/01/31 04:51:27.7	91.550	0.180	-0.830	1.510
2020/01/31 04:51:27.8	91.540	0.170	-0.820	1.510
2020/01/31 04:51:27.9	91.540	0.170	-0.810	1.510
2020/01/31 04:51:28.0	91.530	0.160	-0.790	1.490
2020/01/31 04:51:28.1	91.530	0.140	-0.770	1.470
2020/01/31 04:51:28.2	91.540	0.130	-0.740	1.440
2020/01/31 04:51:28.3	91.540	0.110	-0.710	1.410
2020/01/31 04:51:28.4	91.540	0.090	-0.670	1.380
2020/01/31 04:51:28.5	91.540	0.060	-0.620	1.340
2020/01/31 04:51:28.6	91.550	0.040	-0.570	1.300
2020/01/31 04:51:28.7	91.550	0.010	-0.520	1.260
2020/01/31 04:51:28.8	91.560	-0.020	-0.460	1.220
2020/01/31 04:51:28.9	91.560	-0.050	-0.400	1.170
2020/01/31 04:51:29.0	91.570	-0.070	-0.340	1.130
2020/01/31 04:51:29.1	91.570	-0.100	-0.280	1.090
2020/01/31 04:51:29.2	91.580	-0.130	-0.210	1.050
2020/01/31 04:51:29.3	91.580	-0.160	-0.140	1.010
2020/01/31 04:51:29.4	91.580	-0.190	-0.080	0.970
2020/01/31 04:51:29.5	91.580	-0.210	-0.020	0.940
2020/01/31 04:51:29.6	91.580	-0.240	0.040	0.910
2020/01/31 04:51:29.7	91.580	-0.260	0.100	0.880
2020/01/31 04:51:29.8	91.570	-0.290	0.160	0.860
2020/01/31 04:51:29.9	91.560	-0.310	0.210	0.840
2020/01/31 04:51:30.0	91.560	-0.330	0.260	0.820
2020/01/31 04:51:30.1	91.550	-0.340	0.300	0.800
2020/01/31 04:51:30.2	91.530	-0.360	0.340	0.780
2020/01/31 04:51:30.3	91.520	-0.370	0.370	0.770
2020/01/31 04:51:30.4	91.510	-0.380	0.390	0.750
2020/01/31 04:51:30.5	91.500	-0.380	0.410	0.740
2020/01/31 04:51:30.6	91.480	-0.390	0.420	0.720
2020/01/31 04:51:30.7	91.470	-0.390	0.430	0.700
2020/01/31 04:51:30.8	91.460	-0.380	0.430	0.680
2020/01/31 04:51:30.9	91.450	-0.380	0.420	0.660
2020/01/31 04:51:31.0	91.440	-0.370	0.400	0.640
2020/01/31 04:51:31.1	91.440	-0.360	0.380	0.620
2020/01/31 04:51:31.2	91.430	-0.350	0.350	0.590
2020/01/31 04:51:31.3	91.430	-0.330	0.320	0.570
2020/01/31 04:51:31.4	91.430	-0.310	0.280	0.540
2020/01/31 04:51:31.5	91.440	-0.290	0.230	0.510
2020/01/31 04:51:31.6	91.440	-0.270	0.180	0.480
2020/01/31 04:51:31.7	91.450	-0.240	0.120	0.440
2020/01/31 04:51:31.8	91.460	-0.210	0.070	0.410
2020/01/31 04:51:31.9	91.470	-0.180	0.010	0.380
2020/01/31 04:51:32.0	91.490	-0.150	-0.060	0.350
2020/01/31 04:51:32.1	91.500	-0.120	-0.120	0.320
2020/01/31 04:51:32.2	91.530	-0.080	-0.180	0.280
2020/01/31 04:51:32.3	91.540	-0.050	-0.250	0.260
2020/01/31 04:51:32.4	91.560	-0.010	-0.310	0.230
2020/01/31 04:51:32.5	91.580	0.030	-0.370	0.210
2020/01/31 04:51:32.6	91.600	0.070	-0.420	0.190
2020/01/31 04:51:32.7	91.620	0.100	-0.470	0.170
2020/01/31 04:51:32.8	91.630	0.140	-0.520	0.150
2020/01/31 04:51:32.9	91.650	0.180	-0.570	0.140
2020/01/31 04:51:33.0	91.670	0.210	-0.600	0.130
2020/01/31 04:51:33.1	91.680	0.240	-0.640	0.120
2020/01/31 04:51:33.2	91.690	0.270	-0.670	0.120
2020/01/31 04:51:33.3	91.700	0.300	-0.680	0.120
2020/01/31 04:51:33.4	91.710	0.330	-0.700	0.120
2020/01/31 04:51:33.5	91.720	0.350	-0.700	0.120
2020/01/31 04:51:33.6	91.730	0.370	-0.700	0.130
2020/01/31 04:51:33.7	91.730	0.380	-0.690	0.140
2020/01/31 04:51:33.8	91.740	0.390	-0.670	0.150
2020/01/31 04:51:33.9	91.740	0.400	-0.650	0.160
2020/01/31 04:51:34.0	91.750	0.400	-0.620	0.170
2020/01/31 04:51:34.1	91.750	0.400	-0.580	0.190
2020/01/31 04:51:34.2	91.750	0.400	-0.540	0.210
2020/01/31 04:51:34.3	91.750	0.390	-0.490	0.230
2020/01/31 04:51:34.4	91.740	0.370	-0.440	0.260
2020/01/31 04:51:34.5	91.740	0.360	-0.390	0.280
2020/01/31 04:51:34.6	91.740	0.340	-0.340	0.310
2020/01/31 04:51:34.7	91.730	0.310	-0.280	0.340
2020/01/31 04:51:34.8	91.730	0.290	-0.230	0.370
2020/01/31 04:51:34.9	91.720	0.260	-0.180	0.410
2020/01/31 04:51:35.0	91.710	0.230	-0.120	0.440
2020/01/31 04:51:35.1	91.710	0.200	-0.080	0.480
2020/01/31 04:51:35.2	91.710	0.170	-0.030	0.510
2020/01/31 04:51:35.3	91.700	0.130	0.010	0.550
2020/01/31 04:51:35.4	91.700	0.100	0.040	0.590
2020/01/31 04:51:35.5	91.690	0.070	0.070	0.630
2020/01/31 04:51:35.6	91.690	0.030	0.100	0.670
2020/01/31 04:51:35.7	91.680	0.000	0.120	0.710
2020/01/31 04:51:35.8	91.680	-0.030	0.130	0.750
2020/01/31 04:51:35.9	91.670	-0.060	0.140	0.780
2020/01/31 04:51:36.0	91.670	-0.080	0.140	0.820
2020/01/31 04:51:36.1	91.670	-0.110	0.130	0.860
2020/01/31 04:51:36.2	91.660	-0.130	0.110	0.900
2020/01/31 04:51:36.3	91.660	-0.150	0.100	0.930
2020/01/31 04:51:36.4	91.660	-0.160	0.070	0.960
2020/01/31 04:51:36.5	91.660	-0.180	0.040	1.000
2020/01/31 04:51:36.6	91.660	-0.190	0.010	1.030
2020/01/31 04:51:36.7	91.650	-0.200	-0.030	1.060
2020/01/31 04:51:36.8	91.650	-0.200	-0.070	1.080
2020/01/31 04:51:36.9	91.650	-0.210	-0.110	1.110
2020/01/31 04:51:37.0	91.650	-0.210	-0.150	1.130
2020/01/31 04:51:37.1	91.650	-0.200	-0.200	1.140
2020/01/31 04:51:37.2	91.660	-0.200	-0.240	1.160
2020/01/31 04:51:37.3	91.660	-0.190	-0.290	1.170
2020/01/31 04:51:37.4	91.660	-0.180	-0.330	1.170
2020/01/31 04:51:37.5	91.660	-0.170	-0.380	1.180
2020/01/31 04:51:37.6	91.660	-0.160	-0.420	1.180
2020/01/31 04:51:37.7	91.660	-0.150	-0.460	1.170
2020/01/31 04:51:37.8	91.670	-0.140	-0.490	1.170
2020/01/31 04:51:37.9	91.670	-0.120	-0.530	1.160
2020/01/31 04:51:38.0	91.670	-0.110	-0.550	1.150
2020/01/31 04:51:38.1	91.670	-0.100	-0.580	1.140
2020/01/31 04:51:38.2	91.660	-0.080	-0.600	1.130
2020/01/31 04:51:38.3	91.660	-0.070	-0.610	1.120
2020/01/31 04:51:38.4	91.660	-0.050	-0.620	1.110
2020/01/31 04:51:38.5	91.650	-0.040	-0.620	1.100
2020/01/31 04:51:38.6	91.640	-0.020	-0.620	1.100
2020/01/31 04:51:38.7	91.630	-0.010	-0.610	1.090
2020/01/31 04:51:38.8	91.620	0.000	-0.600	1.090
2020/01/31 04:51:38.9	91.610	0.010	-0.580	1.080
2020/01/31 04:51:39.0	91.600	0.030	-0.560	1.080
2020/01/31 04:51:39.1	91.580	0.040	-0.540	1.090
2020/01/31 04:51:39.2	91.570	0.050	-0.510	1.090
2020/01/31 04:51:39.3	91.560	0.060	-0.480	1.100
2020/01/31 04:51:39.4	91.540	0.070	-0.450	1.100
2020/01/31 04:51:39.5	91.520	0.070	-0.420	1.110
2020/01/31 04:51:39.6	91.510	0.080	-0.390	1.120
2020/01/31 04:51:39.7	91.490	0.090	-0.350	1.120
2020/01/31 04:51:39.8	91.470	0.090	-0.320	1.130
2020/01/31 04:51:39.9	91.450	0.100	-0.280	1.140
2020/01/31 04:51:40.0	91.430	0.100	-0.250	1.140
2020/01/31 04:51:40.1	91.420	0.110	-0.210	1.140
2020/01/31 04:51:40.2	91.390	0.110	-0.180	1.150
2020/01/31 04:51:40.3	91.370	0.110	-0.150	1.150
2020/01/31 04:51:40.4	91.350	0.110	-0.120	1.140
2020/01/31 04:51:40.5	91.340	0.110	-0.090	1.140
2020/01/31 04:51:40.6	91.320	0.110	-0.060	1.130
2020/01/31 04:51:40.7	91.300	0.110	-0.030	1.120
2020/01/31 04:51:40.8	91.290	0.110	-0.010	1.110
2020/01/31 04:51:40.9	91.270	0.110	0.010	1.100
2020/01/31 04:51:41.0	91.250	0.100	0.030	1.080
2020/01/31 04:51:41.1	91.240	0.100	0.040	1.060
2020/01/31 04:51:41.2	91.230	0.090	0.060	1.040
2020/01/31 04:51:41.3	91.210	0.090	0.070	1.020
2020/01/31 04:51:41.4	91.200	0.080	0.080	0.990
2020/01/31 04:51:41.5	91.190	0.070	0.090	0.960
2020/01/31 04:51:41.6	91.180	0.060	0.090	0.930
2020/01/31 04:51:41.7	91.180	0.060	0.100	0.890
2020/01/31 04:51:41.8	91.170	0.050	0.100	0.850
2020/01/31 04:51:41.9	91.170	0.040	0.110	0.810
2020/01/31 04:51:42.0	91.170	0.030	0.110	0.760
2020/01/31 04:51:42.1	91.170	0.010	0.110	0.720
2020/01/31 04:51:42.2	91.180	0.000	0.110	0.670
2020/01/31 04:51:42.3	91.190	-0.010	0.110	0.620
2020/01/31 04:51:42.4	91.200	-0.020	0.110	0.570
2020/01/31 04:51:42.5	91.210	-0.030	0.110	0.520
2020/01/31 04:51:42.6	91.220	-0.040	0.110	0.480
2020/01/31 04:51:42.7	91.240	-0.060	0.100	0.430
2020/01/31 04:51:42.8	91.250	-0.070	0.100	0.380
2020/01/31 04:51:42.9	91.270	-0.080	0.090	0.340
2020/01/31 04:51:43.0	91.290	-0.090	0.090	0.300
2020/01/31 04:51:43.1	91.310	-0.090	0.080	0.260
2020/01/31 04:51:43.2	91.330	-0.100	0.070	0.230
2020/01/31 04:51:43.3	91.340	-0.110	0.060	0.190
2020/01/31 04:51:43.4	91.360	-0.110	0.040	0.170
2020/01/31 04:51:43.5	91.380	-0.110	0.030	0.140
2020/01/31 04:51:43.6	91.400	-0.120	0.010	0.120
2020/01/31 04:51:43.7	91.420	-0.120	-0.010	0.100
2020/01/31 04:51:43.8	91.430	-0.110	-0.040	0.090
2020/01/31 04:51:43.9	91.450	-0.110	-0.070	0.080
2020/01/31 04:51:44.0	91.460	-0.100	-0.090	0.080
2020/01/31 04:51:44.1	91.470	-0.090	-0.130	0.080
2020/01/31 04:51:44.2	91.480	-0.080	-0.160	0.080
2020/01/31 04:51:44.3	91.490	-0.070	-0.200	0.090
2020/01/31 04:51:44.4	91.500	-0.060	-0.230	0.100
2020/01/31 04:51:44.5	91.500	-0.040	-0.270	0.110
2020/01/31 04:51:44.6	91.510	-0.020	-0.310	0.130
2020/01/31 04:51:44.7	91.510	-0.010	-0.360	0.150
2020/01/31 04:51:44.8	91.510	0.010	-0.400	0.170
2020/01/31 04:51:44.9	91.520	0.040	-0.450	0.190
2020/01/31 04:51:45.0	91.520	0.060	-0.490	0.220
2020/01/31 04:51:45.1	91.520	0.080	-0.540	0.250
2020/01/31 04:51:45.2	91.510	0.110	-0.580	0.280
2020/01/31 04:51:45.3	91.510	0.130	-0.630	0.310
2020/01/31 04:51:45.4	91.510	0.150	-0.670	0.350
2020/01/31 04:51:45.5	91.500	0.180	-0.710	0.380
2020/01/31 04:51:45.6	91.500	0.200	-0.750	0.430
2020/01/31 04:51:45.7	91.490	0.220	-0.790	0.470
2020/01/31 04:51:45.8	91.480	0.240	-0.820	0.510
2020/01/31 04:51:45.9	91.470	0.260	-0.850	0.560
2020/01/31 04:51:46.0	91.460	0.280	-0.880	0.610
2020/01/31 04:51:46.1	91.450	0.290	-0.890	0.660
2020/01/31 04:51:46.2	91.450	0.310	-0.910	0.720
2020/01/31 04:51:46.3	91.430	0.320	-0.920	0.770
2020/01/31 04:51:46.4	91.420	0.320	-0.920	0.820
2020/01/31 04:51:46.5	91.410	0.330	-0.910	0.870
2020/01/31 04:51:46.6	91.390	0.330	-0.900	0.920
2020/01/31 04:51:46.7	91.380	0.320	-0.880	0.970
2020/01/31 04:51:46.8	91.370	0.320	-0.850	1.010
2020/01/31 04:51:46.9	91.350	0.310	-0.820	1.060
2020/01/31 04:51:47.0	91.340	0.290	-0.780	1.100
2020/01/31 04:51:47.1	91.330	0.280	-0.730	1.140
2020/01/31 04:51:47.2	91.320	0.250	-0.680	1.170
2020/01/31 04:51:47.3	91.310	0.230	-0.620	1.200
2020/01/31 04:51:47.4	91.300	0.210	-0.560	1.220
2020/01/31 04:51:47.5	91.300	0.180	-0.490	1.240
2020/01/31 04:51:47.6	91.290	0.150	-0.420	1.260
2020/01/31 04:51:47.7	91.290	0.120	-0.350	1.270
2020/01/31 04:51:47.8	91.290	0.080	-0.270	1.280
2020/01/31 04:51:47.9	91.290	0.050	-0.200	1.290
2020/01/31 04:51:48.0	91.290	0.010	-0.120	1.290
2020/01/31 04:51:48.1	91.290	-0.020	-0.050	1.290
2020/01/31 04:51:48.2	91.300	-0.060	0.030	1.290
2020/01/31 04:51:48.3	91.300	-0.090	0.100	1.290
2020/01/31 04:51:48.4	91.310	-0.130	0.170	1.290
2020/01/31 04:51:48.5	91.310	-0.160	0.230	1.280
2020/01/31 04:51:48.6	91.320	-0.190	0.290	1.280
2020/01/31 04:51:48.7	91.320	-0.210	0.340	1.280
2020/01/31 04:51:48.8	91.330	-0.240	0.390	1.280
2020/01/31 04:51:48.9	91.330	-0.260	0.420	1.280
2020/01/31 04:51:49.0	91.330	-0.280	0.450	1.280
2020/01/31 04:51:49.1	91.340	-0.300	0.480	1.280
2020/01/31 04:51:49.2	91.340	-0.310	0.490	1.280
2020/01/31 04:51:49.3	91.340	-0.330	0.500	1.280
2020/01/31 04:51:49.4	91.340	-0.330	0.500	1.280
2020/01/31 04:51:49.5	91.340	-0.340	0.500	1.270
2020/01/31 04:51:49.6	91.340	-0.350	0.490	1.270
2020/01/31 04:51:49.7	91.340	-0.350	0.470	1.260
2020/01/31 04:51:49.8	91.340	-0.350	0.450	1.250
2020/01/31 04:51:49.9	91.340	-0.350	0.430	1.240
2020/01/31 04:51:50.0	91.330	-0.350	0.410	1.220
2020/01/31 04:51:50.1	91.330	-0.350	0.380	1.200
2020/01/31 04:51:50.2	91.320	-0.350	0.360	1.180
2020/01/31 04:51:50.3	91.310	-0.350	0.330	1.150
2020/01/31 04:51:50.4	91.310	-0.350	0.300	1.120
2020/01/31 04:51:50.5	91.300	-0.350	0.270	1.090
2020/01/31 04:51:50.6	91.290	-0.350	0.240	1.060
2020/01/31 04:51:50.7	91.280	-0.350	0.210	1.020
2020/01/31 04:51:50.8	91.260	-0.350	0.190	0.990
2020/01/31 04:51:50.9	91.250	-0.350	0.160	0.950
2020/01/31 04:51:51.0	91.230	-0.350	0.130	0.910
2020/01/31 04:51:51.1	91.220	-0.350	0.110	0.870
2020/01/31 04:51:51.2	91.200	-0.350	0.080	0.830
2020/01/31 04:51:51.3	91.180	-0.360	0.060	0.800
2020/01/31 04:51:51.4	91.160	-0.360	0.040	0.760
2020/01/31 04:51:51.5	91.140	-0.360	0.010	0.730
2020/01/31 04:51:51.6	91.120	-0.350	-0.010	0.700
2020/01/31 04:51:51.7	91.100	-0.350	-0.030	0.670
2020/01/31 04:51:51.8	91.080	-0.350	-0.050	0.640
2020/01/31 04:51:51.9	91.070	-0.340	-0.080	0.610
2020/01/31 04:51:52.0	91.050	-0.340	-0.100	0.590
2020/01/31 04:51:52.1	91.030	-0.330	-0.130	0.560
2020/01/31 04:51:52.2	91.010	-0.320	-0.160	0.540
2020/01/31 04:51:52.3	91.000	-0.300	-0.190	0.510
2020/01/31 04:51:52.4	90.990	-0.290	-0.220	0.490
2020/01/31 04:51:52.5	90.980	-0.270	-0.260	0.460
2020/01/31 04:51:52.6	90.980	-0.250	-0.300	0.440
2020/01/31 04:51:52.7	90.970	-0.220	-0.340	0.410
2020/01/31 04:51:52.8	90.980	-0.190	-0.380	0.390
2020/01/31 04:51:52.9	90.980	-0.160	-0.430	0.360
2020/01/31 04:51:53.0	90.990	-0.130	-0.480	0.330
2020/01/31 04:51:53.1	91.000	-0.090	-0.530	0.290
2020/01/31 04:51:53.2	91.020	-0.050	-0.580	0.260
2020/01/31 04:51:53.3	91.030	-0.010	-0.640	0.220
2020/01/31 04:51:53.4	91.050	0.040	-0.700	0.190
2020/01/31 04:51:53.5	91.080	0.080	-0.760	0.150
2020/01/31 04:51:53.6	91.100	0.130	-0.820	0.110
2020/01/31 04:51:53.7	91.130	0.180	-0.880	0.080
2020/01/31 04:51:53.8	91.150	0.230	-0.940	0.050
2020/01/31 04:51:53.9	91.180	0.280	-0.990	0.010
2020/01/31 04:51:54.0	91.210	0.330	-1.050	-0.010
2020/01/31 04:51:54.1	91.230	0.380	-1.100	-0.040
2020/01/31 04:51:54.2	91.260	0.430	-1.150	-0.060
2020/01/31 04:51:54.3	91.280	0.480	-1.190	-0.080
2020/01/31 04:51:54.4	91.300	0.530	-1.230	-0.090
2020/01/31 04:51:54.5	91.320	0.570	-1.260	-0.090
2020/01/31 04:51:54.6	91.340	0.610	-1.280	-0.090
2020/01/31 04:51:54.7	91.350	0.650	-1.300	-0.090
2020/01/31 04:51:54.8	91.360	0.680	-1.310	-0.080
2020/01/31 04:51:54.9	91.370	0.710	-1.300	-0.060
2020/01/31 04:51:55.0	91.370	0.740	-1.290	-0.030
2020/01/31 04:51:55.1	91.370	0.760	-1.270	-0.000
2020/01/31 04:51:55.2	91.370	0.780	-1.240	0.030
2020/01/31 04:51:55.3	91.360	0.790	-1.200	0.080
2020/01/31 04:51:55.4	91.350	0.790	-1.160	0.130
2020/01/31 04:51:55.5	91.340	0.800	-1.100	0.180
2020/01/31 04:51:55.6	91.330	0.790	-1.040	0.240
2020/01/31 04:51:55.7	91.310	0.780	-0.960	0.300
2020/01/31 04:51:55.8	91.290	0.770	-0.880	0.370
2020/01/31 04:51:55.9	91.260	0.750	-0.800	0.440
2020/01/31 04:51:56.0	91.240	0.720	-0.700	0.510
2020/01/31 04:51:56.1	91.210	0.690	-0.610	0.580
2020/01/31 04:51:56.2	91.180	0.660	-0.510	0.660
2020/01/31 04:51:56.3	91.150	0.620	-0.400	0.730
2020/01/31 04:51:56.4	91.120	0.570	-0.300	0.800
2020/01/31 04:51:56.5	91.080	0.530	-0.190	0.870
2020/01/31 04:51:56.6	91.050	0.480	-0.080	0.930
2020/01/31 04:51:56.7	91.020	0.420	0.020	0.990
2020/01/31 04:51:56.8	90.990	0.370	0.130	1.050
2020/01/31 04:51:56.9	90.950	0.310	0.230	1.110
2020/01/31 04:51:57.0	90.920	0.250	0.320	1.160
2020/01/31 04:51:57.1	90.900	0.190	0.420	1.200
2020/01/31 04:51:57.2	90.870	0.130	0.510	1.250
2020/01/31 04:51:57.3	90.850	0.070	0.590	1.280
2020/01/31 04:51:57.4	90.830	0.010	0.670	1.310
2020/01/31 04:51:57.5	90.820	-0.060	0.740	1.330
2020/01/31 04:51:57.6	90.810	-0.120	0.800	1.350
2020/01/31 04:51:57.7	90.800	-0.180	0.860	1.360
2020/01/31 04:51:57.8	90.790	-0.230	0.910	1.370
2020/01/31 04:51:57.9	90.790	-0.290	0.950	1.370
2020/01/31 04:51:58.0	90.800	-0.340	0.980	1.370
2020/01/31 04:51:58.1	90.800	-0.390	1.010	1.360
2020/01/31 04:51:58.2	90.820	-0.440	1.020	1.350
2020/01/31 04:51:58.3	90.830	-0.490	1.030	1.340
2020/01/31 04:51:58.4	90.840	-0.530	1.030	1.330
2020/01/31 04:51:58.5	90.850	-0.570	1.030	1.310
2020/01/31 04:51:58.6	90.870	-0.600	1.010	1.290
2020/01/31 04:51:58.7	90.890	-0.630	0.990	1.270
2020/01/31 04:51:58.8	90.900	-0.660	0.960	1.240
2020/01/31 04:51:58.9	90.920	-0.680	0.930	1.210
2020/01/31 04:51:59.0	90.940	-0.700	0.890	1.190
2020/01/31 04:51:59.1	90.960	-0.710	0.840	1.160
2020/01/31 04:51:59.2	90.970	-0.720	0.780	1.120
2020/01/31 04:51:59.3	90.980	-0.730	0.720	1.090
2020/01/31 04:51:59.4	91.000	-0.730	0.650	1.050
2020/01/31 04:51:59.5	91.020	-0.720	0.570	1.020
2020/01/31 04:51:59.6	91.040	-0.710	0.490	0.980
2020/01/31 04:51:59.7	91.060	-0.700	0.410	0.950
2020/01/31 04:51:59.8	91.080	-0.680	0.320	0.910
2020/01/31 04:51:59.9	91.090	-0.660	0.220	0.880
2020/01/31 04:52:00.0	91.110	-0.630	0.130	0.840
2020/01/31 04:52:00.1	91.120	-0.600	0.030	0.810
2020/01/31 04:52:00.2	91.130	-0.560	-0.070	0.780
2020/01/31 04:52:00.3	91.150	-0.520	-0.170	0.750
2020/01/31 04:52:00.4	91.160	-0.480	-0.270	0.730
2020/01/31 04:52:00.5	91.170	-0.430	-0.370	0.700
2020/01/31 04:52:00.6	91.170	-0.390	-0.470	0.680
2020/01/31 04:52:00.7	91.180	-0.340	-0.570	0.670
2020/01/31 04:52:00.8	91.180	-0.290	-0.660	0.650
2020/01/31 04:52:00.9	91.180	-0.230	-0.750	0.640
2020/01/31 04:52:01.0	91.180	-0.180	-0.830	0.630
2020/01/31 04:52:01.1	91.170	-0.130	-0.910	0.630
2020/01/31 04:52:01.2	91.170	-0.070	-0.990	0.630
2020/01/31 04:52:01.3	91.160	-0.020	-1.050	0.630
2020/01/31 04:52:01.4	91.150	0.040	-1.110	0.640
2020/01/31 04:52:01.5	91.130	0.090	-1.170	0.650
2020/01/31 04:52:01.6	91.120	0.140	-1.210	0.670
2020/01/31 04:52:01.7	91.100	0.190	-1.250	0.690
2020/01/31 04:52:01.8	91.080	0.240	-1.280	0.710
2020/01/31 04:52:01.9	91.060	0.290	-1.300	0.730
2020/01/31 04:52:02.0	91.040	0.330	-1.310	0.760
2020/01/31 04:52:02.1	91.010	0.370	-1.320	0.790
2020/01/31 04:52:02.2	91.000	0.410	-1.320	0.820
2020/01/31 04:52:02.3	90.970	0.440	-1.310	0.850
2020/01/31 04:52:02.4	90.950	0.470	-1.290	0.880
2020/01/31 04:52:02.5	90.930	0.500	-1.270	0.910
2020/01/31 04:52:02.6	90.910	0.520	-1.250	0.940
2020/01/31 04:52:02.7	90.900	0.540	-1.210	0.970
2020/01/31 04:52:02.8	90.880	0.560	-1.170	1.000
2020/01/31 04:52:02.9	90.870	0.570	-1.130	1.020
2020/01/31 04:52:03.0	90.860	0.580	-1.080	1.050
2020/01/31 04:52:03.1	90.850	0.580	-1.030	1.070
2020/01/31 04:52:03.2	90.850	0.590	-0.970	1.090
2020/01/31 04:52:03.3	90.840	0.580	-0.910	1.110
2020/01/31 04:52:03.4	90.840	0.580	-0.840	1.120
2020/01/31 04:52:03.5	90.840	0.570	-0.770	1.120
2020/01/31 04:52:03.6	90.840	0.550	-0.700	1.120
2020/01/31 04:52:03.7	90.840	0.530	-0.630	1.120
2020/01/31 04:52:03.8	90.850	0.510	-0.560	1.120
2020/01/31 04:52:03.9	90.850	0.490	-0.480	1.100
2020/01/31 04:52:04.0	90.860	0.460	-0.400	1.090
2020/01/31 04:52:04.1	90.870	0.430	-0.320	1.070
2020/01/31 04:52:04.2	90.870	0.400	-0.250	1.050
2020/01/31 04:52:04.3	90.880	0.360	-0.170	1.030
2020/01/31 04:52:04.4	90.890	0.320	-0.090	1.000
2020/01/31 04:52:04.5	90.910	0.280	-0.010	0.970
2020/01/31 04:52:04.6	90.920	0.230	0.070	0.950
2020/01/31 04:52:04.7	90.930	0.190	0.150	0.920
2020/01/31 04:52:04.8	90.940	0.140	0.220	0.890
2020/01/31 04:52:04.9	90.950	0.090	0.300	0.860
2020/01/31 04:52:05.0	90.970	0.040	0.370	0.830
2020/01/31 04:52:05.1	90.980	-0.020	0.430	0.810
2020/01/31 04:52:05.2	90.990	-0.070	0.500	0.780
2020/01/31 04:52:05.3	91.000	-0.120	0.560	0.750
2020/01/31 04:52:05.4	91.010	-0.180	0.610	0.730
2020/01/31 04:52:05.5	91.020	-0.230	0.660	0.710
2020/01/31 04:52:05.6	91.040	-0.280	0.710	0.690
2020/01/31 04:52:05.7	91.050	-0.340	0.750	0.670
2020/01/31 04:52:05.8	91.060	-0.390	0.780	0.650
2020/01/31 04:52:05.9	91.070	-0.440	0.810	0.640
2020/01/31 04:52:06.0	91.080	-0.490	0.830	0.620
2020/01/31 04:52:06.1	91.080	-0.530	0.840	0.610
2020/01/31 04:52:06.2	91.090	-0.580	0.850	0.600
2020/01/31 04:52:06.3	91.090	-0.620	0.850	0.590
2020/01/31 04:52:06.4	91.100	-0.650	0.840	0.580
2020/01/31 04:52:06.5	91.110	-0.690	0.820	0.570
2020/01/31 04:52:06.6	91.120	-0.720	0.800	0.560
2020/01/31 04:52:06.7	91.120	-0.750	0.770	0.550
2020/01/31 04:52:06.8	91.130	-0.770	0.730	0.550
2020/01/31 04:52:06.9	91.130	-0.790	0.690	0.540
2020/01/31 04:52:07.0	91.140	-0.800	0.640	0.540
2020/01/31 04:52:07.1	91.140	-0.810	0.580	0.530
2020/01/31 04:52:07.2	91.150	-0.810	0.510	0.530
2020/01/31 04:52:07.3	91.150	-0.810	0.440	0.520
2020/01/31 04:52:07.4	91.160	-0.800	0.360	0.520
2020/01/31 04:52:07.5	91.160	-0.790	0.280	0.520
2020/01/31 04:52:07.6	91.160	-0.780	0.190	0.520
2020/01/31 04:52:07.7	91.160	-0.750	0.100	0.520
2020/01/31 04:52:07.8	91.160	-0.730	0.000	0.520
2020/01/31 04:52:07.9	91.160	-0.690	-0.100	0.530
2020/01/31 04:52:08.0	91.160	-0.660	-0.200	0.530
2020/01/31 04:52:08.1	91.160	-0.620	-0.300	0.530
2020/01/31 04:52:08.2	91.160	-0.570	-0.400	0.540
2020/01/31 04:52:08.3	91.150	-0.520	-0.500	0.550
2020/01/31 04:52:08.4	91.150	-0.470	-0.600	0.560
2020/01/31 04:52:08.5	91.150	-0.420	-0.700	0.570
2020/01/31 04:52:08.6	91.140	-0.360	-0.790	0.580
2020/01/31 04:52:08.7	91.130	-0.300	-0.880	0.590
2020/01/31 04:52:08.8	91.130	-0.240	-0.960	0.610
2020/01/31 04:52:08.9	91.120	-0.180	-1.040	0.620
2020/01/31 04:52:09.0	91.110	-0.120	-1.110	0.640
2020/01/31 04:52:09.1	91.110	-0.050	-1.170	0.650
2020/01/31 04:52:09.2	91.100	0.010	-1.220	0.670
2020/01/31 04:52:09.3	91.090	0.070	-1.270	0.680
2020/01/31 04:52:09.4	91.090	0.130	-1.310	0.700
2020/01/31 04:52:09.5	91.090	0.190	-1.340	0.710
2020/01/31 04:52:09.6	91.080	0.240	-1.360	0.730
2020/01/31 04:52:09.7	91.080	0.300	-1.370	0.740
2020/01/31 04:52:09.8	91.080	0.350	-1.370	0.750
2020/01/31 04:52:09.9	91.090	0.390	-1.360	0.760
2020/01/31 04:52:10.0	91.090	0.440	-1.340	0.770
2020/01/31 04:52:10.1	91.090	0.470	-1.320	0.780
2020/01/31 04:52:10.2	91.100	0.510	-1.280	0.790
2020/01/31 04:52:10.3	91.110	0.540	-1.240	0.790
2020/01/31 04:52:10.4	91.110	0.570	-1.180	0.800
2020/01/31 04:52:10.5	91.120	0.590	-1.130	0.800
2020/01/31 04:52:10.6	91.130	0.610	-1.060	0.800
2020/01/31 04:52:10.7	91.140	0.630	-0.990	0.800
2020/01/31 04:52:10.8	91.150	0.640	-0.920	0.800
2020/01/31 04:52:10.9	91.170	0.640	-0.840	0.790
2020/01/31 04:52:11.0	91.180	0.650	-0.760	0.780
2020/01/31 04:52:11.1	91.190	0.650	-0.680	0.780
2020/01/31 04:52:11.2	91.200	0.650	-0.600	0.760
2020/01/31 04:52:11.3	91.220	0.640	-0.520	0.750
2020/01/31 04:52:11.4	91.230	0.640	-0.440	0.740
2020/01/31 04:52:11.5	91.240	0.630	-0.370	0.720
2020/01/31 04:52:11.6	91.250	0.620	-0.300	0.700
2020/01/31 04:52:11.7	91.260	0.610	-0.230	0.680
2020/01/31 04:52:11.8	91.270	0.600	-0.170	0.670
2020/01/31 04:52:11.9	91.270	0.590	-0.110	0.650
2020/01/31 04:52:12.0	91.280	0.580	-0.060	0.630
2020/01/31 04:52:12.1	91.280	0.570	-0.020	0.620
2020/01/31 04:52:12.2	91.280	0.570	0.020	0.610
2020/01/31 04:52:12.3	91.280	0.560	0.050	0.590
2020/01/31 04:52:12.4	91.270	0.550	0.080	0.580
2020/01/31 04:52:12.5	91.260	0.550	0.090	0.570
2020/01/31 04:52:12.6	91.250	0.550	0.100	0.570
2020/01/31 04:52:12.7	91.240	0.550	0.110	0.560
2020/01/31 04:52:12.8	91.230	0.550	0.110	0.560
2020/01/31 04:52:12.9	91.210	0.550	0.110	0.560
2020/01/31 04:52:13.0	91.190	0.550	0.100	0.560
2020/01/31 04:52:13.1	91.170	0.550	0.090	0.570
2020/01/31 04:52:13.2	91.150	0.550	0.080	0.570
2020/01/31 04:52:13.3	91.130	0.550	0.080	0.580
2020/01/31 04:52:13.4	91.100	0.540	0.070	0.590
2020/01/31 04:52:13.5	91.080	0.540	0.070	0.590
2020/01/31 04:52:13.6	91.050	0.530	0.070	0.600
2020/01/31 04:52:13.7	91.030	0.520	0.070	0.600
2020/01/31 04:52:13.8	91.000	0.500	0.080	0.610
2020/01/31 04:52:13.9	90.970	0.480	0.100	0.610
2020/01/31 04:52:14.0	90.950	0.450	0.110	0.610
2020/01/31 04:52:14.1	90.920	0.420	0.140	0.610
2020/01/31 04:52:14.2	90.890	0.390	0.170	0.610
2020/01/31 04:52:14.3	90.870	0.350	0.200	0.610
2020/01/31 04:52:14.4	90.850	0.310	0.230	0.610
2020/01/31 04:52:14.5	90.830	0.260	0.270	0.600
2020/01/31 04:52:14.6	90.810	0.210	0.310	0.590
2020/01/31 04:52:14.7	90.790	0.150	0.360	0.590
2020/01/31 04:52:14.8	90.780	0.090	0.400	0.580
2020/01/31 04:52:14.9	90.770	0.030	0.450	0.570
2020/01/31 04:52:15.0	90.760	-0.030	0.490	0.560
2020/01/31 04:52:15.1	90.750	-0.100	0.540	0.540
2020/01/31 04:52:15.2	90.750	-0.170	0.580	0.530
2020/01/31 04:52:15.3	90.750	-0.240	0.620	0.520
2020/01/31 04:52:15.4	90.750	-0.320	0.650	0.500
2020/01/31 04:52:15.5	90.760	-0.390	0.680	0.490
2020/01/31 04:52:15.6	90.770	-0.460	0.710	0.470
2020/01/31 04:52:15.7	90.790	-0.520	0.720	0.460
2020/01/31 04:52:15.8	90.800	-0.590	0.730	0.440
2020/01/31 04:52:15.9	90.830	-0.650	0.740	0.420
2020/01/31 04:52:16.0	90.850	-0.710	0.730	0.400
2020/01/31 04:52:16.1	90.880	-0.760	0.720	0.390
2020/01/31 04:52:16.2	90.910	-0.810	0.700	0.360
2020/01/31 04:52:16.3	90.940	-0.850	0.670	0.350
2020/01/31 04:52:16.4	90.970	-0.880	0.620	0.330
2020/01/31 04:52:16.5	91.010	-0.910	0.570	0.320
2020/01/31 04:52:16.6	91.050	-0.920	0.510	0.300
2020/01/31 04:52:16.7	91.090	-0.940	0.440	0.290
2020/01/31 04:52:16.8	91.130	-0.940	0.360	0.280
2020/01/31 04:52:16.9	91.170	-0.930	0.270	0.270
2020/01/31 04:52:17.0	91.210	-0.920	0.180	0.260
2020/01/31 04:52:17.1	91.250	-0.900	0.080	0.260
2020/01/31 04:52:17.2	91.290	-0.870	-0.030	0.260
2020/01/31 04:52:17.3	91.330	-0.840	-0.140	0.260
2020/01/31 04:52:17.4	91.370	-0.800	-0.260	0.260
2020/01/31 04:52:17.5	91.400	-0.760	-0.370	0.260
2020/01/31 04:52:17.6	91.440	-0.710	-0.480	0.270
2020/01/31 04:52:17.7	91.470	-0.650	-0.600	0.280
2020/01/31 04:52:17.8	91.500	-0.600	-0.700	0.300
2020/01/31 04:52:17.9	91.530	-0.540	-0.810	0.320
2020/01/31 04:52:18.0	91.550	-0.480	-0.910	0.340
2020/01/31 04:52:18.1	91.580	-0.420	-1.000	0.370
2020/01/31 04:52:18.2	91.590	-0.360	-1.090	0.400
2020/01/31 04:52:18.3	91.610	-0.300	-1.160	0.440
2020/01/31 04:52:18.4	91.620	-0.250	-1.230	0.480
2020/01/31 04:52:18.5	91.630	-0.190	-1.280	0.530
2020/01/31 04:52:18.6	91.640	-0.140	-1.330	0.580
2020/01/31 04:52:18.7	91.640	-0.090	-1.360	0.630
2020/01/31 04:52:18.8	91.640	-0.050	-1.380	0.680
2020/01/31 04:52:18.9	91.640	-0.010	-1.390	0.740
2020/01/31 04:52:19.0	91.630	0.020	-1.390	0.790
2020/01/31 04:52:19.1	91.620	0.050	-1.380	0.850
2020/01/31 04:52:19.2	91.610	0.080	-1.350	0.910
2020/01/31 04:52:19.3	91.590	0.100	-1.320	0.960
2020/01/31 04:52:19.4	91.570	0.110	-1.280	1.010
2020/01/31 04:52:19.5	91.550	0.120	-1.220	1.060
2020/01/31 04:52:19.6	91.530	0.130	-1.160	1.100
2020/01/31 04:52:19.7	91.500	0.120	-1.100	1.140
2020/01/31 04:52:19.8	91.470	0.120	-1.020	1.180
2020/01/31 04:52:19.9	91.430	0.110	-0.940	1.220
2020/01/31 04:52:20.0	91.400	0.100	-0.860	1.250
2020/01/31 04:52:20.1	91.360	0.080	-0.770	1.270
2020/01/31 04:52:20.2	91.310	0.070	-0.680	1.290
2020/01/31 04:52:20.3	91.270	0.050	-0.590	1.310
2020/01/31 04:52:20.4	91.230	0.030	-0.490	1.320
2020/01/31 04:52:20.5	91.190	0.000	-0.400	1.330
2020/01/31 04:52:20.6	91.140	-0.020	-0.310	1.330
2020/01/31 04:52:20.7	91.100	-0.040	-0.220	1.330
2020/01/31 04:52:20.8	91.050	-0.060	-0.140	1.320
2020/01/31 04:52:20.9	91.010	-0.090	-0.050	1.310
2020/01/31 04:52:21.0	90.960	-0.110	0.020	1.290
2020/01/31 04:52:21.1	90.920	-0.120	0.100	1.270
2020/01/31 04:52:21.2	90.870	-0.140	0.160	1.240
2020/01/31 04:52:21.3	90.830	-0.160	0.220	1.220
2020/01/31 04:52:21.4	90.780	-0.170	0.270	1.190
2020/01/31 04:52:21.5	90.740	-0.180	0.320	1.160
2020/01/31 04:52:21.6	90.690	-0.180	0.360	1.120
2020/01/31 04:52:21.7	90.650	-0.190	0.380	1.080
2020/01/31 04:52:21.8	90.600	-0.190	0.410	1.050
2020/01/31 04:52:21.9	90.560	-0.180	0.420	1.000
2020/01/31 04:52:22.0	90.520	-0.180	0.420	0.960
2020/01/31 04:52:22.1	90.480	-0.170	0.420	0.920
2020/01/31 04:52:22.2	90.450	-0.160	0.400	0.870
2020/01/31 04:52:22.3	90.420	-0.140	0.380	0.820
2020/01/31 04:52:22.4	90.390	-0.120	0.350	0.770
2020/01/31 04:52:22.5	90.370	-0.100	0.320	0.720
2020/01/31 04:52:22.6	90.340	-0.080	0.270	0.660
2020/01/31 04:52:22.7	90.330	-0.060	0.220	0.610
2020/01/31 04:52:22.8	90.320	-0.030	0.170	0.550
2020/01/31 04:52:22.9	90.310	-0.000	0.100	0.490
2020/01/31 04:52:23.0	90.310	0.030	0.040	0.430
2020/01/31 04:52:23.1	90.310	0.060	-0.030	0.370
2020/01/31 04:52:23.2	90.320	0.090	-0.110	0.300
2020/01/31 04:52:23.3	90.330	0.120	-0.180	0.240
2020/01/31 04:52:23.4	90.340	0.150	-0.260	0.180
2020/01/31 04:52:23.5	90.360	0.180	-0.340	0.120
2020/01/31 04:52:23.6	90.380	0.210	-0.420	0.050
2020/01/31 04:52:23.7	90.400	0.240	-0.490	-0.010
2020/01/31 04:52:23.8	90.430	0.270	-0.560	-0.070
2020/01/31 04:52:23.9	90.460	0.290	-0.630	-0.130
2020/01/31 04:52:24.0	90.490	0.320	-0.680	-0.190
2020/01/31 04:52:24.1	90.520	0.340	-0.740	-0.240
2020/01/31 04:52:24.2	90.550	0.360	-0.790	-0.290
2020/01/31 04:52:24.3	90.580	0.380	-0.830	-0.330
2020/01/31 04:52:24.4	90.610	0.400	-0.850	-0.360
2020/01/31 04:52:24.5	90.640	0.420	-0.870	-0.390
2020/01/31 04:52:24.6	90.660	0.430	-0.880	-0.410
2020/01/31 04:52:24.7	90.690	0.440	-0.880	-0.420
2020/01/31 04:52:24.8	90.710	0.440	-0.870	-0.420
2020/01/31 04:52:24.9	90.730	0.450	-0.850	-0.420
2020/01/31 04:52:25.0	90.750	0.450	-0.820	-0.420
2020/01/31 04:52:25.1	90.760	0.450	-0.780	-0.400
2020/01/31 04:52:25.2	90.780	0.440	-0.730	-0.380
2020/01/31 04:52:25.3	90.790	0.430	-0.670	-0.350
2020/01/31 04:52:25.4	90.800	0.420	-0.610	-0.320
2020/01/31 04:52:25.5	90.810	0.410	-0.540	-0.280
2020/01/31 04:52:25.6	90.820	0.400	-0.470	-0.240
2020/01/31 04:52:25.7	90.830	0.380	-0.400	-0.190
2020/01/31 04:52:25.8	90.830	0.360	-0.320	-0.140
2020/01/31 04:52:25.9	90.840	0.340	-0.240	-0.090
2020/01/31 04:52:26.0	90.840	0.320	-0.160	-0.030
2020/01/31 04:52:26.1	90.850	0.300	-0.080	0.030
2020/01/31 04:52:26.2	90.860	0.270	-0.000	0.100
2020/01/31 04:52:26.3	90.870	0.250	0.070	0.160
2020/01/31 04:52:26.4	90.880	0.220	0.150	0.230
2020/01/31 04:52:26.5	90.890	0.200	0.220	0.290
2020/01/31 04:52:26.6	90.900	0.170	0.280	0.360
2020/01/31 04:52:26.7	90.910	0.150	0.340	0.430
2020/01/31 04:52:26.8	90.920	0.120	0.390	0.490
2020/01/31 04:52:26.9	90.940	0.100	0.440	0.560
2020/01/31 04:52:27.0	90.950	0.080	0.480	0.630
2020/01/31 04:52:27.1	90.970	0.050	0.520	0.700
2020/01/31 04:52:27.2	90.980	0.030	0.550	0.770
2020/01/31 04:52:27.3	91.000	0.010	0.570	0.830
2020/01/31 04:52:27.4	91.010	-0.020	0.590	0.900
2020/01/31 04:52:27.5	91.020	-0.040	0.610	0.960
2020/01/31 04:52:27.6	91.030	-0.060	0.620	1.030
2020/01/31 04:52:27.7	91.030	-0.080	0.620	1.080
2020/01/31 04:52:27.8	91.040	-0.110	0.620	1.140
2020/01/31 04:52:27.9	91.040	-0.130	0.610	1.190
2020/01/31 04:52:28.0	91.040	-0.150	0.600	1.240
2020/01/31 04:52:28.1	91.040	-0.170	0.590	1.280
2020/01/31 04:52:28.2	91.050	-0.190	0.570	1.320
2020/01/31 04:52:28.3	91.050	-0.210	0.540	1.350
2020/01/31 04:52:28.4	91.040	-0.230	0.520	1.370
2020/01/31 04:52:28.5	91.040	-0.250	0.490	1.390
2020/01/31 04:52:28.6	91.040	-0.260	0.450	1.410
2020/01/31 04:52:28.7	91.030	-0.280	0.420	1.410
2020/01/31 04:52:28.8	91.020	-0.290	0.380	1.420
2020/01/31 04:52:28.9	91.020	-0.310	0.330	1.420
2020/01/31 04:52:29.0	91.010	-0.320	0.290	1.410
2020/01/31 04:52:29.1	91.000	-0.330	0.240	1.400
2020/01/31 04:52:29.2	90.980	-0.330	0.180	1.380
2020/01/31 04:52:29.3	90.970	-0.330	0.130	1.370
2020/01/31 04:52:29.4	90.960	-0.330	0.070	1.350
2020/01/31 04:52:29.5	90.950	-0.330	0.010	1.330
2020/01/31 04:52:29.6	90.940	-0.330	-0.050	1.310
2020/01/31 04:52:29.7	90.930	-0.320	-0.120	1.290
2020/01/31 04:52:29.8	90.920	-0.310	-0.180	1.260
2020/01/31 04:52:29.9	90.910	-0.290	-0.250	1.240
2020/01/31 04:52:30.0	90.900	-0.270	-0.320	1.220
2020/01/31 04:52:30.1	90.890	-0.250	-0.390	1.190
2020/01/31 04:52:30.2	90.880	-0.220	-0.460	1.170
2020/01/31 04:52:30.3	90.870	-0.200	-0.530	1.150
2020/01/31 04:52:30.4	90.870	-0.160	-0.600	1.120
2020/01/31 04:52:30.5	90.860	-0.130	-0.670	1.100
2020/01/31 04:52:30.6	90.860	-0.090	-0.740	1.070
2020/01/31 04:52:30.7	90.850	-0.050	-0.810	1.050
2020/01/31 04:52:30.8	90.850	-0.010	-0.870	1.020
2020/01/31 04:52:30.9	90.850	0.030	-0.930	1.000
2020/01/31 04:52:31.0	90.850	0.080	-0.990	0.970
2020/01/31 04:52:31.1	90.860	0.120	-1.040	0.950
2020/01/31 04:52:31.2	90.850	0.160	-1.090	0.920
2020/01/31 04:52:31.3	90.860	0.210	-1.140	0.890
2020/01/31 04:52:31.4	90.860	0.250	-1.170	0.870
2020/01/31 04:52:31.5	90.870	0.290	-1.200	0.840
2020/01/31 04:52:31.6	90.880	0.330	-1.220	0.820
2020/01/31 04:52:31.7	90.880	0.370	-1.240	0.800
2020/01/31 04:52:31.8	90.890	0.400	-1.240	0.770
2020/01/31 04:52:31.9	90.900	0.430	-1.240	0.750
2020/01/31 04:52:32.0	90.910	0.460	-1.230	0.720
2020/01/31 04:52:32.1	90.910	0.480	-1.220	0.700
2020/01/31 04:52:32.2	90.920	0.500	-1.190	0.680
2020/01/31 04:52:32.3	90.930	0.510	-1.150	0.660
2020/01/31 04:52:32.4	90.940	0.520	-1.110	0.640
2020/01/31 04:52:32.5	90.940	0.520	-1.070	0.620
2020/01/31 04:52:32.6	90.950	0.520	-1.020	0.600
2020/01/31 04:52:32.7	90.950	0.520	-0.960	0.580
2020/01/31 04:52:32.8	90.960	0.510	-0.890	0.560
2020/01/31 04:52:32.9	90.960	0.490	-0.820	0.550
2020/01/31 04:52:33.0	90.960	0.470	-0.750	0.530
2020/01/31 04:52:33.1	90.960	0.450	-0.680	0.520
2020/01/31 04:52:33.2	90.950	0.420	-0.600	0.510
2020/01/31 04:52:33.3	90.950	0.390	-0.520	0.500
2020/01/31 04:52:33.4	90.940	0.350	-0.440	0.500
2020/01/31 04:52:33.5	90.940	0.310	-0.360	0.500
2020/01/31 04:52:33.6	90.930	0.270	-0.270	0.500
2020/01/31 04:52:33.7	90.930	0.220	-0.190	0.500
2020/01/31 04:52:33.8	90.920	0.170	-0.110	0.500
2020/01/31 04:52:33.9	90.910	0.120	-0.030	0.510
2020/01/31 04:52:34.0	90.910	0.060	0.040	0.520
2020/01/31 04:52:34.1	90.900	0.010	0.120	0.530
2020/01/31 04:52:34.2	90.900	-0.050	0.190	0.540
2020/01/31 04:52:34.3	90.900	-0.100	0.250	0.550
2020/01/31 04:52:34.4	90.890	-0.160	0.310	0.570
2020/01/31 04:52:34.5	90.890	-0.220	0.370	0.580
2020/01/31 04:52:34.6	90.890	-0.270	0.420	0.600
2020/01/31 04:52:34.7	90.890	-0.320	0.460	0.610
2020/01/31 04:52:34.8	90.900	-0.380	0.490	0.630
2020/01/31 04:52:34.9	90.900	-0.430	0.520	0.650
2020/01/31 04:52:35.0	90.900	-0.480	0.550	0.660
2020/01/31 04:52:35.1	90.910	-0.520	0.560	0.680
2020/01/31 04:52:35.2	90.920	-0.560	0.570	0.690
2020/01/31 04:52:35.3	90.930	-0.600	0.580	0.700
2020/01/31 04:52:35.4	90.930	-0.640	0.570	0.710
2020/01/31 04:52:35.5	90.940	-0.670	0.560	0.720
2020/01/31 04:52:35.6	90.960	-0.700	0.550	0.730
2020/01/31 04:52:35.7	90.970	-0.720	0.520	0.740
2020/01/31 04:52:35.8	90.980	-0.740	0.500	0.740
2020/01/31 04:52:35.9	90.990	-0.760	0.460	0.750
2020/01/31 04:52:36.0	91.010	-0.770	0.420	0.750
2020/01/31 04:52:36.1	91.020	-0.770	0.380	0.750
2020/01/31 04:52:36.2	91.030	-0.770	0.330	0.750
2020/01/31 04:52:36.3	91.050	-0.760	0.280	0.750
2020/01/31 04:52:36.4	91.060	-0.750	0.220	0.750
2020/01/31 04:52:36.5	91.070	-0.730	0.160	0.750
2020/01/31 04:52:36.6	91.080	-0.710	0.100	0.760
2020/01/31 04:52:36.7	91.090	-0.680	0.030	0.760
2020/01/31 04:52:36.8	91.100	-0.650	-0.030	0.760
2020/01/31 04:52:36.9	91.100	-0.610	-0.100	0.760
2020/01/31 04:52:37.0	91.110	-0.570	-0.170	0.770
2020/01/31 04:52:37.1	91.110	-0.520	-0.240	0.770
2020/01/31 04:52:37.2	91.120	-0.470	-0.310	0.780
2020/01/31 04:52:37.3	91.120	-0.420	-0.370	0.780
2020/01/31 04:52:37.4	91.120	-0.360	-0.430	0.790
2020/01/31 04:52:37.5	91.130	-0.300	-0.490	0.800
2020/01/31 04:52:37.6	91.130	-0.240	-0.550	0.810
2020/01/31 04:52:37.7	91.130	-0.180	-0.600	0.830
2020/01/31 04:52:37.8	91.130	-0.120	-0.640	0.840
2020/01/31 04:52:37.9	91.120	-0.060	-0.680	0.850
2020/01/31 04:52:38.0	91.120	-0.000	-0.720	0.860
2020/01/31 04:52:38.1	91.120	0.060	-0.740	0.880
2020/01/31 04:52:38.2	91.110	0.110	-0.760	0.890
2020/01/31 04:52:38.3	91.110	0.160	-0.780	0.900
2020/01/31 04:52:38.4	91.100	0.210	-0.780	0.910
2020/01/31 04:52:38.5	91.100	0.250	-0.780	0.910
2020/01/31 04:52:38.6	91.090	0.290	-0.780	0.910
2020/01/31 04:52:38.7	91.080	0.330	-0.760	0.910
2020/01/31 04:52:38.8	91.080	0.360	-0.740	0.910
2020/01/31 04:52:38.9	91.070	0.380	-0.720	0.910
2020/01/31 04:52:39.0	91.060	0.400	-0.680	0.900
2020/01/31 04:52:39.1	91.060	0.420	-0.650	0.890
2020/01/31 04:52:39.2	91.050	0.430	-0.600	0.880
2020/01/31 04:52:39.3	91.050	0.430	-0.560	0.860
2020/01/31 04:52:39.4	91.040	0.430	-0.500	0.850
2020/01/31 04:52:39.5	91.030	0.430	-0.450	0.830
2020/01/31 04:52:39.6	91.020	0.420	-0.390	0.810
2020/01/31 04:52:39.7	91.020	0.410	-0.330	0.790
2020/01/31 04:52:39.8	91.010	0.390	-0.270	0.770
2020/01/31 04:52:39.9	91.000	0.380	-0.210	0.740
2020/01/31 04:52:40.0	91.000	0.360	-0.140	0.720
2020/01/31 04:52:40.1	90.990	0.330	-0.080	0.690
2020/01/31 04:52:40.2	90.990	0.310	-0.020	0.670
2020/01/31 04:52:40.3	90.980	0.280	0.040	0.640
2020/01/31 04:52:40.4	90.980	0.260	0.100	0.610
2020/01/31 04:52:40.5	90.990	0.230	0.150	0.580
2020/01/31 04:52:40.6	90.990	0.200	0.200	0.550
2020/01/31 04:52:40.7	91.000	0.180	0.240	0.510
2020/01/31 04:52:40.8	91.000	0.150	0.280	0.480
2020/01/31 04:52:40.9	91.010	0.130	0.320	0.440
2020/01/31 04:52:41.0	91.030	0.110	0.350	0.400
2020/01/31 04:52:41.1	91.040	0.090	0.370	0.360
2020/01/31 04:52:41.2	91.060	0.070	0.390	0.320
2020/01/31 04:52:41.3	91.070	0.060	0.390	0.280
2020/01/31 04:52:41.4	91.090	0.050	0.400	0.250
2020/01/31 04:52:41.5	91.110	0.040	0.390	0.210
2020/01/31 04:52:41.6	91.120	0.030	0.380	0.180
2020/01/31 04:52:41.7	91.140	0.030	0.350	0.150
2020/01/31 04:52:41.8	91.150	0.030	0.330	0.120
2020/01/31 04:52:41.9	91.160	0.040	0.290	0.100
2020/01/31 04:52:42.0	91.170	0.050	0.250	0.080
2020/01/31 04:52:42.1	91.170	0.060	0.200	0.070
2020/01/31 04:52:42.2	91.180	0.070	0.140	0.050
2020/01/31 04:52:42.3	91.180	0.080	0.080	0.040
2020/01/31 04:52:42.4	91.190	0.100	0.020	0.040
2020/01/31 04:52:42.5	91.190	0.120	-0.050	0.040
2020/01/31 04:52:42.6	91.190	0.140	-0.120	0.040
2020/01/31 04:52:42.7	91.190	0.160	-0.200	0.040
2020/01/31 04:52:42.8	91.190	0.180	-0.280	0.040
2020/01/31 04:52:42.9	91.190	0.200	-0.350	0.050
2020/01/31 04:52:43.0	91.190	0.230	-0.430	0.060
2020/01/31 04:52:43.1	91.190	0.250	-0.510	0.070
2020/01/31 04:52:43.2	91.200	0.270	-0.590	0.090
2020/01/31 04:52:43.3	91.200	0.290	-0.660	0.110
2020/01/31 04:52:43.4	91.200	0.310	-0.730	0.130
2020/01/31 04:52:43.5	91.200	0.330	-0.790	0.150
2020/01/31 04:52:43.6	91.200	0.350	-0.850	0.170
2020/01/31 04:52:43.7	91.200	0.360	-0.900	0.190
2020/01/31 04:52:43.8	91.200	0.370	-0.940	0.220
2020/01/31 04:52:43.9	91.200	0.380	-0.980	0.250
2020/01/31 04:52:44.0	91.210	0.390	-1.010	0.280
2020/01/31 04:52:44.1	91.210	0.390	-1.020	0.310
2020/01/31 04:52:44.2	91.210	0.390	-1.030	0.340
2020/01/31 04:52:44.3	91.210	0.390	-1.030	0.380
2020/01/31 04:52:44.4	91.210	0.380	-1.020	0.420
2020/01/31 04:52:44.5	91.210	0.370	-0.990	0.460
2020/01/31 04:52:44.6	91.210	0.360	-0.960	0.500
2020/01/31 04:52:44.7	91.210	0.340	-0.920	0.540
2020/01/31 04:52:44.8	91.210	0.320	-0.870	0.590
2020/01/31 04:52:44.9	91.210	0.300	-0.810	0.630
2020/01/31 04:52:45.0	91.210	0.280	-0.740	0.680
2020/01/31 04:52:45.1	91.210	0.250	-0.660	0.730
2020/01/31 04:52:45.2	91.210	0.220	-0.580	0.780
2020/01/31 04:52:45.3	91.200	0.190	-0.490	0.820
2020/01/31 04:52:45.4	91.200	0.150	-0.400	0.870
2020/01/31 04:52:45.5	91.190	0.110	-0.310	0.910
2020/01/31 04:52:45.6	91.190	0.080	-0.210	0.950
2020/01/31 04:52:45.7	91.180	0.040	-0.120	0.990
2020/01/31 04:52:45.8	91.180	-0.000	-0.020	1.020
2020/01/31 04:52:45.9	91.170	-0.040	0.070	1.060
2020/01/31 04:52:46.0	91.170	-0.080	0.160	1.080
2020/01/31 04:52:46.1	91.160	-0.120	0.240	1.110
2020/01/31 04:52:46.2	91.160	-0.160	0.320	1.130
2020/01/31 04:52:46.3	91.150	-0.190	0.390	1.140
2020/01/31 04:52:46.4	91.150	-0.220	0.450	1.150
2020/01/31 04:52:46.5	91.140	-0.250	0.500	1.160
2020/01/31 04:52:46.6	91.140	-0.280	0.550	1.160
2020/01/31 04:52:46.7	91.140	-0.310	0.580	1.150
2020/01/31 04:52:46.8	91.140	-0.330	0.600	1.140
2020/01/31 04:52:46.9	91.130	-0.340	0.610	1.130
2020/01/31 04:52:47.0	91.130	-0.360	0.610	1.110
2020/01/31 04:52:47.1	91.130	-0.370	0.600	1.090
2020/01/31 04:52:47.2	91.140	-0.370	0.580	1.070
2020/01/31 04:52:47.3	91.130	-0.370	0.540	1.040
2020/01/31 04:52:47.4	91.130	-0.370	0.500	1.020
2020/01/31 04:52:47.5	91.130	-0.360	0.450	1.000
2020/01/31 04:52:47.6	91.130	-0.350	0.390	0.980
2020/01/31 04:52:47.7	91.130	-0.330	0.320	0.970
2020/01/31 04:52:47.8	91.130	-0.320	0.250	0.950
2020/01/31 04:52:47.9	91.120	-0.300	0.180	0.940
2020/01/31 04:52:48.0	91.120	-0.270	0.100	0.930
2020/01/31 04:52:48.1	91.110	-0.250	0.020	0.920
2020/01/31 04:52:48.2	91.100	-0.230	-0.060	0.910
2020/01/31 04:52:48.3	91.090	-0.200	-0.140	0.900
2020/01/31 04:52:48.4	91.090	-0.180	-0.220	0.890
2020/01/31 04:52:48.5	91.080	-0.150	-0.290	0.890
2020/01/31 04:52:48.6	91.070	-0.120	-0.360	0.880
2020/01/31 04:52:48.7	91.060	-0.100	-0.430	0.870
2020/01/31 04:52:48.8	91.050	-0.080	-0.490	0.860
2020/01/31 04:52:48.9	91.040	-0.060	-0.550	0.840
2020/01/31 04:52:49.0	91.040	-0.040	-0.600	0.830
2020/01/31 04:52:49.1	91.030	-0.020	-0.640	0.810
2020/01/31 04:52:49.2	91.020	-0.000	-0.690	0.790
2020/01/31 04:52:49.3	91.010	0.010	-0.720	0.770
2020/01/31 04:52:49.4	91.010	0.020	-0.750	0.750
2020/01/31 04:52:49.5	91.000	0.030	-0.770	0.720
2020/01/31 04:52:49.6	91.000	0.040	-0.790	0.700
2020/01/31 04:52:49.7	91.000	0.040	-0.800	0.670
2020/01/31 04:52:49.8	90.990	0.040	-0.800	0.650
2020/01/31 04:52:49.9	90.990	0.040	-0.800	0.620
2020/01/31 04:52:50.0	90.990	0.030	-0.800	0.600
2020/01/31 04:52:50.1	91.000	0.030	-0.790	0.570
2020/01/31 04:52:50.2	91.000	0.020	-0.770	0.550
2020/01/31 04:52:50.3	91.000	0.010	-0.750	0.530
2020/01/31 04:52:50.4	91.010	-0.010	-0.730	0.510
2020/01/31 04:52:50.5	91.020	-0.020	-0.710	0.500
2020/01/31 04:52:50.6	91.020	-0.040	-0.680	0.490
2020/01/31 04:52:50.7	91.030	-0.060	-0.650	0.480
2020/01/31 04:52:50.8	91.040	-0.070	-0.610	0.480
2020/01/31 04:52:50.9	91.050	-0.090	-0.580	0.480
2020/01/31 04:52:51.0	91.060	-0.110	-0.540	0.480
2020/01/31 04:52:51.1	91.070	-0.130	-0.500	0.490
2020/01/31 04:52:51.2	91.080	-0.150	-0.460	0.500
2020/01/31 04:52:51.3	91.090	-0.170	-0.410	0.510
2020/01/31 04:52:51.4	91.110	-0.200	-0.370	0.520
2020/01/31 04:52:51.5	91.120	-0.220	-0.330	0.540
2020/01/31 04:52:51.6	91.130	-0.240	-0.280	0.560
2020/01/31 04:52:51.7	91.140	-0.260	-0.240	0.580
2020/01/31 04:52:51.8	91.160	-0.280	-0.190	0.600
2020/01/31 04:52:51.9	91.170	-0.290	-0.150	0.620
2020/01/31 04:52:52.0	91.170	-0.310	-0.110	0.640
2020/01/31 04:52:52.1	91.180	-0.330	-0.060	0.660
2020/01/31 04:52:52.2	91.180	-0.340	-0.030	0.680
2020/01/31 04:52:52.3	91.190	-0.360	0.010	0.700
2020/01/31 04:52:52.4	91.190	-0.370	0.040	0.720
2020/01/31 04:52:52.5	91.190	-0.380	0.080	0.730
2020/01/31 04:52:52.6	91.190	-0.380	0.110	0.750
2020/01/31 04:52:52.7	91.190	-0.390	0.130	0.760
2020/01/31 04:52:52.8	91.190	-0.390	0.160	0.780
2020/01/31 04:52:52.9	91.180	-0.390	0.180	0.790
2020/01/31 04:52:53.0	91.180	-0.390	0.190	0.800
2020/01/31 04:52:53.1	91.180	-0.390	0.210	0.810
2020/01/31 04:52:53.2	91.160	-0.380	0.220	0.820
2020/01/31 04:52:53.3	91.150	-0.370	0.230	0.830
2020/01/31 04:52:53.4	91.150	-0.360	0.230	0.830
2020/01/31 04:52:53.5	91.140	-0.350	0.230	0.840
2020/01/31 04:52:53.6	91.140	-0.330	0.230	0.850
2020/01/31 04:52:53.7	91.130	-0.320	0.220	0.860
2020/01/31 04:52:53.8	91.120	-0.300	0.210	0.860
2020/01/31 04:52:53.9	91.120	-0.280	0.200	0.870
2020/01/31 04:52:54.0	91.110	-0.250	0.180	0.880
2020/01/31 04:52:54.1	91.110	-0.230	0.160	0.890
2020/01/31 04:52:54.2	91.110	-0.200	0.130	0.900
2020/01/31 04:52:54.3	91.100	-0.170	0.110	0.910
2020/01/31 04:52:54.4	91.100	-0.140	0.080	0.910
2020/01/31 04:52:54.5	91.100	-0.110	0.050	0.920
2020/01/31 04:52:54.6	91.100	-0.070	0.010	0.920
2020/01/31 04:52:54.7	91.100	-0.040	-0.020	0.930
2020/01/31 04:52:54.8	91.110	0.000	-0.060	0.930
2020/01/31 04:52:54.9	91.110	0.040	-0.100	0.930
2020/01/31 04:52:55.0	91.120	0.080	-0.140	0.930
2020/01/31 04:52:55.1	91.120	0.120	-0.180	0.930
2020/01/31 04:52:55.2	91.130	0.160	-0.220	0.920
2020/01/31 04:52:55.3	91.140	0.200	-0.260	0.910
2020/01/31 04:52:55.4	91.150	0.240	-0.300	0.900
2020/01/31 04:52:55.5	91.160	0.280	-0.340	0.880
2020/01/31 04:52:55.6	91.170	0.320	-0.380	0.860
2020/01/31 04:52:55.7	91.180	0.360	-0.420	0.840
2020/01/31 04:52:55.8	91.200	0.400	-0.460	0.810
2020/01/31 04:52:55.9	91.210	0.440	-0.490	0.780
2020/01/31 04:52:56.0	91.220	0.470	-0.520	0.750
2020/01/31 04:52:56.1	91.220	0.510	-0.540	0.720
2020/01/31 04:52:56.2	91.230	0.540	-0.560	0.680
2020/01/31 04:52:56.3	91.240	0.570	-0.580	0.640
2020/01/31 04:52:56.4	91.240	0.590	-0.590	0.610
2020/01/31 04:52:56.5	91.250	0.620	-0.600	0.570
2020/01/31 04:52:56.6	91.250	0.630	-0.600	0.530
2020/01/31 04:52:56.7	91.250	0.650	-0.590	0.490
2020/01/31 04:52:56.8	91.240	0.660	-0.580	0.450
2020/01/31 04:52:56.9	91.240	0.670	-0.570	0.410
2020/01/31 04:52:57.0	91.230	0.680	-0.550	0.380
2020/01/31 04:52:57.1	91.220	0.680	-0.520	0.350
2020/01/31 04:52:57.2	91.210	0.680	-0.500	0.320
2020/01/31 04:52:57.3	91.200	0.670	-0.460	0.290
2020/01/31 04:52:57.4	91.190	0.660	-0.420	0.270
2020/01/31 04:52:57.5	91.170	0.650	-0.370	0.250
2020/01/31 04:52:57.6	91.160	0.630	-0.330	0.240
2020/01/31 04:52:57.7	91.140	0.610	-0.280	0.230
2020/01/31 04:52:57.8	91.130	0.590	-0.230	0.220
2020/01/31 04:52:57.9	91.120	0.560	-0.180	0.220
2020/01/31 04:52:58.0	91.100	0.530	-0.130	0.220
2020/01/31 04:52:58.1	91.090	0.500	-0.080	0.230
2020/01/31 04:52:58.2	91.090	0.460	-0.030	0.240
2020/01/31 04:52:58.3	91.080	0.430	0.020	0.250
2020/01/31 04:52:58.4	91.070	0.390	0.060	0.260
2020/01/31 04:52:58.5	91.060	0.360	0.090	0.280
2020/01/31 04:52:58.6	91.050	0.320	0.120	0.290
2020/01/31 04:52:58.7	91.050	0.280	0.140	0.310
2020/01/31 04:52:58.8	91.050	0.250	0.150	0.330
2020/01/31 04:52:58.9	91.040	0.210	0.160	0.350
2020/01/31 04:52:59.0	91.040	0.170	0.160	0.370
2020/01/31 04:52:59.1	91.040	0.140	0.150	0.400
2020/01/31 04:52:59.2	91.040	0.110	0.130	0.420
2020/01/31 04:52:59.3	91.050	0.080	0.100	0.430
2020/01/31 04:52:59.4	91.050	0.060	0.060	0.450
2020/01/31 04:52:59.5	91.060	0.030	0.020	0.470
2020/01/31 04:52:59.6	91.070	0.010	-0.020	0.480
2020/01/31 04:52:59.7	91.080	-0.010	-0.080	0.490
2020/01/31 04:52:59.8	91.100	-0.030	-0.140	0.500
2020/01/31 04:52:59.9	91.110	-0.040	-0.200	0.510
2020/01/31 04:53:00.0	91.130	-0.050	-0.270	0.510
2020/01/31 04:53:00.1	91.150	-0.060	-0.340	0.510
2020/01/31 04:53:00.2	91.170	-0.070	-0.400	0.520
2020/01/31 04:53:00.3	91.190	-0.080	-0.470	0.520
2020/01/31 04:53:00.4	91.220	-0.080	-0.530	0.520
2020/01/31 04:53:00.5	91.240	-0.090	-0.600	0.520
2020/01/31 04:53:00.6	91.270	-0.090	-0.650	0.520
2020/01/31 04:53:00.7	91.290	-0.100	-0.700	0.530
2020/01/31 04:53:00.8	91.320	-0.100	-0.750	0.540
2020/01/31 04:53:00.9	91.350	-0.110	-0.780	0.550
2020/01/31 04:53:01.0	91.370	-0.110	-0.810	0.570
2020/01/31 04:53:01.1	91.400	-0.120	-0.830	0.590
2020/01/31 04:53:01.2	91.420	-0.130	-0.840	0.610
2020/01/31 04:53:01.3	91.440	-0.140	-0.840	0.640
2020/01/31 04:53:01.4	91.470	-0.150	-0.820	0.670
2020/01/31 04:53:01.5	91.490	-0.160	-0.800	0.710
2020/01/31 04:53:01.6	91.510	-0.180	-0.770	0.750
2020/01/31 04:53:01.7	91.520	-0.190	-0.730	0.790
2020/01/31 04:53:01.8	91.540	-0.210	-0.670	0.840
2020/01/31 04:53:01.9	91.550	-0.240	-0.620	0.890
2020/01/31 04:53:02.0	91.560	-0.260	-0.550	0.940
2020/01/31 04:53:02.1	91.570	-0.290	-0.480	1.000
2020/01/31 04:53:02.2	91.590	-0.320	-0.390	1.060
2020/01/31 04:53:02.3	91.590	-0.350	-0.310	1.110
2020/01/31 04:53:02.4	91.600	-0.380	-0.230	1.170
2020/01/31 04:53:02.5	91.610	-0.410	-0.140	1.220
2020/01/31 04:53:02.6	91.610	-0.440	-0.050	1.260
2020/01/31 04:53:02.7	91.620	-0.470	0.030	1.310
2020/01/31 04:53:02.8	91.620	-0.510	0.120	1.350
2020/01/31 04:53:02.9	91.620	-0.540	0.200	1.390
2020/01/31 04:53:03.0	91.620	-0.570	0.280	1.420
2020/01/31 04:53:03.1	91.630	-0.600	0.350	1.450
2020/01/31 04:53:03.2	91.630	-0.630	0.420	1.470
2020/01/31 04:53:03.3	91.630	-0.650	0.480	1.490
2020/01/31 04:53:03.4	91.640	-0.680	0.540	1.500
2020/01/31 04:53:03.5	91.640	-0.700	0.590	1.510
2020/01/31 04:53:03.6	91.640	-0.710	0.620	1.510
2020/01/31 04:53:03.7	91.650	-0.730	0.650	1.510
2020/01/31 04:53:03.8	91.650	-0.740	0.670	1.500
2020/01/31 04:53:03.9	91.650	-0.740	0.680	1.480
2020/01/31 04:53:04.0	91.660	-0.740	0.670	1.460
2020/01/31 04:53:04.1	91.670	-0.740	0.660	1.430
2020/01/31 04:53:04.2	91.670	-0.730	0.640	1.400
2020/01/31 04:53:04.3	91.680	-0.710	0.600	1.360
2020/01/31 04:53:04.4	91.690	-0.690	0.560	1.330
2020/01/31 04:53:04.5	91.690	-0.670	0.510	1.290
2020/01/31 04:53:04.6	91.700	-0.640	0.440	1.240
2020/01/31 04:53:04.7	91.700	-0.600	0.380	1.200
2020/01/31 04:53:04.8	91.710	-0.570	0.300	1.150
2020/01/31 04:53:04.9	91.710	-0.520	0.210	1.110
2020/01/31 04:53:05.0	91.720	-0.470	0.120	1.060
2020/01/31 04:53:05.1	91.720	-0.420	0.030	1.010
2020/01/31 04:53:05.2	91.720	-0.370	-0.070	0.960
2020/01/31 04:53:05.3	91.720	-0.310	-0.170	0.910
2020/01/31 04:53:05.4	91.720	-0.250	-0.270	0.860
2020/01/31 04:53:05.5	91.730	-0.190	-0.370	0.810
2020/01/31 04:53:05.6	91.730	-0.120	-0.460	0.750
2020/01/31 04:53:05.7	91.730	-0.060	-0.560	0.690
2020/01/31 04:53:05.8	91.740	0.010	-0.650	0.640
2020/01/31 04:53:05.9	91.750	0.070	-0.740	0.570
2020/01/31 04:53:06.0	91.750	0.140	-0.820	0.510
2020/01/31 04:53:06.1	91.760	0.200	-0.890	0.450
2020/01/31 04:53:06.2	91.770	0.260	-0.960	0.380
2020/01/31 04:53:06.3	91.780	0.320	-1.020	0.320
2020/01/31 04:53:06.4	91.800	0.370	-1.060	0.260
2020/01/31 04:53:06.5	91.810	0.430	-1.100	0.200
2020/01/31 04:53:06.6	91.830	0.470	-1.120	0.140
2020/01/31 04:53:06.7	91.840	0.520	-1.140	0.090
2020/01/31 04:53:06.8	91.860	0.560	-1.140	0.040
2020/01/31 04:53:06.9	91.880	0.590	-1.140	-0.010
2020/01/31 04:53:07.0	91.900	0.620	-1.120	-0.060
2020/01/31 04:53:07.1	91.920	0.650	-1.100	-0.100
2020/01/31 04:53:07.2	91.930	0.670	-1.060	-0.130
2020/01/31 04:53:07.3	91.950	0.680	-1.020	-0.150
2020/01/31 04:53:07.4	91.970	0.690	-0.960	-0.180
2020/01/31 04:53:07.5	91.990	0.690	-0.900	-0.190
2020/01/31 04:53:07.6	92.000	0.690	-0.840	-0.200
2020/01/31 04:53:07.7	92.020	0.680	-0.770	-0.200
2020/01/31 04:53:07.8	92.030	0.670	-0.690	-0.200
2020/01/31 04:53:07.9	92.040	0.660	-0.610	-0.190
2020/01/31 04:53:08.0	92.050	0.640	-0.530	-0.180
2020/01/31 04:53:08.1	92.060	0.620	-0.450	-0.160
2020/01/31 04:53:08.2	92.070	0.590	-0.360	-0.140
2020/01/31 04:53:08.3	92.070	0.560	-0.280	-0.110
2020/01/31 04:53:08.4	92.080	0.530	-0.200	-0.080
2020/01/31 04:53:08.5	92.080	0.500	-0.120	-0.050
2020/01/31 04:53:08.6	92.080	0.460	-0.050	-0.020
2020/01/31 04:53:08.7	92.080	0.420	0.020	0.010
2020/01/31 04:53:08.8	92.070	0.380	0.080	0.040
2020/01/31 04:53:08.9	92.070	0.340	0.140	0.070
2020/01/31 04:53:09.0	92.060	0.300	0.190	0.100
2020/01/31 04:53:09.1	92.050	0.260	0.240	0.130
2020/01/31 04:53:09.2	92.060	0.230	0.270	0.160
2020/01/31 04:53:09.3	92.050	0.190	0.310	0.180
2020/01/31 04:53:09.4	92.040	0.150	0.330	0.210
2020/01/31 04:53:09.5	92.030	0.110	0.350	0.230
2020/01/31 04:53:09.6	92.020	0.080	0.360	0.240
2020/01/31 04:53:09.7	92.010	0.050	0.360	0.250
2020/01/31 04:53:09.8	92.010	0.020	0.350	0.260
2020/01/31 04:53:09.9	92.000	-0.010	0.340	0.270
2020/01/31 04:53:10.0	92.000	-0.030	0.320	0.280
2020/01/31 04:53:10.1	92.000	-0.050	0.300	0.280
2020/01/31 04:53:10.2	92.000	-0.070	0.270	0.280
2020/01/31 04:53:10.3	92.000	-0.080	0.230	0.280
2020/01/31 04:53:10.4	92.010	-0.090	0.180	0.280
2020/01/31 04:53:10.5	92.010	-0.100	0.140	0.280
2020/01/31 04:53:10.6	92.020	-0.110	0.090	0.280
2020/01/31 04:53:10.7	92.030	-0.110	0.030	0.280
2020/01/31 04:53:10.8	92.040	-0.110	-0.020	0.290
2020/01/31 04:53:10.9	92.040	-0.110	-0.070	0.310
2020/01/31 04:53:11.0	92.050	-0.100	-0.130	0.320
2020/01/31 04:53:11.1	92.050	-0.100	-0.180	0.340
2020/01/31 04:53:11.2	92.060	-0.090	-0.240	0.370
2020/01/31 04:53:11.3	92.060	-0.090	-0.280	0.400
2020/01/31 04:53:11.4	92.060	-0.080	-0.330	0.430
2020/01/31 04:53:11.5	92.060	-0.070	-0.360	0.460
2020/01/31 04:53:11.6	92.050	-0.070	-0.400	0.490
2020/01/31 04:53:11.7	92.050	-0.060	-0.430	0.520
2020/01/31 04:53:11.8	92.040	-0.050	-0.450	0.550
2020/01/31 04:53:11.9	92.030	-0.050	-0.470	0.580
2020/01/31 04:53:12.0	92.020	-0.050	-0.480	0.610
2020/01/31 04:53:12.1	92.020	-0.050	-0.480	0.630
2020/01/31 04:53:12.2	92.000	-0.050	-0.480	0.660
2020/01/31 04:53:12.3	91.990	-0.050	-0.480	0.670
2020/01/31 04:53:12.4	91.980	-0.060	-0.470	0.690
2020/01/31 04:53:12.5	91.980	-0.070	-0.450	0.700
2020/01/31 04:53:12.6	91.970	-0.070	-0.430	0.710
2020/01/31 04:53:12.7	91.960	-0.090	-0.410	0.720
2020/01/31 04:53:12.8	91.950	-0.100	-0.380	0.720
2020/01/31 04:53:12.9	91.940	-0.110	-0.350	0.720
2020/01/31 04:53:13.0	91.940	-0.130	-0.310	0.720
2020/01/31 04:53:13.1	91.930	-0.150	-0.280	0.720
2020/01/31 04:53:13.2	91.930	-0.170	-0.240	0.720
2020/01/31 04:53:13.3	91.930	-0.190	-0.200	0.710
2020/01/31 04:53:13.4	91.930	-0.210	-0.160	0.710
2020/01/31 04:53:13.5	91.930	-0.230	-0.120	0.700
2020/01/31 04:53:13.6	91.930	-0.250	-0.080	0.690
2020/01/31 04:53:13.7	91.930	-0.270	-0.050	0.690
2020/01/31 04:53:13.8	91.940	-0.290	-0.020	0.680
2020/01/31 04:53:13.9	91.940	-0.300	0.020	0.680
2020/01/31 04:53:14.0	91.950	-0.320	0.040	0.680
2020/01/31 04:53:14.1	91.960	-0.340	0.070	0.670
2020/01/31 04:53:14.2	91.960	-0.350	0.090	0.680
2020/01/31 04:53:14.3	91.970	-0.360	0.100	0.680
2020/01/31 04:53:14.4	91.980	-0.370	0.110	0.670
2020/01/31 04:53:14.5	91.990	-0.370	0.120	0.670
2020/01/31 04:53:14.6	92.000	-0.380	0.120	0.670
2020/01/31 04:53:14.7	92.020	-0.380	0.120	0.660
2020/01/31 04:53:14.8	92.030	-0.380	0.110	0.650
2020/01/31 04:53:14.9	92.040	-0.370	0.100	0.640
2020/01/31 04:53:15.0	92.060	-0.360	0.080	0.630
2020/01/31 04:53:15.1	92.070	-0.350	0.060	0.620
2020/01/31 04:53:15.2	92.090	-0.330	0.030	0.600
2020/01/31 04:53:15.3	92.100	-0.310	-0.010	0.580
2020/01/31 04:53:15.4	92.120	-0.290	-0.040	0.550
2020/01/31 04:53:15.5	92.140	-0.260	-0.080	0.530
2020/01/31 04:53:15.6	92.160	-0.230	-0.130	0.500
2020/01/31 04:53:15.7	92.180	-0.200	-0.180	0.470
2020/01/31 04:53:15.8	92.200	-0.170	-0.230	0.440
2020/01/31 04:53:15.9	92.220	-0.130	-0.280	0.410
2020/01/31 04:53:16.0	92.240	-0.090	-0.330	0.380
2020/01/31 04:53:16.1	92.250	-0.050	-0.390	0.360
2020/01/31 04:53:16.2	92.270	-0.000	-0.450	0.330
2020/01/31 04:53:16.3	92.280	0.040	-0.500	0.310
2020/01/31 04:53:16.4	92.290	0.090	-0.560	0.290
2020/01/31 04:53:16.5	92.300	0.140	-0.610	0.280
2020/01/31 04:53:16.6	92.300	0.190	-0.660	0.270
2020/01/31 04:53:16.7	92.310	0.230	-0.710	0.260
2020/01/31 04:53:16.8	92.310	0.280	-0.750	0.260
2020/01/31 04:53:16.9	92.310	0.330	-0.790	0.270
2020/01/31 04:53:17.0	92.300	0.370	-0.820	0.270
2020/01/31 04:53:17.1	92.300	0.420	-0.840	0.280
2020/01/31 04:53:17.2	92.290	0.460	-0.870	0.290
2020/01/31 04:53:17.3	92.290	0.490	-0.880	0.310
2020/01/31 04:53:17.4	92.280	0.530	-0.880	0.330
2020/01/31 04:53:17.5	92.270	0.560	-0.880	0.340
2020/01/31 04:53:17.6	92.260	0.580	-0.870	0.360
2020/01/31 04:53:17.7	92.250	0.600	-0.850	0.380
2020/01/31 04:53:17.8	92.230	0.620	-0.820	0.400
2020/01/31 04:53:17.9	92.220	0.630	-0.780	0.420
2020/01/31 04:53:18.0	92.210	0.630	-0.730	0.440
2020/01/31 04:53:18.1	92.190	0.630	-0.680	0.460
2020/01/31 04:53:18.2	92.180	0.630	-0.620	0.480
2020/01/31 04:53:18.3	92.160	0.610	-0.560	0.500
2020/01/31 04:53:18.4	92.150	0.600	-0.480	0.520
2020/01/31 04:53:18.5	92.130	0.570	-0.410	0.540
2020/01/31 04:53:18.6	92.110	0.540	-0.320	0.560
2020/01/31 04:53:18.7	92.090	0.500	-0.240	0.580
2020/01/31 04:53:18.8	92.080	0.460	-0.150	0.600
2020/01/31 04:53:18.9	92.060	0.420	-0.060	0.620
2020/01/31 04:53:19.0	92.040	0.360	0.030	0.640
2020/01/31 04:53:19.1	92.020	0.310	0.130	0.650
2020/01/31 04:53:19.2	92.000	0.250	0.220	0.670
2020/01/31 04:53:19.3	91.990	0.190	0.300	0.690
2020/01/31 04:53:19.4	91.970	0.120	0.390	0.700
2020/01/31 04:53:19.5	91.960	0.050	0.470	0.720
2020/01/31 04:53:19.6	91.940	-0.020	0.550	0.730
2020/01/31 04:53:19.7	91.930	-0.090	0.620	0.740
2020/01/31 04:53:19.8	91.920	-0.160	0.680	0.750
2020/01/31 04:53:19.9	91.910	-0.230	0.730	0.760
2020/01/31 04:53:20.0	91.900	-0.290	0.780	0.760
2020/01/31 04:53:20.1	91.900	-0.360	0.810	0.770
2020/01/31 04:53:20.2	91.890	-0.420	0.840	0.760
2020/01/31 04:53:20.3	91.900	-0.480	0.860	0.760
2020/01/31 04:53:20.4	91.900	-0.530	0.860	0.760
2020/01/31 04:53:20.5	91.900	-0.580	0.850	0.750
2020/01/31 04:53:20.6	91.910	-0.630	0.820	0.740
2020/01/31 04:53:20.7	91.920	-0.660	0.790	0.720
2020/01/31 04:53:20.8	91.930	-0.690	0.740	0.710
2020/01/31 04:53:20.9	91.930	-0.720	0.690	0.690
2020/01/31 04:53:21.0	91.940	-0.730	0.620	0.680
2020/01/31 04:53:21.1	91.950	-0.740	0.540	0.660
2020/01/31 04:53:21.2	91.960	-0.740	0.450	0.650
2020/01/31 04:53:21.3	91.970	-0.730	0.350	0.630
2020/01/31 04:53:21.4	91.970	-0.710	0.240	0.610
2020/01/31 04:53:21.5	91.980	-0.690	0.130	0.600
2020/01/31 04:53:21.6	91.980	-0.650	0.010	0.580
2020/01/31 04:53:21.7	91.990	-0.610	-0.110	0.570
2020/01/31 04:53:21.8	91.990	-0.560	-0.240	0.560
2020/01/31 04:53:21.9	91.990	-0.510	-0.370	0.540
2020/01/31 04:53:22.0	91.990	-0.450	-0.500	0.530
2020/01/31 04:53:22.1	91.990	-0.380	-0.630	0.510
2020/01/31 04:53:22.2	92.000	-0.310	-0.760	0.500
2020/01/31 04:53:22.3	92.000	-0.230	-0.880	0.490
2020/01/31 04:53:22.4	92.000	-0.150	-1.000	0.480
2020/01/31 04:53:22.5	92.000	-0.070	-1.100	0.470
2020/01/31 04:53:22.6	92.000	0.010	-1.210	0.460
2020/01/31 04:53:22.7	92.000	0.100	-1.300	0.450
2020/01/31 04:53:22.8	92.000	0.180	-1.380	0.450
2020/01/31 04:53:22.9	92.000	0.260	-1.450	0.450
2020/01/31 04:53:23.0	92.000	0.340	-1.510	0.460
2020/01/31 04:53:23.1	92.000	0.410	-1.560	0.470
2020/01/31 04:53:23.2	92.000	0.490	-1.590	0.490
2020/01/31 04:53:23.3	92.000	0.550	-1.610	0.510
2020/01/31 04:53:23.4	92.000	0.610	-1.620	0.540
2020/01/31 04:53:23.5	92.000	0.660	-1.600	0.570
2020/01/31 04:53:23.6	92.000	0.710	-1.580	0.600
2020/01/31 04:53:23.7	92.000	0.740	-1.540	0.630
2020/01/31 04:53:23.8	92.000	0.770	-1.480	0.670
2020/01/31 04:53:23.9	92.000	0.790	-1.410	0.710
2020/01/31 04:53:24.0	92.000	0.800	-1.330	0.750
2020/01/31 04:53:24.1	92.000	0.800	-1.240	0.790
2020/01/31 04:53:24.2	92.000	0.790	-1.130	0.830
2020/01/31 04:53:24.3	92.000	0.780	-1.020	0.870
2020/01/31 04:53:24.4	92.000	0.750	-0.890	0.900
2020/01/31 04:53:24.5	92.000	0.720	-0.760	0.940
2020/01/31 04:53:24.6	91.990	0.680	-0.620	0.970
2020/01/31 04:53:24.7	91.990	0.630	-0.480	0.990
2020/01/31 04:53:24.8	91.990	0.570	-0.330	1.010
2020/01/31 04:53:24.9	91.990	0.500	-0.180	1.030
2020/01/31 04:53:25.0	91.990	0.430	-0.030	1.040
2020/01/31 04:53:25.1	91.990	0.360	0.120	1.050
2020/01/31 04:53:25.2	91.980	0.280	0.270	1.050
2020/01/31 04:53:25.3	91.980	0.200	0.410	1.050
2020/01/31 04:53:25.4	91.980	0.120	0.550	1.040
2020/01/31 04:53:25.5	91.980	0.030	0.680	1.030
2020/01/31 04:53:25.6	91.980	-0.050	0.810	1.010
2020/01/31 04:53:25.7	91.980	-0.140	0.920	0.990
2020/01/31 04:53:25.8	91.980	-0.220	1.020	0.960
2020/01/31 04:53:25.9	91.980	-0.300	1.110	0.940
2020/01/31 04:53:26.0	91.980	-0.370	1.180	0.910
2020/01/31 04:53:26.1	91.980	-0.440	1.240	0.870
2020/01/31 04:53:26.2	91.990	-0.500	1.280	0.840
2020/01/31 04:53:26.3	91.990	-0.550	1.310	0.800
2020/01/31 04:53:26.4	92.000	-0.600	1.310	0.760
2020/01/31 04:53:26.5	92.000	-0.640	1.300	0.730
2020/01/31 04:53:26.6	92.010	-0.670	1.280	0.690
2020/01/31 04:53:26.7	92.010	-0.690	1.230	0.650
2020/01/31 04:53:26.8	92.020	-0.700	1.170	0.620
2020/01/31 04:53:26.9	92.030	-0.700	1.090	0.590
2020/01/31 04:53:27.0	92.030	-0.700	1.000	0.560
2020/01/31 04:53:27.1	92.040	-0.680	0.900	0.530
2020/01/31 04:53:27.2	92.040	-0.660	0.780	0.500
2020/01/31 04:53:27.3	92.050	-0.630	0.660	0.480
2020/01/31 04:53:27.4	92.050	-0.590	0.520	0.450
2020/01/31 04:53:27.5	92.060	-0.550	0.390	0.430
2020/01/31 04:53:27.6	92.060	-0.500	0.240	0.420
2020/01/31 04:53:27.7	92.070	-0.440	0.100	0.400
2020/01/31 04:53:27.8	92.080	-0.390	-0.050	0.380
2020/01/31 04:53:27.9	92.080	-0.330	-0.190	0.370
2020/01/31 04:53:28.0	92.090	-0.270	-0.330	0.350
2020/01/31 04:53:28.1	92.090	-0.200	-0.470	0.340
2020/01/31 04:53:28.2	92.100	-0.140	-0.600	0.320
2020/01/31 04:53:28.3	92.110	-0.080	-0.720	0.300
2020/01/31 04:53:28.4	92.120	-0.020	-0.830	0.290
2020/01/31 04:53:28.5	92.120	0.040	-0.940	0.270
2020/01/31 04:53:28.6	92.130	0.090	-1.030	0.260
2020/01/31 04:53:28.7	92.140	0.150	-1.110	0.240
2020/01/31 04:53:28.8	92.150	0.190	-1.180	0.220
2020/01/31 04:53:28.9	92.160	0.240	-1.240	0.210
2020/01/31 04:53:29.0	92.170	0.270	-1.280	0.190
2020/01/31 04:53:29.1	92.180	0.310	-1.300	0.180
2020/01/31 04:53:29.2	92.200	0.330	-1.320	0.170
2020/01/31 04:53:29.3	92.210	0.350	-1.320	0.160
2020/01/31 04:53:29.4	92.220	0.370	-1.300	0.160
2020/01/31 04:53:29.5	92.230	0.370	-1.270	0.160
2020/01/31 04:53:29.6	92.240	0.370	-1.230	0.160
2020/01/31 04:53:29.7	92.250	0.370	-1.170	0.160
2020/01/31 04:53:29.8	92.260	0.360	-1.110	0.170
2020/01/31 04:53:29.9	92.270	0.340	-1.030	0.180
2020/01/31 04:53:30.0	92.280	0.320	-0.940	0.200
2020/01/31 04:53:30.1	92.280	0.290	-0.850	0.220
2020/01/31 04:53:30.2	92.290	0.260	-0.740	0.240
2020/01/31 04:53:30.3	92.300	0.230	-0.640	0.260
2020/01/31 04:53:30.4	92.310	0.190	-0.530	0.290
2020/01/31 04:53:30.5	92.310	0.150	-0.420	0.320
2020/01/31 04:53:30.6	92.320	0.100	-0.300	0.350
2020/01/31 04:53:30.7	92.320	0.060	-0.190	0.390
2020/01/31 04:53:30.8	92.320	0.010	-0.080	0.420
2020/01/31 04:53:30.9	92.330	-0.030	0.020	0.460
2020/01/31 04:53:31.0	92.330	-0.080	0.120	0.490
2020/01/31 04:53:31.1	92.330	-0.120	0.210	0.530
2020/01/31 04:53:31.2	92.330	-0.170	0.300	0.570
2020/01/31 04:53:31.3	92.330	-0.210	0.370	0.600
2020/01/31 04:53:31.4	92.340	-0.240	0.440	0.640
2020/01/31 04:53:31.5	92.340	-0.270	0.490	0.670
2020/01/31 04:53:31.6	92.340	-0.300	0.540	0.700
2020/01/31 04:53:31.7	92.340	-0.330	0.570	0.730
2020/01/31 04:53:31.8	92.350	-0.350	0.580	0.750
2020/01/31 04:53:31.9	92.350	-0.360	0.590	0.780
2020/01/31 04:53:32.0	92.350	-0.370	0.580	0.800
2020/01/31 04:53:32.1	92.350	-0.380	0.570	0.820
2020/01/31 04:53:32.2	92.350	-0.380	0.540	0.830
2020/01/31 04:53:32.3	92.340	-0.370	0.500	0.850
2020/01/31 04:53:32.4	92.340	-0.360	0.450	0.870
2020/01/31 04:53:32.5	92.330	-0.350	0.390	0.880
2020/01/31 04:53:32.6	92.320	-0.330	0.330	0.890
2020/01/31 04:53:32.7	92.310	-0.310	0.260	0.910
2020/01/31 04:53:32.8	92.300	-0.280	0.190	0.920
2020/01/31 04:53:32.9	92.280	-0.250	0.110	0.930
2020/01/31 04:53:33.0	92.260	-0.220	0.030	0.930
2020/01/31 04:53:33.1	92.240	-0.190	-0.050	0.940
2020/01/31 04:53:33.2	92.230	-0.160	-0.140	0.940
2020/01/31 04:53:33.3	92.200	-0.120	-0.220	0.940
2020/01/31 04:53:33.4	92.180	-0.090	-0.300	0.940
2020/01/31 04:53:33.5	92.160	-0.050	-0.380	0.940
2020/01/31 04:53:33.6	92.130	-0.010	-0.450	0.940
2020/01/31 04:53:33.7	92.110	0.020	-0.520	0.930
2020/01/31 04:53:33.8	92.080	0.060	-0.590	0.930
2020/01/31 04:53:33.9	92.060	0.100	-0.650	0.920
2020/01/31 04:53:34.0	92.030	0.130	-0.710	0.910
2020/01/31 04:53:34.1	92.010	0.160	-0.750	0.900
2020/01/31 04:53:34.2	91.990	0.190	-0.810	0.890
2020/01/31 04:53:34.3	91.970	0.220	-0.850	0.880
2020/01/31 04:53:34.4	91.950	0.250	-0.880	0.870
2020/01/31 04:53:34.5	91.940	0.270	-0.900	0.850
2020/01/31 04:53:34.6	91.920	0.290	-0.920	0.840
2020/01/31 04:53:34.7	91.910	0.310	-0.930	0.820
2020/01/31 04:53:34.8	91.910	0.330	-0.940	0.800
2020/01/31 04:53:34.9	91.910	0.350	-0.940	0.780
2020/01/31 04:53:35.0	91.910	0.360	-0.940	0.760
2020/01/31 04:53:35.1	91.910	0.370	-0.930	0.740
2020/01/31 04:53:35.2	91.920	0.380	-0.900	0.720
2020/01/31 04:53:35.3	91.930	0.390	-0.890	0.690
2020/01/31 04:53:35.4	91.940	0.400	-0.860	0.670
2020/01/31 04:53:35.5	91.950	0.400	-0.840	0.640
2020/01/31 04:53:35.6	91.970	0.400	-0.810	0.620
2020/01/31 04:53:35.7	91.980	0.400	-0.770	0.590
2020/01/31 04:53:35.8	92.000	0.400	-0.740	0.570
2020/01/31 04:53:35.9	92.020	0.390	-0.700	0.550
2020/01/31 04:53:36.0	92.040	0.390	-0.660	0.530
2020/01/31 04:53:36.1	92.060	0.380	-0.610	0.510
2020/01/31 04:53:36.2	92.080	0.370	-0.570	0.490
2020/01/31 04:53:36.3	92.090	0.370	-0.520	0.470
2020/01/31 04:53:36.4	92.110	0.360	-0.470	0.460
2020/01/31 04:53:36.5	92.130	0.350	-0.420	0.440
2020/01/31 04:53:36.6	92.140	0.340	-0.370	0.430
2020/01/31 04:53:36.7	92.150	0.320	-0.320	0.420
2020/01/31 04:53:36.8	92.160	0.310	-0.260	0.420
2020/01/31 04:53:36.9	92.170	0.300	-0.210	0.410
2020/01/31 04:53:37.0	92.180	0.290	-0.160	0.410
2020/01/31 04:53:37.1	92.190	0.270	-0.110	0.410
2020/01/31 04:53:37.2	92.190	0.260	-0.050	0.410
2020/01/31 04:53:37.3	92.200	0.240	0.010	0.410
2020/01/31 04:53:37.4	92.200	0.230	0.060	0.410
2020/01/31 04:53:37.5	92.210	0.210	0.110	0.420
2020/01/31 04:53:37.6	92.210	0.200	0.160	0.420
2020/01/31 04:53:37.7	92.220	0.180	0.200	0.430
2020/01/31 04:53:37.8	92.220	0.160	0.250	0.430
2020/01/31 04:53:37.9	92.220	0.150	0.300	0.440
2020/01/31 04:53:38.0	92.220	0.130	0.340	0.440
2020/01/31 04:53:38.1	92.220	0.110	0.390	0.450
2020/01/31 04:53:38.2	92.220	0.090	0.430	0.460
2020/01/31 04:53:38.3	92.220	0.070	0.470	0.470
2020/01/31 04:53:38.4	92.220	0.040	0.500	0.480
2020/01/31 04:53:38.5	92.220	0.020	0.540	0.490
2020/01/31 04:53:38.6	92.220	-0.000	0.570	0.510
2020/01/31 04:53:38.7	92.220	-0.020	0.600	0.520
2020/01/31 04:53:38.8	92.220	-0.050	0.620	0.540
2020/01/31 04:53:38.9	92.220	-0.070	0.640	0.560
2020/01/31 04:53:39.0	92.210	-0.090	0.660	0.580
2020/01/31 04:53:39.1	92.210	-0.120	0.670	0.600
2020/01/31 04:53:39.2	92.200	-0.140	0.680	0.620
2020/01/31 04:53:39.3	92.200	-0.160	0.680	0.650
2020/01/31 04:53:39.4	92.190	-0.180	0.670	0.670
2020/01/31 04:53:39.5	92.190	-0.200	0.660	0.690
2020/01/31 04:53:39.6	92.180	-0.220	0.640	0.710
2020/01/31 04:53:39.7	92.180	-0.240	0.620	0.730
2020/01/31 04:53:39.8	92.170	-0.250	0.590	0.760
2020/01/31 04:53:39.9	92.160	-0.260	0.550	0.780
2020/01/31 04:53:40.0	92.150	-0.270	0.500	0.800
2020/01/31 04:53:40.1	92.150	-0.280	0.450	0.820
2020/01/31 04:53:40.2	92.130	-0.290	0.390	0.840
2020/01/31 04:53:40.3	92.120	-0.290	0.320	0.860
2020/01/31 04:53:40.4	92.120	-0.290	0.250	0.880
2020/01/31 04:53:40.5	92.110	-0.290	0.180	0.890
2020/01/31 04:53:40.6	92.100	-0.280	0.100	0.910
2020/01/31 04:53:40.7	92.090	-0.280	0.010	0.920
2020/01/31 04:53:40.8	92.090	-0.270	-0.080	0.930
2020/01/31 04:53:40.9	92.080	-0.260	-0.160	0.940
2020/01/31 04:53:41.0	92.080	-0.240	-0.250	0.950
2020/01/31 04:53:41.1	92.070	-0.230	-0.350	0.960
2020/01/31 04:53:41.2	92.070	-0.210	-0.440	0.960
2020/01/31 04:53:41.3	92.070	-0.190	-0.530	0.960
2020/01/31 04:53:41.4	92.070	-0.170	-0.620	0.950
2020/01/31 04:53:41.5	92.070	-0.150	-0.710	0.950
2020/01/31 04:53:41.6	92.070	-0.120	-0.790	0.940
2020/01/31 04:53:41.7	92.080	-0.100	-0.870	0.930
2020/01/31 04:53:41.8	92.090	-0.070	-0.940	0.910
2020/01/31 04:53:41.9	92.100	-0.050	-1.010	0.900
2020/01/31 04:53:42.0	92.100	-0.020	-1.070	0.880
2020/01/31 04:53:42.1	92.120	0.010	-1.130	0.870
2020/01/31 04:53:42.2	92.120	0.030	-1.180	0.850
2020/01/31 04:53:42.3	92.130	0.060	-1.220	0.830
2020/01/31 04:53:42.4	92.150	0.090	-1.250	0.820
2020/01/31 04:53:42.5	92.160	0.110	-1.270	0.800
2020/01/31 04:53:42.6	92.180	0.130	-1.280	0.790
2020/01/31 04:53:42.7	92.190	0.160	-1.290	0.780
2020/01/31 04:53:42.8	92.210	0.180	-1.280	0.770
2020/01/31 04:53:42.9	92.220	0.200	-1.260	0.760
2020/01/31 04:53:43.0	92.230	0.210	-1.230	0.760
2020/01/31 04:53:43.1	92.250	0.220	-1.200	0.760
2020/01/31 04:53:43.2	92.260	0.230	-1.160	0.770
2020/01/31 04:53:43.3	92.270	0.240	-1.100	0.770
2020/01/31 04:53:43.4	92.280	0.240	-1.040	0.780
2020/01/31 04:53:43.5	92.290	0.240	-0.970	0.790
2020/01/31 04:53:43.6	92.290	0.240	-0.890	0.810
2020/01/31 04:53:43.7	92.290	0.230	-0.810	0.820
2020/01/31 04:53:43.8	92.290	0.220	-0.720	0.840
2020/01/31 04:53:43.9	92.290	0.200	-0.630	0.860
2020/01/31 04:53:44.0	92.290	0.180	-0.540	0.880
2020/01/31 04:53:44.1	92.280	0.150	-0.440	0.910
2020/01/31 04:53:44.2	92.270	0.130	-0.340	0.940
2020/01/31 04:53:44.3	92.260	0.100	-0.240	0.960
2020/01/31 04:53:44.4	92.250	0.060	-0.150	0.990
2020/01/31 04:53:44.5	92.230	0.030	-0.060	1.010
2020/01/31 04:53:44.6	92.220	-0.010	0.030	1.040
2020/01/31 04:53:44.7	92.200	-0.050	0.120	1.060
2020/01/31 04:53:44.8	92.180	-0.090	0.200	1.090
2020/01/31 04:53:44.9	92.170	-0.130	0.280	1.110
2020/01/31 04:53:45.0	92.150	-0.180	0.350	1.120
2020/01/31 04:53:45.1	92.130	-0.220	0.410	1.140
2020/01/31 04:53:45.2	92.110	-0.260	0.460	1.150
2020/01/31 04:53:45.3	92.090	-0.300	0.510	1.160
2020/01/31 04:53:45.4	92.080	-0.340	0.550	1.160
2020/01/31 04:53:45.5	92.060	-0.380	0.580	1.160
2020/01/31 04:53:45.6	92.050	-0.410	0.610	1.150
2020/01/31 04:53:45.7	92.030	-0.450	0.620	1.140
2020/01/31 04:53:45.8	92.020	-0.480	0.630	1.120
2020/01/31 04:53:45.9	92.010	-0.500	0.630	1.100
2020/01/31 04:53:46.0	92.000	-0.530	0.630	1.080
2020/01/31 04:53:46.1	91.990	-0.550	0.620	1.050
2020/01/31 04:53:46.2	91.980	-0.560	0.600	1.020
2020/01/31 04:53:46.3	91.970	-0.570	0.570	0.990
2020/01/31 04:53:46.4	91.960	-0.580	0.540	0.950
2020/01/31 04:53:46.5	91.960	-0.580	0.510	0.910
2020/01/31 04:53:46.6	91.960	-0.580	0.470	0.870
2020/01/31 04:53:46.7	91.950	-0.580	0.430	0.840
2020/01/31 04:53:46.8	91.950	-0.570	0.380	0.800
2020/01/31 04:53:46.9	91.950	-0.550	0.330	0.760
2020/01/31 04:53:47.0	91.950	-0.530	0.270	0.720
2020/01/31 04:53:47.1	91.950	-0.510	0.210	0.680
2020/01/31 04:53:47.2	91.950	-0.480	0.150	0.650
2020/01/31 04:53:47.3	91.950	-0.450	0.080	0.620
2020/01/31 04:53:47.4	91.950	-0.410	0.010	0.590
2020/01/31 04:53:47.5	91.950	-0.370	-0.060	0.560
2020/01/31 04:53:47.6	91.950	-0.320	-0.140	0.530
2020/01/31 04:53:47.7	91.950	-0.270	-0.220	0.510
2020/01/31 04:53:47.8	91.950	-0.220	-0.300	0.480
2020/01/31 04:53:47.9	91.950	-0.170	-0.380	0.460
2020/01/31 04:53:48.0	91.950	-0.110	-0.460	0.440
2020/01/31 04:53:48.1	91.950	-0.050	-0.550	0.420
2020/01/31 04:53:48.2	91.960	0.020	-0.630	0.400
2020/01/31 04:53:48.3	91.960	0.080	-0.710	0.390
2020/01/31 04:53:48.4	91.960	0.140	-0.800	0.370
2020/01/31 04:53:48.5	91.960	0.210	-0.870	0.350
2020/01/31 04:53:48.6	91.960	0.270	-0.950	0.340
2020/01/31 04:53:48.7	91.950	0.340	-1.020	0.320
2020/01/31 04:53:48.8	91.950	0.400	-1.090	0.300
2020/01/31 04:53:48.9	91.950	0.460	-1.150	0.290
2020/01/31 04:53:49.0	91.950	0.510	-1.210	0.270
2020/01/31 04:53:49.1	91.950	0.570	-1.250	0.260
2020/01/31 04:53:49.2	91.940	0.610	-1.300	0.250
2020/01/31 04:53:49.3	91.940	0.660	-1.330	0.240
2020/01/31 04:53:49.4	91.930	0.700	-1.350	0.230
2020/01/31 04:53:49.5	91.930	0.740	-1.360	0.220
2020/01/31 04:53:49.6	91.920	0.760	-1.360	0.220
2020/01/31 04:53:49.7	91.920	0.790	-1.350	0.220
2020/01/31 04:53:49.8	91.910	0.810	-1.330	0.220
2020/01/31 04:53:49.9	91.900	0.820	-1.300	0.230
2020/01/31 04:53:50.0	91.900	0.820	-1.250	0.240
2020/01/31 04:53:50.1	91.890	0.820	-1.200	0.250
2020/01/31 04:53:50.2	91.890	0.810	-1.130	0.270
2020/01/31 04:53:50.3	91.890	0.800	-1.060	0.280
2020/01/31 04:53:50.4	91.880	0.780	-0.970	0.310
2020/01/31 04:53:50.5	91.880	0.760	-0.880	0.330
2020/01/31 04:53:50.6	91.880	0.720	-0.780	0.360
2020/01/31 04:53:50.7	91.870	0.690	-0.680	0.390
2020/01/31 04:53:50.8	91.870	0.650	-0.570	0.420
2020/01/31 04:53:50.9	91.870	0.600	-0.450	0.450
2020/01/31 04:53:51.0	91.870	0.560	-0.320	0.480
2020/01/31 04:53:51.1	91.860	0.500	-0.200	0.510
2020/01/31 04:53:51.2	91.870	0.450	-0.070	0.540
2020/01/31 04:53:51.3	91.870	0.390	0.060	0.570
2020/01/31 04:53:51.4	91.870	0.330	0.180	0.590
2020/01/31 04:53:51.5	91.870	0.270	0.310	0.620
2020/01/31 04:53:51.6	91.870	0.220	0.430	0.640
2020/01/31 04:53:51.7	91.870	0.160	0.550	0.660
2020/01/31 04:53:51.8	91.880	0.100	0.660	0.680
2020/01/31 04:53:51.9	91.880	0.040	0.770	0.700
2020/01/31 04:53:52.0	91.890	-0.010	0.860	0.710
2020/01/31 04:53:52.1	91.900	-0.070	0.950	0.730
2020/01/31 04:53:52.2	91.910	-0.120	1.020	0.740
2020/01/31 04:53:52.3	91.920	-0.160	1.090	0.740
2020/01/31 04:53:52.4	91.920	-0.200	1.150	0.750
2020/01/31 04:53:52.5	91.930	-0.240	1.190	0.750
2020/01/31 04:53:52.6	91.950	-0.270	1.220	0.750
2020/01/31 04:53:52.7	91.960	-0.300	1.240	0.750
2020/01/31 04:53:52.8	91.970	-0.330	1.240	0.750
2020/01/31 04:53:52.9	91.980	-0.350	1.230	0.740
2020/01/31 04:53:53.0	91.980	-0.360	1.210	0.740
2020/01/31 04:53:53.1	91.990	-0.370	1.180	0.740
2020/01/31 04:53:53.2	92.000	-0.380	1.140	0.730
2020/01/31 04:53:53.3	92.000	-0.380	1.080	0.730
2020/01/31 04:53:53.4	92.000	-0.380	1.020	0.730
2020/01/31 04:53:53.5	92.000	-0.380	0.940	0.730
2020/01/31 04:53:53.6	91.990	-0.370	0.850	0.730
2020/01/31 04:53:53.7	91.990	-0.360	0.760	0.740
2020/01/31 04:53:53.8	91.980	-0.350	0.660	0.740
2020/01/31 04:53:53.9	91.970	-0.330	0.550	0.740
2020/01/31 04:53:54.0	91.960	-0.320	0.440	0.740
2020/01/31 04:53:54.1	91.950	-0.300	0.320	0.740
2020/01/31 04:53:54.2	91.940	-0.280	0.190	0.740
2020/01/31 04:53:54.3	91.930	-0.260	0.070	0.740
2020/01/31 04:53:54.4	91.910	-0.240	-0.050	0.740
2020/01/31 04:53:54.5	91.900	-0.220	-0.180	0.740
2020/01/31 04:53:54.6	91.880	-0.200	-0.300	0.750
2020/01/31 04:53:54.7	91.870	-0.180	-0.420	0.750
2020/01/31 04:53:54.8	91.850	-0.160	-0.540	0.750
2020/01/31 04:53:54.9	91.840	-0.140	-0.650	0.760
2020/01/31 04:53:55.0	91.820	-0.120	-0.760	0.770
2020/01/31 04:53:55.1	91.810	-0.100	-0.860	0.780
2020/01/31 04:53:55.2	91.800	-0.090	-0.950	0.780
2020/01/31 04:53:55.3	91.790	-0.070	-1.040	0.800
2020/01/31 04:53:55.4	91.780	-0.060	-1.120	0.810
2020/01/31 04:53:55.5	91.770	-0.050	-1.180	0.830
2020/01/31 04:53:55.6	91.760	-0.040	-1.240	0.850
2020/01/31 04:53:55.7	91.750	-0.030	-1.290	0.870
2020/01/31 04:53:55.8	91.740	-0.030	-1.320	0.900
2020/01/31 04:53:55.9	91.730	-0.020	-1.350	0.920
2020/01/31 04:53:56.0	91.730	-0.020	-1.360	0.950
2020/01/31 04:53:56.1	91.720	-0.020	-1.360	0.980
2020/01/31 04:53:56.2	91.710	-0.020	-1.340	1.010
2020/01/31 04:53:56.3	91.710	-0.030	-1.320	1.040
2020/01/31 04:53:56.4	91.710	-0.040	-1.290	1.070
2020/01/31 04:53:56.5	91.700	-0.040	-1.250	1.090
2020/01/31 04:53:56.6	91.700	-0.050	-1.200	1.120
2020/01/31 04:53:56.7	91.700	-0.070	-1.140	1.140
2020/01/31 04:53:56.8	91.690	-0.080	-1.070	1.160
2020/01/31 04:53:56.9	91.690	-0.100	-1.000	1.180
2020/01/31 04:53:57.0	91.690	-0.110	-0.920	1.190
2020/01/31 04:53:57.1	91.690	-0.130	-0.830	1.200
2020/01/31 04:53:57.2	91.680	-0.150	-0.750	1.210
2020/01/31 04:53:57.3	91.680	-0.170	-0.660	1.220
2020/01/31 04:53:57.4	91.680	-0.190	-0.570	1.220
2020/01/31 04:53:57.5	91.680	-0.200	-0.470	1.230
2020/01/31 04:53:57.6	91.680	-0.220	-0.380	1.230
2020/01/31 04:53:57.7	91.680	-0.240	-0.300	1.220
2020/01/31 04:53:57.8	91.680	-0.260	-0.210	1.220
2020/01/31 04:53:57.9	91.680	-0.270	-0.130	1.210
2020/01/31 04:53:58.0	91.680	-0.290	-0.050	1.210
2020/01/31 04:53:58.1	91.670	-0.300	0.020	1.200
2020/01/31 04:53:58.2	91.660	-0.310	0.080	1.190
2020/01/31 04:53:58.3	91.660	-0.320	0.140	1.180
2020/01/31 04:53:58.4	91.650	-0.320	0.190	1.170
2020/01/31 04:53:58.5	91.640	-0.330	0.240	1.160
2020/01/31 04:53:58.6	91.640	-0.330	0.270	1.140
2020/01/31 04:53:58.7	91.630	-0.320	0.300	1.130
2020/01/31 04:53:58.8	91.620	-0.320	0.320	1.120
2020/01/31 04:53:58.9	91.610	-0.310	0.330	1.100
2020/01/31 04:53:59.0	91.600	-0.300	0.330	1.080
2020/01/31 04:53:59.1	91.590	-0.290	0.330	1.060
2020/01/31 04:53:59.2	91.590	-0.280	0.320	1.040
2020/01/31 04:53:59.3	91.580	-0.260	0.300	1.020
2020/01/31 04:53:59.4	91.570	-0.240	0.280	1.000
2020/01/31 04:53:59.5	91.560	-0.220	0.250	0.970
2020/01/31 04:53:59.6	91.560	-0.190	0.210	0.940
2020/01/31 04:53:59.7	91.550	-0.170	0.170	0.910
2020/01/31 04:53:59.8	91.540	-0.140	0.130	0.880
2020/01/31 04:53:59.9	91.540	-0.110	0.090	0.850
2020/01/31 04:54:00.0	91.530	-0.090	0.040	0.820
2020/01/31 04:54:00.1	91.530	-0.060	-0.010	0.780
2020/01/31 04:54:00.2	91.530	-0.030	-0.050	0.750
2020/01/31 04:54:00.3	91.530	0.000	-0.100	0.710
2020/01/31 04:54:00.4	91.520	0.030	-0.150	0.680
2020/01/31 04:54:00.5	91.520	0.060	-0.190	0.640
2020/01/31 04:54:00.6	91.520	0.090	-0.230	0.610
2020/01/31 04:54:00.7	91.530	0.110	-0.270	0.580
2020/01/31 04:54:00.8	91.530	0.140	-0.310	0.540
2020/01/31 04:54:00.9	91.540	0.160	-0.340	0.510
2020/01/31 04:54:01.0	91.540	0.190	-0.370	0.480
2020/01/31 04:54:01.1	91.550	0.200	-0.400	0.450
2020/01/31 04:54:01.2	91.560	0.220	-0.420	0.420
2020/01/31 04:54:01.3	91.560	0.240	-0.440	0.390
2020/01/31 04:54:01.4	91.570	0.250	-0.450	0.370
2020/01/31 04:54:01.5	91.580	0.260	-0.460	0.350
2020/01/31 04:54:01.6	91.590	0.270	-0.460	0.330
2020/01/31 04:54:01.7	91.600	0.270	-0.460	0.310
2020/01/31 04:54:01.8	91.610	0.270	-0.460	0.290
2020/01/31 04:54:01.9	91.620	0.270	-0.450	0.280
2020/01/31 04:54:02.0	91.630	0.270	-0.440	0.270
2020/01/31 04:54:02.1	91.630	0.260	-0.430	0.260
2020/01/31 04:54:02.2	91.650	0.250	-0.410	0.260
2020/01/31 04:54:02.3	91.650	0.240	-0.390	0.250
2020/01/31 04:54:02.4	91.650	0.230	-0.370	0.240
2020/01/31 04:54:02.5	91.650	0.220	-0.350	0.240
2020/01/31 04:54:02.6	91.640	0.210	-0.330	0.240
2020/01/31 04:54:02.7	91.640	0.190	-0.310	0.240
2020/01/31 04:54:02.8	91.630	0.180	-0.290	0.240
2020/01/31 04:54:02.9	91.620	0.160	-0.270	0.240
2020/01/31 04:54:03.0	91.600	0.140	-0.250	0.240
2020/01/31 04:54:03.1	91.590	0.130	-0.220	0.250
2020/01/31 04:54:03.2	91.570	0.110	-0.200	0.250
2020/01/31 04:54:03.3	91.550	0.090	-0.180	0.260
2020/01/31 04:54:03.4	91.540	0.080	-0.160	0.270
2020/01/31 04:54:03.5	91.520	0.060	-0.140	0.270
2020/01/31 04:54:03.6	91.510	0.050	-0.120	0.280
2020/01/31 04:54:03.7	91.490	0.040	-0.100	0.300
2020/01/31 04:54:03.8	91.480	0.020	-0.090	0.310
2020/01/31 04:54:03.9	91.460	0.010	-0.070	0.320
2020/01/31 04:54:04.0	91.450	0.000	-0.060	0.340
2020/01/31 04:54:04.1	91.440	-0.010	-0.050	0.360
2020/01/31 04:54:04.2	91.420	-0.010	-0.030	0.380
2020/01/31 04:54:04.3	91.420	-0.020	-0.030	0.400
2020/01/31 04:54:04.4	91.410	-0.020	-0.020	0.420
2020/01/31 04:54:04.5	91.410	-0.030	-0.020	0.440
2020/01/31 04:54:04.6	91.410	-0.030	-0.010	0.470
2020/01/31 04:54:04.7	91.400	-0.030	-0.020	0.500
2020/01/31 04:54:04.8	91.400	-0.030	-0.020	0.530
2020/01/31 04:54:04.9	91.400	-0.030	-0.030	0.560
2020/01/31 04:54:05.0	91.410	-0.020	-0.030	0.590
2020/01/31 04:54:05.1	91.410	-0.020	-0.050	0.620
2020/01/31 04:54:05.2	91.410	-0.010	-0.060	0.650
2020/01/31 04:54:05.3	91.410	-0.010	-0.080	0.680
2020/01/31 04:54:05.4	91.420	-0.000	-0.100	0.710
2020/01/31 04:54:05.5	91.420	0.010	-0.120	0.740
2020/01/31 04:54:05.6	91.430	0.020	-0.150	0.760
2020/01/31 04:54:05.7	91.440	0.020	-0.170	0.790
2020/01/31 04:54:05.8	91.450	0.030	-0.200	0.810
2020/01/31 04:54:05.9	91.450	0.050	-0.230	0.830
2020/01/31 04:54:06.0	91.460	0.060	-0.260	0.850
2020/01/31 04:54:06.1	91.470	0.070	-0.300	0.860
2020/01/31 04:54:06.2	91.480	0.080	-0.330	0.870
2020/01/31 04:54:06.3	91.490	0.090	-0.360	0.880
2020/01/31 04:54:06.4	91.500	0.110	-0.400	0.890
2020/01/31 04:54:06.5	91.510	0.120	-0.430	0.890
2020/01/31 04:54:06.6	91.520	0.130	-0.460	0.900
2020/01/31 04:54:06.7	91.530	0.150	-0.500	0.900
2020/01/31 04:54:06.8	91.540	0.160	-0.530	0.900
2020/01/31 04:54:06.9	91.550	0.180	-0.550	0.890
2020/01/31 04:54:07.0	91.560	0.190	-0.580	0.890
2020/01/31 04:54:07.1	91.570	0.200	-0.600	0.890
2020/01/31 04:54:07.2	91.580	0.220	-0.630	0.890
2020/01/31 04:54:07.3	91.590	0.230	-0.640	0.890
2020/01/31 04:54:07.4	91.600	0.240	-0.650	0.900
2020/01/31 04:54:07.5	91.600	0.250	-0.660	0.910
2020/01/31 04:54:07.6	91.610	0.260	-0.660	0.920
2020/01/31 04:54:07.7	91.610	0.270	-0.650	0.930
2020/01/31 04:54:07.8	91.610	0.270	-0.640	0.950
2020/01/31 04:54:07.9	91.610	0.280	-0.630	0.970
2020/01/31 04:54:08.0	91.610	0.280	-0.600	0.990
2020/01/31 04:54:08.1	91.610	0.280	-0.580	1.010
2020/01/31 04:54:08.2	91.590	0.270	-0.540	1.040
2020/01/31 04:54:08.3	91.580	0.270	-0.500	1.070
2020/01/31 04:54:08.4	91.570	0.260	-0.450	1.100
2020/01/31 04:54:08.5	91.560	0.250	-0.410	1.130
2020/01/31 04:54:08.6	91.540	0.230	-0.360	1.160
2020/01/31 04:54:08.7	91.520	0.210	-0.300	1.190
2020/01/31 04:54:08.8	91.500	0.190	-0.240	1.220
2020/01/31 04:54:08.9	91.480	0.170	-0.180	1.260
2020/01/31 04:54:09.0	91.450	0.140	-0.120	1.290
2020/01/31 04:54:09.1	91.430	0.110	-0.060	1.310
2020/01/31 04:54:09.2	91.410	0.080	-0.010	1.340
2020/01/31 04:54:09.3	91.380	0.050	0.050	1.360
2020/01/31 04:54:09.4	91.350	0.020	0.110	1.380
2020/01/31 04:54:09.5	91.330	-0.020	0.160	1.390
2020/01/31 04:54:09.6	91.300	-0.050	0.210	1.400
2020/01/31 04:54:09.7	91.280	-0.090	0.260	1.410
2020/01/31 04:54:09.8	91.250	-0.130	0.300	1.400
2020/01/31 04:54:09.9	91.240	-0.160	0.340	1.390
2020/01/31 04:54:10.0	91.220	-0.200	0.370	1.380
2020/01/31 04:54:10.1	91.210	-0.240	0.400	1.350
2020/01/31 04:54:10.2	91.200	-0.270	0.420	1.320
2020/01/31 04:54:10.3	91.190	-0.310	0.440	1.290
2020/01/31 04:54:10.4	91.190	-0.340	0.450	1.250
2020/01/31 04:54:10.5	91.190	-0.370	0.450	1.200
2020/01/31 04:54:10.6	91.200	-0.400	0.450	1.160
2020/01/31 04:54:10.7	91.210	-0.420	0.440	1.100
2020/01/31 04:54:10.8	91.220	-0.440	0.430	1.050
2020/01/31 04:54:10.9	91.240	-0.460	0.410	1.000
2020/01/31 04:54:11.0	91.250	-0.480	0.390	0.940
2020/01/31 04:54:11.1	91.270	-0.490	0.360	0.880
2020/01/31 04:54:11.2	91.290	-0.500	0.330	0.820
2020/01/31 04:54:11.3	91.320	-0.500	0.290	0.770
2020/01/31 04:54:11.4	91.340	-0.500	0.250	0.710
2020/01/31 04:54:11.5	91.370	-0.500	0.210	0.660
2020/01/31 04:54:11.6	91.400	-0.500	0.160	0.610
2020/01/31 04:54:11.7	91.420	-0.490	0.120	0.560
2020/01/31 04:54:11.8	91.450	-0.480	0.070	0.520
2020/01/31 04:54:11.9	91.480	-0.460	0.020	0.470
2020/01/31 04:54:12.0	91.510	-0.450	-0.030	0.430
2020/01/31 04:54:12.1	91.530	-0.430	-0.080	0.400
2020/01/31 04:54:12.2	91.560	-0.410	-0.130	0.360
2020/01/31 04:54:12.3	91.580	-0.380	-0.180	0.330
2020/01/31 04:54:12.4	91.610	-0.360	-0.230	0.300
2020/01/31 04:54:12.5	91.630	-0.330	-0.280	0.270
2020/01/31 04:54:12.6	91.650	-0.310	-0.330	0.250
2020/01/31 04:54:12.7	91.660	-0.280	-0.380	0.230
2020/01/31 04:54:12.8	91.670	-0.250	-0.420	0.220
2020/01/31 04:54:12.9	91.680	-0.220	-0.470	0.210
2020/01/31 04:54:13.0	91.690	-0.200	-0.510	0.200
2020/01/31 04:54:13.1	91.690	-0.170	-0.550	0.200
2020/01/31 04:54:13.2	91.690	-0.140	-0.590	0.210
2020/01/31 04:54:13.3	91.690	-0.110	-0.630	0.220
2020/01/31 04:54:13.4	91.680	-0.090	-0.660	0.230
2020/01/31 04:54:13.5	91.670	-0.060	-0.690	0.240
2020/01/31 04:54:13.6	91.650	-0.040	-0.720	0.260
2020/01/31 04:54:13.7	91.630	-0.010	-0.750	0.280
2020/01/31 04:54:13.8	91.610	0.010	-0.770	0.300
2020/01/31 04:54:13.9	91.590	0.030	-0.790	0.320
2020/01/31 04:54:14.0	91.560	0.040	-0.810	0.350
2020/01/31 04:54:14.1	91.530	0.060	-0.820	0.380
2020/01/31 04:54:14.2	91.510	0.070	-0.830	0.400
2020/01/31 04:54:14.3	91.480	0.080	-0.830	0.430
2020/01/31 04:54:14.4	91.450	0.090	-0.830	0.460
2020/01/31 04:54:14.5	91.420	0.090	-0.830	0.490
2020/01/31 04:54:14.6	91.390	0.090	-0.820	0.520
2020/01/31 04:54:14.7	91.360	0.090	-0.800	0.550
2020/01/31 04:54:14.8	91.340	0.090	-0.780	0.580
2020/01/31 04:54:14.9	91.310	0.090	-0.760	0.600
2020/01/31 04:54:15.0	91.290	0.080	-0.730	0.620
2020/01/31 04:54:15.1	91.270	0.070	-0.700	0.650
2020/01/31 04:54:15.2	91.250	0.060	-0.660	0.660
2020/01/31 04:54:15.3	91.230	0.050	-0.620	0.680
2020/01/31 04:54:15.4	91.220	0.040	-0.580	0.700
2020/01/31 04:54:15.5	91.210	0.030	-0.530	0.710
2020/01/31 04:54:15.6	91.200	0.010	-0.480	0.720
2020/01/31 04:54:15.7	91.190	-0.000	-0.430	0.720
2020/01/31 04:54:15.8	91.190	-0.020	-0.380	0.730
2020/01/31 04:54:15.9	91.190	-0.030	-0.330	0.730
2020/01/31 04:54:16.0	91.190	-0.050	-0.270	0.730
2020/01/31 04:54:16.1	91.190	-0.060	-0.210	0.720
2020/01/31 04:54:16.2	91.200	-0.080	-0.160	0.710
2020/01/31 04:54:16.3	91.210	-0.090	-0.100	0.710
2020/01/31 04:54:16.4	91.220	-0.100	-0.050	0.690
2020/01/31 04:54:16.5	91.230	-0.120	0.000	0.680
2020/01/31 04:54:16.6	91.240	-0.120	0.050	0.670
2020/01/31 04:54:16.7	91.250	-0.130	0.090	0.650
2020/01/31 04:54:16.8	91.270	-0.130	0.130	0.630
2020/01/31 04:54:16.9	91.280	-0.140	0.160	0.610
2020/01/31 04:54:17.0	91.300	-0.130	0.190	0.590
2020/01/31 04:54:17.1	91.310	-0.130	0.210	0.570
2020/01/31 04:54:17.2	91.330	-0.120	0.220	0.550
2020/01/31 04:54:17.3	91.340	-0.100	0.220	0.530
2020/01/31 04:54:17.4	91.350	-0.090	0.220	0.520
2020/01/31 04:54:17.5	91.370	-0.070	0.210	0.500
2020/01/31 04:54:17.6	91.380	-0.040	0.190	0.490
2020/01/31 04:54:17.7	91.390	-0.010	0.160	0.470
2020/01/31 04:54:17.8	91.400	0.020	0.120	0.460
2020/01/31 04:54:17.9	91.410	0.050	0.080	0.450
2020/01/31 04:54:18.0	91.420	0.090	0.040	0.450
2020/01/31 04:54:18.1	91.420	0.130	-0.010	0.450
2020/01/31 04:54:18.2	91.430	0.170	-0.070	0.450
2020/01/31 04:54:18.3	91.430	0.210	-0.120	0.450
2020/01/31 04:54:18.4	91.430	0.250	-0.180	0.460
2020/01/31 04:54:18.5	91.430	0.300	-0.240	0.470
2020/01/31 04:54:18.6	91.420	0.340	-0.290	0.480
2020/01/31 04:54:18.7	91.420	0.380	-0.340	0.500
2020/01/31 04:54:18.8	91.410	0.410	-0.390	0.520
2020/01/31 04:54:18.9	91.400	0.440	-0.440	0.550
2020/01/31 04:54:19.0	91.390	0.470	-0.480	0.570
2020/01/31 04:54:19.1	91.370	0.500	-0.510	0.600
2020/01/31 04:54:19.2	91.360	0.520	-0.540	0.620
2020/01/31 04:54:19.3	91.350	0.540	-0.560	0.650
2020/01/31 04:54:19.4	91.330	0.550	-0.570	0.680
2020/01/31 04:54:19.5	91.320	0.560	-0.580	0.710
2020/01/31 04:54:19.6	91.310	0.560	-0.580	0.740
2020/01/31 04:54:19.7	91.290	0.560	-0.570	0.760
2020/01/31 04:54:19.8	91.280	0.550	-0.560	0.790
2020/01/31 04:54:19.9	91.260	0.530	-0.540	0.820
2020/01/31 04:54:20.0	91.250	0.510	-0.510	0.840
2020/01/31 04:54:20.1	91.240	0.490	-0.480	0.870
2020/01/31 04:54:20.2	91.220	0.460	-0.440	0.890
2020/01/31 04:54:20.3	91.210	0.430	-0.400	0.910
2020/01/31 04:54:20.4	91.200	0.390	-0.360	0.930
2020/01/31 04:54:20.5	91.190	0.350	-0.310	0.950
2020/01/31 04:54:20.6	91.180	0.310	-0.260	0.960
2020/01/31 04:54:20.7	91.170	0.260	-0.210	0.980
2020/01/31 04:54:20.8	91.170	0.220	-0.160	0.990
2020/01/31 04:54:20.9	91.160	0.170	-0.110	1.000
2020/01/31 04:54:21.0	91.160	0.120	-0.060	1.010
2020/01/31 04:54:21.1	91.160	0.070	-0.010	1.010
2020/01/31 04:54:21.2	91.150	0.020	0.040	1.010
2020/01/31 04:54:21.3	91.150	-0.020	0.080	1.010
2020/01/31 04:54:21.4	91.150	-0.070	0.120	1.010
2020/01/31 04:54:21.5	91.160	-0.120	0.150	1.010
2020/01/31 04:54:21.6	91.170	-0.160	0.180	1.010
2020/01/31 04:54:21.7	91.170	-0.200	0.210	1.010
2020/01/31 04:54:21.8	91.180	-0.240	0.230	1.000
2020/01/31 04:54:21.9	91.200	-0.270	0.240	0.990
2020/01/31 04:54:22.0	91.210	-0.300	0.250	0.990
2020/01/31 04:54:22.1	91.220	-0.330	0.260	0.980
2020/01/31 04:54:22.2	91.230	-0.350	0.260	0.960
2020/01/31 04:54:22.3	91.240	-0.370	0.260	0.950
2020/01/31 04:54:22.4	91.250	-0.390	0.250	0.940
2020/01/31 04:54:22.5	91.270	-0.400	0.230	0.930
2020/01/31 04:54:22.6	91.280	-0.420	0.220	0.920
2020/01/31 04:54:22.7	91.300	-0.420	0.190	0.910
2020/01/31 04:54:22.8	91.310	-0.430	0.170	0.900
2020/01/31 04:54:22.9	91.320	-0.430	0.140	0.890
2020/01/31 04:54:23.0	91.330	-0.430	0.110	0.880
2020/01/31 04:54:23.1	91.340	-0.420	0.080	0.880
2020/01/31 04:54:23.2	91.350	-0.420	0.050	0.870
2020/01/31 04:54:23.3	91.350	-0.410	0.020	0.860
2020/01/31 04:54:23.4	91.350	-0.400	-0.010	0.850
2020/01/31 04:54:23.5	91.350	-0.390	-0.050	0.840
2020/01/31 04:54:23.6	91.350	-0.380	-0.080	0.830
2020/01/31 04:54:23.7	91.340	-0.370	-0.100	0.830
2020/01/31 04:54:23.8	91.330	-0.350	-0.130	0.820
2020/01/31 04:54:23.9	91.320	-0.340	-0.160	0.810
2020/01/31 04:54:24.0	91.310	-0.330	-0.180	0.800
2020/01/31 04:54:24.1	91.290	-0.310	-0.200	0.800
2020/01/31 04:54:24.2	91.280	-0.300	-0.220	0.800
2020/01/31 04:54:24.3	91.260	-0.290	-0.240	0.790
2020/01/31 04:54:24.4	91.240	-0.280	-0.250	0.800
2020/01/31 04:54:24.5	91.210	-0.260	-0.260	0.800
2020/01/31 04:54:24.6	91.190	-0.250	-0.280	0.810
2020/01/31 04:54:24.7	91.170	-0.240	-0.290	0.810
2020/01/31 04:54:24.8	91.150	-0.220	-0.290	0.820
2020/01/31 04:54:24.9	91.130	-0.210	-0.300	0.830
2020/01/31 04:54:25.0	91.100	-0.200	-0.310	0.850
2020/01/31 04:54:25.1	91.080	-0.190	-0.310	0.860
2020/01/31 04:54:25.2	91.060	-0.170	-0.320	0.870
2020/01/31 04:54:25.3	91.040	-0.160	-0.330	0.890
2020/01/31 04:54:25.4	91.030	-0.150	-0.330	0.900
2020/01/31 04:54:25.5	91.020	-0.130	-0.340	0.920
2020/01/31 04:54:25.6	91.010	-0.120	-0.350	0.930
2020/01/31 04:54:25.7	91.000	-0.110	-0.360	0.940
2020/01/31 04:54:25.8	91.000	-0.090	-0.370	0.960
2020/01/31 04:54:25.9	91.000	-0.070	-0.380	0.970
2020/01/31 04:54:26.0	91.000	-0.060	-0.390	0.980
2020/01/31 04:54:26.1	91.000	-0.040	-0.410	0.990
2020/01/31 04:54:26.2	91.010	-0.020	-0.420	1.000
2020/01/31 04:54:26.3	91.020	0.000	-0.440	1.000
2020/01/31 04:54:26.4	91.020	0.020	-0.460	1.010
2020/01/31 04:54:26.5	91.030	0.040	-0.480	1.010
2020/01/31 04:54:26.6	91.050	0.060	-0.490	1.010
2020/01/31 04:54:26.7	91.060	0.080	-0.520	1.000
2020/01/31 04:54:26.8	91.070	0.100	-0.540	0.990
2020/01/31 04:54:26.9	91.090	0.120	-0.560	0.980
2020/01/31 04:54:27.0	91.100	0.150	-0.580	0.960
2020/01/31 04:54:27.1	91.110	0.170	-0.600	0.940
2020/01/31 04:54:27.2	91.130	0.190	-0.610	0.920
2020/01/31 04:54:27.3	91.140	0.210	-0.630	0.900
2020/01/31 04:54:27.4	91.150	0.220	-0.650	0.870
2020/01/31 04:54:27.5	91.160	0.240	-0.660	0.840
2020/01/31 04:54:27.6	91.170	0.260	-0.680	0.810
2020/01/31 04:54:27.7	91.180	0.280	-0.690	0.790
2020/01/31 04:54:27.8	91.180	0.290	-0.690	0.760
2020/01/31 04:54:27.9	91.180	0.300	-0.690	0.730
2020/01/31 04:54:28.0	91.190	0.310	-0.690	0.700
2020/01/31 04:54:28.1	91.180	0.320	-0.690	0.670
2020/01/31 04:54:28.2	91.190	0.330	-0.680	0.650
2020/01/31 04:54:28.3	91.180	0.340	-0.660	0.630
2020/01/31 04:54:28.4	91.180	0.340	-0.640	0.610
2020/01/31 04:54:28.5	91.170	0.340	-0.620	0.600
2020/01/31 04:54:28.6	91.160	0.340	-0.590	0.590
2020/01/31 04:54:28.7	91.140	0.340	-0.550	0.590
2020/01/31 04:54:28.8	91.130	0.340	-0.510	0.590
2020/01/31 04:54:28.9	91.110	0.330	-0.470	0.590
2020/01/31 04:54:29.0	91.100	0.320	-0.430	0.600
2020/01/31 04:54:29.1	91.080	0.310	-0.380	0.620
2020/01/31 04:54:29.2	91.060	0.290	-0.330	0.640
2020/01/31 04:54:29.3	91.040	0.280	-0.280	0.660
2020/01/31 04:54:29.4	91.020	0.260	-0.230	0.680
2020/01/31 04:54:29.5	91.000	0.240	-0.180	0.710
2020/01/31 04:54:29.6	90.980	0.220	-0.120	0.740
2020/01/31 04:54:29.7	90.960	0.200	-0.070	0.760
2020/01/31 04:54:29.8	90.940	0.170	-0.020	0.800
2020/01/31 04:54:29.9	90.920	0.150	0.030	0.830
2020/01/31 04:54:30.0	90.900	0.120	0.080	0.860
2020/01/31 04:54:30.1	90.880	0.090	0.120	0.880
2020/01/31 04:54:30.2	90.860	0.060	0.170	0.910
2020/01/31 04:54:30.3	90.840	0.030	0.210	0.930
2020/01/31 04:54:30.4	90.830	0.000	0.250	0.960
2020/01/31 04:54:30.5	90.810	-0.030	0.280	0.970
2020/01/31 04:54:30.6	90.800	-0.060	0.310	0.980
2020/01/31 04:54:30.7	90.790	-0.090	0.340	0.990
2020/01/31 04:54:30.8	90.780	-0.120	0.360	0.990
2020/01/31 04:54:30.9	90.770	-0.150	0.380	0.990
2020/01/31 04:54:31.0	90.770	-0.180	0.390	0.980
2020/01/31 04:54:31.1	90.760	-0.200	0.400	0.960
2020/01/31 04:54:31.2	90.760	-0.230	0.400	0.940
2020/01/31 04:54:31.3	90.770	-0.260	0.400	0.920
2020/01/31 04:54:31.4	90.770	-0.280	0.400	0.890
2020/01/31 04:54:31.5	90.780	-0.300	0.390	0.850
2020/01/31 04:54:31.6	90.790	-0.320	0.380	0.820
2020/01/31 04:54:31.7	90.800	-0.340	0.360	0.780
2020/01/31 04:54:31.8	90.810	-0.350	0.340	0.740
2020/01/31 04:54:31.9	90.820	-0.360	0.310	0.700
2020/01/31 04:54:32.0	90.840	-0.370	0.280	0.660
2020/01/31 04:54:32.1	90.860	-0.380	0.240	0.620
2020/01/31 04:54:32.2	90.880	-0.380	0.200	0.590
2020/01/31 04:54:32.3	90.900	-0.380	0.160	0.550
2020/01/31 04:54:32.4	90.910	-0.370	0.110	0.520
2020/01/31 04:54:32.5	90.930	-0.360	0.060	0.500
2020/01/31 04:54:32.6	90.950	-0.350	0.010	0.480
2020/01/31 04:54:32.7	90.970	-0.330	-0.050	0.460
2020/01/31 04:54:32.8	90.990	-0.310	-0.110	0.440
2020/01/31 04:54:32.9	91.010	-0.290	-0.170	0.430
2020/01/31 04:54:33.0	91.020	-0.260	-0.230	0.420
2020/01/31 04:54:33.1	91.040	-0.230	-0.300	0.420
2020/01/31 04:54:33.2	91.060	-0.200	-0.360	0.420
2020/01/31 04:54:33.3	91.070	-0.160	-0.430	0.430
2020/01/31 04:54:33.4	91.090	-0.130	-0.490	0.440
2020/01/31 04:54:33.5	91.100	-0.090	-0.550	0.450
2020/01/31 04:54:33.6	91.110	-0.050	-0.610	0.470
2020/01/31 04:54:33.7	91.120	-0.010	-0.670	0.480
2020/01/31 04:54:33.8	91.130	0.030	-0.720	0.500
2020/01/31 04:54:33.9	91.130	0.070	-0.770	0.520
2020/01/31 04:54:34.0	91.140	0.100	-0.810	0.550
2020/01/31 04:54:34.1	91.140	0.140	-0.850	0.570
2020/01/31 04:54:34.2	91.150	0.170	-0.880	0.600
2020/01/31 04:54:34.3	91.140	0.200	-0.900	0.620
2020/01/31 04:54:34.4	91.140	0.230	-0.920	0.650
2020/01/31 04:54:34.5	91.130	0.250	-0.930	0.670
2020/01/31 04:54:34.6	91.120	0.270	-0.930	0.700
2020/01/31 04:54:34.7	91.100	0.280	-0.920	0.720
2020/01/31 04:54:34.8	91.090	0.290	-0.900	0.750
2020/01/31 04:54:34.9	91.070	0.300	-0.880	0.770
2020/01/31 04:54:35.0	91.050	0.300	-0.850	0.790
2020/01/31 04:54:35.1	91.030	0.300	-0.820	0.820
2020/01/31 04:54:35.2	91.020	0.290	-0.780	0.840
2020/01/31 04:54:35.3	91.000	0.280	-0.730	0.860
2020/01/31 04:54:35.4	90.970	0.270	-0.680	0.880
2020/01/31 04:54:35.5	90.950	0.250	-0.620	0.900
2020/01/31 04:54:35.6	90.930	0.230	-0.560	0.910
2020/01/31 04:54:35.7	90.900	0.200	-0.500	0.930
2020/01/31 04:54:35.8	90.880	0.180	-0.440	0.940
2020/01/31 04:54:35.9	90.860	0.150	-0.380	0.950
2020/01/31 04:54:36.0	90.830	0.120	-0.310	0.960
2020/01/31 04:54:36.1	90.810	0.090	-0.250	0.970
2020/01/31 04:54:36.2	90.780	0.050	-0.180	0.970
2020/01/31 04:54:36.3	90.760	0.020	-0.120	0.980
2020/01/31 04:54:36.4	90.740	-0.010	-0.060	0.970
2020/01/31 04:54:36.5	90.730	-0.040	0.000	0.970
2020/01/31 04:54:36.6	90.710	-0.070	0.050	0.960
2020/01/31 04:54:36.7	90.700	-0.100	0.110	0.950
2020/01/31 04:54:36.8	90.690	-0.130	0.150	0.940
2020/01/31 04:54:36.9	90.680	-0.150	0.200	0.930
2020/01/31 04:54:37.0	90.670	-0.180	0.240	0.910
2020/01/31 04:54:37.1	90.670	-0.200	0.270	0.890
2020/01/31 04:54:37.2	90.660	-0.220	0.300	0.870
2020/01/31 04:54:37.3	90.660	-0.230	0.330	0.850
2020/01/31 04:54:37.4	90.660	-0.250	0.350	0.830
2020/01/31 04:54:37.5	90.660	-0.260	0.370	0.810
2020/01/31 04:54:37.6	90.660	-0.270	0.380	0.790
2020/01/31 04:54:37.7	90.660	-0.270	0.390	0.770
2020/01/31 04:54:37.8	90.660	-0.280	0.390	0.750
2020/01/31 04:54:37.9	90.670	-0.280	0.390	0.730
2020/01/31 04:54:38.0	90.670	-0.280	0.390	0.700
2020/01/31 04:54:38.1	90.680	-0.280	0.380	0.670
2020/01/31 04:54:38.2	90.680	-0.270	0.360	0.650
2020/01/31 04:54:38.3	90.690	-0.260	0.340	0.620
2020/01/31 04:54:38.4	90.700	-0.260	0.320	0.580
2020/01/31 04:54:38.5	90.710	-0.250	0.290	0.550
2020/01/31 04:54:38.6	90.720	-0.230	0.260	0.510
2020/01/31 04:54:38.7	90.740	-0.220	0.230	0.470
2020/01/31 04:54:38.8	90.750	-0.200	0.190	0.430
2020/01/31 04:54:38.9	90.770	-0.190	0.150	0.390
2020/01/31 04:54:39.0	90.780	-0.170	0.100	0.350
2020/01/31 04:54:39.1	90.800	-0.150	0.060	0.310
2020/01/31 04:54:39.2	90.810	-0.130	0.000	0.270
2020/01/31 04:54:39.3	90.830	-0.110	-0.050	0.230
2020/01/31 04:54:39.4	90.850	-0.080	-0.110	0.200
2020/01/31 04:54:39.5	90.860	-0.060	-0.170	0.170
2020/01/31 04:54:39.6	90.880	-0.030	-0.230	0.140
2020/01/31 04:54:39.7	90.890	-0.000	-0.290	0.120
2020/01/31 04:54:39.8	90.910	0.030	-0.360	0.110
2020/01/31 04:54:39.9	90.920	0.050	-0.420	0.100
2020/01/31 04:54:40.0	90.930	0.080	-0.480	0.100
2020/01/31 04:54:40.1	90.940	0.110	-0.540	0.110
2020/01/31 04:54:40.2	90.950	0.140	-0.590	0.120
2020/01/31 04:54:40.3	90.950	0.170	-0.640	0.140
2020/01/31 04:54:40.4	90.960	0.190	-0.690	0.160
2020/01/31 04:54:40.5	90.970	0.220	-0.730	0.190
2020/01/31 04:54:40.6	90.970	0.240	-0.760	0.220
2020/01/31 04:54:40.7	90.970	0.260	-0.790	0.250
2020/01/31 04:54:40.8	90.970	0.280	-0.810	0.290
2020/01/31 04:54:40.9	90.970	0.300	-0.830	0.330
2020/01/31 04:54:41.0	90.970	0.310	-0.830	0.370
2020/01/31 04:54:41.1	90.970	0.320	-0.830	0.410
2020/01/31 04:54:41.2	90.970	0.330	-0.820	0.450
2020/01/31 04:54:41.3	90.970	0.330	-0.810	0.490
2020/01/31 04:54:41.4	90.960	0.330	-0.790	0.540
2020/01/31 04:54:41.5	90.960	0.330	-0.760	0.580
2020/01/31 04:54:41.6	90.950	0.320	-0.720	0.610
2020/01/31 04:54:41.7	90.950	0.310	-0.690	0.650
2020/01/31 04:54:41.8	90.940	0.300	-0.640	0.680
2020/01/31 04:54:41.9	90.940	0.290	-0.590	0.720
2020/01/31 04:54:42.0	90.930	0.270	-0.540	0.750
2020/01/31 04:54:42.1	90.920	0.250	-0.490	0.780
2020/01/31 04:54:42.2	90.910	0.230	-0.430	0.800
2020/01/31 04:54:42.3	90.910	0.210	-0.370	0.830
2020/01/31 04:54:42.4	90.900	0.180	-0.320	0.850
2020/01/31 04:54:42.5	90.890	0.150	-0.260	0.870
2020/01/31 04:54:42.6	90.890	0.130	-0.200	0.890
2020/01/31 04:54:42.7	90.880	0.100	-0.150	0.910
2020/01/31 04:54:42.8	90.870	0.070	-0.100	0.930
2020/01/31 04:54:42.9	90.850	0.040	-0.040	0.950
2020/01/31 04:54:43.0	90.840	0.010	0.000	0.960
2020/01/31 04:54:43.1	90.830	-0.010	0.050	0.980
2020/01/31 04:54:43.2	90.810	-0.040	0.080	0.990
2020/01/31 04:54:43.3	90.800	-0.070	0.120	1.000
2020/01/31 04:54:43.4	90.780	-0.090	0.150	1.010
2020/01/31 04:54:43.5	90.770	-0.110	0.180	1.010
2020/01/31 04:54:43.6	90.750	-0.140	0.200	1.010
2020/01/31 04:54:43.7	90.740	-0.160	0.220	1.010
2020/01/31 04:54:43.8	90.720	-0.180	0.230	1.010
2020/01/31 04:54:43.9	90.710	-0.190	0.230	1.000
2020/01/31 04:54:44.0	90.700	-0.210	0.240	0.990
2020/01/31 04:54:44.1	90.690	-0.220	0.230	0.970
2020/01/31 04:54:44.2	90.680	-0.230	0.220	0.950
2020/01/31 04:54:44.3	90.680	-0.240	0.210	0.930
2020/01/31 04:54:44.4	90.680	-0.250	0.190	0.900
2020/01/31 04:54:44.5	90.680	-0.250	0.170	0.870
2020/01/31 04:54:44.6	90.680	-0.260	0.150	0.840
2020/01/31 04:54:44.7	90.680	-0.260	0.120	0.810
2020/01/31 04:54:44.8	90.690	-0.260	0.090	0.770
2020/01/31 04:54:44.9	90.700	-0.260	0.060	0.740
2020/01/31 04:54:45.0	90.700	-0.250	0.030	0.710
2020/01/31 04:54:45.1	90.710	-0.250	-0.010	0.680
2020/01/31 04:54:45.2	90.720	-0.250	-0.050	0.650
2020/01/31 04:54:45.3	90.730	-0.240	-0.080	0.630
2020/01/31 04:54:45.4	90.750	-0.230	-0.120	0.610
2020/01/31 04:54:45.5	90.760	-0.230	-0.160	0.590
2020/01/31 04:54:45.6	90.770	-0.220	-0.200	0.580
2020/01/31 04:54:45.7	90.790	-0.210	-0.230	0.570
2020/01/31 04:54:45.8	90.800	-0.200	-0.270	0.570
2020/01/31 04:54:45.9	90.810	-0.190	-0.300	0.570
2020/01/31 04:54:46.0	90.820	-0.180	-0.340	0.570
2020/01/31 04:54:46.1	90.830	-0.170	-0.370	0.570
2020/01/31 04:54:46.2	90.840	-0.160	-0.400	0.580
2020/01/31 04:54:46.3	90.850	-0.150	-0.430	0.590
2020/01/31 04:54:46.4	90.860	-0.140	-0.450	0.600
2020/01/31 04:54:46.5	90.870	-0.130	-0.480	0.610
2020/01/31 04:54:46.6	90.880	-0.120	-0.500	0.620
2020/01/31 04:54:46.7	90.880	-0.110	-0.520	0.630
2020/01/31 04:54:46.8	90.890	-0.100	-0.540	0.640
2020/01/31 04:54:46.9	90.900	-0.090	-0.550	0.650
2020/01/31 04:54:47.0	90.910	-0.080	-0.560	0.650
2020/01/31 04:54:47.1	90.920	-0.070	-0.570	0.650
2020/01/31 04:54:47.2	90.920	-0.060	-0.580	0.650
2020/01/31 04:54:47.3	90.930	-0.050	-0.590	0.650
2020/01/31 04:54:47.4	90.940	-0.040	-0.580	0.650
2020/01/31 04:54:47.5	90.950	-0.030	-0.580	0.640
2020/01/31 04:54:47.6	90.960	-0.020	-0.570	0.640
2020/01/31 04:54:47.7	90.970	-0.020	-0.560	0.630
2020/01/31 04:54:47.8	90.980	-0.010	-0.540	0.630
2020/01/31 04:54:47.9	91.000	-0.010	-0.520	0.620
2020/01/31 04:54:48.0	91.010	-0.000	-0.500	0.620
2020/01/31 04:54:48.1	91.020	0.000	-0.470	0.620
2020/01/31 04:54:48.2	91.030	0.000	-0.440	0.630
2020/01/31 04:54:48.3	91.040	0.010	-0.400	0.640
2020/01/31 04:54:48.4	91.050	0.010	-0.360	0.650
2020/01/31 04:54:48.5	91.050	0.010	-0.320	0.660
2020/01/31 04:54:48.6	91.060	0.000	-0.280	0.680
2020/01/31 04:54:48.7	91.060	0.000	-0.240	0.700
2020/01/31 04:54:48.8	91.060	-0.000	-0.190	0.720
2020/01/31 04:54:48.9	91.060	-0.010	-0.140	0.750
2020/01/31 04:54:49.0	91.060	-0.010	-0.100	0.780
2020/01/31 04:54:49.1	91.060	-0.010	-0.050	0.810
2020/01/31 04:54:49.2	91.060	-0.020	-0.010	0.840
2020/01/31 04:54:49.3	91.050	-0.020	0.040	0.870
2020/01/31 04:54:49.4	91.050	-0.030	0.080	0.900
2020/01/31 04:54:49.5	91.040	-0.030	0.110	0.930
2020/01/31 04:54:49.6	91.030	-0.030	0.140	0.960
2020/01/31 04:54:49.7	91.030	-0.040	0.170	0.990
2020/01/31 04:54:49.8	91.020	-0.040	0.190	1.010
2020/01/31 04:54:49.9	91.010	-0.030	0.200	1.030
2020/01/31 04:54:50.0	91.010	-0.030	0.200	1.040
2020/01/31 04:54:50.1	91.010	-0.020	0.200	1.050
2020/01/31 04:54:50.2	91.000	-0.010	0.200	1.050
2020/01/31 04:54:50.3	91.000	-0.000	0.180	1.050
2020/01/31 04:54:50.4	91.000	0.010	0.160	1.040
2020/01/31 04:54:50.5	91.000	0.030	0.130	1.020
2020/01/31 04:54:50.6	91.010	0.050	0.090	1.000
2020/01/31 04:54:50.7	91.010	0.070	0.050	0.970
2020/01/31 04:54:50.8	91.020	0.090	0.000	0.950
2020/01/31 04:54:50.9	91.020	0.110	-0.050	0.910
2020/01/31 04:54:51.0	91.030	0.140	-0.100	0.880
2020/01/31 04:54:51.1	91.040	0.170	-0.160	0.840
2020/01/31 04:54:51.2	91.040	0.190	-0.220	0.800
2020/01/31 04:54:51.3	91.050	0.220	-0.270	0.760
2020/01/31 04:54:51.4	91.060	0.250	-0.330	0.730
2020/01/31 04:54:51.5	91.070	0.280	-0.390	0.690
2020/01/31 04:54:51.6	91.070	0.310	-0.440	0.660
2020/01/31 04:54:51.7	91.080	0.340	-0.490	0.620
2020/01/31 04:54:51.8	91.090	0.370	-0.540	0.590
2020/01/31 04:54:51.9	91.100	0.390	-0.580	0.570
2020/01/31 04:54:52.0	91.100	0.420	-0.620	0.540
2020/01/31 04:54:52.1	91.110	0.440	-0.650	0.520
2020/01/31 04:54:52.2	91.120	0.460	-0.680	0.500
2020/01/31 04:54:52.3	91.130	0.480	-0.700	0.480
2020/01/31 04:54:52.4	91.140	0.500	-0.720	0.460
2020/01/31 04:54:52.5	91.150	0.510	-0.720	0.450
2020/01/31 04:54:52.6	91.160	0.520	-0.730	0.440
2020/01/31 04:54:52.7	91.170	0.530	-0.720	0.430
2020/01/31 04:54:52.8	91.190	0.540	-0.710	0.430
2020/01/31 04:54:52.9	91.200	0.540	-0.700	0.420
2020/01/31 04:54:53.0	91.220	0.540	-0.670	0.420
2020/01/31 04:54:53.1	91.230	0.530	-0.650	0.420
2020/01/31 04:54:53.2	91.250	0.530	-0.610	0.430
2020/01/31 04:54:53.3	91.270	0.510	-0.570	0.430
2020/01/31 04:54:53.4	91.290	0.500	-0.530	0.430
2020/01/31 04:54:53.5	91.310	0.480	-0.480	0.440
2020/01/31 04:54:53.6	91.320	0.460	-0.430	0.450
2020/01/31 04:54:53.7	91.340	0.440	-0.380	0.450
2020/01/31 04:54:53.8	91.360	0.410	-0.330	0.460
2020/01/31 04:54:53.9	91.370	0.380	-0.270	0.470
2020/01/31 04:54:54.0	91.390	0.350	-0.210	0.470
2020/01/31 04:54:54.1	91.400	0.310	-0.150	0.480
2020/01/31 04:54:54.2	91.410	0.270	-0.090	0.490
2020/01/31 04:54:54.3	91.420	0.230	-0.030	0.500
2020/01/31 04:54:54.4	91.430	0.190	0.030	0.510
2020/01/31 04:54:54.5	91.440	0.150	0.080	0.520
2020/01/31 04:54:54.6	91.440	0.100	0.140	0.530
2020/01/31 04:54:54.7	91.440	0.060	0.190	0.540
2020/01/31 04:54:54.8	91.440	0.010	0.240	0.550
2020/01/31 04:54:54.9	91.440	-0.030	0.290	0.560
2020/01/31 04:54:55.0	91.440	-0.080	0.330	0.580
2020/01/31 04:54:55.1	91.430	-0.130	0.370	0.600
2020/01/31 04:54:55.2	91.420	-0.170	0.410	0.620
2020/01/31 04:54:55.3	91.410	-0.220	0.440	0.640
2020/01/31 04:54:55.4	91.400	-0.260	0.470	0.670
2020/01/31 04:54:55.5	91.390	-0.310	0.490	0.690
2020/01/31 04:54:55.6	91.370	-0.350	0.500	0.730
2020/01/31 04:54:55.7	91.360	-0.390	0.510	0.760
2020/01/31 04:54:55.8	91.350	-0.430	0.520	0.800
2020/01/31 04:54:55.9	91.330	-0.460	0.510	0.830
2020/01/31 04:54:56.0	91.320	-0.500	0.500	0.870
2020/01/31 04:54:56.1	91.310	-0.530	0.490	0.910
2020/01/31 04:54:56.2	91.290	-0.550	0.460	0.950
2020/01/31 04:54:56.3	91.280	-0.580	0.430	0.990
2020/01/31 04:54:56.4	91.270	-0.600	0.400	1.020
2020/01/31 04:54:56.5	91.260	-0.620	0.360	1.060
2020/01/31 04:54:56.6	91.250	-0.630	0.310	1.090
2020/01/31 04:54:56.7	91.250	-0.640	0.260	1.120
2020/01/31 04:54:56.8	91.240	-0.650	0.210	1.150
2020/01/31 04:54:56.9	91.230	-0.650	0.150	1.170
2020/01/31 04:54:57.0	91.230	-0.650	0.080	1.190
2020/01/31 04:54:57.1	91.230	-0.650	0.020	1.210
2020/01/31 04:54:57.2	91.220	-0.650	-0.050	1.220
2020/01/31 04:54:57.3	91.220	-0.640	-0.130	1.230
2020/01/31 04:54:57.4	91.220	-0.630	-0.200	1.240
2020/01/31 04:54:57.5	91.210	-0.610	-0.270	1.240
2020/01/31 04:54:57.6	91.210	-0.590	-0.350	1.240
2020/01/31 04:54:57.7	91.210	-0.570	-0.430	1.240
2020/01/31 04:54:57.8	91.210	-0.550	-0.500	1.230
2020/01/31 04:54:57.9	91.210	-0.520	-0.580	1.220
2020/01/31 04:54:58.0	91.210	-0.490	-0.650	1.210
2020/01/31 04:54:58.1	91.210	-0.460	-0.720	1.200
2020/01/31 04:54:58.2	91.220	-0.430	-0.790	1.190
2020/01/31 04:54:58.3	91.220	-0.390	-0.850	1.170
2020/01/31 04:54:58.4	91.220	-0.360	-0.910	1.160
2020/01/31 04:54:58.5	91.230	-0.320	-0.970	1.140
2020/01/31 04:54:58.6	91.230	-0.280	-1.020	1.130
2020/01/31 04:54:58.7	91.230	-0.240	-1.070	1.110
2020/01/31 04:54:58.8	91.240	-0.190	-1.110	1.090
2020/01/31 04:54:58.9	91.240	-0.150	-1.140	1.080
2020/01/31 04:54:59.0	91.250	-0.110	-1.170	1.060
2020/01/31 04:54:59.1	91.260	-0.070	-1.190	1.040
2020/01/31 04:54:59.2	91.270	-0.020	-1.210	1.020
2020/01/31 04:54:59.3	91.280	0.020	-1.220	1.000
2020/01/31 04:54:59.4	91.300	0.060	-1.220	0.980
2020/01/31 04:54:59.5	91.320	0.100	-1.220	0.950
2020/01/31 04:54:59.6	91.340	0.130	-1.210	0.930
2020/01/31 04:54:59.7	91.360	0.170	-1.190	0.910
2020/01/31 04:54:59.8	91.380	0.200	-1.160	0.880
2020/01/31 04:54:59.9	91.400	0.240	-1.130	0.860
2020/01/31 04:55:00.0	91.420	0.270	-1.090	0.840
2020/01/31 04:55:00.1	91.440	0.290	-1.040	0.810
2020/01/31 04:55:00.2	91.460	0.320	-0.980	0.780
2020/01/31 04:55:00.3	91.480	0.340	-0.920	0.760
2020/01/31 04:55:00.4	91.500	0.350	-0.860	0.740
2020/01/31 04:55:00.5	91.520	0.370	-0.780	0.710
2020/01/31 04:55:00.6	91.540	0.380	-0.710	0.690
2020/01/31 04:55:00.7	91.550	0.380	-0.630	0.670
2020/01/31 04:55:00.8	91.560	0.390	-0.540	0.650
2020/01/31 04:55:00.9	91.570	0.390	-0.450	0.630
2020/01/31 04:55:01.0	91.570	0.390	-0.360	0.610
2020/01/31 04:55:01.1	91.570	0.380	-0.270	0.590
2020/01/31 04:55:01.2	91.580	0.370	-0.180	0.580
2020/01/31 04:55:01.3	91.570	0.360	-0.080	0.570
2020/01/31 04:55:01.4	91.560	0.340	0.010	0.560
2020/01/31 04:55:01.5	91.550	0.330	0.110	0.550
2020/01/31 04:55:01.6	91.540	0.310	0.200	0.540
2020/01/31 04:55:01.7	91.520	0.280	0.290	0.530
2020/01/31 04:55:01.8	91.500	0.260	0.370	0.530
2020/01/31 04:55:01.9	91.490	0.230	0.460	0.520
2020/01/31 04:55:02.0	91.470	0.210	0.540	0.520
2020/01/31 04:55:02.1	91.450	0.180	0.610	0.510
2020/01/31 04:55:02.2	91.440	0.150	0.680	0.500
2020/01/31 04:55:02.3	91.420	0.120	0.740	0.500
2020/01/31 04:55:02.4	91.410	0.090	0.800	0.490
2020/01/31 04:55:02.5	91.400	0.060	0.850	0.480
2020/01/31 04:55:02.6	91.390	0.030	0.890	0.470
2020/01/31 04:55:02.7	91.380	0.000	0.920	0.460
2020/01/31 04:55:02.8	91.380	-0.030	0.950	0.440
2020/01/31 04:55:02.9	91.370	-0.060	0.970	0.430
2020/01/31 04:55:03.0	91.370	-0.080	0.980	0.410
2020/01/31 04:55:03.1	91.370	-0.110	0.980	0.390
2020/01/31 04:55:03.2	91.370	-0.130	0.970	0.370
2020/01/31 04:55:03.3	91.370	-0.160	0.950	0.350
2020/01/31 04:55:03.4	91.370	-0.180	0.930	0.330
2020/01/31 04:55:03.5	91.370	-0.200	0.900	0.310
2020/01/31 04:55:03.6	91.370	-0.210	0.870	0.290
2020/01/31 04:55:03.7	91.370	-0.230	0.820	0.270
2020/01/31 04:55:03.8	91.370	-0.240	0.770	0.240
2020/01/31 04:55:03.9	91.370	-0.250	0.710	0.220
2020/01/31 04:55:04.0	91.370	-0.250	0.650	0.200
2020/01/31 04:55:04.1	91.360	-0.260	0.580	0.180
2020/01/31 04:55:04.2	91.360	-0.260	0.510	0.160
2020/01/31 04:55:04.3	91.360	-0.260	0.430	0.140
2020/01/31 04:55:04.4	91.360	-0.250	0.340	0.120
2020/01/31 04:55:04.5	91.360	-0.240	0.250	0.100
2020/01/31 04:55:04.6	91.350	-0.230	0.150	0.080
2020/01/31 04:55:04.7	91.350	-0.220	0.060	0.060
2020/01/31 04:55:04.8	91.350	-0.200	-0.040	0.040
2020/01/31 04:55:04.9	91.340	-0.180	-0.150	0.020
2020/01/31 04:55:05.0	91.340	-0.150	-0.250	0.010
2020/01/31 04:55:05.1	91.330	-0.130	-0.350	-0.000
2020/01/31 04:55:05.2	91.330	-0.100	-0.460	-0.010
2020/01/31 04:55:05.3	91.320	-0.060	-0.560	-0.020
2020/01/31 04:55:05.4	91.320	-0.030	-0.660	-0.020
2020/01/31 04:55:05.5	91.310	0.010	-0.750	-0.020
2020/01/31 04:55:05.6	91.310	0.050	-0.850	-0.010
2020/01/31 04:55:05.7	91.300	0.090	-0.930	-0.000
2020/01/31 04:55:05.8	91.300	0.130	-1.020	0.010
2020/01/31 04:55:05.9	91.290	0.180	-1.090	0.030
2020/01/31 04:55:06.0	91.290	0.220	-1.170	0.050
2020/01/31 04:55:06.1	91.280	0.270	-1.230	0.070
2020/01/31 04:55:06.2	91.280	0.310	-1.290	0.100
2020/01/31 04:55:06.3	91.270	0.360	-1.340	0.130
2020/01/31 04:55:06.4	91.260	0.400	-1.390	0.170
2020/01/31 04:55:06.5	91.250	0.440	-1.420	0.210
2020/01/31 04:55:06.6	91.240	0.480	-1.450	0.260
2020/01/31 04:55:06.7	91.230	0.520	-1.470	0.310
2020/01/31 04:55:06.8	91.220	0.550	-1.480	0.360
2020/01/31 04:55:06.9	91.210	0.590	-1.480	0.420
2020/01/31 04:55:07.0	91.190	0.620	-1.470	0.470
2020/01/31 04:55:07.1	91.180	0.640	-1.450	0.530
2020/01/31 04:55:07.2	91.170	0.670	-1.430	0.590
2020/01/31 04:55:07.3	91.150	0.680	-1.390	0.650
2020/01/31 04:55:07.4	91.130	0.700	-1.350	0.710
2020/01/31 04:55:07.5	91.120	0.710	-1.300	0.760
2020/01/31 04:55:07.6	91.100	0.710	-1.250	0.820
2020/01/31 04:55:07.7	91.080	0.710	-1.180	0.870
2020/01/31 04:55:07.8	91.070	0.710	-1.120	0.920
2020/01/31 04:55:07.9	91.050	0.700	-1.040	0.970
2020/01/31 04:55:08.0	91.040	0.690	-0.960	1.020
2020/01/31 04:55:08.1	91.020	0.680	-0.880	1.060
2020/01/31 04:55:08.2	91.020	0.660	-0.800	1.110
2020/01/31 04:55:08.3	91.010	0.640	-0.720	1.150
2020/01/31 04:55:08.4	91.010	0.610	-0.630	1.180
2020/01/31 04:55:08.5	91.000	0.580	-0.550	1.210
2020/01/31 04:55:08.6	91.000	0.550	-0.460	1.240
2020/01/31 04:55:08.7	91.000	0.520	-0.380	1.270
2020/01/31 04:55:08.8	91.000	0.480	-0.300	1.290
2020/01/31 04:55:08.9	91.000	0.440	-0.230	1.310
2020/01/31 04:55:09.0	91.000	0.410	-0.160	1.330
2020/01/31 04:55:09.1	91.010	0.370	-0.090	1.340
2020/01/31 04:55:09.2	91.020	0.330	-0.020	1.350
2020/01/31 04:55:09.3	91.030	0.290	0.040	1.360
2020/01/31 04:55:09.4	91.040	0.250	0.090	1.370
2020/01/31 04:55:09.5	91.050	0.200	0.140	1.370
2020/01/31 04:55:09.6	91.070	0.160	0.180	1.380
2020/01/31 04:55:09.7	91.080	0.120	0.220	1.380
2020/01/31 04:55:09.8	91.100	0.080	0.250	1.370
2020/01/31 04:55:09.9	91.120	0.040	0.290	1.370
2020/01/31 04:55:10.0	91.140	0.000	0.310	1.360
2020/01/31 04:55:10.1	91.160	-0.040	0.340	1.360
2020/01/31 04:55:10.2	91.170	-0.070	0.360	1.340
2020/01/31 04:55:10.3	91.190	-0.110	0.380	1.330
2020/01/31 04:55:10.4	91.210	-0.150	0.400	1.320
2020/01/31 04:55:10.5	91.230	-0.190	0.420	1.300
2020/01/31 04:55:10.6	91.250	-0.220	0.440	1.290
2020/01/31 04:55:10.7	91.270	-0.260	0.460	1.270
2020/01/31 04:55:10.8	91.280	-0.300	0.470	1.260
2020/01/31 04:55:10.9	91.300	-0.330	0.490	1.240
2020/01/31 04:55:11.0	91.320	-0.370	0.510	1.220
2020/01/31 04:55:11.1	91.330	-0.400	0.520	1.210
2020/01/31 04:55:11.2	91.350	-0.430	0.540	1.190
2020/01/31 04:55:11.3	91.370	-0.470	0.560	1.170
2020/01/31 04:55:11.4	91.380	-0.500	0.570	1.160
2020/01/31 04:55:11.5	91.390	-0.530	0.590	1.140
2020/01/31 04:55:11.6	91.400	-0.560	0.600	1.120
2020/01/31 04:55:11.7	91.410	-0.590	0.610	1.110
2020/01/31 04:55:11.8	91.420	-0.620	0.620	1.090
2020/01/31 04:55:11.9	91.430	-0.640	0.630	1.070
2020/01/31 04:55:12.0	91.430	-0.670	0.630	1.060
2020/01/31 04:55:12.1	91.440	-0.690	0.640	1.040
2020/01/31 04:55:12.2	91.430	-0.720	0.630	1.020
2020/01/31 04:55:12.3	91.430	-0.740	0.630	1.010
2020/01/31 04:55:12.4	91.430	-0.750	0.620	0.990
2020/01/31 04:55:12.5	91.430	-0.770	0.600	0.980
2020/01/31 04:55:12.6	91.420	-0.780	0.580	0.960
2020/01/31 04:55:12.7	91.420	-0.800	0.560	0.950
2020/01/31 04:55:12.8	91.410	-0.800	0.530	0.930
2020/01/31 04:55:12.9	91.410	-0.810	0.490	0.920
2020/01/31 04:55:13.0	91.400	-0.810	0.450	0.900
2020/01/31 04:55:13.1	91.390	-0.810	0.410	0.890
2020/01/31 04:55:13.2	91.390	-0.810	0.370	0.870
2020/01/31 04:55:13.3	91.370	-0.810	0.310	0.860
2020/01/31 04:55:13.4	91.360	-0.800	0.260	0.850
2020/01/31 04:55:13.5	91.350	-0.790	0.200	0.830
2020/01/31 04:55:13.6	91.340	-0.770	0.140	0.820
2020/01/31 04:55:13.7	91.330	-0.750	0.080	0.810
2020/01/31 04:55:13.8	91.320	-0.740	0.010	0.790
2020/01/31 04:55:13.9	91.310	-0.710	-0.050	0.780
2020/01/31 04:55:14.0	91.300	-0.690	-0.120	0.760
2020/01/31 04:55:14.1	91.290	-0.660	-0.190	0.740
2020/01/31 04:55:14.2	91.280	-0.630	-0.260	0.720
2020/01/31 04:55:14.3	91.270	-0.600	-0.320	0.700
2020/01/31 04:55:14.4	91.270	-0.570	-0.390	0.670
2020/01/31 04:55:14.5	91.270	-0.530	-0.450	0.650
2020/01/31 04:55:14.6	91.270	-0.490	-0.520	0.620
2020/01/31 04:55:14.7	91.270	-0.450	-0.580	0.590
2020/01/31 04:55:14.8	91.270	-0.410	-0.640	0.560
2020/01/31 04:55:14.9	91.280	-0.370	-0.700	0.520
2020/01/31 04:55:15.0	91.290	-0.320	-0.760	0.490
2020/01/31 04:55:15.1	91.300	-0.280	-0.810	0.450
2020/01/31 04:55:15.2	91.310	-0.230	-0.860	0.410
2020/01/31 04:55:15.3	91.320	-0.180	-0.920	0.370
2020/01/31 04:55:15.4	91.330	-0.130	-0.960	0.320
2020/01/31 04:55:15.5	91.350	-0.070	-1.010	0.280
2020/01/31 04:55:15.6	91.370	-0.020	-1.060	0.240
2020/01/31 04:55:15.7	91.390	0.040	-1.100	0.200
2020/01/31 04:55:15.8	91.410	0.100	-1.130	0.160
2020/01/31 04:55:15.9	91.430	0.160	-1.170	0.120
2020/01/31 04:55:16.0	91.450	0.220	-1.200	0.090
2020/01/31 04:55:16.1	91.470	0.280	-1.220	0.060
2020/01/31 04:55:16.2	91.490	0.340	-1.250	0.020
2020/01/31 04:55:16.3	91.510	0.400	-1.270	-0.000
2020/01/31 04:55:16.4	91.520	0.460	-1.280	-0.020
2020/01/31 04:55:16.5	91.540	0.520	-1.290	-0.040
2020/01/31 04:55:16.6	91.550	0.590	-1.300	-0.050
2020/01/31 04:55:16.7	91.560	0.640	-1.300	-0.060
2020/01/31 04:55:16.8	91.570	0.700	-1.300	-0.050
2020/01/31 04:55:16.9	91.580	0.760	-1.290	-0.050
2020/01/31 04:55:17.0	91.580	0.810	-1.270	-0.030
2020/01/31 04:55:17.1	91.580	0.860	-1.250	-0.010
2020/01/31 04:55:17.2	91.580	0.910	-1.220	0.010
2020/01/31 04:55:17.3	91.570	0.950	-1.190	0.040
2020/01/31 04:55:17.4	91.560	0.990	-1.150	0.080
2020/01/31 04:55:17.5	91.540	1.020	-1.110	0.120
2020/01/31 04:55:17.6	91.520	1.050	-1.050	0.160
2020/01/31 04:55:17.7	91.500	1.070	-1.000	0.210
2020/01/31 04:55:17.8	91.470	1.090	-0.930	0.250
2020/01/31 04:55:17.9	91.440	1.090	-0.860	0.300
2020/01/31 04:55:18.0	91.410	1.090	-0.780	0.350
2020/01/31 04:55:18.1	91.380	1.090	-0.700	0.400
2020/01/31 04:55:18.2	91.340	1.070	-0.610	0.450
2020/01/31 04:55:18.3	91.310	1.050	-0.510	0.500
2020/01/31 04:55:18.4	91.270	1.020	-0.420	0.550
2020/01/31 04:55:18.5	91.230	0.990	-0.320	0.600
2020/01/31 04:55:18.6	91.200	0.940	-0.220	0.650
2020/01/31 04:55:18.7	91.160	0.890	-0.110	0.700
2020/01/31 04:55:18.8	91.120	0.840	-0.010	0.740
2020/01/31 04:55:18.9	91.090	0.770	0.090	0.790
2020/01/31 04:55:19.0	91.060	0.700	0.190	0.830
2020/01/31 04:55:19.1	91.020	0.630	0.290	0.870
2020/01/31 04:55:19.2	91.000	0.560	0.390	0.910
2020/01/31 04:55:19.3	90.980	0.480	0.480	0.940
2020/01/31 04:55:19.4	90.960	0.390	0.560	0.970
2020/01/31 04:55:19.5	90.940	0.310	0.640	1.000
2020/01/31 04:55:19.6	90.920	0.220	0.710	1.020
2020/01/31 04:55:19.7	90.910	0.140	0.770	1.040
2020/01/31 04:55:19.8	90.900	0.050	0.830	1.050
2020/01/31 04:55:19.9	90.900	-0.030	0.870	1.050
2020/01/31 04:55:20.0	90.900	-0.120	0.910	1.050
2020/01/31 04:55:20.1	90.910	-0.200	0.940	1.050
2020/01/31 04:55:20.2	90.910	-0.270	0.950	1.040
2020/01/31 04:55:20.3	90.920	-0.350	0.960	1.020
2020/01/31 04:55:20.4	90.940	-0.410	0.960	1.000
2020/01/31 04:55:20.5	90.960	-0.480	0.950	0.980
2020/01/31 04:55:20.6	90.980	-0.540	0.930	0.950
2020/01/31 04:55:20.7	91.000	-0.590	0.890	0.930
2020/01/31 04:55:20.8	91.030	-0.630	0.860	0.890
2020/01/31 04:55:20.9	91.060	-0.670	0.810	0.860
2020/01/31 04:55:21.0	91.080	-0.700	0.750	0.830
2020/01/31 04:55:21.1	91.110	-0.720	0.680	0.800
2020/01/31 04:55:21.2	91.150	-0.740	0.610	0.760
2020/01/31 04:55:21.3	91.180	-0.750	0.530	0.730
2020/01/31 04:55:21.4	91.210	-0.750	0.450	0.700
2020/01/31 04:55:21.5	91.240	-0.740	0.360	0.660
2020/01/31 04:55:21.6	91.270	-0.730	0.260	0.630
2020/01/31 04:55:21.7	91.300	-0.710	0.170	0.600
2020/01/31 04:55:21.8	91.330	-0.690	0.070	0.570
2020/01/31 04:55:21.9	91.360	-0.660	-0.030	0.550
2020/01/31 04:55:22.0	91.390	-0.620	-0.130	0.520
2020/01/31 04:55:22.1	91.420	-0.580	-0.230	0.500
2020/01/31 04:55:22.2	91.440	-0.530	-0.330	0.490
2020/01/31 04:55:22.3	91.460	-0.490	-0.420	0.480
2020/01/31 04:55:22.4	91.480	-0.440	-0.510	0.470
2020/01/31 04:55:22.5	91.490	-0.390	-0.590	0.470
2020/01/31 04:55:22.6	91.500	-0.340	-0.660	0.480
2020/01/31 04:55:22.7	91.510	-0.290	-0.730	0.480
2020/01/31 04:55:22.8	91.510	-0.240	-0.780	0.500
2020/01/31 04:55:22.9	91.520	-0.190	-0.830	0.510
2020/01/31 04:55:23.0	91.520	-0.140	-0.870	0.530
2020/01/31 04:55:23.1	91.520	-0.100	-0.900	0.550
2020/01/31 04:55:23.2	91.520	-0.060	-0.920	0.570
2020/01/31 04:55:23.3	91.510	-0.020	-0.930	0.590
2020/01/31 04:55:23.4	91.510	0.020	-0.920	0.620
2020/01/31 04:55:23.5	91.500	0.050	-0.910	0.640
2020/01/31 04:55:23.6	91.490	0.070	-0.890	0.670
2020/01/31 04:55:23.7	91.470	0.090	-0.860	0.690
2020/01/31 04:55:23.8	91.460	0.110	-0.810	0.720
2020/01/31 04:55:23.9	91.440	0.120	-0.770	0.750
2020/01/31 04:55:24.0	91.430	0.130	-0.710	0.780
2020/01/31 04:55:24.1	91.410	0.130	-0.650	0.810
2020/01/31 04:55:24.2	91.390	0.130	-0.580	0.840
2020/01/31 04:55:24.3	91.370	0.130	-0.510	0.860
2020/01/31 04:55:24.4	91.350	0.120	-0.430	0.890
2020/01/31 04:55:24.5	91.340	0.110	-0.360	0.920
2020/01/31 04:55:24.6	91.320	0.100	-0.280	0.940
2020/01/31 04:55:24.7	91.310	0.090	-0.200	0.970
2020/01/31 04:55:24.8	91.290	0.070	-0.130	0.990
2020/01/31 04:55:24.9	91.280	0.050	-0.050	1.010
2020/01/31 04:55:25.0	91.270	0.040	0.010	1.030
2020/01/31 04:55:25.1	91.260	0.020	0.080	1.050
2020/01/31 04:55:25.2	91.250	0.000	0.140	1.070
2020/01/31 04:55:25.3	91.240	-0.020	0.190	1.080
2020/01/31 04:55:25.4	91.230	-0.030	0.230	1.100
2020/01/31 04:55:25.5	91.230	-0.050	0.260	1.110
2020/01/31 04:55:25.6	91.220	-0.060	0.290	1.110
2020/01/31 04:55:25.7	91.220	-0.070	0.300	1.120
2020/01/31 04:55:25.8	91.220	-0.070	0.310	1.110
2020/01/31 04:55:25.9	91.220	-0.070	0.310	1.110
2020/01/31 04:55:26.0	91.230	-0.070	0.290	1.100
2020/01/31 04:55:26.1	91.230	-0.070	0.260	1.090
2020/01/31 04:55:26.2	91.230	-0.060	0.230	1.060
2020/01/31 04:55:26.3	91.240	-0.050	0.180	1.040
2020/01/31 04:55:26.4	91.250	-0.030	0.130	1.010
2020/01/31 04:55:26.5	91.260	-0.020	0.070	0.980
2020/01/31 04:55:26.6	91.270	0.010	-0.000	0.940
2020/01/31 04:55:26.7	91.290	0.030	-0.080	0.900
2020/01/31 04:55:26.8	91.300	0.060	-0.160	0.860
2020/01/31 04:55:26.9	91.310	0.090	-0.250	0.810
2020/01/31 04:55:27.0	91.330	0.120	-0.340	0.770
2020/01/31 04:55:27.1	91.340	0.160	-0.430	0.720
2020/01/31 04:55:27.2	91.350	0.190	-0.530	0.670
2020/01/31 04:55:27.3	91.360	0.230	-0.620	0.620
2020/01/31 04:55:27.4	91.360	0.270	-0.700	0.570
2020/01/31 04:55:27.5	91.370	0.300	-0.790	0.530
2020/01/31 04:55:27.6	91.370	0.340	-0.860	0.490
2020/01/31 04:55:27.7	91.370	0.370	-0.930	0.450
2020/01/31 04:55:27.8	91.360	0.400	-0.990	0.420
2020/01/31 04:55:27.9	91.360	0.430	-1.050	0.390
2020/01/31 04:55:28.0	91.350	0.460	-1.080	0.370
2020/01/31 04:55:28.1	91.340	0.480	-1.110	0.350
2020/01/31 04:55:28.2	91.320	0.500	-1.130	0.330
2020/01/31 04:55:28.3	91.300	0.510	-1.130	0.330
2020/01/31 04:55:28.4	91.290	0.520	-1.120	0.330
2020/01/31 04:55:28.5	91.270	0.530	-1.090	0.330
2020/01/31 04:55:28.6	91.240	0.530	-1.050	0.350
2020/01/31 04:55:28.7	91.220	0.520	-1.000	0.360
2020/01/31 04:55:28.8	91.200	0.510	-0.940	0.380
2020/01/31 04:55:28.9	91.170	0.490	-0.870	0.410
2020/01/31 04:55:29.0	91.150	0.470	-0.790	0.430
2020/01/31 04:55:29.1	91.120	0.450	-0.700	0.460
2020/01/31 04:55:29.2	91.100	0.420	-0.600	0.500
2020/01/31 04:55:29.3	91.080	0.380	-0.490	0.530
2020/01/31 04:55:29.4	91.060	0.340	-0.380	0.570
2020/01/31 04:55:29.5	91.030	0.300	-0.270	0.600
2020/01/31 04:55:29.6	91.020	0.250	-0.150	0.630
2020/01/31 04:55:29.7	91.000	0.200	-0.040	0.660
2020/01/31 04:55:29.8	90.980	0.140	0.080	0.690
2020/01/31 04:55:29.9	90.970	0.090	0.190	0.720
2020/01/31 04:55:30.0	90.960	0.030	0.290	0.750
2020/01/31 04:55:30.1	90.950	-0.020	0.390	0.770
2020/01/31 04:55:30.2	90.940	-0.080	0.490	0.780
2020/01/31 04:55:30.3	90.940	-0.140	0.570	0.800
2020/01/31 04:55:30.4	90.940	-0.190	0.640	0.810
2020/01/31 04:55:30.5	90.940	-0.250	0.710	0.820
2020/01/31 04:55:30.6	90.940	-0.300	0.760	0.820
2020/01/31 04:55:30.7	90.950	-0.350	0.800	0.820
2020/01/31 04:55:30.8	90.960	-0.390	0.820	0.820
2020/01/31 04:55:30.9	90.970	-0.440	0.840	0.810
2020/01/31 04:55:31.0	90.980	-0.470	0.840	0.800
2020/01/31 04:55:31.1	90.990	-0.510	0.830	0.790
2020/01/31 04:55:31.2	91.010	-0.530	0.810	0.780
2020/01/31 04:55:31.3	91.020	-0.560	0.770	0.760
2020/01/31 04:55:31.4	91.040	-0.570	0.720	0.750
2020/01/31 04:55:31.5	91.050	-0.590	0.670	0.730
2020/01/31 04:55:31.6	91.070	-0.600	0.600	0.720
2020/01/31 04:55:31.7	91.080	-0.600	0.530	0.700
2020/01/31 04:55:31.8	91.100	-0.600	0.450	0.690
2020/01/31 04:55:31.9	91.120	-0.590	0.370	0.670
2020/01/31 04:55:32.0	91.130	-0.580	0.280	0.660
2020/01/31 04:55:32.1	91.150	-0.560	0.180	0.640
2020/01/31 04:55:32.2	91.160	-0.550	0.080	0.630
2020/01/31 04:55:32.3	91.180	-0.520	-0.010	0.620
2020/01/31 04:55:32.4	91.190	-0.500	-0.110	0.610
2020/01/31 04:55:32.5	91.200	-0.470	-0.200	0.600
2020/01/31 04:55:32.6	91.220	-0.440	-0.290	0.590
2020/01/31 04:55:32.7	91.230	-0.410	-0.370	0.580
2020/01/31 04:55:32.8	91.240	-0.370	-0.450	0.570
2020/01/31 04:55:32.9	91.250	-0.340	-0.530	0.570
2020/01/31 04:55:33.0	91.260	-0.300	-0.590	0.560
2020/01/31 04:55:33.1	91.270	-0.270	-0.660	0.560
2020/01/31 04:55:33.2	91.270	-0.230	-0.710	0.550
2020/01/31 04:55:33.3	91.280	-0.200	-0.750	0.550
2020/01/31 04:55:33.4	91.280	-0.160	-0.790	0.560
2020/01/31 04:55:33.5	91.280	-0.130	-0.820	0.560
2020/01/31 04:55:33.6	91.280	-0.100	-0.840	0.570
2020/01/31 04:55:33.7	91.280	-0.070	-0.850	0.570
2020/01/31 04:55:33.8	91.280	-0.040	-0.860	0.580
2020/01/31 04:55:33.9	91.270	-0.020	-0.860	0.600
2020/01/31 04:55:34.0	91.270	0.010	-0.850	0.610
2020/01/31 04:55:34.1	91.260	0.030	-0.830	0.630
2020/01/31 04:55:34.2	91.250	0.050	-0.820	0.650
2020/01/31 04:55:34.3	91.240	0.060	-0.790	0.660
2020/01/31 04:55:34.4	91.220	0.080	-0.760	0.690
2020/01/31 04:55:34.5	91.210	0.090	-0.720	0.710
2020/01/31 04:55:34.6	91.200	0.100	-0.680	0.730
2020/01/31 04:55:34.7	91.190	0.110	-0.640	0.760
2020/01/31 04:55:34.8	91.170	0.120	-0.590	0.780
2020/01/31 04:55:34.9	91.160	0.120	-0.550	0.810
2020/01/31 04:55:35.0	91.150	0.130	-0.500	0.830
2020/01/31 04:55:35.1	91.140	0.130	-0.450	0.860
2020/01/31 04:55:35.2	91.130	0.130	-0.410	0.880
2020/01/31 04:55:35.3	91.120	0.140	-0.360	0.900
2020/01/31 04:55:35.4	91.110	0.140	-0.320	0.920
2020/01/31 04:55:35.5	91.100	0.140	-0.270	0.940
2020/01/31 04:55:35.6	91.090	0.140	-0.230	0.960
2020/01/31 04:55:35.7	91.080	0.140	-0.190	0.980
2020/01/31 04:55:35.8	91.070	0.140	-0.160	0.990
2020/01/31 04:55:35.9	91.070	0.140	-0.120	1.000
2020/01/31 04:55:36.0	91.060	0.140	-0.090	1.010
2020/01/31 04:55:36.1	91.050	0.140	-0.060	1.010
2020/01/31 04:55:36.2	91.050	0.140	-0.030	1.010
2020/01/31 04:55:36.3	91.050	0.140	-0.010	1.000
2020/01/31 04:55:36.4	91.040	0.140	0.010	0.990
2020/01/31 04:55:36.5	91.040	0.140	0.030	0.980
2020/01/31 04:55:36.6	91.040	0.150	0.040	0.960
2020/01/31 04:55:36.7	91.040	0.150	0.050	0.940
2020/01/31 04:55:36.8	91.040	0.150	0.050	0.910
2020/01/31 04:55:36.9	91.040	0.160	0.050	0.880
2020/01/31 04:55:37.0	91.050	0.160	0.050	0.840
2020/01/31 04:55:37.1	91.050	0.170	0.040	0.810
2020/01/31 04:55:37.2	91.070	0.180	0.030	0.770
2020/01/31 04:55:37.3	91.080	0.180	0.010	0.730
2020/01/31 04:55:37.4	91.090	0.190	-0.010	0.690
2020/01/31 04:55:37.5	91.100	0.200	-0.030	0.650
2020/01/31 04:55:37.6	91.110	0.220	-0.060	0.610
2020/01/31 04:55:37.7	91.130	0.230	-0.090	0.580
2020/01/31 04:55:37.8	91.150	0.240	-0.120	0.550
2020/01/31 04:55:37.9	91.160	0.260	-0.150	0.520
2020/01/31 04:55:38.0	91.180	0.270	-0.190	0.500
2020/01/31 04:55:38.1	91.190	0.290	-0.220	0.480
2020/01/31 04:55:38.2	91.210	0.300	-0.260	0.460
2020/01/31 04:55:38.3	91.220	0.320	-0.300	0.450
2020/01/31 04:55:38.4	91.240	0.330	-0.330	0.440
2020/01/31 04:55:38.5	91.250	0.350	-0.370	0.440
2020/01/31 04:55:38.6	91.270	0.360	-0.410	0.440
2020/01/31 04:55:38.7	91.280	0.370	-0.440	0.440
2020/01/31 04:55:38.8	91.290	0.380	-0.470	0.450
2020/01/31 04:55:38.9	91.310	0.390	-0.500	0.450
2020/01/31 04:55:39.0	91.320	0.400	-0.520	0.460
2020/01/31 04:55:39.1	91.330	0.410	-0.540	0.470
2020/01/31 04:55:39.2	91.330	0.410	-0.560	0.480
2020/01/31 04:55:39.3	91.340	0.410	-0.570	0.490
2020/01/31 04:55:39.4	91.340	0.410	-0.570	0.500
2020/01/31 04:55:39.5	91.350	0.400	-0.570	0.520
2020/01/31 04:55:39.6	91.350	0.400	-0.560	0.530
2020/01/31 04:55:39.7	91.340	0.390	-0.550	0.540
2020/01/31 04:55:39.8	91.340	0.370	-0.530	0.550
2020/01/31 04:55:39.9	91.330	0.360	-0.510	0.560
2020/01/31 04:55:40.0	91.320	0.330	-0.480	0.580
2020/01/31 04:55:40.1	91.310	0.310	-0.440	0.590
2020/01/31 04:55:40.2	91.290	0.280	-0.400	0.610
2020/01/31 04:55:40.3	91.270	0.250	-0.360	0.620
2020/01/31 04:55:40.4	91.250	0.220	-0.310	0.640
2020/01/31 04:55:40.5	91.240	0.190	-0.260	0.660
2020/01/31 04:55:40.6	91.220	0.150	-0.210	0.680
2020/01/31 04:55:40.7	91.200	0.110	-0.150	0.690
2020/01/31 04:55:40.8	91.170	0.070	-0.100	0.710
2020/01/31 04:55:40.9	91.150	0.020	-0.040	0.730
2020/01/31 04:55:41.0	91.140	-0.020	0.010	0.750
2020/01/31 04:55:41.1	91.120	-0.070	0.070	0.770
2020/01/31 04:55:41.2	91.110	-0.110	0.120	0.800
2020/01/31 04:55:41.3	91.090	-0.160	0.170	0.820
2020/01/31 04:55:41.4	91.080	-0.210	0.210	0.840
2020/01/31 04:55:41.5	91.070	-0.250	0.250	0.850
2020/01/31 04:55:41.6	91.070	-0.290	0.290	0.870
2020/01/31 04:55:41.7	91.070	-0.340	0.310	0.890
2020/01/31 04:55:41.8	91.070	-0.370	0.340	0.900
2020/01/31 04:55:41.9	91.070	-0.410	0.350	0.910
2020/01/31 04:55:42.0	91.080	-0.450	0.360	0.920
2020/01/31 04:55:42.1	91.090	-0.480	0.360	0.930
2020/01/31 04:55:42.2	91.100	-0.500	0.350	0.940
2020/01/31 04:55:42.3	91.120	-0.530	0.330	0.940
2020/01/31 04:55:42.4	91.130	-0.550	0.310	0.940
2020/01/31 04:55:42.5	91.150	-0.560	0.290	0.940
2020/01/31 04:55:42.6	91.170	-0.570	0.250	0.940
2020/01/31 04:55:42.7	91.200	-0.580	0.210	0.930
2020/01/31 04:55:42.8	91.220	-0.580	0.170	0.930
2020/01/31 04:55:42.9	91.240	-0.580	0.120	0.920
2020/01/31 04:55:43.0	91.270	-0.570	0.070	0.910
2020/01/31 04:55:43.1	91.290	-0.560	0.020	0.900
2020/01/31 04:55:43.2	91.310	-0.550	-0.040	0.880
2020/01/31 04:55:43.3	91.340	-0.530	-0.090	0.870
2020/01/31 04:55:43.4	91.360	-0.510	-0.150	0.850
2020/01/31 04:55:43.5	91.380	-0.480	-0.210	0.840
2020/01/31 04:55:43.6	91.400	-0.460	-0.270	0.820
2020/01/31 04:55:43.7	91.420	-0.430	-0.330	0.800
2020/01/31 04:55:43.8	91.430	-0.400	-0.380	0.780
2020/01/31 04:55:43.9	91.450	-0.370	-0.430	0.760
2020/01/31 04:55:44.0	91.460	-0.340	-0.480	0.740
2020/01/31 04:55:44.1	91.470	-0.300	-0.530	0.720
2020/01/31 04:55:44.2	91.480	-0.270	-0.570	0.700
2020/01/31 04:55:44.3	91.490	-0.230	-0.610	0.690
2020/01/31 04:55:44.4	91.490	-0.200	-0.650	0.680
2020/01/31 04:55:44.5	91.490	-0.160	-0.680	0.670
2020/01/31 04:55:44.6	91.490	-0.130	-0.710	0.660
2020/01/31 04:55:44.7	91.490	-0.090	-0.730	0.660
2020/01/31 04:55:44.8	91.490	-0.060	-0.750	0.660
2020/01/31 04:55:44.9	91.480	-0.030	-0.770	0.670
2020/01/31 04:55:45.0	91.470	0.000	-0.780	0.680
2020/01/31 04:55:45.1	91.460	0.030	-0.790	0.690
2020/01/31 04:55:45.2	91.450	0.060	-0.790	0.700
2020/01/31 04:55:45.3	91.440	0.080	-0.790	0.720
2020/01/31 04:55:45.4	91.430	0.100	-0.790	0.740
2020/01/31 04:55:45.5	91.410	0.130	-0.780	0.760
2020/01/31 04:55:45.6	91.400	0.140	-0.770	0.780
2020/01/31 04:55:45.7	91.390	0.160	-0.750	0.800
2020/01/31 04:55:45.8	91.390	0.170	-0.730	0.820
2020/01/31 04:55:45.9	91.380	0.180	-0.710	0.840
2020/01/31 04:55:46.0	91.370	0.190	-0.690	0.860
2020/01/31 04:55:46.1	91.360	0.190	-0.660	0.880
2020/01/31 04:55:46.2	91.360	0.200	-0.630	0.900
2020/01/31 04:55:46.3	91.350	0.200	-0.600	0.910
2020/01/31 04:55:46.4	91.350	0.190	-0.560	0.930
2020/01/31 04:55:46.5	91.340	0.190	-0.520	0.940
2020/01/31 04:55:46.6	91.340	0.180	-0.480	0.950
2020/01/31 04:55:46.7	91.330	0.170	-0.440	0.960
2020/01/31 04:55:46.8	91.330	0.160	-0.390	0.960
2020/01/31 04:55:46.9	91.330	0.140	-0.340	0.960
2020/01/31 04:55:47.0	91.330	0.120	-0.290	0.960
2020/01/31 04:55:47.1	91.330	0.110	-0.230	0.960
2020/01/31 04:55:47.2	91.330	0.090	-0.180	0.950
2020/01/31 04:55:47.3	91.330	0.070	-0.120	0.940
2020/01/31 04:55:47.4	91.330	0.040	-0.060	0.920
2020/01/31 04:55:47.5	91.330	0.020	-0.010	0.910
2020/01/31 04:55:47.6	91.330	-0.000	0.050	0.880
2020/01/31 04:55:47.7	91.330	-0.020	0.100	0.860
2020/01/31 04:55:47.8	91.330	-0.050	0.160	0.830
2020/01/31 04:55:47.9	91.330	-0.070	0.200	0.800
2020/01/31 04:55:48.0	91.340	-0.090	0.250	0.760
2020/01/31 04:55:48.1	91.340	-0.110	0.290	0.720
2020/01/31 04:55:48.2	91.350	-0.120	0.320	0.680
2020/01/31 04:55:48.3	91.350	-0.140	0.350	0.640
2020/01/31 04:55:48.4	91.360	-0.150	0.380	0.590
2020/01/31 04:55:48.5	91.380	-0.160	0.400	0.540
2020/01/31 04:55:48.6	91.390	-0.160	0.410	0.490
2020/01/31 04:55:48.7	91.410	-0.160	0.410	0.440
2020/01/31 04:55:48.8	91.430	-0.160	0.410	0.390
2020/01/31 04:55:48.9	91.450	-0.160	0.400	0.340
2020/01/31 04:55:49.0	91.470	-0.150	0.380	0.280
2020/01/31 04:55:49.1	91.500	-0.140	0.360	0.230
2020/01/31 04:55:49.2	91.520	-0.120	0.340	0.180
2020/01/31 04:55:49.3	91.550	-0.100	0.300	0.140
2020/01/31 04:55:49.4	91.590	-0.080	0.260	0.090
2020/01/31 04:55:49.5	91.620	-0.050	0.210	0.050
2020/01/31 04:55:49.6	91.660	-0.020	0.160	0.020
2020/01/31 04:55:49.7	91.690	0.010	0.110	-0.020
2020/01/31 04:55:49.8	91.730	0.040	0.060	-0.040
2020/01/31 04:55:49.9	91.760	0.070	0.000	-0.070
2020/01/31 04:55:50.0	91.800	0.100	-0.060	-0.090
2020/01/31 04:55:50.1	91.830	0.140	-0.120	-0.100
2020/01/31 04:55:50.2	91.860	0.170	-0.170	-0.110
2020/01/31 04:55:50.3	91.890	0.210	-0.230	-0.120
2020/01/31 04:55:50.4	91.920	0.240	-0.280	-0.120
2020/01/31 04:55:50.5	91.950	0.270	-0.330	-0.120
2020/01/31 04:55:50.6	91.970	0.300	-0.380	-0.120
2020/01/31 04:55:50.7	92.000	0.320	-0.420	-0.110
2020/01/31 04:55:50.8	92.020	0.350	-0.460	-0.110
2020/01/31 04:55:50.9	92.030	0.370	-0.490	-0.100
2020/01/31 04:55:51.0	92.050	0.380	-0.520	-0.090
2020/01/31 04:55:51.1	92.060	0.390	-0.540	-0.080
2020/01/31 04:55:51.2	92.070	0.400	-0.560	-0.060
2020/01/31 04:55:51.3	92.070	0.400	-0.570	-0.050
2020/01/31 04:55:51.4	92.080	0.400	-0.570	-0.030
2020/01/31 04:55:51.5	92.080	0.400	-0.560	-0.010
2020/01/31 04:55:51.6	92.070	0.390	-0.550	0.000
2020/01/31 04:55:51.7	92.070	0.380	-0.540	0.020
2020/01/31 04:55:51.8	92.060	0.360	-0.520	0.050
2020/01/31 04:55:51.9	92.050	0.340	-0.490	0.070
2020/01/31 04:55:52.0	92.040	0.310	-0.460	0.100
2020/01/31 04:55:52.1	92.030	0.290	-0.420	0.130
2020/01/31 04:55:52.2	92.010	0.250	-0.390	0.160
2020/01/31 04:55:52.3	91.990	0.220	-0.340	0.190
2020/01/31 04:55:52.4	91.960	0.190	-0.300	0.220
2020/01/31 04:55:52.5	91.940	0.150	-0.250	0.260
2020/01/31 04:55:52.6	91.910	0.110	-0.210	0.300
2020/01/31 04:55:52.7	91.880	0.070	-0.160	0.340
2020/01/31 04:55:52.8	91.850	0.040	-0.110	0.380
2020/01/31 04:55:52.9	91.820	-0.000	-0.060	0.430
2020/01/31 04:55:53.0	91.790	-0.040	-0.020	0.470
2020/01/31 04:55:53.1	91.750	-0.080	0.020	0.520
2020/01/31 04:55:53.2	91.720	-0.110	0.070	0.560
2020/01/31 04:55:53.3	91.690	-0.140	0.100	0.610
2020/01/31 04:55:53.4	91.650	-0.170	0.130	0.650
2020/01/31 04:55:53.5	91.620	-0.200	0.160	0.690
2020/01/31 04:55:53.6	91.590	-0.230	0.180	0.720
2020/01/31 04:55:53.7	91.570	-0.250	0.190	0.750
2020/01/31 04:55:53.8	91.540	-0.270	0.200	0.780
2020/01/31 04:55:53.9	91.520	-0.280	0.200	0.800
2020/01/31 04:55:54.0	91.500	-0.300	0.200	0.820
2020/01/31 04:55:54.1	91.490	-0.310	0.190	0.830
2020/01/31 04:55:54.2	91.480	-0.310	0.160	0.840
2020/01/31 04:55:54.3	91.470	-0.310	0.140	0.840
2020/01/31 04:55:54.4	91.470	-0.310	0.100	0.830
2020/01/31 04:55:54.5	91.470	-0.310	0.060	0.820
2020/01/31 04:55:54.6	91.470	-0.300	0.020	0.800
2020/01/31 04:55:54.7	91.480	-0.280	-0.030	0.780
2020/01/31 04:55:54.8	91.490	-0.270	-0.090	0.750
2020/01/31 04:55:54.9	91.500	-0.250	-0.160	0.720
2020/01/31 04:55:55.0	91.520	-0.220	-0.230	0.690
2020/01/31 04:55:55.1	91.540	-0.200	-0.310	0.660
2020/01/31 04:55:55.2	91.560	-0.170	-0.380	0.620
2020/01/31 04:55:55.3	91.580	-0.130	-0.470	0.590
2020/01/31 04:55:55.4	91.610	-0.100	-0.550	0.560
2020/01/31 04:55:55.5	91.630	-0.060	-0.640	0.530
2020/01/31 04:55:55.6	91.660	-0.020	-0.730	0.510
2020/01/31 04:55:55.7	91.680	0.020	-0.810	0.490
2020/01/31 04:55:55.8	91.710	0.060	-0.900	0.470
2020/01/31 04:55:55.9	91.730	0.100	-0.980	0.460
2020/01/31 04:55:56.0	91.750	0.140	-1.060	0.450
2020/01/31 04:55:56.1	91.770	0.180	-1.120	0.450
2020/01/31 04:55:56.2	91.790	0.220	-1.190	0.450
2020/01/31 04:55:56.3	91.800	0.260	-1.240	0.460
2020/01/31 04:55:56.4	91.810	0.290	-1.280	0.470
2020/01/31 04:55:56.5	91.820	0.320	-1.310	0.480
2020/01/31 04:55:56.6	91.830	0.340	-1.330	0.490
2020/01/31 04:55:56.7	91.840	0.360	-1.330	0.510
2020/01/31 04:55:56.8	91.850	0.380	-1.330	0.530
2020/01/31 04:55:56.9	91.850	0.390	-1.310	0.540
2020/01/31 04:55:57.0	91.860	0.390	-1.270	0.560
2020/01/31 04:55:57.1	91.860	0.390	-1.230	0.580
2020/01/31 04:55:57.2	91.870	0.390	-1.170	0.600
2020/01/31 04:55:57.3	91.870	0.370	-1.100	0.620
2020/01/31 04:55:57.4	91.870	0.350	-1.010	0.640
2020/01/31 04:55:57.5	91.870	0.320	-0.920	0.660
2020/01/31 04:55:57.6	91.870	0.290	-0.820	0.680
2020/01/31 04:55:57.7	91.860	0.250	-0.700	0.700
2020/01/31 04:55:57.8	91.860	0.210	-0.580	0.730
2020/01/31 04:55:57.9	91.860	0.160	-0.460	0.750
2020/01/31 04:55:58.0	91.850	0.110	-0.330	0.780
2020/01/31 04:55:58.1	91.850	0.050	-0.190	0.800
2020/01/31 04:55:58.2	91.840	-0.010	-0.050	0.830
2020/01/31 04:55:58.3	91.830	-0.070	0.080	0.860
2020/01/31 04:55:58.4	91.830	-0.140	0.220	0.890
2020/01/31 04:55:58.5	91.830	-0.200	0.360	0.920
2020/01/31 04:55:58.6	91.820	-0.270	0.490	0.960
2020/01/31 04:55:58.7	91.820	-0.340	0.620	0.990
2020/01/31 04:55:58.8	91.820	-0.410	0.740	1.020
2020/01/31 04:55:58.9	91.810	-0.480	0.850	1.060
2020/01/31 04:55:59.0	91.810	-0.540	0.960	1.090
2020/01/31 04:55:59.1	91.810	-0.610	1.050	1.130
2020/01/31 04:55:59.2	91.790	-0.670	1.140	1.160
2020/01/31 04:55:59.3	91.790	-0.720	1.210	1.190
2020/01/31 04:55:59.4	91.790	-0.780	1.280	1.220
2020/01/31 04:55:59.5	91.780	-0.820	1.320	1.240
2020/01/31 04:55:59.6	91.780	-0.870	1.360	1.260
2020/01/31 04:55:59.7	91.780	-0.900	1.380	1.270
2020/01/31 04:55:59.8	91.780	-0.930	1.390	1.280
2020/01/31 04:55:59.9	91.780	-0.960	1.380	1.280
2020/01/31 04:56:00.0	91.780	-0.970	1.360	1.270
2020/01/31 04:56:00.1	91.780	-0.980	1.330	1.260
2020/01/31 04:56:00.2	91.780	-0.980	1.280	1.240
2020/01/31 04:56:00.3	91.780	-0.970	1.210	1.210
2020/01/31 04:56:00.4	91.780	-0.960	1.130	1.170
2020/01/31 04:56:00.5	91.790	-0.930	1.040	1.130
2020/01/31 04:56:00.6	91.790	-0.900	0.930	1.090
2020/01/31 04:56:00.7	91.800	-0.860	0.810	1.030
2020/01/31 04:56:00.8	91.800	-0.810	0.680	0.980
2020/01/31 04:56:00.9	91.810	-0.760	0.540	0.920
2020/01/31 04:56:01.0	91.810	-0.690	0.390	0.860
2020/01/31 04:56:01.1	91.810	-0.620	0.240	0.800
2020/01/31 04:56:01.2	91.820	-0.550	0.070	0.740
2020/01/31 04:56:01.3	91.820	-0.470	-0.090	0.680
2020/01/31 04:56:01.4	91.820	-0.380	-0.260	0.630
2020/01/31 04:56:01.5	91.820	-0.290	-0.430	0.570
2020/01/31 04:56:01.6	91.820	-0.190	-0.600	0.520
2020/01/31 04:56:01.7	91.820	-0.090	-0.770	0.480
2020/01/31 04:56:01.8	91.820	0.000	-0.930	0.430
2020/01/31 04:56:01.9	91.820	0.100	-1.090	0.390
2020/01/31 04:56:02.0	91.820	0.200	-1.240	0.350
2020/01/31 04:56:02.1	91.820	0.300	-1.380	0.310
2020/01/31 04:56:02.2	91.840	0.400	-1.510	0.280
2020/01/31 04:56:02.3	91.850	0.490	-1.630	0.250
2020/01/31 04:56:02.4	91.860	0.580	-1.730	0.220
2020/01/31 04:56:02.5	91.860	0.670	-1.820	0.200
2020/01/31 04:56:02.6	91.880	0.740	-1.890	0.180
2020/01/31 04:56:02.7	91.890	0.820	-1.950	0.170
2020/01/31 04:56:02.8	91.900	0.880	-1.980	0.160
2020/01/31 04:56:02.9	91.920	0.940	-2.000	0.160
2020/01/31 04:56:03.0	91.940	0.990	-1.990	0.150
2020/01/31 04:56:03.1	91.950	1.030	-1.970	0.160
2020/01/31 04:56:03.2	91.980	1.060	-1.940	0.160
2020/01/31 04:56:03.3	92.000	1.080	-1.880	0.170
2020/01/31 04:56:03.4	92.020	1.090	-1.800	0.180
2020/01/31 04:56:03.5	92.040	1.100	-1.700	0.190
2020/01/31 04:56:03.6	92.060	1.090	-1.590	0.210
2020/01/31 04:56:03.7	92.080	1.070	-1.470	0.220
2020/01/31 04:56:03.8	92.100	1.050	-1.330	0.240
2020/01/31 04:56:03.9	92.120	1.010	-1.170	0.250
2020/01/31 04:56:04.0	92.140	0.970	-1.010	0.270
2020/01/31 04:56:04.1	92.170	0.910	-0.840	0.280
2020/01/31 04:56:04.2	92.190	0.850	-0.660	0.300
2020/01/31 04:56:04.3	92.210	0.790	-0.470	0.320
2020/01/31 04:56:04.4	92.230	0.710	-0.290	0.340
2020/01/31 04:56:04.5	92.250	0.640	-0.100	0.360
2020/01/31 04:56:04.6	92.260	0.550	0.090	0.370
2020/01/31 04:56:04.7	92.270	0.460	0.270	0.390
2020/01/31 04:56:04.8	92.280	0.370	0.450	0.410
2020/01/31 04:56:04.9	92.290	0.280	0.620	0.430
2020/01/31 04:56:05.0	92.290	0.190	0.780	0.450
2020/01/31 04:56:05.1	92.300	0.090	0.940	0.470
2020/01/31 04:56:05.2	92.300	-0.000	1.080	0.500
2020/01/31 04:56:05.3	92.300	-0.100	1.210	0.530
2020/01/31 04:56:05.4	92.290	-0.190	1.330	0.550
2020/01/31 04:56:05.5	92.290	-0.270	1.420	0.580
2020/01/31 04:56:05.6	92.280	-0.360	1.500	0.610
2020/01/31 04:56:05.7	92.270	-0.440	1.570	0.640
2020/01/31 04:56:05.8	92.260	-0.510	1.610	0.670
2020/01/31 04:56:05.9	92.240	-0.580	1.630	0.700
2020/01/31 04:56:06.0	92.230	-0.640	1.640	0.730
2020/01/31 04:56:06.1	92.220	-0.690	1.620	0.760
2020/01/31 04:56:06.2	92.200	-0.730	1.580	0.780
2020/01/31 04:56:06.3	92.190	-0.770	1.530	0.810
2020/01/31 04:56:06.4	92.170	-0.790	1.450	0.840
2020/01/31 04:56:06.5	92.160	-0.810	1.360	0.860
2020/01/31 04:56:06.6	92.150	-0.820	1.240	0.880
2020/01/31 04:56:06.7	92.140	-0.820	1.120	0.900
2020/01/31 04:56:06.8	92.120	-0.810	0.980	0.920
2020/01/31 04:56:06.9	92.110	-0.790	0.830	0.940
2020/01/31 04:56:07.0	92.100	-0.770	0.670	0.950
2020/01/31 04:56:07.1	92.090	-0.740	0.500	0.960
2020/01/31 04:56:07.2	92.080	-0.700	0.320	0.970
2020/01/31 04:56:07.3	92.070	-0.660	0.150	0.980
2020/01/31 04:56:07.4	92.060	-0.610	-0.030	0.990
2020/01/31 04:56:07.5	92.050	-0.560	-0.200	1.000
2020/01/31 04:56:07.6	92.040	-0.510	-0.370	1.000
2020/01/31 04:56:07.7	92.030	-0.460	-0.530	1.000
2020/01/31 04:56:07.8	92.020	-0.400	-0.690	1.000
2020/01/31 04:56:07.9	92.020	-0.350	-0.830	1.000
2020/01/31 04:56:08.0	92.010	-0.300	-0.960	0.990
2020/01/31 04:56:08.1	92.010	-0.240	-1.070	0.970
2020/01/31 04:56:08.2	92.010	-0.190	-1.180	0.960
2020/01/31 04:56:08.3	92.010	-0.150	-1.270	0.940
2020/01/31 04:56:08.4	92.010	-0.100	-1.340	0.920
2020/01/31 04:56:08.5	92.020	-0.060	-1.400	0.900
2020/01/31 04:56:08.6	92.020	-0.020	-1.440	0.890
2020/01/31 04:56:08.7	92.020	0.010	-1.460	0.870
2020/01/31 04:56:08.8	92.030	0.040	-1.470	0.850
2020/01/31 04:56:08.9	92.040	0.070	-1.460	0.830
2020/01/31 04:56:09.0	92.040	0.090	-1.440	0.820
2020/01/31 04:56:09.1	92.050	0.110	-1.400	0.810
2020/01/31 04:56:09.2	92.060	0.120	-1.350	0.800
2020/01/31 04:56:09.3	92.070	0.130	-1.280	0.790
2020/01/31 04:56:09.4	92.080	0.130	-1.210	0.780
2020/01/31 04:56:09.5	92.090	0.140	-1.130	0.770
2020/01/31 04:56:09.6	92.100	0.130	-1.040	0.760
2020/01/31 04:56:09.7	92.110	0.130	-0.950	0.760
2020/01/31 04:56:09.8	92.130	0.120	-0.850	0.760
2020/01/31 04:56:09.9	92.140	0.110	-0.750	0.750
2020/01/31 04:56:10.0	92.150	0.100	-0.650	0.750
2020/01/31 04:56:10.1	92.170	0.090	-0.550	0.750
2020/01/31 04:56:10.2	92.190	0.080	-0.450	0.760
2020/01/31 04:56:10.3	92.200	0.070	-0.350	0.760
2020/01/31 04:56:10.4	92.210	0.060	-0.260	0.760
2020/01/31 04:56:10.5	92.230	0.050	-0.180	0.760
2020/01/31 04:56:10.6	92.240	0.040	-0.110	0.770
2020/01/31 04:56:10.7	92.250	0.030	-0.040	0.770
2020/01/31 04:56:10.8	92.260	0.030	0.020	0.770
2020/01/31 04:56:10.9	92.270	0.020	0.060	0.770
2020/01/31 04:56:11.0	92.290	0.020	0.100	0.770
2020/01/31 04:56:11.1	92.300	0.030	0.130	0.770
2020/01/31 04:56:11.2	92.300	0.030	0.150	0.770
2020/01/31 04:56:11.3	92.310	0.040	0.160	0.770
2020/01/31 04:56:11.4	92.310	0.040	0.170	0.770
2020/01/31 04:56:11.5	92.320	0.060	0.160	0.770
2020/01/31 04:56:11.6	92.320	0.070	0.150	0.760
2020/01/31 04:56:11.7	92.320	0.080	0.130	0.760
2020/01/31 04:56:11.8	92.330	0.100	0.100	0.750
2020/01/31 04:56:11.9	92.320	0.120	0.070	0.750
2020/01/31 04:56:12.0	92.320	0.140	0.030	0.740
2020/01/31 04:56:12.1	92.320	0.160	-0.010	0.730
2020/01/31 04:56:12.2	92.310	0.180	-0.060	0.720
2020/01/31 04:56:12.3	92.300	0.200	-0.110	0.710
2020/01/31 04:56:12.4	92.290	0.230	-0.150	0.690
2020/01/31 04:56:12.5	92.280	0.250	-0.210	0.680
2020/01/31 04:56:12.6	92.270	0.270	-0.260	0.670
2020/01/31 04:56:12.7	92.250	0.300	-0.310	0.660
2020/01/31 04:56:12.8	92.240	0.330	-0.360	0.650
2020/01/31 04:56:12.9	92.220	0.350	-0.410	0.630
2020/01/31 04:56:13.0	92.200	0.380	-0.450	0.620
2020/01/31 04:56:13.1	92.180	0.400	-0.490	0.610
2020/01/31 04:56:13.2	92.170	0.420	-0.530	0.600
2020/01/31 04:56:13.3	92.140	0.450	-0.560	0.590
2020/01/31 04:56:13.4	92.120	0.470	-0.590	0.590
2020/01/31 04:56:13.5	92.100	0.490	-0.610	0.580
2020/01/31 04:56:13.6	92.080	0.510	-0.630	0.580
2020/01/31 04:56:13.7	92.070	0.520	-0.640	0.580
2020/01/31 04:56:13.8	92.050	0.540	-0.640	0.580
2020/01/31 04:56:13.9	92.030	0.550	-0.640	0.580
2020/01/31 04:56:14.0	92.020	0.550	-0.630	0.580
2020/01/31 04:56:14.1	92.000	0.560	-0.610	0.580
2020/01/31 04:56:14.2	91.980	0.550	-0.580	0.590
2020/01/31 04:56:14.3	91.970	0.550	-0.550	0.590
2020/01/31 04:56:14.4	91.970	0.540	-0.510	0.600
2020/01/31 04:56:14.5	91.960	0.530	-0.470	0.600
2020/01/31 04:56:14.6	91.960	0.510	-0.420	0.600
2020/01/31 04:56:14.7	91.960	0.490	-0.360	0.600
2020/01/31 04:56:14.8	91.960	0.470	-0.300	0.610
2020/01/31 04:56:14.9	91.960	0.440	-0.240	0.610
2020/01/31 04:56:15.0	91.960	0.400	-0.180	0.610
2020/01/31 04:56:15.1	91.970	0.370	-0.110	0.610
2020/01/31 04:56:15.2	91.970	0.330	-0.050	0.610
2020/01/31 04:56:15.3	91.980	0.280	0.020	0.600
2020/01/31 04:56:15.4	91.990	0.240	0.090	0.600
2020/01/31 04:56:15.5	92.000	0.190	0.150	0.590
2020/01/31 04:56:15.6	92.010	0.140	0.210	0.590
2020/01/31 04:56:15.7	92.020	0.080	0.270	0.580
2020/01/31 04:56:15.8	92.030	0.030	0.320	0.570
2020/01/31 04:56:15.9	92.040	-0.020	0.370	0.550
2020/01/31 04:56:16.0	92.050	-0.080	0.420	0.540
2020/01/31 04:56:16.1	92.070	-0.130	0.460	0.520
2020/01/31 04:56:16.2	92.080	-0.190	0.490	0.510
2020/01/31 04:56:16.3	92.090	-0.240	0.520	0.490
2020/01/31 04:56:16.4	92.100	-0.290	0.540	0.480
2020/01/31 04:56:16.5	92.110	-0.340	0.550	0.460
2020/01/31 04:56:16.6	92.120	-0.380	0.560	0.450
2020/01/31 04:56:16.7	92.130	-0.420	0.560	0.440
2020/01/31 04:56:16.8	92.130	-0.460	0.550	0.430
2020/01/31 04:56:16.9	92.140	-0.500	0.540	0.420
2020/01/31 04:56:17.0	92.140	-0.530	0.520	0.410
2020/01/31 04:56:17.1	92.150	-0.560	0.500	0.410
2020/01/31 04:56:17.2	92.150	-0.590	0.470	0.410
2020/01/31 04:56:17.3	92.160	-0.610	0.450	0.410
2020/01/31 04:56:17.4	92.160	-0.630	0.410	0.420
2020/01/31 04:56:17.5	92.160	-0.650	0.380	0.430
2020/01/31 04:56:17.6	92.170	-0.660	0.340	0.440
2020/01/31 04:56:17.7	92.170	-0.670	0.300	0.450
2020/01/31 04:56:17.8	92.180	-0.670	0.260	0.460
2020/01/31 04:56:17.9	92.190	-0.680	0.210	0.480
2020/01/31 04:56:18.0	92.200	-0.680	0.170	0.500
2020/01/31 04:56:18.1	92.210	-0.670	0.120	0.520
2020/01/31 04:56:18.2	92.220	-0.670	0.070	0.550
2020/01/31 04:56:18.3	92.240	-0.660	0.020	0.570
2020/01/31 04:56:18.4	92.260	-0.640	-0.030	0.600
2020/01/31 04:56:18.5	92.280	-0.630	-0.080	0.630
2020/01/31 04:56:18.6	92.300	-0.610	-0.130	0.660
2020/01/31 04:56:18.7	92.330	-0.590	-0.190	0.690
2020/01/31 04:56:18.8	92.350	-0.570	-0.250	0.720
2020/01/31 04:56:18.9	92.380	-0.540	-0.310	0.750
2020/01/31 04:56:19.0	92.410	-0.520	-0.360	0.790
2020/01/31 04:56:19.1	92.430	-0.490	-0.430	0.820
2020/01/31 04:56:19.2	92.460	-0.460	-0.480	0.850
2020/01/31 04:56:19.3	92.490	-0.420	-0.540	0.880
2020/01/31 04:56:19.4	92.520	-0.390	-0.610	0.920
2020/01/31 04:56:19.5	92.540	-0.350	-0.670	0.950
2020/01/31 04:56:19.6	92.560	-0.310	-0.730	0.980
2020/01/31 04:56:19.7	92.580	-0.270	-0.790	1.020
2020/01/31 04:56:19.8	92.600	-0.230	-0.840	1.050
2020/01/31 04:56:19.9	92.610	-0.180	-0.900	1.090
2020/01/31 04:56:20.0	92.620	-0.140	-0.950	1.120
2020/01/31 04:56:20.1	92.620	-0.090	-0.990	1.160
2020/01/31 04:56:20.2	92.620	-0.050	-1.030	1.200
2020/01/31 04:56:20.3	92.610	-0.010	-1.060	1.230
2020/01/31 04:56:20.4	92.600	0.030	-1.090	1.260
2020/01/31 04:56:20.5	92.580	0.070	-1.100	1.290
2020/01/31 04:56:20.6	92.560	0.110	-1.110	1.320
2020/01/31 04:56:20.7	92.540	0.150	-1.110	1.350
2020/01/31 04:56:20.8	92.510	0.180	-1.100	1.370
2020/01/31 04:56:20.9	92.480	0.210	-1.080	1.390
2020/01/31 04:56:21.0	92.450	0.240	-1.050	1.400
2020/01/31 04:56:21.1	92.420	0.260	-1.010	1.420
2020/01/31 04:56:21.2	92.380	0.280	-0.970	1.420
2020/01/31 04:56:21.3	92.350	0.300	-0.920	1.430
2020/01/31 04:56:21.4	92.310	0.310	-0.860	1.430
2020/01/31 04:56:21.5	92.270	0.320	-0.790	1.430
2020/01/31 04:56:21.6	92.240	0.320	-0.720	1.430
2020/01/31 04:56:21.7	92.200	0.330	-0.650	1.420
2020/01/31 04:56:21.8	92.170	0.320	-0.570	1.410
2020/01/31 04:56:21.9	92.140	0.320	-0.490	1.400
2020/01/31 04:56:22.0	92.110	0.310	-0.410	1.380
2020/01/31 04:56:22.1	92.080	0.300	-0.330	1.360
2020/01/31 04:56:22.2	92.050	0.280	-0.240	1.340
2020/01/31 04:56:22.3	92.030	0.270	-0.170	1.320
2020/01/31 04:56:22.4	92.000	0.250	-0.090	1.290
2020/01/31 04:56:22.5	91.980	0.230	-0.020	1.260
2020/01/31 04:56:22.6	91.970	0.220	0.040	1.230
2020/01/31 04:56:22.7	91.950	0.200	0.100	1.190
2020/01/31 04:56:22.8	91.940	0.180	0.160	1.160
2020/01/31 04:56:22.9	91.920	0.170	0.200	1.120
2020/01/31 04:56:23.0	91.910	0.150	0.240	1.080
2020/01/31 04:56:23.1	91.910	0.140	0.270	1.030
2020/01/31 04:56:23.2	91.900	0.130	0.290	0.990
2020/01/31 04:56:23.3	91.900	0.120	0.310	0.940
2020/01/31 04:56:23.4	91.900	0.120	0.310	0.900
2020/01/31 04:56:23.5	91.890	0.110	0.310	0.850
2020/01/31 04:56:23.6	91.900	0.110	0.300	0.800
2020/01/31 04:56:23.7	91.900	0.120	0.290	0.740
2020/01/31 04:56:23.8	91.910	0.130	0.260	0.690
2020/01/31 04:56:23.9	91.920	0.140	0.230	0.640
2020/01/31 04:56:24.0	91.930	0.150	0.200	0.580
2020/01/31 04:56:24.1	91.940	0.170	0.160	0.530
2020/01/31 04:56:24.2	91.950	0.190	0.120	0.470
2020/01/31 04:56:24.3	91.970	0.210	0.080	0.420
2020/01/31 04:56:24.4	91.990	0.230	0.030	0.360
2020/01/31 04:56:24.5	92.000	0.250	-0.020	0.310
2020/01/31 04:56:24.6	92.020	0.270	-0.070	0.260
2020/01/31 04:56:24.7	92.040	0.300	-0.110	0.210
2020/01/31 04:56:24.8	92.050	0.320	-0.160	0.160
2020/01/31 04:56:24.9	92.070	0.340	-0.200	0.110
2020/01/31 04:56:25.0	92.080	0.360	-0.240	0.070
2020/01/31 04:56:25.1	92.100	0.380	-0.270	0.030
2020/01/31 04:56:25.2	92.100	0.390	-0.300	-0.010
2020/01/31 04:56:25.3	92.110	0.400	-0.330	-0.050
2020/01/31 04:56:25.4	92.120	0.410	-0.340	-0.080
2020/01/31 04:56:25.5	92.130	0.420	-0.360	-0.110
2020/01/31 04:56:25.6	92.130	0.420	-0.370	-0.140
2020/01/31 04:56:25.7	92.130	0.420	-0.370	-0.160
2020/01/31 04:56:25.8	92.140	0.420	-0.370	-0.180
2020/01/31 04:56:25.9	92.130	0.410	-0.360	-0.200
2020/01/31 04:56:26.0	92.130	0.390	-0.350	-0.210
2020/01/31 04:56:26.1	92.130	0.380	-0.330	-0.210
2020/01/31 04:56:26.2	92.120	0.360	-0.300	-0.200
2020/01/31 04:56:26.3	92.110	0.330	-0.280	-0.200
2020/01/31 04:56:26.4	92.100	0.300	-0.240	-0.180
2020/01/31 04:56:26.5	92.090	0.270	-0.210	-0.160
2020/01/31 04:56:26.6	92.080	0.240	-0.170	-0.130
2020/01/31 04:56:26.7	92.070	0.200	-0.130	-0.100
2020/01/31 04:56:26.8	92.060	0.170	-0.090	-0.060
2020/01/31 04:56:26.9	92.050	0.130	-0.050	-0.020
2020/01/31 04:56:27.0	92.040	0.090	-0.010	0.020
2020/01/31 04:56:27.1	92.030	0.040	0.030	0.070
2020/01/31 04:56:27.2	92.010	0.000	0.060	0.110
2020/01/31 04:56:27.3	92.000	-0.040	0.100	0.170
2020/01/31 04:56:27.4	91.990	-0.080	0.130	0.220
2020/01/31 04:56:27.5	91.980	-0.120	0.160	0.270
2020/01/31 04:56:27.6	91.970	-0.160	0.190	0.330
2020/01/31 04:56:27.7	91.960	-0.200	0.210	0.390
2020/01/31 04:56:27.8	91.950	-0.240	0.230	0.440
2020/01/31 04:56:27.9	91.940	-0.270	0.250	0.500
2020/01/31 04:56:28.0	91.930	-0.300	0.260	0.560
2020/01/31 04:56:28.1	91.910	-0.330	0.260	0.610
2020/01/31 04:56:28.2	91.910	-0.360	0.260	0.670
2020/01/31 04:56:28.3	91.890	-0.380	0.260	0.730
2020/01/31 04:56:28.4	91.880	-0.390	0.240	0.780
2020/01/31 04:56:28.5	91.860	-0.410	0.220	0.830
2020/01/31 04:56:28.6	91.840	-0.420	0.190	0.880
2020/01/31 04:56:28.7	91.820	-0.420	0.160	0.930
2020/01/31 04:56:28.8	91.810	-0.420	0.120	0.970
2020/01/31 04:56:28.9	91.790	-0.420	0.070	1.000
2020/01/31 04:56:29.0	91.770	-0.410	0.020	1.030
2020/01/31 04:56:29.1	91.760	-0.400	-0.040	1.060
2020/01/31 04:56:29.2	91.750	-0.380	-0.100	1.090
2020/01/31 04:56:29.3	91.730	-0.360	-0.170	1.100
2020/01/31 04:56:29.4	91.720	-0.330	-0.240	1.110
2020/01/31 04:56:29.5	91.720	-0.310	-0.310	1.120
2020/01/31 04:56:29.6	91.710	-0.270	-0.390	1.120
2020/01/31 04:56:29.7	91.710	-0.240	-0.470	1.120
2020/01/31 04:56:29.8	91.710	-0.200	-0.550	1.110
2020/01/31 04:56:29.9	91.710	-0.160	-0.630	1.100
2020/01/31 04:56:30.0	91.710	-0.120	-0.710	1.090
2020/01/31 04:56:30.1	91.720	-0.080	-0.790	1.080
2020/01/31 04:56:30.2	91.740	-0.040	-0.860	1.060
2020/01/31 04:56:30.3	91.750	0.010	-0.940	1.050
2020/01/31 04:56:30.4	91.760	0.050	-1.000	1.040
2020/01/31 04:56:30.5	91.780	0.100	-1.070	1.030
2020/01/31 04:56:30.6	91.790	0.140	-1.120	1.020
2020/01/31 04:56:30.7	91.810	0.180	-1.170	1.020
2020/01/31 04:56:30.8	91.820	0.220	-1.210	1.020
2020/01/31 04:56:30.9	91.840	0.260	-1.240	1.020
2020/01/31 04:56:31.0	91.850	0.300	-1.270	1.030
2020/01/31 04:56:31.1	91.860	0.330	-1.280	1.030
2020/01/31 04:56:31.2	91.870	0.360	-1.280	1.050
2020/01/31 04:56:31.3	91.880	0.380	-1.270	1.060
2020/01/31 04:56:31.4	91.880	0.400	-1.250	1.080
2020/01/31 04:56:31.5	91.880	0.410	-1.220	1.100
2020/01/31 04:56:31.6	91.880	0.420	-1.170	1.120
2020/01/31 04:56:31.7	91.880	0.430	-1.120	1.140
2020/01/31 04:56:31.8	91.870	0.420	-1.060	1.160
2020/01/31 04:56:31.9	91.860	0.420	-0.980	1.180
2020/01/31 04:56:32.0	91.850	0.410	-0.900	1.200
2020/01/31 04:56:32.1	91.830	0.390	-0.800	1.220
2020/01/31 04:56:32.2	91.820	0.370	-0.700	1.240
2020/01/31 04:56:32.3	91.800	0.340	-0.590	1.250
2020/01/31 04:56:32.4	91.780	0.310	-0.480	1.260
2020/01/31 04:56:32.5	91.760	0.270	-0.360	1.270
2020/01/31 04:56:32.6	91.730	0.230	-0.240	1.270
2020/01/31 04:56:32.7	91.710	0.190	-0.120	1.270
2020/01/31 04:56:32.8	91.680	0.140	0.000	1.270
2020/01/31 04:56:32.9	91.650	0.090	0.130	1.260
2020/01/31 04:56:33.0	91.620	0.040	0.250	1.260
2020/01/31 04:56:33.1	91.590	-0.020	0.360	1.240
2020/01/31 04:56:33.2	91.560	-0.070	0.470	1.230
2020/01/31 04:56:33.3	91.530	-0.130	0.580	1.210
2020/01/31 04:56:33.4	91.500	-0.190	0.680	1.180
2020/01/31 04:56:33.5	91.480	-0.240	0.770	1.160
2020/01/31 04:56:33.6	91.450	-0.290	0.850	1.130
2020/01/31 04:56:33.7	91.430	-0.340	0.920	1.100
2020/01/31 04:56:33.8	91.400	-0.390	0.980	1.070
2020/01/31 04:56:33.9	91.380	-0.440	1.030	1.040
2020/01/31 04:56:34.0	91.360	-0.480	1.070	1.010
2020/01/31 04:56:34.1	91.340	-0.520	1.090	0.980
2020/01/31 04:56:34.2	91.320	-0.550	1.110	0.940
2020/01/31 04:56:34.3	91.310	-0.580	1.110	0.910
2020/01/31 04:56:34.4	91.300	-0.600	1.090	0.870
2020/01/31 04:56:34.5	91.290	-0.620	1.060	0.840
2020/01/31 04:56:34.6	91.280	-0.630	1.020	0.810
2020/01/31 04:56:34.7	91.270	-0.630	0.970	0.780
2020/01/31 04:56:34.8	91.270	-0.630	0.910	0.750
2020/01/31 04:56:34.9	91.260	-0.620	0.840	0.720
2020/01/31 04:56:35.0	91.260	-0.610	0.750	0.690
2020/01/31 04:56:35.1	91.260	-0.590	0.660	0.660
2020/01/31 04:56:35.2	91.260	-0.570	0.560	0.630
2020/01/31 04:56:35.3	91.260	-0.540	0.460	0.600
2020/01/31 04:56:35.4	91.260	-0.500	0.350	0.570
2020/01/31 04:56:35.5	91.260	-0.470	0.240	0.540
2020/01/31 04:56:35.6	91.270	-0.430	0.120	0.510
2020/01/31 04:56:35.7	91.270	-0.380	0.010	0.480
2020/01/31 04:56:35.8	91.270	-0.340	-0.110	0.450
2020/01/31 04:56:35.9	91.270	-0.290	-0.220	0.420
2020/01/31 04:56:36.0	91.280	-0.240	-0.330	0.390
2020/01/31 04:56:36.1	91.280	-0.190	-0.430	0.360
2020/01/31 04:56:36.2	91.280	-0.140	-0.530	0.330
2020/01/31 04:56:36.3	91.280	-0.090	-0.630	0.300
2020/01/31 04:56:36.4	91.290	-0.040	-0.710	0.280
2020/01/31 04:56:36.5	91.290	0.010	-0.790	0.250
2020/01/31 04:56:36.6	91.290	0.060	-0.860	0.230
2020/01/31 04:56:36.7	91.290	0.100	-0.920	0.210
2020/01/31 04:56:36.8	91.290	0.150	-0.980	0.190
2020/01/31 04:56:36.9	91.290	0.190	-1.020	0.170
2020/01/31 04:56:37.0	91.290	0.220	-1.060	0.160
2020/01/31 04:56:37.1	91.290	0.250	-1.080	0.150
2020/01/31 04:56:37.2	91.290	0.280	-1.100	0.150
2020/01/31 04:56:37.3	91.290	0.310	-1.100	0.150
2020/01/31 04:56:37.4	91.290	0.330	-1.100	0.150
2020/01/31 04:56:37.5	91.280	0.350	-1.090	0.160
2020/01/31 04:56:37.6	91.280	0.370	-1.080	0.170
2020/01/31 04:56:37.7	91.270	0.380	-1.050	0.190
2020/01/31 04:56:37.8	91.260	0.380	-1.020	0.210
2020/01/31 04:56:37.9	91.250	0.380	-0.980	0.240
2020/01/31 04:56:38.0	91.240	0.380	-0.930	0.270
2020/01/31 04:56:38.1	91.230	0.370	-0.880	0.300
2020/01/31 04:56:38.2	91.230	0.360	-0.820	0.340
2020/01/31 04:56:38.3	91.220	0.350	-0.760	0.370
2020/01/31 04:56:38.4	91.210	0.330	-0.690	0.410
2020/01/31 04:56:38.5	91.190	0.310	-0.630	0.450
2020/01/31 04:56:38.6	91.180	0.290	-0.560	0.490
2020/01/31 04:56:38.7	91.160	0.270	-0.490	0.530
2020/01/31 04:56:38.8	91.150	0.240	-0.420	0.560
2020/01/31 04:56:38.9	91.130	0.210	-0.350	0.600
2020/01/31 04:56:39.0	91.120	0.180	-0.280	0.630
2020/01/31 04:56:39.1	91.110	0.150	-0.210	0.670
2020/01/31 04:56:39.2	91.090	0.130	-0.140	0.700
2020/01/31 04:56:39.3	91.080	0.100	-0.080	0.730
2020/01/31 04:56:39.4	91.070	0.070	-0.030	0.750
2020/01/31 04:56:39.5	91.060	0.040	0.020	0.770
2020/01/31 04:56:39.6	91.060	0.020	0.070	0.790
2020/01/31 04:56:39.7	91.050	-0.000	0.110	0.810
2020/01/31 04:56:39.8	91.050	-0.020	0.140	0.830
2020/01/31 04:56:39.9	91.050	-0.040	0.170	0.840
2020/01/31 04:56:40.0	91.040	-0.050	0.190	0.850
2020/01/31 04:56:40.1	91.040	-0.060	0.210	0.860
2020/01/31 04:56:40.2	91.050	-0.070	0.210	0.870
2020/01/31 04:56:40.3	91.060	-0.070	0.220	0.880
2020/01/31 04:56:40.4	91.060	-0.070	0.210	0.890
2020/01/31 04:56:40.5	91.060	-0.070	0.200	0.900
2020/01/31 04:56:40.6	91.070	-0.060	0.180	0.910
2020/01/31 04:56:40.7	91.070	-0.050	0.150	0.910
2020/01/31 04:56:40.8	91.070	-0.040	0.120	0.920
2020/01/31 04:56:40.9	91.070	-0.020	0.080	0.920
2020/01/31 04:56:41.0	91.080	-0.000	0.040	0.930
2020/01/31 04:56:41.1	91.080	0.020	-0.000	0.930
2020/01/31 04:56:41.2	91.090	0.040	-0.050	0.940
2020/01/31 04:56:41.3	91.090	0.070	-0.110	0.940
2020/01/31 04:56:41.4	91.090	0.100	-0.170	0.950
2020/01/31 04:56:41.5	91.090	0.130	-0.230	0.950
2020/01/31 04:56:41.6	91.090	0.160	-0.290	0.950
2020/01/31 04:56:41.7	91.080	0.190	-0.350	0.960
2020/01/31 04:56:41.8	91.080	0.220	-0.410	0.960
2020/01/31 04:56:41.9	91.070	0.260	-0.470	0.960
2020/01/31 04:56:42.0	91.070	0.290	-0.540	0.970
2020/01/31 04:56:42.1	91.060	0.320	-0.600	0.970
2020/01/31 04:56:42.2	91.060	0.350	-0.650	0.970
2020/01/31 04:56:42.3	91.050	0.380	-0.710	0.970
2020/01/31 04:56:42.4	91.040	0.410	-0.760	0.980
2020/01/31 04:56:42.5	91.030	0.430	-0.810	0.980
2020/01/31 04:56:42.6	91.020	0.460	-0.850	0.980
2020/01/31 04:56:42.7	91.020	0.480	-0.880	0.990
2020/01/31 04:56:42.8	91.010	0.500	-0.920	0.990
2020/01/31 04:56:42.9	91.000	0.510	-0.940	1.000
2020/01/31 04:56:43.0	91.000	0.520	-0.960	1.000
2020/01/31 04:56:43.1	90.990	0.530	-0.970	1.010
2020/01/31 04:56:43.2	90.990	0.530	-0.970	1.010
2020/01/31 04:56:43.3	90.990	0.530	-0.970	1.020
2020/01/31 04:56:43.4	91.000	0.520	-0.950	1.020
2020/01/31 04:56:43.5	91.000	0.510	-0.930	1.020
2020/01/31 04:56:43.6	91.010	0.490	-0.890	1.030
2020/01/31 04:56:43.7	91.010	0.470	-0.850	1.030
2020/01/31 04:56:43.8	91.020	0.440	-0.800	1.020
2020/01/31 04:56:43.9	91.030	0.410	-0.730	1.020
2020/01/31 04:56:44.0	91.040	0.370	-0.670	1.020
2020/01/31 04:56:44.1	91.060	0.330	-0.590	1.010
2020/01/31 04:56:44.2	91.070	0.290	-0.500	1.000
2020/01/31 04:56:44.3	91.090	0.240	-0.410	0.990
2020/01/31 04:56:44.4	91.100	0.180	-0.310	0.980
2020/01/31 04:56:44.5	91.120	0.130	-0.210	0.970
2020/01/31 04:56:44.6	91.140	0.070	-0.100	0.950
2020/01/31 04:56:44.7	91.160	0.010	0.010	0.940
2020/01/31 04:56:44.8	91.180	-0.060	0.130	0.920
2020/01/31 04:56:44.9	91.200	-0.120	0.250	0.910
2020/01/31 04:56:45.0	91.220	-0.190	0.360	0.890
2020/01/31 04:56:45.1	91.240	-0.250	0.480	0.880
2020/01/31 04:56:45.2	91.260	-0.320	0.600	0.860
2020/01/31 04:56:45.3	91.270	-0.390	0.710	0.840
2020/01/31 04:56:45.4	91.290	-0.450	0.810	0.830
2020/01/31 04:56:45.5	91.310	-0.520	0.920	0.810
2020/01/31 04:56:45.6	91.320	-0.580	1.010	0.800
2020/01/31 04:56:45.7	91.330	-0.640	1.090	0.790
2020/01/31 04:56:45.8	91.350	-0.690	1.170	0.770
2020/01/31 04:56:45.9	91.360	-0.740	1.230	0.760
2020/01/31 04:56:46.0	91.370	-0.790	1.290	0.750
2020/01/31 04:56:46.1	91.380	-0.830	1.330	0.740
2020/01/31 04:56:46.2	91.370	-0.860	1.350	0.730
2020/01/31 04:56:46.3	91.380	-0.900	1.360	0.720
2020/01/31 04:56:46.4	91.390	-0.920	1.360	0.710
2020/01/31 04:56:46.5	91.390	-0.940	1.340	0.700
2020/01/31 04:56:46.6	91.400	-0.950	1.310	0.690
2020/01/31 04:56:46.7	91.410	-0.960	1.270	0.680
2020/01/31 04:56:46.8	91.420	-0.960	1.210	0.670
2020/01/31 04:56:46.9	91.430	-0.950	1.130	0.650
2020/01/31 04:56:47.0	91.440	-0.930	1.040	0.640
2020/01/31 04:56:47.1	91.450	-0.910	0.940	0.630
2020/01/31 04:56:47.2	91.450	-0.880	0.830	0.620
2020/01/31 04:56:47.3	91.460	-0.850	0.700	0.600
2020/01/31 04:56:47.4	91.470	-0.810	0.570	0.590
2020/01/31 04:56:47.5	91.480	-0.770	0.430	0.580
2020/01/31 04:56:47.6	91.490	-0.720	0.280	0.570
2020/01/31 04:56:47.7	91.500	-0.660	0.130	0.560
2020/01/31 04:56:47.8	91.510	-0.600	-0.030	0.540
2020/01/31 04:56:47.9	91.520	-0.540	-0.180	0.530
2020/01/31 04:56:48.0	91.530	-0.480	-0.340	0.520
2020/01/31 04:56:48.1	91.540	-0.410	-0.500	0.510
2020/01/31 04:56:48.2	91.550	-0.340	-0.650	0.510
2020/01/31 04:56:48.3	91.560	-0.270	-0.800	0.500
2020/01/31 04:56:48.4	91.570	-0.200	-0.940	0.500
2020/01/31 04:56:48.5	91.570	-0.130	-1.070	0.500
2020/01/31 04:56:48.6	91.570	-0.060	-1.200	0.500
2020/01/31 04:56:48.7	91.570	0.010	-1.310	0.510
2020/01/31 04:56:48.8	91.570	0.080	-1.410	0.520
2020/01/31 04:56:48.9	91.570	0.140	-1.500	0.530
2020/01/31 04:56:49.0	91.560	0.200	-1.570	0.540
2020/01/31 04:56:49.1	91.550	0.260	-1.630	0.560
2020/01/31 04:56:49.2	91.530	0.320	-1.680	0.580
2020/01/31 04:56:49.3	91.510	0.370	-1.710	0.600
2020/01/31 04:56:49.4	91.500	0.410	-1.720	0.620
2020/01/31 04:56:49.5	91.480	0.460	-1.720	0.640
2020/01/31 04:56:49.6	91.450	0.490	-1.710	0.660
2020/01/31 04:56:49.7	91.430	0.520	-1.670	0.680
2020/01/31 04:56:49.8	91.410	0.550	-1.630	0.700
2020/01/31 04:56:49.9	91.380	0.570	-1.570	0.710
2020/01/31 04:56:50.0	91.360	0.580	-1.500	0.730
2020/01/31 04:56:50.1	91.330	0.590	-1.420	0.750
2020/01/31 04:56:50.2	91.300	0.600	-1.320	0.760
2020/01/31 04:56:50.3	91.280	0.600	-1.220	0.780
2020/01/31 04:56:50.4	91.250	0.590	-1.110	0.790
2020/01/31 04:56:50.5	91.230	0.580	-1.000	0.800
2020/01/31 04:56:50.6	91.200	0.560	-0.880	0.810
2020/01/31 04:56:50.7	91.180	0.540	-0.760	0.820
2020/01/31 04:56:50.8	91.160	0.520	-0.640	0.830
2020/01/31 04:56:50.9	91.140	0.490	-0.510	0.830
2020/01/31 04:56:51.0	91.120	0.460	-0.390	0.840
2020/01/31 04:56:51.1	91.100	0.430	-0.280	0.840
2020/01/31 04:56:51.2	91.090	0.400	-0.160	0.840
2020/01/31 04:56:51.3	91.070	0.360	-0.060	0.840
2020/01/31 04:56:51.4	91.060	0.330	0.050	0.840
2020/01/31 04:56:51.5	91.040	0.290	0.140	0.840
2020/01/31 04:56:51.6	91.030	0.250	0.220	0.840
2020/01/31 04:56:51.7	91.020	0.220	0.300	0.840
2020/01/31 04:56:51.8	91.010	0.180	0.360	0.830
2020/01/31 04:56:51.9	91.000	0.150	0.410	0.820
2020/01/31 04:56:52.0	90.990	0.120	0.460	0.820
2020/01/31 04:56:52.1	90.980	0.090	0.490	0.800
2020/01/31 04:56:52.2	90.970	0.060	0.510	0.790
2020/01/31 04:56:52.3	90.970	0.040	0.510	0.770
2020/01/31 04:56:52.4	90.970	0.020	0.510	0.750
2020/01/31 04:56:52.5	90.970	0.000	0.490	0.730
2020/01/31 04:56:52.6	90.970	-0.010	0.470	0.700
2020/01/31 04:56:52.7	90.980	-0.020	0.430	0.670
2020/01/31 04:56:52.8	90.980	-0.030	0.390	0.640
2020/01/31 04:56:52.9	90.990	-0.030	0.330	0.610
2020/01/31 04:56:53.0	91.000	-0.030	0.280	0.570
2020/01/31 04:56:53.1	91.020	-0.030	0.210	0.530
2020/01/31 04:56:53.2	91.030	-0.020	0.140	0.490
2020/01/31 04:56:53.3	91.050	-0.010	0.060	0.450
2020/01/31 04:56:53.4	91.060	0.000	-0.010	0.420
2020/01/31 04:56:53.5	91.080	0.020	-0.090	0.380
2020/01/31 04:56:53.6	91.100	0.030	-0.170	0.350
2020/01/31 04:56:53.7	91.110	0.050	-0.240	0.310
2020/01/31 04:56:53.8	91.130	0.070	-0.320	0.280
2020/01/31 04:56:53.9	91.150	0.100	-0.390	0.250
2020/01/31 04:56:54.0	91.170	0.120	-0.460	0.230
2020/01/31 04:56:54.1	91.190	0.140	-0.520	0.210
2020/01/31 04:56:54.2	91.200	0.170	-0.580	0.190
2020/01/31 04:56:54.3	91.220	0.190	-0.630	0.180
2020/01/31 04:56:54.4	91.240	0.210	-0.670	0.170
2020/01/31 04:56:54.5	91.260	0.230	-0.710	0.160
2020/01/31 04:56:54.6	91.270	0.250	-0.740	0.160
2020/01/31 04:56:54.7	91.290	0.270	-0.770	0.160
2020/01/31 04:56:54.8	91.310	0.280	-0.780	0.170
2020/01/31 04:56:54.9	91.330	0.290	-0.790	0.180
2020/01/31 04:56:55.0	91.340	0.300	-0.790	0.190
2020/01/31 04:56:55.1	91.360	0.310	-0.780	0.210
2020/01/31 04:56:55.2	91.360	0.310	-0.770	0.230
2020/01/31 04:56:55.3	91.380	0.310	-0.750	0.260
2020/01/31 04:56:55.4	91.390	0.310	-0.720	0.290
2020/01/31 04:56:55.5	91.410	0.300	-0.690	0.320
2020/01/31 04:56:55.6	91.420	0.290	-0.640	0.350
2020/01/31 04:56:55.7	91.430	0.270	-0.600	0.390
2020/01/31 04:56:55.8	91.440	0.250	-0.550	0.420
2020/01/31 04:56:55.9	91.450	0.230	-0.490	0.460
2020/01/31 04:56:56.0	91.460	0.200	-0.430	0.500
2020/01/31 04:56:56.1	91.470	0.170	-0.360	0.540
2020/01/31 04:56:56.2	91.480	0.140	-0.290	0.580
2020/01/31 04:56:56.3	91.480	0.100	-0.220	0.620
2020/01/31 04:56:56.4	91.490	0.060	-0.140	0.660
2020/01/31 04:56:56.5	91.490	0.020	-0.070	0.700
2020/01/31 04:56:56.6	91.490	-0.030	0.010	0.740
2020/01/31 04:56:56.7	91.500	-0.070	0.090	0.780
2020/01/31 04:56:56.8	91.500	-0.120	0.170	0.820
2020/01/31 04:56:56.9	91.490	-0.170	0.250	0.860
2020/01/31 04:56:57.0	91.490	-0.220	0.330	0.890
2020/01/31 04:56:57.1	91.480	-0.270	0.400	0.930
2020/01/31 04:56:57.2	91.470	-0.320	0.480	0.960
2020/01/31 04:56:57.3	91.460	-0.370	0.550	0.990
2020/01/31 04:56:57.4	91.440	-0.420	0.610	1.020
2020/01/31 04:56:57.5	91.430	-0.460	0.670	1.050
2020/01/31 04:56:57.6	91.410	-0.510	0.730	1.070
2020/01/31 04:56:57.7	91.390	-0.550	0.780	1.090
2020/01/31 04:56:57.8	91.380	-0.590	0.820	1.110
2020/01/31 04:56:57.9	91.360	-0.630	0.860	1.130
2020/01/31 04:56:58.0	91.340	-0.670	0.890	1.150
2020/01/31 04:56:58.1	91.320	-0.700	0.900	1.160
2020/01/31 04:56:58.2	91.300	-0.720	0.920	1.170
2020/01/31 04:56:58.3	91.280	-0.750	0.920	1.180
2020/01/31 04:56:58.4	91.250	-0.760	0.910	1.190
2020/01/31 04:56:58.5	91.230	-0.770	0.890	1.190
2020/01/31 04:56:58.6	91.210	-0.780	0.860	1.200
2020/01/31 04:56:58.7	91.190	-0.780	0.820	1.200
2020/01/31 04:56:58.8	91.180	-0.780	0.770	1.200
2020/01/31 04:56:58.9	91.160	-0.770	0.710	1.200
2020/01/31 04:56:59.0	91.140	-0.750	0.640	1.190
2020/01/31 04:56:59.1	91.130	-0.730	0.560	1.180
2020/01/31 04:56:59.2	91.110	-0.700	0.460	1.170
2020/01/31 04:56:59.3	91.100	-0.660	0.360	1.160
2020/01/31 04:56:59.4	91.090	-0.620	0.250	1.140
2020/01/31 04:56:59.5	91.090	-0.570	0.140	1.110
2020/01/31 04:56:59.6	91.090	-0.520	0.010	1.090
2020/01/31 04:56:59.7	91.090	-0.460	-0.120	1.050
2020/01/31 04:56:59.8	91.100	-0.400	-0.250	1.010
2020/01/31 04:56:59.9	91.100	-0.340	-0.380	0.970
2020/01/31 04:57:00.0	91.120	-0.270	-0.520	0.920
2020/01/31 04:57:00.1	91.130	-0.200	-0.660	0.870
2020/01/31 04:57:00.2	91.150	-0.120	-0.800	0.820
2020/01/31 04:57:00.3	91.170	-0.050	-0.930	0.760
2020/01/31 04:57:00.4	91.190	0.030	-1.060	0.700
2020/01/31 04:57:00.5	91.220	0.100	-1.180	0.640
2020/01/31 04:57:00.6	91.240	0.180	-1.290	0.590
2020/01/31 04:57:00.7	91.270	0.250	-1.400	0.530
2020/01/31 04:57:00.8	91.290	0.320	-1.490	0.480
2020/01/31 04:57:00.9	91.320	0.390	-1.570	0.430
2020/01/31 04:57:01.0	91.340	0.450	-1.650	0.390
2020/01/31 04:57:01.1	91.360	0.510	-1.700	0.350
2020/01/31 04:57:01.2	91.380	0.570	-1.740	0.320
2020/01/31 04:57:01.3	91.400	0.620	-1.770	0.290
2020/01/31 04:57:01.4	91.410	0.660	-1.780	0.270
2020/01/31 04:57:01.5	91.420	0.700	-1.780	0.260
2020/01/31 04:57:01.6	91.430	0.730	-1.760	0.250
2020/01/31 04:57:01.7	91.440	0.760	-1.730	0.260
2020/01/31 04:57:01.8	91.440	0.770	-1.670	0.260
2020/01/31 04:57:01.9	91.440	0.780	-1.610	0.270
2020/01/31 04:57:02.0	91.440	0.790	-1.530	0.290
2020/01/31 04:57:02.1	91.430	0.780	-1.430	0.310
2020/01/31 04:57:02.2	91.420	0.770	-1.320	0.340
2020/01/31 04:57:02.3	91.410	0.750	-1.200	0.360
2020/01/31 04:57:02.4	91.400	0.720	-1.070	0.390
2020/01/31 04:57:02.5	91.380	0.690	-0.930	0.420
2020/01/31 04:57:02.6	91.360	0.650	-0.790	0.460
2020/01/31 04:57:02.7	91.340	0.600	-0.630	0.490
2020/01/31 04:57:02.8	91.320	0.550	-0.470	0.520
2020/01/31 04:57:02.9	91.300	0.490	-0.310	0.560
2020/01/31 04:57:03.0	91.280	0.430	-0.150	0.590
2020/01/31 04:57:03.1	91.250	0.360	0.010	0.620
2020/01/31 04:57:03.2	91.240	0.290	0.180	0.650
2020/01/31 04:57:03.3	91.210	0.220	0.340	0.680
2020/01/31 04:57:03.4	91.190	0.150	0.490	0.710
2020/01/31 04:57:03.5	91.170	0.070	0.640	0.730
2020/01/31 04:57:03.6	91.140	-0.000	0.780	0.750
2020/01/31 04:57:03.7	91.120	-0.080	0.900	0.770
2020/01/31 04:57:03.8	91.100	-0.150	1.020	0.780
2020/01/31 04:57:03.9	91.080	-0.220	1.120	0.790
2020/01/31 04:57:04.0	91.060	-0.290	1.210	0.800
2020/01/31 04:57:04.1	91.040	-0.350	1.290	0.800
2020/01/31 04:57:04.2	91.030	-0.410	1.350	0.800
2020/01/31 04:57:04.3	91.010	-0.470	1.400	0.800
2020/01/31 04:57:04.4	91.000	-0.520	1.420	0.790
2020/01/31 04:57:04.5	90.990	-0.560	1.430	0.780
2020/01/31 04:57:04.6	90.980	-0.600	1.420	0.760
2020/01/31 04:57:04.7	90.980	-0.620	1.400	0.740
2020/01/31 04:57:04.8	90.970	-0.640	1.360	0.720
2020/01/31 04:57:04.9	90.970	-0.660	1.300	0.700
2020/01/31 04:57:05.0	90.970	-0.660	1.220	0.680
2020/01/31 04:57:05.1	90.980	-0.650	1.130	0.650
2020/01/31 04:57:05.2	90.980	-0.640	1.010	0.620
2020/01/31 04:57:05.3	90.990	-0.620	0.890	0.600
2020/01/31 04:57:05.4	91.000	-0.590	0.760	0.570
2020/01/31 04:57:05.5	91.010	-0.550	0.620	0.540
2020/01/31 04:57:05.6	91.020	-0.510	0.470	0.510
2020/01/31 04:57:05.7	91.040	-0.460	0.310	0.480
2020/01/31 04:57:05.8	91.060	-0.400	0.150	0.450
2020/01/31 04:57:05.9	91.080	-0.340	-0.020	0.430
2020/01/31 04:57:06.0	91.100	-0.280	-0.190	0.400
2020/01/31 04:57:06.1	91.120	-0.210	-0.350	0.370
2020/01/31 04:57:06.2	91.140	-0.140	-0.510	0.340
2020/01/31 04:57:06.3	91.170	-0.060	-0.670	0.310
2020/01/31 04:57:06.4	91.190	0.010	-0.820	0.290
2020/01/31 04:57:06.5	91.220	0.080	-0.960	0.270
2020/01/31 04:57:06.6	91.240	0.160	-1.090	0.250
2020/01/31 04:57:06.7	91.260	0.230	-1.210	0.230
2020/01/31 04:57:06.8	91.280	0.300	-1.320	0.220
2020/01/31 04:57:06.9	91.300	0.360	-1.420	0.210
2020/01/31 04:57:07.0	91.310	0.420	-1.490	0.210
2020/01/31 04:57:07.1	91.320	0.470	-1.560	0.200
2020/01/31 04:57:07.2	91.340	0.520	-1.610	0.200
2020/01/31 04:57:07.3	91.350	0.560	-1.640	0.200
2020/01/31 04:57:07.4	91.350	0.600	-1.650	0.210
2020/01/31 04:57:07.5	91.350	0.630	-1.650	0.210
2020/01/31 04:57:07.6	91.350	0.650	-1.630	0.230
2020/01/31 04:57:07.7	91.350	0.670	-1.600	0.240
2020/01/31 04:57:07.8	91.350	0.670	-1.550	0.260
2020/01/31 04:57:07.9	91.340	0.670	-1.490	0.280
2020/01/31 04:57:08.0	91.330	0.670	-1.420	0.300
2020/01/31 04:57:08.1	91.310	0.660	-1.330	0.320
2020/01/31 04:57:08.2	91.290	0.640	-1.230	0.360
2020/01/31 04:57:08.3	91.270	0.610	-1.120	0.390
2020/01/31 04:57:08.4	91.250	0.580	-1.010	0.420
2020/01/31 04:57:08.5	91.220	0.540	-0.890	0.450
2020/01/31 04:57:08.6	91.200	0.500	-0.770	0.490
2020/01/31 04:57:08.7	91.170	0.450	-0.640	0.520
2020/01/31 04:57:08.8	91.140	0.400	-0.520	0.560
2020/01/31 04:57:08.9	91.120	0.350	-0.390	0.600
2020/01/31 04:57:09.0	91.090	0.300	-0.260	0.640
2020/01/31 04:57:09.1	91.060	0.240	-0.140	0.670
2020/01/31 04:57:09.2	91.030	0.180	-0.020	0.710
2020/01/31 04:57:09.3	91.000	0.130	0.090	0.740
2020/01/31 04:57:09.4	90.980	0.070	0.190	0.780
2020/01/31 04:57:09.5	90.950	0.020	0.290	0.810
2020/01/31 04:57:09.6	90.930	-0.030	0.380	0.830
2020/01/31 04:57:09.7	90.910	-0.080	0.460	0.860
2020/01/31 04:57:09.8	90.890	-0.130	0.530	0.880
2020/01/31 04:57:09.9	90.870	-0.180	0.590	0.900
2020/01/31 04:57:10.0	90.860	-0.220	0.640	0.910
2020/01/31 04:57:10.1	90.850	-0.260	0.680	0.920
2020/01/31 04:57:10.2	90.850	-0.290	0.710	0.920
2020/01/31 04:57:10.3	90.840	-0.320	0.730	0.920
2020/01/31 04:57:10.4	90.840	-0.350	0.740	0.920
2020/01/31 04:57:10.5	90.840	-0.370	0.750	0.910
2020/01/31 04:57:10.6	90.840	-0.390	0.740	0.900
2020/01/31 04:57:10.7	90.840	-0.410	0.720	0.890
2020/01/31 04:57:10.8	90.840	-0.420	0.700	0.870
2020/01/31 04:57:10.9	90.850	-0.430	0.670	0.850
2020/01/31 04:57:11.0	90.850	-0.430	0.630	0.830
2020/01/31 04:57:11.1	90.860	-0.430	0.590	0.810
2020/01/31 04:57:11.2	90.870	-0.430	0.540	0.790
2020/01/31 04:57:11.3	90.880	-0.430	0.490	0.760
2020/01/31 04:57:11.4	90.880	-0.420	0.430	0.740
2020/01/31 04:57:11.5	90.890	-0.410	0.370	0.720
2020/01/31 04:57:11.6	90.900	-0.400	0.310	0.690
2020/01/31 04:57:11.7	90.910	-0.390	0.250	0.670
2020/01/31 04:57:11.8	90.920	-0.380	0.190	0.650
2020/01/31 04:57:11.9	90.930	-0.360	0.130	0.620
2020/01/31 04:57:12.0	90.940	-0.350	0.070	0.600
2020/01/31 04:57:12.1	90.950	-0.330	0.010	0.580
2020/01/31 04:57:12.2	90.960	-0.310	-0.050	0.550
2020/01/31 04:57:12.3	90.970	-0.300	-0.110	0.530
2020/01/31 04:57:12.4	90.980	-0.280	-0.160	0.510
2020/01/31 04:57:12.5	90.990	-0.270	-0.210	0.490
2020/01/31 04:57:12.6	91.010	-0.260	-0.260	0.470
2020/01/31 04:57:12.7	91.020	-0.240	-0.300	0.460
2020/01/31 04:57:12.8	91.030	-0.230	-0.350	0.450
2020/01/31 04:57:12.9	91.050	-0.220	-0.380	0.430
2020/01/31 04:57:13.0	91.060	-0.210	-0.420	0.430
2020/01/31 04:57:13.1	91.070	-0.200	-0.450	0.420
2020/01/31 04:57:13.2	91.080	-0.190	-0.480	0.420
2020/01/31 04:57:13.3	91.090	-0.180	-0.510	0.420
2020/01/31 04:57:13.4	91.100	-0.180	-0.530	0.420
2020/01/31 04:57:13.5	91.110	-0.170	-0.550	0.430
2020/01/31 04:57:13.6	91.120	-0.170	-0.570	0.440
2020/01/31 04:57:13.7	91.130	-0.160	-0.580	0.460
2020/01/31 04:57:13.8	91.130	-0.150	-0.600	0.480
2020/01/31 04:57:13.9	91.140	-0.150	-0.610	0.500
2020/01/31 04:57:14.0	91.150	-0.140	-0.610	0.520
2020/01/31 04:57:14.1	91.160	-0.140	-0.620	0.540
2020/01/31 04:57:14.2	91.170	-0.130	-0.630	0.570
2020/01/31 04:57:14.3	91.170	-0.120	-0.630	0.590
2020/01/31 04:57:14.4	91.180	-0.120	-0.630	0.620
2020/01/31 04:57:14.5	91.190	-0.110	-0.640	0.650
2020/01/31 04:57:14.6	91.190	-0.100	-0.640	0.670
2020/01/31 04:57:14.7	91.200	-0.090	-0.640	0.700
2020/01/31 04:57:14.8	91.210	-0.080	-0.630	0.720
2020/01/31 04:57:14.9	91.220	-0.070	-0.630	0.750
2020/01/31 04:57:15.0	91.230	-0.050	-0.630	0.770
2020/01/31 04:57:15.1	91.240	-0.040	-0.620	0.790
2020/01/31 04:57:15.2	91.250	-0.030	-0.610	0.810
2020/01/31 04:57:15.3	91.260	-0.010	-0.600	0.830
2020/01/31 04:57:15.4	91.270	-0.000	-0.590	0.860
2020/01/31 04:57:15.5	91.280	0.010	-0.570	0.880
2020/01/31 04:57:15.6	91.280	0.030	-0.560	0.900
2020/01/31 04:57:15.7	91.290	0.040	-0.540	0.920
2020/01/31 04:57:15.8	91.300	0.060	-0.520	0.940
2020/01/31 04:57:15.9	91.300	0.070	-0.500	0.960
2020/01/31 04:57:16.0	91.300	0.080	-0.470	0.980
2020/01/31 04:57:16.1	91.300	0.090	-0.440	1.000
2020/01/31 04:57:16.2	91.300	0.110	-0.410	1.020
2020/01/31 04:57:16.3	91.300	0.120	-0.380	1.040
2020/01/31 04:57:16.4	91.290	0.120	-0.340	1.050
2020/01/31 04:57:16.5	91.290	0.130	-0.310	1.060
2020/01/31 04:57:16.6	91.280	0.140	-0.270	1.070
2020/01/31 04:57:16.7	91.270	0.150	-0.230	1.080
2020/01/31 04:57:16.8	91.260	0.150	-0.190	1.090
2020/01/31 04:57:16.9	91.250	0.150	-0.140	1.090
2020/01/31 04:57:17.0	91.230	0.160	-0.100	1.090
2020/01/31 04:57:17.1	91.220	0.160	-0.060	1.080
2020/01/31 04:57:17.2	91.200	0.160	-0.020	1.070
2020/01/31 04:57:17.3	91.180	0.160	0.020	1.060
2020/01/31 04:57:17.4	91.160	0.160	0.050	1.050
2020/01/31 04:57:17.5	91.140	0.160	0.090	1.030
2020/01/31 04:57:17.6	91.120	0.160	0.120	1.010
2020/01/31 04:57:17.7	91.100	0.160	0.140	0.990
2020/01/31 04:57:17.8	91.080	0.160	0.170	0.970
2020/01/31 04:57:17.9	91.060	0.160	0.180	0.940
2020/01/31 04:57:18.0	91.040	0.160	0.200	0.920
2020/01/31 04:57:18.1	91.020	0.160	0.210	0.900
2020/01/31 04:57:18.2	90.990	0.160	0.220	0.870
2020/01/31 04:57:18.3	90.970	0.160	0.220	0.840
2020/01/31 04:57:18.4	90.950	0.160	0.210	0.820
2020/01/31 04:57:18.5	90.920	0.160	0.200	0.800
2020/01/31 04:57:18.6	90.900	0.170	0.190	0.770
2020/01/31 04:57:18.7	90.880	0.170	0.180	0.750
2020/01/31 04:57:18.8	90.860	0.170	0.160	0.720
2020/01/31 04:57:18.9	90.840	0.170	0.130	0.700
2020/01/31 04:57:19.0	90.820	0.170	0.100	0.670
2020/01/31 04:57:19.1	90.800	0.170	0.070	0.640
2020/01/31 04:57:19.2	90.790	0.170	0.040	0.620
2020/01/31 04:57:19.3	90.770	0.170	0.000	0.590
2020/01/31 04:57:19.4	90.760	0.170	-0.030	0.550
2020/01/31 04:57:19.5	90.750	0.170	-0.070	0.520
2020/01/31 04:57:19.6	90.740	0.170	-0.120	0.490
2020/01/31 04:57:19.7	90.730	0.170	-0.160	0.450
2020/01/31 04:57:19.8	90.730	0.170	-0.200	0.410
2020/01/31 04:57:19.9	90.740	0.170	-0.240	0.360
2020/01/31 04:57:20.0	90.740	0.170	-0.290	0.320
2020/01/31 04:57:20.1	90.750	0.170	-0.330	0.270
2020/01/31 04:57:20.2	90.760	0.180	-0.370	0.220
2020/01/31 04:57:20.3	90.780	0.180	-0.410	0.170
2020/01/31 04:57:20.4	90.800	0.180	-0.450	0.120
2020/01/31 04:57:20.5	90.830	0.180	-0.490	0.070
2020/01/31 04:57:20.6	90.850	0.190	-0.530	0.020
2020/01/31 04:57:20.7	90.880	0.190	-0.560	-0.030
2020/01/31 04:57:20.8	90.920	0.200	-0.590	-0.070
2020/01/31 04:57:20.9	90.950	0.200	-0.620	-0.110
2020/01/31 04:57:21.0	90.990	0.210	-0.640	-0.150
2020/01/31 04:57:21.1	91.030	0.210	-0.660	-0.180
2020/01/31 04:57:21.2	91.060	0.220	-0.680	-0.210
2020/01/31 04:57:21.3	91.100	0.220	-0.690	-0.220
2020/01/31 04:57:21.4	91.140	0.230	-0.690	-0.240
2020/01/31 04:57:21.5	91.180	0.230	-0.690	-0.240
2020/01/31 04:57:21.6	91.210	0.240	-0.680	-0.240
2020/01/31 04:57:21.7	91.250	0.240	-0.670	-0.230
2020/01/31 04:57:21.8	91.290	0.250	-0.650	-0.220
2020/01/31 04:57:21.9	91.320	0.250	-0.630	-0.200
2020/01/31 04:57:22.0	91.350	0.250	-0.600	-0.170
2020/01/31 04:57:22.1	91.380	0.240	-0.570	-0.140
2020/01/31 04:57:22.2	91.410	0.240	-0.540	-0.100
2020/01/31 04:57:22.3	91.440	0.230	-0.490	-0.060
2020/01/31 04:57:22.4	91.460	0.220	-0.450	-0.010
2020/01/31 04:57:22.5	91.480	0.210	-0.400	0.040
2020/01/31 04:57:22.6	91.500	0.200	-0.350	0.100
2020/01/31 04:57:22.7	91.510	0.190	-0.300	0.160
2020/01/31 04:57:22.8	91.520	0.170	-0.240	0.220
2020/01/31 04:57:22.9	91.540	0.150	-0.190	0.280
2020/01/31 04:57:23.0	91.550	0.130	-0.140	0.350
2020/01/31 04:57:23.1	91.550	0.110	-0.080	0.420
2020/01/31 04:57:23.2	91.560	0.080	-0.030	0.480
2020/01/31 04:57:23.3	91.570	0.050	0.020	0.550
2020/01/31 04:57:23.4	91.570	0.020	0.070	0.620
2020/01/31 04:57:23.5	91.580	-0.010	0.110	0.680
2020/01/31 04:57:23.6	91.580	-0.040	0.140	0.740
2020/01/31 04:57:23.7	91.580	-0.070	0.170	0.800
2020/01/31 04:57:23.8	91.580	-0.100	0.200	0.860
2020/01/31 04:57:23.9	91.580	-0.130	0.220	0.920
2020/01/31 04:57:24.0	91.580	-0.160	0.240	0.970
2020/01/31 04:57:24.1	91.580	-0.190	0.250	1.020
2020/01/31 04:57:24.2	91.570	-0.220	0.250	1.060
2020/01/31 04:57:24.3	91.570	-0.250	0.250	1.100
2020/01/31 04:57:24.4	91.570	-0.280	0.240	1.140
2020/01/31 04:57:24.5	91.560	-0.300	0.230	1.170
2020/01/31 04:57:24.6	91.560	-0.330	0.220	1.200
2020/01/31 04:57:24.7	91.550	-0.350	0.200	1.230
2020/01/31 04:57:24.8	91.540	-0.370	0.180	1.260
2020/01/31 04:57:24.9	91.540	-0.390	0.160	1.270
2020/01/31 04:57:25.0	91.530	-0.410	0.140	1.290
2020/01/31 04:57:25.1	91.520	-0.420	0.110	1.300
2020/01/31 04:57:25.2	91.520	-0.430	0.090	1.310
2020/01/31 04:57:25.3	91.510	-0.440	0.070	1.320
2020/01/31 04:57:25.4	91.500	-0.450	0.050	1.320
2020/01/31 04:57:25.5	91.490	-0.450	0.030	1.320
2020/01/31 04:57:25.6	91.480	-0.460	0.010	1.320
2020/01/31 04:57:25.7	91.470	-0.460	-0.010	1.310
2020/01/31 04:57:25.8	91.460	-0.450	-0.030	1.300
2020/01/31 04:57:25.9	91.450	-0.450	-0.040	1.280
2020/01/31 04:57:26.0	91.440	-0.440	-0.060	1.260
2020/01/31 04:57:26.1	91.430	-0.430	-0.070	1.240
2020/01/31 04:57:26.2	91.430	-0.420	-0.080	1.210
2020/01/31 04:57:26.3	91.420	-0.410	-0.090	1.180
2020/01/31 04:57:26.4	91.410	-0.390	-0.100	1.140
2020/01/31 04:57:26.5	91.400	-0.370	-0.120	1.110
2020/01/31 04:57:26.6	91.390	-0.350	-0.130	1.070
2020/01/31 04:57:26.7	91.390	-0.330	-0.140	1.030
2020/01/31 04:57:26.8	91.380	-0.300	-0.160	0.980
2020/01/31 04:57:26.9	91.370	-0.270	-0.170	0.940
2020/01/31 04:57:27.0	91.370	-0.240	-0.190	0.890
2020/01/31 04:57:27.1	91.370	-0.210	-0.210	0.840
2020/01/31 04:57:27.2	91.360	-0.180	-0.240	0.800
2020/01/31 04:57:27.3	91.360	-0.140	-0.260	0.750
2020/01/31 04:57:27.4	91.360	-0.110	-0.290	0.700
2020/01/31 04:57:27.5	91.360	-0.070	-0.320	0.650
2020/01/31 04:57:27.6	91.360	-0.030	-0.350	0.610
2020/01/31 04:57:27.7	91.360	0.000	-0.380	0.560
2020/01/31 04:57:27.8	91.360	0.040	-0.420	0.520
2020/01/31 04:57:27.9	91.360	0.080	-0.450	0.480
2020/01/31 04:57:28.0	91.370	0.120	-0.490	0.440
2020/01/31 04:57:28.1	91.370	0.160	-0.530	0.410
2020/01/31 04:57:28.2	91.380	0.200	-0.570	0.370
2020/01/31 04:57:28.3	91.390	0.230	-0.600	0.340
2020/01/31 04:57:28.4	91.390	0.270	-0.640	0.310
2020/01/31 04:57:28.5	91.400	0.300	-0.680	0.290
2020/01/31 04:57:28.6	91.410	0.340	-0.710	0.270
2020/01/31 04:57:28.7	91.410	0.370	-0.740	0.240
2020/01/31 04:57:28.8	91.420	0.400	-0.770	0.230
2020/01/31 04:57:28.9	91.430	0.420	-0.800	0.210
2020/01/31 04:57:29.0	91.440	0.440	-0.820	0.190
2020/01/31 04:57:29.1	91.450	0.460	-0.840	0.180
2020/01/31 04:57:29.2	91.460	0.480	-0.850	0.170
2020/01/31 04:57:29.3	91.480	0.490	-0.860	0.160
2020/01/31 04:57:29.4	91.490	0.500	-0.860	0.150
2020/01/31 04:57:29.5	91.500	0.510	-0.850	0.150
2020/01/31 04:57:29.6	91.510	0.510	-0.840	0.140
2020/01/31 04:57:29.7	91.530	0.510	-0.830	0.140
2020/01/31 04:57:29.8	91.540	0.500	-0.800	0.140
2020/01/31 04:57:29.9	91.550	0.490	-0.770	0.150
2020/01/31 04:57:30.0	91.570	0.470	-0.740	0.150
2020/01/31 04:57:30.1	91.580	0.450	-0.700	0.160
2020/01/31 04:57:30.2	91.590	0.430	-0.650	0.170
2020/01/31 04:57:30.3	91.610	0.410	-0.600	0.190
2020/01/31 04:57:30.4	91.620	0.380	-0.540	0.210
2020/01/31 04:57:30.5	91.630	0.340	-0.480	0.230
2020/01/31 04:57:30.6	91.640	0.310	-0.420	0.250
2020/01/31 04:57:30.7	91.660	0.270	-0.350	0.270
2020/01/31 04:57:30.8	91.670	0.230	-0.290	0.300
2020/01/31 04:57:30.9	91.680	0.190	-0.220	0.330
2020/01/31 04:57:31.0	91.690	0.140	-0.150	0.360
2020/01/31 04:57:31.1	91.700	0.100	-0.080	0.390
2020/01/31 04:57:31.2	91.710	0.060	-0.020	0.430
2020/01/31 04:57:31.3	91.720	0.010	0.040	0.460
2020/01/31 04:57:31.4	91.730	-0.030	0.100	0.490
2020/01/31 04:57:31.5	91.730	-0.080	0.160	0.530
2020/01/31 04:57:31.6	91.740	-0.120	0.210	0.560
2020/01/31 04:57:31.7	91.740	-0.160	0.260	0.600
2020/01/31 04:57:31.8	91.740	-0.200	0.310	0.630
2020/01/31 04:57:31.9	91.740	-0.240	0.340	0.660
2020/01/31 04:57:32.0	91.740	-0.270	0.370	0.700
2020/01/31 04:57:32.1	91.730	-0.300	0.400	0.730
2020/01/31 04:57:32.2	91.730	-0.330	0.420	0.760
2020/01/31 04:57:32.3	91.720	-0.350	0.430	0.780
2020/01/31 04:57:32.4	91.710	-0.370	0.430	0.810
2020/01/31 04:57:32.5	91.700	-0.390	0.430	0.840
2020/01/31 04:57:32.6	91.690	-0.400	0.420	0.860
2020/01/31 04:57:32.7	91.680	-0.410	0.400	0.880
2020/01/31 04:57:32.8	91.670	-0.410	0.380	0.910
2020/01/31 04:57:32.9	91.660	-0.410	0.350	0.920
2020/01/31 04:57:33.0	91.640	-0.410	0.320	0.940
2020/01/31 04:57:33.1	91.630	-0.400	0.280	0.950
2020/01/31 04:57:33.2	91.600	-0.390	0.240	0.960
2020/01/31 04:57:33.3	91.590	-0.380	0.190	0.970
2020/01/31 04:57:33.4	91.580	-0.360	0.140	0.980
2020/01/31 04:57:33.5	91.570	-0.350	0.090	0.990
2020/01/31 04:57:33.6	91.550	-0.330	0.040	0.990
2020/01/31 04:57:33.7	91.550	-0.300	-0.010	0.990
2020/01/31 04:57:33.8	91.540	-0.280	-0.060	0.990
2020/01/31 04:57:33.9	91.530	-0.260	-0.110	0.980
2020/01/31 04:57:34.0	91.520	-0.230	-0.160	0.980
2020/01/31 04:57:34.1	91.520	-0.210	-0.210	0.970
2020/01/31 04:57:34.2	91.510	-0.180	-0.250	0.960
2020/01/31 04:57:34.3	91.510	-0.160	-0.290	0.950
2020/01/31 04:57:34.4	91.510	-0.130	-0.330	0.940
2020/01/31 04:57:34.5	91.510	-0.110	-0.360	0.930
2020/01/31 04:57:34.6	91.520	-0.090	-0.390	0.910
2020/01/31 04:57:34.7	91.520	-0.070	-0.420	0.900
2020/01/31 04:57:34.8	91.520	-0.050	-0.440	0.880
2020/01/31 04:57:34.9	91.530	-0.030	-0.450	0.870
2020/01/31 04:57:35.0	91.540	-0.010	-0.460	0.860
2020/01/31 04:57:35.1	91.550	0.000	-0.470	0.840
2020/01/31 04:57:35.2	91.550	0.020	-0.470	0.830
2020/01/31 04:57:35.3	91.560	0.030	-0.470	0.810
2020/01/31 04:57:35.4	91.570	0.040	-0.470	0.790
2020/01/31 04:57:35.5	91.580	0.050	-0.460	0.780
2020/01/31 04:57:35.6	91.590	0.060	-0.440	0.760
2020/01/31 04:57:35.7	91.600	0.070	-0.430	0.740
2020/01/31 04:57:35.8	91.620	0.080	-0.410	0.730
2020/01/31 04:57:35.9	91.630	0.090	-0.390	0.710
2020/01/31 04:57:36.0	91.640	0.090	-0.370	0.690
2020/01/31 04:57:36.1	91.650	0.100	-0.350	0.670
2020/01/31 04:57:36.2	91.660	0.100	-0.320	0.650
2020/01/31 04:57:36.3	91.670	0.110	-0.300	0.630
2020/01/31 04:57:36.4	91.690	0.110	-0.280	0.600
2020/01/31 04:57:36.5	91.710	0.110	-0.260	0.580
2020/01/31 04:57:36.6	91.730	0.120	-0.240	0.550
2020/01/31 04:57:36.7	91.740	0.120	-0.220	0.530
2020/01/31 04:57:36.8	91.760	0.120	-0.200	0.510
2020/01/31 04:57:36.9	91.780	0.130	-0.180	0.480
2020/01/31 04:57:37.0	91.800	0.130	-0.170	0.460
2020/01/31 04:57:37.1	91.820	0.130	-0.160	0.440
2020/01/31 04:57:37.2	91.850	0.130	-0.150	0.410
2020/01/31 04:57:37.3	91.870	0.140	-0.150	0.400
2020/01/31 04:57:37.4	91.880	0.140	-0.140	0.390
2020/01/31 04:57:37.5	91.900	0.140	-0.140	0.370
2020/01/31 04:57:37.6	91.920	0.140	-0.140	0.370
2020/01/31 04:57:37.7	91.930	0.140	-0.140	0.360
2020/01/31 04:57:37.8	91.940	0.140	-0.150	0.360
2020/01/31 04:57:37.9	91.950	0.140	-0.150	0.370
2020/01/31 04:57:38.0	91.960	0.140	-0.160	0.370
2020/01/31 04:57:38.1	91.960	0.140	-0.160	0.380
2020/01/31 04:57:38.2	91.960	0.140	-0.170	0.400
2020/01/31 04:57:38.3	91.960	0.140	-0.180	0.410
2020/01/31 04:57:38.4	91.960	0.140	-0.180	0.430
2020/01/31 04:57:38.5	91.950	0.130	-0.190	0.440
2020/01/31 04:57:38.6	91.950	0.130	-0.200	0.460
2020/01/31 04:57:38.7	91.940	0.130	-0.200	0.480
2020/01/31 04:57:38.8	91.920	0.120	-0.210	0.510
2020/01/31 04:57:38.9	91.910	0.120	-0.210	0.530
2020/01/31 04:57:39.0	91.890	0.110	-0.210	0.550
2020/01/31 04:57:39.1	91.880	0.100	-0.210	0.570
2020/01/31 04:57:39.2	91.850	0.090	-0.210	0.590
2020/01/31 04:57:39.3	91.830	0.080	-0.200	0.610
2020/01/31 04:57:39.4	91.810	0.070	-0.200	0.630
2020/01/31 04:57:39.5	91.790	0.060	-0.190	0.640
2020/01/31 04:57:39.6	91.770	0.050	-0.180	0.660
2020/01/31 04:57:39.7	91.740	0.040	-0.170	0.680
2020/01/31 04:57:39.8	91.720	0.030	-0.160	0.690
2020/01/31 04:57:39.9	91.700	0.020	-0.150	0.700
2020/01/31 04:57:40.0	91.670	0.000	-0.140	0.710
2020/01/31 04:57:40.1	91.650	-0.010	-0.130	0.720
2020/01/31 04:57:40.2	91.620	-0.020	-0.120	0.730
2020/01/31 04:57:40.3	91.600	-0.030	-0.110	0.740
2020/01/31 04:57:40.4	91.570	-0.040	-0.100	0.740
2020/01/31 04:57:40.5	91.550	-0.050	-0.100	0.750
2020/01/31 04:57:40.6	91.530	-0.060	-0.090	0.750
2020/01/31 04:57:40.7	91.510	-0.070	-0.090	0.750
2020/01/31 04:57:40.8	91.490	-0.080	-0.090	0.760
2020/01/31 04:57:40.9	91.470	-0.080	-0.090	0.760
2020/01/31 04:57:41.0	91.460	-0.090	-0.100	0.760
2020/01/31 04:57:41.1	91.440	-0.090	-0.110	0.760
2020/01/31 04:57:41.2	91.430	-0.090	-0.120	0.760
2020/01/31 04:57:41.3	91.410	-0.090	-0.140	0.760
2020/01/31 04:57:41.4	91.400	-0.090	-0.160	0.760
2020/01/31 04:57:41.5	91.390	-0.090	-0.180	0.760
2020/01/31 04:57:41.6	91.370	-0.080	-0.210	0.760
2020/01/31 04:57:41.7	91.360	-0.080	-0.240	0.760
2020/01/31 04:57:41.8	91.360	-0.070	-0.270	0.760
2020/01/31 04:57:41.9	91.350	-0.060	-0.310	0.750
2020/01/31 04:57:42.0	91.350	-0.050	-0.340	0.750
2020/01/31 04:57:42.1	91.350	-0.040	-0.380	0.740
2020/01/31 04:57:42.2	91.350	-0.030	-0.420	0.730
2020/01/31 04:57:42.3	91.360	-0.010	-0.460	0.720
2020/01/31 04:57:42.4	91.360	0.000	-0.490	0.710
2020/01/31 04:57:42.5	91.370	0.020	-0.530	0.690
2020/01/31 04:57:42.6	91.380	0.030	-0.560	0.670
2020/01/31 04:57:42.7	91.390	0.050	-0.590	0.650
2020/01/31 04:57:42.8	91.400	0.060	-0.620	0.630
2020/01/31 04:57:42.9	91.410	0.080	-0.650	0.610
2020/01/31 04:57:43.0	91.430	0.100	-0.670	0.590
2020/01/31 04:57:43.1	91.440	0.110	-0.690	0.570
2020/01/31 04:57:43.2	91.450	0.130	-0.700	0.550
2020/01/31 04:57:43.3	91.460	0.140	-0.710	0.530
2020/01/31 04:57:43.4	91.480	0.160	-0.710	0.520
2020/01/31 04:57:43.5	91.490	0.170	-0.700	0.500
2020/01/31 04:57:43.6	91.500	0.180	-0.700	0.490
2020/01/31 04:57:43.7	91.510	0.190	-0.680	0.480
2020/01/31 04:57:43.8	91.530	0.200	-0.660	0.480
2020/01/31 04:57:43.9	91.540	0.210	-0.640	0.480
2020/01/31 04:57:44.0	91.550	0.210	-0.610	0.480
2020/01/31 04:57:44.1	91.560	0.220	-0.580	0.490
2020/01/31 04:57:44.2	91.560	0.220	-0.550	0.500
2020/01/31 04:57:44.3	91.570	0.220	-0.510	0.520
2020/01/31 04:57:44.4	91.580	0.220	-0.460	0.540
2020/01/31 04:57:44.5	91.580	0.220	-0.420	0.560
2020/01/31 04:57:44.6	91.590	0.220	-0.370	0.590
2020/01/31 04:57:44.7	91.600	0.210	-0.330	0.620
2020/01/31 04:57:44.8	91.600	0.210	-0.280	0.650
2020/01/31 04:57:44.9	91.610	0.200	-0.240	0.680
2020/01/31 04:57:45.0	91.610	0.190	-0.190	0.720
2020/01/31 04:57:45.1	91.610	0.170	-0.150	0.750
2020/01/31 04:57:45.2	91.620	0.160	-0.100	0.790
2020/01/31 04:57:45.3	91.630	0.150	-0.060	0.830
2020/01/31 04:57:45.4	91.630	0.130	-0.030	0.860
2020/01/31 04:57:45.5	91.630	0.110	-0.000	0.890
2020/01/31 04:57:45.6	91.640	0.100	0.020	0.920
2020/01/31 04:57:45.7	91.640	0.080	0.050	0.940
2020/01/31 04:57:45.8	91.640	0.060	0.060	0.970
2020/01/31 04:57:45.9	91.650	0.040	0.080	0.990
2020/01/31 04:57:46.0	91.650	0.020	0.080	1.010
2020/01/31 04:57:46.1	91.650	0.000	0.090	1.020
2020/01/31 04:57:46.2	91.650	-0.020	0.080	1.030
2020/01/31 04:57:46.3	91.650	-0.040	0.080	1.040
2020/01/31 04:57:46.4	91.650	-0.060	0.080	1.050
2020/01/31 04:57:46.5	91.650	-0.080	0.070	1.060
2020/01/31 04:57:46.6	91.650	-0.100	0.060	1.060
2020/01/31 04:57:46.7	91.650	-0.120	0.050	1.060
2020/01/31 04:57:46.8	91.650	-0.140	0.040	1.060
2020/01/31 04:57:46.9	91.650	-0.160	0.030	1.050
2020/01/31 04:57:47.0	91.650	-0.180	0.020	1.040
2020/01/31 04:57:47.1	91.640	-0.200	0.010	1.030
2020/01/31 04:57:47.2	91.640	-0.210	0.000	1.020
2020/01/31 04:57:47.3	91.630	-0.230	-0.000	1.010
2020/01/31 04:57:47.4	91.620	-0.250	-0.010	1.000
2020/01/31 04:57:47.5	91.620	-0.270	-0.010	0.980
2020/01/31 04:57:47.6	91.610	-0.280	-0.010	0.960
2020/01/31 04:57:47.7	91.600	-0.300	-0.010	0.950
2020/01/31 04:57:47.8	91.590	-0.310	-0.010	0.930
2020/01/31 04:57:47.9	91.570	-0.330	-0.000	0.910
2020/01/31 04:57:48.0	91.560	-0.340	0.010	0.900
2020/01/31 04:57:48.1	91.550	-0.360	0.020	0.880
2020/01/31 04:57:48.2	91.520	-0.370	0.030	0.860
2020/01/31 04:57:48.3	91.510	-0.380	0.040	0.850
2020/01/31 04:57:48.4	91.490	-0.390	0.050	0.830
2020/01/31 04:57:48.5	91.480	-0.400	0.060	0.820
2020/01/31 04:57:48.6	91.460	-0.410	0.070	0.810
2020/01/31 04:57:48.7	91.450	-0.410	0.090	0.800
2020/01/31 04:57:48.8	91.440	-0.420	0.100	0.790
2020/01/31 04:57:48.9	91.420	-0.420	0.110	0.780
2020/01/31 04:57:49.0	91.410	-0.420	0.110	0.770
2020/01/31 04:57:49.1	91.400	-0.420	0.120	0.760
2020/01/31 04:57:49.2	91.400	-0.420	0.120	0.750
2020/01/31 04:57:49.3	91.390	-0.420	0.120	0.740
2020/01/31 04:57:49.4	91.390	-0.410	0.120	0.730
2020/01/31 04:57:49.5	91.380	-0.400	0.110	0.720
2020/01/31 04:57:49.6	91.380	-0.390	0.100	0.700
2020/01/31 04:57:49.7	91.390	-0.380	0.090	0.690
2020/01/31 04:57:49.8	91.390	-0.370	0.070	0.670
2020/01/31 04:57:49.9	91.400	-0.350	0.050	0.650
2020/01/31 04:57:50.0	91.410	-0.330	0.020	0.630
2020/01/31 04:57:50.1	91.420	-0.310	-0.010	0.610
2020/01/31 04:57:50.2	91.440	-0.290	-0.040	0.590
2020/01/31 04:57:50.3	91.460	-0.270	-0.080	0.570
2020/01/31 04:57:50.4	91.470	-0.240	-0.120	0.550
2020/01/31 04:57:50.5	91.490	-0.220	-0.160	0.530
2020/01/31 04:57:50.6	91.510	-0.190	-0.200	0.500
2020/01/31 04:57:50.7	91.530	-0.160	-0.250	0.480
2020/01/31 04:57:50.8	91.550	-0.130	-0.290	0.460
2020/01/31 04:57:50.9	91.570	-0.110	-0.340	0.430
2020/01/31 04:57:51.0	91.590	-0.080	-0.390	0.410
2020/01/31 04:57:51.1	91.620	-0.050	-0.430	0.390
2020/01/31 04:57:51.2	91.640	-0.020	-0.480	0.360
2020/01/31 04:57:51.3	91.660	0.000	-0.520	0.340
2020/01/31 04:57:51.4	91.690	0.030	-0.570	0.320
2020/01/31 04:57:51.5	91.710	0.060	-0.610	0.300
2020/01/31 04:57:51.6	91.730	0.080	-0.640	0.280
2020/01/31 04:57:51.7	91.750	0.100	-0.680	0.260
2020/01/31 04:57:51.8	91.770	0.130	-0.710	0.250
2020/01/31 04:57:51.9	91.790	0.150	-0.740	0.240
2020/01/31 04:57:52.0	91.800	0.160	-0.760	0.230
2020/01/31 04:57:52.1	91.820	0.180	-0.780	0.230
2020/01/31 04:57:52.2	91.820	0.200	-0.800	0.230
2020/01/31 04:57:52.3	91.830	0.210	-0.810	0.240
2020/01/31 04:57:52.4	91.830	0.230	-0.820	0.250
2020/01/31 04:57:52.5	91.830	0.240	-0.820	0.260
2020/01/31 04:57:52.6	91.830	0.250	-0.810	0.280
2020/01/31 04:57:52.7	91.820	0.260	-0.800	0.310
2020/01/31 04:57:52.8	91.810	0.260	-0.790	0.340
2020/01/31 04:57:52.9	91.800	0.270	-0.760	0.370
2020/01/31 04:57:53.0	91.780	0.270	-0.740	0.410
2020/01/31 04:57:53.1	91.760	0.270	-0.710	0.440
2020/01/31 04:57:53.2	91.750	0.270	-0.660	0.480
2020/01/31 04:57:53.3	91.720	0.270	-0.620	0.520
2020/01/31 04:57:53.4	91.700	0.260	-0.570	0.560
2020/01/31 04:57:53.5	91.670	0.260	-0.520	0.600
2020/01/31 04:57:53.6	91.640	0.250	-0.460	0.640
2020/01/31 04:57:53.7	91.610	0.240	-0.400	0.680
2020/01/31 04:57:53.8	91.580	0.230	-0.340	0.710
2020/01/31 04:57:53.9	91.550	0.210	-0.280	0.750
2020/01/31 04:57:54.0	91.520	0.200	-0.210	0.780
2020/01/31 04:57:54.1	91.490	0.180	-0.140	0.810
2020/01/31 04:57:54.2	91.460	0.160	-0.080	0.840
2020/01/31 04:57:54.3	91.430	0.140	-0.020	0.860
2020/01/31 04:57:54.4	91.400	0.120	0.040	0.890
2020/01/31 04:57:54.5	91.370	0.100	0.100	0.910
2020/01/31 04:57:54.6	91.350	0.080	0.160	0.930
2020/01/31 04:57:54.7	91.320	0.050	0.200	0.940
2020/01/31 04:57:54.8	91.300	0.030	0.250	0.960
2020/01/31 04:57:54.9	91.280	0.010	0.280	0.970
2020/01/31 04:57:55.0	91.260	-0.010	0.310	0.970
2020/01/31 04:57:55.1	91.250	-0.030	0.330	0.970
2020/01/31 04:57:55.2	91.240	-0.040	0.340	0.970
2020/01/31 04:57:55.3	91.240	-0.050	0.340	0.970
2020/01/31 04:57:55.4	91.230	-0.060	0.340	0.960
2020/01/31 04:57:55.5	91.230	-0.070	0.320	0.950
2020/01/31 04:57:55.6	91.230	-0.070	0.290	0.930
2020/01/31 04:57:55.7	91.230	-0.070	0.260	0.920
2020/01/31 04:57:55.8	91.230	-0.070	0.210	0.900
2020/01/31 04:57:55.9	91.240	-0.060	0.160	0.870
2020/01/31 04:57:56.0	91.250	-0.050	0.100	0.850
2020/01/31 04:57:56.1	91.260	-0.040	0.040	0.820
2020/01/31 04:57:56.2	91.260	-0.020	-0.030	0.800
2020/01/31 04:57:56.3	91.270	0.000	-0.100	0.770
2020/01/31 04:57:56.4	91.280	0.030	-0.170	0.740
2020/01/31 04:57:56.5	91.290	0.050	-0.250	0.720
2020/01/31 04:57:56.6	91.290	0.080	-0.320	0.690
2020/01/31 04:57:56.7	91.290	0.110	-0.380	0.670
2020/01/31 04:57:56.8	91.290	0.140	-0.450	0.640
2020/01/31 04:57:56.9	91.290	0.160	-0.510	0.620
2020/01/31 04:57:57.0	91.290	0.190	-0.560	0.590
2020/01/31 04:57:57.1	91.290	0.220	-0.610	0.560
2020/01/31 04:57:57.2	91.290	0.250	-0.650	0.530
2020/01/31 04:57:57.3	91.280	0.270	-0.690	0.510
2020/01/31 04:57:57.4	91.280	0.300	-0.710	0.480
2020/01/31 04:57:57.5	91.270	0.320	-0.730	0.450
2020/01/31 04:57:57.6	91.270	0.340	-0.750	0.430
2020/01/31 04:57:57.7	91.260	0.350	-0.750	0.410
2020/01/31 04:57:57.8	91.250	0.370	-0.750	0.380
2020/01/31 04:57:57.9	91.240	0.380	-0.740	0.370
2020/01/31 04:57:58.0	91.240	0.380	-0.720	0.350
2020/01/31 04:57:58.1	91.230	0.390	-0.700	0.340
2020/01/31 04:57:58.2	91.220	0.390	-0.670	0.320
2020/01/31 04:57:58.3	91.210	0.380	-0.640	0.320
2020/01/31 04:57:58.4	91.210	0.380	-0.610	0.320
2020/01/31 04:57:58.5	91.210	0.370	-0.570	0.320
2020/01/31 04:57:58.6	91.210	0.360	-0.540	0.320
2020/01/31 04:57:58.7	91.210	0.350	-0.500	0.330
2020/01/31 04:57:58.8	91.210	0.330	-0.460	0.340
2020/01/31 04:57:58.9	91.220	0.310	-0.420	0.360
2020/01/31 04:57:59.0	91.220	0.290	-0.370	0.380
2020/01/31 04:57:59.1	91.230	0.270	-0.330	0.410
2020/01/31 04:57:59.2	91.240	0.250	-0.290	0.440
2020/01/31 04:57:59.3	91.240	0.220	-0.250	0.470
2020/01/31 04:57:59.4	91.250	0.200	-0.220	0.500
2020/01/31 04:57:59.5	91.250	0.170	-0.180	0.540
2020/01/31 04:57:59.6	91.260	0.140	-0.140	0.580
2020/01/31 04:57:59.7	91.270	0.110	-0.100	0.620
2020/01/31 04:57:59.8	91.270	0.080	-0.070	0.660
2020/01/31 04:57:59.9	91.280	0.040	-0.030	0.700
2020/01/31 04:58:00.0	91.280	0.010	0.000	0.740
2020/01/31 04:58:00.1	91.290	-0.030	0.040	0.770
2020/01/31 04:58:00.2	91.300	-0.060	0.070	0.810
2020/01/31 04:58:00.3	91.300	-0.100	0.110	0.840
2020/01/31 04:58:00.4	91.310	-0.140	0.140	0.870
2020/01/31 04:58:00.5	91.320	-0.170	0.170	0.900
2020/01/31 04:58:00.6	91.320	-0.210	0.210	0.920
2020/01/31 04:58:00.7	91.330	-0.250	0.240	0.940
2020/01/31 04:58:00.8	91.340	-0.290	0.270	0.960
2020/01/31 04:58:00.9	91.340	-0.330	0.300	0.980
2020/01/31 04:58:01.0	91.350	-0.370	0.330	0.990
2020/01/31 04:58:01.1	91.360	-0.410	0.350	1.000
2020/01/31 04:58:01.2	91.370	-0.440	0.380	1.010
2020/01/31 04:58:01.3	91.370	-0.480	0.400	1.020
2020/01/31 04:58:01.4	91.380	-0.510	0.410	1.030
2020/01/31 04:58:01.5	91.390	-0.540	0.430	1.030
2020/01/31 04:58:01.6	91.400	-0.570	0.430	1.040
2020/01/31 04:58:01.7	91.410	-0.600	0.440	1.040
2020/01/31 04:58:01.8	91.410	-0.620	0.440	1.040
2020/01/31 04:58:01.9	91.420	-0.640	0.430	1.040
2020/01/31 04:58:02.0	91.430	-0.650	0.420	1.040
2020/01/31 04:58:02.1	91.430	-0.670	0.400	1.040
2020/01/31 04:58:02.2	91.440	-0.680	0.380	1.040
2020/01/31 04:58:02.3	91.440	-0.680	0.350	1.040
2020/01/31 04:58:02.4	91.440	-0.680	0.310	1.040
2020/01/31 04:58:02.5	91.440	-0.680	0.270	1.050
2020/01/31 04:58:02.6	91.440	-0.670	0.230	1.050
2020/01/31 04:58:02.7	91.440	-0.650	0.180	1.050
2020/01/31 04:58:02.8	91.430	-0.640	0.130	1.060
2020/01/31 04:58:02.9	91.430	-0.610	0.070	1.060
2020/01/31 04:58:03.0	91.420	-0.590	0.000	1.070
2020/01/31 04:58:03.1	91.410	-0.560	-0.060	1.070
2020/01/31 04:58:03.2	91.400	-0.520	-0.130	1.080
2020/01/31 04:58:03.3	91.400	-0.480	-0.210	1.080
2020/01/31 04:58:03.4	91.390	-0.440	-0.280	1.080
2020/01/31 04:58:03.5	91.380	-0.390	-0.360	1.090
2020/01/31 04:58:03.6	91.370	-0.340	-0.430	1.090
2020/01/31 04:58:03.7	91.370	-0.290	-0.510	1.090
2020/01/31 04:58:03.8	91.360	-0.240	-0.590	1.090
2020/01/31 04:58:03.9	91.350	-0.180	-0.660	1.080
2020/01/31 04:58:04.0	91.350	-0.130	-0.730	1.080
2020/01/31 04:58:04.1	91.340	-0.070	-0.800	1.070
2020/01/31 04:58:04.2	91.340	-0.020	-0.860	1.070
2020/01/31 04:58:04.3	91.340	0.040	-0.920	1.060
2020/01/31 04:58:04.4	91.340	0.090	-0.970	1.050
2020/01/31 04:58:04.5	91.330	0.150	-1.020	1.040
2020/01/31 04:58:04.6	91.330	0.190	-1.050	1.030
2020/01/31 04:58:04.7	91.320	0.240	-1.080	1.020
2020/01/31 04:58:04.8	91.320	0.280	-1.100	1.010
2020/01/31 04:58:04.9	91.310	0.320	-1.110	1.000
2020/01/31 04:58:05.0	91.310	0.350	-1.110	0.990
2020/01/31 04:58:05.1	91.300	0.370	-1.100	0.970
2020/01/31 04:58:05.2	91.300	0.390	-1.080	0.960
2020/01/31 04:58:05.3	91.290	0.410	-1.050	0.950
2020/01/31 04:58:05.4	91.290	0.420	-1.020	0.930
2020/01/31 04:58:05.5	91.280	0.420	-0.970	0.910
2020/01/31 04:58:05.6	91.270	0.410	-0.920	0.890
2020/01/31 04:58:05.7	91.270	0.400	-0.850	0.870
2020/01/31 04:58:05.8	91.260	0.390	-0.780	0.840
2020/01/31 04:58:05.9	91.250	0.360	-0.710	0.820
2020/01/31 04:58:06.0	91.250	0.340	-0.630	0.790
2020/01/31 04:58:06.1	91.240	0.300	-0.540	0.770
2020/01/31 04:58:06.2	91.220	0.270	-0.450	0.740
2020/01/31 04:58:06.3	91.210	0.220	-0.360	0.710
2020/01/31 04:58:06.4	91.200	0.180	-0.260	0.690
2020/01/31 04:58:06.5	91.190	0.130	-0.170	0.660
2020/01/31 04:58:06.6	91.180	0.080	-0.080	0.640
2020/01/31 04:58:06.7	91.170	0.030	0.020	0.620
2020/01/31 04:58:06.8	91.160	-0.020	0.110	0.600
2020/01/31 04:58:06.9	91.150	-0.070	0.200	0.580
2020/01/31 04:58:07.0	91.140	-0.120	0.280	0.560
2020/01/31 04:58:07.1	91.130	-0.170	0.360	0.540
2020/01/31 04:58:07.2	91.120	-0.220	0.430	0.530
2020/01/31 04:58:07.3	91.110	-0.270	0.500	0.510
2020/01/31 04:58:07.4	91.100	-0.310	0.560	0.500
2020/01/31 04:58:07.5	91.090	-0.350	0.600	0.490
2020/01/31 04:58:07.6	91.080	-0.380	0.640	0.480
2020/01/31 04:58:07.7	91.080	-0.410	0.670	0.460
2020/01/31 04:58:07.8	91.070	-0.430	0.680	0.450
2020/01/31 04:58:07.9	91.060	-0.440	0.690	0.450
2020/01/31 04:58:08.0	91.050	-0.450	0.680	0.440
2020/01/31 04:58:08.1	91.050	-0.450	0.660	0.430
2020/01/31 04:58:08.2	91.040	-0.450	0.630	0.420
2020/01/31 04:58:08.3	91.040	-0.440	0.590	0.420
2020/01/31 04:58:08.4	91.030	-0.420	0.540	0.410
2020/01/31 04:58:08.5	91.020	-0.400	0.480	0.410
2020/01/31 04:58:08.6	91.020	-0.380	0.420	0.400
2020/01/31 04:58:08.7	91.010	-0.340	0.340	0.400
2020/01/31 04:58:08.8	91.000	-0.310	0.270	0.390
2020/01/31 04:58:08.9	90.990	-0.270	0.180	0.380
2020/01/31 04:58:09.0	90.980	-0.220	0.090	0.380
2020/01/31 04:58:09.1	90.970	-0.180	-0.000	0.370
2020/01/31 04:58:09.2	90.970	-0.130	-0.100	0.360
2020/01/31 04:58:09.3	90.960	-0.070	-0.190	0.340
2020/01/31 04:58:09.4	90.960	-0.020	-0.290	0.330
2020/01/31 04:58:09.5	90.950	0.030	-0.390	0.310
2020/01/31 04:58:09.6	90.950	0.090	-0.480	0.290
2020/01/31 04:58:09.7	90.950	0.140	-0.570	0.270
2020/01/31 04:58:09.8	90.950	0.190	-0.660	0.260
2020/01/31 04:58:09.9	90.950	0.250	-0.750	0.240
2020/01/31 04:58:10.0	90.950	0.300	-0.830	0.220
2020/01/31 04:58:10.1	90.960	0.350	-0.900	0.200
2020/01/31 04:58:10.2	90.960	0.390	-0.970	0.180
2020/01/31 04:58:10.3	90.970	0.440	-1.030	0.170
2020/01/31 04:58:10.4	90.980	0.480	-1.080	0.160
2020/01/31 04:58:10.5	90.990	0.520	-1.130	0.150
2020/01/31 04:58:10.6	91.010	0.550	-1.160	0.140
2020/01/31 04:58:10.7	91.030	0.580	-1.190	0.140
2020/01/31 04:58:10.8	91.040	0.610	-1.210	0.140
2020/01/31 04:58:10.9	91.060	0.630	-1.220	0.140
2020/01/31 04:58:11.0	91.090	0.650	-1.210	0.150
2020/01/31 04:58:11.1	91.110	0.660	-1.200	0.170
2020/01/31 04:58:11.2	91.130	0.670	-1.170	0.190
2020/01/31 04:58:11.3	91.150	0.680	-1.140	0.210
2020/01/31 04:58:11.4	91.180	0.680	-1.090	0.230
2020/01/31 04:58:11.5	91.200	0.670	-1.030	0.260
2020/01/31 04:58:11.6	91.220	0.660	-0.960	0.290
2020/01/31 04:58:11.7	91.240	0.640	-0.880	0.330
2020/01/31 04:58:11.8	91.260	0.620	-0.790	0.360
2020/01/31 04:58:11.9	91.280	0.590	-0.700	0.400
2020/01/31 04:58:12.0	91.300	0.560	-0.590	0.440
2020/01/31 04:58:12.1	91.310	0.530	-0.480	0.480
2020/01/31 04:58:12.2	91.330	0.490	-0.360	0.520
2020/01/31 04:58:12.3	91.340	0.440	-0.240	0.550
2020/01/31 04:58:12.4	91.350	0.390	-0.110	0.590
2020/01/31 04:58:12.5	91.360	0.340	0.020	0.620
2020/01/31 04:58:12.6	91.370	0.280	0.150	0.650
2020/01/31 04:58:12.7	91.380	0.220	0.280	0.680
2020/01/31 04:58:12.8	91.380	0.160	0.400	0.710
2020/01/31 04:58:12.9	91.390	0.100	0.520	0.730
2020/01/31 04:58:13.0	91.390	0.030	0.640	0.760
2020/01/31 04:58:13.1	91.390	-0.030	0.750	0.790
2020/01/31 04:58:13.2	91.390	-0.100	0.850	0.810
2020/01/31 04:58:13.3	91.390	-0.160	0.940	0.830
2020/01/31 04:58:13.4	91.390	-0.230	1.020	0.850
2020/01/31 04:58:13.5	91.380	-0.290	1.090	0.880
2020/01/31 04:58:13.6	91.380	-0.350	1.150	0.900
2020/01/31 04:58:13.7	91.370	-0.410	1.190	0.920
2020/01/31 04:58:13.8	91.370	-0.470	1.220	0.950
2020/01/31 04:58:13.9	91.360	-0.520	1.240	0.970
2020/01/31 04:58:14.0	91.350	-0.560	1.240	0.990
2020/01/31 04:58:14.1	91.340	-0.610	1.220	1.020
2020/01/31 04:58:14.2	91.330	-0.640	1.200	1.040
2020/01/31 04:58:14.3	91.320	-0.670	1.150	1.070
2020/01/31 04:58:14.4	91.320	-0.700	1.090	1.090
2020/01/31 04:58:14.5	91.310	-0.710	1.010	1.110
2020/01/31 04:58:14.6	91.310	-0.720	0.920	1.140
2020/01/31 04:58:14.7	91.300	-0.730	0.820	1.160
2020/01/31 04:58:14.8	91.300	-0.730	0.710	1.170
2020/01/31 04:58:14.9	91.290	-0.720	0.590	1.190
2020/01/31 04:58:15.0	91.290	-0.700	0.450	1.200
2020/01/31 04:58:15.1	91.280	-0.680	0.310	1.210
2020/01/31 04:58:15.2	91.270	-0.650	0.160	1.220
2020/01/31 04:58:15.3	91.270	-0.610	0.010	1.220
2020/01/31 04:58:15.4	91.270	-0.570	-0.140	1.220
2020/01/31 04:58:15.5	91.260	-0.520	-0.290	1.210
2020/01/31 04:58:15.6	91.260	-0.470	-0.450	1.210
2020/01/31 04:58:15.7	91.250	-0.410	-0.600	1.200
2020/01/31 04:58:15.8	91.250	-0.350	-0.740	1.180
2020/01/31 04:58:15.9	91.240	-0.290	-0.880	1.170
2020/01/31 04:58:16.0	91.230	-0.230	-1.020	1.150
2020/01/31 04:58:16.1	91.220	-0.160	-1.140	1.140
2020/01/31 04:58:16.2	91.220	-0.090	-1.260	1.120
2020/01/31 04:58:16.3	91.210	-0.020	-1.360	1.100
2020/01/31 04:58:16.4	91.200	0.050	-1.460	1.080
2020/01/31 04:58:16.5	91.200	0.120	-1.540	1.070
2020/01/31 04:58:16.6	91.190	0.180	-1.610	1.050
2020/01/31 04:58:16.7	91.170	0.250	-1.670	1.040
2020/01/31 04:58:16.8	91.160	0.310	-1.710	1.030
2020/01/31 04:58:16.9	91.150	0.370	-1.740	1.030
2020/01/31 04:58:17.0	91.140	0.420	-1.760	1.030
2020/01/31 04:58:17.1	91.120	0.470	-1.760	1.030
2020/01/31 04:58:17.2	91.100	0.520	-1.760	1.030
2020/01/31 04:58:17.3	91.080	0.560	-1.740	1.030
2020/01/31 04:58:17.4	91.060	0.590	-1.700	1.040
2020/01/31 04:58:17.5	91.050	0.620	-1.660	1.050
2020/01/31 04:58:17.6	91.030	0.650	-1.600	1.060
2020/01/31 04:58:17.7	91.010	0.670	-1.540	1.070
2020/01/31 04:58:17.8	90.990	0.680	-1.460	1.080
2020/01/31 04:58:17.9	90.980	0.680	-1.380	1.090
2020/01/31 04:58:18.0	90.960	0.680	-1.290	1.100
2020/01/31 04:58:18.1	90.950	0.680	-1.190	1.110
2020/01/31 04:58:18.2	90.930	0.670	-1.080	1.120
2020/01/31 04:58:18.3	90.920	0.650	-0.970	1.130
2020/01/31 04:58:18.4	90.910	0.630	-0.860	1.130
2020/01/31 04:58:18.5	90.900	0.600	-0.740	1.130
2020/01/31 04:58:18.6	90.890	0.570	-0.620	1.130
2020/01/31 04:58:18.7	90.880	0.530	-0.500	1.120
2020/01/31 04:58:18.8	90.880	0.490	-0.380	1.110
2020/01/31 04:58:18.9	90.880	0.450	-0.260	1.100
2020/01/31 04:58:19.0	90.880	0.400	-0.150	1.090
2020/01/31 04:58:19.1	90.880	0.350	-0.030	1.070
2020/01/31 04:58:19.2	90.890	0.300	0.090	1.050
2020/01/31 04:58:19.3	90.900	0.250	0.190	1.020
2020/01/31 04:58:19.4	90.910	0.190	0.300	1.000
2020/01/31 04:58:19.5	90.920	0.140	0.390	0.970
2020/01/31 04:58:19.6	90.930	0.090	0.480	0.940
2020/01/31 04:58:19.7	90.950	0.030	0.570	0.910
2020/01/31 04:58:19.8	90.970	-0.020	0.640	0.880
2020/01/31 04:58:19.9	90.990	-0.070	0.710	0.850
2020/01/31 04:58:20.0	91.010	-0.120	0.770	0.820
2020/01/31 04:58:20.1	91.030	-0.160	0.820	0.790
2020/01/31 04:58:20.2	91.050	-0.210	0.870	0.760
2020/01/31 04:58:20.3	91.070	-0.250	0.900	0.740
2020/01/31 04:58:20.4	91.090	-0.290	0.930	0.710
2020/01/31 04:58:20.5	91.110	-0.320	0.940	0.690
2020/01/31 04:58:20.6	91.130	-0.350	0.950	0.670
2020/01/31 04:58:20.7	91.150	-0.370	0.950	0.650
2020/01/31 04:58:20.8	91.170	-0.400	0.930	0.640
2020/01/31 04:58:20.9	91.180	-0.410	0.910	0.620
2020/01/31 04:58:21.0	91.200	-0.430	0.890	0.610
2020/01/31 04:58:21.1	91.210	-0.440	0.850	0.610
2020/01/31 04:58:21.2	91.220	-0.450	0.810	0.600
2020/01/31 04:58:21.3	91.230	-0.450	0.760	0.600
2020/01/31 04:58:21.4	91.240	-0.450	0.710	0.600
2020/01/31 04:58:21.5	91.240	-0.450	0.660	0.600
2020/01/31 04:58:21.6	91.240	-0.440	0.600	0.600
2020/01/31 04:58:21.7	91.240	-0.440	0.540	0.610
2020/01/31 04:58:21.8	91.240	-0.430	0.480	0.620
2020/01/31 04:58:21.9	91.240	-0.420	0.410	0.620
2020/01/31 04:58:22.0	91.230	-0.410	0.350	0.630
2020/01/31 04:58:22.1	91.230	-0.400	0.300	0.640
2020/01/31 04:58:22.2	91.220	-0.390	0.230	0.650
2020/01/31 04:58:22.3	91.210	-0.390	0.180	0.660
2020/01/31 04:58:22.4	91.200	-0.380	0.130	0.670
2020/01/31 04:58:22.5	91.190	-0.380	0.080	0.680
2020/01/31 04:58:22.6	91.180	-0.370	0.030	0.690
2020/01/31 04:58:22.7	91.170	-0.370	-0.010	0.700
2020/01/31 04:58:22.8	91.160	-0.370	-0.050	0.700
2020/01/31 04:58:22.9	91.150	-0.370	-0.090	0.710
2020/01/31 04:58:23.0	91.140	-0.380	-0.120	0.720
2020/01/31 04:58:23.1	91.130	-0.380	-0.150	0.720
2020/01/31 04:58:23.2	91.120	-0.390	-0.190	0.730
2020/01/31 04:58:23.3	91.110	-0.390	-0.220	0.740
2020/01/31 04:58:23.4	91.100	-0.400	-0.250	0.740
2020/01/31 04:58:23.5	91.090	-0.410	-0.280	0.750
2020/01/31 04:58:23.6	91.090	-0.410	-0.310	0.750
2020/01/31 04:58:23.7	91.080	-0.420	-0.340	0.750
2020/01/31 04:58:23.8	91.080	-0.420	-0.370	0.750
2020/01/31 04:58:23.9	91.080	-0.430	-0.400	0.760
2020/01/31 04:58:24.0	91.070	-0.430	-0.430	0.760
2020/01/31 04:58:24.1	91.070	-0.430	-0.470	0.760
2020/01/31 04:58:24.2	91.060	-0.430	-0.500	0.760
2020/01/31 04:58:24.3	91.060	-0.420	-0.540	0.770
2020/01/31 04:58:24.4	91.060	-0.410	-0.580	0.770
2020/01/31 04:58:24.5	91.060	-0.400	-0.620	0.770
2020/01/31 04:58:24.6	91.060	-0.380	-0.660	0.770
2020/01/31 04:58:24.7	91.060	-0.360	-0.700	0.770
2020/01/31 04:58:24.8	91.060	-0.340	-0.740	0.780
2020/01/31 04:58:24.9	91.060	-0.310	-0.780	0.780
2020/01/31 04:58:25.0	91.060	-0.280	-0.820	0.780
2020/01/31 04:58:25.1	91.060	-0.250	-0.860	0.780
2020/01/31 04:58:25.2	91.060	-0.210	-0.890	0.770
2020/01/31 04:58:25.3	91.070	-0.170	-0.920	0.770
2020/01/31 04:58:25.4	91.070	-0.130	-0.950	0.760
2020/01/31 04:58:25.5	91.080	-0.090	-0.980	0.760
2020/01/31 04:58:25.6	91.090	-0.050	-1.000	0.750
2020/01/31 04:58:25.7	91.100	-0.000	-1.020	0.740
2020/01/31 04:58:25.8	91.110	0.040	-1.030	0.730
2020/01/31 04:58:25.9	91.120	0.090	-1.040	0.720
2020/01/31 04:58:26.0	91.140	0.140	-1.050	0.720
2020/01/31 04:58:26.1	91.150	0.180	-1.050	0.710
2020/01/31 04:58:26.2	91.170	0.230	-1.050	0.700
2020/01/31 04:58:26.3	91.190	0.270	-1.040	0.690
2020/01/31 04:58:26.4	91.200	0.310	-1.030	0.690
2020/01/31 04:58:26.5	91.220	0.350	-1.010	0.680
2020/01/31 04:58:26.6	91.240	0.390	-0.990	0.670
2020/01/31 04:58:26.7	91.260	0.430	-0.960	0.670
2020/01/31 04:58:26.8	91.270	0.460	-0.940	0.660
2020/01/31 04:58:26.9	91.290	0.490	-0.900	0.660
2020/01/31 04:58:27.0	91.300	0.520	-0.870	0.660
2020/01/31 04:58:27.1	91.320	0.550	-0.830	0.660
2020/01/31 04:58:27.2	91.320	0.570	-0.790	0.660
2020/01/31 04:58:27.3	91.330	0.590	-0.740	0.650
2020/01/31 04:58:27.4	91.340	0.600	-0.700	0.650
2020/01/31 04:58:27.5	91.340	0.610	-0.650	0.660
2020/01/31 04:58:27.6	91.340	0.620	-0.590	0.660
2020/01/31 04:58:27.7	91.340	0.630	-0.540	0.660
2020/01/31 04:58:27.8	91.330	0.630	-0.480	0.670
2020/01/31 04:58:27.9	91.320	0.620	-0.420	0.680
2020/01/31 04:58:28.0	91.310	0.620	-0.350	0.690
2020/01/31 04:58:28.1	91.300	0.610	-0.290	0.700
2020/01/31 04:58:28.2	91.280	0.590	-0.220	0.710
2020/01/31 04:58:28.3	91.260	0.570	-0.150	0.720
2020/01/31 04:58:28.4	91.240	0.550	-0.080	0.740
2020/01/31 04:58:28.5	91.210	0.520	-0.010	0.750
2020/01/31 04:58:28.6	91.190	0.500	0.060	0.760
2020/01/31 04:58:28.7	91.160	0.460	0.130	0.780
2020/01/31 04:58:28.8	91.130	0.430	0.210	0.790
2020/01/31 04:58:28.9	91.100	0.390	0.280	0.800
2020/01/31 04:58:29.0	91.070	0.350	0.350	0.810
2020/01/31 04:58:29.1	91.040	0.310	0.410	0.830
2020/01/31 04:58:29.2	91.010	0.260	0.480	0.830
2020/01/31 04:58:29.3	90.980	0.220	0.540	0.840
2020/01/31 04:58:29.4	90.940	0.170	0.590	0.840
2020/01/31 04:58:29.5	90.910	0.130	0.640	0.840
2020/01/31 04:58:29.6	90.890	0.080	0.680	0.840
2020/01/31 04:58:29.7	90.860	0.040	0.720	0.840
2020/01/31 04:58:29.8	90.830	-0.010	0.740	0.830
2020/01/31 04:58:29.9	90.810	-0.050	0.760	0.820
2020/01/31 04:58:30.0	90.790	-0.090	0.770	0.800
2020/01/31 04:58:30.1	90.770	-0.130	0.780	0.780
2020/01/31 04:58:30.2	90.750	-0.160	0.770	0.760
2020/01/31 04:58:30.3	90.740	-0.190	0.750	0.740
2020/01/31 04:58:30.4	90.720	-0.220	0.730	0.710
2020/01/31 04:58:30.5	90.710	-0.250	0.700	0.680
2020/01/31 04:58:30.6	90.690	-0.270	0.660	0.650
2020/01/31 04:58:30.7	90.690	-0.280	0.610	0.620
2020/01/31 04:58:30.8	90.680	-0.290	0.560	0.590
2020/01/31 04:58:30.9	90.670	-0.300	0.500	0.560
2020/01/31 04:58:31.0	90.660	-0.300	0.430	0.530
2020/01/31 04:58:31.1	90.660	-0.290	0.350	0.490
2020/01/31 04:58:31.2	90.660	-0.290	0.280	0.460
2020/01/31 04:58:31.3	90.660	-0.270	0.200	0.430
2020/01/31 04:58:31.4	90.660	-0.250	0.110	0.400
2020/01/31 04:58:31.5	90.660	-0.230	0.020	0.370
2020/01/31 04:58:31.6	90.660	-0.200	-0.070	0.340
2020/01/31 04:58:31.7	90.660	-0.170	-0.160	0.320
2020/01/31 04:58:31.8	90.670	-0.140	-0.250	0.290
2020/01/31 04:58:31.9	90.680	-0.100	-0.340	0.260
2020/01/31 04:58:32.0	90.690	-0.070	-0.420	0.240
2020/01/31 04:58:32.1	90.700	-0.030	-0.500	0.220
2020/01/31 04:58:32.2	90.710	0.020	-0.590	0.190
2020/01/31 04:58:32.3	90.720	0.060	-0.660	0.170
2020/01/31 04:58:32.4	90.740	0.100	-0.730	0.150
2020/01/31 04:58:32.5	90.760	0.140	-0.790	0.130
2020/01/31 04:58:32.6	90.780	0.180	-0.840	0.120
2020/01/31 04:58:32.7	90.810	0.220	-0.890	0.100
2020/01/31 04:58:32.8	90.830	0.250	-0.930	0.090
2020/01/31 04:58:32.9	90.860	0.280	-0.960	0.080
2020/01/31 04:58:33.0	90.880	0.310	-0.990	0.080
2020/01/31 04:58:33.1	90.910	0.340	-1.000	0.080
2020/01/31 04:58:33.2	90.930	0.360	-1.010	0.080
2020/01/31 04:58:33.3	90.960	0.380	-1.010	0.090
2020/01/31 04:58:33.4	90.990	0.390	-1.010	0.090
2020/01/31 04:58:33.5	91.020	0.400	-1.000	0.110
2020/01/31 04:58:33.6	91.050	0.400	-0.980	0.120
2020/01/31 04:58:33.7	91.080	0.400	-0.960	0.140
2020/01/31 04:58:33.8	91.110	0.400	-0.930	0.170
2020/01/31 04:58:33.9	91.140	0.390	-0.900	0.200
2020/01/31 04:58:34.0	91.160	0.380	-0.860	0.230
2020/01/31 04:58:34.1	91.180	0.360	-0.810	0.270
2020/01/31 04:58:34.2	91.210	0.340	-0.770	0.310
2020/01/31 04:58:34.3	91.220	0.310	-0.720	0.350
2020/01/31 04:58:34.4	91.230	0.280	-0.660	0.400
2020/01/31 04:58:34.5	91.240	0.250	-0.600	0.450
2020/01/31 04:58:34.6	91.240	0.210	-0.540	0.510
2020/01/31 04:58:34.7	91.230	0.170	-0.480	0.570
2020/01/31 04:58:34.8	91.230	0.130	-0.410	0.630
2020/01/31 04:58:34.9	91.210	0.090	-0.340	0.690
2020/01/31 04:58:35.0	91.190	0.050	-0.270	0.750
2020/01/31 04:58:35.1	91.170	0.000	-0.200	0.820
2020/01/31 04:58:35.2	91.140	-0.040	-0.130	0.890
2020/01/31 04:58:35.3	91.120	-0.090	-0.060	0.950
2020/01/31 04:58:35.4	91.080	-0.140	0.010	1.010
2020/01/31 04:58:35.5	91.050	-0.180	0.080	1.070
2020/01/31 04:58:35.6	91.020	-0.230	0.140	1.130
2020/01/31 04:58:35.7	90.980	-0.270	0.210	1.180
2020/01/31 04:58:35.8	90.950	-0.310	0.270	1.230
2020/01/31 04:58:35.9	90.920	-0.350	0.320	1.270
2020/01/31 04:58:36.0	90.880	-0.390	0.370	1.310
2020/01/31 04:58:36.1	90.850	-0.420	0.420	1.340
2020/01/31 04:58:36.2	90.830	-0.460	0.460	1.360
2020/01/31 04:58:36.3	90.800	-0.490	0.490	1.380
2020/01/31 04:58:36.4	90.780	-0.510	0.520	1.400
2020/01/31 04:58:36.5	90.760	-0.540	0.540	1.410
2020/01/31 04:58:36.6	90.740	-0.560	0.550	1.410
2020/01/31 04:58:36.7	90.720	-0.570	0.560	1.410
2020/01/31 04:58:36.8	90.710	-0.590	0.560	1.410
2020/01/31 04:58:36.9	90.700	-0.600	0.550	1.400
2020/01/31 04:58:37.0	90.690	-0.600	0.540	1.390
2020/01/31 04:58:37.1	90.680	-0.600	0.510	1.370
2020/01/31 04:58:37.2	90.670	-0.600	0.480	1.360
2020/01/31 04:58:37.3	90.670	-0.600	0.450	1.340
2020/01/31 04:58:37.4	90.670	-0.590	0.410	1.320
2020/01/31 04:58:37.5	90.670	-0.580	0.360	1.300
2020/01/31 04:58:37.6	90.670	-0.570	0.310	1.280
2020/01/31 04:58:37.7	90.680	-0.550	0.250	1.250
2020/01/31 04:58:37.8	90.680	-0.530	0.190	1.230
2020/01/31 04:58:37.9	90.690	-0.510	0.120	1.200
2020/01/31 04:58:38.0	90.690	-0.490	0.060	1.180
2020/01/31 04:58:38.1	90.700	-0.460	-0.020	1.150
2020/01/31 04:58:38.2	90.720	-0.430	-0.090	1.120
2020/01/31 04:58:38.3	90.720	-0.400	-0.160	1.100
2020/01/31 04:58:38.4	90.730	-0.370	-0.240	1.070
2020/01/31 04:58:38.5	90.740	-0.330	-0.310	1.040
2020/01/31 04:58:38.6	90.750	-0.290	-0.390	1.020
2020/01/31 04:58:38.7	90.750	-0.260	-0.460	0.990
2020/01/31 04:58:38.8	90.760	-0.220	-0.530	0.970
2020/01/31 04:58:38.9	90.760	-0.180	-0.600	0.940
2020/01/31 04:58:39.0	90.770	-0.140	-0.670	0.920
2020/01/31 04:58:39.1	90.770	-0.110	-0.730	0.890
2020/01/31 04:58:39.2	90.780	-0.070	-0.790	0.870
2020/01/31 04:58:39.3	90.780	-0.030	-0.840	0.850
2020/01/31 04:58:39.4	90.780	0.010	-0.890	0.820
2020/01/31 04:58:39.5	90.780	0.040	-0.930	0.800
2020/01/31 04:58:39.6	90.780	0.080	-0.970	0.780
2020/01/31 04:58:39.7	90.770	0.110	-1.000	0.770
2020/01/31 04:58:39.8	90.770	0.140	-1.020	0.750
2020/01/31 04:58:39.9	90.760	0.170	-1.040	0.740
2020/01/31 04:58:40.0	90.750	0.190	-1.040	0.720
2020/01/31 04:58:40.1	90.740	0.220	-1.050	0.710
2020/01/31 04:58:40.2	90.730	0.240	-1.040	0.700
2020/01/31 04:58:40.3	90.720	0.250	-1.020	0.690
2020/01/31 04:58:40.4	90.700	0.270	-1.010	0.690
2020/01/31 04:58:40.5	90.690	0.280	-0.980	0.690
2020/01/31 04:58:40.6	90.670	0.290	-0.950	0.690
2020/01/31 04:58:40.7	90.660	0.300	-0.910	0.690
2020/01/31 04:58:40.8	90.640	0.310	-0.870	0.700
2020/01/31 04:58:40.9	90.620	0.310	-0.830	0.710
2020/01/31 04:58:41.0	90.600	0.310	-0.780	0.720
2020/01/31 04:58:41.1	90.590	0.310	-0.720	0.730
2020/01/31 04:58:41.2	90.570	0.300	-0.670	0.740
2020/01/31 04:58:41.3	90.550	0.300	-0.610	0.750
2020/01/31 04:58:41.4	90.540	0.290	-0.550	0.760
2020/01/31 04:58:41.5	90.520	0.280	-0.480	0.780
2020/01/31 04:58:41.6	90.510	0.270	-0.420	0.790
2020/01/31 04:58:41.7	90.500	0.260	-0.360	0.800
2020/01/31 04:58:41.8	90.490	0.240	-0.290	0.810
2020/01/31 04:58:41.9	90.480	0.230	-0.230	0.820
2020/01/31 04:58:42.0	90.470	0.210	-0.160	0.830
2020/01/31 04:58:42.1	90.460	0.200	-0.100	0.840
2020/01/31 04:58:42.2	90.460	0.180	-0.040	0.850
2020/01/31 04:58:42.3	90.450	0.160	0.020	0.850
2020/01/31 04:58:42.4	90.450	0.150	0.070	0.850
2020/01/31 04:58:42.5	90.440	0.130	0.130	0.860
2020/01/31 04:58:42.6	90.440	0.120	0.180	0.850
2020/01/31 04:58:42.7	90.440	0.100	0.220	0.850
2020/01/31 04:58:42.8	90.440	0.080	0.270	0.850
2020/01/31 04:58:42.9	90.440	0.070	0.300	0.840
2020/01/31 04:58:43.0	90.440	0.050	0.340	0.830
2020/01/31 04:58:43.1	90.450	0.040	0.360	0.820
2020/01/31 04:58:43.2	90.450	0.030	0.390	0.810
2020/01/31 04:58:43.3	90.460	0.020	0.400	0.790
2020/01/31 04:58:43.4	90.470	0.010	0.420	0.770
2020/01/31 04:58:43.5	90.480	-0.000	0.420	0.750
2020/01/31 04:58:43.6	90.490	-0.010	0.430	0.730
2020/01/31 04:58:43.7	90.510	-0.020	0.420	0.710
2020/01/31 04:58:43.8	90.530	-0.020	0.410	0.680
2020/01/31 04:58:43.9	90.550	-0.030	0.400	0.650
2020/01/31 04:58:44.0	90.570	-0.030	0.380	0.630
2020/01/31 04:58:44.1	90.590	-0.030	0.360	0.600
2020/01/31 04:58:44.2	90.610	-0.040	0.340	0.570
2020/01/31 04:58:44.3	90.640	-0.040	0.310	0.550
2020/01/31 04:58:44.4	90.660	-0.040	0.280	0.530
2020/01/31 04:58:44.5	90.680	-0.030	0.250	0.510
2020/01/31 04:58:44.6	90.690	-0.030	0.220	0.500
2020/01/31 04:58:44.7	90.710	-0.030	0.180	0.480
2020/01/31 04:58:44.8	90.720	-0.030	0.150	0.480
2020/01/31 04:58:44.9	90.730	-0.030	0.110	0.470
2020/01/31 04:58:45.0	90.730	-0.020	0.070	0.470
2020/01/31 04:58:45.1	90.730	-0.020	0.040	0.480
2020/01/31 04:58:45.2	90.730	-0.010	-0.000	0.480
2020/01/31 04:58:45.3	90.730	-0.010	-0.040	0.490
2020/01/31 04:58:45.4	90.720	-0.010	-0.070	0.500
2020/01/31 04:58:45.5	90.710	-0.000	-0.110	0.510
2020/01/31 04:58:45.6	90.700	0.000	-0.140	0.530
2020/01/31 04:58:45.7	90.680	0.010	-0.170	0.540
2020/01/31 04:58:45.8	90.670	0.010	-0.200	0.560
2020/01/31 04:58:45.9	90.660	0.020	-0.230	0.570
2020/01/31 04:58:46.0	90.640	0.020	-0.260	0.590
2020/01/31 04:58:46.1	90.630	0.030	-0.280	0.610
2020/01/31 04:58:46.2	90.610	0.030	-0.310	0.620
2020/01/31 04:58:46.3	90.600	0.040	-0.330	0.640
2020/01/31 04:58:46.4	90.590	0.040	-0.360	0.660
2020/01/31 04:58:46.5	90.580	0.050	-0.380	0.670
2020/01/31 04:58:46.6	90.570	0.050	-0.410	0.690
2020/01/31 04:58:46.7	90.570	0.060	-0.430	0.710
2020/01/31 04:58:46.8	90.570	0.070	-0.450	0.720
2020/01/31 04:58:46.9	90.570	0.070	-0.480	0.740
2020/01/31 04:58:47.0	90.570	0.080	-0.500	0.760
2020/01/31 04:58:47.1	90.580	0.090	-0.530	0.770
2020/01/31 04:58:47.2	90.590	0.100	-0.550	0.790
2020/01/31 04:58:47.3	90.600	0.110	-0.580	0.810
2020/01/31 04:58:47.4	90.610	0.120	-0.600	0.830
2020/01/31 04:58:47.5	90.620	0.140	-0.630	0.850
2020/01/31 04:58:47.6	90.640	0.150	-0.650	0.870
2020/01/31 04:58:47.7	90.660	0.160	-0.680	0.890
2020/01/31 04:58:47.8	90.680	0.180	-0.700	0.900
2020/01/31 04:58:47.9	90.700	0.190	-0.720	0.920
2020/01/31 04:58:48.0	90.720	0.210	-0.740	0.940
2020/01/31 04:58:48.1	90.740	0.220	-0.760	0.960
2020/01/31 04:58:48.2	90.760	0.240	-0.770	0.980
2020/01/31 04:58:48.3	90.780	0.250	-0.780	1.000
2020/01/31 04:58:48.4	90.800	0.270	-0.790	1.010
2020/01/31 04:58:48.5	90.820	0.280	-0.800	1.030
2020/01/31 04:58:48.6	90.830	0.300	-0.800	1.040
2020/01/31 04:58:48.7	90.850	0.310	-0.790	1.050
2020/01/31 04:58:48.8	90.860	0.320	-0.780	1.060
2020/01/31 04:58:48.9	90.870	0.330	-0.770	1.070
2020/01/31 04:58:49.0	90.870	0.330	-0.750	1.080
2020/01/31 04:58:49.1	90.870	0.340	-0.720	1.100
2020/01/31 04:58:49.2	90.860	0.340	-0.690	1.100
2020/01/31 04:58:49.3	90.850	0.340	-0.660	1.110
2020/01/31 04:58:49.4	90.840	0.330	-0.610	1.120
2020/01/31 04:58:49.5	90.820	0.320	-0.570	1.130
2020/01/31 04:58:49.6	90.800	0.310	-0.520	1.140
2020/01/31 04:58:49.7	90.780	0.300	-0.460	1.150
2020/01/31 04:58:49.8	90.750	0.280	-0.400	1.160
2020/01/31 04:58:49.9	90.720	0.260	-0.340	1.170
2020/01/31 04:58:50.0	90.690	0.240	-0.280	1.180
2020/01/31 04:58:50.1	90.650	0.210	-0.220	1.190
2020/01/31 04:58:50.2	90.620	0.190	-0.150	1.200
2020/01/31 04:58:50.3	90.580	0.160	-0.090	1.210
2020/01/31 04:58:50.4	90.540	0.130	-0.020	1.220
2020/01/31 04:58:50.5	90.500	0.090	0.040	1.240
2020/01/31 04:58:50.6	90.470	0.060	0.090	1.250
2020/01/31 04:58:50.7	90.430	0.020	0.150	1.260
2020/01/31 04:58:50.8	90.390	-0.010	0.200	1.270
2020/01/31 04:58:50.9	90.360	-0.050	0.240	1.270
2020/01/31 04:58:51.0	90.320	-0.080	0.280	1.280
2020/01/31 04:58:51.1	90.290	-0.120	0.320	1.280
2020/01/31 04:58:51.2	90.260	-0.150	0.350	1.270
2020/01/31 04:58:51.3	90.240	-0.180	0.370	1.260
2020/01/31 04:58:51.4	90.220	-0.210	0.390	1.250
2020/01/31 04:58:51.5	90.200	-0.240	0.400	1.230
2020/01/31 04:58:51.6	90.190	-0.270	0.400	1.210
2020/01/31 04:58:51.7	90.170	-0.290	0.410	1.180
2020/01/31 04:58:51.8	90.170	-0.310	0.400	1.140
2020/01/31 04:58:51.9	90.170	-0.330	0.390	1.100
2020/01/31 04:58:52.0	90.170	-0.350	0.370	1.050
2020/01/31 04:58:52.1	90.180	-0.360	0.350	1.000
2020/01/31 04:58:52.2	90.200	-0.370	0.320	0.950
2020/01/31 04:58:52.3	90.220	-0.380	0.290	0.890
2020/01/31 04:58:52.4	90.240	-0.390	0.260	0.830
2020/01/31 04:58:52.5	90.260	-0.390	0.220	0.760
2020/01/31 04:58:52.6	90.290	-0.390	0.190	0.700
2020/01/31 04:58:52.7	90.320	-0.390	0.150	0.630
2020/01/31 04:58:52.8	90.360	-0.380	0.110	0.570
2020/01/31 04:58:52.9	90.390	-0.380	0.070	0.500
2020/01/31 04:58:53.0	90.430	-0.370	0.020	0.440
2020/01/31 04:58:53.1	90.470	-0.360	-0.020	0.380
2020/01/31 04:58:53.2	90.510	-0.350	-0.050	0.320
2020/01/31 04:58:53.3	90.550	-0.340	-0.090	0.270
2020/01/31 04:58:53.4	90.590	-0.320	-0.130	0.220
2020/01/31 04:58:53.5	90.630	-0.310	-0.160	0.170
2020/01/31 04:58:53.6	90.670	-0.290	-0.190	0.130
2020/01/31 04:58:53.7	90.710	-0.280	-0.220	0.090
2020/01/31 04:58:53.8	90.750	-0.260	-0.250	0.060
2020/01/31 04:58:53.9	90.790	-0.250	-0.280	0.040
2020/01/31 04:58:54.0	90.830	-0.230	-0.300	0.020
2020/01/31 04:58:54.1	90.870	-0.220	-0.320	-0.000
2020/01/31 04:58:54.2	90.900	-0.200	-0.350	-0.010
2020/01/31 04:58:54.3	90.930	-0.190	-0.370	-0.020
2020/01/31 04:58:54.4	90.970	-0.170	-0.380	-0.020
2020/01/31 04:58:54.5	90.990	-0.160	-0.400	-0.020
2020/01/31 04:58:54.6	91.020	-0.150	-0.410	-0.020
2020/01/31 04:58:54.7	91.050	-0.140	-0.430	-0.010
2020/01/31 04:58:54.8	91.070	-0.130	-0.440	0.000
2020/01/31 04:58:54.9	91.090	-0.120	-0.450	0.020
2020/01/31 04:58:55.0	91.110	-0.110	-0.460	0.040
2020/01/31 04:58:55.1	91.120	-0.100	-0.470	0.060
2020/01/31 04:58:55.2	91.130	-0.090	-0.480	0.090
2020/01/31 04:58:55.3	91.140	-0.090	-0.490	0.120
2020/01/31 04:58:55.4	91.140	-0.080	-0.490	0.160
2020/01/31 04:58:55.5	91.150	-0.080	-0.500	0.200
2020/01/31 04:58:55.6	91.150	-0.070	-0.500	0.240
2020/01/31 04:58:55.7	91.140	-0.070	-0.500	0.280
2020/01/31 04:58:55.8	91.140	-0.070	-0.500	0.330
2020/01/31 04:58:55.9	91.130	-0.080	-0.490	0.380
2020/01/31 04:58:56.0	91.120	-0.080	-0.490	0.430
2020/01/31 04:58:56.1	91.110	-0.080	-0.480	0.480
2020/01/31 04:58:56.2	91.100	-0.090	-0.470	0.530
2020/01/31 04:58:56.3	91.080	-0.100	-0.450	0.580
2020/01/31 04:58:56.4	91.070	-0.100	-0.430	0.640
2020/01/31 04:58:56.5	91.050	-0.110	-0.410	0.690
2020/01/31 04:58:56.6	91.020	-0.120	-0.390	0.740
2020/01/31 04:58:56.7	91.000	-0.130	-0.370	0.790
2020/01/31 04:58:56.8	90.970	-0.140	-0.340	0.840
2020/01/31 04:58:56.9	90.950	-0.160	-0.310	0.880
2020/01/31 04:58:57.0	90.920	-0.170	-0.280	0.920
2020/01/31 04:58:57.1	90.890	-0.180	-0.250	0.960
2020/01/31 04:58:57.2	90.860	-0.190	-0.210	0.990
2020/01/31 04:58:57.3	90.830	-0.200	-0.180	1.010
2020/01/31 04:58:57.4	90.800	-0.210	-0.150	1.040
2020/01/31 04:58:57.5	90.770	-0.210	-0.130	1.050
2020/01/31 04:58:57.6	90.730	-0.220	-0.100	1.060
2020/01/31 04:58:57.7	90.700	-0.220	-0.080	1.070
2020/01/31 04:58:57.8	90.670	-0.220	-0.060	1.070
2020/01/31 04:58:57.9	90.640	-0.220	-0.040	1.070
2020/01/31 04:58:58.0	90.600	-0.220	-0.030	1.060
2020/01/31 04:58:58.1	90.570	-0.210	-0.020	1.040
2020/01/31 04:58:58.2	90.540	-0.200	-0.020	1.020
2020/01/31 04:58:58.3	90.510	-0.190	-0.020	1.000
2020/01/31 04:58:58.4	90.490	-0.170	-0.020	0.980
2020/01/31 04:58:58.5	90.470	-0.150	-0.040	0.950
2020/01/31 04:58:58.6	90.450	-0.120	-0.050	0.920
2020/01/31 04:58:58.7	90.430	-0.100	-0.070	0.890
2020/01/31 04:58:58.8	90.420	-0.070	-0.100	0.850
2020/01/31 04:58:58.9	90.420	-0.030	-0.130	0.810
2020/01/31 04:58:59.0	90.410	0.000	-0.160	0.770
2020/01/31 04:58:59.1	90.420	0.040	-0.200	0.730
2020/01/31 04:58:59.2	90.420	0.090	-0.250	0.690
2020/01/31 04:58:59.3	90.430	0.130	-0.290	0.650
2020/01/31 04:58:59.4	90.440	0.170	-0.330	0.600
2020/01/31 04:58:59.5	90.460	0.220	-0.380	0.560
2020/01/31 04:58:59.6	90.480	0.270	-0.430	0.510
2020/01/31 04:58:59.7	90.510	0.310	-0.480	0.460
2020/01/31 04:58:59.8	90.540	0.360	-0.530	0.410
2020/01/31 04:58:59.9	90.570	0.400	-0.570	0.370
2020/01/31 04:59:00.0	90.600	0.450	-0.620	0.320
2020/01/31 04:59:00.1	90.640	0.490	-0.660	0.270
2020/01/31 04:59:00.2	90.670	0.530	-0.700	0.220
2020/01/31 04:59:00.3	90.700	0.570	-0.740	0.180
2020/01/31 04:59:00.4	90.740	0.600	-0.770	0.130
2020/01/31 04:59:00.5	90.780	0.630	-0.790	0.080
2020/01/31 04:59:00.6	90.810	0.660	-0.810	0.040
2020/01/31 04:59:00.7	90.840	0.680	-0.830	0.000
2020/01/31 04:59:00.8	90.870	0.700	-0.830	-0.030
2020/01/31 04:59:00.9	90.900	0.710	-0.830	-0.060
2020/01/31 04:59:01.0	90.920	0.710	-0.810	-0.090
2020/01/31 04:59:01.1	90.940	0.710	-0.790	-0.110
2020/01/31 04:59:01.2	90.950	0.700	-0.760	-0.120
2020/01/31 04:59:01.3	90.960	0.690	-0.720	-0.130
2020/01/31 04:59:01.4	90.970	0.670	-0.670	-0.130
2020/01/31 04:59:01.5	90.970	0.650	-0.620	-0.120
2020/01/31 04:59:01.6	90.970	0.610	-0.550	-0.110
2020/01/31 04:59:01.7	90.970	0.580	-0.480	-0.100
2020/01/31 04:59:01.8	90.960	0.530	-0.400	-0.070
2020/01/31 04:59:01.9	90.960	0.480	-0.310	-0.050
2020/01/31 04:59:02.0	90.950	0.430	-0.220	-0.010
2020/01/31 04:59:02.1	90.940	0.370	-0.130	0.030
2020/01/31 04:59:02.2	90.920	0.310	-0.030	0.070
2020/01/31 04:59:02.3	90.910	0.250	0.070	0.110
2020/01/31 04:59:02.4	90.890	0.180	0.170	0.160
2020/01/31 04:59:02.5	90.880	0.110	0.270	0.210
2020/01/31 04:59:02.6	90.860	0.030	0.370	0.260
2020/01/31 04:59:02.7	90.840	-0.040	0.470	0.310
2020/01/31 04:59:02.8	90.820	-0.110	0.550	0.360
2020/01/31 04:59:02.9	90.810	-0.180	0.640	0.420
2020/01/31 04:59:03.0	90.790	-0.250	0.710	0.470
2020/01/31 04:59:03.1	90.780	-0.320	0.780	0.520
2020/01/31 04:59:03.2	90.760	-0.380	0.840	0.560
2020/01/31 04:59:03.3	90.750	-0.440	0.890	0.610
2020/01/31 04:59:03.4	90.740	-0.500	0.920	0.650
2020/01/31 04:59:03.5	90.740	-0.550	0.940	0.690
2020/01/31 04:59:03.6	90.730	-0.590	0.950	0.730
2020/01/31 04:59:03.7	90.720	-0.630	0.950	0.770
2020/01/31 04:59:03.8	90.720	-0.660	0.930	0.810
2020/01/31 04:59:03.9	90.710	-0.680	0.900	0.840
2020/01/31 04:59:04.0	90.710	-0.690	0.850	0.870
2020/01/31 04:59:04.1	90.700	-0.700	0.800	0.900
2020/01/31 04:59:04.2	90.710	-0.700	0.720	0.930
2020/01/31 04:59:04.3	90.700	-0.700	0.640	0.950
2020/01/31 04:59:04.4	90.690	-0.680	0.550	0.970
2020/01/31 04:59:04.5	90.690	-0.660	0.450	0.990
2020/01/31 04:59:04.6	90.680	-0.630	0.350	1.010
2020/01/31 04:59:04.7	90.670	-0.600	0.230	1.020
2020/01/31 04:59:04.8	90.660	-0.560	0.120	1.020
2020/01/31 04:59:04.9	90.650	-0.520	-0.010	1.030
2020/01/31 04:59:05.0	90.650	-0.470	-0.130	1.030
2020/01/31 04:59:05.1	90.640	-0.420	-0.260	1.020
2020/01/31 04:59:05.2	90.640	-0.360	-0.390	1.020
2020/01/31 04:59:05.3	90.630	-0.300	-0.520	1.010
2020/01/31 04:59:05.4	90.630	-0.240	-0.640	0.990
2020/01/31 04:59:05.5	90.620	-0.170	-0.770	0.980
2020/01/31 04:59:05.6	90.620	-0.110	-0.880	0.960
2020/01/31 04:59:05.7	90.620	-0.040	-0.990	0.940
2020/01/31 04:59:05.8	90.620	0.020	-1.100	0.920
2020/01/31 04:59:05.9	90.620	0.090	-1.190	0.900
2020/01/31 04:59:06.0	90.620	0.150	-1.280	0.880
2020/01/31 04:59:06.1	90.620	0.210	-1.350	0.860
2020/01/31 04:59:06.2	90.620	0.270	-1.420	0.840
2020/01/31 04:59:06.3	90.630	0.320	-1.470	0.820
2020/01/31 04:59:06.4	90.630	0.370	-1.510	0.810
2020/01/31 04:59:06.5	90.640	0.420	-1.540	0.800
2020/01/31 04:59:06.6	90.650	0.460	-1.550	0.790
2020/01/31 04:59:06.7	90.650	0.500	-1.540	0.790
2020/01/31 04:59:06.8	90.660	0.530	-1.530	0.790
2020/01/31 04:59:06.9	90.660	0.550	-1.500	0.800
2020/01/31 04:59:07.0	90.660	0.570	-1.450	0.800
2020/01/31 04:59:07.1	90.670	0.580	-1.390	0.810
2020/01/31 04:59:07.2	90.650	0.580	-1.320	0.830
2020/01/31 04:59:07.3	90.650	0.580	-1.230	0.840
2020/01/31 04:59:07.4	90.650	0.570	-1.140	0.850
2020/01/31 04:59:07.5	90.650	0.560	-1.030	0.870
2020/01/31 04:59:07.6	90.650	0.540	-0.920	0.880
2020/01/31 04:59:07.7	90.650	0.510	-0.800	0.890
2020/01/31 04:59:07.8	90.650	0.470	-0.670	0.900
2020/01/31 04:59:07.9	90.640	0.430	-0.540	0.910
2020/01/31 04:59:08.0	90.630	0.390	-0.400	0.920
2020/01/31 04:59:08.1	90.630	0.330	-0.260	0.930
2020/01/31 04:59:08.2	90.620	0.280	-0.110	0.930
2020/01/31 04:59:08.3	90.610	0.220	0.030	0.940
2020/01/31 04:59:08.4	90.600	0.160	0.170	0.940
2020/01/31 04:59:08.5	90.600	0.100	0.310	0.940
2020/01/31 04:59:08.6	90.590	0.030	0.440	0.930
2020/01/31 04:59:08.7	90.580	-0.040	0.570	0.930
2020/01/31 04:59:08.8	90.570	-0.100	0.690	0.920
2020/01/31 04:59:08.9	90.560	-0.170	0.800	0.910
2020/01/31 04:59:09.0	90.550	-0.230	0.910	0.900
2020/01/31 04:59:09.1	90.540	-0.290	1.000	0.890
2020/01/31 04:59:09.2	90.530	-0.350	1.080	0.870
2020/01/31 04:59:09.3	90.520	-0.410	1.140	0.860
2020/01/31 04:59:09.4	90.510	-0.460	1.190	0.840
2020/01/31 04:59:09.5	90.500	-0.500	1.230	0.830
2020/01/31 04:59:09.6	90.490	-0.540	1.240	0.810
2020/01/31 04:59:09.7	90.490	-0.580	1.240	0.800
2020/01/31 04:59:09.8	90.480	-0.600	1.230	0.780
2020/01/31 04:59:09.9	90.470	-0.620	1.200	0.760
2020/01/31 04:59:10.0	90.460	-0.630	1.150	0.750
2020/01/31 04:59:10.1	90.460	-0.630	1.080	0.730
2020/01/31 04:59:10.2	90.460	-0.630	1.000	0.720
2020/01/31 04:59:10.3	90.460	-0.620	0.900	0.700
2020/01/31 04:59:10.4	90.460	-0.600	0.800	0.690
2020/01/31 04:59:10.5	90.460	-0.580	0.680	0.670
2020/01/31 04:59:10.6	90.460	-0.550	0.560	0.660
2020/01/31 04:59:10.7	90.460	-0.510	0.420	0.650
2020/01/31 04:59:10.8	90.460	-0.470	0.290	0.630
2020/01/31 04:59:10.9	90.470	-0.430	0.150	0.620
2020/01/31 04:59:11.0	90.470	-0.380	0.000	0.600
2020/01/31 04:59:11.1	90.480	-0.330	-0.140	0.590
2020/01/31 04:59:11.2	90.490	-0.280	-0.280	0.570
2020/01/31 04:59:11.3	90.500	-0.230	-0.420	0.550
2020/01/31 04:59:11.4	90.520	-0.170	-0.550	0.530
2020/01/31 04:59:11.5	90.530	-0.120	-0.670	0.500
2020/01/31 04:59:11.6	90.550	-0.070	-0.790	0.480
2020/01/31 04:59:11.7	90.570	-0.020	-0.890	0.450
2020/01/31 04:59:11.8	90.590	0.020	-0.990	0.430
2020/01/31 04:59:11.9	90.620	0.060	-1.070	0.400
2020/01/31 04:59:12.0	90.640	0.100	-1.140	0.370
2020/01/31 04:59:12.1	90.660	0.140	-1.200	0.340
2020/01/31 04:59:12.2	90.690	0.170	-1.250	0.320
2020/01/31 04:59:12.3	90.710	0.200	-1.290	0.290
2020/01/31 04:59:12.4	90.730	0.220	-1.310	0.270
2020/01/31 04:59:12.5	90.750	0.240	-1.320	0.260
2020/01/31 04:59:12.6	90.770	0.260	-1.310	0.250
2020/01/31 04:59:12.7	90.790	0.270	-1.300	0.240
2020/01/31 04:59:12.8	90.810	0.270	-1.270	0.240
2020/01/31 04:59:12.9	90.830	0.270	-1.230	0.240
2020/01/31 04:59:13.0	90.840	0.270	-1.180	0.250
2020/01/31 04:59:13.1	90.860	0.260	-1.130	0.260
2020/01/31 04:59:13.2	90.870	0.250	-1.050	0.280
2020/01/31 04:59:13.3	90.880	0.240	-0.980	0.300
2020/01/31 04:59:13.4	90.890	0.220	-0.900	0.330
2020/01/31 04:59:13.5	90.890	0.200	-0.820	0.360
2020/01/31 04:59:13.6	90.900	0.180	-0.730	0.400
2020/01/31 04:59:13.7	90.900	0.160	-0.640	0.440
2020/01/31 04:59:13.8	90.890	0.130	-0.550	0.480
2020/01/31 04:59:13.9	90.890	0.110	-0.460	0.520
2020/01/31 04:59:14.0	90.880	0.080	-0.360	0.560
2020/01/31 04:59:14.1	90.880	0.050	-0.270	0.610
2020/01/31 04:59:14.2	90.870	0.020	-0.180	0.650
2020/01/31 04:59:14.3	90.860	-0.000	-0.100	0.690
2020/01/31 04:59:14.4	90.850	-0.030	-0.010	0.730
2020/01/31 04:59:14.5	90.840	-0.060	0.060	0.770
2020/01/31 04:59:14.6	90.830	-0.080	0.130	0.800
2020/01/31 04:59:14.7	90.820	-0.100	0.200	0.830
2020/01/31 04:59:14.8	90.810	-0.120	0.250	0.860
2020/01/31 04:59:14.9	90.800	-0.140	0.300	0.880
2020/01/31 04:59:15.0	90.790	-0.160	0.340	0.900
2020/01/31 04:59:15.1	90.780	-0.170	0.370	0.910
2020/01/31 04:59:15.2	90.770	-0.180	0.400	0.920
2020/01/31 04:59:15.3	90.760	-0.190	0.410	0.920
2020/01/31 04:59:15.4	90.760	-0.190	0.410	0.920
2020/01/31 04:59:15.5	90.750	-0.190	0.400	0.920
2020/01/31 04:59:15.6	90.750	-0.190	0.380	0.910
2020/01/31 04:59:15.7	90.750	-0.180	0.350	0.900
2020/01/31 04:59:15.8	90.750	-0.170	0.310	0.890
2020/01/31 04:59:15.9	90.740	-0.150	0.270	0.880
2020/01/31 04:59:16.0	90.740	-0.130	0.210	0.860
2020/01/31 04:59:16.1	90.740	-0.110	0.150	0.840
2020/01/31 04:59:16.2	90.740	-0.080	0.090	0.820
2020/01/31 04:59:16.3	90.740	-0.060	0.020	0.800
2020/01/31 04:59:16.4	90.730	-0.030	-0.050	0.780
2020/01/31 04:59:16.5	90.730	0.010	-0.120	0.760
2020/01/31 04:59:16.6	90.730	0.040	-0.190	0.740
2020/01/31 04:59:16.7	90.730	0.070	-0.260	0.730
2020/01/31 04:59:16.8	90.730	0.110	-0.330	0.710
2020/01/31 04:59:16.9	90.730	0.140	-0.390	0.690
2020/01/31 04:59:17.0	90.730	0.180	-0.450	0.670
2020/01/31 04:59:17.1	90.730	0.210	-0.500	0.660
2020/01/31 04:59:17.2	90.730	0.240	-0.550	0.640
2020/01/31 04:59:17.3	90.730	0.280	-0.590	0.630
2020/01/31 04:59:17.4	90.730	0.310	-0.620	0.620
2020/01/31 04:59:17.5	90.730	0.330	-0.640	0.600
2020/01/31 04:59:17.6	90.730	0.360	-0.650	0.590
2020/01/31 04:59:17.7	90.740	0.380	-0.660	0.580
2020/01/31 04:59:17.8	90.740	0.400	-0.650	0.570
2020/01/31 04:59:17.9	90.740	0.420	-0.640	0.560
2020/01/31 04:59:18.0	90.750	0.430	-0.630	0.550
2020/01/31 04:59:18.1	90.760	0.440	-0.600	0.540
2020/01/31 04:59:18.2	90.760	0.450	-0.570	0.540
2020/01/31 04:59:18.3	90.770	0.450	-0.540	0.530
2020/01/31 04:59:18.4	90.780	0.460	-0.500	0.520
2020/01/31 04:59:18.5	90.790	0.450	-0.460	0.510
2020/01/31 04:59:18.6	90.800	0.450	-0.420	0.510
2020/01/31 04:59:18.7	90.810	0.440	-0.370	0.500
2020/01/31 04:59:18.8	90.820	0.440	-0.330	0.490
2020/01/31 04:59:18.9	90.830	0.420	-0.290	0.490
2020/01/31 04:59:19.0	90.840	0.410	-0.240	0.490
2020/01/31 04:59:19.1	90.850	0.390	-0.200	0.480
2020/01/31 04:59:19.2	90.870	0.380	-0.160	0.480
2020/01/31 04:59:19.3	90.880	0.360	-0.120	0.480
2020/01/31 04:59:19.4	90.890	0.340	-0.090	0.480
2020/01/31 04:59:19.5	90.900	0.320	-0.050	0.480
2020/01/31 04:59:19.6	90.920	0.300	-0.030	0.480
2020/01/31 04:59:19.7	90.930	0.280	-0.010	0.480
2020/01/31 04:59:19.8	90.940	0.260	0.010	0.480
2020/01/31 04:59:19.9	90.960	0.240	0.020	0.480
2020/01/31 04:59:20.0	90.970	0.220	0.030	0.480
2020/01/31 04:59:20.1	90.990	0.200	0.030	0.480
2020/01/31 04:59:20.2	91.010	0.180	0.030	0.480
2020/01/31 04:59:20.3	91.030	0.160	0.020	0.470
2020/01/31 04:59:20.4	91.060	0.140	0.000	0.470
2020/01/31 04:59:20.5	91.080	0.130	-0.010	0.470
2020/01/31 04:59:20.6	91.110	0.120	-0.040	0.460
2020/01/31 04:59:20.7	91.140	0.100	-0.060	0.460
2020/01/31 04:59:20.8	91.170	0.090	-0.090	0.460
2020/01/31 04:59:20.9	91.200	0.080	-0.120	0.460
2020/01/31 04:59:21.0	91.230	0.070	-0.150	0.460
2020/01/31 04:59:21.1	91.250	0.060	-0.180	0.460
2020/01/31 04:59:21.2	91.280	0.050	-0.210	0.470
2020/01/31 04:59:21.3	91.300	0.040	-0.240	0.470
2020/01/31 04:59:21.4	91.320	0.030	-0.270	0.480
2020/01/31 04:59:21.5	91.340	0.020	-0.290	0.490
2020/01/31 04:59:21.6	91.360	0.010	-0.310	0.500
2020/01/31 04:59:21.7	91.380	-0.000	-0.330	0.510
2020/01/31 04:59:21.8	91.390	-0.010	-0.350	0.530
2020/01/31 04:59:21.9	91.400	-0.020	-0.360	0.540
2020/01/31 04:59:22.0	91.410	-0.040	-0.360	0.560
2020/01/31 04:59:22.1	91.410	-0.050	-0.360	0.570
2020/01/31 04:59:22.2	91.410	-0.070	-0.360	0.590
2020/01/31 04:59:22.3	91.410	-0.090	-0.340	0.610
2020/01/31 04:59:22.4	91.410	-0.100	-0.320	0.630
2020/01/31 04:59:22.5	91.400	-0.130	-0.300	0.650
2020/01/31 04:59:22.6	91.390	-0.150	-0.270	0.670
2020/01/31 04:59:22.7	91.380	-0.170	-0.230	0.700
2020/01/31 04:59:22.8	91.360	-0.200	-0.190	0.720
2020/01/31 04:59:22.9	91.340	-0.220	-0.140	0.740
2020/01/31 04:59:23.0	91.320	-0.250	-0.090	0.770
2020/01/31 04:59:23.1	91.300	-0.280	-0.030	0.790
2020/01/31 04:59:23.2	91.280	-0.310	0.020	0.810
2020/01/31 04:59:23.3	91.260	-0.340	0.080	0.830
2020/01/31 04:59:23.4	91.230	-0.370	0.140	0.850
2020/01/31 04:59:23.5	91.210	-0.400	0.200	0.880
2020/01/31 04:59:23.6	91.190	-0.440	0.260	0.900
2020/01/31 04:59:23.7	91.170	-0.470	0.320	0.920
2020/01/31 04:59:23.8	91.140	-0.500	0.370	0.940
2020/01/31 04:59:23.9	91.130	-0.530	0.420	0.950
2020/01/31 04:59:24.0	91.110	-0.550	0.460	0.970
2020/01/31 04:59:24.1	91.090	-0.580	0.500	0.980
2020/01/31 04:59:24.2	91.080	-0.600	0.540	1.000
2020/01/31 04:59:24.3	91.070	-0.620	0.560	1.010
2020/01/31 04:59:24.4	91.060	-0.640	0.570	1.010
2020/01/31 04:59:24.5	91.050	-0.650	0.570	1.020
2020/01/31 04:59:24.6	91.050	-0.660	0.570	1.020
2020/01/31 04:59:24.7	91.060	-0.660	0.550	1.010
2020/01/31 04:59:24.8	91.070	-0.660	0.520	1.000
2020/01/31 04:59:24.9	91.080	-0.650	0.480	0.990
2020/01/31 04:59:25.0	91.100	-0.640	0.430	0.970
2020/01/31 04:59:25.1	91.120	-0.620	0.370	0.950
2020/01/31 04:59:25.2	91.140	-0.600	0.290	0.920
2020/01/31 04:59:25.3	91.170	-0.570	0.210	0.890
2020/01/31 04:59:25.4	91.200	-0.530	0.120	0.850
2020/01/31 04:59:25.5	91.240	-0.500	0.020	0.810
2020/01/31 04:59:25.6	91.270	-0.450	-0.080	0.770
2020/01/31 04:59:25.7	91.310	-0.400	-0.190	0.720
2020/01/31 04:59:25.8	91.350	-0.350	-0.300	0.670
2020/01/31 04:59:25.9	91.400	-0.300	-0.410	0.610
2020/01/31 04:59:26.0	91.440	-0.240	-0.520	0.560
2020/01/31 04:59:26.1	91.480	-0.190	-0.630	0.500
2020/01/31 04:59:26.2	91.530	-0.130	-0.740	0.440
2020/01/31 04:59:26.3	91.560	-0.070	-0.840	0.390
2020/01/31 04:59:26.4	91.600	-0.010	-0.930	0.340
2020/01/31 04:59:26.5	91.630	0.050	-1.020	0.290
2020/01/31 04:59:26.6	91.660	0.110	-1.090	0.240
2020/01/31 04:59:26.7	91.680	0.160	-1.160	0.200
2020/01/31 04:59:26.8	91.700	0.210	-1.210	0.160
2020/01/31 04:59:26.9	91.710	0.260	-1.260	0.130
2020/01/31 04:59:27.0	91.720	0.310	-1.290	0.100
2020/01/31 04:59:27.1	91.720	0.350	-1.310	0.080
2020/01/31 04:59:27.2	91.710	0.390	-1.320	0.070
2020/01/31 04:59:27.3	91.710	0.420	-1.320	0.060
2020/01/31 04:59:27.4	91.690	0.450	-1.300	0.060
2020/01/31 04:59:27.5	91.670	0.480	-1.280	0.060
2020/01/31 04:59:27.6	91.650	0.500	-1.240	0.070
2020/01/31 04:59:27.7	91.620	0.510	-1.200	0.080
2020/01/31 04:59:27.8	91.590	0.520	-1.150	0.100
2020/01/31 04:59:27.9	91.560	0.530	-1.090	0.120
2020/01/31 04:59:28.0	91.520	0.530	-1.020	0.150
2020/01/31 04:59:28.1	91.480	0.530	-0.940	0.180
2020/01/31 04:59:28.2	91.440	0.520	-0.860	0.210
2020/01/31 04:59:28.3	91.400	0.510	-0.780	0.240
2020/01/31 04:59:28.4	91.360	0.490	-0.690	0.270
2020/01/31 04:59:28.5	91.320	0.470	-0.610	0.300
2020/01/31 04:59:28.6	91.280	0.450	-0.520	0.330
2020/01/31 04:59:28.7	91.240	0.430	-0.430	0.360
2020/01/31 04:59:28.8	91.200	0.400	-0.350	0.380
2020/01/31 04:59:28.9	91.160	0.380	-0.260	0.410
2020/01/31 04:59:29.0	91.130	0.350	-0.180	0.430
2020/01/31 04:59:29.1	91.100	0.320	-0.100	0.450
2020/01/31 04:59:29.2	91.070	0.290	-0.030	0.460
2020/01/31 04:59:29.3	91.050	0.260	0.040	0.470
2020/01/31 04:59:29.4	91.030	0.230	0.100	0.480
2020/01/31 04:59:29.5	91.010	0.210	0.160	0.480
2020/01/31 04:59:29.6	91.000	0.180	0.210	0.480
2020/01/31 04:59:29.7	90.990	0.160	0.250	0.470
2020/01/31 04:59:29.8	90.990	0.130	0.280	0.460
2020/01/31 04:59:29.9	90.990	0.110	0.310	0.450
2020/01/31 04:59:30.0	90.990	0.090	0.330	0.430
2020/01/31 04:59:30.1	90.990	0.080	0.350	0.410
2020/01/31 04:59:30.2	91.010	0.060	0.360	0.380
2020/01/31 04:59:30.3	91.020	0.050	0.360	0.360
2020/01/31 04:59:30.4	91.030	0.040	0.350	0.330
2020/01/31 04:59:30.5	91.040	0.040	0.340	0.310
2020/01/31 04:59:30.6	91.050	0.030	0.330	0.280
2020/01/31 04:59:30.7	91.060	0.030	0.310	0.260
2020/01/31 04:59:30.8	91.070	0.020	0.290	0.230
2020/01/31 04:59:30.9	91.080	0.020	0.260	0.210
2020/01/31 04:59:31.0	91.090	0.030	0.230	0.190
2020/01/31 04:59:31.1	91.100	0.030	0.200	0.160
2020/01/31 04:59:31.2	91.110	0.030	0.160	0.140
2020/01/31 04:59:31.3	91.110	0.040	0.130	0.120
2020/01/31 04:59:31.4	91.120	0.040	0.100	0.100
2020/01/31 04:59:31.5	91.130	0.050	0.060	0.070
2020/01/31 04:59:31.6	91.130	0.060	0.030	0.050
2020/01/31 04:59:31.7	91.130	0.070	-0.010	0.030
2020/01/31 04:59:31.8	91.140	0.070	-0.040	0.010
2020/01/31 04:59:31.9	91.140	0.080	-0.070	-0.000
2020/01/31 04:59:32.0	91.150	0.090	-0.110	-0.020
2020/01/31 04:59:32.1	91.150	0.100	-0.140	-0.040
2020/01/31 04:59:32.2	91.150	0.110	-0.160	-0.050
2020/01/31 04:59:32.3	91.160	0.110	-0.190	-0.060
2020/01/31 04:59:32.4	91.170	0.120	-0.220	-0.070
2020/01/31 04:59:32.5	91.180	0.130	-0.250	-0.080
2020/01/31 04:59:32.6	91.190	0.130	-0.270	-0.090
2020/01/31 04:59:32.7	91.210	0.140	-0.290	-0.090
2020/01/31 04:59:32.8	91.220	0.140	-0.310	-0.090
2020/01/31 04:59:32.9	91.240	0.140	-0.330	-0.090
2020/01/31 04:59:33.0	91.260	0.140	-0.350	-0.090
2020/01/31 04:59:33.1	91.280	0.140	-0.370	-0.080
2020/01/31 04:59:33.2	91.300	0.140	-0.380	-0.060
2020/01/31 04:59:33.3	91.320	0.140	-0.400	-0.050
2020/01/31 04:59:33.4	91.340	0.140	-0.410	-0.030
2020/01/31 04:59:33.5	91.370	0.130	-0.420	-0.000
2020/01/31 04:59:33.6	91.390	0.130	-0.420	0.030
2020/01/31 04:59:33.7	91.410	0.120	-0.430	0.060
2020/01/31 04:59:33.8	91.430	0.110	-0.430	0.100
2020/01/31 04:59:33.9	91.440	0.100	-0.430	0.140
2020/01/31 04:59:34.0	91.450	0.090	-0.430	0.190
2020/01/31 04:59:34.1	91.470	0.080	-0.430	0.230
2020/01/31 04:59:34.2	91.480	0.060	-0.420	0.280
2020/01/31 04:59:34.3	91.480	0.050	-0.410	0.330
2020/01/31 04:59:34.4	91.490	0.030	-0.400	0.380
2020/01/31 04:59:34.5	91.490	0.020	-0.390	0.440
2020/01/31 04:59:34.6	91.490	-0.000	-0.370	0.490
2020/01/31 04:59:34.7	91.480	-0.020	-0.350	0.540
2020/01/31 04:59:34.8	91.480	-0.040	-0.330	0.590
2020/01/31 04:59:34.9	91.470	-0.060	-0.300	0.640
2020/01/31 04:59:35.0	91.460	-0.080	-0.270	0.690
2020/01/31 04:59:35.1	91.450	-0.100	-0.240	0.730
2020/01/31 04:59:35.2	91.430	-0.120	-0.210	0.780
2020/01/31 04:59:35.3	91.420	-0.150	-0.180	0.820
2020/01/31 04:59:35.4	91.410	-0.170	-0.150	0.860
2020/01/31 04:59:35.5	91.390	-0.190	-0.110	0.900
2020/01/31 04:59:35.6	91.380	-0.210	-0.080	0.930
2020/01/31 04:59:35.7	91.360	-0.240	-0.040	0.960
2020/01/31 04:59:35.8	91.350	-0.260	-0.010	0.990
2020/01/31 04:59:35.9	91.340	-0.280	0.030	1.020
2020/01/31 04:59:36.0	91.330	-0.310	0.060	1.040
2020/01/31 04:59:36.1	91.320	-0.330	0.090	1.060
2020/01/31 04:59:36.2	91.310	-0.350	0.120	1.080
2020/01/31 04:59:36.3	91.300	-0.370	0.150	1.090
2020/01/31 04:59:36.4	91.300	-0.390	0.180	1.100
2020/01/31 04:59:36.5	91.290	-0.410	0.200	1.120
2020/01/31 04:59:36.6	91.290	-0.420	0.220	1.120
2020/01/31 04:59:36.7	91.290	-0.440	0.240	1.130
2020/01/31 04:59:36.8	91.300	-0.450	0.250	1.130
2020/01/31 04:59:36.9	91.300	-0.460	0.260	1.140
2020/01/31 04:59:37.0	91.310	-0.470	0.260	1.140
2020/01/31 04:59:37.1	91.320	-0.480	0.260	1.130
2020/01/31 04:59:37.2	91.320	-0.480	0.260	1.130
2020/01/31 04:59:37.3	91.330	-0.490	0.250	1.130
2020/01/31 04:59:37.4	91.340	-0.480	0.230	1.120
2020/01/31 04:59:37.5	91.350	-0.480	0.200	1.110
2020/01/31 04:59:37.6	91.370	-0.470	0.180	1.110
2020/01/31 04:59:37.7	91.380	-0.460	0.140	1.100
2020/01/31 04:59:37.8	91.390	-0.450	0.110	1.090
2020/01/31 04:59:37.9	91.400	-0.430	0.060	1.080
2020/01/31 04:59:38.0	91.410	-0.410	0.020	1.070
2020/01/31 04:59:38.1	91.420	-0.390	-0.040	1.060
2020/01/31 04:59:38.2	91.430	-0.360	-0.100	1.040
2020/01/31 04:59:38.3	91.440	-0.330	-0.160	1.030
2020/01/31 04:59:38.4	91.440	-0.300	-0.220	1.020
2020/01/31 04:59:38.5	91.450	-0.270	-0.280	1.000
2020/01/31 04:59:38.6	91.450	-0.240	-0.340	0.990
2020/01/31 04:59:38.7	91.460	-0.200	-0.400	0.970
2020/01/31 04:59:38.8	91.460	-0.160	-0.470	0.950
2020/01/31 04:59:38.9	91.460	-0.120	-0.530	0.930
2020/01/31 04:59:39.0	91.450	-0.090	-0.590	0.910
2020/01/31 04:59:39.1	91.450	-0.050	-0.650	0.890
2020/01/31 04:59:39.2	91.450	-0.010	-0.700	0.860
2020/01/31 04:59:39.3	91.440	0.030	-0.760	0.830
2020/01/31 04:59:39.4	91.440	0.070	-0.810	0.800
2020/01/31 04:59:39.5	91.430	0.100	-0.850	0.770
2020/01/31 04:59:39.6	91.430	0.140	-0.890	0.740
2020/01/31 04:59:39.7	91.420	0.170	-0.920	0.710
2020/01/31 04:59:39.8	91.420	0.200	-0.950	0.680
2020/01/31 04:59:39.9	91.420	0.230	-0.970	0.650
2020/01/31 04:59:40.0	91.410	0.260	-0.980	0.620
2020/01/31 04:59:40.1	91.410	0.280	-0.990	0.590
2020/01/31 04:59:40.2	91.410	0.300	-0.990	0.560
2020/01/31 04:59:40.3	91.410	0.320	-0.980	0.540
2020/01/31 04:59:40.4	91.410	0.330	-0.960	0.510
2020/01/31 04:59:40.5	91.410	0.350	-0.940	0.500
2020/01/31 04:59:40.6	91.420	0.350	-0.910	0.480
2020/01/31 04:59:40.7	91.420	0.360	-0.870	0.470
2020/01/31 04:59:40.8	91.420	0.360	-0.830	0.460
2020/01/31 04:59:40.9	91.420	0.370	-0.780	0.460
2020/01/31 04:59:41.0	91.430	0.360	-0.720	0.450
2020/01/31 04:59:41.1	91.430	0.360	-0.660	0.450
2020/01/31 04:59:41.2	91.430	0.350	-0.590	0.460
2020/01/31 04:59:41.3	91.430	0.340	-0.520	0.470
2020/01/31 04:59:41.4	91.440	0.330	-0.450	0.470
2020/01/31 04:59:41.5	91.440	0.320	-0.370	0.480
2020/01/31 04:59:41.6	91.440	0.310	-0.300	0.480
2020/01/31 04:59:41.7	91.440	0.290	-0.220	0.490
2020/01/31 04:59:41.8	91.450	0.280	-0.150	0.490
2020/01/31 04:59:41.9	91.450	0.270	-0.080	0.490
2020/01/31 04:59:42.0	91.450	0.250	-0.010	0.490
2020/01/31 04:59:42.1	91.460	0.240	0.050	0.480
2020/01/31 04:59:42.2	91.470	0.220	0.100	0.470
2020/01/31 04:59:42.3	91.470	0.210	0.160	0.460
2020/01/31 04:59:42.4	91.480	0.190	0.210	0.450
2020/01/31 04:59:42.5	91.490	0.180	0.250	0.430
2020/01/31 04:59:42.6	91.500	0.170	0.290	0.400
2020/01/31 04:59:42.7	91.510	0.160	0.320	0.380
2020/01/31 04:59:42.8	91.520	0.160	0.340	0.350
2020/01/31 04:59:42.9	91.530	0.150	0.350	0.320
2020/01/31 04:59:43.0	91.540	0.140	0.360	0.280
2020/01/31 04:59:43.1	91.550	0.140	0.350	0.250
2020/01/31 04:59:43.2	91.570	0.140	0.350	0.220
2020/01/31 04:59:43.3	91.590	0.140	0.330	0.190
2020/01/31 04:59:43.4	91.600	0.150	0.300	0.160
2020/01/31 04:59:43.5	91.610	0.150	0.270	0.130
2020/01/31 04:59:43.6	91.630	0.160	0.230	0.110
2020/01/31 04:59:43.7	91.640	0.170	0.180	0.100
2020/01/31 04:59:43.8	91.650	0.180	0.130	0.090
2020/01/31 04:59:43.9	91.660	0.200	0.080	0.080
2020/01/31 04:59:44.0	91.670	0.210	0.020	0.080
2020/01/31 04:59:44.1	91.670	0.230	-0.040	0.090
2020/01/31 04:59:44.2	91.670	0.240	-0.110	0.100
2020/01/31 04:59:44.3	91.680	0.250	-0.170	0.110
2020/01/31 04:59:44.4	91.680	0.270	-0.220	0.130
2020/01/31 04:59:44.5	91.680	0.280	-0.280	0.150
2020/01/31 04:59:44.6	91.680	0.300	-0.330	0.180
2020/01/31 04:59:44.7	91.690	0.310	-0.380	0.200
2020/01/31 04:59:44.8	91.690	0.320	-0.420	0.230
2020/01/31 04:59:44.9	91.690	0.330	-0.460	0.260
2020/01/31 04:59:45.0	91.690	0.330	-0.490	0.290
2020/01/31 04:59:45.1	91.690	0.340	-0.510	0.310
2020/01/31 04:59:45.2	91.680	0.340	-0.530	0.340
2020/01/31 04:59:45.3	91.680	0.340	-0.540	0.360
2020/01/31 04:59:45.4	91.690	0.340	-0.540	0.390
2020/01/31 04:59:45.5	91.690	0.330	-0.540	0.410
2020/01/31 04:59:45.6	91.690	0.330	-0.530	0.430
2020/01/31 04:59:45.7	91.690	0.320	-0.510	0.450
2020/01/31 04:59:45.8	91.690	0.310	-0.490	0.480
2020/01/31 04:59:45.9	91.700	0.290	-0.460	0.500
2020/01/31 04:59:46.0	91.700	0.270	-0.430	0.520
2020/01/31 04:59:46.1	91.710	0.260	-0.390	0.540
2020/01/31 04:59:46.2	91.710	0.230	-0.350	0.560
2020/01/31 04:59:46.3	91.720	0.210	-0.310	0.580
2020/01/31 04:59:46.4	91.730	0.190	-0.270	0.600
2020/01/31 04:59:46.5	91.740	0.160	-0.220	0.620
2020/01/31 04:59:46.6	91.750	0.130	-0.180	0.650
2020/01/31 04:59:46.7	91.760	0.110	-0.140	0.670
2020/01/31 04:59:46.8	91.770	0.080	-0.100	0.700
2020/01/31 04:59:46.9	91.780	0.050	-0.060	0.720
2020/01/31 04:59:47.0	91.790	0.020	-0.020	0.750
2020/01/31 04:59:47.1	91.810	-0.010	0.010	0.770
2020/01/31 04:59:47.2	91.820	-0.040	0.040	0.800
2020/01/31 04:59:47.3	91.840	-0.070	0.060	0.820
2020/01/31 04:59:47.4	91.850	-0.090	0.080	0.850
2020/01/31 04:59:47.5	91.870	-0.120	0.090	0.870
2020/01/31 04:59:47.6	91.880	-0.150	0.100	0.890
2020/01/31 04:59:47.7	91.900	-0.170	0.110	0.910
2020/01/31 04:59:47.8	91.910	-0.190	0.100	0.920
2020/01/31 04:59:47.9	91.930	-0.220	0.100	0.930
2020/01/31 04:59:48.0	91.950	-0.230	0.090	0.950
2020/01/31 04:59:48.1	91.960	-0.250	0.080	0.950
2020/01/31 04:59:48.2	91.980	-0.270	0.060	0.960
2020/01/31 04:59:48.3	91.990	-0.290	0.040	0.960
2020/01/31 04:59:48.4	92.010	-0.300	0.020	0.960
2020/01/31 04:59:48.5	92.020	-0.310	0.000	0.960
2020/01/31 04:59:48.6	92.040	-0.320	-0.020	0.960
2020/01/31 04:59:48.7	92.050	-0.330	-0.040	0.950
2020/01/31 04:59:48.8	92.060	-0.340	-0.070	0.940
2020/01/31 04:59:48.9	92.070	-0.350	-0.090	0.940
2020/01/31 04:59:49.0	92.080	-0.360	-0.110	0.930
2020/01/31 04:59:49.1	92.100	-0.360	-0.130	0.920
2020/01/31 04:59:49.2	92.100	-0.370	-0.150	0.910
2020/01/31 04:59:49.3	92.110	-0.370	-0.170	0.900
2020/01/31 04:59:49.4	92.120	-0.370	-0.190	0.890
2020/01/31 04:59:49.5	92.130	-0.380	-0.200	0.880
2020/01/31 04:59:49.6	92.140	-0.380	-0.210	0.870
2020/01/31 04:59:49.7	92.140	-0.380	-0.220	0.860
2020/01/31 04:59:49.8	92.150	-0.390	-0.230	0.860
2020/01/31 04:59:49.9	92.160	-0.390	-0.240	0.850
2020/01/31 04:59:50.0	92.160	-0.390	-0.240	0.840
2020/01/31 04:59:50.1	92.170	-0.390	-0.240	0.840
2020/01/31 04:59:50.2	92.170	-0.400	-0.240	0.830
2020/01/31 04:59:50.3	92.180	-0.400	-0.240	0.820
2020/01/31 04:59:50.4	92.180	-0.400	-0.240	0.820
2020/01/31 04:59:50.5	92.190	-0.400	-0.230	0.810
2020/01/31 04:59:50.6	92.190	-0.400	-0.230	0.810
2020/01/31 04:59:50.7	92.200	-0.400	-0.220	0.800
2020/01/31 04:59:50.8	92.200	-0.400	-0.220	0.800
2020/01/31 04:59:50.9	92.200	-0.400	-0.210	0.790
2020/01/31 04:59:51.0	92.200	-0.400	-0.200	0.790
2020/01/31 04:59:51.1	92.200	-0.400	-0.200	0.780
2020/01/31 04:59:51.2	92.200	-0.400	-0.190	0.770
2020/01/31 04:59:51.3	92.190	-0.390	-0.190	0.770
2020/01/31 04:59:51.4	92.190	-0.390	-0.190	0.760
2020/01/31 04:59:51.5	92.180	-0.380	-0.190	0.750
2020/01/31 04:59:51.6	92.170	-0.370	-0.190	0.750
2020/01/31 04:59:51.7	92.160	-0.360	-0.200	0.740
2020/01/31 04:59:51.8	92.150	-0.340	-0.210	0.740
2020/01/31 04:59:51.9	92.140	-0.330	-0.220	0.730
2020/01/31 04:59:52.0	92.130	-0.310	-0.230	0.730
2020/01/31 04:59:52.1	92.110	-0.290	-0.240	0.720
2020/01/31 04:59:52.2	92.100	-0.270	-0.260	0.710
2020/01/31 04:59:52.3	92.080	-0.240	-0.280	0.710
2020/01/31 04:59:52.4	92.060	-0.220	-0.300	0.700
2020/01/31 04:59:52.5	92.050	-0.190	-0.330	0.700
2020/01/31 04:59:52.6	92.030	-0.160	-0.360	0.690
2020/01/31 04:59:52.7	92.010	-0.130	-0.390	0.680
2020/01/31 04:59:52.8	92.000	-0.090	-0.420	0.670
2020/01/31 04:59:52.9	91.980	-0.060	-0.460	0.660
2020/01/31 04:59:53.0	91.970	-0.020	-0.500	0.650
2020/01/31 04:59:53.1	91.960	0.010	-0.540	0.630
2020/01/31 04:59:53.2	91.960	0.050	-0.580	0.620
2020/01/31 04:59:53.3	91.950	0.090	-0.620	0.600
2020/01/31 04:59:53.4	91.940	0.130	-0.660	0.590
2020/01/31 04:59:53.5	91.940	0.170	-0.700	0.560
2020/01/31 04:59:53.6	91.940	0.200	-0.740	0.540
2020/01/31 04:59:53.7	91.940	0.240	-0.780	0.520
2020/01/31 04:59:53.8	91.950	0.280	-0.810	0.490
2020/01/31 04:59:53.9	91.950	0.320	-0.840	0.470
2020/01/31 04:59:54.0	91.960	0.350	-0.870	0.440
2020/01/31 04:59:54.1	91.960	0.390	-0.890	0.410
2020/01/31 04:59:54.2	91.980	0.420	-0.910	0.380
2020/01/31 04:59:54.3	91.990	0.450	-0.920	0.350
2020/01/31 04:59:54.4	92.000	0.470	-0.930	0.330
2020/01/31 04:59:54.5	92.010	0.500	-0.920	0.300
2020/01/31 04:59:54.6	92.010	0.510	-0.910	0.270
2020/01/31 04:59:54.7	92.020	0.530	-0.890	0.250
2020/01/31 04:59:54.8	92.020	0.540	-0.860	0.220
2020/01/31 04:59:54.9	92.030	0.540	-0.820	0.200
2020/01/31 04:59:55.0	92.030	0.540	-0.770	0.180
2020/01/31 04:59:55.1	92.020	0.540	-0.710	0.160
2020/01/31 04:59:55.2	92.020	0.530	-0.640	0.150
2020/01/31 04:59:55.3	92.020	0.510	-0.560	0.130
2020/01/31 04:59:55.4	92.010	0.490	-0.470	0.120
2020/01/31 04:59:55.5	91.990	0.470	-0.380	0.110
2020/01/31 04:59:55.6	91.980	0.440	-0.270	0.100
2020/01/31 04:59:55.7	91.960	0.400	-0.170	0.100
2020/01/31 04:59:55.8	91.930	0.360	-0.060	0.090
2020/01/31 04:59:55.9	91.910	0.320	0.060	0.090
2020/01/31 04:59:56.0	91.880	0.270	0.170	0.090
2020/01/31 04:59:56.1	91.850	0.220	0.290	0.090
2020/01/31 04:59:56.2	91.820	0.160	0.410	0.090
2020/01/31 04:59:56.3	91.790	0.110	0.520	0.100
2020/01/31 04:59:56.4	91.750	0.050	0.620	0.110
2020/01/31 04:59:56.5	91.710	-0.010	0.720	0.110
2020/01/31 04:59:56.6	91.680	-0.060	0.810	0.120
2020/01/31 04:59:56.7	91.640	-0.120	0.890	0.140
2020/01/31 04:59:56.8	91.610	-0.170	0.970	0.150
2020/01/31 04:59:56.9	91.570	-0.230	1.030	0.160
2020/01/31 04:59:57.0	91.540	-0.280	1.070	0.170
2020/01/31 04:59:57.1	91.520	-0.320	1.110	0.180
2020/01/31 04:59:57.2	91.500	-0.370	1.130	0.190
2020/01/31 04:59:57.3	91.480	-0.400	1.130	0.200
2020/01/31 04:59:57.4	91.460	-0.430	1.120	0.200
2020/01/31 04:59:57.5	91.450	-0.460	1.100	0.200
2020/01/31 04:59:57.6	91.450	-0.470	1.050	0.200
2020/01/31 04:59:57.7	91.450	-0.480	0.990	0.200
2020/01/31 04:59:57.8	91.460	-0.480	0.920	0.190
2020/01/31 04:59:57.9	91.470	-0.480	0.820	0.180
2020/01/31 04:59:58.0	91.480	-0.460	0.720	0.160
2020/01/31 04:59:58.1	91.510	-0.440	0.600	0.140
2020/01/31 04:59:58.2	91.530	-0.410	0.470	0.120
2020/01/31 04:59:58.3	91.560	-0.370	0.320	0.100
2020/01/31 04:59:58.4	91.590	-0.320	0.170	0.080
2020/01/31 04:59:58.5	91.630	-0.270	0.020	0.050
2020/01/31 04:59:58.6	91.670	-0.210	-0.150	0.030
2020/01/31 04:59:58.7	91.710	-0.140	-0.310	0.000
2020/01/31 04:59:58.8	91.750	-0.080	-0.480	-0.020
2020/01/31 04:59:58.9	91.790	-0.000	-0.650	-0.040
2020/01/31 04:59:59.0	91.830	0.080	-0.810	-0.060
2020/01/31 04:59:59.1	91.870	0.150	-0.970	-0.070
2020/01/31 04:59:59.2	91.900	0.230	-1.130	-0.080
2020/01/31 04:59:59.3	91.930	0.310	-1.270	-0.090
2020/01/31 04:59:59.4	91.960	0.390	-1.400	-0.090
2020/01/31 04:59:59.5	91.990	0.470	-1.520	-0.090
2020/01/31 04:59:59.6	92.010	0.550	-1.630	-0.080
2020/01/31 04:59:59.7	92.030	0.620	-1.720	-0.070
2020/01/31 04:59:59.8	92.050	0.680	-1.790	-0.060
2020/01/31 04:59:59.9	92.060	0.740	-1.840	-0.040
2020/01/31 05:00:00.0	92.070	0.790	-1.880	-0.010
2020/01/31 05:00:00.1	92.070	0.840	-1.890	0.020
2020/01/31 05:00:00.2	92.060	0.870	-1.880	0.060
2020/01/31 05:00:00.3	92.050	0.900	-1.860	0.100
2020/01/31 05:00:00.4	92.040	0.920	-1.810	0.150
2020/01/31 05:00:00.5	92.030	0.920	-1.740	0.200
2020/01/31 05:00:00.6	92.010	0.920	-1.660	0.250
2020/01/31 05:00:00.7	91.980	0.910	-1.560	0.310
2020/01/31 05:00:00.8	91.960	0.890	-1.440	0.380
2020/01/31 05:00:00.9	91.920	0.860	-1.310	0.440
2020/01/31 05:00:01.0	91.890	0.820	-1.160	0.510
2020/01/31 05:00:01.1	91.840	0.770	-1.000	0.590
2020/01/31 05:00:01.2	91.800	0.710	-0.830	0.670
2020/01/31 05:00:01.3	91.750	0.650	-0.660	0.750
2020/01/31 05:00:01.4	91.700	0.570	-0.470	0.830
2020/01/31 05:00:01.5	91.650	0.490	-0.290	0.910
2020/01/31 05:00:01.6	91.590	0.410	-0.100	0.990
2020/01/31 05:00:01.7	91.540	0.320	0.090	1.070
2020/01/31 05:00:01.8	91.480	0.220	0.270	1.150
2020/01/31 05:00:01.9	91.420	0.120	0.450	1.230
2020/01/31 05:00:02.0	91.360	0.020	0.630	1.310
2020/01/31 05:00:02.1	91.300	-0.080	0.800	1.380
2020/01/31 05:00:02.2	91.240	-0.190	0.960	1.450
2020/01/31 05:00:02.3	91.190	-0.290	1.110	1.520
2020/01/31 05:00:02.4	91.130	-0.390	1.240	1.570
2020/01/31 05:00:02.5	91.080	-0.490	1.360	1.620
2020/01/31 05:00:02.6	91.020	-0.580	1.460	1.660
2020/01/31 05:00:02.7	90.980	-0.670	1.550	1.700
2020/01/31 05:00:02.8	90.930	-0.750	1.610	1.720
2020/01/31 05:00:02.9	90.890	-0.830	1.660	1.740
2020/01/31 05:00:03.0	90.850	-0.890	1.690	1.750
2020/01/31 05:00:03.1	90.820	-0.950	1.690	1.740
2020/01/31 05:00:03.2	90.790	-1.000	1.670	1.730
2020/01/31 05:00:03.3	90.760	-1.040	1.640	1.700
2020/01/31 05:00:03.4	90.740	-1.070	1.580	1.670
2020/01/31 05:00:03.5	90.730	-1.080	1.500	1.630
2020/01/31 05:00:03.6	90.720	-1.090	1.400	1.580
2020/01/31 05:00:03.7	90.710	-1.080	1.290	1.530
2020/01/31 05:00:03.8	90.710	-1.070	1.160	1.460
2020/01/31 05:00:03.9	90.720	-1.040	1.010	1.390
2020/01/31 05:00:04.0	90.720	-1.000	0.850	1.320
2020/01/31 05:00:04.1	90.740	-0.960	0.680	1.240
2020/01/31 05:00:04.2	90.750	-0.900	0.490	1.160
2020/01/31 05:00:04.3	90.770	-0.840	0.300	1.070
2020/01/31 05:00:04.4	90.800	-0.760	0.110	0.990
2020/01/31 05:00:04.5	90.820	-0.690	-0.080	0.910
2020/01/31 05:00:04.6	90.850	-0.600	-0.270	0.820
2020/01/31 05:00:04.7	90.870	-0.520	-0.460	0.740
2020/01/31 05:00:04.8	90.900	-0.430	-0.650	0.670
2020/01/31 05:00:04.9	90.920	-0.340	-0.830	0.600
2020/01/31 05:00:05.0	90.940	-0.240	-1.000	0.530
2020/01/31 05:00:05.1	90.970	-0.150	-1.160	0.460
2020/01/31 05:00:05.2	90.980	-0.060	-1.310	0.410
2020/01/31 05:00:05.3	90.990	0.030	-1.440	0.350
2020/01/31 05:00:05.4	91.010	0.110	-1.560	0.300
2020/01/31 05:00:05.5	91.020	0.190	-1.660	0.260
2020/01/31 05:00:05.6	91.040	0.270	-1.740	0.220
2020/01/31 05:00:05.7	91.050	0.340	-1.800	0.190
2020/01/31 05:00:05.8	91.060	0.400	-1.840	0.160
2020/01/31 05:00:05.9	91.080	0.450	-1.860	0.140
2020/01/31 05:00:06.0	91.090	0.500	-1.870	0.120
2020/01/31 05:00:06.1	91.100	0.530	-1.850	0.110
2020/01/31 05:00:06.2	91.100	0.560	-1.810	0.100
2020/01/31 05:00:06.3	91.110	0.580	-1.760	0.090
2020/01/31 05:00:06.4	91.110	0.590	-1.690	0.090
2020/01/31 05:00:06.5	91.120	0.590	-1.600	0.090
2020/01/31 05:00:06.6	91.130	0.590	-1.500	0.100
2020/01/31 05:00:06.7	91.140	0.570	-1.380	0.110
2020/01/31 05:00:06.8	91.140	0.550	-1.250	0.120
2020/01/31 05:00:06.9	91.150	0.520	-1.100	0.140
2020/01/31 05:00:07.0	91.160	0.480	-0.950	0.160
2020/01/31 05:00:07.1	91.170	0.430	-0.790	0.180
2020/01/31 05:00:07.2	91.170	0.380	-0.620	0.200
2020/01/31 05:00:07.3	91.180	0.330	-0.460	0.230
2020/01/31 05:00:07.4	91.190	0.270	-0.290	0.260
2020/01/31 05:00:07.5	91.190	0.210	-0.120	0.290
2020/01/31 05:00:07.6	91.200	0.140	0.050	0.320
2020/01/31 05:00:07.7	91.210	0.070	0.210	0.360
2020/01/31 05:00:07.8	91.210	0.000	0.360	0.400
2020/01/31 05:00:07.9	91.210	-0.060	0.510	0.440
2020/01/31 05:00:08.0	91.220	-0.130	0.640	0.480
2020/01/31 05:00:08.1	91.220	-0.200	0.760	0.520
2020/01/31 05:00:08.2	91.220	-0.260	0.880	0.560
2020/01/31 05:00:08.3	91.220	-0.320	0.970	0.610
2020/01/31 05:00:08.4	91.210	-0.380	1.050	0.650
2020/01/31 05:00:08.5	91.200	-0.430	1.120	0.690
2020/01/31 05:00:08.6	91.200	-0.480	1.170	0.730
2020/01/31 05:00:08.7	91.190	-0.520	1.200	0.770
2020/01/31 05:00:08.8	91.180	-0.550	1.210	0.800
2020/01/31 05:00:08.9	91.160	-0.580	1.200	0.830
2020/01/31 05:00:09.0	91.150	-0.600	1.180	0.860
2020/01/31 05:00:09.1	91.140	-0.620	1.140	0.880
2020/01/31 05:00:09.2	91.120	-0.620	1.080	0.900
2020/01/31 05:00:09.3	91.110	-0.620	1.010	0.910
2020/01/31 05:00:09.4	91.090	-0.610	0.930	0.920
2020/01/31 05:00:09.5	91.080	-0.600	0.830	0.930
2020/01/31 05:00:09.6	91.060	-0.580	0.720	0.930
2020/01/31 05:00:09.7	91.050	-0.550	0.600	0.930
2020/01/31 05:00:09.8	91.030	-0.520	0.470	0.920
2020/01/31 05:00:09.9	91.020	-0.480	0.330	0.920
2020/01/31 05:00:10.0	91.000	-0.430	0.190	0.910
2020/01/31 05:00:10.1	90.990	-0.380	0.040	0.900
2020/01/31 05:00:10.2	90.980	-0.330	-0.110	0.890
2020/01/31 05:00:10.3	90.960	-0.280	-0.250	0.870
2020/01/31 05:00:10.4	90.950	-0.220	-0.390	0.860
2020/01/31 05:00:10.5	90.930	-0.160	-0.530	0.850
2020/01/31 05:00:10.6	90.920	-0.100	-0.660	0.850
2020/01/31 05:00:10.7	90.900	-0.040	-0.790	0.840
2020/01/31 05:00:10.8	90.890	0.020	-0.900	0.830
2020/01/31 05:00:10.9	90.880	0.080	-1.000	0.830
2020/01/31 05:00:11.0	90.870	0.140	-1.100	0.830
2020/01/31 05:00:11.1	90.850	0.190	-1.170	0.830
2020/01/31 05:00:11.2	90.840	0.250	-1.250	0.830
2020/01/31 05:00:11.3	90.830	0.300	-1.300	0.830
2020/01/31 05:00:11.4	90.820	0.340	-1.340	0.830
2020/01/31 05:00:11.5	90.820	0.390	-1.370	0.830
2020/01/31 05:00:11.6	90.810	0.430	-1.380	0.830
2020/01/31 05:00:11.7	90.810	0.460	-1.380	0.840
2020/01/31 05:00:11.8	90.810	0.490	-1.370	0.840
2020/01/31 05:00:11.9	90.800	0.520	-1.340	0.840
2020/01/31 05:00:12.0	90.810	0.540	-1.310	0.840
2020/01/31 05:00:12.1	90.810	0.560	-1.260	0.830
2020/01/31 05:00:12.2	90.810	0.570	-1.200	0.840
2020/01/31 05:00:12.3	90.820	0.580	-1.130	0.830
2020/01/31 05:00:12.4	90.830	0.590	-1.060	0.830
2020/01/31 05:00:12.5	90.840	0.590	-0.990	0.820
2020/01/31 05:00:12.6	90.850	0.590	-0.910	0.810
2020/01/31 05:00:12.7	90.860	0.590	-0.830	0.800
2020/01/31 05:00:12.8	90.880	0.580	-0.750	0.790
2020/01/31 05:00:12.9	90.900	0.570	-0.670	0.780
2020/01/31 05:00:13.0	90.920	0.560	-0.590	0.760
2020/01/31 05:00:13.1	90.940	0.550	-0.510	0.750
2020/01/31 05:00:13.2	90.960	0.530	-0.440	0.730
2020/01/31 05:00:13.3	90.990	0.520	-0.370	0.710
2020/01/31 05:00:13.4	91.020	0.500	-0.310	0.690
2020/01/31 05:00:13.5	91.040	0.480	-0.250	0.680
2020/01/31 05:00:13.6	91.070	0.470	-0.190	0.660
2020/01/31 05:00:13.7	91.090	0.450	-0.150	0.640
2020/01/31 05:00:13.8	91.120	0.430	-0.100	0.630
2020/01/31 05:00:13.9	91.140	0.410	-0.060	0.610
2020/01/31 05:00:14.0	91.170	0.390	-0.030	0.590
2020/01/31 05:00:14.1	91.190	0.370	-0.000	0.570
2020/01/31 05:00:14.2	91.210	0.350	0.030	0.560
2020/01/31 05:00:14.3	91.230	0.320	0.050	0.540
2020/01/31 05:00:14.4	91.250	0.300	0.070	0.520
2020/01/31 05:00:14.5	91.270	0.270	0.090	0.500
2020/01/31 05:00:14.6	91.290	0.250	0.110	0.470
2020/01/31 05:00:14.7	91.300	0.220	0.130	0.450
2020/01/31 05:00:14.8	91.310	0.190	0.140	0.430
2020/01/31 05:00:14.9	91.330	0.170	0.160	0.410
2020/01/31 05:00:15.0	91.340	0.140	0.180	0.390
2020/01/31 05:00:15.1	91.350	0.110	0.200	0.370
2020/01/31 05:00:15.2	91.360	0.080	0.220	0.350
2020/01/31 05:00:15.3	91.370	0.050	0.250	0.330
2020/01/31 05:00:15.4	91.380	0.010	0.270	0.310
2020/01/31 05:00:15.5	91.390	-0.020	0.300	0.300
2020/01/31 05:00:15.6	91.390	-0.050	0.330	0.280
2020/01/31 05:00:15.7	91.400	-0.080	0.370	0.270
2020/01/31 05:00:15.8	91.410	-0.110	0.400	0.270
2020/01/31 05:00:15.9	91.410	-0.140	0.440	0.260
2020/01/31 05:00:16.0	91.420	-0.170	0.470	0.260
2020/01/31 05:00:16.1	91.420	-0.200	0.510	0.260
2020/01/31 05:00:16.2	91.430	-0.230	0.540	0.270
2020/01/31 05:00:16.3	91.430	-0.260	0.580	0.280
2020/01/31 05:00:16.4	91.440	-0.290	0.610	0.290
2020/01/31 05:00:16.5	91.450	-0.310	0.640	0.300
2020/01/31 05:00:16.6	91.450	-0.340	0.660	0.320
2020/01/31 05:00:16.7	91.460	-0.360	0.680	0.340
2020/01/31 05:00:16.8	91.460	-0.380	0.700	0.360
2020/01/31 05:00:16.9	91.470	-0.390	0.710	0.390
2020/01/31 05:00:17.0	91.480	-0.410	0.710	0.410
2020/01/31 05:00:17.1	91.480	-0.420	0.700	0.440
2020/01/31 05:00:17.2	91.490	-0.430	0.690	0.470
2020/01/31 05:00:17.3	91.500	-0.430	0.670	0.490
2020/01/31 05:00:17.4	91.510	-0.430	0.640	0.520
2020/01/31 05:00:17.5	91.520	-0.430	0.600	0.540
2020/01/31 05:00:17.6	91.540	-0.430	0.550	0.560
2020/01/31 05:00:17.7	91.550	-0.420	0.490	0.590
2020/01/31 05:00:17.8	91.570	-0.410	0.430	0.600
2020/01/31 05:00:17.9	91.580	-0.390	0.350	0.620
2020/01/31 05:00:18.0	91.600	-0.380	0.270	0.630
2020/01/31 05:00:18.1	91.620	-0.360	0.190	0.650
2020/01/31 05:00:18.2	91.640	-0.340	0.090	0.650
2020/01/31 05:00:18.3	91.660	-0.310	-0.010	0.650
2020/01/31 05:00:18.4	91.680	-0.280	-0.120	0.660
2020/01/31 05:00:18.5	91.700	-0.250	-0.230	0.650
2020/01/31 05:00:18.6	91.720	-0.220	-0.340	0.650
2020/01/31 05:00:18.7	91.750	-0.190	-0.450	0.640
2020/01/31 05:00:18.8	91.770	-0.150	-0.570	0.630
2020/01/31 05:00:18.9	91.800	-0.120	-0.680	0.620
2020/01/31 05:00:19.0	91.820	-0.080	-0.790	0.600
2020/01/31 05:00:19.1	91.850	-0.050	-0.890	0.590
2020/01/31 05:00:19.2	91.870	-0.010	-1.000	0.580
2020/01/31 05:00:19.3	91.890	0.020	-1.090	0.570
2020/01/31 05:00:19.4	91.910	0.060	-1.180	0.560
2020/01/31 05:00:19.5	91.930	0.090	-1.260	0.550
2020/01/31 05:00:19.6	91.950	0.120	-1.330	0.550
2020/01/31 05:00:19.7	91.970	0.150	-1.390	0.550
2020/01/31 05:00:19.8	91.980	0.180	-1.430	0.560
2020/01/31 05:00:19.9	91.990	0.210	-1.470	0.560
2020/01/31 05:00:20.0	92.000	0.240	-1.490	0.570
2020/01/31 05:00:20.1	92.010	0.260	-1.500	0.590
2020/01/31 05:00:20.2	92.010	0.280	-1.490	0.600
2020/01/31 05:00:20.3	92.020	0.300	-1.470	0.620
2020/01/31 05:00:20.4	92.020	0.320	-1.450	0.640
2020/01/31 05:00:20.5	92.010	0.330	-1.410	0.660
2020/01/31 05:00:20.6	92.010	0.340	-1.360	0.690
2020/01/31 05:00:20.7	92.000	0.340	-1.290	0.710
2020/01/31 05:00:20.8	91.990	0.350	-1.220	0.740
2020/01/31 05:00:20.9	91.980	0.350	-1.150	0.760
2020/01/31 05:00:21.0	91.960	0.340	-1.060	0.790
2020/01/31 05:00:21.1	91.950	0.340	-0.970	0.810
2020/01/31 05:00:21.2	91.930	0.330	-0.870	0.830
2020/01/31 05:00:21.3	91.910	0.320	-0.770	0.860
2020/01/31 05:00:21.4	91.890	0.300	-0.670	0.880
2020/01/31 05:00:21.5	91.870	0.280	-0.570	0.890
2020/01/31 05:00:21.6	91.850	0.260	-0.460	0.910
2020/01/31 05:00:21.7	91.830	0.240	-0.360	0.930
2020/01/31 05:00:21.8	91.810	0.210	-0.260	0.940
2020/01/31 05:00:21.9	91.790	0.180	-0.160	0.950
2020/01/31 05:00:22.0	91.770	0.150	-0.060	0.950
2020/01/31 05:00:22.1	91.750	0.120	0.030	0.950
2020/01/31 05:00:22.2	91.730	0.090	0.110	0.950
2020/01/31 05:00:22.3	91.710	0.050	0.190	0.950
2020/01/31 05:00:22.4	91.700	0.020	0.270	0.940
2020/01/31 05:00:22.5	91.690	-0.020	0.330	0.920
2020/01/31 05:00:22.6	91.680	-0.050	0.390	0.910
2020/01/31 05:00:22.7	91.680	-0.090	0.450	0.880
2020/01/31 05:00:22.8	91.670	-0.130	0.500	0.860
2020/01/31 05:00:22.9	91.670	-0.170	0.540	0.830
2020/01/31 05:00:23.0	91.670	-0.210	0.580	0.800
2020/01/31 05:00:23.1	91.680	-0.250	0.610	0.770
2020/01/31 05:00:23.2	91.690	-0.280	0.630	0.730
2020/01/31 05:00:23.3	91.690	-0.320	0.650	0.690
2020/01/31 05:00:23.4	91.700	-0.360	0.660	0.650
2020/01/31 05:00:23.5	91.720	-0.390	0.670	0.610
2020/01/31 05:00:23.6	91.730	-0.420	0.680	0.570
2020/01/31 05:00:23.7	91.740	-0.450	0.680	0.520
2020/01/31 05:00:23.8	91.760	-0.480	0.670	0.480
2020/01/31 05:00:23.9	91.770	-0.510	0.660	0.430
2020/01/31 05:00:24.0	91.790	-0.530	0.650	0.390
2020/01/31 05:00:24.1	91.810	-0.550	0.630	0.340
2020/01/31 05:00:24.2	91.820	-0.570	0.610	0.290
2020/01/31 05:00:24.3	91.840	-0.580	0.580	0.250
2020/01/31 05:00:24.4	91.850	-0.590	0.550	0.200
2020/01/31 05:00:24.5	91.870	-0.590	0.520	0.160
2020/01/31 05:00:24.6	91.880	-0.590	0.480	0.120
2020/01/31 05:00:24.7	91.900	-0.590	0.440	0.080
2020/01/31 05:00:24.8	91.920	-0.580	0.390	0.030
2020/01/31 05:00:24.9	91.940	-0.570	0.340	-0.010
2020/01/31 05:00:25.0	91.960	-0.550	0.290	-0.050
2020/01/31 05:00:25.1	91.980	-0.530	0.220	-0.090
2020/01/31 05:00:25.2	92.000	-0.500	0.160	-0.120
2020/01/31 05:00:25.3	92.020	-0.460	0.090	-0.160
2020/01/31 05:00:25.4	92.040	-0.430	0.020	-0.190
2020/01/31 05:00:25.5	92.070	-0.380	-0.060	-0.230
2020/01/31 05:00:25.6	92.090	-0.340	-0.140	-0.260
2020/01/31 05:00:25.7	92.110	-0.290	-0.230	-0.290
2020/01/31 05:00:25.8	92.140	-0.230	-0.310	-0.310
2020/01/31 05:00:25.9	92.160	-0.170	-0.400	-0.340
2020/01/31 05:00:26.0	92.190	-0.110	-0.490	-0.360
2020/01/31 05:00:26.1	92.210	-0.050	-0.580	-0.370
2020/01/31 05:00:26.2	92.230	0.010	-0.670	-0.390
2020/01/31 05:00:26.3	92.250	0.080	-0.760	-0.400
2020/01/31 05:00:26.4	92.280	0.150	-0.850	-0.400
2020/01/31 05:00:26.5	92.300	0.220	-0.940	-0.400
2020/01/31 05:00:26.6	92.320	0.290	-1.020	-0.390
2020/01/31 05:00:26.7	92.340	0.360	-1.100	-0.380
2020/01/31 05:00:26.8	92.360	0.420	-1.170	-0.360
2020/01/31 05:00:26.9	92.370	0.490	-1.240	-0.340
2020/01/31 05:00:27.0	92.390	0.560	-1.300	-0.320
2020/01/31 05:00:27.1	92.400	0.620	-1.360	-0.290
2020/01/31 05:00:27.2	92.400	0.680	-1.400	-0.250
2020/01/31 05:00:27.3	92.400	0.730	-1.440	-0.210
2020/01/31 05:00:27.4	92.410	0.780	-1.470	-0.170
2020/01/31 05:00:27.5	92.410	0.830	-1.490	-0.120
2020/01/31 05:00:27.6	92.400	0.870	-1.490	-0.080
2020/01/31 05:00:27.7	92.400	0.900	-1.490	-0.030
2020/01/31 05:00:27.8	92.390	0.930	-1.470	0.020
2020/01/31 05:00:27.9	92.380	0.950	-1.440	0.070
2020/01/31 05:00:28.0	92.370	0.970	-1.400	0.120
2020/01/31 05:00:28.1	92.350	0.970	-1.340	0.170
2020/01/31 05:00:28.2	92.330	0.970	-1.280	0.220
2020/01/31 05:00:28.3	92.310	0.970	-1.200	0.260
2020/01/31 05:00:28.4	92.290	0.960	-1.110	0.310
2020/01/31 05:00:28.5	92.270	0.940	-1.020	0.340
2020/01/31 05:00:28.6	92.240	0.910	-0.910	0.380
2020/01/31 05:00:28.7	92.220	0.880	-0.790	0.410
2020/01/31 05:00:28.8	92.190	0.840	-0.670	0.440
2020/01/31 05:00:28.9	92.160	0.790	-0.540	0.470
2020/01/31 05:00:29.0	92.130	0.740	-0.410	0.490
2020/01/31 05:00:29.1	92.100	0.690	-0.270	0.520
2020/01/31 05:00:29.2	92.070	0.630	-0.120	0.540
2020/01/31 05:00:29.3	92.030	0.570	0.020	0.550
2020/01/31 05:00:29.4	92.000	0.500	0.170	0.570
2020/01/31 05:00:29.5	91.970	0.430	0.310	0.580
2020/01/31 05:00:29.6	91.940	0.360	0.450	0.600
2020/01/31 05:00:29.7	91.910	0.280	0.580	0.600
2020/01/31 05:00:29.8	91.880	0.210	0.710	0.610
2020/01/31 05:00:29.9	91.850	0.140	0.830	0.620
2020/01/31 05:00:30.0	91.820	0.060	0.940	0.620
2020/01/31 05:00:30.1	91.800	-0.010	1.040	0.620
2020/01/31 05:00:30.2	91.780	-0.080	1.130	0.620
2020/01/31 05:00:30.3	91.760	-0.150	1.210	0.620
2020/01/31 05:00:30.4	91.740	-0.220	1.270	0.620
2020/01/31 05:00:30.5	91.730	-0.280	1.320	0.610
2020/01/31 05:00:30.6	91.720	-0.340	1.360	0.600
2020/01/31 05:00:30.7	91.720	-0.390	1.380	0.590
2020/01/31 05:00:30.8	91.720	-0.440	1.380	0.580
2020/01/31 05:00:30.9	91.720	-0.480	1.370	0.560
2020/01/31 05:00:31.0	91.720	-0.520	1.340	0.550
2020/01/31 05:00:31.1	91.730	-0.550	1.300	0.530
2020/01/31 05:00:31.2	91.740	-0.580	1.240	0.510
2020/01/31 05:00:31.3	91.750	-0.600	1.170	0.480
2020/01/31 05:00:31.4	91.770	-0.610	1.080	0.460
2020/01/31 05:00:31.5	91.790	-0.620	0.980	0.430
2020/01/31 05:00:31.6	91.810	-0.620	0.870	0.410
2020/01/31 05:00:31.7	91.840	-0.620	0.750	0.380
2020/01/31 05:00:31.8	91.870	-0.620	0.630	0.350
2020/01/31 05:00:31.9	91.900	-0.600	0.490	0.320
2020/01/31 05:00:32.0	91.930	-0.590	0.350	0.300
2020/01/31 05:00:32.1	91.960	-0.570	0.210	0.270
2020/01/31 05:00:32.2	92.000	-0.540	0.060	0.240
2020/01/31 05:00:32.3	92.030	-0.520	-0.080	0.220
2020/01/31 05:00:32.4	92.070	-0.490	-0.220	0.200
2020/01/31 05:00:32.5	92.110	-0.460	-0.360	0.180
2020/01/31 05:00:32.6	92.150	-0.420	-0.490	0.160
2020/01/31 05:00:32.7	92.180	-0.390	-0.610	0.150
2020/01/31 05:00:32.8	92.220	-0.360	-0.730	0.140
2020/01/31 05:00:32.9	92.250	-0.320	-0.840	0.130
2020/01/31 05:00:33.0	92.290	-0.290	-0.930	0.130
2020/01/31 05:00:33.1	92.320	-0.250	-1.020	0.130
2020/01/31 05:00:33.2	92.340	-0.220	-1.100	0.140
2020/01/31 05:00:33.3	92.370	-0.190	-1.160	0.150
2020/01/31 05:00:33.4	92.390	-0.160	-1.210	0.170
2020/01/31 05:00:33.5	92.400	-0.130	-1.250	0.190
2020/01/31 05:00:33.6	92.420	-0.110	-1.280	0.220
2020/01/31 05:00:33.7	92.430	-0.090	-1.300	0.250
2020/01/31 05:00:33.8	92.430	-0.070	-1.300	0.280
2020/01/31 05:00:33.9	92.440	-0.060	-1.290	0.320
2020/01/31 05:00:34.0	92.440	-0.040	-1.270	0.350
2020/01/31 05:00:34.1	92.430	-0.040	-1.240	0.390
2020/01/31 05:00:34.2	92.430	-0.030	-1.200	0.440
2020/01/31 05:00:34.3	92.420	-0.030	-1.150	0.480
2020/01/31 05:00:34.4	92.410	-0.030	-1.100	0.530
2020/01/31 05:00:34.5	92.390	-0.040	-1.030	0.580
2020/01/31 05:00:34.6	92.370	-0.040	-0.960	0.630
2020/01/31 05:00:34.7	92.360	-0.050	-0.880	0.680
2020/01/31 05:00:34.8	92.340	-0.060	-0.800	0.730
2020/01/31 05:00:34.9	92.320	-0.080	-0.720	0.780
2020/01/31 05:00:35.0	92.290	-0.090	-0.630	0.830
2020/01/31 05:00:35.1	92.270	-0.110	-0.540	0.880
2020/01/31 05:00:35.2	92.250	-0.130	-0.460	0.930
2020/01/31 05:00:35.3	92.230	-0.150	-0.360	0.980
2020/01/31 05:00:35.4	92.210	-0.170	-0.280	1.020
2020/01/31 05:00:35.5	92.190	-0.190	-0.190	1.060
2020/01/31 05:00:35.6	92.170	-0.220	-0.100	1.100
2020/01/31 05:00:35.7	92.150	-0.240	-0.020	1.140
2020/01/31 05:00:35.8	92.140	-0.260	0.060	1.170
2020/01/31 05:00:35.9	92.120	-0.280	0.130	1.200
2020/01/31 05:00:36.0	92.100	-0.300	0.200	1.220
2020/01/31 05:00:36.1	92.090	-0.320	0.270	1.240
2020/01/31 05:00:36.2	92.060	-0.330	0.330	1.250
2020/01/31 05:00:36.3	92.040	-0.350	0.380	1.270
2020/01/31 05:00:36.4	92.030	-0.360	0.430	1.270
2020/01/31 05:00:36.5	92.010	-0.370	0.460	1.270
2020/01/31 05:00:36.6	92.000	-0.380	0.490	1.270
2020/01/31 05:00:36.7	91.980	-0.380	0.520	1.260
2020/01/31 05:00:36.8	91.970	-0.390	0.530	1.240
2020/01/31 05:00:36.9	91.950	-0.390	0.540	1.220
2020/01/31 05:00:37.0	91.940	-0.390	0.540	1.190
2020/01/31 05:00:37.1	91.930	-0.380	0.530	1.160
2020/01/31 05:00:37.2	91.910	-0.380	0.520	1.130
2020/01/31 05:00:37.3	91.890	-0.360	0.490	1.100
2020/01/31 05:00:37.4	91.880	-0.350	0.460	1.060
2020/01/31 05:00:37.5	91.870	-0.330	0.420	1.020
2020/01/31 05:00:37.6	91.850	-0.310	0.380	0.970
2020/01/31 05:00:37.7	91.840	-0.290	0.330	0.930
2020/01/31 05:00:37.8	91.820	-0.260	0.270	0.880
2020/01/31 05:00:37.9	91.810	-0.230	0.210	0.830
2020/01/31 05:00:38.0	91.800	-0.190	0.140	0.780
2020/01/31 05:00:38.1	91.780	-0.160	0.070	0.740
2020/01/31 05:00:38.2	91.760	-0.120	-0.010	0.680
2020/01/31 05:00:38.3	91.750	-0.080	-0.090	0.640
2020/01/31 05:00:38.4	91.740	-0.030	-0.170	0.590
2020/01/31 05:00:38.5	91.720	0.020	-0.250	0.540
2020/01/31 05:00:38.6	91.710	0.070	-0.340	0.490
2020/01/31 05:00:38.7	91.690	0.120	-0.420	0.450
2020/01/31 05:00:38.8	91.680	0.170	-0.510	0.400
2020/01/31 05:00:38.9	91.670	0.230	-0.590	0.360
2020/01/31 05:00:39.0	91.660	0.280	-0.680	0.320
2020/01/31 05:00:39.1	91.640	0.340	-0.760	0.280
2020/01/31 05:00:39.2	91.630	0.400	-0.840	0.240
2020/01/31 05:00:39.3	91.620	0.450	-0.920	0.200
2020/01/31 05:00:39.4	91.610	0.510	-0.990	0.170
2020/01/31 05:00:39.5	91.610	0.560	-1.060	0.130
2020/01/31 05:00:39.6	91.600	0.620	-1.120	0.100
2020/01/31 05:00:39.7	91.600	0.670	-1.180	0.070
2020/01/31 05:00:39.8	91.590	0.710	-1.230	0.050
2020/01/31 05:00:39.9	91.590	0.760	-1.270	0.030
2020/01/31 05:00:40.0	91.590	0.800	-1.310	0.010
2020/01/31 05:00:40.1	91.590	0.840	-1.330	-0.000
2020/01/31 05:00:40.2	91.600	0.870	-1.350	-0.020
2020/01/31 05:00:40.3	91.600	0.900	-1.350	-0.020
2020/01/31 05:00:40.4	91.610	0.920	-1.340	-0.030
2020/01/31 05:00:40.5	91.610	0.940	-1.330	-0.020
2020/01/31 05:00:40.6	91.620	0.950	-1.300	-0.020
2020/01/31 05:00:40.7	91.640	0.950	-1.260	-0.010
2020/01/31 05:00:40.8	91.650	0.950	-1.200	-0.000
2020/01/31 05:00:40.9	91.670	0.940	-1.140	0.010
2020/01/31 05:00:41.0	91.680	0.930	-1.070	0.020
2020/01/31 05:00:41.1	91.700	0.900	-0.990	0.040
2020/01/31 05:00:41.2	91.710	0.880	-0.890	0.060
2020/01/31 05:00:41.3	91.740	0.840	-0.800	0.080
2020/01/31 05:00:41.4	91.760	0.800	-0.690	0.100
2020/01/31 05:00:41.5	91.790	0.760	-0.580	0.120
2020/01/31 05:00:41.6	91.810	0.710	-0.460	0.140
2020/01/31 05:00:41.7	91.840	0.650	-0.340	0.160
2020/01/31 05:00:41.8	91.870	0.590	-0.220	0.180
2020/01/31 05:00:41.9	91.890	0.530	-0.090	0.200
2020/01/31 05:00:42.0	91.920	0.460	0.030	0.220
2020/01/31 05:00:42.1	91.950	0.390	0.160	0.240
2020/01/31 05:00:42.2	91.980	0.320	0.290	0.260
2020/01/31 05:00:42.3	92.000	0.250	0.410	0.280
2020/01/31 05:00:42.4	92.030	0.170	0.520	0.310
2020/01/31 05:00:42.5	92.050	0.100	0.630	0.330
2020/01/31 05:00:42.6	92.070	0.030	0.730	0.360
2020/01/31 05:00:42.7	92.100	-0.050	0.830	0.400
2020/01/31 05:00:42.8	92.120	-0.120	0.910	0.430
2020/01/31 05:00:42.9	92.130	-0.180	0.990	0.470
2020/01/31 05:00:43.0	92.150	-0.250	1.060	0.510
2020/01/31 05:00:43.1	92.160	-0.310	1.110	0.550
2020/01/31 05:00:43.2	92.180	-0.360	1.150	0.600
2020/01/31 05:00:43.3	92.190	-0.410	1.180	0.650
2020/01/31 05:00:43.4	92.190	-0.460	1.200	0.700
2020/01/31 05:00:43.5	92.200	-0.500	1.210	0.750
2020/01/31 05:00:43.6	92.210	-0.540	1.200	0.800
2020/01/31 05:00:43.7	92.210	-0.570	1.180	0.850
2020/01/31 05:00:43.8	92.210	-0.590	1.150	0.900
2020/01/31 05:00:43.9	92.210	-0.610	1.110	0.950
2020/01/31 05:00:44.0	92.210	-0.630	1.050	1.000
2020/01/31 05:00:44.1	92.210	-0.630	0.990	1.050
2020/01/31 05:00:44.2	92.210	-0.640	0.910	1.100
2020/01/31 05:00:44.3	92.200	-0.630	0.820	1.140
2020/01/31 05:00:44.4	92.200	-0.620	0.730	1.180
2020/01/31 05:00:44.5	92.190	-0.610	0.630	1.220
2020/01/31 05:00:44.6	92.190	-0.590	0.520	1.250
2020/01/31 05:00:44.7	92.180	-0.570	0.410	1.280
2020/01/31 05:00:44.8	92.170	-0.540	0.290	1.300
2020/01/31 05:00:44.9	92.160	-0.510	0.170	1.330
2020/01/31 05:00:45.0	92.150	-0.480	0.050	1.350
2020/01/31 05:00:45.1	92.140	-0.440	-0.070	1.360
2020/01/31 05:00:45.2	92.120	-0.410	-0.190	1.380
2020/01/31 05:00:45.3	92.110	-0.370	-0.310	1.380
2020/01/31 05:00:45.4	92.100	-0.330	-0.420	1.390
2020/01/31 05:00:45.5	92.080	-0.290	-0.530	1.390
2020/01/31 05:00:45.6	92.070	-0.250	-0.630	1.390
2020/01/31 05:00:45.7	92.060	-0.210	-0.730	1.390
2020/01/31 05:00:45.8	92.040	-0.170	-0.810	1.390
2020/01/31 05:00:45.9	92.030	-0.130	-0.890	1.380
2020/01/31 05:00:46.0	92.020	-0.100	-0.960	1.370
2020/01/31 05:00:46.1	92.020	-0.070	-1.020	1.360
2020/01/31 05:00:46.2	92.020	-0.040	-1.060	1.350
2020/01/31 05:00:46.3	92.010	-0.010	-1.100	1.340
2020/01/31 05:00:46.4	92.010	0.010	-1.130	1.330
2020/01/31 05:00:46.5	92.010	0.030	-1.140	1.320
2020/01/31 05:00:46.6	92.010	0.050	-1.150	1.300
2020/01/31 05:00:46.7	92.020	0.060	-1.140	1.290
2020/01/31 05:00:46.8	92.030	0.070	-1.130	1.270
2020/01/31 05:00:46.9	92.040	0.070	-1.100	1.250
2020/01/31 05:00:47.0	92.050	0.080	-1.070	1.230
2020/01/31 05:00:47.1	92.060	0.080	-1.030	1.210
2020/01/31 05:00:47.2	92.080	0.070	-0.990	1.190
2020/01/31 05:00:47.3	92.100	0.070	-0.930	1.160
2020/01/31 05:00:47.4	92.120	0.060	-0.880	1.130
2020/01/31 05:00:47.5	92.140	0.050	-0.820	1.100
2020/01/31 05:00:47.6	92.170	0.040	-0.760	1.060
2020/01/31 05:00:47.7	92.190	0.020	-0.700	1.030
2020/01/31 05:00:47.8	92.220	0.010	-0.630	0.990
2020/01/31 05:00:47.9	92.250	-0.010	-0.570	0.950
2020/01/31 05:00:48.0	92.270	-0.020	-0.510	0.910
2020/01/31 05:00:48.1	92.300	-0.040	-0.450	0.860
2020/01/31 05:00:48.2	92.330	-0.050	-0.400	0.820
2020/01/31 05:00:48.3	92.360	-0.060	-0.350	0.780
2020/01/31 05:00:48.4	92.390	-0.070	-0.300	0.740
2020/01/31 05:00:48.5	92.420	-0.080	-0.260	0.690
2020/01/31 05:00:48.6	92.440	-0.090	-0.220	0.650
2020/01/31 05:00:48.7	92.470	-0.100	-0.190	0.620
2020/01/31 05:00:48.8	92.490	-0.100	-0.170	0.580
2020/01/31 05:00:48.9	92.510	-0.100	-0.140	0.550
2020/01/31 05:00:49.0	92.530	-0.100	-0.130	0.520
2020/01/31 05:00:49.1	92.550	-0.100	-0.110	0.490
2020/01/31 05:00:49.2	92.550	-0.100	-0.110	0.470
2020/01/31 05:00:49.3	92.560	-0.100	-0.100	0.450
2020/01/31 05:00:49.4	92.570	-0.090	-0.090	0.440
2020/01/31 05:00:49.5	92.570	-0.090	-0.090	0.430
2020/01/31 05:00:49.6	92.570	-0.090	-0.080	0.430
2020/01/31 05:00:49.7	92.570	-0.080	-0.080	0.430
2020/01/31 05:00:49.8	92.570	-0.080	-0.070	0.430
2020/01/31 05:00:49.9	92.560	-0.080	-0.070	0.440
2020/01/31 05:00:50.0	92.550	-0.070	-0.060	0.450
2020/01/31 05:00:50.1	92.540	-0.070	-0.050	0.460
2020/01/31 05:00:50.2	92.520	-0.070	-0.050	0.470
2020/01/31 05:00:50.3	92.500	-0.070	-0.040	0.480
2020/01/31 05:00:50.4	92.480	-0.080	-0.030	0.490
2020/01/31 05:00:50.5	92.460	-0.080	-0.010	0.510
2020/01/31 05:00:50.6	92.440	-0.090	0.000	0.520
2020/01/31 05:00:50.7	92.420	-0.100	0.020	0.530
2020/01/31 05:00:50.8	92.400	-0.110	0.030	0.540
2020/01/31 05:00:50.9	92.370	-0.120	0.050	0.540
2020/01/31 05:00:51.0	92.350	-0.130	0.070	0.550
2020/01/31 05:00:51.1	92.330	-0.140	0.090	0.560
2020/01/31 05:00:51.2	92.310	-0.150	0.110	0.560
2020/01/31 05:00:51.3	92.280	-0.170	0.130	0.570
2020/01/31 05:00:51.4	92.260	-0.180	0.140	0.570
2020/01/31 05:00:51.5	92.240	-0.190	0.160	0.570
2020/01/31 05:00:51.6	92.230	-0.200	0.180	0.570
2020/01/31 05:00:51.7	92.210	-0.210	0.190	0.570
2020/01/31 05:00:51.8	92.190	-0.220	0.200	0.570
2020/01/31 05:00:51.9	92.180	-0.230	0.210	0.560
2020/01/31 05:00:52.0	92.160	-0.240	0.220	0.560
2020/01/31 05:00:52.1	92.150	-0.250	0.220	0.550
2020/01/31 05:00:52.2	92.150	-0.250	0.220	0.540
2020/01/31 05:00:52.3	92.140	-0.250	0.210	0.540
2020/01/31 05:00:52.4	92.130	-0.250	0.200	0.530
2020/01/31 05:00:52.5	92.120	-0.240	0.190	0.520
2020/01/31 05:00:52.6	92.120	-0.230	0.170	0.510
2020/01/31 05:00:52.7	92.120	-0.220	0.140	0.500
2020/01/31 05:00:52.8	92.120	-0.210	0.110	0.490
2020/01/31 05:00:52.9	92.120	-0.190	0.080	0.470
2020/01/31 05:00:53.0	92.120	-0.170	0.030	0.460
2020/01/31 05:00:53.1	92.120	-0.150	-0.010	0.450
2020/01/31 05:00:53.2	92.130	-0.120	-0.060	0.430
2020/01/31 05:00:53.3	92.140	-0.090	-0.120	0.410
2020/01/31 05:00:53.4	92.140	-0.050	-0.180	0.390
2020/01/31 05:00:53.5	92.150	-0.020	-0.250	0.370
2020/01/31 05:00:53.6	92.150	0.020	-0.310	0.350
2020/01/31 05:00:53.7	92.160	0.060	-0.390	0.330
2020/01/31 05:00:53.8	92.170	0.100	-0.460	0.300
2020/01/31 05:00:53.9	92.170	0.150	-0.530	0.280
2020/01/31 05:00:54.0	92.180	0.190	-0.610	0.250
2020/01/31 05:00:54.1	92.180	0.240	-0.680	0.230
2020/01/31 05:00:54.2	92.190	0.280	-0.750	0.200
2020/01/31 05:00:54.3	92.190	0.330	-0.820	0.180
2020/01/31 05:00:54.4	92.190	0.370	-0.880	0.160
2020/01/31 05:00:54.5	92.190	0.410	-0.940	0.140
2020/01/31 05:00:54.6	92.190	0.450	-0.990	0.130
2020/01/31 05:00:54.7	92.180	0.490	-1.030	0.110
2020/01/31 05:00:54.8	92.180	0.520	-1.070	0.100
2020/01/31 05:00:54.9	92.170	0.550	-1.090	0.090
2020/01/31 05:00:55.0	92.170	0.580	-1.110	0.090
2020/01/31 05:00:55.1	92.160	0.600	-1.110	0.090
2020/01/31 05:00:55.2	92.140	0.620	-1.100	0.090
2020/01/31 05:00:55.3	92.130	0.630	-1.090	0.100
2020/01/31 05:00:55.4	92.130	0.640	-1.060	0.110
2020/01/31 05:00:55.5	92.110	0.640	-1.030	0.120
2020/01/31 05:00:55.6	92.100	0.630	-0.980	0.140
2020/01/31 05:00:55.7	92.090	0.630	-0.920	0.170
2020/01/31 05:00:55.8	92.080	0.610	-0.860	0.190
2020/01/31 05:00:55.9	92.070	0.590	-0.780	0.220
2020/01/31 05:00:56.0	92.060	0.570	-0.700	0.260
2020/01/31 05:00:56.1	92.050	0.540	-0.610	0.290
2020/01/31 05:00:56.2	92.050	0.500	-0.510	0.330
2020/01/31 05:00:56.3	92.040	0.460	-0.410	0.360
2020/01/31 05:00:56.4	92.030	0.420	-0.300	0.400
2020/01/31 05:00:56.5	92.020	0.380	-0.200	0.430
2020/01/31 05:00:56.6	92.020	0.330	-0.090	0.470
2020/01/31 05:00:56.7	92.020	0.280	0.020	0.500
2020/01/31 05:00:56.8	92.010	0.220	0.130	0.530
2020/01/31 05:00:56.9	92.010	0.170	0.230	0.550
2020/01/31 05:00:57.0	92.020	0.110	0.330	0.580
2020/01/31 05:00:57.1	92.020	0.050	0.420	0.600
2020/01/31 05:00:57.2	92.020	-0.000	0.510	0.620
2020/01/31 05:00:57.3	92.020	-0.060	0.590	0.630
2020/01/31 05:00:57.4	92.030	-0.110	0.660	0.650
2020/01/31 05:00:57.5	92.040	-0.170	0.730	0.660
2020/01/31 05:00:57.6	92.040	-0.220	0.780	0.670
2020/01/31 05:00:57.7	92.050	-0.260	0.820	0.670
2020/01/31 05:00:57.8	92.060	-0.310	0.850	0.680
2020/01/31 05:00:57.9	92.060	-0.350	0.870	0.680
2020/01/31 05:00:58.0	92.070	-0.380	0.880	0.690
2020/01/31 05:00:58.1	92.080	-0.420	0.870	0.690
2020/01/31 05:00:58.2	92.090	-0.440	0.850	0.690
2020/01/31 05:00:58.3	92.090	-0.460	0.830	0.690
2020/01/31 05:00:58.4	92.090	-0.480	0.790	0.690
2020/01/31 05:00:58.5	92.090	-0.490	0.740	0.700
2020/01/31 05:00:58.6	92.090	-0.500	0.680	0.700
2020/01/31 05:00:58.7	92.090	-0.500	0.610	0.700
2020/01/31 05:00:58.8	92.090	-0.490	0.530	0.710
2020/01/31 05:00:58.9	92.090	-0.490	0.450	0.710
2020/01/31 05:00:59.0	92.090	-0.470	0.350	0.720
2020/01/31 05:00:59.1	92.090	-0.450	0.250	0.720
2020/01/31 05:00:59.2	92.090	-0.430	0.150	0.730
2020/01/31 05:00:59.3	92.090	-0.410	0.040	0.740
2020/01/31 05:00:59.4	92.090	-0.380	-0.070	0.740
2020/01/31 05:00:59.5	92.080	-0.340	-0.180	0.750
2020/01/31 05:00:59.6	92.080	-0.310	-0.290	0.760
2020/01/31 05:00:59.7	92.080	-0.270	-0.390	0.780
2020/01/31 05:00:59.8	92.070	-0.230	-0.500	0.790
2020/01/31 05:00:59.9	92.070	-0.190	-0.600	0.800
2020/01/31 05:01:00.0	92.060	-0.150	-0.700	0.820
2020/01/31 05:01:00.1	92.050	-0.110	-0.790	0.840
2020/01/31 05:01:00.2	92.040	-0.070	-0.870	0.860
2020/01/31 05:01:00.3	92.030	-0.040	-0.940	0.880
2020/01/31 05:01:00.4	92.020	0.000	-1.010	0.900
2020/01/31 05:01:00.5	92.010	0.040	-1.060	0.920
2020/01/31 05:01:00.6	91.990	0.070	-1.110	0.950
2020/01/31 05:01:00.7	91.970	0.100	-1.150	0.970
2020/01/31 05:01:00.8	91.960	0.130	-1.170	1.000
2020/01/31 05:01:00.9	91.940	0.150	-1.180	1.020
2020/01/31 05:01:01.0	91.920	0.170	-1.190	1.040
2020/01/31 05:01:01.1	91.900	0.190	-1.180	1.060
2020/01/31 05:01:01.2	91.880	0.200	-1.160	1.080
2020/01/31 05:01:01.3	91.860	0.210	-1.130	1.100
2020/01/31 05:01:01.4	91.840	0.220	-1.090	1.110
2020/01/31 05:01:01.5	91.810	0.220	-1.040	1.120
2020/01/31 05:01:01.6	91.790	0.210	-0.990	1.130
2020/01/31 05:01:01.7	91.770	0.210	-0.920	1.130
2020/01/31 05:01:01.8	91.750	0.190	-0.850	1.140
2020/01/31 05:01:01.9	91.730	0.180	-0.770	1.140
2020/01/31 05:01:02.0	91.710	0.160	-0.690	1.130
2020/01/31 05:01:02.1	91.690	0.140	-0.600	1.130
2020/01/31 05:01:02.2	91.680	0.110	-0.510	1.120
2020/01/31 05:01:02.3	91.660	0.080	-0.420	1.110
2020/01/31 05:01:02.4	91.640	0.060	-0.320	1.100
2020/01/31 05:01:02.5	91.630	0.020	-0.230	1.090
2020/01/31 05:01:02.6	91.620	-0.010	-0.130	1.080
2020/01/31 05:01:02.7	91.610	-0.040	-0.040	1.070
2020/01/31 05:01:02.8	91.600	-0.080	0.050	1.060
2020/01/31 05:01:02.9	91.590	-0.110	0.140	1.040
2020/01/31 05:01:03.0	91.580	-0.150	0.220	1.030
2020/01/31 05:01:03.1	91.580	-0.180	0.300	1.020
2020/01/31 05:01:03.2	91.570	-0.210	0.370	1.000
2020/01/31 05:01:03.3	91.570	-0.240	0.440	0.990
2020/01/31 05:01:03.4	91.570	-0.270	0.490	0.980
2020/01/31 05:01:03.5	91.570	-0.300	0.540	0.960
2020/01/31 05:01:03.6	91.570	-0.330	0.580	0.950
2020/01/31 05:01:03.7	91.570	-0.350	0.610	0.930
2020/01/31 05:01:03.8	91.570	-0.370	0.640	0.920
2020/01/31 05:01:03.9	91.570	-0.380	0.650	0.900
2020/01/31 05:01:04.0	91.570	-0.400	0.650	0.890
2020/01/31 05:01:04.1	91.570	-0.410	0.650	0.870
2020/01/31 05:01:04.2	91.570	-0.410	0.630	0.860
2020/01/31 05:01:04.3	91.570	-0.420	0.600	0.840
2020/01/31 05:01:04.4	91.570	-0.420	0.570	0.820
2020/01/31 05:01:04.5	91.570	-0.410	0.530	0.800
2020/01/31 05:01:04.6	91.570	-0.400	0.480	0.780
2020/01/31 05:01:04.7	91.570	-0.390	0.420	0.750
2020/01/31 05:01:04.8	91.570	-0.380	0.360	0.730
2020/01/31 05:01:04.9	91.570	-0.360	0.290	0.710
2020/01/31 05:01:05.0	91.560	-0.340	0.210	0.690
2020/01/31 05:01:05.1	91.560	-0.310	0.140	0.670
2020/01/31 05:01:05.2	91.560	-0.290	0.050	0.640
2020/01/31 05:01:05.3	91.550	-0.260	-0.030	0.620
2020/01/31 05:01:05.4	91.550	-0.230	-0.120	0.600
2020/01/31 05:01:05.5	91.550	-0.190	-0.210	0.590
2020/01/31 05:01:05.6	91.540	-0.160	-0.300	0.570
2020/01/31 05:01:05.7	91.530	-0.120	-0.380	0.560
2020/01/31 05:01:05.8	91.520	-0.080	-0.470	0.550
2020/01/31 05:01:05.9	91.520	-0.040	-0.550	0.530
2020/01/31 05:01:06.0	91.510	-0.010	-0.630	0.530
2020/01/31 05:01:06.1	91.500	0.030	-0.710	0.520
2020/01/31 05:01:06.2	91.490	0.070	-0.780	0.510
2020/01/31 05:01:06.3	91.480	0.110	-0.850	0.500
2020/01/31 05:01:06.4	91.470	0.140	-0.900	0.500
2020/01/31 05:01:06.5	91.460	0.170	-0.950	0.490
2020/01/31 05:01:06.6	91.450	0.210	-1.000	0.490
2020/01/31 05:01:06.7	91.440	0.240	-1.030	0.490
2020/01/31 05:01:06.8	91.430	0.260	-1.050	0.490
2020/01/31 05:01:06.9	91.430	0.290	-1.070	0.490
2020/01/31 05:01:07.0	91.420	0.310	-1.070	0.490
2020/01/31 05:01:07.1	91.410	0.320	-1.070	0.500
2020/01/31 05:01:07.2	91.400	0.340	-1.050	0.500
2020/01/31 05:01:07.3	91.390	0.350	-1.020	0.510
2020/01/31 05:01:07.4	91.390	0.350	-0.990	0.520
2020/01/31 05:01:07.5	91.380	0.360	-0.940	0.540
2020/01/31 05:01:07.6	91.380	0.360	-0.890	0.550
2020/01/31 05:01:07.7	91.370	0.350	-0.830	0.570
2020/01/31 05:01:07.8	91.370	0.340	-0.760	0.590
2020/01/31 05:01:07.9	91.370	0.330	-0.680	0.620
2020/01/31 05:01:08.0	91.370	0.310	-0.590	0.650
2020/01/31 05:01:08.1	91.370	0.290	-0.500	0.670
2020/01/31 05:01:08.2	91.360	0.270	-0.400	0.700
2020/01/31 05:01:08.3	91.360	0.240	-0.310	0.740
2020/01/31 05:01:08.4	91.360	0.210	-0.200	0.770
2020/01/31 05:01:08.5	91.360	0.170	-0.100	0.800
2020/01/31 05:01:08.6	91.360	0.140	0.000	0.830
2020/01/31 05:01:08.7	91.360	0.100	0.110	0.870
2020/01/31 05:01:08.8	91.360	0.060	0.210	0.900
2020/01/31 05:01:08.9	91.370	0.020	0.310	0.930
2020/01/31 05:01:09.0	91.370	-0.020	0.400	0.960
2020/01/31 05:01:09.1	91.370	-0.070	0.490	0.990
2020/01/31 05:01:09.2	91.380	-0.110	0.570	1.020
2020/01/31 05:01:09.3	91.390	-0.150	0.640	1.040
2020/01/31 05:01:09.4	91.390	-0.190	0.710	1.060
2020/01/31 05:01:09.5	91.390	-0.230	0.760	1.080
2020/01/31 05:01:09.6	91.400	-0.260	0.810	1.090
2020/01/31 05:01:09.7	91.400	-0.290	0.840	1.100
2020/01/31 05:01:09.8	91.410	-0.320	0.870	1.110
2020/01/31 05:01:09.9	91.410	-0.350	0.870	1.110
2020/01/31 05:01:10.0	91.420	-0.370	0.870	1.110
2020/01/31 05:01:10.1	91.420	-0.380	0.860	1.110
2020/01/31 05:01:10.2	91.430	-0.390	0.830	1.100
2020/01/31 05:01:10.3	91.440	-0.390	0.780	1.090
2020/01/31 05:01:10.4	91.440	-0.390	0.730	1.080
2020/01/31 05:01:10.5	91.450	-0.380	0.660	1.070
2020/01/31 05:01:10.6	91.450	-0.370	0.590	1.060
2020/01/31 05:01:10.7	91.450	-0.350	0.500	1.040
2020/01/31 05:01:10.8	91.460	-0.320	0.410	1.030
2020/01/31 05:01:10.9	91.460	-0.290	0.310	1.010
2020/01/31 05:01:11.0	91.450	-0.260	0.200	1.000
2020/01/31 05:01:11.1	91.450	-0.220	0.080	0.990
2020/01/31 05:01:11.2	91.450	-0.180	-0.040	0.980
2020/01/31 05:01:11.3	91.440	-0.140	-0.160	0.970
2020/01/31 05:01:11.4	91.430	-0.090	-0.270	0.970
2020/01/31 05:01:11.5	91.420	-0.040	-0.390	0.970
2020/01/31 05:01:11.6	91.400	0.010	-0.510	0.980
2020/01/31 05:01:11.7	91.390	0.060	-0.620	0.980
2020/01/31 05:01:11.8	91.370	0.110	-0.730	0.990
2020/01/31 05:01:11.9	91.350	0.160	-0.830	1.000
2020/01/31 05:01:12.0	91.330	0.210	-0.930	1.010
2020/01/31 05:01:12.1	91.320	0.250	-1.020	1.030
2020/01/31 05:01:12.2	91.300	0.300	-1.100	1.040
2020/01/31 05:01:12.3	91.280	0.340	-1.170	1.050
2020/01/31 05:01:12.4	91.260	0.380	-1.240	1.060
2020/01/31 05:01:12.5	91.240	0.410	-1.290	1.060
2020/01/31 05:01:12.6	91.220	0.440	-1.330	1.070
2020/01/31 05:01:12.7	91.200	0.460	-1.360	1.070
2020/01/31 05:01:12.8	91.180	0.490	-1.380	1.070
2020/01/31 05:01:12.9	91.160	0.500	-1.390	1.070
2020/01/31 05:01:13.0	91.150	0.510	-1.390	1.060
2020/01/31 05:01:13.1	91.130	0.520	-1.380	1.050
2020/01/31 05:01:13.2	91.110	0.520	-1.350	1.030
2020/01/31 05:01:13.3	91.100	0.520	-1.320	1.020
2020/01/31 05:01:13.4	91.080	0.520	-1.280	1.000
2020/01/31 05:01:13.5	91.070	0.510	-1.230	0.980
2020/01/31 05:01:13.6	91.060	0.490	-1.170	0.960
2020/01/31 05:01:13.7	91.040	0.480	-1.110	0.930
2020/01/31 05:01:13.8	91.030	0.460	-1.040	0.910
2020/01/31 05:01:13.9	91.020	0.430	-0.960	0.890
2020/01/31 05:01:14.0	91.010	0.410	-0.880	0.870
2020/01/31 05:01:14.1	91.000	0.380	-0.790	0.850
2020/01/31 05:01:14.2	90.990	0.350	-0.700	0.820
2020/01/31 05:01:14.3	90.980	0.320	-0.610	0.810
2020/01/31 05:01:14.4	90.980	0.300	-0.510	0.790
2020/01/31 05:01:14.5	90.970	0.270	-0.420	0.780
2020/01/31 05:01:14.6	90.960	0.240	-0.320	0.770
2020/01/31 05:01:14.7	90.960	0.210	-0.230	0.760
2020/01/31 05:01:14.8	90.960	0.180	-0.140	0.760
2020/01/31 05:01:14.9	90.960	0.150	-0.050	0.750
2020/01/31 05:01:15.0	90.960	0.120	0.040	0.750
2020/01/31 05:01:15.1	90.960	0.100	0.120	0.750
2020/01/31 05:01:15.2	90.960	0.080	0.210	0.750
2020/01/31 05:01:15.3	90.960	0.050	0.280	0.750
2020/01/31 05:01:15.4	90.960	0.030	0.340	0.750
2020/01/31 05:01:15.5	90.970	0.020	0.400	0.760
2020/01/31 05:01:15.6	90.980	0.000	0.450	0.760
2020/01/31 05:01:15.7	90.980	-0.010	0.500	0.750
2020/01/31 05:01:15.8	90.990	-0.020	0.530	0.750
2020/01/31 05:01:15.9	91.000	-0.030	0.560	0.750
2020/01/31 05:01:16.0	91.000	-0.040	0.580	0.750
2020/01/31 05:01:16.1	91.010	-0.050	0.590	0.740
2020/01/31 05:01:16.2	91.020	-0.050	0.600	0.730
2020/01/31 05:01:16.3	91.020	-0.060	0.600	0.730
2020/01/31 05:01:16.4	91.030	-0.060	0.590	0.720
2020/01/31 05:01:16.5	91.040	-0.070	0.580	0.710
2020/01/31 05:01:16.6	91.040	-0.070	0.560	0.700
2020/01/31 05:01:16.7	91.040	-0.070	0.540	0.690
2020/01/31 05:01:16.8	91.040	-0.080	0.510	0.680
2020/01/31 05:01:16.9	91.040	-0.080	0.480	0.670
2020/01/31 05:01:17.0	91.040	-0.090	0.450	0.660
2020/01/31 05:01:17.1	91.040	-0.090	0.410	0.650
2020/01/31 05:01:17.2	91.040	-0.100	0.370	0.640
2020/01/31 05:01:17.3	91.030	-0.110	0.330	0.640
2020/01/31 05:01:17.4	91.030	-0.120	0.280	0.630
2020/01/31 05:01:17.5	91.020	-0.120	0.240	0.630
2020/01/31 05:01:17.6	91.010	-0.130	0.190	0.620
2020/01/31 05:01:17.7	91.010	-0.150	0.140	0.620
2020/01/31 05:01:17.8	91.000	-0.160	0.090	0.630
2020/01/31 05:01:17.9	90.990	-0.170	0.040	0.630
2020/01/31 05:01:18.0	90.980	-0.180	-0.010	0.630
2020/01/31 05:01:18.1	90.980	-0.200	-0.050	0.640
2020/01/31 05:01:18.2	90.980	-0.210	-0.100	0.650
2020/01/31 05:01:18.3	90.970	-0.230	-0.150	0.660
2020/01/31 05:01:18.4	90.960	-0.240	-0.190	0.670
2020/01/31 05:01:18.5	90.960	-0.260	-0.240	0.690
2020/01/31 05:01:18.6	90.950	-0.270	-0.280	0.700
2020/01/31 05:01:18.7	90.940	-0.290	-0.320	0.720
2020/01/31 05:01:18.8	90.940	-0.300	-0.350	0.730
2020/01/31 05:01:18.9	90.930	-0.320	-0.380	0.750
2020/01/31 05:01:19.0	90.930	-0.330	-0.410	0.770
2020/01/31 05:01:19.1	90.930	-0.350	-0.440	0.790
2020/01/31 05:01:19.2	90.930	-0.360	-0.460	0.810
2020/01/31 05:01:19.3	90.930	-0.370	-0.480	0.830
2020/01/31 05:01:19.4	90.920	-0.380	-0.490	0.850
2020/01/31 05:01:19.5	90.920	-0.400	-0.500	0.870
2020/01/31 05:01:19.6	90.920	-0.410	-0.500	0.900
2020/01/31 05:01:19.7	90.920	-0.420	-0.510	0.920
2020/01/31 05:01:19.8	90.920	-0.420	-0.500	0.940
2020/01/31 05:01:19.9	90.930	-0.430	-0.490	0.970
2020/01/31 05:01:20.0	90.930	-0.440	-0.480	0.990
2020/01/31 05:01:20.1	90.920	-0.450	-0.470	1.020
2020/01/31 05:01:20.2	90.920	-0.450	-0.450	1.050
2020/01/31 05:01:20.3	90.910	-0.450	-0.430	1.070
2020/01/31 05:01:20.4	90.910	-0.460	-0.400	1.100
2020/01/31 05:01:20.5	90.900	-0.460	-0.370	1.130
2020/01/31 05:01:20.6	90.890	-0.460	-0.340	1.150
2020/01/31 05:01:20.7	90.880	-0.460	-0.310	1.180
2020/01/31 05:01:20.8	90.860	-0.470	-0.270	1.200
2020/01/31 05:01:20.9	90.850	-0.470	-0.240	1.230
2020/01/31 05:01:21.0	90.830	-0.470	-0.200	1.250
2020/01/31 05:01:21.1	90.810	-0.460	-0.160	1.270
2020/01/31 05:01:21.2	90.790	-0.460	-0.120	1.280
2020/01/31 05:01:21.3	90.770	-0.460	-0.090	1.300
2020/01/31 05:01:21.4	90.750	-0.460	-0.050	1.310
2020/01/31 05:01:21.5	90.720	-0.450	-0.020	1.320
2020/01/31 05:01:21.6	90.690	-0.450	0.010	1.330
2020/01/31 05:01:21.7	90.670	-0.440	0.040	1.340
2020/01/31 05:01:21.8	90.640	-0.430	0.070	1.340
2020/01/31 05:01:21.9	90.610	-0.420	0.090	1.340
2020/01/31 05:01:22.0	90.580	-0.400	0.100	1.340
2020/01/31 05:01:22.1	90.550	-0.390	0.110	1.330
2020/01/31 05:01:22.2	90.530	-0.370	0.120	1.320
2020/01/31 05:01:22.3	90.500	-0.350	0.110	1.300
2020/01/31 05:01:22.4	90.480	-0.330	0.100	1.280
2020/01/31 05:01:22.5	90.460	-0.300	0.080	1.260
2020/01/31 05:01:22.6	90.440	-0.270	0.060	1.240
2020/01/31 05:01:22.7	90.420	-0.230	0.030	1.210
2020/01/31 05:01:22.8	90.410	-0.190	-0.020	1.180
2020/01/31 05:01:22.9	90.400	-0.150	-0.070	1.140
2020/01/31 05:01:23.0	90.390	-0.110	-0.120	1.110
2020/01/31 05:01:23.1	90.390	-0.060	-0.180	1.070
2020/01/31 05:01:23.2	90.380	-0.010	-0.250	1.030
2020/01/31 05:01:23.3	90.380	0.040	-0.320	0.990
2020/01/31 05:01:23.4	90.380	0.100	-0.390	0.950
2020/01/31 05:01:23.5	90.390	0.160	-0.470	0.910
2020/01/31 05:01:23.6	90.390	0.210	-0.550	0.870
2020/01/31 05:01:23.7	90.400	0.270	-0.620	0.840
2020/01/31 05:01:23.8	90.410	0.330	-0.700	0.800
2020/01/31 05:01:23.9	90.420	0.390	-0.770	0.770
2020/01/31 05:01:24.0	90.430	0.440	-0.840	0.730
2020/01/31 05:01:24.1	90.440	0.490	-0.910	0.700
2020/01/31 05:01:24.2	90.440	0.550	-0.970	0.670
2020/01/31 05:01:24.3	90.450	0.590	-1.020	0.640
2020/01/31 05:01:24.4	90.460	0.640	-1.070	0.610
2020/01/31 05:01:24.5	90.460	0.680	-1.100	0.580
2020/01/31 05:01:24.6	90.470	0.720	-1.130	0.550
2020/01/31 05:01:24.7	90.470	0.750	-1.150	0.530
2020/01/31 05:01:24.8	90.480	0.780	-1.160	0.500
2020/01/31 05:01:24.9	90.480	0.800	-1.160	0.470
2020/01/31 05:01:25.0	90.480	0.820	-1.150	0.450
2020/01/31 05:01:25.1	90.480	0.830	-1.130	0.430
2020/01/31 05:01:25.2	90.470	0.830	-1.100	0.410
2020/01/31 05:01:25.3	90.460	0.830	-1.060	0.390
2020/01/31 05:01:25.4	90.460	0.820	-1.010	0.380
2020/01/31 05:01:25.5	90.440	0.810	-0.950	0.360
2020/01/31 05:01:25.6	90.430	0.790	-0.890	0.350
2020/01/31 05:01:25.7	90.420	0.770	-0.810	0.340
2020/01/31 05:01:25.8	90.400	0.740	-0.730	0.340
2020/01/31 05:01:25.9	90.370	0.700	-0.640	0.340
2020/01/31 05:01:26.0	90.350	0.670	-0.540	0.340
2020/01/31 05:01:26.1	90.320	0.620	-0.440	0.350
2020/01/31 05:01:26.2	90.300	0.580	-0.320	0.360
2020/01/31 05:01:26.3	90.270	0.520	-0.210	0.380
2020/01/31 05:01:26.4	90.240	0.470	-0.100	0.400
2020/01/31 05:01:26.5	90.200	0.410	0.020	0.420
2020/01/31 05:01:26.6	90.170	0.350	0.130	0.450
2020/01/31 05:01:26.7	90.130	0.290	0.250	0.480
2020/01/31 05:01:26.8	90.090	0.230	0.360	0.510
2020/01/31 05:01:26.9	90.050	0.160	0.470	0.550
2020/01/31 05:01:27.0	90.010	0.090	0.580	0.580
2020/01/31 05:01:27.1	89.980	0.030	0.680	0.620
2020/01/31 05:01:27.2	89.940	-0.040	0.780	0.660
2020/01/31 05:01:27.3	89.900	-0.100	0.860	0.700
2020/01/31 05:01:27.4	89.870	-0.170	0.940	0.730
2020/01/31 05:01:27.5	89.840	-0.230	1.000	0.760
2020/01/31 05:01:27.6	89.810	-0.280	1.060	0.800
2020/01/31 05:01:27.7	89.780	-0.340	1.100	0.830
2020/01/31 05:01:27.8	89.760	-0.390	1.130	0.850
2020/01/31 05:01:27.9	89.740	-0.430	1.150	0.870
2020/01/31 05:01:28.0	89.730	-0.470	1.150	0.890
2020/01/31 05:01:28.1	89.720	-0.510	1.140	0.900
2020/01/31 05:01:28.2	89.720	-0.540	1.110	0.910
2020/01/31 05:01:28.3	89.720	-0.560	1.070	0.910
2020/01/31 05:01:28.4	89.720	-0.570	1.010	0.900
2020/01/31 05:01:28.5	89.730	-0.580	0.940	0.890
2020/01/31 05:01:28.6	89.750	-0.580	0.860	0.870
2020/01/31 05:01:28.7	89.770	-0.580	0.760	0.850
2020/01/31 05:01:28.8	89.790	-0.570	0.660	0.820
2020/01/31 05:01:28.9	89.820	-0.550	0.540	0.780
2020/01/31 05:01:29.0	89.850	-0.520	0.410	0.750
2020/01/31 05:01:29.1	89.880	-0.490	0.280	0.710
2020/01/31 05:01:29.2	89.920	-0.450	0.140	0.660
2020/01/31 05:01:29.3	89.960	-0.410	0.000	0.620
2020/01/31 05:01:29.4	89.990	-0.360	-0.140	0.580
2020/01/31 05:01:29.5	90.030	-0.310	-0.290	0.550
2020/01/31 05:01:29.6	90.060	-0.250	-0.430	0.510
2020/01/31 05:01:29.7	90.090	-0.190	-0.570	0.490
2020/01/31 05:01:29.8	90.120	-0.130	-0.700	0.470
2020/01/31 05:01:29.9	90.150	-0.070	-0.820	0.450
2020/01/31 05:01:30.0	90.170	-0.000	-0.940	0.440
2020/01/31 05:01:30.1	90.190	0.060	-1.050	0.440
2020/01/31 05:01:30.2	90.200	0.130	-1.140	0.440
2020/01/31 05:01:30.3	90.210	0.190	-1.230	0.450
2020/01/31 05:01:30.4	90.220	0.250	-1.300	0.470
2020/01/31 05:01:30.5	90.220	0.310	-1.350	0.490
2020/01/31 05:01:30.6	90.220	0.370	-1.400	0.520
2020/01/31 05:01:30.7	90.210	0.420	-1.420	0.560
2020/01/31 05:01:30.8	90.200	0.460	-1.440	0.600
2020/01/31 05:01:30.9	90.180	0.500	-1.430	0.640
2020/01/31 05:01:31.0	90.170	0.540	-1.420	0.690
2020/01/31 05:01:31.1	90.140	0.570	-1.390	0.730
2020/01/31 05:01:31.2	90.120	0.590	-1.350	0.790
2020/01/31 05:01:31.3	90.090	0.600	-1.300	0.830
2020/01/31 05:01:31.4	90.070	0.610	-1.230	0.880
2020/01/31 05:01:31.5	90.040	0.610	-1.160	0.930
2020/01/31 05:01:31.6	90.010	0.600	-1.080	0.980
2020/01/31 05:01:31.7	89.980	0.590	-0.990	1.030
2020/01/31 05:01:31.8	89.950	0.570	-0.900	1.070
2020/01/31 05:01:31.9	89.920	0.540	-0.800	1.110
2020/01/31 05:01:32.0	89.890	0.510	-0.700	1.150
2020/01/31 05:01:32.1	89.870	0.470	-0.590	1.190
2020/01/31 05:01:32.2	89.840	0.430	-0.480	1.230
2020/01/31 05:01:32.3	89.810	0.380	-0.370	1.260
2020/01/31 05:01:32.4	89.790	0.330	-0.270	1.290
2020/01/31 05:01:32.5	89.770	0.270	-0.170	1.310
2020/01/31 05:01:32.6	89.750	0.210	-0.070	1.330
2020/01/31 05:01:32.7	89.730	0.150	0.020	1.350
2020/01/31 05:01:32.8	89.710	0.090	0.110	1.360
2020/01/31 05:01:32.9	89.700	0.030	0.190	1.370
2020/01/31 05:01:33.0	89.690	-0.030	0.260	1.380
2020/01/31 05:01:33.1	89.680	-0.090	0.330	1.380
2020/01/31 05:01:33.2	89.670	-0.150	0.390	1.370
2020/01/31 05:01:33.3	89.670	-0.210	0.440	1.370
2020/01/31 05:01:33.4	89.660	-0.260	0.480	1.360
2020/01/31 05:01:33.5	89.660	-0.320	0.520	1.350
2020/01/31 05:01:33.6	89.660	-0.360	0.540	1.330
2020/01/31 05:01:33.7	89.660	-0.410	0.550	1.320
2020/01/31 05:01:33.8	89.670	-0.450	0.560	1.300
2020/01/31 05:01:33.9	89.670	-0.480	0.560	1.280
2020/01/31 05:01:34.0	89.670	-0.510	0.550	1.260
2020/01/31 05:01:34.1	89.680	-0.540	0.540	1.230
2020/01/31 05:01:34.2	89.690	-0.560	0.510	1.200
2020/01/31 05:01:34.3	89.700	-0.570	0.480	1.170
2020/01/31 05:01:34.4	89.710	-0.580	0.450	1.140
2020/01/31 05:01:34.5	89.720	-0.590	0.410	1.100
2020/01/31 05:01:34.6	89.730	-0.590	0.360	1.060
2020/01/31 05:01:34.7	89.740	-0.590	0.310	1.010
2020/01/31 05:01:34.8	89.750	-0.580	0.260	0.970
2020/01/31 05:01:34.9	89.770	-0.570	0.200	0.920
2020/01/31 05:01:35.0	89.780	-0.550	0.140	0.880
2020/01/31 05:01:35.1	89.800	-0.530	0.080	0.830
2020/01/31 05:01:35.2	89.820	-0.510	0.020	0.780
2020/01/31 05:01:35.3	89.840	-0.490	-0.040	0.740
2020/01/31 05:01:35.4	89.860	-0.460	-0.110	0.690
2020/01/31 05:01:35.5	89.880	-0.430	-0.170	0.650
2020/01/31 05:01:35.6	89.900	-0.390	-0.240	0.610
2020/01/31 05:01:35.7	89.910	-0.360	-0.300	0.570
2020/01/31 05:01:35.8	89.930	-0.320	-0.370	0.540
2020/01/31 05:01:35.9	89.950	-0.280	-0.430	0.500
2020/01/31 05:01:36.0	89.970	-0.250	-0.490	0.480
2020/01/31 05:01:36.1	89.980	-0.210	-0.540	0.450
2020/01/31 05:01:36.2	90.000	-0.170	-0.590	0.430
2020/01/31 05:01:36.3	90.010	-0.130	-0.640	0.420
2020/01/31 05:01:36.4	90.020	-0.100	-0.680	0.410
2020/01/31 05:01:36.5	90.030	-0.060	-0.720	0.410
2020/01/31 05:01:36.6	90.040	-0.030	-0.750	0.410
2020/01/31 05:01:36.7	90.050	-0.010	-0.770	0.420
2020/01/31 05:01:36.8	90.060	0.020	-0.780	0.430
2020/01/31 05:01:36.9	90.060	0.040	-0.790	0.440
2020/01/31 05:01:37.0	90.060	0.060	-0.790	0.460
2020/01/31 05:01:37.1	90.060	0.070	-0.780	0.480
2020/01/31 05:01:37.2	90.060	0.080	-0.770	0.510
2020/01/31 05:01:37.3	90.060	0.090	-0.740	0.530
2020/01/31 05:01:37.4	90.060	0.090	-0.710	0.560
2020/01/31 05:01:37.5	90.050	0.080	-0.670	0.580
2020/01/31 05:01:37.6	90.050	0.080	-0.630	0.610
2020/01/31 05:01:37.7	90.040	0.070	-0.580	0.640
2020/01/31 05:01:37.8	90.030	0.050	-0.520	0.660
2020/01/31 05:01:37.9	90.020	0.040	-0.460	0.690
2020/01/31 05:01:38.0	90.020	0.010	-0.400	0.710
2020/01/31 05:01:38.1	90.000	-0.010	-0.330	0.730
2020/01/31 05:01:38.2	89.990	-0.030	-0.250	0.750
2020/01/31 05:01:38.3	89.980	-0.060	-0.190	0.770
2020/01/31 05:01:38.4	89.970	-0.090	-0.120	0.780
2020/01/31 05:01:38.5	89.950	-0.110	-0.050	0.790
2020/01/31 05:01:38.6	89.940	-0.140	0.010	0.800
2020/01/31 05:01:38.7	89.930	-0.170	0.070	0.800
2020/01/31 05:01:38.8	89.910	-0.190	0.130	0.800
2020/01/31 05:01:38.9	89.900	-0.220	0.170	0.790
2020/01/31 05:01:39.0	89.880	-0.240	0.220	0.780
2020/01/31 05:01:39.1	89.870	-0.250	0.250	0.770
2020/01/31 05:01:39.2	89.850	-0.270	0.280	0.750
2020/01/31 05:01:39.3	89.840	-0.280	0.300	0.730
2020/01/31 05:01:39.4	89.820	-0.280	0.310	0.710
2020/01/31 05:01:39.5	89.810	-0.280	0.310	0.680
2020/01/31 05:01:39.6	89.800	-0.280	0.300	0.650
2020/01/31 05:01:39.7	89.780	-0.270	0.290	0.620
2020/01/31 05:01:39.8	89.770	-0.260	0.260	0.590
2020/01/31 05:01:39.9	89.750	-0.240	0.230	0.560
2020/01/31 05:01:40.0	89.740	-0.210	0.180	0.530
2020/01/31 05:01:40.1	89.720	-0.190	0.140	0.500
2020/01/31 05:01:40.2	89.720	-0.160	0.080	0.460
2020/01/31 05:01:40.3	89.700	-0.120	0.030	0.430
2020/01/31 05:01:40.4	89.690	-0.090	-0.030	0.400
2020/01/31 05:01:40.5	89.670	-0.050	-0.100	0.370
2020/01/31 05:01:40.6	89.660	-0.010	-0.160	0.350
2020/01/31 05:01:40.7	89.650	0.030	-0.220	0.320
2020/01/31 05:01:40.8	89.640	0.070	-0.280	0.290
2020/01/31 05:01:40.9	89.640	0.110	-0.340	0.270
2020/01/31 05:01:41.0	89.640	0.150	-0.390	0.250
2020/01/31 05:01:41.1	89.630	0.190	-0.440	0.230
2020/01/31 05:01:41.2	89.640	0.220	-0.490	0.210
2020/01/31 05:01:41.3	89.640	0.250	-0.530	0.190
2020/01/31 05:01:41.4	89.650	0.280	-0.560	0.180
2020/01/31 05:01:41.5	89.660	0.310	-0.590	0.170
2020/01/31 05:01:41.6	89.670	0.330	-0.610	0.160
2020/01/31 05:01:41.7	89.680	0.350	-0.620	0.150
2020/01/31 05:01:41.8	89.690	0.360	-0.630	0.140
2020/01/31 05:01:41.9	89.710	0.370	-0.630	0.140
2020/01/31 05:01:42.0	89.730	0.380	-0.620	0.140
2020/01/31 05:01:42.1	89.750	0.380	-0.600	0.130
2020/01/31 05:01:42.2	89.770	0.380	-0.580	0.130
2020/01/31 05:01:42.3	89.800	0.370	-0.560	0.130
2020/01/31 05:01:42.4	89.820	0.360	-0.520	0.130
2020/01/31 05:01:42.5	89.850	0.350	-0.490	0.140
2020/01/31 05:01:42.6	89.870	0.330	-0.450	0.140
2020/01/31 05:01:42.7	89.900	0.310	-0.400	0.150
2020/01/31 05:01:42.8	89.920	0.290	-0.350	0.150
2020/01/31 05:01:42.9	89.950	0.270	-0.300	0.160
2020/01/31 05:01:43.0	89.970	0.240	-0.240	0.170
2020/01/31 05:01:43.1	89.990	0.210	-0.180	0.190
2020/01/31 05:01:43.2	90.020	0.180	-0.130	0.200
2020/01/31 05:01:43.3	90.040	0.160	-0.070	0.220
2020/01/31 05:01:43.4	90.070	0.130	-0.010	0.240
2020/01/31 05:01:43.5	90.090	0.100	0.050	0.260
2020/01/31 05:01:43.6	90.110	0.080	0.100	0.280
2020/01/31 05:01:43.7	90.130	0.050	0.150	0.310
2020/01/31 05:01:43.8	90.140	0.030	0.190	0.330
2020/01/31 05:01:43.9	90.160	0.010	0.230	0.360
2020/01/31 05:01:44.0	90.180	-0.010	0.270	0.400
2020/01/31 05:01:44.1	90.190	-0.030	0.290	0.430
2020/01/31 05:01:44.2	90.200	-0.040	0.320	0.470
2020/01/31 05:01:44.3	90.210	-0.050	0.330	0.500
2020/01/31 05:01:44.4	90.230	-0.060	0.340	0.540
2020/01/31 05:01:44.5	90.240	-0.060	0.330	0.590
2020/01/31 05:01:44.6	90.240	-0.060	0.320	0.630
2020/01/31 05:01:44.7	90.250	-0.060	0.300	0.670
2020/01/31 05:01:44.8	90.260	-0.060	0.270	0.720
2020/01/31 05:01:44.9	90.260	-0.050	0.240	0.770
2020/01/31 05:01:45.0	90.260	-0.040	0.200	0.820
2020/01/31 05:01:45.1	90.260	-0.030	0.160	0.870
2020/01/31 05:01:45.2	90.250	-0.020	0.100	0.920
2020/01/31 05:01:45.3	90.240	-0.010	0.040	0.960
2020/01/31 05:01:45.4	90.240	0.000	-0.020	1.010
2020/01/31 05:01:45.5	90.230	0.020	-0.080	1.050
2020/01/31 05:01:45.6	90.230	0.030	-0.150	1.100
2020/01/31 05:01:45.7	90.220	0.050	-0.220	1.130
2020/01/31 05:01:45.8	90.210	0.060	-0.290	1.170
2020/01/31 05:01:45.9	90.200	0.070	-0.360	1.190
2020/01/31 05:01:46.0	90.200	0.090	-0.430	1.220
2020/01/31 05:01:46.1	90.190	0.100	-0.500	1.230
2020/01/31 05:01:46.2	90.180	0.110	-0.570	1.240
2020/01/31 05:01:46.3	90.180	0.130	-0.630	1.250
2020/01/31 05:01:46.4	90.180	0.140	-0.680	1.250
2020/01/31 05:01:46.5	90.180	0.150	-0.740	1.240
2020/01/31 05:01:46.6	90.170	0.150	-0.780	1.230
2020/01/31 05:01:46.7	90.170	0.160	-0.820	1.220
2020/01/31 05:01:46.8	90.180	0.170	-0.850	1.200
2020/01/31 05:01:46.9	90.180	0.170	-0.870	1.180
2020/01/31 05:01:47.0	90.180	0.170	-0.890	1.150
2020/01/31 05:01:47.1	90.190	0.180	-0.890	1.130
2020/01/31 05:01:47.2	90.190	0.180	-0.890	1.100
2020/01/31 05:01:47.3	90.190	0.180	-0.880	1.070
2020/01/31 05:01:47.4	90.200	0.170	-0.860	1.050
2020/01/31 05:01:47.5	90.200	0.170	-0.830	1.020
2020/01/31 05:01:47.6	90.200	0.170	-0.790	1.000
2020/01/31 05:01:47.7	90.200	0.160	-0.750	0.980
2020/01/31 05:01:47.8	90.200	0.150	-0.700	0.960
2020/01/31 05:01:47.9	90.200	0.150	-0.640	0.940
2020/01/31 05:01:48.0	90.200	0.140	-0.580	0.920
2020/01/31 05:01:48.1	90.200	0.120	-0.520	0.910
2020/01/31 05:01:48.2	90.190	0.110	-0.450	0.900
2020/01/31 05:01:48.3	90.190	0.100	-0.380	0.880
2020/01/31 05:01:48.4	90.180	0.080	-0.300	0.880
2020/01/31 05:01:48.5	90.180	0.070	-0.230	0.870
2020/01/31 05:01:48.6	90.180	0.050	-0.160	0.860
2020/01/31 05:01:48.7	90.170	0.030	-0.090	0.860
2020/01/31 05:01:48.8	90.170	0.010	-0.020	0.850
2020/01/31 05:01:48.9	90.160	-0.010	0.040	0.850
2020/01/31 05:01:49.0	90.160	-0.030	0.100	0.850
2020/01/31 05:01:49.1	90.160	-0.050	0.160	0.850
2020/01/31 05:01:49.2	90.160	-0.070	0.210	0.850
2020/01/31 05:01:49.3	90.160	-0.090	0.250	0.840
2020/01/31 05:01:49.4	90.160	-0.110	0.280	0.840
2020/01/31 05:01:49.5	90.170	-0.120	0.310	0.840
2020/01/31 05:01:49.6	90.170	-0.140	0.320	0.840
2020/01/31 05:01:49.7	90.180	-0.160	0.330	0.840
2020/01/31 05:01:49.8	90.190	-0.170	0.330	0.830
2020/01/31 05:01:49.9	90.200	-0.180	0.320	0.830
2020/01/31 05:01:50.0	90.220	-0.190	0.310	0.820
2020/01/31 05:01:50.1	90.230	-0.200	0.280	0.810
2020/01/31 05:01:50.2	90.250	-0.200	0.250	0.800
2020/01/31 05:01:50.3	90.270	-0.210	0.210	0.790
2020/01/31 05:01:50.4	90.290	-0.210	0.160	0.780
2020/01/31 05:01:50.5	90.320	-0.210	0.100	0.760
2020/01/31 05:01:50.6	90.340	-0.200	0.040	0.750
2020/01/31 05:01:50.7	90.360	-0.200	-0.020	0.730
2020/01/31 05:01:50.8	90.390	-0.190	-0.080	0.710
2020/01/31 05:01:50.9	90.420	-0.180	-0.150	0.680
2020/01/31 05:01:51.0	90.440	-0.170	-0.220	0.660
2020/01/31 05:01:51.1	90.470	-0.160	-0.290	0.630
2020/01/31 05:01:51.2	90.490	-0.150	-0.360	0.610
2020/01/31 05:01:51.3	90.520	-0.130	-0.420	0.580
2020/01/31 05:01:51.4	90.540	-0.120	-0.470	0.560
2020/01/31 05:01:51.5	90.570	-0.110	-0.520	0.530
2020/01/31 05:01:51.6	90.590	-0.090	-0.570	0.510
2020/01/31 05:01:51.7	90.610	-0.080	-0.610	0.490
2020/01/31 05:01:51.8	90.620	-0.070	-0.640	0.480
2020/01/31 05:01:51.9	90.630	-0.060	-0.660	0.460
2020/01/31 05:01:52.0	90.640	-0.050	-0.670	0.450
2020/01/31 05:01:52.1	90.650	-0.040	-0.680	0.450
2020/01/31 05:01:52.2	90.660	-0.040	-0.670	0.450
2020/01/31 05:01:52.3	90.660	-0.030	-0.660	0.450
2020/01/31 05:01:52.4	90.660	-0.030	-0.650	0.460
2020/01/31 05:01:52.5	90.650	-0.030	-0.620	0.470
2020/01/31 05:01:52.6	90.640	-0.030	-0.590	0.480
2020/01/31 05:01:52.7	90.630	-0.030	-0.550	0.500
2020/01/31 05:01:52.8	90.620	-0.040	-0.510	0.520
2020/01/31 05:01:52.9	90.610	-0.050	-0.460	0.540
2020/01/31 05:01:53.0	90.590	-0.060	-0.410	0.570
2020/01/31 05:01:53.1	90.570	-0.070	-0.350	0.590
2020/01/31 05:01:53.2	90.560	-0.080	-0.290	0.620
2020/01/31 05:01:53.3	90.540	-0.090	-0.230	0.650
2020/01/31 05:01:53.4	90.520	-0.110	-0.170	0.680
2020/01/31 05:01:53.5	90.500	-0.120	-0.110	0.700
2020/01/31 05:01:53.6	90.490	-0.140	-0.060	0.720
2020/01/31 05:01:53.7	90.470	-0.160	0.000	0.740
2020/01/31 05:01:53.8	90.450	-0.180	0.050	0.760
2020/01/31 05:01:53.9	90.440	-0.190	0.100	0.780
2020/01/31 05:01:54.0	90.420	-0.210	0.150	0.790
2020/01/31 05:01:54.1	90.410	-0.230	0.190	0.790
2020/01/31 05:01:54.2	90.390	-0.240	0.230	0.800
2020/01/31 05:01:54.3	90.390	-0.260	0.260	0.800
2020/01/31 05:01:54.4	90.390	-0.270	0.290	0.800
2020/01/31 05:01:54.5	90.380	-0.280	0.300	0.790
2020/01/31 05:01:54.6	90.390	-0.280	0.320	0.780
2020/01/31 05:01:54.7	90.390	-0.290	0.320	0.770
2020/01/31 05:01:54.8	90.400	-0.290	0.320	0.750
2020/01/31 05:01:54.9	90.410	-0.290	0.320	0.740
2020/01/31 05:01:55.0	90.430	-0.290	0.310	0.710
2020/01/31 05:01:55.1	90.440	-0.280	0.290	0.690
2020/01/31 05:01:55.2	90.460	-0.270	0.260	0.670
2020/01/31 05:01:55.3	90.490	-0.260	0.230	0.640
2020/01/31 05:01:55.4	90.510	-0.240	0.200	0.610
2020/01/31 05:01:55.5	90.530	-0.220	0.170	0.590
2020/01/31 05:01:55.6	90.560	-0.200	0.130	0.560
2020/01/31 05:01:55.7	90.580	-0.180	0.090	0.530
2020/01/31 05:01:55.8	90.610	-0.160	0.040	0.510
2020/01/31 05:01:55.9	90.630	-0.130	-0.000	0.480
2020/01/31 05:01:56.0	90.660	-0.100	-0.050	0.460
2020/01/31 05:01:56.1	90.680	-0.080	-0.100	0.430
2020/01/31 05:01:56.2	90.690	-0.050	-0.140	0.410
2020/01/31 05:01:56.3	90.710	-0.020	-0.190	0.380
2020/01/31 05:01:56.4	90.730	0.010	-0.240	0.360
2020/01/31 05:01:56.5	90.750	0.040	-0.280	0.340
2020/01/31 05:01:56.6	90.760	0.070	-0.330	0.320
2020/01/31 05:01:56.7	90.780	0.100	-0.370	0.300
2020/01/31 05:01:56.8	90.790	0.130	-0.410	0.280
2020/01/31 05:01:56.9	90.800	0.160	-0.450	0.260
2020/01/31 05:01:57.0	90.810	0.190	-0.490	0.240
2020/01/31 05:01:57.1	90.820	0.220	-0.530	0.230
2020/01/31 05:01:57.2	90.840	0.240	-0.560	0.220
2020/01/31 05:01:57.3	90.850	0.270	-0.590	0.210
2020/01/31 05:01:57.4	90.850	0.290	-0.620	0.200
2020/01/31 05:01:57.5	90.860	0.310	-0.640	0.190
2020/01/31 05:01:57.6	90.860	0.330	-0.660	0.190
2020/01/31 05:01:57.7	90.870	0.340	-0.670	0.190
2020/01/31 05:01:57.8	90.870	0.360	-0.690	0.200
2020/01/31 05:01:57.9	90.870	0.370	-0.700	0.210
2020/01/31 05:01:58.0	90.880	0.380	-0.700	0.220
2020/01/31 05:01:58.1	90.880	0.380	-0.710	0.240
2020/01/31 05:01:58.2	90.880	0.390	-0.700	0.260
2020/01/31 05:01:58.3	90.880	0.390	-0.700	0.280
2020/01/31 05:01:58.4	90.880	0.390	-0.690	0.310
2020/01/31 05:01:58.5	90.880	0.390	-0.680	0.340
2020/01/31 05:01:58.6	90.880	0.380	-0.660	0.380
2020/01/31 05:01:58.7	90.870	0.380	-0.640	0.420
2020/01/31 05:01:58.8	90.870	0.370	-0.620	0.460
2020/01/31 05:01:58.9	90.860	0.360	-0.600	0.500
2020/01/31 05:01:59.0	90.860	0.340	-0.570	0.540
2020/01/31 05:01:59.1	90.850	0.330	-0.530	0.590
2020/01/31 05:01:59.2	90.840	0.310	-0.500	0.640
2020/01/31 05:01:59.3	90.820	0.290	-0.460	0.680
2020/01/31 05:01:59.4	90.810	0.270	-0.420	0.720
2020/01/31 05:01:59.5	90.790	0.240	-0.370	0.760
2020/01/31 05:01:59.6	90.780	0.220	-0.330	0.800
2020/01/31 05:01:59.7	90.760	0.190	-0.280	0.840
2020/01/31 05:01:59.8	90.740	0.160	-0.230	0.870
2020/01/31 05:01:59.9	90.720	0.130	-0.180	0.900
2020/01/31 05:02:00.0	90.700	0.100	-0.120	0.920
2020/01/31 05:02:00.1	90.680	0.070	-0.070	0.940
2020/01/31 05:02:00.2	90.640	0.040	-0.020	0.950
2020/01/31 05:02:00.3	90.620	0.010	0.030	0.960
2020/01/31 05:02:00.4	90.600	-0.020	0.080	0.970
2020/01/31 05:02:00.5	90.580	-0.050	0.120	0.970
2020/01/31 05:02:00.6	90.560	-0.080	0.170	0.960
2020/01/31 05:02:00.7	90.550	-0.110	0.200	0.950
2020/01/31 05:02:00.8	90.530	-0.130	0.240	0.940
2020/01/31 05:02:00.9	90.520	-0.150	0.270	0.920
2020/01/31 05:02:01.0	90.510	-0.170	0.290	0.900
2020/01/31 05:02:01.1	90.500	-0.190	0.310	0.870
2020/01/31 05:02:01.2	90.490	-0.210	0.320	0.840
2020/01/31 05:02:01.3	90.490	-0.220	0.330	0.810
2020/01/31 05:02:01.4	90.490	-0.230	0.330	0.780
2020/01/31 05:02:01.5	90.490	-0.240	0.320	0.740
2020/01/31 05:02:01.6	90.490	-0.240	0.310	0.700
2020/01/31 05:02:01.7	90.500	-0.240	0.290	0.660
2020/01/31 05:02:01.8	90.510	-0.230	0.270	0.620
2020/01/31 05:02:01.9	90.520	-0.230	0.240	0.580
2020/01/31 05:02:02.0	90.530	-0.220	0.200	0.540
2020/01/31 05:02:02.1	90.540	-0.200	0.160	0.500
2020/01/31 05:02:02.2	90.550	-0.190	0.120	0.450
2020/01/31 05:02:02.3	90.570	-0.170	0.070	0.410
2020/01/31 05:02:02.4	90.590	-0.150	0.010	0.370
2020/01/31 05:02:02.5	90.610	-0.120	-0.040	0.320
2020/01/31 05:02:02.6	90.630	-0.100	-0.100	0.280
2020/01/31 05:02:02.7	90.650	-0.070	-0.160	0.240
2020/01/31 05:02:02.8	90.670	-0.040	-0.220	0.210
2020/01/31 05:02:02.9	90.700	-0.010	-0.280	0.170
2020/01/31 05:02:03.0	90.720	0.020	-0.340	0.140
2020/01/31 05:02:03.1	90.750	0.050	-0.400	0.120
2020/01/31 05:02:03.2	90.760	0.080	-0.460	0.090
2020/01/31 05:02:03.3	90.790	0.100	-0.510	0.070
2020/01/31 05:02:03.4	90.810	0.130	-0.560	0.060
2020/01/31 05:02:03.5	90.830	0.160	-0.600	0.050
2020/01/31 05:02:03.6	90.850	0.190	-0.640	0.040
2020/01/31 05:02:03.7	90.870	0.210	-0.680	0.040
2020/01/31 05:02:03.8	90.890	0.240	-0.710	0.040
2020/01/31 05:02:03.9	90.910	0.260	-0.730	0.050
2020/01/31 05:02:04.0	90.930	0.270	-0.750	0.060
2020/01/31 05:02:04.1	90.950	0.290	-0.770	0.080
2020/01/31 05:02:04.2	90.960	0.300	-0.770	0.100
2020/01/31 05:02:04.3	90.980	0.310	-0.780	0.110
2020/01/31 05:02:04.4	91.000	0.320	-0.780	0.140
2020/01/31 05:02:04.5	91.020	0.320	-0.770	0.160
2020/01/31 05:02:04.6	91.030	0.330	-0.770	0.180
2020/01/31 05:02:04.7	91.050	0.320	-0.750	0.210
2020/01/31 05:02:04.8	91.060	0.320	-0.740	0.230
2020/01/31 05:02:04.9	91.080	0.310	-0.720	0.260
2020/01/31 05:02:05.0	91.100	0.310	-0.700	0.290
2020/01/31 05:02:05.1	91.110	0.290	-0.680	0.310
2020/01/31 05:02:05.2	91.130	0.280	-0.660	0.340
2020/01/31 05:02:05.3	91.150	0.260	-0.630	0.370
2020/01/31 05:02:05.4	91.160	0.240	-0.600	0.400
2020/01/31 05:02:05.5	91.170	0.220	-0.580	0.430
2020/01/31 05:02:05.6	91.180	0.200	-0.540	0.470
2020/01/31 05:02:05.7	91.190	0.180	-0.510	0.510
2020/01/31 05:02:05.8	91.190	0.150	-0.470	0.550
2020/01/31 05:02:05.9	91.190	0.130	-0.440	0.590
2020/01/31 05:02:06.0	91.190	0.100	-0.400	0.630
2020/01/31 05:02:06.1	91.180	0.070	-0.350	0.680
2020/01/31 05:02:06.2	91.170	0.040	-0.310	0.730
2020/01/31 05:02:06.3	91.160	0.000	-0.260	0.780
2020/01/31 05:02:06.4	91.140	-0.030	-0.210	0.830
2020/01/31 05:02:06.5	91.120	-0.060	-0.160	0.880
2020/01/31 05:02:06.6	91.100	-0.090	-0.110	0.930
2020/01/31 05:02:06.7	91.070	-0.120	-0.050	0.980
2020/01/31 05:02:06.8	91.040	-0.160	0.000	1.030
2020/01/31 05:02:06.9	91.010	-0.190	0.060	1.080
2020/01/31 05:02:07.0	90.980	-0.220	0.110	1.130
2020/01/31 05:02:07.1	90.950	-0.250	0.160	1.170
2020/01/31 05:02:07.2	90.920	-0.280	0.220	1.220
2020/01/31 05:02:07.3	90.890	-0.300	0.260	1.260
2020/01/31 05:02:07.4	90.860	-0.330	0.310	1.290
2020/01/31 05:02:07.5	90.830	-0.350	0.340	1.320
2020/01/31 05:02:07.6	90.800	-0.370	0.380	1.350
2020/01/31 05:02:07.7	90.770	-0.390	0.400	1.360
2020/01/31 05:02:07.8	90.740	-0.400	0.430	1.380
2020/01/31 05:02:07.9	90.720	-0.420	0.440	1.390
2020/01/31 05:02:08.0	90.700	-0.420	0.440	1.390
2020/01/31 05:02:08.1	90.680	-0.430	0.440	1.380
2020/01/31 05:02:08.2	90.650	-0.430	0.430	1.370
2020/01/31 05:02:08.3	90.640	-0.430	0.420	1.360
2020/01/31 05:02:08.4	90.620	-0.420	0.390	1.340
2020/01/31 05:02:08.5	90.610	-0.420	0.360	1.320
2020/01/31 05:02:08.6	90.600	-0.410	0.320	1.290
2020/01/31 05:02:08.7	90.590	-0.390	0.270	1.270
2020/01/31 05:02:08.8	90.580	-0.380	0.220	1.240
2020/01/31 05:02:08.9	90.570	-0.360	0.160	1.210
2020/01/31 05:02:09.0	90.560	-0.340	0.100	1.170
2020/01/31 05:02:09.1	90.560	-0.320	0.040	1.130
2020/01/31 05:02:09.2	90.560	-0.290	-0.030	1.090
2020/01/31 05:02:09.3	90.560	-0.270	-0.090	1.050
2020/01/31 05:02:09.4	90.560	-0.250	-0.160	1.000
2020/01/31 05:02:09.5	90.570	-0.220	-0.220	0.940
2020/01/31 05:02:09.6	90.570	-0.200	-0.280	0.890
2020/01/31 05:02:09.7	90.590	-0.180	-0.330	0.830
2020/01/31 05:02:09.8	90.600	-0.150	-0.390	0.780
2020/01/31 05:02:09.9	90.620	-0.130	-0.430	0.720
2020/01/31 05:02:10.0	90.640	-0.110	-0.470	0.660
2020/01/31 05:02:10.1	90.660	-0.090	-0.510	0.600
2020/01/31 05:02:10.2	90.670	-0.070	-0.540	0.540
2020/01/31 05:02:10.3	90.700	-0.050	-0.560	0.490
2020/01/31 05:02:10.4	90.730	-0.040	-0.580	0.440
2020/01/31 05:02:10.5	90.760	-0.020	-0.600	0.390
2020/01/31 05:02:10.6	90.800	-0.000	-0.600	0.340
2020/01/31 05:02:10.7	90.840	0.010	-0.610	0.290
2020/01/31 05:02:10.8	90.870	0.020	-0.600	0.250
2020/01/31 05:02:10.9	90.920	0.030	-0.590	0.210
2020/01/31 05:02:11.0	90.960	0.040	-0.580	0.170
2020/01/31 05:02:11.1	91.000	0.050	-0.560	0.140
2020/01/31 05:02:11.2	91.040	0.060	-0.540	0.100
2020/01/31 05:02:11.3	91.080	0.070	-0.510	0.080
2020/01/31 05:02:11.4	91.130	0.080	-0.480	0.060
2020/01/31 05:02:11.5	91.170	0.090	-0.450	0.040
2020/01/31 05:02:11.6	91.210	0.090	-0.420	0.030
2020/01/31 05:02:11.7	91.250	0.100	-0.380	0.020
2020/01/31 05:02:11.8	91.290	0.100	-0.340	0.020
2020/01/31 05:02:11.9	91.330	0.110	-0.300	0.030
2020/01/31 05:02:12.0	91.360	0.110	-0.260	0.040
2020/01/31 05:02:12.1	91.400	0.120	-0.220	0.050
2020/01/31 05:02:12.2	91.420	0.120	-0.170	0.070
2020/01/31 05:02:12.3	91.450	0.120	-0.130	0.090
2020/01/31 05:02:12.4	91.470	0.120	-0.090	0.120
2020/01/31 05:02:12.5	91.490	0.120	-0.050	0.140
2020/01/31 05:02:12.6	91.510	0.110	-0.010	0.170
2020/01/31 05:02:12.7	91.520	0.110	0.030	0.210
2020/01/31 05:02:12.8	91.530	0.100	0.070	0.250
2020/01/31 05:02:12.9	91.540	0.100	0.100	0.280
2020/01/31 05:02:13.0	91.540	0.090	0.130	0.320
2020/01/31 05:02:13.1	91.540	0.080	0.160	0.370
2020/01/31 05:02:13.2	91.550	0.070	0.190	0.410
2020/01/31 05:02:13.3	91.540	0.060	0.210	0.450
2020/01/31 05:02:13.4	91.530	0.040	0.220	0.500
2020/01/31 05:02:13.5	91.520	0.030	0.230	0.540
2020/01/31 05:02:13.6	91.500	0.020	0.240	0.590
2020/01/31 05:02:13.7	91.490	0.010	0.230	0.630
2020/01/31 05:02:13.8	91.470	-0.010	0.230	0.670
2020/01/31 05:02:13.9	91.450	-0.020	0.220	0.710
2020/01/31 05:02:14.0	91.420	-0.030	0.200	0.750
2020/01/31 05:02:14.1	91.400	-0.050	0.180	0.790
2020/01/31 05:02:14.2	91.380	-0.060	0.150	0.820
2020/01/31 05:02:14.3	91.350	-0.070	0.110	0.850
2020/01/31 05:02:14.4	91.320	-0.080	0.070	0.880
2020/01/31 05:02:14.5	91.300	-0.080	0.030	0.900
2020/01/31 05:02:14.6	91.270	-0.090	-0.020	0.920
2020/01/31 05:02:14.7	91.250	-0.090	-0.080	0.940
2020/01/31 05:02:14.8	91.230	-0.100	-0.130	0.950
2020/01/31 05:02:14.9	91.200	-0.100	-0.190	0.960
2020/01/31 05:02:15.0	91.180	-0.100	-0.250	0.970
2020/01/31 05:02:15.1	91.160	-0.090	-0.310	0.980
2020/01/31 05:02:15.2	91.140	-0.090	-0.380	0.980
2020/01/31 05:02:15.3	91.120	-0.080	-0.440	0.980
2020/01/31 05:02:15.4	91.100	-0.080	-0.500	0.980
2020/01/31 05:02:15.5	91.090	-0.070	-0.560	0.970
2020/01/31 05:02:15.6	91.080	-0.060	-0.610	0.960
2020/01/31 05:02:15.7	91.070	-0.050	-0.660	0.950
2020/01/31 05:02:15.8	91.060	-0.030	-0.710	0.940
2020/01/31 05:02:15.9	91.050	-0.020	-0.750	0.930
2020/01/31 05:02:16.0	91.040	-0.010	-0.780	0.910
2020/01/31 05:02:16.1	91.040	0.010	-0.810	0.890
2020/01/31 05:02:16.2	91.040	0.020	-0.840	0.860
2020/01/31 05:02:16.3	91.040	0.040	-0.850	0.840
2020/01/31 05:02:16.4	91.050	0.050	-0.860	0.810
2020/01/31 05:02:16.5	91.060	0.060	-0.870	0.780
2020/01/31 05:02:16.6	91.060	0.080	-0.860	0.750
2020/01/31 05:02:16.7	91.070	0.090	-0.860	0.720
2020/01/31 05:02:16.8	91.080	0.100	-0.840	0.690
2020/01/31 05:02:16.9	91.100	0.120	-0.820	0.660
2020/01/31 05:02:17.0	91.110	0.130	-0.800	0.630
2020/01/31 05:02:17.1	91.120	0.140	-0.770	0.600
2020/01/31 05:02:17.2	91.140	0.150	-0.730	0.570
2020/01/31 05:02:17.3	91.150	0.160	-0.690	0.550
2020/01/31 05:02:17.4	91.160	0.170	-0.650	0.530
2020/01/31 05:02:17.5	91.170	0.170	-0.600	0.500
2020/01/31 05:02:17.6	91.180	0.180	-0.560	0.490
2020/01/31 05:02:17.7	91.190	0.190	-0.510	0.470
2020/01/31 05:02:17.8	91.190	0.190	-0.460	0.460
2020/01/31 05:02:17.9	91.200	0.190	-0.410	0.440
2020/01/31 05:02:18.0	91.200	0.190	-0.360	0.440
2020/01/31 05:02:18.1	91.200	0.200	-0.310	0.430
2020/01/31 05:02:18.2	91.200	0.200	-0.260	0.420
2020/01/31 05:02:18.3	91.200	0.200	-0.220	0.420
2020/01/31 05:02:18.4	91.200	0.190	-0.170	0.420
2020/01/31 05:02:18.5	91.200	0.190	-0.130	0.420
2020/01/31 05:02:18.6	91.190	0.190	-0.090	0.420
2020/01/31 05:02:18.7	91.190	0.190	-0.060	0.420
2020/01/31 05:02:18.8	91.180	0.190	-0.030	0.420
2020/01/31 05:02:18.9	91.180	0.190	-0.000	0.420
2020/01/31 05:02:19.0	91.180	0.190	0.020	0.430
2020/01/31 05:02:19.1	91.180	0.190	0.030	0.430
2020/01/31 05:02:19.2	91.180	0.190	0.050	0.430
2020/01/31 05:02:19.3	91.180	0.200	0.050	0.430
2020/01/31 05:02:19.4	91.180	0.200	0.040	0.430
2020/01/31 05:02:19.5	91.190	0.210	0.040	0.430
2020/01/31 05:02:19.6	91.200	0.210	0.020	0.420
2020/01/31 05:02:19.7	91.210	0.220	0.000	0.420
2020/01/31 05:02:19.8	91.220	0.230	-0.020	0.410
2020/01/31 05:02:19.9	91.230	0.240	-0.050	0.410
2020/01/31 05:02:20.0	91.250	0.250	-0.080	0.410
2020/01/31 05:02:20.1	91.270	0.260	-0.110	0.410
2020/01/31 05:02:20.2	91.290	0.270	-0.150	0.400
2020/01/31 05:02:20.3	91.310	0.290	-0.190	0.400
2020/01/31 05:02:20.4	91.330	0.300	-0.220	0.400
2020/01/31 05:02:20.5	91.350	0.310	-0.250	0.410
2020/01/31 05:02:20.6	91.370	0.320	-0.280	0.410
2020/01/31 05:02:20.7	91.390	0.330	-0.310	0.410
2020/01/31 05:02:20.8	91.410	0.340	-0.340	0.420
2020/01/31 05:02:20.9	91.440	0.340	-0.360	0.420
2020/01/31 05:02:21.0	91.460	0.350	-0.370	0.430
2020/01/31 05:02:21.1	91.480	0.350	-0.390	0.440
2020/01/31 05:02:21.2	91.500	0.350	-0.390	0.450
2020/01/31 05:02:21.3	91.520	0.350	-0.390	0.460
2020/01/31 05:02:21.4	91.540	0.350	-0.380	0.470
2020/01/31 05:02:21.5	91.560	0.340	-0.370	0.480
2020/01/31 05:02:21.6	91.570	0.340	-0.360	0.490
2020/01/31 05:02:21.7	91.590	0.330	-0.340	0.510
2020/01/31 05:02:21.8	91.600	0.310	-0.310	0.520
2020/01/31 05:02:21.9	91.610	0.300	-0.270	0.530
2020/01/31 05:02:22.0	91.630	0.280	-0.240	0.550
2020/01/31 05:02:22.1	91.640	0.260	-0.200	0.570
2020/01/31 05:02:22.2	91.650	0.240	-0.160	0.580
2020/01/31 05:02:22.3	91.660	0.210	-0.110	0.600
2020/01/31 05:02:22.4	91.670	0.180	-0.060	0.610
2020/01/31 05:02:22.5	91.670	0.150	-0.010	0.630
2020/01/31 05:02:22.6	91.680	0.120	0.040	0.650
2020/01/31 05:02:22.7	91.680	0.090	0.100	0.660
2020/01/31 05:02:22.8	91.690	0.050	0.150	0.680
2020/01/31 05:02:22.9	91.690	0.010	0.200	0.690
2020/01/31 05:02:23.0	91.690	-0.030	0.240	0.700
2020/01/31 05:02:23.1	91.690	-0.070	0.290	0.720
2020/01/31 05:02:23.2	91.700	-0.110	0.340	0.730
2020/01/31 05:02:23.3	91.700	-0.150	0.370	0.740
2020/01/31 05:02:23.4	91.700	-0.190	0.410	0.750
2020/01/31 05:02:23.5	91.700	-0.230	0.430	0.760
2020/01/31 05:02:23.6	91.700	-0.270	0.460	0.770
2020/01/31 05:02:23.7	91.700	-0.310	0.470	0.770
2020/01/31 05:02:23.8	91.700	-0.350	0.480	0.780
2020/01/31 05:02:23.9	91.700	-0.380	0.490	0.790
2020/01/31 05:02:24.0	91.700	-0.420	0.490	0.800
2020/01/31 05:02:24.1	91.700	-0.450	0.480	0.810
2020/01/31 05:02:24.2	91.700	-0.480	0.460	0.810
2020/01/31 05:02:24.3	91.700	-0.510	0.450	0.820
2020/01/31 05:02:24.4	91.700	-0.540	0.420	0.820
2020/01/31 05:02:24.5	91.710	-0.560	0.390	0.830
2020/01/31 05:02:24.6	91.710	-0.580	0.360	0.840
2020/01/31 05:02:24.7	91.710	-0.590	0.320	0.840
2020/01/31 05:02:24.8	91.710	-0.610	0.280	0.850
2020/01/31 05:02:24.9	91.720	-0.620	0.230	0.850
2020/01/31 05:02:25.0	91.720	-0.630	0.180	0.850
2020/01/31 05:02:25.1	91.720	-0.630	0.120	0.860
2020/01/31 05:02:25.2	91.730	-0.630	0.070	0.860
2020/01/31 05:02:25.3	91.730	-0.630	0.010	0.860
2020/01/31 05:02:25.4	91.730	-0.630	-0.050	0.860
2020/01/31 05:02:25.5	91.730	-0.620	-0.110	0.860
2020/01/31 05:02:25.6	91.730	-0.610	-0.170	0.860
2020/01/31 05:02:25.7	91.730	-0.600	-0.230	0.850
2020/01/31 05:02:25.8	91.720	-0.580	-0.290	0.850
2020/01/31 05:02:25.9	91.720	-0.570	-0.350	0.850
2020/01/31 05:02:26.0	91.710	-0.550	-0.410	0.850
2020/01/31 05:02:26.1	91.700	-0.530	-0.460	0.840
2020/01/31 05:02:26.2	91.680	-0.510	-0.510	0.830
2020/01/31 05:02:26.3	91.670	-0.490	-0.560	0.830
2020/01/31 05:02:26.4	91.660	-0.460	-0.600	0.830
2020/01/31 05:02:26.5	91.650	-0.440	-0.650	0.820
2020/01/31 05:02:26.6	91.630	-0.410	-0.680	0.820
2020/01/31 05:02:26.7	91.620	-0.380	-0.720	0.820
2020/01/31 05:02:26.8	91.610	-0.360	-0.750	0.820
2020/01/31 05:02:26.9	91.600	-0.330	-0.780	0.810
2020/01/31 05:02:27.0	91.580	-0.300	-0.810	0.810
2020/01/31 05:02:27.1	91.570	-0.270	-0.830	0.810
2020/01/31 05:02:27.2	91.560	-0.230	-0.850	0.810
2020/01/31 05:02:27.3	91.550	-0.200	-0.870	0.810
2020/01/31 05:02:27.4	91.540	-0.170	-0.890	0.810
2020/01/31 05:02:27.5	91.540	-0.140	-0.900	0.810
2020/01/31 05:02:27.6	91.540	-0.100	-0.920	0.800
2020/01/31 05:02:27.7	91.540	-0.070	-0.930	0.800
2020/01/31 05:02:27.8	91.540	-0.030	-0.940	0.800
2020/01/31 05:02:27.9	91.540	0.010	-0.950	0.800
2020/01/31 05:02:28.0	91.540	0.040	-0.960	0.790
2020/01/31 05:02:28.1	91.550	0.080	-0.970	0.790
2020/01/31 05:02:28.2	91.560	0.120	-0.980	0.780
2020/01/31 05:02:28.3	91.560	0.150	-0.980	0.780
2020/01/31 05:02:28.4	91.570	0.190	-0.980	0.780
2020/01/31 05:02:28.5	91.570	0.220	-0.980	0.780
2020/01/31 05:02:28.6	91.580	0.260	-0.970	0.770
2020/01/31 05:02:28.7	91.580	0.290	-0.970	0.770
2020/01/31 05:02:28.8	91.590	0.320	-0.950	0.760
2020/01/31 05:02:28.9	91.600	0.350	-0.940	0.750
2020/01/31 05:02:29.0	91.600	0.380	-0.920	0.740
2020/01/31 05:02:29.1	91.610	0.400	-0.890	0.730
2020/01/31 05:02:29.2	91.620	0.420	-0.860	0.710
2020/01/31 05:02:29.3	91.630	0.440	-0.830	0.690
2020/01/31 05:02:29.4	91.640	0.460	-0.800	0.670
2020/01/31 05:02:29.5	91.640	0.470	-0.750	0.650
2020/01/31 05:02:29.6	91.650	0.480	-0.710	0.630
2020/01/31 05:02:29.7	91.660	0.480	-0.660	0.600
2020/01/31 05:02:29.8	91.660	0.480	-0.610	0.570
2020/01/31 05:02:29.9	91.670	0.480	-0.550	0.550
2020/01/31 05:02:30.0	91.670	0.470	-0.490	0.520
2020/01/31 05:02:30.1	91.680	0.460	-0.430	0.500
2020/01/31 05:02:30.2	91.680	0.450	-0.360	0.470
2020/01/31 05:02:30.3	91.680	0.430	-0.290	0.450
2020/01/31 05:02:30.4	91.680	0.410	-0.220	0.430
2020/01/31 05:02:30.5	91.670	0.390	-0.140	0.410
2020/01/31 05:02:30.6	91.660	0.360	-0.070	0.390
2020/01/31 05:02:30.7	91.650	0.330	0.010	0.380
2020/01/31 05:02:30.8	91.640	0.300	0.090	0.370
2020/01/31 05:02:30.9	91.630	0.260	0.170	0.360
2020/01/31 05:02:31.0	91.620	0.230	0.250	0.350
2020/01/31 05:02:31.1	91.600	0.190	0.330	0.340
2020/01/31 05:02:31.2	91.580	0.150	0.410	0.330
2020/01/31 05:02:31.3	91.560	0.110	0.480	0.330
2020/01/31 05:02:31.4	91.540	0.070	0.550	0.320
2020/01/31 05:02:31.5	91.530	0.030	0.620	0.320
2020/01/31 05:02:31.6	91.510	-0.010	0.690	0.310
2020/01/31 05:02:31.7	91.490	-0.050	0.750	0.300
2020/01/31 05:02:31.8	91.480	-0.090	0.800	0.290
2020/01/31 05:02:31.9	91.470	-0.130	0.850	0.280
2020/01/31 05:02:32.0	91.450	-0.170	0.890	0.270
2020/01/31 05:02:32.1	91.440	-0.200	0.930	0.260
2020/01/31 05:02:32.2	91.440	-0.240	0.960	0.240
2020/01/31 05:02:32.3	91.430	-0.260	0.970	0.230
2020/01/31 05:02:32.4	91.430	-0.290	0.980	0.210
2020/01/31 05:02:32.5	91.430	-0.310	0.980	0.180
2020/01/31 05:02:32.6	91.430	-0.330	0.970	0.160
2020/01/31 05:02:32.7	91.440	-0.350	0.960	0.130
2020/01/31 05:02:32.8	91.440	-0.360	0.930	0.100
2020/01/31 05:02:32.9	91.450	-0.360	0.890	0.070
2020/01/31 05:02:33.0	91.460	-0.370	0.840	0.040
2020/01/31 05:02:33.1	91.480	-0.360	0.780	0.010
2020/01/31 05:02:33.2	91.500	-0.360	0.720	-0.020
2020/01/31 05:02:33.3	91.520	-0.340	0.640	-0.060
2020/01/31 05:02:33.4	91.540	-0.330	0.560	-0.090
2020/01/31 05:02:33.5	91.560	-0.310	0.480	-0.120
2020/01/31 05:02:33.6	91.580	-0.280	0.390	-0.150
2020/01/31 05:02:33.7	91.600	-0.260	0.290	-0.170
2020/01/31 05:02:33.8	91.630	-0.230	0.190	-0.200
2020/01/31 05:02:33.9	91.650	-0.190	0.090	-0.220
2020/01/31 05:02:34.0	91.670	-0.160	-0.010	-0.230
2020/01/31 05:02:34.1	91.690	-0.120	-0.110	-0.250
2020/01/31 05:02:34.2	91.710	-0.080	-0.220	-0.260
2020/01/31 05:02:34.3	91.730	-0.040	-0.320	-0.270
2020/01/31 05:02:34.4	91.750	0.010	-0.420	-0.270
2020/01/31 05:02:34.5	91.760	0.050	-0.520	-0.260
2020/01/31 05:02:34.6	91.780	0.100	-0.620	-0.260
2020/01/31 05:02:34.7	91.800	0.150	-0.710	-0.250
2020/01/31 05:02:34.8	91.810	0.200	-0.800	-0.230
2020/01/31 05:02:34.9	91.820	0.240	-0.890	-0.220
2020/01/31 05:02:35.0	91.830	0.290	-0.970	-0.190
2020/01/31 05:02:35.1	91.840	0.340	-1.040	-0.170
2020/01/31 05:02:35.2	91.840	0.380	-1.110	-0.140
2020/01/31 05:02:35.3	91.840	0.420	-1.170	-0.110
2020/01/31 05:02:35.4	91.850	0.470	-1.230	-0.080
2020/01/31 05:02:35.5	91.850	0.510	-1.280	-0.040
2020/01/31 05:02:35.6	91.840	0.540	-1.320	-0.000
2020/01/31 05:02:35.7	91.840	0.580	-1.350	0.040
2020/01/31 05:02:35.8	91.830	0.610	-1.380	0.080
2020/01/31 05:02:35.9	91.830	0.630	-1.390	0.130
2020/01/31 05:02:36.0	91.820	0.660	-1.400	0.170
2020/01/31 05:02:36.1	91.800	0.670	-1.390	0.220
2020/01/31 05:02:36.2	91.790	0.690	-1.380	0.270
2020/01/31 05:02:36.3	91.770	0.700	-1.360	0.320
2020/01/31 05:02:36.4	91.750	0.700	-1.330	0.370
2020/01/31 05:02:36.5	91.740	0.700	-1.280	0.420
2020/01/31 05:02:36.6	91.720	0.690	-1.230	0.470
2020/01/31 05:02:36.7	91.700	0.680	-1.170	0.530
2020/01/31 05:02:36.8	91.680	0.670	-1.110	0.580
2020/01/31 05:02:36.9	91.660	0.650	-1.030	0.640
2020/01/31 05:02:37.0	91.640	0.620	-0.950	0.690
2020/01/31 05:02:37.1	91.620	0.590	-0.860	0.750
2020/01/31 05:02:37.2	91.590	0.550	-0.770	0.810
2020/01/31 05:02:37.3	91.570	0.520	-0.670	0.860
2020/01/31 05:02:37.4	91.550	0.470	-0.570	0.920
2020/01/31 05:02:37.5	91.540	0.430	-0.460	0.970
2020/01/31 05:02:37.6	91.520	0.380	-0.360	1.030
2020/01/31 05:02:37.7	91.500	0.330	-0.250	1.080
2020/01/31 05:02:37.8	91.480	0.270	-0.150	1.130
2020/01/31 05:02:37.9	91.470	0.220	-0.040	1.180
2020/01/31 05:02:38.0	91.460	0.160	0.060	1.220
2020/01/31 05:02:38.1	91.450	0.100	0.160	1.260
2020/01/31 05:02:38.2	91.440	0.050	0.250	1.300
2020/01/31 05:02:38.3	91.430	-0.010	0.340	1.330
2020/01/31 05:02:38.4	91.430	-0.070	0.430	1.360
2020/01/31 05:02:38.5	91.420	-0.120	0.500	1.380
2020/01/31 05:02:38.6	91.420	-0.170	0.570	1.400
2020/01/31 05:02:38.7	91.410	-0.220	0.620	1.420
2020/01/31 05:02:38.8	91.410	-0.270	0.670	1.430
2020/01/31 05:02:38.9	91.410	-0.320	0.710	1.430
2020/01/31 05:02:39.0	91.410	-0.360	0.730	1.430
2020/01/31 05:02:39.1	91.420	-0.390	0.750	1.430
2020/01/31 05:02:39.2	91.420	-0.430	0.760	1.420
2020/01/31 05:02:39.3	91.420	-0.460	0.750	1.400
2020/01/31 05:02:39.4	91.430	-0.480	0.740	1.380
2020/01/31 05:02:39.5	91.430	-0.500	0.710	1.360
2020/01/31 05:02:39.6	91.440	-0.520	0.680	1.340
2020/01/31 05:02:39.7	91.450	-0.530	0.640	1.310
2020/01/31 05:02:39.8	91.460	-0.540	0.590	1.290
2020/01/31 05:02:39.9	91.470	-0.540	0.540	1.260
2020/01/31 05:02:40.0	91.490	-0.550	0.480	1.230
2020/01/31 05:02:40.1	91.500	-0.540	0.420	1.210
2020/01/31 05:02:40.2	91.510	-0.540	0.340	1.180
2020/01/31 05:02:40.3	91.530	-0.530	0.270	1.160
2020/01/31 05:02:40.4	91.540	-0.520	0.200	1.130
2020/01/31 05:02:40.5	91.550	-0.500	0.120	1.110
2020/01/31 05:02:40.6	91.570	-0.490	0.050	1.090
2020/01/31 05:02:40.7	91.580	-0.470	-0.030	1.080
2020/01/31 05:02:40.8	91.590	-0.450	-0.100	1.070
2020/01/31 05:02:40.9	91.610	-0.430	-0.180	1.050
2020/01/31 05:02:41.0	91.620	-0.410	-0.250	1.050
2020/01/31 05:02:41.1	91.630	-0.390	-0.320	1.040
2020/01/31 05:02:41.2	91.640	-0.360	-0.390	1.030
2020/01/31 05:02:41.3	91.660	-0.340	-0.450	1.020
2020/01/31 05:02:41.4	91.670	-0.320	-0.510	1.020
2020/01/31 05:02:41.5	91.680	-0.300	-0.570	1.010
2020/01/31 05:02:41.6	91.690	-0.280	-0.620	1.010
2020/01/31 05:02:41.7	91.700	-0.260	-0.670	1.000
2020/01/31 05:02:41.8	91.700	-0.240	-0.710	0.990
2020/01/31 05:02:41.9	91.710	-0.220	-0.740	0.990
2020/01/31 05:02:42.0	91.710	-0.210	-0.770	0.980
2020/01/31 05:02:42.1	91.720	-0.200	-0.790	0.970
2020/01/31 05:02:42.2	91.720	-0.190	-0.800	0.960
2020/01/31 05:02:42.3	91.720	-0.180	-0.800	0.950
2020/01/31 05:02:42.4	91.720	-0.180	-0.800	0.940
2020/01/31 05:02:42.5	91.720	-0.180	-0.790	0.930
2020/01/31 05:02:42.6	91.720	-0.180	-0.780	0.930
2020/01/31 05:02:42.7	91.710	-0.180	-0.750	0.920
2020/01/31 05:02:42.8	91.710	-0.180	-0.720	0.910
2020/01/31 05:02:42.9	91.700	-0.190	-0.690	0.910
2020/01/31 05:02:43.0	91.700	-0.200	-0.650	0.910
2020/01/31 05:02:43.1	91.690	-0.210	-0.610	0.910
2020/01/31 05:02:43.2	91.680	-0.220	-0.550	0.910
2020/01/31 05:02:43.3	91.670	-0.240	-0.500	0.910
2020/01/31 05:02:43.4	91.660	-0.250	-0.450	0.920
2020/01/31 05:02:43.5	91.650	-0.270	-0.390	0.920
2020/01/31 05:02:43.6	91.650	-0.280	-0.340	0.930
2020/01/31 05:02:43.7	91.640	-0.290	-0.280	0.940
2020/01/31 05:02:43.8	91.630	-0.310	-0.230	0.940
2020/01/31 05:02:43.9	91.630	-0.320	-0.180	0.950
2020/01/31 05:02:44.0	91.620	-0.330	-0.130	0.960
2020/01/31 05:02:44.1	91.620	-0.340	-0.080	0.960
2020/01/31 05:02:44.2	91.610	-0.350	-0.040	0.970
2020/01/31 05:02:44.3	91.610	-0.350	-0.000	0.970
2020/01/31 05:02:44.4	91.610	-0.350	0.030	0.970
2020/01/31 05:02:44.5	91.610	-0.350	0.060	0.960
2020/01/31 05:02:44.6	91.610	-0.340	0.080	0.960
2020/01/31 05:02:44.7	91.610	-0.340	0.090	0.950
2020/01/31 05:02:44.8	91.610	-0.320	0.100	0.930
2020/01/31 05:02:44.9	91.610	-0.310	0.110	0.910
2020/01/31 05:02:45.0	91.620	-0.290	0.100	0.890
2020/01/31 05:02:45.1	91.620	-0.260	0.090	0.860
2020/01/31 05:02:45.2	91.640	-0.230	0.080	0.820
2020/01/31 05:02:45.3	91.650	-0.200	0.060	0.790
2020/01/31 05:02:45.4	91.660	-0.170	0.030	0.750
2020/01/31 05:02:45.5	91.670	-0.130	0.010	0.710
2020/01/31 05:02:45.6	91.680	-0.090	-0.020	0.670
2020/01/31 05:02:45.7	91.690	-0.040	-0.060	0.630
2020/01/31 05:02:45.8	91.700	0.010	-0.090	0.590
2020/01/31 05:02:45.9	91.710	0.060	-0.130	0.550
2020/01/31 05:02:46.0	91.720	0.110	-0.170	0.510
2020/01/31 05:02:46.1	91.730	0.160	-0.200	0.470
2020/01/31 05:02:46.2	91.730	0.210	-0.240	0.430
2020/01/31 05:02:46.3	91.730	0.260	-0.270	0.400
2020/01/31 05:02:46.4	91.740	0.320	-0.300	0.370
2020/01/31 05:02:46.5	91.740	0.370	-0.330	0.340
2020/01/31 05:02:46.6	91.740	0.410	-0.350	0.310
2020/01/31 05:02:46.7	91.740	0.460	-0.370	0.290
2020/01/31 05:02:46.8	91.730	0.500	-0.380	0.270
2020/01/31 05:02:46.9	91.730	0.540	-0.390	0.260
2020/01/31 05:02:47.0	91.720	0.580	-0.400	0.250
2020/01/31 05:02:47.1	91.710	0.610	-0.400	0.240
2020/01/31 05:02:47.2	91.700	0.640	-0.400	0.230
2020/01/31 05:02:47.3	91.690	0.660	-0.400	0.230
2020/01/31 05:02:47.4	91.670	0.680	-0.390	0.230
2020/01/31 05:02:47.5	91.660	0.700	-0.380	0.240
2020/01/31 05:02:47.6	91.640	0.710	-0.360	0.240
2020/01/31 05:02:47.7	91.620	0.710	-0.350	0.250
2020/01/31 05:02:47.8	91.610	0.710	-0.330	0.260
2020/01/31 05:02:47.9	91.590	0.710	-0.310	0.270
2020/01/31 05:02:48.0	91.570	0.700	-0.300	0.280
2020/01/31 05:02:48.1	91.560	0.690	-0.280	0.290
2020/01/31 05:02:48.2	91.540	0.680	-0.260	0.300
2020/01/31 05:02:48.3	91.520	0.660	-0.240	0.320
2020/01/31 05:02:48.4	91.510	0.640	-0.230	0.330
2020/01/31 05:02:48.5	91.500	0.620	-0.220	0.340
2020/01/31 05:02:48.6	91.490	0.600	-0.210	0.350
2020/01/31 05:02:48.7	91.480	0.570	-0.200	0.360
2020/01/31 05:02:48.8	91.470	0.540	-0.190	0.370
2020/01/31 05:02:48.9	91.470	0.510	-0.190	0.380
2020/01/31 05:02:49.0	91.460	0.490	-0.190	0.390
2020/01/31 05:02:49.1	91.460	0.460	-0.200	0.400
2020/01/31 05:02:49.2	91.460	0.430	-0.210	0.400
2020/01/31 05:02:49.3	91.460	0.400	-0.220	0.410
2020/01/31 05:02:49.4	91.460	0.370	-0.230	0.410
2020/01/31 05:02:49.5	91.470	0.340	-0.250	0.420
2020/01/31 05:02:49.6	91.470	0.320	-0.260	0.430
2020/01/31 05:02:49.7	91.480	0.290	-0.280	0.440
2020/01/31 05:02:49.8	91.490	0.270	-0.300	0.450
2020/01/31 05:02:49.9	91.490	0.240	-0.320	0.470
2020/01/31 05:02:50.0	91.500	0.220	-0.330	0.480
2020/01/31 05:02:50.1	91.510	0.200	-0.350	0.490
2020/01/31 05:02:50.2	91.520	0.170	-0.370	0.510
2020/01/31 05:02:50.3	91.520	0.150	-0.380	0.530
2020/01/31 05:02:50.4	91.530	0.130	-0.400	0.550
2020/01/31 05:02:50.5	91.540	0.110	-0.410	0.570
2020/01/31 05:02:50.6	91.540	0.090	-0.420	0.590
2020/01/31 05:02:50.7	91.550	0.070	-0.420	0.610
2020/01/31 05:02:50.8	91.560	0.050	-0.430	0.630
2020/01/31 05:02:50.9	91.560	0.030	-0.420	0.650
2020/01/31 05:02:51.0	91.570	0.010	-0.420	0.670
2020/01/31 05:02:51.1	91.570	-0.010	-0.410	0.690
2020/01/31 05:02:51.2	91.580	-0.030	-0.400	0.710
2020/01/31 05:02:51.3	91.590	-0.050	-0.380	0.730
2020/01/31 05:02:51.4	91.600	-0.070	-0.360	0.750
2020/01/31 05:02:51.5	91.600	-0.090	-0.330	0.770
2020/01/31 05:02:51.6	91.610	-0.120	-0.310	0.790
2020/01/31 05:02:51.7	91.620	-0.140	-0.270	0.810
2020/01/31 05:02:51.8	91.620	-0.160	-0.230	0.830
2020/01/31 05:02:51.9	91.630	-0.190	-0.190	0.850
2020/01/31 05:02:52.0	91.630	-0.220	-0.150	0.860
2020/01/31 05:02:52.1	91.640	-0.240	-0.100	0.880
2020/01/31 05:02:52.2	91.640	-0.270	-0.060	0.910
2020/01/31 05:02:52.3	91.650	-0.300	-0.010	0.920
2020/01/31 05:02:52.4	91.650	-0.320	0.050	0.940
2020/01/31 05:02:52.5	91.660	-0.350	0.100	0.960
2020/01/31 05:02:52.6	91.660	-0.370	0.150	0.970
2020/01/31 05:02:52.7	91.670	-0.400	0.200	0.990
2020/01/31 05:02:52.8	91.670	-0.430	0.250	1.010
2020/01/31 05:02:52.9	91.670	-0.450	0.300	1.030
2020/01/31 05:02:53.0	91.680	-0.470	0.350	1.040
2020/01/31 05:02:53.1	91.680	-0.490	0.390	1.060
2020/01/31 05:02:53.2	91.680	-0.510	0.430	1.070
2020/01/31 05:02:53.3	91.680	-0.530	0.470	1.080
2020/01/31 05:02:53.4	91.680	-0.550	0.500	1.100
2020/01/31 05:02:53.5	91.680	-0.560	0.530	1.110
2020/01/31 05:02:53.6	91.680	-0.580	0.540	1.120
2020/01/31 05:02:53.7	91.680	-0.590	0.560	1.130
2020/01/31 05:02:53.8	91.680	-0.590	0.560	1.130
2020/01/31 05:02:53.9	91.690	-0.600	0.560	1.140
2020/01/31 05:02:54.0	91.690	-0.600	0.560	1.140
2020/01/31 05:02:54.1	91.690	-0.600	0.540	1.130
2020/01/31 05:02:54.2	91.700	-0.590	0.520	1.130
2020/01/31 05:02:54.3	91.700	-0.590	0.490	1.120
2020/01/31 05:02:54.4	91.700	-0.570	0.460	1.110
2020/01/31 05:02:54.5	91.700	-0.560	0.410	1.100
2020/01/31 05:02:54.6	91.700	-0.540	0.360	1.090
2020/01/31 05:02:54.7	91.700	-0.520	0.300	1.070
2020/01/31 05:02:54.8	91.700	-0.490	0.240	1.060
2020/01/31 05:02:54.9	91.700	-0.460	0.170	1.040
2020/01/31 05:02:55.0	91.700	-0.430	0.090	1.020
2020/01/31 05:02:55.1	91.700	-0.390	0.010	1.000
2020/01/31 05:02:55.2	91.720	-0.350	-0.080	0.970
2020/01/31 05:02:55.3	91.720	-0.310	-0.170	0.950
2020/01/31 05:02:55.4	91.710	-0.260	-0.270	0.930
2020/01/31 05:02:55.5	91.710	-0.210	-0.370	0.910
2020/01/31 05:02:55.6	91.710	-0.160	-0.470	0.890
2020/01/31 05:02:55.7	91.710	-0.110	-0.580	0.860
2020/01/31 05:02:55.8	91.710	-0.050	-0.680	0.840
2020/01/31 05:02:55.9	91.710	0.010	-0.780	0.820
2020/01/31 05:02:56.0	91.710	0.070	-0.880	0.790
2020/01/31 05:02:56.1	91.710	0.130	-0.980	0.770
2020/01/31 05:02:56.2	91.710	0.190	-1.080	0.740
2020/01/31 05:02:56.3	91.710	0.250	-1.170	0.710
2020/01/31 05:02:56.4	91.710	0.310	-1.250	0.680
2020/01/31 05:02:56.5	91.710	0.360	-1.320	0.650
2020/01/31 05:02:56.6	91.710	0.420	-1.390	0.630
2020/01/31 05:02:56.7	91.710	0.470	-1.450	0.600
2020/01/31 05:02:56.8	91.710	0.520	-1.500	0.570
2020/01/31 05:02:56.9	91.710	0.560	-1.530	0.540
2020/01/31 05:02:57.0	91.700	0.600	-1.560	0.510
2020/01/31 05:02:57.1	91.690	0.640	-1.570	0.480
2020/01/31 05:02:57.2	91.670	0.670	-1.580	0.450
2020/01/31 05:02:57.3	91.660	0.690	-1.570	0.430
2020/01/31 05:02:57.4	91.650	0.710	-1.540	0.410
2020/01/31 05:02:57.5	91.630	0.720	-1.510	0.380
2020/01/31 05:02:57.6	91.620	0.730	-1.460	0.370
2020/01/31 05:02:57.7	91.600	0.730	-1.400	0.350
2020/01/31 05:02:57.8	91.580	0.720	-1.320	0.340
2020/01/31 05:02:57.9	91.560	0.710	-1.240	0.330
2020/01/31 05:02:58.0	91.540	0.690	-1.150	0.320
2020/01/31 05:02:58.1	91.520	0.670	-1.050	0.320
2020/01/31 05:02:58.2	91.500	0.640	-0.930	0.320
2020/01/31 05:02:58.3	91.470	0.600	-0.810	0.320
2020/01/31 05:02:58.4	91.450	0.560	-0.690	0.330
2020/01/31 05:02:58.5	91.430	0.510	-0.560	0.340
2020/01/31 05:02:58.6	91.410	0.460	-0.430	0.360
2020/01/31 05:02:58.7	91.390	0.400	-0.300	0.380
2020/01/31 05:02:58.8	91.370	0.340	-0.160	0.400
2020/01/31 05:02:58.9	91.360	0.280	-0.030	0.420
2020/01/31 05:02:59.0	91.340	0.210	0.110	0.440
2020/01/31 05:02:59.1	91.330	0.150	0.240	0.470
2020/01/31 05:02:59.2	91.320	0.080	0.370	0.490
2020/01/31 05:02:59.3	91.320	0.010	0.500	0.510
2020/01/31 05:02:59.4	91.310	-0.060	0.610	0.540
2020/01/31 05:02:59.5	91.320	-0.130	0.720	0.550
2020/01/31 05:02:59.6	91.320	-0.200	0.830	0.570
2020/01/31 05:02:59.7	91.330	-0.270	0.920	0.580
2020/01/31 05:02:59.8	91.340	-0.330	1.000	0.590
2020/01/31 05:02:59.9	91.350	-0.390	1.070	0.600
2020/01/31 05:03:00.0	91.360	-0.450	1.140	0.610
2020/01/31 05:03:00.1	91.380	-0.510	1.190	0.610
2020/01/31 05:03:00.2	91.400	-0.560	1.220	0.610
2020/01/31 05:03:00.3	91.420	-0.600	1.250	0.610
2020/01/31 05:03:00.4	91.440	-0.640	1.260	0.600
2020/01/31 05:03:00.5	91.460	-0.670	1.260	0.600
2020/01/31 05:03:00.6	91.470	-0.700	1.250	0.600
2020/01/31 05:03:00.7	91.490	-0.730	1.230	0.590
2020/01/31 05:03:00.8	91.510	-0.740	1.190	0.590
2020/01/31 05:03:00.9	91.520	-0.750	1.150	0.590
2020/01/31 05:03:01.0	91.530	-0.750	1.090	0.590
2020/01/31 05:03:01.1	91.540	-0.750	1.020	0.590
2020/01/31 05:03:01.2	91.550	-0.740	0.940	0.590
2020/01/31 05:03:01.3	91.560	-0.720	0.850	0.590
2020/01/31 05:03:01.4	91.570	-0.700	0.750	0.600
2020/01/31 05:03:01.5	91.570	-0.670	0.650	0.610
2020/01/31 05:03:01.6	91.570	-0.640	0.530	0.610
2020/01/31 05:03:01.7	91.570	-0.600	0.410	0.620
2020/01/31 05:03:01.8	91.570	-0.550	0.280	0.630
2020/01/31 05:03:01.9	91.570	-0.500	0.150	0.650
2020/01/31 05:03:02.0	91.560	-0.440	0.010	0.660
2020/01/31 05:03:02.1	91.560	-0.380	-0.130	0.670
2020/01/31 05:03:02.2	91.550	-0.310	-0.270	0.690
2020/01/31 05:03:02.3	91.550	-0.240	-0.410	0.700
2020/01/31 05:03:02.4	91.540	-0.170	-0.560	0.720
2020/01/31 05:03:02.5	91.530	-0.100	-0.700	0.740
2020/01/31 05:03:02.6	91.520	-0.030	-0.830	0.750
2020/01/31 05:03:02.7	91.510	0.050	-0.970	0.770
2020/01/31 05:03:02.8	91.500	0.120	-1.090	0.790
2020/01/31 05:03:02.9	91.480	0.200	-1.210	0.810
2020/01/31 05:03:03.0	91.470	0.270	-1.320	0.830
2020/01/31 05:03:03.1	91.460	0.340	-1.420	0.850
2020/01/31 05:03:03.2	91.430	0.400	-1.510	0.870
2020/01/31 05:03:03.3	91.420	0.470	-1.580	0.880
2020/01/31 05:03:03.4	91.410	0.520	-1.640	0.900
2020/01/31 05:03:03.5	91.390	0.570	-1.690	0.920
2020/01/31 05:03:03.6	91.380	0.620	-1.720	0.930
2020/01/31 05:03:03.7	91.360	0.660	-1.740	0.950
2020/01/31 05:03:03.8	91.340	0.690	-1.750	0.960
2020/01/31 05:03:03.9	91.320	0.720	-1.730	0.980
2020/01/31 05:03:04.0	91.310	0.740	-1.700	0.990
2020/01/31 05:03:04.1	91.290	0.750	-1.660	1.000
2020/01/31 05:03:04.2	91.260	0.750	-1.600	1.010
2020/01/31 05:03:04.3	91.250	0.750	-1.530	1.020
2020/01/31 05:03:04.4	91.230	0.740	-1.440	1.020
2020/01/31 05:03:04.5	91.210	0.720	-1.340	1.020
2020/01/31 05:03:04.6	91.200	0.700	-1.230	1.030
2020/01/31 05:03:04.7	91.180	0.660	-1.110	1.020
2020/01/31 05:03:04.8	91.170	0.620	-0.980	1.020
2020/01/31 05:03:04.9	91.150	0.580	-0.850	1.010
2020/01/31 05:03:05.0	91.140	0.530	-0.700	1.010
2020/01/31 05:03:05.1	91.130	0.470	-0.550	0.990
2020/01/31 05:03:05.2	91.120	0.410	-0.400	0.980
2020/01/31 05:03:05.3	91.110	0.350	-0.240	0.970
2020/01/31 05:03:05.4	91.100	0.280	-0.080	0.950
2020/01/31 05:03:05.5	91.090	0.210	0.080	0.930
2020/01/31 05:03:05.6	91.080	0.140	0.230	0.910
2020/01/31 05:03:05.7	91.070	0.060	0.380	0.890
2020/01/31 05:03:05.8	91.070	-0.010	0.530	0.860
2020/01/31 05:03:05.9	91.060	-0.080	0.670	0.840
2020/01/31 05:03:06.0	91.050	-0.160	0.800	0.820
2020/01/31 05:03:06.1	91.040	-0.230	0.930	0.790
2020/01/31 05:03:06.2	91.040	-0.300	1.050	0.770
2020/01/31 05:03:06.3	91.030	-0.370	1.150	0.750
2020/01/31 05:03:06.4	91.030	-0.440	1.240	0.730
2020/01/31 05:03:06.5	91.020	-0.500	1.320	0.700
2020/01/31 05:03:06.6	91.020	-0.550	1.380	0.680
2020/01/31 05:03:06.7	91.020	-0.600	1.430	0.650
2020/01/31 05:03:06.8	91.020	-0.650	1.460	0.620
2020/01/31 05:03:06.9	91.020	-0.690	1.480	0.600
2020/01/31 05:03:07.0	91.020	-0.720	1.480	0.570
2020/01/31 05:03:07.1	91.020	-0.740	1.460	0.540
2020/01/31 05:03:07.2	91.030	-0.760	1.430	0.510
2020/01/31 05:03:07.3	91.040	-0.770	1.380	0.480
2020/01/31 05:03:07.4	91.050	-0.770	1.310	0.440
2020/01/31 05:03:07.5	91.060	-0.770	1.230	0.410
2020/01/31 05:03:07.6	91.080	-0.750	1.130	0.370
2020/01/31 05:03:07.7	91.090	-0.730	1.010	0.330
2020/01/31 05:03:07.8	91.110	-0.700	0.890	0.300
2020/01/31 05:03:07.9	91.120	-0.660	0.740	0.260
2020/01/31 05:03:08.0	91.140	-0.610	0.590	0.230
2020/01/31 05:03:08.1	91.150	-0.560	0.430	0.200
2020/01/31 05:03:08.2	91.160	-0.500	0.260	0.170
2020/01/31 05:03:08.3	91.170	-0.440	0.080	0.140
2020/01/31 05:03:08.4	91.180	-0.370	-0.100	0.120
2020/01/31 05:03:08.5	91.190	-0.290	-0.280	0.110
2020/01/31 05:03:08.6	91.200	-0.220	-0.460	0.090
2020/01/31 05:03:08.7	91.200	-0.140	-0.630	0.090
2020/01/31 05:03:08.8	91.200	-0.060	-0.810	0.080
2020/01/31 05:03:08.9	91.210	0.020	-0.970	0.080
2020/01/31 05:03:09.0	91.200	0.100	-1.130	0.090
2020/01/31 05:03:09.1	91.200	0.180	-1.270	0.100
2020/01/31 05:03:09.2	91.200	0.260	-1.410	0.110
2020/01/31 05:03:09.3	91.190	0.340	-1.530	0.130
2020/01/31 05:03:09.4	91.190	0.410	-1.630	0.160
2020/01/31 05:03:09.5	91.180	0.470	-1.720	0.190
2020/01/31 05:03:09.6	91.170	0.540	-1.790	0.220
2020/01/31 05:03:09.7	91.160	0.590	-1.850	0.260
2020/01/31 05:03:09.8	91.150	0.640	-1.880	0.300
2020/01/31 05:03:09.9	91.130	0.680	-1.900	0.340
2020/01/31 05:03:10.0	91.120	0.720	-1.890	0.390
2020/01/31 05:03:10.1	91.110	0.740	-1.870	0.440
2020/01/31 05:03:10.2	91.090	0.760	-1.830	0.490
2020/01/31 05:03:10.3	91.080	0.780	-1.770	0.540
2020/01/31 05:03:10.4	91.070	0.780	-1.700	0.590
2020/01/31 05:03:10.5	91.060	0.770	-1.620	0.640
2020/01/31 05:03:10.6	91.050	0.760	-1.520	0.690
2020/01/31 05:03:10.7	91.040	0.740	-1.410	0.740
2020/01/31 05:03:10.8	91.030	0.710	-1.290	0.790
2020/01/31 05:03:10.9	91.020	0.680	-1.160	0.830
2020/01/31 05:03:11.0	91.010	0.640	-1.020	0.880
2020/01/31 05:03:11.1	91.010	0.590	-0.880	0.920
2020/01/31 05:03:11.2	90.990	0.530	-0.730	0.950
2020/01/31 05:03:11.3	90.980	0.480	-0.580	0.980
2020/01/31 05:03:11.4	90.980	0.410	-0.430	1.010
2020/01/31 05:03:11.5	90.970	0.350	-0.280	1.040
2020/01/31 05:03:11.6	90.970	0.280	-0.130	1.060
2020/01/31 05:03:11.7	90.960	0.200	0.010	1.070
2020/01/31 05:03:11.8	90.960	0.130	0.150	1.090
2020/01/31 05:03:11.9	90.950	0.050	0.290	1.100
2020/01/31 05:03:12.0	90.940	-0.030	0.420	1.110
2020/01/31 05:03:12.1	90.940	-0.100	0.540	1.120
2020/01/31 05:03:12.2	90.930	-0.180	0.660	1.120
2020/01/31 05:03:12.3	90.930	-0.250	0.770	1.120
2020/01/31 05:03:12.4	90.920	-0.320	0.860	1.120
2020/01/31 05:03:12.5	90.920	-0.390	0.940	1.110
2020/01/31 05:03:12.6	90.910	-0.460	1.020	1.110
2020/01/31 05:03:12.7	90.900	-0.520	1.080	1.100
2020/01/31 05:03:12.8	90.900	-0.580	1.130	1.090
2020/01/31 05:03:12.9	90.900	-0.630	1.160	1.070
2020/01/31 05:03:13.0	90.890	-0.670	1.190	1.060
2020/01/31 05:03:13.1	90.890	-0.710	1.200	1.040
2020/01/31 05:03:13.2	90.890	-0.750	1.200	1.020
2020/01/31 05:03:13.3	90.890	-0.780	1.190	1.000
2020/01/31 05:03:13.4	90.890	-0.800	1.160	0.970
2020/01/31 05:03:13.5	90.890	-0.810	1.130	0.950
2020/01/31 05:03:13.6	90.900	-0.820	1.080	0.920
2020/01/31 05:03:13.7	90.900	-0.820	1.030	0.900
2020/01/31 05:03:13.8	90.900	-0.820	0.960	0.870
2020/01/31 05:03:13.9	90.910	-0.810	0.890	0.850
2020/01/31 05:03:14.0	90.910	-0.790	0.810	0.820
2020/01/31 05:03:14.1	90.910	-0.770	0.720	0.800
2020/01/31 05:03:14.2	90.920	-0.740	0.630	0.770
2020/01/31 05:03:14.3	90.920	-0.710	0.530	0.750
2020/01/31 05:03:14.4	90.920	-0.670	0.430	0.720
2020/01/31 05:03:14.5	90.930	-0.630	0.320	0.700
2020/01/31 05:03:14.6	90.930	-0.590	0.220	0.680
2020/01/31 05:03:14.7	90.930	-0.540	0.100	0.660
2020/01/31 05:03:14.8	90.930	-0.490	-0.010	0.630
2020/01/31 05:03:14.9	90.940	-0.430	-0.120	0.610
2020/01/31 05:03:15.0	90.940	-0.370	-0.230	0.590
2020/01/31 05:03:15.1	90.940	-0.320	-0.350	0.570
2020/01/31 05:03:15.2	90.940	-0.250	-0.470	0.550
2020/01/31 05:03:15.3	90.940	-0.190	-0.570	0.530
2020/01/31 05:03:15.4	90.940	-0.130	-0.680	0.510
2020/01/31 05:03:15.5	90.940	-0.070	-0.780	0.490
2020/01/31 05:03:15.6	90.940	-0.010	-0.870	0.470
2020/01/31 05:03:15.7	90.950	0.050	-0.960	0.450
2020/01/31 05:03:15.8	90.950	0.110	-1.040	0.430
2020/01/31 05:03:15.9	90.950	0.170	-1.120	0.410
2020/01/31 05:03:16.0	90.950	0.220	-1.190	0.390
2020/01/31 05:03:16.1	90.950	0.280	-1.250	0.370
2020/01/31 05:03:16.2	90.950	0.330	-1.300	0.350
2020/01/31 05:03:16.3	90.950	0.380	-1.350	0.340
2020/01/31 05:03:16.4	90.950	0.420	-1.390	0.320
2020/01/31 05:03:16.5	90.960	0.460	-1.410	0.310
2020/01/31 05:03:16.6	90.960	0.500	-1.430	0.310
2020/01/31 05:03:16.7	90.960	0.540	-1.440	0.300
2020/01/31 05:03:16.8	90.970	0.570	-1.440	0.310
2020/01/31 05:03:16.9	90.970	0.590	-1.430	0.310
2020/01/31 05:03:17.0	90.980	0.620	-1.410	0.320
2020/01/31 05:03:17.1	90.980	0.630	-1.390	0.330
2020/01/31 05:03:17.2	90.990	0.650	-1.360	0.350
2020/01/31 05:03:17.3	90.990	0.660	-1.310	0.380
2020/01/31 05:03:17.4	91.000	0.660	-1.260	0.400
2020/01/31 05:03:17.5	91.000	0.670	-1.210	0.430
2020/01/31 05:03:17.6	91.010	0.660	-1.140	0.460
2020/01/31 05:03:17.7	91.010	0.660	-1.070	0.490
2020/01/31 05:03:17.8	91.010	0.640	-0.990	0.530
2020/01/31 05:03:17.9	91.020	0.630	-0.910	0.560
2020/01/31 05:03:18.0	91.020	0.610	-0.830	0.600
2020/01/31 05:03:18.1	91.020	0.590	-0.740	0.630
2020/01/31 05:03:18.2	91.030	0.560	-0.650	0.670
2020/01/31 05:03:18.3	91.030	0.530	-0.560	0.700
2020/01/31 05:03:18.4	91.030	0.500	-0.460	0.730
2020/01/31 05:03:18.5	91.030	0.460	-0.370	0.750
2020/01/31 05:03:18.6	91.030	0.420	-0.280	0.770
2020/01/31 05:03:18.7	91.030	0.380	-0.190	0.790
2020/01/31 05:03:18.8	91.030	0.340	-0.100	0.810
2020/01/31 05:03:18.9	91.030	0.300	-0.010	0.820
2020/01/31 05:03:19.0	91.030	0.250	0.070	0.830
2020/01/31 05:03:19.1	91.030	0.210	0.150	0.830
2020/01/31 05:03:19.2	91.020	0.160	0.230	0.830
2020/01/31 05:03:19.3	91.020	0.120	0.300	0.830
2020/01/31 05:03:19.4	91.010	0.070	0.370	0.830
2020/01/31 05:03:19.5	91.010	0.030	0.430	0.830
2020/01/31 05:03:19.6	91.000	-0.020	0.480	0.830
2020/01/31 05:03:19.7	90.990	-0.060	0.530	0.830
2020/01/31 05:03:19.8	90.990	-0.100	0.580	0.830
2020/01/31 05:03:19.9	90.980	-0.140	0.620	0.830
2020/01/31 05:03:20.0	90.970	-0.180	0.660	0.840
2020/01/31 05:03:20.1	90.950	-0.210	0.690	0.840
2020/01/31 05:03:20.2	90.940	-0.250	0.710	0.850
2020/01/31 05:03:20.3	90.930	-0.280	0.730	0.860
2020/01/31 05:03:20.4	90.910	-0.310	0.750	0.870
2020/01/31 05:03:20.5	90.900	-0.340	0.760	0.880
2020/01/31 05:03:20.6	90.880	-0.360	0.760	0.890
2020/01/31 05:03:20.7	90.860	-0.380	0.770	0.910
2020/01/31 05:03:20.8	90.850	-0.400	0.760	0.920
2020/01/31 05:03:20.9	90.830	-0.420	0.760	0.930
2020/01/31 05:03:21.0	90.810	-0.440	0.750	0.940
2020/01/31 05:03:21.1	90.800	-0.450	0.730	0.940
2020/01/31 05:03:21.2	90.780	-0.460	0.710	0.950
2020/01/31 05:03:21.3	90.770	-0.470	0.690	0.950
2020/01/31 05:03:21.4	90.760	-0.480	0.660	0.950
2020/01/31 05:03:21.5	90.750	-0.480	0.620	0.940
2020/01/31 05:03:21.6	90.740	-0.480	0.590	0.940
2020/01/31 05:03:21.7	90.730	-0.480	0.540	0.920
2020/01/31 05:03:21.8	90.720	-0.470	0.500	0.910
2020/01/31 05:03:21.9	90.720	-0.470	0.450	0.890
2020/01/31 05:03:22.0	90.720	-0.460	0.390	0.860
2020/01/31 05:03:22.1	90.720	-0.450	0.330	0.830
2020/01/31 05:03:22.2	90.730	-0.430	0.270	0.800
2020/01/31 05:03:22.3	90.730	-0.410	0.200	0.770
2020/01/31 05:03:22.4	90.740	-0.400	0.130	0.730
2020/01/31 05:03:22.5	90.740	-0.370	0.050	0.700
2020/01/31 05:03:22.6	90.750	-0.350	-0.030	0.670
2020/01/31 05:03:22.7	90.760	-0.320	-0.110	0.630
2020/01/31 05:03:22.8	90.770	-0.300	-0.190	0.600
2020/01/31 05:03:22.9	90.780	-0.270	-0.270	0.570
2020/01/31 05:03:23.0	90.790	-0.230	-0.360	0.540
2020/01/31 05:03:23.1	90.810	-0.200	-0.440	0.510
2020/01/31 05:03:23.2	90.820	-0.170	-0.540	0.480
2020/01/31 05:03:23.3	90.840	-0.130	-0.620	0.450
2020/01/31 05:03:23.4	90.850	-0.090	-0.700	0.430
2020/01/31 05:03:23.5	90.870	-0.060	-0.780	0.410
2020/01/31 05:03:23.6	90.890	-0.020	-0.860	0.400
2020/01/31 05:03:23.7	90.910	0.020	-0.930	0.380
2020/01/31 05:03:23.8	90.930	0.060	-1.000	0.370
2020/01/31 05:03:23.9	90.950	0.100	-1.070	0.360
2020/01/31 05:03:24.0	90.970	0.140	-1.130	0.350
2020/01/31 05:03:24.1	90.990	0.170	-1.180	0.340
2020/01/31 05:03:24.2	91.010	0.210	-1.220	0.330
2020/01/31 05:03:24.3	91.030	0.240	-1.260	0.330
2020/01/31 05:03:24.4	91.050	0.280	-1.290	0.330
2020/01/31 05:03:24.5	91.080	0.310	-1.320	0.330
2020/01/31 05:03:24.6	91.100	0.340	-1.330	0.340
2020/01/31 05:03:24.7	91.120	0.370	-1.340	0.340
2020/01/31 05:03:24.8	91.140	0.390	-1.330	0.350
2020/01/31 05:03:24.9	91.160	0.410	-1.320	0.370
2020/01/31 05:03:25.0	91.170	0.430	-1.300	0.380
2020/01/31 05:03:25.1	91.180	0.450	-1.270	0.400
2020/01/31 05:03:25.2	91.190	0.460	-1.230	0.420
2020/01/31 05:03:25.3	91.200	0.470	-1.180	0.440
2020/01/31 05:03:25.4	91.200	0.480	-1.120	0.460
2020/01/31 05:03:25.5	91.210	0.480	-1.060	0.480
2020/01/31 05:03:25.6	91.210	0.480	-0.990	0.510
2020/01/31 05:03:25.7	91.200	0.470	-0.910	0.530
2020/01/31 05:03:25.8	91.200	0.460	-0.820	0.560
2020/01/31 05:03:25.9	91.190	0.450	-0.730	0.580
2020/01/31 05:03:26.0	91.180	0.430	-0.630	0.610
2020/01/31 05:03:26.1	91.170	0.410	-0.530	0.630
2020/01/31 05:03:26.2	91.160	0.390	-0.410	0.650
2020/01/31 05:03:26.3	91.140	0.360	-0.310	0.680
2020/01/31 05:03:26.4	91.130	0.330	-0.200	0.700
2020/01/31 05:03:26.5	91.110	0.290	-0.090	0.730
2020/01/31 05:03:26.6	91.100	0.260	0.020	0.750
2020/01/31 05:03:26.7	91.080	0.220	0.130	0.770
2020/01/31 05:03:26.8	91.070	0.180	0.230	0.800
2020/01/31 05:03:26.9	91.050	0.140	0.330	0.820
2020/01/31 05:03:27.0	91.040	0.100	0.420	0.840
2020/01/31 05:03:27.1	91.030	0.050	0.510	0.860
2020/01/31 05:03:27.2	91.020	0.010	0.590	0.870
2020/01/31 05:03:27.3	91.010	-0.030	0.660	0.890
2020/01/31 05:03:27.4	91.000	-0.070	0.720	0.910
2020/01/31 05:03:27.5	90.990	-0.110	0.770	0.920
2020/01/31 05:03:27.6	90.990	-0.140	0.810	0.930
2020/01/31 05:03:27.7	90.980	-0.170	0.840	0.940
2020/01/31 05:03:27.8	90.970	-0.200	0.860	0.950
2020/01/31 05:03:27.9	90.970	-0.230	0.870	0.960
2020/01/31 05:03:28.0	90.960	-0.250	0.860	0.960
2020/01/31 05:03:28.1	90.960	-0.270	0.850	0.960
2020/01/31 05:03:28.2	90.960	-0.290	0.820	0.960
2020/01/31 05:03:28.3	90.950	-0.300	0.790	0.960
2020/01/31 05:03:28.4	90.950	-0.310	0.740	0.950
2020/01/31 05:03:28.5	90.950	-0.320	0.690	0.940
2020/01/31 05:03:28.6	90.950	-0.320	0.620	0.930
2020/01/31 05:03:28.7	90.950	-0.320	0.550	0.910
2020/01/31 05:03:28.8	90.950	-0.310	0.480	0.890
2020/01/31 05:03:28.9	90.950	-0.300	0.390	0.870
2020/01/31 05:03:29.0	90.950	-0.290	0.300	0.840
2020/01/31 05:03:29.1	90.950	-0.270	0.210	0.810
2020/01/31 05:03:29.2	90.950	-0.250	0.110	0.780
2020/01/31 05:03:29.3	90.950	-0.230	0.020	0.750
2020/01/31 05:03:29.4	90.960	-0.210	-0.080	0.710
2020/01/31 05:03:29.5	90.960	-0.180	-0.180	0.670
2020/01/31 05:03:29.6	90.970	-0.160	-0.280	0.640
2020/01/31 05:03:29.7	90.980	-0.130	-0.370	0.600
2020/01/31 05:03:29.8	90.990	-0.100	-0.460	0.570
2020/01/31 05:03:29.9	90.990	-0.070	-0.550	0.530
2020/01/31 05:03:30.0	91.000	-0.030	-0.630	0.500
2020/01/31 05:03:30.1	91.010	-0.000	-0.700	0.470
2020/01/31 05:03:30.2	91.010	0.030	-0.780	0.450
2020/01/31 05:03:30.3	91.020	0.060	-0.840	0.430
2020/01/31 05:03:30.4	91.020	0.090	-0.900	0.410
2020/01/31 05:03:30.5	91.020	0.110	-0.950	0.400
2020/01/31 05:03:30.6	91.020	0.140	-0.990	0.390
2020/01/31 05:03:30.7	91.020	0.160	-1.020	0.390
2020/01/31 05:03:30.8	91.020	0.180	-1.040	0.390
2020/01/31 05:03:30.9	91.020	0.200	-1.050	0.400
2020/01/31 05:03:31.0	91.010	0.210	-1.060	0.410
2020/01/31 05:03:31.1	91.000	0.230	-1.050	0.420
2020/01/31 05:03:31.2	91.000	0.230	-1.040	0.440
2020/01/31 05:03:31.3	90.990	0.240	-1.020	0.460
2020/01/31 05:03:31.4	90.980	0.240	-0.990	0.480
2020/01/31 05:03:31.5	90.960	0.240	-0.950	0.490
2020/01/31 05:03:31.6	90.950	0.230	-0.900	0.510
2020/01/31 05:03:31.7	90.940	0.220	-0.850	0.530
2020/01/31 05:03:31.8	90.920	0.200	-0.790	0.550
2020/01/31 05:03:31.9	90.910	0.180	-0.720	0.570
2020/01/31 05:03:32.0	90.900	0.160	-0.650	0.590
2020/01/31 05:03:32.1	90.880	0.130	-0.570	0.610
2020/01/31 05:03:32.2	90.870	0.110	-0.500	0.630
2020/01/31 05:03:32.3	90.860	0.070	-0.420	0.640
2020/01/31 05:03:32.4	90.850	0.040	-0.340	0.660
2020/01/31 05:03:32.5	90.840	0.010	-0.250	0.670
2020/01/31 05:03:32.6	90.830	-0.030	-0.170	0.690
2020/01/31 05:03:32.7	90.820	-0.070	-0.090	0.700
2020/01/31 05:03:32.8	90.810	-0.110	-0.010	0.710
2020/01/31 05:03:32.9	90.800	-0.140	0.070	0.720
2020/01/31 05:03:33.0	90.790	-0.180	0.140	0.720
2020/01/31 05:03:33.1	90.790	-0.220	0.210	0.730
2020/01/31 05:03:33.2	90.790	-0.250	0.270	0.740
2020/01/31 05:03:33.3	90.790	-0.280	0.330	0.740
2020/01/31 05:03:33.4	90.790	-0.310	0.370	0.740
2020/01/31 05:03:33.5	90.790	-0.340	0.410	0.750
2020/01/31 05:03:33.6	90.790	-0.360	0.440	0.750
2020/01/31 05:03:33.7	90.800	-0.380	0.460	0.750
2020/01/31 05:03:33.8	90.800	-0.400	0.480	0.750
2020/01/31 05:03:33.9	90.810	-0.410	0.480	0.740
2020/01/31 05:03:34.0	90.820	-0.410	0.470	0.740
2020/01/31 05:03:34.1	90.840	-0.420	0.460	0.730
2020/01/31 05:03:34.2	90.850	-0.410	0.430	0.720
2020/01/31 05:03:34.3	90.860	-0.410	0.400	0.710
2020/01/31 05:03:34.4	90.880	-0.390	0.360	0.700
2020/01/31 05:03:34.5	90.900	-0.380	0.310	0.690
2020/01/31 05:03:34.6	90.910	-0.360	0.260	0.680
2020/01/31 05:03:34.7	90.930	-0.330	0.200	0.660
2020/01/31 05:03:34.8	90.940	-0.300	0.130	0.640
2020/01/31 05:03:34.9	90.960	-0.270	0.070	0.630
2020/01/31 05:03:35.0	90.980	-0.240	-0.000	0.610
2020/01/31 05:03:35.1	90.990	-0.200	-0.080	0.590
2020/01/31 05:03:35.2	91.020	-0.160	-0.150	0.560
2020/01/31 05:03:35.3	91.030	-0.120	-0.220	0.540
2020/01/31 05:03:35.4	91.050	-0.080	-0.290	0.510
2020/01/31 05:03:35.5	91.070	-0.040	-0.350	0.490
2020/01/31 05:03:35.6	91.080	0.000	-0.420	0.460
2020/01/31 05:03:35.7	91.100	0.040	-0.470	0.440
2020/01/31 05:03:35.8	91.120	0.080	-0.520	0.410
2020/01/31 05:03:35.9	91.130	0.120	-0.570	0.390
2020/01/31 05:03:36.0	91.150	0.160	-0.610	0.380
2020/01/31 05:03:36.1	91.160	0.190	-0.640	0.360
2020/01/31 05:03:36.2	91.170	0.230	-0.660	0.350
2020/01/31 05:03:36.3	91.180	0.260	-0.680	0.340
2020/01/31 05:03:36.4	91.190	0.290	-0.690	0.340
2020/01/31 05:03:36.5	91.200	0.310	-0.690	0.340
2020/01/31 05:03:36.6	91.210	0.330	-0.690	0.340
2020/01/31 05:03:36.7	91.210	0.350	-0.680	0.350
2020/01/31 05:03:36.8	91.220	0.360	-0.660	0.370
2020/01/31 05:03:36.9	91.220	0.370	-0.630	0.380
2020/01/31 05:03:37.0	91.220	0.380	-0.610	0.400
2020/01/31 05:03:37.1	91.220	0.390	-0.570	0.420
2020/01/31 05:03:37.2	91.220	0.390	-0.530	0.450
2020/01/31 05:03:37.3	91.220	0.390	-0.490	0.480
2020/01/31 05:03:37.4	91.210	0.380	-0.440	0.500
2020/01/31 05:03:37.5	91.210	0.370	-0.400	0.530
2020/01/31 05:03:37.6	91.200	0.360	-0.350	0.560
2020/01/31 05:03:37.7	91.190	0.350	-0.300	0.590
2020/01/31 05:03:37.8	91.180	0.330	-0.250	0.620
2020/01/31 05:03:37.9	91.160	0.310	-0.200	0.640
2020/01/31 05:03:38.0	91.150	0.290	-0.150	0.670
2020/01/31 05:03:38.1	91.130	0.270	-0.100	0.690
2020/01/31 05:03:38.2	91.110	0.240	-0.060	0.710
2020/01/31 05:03:38.3	91.090	0.220	-0.020	0.730
2020/01/31 05:03:38.4	91.060	0.190	0.010	0.740
2020/01/31 05:03:38.5	91.040	0.170	0.050	0.750
2020/01/31 05:03:38.6	91.010	0.140	0.070	0.760
2020/01/31 05:03:38.7	90.990	0.120	0.100	0.770
2020/01/31 05:03:38.8	90.960	0.090	0.120	0.770
2020/01/31 05:03:38.9	90.940	0.070	0.130	0.780
2020/01/31 05:03:39.0	90.910	0.040	0.140	0.770
2020/01/31 05:03:39.1	90.890	0.020	0.140	0.770
2020/01/31 05:03:39.2	90.860	0.000	0.140	0.760
2020/01/31 05:03:39.3	90.840	-0.010	0.130	0.750
2020/01/31 05:03:39.4	90.820	-0.030	0.110	0.740
2020/01/31 05:03:39.5	90.800	-0.040	0.090	0.730
2020/01/31 05:03:39.6	90.780	-0.050	0.060	0.720
2020/01/31 05:03:39.7	90.770	-0.050	0.030	0.700
2020/01/31 05:03:39.8	90.760	-0.060	-0.010	0.690
2020/01/31 05:03:39.9	90.750	-0.060	-0.050	0.670
2020/01/31 05:03:40.0	90.750	-0.060	-0.090	0.650
2020/01/31 05:03:40.1	90.750	-0.050	-0.140	0.630
2020/01/31 05:03:40.2	90.750	-0.040	-0.190	0.600
2020/01/31 05:03:40.3	90.750	-0.030	-0.240	0.580
2020/01/31 05:03:40.4	90.760	-0.020	-0.290	0.550
2020/01/31 05:03:40.5	90.770	-0.010	-0.340	0.530
2020/01/31 05:03:40.6	90.780	0.010	-0.390	0.510
2020/01/31 05:03:40.7	90.800	0.030	-0.440	0.480
2020/01/31 05:03:40.8	90.810	0.050	-0.490	0.460
2020/01/31 05:03:40.9	90.830	0.060	-0.530	0.440
2020/01/31 05:03:41.0	90.850	0.080	-0.570	0.420
2020/01/31 05:03:41.1	90.860	0.100	-0.610	0.390
2020/01/31 05:03:41.2	90.880	0.120	-0.640	0.370
2020/01/31 05:03:41.3	90.900	0.140	-0.670	0.350
2020/01/31 05:03:41.4	90.920	0.160	-0.690	0.330
2020/01/31 05:03:41.5	90.940	0.170	-0.700	0.320
2020/01/31 05:03:41.6	90.960	0.190	-0.720	0.300
2020/01/31 05:03:41.7	90.970	0.200	-0.720	0.290
2020/01/31 05:03:41.8	90.990	0.210	-0.710	0.280
2020/01/31 05:03:41.9	91.000	0.210	-0.700	0.270
2020/01/31 05:03:42.0	91.010	0.220	-0.690	0.270
2020/01/31 05:03:42.1	91.020	0.220	-0.660	0.270
2020/01/31 05:03:42.2	91.030	0.210	-0.640	0.270
2020/01/31 05:03:42.3	91.040	0.210	-0.600	0.280
2020/01/31 05:03:42.4	91.040	0.200	-0.560	0.290
2020/01/31 05:03:42.5	91.050	0.180	-0.510	0.310
2020/01/31 05:03:42.6	91.050	0.170	-0.460	0.330
2020/01/31 05:03:42.7	91.050	0.150	-0.400	0.350
2020/01/31 05:03:42.8	91.050	0.130	-0.340	0.370
2020/01/31 05:03:42.9	91.050	0.100	-0.280	0.400
2020/01/31 05:03:43.0	91.050	0.070	-0.220	0.430
2020/01/31 05:03:43.1	91.050	0.040	-0.150	0.470
2020/01/31 05:03:43.2	91.040	0.010	-0.080	0.510
2020/01/31 05:03:43.3	91.040	-0.020	-0.020	0.540
2020/01/31 05:03:43.4	91.040	-0.060	0.050	0.580
2020/01/31 05:03:43.5	91.030	-0.090	0.110	0.620
2020/01/31 05:03:43.6	91.030	-0.130	0.170	0.660
2020/01/31 05:03:43.7	91.030	-0.170	0.220	0.700
2020/01/31 05:03:43.8	91.030	-0.200	0.270	0.740
2020/01/31 05:03:43.9	91.030	-0.240	0.320	0.780
2020/01/31 05:03:44.0	91.030	-0.270	0.360	0.820
2020/01/31 05:03:44.1	91.030	-0.300	0.390	0.850
2020/01/31 05:03:44.2	91.030	-0.340	0.420	0.880
2020/01/31 05:03:44.3	91.030	-0.360	0.440	0.920
2020/01/31 05:03:44.4	91.040	-0.390	0.450	0.950
2020/01/31 05:03:44.5	91.040	-0.410	0.450	0.980
2020/01/31 05:03:44.6	91.040	-0.430	0.450	1.000
2020/01/31 05:03:44.7	91.040	-0.450	0.440	1.030
2020/01/31 05:03:44.8	91.040	-0.460	0.420	1.050
2020/01/31 05:03:44.9	91.040	-0.470	0.400	1.070
2020/01/31 05:03:45.0	91.030	-0.480	0.360	1.090
2020/01/31 05:03:45.1	91.030	-0.480	0.320	1.110
2020/01/31 05:03:45.2	91.040	-0.480	0.280	1.120
2020/01/31 05:03:45.3	91.030	-0.470	0.220	1.130
2020/01/31 05:03:45.4	91.030	-0.460	0.170	1.140
2020/01/31 05:03:45.5	91.030	-0.450	0.100	1.140
2020/01/31 05:03:45.6	91.030	-0.430	0.040	1.140
2020/01/31 05:03:45.7	91.030	-0.410	-0.030	1.130
2020/01/31 05:03:45.8	91.040	-0.390	-0.100	1.120
2020/01/31 05:03:45.9	91.040	-0.360	-0.180	1.110
2020/01/31 05:03:46.0	91.050	-0.330	-0.250	1.090
2020/01/31 05:03:46.1	91.060	-0.300	-0.320	1.070
2020/01/31 05:03:46.2	91.070	-0.270	-0.390	1.050
2020/01/31 05:03:46.3	91.080	-0.240	-0.450	1.020
2020/01/31 05:03:46.4	91.090	-0.210	-0.520	0.990
2020/01/31 05:03:46.5	91.100	-0.170	-0.570	0.960
2020/01/31 05:03:46.6	91.120	-0.140	-0.620	0.930
2020/01/31 05:03:46.7	91.130	-0.100	-0.670	0.900
2020/01/31 05:03:46.8	91.140	-0.070	-0.700	0.870
2020/01/31 05:03:46.9	91.160	-0.040	-0.730	0.830
2020/01/31 05:03:47.0	91.170	-0.000	-0.750	0.800
2020/01/31 05:03:47.1	91.180	0.030	-0.770	0.770
2020/01/31 05:03:47.2	91.200	0.060	-0.780	0.740
2020/01/31 05:03:47.3	91.210	0.080	-0.780	0.710
2020/01/31 05:03:47.4	91.220	0.110	-0.770	0.690
2020/01/31 05:03:47.5	91.230	0.130	-0.760	0.670
2020/01/31 05:03:47.6	91.240	0.150	-0.740	0.650
2020/01/31 05:03:47.7	91.240	0.170	-0.710	0.630
2020/01/31 05:03:47.8	91.250	0.190	-0.680	0.620
2020/01/31 05:03:47.9	91.250	0.200	-0.640	0.610
2020/01/31 05:03:48.0	91.250	0.210	-0.600	0.600
2020/01/31 05:03:48.1	91.250	0.220	-0.550	0.600
2020/01/31 05:03:48.2	91.250	0.230	-0.500	0.590
2020/01/31 05:03:48.3	91.250	0.230	-0.450	0.590
2020/01/31 05:03:48.4	91.250	0.230	-0.400	0.600
2020/01/31 05:03:48.5	91.240	0.230	-0.350	0.600
2020/01/31 05:03:48.6	91.240	0.230	-0.300	0.610
2020/01/31 05:03:48.7	91.230	0.230	-0.250	0.610
2020/01/31 05:03:48.8	91.230	0.220	-0.200	0.620
2020/01/31 05:03:48.9	91.230	0.210	-0.150	0.620
2020/01/31 05:03:49.0	91.230	0.210	-0.110	0.630
2020/01/31 05:03:49.1	91.220	0.200	-0.070	0.630
2020/01/31 05:03:49.2	91.230	0.190	-0.040	0.640
2020/01/31 05:03:49.3	91.230	0.170	-0.000	0.640
2020/01/31 05:03:49.4	91.230	0.160	0.020	0.640
2020/01/31 05:03:49.5	91.230	0.150	0.050	0.640
2020/01/31 05:03:49.6	91.230	0.140	0.070	0.640
2020/01/31 05:03:49.7	91.230	0.130	0.080	0.640
2020/01/31 05:03:49.8	91.230	0.110	0.090	0.640
2020/01/31 05:03:49.9	91.240	0.100	0.100	0.640
2020/01/31 05:03:50.0	91.240	0.090	0.100	0.640
2020/01/31 05:03:50.1	91.240	0.080	0.100	0.640
2020/01/31 05:03:50.2	91.240	0.070	0.090	0.630
2020/01/31 05:03:50.3	91.240	0.050	0.090	0.630
2020/01/31 05:03:50.4	91.240	0.040	0.080	0.620
2020/01/31 05:03:50.5	91.240	0.030	0.060	0.620
2020/01/31 05:03:50.6	91.240	0.020	0.050	0.620
2020/01/31 05:03:50.7	91.240	0.020	0.040	0.620
2020/01/31 05:03:50.8	91.240	0.010	0.020	0.620
2020/01/31 05:03:50.9	91.240	0.000	-0.000	0.620
2020/01/31 05:03:51.0	91.240	-0.000	-0.020	0.620
2020/01/31 05:03:51.1	91.230	-0.010	-0.040	0.620
2020/01/31 05:03:51.2	91.240	-0.010	-0.060	0.620
2020/01/31 05:03:51.3	91.230	-0.010	-0.080	0.620
2020/01/31 05:03:51.4	91.230	-0.020	-0.100	0.620
2020/01/31 05:03:51.5	91.230	-0.020	-0.130	0.620
2020/01/31 05:03:51.6	91.230	-0.010	-0.150	0.620
2020/01/31 05:03:51.7	91.220	-0.010	-0.170	0.630
2020/01/31 05:03:51.8	91.220	-0.010	-0.200	0.630
2020/01/31 05:03:51.9	91.220	-0.000	-0.220	0.630
2020/01/31 05:03:52.0	91.210	0.000	-0.240	0.640
2020/01/31 05:03:52.1	91.200	0.010	-0.270	0.640
2020/01/31 05:03:52.2	91.190	0.020	-0.290	0.650
2020/01/31 05:03:52.3	91.180	0.030	-0.310	0.660
2020/01/31 05:03:52.4	91.170	0.040	-0.340	0.670
2020/01/31 05:03:52.5	91.160	0.050	-0.360	0.680
2020/01/31 05:03:52.6	91.150	0.060	-0.380	0.690
2020/01/31 05:03:52.7	91.130	0.070	-0.400	0.690
2020/01/31 05:03:52.8	91.120	0.080	-0.430	0.700
2020/01/31 05:03:52.9	91.110	0.090	-0.450	0.710
2020/01/31 05:03:53.0	91.090	0.100	-0.470	0.710
2020/01/31 05:03:53.1	91.080	0.110	-0.490	0.720
2020/01/31 05:03:53.2	91.060	0.120	-0.510	0.720
2020/01/31 05:03:53.3	91.040	0.140	-0.530	0.720
2020/01/31 05:03:53.4	91.030	0.150	-0.550	0.730
2020/01/31 05:03:53.5	91.010	0.160	-0.570	0.730
2020/01/31 05:03:53.6	91.000	0.170	-0.590	0.740
2020/01/31 05:03:53.7	90.990	0.180	-0.600	0.740
2020/01/31 05:03:53.8	90.980	0.190	-0.620	0.740
2020/01/31 05:03:53.9	90.960	0.200	-0.630	0.750
2020/01/31 05:03:54.0	90.960	0.210	-0.640	0.750
2020/01/31 05:03:54.1	90.950	0.220	-0.650	0.750
2020/01/31 05:03:54.2	90.940	0.230	-0.660	0.760
2020/01/31 05:03:54.3	90.940	0.230	-0.660	0.760
2020/01/31 05:03:54.4	90.940	0.240	-0.660	0.760
2020/01/31 05:03:54.5	90.940	0.240	-0.660	0.770
2020/01/31 05:03:54.6	90.940	0.250	-0.660	0.770
2020/01/31 05:03:54.7	90.950	0.250	-0.650	0.770
2020/01/31 05:03:54.8	90.960	0.250	-0.640	0.770
2020/01/31 05:03:54.9	90.980	0.250	-0.620	0.770
2020/01/31 05:03:55.0	91.000	0.250	-0.600	0.770
2020/01/31 05:03:55.1	91.020	0.250	-0.580	0.770
2020/01/31 05:03:55.2	91.030	0.240	-0.560	0.760
2020/01/31 05:03:55.3	91.060	0.230	-0.520	0.760
2020/01/31 05:03:55.4	91.090	0.220	-0.490	0.750
2020/01/31 05:03:55.5	91.110	0.210	-0.450	0.750
2020/01/31 05:03:55.6	91.150	0.200	-0.400	0.740
2020/01/31 05:03:55.7	91.180	0.180	-0.360	0.740
2020/01/31 05:03:55.8	91.210	0.160	-0.310	0.730
2020/01/31 05:03:55.9	91.240	0.140	-0.250	0.720
2020/01/31 05:03:56.0	91.280	0.120	-0.200	0.710
2020/01/31 05:03:56.1	91.320	0.100	-0.140	0.700
2020/01/31 05:03:56.2	91.360	0.070	-0.090	0.690
2020/01/31 05:03:56.3	91.390	0.050	-0.030	0.680
2020/01/31 05:03:56.4	91.430	0.020	0.030	0.670
2020/01/31 05:03:56.5	91.460	-0.010	0.090	0.650
2020/01/31 05:03:56.6	91.500	-0.040	0.140	0.640
2020/01/31 05:03:56.7	91.530	-0.070	0.200	0.630
2020/01/31 05:03:56.8	91.560	-0.100	0.250	0.630
2020/01/31 05:03:56.9	91.590	-0.130	0.300	0.620
2020/01/31 05:03:57.0	91.620	-0.160	0.350	0.610
2020/01/31 05:03:57.1	91.650	-0.190	0.390	0.610
2020/01/31 05:03:57.2	91.690	-0.220	0.420	0.610
2020/01/31 05:03:57.3	91.710	-0.240	0.460	0.610
2020/01/31 05:03:57.4	91.740	-0.270	0.480	0.610
2020/01/31 05:03:57.5	91.760	-0.290	0.500	0.620
2020/01/31 05:03:57.6	91.780	-0.320	0.520	0.620
2020/01/31 05:03:57.7	91.800	-0.340	0.530	0.630
2020/01/31 05:03:57.8	91.820	-0.360	0.530	0.640
2020/01/31 05:03:57.9	91.830	-0.370	0.530	0.650
2020/01/31 05:03:58.0	91.850	-0.390	0.520	0.660
2020/01/31 05:03:58.1	91.860	-0.400	0.500	0.680
2020/01/31 05:03:58.2	91.870	-0.410	0.480	0.690
2020/01/31 05:03:58.3	91.870	-0.420	0.460	0.710
2020/01/31 05:03:58.4	91.880	-0.420	0.430	0.730
2020/01/31 05:03:58.5	91.880	-0.430	0.400	0.740
2020/01/31 05:03:58.6	91.880	-0.430	0.370	0.760
2020/01/31 05:03:58.7	91.880	-0.440	0.330	0.780
2020/01/31 05:03:58.8	91.870	-0.440	0.290	0.790
2020/01/31 05:03:58.9	91.870	-0.440	0.250	0.810
2020/01/31 05:03:59.0	91.860	-0.430	0.210	0.820
2020/01/31 05:03:59.1	91.850	-0.430	0.160	0.830
2020/01/31 05:03:59.2	91.840	-0.430	0.110	0.840
2020/01/31 05:03:59.3	91.830	-0.420	0.060	0.850
2020/01/31 05:03:59.4	91.820	-0.410	0.010	0.860
2020/01/31 05:03:59.5	91.810	-0.400	-0.040	0.860
2020/01/31 05:03:59.6	91.790	-0.390	-0.090	0.870
2020/01/31 05:03:59.7	91.780	-0.380	-0.140	0.870
2020/01/31 05:03:59.8	91.770	-0.370	-0.190	0.870
2020/01/31 05:03:59.9	91.750	-0.360	-0.240	0.870
2020/01/31 05:04:00.0	91.740	-0.340	-0.290	0.870
2020/01/31 05:04:00.1	91.730	-0.320	-0.340	0.870
2020/01/31 05:04:00.2	91.710	-0.300	-0.390	0.860
2020/01/31 05:04:00.3	91.700	-0.280	-0.440	0.860
2020/01/31 05:04:00.4	91.680	-0.260	-0.480	0.850
2020/01/31 05:04:00.5	91.670	-0.230	-0.530	0.850
2020/01/31 05:04:00.6	91.650	-0.210	-0.570	0.840
2020/01/31 05:04:00.7	91.640	-0.180	-0.610	0.830
2020/01/31 05:04:00.8	91.630	-0.150	-0.650	0.820
2020/01/31 05:04:00.9	91.610	-0.120	-0.680	0.810
2020/01/31 05:04:01.0	91.600	-0.090	-0.710	0.790
2020/01/31 05:04:01.1	91.590	-0.060	-0.740	0.770
2020/01/31 05:04:01.2	91.570	-0.020	-0.770	0.760
2020/01/31 05:04:01.3	91.560	0.010	-0.790	0.740
2020/01/31 05:04:01.4	91.540	0.040	-0.800	0.720
2020/01/31 05:04:01.5	91.530	0.070	-0.810	0.700
2020/01/31 05:04:01.6	91.520	0.110	-0.820	0.670
2020/01/31 05:04:01.7	91.520	0.140	-0.820	0.650
2020/01/31 05:04:01.8	91.510	0.170	-0.820	0.620
2020/01/31 05:04:01.9	91.500	0.200	-0.810	0.600
2020/01/31 05:04:02.0	91.500	0.220	-0.810	0.570
2020/01/31 05:04:02.1	91.490	0.250	-0.800	0.540
2020/01/31 05:04:02.2	91.490	0.270	-0.780	0.510
2020/01/31 05:04:02.3	91.490	0.290	-0.770	0.480
2020/01/31 05:04:02.4	91.490	0.310	-0.750	0.450
2020/01/31 05:04:02.5	91.490	0.330	-0.730	0.420
2020/01/31 05:04:02.6	91.500	0.340	-0.710	0.390
2020/01/31 05:04:02.7	91.510	0.360	-0.690	0.350
2020/01/31 05:04:02.8	91.520	0.370	-0.670	0.320
2020/01/31 05:04:02.9	91.530	0.370	-0.650	0.280
2020/01/31 05:04:03.0	91.550	0.380	-0.630	0.240
2020/01/31 05:04:03.1	91.560	0.380	-0.600	0.210
2020/01/31 05:04:03.2	91.580	0.380	-0.580	0.170
2020/01/31 05:04:03.3	91.600	0.370	-0.560	0.130
2020/01/31 05:04:03.4	91.620	0.370	-0.530	0.100
2020/01/31 05:04:03.5	91.640	0.360	-0.500	0.060
2020/01/31 05:04:03.6	91.660	0.340	-0.480	0.030
2020/01/31 05:04:03.7	91.680	0.330	-0.450	0.010
2020/01/31 05:04:03.8	91.700	0.310	-0.410	-0.020
2020/01/31 05:04:03.9	91.720	0.290	-0.380	-0.040
2020/01/31 05:04:04.0	91.740	0.270	-0.350	-0.060
2020/01/31 05:04:04.1	91.760	0.240	-0.310	-0.070
2020/01/31 05:04:04.2	91.770	0.220	-0.270	-0.080
2020/01/31 05:04:04.3	91.790	0.190	-0.230	-0.090
2020/01/31 05:04:04.4	91.810	0.160	-0.180	-0.090
2020/01/31 05:04:04.5	91.820	0.130	-0.140	-0.080
2020/01/31 05:04:04.6	91.830	0.100	-0.090	-0.070
2020/01/31 05:04:04.7	91.840	0.070	-0.050	-0.060
2020/01/31 05:04:04.8	91.850	0.040	-0.000	-0.040
2020/01/31 05:04:04.9	91.860	0.010	0.040	-0.020
2020/01/31 05:04:05.0	91.860	-0.030	0.090	0.000
2020/01/31 05:04:05.1	91.870	-0.060	0.130	0.030
2020/01/31 05:04:05.2	91.870	-0.090	0.170	0.050
2020/01/31 05:04:05.3	91.870	-0.120	0.220	0.080
2020/01/31 05:04:05.4	91.870	-0.150	0.250	0.120
2020/01/31 05:04:05.5	91.870	-0.170	0.290	0.150
2020/01/31 05:04:05.6	91.860	-0.200	0.320	0.180
2020/01/31 05:04:05.7	91.860	-0.220	0.350	0.220
2020/01/31 05:04:05.8	91.850	-0.250	0.370	0.250
2020/01/31 05:04:05.9	91.850	-0.270	0.390	0.290
2020/01/31 05:04:06.0	91.840	-0.280	0.400	0.320
2020/01/31 05:04:06.1	91.830	-0.300	0.410	0.360
2020/01/31 05:04:06.2	91.830	-0.310	0.410	0.400
2020/01/31 05:04:06.3	91.820	-0.320	0.410	0.430
2020/01/31 05:04:06.4	91.810	-0.320	0.400	0.470
2020/01/31 05:04:06.5	91.800	-0.330	0.380	0.500
2020/01/31 05:04:06.6	91.790	-0.330	0.360	0.540
2020/01/31 05:04:06.7	91.780	-0.320	0.330	0.570
2020/01/31 05:04:06.8	91.770	-0.320	0.300	0.610
2020/01/31 05:04:06.9	91.760	-0.310	0.260	0.640
2020/01/31 05:04:07.0	91.760	-0.290	0.210	0.670
2020/01/31 05:04:07.1	91.750	-0.280	0.160	0.690
2020/01/31 05:04:07.2	91.750	-0.260	0.100	0.720
2020/01/31 05:04:07.3	91.750	-0.240	0.040	0.740
2020/01/31 05:04:07.4	91.740	-0.210	-0.020	0.760
2020/01/31 05:04:07.5	91.740	-0.180	-0.090	0.780
2020/01/31 05:04:07.6	91.750	-0.150	-0.160	0.790
2020/01/31 05:04:07.7	91.750	-0.120	-0.240	0.800
2020/01/31 05:04:07.8	91.760	-0.090	-0.310	0.810
2020/01/31 05:04:07.9	91.760	-0.050	-0.390	0.810
2020/01/31 05:04:08.0	91.770	-0.020	-0.460	0.810
2020/01/31 05:04:08.1	91.780	0.020	-0.530	0.810
2020/01/31 05:04:08.2	91.790	0.060	-0.610	0.800
2020/01/31 05:04:08.3	91.800	0.100	-0.680	0.800
2020/01/31 05:04:08.4	91.810	0.130	-0.740	0.790
2020/01/31 05:04:08.5	91.830	0.170	-0.800	0.780
2020/01/31 05:04:08.6	91.840	0.200	-0.850	0.770
2020/01/31 05:04:08.7	91.860	0.240	-0.900	0.760
2020/01/31 05:04:08.8	91.870	0.270	-0.940	0.750
2020/01/31 05:04:08.9	91.880	0.300	-0.970	0.740
2020/01/31 05:04:09.0	91.900	0.330	-1.000	0.740
2020/01/31 05:04:09.1	91.910	0.350	-1.010	0.730
2020/01/31 05:04:09.2	91.910	0.370	-1.020	0.730
2020/01/31 05:04:09.3	91.920	0.390	-1.020	0.720
2020/01/31 05:04:09.4	91.930	0.410	-1.000	0.720
2020/01/31 05:04:09.5	91.930	0.420	-0.980	0.710
2020/01/31 05:04:09.6	91.940	0.420	-0.950	0.710
2020/01/31 05:04:09.7	91.940	0.430	-0.910	0.710
2020/01/31 05:04:09.8	91.940	0.420	-0.860	0.710
2020/01/31 05:04:09.9	91.940	0.420	-0.810	0.710
2020/01/31 05:04:10.0	91.940	0.410	-0.740	0.710
2020/01/31 05:04:10.1	91.940	0.390	-0.670	0.710
2020/01/31 05:04:10.2	91.930	0.370	-0.590	0.710
2020/01/31 05:04:10.3	91.920	0.350	-0.510	0.710
2020/01/31 05:04:10.4	91.910	0.330	-0.420	0.710
2020/01/31 05:04:10.5	91.910	0.300	-0.330	0.720
2020/01/31 05:04:10.6	91.900	0.260	-0.240	0.720
2020/01/31 05:04:10.7	91.890	0.230	-0.140	0.730
2020/01/31 05:04:10.8	91.880	0.190	-0.050	0.730
2020/01/31 05:04:10.9	91.870	0.150	0.040	0.740
2020/01/31 05:04:11.0	91.860	0.100	0.130	0.740
2020/01/31 05:04:11.1	91.850	0.060	0.220	0.750
2020/01/31 05:04:11.2	91.850	0.010	0.310	0.750
2020/01/31 05:04:11.3	91.840	-0.030	0.390	0.750
2020/01/31 05:04:11.4	91.830	-0.080	0.460	0.760
2020/01/31 05:04:11.5	91.820	-0.120	0.530	0.760
2020/01/31 05:04:11.6	91.810	-0.170	0.590	0.760
2020/01/31 05:04:11.7	91.810	-0.210	0.640	0.750
2020/01/31 05:04:11.8	91.800	-0.250	0.690	0.750
2020/01/31 05:04:11.9	91.800	-0.290	0.720	0.740
2020/01/31 05:04:12.0	91.790	-0.330	0.750	0.740
2020/01/31 05:04:12.1	91.790	-0.370	0.770	0.720
2020/01/31 05:04:12.2	91.790	-0.400	0.770	0.710
2020/01/31 05:04:12.3	91.790	-0.420	0.770	0.700
2020/01/31 05:04:12.4	91.780	-0.450	0.760	0.690
2020/01/31 05:04:12.5	91.780	-0.470	0.740	0.670
2020/01/31 05:04:12.6	91.780	-0.480	0.710	0.660
2020/01/31 05:04:12.7	91.780	-0.500	0.680	0.640
2020/01/31 05:04:12.8	91.770	-0.500	0.630	0.630
2020/01/31 05:04:12.9	91.770	-0.510	0.580	0.610
2020/01/31 05:04:13.0	91.770	-0.510	0.520	0.600
2020/01/31 05:04:13.1	91.770	-0.500	0.450	0.580
2020/01/31 05:04:13.2	91.780	-0.490	0.370	0.560
2020/01/31 05:04:13.3	91.780	-0.480	0.290	0.540
2020/01/31 05:04:13.4	91.780	-0.460	0.210	0.530
2020/01/31 05:04:13.5	91.780	-0.440	0.120	0.510
2020/01/31 05:04:13.6	91.790	-0.410	0.030	0.490
2020/01/31 05:04:13.7	91.790	-0.380	-0.060	0.480
2020/01/31 05:04:13.8	91.800	-0.350	-0.160	0.460
2020/01/31 05:04:13.9	91.810	-0.320	-0.250	0.450
2020/01/31 05:04:14.0	91.820	-0.280	-0.350	0.430
2020/01/31 05:04:14.1	91.830	-0.240	-0.450	0.420
2020/01/31 05:04:14.2	91.850	-0.200	-0.540	0.400
2020/01/31 05:04:14.3	91.860	-0.160	-0.630	0.390
2020/01/31 05:04:14.4	91.880	-0.110	-0.720	0.380
2020/01/31 05:04:14.5	91.890	-0.070	-0.800	0.380
2020/01/31 05:04:14.6	91.910	-0.020	-0.880	0.370
2020/01/31 05:04:14.7	91.920	0.020	-0.960	0.370
2020/01/31 05:04:14.8	91.930	0.060	-1.030	0.370
2020/01/31 05:04:14.9	91.950	0.110	-1.090	0.380
2020/01/31 05:04:15.0	91.960	0.150	-1.150	0.390
2020/01/31 05:04:15.1	91.960	0.190	-1.190	0.400
2020/01/31 05:04:15.2	91.960	0.230	-1.240	0.420
2020/01/31 05:04:15.3	91.970	0.270	-1.270	0.440
2020/01/31 05:04:15.4	91.970	0.300	-1.290	0.460
2020/01/31 05:04:15.5	91.970	0.330	-1.300	0.480
2020/01/31 05:04:15.6	91.970	0.360	-1.300	0.510
2020/01/31 05:04:15.7	91.960	0.380	-1.290	0.540
2020/01/31 05:04:15.8	91.950	0.400	-1.270	0.570
2020/01/31 05:04:15.9	91.940	0.410	-1.240	0.610
2020/01/31 05:04:16.0	91.930	0.430	-1.200	0.640
2020/01/31 05:04:16.1	91.910	0.430	-1.160	0.680
2020/01/31 05:04:16.2	91.890	0.430	-1.100	0.710
2020/01/31 05:04:16.3	91.870	0.430	-1.030	0.750
2020/01/31 05:04:16.4	91.850	0.420	-0.950	0.780
2020/01/31 05:04:16.5	91.830	0.410	-0.870	0.820
2020/01/31 05:04:16.6	91.810	0.400	-0.790	0.850
2020/01/31 05:04:16.7	91.790	0.380	-0.690	0.880
2020/01/31 05:04:16.8	91.760	0.350	-0.600	0.920
2020/01/31 05:04:16.9	91.740	0.320	-0.500	0.950
2020/01/31 05:04:17.0	91.720	0.290	-0.400	0.970
2020/01/31 05:04:17.1	91.690	0.260	-0.300	1.000
2020/01/31 05:04:17.2	91.670	0.220	-0.190	1.030
2020/01/31 05:04:17.3	91.650	0.180	-0.090	1.050
2020/01/31 05:04:17.4	91.620	0.140	0.010	1.070
2020/01/31 05:04:17.5	91.600	0.100	0.100	1.080
2020/01/31 05:04:17.6	91.590	0.060	0.190	1.100
2020/01/31 05:04:17.7	91.570	0.020	0.270	1.110
2020/01/31 05:04:17.8	91.550	-0.020	0.340	1.110
2020/01/31 05:04:17.9	91.540	-0.060	0.410	1.110
2020/01/31 05:04:18.0	91.530	-0.100	0.470	1.110
2020/01/31 05:04:18.1	91.530	-0.140	0.520	1.110
2020/01/31 05:04:18.2	91.530	-0.180	0.560	1.090
2020/01/31 05:04:18.3	91.520	-0.210	0.590	1.080
2020/01/31 05:04:18.4	91.530	-0.240	0.610	1.060
2020/01/31 05:04:18.5	91.530	-0.270	0.620	1.040
2020/01/31 05:04:18.6	91.530	-0.290	0.630	1.020
2020/01/31 05:04:18.7	91.540	-0.310	0.620	0.990
2020/01/31 05:04:18.8	91.550	-0.320	0.600	0.960
2020/01/31 05:04:18.9	91.560	-0.330	0.580	0.920
2020/01/31 05:04:19.0	91.570	-0.340	0.550	0.890
2020/01/31 05:04:19.1	91.590	-0.340	0.510	0.850
2020/01/31 05:04:19.2	91.600	-0.330	0.460	0.820
2020/01/31 05:04:19.3	91.610	-0.320	0.410	0.780
2020/01/31 05:04:19.4	91.620	-0.310	0.360	0.740
2020/01/31 05:04:19.5	91.630	-0.300	0.300	0.710
2020/01/31 05:04:19.6	91.640	-0.280	0.240	0.670
2020/01/31 05:04:19.7	91.650	-0.250	0.170	0.640
2020/01/31 05:04:19.8	91.660	-0.230	0.100	0.610
2020/01/31 05:04:19.9	91.670	-0.200	0.040	0.570
2020/01/31 05:04:20.0	91.670	-0.160	-0.030	0.540
2020/01/31 05:04:20.1	91.680	-0.130	-0.100	0.520
2020/01/31 05:04:20.2	91.670	-0.090	-0.160	0.490
2020/01/31 05:04:20.3	91.670	-0.050	-0.220	0.470
2020/01/31 05:04:20.4	91.670	-0.010	-0.280	0.450
2020/01/31 05:04:20.5	91.670	0.030	-0.340	0.430
2020/01/31 05:04:20.6	91.660	0.070	-0.390	0.420
2020/01/31 05:04:20.7	91.660	0.110	-0.440	0.400
2020/01/31 05:04:20.8	91.660	0.150	-0.480	0.400
2020/01/31 05:04:20.9	91.650	0.180	-0.520	0.390
2020/01/31 05:04:21.0	91.650	0.220	-0.550	0.390
2020/01/31 05:04:21.1	91.650	0.250	-0.580	0.390
2020/01/31 05:04:21.2	91.640	0.280	-0.600	0.390
2020/01/31 05:04:21.3	91.640	0.300	-0.610	0.400
2020/01/31 05:04:21.4	91.640	0.330	-0.620	0.410
2020/01/31 05:04:21.5	91.640	0.340	-0.620	0.420
2020/01/31 05:04:21.6	91.640	0.360	-0.610	0.430
2020/01/31 05:04:21.7	91.640	0.370	-0.600	0.450
2020/01/31 05:04:21.8	91.640	0.370	-0.590	0.470
2020/01/31 05:04:21.9	91.650	0.380	-0.560	0.480
2020/01/31 05:04:22.0	91.650	0.370	-0.540	0.500
2020/01/31 05:04:22.1	91.660	0.370	-0.510	0.520
2020/01/31 05:04:22.2	91.670	0.360	-0.480	0.540
2020/01/31 05:04:22.3	91.680	0.340	-0.440	0.560
2020/01/31 05:04:22.4	91.690	0.330	-0.410	0.570
2020/01/31 05:04:22.5	91.700	0.310	-0.370	0.590
2020/01/31 05:04:22.6	91.710	0.280	-0.340	0.600
2020/01/31 05:04:22.7	91.730	0.260	-0.300	0.620
2020/01/31 05:04:22.8	91.740	0.230	-0.260	0.630
2020/01/31 05:04:22.9	91.750	0.200	-0.230	0.640
2020/01/31 05:04:23.0	91.770	0.170	-0.200	0.660
2020/01/31 05:04:23.1	91.780	0.140	-0.170	0.670
2020/01/31 05:04:23.2	91.800	0.100	-0.140	0.680
2020/01/31 05:04:23.3	91.810	0.070	-0.110	0.690
2020/01/31 05:04:23.4	91.820	0.040	-0.090	0.710
2020/01/31 05:04:23.5	91.830	0.010	-0.080	0.720
2020/01/31 05:04:23.6	91.840	-0.020	-0.060	0.740
2020/01/31 05:04:23.7	91.850	-0.040	-0.050	0.750
2020/01/31 05:04:23.8	91.850	-0.070	-0.050	0.770
2020/01/31 05:04:23.9	91.850	-0.090	-0.050	0.790
2020/01/31 05:04:24.0	91.850	-0.110	-0.050	0.810
2020/01/31 05:04:24.1	91.850	-0.130	-0.060	0.830
2020/01/31 05:04:24.2	91.860	-0.140	-0.070	0.850
2020/01/31 05:04:24.3	91.860	-0.150	-0.080	0.870
2020/01/31 05:04:24.4	91.850	-0.160	-0.100	0.890
2020/01/31 05:04:24.5	91.840	-0.170	-0.110	0.910
2020/01/31 05:04:24.6	91.840	-0.170	-0.130	0.930
2020/01/31 05:04:24.7	91.830	-0.180	-0.150	0.950
2020/01/31 05:04:24.8	91.820	-0.180	-0.160	0.970
2020/01/31 05:04:24.9	91.810	-0.180	-0.180	0.990
2020/01/31 05:04:25.0	91.800	-0.180	-0.200	1.000
2020/01/31 05:04:25.1	91.800	-0.180	-0.210	1.020
2020/01/31 05:04:25.2	91.790	-0.170	-0.220	1.030
2020/01/31 05:04:25.3	91.780	-0.170	-0.240	1.050
2020/01/31 05:04:25.4	91.770	-0.170	-0.240	1.060
2020/01/31 05:04:25.5	91.760	-0.170	-0.250	1.070
2020/01/31 05:04:25.6	91.750	-0.160	-0.260	1.080
2020/01/31 05:04:25.7	91.750	-0.160	-0.260	1.090
2020/01/31 05:04:25.8	91.740	-0.160	-0.260	1.100
2020/01/31 05:04:25.9	91.740	-0.160	-0.260	1.100
2020/01/31 05:04:26.0	91.730	-0.160	-0.250	1.110
2020/01/31 05:04:26.1	91.730	-0.160	-0.250	1.110
2020/01/31 05:04:26.2	91.710	-0.160	-0.240	1.110
2020/01/31 05:04:26.3	91.710	-0.160	-0.230	1.110
2020/01/31 05:04:26.4	91.700	-0.160	-0.220	1.110
2020/01/31 05:04:26.5	91.700	-0.170	-0.210	1.110
2020/01/31 05:04:26.6	91.690	-0.170	-0.200	1.100
2020/01/31 05:04:26.7	91.690	-0.170	-0.190	1.100
2020/01/31 05:04:26.8	91.680	-0.170	-0.180	1.090
2020/01/31 05:04:26.9	91.670	-0.170	-0.170	1.080
2020/01/31 05:04:27.0	91.660	-0.170	-0.160	1.070
2020/01/31 05:04:27.1	91.650	-0.170	-0.160	1.060
2020/01/31 05:04:27.2	91.640	-0.170	-0.150	1.050
2020/01/31 05:04:27.3	91.630	-0.160	-0.150	1.040
2020/01/31 05:04:27.4	91.620	-0.160	-0.150	1.030
2020/01/31 05:04:27.5	91.600	-0.150	-0.150	1.020
2020/01/31 05:04:27.6	91.590	-0.150	-0.150	1.000
2020/01/31 05:04:27.7	91.570	-0.140	-0.160	0.990
2020/01/31 05:04:27.8	91.560	-0.130	-0.170	0.980
2020/01/31 05:04:27.9	91.550	-0.110	-0.180	0.970
2020/01/31 05:04:28.0	91.530	-0.100	-0.200	0.960
2020/01/31 05:04:28.1	91.520	-0.080	-0.220	0.940
2020/01/31 05:04:28.2	91.500	-0.060	-0.240	0.930
2020/01/31 05:04:28.3	91.490	-0.040	-0.260	0.920
2020/01/31 05:04:28.4	91.480	-0.020	-0.290	0.900
2020/01/31 05:04:28.5	91.480	0.010	-0.320	0.880
2020/01/31 05:04:28.6	91.470	0.030	-0.360	0.860
2020/01/31 05:04:28.7	91.470	0.060	-0.390	0.840
2020/01/31 05:04:28.8	91.470	0.090	-0.430	0.820
2020/01/31 05:04:28.9	91.470	0.120	-0.470	0.800
2020/01/31 05:04:29.0	91.470	0.140	-0.510	0.770
2020/01/31 05:04:29.1	91.470	0.170	-0.550	0.750
2020/01/31 05:04:29.2	91.470	0.200	-0.600	0.720
2020/01/31 05:04:29.3	91.480	0.230	-0.640	0.690
2020/01/31 05:04:29.4	91.490	0.260	-0.670	0.660
2020/01/31 05:04:29.5	91.490	0.290	-0.710	0.630
2020/01/31 05:04:29.6	91.500	0.310	-0.740	0.610
2020/01/31 05:04:29.7	91.510	0.340	-0.770	0.580
2020/01/31 05:04:29.8	91.510	0.360	-0.790	0.550
2020/01/31 05:04:29.9	91.510	0.370	-0.810	0.530
2020/01/31 05:04:30.0	91.520	0.390	-0.820	0.500
2020/01/31 05:04:30.1	91.520	0.400	-0.820	0.480
2020/01/31 05:04:30.2	91.510	0.400	-0.810	0.460
2020/01/31 05:04:30.3	91.520	0.410	-0.800	0.440
2020/01/31 05:04:30.4	91.520	0.410	-0.780	0.420
2020/01/31 05:04:30.5	91.520	0.400	-0.750	0.400
2020/01/31 05:04:30.6	91.520	0.390	-0.710	0.380
2020/01/31 05:04:30.7	91.530	0.380	-0.670	0.370
2020/01/31 05:04:30.8	91.530	0.360	-0.610	0.360
2020/01/31 05:04:30.9	91.530	0.340	-0.550	0.350
2020/01/31 05:04:31.0	91.530	0.320	-0.480	0.350
2020/01/31 05:04:31.1	91.530	0.290	-0.410	0.350
2020/01/31 05:04:31.2	91.540	0.250	-0.320	0.340
2020/01/31 05:04:31.3	91.540	0.220	-0.240	0.350
2020/01/31 05:04:31.4	91.540	0.180	-0.140	0.350
2020/01/31 05:04:31.5	91.550	0.140	-0.040	0.360
2020/01/31 05:04:31.6	91.550	0.100	0.060	0.370
2020/01/31 05:04:31.7	91.560	0.050	0.160	0.380
2020/01/31 05:04:31.8	91.570	0.010	0.270	0.390
2020/01/31 05:04:31.9	91.580	-0.040	0.370	0.400
2020/01/31 05:04:32.0	91.590	-0.090	0.470	0.410
2020/01/31 05:04:32.1	91.600	-0.140	0.560	0.420
2020/01/31 05:04:32.2	91.610	-0.180	0.660	0.440
2020/01/31 05:04:32.3	91.630	-0.230	0.740	0.450
2020/01/31 05:04:32.4	91.640	-0.270	0.820	0.470
2020/01/31 05:04:32.5	91.660	-0.310	0.880	0.490
2020/01/31 05:04:32.6	91.670	-0.350	0.940	0.500
2020/01/31 05:04:32.7	91.690	-0.380	0.980	0.520
2020/01/31 05:04:32.8	91.710	-0.420	1.010	0.530
2020/01/31 05:04:32.9	91.720	-0.440	1.030	0.550
2020/01/31 05:04:33.0	91.740	-0.470	1.030	0.570
2020/01/31 05:04:33.1	91.760	-0.490	1.020	0.580
2020/01/31 05:04:33.2	91.790	-0.500	1.000	0.590
2020/01/31 05:04:33.3	91.810	-0.510	0.960	0.610
2020/01/31 05:04:33.4	91.820	-0.520	0.910	0.620
2020/01/31 05:04:33.5	91.840	-0.520	0.850	0.630
2020/01/31 05:04:33.6	91.850	-0.510	0.780	0.640
2020/01/31 05:04:33.7	91.870	-0.510	0.700	0.650
2020/01/31 05:04:33.8	91.880	-0.490	0.600	0.660
2020/01/31 05:04:33.9	91.890	-0.480	0.500	0.670
2020/01/31 05:04:34.0	91.900	-0.460	0.400	0.680
2020/01/31 05:04:34.1	91.910	-0.430	0.280	0.690
2020/01/31 05:04:34.2	91.930	-0.400	0.160	0.700
2020/01/31 05:04:34.3	91.940	-0.370	0.040	0.710
2020/01/31 05:04:34.4	91.940	-0.340	-0.080	0.720
2020/01/31 05:04:34.5	91.940	-0.310	-0.200	0.730
2020/01/31 05:04:34.6	91.950	-0.270	-0.310	0.740
2020/01/31 05:04:34.7	91.940	-0.240	-0.420	0.760
2020/01/31 05:04:34.8	91.940	-0.200	-0.530	0.770
2020/01/31 05:04:34.9	91.940	-0.160	-0.630	0.790
2020/01/31 05:04:35.0	91.930	-0.130	-0.730	0.810
2020/01/31 05:04:35.1	91.910	-0.090	-0.810	0.840
2020/01/31 05:04:35.2	91.910	-0.050	-0.890	0.860
2020/01/31 05:04:35.3	91.890	-0.020	-0.960	0.890
2020/01/31 05:04:35.4	91.870	0.010	-1.020	0.920
2020/01/31 05:04:35.5	91.850	0.040	-1.060	0.960
2020/01/31 05:04:35.6	91.820	0.060	-1.100	0.990
2020/01/31 05:04:35.7	91.800	0.090	-1.130	1.030
2020/01/31 05:04:35.8	91.770	0.110	-1.140	1.070
2020/01/31 05:04:35.9	91.740	0.130	-1.150	1.100
2020/01/31 05:04:36.0	91.710	0.140	-1.150	1.140
2020/01/31 05:04:36.1	91.680	0.150	-1.140	1.180
2020/01/31 05:04:36.2	91.640	0.160	-1.100	1.210
2020/01/31 05:04:36.3	91.610	0.170	-1.080	1.240
2020/01/31 05:04:36.4	91.570	0.170	-1.040	1.270
2020/01/31 05:04:36.5	91.540	0.170	-1.000	1.300
2020/01/31 05:04:36.6	91.510	0.170	-0.950	1.320
2020/01/31 05:04:36.7	91.480	0.160	-0.900	1.330
2020/01/31 05:04:36.8	91.440	0.160	-0.840	1.350
2020/01/31 05:04:36.9	91.410	0.150	-0.780	1.360
2020/01/31 05:04:37.0	91.380	0.140	-0.720	1.360
2020/01/31 05:04:37.1	91.360	0.130	-0.660	1.360
2020/01/31 05:04:37.2	91.320	0.120	-0.610	1.350
2020/01/31 05:04:37.3	91.300	0.100	-0.540	1.340
2020/01/31 05:04:37.4	91.270	0.090	-0.490	1.330
2020/01/31 05:04:37.5	91.250	0.080	-0.430	1.310
2020/01/31 05:04:37.6	91.230	0.070	-0.380	1.290
2020/01/31 05:04:37.7	91.220	0.070	-0.330	1.260
2020/01/31 05:04:37.8	91.200	0.060	-0.280	1.230
2020/01/31 05:04:37.9	91.190	0.060	-0.240	1.200
2020/01/31 05:04:38.0	91.180	0.060	-0.210	1.160
2020/01/31 05:04:38.1	91.170	0.060	-0.180	1.120
2020/01/31 05:04:38.2	91.170	0.060	-0.160	1.070
2020/01/31 05:04:38.3	91.160	0.070	-0.140	1.020
2020/01/31 05:04:38.4	91.160	0.080	-0.130	0.970
2020/01/31 05:04:38.5	91.160	0.100	-0.130	0.920
2020/01/31 05:04:38.6	91.160	0.110	-0.130	0.870
2020/01/31 05:04:38.7	91.160	0.140	-0.140	0.820
2020/01/31 05:04:38.8	91.160	0.160	-0.150	0.760
2020/01/31 05:04:38.9	91.170	0.190	-0.170	0.710
2020/01/31 05:04:39.0	91.170	0.220	-0.190	0.660
2020/01/31 05:04:39.1	91.180	0.250	-0.220	0.610
2020/01/31 05:04:39.2	91.180	0.280	-0.250	0.550
2020/01/31 05:04:39.3	91.190	0.320	-0.280	0.510
2020/01/31 05:04:39.4	91.200	0.350	-0.310	0.460
2020/01/31 05:04:39.5	91.210	0.390	-0.340	0.420
2020/01/31 05:04:39.6	91.220	0.430	-0.380	0.380
2020/01/31 05:04:39.7	91.240	0.460	-0.400	0.350
2020/01/31 05:04:39.8	91.250	0.500	-0.430	0.310
2020/01/31 05:04:39.9	91.260	0.530	-0.460	0.290
2020/01/31 05:04:40.0	91.270	0.560	-0.480	0.260
2020/01/31 05:04:40.1	91.280	0.590	-0.490	0.240
2020/01/31 05:04:40.2	91.280	0.620	-0.500	0.220
2020/01/31 05:04:40.3	91.290	0.640	-0.510	0.210
2020/01/31 05:04:40.4	91.300	0.660	-0.510	0.200
2020/01/31 05:04:40.5	91.300	0.670	-0.500	0.200
2020/01/31 05:04:40.6	91.310	0.680	-0.490	0.200
2020/01/31 05:04:40.7	91.310	0.680	-0.470	0.200
2020/01/31 05:04:40.8	91.320	0.680	-0.450	0.210
2020/01/31 05:04:40.9	91.320	0.680	-0.420	0.220
2020/01/31 05:04:41.0	91.320	0.660	-0.390	0.230
2020/01/31 05:04:41.1	91.320	0.650	-0.340	0.240
2020/01/31 05:04:41.2	91.320	0.620	-0.300	0.260
2020/01/31 05:04:41.3	91.320	0.600	-0.250	0.280
2020/01/31 05:04:41.4	91.320	0.560	-0.190	0.300
2020/01/31 05:04:41.5	91.310	0.520	-0.130	0.320
2020/01/31 05:04:41.6	91.310	0.480	-0.070	0.340
2020/01/31 05:04:41.7	91.300	0.430	-0.010	0.360
2020/01/31 05:04:41.8	91.290	0.370	0.050	0.390
2020/01/31 05:04:41.9	91.290	0.320	0.120	0.410
2020/01/31 05:04:42.0	91.280	0.260	0.180	0.430
2020/01/31 05:04:42.1	91.270	0.190	0.240	0.450
2020/01/31 05:04:42.2	91.260	0.130	0.300	0.470
2020/01/31 05:04:42.3	91.260	0.060	0.350	0.500
2020/01/31 05:04:42.4	91.250	-0.010	0.410	0.520
2020/01/31 05:04:42.5	91.250	-0.080	0.450	0.540
2020/01/31 05:04:42.6	91.240	-0.150	0.490	0.560
2020/01/31 05:04:42.7	91.240	-0.220	0.530	0.580
2020/01/31 05:04:42.8	91.240	-0.280	0.560	0.600
2020/01/31 05:04:42.9	91.240	-0.340	0.580	0.620
2020/01/31 05:04:43.0	91.250	-0.400	0.590	0.630
2020/01/31 05:04:43.1	91.250	-0.460	0.600	0.650
2020/01/31 05:04:43.2	91.260	-0.510	0.600	0.670
2020/01/31 05:04:43.3	91.270	-0.560	0.590	0.690
2020/01/31 05:04:43.4	91.270	-0.600	0.570	0.710
2020/01/31 05:04:43.5	91.280	-0.640	0.540	0.720
2020/01/31 05:04:43.6	91.290	-0.680	0.510	0.740
2020/01/31 05:04:43.7	91.310	-0.700	0.470	0.750
2020/01/31 05:04:43.8	91.320	-0.720	0.420	0.770
2020/01/31 05:04:43.9	91.330	-0.740	0.360	0.780
2020/01/31 05:04:44.0	91.340	-0.750	0.310	0.800
2020/01/31 05:04:44.1	91.350	-0.760	0.240	0.810
2020/01/31 05:04:44.2	91.370	-0.760	0.180	0.820
2020/01/31 05:04:44.3	91.380	-0.750	0.110	0.840
2020/01/31 05:04:44.4	91.380	-0.740	0.040	0.850
2020/01/31 05:04:44.5	91.390	-0.730	-0.020	0.870
2020/01/31 05:04:44.6	91.390	-0.720	-0.090	0.890
2020/01/31 05:04:44.7	91.390	-0.700	-0.150	0.900
2020/01/31 05:04:44.8	91.390	-0.680	-0.210	0.920
2020/01/31 05:04:44.9	91.390	-0.660	-0.270	0.940
2020/01/31 05:04:45.0	91.390	-0.630	-0.330	0.950
2020/01/31 05:04:45.1	91.380	-0.610	-0.380	0.970
2020/01/31 05:04:45.2	91.380	-0.580	-0.430	0.980
2020/01/31 05:04:45.3	91.380	-0.560	-0.470	1.000
2020/01/31 05:04:45.4	91.370	-0.530	-0.500	1.010
2020/01/31 05:04:45.5	91.370	-0.500	-0.530	1.020
2020/01/31 05:04:45.6	91.360	-0.480	-0.550	1.030
2020/01/31 05:04:45.7	91.360	-0.450	-0.570	1.040
2020/01/31 05:04:45.8	91.350	-0.430	-0.590	1.040
2020/01/31 05:04:45.9	91.340	-0.400	-0.590	1.050
2020/01/31 05:04:46.0	91.340	-0.380	-0.600	1.050
2020/01/31 05:04:46.1	91.330	-0.360	-0.600	1.050
2020/01/31 05:04:46.2	91.330	-0.340	-0.590	1.050
2020/01/31 05:04:46.3	91.320	-0.320	-0.580	1.050
2020/01/31 05:04:46.4	91.320	-0.300	-0.570	1.040
2020/01/31 05:04:46.5	91.320	-0.280	-0.560	1.030
2020/01/31 05:04:46.6	91.310	-0.270	-0.540	1.030
2020/01/31 05:04:46.7	91.310	-0.260	-0.520	1.010
2020/01/31 05:04:46.8	91.310	-0.240	-0.500	1.000
2020/01/31 05:04:46.9	91.310	-0.230	-0.470	0.990
2020/01/31 05:04:47.0	91.310	-0.220	-0.450	0.970
2020/01/31 05:04:47.1	91.310	-0.210	-0.420	0.950
2020/01/31 05:04:47.2	91.310	-0.200	-0.390	0.930
2020/01/31 05:04:47.3	91.310	-0.190	-0.360	0.910
2020/01/31 05:04:47.4	91.310	-0.180	-0.330	0.890
2020/01/31 05:04:47.5	91.310	-0.170	-0.310	0.870
2020/01/31 05:04:47.6	91.310	-0.160	-0.280	0.850
2020/01/31 05:04:47.7	91.300	-0.150	-0.260	0.830
2020/01/31 05:04:47.8	91.300	-0.140	-0.230	0.810
2020/01/31 05:04:47.9	91.290	-0.130	-0.210	0.790
2020/01/31 05:04:48.0	91.280	-0.120	-0.190	0.770
2020/01/31 05:04:48.1	91.270	-0.110	-0.180	0.750
2020/01/31 05:04:48.2	91.270	-0.100	-0.160	0.730
2020/01/31 05:04:48.3	91.260	-0.090	-0.160	0.710
2020/01/31 05:04:48.4	91.240	-0.070	-0.150	0.690
2020/01/31 05:04:48.5	91.230	-0.060	-0.150	0.660
2020/01/31 05:04:48.6	91.220	-0.040	-0.150	0.640
2020/01/31 05:04:48.7	91.200	-0.030	-0.160	0.610
2020/01/31 05:04:48.8	91.190	-0.010	-0.170	0.580
2020/01/31 05:04:48.9	91.170	0.010	-0.190	0.550
2020/01/31 05:04:49.0	91.160	0.030	-0.210	0.520
2020/01/31 05:04:49.1	91.140	0.050	-0.230	0.490
2020/01/31 05:04:49.2	91.130	0.070	-0.260	0.450
2020/01/31 05:04:49.3	91.120	0.100	-0.290	0.420
2020/01/31 05:04:49.4	91.110	0.120	-0.330	0.380
2020/01/31 05:04:49.5	91.110	0.150	-0.360	0.340
2020/01/31 05:04:49.6	91.100	0.180	-0.400	0.300
2020/01/31 05:04:49.7	91.100	0.200	-0.440	0.270
2020/01/31 05:04:49.8	91.100	0.230	-0.480	0.230
2020/01/31 05:04:49.9	91.110	0.260	-0.520	0.200
2020/01/31 05:04:50.0	91.110	0.290	-0.560	0.170
2020/01/31 05:04:50.1	91.120	0.310	-0.590	0.140
2020/01/31 05:04:50.2	91.130	0.340	-0.630	0.110
2020/01/31 05:04:50.3	91.140	0.370	-0.660	0.090
2020/01/31 05:04:50.4	91.150	0.390	-0.690	0.080
2020/01/31 05:04:50.5	91.160	0.420	-0.710	0.070
2020/01/31 05:04:50.6	91.170	0.440	-0.730	0.060
2020/01/31 05:04:50.7	91.170	0.460	-0.750	0.060
2020/01/31 05:04:50.8	91.180	0.480	-0.760	0.060
2020/01/31 05:04:50.9	91.190	0.490	-0.770	0.070
2020/01/31 05:04:51.0	91.200	0.510	-0.770	0.080
2020/01/31 05:04:51.1	91.200	0.520	-0.760	0.100
2020/01/31 05:04:51.2	91.200	0.530	-0.750	0.120
2020/01/31 05:04:51.3	91.200	0.530	-0.730	0.140
2020/01/31 05:04:51.4	91.200	0.540	-0.710	0.170
2020/01/31 05:04:51.5	91.200	0.540	-0.680	0.200
2020/01/31 05:04:51.6	91.200	0.530	-0.640	0.230
2020/01/31 05:04:51.7	91.200	0.530	-0.610	0.260
2020/01/31 05:04:51.8	91.190	0.520	-0.560	0.290
2020/01/31 05:04:51.9	91.190	0.510	-0.520	0.320
2020/01/31 05:04:52.0	91.180	0.490	-0.460	0.350
2020/01/31 05:04:52.1	91.170	0.480	-0.410	0.380
2020/01/31 05:04:52.2	91.170	0.460	-0.360	0.400
2020/01/31 05:04:52.3	91.160	0.440	-0.300	0.430
2020/01/31 05:04:52.4	91.150	0.410	-0.240	0.460
2020/01/31 05:04:52.5	91.150	0.390	-0.180	0.480
2020/01/31 05:04:52.6	91.140	0.360	-0.120	0.500
2020/01/31 05:04:52.7	91.130	0.330	-0.070	0.530
2020/01/31 05:04:52.8	91.120	0.300	-0.010	0.550
2020/01/31 05:04:52.9	91.110	0.270	0.040	0.570
2020/01/31 05:04:53.0	91.100	0.240	0.090	0.590
2020/01/31 05:04:53.1	91.090	0.210	0.140	0.610
2020/01/31 05:04:53.2	91.090	0.180	0.180	0.620
2020/01/31 05:04:53.3	91.080	0.150	0.220	0.640
2020/01/31 05:04:53.4	91.070	0.120	0.250	0.660
2020/01/31 05:04:53.5	91.070	0.090	0.280	0.670
2020/01/31 05:04:53.6	91.060	0.060	0.300	0.690
2020/01/31 05:04:53.7	91.050	0.040	0.320	0.700
2020/01/31 05:04:53.8	91.050	0.010	0.330	0.710
2020/01/31 05:04:53.9	91.040	-0.010	0.340	0.730
2020/01/31 05:04:54.0	91.040	-0.040	0.340	0.740
2020/01/31 05:04:54.1	91.040	-0.060	0.340	0.760
2020/01/31 05:04:54.2	91.030	-0.080	0.330	0.760
2020/01/31 05:04:54.3	91.030	-0.100	0.320	0.780
2020/01/31 05:04:54.4	91.030	-0.110	0.300	0.790
2020/01/31 05:04:54.5	91.030	-0.130	0.280	0.800
2020/01/31 05:04:54.6	91.040	-0.140	0.260	0.810
2020/01/31 05:04:54.7	91.040	-0.150	0.240	0.820
2020/01/31 05:04:54.8	91.050	-0.160	0.210	0.820
2020/01/31 05:04:54.9	91.060	-0.170	0.190	0.830
2020/01/31 05:04:55.0	91.060	-0.170	0.160	0.830
2020/01/31 05:04:55.1	91.070	-0.180	0.130	0.830
2020/01/31 05:04:55.2	91.080	-0.180	0.090	0.830
2020/01/31 05:04:55.3	91.090	-0.180	0.060	0.830
2020/01/31 05:04:55.4	91.100	-0.180	0.020	0.820
2020/01/31 05:04:55.5	91.110	-0.170	-0.010	0.810
2020/01/31 05:04:55.6	91.120	-0.170	-0.050	0.800
2020/01/31 05:04:55.7	91.140	-0.160	-0.080	0.780
2020/01/31 05:04:55.8	91.150	-0.150	-0.120	0.770
2020/01/31 05:04:55.9	91.160	-0.140	-0.150	0.750
2020/01/31 05:04:56.0	91.180	-0.130	-0.190	0.730
2020/01/31 05:04:56.1	91.190	-0.110	-0.220	0.710
2020/01/31 05:04:56.2	91.200	-0.100	-0.250	0.680
2020/01/31 05:04:56.3	91.220	-0.080	-0.280	0.660
2020/01/31 05:04:56.4	91.230	-0.060	-0.310	0.640
2020/01/31 05:04:56.5	91.250	-0.050	-0.340	0.620
2020/01/31 05:04:56.6	91.260	-0.030	-0.370	0.610
2020/01/31 05:04:56.7	91.280	-0.010	-0.400	0.590
2020/01/31 05:04:56.8	91.290	0.010	-0.420	0.580
2020/01/31 05:04:56.9	91.300	0.030	-0.440	0.570
2020/01/31 05:04:57.0	91.310	0.050	-0.460	0.570
2020/01/31 05:04:57.1	91.330	0.070	-0.480	0.560
2020/01/31 05:04:57.2	91.340	0.090	-0.500	0.560
2020/01/31 05:04:57.3	91.350	0.100	-0.510	0.570
2020/01/31 05:04:57.4	91.360	0.120	-0.520	0.570
2020/01/31 05:04:57.5	91.370	0.140	-0.530	0.580
2020/01/31 05:04:57.6	91.370	0.150	-0.530	0.590
2020/01/31 05:04:57.7	91.380	0.160	-0.530	0.610
2020/01/31 05:04:57.8	91.390	0.170	-0.530	0.630
2020/01/31 05:04:57.9	91.400	0.180	-0.530	0.650
2020/01/31 05:04:58.0	91.400	0.180	-0.520	0.670
2020/01/31 05:04:58.1	91.410	0.180	-0.520	0.690
2020/01/31 05:04:58.2	91.410	0.180	-0.510	0.720
2020/01/31 05:04:58.3	91.420	0.180	-0.490	0.740
2020/01/31 05:04:58.4	91.420	0.170	-0.480	0.770
2020/01/31 05:04:58.5	91.420	0.160	-0.460	0.800
2020/01/31 05:04:58.6	91.420	0.150	-0.440	0.830
2020/01/31 05:04:58.7	91.420	0.130	-0.420	0.860
2020/01/31 05:04:58.8	91.420	0.110	-0.390	0.890
2020/01/31 05:04:58.9	91.420	0.090	-0.360	0.920
2020/01/31 05:04:59.0	91.420	0.070	-0.330	0.940
2020/01/31 05:04:59.1	91.410	0.040	-0.300	0.970
2020/01/31 05:04:59.2	91.410	0.000	-0.260	0.990
2020/01/31 05:04:59.3	91.400	-0.030	-0.220	1.010
2020/01/31 05:04:59.4	91.390	-0.070	-0.190	1.030
2020/01/31 05:04:59.5	91.390	-0.110	-0.150	1.050
2020/01/31 05:04:59.6	91.380	-0.150	-0.110	1.060
2020/01/31 05:04:59.7	91.370	-0.190	-0.070	1.080
2020/01/31 05:04:59.8	91.360	-0.240	-0.030	1.090
2020/01/31 05:04:59.9	91.350	-0.280	0.010	1.090
2020/01/31 05:05:00.0	91.340	-0.330	0.050	1.100
2020/01/31 05:05:00.1	91.330	-0.370	0.080	1.100
2020/01/31 05:05:00.2	91.320	-0.410	0.120	1.100
2020/01/31 05:05:00.3	91.310	-0.460	0.150	1.100
2020/01/31 05:05:00.4	91.300	-0.500	0.180	1.100
2020/01/31 05:05:00.5	91.290	-0.540	0.200	1.100
2020/01/31 05:05:00.6	91.290	-0.570	0.230	1.100
2020/01/31 05:05:00.7	91.280	-0.610	0.250	1.100
2020/01/31 05:05:00.8	91.270	-0.630	0.260	1.090
2020/01/31 05:05:00.9	91.270	-0.660	0.270	1.090
2020/01/31 05:05:01.0	91.260	-0.680	0.280	1.080
2020/01/31 05:05:01.1	91.260	-0.700	0.280	1.070
2020/01/31 05:05:01.2	91.250	-0.710	0.280	1.060
2020/01/31 05:05:01.3	91.250	-0.710	0.270	1.050
2020/01/31 05:05:01.4	91.250	-0.710	0.250	1.040
2020/01/31 05:05:01.5	91.240	-0.710	0.230	1.020
2020/01/31 05:05:01.6	91.240	-0.700	0.200	1.010
2020/01/31 05:05:01.7	91.240	-0.680	0.160	0.990
2020/01/31 05:05:01.8	91.250	-0.660	0.120	0.970
2020/01/31 05:05:01.9	91.250	-0.630	0.080	0.940
2020/01/31 05:05:02.0	91.250	-0.590	0.020	0.920
2020/01/31 05:05:02.1	91.260	-0.550	-0.030	0.890
2020/01/31 05:05:02.2	91.270	-0.510	-0.100	0.860
2020/01/31 05:05:02.3	91.280	-0.460	-0.160	0.820
2020/01/31 05:05:02.4	91.290	-0.410	-0.230	0.790
2020/01/31 05:05:02.5	91.300	-0.350	-0.300	0.750
2020/01/31 05:05:02.6	91.320	-0.290	-0.370	0.710
2020/01/31 05:05:02.7	91.330	-0.230	-0.440	0.670
2020/01/31 05:05:02.8	91.340	-0.170	-0.510	0.630
2020/01/31 05:05:02.9	91.360	-0.110	-0.570	0.590
2020/01/31 05:05:03.0	91.370	-0.050	-0.630	0.550
2020/01/31 05:05:03.1	91.380	0.010	-0.690	0.520
2020/01/31 05:05:03.2	91.390	0.070	-0.750	0.480
2020/01/31 05:05:03.3	91.400	0.130	-0.790	0.450
2020/01/31 05:05:03.4	91.410	0.190	-0.840	0.420
2020/01/31 05:05:03.5	91.410	0.240	-0.870	0.400
2020/01/31 05:05:03.6	91.420	0.290	-0.900	0.380
2020/01/31 05:05:03.7	91.420	0.330	-0.920	0.360
2020/01/31 05:05:03.8	91.410	0.370	-0.930	0.340
2020/01/31 05:05:03.9	91.410	0.410	-0.930	0.330
2020/01/31 05:05:04.0	91.400	0.440	-0.930	0.320
2020/01/31 05:05:04.1	91.380	0.460	-0.920	0.310
2020/01/31 05:05:04.2	91.360	0.480	-0.900	0.300
2020/01/31 05:05:04.3	91.340	0.490	-0.870	0.300
2020/01/31 05:05:04.4	91.320	0.500	-0.830	0.300
2020/01/31 05:05:04.5	91.300	0.500	-0.790	0.290
2020/01/31 05:05:04.6	91.270	0.500	-0.740	0.290
2020/01/31 05:05:04.7	91.250	0.490	-0.680	0.290
2020/01/31 05:05:04.8	91.220	0.480	-0.620	0.300
2020/01/31 05:05:04.9	91.190	0.460	-0.560	0.300
2020/01/31 05:05:05.0	91.160	0.440	-0.490	0.300
2020/01/31 05:05:05.1	91.140	0.410	-0.420	0.310
2020/01/31 05:05:05.2	91.110	0.380	-0.350	0.310
2020/01/31 05:05:05.3	91.090	0.350	-0.280	0.310
2020/01/31 05:05:05.4	91.060	0.320	-0.210	0.320
2020/01/31 05:05:05.5	91.040	0.280	-0.140	0.320
2020/01/31 05:05:05.6	91.020	0.240	-0.080	0.330
2020/01/31 05:05:05.7	91.010	0.210	-0.020	0.330
2020/01/31 05:05:05.8	90.990	0.170	0.040	0.330
2020/01/31 05:05:05.9	90.980	0.130	0.090	0.330
2020/01/31 05:05:06.0	90.980	0.100	0.130	0.330
2020/01/31 05:05:06.1	90.970	0.060	0.170	0.330
2020/01/31 05:05:06.2	90.970	0.030	0.200	0.320
2020/01/31 05:05:06.3	90.970	-0.000	0.220	0.320
2020/01/31 05:05:06.4	90.970	-0.030	0.230	0.310
2020/01/31 05:05:06.5	90.970	-0.050	0.230	0.310
2020/01/31 05:05:06.6	90.980	-0.070	0.230	0.310
2020/01/31 05:05:06.7	90.990	-0.090	0.220	0.300
2020/01/31 05:05:06.8	90.990	-0.100	0.200	0.300
2020/01/31 05:05:06.9	91.000	-0.100	0.170	0.300
2020/01/31 05:05:07.0	91.010	-0.110	0.140	0.300
2020/01/31 05:05:07.1	91.020	-0.110	0.100	0.310
2020/01/31 05:05:07.2	91.030	-0.100	0.060	0.310
2020/01/31 05:05:07.3	91.040	-0.090	0.010	0.320
2020/01/31 05:05:07.4	91.050	-0.080	-0.040	0.330
2020/01/31 05:05:07.5	91.060	-0.060	-0.100	0.350
2020/01/31 05:05:07.6	91.070	-0.040	-0.150	0.360
2020/01/31 05:05:07.7	91.080	-0.020	-0.210	0.380
2020/01/31 05:05:07.8	91.090	0.010	-0.270	0.400
2020/01/31 05:05:07.9	91.100	0.040	-0.320	0.420
2020/01/31 05:05:08.0	91.100	0.070	-0.370	0.440
2020/01/31 05:05:08.1	91.110	0.100	-0.420	0.470
2020/01/31 05:05:08.2	91.120	0.130	-0.460	0.490
2020/01/31 05:05:08.3	91.120	0.160	-0.500	0.520
2020/01/31 05:05:08.4	91.130	0.190	-0.540	0.540
2020/01/31 05:05:08.5	91.130	0.210	-0.560	0.570
2020/01/31 05:05:08.6	91.130	0.240	-0.580	0.590
2020/01/31 05:05:08.7	91.130	0.260	-0.590	0.620
2020/01/31 05:05:08.8	91.130	0.280	-0.600	0.650
2020/01/31 05:05:08.9	91.120	0.290	-0.600	0.670
2020/01/31 05:05:09.0	91.120	0.300	-0.590	0.700
2020/01/31 05:05:09.1	91.120	0.310	-0.570	0.730
2020/01/31 05:05:09.2	91.120	0.310	-0.550	0.750
2020/01/31 05:05:09.3	91.110	0.310	-0.510	0.780
2020/01/31 05:05:09.4	91.110	0.300	-0.480	0.800
2020/01/31 05:05:09.5	91.110	0.290	-0.430	0.820
2020/01/31 05:05:09.6	91.110	0.270	-0.380	0.840
2020/01/31 05:05:09.7	91.110	0.250	-0.330	0.870
2020/01/31 05:05:09.8	91.110	0.220	-0.270	0.890
2020/01/31 05:05:09.9	91.110	0.200	-0.210	0.910
2020/01/31 05:05:10.0	91.110	0.160	-0.150	0.930
2020/01/31 05:05:10.1	91.110	0.130	-0.090	0.950
2020/01/31 05:05:10.2	91.110	0.090	-0.030	0.960
2020/01/31 05:05:10.3	91.120	0.050	0.040	0.980
2020/01/31 05:05:10.4	91.120	0.000	0.100	1.000
2020/01/31 05:05:10.5	91.130	-0.040	0.150	1.010
2020/01/31 05:05:10.6	91.130	-0.080	0.210	1.020
2020/01/31 05:05:10.7	91.140	-0.130	0.260	1.030
2020/01/31 05:05:10.8	91.140	-0.170	0.310	1.040
2020/01/31 05:05:10.9	91.150	-0.210	0.350	1.050
2020/01/31 05:05:11.0	91.150	-0.250	0.380	1.060
2020/01/31 05:05:11.1	91.160	-0.280	0.420	1.060
2020/01/31 05:05:11.2	91.180	-0.320	0.440	1.060
2020/01/31 05:05:11.3	91.180	-0.350	0.460	1.060
2020/01/31 05:05:11.4	91.190	-0.370	0.470	1.060
2020/01/31 05:05:11.5	91.190	-0.390	0.470	1.060
2020/01/31 05:05:11.6	91.200	-0.410	0.470	1.050
2020/01/31 05:05:11.7	91.200	-0.420	0.460	1.040
2020/01/31 05:05:11.8	91.210	-0.430	0.440	1.020
2020/01/31 05:05:11.9	91.220	-0.430	0.420	1.010
2020/01/31 05:05:12.0	91.230	-0.430	0.390	0.990
2020/01/31 05:05:12.1	91.240	-0.420	0.360	0.970
2020/01/31 05:05:12.2	91.260	-0.410	0.320	0.940
2020/01/31 05:05:12.3	91.270	-0.390	0.270	0.920
2020/01/31 05:05:12.4	91.280	-0.370	0.220	0.890
2020/01/31 05:05:12.5	91.290	-0.340	0.160	0.870
2020/01/31 05:05:12.6	91.300	-0.310	0.100	0.840
2020/01/31 05:05:12.7	91.310	-0.270	0.040	0.820
2020/01/31 05:05:12.8	91.330	-0.230	-0.020	0.790
2020/01/31 05:05:12.9	91.340	-0.190	-0.090	0.760
2020/01/31 05:05:13.0	91.350	-0.140	-0.160	0.740
2020/01/31 05:05:13.1	91.370	-0.100	-0.230	0.710
2020/01/31 05:05:13.2	91.380	-0.050	-0.310	0.690
2020/01/31 05:05:13.3	91.400	-0.000	-0.380	0.670
2020/01/31 05:05:13.4	91.410	0.040	-0.450	0.650
2020/01/31 05:05:13.5	91.430	0.090	-0.510	0.630
2020/01/31 05:05:13.6	91.440	0.140	-0.580	0.620
2020/01/31 05:05:13.7	91.450	0.190	-0.640	0.610
2020/01/31 05:05:13.8	91.470	0.230	-0.700	0.600
2020/01/31 05:05:13.9	91.480	0.270	-0.750	0.590
2020/01/31 05:05:14.0	91.490	0.310	-0.800	0.590
2020/01/31 05:05:14.1	91.500	0.340	-0.840	0.580
2020/01/31 05:05:14.2	91.500	0.370	-0.880	0.580
2020/01/31 05:05:14.3	91.510	0.400	-0.910	0.580
2020/01/31 05:05:14.4	91.520	0.430	-0.940	0.580
2020/01/31 05:05:14.5	91.530	0.450	-0.960	0.590
2020/01/31 05:05:14.6	91.540	0.460	-0.970	0.590
2020/01/31 05:05:14.7	91.540	0.470	-0.980	0.590
2020/01/31 05:05:14.8	91.550	0.480	-0.980	0.590
2020/01/31 05:05:14.9	91.560	0.480	-0.970	0.590
2020/01/31 05:05:15.0	91.560	0.480	-0.960	0.590
2020/01/31 05:05:15.1	91.560	0.470	-0.940	0.590
2020/01/31 05:05:15.2	91.560	0.460	-0.920	0.580
2020/01/31 05:05:15.3	91.560	0.450	-0.890	0.580
2020/01/31 05:05:15.4	91.560	0.430	-0.850	0.580
2020/01/31 05:05:15.5	91.560	0.410	-0.810	0.580
2020/01/31 05:05:15.6	91.560	0.380	-0.760	0.570
2020/01/31 05:05:15.7	91.550	0.350	-0.710	0.570
2020/01/31 05:05:15.8	91.550	0.320	-0.660	0.570
2020/01/31 05:05:15.9	91.540	0.290	-0.600	0.560
2020/01/31 05:05:16.0	91.540	0.260	-0.540	0.560
2020/01/31 05:05:16.1	91.530	0.220	-0.480	0.560
2020/01/31 05:05:16.2	91.520	0.180	-0.410	0.560
2020/01/31 05:05:16.3	91.510	0.140	-0.350	0.570
2020/01/31 05:05:16.4	91.500	0.110	-0.280	0.570
2020/01/31 05:05:16.5	91.480	0.060	-0.210	0.580
2020/01/31 05:05:16.6	91.470	0.020	-0.140	0.590
2020/01/31 05:05:16.7	91.460	-0.020	-0.070	0.600
2020/01/31 05:05:16.8	91.440	-0.060	-0.010	0.610
2020/01/31 05:05:16.9	91.430	-0.100	0.060	0.630
2020/01/31 05:05:17.0	91.410	-0.140	0.120	0.640
2020/01/31 05:05:17.1	91.400	-0.180	0.180	0.660
2020/01/31 05:05:17.2	91.380	-0.220	0.240	0.680
2020/01/31 05:05:17.3	91.360	-0.260	0.290	0.700
2020/01/31 05:05:17.4	91.350	-0.300	0.340	0.720
2020/01/31 05:05:17.5	91.330	-0.340	0.380	0.740
2020/01/31 05:05:17.6	91.320	-0.370	0.420	0.760
2020/01/31 05:05:17.7	91.310	-0.410	0.450	0.780
2020/01/31 05:05:17.8	91.300	-0.440	0.480	0.790
2020/01/31 05:05:17.9	91.290	-0.470	0.500	0.810
2020/01/31 05:05:18.0	91.280	-0.490	0.510	0.820
2020/01/31 05:05:18.1	91.270	-0.520	0.520	0.830
2020/01/31 05:05:18.2	91.270	-0.540	0.520	0.840
2020/01/31 05:05:18.3	91.270	-0.550	0.510	0.850
2020/01/31 05:05:18.4	91.270	-0.570	0.500	0.850
2020/01/31 05:05:18.5	91.270	-0.580	0.480	0.860
2020/01/31 05:05:18.6	91.270	-0.590	0.450	0.860
2020/01/31 05:05:18.7	91.270	-0.590	0.420	0.850
2020/01/31 05:05:18.8	91.280	-0.590	0.380	0.840
2020/01/31 05:05:18.9	91.280	-0.580	0.330	0.840
2020/01/31 05:05:19.0	91.290	-0.580	0.270	0.820
2020/01/31 05:05:19.1	91.300	-0.560	0.210	0.810
2020/01/31 05:05:19.2	91.300	-0.550	0.150	0.790
2020/01/31 05:05:19.3	91.320	-0.530	0.080	0.770
2020/01/31 05:05:19.4	91.330	-0.500	0.000	0.740
2020/01/31 05:05:19.5	91.340	-0.470	-0.070	0.710
2020/01/31 05:05:19.6	91.360	-0.440	-0.160	0.690
2020/01/31 05:05:19.7	91.380	-0.400	-0.240	0.650
2020/01/31 05:05:19.8	91.400	-0.360	-0.320	0.620
2020/01/31 05:05:19.9	91.420	-0.320	-0.410	0.590
2020/01/31 05:05:20.0	91.440	-0.280	-0.490	0.550
2020/01/31 05:05:20.1	91.460	-0.230	-0.570	0.520
2020/01/31 05:05:20.2	91.490	-0.190	-0.660	0.480
2020/01/31 05:05:20.3	91.510	-0.140	-0.730	0.450
2020/01/31 05:05:20.4	91.530	-0.090	-0.810	0.420
2020/01/31 05:05:20.5	91.560	-0.040	-0.870	0.390
2020/01/31 05:05:20.6	91.580	0.010	-0.930	0.360
2020/01/31 05:05:20.7	91.600	0.050	-0.980	0.340
2020/01/31 05:05:20.8	91.630	0.100	-1.030	0.310
2020/01/31 05:05:20.9	91.650	0.140	-1.070	0.290
2020/01/31 05:05:21.0	91.680	0.180	-1.090	0.270
2020/01/31 05:05:21.1	91.710	0.220	-1.110	0.250
2020/01/31 05:05:21.2	91.730	0.250	-1.120	0.240
2020/01/31 05:05:21.3	91.750	0.280	-1.120	0.230
2020/01/31 05:05:21.4	91.780	0.310	-1.110	0.220
2020/01/31 05:05:21.5	91.800	0.330	-1.080	0.210
2020/01/31 05:05:21.6	91.820	0.340	-1.050	0.210
2020/01/31 05:05:21.7	91.840	0.350	-1.010	0.210
2020/01/31 05:05:21.8	91.850	0.360	-0.960	0.220
2020/01/31 05:05:21.9	91.870	0.360	-0.900	0.230
2020/01/31 05:05:22.0	91.880	0.360	-0.830	0.240
2020/01/31 05:05:22.1	91.890	0.360	-0.760	0.260
2020/01/31 05:05:22.2	91.890	0.340	-0.670	0.270
2020/01/31 05:05:22.3	91.890	0.330	-0.580	0.290
2020/01/31 05:05:22.4	91.890	0.310	-0.490	0.320
2020/01/31 05:05:22.5	91.890	0.290	-0.390	0.340
2020/01/31 05:05:22.6	91.890	0.260	-0.280	0.370
2020/01/31 05:05:22.7	91.880	0.240	-0.170	0.400
2020/01/31 05:05:22.8	91.860	0.210	-0.060	0.440
2020/01/31 05:05:22.9	91.840	0.170	0.050	0.470
2020/01/31 05:05:23.0	91.820	0.140	0.160	0.510
2020/01/31 05:05:23.1	91.800	0.110	0.270	0.550
2020/01/31 05:05:23.2	91.770	0.070	0.380	0.590
2020/01/31 05:05:23.3	91.740	0.040	0.480	0.620
2020/01/31 05:05:23.4	91.710	0.000	0.570	0.660
2020/01/31 05:05:23.5	91.670	-0.030	0.660	0.700
2020/01/31 05:05:23.6	91.630	-0.060	0.740	0.740
2020/01/31 05:05:23.7	91.590	-0.090	0.800	0.770
2020/01/31 05:05:23.8	91.550	-0.110	0.860	0.800
2020/01/31 05:05:23.9	91.510	-0.130	0.910	0.830
2020/01/31 05:05:24.0	91.470	-0.150	0.940	0.850
2020/01/31 05:05:24.1	91.430	-0.170	0.960	0.870
2020/01/31 05:05:24.2	91.400	-0.180	0.970	0.890
2020/01/31 05:05:24.3	91.360	-0.180	0.960	0.890
2020/01/31 05:05:24.4	91.340	-0.190	0.940	0.900
2020/01/31 05:05:24.5	91.310	-0.190	0.900	0.900
2020/01/31 05:05:24.6	91.290	-0.180	0.860	0.890
2020/01/31 05:05:24.7	91.270	-0.170	0.800	0.880
2020/01/31 05:05:24.8	91.250	-0.160	0.720	0.860
2020/01/31 05:05:24.9	91.240	-0.140	0.640	0.840
2020/01/31 05:05:25.0	91.240	-0.120	0.550	0.820
2020/01/31 05:05:25.1	91.240	-0.090	0.440	0.790
2020/01/31 05:05:25.2	91.240	-0.060	0.330	0.750
2020/01/31 05:05:25.3	91.240	-0.030	0.210	0.720
2020/01/31 05:05:25.4	91.250	0.000	0.090	0.680
2020/01/31 05:05:25.5	91.270	0.040	-0.040	0.640
2020/01/31 05:05:25.6	91.280	0.080	-0.170	0.600
2020/01/31 05:05:25.7	91.300	0.120	-0.310	0.560
2020/01/31 05:05:25.8	91.330	0.160	-0.440	0.520
2020/01/31 05:05:25.9	91.350	0.200	-0.580	0.480
2020/01/31 05:05:26.0	91.380	0.240	-0.710	0.430
2020/01/31 05:05:26.1	91.400	0.290	-0.840	0.390
2020/01/31 05:05:26.2	91.430	0.330	-0.970	0.350
2020/01/31 05:05:26.3	91.460	0.370	-1.080	0.310
2020/01/31 05:05:26.4	91.480	0.410	-1.190	0.270
2020/01/31 05:05:26.5	91.520	0.440	-1.290	0.230
2020/01/31 05:05:26.6	91.550	0.480	-1.380	0.200
2020/01/31 05:05:26.7	91.580	0.510	-1.450	0.160
2020/01/31 05:05:26.8	91.610	0.540	-1.510	0.130
2020/01/31 05:05:26.9	91.650	0.560	-1.560	0.100
2020/01/31 05:05:27.0	91.690	0.590	-1.590	0.070
2020/01/31 05:05:27.1	91.720	0.600	-1.610	0.050
2020/01/31 05:05:27.2	91.750	0.610	-1.610	0.030
2020/01/31 05:05:27.3	91.790	0.620	-1.600	0.020
2020/01/31 05:05:27.4	91.820	0.620	-1.570	0.010
2020/01/31 05:05:27.5	91.860	0.610	-1.520	0.010
2020/01/31 05:05:27.6	91.890	0.600	-1.450	0.020
2020/01/31 05:05:27.7	91.920	0.580	-1.370	0.030
2020/01/31 05:05:27.8	91.940	0.560	-1.280	0.050
2020/01/31 05:05:27.9	91.960	0.530	-1.170	0.070
2020/01/31 05:05:28.0	91.990	0.490	-1.050	0.100
2020/01/31 05:05:28.1	92.000	0.450	-0.910	0.140
2020/01/31 05:05:28.2	92.020	0.410	-0.770	0.190
2020/01/31 05:05:28.3	92.040	0.350	-0.610	0.230
2020/01/31 05:05:28.4	92.050	0.300	-0.460	0.290
2020/01/31 05:05:28.5	92.050	0.230	-0.290	0.350
2020/01/31 05:05:28.6	92.050	0.170	-0.130	0.410
2020/01/31 05:05:28.7	92.050	0.100	0.040	0.470
2020/01/31 05:05:28.8	92.050	0.030	0.210	0.540
2020/01/31 05:05:28.9	92.040	-0.050	0.370	0.610
2020/01/31 05:05:29.0	92.040	-0.120	0.530	0.680
2020/01/31 05:05:29.1	92.030	-0.200	0.690	0.760
2020/01/31 05:05:29.2	92.030	-0.270	0.830	0.830
2020/01/31 05:05:29.3	92.010	-0.350	0.970	0.900
2020/01/31 05:05:29.4	92.000	-0.420	1.090	0.970
2020/01/31 05:05:29.5	91.980	-0.490	1.200	1.040
2020/01/31 05:05:29.6	91.960	-0.560	1.290	1.100
2020/01/31 05:05:29.7	91.950	-0.620	1.370	1.150
2020/01/31 05:05:29.8	91.930	-0.680	1.430	1.210
2020/01/31 05:05:29.9	91.910	-0.730	1.470	1.250
2020/01/31 05:05:30.0	91.890	-0.770	1.490	1.290
2020/01/31 05:05:30.1	91.870	-0.810	1.490	1.330
2020/01/31 05:05:30.2	91.850	-0.840	1.480	1.350
2020/01/31 05:05:30.3	91.830	-0.860	1.440	1.370
2020/01/31 05:05:30.4	91.820	-0.870	1.380	1.390
2020/01/31 05:05:30.5	91.800	-0.880	1.310	1.390
2020/01/31 05:05:30.6	91.780	-0.870	1.220	1.390
2020/01/31 05:05:30.7	91.770	-0.860	1.110	1.390
2020/01/31 05:05:30.8	91.750	-0.840	0.980	1.380
2020/01/31 05:05:30.9	91.740	-0.810	0.840	1.370
2020/01/31 05:05:31.0	91.730	-0.770	0.700	1.350
2020/01/31 05:05:31.1	91.710	-0.730	0.540	1.320
2020/01/31 05:05:31.2	91.700	-0.670	0.360	1.290
2020/01/31 05:05:31.3	91.690	-0.620	0.190	1.260
2020/01/31 05:05:31.4	91.680	-0.550	0.010	1.230
2020/01/31 05:05:31.5	91.680	-0.480	-0.170	1.190
2020/01/31 05:05:31.6	91.670	-0.410	-0.350	1.160
2020/01/31 05:05:31.7	91.670	-0.330	-0.520	1.110
2020/01/31 05:05:31.8	91.670	-0.260	-0.690	1.070
2020/01/31 05:05:31.9	91.670	-0.180	-0.850	1.030
2020/01/31 05:05:32.0	91.670	-0.100	-1.010	0.980
2020/01/31 05:05:32.1	91.680	-0.020	-1.150	0.940
2020/01/31 05:05:32.2	91.680	0.060	-1.290	0.890
2020/01/31 05:05:32.3	91.690	0.130	-1.410	0.850
2020/01/31 05:05:32.4	91.690	0.210	-1.510	0.810
2020/01/31 05:05:32.5	91.700	0.280	-1.600	0.770
2020/01/31 05:05:32.6	91.700	0.340	-1.670	0.740
2020/01/31 05:05:32.7	91.710	0.400	-1.730	0.710
2020/01/31 05:05:32.8	91.720	0.460	-1.770	0.670
2020/01/31 05:05:32.9	91.730	0.510	-1.790	0.650
2020/01/31 05:05:33.0	91.730	0.550	-1.790	0.620
2020/01/31 05:05:33.1	91.740	0.580	-1.780	0.590
2020/01/31 05:05:33.2	91.740	0.610	-1.750	0.570
2020/01/31 05:05:33.3	91.750	0.630	-1.700	0.550
2020/01/31 05:05:33.4	91.760	0.650	-1.640	0.530
2020/01/31 05:05:33.5	91.760	0.650	-1.570	0.510
2020/01/31 05:05:33.6	91.770	0.650	-1.480	0.500
2020/01/31 05:05:33.7	91.780	0.650	-1.390	0.480
2020/01/31 05:05:33.8	91.790	0.640	-1.280	0.470
2020/01/31 05:05:33.9	91.790	0.620	-1.160	0.460
2020/01/31 05:05:34.0	91.800	0.590	-1.040	0.450
2020/01/31 05:05:34.1	91.810	0.560	-0.910	0.450
2020/01/31 05:05:34.2	91.810	0.530	-0.770	0.440
2020/01/31 05:05:34.3	91.820	0.490	-0.640	0.440
2020/01/31 05:05:34.4	91.830	0.450	-0.500	0.430
2020/01/31 05:05:34.5	91.840	0.400	-0.360	0.430
2020/01/31 05:05:34.6	91.850	0.360	-0.230	0.420
2020/01/31 05:05:34.7	91.860	0.310	-0.090	0.420
2020/01/31 05:05:34.8	91.870	0.260	0.040	0.420
2020/01/31 05:05:34.9	91.880	0.210	0.160	0.420
2020/01/31 05:05:35.0	91.890	0.150	0.280	0.420
2020/01/31 05:05:35.1	91.890	0.100	0.390	0.420
2020/01/31 05:05:35.2	91.900	0.060	0.490	0.420
2020/01/31 05:05:35.3	91.910	0.010	0.590	0.420
2020/01/31 05:05:35.4	91.910	-0.040	0.670	0.420
2020/01/31 05:05:35.5	91.920	-0.080	0.740	0.430
2020/01/31 05:05:35.6	91.920	-0.120	0.800	0.430
2020/01/31 05:05:35.7	91.920	-0.160	0.850	0.440
2020/01/31 05:05:35.8	91.930	-0.190	0.890	0.450
2020/01/31 05:05:35.9	91.930	-0.220	0.920	0.470
2020/01/31 05:05:36.0	91.930	-0.240	0.930	0.480
2020/01/31 05:05:36.1	91.930	-0.260	0.930	0.490
2020/01/31 05:05:36.2	91.930	-0.280	0.920	0.510
2020/01/31 05:05:36.3	91.930	-0.290	0.900	0.530
2020/01/31 05:05:36.4	91.930	-0.300	0.870	0.540
2020/01/31 05:05:36.5	91.930	-0.300	0.820	0.560
2020/01/31 05:05:36.6	91.930	-0.310	0.770	0.580
2020/01/31 05:05:36.7	91.940	-0.300	0.710	0.590
2020/01/31 05:05:36.8	91.940	-0.290	0.640	0.610
2020/01/31 05:05:36.9	91.940	-0.280	0.560	0.620
2020/01/31 05:05:37.0	91.950	-0.270	0.480	0.640
2020/01/31 05:05:37.1	91.960	-0.250	0.390	0.650
2020/01/31 05:05:37.2	91.970	-0.230	0.290	0.660
2020/01/31 05:05:37.3	91.980	-0.210	0.200	0.670
2020/01/31 05:05:37.4	91.990	-0.190	0.100	0.680
2020/01/31 05:05:37.5	92.000	-0.160	-0.000	0.690
2020/01/31 05:05:37.6	92.000	-0.130	-0.100	0.690
2020/01/31 05:05:37.7	92.010	-0.110	-0.200	0.700
2020/01/31 05:05:37.8	92.020	-0.080	-0.300	0.700
2020/01/31 05:05:37.9	92.030	-0.050	-0.390	0.710
2020/01/31 05:05:38.0	92.040	-0.030	-0.480	0.710
2020/01/31 05:05:38.1	92.040	0.000	-0.570	0.710
2020/01/31 05:05:38.2	92.060	0.030	-0.640	0.710
2020/01/31 05:05:38.3	92.060	0.050	-0.710	0.710
2020/01/31 05:05:38.4	92.060	0.070	-0.780	0.710
2020/01/31 05:05:38.5	92.060	0.090	-0.830	0.720
2020/01/31 05:05:38.6	92.060	0.110	-0.880	0.720
2020/01/31 05:05:38.7	92.060	0.120	-0.910	0.730
2020/01/31 05:05:38.8	92.050	0.130	-0.930	0.740
2020/01/31 05:05:38.9	92.050	0.140	-0.950	0.740
2020/01/31 05:05:39.0	92.040	0.140	-0.950	0.750
2020/01/31 05:05:39.1	92.030	0.140	-0.940	0.770
2020/01/31 05:05:39.2	92.010	0.140	-0.920	0.780
2020/01/31 05:05:39.3	92.000	0.130	-0.900	0.800
2020/01/31 05:05:39.4	91.980	0.120	-0.860	0.810
2020/01/31 05:05:39.5	91.970	0.100	-0.810	0.830
2020/01/31 05:05:39.6	91.950	0.080	-0.760	0.850
2020/01/31 05:05:39.7	91.940	0.060	-0.700	0.870
2020/01/31 05:05:39.8	91.920	0.040	-0.630	0.890
2020/01/31 05:05:39.9	91.900	0.010	-0.560	0.910
2020/01/31 05:05:40.0	91.890	-0.020	-0.490	0.930
2020/01/31 05:05:40.1	91.870	-0.050	-0.410	0.950
2020/01/31 05:05:40.2	91.860	-0.080	-0.330	0.960
2020/01/31 05:05:40.3	91.850	-0.110	-0.260	0.980
2020/01/31 05:05:40.4	91.830	-0.140	-0.180	0.990
2020/01/31 05:05:40.5	91.820	-0.170	-0.100	1.000
2020/01/31 05:05:40.6	91.810	-0.200	-0.030	1.010
2020/01/31 05:05:40.7	91.810	-0.230	0.030	1.010
2020/01/31 05:05:40.8	91.800	-0.250	0.090	1.010
2020/01/31 05:05:40.9	91.800	-0.270	0.140	1.010
2020/01/31 05:05:41.0	91.800	-0.290	0.190	1.000
2020/01/31 05:05:41.1	91.800	-0.310	0.230	0.980
2020/01/31 05:05:41.2	91.810	-0.320	0.260	0.960
2020/01/31 05:05:41.3	91.820	-0.320	0.280	0.940
2020/01/31 05:05:41.4	91.830	-0.330	0.290	0.910
2020/01/31 05:05:41.5	91.840	-0.320	0.300	0.880
2020/01/31 05:05:41.6	91.860	-0.320	0.290	0.840
2020/01/31 05:05:41.7	91.880	-0.300	0.270	0.800
2020/01/31 05:05:41.8	91.900	-0.290	0.250	0.760
2020/01/31 05:05:41.9	91.930	-0.260	0.220	0.720
2020/01/31 05:05:42.0	91.950	-0.240	0.180	0.670
2020/01/31 05:05:42.1	91.980	-0.210	0.130	0.620
2020/01/31 05:05:42.2	92.020	-0.170	0.080	0.570
2020/01/31 05:05:42.3	92.050	-0.130	0.020	0.520
2020/01/31 05:05:42.4	92.090	-0.090	-0.040	0.470
2020/01/31 05:05:42.5	92.120	-0.050	-0.100	0.420
2020/01/31 05:05:42.6	92.160	-0.000	-0.170	0.370
2020/01/31 05:05:42.7	92.190	0.040	-0.230	0.330
2020/01/31 05:05:42.8	92.220	0.090	-0.300	0.290
2020/01/31 05:05:42.9	92.260	0.140	-0.360	0.250
2020/01/31 05:05:43.0	92.280	0.180	-0.420	0.220
2020/01/31 05:05:43.1	92.310	0.230	-0.470	0.190
2020/01/31 05:05:43.2	92.330	0.270	-0.520	0.170
2020/01/31 05:05:43.3	92.350	0.310	-0.560	0.160
2020/01/31 05:05:43.4	92.370	0.350	-0.600	0.150
2020/01/31 05:05:43.5	92.380	0.390	-0.630	0.140
2020/01/31 05:05:43.6	92.390	0.420	-0.650	0.150
2020/01/31 05:05:43.7	92.390	0.440	-0.660	0.150
2020/01/31 05:05:43.8	92.390	0.460	-0.660	0.160
2020/01/31 05:05:43.9	92.390	0.480	-0.660	0.170
2020/01/31 05:05:44.0	92.380	0.490	-0.640	0.190
2020/01/31 05:05:44.1	92.370	0.500	-0.620	0.210
2020/01/31 05:05:44.2	92.350	0.500	-0.600	0.220
2020/01/31 05:05:44.3	92.330	0.500	-0.560	0.240
2020/01/31 05:05:44.4	92.310	0.490	-0.520	0.260
2020/01/31 05:05:44.5	92.290	0.480	-0.470	0.290
2020/01/31 05:05:44.6	92.260	0.460	-0.420	0.310
2020/01/31 05:05:44.7	92.230	0.440	-0.370	0.330
2020/01/31 05:05:44.8	92.190	0.410	-0.310	0.350
2020/01/31 05:05:44.9	92.160	0.380	-0.250	0.360
2020/01/31 05:05:45.0	92.120	0.350	-0.190	0.380
2020/01/31 05:05:45.1	92.080	0.320	-0.130	0.390
2020/01/31 05:05:45.2	92.050	0.280	-0.060	0.400
2020/01/31 05:05:45.3	92.010	0.240	-0.000	0.410
2020/01/31 05:05:45.4	91.980	0.210	0.050	0.420
2020/01/31 05:05:45.5	91.940	0.170	0.100	0.420
2020/01/31 05:05:45.6	91.900	0.130	0.150	0.430
2020/01/31 05:05:45.7	91.870	0.090	0.190	0.420
2020/01/31 05:05:45.8	91.840	0.060	0.220	0.420
2020/01/31 05:05:45.9	91.810	0.020	0.250	0.410
2020/01/31 05:05:46.0	91.780	-0.010	0.270	0.410
2020/01/31 05:05:46.1	91.760	-0.040	0.280	0.400
2020/01/31 05:05:46.2	91.740	-0.060	0.280	0.380
2020/01/31 05:05:46.3	91.720	-0.080	0.280	0.370
2020/01/31 05:05:46.4	91.710	-0.100	0.270	0.350
2020/01/31 05:05:46.5	91.700	-0.110	0.250	0.340
2020/01/31 05:05:46.6	91.700	-0.120	0.230	0.320
2020/01/31 05:05:46.7	91.700	-0.130	0.200	0.310
2020/01/31 05:05:46.8	91.700	-0.130	0.160	0.290
2020/01/31 05:05:46.9	91.710	-0.130	0.110	0.280
2020/01/31 05:05:47.0	91.720	-0.130	0.060	0.260
2020/01/31 05:05:47.1	91.730	-0.120	0.010	0.250
2020/01/31 05:05:47.2	91.760	-0.110	-0.050	0.240
2020/01/31 05:05:47.3	91.770	-0.090	-0.120	0.230
2020/01/31 05:05:47.4	91.790	-0.080	-0.180	0.220
2020/01/31 05:05:47.5	91.810	-0.060	-0.250	0.210
2020/01/31 05:05:47.6	91.830	-0.030	-0.320	0.200
2020/01/31 05:05:47.7	91.860	-0.010	-0.380	0.190
2020/01/31 05:05:47.8	91.880	0.010	-0.450	0.190
2020/01/31 05:05:47.9	91.900	0.030	-0.510	0.180
2020/01/31 05:05:48.0	91.920	0.060	-0.570	0.170
2020/01/31 05:05:48.1	91.940	0.080	-0.620	0.170
2020/01/31 05:05:48.2	91.950	0.100	-0.670	0.160
2020/01/31 05:05:48.3	91.970	0.120	-0.710	0.150
2020/01/31 05:05:48.4	91.990	0.140	-0.740	0.150
2020/01/31 05:05:48.5	92.000	0.150	-0.770	0.140
2020/01/31 05:05:48.6	92.020	0.160	-0.780	0.140
2020/01/31 05:05:48.7	92.030	0.170	-0.790	0.140
2020/01/31 05:05:48.8	92.040	0.170	-0.780	0.150
2020/01/31 05:05:48.9	92.050	0.170	-0.770	0.150
2020/01/31 05:05:49.0	92.050	0.170	-0.750	0.170
2020/01/31 05:05:49.1	92.060	0.160	-0.710	0.180
2020/01/31 05:05:49.2	92.060	0.150	-0.680	0.200
2020/01/31 05:05:49.3	92.060	0.130	-0.620	0.220
2020/01/31 05:05:49.4	92.050	0.110	-0.570	0.250
2020/01/31 05:05:49.5	92.050	0.090	-0.500	0.280
2020/01/31 05:05:49.6	92.040	0.060	-0.430	0.320
2020/01/31 05:05:49.7	92.030	0.030	-0.360	0.360
2020/01/31 05:05:49.8	92.020	-0.010	-0.280	0.400
2020/01/31 05:05:49.9	92.010	-0.050	-0.200	0.450
2020/01/31 05:05:50.0	92.000	-0.090	-0.120	0.500
2020/01/31 05:05:50.1	91.990	-0.130	-0.040	0.550
2020/01/31 05:05:50.2	91.980	-0.170	0.040	0.610
2020/01/31 05:05:50.3	91.970	-0.210	0.110	0.670
2020/01/31 05:05:50.4	91.950	-0.260	0.180	0.730
2020/01/31 05:05:50.5	91.940	-0.300	0.250	0.780
2020/01/31 05:05:50.6	91.930	-0.340	0.300	0.840
2020/01/31 05:05:50.7	91.920	-0.370	0.350	0.890
2020/01/31 05:05:50.8	91.910	-0.410	0.390	0.950
2020/01/31 05:05:50.9	91.900	-0.440	0.420	0.990
2020/01/31 05:05:51.0	91.890	-0.460	0.440	1.040
2020/01/31 05:05:51.1	91.880	-0.490	0.440	1.080
2020/01/31 05:05:51.2	91.880	-0.500	0.440	1.110
2020/01/31 05:05:51.3	91.880	-0.510	0.430	1.140
2020/01/31 05:05:51.4	91.880	-0.510	0.400	1.160
2020/01/31 05:05:51.5	91.880	-0.510	0.360	1.170
2020/01/31 05:05:51.6	91.880	-0.500	0.320	1.180
2020/01/31 05:05:51.7	91.890	-0.490	0.260	1.180
2020/01/31 05:05:51.8	91.890	-0.460	0.200	1.180
2020/01/31 05:05:51.9	91.900	-0.440	0.130	1.170
2020/01/31 05:05:52.0	91.900	-0.400	0.060	1.160
2020/01/31 05:05:52.1	91.910	-0.370	-0.020	1.140
2020/01/31 05:05:52.2	91.920	-0.330	-0.100	1.120
2020/01/31 05:05:52.3	91.920	-0.280	-0.180	1.090
2020/01/31 05:05:52.4	91.930	-0.230	-0.260	1.070
2020/01/31 05:05:52.5	91.940	-0.180	-0.340	1.040
2020/01/31 05:05:52.6	91.940	-0.130	-0.420	1.010
2020/01/31 05:05:52.7	91.950	-0.070	-0.490	0.980
2020/01/31 05:05:52.8	91.950	-0.020	-0.560	0.950
2020/01/31 05:05:52.9	91.950	0.040	-0.620	0.920
2020/01/31 05:05:53.0	91.950	0.090	-0.680	0.900
2020/01/31 05:05:53.1	91.950	0.140	-0.730	0.870
2020/01/31 05:05:53.2	91.930	0.190	-0.770	0.850
2020/01/31 05:05:53.3	91.930	0.230	-0.810	0.830
2020/01/31 05:05:53.4	91.920	0.280	-0.840	0.810
2020/01/31 05:05:53.5	91.910	0.310	-0.860	0.790
2020/01/31 05:05:53.6	91.910	0.350	-0.870	0.780
2020/01/31 05:05:53.7	91.900	0.380	-0.870	0.770
2020/01/31 05:05:53.8	91.890	0.400	-0.870	0.770
2020/01/31 05:05:53.9	91.880	0.420	-0.850	0.760
2020/01/31 05:05:54.0	91.870	0.430	-0.830	0.760
2020/01/31 05:05:54.1	91.870	0.440	-0.800	0.760
2020/01/31 05:05:54.2	91.860	0.440	-0.760	0.760
2020/01/31 05:05:54.3	91.850	0.430	-0.710	0.760
2020/01/31 05:05:54.4	91.850	0.420	-0.660	0.760
2020/01/31 05:05:54.5	91.840	0.400	-0.600	0.760
2020/01/31 05:05:54.6	91.840	0.370	-0.540	0.760
2020/01/31 05:05:54.7	91.840	0.340	-0.470	0.760
2020/01/31 05:05:54.8	91.830	0.310	-0.390	0.760
2020/01/31 05:05:54.9	91.830	0.270	-0.310	0.750
2020/01/31 05:05:55.0	91.830	0.230	-0.230	0.750
2020/01/31 05:05:55.1	91.830	0.180	-0.150	0.750
2020/01/31 05:05:55.2	91.840	0.130	-0.060	0.740
2020/01/31 05:05:55.3	91.850	0.080	0.020	0.740
2020/01/31 05:05:55.4	91.850	0.020	0.100	0.730
2020/01/31 05:05:55.5	91.850	-0.030	0.180	0.730
2020/01/31 05:05:55.6	91.850	-0.090	0.260	0.720
2020/01/31 05:05:55.7	91.860	-0.150	0.340	0.710
2020/01/31 05:05:55.8	91.860	-0.200	0.410	0.710
2020/01/31 05:05:55.9	91.860	-0.260	0.470	0.700
2020/01/31 05:05:56.0	91.860	-0.310	0.520	0.690
2020/01/31 05:05:56.1	91.870	-0.360	0.570	0.690
2020/01/31 05:05:56.2	91.860	-0.410	0.610	0.680
2020/01/31 05:05:56.3	91.860	-0.450	0.640	0.680
2020/01/31 05:05:56.4	91.860	-0.490	0.660	0.680
2020/01/31 05:05:56.5	91.860	-0.520	0.670	0.670
2020/01/31 05:05:56.6	91.860	-0.550	0.670	0.670
2020/01/31 05:05:56.7	91.860	-0.570	0.660	0.670
2020/01/31 05:05:56.8	91.860	-0.580	0.630	0.670
2020/01/31 05:05:56.9	91.850	-0.590	0.590	0.660
2020/01/31 05:05:57.0	91.850	-0.590	0.550	0.660
2020/01/31 05:05:57.1	91.850	-0.590	0.490	0.660
2020/01/31 05:05:57.2	91.850	-0.570	0.420	0.650
2020/01/31 05:05:57.3	91.850	-0.550	0.340	0.650
2020/01/31 05:05:57.4	91.850	-0.520	0.250	0.640
2020/01/31 05:05:57.5	91.850	-0.490	0.150	0.640
2020/01/31 05:05:57.6	91.860	-0.450	0.050	0.630
2020/01/31 05:05:57.7	91.860	-0.400	-0.060	0.620
2020/01/31 05:05:57.8	91.870	-0.350	-0.170	0.620
2020/01/31 05:05:57.9	91.870	-0.290	-0.290	0.610
2020/01/31 05:05:58.0	91.880	-0.230	-0.400	0.600
2020/01/31 05:05:58.1	91.890	-0.170	-0.520	0.590
2020/01/31 05:05:58.2	91.910	-0.100	-0.640	0.580
2020/01/31 05:05:58.3	91.920	-0.030	-0.750	0.570
2020/01/31 05:05:58.4	91.930	0.040	-0.850	0.560
2020/01/31 05:05:58.5	91.950	0.110	-0.950	0.550
2020/01/31 05:05:58.6	91.970	0.180	-1.040	0.540
2020/01/31 05:05:58.7	91.990	0.250	-1.120	0.540
2020/01/31 05:05:58.8	92.010	0.310	-1.190	0.530
2020/01/31 05:05:58.9	92.030	0.380	-1.250	0.520
2020/01/31 05:05:59.0	92.050	0.440	-1.300	0.520
2020/01/31 05:05:59.1	92.070	0.500	-1.330	0.520
2020/01/31 05:05:59.2	92.080	0.550	-1.350	0.530
2020/01/31 05:05:59.3	92.100	0.600	-1.360	0.530
2020/01/31 05:05:59.4	92.110	0.640	-1.360	0.540
2020/01/31 05:05:59.5	92.130	0.670	-1.340	0.560
2020/01/31 05:05:59.6	92.140	0.700	-1.310	0.570
2020/01/31 05:05:59.7	92.150	0.720	-1.270	0.590
2020/01/31 05:05:59.8	92.150	0.740	-1.210	0.610
2020/01/31 05:05:59.9	92.150	0.750	-1.150	0.640
2020/01/31 05:06:00.0	92.150	0.750	-1.070	0.670
2020/01/31 05:06:00.1	92.150	0.750	-0.980	0.690
2020/01/31 05:06:00.2	92.140	0.740	-0.880	0.720
2020/01/31 05:06:00.3	92.130	0.720	-0.780	0.750
2020/01/31 05:06:00.4	92.110	0.700	-0.670	0.780
2020/01/31 05:06:00.5	92.090	0.670	-0.550	0.810
2020/01/31 05:06:00.6	92.070	0.630	-0.430	0.840
2020/01/31 05:06:00.7	92.050	0.590	-0.300	0.870
2020/01/31 05:06:00.8	92.020	0.550	-0.180	0.900
2020/01/31 05:06:00.9	92.000	0.500	-0.050	0.930
2020/01/31 05:06:01.0	91.970	0.440	0.070	0.950
2020/01/31 05:06:01.1	91.940	0.390	0.190	0.970
2020/01/31 05:06:01.2	91.910	0.330	0.310	0.980
2020/01/31 05:06:01.3	91.880	0.270	0.430	1.000
2020/01/31 05:06:01.4	91.860	0.210	0.530	1.010
2020/01/31 05:06:01.5	91.830	0.150	0.630	1.010
2020/01/31 05:06:01.6	91.810	0.090	0.720	1.010
2020/01/31 05:06:01.7	91.790	0.030	0.800	1.000
2020/01/31 05:06:01.8	91.770	-0.030	0.870	1.000
2020/01/31 05:06:01.9	91.760	-0.090	0.930	0.980
2020/01/31 05:06:02.0	91.740	-0.140	0.970	0.960
2020/01/31 05:06:02.1	91.730	-0.190	1.000	0.940
2020/01/31 05:06:02.2	91.720	-0.240	1.030	0.910
2020/01/31 05:06:02.3	91.710	-0.280	1.030	0.880
2020/01/31 05:06:02.4	91.710	-0.320	1.020	0.850
2020/01/31 05:06:02.5	91.710	-0.350	1.000	0.810
2020/01/31 05:06:02.6	91.710	-0.380	0.970	0.780
2020/01/31 05:06:02.7	91.710	-0.400	0.920	0.740
2020/01/31 05:06:02.8	91.720	-0.410	0.860	0.700
2020/01/31 05:06:02.9	91.730	-0.420	0.780	0.660
2020/01/31 05:06:03.0	91.740	-0.430	0.700	0.610
2020/01/31 05:06:03.1	91.750	-0.430	0.610	0.570
2020/01/31 05:06:03.2	91.760	-0.420	0.500	0.520
2020/01/31 05:06:03.3	91.770	-0.400	0.390	0.480
2020/01/31 05:06:03.4	91.790	-0.390	0.280	0.430
2020/01/31 05:06:03.5	91.810	-0.360	0.160	0.390
2020/01/31 05:06:03.6	91.830	-0.340	0.040	0.340
2020/01/31 05:06:03.7	91.860	-0.310	-0.080	0.300
2020/01/31 05:06:03.8	91.890	-0.270	-0.200	0.260
2020/01/31 05:06:03.9	91.920	-0.240	-0.310	0.220
2020/01/31 05:06:04.0	91.950	-0.200	-0.430	0.190
2020/01/31 05:06:04.1	91.980	-0.160	-0.530	0.160
2020/01/31 05:06:04.2	92.020	-0.120	-0.630	0.130
2020/01/31 05:06:04.3	92.050	-0.080	-0.730	0.110
2020/01/31 05:06:04.4	92.080	-0.040	-0.810	0.090
2020/01/31 05:06:04.5	92.120	0.000	-0.880	0.090
2020/01/31 05:06:04.6	92.150	0.040	-0.950	0.080
2020/01/31 05:06:04.7	92.180	0.080	-1.000	0.090
2020/01/31 05:06:04.8	92.210	0.110	-1.040	0.100
2020/01/31 05:06:04.9	92.240	0.140	-1.070	0.110
2020/01/31 05:06:05.0	92.270	0.170	-1.090	0.130
2020/01/31 05:06:05.1	92.300	0.200	-1.100	0.160
2020/01/31 05:06:05.2	92.320	0.220	-1.100	0.190
2020/01/31 05:06:05.3	92.340	0.240	-1.080	0.220
2020/01/31 05:06:05.4	92.360	0.260	-1.060	0.260
2020/01/31 05:06:05.5	92.380	0.270	-1.030	0.300
2020/01/31 05:06:05.6	92.390	0.280	-0.990	0.350
2020/01/31 05:06:05.7	92.400	0.280	-0.940	0.390
2020/01/31 05:06:05.8	92.410	0.280	-0.890	0.440
2020/01/31 05:06:05.9	92.410	0.270	-0.830	0.490
2020/01/31 05:06:06.0	92.420	0.270	-0.770	0.540
2020/01/31 05:06:06.1	92.420	0.250	-0.700	0.590
2020/01/31 05:06:06.2	92.420	0.240	-0.630	0.640
2020/01/31 05:06:06.3	92.420	0.220	-0.560	0.700
2020/01/31 05:06:06.4	92.410	0.200	-0.490	0.750
2020/01/31 05:06:06.5	92.400	0.180	-0.420	0.800
2020/01/31 05:06:06.6	92.380	0.150	-0.350	0.850
2020/01/31 05:06:06.7	92.370	0.130	-0.280	0.890
2020/01/31 05:06:06.8	92.350	0.100	-0.220	0.940
2020/01/31 05:06:06.9	92.340	0.080	-0.160	0.980
2020/01/31 05:06:07.0	92.320	0.050	-0.110	1.020
2020/01/31 05:06:07.1	92.300	0.020	-0.060	1.050
2020/01/31 05:06:07.2	92.300	-0.010	-0.010	1.090
2020/01/31 05:06:07.3	92.280	-0.030	0.020	1.110
2020/01/31 05:06:07.4	92.260	-0.060	0.050	1.140
2020/01/31 05:06:07.5	92.250	-0.080	0.080	1.160
2020/01/31 05:06:07.6	92.230	-0.110	0.100	1.170
2020/01/31 05:06:07.7	92.220	-0.130	0.110	1.180
2020/01/31 05:06:07.8	92.210	-0.150	0.120	1.180
2020/01/31 05:06:07.9	92.200	-0.170	0.130	1.180
2020/01/31 05:06:08.0	92.190	-0.190	0.130	1.180
2020/01/31 05:06:08.1	92.190	-0.210	0.120	1.170
2020/01/31 05:06:08.2	92.180	-0.220	0.110	1.150
2020/01/31 05:06:08.3	92.180	-0.240	0.100	1.130
2020/01/31 05:06:08.4	92.190	-0.250	0.080	1.100
2020/01/31 05:06:08.5	92.190	-0.250	0.060	1.080
2020/01/31 05:06:08.6	92.200	-0.260	0.040	1.040
2020/01/31 05:06:08.7	92.210	-0.270	0.010	1.010
2020/01/31 05:06:08.8	92.220	-0.270	-0.010	0.970
2020/01/31 05:06:08.9	92.240	-0.270	-0.040	0.930
2020/01/31 05:06:09.0	92.260	-0.270	-0.070	0.890
2020/01/31 05:06:09.1	92.280	-0.260	-0.090	0.850
2020/01/31 05:06:09.2	92.310	-0.260	-0.120	0.800
2020/01/31 05:06:09.3	92.340	-0.250	-0.150	0.750
2020/01/31 05:06:09.4	92.360	-0.240	-0.180	0.710
2020/01/31 05:06:09.5	92.390	-0.220	-0.210	0.660
2020/01/31 05:06:09.6	92.420	-0.210	-0.230	0.610
2020/01/31 05:06:09.7	92.450	-0.200	-0.250	0.570
2020/01/31 05:06:09.8	92.490	-0.180	-0.270	0.520
2020/01/31 05:06:09.9	92.520	-0.160	-0.290	0.480
2020/01/31 05:06:10.0	92.550	-0.150	-0.300	0.430
2020/01/31 05:06:10.1	92.580	-0.130	-0.310	0.390
2020/01/31 05:06:10.2	92.600	-0.110	-0.320	0.350
2020/01/31 05:06:10.3	92.630	-0.090	-0.330	0.310
2020/01/31 05:06:10.4	92.650	-0.070	-0.330	0.280
2020/01/31 05:06:10.5	92.680	-0.050	-0.320	0.250
2020/01/31 05:06:10.6	92.690	-0.030	-0.310	0.220
2020/01/31 05:06:10.7	92.710	-0.020	-0.300	0.190
2020/01/31 05:06:10.8	92.730	0.000	-0.290	0.170
2020/01/31 05:06:10.9	92.740	0.020	-0.270	0.150
2020/01/31 05:06:11.0	92.750	0.030	-0.250	0.140
2020/01/31 05:06:11.1	92.750	0.050	-0.230	0.120
2020/01/31 05:06:11.2	92.750	0.060	-0.200	0.110
2020/01/31 05:06:11.3	92.760	0.070	-0.170	0.110
2020/01/31 05:06:11.4	92.760	0.080	-0.140	0.100
2020/01/31 05:06:11.5	92.760	0.080	-0.120	0.100
2020/01/31 05:06:11.6	92.750	0.090	-0.090	0.110
2020/01/31 05:06:11.7	92.750	0.100	-0.070	0.110
2020/01/31 05:06:11.8	92.740	0.100	-0.040	0.120
2020/01/31 05:06:11.9	92.730	0.100	-0.020	0.140
2020/01/31 05:06:12.0	92.730	0.100	-0.010	0.150
2020/01/31 05:06:12.1	92.720	0.100	0.010	0.170
2020/01/31 05:06:12.2	92.700	0.100	0.010	0.190
2020/01/31 05:06:12.3	92.690	0.100	0.020	0.210
2020/01/31 05:06:12.4	92.680	0.100	0.020	0.230
2020/01/31 05:06:12.5	92.670	0.100	0.020	0.260
2020/01/31 05:06:12.6	92.660	0.100	0.010	0.290
2020/01/31 05:06:12.7	92.640	0.090	-0.010	0.310
2020/01/31 05:06:12.8	92.630	0.090	-0.030	0.340
2020/01/31 05:06:12.9	92.620	0.090	-0.050	0.370
2020/01/31 05:06:13.0	92.600	0.080	-0.070	0.400
2020/01/31 05:06:13.1	92.590	0.080	-0.110	0.420
2020/01/31 05:06:13.2	92.580	0.080	-0.140	0.450
2020/01/31 05:06:13.3	92.570	0.080	-0.170	0.480
2020/01/31 05:06:13.4	92.560	0.070	-0.210	0.500
2020/01/31 05:06:13.5	92.550	0.070	-0.250	0.520
2020/01/31 05:06:13.6	92.550	0.060	-0.290	0.540
2020/01/31 05:06:13.7	92.540	0.060	-0.330	0.560
2020/01/31 05:06:13.8	92.530	0.060	-0.370	0.580
2020/01/31 05:06:13.9	92.530	0.050	-0.400	0.590
2020/01/31 05:06:14.0	92.530	0.050	-0.440	0.600
2020/01/31 05:06:14.1	92.530	0.040	-0.470	0.610
2020/01/31 05:06:14.2	92.510	0.040	-0.500	0.610
2020/01/31 05:06:14.3	92.520	0.030	-0.520	0.620
2020/01/31 05:06:14.4	92.520	0.020	-0.540	0.620
2020/01/31 05:06:14.5	92.530	0.020	-0.550	0.620
2020/01/31 05:06:14.6	92.540	0.010	-0.560	0.620
2020/01/31 05:06:14.7	92.550	-0.000	-0.570	0.610
2020/01/31 05:06:14.8	92.560	-0.010	-0.570	0.610
2020/01/31 05:06:14.9	92.580	-0.020	-0.560	0.600
2020/01/31 05:06:15.0	92.600	-0.030	-0.550	0.590
2020/01/31 05:06:15.1	92.610	-0.040	-0.540	0.590
2020/01/31 05:06:15.2	92.620	-0.050	-0.520	0.580
2020/01/31 05:06:15.3	92.640	-0.060	-0.500	0.580
2020/01/31 05:06:15.4	92.660	-0.070	-0.470	0.570
2020/01/31 05:06:15.5	92.680	-0.080	-0.440	0.570
2020/01/31 05:06:15.6	92.710	-0.090	-0.410	0.570
2020/01/31 05:06:15.7	92.730	-0.100	-0.370	0.570
2020/01/31 05:06:15.8	92.760	-0.110	-0.340	0.570
2020/01/31 05:06:15.9	92.780	-0.120	-0.300	0.570
2020/01/31 05:06:16.0	92.810	-0.120	-0.260	0.570
2020/01/31 05:06:16.1	92.830	-0.130	-0.220	0.580
2020/01/31 05:06:16.2	92.860	-0.130	-0.180	0.580
2020/01/31 05:06:16.3	92.880	-0.130	-0.150	0.590
2020/01/31 05:06:16.4	92.910	-0.130	-0.110	0.600
2020/01/31 05:06:16.5	92.930	-0.130	-0.080	0.610
2020/01/31 05:06:16.6	92.950	-0.130	-0.050	0.620
2020/01/31 05:06:16.7	92.970	-0.130	-0.030	0.630
2020/01/31 05:06:16.8	92.990	-0.120	-0.000	0.640
2020/01/31 05:06:16.9	93.010	-0.110	0.010	0.660
2020/01/31 05:06:17.0	93.020	-0.100	0.030	0.670
2020/01/31 05:06:17.1	93.030	-0.090	0.040	0.690
2020/01/31 05:06:17.2	93.050	-0.080	0.050	0.710
2020/01/31 05:06:17.3	93.050	-0.070	0.050	0.730
2020/01/31 05:06:17.4	93.060	-0.050	0.050	0.750
2020/01/31 05:06:17.5	93.060	-0.040	0.050	0.770
2020/01/31 05:06:17.6	93.050	-0.020	0.040	0.790
2020/01/31 05:06:17.7	93.050	-0.000	0.030	0.810
2020/01/31 05:06:17.8	93.040	0.010	0.020	0.830
2020/01/31 05:06:17.9	93.030	0.030	0.000	0.850
2020/01/31 05:06:18.0	93.010	0.050	-0.020	0.870
2020/01/31 05:06:18.1	93.000	0.070	-0.040	0.890
2020/01/31 05:06:18.2	92.980	0.090	-0.070	0.910
2020/01/31 05:06:18.3	92.960	0.110	-0.090	0.930
2020/01/31 05:06:18.4	92.940	0.130	-0.120	0.940
2020/01/31 05:06:18.5	92.920	0.140	-0.150	0.950
2020/01/31 05:06:18.6	92.890	0.160	-0.180	0.960
2020/01/31 05:06:18.7	92.870	0.180	-0.200	0.970
2020/01/31 05:06:18.8	92.850	0.190	-0.230	0.970
2020/01/31 05:06:18.9	92.820	0.200	-0.250	0.970
2020/01/31 05:06:19.0	92.800	0.210	-0.270	0.970
2020/01/31 05:06:19.1	92.780	0.220	-0.290	0.970
2020/01/31 05:06:19.2	92.750	0.220	-0.310	0.960
2020/01/31 05:06:19.3	92.730	0.230	-0.320	0.950
2020/01/31 05:06:19.4	92.710	0.230	-0.330	0.940
2020/01/31 05:06:19.5	92.690	0.230	-0.330	0.930
2020/01/31 05:06:19.6	92.670	0.230	-0.330	0.920
2020/01/31 05:06:19.7	92.660	0.220	-0.330	0.900
2020/01/31 05:06:19.8	92.640	0.220	-0.320	0.890
2020/01/31 05:06:19.9	92.630	0.210	-0.310	0.870
2020/01/31 05:06:20.0	92.620	0.200	-0.300	0.850
2020/01/31 05:06:20.1	92.610	0.190	-0.280	0.830
2020/01/31 05:06:20.2	92.610	0.180	-0.260	0.810
2020/01/31 05:06:20.3	92.600	0.170	-0.240	0.790
2020/01/31 05:06:20.4	92.600	0.150	-0.220	0.770
2020/01/31 05:06:20.5	92.600	0.140	-0.190	0.740
2020/01/31 05:06:20.6	92.600	0.130	-0.170	0.720
2020/01/31 05:06:20.7	92.610	0.120	-0.140	0.690
2020/01/31 05:06:20.8	92.610	0.110	-0.120	0.670
2020/01/31 05:06:20.9	92.620	0.100	-0.090	0.640
2020/01/31 05:06:21.0	92.630	0.090	-0.070	0.610
2020/01/31 05:06:21.1	92.640	0.080	-0.060	0.580
2020/01/31 05:06:21.2	92.650	0.080	-0.040	0.550
2020/01/31 05:06:21.3	92.660	0.070	-0.030	0.510
2020/01/31 05:06:21.4	92.680	0.070	-0.020	0.480
2020/01/31 05:06:21.5	92.690	0.070	-0.020	0.450
2020/01/31 05:06:21.6	92.710	0.080	-0.020	0.420
2020/01/31 05:06:21.7	92.730	0.080	-0.030	0.380
2020/01/31 05:06:21.8	92.740	0.090	-0.040	0.350
2020/01/31 05:06:21.9	92.760	0.110	-0.060	0.320
2020/01/31 05:06:22.0	92.780	0.120	-0.080	0.290
2020/01/31 05:06:22.1	92.800	0.140	-0.110	0.260
2020/01/31 05:06:22.2	92.820	0.160	-0.150	0.230
2020/01/31 05:06:22.3	92.840	0.180	-0.190	0.200
2020/01/31 05:06:22.4	92.850	0.210	-0.230	0.170
2020/01/31 05:06:22.5	92.870	0.230	-0.280	0.150
2020/01/31 05:06:22.6	92.890	0.260	-0.320	0.120
2020/01/31 05:06:22.7	92.910	0.290	-0.380	0.100
2020/01/31 05:06:22.8	92.920	0.320	-0.430	0.090
2020/01/31 05:06:22.9	92.940	0.340	-0.480	0.080
2020/01/31 05:06:23.0	92.950	0.370	-0.530	0.070
2020/01/31 05:06:23.1	92.960	0.390	-0.580	0.070
2020/01/31 05:06:23.2	92.970	0.420	-0.630	0.070
2020/01/31 05:06:23.3	92.980	0.440	-0.680	0.080
2020/01/31 05:06:23.4	92.990	0.450	-0.720	0.090
2020/01/31 05:06:23.5	93.000	0.460	-0.750	0.110
2020/01/31 05:06:23.6	93.010	0.470	-0.780	0.130
2020/01/31 05:06:23.7	93.010	0.480	-0.790	0.150
2020/01/31 05:06:23.8	93.020	0.480	-0.810	0.180
2020/01/31 05:06:23.9	93.020	0.470	-0.810	0.210
2020/01/31 05:06:24.0	93.030	0.460	-0.810	0.250
2020/01/31 05:06:24.1	93.030	0.440	-0.800	0.290
2020/01/31 05:06:24.2	93.020	0.420	-0.770	0.330
2020/01/31 05:06:24.3	93.020	0.390	-0.740	0.370
2020/01/31 05:06:24.4	93.020	0.360	-0.710	0.410
2020/01/31 05:06:24.5	93.020	0.320	-0.660	0.460
2020/01/31 05:06:24.6	93.020	0.280	-0.610	0.500
2020/01/31 05:06:24.7	93.020	0.230	-0.550	0.550
2020/01/31 05:06:24.8	93.010	0.180	-0.490	0.590
2020/01/31 05:06:24.9	93.010	0.120	-0.410	0.640
2020/01/31 05:06:25.0	93.000	0.060	-0.340	0.680
2020/01/31 05:06:25.1	92.990	-0.000	-0.250	0.720
2020/01/31 05:06:25.2	92.970	-0.070	-0.170	0.770
2020/01/31 05:06:25.3	92.960	-0.140	-0.080	0.810
2020/01/31 05:06:25.4	92.950	-0.210	0.010	0.850
2020/01/31 05:06:25.5	92.930	-0.280	0.100	0.890
2020/01/31 05:06:25.6	92.920	-0.350	0.190	0.930
2020/01/31 05:06:25.7	92.900	-0.420	0.280	0.960
2020/01/31 05:06:25.8	92.880	-0.480	0.370	1.000
2020/01/31 05:06:25.9	92.860	-0.550	0.450	1.030
2020/01/31 05:06:26.0	92.840	-0.620	0.530	1.060
2020/01/31 05:06:26.1	92.810	-0.680	0.600	1.090
2020/01/31 05:06:26.2	92.800	-0.740	0.670	1.120
2020/01/31 05:06:26.3	92.780	-0.790	0.720	1.150
2020/01/31 05:06:26.4	92.750	-0.840	0.770	1.180
2020/01/31 05:06:26.5	92.720	-0.890	0.810	1.200
2020/01/31 05:06:26.6	92.700	-0.930	0.840	1.220
2020/01/31 05:06:26.7	92.670	-0.960	0.860	1.240
2020/01/31 05:06:26.8	92.640	-0.990	0.870	1.260
2020/01/31 05:06:26.9	92.610	-1.010	0.870	1.270
2020/01/31 05:06:27.0	92.590	-1.030	0.850	1.280
2020/01/31 05:06:27.1	92.560	-1.040	0.820	1.280
2020/01/31 05:06:27.2	92.540	-1.040	0.790	1.280
2020/01/31 05:06:27.3	92.520	-1.030	0.740	1.280
2020/01/31 05:06:27.4	92.500	-1.020	0.680	1.270
2020/01/31 05:06:27.5	92.480	-1.000	0.610	1.260
2020/01/31 05:06:27.6	92.460	-0.970	0.530	1.240
2020/01/31 05:06:27.7	92.440	-0.940	0.440	1.220
2020/01/31 05:06:27.8	92.430	-0.900	0.350	1.200
2020/01/31 05:06:27.9	92.420	-0.850	0.250	1.170
2020/01/31 05:06:28.0	92.410	-0.800	0.140	1.140
2020/01/31 05:06:28.1	92.400	-0.750	0.030	1.110
2020/01/31 05:06:28.2	92.390	-0.680	-0.100	1.070
2020/01/31 05:06:28.3	92.380	-0.620	-0.220	1.030
2020/01/31 05:06:28.4	92.380	-0.550	-0.340	0.990
2020/01/31 05:06:28.5	92.390	-0.480	-0.460	0.950
2020/01/31 05:06:28.6	92.390	-0.400	-0.580	0.910
2020/01/31 05:06:28.7	92.400	-0.330	-0.700	0.870
2020/01/31 05:06:28.8	92.420	-0.250	-0.820	0.820
2020/01/31 05:06:28.9	92.430	-0.170	-0.930	0.780
2020/01/31 05:06:29.0	92.450	-0.090	-1.030	0.730
2020/01/31 05:06:29.1	92.470	-0.020	-1.130	0.690
2020/01/31 05:06:29.2	92.490	0.060	-1.220	0.640
2020/01/31 05:06:29.3	92.520	0.130	-1.300	0.600
2020/01/31 05:06:29.4	92.540	0.200	-1.370	0.560
2020/01/31 05:06:29.5	92.570	0.270	-1.430	0.520
2020/01/31 05:06:29.6	92.590	0.330	-1.470	0.490
2020/01/31 05:06:29.7	92.620	0.390	-1.510	0.450
2020/01/31 05:06:29.8	92.640	0.450	-1.530	0.420
2020/01/31 05:06:29.9	92.660	0.500	-1.530	0.400
2020/01/31 05:06:30.0	92.680	0.540	-1.520	0.380
2020/01/31 05:06:30.1	92.700	0.580	-1.500	0.360
2020/01/31 05:06:30.2	92.700	0.610	-1.470	0.340
2020/01/31 05:06:30.3	92.710	0.640	-1.420	0.330
2020/01/31 05:06:30.4	92.720	0.660	-1.360	0.320
2020/01/31 05:06:30.5	92.730	0.680	-1.280	0.320
2020/01/31 05:06:30.6	92.730	0.680	-1.200	0.310
2020/01/31 05:06:30.7	92.730	0.690	-1.110	0.320
2020/01/31 05:06:30.8	92.730	0.690	-1.010	0.320
2020/01/31 05:06:30.9	92.720	0.680	-0.900	0.330
2020/01/31 05:06:31.0	92.710	0.660	-0.790	0.340
2020/01/31 05:06:31.1	92.700	0.650	-0.670	0.360
2020/01/31 05:06:31.2	92.690	0.620	-0.550	0.380
2020/01/31 05:06:31.3	92.680	0.600	-0.430	0.400
2020/01/31 05:06:31.4	92.660	0.570	-0.310	0.420
2020/01/31 05:06:31.5	92.630	0.530	-0.190	0.440
2020/01/31 05:06:31.6	92.610	0.500	-0.070	0.470
2020/01/31 05:06:31.7	92.590	0.460	0.040	0.490
2020/01/31 05:06:31.8	92.570	0.420	0.150	0.510
2020/01/31 05:06:31.9	92.540	0.380	0.250	0.540
2020/01/31 05:06:32.0	92.520	0.340	0.340	0.560
2020/01/31 05:06:32.1	92.500	0.290	0.430	0.580
2020/01/31 05:06:32.2	92.480	0.250	0.510	0.600
2020/01/31 05:06:32.3	92.460	0.210	0.580	0.620
2020/01/31 05:06:32.4	92.440	0.160	0.630	0.630
2020/01/31 05:06:32.5	92.430	0.120	0.680	0.640
2020/01/31 05:06:32.6	92.420	0.080	0.720	0.650
2020/01/31 05:06:32.7	92.410	0.040	0.750	0.660
2020/01/31 05:06:32.8	92.400	0.010	0.770	0.660
2020/01/31 05:06:32.9	92.390	-0.020	0.780	0.660
2020/01/31 05:06:33.0	92.390	-0.050	0.780	0.660
2020/01/31 05:06:33.1	92.390	-0.080	0.770	0.660
2020/01/31 05:06:33.2	92.390	-0.110	0.750	0.650
2020/01/31 05:06:33.3	92.400	-0.130	0.720	0.650
2020/01/31 05:06:33.4	92.400	-0.150	0.700	0.640
2020/01/31 05:06:33.5	92.400	-0.160	0.660	0.630
2020/01/31 05:06:33.6	92.410	-0.180	0.620	0.620
2020/01/31 05:06:33.7	92.410	-0.190	0.580	0.610
2020/01/31 05:06:33.8	92.410	-0.200	0.530	0.610
2020/01/31 05:06:33.9	92.410	-0.200	0.480	0.600
2020/01/31 05:06:34.0	92.410	-0.210	0.440	0.600
2020/01/31 05:06:34.1	92.410	-0.210	0.380	0.600
2020/01/31 05:06:34.2	92.410	-0.210	0.330	0.600
2020/01/31 05:06:34.3	92.400	-0.200	0.280	0.600
2020/01/31 05:06:34.4	92.390	-0.200	0.230	0.600
2020/01/31 05:06:34.5	92.380	-0.190	0.180	0.600
2020/01/31 05:06:34.6	92.370	-0.180	0.130	0.600
2020/01/31 05:06:34.7	92.360	-0.170	0.090	0.600
2020/01/31 05:06:34.8	92.350	-0.160	0.040	0.600
2020/01/31 05:06:34.9	92.330	-0.150	-0.010	0.600
2020/01/31 05:06:35.0	92.320	-0.140	-0.050	0.600
2020/01/31 05:06:35.1	92.300	-0.120	-0.100	0.590
2020/01/31 05:06:35.2	92.290	-0.110	-0.140	0.590
2020/01/31 05:06:35.3	92.270	-0.090	-0.180	0.580
2020/01/31 05:06:35.4	92.260	-0.070	-0.230	0.570
2020/01/31 05:06:35.5	92.250	-0.050	-0.270	0.560
2020/01/31 05:06:35.6	92.250	-0.030	-0.320	0.550
2020/01/31 05:06:35.7	92.240	-0.010	-0.360	0.540
2020/01/31 05:06:35.8	92.240	0.010	-0.410	0.530
2020/01/31 05:06:35.9	92.240	0.040	-0.460	0.510
2020/01/31 05:06:36.0	92.240	0.060	-0.510	0.500
2020/01/31 05:06:36.1	92.240	0.090	-0.560	0.490
2020/01/31 05:06:36.2	92.240	0.120	-0.610	0.480
2020/01/31 05:06:36.3	92.240	0.140	-0.660	0.470
2020/01/31 05:06:36.4	92.250	0.170	-0.710	0.460
2020/01/31 05:06:36.5	92.250	0.200	-0.760	0.460
2020/01/31 05:06:36.6	92.250	0.230	-0.800	0.460
2020/01/31 05:06:36.7	92.260	0.250	-0.840	0.470
2020/01/31 05:06:36.8	92.260	0.280	-0.880	0.480
2020/01/31 05:06:36.9	92.260	0.300	-0.920	0.490
2020/01/31 05:06:37.0	92.260	0.320	-0.950	0.510
2020/01/31 05:06:37.1	92.260	0.340	-0.970	0.520
2020/01/31 05:06:37.2	92.260	0.360	-0.990	0.550
2020/01/31 05:06:37.3	92.260	0.370	-1.000	0.570
2020/01/31 05:06:37.4	92.250	0.380	-1.010	0.590
2020/01/31 05:06:37.5	92.240	0.390	-1.010	0.620
2020/01/31 05:06:37.6	92.230	0.400	-0.990	0.640
2020/01/31 05:06:37.7	92.220	0.400	-0.980	0.660
2020/01/31 05:06:37.8	92.200	0.390	-0.950	0.680
2020/01/31 05:06:37.9	92.190	0.390	-0.920	0.700
2020/01/31 05:06:38.0	92.170	0.380	-0.880	0.720
2020/01/31 05:06:38.1	92.160	0.360	-0.830	0.740
2020/01/31 05:06:38.2	92.130	0.350	-0.780	0.750
2020/01/31 05:06:38.3	92.110	0.330	-0.720	0.760
2020/01/31 05:06:38.4	92.090	0.310	-0.660	0.770
2020/01/31 05:06:38.5	92.080	0.280	-0.600	0.780
2020/01/31 05:06:38.6	92.060	0.250	-0.530	0.780
2020/01/31 05:06:38.7	92.040	0.220	-0.460	0.780
2020/01/31 05:06:38.8	92.020	0.190	-0.390	0.780
2020/01/31 05:06:38.9	92.000	0.160	-0.310	0.780
2020/01/31 05:06:39.0	91.990	0.130	-0.240	0.770
2020/01/31 05:06:39.1	91.970	0.100	-0.170	0.770
2020/01/31 05:06:39.2	91.960	0.060	-0.090	0.760
2020/01/31 05:06:39.3	91.950	0.030	-0.030	0.750
2020/01/31 05:06:39.4	91.930	0.000	0.040	0.740
2020/01/31 05:06:39.5	91.920	-0.030	0.100	0.730
2020/01/31 05:06:39.6	91.920	-0.060	0.150	0.720
2020/01/31 05:06:39.7	91.910	-0.080	0.200	0.720
2020/01/31 05:06:39.8	91.910	-0.100	0.240	0.710
2020/01/31 05:06:39.9	91.900	-0.120	0.270	0.700
2020/01/31 05:06:40.0	91.900	-0.140	0.300	0.700
2020/01/31 05:06:40.1	91.900	-0.150	0.320	0.700
2020/01/31 05:06:40.2	91.890	-0.160	0.330	0.690
2020/01/31 05:06:40.3	91.890	-0.170	0.330	0.700
2020/01/31 05:06:40.4	91.890	-0.180	0.330	0.700
2020/01/31 05:06:40.5	91.890	-0.180	0.310	0.710
2020/01/31 05:06:40.6	91.900	-0.180	0.300	0.710
2020/01/31 05:06:40.7	91.900	-0.170	0.270	0.720
2020/01/31 05:06:40.8	91.900	-0.170	0.240	0.730
2020/01/31 05:06:40.9	91.900	-0.160	0.200	0.740
2020/01/31 05:06:41.0	91.900	-0.150	0.170	0.750
2020/01/31 05:06:41.1	91.910	-0.140	0.120	0.760
2020/01/31 05:06:41.2	91.920	-0.130	0.080	0.770
2020/01/31 05:06:41.3	91.920	-0.120	0.030	0.770
2020/01/31 05:06:41.4	91.930	-0.110	-0.020	0.770
2020/01/31 05:06:41.5	91.930	-0.100	-0.070	0.770
2020/01/31 05:06:41.6	91.940	-0.090	-0.110	0.770
2020/01/31 05:06:41.7	91.940	-0.090	-0.160	0.770
2020/01/31 05:06:41.8	91.950	-0.080	-0.200	0.760
2020/01/31 05:06:41.9	91.950	-0.070	-0.240	0.750
2020/01/31 05:06:42.0	91.960	-0.070	-0.280	0.740
2020/01/31 05:06:42.1	91.970	-0.070	-0.310	0.730
2020/01/31 05:06:42.2	91.960	-0.070	-0.340	0.720
2020/01/31 05:06:42.3	91.960	-0.070	-0.360	0.700
2020/01/31 05:06:42.4	91.970	-0.070	-0.370	0.690
2020/01/31 05:06:42.5	91.980	-0.080	-0.380	0.680
2020/01/31 05:06:42.6	91.980	-0.090	-0.390	0.670
2020/01/31 05:06:42.7	91.990	-0.100	-0.380	0.660
2020/01/31 05:06:42.8	92.000	-0.110	-0.370	0.650
2020/01/31 05:06:42.9	92.000	-0.130	-0.360	0.650
2020/01/31 05:06:43.0	92.010	-0.140	-0.340	0.640
2020/01/31 05:06:43.1	92.020	-0.160	-0.310	0.640
2020/01/31 05:06:43.2	92.030	-0.180	-0.280	0.650
2020/01/31 05:06:43.3	92.040	-0.200	-0.240	0.650
2020/01/31 05:06:43.4	92.050	-0.230	-0.200	0.660
2020/01/31 05:06:43.5	92.050	-0.250	-0.150	0.670
2020/01/31 05:06:43.6	92.060	-0.270	-0.110	0.690
2020/01/31 05:06:43.7	92.070	-0.300	-0.060	0.700
2020/01/31 05:06:43.8	92.070	-0.320	-0.010	0.720
2020/01/31 05:06:43.9	92.080	-0.350	0.040	0.740
2020/01/31 05:06:44.0	92.080	-0.370	0.090	0.770
2020/01/31 05:06:44.1	92.090	-0.390	0.130	0.790
2020/01/31 05:06:44.2	92.090	-0.410	0.170	0.820
2020/01/31 05:06:44.3	92.090	-0.430	0.210	0.840
2020/01/31 05:06:44.4	92.090	-0.450	0.240	0.860
2020/01/31 05:06:44.5	92.090	-0.460	0.270	0.890
2020/01/31 05:06:44.6	92.090	-0.480	0.290	0.910
2020/01/31 05:06:44.7	92.090	-0.480	0.300	0.930
2020/01/31 05:06:44.8	92.090	-0.490	0.300	0.940
2020/01/31 05:06:44.9	92.090	-0.490	0.300	0.960
2020/01/31 05:06:45.0	92.090	-0.490	0.290	0.970
2020/01/31 05:06:45.1	92.090	-0.480	0.260	0.980
2020/01/31 05:06:45.2	92.080	-0.470	0.230	0.980
2020/01/31 05:06:45.3	92.080	-0.450	0.190	0.990
2020/01/31 05:06:45.4	92.080	-0.430	0.150	0.990
2020/01/31 05:06:45.5	92.080	-0.410	0.100	0.990
2020/01/31 05:06:45.6	92.070	-0.380	0.040	0.980
2020/01/31 05:06:45.7	92.080	-0.360	-0.030	0.980
2020/01/31 05:06:45.8	92.080	-0.320	-0.100	0.980
2020/01/31 05:06:45.9	92.080	-0.290	-0.170	0.970
2020/01/31 05:06:46.0	92.080	-0.250	-0.240	0.970
2020/01/31 05:06:46.1	92.080	-0.220	-0.320	0.970
2020/01/31 05:06:46.2	92.090	-0.180	-0.390	0.960
2020/01/31 05:06:46.3	92.090	-0.140	-0.460	0.970
2020/01/31 05:06:46.4	92.090	-0.100	-0.540	0.970
2020/01/31 05:06:46.5	92.090	-0.060	-0.600	0.970
2020/01/31 05:06:46.6	92.090	-0.020	-0.670	0.980
2020/01/31 05:06:46.7	92.090	0.020	-0.730	0.980
2020/01/31 05:06:46.8	92.090	0.060	-0.780	0.990
2020/01/31 05:06:46.9	92.080	0.090	-0.830	0.990
2020/01/31 05:06:47.0	92.080	0.120	-0.870	1.000
2020/01/31 05:06:47.1	92.080	0.150	-0.910	1.000
2020/01/31 05:06:47.2	92.070	0.180	-0.940	1.010
2020/01/31 05:06:47.3	92.070	0.210	-0.960	1.010
2020/01/31 05:06:47.4	92.070	0.230	-0.970	1.020
2020/01/31 05:06:47.5	92.060	0.250	-0.970	1.020
2020/01/31 05:06:47.6	92.060	0.260	-0.960	1.020
2020/01/31 05:06:47.7	92.050	0.280	-0.950	1.020
2020/01/31 05:06:47.8	92.050	0.290	-0.930	1.020
2020/01/31 05:06:47.9	92.040	0.290	-0.900	1.010
2020/01/31 05:06:48.0	92.030	0.300	-0.860	1.010
2020/01/31 05:06:48.1	92.020	0.300	-0.820	1.000
2020/01/31 05:06:48.2	92.000	0.290	-0.770	0.990
2020/01/31 05:06:48.3	91.990	0.290	-0.720	0.980
2020/01/31 05:06:48.4	91.980	0.280	-0.660	0.970
2020/01/31 05:06:48.5	91.970	0.270	-0.600	0.960
2020/01/31 05:06:48.6	91.960	0.250	-0.530	0.950
2020/01/31 05:06:48.7	91.940	0.240	-0.460	0.940
2020/01/31 05:06:48.8	91.930	0.220	-0.390	0.930
2020/01/31 05:06:48.9	91.910	0.200	-0.320	0.910
2020/01/31 05:06:49.0	91.900	0.180	-0.250	0.900
2020/01/31 05:06:49.1	91.890	0.160	-0.180	0.890
2020/01/31 05:06:49.2	91.870	0.140	-0.100	0.870
2020/01/31 05:06:49.3	91.860	0.120	-0.040	0.850
2020/01/31 05:06:49.4	91.850	0.090	0.020	0.840
2020/01/31 05:06:49.5	91.840	0.070	0.080	0.820
2020/01/31 05:06:49.6	91.820	0.050	0.140	0.800
2020/01/31 05:06:49.7	91.810	0.030	0.190	0.790
2020/01/31 05:06:49.8	91.810	0.010	0.230	0.770
2020/01/31 05:06:49.9	91.800	-0.000	0.260	0.750
2020/01/31 05:06:50.0	91.790	-0.010	0.290	0.730
2020/01/31 05:06:50.1	91.790	-0.030	0.310	0.710
2020/01/31 05:06:50.2	91.780	-0.030	0.320	0.690
2020/01/31 05:06:50.3	91.780	-0.040	0.320	0.670
2020/01/31 05:06:50.4	91.790	-0.040	0.320	0.640
2020/01/31 05:06:50.5	91.790	-0.040	0.310	0.620
2020/01/31 05:06:50.6	91.790	-0.040	0.290	0.590
2020/01/31 05:06:50.7	91.800	-0.030	0.260	0.570
2020/01/31 05:06:50.8	91.810	-0.010	0.220	0.540
2020/01/31 05:06:50.9	91.820	0.000	0.180	0.510
2020/01/31 05:06:51.0	91.830	0.020	0.140	0.480
2020/01/31 05:06:51.1	91.840	0.040	0.080	0.450
2020/01/31 05:06:51.2	91.860	0.070	0.030	0.420
2020/01/31 05:06:51.3	91.870	0.100	-0.030	0.380
2020/01/31 05:06:51.4	91.890	0.130	-0.090	0.350
2020/01/31 05:06:51.5	91.900	0.160	-0.150	0.320
2020/01/31 05:06:51.6	91.920	0.200	-0.220	0.280
2020/01/31 05:06:51.7	91.930	0.230	-0.280	0.250
2020/01/31 05:06:51.8	91.950	0.270	-0.340	0.220
2020/01/31 05:06:51.9	91.960	0.310	-0.390	0.190
2020/01/31 05:06:52.0	91.980	0.340	-0.450	0.160
2020/01/31 05:06:52.1	91.990	0.380	-0.500	0.130
2020/01/31 05:06:52.2	92.000	0.420	-0.540	0.100
2020/01/31 05:06:52.3	92.020	0.450	-0.580	0.090
2020/01/31 05:06:52.4	92.030	0.480	-0.610	0.070
2020/01/31 05:06:52.5	92.040	0.510	-0.640	0.060
2020/01/31 05:06:52.6	92.050	0.540	-0.650	0.050
2020/01/31 05:06:52.7	92.060	0.570	-0.660	0.040
2020/01/31 05:06:52.8	92.060	0.590	-0.670	0.040
2020/01/31 05:06:52.9	92.070	0.600	-0.660	0.040
2020/01/31 05:06:53.0	92.080	0.620	-0.650	0.050
2020/01/31 05:06:53.1	92.080	0.620	-0.630	0.060
2020/01/31 05:06:53.2	92.090	0.630	-0.610	0.080
2020/01/31 05:06:53.3	92.090	0.630	-0.580	0.100
2020/01/31 05:06:53.4	92.100	0.630	-0.540	0.120
2020/01/31 05:06:53.5	92.100	0.620	-0.500	0.150
2020/01/31 05:06:53.6	92.110	0.600	-0.460	0.170
2020/01/31 05:06:53.7	92.110	0.590	-0.410	0.200
2020/01/31 05:06:53.8	92.120	0.570	-0.370	0.230
2020/01/31 05:06:53.9	92.120	0.540	-0.320	0.270
2020/01/31 05:06:54.0	92.130	0.510	-0.260	0.300
2020/01/31 05:06:54.1	92.130	0.480	-0.210	0.330
2020/01/31 05:06:54.2	92.140	0.440	-0.160	0.360
2020/01/31 05:06:54.3	92.140	0.410	-0.110	0.390
2020/01/31 05:06:54.4	92.150	0.360	-0.060	0.420
2020/01/31 05:06:54.5	92.150	0.320	-0.010	0.460
2020/01/31 05:06:54.6	92.160	0.280	0.030	0.490
2020/01/31 05:06:54.7	92.160	0.230	0.080	0.520
2020/01/31 05:06:54.8	92.170	0.180	0.120	0.550
2020/01/31 05:06:54.9	92.170	0.130	0.150	0.580
2020/01/31 05:06:55.0	92.170	0.080	0.180	0.610
2020/01/31 05:06:55.1	92.170	0.030	0.210	0.640
2020/01/31 05:06:55.2	92.170	-0.020	0.240	0.660
2020/01/31 05:06:55.3	92.170	-0.070	0.260	0.690
2020/01/31 05:06:55.4	92.170	-0.110	0.270	0.720
2020/01/31 05:06:55.5	92.160	-0.160	0.280	0.740
2020/01/31 05:06:55.6	92.160	-0.200	0.280	0.760
2020/01/31 05:06:55.7	92.160	-0.240	0.280	0.790
2020/01/31 05:06:55.8	92.150	-0.280	0.280	0.810
2020/01/31 05:06:55.9	92.150	-0.320	0.270	0.830
2020/01/31 05:06:56.0	92.150	-0.350	0.260	0.850
2020/01/31 05:06:56.1	92.140	-0.380	0.250	0.860
2020/01/31 05:06:56.2	92.150	-0.410	0.230	0.880
2020/01/31 05:06:56.3	92.150	-0.430	0.210	0.900
2020/01/31 05:06:56.4	92.150	-0.450	0.180	0.910
2020/01/31 05:06:56.5	92.150	-0.470	0.150	0.920
2020/01/31 05:06:56.6	92.150	-0.480	0.130	0.930
2020/01/31 05:06:56.7	92.160	-0.490	0.100	0.950
2020/01/31 05:06:56.8	92.160	-0.490	0.060	0.960
2020/01/31 05:06:56.9	92.170	-0.500	0.030	0.970
2020/01/31 05:06:57.0	92.170	-0.490	-0.000	0.980
2020/01/31 05:06:57.1	92.180	-0.490	-0.040	0.990
2020/01/31 05:06:57.2	92.190	-0.490	-0.070	1.000
2020/01/31 05:06:57.3	92.200	-0.480	-0.110	1.010
2020/01/31 05:06:57.4	92.200	-0.470	-0.140	1.020
2020/01/31 05:06:57.5	92.210	-0.460	-0.180	1.020
2020/01/31 05:06:57.6	92.220	-0.450	-0.220	1.030
2020/01/31 05:06:57.7	92.230	-0.440	-0.250	1.040
2020/01/31 05:06:57.8	92.250	-0.420	-0.280	1.040
2020/01/31 05:06:57.9	92.260	-0.410	-0.320	1.050
2020/01/31 05:06:58.0	92.270	-0.400	-0.350	1.050
2020/01/31 05:06:58.1	92.280	-0.380	-0.380	1.060
2020/01/31 05:06:58.2	92.300	-0.370	-0.410	1.060
2020/01/31 05:06:58.3	92.310	-0.360	-0.440	1.060
2020/01/31 05:06:58.4	92.320	-0.350	-0.470	1.070
2020/01/31 05:06:58.5	92.340	-0.340	-0.490	1.070
2020/01/31 05:06:58.6	92.350	-0.330	-0.510	1.070
2020/01/31 05:06:58.7	92.370	-0.320	-0.530	1.060
2020/01/31 05:06:58.8	92.380	-0.310	-0.550	1.060
2020/01/31 05:06:58.9	92.390	-0.310	-0.570	1.060
2020/01/31 05:06:59.0	92.400	-0.300	-0.590	1.060
2020/01/31 05:06:59.1	92.410	-0.300	-0.600	1.060
2020/01/31 05:06:59.2	92.410	-0.300	-0.610	1.050
2020/01/31 05:06:59.3	92.420	-0.300	-0.610	1.050
2020/01/31 05:06:59.4	92.420	-0.300	-0.620	1.050
2020/01/31 05:06:59.5	92.420	-0.300	-0.620	1.050
2020/01/31 05:06:59.6	92.420	-0.310	-0.620	1.050
2020/01/31 05:06:59.7	92.410	-0.310	-0.610	1.050
2020/01/31 05:06:59.8	92.400	-0.320	-0.610	1.050
2020/01/31 05:06:59.9	92.390	-0.330	-0.590	1.050
2020/01/31 05:07:00.0	92.370	-0.340	-0.580	1.050
2020/01/31 05:07:00.1	92.360	-0.340	-0.560	1.050
2020/01/31 05:07:00.2	92.330	-0.350	-0.540	1.050
2020/01/31 05:07:00.3	92.310	-0.360	-0.510	1.050
2020/01/31 05:07:00.4	92.280	-0.370	-0.480	1.050
2020/01/31 05:07:00.5	92.260	-0.390	-0.450	1.050
2020/01/31 05:07:00.6	92.230	-0.390	-0.420	1.050
2020/01/31 05:07:00.7	92.200	-0.400	-0.390	1.040
2020/01/31 05:07:00.8	92.170	-0.410	-0.350	1.040
2020/01/31 05:07:00.9	92.140	-0.420	-0.320	1.030
2020/01/31 05:07:01.0	92.100	-0.420	-0.280	1.030
2020/01/31 05:07:01.1	92.070	-0.430	-0.240	1.020
2020/01/31 05:07:01.2	92.050	-0.430	-0.210	1.010
2020/01/31 05:07:01.3	92.020	-0.430	-0.170	1.000
2020/01/31 05:07:01.4	91.990	-0.430	-0.130	0.980
2020/01/31 05:07:01.5	91.960	-0.420	-0.100	0.960
2020/01/31 05:07:01.6	91.930	-0.420	-0.070	0.940
2020/01/31 05:07:01.7	91.910	-0.410	-0.040	0.920
2020/01/31 05:07:01.8	91.890	-0.400	-0.010	0.890
2020/01/31 05:07:01.9	91.870	-0.380	0.020	0.860
2020/01/31 05:07:02.0	91.850	-0.370	0.040	0.820
2020/01/31 05:07:02.1	91.840	-0.350	0.060	0.790
2020/01/31 05:07:02.2	91.820	-0.330	0.070	0.750
2020/01/31 05:07:02.3	91.810	-0.300	0.080	0.700
2020/01/31 05:07:02.4	91.800	-0.270	0.090	0.660
2020/01/31 05:07:02.5	91.800	-0.240	0.100	0.610
2020/01/31 05:07:02.6	91.800	-0.210	0.100	0.560
2020/01/31 05:07:02.7	91.800	-0.180	0.100	0.510
2020/01/31 05:07:02.8	91.800	-0.140	0.090	0.450
2020/01/31 05:07:02.9	91.800	-0.100	0.080	0.400
2020/01/31 05:07:03.0	91.810	-0.060	0.070	0.340
2020/01/31 05:07:03.1	91.810	-0.020	0.050	0.290
2020/01/31 05:07:03.2	91.820	0.030	0.030	0.230
2020/01/31 05:07:03.3	91.830	0.070	-0.000	0.180
2020/01/31 05:07:03.4	91.840	0.120	-0.030	0.120
2020/01/31 05:07:03.5	91.850	0.170	-0.070	0.070
2020/01/31 05:07:03.6	91.860	0.220	-0.110	0.020
2020/01/31 05:07:03.7	91.870	0.270	-0.150	-0.020
2020/01/31 05:07:03.8	91.880	0.330	-0.200	-0.070
2020/01/31 05:07:03.9	91.890	0.380	-0.250	-0.110
2020/01/31 05:07:04.0	91.890	0.430	-0.300	-0.140
2020/01/31 05:07:04.1	91.900	0.490	-0.350	-0.180
2020/01/31 05:07:04.2	91.910	0.540	-0.400	-0.210
2020/01/31 05:07:04.3	91.920	0.590	-0.450	-0.240
2020/01/31 05:07:04.4	91.930	0.640	-0.500	-0.260
2020/01/31 05:07:04.5	91.940	0.680	-0.550	-0.280
2020/01/31 05:07:04.6	91.950	0.730	-0.600	-0.290
2020/01/31 05:07:04.7	91.950	0.770	-0.640	-0.310
2020/01/31 05:07:04.8	91.960	0.810	-0.680	-0.310
2020/01/31 05:07:04.9	91.970	0.840	-0.710	-0.320
2020/01/31 05:07:05.0	91.970	0.870	-0.740	-0.320
2020/01/31 05:07:05.1	91.980	0.900	-0.770	-0.320
2020/01/31 05:07:05.2	91.990	0.920	-0.780	-0.320
2020/01/31 05:07:05.3	91.990	0.940	-0.790	-0.320
2020/01/31 05:07:05.4	92.000	0.950	-0.800	-0.310
2020/01/31 05:07:05.5	92.010	0.960	-0.800	-0.300
2020/01/31 05:07:05.6	92.010	0.960	-0.790	-0.290
2020/01/31 05:07:05.7	92.020	0.960	-0.780	-0.270
2020/01/31 05:07:05.8	92.030	0.950	-0.760	-0.260
2020/01/31 05:07:05.9	92.030	0.930	-0.740	-0.240
2020/01/31 05:07:06.0	92.040	0.920	-0.710	-0.220
2020/01/31 05:07:06.1	92.050	0.890	-0.670	-0.190
2020/01/31 05:07:06.2	92.060	0.870	-0.630	-0.170
2020/01/31 05:07:06.3	92.070	0.830	-0.590	-0.140
2020/01/31 05:07:06.4	92.080	0.800	-0.540	-0.110
2020/01/31 05:07:06.5	92.090	0.760	-0.480	-0.070
2020/01/31 05:07:06.6	92.100	0.720	-0.430	-0.030
2020/01/31 05:07:06.7	92.120	0.670	-0.370	0.010
2020/01/31 05:07:06.8	92.130	0.630	-0.310	0.060
2020/01/31 05:07:06.9	92.140	0.580	-0.250	0.110
2020/01/31 05:07:07.0	92.150	0.520	-0.180	0.160
2020/01/31 05:07:07.1	92.150	0.470	-0.110	0.220
2020/01/31 05:07:07.2	92.170	0.410	-0.050	0.280
2020/01/31 05:07:07.3	92.180	0.360	0.020	0.340
2020/01/31 05:07:07.4	92.180	0.300	0.090	0.410
2020/01/31 05:07:07.5	92.180	0.240	0.160	0.470
2020/01/31 05:07:07.6	92.180	0.180	0.230	0.540
2020/01/31 05:07:07.7	92.180	0.120	0.290	0.610
2020/01/31 05:07:07.8	92.170	0.070	0.360	0.680
2020/01/31 05:07:07.9	92.170	0.010	0.420	0.750
2020/01/31 05:07:08.0	92.160	-0.050	0.480	0.810
2020/01/31 05:07:08.1	92.150	-0.110	0.540	0.880
2020/01/31 05:07:08.2	92.140	-0.160	0.590	0.940
2020/01/31 05:07:08.3	92.130	-0.220	0.640	0.990
2020/01/31 05:07:08.4	92.120	-0.270	0.690	1.050
2020/01/31 05:07:08.5	92.100	-0.320	0.720	1.090
2020/01/31 05:07:08.6	92.090	-0.360	0.760	1.140
2020/01/31 05:07:08.7	92.080	-0.410	0.780	1.180
2020/01/31 05:07:08.8	92.060	-0.450	0.800	1.220
2020/01/31 05:07:08.9	92.050	-0.490	0.810	1.250
2020/01/31 05:07:09.0	92.040	-0.520	0.810	1.280
2020/01/31 05:07:09.1	92.020	-0.550	0.800	1.300
2020/01/31 05:07:09.2	92.000	-0.570	0.780	1.320
2020/01/31 05:07:09.3	91.990	-0.600	0.750	1.340
2020/01/31 05:07:09.4	91.980	-0.610	0.720	1.350
2020/01/31 05:07:09.5	91.970	-0.620	0.670	1.370
2020/01/31 05:07:09.6	91.960	-0.630	0.620	1.380
2020/01/31 05:07:09.7	91.950	-0.630	0.550	1.390
2020/01/31 05:07:09.8	91.950	-0.630	0.480	1.400
2020/01/31 05:07:09.9	91.940	-0.620	0.400	1.420
2020/01/31 05:07:10.0	91.930	-0.610	0.320	1.430
2020/01/31 05:07:10.1	91.930	-0.590	0.220	1.450
2020/01/31 05:07:10.2	91.910	-0.570	0.130	1.460
2020/01/31 05:07:10.3	91.900	-0.540	0.020	1.480
2020/01/31 05:07:10.4	91.890	-0.520	-0.080	1.500
2020/01/31 05:07:10.5	91.880	-0.490	-0.190	1.510
2020/01/31 05:07:10.6	91.870	-0.460	-0.290	1.530
2020/01/31 05:07:10.7	91.860	-0.420	-0.400	1.550
2020/01/31 05:07:10.8	91.850	-0.390	-0.500	1.560
2020/01/31 05:07:10.9	91.840	-0.350	-0.610	1.570
2020/01/31 05:07:11.0	91.830	-0.310	-0.710	1.570
2020/01/31 05:07:11.1	91.820	-0.280	-0.810	1.580
2020/01/31 05:07:11.2	91.810	-0.240	-0.900	1.570
2020/01/31 05:07:11.3	91.800	-0.200	-0.990	1.570
2020/01/31 05:07:11.4	91.800	-0.170	-1.070	1.560
2020/01/31 05:07:11.5	91.790	-0.130	-1.140	1.550
2020/01/31 05:07:11.6	91.780	-0.100	-1.210	1.530
2020/01/31 05:07:11.7	91.770	-0.070	-1.260	1.510
2020/01/31 05:07:11.8	91.770	-0.040	-1.310	1.480
2020/01/31 05:07:11.9	91.760	-0.010	-1.350	1.450
2020/01/31 05:07:12.0	91.760	0.010	-1.380	1.430
2020/01/31 05:07:12.1	91.760	0.030	-1.400	1.390
2020/01/31 05:07:12.2	91.750	0.050	-1.410	1.360
2020/01/31 05:07:12.3	91.750	0.070	-1.410	1.330
2020/01/31 05:07:12.4	91.760	0.080	-1.400	1.290
2020/01/31 05:07:12.5	91.760	0.090	-1.370	1.260
2020/01/31 05:07:12.6	91.760	0.090	-1.340	1.220
2020/01/31 05:07:12.7	91.760	0.100	-1.300	1.190
2020/01/31 05:07:12.8	91.770	0.100	-1.250	1.160
2020/01/31 05:07:12.9	91.770	0.090	-1.190	1.130
2020/01/31 05:07:13.0	91.780	0.090	-1.120	1.100
2020/01/31 05:07:13.1	91.780	0.080	-1.040	1.070
2020/01/31 05:07:13.2	91.770	0.070	-0.950	1.050
2020/01/31 05:07:13.3	91.780	0.060	-0.860	1.020
2020/01/31 05:07:13.4	91.780	0.040	-0.770	1.000
2020/01/31 05:07:13.5	91.790	0.020	-0.660	0.990
2020/01/31 05:07:13.6	91.790	0.000	-0.560	0.970
2020/01/31 05:07:13.7	91.800	-0.020	-0.450	0.950
2020/01/31 05:07:13.8	91.800	-0.040	-0.340	0.940
2020/01/31 05:07:13.9	91.800	-0.060	-0.230	0.930
2020/01/31 05:07:14.0	91.810	-0.090	-0.120	0.920
2020/01/31 05:07:14.1	91.810	-0.110	-0.010	0.910
2020/01/31 05:07:14.2	91.810	-0.140	0.100	0.900
2020/01/31 05:07:14.3	91.810	-0.160	0.200	0.890
2020/01/31 05:07:14.4	91.810	-0.180	0.300	0.870
2020/01/31 05:07:14.5	91.810	-0.200	0.390	0.860
2020/01/31 05:07:14.6	91.820	-0.220	0.470	0.850
2020/01/31 05:07:14.7	91.820	-0.240	0.540	0.840
2020/01/31 05:07:14.8	91.820	-0.250	0.600	0.820
2020/01/31 05:07:14.9	91.820	-0.260	0.650	0.800
2020/01/31 05:07:15.0	91.820	-0.270	0.700	0.790
2020/01/31 05:07:15.1	91.820	-0.270	0.730	0.770
2020/01/31 05:07:15.2	91.820	-0.280	0.750	0.740
2020/01/31 05:07:15.3	91.820	-0.270	0.750	0.720
2020/01/31 05:07:15.4	91.820	-0.270	0.750	0.700
2020/01/31 05:07:15.5	91.820	-0.260	0.730	0.670
2020/01/31 05:07:15.6	91.820	-0.240	0.710	0.640
2020/01/31 05:07:15.7	91.820	-0.230	0.670	0.620
2020/01/31 05:07:15.8	91.820	-0.210	0.630	0.590
2020/01/31 05:07:15.9	91.810	-0.190	0.570	0.550
2020/01/31 05:07:16.0	91.810	-0.160	0.510	0.520
2020/01/31 05:07:16.1	91.810	-0.140	0.440	0.490
2020/01/31 05:07:16.2	91.810	-0.110	0.370	0.460
2020/01/31 05:07:16.3	91.810	-0.080	0.290	0.430
2020/01/31 05:07:16.4	91.810	-0.050	0.210	0.410
2020/01/31 05:07:16.5	91.800	-0.010	0.120	0.380
2020/01/31 05:07:16.6	91.790	0.020	0.040	0.360
2020/01/31 05:07:16.7	91.790	0.050	-0.050	0.340
2020/01/31 05:07:16.8	91.780	0.090	-0.130	0.320
2020/01/31 05:07:16.9	91.770	0.120	-0.220	0.310
2020/01/31 05:07:17.0	91.760	0.150	-0.290	0.290
2020/01/31 05:07:17.1	91.750	0.180	-0.370	0.280
2020/01/31 05:07:17.2	91.730	0.210	-0.440	0.270
2020/01/31 05:07:17.3	91.720	0.240	-0.500	0.270
2020/01/31 05:07:17.4	91.710	0.260	-0.560	0.270
2020/01/31 05:07:17.5	91.690	0.280	-0.610	0.260
2020/01/31 05:07:17.6	91.680	0.300	-0.660	0.270
2020/01/31 05:07:17.7	91.670	0.320	-0.690	0.270
2020/01/31 05:07:17.8	91.650	0.330	-0.720	0.280
2020/01/31 05:07:17.9	91.640	0.340	-0.740	0.290
2020/01/31 05:07:18.0	91.630	0.350	-0.750	0.300
2020/01/31 05:07:18.1	91.610	0.350	-0.760	0.310
2020/01/31 05:07:18.2	91.600	0.350	-0.760	0.320
2020/01/31 05:07:18.3	91.590	0.350	-0.750	0.340
2020/01/31 05:07:18.4	91.580	0.350	-0.730	0.360
2020/01/31 05:07:18.5	91.570	0.340	-0.710	0.380
2020/01/31 05:07:18.6	91.560	0.330	-0.680	0.400
2020/01/31 05:07:18.7	91.550	0.310	-0.650	0.420
2020/01/31 05:07:18.8	91.540	0.300	-0.610	0.450
2020/01/31 05:07:18.9	91.530	0.280	-0.570	0.470
2020/01/31 05:07:19.0	91.530	0.260	-0.520	0.490
2020/01/31 05:07:19.1	91.520	0.240	-0.470	0.510
2020/01/31 05:07:19.2	91.520	0.220	-0.420	0.530
2020/01/31 05:07:19.3	91.510	0.190	-0.370	0.550
2020/01/31 05:07:19.4	91.510	0.160	-0.310	0.570
2020/01/31 05:07:19.5	91.510	0.140	-0.260	0.590
2020/01/31 05:07:19.6	91.510	0.110	-0.210	0.610
2020/01/31 05:07:19.7	91.520	0.080	-0.160	0.630
2020/01/31 05:07:19.8	91.520	0.060	-0.110	0.640
2020/01/31 05:07:19.9	91.530	0.030	-0.070	0.660
2020/01/31 05:07:20.0	91.530	0.000	-0.030	0.670
2020/01/31 05:07:20.1	91.540	-0.020	0.010	0.680
2020/01/31 05:07:20.2	91.560	-0.050	0.040	0.690
2020/01/31 05:07:20.3	91.570	-0.070	0.060	0.700
2020/01/31 05:07:20.4	91.580	-0.090	0.090	0.700
2020/01/31 05:07:20.5	91.590	-0.110	0.110	0.710
2020/01/31 05:07:20.6	91.600	-0.120	0.120	0.720
2020/01/31 05:07:20.7	91.610	-0.140	0.130	0.720
2020/01/31 05:07:20.8	91.620	-0.150	0.130	0.720
2020/01/31 05:07:20.9	91.640	-0.170	0.130	0.730
2020/01/31 05:07:21.0	91.650	-0.170	0.120	0.740
2020/01/31 05:07:21.1	91.660	-0.180	0.120	0.740
2020/01/31 05:07:21.2	91.680	-0.190	0.100	0.750
2020/01/31 05:07:21.3	91.690	-0.190	0.090	0.760
2020/01/31 05:07:21.4	91.700	-0.190	0.070	0.770
2020/01/31 05:07:21.5	91.700	-0.190	0.050	0.790
2020/01/31 05:07:21.6	91.710	-0.190	0.030	0.800
2020/01/31 05:07:21.7	91.710	-0.190	0.010	0.820
2020/01/31 05:07:21.8	91.710	-0.180	-0.020	0.850
2020/01/31 05:07:21.9	91.710	-0.170	-0.040	0.870
2020/01/31 05:07:22.0	91.700	-0.170	-0.070	0.890
2020/01/31 05:07:22.1	91.690	-0.160	-0.090	0.920
2020/01/31 05:07:22.2	91.680	-0.150	-0.120	0.950
2020/01/31 05:07:22.3	91.670	-0.140	-0.140	0.970
2020/01/31 05:07:22.4	91.660	-0.120	-0.170	1.000
2020/01/31 05:07:22.5	91.640	-0.110	-0.190	1.020
2020/01/31 05:07:22.6	91.630	-0.100	-0.220	1.040
2020/01/31 05:07:22.7	91.610	-0.090	-0.240	1.060
2020/01/31 05:07:22.8	91.600	-0.080	-0.260	1.080
2020/01/31 05:07:22.9	91.580	-0.060	-0.280	1.090
2020/01/31 05:07:23.0	91.570	-0.050	-0.290	1.100
2020/01/31 05:07:23.1	91.550	-0.040	-0.310	1.110
2020/01/31 05:07:23.2	91.540	-0.030	-0.330	1.110
2020/01/31 05:07:23.3	91.530	-0.020	-0.340	1.120
2020/01/31 05:07:23.4	91.510	-0.020	-0.350	1.120
2020/01/31 05:07:23.5	91.500	-0.010	-0.360	1.120
2020/01/31 05:07:23.6	91.490	-0.000	-0.370	1.120
2020/01/31 05:07:23.7	91.480	0.000	-0.370	1.120
2020/01/31 05:07:23.8	91.470	0.000	-0.380	1.120
2020/01/31 05:07:23.9	91.460	0.010	-0.380	1.120
2020/01/31 05:07:24.0	91.450	0.010	-0.380	1.120
2020/01/31 05:07:24.1	91.440	0.010	-0.380	1.120
2020/01/31 05:07:24.2	91.430	0.000	-0.380	1.120
2020/01/31 05:07:24.3	91.420	0.000	-0.370	1.110
2020/01/31 05:07:24.4	91.420	-0.000	-0.370	1.110
2020/01/31 05:07:24.5	91.420	-0.000	-0.360	1.110
2020/01/31 05:07:24.6	91.420	-0.010	-0.360	1.100
2020/01/31 05:07:24.7	91.420	-0.010	-0.350	1.100
2020/01/31 05:07:24.8	91.420	-0.010	-0.350	1.090
2020/01/31 05:07:24.9	91.420	-0.020	-0.350	1.080
2020/01/31 05:07:25.0	91.430	-0.020	-0.340	1.070
2020/01/31 05:07:25.1	91.430	-0.020	-0.340	1.050
2020/01/31 05:07:25.2	91.440	-0.020	-0.340	1.030
2020/01/31 05:07:25.3	91.450	-0.020	-0.340	1.010
2020/01/31 05:07:25.4	91.460	-0.020	-0.350	0.990
2020/01/31 05:07:25.5	91.470	-0.010	-0.350	0.960
2020/01/31 05:07:25.6	91.490	-0.010	-0.360	0.930
2020/01/31 05:07:25.7	91.500	0.000	-0.370	0.900
2020/01/31 05:07:25.8	91.510	0.020	-0.390	0.870
2020/01/31 05:07:25.9	91.520	0.030	-0.400	0.840
2020/01/31 05:07:26.0	91.530	0.050	-0.420	0.800
2020/01/31 05:07:26.1	91.540	0.070	-0.440	0.770
2020/01/31 05:07:26.2	91.550	0.100	-0.460	0.740
2020/01/31 05:07:26.3	91.560	0.120	-0.480	0.710
2020/01/31 05:07:26.4	91.560	0.150	-0.500	0.680
2020/01/31 05:07:26.5	91.570	0.180	-0.520	0.650
2020/01/31 05:07:26.6	91.570	0.210	-0.540	0.630
2020/01/31 05:07:26.7	91.570	0.240	-0.550	0.610
2020/01/31 05:07:26.8	91.570	0.270	-0.560	0.590
2020/01/31 05:07:26.9	91.570	0.300	-0.570	0.570
2020/01/31 05:07:27.0	91.570	0.330	-0.570	0.560
2020/01/31 05:07:27.1	91.560	0.360	-0.570	0.560
2020/01/31 05:07:27.2	91.550	0.380	-0.560	0.550
2020/01/31 05:07:27.3	91.550	0.400	-0.540	0.550
2020/01/31 05:07:27.4	91.540	0.420	-0.520	0.550
2020/01/31 05:07:27.5	91.530	0.430	-0.490	0.560
2020/01/31 05:07:27.6	91.510	0.440	-0.450	0.570
2020/01/31 05:07:27.7	91.500	0.440	-0.410	0.580
2020/01/31 05:07:27.8	91.490	0.440	-0.370	0.590
2020/01/31 05:07:27.9	91.480	0.430	-0.320	0.610
2020/01/31 05:07:28.0	91.460	0.420	-0.260	0.630
2020/01/31 05:07:28.1	91.450	0.410	-0.210	0.650
2020/01/31 05:07:28.2	91.430	0.390	-0.150	0.670
2020/01/31 05:07:28.3	91.420	0.360	-0.090	0.690
2020/01/31 05:07:28.4	91.400	0.330	-0.030	0.710
2020/01/31 05:07:28.5	91.390	0.300	0.040	0.730
2020/01/31 05:07:28.6	91.370	0.260	0.100	0.740
2020/01/31 05:07:28.7	91.360	0.220	0.160	0.760
2020/01/31 05:07:28.8	91.350	0.170	0.210	0.770
2020/01/31 05:07:28.9	91.330	0.130	0.260	0.790
2020/01/31 05:07:29.0	91.320	0.080	0.310	0.800
2020/01/31 05:07:29.1	91.310	0.030	0.360	0.810
2020/01/31 05:07:29.2	91.310	-0.020	0.400	0.810
2020/01/31 05:07:29.3	91.300	-0.060	0.430	0.820
2020/01/31 05:07:29.4	91.290	-0.110	0.460	0.820
2020/01/31 05:07:29.5	91.290	-0.160	0.480	0.820
2020/01/31 05:07:29.6	91.290	-0.200	0.500	0.820
2020/01/31 05:07:29.7	91.290	-0.250	0.510	0.820
2020/01/31 05:07:29.8	91.290	-0.280	0.510	0.810
2020/01/31 05:07:29.9	91.290	-0.320	0.510	0.800
2020/01/31 05:07:30.0	91.290	-0.350	0.500	0.800
2020/01/31 05:07:30.1	91.300	-0.380	0.480	0.790
2020/01/31 05:07:30.2	91.310	-0.410	0.460	0.770
2020/01/31 05:07:30.3	91.320	-0.430	0.430	0.760
2020/01/31 05:07:30.4	91.320	-0.440	0.390	0.740
2020/01/31 05:07:30.5	91.330	-0.450	0.350	0.720
2020/01/31 05:07:30.6	91.340	-0.460	0.310	0.700
2020/01/31 05:07:30.7	91.350	-0.460	0.260	0.680
2020/01/31 05:07:30.8	91.360	-0.460	0.200	0.660
2020/01/31 05:07:30.9	91.380	-0.450	0.140	0.630
2020/01/31 05:07:31.0	91.390	-0.440	0.080	0.610
2020/01/31 05:07:31.1	91.410	-0.430	0.010	0.580
2020/01/31 05:07:31.2	91.410	-0.410	-0.050	0.560
2020/01/31 05:07:31.3	91.430	-0.390	-0.120	0.540
2020/01/31 05:07:31.4	91.440	-0.370	-0.190	0.520
2020/01/31 05:07:31.5	91.460	-0.340	-0.260	0.500
2020/01/31 05:07:31.6	91.470	-0.320	-0.330	0.480
2020/01/31 05:07:31.7	91.480	-0.290	-0.400	0.470
2020/01/31 05:07:31.8	91.490	-0.260	-0.460	0.460
2020/01/31 05:07:31.9	91.500	-0.230	-0.520	0.450
2020/01/31 05:07:32.0	91.510	-0.200	-0.580	0.450
2020/01/31 05:07:32.1	91.520	-0.170	-0.630	0.460
2020/01/31 05:07:32.2	91.530	-0.140	-0.680	0.460
2020/01/31 05:07:32.3	91.530	-0.120	-0.730	0.480
2020/01/31 05:07:32.4	91.540	-0.090	-0.760	0.490
2020/01/31 05:07:32.5	91.540	-0.070	-0.790	0.510
2020/01/31 05:07:32.6	91.550	-0.050	-0.820	0.530
2020/01/31 05:07:32.7	91.550	-0.030	-0.840	0.560
2020/01/31 05:07:32.8	91.550	-0.020	-0.850	0.580
2020/01/31 05:07:32.9	91.560	-0.010	-0.850	0.610
2020/01/31 05:07:33.0	91.560	0.000	-0.850	0.640
2020/01/31 05:07:33.1	91.560	0.010	-0.840	0.680
2020/01/31 05:07:33.2	91.560	0.010	-0.830	0.710
2020/01/31 05:07:33.3	91.560	0.020	-0.810	0.740
2020/01/31 05:07:33.4	91.560	0.020	-0.780	0.770
2020/01/31 05:07:33.5	91.560	0.010	-0.760	0.810
2020/01/31 05:07:33.6	91.570	0.010	-0.720	0.830
2020/01/31 05:07:33.7	91.570	0.000	-0.690	0.860
2020/01/31 05:07:33.8	91.570	-0.000	-0.650	0.890
2020/01/31 05:07:33.9	91.580	-0.010	-0.610	0.910
2020/01/31 05:07:34.0	91.580	-0.020	-0.570	0.940
2020/01/31 05:07:34.1	91.590	-0.030	-0.530	0.960
2020/01/31 05:07:34.2	91.600	-0.030	-0.490	0.980
2020/01/31 05:07:34.3	91.600	-0.040	-0.450	1.000
2020/01/31 05:07:34.4	91.600	-0.050	-0.400	1.020
2020/01/31 05:07:34.5	91.610	-0.060	-0.360	1.040
2020/01/31 05:07:34.6	91.610	-0.070	-0.330	1.050
2020/01/31 05:07:34.7	91.610	-0.070	-0.290	1.070
2020/01/31 05:07:34.8	91.610	-0.080	-0.260	1.090
2020/01/31 05:07:34.9	91.600	-0.080	-0.220	1.110
2020/01/31 05:07:35.0	91.590	-0.090	-0.190	1.130
2020/01/31 05:07:35.1	91.580	-0.090	-0.160	1.150
2020/01/31 05:07:35.2	91.570	-0.100	-0.140	1.170
2020/01/31 05:07:35.3	91.560	-0.100	-0.120	1.190
2020/01/31 05:07:35.4	91.540	-0.100	-0.100	1.210
2020/01/31 05:07:35.5	91.520	-0.100	-0.080	1.220
2020/01/31 05:07:35.6	91.500	-0.110	-0.060	1.240
2020/01/31 05:07:35.7	91.480	-0.110	-0.050	1.250
2020/01/31 05:07:35.8	91.460	-0.110	-0.040	1.250
2020/01/31 05:07:35.9	91.430	-0.110	-0.030	1.260
2020/01/31 05:07:36.0	91.410	-0.110	-0.020	1.260
2020/01/31 05:07:36.1	91.380	-0.110	-0.010	1.250
2020/01/31 05:07:36.2	91.350	-0.110	-0.010	1.240
2020/01/31 05:07:36.3	91.330	-0.110	-0.000	1.230
2020/01/31 05:07:36.4	91.300	-0.110	-0.000	1.210
2020/01/31 05:07:36.5	91.280	-0.110	-0.010	1.190
2020/01/31 05:07:36.6	91.250	-0.110	-0.010	1.160
2020/01/31 05:07:36.7	91.230	-0.110	-0.010	1.130
2020/01/31 05:07:36.8	91.200	-0.110	-0.020	1.100
2020/01/31 05:07:36.9	91.180	-0.110	-0.030	1.060
2020/01/31 05:07:37.0	91.160	-0.110	-0.040	1.030
2020/01/31 05:07:37.1	91.140	-0.110	-0.040	0.990
2020/01/31 05:07:37.2	91.120	-0.100	-0.060	0.950
2020/01/31 05:07:37.3	91.100	-0.100	-0.070	0.910
2020/01/31 05:07:37.4	91.080	-0.090	-0.080	0.870
2020/01/31 05:07:37.5	91.060	-0.080	-0.090	0.840
2020/01/31 05:07:37.6	91.050	-0.070	-0.100	0.800
2020/01/31 05:07:37.7	91.040	-0.060	-0.110	0.770
2020/01/31 05:07:37.8	91.030	-0.050	-0.120	0.740
2020/01/31 05:07:37.9	91.020	-0.040	-0.130	0.710
2020/01/31 05:07:38.0	91.010	-0.020	-0.140	0.680
2020/01/31 05:07:38.1	91.000	-0.000	-0.140	0.660
2020/01/31 05:07:38.2	90.990	0.010	-0.150	0.640
2020/01/31 05:07:38.3	90.990	0.030	-0.160	0.610
2020/01/31 05:07:38.4	90.990	0.050	-0.160	0.590
2020/01/31 05:07:38.5	90.980	0.070	-0.170	0.570
2020/01/31 05:07:38.6	90.990	0.090	-0.170	0.550
2020/01/31 05:07:38.7	90.990	0.120	-0.180	0.530
2020/01/31 05:07:38.8	90.990	0.140	-0.180	0.510
2020/01/31 05:07:38.9	91.000	0.160	-0.190	0.490
2020/01/31 05:07:39.0	91.000	0.180	-0.200	0.470
2020/01/31 05:07:39.1	91.010	0.200	-0.210	0.440
2020/01/31 05:07:39.2	91.020	0.220	-0.210	0.420
2020/01/31 05:07:39.3	91.030	0.240	-0.220	0.390
2020/01/31 05:07:39.4	91.050	0.260	-0.230	0.360
2020/01/31 05:07:39.5	91.060	0.280	-0.240	0.330
2020/01/31 05:07:39.6	91.080	0.300	-0.250	0.300
2020/01/31 05:07:39.7	91.100	0.310	-0.250	0.260
2020/01/31 05:07:39.8	91.120	0.320	-0.260	0.230
2020/01/31 05:07:39.9	91.140	0.330	-0.270	0.190
2020/01/31 05:07:40.0	91.170	0.340	-0.270	0.160
2020/01/31 05:07:40.1	91.190	0.340	-0.280	0.130
2020/01/31 05:07:40.2	91.210	0.350	-0.290	0.090
2020/01/31 05:07:40.3	91.240	0.350	-0.290	0.060
2020/01/31 05:07:40.4	91.260	0.340	-0.290	0.030
2020/01/31 05:07:40.5	91.290	0.340	-0.280	0.010
2020/01/31 05:07:40.6	91.320	0.330	-0.280	-0.010
2020/01/31 05:07:40.7	91.340	0.320	-0.270	-0.030
2020/01/31 05:07:40.8	91.360	0.310	-0.260	-0.040
2020/01/31 05:07:40.9	91.390	0.300	-0.250	-0.040
2020/01/31 05:07:41.0	91.410	0.280	-0.240	-0.050
2020/01/31 05:07:41.1	91.430	0.260	-0.220	-0.040
2020/01/31 05:07:41.2	91.450	0.250	-0.200	-0.030
2020/01/31 05:07:41.3	91.470	0.230	-0.180	-0.020
2020/01/31 05:07:41.4	91.490	0.210	-0.160	-0.000
2020/01/31 05:07:41.5	91.500	0.190	-0.140	0.020
2020/01/31 05:07:41.6	91.510	0.160	-0.110	0.040
2020/01/31 05:07:41.7	91.520	0.140	-0.090	0.070
2020/01/31 05:07:41.8	91.530	0.120	-0.060	0.100
2020/01/31 05:07:41.9	91.540	0.100	-0.040	0.130
2020/01/31 05:07:42.0	91.550	0.080	-0.020	0.170
2020/01/31 05:07:42.1	91.550	0.070	-0.000	0.210
2020/01/31 05:07:42.2	91.560	0.050	0.020	0.250
2020/01/31 05:07:42.3	91.560	0.040	0.030	0.290
2020/01/31 05:07:42.4	91.560	0.020	0.040	0.330
2020/01/31 05:07:42.5	91.560	0.010	0.040	0.370
2020/01/31 05:07:42.6	91.560	0.000	0.040	0.420
2020/01/31 05:07:42.7	91.560	-0.000	0.040	0.460
2020/01/31 05:07:42.8	91.560	-0.010	0.030	0.510
2020/01/31 05:07:42.9	91.560	-0.010	0.010	0.550
2020/01/31 05:07:43.0	91.550	-0.010	-0.000	0.600
2020/01/31 05:07:43.1	91.550	-0.010	-0.020	0.650
2020/01/31 05:07:43.2	91.550	-0.010	-0.050	0.690
2020/01/31 05:07:43.3	91.540	-0.000	-0.080	0.740
2020/01/31 05:07:43.4	91.530	0.000	-0.110	0.790
2020/01/31 05:07:43.5	91.510	0.010	-0.140	0.840
2020/01/31 05:07:43.6	91.500	0.010	-0.180	0.890
2020/01/31 05:07:43.7	91.480	0.020	-0.210	0.940
2020/01/31 05:07:43.8	91.470	0.030	-0.250	0.990
2020/01/31 05:07:43.9	91.450	0.030	-0.290	1.040
2020/01/31 05:07:44.0	91.420	0.040	-0.330	1.090
2020/01/31 05:07:44.1	91.400	0.050	-0.370	1.140
2020/01/31 05:07:44.2	91.370	0.050	-0.410	1.180
2020/01/31 05:07:44.3	91.350	0.060	-0.450	1.230
2020/01/31 05:07:44.4	91.320	0.060	-0.480	1.270
2020/01/31 05:07:44.5	91.290	0.070	-0.520	1.320
2020/01/31 05:07:44.6	91.260	0.070	-0.550	1.360
2020/01/31 05:07:44.7	91.230	0.070	-0.580	1.400
2020/01/31 05:07:44.8	91.200	0.070	-0.610	1.430
2020/01/31 05:07:44.9	91.170	0.070	-0.630	1.470
2020/01/31 05:07:45.0	91.140	0.070	-0.660	1.500
2020/01/31 05:07:45.1	91.110	0.070	-0.680	1.530
2020/01/31 05:07:45.2	91.080	0.070	-0.690	1.550
2020/01/31 05:07:45.3	91.050	0.060	-0.700	1.570
2020/01/31 05:07:45.4	91.020	0.050	-0.710	1.590
2020/01/31 05:07:45.5	91.000	0.050	-0.710	1.610
2020/01/31 05:07:45.6	90.970	0.040	-0.720	1.620
2020/01/31 05:07:45.7	90.950	0.030	-0.710	1.630
2020/01/31 05:07:45.8	90.930	0.020	-0.700	1.640
2020/01/31 05:07:45.9	90.910	0.000	-0.690	1.640
2020/01/31 05:07:46.0	90.900	-0.010	-0.680	1.640
2020/01/31 05:07:46.1	90.890	-0.030	-0.660	1.630
2020/01/31 05:07:46.2	90.880	-0.050	-0.630	1.620
2020/01/31 05:07:46.3	90.870	-0.060	-0.610	1.610
2020/01/31 05:07:46.4	90.870	-0.080	-0.570	1.590
2020/01/31 05:07:46.5	90.870	-0.100	-0.540	1.580
2020/01/31 05:07:46.6	90.870	-0.130	-0.500	1.560
2020/01/31 05:07:46.7	90.870	-0.150	-0.460	1.540
2020/01/31 05:07:46.8	90.880	-0.170	-0.420	1.510
2020/01/31 05:07:46.9	90.890	-0.200	-0.370	1.480
2020/01/31 05:07:47.0	90.900	-0.220	-0.320	1.450
2020/01/31 05:07:47.1	90.910	-0.250	-0.270	1.420
2020/01/31 05:07:47.2	90.910	-0.270	-0.220	1.390
2020/01/31 05:07:47.3	90.930	-0.290	-0.170	1.350
2020/01/31 05:07:47.4	90.940	-0.320	-0.120	1.310
2020/01/31 05:07:47.5	90.950	-0.340	-0.070	1.280
2020/01/31 05:07:47.6	90.970	-0.360	-0.020	1.240
2020/01/31 05:07:47.7	90.980	-0.380	0.030	1.200
2020/01/31 05:07:47.8	90.990	-0.400	0.080	1.160
2020/01/31 05:07:47.9	91.010	-0.410	0.130	1.120
2020/01/31 05:07:48.0	91.020	-0.430	0.170	1.080
2020/01/31 05:07:48.1	91.030	-0.440	0.210	1.050
2020/01/31 05:07:48.2	91.040	-0.450	0.240	1.010
2020/01/31 05:07:48.3	91.050	-0.450	0.270	0.980
2020/01/31 05:07:48.4	91.060	-0.450	0.300	0.940
2020/01/31 05:07:48.5	91.080	-0.450	0.330	0.910
2020/01/31 05:07:48.6	91.090	-0.450	0.340	0.880
2020/01/31 05:07:48.7	91.100	-0.440	0.360	0.850
2020/01/31 05:07:48.8	91.110	-0.430	0.360	0.820
2020/01/31 05:07:48.9	91.130	-0.420	0.370	0.790
2020/01/31 05:07:49.0	91.140	-0.410	0.370	0.760
2020/01/31 05:07:49.1	91.150	-0.390	0.360	0.730
2020/01/31 05:07:49.2	91.170	-0.370	0.340	0.700
2020/01/31 05:07:49.3	91.190	-0.350	0.330	0.680
2020/01/31 05:07:49.4	91.200	-0.320	0.310	0.650
2020/01/31 05:07:49.5	91.220	-0.300	0.290	0.620
2020/01/31 05:07:49.6	91.230	-0.270	0.260	0.600
2020/01/31 05:07:49.7	91.250	-0.240	0.230	0.570
2020/01/31 05:07:49.8	91.260	-0.220	0.200	0.550
2020/01/31 05:07:49.9	91.280	-0.190	0.160	0.520
2020/01/31 05:07:50.0	91.290	-0.160	0.120	0.500
2020/01/31 05:07:50.1	91.310	-0.140	0.090	0.480
2020/01/31 05:07:50.2	91.330	-0.110	0.050	0.460
2020/01/31 05:07:50.3	91.340	-0.080	0.010	0.440
2020/01/31 05:07:50.4	91.360	-0.060	-0.030	0.420
2020/01/31 05:07:50.5	91.370	-0.040	-0.060	0.410
2020/01/31 05:07:50.6	91.390	-0.020	-0.100	0.390
2020/01/31 05:07:50.7	91.400	0.000	-0.130	0.380
2020/01/31 05:07:50.8	91.420	0.020	-0.170	0.370
2020/01/31 05:07:50.9	91.430	0.040	-0.200	0.360
2020/01/31 05:07:51.0	91.440	0.050	-0.230	0.350
2020/01/31 05:07:51.1	91.450	0.060	-0.260	0.350
2020/01/31 05:07:51.2	91.460	0.080	-0.280	0.340
2020/01/31 05:07:51.3	91.470	0.080	-0.310	0.340
2020/01/31 05:07:51.4	91.480	0.090	-0.330	0.340
2020/01/31 05:07:51.5	91.490	0.100	-0.340	0.340
2020/01/31 05:07:51.6	91.490	0.100	-0.360	0.340
2020/01/31 05:07:51.7	91.500	0.100	-0.370	0.340
2020/01/31 05:07:51.8	91.500	0.110	-0.370	0.340
2020/01/31 05:07:51.9	91.510	0.110	-0.380	0.350
2020/01/31 05:07:52.0	91.510	0.110	-0.380	0.360
2020/01/31 05:07:52.1	91.510	0.100	-0.380	0.360
2020/01/31 05:07:52.2	91.510	0.100	-0.380	0.370
2020/01/31 05:07:52.3	91.510	0.100	-0.380	0.380
2020/01/31 05:07:52.4	91.510	0.100	-0.370	0.390
2020/01/31 05:07:52.5	91.510	0.090	-0.370	0.400
2020/01/31 05:07:52.6	91.500	0.090	-0.370	0.410
2020/01/31 05:07:52.7	91.500	0.090	-0.360	0.430
2020/01/31 05:07:52.8	91.490	0.090	-0.360	0.440
2020/01/31 05:07:52.9	91.490	0.080	-0.350	0.460
2020/01/31 05:07:53.0	91.480	0.080	-0.350	0.470
2020/01/31 05:07:53.1	91.480	0.080	-0.350	0.490
2020/01/31 05:07:53.2	91.480	0.080	-0.350	0.500
2020/01/31 05:07:53.3	91.470	0.080	-0.350	0.520
2020/01/31 05:07:53.4	91.460	0.080	-0.360	0.540
2020/01/31 05:07:53.5	91.450	0.080	-0.360	0.550
2020/01/31 05:07:53.6	91.440	0.090	-0.370	0.570
2020/01/31 05:07:53.7	91.430	0.090	-0.380	0.590
2020/01/31 05:07:53.8	91.420	0.090	-0.390	0.610
2020/01/31 05:07:53.9	91.410	0.100	-0.410	0.630
2020/01/31 05:07:54.0	91.400	0.110	-0.420	0.650
2020/01/31 05:07:54.1	91.390	0.120	-0.440	0.670
2020/01/31 05:07:54.2	91.380	0.120	-0.460	0.690
2020/01/31 05:07:54.3	91.370	0.130	-0.490	0.710
2020/01/31 05:07:54.4	91.350	0.140	-0.510	0.740
2020/01/31 05:07:54.5	91.340	0.150	-0.540	0.760
2020/01/31 05:07:54.6	91.320	0.170	-0.560	0.790
2020/01/31 05:07:54.7	91.300	0.180	-0.590	0.810
2020/01/31 05:07:54.8	91.290	0.190	-0.610	0.840
2020/01/31 05:07:54.9	91.270	0.200	-0.640	0.860
2020/01/31 05:07:55.0	91.260	0.210	-0.660	0.890
2020/01/31 05:07:55.1	91.240	0.220	-0.680	0.910
2020/01/31 05:07:55.2	91.230	0.230	-0.700	0.940
2020/01/31 05:07:55.3	91.220	0.240	-0.720	0.960
2020/01/31 05:07:55.4	91.200	0.250	-0.730	0.990
2020/01/31 05:07:55.5	91.190	0.250	-0.740	1.010
2020/01/31 05:07:55.6	91.180	0.250	-0.740	1.040
2020/01/31 05:07:55.7	91.170	0.260	-0.740	1.060
2020/01/31 05:07:55.8	91.160	0.260	-0.730	1.080
2020/01/31 05:07:55.9	91.150	0.260	-0.720	1.100
2020/01/31 05:07:56.0	91.140	0.250	-0.700	1.110
2020/01/31 05:07:56.1	91.130	0.250	-0.680	1.130
2020/01/31 05:07:56.2	91.130	0.240	-0.660	1.140
2020/01/31 05:07:56.3	91.130	0.230	-0.620	1.150
2020/01/31 05:07:56.4	91.120	0.220	-0.590	1.160
2020/01/31 05:07:56.5	91.120	0.210	-0.550	1.170
2020/01/31 05:07:56.6	91.120	0.190	-0.510	1.170
2020/01/31 05:07:56.7	91.120	0.180	-0.460	1.170
2020/01/31 05:07:56.8	91.120	0.160	-0.410	1.170
2020/01/31 05:07:56.9	91.120	0.140	-0.350	1.170
2020/01/31 05:07:57.0	91.120	0.120	-0.300	1.170
2020/01/31 05:07:57.1	91.120	0.100	-0.240	1.160
2020/01/31 05:07:57.2	91.120	0.080	-0.180	1.150
2020/01/31 05:07:57.3	91.110	0.060	-0.120	1.140
2020/01/31 05:07:57.4	91.110	0.040	-0.070	1.120
2020/01/31 05:07:57.5	91.110	0.020	-0.010	1.110
2020/01/31 05:07:57.6	91.100	-0.000	0.050	1.090
2020/01/31 05:07:57.7	91.100	-0.020	0.100	1.080
2020/01/31 05:07:57.8	91.090	-0.040	0.160	1.060
2020/01/31 05:07:57.9	91.090	-0.050	0.200	1.040
2020/01/31 05:07:58.0	91.090	-0.070	0.250	1.020
2020/01/31 05:07:58.1	91.080	-0.080	0.290	1.000
2020/01/31 05:07:58.2	91.080	-0.090	0.320	0.980
2020/01/31 05:07:58.3	91.070	-0.100	0.350	0.960
2020/01/31 05:07:58.4	91.070	-0.100	0.370	0.940
2020/01/31 05:07:58.5	91.070	-0.100	0.380	0.920
2020/01/31 05:07:58.6	91.060	-0.100	0.380	0.910
2020/01/31 05:07:58.7	91.060	-0.100	0.380	0.890
2020/01/31 05:07:58.8	91.060	-0.090	0.370	0.870
2020/01/31 05:07:58.9	91.070	-0.080	0.350	0.850
2020/01/31 05:07:59.0	91.070	-0.060	0.330	0.830
2020/01/31 05:07:59.1	91.080	-0.050	0.300	0.810
2020/01/31 05:07:59.2	91.080	-0.030	0.260	0.790
2020/01/31 05:07:59.3	91.090	-0.010	0.220	0.770
2020/01/31 05:07:59.4	91.090	0.020	0.170	0.750
2020/01/31 05:07:59.5	91.110	0.040	0.120	0.730
2020/01/31 05:07:59.6	91.120	0.070	0.070	0.710
2020/01/31 05:07:59.7	91.130	0.090	0.020	0.690
2020/01/31 05:07:59.8	91.140	0.120	-0.040	0.670
2020/01/31 05:07:59.9	91.150	0.140	-0.090	0.650
2020/01/31 05:08:00.0	91.170	0.170	-0.140	0.620
2020/01/31 05:08:00.1	91.180	0.190	-0.200	0.600
2020/01/31 05:08:00.2	91.200	0.210	-0.250	0.570
2020/01/31 05:08:00.3	91.220	0.230	-0.300	0.550
2020/01/31 05:08:00.4	91.230	0.250	-0.340	0.520
2020/01/31 05:08:00.5	91.250	0.260	-0.370	0.500
2020/01/31 05:08:00.6	91.260	0.270	-0.410	0.470
2020/01/31 05:08:00.7	91.270	0.280	-0.430	0.450
2020/01/31 05:08:00.8	91.290	0.290	-0.450	0.420
2020/01/31 05:08:00.9	91.300	0.290	-0.460	0.400
2020/01/31 05:08:01.0	91.310	0.290	-0.470	0.380
2020/01/31 05:08:01.1	91.320	0.280	-0.470	0.350
2020/01/31 05:08:01.2	91.340	0.270	-0.460	0.330
2020/01/31 05:08:01.3	91.350	0.260	-0.440	0.310
2020/01/31 05:08:01.4	91.350	0.240	-0.420	0.300
2020/01/31 05:08:01.5	91.360	0.220	-0.390	0.280
2020/01/31 05:08:01.6	91.370	0.190	-0.360	0.270
2020/01/31 05:08:01.7	91.370	0.160	-0.320	0.260
2020/01/31 05:08:01.8	91.380	0.130	-0.270	0.250
2020/01/31 05:08:01.9	91.380	0.100	-0.220	0.250
2020/01/31 05:08:02.0	91.380	0.060	-0.160	0.250
2020/01/31 05:08:02.1	91.380	0.020	-0.110	0.260
2020/01/31 05:08:02.2	91.380	-0.020	-0.040	0.260
2020/01/31 05:08:02.3	91.380	-0.060	0.020	0.280
2020/01/31 05:08:02.4	91.370	-0.110	0.080	0.300
2020/01/31 05:08:02.5	91.370	-0.160	0.140	0.320
2020/01/31 05:08:02.6	91.360	-0.200	0.200	0.350
2020/01/31 05:08:02.7	91.360	-0.250	0.250	0.380
2020/01/31 05:08:02.8	91.350	-0.300	0.310	0.410
2020/01/31 05:08:02.9	91.340	-0.340	0.360	0.450
2020/01/31 05:08:03.0	91.340	-0.390	0.400	0.490
2020/01/31 05:08:03.1	91.330	-0.430	0.430	0.530
2020/01/31 05:08:03.2	91.330	-0.480	0.460	0.580
2020/01/31 05:08:03.3	91.320	-0.510	0.480	0.620
2020/01/31 05:08:03.4	91.320	-0.550	0.490	0.670
2020/01/31 05:08:03.5	91.320	-0.580	0.500	0.710
2020/01/31 05:08:03.6	91.320	-0.610	0.490	0.750
2020/01/31 05:08:03.7	91.320	-0.640	0.480	0.790
2020/01/31 05:08:03.8	91.320	-0.660	0.460	0.820
2020/01/31 05:08:03.9	91.330	-0.680	0.430	0.860
2020/01/31 05:08:04.0	91.330	-0.700	0.390	0.890
2020/01/31 05:08:04.1	91.340	-0.710	0.340	0.920
2020/01/31 05:08:04.2	91.340	-0.710	0.290	0.940
2020/01/31 05:08:04.3	91.340	-0.710	0.230	0.970
2020/01/31 05:08:04.4	91.350	-0.710	0.160	0.990
2020/01/31 05:08:04.5	91.360	-0.710	0.090	1.010
2020/01/31 05:08:04.6	91.360	-0.700	0.020	1.020
2020/01/31 05:08:04.7	91.370	-0.680	-0.060	1.040
2020/01/31 05:08:04.8	91.370	-0.660	-0.140	1.050
2020/01/31 05:08:04.9	91.380	-0.640	-0.220	1.060
2020/01/31 05:08:05.0	91.380	-0.620	-0.300	1.080
2020/01/31 05:08:05.1	91.380	-0.590	-0.390	1.080
2020/01/31 05:08:05.2	91.380	-0.560	-0.470	1.090
2020/01/31 05:08:05.3	91.380	-0.530	-0.550	1.100
2020/01/31 05:08:05.4	91.380	-0.500	-0.630	1.110
2020/01/31 05:08:05.5	91.380	-0.460	-0.700	1.120
2020/01/31 05:08:05.6	91.370	-0.420	-0.770	1.120
2020/01/31 05:08:05.7	91.360	-0.380	-0.840	1.130
2020/01/31 05:08:05.8	91.360	-0.330	-0.900	1.140
2020/01/31 05:08:05.9	91.350	-0.290	-0.960	1.140
2020/01/31 05:08:06.0	91.330	-0.250	-1.010	1.150
2020/01/31 05:08:06.1	91.320	-0.200	-1.060	1.150
2020/01/31 05:08:06.2	91.300	-0.150	-1.100	1.160
2020/01/31 05:08:06.3	91.280	-0.110	-1.140	1.170
2020/01/31 05:08:06.4	91.270	-0.060	-1.170	1.170
2020/01/31 05:08:06.5	91.250	-0.010	-1.200	1.180
2020/01/31 05:08:06.6	91.230	0.030	-1.210	1.180
2020/01/31 05:08:06.7	91.210	0.070	-1.230	1.180
2020/01/31 05:08:06.8	91.200	0.120	-1.230	1.190
2020/01/31 05:08:06.9	91.180	0.160	-1.230	1.190
2020/01/31 05:08:07.0	91.160	0.200	-1.220	1.190
2020/01/31 05:08:07.1	91.140	0.230	-1.210	1.190
2020/01/31 05:08:07.2	91.120	0.270	-1.190	1.190
2020/01/31 05:08:07.3	91.110	0.300	-1.160	1.180
2020/01/31 05:08:07.4	91.090	0.330	-1.130	1.170
2020/01/31 05:08:07.5	91.080	0.360	-1.090	1.170
2020/01/31 05:08:07.6	91.070	0.380	-1.040	1.160
2020/01/31 05:08:07.7	91.060	0.400	-0.990	1.140
2020/01/31 05:08:07.8	91.040	0.420	-0.940	1.130
2020/01/31 05:08:07.9	91.030	0.430	-0.880	1.110
2020/01/31 05:08:08.0	91.020	0.440	-0.820	1.090
2020/01/31 05:08:08.1	91.020	0.440	-0.750	1.070
2020/01/31 05:08:08.2	91.000	0.440	-0.680	1.040
2020/01/31 05:08:08.3	91.000	0.440	-0.610	1.010
2020/01/31 05:08:08.4	90.990	0.440	-0.540	0.980
2020/01/31 05:08:08.5	90.980	0.430	-0.460	0.950
2020/01/31 05:08:08.6	90.980	0.420	-0.380	0.920
2020/01/31 05:08:08.7	90.970	0.410	-0.310	0.880
2020/01/31 05:08:08.8	90.970	0.400	-0.230	0.850
2020/01/31 05:08:08.9	90.970	0.380	-0.160	0.810
2020/01/31 05:08:09.0	90.960	0.360	-0.090	0.770
2020/01/31 05:08:09.1	90.960	0.340	-0.020	0.730
2020/01/31 05:08:09.2	90.960	0.320	0.060	0.690
2020/01/31 05:08:09.3	90.960	0.300	0.120	0.660
2020/01/31 05:08:09.4	90.960	0.280	0.190	0.620
2020/01/31 05:08:09.5	90.960	0.260	0.250	0.580
2020/01/31 05:08:09.6	90.960	0.240	0.300	0.540
2020/01/31 05:08:09.7	90.970	0.210	0.350	0.510
2020/01/31 05:08:09.8	90.970	0.190	0.400	0.480
2020/01/31 05:08:09.9	90.970	0.180	0.440	0.440
2020/01/31 05:08:10.0	90.980	0.160	0.480	0.410
2020/01/31 05:08:10.1	90.980	0.140	0.510	0.380
2020/01/31 05:08:10.2	90.990	0.130	0.530	0.350
2020/01/31 05:08:10.3	91.000	0.120	0.550	0.320
2020/01/31 05:08:10.4	91.010	0.110	0.560	0.290
2020/01/31 05:08:10.5	91.020	0.100	0.560	0.260
2020/01/31 05:08:10.6	91.020	0.100	0.560	0.230
2020/01/31 05:08:10.7	91.030	0.100	0.550	0.200
2020/01/31 05:08:10.8	91.040	0.100	0.530	0.170
2020/01/31 05:08:10.9	91.060	0.100	0.500	0.140
2020/01/31 05:08:11.0	91.070	0.110	0.460	0.110
2020/01/31 05:08:11.1	91.080	0.130	0.420	0.090
2020/01/31 05:08:11.2	91.080	0.140	0.370	0.060
2020/01/31 05:08:11.3	91.090	0.160	0.310	0.030
2020/01/31 05:08:11.4	91.110	0.180	0.250	0.010
2020/01/31 05:08:11.5	91.120	0.210	0.180	-0.010
2020/01/31 05:08:11.6	91.130	0.230	0.120	-0.030
2020/01/31 05:08:11.7	91.150	0.260	0.040	-0.050
2020/01/31 05:08:11.8	91.160	0.290	-0.030	-0.070
2020/01/31 05:08:11.9	91.180	0.320	-0.110	-0.080
2020/01/31 05:08:12.0	91.190	0.350	-0.180	-0.090
2020/01/31 05:08:12.1	91.210	0.380	-0.250	-0.090
2020/01/31 05:08:12.2	91.230	0.410	-0.320	-0.100
2020/01/31 05:08:12.3	91.250	0.440	-0.390	-0.090
2020/01/31 05:08:12.4	91.270	0.470	-0.440	-0.090
2020/01/31 05:08:12.5	91.280	0.490	-0.500	-0.070
2020/01/31 05:08:12.6	91.300	0.510	-0.540	-0.050
2020/01/31 05:08:12.7	91.320	0.530	-0.580	-0.030
2020/01/31 05:08:12.8	91.330	0.540	-0.610	-0.000
2020/01/31 05:08:12.9	91.340	0.550	-0.630	0.030
2020/01/31 05:08:13.0	91.360	0.550	-0.650	0.060
2020/01/31 05:08:13.1	91.370	0.550	-0.650	0.100
2020/01/31 05:08:13.2	91.380	0.540	-0.640	0.140
2020/01/31 05:08:13.3	91.390	0.520	-0.630	0.190
2020/01/31 05:08:13.4	91.400	0.500	-0.600	0.230
2020/01/31 05:08:13.5	91.410	0.480	-0.570	0.280
2020/01/31 05:08:13.6	91.410	0.450	-0.530	0.320
2020/01/31 05:08:13.7	91.420	0.410	-0.480	0.370
2020/01/31 05:08:13.8	91.420	0.360	-0.430	0.420
2020/01/31 05:08:13.9	91.420	0.320	-0.370	0.470
2020/01/31 05:08:14.0	91.420	0.260	-0.300	0.520
2020/01/31 05:08:14.1	91.420	0.200	-0.230	0.570
2020/01/31 05:08:14.2	91.430	0.140	-0.160	0.620
2020/01/31 05:08:14.3	91.430	0.080	-0.080	0.670
2020/01/31 05:08:14.4	91.430	0.010	-0.010	0.720
2020/01/31 05:08:14.5	91.420	-0.060	0.060	0.760
2020/01/31 05:08:14.6	91.420	-0.130	0.140	0.810
2020/01/31 05:08:14.7	91.410	-0.200	0.210	0.860
2020/01/31 05:08:14.8	91.410	-0.280	0.280	0.910
2020/01/31 05:08:14.9	91.400	-0.350	0.340	0.960
2020/01/31 05:08:15.0	91.400	-0.420	0.400	1.000
2020/01/31 05:08:15.1	91.400	-0.490	0.460	1.050
2020/01/31 05:08:15.2	91.390	-0.550	0.510	1.090
2020/01/31 05:08:15.3	91.390	-0.620	0.550	1.130
2020/01/31 05:08:15.4	91.390	-0.670	0.580	1.170
2020/01/31 05:08:15.5	91.390	-0.730	0.600	1.210
2020/01/31 05:08:15.6	91.390	-0.770	0.610	1.240
2020/01/31 05:08:15.7	91.390	-0.810	0.610	1.280
2020/01/31 05:08:15.8	91.390	-0.840	0.590	1.310
2020/01/31 05:08:15.9	91.400	-0.870	0.560	1.340
2020/01/31 05:08:16.0	91.400	-0.890	0.530	1.360
2020/01/31 05:08:16.1	91.410	-0.890	0.470	1.380
2020/01/31 05:08:16.2	91.420	-0.890	0.410	1.400
2020/01/31 05:08:16.3	91.430	-0.890	0.330	1.420
2020/01/31 05:08:16.4	91.430	-0.870	0.250	1.440
2020/01/31 05:08:16.5	91.440	-0.850	0.150	1.450
2020/01/31 05:08:16.6	91.440	-0.820	0.050	1.460
2020/01/31 05:08:16.7	91.450	-0.780	-0.060	1.470
2020/01/31 05:08:16.8	91.450	-0.730	-0.180	1.480
2020/01/31 05:08:16.9	91.450	-0.680	-0.300	1.490
2020/01/31 05:08:17.0	91.450	-0.630	-0.420	1.490
2020/01/31 05:08:17.1	91.450	-0.570	-0.540	1.500
2020/01/31 05:08:17.2	91.440	-0.510	-0.660	1.500
2020/01/31 05:08:17.3	91.440	-0.450	-0.780	1.490
2020/01/31 05:08:17.4	91.430	-0.380	-0.890	1.490
2020/01/31 05:08:17.5	91.420	-0.320	-0.990	1.480
2020/01/31 05:08:17.6	91.410	-0.250	-1.090	1.470
2020/01/31 05:08:17.7	91.400	-0.190	-1.170	1.460
2020/01/31 05:08:17.8	91.390	-0.130	-1.250	1.440
2020/01/31 05:08:17.9	91.380	-0.070	-1.310	1.420
2020/01/31 05:08:18.0	91.360	-0.010	-1.350	1.400
2020/01/31 05:08:18.1	91.350	0.040	-1.390	1.380
2020/01/31 05:08:18.2	91.330	0.080	-1.410	1.350
2020/01/31 05:08:18.3	91.320	0.120	-1.410	1.330
2020/01/31 05:08:18.4	91.310	0.150	-1.400	1.300
2020/01/31 05:08:18.5	91.290	0.180	-1.370	1.280
2020/01/31 05:08:18.6	91.280	0.200	-1.320	1.260
2020/01/31 05:08:18.7	91.280	0.210	-1.260	1.240
2020/01/31 05:08:18.8	91.270	0.220	-1.190	1.220
2020/01/31 05:08:18.9	91.260	0.220	-1.100	1.210
2020/01/31 05:08:19.0	91.250	0.210	-1.000	1.190
2020/01/31 05:08:19.1	91.250	0.200	-0.900	1.180
2020/01/31 05:08:19.2	91.240	0.180	-0.770	1.170
2020/01/31 05:08:19.3	91.240	0.160	-0.650	1.150
2020/01/31 05:08:19.4	91.240	0.130	-0.520	1.140
2020/01/31 05:08:19.5	91.250	0.090	-0.380	1.130
2020/01/31 05:08:19.6	91.250	0.060	-0.250	1.120
2020/01/31 05:08:19.7	91.260	0.010	-0.110	1.100
2020/01/31 05:08:19.8	91.270	-0.030	0.030	1.090
2020/01/31 05:08:19.9	91.280	-0.080	0.160	1.070
2020/01/31 05:08:20.0	91.290	-0.120	0.280	1.040
2020/01/31 05:08:20.1	91.310	-0.170	0.400	1.020
2020/01/31 05:08:20.2	91.320	-0.210	0.520	0.990
2020/01/31 05:08:20.3	91.340	-0.260	0.620	0.960
2020/01/31 05:08:20.4	91.350	-0.300	0.710	0.930
2020/01/31 05:08:20.5	91.370	-0.340	0.790	0.890
2020/01/31 05:08:20.6	91.390	-0.370	0.850	0.850
2020/01/31 05:08:20.7	91.400	-0.400	0.900	0.800
2020/01/31 05:08:20.8	91.420	-0.430	0.940	0.760
2020/01/31 05:08:20.9	91.440	-0.450	0.960	0.710
2020/01/31 05:08:21.0	91.450	-0.460	0.960	0.650
2020/01/31 05:08:21.1	91.460	-0.460	0.950	0.600
2020/01/31 05:08:21.2	91.480	-0.460	0.920	0.540
2020/01/31 05:08:21.3	91.490	-0.450	0.880	0.490
2020/01/31 05:08:21.4	91.500	-0.440	0.830	0.440
2020/01/31 05:08:21.5	91.510	-0.410	0.760	0.390
2020/01/31 05:08:21.6	91.510	-0.380	0.680	0.340
2020/01/31 05:08:21.7	91.510	-0.350	0.600	0.290
2020/01/31 05:08:21.8	91.510	-0.300	0.500	0.250
2020/01/31 05:08:21.9	91.510	-0.250	0.390	0.200
2020/01/31 05:08:22.0	91.510	-0.200	0.280	0.170
2020/01/31 05:08:22.1	91.500	-0.140	0.160	0.130
2020/01/31 05:08:22.2	91.490	-0.080	0.040	0.100
2020/01/31 05:08:22.3	91.490	-0.010	-0.080	0.070
2020/01/31 05:08:22.4	91.480	0.060	-0.200	0.040
2020/01/31 05:08:22.5	91.480	0.130	-0.330	0.020
2020/01/31 05:08:22.6	91.470	0.200	-0.450	0.000
2020/01/31 05:08:22.7	91.470	0.270	-0.570	-0.010
2020/01/31 05:08:22.8	91.460	0.340	-0.680	-0.020
2020/01/31 05:08:22.9	91.450	0.410	-0.790	-0.030
2020/01/31 05:08:23.0	91.450	0.470	-0.890	-0.030
2020/01/31 05:08:23.1	91.440	0.540	-0.980	-0.020
2020/01/31 05:08:23.2	91.440	0.600	-1.070	-0.020
2020/01/31 05:08:23.3	91.440	0.650	-1.140	-0.010
2020/01/31 05:08:23.4	91.430	0.700	-1.200	0.010
2020/01/31 05:08:23.5	91.430	0.750	-1.250	0.020
2020/01/31 05:08:23.6	91.430	0.790	-1.280	0.040
2020/01/31 05:08:23.7	91.420	0.820	-1.300	0.060
2020/01/31 05:08:23.8	91.420	0.840	-1.310	0.080
2020/01/31 05:08:23.9	91.420	0.860	-1.310	0.110
2020/01/31 05:08:24.0	91.420	0.870	-1.290	0.130
2020/01/31 05:08:24.1	91.430	0.870	-1.260	0.160
2020/01/31 05:08:24.2	91.420	0.870	-1.220	0.180
2020/01/31 05:08:24.3	91.430	0.860	-1.170	0.210
2020/01/31 05:08:24.4	91.430	0.850	-1.110	0.230
2020/01/31 05:08:24.5	91.440	0.820	-1.040	0.260
2020/01/31 05:08:24.6	91.440	0.790	-0.970	0.280
2020/01/31 05:08:24.7	91.450	0.760	-0.880	0.300
2020/01/31 05:08:24.8	91.450	0.720	-0.790	0.330
2020/01/31 05:08:24.9	91.460	0.680	-0.690	0.350
2020/01/31 05:08:25.0	91.470	0.630	-0.600	0.370
2020/01/31 05:08:25.1	91.480	0.580	-0.490	0.390
2020/01/31 05:08:25.2	91.500	0.530	-0.390	0.410
2020/01/31 05:08:25.3	91.510	0.470	-0.290	0.430
2020/01/31 05:08:25.4	91.520	0.420	-0.190	0.450
2020/01/31 05:08:25.5	91.530	0.360	-0.100	0.470
2020/01/31 05:08:25.6	91.540	0.310	-0.010	0.490
2020/01/31 05:08:25.7	91.550	0.250	0.080	0.510
2020/01/31 05:08:25.8	91.570	0.200	0.160	0.520
2020/01/31 05:08:25.9	91.580	0.140	0.230	0.540
2020/01/31 05:08:26.0	91.580	0.090	0.290	0.570
2020/01/31 05:08:26.1	91.590	0.050	0.340	0.590
2020/01/31 05:08:26.2	91.590	0.000	0.390	0.610
2020/01/31 05:08:26.3	91.590	-0.040	0.420	0.640
2020/01/31 05:08:26.4	91.600	-0.070	0.450	0.660
2020/01/31 05:08:26.5	91.600	-0.110	0.470	0.690
2020/01/31 05:08:26.6	91.590	-0.140	0.480	0.720
2020/01/31 05:08:26.7	91.590	-0.160	0.480	0.750
2020/01/31 05:08:26.8	91.590	-0.180	0.470	0.780
2020/01/31 05:08:26.9	91.580	-0.200	0.460	0.810
2020/01/31 05:08:27.0	91.580	-0.210	0.440	0.840
2020/01/31 05:08:27.1	91.570	-0.220	0.410	0.870
2020/01/31 05:08:27.2	91.580	-0.230	0.380	0.900
2020/01/31 05:08:27.3	91.570	-0.230	0.340	0.930
2020/01/31 05:08:27.4	91.560	-0.230	0.300	0.960
2020/01/31 05:08:27.5	91.550	-0.230	0.250	0.990
2020/01/31 05:08:27.6	91.550	-0.220	0.210	1.020
2020/01/31 05:08:27.7	91.540	-0.220	0.160	1.050
2020/01/31 05:08:27.8	91.530	-0.210	0.110	1.070
2020/01/31 05:08:27.9	91.520	-0.200	0.070	1.090
2020/01/31 05:08:28.0	91.510	-0.190	0.020	1.110
2020/01/31 05:08:28.1	91.490	-0.180	-0.030	1.130
2020/01/31 05:08:28.2	91.490	-0.160	-0.070	1.140
2020/01/31 05:08:28.3	91.480	-0.150	-0.110	1.150
2020/01/31 05:08:28.4	91.470	-0.140	-0.150	1.160
2020/01/31 05:08:28.5	91.460	-0.130	-0.190	1.170
2020/01/31 05:08:28.6	91.450	-0.120	-0.220	1.170
2020/01/31 05:08:28.7	91.450	-0.110	-0.240	1.160
2020/01/31 05:08:28.8	91.440	-0.100	-0.270	1.160
2020/01/31 05:08:28.9	91.430	-0.100	-0.280	1.150
2020/01/31 05:08:29.0	91.430	-0.090	-0.300	1.140
2020/01/31 05:08:29.1	91.420	-0.090	-0.300	1.130
2020/01/31 05:08:29.2	91.420	-0.080	-0.320	1.110
2020/01/31 05:08:29.3	91.420	-0.080	-0.310	1.100
2020/01/31 05:08:29.4	91.420	-0.080	-0.310	1.080
2020/01/31 05:08:29.5	91.420	-0.080	-0.300	1.060
2020/01/31 05:08:29.6	91.430	-0.090	-0.290	1.040
2020/01/31 05:08:29.7	91.430	-0.090	-0.270	1.020
2020/01/31 05:08:29.8	91.440	-0.100	-0.260	1.000
2020/01/31 05:08:29.9	91.450	-0.100	-0.240	0.980
2020/01/31 05:08:30.0	91.470	-0.110	-0.220	0.960
2020/01/31 05:08:30.1	91.480	-0.120	-0.190	0.930
2020/01/31 05:08:30.2	91.490	-0.130	-0.170	0.910
2020/01/31 05:08:30.3	91.510	-0.140	-0.150	0.890
2020/01/31 05:08:30.4	91.540	-0.140	-0.130	0.870
2020/01/31 05:08:30.5	91.560	-0.150	-0.120	0.850
2020/01/31 05:08:30.6	91.590	-0.160	-0.100	0.830
2020/01/31 05:08:30.7	91.620	-0.170	-0.090	0.810
2020/01/31 05:08:30.8	91.650	-0.170	-0.080	0.790
2020/01/31 05:08:30.9	91.680	-0.180	-0.080	0.770
2020/01/31 05:08:31.0	91.720	-0.180	-0.080	0.750
2020/01/31 05:08:31.1	91.750	-0.190	-0.080	0.730
2020/01/31 05:08:31.2	91.790	-0.190	-0.090	0.710
2020/01/31 05:08:31.3	91.830	-0.190	-0.100	0.700
2020/01/31 05:08:31.4	91.860	-0.190	-0.110	0.680
2020/01/31 05:08:31.5	91.890	-0.190	-0.130	0.670
2020/01/31 05:08:31.6	91.920	-0.190	-0.140	0.660
2020/01/31 05:08:31.7	91.950	-0.190	-0.160	0.650
2020/01/31 05:08:31.8	91.980	-0.190	-0.180	0.640
2020/01/31 05:08:31.9	92.000	-0.200	-0.200	0.630
2020/01/31 05:08:32.0	92.020	-0.200	-0.220	0.630
2020/01/31 05:08:32.1	92.040	-0.200	-0.240	0.630
2020/01/31 05:08:32.2	92.070	-0.200	-0.250	0.630
2020/01/31 05:08:32.3	92.080	-0.210	-0.260	0.630
2020/01/31 05:08:32.4	92.090	-0.210	-0.280	0.640
2020/01/31 05:08:32.5	92.090	-0.220	-0.280	0.650
2020/01/31 05:08:32.6	92.100	-0.230	-0.290	0.660
2020/01/31 05:08:32.7	92.090	-0.240	-0.290	0.680
2020/01/31 05:08:32.8	92.090	-0.250	-0.290	0.690
2020/01/31 05:08:32.9	92.080	-0.260	-0.280	0.720
2020/01/31 05:08:33.0	92.070	-0.280	-0.270	0.740
2020/01/31 05:08:33.1	92.050	-0.290	-0.260	0.770
2020/01/31 05:08:33.2	92.030	-0.310	-0.250	0.790
2020/01/31 05:08:33.3	92.010	-0.320	-0.230	0.820
2020/01/31 05:08:33.4	91.990	-0.340	-0.210	0.850
2020/01/31 05:08:33.5	91.960	-0.360	-0.180	0.880
2020/01/31 05:08:33.6	91.940	-0.380	-0.160	0.910
2020/01/31 05:08:33.7	91.900	-0.400	-0.130	0.940
2020/01/31 05:08:33.8	91.870	-0.410	-0.110	0.970
2020/01/31 05:08:33.9	91.840	-0.430	-0.080	1.000
2020/01/31 05:08:34.0	91.800	-0.440	-0.050	1.030
2020/01/31 05:08:34.1	91.770	-0.460	-0.030	1.060
2020/01/31 05:08:34.2	91.740	-0.470	-0.000	1.080
2020/01/31 05:08:34.3	91.700	-0.470	0.020	1.100
2020/01/31 05:08:34.4	91.660	-0.480	0.030	1.120
2020/01/31 05:08:34.5	91.630	-0.480	0.040	1.140
2020/01/31 05:08:34.6	91.590	-0.480	0.050	1.150
2020/01/31 05:08:34.7	91.550	-0.470	0.050	1.160
2020/01/31 05:08:34.8	91.520	-0.460	0.050	1.170
2020/01/31 05:08:34.9	91.490	-0.450	0.040	1.170
2020/01/31 05:08:35.0	91.460	-0.430	0.030	1.170
2020/01/31 05:08:35.1	91.420	-0.410	0.010	1.160
2020/01/31 05:08:35.2	91.390	-0.390	-0.010	1.140
2020/01/31 05:08:35.3	91.360	-0.360	-0.040	1.130
2020/01/31 05:08:35.4	91.330	-0.320	-0.070	1.110
2020/01/31 05:08:35.5	91.300	-0.290	-0.110	1.080
2020/01/31 05:08:35.6	91.280	-0.250	-0.150	1.050
2020/01/31 05:08:35.7	91.260	-0.200	-0.200	1.020
2020/01/31 05:08:35.8	91.240	-0.160	-0.240	0.990
2020/01/31 05:08:35.9	91.220	-0.110	-0.290	0.950
2020/01/31 05:08:36.0	91.210	-0.050	-0.350	0.910
2020/01/31 05:08:36.1	91.190	0.000	-0.400	0.870
2020/01/31 05:08:36.2	91.180	0.060	-0.460	0.830
2020/01/31 05:08:36.3	91.170	0.120	-0.520	0.780
2020/01/31 05:08:36.4	91.170	0.180	-0.580	0.740
2020/01/31 05:08:36.5	91.160	0.240	-0.630	0.700
2020/01/31 05:08:36.6	91.160	0.300	-0.690	0.650
2020/01/31 05:08:36.7	91.160	0.360	-0.740	0.610
2020/01/31 05:08:36.8	91.170	0.420	-0.790	0.570
2020/01/31 05:08:36.9	91.170	0.480	-0.840	0.530
2020/01/31 05:08:37.0	91.180	0.540	-0.890	0.480
2020/01/31 05:08:37.1	91.190	0.600	-0.930	0.440
2020/01/31 05:08:37.2	91.200	0.650	-0.970	0.400
2020/01/31 05:08:37.3	91.220	0.710	-1.000	0.360
2020/01/31 05:08:37.4	91.240	0.760	-1.030	0.320
2020/01/31 05:08:37.5	91.250	0.810	-1.050	0.280
2020/01/31 05:08:37.6	91.270	0.850	-1.070	0.240
2020/01/31 05:08:37.7	91.290	0.890	-1.080	0.200
2020/01/31 05:08:37.8	91.310	0.930	-1.080	0.170
2020/01/31 05:08:37.9	91.330	0.960	-1.080	0.130
2020/01/31 05:08:38.0	91.350	0.990	-1.070	0.090
2020/01/31 05:08:38.1	91.370	1.020	-1.050	0.060
2020/01/31 05:08:38.2	91.380	1.040	-1.030	0.030
2020/01/31 05:08:38.3	91.390	1.050	-1.000	-0.000
2020/01/31 05:08:38.4	91.410	1.060	-0.970	-0.030
2020/01/31 05:08:38.5	91.420	1.070	-0.920	-0.050
2020/01/31 05:08:38.6	91.430	1.060	-0.870	-0.070
2020/01/31 05:08:38.7	91.440	1.060	-0.820	-0.090
2020/01/31 05:08:38.8	91.450	1.050	-0.750	-0.100
2020/01/31 05:08:38.9	91.450	1.030	-0.680	-0.100
2020/01/31 05:08:39.0	91.450	1.010	-0.610	-0.100
2020/01/31 05:08:39.1	91.450	0.980	-0.530	-0.100
2020/01/31 05:08:39.2	91.450	0.950	-0.450	-0.090
2020/01/31 05:08:39.3	91.440	0.910	-0.360	-0.070
2020/01/31 05:08:39.4	91.430	0.870	-0.270	-0.050
2020/01/31 05:08:39.5	91.420	0.830	-0.180	-0.020
2020/01/31 05:08:39.6	91.410	0.780	-0.080	0.020
2020/01/31 05:08:39.7	91.390	0.730	0.010	0.050
2020/01/31 05:08:39.8	91.380	0.670	0.110	0.100
2020/01/31 05:08:39.9	91.360	0.610	0.200	0.140
2020/01/31 05:08:40.0	91.350	0.550	0.300	0.190
2020/01/31 05:08:40.1	91.330	0.490	0.390	0.240
2020/01/31 05:08:40.2	91.320	0.420	0.470	0.290
2020/01/31 05:08:40.3	91.300	0.350	0.560	0.350
2020/01/31 05:08:40.4	91.290	0.290	0.630	0.400
2020/01/31 05:08:40.5	91.270	0.220	0.700	0.450
2020/01/31 05:08:40.6	91.260	0.150	0.760	0.510
2020/01/31 05:08:40.7	91.250	0.080	0.820	0.560
2020/01/31 05:08:40.8	91.240	0.010	0.860	0.610
2020/01/31 05:08:40.9	91.230	-0.050	0.900	0.660
2020/01/31 05:08:41.0	91.230	-0.120	0.930	0.700
2020/01/31 05:08:41.1	91.230	-0.180	0.950	0.740
2020/01/31 05:08:41.2	91.220	-0.240	0.940	0.780
2020/01/31 05:08:41.3	91.220	-0.290	0.940	0.820
2020/01/31 05:08:41.4	91.220	-0.340	0.930	0.850
2020/01/31 05:08:41.5	91.220	-0.390	0.900	0.890
2020/01/31 05:08:41.6	91.230	-0.440	0.870	0.920
2020/01/31 05:08:41.7	91.240	-0.470	0.820	0.940
2020/01/31 05:08:41.8	91.240	-0.510	0.770	0.970
2020/01/31 05:08:41.9	91.250	-0.540	0.710	0.990
2020/01/31 05:08:42.0	91.260	-0.570	0.640	1.020
2020/01/31 05:08:42.1	91.270	-0.590	0.560	1.040
2020/01/31 05:08:42.2	91.280	-0.610	0.480	1.050
2020/01/31 05:08:42.3	91.290	-0.620	0.400	1.080
2020/01/31 05:08:42.4	91.300	-0.630	0.310	1.090
2020/01/31 05:08:42.5	91.310	-0.640	0.220	1.110
2020/01/31 05:08:42.6	91.320	-0.640	0.130	1.130
2020/01/31 05:08:42.7	91.330	-0.640	0.040	1.150
2020/01/31 05:08:42.8	91.340	-0.630	-0.050	1.170
2020/01/31 05:08:42.9	91.350	-0.620	-0.140	1.200
2020/01/31 05:08:43.0	91.360	-0.610	-0.220	1.220
2020/01/31 05:08:43.1	91.370	-0.600	-0.300	1.240
2020/01/31 05:08:43.2	91.380	-0.590	-0.390	1.270
2020/01/31 05:08:43.3	91.390	-0.570	-0.460	1.300
2020/01/31 05:08:43.4	91.390	-0.550	-0.530	1.330
2020/01/31 05:08:43.5	91.400	-0.530	-0.590	1.350
2020/01/31 05:08:43.6	91.400	-0.510	-0.650	1.380
2020/01/31 05:08:43.7	91.400	-0.490	-0.700	1.410
2020/01/31 05:08:43.8	91.410	-0.470	-0.740	1.440
2020/01/31 05:08:43.9	91.410	-0.450	-0.780	1.460
2020/01/31 05:08:44.0	91.410	-0.420	-0.820	1.490
2020/01/31 05:08:44.1	91.410	-0.400	-0.850	1.510
2020/01/31 05:08:44.2	91.410	-0.380	-0.870	1.530
2020/01/31 05:08:44.3	91.410	-0.360	-0.890	1.540
2020/01/31 05:08:44.4	91.410	-0.330	-0.900	1.560
2020/01/31 05:08:44.5	91.410	-0.310	-0.910	1.570
2020/01/31 05:08:44.6	91.410	-0.290	-0.910	1.580
2020/01/31 05:08:44.7	91.410	-0.270	-0.900	1.580
2020/01/31 05:08:44.8	91.410	-0.250	-0.900	1.580
2020/01/31 05:08:44.9	91.410	-0.230	-0.890	1.570
2020/01/31 05:08:45.0	91.410	-0.210	-0.870	1.570
2020/01/31 05:08:45.1	91.410	-0.190	-0.850	1.560
2020/01/31 05:08:45.2	91.410	-0.170	-0.830	1.540
2020/01/31 05:08:45.3	91.410	-0.150	-0.810	1.530
2020/01/31 05:08:45.4	91.410	-0.140	-0.780	1.510
2020/01/31 05:08:45.5	91.420	-0.120	-0.740	1.500
2020/01/31 05:08:45.6	91.420	-0.110	-0.710	1.480
2020/01/31 05:08:45.7	91.420	-0.090	-0.670	1.460
2020/01/31 05:08:45.8	91.420	-0.080	-0.630	1.450
2020/01/31 05:08:45.9	91.430	-0.070	-0.580	1.430
2020/01/31 05:08:46.0	91.430	-0.060	-0.530	1.410
2020/01/31 05:08:46.1	91.420	-0.060	-0.480	1.390
2020/01/31 05:08:46.2	91.420	-0.050	-0.430	1.370
2020/01/31 05:08:46.3	91.420	-0.040	-0.370	1.350
2020/01/31 05:08:46.4	91.420	-0.040	-0.310	1.330
2020/01/31 05:08:46.5	91.410	-0.040	-0.250	1.310
2020/01/31 05:08:46.6	91.410	-0.040	-0.190	1.280
2020/01/31 05:08:46.7	91.400	-0.040	-0.130	1.260
2020/01/31 05:08:46.8	91.390	-0.040	-0.070	1.230
2020/01/31 05:08:46.9	91.390	-0.050	-0.010	1.200
2020/01/31 05:08:47.0	91.380	-0.050	0.040	1.170
2020/01/31 05:08:47.1	91.370	-0.050	0.100	1.140
2020/01/31 05:08:47.2	91.380	-0.060	0.150	1.100
2020/01/31 05:08:47.3	91.370	-0.070	0.200	1.070
2020/01/31 05:08:47.4	91.360	-0.070	0.240	1.030
2020/01/31 05:08:47.5	91.350	-0.080	0.280	0.990
2020/01/31 05:08:47.6	91.340	-0.080	0.320	0.950
2020/01/31 05:08:47.7	91.330	-0.080	0.340	0.910
2020/01/31 05:08:47.8	91.320	-0.090	0.370	0.860
2020/01/31 05:08:47.9	91.320	-0.090	0.380	0.820
2020/01/31 05:08:48.0	91.310	-0.090	0.390	0.770
2020/01/31 05:08:48.1	91.300	-0.080	0.390	0.720
2020/01/31 05:08:48.2	91.300	-0.080	0.390	0.670
2020/01/31 05:08:48.3	91.300	-0.080	0.380	0.620
2020/01/31 05:08:48.4	91.300	-0.070	0.360	0.570
2020/01/31 05:08:48.5	91.290	-0.060	0.340	0.520
2020/01/31 05:08:48.6	91.290	-0.050	0.310	0.470
2020/01/31 05:08:48.7	91.290	-0.030	0.270	0.420
2020/01/31 05:08:48.8	91.300	-0.020	0.230	0.370
2020/01/31 05:08:48.9	91.300	0.000	0.180	0.320
2020/01/31 05:08:49.0	91.300	0.030	0.130	0.270
2020/01/31 05:08:49.1	91.310	0.050	0.070	0.220
2020/01/31 05:08:49.2	91.310	0.070	0.010	0.170
2020/01/31 05:08:49.3	91.310	0.100	-0.060	0.120
2020/01/31 05:08:49.4	91.320	0.130	-0.120	0.070
2020/01/31 05:08:49.5	91.330	0.160	-0.190	0.030
2020/01/31 05:08:49.6	91.340	0.200	-0.260	-0.020
2020/01/31 05:08:49.7	91.360	0.230	-0.340	-0.060
2020/01/31 05:08:49.8	91.370	0.260	-0.410	-0.110
2020/01/31 05:08:49.9	91.390	0.300	-0.480	-0.150
2020/01/31 05:08:50.0	91.400	0.340	-0.550	-0.190
2020/01/31 05:08:50.1	91.420	0.370	-0.620	-0.220
2020/01/31 05:08:50.2	91.440	0.410	-0.690	-0.260
2020/01/31 05:08:50.3	91.460	0.440	-0.750	-0.300
2020/01/31 05:08:50.4	91.490	0.470	-0.800	-0.320
2020/01/31 05:08:50.5	91.510	0.500	-0.850	-0.350
2020/01/31 05:08:50.6	91.530	0.530	-0.890	-0.370
2020/01/31 05:08:50.7	91.560	0.560	-0.930	-0.380
2020/01/31 05:08:50.8	91.580	0.580	-0.960	-0.390
2020/01/31 05:08:50.9	91.610	0.600	-0.970	-0.400
2020/01/31 05:08:51.0	91.630	0.610	-0.980	-0.390
2020/01/31 05:08:51.1	91.650	0.620	-0.980	-0.380
2020/01/31 05:08:51.2	91.680	0.630	-0.960	-0.360
2020/01/31 05:08:51.3	91.700	0.630	-0.940	-0.340
2020/01/31 05:08:51.4	91.710	0.620	-0.910	-0.310
2020/01/31 05:08:51.5	91.730	0.610	-0.870	-0.270
2020/01/31 05:08:51.6	91.740	0.590	-0.810	-0.230
2020/01/31 05:08:51.7	91.750	0.570	-0.750	-0.180
2020/01/31 05:08:51.8	91.760	0.540	-0.690	-0.130
2020/01/31 05:08:51.9	91.770	0.510	-0.610	-0.070
2020/01/31 05:08:52.0	91.770	0.470	-0.530	-0.010
2020/01/31 05:08:52.1	91.770	0.430	-0.450	0.050
2020/01/31 05:08:52.2	91.780	0.380	-0.360	0.120
2020/01/31 05:08:52.3	91.780	0.330	-0.270	0.180
2020/01/31 05:08:52.4	91.780	0.280	-0.180	0.250
2020/01/31 05:08:52.5	91.780	0.220	-0.090	0.310
2020/01/31 05:08:52.6	91.780	0.160	0.010	0.380
2020/01/31 05:08:52.7	91.780	0.100	0.090	0.440
2020/01/31 05:08:52.8	91.770	0.040	0.180	0.500
2020/01/31 05:08:52.9	91.770	-0.020	0.260	0.550
2020/01/31 05:08:53.0	91.770	-0.080	0.330	0.610
2020/01/31 05:08:53.1	91.770	-0.140	0.400	0.650
2020/01/31 05:08:53.2	91.770	-0.200	0.450	0.700
2020/01/31 05:08:53.3	91.770	-0.250	0.500	0.740
2020/01/31 05:08:53.4	91.770	-0.300	0.540	0.770
2020/01/31 05:08:53.5	91.770	-0.350	0.560	0.800
2020/01/31 05:08:53.6	91.770	-0.390	0.580	0.830
2020/01/31 05:08:53.7	91.770	-0.430	0.580	0.850
2020/01/31 05:08:53.8	91.770	-0.460	0.570	0.870
2020/01/31 05:08:53.9	91.770	-0.490	0.550	0.890
2020/01/31 05:08:54.0	91.770	-0.510	0.510	0.910
2020/01/31 05:08:54.1	91.760	-0.520	0.470	0.930
2020/01/31 05:08:54.2	91.770	-0.530	0.420	0.940
2020/01/31 05:08:54.3	91.760	-0.530	0.360	0.960
2020/01/31 05:08:54.4	91.760	-0.520	0.290	0.980
2020/01/31 05:08:54.5	91.750	-0.510	0.220	1.010
2020/01/31 05:08:54.6	91.740	-0.500	0.140	1.030
2020/01/31 05:08:54.7	91.730	-0.470	0.060	1.060
2020/01/31 05:08:54.8	91.730	-0.450	-0.030	1.090
2020/01/31 05:08:54.9	91.720	-0.410	-0.110	1.110
2020/01/31 05:08:55.0	91.710	-0.380	-0.200	1.140
2020/01/31 05:08:55.1	91.700	-0.340	-0.280	1.170
2020/01/31 05:08:55.2	91.690	-0.300	-0.370	1.200
2020/01/31 05:08:55.3	91.680	-0.260	-0.450	1.230
2020/01/31 05:08:55.4	91.670	-0.220	-0.520	1.250
2020/01/31 05:08:55.5	91.660	-0.170	-0.590	1.270
2020/01/31 05:08:55.6	91.650	-0.130	-0.650	1.290
2020/01/31 05:08:55.7	91.650	-0.080	-0.710	1.300
2020/01/31 05:08:55.8	91.640	-0.040	-0.760	1.300
2020/01/31 05:08:55.9	91.640	0.000	-0.800	1.300
2020/01/31 05:08:56.0	91.640	0.040	-0.840	1.300
2020/01/31 05:08:56.1	91.640	0.080	-0.870	1.290
2020/01/31 05:08:56.2	91.630	0.110	-0.890	1.280
2020/01/31 05:08:56.3	91.630	0.140	-0.900	1.260
2020/01/31 05:08:56.4	91.640	0.170	-0.900	1.240
2020/01/31 05:08:56.5	91.640	0.190	-0.900	1.210
2020/01/31 05:08:56.6	91.640	0.220	-0.890	1.190
2020/01/31 05:08:56.7	91.640	0.230	-0.870	1.160
2020/01/31 05:08:56.8	91.650	0.250	-0.840	1.130
2020/01/31 05:08:56.9	91.650	0.250	-0.800	1.100
2020/01/31 05:08:57.0	91.650	0.260	-0.760	1.070
2020/01/31 05:08:57.1	91.650	0.260	-0.720	1.040
2020/01/31 05:08:57.2	91.650	0.260	-0.660	1.000
2020/01/31 05:08:57.3	91.660	0.250	-0.600	0.970
2020/01/31 05:08:57.4	91.660	0.240	-0.540	0.950
2020/01/31 05:08:57.5	91.660	0.220	-0.480	0.920
2020/01/31 05:08:57.6	91.670	0.210	-0.410	0.890
2020/01/31 05:08:57.7	91.670	0.190	-0.340	0.860
2020/01/31 05:08:57.8	91.680	0.170	-0.280	0.840
2020/01/31 05:08:57.9	91.680	0.140	-0.210	0.810
2020/01/31 05:08:58.0	91.690	0.110	-0.140	0.790
2020/01/31 05:08:58.1	91.690	0.090	-0.070	0.770
2020/01/31 05:08:58.2	91.700	0.060	-0.000	0.750
2020/01/31 05:08:58.3	91.700	0.030	0.060	0.720
2020/01/31 05:08:58.4	91.710	-0.010	0.130	0.700
2020/01/31 05:08:58.5	91.720	-0.040	0.190	0.680
2020/01/31 05:08:58.6	91.730	-0.070	0.240	0.660
2020/01/31 05:08:58.7	91.740	-0.100	0.290	0.640
2020/01/31 05:08:58.8	91.750	-0.130	0.330	0.620
2020/01/31 05:08:58.9	91.750	-0.160	0.370	0.600
2020/01/31 05:08:59.0	91.760	-0.180	0.410	0.590
2020/01/31 05:08:59.1	91.770	-0.210	0.430	0.570
2020/01/31 05:08:59.2	91.770	-0.230	0.450	0.550
2020/01/31 05:08:59.3	91.770	-0.250	0.460	0.540
2020/01/31 05:08:59.4	91.770	-0.260	0.470	0.530
2020/01/31 05:08:59.5	91.770	-0.280	0.470	0.520
2020/01/31 05:08:59.6	91.760	-0.290	0.450	0.510
2020/01/31 05:08:59.7	91.750	-0.290	0.430	0.500
2020/01/31 05:08:59.8	91.740	-0.300	0.410	0.490
2020/01/31 05:08:59.9	91.730	-0.300	0.380	0.480
2020/01/31 05:09:00.0	91.720	-0.290	0.330	0.470
2020/01/31 05:09:00.1	91.710	-0.290	0.290	0.460
2020/01/31 05:09:00.2	91.690	-0.280	0.230	0.460
2020/01/31 05:09:00.3	91.670	-0.260	0.170	0.450
2020/01/31 05:09:00.4	91.660	-0.240	0.110	0.450
2020/01/31 05:09:00.5	91.640	-0.220	0.040	0.450
2020/01/31 05:09:00.6	91.630	-0.200	-0.030	0.440
2020/01/31 05:09:00.7	91.610	-0.170	-0.110	0.440
2020/01/31 05:09:00.8	91.600	-0.140	-0.180	0.430
2020/01/31 05:09:00.9	91.600	-0.110	-0.260	0.430
2020/01/31 05:09:01.0	91.590	-0.080	-0.340	0.430
2020/01/31 05:09:01.1	91.590	-0.040	-0.410	0.420
2020/01/31 05:09:01.2	91.590	-0.010	-0.490	0.410
2020/01/31 05:09:01.3	91.590	0.030	-0.560	0.410
2020/01/31 05:09:01.4	91.600	0.060	-0.630	0.400
2020/01/31 05:09:01.5	91.610	0.100	-0.690	0.400
2020/01/31 05:09:01.6	91.620	0.130	-0.740	0.400
2020/01/31 05:09:01.7	91.630	0.170	-0.790	0.400
2020/01/31 05:09:01.8	91.650	0.200	-0.820	0.400
2020/01/31 05:09:01.9	91.660	0.220	-0.850	0.400
2020/01/31 05:09:02.0	91.680	0.250	-0.870	0.410
2020/01/31 05:09:02.1	91.700	0.270	-0.880	0.410
2020/01/31 05:09:02.2	91.720	0.290	-0.890	0.420
2020/01/31 05:09:02.3	91.750	0.300	-0.880	0.430
2020/01/31 05:09:02.4	91.770	0.310	-0.860	0.440
2020/01/31 05:09:02.5	91.790	0.320	-0.830	0.450
2020/01/31 05:09:02.6	91.810	0.320	-0.790	0.470
2020/01/31 05:09:02.7	91.840	0.320	-0.750	0.480
2020/01/31 05:09:02.8	91.860	0.310	-0.690	0.490
2020/01/31 05:09:02.9	91.880	0.300	-0.630	0.510
2020/01/31 05:09:03.0	91.910	0.280	-0.570	0.530
2020/01/31 05:09:03.1	91.930	0.270	-0.500	0.540
2020/01/31 05:09:03.2	91.950	0.240	-0.420	0.560
2020/01/31 05:09:03.3	91.970	0.220	-0.340	0.570
2020/01/31 05:09:03.4	91.980	0.190	-0.270	0.590
2020/01/31 05:09:03.5	92.000	0.160	-0.190	0.610
2020/01/31 05:09:03.6	92.020	0.120	-0.110	0.620
2020/01/31 05:09:03.7	92.030	0.090	-0.040	0.640
2020/01/31 05:09:03.8	92.040	0.050	0.040	0.650
2020/01/31 05:09:03.9	92.050	0.020	0.100	0.670
2020/01/31 05:09:04.0	92.060	-0.010	0.160	0.680
2020/01/31 05:09:04.1	92.060	-0.050	0.220	0.700
2020/01/31 05:09:04.2	92.060	-0.080	0.270	0.720
2020/01/31 05:09:04.3	92.060	-0.110	0.310	0.730
2020/01/31 05:09:04.4	92.060	-0.140	0.340	0.760
2020/01/31 05:09:04.5	92.060	-0.160	0.360	0.780
2020/01/31 05:09:04.6	92.050	-0.180	0.370	0.800
2020/01/31 05:09:04.7	92.040	-0.200	0.380	0.830
2020/01/31 05:09:04.8	92.030	-0.220	0.370	0.860
2020/01/31 05:09:04.9	92.010	-0.230	0.360	0.890
2020/01/31 05:09:05.0	92.000	-0.230	0.340	0.930
2020/01/31 05:09:05.1	91.980	-0.240	0.310	0.960
2020/01/31 05:09:05.2	91.960	-0.240	0.280	1.000
2020/01/31 05:09:05.3	91.940	-0.230	0.230	1.030
2020/01/31 05:09:05.4	91.920	-0.230	0.190	1.070
2020/01/31 05:09:05.5	91.890	-0.220	0.130	1.100
2020/01/31 05:09:05.6	91.880	-0.210	0.080	1.130
2020/01/31 05:09:05.7	91.860	-0.190	0.020	1.160
2020/01/31 05:09:05.8	91.840	-0.180	-0.040	1.190
2020/01/31 05:09:05.9	91.820	-0.160	-0.110	1.220
2020/01/31 05:09:06.0	91.800	-0.140	-0.170	1.240
2020/01/31 05:09:06.1	91.790	-0.120	-0.230	1.260
2020/01/31 05:09:06.2	91.770	-0.100	-0.300	1.270
2020/01/31 05:09:06.3	91.760	-0.080	-0.350	1.280
2020/01/31 05:09:06.4	91.740	-0.060	-0.410	1.280
2020/01/31 05:09:06.5	91.730	-0.030	-0.460	1.280
2020/01/31 05:09:06.6	91.720	-0.010	-0.510	1.280
2020/01/31 05:09:06.7	91.710	0.010	-0.560	1.270
2020/01/31 05:09:06.8	91.700	0.030	-0.600	1.260
2020/01/31 05:09:06.9	91.700	0.040	-0.630	1.250
2020/01/31 05:09:07.0	91.690	0.060	-0.660	1.230
2020/01/31 05:09:07.1	91.680	0.080	-0.690	1.210
2020/01/31 05:09:07.2	91.680	0.090	-0.700	1.180
2020/01/31 05:09:07.3	91.670	0.100	-0.710	1.150
2020/01/31 05:09:07.4	91.670	0.110	-0.720	1.120
2020/01/31 05:09:07.5	91.660	0.120	-0.710	1.090
2020/01/31 05:09:07.6	91.660	0.130	-0.700	1.060
2020/01/31 05:09:07.7	91.660	0.130	-0.680	1.030
2020/01/31 05:09:07.8	91.660	0.130	-0.660	1.000
2020/01/31 05:09:07.9	91.660	0.130	-0.630	0.960
2020/01/31 05:09:08.0	91.670	0.130	-0.600	0.930
2020/01/31 05:09:08.1	91.670	0.130	-0.560	0.900
2020/01/31 05:09:08.2	91.670	0.120	-0.510	0.860
2020/01/31 05:09:08.3	91.670	0.120	-0.460	0.830
2020/01/31 05:09:08.4	91.680	0.110	-0.400	0.800
2020/01/31 05:09:08.5	91.680	0.100	-0.350	0.760
2020/01/31 05:09:08.6	91.690	0.090	-0.290	0.730
2020/01/31 05:09:08.7	91.700	0.080	-0.230	0.700
2020/01/31 05:09:08.8	91.700	0.060	-0.170	0.670
2020/01/31 05:09:08.9	91.710	0.050	-0.110	0.640
2020/01/31 05:09:09.0	91.720	0.040	-0.060	0.610
2020/01/31 05:09:09.1	91.720	0.020	-0.000	0.580
2020/01/31 05:09:09.2	91.720	0.010	0.050	0.540
2020/01/31 05:09:09.3	91.730	-0.010	0.100	0.520
2020/01/31 05:09:09.4	91.730	-0.020	0.150	0.490
2020/01/31 05:09:09.5	91.740	-0.030	0.190	0.460
2020/01/31 05:09:09.6	91.740	-0.050	0.220	0.430
2020/01/31 05:09:09.7	91.750	-0.060	0.250	0.410
2020/01/31 05:09:09.8	91.750	-0.070	0.270	0.390
2020/01/31 05:09:09.9	91.750	-0.080	0.290	0.360
2020/01/31 05:09:10.0	91.750	-0.080	0.290	0.340
2020/01/31 05:09:10.1	91.750	-0.090	0.300	0.320
2020/01/31 05:09:10.2	91.760	-0.090	0.290	0.310
2020/01/31 05:09:10.3	91.760	-0.090	0.280	0.300
2020/01/31 05:09:10.4	91.750	-0.090	0.260	0.290
2020/01/31 05:09:10.5	91.750	-0.080	0.230	0.280
2020/01/31 05:09:10.6	91.750	-0.070	0.200	0.270
2020/01/31 05:09:10.7	91.750	-0.060	0.150	0.270
2020/01/31 05:09:10.8	91.750	-0.050	0.100	0.270
2020/01/31 05:09:10.9	91.740	-0.040	0.050	0.280
2020/01/31 05:09:11.0	91.740	-0.020	-0.010	0.280
2020/01/31 05:09:11.1	91.740	0.000	-0.080	0.290
2020/01/31 05:09:11.2	91.740	0.030	-0.160	0.300
2020/01/31 05:09:11.3	91.740	0.050	-0.230	0.320
2020/01/31 05:09:11.4	91.740	0.080	-0.310	0.330
2020/01/31 05:09:11.5	91.730	0.110	-0.390	0.350
2020/01/31 05:09:11.6	91.730	0.140	-0.470	0.370
2020/01/31 05:09:11.7	91.730	0.170	-0.550	0.390
2020/01/31 05:09:11.8	91.730	0.200	-0.620	0.410
2020/01/31 05:09:11.9	91.730	0.230	-0.700	0.430
2020/01/31 05:09:12.0	91.730	0.250	-0.770	0.450
2020/01/31 05:09:12.1	91.730	0.280	-0.830	0.470
2020/01/31 05:09:12.2	91.730	0.310	-0.890	0.490
2020/01/31 05:09:12.3	91.740	0.330	-0.940	0.510
2020/01/31 05:09:12.4	91.740	0.350	-0.980	0.530
2020/01/31 05:09:12.5	91.740	0.370	-1.010	0.550
2020/01/31 05:09:12.6	91.740	0.380	-1.040	0.570
2020/01/31 05:09:12.7	91.740	0.390	-1.050	0.580
2020/01/31 05:09:12.8	91.750	0.400	-1.050	0.600
2020/01/31 05:09:12.9	91.750	0.400	-1.040	0.620
2020/01/31 05:09:13.0	91.750	0.400	-1.020	0.630
2020/01/31 05:09:13.1	91.750	0.390	-0.990	0.650
2020/01/31 05:09:13.2	91.740	0.380	-0.940	0.660
2020/01/31 05:09:13.3	91.740	0.370	-0.890	0.680
2020/01/31 05:09:13.4	91.740	0.350	-0.830	0.690
2020/01/31 05:09:13.5	91.740	0.320	-0.750	0.710
2020/01/31 05:09:13.6	91.730	0.290	-0.680	0.730
2020/01/31 05:09:13.7	91.730	0.260	-0.590	0.740
2020/01/31 05:09:13.8	91.720	0.220	-0.490	0.760
2020/01/31 05:09:13.9	91.710	0.180	-0.400	0.780
2020/01/31 05:09:14.0	91.700	0.140	-0.300	0.800
2020/01/31 05:09:14.1	91.700	0.100	-0.190	0.820
2020/01/31 05:09:14.2	91.680	0.050	-0.090	0.840
2020/01/31 05:09:14.3	91.670	0.000	0.020	0.860
2020/01/31 05:09:14.4	91.670	-0.050	0.120	0.890
2020/01/31 05:09:14.5	91.660	-0.100	0.220	0.910
2020/01/31 05:09:14.6	91.650	-0.140	0.320	0.930
2020/01/31 05:09:14.7	91.650	-0.190	0.410	0.960
2020/01/31 05:09:14.8	91.640	-0.240	0.490	0.980
2020/01/31 05:09:14.9	91.640	-0.290	0.570	1.000
2020/01/31 05:09:15.0	91.640	-0.330	0.640	1.020
2020/01/31 05:09:15.1	91.640	-0.370	0.700	1.050
2020/01/31 05:09:15.2	91.640	-0.410	0.750	1.070
2020/01/31 05:09:15.3	91.640	-0.450	0.790	1.090
2020/01/31 05:09:15.4	91.640	-0.480	0.810	1.110
2020/01/31 05:09:15.5	91.650	-0.510	0.830	1.120
2020/01/31 05:09:15.6	91.660	-0.530	0.830	1.140
2020/01/31 05:09:15.7	91.670	-0.550	0.820	1.160
2020/01/31 05:09:15.8	91.680	-0.560	0.800	1.170
2020/01/31 05:09:15.9	91.690	-0.570	0.770	1.180
2020/01/31 05:09:16.0	91.700	-0.570	0.720	1.190
2020/01/31 05:09:16.1	91.720	-0.570	0.660	1.190
2020/01/31 05:09:16.2	91.730	-0.560	0.590	1.190
2020/01/31 05:09:16.3	91.750	-0.550	0.510	1.190
2020/01/31 05:09:16.4	91.760	-0.530	0.410	1.190
2020/01/31 05:09:16.5	91.770	-0.500	0.310	1.180
2020/01/31 05:09:16.6	91.780	-0.470	0.210	1.170
2020/01/31 05:09:16.7	91.790	-0.440	0.090	1.160
2020/01/31 05:09:16.8	91.800	-0.400	-0.020	1.140
2020/01/31 05:09:16.9	91.810	-0.360	-0.140	1.130
2020/01/31 05:09:17.0	91.820	-0.320	-0.260	1.110
2020/01/31 05:09:17.1	91.820	-0.270	-0.380	1.080
2020/01/31 05:09:17.2	91.820	-0.220	-0.500	1.060
2020/01/31 05:09:17.3	91.820	-0.170	-0.620	1.030
2020/01/31 05:09:17.4	91.820	-0.130	-0.720	1.000
2020/01/31 05:09:17.5	91.820	-0.080	-0.820	0.980
2020/01/31 05:09:17.6	91.810	-0.030	-0.910	0.950
2020/01/31 05:09:17.7	91.810	0.020	-0.990	0.930
2020/01/31 05:09:17.8	91.800	0.070	-1.060	0.910
2020/01/31 05:09:17.9	91.790	0.110	-1.120	0.890
2020/01/31 05:09:18.0	91.780	0.150	-1.160	0.870
2020/01/31 05:09:18.1	91.770	0.190	-1.190	0.860
2020/01/31 05:09:18.2	91.770	0.220	-1.200	0.850
2020/01/31 05:09:18.3	91.760	0.250	-1.200	0.850
2020/01/31 05:09:18.4	91.750	0.270	-1.190	0.840
2020/01/31 05:09:18.5	91.730	0.290	-1.160	0.850
2020/01/31 05:09:18.6	91.720	0.300	-1.110	0.850
2020/01/31 05:09:18.7	91.710	0.310	-1.060	0.860
2020/01/31 05:09:18.8	91.700	0.320	-0.990	0.870
2020/01/31 05:09:18.9	91.690	0.320	-0.910	0.880
2020/01/31 05:09:19.0	91.680	0.310	-0.820	0.900
2020/01/31 05:09:19.1	91.670	0.300	-0.730	0.920
2020/01/31 05:09:19.2	91.660	0.280	-0.620	0.940
2020/01/31 05:09:19.3	91.650	0.260	-0.510	0.960
2020/01/31 05:09:19.4	91.640	0.230	-0.400	0.970
2020/01/31 05:09:19.5	91.630	0.200	-0.280	0.990
2020/01/31 05:09:19.6	91.620	0.170	-0.170	1.010
2020/01/31 05:09:19.7	91.620	0.140	-0.050	1.020
2020/01/31 05:09:19.8	91.610	0.100	0.060	1.040
2020/01/31 05:09:19.9	91.610	0.060	0.170	1.050
2020/01/31 05:09:20.0	91.610	0.020	0.270	1.060
2020/01/31 05:09:20.1	91.610	-0.020	0.370	1.060
2020/01/31 05:09:20.2	91.610	-0.060	0.460	1.060
2020/01/31 05:09:20.3	91.620	-0.100	0.540	1.060
2020/01/31 05:09:20.4	91.620	-0.140	0.610	1.060
2020/01/31 05:09:20.5	91.630	-0.180	0.670	1.050
2020/01/31 05:09:20.6	91.630	-0.210	0.710	1.040
2020/01/31 05:09:20.7	91.640	-0.240	0.750	1.020
2020/01/31 05:09:20.8	91.650	-0.270	0.770	1.010
2020/01/31 05:09:20.9	91.660	-0.290	0.780	0.990
2020/01/31 05:09:21.0	91.670	-0.310	0.780	0.960
2020/01/31 05:09:21.1	91.680	-0.330	0.760	0.940
2020/01/31 05:09:21.2	91.690	-0.340	0.740	0.910
2020/01/31 05:09:21.3	91.700	-0.350	0.700	0.880
2020/01/31 05:09:21.4	91.710	-0.350	0.650	0.850
2020/01/31 05:09:21.5	91.720	-0.350	0.590	0.820
2020/01/31 05:09:21.6	91.730	-0.340	0.530	0.790
2020/01/31 05:09:21.7	91.740	-0.330	0.450	0.760
2020/01/31 05:09:21.8	91.750	-0.320	0.370	0.730
2020/01/31 05:09:21.9	91.760	-0.300	0.280	0.690
2020/01/31 05:09:22.0	91.770	-0.270	0.190	0.660
2020/01/31 05:09:22.1	91.780	-0.250	0.090	0.630
2020/01/31 05:09:22.2	91.790	-0.210	-0.010	0.600
2020/01/31 05:09:22.3	91.800	-0.180	-0.120	0.570
2020/01/31 05:09:22.4	91.810	-0.140	-0.220	0.540
2020/01/31 05:09:22.5	91.820	-0.100	-0.330	0.520
2020/01/31 05:09:22.6	91.830	-0.060	-0.430	0.490
2020/01/31 05:09:22.7	91.840	-0.020	-0.530	0.470
2020/01/31 05:09:22.8	91.850	0.030	-0.630	0.450
2020/01/31 05:09:22.9	91.860	0.070	-0.720	0.440
2020/01/31 05:09:23.0	91.870	0.120	-0.810	0.420
2020/01/31 05:09:23.1	91.880	0.170	-0.890	0.410
2020/01/31 05:09:23.2	91.890	0.210	-0.970	0.400
2020/01/31 05:09:23.3	91.900	0.260	-1.040	0.390
2020/01/31 05:09:23.4	91.900	0.300	-1.100	0.390
2020/01/31 05:09:23.5	91.910	0.350	-1.150	0.390
2020/01/31 05:09:23.6	91.920	0.390	-1.200	0.400
2020/01/31 05:09:23.7	91.930	0.420	-1.230	0.410
2020/01/31 05:09:23.8	91.930	0.460	-1.260	0.420
2020/01/31 05:09:23.9	91.940	0.490	-1.270	0.440
2020/01/31 05:09:24.0	91.940	0.510	-1.280	0.460
2020/01/31 05:09:24.1	91.940	0.530	-1.270	0.480
2020/01/31 05:09:24.2	91.930	0.550	-1.260	0.510
2020/01/31 05:09:24.3	91.930	0.560	-1.230	0.530
2020/01/31 05:09:24.4	91.930	0.570	-1.200	0.560
2020/01/31 05:09:24.5	91.930	0.570	-1.150	0.590
2020/01/31 05:09:24.6	91.920	0.570	-1.100	0.620
2020/01/31 05:09:24.7	91.920	0.560	-1.040	0.660
2020/01/31 05:09:24.8	91.910	0.550	-0.970	0.690
2020/01/31 05:09:24.9	91.900	0.530	-0.890	0.720
2020/01/31 05:09:25.0	91.890	0.500	-0.810	0.760
2020/01/31 05:09:25.1	91.890	0.480	-0.720	0.790
2020/01/31 05:09:25.2	91.880	0.440	-0.620	0.820
2020/01/31 05:09:25.3	91.870	0.410	-0.530	0.850
2020/01/31 05:09:25.4	91.850	0.370	-0.430	0.890
2020/01/31 05:09:25.5	91.840	0.320	-0.320	0.920
2020/01/31 05:09:25.6	91.830	0.280	-0.220	0.950
2020/01/31 05:09:25.7	91.820	0.230	-0.120	0.980
2020/01/31 05:09:25.8	91.810	0.180	-0.020	1.010
2020/01/31 05:09:25.9	91.800	0.130	0.080	1.040
2020/01/31 05:09:26.0	91.780	0.080	0.180	1.070
2020/01/31 05:09:26.1	91.770	0.020	0.270	1.090
2020/01/31 05:09:26.2	91.760	-0.030	0.360	1.120
2020/01/31 05:09:26.3	91.750	-0.080	0.440	1.130
2020/01/31 05:09:26.4	91.730	-0.130	0.520	1.150
2020/01/31 05:09:26.5	91.720	-0.180	0.580	1.160
2020/01/31 05:09:26.6	91.710	-0.230	0.640	1.180
2020/01/31 05:09:26.7	91.690	-0.270	0.690	1.180
2020/01/31 05:09:26.8	91.680	-0.310	0.730	1.190
2020/01/31 05:09:26.9	91.660	-0.350	0.760	1.190
2020/01/31 05:09:27.0	91.650	-0.380	0.780	1.190
2020/01/31 05:09:27.1	91.630	-0.410	0.790	1.180
2020/01/31 05:09:27.2	91.630	-0.430	0.780	1.170
2020/01/31 05:09:27.3	91.610	-0.450	0.770	1.160
2020/01/31 05:09:27.4	91.600	-0.470	0.750	1.150
2020/01/31 05:09:27.5	91.590	-0.480	0.720	1.130
2020/01/31 05:09:27.6	91.580	-0.480	0.680	1.110
2020/01/31 05:09:27.7	91.570	-0.480	0.640	1.090
2020/01/31 05:09:27.8	91.570	-0.480	0.580	1.060
2020/01/31 05:09:27.9	91.570	-0.470	0.520	1.030
2020/01/31 05:09:28.0	91.570	-0.450	0.460	1.000
2020/01/31 05:09:28.1	91.580	-0.440	0.380	0.970
2020/01/31 05:09:28.2	91.580	-0.420	0.310	0.930
2020/01/31 05:09:28.3	91.600	-0.390	0.230	0.890
2020/01/31 05:09:28.4	91.620	-0.360	0.150	0.850
2020/01/31 05:09:28.5	91.640	-0.330	0.060	0.810
2020/01/31 05:09:28.6	91.660	-0.300	-0.020	0.770
2020/01/31 05:09:28.7	91.690	-0.270	-0.110	0.730
2020/01/31 05:09:28.8	91.720	-0.230	-0.190	0.690
2020/01/31 05:09:28.9	91.750	-0.200	-0.270	0.640
2020/01/31 05:09:29.0	91.790	-0.160	-0.340	0.600
2020/01/31 05:09:29.1	91.830	-0.120	-0.420	0.560
2020/01/31 05:09:29.2	91.860	-0.090	-0.490	0.520
2020/01/31 05:09:29.3	91.900	-0.050	-0.560	0.480
2020/01/31 05:09:29.4	91.940	-0.020	-0.620	0.450
2020/01/31 05:09:29.5	91.980	0.020	-0.670	0.420
2020/01/31 05:09:29.6	92.010	0.050	-0.720	0.400
2020/01/31 05:09:29.7	92.050	0.080	-0.760	0.370
2020/01/31 05:09:29.8	92.080	0.100	-0.800	0.350
2020/01/31 05:09:29.9	92.110	0.130	-0.830	0.340
2020/01/31 05:09:30.0	92.140	0.150	-0.850	0.330
2020/01/31 05:09:30.1	92.160	0.170	-0.870	0.320
2020/01/31 05:09:30.2	92.180	0.190	-0.880	0.320
2020/01/31 05:09:30.3	92.200	0.200	-0.880	0.320
2020/01/31 05:09:30.4	92.210	0.210	-0.880	0.330
2020/01/31 05:09:30.5	92.220	0.220	-0.870	0.340
2020/01/31 05:09:30.6	92.230	0.230	-0.850	0.350
2020/01/31 05:09:30.7	92.230	0.230	-0.830	0.360
2020/01/31 05:09:30.8	92.230	0.230	-0.800	0.370
2020/01/31 05:09:30.9	92.230	0.220	-0.770	0.390
2020/01/31 05:09:31.0	92.220	0.220	-0.730	0.410
2020/01/31 05:09:31.1	92.220	0.210	-0.690	0.420
2020/01/31 05:09:31.2	92.210	0.200	-0.640	0.440
2020/01/31 05:09:31.3	92.190	0.190	-0.590	0.460
2020/01/31 05:09:31.4	92.180	0.170	-0.540	0.480
2020/01/31 05:09:31.5	92.160	0.150	-0.490	0.510
2020/01/31 05:09:31.6	92.140	0.140	-0.430	0.530
2020/01/31 05:09:31.7	92.120	0.120	-0.370	0.550
2020/01/31 05:09:31.8	92.100	0.100	-0.320	0.580
2020/01/31 05:09:31.9	92.080	0.080	-0.260	0.610
2020/01/31 05:09:32.0	92.050	0.060	-0.210	0.630
2020/01/31 05:09:32.1	92.030	0.040	-0.160	0.660
2020/01/31 05:09:32.2	92.010	0.020	-0.110	0.680
2020/01/31 05:09:32.3	91.980	-0.000	-0.060	0.710
2020/01/31 05:09:32.4	91.960	-0.020	-0.020	0.730
2020/01/31 05:09:32.5	91.940	-0.040	0.020	0.760
2020/01/31 05:09:32.6	91.920	-0.050	0.050	0.780
2020/01/31 05:09:32.7	91.900	-0.070	0.070	0.800
2020/01/31 05:09:32.8	91.880	-0.080	0.100	0.820
2020/01/31 05:09:32.9	91.860	-0.090	0.110	0.830
2020/01/31 05:09:33.0	91.840	-0.100	0.120	0.850
2020/01/31 05:09:33.1	91.830	-0.110	0.130	0.860
2020/01/31 05:09:33.2	91.810	-0.120	0.120	0.870
2020/01/31 05:09:33.3	91.800	-0.130	0.120	0.870
2020/01/31 05:09:33.4	91.790	-0.130	0.110	0.880
2020/01/31 05:09:33.5	91.780	-0.130	0.100	0.880
2020/01/31 05:09:33.6	91.770	-0.130	0.080	0.870
2020/01/31 05:09:33.7	91.770	-0.130	0.060	0.870
2020/01/31 05:09:33.8	91.760	-0.130	0.030	0.860
2020/01/31 05:09:33.9	91.760	-0.130	0.010	0.850
2020/01/31 05:09:34.0	91.770	-0.130	-0.020	0.830
2020/01/31 05:09:34.1	91.770	-0.120	-0.040	0.810
2020/01/31 05:09:34.2	91.780	-0.120	-0.070	0.790
2020/01/31 05:09:34.3	91.790	-0.110	-0.090	0.770
2020/01/31 05:09:34.4	91.800	-0.110	-0.110	0.750
2020/01/31 05:09:34.5	91.810	-0.110	-0.140	0.720
2020/01/31 05:09:34.6	91.830	-0.100	-0.150	0.700
2020/01/31 05:09:34.7	91.840	-0.100	-0.170	0.680
2020/01/31 05:09:34.8	91.860	-0.100	-0.180	0.660
2020/01/31 05:09:34.9	91.880	-0.100	-0.190	0.640
2020/01/31 05:09:35.0	91.890	-0.090	-0.190	0.620
2020/01/31 05:09:35.1	91.910	-0.090	-0.200	0.600
2020/01/31 05:09:35.2	91.940	-0.090	-0.200	0.580
2020/01/31 05:09:35.3	91.950	-0.090	-0.200	0.570
2020/01/31 05:09:35.4	91.970	-0.090	-0.190	0.550
2020/01/31 05:09:35.5	91.980	-0.090	-0.180	0.540
2020/01/31 05:09:35.6	91.990	-0.100	-0.170	0.530
2020/01/31 05:09:35.7	92.010	-0.100	-0.160	0.530
2020/01/31 05:09:35.8	92.010	-0.100	-0.140	0.520
2020/01/31 05:09:35.9	92.020	-0.100	-0.130	0.520
2020/01/31 05:09:36.0	92.030	-0.100	-0.120	0.520
2020/01/31 05:09:36.1	92.030	-0.100	-0.110	0.520
2020/01/31 05:09:36.2	92.030	-0.110	-0.100	0.510
2020/01/31 05:09:36.3	92.030	-0.100	-0.090	0.520
2020/01/31 05:09:36.4	92.030	-0.100	-0.090	0.520
2020/01/31 05:09:36.5	92.020	-0.100	-0.090	0.530
2020/01/31 05:09:36.6	92.020	-0.100	-0.090	0.540
2020/01/31 05:09:36.7	92.010	-0.090	-0.100	0.550
2020/01/31 05:09:36.8	92.000	-0.080	-0.110	0.560
2020/01/31 05:09:36.9	91.990	-0.080	-0.120	0.570
2020/01/31 05:09:37.0	91.980	-0.060	-0.140	0.580
2020/01/31 05:09:37.1	91.970	-0.050	-0.160	0.600
2020/01/31 05:09:37.2	91.960	-0.040	-0.190	0.610
2020/01/31 05:09:37.3	91.950	-0.030	-0.220	0.630
2020/01/31 05:09:37.4	91.930	-0.010	-0.240	0.640
2020/01/31 05:09:37.5	91.920	0.010	-0.270	0.660
2020/01/31 05:09:37.6	91.900	0.030	-0.310	0.680
2020/01/31 05:09:37.7	91.890	0.040	-0.340	0.690
2020/01/31 05:09:37.8	91.870	0.060	-0.370	0.710
2020/01/31 05:09:37.9	91.850	0.080	-0.410	0.730
2020/01/31 05:09:38.0	91.840	0.100	-0.440	0.740
2020/01/31 05:09:38.1	91.820	0.120	-0.470	0.760
2020/01/31 05:09:38.2	91.810	0.140	-0.510	0.770
2020/01/31 05:09:38.3	91.790	0.160	-0.530	0.790
2020/01/31 05:09:38.4	91.780	0.180	-0.560	0.800
2020/01/31 05:09:38.5	91.770	0.200	-0.580	0.810
2020/01/31 05:09:38.6	91.770	0.210	-0.600	0.820
2020/01/31 05:09:38.7	91.760	0.230	-0.620	0.830
2020/01/31 05:09:38.8	91.760	0.240	-0.640	0.840
2020/01/31 05:09:38.9	91.750	0.260	-0.650	0.850
2020/01/31 05:09:39.0	91.750	0.270	-0.660	0.860
2020/01/31 05:09:39.1	91.760	0.280	-0.660	0.870
2020/01/31 05:09:39.2	91.760	0.290	-0.660	0.870
2020/01/31 05:09:39.3	91.760	0.290	-0.650	0.880
2020/01/31 05:09:39.4	91.770	0.290	-0.640	0.880
2020/01/31 05:09:39.5	91.780	0.300	-0.630	0.890
2020/01/31 05:09:39.6	91.790	0.300	-0.610	0.900
2020/01/31 05:09:39.7	91.800	0.290	-0.580	0.900
2020/01/31 05:09:39.8	91.810	0.290	-0.550	0.910
2020/01/31 05:09:39.9	91.820	0.280	-0.520	0.910
2020/01/31 05:09:40.0	91.830	0.270	-0.480	0.910
2020/01/31 05:09:40.1	91.850	0.250	-0.430	0.920
2020/01/31 05:09:40.2	91.860	0.240	-0.380	0.920
2020/01/31 05:09:40.3	91.880	0.220	-0.330	0.920
2020/01/31 05:09:40.4	91.890	0.190	-0.270	0.920
2020/01/31 05:09:40.5	91.900	0.170	-0.220	0.920
2020/01/31 05:09:40.6	91.910	0.140	-0.150	0.920
2020/01/31 05:09:40.7	91.930	0.110	-0.090	0.910
2020/01/31 05:09:40.8	91.940	0.080	-0.030	0.910
2020/01/31 05:09:40.9	91.950	0.050	0.040	0.910
2020/01/31 05:09:41.0	91.960	0.010	0.100	0.900
2020/01/31 05:09:41.1	91.960	-0.020	0.160	0.900
2020/01/31 05:09:41.2	91.960	-0.060	0.220	0.890
2020/01/31 05:09:41.3	91.970	-0.090	0.280	0.890
2020/01/31 05:09:41.4	91.970	-0.130	0.330	0.880
2020/01/31 05:09:41.5	91.980	-0.160	0.380	0.880
2020/01/31 05:09:41.6	91.980	-0.190	0.430	0.880
2020/01/31 05:09:41.7	91.980	-0.230	0.460	0.880
2020/01/31 05:09:41.8	91.980	-0.260	0.490	0.890
2020/01/31 05:09:41.9	91.980	-0.280	0.520	0.890
2020/01/31 05:09:42.0	91.970	-0.310	0.540	0.890
2020/01/31 05:09:42.1	91.970	-0.330	0.540	0.900
2020/01/31 05:09:42.2	91.970	-0.350	0.540	0.900
2020/01/31 05:09:42.3	91.970	-0.360	0.530	0.910
2020/01/31 05:09:42.4	91.970	-0.370	0.520	0.920
2020/01/31 05:09:42.5	91.960	-0.380	0.490	0.920
2020/01/31 05:09:42.6	91.960	-0.380	0.460	0.930
2020/01/31 05:09:42.7	91.960	-0.380	0.420	0.940
2020/01/31 05:09:42.8	91.960	-0.370	0.370	0.940
2020/01/31 05:09:42.9	91.950	-0.360	0.310	0.950
2020/01/31 05:09:43.0	91.950	-0.340	0.250	0.950
2020/01/31 05:09:43.1	91.950	-0.320	0.180	0.960
2020/01/31 05:09:43.2	91.950	-0.290	0.100	0.960
2020/01/31 05:09:43.3	91.950	-0.270	0.020	0.960
2020/01/31 05:09:43.4	91.950	-0.240	-0.060	0.970
2020/01/31 05:09:43.5	91.940	-0.200	-0.140	0.970
2020/01/31 05:09:43.6	91.940	-0.160	-0.230	0.980
2020/01/31 05:09:43.7	91.930	-0.130	-0.310	0.980
2020/01/31 05:09:43.8	91.930	-0.090	-0.400	0.990
2020/01/31 05:09:43.9	91.920	-0.040	-0.480	0.990
2020/01/31 05:09:44.0	91.910	-0.000	-0.560	0.990
2020/01/31 05:09:44.1	91.900	0.040	-0.640	1.000
2020/01/31 05:09:44.2	91.900	0.080	-0.720	1.000
2020/01/31 05:09:44.3	91.890	0.120	-0.790	0.990
2020/01/31 05:09:44.4	91.880	0.160	-0.850	0.990
2020/01/31 05:09:44.5	91.870	0.200	-0.900	0.990
2020/01/31 05:09:44.6	91.860	0.240	-0.960	0.980
2020/01/31 05:09:44.7	91.850	0.270	-1.000	0.970
2020/01/31 05:09:44.8	91.840	0.300	-1.030	0.970
2020/01/31 05:09:44.9	91.830	0.330	-1.060	0.960
2020/01/31 05:09:45.0	91.830	0.360	-1.080	0.950
2020/01/31 05:09:45.1	91.820	0.380	-1.090	0.930
2020/01/31 05:09:45.2	91.810	0.390	-1.080	0.920
2020/01/31 05:09:45.3	91.800	0.410	-1.080	0.900
2020/01/31 05:09:45.4	91.790	0.420	-1.060	0.890
2020/01/31 05:09:45.5	91.790	0.420	-1.030	0.880
2020/01/31 05:09:45.6	91.780	0.430	-0.990	0.860
2020/01/31 05:09:45.7	91.780	0.430	-0.950	0.850
2020/01/31 05:09:45.8	91.770	0.420	-0.890	0.840
2020/01/31 05:09:45.9	91.770	0.410	-0.830	0.820
2020/01/31 05:09:46.0	91.770	0.400	-0.760	0.810
2020/01/31 05:09:46.1	91.770	0.380	-0.690	0.800
2020/01/31 05:09:46.2	91.760	0.370	-0.610	0.780
2020/01/31 05:09:46.3	91.760	0.340	-0.530	0.770
2020/01/31 05:09:46.4	91.760	0.320	-0.440	0.760
2020/01/31 05:09:46.5	91.760	0.290	-0.350	0.750
2020/01/31 05:09:46.6	91.760	0.270	-0.260	0.750
2020/01/31 05:09:46.7	91.760	0.240	-0.170	0.740
2020/01/31 05:09:46.8	91.760	0.210	-0.080	0.730
2020/01/31 05:09:46.9	91.770	0.170	0.000	0.720
2020/01/31 05:09:47.0	91.770	0.140	0.080	0.710
2020/01/31 05:09:47.1	91.780	0.110	0.160	0.700
2020/01/31 05:09:47.2	91.780	0.080	0.220	0.690
2020/01/31 05:09:47.3	91.790	0.050	0.280	0.680
2020/01/31 05:09:47.4	91.790	0.020	0.340	0.680
2020/01/31 05:09:47.5	91.800	-0.010	0.380	0.670
2020/01/31 05:09:47.6	91.810	-0.040	0.410	0.660
2020/01/31 05:09:47.7	91.820	-0.060	0.440	0.660
2020/01/31 05:09:47.8	91.830	-0.080	0.450	0.650
2020/01/31 05:09:47.9	91.830	-0.100	0.460	0.650
2020/01/31 05:09:48.0	91.840	-0.120	0.450	0.640
2020/01/31 05:09:48.1	91.850	-0.130	0.430	0.640
2020/01/31 05:09:48.2	91.870	-0.140	0.410	0.630
2020/01/31 05:09:48.3	91.880	-0.150	0.380	0.620
2020/01/31 05:09:48.4	91.880	-0.160	0.340	0.620
2020/01/31 05:09:48.5	91.890	-0.160	0.290	0.620
2020/01/31 05:09:48.6	91.890	-0.160	0.240	0.620
2020/01/31 05:09:48.7	91.900	-0.160	0.180	0.620
2020/01/31 05:09:48.8	91.900	-0.150	0.120	0.620
2020/01/31 05:09:48.9	91.900	-0.150	0.060	0.630
2020/01/31 05:09:49.0	91.900	-0.140	-0.000	0.630
2020/01/31 05:09:49.1	91.900	-0.140	-0.060	0.630
2020/01/31 05:09:49.2	91.900	-0.130	-0.130	0.630
2020/01/31 05:09:49.3	91.890	-0.120	-0.190	0.630
2020/01/31 05:09:49.4	91.890	-0.110	-0.250	0.640
2020/01/31 05:09:49.5	91.890	-0.110	-0.300	0.640
2020/01/31 05:09:49.6	91.880	-0.100	-0.340	0.650
2020/01/31 05:09:49.7	91.880	-0.090	-0.390	0.650
2020/01/31 05:09:49.8	91.880	-0.090	-0.420	0.660
2020/01/31 05:09:49.9	91.870	-0.080	-0.450	0.670
2020/01/31 05:09:50.0	91.870	-0.080	-0.480	0.670
2020/01/31 05:09:50.1	91.860	-0.080	-0.490	0.680
2020/01/31 05:09:50.2	91.860	-0.080	-0.500	0.690
2020/01/31 05:09:50.3	91.860	-0.080	-0.510	0.710
2020/01/31 05:09:50.4	91.860	-0.080	-0.510	0.720
2020/01/31 05:09:50.5	91.850	-0.090	-0.500	0.740
2020/01/31 05:09:50.6	91.850	-0.090	-0.490	0.750
2020/01/31 05:09:50.7	91.850	-0.100	-0.470	0.770
2020/01/31 05:09:50.8	91.850	-0.100	-0.450	0.800
2020/01/31 05:09:50.9	91.850	-0.110	-0.430	0.820
2020/01/31 05:09:51.0	91.850	-0.120	-0.400	0.850
2020/01/31 05:09:51.1	91.850	-0.130	-0.370	0.870
2020/01/31 05:09:51.2	91.850	-0.140	-0.350	0.900
2020/01/31 05:09:51.3	91.850	-0.150	-0.310	0.920
2020/01/31 05:09:51.4	91.850	-0.160	-0.280	0.950
2020/01/31 05:09:51.5	91.850	-0.180	-0.250	0.970
2020/01/31 05:09:51.6	91.850	-0.190	-0.220	1.000
2020/01/31 05:09:51.7	91.850	-0.200	-0.180	1.020
2020/01/31 05:09:51.8	91.860	-0.200	-0.150	1.030
2020/01/31 05:09:51.9	91.860	-0.210	-0.120	1.050
2020/01/31 05:09:52.0	91.860	-0.220	-0.100	1.060
2020/01/31 05:09:52.1	91.870	-0.230	-0.070	1.060
2020/01/31 05:09:52.2	91.880	-0.230	-0.040	1.060
2020/01/31 05:09:52.3	91.890	-0.230	-0.020	1.060
2020/01/31 05:09:52.4	91.900	-0.240	-0.010	1.050
2020/01/31 05:09:52.5	91.900	-0.240	0.010	1.040
2020/01/31 05:09:52.6	91.910	-0.240	0.020	1.030
2020/01/31 05:09:52.7	91.920	-0.240	0.040	1.010
2020/01/31 05:09:52.8	91.930	-0.230	0.050	0.980
2020/01/31 05:09:52.9	91.930	-0.230	0.050	0.960
2020/01/31 05:09:53.0	91.940	-0.220	0.060	0.930
2020/01/31 05:09:53.1	91.950	-0.220	0.060	0.910
2020/01/31 05:09:53.2	91.950	-0.210	0.060	0.880
2020/01/31 05:09:53.3	91.960	-0.210	0.060	0.850
2020/01/31 05:09:53.4	91.960	-0.200	0.060	0.830
2020/01/31 05:09:53.5	91.960	-0.190	0.050	0.810
2020/01/31 05:09:53.6	91.960	-0.180	0.050	0.790
2020/01/31 05:09:53.7	91.960	-0.170	0.040	0.770
2020/01/31 05:09:53.8	91.950	-0.160	0.030	0.760
2020/01/31 05:09:53.9	91.950	-0.150	0.010	0.750
2020/01/31 05:09:54.0	91.940	-0.140	-0.000	0.740
2020/01/31 05:09:54.1	91.940	-0.130	-0.020	0.740
2020/01/31 05:09:54.2	91.940	-0.120	-0.040	0.730
2020/01/31 05:09:54.3	91.930	-0.110	-0.060	0.730
2020/01/31 05:09:54.4	91.920	-0.090	-0.090	0.730
2020/01/31 05:09:54.5	91.910	-0.080	-0.120	0.730
2020/01/31 05:09:54.6	91.900	-0.070	-0.140	0.730
2020/01/31 05:09:54.7	91.890	-0.050	-0.180	0.730
2020/01/31 05:09:54.8	91.890	-0.040	-0.210	0.730
2020/01/31 05:09:54.9	91.880	-0.030	-0.250	0.730
2020/01/31 05:09:55.0	91.870	-0.010	-0.280	0.730
2020/01/31 05:09:55.1	91.870	0.010	-0.320	0.720
2020/01/31 05:09:55.2	91.870	0.020	-0.370	0.710
2020/01/31 05:09:55.3	91.860	0.040	-0.400	0.700
2020/01/31 05:09:55.4	91.860	0.060	-0.440	0.690
2020/01/31 05:09:55.5	91.860	0.070	-0.480	0.680
2020/01/31 05:09:55.6	91.850	0.090	-0.510	0.670
2020/01/31 05:09:55.7	91.850	0.110	-0.550	0.660
2020/01/31 05:09:55.8	91.850	0.130	-0.580	0.640
2020/01/31 05:09:55.9	91.850	0.140	-0.600	0.630
2020/01/31 05:09:56.0	91.840	0.160	-0.630	0.620
2020/01/31 05:09:56.1	91.840	0.180	-0.640	0.600
2020/01/31 05:09:56.2	91.830	0.190	-0.650	0.590
2020/01/31 05:09:56.3	91.830	0.210	-0.660	0.580
2020/01/31 05:09:56.4	91.830	0.220	-0.670	0.570
2020/01/31 05:09:56.5	91.830	0.230	-0.660	0.560
2020/01/31 05:09:56.6	91.830	0.240	-0.660	0.550
2020/01/31 05:09:56.7	91.820	0.250	-0.650	0.550
2020/01/31 05:09:56.8	91.820	0.260	-0.630	0.550
2020/01/31 05:09:56.9	91.820	0.260	-0.610	0.540
2020/01/31 05:09:57.0	91.820	0.270	-0.580	0.540
2020/01/31 05:09:57.1	91.820	0.270	-0.560	0.550
2020/01/31 05:09:57.2	91.810	0.270	-0.530	0.540
2020/01/31 05:09:57.3	91.810	0.270	-0.500	0.550
2020/01/31 05:09:57.4	91.820	0.270	-0.460	0.550
2020/01/31 05:09:57.5	91.820	0.270	-0.430	0.560
2020/01/31 05:09:57.6	91.830	0.260	-0.390	0.560
2020/01/31 05:09:57.7	91.830	0.260	-0.360	0.570
2020/01/31 05:09:57.8	91.840	0.250	-0.320	0.570
2020/01/31 05:09:57.9	91.850	0.250	-0.290	0.580
2020/01/31 05:09:58.0	91.860	0.240	-0.260	0.580
2020/01/31 05:09:58.1	91.870	0.230	-0.230	0.590
2020/01/31 05:09:58.2	91.880	0.220	-0.200	0.590
2020/01/31 05:09:58.3	91.890	0.220	-0.180	0.600
2020/01/31 05:09:58.4	91.900	0.210	-0.160	0.610
2020/01/31 05:09:58.5	91.910	0.200	-0.140	0.610
2020/01/31 05:09:58.6	91.910	0.190	-0.130	0.620
2020/01/31 05:09:58.7	91.920	0.190	-0.120	0.620
2020/01/31 05:09:58.8	91.930	0.180	-0.120	0.630
2020/01/31 05:09:58.9	91.940	0.170	-0.110	0.640
2020/01/31 05:09:59.0	91.940	0.170	-0.110	0.640
2020/01/31 05:09:59.1	91.950	0.160	-0.120	0.650
2020/01/31 05:09:59.2	91.950	0.160	-0.120	0.650
2020/01/31 05:09:59.3	91.950	0.160	-0.130	0.660
2020/01/31 05:09:59.4	91.960	0.150	-0.130	0.660
2020/01/31 05:09:59.5	91.960	0.150	-0.140	0.670
2020/01/31 05:09:59.6	91.960	0.140	-0.150	0.680
2020/01/31 05:09:59.7	91.960	0.140	-0.160	0.690
2020/01/31 05:09:59.8	91.970	0.140	-0.160	0.700
2020/01/31 05:09:59.9	91.970	0.130	-0.170	0.710
2020/01/31 05:10:00.0	91.970	0.130	-0.170	0.730
2020/01/31 05:10:00.1	91.960	0.120	-0.170	0.750
2020/01/31 05:10:00.2	91.960	0.110	-0.170	0.770
2020/01/31 05:10:00.3	91.950	0.100	-0.160	0.790
2020/01/31 05:10:00.4	91.950	0.090	-0.150	0.820
2020/01/31 05:10:00.5	91.940	0.080	-0.140	0.840
2020/01/31 05:10:00.6	91.940	0.070	-0.120	0.880
2020/01/31 05:10:00.7	91.930	0.050	-0.100	0.910
2020/01/31 05:10:00.8	91.920	0.030	-0.080	0.950
2020/01/31 05:10:00.9	91.910	0.010	-0.050	0.980
2020/01/31 05:10:01.0	91.900	-0.010	-0.030	1.020
2020/01/31 05:10:01.1	91.890	-0.030	0.000	1.060
2020/01/31 05:10:01.2	91.890	-0.060	0.030	1.090
2020/01/31 05:10:01.3	91.880	-0.080	0.060	1.130
2020/01/31 05:10:01.4	91.870	-0.110	0.080	1.160
2020/01/31 05:10:01.5	91.860	-0.140	0.110	1.190
2020/01/31 05:10:01.6	91.850	-0.170	0.130	1.220
2020/01/31 05:10:01.7	91.850	-0.200	0.150	1.240
2020/01/31 05:10:01.8	91.840	-0.220	0.170	1.260
2020/01/31 05:10:01.9	91.830	-0.250	0.180	1.280
2020/01/31 05:10:02.0	91.830	-0.280	0.190	1.280
2020/01/31 05:10:02.1	91.820	-0.310	0.190	1.290
2020/01/31 05:10:02.2	91.810	-0.330	0.190	1.280
2020/01/31 05:10:02.3	91.810	-0.350	0.190	1.280
2020/01/31 05:10:02.4	91.810	-0.370	0.180	1.270
2020/01/31 05:10:02.5	91.810	-0.390	0.160	1.250
2020/01/31 05:10:02.6	91.810	-0.410	0.140	1.230
2020/01/31 05:10:02.7	91.810	-0.420	0.110	1.210
2020/01/31 05:10:02.8	91.810	-0.430	0.080	1.190
2020/01/31 05:10:02.9	91.810	-0.430	0.050	1.160
2020/01/31 05:10:03.0	91.810	-0.430	0.010	1.140
2020/01/31 05:10:03.1	91.810	-0.430	-0.030	1.110
2020/01/31 05:10:03.2	91.820	-0.430	-0.080	1.090
2020/01/31 05:10:03.3	91.820	-0.420	-0.120	1.060
2020/01/31 05:10:03.4	91.820	-0.400	-0.170	1.040
2020/01/31 05:10:03.5	91.820	-0.390	-0.220	1.030
2020/01/31 05:10:03.6	91.820	-0.370	-0.260	1.010
2020/01/31 05:10:03.7	91.820	-0.350	-0.310	1.000
2020/01/31 05:10:03.8	91.820	-0.320	-0.360	0.980
2020/01/31 05:10:03.9	91.820	-0.290	-0.410	0.970
2020/01/31 05:10:04.0	91.820	-0.260	-0.450	0.960
2020/01/31 05:10:04.1	91.820	-0.230	-0.490	0.960
2020/01/31 05:10:04.2	91.820	-0.200	-0.540	0.950
2020/01/31 05:10:04.3	91.820	-0.160	-0.580	0.940
2020/01/31 05:10:04.4	91.820	-0.130	-0.610	0.940
2020/01/31 05:10:04.5	91.810	-0.090	-0.650	0.940
2020/01/31 05:10:04.6	91.810	-0.060	-0.680	0.940
2020/01/31 05:10:04.7	91.810	-0.020	-0.710	0.930
2020/01/31 05:10:04.8	91.810	0.010	-0.730	0.930
2020/01/31 05:10:04.9	91.800	0.050	-0.750	0.930
2020/01/31 05:10:05.0	91.800	0.080	-0.770	0.930
2020/01/31 05:10:05.1	91.790	0.110	-0.780	0.930
2020/01/31 05:10:05.2	91.780	0.140	-0.790	0.930
2020/01/31 05:10:05.3	91.780	0.170	-0.790	0.930
2020/01/31 05:10:05.4	91.770	0.190	-0.790	0.930
2020/01/31 05:10:05.5	91.760	0.210	-0.780	0.930
2020/01/31 05:10:05.6	91.750	0.230	-0.770	0.930
2020/01/31 05:10:05.7	91.740	0.240	-0.750	0.920
2020/01/31 05:10:05.8	91.740	0.250	-0.730	0.920
2020/01/31 05:10:05.9	91.720	0.260	-0.710	0.920
2020/01/31 05:10:06.0	91.710	0.260	-0.670	0.910
2020/01/31 05:10:06.1	91.700	0.270	-0.640	0.910
2020/01/31 05:10:06.2	91.690	0.260	-0.600	0.900
2020/01/31 05:10:06.3	91.670	0.260	-0.560	0.900
2020/01/31 05:10:06.4	91.660	0.250	-0.510	0.890
2020/01/31 05:10:06.5	91.650	0.240	-0.460	0.890
2020/01/31 05:10:06.6	91.640	0.220	-0.400	0.880
2020/01/31 05:10:06.7	91.620	0.210	-0.350	0.880
2020/01/31 05:10:06.8	91.610	0.190	-0.290	0.870
2020/01/31 05:10:06.9	91.600	0.170	-0.230	0.870
2020/01/31 05:10:07.0	91.590	0.150	-0.170	0.870
2020/01/31 05:10:07.1	91.580	0.120	-0.110	0.860
2020/01/31 05:10:07.2	91.570	0.100	-0.040	0.860
2020/01/31 05:10:07.3	91.560	0.070	0.020	0.860
2020/01/31 05:10:07.4	91.550	0.050	0.070	0.850
2020/01/31 05:10:07.5	91.550	0.020	0.130	0.850
2020/01/31 05:10:07.6	91.540	-0.000	0.180	0.850
2020/01/31 05:10:07.7	91.530	-0.030	0.230	0.840
2020/01/31 05:10:07.8	91.530	-0.050	0.280	0.840
2020/01/31 05:10:07.9	91.520	-0.080	0.320	0.830
2020/01/31 05:10:08.0	91.510	-0.100	0.350	0.820
2020/01/31 05:10:08.1	91.510	-0.120	0.380	0.810
2020/01/31 05:10:08.2	91.500	-0.130	0.400	0.800
2020/01/31 05:10:08.3	91.500	-0.150	0.420	0.780
2020/01/31 05:10:08.4	91.500	-0.160	0.420	0.770
2020/01/31 05:10:08.5	91.490	-0.170	0.430	0.750
2020/01/31 05:10:08.6	91.490	-0.180	0.420	0.740
2020/01/31 05:10:08.7	91.490	-0.180	0.410	0.720
2020/01/31 05:10:08.8	91.480	-0.180	0.390	0.700
2020/01/31 05:10:08.9	91.480	-0.170	0.360	0.680
2020/01/31 05:10:09.0	91.480	-0.170	0.330	0.660
2020/01/31 05:10:09.1	91.470	-0.150	0.290	0.640
2020/01/31 05:10:09.2	91.470	-0.140	0.240	0.620
2020/01/31 05:10:09.3	91.460	-0.120	0.190	0.610
2020/01/31 05:10:09.4	91.460	-0.100	0.140	0.590
2020/01/31 05:10:09.5	91.450	-0.080	0.080	0.580
2020/01/31 05:10:09.6	91.450	-0.060	0.020	0.570
2020/01/31 05:10:09.7	91.440	-0.030	-0.040	0.570
2020/01/31 05:10:09.8	91.440	0.000	-0.100	0.560
2020/01/31 05:10:09.9	91.440	0.030	-0.160	0.560
2020/01/31 05:10:10.0	91.440	0.060	-0.220	0.560
2020/01/31 05:10:10.1	91.440	0.090	-0.280	0.560
2020/01/31 05:10:10.2	91.430	0.120	-0.340	0.560
2020/01/31 05:10:10.3	91.430	0.160	-0.400	0.570
2020/01/31 05:10:10.4	91.440	0.190	-0.450	0.580
2020/01/31 05:10:10.5	91.440	0.220	-0.490	0.590
2020/01/31 05:10:10.6	91.450	0.240	-0.540	0.600
2020/01/31 05:10:10.7	91.460	0.270	-0.570	0.610
2020/01/31 05:10:10.8	91.470	0.290	-0.600	0.620
2020/01/31 05:10:10.9	91.480	0.310	-0.630	0.630
2020/01/31 05:10:11.0	91.500	0.330	-0.640	0.640
2020/01/31 05:10:11.1	91.510	0.340	-0.660	0.660
2020/01/31 05:10:11.2	91.530	0.350	-0.660	0.670
2020/01/31 05:10:11.3	91.550	0.360	-0.660	0.680
2020/01/31 05:10:11.4	91.570	0.360	-0.650	0.690
2020/01/31 05:10:11.5	91.590	0.360	-0.640	0.700
2020/01/31 05:10:11.6	91.610	0.360	-0.620	0.720
2020/01/31 05:10:11.7	91.630	0.350	-0.600	0.730
2020/01/31 05:10:11.8	91.650	0.330	-0.570	0.740
2020/01/31 05:10:11.9	91.670	0.320	-0.540	0.750
2020/01/31 05:10:12.0	91.690	0.300	-0.500	0.760
2020/01/31 05:10:12.1	91.710	0.270	-0.460	0.780
2020/01/31 05:10:12.2	91.720	0.250	-0.420	0.790
2020/01/31 05:10:12.3	91.730	0.220	-0.370	0.800
2020/01/31 05:10:12.4	91.750	0.180	-0.320	0.820
2020/01/31 05:10:12.5	91.760	0.150	-0.280	0.830
2020/01/31 05:10:12.6	91.770	0.110	-0.230	0.850
2020/01/31 05:10:12.7	91.780	0.080	-0.180	0.870
2020/01/31 05:10:12.8	91.790	0.040	-0.140	0.890
2020/01/31 05:10:12.9	91.800	0.000	-0.090	0.910
2020/01/31 05:10:13.0	91.800	-0.040	-0.040	0.940
2020/01/31 05:10:13.1	91.800	-0.080	-0.000	0.960
2020/01/31 05:10:13.2	91.800	-0.110	0.040	0.990
2020/01/31 05:10:13.3	91.800	-0.150	0.080	1.010
2020/01/31 05:10:13.4	91.790	-0.180	0.110	1.050
2020/01/31 05:10:13.5	91.780	-0.220	0.150	1.080
2020/01/31 05:10:13.6	91.770	-0.250	0.180	1.110
2020/01/31 05:10:13.7	91.760	-0.280	0.200	1.140
2020/01/31 05:10:13.8	91.740	-0.300	0.220	1.180
2020/01/31 05:10:13.9	91.730	-0.330	0.240	1.210
2020/01/31 05:10:14.0	91.710	-0.350	0.250	1.240
2020/01/31 05:10:14.1	91.690	-0.360	0.260	1.270
2020/01/31 05:10:14.2	91.660	-0.380	0.260	1.310
2020/01/31 05:10:14.3	91.640	-0.390	0.260	1.330
2020/01/31 05:10:14.4	91.620	-0.390	0.250	1.360
2020/01/31 05:10:14.5	91.600	-0.400	0.230	1.380
2020/01/31 05:10:14.6	91.580	-0.400	0.210	1.410
2020/01/31 05:10:14.7	91.550	-0.390	0.180	1.420
2020/01/31 05:10:14.8	91.530	-0.380	0.150	1.440
2020/01/31 05:10:14.9	91.510	-0.370	0.110	1.450
2020/01/31 05:10:15.0	91.490	-0.360	0.060	1.460
2020/01/31 05:10:15.1	91.480	-0.340	0.010	1.460
2020/01/31 05:10:15.2	91.470	-0.320	-0.050	1.460
2020/01/31 05:10:15.3	91.450	-0.300	-0.110	1.450
2020/01/31 05:10:15.4	91.440	-0.270	-0.170	1.450
2020/01/31 05:10:15.5	91.430	-0.240	-0.240	1.440
2020/01/31 05:10:15.6	91.420	-0.210	-0.310	1.420
2020/01/31 05:10:15.7	91.410	-0.180	-0.390	1.410
2020/01/31 05:10:15.8	91.400	-0.150	-0.460	1.390
2020/01/31 05:10:15.9	91.390	-0.110	-0.530	1.370
2020/01/31 05:10:16.0	91.390	-0.080	-0.610	1.340
2020/01/31 05:10:16.1	91.380	-0.040	-0.680	1.320
2020/01/31 05:10:16.2	91.370	-0.010	-0.750	1.290
2020/01/31 05:10:16.3	91.370	0.020	-0.810	1.260
2020/01/31 05:10:16.4	91.360	0.060	-0.870	1.230
2020/01/31 05:10:16.5	91.360	0.090	-0.920	1.200
2020/01/31 05:10:16.6	91.350	0.120	-0.970	1.170
2020/01/31 05:10:16.7	91.350	0.150	-1.020	1.140
2020/01/31 05:10:16.8	91.340	0.180	-1.050	1.120
2020/01/31 05:10:16.9	91.340	0.200	-1.080	1.090
2020/01/31 05:10:17.0	91.340	0.230	-1.100	1.060
2020/01/31 05:10:17.1	91.330	0.250	-1.120	1.040
2020/01/31 05:10:17.2	91.320	0.270	-1.120	1.010
2020/01/31 05:10:17.3	91.320	0.280	-1.120	0.980
2020/01/31 05:10:17.4	91.310	0.300	-1.110	0.960
2020/01/31 05:10:17.5	91.310	0.310	-1.100	0.940
2020/01/31 05:10:17.6	91.310	0.320	-1.080	0.920
2020/01/31 05:10:17.7	91.310	0.330	-1.050	0.910
2020/01/31 05:10:17.8	91.300	0.330	-1.010	0.890
2020/01/31 05:10:17.9	91.310	0.330	-0.970	0.870
2020/01/31 05:10:18.0	91.310	0.330	-0.920	0.860
2020/01/31 05:10:18.1	91.310	0.330	-0.870	0.840
2020/01/31 05:10:18.2	91.330	0.330	-0.810	0.820
2020/01/31 05:10:18.3	91.340	0.320	-0.750	0.810
2020/01/31 05:10:18.4	91.350	0.310	-0.680	0.790
2020/01/31 05:10:18.5	91.360	0.300	-0.620	0.780
2020/01/31 05:10:18.6	91.380	0.290	-0.550	0.760
2020/01/31 05:10:18.7	91.400	0.270	-0.470	0.750
2020/01/31 05:10:18.8	91.420	0.250	-0.400	0.740
2020/01/31 05:10:18.9	91.440	0.230	-0.330	0.730
2020/01/31 05:10:19.0	91.460	0.210	-0.250	0.710
2020/01/31 05:10:19.1	91.480	0.190	-0.170	0.700
2020/01/31 05:10:19.2	91.500	0.160	-0.090	0.690
2020/01/31 05:10:19.3	91.520	0.130	-0.010	0.680
2020/01/31 05:10:19.4	91.550	0.110	0.070	0.680
2020/01/31 05:10:19.5	91.570	0.080	0.150	0.670
2020/01/31 05:10:19.6	91.590	0.050	0.220	0.670
2020/01/31 05:10:19.7	91.610	0.010	0.300	0.660
2020/01/31 05:10:19.8	91.630	-0.020	0.380	0.660
2020/01/31 05:10:19.9	91.650	-0.060	0.450	0.660
2020/01/31 05:10:20.0	91.660	-0.090	0.520	0.660
2020/01/31 05:10:20.1	91.680	-0.130	0.590	0.660
2020/01/31 05:10:20.2	91.700	-0.160	0.660	0.660
2020/01/31 05:10:20.3	91.710	-0.200	0.720	0.660
2020/01/31 05:10:20.4	91.720	-0.240	0.780	0.660
2020/01/31 05:10:20.5	91.720	-0.270	0.830	0.660
2020/01/31 05:10:20.6	91.730	-0.310	0.880	0.660
2020/01/31 05:10:20.7	91.730	-0.350	0.920	0.660
2020/01/31 05:10:20.8	91.730	-0.380	0.960	0.660
2020/01/31 05:10:20.9	91.730	-0.410	0.990	0.660
2020/01/31 05:10:21.0	91.730	-0.440	1.010	0.660
2020/01/31 05:10:21.1	91.720	-0.470	1.020	0.660
2020/01/31 05:10:21.2	91.720	-0.490	1.030	0.650
2020/01/31 05:10:21.3	91.710	-0.510	1.020	0.650
2020/01/31 05:10:21.4	91.700	-0.530	1.010	0.650
2020/01/31 05:10:21.5	91.690	-0.540	0.980	0.650
2020/01/31 05:10:21.6	91.670	-0.550	0.940	0.650
2020/01/31 05:10:21.7	91.660	-0.560	0.890	0.650
2020/01/31 05:10:21.8	91.650	-0.560	0.830	0.650
2020/01/31 05:10:21.9	91.630	-0.550	0.770	0.650
2020/01/31 05:10:22.0	91.620	-0.540	0.690	0.650
2020/01/31 05:10:22.1	91.610	-0.520	0.600	0.650
2020/01/31 05:10:22.2	91.590	-0.500	0.510	0.650
2020/01/31 05:10:22.3	91.570	-0.470	0.400	0.650
2020/01/31 05:10:22.4	91.560	-0.440	0.300	0.650
2020/01/31 05:10:22.5	91.550	-0.410	0.180	0.650
2020/01/31 05:10:22.6	91.540	-0.360	0.060	0.650
2020/01/31 05:10:22.7	91.540	-0.320	-0.060	0.650
2020/01/31 05:10:22.8	91.530	-0.270	-0.190	0.650
2020/01/31 05:10:22.9	91.520	-0.220	-0.310	0.650
2020/01/31 05:10:23.0	91.520	-0.160	-0.440	0.650
2020/01/31 05:10:23.1	91.520	-0.110	-0.560	0.650
2020/01/31 05:10:23.2	91.510	-0.050	-0.690	0.650
2020/01/31 05:10:23.3	91.510	0.010	-0.800	0.650
2020/01/31 05:10:23.4	91.510	0.070	-0.910	0.660
2020/01/31 05:10:23.5	91.500	0.130	-1.020	0.670
2020/01/31 05:10:23.6	91.500	0.190	-1.110	0.670
2020/01/31 05:10:23.7	91.500	0.240	-1.200	0.680
2020/01/31 05:10:23.8	91.500	0.300	-1.280	0.690
2020/01/31 05:10:23.9	91.500	0.350	-1.340	0.690
2020/01/31 05:10:24.0	91.510	0.400	-1.400	0.700
2020/01/31 05:10:24.1	91.510	0.440	-1.450	0.710
2020/01/31 05:10:24.2	91.510	0.490	-1.480	0.710
2020/01/31 05:10:24.3	91.520	0.520	-1.510	0.720
2020/01/31 05:10:24.4	91.530	0.550	-1.520	0.730
2020/01/31 05:10:24.5	91.540	0.580	-1.520	0.730
2020/01/31 05:10:24.6	91.550	0.600	-1.510	0.740
2020/01/31 05:10:24.7	91.560	0.620	-1.490	0.740
2020/01/31 05:10:24.8	91.570	0.630	-1.460	0.740
2020/01/31 05:10:24.9	91.580	0.640	-1.430	0.750
2020/01/31 05:10:25.0	91.600	0.640	-1.380	0.750
2020/01/31 05:10:25.1	91.610	0.640	-1.320	0.760
2020/01/31 05:10:25.2	91.620	0.630	-1.250	0.760
2020/01/31 05:10:25.3	91.640	0.610	-1.180	0.770
2020/01/31 05:10:25.4	91.660	0.600	-1.100	0.780
2020/01/31 05:10:25.5	91.670	0.570	-1.010	0.780
2020/01/31 05:10:25.6	91.690	0.550	-0.920	0.790
2020/01/31 05:10:25.7	91.710	0.520	-0.830	0.810
2020/01/31 05:10:25.8	91.720	0.490	-0.730	0.820
2020/01/31 05:10:25.9	91.740	0.450	-0.630	0.840
2020/01/31 05:10:26.0	91.750	0.410	-0.520	0.860
2020/01/31 05:10:26.1	91.770	0.370	-0.420	0.880
2020/01/31 05:10:26.2	91.780	0.330	-0.310	0.900
2020/01/31 05:10:26.3	91.790	0.290	-0.200	0.930
2020/01/31 05:10:26.4	91.800	0.250	-0.100	0.970
2020/01/31 05:10:26.5	91.810	0.200	0.000	1.000
2020/01/31 05:10:26.6	91.810	0.160	0.100	1.040
2020/01/31 05:10:26.7	91.810	0.110	0.200	1.080
2020/01/31 05:10:26.8	91.810	0.070	0.300	1.120
2020/01/31 05:10:26.9	91.800	0.030	0.380	1.160
2020/01/31 05:10:27.0	91.790	-0.020	0.470	1.200
2020/01/31 05:10:27.1	91.780	-0.060	0.540	1.240
2020/01/31 05:10:27.2	91.770	-0.100	0.620	1.280
2020/01/31 05:10:27.3	91.760	-0.140	0.680	1.320
2020/01/31 05:10:27.4	91.740	-0.170	0.730	1.360
2020/01/31 05:10:27.5	91.730	-0.210	0.780	1.390
2020/01/31 05:10:27.6	91.700	-0.240	0.820	1.420
2020/01/31 05:10:27.7	91.680	-0.270	0.840	1.450
2020/01/31 05:10:27.8	91.660	-0.300	0.860	1.470
2020/01/31 05:10:27.9	91.630	-0.320	0.860	1.490
2020/01/31 05:10:28.0	91.610	-0.340	0.860	1.510
2020/01/31 05:10:28.1	91.580	-0.360	0.840	1.520
2020/01/31 05:10:28.2	91.560	-0.370	0.810	1.530
2020/01/31 05:10:28.3	91.530	-0.380	0.780	1.530
2020/01/31 05:10:28.4	91.510	-0.390	0.730	1.530
2020/01/31 05:10:28.5	91.480	-0.390	0.670	1.520
2020/01/31 05:10:28.6	91.460	-0.390	0.600	1.510
2020/01/31 05:10:28.7	91.430	-0.390	0.530	1.500
2020/01/31 05:10:28.8	91.410	-0.380	0.440	1.480
2020/01/31 05:10:28.9	91.390	-0.370	0.360	1.460
2020/01/31 05:10:29.0	91.370	-0.350	0.260	1.440
2020/01/31 05:10:29.1	91.360	-0.340	0.160	1.410
2020/01/31 05:10:29.2	91.340	-0.320	0.060	1.380
2020/01/31 05:10:29.3	91.330	-0.290	-0.040	1.350
2020/01/31 05:10:29.4	91.320	-0.270	-0.150	1.310
2020/01/31 05:10:29.5	91.310	-0.240	-0.250	1.270
2020/01/31 05:10:29.6	91.310	-0.210	-0.350	1.230
2020/01/31 05:10:29.7	91.310	-0.180	-0.450	1.180
2020/01/31 05:10:29.8	91.320	-0.140	-0.550	1.140
2020/01/31 05:10:29.9	91.320	-0.110	-0.640	1.090
2020/01/31 05:10:30.0	91.330	-0.070	-0.730	1.040
2020/01/31 05:10:30.1	91.340	-0.040	-0.810	0.990
2020/01/31 05:10:30.2	91.350	0.000	-0.890	0.930
2020/01/31 05:10:30.3	91.360	0.040	-0.960	0.880
2020/01/31 05:10:30.4	91.380	0.070	-1.020	0.830
2020/01/31 05:10:30.5	91.390	0.110	-1.070	0.780
2020/01/31 05:10:30.6	91.400	0.140	-1.100	0.740
2020/01/31 05:10:30.7	91.420	0.170	-1.130	0.690
2020/01/31 05:10:30.8	91.440	0.200	-1.150	0.650
2020/01/31 05:10:30.9	91.450	0.220	-1.160	0.610
2020/01/31 05:10:31.0	91.470	0.250	-1.160	0.570
2020/01/31 05:10:31.1	91.490	0.270	-1.150	0.540
2020/01/31 05:10:31.2	91.500	0.280	-1.130	0.500
2020/01/31 05:10:31.3	91.520	0.300	-1.100	0.470
2020/01/31 05:10:31.4	91.530	0.300	-1.070	0.450
2020/01/31 05:10:31.5	91.550	0.310	-1.020	0.430
2020/01/31 05:10:31.6	91.560	0.310	-0.970	0.410
2020/01/31 05:10:31.7	91.570	0.310	-0.910	0.400
2020/01/31 05:10:31.8	91.580	0.300	-0.850	0.400
2020/01/31 05:10:31.9	91.590	0.290	-0.780	0.390
2020/01/31 05:10:32.0	91.600	0.280	-0.710	0.400
2020/01/31 05:10:32.1	91.600	0.260	-0.630	0.400
2020/01/31 05:10:32.2	91.610	0.240	-0.540	0.420
2020/01/31 05:10:32.3	91.610	0.220	-0.460	0.430
2020/01/31 05:10:32.4	91.610	0.190	-0.370	0.450
2020/01/31 05:10:32.5	91.600	0.160	-0.290	0.480
2020/01/31 05:10:32.6	91.600	0.130	-0.210	0.510
2020/01/31 05:10:32.7	91.590	0.100	-0.120	0.540
2020/01/31 05:10:32.8	91.580	0.060	-0.040	0.570
2020/01/31 05:10:32.9	91.570	0.030	0.040	0.610
2020/01/31 05:10:33.0	91.560	-0.010	0.110	0.640
2020/01/31 05:10:33.1	91.540	-0.050	0.180	0.680
2020/01/31 05:10:33.2	91.540	-0.090	0.240	0.720
2020/01/31 05:10:33.3	91.520	-0.130	0.310	0.760
2020/01/31 05:10:33.4	91.510	-0.170	0.360	0.800
2020/01/31 05:10:33.5	91.490	-0.200	0.410	0.840
2020/01/31 05:10:33.6	91.470	-0.240	0.460	0.880
2020/01/31 05:10:33.7	91.450	-0.280	0.490	0.920
2020/01/31 05:10:33.8	91.440	-0.310	0.520	0.950
2020/01/31 05:10:33.9	91.420	-0.340	0.540	0.980
2020/01/31 05:10:34.0	91.410	-0.370	0.550	1.010
2020/01/31 05:10:34.1	91.400	-0.400	0.560	1.040
2020/01/31 05:10:34.2	91.390	-0.420	0.560	1.070
2020/01/31 05:10:34.3	91.380	-0.440	0.550	1.090
2020/01/31 05:10:34.4	91.370	-0.450	0.530	1.110
2020/01/31 05:10:34.5	91.360	-0.460	0.500	1.130
2020/01/31 05:10:34.6	91.350	-0.470	0.460	1.140
2020/01/31 05:10:34.7	91.350	-0.470	0.420	1.150
2020/01/31 05:10:34.8	91.350	-0.470	0.380	1.150
2020/01/31 05:10:34.9	91.350	-0.470	0.330	1.160
2020/01/31 05:10:35.0	91.340	-0.460	0.270	1.160
2020/01/31 05:10:35.1	91.340	-0.450	0.210	1.160
2020/01/31 05:10:35.2	91.350	-0.440	0.150	1.150
2020/01/31 05:10:35.3	91.350	-0.420	0.090	1.140
2020/01/31 05:10:35.4	91.360	-0.410	0.030	1.140
2020/01/31 05:10:35.5	91.360	-0.380	-0.030	1.130
2020/01/31 05:10:35.6	91.360	-0.360	-0.100	1.120
2020/01/31 05:10:35.7	91.370	-0.330	-0.160	1.110
2020/01/31 05:10:35.8	91.370	-0.310	-0.210	1.090
2020/01/31 05:10:35.9	91.380	-0.280	-0.270	1.080
2020/01/31 05:10:36.0	91.380	-0.250	-0.320	1.060
2020/01/31 05:10:36.1	91.390	-0.220	-0.370	1.050
2020/01/31 05:10:36.2	91.400	-0.190	-0.410	1.030
2020/01/31 05:10:36.3	91.410	-0.160	-0.450	1.020
2020/01/31 05:10:36.4	91.420	-0.130	-0.490	1.000
2020/01/31 05:10:36.5	91.430	-0.100	-0.520	0.990
2020/01/31 05:10:36.6	91.430	-0.070	-0.540	0.980
2020/01/31 05:10:36.7	91.440	-0.040	-0.560	0.960
2020/01/31 05:10:36.8	91.450	-0.010	-0.580	0.950
2020/01/31 05:10:36.9	91.460	0.020	-0.590	0.940
2020/01/31 05:10:37.0	91.470	0.050	-0.600	0.930
2020/01/31 05:10:37.1	91.480	0.070	-0.600	0.920
2020/01/31 05:10:37.2	91.490	0.100	-0.600	0.910
2020/01/31 05:10:37.3	91.500	0.120	-0.590	0.900
2020/01/31 05:10:37.4	91.510	0.140	-0.580	0.900
2020/01/31 05:10:37.5	91.520	0.160	-0.570	0.890
2020/01/31 05:10:37.6	91.530	0.170	-0.550	0.890
2020/01/31 05:10:37.7	91.540	0.190	-0.520	0.880
2020/01/31 05:10:37.8	91.550	0.200	-0.500	0.880
2020/01/31 05:10:37.9	91.560	0.210	-0.470	0.880
2020/01/31 05:10:38.0	91.570	0.220	-0.440	0.880
2020/01/31 05:10:38.1	91.580	0.230	-0.410	0.880
2020/01/31 05:10:38.2	91.580	0.240	-0.380	0.880
2020/01/31 05:10:38.3	91.590	0.240	-0.350	0.880
2020/01/31 05:10:38.4	91.590	0.240	-0.320	0.890
2020/01/31 05:10:38.5	91.600	0.250	-0.290	0.890
2020/01/31 05:10:38.6	91.600	0.250	-0.260	0.890
2020/01/31 05:10:38.7	91.600	0.250	-0.230	0.890
2020/01/31 05:10:38.8	91.610	0.240	-0.210	0.880
2020/01/31 05:10:38.9	91.610	0.240	-0.180	0.880
2020/01/31 05:10:39.0	91.610	0.240	-0.170	0.880
2020/01/31 05:10:39.1	91.620	0.230	-0.150	0.870
2020/01/31 05:10:39.2	91.620	0.230	-0.140	0.870
2020/01/31 05:10:39.3	91.620	0.230	-0.130	0.860
2020/01/31 05:10:39.4	91.610	0.220	-0.120	0.860
2020/01/31 05:10:39.5	91.610	0.220	-0.120	0.850
2020/01/31 05:10:39.6	91.600	0.220	-0.130	0.850
2020/01/31 05:10:39.7	91.600	0.210	-0.140	0.850
2020/01/31 05:10:39.8	91.590	0.210	-0.150	0.850
2020/01/31 05:10:39.9	91.570	0.210	-0.160	0.860
2020/01/31 05:10:40.0	91.560	0.210	-0.180	0.860
2020/01/31 05:10:40.1	91.540	0.210	-0.210	0.870
2020/01/31 05:10:40.2	91.520	0.220	-0.230	0.870
2020/01/31 05:10:40.3	91.500	0.220	-0.260	0.880
2020/01/31 05:10:40.4	91.480	0.220	-0.290	0.890
2020/01/31 05:10:40.5	91.450	0.230	-0.320	0.900
2020/01/31 05:10:40.6	91.430	0.240	-0.350	0.910
2020/01/31 05:10:40.7	91.400	0.240	-0.380	0.920
2020/01/31 05:10:40.8	91.380	0.250	-0.410	0.930
2020/01/31 05:10:40.9	91.350	0.260	-0.430	0.940
2020/01/31 05:10:41.0	91.330	0.260	-0.460	0.950
2020/01/31 05:10:41.1	91.300	0.270	-0.480	0.960
2020/01/31 05:10:41.2	91.270	0.270	-0.500	0.970
2020/01/31 05:10:41.3	91.240	0.280	-0.520	0.980
2020/01/31 05:10:41.4	91.220	0.280	-0.530	0.990
2020/01/31 05:10:41.5	91.190	0.290	-0.540	0.990
2020/01/31 05:10:41.6	91.170	0.290	-0.540	1.000
2020/01/31 05:10:41.7	91.140	0.290	-0.540	1.010
2020/01/31 05:10:41.8	91.120	0.280	-0.530	1.020
2020/01/31 05:10:41.9	91.100	0.280	-0.520	1.020
2020/01/31 05:10:42.0	91.080	0.270	-0.510	1.020
2020/01/31 05:10:42.1	91.070	0.260	-0.490	1.030
2020/01/31 05:10:42.2	91.040	0.250	-0.460	1.030
2020/01/31 05:10:42.3	91.030	0.240	-0.430	1.030
2020/01/31 05:10:42.4	91.020	0.220	-0.390	1.030
2020/01/31 05:10:42.5	91.020	0.200	-0.360	1.030
2020/01/31 05:10:42.6	91.010	0.180	-0.320	1.040
2020/01/31 05:10:42.7	91.010	0.160	-0.280	1.040
2020/01/31 05:10:42.8	91.010	0.140	-0.240	1.040
2020/01/31 05:10:42.9	91.010	0.110	-0.200	1.040
2020/01/31 05:10:43.0	91.020	0.090	-0.150	1.050
2020/01/31 05:10:43.1	91.030	0.060	-0.110	1.050
2020/01/31 05:10:43.2	91.040	0.030	-0.070	1.050
2020/01/31 05:10:43.3	91.060	0.010	-0.030	1.050
2020/01/31 05:10:43.4	91.080	-0.020	0.000	1.050
2020/01/31 05:10:43.5	91.090	-0.040	0.030	1.050
2020/01/31 05:10:43.6	91.120	-0.070	0.060	1.050
2020/01/31 05:10:43.7	91.140	-0.090	0.080	1.050
2020/01/31 05:10:43.8	91.170	-0.110	0.100	1.040
2020/01/31 05:10:43.9	91.190	-0.130	0.110	1.040
2020/01/31 05:10:44.0	91.220	-0.150	0.120	1.030
2020/01/31 05:10:44.1	91.260	-0.160	0.120	1.020
2020/01/31 05:10:44.2	91.290	-0.170	0.120	1.010
2020/01/31 05:10:44.3	91.320	-0.180	0.110	1.000
2020/01/31 05:10:44.4	91.350	-0.180	0.090	0.990
2020/01/31 05:10:44.5	91.390	-0.180	0.070	0.980
2020/01/31 05:10:44.6	91.420	-0.180	0.040	0.980
2020/01/31 05:10:44.7	91.450	-0.170	0.010	0.970
2020/01/31 05:10:44.8	91.480	-0.170	-0.020	0.970
2020/01/31 05:10:44.9	91.500	-0.160	-0.060	0.970
2020/01/31 05:10:45.0	91.520	-0.140	-0.100	0.970
2020/01/31 05:10:45.1	91.540	-0.130	-0.130	0.980
2020/01/31 05:10:45.2	91.550	-0.120	-0.170	0.990
2020/01/31 05:10:45.3	91.560	-0.100	-0.210	1.000
2020/01/31 05:10:45.4	91.570	-0.090	-0.240	1.020
2020/01/31 05:10:45.5	91.570	-0.070	-0.280	1.040
2020/01/31 05:10:45.6	91.570	-0.050	-0.310	1.060
2020/01/31 05:10:45.7	91.560	-0.040	-0.340	1.090
2020/01/31 05:10:45.8	91.550	-0.020	-0.370	1.110
2020/01/31 05:10:45.9	91.540	-0.010	-0.400	1.140
2020/01/31 05:10:46.0	91.530	0.000	-0.420	1.170
2020/01/31 05:10:46.1	91.510	0.020	-0.440	1.200
2020/01/31 05:10:46.2	91.490	0.020	-0.450	1.230
2020/01/31 05:10:46.3	91.470	0.030	-0.460	1.260
2020/01/31 05:10:46.4	91.450	0.040	-0.470	1.280
2020/01/31 05:10:46.5	91.430	0.040	-0.470	1.310
2020/01/31 05:10:46.6	91.400	0.040	-0.470	1.340
2020/01/31 05:10:46.7	91.380	0.040	-0.470	1.360
2020/01/31 05:10:46.8	91.360	0.030	-0.460	1.390
2020/01/31 05:10:46.9	91.330	0.030	-0.450	1.410
2020/01/31 05:10:47.0	91.310	0.020	-0.440	1.430
2020/01/31 05:10:47.1	91.290	0.000	-0.420	1.440
2020/01/31 05:10:47.2	91.270	-0.010	-0.400	1.460
2020/01/31 05:10:47.3	91.250	-0.030	-0.380	1.460
2020/01/31 05:10:47.4	91.240	-0.040	-0.350	1.470
2020/01/31 05:10:47.5	91.220	-0.060	-0.320	1.470
2020/01/31 05:10:47.6	91.210	-0.080	-0.290	1.470
2020/01/31 05:10:47.7	91.200	-0.110	-0.260	1.470
2020/01/31 05:10:47.8	91.190	-0.130	-0.220	1.460
2020/01/31 05:10:47.9	91.180	-0.160	-0.190	1.450
2020/01/31 05:10:48.0	91.180	-0.180	-0.150	1.430
2020/01/31 05:10:48.1	91.180	-0.210	-0.110	1.410
2020/01/31 05:10:48.2	91.170	-0.230	-0.070	1.380
2020/01/31 05:10:48.3	91.170	-0.260	-0.030	1.360
2020/01/31 05:10:48.4	91.180	-0.290	0.010	1.330
2020/01/31 05:10:48.5	91.180	-0.310	0.050	1.300
2020/01/31 05:10:48.6	91.190	-0.340	0.090	1.270
2020/01/31 05:10:48.7	91.200	-0.360	0.130	1.230
2020/01/31 05:10:48.8	91.210	-0.380	0.170	1.200
2020/01/31 05:10:48.9	91.220	-0.400	0.210	1.160
2020/01/31 05:10:49.0	91.240	-0.420	0.240	1.120
2020/01/31 05:10:49.1	91.250	-0.440	0.270	1.080
2020/01/31 05:10:49.2	91.270	-0.460	0.300	1.040
2020/01/31 05:10:49.3	91.290	-0.470	0.330	1.000
2020/01/31 05:10:49.4	91.310	-0.480	0.350	0.960
2020/01/31 05:10:49.5	91.330	-0.480	0.370	0.910
2020/01/31 05:10:49.6	91.350	-0.490	0.380	0.870
2020/01/31 05:10:49.7	91.370	-0.490	0.390	0.830
2020/01/31 05:10:49.8	91.400	-0.490	0.390	0.780
2020/01/31 05:10:49.9	91.430	-0.480	0.380	0.740
2020/01/31 05:10:50.0	91.450	-0.480	0.370	0.700
2020/01/31 05:10:50.1	91.480	-0.460	0.350	0.650
2020/01/31 05:10:50.2	91.500	-0.450	0.330	0.610
2020/01/31 05:10:50.3	91.530	-0.430	0.300	0.570
2020/01/31 05:10:50.4	91.560	-0.410	0.260	0.530
2020/01/31 05:10:50.5	91.580	-0.390	0.220	0.490
2020/01/31 05:10:50.6	91.610	-0.360	0.170	0.460
2020/01/31 05:10:50.7	91.630	-0.330	0.120	0.430
2020/01/31 05:10:50.8	91.650	-0.300	0.060	0.400
2020/01/31 05:10:50.9	91.680	-0.260	-0.000	0.370
2020/01/31 05:10:51.0	91.690	-0.230	-0.070	0.350
2020/01/31 05:10:51.1	91.710	-0.190	-0.140	0.330
2020/01/31 05:10:51.2	91.730	-0.150	-0.210	0.310
2020/01/31 05:10:51.3	91.740	-0.110	-0.280	0.300
2020/01/31 05:10:51.4	91.740	-0.080	-0.350	0.300
2020/01/31 05:10:51.5	91.750	-0.040	-0.420	0.290
2020/01/31 05:10:51.6	91.750	0.000	-0.480	0.300
2020/01/31 05:10:51.7	91.750	0.040	-0.540	0.300
2020/01/31 05:10:51.8	91.740	0.080	-0.600	0.310
2020/01/31 05:10:51.9	91.730	0.110	-0.660	0.330
2020/01/31 05:10:52.0	91.720	0.150	-0.710	0.350
2020/01/31 05:10:52.1	91.710	0.180	-0.750	0.380
2020/01/31 05:10:52.2	91.690	0.210	-0.790	0.410
2020/01/31 05:10:52.3	91.660	0.240	-0.820	0.440
2020/01/31 05:10:52.4	91.640	0.260	-0.840	0.480
2020/01/31 05:10:52.5	91.610	0.280	-0.860	0.520
2020/01/31 05:10:52.6	91.580	0.300	-0.880	0.570
2020/01/31 05:10:52.7	91.540	0.320	-0.880	0.610
2020/01/31 05:10:52.8	91.510	0.330	-0.880	0.660
2020/01/31 05:10:52.9	91.470	0.340	-0.880	0.700
2020/01/31 05:10:53.0	91.430	0.350	-0.870	0.750
2020/01/31 05:10:53.1	91.390	0.350	-0.850	0.790
2020/01/31 05:10:53.2	91.350	0.350	-0.840	0.840
2020/01/31 05:10:53.3	91.310	0.350	-0.810	0.880
2020/01/31 05:10:53.4	91.270	0.350	-0.790	0.920
2020/01/31 05:10:53.5	91.220	0.340	-0.760	0.950
2020/01/31 05:10:53.6	91.180	0.340	-0.720	0.990
2020/01/31 05:10:53.7	91.140	0.330	-0.690	1.020
2020/01/31 05:10:53.8	91.100	0.310	-0.650	1.040
2020/01/31 05:10:53.9	91.060	0.300	-0.610	1.070
2020/01/31 05:10:54.0	91.020	0.290	-0.570	1.080
2020/01/31 05:10:54.1	90.990	0.270	-0.530	1.090
2020/01/31 05:10:54.2	90.960	0.260	-0.490	1.100
2020/01/31 05:10:54.3	90.930	0.240	-0.450	1.100
2020/01/31 05:10:54.4	90.900	0.230	-0.410	1.100
2020/01/31 05:10:54.5	90.880	0.210	-0.370	1.090
2020/01/31 05:10:54.6	90.860	0.200	-0.330	1.080
2020/01/31 05:10:54.7	90.850	0.180	-0.300	1.060
2020/01/31 05:10:54.8	90.840	0.170	-0.270	1.040
2020/01/31 05:10:54.9	90.830	0.150	-0.230	1.020
2020/01/31 05:10:55.0	90.830	0.140	-0.210	0.990
2020/01/31 05:10:55.1	90.830	0.130	-0.180	0.960
2020/01/31 05:10:55.2	90.830	0.120	-0.150	0.930
2020/01/31 05:10:55.3	90.840	0.120	-0.130	0.900
2020/01/31 05:10:55.4	90.850	0.110	-0.120	0.870
2020/01/31 05:10:55.5	90.870	0.110	-0.100	0.830
2020/01/31 05:10:55.6	90.880	0.100	-0.090	0.800
2020/01/31 05:10:55.7	90.900	0.100	-0.090	0.760
2020/01/31 05:10:55.8	90.920	0.100	-0.080	0.730
2020/01/31 05:10:55.9	90.940	0.110	-0.080	0.700
2020/01/31 05:10:56.0	90.960	0.110	-0.080	0.670
2020/01/31 05:10:56.1	90.990	0.120	-0.090	0.640
2020/01/31 05:10:56.2	91.010	0.130	-0.100	0.610
2020/01/31 05:10:56.3	91.030	0.140	-0.110	0.580
2020/01/31 05:10:56.4	91.060	0.150	-0.120	0.550
2020/01/31 05:10:56.5	91.090	0.160	-0.140	0.530
2020/01/31 05:10:56.6	91.120	0.180	-0.150	0.510
2020/01/31 05:10:56.7	91.150	0.190	-0.170	0.490
2020/01/31 05:10:56.8	91.180	0.210	-0.190	0.470
2020/01/31 05:10:56.9	91.210	0.220	-0.210	0.450
2020/01/31 05:10:57.0	91.240	0.240	-0.230	0.440
2020/01/31 05:10:57.1	91.270	0.260	-0.250	0.430
2020/01/31 05:10:57.2	91.300	0.280	-0.260	0.420
2020/01/31 05:10:57.3	91.320	0.290	-0.280	0.420
2020/01/31 05:10:57.4	91.350	0.310	-0.300	0.420
2020/01/31 05:10:57.5	91.370	0.330	-0.320	0.420
2020/01/31 05:10:57.6	91.380	0.340	-0.330	0.430
2020/01/31 05:10:57.7	91.400	0.360	-0.340	0.440
2020/01/31 05:10:57.8	91.400	0.370	-0.350	0.460
2020/01/31 05:10:57.9	91.410	0.380	-0.360	0.480
2020/01/31 05:10:58.0	91.410	0.390	-0.360	0.510
2020/01/31 05:10:58.1	91.410	0.400	-0.360	0.540
2020/01/31 05:10:58.2	91.410	0.410	-0.360	0.570
2020/01/31 05:10:58.3	91.390	0.410	-0.350	0.600
2020/01/31 05:10:58.4	91.370	0.410	-0.340	0.640
2020/01/31 05:10:58.5	91.350	0.410	-0.320	0.680
2020/01/31 05:10:58.6	91.330	0.410	-0.300	0.720
2020/01/31 05:10:58.7	91.300	0.400	-0.280	0.760
2020/01/31 05:10:58.8	91.270	0.390	-0.250	0.800
2020/01/31 05:10:58.9	91.230	0.380	-0.220	0.850
2020/01/31 05:10:59.0	91.200	0.360	-0.190	0.890
2020/01/31 05:10:59.1	91.160	0.350	-0.160	0.940
2020/01/31 05:10:59.2	91.120	0.330	-0.130	0.980
2020/01/31 05:10:59.3	91.080	0.300	-0.090	1.020
2020/01/31 05:10:59.4	91.040	0.280	-0.050	1.060
2020/01/31 05:10:59.5	91.010	0.250	-0.020	1.100
2020/01/31 05:10:59.6	90.970	0.220	0.020	1.140
2020/01/31 05:10:59.7	90.940	0.190	0.050	1.180
2020/01/31 05:10:59.8	90.900	0.160	0.090	1.210
2020/01/31 05:10:59.9	90.880	0.130	0.120	1.240
2020/01/31 05:11:00.0	90.850	0.100	0.150	1.270
2020/01/31 05:11:00.1	90.830	0.060	0.180	1.300
2020/01/31 05:11:00.2	90.810	0.030	0.210	1.310
2020/01/31 05:11:00.3	90.800	-0.010	0.230	1.330
2020/01/31 05:11:00.4	90.790	-0.050	0.250	1.350
2020/01/31 05:11:00.5	90.780	-0.080	0.270	1.360
2020/01/31 05:11:00.6	90.780	-0.120	0.280	1.370
2020/01/31 05:11:00.7	90.780	-0.150	0.290	1.370
2020/01/31 05:11:00.8	90.790	-0.180	0.290	1.370
2020/01/31 05:11:00.9	90.800	-0.220	0.300	1.370
2020/01/31 05:11:01.0	90.810	-0.250	0.290	1.360
2020/01/31 05:11:01.1	90.820	-0.280	0.290	1.350
2020/01/31 05:11:01.2	90.840	-0.310	0.280	1.330
2020/01/31 05:11:01.3	90.860	-0.350	0.270	1.300
2020/01/31 05:11:01.4	90.890	-0.370	0.250	1.280
2020/01/31 05:11:01.5	90.910	-0.400	0.230	1.250
2020/01/31 05:11:01.6	90.940	-0.430	0.210	1.220
2020/01/31 05:11:01.7	90.970	-0.460	0.190	1.180
2020/01/31 05:11:01.8	91.000	-0.480	0.160	1.140
2020/01/31 05:11:01.9	91.030	-0.500	0.130	1.100
2020/01/31 05:11:02.0	91.060	-0.530	0.100	1.060
2020/01/31 05:11:02.1	91.100	-0.550	0.070	1.010
2020/01/31 05:11:02.2	91.130	-0.560	0.030	0.970
2020/01/31 05:11:02.3	91.160	-0.580	-0.000	0.920
2020/01/31 05:11:02.4	91.190	-0.600	-0.040	0.880
2020/01/31 05:11:02.5	91.230	-0.610	-0.080	0.850
2020/01/31 05:11:02.6	91.260	-0.620	-0.110	0.810
2020/01/31 05:11:02.7	91.290	-0.630	-0.150	0.780
2020/01/31 05:11:02.8	91.320	-0.640	-0.190	0.760
2020/01/31 05:11:02.9	91.350	-0.650	-0.220	0.740
2020/01/31 05:11:03.0	91.370	-0.660	-0.250	0.730
2020/01/31 05:11:03.1	91.400	-0.660	-0.290	0.720
2020/01/31 05:11:03.2	91.430	-0.660	-0.320	0.720
2020/01/31 05:11:03.3	91.450	-0.660	-0.340	0.730
2020/01/31 05:11:03.4	91.470	-0.660	-0.370	0.740
2020/01/31 05:11:03.5	91.480	-0.660	-0.390	0.770
2020/01/31 05:11:03.6	91.500	-0.650	-0.420	0.800
2020/01/31 05:11:03.7	91.510	-0.650	-0.430	0.830
2020/01/31 05:11:03.8	91.520	-0.640	-0.450	0.870
2020/01/31 05:11:03.9	91.530	-0.630	-0.460	0.910
2020/01/31 05:11:04.0	91.540	-0.620	-0.480	0.960
2020/01/31 05:11:04.1	91.540	-0.610	-0.490	1.010
2020/01/31 05:11:04.2	91.540	-0.600	-0.490	1.060
2020/01/31 05:11:04.3	91.540	-0.580	-0.500	1.110
2020/01/31 05:11:04.4	91.540	-0.570	-0.500	1.170
2020/01/31 05:11:04.5	91.540	-0.550	-0.510	1.220
2020/01/31 05:11:04.6	91.530	-0.530	-0.510	1.270
2020/01/31 05:11:04.7	91.530	-0.500	-0.510	1.320
2020/01/31 05:11:04.8	91.520	-0.480	-0.510	1.360
2020/01/31 05:11:04.9	91.510	-0.460	-0.510	1.410
2020/01/31 05:11:05.0	91.500	-0.430	-0.510	1.450
2020/01/31 05:11:05.1	91.480	-0.400	-0.510	1.480
2020/01/31 05:11:05.2	91.470	-0.380	-0.510	1.520
2020/01/31 05:11:05.3	91.450	-0.350	-0.510	1.540
2020/01/31 05:11:05.4	91.430	-0.320	-0.500	1.560
2020/01/31 05:11:05.5	91.420	-0.280	-0.500	1.580
2020/01/31 05:11:05.6	91.400	-0.250	-0.500	1.590
2020/01/31 05:11:05.7	91.380	-0.220	-0.500	1.590
2020/01/31 05:11:05.8	91.360	-0.190	-0.500	1.590
2020/01/31 05:11:05.9	91.340	-0.150	-0.500	1.590
2020/01/31 05:11:06.0	91.320	-0.120	-0.500	1.580
2020/01/31 05:11:06.1	91.300	-0.090	-0.500	1.560
2020/01/31 05:11:06.2	91.280	-0.050	-0.500	1.540
2020/01/31 05:11:06.3	91.260	-0.020	-0.500	1.520
2020/01/31 05:11:06.4	91.240	0.010	-0.500	1.490
2020/01/31 05:11:06.5	91.220	0.050	-0.500	1.470
2020/01/31 05:11:06.6	91.200	0.080	-0.500	1.440
2020/01/31 05:11:06.7	91.170	0.110	-0.500	1.400
2020/01/31 05:11:06.8	91.150	0.140	-0.500	1.370
2020/01/31 05:11:06.9	91.120	0.180	-0.500	1.340
2020/01/31 05:11:07.0	91.100	0.210	-0.500	1.300
2020/01/31 05:11:07.1	91.070	0.240	-0.500	1.270
2020/01/31 05:11:07.2	91.040	0.270	-0.490	1.230
2020/01/31 05:11:07.3	91.010	0.300	-0.490	1.190
2020/01/31 05:11:07.4	90.980	0.330	-0.490	1.150
2020/01/31 05:11:07.5	90.950	0.360	-0.490	1.110
2020/01/31 05:11:07.6	90.930	0.390	-0.480	1.070
2020/01/31 05:11:07.7	90.900	0.410	-0.480	1.030
2020/01/31 05:11:07.8	90.870	0.440	-0.470	0.980
2020/01/31 05:11:07.9	90.850	0.460	-0.470	0.930
2020/01/31 05:11:08.0	90.830	0.490	-0.460	0.880
2020/01/31 05:11:08.1	90.810	0.510	-0.450	0.820
2020/01/31 05:11:08.2	90.790	0.530	-0.440	0.770
2020/01/31 05:11:08.3	90.780	0.550	-0.430	0.710
2020/01/31 05:11:08.4	90.770	0.570	-0.410	0.650
2020/01/31 05:11:08.5	90.760	0.580	-0.400	0.590
2020/01/31 05:11:08.6	90.750	0.600	-0.380	0.530
2020/01/31 05:11:08.7	90.750	0.610	-0.360	0.460
2020/01/31 05:11:08.8	90.750	0.620	-0.340	0.400
2020/01/31 05:11:08.9	90.750	0.630	-0.320	0.340
2020/01/31 05:11:09.0	90.760	0.640	-0.300	0.270
2020/01/31 05:11:09.1	90.770	0.640	-0.280	0.210
2020/01/31 05:11:09.2	90.770	0.650	-0.250	0.150
2020/01/31 05:11:09.3	90.780	0.650	-0.230	0.100
2020/01/31 05:11:09.4	90.800	0.650	-0.210	0.050
2020/01/31 05:11:09.5	90.810	0.640	-0.180	-0.000
2020/01/31 05:11:09.6	90.830	0.640	-0.160	-0.050
2020/01/31 05:11:09.7	90.840	0.630	-0.140	-0.090
2020/01/31 05:11:09.8	90.860	0.630	-0.120	-0.130
2020/01/31 05:11:09.9	90.880	0.620	-0.100	-0.160
2020/01/31 05:11:10.0	90.900	0.610	-0.080	-0.190
2020/01/31 05:11:10.1	90.920	0.590	-0.060	-0.210
2020/01/31 05:11:10.2	90.930	0.580	-0.040	-0.220
2020/01/31 05:11:10.3	90.950	0.560	-0.030	-0.230
2020/01/31 05:11:10.4	90.980	0.550	-0.020	-0.230
2020/01/31 05:11:10.5	91.000	0.530	-0.010	-0.230
2020/01/31 05:11:10.6	91.020	0.510	-0.000	-0.220
2020/01/31 05:11:10.7	91.040	0.490	0.000	-0.200
2020/01/31 05:11:10.8	91.060	0.470	0.000	-0.180
2020/01/31 05:11:10.9	91.080	0.440	0.010	-0.150
2020/01/31 05:11:11.0	91.100	0.420	0.010	-0.120
2020/01/31 05:11:11.1	91.130	0.390	0.000	-0.080
2020/01/31 05:11:11.2	91.140	0.360	0.000	-0.050
2020/01/31 05:11:11.3	91.170	0.340	-0.000	-0.010
2020/01/31 05:11:11.4	91.190	0.310	-0.010	0.040
2020/01/31 05:11:11.5	91.210	0.280	-0.020	0.090
2020/01/31 05:11:11.6	91.230	0.250	-0.020	0.140
2020/01/31 05:11:11.7	91.250	0.220	-0.030	0.190
2020/01/31 05:11:11.8	91.270	0.190	-0.050	0.240
2020/01/31 05:11:11.9	91.290	0.160	-0.060	0.290
2020/01/31 05:11:12.0	91.310	0.130	-0.070	0.350
2020/01/31 05:11:12.1	91.330	0.100	-0.080	0.400
2020/01/31 05:11:12.2	91.350	0.070	-0.090	0.460
2020/01/31 05:11:12.3	91.370	0.050	-0.090	0.520
2020/01/31 05:11:12.4	91.380	0.020	-0.100	0.580
2020/01/31 05:11:12.5	91.400	-0.010	-0.110	0.640
2020/01/31 05:11:12.6	91.410	-0.030	-0.110	0.700
2020/01/31 05:11:12.7	91.420	-0.060	-0.110	0.770
2020/01/31 05:11:12.8	91.430	-0.080	-0.110	0.830
2020/01/31 05:11:12.9	91.430	-0.110	-0.100	0.900
2020/01/31 05:11:13.0	91.440	-0.130	-0.100	0.970
2020/01/31 05:11:13.1	91.440	-0.150	-0.090	1.040
2020/01/31 05:11:13.2	91.450	-0.180	-0.070	1.100
2020/01/31 05:11:13.3	91.450	-0.200	-0.060	1.170
2020/01/31 05:11:13.4	91.450	-0.220	-0.040	1.230
2020/01/31 05:11:13.5	91.460	-0.240	-0.020	1.300
2020/01/31 05:11:13.6	91.450	-0.260	-0.000	1.360
2020/01/31 05:11:13.7	91.450	-0.290	0.020	1.420
2020/01/31 05:11:13.8	91.460	-0.310	0.040	1.480
2020/01/31 05:11:13.9	91.460	-0.330	0.060	1.540
2020/01/31 05:11:14.0	91.460	-0.350	0.090	1.590
2020/01/31 05:11:14.1	91.460	-0.370	0.110	1.640
2020/01/31 05:11:14.2	91.470	-0.390	0.130	1.680
2020/01/31 05:11:14.3	91.480	-0.410	0.150	1.720
2020/01/31 05:11:14.4	91.490	-0.430	0.160	1.750
2020/01/31 05:11:14.5	91.500	-0.450	0.170	1.780
2020/01/31 05:11:14.6	91.500	-0.470	0.180	1.800
2020/01/31 05:11:14.7	91.510	-0.480	0.180	1.820
2020/01/31 05:11:14.8	91.530	-0.490	0.170	1.840
2020/01/31 05:11:14.9	91.540	-0.510	0.170	1.850
2020/01/31 05:11:15.0	91.550	-0.520	0.150	1.850
2020/01/31 05:11:15.1	91.560	-0.530	0.140	1.850
2020/01/31 05:11:15.2	91.570	-0.530	0.110	1.850
2020/01/31 05:11:15.3	91.580	-0.540	0.080	1.840
2020/01/31 05:11:15.4	91.590	-0.540	0.050	1.830
2020/01/31 05:11:15.5	91.600	-0.540	0.010	1.820
2020/01/31 05:11:15.6	91.610	-0.530	-0.030	1.800
2020/01/31 05:11:15.7	91.620	-0.530	-0.070	1.780
2020/01/31 05:11:15.8	91.620	-0.520	-0.120	1.750
2020/01/31 05:11:15.9	91.630	-0.510	-0.170	1.720
2020/01/31 05:11:16.0	91.630	-0.490	-0.230	1.690
2020/01/31 05:11:16.1	91.630	-0.470	-0.280	1.650
2020/01/31 05:11:16.2	91.640	-0.450	-0.340	1.610
2020/01/31 05:11:16.3	91.640	-0.430	-0.390	1.570
2020/01/31 05:11:16.4	91.640	-0.410	-0.450	1.530
2020/01/31 05:11:16.5	91.630	-0.380	-0.510	1.480
2020/01/31 05:11:16.6	91.630	-0.350	-0.560	1.440
2020/01/31 05:11:16.7	91.620	-0.320	-0.610	1.400
2020/01/31 05:11:16.8	91.610	-0.290	-0.660	1.360
2020/01/31 05:11:16.9	91.600	-0.250	-0.710	1.320
2020/01/31 05:11:17.0	91.580	-0.220	-0.760	1.280
2020/01/31 05:11:17.1	91.560	-0.180	-0.800	1.240
2020/01/31 05:11:17.2	91.540	-0.140	-0.840	1.210
2020/01/31 05:11:17.3	91.510	-0.100	-0.870	1.180
2020/01/31 05:11:17.4	91.490	-0.060	-0.900	1.150
2020/01/31 05:11:17.5	91.460	-0.020	-0.930	1.130
2020/01/31 05:11:17.6	91.430	0.020	-0.950	1.100
2020/01/31 05:11:17.7	91.410	0.050	-0.960	1.080
2020/01/31 05:11:17.8	91.380	0.090	-0.970	1.060
2020/01/31 05:11:17.9	91.350	0.130	-0.970	1.040
2020/01/31 05:11:18.0	91.330	0.160	-0.970	1.020
2020/01/31 05:11:18.1	91.300	0.190	-0.960	1.000
2020/01/31 05:11:18.2	91.280	0.220	-0.950	0.980
2020/01/31 05:11:18.3	91.270	0.250	-0.930	0.960
2020/01/31 05:11:18.4	91.250	0.270	-0.910	0.940
2020/01/31 05:11:18.5	91.230	0.290	-0.880	0.910
2020/01/31 05:11:18.6	91.220	0.310	-0.840	0.890
2020/01/31 05:11:18.7	91.220	0.320	-0.800	0.860
2020/01/31 05:11:18.8	91.210	0.330	-0.760	0.840
2020/01/31 05:11:18.9	91.210	0.340	-0.710	0.810
2020/01/31 05:11:19.0	91.210	0.350	-0.660	0.780
2020/01/31 05:11:19.1	91.210	0.350	-0.610	0.750
2020/01/31 05:11:19.2	91.200	0.350	-0.550	0.710
2020/01/31 05:11:19.3	91.210	0.340	-0.490	0.680
2020/01/31 05:11:19.4	91.220	0.340	-0.440	0.640
2020/01/31 05:11:19.5	91.230	0.330	-0.380	0.610
2020/01/31 05:11:19.6	91.250	0.310	-0.330	0.570
2020/01/31 05:11:19.7	91.260	0.300	-0.280	0.530
2020/01/31 05:11:19.8	91.280	0.290	-0.220	0.500
2020/01/31 05:11:19.9	91.300	0.270	-0.180	0.460
2020/01/31 05:11:20.0	91.320	0.250	-0.130	0.430
2020/01/31 05:11:20.1	91.340	0.230	-0.080	0.400
2020/01/31 05:11:20.2	91.370	0.220	-0.040	0.370
2020/01/31 05:11:20.3	91.390	0.200	0.000	0.350
2020/01/31 05:11:20.4	91.410	0.180	0.040	0.330
2020/01/31 05:11:20.5	91.430	0.160	0.070	0.320
2020/01/31 05:11:20.6	91.450	0.140	0.110	0.310
2020/01/31 05:11:20.7	91.470	0.120	0.140	0.300
2020/01/31 05:11:20.8	91.490	0.090	0.160	0.300
2020/01/31 05:11:20.9	91.510	0.070	0.190	0.300
2020/01/31 05:11:21.0	91.530	0.050	0.210	0.310
2020/01/31 05:11:21.1	91.550	0.030	0.230	0.320
2020/01/31 05:11:21.2	91.560	0.010	0.240	0.330
2020/01/31 05:11:21.3	91.580	-0.010	0.260	0.350
2020/01/31 05:11:21.4	91.590	-0.030	0.280	0.370
2020/01/31 05:11:21.5	91.600	-0.040	0.290	0.390
2020/01/31 05:11:21.6	91.620	-0.060	0.300	0.410
2020/01/31 05:11:21.7	91.630	-0.080	0.300	0.440
2020/01/31 05:11:21.8	91.630	-0.100	0.310	0.460
2020/01/31 05:11:21.9	91.640	-0.110	0.310	0.490
2020/01/31 05:11:22.0	91.650	-0.130	0.310	0.510
2020/01/31 05:11:22.1	91.660	-0.140	0.310	0.540
2020/01/31 05:11:22.2	91.660	-0.150	0.300	0.570
2020/01/31 05:11:22.3	91.670	-0.170	0.290	0.600
2020/01/31 05:11:22.4	91.670	-0.180	0.280	0.620
2020/01/31 05:11:22.5	91.670	-0.190	0.270	0.650
2020/01/31 05:11:22.6	91.670	-0.190	0.250	0.680
2020/01/31 05:11:22.7	91.670	-0.200	0.240	0.710
2020/01/31 05:11:22.8	91.670	-0.210	0.220	0.750
2020/01/31 05:11:22.9	91.670	-0.210	0.190	0.780
2020/01/31 05:11:23.0	91.670	-0.210	0.170	0.810
2020/01/31 05:11:23.1	91.670	-0.220	0.140	0.840
2020/01/31 05:11:23.2	91.660	-0.220	0.110	0.870
2020/01/31 05:11:23.3	91.660	-0.220	0.080	0.910
2020/01/31 05:11:23.4	91.650	-0.210	0.050	0.940
2020/01/31 05:11:23.5	91.650	-0.210	0.020	0.980
2020/01/31 05:11:23.6	91.640	-0.210	-0.010	1.010
2020/01/31 05:11:23.7	91.630	-0.200	-0.040	1.040
2020/01/31 05:11:23.8	91.630	-0.200	-0.080	1.070
2020/01/31 05:11:23.9	91.620	-0.190	-0.110	1.100
2020/01/31 05:11:24.0	91.620	-0.180	-0.140	1.120
2020/01/31 05:11:24.1	91.610	-0.180	-0.170	1.150
2020/01/31 05:11:24.2	91.610	-0.170	-0.200	1.160
2020/01/31 05:11:24.3	91.610	-0.160	-0.230	1.180
2020/01/31 05:11:24.4	91.610	-0.150	-0.260	1.200
2020/01/31 05:11:24.5	91.610	-0.140	-0.280	1.210
2020/01/31 05:11:24.6	91.600	-0.130	-0.310	1.220
2020/01/31 05:11:24.7	91.600	-0.120	-0.330	1.220
2020/01/31 05:11:24.8	91.600	-0.110	-0.350	1.220
2020/01/31 05:11:24.9	91.600	-0.100	-0.380	1.220
2020/01/31 05:11:25.0	91.600	-0.090	-0.390	1.210
2020/01/31 05:11:25.1	91.600	-0.080	-0.410	1.200
2020/01/31 05:11:25.2	91.600	-0.060	-0.430	1.190
2020/01/31 05:11:25.3	91.600	-0.050	-0.450	1.180
2020/01/31 05:11:25.4	91.600	-0.040	-0.460	1.160
2020/01/31 05:11:25.5	91.600	-0.030	-0.470	1.140
2020/01/31 05:11:25.6	91.600	-0.010	-0.490	1.130
2020/01/31 05:11:25.7	91.590	-0.000	-0.500	1.110
2020/01/31 05:11:25.8	91.590	0.010	-0.500	1.090
2020/01/31 05:11:25.9	91.590	0.030	-0.510	1.070
2020/01/31 05:11:26.0	91.590	0.040	-0.520	1.060
2020/01/31 05:11:26.1	91.580	0.050	-0.520	1.040
2020/01/31 05:11:26.2	91.570	0.070	-0.530	1.020
2020/01/31 05:11:26.3	91.570	0.080	-0.530	1.000
2020/01/31 05:11:26.4	91.560	0.100	-0.540	0.980
2020/01/31 05:11:26.5	91.550	0.110	-0.540	0.970
2020/01/31 05:11:26.6	91.550	0.130	-0.540	0.950
2020/01/31 05:11:26.7	91.540	0.140	-0.540	0.940
2020/01/31 05:11:26.8	91.530	0.160	-0.550	0.920
2020/01/31 05:11:26.9	91.520	0.180	-0.550	0.900
2020/01/31 05:11:27.0	91.520	0.190	-0.550	0.880
2020/01/31 05:11:27.1	91.510	0.210	-0.550	0.860
2020/01/31 05:11:27.2	91.500	0.220	-0.550	0.840
2020/01/31 05:11:27.3	91.500	0.240	-0.550	0.820
2020/01/31 05:11:27.4	91.500	0.260	-0.550	0.800
2020/01/31 05:11:27.5	91.490	0.270	-0.540	0.780
2020/01/31 05:11:27.6	91.490	0.290	-0.540	0.760
2020/01/31 05:11:27.7	91.490	0.300	-0.530	0.740
2020/01/31 05:11:27.8	91.490	0.310	-0.520	0.730
2020/01/31 05:11:27.9	91.490	0.320	-0.510	0.710
2020/01/31 05:11:28.0	91.490	0.330	-0.500	0.700
2020/01/31 05:11:28.1	91.490	0.340	-0.480	0.690
2020/01/31 05:11:28.2	91.490	0.350	-0.460	0.680
2020/01/31 05:11:28.3	91.480	0.360	-0.440	0.670
2020/01/31 05:11:28.4	91.480	0.360	-0.420	0.670
2020/01/31 05:11:28.5	91.480	0.360	-0.400	0.670
2020/01/31 05:11:28.6	91.480	0.360	-0.370	0.680
2020/01/31 05:11:28.7	91.470	0.360	-0.340	0.680
2020/01/31 05:11:28.8	91.470	0.350	-0.320	0.690
2020/01/31 05:11:28.9	91.460	0.350	-0.290	0.700
2020/01/31 05:11:29.0	91.460	0.340	-0.250	0.710
2020/01/31 05:11:29.1	91.450	0.330	-0.220	0.720
2020/01/31 05:11:29.2	91.450	0.320	-0.190	0.740
2020/01/31 05:11:29.3	91.440	0.300	-0.160	0.750
2020/01/31 05:11:29.4	91.430	0.290	-0.120	0.770
2020/01/31 05:11:29.5	91.420	0.270	-0.090	0.780
2020/01/31 05:11:29.6	91.410	0.250	-0.060	0.790
2020/01/31 05:11:29.7	91.400	0.230	-0.030	0.810
2020/01/31 05:11:29.8	91.390	0.210	-0.000	0.820
2020/01/31 05:11:29.9	91.380	0.190	0.020	0.830
2020/01/31 05:11:30.0	91.370	0.170	0.050	0.840
2020/01/31 05:11:30.1	91.360	0.140	0.070	0.850
2020/01/31 05:11:30.2	91.350	0.120	0.090	0.850
2020/01/31 05:11:30.3	91.340	0.100	0.100	0.860
2020/01/31 05:11:30.4	91.330	0.080	0.120	0.860
2020/01/31 05:11:30.5	91.330	0.060	0.120	0.860
2020/01/31 05:11:30.6	91.320	0.030	0.130	0.860
2020/01/31 05:11:30.7	91.310	0.020	0.130	0.860
2020/01/31 05:11:30.8	91.310	-0.000	0.130	0.860
2020/01/31 05:11:30.9	91.310	-0.020	0.120	0.860
2020/01/31 05:11:31.0	91.300	-0.040	0.100	0.860
2020/01/31 05:11:31.1	91.300	-0.050	0.090	0.860
2020/01/31 05:11:31.2	91.300	-0.060	0.070	0.860
2020/01/31 05:11:31.3	91.300	-0.070	0.040	0.860
2020/01/31 05:11:31.4	91.310	-0.080	0.010	0.860
2020/01/31 05:11:31.5	91.310	-0.090	-0.020	0.860
2020/01/31 05:11:31.6	91.310	-0.100	-0.060	0.860
2020/01/31 05:11:31.7	91.320	-0.100	-0.100	0.860
2020/01/31 05:11:31.8	91.330	-0.110	-0.140	0.860
2020/01/31 05:11:31.9	91.340	-0.110	-0.180	0.860
2020/01/31 05:11:32.0	91.350	-0.110	-0.230	0.860
2020/01/31 05:11:32.1	91.360	-0.110	-0.270	0.860
2020/01/31 05:11:32.2	91.370	-0.110	-0.310	0.860
2020/01/31 05:11:32.3	91.380	-0.110	-0.360	0.860
2020/01/31 05:11:32.4	91.390	-0.110	-0.400	0.860
2020/01/31 05:11:32.5	91.400	-0.110	-0.430	0.860
2020/01/31 05:11:32.6	91.410	-0.110	-0.470	0.860
2020/01/31 05:11:32.7	91.420	-0.110	-0.490	0.860
2020/01/31 05:11:32.8	91.430	-0.110	-0.520	0.870
2020/01/31 05:11:32.9	91.430	-0.110	-0.530	0.880
2020/01/31 05:11:33.0	91.440	-0.110	-0.550	0.880
2020/01/31 05:11:33.1	91.440	-0.110	-0.550	0.890
2020/01/31 05:11:33.2	91.440	-0.120	-0.550	0.900
2020/01/31 05:11:33.3	91.440	-0.120	-0.540	0.920
2020/01/31 05:11:33.4	91.440	-0.130	-0.520	0.930
2020/01/31 05:11:33.5	91.440	-0.140	-0.490	0.940
2020/01/31 05:11:33.6	91.440	-0.150	-0.460	0.960
2020/01/31 05:11:33.7	91.430	-0.160	-0.430	0.980
2020/01/31 05:11:33.8	91.430	-0.170	-0.380	0.990
2020/01/31 05:11:33.9	91.430	-0.190	-0.340	1.010
2020/01/31 05:11:34.0	91.420	-0.200	-0.290	1.020
2020/01/31 05:11:34.1	91.420	-0.220	-0.230	1.040
2020/01/31 05:11:34.2	91.410	-0.230	-0.170	1.050
2020/01/31 05:11:34.3	91.410	-0.250	-0.110	1.070
2020/01/31 05:11:34.4	91.410	-0.270	-0.060	1.080
2020/01/31 05:11:34.5	91.400	-0.280	0.000	1.090
2020/01/31 05:11:34.6	91.400	-0.300	0.060	1.100
2020/01/31 05:11:34.7	91.390	-0.320	0.110	1.110
2020/01/31 05:11:34.8	91.390	-0.330	0.160	1.120
2020/01/31 05:11:34.9	91.390	-0.350	0.200	1.120
2020/01/31 05:11:35.0	91.390	-0.360	0.240	1.130
2020/01/31 05:11:35.1	91.380	-0.370	0.260	1.130
2020/01/31 05:11:35.2	91.380	-0.380	0.290	1.140
2020/01/31 05:11:35.3	91.380	-0.380	0.300	1.140
2020/01/31 05:11:35.4	91.370	-0.380	0.300	1.150
2020/01/31 05:11:35.5	91.370	-0.380	0.300	1.160
2020/01/31 05:11:35.6	91.360	-0.370	0.280	1.160
2020/01/31 05:11:35.7	91.350	-0.360	0.250	1.170
2020/01/31 05:11:35.8	91.350	-0.350	0.220	1.170
2020/01/31 05:11:35.9	91.340	-0.330	0.180	1.180
2020/01/31 05:11:36.0	91.340	-0.310	0.120	1.180
2020/01/31 05:11:36.1	91.330	-0.290	0.070	1.180
2020/01/31 05:11:36.2	91.320	-0.260	0.000	1.180
2020/01/31 05:11:36.3	91.320	-0.230	-0.070	1.180
2020/01/31 05:11:36.4	91.320	-0.200	-0.140	1.170
2020/01/31 05:11:36.5	91.310	-0.160	-0.220	1.170
2020/01/31 05:11:36.6	91.310	-0.130	-0.290	1.160
2020/01/31 05:11:36.7	91.310	-0.090	-0.370	1.150
2020/01/31 05:11:36.8	91.310	-0.050	-0.450	1.140
2020/01/31 05:11:36.9	91.310	-0.010	-0.520	1.120
2020/01/31 05:11:37.0	91.320	0.020	-0.590	1.100
2020/01/31 05:11:37.1	91.320	0.060	-0.660	1.080
2020/01/31 05:11:37.2	91.310	0.090	-0.720	1.060
2020/01/31 05:11:37.3	91.320	0.130	-0.770	1.030
2020/01/31 05:11:37.4	91.320	0.160	-0.820	1.010
2020/01/31 05:11:37.5	91.330	0.190	-0.860	0.980
2020/01/31 05:11:37.6	91.340	0.210	-0.890	0.960
2020/01/31 05:11:37.7	91.340	0.230	-0.910	0.930
2020/01/31 05:11:37.8	91.350	0.250	-0.920	0.910
2020/01/31 05:11:37.9	91.360	0.270	-0.930	0.890
2020/01/31 05:11:38.0	91.360	0.280	-0.920	0.870
2020/01/31 05:11:38.1	91.370	0.280	-0.900	0.850
2020/01/31 05:11:38.2	91.370	0.290	-0.880	0.830
2020/01/31 05:11:38.3	91.380	0.280	-0.840	0.820
2020/01/31 05:11:38.4	91.380	0.280	-0.800	0.810
2020/01/31 05:11:38.5	91.380	0.270	-0.740	0.810
2020/01/31 05:11:38.6	91.380	0.250	-0.690	0.810
2020/01/31 05:11:38.7	91.370	0.230	-0.620	0.810
2020/01/31 05:11:38.8	91.370	0.210	-0.550	0.820
2020/01/31 05:11:38.9	91.360	0.180	-0.470	0.820
2020/01/31 05:11:39.0	91.350	0.150	-0.390	0.830
2020/01/31 05:11:39.1	91.340	0.120	-0.310	0.850
2020/01/31 05:11:39.2	91.320	0.080	-0.220	0.860
2020/01/31 05:11:39.3	91.310	0.040	-0.130	0.880
2020/01/31 05:11:39.4	91.300	0.000	-0.050	0.890
2020/01/31 05:11:39.5	91.280	-0.040	0.040	0.900
2020/01/31 05:11:39.6	91.260	-0.080	0.120	0.920
2020/01/31 05:11:39.7	91.240	-0.130	0.200	0.930
2020/01/31 05:11:39.8	91.230	-0.170	0.270	0.940
2020/01/31 05:11:39.9	91.210	-0.210	0.330	0.950
2020/01/31 05:11:40.0	91.190	-0.250	0.390	0.960
2020/01/31 05:11:40.1	91.170	-0.290	0.440	0.960
2020/01/31 05:11:40.2	91.150	-0.320	0.490	0.960
2020/01/31 05:11:40.3	91.140	-0.360	0.520	0.960
2020/01/31 05:11:40.4	91.120	-0.390	0.550	0.950
2020/01/31 05:11:40.5	91.100	-0.410	0.560	0.940
2020/01/31 05:11:40.6	91.090	-0.430	0.560	0.930
2020/01/31 05:11:40.7	91.080	-0.450	0.550	0.920
2020/01/31 05:11:40.8	91.060	-0.460	0.540	0.900
2020/01/31 05:11:40.9	91.050	-0.470	0.510	0.890
2020/01/31 05:11:41.0	91.040	-0.470	0.470	0.870
2020/01/31 05:11:41.1	91.040	-0.460	0.430	0.850
2020/01/31 05:11:41.2	91.040	-0.450	0.380	0.830
2020/01/31 05:11:41.3	91.030	-0.440	0.320	0.810
2020/01/31 05:11:41.4	91.030	-0.420	0.260	0.790
2020/01/31 05:11:41.5	91.030	-0.400	0.190	0.770
2020/01/31 05:11:41.6	91.030	-0.370	0.120	0.750
2020/01/31 05:11:41.7	91.030	-0.340	0.050	0.720
2020/01/31 05:11:41.8	91.040	-0.300	-0.030	0.700
2020/01/31 05:11:41.9	91.040	-0.260	-0.100	0.680
2020/01/31 05:11:42.0	91.050	-0.220	-0.180	0.660
2020/01/31 05:11:42.1	91.050	-0.170	-0.250	0.640
2020/01/31 05:11:42.2	91.060	-0.120	-0.330	0.610
2020/01/31 05:11:42.3	91.070	-0.070	-0.390	0.590
2020/01/31 05:11:42.4	91.080	-0.020	-0.460	0.570
2020/01/31 05:11:42.5	91.090	0.030	-0.520	0.540
2020/01/31 05:11:42.6	91.100	0.080	-0.580	0.520
2020/01/31 05:11:42.7	91.110	0.140	-0.630	0.500
2020/01/31 05:11:42.8	91.120	0.190	-0.680	0.470
2020/01/31 05:11:42.9	91.130	0.240	-0.720	0.450
2020/01/31 05:11:43.0	91.140	0.290	-0.750	0.430
2020/01/31 05:11:43.1	91.150	0.340	-0.780	0.410
2020/01/31 05:11:43.2	91.160	0.380	-0.800	0.390
2020/01/31 05:11:43.3	91.160	0.430	-0.820	0.370
2020/01/31 05:11:43.4	91.170	0.470	-0.830	0.350
2020/01/31 05:11:43.5	91.170	0.500	-0.840	0.340
2020/01/31 05:11:43.6	91.180	0.540	-0.840	0.320
2020/01/31 05:11:43.7	91.180	0.570	-0.840	0.310
2020/01/31 05:11:43.8	91.180	0.600	-0.830	0.300
2020/01/31 05:11:43.9	91.190	0.620	-0.810	0.290
2020/01/31 05:11:44.0	91.190	0.640	-0.790	0.280
2020/01/31 05:11:44.1	91.190	0.650	-0.770	0.270
2020/01/31 05:11:44.2	91.190	0.670	-0.750	0.270
2020/01/31 05:11:44.3	91.190	0.670	-0.720	0.270
2020/01/31 05:11:44.4	91.190	0.680	-0.690	0.270
2020/01/31 05:11:44.5	91.190	0.680	-0.650	0.280
2020/01/31 05:11:44.6	91.190	0.680	-0.620	0.290
2020/01/31 05:11:44.7	91.190	0.670	-0.580	0.300
2020/01/31 05:11:44.8	91.180	0.660	-0.540	0.310
2020/01/31 05:11:44.9	91.190	0.650	-0.500	0.320
2020/01/31 05:11:45.0	91.190	0.630	-0.460	0.340
2020/01/31 05:11:45.1	91.190	0.610	-0.420	0.360
2020/01/31 05:11:45.2	91.170	0.590	-0.380	0.380
2020/01/31 05:11:45.3	91.180	0.570	-0.340	0.400
2020/01/31 05:11:45.4	91.180	0.540	-0.300	0.420
2020/01/31 05:11:45.5	91.180	0.520	-0.260	0.450
2020/01/31 05:11:45.6	91.180	0.490	-0.220	0.480
2020/01/31 05:11:45.7	91.190	0.460	-0.180	0.510
2020/01/31 05:11:45.8	91.190	0.420	-0.140	0.540
2020/01/31 05:11:45.9	91.190	0.390	-0.100	0.580
2020/01/31 05:11:46.0	91.200	0.350	-0.070	0.610
2020/01/31 05:11:46.1	91.200	0.320	-0.030	0.650
2020/01/31 05:11:46.2	91.210	0.280	0.000	0.690
2020/01/31 05:11:46.3	91.210	0.240	0.040	0.720
2020/01/31 05:11:46.4	91.210	0.200	0.070	0.760
2020/01/31 05:11:46.5	91.210	0.170	0.100	0.800
2020/01/31 05:11:46.6	91.220	0.130	0.130	0.840
2020/01/31 05:11:46.7	91.220	0.090	0.150	0.880
2020/01/31 05:11:46.8	91.220	0.050	0.180	0.910
2020/01/31 05:11:46.9	91.220	0.010	0.200	0.950
2020/01/31 05:11:47.0	91.220	-0.030	0.220	0.990
2020/01/31 05:11:47.1	91.220	-0.060	0.240	1.020
2020/01/31 05:11:47.2	91.220	-0.100	0.250	1.060
2020/01/31 05:11:47.3	91.210	-0.130	0.260	1.090
2020/01/31 05:11:47.4	91.210	-0.170	0.270	1.120
2020/01/31 05:11:47.5	91.200	-0.200	0.270	1.140
2020/01/31 05:11:47.6	91.200	-0.230	0.270	1.170
2020/01/31 05:11:47.7	91.190	-0.260	0.270	1.190
2020/01/31 05:11:47.8	91.190	-0.280	0.260	1.210
2020/01/31 05:11:47.9	91.180	-0.310	0.250	1.220
2020/01/31 05:11:48.0	91.170	-0.330	0.240	1.230
2020/01/31 05:11:48.1	91.170	-0.350	0.230	1.240
2020/01/31 05:11:48.2	91.160	-0.370	0.210	1.250
2020/01/31 05:11:48.3	91.160	-0.380	0.180	1.250
2020/01/31 05:11:48.4	91.160	-0.400	0.160	1.260
2020/01/31 05:11:48.5	91.150	-0.410	0.130	1.260
2020/01/31 05:11:48.6	91.150	-0.410	0.090	1.250
2020/01/31 05:11:48.7	91.150	-0.420	0.060	1.250
2020/01/31 05:11:48.8	91.150	-0.420	0.020	1.240
2020/01/31 05:11:48.9	91.150	-0.410	-0.020	1.240
2020/01/31 05:11:49.0	91.150	-0.410	-0.070	1.230
2020/01/31 05:11:49.1	91.160	-0.400	-0.110	1.230
2020/01/31 05:11:49.2	91.160	-0.390	-0.170	1.220
2020/01/31 05:11:49.3	91.160	-0.380	-0.220	1.210
2020/01/31 05:11:49.4	91.170	-0.360	-0.270	1.210
2020/01/31 05:11:49.5	91.180	-0.340	-0.320	1.200
2020/01/31 05:11:49.6	91.180	-0.320	-0.380	1.200
2020/01/31 05:11:49.7	91.190	-0.300	-0.430	1.200
2020/01/31 05:11:49.8	91.190	-0.280	-0.480	1.200
2020/01/31 05:11:49.9	91.200	-0.260	-0.530	1.190
2020/01/31 05:11:50.0	91.210	-0.240	-0.570	1.190
2020/01/31 05:11:50.1	91.210	-0.210	-0.610	1.190
2020/01/31 05:11:50.2	91.220	-0.190	-0.650	1.190
2020/01/31 05:11:50.3	91.220	-0.170	-0.680	1.190
2020/01/31 05:11:50.4	91.220	-0.150	-0.710	1.190
2020/01/31 05:11:50.5	91.230	-0.130	-0.730	1.180
2020/01/31 05:11:50.6	91.230	-0.120	-0.740	1.180
2020/01/31 05:11:50.7	91.230	-0.100	-0.750	1.170
2020/01/31 05:11:50.8	91.230	-0.090	-0.750	1.160
2020/01/31 05:11:50.9	91.230	-0.080	-0.740	1.150
2020/01/31 05:11:51.0	91.230	-0.080	-0.730	1.140
2020/01/31 05:11:51.1	91.230	-0.070	-0.710	1.120
2020/01/31 05:11:51.2	91.230	-0.070	-0.690	1.100
2020/01/31 05:11:51.3	91.230	-0.080	-0.650	1.080
2020/01/31 05:11:51.4	91.230	-0.080	-0.620	1.060
2020/01/31 05:11:51.5	91.220	-0.090	-0.580	1.040
2020/01/31 05:11:51.6	91.220	-0.100	-0.530	1.020
2020/01/31 05:11:51.7	91.220	-0.110	-0.480	0.990
2020/01/31 05:11:51.8	91.210	-0.130	-0.430	0.970
2020/01/31 05:11:51.9	91.200	-0.140	-0.380	0.940
2020/01/31 05:11:52.0	91.200	-0.160	-0.320	0.920
2020/01/31 05:11:52.1	91.190	-0.170	-0.260	0.890
2020/01/31 05:11:52.2	91.180	-0.190	-0.200	0.870
2020/01/31 05:11:52.3	91.170	-0.210	-0.150	0.850
2020/01/31 05:11:52.4	91.150	-0.230	-0.100	0.830
2020/01/31 05:11:52.5	91.140	-0.240	-0.050	0.810
2020/01/31 05:11:52.6	91.120	-0.260	0.000	0.800
2020/01/31 05:11:52.7	91.100	-0.270	0.040	0.790
2020/01/31 05:11:52.8	91.090	-0.280	0.080	0.780
2020/01/31 05:11:52.9	91.070	-0.290	0.110	0.770
2020/01/31 05:11:53.0	91.060	-0.290	0.140	0.760
2020/01/31 05:11:53.1	91.040	-0.290	0.160	0.750
2020/01/31 05:11:53.2	91.020	-0.290	0.180	0.740
2020/01/31 05:11:53.3	91.010	-0.290	0.190	0.730
2020/01/31 05:11:53.4	91.000	-0.280	0.190	0.720
2020/01/31 05:11:53.5	90.990	-0.270	0.180	0.710
2020/01/31 05:11:53.6	90.990	-0.250	0.170	0.700
2020/01/31 05:11:53.7	90.990	-0.230	0.150	0.690
2020/01/31 05:11:53.8	90.980	-0.210	0.120	0.670
2020/01/31 05:11:53.9	90.990	-0.190	0.100	0.650
2020/01/31 05:11:54.0	90.990	-0.160	0.060	0.630
2020/01/31 05:11:54.1	91.000	-0.130	0.020	0.610
2020/01/31 05:11:54.2	91.010	-0.100	-0.020	0.580
2020/01/31 05:11:54.3	91.020	-0.070	-0.060	0.560
2020/01/31 05:11:54.4	91.030	-0.030	-0.110	0.530
2020/01/31 05:11:54.5	91.050	0.000	-0.150	0.510
2020/01/31 05:11:54.6	91.060	0.040	-0.200	0.480
2020/01/31 05:11:54.7	91.080	0.070	-0.240	0.460
2020/01/31 05:11:54.8	91.100	0.100	-0.280	0.440
2020/01/31 05:11:54.9	91.120	0.140	-0.320	0.410
2020/01/31 05:11:55.0	91.140	0.170	-0.360	0.390
2020/01/31 05:11:55.1	91.160	0.190	-0.400	0.370
2020/01/31 05:11:55.2	91.170	0.220	-0.420	0.360
2020/01/31 05:11:55.3	91.190	0.240	-0.450	0.340
2020/01/31 05:11:55.4	91.210	0.260	-0.470	0.320
2020/01/31 05:11:55.5	91.220	0.280	-0.490	0.310
2020/01/31 05:11:55.6	91.240	0.290	-0.500	0.300
2020/01/31 05:11:55.7	91.250	0.300	-0.510	0.290
2020/01/31 05:11:55.8	91.260	0.310	-0.510	0.290
2020/01/31 05:11:55.9	91.270	0.310	-0.500	0.280
2020/01/31 05:11:56.0	91.280	0.310	-0.490	0.280
2020/01/31 05:11:56.1	91.280	0.310	-0.480	0.280
2020/01/31 05:11:56.2	91.280	0.300	-0.460	0.280
2020/01/31 05:11:56.3	91.280	0.290	-0.430	0.290
2020/01/31 05:11:56.4	91.280	0.280	-0.400	0.300
2020/01/31 05:11:56.5	91.280	0.270	-0.370	0.310
2020/01/31 05:11:56.6	91.280	0.250	-0.330	0.330
2020/01/31 05:11:56.7	91.270	0.230	-0.290	0.340
2020/01/31 05:11:56.8	91.270	0.210	-0.250	0.360
2020/01/31 05:11:56.9	91.260	0.180	-0.200	0.380
2020/01/31 05:11:57.0	91.250	0.160	-0.160	0.410
2020/01/31 05:11:57.1	91.240	0.130	-0.110	0.430
2020/01/31 05:11:57.2	91.240	0.110	-0.070	0.460
2020/01/31 05:11:57.3	91.230	0.080	-0.020	0.480
2020/01/31 05:11:57.4	91.220	0.060	0.020	0.510
2020/01/31 05:11:57.5	91.220	0.030	0.050	0.540
2020/01/31 05:11:57.6	91.210	0.010	0.080	0.570
2020/01/31 05:11:57.7	91.210	-0.010	0.110	0.600
2020/01/31 05:11:57.8	91.200	-0.030	0.130	0.620
2020/01/31 05:11:57.9	91.200	-0.050	0.150	0.650
2020/01/31 05:11:58.0	91.200	-0.060	0.150	0.680
2020/01/31 05:11:58.1	91.200	-0.070	0.150	0.700
2020/01/31 05:11:58.2	91.210	-0.080	0.150	0.730
2020/01/31 05:11:58.3	91.210	-0.090	0.140	0.750
2020/01/31 05:11:58.4	91.220	-0.090	0.110	0.780
2020/01/31 05:11:58.5	91.230	-0.090	0.090	0.800
2020/01/31 05:11:58.6	91.240	-0.080	0.050	0.820
2020/01/31 05:11:58.7	91.240	-0.080	0.010	0.840
2020/01/31 05:11:58.8	91.250	-0.070	-0.040	0.860
2020/01/31 05:11:58.9	91.260	-0.050	-0.090	0.880
2020/01/31 05:11:59.0	91.270	-0.030	-0.150	0.900
2020/01/31 05:11:59.1	91.280	-0.010	-0.210	0.920
2020/01/31 05:11:59.2	91.280	0.010	-0.280	0.940
2020/01/31 05:11:59.3	91.280	0.030	-0.340	0.960
2020/01/31 05:11:59.4	91.290	0.060	-0.410	0.980
2020/01/31 05:11:59.5	91.280	0.080	-0.470	1.000
2020/01/31 05:11:59.6	91.280	0.110	-0.530	1.030
2020/01/31 05:11:59.7	91.280	0.130	-0.590	1.050
2020/01/31 05:11:59.8	91.270	0.150	-0.640	1.070
2020/01/31 05:11:59.9	91.270	0.180	-0.690	1.090
2020/01/31 05:12:00.0	91.260	0.200	-0.730	1.110
2020/01/31 05:12:00.1	91.250	0.220	-0.760	1.120
2020/01/31 05:12:00.2	91.240	0.240	-0.790	1.130
2020/01/31 05:12:00.3	91.230	0.250	-0.810	1.150
2020/01/31 05:12:00.4	91.220	0.260	-0.820	1.160
2020/01/31 05:12:00.5	91.200	0.270	-0.820	1.180
2020/01/31 05:12:00.6	91.190	0.280	-0.810	1.190
2020/01/31 05:12:00.7	91.170	0.280	-0.790	1.200
2020/01/31 05:12:00.8	91.160	0.280	-0.770	1.220
2020/01/31 05:12:00.9	91.140	0.280	-0.740	1.230
2020/01/31 05:12:01.0	91.130	0.270	-0.700	1.240
2020/01/31 05:12:01.1	91.110	0.260	-0.660	1.250
2020/01/31 05:12:01.2	91.100	0.250	-0.610	1.260
2020/01/31 05:12:01.3	91.080	0.240	-0.550	1.270
2020/01/31 05:12:01.4	91.070	0.220	-0.500	1.270
2020/01/31 05:12:01.5	91.050	0.210	-0.440	1.280
2020/01/31 05:12:01.6	91.040	0.190	-0.380	1.290
2020/01/31 05:12:01.7	91.030	0.170	-0.320	1.290
2020/01/31 05:12:01.8	91.020	0.150	-0.260	1.290
2020/01/31 05:12:01.9	91.010	0.120	-0.210	1.290
2020/01/31 05:12:02.0	91.000	0.100	-0.150	1.290
2020/01/31 05:12:02.1	91.000	0.080	-0.090	1.290
2020/01/31 05:12:02.2	91.000	0.060	-0.040	1.290
2020/01/31 05:12:02.3	91.000	0.040	0.010	1.280
2020/01/31 05:12:02.4	90.990	0.010	0.050	1.270
2020/01/31 05:12:02.5	90.990	-0.010	0.090	1.260
2020/01/31 05:12:02.6	90.990	-0.020	0.130	1.250
2020/01/31 05:12:02.7	91.000	-0.040	0.160	1.230
2020/01/31 05:12:02.8	91.000	-0.060	0.190	1.210
2020/01/31 05:12:02.9	91.010	-0.070	0.210	1.190
2020/01/31 05:12:03.0	91.010	-0.080	0.220	1.170
2020/01/31 05:12:03.1	91.020	-0.100	0.230	1.150
2020/01/31 05:12:03.2	91.030	-0.100	0.240	1.120
2020/01/31 05:12:03.3	91.040	-0.110	0.240	1.090
2020/01/31 05:12:03.4	91.050	-0.120	0.230	1.060
2020/01/31 05:12:03.5	91.060	-0.120	0.220	1.020
2020/01/31 05:12:03.6	91.080	-0.120	0.210	0.980
2020/01/31 05:12:03.7	91.090	-0.120	0.190	0.950
2020/01/31 05:12:03.8	91.110	-0.120	0.170	0.910
2020/01/31 05:12:03.9	91.120	-0.120	0.140	0.870
2020/01/31 05:12:04.0	91.140	-0.110	0.120	0.820
2020/01/31 05:12:04.1	91.160	-0.110	0.090	0.780
2020/01/31 05:12:04.2	91.180	-0.100	0.050	0.740
2020/01/31 05:12:04.3	91.190	-0.090	0.020	0.690
2020/01/31 05:12:04.4	91.210	-0.080	-0.010	0.650
2020/01/31 05:12:04.5	91.230	-0.070	-0.050	0.610
2020/01/31 05:12:04.6	91.250	-0.060	-0.090	0.570
2020/01/31 05:12:04.7	91.260	-0.050	-0.120	0.530
2020/01/31 05:12:04.8	91.280	-0.030	-0.160	0.500
2020/01/31 05:12:04.9	91.300	-0.020	-0.200	0.470
2020/01/31 05:12:05.0	91.320	-0.000	-0.230	0.430
2020/01/31 05:12:05.1	91.340	0.010	-0.270	0.410
2020/01/31 05:12:05.2	91.350	0.030	-0.300	0.380
2020/01/31 05:12:05.3	91.370	0.050	-0.330	0.350
2020/01/31 05:12:05.4	91.390	0.060	-0.360	0.330
2020/01/31 05:12:05.5	91.410	0.080	-0.390	0.310
2020/01/31 05:12:05.6	91.430	0.100	-0.420	0.290
2020/01/31 05:12:05.7	91.450	0.120	-0.450	0.280
2020/01/31 05:12:05.8	91.470	0.140	-0.470	0.270
2020/01/31 05:12:05.9	91.480	0.150	-0.490	0.260
2020/01/31 05:12:06.0	91.500	0.170	-0.510	0.250
2020/01/31 05:12:06.1	91.520	0.190	-0.520	0.240
2020/01/31 05:12:06.2	91.530	0.200	-0.540	0.240
2020/01/31 05:12:06.3	91.550	0.220	-0.540	0.240
2020/01/31 05:12:06.4	91.560	0.230	-0.540	0.250
2020/01/31 05:12:06.5	91.580	0.240	-0.540	0.260
2020/01/31 05:12:06.6	91.590	0.250	-0.540	0.270
2020/01/31 05:12:06.7	91.600	0.260	-0.530	0.290
2020/01/31 05:12:06.8	91.610	0.260	-0.510	0.310
2020/01/31 05:12:06.9	91.620	0.260	-0.490	0.340
2020/01/31 05:12:07.0	91.620	0.260	-0.470	0.370
2020/01/31 05:12:07.1	91.630	0.260	-0.450	0.400
2020/01/31 05:12:07.2	91.630	0.250	-0.420	0.430
2020/01/31 05:12:07.3	91.630	0.240	-0.380	0.470
2020/01/31 05:12:07.4	91.630	0.220	-0.350	0.500
2020/01/31 05:12:07.5	91.620	0.210	-0.320	0.540
2020/01/31 05:12:07.6	91.620	0.190	-0.280	0.580
2020/01/31 05:12:07.7	91.610	0.160	-0.240	0.620
2020/01/31 05:12:07.8	91.600	0.140	-0.200	0.670
2020/01/31 05:12:07.9	91.590	0.110	-0.160	0.710
2020/01/31 05:12:08.0	91.580	0.080	-0.120	0.750
2020/01/31 05:12:08.1	91.580	0.040	-0.090	0.780
2020/01/31 05:12:08.2	91.570	0.010	-0.050	0.820
2020/01/31 05:12:08.3	91.560	-0.030	-0.010	0.860
2020/01/31 05:12:08.4	91.550	-0.070	0.020	0.890
2020/01/31 05:12:08.5	91.540	-0.110	0.050	0.920
2020/01/31 05:12:08.6	91.530	-0.150	0.080	0.950
2020/01/31 05:12:08.7	91.510	-0.190	0.100	0.970
2020/01/31 05:12:08.8	91.500	-0.230	0.120	0.990
2020/01/31 05:12:08.9	91.490	-0.270	0.140	1.010
2020/01/31 05:12:09.0	91.480	-0.310	0.150	1.020
2020/01/31 05:12:09.1	91.470	-0.340	0.160	1.030
2020/01/31 05:12:09.2	91.460	-0.380	0.160	1.040
2020/01/31 05:12:09.3	91.460	-0.410	0.160	1.040
2020/01/31 05:12:09.4	91.450	-0.440	0.150	1.040
2020/01/31 05:12:09.5	91.450	-0.470	0.150	1.040
2020/01/31 05:12:09.6	91.440	-0.490	0.130	1.030
2020/01/31 05:12:09.7	91.440	-0.510	0.120	1.020
2020/01/31 05:12:09.8	91.440	-0.530	0.100	1.020
2020/01/31 05:12:09.9	91.440	-0.550	0.070	1.010
2020/01/31 05:12:10.0	91.430	-0.560	0.040	1.000
2020/01/31 05:12:10.1	91.430	-0.560	0.020	0.990
2020/01/31 05:12:10.2	91.440	-0.570	-0.020	0.980
2020/01/31 05:12:10.3	91.440	-0.570	-0.050	0.970
2020/01/31 05:12:10.4	91.440	-0.560	-0.090	0.960
2020/01/31 05:12:10.5	91.440	-0.560	-0.120	0.960
2020/01/31 05:12:10.6	91.450	-0.550	-0.160	0.950
2020/01/31 05:12:10.7	91.450	-0.540	-0.200	0.940
2020/01/31 05:12:10.8	91.450	-0.520	-0.240	0.940
2020/01/31 05:12:10.9	91.450	-0.500	-0.280	0.930
2020/01/31 05:12:11.0	91.460	-0.480	-0.320	0.920
2020/01/31 05:12:11.1	91.460	-0.460	-0.350	0.910
2020/01/31 05:12:11.2	91.470	-0.440	-0.390	0.900
2020/01/31 05:12:11.3	91.470	-0.410	-0.420	0.890
2020/01/31 05:12:11.4	91.480	-0.390	-0.460	0.880
2020/01/31 05:12:11.5	91.480	-0.360	-0.490	0.870
2020/01/31 05:12:11.6	91.490	-0.330	-0.520	0.860
2020/01/31 05:12:11.7	91.490	-0.300	-0.550	0.850
2020/01/31 05:12:11.8	91.500	-0.270	-0.570	0.840
2020/01/31 05:12:11.9	91.510	-0.240	-0.590	0.830
2020/01/31 05:12:12.0	91.510	-0.210	-0.610	0.820
2020/01/31 05:12:12.1	91.520	-0.180	-0.630	0.810
2020/01/31 05:12:12.2	91.520	-0.160	-0.640	0.800
2020/01/31 05:12:12.3	91.530	-0.130	-0.650	0.790
2020/01/31 05:12:12.4	91.540	-0.100	-0.650	0.780
2020/01/31 05:12:12.5	91.550	-0.080	-0.650	0.770
2020/01/31 05:12:12.6	91.560	-0.050	-0.650	0.760
2020/01/31 05:12:12.7	91.560	-0.030	-0.640	0.750
2020/01/31 05:12:12.8	91.570	-0.010	-0.630	0.750
2020/01/31 05:12:12.9	91.580	0.010	-0.610	0.740
2020/01/31 05:12:13.0	91.590	0.020	-0.590	0.730
2020/01/31 05:12:13.1	91.600	0.040	-0.560	0.730
2020/01/31 05:12:13.2	91.610	0.050	-0.530	0.730
2020/01/31 05:12:13.3	91.610	0.060	-0.490	0.720
2020/01/31 05:12:13.4	91.620	0.070	-0.450	0.720
2020/01/31 05:12:13.5	91.620	0.070	-0.400	0.720
2020/01/31 05:12:13.6	91.630	0.080	-0.360	0.710
2020/01/31 05:12:13.7	91.630	0.080	-0.310	0.710
2020/01/31 05:12:13.8	91.630	0.080	-0.260	0.700
2020/01/31 05:12:13.9	91.630	0.080	-0.200	0.700
2020/01/31 05:12:14.0	91.630	0.080	-0.150	0.690
2020/01/31 05:12:14.1	91.620	0.070	-0.100	0.690
2020/01/31 05:12:14.2	91.620	0.070	-0.040	0.680
2020/01/31 05:12:14.3	91.610	0.060	0.020	0.680
2020/01/31 05:12:14.4	91.600	0.050	0.060	0.670
2020/01/31 05:12:14.5	91.590	0.050	0.110	0.660
2020/01/31 05:12:14.6	91.580	0.040	0.150	0.650
2020/01/31 05:12:14.7	91.570	0.040	0.190	0.640
2020/01/31 05:12:14.8	91.550	0.030	0.220	0.630
2020/01/31 05:12:14.9	91.540	0.030	0.250	0.620
2020/01/31 05:12:15.0	91.520	0.020	0.270	0.610
2020/01/31 05:12:15.1	91.500	0.020	0.280	0.600
2020/01/31 05:12:15.2	91.490	0.020	0.290	0.590
2020/01/31 05:12:15.3	91.470	0.020	0.290	0.570
2020/01/31 05:12:15.4	91.450	0.030	0.280	0.550
2020/01/31 05:12:15.5	91.440	0.030	0.260	0.540
2020/01/31 05:12:15.6	91.420	0.040	0.240	0.510
2020/01/31 05:12:15.7	91.410	0.050	0.210	0.490
2020/01/31 05:12:15.8	91.390	0.070	0.170	0.470
2020/01/31 05:12:15.9	91.380	0.090	0.120	0.440
2020/01/31 05:12:16.0	91.380	0.110	0.060	0.420
2020/01/31 05:12:16.1	91.370	0.130	0.000	0.390
2020/01/31 05:12:16.2	91.370	0.150	-0.060	0.360
2020/01/31 05:12:16.3	91.380	0.180	-0.130	0.330
2020/01/31 05:12:16.4	91.380	0.210	-0.210	0.310
2020/01/31 05:12:16.5	91.390	0.240	-0.290	0.280
2020/01/31 05:12:16.6	91.390	0.270	-0.370	0.260
2020/01/31 05:12:16.7	91.410	0.310	-0.450	0.240
2020/01/31 05:12:16.8	91.420	0.340	-0.530	0.220
2020/01/31 05:12:16.9	91.430	0.380	-0.600	0.210
2020/01/31 05:12:17.0	91.440	0.410	-0.680	0.200
2020/01/31 05:12:17.1	91.460	0.440	-0.750	0.190
2020/01/31 05:12:17.2	91.460	0.480	-0.810	0.180
2020/01/31 05:12:17.3	91.480	0.510	-0.870	0.180
2020/01/31 05:12:17.4	91.490	0.530	-0.920	0.180
2020/01/31 05:12:17.5	91.500	0.560	-0.960	0.180
2020/01/31 05:12:17.6	91.510	0.580	-1.000	0.180
2020/01/31 05:12:17.7	91.520	0.600	-1.020	0.180
2020/01/31 05:12:17.8	91.540	0.610	-1.040	0.190
2020/01/31 05:12:17.9	91.550	0.630	-1.050	0.190
2020/01/31 05:12:18.0	91.560	0.630	-1.040	0.200
2020/01/31 05:12:18.1	91.570	0.640	-1.030	0.200
2020/01/31 05:12:18.2	91.570	0.630	-1.010	0.210
2020/01/31 05:12:18.3	91.580	0.630	-0.980	0.220
2020/01/31 05:12:18.4	91.590	0.620	-0.940	0.230
2020/01/31 05:12:18.5	91.590	0.600	-0.900	0.240
2020/01/31 05:12:18.6	91.600	0.580	-0.840	0.250
2020/01/31 05:12:18.7	91.610	0.560	-0.770	0.270
2020/01/31 05:12:18.8	91.620	0.530	-0.700	0.280
2020/01/31 05:12:18.9	91.620	0.500	-0.620	0.300
2020/01/31 05:12:19.0	91.630	0.460	-0.540	0.320
2020/01/31 05:12:19.1	91.640	0.420	-0.450	0.340
2020/01/31 05:12:19.2	91.650	0.380	-0.350	0.370
2020/01/31 05:12:19.3	91.650	0.340	-0.250	0.400
2020/01/31 05:12:19.4	91.660	0.290	-0.150	0.430
2020/01/31 05:12:19.5	91.660	0.240	-0.040	0.460
2020/01/31 05:12:19.6	91.670	0.190	0.060	0.500
2020/01/31 05:12:19.7	91.670	0.140	0.170	0.540
2020/01/31 05:12:19.8	91.670	0.090	0.270	0.580
2020/01/31 05:12:19.9	91.670	0.030	0.370	0.630
2020/01/31 05:12:20.0	91.670	-0.020	0.470	0.670
2020/01/31 05:12:20.1	91.670	-0.070	0.560	0.720
2020/01/31 05:12:20.2	91.670	-0.120	0.650	0.770
2020/01/31 05:12:20.3	91.670	-0.170	0.730	0.820
2020/01/31 05:12:20.4	91.660	-0.220	0.800	0.860
2020/01/31 05:12:20.5	91.660	-0.260	0.870	0.910
2020/01/31 05:12:20.6	91.660	-0.300	0.920	0.950
2020/01/31 05:12:20.7	91.650	-0.340	0.960	1.000
2020/01/31 05:12:20.8	91.650	-0.380	0.990	1.030
2020/01/31 05:12:20.9	91.640	-0.410	1.000	1.070
2020/01/31 05:12:21.0	91.630	-0.430	1.010	1.100
2020/01/31 05:12:21.1	91.630	-0.450	1.000	1.130
2020/01/31 05:12:21.2	91.620	-0.470	0.970	1.160
2020/01/31 05:12:21.3	91.620	-0.480	0.930	1.170
2020/01/31 05:12:21.4	91.610	-0.490	0.880	1.190
2020/01/31 05:12:21.5	91.600	-0.490	0.810	1.200
2020/01/31 05:12:21.6	91.600	-0.480	0.730	1.210
2020/01/31 05:12:21.7	91.590	-0.470	0.640	1.210
2020/01/31 05:12:21.8	91.590	-0.450	0.530	1.200
2020/01/31 05:12:21.9	91.580	-0.430	0.420	1.200
2020/01/31 05:12:22.0	91.580	-0.400	0.290	1.190
2020/01/31 05:12:22.1	91.570	-0.370	0.160	1.170
2020/01/31 05:12:22.2	91.570	-0.340	0.020	1.160
2020/01/31 05:12:22.3	91.570	-0.290	-0.120	1.140
2020/01/31 05:12:22.4	91.560	-0.250	-0.270	1.130
2020/01/31 05:12:22.5	91.560	-0.210	-0.410	1.110
2020/01/31 05:12:22.6	91.550	-0.160	-0.560	1.090
2020/01/31 05:12:22.7	91.550	-0.110	-0.700	1.070
2020/01/31 05:12:22.8	91.550	-0.060	-0.830	1.060
2020/01/31 05:12:22.9	91.550	-0.010	-0.960	1.040
2020/01/31 05:12:23.0	91.550	0.040	-1.080	1.020
2020/01/31 05:12:23.1	91.550	0.090	-1.180	1.000
2020/01/31 05:12:23.2	91.560	0.130	-1.280	0.980
2020/01/31 05:12:23.3	91.560	0.180	-1.360	0.970
2020/01/31 05:12:23.4	91.570	0.220	-1.430	0.960
2020/01/31 05:12:23.5	91.570	0.250	-1.480	0.950
2020/01/31 05:12:23.6	91.580	0.280	-1.520	0.940
2020/01/31 05:12:23.7	91.590	0.310	-1.540	0.930
2020/01/31 05:12:23.8	91.600	0.330	-1.550	0.920
2020/01/31 05:12:23.9	91.610	0.350	-1.540	0.910
2020/01/31 05:12:24.0	91.630	0.360	-1.520	0.900
2020/01/31 05:12:24.1	91.640	0.370	-1.490	0.900
2020/01/31 05:12:24.2	91.650	0.370	-1.430	0.890
2020/01/31 05:12:24.3	91.670	0.360	-1.370	0.880
2020/01/31 05:12:24.4	91.690	0.350	-1.300	0.880
2020/01/31 05:12:24.5	91.700	0.330	-1.210	0.870
2020/01/31 05:12:24.6	91.720	0.310	-1.110	0.860
2020/01/31 05:12:24.7	91.730	0.280	-1.010	0.860
2020/01/31 05:12:24.8	91.750	0.250	-0.890	0.860
2020/01/31 05:12:24.9	91.760	0.220	-0.770	0.850
2020/01/31 05:12:25.0	91.780	0.180	-0.650	0.850
2020/01/31 05:12:25.1	91.790	0.130	-0.520	0.850
2020/01/31 05:12:25.2	91.800	0.090	-0.380	0.840
2020/01/31 05:12:25.3	91.810	0.040	-0.250	0.840
2020/01/31 05:12:25.4	91.820	-0.010	-0.120	0.840
2020/01/31 05:12:25.5	91.830	-0.070	0.010	0.840
2020/01/31 05:12:25.6	91.840	-0.120	0.140	0.850
2020/01/31 05:12:25.7	91.840	-0.180	0.270	0.850
2020/01/31 05:12:25.8	91.840	-0.230	0.390	0.850
2020/01/31 05:12:25.9	91.850	-0.290	0.500	0.850
2020/01/31 05:12:26.0	91.850	-0.340	0.610	0.860
2020/01/31 05:12:26.1	91.840	-0.390	0.710	0.860
2020/01/31 05:12:26.2	91.850	-0.440	0.800	0.860
2020/01/31 05:12:26.3	91.840	-0.490	0.880	0.870
2020/01/31 05:12:26.4	91.830	-0.540	0.950	0.870
2020/01/31 05:12:26.5	91.820	-0.580	1.010	0.870
2020/01/31 05:12:26.6	91.810	-0.620	1.060	0.880
2020/01/31 05:12:26.7	91.800	-0.650	1.090	0.880
2020/01/31 05:12:26.8	91.790	-0.680	1.110	0.880
2020/01/31 05:12:26.9	91.780	-0.710	1.120	0.880
2020/01/31 05:12:27.0	91.770	-0.730	1.110	0.880
2020/01/31 05:12:27.1	91.750	-0.740	1.090	0.880
2020/01/31 05:12:27.2	91.740	-0.750	1.050	0.880
2020/01/31 05:12:27.3	91.730	-0.750	1.000	0.870
2020/01/31 05:12:27.4	91.720	-0.750	0.940	0.870
2020/01/31 05:12:27.5	91.710	-0.740	0.860	0.860
2020/01/31 05:12:27.6	91.700	-0.730	0.770	0.860
2020/01/31 05:12:27.7	91.700	-0.710	0.670	0.850
2020/01/31 05:12:27.8	91.690	-0.680	0.570	0.840
2020/01/31 05:12:27.9	91.690	-0.650	0.450	0.830
2020/01/31 05:12:28.0	91.690	-0.620	0.330	0.820
2020/01/31 05:12:28.1	91.690	-0.580	0.190	0.800
2020/01/31 05:12:28.2	91.700	-0.530	0.060	0.790
2020/01/31 05:12:28.3	91.710	-0.480	-0.080	0.770
2020/01/31 05:12:28.4	91.720	-0.430	-0.220	0.750
2020/01/31 05:12:28.5	91.730	-0.370	-0.370	0.730
2020/01/31 05:12:28.6	91.750	-0.310	-0.510	0.700
2020/01/31 05:12:28.7	91.770	-0.250	-0.640	0.680
2020/01/31 05:12:28.8	91.790	-0.190	-0.780	0.650
2020/01/31 05:12:28.9	91.820	-0.130	-0.910	0.620
2020/01/31 05:12:29.0	91.850	-0.070	-1.020	0.590
2020/01/31 05:12:29.1	91.880	-0.010	-1.130	0.560
2020/01/31 05:12:29.2	91.900	0.050	-1.230	0.530
2020/01/31 05:12:29.3	91.940	0.110	-1.320	0.500
2020/01/31 05:12:29.4	91.970	0.170	-1.390	0.470
2020/01/31 05:12:29.5	92.000	0.220	-1.450	0.450
2020/01/31 05:12:29.6	92.040	0.270	-1.500	0.420
2020/01/31 05:12:29.7	92.070	0.310	-1.530	0.400
2020/01/31 05:12:29.8	92.100	0.350	-1.540	0.390
2020/01/31 05:12:29.9	92.130	0.380	-1.540	0.370
2020/01/31 05:12:30.0	92.160	0.410	-1.520	0.360
2020/01/31 05:12:30.1	92.180	0.430	-1.490	0.350
2020/01/31 05:12:30.2	92.210	0.440	-1.440	0.350
2020/01/31 05:12:30.3	92.230	0.450	-1.380	0.340
2020/01/31 05:12:30.4	92.240	0.450	-1.310	0.350
2020/01/31 05:12:30.5	92.260	0.450	-1.220	0.350
2020/01/31 05:12:30.6	92.270	0.440	-1.120	0.360
2020/01/31 05:12:30.7	92.270	0.420	-1.020	0.380
2020/01/31 05:12:30.8	92.270	0.400	-0.900	0.390
2020/01/31 05:12:30.9	92.270	0.380	-0.780	0.410
2020/01/31 05:12:31.0	92.260	0.340	-0.660	0.440
2020/01/31 05:12:31.1	92.250	0.310	-0.530	0.470
2020/01/31 05:12:31.2	92.240	0.270	-0.400	0.500
2020/01/31 05:12:31.3	92.220	0.230	-0.270	0.530
2020/01/31 05:12:31.4	92.200	0.190	-0.140	0.570
2020/01/31 05:12:31.5	92.180	0.140	-0.010	0.600
2020/01/31 05:12:31.6	92.160	0.100	0.110	0.640
2020/01/31 05:12:31.7	92.130	0.050	0.230	0.680
2020/01/31 05:12:31.8	92.100	0.000	0.340	0.710
2020/01/31 05:12:31.9	92.080	-0.040	0.440	0.750
2020/01/31 05:12:32.0	92.050	-0.080	0.540	0.780
2020/01/31 05:12:32.1	92.020	-0.120	0.620	0.810
2020/01/31 05:12:32.2	91.990	-0.160	0.690	0.830
2020/01/31 05:12:32.3	91.970	-0.190	0.760	0.860
2020/01/31 05:12:32.4	91.940	-0.220	0.810	0.870
2020/01/31 05:12:32.5	91.920	-0.250	0.840	0.890
2020/01/31 05:12:32.6	91.900	-0.270	0.870	0.900
2020/01/31 05:12:32.7	91.880	-0.290	0.880	0.900
2020/01/31 05:12:32.8	91.860	-0.300	0.880	0.900
2020/01/31 05:12:32.9	91.850	-0.300	0.870	0.890
2020/01/31 05:12:33.0	91.840	-0.300	0.840	0.880
2020/01/31 05:12:33.1	91.830	-0.290	0.800	0.860
2020/01/31 05:12:33.2	91.840	-0.280	0.760	0.840
2020/01/31 05:12:33.3	91.830	-0.260	0.690	0.810
2020/01/31 05:12:33.4	91.830	-0.230	0.620	0.780
2020/01/31 05:12:33.5	91.830	-0.200	0.540	0.750
2020/01/31 05:12:33.6	91.840	-0.170	0.450	0.720
2020/01/31 05:12:33.7	91.840	-0.130	0.350	0.680
2020/01/31 05:12:33.8	91.850	-0.080	0.240	0.640
2020/01/31 05:12:33.9	91.860	-0.030	0.130	0.600
2020/01/31 05:12:34.0	91.860	0.020	0.020	0.560
2020/01/31 05:12:34.1	91.880	0.070	-0.100	0.520
2020/01/31 05:12:34.2	91.890	0.130	-0.220	0.480
2020/01/31 05:12:34.3	91.910	0.190	-0.330	0.430
2020/01/31 05:12:34.4	91.920	0.240	-0.450	0.390
2020/01/31 05:12:34.5	91.940	0.300	-0.550	0.340
2020/01/31 05:12:34.6	91.960	0.360	-0.650	0.300
2020/01/31 05:12:34.7	91.980	0.410	-0.750	0.250
2020/01/31 05:12:34.8	92.010	0.470	-0.830	0.210
2020/01/31 05:12:34.9	92.030	0.510	-0.910	0.170
2020/01/31 05:12:35.0	92.050	0.560	-0.970	0.140
2020/01/31 05:12:35.1	92.070	0.600	-1.020	0.110
2020/01/31 05:12:35.2	92.090	0.640	-1.060	0.080
2020/01/31 05:12:35.3	92.110	0.670	-1.100	0.050
2020/01/31 05:12:35.4	92.130	0.700	-1.110	0.030
2020/01/31 05:12:35.5	92.140	0.720	-1.120	0.010
2020/01/31 05:12:35.6	92.160	0.740	-1.120	0.000
2020/01/31 05:12:35.7	92.170	0.750	-1.100	-0.010
2020/01/31 05:12:35.8	92.190	0.760	-1.080	-0.010
2020/01/31 05:12:35.9	92.200	0.760	-1.040	-0.010
2020/01/31 05:12:36.0	92.210	0.760	-0.990	0.000
2020/01/31 05:12:36.1	92.220	0.750	-0.940	0.020
2020/01/31 05:12:36.2	92.220	0.730	-0.880	0.030
2020/01/31 05:12:36.3	92.230	0.710	-0.810	0.060
2020/01/31 05:12:36.4	92.230	0.690	-0.730	0.080
2020/01/31 05:12:36.5	92.230	0.660	-0.650	0.110
2020/01/31 05:12:36.6	92.230	0.630	-0.570	0.150
2020/01/31 05:12:36.7	92.230	0.590	-0.480	0.180
2020/01/31 05:12:36.8	92.230	0.550	-0.390	0.220
2020/01/31 05:12:36.9	92.230	0.510	-0.310	0.260
2020/01/31 05:12:37.0	92.230	0.470	-0.220	0.300
2020/01/31 05:12:37.1	92.230	0.430	-0.140	0.330
2020/01/31 05:12:37.2	92.230	0.380	-0.060	0.370
2020/01/31 05:12:37.3	92.240	0.340	0.010	0.410
2020/01/31 05:12:37.4	92.240	0.290	0.080	0.450
2020/01/31 05:12:37.5	92.240	0.250	0.140	0.480
2020/01/31 05:12:37.6	92.240	0.200	0.190	0.510
2020/01/31 05:12:37.7	92.240	0.160	0.240	0.550
2020/01/31 05:12:37.8	92.250	0.120	0.280	0.580
2020/01/31 05:12:37.9	92.250	0.080	0.310	0.600
2020/01/31 05:12:38.0	92.260	0.040	0.330	0.630
2020/01/31 05:12:38.1	92.260	0.000	0.340	0.650
2020/01/31 05:12:38.2	92.260	-0.030	0.350	0.670
2020/01/31 05:12:38.3	92.270	-0.060	0.350	0.700
2020/01/31 05:12:38.4	92.280	-0.090	0.340	0.720
2020/01/31 05:12:38.5	92.280	-0.110	0.320	0.730
2020/01/31 05:12:38.6	92.290	-0.130	0.300	0.750
2020/01/31 05:12:38.7	92.300	-0.150	0.270	0.770
2020/01/31 05:12:38.8	92.310	-0.160	0.230	0.780
2020/01/31 05:12:38.9	92.310	-0.170	0.190	0.800
2020/01/31 05:12:39.0	92.320	-0.180	0.150	0.810
2020/01/31 05:12:39.1	92.330	-0.190	0.100	0.830
2020/01/31 05:12:39.2	92.340	-0.190	0.040	0.840
2020/01/31 05:12:39.3	92.350	-0.190	-0.010	0.860
2020/01/31 05:12:39.4	92.360	-0.190	-0.060	0.870
2020/01/31 05:12:39.5	92.360	-0.180	-0.110	0.890
2020/01/31 05:12:39.6	92.370	-0.180	-0.160	0.900
2020/01/31 05:12:39.7	92.380	-0.180	-0.210	0.910
2020/01/31 05:12:39.8	92.380	-0.170	-0.250	0.930
2020/01/31 05:12:39.9	92.390	-0.170	-0.290	0.940
2020/01/31 05:12:40.0	92.390	-0.160	-0.330	0.960
2020/01/31 05:12:40.1	92.400	-0.160	-0.360	0.970
2020/01/31 05:12:40.2	92.400	-0.150	-0.390	0.990
2020/01/31 05:12:40.3	92.400	-0.150	-0.410	1.000
2020/01/31 05:12:40.4	92.400	-0.150	-0.420	1.010
2020/01/31 05:12:40.5	92.400	-0.160	-0.430	1.030
2020/01/31 05:12:40.6	92.400	-0.160	-0.440	1.040
2020/01/31 05:12:40.7	92.400	-0.170	-0.440	1.050
2020/01/31 05:12:40.8	92.400	-0.180	-0.430	1.060
2020/01/31 05:12:40.9	92.400	-0.190	-0.410	1.070
2020/01/31 05:12:41.0	92.400	-0.210	-0.400	1.070
2020/01/31 05:12:41.1	92.400	-0.230	-0.370	1.080
2020/01/31 05:12:41.2	92.410	-0.250	-0.350	1.080
2020/01/31 05:12:41.3	92.410	-0.270	-0.310	1.080
2020/01/31 05:12:41.4	92.410	-0.300	-0.280	1.090
2020/01/31 05:12:41.5	92.410	-0.330	-0.240	1.090
2020/01/31 05:12:41.6	92.420	-0.360	-0.200	1.090
2020/01/31 05:12:41.7	92.420	-0.400	-0.160	1.090
2020/01/31 05:12:41.8	92.420	-0.430	-0.120	1.080
2020/01/31 05:12:41.9	92.430	-0.470	-0.080	1.080
2020/01/31 05:12:42.0	92.430	-0.510	-0.040	1.080
2020/01/31 05:12:42.1	92.430	-0.540	0.010	1.070
2020/01/31 05:12:42.2	92.450	-0.580	0.050	1.070
2020/01/31 05:12:42.3	92.450	-0.620	0.090	1.060
2020/01/31 05:12:42.4	92.450	-0.650	0.120	1.050
2020/01/31 05:12:42.5	92.450	-0.690	0.150	1.040
2020/01/31 05:12:42.6	92.460	-0.720	0.180	1.030
2020/01/31 05:12:42.7	92.460	-0.750	0.210	1.010
2020/01/31 05:12:42.8	92.460	-0.770	0.230	1.000
2020/01/31 05:12:42.9	92.460	-0.800	0.250	0.980
2020/01/31 05:12:43.0	92.460	-0.820	0.260	0.970
2020/01/31 05:12:43.1	92.460	-0.830	0.270	0.950
2020/01/31 05:12:43.2	92.470	-0.850	0.270	0.930
2020/01/31 05:12:43.3	92.470	-0.850	0.260	0.910
2020/01/31 05:12:43.4	92.470	-0.850	0.260	0.880
2020/01/31 05:12:43.5	92.470	-0.850	0.240	0.860
2020/01/31 05:12:43.6	92.470	-0.840	0.230	0.840
2020/01/31 05:12:43.7	92.480	-0.830	0.200	0.810
2020/01/31 05:12:43.8	92.480	-0.810	0.170	0.790
2020/01/31 05:12:43.9	92.490	-0.790	0.140	0.760
2020/01/31 05:12:44.0	92.500	-0.760	0.100	0.740
2020/01/31 05:12:44.1	92.500	-0.720	0.050	0.710
2020/01/31 05:12:44.2	92.510	-0.680	-0.010	0.680
2020/01/31 05:12:44.3	92.520	-0.630	-0.070	0.650
2020/01/31 05:12:44.4	92.530	-0.580	-0.130	0.630
2020/01/31 05:12:44.5	92.540	-0.520	-0.210	0.600
2020/01/31 05:12:44.6	92.550	-0.460	-0.280	0.580
2020/01/31 05:12:44.7	92.560	-0.390	-0.360	0.560
2020/01/31 05:12:44.8	92.570	-0.320	-0.440	0.540
2020/01/31 05:12:44.9	92.580	-0.240	-0.530	0.520
2020/01/31 05:12:45.0	92.580	-0.160	-0.610	0.500
2020/01/31 05:12:45.1	92.590	-0.090	-0.700	0.480
2020/01/31 05:12:45.2	92.590	-0.010	-0.780	0.460
2020/01/31 05:12:45.3	92.590	0.080	-0.860	0.450
2020/01/31 05:12:45.4	92.600	0.160	-0.940	0.440
2020/01/31 05:12:45.5	92.600	0.240	-1.010	0.430
2020/01/31 05:12:45.6	92.590	0.310	-1.080	0.420
2020/01/31 05:12:45.7	92.590	0.390	-1.140	0.410
2020/01/31 05:12:45.8	92.580	0.460	-1.190	0.400
2020/01/31 05:12:45.9	92.570	0.520	-1.230	0.390
2020/01/31 05:12:46.0	92.560	0.580	-1.260	0.380
2020/01/31 05:12:46.1	92.550	0.640	-1.270	0.380
2020/01/31 05:12:46.2	92.530	0.690	-1.280	0.360
2020/01/31 05:12:46.3	92.520	0.730	-1.280	0.350
2020/01/31 05:12:46.4	92.510	0.760	-1.250	0.340
2020/01/31 05:12:46.5	92.490	0.790	-1.220	0.330
2020/01/31 05:12:46.6	92.480	0.810	-1.170	0.320
2020/01/31 05:12:46.7	92.460	0.820	-1.110	0.310
2020/01/31 05:12:46.8	92.450	0.830	-1.040	0.290
2020/01/31 05:12:46.9	92.430	0.830	-0.960	0.280
2020/01/31 05:12:47.0	92.420	0.820	-0.870	0.270
2020/01/31 05:12:47.1	92.400	0.800	-0.770	0.260
2020/01/31 05:12:47.2	92.390	0.780	-0.650	0.260
2020/01/31 05:12:47.3	92.380	0.750	-0.530	0.250
2020/01/31 05:12:47.4	92.360	0.720	-0.410	0.250
2020/01/31 05:12:47.5	92.350	0.680	-0.280	0.250
2020/01/31 05:12:47.6	92.340	0.630	-0.150	0.250
2020/01/31 05:12:47.7	92.340	0.590	-0.020	0.250
2020/01/31 05:12:47.8	92.330	0.540	0.120	0.250
2020/01/31 05:12:47.9	92.320	0.480	0.240	0.260
2020/01/31 05:12:48.0	92.320	0.430	0.370	0.260
2020/01/31 05:12:48.1	92.320	0.370	0.490	0.270
2020/01/31 05:12:48.2	92.320	0.320	0.600	0.280
2020/01/31 05:12:48.3	92.320	0.260	0.700	0.290
2020/01/31 05:12:48.4	92.330	0.210	0.800	0.300
2020/01/31 05:12:48.5	92.330	0.160	0.880	0.320
2020/01/31 05:12:48.6	92.340	0.110	0.950	0.330
2020/01/31 05:12:48.7	92.350	0.070	1.010	0.340
2020/01/31 05:12:48.8	92.360	0.030	1.050	0.360
2020/01/31 05:12:48.9	92.380	-0.010	1.070	0.370
2020/01/31 05:12:49.0	92.390	-0.040	1.080	0.380
2020/01/31 05:12:49.1	92.410	-0.060	1.070	0.390
2020/01/31 05:12:49.2	92.430	-0.080	1.050	0.400
2020/01/31 05:12:49.3	92.440	-0.090	1.010	0.410
2020/01/31 05:12:49.4	92.460	-0.090	0.960	0.430
2020/01/31 05:12:49.5	92.470	-0.090	0.880	0.440
2020/01/31 05:12:49.6	92.490	-0.080	0.800	0.440
2020/01/31 05:12:49.7	92.500	-0.060	0.700	0.450
2020/01/31 05:12:49.8	92.520	-0.040	0.600	0.460
2020/01/31 05:12:49.9	92.530	-0.020	0.480	0.470
2020/01/31 05:12:50.0	92.540	0.020	0.360	0.480
2020/01/31 05:12:50.1	92.550	0.050	0.230	0.490
2020/01/31 05:12:50.2	92.570	0.090	0.090	0.490
2020/01/31 05:12:50.3	92.570	0.140	-0.050	0.500
2020/01/31 05:12:50.4	92.580	0.180	-0.190	0.510
2020/01/31 05:12:50.5	92.580	0.230	-0.320	0.520
2020/01/31 05:12:50.6	92.580	0.280	-0.460	0.540
2020/01/31 05:12:50.7	92.580	0.330	-0.590	0.550
2020/01/31 05:12:50.8	92.580	0.380	-0.710	0.560
2020/01/31 05:12:50.9	92.580	0.430	-0.830	0.580
2020/01/31 05:12:51.0	92.570	0.480	-0.930	0.590
2020/01/31 05:12:51.1	92.570	0.520	-1.030	0.610
2020/01/31 05:12:51.2	92.550	0.560	-1.120	0.630
2020/01/31 05:12:51.3	92.540	0.600	-1.190	0.650
2020/01/31 05:12:51.4	92.530	0.630	-1.250	0.680
2020/01/31 05:12:51.5	92.520	0.660	-1.300	0.710
2020/01/31 05:12:51.6	92.500	0.680	-1.340	0.740
2020/01/31 05:12:51.7	92.490	0.690	-1.360	0.780
2020/01/31 05:12:51.8	92.470	0.700	-1.370	0.820
2020/01/31 05:12:51.9	92.460	0.710	-1.360	0.860
2020/01/31 05:12:52.0	92.450	0.700	-1.340	0.900
2020/01/31 05:12:52.1	92.430	0.690	-1.310	0.940
2020/01/31 05:12:52.2	92.420	0.680	-1.270	0.990
2020/01/31 05:12:52.3	92.410	0.650	-1.210	1.040
2020/01/31 05:12:52.4	92.400	0.620	-1.150	1.090
2020/01/31 05:12:52.5	92.390	0.590	-1.070	1.140
2020/01/31 05:12:52.6	92.380	0.540	-0.990	1.180
2020/01/31 05:12:52.7	92.380	0.500	-0.900	1.230
2020/01/31 05:12:52.8	92.380	0.440	-0.800	1.280
2020/01/31 05:12:52.9	92.380	0.390	-0.690	1.330
2020/01/31 05:12:53.0	92.380	0.330	-0.590	1.370
2020/01/31 05:12:53.1	92.380	0.260	-0.480	1.410
2020/01/31 05:12:53.2	92.390	0.200	-0.360	1.450
2020/01/31 05:12:53.3	92.400	0.130	-0.250	1.490
2020/01/31 05:12:53.4	92.410	0.060	-0.140	1.520
2020/01/31 05:12:53.5	92.420	-0.020	-0.020	1.550
2020/01/31 05:12:53.6	92.440	-0.090	0.080	1.570
2020/01/31 05:12:53.7	92.460	-0.160	0.190	1.590
2020/01/31 05:12:53.8	92.470	-0.230	0.290	1.610
2020/01/31 05:12:53.9	92.490	-0.300	0.380	1.620
2020/01/31 05:12:54.0	92.510	-0.360	0.470	1.620
2020/01/31 05:12:54.1	92.530	-0.430	0.540	1.620
2020/01/31 05:12:54.2	92.550	-0.490	0.620	1.620
2020/01/31 05:12:54.3	92.570	-0.540	0.680	1.610
2020/01/31 05:12:54.4	92.590	-0.600	0.740	1.600
2020/01/31 05:12:54.5	92.600	-0.640	0.780	1.580
2020/01/31 05:12:54.6	92.620	-0.690	0.820	1.560
2020/01/31 05:12:54.7	92.630	-0.730	0.840	1.540
2020/01/31 05:12:54.8	92.640	-0.760	0.860	1.520
2020/01/31 05:12:54.9	92.650	-0.790	0.860	1.490
2020/01/31 05:12:55.0	92.660	-0.810	0.860	1.460
2020/01/31 05:12:55.1	92.670	-0.830	0.850	1.430
2020/01/31 05:12:55.2	92.680	-0.840	0.830	1.400
2020/01/31 05:12:55.3	92.680	-0.840	0.790	1.360
2020/01/31 05:12:55.4	92.690	-0.840	0.750	1.330
2020/01/31 05:12:55.5	92.700	-0.840	0.710	1.290
2020/01/31 05:12:55.6	92.700	-0.830	0.650	1.260
2020/01/31 05:12:55.7	92.710	-0.810	0.590	1.230
2020/01/31 05:12:55.8	92.710	-0.790	0.510	1.200
2020/01/31 05:12:55.9	92.720	-0.760	0.440	1.170
2020/01/31 05:12:56.0	92.720	-0.730	0.360	1.140
2020/01/31 05:12:56.1	92.720	-0.700	0.270	1.120
2020/01/31 05:12:56.2	92.720	-0.660	0.180	1.100
2020/01/31 05:12:56.3	92.720	-0.620	0.090	1.090
2020/01/31 05:12:56.4	92.720	-0.580	-0.010	1.070
2020/01/31 05:12:56.5	92.720	-0.530	-0.110	1.060
2020/01/31 05:12:56.6	92.730	-0.480	-0.210	1.060
2020/01/31 05:12:56.7	92.720	-0.430	-0.310	1.050
2020/01/31 05:12:56.8	92.730	-0.370	-0.410	1.040
2020/01/31 05:12:56.9	92.730	-0.320	-0.510	1.030
2020/01/31 05:12:57.0	92.730	-0.260	-0.600	1.020
2020/01/31 05:12:57.1	92.730	-0.200	-0.690	1.010
2020/01/31 05:12:57.2	92.730	-0.150	-0.780	1.000
2020/01/31 05:12:57.3	92.730	-0.090	-0.870	0.990
2020/01/31 05:12:57.4	92.730	-0.030	-0.950	0.970
2020/01/31 05:12:57.5	92.730	0.020	-1.020	0.950
2020/01/31 05:12:57.6	92.730	0.070	-1.080	0.930
2020/01/31 05:12:57.7	92.740	0.130	-1.140	0.900
2020/01/31 05:12:57.8	92.740	0.180	-1.190	0.880
2020/01/31 05:12:57.9	92.740	0.220	-1.230	0.850
2020/01/31 05:12:58.0	92.740	0.270	-1.260	0.830
2020/01/31 05:12:58.1	92.740	0.310	-1.280	0.800
2020/01/31 05:12:58.2	92.740	0.350	-1.290	0.770
2020/01/31 05:12:58.3	92.730	0.380	-1.290	0.750
2020/01/31 05:12:58.4	92.730	0.410	-1.280	0.720
2020/01/31 05:12:58.5	92.720	0.440	-1.260	0.690
2020/01/31 05:12:58.6	92.710	0.460	-1.230	0.670
2020/01/31 05:12:58.7	92.700	0.480	-1.190	0.640
2020/01/31 05:12:58.8	92.690	0.490	-1.140	0.620
2020/01/31 05:12:58.9	92.680	0.500	-1.080	0.600
2020/01/31 05:12:59.0	92.670	0.510	-1.010	0.580
2020/01/31 05:12:59.1	92.660	0.510	-0.940	0.560
2020/01/31 05:12:59.2	92.640	0.500	-0.860	0.550
2020/01/31 05:12:59.3	92.630	0.500	-0.780	0.530
2020/01/31 05:12:59.4	92.610	0.490	-0.690	0.520
2020/01/31 05:12:59.5	92.600	0.470	-0.600	0.510
2020/01/31 05:12:59.6	92.590	0.450	-0.510	0.500
2020/01/31 05:12:59.7	92.570	0.430	-0.410	0.500
2020/01/31 05:12:59.8	92.560	0.410	-0.320	0.490
2020/01/31 05:12:59.9	92.550	0.380	-0.220	0.490
2020/01/31 05:13:00.0	92.540	0.350	-0.130	0.480
2020/01/31 05:13:00.1	92.530	0.320	-0.040	0.480
2020/01/31 05:13:00.2	92.520	0.290	0.050	0.480
2020/01/31 05:13:00.3	92.510	0.260	0.130	0.480
2020/01/31 05:13:00.4	92.500	0.220	0.210	0.470
2020/01/31 05:13:00.5	92.490	0.190	0.280	0.470
2020/01/31 05:13:00.6	92.490	0.160	0.350	0.470
2020/01/31 05:13:00.7	92.480	0.120	0.410	0.460
2020/01/31 05:13:00.8	92.480	0.090	0.460	0.460
2020/01/31 05:13:00.9	92.480	0.060	0.500	0.450
2020/01/31 05:13:01.0	92.480	0.030	0.530	0.440
2020/01/31 05:13:01.1	92.480	0.010	0.560	0.440
2020/01/31 05:13:01.2	92.480	-0.020	0.580	0.430
2020/01/31 05:13:01.3	92.480	-0.040	0.590	0.420
2020/01/31 05:13:01.4	92.490	-0.060	0.590	0.410
2020/01/31 05:13:01.5	92.490	-0.080	0.590	0.400
2020/01/31 05:13:01.6	92.490	-0.090	0.580	0.390
2020/01/31 05:13:01.7	92.500	-0.100	0.560	0.390
2020/01/31 05:13:01.8	92.500	-0.110	0.530	0.380
2020/01/31 05:13:01.9	92.500	-0.120	0.500	0.380
2020/01/31 05:13:02.0	92.510	-0.130	0.470	0.370
2020/01/31 05:13:02.1	92.510	-0.130	0.420	0.370
2020/01/31 05:13:02.2	92.510	-0.140	0.380	0.380
2020/01/31 05:13:02.3	92.500	-0.140	0.330	0.380
2020/01/31 05:13:02.4	92.500	-0.140	0.280	0.380
2020/01/31 05:13:02.5	92.500	-0.130	0.220	0.390
2020/01/31 05:13:02.6	92.490	-0.130	0.170	0.400
2020/01/31 05:13:02.7	92.490	-0.130	0.110	0.410
2020/01/31 05:13:02.8	92.480	-0.120	0.050	0.420
2020/01/31 05:13:02.9	92.480	-0.110	-0.010	0.430
2020/01/31 05:13:03.0	92.470	-0.110	-0.070	0.440
2020/01/31 05:13:03.1	92.460	-0.100	-0.130	0.450
2020/01/31 05:13:03.2	92.460	-0.090	-0.190	0.460
2020/01/31 05:13:03.3	92.450	-0.080	-0.240	0.470
2020/01/31 05:13:03.4	92.450	-0.080	-0.300	0.480
2020/01/31 05:13:03.5	92.450	-0.070	-0.350	0.500
2020/01/31 05:13:03.6	92.450	-0.060	-0.410	0.510
2020/01/31 05:13:03.7	92.450	-0.050	-0.460	0.530
2020/01/31 05:13:03.8	92.460	-0.040	-0.500	0.550
2020/01/31 05:13:03.9	92.460	-0.030	-0.550	0.560
2020/01/31 05:13:04.0	92.470	-0.030	-0.590	0.590
2020/01/31 05:13:04.1	92.480	-0.020	-0.630	0.610
2020/01/31 05:13:04.2	92.490	-0.010	-0.660	0.630
2020/01/31 05:13:04.3	92.500	-0.000	-0.690	0.650
2020/01/31 05:13:04.4	92.510	0.000	-0.720	0.680
2020/01/31 05:13:04.5	92.530	0.010	-0.740	0.710
2020/01/31 05:13:04.6	92.550	0.010	-0.760	0.740
2020/01/31 05:13:04.7	92.560	0.020	-0.770	0.760
2020/01/31 05:13:04.8	92.580	0.020	-0.770	0.790
2020/01/31 05:13:04.9	92.600	0.030	-0.770	0.820
2020/01/31 05:13:05.0	92.620	0.030	-0.770	0.850
2020/01/31 05:13:05.1	92.640	0.030	-0.760	0.880
2020/01/31 05:13:05.2	92.660	0.030	-0.740	0.910
2020/01/31 05:13:05.3	92.680	0.040	-0.720	0.930
2020/01/31 05:13:05.4	92.700	0.040	-0.690	0.960
2020/01/31 05:13:05.5	92.720	0.040	-0.660	0.980
2020/01/31 05:13:05.6	92.740	0.030	-0.620	1.000
2020/01/31 05:13:05.7	92.760	0.030	-0.580	1.020
2020/01/31 05:13:05.8	92.770	0.030	-0.530	1.030
2020/01/31 05:13:05.9	92.790	0.030	-0.480	1.050
2020/01/31 05:13:06.0	92.810	0.020	-0.430	1.060
2020/01/31 05:13:06.1	92.820	0.020	-0.380	1.070
2020/01/31 05:13:06.2	92.840	0.010	-0.320	1.080
2020/01/31 05:13:06.3	92.850	0.010	-0.260	1.080
2020/01/31 05:13:06.4	92.860	0.000	-0.200	1.090
2020/01/31 05:13:06.5	92.870	-0.000	-0.150	1.090
2020/01/31 05:13:06.6	92.870	-0.010	-0.090	1.100
2020/01/31 05:13:06.7	92.880	-0.010	-0.030	1.100
2020/01/31 05:13:06.8	92.880	-0.020	0.020	1.100
2020/01/31 05:13:06.9	92.890	-0.020	0.070	1.100
2020/01/31 05:13:07.0	92.890	-0.030	0.120	1.100
2020/01/31 05:13:07.1	92.890	-0.030	0.160	1.100
2020/01/31 05:13:07.2	92.890	-0.030	0.210	1.100
2020/01/31 05:13:07.3	92.880	-0.030	0.240	1.090
2020/01/31 05:13:07.4	92.880	-0.030	0.270	1.090
2020/01/31 05:13:07.5	92.880	-0.030	0.300	1.080
2020/01/31 05:13:07.6	92.870	-0.030	0.310	1.070
2020/01/31 05:13:07.7	92.870	-0.030	0.330	1.060
2020/01/31 05:13:07.8	92.860	-0.030	0.340	1.060
2020/01/31 05:13:07.9	92.850	-0.030	0.340	1.040
2020/01/31 05:13:08.0	92.840	-0.030	0.340	1.030
2020/01/31 05:13:08.1	92.830	-0.020	0.330	1.020
2020/01/31 05:13:08.2	92.810	-0.020	0.310	1.000
2020/01/31 05:13:08.3	92.800	-0.010	0.290	0.980
2020/01/31 05:13:08.4	92.780	-0.010	0.270	0.970
2020/01/31 05:13:08.5	92.770	-0.000	0.240	0.950
2020/01/31 05:13:08.6	92.750	0.000	0.210	0.930
2020/01/31 05:13:08.7	92.730	0.010	0.170	0.910
2020/01/31 05:13:08.8	92.710	0.010	0.140	0.880
2020/01/31 05:13:08.9	92.690	0.020	0.100	0.860
2020/01/31 05:13:09.0	92.670	0.030	0.050	0.840
2020/01/31 05:13:09.1	92.650	0.040	0.010	0.820
2020/01/31 05:13:09.2	92.630	0.040	-0.040	0.800
2020/01/31 05:13:09.3	92.600	0.050	-0.080	0.780
2020/01/31 05:13:09.4	92.580	0.060	-0.130	0.760
2020/01/31 05:13:09.5	92.560	0.070	-0.180	0.740
2020/01/31 05:13:09.6	92.540	0.080	-0.230	0.720
2020/01/31 05:13:09.7	92.510	0.080	-0.280	0.700
2020/01/31 05:13:09.8	92.490	0.090	-0.330	0.690
2020/01/31 05:13:09.9	92.470	0.100	-0.380	0.670
2020/01/31 05:13:10.0	92.450	0.110	-0.430	0.650
2020/01/31 05:13:10.1	92.430	0.120	-0.480	0.640
2020/01/31 05:13:10.2	92.400	0.130	-0.520	0.620
2020/01/31 05:13:10.3	92.380	0.140	-0.570	0.600
2020/01/31 05:13:10.4	92.360	0.160	-0.610	0.580
2020/01/31 05:13:10.5	92.350	0.170	-0.650	0.560
2020/01/31 05:13:10.6	92.340	0.180	-0.680	0.540
2020/01/31 05:13:10.7	92.320	0.190	-0.720	0.520
2020/01/31 05:13:10.8	92.320	0.200	-0.750	0.500
2020/01/31 05:13:10.9	92.310	0.210	-0.770	0.480
2020/01/31 05:13:11.0	92.300	0.220	-0.800	0.460
2020/01/31 05:13:11.1	92.300	0.230	-0.820	0.430
2020/01/31 05:13:11.2	92.290	0.240	-0.830	0.400
2020/01/31 05:13:11.3	92.290	0.250	-0.840	0.380
2020/01/31 05:13:11.4	92.300	0.260	-0.850	0.360
2020/01/31 05:13:11.5	92.300	0.270	-0.850	0.330
2020/01/31 05:13:11.6	92.310	0.280	-0.850	0.310
2020/01/31 05:13:11.7	92.320	0.290	-0.840	0.290
2020/01/31 05:13:11.8	92.330	0.290	-0.830	0.270
2020/01/31 05:13:11.9	92.340	0.300	-0.810	0.250
2020/01/31 05:13:12.0	92.350	0.300	-0.790	0.230
2020/01/31 05:13:12.1	92.370	0.300	-0.770	0.220
2020/01/31 05:13:12.2	92.380	0.300	-0.740	0.210
2020/01/31 05:13:12.3	92.400	0.300	-0.700	0.210
2020/01/31 05:13:12.4	92.420	0.300	-0.660	0.200
2020/01/31 05:13:12.5	92.440	0.290	-0.610	0.210
2020/01/31 05:13:12.6	92.450	0.280	-0.570	0.210
2020/01/31 05:13:12.7	92.470	0.270	-0.510	0.220
2020/01/31 05:13:12.8	92.490	0.260	-0.460	0.240
2020/01/31 05:13:12.9	92.510	0.250	-0.400	0.260
2020/01/31 05:13:13.0	92.530	0.240	-0.340	0.280
2020/01/31 05:13:13.1	92.550	0.220	-0.290	0.310
2020/01/31 05:13:13.2	92.560	0.210	-0.230	0.330
2020/01/31 05:13:13.3	92.580	0.190	-0.170	0.370
2020/01/31 05:13:13.4	92.600	0.170	-0.120	0.400
2020/01/31 05:13:13.5	92.610	0.150	-0.060	0.440
2020/01/31 05:13:13.6	92.620	0.130	-0.020	0.480
2020/01/31 05:13:13.7	92.630	0.110	0.030	0.530
2020/01/31 05:13:13.8	92.640	0.090	0.060	0.570
2020/01/31 05:13:13.9	92.640	0.070	0.100	0.610
2020/01/31 05:13:14.0	92.640	0.050	0.120	0.660
2020/01/31 05:13:14.1	92.640	0.030	0.140	0.710
2020/01/31 05:13:14.2	92.640	0.010	0.160	0.760
2020/01/31 05:13:14.3	92.630	-0.000	0.170	0.810
2020/01/31 05:13:14.4	92.620	-0.020	0.170	0.850
2020/01/31 05:13:14.5	92.600	-0.040	0.170	0.900
2020/01/31 05:13:14.6	92.590	-0.050	0.160	0.950
2020/01/31 05:13:14.7	92.570	-0.070	0.150	0.990
2020/01/31 05:13:14.8	92.540	-0.080	0.140	1.030
2020/01/31 05:13:14.9	92.520	-0.100	0.120	1.080
2020/01/31 05:13:15.0	92.490	-0.110	0.100	1.110
2020/01/31 05:13:15.1	92.460	-0.130	0.080	1.150
2020/01/31 05:13:15.2	92.430	-0.140	0.060	1.190
2020/01/31 05:13:15.3	92.400	-0.160	0.040	1.220
2020/01/31 05:13:15.4	92.370	-0.170	0.020	1.250
2020/01/31 05:13:15.5	92.340	-0.180	-0.000	1.290
2020/01/31 05:13:15.6	92.310	-0.200	-0.020	1.310
2020/01/31 05:13:15.7	92.280	-0.210	-0.030	1.340
2020/01/31 05:13:15.8	92.250	-0.230	-0.040	1.360
2020/01/31 05:13:15.9	92.220	-0.250	-0.050	1.380
2020/01/31 05:13:16.0	92.190	-0.260	-0.060	1.400
2020/01/31 05:13:16.1	92.170	-0.280	-0.060	1.420
2020/01/31 05:13:16.2	92.140	-0.290	-0.060	1.430
2020/01/31 05:13:16.3	92.120	-0.310	-0.050	1.440
2020/01/31 05:13:16.4	92.100	-0.330	-0.040	1.450
2020/01/31 05:13:16.5	92.080	-0.340	-0.030	1.450
2020/01/31 05:13:16.6	92.070	-0.360	-0.020	1.450
2020/01/31 05:13:16.7	92.060	-0.380	-0.000	1.450
2020/01/31 05:13:16.8	92.060	-0.390	0.010	1.440
2020/01/31 05:13:16.9	92.060	-0.410	0.030	1.430
2020/01/31 05:13:17.0	92.060	-0.420	0.050	1.410
2020/01/31 05:13:17.1	92.070	-0.440	0.070	1.400
2020/01/31 05:13:17.2	92.080	-0.450	0.090	1.370
2020/01/31 05:13:17.3	92.090	-0.460	0.100	1.340
2020/01/31 05:13:17.4	92.110	-0.460	0.110	1.310
2020/01/31 05:13:17.5	92.130	-0.470	0.120	1.280
2020/01/31 05:13:17.6	92.160	-0.470	0.130	1.250
2020/01/31 05:13:17.7	92.180	-0.470	0.130	1.210
2020/01/31 05:13:17.8	92.210	-0.470	0.120	1.170
2020/01/31 05:13:17.9	92.240	-0.460	0.110	1.120
2020/01/31 05:13:18.0	92.270	-0.460	0.100	1.080
2020/01/31 05:13:18.1	92.300	-0.440	0.080	1.040
2020/01/31 05:13:18.2	92.330	-0.430	0.050	0.990
2020/01/31 05:13:18.3	92.370	-0.410	0.020	0.950
2020/01/31 05:13:18.4	92.400	-0.380	-0.010	0.900
2020/01/31 05:13:18.5	92.430	-0.360	-0.050	0.860
2020/01/31 05:13:18.6	92.460	-0.330	-0.090	0.830
2020/01/31 05:13:18.7	92.490	-0.300	-0.130	0.790
2020/01/31 05:13:18.8	92.520	-0.260	-0.180	0.760
2020/01/31 05:13:18.9	92.540	-0.230	-0.230	0.730
2020/01/31 05:13:19.0	92.560	-0.190	-0.280	0.710
2020/01/31 05:13:19.1	92.590	-0.160	-0.330	0.690
2020/01/31 05:13:19.2	92.600	-0.120	-0.370	0.670
2020/01/31 05:13:19.3	92.620	-0.080	-0.420	0.660
2020/01/31 05:13:19.4	92.630	-0.040	-0.460	0.650
2020/01/31 05:13:19.5	92.640	-0.010	-0.500	0.640
2020/01/31 05:13:19.6	92.640	0.020	-0.540	0.640
2020/01/31 05:13:19.7	92.640	0.060	-0.570	0.640
2020/01/31 05:13:19.8	92.640	0.080	-0.590	0.650
2020/01/31 05:13:19.9	92.640	0.110	-0.610	0.660
2020/01/31 05:13:20.0	92.630	0.130	-0.630	0.660
2020/01/31 05:13:20.1	92.620	0.150	-0.640	0.670
2020/01/31 05:13:20.2	92.600	0.160	-0.640	0.690
2020/01/31 05:13:20.3	92.580	0.170	-0.640	0.700
2020/01/31 05:13:20.4	92.560	0.180	-0.630	0.710
2020/01/31 05:13:20.5	92.540	0.180	-0.620	0.720
2020/01/31 05:13:20.6	92.520	0.170	-0.600	0.740
2020/01/31 05:13:20.7	92.490	0.170	-0.570	0.750
2020/01/31 05:13:20.8	92.460	0.160	-0.540	0.770
2020/01/31 05:13:20.9	92.440	0.140	-0.510	0.780
2020/01/31 05:13:21.0	92.410	0.120	-0.470	0.790
2020/01/31 05:13:21.1	92.380	0.100	-0.430	0.810
2020/01/31 05:13:21.2	92.350	0.080	-0.380	0.810
2020/01/31 05:13:21.3	92.310	0.050	-0.330	0.830
2020/01/31 05:13:21.4	92.280	0.030	-0.290	0.840
2020/01/31 05:13:21.5	92.250	-0.000	-0.240	0.850
2020/01/31 05:13:21.6	92.220	-0.030	-0.190	0.860
2020/01/31 05:13:21.7	92.190	-0.060	-0.140	0.860
2020/01/31 05:13:21.8	92.160	-0.090	-0.090	0.870
2020/01/31 05:13:21.9	92.130	-0.110	-0.050	0.880
2020/01/31 05:13:22.0	92.100	-0.140	-0.010	0.880
2020/01/31 05:13:22.1	92.070	-0.160	0.030	0.880
2020/01/31 05:13:22.2	92.040	-0.180	0.070	0.880
2020/01/31 05:13:22.3	92.010	-0.200	0.100	0.880
2020/01/31 05:13:22.4	91.990	-0.210	0.130	0.870
2020/01/31 05:13:22.5	91.960	-0.210	0.150	0.860
2020/01/31 05:13:22.6	91.940	-0.210	0.160	0.850
2020/01/31 05:13:22.7	91.920	-0.210	0.160	0.830
2020/01/31 05:13:22.8	91.900	-0.200	0.160	0.810
2020/01/31 05:13:22.9	91.880	-0.190	0.150	0.790
2020/01/31 05:13:23.0	91.870	-0.170	0.140	0.760
2020/01/31 05:13:23.1	91.860	-0.140	0.110	0.730
2020/01/31 05:13:23.2	91.850	-0.110	0.070	0.690
2020/01/31 05:13:23.3	91.840	-0.080	0.030	0.650
2020/01/31 05:13:23.4	91.830	-0.040	-0.010	0.610
2020/01/31 05:13:23.5	91.830	0.010	-0.070	0.570
2020/01/31 05:13:23.6	91.820	0.060	-0.120	0.520
2020/01/31 05:13:23.7	91.820	0.110	-0.190	0.480
2020/01/31 05:13:23.8	91.810	0.170	-0.260	0.430
2020/01/31 05:13:23.9	91.810	0.230	-0.330	0.390
2020/01/31 05:13:24.0	91.810	0.290	-0.410	0.350
2020/01/31 05:13:24.1	91.810	0.350	-0.490	0.310
2020/01/31 05:13:24.2	91.800	0.420	-0.570	0.280
2020/01/31 05:13:24.3	91.790	0.480	-0.650	0.250
2020/01/31 05:13:24.4	91.780	0.550	-0.730	0.230
2020/01/31 05:13:24.5	91.780	0.610	-0.810	0.210
2020/01/31 05:13:24.6	91.770	0.680	-0.890	0.190
2020/01/31 05:13:24.7	91.760	0.730	-0.960	0.190
2020/01/31 05:13:24.8	91.750	0.790	-1.020	0.180
2020/01/31 05:13:24.9	91.740	0.840	-1.080	0.190
2020/01/31 05:13:25.0	91.730	0.880	-1.130	0.190
2020/01/31 05:13:25.1	91.720	0.920	-1.170	0.200
2020/01/31 05:13:25.2	91.700	0.950	-1.200	0.220
2020/01/31 05:13:25.3	91.690	0.970	-1.220	0.240
2020/01/31 05:13:25.4	91.680	0.990	-1.220	0.270
2020/01/31 05:13:25.5	91.660	1.000	-1.210	0.300
2020/01/31 05:13:25.6	91.650	0.990	-1.190	0.330
2020/01/31 05:13:25.7	91.640	0.980	-1.160	0.370
2020/01/31 05:13:25.8	91.620	0.970	-1.110	0.400
2020/01/31 05:13:25.9	91.610	0.940	-1.050	0.440
2020/01/31 05:13:26.0	91.600	0.900	-0.980	0.480
2020/01/31 05:13:26.1	91.580	0.860	-0.900	0.520
2020/01/31 05:13:26.2	91.570	0.810	-0.810	0.560
2020/01/31 05:13:26.3	91.560	0.750	-0.710	0.600
2020/01/31 05:13:26.4	91.540	0.690	-0.600	0.640
2020/01/31 05:13:26.5	91.540	0.620	-0.480	0.680
2020/01/31 05:13:26.6	91.530	0.540	-0.350	0.710
2020/01/31 05:13:26.7	91.520	0.450	-0.220	0.750
2020/01/31 05:13:26.8	91.520	0.370	-0.090	0.790
2020/01/31 05:13:26.9	91.510	0.270	0.050	0.830
2020/01/31 05:13:27.0	91.510	0.180	0.180	0.860
2020/01/31 05:13:27.1	91.510	0.090	0.320	0.900
2020/01/31 05:13:27.2	91.510	-0.010	0.450	0.930
2020/01/31 05:13:27.3	91.510	-0.110	0.580	0.960
2020/01/31 05:13:27.4	91.520	-0.200	0.700	1.000
2020/01/31 05:13:27.5	91.520	-0.300	0.810	1.030
2020/01/31 05:13:27.6	91.530	-0.390	0.910	1.060
2020/01/31 05:13:27.7	91.530	-0.470	1.000	1.090
2020/01/31 05:13:27.8	91.540	-0.550	1.080	1.120
2020/01/31 05:13:27.9	91.540	-0.630	1.150	1.140
2020/01/31 05:13:28.0	91.550	-0.700	1.200	1.170
2020/01/31 05:13:28.1	91.560	-0.760	1.230	1.190
2020/01/31 05:13:28.2	91.580	-0.820	1.250	1.220
2020/01/31 05:13:28.3	91.580	-0.860	1.260	1.240
2020/01/31 05:13:28.4	91.590	-0.900	1.250	1.260
2020/01/31 05:13:28.5	91.600	-0.940	1.230	1.280
2020/01/31 05:13:28.6	91.610	-0.960	1.190	1.290
2020/01/31 05:13:28.7	91.620	-0.970	1.140	1.310
2020/01/31 05:13:28.8	91.640	-0.980	1.070	1.320
2020/01/31 05:13:28.9	91.650	-0.980	0.990	1.330
2020/01/31 05:13:29.0	91.660	-0.970	0.900	1.330
2020/01/31 05:13:29.1	91.670	-0.960	0.810	1.340
2020/01/31 05:13:29.2	91.690	-0.940	0.700	1.330
2020/01/31 05:13:29.3	91.700	-0.910	0.590	1.330
2020/01/31 05:13:29.4	91.720	-0.870	0.470	1.330
2020/01/31 05:13:29.5	91.730	-0.830	0.340	1.320
2020/01/31 05:13:29.6	91.740	-0.780	0.210	1.320
2020/01/31 05:13:29.7	91.760	-0.730	0.080	1.310
2020/01/31 05:13:29.8	91.770	-0.680	-0.050	1.300
2020/01/31 05:13:29.9	91.780	-0.620	-0.180	1.290
2020/01/31 05:13:30.0	91.780	-0.560	-0.300	1.290
2020/01/31 05:13:30.1	91.790	-0.500	-0.420	1.280
2020/01/31 05:13:30.2	91.800	-0.440	-0.550	1.280
2020/01/31 05:13:30.3	91.800	-0.380	-0.660	1.280
2020/01/31 05:13:30.4	91.800	-0.320	-0.760	1.280
2020/01/31 05:13:30.5	91.800	-0.250	-0.860	1.280
2020/01/31 05:13:30.6	91.800	-0.200	-0.940	1.280
2020/01/31 05:13:30.7	91.800	-0.140	-1.010	1.280
2020/01/31 05:13:30.8	91.790	-0.090	-1.080	1.290
2020/01/31 05:13:30.9	91.780	-0.040	-1.130	1.290
2020/01/31 05:13:31.0	91.770	0.000	-1.170	1.300
2020/01/31 05:13:31.1	91.760	0.040	-1.190	1.300
2020/01/31 05:13:31.2	91.750	0.080	-1.210	1.310
2020/01/31 05:13:31.3	91.740	0.100	-1.210	1.310
2020/01/31 05:13:31.4	91.720	0.130	-1.200	1.320
2020/01/31 05:13:31.5	91.710	0.150	-1.180	1.320
2020/01/31 05:13:31.6	91.700	0.160	-1.150	1.320
2020/01/31 05:13:31.7	91.680	0.160	-1.110	1.320
2020/01/31 05:13:31.8	91.660	0.170	-1.060	1.320
2020/01/31 05:13:31.9	91.650	0.160	-0.990	1.320
2020/01/31 05:13:32.0	91.630	0.150	-0.920	1.320
2020/01/31 05:13:32.1	91.610	0.140	-0.850	1.320
2020/01/31 05:13:32.2	91.590	0.120	-0.760	1.310
2020/01/31 05:13:32.3	91.570	0.090	-0.680	1.310
2020/01/31 05:13:32.4	91.550	0.070	-0.580	1.300
2020/01/31 05:13:32.5	91.540	0.040	-0.490	1.290
2020/01/31 05:13:32.6	91.520	0.010	-0.390	1.290
2020/01/31 05:13:32.7	91.500	-0.030	-0.300	1.280
2020/01/31 05:13:32.8	91.490	-0.060	-0.210	1.270
2020/01/31 05:13:32.9	91.470	-0.100	-0.120	1.260
2020/01/31 05:13:33.0	91.460	-0.130	-0.030	1.250
2020/01/31 05:13:33.1	91.450	-0.170	0.050	1.230
2020/01/31 05:13:33.2	91.440	-0.200	0.120	1.220
2020/01/31 05:13:33.3	91.430	-0.230	0.190	1.200
2020/01/31 05:13:33.4	91.420	-0.260	0.250	1.180
2020/01/31 05:13:33.5	91.420	-0.280	0.290	1.160
2020/01/31 05:13:33.6	91.420	-0.310	0.330	1.140
2020/01/31 05:13:33.7	91.420	-0.320	0.360	1.110
2020/01/31 05:13:33.8	91.420	-0.340	0.380	1.080
2020/01/31 05:13:33.9	91.420	-0.350	0.390	1.050
2020/01/31 05:13:34.0	91.430	-0.360	0.390	1.020
2020/01/31 05:13:34.1	91.440	-0.360	0.370	0.990
2020/01/31 05:13:34.2	91.450	-0.360	0.360	0.950
2020/01/31 05:13:34.3	91.460	-0.360	0.330	0.910
2020/01/31 05:13:34.4	91.460	-0.350	0.290	0.870
2020/01/31 05:13:34.5	91.470	-0.330	0.250	0.820
2020/01/31 05:13:34.6	91.480	-0.320	0.200	0.780
2020/01/31 05:13:34.7	91.490	-0.300	0.140	0.730
2020/01/31 05:13:34.8	91.500	-0.270	0.080	0.680
2020/01/31 05:13:34.9	91.500	-0.240	0.020	0.640
2020/01/31 05:13:35.0	91.500	-0.210	-0.050	0.590
2020/01/31 05:13:35.1	91.510	-0.180	-0.120	0.540
2020/01/31 05:13:35.2	91.510	-0.150	-0.190	0.490
2020/01/31 05:13:35.3	91.510	-0.110	-0.260	0.440
2020/01/31 05:13:35.4	91.510	-0.070	-0.320	0.390
2020/01/31 05:13:35.5	91.510	-0.030	-0.380	0.350
2020/01/31 05:13:35.6	91.510	0.010	-0.440	0.310
2020/01/31 05:13:35.7	91.510	0.050	-0.500	0.270
2020/01/31 05:13:35.8	91.500	0.090	-0.550	0.230
2020/01/31 05:13:35.9	91.500	0.130	-0.590	0.200
2020/01/31 05:13:36.0	91.490	0.170	-0.630	0.170
2020/01/31 05:13:36.1	91.480	0.210	-0.660	0.150
2020/01/31 05:13:36.2	91.470	0.240	-0.690	0.130
2020/01/31 05:13:36.3	91.460	0.280	-0.710	0.130
2020/01/31 05:13:36.4	91.450	0.320	-0.720	0.120
2020/01/31 05:13:36.5	91.440	0.350	-0.730	0.120
2020/01/31 05:13:36.6	91.430	0.380	-0.730	0.130
2020/01/31 05:13:36.7	91.420	0.410	-0.720	0.150
2020/01/31 05:13:36.8	91.410	0.440	-0.710	0.170
2020/01/31 05:13:36.9	91.400	0.470	-0.690	0.190
2020/01/31 05:13:37.0	91.390	0.490	-0.680	0.210
2020/01/31 05:13:37.1	91.380	0.520	-0.650	0.240
2020/01/31 05:13:37.2	91.370	0.540	-0.620	0.270
2020/01/31 05:13:37.3	91.360	0.550	-0.600	0.300
2020/01/31 05:13:37.4	91.350	0.570	-0.570	0.330
2020/01/31 05:13:37.5	91.350	0.580	-0.540	0.360
2020/01/31 05:13:37.6	91.340	0.600	-0.510	0.390
2020/01/31 05:13:37.7	91.340	0.600	-0.480	0.410
2020/01/31 05:13:37.8	91.340	0.610	-0.450	0.430
2020/01/31 05:13:37.9	91.340	0.620	-0.420	0.450
2020/01/31 05:13:38.0	91.340	0.620	-0.400	0.470
2020/01/31 05:13:38.1	91.340	0.620	-0.370	0.490
2020/01/31 05:13:38.2	91.350	0.620	-0.350	0.500
2020/01/31 05:13:38.3	91.350	0.620	-0.330	0.510
2020/01/31 05:13:38.4	91.350	0.610	-0.310	0.520
2020/01/31 05:13:38.5	91.350	0.600	-0.290	0.520
2020/01/31 05:13:38.6	91.360	0.590	-0.280	0.530
2020/01/31 05:13:38.7	91.360	0.580	-0.260	0.530
2020/01/31 05:13:38.8	91.360	0.570	-0.250	0.540
2020/01/31 05:13:38.9	91.360	0.550	-0.240	0.540
2020/01/31 05:13:39.0	91.360	0.530	-0.230	0.540
2020/01/31 05:13:39.1	91.360	0.510	-0.210	0.540
2020/01/31 05:13:39.2	91.370	0.490	-0.210	0.540
2020/01/31 05:13:39.3	91.370	0.460	-0.190	0.540
2020/01/31 05:13:39.4	91.370	0.430	-0.180	0.540
2020/01/31 05:13:39.5	91.370	0.400	-0.170	0.550
2020/01/31 05:13:39.6	91.370	0.370	-0.150	0.550
2020/01/31 05:13:39.7	91.370	0.340	-0.140	0.560
2020/01/31 05:13:39.8	91.370	0.300	-0.120	0.560
2020/01/31 05:13:39.9	91.370	0.270	-0.100	0.570
2020/01/31 05:13:40.0	91.380	0.230	-0.080	0.580
2020/01/31 05:13:40.1	91.380	0.190	-0.060	0.580
2020/01/31 05:13:40.2	91.380	0.150	-0.040	0.590
2020/01/31 05:13:40.3	91.390	0.110	-0.010	0.600
2020/01/31 05:13:40.4	91.390	0.060	0.010	0.610
2020/01/31 05:13:40.5	91.400	0.020	0.040	0.610
2020/01/31 05:13:40.6	91.410	-0.020	0.070	0.620
2020/01/31 05:13:40.7	91.420	-0.060	0.100	0.630
2020/01/31 05:13:40.8	91.430	-0.110	0.120	0.640
2020/01/31 05:13:40.9	91.440	-0.150	0.150	0.640
2020/01/31 05:13:41.0	91.450	-0.190	0.180	0.650
2020/01/31 05:13:41.1	91.460	-0.230	0.200	0.650
2020/01/31 05:13:41.2	91.470	-0.270	0.230	0.650
2020/01/31 05:13:41.3	91.490	-0.310	0.250	0.660
2020/01/31 05:13:41.4	91.500	-0.350	0.270	0.660
2020/01/31 05:13:41.5	91.510	-0.390	0.290	0.660
2020/01/31 05:13:41.6	91.510	-0.420	0.300	0.670
2020/01/31 05:13:41.7	91.520	-0.450	0.310	0.670
2020/01/31 05:13:41.8	91.530	-0.480	0.320	0.680
2020/01/31 05:13:41.9	91.540	-0.510	0.320	0.690
2020/01/31 05:13:42.0	91.540	-0.540	0.330	0.700
2020/01/31 05:13:42.1	91.550	-0.560	0.320	0.710
2020/01/31 05:13:42.2	91.550	-0.580	0.310	0.730
2020/01/31 05:13:42.3	91.550	-0.600	0.300	0.750
2020/01/31 05:13:42.4	91.550	-0.620	0.290	0.770
2020/01/31 05:13:42.5	91.550	-0.630	0.280	0.800
2020/01/31 05:13:42.6	91.550	-0.640	0.260	0.820
2020/01/31 05:13:42.7	91.550	-0.650	0.230	0.850
2020/01/31 05:13:42.8	91.550	-0.660	0.210	0.880
2020/01/31 05:13:42.9	91.550	-0.660	0.180	0.910
2020/01/31 05:13:43.0	91.550	-0.660	0.140	0.940
2020/01/31 05:13:43.1	91.550	-0.650	0.110	0.970
2020/01/31 05:13:43.2	91.550	-0.650	0.070	1.000
2020/01/31 05:13:43.3	91.550	-0.640	0.020	1.030
2020/01/31 05:13:43.4	91.550	-0.620	-0.020	1.060
2020/01/31 05:13:43.5	91.550	-0.610	-0.070	1.090
2020/01/31 05:13:43.6	91.550	-0.590	-0.120	1.110
2020/01/31 05:13:43.7	91.550	-0.570	-0.180	1.130
2020/01/31 05:13:43.8	91.550	-0.540	-0.230	1.140
2020/01/31 05:13:43.9	91.550	-0.520	-0.290	1.150
2020/01/31 05:13:44.0	91.550	-0.490	-0.350	1.160
2020/01/31 05:13:44.1	91.550	-0.460	-0.410	1.160
2020/01/31 05:13:44.2	91.560	-0.420	-0.470	1.150
2020/01/31 05:13:44.3	91.560	-0.390	-0.520	1.150
2020/01/31 05:13:44.4	91.560	-0.350	-0.580	1.140
2020/01/31 05:13:44.5	91.570	-0.310	-0.630	1.130
2020/01/31 05:13:44.6	91.570	-0.270	-0.680	1.110
2020/01/31 05:13:44.7	91.580	-0.230	-0.730	1.090
2020/01/31 05:13:44.8	91.580	-0.190	-0.770	1.070
2020/01/31 05:13:44.9	91.580	-0.150	-0.810	1.050
2020/01/31 05:13:45.0	91.590	-0.110	-0.840	1.030
2020/01/31 05:13:45.1	91.590	-0.070	-0.860	1.010
2020/01/31 05:13:45.2	91.600	-0.040	-0.880	0.990
2020/01/31 05:13:45.3	91.600	-0.000	-0.890	0.970
2020/01/31 05:13:45.4	91.600	0.030	-0.900	0.950
2020/01/31 05:13:45.5	91.610	0.070	-0.890	0.940
2020/01/31 05:13:45.6	91.610	0.090	-0.880	0.920
2020/01/31 05:13:45.7	91.620	0.120	-0.870	0.900
2020/01/31 05:13:45.8	91.620	0.140	-0.840	0.890
2020/01/31 05:13:45.9	91.630	0.160	-0.810	0.870
2020/01/31 05:13:46.0	91.630	0.180	-0.770	0.850
2020/01/31 05:13:46.1	91.630	0.200	-0.720	0.840
2020/01/31 05:13:46.2	91.630	0.210	-0.670	0.820
2020/01/31 05:13:46.3	91.640	0.210	-0.620	0.810
2020/01/31 05:13:46.4	91.640	0.220	-0.560	0.790
2020/01/31 05:13:46.5	91.640	0.220	-0.500	0.770
2020/01/31 05:13:46.6	91.640	0.210	-0.430	0.750
2020/01/31 05:13:46.7	91.650	0.210	-0.360	0.740
2020/01/31 05:13:46.8	91.650	0.200	-0.300	0.720
2020/01/31 05:13:46.9	91.650	0.190	-0.230	0.700
2020/01/31 05:13:47.0	91.650	0.170	-0.160	0.680
2020/01/31 05:13:47.1	91.650	0.160	-0.100	0.660
2020/01/31 05:13:47.2	91.650	0.140	-0.030	0.640
2020/01/31 05:13:47.3	91.650	0.120	0.030	0.620
2020/01/31 05:13:47.4	91.650	0.100	0.080	0.600
2020/01/31 05:13:47.5	91.640	0.080	0.130	0.580
2020/01/31 05:13:47.6	91.640	0.060	0.180	0.560
2020/01/31 05:13:47.7	91.640	0.040	0.220	0.540
2020/01/31 05:13:47.8	91.630	0.020	0.250	0.530
2020/01/31 05:13:47.9	91.630	-0.000	0.270	0.510
2020/01/31 05:13:48.0	91.620	-0.020	0.290	0.490
2020/01/31 05:13:48.1	91.610	-0.040	0.310	0.470
2020/01/31 05:13:48.2	91.610	-0.050	0.320	0.450
2020/01/31 05:13:48.3	91.600	-0.060	0.310	0.440
2020/01/31 05:13:48.4	91.590	-0.070	0.310	0.420
2020/01/31 05:13:48.5	91.580	-0.080	0.290	0.410
2020/01/31 05:13:48.6	91.570	-0.090	0.270	0.400
2020/01/31 05:13:48.7	91.560	-0.090	0.250	0.390
2020/01/31 05:13:48.8	91.550	-0.090	0.220	0.390
2020/01/31 05:13:48.9	91.540	-0.090	0.180	0.380
2020/01/31 05:13:49.0	91.530	-0.090	0.140	0.380
2020/01/31 05:13:49.1	91.520	-0.080	0.090	0.380
2020/01/31 05:13:49.2	91.500	-0.070	0.040	0.380
2020/01/31 05:13:49.3	91.490	-0.060	-0.010	0.380
2020/01/31 05:13:49.4	91.480	-0.040	-0.060	0.380
2020/01/31 05:13:49.5	91.460	-0.030	-0.110	0.390
2020/01/31 05:13:49.6	91.450	-0.010	-0.170	0.390
2020/01/31 05:13:49.7	91.440	0.010	-0.220	0.400
2020/01/31 05:13:49.8	91.440	0.030	-0.280	0.400
2020/01/31 05:13:49.9	91.430	0.050	-0.330	0.410
2020/01/31 05:13:50.0	91.420	0.070	-0.380	0.410
2020/01/31 05:13:50.1	91.420	0.100	-0.430	0.420
2020/01/31 05:13:50.2	91.410	0.120	-0.480	0.420
2020/01/31 05:13:50.3	91.410	0.140	-0.530	0.420
2020/01/31 05:13:50.4	91.410	0.170	-0.570	0.430
2020/01/31 05:13:50.5	91.420	0.190	-0.600	0.440
2020/01/31 05:13:50.6	91.420	0.210	-0.640	0.440
2020/01/31 05:13:50.7	91.430	0.240	-0.660	0.450
2020/01/31 05:13:50.8	91.440	0.260	-0.690	0.460
2020/01/31 05:13:50.9	91.460	0.280	-0.710	0.460
2020/01/31 05:13:51.0	91.470	0.290	-0.720	0.480
2020/01/31 05:13:51.1	91.490	0.310	-0.730	0.490
2020/01/31 05:13:51.2	91.500	0.330	-0.740	0.500
2020/01/31 05:13:51.3	91.520	0.340	-0.740	0.510
2020/01/31 05:13:51.4	91.550	0.350	-0.730	0.530
2020/01/31 05:13:51.5	91.570	0.360	-0.720	0.550
2020/01/31 05:13:51.6	91.590	0.370	-0.700	0.570
2020/01/31 05:13:51.7	91.610	0.370	-0.680	0.590
2020/01/31 05:13:51.8	91.640	0.380	-0.650	0.610
2020/01/31 05:13:51.9	91.660	0.380	-0.620	0.640
2020/01/31 05:13:52.0	91.680	0.380	-0.590	0.660
2020/01/31 05:13:52.1	91.700	0.370	-0.550	0.690
2020/01/31 05:13:52.2	91.710	0.360	-0.500	0.720
2020/01/31 05:13:52.3	91.720	0.360	-0.460	0.740
2020/01/31 05:13:52.4	91.730	0.340	-0.410	0.770
2020/01/31 05:13:52.5	91.740	0.330	-0.360	0.790
2020/01/31 05:13:52.6	91.750	0.310	-0.320	0.820
2020/01/31 05:13:52.7	91.750	0.290	-0.270	0.840
2020/01/31 05:13:52.8	91.750	0.280	-0.220	0.870
2020/01/31 05:13:52.9	91.750	0.250	-0.170	0.890
2020/01/31 05:13:53.0	91.750	0.230	-0.130	0.910
2020/01/31 05:13:53.1	91.740	0.210	-0.080	0.930
2020/01/31 05:13:53.2	91.730	0.180	-0.040	0.940
2020/01/31 05:13:53.3	91.720	0.160	-0.000	0.960
2020/01/31 05:13:53.4	91.710	0.130	0.030	0.980
2020/01/31 05:13:53.5	91.700	0.110	0.060	0.990
2020/01/31 05:13:53.6	91.680	0.090	0.080	1.010
2020/01/31 05:13:53.7	91.670	0.060	0.100	1.020
2020/01/31 05:13:53.8	91.660	0.040	0.120	1.030
2020/01/31 05:13:53.9	91.640	0.020	0.130	1.040
2020/01/31 05:13:54.0	91.630	-0.000	0.140	1.050
2020/01/31 05:13:54.1	91.630	-0.020	0.140	1.060
2020/01/31 05:13:54.2	91.620	-0.040	0.130	1.070
2020/01/31 05:13:54.3	91.620	-0.050	0.130	1.080
2020/01/31 05:13:54.4	91.610	-0.070	0.120	1.090
2020/01/31 05:13:54.5	91.610	-0.080	0.100	1.090
2020/01/31 05:13:54.6	91.620	-0.090	0.090	1.100
2020/01/31 05:13:54.7	91.620	-0.100	0.070	1.100
2020/01/31 05:13:54.8	91.630	-0.110	0.050	1.110
2020/01/31 05:13:54.9	91.630	-0.120	0.030	1.110
2020/01/31 05:13:55.0	91.640	-0.120	0.010	1.110
2020/01/31 05:13:55.1	91.650	-0.130	-0.010	1.110
2020/01/31 05:13:55.2	91.660	-0.130	-0.040	1.110
2020/01/31 05:13:55.3	91.670	-0.140	-0.060	1.110
2020/01/31 05:13:55.4	91.680	-0.140	-0.080	1.100
2020/01/31 05:13:55.5	91.700	-0.140	-0.100	1.090
2020/01/31 05:13:55.6	91.710	-0.150	-0.110	1.080
2020/01/31 05:13:55.7	91.720	-0.150	-0.130	1.070
2020/01/31 05:13:55.8	91.740	-0.150	-0.140	1.060
2020/01/31 05:13:55.9	91.750	-0.150	-0.160	1.040
2020/01/31 05:13:56.0	91.770	-0.150	-0.170	1.030
2020/01/31 05:13:56.1	91.780	-0.160	-0.170	1.010
2020/01/31 05:13:56.2	91.790	-0.160	-0.180	0.990
2020/01/31 05:13:56.3	91.810	-0.160	-0.180	0.970
2020/01/31 05:13:56.4	91.820	-0.160	-0.180	0.950
2020/01/31 05:13:56.5	91.830	-0.160	-0.180	0.930
2020/01/31 05:13:56.6	91.840	-0.170	-0.180	0.910
2020/01/31 05:13:56.7	91.850	-0.170	-0.170	0.890
2020/01/31 05:13:56.8	91.860	-0.170	-0.160	0.880
2020/01/31 05:13:56.9	91.870	-0.180	-0.150	0.860
2020/01/31 05:13:57.0	91.880	-0.180	-0.140	0.850
2020/01/31 05:13:57.1	91.890	-0.180	-0.130	0.840
2020/01/31 05:13:57.2	91.900	-0.190	-0.120	0.830
2020/01/31 05:13:57.3	91.900	-0.190	-0.100	0.820
2020/01/31 05:13:57.4	91.910	-0.190	-0.090	0.810
2020/01/31 05:13:57.5	91.910	-0.200	-0.080	0.810
2020/01/31 05:13:57.6	91.920	-0.200	-0.070	0.800
2020/01/31 05:13:57.7	91.920	-0.200	-0.070	0.800
2020/01/31 05:13:57.8	91.920	-0.200	-0.060	0.800
2020/01/31 05:13:57.9	91.920	-0.200	-0.060	0.810
2020/01/31 05:13:58.0	91.920	-0.200	-0.060	0.810
2020/01/31 05:13:58.1	91.920	-0.200	-0.070	0.820
2020/01/31 05:13:58.2	91.920	-0.200	-0.070	0.820
2020/01/31 05:13:58.3	91.910	-0.190	-0.090	0.830
2020/01/31 05:13:58.4	91.900	-0.190	-0.100	0.840
2020/01/31 05:13:58.5	91.890	-0.180	-0.120	0.850
2020/01/31 05:13:58.6	91.880	-0.170	-0.140	0.860
2020/01/31 05:13:58.7	91.870	-0.160	-0.170	0.870
2020/01/31 05:13:58.8	91.850	-0.150	-0.200	0.870
2020/01/31 05:13:58.9	91.840	-0.140	-0.240	0.880
2020/01/31 05:13:59.0	91.820	-0.130	-0.280	0.880
2020/01/31 05:13:59.1	91.810	-0.110	-0.320	0.880
2020/01/31 05:13:59.2	91.790	-0.100	-0.360	0.880
2020/01/31 05:13:59.3	91.780	-0.080	-0.410	0.870
2020/01/31 05:13:59.4	91.770	-0.060	-0.450	0.870
2020/01/31 05:13:59.5	91.760	-0.040	-0.500	0.860
2020/01/31 05:13:59.6	91.750	-0.020	-0.550	0.840
2020/01/31 05:13:59.7	91.740	-0.000	-0.590	0.830
2020/01/31 05:13:59.8	91.740	0.020	-0.630	0.810
2020/01/31 05:13:59.9	91.730	0.040	-0.670	0.790
2020/01/31 05:14:00.0	91.730	0.060	-0.710	0.770
2020/01/31 05:14:00.1	91.730	0.080	-0.740	0.740
2020/01/31 05:14:00.2	91.740	0.100	-0.770	0.720
2020/01/31 05:14:00.3	91.740	0.110	-0.790	0.690
2020/01/31 05:14:00.4	91.750	0.130	-0.810	0.670
2020/01/31 05:14:00.5	91.760	0.140	-0.810	0.650
2020/01/31 05:14:00.6	91.770	0.160	-0.820	0.630
2020/01/31 05:14:00.7	91.780	0.170	-0.810	0.610
2020/01/31 05:14:00.8	91.790	0.170	-0.790	0.590
2020/01/31 05:14:00.9	91.800	0.180	-0.770	0.580
2020/01/31 05:14:01.0	91.820	0.180	-0.740	0.560
2020/01/31 05:14:01.1	91.830	0.180	-0.700	0.550
2020/01/31 05:14:01.2	91.830	0.170	-0.650	0.540
2020/01/31 05:14:01.3	91.850	0.160	-0.600	0.530
2020/01/31 05:14:01.4	91.860	0.150	-0.540	0.520
2020/01/31 05:14:01.5	91.870	0.140	-0.470	0.510
2020/01/31 05:14:01.6	91.880	0.130	-0.400	0.510
2020/01/31 05:14:01.7	91.890	0.110	-0.320	0.500
2020/01/31 05:14:01.8	91.900	0.090	-0.240	0.500
2020/01/31 05:14:01.9	91.900	0.060	-0.160	0.490
2020/01/31 05:14:02.0	91.910	0.040	-0.070	0.480
2020/01/31 05:14:02.1	91.920	0.010	0.010	0.480
2020/01/31 05:14:02.2	91.920	-0.020	0.100	0.470
2020/01/31 05:14:02.3	91.930	-0.040	0.190	0.470
2020/01/31 05:14:02.4	91.940	-0.070	0.270	0.460
2020/01/31 05:14:02.5	91.950	-0.100	0.350	0.450
2020/01/31 05:14:02.6	91.950	-0.130	0.420	0.440
2020/01/31 05:14:02.7	91.960	-0.160	0.490	0.430
2020/01/31 05:14:02.8	91.970	-0.190	0.550	0.420
2020/01/31 05:14:02.9	91.980	-0.220	0.600	0.410
2020/01/31 05:14:03.0	91.990	-0.240	0.650	0.400
2020/01/31 05:14:03.1	92.000	-0.260	0.690	0.380
2020/01/31 05:14:03.2	92.010	-0.280	0.710	0.370
2020/01/31 05:14:03.3	92.020	-0.300	0.730	0.360
2020/01/31 05:14:03.4	92.020	-0.310	0.740	0.350
2020/01/31 05:14:03.5	92.030	-0.320	0.730	0.340
2020/01/31 05:14:03.6	92.040	-0.330	0.710	0.330
2020/01/31 05:14:03.7	92.050	-0.330	0.680	0.330
2020/01/31 05:14:03.8	92.050	-0.330	0.640	0.320
2020/01/31 05:14:03.9	92.060	-0.320	0.590	0.320
2020/01/31 05:14:04.0	92.060	-0.310	0.530	0.320
2020/01/31 05:14:04.1	92.060	-0.300	0.460	0.330
2020/01/31 05:14:04.2	92.060	-0.280	0.380	0.330
2020/01/31 05:14:04.3	92.060	-0.260	0.290	0.340
2020/01/31 05:14:04.4	92.060	-0.230	0.200	0.350
2020/01/31 05:14:04.5	92.050	-0.200	0.100	0.370
2020/01/31 05:14:04.6	92.050	-0.170	-0.000	0.380
2020/01/31 05:14:04.7	92.040	-0.140	-0.100	0.400
2020/01/31 05:14:04.8	92.030	-0.100	-0.210	0.420
2020/01/31 05:14:04.9	92.020	-0.060	-0.310	0.450
2020/01/31 05:14:05.0	92.010	-0.030	-0.420	0.470
2020/01/31 05:14:05.1	92.010	0.010	-0.520	0.490
2020/01/31 05:14:05.2	91.990	0.050	-0.620	0.510
2020/01/31 05:14:05.3	91.980	0.090	-0.720	0.530
2020/01/31 05:14:05.4	91.970	0.130	-0.810	0.560
2020/01/31 05:14:05.5	91.960	0.170	-0.890	0.580
2020/01/31 05:14:05.6	91.960	0.210	-0.970	0.600
2020/01/31 05:14:05.7	91.950	0.240	-1.040	0.620
2020/01/31 05:14:05.8	91.940	0.280	-1.110	0.640
2020/01/31 05:14:05.9	91.930	0.310	-1.170	0.660
2020/01/31 05:14:06.0	91.930	0.340	-1.220	0.680
2020/01/31 05:14:06.1	91.920	0.370	-1.260	0.700
2020/01/31 05:14:06.2	91.910	0.400	-1.290	0.710
2020/01/31 05:14:06.3	91.910	0.430	-1.320	0.730
2020/01/31 05:14:06.4	91.910	0.450	-1.330	0.750
2020/01/31 05:14:06.5	91.910	0.470	-1.340	0.770
2020/01/31 05:14:06.6	91.910	0.490	-1.340	0.790
2020/01/31 05:14:06.7	91.910	0.500	-1.330	0.810
2020/01/31 05:14:06.8	91.910	0.510	-1.310	0.830
2020/01/31 05:14:06.9	91.910	0.520	-1.290	0.850
2020/01/31 05:14:07.0	91.910	0.520	-1.250	0.870
2020/01/31 05:14:07.1	91.910	0.520	-1.210	0.890
2020/01/31 05:14:07.2	91.920	0.520	-1.160	0.910
2020/01/31 05:14:07.3	91.920	0.510	-1.100	0.930
2020/01/31 05:14:07.4	91.920	0.500	-1.040	0.960
2020/01/31 05:14:07.5	91.920	0.490	-0.970	0.980
2020/01/31 05:14:07.6	91.920	0.470	-0.890	1.000
2020/01/31 05:14:07.7	91.920	0.450	-0.810	1.030
2020/01/31 05:14:07.8	91.920	0.420	-0.720	1.050
2020/01/31 05:14:07.9	91.920	0.390	-0.630	1.070
2020/01/31 05:14:08.0	91.910	0.360	-0.530	1.090
2020/01/31 05:14:08.1	91.910	0.320	-0.430	1.110
2020/01/31 05:14:08.2	91.900	0.280	-0.320	1.130
2020/01/31 05:14:08.3	91.890	0.240	-0.210	1.150
2020/01/31 05:14:08.4	91.880	0.190	-0.100	1.170
2020/01/31 05:14:08.5	91.870	0.140	0.010	1.180
2020/01/31 05:14:08.6	91.860	0.090	0.120	1.190
2020/01/31 05:14:08.7	91.840	0.040	0.230	1.200
2020/01/31 05:14:08.8	91.830	-0.020	0.330	1.200
2020/01/31 05:14:08.9	91.820	-0.070	0.430	1.210
2020/01/31 05:14:09.0	91.800	-0.130	0.530	1.210
2020/01/31 05:14:09.1	91.790	-0.190	0.630	1.200
2020/01/31 05:14:09.2	91.780	-0.240	0.710	1.200
2020/01/31 05:14:09.3	91.770	-0.290	0.790	1.190
2020/01/31 05:14:09.4	91.760	-0.350	0.870	1.180
2020/01/31 05:14:09.5	91.750	-0.400	0.930	1.160
2020/01/31 05:14:09.6	91.740	-0.450	0.980	1.150
2020/01/31 05:14:09.7	91.730	-0.490	1.030	1.130
2020/01/31 05:14:09.8	91.730	-0.530	1.060	1.100
2020/01/31 05:14:09.9	91.720	-0.570	1.080	1.080
2020/01/31 05:14:10.0	91.720	-0.600	1.090	1.050
2020/01/31 05:14:10.1	91.710	-0.620	1.090	1.020
2020/01/31 05:14:10.2	91.720	-0.640	1.080	0.990
2020/01/31 05:14:10.3	91.720	-0.650	1.050	0.960
2020/01/31 05:14:10.4	91.720	-0.660	1.020	0.920
2020/01/31 05:14:10.5	91.730	-0.660	0.970	0.880
2020/01/31 05:14:10.6	91.730	-0.660	0.910	0.840
2020/01/31 05:14:10.7	91.740	-0.640	0.840	0.800
2020/01/31 05:14:10.8	91.760	-0.620	0.760	0.760
2020/01/31 05:14:10.9	91.770	-0.600	0.670	0.710
2020/01/31 05:14:11.0	91.790	-0.560	0.570	0.660
2020/01/31 05:14:11.1	91.800	-0.520	0.470	0.620
2020/01/31 05:14:11.2	91.820	-0.480	0.350	0.570
2020/01/31 05:14:11.3	91.850	-0.430	0.240	0.520
2020/01/31 05:14:11.4	91.870	-0.370	0.120	0.470
2020/01/31 05:14:11.5	91.890	-0.320	-0.010	0.430
2020/01/31 05:14:11.6	91.910	-0.250	-0.130	0.380
2020/01/31 05:14:11.7	91.940	-0.190	-0.250	0.340
2020/01/31 05:14:11.8	91.960	-0.120	-0.370	0.300
2020/01/31 05:14:11.9	91.990	-0.060	-0.490	0.260
2020/01/31 05:14:12.0	92.010	0.010	-0.600	0.230
2020/01/31 05:14:12.1	92.040	0.070	-0.710	0.190
2020/01/31 05:14:12.2	92.060	0.140	-0.820	0.160
2020/01/31 05:14:12.3	92.080	0.200	-0.910	0.140
2020/01/31 05:14:12.4	92.110	0.260	-0.990	0.120
2020/01/31 05:14:12.5	92.130	0.310	-1.070	0.100
2020/01/31 05:14:12.6	92.150	0.360	-1.130	0.090
2020/01/31 05:14:12.7	92.160	0.410	-1.190	0.090
2020/01/31 05:14:12.8	92.180	0.450	-1.230	0.090
2020/01/31 05:14:12.9	92.190	0.490	-1.260	0.090
2020/01/31 05:14:13.0	92.200	0.520	-1.280	0.100
2020/01/31 05:14:13.1	92.210	0.540	-1.290	0.120
2020/01/31 05:14:13.2	92.210	0.560	-1.290	0.130
2020/01/31 05:14:13.3	92.210	0.570	-1.270	0.150
2020/01/31 05:14:13.4	92.210	0.570	-1.250	0.180
2020/01/31 05:14:13.5	92.210	0.570	-1.210	0.200
2020/01/31 05:14:13.6	92.200	0.560	-1.160	0.230
2020/01/31 05:14:13.7	92.190	0.540	-1.100	0.260
2020/01/31 05:14:13.8	92.180	0.520	-1.030	0.290
2020/01/31 05:14:13.9	92.160	0.490	-0.960	0.330
2020/01/31 05:14:14.0	92.140	0.460	-0.880	0.360
2020/01/31 05:14:14.1	92.120	0.420	-0.790	0.400
2020/01/31 05:14:14.2	92.090	0.380	-0.690	0.430
2020/01/31 05:14:14.3	92.060	0.330	-0.590	0.470
2020/01/31 05:14:14.4	92.030	0.280	-0.480	0.510
2020/01/31 05:14:14.5	92.000	0.220	-0.380	0.550
2020/01/31 05:14:14.6	91.970	0.170	-0.270	0.590
2020/01/31 05:14:14.7	91.930	0.110	-0.160	0.620
2020/01/31 05:14:14.8	91.900	0.050	-0.060	0.660
2020/01/31 05:14:14.9	91.860	-0.010	0.040	0.700
2020/01/31 05:14:15.0	91.830	-0.080	0.140	0.740
2020/01/31 05:14:15.1	91.790	-0.140	0.240	0.770
2020/01/31 05:14:15.2	91.760	-0.200	0.320	0.800
2020/01/31 05:14:15.3	91.730	-0.260	0.400	0.830
2020/01/31 05:14:15.4	91.700	-0.310	0.470	0.860
2020/01/31 05:14:15.5	91.670	-0.370	0.540	0.890
2020/01/31 05:14:15.6	91.650	-0.420	0.590	0.910
2020/01/31 05:14:15.7	91.630	-0.460	0.630	0.930
2020/01/31 05:14:15.8	91.610	-0.500	0.660	0.940
2020/01/31 05:14:15.9	91.600	-0.540	0.680	0.950
2020/01/31 05:14:16.0	91.590	-0.570	0.690	0.960
2020/01/31 05:14:16.1	91.580	-0.600	0.680	0.960
2020/01/31 05:14:16.2	91.580	-0.620	0.670	0.960
2020/01/31 05:14:16.3	91.580	-0.640	0.640	0.950
2020/01/31 05:14:16.4	91.580	-0.650	0.600	0.940
2020/01/31 05:14:16.5	91.590	-0.660	0.550	0.920
2020/01/31 05:14:16.6	91.600	-0.650	0.490	0.900
2020/01/31 05:14:16.7	91.610	-0.650	0.430	0.880
2020/01/31 05:14:16.8	91.620	-0.630	0.350	0.850
2020/01/31 05:14:16.9	91.640	-0.610	0.270	0.820
2020/01/31 05:14:17.0	91.650	-0.590	0.170	0.790
2020/01/31 05:14:17.1	91.670	-0.560	0.080	0.760
2020/01/31 05:14:17.2	91.690	-0.520	-0.020	0.730
2020/01/31 05:14:17.3	91.710	-0.480	-0.120	0.700
2020/01/31 05:14:17.4	91.720	-0.440	-0.220	0.670
2020/01/31 05:14:17.5	91.740	-0.390	-0.320	0.650
2020/01/31 05:14:17.6	91.760	-0.340	-0.420	0.620
2020/01/31 05:14:17.7	91.770	-0.290	-0.510	0.590
2020/01/31 05:14:17.8	91.790	-0.230	-0.600	0.570
2020/01/31 05:14:17.9	91.800	-0.180	-0.680	0.550
2020/01/31 05:14:18.0	91.820	-0.120	-0.760	0.520
2020/01/31 05:14:18.1	91.830	-0.060	-0.830	0.500
2020/01/31 05:14:18.2	91.850	0.000	-0.890	0.480
2020/01/31 05:14:18.3	91.860	0.060	-0.940	0.460
2020/01/31 05:14:18.4	91.870	0.120	-0.980	0.450
2020/01/31 05:14:18.5	91.890	0.180	-1.020	0.430
2020/01/31 05:14:18.6	91.900	0.240	-1.040	0.420
2020/01/31 05:14:18.7	91.910	0.290	-1.050	0.410
2020/01/31 05:14:18.8	91.920	0.350	-1.060	0.400
2020/01/31 05:14:18.9	91.930	0.390	-1.060	0.400
2020/01/31 05:14:19.0	91.930	0.440	-1.040	0.400
2020/01/31 05:14:19.1	91.940	0.480	-1.020	0.410
2020/01/31 05:14:19.2	91.940	0.520	-1.000	0.410
2020/01/31 05:14:19.3	91.940	0.560	-0.960	0.430
2020/01/31 05:14:19.4	91.940	0.590	-0.920	0.450
2020/01/31 05:14:19.5	91.930	0.610	-0.870	0.470
2020/01/31 05:14:19.6	91.930	0.630	-0.820	0.490
2020/01/31 05:14:19.7	91.920	0.650	-0.770	0.520
2020/01/31 05:14:19.8	91.910	0.660	-0.710	0.550
2020/01/31 05:14:19.9	91.900	0.670	-0.650	0.580
2020/01/31 05:14:20.0	91.890	0.670	-0.580	0.620
2020/01/31 05:14:20.1	91.880	0.660	-0.520	0.650
2020/01/31 05:14:20.2	91.860	0.660	-0.450	0.690
2020/01/31 05:14:20.3	91.840	0.640	-0.380	0.720
2020/01/31 05:14:20.4	91.830	0.630	-0.310	0.760
2020/01/31 05:14:20.5	91.820	0.600	-0.250	0.790
2020/01/31 05:14:20.6	91.800	0.580	-0.180	0.820
2020/01/31 05:14:20.7	91.790	0.550	-0.120	0.840
2020/01/31 05:14:20.8	91.780	0.510	-0.060	0.870
2020/01/31 05:14:20.9	91.770	0.480	-0.000	0.890
2020/01/31 05:14:21.0	91.760	0.430	0.050	0.910
2020/01/31 05:14:21.1	91.760	0.390	0.100	0.920
2020/01/31 05:14:21.2	91.750	0.340	0.150	0.930
2020/01/31 05:14:21.3	91.750	0.300	0.190	0.930
2020/01/31 05:14:21.4	91.750	0.250	0.230	0.930
2020/01/31 05:14:21.5	91.750	0.190	0.270	0.930
2020/01/31 05:14:21.6	91.750	0.140	0.300	0.930
2020/01/31 05:14:21.7	91.750	0.090	0.330	0.920
2020/01/31 05:14:21.8	91.760	0.030	0.360	0.900
2020/01/31 05:14:21.9	91.770	-0.020	0.380	0.880
2020/01/31 05:14:22.0	91.780	-0.070	0.400	0.860
2020/01/31 05:14:22.1	91.800	-0.130	0.420	0.840
2020/01/31 05:14:22.2	91.810	-0.180	0.440	0.800
2020/01/31 05:14:22.3	91.830	-0.230	0.450	0.770
2020/01/31 05:14:22.4	91.850	-0.270	0.450	0.750
2020/01/31 05:14:22.5	91.870	-0.320	0.460	0.720
2020/01/31 05:14:22.6	91.890	-0.360	0.460	0.690
2020/01/31 05:14:22.7	91.910	-0.400	0.460	0.660
2020/01/31 05:14:22.8	91.930	-0.430	0.460	0.630
2020/01/31 05:14:22.9	91.960	-0.460	0.450	0.610
2020/01/31 05:14:23.0	91.980	-0.490	0.440	0.590
2020/01/31 05:14:23.1	92.000	-0.510	0.430	0.570
2020/01/31 05:14:23.2	92.020	-0.520	0.410	0.550
2020/01/31 05:14:23.3	92.040	-0.540	0.390	0.540
2020/01/31 05:14:23.4	92.050	-0.540	0.370	0.530
2020/01/31 05:14:23.5	92.070	-0.550	0.340	0.530
2020/01/31 05:14:23.6	92.080	-0.540	0.310	0.530
2020/01/31 05:14:23.7	92.090	-0.530	0.280	0.530
2020/01/31 05:14:23.8	92.100	-0.520	0.240	0.530
2020/01/31 05:14:23.9	92.110	-0.500	0.190	0.540
2020/01/31 05:14:24.0	92.120	-0.480	0.140	0.550
2020/01/31 05:14:24.1	92.120	-0.450	0.090	0.560
2020/01/31 05:14:24.2	92.120	-0.420	0.030	0.570
2020/01/31 05:14:24.3	92.130	-0.380	-0.030	0.580
2020/01/31 05:14:24.4	92.130	-0.340	-0.100	0.590
2020/01/31 05:14:24.5	92.130	-0.300	-0.170	0.610
2020/01/31 05:14:24.6	92.130	-0.250	-0.240	0.620
2020/01/31 05:14:24.7	92.130	-0.200	-0.310	0.630
2020/01/31 05:14:24.8	92.130	-0.150	-0.390	0.650
2020/01/31 05:14:24.9	92.130	-0.100	-0.460	0.660
2020/01/31 05:14:25.0	92.130	-0.040	-0.540	0.670
2020/01/31 05:14:25.1	92.130	0.010	-0.610	0.690
2020/01/31 05:14:25.2	92.130	0.070	-0.690	0.700
2020/01/31 05:14:25.3	92.130	0.120	-0.760	0.710
2020/01/31 05:14:25.4	92.130	0.180	-0.830	0.730
2020/01/31 05:14:25.5	92.130	0.230	-0.890	0.740
2020/01/31 05:14:25.6	92.130	0.280	-0.950	0.750
2020/01/31 05:14:25.7	92.130	0.330	-1.000	0.750
2020/01/31 05:14:25.8	92.130	0.380	-1.040	0.760
2020/01/31 05:14:25.9	92.130	0.420	-1.080	0.770
2020/01/31 05:14:26.0	92.130	0.460	-1.110	0.780
2020/01/31 05:14:26.1	92.140	0.500	-1.140	0.790
2020/01/31 05:14:26.2	92.130	0.530	-1.150	0.790
2020/01/31 05:14:26.3	92.130	0.550	-1.160	0.800
2020/01/31 05:14:26.4	92.130	0.570	-1.150	0.800
2020/01/31 05:14:26.5	92.130	0.590	-1.140	0.800
2020/01/31 05:14:26.6	92.130	0.600	-1.120	0.810
2020/01/31 05:14:26.7	92.130	0.600	-1.090	0.810
2020/01/31 05:14:26.8	92.130	0.600	-1.050	0.810
2020/01/31 05:14:26.9	92.130	0.590	-1.000	0.800
2020/01/31 05:14:27.0	92.130	0.580	-0.950	0.800
2020/01/31 05:14:27.1	92.130	0.560	-0.890	0.800
2020/01/31 05:14:27.2	92.120	0.540	-0.820	0.790
2020/01/31 05:14:27.3	92.120	0.510	-0.750	0.780
2020/01/31 05:14:27.4	92.120	0.480	-0.660	0.780
2020/01/31 05:14:27.5	92.110	0.450	-0.580	0.770
2020/01/31 05:14:27.6	92.110	0.410	-0.490	0.760
2020/01/31 05:14:27.7	92.110	0.360	-0.400	0.740
2020/01/31 05:14:27.8	92.110	0.320	-0.310	0.730
2020/01/31 05:14:27.9	92.100	0.270	-0.220	0.720
2020/01/31 05:14:28.0	92.100	0.220	-0.120	0.700
2020/01/31 05:14:28.1	92.100	0.170	-0.030	0.680
2020/01/31 05:14:28.2	92.100	0.110	0.060	0.650
2020/01/31 05:14:28.3	92.100	0.060	0.140	0.630
2020/01/31 05:14:28.4	92.100	0.010	0.220	0.600
2020/01/31 05:14:28.5	92.110	-0.040	0.300	0.580
2020/01/31 05:14:28.6	92.110	-0.090	0.370	0.550
2020/01/31 05:14:28.7	92.120	-0.140	0.430	0.510
2020/01/31 05:14:28.8	92.120	-0.180	0.490	0.480
2020/01/31 05:14:28.9	92.130	-0.230	0.540	0.450
2020/01/31 05:14:29.0	92.140	-0.270	0.580	0.410
2020/01/31 05:14:29.1	92.150	-0.310	0.620	0.380
2020/01/31 05:14:29.2	92.160	-0.340	0.640	0.340
2020/01/31 05:14:29.3	92.170	-0.370	0.660	0.310
2020/01/31 05:14:29.4	92.190	-0.400	0.680	0.280
2020/01/31 05:14:29.5	92.200	-0.430	0.690	0.260
2020/01/31 05:14:29.6	92.220	-0.450	0.680	0.230
2020/01/31 05:14:29.7	92.230	-0.470	0.680	0.210
2020/01/31 05:14:29.8	92.250	-0.480	0.660	0.190
2020/01/31 05:14:29.9	92.260	-0.490	0.640	0.170
2020/01/31 05:14:30.0	92.280	-0.490	0.610	0.160
2020/01/31 05:14:30.1	92.290	-0.490	0.570	0.150
2020/01/31 05:14:30.2	92.310	-0.490	0.530	0.150
2020/01/31 05:14:30.3	92.330	-0.480	0.480	0.150
2020/01/31 05:14:30.4	92.340	-0.470	0.430	0.150
2020/01/31 05:14:30.5	92.360	-0.460	0.370	0.160
2020/01/31 05:14:30.6	92.370	-0.440	0.300	0.170
2020/01/31 05:14:30.7	92.380	-0.410	0.230	0.180
2020/01/31 05:14:30.8	92.400	-0.390	0.160	0.200
2020/01/31 05:14:30.9	92.410	-0.360	0.080	0.220
2020/01/31 05:14:31.0	92.420	-0.330	-0.000	0.240
2020/01/31 05:14:31.1	92.430	-0.300	-0.080	0.270
2020/01/31 05:14:31.2	92.430	-0.270	-0.170	0.290
2020/01/31 05:14:31.3	92.440	-0.230	-0.250	0.320
2020/01/31 05:14:31.4	92.450	-0.200	-0.330	0.350
2020/01/31 05:14:31.5	92.460	-0.160	-0.410	0.380
2020/01/31 05:14:31.6	92.460	-0.130	-0.490	0.410
2020/01/31 05:14:31.7	92.470	-0.100	-0.570	0.430
2020/01/31 05:14:31.8	92.470	-0.060	-0.640	0.460
2020/01/31 05:14:31.9	92.480	-0.030	-0.700	0.480
2020/01/31 05:14:32.0	92.490	-0.000	-0.760	0.510
2020/01/31 05:14:32.1	92.490	0.020	-0.820	0.530
2020/01/31 05:14:32.2	92.500	0.050	-0.860	0.560
2020/01/31 05:14:32.3	92.500	0.070	-0.900	0.580
2020/01/31 05:14:32.4	92.510	0.090	-0.930	0.600
2020/01/31 05:14:32.5	92.510	0.100	-0.950	0.620
2020/01/31 05:14:32.6	92.510	0.120	-0.970	0.640
2020/01/31 05:14:32.7	92.510	0.130	-0.970	0.670
2020/01/31 05:14:32.8	92.510	0.130	-0.970	0.690
2020/01/31 05:14:32.9	92.510	0.140	-0.950	0.710
2020/01/31 05:14:33.0	92.510	0.140	-0.930	0.730
2020/01/31 05:14:33.1	92.510	0.140	-0.900	0.750
2020/01/31 05:14:33.2	92.500	0.130	-0.850	0.770
2020/01/31 05:14:33.3	92.490	0.120	-0.800	0.790
2020/01/31 05:14:33.4	92.490	0.110	-0.750	0.810
2020/01/31 05:14:33.5	92.480	0.100	-0.690	0.830
2020/01/31 05:14:33.6	92.470	0.080	-0.620	0.840
2020/01/31 05:14:33.7	92.450	0.060	-0.550	0.860
2020/01/31 05:14:33.8	92.440	0.040	-0.480	0.870
2020/01/31 05:14:33.9	92.430	0.020	-0.400	0.880
2020/01/31 05:14:34.0	92.410	0.000	-0.320	0.890
2020/01/31 05:14:34.1	92.390	-0.020	-0.240	0.900
2020/01/31 05:14:34.2	92.370	-0.040	-0.170	0.910
2020/01/31 05:14:34.3	92.350	-0.070	-0.090	0.910
2020/01/31 05:14:34.4	92.330	-0.090	-0.010	0.920
2020/01/31 05:14:34.5	92.320	-0.110	0.060	0.920
2020/01/31 05:14:34.6	92.300	-0.130	0.130	0.920
2020/01/31 05:14:34.7	92.280	-0.140	0.190	0.910
2020/01/31 05:14:34.8	92.260	-0.160	0.250	0.900
2020/01/31 05:14:34.9	92.250	-0.170	0.300	0.890
2020/01/31 05:14:35.0	92.230	-0.180	0.340	0.880
2020/01/31 05:14:35.1	92.220	-0.190	0.370	0.860
2020/01/31 05:14:35.2	92.220	-0.190	0.400	0.830
2020/01/31 05:14:35.3	92.210	-0.190	0.420	0.800
2020/01/31 05:14:35.4	92.210	-0.190	0.430	0.770
2020/01/31 05:14:35.5	92.210	-0.180	0.430	0.730
2020/01/31 05:14:35.6	92.210	-0.170	0.420	0.690
2020/01/31 05:14:35.7	92.210	-0.160	0.400	0.650
2020/01/31 05:14:35.8	92.220	-0.140	0.370	0.600
2020/01/31 05:14:35.9	92.230	-0.120	0.330	0.550
2020/01/31 05:14:36.0	92.240	-0.090	0.290	0.500
2020/01/31 05:14:36.1	92.260	-0.060	0.240	0.450
2020/01/31 05:14:36.2	92.270	-0.030	0.180	0.400
2020/01/31 05:14:36.3	92.280	0.000	0.110	0.350
2020/01/31 05:14:36.4	92.300	0.040	0.040	0.300
2020/01/31 05:14:36.5	92.310	0.080	-0.040	0.260
2020/01/31 05:14:36.6	92.320	0.120	-0.120	0.210
2020/01/31 05:14:36.7	92.330	0.160	-0.200	0.170
2020/01/31 05:14:36.8	92.340	0.200	-0.280	0.130
2020/01/31 05:14:36.9	92.350	0.240	-0.360	0.100
2020/01/31 05:14:37.0	92.360	0.290	-0.440	0.070
2020/01/31 05:14:37.1	92.370	0.330	-0.520	0.040
2020/01/31 05:14:37.2	92.380	0.370	-0.600	0.010
2020/01/31 05:14:37.3	92.380	0.410	-0.670	-0.010
2020/01/31 05:14:37.4	92.390	0.440	-0.730	-0.030
2020/01/31 05:14:37.5	92.390	0.480	-0.790	-0.040
2020/01/31 05:14:37.6	92.400	0.510	-0.840	-0.050
2020/01/31 05:14:37.7	92.400	0.540	-0.880	-0.060
2020/01/31 05:14:37.8	92.410	0.570	-0.920	-0.060
2020/01/31 05:14:37.9	92.410	0.590	-0.940	-0.060
2020/01/31 05:14:38.0	92.410	0.610	-0.960	-0.050
2020/01/31 05:14:38.1	92.420	0.620	-0.970	-0.040
2020/01/31 05:14:38.2	92.420	0.630	-0.960	-0.030
2020/01/31 05:14:38.3	92.420	0.640	-0.950	-0.010
2020/01/31 05:14:38.4	92.420	0.640	-0.930	0.020
2020/01/31 05:14:38.5	92.420	0.640	-0.910	0.040
2020/01/31 05:14:38.6	92.420	0.640	-0.870	0.070
2020/01/31 05:14:38.7	92.420	0.630	-0.830	0.110
2020/01/31 05:14:38.8	92.420	0.610	-0.780	0.140
2020/01/31 05:14:38.9	92.420	0.600	-0.730	0.180
2020/01/31 05:14:39.0	92.420	0.580	-0.670	0.220
2020/01/31 05:14:39.1	92.420	0.560	-0.610	0.270
2020/01/31 05:14:39.2	92.420	0.540	-0.550	0.310
2020/01/31 05:14:39.3	92.410	0.510	-0.480	0.360
2020/01/31 05:14:39.4	92.410	0.480	-0.420	0.410
2020/01/31 05:14:39.5	92.400	0.450	-0.350	0.460
2020/01/31 05:14:39.6	92.400	0.430	-0.290	0.510
2020/01/31 05:14:39.7	92.390	0.390	-0.220	0.560
2020/01/31 05:14:39.8	92.390	0.360	-0.160	0.610
2020/01/31 05:14:39.9	92.380	0.330	-0.100	0.650
2020/01/31 05:14:40.0	92.370	0.300	-0.040	0.700
2020/01/31 05:14:40.1	92.370	0.270	0.010	0.750
2020/01/31 05:14:40.2	92.360	0.230	0.060	0.800
2020/01/31 05:14:40.3	92.350	0.200	0.110	0.840
2020/01/31 05:14:40.4	92.340	0.170	0.150	0.880
2020/01/31 05:14:40.5	92.340	0.140	0.190	0.920
2020/01/31 05:14:40.6	92.330	0.100	0.230	0.960
2020/01/31 05:14:40.7	92.320	0.070	0.260	1.000
2020/01/31 05:14:40.8	92.320	0.040	0.290	1.040
2020/01/31 05:14:40.9	92.310	0.010	0.310	1.070
2020/01/31 05:14:41.0	92.300	-0.030	0.340	1.100
2020/01/31 05:14:41.1	92.290	-0.060	0.350	1.120
2020/01/31 05:14:41.2	92.280	-0.090	0.370	1.150
2020/01/31 05:14:41.3	92.280	-0.120	0.380	1.170
2020/01/31 05:14:41.4	92.270	-0.150	0.390	1.190
2020/01/31 05:14:41.5	92.270	-0.180	0.390	1.210
2020/01/31 05:14:41.6	92.260	-0.210	0.390	1.220
2020/01/31 05:14:41.7	92.260	-0.240	0.390	1.230
2020/01/31 05:14:41.8	92.250	-0.270	0.380	1.240
2020/01/31 05:14:41.9	92.250	-0.300	0.370	1.250
2020/01/31 05:14:42.0	92.240	-0.320	0.360	1.250
2020/01/31 05:14:42.1	92.240	-0.350	0.340	1.260
2020/01/31 05:14:42.2	92.240	-0.370	0.310	1.250
2020/01/31 05:14:42.3	92.240	-0.390	0.290	1.250
2020/01/31 05:14:42.4	92.240	-0.410	0.260	1.250
2020/01/31 05:14:42.5	92.240	-0.430	0.230	1.240
2020/01/31 05:14:42.6	92.240	-0.450	0.200	1.230
2020/01/31 05:14:42.7	92.230	-0.470	0.160	1.220
2020/01/31 05:14:42.8	92.240	-0.480	0.120	1.220
2020/01/31 05:14:42.9	92.240	-0.490	0.080	1.210
2020/01/31 05:14:43.0	92.240	-0.500	0.040	1.190
2020/01/31 05:14:43.1	92.240	-0.510	0.000	1.180
2020/01/31 05:14:43.2	92.240	-0.510	-0.040	1.170
2020/01/31 05:14:43.3	92.240	-0.520	-0.080	1.160
2020/01/31 05:14:43.4	92.240	-0.520	-0.120	1.140
2020/01/31 05:14:43.5	92.250	-0.510	-0.160	1.130
2020/01/31 05:14:43.6	92.250	-0.510	-0.200	1.110
2020/01/31 05:14:43.7	92.250	-0.500	-0.230	1.100
2020/01/31 05:14:43.8	92.250	-0.500	-0.270	1.080
2020/01/31 05:14:43.9	92.260	-0.490	-0.300	1.060
2020/01/31 05:14:44.0	92.260	-0.470	-0.330	1.040
2020/01/31 05:14:44.1	92.270	-0.460	-0.350	1.020
2020/01/31 05:14:44.2	92.270	-0.440	-0.380	0.990
2020/01/31 05:14:44.3	92.280	-0.430	-0.400	0.970
2020/01/31 05:14:44.4	92.280	-0.410	-0.420	0.940
2020/01/31 05:14:44.5	92.290	-0.390	-0.440	0.910
2020/01/31 05:14:44.6	92.300	-0.360	-0.460	0.890
2020/01/31 05:14:44.7	92.310	-0.340	-0.470	0.860
2020/01/31 05:14:44.8	92.320	-0.320	-0.480	0.830
2020/01/31 05:14:44.9	92.340	-0.290	-0.490	0.800
2020/01/31 05:14:45.0	92.350	-0.270	-0.500	0.770
2020/01/31 05:14:45.1	92.370	-0.240	-0.510	0.740
2020/01/31 05:14:45.2	92.390	-0.220	-0.510	0.720
2020/01/31 05:14:45.3	92.400	-0.190	-0.510	0.690
2020/01/31 05:14:45.4	92.420	-0.170	-0.520	0.660
2020/01/31 05:14:45.5	92.440	-0.140	-0.520	0.640
2020/01/31 05:14:45.6	92.460	-0.120	-0.520	0.620
2020/01/31 05:14:45.7	92.480	-0.090	-0.520	0.600
2020/01/31 05:14:45.8	92.500	-0.070	-0.520	0.580
2020/01/31 05:14:45.9	92.520	-0.040	-0.520	0.570
2020/01/31 05:14:46.0	92.540	-0.020	-0.510	0.560
2020/01/31 05:14:46.1	92.550	-0.000	-0.510	0.550
2020/01/31 05:14:46.2	92.570	0.020	-0.510	0.540
2020/01/31 05:14:46.3	92.590	0.040	-0.500	0.540
2020/01/31 05:14:46.4	92.600	0.060	-0.500	0.540
2020/01/31 05:14:46.5	92.620	0.080	-0.500	0.550
2020/01/31 05:14:46.6	92.630	0.090	-0.500	0.560
2020/01/31 05:14:46.7	92.630	0.110	-0.490	0.570
2020/01/31 05:14:46.8	92.640	0.120	-0.490	0.580
2020/01/31 05:14:46.9	92.640	0.140	-0.480	0.590
2020/01/31 05:14:47.0	92.650	0.150	-0.480	0.600
2020/01/31 05:14:47.1	92.640	0.160	-0.480	0.620
2020/01/31 05:14:47.2	92.640	0.170	-0.470	0.630
2020/01/31 05:14:47.3	92.640	0.180	-0.470	0.650
2020/01/31 05:14:47.4	92.630	0.190	-0.460	0.660
2020/01/31 05:14:47.5	92.620	0.200	-0.460	0.680
2020/01/31 05:14:47.6	92.600	0.210	-0.450	0.690
2020/01/31 05:14:47.7	92.590	0.220	-0.450	0.710
2020/01/31 05:14:47.8	92.570	0.230	-0.440	0.720
2020/01/31 05:14:47.9	92.550	0.240	-0.440	0.730
2020/01/31 05:14:48.0	92.530	0.240	-0.430	0.740
2020/01/31 05:14:48.1	92.510	0.250	-0.420	0.740
2020/01/31 05:14:48.2	92.490	0.260	-0.410	0.750
2020/01/31 05:14:48.3	92.470	0.260	-0.400	0.750
2020/01/31 05:14:48.4	92.440	0.270	-0.390	0.760
2020/01/31 05:14:48.5	92.420	0.280	-0.380	0.760
2020/01/31 05:14:48.6	92.400	0.280	-0.370	0.760
2020/01/31 05:14:48.7	92.370	0.290	-0.360	0.760
2020/01/31 05:14:48.8	92.350	0.290	-0.340	0.760
2020/01/31 05:14:48.9	92.330	0.300	-0.330	0.760
2020/01/31 05:14:49.0	92.310	0.300	-0.310	0.750
2020/01/31 05:14:49.1	92.290	0.300	-0.290	0.750
2020/01/31 05:14:49.2	92.270	0.300	-0.270	0.740
2020/01/31 05:14:49.3	92.260	0.300	-0.250	0.740
2020/01/31 05:14:49.4	92.240	0.290	-0.230	0.730
2020/01/31 05:14:49.5	92.230	0.290	-0.210	0.730
2020/01/31 05:14:49.6	92.220	0.290	-0.180	0.720
2020/01/31 05:14:49.7	92.210	0.280	-0.160	0.720
2020/01/31 05:14:49.8	92.200	0.270	-0.140	0.710
2020/01/31 05:14:49.9	92.190	0.260	-0.110	0.700
2020/01/31 05:14:50.0	92.180	0.250	-0.090	0.690
2020/01/31 05:14:50.1	92.180	0.240	-0.070	0.690
2020/01/31 05:14:50.2	92.170	0.230	-0.040	0.680
2020/01/31 05:14:50.3	92.170	0.210	-0.020	0.660
2020/01/31 05:14:50.4	92.160	0.200	0.000	0.650
2020/01/31 05:14:50.5	92.160	0.180	0.020	0.640
2020/01/31 05:14:50.6	92.170	0.170	0.040	0.620
2020/01/31 05:14:50.7	92.170	0.150	0.060	0.600
2020/01/31 05:14:50.8	92.170	0.130	0.080	0.580
2020/01/31 05:14:50.9	92.180	0.120	0.090	0.550
2020/01/31 05:14:51.0	92.190	0.100	0.110	0.530
2020/01/31 05:14:51.1	92.200	0.080	0.120	0.500
2020/01/31 05:14:51.2	92.210	0.060	0.130	0.460
2020/01/31 05:14:51.3	92.220	0.050	0.140	0.430
2020/01/31 05:14:51.4	92.230	0.030	0.140	0.400
2020/01/31 05:14:51.5	92.250	0.010	0.140	0.360
2020/01/31 05:14:51.6	92.260	-0.000	0.150	0.330
2020/01/31 05:14:51.7	92.280	-0.010	0.150	0.290
2020/01/31 05:14:51.8	92.290	-0.030	0.140	0.260
2020/01/31 05:14:51.9	92.310	-0.040	0.140	0.220
2020/01/31 05:14:52.0	92.320	-0.050	0.130	0.190
2020/01/31 05:14:52.1	92.340	-0.050	0.120	0.160
2020/01/31 05:14:52.2	92.360	-0.060	0.100	0.130
2020/01/31 05:14:52.3	92.370	-0.070	0.090	0.110
2020/01/31 05:14:52.4	92.390	-0.070	0.070	0.090
2020/01/31 05:14:52.5	92.410	-0.070	0.050	0.080
2020/01/31 05:14:52.6	92.420	-0.070	0.030	0.070
2020/01/31 05:14:52.7	92.440	-0.060	0.010	0.070
2020/01/31 05:14:52.8	92.450	-0.060	-0.020	0.070
2020/01/31 05:14:52.9	92.470	-0.050	-0.040	0.070
2020/01/31 05:14:53.0	92.480	-0.040	-0.070	0.090
2020/01/31 05:14:53.1	92.500	-0.040	-0.100	0.110
2020/01/31 05:14:53.2	92.510	-0.020	-0.140	0.130
2020/01/31 05:14:53.3	92.530	-0.010	-0.170	0.160
2020/01/31 05:14:53.4	92.540	-0.000	-0.210	0.190
2020/01/31 05:14:53.5	92.550	0.010	-0.240	0.230
2020/01/31 05:14:53.6	92.560	0.030	-0.280	0.270
2020/01/31 05:14:53.7	92.570	0.040	-0.320	0.310
2020/01/31 05:14:53.8	92.580	0.050	-0.350	0.360
2020/01/31 05:14:53.9	92.590	0.070	-0.390	0.410
2020/01/31 05:14:54.0	92.590	0.080	-0.430	0.450
2020/01/31 05:14:54.1	92.590	0.100	-0.460	0.500
2020/01/31 05:14:54.2	92.600	0.110	-0.500	0.540
2020/01/31 05:14:54.3	92.600	0.120	-0.530	0.590
2020/01/31 05:14:54.4	92.600	0.130	-0.560	0.620
2020/01/31 05:14:54.5	92.600	0.140	-0.590	0.660
2020/01/31 05:14:54.6	92.600	0.150	-0.620	0.690
2020/01/31 05:14:54.7	92.600	0.150	-0.640	0.720
2020/01/31 05:14:54.8	92.590	0.160	-0.650	0.750
2020/01/31 05:14:54.9	92.590	0.170	-0.670	0.770
2020/01/31 05:14:55.0	92.580	0.170	-0.680	0.800
2020/01/31 05:14:55.1	92.580	0.170	-0.680	0.820
2020/01/31 05:14:55.2	92.570	0.170	-0.680	0.830
2020/01/31 05:14:55.3	92.560	0.170	-0.680	0.850
2020/01/31 05:14:55.4	92.550	0.170	-0.670	0.870
2020/01/31 05:14:55.5	92.550	0.170	-0.660	0.890
2020/01/31 05:14:55.6	92.540	0.170	-0.650	0.910
2020/01/31 05:14:55.7	92.530	0.170	-0.630	0.930
2020/01/31 05:14:55.8	92.520	0.160	-0.610	0.960
2020/01/31 05:14:55.9	92.500	0.160	-0.580	0.980
2020/01/31 05:14:56.0	92.490	0.150	-0.560	1.010
2020/01/31 05:14:56.1	92.480	0.140	-0.520	1.030
2020/01/31 05:14:56.2	92.450	0.140	-0.490	1.060
2020/01/31 05:14:56.3	92.440	0.130	-0.460	1.090
2020/01/31 05:14:56.4	92.420	0.120	-0.420	1.120
2020/01/31 05:14:56.5	92.400	0.110	-0.380	1.150
2020/01/31 05:14:56.6	92.380	0.100	-0.340	1.180
2020/01/31 05:14:56.7	92.370	0.080	-0.300	1.210
2020/01/31 05:14:56.8	92.350	0.070	-0.250	1.240
2020/01/31 05:14:56.9	92.330	0.060	-0.210	1.260
2020/01/31 05:14:57.0	92.320	0.040	-0.160	1.290
2020/01/31 05:14:57.1	92.310	0.020	-0.120	1.310
2020/01/31 05:14:57.2	92.300	0.000	-0.070	1.330
2020/01/31 05:14:57.3	92.290	-0.020	-0.030	1.340
2020/01/31 05:14:57.4	92.280	-0.040	0.020	1.350
2020/01/31 05:14:57.5	92.270	-0.070	0.060	1.360
2020/01/31 05:14:57.6	92.260	-0.090	0.100	1.360
2020/01/31 05:14:57.7	92.260	-0.120	0.140	1.360
2020/01/31 05:14:57.8	92.260	-0.150	0.170	1.350
2020/01/31 05:14:57.9	92.250	-0.180	0.210	1.340
2020/01/31 05:14:58.0	92.250	-0.210	0.240	1.320
2020/01/31 05:14:58.1	92.250	-0.240	0.270	1.300
2020/01/31 05:14:58.2	92.250	-0.270	0.290	1.280
2020/01/31 05:14:58.3	92.260	-0.300	0.320	1.250
2020/01/31 05:14:58.4	92.260	-0.330	0.330	1.210
2020/01/31 05:14:58.5	92.270	-0.350	0.350	1.180
2020/01/31 05:14:58.6	92.270	-0.380	0.350	1.140
2020/01/31 05:14:58.7	92.280	-0.410	0.360	1.090
2020/01/31 05:14:58.8	92.290	-0.430	0.360	1.050
2020/01/31 05:14:58.9	92.300	-0.450	0.350	1.000
2020/01/31 05:14:59.0	92.310	-0.470	0.340	0.950
2020/01/31 05:14:59.1	92.320	-0.490	0.330	0.900
2020/01/31 05:14:59.2	92.340	-0.500	0.310	0.850
2020/01/31 05:14:59.3	92.350	-0.510	0.290	0.800
2020/01/31 05:14:59.4	92.370	-0.510	0.260	0.750
2020/01/31 05:14:59.5	92.380	-0.520	0.230	0.710
2020/01/31 05:14:59.6	92.400	-0.520	0.200	0.670
2020/01/31 05:14:59.7	92.420	-0.510	0.160	0.630
2020/01/31 05:14:59.8	92.430	-0.500	0.130	0.590
2020/01/31 05:14:59.9	92.450	-0.490	0.080	0.560
2020/01/31 05:15:00.0	92.460	-0.470	0.040	0.530
2020/01/31 05:15:00.1	92.480	-0.460	-0.000	0.500
2020/01/31 05:15:00.2	92.490	-0.430	-0.050	0.480
2020/01/31 05:15:00.3	92.500	-0.410	-0.090	0.460
2020/01/31 05:15:00.4	92.510	-0.390	-0.140	0.450
2020/01/31 05:15:00.5	92.520	-0.360	-0.180	0.430
2020/01/31 05:15:00.6	92.530	-0.330	-0.230	0.420
2020/01/31 05:15:00.7	92.540	-0.300	-0.270	0.410
2020/01/31 05:15:00.8	92.540	-0.260	-0.310	0.410
2020/01/31 05:15:00.9	92.540	-0.230	-0.350	0.400
2020/01/31 05:15:01.0	92.540	-0.200	-0.390	0.400
2020/01/31 05:15:01.1	92.540	-0.170	-0.430	0.400
2020/01/31 05:15:01.2	92.540	-0.130	-0.460	0.400
2020/01/31 05:15:01.3	92.540	-0.100	-0.490	0.400
2020/01/31 05:15:01.4	92.530	-0.070	-0.520	0.400
2020/01/31 05:15:01.5	92.530	-0.040	-0.550	0.400
2020/01/31 05:15:01.6	92.520	-0.010	-0.570	0.400
2020/01/31 05:15:01.7	92.510	0.020	-0.590	0.400
2020/01/31 05:15:01.8	92.500	0.050	-0.610	0.400
2020/01/31 05:15:01.9	92.490	0.080	-0.630	0.410
2020/01/31 05:15:02.0	92.480	0.110	-0.640	0.410
2020/01/31 05:15:02.1	92.470	0.130	-0.660	0.420
2020/01/31 05:15:02.2	92.460	0.160	-0.670	0.420
2020/01/31 05:15:02.3	92.450	0.190	-0.680	0.430
2020/01/31 05:15:02.4	92.430	0.210	-0.690	0.440
2020/01/31 05:15:02.5	92.420	0.230	-0.700	0.450
2020/01/31 05:15:02.6	92.410	0.260	-0.700	0.460
2020/01/31 05:15:02.7	92.390	0.280	-0.710	0.470
2020/01/31 05:15:02.8	92.380	0.300	-0.720	0.480
2020/01/31 05:15:02.9	92.370	0.320	-0.720	0.490
2020/01/31 05:15:03.0	92.360	0.350	-0.730	0.500
2020/01/31 05:15:03.1	92.350	0.370	-0.730	0.520
2020/01/31 05:15:03.2	92.330	0.390	-0.730	0.530
2020/01/31 05:15:03.3	92.320	0.410	-0.730	0.540
2020/01/31 05:15:03.4	92.310	0.430	-0.730	0.550
2020/01/31 05:15:03.5	92.310	0.450	-0.720	0.560
2020/01/31 05:15:03.6	92.300	0.470	-0.720	0.570
2020/01/31 05:15:03.7	92.290	0.490	-0.710	0.580
2020/01/31 05:15:03.8	92.290	0.510	-0.700	0.590
2020/01/31 05:15:03.9	92.280	0.520	-0.690	0.600
2020/01/31 05:15:04.0	92.280	0.540	-0.680	0.610
2020/01/31 05:15:04.1	92.270	0.550	-0.660	0.620
2020/01/31 05:15:04.2	92.270	0.560	-0.640	0.620
2020/01/31 05:15:04.3	92.270	0.570	-0.610	0.620
2020/01/31 05:15:04.4	92.270	0.580	-0.590	0.620
2020/01/31 05:15:04.5	92.270	0.580	-0.560	0.620
2020/01/31 05:15:04.6	92.280	0.580	-0.530	0.620
2020/01/31 05:15:04.7	92.280	0.580	-0.490	0.610
2020/01/31 05:15:04.8	92.280	0.570	-0.450	0.610
2020/01/31 05:15:04.9	92.290	0.560	-0.410	0.600
2020/01/31 05:15:05.0	92.300	0.550	-0.370	0.600
2020/01/31 05:15:05.1	92.310	0.530	-0.320	0.590
2020/01/31 05:15:05.2	92.310	0.510	-0.270	0.580
2020/01/31 05:15:05.3	92.320	0.490	-0.220	0.580
2020/01/31 05:15:05.4	92.320	0.460	-0.170	0.580
2020/01/31 05:15:05.5	92.330	0.430	-0.110	0.580
2020/01/31 05:15:05.6	92.330	0.390	-0.060	0.590
2020/01/31 05:15:05.7	92.340	0.360	-0.000	0.590
2020/01/31 05:15:05.8	92.340	0.310	0.050	0.600
2020/01/31 05:15:05.9	92.340	0.270	0.110	0.620
2020/01/31 05:15:06.0	92.340	0.230	0.160	0.630
2020/01/31 05:15:06.1	92.340	0.180	0.220	0.650
2020/01/31 05:15:06.2	92.330	0.130	0.260	0.670
2020/01/31 05:15:06.3	92.330	0.080	0.310	0.690
2020/01/31 05:15:06.4	92.320	0.030	0.360	0.720
2020/01/31 05:15:06.5	92.310	-0.020	0.400	0.740
2020/01/31 05:15:06.6	92.300	-0.070	0.430	0.770
2020/01/31 05:15:06.7	92.290	-0.120	0.470	0.790
2020/01/31 05:15:06.8	92.280	-0.170	0.490	0.810
2020/01/31 05:15:06.9	92.270	-0.220	0.520	0.840
2020/01/31 05:15:07.0	92.260	-0.270	0.530	0.860
2020/01/31 05:15:07.1	92.250	-0.310	0.540	0.880
2020/01/31 05:15:07.2	92.240	-0.350	0.550	0.900
2020/01/31 05:15:07.3	92.230	-0.390	0.550	0.910
2020/01/31 05:15:07.4	92.220	-0.420	0.540	0.920
2020/01/31 05:15:07.5	92.210	-0.450	0.530	0.930
2020/01/31 05:15:07.6	92.200	-0.480	0.510	0.940
2020/01/31 05:15:07.7	92.190	-0.500	0.480	0.940
2020/01/31 05:15:07.8	92.190	-0.520	0.450	0.940
2020/01/31 05:15:07.9	92.180	-0.530	0.410	0.940
2020/01/31 05:15:08.0	92.170	-0.540	0.370	0.940
2020/01/31 05:15:08.1	92.170	-0.540	0.320	0.940
2020/01/31 05:15:08.2	92.160	-0.540	0.260	0.930
2020/01/31 05:15:08.3	92.150	-0.540	0.200	0.920
2020/01/31 05:15:08.4	92.150	-0.530	0.140	0.920
2020/01/31 05:15:08.5	92.140	-0.510	0.070	0.920
2020/01/31 05:15:08.6	92.130	-0.490	0.000	0.920
2020/01/31 05:15:08.7	92.120	-0.470	-0.070	0.920
2020/01/31 05:15:08.8	92.110	-0.450	-0.140	0.920
2020/01/31 05:15:08.9	92.100	-0.420	-0.210	0.920
2020/01/31 05:15:09.0	92.090	-0.390	-0.280	0.930
2020/01/31 05:15:09.1	92.080	-0.350	-0.350	0.930
2020/01/31 05:15:09.2	92.070	-0.320	-0.420	0.930
2020/01/31 05:15:09.3	92.050	-0.280	-0.490	0.940
2020/01/31 05:15:09.4	92.040	-0.240	-0.550	0.940
2020/01/31 05:15:09.5	92.030	-0.210	-0.610	0.950
2020/01/31 05:15:09.6	92.030	-0.170	-0.670	0.950
2020/01/31 05:15:09.7	92.020	-0.130	-0.720	0.950
2020/01/31 05:15:09.8	92.020	-0.090	-0.760	0.940
2020/01/31 05:15:09.9	92.010	-0.050	-0.800	0.940
2020/01/31 05:15:10.0	92.020	-0.020	-0.840	0.930
2020/01/31 05:15:10.1	92.020	0.020	-0.870	0.920
2020/01/31 05:15:10.2	92.020	0.050	-0.890	0.910
2020/01/31 05:15:10.3	92.030	0.080	-0.910	0.890
2020/01/31 05:15:10.4	92.040	0.110	-0.920	0.880
2020/01/31 05:15:10.5	92.060	0.130	-0.930	0.860
2020/01/31 05:15:10.6	92.070	0.160	-0.930	0.840
2020/01/31 05:15:10.7	92.090	0.180	-0.920	0.820
2020/01/31 05:15:10.8	92.110	0.200	-0.910	0.800
2020/01/31 05:15:10.9	92.130	0.220	-0.900	0.780
2020/01/31 05:15:11.0	92.160	0.240	-0.880	0.760
2020/01/31 05:15:11.1	92.180	0.250	-0.850	0.740
2020/01/31 05:15:11.2	92.210	0.260	-0.820	0.730
2020/01/31 05:15:11.3	92.230	0.270	-0.790	0.710
2020/01/31 05:15:11.4	92.260	0.280	-0.750	0.700
2020/01/31 05:15:11.5	92.280	0.280	-0.710	0.690
2020/01/31 05:15:11.6	92.300	0.290	-0.670	0.680
2020/01/31 05:15:11.7	92.330	0.290	-0.630	0.680
2020/01/31 05:15:11.8	92.350	0.290	-0.580	0.680
2020/01/31 05:15:11.9	92.360	0.290	-0.530	0.680
2020/01/31 05:15:12.0	92.380	0.290	-0.480	0.690
2020/01/31 05:15:12.1	92.390	0.280	-0.430	0.700
2020/01/31 05:15:12.2	92.400	0.280	-0.380	0.710
2020/01/31 05:15:12.3	92.410	0.270	-0.330	0.720
2020/01/31 05:15:12.4	92.410	0.260	-0.270	0.740
2020/01/31 05:15:12.5	92.410	0.240	-0.220	0.760
2020/01/31 05:15:12.6	92.410	0.230	-0.160	0.780
2020/01/31 05:15:12.7	92.400	0.210	-0.100	0.800
2020/01/31 05:15:12.8	92.390	0.190	-0.040	0.820
2020/01/31 05:15:12.9	92.380	0.170	0.010	0.840
2020/01/31 05:15:13.0	92.370	0.140	0.070	0.860
2020/01/31 05:15:13.1	92.350	0.110	0.130	0.870
2020/01/31 05:15:13.2	92.330	0.080	0.190	0.890
2020/01/31 05:15:13.3	92.310	0.050	0.250	0.900
2020/01/31 05:15:13.4	92.290	0.010	0.300	0.910
2020/01/31 05:15:13.5	92.260	-0.030	0.350	0.920
2020/01/31 05:15:13.6	92.240	-0.070	0.400	0.930
2020/01/31 05:15:13.7	92.210	-0.110	0.450	0.940
2020/01/31 05:15:13.8	92.180	-0.160	0.490	0.940
2020/01/31 05:15:13.9	92.150	-0.200	0.530	0.940
2020/01/31 05:15:14.0	92.120	-0.250	0.570	0.940
2020/01/31 05:15:14.1	92.090	-0.290	0.600	0.940
2020/01/31 05:15:14.2	92.060	-0.340	0.630	0.940
2020/01/31 05:15:14.3	92.030	-0.380	0.640	0.940
2020/01/31 05:15:14.4	92.000	-0.430	0.660	0.940
2020/01/31 05:15:14.5	91.970	-0.470	0.660	0.940
2020/01/31 05:15:14.6	91.940	-0.510	0.660	0.940
2020/01/31 05:15:14.7	91.920	-0.540	0.660	0.940
2020/01/31 05:15:14.8	91.890	-0.580	0.640	0.940
2020/01/31 05:15:14.9	91.870	-0.610	0.620	0.930
2020/01/31 05:15:15.0	91.850	-0.630	0.590	0.930
2020/01/31 05:15:15.1	91.830	-0.650	0.560	0.930
2020/01/31 05:15:15.2	91.810	-0.670	0.520	0.920
2020/01/31 05:15:15.3	91.800	-0.680	0.470	0.910
2020/01/31 05:15:15.4	91.790	-0.680	0.410	0.900
2020/01/31 05:15:15.5	91.780	-0.680	0.350	0.890
2020/01/31 05:15:15.6	91.780	-0.670	0.270	0.880
2020/01/31 05:15:15.7	91.780	-0.650	0.200	0.860
2020/01/31 05:15:15.8	91.780	-0.630	0.110	0.840
2020/01/31 05:15:15.9	91.790	-0.600	0.020	0.820
2020/01/31 05:15:16.0	91.800	-0.570	-0.070	0.790
2020/01/31 05:15:16.1	91.810	-0.530	-0.170	0.760
2020/01/31 05:15:16.2	91.820	-0.480	-0.280	0.720
2020/01/31 05:15:16.3	91.840	-0.430	-0.390	0.680
2020/01/31 05:15:16.4	91.860	-0.370	-0.500	0.640
2020/01/31 05:15:16.5	91.890	-0.310	-0.610	0.600
2020/01/31 05:15:16.6	91.910	-0.240	-0.720	0.550
2020/01/31 05:15:16.7	91.940	-0.170	-0.830	0.510
2020/01/31 05:15:16.8	91.960	-0.090	-0.940	0.470
2020/01/31 05:15:16.9	91.990	-0.020	-1.040	0.440
2020/01/31 05:15:17.0	92.010	0.060	-1.140	0.400
2020/01/31 05:15:17.1	92.030	0.140	-1.230	0.370
2020/01/31 05:15:17.2	92.040	0.210	-1.310	0.350
2020/01/31 05:15:17.3	92.060	0.290	-1.380	0.330
2020/01/31 05:15:17.4	92.070	0.360	-1.450	0.310
2020/01/31 05:15:17.5	92.080	0.430	-1.490	0.300
2020/01/31 05:15:17.6	92.080	0.490	-1.530	0.300
2020/01/31 05:15:17.7	92.080	0.550	-1.550	0.300
2020/01/31 05:15:17.8	92.070	0.600	-1.560	0.300
2020/01/31 05:15:17.9	92.060	0.650	-1.550	0.320
2020/01/31 05:15:18.0	92.050	0.690	-1.530	0.330
2020/01/31 05:15:18.1	92.040	0.730	-1.490	0.360
2020/01/31 05:15:18.2	92.020	0.750	-1.440	0.380
2020/01/31 05:15:18.3	91.990	0.770	-1.380	0.410
2020/01/31 05:15:18.4	91.970	0.780	-1.300	0.440
2020/01/31 05:15:18.5	91.940	0.780	-1.210	0.480
2020/01/31 05:15:18.6	91.910	0.780	-1.120	0.520
2020/01/31 05:15:18.7	91.880	0.760	-1.010	0.560
2020/01/31 05:15:18.8	91.850	0.740	-0.890	0.600
2020/01/31 05:15:18.9	91.810	0.710	-0.770	0.640
2020/01/31 05:15:19.0	91.780	0.670	-0.640	0.680
2020/01/31 05:15:19.1	91.740	0.630	-0.500	0.730
2020/01/31 05:15:19.2	91.700	0.580	-0.360	0.770
2020/01/31 05:15:19.3	91.670	0.530	-0.220	0.810
2020/01/31 05:15:19.4	91.630	0.470	-0.080	0.850
2020/01/31 05:15:19.5	91.600	0.410	0.050	0.890
2020/01/31 05:15:19.6	91.560	0.340	0.180	0.930
2020/01/31 05:15:19.7	91.530	0.270	0.310	0.960
2020/01/31 05:15:19.8	91.500	0.200	0.430	1.000
2020/01/31 05:15:19.9	91.470	0.130	0.540	1.030
2020/01/31 05:15:20.0	91.450	0.060	0.650	1.050
2020/01/31 05:15:20.1	91.420	-0.010	0.740	1.070
2020/01/31 05:15:20.2	91.400	-0.080	0.830	1.090
2020/01/31 05:15:20.3	91.380	-0.150	0.900	1.110
2020/01/31 05:15:20.4	91.360	-0.210	0.960	1.120
2020/01/31 05:15:20.5	91.350	-0.270	1.000	1.120
2020/01/31 05:15:20.6	91.340	-0.330	1.040	1.130
2020/01/31 05:15:20.7	91.330	-0.380	1.060	1.130
2020/01/31 05:15:20.8	91.320	-0.420	1.060	1.120
2020/01/31 05:15:20.9	91.320	-0.460	1.060	1.120
2020/01/31 05:15:21.0	91.310	-0.490	1.040	1.100
2020/01/31 05:15:21.1	91.310	-0.520	1.000	1.090
2020/01/31 05:15:21.2	91.320	-0.540	0.950	1.070
2020/01/31 05:15:21.3	91.320	-0.550	0.900	1.050
2020/01/31 05:15:21.4	91.320	-0.550	0.820	1.030
2020/01/31 05:15:21.5	91.330	-0.550	0.740	1.000
2020/01/31 05:15:21.6	91.330	-0.540	0.650	0.980
2020/01/31 05:15:21.7	91.340	-0.530	0.560	0.950
2020/01/31 05:15:21.8	91.340	-0.510	0.450	0.930
2020/01/31 05:15:21.9	91.350	-0.480	0.340	0.900
2020/01/31 05:15:22.0	91.350	-0.450	0.230	0.870
2020/01/31 05:15:22.1	91.360	-0.420	0.110	0.840
2020/01/31 05:15:22.2	91.370	-0.380	-0.010	0.800
2020/01/31 05:15:22.3	91.370	-0.340	-0.130	0.760
2020/01/31 05:15:22.4	91.380	-0.290	-0.250	0.730
2020/01/31 05:15:22.5	91.390	-0.250	-0.370	0.690
2020/01/31 05:15:22.6	91.400	-0.200	-0.480	0.650
2020/01/31 05:15:22.7	91.400	-0.150	-0.590	0.610
2020/01/31 05:15:22.8	91.410	-0.100	-0.690	0.570
2020/01/31 05:15:22.9	91.420	-0.050	-0.780	0.540
2020/01/31 05:15:23.0	91.430	-0.000	-0.870	0.500
2020/01/31 05:15:23.1	91.440	0.040	-0.940	0.470
2020/01/31 05:15:23.2	91.450	0.090	-1.010	0.440
2020/01/31 05:15:23.3	91.460	0.130	-1.060	0.420
2020/01/31 05:15:23.4	91.460	0.170	-1.110	0.400
2020/01/31 05:15:23.5	91.470	0.210	-1.140	0.390
2020/01/31 05:15:23.6	91.480	0.240	-1.160	0.380
2020/01/31 05:15:23.7	91.480	0.270	-1.170	0.380
2020/01/31 05:15:23.8	91.490	0.300	-1.170	0.390
2020/01/31 05:15:23.9	91.490	0.320	-1.160	0.410
2020/01/31 05:15:24.0	91.490	0.340	-1.130	0.430
2020/01/31 05:15:24.1	91.490	0.350	-1.100	0.460
2020/01/31 05:15:24.2	91.480	0.360	-1.050	0.500
2020/01/31 05:15:24.3	91.470	0.360	-1.000	0.540
2020/01/31 05:15:24.4	91.460	0.360	-0.940	0.580
2020/01/31 05:15:24.5	91.450	0.360	-0.870	0.630
2020/01/31 05:15:24.6	91.440	0.350	-0.800	0.690
2020/01/31 05:15:24.7	91.420	0.340	-0.720	0.740
2020/01/31 05:15:24.8	91.410	0.320	-0.640	0.800
2020/01/31 05:15:24.9	91.390	0.300	-0.560	0.860
2020/01/31 05:15:25.0	91.360	0.280	-0.480	0.920
2020/01/31 05:15:25.1	91.340	0.260	-0.390	0.980
2020/01/31 05:15:25.2	91.320	0.230	-0.310	1.030
2020/01/31 05:15:25.3	91.300	0.200	-0.230	1.090
2020/01/31 05:15:25.4	91.270	0.170	-0.150	1.140
2020/01/31 05:15:25.5	91.250	0.140	-0.080	1.180
2020/01/31 05:15:25.6	91.220	0.110	-0.010	1.220
2020/01/31 05:15:25.7	91.200	0.070	0.060	1.260
2020/01/31 05:15:25.8	91.170	0.040	0.110	1.290
2020/01/31 05:15:25.9	91.150	0.010	0.160	1.310
2020/01/31 05:15:26.0	91.130	-0.020	0.200	1.330
2020/01/31 05:15:26.1	91.100	-0.050	0.240	1.340
2020/01/31 05:15:26.2	91.090	-0.080	0.270	1.350
2020/01/31 05:15:26.3	91.070	-0.100	0.290	1.350
2020/01/31 05:15:26.4	91.050	-0.130	0.300	1.340
2020/01/31 05:15:26.5	91.040	-0.150	0.300	1.340
2020/01/31 05:15:26.6	91.030	-0.160	0.300	1.330
2020/01/31 05:15:26.7	91.020	-0.180	0.290	1.310
2020/01/31 05:15:26.8	91.010	-0.190	0.270	1.300
2020/01/31 05:15:26.9	91.000	-0.200	0.240	1.280
2020/01/31 05:15:27.0	91.000	-0.210	0.210	1.260
2020/01/31 05:15:27.1	91.000	-0.210	0.170	1.240
2020/01/31 05:15:27.2	91.000	-0.210	0.130	1.220
2020/01/31 05:15:27.3	91.000	-0.200	0.080	1.200
2020/01/31 05:15:27.4	91.010	-0.190	0.030	1.180
2020/01/31 05:15:27.5	91.020	-0.180	-0.020	1.160
2020/01/31 05:15:27.6	91.030	-0.170	-0.080	1.140
2020/01/31 05:15:27.7	91.040	-0.160	-0.130	1.130
2020/01/31 05:15:27.8	91.050	-0.140	-0.190	1.110
2020/01/31 05:15:27.9	91.060	-0.120	-0.240	1.100
2020/01/31 05:15:28.0	91.070	-0.100	-0.300	1.080
2020/01/31 05:15:28.1	91.090	-0.080	-0.350	1.070
2020/01/31 05:15:28.2	91.100	-0.050	-0.390	1.060
2020/01/31 05:15:28.3	91.110	-0.030	-0.440	1.050
2020/01/31 05:15:28.4	91.130	-0.010	-0.470	1.040
2020/01/31 05:15:28.5	91.140	0.010	-0.510	1.030
2020/01/31 05:15:28.6	91.160	0.030	-0.530	1.020
2020/01/31 05:15:28.7	91.170	0.050	-0.550	1.010
2020/01/31 05:15:28.8	91.180	0.070	-0.560	0.990
2020/01/31 05:15:28.9	91.200	0.080	-0.570	0.980
2020/01/31 05:15:29.0	91.210	0.090	-0.570	0.970
2020/01/31 05:15:29.1	91.220	0.100	-0.560	0.960
2020/01/31 05:15:29.2	91.240	0.110	-0.540	0.940
2020/01/31 05:15:29.3	91.250	0.110	-0.520	0.930
2020/01/31 05:15:29.4	91.260	0.110	-0.490	0.920
2020/01/31 05:15:29.5	91.270	0.110	-0.450	0.910
2020/01/31 05:15:29.6	91.280	0.100	-0.410	0.900
2020/01/31 05:15:29.7	91.290	0.090	-0.360	0.890
2020/01/31 05:15:29.8	91.290	0.070	-0.300	0.880
2020/01/31 05:15:29.9	91.300	0.060	-0.250	0.870
2020/01/31 05:15:30.0	91.300	0.040	-0.190	0.870
2020/01/31 05:15:30.1	91.300	0.010	-0.120	0.870
2020/01/31 05:15:30.2	91.300	-0.010	-0.060	0.870
2020/01/31 05:15:30.3	91.300	-0.040	0.010	0.880
2020/01/31 05:15:30.4	91.290	-0.070	0.070	0.880
2020/01/31 05:15:30.5	91.290	-0.110	0.130	0.890
2020/01/31 05:15:30.6	91.290	-0.140	0.190	0.900
2020/01/31 05:15:30.7	91.280	-0.180	0.250	0.920
2020/01/31 05:15:30.8	91.280	-0.220	0.300	0.930
2020/01/31 05:15:30.9	91.270	-0.260	0.350	0.950
2020/01/31 05:15:31.0	91.270	-0.300	0.400	0.970
2020/01/31 05:15:31.1	91.260	-0.340	0.440	0.980
2020/01/31 05:15:31.2	91.270	-0.380	0.470	1.000
2020/01/31 05:15:31.3	91.260	-0.420	0.500	1.020
2020/01/31 05:15:31.4	91.260	-0.450	0.520	1.040
2020/01/31 05:15:31.5	91.270	-0.490	0.530	1.060
2020/01/31 05:15:31.6	91.270	-0.530	0.530	1.080
2020/01/31 05:15:31.7	91.280	-0.560	0.530	1.100
2020/01/31 05:15:31.8	91.280	-0.590	0.520	1.110
2020/01/31 05:15:31.9	91.300	-0.620	0.500	1.130
2020/01/31 05:15:32.0	91.310	-0.640	0.470	1.140
2020/01/31 05:15:32.1	91.330	-0.660	0.440	1.140
2020/01/31 05:15:32.2	91.340	-0.680	0.400	1.140
2020/01/31 05:15:32.3	91.360	-0.690	0.350	1.140
2020/01/31 05:15:32.4	91.390	-0.700	0.300	1.130
2020/01/31 05:15:32.5	91.410	-0.700	0.240	1.120
2020/01/31 05:15:32.6	91.440	-0.700	0.180	1.100
2020/01/31 05:15:32.7	91.470	-0.700	0.110	1.080
2020/01/31 05:15:32.8	91.500	-0.690	0.040	1.060
2020/01/31 05:15:32.9	91.530	-0.670	-0.030	1.040
2020/01/31 05:15:33.0	91.560	-0.650	-0.110	1.010
2020/01/31 05:15:33.1	91.590	-0.630	-0.190	0.980
2020/01/31 05:15:33.2	91.620	-0.600	-0.270	0.940
2020/01/31 05:15:33.3	91.640	-0.570	-0.350	0.910
2020/01/31 05:15:33.4	91.670	-0.530	-0.420	0.890
2020/01/31 05:15:33.5	91.690	-0.490	-0.500	0.860
2020/01/31 05:15:33.6	91.710	-0.440	-0.570	0.840
2020/01/31 05:15:33.7	91.730	-0.390	-0.640	0.820
2020/01/31 05:15:33.8	91.740	-0.340	-0.710	0.810
2020/01/31 05:15:33.9	91.740	-0.290	-0.780	0.800
2020/01/31 05:15:34.0	91.740	-0.230	-0.840	0.800
2020/01/31 05:15:34.1	91.740	-0.170	-0.890	0.800
2020/01/31 05:15:34.2	91.730	-0.110	-0.940	0.800
2020/01/31 05:15:34.3	91.710	-0.050	-0.990	0.810
2020/01/31 05:15:34.4	91.690	0.010	-1.030	0.820
2020/01/31 05:15:34.5	91.670	0.080	-1.060	0.840
2020/01/31 05:15:34.6	91.640	0.140	-1.090	0.850
2020/01/31 05:15:34.7	91.610	0.200	-1.120	0.880
2020/01/31 05:15:34.8	91.580	0.260	-1.140	0.900
2020/01/31 05:15:34.9	91.550	0.320	-1.150	0.920
2020/01/31 05:15:35.0	91.510	0.380	-1.160	0.950
2020/01/31 05:15:35.1	91.470	0.440	-1.160	0.970
2020/01/31 05:15:35.2	91.430	0.490	-1.150	0.990
2020/01/31 05:15:35.3	91.400	0.550	-1.150	1.020
2020/01/31 05:15:35.4	91.360	0.590	-1.130	1.040
2020/01/31 05:15:35.5	91.330	0.640	-1.120	1.050
2020/01/31 05:15:35.6	91.300	0.680	-1.090	1.070
2020/01/31 05:15:35.7	91.270	0.720	-1.070	1.070
2020/01/31 05:15:35.8	91.240	0.760	-1.030	1.080
2020/01/31 05:15:35.9	91.220	0.790	-1.000	1.080
2020/01/31 05:15:36.0	91.200	0.820	-0.960	1.080
2020/01/31 05:15:36.1	91.190	0.840	-0.910	1.080
2020/01/31 05:15:36.2	91.180	0.860	-0.870	1.070
2020/01/31 05:15:36.3	91.180	0.870	-0.810	1.060
2020/01/31 05:15:36.4	91.180	0.880	-0.760	1.040
2020/01/31 05:15:36.5	91.180	0.880	-0.700	1.020
2020/01/31 05:15:36.6	91.190	0.880	-0.640	1.000
2020/01/31 05:15:36.7	91.200	0.880	-0.580	0.980
2020/01/31 05:15:36.8	91.220	0.870	-0.520	0.960
2020/01/31 05:15:36.9	91.240	0.860	-0.450	0.930
2020/01/31 05:15:37.0	91.260	0.840	-0.390	0.900
2020/01/31 05:15:37.1	91.280	0.820	-0.320	0.870
2020/01/31 05:15:37.2	91.310	0.790	-0.250	0.840
2020/01/31 05:15:37.3	91.340	0.760	-0.180	0.810
2020/01/31 05:15:37.4	91.370	0.730	-0.110	0.780
2020/01/31 05:15:37.5	91.400	0.690	-0.050	0.750
2020/01/31 05:15:37.6	91.440	0.650	0.020	0.720
2020/01/31 05:15:37.7	91.470	0.610	0.080	0.680
2020/01/31 05:15:37.8	91.500	0.570	0.140	0.650
2020/01/31 05:15:37.9	91.530	0.520	0.200	0.620
2020/01/31 05:15:38.0	91.560	0.470	0.250	0.580
2020/01/31 05:15:38.1	91.590	0.420	0.300	0.550
2020/01/31 05:15:38.2	91.610	0.380	0.350	0.510
2020/01/31 05:15:38.3	91.640	0.330	0.400	0.480
2020/01/31 05:15:38.4	91.660	0.280	0.430	0.460
2020/01/31 05:15:38.5	91.670	0.230	0.460	0.430
2020/01/31 05:15:38.6	91.680	0.180	0.490	0.410
2020/01/31 05:15:38.7	91.690	0.140	0.510	0.390
2020/01/31 05:15:38.8	91.690	0.090	0.530	0.370
2020/01/31 05:15:38.9	91.690	0.050	0.540	0.360
2020/01/31 05:15:39.0	91.690	0.010	0.540	0.350
2020/01/31 05:15:39.1	91.680	-0.030	0.540	0.340
2020/01/31 05:15:39.2	91.670	-0.070	0.530	0.340
2020/01/31 05:15:39.3	91.660	-0.110	0.530	0.340
2020/01/31 05:15:39.4	91.640	-0.140	0.510	0.350
2020/01/31 05:15:39.5	91.630	-0.170	0.500	0.360
2020/01/31 05:15:39.6	91.610	-0.200	0.480	0.370
2020/01/31 05:15:39.7	91.590	-0.230	0.450	0.390
2020/01/31 05:15:39.8	91.570	-0.260	0.430	0.410
2020/01/31 05:15:39.9	91.560	-0.280	0.400	0.430
2020/01/31 05:15:40.0	91.540	-0.300	0.370	0.460
2020/01/31 05:15:40.1	91.530	-0.330	0.340	0.490
2020/01/31 05:15:40.2	91.510	-0.350	0.300	0.520
2020/01/31 05:15:40.3	91.500	-0.360	0.260	0.550
2020/01/31 05:15:40.4	91.490	-0.380	0.230	0.590
2020/01/31 05:15:40.5	91.490	-0.400	0.190	0.620
2020/01/31 05:15:40.6	91.490	-0.410	0.150	0.660
2020/01/31 05:15:40.7	91.490	-0.420	0.110	0.690
2020/01/31 05:15:40.8	91.490	-0.430	0.070	0.720
2020/01/31 05:15:40.9	91.500	-0.440	0.030	0.750
2020/01/31 05:15:41.0	91.510	-0.450	-0.010	0.780
2020/01/31 05:15:41.1	91.530	-0.460	-0.060	0.810
2020/01/31 05:15:41.2	91.550	-0.460	-0.100	0.830
2020/01/31 05:15:41.3	91.570	-0.470	-0.140	0.860
2020/01/31 05:15:41.4	91.600	-0.470	-0.180	0.880
2020/01/31 05:15:41.5	91.630	-0.470	-0.230	0.900
2020/01/31 05:15:41.6	91.660	-0.470	-0.270	0.910
2020/01/31 05:15:41.7	91.700	-0.460	-0.310	0.920
2020/01/31 05:15:41.8	91.740	-0.460	-0.360	0.930
2020/01/31 05:15:41.9	91.780	-0.450	-0.400	0.940
2020/01/31 05:15:42.0	91.820	-0.440	-0.440	0.950
2020/01/31 05:15:42.1	91.860	-0.430	-0.480	0.960
2020/01/31 05:15:42.2	91.900	-0.420	-0.520	0.960
2020/01/31 05:15:42.3	91.940	-0.410	-0.560	0.970
2020/01/31 05:15:42.4	91.980	-0.390	-0.590	0.980
2020/01/31 05:15:42.5	92.020	-0.380	-0.620	0.990
2020/01/31 05:15:42.6	92.050	-0.360	-0.650	1.000
2020/01/31 05:15:42.7	92.080	-0.340	-0.680	1.010
2020/01/31 05:15:42.8	92.110	-0.320	-0.700	1.020
2020/01/31 05:15:42.9	92.130	-0.300	-0.710	1.030
2020/01/31 05:15:43.0	92.150	-0.280	-0.730	1.040
2020/01/31 05:15:43.1	92.170	-0.260	-0.740	1.050
2020/01/31 05:15:43.2	92.180	-0.240	-0.740	1.070
2020/01/31 05:15:43.3	92.180	-0.220	-0.730	1.080
2020/01/31 05:15:43.4	92.190	-0.200	-0.730	1.090
2020/01/31 05:15:43.5	92.190	-0.180	-0.710	1.110
2020/01/31 05:15:43.6	92.190	-0.170	-0.690	1.120
2020/01/31 05:15:43.7	92.180	-0.150	-0.670	1.130
2020/01/31 05:15:43.8	92.170	-0.140	-0.640	1.140
2020/01/31 05:15:43.9	92.160	-0.130	-0.600	1.150
2020/01/31 05:15:44.0	92.150	-0.120	-0.570	1.160
2020/01/31 05:15:44.1	92.130	-0.110	-0.520	1.170
2020/01/31 05:15:44.2	92.110	-0.110	-0.470	1.180
2020/01/31 05:15:44.3	92.090	-0.110	-0.420	1.190
2020/01/31 05:15:44.4	92.070	-0.110	-0.370	1.210
2020/01/31 05:15:44.5	92.050	-0.110	-0.320	1.220
2020/01/31 05:15:44.6	92.020	-0.110	-0.270	1.230
2020/01/31 05:15:44.7	91.990	-0.120	-0.210	1.240
2020/01/31 05:15:44.8	91.970	-0.120	-0.160	1.250
2020/01/31 05:15:44.9	91.940	-0.130	-0.110	1.250
2020/01/31 05:15:45.0	91.910	-0.140	-0.060	1.260
2020/01/31 05:15:45.1	91.890	-0.150	-0.010	1.260
2020/01/31 05:15:45.2	91.860	-0.150	0.040	1.260
2020/01/31 05:15:45.3	91.830	-0.160	0.080	1.250
2020/01/31 05:15:45.4	91.800	-0.170	0.110	1.240
2020/01/31 05:15:45.5	91.780	-0.170	0.140	1.230
2020/01/31 05:15:45.6	91.760	-0.180	0.170	1.210
2020/01/31 05:15:45.7	91.730	-0.180	0.180	1.190
2020/01/31 05:15:45.8	91.710	-0.180	0.200	1.160
2020/01/31 05:15:45.9	91.700	-0.180	0.200	1.120
2020/01/31 05:15:46.0	91.680	-0.180	0.200	1.080
2020/01/31 05:15:46.1	91.670	-0.170	0.200	1.030
2020/01/31 05:15:46.2	91.660	-0.160	0.190	0.980
2020/01/31 05:15:46.3	91.650	-0.150	0.170	0.920
2020/01/31 05:15:46.4	91.640	-0.130	0.150	0.860
2020/01/31 05:15:46.5	91.640	-0.110	0.130	0.790
2020/01/31 05:15:46.6	91.640	-0.090	0.100	0.720
2020/01/31 05:15:46.7	91.650	-0.070	0.060	0.650
2020/01/31 05:15:46.8	91.660	-0.040	0.020	0.570
2020/01/31 05:15:46.9	91.670	-0.010	-0.020	0.490
2020/01/31 05:15:47.0	91.680	0.020	-0.060	0.410
2020/01/31 05:15:47.1	91.700	0.050	-0.110	0.330
2020/01/31 05:15:47.2	91.720	0.090	-0.150	0.240
2020/01/31 05:15:47.3	91.740	0.120	-0.200	0.160
2020/01/31 05:15:47.4	91.770	0.160	-0.250	0.080
2020/01/31 05:15:47.5	91.800	0.200	-0.300	0.010
2020/01/31 05:15:47.6	91.830	0.240	-0.350	-0.060
2020/01/31 05:15:47.7	91.860	0.280	-0.400	-0.130
2020/01/31 05:15:47.8	91.890	0.310	-0.440	-0.190
2020/01/31 05:15:47.9	91.920	0.350	-0.490	-0.240
2020/01/31 05:15:48.0	91.950	0.390	-0.530	-0.290
2020/01/31 05:15:48.1	91.980	0.420	-0.570	-0.330
2020/01/31 05:15:48.2	92.000	0.450	-0.620	-0.360
2020/01/31 05:15:48.3	92.030	0.480	-0.650	-0.390
2020/01/31 05:15:48.4	92.050	0.510	-0.680	-0.400
2020/01/31 05:15:48.5	92.070	0.540	-0.710	-0.410
2020/01/31 05:15:48.6	92.090	0.560	-0.730	-0.410
2020/01/31 05:15:48.7	92.110	0.580	-0.750	-0.400
2020/01/31 05:15:48.8	92.120	0.590	-0.770	-0.380
2020/01/31 05:15:48.9	92.130	0.600	-0.780	-0.360
2020/01/31 05:15:49.0	92.140	0.610	-0.780	-0.330
2020/01/31 05:15:49.1	92.140	0.610	-0.780	-0.300
2020/01/31 05:15:49.2	92.140	0.610	-0.770	-0.260
2020/01/31 05:15:49.3	92.130	0.610	-0.760	-0.220
2020/01/31 05:15:49.4	92.130	0.600	-0.750	-0.180
2020/01/31 05:15:49.5	92.120	0.590	-0.720	-0.130
2020/01/31 05:15:49.6	92.120	0.570	-0.700	-0.080
2020/01/31 05:15:49.7	92.110	0.550	-0.660	-0.030
2020/01/31 05:15:49.8	92.090	0.520	-0.630	0.030
2020/01/31 05:15:49.9	92.080	0.500	-0.590	0.080
2020/01/31 05:15:50.0	92.060	0.460	-0.540	0.140
2020/01/31 05:15:50.1	92.050	0.430	-0.490	0.190
2020/01/31 05:15:50.2	92.030	0.390	-0.440	0.250
2020/01/31 05:15:50.3	92.010	0.350	-0.390	0.310
2020/01/31 05:15:50.4	91.990	0.310	-0.330	0.370
2020/01/31 05:15:50.5	91.970	0.260	-0.280	0.430
2020/01/31 05:15:50.6	91.950	0.210	-0.220	0.490
2020/01/31 05:15:50.7	91.930	0.160	-0.160	0.550
2020/01/31 05:15:50.8	91.900	0.110	-0.100	0.610
2020/01/31 05:15:50.9	91.880	0.060	-0.050	0.670
2020/01/31 05:15:51.0	91.860	0.010	0.010	0.730
2020/01/31 05:15:51.1	91.840	-0.040	0.060	0.790
2020/01/31 05:15:51.2	91.810	-0.100	0.110	0.850
2020/01/31 05:15:51.3	91.790	-0.150	0.160	0.910
2020/01/31 05:15:51.4	91.770	-0.200	0.210	0.970
2020/01/31 05:15:51.5	91.750	-0.250	0.250	1.020
2020/01/31 05:15:51.6	91.740	-0.300	0.290	1.080
2020/01/31 05:15:51.7	91.720	-0.350	0.320	1.130
2020/01/31 05:15:51.8	91.700	-0.400	0.350	1.170
2020/01/31 05:15:51.9	91.690	-0.440	0.370	1.220
2020/01/31 05:15:52.0	91.680	-0.480	0.390	1.250
2020/01/31 05:15:52.1	91.670	-0.520	0.410	1.290
2020/01/31 05:15:52.2	91.660	-0.550	0.420	1.320
2020/01/31 05:15:52.3	91.660	-0.580	0.420	1.340
2020/01/31 05:15:52.4	91.650	-0.610	0.420	1.360
2020/01/31 05:15:52.5	91.650	-0.630	0.420	1.370
2020/01/31 05:15:52.6	91.650	-0.650	0.410	1.380
2020/01/31 05:15:52.7	91.660	-0.670	0.390	1.380
2020/01/31 05:15:52.8	91.660	-0.680	0.370	1.380
2020/01/31 05:15:52.9	91.670	-0.680	0.340	1.380
2020/01/31 05:15:53.0	91.680	-0.680	0.310	1.370
2020/01/31 05:15:53.1	91.690	-0.680	0.280	1.360
2020/01/31 05:15:53.2	91.710	-0.670	0.240	1.350
2020/01/31 05:15:53.3	91.720	-0.650	0.200	1.330
2020/01/31 05:15:53.4	91.740	-0.630	0.150	1.320
2020/01/31 05:15:53.5	91.750	-0.610	0.100	1.310
2020/01/31 05:15:53.6	91.770	-0.580	0.050	1.300
2020/01/31 05:15:53.7	91.790	-0.550	-0.000	1.290
2020/01/31 05:15:53.8	91.810	-0.510	-0.060	1.280
2020/01/31 05:15:53.9	91.830	-0.480	-0.110	1.270
2020/01/31 05:15:54.0	91.840	-0.430	-0.170	1.260
2020/01/31 05:15:54.1	91.860	-0.390	-0.220	1.260
2020/01/31 05:15:54.2	91.870	-0.350	-0.280	1.260
2020/01/31 05:15:54.3	91.880	-0.300	-0.330	1.260
2020/01/31 05:15:54.4	91.890	-0.250	-0.380	1.260
2020/01/31 05:15:54.5	91.900	-0.210	-0.430	1.260
2020/01/31 05:15:54.6	91.910	-0.160	-0.470	1.250
2020/01/31 05:15:54.7	91.910	-0.110	-0.520	1.250
2020/01/31 05:15:54.8	91.910	-0.070	-0.560	1.250
2020/01/31 05:15:54.9	91.920	-0.020	-0.600	1.250
2020/01/31 05:15:55.0	91.920	0.020	-0.640	1.240
2020/01/31 05:15:55.1	91.910	0.060	-0.680	1.240
2020/01/31 05:15:55.2	91.920	0.110	-0.710	1.230
2020/01/31 05:15:55.3	91.910	0.150	-0.740	1.220
2020/01/31 05:15:55.4	91.910	0.180	-0.770	1.200
2020/01/31 05:15:55.5	91.900	0.220	-0.790	1.190
2020/01/31 05:15:55.6	91.890	0.250	-0.810	1.170
2020/01/31 05:15:55.7	91.880	0.290	-0.830	1.160
2020/01/31 05:15:55.8	91.870	0.320	-0.850	1.140
2020/01/31 05:15:55.9	91.860	0.350	-0.860	1.120
2020/01/31 05:15:56.0	91.850	0.370	-0.870	1.100
2020/01/31 05:15:56.1	91.850	0.400	-0.880	1.080
2020/01/31 05:15:56.2	91.840	0.420	-0.890	1.060
2020/01/31 05:15:56.3	91.830	0.440	-0.890	1.040
2020/01/31 05:15:56.4	91.820	0.460	-0.890	1.020
2020/01/31 05:15:56.5	91.810	0.480	-0.880	1.000
2020/01/31 05:15:56.6	91.810	0.490	-0.880	0.980
2020/01/31 05:15:56.7	91.800	0.510	-0.870	0.970
2020/01/31 05:15:56.8	91.800	0.520	-0.850	0.950
2020/01/31 05:15:56.9	91.790	0.530	-0.840	0.940
2020/01/31 05:15:57.0	91.790	0.540	-0.810	0.930
2020/01/31 05:15:57.1	91.790	0.540	-0.790	0.920
2020/01/31 05:15:57.2	91.780	0.550	-0.760	0.910
2020/01/31 05:15:57.3	91.780	0.550	-0.720	0.900
2020/01/31 05:15:57.4	91.770	0.550	-0.680	0.890
2020/01/31 05:15:57.5	91.770	0.540	-0.640	0.880
2020/01/31 05:15:57.6	91.770	0.540	-0.590	0.870
2020/01/31 05:15:57.7	91.770	0.530	-0.540	0.860
2020/01/31 05:15:57.8	91.770	0.520	-0.480	0.860
2020/01/31 05:15:57.9	91.770	0.500	-0.410	0.850
2020/01/31 05:15:58.0	91.770	0.480	-0.350	0.840
2020/01/31 05:15:58.1	91.770	0.460	-0.270	0.830
2020/01/31 05:15:58.2	91.770	0.440	-0.200	0.810
2020/01/31 05:15:58.3	91.760	0.410	-0.120	0.800
2020/01/31 05:15:58.4	91.760	0.380	-0.040	0.790
2020/01/31 05:15:58.5	91.760	0.350	0.040	0.780
2020/01/31 05:15:58.6	91.760	0.310	0.130	0.770
2020/01/31 05:15:58.7	91.750	0.270	0.210	0.760
2020/01/31 05:15:58.8	91.750	0.230	0.300	0.750
2020/01/31 05:15:58.9	91.740	0.190	0.380	0.730
2020/01/31 05:15:59.0	91.740	0.140	0.460	0.720
2020/01/31 05:15:59.1	91.730	0.100	0.540	0.710
2020/01/31 05:15:59.2	91.720	0.050	0.620	0.700
2020/01/31 05:15:59.3	91.720	0.000	0.680	0.690
2020/01/31 05:15:59.4	91.710	-0.050	0.750	0.680
2020/01/31 05:15:59.5	91.700	-0.100	0.800	0.680
2020/01/31 05:15:59.6	91.690	-0.140	0.850	0.670
2020/01/31 05:15:59.7	91.680	-0.190	0.890	0.660
2020/01/31 05:15:59.8	91.670	-0.240	0.920	0.660
2020/01/31 05:15:59.9	91.660	-0.280	0.940	0.650
2020/01/31 05:16:00.0	91.650	-0.320	0.960	0.650
2020/01/31 05:16:00.1	91.650	-0.360	0.960	0.650
2020/01/31 05:16:00.2	91.640	-0.400	0.960	0.640
2020/01/31 05:16:00.3	91.630	-0.430	0.940	0.640
2020/01/31 05:16:00.4	91.630	-0.460	0.920	0.640
2020/01/31 05:16:00.5	91.620	-0.490	0.890	0.630
2020/01/31 05:16:00.6	91.620	-0.510	0.850	0.630
2020/01/31 05:16:00.7	91.620	-0.530	0.800	0.620
2020/01/31 05:16:00.8	91.620	-0.550	0.750	0.620
2020/01/31 05:16:00.9	91.620	-0.560	0.690	0.610
2020/01/31 05:16:01.0	91.620	-0.570	0.630	0.610
2020/01/31 05:16:01.1	91.630	-0.580	0.560	0.600
2020/01/31 05:16:01.2	91.630	-0.580	0.480	0.590
2020/01/31 05:16:01.3	91.640	-0.580	0.400	0.590
2020/01/31 05:16:01.4	91.650	-0.580	0.320	0.580
2020/01/31 05:16:01.5	91.660	-0.570	0.240	0.570
2020/01/31 05:16:01.6	91.680	-0.550	0.150	0.550
2020/01/31 05:16:01.7	91.690	-0.540	0.060	0.540
2020/01/31 05:16:01.8	91.710	-0.520	-0.040	0.530
2020/01/31 05:16:01.9	91.730	-0.500	-0.140	0.520
2020/01/31 05:16:02.0	91.750	-0.470	-0.240	0.500
2020/01/31 05:16:02.1	91.770	-0.440	-0.340	0.490
2020/01/31 05:16:02.2	91.780	-0.400	-0.450	0.480
2020/01/31 05:16:02.3	91.800	-0.370	-0.560	0.460
2020/01/31 05:16:02.4	91.820	-0.330	-0.660	0.450
2020/01/31 05:16:02.5	91.840	-0.280	-0.770	0.440
2020/01/31 05:16:02.6	91.860	-0.230	-0.880	0.440
2020/01/31 05:16:02.7	91.880	-0.190	-0.980	0.440
2020/01/31 05:16:02.8	91.900	-0.130	-1.090	0.440
2020/01/31 05:16:02.9	91.910	-0.080	-1.190	0.440
2020/01/31 05:16:03.0	91.920	-0.030	-1.280	0.450
2020/01/31 05:16:03.1	91.930	0.030	-1.370	0.460
2020/01/31 05:16:03.2	91.930	0.080	-1.450	0.470
2020/01/31 05:16:03.3	91.940	0.140	-1.520	0.490
2020/01/31 05:16:03.4	91.940	0.190	-1.590	0.510
2020/01/31 05:16:03.5	91.930	0.240	-1.640	0.530
2020/01/31 05:16:03.6	91.930	0.290	-1.680	0.560
2020/01/31 05:16:03.7	91.920	0.330	-1.710	0.590
2020/01/31 05:16:03.8	91.910	0.370	-1.720	0.630
2020/01/31 05:16:03.9	91.900	0.410	-1.720	0.670
2020/01/31 05:16:04.0	91.890	0.450	-1.710	0.710
2020/01/31 05:16:04.1	91.870	0.470	-1.680	0.750
2020/01/31 05:16:04.2	91.850	0.500	-1.640	0.800
2020/01/31 05:16:04.3	91.840	0.520	-1.580	0.840
2020/01/31 05:16:04.4	91.820	0.530	-1.510	0.890
2020/01/31 05:16:04.5	91.800	0.530	-1.430	0.940
2020/01/31 05:16:04.6	91.790	0.530	-1.330	0.990
2020/01/31 05:16:04.7	91.770	0.530	-1.220	1.040
2020/01/31 05:16:04.8	91.750	0.520	-1.110	1.090
2020/01/31 05:16:04.9	91.740	0.500	-0.980	1.130
2020/01/31 05:16:05.0	91.720	0.480	-0.850	1.180
2020/01/31 05:16:05.1	91.710	0.450	-0.710	1.220
2020/01/31 05:16:05.2	91.700	0.420	-0.560	1.270
2020/01/31 05:16:05.3	91.680	0.380	-0.410	1.310
2020/01/31 05:16:05.4	91.670	0.340	-0.260	1.340
2020/01/31 05:16:05.5	91.660	0.290	-0.120	1.380
2020/01/31 05:16:05.6	91.660	0.250	0.030	1.410
2020/01/31 05:16:05.7	91.650	0.200	0.170	1.430
2020/01/31 05:16:05.8	91.640	0.150	0.300	1.460
2020/01/31 05:16:05.9	91.640	0.100	0.430	1.470
2020/01/31 05:16:06.0	91.630	0.040	0.540	1.490
2020/01/31 05:16:06.1	91.630	-0.010	0.650	1.500
2020/01/31 05:16:06.2	91.630	-0.050	0.750	1.510
2020/01/31 05:16:06.3	91.640	-0.100	0.830	1.510
2020/01/31 05:16:06.4	91.640	-0.150	0.900	1.500
2020/01/31 05:16:06.5	91.640	-0.190	0.960	1.500
2020/01/31 05:16:06.6	91.650	-0.220	1.000	1.490
2020/01/31 05:16:06.7	91.650	-0.260	1.030	1.480
2020/01/31 05:16:06.8	91.660	-0.290	1.040	1.460
2020/01/31 05:16:06.9	91.660	-0.310	1.030	1.440
2020/01/31 05:16:07.0	91.670	-0.330	1.020	1.420
2020/01/31 05:16:07.1	91.670	-0.340	0.980	1.400
2020/01/31 05:16:07.2	91.680	-0.350	0.940	1.380
2020/01/31 05:16:07.3	91.680	-0.350	0.890	1.360
2020/01/31 05:16:07.4	91.680	-0.350	0.820	1.330
2020/01/31 05:16:07.5	91.680	-0.340	0.750	1.310
2020/01/31 05:16:07.6	91.670	-0.330	0.660	1.290
2020/01/31 05:16:07.7	91.670	-0.320	0.570	1.260
2020/01/31 05:16:07.8	91.660	-0.300	0.480	1.240
2020/01/31 05:16:07.9	91.650	-0.280	0.380	1.210
2020/01/31 05:16:08.0	91.640	-0.250	0.280	1.180
2020/01/31 05:16:08.1	91.630	-0.230	0.180	1.150
2020/01/31 05:16:08.2	91.620	-0.200	0.070	1.120
2020/01/31 05:16:08.3	91.610	-0.170	-0.030	1.090
2020/01/31 05:16:08.4	91.600	-0.140	-0.130	1.050
2020/01/31 05:16:08.5	91.590	-0.120	-0.220	1.020
2020/01/31 05:16:08.6	91.580	-0.090	-0.310	0.980
2020/01/31 05:16:08.7	91.570	-0.060	-0.390	0.950
2020/01/31 05:16:08.8	91.560	-0.030	-0.470	0.910
2020/01/31 05:16:08.9	91.550	-0.000	-0.550	0.880
2020/01/31 05:16:09.0	91.540	0.020	-0.610	0.840
2020/01/31 05:16:09.1	91.530	0.050	-0.670	0.810
2020/01/31 05:16:09.2	91.530	0.070	-0.720	0.780
2020/01/31 05:16:09.3	91.520	0.090	-0.770	0.750
2020/01/31 05:16:09.4	91.520	0.110	-0.800	0.720
2020/01/31 05:16:09.5	91.510	0.130	-0.840	0.700
2020/01/31 05:16:09.6	91.510	0.150	-0.860	0.680
2020/01/31 05:16:09.7	91.520	0.160	-0.870	0.660
2020/01/31 05:16:09.8	91.520	0.180	-0.880	0.640
2020/01/31 05:16:09.9	91.530	0.190	-0.890	0.620
2020/01/31 05:16:10.0	91.540	0.200	-0.880	0.600
2020/01/31 05:16:10.1	91.550	0.210	-0.870	0.590
2020/01/31 05:16:10.2	91.560	0.210	-0.850	0.570
2020/01/31 05:16:10.3	91.570	0.220	-0.830	0.560
2020/01/31 05:16:10.4	91.590	0.220	-0.800	0.550
2020/01/31 05:16:10.5	91.610	0.230	-0.780	0.540
2020/01/31 05:16:10.6	91.630	0.230	-0.740	0.530
2020/01/31 05:16:10.7	91.660	0.230	-0.710	0.520
2020/01/31 05:16:10.8	91.680	0.230	-0.670	0.510
2020/01/31 05:16:10.9	91.700	0.230	-0.620	0.500
2020/01/31 05:16:11.0	91.730	0.230	-0.580	0.500
2020/01/31 05:16:11.1	91.760	0.230	-0.540	0.490
2020/01/31 05:16:11.2	91.780	0.230	-0.490	0.480
2020/01/31 05:16:11.3	91.810	0.220	-0.440	0.480
2020/01/31 05:16:11.4	91.830	0.220	-0.400	0.480
2020/01/31 05:16:11.5	91.860	0.220	-0.350	0.470
2020/01/31 05:16:11.6	91.880	0.210	-0.300	0.470
2020/01/31 05:16:11.7	91.900	0.210	-0.250	0.470
2020/01/31 05:16:11.8	91.920	0.200	-0.200	0.470
2020/01/31 05:16:11.9	91.940	0.190	-0.160	0.480
2020/01/31 05:16:12.0	91.960	0.180	-0.110	0.480
2020/01/31 05:16:12.1	91.970	0.170	-0.060	0.490
2020/01/31 05:16:12.2	91.980	0.160	-0.020	0.500
2020/01/31 05:16:12.3	91.990	0.150	0.020	0.510
2020/01/31 05:16:12.4	91.990	0.140	0.060	0.530
2020/01/31 05:16:12.5	92.000	0.120	0.090	0.550
2020/01/31 05:16:12.6	92.000	0.110	0.130	0.570
2020/01/31 05:16:12.7	92.000	0.090	0.160	0.590
2020/01/31 05:16:12.8	91.990	0.070	0.190	0.620
2020/01/31 05:16:12.9	91.980	0.060	0.210	0.640
2020/01/31 05:16:13.0	91.970	0.040	0.240	0.670
2020/01/31 05:16:13.1	91.960	0.020	0.250	0.700
2020/01/31 05:16:13.2	91.950	-0.000	0.270	0.730
2020/01/31 05:16:13.3	91.940	-0.020	0.280	0.760
2020/01/31 05:16:13.4	91.920	-0.040	0.290	0.790
2020/01/31 05:16:13.5	91.910	-0.060	0.290	0.820
2020/01/31 05:16:13.6	91.890	-0.080	0.280	0.850
2020/01/31 05:16:13.7	91.880	-0.090	0.280	0.880
2020/01/31 05:16:13.8	91.860	-0.110	0.260	0.910
2020/01/31 05:16:13.9	91.850	-0.130	0.250	0.940
2020/01/31 05:16:14.0	91.830	-0.140	0.230	0.970
2020/01/31 05:16:14.1	91.820	-0.150	0.200	0.990
2020/01/31 05:16:14.2	91.810	-0.160	0.170	1.020
2020/01/31 05:16:14.3	91.800	-0.170	0.140	1.040
2020/01/31 05:16:14.4	91.790	-0.180	0.100	1.060
2020/01/31 05:16:14.5	91.790	-0.190	0.060	1.080
2020/01/31 05:16:14.6	91.780	-0.190	0.020	1.100
2020/01/31 05:16:14.7	91.770	-0.200	-0.030	1.120
2020/01/31 05:16:14.8	91.770	-0.200	-0.070	1.140
2020/01/31 05:16:14.9	91.770	-0.200	-0.110	1.160
2020/01/31 05:16:15.0	91.760	-0.190	-0.160	1.170
2020/01/31 05:16:15.1	91.760	-0.190	-0.210	1.180
2020/01/31 05:16:15.2	91.760	-0.190	-0.250	1.190
2020/01/31 05:16:15.3	91.760	-0.180	-0.290	1.200
2020/01/31 05:16:15.4	91.760	-0.170	-0.340	1.200
2020/01/31 05:16:15.5	91.760	-0.170	-0.380	1.200
2020/01/31 05:16:15.6	91.770	-0.160	-0.410	1.200
2020/01/31 05:16:15.7	91.770	-0.150	-0.450	1.190
2020/01/31 05:16:15.8	91.780	-0.140	-0.480	1.180
2020/01/31 05:16:15.9	91.790	-0.130	-0.510	1.170
2020/01/31 05:16:16.0	91.800	-0.120	-0.530	1.150
2020/01/31 05:16:16.1	91.810	-0.110	-0.550	1.140
2020/01/31 05:16:16.2	91.820	-0.100	-0.570	1.110
2020/01/31 05:16:16.3	91.830	-0.090	-0.590	1.090
2020/01/31 05:16:16.4	91.850	-0.080	-0.600	1.070
2020/01/31 05:16:16.5	91.860	-0.070	-0.600	1.050
2020/01/31 05:16:16.6	91.870	-0.060	-0.600	1.040
2020/01/31 05:16:16.7	91.880	-0.050	-0.600	1.020
2020/01/31 05:16:16.8	91.890	-0.040	-0.590	1.000
2020/01/31 05:16:16.9	91.900	-0.030	-0.580	0.990
2020/01/31 05:16:17.0	91.910	-0.020	-0.570	0.970
2020/01/31 05:16:17.1	91.910	-0.020	-0.550	0.960
2020/01/31 05:16:17.2	91.920	-0.010	-0.520	0.950
2020/01/31 05:16:17.3	91.920	-0.010	-0.500	0.940
2020/01/31 05:16:17.4	91.920	-0.000	-0.470	0.940
2020/01/31 05:16:17.5	91.920	0.000	-0.430	0.940
2020/01/31 05:16:17.6	91.920	0.000	-0.400	0.940
2020/01/31 05:16:17.7	91.920	0.000	-0.360	0.940
2020/01/31 05:16:17.8	91.910	0.000	-0.320	0.940
2020/01/31 05:16:17.9	91.900	0.000	-0.280	0.950
2020/01/31 05:16:18.0	91.890	-0.000	-0.240	0.960
2020/01/31 05:16:18.1	91.880	-0.000	-0.200	0.970
2020/01/31 05:16:18.2	91.870	-0.010	-0.150	0.980
2020/01/31 05:16:18.3	91.860	-0.020	-0.110	0.980
2020/01/31 05:16:18.4	91.850	-0.020	-0.070	0.990
2020/01/31 05:16:18.5	91.840	-0.030	-0.030	1.000
2020/01/31 05:16:18.6	91.820	-0.040	0.000	1.010
2020/01/31 05:16:18.7	91.810	-0.050	0.040	1.010
2020/01/31 05:16:18.8	91.790	-0.060	0.070	1.020
2020/01/31 05:16:18.9	91.780	-0.070	0.090	1.020
2020/01/31 05:16:19.0	91.770	-0.080	0.120	1.020
2020/01/31 05:16:19.1	91.760	-0.090	0.130	1.010
2020/01/31 05:16:19.2	91.750	-0.100	0.150	1.010
2020/01/31 05:16:19.3	91.740	-0.100	0.150	1.000
2020/01/31 05:16:19.4	91.730	-0.110	0.150	0.990
2020/01/31 05:16:19.5	91.720	-0.110	0.140	0.980
2020/01/31 05:16:19.6	91.720	-0.110	0.130	0.970
2020/01/31 05:16:19.7	91.710	-0.110	0.110	0.950
2020/01/31 05:16:19.8	91.710	-0.110	0.080	0.930
2020/01/31 05:16:19.9	91.700	-0.100	0.040	0.920
2020/01/31 05:16:20.0	91.700	-0.090	0.000	0.900
2020/01/31 05:16:20.1	91.700	-0.080	-0.040	0.880
2020/01/31 05:16:20.2	91.700	-0.060	-0.100	0.860
2020/01/31 05:16:20.3	91.700	-0.040	-0.160	0.840
2020/01/31 05:16:20.4	91.710	-0.020	-0.220	0.820
2020/01/31 05:16:20.5	91.710	0.000	-0.280	0.800
2020/01/31 05:16:20.6	91.720	0.030	-0.350	0.770
2020/01/31 05:16:20.7	91.730	0.060	-0.410	0.750
2020/01/31 05:16:20.8	91.740	0.090	-0.480	0.720
2020/01/31 05:16:20.9	91.760	0.130	-0.540	0.700
2020/01/31 05:16:21.0	91.770	0.170	-0.610	0.680
2020/01/31 05:16:21.1	91.790	0.200	-0.670	0.650
2020/01/31 05:16:21.2	91.800	0.240	-0.720	0.630
2020/01/31 05:16:21.3	91.820	0.280	-0.770	0.600
2020/01/31 05:16:21.4	91.840	0.320	-0.820	0.580
2020/01/31 05:16:21.5	91.860	0.360	-0.860	0.560
2020/01/31 05:16:21.6	91.890	0.390	-0.890	0.540
2020/01/31 05:16:21.7	91.910	0.430	-0.910	0.520
2020/01/31 05:16:21.8	91.930	0.460	-0.920	0.510
2020/01/31 05:16:21.9	91.950	0.490	-0.930	0.490
2020/01/31 05:16:22.0	91.960	0.510	-0.920	0.480
2020/01/31 05:16:22.1	91.980	0.530	-0.900	0.470
2020/01/31 05:16:22.2	91.990	0.550	-0.880	0.460
2020/01/31 05:16:22.3	92.000	0.560	-0.850	0.460
2020/01/31 05:16:22.4	92.010	0.570	-0.800	0.460
2020/01/31 05:16:22.5	92.020	0.570	-0.750	0.450
2020/01/31 05:16:22.6	92.030	0.560	-0.690	0.460
2020/01/31 05:16:22.7	92.030	0.550	-0.620	0.460
2020/01/31 05:16:22.8	92.030	0.540	-0.540	0.470
2020/01/31 05:16:22.9	92.030	0.520	-0.460	0.470
2020/01/31 05:16:23.0	92.020	0.490	-0.370	0.480
2020/01/31 05:16:23.1	92.010	0.450	-0.280	0.500
2020/01/31 05:16:23.2	92.000	0.420	-0.180	0.510
2020/01/31 05:16:23.3	91.990	0.370	-0.090	0.530
2020/01/31 05:16:23.4	91.970	0.330	0.010	0.550
2020/01/31 05:16:23.5	91.950	0.280	0.100	0.570
2020/01/31 05:16:23.6	91.930	0.220	0.190	0.590
2020/01/31 05:16:23.7	91.910	0.170	0.280	0.610
2020/01/31 05:16:23.8	91.890	0.110	0.370	0.640
2020/01/31 05:16:23.9	91.870	0.050	0.450	0.660
2020/01/31 05:16:24.0	91.850	-0.010	0.520	0.690
2020/01/31 05:16:24.1	91.820	-0.070	0.590	0.710
2020/01/31 05:16:24.2	91.800	-0.140	0.640	0.740
2020/01/31 05:16:24.3	91.780	-0.190	0.690	0.760
2020/01/31 05:16:24.4	91.760	-0.250	0.730	0.790
2020/01/31 05:16:24.5	91.740	-0.310	0.770	0.810
2020/01/31 05:16:24.6	91.730	-0.360	0.790	0.830
2020/01/31 05:16:24.7	91.710	-0.410	0.800	0.850
2020/01/31 05:16:24.8	91.700	-0.450	0.800	0.880
2020/01/31 05:16:24.9	91.690	-0.490	0.790	0.890
2020/01/31 05:16:25.0	91.680	-0.520	0.770	0.910
2020/01/31 05:16:25.1	91.680	-0.550	0.730	0.920
2020/01/31 05:16:25.2	91.680	-0.570	0.690	0.940
2020/01/31 05:16:25.3	91.680	-0.590	0.640	0.950
2020/01/31 05:16:25.4	91.680	-0.600	0.580	0.960
2020/01/31 05:16:25.5	91.690	-0.600	0.510	0.960
2020/01/31 05:16:25.6	91.690	-0.600	0.440	0.970
2020/01/31 05:16:25.7	91.700	-0.590	0.350	0.970
2020/01/31 05:16:25.8	91.710	-0.580	0.270	0.970
2020/01/31 05:16:25.9	91.730	-0.560	0.170	0.970
2020/01/31 05:16:26.0	91.740	-0.540	0.080	0.960
2020/01/31 05:16:26.1	91.760	-0.510	-0.020	0.960
2020/01/31 05:16:26.2	91.780	-0.480	-0.120	0.950
2020/01/31 05:16:26.3	91.800	-0.440	-0.220	0.940
2020/01/31 05:16:26.4	91.820	-0.400	-0.320	0.930
2020/01/31 05:16:26.5	91.840	-0.360	-0.420	0.920
2020/01/31 05:16:26.6	91.860	-0.320	-0.510	0.900
2020/01/31 05:16:26.7	91.880	-0.270	-0.600	0.890
2020/01/31 05:16:26.8	91.910	-0.220	-0.690	0.880
2020/01/31 05:16:26.9	91.930	-0.180	-0.770	0.870
2020/01/31 05:16:27.0	91.950	-0.130	-0.840	0.860
2020/01/31 05:16:27.1	91.970	-0.080	-0.910	0.850
2020/01/31 05:16:27.2	91.980	-0.030	-0.970	0.850
2020/01/31 05:16:27.3	92.000	0.020	-1.030	0.840
2020/01/31 05:16:27.4	92.010	0.070	-1.070	0.840
2020/01/31 05:16:27.5	92.020	0.110	-1.110	0.830
2020/01/31 05:16:27.6	92.030	0.150	-1.140	0.830
2020/01/31 05:16:27.7	92.040	0.190	-1.160	0.840
2020/01/31 05:16:27.8	92.050	0.230	-1.170	0.840
2020/01/31 05:16:27.9	92.050	0.270	-1.170	0.850
2020/01/31 05:16:28.0	92.060	0.300	-1.170	0.860
2020/01/31 05:16:28.1	92.060	0.320	-1.150	0.870
2020/01/31 05:16:28.2	92.050	0.350	-1.130	0.880
2020/01/31 05:16:28.3	92.040	0.370	-1.100	0.900
2020/01/31 05:16:28.4	92.040	0.380	-1.060	0.920
2020/01/31 05:16:28.5	92.030	0.400	-1.010	0.930
2020/01/31 05:16:28.6	92.020	0.410	-0.960	0.950
2020/01/31 05:16:28.7	92.000	0.410	-0.900	0.980
2020/01/31 05:16:28.8	91.990	0.410	-0.840	1.000
2020/01/31 05:16:28.9	91.980	0.410	-0.770	1.020
2020/01/31 05:16:29.0	91.960	0.400	-0.700	1.040
2020/01/31 05:16:29.1	91.950	0.390	-0.630	1.060
2020/01/31 05:16:29.2	91.940	0.370	-0.550	1.080
2020/01/31 05:16:29.3	91.920	0.360	-0.470	1.100
2020/01/31 05:16:29.4	91.910	0.340	-0.390	1.120
2020/01/31 05:16:29.5	91.890	0.310	-0.300	1.130
2020/01/31 05:16:29.6	91.880	0.290	-0.220	1.150
2020/01/31 05:16:29.7	91.870	0.260	-0.140	1.160
2020/01/31 05:16:29.8	91.860	0.230	-0.070	1.170
2020/01/31 05:16:29.9	91.860	0.200	0.010	1.170
2020/01/31 05:16:30.0	91.850	0.170	0.080	1.180
2020/01/31 05:16:30.1	91.850	0.140	0.150	1.180
2020/01/31 05:16:30.2	91.850	0.110	0.210	1.180
2020/01/31 05:16:30.3	91.850	0.070	0.270	1.170
2020/01/31 05:16:30.4	91.860	0.040	0.320	1.160
2020/01/31 05:16:30.5	91.860	0.010	0.360	1.150
2020/01/31 05:16:30.6	91.870	-0.020	0.400	1.130
2020/01/31 05:16:30.7	91.880	-0.040	0.420	1.110
2020/01/31 05:16:30.8	91.900	-0.070	0.440	1.090
2020/01/31 05:16:30.9	91.910	-0.090	0.460	1.070
2020/01/31 05:16:31.0	91.930	-0.110	0.460	1.040
2020/01/31 05:16:31.1	91.950	-0.130	0.460	1.010
2020/01/31 05:16:31.2	91.960	-0.140	0.440	0.980
2020/01/31 05:16:31.3	91.980	-0.150	0.420	0.940
2020/01/31 05:16:31.4	92.000	-0.160	0.390	0.910
2020/01/31 05:16:31.5	92.010	-0.170	0.360	0.880
2020/01/31 05:16:31.6	92.020	-0.170	0.330	0.840
2020/01/31 05:16:31.7	92.040	-0.170	0.280	0.810
2020/01/31 05:16:31.8	92.050	-0.170	0.240	0.780
2020/01/31 05:16:31.9	92.060	-0.160	0.190	0.750
2020/01/31 05:16:32.0	92.060	-0.160	0.150	0.720
2020/01/31 05:16:32.1	92.070	-0.150	0.100	0.690
2020/01/31 05:16:32.2	92.070	-0.140	0.050	0.660
2020/01/31 05:16:32.3	92.070	-0.130	-0.000	0.640
2020/01/31 05:16:32.4	92.070	-0.120	-0.050	0.610
2020/01/31 05:16:32.5	92.070	-0.110	-0.090	0.590
2020/01/31 05:16:32.6	92.060	-0.100	-0.130	0.560
2020/01/31 05:16:32.7	92.060	-0.090	-0.170	0.540
2020/01/31 05:16:32.8	92.050	-0.080	-0.210	0.520
2020/01/31 05:16:32.9	92.040	-0.070	-0.250	0.500
2020/01/31 05:16:33.0	92.030	-0.060	-0.280	0.490
2020/01/31 05:16:33.1	92.020	-0.050	-0.300	0.470
2020/01/31 05:16:33.2	92.010	-0.040	-0.330	0.450
2020/01/31 05:16:33.3	92.000	-0.030	-0.350	0.440
2020/01/31 05:16:33.4	91.990	-0.030	-0.370	0.430
2020/01/31 05:16:33.5	91.980	-0.020	-0.390	0.420
2020/01/31 05:16:33.6	91.960	-0.020	-0.400	0.410
2020/01/31 05:16:33.7	91.950	-0.010	-0.420	0.400
2020/01/31 05:16:33.8	91.950	-0.010	-0.430	0.400
2020/01/31 05:16:33.9	91.940	-0.000	-0.440	0.400
2020/01/31 05:16:34.0	91.930	-0.000	-0.450	0.400
2020/01/31 05:16:34.1	91.920	0.000	-0.450	0.400
2020/01/31 05:16:34.2	91.920	0.000	-0.460	0.410
2020/01/31 05:16:34.3	91.910	0.010	-0.470	0.420
2020/01/31 05:16:34.4	91.910	0.010	-0.480	0.430
2020/01/31 05:16:34.5	91.910	0.010	-0.480	0.440
2020/01/31 05:16:34.6	91.910	0.010	-0.490	0.450
2020/01/31 05:16:34.7	91.920	0.010	-0.490	0.470
2020/01/31 05:16:34.8	91.920	0.010	-0.500	0.480
2020/01/31 05:16:34.9	91.930	0.010	-0.500	0.500
2020/01/31 05:16:35.0	91.940	0.020	-0.500	0.520
2020/01/31 05:16:35.1	91.950	0.020	-0.510	0.540
2020/01/31 05:16:35.2	91.960	0.020	-0.500	0.560
2020/01/31 05:16:35.3	91.970	0.020	-0.500	0.570
2020/01/31 05:16:35.4	91.980	0.020	-0.500	0.590
2020/01/31 05:16:35.5	91.990	0.030	-0.500	0.610
2020/01/31 05:16:35.6	92.010	0.030	-0.490	0.630
2020/01/31 05:16:35.7	92.020	0.030	-0.480	0.640
2020/01/31 05:16:35.8	92.040	0.030	-0.470	0.660
2020/01/31 05:16:35.9	92.050	0.030	-0.460	0.670
2020/01/31 05:16:36.0	92.060	0.030	-0.440	0.690
2020/01/31 05:16:36.1	92.080	0.030	-0.420	0.700
2020/01/31 05:16:36.2	92.090	0.020	-0.400	0.720
2020/01/31 05:16:36.3	92.110	0.020	-0.380	0.740
2020/01/31 05:16:36.4	92.120	0.020	-0.350	0.750
2020/01/31 05:16:36.5	92.140	0.010	-0.320	0.770
2020/01/31 05:16:36.6	92.150	0.000	-0.290	0.780
2020/01/31 05:16:36.7	92.160	-0.010	-0.250	0.800
2020/01/31 05:16:36.8	92.180	-0.020	-0.220	0.810
2020/01/31 05:16:36.9	92.190	-0.030	-0.180	0.830
2020/01/31 05:16:37.0	92.200	-0.040	-0.140	0.850
2020/01/31 05:16:37.1	92.210	-0.060	-0.100	0.870
2020/01/31 05:16:37.2	92.220	-0.070	-0.060	0.890
2020/01/31 05:16:37.3	92.230	-0.090	-0.020	0.910
2020/01/31 05:16:37.4	92.230	-0.110	0.020	0.930
2020/01/31 05:16:37.5	92.240	-0.130	0.050	0.950
2020/01/31 05:16:37.6	92.240	-0.150	0.090	0.970
2020/01/31 05:16:37.7	92.250	-0.170	0.120	1.000
2020/01/31 05:16:37.8	92.250	-0.190	0.150	1.020
2020/01/31 05:16:37.9	92.240	-0.210	0.170	1.050
2020/01/31 05:16:38.0	92.240	-0.220	0.190	1.080
2020/01/31 05:16:38.1	92.240	-0.240	0.210	1.100
2020/01/31 05:16:38.2	92.240	-0.260	0.220	1.130
2020/01/31 05:16:38.3	92.230	-0.280	0.230	1.150
2020/01/31 05:16:38.4	92.230	-0.290	0.230	1.170
2020/01/31 05:16:38.5	92.230	-0.300	0.230	1.190
2020/01/31 05:16:38.6	92.230	-0.320	0.220	1.210
2020/01/31 05:16:38.7	92.230	-0.330	0.210	1.230
2020/01/31 05:16:38.8	92.230	-0.330	0.190	1.240
2020/01/31 05:16:38.9	92.230	-0.340	0.160	1.250
2020/01/31 05:16:39.0	92.230	-0.340	0.130	1.260
2020/01/31 05:16:39.1	92.230	-0.340	0.100	1.270
2020/01/31 05:16:39.2	92.240	-0.330	0.060	1.270
2020/01/31 05:16:39.3	92.240	-0.330	0.010	1.270
2020/01/31 05:16:39.4	92.250	-0.320	-0.030	1.260
2020/01/31 05:16:39.5	92.250	-0.310	-0.090	1.260
2020/01/31 05:16:39.6	92.260	-0.290	-0.140	1.250
2020/01/31 05:16:39.7	92.270	-0.270	-0.200	1.240
2020/01/31 05:16:39.8	92.280	-0.250	-0.250	1.220
2020/01/31 05:16:39.9	92.280	-0.230	-0.310	1.210
2020/01/31 05:16:40.0	92.290	-0.210	-0.370	1.190
2020/01/31 05:16:40.1	92.300	-0.180	-0.420	1.170
2020/01/31 05:16:40.2	92.310	-0.150	-0.480	1.150
2020/01/31 05:16:40.3	92.310	-0.120	-0.530	1.120
2020/01/31 05:16:40.4	92.310	-0.090	-0.580	1.100
2020/01/31 05:16:40.5	92.320	-0.050	-0.620	1.070
2020/01/31 05:16:40.6	92.320	-0.020	-0.660	1.050
2020/01/31 05:16:40.7	92.320	0.010	-0.690	1.020
2020/01/31 05:16:40.8	92.320	0.050	-0.720	0.990
2020/01/31 05:16:40.9	92.320	0.080	-0.740	0.960
2020/01/31 05:16:41.0	92.320	0.120	-0.760	0.930
2020/01/31 05:16:41.1	92.320	0.150	-0.770	0.900
2020/01/31 05:16:41.2	92.320	0.190	-0.770	0.880
2020/01/31 05:16:41.3	92.310	0.220	-0.770	0.850
2020/01/31 05:16:41.4	92.310	0.250	-0.760	0.820
2020/01/31 05:16:41.5	92.310	0.270	-0.740	0.790
2020/01/31 05:16:41.6	92.300	0.300	-0.710	0.760
2020/01/31 05:16:41.7	92.300	0.320	-0.680	0.730
2020/01/31 05:16:41.8	92.290	0.340	-0.640	0.700
2020/01/31 05:16:41.9	92.290	0.360	-0.600	0.670
2020/01/31 05:16:42.0	92.280	0.380	-0.550	0.650
2020/01/31 05:16:42.1	92.280	0.390	-0.500	0.630
2020/01/31 05:16:42.2	92.270	0.400	-0.440	0.600
2020/01/31 05:16:42.3	92.260	0.410	-0.390	0.580
2020/01/31 05:16:42.4	92.250	0.410	-0.330	0.560
2020/01/31 05:16:42.5	92.240	0.410	-0.270	0.540
2020/01/31 05:16:42.6	92.230	0.410	-0.210	0.530
2020/01/31 05:16:42.7	92.220	0.410	-0.150	0.510
2020/01/31 05:16:42.8	92.210	0.400	-0.090	0.500
2020/01/31 05:16:42.9	92.200	0.390	-0.030	0.490
2020/01/31 05:16:43.0	92.180	0.380	0.020	0.470
2020/01/31 05:16:43.1	92.170	0.370	0.070	0.460
2020/01/31 05:16:43.2	92.160	0.360	0.110	0.450
2020/01/31 05:16:43.3	92.140	0.340	0.150	0.440
2020/01/31 05:16:43.4	92.130	0.330	0.180	0.430
2020/01/31 05:16:43.5	92.130	0.310	0.210	0.420
2020/01/31 05:16:43.6	92.120	0.290	0.230	0.410
2020/01/31 05:16:43.7	92.110	0.280	0.240	0.390
2020/01/31 05:16:43.8	92.110	0.260	0.250	0.380
2020/01/31 05:16:43.9	92.110	0.240	0.250	0.360
2020/01/31 05:16:44.0	92.110	0.230	0.250	0.350
2020/01/31 05:16:44.1	92.110	0.210	0.230	0.330
2020/01/31 05:16:44.2	92.110	0.200	0.220	0.310
2020/01/31 05:16:44.3	92.120	0.180	0.190	0.290
2020/01/31 05:16:44.4	92.130	0.170	0.160	0.280
2020/01/31 05:16:44.5	92.140	0.160	0.130	0.260
2020/01/31 05:16:44.6	92.150	0.150	0.090	0.240
2020/01/31 05:16:44.7	92.160	0.130	0.050	0.220
2020/01/31 05:16:44.8	92.170	0.120	0.010	0.210
2020/01/31 05:16:44.9	92.190	0.110	-0.040	0.190
2020/01/31 05:16:45.0	92.200	0.110	-0.090	0.180
2020/01/31 05:16:45.1	92.210	0.100	-0.140	0.170
2020/01/31 05:16:45.2	92.230	0.090	-0.190	0.160
2020/01/31 05:16:45.3	92.240	0.080	-0.240	0.160
2020/01/31 05:16:45.4	92.250	0.070	-0.280	0.160
2020/01/31 05:16:45.5	92.270	0.070	-0.320	0.160
2020/01/31 05:16:45.6	92.280	0.060	-0.360	0.170
2020/01/31 05:16:45.7	92.290	0.050	-0.400	0.190
2020/01/31 05:16:45.8	92.300	0.050	-0.430	0.210
2020/01/31 05:16:45.9	92.310	0.040	-0.460	0.230
2020/01/31 05:16:46.0	92.320	0.030	-0.480	0.260
2020/01/31 05:16:46.1	92.330	0.020	-0.500	0.290
2020/01/31 05:16:46.2	92.340	0.010	-0.510	0.330
2020/01/31 05:16:46.3	92.350	0.000	-0.520	0.370
2020/01/31 05:16:46.4	92.360	-0.010	-0.520	0.410
2020/01/31 05:16:46.5	92.360	-0.020	-0.520	0.460
2020/01/31 05:16:46.6	92.370	-0.030	-0.510	0.500
2020/01/31 05:16:46.7	92.380	-0.040	-0.500	0.550
2020/01/31 05:16:46.8	92.380	-0.060	-0.480	0.600
2020/01/31 05:16:46.9	92.380	-0.070	-0.460	0.650
2020/01/31 05:16:47.0	92.390	-0.080	-0.430	0.690
2020/01/31 05:16:47.1	92.390	-0.100	-0.400	0.740
2020/01/31 05:16:47.2	92.390	-0.110	-0.370	0.790
2020/01/31 05:16:47.3	92.390	-0.130	-0.340	0.830
2020/01/31 05:16:47.4	92.390	-0.140	-0.310	0.870
2020/01/31 05:16:47.5	92.390	-0.160	-0.270	0.920
2020/01/31 05:16:47.6	92.390	-0.170	-0.240	0.950
2020/01/31 05:16:47.7	92.390	-0.190	-0.200	0.990
2020/01/31 05:16:47.8	92.390	-0.200	-0.170	1.030
2020/01/31 05:16:47.9	92.380	-0.220	-0.140	1.070
2020/01/31 05:16:48.0	92.370	-0.230	-0.110	1.100
2020/01/31 05:16:48.1	92.370	-0.240	-0.080	1.140
2020/01/31 05:16:48.2	92.360	-0.250	-0.050	1.170
2020/01/31 05:16:48.3	92.350	-0.260	-0.030	1.200
2020/01/31 05:16:48.4	92.340	-0.270	-0.020	1.230
2020/01/31 05:16:48.5	92.330	-0.270	-0.000	1.260
2020/01/31 05:16:48.6	92.310	-0.280	0.010	1.290
2020/01/31 05:16:48.7	92.300	-0.280	0.020	1.320
2020/01/31 05:16:48.8	92.290	-0.290	0.020	1.340
2020/01/31 05:16:48.9	92.280	-0.290	0.020	1.360
2020/01/31 05:16:49.0	92.260	-0.290	0.010	1.380
2020/01/31 05:16:49.1	92.250	-0.290	0.010	1.400
2020/01/31 05:16:49.2	92.240	-0.280	0.000	1.410
2020/01/31 05:16:49.3	92.230	-0.280	-0.010	1.420
2020/01/31 05:16:49.4	92.220	-0.280	-0.030	1.430
2020/01/31 05:16:49.5	92.220	-0.270	-0.050	1.430
2020/01/31 05:16:49.6	92.210	-0.260	-0.060	1.430
2020/01/31 05:16:49.7	92.210	-0.260	-0.080	1.420
2020/01/31 05:16:49.8	92.200	-0.250	-0.110	1.410
2020/01/31 05:16:49.9	92.200	-0.240	-0.130	1.390
2020/01/31 05:16:50.0	92.200	-0.230	-0.150	1.380
2020/01/31 05:16:50.1	92.200	-0.220	-0.170	1.350
2020/01/31 05:16:50.2	92.210	-0.210	-0.190	1.320
2020/01/31 05:16:50.3	92.210	-0.200	-0.210	1.290
2020/01/31 05:16:50.4	92.210	-0.190	-0.230	1.260
2020/01/31 05:16:50.5	92.220	-0.180	-0.240	1.230
2020/01/31 05:16:50.6	92.220	-0.170	-0.260	1.190
2020/01/31 05:16:50.7	92.220	-0.160	-0.270	1.160
2020/01/31 05:16:50.8	92.230	-0.140	-0.280	1.120
2020/01/31 05:16:50.9	92.230	-0.130	-0.290	1.080
2020/01/31 05:16:51.0	92.240	-0.110	-0.300	1.050
2020/01/31 05:16:51.1	92.240	-0.100	-0.310	1.010
2020/01/31 05:16:51.2	92.240	-0.080	-0.310	0.970
2020/01/31 05:16:51.3	92.250	-0.070	-0.320	0.940
2020/01/31 05:16:51.4	92.250	-0.050	-0.330	0.900
2020/01/31 05:16:51.5	92.250	-0.030	-0.330	0.870
2020/01/31 05:16:51.6	92.250	-0.010	-0.340	0.840
2020/01/31 05:16:51.7	92.250	0.010	-0.350	0.810
2020/01/31 05:16:51.8	92.250	0.040	-0.360	0.790
2020/01/31 05:16:51.9	92.250	0.060	-0.370	0.760
2020/01/31 05:16:52.0	92.250	0.090	-0.380	0.740
2020/01/31 05:16:52.1	92.240	0.110	-0.390	0.710
2020/01/31 05:16:52.2	92.240	0.140	-0.410	0.690
2020/01/31 05:16:52.3	92.240	0.170	-0.430	0.670
2020/01/31 05:16:52.4	92.240	0.200	-0.450	0.650
2020/01/31 05:16:52.5	92.230	0.240	-0.470	0.640
2020/01/31 05:16:52.6	92.220	0.270	-0.490	0.630
2020/01/31 05:16:52.7	92.220	0.300	-0.520	0.610
2020/01/31 05:16:52.8	92.210	0.330	-0.540	0.600
2020/01/31 05:16:52.9	92.200	0.360	-0.560	0.600
2020/01/31 05:16:53.0	92.180	0.390	-0.590	0.590
2020/01/31 05:16:53.1	92.170	0.420	-0.610	0.580
2020/01/31 05:16:53.2	92.150	0.450	-0.630	0.580
2020/01/31 05:16:53.3	92.140	0.470	-0.650	0.580
2020/01/31 05:16:53.4	92.120	0.500	-0.660	0.580
2020/01/31 05:16:53.5	92.110	0.520	-0.670	0.580
2020/01/31 05:16:53.6	92.090	0.530	-0.680	0.580
2020/01/31 05:16:53.7	92.070	0.540	-0.680	0.590
2020/01/31 05:16:53.8	92.060	0.550	-0.680	0.600
2020/01/31 05:16:53.9	92.040	0.560	-0.670	0.610
2020/01/31 05:16:54.0	92.020	0.560	-0.660	0.620
2020/01/31 05:16:54.1	92.010	0.550	-0.640	0.630
2020/01/31 05:16:54.2	91.990	0.550	-0.610	0.640
2020/01/31 05:16:54.3	91.980	0.530	-0.590	0.650
2020/01/31 05:16:54.4	91.970	0.510	-0.550	0.670
2020/01/31 05:16:54.5	91.960	0.490	-0.510	0.690
2020/01/31 05:16:54.6	91.950	0.460	-0.470	0.710
2020/01/31 05:16:54.7	91.950	0.430	-0.420	0.730
2020/01/31 05:16:54.8	91.940	0.390	-0.370	0.750
2020/01/31 05:16:54.9	91.940	0.350	-0.310	0.780
2020/01/31 05:16:55.0	91.940	0.310	-0.250	0.800
2020/01/31 05:16:55.1	91.940	0.260	-0.190	0.820
2020/01/31 05:16:55.2	91.950	0.210	-0.130	0.850
2020/01/31 05:16:55.3	91.960	0.160	-0.060	0.870
2020/01/31 05:16:55.4	91.970	0.100	0.000	0.890
2020/01/31 05:16:55.5	91.980	0.050	0.070	0.920
2020/01/31 05:16:55.6	91.990	-0.010	0.130	0.940
2020/01/31 05:16:55.7	92.010	-0.070	0.200	0.960
2020/01/31 05:16:55.8	92.020	-0.130	0.260	0.980
2020/01/31 05:16:55.9	92.040	-0.190	0.320	1.000
2020/01/31 05:16:56.0	92.060	-0.250	0.370	1.020
2020/01/31 05:16:56.1	92.080	-0.310	0.420	1.040
2020/01/31 05:16:56.2	92.100	-0.370	0.470	1.060
2020/01/31 05:16:56.3	92.130	-0.420	0.510	1.080
2020/01/31 05:16:56.4	92.150	-0.470	0.550	1.100
2020/01/31 05:16:56.5	92.170	-0.520	0.580	1.110
2020/01/31 05:16:56.6	92.190	-0.570	0.600	1.130
2020/01/31 05:16:56.7	92.210	-0.610	0.620	1.150
2020/01/31 05:16:56.8	92.240	-0.640	0.620	1.160
2020/01/31 05:16:56.9	92.260	-0.680	0.620	1.180
2020/01/31 05:16:57.0	92.280	-0.700	0.620	1.190
2020/01/31 05:16:57.1	92.300	-0.730	0.610	1.200
2020/01/31 05:16:57.2	92.320	-0.740	0.580	1.210
2020/01/31 05:16:57.3	92.340	-0.760	0.560	1.230
2020/01/31 05:16:57.4	92.360	-0.770	0.530	1.240
2020/01/31 05:16:57.5	92.370	-0.770	0.490	1.240
2020/01/31 05:16:57.6	92.390	-0.770	0.440	1.250
2020/01/31 05:16:57.7	92.400	-0.760	0.390	1.260
2020/01/31 05:16:57.8	92.410	-0.750	0.340	1.260
2020/01/31 05:16:57.9	92.420	-0.730	0.280	1.270
2020/01/31 05:16:58.0	92.420	-0.710	0.220	1.270
2020/01/31 05:16:58.1	92.430	-0.690	0.150	1.270
2020/01/31 05:16:58.2	92.430	-0.660	0.080	1.270
2020/01/31 05:16:58.3	92.430	-0.620	0.000	1.270
2020/01/31 05:16:58.4	92.430	-0.590	-0.070	1.270
2020/01/31 05:16:58.5	92.430	-0.540	-0.150	1.260
2020/01/31 05:16:58.6	92.420	-0.500	-0.230	1.260
2020/01/31 05:16:58.7	92.410	-0.450	-0.310	1.250
2020/01/31 05:16:58.8	92.410	-0.400	-0.390	1.250
2020/01/31 05:16:58.9	92.400	-0.340	-0.470	1.240
2020/01/31 05:16:59.0	92.390	-0.290	-0.540	1.230
2020/01/31 05:16:59.1	92.370	-0.230	-0.620	1.230
2020/01/31 05:16:59.2	92.360	-0.170	-0.690	1.220
2020/01/31 05:16:59.3	92.340	-0.110	-0.760	1.210
2020/01/31 05:16:59.4	92.320	-0.040	-0.830	1.200
2020/01/31 05:16:59.5	92.310	0.020	-0.890	1.190
2020/01/31 05:16:59.6	92.290	0.080	-0.940	1.190
2020/01/31 05:16:59.7	92.270	0.140	-0.980	1.180
2020/01/31 05:16:59.8	92.250	0.200	-1.020	1.170
2020/01/31 05:16:59.9	92.240	0.260	-1.050	1.170
2020/01/31 05:17:00.0	92.220	0.310	-1.070	1.160
2020/01/31 05:17:00.1	92.200	0.360	-1.080	1.150
2020/01/31 05:17:00.2	92.180	0.410	-1.090	1.150
2020/01/31 05:17:00.3	92.160	0.450	-1.080	1.140
2020/01/31 05:17:00.4	92.150	0.490	-1.060	1.130
2020/01/31 05:17:00.5	92.130	0.520	-1.030	1.120
2020/01/31 05:17:00.6	92.120	0.550	-1.000	1.100
2020/01/31 05:17:00.7	92.110	0.580	-0.950	1.090
2020/01/31 05:17:00.8	92.100	0.590	-0.900	1.070
2020/01/31 05:17:00.9	92.080	0.610	-0.840	1.050
2020/01/31 05:17:01.0	92.070	0.620	-0.770	1.020
2020/01/31 05:17:01.1	92.060	0.620	-0.700	0.990
2020/01/31 05:17:01.2	92.050	0.620	-0.610	0.960
2020/01/31 05:17:01.3	92.040	0.610	-0.530	0.920
2020/01/31 05:17:01.4	92.030	0.600	-0.450	0.880
2020/01/31 05:17:01.5	92.030	0.580	-0.360	0.840
2020/01/31 05:17:01.6	92.020	0.560	-0.280	0.790
2020/01/31 05:17:01.7	92.010	0.540	-0.200	0.740
2020/01/31 05:17:01.8	92.000	0.510	-0.110	0.690
2020/01/31 05:17:01.9	92.000	0.480	-0.040	0.640
2020/01/31 05:17:02.0	91.990	0.450	0.040	0.590
2020/01/31 05:17:02.1	91.980	0.410	0.110	0.530
2020/01/31 05:17:02.2	91.970	0.380	0.170	0.480
2020/01/31 05:17:02.3	91.970	0.340	0.230	0.430
2020/01/31 05:17:02.4	91.960	0.310	0.280	0.380
2020/01/31 05:17:02.5	91.950	0.280	0.310	0.340
2020/01/31 05:17:02.6	91.940	0.240	0.340	0.300
2020/01/31 05:17:02.7	91.930	0.210	0.360	0.270
2020/01/31 05:17:02.8	91.920	0.180	0.380	0.240
2020/01/31 05:17:02.9	91.910	0.160	0.380	0.210
2020/01/31 05:17:03.0	91.900	0.130	0.370	0.190
2020/01/31 05:17:03.1	91.890	0.110	0.350	0.170
2020/01/31 05:17:03.2	91.880	0.100	0.330	0.160
2020/01/31 05:17:03.3	91.880	0.080	0.300	0.150
2020/01/31 05:17:03.4	91.880	0.070	0.260	0.140
2020/01/31 05:17:03.5	91.880	0.060	0.210	0.130
2020/01/31 05:17:03.6	91.880	0.050	0.150	0.130
2020/01/31 05:17:03.7	91.880	0.050	0.100	0.130
2020/01/31 05:17:03.8	91.890	0.050	0.030	0.140
2020/01/31 05:17:03.9	91.900	0.050	-0.030	0.140
2020/01/31 05:17:04.0	91.910	0.050	-0.100	0.150
2020/01/31 05:17:04.1	91.930	0.060	-0.170	0.160
2020/01/31 05:17:04.2	91.940	0.060	-0.240	0.160
2020/01/31 05:17:04.3	91.950	0.070	-0.300	0.180
2020/01/31 05:17:04.4	91.970	0.070	-0.370	0.190
2020/01/31 05:17:04.5	91.980	0.080	-0.430	0.210
2020/01/31 05:17:04.6	92.000	0.080	-0.480	0.220
2020/01/31 05:17:04.7	92.010	0.080	-0.530	0.240
2020/01/31 05:17:04.8	92.020	0.080	-0.570	0.260
2020/01/31 05:17:04.9	92.030	0.080	-0.610	0.280
2020/01/31 05:17:05.0	92.040	0.080	-0.640	0.300
2020/01/31 05:17:05.1	92.040	0.070	-0.660	0.320
2020/01/31 05:17:05.2	92.040	0.060	-0.680	0.340
2020/01/31 05:17:05.3	92.040	0.050	-0.690	0.370
2020/01/31 05:17:05.4	92.030	0.040	-0.690	0.390
2020/01/31 05:17:05.5	92.030	0.030	-0.680	0.420
2020/01/31 05:17:05.6	92.020	0.010	-0.660	0.450
2020/01/31 05:17:05.7	92.010	-0.000	-0.640	0.480
2020/01/31 05:17:05.8	92.000	-0.020	-0.610	0.510
2020/01/31 05:17:05.9	91.980	-0.040	-0.580	0.550
2020/01/31 05:17:06.0	91.970	-0.070	-0.540	0.580
2020/01/31 05:17:06.1	91.950	-0.090	-0.490	0.620
2020/01/31 05:17:06.2	91.930	-0.110	-0.440	0.670
2020/01/31 05:17:06.3	91.910	-0.140	-0.390	0.710
2020/01/31 05:17:06.4	91.880	-0.160	-0.340	0.750
2020/01/31 05:17:06.5	91.860	-0.180	-0.280	0.800
2020/01/31 05:17:06.6	91.840	-0.210	-0.220	0.840
2020/01/31 05:17:06.7	91.820	-0.230	-0.170	0.890
2020/01/31 05:17:06.8	91.800	-0.250	-0.110	0.930
2020/01/31 05:17:06.9	91.780	-0.270	-0.060	0.980
2020/01/31 05:17:07.0	91.770	-0.290	-0.010	1.020
2020/01/31 05:17:07.1	91.760	-0.300	0.040	1.060
2020/01/31 05:17:07.2	91.750	-0.320	0.080	1.100
2020/01/31 05:17:07.3	91.740	-0.330	0.120	1.130
2020/01/31 05:17:07.4	91.730	-0.340	0.150	1.160
2020/01/31 05:17:07.5	91.730	-0.340	0.180	1.190
2020/01/31 05:17:07.6	91.740	-0.340	0.200	1.220
2020/01/31 05:17:07.7	91.740	-0.340	0.210	1.240
2020/01/31 05:17:07.8	91.750	-0.340	0.220	1.250
2020/01/31 05:17:07.9	91.760	-0.330	0.220	1.270
2020/01/31 05:17:08.0	91.770	-0.330	0.220	1.280
2020/01/31 05:17:08.1	91.780	-0.320	0.210	1.290
2020/01/31 05:17:08.2	91.790	-0.310	0.200	1.300
2020/01/31 05:17:08.3	91.810	-0.290	0.180	1.300
2020/01/31 05:17:08.4	91.820	-0.280	0.160	1.300
2020/01/31 05:17:08.5	91.830	-0.260	0.130	1.300
2020/01/31 05:17:08.6	91.850	-0.250	0.100	1.300
2020/01/31 05:17:08.7	91.860	-0.230	0.070	1.290
2020/01/31 05:17:08.8	91.870	-0.210	0.040	1.280
2020/01/31 05:17:08.9	91.880	-0.190	0.010	1.270
2020/01/31 05:17:09.0	91.890	-0.170	-0.030	1.250
2020/01/31 05:17:09.1	91.900	-0.150	-0.070	1.230
2020/01/31 05:17:09.2	91.910	-0.140	-0.110	1.210
2020/01/31 05:17:09.3	91.910	-0.120	-0.140	1.190
2020/01/31 05:17:09.4	91.920	-0.100	-0.180	1.160
2020/01/31 05:17:09.5	91.920	-0.080	-0.210	1.140
2020/01/31 05:17:09.6	91.920	-0.070	-0.250	1.110
2020/01/31 05:17:09.7	91.920	-0.050	-0.280	1.080
2020/01/31 05:17:09.8	91.920	-0.040	-0.310	1.050
2020/01/31 05:17:09.9	91.920	-0.030	-0.330	1.020
2020/01/31 05:17:10.0	91.920	-0.020	-0.360	0.980
2020/01/31 05:17:10.1	91.920	-0.010	-0.380	0.950
2020/01/31 05:17:10.2	91.920	0.000	-0.400	0.920
2020/01/31 05:17:10.3	91.920	0.010	-0.410	0.890
2020/01/31 05:17:10.4	91.920	0.020	-0.420	0.860
2020/01/31 05:17:10.5	91.920	0.020	-0.430	0.830
2020/01/31 05:17:10.6	91.910	0.020	-0.430	0.810
2020/01/31 05:17:10.7	91.910	0.020	-0.430	0.790
2020/01/31 05:17:10.8	91.910	0.020	-0.420	0.770
2020/01/31 05:17:10.9	91.910	0.020	-0.410	0.760
2020/01/31 05:17:11.0	91.910	0.020	-0.400	0.750
2020/01/31 05:17:11.1	91.910	0.010	-0.390	0.740
2020/01/31 05:17:11.2	91.910	0.010	-0.370	0.730
2020/01/31 05:17:11.3	91.900	0.000	-0.360	0.730
2020/01/31 05:17:11.4	91.900	-0.010	-0.340	0.740
2020/01/31 05:17:11.5	91.890	-0.010	-0.310	0.740
2020/01/31 05:17:11.6	91.890	-0.020	-0.290	0.750
2020/01/31 05:17:11.7	91.880	-0.030	-0.270	0.760
2020/01/31 05:17:11.8	91.880	-0.040	-0.250	0.770
2020/01/31 05:17:11.9	91.870	-0.060	-0.230	0.790
2020/01/31 05:17:12.0	91.860	-0.070	-0.200	0.800
2020/01/31 05:17:12.1	91.860	-0.080	-0.190	0.810
2020/01/31 05:17:12.2	91.850	-0.090	-0.160	0.830
2020/01/31 05:17:12.3	91.840	-0.100	-0.150	0.840
2020/01/31 05:17:12.4	91.840	-0.110	-0.140	0.850
2020/01/31 05:17:12.5	91.830	-0.110	-0.130	0.860
2020/01/31 05:17:12.6	91.820	-0.120	-0.120	0.870
2020/01/31 05:17:12.7	91.810	-0.130	-0.120	0.880
2020/01/31 05:17:12.8	91.810	-0.130	-0.120	0.880
2020/01/31 05:17:12.9	91.800	-0.140	-0.130	0.890
2020/01/31 05:17:13.0	91.800	-0.140	-0.140	0.890
2020/01/31 05:17:13.1	91.800	-0.140	-0.150	0.890
2020/01/31 05:17:13.2	91.790	-0.140	-0.160	0.880
2020/01/31 05:17:13.3	91.790	-0.140	-0.170	0.870
2020/01/31 05:17:13.4	91.800	-0.140	-0.190	0.870
2020/01/31 05:17:13.5	91.800	-0.140	-0.210	0.860
2020/01/31 05:17:13.6	91.800	-0.130	-0.230	0.850
2020/01/31 05:17:13.7	91.800	-0.130	-0.250	0.840
2020/01/31 05:17:13.8	91.810	-0.120	-0.270	0.840
2020/01/31 05:17:13.9	91.810	-0.110	-0.290	0.830
2020/01/31 05:17:14.0	91.820	-0.110	-0.320	0.820
2020/01/31 05:17:14.1	91.820	-0.100	-0.340	0.810
2020/01/31 05:17:14.2	91.830	-0.090	-0.360	0.800
2020/01/31 05:17:14.3	91.830	-0.080	-0.380	0.790
2020/01/31 05:17:14.4	91.840	-0.060	-0.400	0.790
2020/01/31 05:17:14.5	91.840	-0.050	-0.410	0.780
2020/01/31 05:17:14.6	91.840	-0.040	-0.430	0.780
2020/01/31 05:17:14.7	91.850	-0.020	-0.450	0.770
2020/01/31 05:17:14.8	91.850	-0.010	-0.460	0.770
2020/01/31 05:17:14.9	91.850	0.010	-0.470	0.760
2020/01/31 05:17:15.0	91.850	0.030	-0.480	0.760
2020/01/31 05:17:15.1	91.850	0.040	-0.490	0.760
2020/01/31 05:17:15.2	91.860	0.060	-0.500	0.760
2020/01/31 05:17:15.3	91.860	0.080	-0.500	0.760
2020/01/31 05:17:15.4	91.860	0.100	-0.500	0.760
2020/01/31 05:17:15.5	91.870	0.120	-0.500	0.760
2020/01/31 05:17:15.6	91.870	0.140	-0.500	0.760
2020/01/31 05:17:15.7	91.870	0.160	-0.500	0.760
2020/01/31 05:17:15.8	91.870	0.180	-0.490	0.770
2020/01/31 05:17:15.9	91.870	0.200	-0.480	0.770
2020/01/31 05:17:16.0	91.880	0.220	-0.470	0.780
2020/01/31 05:17:16.1	91.880	0.240	-0.450	0.790
2020/01/31 05:17:16.2	91.880	0.260	-0.440	0.800
2020/01/31 05:17:16.3	91.880	0.270	-0.420	0.810
2020/01/31 05:17:16.4	91.880	0.290	-0.400	0.820
2020/01/31 05:17:16.5	91.880	0.300	-0.380	0.830
2020/01/31 05:17:16.6	91.880	0.320	-0.350	0.840
2020/01/31 05:17:16.7	91.870	0.330	-0.330	0.860
2020/01/31 05:17:16.8	91.870	0.340	-0.300	0.870
2020/01/31 05:17:16.9	91.860	0.350	-0.270	0.890
2020/01/31 05:17:17.0	91.860	0.350	-0.240	0.910
2020/01/31 05:17:17.1	91.850	0.360	-0.220	0.920
2020/01/31 05:17:17.2	91.840	0.360	-0.190	0.940
2020/01/31 05:17:17.3	91.820	0.360	-0.160	0.960
2020/01/31 05:17:17.4	91.810	0.360	-0.130	0.970
2020/01/31 05:17:17.5	91.790	0.360	-0.110	0.990
2020/01/31 05:17:17.6	91.780	0.360	-0.080	1.000
2020/01/31 05:17:17.7	91.760	0.350	-0.060	1.010
2020/01/31 05:17:17.8	91.740	0.340	-0.040	1.020
2020/01/31 05:17:17.9	91.720	0.340	-0.020	1.030
2020/01/31 05:17:18.0	91.700	0.330	-0.000	1.030
2020/01/31 05:17:18.1	91.680	0.320	0.010	1.030
2020/01/31 05:17:18.2	91.660	0.310	0.020	1.020
2020/01/31 05:17:18.3	91.640	0.290	0.030	1.020
2020/01/31 05:17:18.4	91.620	0.280	0.030	1.010
2020/01/31 05:17:18.5	91.610	0.270	0.030	0.990
2020/01/31 05:17:18.6	91.590	0.260	0.030	0.970
2020/01/31 05:17:18.7	91.580	0.250	0.030	0.950
2020/01/31 05:17:18.8	91.570	0.230	0.020	0.920
2020/01/31 05:17:18.9	91.560	0.220	0.010	0.890
2020/01/31 05:17:19.0	91.560	0.210	-0.000	0.860
2020/01/31 05:17:19.1	91.570	0.200	-0.020	0.820
2020/01/31 05:17:19.2	91.570	0.180	-0.030	0.780
2020/01/31 05:17:19.3	91.580	0.170	-0.050	0.740
2020/01/31 05:17:19.4	91.600	0.160	-0.070	0.690
2020/01/31 05:17:19.5	91.610	0.150	-0.090	0.650
2020/01/31 05:17:19.6	91.630	0.140	-0.120	0.610
2020/01/31 05:17:19.7	91.650	0.130	-0.140	0.570
2020/01/31 05:17:19.8	91.680	0.120	-0.160	0.530
2020/01/31 05:17:19.9	91.700	0.110	-0.180	0.490
2020/01/31 05:17:20.0	91.730	0.100	-0.200	0.460
2020/01/31 05:17:20.1	91.750	0.090	-0.220	0.430
2020/01/31 05:17:20.2	91.780	0.080	-0.240	0.400
2020/01/31 05:17:20.3	91.800	0.070	-0.260	0.380
2020/01/31 05:17:20.4	91.830	0.060	-0.270	0.360
2020/01/31 05:17:20.5	91.850	0.040	-0.280	0.350
2020/01/31 05:17:20.6	91.870	0.030	-0.290	0.340
2020/01/31 05:17:20.7	91.900	0.020	-0.300	0.330
2020/01/31 05:17:20.8	91.920	0.000	-0.300	0.330
2020/01/31 05:17:20.9	91.940	-0.010	-0.300	0.330
2020/01/31 05:17:21.0	91.960	-0.030	-0.290	0.330
2020/01/31 05:17:21.1	91.970	-0.040	-0.280	0.340
2020/01/31 05:17:21.2	91.990	-0.060	-0.280	0.350
2020/01/31 05:17:21.3	92.010	-0.080	-0.260	0.360
2020/01/31 05:17:21.4	92.020	-0.100	-0.240	0.380
2020/01/31 05:17:21.5	92.040	-0.120	-0.230	0.390
2020/01/31 05:17:21.6	92.050	-0.140	-0.200	0.410
2020/01/31 05:17:21.7	92.060	-0.160	-0.180	0.430
2020/01/31 05:17:21.8	92.070	-0.180	-0.160	0.450
2020/01/31 05:17:21.9	92.080	-0.200	-0.130	0.470
2020/01/31 05:17:22.0	92.080	-0.220	-0.110	0.500
2020/01/31 05:17:22.1	92.090	-0.250	-0.080	0.520
2020/01/31 05:17:22.2	92.090	-0.270	-0.060	0.540
2020/01/31 05:17:22.3	92.090	-0.290	-0.030	0.570
2020/01/31 05:17:22.4	92.090	-0.310	-0.010	0.600
2020/01/31 05:17:22.5	92.090	-0.330	0.010	0.630
2020/01/31 05:17:22.6	92.080	-0.350	0.030	0.660
2020/01/31 05:17:22.7	92.080	-0.370	0.040	0.690
2020/01/31 05:17:22.8	92.070	-0.380	0.060	0.730
2020/01/31 05:17:22.9	92.060	-0.400	0.070	0.760
2020/01/31 05:17:23.0	92.050	-0.410	0.070	0.800
2020/01/31 05:17:23.1	92.030	-0.420	0.070	0.840
2020/01/31 05:17:23.2	92.020	-0.430	0.080	0.890
2020/01/31 05:17:23.3	92.000	-0.440	0.070	0.940
2020/01/31 05:17:23.4	91.980	-0.440	0.060	0.990
2020/01/31 05:17:23.5	91.960	-0.450	0.050	1.040
2020/01/31 05:17:23.6	91.940	-0.450	0.030	1.090
2020/01/31 05:17:23.7	91.920	-0.450	0.010	1.140
2020/01/31 05:17:23.8	91.890	-0.440	-0.010	1.190
2020/01/31 05:17:23.9	91.870	-0.440	-0.040	1.250
2020/01/31 05:17:24.0	91.840	-0.430	-0.070	1.300
2020/01/31 05:17:24.1	91.820	-0.420	-0.110	1.350
2020/01/31 05:17:24.2	91.800	-0.410	-0.140	1.400
2020/01/31 05:17:24.3	91.770	-0.400	-0.180	1.440
2020/01/31 05:17:24.4	91.750	-0.390	-0.220	1.470
2020/01/31 05:17:24.5	91.730	-0.370	-0.260	1.510
2020/01/31 05:17:24.6	91.710	-0.360	-0.300	1.530
2020/01/31 05:17:24.7	91.690	-0.340	-0.340	1.550
2020/01/31 05:17:24.8	91.670	-0.320	-0.380	1.560
2020/01/31 05:17:24.9	91.660	-0.300	-0.420	1.570
2020/01/31 05:17:25.0	91.650	-0.290	-0.460	1.570
2020/01/31 05:17:25.1	91.650	-0.270	-0.500	1.560
2020/01/31 05:17:25.2	91.650	-0.250	-0.540	1.550
2020/01/31 05:17:25.3	91.650	-0.230	-0.570	1.520
2020/01/31 05:17:25.4	91.660	-0.210	-0.600	1.500
2020/01/31 05:17:25.5	91.660	-0.190	-0.630	1.460
2020/01/31 05:17:25.6	91.670	-0.160	-0.660	1.430
2020/01/31 05:17:25.7	91.690	-0.140	-0.680	1.390
2020/01/31 05:17:25.8	91.700	-0.120	-0.700	1.340
2020/01/31 05:17:25.9	91.710	-0.110	-0.720	1.300
2020/01/31 05:17:26.0	91.730	-0.090	-0.730	1.250
2020/01/31 05:17:26.1	91.750	-0.070	-0.740	1.210
2020/01/31 05:17:26.2	91.770	-0.050	-0.750	1.160
2020/01/31 05:17:26.3	91.780	-0.030	-0.750	1.120
2020/01/31 05:17:26.4	91.800	-0.010	-0.740	1.080
2020/01/31 05:17:26.5	91.820	0.000	-0.730	1.040
2020/01/31 05:17:26.6	91.830	0.020	-0.720	1.010
2020/01/31 05:17:26.7	91.840	0.030	-0.700	0.980
2020/01/31 05:17:26.8	91.860	0.050	-0.680	0.950
2020/01/31 05:17:26.9	91.870	0.060	-0.650	0.930
2020/01/31 05:17:27.0	91.880	0.080	-0.620	0.910
2020/01/31 05:17:27.1	91.880	0.090	-0.590	0.890
2020/01/31 05:17:27.2	91.890	0.100	-0.550	0.880
2020/01/31 05:17:27.3	91.890	0.110	-0.510	0.870
2020/01/31 05:17:27.4	91.900	0.120	-0.460	0.860
2020/01/31 05:17:27.5	91.900	0.130	-0.410	0.860
2020/01/31 05:17:27.6	91.900	0.130	-0.360	0.860
2020/01/31 05:17:27.7	91.900	0.140	-0.310	0.860
2020/01/31 05:17:27.8	91.890	0.150	-0.260	0.870
2020/01/31 05:17:27.9	91.890	0.150	-0.210	0.870
2020/01/31 05:17:28.0	91.890	0.150	-0.150	0.870
2020/01/31 05:17:28.1	91.880	0.160	-0.100	0.880
2020/01/31 05:17:28.2	91.870	0.160	-0.050	0.880
2020/01/31 05:17:28.3	91.870	0.160	-0.000	0.880
2020/01/31 05:17:28.4	91.860	0.160	0.040	0.880
2020/01/31 05:17:28.5	91.850	0.160	0.080	0.880
2020/01/31 05:17:28.6	91.840	0.160	0.120	0.870
2020/01/31 05:17:28.7	91.830	0.160	0.150	0.860
2020/01/31 05:17:28.8	91.820	0.160	0.170	0.860
2020/01/31 05:17:28.9	91.810	0.160	0.200	0.850
2020/01/31 05:17:29.0	91.800	0.160	0.210	0.830
2020/01/31 05:17:29.1	91.780	0.160	0.220	0.820
2020/01/31 05:17:29.2	91.760	0.170	0.230	0.810
2020/01/31 05:17:29.3	91.750	0.170	0.230	0.790
2020/01/31 05:17:29.4	91.730	0.170	0.220	0.780
2020/01/31 05:17:29.5	91.710	0.180	0.200	0.760
2020/01/31 05:17:29.6	91.690	0.180	0.180	0.750
2020/01/31 05:17:29.7	91.670	0.190	0.160	0.730
2020/01/31 05:17:29.8	91.650	0.190	0.130	0.720
2020/01/31 05:17:29.9	91.630	0.200	0.100	0.700
2020/01/31 05:17:30.0	91.610	0.210	0.060	0.690
2020/01/31 05:17:30.1	91.590	0.210	0.020	0.670
2020/01/31 05:17:30.2	91.570	0.220	-0.020	0.660
2020/01/31 05:17:30.3	91.550	0.230	-0.060	0.640
2020/01/31 05:17:30.4	91.530	0.240	-0.110	0.620
2020/01/31 05:17:30.5	91.510	0.250	-0.150	0.600
2020/01/31 05:17:30.6	91.490	0.260	-0.200	0.580
2020/01/31 05:17:30.7	91.480	0.280	-0.240	0.560
2020/01/31 05:17:30.8	91.470	0.290	-0.280	0.540
2020/01/31 05:17:30.9	91.460	0.300	-0.320	0.510
2020/01/31 05:17:31.0	91.450	0.310	-0.360	0.490
2020/01/31 05:17:31.1	91.440	0.310	-0.390	0.460
2020/01/31 05:17:31.2	91.440	0.320	-0.420	0.430
2020/01/31 05:17:31.3	91.440	0.330	-0.440	0.400
2020/01/31 05:17:31.4	91.440	0.340	-0.460	0.370
2020/01/31 05:17:31.5	91.440	0.340	-0.480	0.340
2020/01/31 05:17:31.6	91.450	0.340	-0.480	0.310
2020/01/31 05:17:31.7	91.450	0.350	-0.490	0.270
2020/01/31 05:17:31.8	91.460	0.350	-0.490	0.240
2020/01/31 05:17:31.9	91.480	0.350	-0.490	0.220
2020/01/31 05:17:32.0	91.490	0.350	-0.480	0.190
2020/01/31 05:17:32.1	91.510	0.340	-0.470	0.160
2020/01/31 05:17:32.2	91.520	0.340	-0.450	0.140
2020/01/31 05:17:32.3	91.550	0.330	-0.430	0.120
2020/01/31 05:17:32.4	91.570	0.330	-0.410	0.100
2020/01/31 05:17:32.5	91.590	0.320	-0.390	0.090
2020/01/31 05:17:32.6	91.620	0.310	-0.370	0.080
2020/01/31 05:17:32.7	91.640	0.300	-0.350	0.070
2020/01/31 05:17:32.8	91.670	0.290	-0.320	0.060
2020/01/31 05:17:32.9	91.700	0.280	-0.300	0.060
2020/01/31 05:17:33.0	91.720	0.260	-0.270	0.060
2020/01/31 05:17:33.1	91.750	0.250	-0.250	0.070
2020/01/31 05:17:33.2	91.780	0.240	-0.230	0.080
2020/01/31 05:17:33.3	91.800	0.220	-0.210	0.090
2020/01/31 05:17:33.4	91.830	0.210	-0.190	0.110
2020/01/31 05:17:33.5	91.850	0.190	-0.170	0.130
2020/01/31 05:17:33.6	91.870	0.180	-0.150	0.160
2020/01/31 05:17:33.7	91.880	0.160	-0.140	0.200
2020/01/31 05:17:33.8	91.890	0.140	-0.120	0.230
2020/01/31 05:17:33.9	91.900	0.130	-0.110	0.270
2020/01/31 05:17:34.0	91.910	0.110	-0.100	0.320
2020/01/31 05:17:34.1	91.920	0.090	-0.090	0.360
2020/01/31 05:17:34.2	91.920	0.070	-0.080	0.410
2020/01/31 05:17:34.3	91.910	0.050	-0.070	0.460
2020/01/31 05:17:34.4	91.910	0.030	-0.070	0.520
2020/01/31 05:17:34.5	91.900	0.010	-0.060	0.570
2020/01/31 05:17:34.6	91.890	-0.010	-0.060	0.630
2020/01/31 05:17:34.7	91.880	-0.030	-0.060	0.690
2020/01/31 05:17:34.8	91.870	-0.050	-0.050	0.740
2020/01/31 05:17:34.9	91.850	-0.070	-0.050	0.800
2020/01/31 05:17:35.0	91.840	-0.090	-0.050	0.860
2020/01/31 05:17:35.1	91.820	-0.120	-0.050	0.920
2020/01/31 05:17:35.2	91.800	-0.140	-0.060	0.970
2020/01/31 05:17:35.3	91.780	-0.160	-0.060	1.030
2020/01/31 05:17:35.4	91.760	-0.180	-0.060	1.080
2020/01/31 05:17:35.5	91.740	-0.210	-0.060	1.140
2020/01/31 05:17:35.6	91.720	-0.230	-0.070	1.190
2020/01/31 05:17:35.7	91.690	-0.250	-0.070	1.240
2020/01/31 05:17:35.8	91.670	-0.270	-0.080	1.290
2020/01/31 05:17:35.9	91.650	-0.290	-0.080	1.330
2020/01/31 05:17:36.0	91.620	-0.310	-0.090	1.380
2020/01/31 05:17:36.1	91.600	-0.330	-0.100	1.420
2020/01/31 05:17:36.2	91.580	-0.350	-0.110	1.460
2020/01/31 05:17:36.3	91.560	-0.370	-0.120	1.500
2020/01/31 05:17:36.4	91.540	-0.390	-0.130	1.530
2020/01/31 05:17:36.5	91.520	-0.400	-0.140	1.570
2020/01/31 05:17:36.6	91.500	-0.420	-0.160	1.600
2020/01/31 05:17:36.7	91.470	-0.430	-0.170	1.630
2020/01/31 05:17:36.8	91.460	-0.440	-0.190	1.650
2020/01/31 05:17:36.9	91.440	-0.450	-0.200	1.670
2020/01/31 05:17:37.0	91.420	-0.460	-0.220	1.690
2020/01/31 05:17:37.1	91.400	-0.460	-0.240	1.700
2020/01/31 05:17:37.2	91.390	-0.470	-0.250	1.710
2020/01/31 05:17:37.3	91.370	-0.470	-0.270	1.720
2020/01/31 05:17:37.4	91.360	-0.470	-0.280	1.720
2020/01/31 05:17:37.5	91.350	-0.470	-0.300	1.720
2020/01/31 05:17:37.6	91.340	-0.470	-0.310	1.710
2020/01/31 05:17:37.7	91.340	-0.470	-0.320	1.700
2020/01/31 05:17:37.8	91.330	-0.460	-0.340	1.680
2020/01/31 05:17:37.9	91.330	-0.460	-0.350	1.670
2020/01/31 05:17:38.0	91.330	-0.450	-0.360	1.640
2020/01/31 05:17:38.1	91.330	-0.440	-0.370	1.620
2020/01/31 05:17:38.2	91.330	-0.430	-0.380	1.590
2020/01/31 05:17:38.3	91.340	-0.420	-0.390	1.560
2020/01/31 05:17:38.4	91.340	-0.410	-0.400	1.530
2020/01/31 05:17:38.5	91.350	-0.390	-0.400	1.490
2020/01/31 05:17:38.6	91.350	-0.380	-0.410	1.460
2020/01/31 05:17:38.7	91.360	-0.360	-0.410	1.420
2020/01/31 05:17:38.8	91.370	-0.350	-0.420	1.390
2020/01/31 05:17:38.9	91.380	-0.330	-0.420	1.350
2020/01/31 05:17:39.0	91.390	-0.310	-0.420	1.310
2020/01/31 05:17:39.1	91.400	-0.290	-0.430	1.280
2020/01/31 05:17:39.2	91.410	-0.270	-0.430	1.240
2020/01/31 05:17:39.3	91.420	-0.250	-0.430	1.210
2020/01/31 05:17:39.4	91.420	-0.230	-0.420	1.180
2020/01/31 05:17:39.5	91.430	-0.210	-0.420	1.150
2020/01/31 05:17:39.6	91.440	-0.190	-0.420	1.120
2020/01/31 05:17:39.7	91.450	-0.160	-0.410	1.100
2020/01/31 05:17:39.8	91.450	-0.140	-0.410	1.080
2020/01/31 05:17:39.9	91.450	-0.120	-0.400	1.060
2020/01/31 05:17:40.0	91.460	-0.100	-0.390	1.050
2020/01/31 05:17:40.1	91.460	-0.080	-0.390	1.030
2020/01/31 05:17:40.2	91.450	-0.050	-0.370	1.020
2020/01/31 05:17:40.3	91.450	-0.030	-0.360	1.010
2020/01/31 05:17:40.4	91.450	-0.010	-0.350	1.010
2020/01/31 05:17:40.5	91.440	0.010	-0.340	1.000
2020/01/31 05:17:40.6	91.430	0.030	-0.330	1.000
2020/01/31 05:17:40.7	91.420	0.050	-0.320	1.000
2020/01/31 05:17:40.8	91.410	0.060	-0.310	0.990
2020/01/31 05:17:40.9	91.400	0.080	-0.300	0.990
2020/01/31 05:17:41.0	91.390	0.100	-0.280	0.990
2020/01/31 05:17:41.1	91.370	0.110	-0.270	0.980
2020/01/31 05:17:41.2	91.360	0.130	-0.260	0.980
2020/01/31 05:17:41.3	91.350	0.140	-0.250	0.970
2020/01/31 05:17:41.4	91.330	0.160	-0.240	0.960
2020/01/31 05:17:41.5	91.310	0.170	-0.230	0.950
2020/01/31 05:17:41.6	91.300	0.180	-0.220	0.940
2020/01/31 05:17:41.7	91.280	0.190	-0.210	0.930
2020/01/31 05:17:41.8	91.270	0.200	-0.200	0.910
2020/01/31 05:17:41.9	91.250	0.210	-0.200	0.900
2020/01/31 05:17:42.0	91.240	0.220	-0.190	0.880
2020/01/31 05:17:42.1	91.220	0.230	-0.190	0.860
2020/01/31 05:17:42.2	91.210	0.240	-0.180	0.830
2020/01/31 05:17:42.3	91.200	0.240	-0.170	0.810
2020/01/31 05:17:42.4	91.190	0.250	-0.170	0.780
2020/01/31 05:17:42.5	91.190	0.260	-0.170	0.750
2020/01/31 05:17:42.6	91.180	0.260	-0.160	0.730
2020/01/31 05:17:42.7	91.180	0.270	-0.160	0.700
2020/01/31 05:17:42.8	91.180	0.270	-0.160	0.670
2020/01/31 05:17:42.9	91.180	0.270	-0.150	0.650
2020/01/31 05:17:43.0	91.180	0.280	-0.150	0.620
2020/01/31 05:17:43.1	91.190	0.280	-0.150	0.600
2020/01/31 05:17:43.2	91.190	0.280	-0.150	0.570
2020/01/31 05:17:43.3	91.200	0.290	-0.140	0.550
2020/01/31 05:17:43.4	91.220	0.290	-0.130	0.530
2020/01/31 05:17:43.5	91.230	0.290	-0.120	0.510
2020/01/31 05:17:43.6	91.250	0.290	-0.110	0.490
2020/01/31 05:17:43.7	91.270	0.290	-0.100	0.470
2020/01/31 05:17:43.8	91.290	0.290	-0.090	0.460
2020/01/31 05:17:43.9	91.310	0.290	-0.070	0.450
2020/01/31 05:17:44.0	91.330	0.290	-0.050	0.440
2020/01/31 05:17:44.1	91.360	0.290	-0.030	0.430
2020/01/31 05:17:44.2	91.380	0.280	-0.010	0.430
2020/01/31 05:17:44.3	91.410	0.280	0.010	0.420
2020/01/31 05:17:44.4	91.440	0.280	0.030	0.420
2020/01/31 05:17:44.5	91.460	0.270	0.060	0.420
2020/01/31 05:17:44.6	91.490	0.270	0.080	0.420
2020/01/31 05:17:44.7	91.520	0.260	0.100	0.420
2020/01/31 05:17:44.8	91.540	0.260	0.120	0.420
2020/01/31 05:17:44.9	91.570	0.250	0.140	0.420
2020/01/31 05:17:45.0	91.590	0.250	0.150	0.430
2020/01/31 05:17:45.1	91.610	0.240	0.160	0.440
2020/01/31 05:17:45.2	91.620	0.240	0.170	0.450
2020/01/31 05:17:45.3	91.640	0.230	0.170	0.460
2020/01/31 05:17:45.4	91.650	0.220	0.170	0.480
2020/01/31 05:17:45.5	91.660	0.220	0.170	0.500
2020/01/31 05:17:45.6	91.660	0.210	0.160	0.530
2020/01/31 05:17:45.7	91.660	0.200	0.140	0.560
2020/01/31 05:17:45.8	91.660	0.190	0.120	0.590
2020/01/31 05:17:45.9	91.650	0.180	0.100	0.620
2020/01/31 05:17:46.0	91.640	0.180	0.070	0.660
2020/01/31 05:17:46.1	91.630	0.160	0.040	0.700
2020/01/31 05:17:46.2	91.610	0.150	0.010	0.740
2020/01/31 05:17:46.3	91.590	0.140	-0.020	0.780
2020/01/31 05:17:46.4	91.570	0.130	-0.060	0.830
2020/01/31 05:17:46.5	91.540	0.110	-0.100	0.870
2020/01/31 05:17:46.6	91.520	0.100	-0.140	0.920
2020/01/31 05:17:46.7	91.490	0.080	-0.180	0.970
2020/01/31 05:17:46.8	91.460	0.070	-0.230	1.010
2020/01/31 05:17:46.9	91.430	0.050	-0.270	1.060
2020/01/31 05:17:47.0	91.400	0.030	-0.310	1.100
2020/01/31 05:17:47.1	91.370	0.010	-0.350	1.140
2020/01/31 05:17:47.2	91.340	-0.010	-0.390	1.170
2020/01/31 05:17:47.3	91.310	-0.030	-0.420	1.210
2020/01/31 05:17:47.4	91.290	-0.060	-0.460	1.240
2020/01/31 05:17:47.5	91.260	-0.080	-0.490	1.270
2020/01/31 05:17:47.6	91.240	-0.100	-0.520	1.290
2020/01/31 05:17:47.7	91.220	-0.120	-0.550	1.320
2020/01/31 05:17:47.8	91.200	-0.140	-0.570	1.330
2020/01/31 05:17:47.9	91.180	-0.160	-0.600	1.350
2020/01/31 05:17:48.0	91.170	-0.180	-0.620	1.360
2020/01/31 05:17:48.1	91.150	-0.200	-0.630	1.360
2020/01/31 05:17:48.2	91.140	-0.210	-0.650	1.360
2020/01/31 05:17:48.3	91.140	-0.230	-0.660	1.360
2020/01/31 05:17:48.4	91.130	-0.240	-0.680	1.360
2020/01/31 05:17:48.5	91.130	-0.250	-0.680	1.350
2020/01/31 05:17:48.6	91.120	-0.250	-0.690	1.340
2020/01/31 05:17:48.7	91.120	-0.260	-0.700	1.330
2020/01/31 05:17:48.8	91.130	-0.260	-0.700	1.310
2020/01/31 05:17:48.9	91.130	-0.260	-0.710	1.300
2020/01/31 05:17:49.0	91.130	-0.250	-0.710	1.290
2020/01/31 05:17:49.1	91.140	-0.240	-0.710	1.270
2020/01/31 05:17:49.2	91.140	-0.230	-0.710	1.260
2020/01/31 05:17:49.3	91.150	-0.220	-0.710	1.250
2020/01/31 05:17:49.4	91.150	-0.200	-0.700	1.240
2020/01/31 05:17:49.5	91.160	-0.190	-0.700	1.230
2020/01/31 05:17:49.6	91.170	-0.160	-0.690	1.220
2020/01/31 05:17:49.7	91.170	-0.140	-0.680	1.220
2020/01/31 05:17:49.8	91.180	-0.120	-0.670	1.220
2020/01/31 05:17:49.9	91.190	-0.100	-0.660	1.210
2020/01/31 05:17:50.0	91.190	-0.070	-0.640	1.210
2020/01/31 05:17:50.1	91.200	-0.050	-0.630	1.210
2020/01/31 05:17:50.2	91.210	-0.020	-0.610	1.210
2020/01/31 05:17:50.3	91.220	-0.000	-0.580	1.210
2020/01/31 05:17:50.4	91.230	0.020	-0.560	1.210
2020/01/31 05:17:50.5	91.240	0.040	-0.530	1.200
2020/01/31 05:17:50.6	91.250	0.060	-0.490	1.200
2020/01/31 05:17:50.7	91.260	0.070	-0.460	1.200
2020/01/31 05:17:50.8	91.270	0.080	-0.420	1.190
2020/01/31 05:17:50.9	91.280	0.090	-0.390	1.190
2020/01/31 05:17:51.0	91.290	0.100	-0.350	1.180
2020/01/31 05:17:51.1	91.300	0.100	-0.310	1.180
2020/01/31 05:17:51.2	91.310	0.100	-0.270	1.170
2020/01/31 05:17:51.3	91.320	0.100	-0.220	1.160
2020/01/31 05:17:51.4	91.330	0.090	-0.180	1.160
2020/01/31 05:17:51.5	91.340	0.080	-0.150	1.150
2020/01/31 05:17:51.6	91.340	0.070	-0.110	1.140
2020/01/31 05:17:51.7	91.350	0.060	-0.070	1.140
2020/01/31 05:17:51.8	91.350	0.040	-0.030	1.130
2020/01/31 05:17:51.9	91.350	0.020	0.000	1.120
2020/01/31 05:17:52.0	91.350	0.000	0.030	1.110
2020/01/31 05:17:52.1	91.350	-0.020	0.060	1.110
2020/01/31 05:17:52.2	91.360	-0.040	0.090	1.100
2020/01/31 05:17:52.3	91.360	-0.070	0.120	1.090
2020/01/31 05:17:52.4	91.360	-0.090	0.140	1.080
2020/01/31 05:17:52.5	91.360	-0.120	0.160	1.070
2020/01/31 05:17:52.6	91.360	-0.150	0.180	1.060
2020/01/31 05:17:52.7	91.360	-0.170	0.200	1.050
2020/01/31 05:17:52.8	91.360	-0.190	0.220	1.040
2020/01/31 05:17:52.9	91.370	-0.220	0.230	1.030
2020/01/31 05:17:53.0	91.370	-0.240	0.240	1.020
2020/01/31 05:17:53.1	91.380	-0.260	0.250	1.000
2020/01/31 05:17:53.2	91.380	-0.280	0.250	0.990
2020/01/31 05:17:53.3	91.390	-0.300	0.260	0.980
2020/01/31 05:17:53.4	91.390	-0.310	0.260	0.960
2020/01/31 05:17:53.5	91.400	-0.320	0.260	0.950
2020/01/31 05:17:53.6	91.410	-0.330	0.260	0.940
2020/01/31 05:17:53.7	91.410	-0.340	0.250	0.920
2020/01/31 05:17:53.8	91.420	-0.340	0.250	0.910
2020/01/31 05:17:53.9	91.420	-0.350	0.240	0.890
2020/01/31 05:17:54.0	91.430	-0.350	0.230	0.870
2020/01/31 05:17:54.1	91.430	-0.340	0.210	0.860
2020/01/31 05:17:54.2	91.440	-0.340	0.200	0.840
2020/01/31 05:17:54.3	91.440	-0.330	0.180	0.820
2020/01/31 05:17:54.4	91.440	-0.320	0.160	0.800
2020/01/31 05:17:54.5	91.440	-0.300	0.130	0.780
2020/01/31 05:17:54.6	91.440	-0.290	0.110	0.760
2020/01/31 05:17:54.7	91.440	-0.270	0.080	0.740
2020/01/31 05:17:54.8	91.440	-0.240	0.040	0.720
2020/01/31 05:17:54.9	91.440	-0.220	0.010	0.700
2020/01/31 05:17:55.0	91.430	-0.190	-0.030	0.670
2020/01/31 05:17:55.1	91.430	-0.170	-0.070	0.650
2020/01/31 05:17:55.2	91.420	-0.140	-0.120	0.630
2020/01/31 05:17:55.3	91.420	-0.110	-0.160	0.610
2020/01/31 05:17:55.4	91.410	-0.070	-0.200	0.600
2020/01/31 05:17:55.5	91.400	-0.040	-0.250	0.580
2020/01/31 05:17:55.6	91.400	-0.010	-0.290	0.570
2020/01/31 05:17:55.7	91.390	0.030	-0.330	0.550
2020/01/31 05:17:55.8	91.380	0.060	-0.370	0.540
2020/01/31 05:17:55.9	91.380	0.090	-0.410	0.530
2020/01/31 05:17:56.0	91.370	0.120	-0.450	0.520
2020/01/31 05:17:56.1	91.370	0.160	-0.480	0.510
2020/01/31 05:17:56.2	91.370	0.190	-0.510	0.500
2020/01/31 05:17:56.3	91.370	0.220	-0.540	0.500
2020/01/31 05:17:56.4	91.370	0.240	-0.560	0.490
2020/01/31 05:17:56.5	91.370	0.270	-0.580	0.490
2020/01/31 05:17:56.6	91.380	0.290	-0.600	0.480
2020/01/31 05:17:56.7	91.390	0.310	-0.610	0.470
2020/01/31 05:17:56.8	91.400	0.330	-0.620	0.470
2020/01/31 05:17:56.9	91.410	0.340	-0.620	0.470
2020/01/31 05:17:57.0	91.420	0.350	-0.620	0.460
2020/01/31 05:17:57.1	91.440	0.360	-0.620	0.460
2020/01/31 05:17:57.2	91.460	0.370	-0.610	0.460
2020/01/31 05:17:57.3	91.480	0.370	-0.600	0.450
2020/01/31 05:17:57.4	91.500	0.370	-0.590	0.450
2020/01/31 05:17:57.5	91.520	0.360	-0.570	0.460
2020/01/31 05:17:57.6	91.540	0.360	-0.550	0.460
2020/01/31 05:17:57.7	91.560	0.340	-0.530	0.460
2020/01/31 05:17:57.8	91.580	0.330	-0.500	0.460
2020/01/31 05:17:57.9	91.600	0.310	-0.480	0.470
2020/01/31 05:17:58.0	91.620	0.300	-0.450	0.480
2020/01/31 05:17:58.1	91.640	0.270	-0.410	0.480
2020/01/31 05:17:58.2	91.670	0.250	-0.380	0.490
2020/01/31 05:17:58.3	91.680	0.220	-0.350	0.500
2020/01/31 05:17:58.4	91.700	0.200	-0.310	0.510
2020/01/31 05:17:58.5	91.710	0.170	-0.270	0.520
2020/01/31 05:17:58.6	91.720	0.130	-0.240	0.530
2020/01/31 05:17:58.7	91.730	0.100	-0.200	0.540
2020/01/31 05:17:58.8	91.740	0.070	-0.160	0.550
2020/01/31 05:17:58.9	91.750	0.030	-0.120	0.560
2020/01/31 05:17:59.0	91.750	-0.000	-0.080	0.570
2020/01/31 05:17:59.1	91.750	-0.040	-0.040	0.590
2020/01/31 05:17:59.2	91.740	-0.070	0.000	0.600
2020/01/31 05:17:59.3	91.740	-0.100	0.040	0.620
2020/01/31 05:17:59.4	91.730	-0.140	0.070	0.640
2020/01/31 05:17:59.5	91.730	-0.170	0.110	0.660
2020/01/31 05:17:59.6	91.720	-0.200	0.130	0.680
2020/01/31 05:17:59.7	91.700	-0.230	0.160	0.700
2020/01/31 05:17:59.8	91.690	-0.260	0.180	0.720
2020/01/31 05:17:59.9	91.680	-0.280	0.190	0.750
2020/01/31 05:18:00.0	91.660	-0.300	0.200	0.780
2020/01/31 05:18:00.1	91.640	-0.320	0.210	0.810
2020/01/31 05:18:00.2	91.620	-0.330	0.210	0.840
2020/01/31 05:18:00.3	91.600	-0.340	0.200	0.870
2020/01/31 05:18:00.4	91.580	-0.350	0.180	0.910
2020/01/31 05:18:00.5	91.560	-0.350	0.160	0.950
2020/01/31 05:18:00.6	91.530	-0.350	0.140	0.990
2020/01/31 05:18:00.7	91.510	-0.340	0.100	1.030
2020/01/31 05:18:00.8	91.490	-0.330	0.060	1.070
2020/01/31 05:18:00.9	91.460	-0.320	0.020	1.110
2020/01/31 05:18:01.0	91.440	-0.300	-0.030	1.160
2020/01/31 05:18:01.1	91.420	-0.280	-0.090	1.200
2020/01/31 05:18:01.2	91.390	-0.250	-0.150	1.240
2020/01/31 05:18:01.3	91.370	-0.230	-0.210	1.280
2020/01/31 05:18:01.4	91.350	-0.200	-0.280	1.310
2020/01/31 05:18:01.5	91.340	-0.160	-0.340	1.340
2020/01/31 05:18:01.6	91.320	-0.130	-0.410	1.370
2020/01/31 05:18:01.7	91.310	-0.100	-0.470	1.400
2020/01/31 05:18:01.8	91.300	-0.060	-0.540	1.420
2020/01/31 05:18:01.9	91.290	-0.030	-0.600	1.430
2020/01/31 05:18:02.0	91.290	0.000	-0.660	1.440
2020/01/31 05:18:02.1	91.280	0.040	-0.720	1.450
2020/01/31 05:18:02.2	91.290	0.070	-0.770	1.450
2020/01/31 05:18:02.3	91.290	0.100	-0.820	1.440
2020/01/31 05:18:02.4	91.300	0.130	-0.860	1.430
2020/01/31 05:18:02.5	91.300	0.150	-0.900	1.420
2020/01/31 05:18:02.6	91.310	0.180	-0.930	1.400
2020/01/31 05:18:02.7	91.320	0.190	-0.950	1.380
2020/01/31 05:18:02.8	91.330	0.210	-0.970	1.350
2020/01/31 05:18:02.9	91.340	0.220	-0.980	1.330
2020/01/31 05:18:03.0	91.350	0.230	-0.980	1.300
2020/01/31 05:18:03.1	91.360	0.230	-0.970	1.270
2020/01/31 05:18:03.2	91.380	0.240	-0.950	1.240
2020/01/31 05:18:03.3	91.390	0.230	-0.930	1.210
2020/01/31 05:18:03.4	91.400	0.220	-0.890	1.180
2020/01/31 05:18:03.5	91.410	0.210	-0.850	1.150
2020/01/31 05:18:03.6	91.420	0.200	-0.800	1.120
2020/01/31 05:18:03.7	91.420	0.180	-0.740	1.090
2020/01/31 05:18:03.8	91.430	0.160	-0.670	1.070
2020/01/31 05:18:03.9	91.440	0.130	-0.600	1.040
2020/01/31 05:18:04.0	91.450	0.110	-0.520	1.020
2020/01/31 05:18:04.1	91.450	0.080	-0.430	1.000
2020/01/31 05:18:04.2	91.460	0.050	-0.340	0.980
2020/01/31 05:18:04.3	91.460	0.010	-0.250	0.960
2020/01/31 05:18:04.4	91.460	-0.020	-0.150	0.940
2020/01/31 05:18:04.5	91.470	-0.060	-0.050	0.920
2020/01/31 05:18:04.6	91.470	-0.090	0.040	0.900
2020/01/31 05:18:04.7	91.480	-0.130	0.130	0.880
2020/01/31 05:18:04.8	91.490	-0.160	0.230	0.860
2020/01/31 05:18:04.9	91.490	-0.200	0.310	0.840
2020/01/31 05:18:05.0	91.500	-0.230	0.400	0.820
2020/01/31 05:18:05.1	91.510	-0.260	0.470	0.790
2020/01/31 05:18:05.2	91.520	-0.290	0.540	0.770
2020/01/31 05:18:05.3	91.530	-0.310	0.600	0.740
2020/01/31 05:18:05.4	91.540	-0.340	0.650	0.720
2020/01/31 05:18:05.5	91.550	-0.350	0.690	0.690
2020/01/31 05:18:05.6	91.560	-0.370	0.720	0.660
2020/01/31 05:18:05.7	91.570	-0.380	0.740	0.630
2020/01/31 05:18:05.8	91.580	-0.380	0.750	0.610
2020/01/31 05:18:05.9	91.600	-0.390	0.750	0.580
2020/01/31 05:18:06.0	91.610	-0.380	0.740	0.550
2020/01/31 05:18:06.1	91.620	-0.370	0.710	0.530
2020/01/31 05:18:06.2	91.630	-0.360	0.680	0.500
2020/01/31 05:18:06.3	91.630	-0.350	0.640	0.480
2020/01/31 05:18:06.4	91.640	-0.320	0.590	0.450
2020/01/31 05:18:06.5	91.640	-0.300	0.530	0.430
2020/01/31 05:18:06.6	91.650	-0.270	0.460	0.410
2020/01/31 05:18:06.7	91.650	-0.240	0.390	0.390
2020/01/31 05:18:06.8	91.660	-0.200	0.310	0.380
2020/01/31 05:18:06.9	91.660	-0.170	0.230	0.360
2020/01/31 05:18:07.0	91.660	-0.130	0.150	0.350
2020/01/31 05:18:07.1	91.660	-0.090	0.070	0.330
2020/01/31 05:18:07.2	91.660	-0.040	-0.020	0.320
2020/01/31 05:18:07.3	91.660	0.000	-0.100	0.310
2020/01/31 05:18:07.4	91.660	0.040	-0.180	0.300
2020/01/31 05:18:07.5	91.660	0.090	-0.260	0.290
2020/01/31 05:18:07.6	91.660	0.130	-0.340	0.280
2020/01/31 05:18:07.7	91.650	0.170	-0.410	0.270
2020/01/31 05:18:07.8	91.650	0.210	-0.470	0.260
2020/01/31 05:18:07.9	91.640	0.250	-0.530	0.260
2020/01/31 05:18:08.0	91.640	0.290	-0.580	0.250
2020/01/31 05:18:08.1	91.630	0.330	-0.630	0.250
2020/01/31 05:18:08.2	91.620	0.360	-0.670	0.250
2020/01/31 05:18:08.3	91.610	0.390	-0.700	0.240
2020/01/31 05:18:08.4	91.610	0.420	-0.730	0.240
2020/01/31 05:18:08.5	91.600	0.440	-0.750	0.240
2020/01/31 05:18:08.6	91.600	0.460	-0.770	0.250
2020/01/31 05:18:08.7	91.590	0.480	-0.770	0.250
2020/01/31 05:18:08.8	91.590	0.500	-0.780	0.260
2020/01/31 05:18:08.9	91.580	0.510	-0.780	0.260
2020/01/31 05:18:09.0	91.580	0.520	-0.770	0.270
2020/01/31 05:18:09.1	91.580	0.530	-0.770	0.280
2020/01/31 05:18:09.2	91.570	0.540	-0.750	0.290
2020/01/31 05:18:09.3	91.570	0.540	-0.740	0.310
2020/01/31 05:18:09.4	91.570	0.540	-0.720	0.330
2020/01/31 05:18:09.5	91.570	0.540	-0.700	0.350
2020/01/31 05:18:09.6	91.570	0.540	-0.680	0.370
2020/01/31 05:18:09.7	91.580	0.540	-0.660	0.400
2020/01/31 05:18:09.8	91.580	0.530	-0.640	0.430
2020/01/31 05:18:09.9	91.580	0.530	-0.620	0.460
2020/01/31 05:18:10.0	91.590	0.520	-0.590	0.500
2020/01/31 05:18:10.1	91.590	0.510	-0.570	0.530
2020/01/31 05:18:10.2	91.600	0.500	-0.550	0.570
2020/01/31 05:18:10.3	91.600	0.490	-0.530	0.610
2020/01/31 05:18:10.4	91.610	0.470	-0.500	0.650
2020/01/31 05:18:10.5	91.610	0.460	-0.480	0.690
2020/01/31 05:18:10.6	91.620	0.440	-0.460	0.730
2020/01/31 05:18:10.7	91.620	0.420	-0.430	0.770
2020/01/31 05:18:10.8	91.630	0.390	-0.400	0.810
2020/01/31 05:18:10.9	91.630	0.370	-0.370	0.850
2020/01/31 05:18:11.0	91.640	0.340	-0.340	0.890
2020/01/31 05:18:11.1	91.640	0.310	-0.310	0.930
2020/01/31 05:18:11.2	91.640	0.280	-0.280	0.970
2020/01/31 05:18:11.3	91.650	0.240	-0.250	1.010
2020/01/31 05:18:11.4	91.650	0.210	-0.220	1.040
2020/01/31 05:18:11.5	91.650	0.170	-0.180	1.070
2020/01/31 05:18:11.6	91.650	0.130	-0.150	1.100
2020/01/31 05:18:11.7	91.650	0.090	-0.110	1.120
2020/01/31 05:18:11.8	91.650	0.040	-0.080	1.150
2020/01/31 05:18:11.9	91.650	-0.000	-0.050	1.170
2020/01/31 05:18:12.0	91.650	-0.050	-0.020	1.190
2020/01/31 05:18:12.1	91.650	-0.090	0.010	1.200
2020/01/31 05:18:12.2	91.650	-0.140	0.040	1.220
2020/01/31 05:18:12.3	91.650	-0.180	0.060	1.230
2020/01/31 05:18:12.4	91.650	-0.230	0.090	1.240
2020/01/31 05:18:12.5	91.640	-0.270	0.100	1.250
2020/01/31 05:18:12.6	91.640	-0.310	0.120	1.260
2020/01/31 05:18:12.7	91.640	-0.350	0.130	1.260
2020/01/31 05:18:12.8	91.630	-0.390	0.140	1.270
2020/01/31 05:18:12.9	91.630	-0.420	0.150	1.270
2020/01/31 05:18:13.0	91.620	-0.450	0.150	1.280
2020/01/31 05:18:13.1	91.620	-0.480	0.150	1.280
2020/01/31 05:18:13.2	91.620	-0.510	0.140	1.280
2020/01/31 05:18:13.3	91.610	-0.530	0.130	1.280
2020/01/31 05:18:13.4	91.610	-0.550	0.120	1.290
2020/01/31 05:18:13.5	91.610	-0.570	0.100	1.290
2020/01/31 05:18:13.6	91.600	-0.580	0.080	1.290
2020/01/31 05:18:13.7	91.600	-0.590	0.050	1.290
2020/01/31 05:18:13.8	91.590	-0.590	0.030	1.290
2020/01/31 05:18:13.9	91.590	-0.600	-0.000	1.290
2020/01/31 05:18:14.0	91.580	-0.600	-0.030	1.280
2020/01/31 05:18:14.1	91.580	-0.590	-0.070	1.280
2020/01/31 05:18:14.2	91.570	-0.590	-0.100	1.280
2020/01/31 05:18:14.3	91.570	-0.580	-0.140	1.280
2020/01/31 05:18:14.4	91.560	-0.570	-0.170	1.270
2020/01/31 05:18:14.5	91.550	-0.550	-0.210	1.270
2020/01/31 05:18:14.6	91.550	-0.540	-0.250	1.260
2020/01/31 05:18:14.7	91.540	-0.520	-0.280	1.260
2020/01/31 05:18:14.8	91.530	-0.510	-0.310	1.250
2020/01/31 05:18:14.9	91.520	-0.490	-0.350	1.250
2020/01/31 05:18:15.0	91.510	-0.470	-0.380	1.240
2020/01/31 05:18:15.1	91.500	-0.450	-0.400	1.230
2020/01/31 05:18:15.2	91.490	-0.430	-0.440	1.210
2020/01/31 05:18:15.3	91.480	-0.410	-0.460	1.200
2020/01/31 05:18:15.4	91.460	-0.390	-0.480	1.190
2020/01/31 05:18:15.5	91.450	-0.370	-0.490	1.170
2020/01/31 05:18:15.6	91.440	-0.350	-0.510	1.160
2020/01/31 05:18:15.7	91.430	-0.330	-0.520	1.140
2020/01/31 05:18:15.8	91.410	-0.310	-0.520	1.120
2020/01/31 05:18:15.9	91.400	-0.290	-0.520	1.100
2020/01/31 05:18:16.0	91.390	-0.280	-0.520	1.080
2020/01/31 05:18:16.1	91.380	-0.260	-0.520	1.050
2020/01/31 05:18:16.2	91.370	-0.250	-0.510	1.030
2020/01/31 05:18:16.3	91.360	-0.230	-0.500	1.010
2020/01/31 05:18:16.4	91.350	-0.220	-0.480	0.990
2020/01/31 05:18:16.5	91.340	-0.210	-0.470	0.960
2020/01/31 05:18:16.6	91.330	-0.200	-0.450	0.940
2020/01/31 05:18:16.7	91.320	-0.190	-0.430	0.920
2020/01/31 05:18:16.8	91.310	-0.180	-0.410	0.900
2020/01/31 05:18:16.9	91.310	-0.170	-0.380	0.870
2020/01/31 05:18:17.0	91.310	-0.160	-0.360	0.850
2020/01/31 05:18:17.1	91.300	-0.150	-0.330	0.830
2020/01/31 05:18:17.2	91.300	-0.150	-0.310	0.810
2020/01/31 05:18:17.3	91.300	-0.140	-0.280	0.780
2020/01/31 05:18:17.4	91.310	-0.130	-0.260	0.760
2020/01/31 05:18:17.5	91.320	-0.120	-0.230	0.730
2020/01/31 05:18:17.6	91.330	-0.110	-0.210	0.710
2020/01/31 05:18:17.7	91.340	-0.100	-0.180	0.680
2020/01/31 05:18:17.8	91.350	-0.090	-0.160	0.660
2020/01/31 05:18:17.9	91.370	-0.080	-0.140	0.630
2020/01/31 05:18:18.0	91.380	-0.080	-0.120	0.600
2020/01/31 05:18:18.1	91.400	-0.070	-0.090	0.580
2020/01/31 05:18:18.2	91.410	-0.060	-0.070	0.550
2020/01/31 05:18:18.3	91.430	-0.050	-0.050	0.520
2020/01/31 05:18:18.4	91.450	-0.030	-0.040	0.490
2020/01/31 05:18:18.5	91.460	-0.020	-0.020	0.470
2020/01/31 05:18:18.6	91.480	-0.010	-0.010	0.440
2020/01/31 05:18:18.7	91.500	-0.000	0.010	0.410
2020/01/31 05:18:18.8	91.510	0.010	0.020	0.380
2020/01/31 05:18:18.9	91.530	0.020	0.030	0.350
2020/01/31 05:18:19.0	91.540	0.030	0.040	0.320
2020/01/31 05:18:19.1	91.550	0.040	0.040	0.290
2020/01/31 05:18:19.2	91.570	0.050	0.040	0.260
2020/01/31 05:18:19.3	91.580	0.060	0.050	0.230
2020/01/31 05:18:19.4	91.590	0.070	0.050	0.200
2020/01/31 05:18:19.5	91.600	0.090	0.050	0.180
2020/01/31 05:18:19.6	91.610	0.100	0.040	0.150
2020/01/31 05:18:19.7	91.610	0.110	0.040	0.130
2020/01/31 05:18:19.8	91.620	0.120	0.030	0.110
2020/01/31 05:18:19.9	91.630	0.130	0.020	0.100
2020/01/31 05:18:20.0	91.630	0.140	0.010	0.090
2020/01/31 05:18:20.1	91.630	0.150	0.000	0.080
2020/01/31 05:18:20.2	91.640	0.160	-0.010	0.080
2020/01/31 05:18:20.3	91.640	0.180	-0.020	0.080
2020/01/31 05:18:20.4	91.640	0.190	-0.040	0.090
2020/01/31 05:18:20.5	91.630	0.200	-0.050	0.100
2020/01/31 05:18:20.6	91.630	0.210	-0.070	0.120
2020/01/31 05:18:20.7	91.630	0.220	-0.090	0.140
2020/01/31 05:18:20.8	91.620	0.230	-0.110	0.160
2020/01/31 05:18:20.9	91.620	0.250	-0.130	0.190
2020/01/31 05:18:21.0	91.610	0.260	-0.150	0.210
2020/01/31 05:18:21.1	91.610	0.270	-0.180	0.250
2020/01/31 05:18:21.2	91.600	0.280	-0.200	0.280
2020/01/31 05:18:21.3	91.590	0.300	-0.230	0.310
2020/01/31 05:18:21.4	91.580	0.310	-0.250	0.340
2020/01/31 05:18:21.5	91.580	0.320	-0.280	0.380
2020/01/31 05:18:21.6	91.570	0.330	-0.310	0.410
2020/01/31 05:18:21.7	91.560	0.350	-0.330	0.440
2020/01/31 05:18:21.8	91.550	0.360	-0.360	0.470
2020/01/31 05:18:21.9	91.550	0.370	-0.380	0.500
2020/01/31 05:18:22.0	91.540	0.370	-0.400	0.530
2020/01/31 05:18:22.1	91.530	0.380	-0.420	0.560
2020/01/31 05:18:22.2	91.520	0.390	-0.440	0.580
2020/01/31 05:18:22.3	91.510	0.390	-0.460	0.600
2020/01/31 05:18:22.4	91.500	0.390	-0.470	0.620
2020/01/31 05:18:22.5	91.500	0.390	-0.480	0.630
2020/01/31 05:18:22.6	91.490	0.390	-0.490	0.650
2020/01/31 05:18:22.7	91.480	0.380	-0.490	0.660
2020/01/31 05:18:22.8	91.480	0.380	-0.490	0.670
2020/01/31 05:18:22.9	91.470	0.370	-0.490	0.680
2020/01/31 05:18:23.0	91.470	0.360	-0.480	0.680
2020/01/31 05:18:23.1	91.460	0.350	-0.470	0.690
2020/01/31 05:18:23.2	91.460	0.340	-0.460	0.690
2020/01/31 05:18:23.3	91.450	0.320	-0.450	0.690
2020/01/31 05:18:23.4	91.450	0.310	-0.430	0.700
2020/01/31 05:18:23.5	91.450	0.290	-0.410	0.700
2020/01/31 05:18:23.6	91.440	0.270	-0.390	0.710
2020/01/31 05:18:23.7	91.440	0.250	-0.370	0.720
2020/01/31 05:18:23.8	91.430	0.240	-0.340	0.730
2020/01/31 05:18:23.9	91.430	0.220	-0.320	0.740
2020/01/31 05:18:24.0	91.430	0.200	-0.300	0.750
2020/01/31 05:18:24.1	91.420	0.180	-0.270	0.760
2020/01/31 05:18:24.2	91.420	0.160	-0.250	0.780
2020/01/31 05:18:24.3	91.420	0.150	-0.220	0.800
2020/01/31 05:18:24.4	91.410	0.130	-0.200	0.820
2020/01/31 05:18:24.5	91.410	0.110	-0.180	0.840
2020/01/31 05:18:24.6	91.400	0.100	-0.160	0.860
2020/01/31 05:18:24.7	91.400	0.090	-0.150	0.880
2020/01/31 05:18:24.8	91.400	0.080	-0.130	0.900
2020/01/31 05:18:24.9	91.390	0.070	-0.120	0.920
2020/01/31 05:18:25.0	91.390	0.060	-0.110	0.940
2020/01/31 05:18:25.1	91.390	0.050	-0.100	0.950
2020/01/31 05:18:25.2	91.390	0.050	-0.090	0.970
2020/01/31 05:18:25.3	91.400	0.050	-0.090	0.980
2020/01/31 05:18:25.4	91.400	0.040	-0.090	0.990
2020/01/31 05:18:25.5	91.410	0.040	-0.090	1.000
2020/01/31 05:18:25.6	91.410	0.040	-0.090	1.010
2020/01/31 05:18:25.7	91.420	0.040	-0.100	1.020
2020/01/31 05:18:25.8	91.430	0.050	-0.110	1.020
2020/01/31 05:18:25.9	91.440	0.050	-0.120	1.020
2020/01/31 05:18:26.0	91.460	0.050	-0.130	1.030
2020/01/31 05:18:26.1	91.470	0.060	-0.150	1.030
2020/01/31 05:18:26.2	91.490	0.060	-0.170	1.030
2020/01/31 05:18:26.3	91.510	0.070	-0.190	1.030
2020/01/31 05:18:26.4	91.520	0.070	-0.210	1.030
2020/01/31 05:18:26.5	91.540	0.070	-0.240	1.030
2020/01/31 05:18:26.6	91.560	0.080	-0.260	1.030
2020/01/31 05:18:26.7	91.570	0.080	-0.280	1.030
2020/01/31 05:18:26.8	91.590	0.080	-0.310	1.030
2020/01/31 05:18:26.9	91.610	0.080	-0.330	1.030
2020/01/31 05:18:27.0	91.620	0.090	-0.360	1.030
2020/01/31 05:18:27.1	91.640	0.080	-0.380	1.040
2020/01/31 05:18:27.2	91.640	0.080	-0.410	1.040
2020/01/31 05:18:27.3	91.650	0.080	-0.430	1.040
2020/01/31 05:18:27.4	91.660	0.070	-0.450	1.040
2020/01/31 05:18:27.5	91.670	0.070	-0.460	1.040
2020/01/31 05:18:27.6	91.670	0.060	-0.480	1.040
2020/01/31 05:18:27.7	91.680	0.050	-0.490	1.040
2020/01/31 05:18:27.8	91.680	0.030	-0.500	1.030
2020/01/31 05:18:27.9	91.670	0.020	-0.500	1.030
2020/01/31 05:18:28.0	91.670	0.000	-0.500	1.020
2020/01/31 05:18:28.1	91.670	-0.020	-0.500	1.010
2020/01/31 05:18:28.2	91.670	-0.040	-0.490	0.990
2020/01/31 05:18:28.3	91.660	-0.060	-0.480	0.980
2020/01/31 05:18:28.4	91.650	-0.080	-0.460	0.960
2020/01/31 05:18:28.5	91.640	-0.100	-0.440	0.940
2020/01/31 05:18:28.6	91.630	-0.130	-0.420	0.920
2020/01/31 05:18:28.7	91.620	-0.150	-0.390	0.900
2020/01/31 05:18:28.8	91.610	-0.180	-0.360	0.880
2020/01/31 05:18:28.9	91.600	-0.200	-0.330	0.860
2020/01/31 05:18:29.0	91.590	-0.230	-0.290	0.840
2020/01/31 05:18:29.1	91.580	-0.250	-0.250	0.820
2020/01/31 05:18:29.2	91.570	-0.280	-0.210	0.800
2020/01/31 05:18:29.3	91.550	-0.300	-0.180	0.780
2020/01/31 05:18:29.4	91.540	-0.320	-0.140	0.760
2020/01/31 05:18:29.5	91.530	-0.340	-0.100	0.740
2020/01/31 05:18:29.6	91.510	-0.360	-0.060	0.730
2020/01/31 05:18:29.7	91.500	-0.380	-0.030	0.710
2020/01/31 05:18:29.8	91.480	-0.390	0.010	0.700
2020/01/31 05:18:29.9	91.470	-0.410	0.030	0.690
2020/01/31 05:18:30.0	91.450	-0.410	0.060	0.680
2020/01/31 05:18:30.1	91.440	-0.420	0.080	0.670
2020/01/31 05:18:30.2	91.430	-0.420	0.100	0.660
2020/01/31 05:18:30.3	91.420	-0.420	0.110	0.650
2020/01/31 05:18:30.4	91.410	-0.420	0.120	0.640
2020/01/31 05:18:30.5	91.400	-0.420	0.120	0.630
2020/01/31 05:18:30.6	91.390	-0.410	0.110	0.620
2020/01/31 05:18:30.7	91.380	-0.400	0.110	0.610
2020/01/31 05:18:30.8	91.380	-0.380	0.100	0.600
2020/01/31 05:18:30.9	91.380	-0.370	0.080	0.580
2020/01/31 05:18:31.0	91.380	-0.350	0.060	0.570
2020/01/31 05:18:31.1	91.380	-0.330	0.040	0.560
2020/01/31 05:18:31.2	91.390	-0.310	0.020	0.540
2020/01/31 05:18:31.3	91.390	-0.290	-0.000	0.520
2020/01/31 05:18:31.4	91.400	-0.260	-0.030	0.510
2020/01/31 05:18:31.5	91.410	-0.240	-0.050	0.490
2020/01/31 05:18:31.6	91.420	-0.220	-0.080	0.480
2020/01/31 05:18:31.7	91.440	-0.200	-0.100	0.470
2020/01/31 05:18:31.8	91.450	-0.180	-0.120	0.450
2020/01/31 05:18:31.9	91.460	-0.160	-0.140	0.440
2020/01/31 05:18:32.0	91.480	-0.140	-0.160	0.430
2020/01/31 05:18:32.1	91.490	-0.120	-0.170	0.420
2020/01/31 05:18:32.2	91.500	-0.100	-0.190	0.410
2020/01/31 05:18:32.3	91.510	-0.090	-0.200	0.410
2020/01/31 05:18:32.4	91.520	-0.080	-0.210	0.400
2020/01/31 05:18:32.5	91.530	-0.070	-0.220	0.400
2020/01/31 05:18:32.6	91.540	-0.060	-0.220	0.400
2020/01/31 05:18:32.7	91.550	-0.050	-0.220	0.400
2020/01/31 05:18:32.8	91.560	-0.050	-0.220	0.400
2020/01/31 05:18:32.9	91.560	-0.040	-0.220	0.410
2020/01/31 05:18:33.0	91.570	-0.040	-0.220	0.420
2020/01/31 05:18:33.1	91.570	-0.040	-0.220	0.430
2020/01/31 05:18:33.2	91.570	-0.040	-0.210	0.440
2020/01/31 05:18:33.3	91.570	-0.040	-0.210	0.450
2020/01/31 05:18:33.4	91.580	-0.040	-0.200	0.460
2020/01/31 05:18:33.5	91.580	-0.050	-0.200	0.470
2020/01/31 05:18:33.6	91.580	-0.050	-0.190	0.490
2020/01/31 05:18:33.7	91.590	-0.060	-0.190	0.500
2020/01/31 05:18:33.8	91.590	-0.060	-0.180	0.520
2020/01/31 05:18:33.9	91.600	-0.070	-0.180	0.530
2020/01/31 05:18:34.0	91.610	-0.070	-0.180	0.550
2020/01/31 05:18:34.1	91.610	-0.080	-0.180	0.570
2020/01/31 05:18:34.2	91.620	-0.080	-0.180	0.590
2020/01/31 05:18:34.3	91.630	-0.080	-0.180	0.610
2020/01/31 05:18:34.4	91.650	-0.080	-0.180	0.630
2020/01/31 05:18:34.5	91.660	-0.090	-0.190	0.660
2020/01/31 05:18:34.6	91.680	-0.080	-0.200	0.680
2020/01/31 05:18:34.7	91.690	-0.080	-0.210	0.710
2020/01/31 05:18:34.8	91.710	-0.080	-0.220	0.740
2020/01/31 05:18:34.9	91.720	-0.070	-0.240	0.770
2020/01/31 05:18:35.0	91.740	-0.070	-0.260	0.800
2020/01/31 05:18:35.1	91.750	-0.060	-0.280	0.840
2020/01/31 05:18:35.2	91.760	-0.050	-0.300	0.880
2020/01/31 05:18:35.3	91.770	-0.030	-0.320	0.920
2020/01/31 05:18:35.4	91.780	-0.020	-0.350	0.950
2020/01/31 05:18:35.5	91.780	-0.000	-0.380	0.990
2020/01/31 05:18:35.6	91.780	0.010	-0.410	1.030
2020/01/31 05:18:35.7	91.780	0.030	-0.440	1.060
2020/01/31 05:18:35.8	91.780	0.050	-0.470	1.090
2020/01/31 05:18:35.9	91.780	0.070	-0.500	1.120
2020/01/31 05:18:36.0	91.780	0.090	-0.540	1.140
2020/01/31 05:18:36.1	91.770	0.110	-0.570	1.160
2020/01/31 05:18:36.2	91.770	0.130	-0.600	1.170
2020/01/31 05:18:36.3	91.760	0.150	-0.630	1.180
2020/01/31 05:18:36.4	91.760	0.180	-0.650	1.190
2020/01/31 05:18:36.5	91.750	0.200	-0.670	1.200
2020/01/31 05:18:36.6	91.740	0.220	-0.690	1.200
2020/01/31 05:18:36.7	91.730	0.240	-0.710	1.190
2020/01/31 05:18:36.8	91.720	0.260	-0.720	1.190
2020/01/31 05:18:36.9	91.710	0.280	-0.720	1.180
2020/01/31 05:18:37.0	91.700	0.290	-0.720	1.170
2020/01/31 05:18:37.1	91.690	0.310	-0.720	1.170
2020/01/31 05:18:37.2	91.680	0.320	-0.710	1.150
2020/01/31 05:18:37.3	91.670	0.330	-0.690	1.140
2020/01/31 05:18:37.4	91.660	0.340	-0.670	1.130
2020/01/31 05:18:37.5	91.650	0.350	-0.640	1.120
2020/01/31 05:18:37.6	91.630	0.360	-0.600	1.110
2020/01/31 05:18:37.7	91.620	0.360	-0.560	1.100
2020/01/31 05:18:37.8	91.610	0.360	-0.510	1.090
2020/01/31 05:18:37.9	91.600	0.360	-0.460	1.080
2020/01/31 05:18:38.0	91.590	0.350	-0.400	1.070
2020/01/31 05:18:38.1	91.580	0.350	-0.340	1.050
2020/01/31 05:18:38.2	91.570	0.340	-0.270	1.040
2020/01/31 05:18:38.3	91.560	0.330	-0.200	1.020
2020/01/31 05:18:38.4	91.560	0.310	-0.130	1.000
2020/01/31 05:18:38.5	91.550	0.290	-0.060	0.980
2020/01/31 05:18:38.6	91.550	0.280	0.010	0.950
2020/01/31 05:18:38.7	91.540	0.260	0.080	0.930
2020/01/31 05:18:38.8	91.540	0.230	0.150	0.900
2020/01/31 05:18:38.9	91.540	0.210	0.210	0.870
2020/01/31 05:18:39.0	91.540	0.190	0.280	0.840
2020/01/31 05:18:39.1	91.540	0.160	0.330	0.800
2020/01/31 05:18:39.2	91.540	0.140	0.390	0.760
2020/01/31 05:18:39.3	91.550	0.110	0.440	0.720
2020/01/31 05:18:39.4	91.550	0.090	0.480	0.680
2020/01/31 05:18:39.5	91.550	0.070	0.510	0.640
2020/01/31 05:18:39.6	91.560	0.050	0.540	0.600
2020/01/31 05:18:39.7	91.570	0.020	0.560	0.560
2020/01/31 05:18:39.8	91.570	0.010	0.570	0.520
2020/01/31 05:18:39.9	91.580	-0.010	0.580	0.480
2020/01/31 05:18:40.0	91.590	-0.030	0.580	0.440
2020/01/31 05:18:40.1	91.600	-0.040	0.570	0.400
2020/01/31 05:18:40.2	91.600	-0.040	0.550	0.370
2020/01/31 05:18:40.3	91.610	-0.050	0.520	0.340
2020/01/31 05:18:40.4	91.620	-0.050	0.490	0.320
2020/01/31 05:18:40.5	91.620	-0.050	0.440	0.290
2020/01/31 05:18:40.6	91.630	-0.040	0.390	0.280
2020/01/31 05:18:40.7	91.630	-0.030	0.340	0.260
2020/01/31 05:18:40.8	91.640	-0.020	0.270	0.250
2020/01/31 05:18:40.9	91.640	-0.000	0.210	0.250
2020/01/31 05:18:41.0	91.640	0.020	0.130	0.240
2020/01/31 05:18:41.1	91.650	0.040	0.050	0.240
2020/01/31 05:18:41.2	91.650	0.070	-0.030	0.240
2020/01/31 05:18:41.3	91.650	0.100	-0.120	0.240
2020/01/31 05:18:41.4	91.660	0.130	-0.210	0.250
2020/01/31 05:18:41.5	91.660	0.160	-0.300	0.250
2020/01/31 05:18:41.6	91.670	0.200	-0.390	0.260
2020/01/31 05:18:41.7	91.680	0.230	-0.480	0.270
2020/01/31 05:18:41.8	91.680	0.260	-0.570	0.270
2020/01/31 05:18:41.9	91.690	0.300	-0.660	0.280
2020/01/31 05:18:42.0	91.700	0.330	-0.740	0.300
2020/01/31 05:18:42.1	91.710	0.360	-0.820	0.310
2020/01/31 05:18:42.2	91.710	0.390	-0.900	0.320
2020/01/31 05:18:42.3	91.720	0.420	-0.970	0.340
2020/01/31 05:18:42.4	91.730	0.440	-1.030	0.360
2020/01/31 05:18:42.5	91.730	0.460	-1.090	0.380
2020/01/31 05:18:42.6	91.740	0.480	-1.140	0.410
2020/01/31 05:18:42.7	91.750	0.490	-1.180	0.430
2020/01/31 05:18:42.8	91.760	0.500	-1.210	0.460
2020/01/31 05:18:42.9	91.770	0.500	-1.240	0.490
2020/01/31 05:18:43.0	91.780	0.500	-1.250	0.510
2020/01/31 05:18:43.1	91.790	0.490	-1.260	0.540
2020/01/31 05:18:43.2	91.800	0.480	-1.250	0.570
2020/01/31 05:18:43.3	91.820	0.460	-1.230	0.600
2020/01/31 05:18:43.4	91.830	0.440	-1.210	0.630
2020/01/31 05:18:43.5	91.840	0.410	-1.170	0.660
2020/01/31 05:18:43.6	91.860	0.380	-1.120	0.700
2020/01/31 05:18:43.7	91.870	0.350	-1.070	0.730
2020/01/31 05:18:43.8	91.880	0.310	-1.000	0.770
2020/01/31 05:18:43.9	91.890	0.260	-0.930	0.800
2020/01/31 05:18:44.0	91.910	0.220	-0.850	0.830
2020/01/31 05:18:44.1	91.920	0.170	-0.760	0.860
2020/01/31 05:18:44.2	91.930	0.120	-0.660	0.900
2020/01/31 05:18:44.3	91.940	0.060	-0.560	0.930
2020/01/31 05:18:44.4	91.960	0.010	-0.460	0.960
2020/01/31 05:18:44.5	91.970	-0.050	-0.350	0.990
2020/01/31 05:18:44.6	91.980	-0.110	-0.230	1.010
2020/01/31 05:18:44.7	92.000	-0.160	-0.120	1.040
2020/01/31 05:18:44.8	92.010	-0.220	-0.010	1.070
2020/01/31 05:18:44.9	92.020	-0.270	0.100	1.090
2020/01/31 05:18:45.0	92.030	-0.330	0.210	1.110
2020/01/31 05:18:45.1	92.040	-0.380	0.320	1.140
2020/01/31 05:18:45.2	92.050	-0.430	0.420	1.160
2020/01/31 05:18:45.3	92.060	-0.480	0.510	1.180
2020/01/31 05:18:45.4	92.070	-0.520	0.600	1.190
2020/01/31 05:18:45.5	92.080	-0.560	0.680	1.210
2020/01/31 05:18:45.6	92.080	-0.600	0.750	1.230
2020/01/31 05:18:45.7	92.090	-0.630	0.800	1.240
2020/01/31 05:18:45.8	92.100	-0.660	0.850	1.250
2020/01/31 05:18:45.9	92.110	-0.680	0.890	1.260
2020/01/31 05:18:46.0	92.110	-0.700	0.920	1.260
2020/01/31 05:18:46.1	92.120	-0.720	0.940	1.270
2020/01/31 05:18:46.2	92.130	-0.730	0.940	1.260
2020/01/31 05:18:46.3	92.130	-0.730	0.930	1.260
2020/01/31 05:18:46.4	92.140	-0.730	0.920	1.260
2020/01/31 05:18:46.5	92.150	-0.730	0.890	1.250
2020/01/31 05:18:46.6	92.150	-0.720	0.850	1.240
2020/01/31 05:18:46.7	92.160	-0.710	0.810	1.230
2020/01/31 05:18:46.8	92.170	-0.700	0.750	1.210
2020/01/31 05:18:46.9	92.170	-0.680	0.690	1.200
2020/01/31 05:18:47.0	92.180	-0.660	0.610	1.180
2020/01/31 05:18:47.1	92.190	-0.630	0.530	1.160
2020/01/31 05:18:47.2	92.200	-0.600	0.440	1.130
2020/01/31 05:18:47.3	92.210	-0.570	0.350	1.110
2020/01/31 05:18:47.4	92.210	-0.540	0.250	1.090
2020/01/31 05:18:47.5	92.220	-0.500	0.150	1.060
2020/01/31 05:18:47.6	92.220	-0.460	0.040	1.040
2020/01/31 05:18:47.7	92.230	-0.420	-0.070	1.010
2020/01/31 05:18:47.8	92.230	-0.380	-0.190	0.990
2020/01/31 05:18:47.9	92.230	-0.340	-0.300	0.970
2020/01/31 05:18:48.0	92.240	-0.290	-0.410	0.940
2020/01/31 05:18:48.1	92.240	-0.250	-0.520	0.920
2020/01/31 05:18:48.2	92.230	-0.200	-0.630	0.900
2020/01/31 05:18:48.3	92.230	-0.160	-0.740	0.880
2020/01/31 05:18:48.4	92.230	-0.110	-0.830	0.860
2020/01/31 05:18:48.5	92.230	-0.070	-0.920	0.840
2020/01/31 05:18:48.6	92.230	-0.030	-1.000	0.820
2020/01/31 05:18:48.7	92.220	0.010	-1.080	0.810
2020/01/31 05:18:48.8	92.220	0.050	-1.140	0.790
2020/01/31 05:18:48.9	92.210	0.090	-1.190	0.780
2020/01/31 05:18:49.0	92.210	0.130	-1.240	0.760
2020/01/31 05:18:49.1	92.200	0.160	-1.270	0.750
2020/01/31 05:18:49.2	92.200	0.190	-1.280	0.730
2020/01/31 05:18:49.3	92.190	0.210	-1.290	0.720
2020/01/31 05:18:49.4	92.190	0.230	-1.280	0.710
2020/01/31 05:18:49.5	92.190	0.250	-1.270	0.700
2020/01/31 05:18:49.6	92.190	0.270	-1.240	0.690
2020/01/31 05:18:49.7	92.190	0.280	-1.200	0.680
2020/01/31 05:18:49.8	92.190	0.280	-1.150	0.670
2020/01/31 05:18:49.9	92.190	0.290	-1.090	0.660
2020/01/31 05:18:50.0	92.200	0.280	-1.020	0.650
2020/01/31 05:18:50.1	92.200	0.280	-0.950	0.650
2020/01/31 05:18:50.2	92.200	0.270	-0.860	0.640
2020/01/31 05:18:50.3	92.210	0.250	-0.770	0.640
2020/01/31 05:18:50.4	92.220	0.240	-0.680	0.630
2020/01/31 05:18:50.5	92.220	0.220	-0.580	0.630
2020/01/31 05:18:50.6	92.230	0.190	-0.480	0.630
2020/01/31 05:18:50.7	92.230	0.170	-0.370	0.630
2020/01/31 05:18:50.8	92.240	0.140	-0.270	0.630
2020/01/31 05:18:50.9	92.240	0.100	-0.160	0.640
2020/01/31 05:18:51.0	92.240	0.070	-0.060	0.640
2020/01/31 05:18:51.1	92.240	0.040	0.040	0.640
2020/01/31 05:18:51.2	92.240	0.000	0.140	0.640
2020/01/31 05:18:51.3	92.240	-0.030	0.230	0.650
2020/01/31 05:18:51.4	92.240	-0.070	0.320	0.650
2020/01/31 05:18:51.5	92.240	-0.100	0.400	0.650
2020/01/31 05:18:51.6	92.240	-0.140	0.470	0.650
2020/01/31 05:18:51.7	92.230	-0.170	0.540	0.650
2020/01/31 05:18:51.8	92.230	-0.200	0.590	0.640
2020/01/31 05:18:51.9	92.220	-0.220	0.640	0.640
2020/01/31 05:18:52.0	92.220	-0.250	0.680	0.630
2020/01/31 05:18:52.1	92.210	-0.270	0.710	0.620
2020/01/31 05:18:52.2	92.210	-0.290	0.730	0.600
2020/01/31 05:18:52.3	92.200	-0.300	0.740	0.580
2020/01/31 05:18:52.4	92.200	-0.310	0.740	0.560
2020/01/31 05:18:52.5	92.200	-0.320	0.730	0.540
2020/01/31 05:18:52.6	92.200	-0.320	0.710	0.520
2020/01/31 05:18:52.7	92.200	-0.310	0.680	0.490
2020/01/31 05:18:52.8	92.200	-0.300	0.640	0.460
2020/01/31 05:18:52.9	92.200	-0.290	0.590	0.430
2020/01/31 05:18:53.0	92.200	-0.270	0.530	0.400
2020/01/31 05:18:53.1	92.210	-0.250	0.470	0.370
2020/01/31 05:18:53.2	92.220	-0.220	0.400	0.340
2020/01/31 05:18:53.3	92.230	-0.190	0.320	0.300
2020/01/31 05:18:53.4	92.240	-0.150	0.230	0.270
2020/01/31 05:18:53.5	92.250	-0.110	0.140	0.240
2020/01/31 05:18:53.6	92.270	-0.060	0.050	0.220
2020/01/31 05:18:53.7	92.280	-0.010	-0.050	0.190
2020/01/31 05:18:53.8	92.300	0.040	-0.150	0.170
2020/01/31 05:18:53.9	92.320	0.100	-0.250	0.150
2020/01/31 05:18:54.0	92.340	0.160	-0.350	0.140
2020/01/31 05:18:54.1	92.360	0.220	-0.450	0.130
2020/01/31 05:18:54.2	92.370	0.280	-0.560	0.120
2020/01/31 05:18:54.3	92.390	0.340	-0.650	0.120
2020/01/31 05:18:54.4	92.410	0.400	-0.750	0.120
2020/01/31 05:18:54.5	92.430	0.460	-0.830	0.120
2020/01/31 05:18:54.6	92.450	0.520	-0.910	0.130
2020/01/31 05:18:54.7	92.470	0.570	-0.990	0.140
2020/01/31 05:18:54.8	92.490	0.630	-1.060	0.150
2020/01/31 05:18:54.9	92.510	0.680	-1.120	0.160
2020/01/31 05:18:55.0	92.530	0.720	-1.170	0.180
2020/01/31 05:18:55.1	92.550	0.770	-1.210	0.190
2020/01/31 05:18:55.2	92.570	0.810	-1.240	0.210
2020/01/31 05:18:55.3	92.590	0.840	-1.260	0.230
2020/01/31 05:18:55.4	92.600	0.870	-1.270	0.240
2020/01/31 05:18:55.5	92.620	0.890	-1.270	0.260
2020/01/31 05:18:55.6	92.640	0.910	-1.260	0.280
2020/01/31 05:18:55.7	92.650	0.920	-1.240	0.310
2020/01/31 05:18:55.8	92.670	0.920	-1.210	0.330
2020/01/31 05:18:55.9	92.680	0.920	-1.160	0.350
2020/01/31 05:18:56.0	92.690	0.910	-1.110	0.380
2020/01/31 05:18:56.1	92.690	0.900	-1.040	0.410
2020/01/31 05:18:56.2	92.700	0.880	-0.970	0.440
2020/01/31 05:18:56.3	92.700	0.850	-0.890	0.470
2020/01/31 05:18:56.4	92.700	0.820	-0.790	0.500
2020/01/31 05:18:56.5	92.690	0.780	-0.700	0.540
2020/01/31 05:18:56.6	92.690	0.740	-0.590	0.580
2020/01/31 05:18:56.7	92.670	0.690	-0.480	0.620
2020/01/31 05:18:56.8	92.660	0.640	-0.370	0.670
2020/01/31 05:18:56.9	92.640	0.580	-0.250	0.710
2020/01/31 05:18:57.0	92.620	0.520	-0.130	0.760
2020/01/31 05:18:57.1	92.600	0.460	-0.020	0.800
2020/01/31 05:18:57.2	92.570	0.400	0.110	0.850
2020/01/31 05:18:57.3	92.540	0.330	0.220	0.890
2020/01/31 05:18:57.4	92.510	0.270	0.330	0.940
2020/01/31 05:18:57.5	92.480	0.200	0.430	0.980
2020/01/31 05:18:57.6	92.450	0.130	0.530	1.020
2020/01/31 05:18:57.7	92.410	0.060	0.620	1.050
2020/01/31 05:18:57.8	92.380	-0.010	0.700	1.080
2020/01/31 05:18:57.9	92.350	-0.070	0.780	1.110
2020/01/31 05:18:58.0	92.320	-0.140	0.840	1.130
2020/01/31 05:18:58.1	92.290	-0.200	0.890	1.150
2020/01/31 05:18:58.2	92.260	-0.260	0.930	1.160
2020/01/31 05:18:58.3	92.240	-0.310	0.960	1.170
2020/01/31 05:18:58.4	92.210	-0.370	0.970	1.180
2020/01/31 05:18:58.5	92.190	-0.420	0.980	1.180
2020/01/31 05:18:58.6	92.170	-0.460	0.970	1.180
2020/01/31 05:18:58.7	92.150	-0.500	0.950	1.170
2020/01/31 05:18:58.8	92.130	-0.540	0.920	1.170
2020/01/31 05:18:58.9	92.120	-0.570	0.870	1.160
2020/01/31 05:18:59.0	92.100	-0.600	0.820	1.150
2020/01/31 05:18:59.1	92.090	-0.620	0.750	1.140
2020/01/31 05:18:59.2	92.080	-0.640	0.680	1.120
2020/01/31 05:18:59.3	92.080	-0.660	0.590	1.110
2020/01/31 05:18:59.4	92.070	-0.660	0.500	1.090
2020/01/31 05:18:59.5	92.070	-0.670	0.400	1.070
2020/01/31 05:18:59.6	92.070	-0.670	0.300	1.050
2020/01/31 05:18:59.7	92.080	-0.660	0.190	1.030
2020/01/31 05:18:59.8	92.080	-0.650	0.070	1.010
2020/01/31 05:18:59.9	92.090	-0.640	-0.050	0.990
2020/01/31 05:19:00.0	92.110	-0.620	-0.160	0.960
2020/01/31 05:19:00.1	92.120	-0.600	-0.280	0.940
2020/01/31 05:19:00.2	92.140	-0.580	-0.400	0.900
2020/01/31 05:19:00.3	92.160	-0.550	-0.520	0.870
2020/01/31 05:19:00.4	92.180	-0.520	-0.630	0.840
2020/01/31 05:19:00.5	92.200	-0.490	-0.730	0.800
2020/01/31 05:19:00.6	92.230	-0.450	-0.830	0.770
2020/01/31 05:19:00.7	92.260	-0.420	-0.920	0.730
2020/01/31 05:19:00.8	92.280	-0.380	-1.010	0.690
2020/01/31 05:19:00.9	92.310	-0.340	-1.080	0.650
2020/01/31 05:19:01.0	92.340	-0.310	-1.150	0.620
2020/01/31 05:19:01.1	92.370	-0.270	-1.210	0.580
2020/01/31 05:19:01.2	92.410	-0.230	-1.260	0.550
2020/01/31 05:19:01.3	92.440	-0.190	-1.290	0.520
2020/01/31 05:19:01.4	92.460	-0.160	-1.310	0.490
2020/01/31 05:19:01.5	92.490	-0.120	-1.330	0.470
2020/01/31 05:19:01.6	92.510	-0.090	-1.330	0.460
2020/01/31 05:19:01.7	92.530	-0.060	-1.320	0.450
2020/01/31 05:19:01.8	92.550	-0.030	-1.300	0.440
2020/01/31 05:19:01.9	92.560	-0.010	-1.260	0.450
2020/01/31 05:19:02.0	92.580	0.020	-1.220	0.450
2020/01/31 05:19:02.1	92.580	0.040	-1.170	0.470
2020/01/31 05:19:02.2	92.590	0.060	-1.110	0.490
2020/01/31 05:19:02.3	92.590	0.080	-1.040	0.520
2020/01/31 05:19:02.4	92.590	0.090	-0.970	0.550
2020/01/31 05:19:02.5	92.590	0.100	-0.890	0.590
2020/01/31 05:19:02.6	92.580	0.110	-0.800	0.630
2020/01/31 05:19:02.7	92.570	0.120	-0.710	0.680
2020/01/31 05:19:02.8	92.570	0.120	-0.610	0.730
2020/01/31 05:19:02.9	92.550	0.120	-0.520	0.780
2020/01/31 05:19:03.0	92.540	0.120	-0.420	0.840
2020/01/31 05:19:03.1	92.530	0.120	-0.320	0.890
2020/01/31 05:19:03.2	92.510	0.120	-0.230	0.940
2020/01/31 05:19:03.3	92.490	0.110	-0.140	1.000
2020/01/31 05:19:03.4	92.480	0.100	-0.040	1.050
2020/01/31 05:19:03.5	92.460	0.090	0.040	1.090
2020/01/31 05:19:03.6	92.440	0.080	0.120	1.140
2020/01/31 05:19:03.7	92.430	0.070	0.200	1.170
2020/01/31 05:19:03.8	92.410	0.060	0.260	1.210
2020/01/31 05:19:03.9	92.400	0.050	0.330	1.240
2020/01/31 05:19:04.0	92.390	0.030	0.380	1.260
2020/01/31 05:19:04.1	92.380	0.020	0.420	1.280
2020/01/31 05:19:04.2	92.370	0.010	0.460	1.290
2020/01/31 05:19:04.3	92.360	-0.000	0.490	1.300
2020/01/31 05:19:04.4	92.360	-0.010	0.510	1.300
2020/01/31 05:19:04.5	92.350	-0.020	0.520	1.290
2020/01/31 05:19:04.6	92.350	-0.030	0.530	1.280
2020/01/31 05:19:04.7	92.340	-0.040	0.520	1.270
2020/01/31 05:19:04.8	92.340	-0.040	0.510	1.250
2020/01/31 05:19:04.9	92.340	-0.050	0.480	1.220
2020/01/31 05:19:05.0	92.330	-0.050	0.450	1.200
2020/01/31 05:19:05.1	92.330	-0.060	0.420	1.170
2020/01/31 05:19:05.2	92.330	-0.060	0.370	1.130
2020/01/31 05:19:05.3	92.320	-0.060	0.330	1.100
2020/01/31 05:19:05.4	92.310	-0.060	0.270	1.060
2020/01/31 05:19:05.5	92.300	-0.060	0.220	1.030
2020/01/31 05:19:05.6	92.280	-0.060	0.160	1.000
2020/01/31 05:19:05.7	92.270	-0.050	0.110	0.960
2020/01/31 05:19:05.8	92.250	-0.050	0.050	0.920
2020/01/31 05:19:05.9	92.230	-0.050	-0.010	0.890
2020/01/31 05:19:06.0	92.210	-0.040	-0.060	0.850
2020/01/31 05:19:06.1	92.180	-0.040	-0.120	0.810
2020/01/31 05:19:06.2	92.160	-0.040	-0.170	0.780
2020/01/31 05:19:06.3	92.140	-0.030	-0.210	0.740
2020/01/31 05:19:06.4	92.110	-0.030	-0.250	0.700
2020/01/31 05:19:06.5	92.090	-0.020	-0.290	0.660
2020/01/31 05:19:06.6	92.060	-0.020	-0.320	0.620
2020/01/31 05:19:06.7	92.040	-0.020	-0.350	0.580
2020/01/31 05:19:06.8	92.010	-0.010	-0.370	0.540
2020/01/31 05:19:06.9	91.990	-0.010	-0.390	0.500
2020/01/31 05:19:07.0	91.970	-0.010	-0.410	0.470
2020/01/31 05:19:07.1	91.950	-0.000	-0.410	0.430
2020/01/31 05:19:07.2	91.940	-0.000	-0.420	0.390
2020/01/31 05:19:07.3	91.920	0.000	-0.420	0.350
2020/01/31 05:19:07.4	91.910	0.010	-0.420	0.320
2020/01/31 05:19:07.5	91.900	0.010	-0.420	0.290
2020/01/31 05:19:07.6	91.900	0.010	-0.410	0.260
2020/01/31 05:19:07.7	91.890	0.020	-0.400	0.230
2020/01/31 05:19:07.8	91.900	0.030	-0.400	0.200
2020/01/31 05:19:07.9	91.900	0.030	-0.390	0.180
2020/01/31 05:19:08.0	91.900	0.040	-0.380	0.160
2020/01/31 05:19:08.1	91.910	0.050	-0.370	0.140
2020/01/31 05:19:08.2	91.920	0.070	-0.360	0.130
2020/01/31 05:19:08.3	91.930	0.080	-0.360	0.130
2020/01/31 05:19:08.4	91.940	0.090	-0.350	0.120
2020/01/31 05:19:08.5	91.960	0.110	-0.350	0.130
2020/01/31 05:19:08.6	91.970	0.120	-0.340	0.130
2020/01/31 05:19:08.7	91.980	0.140	-0.340	0.140
2020/01/31 05:19:08.8	91.990	0.160	-0.340	0.160
2020/01/31 05:19:08.9	92.010	0.170	-0.340	0.180
2020/01/31 05:19:09.0	92.020	0.190	-0.340	0.210
2020/01/31 05:19:09.1	92.030	0.210	-0.330	0.230
2020/01/31 05:19:09.2	92.040	0.220	-0.340	0.260
2020/01/31 05:19:09.3	92.050	0.240	-0.330	0.300
2020/01/31 05:19:09.4	92.060	0.250	-0.330	0.330
2020/01/31 05:19:09.5	92.060	0.260	-0.330	0.360
2020/01/31 05:19:09.6	92.070	0.280	-0.330	0.390
2020/01/31 05:19:09.7	92.080	0.290	-0.330	0.420
2020/01/31 05:19:09.8	92.080	0.300	-0.330	0.450
2020/01/31 05:19:09.9	92.090	0.300	-0.330	0.480
2020/01/31 05:19:10.0	92.100	0.310	-0.330	0.500
2020/01/31 05:19:10.1	92.100	0.310	-0.330	0.520
2020/01/31 05:19:10.2	92.110	0.320	-0.340	0.540
2020/01/31 05:19:10.3	92.110	0.320	-0.340	0.560
2020/01/31 05:19:10.4	92.120	0.320	-0.350	0.570
2020/01/31 05:19:10.5	92.130	0.320	-0.350	0.590
2020/01/31 05:19:10.6	92.130	0.310	-0.360	0.610
2020/01/31 05:19:10.7	92.140	0.310	-0.360	0.620
2020/01/31 05:19:10.8	92.140	0.300	-0.370	0.640
2020/01/31 05:19:10.9	92.140	0.300	-0.380	0.660
2020/01/31 05:19:11.0	92.140	0.290	-0.390	0.680
2020/01/31 05:19:11.1	92.140	0.280	-0.390	0.710
2020/01/31 05:19:11.2	92.140	0.270	-0.400	0.730
2020/01/31 05:19:11.3	92.140	0.260	-0.410	0.760
2020/01/31 05:19:11.4	92.130	0.250	-0.420	0.800
2020/01/31 05:19:11.5	92.130	0.240	-0.420	0.840
2020/01/31 05:19:11.6	92.120	0.230	-0.420	0.880
2020/01/31 05:19:11.7	92.110	0.220	-0.420	0.920
2020/01/31 05:19:11.8	92.100	0.210	-0.420	0.970
2020/01/31 05:19:11.9	92.080	0.200	-0.410	1.020
2020/01/31 05:19:12.0	92.070	0.180	-0.400	1.070
2020/01/31 05:19:12.1	92.060	0.170	-0.390	1.110
2020/01/31 05:19:12.2	92.050	0.160	-0.370	1.160
2020/01/31 05:19:12.3	92.040	0.140	-0.350	1.200
2020/01/31 05:19:12.4	92.030	0.130	-0.320	1.240
2020/01/31 05:19:12.5	92.020	0.120	-0.290	1.280
2020/01/31 05:19:12.6	92.010	0.100	-0.260	1.320
2020/01/31 05:19:12.7	92.000	0.080	-0.220	1.350
2020/01/31 05:19:12.8	91.990	0.070	-0.170	1.380
2020/01/31 05:19:12.9	91.980	0.050	-0.120	1.400
2020/01/31 05:19:13.0	91.980	0.030	-0.070	1.420
2020/01/31 05:19:13.1	91.980	0.000	-0.020	1.440
2020/01/31 05:19:13.2	91.970	-0.020	0.030	1.440
2020/01/31 05:19:13.3	91.970	-0.040	0.090	1.450
2020/01/31 05:19:13.4	91.970	-0.070	0.140	1.450
2020/01/31 05:19:13.5	91.970	-0.090	0.200	1.440
2020/01/31 05:19:13.6	91.970	-0.120	0.250	1.430
2020/01/31 05:19:13.7	91.980	-0.140	0.310	1.410
2020/01/31 05:19:13.8	91.980	-0.170	0.360	1.390
2020/01/31 05:19:13.9	91.980	-0.200	0.400	1.360
2020/01/31 05:19:14.0	91.990	-0.230	0.440	1.330
2020/01/31 05:19:14.1	91.990	-0.250	0.480	1.300
2020/01/31 05:19:14.2	92.000	-0.280	0.510	1.260
2020/01/31 05:19:14.3	92.000	-0.300	0.540	1.220
2020/01/31 05:19:14.4	92.010	-0.320	0.560	1.180
2020/01/31 05:19:14.5	92.020	-0.350	0.570	1.130
2020/01/31 05:19:14.6	92.030	-0.360	0.570	1.090
2020/01/31 05:19:14.7	92.040	-0.380	0.570	1.050
2020/01/31 05:19:14.8	92.040	-0.400	0.560	1.000
2020/01/31 05:19:14.9	92.050	-0.410	0.540	0.960
2020/01/31 05:19:15.0	92.060	-0.410	0.510	0.910
2020/01/31 05:19:15.1	92.070	-0.420	0.480	0.870
2020/01/31 05:19:15.2	92.080	-0.420	0.430	0.830
2020/01/31 05:19:15.3	92.080	-0.410	0.380	0.790
2020/01/31 05:19:15.4	92.090	-0.410	0.320	0.750
2020/01/31 05:19:15.5	92.100	-0.390	0.260	0.710
2020/01/31 05:19:15.6	92.110	-0.370	0.180	0.680
2020/01/31 05:19:15.7	92.120	-0.350	0.100	0.650
2020/01/31 05:19:15.8	92.120	-0.320	0.010	0.610
2020/01/31 05:19:15.9	92.130	-0.290	-0.080	0.580
2020/01/31 05:19:16.0	92.140	-0.250	-0.180	0.560
2020/01/31 05:19:16.1	92.150	-0.210	-0.280	0.530
2020/01/31 05:19:16.2	92.150	-0.160	-0.390	0.500
2020/01/31 05:19:16.3	92.160	-0.100	-0.500	0.480
2020/01/31 05:19:16.4	92.160	-0.050	-0.610	0.460
2020/01/31 05:19:16.5	92.170	0.010	-0.720	0.450
2020/01/31 05:19:16.6	92.170	0.070	-0.830	0.440
2020/01/31 05:19:16.7	92.170	0.140	-0.940	0.430
2020/01/31 05:19:16.8	92.170	0.210	-1.040	0.420
2020/01/31 05:19:16.9	92.170	0.270	-1.140	0.420
2020/01/31 05:19:17.0	92.160	0.340	-1.230	0.420
2020/01/31 05:19:17.1	92.150	0.410	-1.310	0.430
2020/01/31 05:19:17.2	92.140	0.480	-1.390	0.440
2020/01/31 05:19:17.3	92.130	0.540	-1.460	0.450
2020/01/31 05:19:17.4	92.120	0.600	-1.510	0.460
2020/01/31 05:19:17.5	92.110	0.650	-1.550	0.470
2020/01/31 05:19:17.6	92.100	0.700	-1.580	0.490
2020/01/31 05:19:17.7	92.090	0.750	-1.590	0.500
2020/01/31 05:19:17.8	92.080	0.780	-1.590	0.520
2020/01/31 05:19:17.9	92.060	0.810	-1.580	0.540
2020/01/31 05:19:18.0	92.050	0.840	-1.550	0.570
2020/01/31 05:19:18.1	92.040	0.850	-1.500	0.590
2020/01/31 05:19:18.2	92.020	0.860	-1.440	0.620
2020/01/31 05:19:18.3	92.010	0.860	-1.370	0.650
2020/01/31 05:19:18.4	92.000	0.850	-1.290	0.670
2020/01/31 05:19:18.5	91.980	0.830	-1.190	0.710
2020/01/31 05:19:18.6	91.970	0.810	-1.090	0.740
2020/01/31 05:19:18.7	91.960	0.780	-0.970	0.770
2020/01/31 05:19:18.8	91.940	0.740	-0.850	0.800
2020/01/31 05:19:18.9	91.930	0.690	-0.720	0.830
2020/01/31 05:19:19.0	91.920	0.630	-0.590	0.860
2020/01/31 05:19:19.1	91.910	0.570	-0.440	0.890
2020/01/31 05:19:19.2	91.900	0.510	-0.300	0.920
2020/01/31 05:19:19.3	91.890	0.440	-0.160	0.950
2020/01/31 05:19:19.4	91.890	0.360	-0.010	0.970
2020/01/31 05:19:19.5	91.880	0.280	0.130	0.990
2020/01/31 05:19:19.6	91.880	0.200	0.270	1.010
2020/01/31 05:19:19.7	91.880	0.110	0.400	1.020
2020/01/31 05:19:19.8	91.880	0.030	0.530	1.030
2020/01/31 05:19:19.9	91.880	-0.060	0.650	1.040
2020/01/31 05:19:20.0	91.880	-0.140	0.760	1.040
2020/01/31 05:19:20.1	91.890	-0.230	0.860	1.040
2020/01/31 05:19:20.2	91.900	-0.310	0.950	1.040
2020/01/31 05:19:20.3	91.910	-0.390	1.030	1.040
2020/01/31 05:19:20.4	91.920	-0.470	1.100	1.030
2020/01/31 05:19:20.5	91.930	-0.540	1.150	1.020
2020/01/31 05:19:20.6	91.950	-0.610	1.190	1.010
2020/01/31 05:19:20.7	91.970	-0.670	1.220	1.000
2020/01/31 05:19:20.8	91.980	-0.730	1.240	0.990
2020/01/31 05:19:20.9	92.000	-0.780	1.250	0.970
2020/01/31 05:19:21.0	92.020	-0.830	1.240	0.960
2020/01/31 05:19:21.1	92.040	-0.870	1.220	0.950
2020/01/31 05:19:21.2	92.070	-0.910	1.190	0.940
2020/01/31 05:19:21.3	92.090	-0.940	1.150	0.930
2020/01/31 05:19:21.4	92.110	-0.970	1.110	0.920
2020/01/31 05:19:21.5	92.130	-0.990	1.050	0.910
2020/01/31 05:19:21.6	92.150	-1.010	0.990	0.910
2020/01/31 05:19:21.7	92.160	-1.020	0.920	0.900
2020/01/31 05:19:21.8	92.180	-1.020	0.840	0.900
2020/01/31 05:19:21.9	92.200	-1.020	0.760	0.900
2020/01/31 05:19:22.0	92.210	-1.020	0.660	0.890
2020/01/31 05:19:22.1	92.230	-1.000	0.570	0.890
2020/01/31 05:19:22.2	92.240	-0.990	0.460	0.880
2020/01/31 05:19:22.3	92.250	-0.970	0.350	0.880
2020/01/31 05:19:22.4	92.270	-0.940	0.240	0.880
2020/01/31 05:19:22.5	92.270	-0.910	0.120	0.870
2020/01/31 05:19:22.6	92.280	-0.880	-0.000	0.870
2020/01/31 05:19:22.7	92.290	-0.840	-0.120	0.870
2020/01/31 05:19:22.8	92.290	-0.790	-0.250	0.860
2020/01/31 05:19:22.9	92.300	-0.740	-0.380	0.860
2020/01/31 05:19:23.0	92.300	-0.690	-0.500	0.860
2020/01/31 05:19:23.1	92.300	-0.640	-0.630	0.860
2020/01/31 05:19:23.2	92.300	-0.580	-0.750	0.860
2020/01/31 05:19:23.3	92.310	-0.510	-0.870	0.860
2020/01/31 05:19:23.4	92.310	-0.450	-0.990	0.860
2020/01/31 05:19:23.5	92.310	-0.380	-1.100	0.870
2020/01/31 05:19:23.6	92.320	-0.320	-1.200	0.870
2020/01/31 05:19:23.7	92.320	-0.250	-1.300	0.870
2020/01/31 05:19:23.8	92.330	-0.180	-1.390	0.880
2020/01/31 05:19:23.9	92.340	-0.110	-1.470	0.880
2020/01/31 05:19:24.0	92.340	-0.040	-1.540	0.890
2020/01/31 05:19:24.1	92.350	0.030	-1.600	0.900
2020/01/31 05:19:24.2	92.350	0.100	-1.650	0.910
2020/01/31 05:19:24.3	92.360	0.160	-1.680	0.910
2020/01/31 05:19:24.4	92.360	0.230	-1.700	0.920
2020/01/31 05:19:24.5	92.370	0.280	-1.710	0.930
2020/01/31 05:19:24.6	92.370	0.340	-1.700	0.940
2020/01/31 05:19:24.7	92.370	0.390	-1.680	0.950
2020/01/31 05:19:24.8	92.380	0.430	-1.650	0.950
2020/01/31 05:19:24.9	92.380	0.480	-1.610	0.960
2020/01/31 05:19:25.0	92.380	0.510	-1.550	0.960
2020/01/31 05:19:25.1	92.380	0.540	-1.480	0.960
2020/01/31 05:19:25.2	92.390	0.570	-1.390	0.960
2020/01/31 05:19:25.3	92.390	0.590	-1.300	0.960
2020/01/31 05:19:25.4	92.390	0.600	-1.190	0.960
2020/01/31 05:19:25.5	92.390	0.610	-1.080	0.950
2020/01/31 05:19:25.6	92.380	0.610	-0.960	0.940
2020/01/31 05:19:25.7	92.380	0.610	-0.840	0.930
2020/01/31 05:19:25.8	92.380	0.600	-0.710	0.920
2020/01/31 05:19:25.9	92.370	0.590	-0.570	0.900
2020/01/31 05:19:26.0	92.370	0.580	-0.430	0.890
2020/01/31 05:19:26.1	92.360	0.560	-0.290	0.870
2020/01/31 05:19:26.2	92.340	0.540	-0.140	0.850
2020/01/31 05:19:26.3	92.330	0.510	-0.000	0.830
2020/01/31 05:19:26.4	92.320	0.480	0.140	0.810
2020/01/31 05:19:26.5	92.300	0.450	0.280	0.790
2020/01/31 05:19:26.6	92.280	0.420	0.410	0.770
2020/01/31 05:19:26.7	92.260	0.390	0.540	0.750
2020/01/31 05:19:26.8	92.240	0.350	0.670	0.730
2020/01/31 05:19:26.9	92.220	0.320	0.780	0.720
2020/01/31 05:19:27.0	92.190	0.280	0.890	0.700
2020/01/31 05:19:27.1	92.160	0.250	0.990	0.680
2020/01/31 05:19:27.2	92.140	0.220	1.080	0.650
2020/01/31 05:19:27.3	92.110	0.190	1.160	0.630
2020/01/31 05:19:27.4	92.080	0.160	1.220	0.610
2020/01/31 05:19:27.5	92.050	0.130	1.280	0.590
2020/01/31 05:19:27.6	92.020	0.110	1.320	0.560
2020/01/31 05:19:27.7	91.990	0.090	1.340	0.540
2020/01/31 05:19:27.8	91.970	0.070	1.350	0.510
2020/01/31 05:19:27.9	91.940	0.060	1.340	0.470
2020/01/31 05:19:28.0	91.920	0.050	1.320	0.440
2020/01/31 05:19:28.1	91.910	0.040	1.290	0.400
2020/01/31 05:19:28.2	91.890	0.040	1.240	0.360
2020/01/31 05:19:28.3	91.870	0.040	1.180	0.320
2020/01/31 05:19:28.4	91.860	0.040	1.100	0.280
2020/01/31 05:19:28.5	91.850	0.050	1.010	0.240
2020/01/31 05:19:28.6	91.850	0.060	0.910	0.200
2020/01/31 05:19:28.7	91.840	0.080	0.800	0.160
2020/01/31 05:19:28.8	91.840	0.100	0.680	0.110
2020/01/31 05:19:28.9	91.840	0.120	0.550	0.070
2020/01/31 05:19:29.0	91.850	0.140	0.410	0.030
2020/01/31 05:19:29.1	91.850	0.170	0.270	-0.010
2020/01/31 05:19:29.2	91.860	0.190	0.120	-0.040
2020/01/31 05:19:29.3	91.870	0.220	-0.030	-0.080
2020/01/31 05:19:29.4	91.890	0.250	-0.180	-0.110
2020/01/31 05:19:29.5	91.900	0.280	-0.330	-0.140
2020/01/31 05:19:29.6	91.920	0.310	-0.480	-0.160
2020/01/31 05:19:29.7	91.930	0.340	-0.630	-0.180
2020/01/31 05:19:29.8	91.950	0.370	-0.770	-0.200
2020/01/31 05:19:29.9	91.970	0.400	-0.910	-0.200
2020/01/31 05:19:30.0	91.980	0.420	-1.040	-0.200
2020/01/31 05:19:30.1	92.000	0.450	-1.160	-0.200
2020/01/31 05:19:30.2	92.020	0.470	-1.270	-0.190
2020/01/31 05:19:30.3	92.040	0.490	-1.370	-0.180
2020/01/31 05:19:30.4	92.060	0.510	-1.450	-0.150
2020/01/31 05:19:30.5	92.080	0.520	-1.530	-0.130
2020/01/31 05:19:30.6	92.100	0.540	-1.590	-0.090
2020/01/31 05:19:30.7	92.110	0.550	-1.640	-0.050
2020/01/31 05:19:30.8	92.130	0.550	-1.670	-0.010
2020/01/31 05:19:30.9	92.150	0.550	-1.690	0.040
2020/01/31 05:19:31.0	92.170	0.550	-1.690	0.090
2020/01/31 05:19:31.1	92.180	0.550	-1.680	0.140
2020/01/31 05:19:31.2	92.200	0.540	-1.660	0.200
2020/01/31 05:19:31.3	92.210	0.530	-1.630	0.270
2020/01/31 05:19:31.4	92.230	0.510	-1.580	0.330
2020/01/31 05:19:31.5	92.240	0.490	-1.520	0.390
2020/01/31 05:19:31.6	92.250	0.470	-1.440	0.460
2020/01/31 05:19:31.7	92.270	0.440	-1.360	0.530
2020/01/31 05:19:31.8	92.280	0.410	-1.270	0.600
2020/01/31 05:19:31.9	92.290	0.380	-1.170	0.670
2020/01/31 05:19:32.0	92.300	0.340	-1.060	0.740
2020/01/31 05:19:32.1	92.300	0.300	-0.940	0.810
2020/01/31 05:19:32.2	92.310	0.260	-0.820	0.890
2020/01/31 05:19:32.3	92.310	0.220	-0.700	0.960
2020/01/31 05:19:32.4	92.310	0.170	-0.580	1.040
2020/01/31 05:19:32.5	92.310	0.130	-0.450	1.120
2020/01/31 05:19:32.6	92.310	0.080	-0.330	1.200
2020/01/31 05:19:32.7	92.310	0.030	-0.200	1.290
2020/01/31 05:19:32.8	92.300	-0.020	-0.080	1.370
2020/01/31 05:19:32.9	92.300	-0.070	0.030	1.450
2020/01/31 05:19:33.0	92.290	-0.110	0.140	1.540
2020/01/31 05:19:33.1	92.280	-0.160	0.250	1.620
2020/01/31 05:19:33.2	92.270	-0.210	0.350	1.710
2020/01/31 05:19:33.3	92.250	-0.260	0.440	1.790
2020/01/31 05:19:33.4	92.240	-0.300	0.520	1.870
2020/01/31 05:19:33.5	92.220	-0.350	0.600	1.940
2020/01/31 05:19:33.6	92.200	-0.390	0.660	2.020
2020/01/31 05:19:33.7	92.190	-0.430	0.720	2.080
2020/01/31 05:19:33.8	92.170	-0.470	0.770	2.140
2020/01/31 05:19:33.9	92.150	-0.500	0.800	2.190
2020/01/31 05:19:34.0	92.140	-0.530	0.830	2.230
2020/01/31 05:19:34.1	92.120	-0.560	0.840	2.260
2020/01/31 05:19:34.2	92.110	-0.590	0.850	2.280
2020/01/31 05:19:34.3	92.100	-0.610	0.840	2.290
2020/01/31 05:19:34.4	92.100	-0.630	0.830	2.290
2020/01/31 05:19:34.5	92.090	-0.650	0.800	2.280
2020/01/31 05:19:34.6	92.090	-0.660	0.770	2.260
2020/01/31 05:19:34.7	92.090	-0.670	0.720	2.230
2020/01/31 05:19:34.8	92.100	-0.670	0.670	2.200
2020/01/31 05:19:34.9	92.110	-0.670	0.610	2.150
2020/01/31 05:19:35.0	92.120	-0.660	0.550	2.100
2020/01/31 05:19:35.1	92.130	-0.660	0.480	2.040
2020/01/31 05:19:35.2	92.150	-0.650	0.410	1.970
2020/01/31 05:19:35.3	92.170	-0.630	0.330	1.900
2020/01/31 05:19:35.4	92.190	-0.610	0.250	1.840
2020/01/31 05:19:35.5	92.200	-0.590	0.180	1.770
2020/01/31 05:19:35.6	92.220	-0.570	0.100	1.700
2020/01/31 05:19:35.7	92.230	-0.540	0.020	1.630
2020/01/31 05:19:35.8	92.250	-0.520	-0.050	1.570
2020/01/31 05:19:35.9	92.260	-0.490	-0.110	1.500
2020/01/31 05:19:36.0	92.260	-0.460	-0.180	1.440
2020/01/31 05:19:36.1	92.270	-0.430	-0.230	1.390
2020/01/31 05:19:36.2	92.260	-0.410	-0.290	1.330
2020/01/31 05:19:36.3	92.260	-0.380	-0.330	1.280
2020/01/31 05:19:36.4	92.260	-0.350	-0.370	1.230
2020/01/31 05:19:36.5	92.250	-0.330	-0.400	1.180
2020/01/31 05:19:36.6	92.240	-0.300	-0.430	1.130
2020/01/31 05:19:36.7	92.230	-0.280	-0.450	1.090
2020/01/31 05:19:36.8	92.220	-0.260	-0.460	1.040
2020/01/31 05:19:36.9	92.210	-0.240	-0.470	0.990
2020/01/31 05:19:37.0	92.190	-0.230	-0.470	0.950
2020/01/31 05:19:37.1	92.170	-0.210	-0.470	0.910
2020/01/31 05:19:37.2	92.150	-0.200	-0.460	0.860
2020/01/31 05:19:37.3	92.130	-0.190	-0.450	0.810
2020/01/31 05:19:37.4	92.120	-0.190	-0.440	0.770
2020/01/31 05:19:37.5	92.100	-0.180	-0.420	0.730
2020/01/31 05:19:37.6	92.080	-0.180	-0.400	0.680
2020/01/31 05:19:37.7	92.060	-0.170	-0.390	0.640
2020/01/31 05:19:37.8	92.040	-0.170	-0.370	0.600
2020/01/31 05:19:37.9	92.020	-0.170	-0.350	0.560
2020/01/31 05:19:38.0	92.000	-0.170	-0.330	0.520
2020/01/31 05:19:38.1	91.990	-0.170	-0.320	0.480
2020/01/31 05:19:38.2	91.970	-0.170	-0.300	0.440
2020/01/31 05:19:38.3	91.960	-0.160	-0.290	0.400
2020/01/31 05:19:38.4	91.940	-0.160	-0.290	0.370
2020/01/31 05:19:38.5	91.940	-0.150	-0.290	0.340
2020/01/31 05:19:38.6	91.930	-0.150	-0.290	0.310
2020/01/31 05:19:38.7	91.930	-0.140	-0.290	0.280
2020/01/31 05:19:38.8	91.920	-0.130	-0.300	0.260
2020/01/31 05:19:38.9	91.920	-0.110	-0.320	0.240
2020/01/31 05:19:39.0	91.920	-0.100	-0.340	0.220
2020/01/31 05:19:39.1	91.930	-0.080	-0.360	0.210
2020/01/31 05:19:39.2	91.930	-0.060	-0.380	0.190
2020/01/31 05:19:39.3	91.940	-0.030	-0.410	0.180
2020/01/31 05:19:39.4	91.950	-0.010	-0.440	0.180
2020/01/31 05:19:39.5	91.960	0.020	-0.480	0.180
2020/01/31 05:19:39.6	91.970	0.050	-0.510	0.170
2020/01/31 05:19:39.7	91.980	0.080	-0.550	0.180
2020/01/31 05:19:39.8	91.990	0.110	-0.580	0.180
2020/01/31 05:19:39.9	92.000	0.150	-0.620	0.180
2020/01/31 05:19:40.0	92.020	0.180	-0.650	0.180
2020/01/31 05:19:40.1	92.030	0.220	-0.680	0.190
2020/01/31 05:19:40.2	92.040	0.250	-0.710	0.200
2020/01/31 05:19:40.3	92.050	0.290	-0.740	0.200
2020/01/31 05:19:40.4	92.060	0.320	-0.760	0.210
2020/01/31 05:19:40.5	92.070	0.350	-0.780	0.220
2020/01/31 05:19:40.6	92.080	0.390	-0.800	0.230
2020/01/31 05:19:40.7	92.080	0.420	-0.810	0.250
2020/01/31 05:19:40.8	92.090	0.440	-0.810	0.260
2020/01/31 05:19:40.9	92.090	0.470	-0.820	0.280
2020/01/31 05:19:41.0	92.100	0.490	-0.810	0.300
2020/01/31 05:19:41.1	92.100	0.510	-0.800	0.330
2020/01/31 05:19:41.2	92.100	0.530	-0.790	0.350
2020/01/31 05:19:41.3	92.090	0.550	-0.770	0.380
2020/01/31 05:19:41.4	92.090	0.560	-0.740	0.410
2020/01/31 05:19:41.5	92.080	0.560	-0.710	0.440
2020/01/31 05:19:41.6	92.080	0.570	-0.670	0.470
2020/01/31 05:19:41.7	92.070	0.570	-0.630	0.510
2020/01/31 05:19:41.8	92.050	0.570	-0.580	0.550
2020/01/31 05:19:41.9	92.040	0.560	-0.530	0.590
2020/01/31 05:19:42.0	92.020	0.550	-0.470	0.630
2020/01/31 05:19:42.1	92.010	0.540	-0.410	0.670
2020/01/31 05:19:42.2	91.990	0.520	-0.340	0.710
2020/01/31 05:19:42.3	91.970	0.500	-0.280	0.760
2020/01/31 05:19:42.4	91.940	0.470	-0.210	0.800
2020/01/31 05:19:42.5	91.920	0.450	-0.130	0.840
2020/01/31 05:19:42.6	91.900	0.420	-0.060	0.880
2020/01/31 05:19:42.7	91.870	0.380	0.010	0.920
2020/01/31 05:19:42.8	91.850	0.350	0.080	0.960
2020/01/31 05:19:42.9	91.820	0.310	0.150	1.000
2020/01/31 05:19:43.0	91.800	0.280	0.220	1.040
2020/01/31 05:19:43.1	91.780	0.240	0.290	1.070
2020/01/31 05:19:43.2	91.750	0.200	0.350	1.100
2020/01/31 05:19:43.3	91.730	0.160	0.410	1.130
2020/01/31 05:19:43.4	91.720	0.120	0.470	1.150
2020/01/31 05:19:43.5	91.700	0.080	0.510	1.170
2020/01/31 05:19:43.6	91.690	0.050	0.560	1.190
2020/01/31 05:19:43.7	91.680	0.010	0.590	1.200
2020/01/31 05:19:43.8	91.670	-0.020	0.620	1.210
2020/01/31 05:19:43.9	91.670	-0.050	0.630	1.220
2020/01/31 05:19:44.0	91.670	-0.080	0.640	1.220
2020/01/31 05:19:44.1	91.670	-0.110	0.640	1.210
2020/01/31 05:19:44.2	91.670	-0.130	0.640	1.200
2020/01/31 05:19:44.3	91.680	-0.150	0.620	1.190
2020/01/31 05:19:44.4	91.690	-0.160	0.590	1.170
2020/01/31 05:19:44.5	91.700	-0.170	0.560	1.150
2020/01/31 05:19:44.6	91.710	-0.180	0.520	1.130
2020/01/31 05:19:44.7	91.720	-0.180	0.470	1.110
2020/01/31 05:19:44.8	91.730	-0.180	0.410	1.090
2020/01/31 05:19:44.9	91.740	-0.170	0.350	1.060
2020/01/31 05:19:45.0	91.750	-0.160	0.280	1.040
2020/01/31 05:19:45.1	91.770	-0.150	0.210	1.010
2020/01/31 05:19:45.2	91.780	-0.140	0.140	0.980
2020/01/31 05:19:45.3	91.790	-0.120	0.060	0.950
2020/01/31 05:19:45.4	91.800	-0.100	-0.020	0.920
2020/01/31 05:19:45.5	91.810	-0.080	-0.100	0.890
2020/01/31 05:19:45.6	91.820	-0.060	-0.180	0.860
2020/01/31 05:19:45.7	91.830	-0.030	-0.250	0.830
2020/01/31 05:19:45.8	91.830	-0.010	-0.330	0.800
2020/01/31 05:19:45.9	91.840	0.020	-0.400	0.770
2020/01/31 05:19:46.0	91.840	0.040	-0.470	0.750
2020/01/31 05:19:46.1	91.840	0.070	-0.530	0.720
2020/01/31 05:19:46.2	91.840	0.090	-0.590	0.700
2020/01/31 05:19:46.3	91.840	0.110	-0.640	0.670
2020/01/31 05:19:46.4	91.840	0.130	-0.680	0.650
2020/01/31 05:19:46.5	91.840	0.150	-0.720	0.630
2020/01/31 05:19:46.6	91.840	0.170	-0.740	0.620
2020/01/31 05:19:46.7	91.840	0.180	-0.760	0.600
2020/01/31 05:19:46.8	91.830	0.190	-0.770	0.580
2020/01/31 05:19:46.9	91.830	0.200	-0.770	0.570
2020/01/31 05:19:47.0	91.820	0.200	-0.770	0.560
2020/01/31 05:19:47.1	91.820	0.210	-0.750	0.560
2020/01/31 05:19:47.2	91.810	0.210	-0.730	0.550
2020/01/31 05:19:47.3	91.810	0.200	-0.700	0.550
2020/01/31 05:19:47.4	91.800	0.200	-0.670	0.550
2020/01/31 05:19:47.5	91.800	0.190	-0.630	0.550
2020/01/31 05:19:47.6	91.790	0.180	-0.580	0.560
2020/01/31 05:19:47.7	91.780	0.170	-0.530	0.570
2020/01/31 05:19:47.8	91.780	0.160	-0.480	0.580
2020/01/31 05:19:47.9	91.770	0.150	-0.430	0.600
2020/01/31 05:19:48.0	91.760	0.130	-0.370	0.620
2020/01/31 05:19:48.1	91.750	0.120	-0.310	0.630
2020/01/31 05:19:48.2	91.750	0.100	-0.260	0.660
2020/01/31 05:19:48.3	91.740	0.090	-0.200	0.680
2020/01/31 05:19:48.4	91.730	0.070	-0.150	0.700
2020/01/31 05:19:48.5	91.730	0.060	-0.100	0.730
2020/01/31 05:19:48.6	91.720	0.040	-0.050	0.750
2020/01/31 05:19:48.7	91.720	0.030	-0.010	0.780
2020/01/31 05:19:48.8	91.710	0.020	0.030	0.800
2020/01/31 05:19:48.9	91.710	0.010	0.060	0.820
2020/01/31 05:19:49.0	91.710	0.010	0.080	0.840
2020/01/31 05:19:49.1	91.710	0.000	0.100	0.860
2020/01/31 05:19:49.2	91.700	-0.000	0.110	0.880
2020/01/31 05:19:49.3	91.700	-0.000	0.110	0.900
2020/01/31 05:19:49.4	91.700	-0.000	0.100	0.910
2020/01/31 05:19:49.5	91.700	0.000	0.090	0.920
2020/01/31 05:19:49.6	91.710	0.010	0.070	0.930
2020/01/31 05:19:49.7	91.710	0.020	0.040	0.940
2020/01/31 05:19:49.8	91.710	0.030	0.010	0.950
2020/01/31 05:19:49.9	91.710	0.040	-0.030	0.960
2020/01/31 05:19:50.0	91.710	0.050	-0.080	0.960
2020/01/31 05:19:50.1	91.720	0.060	-0.130	0.970
2020/01/31 05:19:50.2	91.720	0.070	-0.180	0.980
2020/01/31 05:19:50.3	91.720	0.090	-0.240	0.980
2020/01/31 05:19:50.4	91.720	0.100	-0.290	0.990
2020/01/31 05:19:50.5	91.710	0.110	-0.350	0.990
2020/01/31 05:19:50.6	91.710	0.120	-0.400	1.000
2020/01/31 05:19:50.7	91.710	0.130	-0.460	1.010
2020/01/31 05:19:50.8	91.700	0.130	-0.510	1.010
2020/01/31 05:19:50.9	91.690	0.140	-0.550	1.020
2020/01/31 05:19:51.0	91.690	0.140	-0.600	1.030
2020/01/31 05:19:51.1	91.680	0.140	-0.640	1.040
2020/01/31 05:19:51.2	91.670	0.130	-0.670	1.050
2020/01/31 05:19:51.3	91.660	0.130	-0.690	1.060
2020/01/31 05:19:51.4	91.650	0.120	-0.710	1.080
2020/01/31 05:19:51.5	91.640	0.100	-0.720	1.090
2020/01/31 05:19:51.6	91.640	0.080	-0.730	1.110
2020/01/31 05:19:51.7	91.630	0.060	-0.720	1.120
2020/01/31 05:19:51.8	91.620	0.040	-0.710	1.140
2020/01/31 05:19:51.9	91.620	0.010	-0.690	1.150
2020/01/31 05:19:52.0	91.610	-0.020	-0.660	1.170
2020/01/31 05:19:52.1	91.610	-0.060	-0.620	1.190
2020/01/31 05:19:52.2	91.610	-0.100	-0.580	1.200
2020/01/31 05:19:52.3	91.600	-0.140	-0.520	1.220
2020/01/31 05:19:52.4	91.600	-0.180	-0.460	1.230
2020/01/31 05:19:52.5	91.600	-0.230	-0.400	1.250
2020/01/31 05:19:52.6	91.600	-0.270	-0.330	1.260
2020/01/31 05:19:52.7	91.600	-0.320	-0.250	1.270
2020/01/31 05:19:52.8	91.590	-0.370	-0.170	1.280
2020/01/31 05:19:52.9	91.590	-0.420	-0.080	1.290
2020/01/31 05:19:53.0	91.590	-0.480	0.000	1.300
2020/01/31 05:19:53.1	91.590	-0.530	0.090	1.310
2020/01/31 05:19:53.2	91.590	-0.580	0.180	1.320
2020/01/31 05:19:53.3	91.590	-0.630	0.260	1.320
2020/01/31 05:19:53.4	91.590	-0.680	0.340	1.330
2020/01/31 05:19:53.5	91.590	-0.720	0.420	1.330
2020/01/31 05:19:53.6	91.590	-0.770	0.490	1.330
2020/01/31 05:19:53.7	91.590	-0.810	0.550	1.330
2020/01/31 05:19:53.8	91.590	-0.850	0.610	1.320
2020/01/31 05:19:53.9	91.590	-0.880	0.660	1.310
2020/01/31 05:19:54.0	91.590	-0.910	0.700	1.300
2020/01/31 05:19:54.1	91.600	-0.930	0.720	1.290
2020/01/31 05:19:54.2	91.600	-0.950	0.740	1.270
2020/01/31 05:19:54.3	91.610	-0.960	0.750	1.250
2020/01/31 05:19:54.4	91.620	-0.970	0.740	1.230
2020/01/31 05:19:54.5	91.630	-0.960	0.720	1.210
2020/01/31 05:19:54.6	91.640	-0.960	0.680	1.180
2020/01/31 05:19:54.7	91.650	-0.940	0.640	1.140
2020/01/31 05:19:54.8	91.670	-0.920	0.580	1.110
2020/01/31 05:19:54.9	91.680	-0.890	0.510	1.070
2020/01/31 05:19:55.0	91.700	-0.850	0.430	1.030
2020/01/31 05:19:55.1	91.720	-0.810	0.340	0.980
2020/01/31 05:19:55.2	91.740	-0.760	0.240	0.940
2020/01/31 05:19:55.3	91.760	-0.700	0.130	0.890
2020/01/31 05:19:55.4	91.780	-0.630	0.010	0.840
2020/01/31 05:19:55.5	91.800	-0.560	-0.110	0.800
2020/01/31 05:19:55.6	91.820	-0.490	-0.230	0.750
2020/01/31 05:19:55.7	91.840	-0.410	-0.360	0.710
2020/01/31 05:19:55.8	91.860	-0.330	-0.490	0.670
2020/01/31 05:19:55.9	91.870	-0.240	-0.620	0.630
2020/01/31 05:19:56.0	91.880	-0.150	-0.740	0.590
2020/01/31 05:19:56.1	91.890	-0.060	-0.860	0.560
2020/01/31 05:19:56.2	91.890	0.030	-0.980	0.530
2020/01/31 05:19:56.3	91.900	0.120	-1.080	0.500
2020/01/31 05:19:56.4	91.890	0.210	-1.180	0.480
2020/01/31 05:19:56.5	91.890	0.300	-1.260	0.460
2020/01/31 05:19:56.6	91.880	0.380	-1.330	0.440
2020/01/31 05:19:56.7	91.870	0.460	-1.390	0.420
2020/01/31 05:19:56.8	91.860	0.540	-1.430	0.410
2020/01/31 05:19:56.9	91.850	0.610	-1.460	0.400
2020/01/31 05:19:57.0	91.830	0.670	-1.470	0.390
2020/01/31 05:19:57.1	91.820	0.730	-1.470	0.390
2020/01/31 05:19:57.2	91.800	0.780	-1.460	0.380
2020/01/31 05:19:57.3	91.780	0.830	-1.430	0.380
2020/01/31 05:19:57.4	91.760	0.870	-1.390	0.380
2020/01/31 05:19:57.5	91.740	0.900	-1.340	0.390
2020/01/31 05:19:57.6	91.720	0.920	-1.280	0.400
2020/01/31 05:19:57.7	91.700	0.940	-1.200	0.410
2020/01/31 05:19:57.8	91.670	0.940	-1.120	0.420
2020/01/31 05:19:57.9	91.660	0.940	-1.020	0.440
2020/01/31 05:19:58.0	91.640	0.940	-0.920	0.450
2020/01/31 05:19:58.1	91.620	0.920	-0.820	0.470
2020/01/31 05:19:58.2	91.600	0.900	-0.700	0.490
2020/01/31 05:19:58.3	91.590	0.880	-0.590	0.510
2020/01/31 05:19:58.4	91.570	0.850	-0.480	0.530
2020/01/31 05:19:58.5	91.560	0.810	-0.360	0.550
2020/01/31 05:19:58.6	91.550	0.770	-0.250	0.570
2020/01/31 05:19:58.7	91.540	0.730	-0.140	0.590
2020/01/31 05:19:58.8	91.530	0.680	-0.030	0.610
2020/01/31 05:19:58.9	91.520	0.640	0.070	0.620
2020/01/31 05:19:59.0	91.510	0.590	0.170	0.640
2020/01/31 05:19:59.1	91.510	0.540	0.260	0.650
2020/01/31 05:19:59.2	91.500	0.490	0.350	0.660
2020/01/31 05:19:59.3	91.490	0.440	0.430	0.660
2020/01/31 05:19:59.4	91.490	0.390	0.500	0.670
2020/01/31 05:19:59.5	91.490	0.340	0.560	0.670
2020/01/31 05:19:59.6	91.490	0.300	0.610	0.670
2020/01/31 05:19:59.7	91.490	0.250	0.660	0.660
2020/01/31 05:19:59.8	91.490	0.210	0.690	0.650
2020/01/31 05:19:59.9	91.490	0.170	0.720	0.640
2020/01/31 05:20:00.0	91.500	0.140	0.740	0.620
2020/01/31 05:20:00.1	91.510	0.100	0.750	0.610
2020/01/31 05:20:00.2	91.510	0.070	0.760	0.590
2020/01/31 05:20:00.3	91.520	0.040	0.760	0.570
2020/01/31 05:20:00.4	91.530	0.010	0.750	0.550
2020/01/31 05:20:00.5	91.540	-0.010	0.740	0.520
2020/01/31 05:20:00.6	91.550	-0.030	0.720	0.500
2020/01/31 05:20:00.7	91.560	-0.050	0.700	0.470
2020/01/31 05:20:00.8	91.580	-0.070	0.670	0.450
2020/01/31 05:20:00.9	91.590	-0.080	0.640	0.430
2020/01/31 05:20:01.0	91.600	-0.100	0.600	0.400
2020/01/31 05:20:01.1	91.610	-0.110	0.560	0.380
2020/01/31 05:20:01.2	91.620	-0.120	0.510	0.360
2020/01/31 05:20:01.3	91.630	-0.120	0.470	0.340
2020/01/31 05:20:01.4	91.640	-0.130	0.420	0.330
2020/01/31 05:20:01.5	91.650	-0.130	0.370	0.310
2020/01/31 05:20:01.6	91.660	-0.130	0.320	0.300
2020/01/31 05:20:01.7	91.670	-0.130	0.260	0.290
2020/01/31 05:20:01.8	91.680	-0.130	0.210	0.290
2020/01/31 05:20:01.9	91.690	-0.130	0.150	0.280
2020/01/31 05:20:02.0	91.710	-0.130	0.100	0.280
2020/01/31 05:20:02.1	91.720	-0.120	0.040	0.280
2020/01/31 05:20:02.2	91.740	-0.120	-0.020	0.290
2020/01/31 05:20:02.3	91.760	-0.110	-0.070	0.290
2020/01/31 05:20:02.4	91.780	-0.100	-0.130	0.300
2020/01/31 05:20:02.5	91.800	-0.090	-0.180	0.320
2020/01/31 05:20:02.6	91.820	-0.090	-0.240	0.340
2020/01/31 05:20:02.7	91.840	-0.080	-0.290	0.360
2020/01/31 05:20:02.8	91.870	-0.060	-0.340	0.380
2020/01/31 05:20:02.9	91.890	-0.050	-0.400	0.400
2020/01/31 05:20:03.0	91.920	-0.040	-0.450	0.430
2020/01/31 05:20:03.1	91.940	-0.030	-0.500	0.460
2020/01/31 05:20:03.2	91.970	-0.010	-0.550	0.490
2020/01/31 05:20:03.3	91.990	-0.000	-0.600	0.530
2020/01/31 05:20:03.4	92.020	0.010	-0.650	0.570
2020/01/31 05:20:03.5	92.040	0.030	-0.690	0.600
2020/01/31 05:20:03.6	92.070	0.040	-0.730	0.640
2020/01/31 05:20:03.7	92.090	0.060	-0.770	0.690
2020/01/31 05:20:03.8	92.110	0.070	-0.810	0.730
2020/01/31 05:20:03.9	92.130	0.090	-0.850	0.770
2020/01/31 05:20:04.0	92.150	0.100	-0.880	0.820
2020/01/31 05:20:04.1	92.160	0.110	-0.910	0.860
2020/01/31 05:20:04.2	92.170	0.130	-0.930	0.910
2020/01/31 05:20:04.3	92.180	0.140	-0.950	0.950
2020/01/31 05:20:04.4	92.190	0.140	-0.970	1.000
2020/01/31 05:20:04.5	92.200	0.150	-0.980	1.040
2020/01/31 05:20:04.6	92.200	0.150	-0.990	1.080
2020/01/31 05:20:04.7	92.200	0.160	-0.990	1.120
2020/01/31 05:20:04.8	92.200	0.150	-0.980	1.160
2020/01/31 05:20:04.9	92.200	0.150	-0.970	1.200
2020/01/31 05:20:05.0	92.190	0.140	-0.950	1.240
2020/01/31 05:20:05.1	92.180	0.130	-0.920	1.270
2020/01/31 05:20:05.2	92.170	0.110	-0.890	1.310
2020/01/31 05:20:05.3	92.160	0.100	-0.850	1.340
2020/01/31 05:20:05.4	92.150	0.070	-0.800	1.380
2020/01/31 05:20:05.5	92.140	0.050	-0.750	1.410
2020/01/31 05:20:05.6	92.120	0.020	-0.690	1.450
2020/01/31 05:20:05.7	92.100	-0.010	-0.620	1.480
2020/01/31 05:20:05.8	92.080	-0.050	-0.550	1.520
2020/01/31 05:20:05.9	92.060	-0.090	-0.470	1.550
2020/01/31 05:20:06.0	92.030	-0.130	-0.390	1.590
2020/01/31 05:20:06.1	92.010	-0.170	-0.300	1.620
2020/01/31 05:20:06.2	91.980	-0.220	-0.210	1.650
2020/01/31 05:20:06.3	91.960	-0.260	-0.120	1.670
2020/01/31 05:20:06.4	91.930	-0.310	-0.030	1.700
2020/01/31 05:20:06.5	91.910	-0.360	0.060	1.720
2020/01/31 05:20:06.6	91.890	-0.410	0.150	1.730
2020/01/31 05:20:06.7	91.860	-0.450	0.240	1.740
2020/01/31 05:20:06.8	91.840	-0.500	0.320	1.750
2020/01/31 05:20:06.9	91.820	-0.550	0.400	1.750
2020/01/31 05:20:07.0	91.810	-0.590	0.470	1.740
2020/01/31 05:20:07.1	91.790	-0.630	0.540	1.730
2020/01/31 05:20:07.2	91.780	-0.670	0.600	1.710
2020/01/31 05:20:07.3	91.760	-0.700	0.650	1.680
2020/01/31 05:20:07.4	91.760	-0.730	0.690	1.650
2020/01/31 05:20:07.5	91.750	-0.750	0.720	1.610
2020/01/31 05:20:07.6	91.750	-0.770	0.740	1.570
2020/01/31 05:20:07.7	91.750	-0.780	0.740	1.520
2020/01/31 05:20:07.8	91.750	-0.790	0.740	1.460
2020/01/31 05:20:07.9	91.750	-0.790	0.720	1.400
2020/01/31 05:20:08.0	91.760	-0.780	0.690	1.330
2020/01/31 05:20:08.1	91.760	-0.760	0.650	1.260
2020/01/31 05:20:08.2	91.770	-0.740	0.590	1.190
2020/01/31 05:20:08.3	91.780	-0.700	0.530	1.110
2020/01/31 05:20:08.4	91.790	-0.660	0.450	1.030
2020/01/31 05:20:08.5	91.810	-0.620	0.360	0.950
2020/01/31 05:20:08.6	91.820	-0.560	0.260	0.870
2020/01/31 05:20:08.7	91.840	-0.500	0.160	0.790
2020/01/31 05:20:08.8	91.850	-0.440	0.050	0.710
2020/01/31 05:20:08.9	91.870	-0.360	-0.070	0.640
2020/01/31 05:20:09.0	91.880	-0.290	-0.190	0.570
2020/01/31 05:20:09.1	91.890	-0.210	-0.310	0.500
2020/01/31 05:20:09.2	91.900	-0.120	-0.440	0.420
2020/01/31 05:20:09.3	91.920	-0.030	-0.570	0.360
2020/01/31 05:20:09.4	91.930	0.060	-0.690	0.300
2020/01/31 05:20:09.5	91.940	0.150	-0.800	0.250
2020/01/31 05:20:09.6	91.950	0.240	-0.920	0.200
2020/01/31 05:20:09.7	91.960	0.330	-1.020	0.150
2020/01/31 05:20:09.8	91.960	0.410	-1.120	0.110
2020/01/31 05:20:09.9	91.970	0.500	-1.210	0.080
2020/01/31 05:20:10.0	91.980	0.580	-1.290	0.050
2020/01/31 05:20:10.1	91.990	0.650	-1.350	0.020
2020/01/31 05:20:10.2	91.990	0.720	-1.410	0.000
2020/01/31 05:20:10.3	92.000	0.780	-1.450	-0.010
2020/01/31 05:20:10.4	92.010	0.840	-1.480	-0.020
2020/01/31 05:20:10.5	92.010	0.890	-1.490	-0.020
2020/01/31 05:20:10.6	92.020	0.930	-1.490	-0.020
2020/01/31 05:20:10.7	92.020	0.960	-1.470	-0.010
2020/01/31 05:20:10.8	92.030	0.980	-1.440	0.000
2020/01/31 05:20:10.9	92.030	1.000	-1.390	0.020
2020/01/31 05:20:11.0	92.040	1.000	-1.340	0.040
2020/01/31 05:20:11.1	92.040	1.000	-1.260	0.060
2020/01/31 05:20:11.2	92.040	0.980	-1.180	0.080
2020/01/31 05:20:11.3	92.050	0.960	-1.080	0.110
2020/01/31 05:20:11.4	92.050	0.930	-0.980	0.140
2020/01/31 05:20:11.5	92.050	0.890	-0.860	0.180
2020/01/31 05:20:11.6	92.050	0.840	-0.740	0.210
2020/01/31 05:20:11.7	92.050	0.790	-0.610	0.240
2020/01/31 05:20:11.8	92.050	0.720	-0.470	0.280
2020/01/31 05:20:11.9	92.040	0.660	-0.330	0.320
2020/01/31 05:20:12.0	92.040	0.580	-0.190	0.350
2020/01/31 05:20:12.1	92.040	0.500	-0.040	0.390
2020/01/31 05:20:12.2	92.030	0.420	0.100	0.430
2020/01/31 05:20:12.3	92.030	0.330	0.250	0.460
2020/01/31 05:20:12.4	92.020	0.250	0.390	0.500
2020/01/31 05:20:12.5	92.020	0.150	0.530	0.530
2020/01/31 05:20:12.6	92.010	0.060	0.660	0.560
2020/01/31 05:20:12.7	92.010	-0.030	0.780	0.590
2020/01/31 05:20:12.8	92.000	-0.120	0.900	0.620
2020/01/31 05:20:12.9	92.000	-0.210	1.010	0.640
2020/01/31 05:20:13.0	92.000	-0.290	1.100	0.670
2020/01/31 05:20:13.1	92.000	-0.370	1.190	0.690
2020/01/31 05:20:13.2	91.990	-0.450	1.260	0.710
2020/01/31 05:20:13.3	91.990	-0.530	1.320	0.720
2020/01/31 05:20:13.4	91.990	-0.600	1.360	0.740
2020/01/31 05:20:13.5	91.990	-0.660	1.390	0.750
2020/01/31 05:20:13.6	91.990	-0.710	1.400	0.770
2020/01/31 05:20:13.7	91.990	-0.760	1.400	0.780
2020/01/31 05:20:13.8	91.990	-0.810	1.380	0.790
2020/01/31 05:20:13.9	91.990	-0.840	1.350	0.800
2020/01/31 05:20:14.0	92.000	-0.870	1.300	0.810
2020/01/31 05:20:14.1	92.000	-0.880	1.240	0.820
2020/01/31 05:20:14.2	92.000	-0.900	1.160	0.830
2020/01/31 05:20:14.3	92.010	-0.900	1.070	0.830
2020/01/31 05:20:14.4	92.020	-0.890	0.970	0.840
2020/01/31 05:20:14.5	92.020	-0.880	0.860	0.840
2020/01/31 05:20:14.6	92.030	-0.860	0.740	0.850
2020/01/31 05:20:14.7	92.040	-0.840	0.620	0.850
2020/01/31 05:20:14.8	92.050	-0.810	0.480	0.850
2020/01/31 05:20:14.9	92.060	-0.770	0.340	0.850
2020/01/31 05:20:15.0	92.070	-0.730	0.200	0.840
2020/01/31 05:20:15.1	92.080	-0.680	0.050	0.840
2020/01/31 05:20:15.2	92.090	-0.630	-0.090	0.840
2020/01/31 05:20:15.3	92.100	-0.570	-0.240	0.830
2020/01/31 05:20:15.4	92.110	-0.510	-0.380	0.830
2020/01/31 05:20:15.5	92.120	-0.450	-0.530	0.820
2020/01/31 05:20:15.6	92.130	-0.380	-0.660	0.810
2020/01/31 05:20:15.7	92.140	-0.310	-0.800	0.810
2020/01/31 05:20:15.8	92.150	-0.250	-0.920	0.800
2020/01/31 05:20:15.9	92.160	-0.180	-1.040	0.800
2020/01/31 05:20:16.0	92.160	-0.110	-1.150	0.800
2020/01/31 05:20:16.1	92.170	-0.040	-1.250	0.790
2020/01/31 05:20:16.2	92.180	0.020	-1.340	0.790
2020/01/31 05:20:16.3	92.190	0.090	-1.420	0.790
2020/01/31 05:20:16.4	92.200	0.150	-1.490	0.780
2020/01/31 05:20:16.5	92.200	0.210	-1.540	0.790
2020/01/31 05:20:16.6	92.210	0.270	-1.580	0.790
2020/01/31 05:20:16.7	92.220	0.320	-1.610	0.790
2020/01/31 05:20:16.8	92.220	0.370	-1.620	0.790
2020/01/31 05:20:16.9	92.230	0.410	-1.620	0.800
2020/01/31 05:20:17.0	92.230	0.450	-1.610	0.800
2020/01/31 05:20:17.1	92.230	0.490	-1.590	0.810
2020/01/31 05:20:17.2	92.230	0.520	-1.550	0.810
2020/01/31 05:20:17.3	92.240	0.540	-1.500	0.820
2020/01/31 05:20:17.4	92.240	0.570	-1.440	0.830
2020/01/31 05:20:17.5	92.240	0.580	-1.370	0.840
2020/01/31 05:20:17.6	92.240	0.590	-1.290	0.850
2020/01/31 05:20:17.7	92.240	0.600	-1.200	0.860
2020/01/31 05:20:17.8	92.240	0.600	-1.110	0.870
2020/01/31 05:20:17.9	92.240	0.590	-1.010	0.880
2020/01/31 05:20:18.0	92.240	0.590	-0.900	0.890
2020/01/31 05:20:18.1	92.230	0.570	-0.800	0.900
2020/01/31 05:20:18.2	92.230	0.560	-0.690	0.910
2020/01/31 05:20:18.3	92.220	0.540	-0.580	0.920
2020/01/31 05:20:18.4	92.220	0.520	-0.470	0.930
2020/01/31 05:20:18.5	92.210	0.500	-0.360	0.930
2020/01/31 05:20:18.6	92.200	0.470	-0.260	0.940
2020/01/31 05:20:18.7	92.190	0.440	-0.160	0.950
2020/01/31 05:20:18.8	92.180	0.420	-0.060	0.950
2020/01/31 05:20:18.9	92.170	0.390	0.030	0.950
2020/01/31 05:20:19.0	92.160	0.360	0.110	0.950
2020/01/31 05:20:19.1	92.140	0.330	0.180	0.950
2020/01/31 05:20:19.2	92.130	0.300	0.260	0.940
2020/01/31 05:20:19.3	92.110	0.270	0.320	0.940
2020/01/31 05:20:19.4	92.100	0.250	0.370	0.930
2020/01/31 05:20:19.5	92.080	0.220	0.420	0.920
2020/01/31 05:20:19.6	92.070	0.190	0.460	0.900
2020/01/31 05:20:19.7	92.060	0.170	0.500	0.890
2020/01/31 05:20:19.8	92.040	0.140	0.520	0.870
2020/01/31 05:20:19.9	92.030	0.120	0.550	0.860
2020/01/31 05:20:20.0	92.020	0.100	0.560	0.840
2020/01/31 05:20:20.1	92.000	0.080	0.570	0.820
2020/01/31 05:20:20.2	91.990	0.060	0.570	0.800
2020/01/31 05:20:20.3	91.980	0.050	0.570	0.780
2020/01/31 05:20:20.4	91.970	0.030	0.570	0.760
2020/01/31 05:20:20.5	91.960	0.020	0.560	0.740
2020/01/31 05:20:20.6	91.950	0.000	0.540	0.720
2020/01/31 05:20:20.7	91.940	-0.010	0.520	0.710
2020/01/31 05:20:20.8	91.940	-0.020	0.500	0.690
2020/01/31 05:20:20.9	91.930	-0.030	0.470	0.670
2020/01/31 05:20:21.0	91.930	-0.040	0.440	0.650
2020/01/31 05:20:21.1	91.930	-0.050	0.410	0.630
2020/01/31 05:20:21.2	91.930	-0.050	0.370	0.610
2020/01/31 05:20:21.3	91.930	-0.060	0.340	0.600
2020/01/31 05:20:21.4	91.930	-0.070	0.290	0.580
2020/01/31 05:20:21.5	91.940	-0.070	0.250	0.560
2020/01/31 05:20:21.6	91.940	-0.080	0.200	0.550
2020/01/31 05:20:21.7	91.950	-0.080	0.160	0.530
2020/01/31 05:20:21.8	91.960	-0.090	0.110	0.510
2020/01/31 05:20:21.9	91.970	-0.090	0.060	0.500
2020/01/31 05:20:22.0	91.980	-0.100	0.010	0.490
2020/01/31 05:20:22.1	91.990	-0.100	-0.040	0.470
2020/01/31 05:20:22.2	91.990	-0.110	-0.090	0.460
2020/01/31 05:20:22.3	92.010	-0.110	-0.130	0.450
2020/01/31 05:20:22.4	92.020	-0.120	-0.180	0.440
2020/01/31 05:20:22.5	92.030	-0.120	-0.220	0.430
2020/01/31 05:20:22.6	92.040	-0.130	-0.260	0.420
2020/01/31 05:20:22.7	92.050	-0.140	-0.300	0.410
2020/01/31 05:20:22.8	92.060	-0.140	-0.340	0.410
2020/01/31 05:20:22.9	92.070	-0.150	-0.370	0.400
2020/01/31 05:20:23.0	92.080	-0.160	-0.400	0.400
2020/01/31 05:20:23.1	92.090	-0.170	-0.430	0.400
2020/01/31 05:20:23.2	92.100	-0.180	-0.450	0.400
2020/01/31 05:20:23.3	92.100	-0.190	-0.470	0.400
2020/01/31 05:20:23.4	92.110	-0.190	-0.490	0.410
2020/01/31 05:20:23.5	92.110	-0.200	-0.510	0.420
2020/01/31 05:20:23.6	92.110	-0.210	-0.520	0.430
2020/01/31 05:20:23.7	92.120	-0.220	-0.530	0.450
2020/01/31 05:20:23.8	92.120	-0.230	-0.530	0.470
2020/01/31 05:20:23.9	92.120	-0.240	-0.540	0.490
2020/01/31 05:20:24.0	92.120	-0.250	-0.540	0.510
2020/01/31 05:20:24.1	92.110	-0.260	-0.540	0.530
2020/01/31 05:20:24.2	92.110	-0.270	-0.530	0.560
2020/01/31 05:20:24.3	92.110	-0.270	-0.530	0.590
2020/01/31 05:20:24.4	92.100	-0.280	-0.520	0.620
2020/01/31 05:20:24.5	92.100	-0.280	-0.520	0.650
2020/01/31 05:20:24.6	92.090	-0.290	-0.510	0.690
2020/01/31 05:20:24.7	92.080	-0.290	-0.490	0.730
2020/01/31 05:20:24.8	92.080	-0.300	-0.480	0.770
2020/01/31 05:20:24.9	92.070	-0.300	-0.470	0.810
2020/01/31 05:20:25.0	92.070	-0.300	-0.460	0.850
2020/01/31 05:20:25.1	92.060	-0.300	-0.440	0.890
2020/01/31 05:20:25.2	92.060	-0.290	-0.430	0.930
2020/01/31 05:20:25.3	92.050	-0.290	-0.410	0.980
2020/01/31 05:20:25.4	92.050	-0.280	-0.400	1.020
2020/01/31 05:20:25.5	92.050	-0.280	-0.380	1.060
2020/01/31 05:20:25.6	92.050	-0.270	-0.370	1.100
2020/01/31 05:20:25.7	92.050	-0.260	-0.360	1.140
2020/01/31 05:20:25.8	92.050	-0.250	-0.340	1.170
2020/01/31 05:20:25.9	92.050	-0.230	-0.330	1.210
2020/01/31 05:20:26.0	92.060	-0.220	-0.320	1.240
2020/01/31 05:20:26.1	92.060	-0.200	-0.320	1.260
2020/01/31 05:20:26.2	92.070	-0.180	-0.310	1.290
2020/01/31 05:20:26.3	92.070	-0.160	-0.310	1.300
2020/01/31 05:20:26.4	92.080	-0.140	-0.310	1.320
2020/01/31 05:20:26.5	92.080	-0.120	-0.310	1.330
2020/01/31 05:20:26.6	92.090	-0.090	-0.310	1.340
2020/01/31 05:20:26.7	92.090	-0.070	-0.320	1.340
2020/01/31 05:20:26.8	92.100	-0.040	-0.330	1.350
2020/01/31 05:20:26.9	92.100	-0.010	-0.340	1.340
2020/01/31 05:20:27.0	92.110	0.020	-0.350	1.340
2020/01/31 05:20:27.1	92.110	0.050	-0.370	1.330
2020/01/31 05:20:27.2	92.120	0.090	-0.380	1.310
2020/01/31 05:20:27.3	92.120	0.120	-0.400	1.300
2020/01/31 05:20:27.4	92.130	0.150	-0.420	1.280
2020/01/31 05:20:27.5	92.130	0.180	-0.430	1.260
2020/01/31 05:20:27.6	92.140	0.210	-0.450	1.240
2020/01/31 05:20:27.7	92.150	0.240	-0.460	1.220
2020/01/31 05:20:27.8	92.160	0.270	-0.470	1.200
2020/01/31 05:20:27.9	92.180	0.300	-0.480	1.180
2020/01/31 05:20:28.0	92.190	0.320	-0.490	1.160
2020/01/31 05:20:28.1	92.200	0.340	-0.490	1.140
2020/01/31 05:20:28.2	92.220	0.350	-0.490	1.110
2020/01/31 05:20:28.3	92.230	0.370	-0.480	1.090
2020/01/31 05:20:28.4	92.240	0.380	-0.470	1.070
2020/01/31 05:20:28.5	92.250	0.380	-0.450	1.060
2020/01/31 05:20:28.6	92.260	0.380	-0.430	1.040
2020/01/31 05:20:28.7	92.270	0.380	-0.410	1.030
2020/01/31 05:20:28.8	92.280	0.380	-0.380	1.010
2020/01/31 05:20:28.9	92.280	0.370	-0.350	1.000
2020/01/31 05:20:29.0	92.280	0.350	-0.310	0.990
2020/01/31 05:20:29.1	92.290	0.340	-0.270	0.980
2020/01/31 05:20:29.2	92.290	0.320	-0.230	0.980
2020/01/31 05:20:29.3	92.280	0.290	-0.180	0.970
2020/01/31 05:20:29.4	92.280	0.270	-0.140	0.960
2020/01/31 05:20:29.5	92.270	0.240	-0.090	0.960
2020/01/31 05:20:29.6	92.260	0.210	-0.050	0.950
2020/01/31 05:20:29.7	92.250	0.180	-0.000	0.950
2020/01/31 05:20:29.8	92.240	0.150	0.040	0.950
2020/01/31 05:20:29.9	92.220	0.110	0.080	0.950
2020/01/31 05:20:30.0	92.200	0.080	0.130	0.940
2020/01/31 05:20:30.1	92.190	0.050	0.160	0.940
2020/01/31 05:20:30.2	92.160	0.010	0.200	0.930
2020/01/31 05:20:30.3	92.140	-0.020	0.230	0.930
2020/01/31 05:20:30.4	92.120	-0.050	0.260	0.920
2020/01/31 05:20:30.5	92.100	-0.080	0.290	0.910
2020/01/31 05:20:30.6	92.080	-0.100	0.310	0.900
2020/01/31 05:20:30.7	92.060	-0.130	0.330	0.890
2020/01/31 05:20:30.8	92.030	-0.150	0.350	0.870
2020/01/31 05:20:30.9	92.010	-0.170	0.360	0.850
2020/01/31 05:20:31.0	92.000	-0.190	0.360	0.840
2020/01/31 05:20:31.1	91.980	-0.210	0.370	0.810
2020/01/31 05:20:31.2	91.960	-0.230	0.370	0.790
2020/01/31 05:20:31.3	91.950	-0.240	0.370	0.770
2020/01/31 05:20:31.4	91.940	-0.250	0.360	0.740
2020/01/31 05:20:31.5	91.930	-0.260	0.350	0.720
2020/01/31 05:20:31.6	91.920	-0.260	0.340	0.690
2020/01/31 05:20:31.7	91.910	-0.270	0.320	0.660
2020/01/31 05:20:31.8	91.910	-0.270	0.300	0.640
2020/01/31 05:20:31.9	91.910	-0.270	0.280	0.610
2020/01/31 05:20:32.0	91.910	-0.270	0.260	0.590
2020/01/31 05:20:32.1	91.910	-0.270	0.230	0.570
2020/01/31 05:20:32.2	91.920	-0.260	0.200	0.540
2020/01/31 05:20:32.3	91.920	-0.260	0.160	0.520
2020/01/31 05:20:32.4	91.940	-0.250	0.130	0.500
2020/01/31 05:20:32.5	91.950	-0.240	0.090	0.480
2020/01/31 05:20:32.6	91.960	-0.230	0.050	0.460
2020/01/31 05:20:32.7	91.980	-0.220	0.010	0.440
2020/01/31 05:20:32.8	92.000	-0.210	-0.030	0.430
2020/01/31 05:20:32.9	92.020	-0.200	-0.080	0.410
2020/01/31 05:20:33.0	92.040	-0.180	-0.130	0.400
2020/01/31 05:20:33.1	92.070	-0.170	-0.180	0.380
2020/01/31 05:20:33.2	92.090	-0.150	-0.230	0.370
2020/01/31 05:20:33.3	92.110	-0.130	-0.280	0.360
2020/01/31 05:20:33.4	92.140	-0.110	-0.330	0.350
2020/01/31 05:20:33.5	92.160	-0.100	-0.380	0.340
2020/01/31 05:20:33.6	92.190	-0.080	-0.440	0.330
2020/01/31 05:20:33.7	92.210	-0.050	-0.490	0.320
2020/01/31 05:20:33.8	92.240	-0.030	-0.540	0.320
2020/01/31 05:20:33.9	92.260	-0.010	-0.590	0.310
2020/01/31 05:20:34.0	92.280	0.010	-0.640	0.310
2020/01/31 05:20:34.1	92.300	0.040	-0.690	0.310
2020/01/31 05:20:34.2	92.330	0.060	-0.740	0.310
2020/01/31 05:20:34.3	92.340	0.080	-0.780	0.310
2020/01/31 05:20:34.4	92.360	0.110	-0.820	0.310
2020/01/31 05:20:34.5	92.380	0.130	-0.860	0.320
2020/01/31 05:20:34.6	92.390	0.160	-0.890	0.320
2020/01/31 05:20:34.7	92.410	0.180	-0.920	0.330
2020/01/31 05:20:34.8	92.420	0.200	-0.940	0.340
2020/01/31 05:20:34.9	92.430	0.230	-0.960	0.350
2020/01/31 05:20:35.0	92.440	0.250	-0.980	0.370
2020/01/31 05:20:35.1	92.450	0.270	-0.990	0.380
2020/01/31 05:20:35.2	92.460	0.290	-0.990	0.400
2020/01/31 05:20:35.3	92.460	0.310	-1.000	0.420
2020/01/31 05:20:35.4	92.470	0.330	-0.990	0.450
2020/01/31 05:20:35.5	92.470	0.350	-0.980	0.480
2020/01/31 05:20:35.6	92.470	0.370	-0.970	0.510
2020/01/31 05:20:35.7	92.470	0.380	-0.950	0.550
2020/01/31 05:20:35.8	92.470	0.390	-0.930	0.580
2020/01/31 05:20:35.9	92.470	0.410	-0.900	0.630
2020/01/31 05:20:36.0	92.460	0.410	-0.870	0.670
2020/01/31 05:20:36.1	92.450	0.420	-0.830	0.720
2020/01/31 05:20:36.2	92.440	0.420	-0.790	0.780
2020/01/31 05:20:36.3	92.420	0.420	-0.740	0.830
2020/01/31 05:20:36.4	92.400	0.420	-0.680	0.890
2020/01/31 05:20:36.5	92.380	0.410	-0.620	0.950
2020/01/31 05:20:36.6	92.360	0.410	-0.560	1.010
2020/01/31 05:20:36.7	92.340	0.390	-0.490	1.070
2020/01/31 05:20:36.8	92.310	0.380	-0.420	1.120
2020/01/31 05:20:36.9	92.280	0.360	-0.340	1.180
2020/01/31 05:20:37.0	92.260	0.340	-0.260	1.230
2020/01/31 05:20:37.1	92.230	0.310	-0.180	1.280
2020/01/31 05:20:37.2	92.200	0.290	-0.090	1.330
2020/01/31 05:20:37.3	92.170	0.260	-0.010	1.370
2020/01/31 05:20:37.4	92.140	0.230	0.070	1.400
2020/01/31 05:20:37.5	92.110	0.190	0.160	1.430
2020/01/31 05:20:37.6	92.090	0.150	0.240	1.450
2020/01/31 05:20:37.7	92.070	0.120	0.310	1.470
2020/01/31 05:20:37.8	92.050	0.080	0.390	1.470
2020/01/31 05:20:37.9	92.030	0.040	0.460	1.470
2020/01/31 05:20:38.0	92.010	-0.000	0.520	1.460
2020/01/31 05:20:38.1	92.000	-0.040	0.580	1.450
2020/01/31 05:20:38.2	91.990	-0.080	0.630	1.420
2020/01/31 05:20:38.3	91.990	-0.120	0.680	1.390
2020/01/31 05:20:38.4	91.980	-0.160	0.710	1.360
2020/01/31 05:20:38.5	91.980	-0.200	0.750	1.320
2020/01/31 05:20:38.6	91.980	-0.230	0.770	1.280
2020/01/31 05:20:38.7	91.980	-0.270	0.780	1.240
2020/01/31 05:20:38.8	91.990	-0.300	0.790	1.200
2020/01/31 05:20:38.9	91.990	-0.330	0.790	1.150
2020/01/31 05:20:39.0	91.990	-0.350	0.780	1.110
2020/01/31 05:20:39.1	92.000	-0.370	0.760	1.070
2020/01/31 05:20:39.2	92.010	-0.390	0.730	1.020
2020/01/31 05:20:39.3	92.010	-0.410	0.690	0.980
2020/01/31 05:20:39.4	92.020	-0.420	0.650	0.950
2020/01/31 05:20:39.5	92.020	-0.430	0.600	0.910
2020/01/31 05:20:39.6	92.030	-0.440	0.540	0.880
2020/01/31 05:20:39.7	92.040	-0.440	0.480	0.850
2020/01/31 05:20:39.8	92.040	-0.430	0.410	0.820
2020/01/31 05:20:39.9	92.050	-0.430	0.330	0.790
2020/01/31 05:20:40.0	92.060	-0.420	0.250	0.760
2020/01/31 05:20:40.1	92.070	-0.400	0.160	0.740
2020/01/31 05:20:40.2	92.070	-0.380	0.070	0.720
2020/01/31 05:20:40.3	92.080	-0.360	-0.020	0.700
2020/01/31 05:20:40.4	92.090	-0.330	-0.120	0.680
2020/01/31 05:20:40.5	92.100	-0.300	-0.210	0.660
2020/01/31 05:20:40.6	92.110	-0.270	-0.310	0.640
2020/01/31 05:20:40.7	92.110	-0.240	-0.410	0.630
2020/01/31 05:20:40.8	92.120	-0.200	-0.510	0.610
2020/01/31 05:20:40.9	92.130	-0.160	-0.600	0.600
2020/01/31 05:20:41.0	92.140	-0.120	-0.690	0.590
2020/01/31 05:20:41.1	92.160	-0.070	-0.780	0.580
2020/01/31 05:20:41.2	92.170	-0.030	-0.870	0.570
2020/01/31 05:20:41.3	92.180	0.010	-0.950	0.570
2020/01/31 05:20:41.4	92.190	0.060	-1.020	0.560
2020/01/31 05:20:41.5	92.200	0.100	-1.090	0.560
2020/01/31 05:20:41.6	92.210	0.140	-1.140	0.560
2020/01/31 05:20:41.7	92.220	0.180	-1.190	0.560
2020/01/31 05:20:41.8	92.230	0.220	-1.240	0.570
2020/01/31 05:20:41.9	92.240	0.250	-1.270	0.570
2020/01/31 05:20:42.0	92.240	0.290	-1.290	0.580
2020/01/31 05:20:42.1	92.250	0.320	-1.300	0.590
2020/01/31 05:20:42.2	92.260	0.340	-1.300	0.600
2020/01/31 05:20:42.3	92.270	0.360	-1.290	0.610
2020/01/31 05:20:42.4	92.270	0.380	-1.270	0.620
2020/01/31 05:20:42.5	92.280	0.390	-1.230	0.630
2020/01/31 05:20:42.6	92.290	0.400	-1.190	0.650
2020/01/31 05:20:42.7	92.300	0.400	-1.140	0.660
2020/01/31 05:20:42.8	92.300	0.390	-1.070	0.680
2020/01/31 05:20:42.9	92.310	0.390	-1.000	0.700
2020/01/31 05:20:43.0	92.310	0.370	-0.910	0.720
2020/01/31 05:20:43.1	92.320	0.350	-0.820	0.740
2020/01/31 05:20:43.2	92.320	0.330	-0.720	0.770
2020/01/31 05:20:43.3	92.320	0.300	-0.620	0.790
2020/01/31 05:20:43.4	92.320	0.270	-0.510	0.820
2020/01/31 05:20:43.5	92.320	0.240	-0.400	0.840
2020/01/31 05:20:43.6	92.320	0.200	-0.280	0.870
2020/01/31 05:20:43.7	92.320	0.160	-0.160	0.900
2020/01/31 05:20:43.8	92.320	0.110	-0.050	0.930
2020/01/31 05:20:43.9	92.320	0.070	0.070	0.950
2020/01/31 05:20:44.0	92.320	0.020	0.180	0.980
2020/01/31 05:20:44.1	92.310	-0.030	0.290	1.010
2020/01/31 05:20:44.2	92.310	-0.080	0.390	1.040
2020/01/31 05:20:44.3	92.300	-0.130	0.490	1.060
2020/01/31 05:20:44.4	92.290	-0.180	0.580	1.090
2020/01/31 05:20:44.5	92.290	-0.230	0.660	1.110
2020/01/31 05:20:44.6	92.280	-0.280	0.730	1.140
2020/01/31 05:20:44.7	92.270	-0.320	0.790	1.160
2020/01/31 05:20:44.8	92.260	-0.370	0.840	1.180
2020/01/31 05:20:44.9	92.250	-0.410	0.880	1.190
2020/01/31 05:20:45.0	92.240	-0.450	0.910	1.210
2020/01/31 05:20:45.1	92.230	-0.480	0.920	1.220
2020/01/31 05:20:45.2	92.220	-0.510	0.920	1.220
2020/01/31 05:20:45.3	92.210	-0.530	0.910	1.230
2020/01/31 05:20:45.4	92.200	-0.550	0.890	1.230
2020/01/31 05:20:45.5	92.200	-0.570	0.860	1.220
2020/01/31 05:20:45.6	92.190	-0.580	0.820	1.210
2020/01/31 05:20:45.7	92.180	-0.590	0.770	1.200
2020/01/31 05:20:45.8	92.180	-0.590	0.710	1.180
2020/01/31 05:20:45.9	92.180	-0.580	0.640	1.160
2020/01/31 05:20:46.0	92.170	-0.570	0.560	1.130
2020/01/31 05:20:46.1	92.170	-0.560	0.480	1.100
2020/01/31 05:20:46.2	92.170	-0.540	0.390	1.070
2020/01/31 05:20:46.3	92.170	-0.520	0.290	1.030
2020/01/31 05:20:46.4	92.170	-0.490	0.200	1.000
2020/01/31 05:20:46.5	92.170	-0.470	0.100	0.960
2020/01/31 05:20:46.6	92.170	-0.430	-0.000	0.930
2020/01/31 05:20:46.7	92.170	-0.400	-0.100	0.890
2020/01/31 05:20:46.8	92.170	-0.360	-0.200	0.850
2020/01/31 05:20:46.9	92.170	-0.320	-0.300	0.820
2020/01/31 05:20:47.0	92.170	-0.270	-0.400	0.780
2020/01/31 05:20:47.1	92.170	-0.230	-0.500	0.750
2020/01/31 05:20:47.2	92.160	-0.180	-0.590	0.720
2020/01/31 05:20:47.3	92.160	-0.140	-0.680	0.690
2020/01/31 05:20:47.4	92.160	-0.090	-0.760	0.660
2020/01/31 05:20:47.5	92.150	-0.040	-0.830	0.630
2020/01/31 05:20:47.6	92.150	0.000	-0.910	0.610
2020/01/31 05:20:47.7	92.140	0.050	-0.970	0.590
2020/01/31 05:20:47.8	92.140	0.100	-1.030	0.570
2020/01/31 05:20:47.9	92.130	0.140	-1.080	0.560
2020/01/31 05:20:48.0	92.130	0.180	-1.120	0.550
2020/01/31 05:20:48.1	92.120	0.230	-1.160	0.540
2020/01/31 05:20:48.2	92.110	0.260	-1.190	0.530
2020/01/31 05:20:48.3	92.100	0.300	-1.210	0.530
2020/01/31 05:20:48.4	92.100	0.330	-1.220	0.530
2020/01/31 05:20:48.5	92.090	0.360	-1.230	0.530
2020/01/31 05:20:48.6	92.080	0.390	-1.230	0.540
2020/01/31 05:20:48.7	92.080	0.410	-1.210	0.550
2020/01/31 05:20:48.8	92.070	0.430	-1.200	0.550
2020/01/31 05:20:48.9	92.060	0.450	-1.170	0.560
2020/01/31 05:20:49.0	92.060	0.460	-1.130	0.570
2020/01/31 05:20:49.1	92.050	0.470	-1.090	0.580
2020/01/31 05:20:49.2	92.050	0.470	-1.040	0.590
2020/01/31 05:20:49.3	92.040	0.470	-0.990	0.600
2020/01/31 05:20:49.4	92.040	0.470	-0.930	0.610
2020/01/31 05:20:49.5	92.030	0.460	-0.860	0.620
2020/01/31 05:20:49.6	92.030	0.440	-0.790	0.630
2020/01/31 05:20:49.7	92.020	0.430	-0.710	0.640
2020/01/31 05:20:49.8	92.020	0.410	-0.630	0.650
2020/01/31 05:20:49.9	92.020	0.390	-0.550	0.650
2020/01/31 05:20:50.0	92.020	0.360	-0.460	0.660
2020/01/31 05:20:50.1	92.010	0.330	-0.370	0.660
2020/01/31 05:20:50.2	92.010	0.300	-0.280	0.660
2020/01/31 05:20:50.3	92.010	0.270	-0.200	0.660
2020/01/31 05:20:50.4	92.010	0.230	-0.110	0.670
2020/01/31 05:20:50.5	92.010	0.200	-0.020	0.670
2020/01/31 05:20:50.6	92.000	0.160	0.060	0.660
2020/01/31 05:20:50.7	92.000	0.120	0.140	0.660
2020/01/31 05:20:50.8	92.000	0.090	0.210	0.660
2020/01/31 05:20:50.9	92.000	0.050	0.280	0.660
2020/01/31 05:20:51.0	92.000	0.010	0.350	0.650
2020/01/31 05:20:51.1	92.000	-0.020	0.400	0.650
2020/01/31 05:20:51.2	92.000	-0.050	0.460	0.640
2020/01/31 05:20:51.3	92.000	-0.080	0.500	0.640
2020/01/31 05:20:51.4	92.000	-0.110	0.530	0.640
2020/01/31 05:20:51.5	92.000	-0.130	0.560	0.640
2020/01/31 05:20:51.6	92.000	-0.150	0.580	0.640
2020/01/31 05:20:51.7	92.000	-0.170	0.590	0.640
2020/01/31 05:20:51.8	92.000	-0.180	0.590	0.640
2020/01/31 05:20:51.9	92.010	-0.190	0.580	0.650
2020/01/31 05:20:52.0	92.010	-0.200	0.560	0.660
2020/01/31 05:20:52.1	92.010	-0.200	0.540	0.670
2020/01/31 05:20:52.2	92.010	-0.200	0.510	0.670
2020/01/31 05:20:52.3	92.010	-0.190	0.480	0.690
2020/01/31 05:20:52.4	92.010	-0.180	0.430	0.700
2020/01/31 05:20:52.5	92.010	-0.170	0.390	0.710
2020/01/31 05:20:52.6	92.010	-0.150	0.340	0.730
2020/01/31 05:20:52.7	92.020	-0.130	0.280	0.740
2020/01/31 05:20:52.8	92.020	-0.110	0.220	0.750
2020/01/31 05:20:52.9	92.030	-0.080	0.160	0.760
2020/01/31 05:20:53.0	92.030	-0.060	0.090	0.770
2020/01/31 05:20:53.1	92.040	-0.030	0.020	0.780
2020/01/31 05:20:53.2	92.050	0.000	-0.050	0.790
2020/01/31 05:20:53.3	92.060	0.030	-0.120	0.800
2020/01/31 05:20:53.4	92.070	0.070	-0.190	0.800
2020/01/31 05:20:53.5	92.080	0.100	-0.260	0.810
2020/01/31 05:20:53.6	92.090	0.130	-0.330	0.810
2020/01/31 05:20:53.7	92.100	0.160	-0.390	0.820
2020/01/31 05:20:53.8	92.110	0.190	-0.450	0.820
2020/01/31 05:20:53.9	92.120	0.220	-0.510	0.830
2020/01/31 05:20:54.0	92.130	0.250	-0.570	0.840
2020/01/31 05:20:54.1	92.130	0.270	-0.620	0.850
2020/01/31 05:20:54.2	92.130	0.290	-0.660	0.850
2020/01/31 05:20:54.3	92.140	0.310	-0.690	0.870
2020/01/31 05:20:54.4	92.140	0.320	-0.720	0.880
2020/01/31 05:20:54.5	92.130	0.330	-0.740	0.890
2020/01/31 05:20:54.6	92.130	0.340	-0.750	0.900
2020/01/31 05:20:54.7	92.120	0.340	-0.750	0.920
2020/01/31 05:20:54.8	92.120	0.330	-0.740	0.930
2020/01/31 05:20:54.9	92.110	0.320	-0.720	0.950
2020/01/31 05:20:55.0	92.100	0.310	-0.690	0.960
2020/01/31 05:20:55.1	92.080	0.290	-0.650	0.980
2020/01/31 05:20:55.2	92.070	0.260	-0.610	0.990
2020/01/31 05:20:55.3	92.060	0.230	-0.560	1.010
2020/01/31 05:20:55.4	92.040	0.200	-0.500	1.020
2020/01/31 05:20:55.5	92.020	0.160	-0.430	1.040
2020/01/31 05:20:55.6	92.010	0.120	-0.360	1.050
2020/01/31 05:20:55.7	91.990	0.070	-0.280	1.070
2020/01/31 05:20:55.8	91.970	0.020	-0.200	1.080
2020/01/31 05:20:55.9	91.950	-0.030	-0.110	1.090
2020/01/31 05:20:56.0	91.930	-0.080	-0.030	1.100
2020/01/31 05:20:56.1	91.900	-0.130	0.060	1.110
2020/01/31 05:20:56.2	91.880	-0.190	0.150	1.120
2020/01/31 05:20:56.3	91.860	-0.240	0.240	1.130
2020/01/31 05:20:56.4	91.840	-0.300	0.320	1.130
2020/01/31 05:20:56.5	91.820	-0.350	0.390	1.140
2020/01/31 05:20:56.6	91.800	-0.400	0.460	1.140
2020/01/31 05:20:56.7	91.780	-0.440	0.510	1.130
2020/01/31 05:20:56.8	91.770	-0.490	0.560	1.130
2020/01/31 05:20:56.9	91.760	-0.520	0.600	1.120
2020/01/31 05:20:57.0	91.750	-0.560	0.630	1.100
2020/01/31 05:20:57.1	91.740	-0.580	0.650	1.090
2020/01/31 05:20:57.2	91.730	-0.600	0.650	1.060
2020/01/31 05:20:57.3	91.720	-0.620	0.650	1.040
2020/01/31 05:20:57.4	91.720	-0.630	0.630	1.010
2020/01/31 05:20:57.5	91.720	-0.630	0.590	0.980
2020/01/31 05:20:57.6	91.720	-0.620	0.550	0.950
2020/01/31 05:20:57.7	91.720	-0.610	0.490	0.910
2020/01/31 05:20:57.8	91.720	-0.590	0.420	0.880
2020/01/31 05:20:57.9	91.730	-0.560	0.340	0.840
2020/01/31 05:20:58.0	91.740	-0.520	0.250	0.790
2020/01/31 05:20:58.1	91.750	-0.480	0.150	0.750
2020/01/31 05:20:58.2	91.760	-0.440	0.040	0.700
2020/01/31 05:20:58.3	91.770	-0.390	-0.070	0.660
2020/01/31 05:20:58.4	91.790	-0.330	-0.190	0.620
2020/01/31 05:20:58.5	91.800	-0.270	-0.310	0.580
2020/01/31 05:20:58.6	91.820	-0.200	-0.440	0.540
2020/01/31 05:20:58.7	91.840	-0.140	-0.560	0.500
2020/01/31 05:20:58.8	91.850	-0.070	-0.690	0.460
2020/01/31 05:20:58.9	91.870	0.010	-0.810	0.430
2020/01/31 05:20:59.0	91.890	0.080	-0.930	0.400
2020/01/31 05:20:59.1	91.910	0.150	-1.050	0.380
2020/01/31 05:20:59.2	91.920	0.220	-1.160	0.350
2020/01/31 05:20:59.3	91.930	0.290	-1.260	0.340
2020/01/31 05:20:59.4	91.950	0.350	-1.350	0.320
2020/01/31 05:20:59.5	91.960	0.410	-1.420	0.310
2020/01/31 05:20:59.6	91.970	0.470	-1.490	0.310
2020/01/31 05:20:59.7	91.970	0.520	-1.540	0.310
2020/01/31 05:20:59.8	91.980	0.570	-1.570	0.310
2020/01/31 05:20:59.9	91.980	0.610	-1.590	0.320
2020/01/31 05:21:00.0	91.980	0.640	-1.600	0.330
2020/01/31 05:21:00.1	91.980	0.670	-1.590	0.340
2020/01/31 05:21:00.2	91.980	0.690	-1.560	0.360
2020/01/31 05:21:00.3	91.980	0.700	-1.520	0.390
2020/01/31 05:21:00.4	91.970	0.700	-1.460	0.410
2020/01/31 05:21:00.5	91.960	0.700	-1.390	0.440
2020/01/31 05:21:00.6	91.950	0.680	-1.300	0.470
2020/01/31 05:21:00.7	91.940	0.660	-1.200	0.510
2020/01/31 05:21:00.8	91.930	0.640	-1.090	0.550
2020/01/31 05:21:00.9	91.910	0.600	-0.960	0.590
2020/01/31 05:21:01.0	91.900	0.560	-0.830	0.630
2020/01/31 05:21:01.1	91.880	0.510	-0.680	0.670
2020/01/31 05:21:01.2	91.860	0.460	-0.530	0.710
2020/01/31 05:21:01.3	91.840	0.390	-0.370	0.750
2020/01/31 05:21:01.4	91.830	0.330	-0.210	0.800
2020/01/31 05:21:01.5	91.810	0.260	-0.050	0.840
2020/01/31 05:21:01.6	91.790	0.180	0.120	0.880
2020/01/31 05:21:01.7	91.770	0.110	0.280	0.920
2020/01/31 05:21:01.8	91.750	0.030	0.440	0.960
2020/01/31 05:21:01.9	91.740	-0.060	0.600	1.000
2020/01/31 05:21:02.0	91.720	-0.140	0.740	1.030
2020/01/31 05:21:02.1	91.710	-0.220	0.890	1.060
2020/01/31 05:21:02.2	91.690	-0.300	1.020	1.090
2020/01/31 05:21:02.3	91.680	-0.380	1.140	1.120
2020/01/31 05:21:02.4	91.670	-0.460	1.250	1.140
2020/01/31 05:21:02.5	91.650	-0.540	1.340	1.170
2020/01/31 05:21:02.6	91.640	-0.610	1.410	1.180
2020/01/31 05:21:02.7	91.630	-0.670	1.480	1.200
2020/01/31 05:21:02.8	91.620	-0.730	1.520	1.210
2020/01/31 05:21:02.9	91.610	-0.790	1.540	1.220
2020/01/31 05:21:03.0	91.610	-0.840	1.550	1.220
2020/01/31 05:21:03.1	91.600	-0.880	1.540	1.210
2020/01/31 05:21:03.2	91.600	-0.910	1.510	1.200
2020/01/31 05:21:03.3	91.590	-0.930	1.460	1.190
2020/01/31 05:21:03.4	91.590	-0.950	1.390	1.170
2020/01/31 05:21:03.5	91.590	-0.960	1.310	1.150
2020/01/31 05:21:03.6	91.590	-0.960	1.210	1.120
2020/01/31 05:21:03.7	91.600	-0.950	1.090	1.080
2020/01/31 05:21:03.8	91.600	-0.930	0.970	1.040
2020/01/31 05:21:03.9	91.610	-0.910	0.830	1.000
2020/01/31 05:21:04.0	91.620	-0.880	0.680	0.950
2020/01/31 05:21:04.1	91.630	-0.840	0.520	0.910
2020/01/31 05:21:04.2	91.640	-0.790	0.350	0.860
2020/01/31 05:21:04.3	91.660	-0.740	0.190	0.810
2020/01/31 05:21:04.4	91.670	-0.690	0.020	0.760
2020/01/31 05:21:04.5	91.680	-0.620	-0.150	0.720
2020/01/31 05:21:04.6	91.690	-0.560	-0.320	0.670
2020/01/31 05:21:04.7	91.710	-0.490	-0.490	0.630
2020/01/31 05:21:04.8	91.720	-0.420	-0.650	0.590
2020/01/31 05:21:04.9	91.730	-0.350	-0.800	0.560
2020/01/31 05:21:05.0	91.740	-0.280	-0.950	0.530
2020/01/31 05:21:05.1	91.750	-0.200	-1.090	0.500
2020/01/31 05:21:05.2	91.760	-0.130	-1.220	0.480
2020/01/31 05:21:05.3	91.780	-0.060	-1.330	0.460
2020/01/31 05:21:05.4	91.790	0.010	-1.440	0.440
2020/01/31 05:21:05.5	91.800	0.080	-1.520	0.430
2020/01/31 05:21:05.6	91.810	0.150	-1.600	0.420
2020/01/31 05:21:05.7	91.830	0.210	-1.660	0.420
2020/01/31 05:21:05.8	91.840	0.270	-1.700	0.420
2020/01/31 05:21:05.9	91.860	0.320	-1.730	0.420
2020/01/31 05:21:06.0	91.870	0.370	-1.750	0.430
2020/01/31 05:21:06.1	91.880	0.410	-1.750	0.440
2020/01/31 05:21:06.2	91.890	0.450	-1.730	0.440
2020/01/31 05:21:06.3	91.900	0.480	-1.700	0.450
2020/01/31 05:21:06.4	91.920	0.500	-1.660	0.470
2020/01/31 05:21:06.5	91.930	0.520	-1.610	0.490
2020/01/31 05:21:06.6	91.940	0.540	-1.550	0.500
2020/01/31 05:21:06.7	91.950	0.550	-1.470	0.520
2020/01/31 05:21:06.8	91.970	0.550	-1.390	0.540
2020/01/31 05:21:06.9	91.980	0.550	-1.290	0.560
2020/01/31 05:21:07.0	91.990	0.540	-1.190	0.580
2020/01/31 05:21:07.1	92.000	0.530	-1.090	0.600
2020/01/31 05:21:07.2	92.010	0.510	-0.970	0.620
2020/01/31 05:21:07.3	92.010	0.490	-0.850	0.640
2020/01/31 05:21:07.4	92.020	0.470	-0.730	0.660
2020/01/31 05:21:07.5	92.030	0.440	-0.610	0.690
2020/01/31 05:21:07.6	92.030	0.420	-0.490	0.710
2020/01/31 05:21:07.7	92.030	0.380	-0.370	0.740
2020/01/31 05:21:07.8	92.030	0.350	-0.260	0.760
2020/01/31 05:21:07.9	92.030	0.320	-0.140	0.790
2020/01/31 05:21:08.0	92.030	0.290	-0.030	0.810
2020/01/31 05:21:08.1	92.030	0.250	0.080	0.840
2020/01/31 05:21:08.2	92.020	0.220	0.180	0.860
2020/01/31 05:21:08.3	92.020	0.190	0.270	0.890
2020/01/31 05:21:08.4	92.010	0.160	0.360	0.920
2020/01/31 05:21:08.5	92.000	0.130	0.440	0.940
2020/01/31 05:21:08.6	91.990	0.100	0.510	0.970
2020/01/31 05:21:08.7	91.980	0.080	0.570	0.990
2020/01/31 05:21:08.8	91.970	0.050	0.620	1.020
2020/01/31 05:21:08.9	91.960	0.030	0.660	1.040
2020/01/31 05:21:09.0	91.950	0.020	0.700	1.060
2020/01/31 05:21:09.1	91.940	0.010	0.720	1.080
2020/01/31 05:21:09.2	91.920	-0.000	0.730	1.090
2020/01/31 05:21:09.3	91.910	-0.010	0.740	1.100
2020/01/31 05:21:09.4	91.900	-0.010	0.730	1.110
2020/01/31 05:21:09.5	91.890	-0.010	0.710	1.120
2020/01/31 05:21:09.6	91.870	-0.000	0.680	1.130
2020/01/31 05:21:09.7	91.860	0.000	0.650	1.130
2020/01/31 05:21:09.8	91.850	0.020	0.610	1.120
2020/01/31 05:21:09.9	91.830	0.030	0.560	1.120
2020/01/31 05:21:10.0	91.820	0.050	0.500	1.110
2020/01/31 05:21:10.1	91.810	0.070	0.440	1.100
2020/01/31 05:21:10.2	91.790	0.090	0.370	1.080
2020/01/31 05:21:10.3	91.780	0.110	0.300	1.060
2020/01/31 05:21:10.4	91.770	0.140	0.220	1.030
2020/01/31 05:21:10.5	91.760	0.170	0.150	1.010
2020/01/31 05:21:10.6	91.750	0.190	0.070	0.980
2020/01/31 05:21:10.7	91.750	0.220	-0.000	0.950
2020/01/31 05:21:10.8	91.740	0.250	-0.080	0.910
2020/01/31 05:21:10.9	91.740	0.280	-0.150	0.880
2020/01/31 05:21:11.0	91.740	0.310	-0.220	0.850
2020/01/31 05:21:11.1	91.740	0.340	-0.290	0.810
2020/01/31 05:21:11.2	91.740	0.370	-0.360	0.770
2020/01/31 05:21:11.3	91.740	0.400	-0.410	0.740
2020/01/31 05:21:11.4	91.740	0.420	-0.470	0.700
2020/01/31 05:21:11.5	91.750	0.450	-0.510	0.670
2020/01/31 05:21:11.6	91.760	0.470	-0.550	0.640
2020/01/31 05:21:11.7	91.770	0.490	-0.590	0.610
2020/01/31 05:21:11.8	91.780	0.500	-0.620	0.580
2020/01/31 05:21:11.9	91.790	0.510	-0.640	0.550
2020/01/31 05:21:12.0	91.810	0.520	-0.650	0.520
2020/01/31 05:21:12.1	91.820	0.530	-0.660	0.490
2020/01/31 05:21:12.2	91.840	0.530	-0.660	0.470
2020/01/31 05:21:12.3	91.860	0.530	-0.660	0.440
2020/01/31 05:21:12.4	91.880	0.530	-0.650	0.420
2020/01/31 05:21:12.5	91.900	0.520	-0.640	0.400
2020/01/31 05:21:12.6	91.920	0.510	-0.620	0.390
2020/01/31 05:21:12.7	91.940	0.490	-0.600	0.370
2020/01/31 05:21:12.8	91.960	0.470	-0.570	0.360
2020/01/31 05:21:12.9	91.990	0.450	-0.540	0.340
2020/01/31 05:21:13.0	92.010	0.430	-0.500	0.340
2020/01/31 05:21:13.1	92.040	0.400	-0.470	0.330
2020/01/31 05:21:13.2	92.060	0.370	-0.430	0.320
2020/01/31 05:21:13.3	92.080	0.330	-0.390	0.320
2020/01/31 05:21:13.4	92.100	0.300	-0.340	0.320
2020/01/31 05:21:13.5	92.130	0.260	-0.300	0.320
2020/01/31 05:21:13.6	92.150	0.220	-0.260	0.320
2020/01/31 05:21:13.7	92.170	0.180	-0.210	0.330
2020/01/31 05:21:13.8	92.190	0.130	-0.170	0.340
2020/01/31 05:21:13.9	92.200	0.090	-0.130	0.350
2020/01/31 05:21:14.0	92.220	0.050	-0.090	0.370
2020/01/31 05:21:14.1	92.230	0.000	-0.050	0.390
2020/01/31 05:21:14.2	92.240	-0.040	-0.010	0.400
2020/01/31 05:21:14.3	92.250	-0.080	0.020	0.420
2020/01/31 05:21:14.4	92.260	-0.120	0.060	0.450
2020/01/31 05:21:14.5	92.270	-0.170	0.090	0.480
2020/01/31 05:21:14.6	92.270	-0.210	0.120	0.510
2020/01/31 05:21:14.7	92.280	-0.250	0.150	0.540
2020/01/31 05:21:14.8	92.280	-0.280	0.170	0.580
2020/01/31 05:21:14.9	92.280	-0.320	0.190	0.610
2020/01/31 05:21:15.0	92.280	-0.360	0.210	0.650
2020/01/31 05:21:15.1	92.280	-0.390	0.220	0.690
2020/01/31 05:21:15.2	92.280	-0.420	0.240	0.730
2020/01/31 05:21:15.3	92.280	-0.450	0.250	0.770
2020/01/31 05:21:15.4	92.280	-0.480	0.250	0.810
2020/01/31 05:21:15.5	92.280	-0.510	0.250	0.860
2020/01/31 05:21:15.6	92.270	-0.540	0.250	0.900
2020/01/31 05:21:15.7	92.270	-0.560	0.250	0.950
2020/01/31 05:21:15.8	92.270	-0.580	0.240	0.990
2020/01/31 05:21:15.9	92.270	-0.610	0.230	1.030
2020/01/31 05:21:16.0	92.270	-0.620	0.210	1.080
2020/01/31 05:21:16.1	92.270	-0.640	0.190	1.120
2020/01/31 05:21:16.2	92.270	-0.660	0.160	1.160
2020/01/31 05:21:16.3	92.270	-0.670	0.140	1.200
2020/01/31 05:21:16.4	92.270	-0.680	0.110	1.240
2020/01/31 05:21:16.5	92.270	-0.690	0.080	1.270
2020/01/31 05:21:16.6	92.270	-0.690	0.040	1.300
2020/01/31 05:21:16.7	92.280	-0.700	0.010	1.330
2020/01/31 05:21:16.8	92.280	-0.700	-0.030	1.360
2020/01/31 05:21:16.9	92.280	-0.700	-0.080	1.390
2020/01/31 05:21:17.0	92.280	-0.690	-0.120	1.410
2020/01/31 05:21:17.1	92.280	-0.690	-0.160	1.430
2020/01/31 05:21:17.2	92.280	-0.680	-0.210	1.440
2020/01/31 05:21:17.3	92.280	-0.670	-0.250	1.450
2020/01/31 05:21:17.4	92.280	-0.650	-0.300	1.460
2020/01/31 05:21:17.5	92.280	-0.640	-0.350	1.470
2020/01/31 05:21:17.6	92.270	-0.620	-0.390	1.470
2020/01/31 05:21:17.7	92.270	-0.600	-0.440	1.470
2020/01/31 05:21:17.8	92.270	-0.570	-0.490	1.460
2020/01/31 05:21:17.9	92.260	-0.550	-0.530	1.450
2020/01/31 05:21:18.0	92.260	-0.520	-0.570	1.440
2020/01/31 05:21:18.1	92.260	-0.490	-0.610	1.430
2020/01/31 05:21:18.2	92.250	-0.460	-0.650	1.410
2020/01/31 05:21:18.3	92.240	-0.420	-0.690	1.390
2020/01/31 05:21:18.4	92.230	-0.390	-0.720	1.380
2020/01/31 05:21:18.5	92.220	-0.350	-0.750	1.360
2020/01/31 05:21:18.6	92.210	-0.310	-0.780	1.340
2020/01/31 05:21:18.7	92.200	-0.270	-0.810	1.320
2020/01/31 05:21:18.8	92.190	-0.230	-0.830	1.300
2020/01/31 05:21:18.9	92.180	-0.190	-0.850	1.280
2020/01/31 05:21:19.0	92.170	-0.150	-0.860	1.260
2020/01/31 05:21:19.1	92.160	-0.110	-0.870	1.240
2020/01/31 05:21:19.2	92.150	-0.070	-0.880	1.220
2020/01/31 05:21:19.3	92.140	-0.030	-0.890	1.200
2020/01/31 05:21:19.4	92.130	0.010	-0.890	1.180
2020/01/31 05:21:19.5	92.120	0.050	-0.880	1.170
2020/01/31 05:21:19.6	92.110	0.090	-0.870	1.150
2020/01/31 05:21:19.7	92.100	0.120	-0.860	1.130
2020/01/31 05:21:19.8	92.090	0.160	-0.840	1.110
2020/01/31 05:21:19.9	92.080	0.190	-0.820	1.090
2020/01/31 05:21:20.0	92.070	0.220	-0.800	1.070
2020/01/31 05:21:20.1	92.060	0.240	-0.770	1.050
2020/01/31 05:21:20.2	92.050	0.260	-0.730	1.030
2020/01/31 05:21:20.3	92.040	0.280	-0.700	1.010
2020/01/31 05:21:20.4	92.040	0.300	-0.660	0.980
2020/01/31 05:21:20.5	92.030	0.320	-0.610	0.950
2020/01/31 05:21:20.6	92.030	0.330	-0.570	0.930
2020/01/31 05:21:20.7	92.020	0.340	-0.520	0.900
2020/01/31 05:21:20.8	92.020	0.340	-0.470	0.870
2020/01/31 05:21:20.9	92.020	0.350	-0.420	0.830
2020/01/31 05:21:21.0	92.010	0.350	-0.370	0.800
2020/01/31 05:21:21.1	92.010	0.350	-0.310	0.770
2020/01/31 05:21:21.2	92.010	0.340	-0.260	0.730
2020/01/31 05:21:21.3	92.010	0.340	-0.200	0.700
2020/01/31 05:21:21.4	92.010	0.330	-0.150	0.660
2020/01/31 05:21:21.5	92.010	0.320	-0.090	0.630
2020/01/31 05:21:21.6	92.010	0.310	-0.040	0.600
2020/01/31 05:21:21.7	92.010	0.300	0.020	0.570
2020/01/31 05:21:21.8	92.010	0.280	0.070	0.530
2020/01/31 05:21:21.9	92.010	0.270	0.120	0.500
2020/01/31 05:21:22.0	92.010	0.260	0.170	0.480
2020/01/31 05:21:22.1	92.010	0.240	0.220	0.450
2020/01/31 05:21:22.2	92.010	0.220	0.270	0.420
2020/01/31 05:21:22.3	92.010	0.210	0.310	0.390
2020/01/31 05:21:22.4	92.010	0.190	0.350	0.370
2020/01/31 05:21:22.5	92.010	0.180	0.390	0.350
2020/01/31 05:21:22.6	92.010	0.170	0.410	0.330
2020/01/31 05:21:22.7	92.010	0.150	0.440	0.310
2020/01/31 05:21:22.8	92.020	0.140	0.460	0.290
2020/01/31 05:21:22.9	92.020	0.130	0.470	0.270
2020/01/31 05:21:23.0	92.020	0.130	0.470	0.260
2020/01/31 05:21:23.1	92.020	0.120	0.470	0.240
2020/01/31 05:21:23.2	92.030	0.120	0.460	0.220
2020/01/31 05:21:23.3	92.030	0.120	0.450	0.210
2020/01/31 05:21:23.4	92.030	0.120	0.430	0.190
2020/01/31 05:21:23.5	92.040	0.120	0.400	0.180
2020/01/31 05:21:23.6	92.040	0.130	0.360	0.170
2020/01/31 05:21:23.7	92.040	0.140	0.320	0.160
2020/01/31 05:21:23.8	92.050	0.150	0.270	0.150
2020/01/31 05:21:23.9	92.050	0.160	0.220	0.140
2020/01/31 05:21:24.0	92.050	0.170	0.160	0.140
2020/01/31 05:21:24.1	92.060	0.190	0.110	0.130
2020/01/31 05:21:24.2	92.060	0.210	0.040	0.120
2020/01/31 05:21:24.3	92.070	0.220	-0.020	0.110
2020/01/31 05:21:24.4	92.080	0.240	-0.090	0.110
2020/01/31 05:21:24.5	92.090	0.260	-0.150	0.110
2020/01/31 05:21:24.6	92.100	0.280	-0.220	0.110
2020/01/31 05:21:24.7	92.110	0.300	-0.280	0.110
2020/01/31 05:21:24.8	92.120	0.310	-0.340	0.110
2020/01/31 05:21:24.9	92.130	0.330	-0.400	0.110
2020/01/31 05:21:25.0	92.140	0.350	-0.460	0.120
2020/01/31 05:21:25.1	92.150	0.360	-0.510	0.130
2020/01/31 05:21:25.2	92.160	0.370	-0.560	0.140
2020/01/31 05:21:25.3	92.180	0.380	-0.590	0.160
2020/01/31 05:21:25.4	92.190	0.390	-0.630	0.180
2020/01/31 05:21:25.5	92.200	0.390	-0.650	0.200
2020/01/31 05:21:25.6	92.220	0.390	-0.670	0.230
2020/01/31 05:21:25.7	92.230	0.390	-0.690	0.260
2020/01/31 05:21:25.8	92.240	0.390	-0.690	0.290
2020/01/31 05:21:25.9	92.240	0.380	-0.690	0.330
2020/01/31 05:21:26.0	92.250	0.370	-0.680	0.370
2020/01/31 05:21:26.1	92.260	0.360	-0.660	0.420
2020/01/31 05:21:26.2	92.260	0.340	-0.640	0.460
2020/01/31 05:21:26.3	92.260	0.330	-0.610	0.510
2020/01/31 05:21:26.4	92.260	0.310	-0.580	0.560
2020/01/31 05:21:26.5	92.250	0.280	-0.540	0.610
2020/01/31 05:21:26.6	92.250	0.260	-0.490	0.660
2020/01/31 05:21:26.7	92.240	0.230	-0.440	0.710
2020/01/31 05:21:26.8	92.230	0.200	-0.390	0.760
2020/01/31 05:21:26.9	92.220	0.170	-0.330	0.800
2020/01/31 05:21:27.0	92.200	0.140	-0.270	0.850
2020/01/31 05:21:27.1	92.190	0.110	-0.210	0.900
2020/01/31 05:21:27.2	92.170	0.080	-0.150	0.940
2020/01/31 05:21:27.3	92.150	0.050	-0.090	0.980
2020/01/31 05:21:27.4	92.130	0.010	-0.030	1.020
2020/01/31 05:21:27.5	92.120	-0.020	0.030	1.050
2020/01/31 05:21:27.6	92.100	-0.050	0.080	1.080
2020/01/31 05:21:27.7	92.090	-0.080	0.130	1.110
2020/01/31 05:21:27.8	92.080	-0.110	0.170	1.140
2020/01/31 05:21:27.9	92.070	-0.130	0.210	1.160
2020/01/31 05:21:28.0	92.060	-0.160	0.240	1.170
2020/01/31 05:21:28.1	92.050	-0.180	0.260	1.180
2020/01/31 05:21:28.2	92.050	-0.190	0.280	1.190
2020/01/31 05:21:28.3	92.050	-0.210	0.290	1.200
2020/01/31 05:21:28.4	92.050	-0.220	0.280	1.200
2020/01/31 05:21:28.5	92.050	-0.230	0.270	1.200
2020/01/31 05:21:28.6	92.050	-0.230	0.250	1.200
2020/01/31 05:21:28.7	92.060	-0.230	0.230	1.200
2020/01/31 05:21:28.8	92.060	-0.230	0.190	1.200
2020/01/31 05:21:28.9	92.070	-0.220	0.150	1.200
2020/01/31 05:21:29.0	92.070	-0.210	0.100	1.200
2020/01/31 05:21:29.1	92.080	-0.200	0.040	1.200
2020/01/31 05:21:29.2	92.080	-0.180	-0.020	1.200
2020/01/31 05:21:29.3	92.090	-0.160	-0.090	1.210
2020/01/31 05:21:29.4	92.090	-0.140	-0.160	1.210
2020/01/31 05:21:29.5	92.100	-0.110	-0.240	1.210
2020/01/31 05:21:29.6	92.100	-0.090	-0.320	1.210
2020/01/31 05:21:29.7	92.110	-0.060	-0.400	1.210
2020/01/31 05:21:29.8	92.120	-0.030	-0.470	1.210
2020/01/31 05:21:29.9	92.120	0.000	-0.550	1.210
2020/01/31 05:21:30.0	92.130	0.040	-0.630	1.210
2020/01/31 05:21:30.1	92.140	0.070	-0.700	1.210
2020/01/31 05:21:30.2	92.140	0.100	-0.780	1.200
2020/01/31 05:21:30.3	92.150	0.130	-0.840	1.200
2020/01/31 05:21:30.4	92.160	0.160	-0.900	1.190
2020/01/31 05:21:30.5	92.160	0.190	-0.950	1.190
2020/01/31 05:21:30.6	92.170	0.220	-1.000	1.180
2020/01/31 05:21:30.7	92.180	0.240	-1.030	1.170
2020/01/31 05:21:30.8	92.190	0.260	-1.060	1.170
2020/01/31 05:21:30.9	92.190	0.280	-1.080	1.160
2020/01/31 05:21:31.0	92.200	0.290	-1.080	1.150
2020/01/31 05:21:31.1	92.210	0.300	-1.080	1.150
2020/01/31 05:21:31.2	92.220	0.300	-1.060	1.140
2020/01/31 05:21:31.3	92.220	0.300	-1.030	1.140
2020/01/31 05:21:31.4	92.230	0.290	-1.000	1.130
2020/01/31 05:21:31.5	92.230	0.280	-0.950	1.130
2020/01/31 05:21:31.6	92.230	0.260	-0.890	1.130
2020/01/31 05:21:31.7	92.240	0.240	-0.820	1.130
2020/01/31 05:21:31.8	92.240	0.210	-0.730	1.130
2020/01/31 05:21:31.9	92.240	0.170	-0.640	1.130
2020/01/31 05:21:32.0	92.240	0.130	-0.540	1.140
2020/01/31 05:21:32.1	92.230	0.090	-0.440	1.140
2020/01/31 05:21:32.2	92.230	0.030	-0.320	1.150
2020/01/31 05:21:32.3	92.220	-0.020	-0.200	1.150
2020/01/31 05:21:32.4	92.210	-0.080	-0.080	1.160
2020/01/31 05:21:32.5	92.200	-0.150	0.050	1.170
2020/01/31 05:21:32.6	92.190	-0.210	0.170	1.170
2020/01/31 05:21:32.7	92.170	-0.280	0.300	1.180
2020/01/31 05:21:32.8	92.160	-0.350	0.430	1.190
2020/01/31 05:21:32.9	92.140	-0.430	0.550	1.200
2020/01/31 05:21:33.0	92.110	-0.500	0.670	1.210
2020/01/31 05:21:33.1	92.090	-0.570	0.790	1.220
2020/01/31 05:21:33.2	92.070	-0.650	0.890	1.230
2020/01/31 05:21:33.3	92.040	-0.720	0.990	1.240
2020/01/31 05:21:33.4	92.010	-0.780	1.080	1.240
2020/01/31 05:21:33.5	91.980	-0.850	1.150	1.250
2020/01/31 05:21:33.6	91.950	-0.910	1.220	1.250
2020/01/31 05:21:33.7	91.930	-0.960	1.270	1.240
2020/01/31 05:21:33.8	91.900	-1.010	1.310	1.240
2020/01/31 05:21:33.9	91.870	-1.060	1.330	1.230
2020/01/31 05:21:34.0	91.850	-1.090	1.340	1.210
2020/01/31 05:21:34.1	91.830	-1.120	1.330	1.190
2020/01/31 05:21:34.2	91.810	-1.140	1.310	1.160
2020/01/31 05:21:34.3	91.790	-1.150	1.260	1.130
2020/01/31 05:21:34.4	91.780	-1.160	1.210	1.090
2020/01/31 05:21:34.5	91.770	-1.150	1.140	1.040
2020/01/31 05:21:34.6	91.760	-1.140	1.050	0.990
2020/01/31 05:21:34.7	91.750	-1.110	0.950	0.940
2020/01/31 05:21:34.8	91.750	-1.080	0.840	0.880
2020/01/31 05:21:34.9	91.750	-1.040	0.710	0.820
2020/01/31 05:21:35.0	91.750	-0.990	0.570	0.750
2020/01/31 05:21:35.1	91.760	-0.920	0.430	0.680
2020/01/31 05:21:35.2	91.770	-0.860	0.270	0.610
2020/01/31 05:21:35.3	91.780	-0.780	0.100	0.530
2020/01/31 05:21:35.4	91.790	-0.700	-0.060	0.460
2020/01/31 05:21:35.5	91.800	-0.610	-0.240	0.390
2020/01/31 05:21:35.6	91.810	-0.510	-0.410	0.320
2020/01/31 05:21:35.7	91.830	-0.410	-0.580	0.250
2020/01/31 05:21:35.8	91.850	-0.310	-0.750	0.190
2020/01/31 05:21:35.9	91.870	-0.200	-0.920	0.120
2020/01/31 05:21:36.0	91.890	-0.090	-1.080	0.060
2020/01/31 05:21:36.1	91.910	0.020	-1.230	0.010
2020/01/31 05:21:36.2	91.930	0.120	-1.380	-0.050
2020/01/31 05:21:36.3	91.950	0.230	-1.510	-0.090
2020/01/31 05:21:36.4	91.970	0.340	-1.630	-0.130
2020/01/31 05:21:36.5	91.990	0.440	-1.730	-0.170
2020/01/31 05:21:36.6	92.000	0.540	-1.830	-0.190
2020/01/31 05:21:36.7	92.020	0.640	-1.900	-0.210
2020/01/31 05:21:36.8	92.030	0.730	-1.960	-0.230
2020/01/31 05:21:36.9	92.050	0.810	-2.010	-0.230
2020/01/31 05:21:37.0	92.060	0.890	-2.040	-0.230
2020/01/31 05:21:37.1	92.070	0.960	-2.050	-0.230
2020/01/31 05:21:37.2	92.070	1.020	-2.040	-0.210
2020/01/31 05:21:37.3	92.080	1.070	-2.020	-0.200
2020/01/31 05:21:37.4	92.080	1.120	-1.980	-0.170
2020/01/31 05:21:37.5	92.080	1.160	-1.930	-0.140
2020/01/31 05:21:37.6	92.070	1.190	-1.860	-0.110
2020/01/31 05:21:37.7	92.070	1.210	-1.780	-0.070
2020/01/31 05:21:37.8	92.060	1.220	-1.690	-0.030
2020/01/31 05:21:37.9	92.040	1.220	-1.580	0.010
2020/01/31 05:21:38.0	92.030	1.210	-1.470	0.060
2020/01/31 05:21:38.1	92.010	1.200	-1.350	0.110
2020/01/31 05:21:38.2	91.990	1.180	-1.220	0.160
2020/01/31 05:21:38.3	91.970	1.150	-1.080	0.220
2020/01/31 05:21:38.4	91.940	1.110	-0.940	0.270
2020/01/31 05:21:38.5	91.920	1.070	-0.800	0.320
2020/01/31 05:21:38.6	91.890	1.020	-0.660	0.380
2020/01/31 05:21:38.7	91.860	0.970	-0.520	0.430
2020/01/31 05:21:38.8	91.830	0.910	-0.370	0.490
2020/01/31 05:21:38.9	91.800	0.850	-0.230	0.540
2020/01/31 05:21:39.0	91.770	0.780	-0.100	0.590
2020/01/31 05:21:39.1	91.740	0.720	0.040	0.640
2020/01/31 05:21:39.2	91.710	0.650	0.170	0.680
2020/01/31 05:21:39.3	91.680	0.570	0.290	0.720
2020/01/31 05:21:39.4	91.660	0.500	0.400	0.760
2020/01/31 05:21:39.5	91.630	0.430	0.510	0.800
2020/01/31 05:21:39.6	91.610	0.350	0.610	0.840
2020/01/31 05:21:39.7	91.590	0.280	0.700	0.870
2020/01/31 05:21:39.8	91.570	0.210	0.780	0.900
2020/01/31 05:21:39.9	91.550	0.140	0.850	0.920
2020/01/31 05:21:40.0	91.540	0.070	0.910	0.940
2020/01/31 05:21:40.1	91.530	0.000	0.970	0.960
2020/01/31 05:21:40.2	91.520	-0.060	1.010	0.970
2020/01/31 05:21:40.3	91.510	-0.120	1.040	0.990
2020/01/31 05:21:40.4	91.510	-0.180	1.070	0.990
2020/01/31 05:21:40.5	91.500	-0.240	1.080	1.000
2020/01/31 05:21:40.6	91.500	-0.290	1.090	1.010
2020/01/31 05:21:40.7	91.500	-0.340	1.080	1.010
2020/01/31 05:21:40.8	91.510	-0.380	1.070	1.010
2020/01/31 05:21:40.9	91.510	-0.420	1.050	1.020
2020/01/31 05:21:41.0	91.520	-0.450	1.030	1.020
2020/01/31 05:21:41.1	91.520	-0.480	0.990	1.010
2020/01/31 05:21:41.2	91.530	-0.510	0.960	1.010
2020/01/31 05:21:41.3	91.550	-0.530	0.910	1.010
2020/01/31 05:21:41.4	91.560	-0.550	0.860	1.000
2020/01/31 05:21:41.5	91.570	-0.560	0.810	0.990
2020/01/31 05:21:41.6	91.590	-0.570	0.750	0.990
2020/01/31 05:21:41.7	91.610	-0.580	0.690	0.980
2020/01/31 05:21:41.8	91.620	-0.580	0.630	0.960
2020/01/31 05:21:41.9	91.640	-0.570	0.560	0.950
2020/01/31 05:21:42.0	91.670	-0.570	0.490	0.940
2020/01/31 05:21:42.1	91.690	-0.560	0.420	0.920
2020/01/31 05:21:42.2	91.720	-0.540	0.340	0.900
2020/01/31 05:21:42.3	91.740	-0.520	0.260	0.880
2020/01/31 05:21:42.4	91.780	-0.500	0.190	0.850
2020/01/31 05:21:42.5	91.810	-0.480	0.110	0.830
2020/01/31 05:21:42.6	91.840	-0.450	0.030	0.800
2020/01/31 05:21:42.7	91.880	-0.420	-0.040	0.770
2020/01/31 05:21:42.8	91.920	-0.380	-0.120	0.740
2020/01/31 05:21:42.9	91.950	-0.350	-0.200	0.710
2020/01/31 05:21:43.0	91.990	-0.310	-0.270	0.680
2020/01/31 05:21:43.1	92.030	-0.270	-0.340	0.650
2020/01/31 05:21:43.2	92.060	-0.230	-0.410	0.620
2020/01/31 05:21:43.3	92.100	-0.190	-0.480	0.600
2020/01/31 05:21:43.4	92.140	-0.140	-0.550	0.570
2020/01/31 05:21:43.5	92.170	-0.100	-0.610	0.550
2020/01/31 05:21:43.6	92.200	-0.050	-0.670	0.540
2020/01/31 05:21:43.7	92.230	-0.010	-0.730	0.530
2020/01/31 05:21:43.8	92.260	0.040	-0.790	0.520
2020/01/31 05:21:43.9	92.280	0.080	-0.840	0.520
2020/01/31 05:21:44.0	92.310	0.120	-0.880	0.520
2020/01/31 05:21:44.1	92.330	0.170	-0.920	0.530
2020/01/31 05:21:44.2	92.340	0.210	-0.970	0.530
2020/01/31 05:21:44.3	92.350	0.240	-1.000	0.550
2020/01/31 05:21:44.4	92.370	0.280	-1.020	0.570
2020/01/31 05:21:44.5	92.380	0.310	-1.040	0.600
2020/01/31 05:21:44.6	92.380	0.340	-1.050	0.630
2020/01/31 05:21:44.7	92.390	0.370	-1.060	0.660
2020/01/31 05:21:44.8	92.390	0.390	-1.060	0.690
2020/01/31 05:21:44.9	92.390	0.410	-1.050	0.730
2020/01/31 05:21:45.0	92.380	0.420	-1.040	0.770
2020/01/31 05:21:45.1	92.380	0.430	-1.010	0.810
2020/01/31 05:21:45.2	92.360	0.430	-0.980	0.850
2020/01/31 05:21:45.3	92.350	0.430	-0.940	0.880
2020/01/31 05:21:45.4	92.340	0.430	-0.900	0.920
2020/01/31 05:21:45.5	92.330	0.410	-0.850	0.960
2020/01/31 05:21:45.6	92.310	0.400	-0.800	0.990
2020/01/31 05:21:45.7	92.290	0.380	-0.740	1.020
2020/01/31 05:21:45.8	92.270	0.350	-0.680	1.050
2020/01/31 05:21:45.9	92.250	0.330	-0.610	1.080
2020/01/31 05:21:46.0	92.230	0.290	-0.540	1.100
2020/01/31 05:21:46.1	92.200	0.260	-0.470	1.120
2020/01/31 05:21:46.2	92.180	0.220	-0.400	1.130
2020/01/31 05:21:46.3	92.160	0.170	-0.320	1.150
2020/01/31 05:21:46.4	92.130	0.130	-0.250	1.160
2020/01/31 05:21:46.5	92.110	0.080	-0.180	1.170
2020/01/31 05:21:46.6	92.080	0.040	-0.110	1.170
2020/01/31 05:21:46.7	92.050	-0.010	-0.040	1.170
2020/01/31 05:21:46.8	92.030	-0.060	0.030	1.170
2020/01/31 05:21:46.9	92.010	-0.110	0.080	1.170
2020/01/31 05:21:47.0	91.980	-0.150	0.140	1.170
2020/01/31 05:21:47.1	91.960	-0.200	0.190	1.160
2020/01/31 05:21:47.2	91.940	-0.240	0.230	1.150
2020/01/31 05:21:47.3	91.920	-0.280	0.260	1.130
2020/01/31 05:21:47.4	91.900	-0.310	0.290	1.120
2020/01/31 05:21:47.5	91.890	-0.350	0.310	1.100
2020/01/31 05:21:47.6	91.870	-0.380	0.330	1.090
2020/01/31 05:21:47.7	91.860	-0.400	0.330	1.070
2020/01/31 05:21:47.8	91.850	-0.420	0.330	1.040
2020/01/31 05:21:47.9	91.850	-0.440	0.320	1.020
2020/01/31 05:21:48.0	91.840	-0.450	0.300	1.000
2020/01/31 05:21:48.1	91.840	-0.460	0.280	0.970
2020/01/31 05:21:48.2	91.840	-0.460	0.260	0.940
2020/01/31 05:21:48.3	91.850	-0.460	0.220	0.910
2020/01/31 05:21:48.4	91.850	-0.450	0.180	0.880
2020/01/31 05:21:48.5	91.860	-0.440	0.140	0.840
2020/01/31 05:21:48.6	91.870	-0.430	0.100	0.810
2020/01/31 05:21:48.7	91.880	-0.410	0.050	0.770
2020/01/31 05:21:48.8	91.890	-0.400	0.000	0.740
2020/01/31 05:21:48.9	91.900	-0.370	-0.050	0.700
2020/01/31 05:21:49.0	91.920	-0.350	-0.100	0.670
2020/01/31 05:21:49.1	91.930	-0.330	-0.150	0.630
2020/01/31 05:21:49.2	91.940	-0.300	-0.200	0.590
2020/01/31 05:21:49.3	91.960	-0.270	-0.250	0.550
2020/01/31 05:21:49.4	91.970	-0.240	-0.300	0.520
2020/01/31 05:21:49.5	91.990	-0.220	-0.340	0.480
2020/01/31 05:21:49.6	92.000	-0.190	-0.390	0.440
2020/01/31 05:21:49.7	92.010	-0.160	-0.420	0.410
2020/01/31 05:21:49.8	92.020	-0.130	-0.460	0.370
2020/01/31 05:21:49.9	92.030	-0.110	-0.490	0.340
2020/01/31 05:21:50.0	92.040	-0.090	-0.510	0.310
2020/01/31 05:21:50.1	92.050	-0.070	-0.530	0.290
2020/01/31 05:21:50.2	92.060	-0.050	-0.540	0.260
2020/01/31 05:21:50.3	92.070	-0.030	-0.550	0.240
2020/01/31 05:21:50.4	92.070	-0.020	-0.550	0.230
2020/01/31 05:21:50.5	92.070	-0.000	-0.550	0.220
2020/01/31 05:21:50.6	92.080	0.000	-0.540	0.210
2020/01/31 05:21:50.7	92.080	0.010	-0.520	0.210
2020/01/31 05:21:50.8	92.070	0.020	-0.500	0.210
2020/01/31 05:21:50.9	92.070	0.020	-0.470	0.210
2020/01/31 05:21:51.0	92.070	0.020	-0.440	0.220
2020/01/31 05:21:51.1	92.060	0.010	-0.400	0.230
2020/01/31 05:21:51.2	92.050	0.010	-0.350	0.240
2020/01/31 05:21:51.3	92.040	0.000	-0.310	0.260
2020/01/31 05:21:51.4	92.040	-0.000	-0.260	0.280
2020/01/31 05:21:51.5	92.020	-0.010	-0.210	0.290
2020/01/31 05:21:51.6	92.010	-0.020	-0.160	0.310
2020/01/31 05:21:51.7	92.000	-0.030	-0.100	0.330
2020/01/31 05:21:51.8	91.990	-0.040	-0.050	0.350
2020/01/31 05:21:51.9	91.980	-0.050	-0.000	0.360
2020/01/31 05:21:52.0	91.960	-0.050	0.040	0.380
2020/01/31 05:21:52.1	91.950	-0.060	0.080	0.390
2020/01/31 05:21:52.2	91.940	-0.060	0.120	0.400
2020/01/31 05:21:52.3	91.920	-0.070	0.150	0.410
2020/01/31 05:21:52.4	91.920	-0.060	0.180	0.410
2020/01/31 05:21:52.5	91.910	-0.060	0.190	0.410
2020/01/31 05:21:52.6	91.900	-0.050	0.200	0.410
2020/01/31 05:21:52.7	91.900	-0.040	0.200	0.410
2020/01/31 05:21:52.8	91.900	-0.030	0.190	0.400
2020/01/31 05:21:52.9	91.900	-0.000	0.170	0.390
2020/01/31 05:21:53.0	91.910	0.020	0.140	0.380
2020/01/31 05:21:53.1	91.910	0.050	0.110	0.360
2020/01/31 05:21:53.2	91.920	0.080	0.060	0.340
2020/01/31 05:21:53.3	91.930	0.120	0.000	0.330
2020/01/31 05:21:53.4	91.950	0.160	-0.060	0.310
2020/01/31 05:21:53.5	91.960	0.210	-0.130	0.290
2020/01/31 05:21:53.6	91.980	0.260	-0.210	0.270
2020/01/31 05:21:53.7	92.000	0.310	-0.290	0.250
2020/01/31 05:21:53.8	92.030	0.360	-0.370	0.240
2020/01/31 05:21:53.9	92.050	0.410	-0.450	0.220
2020/01/31 05:21:54.0	92.070	0.470	-0.540	0.210
2020/01/31 05:21:54.1	92.090	0.520	-0.620	0.200
2020/01/31 05:21:54.2	92.120	0.570	-0.700	0.180
2020/01/31 05:21:54.3	92.140	0.620	-0.770	0.180
2020/01/31 05:21:54.4	92.160	0.660	-0.830	0.170
2020/01/31 05:21:54.5	92.170	0.700	-0.880	0.170
2020/01/31 05:21:54.6	92.190	0.740	-0.920	0.180
2020/01/31 05:21:54.7	92.200	0.770	-0.960	0.180
2020/01/31 05:21:54.8	92.210	0.790	-0.980	0.190
2020/01/31 05:21:54.9	92.220	0.810	-0.980	0.200
2020/01/31 05:21:55.0	92.220	0.820	-0.980	0.210
2020/01/31 05:21:55.1	92.220	0.820	-0.960	0.220
2020/01/31 05:21:55.2	92.220	0.810	-0.920	0.240
2020/01/31 05:21:55.3	92.220	0.800	-0.870	0.260
2020/01/31 05:21:55.4	92.220	0.770	-0.820	0.280
2020/01/31 05:21:55.5	92.210	0.740	-0.750	0.300
2020/01/31 05:21:55.6	92.200	0.700	-0.670	0.320
2020/01/31 05:21:55.7	92.190	0.650	-0.580	0.350
2020/01/31 05:21:55.8	92.180	0.600	-0.480	0.370
2020/01/31 05:21:55.9	92.160	0.540	-0.380	0.400
2020/01/31 05:21:56.0	92.150	0.470	-0.270	0.430
2020/01/31 05:21:56.1	92.130	0.400	-0.150	0.470
2020/01/31 05:21:56.2	92.110	0.320	-0.030	0.500
2020/01/31 05:21:56.3	92.090	0.230	0.090	0.540
2020/01/31 05:21:56.4	92.070	0.150	0.200	0.580
2020/01/31 05:21:56.5	92.050	0.060	0.320	0.620
2020/01/31 05:21:56.6	92.030	-0.030	0.430	0.660
2020/01/31 05:21:56.7	92.010	-0.130	0.540	0.700
2020/01/31 05:21:56.8	91.990	-0.220	0.640	0.740
2020/01/31 05:21:56.9	91.980	-0.300	0.730	0.770
2020/01/31 05:21:57.0	91.960	-0.390	0.810	0.810
2020/01/31 05:21:57.1	91.950	-0.470	0.880	0.850
2020/01/31 05:21:57.2	91.940	-0.550	0.940	0.880
2020/01/31 05:21:57.3	91.920	-0.620	0.980	0.910
2020/01/31 05:21:57.4	91.920	-0.690	1.000	0.940
2020/01/31 05:21:57.5	91.910	-0.750	1.010	0.970
2020/01/31 05:21:57.6	91.910	-0.790	1.010	0.990
2020/01/31 05:21:57.7	91.910	-0.830	0.990	1.010
2020/01/31 05:21:57.8	91.910	-0.860	0.950	1.030
2020/01/31 05:21:57.9	91.910	-0.890	0.890	1.040
2020/01/31 05:21:58.0	91.920	-0.900	0.820	1.040
2020/01/31 05:21:58.1	91.920	-0.900	0.740	1.050
2020/01/31 05:21:58.2	91.930	-0.890	0.640	1.040
2020/01/31 05:21:58.3	91.950	-0.870	0.530	1.040
2020/01/31 05:21:58.4	91.960	-0.840	0.410	1.030
2020/01/31 05:21:58.5	91.970	-0.810	0.290	1.020
2020/01/31 05:21:58.6	91.990	-0.760	0.150	1.000
2020/01/31 05:21:58.7	92.000	-0.710	0.010	0.990
2020/01/31 05:21:58.8	92.020	-0.650	-0.130	0.970
2020/01/31 05:21:58.9	92.030	-0.590	-0.280	0.960
2020/01/31 05:21:59.0	92.050	-0.520	-0.430	0.940
2020/01/31 05:21:59.1	92.060	-0.440	-0.570	0.930
2020/01/31 05:21:59.2	92.060	-0.370	-0.710	0.910
2020/01/31 05:21:59.3	92.070	-0.290	-0.840	0.890
2020/01/31 05:21:59.4	92.070	-0.210	-0.970	0.880
2020/01/31 05:21:59.5	92.070	-0.130	-1.080	0.870
2020/01/31 05:21:59.6	92.070	-0.050	-1.190	0.850
2020/01/31 05:21:59.7	92.070	0.030	-1.280	0.840
2020/01/31 05:21:59.8	92.070	0.100	-1.360	0.830
2020/01/31 05:21:59.9	92.060	0.180	-1.430	0.810
2020/01/31 05:22:00.0	92.060	0.250	-1.480	0.800
2020/01/31 05:22:00.1	92.050	0.310	-1.510	0.790
2020/01/31 05:22:00.2	92.050	0.370	-1.530	0.790
2020/01/31 05:22:00.3	92.040	0.420	-1.540	0.780
2020/01/31 05:22:00.4	92.030	0.470	-1.530	0.780
2020/01/31 05:22:00.5	92.020	0.510	-1.500	0.780
2020/01/31 05:22:00.6	92.010	0.550	-1.460	0.780
2020/01/31 05:22:00.7	91.990	0.570	-1.400	0.790
2020/01/31 05:22:00.8	91.980	0.590	-1.330	0.800
2020/01/31 05:22:00.9	91.960	0.610	-1.250	0.810
2020/01/31 05:22:01.0	91.940	0.610	-1.150	0.820
2020/01/31 05:22:01.1	91.930	0.610	-1.050	0.830
2020/01/31 05:22:01.2	91.910	0.610	-0.930	0.840
2020/01/31 05:22:01.3	91.890	0.590	-0.810	0.860
2020/01/31 05:22:01.4	91.880	0.570	-0.680	0.870
2020/01/31 05:22:01.5	91.860	0.550	-0.550	0.890
2020/01/31 05:22:01.6	91.840	0.510	-0.410	0.900
2020/01/31 05:22:01.7	91.830	0.480	-0.280	0.920
2020/01/31 05:22:01.8	91.820	0.440	-0.140	0.930
2020/01/31 05:22:01.9	91.800	0.400	-0.010	0.940
2020/01/31 05:22:02.0	91.790	0.350	0.120	0.950
2020/01/31 05:22:02.1	91.780	0.300	0.240	0.960
2020/01/31 05:22:02.2	91.770	0.250	0.360	0.960
2020/01/31 05:22:02.3	91.760	0.200	0.470	0.960
2020/01/31 05:22:02.4	91.760	0.150	0.570	0.950
2020/01/31 05:22:02.5	91.750	0.090	0.670	0.940
2020/01/31 05:22:02.6	91.750	0.040	0.750	0.930
2020/01/31 05:22:02.7	91.740	-0.010	0.820	0.910
2020/01/31 05:22:02.8	91.740	-0.060	0.880	0.890
2020/01/31 05:22:02.9	91.740	-0.110	0.930	0.860
2020/01/31 05:22:03.0	91.750	-0.160	0.970	0.830
2020/01/31 05:22:03.1	91.750	-0.210	1.000	0.790
2020/01/31 05:22:03.2	91.750	-0.250	1.020	0.750
2020/01/31 05:22:03.3	91.760	-0.290	1.020	0.710
2020/01/31 05:22:03.4	91.760	-0.330	1.010	0.670
2020/01/31 05:22:03.5	91.770	-0.360	0.990	0.630
2020/01/31 05:22:03.6	91.770	-0.390	0.960	0.580
2020/01/31 05:22:03.7	91.780	-0.420	0.920	0.540
2020/01/31 05:22:03.8	91.780	-0.440	0.870	0.500
2020/01/31 05:22:03.9	91.790	-0.460	0.800	0.460
2020/01/31 05:22:04.0	91.790	-0.470	0.730	0.420
2020/01/31 05:22:04.1	91.800	-0.480	0.660	0.380
2020/01/31 05:22:04.2	91.800	-0.490	0.570	0.340
2020/01/31 05:22:04.3	91.800	-0.490	0.470	0.310
2020/01/31 05:22:04.4	91.810	-0.490	0.380	0.280
2020/01/31 05:22:04.5	91.810	-0.480	0.270	0.260
2020/01/31 05:22:04.6	91.820	-0.470	0.170	0.230
2020/01/31 05:22:04.7	91.820	-0.450	0.060	0.220
2020/01/31 05:22:04.8	91.830	-0.430	-0.050	0.200
2020/01/31 05:22:04.9	91.840	-0.400	-0.160	0.190
2020/01/31 05:22:05.0	91.840	-0.380	-0.270	0.180
2020/01/31 05:22:05.1	91.850	-0.350	-0.380	0.180
2020/01/31 05:22:05.2	91.860	-0.310	-0.490	0.180
2020/01/31 05:22:05.3	91.870	-0.280	-0.590	0.180
2020/01/31 05:22:05.4	91.880	-0.240	-0.690	0.190
2020/01/31 05:22:05.5	91.890	-0.200	-0.780	0.200
2020/01/31 05:22:05.6	91.900	-0.160	-0.870	0.210
2020/01/31 05:22:05.7	91.910	-0.120	-0.950	0.220
2020/01/31 05:22:05.8	91.930	-0.080	-1.020	0.240
2020/01/31 05:22:05.9	91.940	-0.040	-1.090	0.250
2020/01/31 05:22:06.0	91.960	0.010	-1.140	0.270
2020/01/31 05:22:06.1	91.970	0.050	-1.190	0.290
2020/01/31 05:22:06.2	91.990	0.080	-1.240	0.310
2020/01/31 05:22:06.3	92.010	0.120	-1.270	0.330
2020/01/31 05:22:06.4	92.030	0.160	-1.300	0.350
2020/01/31 05:22:06.5	92.050	0.190	-1.310	0.370
2020/01/31 05:22:06.6	92.070	0.220	-1.320	0.390
2020/01/31 05:22:06.7	92.090	0.250	-1.320	0.410
2020/01/31 05:22:06.8	92.110	0.270	-1.320	0.430
2020/01/31 05:22:06.9	92.130	0.290	-1.300	0.460
2020/01/31 05:22:07.0	92.150	0.310	-1.280	0.480
2020/01/31 05:22:07.1	92.170	0.330	-1.250	0.510
2020/01/31 05:22:07.2	92.190	0.340	-1.210	0.540
2020/01/31 05:22:07.3	92.220	0.350	-1.170	0.570
2020/01/31 05:22:07.4	92.240	0.360	-1.120	0.600
2020/01/31 05:22:07.5	92.250	0.360	-1.070	0.630
2020/01/31 05:22:07.6	92.270	0.360	-1.010	0.670
2020/01/31 05:22:07.7	92.290	0.360	-0.950	0.700
2020/01/31 05:22:07.8	92.310	0.350	-0.880	0.740
2020/01/31 05:22:07.9	92.320	0.340	-0.810	0.780
2020/01/31 05:22:08.0	92.330	0.330	-0.730	0.820
2020/01/31 05:22:08.1	92.340	0.310	-0.650	0.860
2020/01/31 05:22:08.2	92.350	0.290	-0.570	0.910
2020/01/31 05:22:08.3	92.360	0.270	-0.480	0.950
2020/01/31 05:22:08.4	92.360	0.250	-0.400	0.990
2020/01/31 05:22:08.5	92.370	0.230	-0.310	1.030
2020/01/31 05:22:08.6	92.370	0.200	-0.220	1.060
2020/01/31 05:22:08.7	92.370	0.170	-0.130	1.100
2020/01/31 05:22:08.8	92.370	0.140	-0.040	1.130
2020/01/31 05:22:08.9	92.360	0.110	0.050	1.160
2020/01/31 05:22:09.0	92.360	0.080	0.140	1.190
2020/01/31 05:22:09.1	92.350	0.050	0.230	1.220
2020/01/31 05:22:09.2	92.340	0.020	0.310	1.240
2020/01/31 05:22:09.3	92.330	-0.010	0.390	1.260
2020/01/31 05:22:09.4	92.310	-0.040	0.470	1.280
2020/01/31 05:22:09.5	92.290	-0.060	0.530	1.300
2020/01/31 05:22:09.6	92.270	-0.090	0.600	1.310
2020/01/31 05:22:09.7	92.250	-0.120	0.650	1.320
2020/01/31 05:22:09.8	92.230	-0.140	0.700	1.330
2020/01/31 05:22:09.9	92.210	-0.160	0.740	1.330
2020/01/31 05:22:10.0	92.190	-0.180	0.770	1.330
2020/01/31 05:22:10.1	92.170	-0.190	0.790	1.330
2020/01/31 05:22:10.2	92.150	-0.200	0.800	1.320
2020/01/31 05:22:10.3	92.130	-0.210	0.800	1.310
2020/01/31 05:22:10.4	92.110	-0.220	0.790	1.300
2020/01/31 05:22:10.5	92.100	-0.220	0.780	1.280
2020/01/31 05:22:10.6	92.090	-0.220	0.750	1.260
2020/01/31 05:22:10.7	92.080	-0.210	0.720	1.230
2020/01/31 05:22:10.8	92.070	-0.200	0.670	1.200
2020/01/31 05:22:10.9	92.060	-0.190	0.620	1.170
2020/01/31 05:22:11.0	92.060	-0.180	0.570	1.130
2020/01/31 05:22:11.1	92.060	-0.160	0.500	1.090
2020/01/31 05:22:11.2	92.060	-0.150	0.430	1.050
2020/01/31 05:22:11.3	92.070	-0.130	0.360	1.010
2020/01/31 05:22:11.4	92.070	-0.110	0.280	0.970
2020/01/31 05:22:11.5	92.080	-0.080	0.200	0.920
2020/01/31 05:22:11.6	92.090	-0.060	0.120	0.880
2020/01/31 05:22:11.7	92.100	-0.040	0.040	0.840
2020/01/31 05:22:11.8	92.100	-0.010	-0.040	0.790
2020/01/31 05:22:11.9	92.110	0.010	-0.120	0.750
2020/01/31 05:22:12.0	92.120	0.040	-0.190	0.700
2020/01/31 05:22:12.1	92.140	0.060	-0.270	0.660
2020/01/31 05:22:12.2	92.140	0.080	-0.340	0.610
2020/01/31 05:22:12.3	92.160	0.100	-0.400	0.560
2020/01/31 05:22:12.4	92.170	0.120	-0.460	0.520
2020/01/31 05:22:12.5	92.180	0.130	-0.510	0.470
2020/01/31 05:22:12.6	92.190	0.150	-0.550	0.420
2020/01/31 05:22:12.7	92.200	0.160	-0.590	0.370
2020/01/31 05:22:12.8	92.220	0.170	-0.620	0.320
2020/01/31 05:22:12.9	92.230	0.180	-0.640	0.270
2020/01/31 05:22:13.0	92.240	0.180	-0.650	0.220
2020/01/31 05:22:13.1	92.260	0.180	-0.660	0.170
2020/01/31 05:22:13.2	92.270	0.180	-0.660	0.120
2020/01/31 05:22:13.3	92.290	0.180	-0.650	0.070
2020/01/31 05:22:13.4	92.300	0.180	-0.640	0.030
2020/01/31 05:22:13.5	92.320	0.170	-0.620	-0.020
2020/01/31 05:22:13.6	92.340	0.160	-0.590	-0.060
2020/01/31 05:22:13.7	92.350	0.150	-0.560	-0.100
2020/01/31 05:22:13.8	92.370	0.140	-0.530	-0.140
2020/01/31 05:22:13.9	92.390	0.120	-0.490	-0.170
2020/01/31 05:22:14.0	92.410	0.110	-0.440	-0.200
2020/01/31 05:22:14.1	92.420	0.090	-0.400	-0.220
2020/01/31 05:22:14.2	92.440	0.080	-0.350	-0.250
2020/01/31 05:22:14.3	92.460	0.060	-0.310	-0.260
2020/01/31 05:22:14.4	92.480	0.050	-0.260	-0.270
2020/01/31 05:22:14.5	92.500	0.030	-0.220	-0.280
2020/01/31 05:22:14.6	92.530	0.020	-0.180	-0.280
2020/01/31 05:22:14.7	92.550	0.000	-0.140	-0.270
2020/01/31 05:22:14.8	92.570	-0.010	-0.110	-0.260
2020/01/31 05:22:14.9	92.590	-0.020	-0.080	-0.240
2020/01/31 05:22:15.0	92.620	-0.030	-0.050	-0.220
2020/01/31 05:22:15.1	92.640	-0.040	-0.030	-0.200
2020/01/31 05:22:15.2	92.670	-0.040	-0.020	-0.170
2020/01/31 05:22:15.3	92.690	-0.040	-0.010	-0.140
2020/01/31 05:22:15.4	92.720	-0.040	-0.010	-0.110
2020/01/31 05:22:15.5	92.750	-0.040	-0.010	-0.080
2020/01/31 05:22:15.6	92.780	-0.040	-0.020	-0.050
2020/01/31 05:22:15.7	92.810	-0.030	-0.030	-0.010
2020/01/31 05:22:15.8	92.840	-0.020	-0.050	0.020
2020/01/31 05:22:15.9	92.880	-0.010	-0.080	0.050
2020/01/31 05:22:16.0	92.910	-0.000	-0.110	0.090
2020/01/31 05:22:16.1	92.940	0.010	-0.150	0.120
2020/01/31 05:22:16.2	92.970	0.030	-0.190	0.150
2020/01/31 05:22:16.3	93.010	0.040	-0.230	0.190
2020/01/31 05:22:16.4	93.040	0.060	-0.280	0.220
2020/01/31 05:22:16.5	93.080	0.080	-0.320	0.250
2020/01/31 05:22:16.6	93.110	0.090	-0.370	0.290
2020/01/31 05:22:16.7	93.140	0.110	-0.420	0.320
2020/01/31 05:22:16.8	93.170	0.130	-0.470	0.360
2020/01/31 05:22:16.9	93.200	0.140	-0.510	0.400
2020/01/31 05:22:17.0	93.230	0.160	-0.560	0.440
2020/01/31 05:22:17.1	93.260	0.170	-0.600	0.480
2020/01/31 05:22:17.2	93.280	0.190	-0.640	0.530
2020/01/31 05:22:17.3	93.300	0.200	-0.680	0.570
2020/01/31 05:22:17.4	93.310	0.210	-0.710	0.620
2020/01/31 05:22:17.5	93.320	0.220	-0.740	0.670
2020/01/31 05:22:17.6	93.330	0.220	-0.760	0.730
2020/01/31 05:22:17.7	93.330	0.220	-0.780	0.780
2020/01/31 05:22:17.8	93.330	0.220	-0.790	0.840
2020/01/31 05:22:17.9	93.320	0.220	-0.800	0.900
2020/01/31 05:22:18.0	93.300	0.220	-0.800	0.970
2020/01/31 05:22:18.1	93.280	0.210	-0.790	1.030
2020/01/31 05:22:18.2	93.260	0.200	-0.770	1.100
2020/01/31 05:22:18.3	93.230	0.180	-0.750	1.170
2020/01/31 05:22:18.4	93.190	0.160	-0.720	1.240
2020/01/31 05:22:18.5	93.150	0.140	-0.680	1.310
2020/01/31 05:22:18.6	93.110	0.120	-0.640	1.370
2020/01/31 05:22:18.7	93.060	0.090	-0.590	1.440
2020/01/31 05:22:18.8	93.010	0.060	-0.530	1.500
2020/01/31 05:22:18.9	92.960	0.030	-0.470	1.550
2020/01/31 05:22:19.0	92.910	-0.010	-0.410	1.600
2020/01/31 05:22:19.1	92.860	-0.040	-0.340	1.650
2020/01/31 05:22:19.2	92.800	-0.080	-0.270	1.690
2020/01/31 05:22:19.3	92.750	-0.120	-0.200	1.720
2020/01/31 05:22:19.4	92.690	-0.160	-0.130	1.750
2020/01/31 05:22:19.5	92.640	-0.200	-0.050	1.770
2020/01/31 05:22:19.6	92.580	-0.240	0.020	1.780
2020/01/31 05:22:19.7	92.530	-0.280	0.090	1.780
2020/01/31 05:22:19.8	92.490	-0.320	0.160	1.780
2020/01/31 05:22:19.9	92.440	-0.360	0.220	1.760
2020/01/31 05:22:20.0	92.400	-0.390	0.280	1.740
2020/01/31 05:22:20.1	92.370	-0.430	0.340	1.710
2020/01/31 05:22:20.2	92.330	-0.460	0.390	1.660
2020/01/31 05:22:20.3	92.310	-0.490	0.430	1.620
2020/01/31 05:22:20.4	92.280	-0.510	0.470	1.570
2020/01/31 05:22:20.5	92.260	-0.540	0.500	1.510
2020/01/31 05:22:20.6	92.250	-0.550	0.520	1.450
2020/01/31 05:22:20.7	92.230	-0.570	0.540	1.380
2020/01/31 05:22:20.8	92.220	-0.580	0.540	1.310
2020/01/31 05:22:20.9	92.210	-0.580	0.540	1.240
2020/01/31 05:22:21.0	92.210	-0.580	0.530	1.170
2020/01/31 05:22:21.1	92.210	-0.570	0.510	1.090
2020/01/31 05:22:21.2	92.210	-0.560	0.490	1.020
2020/01/31 05:22:21.3	92.210	-0.540	0.460	0.940
2020/01/31 05:22:21.4	92.220	-0.520	0.420	0.870
2020/01/31 05:22:21.5	92.220	-0.490	0.370	0.800
2020/01/31 05:22:21.6	92.230	-0.460	0.310	0.730
2020/01/31 05:22:21.7	92.240	-0.420	0.250	0.660
2020/01/31 05:22:21.8	92.260	-0.380	0.180	0.590
2020/01/31 05:22:21.9	92.270	-0.330	0.100	0.520
2020/01/31 05:22:22.0	92.290	-0.280	0.020	0.450
2020/01/31 05:22:22.1	92.320	-0.230	-0.070	0.390
2020/01/31 05:22:22.2	92.340	-0.170	-0.160	0.320
2020/01/31 05:22:22.3	92.370	-0.110	-0.250	0.250
2020/01/31 05:22:22.4	92.400	-0.050	-0.340	0.180
2020/01/31 05:22:22.5	92.430	0.020	-0.440	0.110
2020/01/31 05:22:22.6	92.470	0.080	-0.530	0.040
2020/01/31 05:22:22.7	92.500	0.150	-0.620	-0.030
2020/01/31 05:22:22.8	92.550	0.210	-0.710	-0.090
2020/01/31 05:22:22.9	92.590	0.270	-0.790	-0.160
2020/01/31 05:22:23.0	92.630	0.330	-0.870	-0.220
2020/01/31 05:22:23.1	92.680	0.390	-0.940	-0.280
2020/01/31 05:22:23.2	92.720	0.450	-1.010	-0.340
2020/01/31 05:22:23.3	92.770	0.500	-1.070	-0.390
2020/01/31 05:22:23.4	92.810	0.540	-1.110	-0.440
2020/01/31 05:22:23.5	92.860	0.580	-1.150	-0.480
2020/01/31 05:22:23.6	92.900	0.620	-1.180	-0.510
2020/01/31 05:22:23.7	92.940	0.650	-1.190	-0.530
2020/01/31 05:22:23.8	92.990	0.670	-1.200	-0.550
2020/01/31 05:22:23.9	93.020	0.690	-1.190	-0.560
2020/01/31 05:22:24.0	93.060	0.700	-1.160	-0.560
2020/01/31 05:22:24.1	93.100	0.700	-1.130	-0.550
2020/01/31 05:22:24.2	93.130	0.690	-1.080	-0.530
2020/01/31 05:22:24.3	93.160	0.680	-1.020	-0.510
2020/01/31 05:22:24.4	93.180	0.660	-0.950	-0.470
2020/01/31 05:22:24.5	93.210	0.630	-0.870	-0.430
2020/01/31 05:22:24.6	93.230	0.600	-0.780	-0.390
2020/01/31 05:22:24.7	93.240	0.560	-0.670	-0.340
2020/01/31 05:22:24.8	93.250	0.510	-0.560	-0.280
2020/01/31 05:22:24.9	93.270	0.460	-0.450	-0.220
2020/01/31 05:22:25.0	93.270	0.400	-0.330	-0.160
2020/01/31 05:22:25.1	93.280	0.340	-0.200	-0.090
2020/01/31 05:22:25.2	93.280	0.270	-0.070	-0.020
2020/01/31 05:22:25.3	93.280	0.200	0.060	0.050
2020/01/31 05:22:25.4	93.270	0.130	0.190	0.120
2020/01/31 05:22:25.5	93.270	0.060	0.320	0.190
2020/01/31 05:22:25.6	93.260	-0.020	0.450	0.260
2020/01/31 05:22:25.7	93.250	-0.090	0.570	0.330
2020/01/31 05:22:25.8	93.230	-0.170	0.680	0.400
2020/01/31 05:22:25.9	93.220	-0.240	0.780	0.470
2020/01/31 05:22:26.0	93.210	-0.310	0.880	0.540
2020/01/31 05:22:26.1	93.190	-0.380	0.960	0.600
2020/01/31 05:22:26.2	93.180	-0.440	1.040	0.660
2020/01/31 05:22:26.3	93.160	-0.500	1.100	0.720
2020/01/31 05:22:26.4	93.140	-0.550	1.150	0.780
2020/01/31 05:22:26.5	93.130	-0.600	1.180	0.840
2020/01/31 05:22:26.6	93.110	-0.640	1.190	0.890
2020/01/31 05:22:26.7	93.100	-0.680	1.190	0.940
2020/01/31 05:22:26.8	93.080	-0.700	1.180	0.990
2020/01/31 05:22:26.9	93.070	-0.720	1.150	1.040
2020/01/31 05:22:27.0	93.060	-0.740	1.110	1.080
2020/01/31 05:22:27.1	93.050	-0.740	1.050	1.120
2020/01/31 05:22:27.2	93.040	-0.740	0.980	1.150
2020/01/31 05:22:27.3	93.030	-0.730	0.900	1.180
2020/01/31 05:22:27.4	93.030	-0.720	0.810	1.200
2020/01/31 05:22:27.5	93.020	-0.700	0.700	1.230
2020/01/31 05:22:27.6	93.020	-0.670	0.600	1.240
2020/01/31 05:22:27.7	93.020	-0.640	0.480	1.260
2020/01/31 05:22:27.8	93.020	-0.600	0.360	1.270
2020/01/31 05:22:27.9	93.020	-0.560	0.230	1.270
2020/01/31 05:22:28.0	93.030	-0.520	0.110	1.270
2020/01/31 05:22:28.1	93.030	-0.470	-0.020	1.270
2020/01/31 05:22:28.2	93.040	-0.420	-0.150	1.270
2020/01/31 05:22:28.3	93.040	-0.370	-0.280	1.260
2020/01/31 05:22:28.4	93.040	-0.310	-0.410	1.240
2020/01/31 05:22:28.5	93.040	-0.260	-0.530	1.230
2020/01/31 05:22:28.6	93.040	-0.200	-0.640	1.210
2020/01/31 05:22:28.7	93.040	-0.150	-0.750	1.190
2020/01/31 05:22:28.8	93.040	-0.090	-0.850	1.170
2020/01/31 05:22:28.9	93.030	-0.040	-0.950	1.150
2020/01/31 05:22:29.0	93.020	0.010	-1.040	1.120
2020/01/31 05:22:29.1	93.020	0.060	-1.110	1.090
2020/01/31 05:22:29.2	93.010	0.110	-1.190	1.060
2020/01/31 05:22:29.3	93.000	0.160	-1.240	1.030
2020/01/31 05:22:29.4	92.980	0.200	-1.290	1.000
2020/01/31 05:22:29.5	92.970	0.240	-1.330	0.970
2020/01/31 05:22:29.6	92.950	0.280	-1.350	0.940
2020/01/31 05:22:29.7	92.940	0.310	-1.370	0.910
2020/01/31 05:22:29.8	92.920	0.350	-1.370	0.880
2020/01/31 05:22:29.9	92.910	0.370	-1.370	0.850
2020/01/31 05:22:30.0	92.890	0.400	-1.350	0.820
2020/01/31 05:22:30.1	92.880	0.420	-1.330	0.800
2020/01/31 05:22:30.2	92.860	0.440	-1.290	0.770
2020/01/31 05:22:30.3	92.850	0.460	-1.250	0.740
2020/01/31 05:22:30.4	92.840	0.470	-1.190	0.720
2020/01/31 05:22:30.5	92.830	0.480	-1.140	0.690
2020/01/31 05:22:30.6	92.820	0.490	-1.080	0.670
2020/01/31 05:22:30.7	92.810	0.490	-1.010	0.650
2020/01/31 05:22:30.8	92.800	0.490	-0.940	0.630
2020/01/31 05:22:30.9	92.800	0.500	-0.870	0.600
2020/01/31 05:22:31.0	92.790	0.500	-0.790	0.580
2020/01/31 05:22:31.1	92.790	0.490	-0.720	0.560
2020/01/31 05:22:31.2	92.790	0.490	-0.640	0.540
2020/01/31 05:22:31.3	92.790	0.490	-0.570	0.520
2020/01/31 05:22:31.4	92.790	0.480	-0.500	0.500
2020/01/31 05:22:31.5	92.790	0.480	-0.440	0.480
2020/01/31 05:22:31.6	92.790	0.470	-0.380	0.470
2020/01/31 05:22:31.7	92.800	0.470	-0.320	0.450
2020/01/31 05:22:31.8	92.800	0.460	-0.270	0.440
2020/01/31 05:22:31.9	92.810	0.450	-0.220	0.430
2020/01/31 05:22:32.0	92.810	0.450	-0.180	0.410
2020/01/31 05:22:32.1	92.820	0.440	-0.150	0.400
2020/01/31 05:22:32.2	92.820	0.430	-0.120	0.390
2020/01/31 05:22:32.3	92.830	0.420	-0.090	0.380
2020/01/31 05:22:32.4	92.840	0.410	-0.070	0.370
2020/01/31 05:22:32.5	92.850	0.400	-0.050	0.360
2020/01/31 05:22:32.6	92.870	0.390	-0.030	0.350
2020/01/31 05:22:32.7	92.880	0.380	-0.020	0.340
2020/01/31 05:22:32.8	92.890	0.360	-0.010	0.330
2020/01/31 05:22:32.9	92.910	0.350	0.000	0.320
2020/01/31 05:22:33.0	92.930	0.330	0.010	0.320
2020/01/31 05:22:33.1	92.940	0.320	0.020	0.310
2020/01/31 05:22:33.2	92.960	0.300	0.020	0.300
2020/01/31 05:22:33.3	92.970	0.280	0.030	0.300
2020/01/31 05:22:33.4	92.990	0.250	0.040	0.290
2020/01/31 05:22:33.5	93.000	0.230	0.050	0.290
2020/01/31 05:22:33.6	93.010	0.210	0.060	0.290
2020/01/31 05:22:33.7	93.020	0.180	0.070	0.290
2020/01/31 05:22:33.8	93.030	0.150	0.080	0.290
2020/01/31 05:22:33.9	93.030	0.120	0.100	0.290
2020/01/31 05:22:34.0	93.040	0.090	0.120	0.300
2020/01/31 05:22:34.1	93.040	0.060	0.140	0.310
2020/01/31 05:22:34.2	93.040	0.020	0.160	0.320
2020/01/31 05:22:34.3	93.040	-0.010	0.190	0.340
2020/01/31 05:22:34.4	93.030	-0.040	0.210	0.360
2020/01/31 05:22:34.5	93.030	-0.080	0.240	0.390
2020/01/31 05:22:34.6	93.020	-0.110	0.270	0.410
2020/01/31 05:22:34.7	93.010	-0.150	0.300	0.440
2020/01/31 05:22:34.8	93.010	-0.180	0.330	0.470
2020/01/31 05:22:34.9	93.000	-0.220	0.360	0.510
2020/01/31 05:22:35.0	92.990	-0.250	0.390	0.540
2020/01/31 05:22:35.1	92.980	-0.290	0.420	0.580
2020/01/31 05:22:35.2	92.970	-0.320	0.440	0.620
2020/01/31 05:22:35.3	92.960	-0.350	0.460	0.660
2020/01/31 05:22:35.4	92.950	-0.380	0.480	0.690
2020/01/31 05:22:35.5	92.950	-0.400	0.500	0.730
2020/01/31 05:22:35.6	92.940	-0.430	0.510	0.770
2020/01/31 05:22:35.7	92.940	-0.450	0.520	0.800
2020/01/31 05:22:35.8	92.940	-0.470	0.520	0.840
2020/01/31 05:22:35.9	92.940	-0.480	0.510	0.870
2020/01/31 05:22:36.0	92.950	-0.490	0.500	0.900
2020/01/31 05:22:36.1	92.950	-0.500	0.480	0.920
2020/01/31 05:22:36.2	92.960	-0.500	0.450	0.940
2020/01/31 05:22:36.3	92.970	-0.500	0.420	0.960
2020/01/31 05:22:36.4	92.980	-0.500	0.380	0.970
2020/01/31 05:22:36.5	93.000	-0.490	0.330	0.980
2020/01/31 05:22:36.6	93.020	-0.470	0.280	0.990
2020/01/31 05:22:36.7	93.040	-0.460	0.210	0.990
2020/01/31 05:22:36.8	93.060	-0.440	0.150	0.990
2020/01/31 05:22:36.9	93.080	-0.410	0.070	0.980
2020/01/31 05:22:37.0	93.110	-0.390	-0.000	0.970
2020/01/31 05:22:37.1	93.130	-0.360	-0.080	0.960
2020/01/31 05:22:37.2	93.160	-0.330	-0.170	0.950
2020/01/31 05:22:37.3	93.180	-0.290	-0.250	0.940
2020/01/31 05:22:37.4	93.210	-0.260	-0.330	0.920
2020/01/31 05:22:37.5	93.230	-0.220	-0.420	0.910
2020/01/31 05:22:37.6	93.250	-0.190	-0.500	0.900
2020/01/31 05:22:37.7	93.260	-0.150	-0.580	0.890
2020/01/31 05:22:37.8	93.280	-0.120	-0.650	0.880
2020/01/31 05:22:37.9	93.290	-0.090	-0.720	0.870
2020/01/31 05:22:38.0	93.290	-0.050	-0.790	0.860
2020/01/31 05:22:38.1	93.300	-0.020	-0.850	0.850
2020/01/31 05:22:38.2	93.300	0.010	-0.900	0.850
2020/01/31 05:22:38.3	93.290	0.030	-0.950	0.850
2020/01/31 05:22:38.4	93.290	0.060	-0.990	0.850
2020/01/31 05:22:38.5	93.280	0.080	-1.020	0.850
2020/01/31 05:22:38.6	93.270	0.100	-1.050	0.850
2020/01/31 05:22:38.7	93.260	0.120	-1.070	0.860
2020/01/31 05:22:38.8	93.240	0.130	-1.080	0.870
2020/01/31 05:22:38.9	93.220	0.150	-1.080	0.880
2020/01/31 05:22:39.0	93.210	0.150	-1.070	0.890
2020/01/31 05:22:39.1	93.190	0.160	-1.060	0.910
2020/01/31 05:22:39.2	93.170	0.160	-1.030	0.920
2020/01/31 05:22:39.3	93.150	0.160	-1.000	0.940
2020/01/31 05:22:39.4	93.130	0.160	-0.970	0.960
2020/01/31 05:22:39.5	93.120	0.160	-0.930	0.980
2020/01/31 05:22:39.6	93.100	0.150	-0.880	0.990
2020/01/31 05:22:39.7	93.090	0.140	-0.830	1.010
2020/01/31 05:22:39.8	93.080	0.130	-0.780	1.030
2020/01/31 05:22:39.9	93.070	0.120	-0.720	1.040
2020/01/31 05:22:40.0	93.060	0.110	-0.660	1.050
2020/01/31 05:22:40.1	93.050	0.090	-0.600	1.060
2020/01/31 05:22:40.2	93.050	0.080	-0.530	1.070
2020/01/31 05:22:40.3	93.050	0.060	-0.470	1.070
2020/01/31 05:22:40.4	93.050	0.050	-0.410	1.070
2020/01/31 05:22:40.5	93.050	0.030	-0.350	1.070
2020/01/31 05:22:40.6	93.060	0.020	-0.290	1.060
2020/01/31 05:22:40.7	93.070	0.000	-0.230	1.050
2020/01/31 05:22:40.8	93.080	-0.010	-0.170	1.040
2020/01/31 05:22:40.9	93.090	-0.020	-0.120	1.030
2020/01/31 05:22:41.0	93.100	-0.030	-0.070	1.010
2020/01/31 05:22:41.1	93.110	-0.040	-0.030	0.990
2020/01/31 05:22:41.2	93.120	-0.050	0.020	0.980
2020/01/31 05:22:41.3	93.130	-0.060	0.060	0.960
2020/01/31 05:22:41.4	93.150	-0.070	0.090	0.940
2020/01/31 05:22:41.5	93.160	-0.070	0.120	0.920
2020/01/31 05:22:41.6	93.170	-0.070	0.150	0.900
2020/01/31 05:22:41.7	93.180	-0.080	0.170	0.880
2020/01/31 05:22:41.8	93.190	-0.080	0.190	0.860
2020/01/31 05:22:41.9	93.190	-0.080	0.200	0.850
2020/01/31 05:22:42.0	93.200	-0.080	0.220	0.830
2020/01/31 05:22:42.1	93.200	-0.070	0.230	0.810
2020/01/31 05:22:42.2	93.210	-0.070	0.230	0.790
2020/01/31 05:22:42.3	93.210	-0.070	0.240	0.770
2020/01/31 05:22:42.4	93.210	-0.070	0.240	0.750
2020/01/31 05:22:42.5	93.210	-0.070	0.240	0.730
2020/01/31 05:22:42.6	93.210	-0.060	0.240	0.710
2020/01/31 05:22:42.7	93.210	-0.060	0.240	0.690
2020/01/31 05:22:42.8	93.200	-0.060	0.240	0.670
2020/01/31 05:22:42.9	93.200	-0.060	0.240	0.650
2020/01/31 05:22:43.0	93.200	-0.060	0.230	0.630
2020/01/31 05:22:43.1	93.190	-0.060	0.230	0.600
2020/01/31 05:22:43.2	93.190	-0.070	0.220	0.580
2020/01/31 05:22:43.3	93.180	-0.070	0.210	0.560
2020/01/31 05:22:43.4	93.180	-0.070	0.210	0.540
2020/01/31 05:22:43.5	93.180	-0.080	0.200	0.510
2020/01/31 05:22:43.6	93.170	-0.080	0.180	0.490
2020/01/31 05:22:43.7	93.170	-0.080	0.170	0.460
2020/01/31 05:22:43.8	93.170	-0.090	0.160	0.440
2020/01/31 05:22:43.9	93.160	-0.090	0.140	0.420
2020/01/31 05:22:44.0	93.160	-0.100	0.120	0.390
2020/01/31 05:22:44.1	93.160	-0.100	0.100	0.370
2020/01/31 05:22:44.2	93.150	-0.100	0.080	0.350
2020/01/31 05:22:44.3	93.150	-0.100	0.050	0.330
2020/01/31 05:22:44.4	93.150	-0.100	0.020	0.310
2020/01/31 05:22:44.5	93.150	-0.100	-0.010	0.290
2020/01/31 05:22:44.6	93.150	-0.100	-0.040	0.270
2020/01/31 05:22:44.7	93.150	-0.090	-0.080	0.260
2020/01/31 05:22:44.8	93.150	-0.090	-0.120	0.250
2020/01/31 05:22:44.9	93.150	-0.080	-0.160	0.240
2020/01/31 05:22:45.0	93.150	-0.070	-0.210	0.230
2020/01/31 05:22:45.1	93.160	-0.050	-0.250	0.220
2020/01/31 05:22:45.2	93.160	-0.040	-0.300	0.210
2020/01/31 05:22:45.3	93.170	-0.020	-0.340	0.200
2020/01/31 05:22:45.4	93.170	0.000	-0.390	0.200
2020/01/31 05:22:45.5	93.180	0.020	-0.430	0.190
2020/01/31 05:22:45.6	93.190	0.050	-0.470	0.180
2020/01/31 05:22:45.7	93.200	0.070	-0.510	0.180
2020/01/31 05:22:45.8	93.210	0.100	-0.550	0.170
2020/01/31 05:22:45.9	93.230	0.120	-0.590	0.160
2020/01/31 05:22:46.0	93.240	0.150	-0.620	0.150
2020/01/31 05:22:46.1	93.250	0.180	-0.650	0.150
2020/01/31 05:22:46.2	93.260	0.210	-0.680	0.140
2020/01/31 05:22:46.3	93.280	0.230	-0.710	0.140
2020/01/31 05:22:46.4	93.290	0.260	-0.730	0.140
2020/01/31 05:22:46.5	93.300	0.290	-0.750	0.140
2020/01/31 05:22:46.6	93.320	0.310	-0.760	0.140
2020/01/31 05:22:46.7	93.330	0.340	-0.770	0.140
2020/01/31 05:22:46.8	93.340	0.360	-0.780	0.140
2020/01/31 05:22:46.9	93.350	0.380	-0.780	0.150
2020/01/31 05:22:47.0	93.360	0.410	-0.790	0.170
2020/01/31 05:22:47.1	93.370	0.430	-0.780	0.180
2020/01/31 05:22:47.2	93.380	0.440	-0.770	0.200
2020/01/31 05:22:47.3	93.390	0.460	-0.760	0.220
2020/01/31 05:22:47.4	93.390	0.470	-0.750	0.250
2020/01/31 05:22:47.5	93.400	0.480	-0.740	0.280
2020/01/31 05:22:47.6	93.400	0.490	-0.720	0.320
2020/01/31 05:22:47.7	93.410	0.490	-0.690	0.360
2020/01/31 05:22:47.8	93.410	0.490	-0.670	0.410
2020/01/31 05:22:47.9	93.410	0.490	-0.640	0.460
2020/01/31 05:22:48.0	93.410	0.490	-0.610	0.510
2020/01/31 05:22:48.1	93.410	0.480	-0.570	0.560
2020/01/31 05:22:48.2	93.410	0.470	-0.540	0.620
2020/01/31 05:22:48.3	93.410	0.460	-0.500	0.670
2020/01/31 05:22:48.4	93.400	0.440	-0.460	0.730
2020/01/31 05:22:48.5	93.400	0.420	-0.410	0.780
2020/01/31 05:22:48.6	93.400	0.400	-0.370	0.840
2020/01/31 05:22:48.7	93.390	0.370	-0.320	0.890
2020/01/31 05:22:48.8	93.380	0.350	-0.270	0.950
2020/01/31 05:22:48.9	93.380	0.320	-0.220	1.000
2020/01/31 05:22:49.0	93.370	0.280	-0.170	1.050
2020/01/31 05:22:49.1	93.360	0.250	-0.120	1.090
2020/01/31 05:22:49.2	93.350	0.210	-0.070	1.130
2020/01/31 05:22:49.3	93.340	0.180	-0.010	1.160
2020/01/31 05:22:49.4	93.330	0.140	0.040	1.190
2020/01/31 05:22:49.5	93.320	0.100	0.090	1.220
2020/01/31 05:22:49.6	93.310	0.060	0.130	1.240
2020/01/31 05:22:49.7	93.300	0.020	0.180	1.260
2020/01/31 05:22:49.8	93.290	-0.030	0.230	1.270
2020/01/31 05:22:49.9	93.280	-0.070	0.270	1.270
2020/01/31 05:22:50.0	93.270	-0.110	0.310	1.280
2020/01/31 05:22:50.1	93.260	-0.140	0.340	1.280
2020/01/31 05:22:50.2	93.250	-0.180	0.380	1.270
2020/01/31 05:22:50.3	93.250	-0.210	0.400	1.260
2020/01/31 05:22:50.4	93.240	-0.250	0.430	1.250
2020/01/31 05:22:50.5	93.240	-0.280	0.440	1.230
2020/01/31 05:22:50.6	93.240	-0.300	0.450	1.220
2020/01/31 05:22:50.7	93.240	-0.330	0.460	1.200
2020/01/31 05:22:50.8	93.240	-0.350	0.450	1.180
2020/01/31 05:22:50.9	93.250	-0.360	0.450	1.160
2020/01/31 05:22:51.0	93.250	-0.370	0.430	1.140
2020/01/31 05:22:51.1	93.260	-0.380	0.410	1.110
2020/01/31 05:22:51.2	93.270	-0.380	0.380	1.090
2020/01/31 05:22:51.3	93.280	-0.380	0.340	1.060
2020/01/31 05:22:51.4	93.290	-0.380	0.300	1.030
2020/01/31 05:22:51.5	93.310	-0.370	0.260	1.010
2020/01/31 05:22:51.6	93.320	-0.360	0.200	0.980
2020/01/31 05:22:51.7	93.340	-0.340	0.150	0.950
2020/01/31 05:22:51.8	93.360	-0.320	0.080	0.920
2020/01/31 05:22:51.9	93.380	-0.300	0.020	0.900
2020/01/31 05:22:52.0	93.400	-0.280	-0.050	0.870
2020/01/31 05:22:52.1	93.420	-0.250	-0.120	0.840
2020/01/31 05:22:52.2	93.440	-0.220	-0.190	0.810
2020/01/31 05:22:52.3	93.460	-0.190	-0.260	0.780
2020/01/31 05:22:52.4	93.480	-0.160	-0.320	0.750
2020/01/31 05:22:52.5	93.500	-0.130	-0.380	0.720
2020/01/31 05:22:52.6	93.520	-0.100	-0.440	0.690
2020/01/31 05:22:52.7	93.540	-0.070	-0.500	0.660
2020/01/31 05:22:52.8	93.560	-0.040	-0.540	0.640
2020/01/31 05:22:52.9	93.570	-0.020	-0.580	0.610
2020/01/31 05:22:53.0	93.590	0.010	-0.620	0.590
2020/01/31 05:22:53.1	93.600	0.030	-0.640	0.570
2020/01/31 05:22:53.2	93.610	0.050	-0.660	0.550
2020/01/31 05:22:53.3	93.620	0.060	-0.670	0.540
2020/01/31 05:22:53.4	93.630	0.070	-0.670	0.530
2020/01/31 05:22:53.5	93.640	0.080	-0.670	0.520
2020/01/31 05:22:53.6	93.640	0.090	-0.650	0.520
2020/01/31 05:22:53.7	93.640	0.090	-0.630	0.520
2020/01/31 05:22:53.8	93.640	0.090	-0.590	0.530
2020/01/31 05:22:53.9	93.630	0.080	-0.550	0.540
2020/01/31 05:22:54.0	93.620	0.070	-0.510	0.550
2020/01/31 05:22:54.1	93.610	0.060	-0.460	0.570
2020/01/31 05:22:54.2	93.600	0.040	-0.400	0.590
2020/01/31 05:22:54.3	93.580	0.020	-0.340	0.610
2020/01/31 05:22:54.4	93.570	0.000	-0.270	0.630
2020/01/31 05:22:54.5	93.550	-0.020	-0.210	0.660
2020/01/31 05:22:54.6	93.520	-0.050	-0.140	0.690
2020/01/31 05:22:54.7	93.500	-0.080	-0.080	0.710
2020/01/31 05:22:54.8	93.480	-0.110	-0.010	0.740
2020/01/31 05:22:54.9	93.450	-0.140	0.050	0.770
2020/01/31 05:22:55.0	93.430	-0.170	0.110	0.800
2020/01/31 05:22:55.1	93.400	-0.210	0.160	0.820
2020/01/31 05:22:55.2	93.370	-0.240	0.210	0.850
2020/01/31 05:22:55.3	93.350	-0.270	0.250	0.870
2020/01/31 05:22:55.4	93.330	-0.300	0.280	0.890
2020/01/31 05:22:55.5	93.300	-0.330	0.300	0.900
2020/01/31 05:22:55.6	93.280	-0.360	0.320	0.920
2020/01/31 05:22:55.7	93.260	-0.390	0.320	0.930
2020/01/31 05:22:55.8	93.250	-0.410	0.320	0.940
2020/01/31 05:22:55.9	93.230	-0.430	0.300	0.940
2020/01/31 05:22:56.0	93.220	-0.450	0.280	0.940
2020/01/31 05:22:56.1	93.210	-0.460	0.250	0.940
2020/01/31 05:22:56.2	93.200	-0.470	0.210	0.930
2020/01/31 05:22:56.3	93.200	-0.480	0.160	0.920
2020/01/31 05:22:56.4	93.190	-0.480	0.110	0.910
2020/01/31 05:22:56.5	93.190	-0.480	0.050	0.890
2020/01/31 05:22:56.6	93.200	-0.480	-0.020	0.870
2020/01/31 05:22:56.7	93.200	-0.470	-0.090	0.850
2020/01/31 05:22:56.8	93.200	-0.460	-0.170	0.830
2020/01/31 05:22:56.9	93.210	-0.440	-0.240	0.810
2020/01/31 05:22:57.0	93.220	-0.420	-0.320	0.790
2020/01/31 05:22:57.1	93.230	-0.400	-0.400	0.760
2020/01/31 05:22:57.2	93.230	-0.380	-0.470	0.740
2020/01/31 05:22:57.3	93.240	-0.350	-0.550	0.720
2020/01/31 05:22:57.4	93.250	-0.320	-0.610	0.690
2020/01/31 05:22:57.5	93.260	-0.290	-0.680	0.670
2020/01/31 05:22:57.6	93.270	-0.260	-0.740	0.650
2020/01/31 05:22:57.7	93.280	-0.230	-0.790	0.630
2020/01/31 05:22:57.8	93.290	-0.190	-0.830	0.610
2020/01/31 05:22:57.9	93.300	-0.160	-0.870	0.600
2020/01/31 05:22:58.0	93.310	-0.120	-0.900	0.580
2020/01/31 05:22:58.1	93.320	-0.080	-0.920	0.570
2020/01/31 05:22:58.2	93.330	-0.050	-0.930	0.550
2020/01/31 05:22:58.3	93.340	-0.010	-0.940	0.540
2020/01/31 05:22:58.4	93.350	0.020	-0.940	0.530
2020/01/31 05:22:58.5	93.360	0.050	-0.930	0.520
2020/01/31 05:22:58.6	93.370	0.080	-0.910	0.520
2020/01/31 05:22:58.7	93.370	0.110	-0.890	0.510
2020/01/31 05:22:58.8	93.380	0.140	-0.870	0.510
2020/01/31 05:22:58.9	93.380	0.170	-0.830	0.510
2020/01/31 05:22:59.0	93.390	0.200	-0.800	0.510
2020/01/31 05:22:59.1	93.390	0.220	-0.760	0.510
2020/01/31 05:22:59.2	93.390	0.250	-0.710	0.520
2020/01/31 05:22:59.3	93.390	0.270	-0.670	0.520
2020/01/31 05:22:59.4	93.390	0.290	-0.620	0.530
2020/01/31 05:22:59.5	93.390	0.310	-0.570	0.550
2020/01/31 05:22:59.6	93.380	0.320	-0.530	0.560
2020/01/31 05:22:59.7	93.380	0.340	-0.480	0.580
2020/01/31 05:22:59.8	93.370	0.350	-0.430	0.590
2020/01/31 05:22:59.9	93.360	0.370	-0.390	0.610
2020/01/31 05:23:00.0	93.350	0.380	-0.340	0.630
2020/01/31 05:23:00.1	93.340	0.390	-0.300	0.650
2020/01/31 05:23:00.2	93.330	0.400	-0.250	0.670
2020/01/31 05:23:00.3	93.320	0.410	-0.210	0.700
2020/01/31 05:23:00.4	93.300	0.410	-0.180	0.720
2020/01/31 05:23:00.5	93.290	0.420	-0.140	0.740
2020/01/31 05:23:00.6	93.280	0.420	-0.110	0.760
2020/01/31 05:23:00.7	93.260	0.430	-0.080	0.780
2020/01/31 05:23:00.8	93.250	0.430	-0.060	0.790
2020/01/31 05:23:00.9	93.240	0.430	-0.030	0.810
2020/01/31 05:23:01.0	93.230	0.430	-0.010	0.820
2020/01/31 05:23:01.1	93.210	0.430	0.010	0.830
2020/01/31 05:23:01.2	93.200	0.430	0.030	0.850
2020/01/31 05:23:01.3	93.190	0.430	0.050	0.850
2020/01/31 05:23:01.4	93.180	0.430	0.060	0.860
2020/01/31 05:23:01.5	93.160	0.420	0.070	0.870
2020/01/31 05:23:01.6	93.150	0.420	0.080	0.870
2020/01/31 05:23:01.7	93.140	0.410	0.090	0.870
2020/01/31 05:23:01.8	93.120	0.400	0.100	0.880
2020/01/31 05:23:01.9	93.110	0.390	0.110	0.880
2020/01/31 05:23:02.0	93.090	0.380	0.110	0.880
2020/01/31 05:23:02.1	93.070	0.370	0.110	0.880
2020/01/31 05:23:02.2	93.060	0.360	0.110	0.880
2020/01/31 05:23:02.3	93.040	0.350	0.110	0.890
2020/01/31 05:23:02.4	93.020	0.340	0.110	0.890
2020/01/31 05:23:02.5	93.010	0.330	0.100	0.900
2020/01/31 05:23:02.6	92.990	0.310	0.100	0.900
2020/01/31 05:23:02.7	92.970	0.300	0.090	0.900
2020/01/31 05:23:02.8	92.960	0.290	0.080	0.900
2020/01/31 05:23:02.9	92.940	0.270	0.060	0.900
2020/01/31 05:23:03.0	92.930	0.260	0.050	0.900
2020/01/31 05:23:03.1	92.920	0.250	0.030	0.900
2020/01/31 05:23:03.2	92.910	0.240	0.010	0.890
2020/01/31 05:23:03.3	92.910	0.220	-0.020	0.880
2020/01/31 05:23:03.4	92.900	0.210	-0.040	0.870
2020/01/31 05:23:03.5	92.900	0.200	-0.070	0.860
2020/01/31 05:23:03.6	92.900	0.190	-0.090	0.850
2020/01/31 05:23:03.7	92.900	0.180	-0.120	0.830
2020/01/31 05:23:03.8	92.910	0.170	-0.150	0.810
2020/01/31 05:23:03.9	92.920	0.150	-0.170	0.790
2020/01/31 05:23:04.0	92.930	0.140	-0.200	0.780
2020/01/31 05:23:04.1	92.940	0.130	-0.220	0.760
2020/01/31 05:23:04.2	92.950	0.120	-0.240	0.740
2020/01/31 05:23:04.3	92.960	0.110	-0.260	0.720
2020/01/31 05:23:04.4	92.970	0.100	-0.280	0.700
2020/01/31 05:23:04.5	92.990	0.090	-0.290	0.690
2020/01/31 05:23:04.6	93.000	0.070	-0.300	0.670
2020/01/31 05:23:04.7	93.020	0.060	-0.310	0.660
2020/01/31 05:23:04.8	93.040	0.050	-0.320	0.650
2020/01/31 05:23:04.9	93.050	0.030	-0.310	0.650
2020/01/31 05:23:05.0	93.070	0.010	-0.310	0.640
2020/01/31 05:23:05.1	93.090	-0.000	-0.300	0.640
2020/01/31 05:23:05.2	93.110	-0.020	-0.290	0.640
2020/01/31 05:23:05.3	93.120	-0.040	-0.270	0.640
2020/01/31 05:23:05.4	93.140	-0.050	-0.260	0.650
2020/01/31 05:23:05.5	93.160	-0.070	-0.240	0.660
2020/01/31 05:23:05.6	93.180	-0.090	-0.210	0.670
2020/01/31 05:23:05.7	93.200	-0.110	-0.190	0.690
2020/01/31 05:23:05.8	93.220	-0.130	-0.170	0.700
2020/01/31 05:23:05.9	93.240	-0.150	-0.140	0.720
2020/01/31 05:23:06.0	93.260	-0.160	-0.110	0.740
2020/01/31 05:23:06.1	93.280	-0.180	-0.080	0.760
2020/01/31 05:23:06.2	93.290	-0.200	-0.060	0.780
2020/01/31 05:23:06.3	93.310	-0.210	-0.030	0.800
2020/01/31 05:23:06.4	93.330	-0.230	-0.010	0.820
2020/01/31 05:23:06.5	93.340	-0.240	0.020	0.840
2020/01/31 05:23:06.6	93.360	-0.260	0.040	0.860
2020/01/31 05:23:06.7	93.370	-0.270	0.060	0.890
2020/01/31 05:23:06.8	93.390	-0.280	0.080	0.910
2020/01/31 05:23:06.9	93.400	-0.280	0.100	0.930
2020/01/31 05:23:07.0	93.410	-0.290	0.110	0.960
2020/01/31 05:23:07.1	93.410	-0.290	0.120	0.980
2020/01/31 05:23:07.2	93.420	-0.300	0.130	1.010
2020/01/31 05:23:07.3	93.420	-0.300	0.130	1.040
2020/01/31 05:23:07.4	93.410	-0.300	0.130	1.070
2020/01/31 05:23:07.5	93.410	-0.300	0.130	1.100
2020/01/31 05:23:07.6	93.400	-0.290	0.120	1.130
2020/01/31 05:23:07.7	93.390	-0.290	0.110	1.160
2020/01/31 05:23:07.8	93.380	-0.280	0.100	1.190
2020/01/31 05:23:07.9	93.360	-0.270	0.080	1.220
2020/01/31 05:23:08.0	93.340	-0.260	0.060	1.260
2020/01/31 05:23:08.1	93.320	-0.250	0.040	1.290
2020/01/31 05:23:08.2	93.300	-0.240	0.020	1.320
2020/01/31 05:23:08.3	93.280	-0.230	-0.010	1.350
2020/01/31 05:23:08.4	93.250	-0.220	-0.040	1.380
2020/01/31 05:23:08.5	93.230	-0.210	-0.080	1.410
2020/01/31 05:23:08.6	93.210	-0.200	-0.110	1.430
2020/01/31 05:23:08.7	93.180	-0.180	-0.150	1.460
2020/01/31 05:23:08.8	93.160	-0.170	-0.190	1.480
2020/01/31 05:23:08.9	93.140	-0.160	-0.230	1.500
2020/01/31 05:23:09.0	93.110	-0.150	-0.270	1.510
2020/01/31 05:23:09.1	93.090	-0.140	-0.310	1.530
2020/01/31 05:23:09.2	93.080	-0.130	-0.350	1.530
2020/01/31 05:23:09.3	93.060	-0.120	-0.390	1.540
2020/01/31 05:23:09.4	93.040	-0.120	-0.430	1.540
2020/01/31 05:23:09.5	93.030	-0.110	-0.470	1.530
2020/01/31 05:23:09.6	93.020	-0.110	-0.500	1.520
2020/01/31 05:23:09.7	93.010	-0.100	-0.530	1.510
2020/01/31 05:23:09.8	93.000	-0.100	-0.560	1.490
2020/01/31 05:23:09.9	92.990	-0.100	-0.580	1.470
2020/01/31 05:23:10.0	92.990	-0.100	-0.610	1.450
2020/01/31 05:23:10.1	92.980	-0.100	-0.620	1.420
2020/01/31 05:23:10.2	92.970	-0.110	-0.630	1.390
2020/01/31 05:23:10.3	92.970	-0.110	-0.640	1.360
2020/01/31 05:23:10.4	92.970	-0.120	-0.650	1.320
2020/01/31 05:23:10.5	92.970	-0.120	-0.650	1.280
2020/01/31 05:23:10.6	92.980	-0.130	-0.640	1.250
2020/01/31 05:23:10.7	92.980	-0.140	-0.640	1.210
2020/01/31 05:23:10.8	92.980	-0.150	-0.620	1.170
2020/01/31 05:23:10.9	92.980	-0.160	-0.610	1.130
2020/01/31 05:23:11.0	92.980	-0.160	-0.590	1.090
2020/01/31 05:23:11.1	92.980	-0.170	-0.570	1.060
2020/01/31 05:23:11.2	92.980	-0.180	-0.550	1.020
2020/01/31 05:23:11.3	92.970	-0.190	-0.530	0.990
2020/01/31 05:23:11.4	92.970	-0.190	-0.510	0.960
2020/01/31 05:23:11.5	92.970	-0.200	-0.480	0.930
2020/01/31 05:23:11.6	92.960	-0.200	-0.460	0.910
2020/01/31 05:23:11.7	92.950	-0.200	-0.440	0.890
2020/01/31 05:23:11.8	92.950	-0.200	-0.420	0.870
2020/01/31 05:23:11.9	92.940	-0.200	-0.400	0.850
2020/01/31 05:23:12.0	92.930	-0.200	-0.380	0.840
2020/01/31 05:23:12.1	92.920	-0.190	-0.370	0.830
2020/01/31 05:23:12.2	92.910	-0.190	-0.350	0.820
2020/01/31 05:23:12.3	92.900	-0.180	-0.340	0.810
2020/01/31 05:23:12.4	92.880	-0.170	-0.320	0.800
2020/01/31 05:23:12.5	92.870	-0.160	-0.320	0.790
2020/01/31 05:23:12.6	92.860	-0.140	-0.310	0.790
2020/01/31 05:23:12.7	92.850	-0.130	-0.300	0.780
2020/01/31 05:23:12.8	92.840	-0.120	-0.290	0.770
2020/01/31 05:23:12.9	92.830	-0.100	-0.290	0.770
2020/01/31 05:23:13.0	92.820	-0.080	-0.290	0.760
2020/01/31 05:23:13.1	92.810	-0.070	-0.280	0.750
2020/01/31 05:23:13.2	92.800	-0.050	-0.280	0.740
2020/01/31 05:23:13.3	92.790	-0.030	-0.280	0.730
2020/01/31 05:23:13.4	92.790	-0.020	-0.280	0.710
2020/01/31 05:23:13.5	92.790	-0.000	-0.280	0.700
2020/01/31 05:23:13.6	92.780	0.020	-0.280	0.690
2020/01/31 05:23:13.7	92.780	0.030	-0.280	0.670
2020/01/31 05:23:13.8	92.780	0.050	-0.280	0.660
2020/01/31 05:23:13.9	92.790	0.070	-0.280	0.640
2020/01/31 05:23:14.0	92.790	0.080	-0.280	0.630
2020/01/31 05:23:14.1	92.790	0.100	-0.280	0.610
2020/01/31 05:23:14.2	92.790	0.120	-0.280	0.600
2020/01/31 05:23:14.3	92.790	0.130	-0.290	0.590
2020/01/31 05:23:14.4	92.800	0.140	-0.290	0.580
2020/01/31 05:23:14.5	92.800	0.160	-0.290	0.570
2020/01/31 05:23:14.6	92.810	0.170	-0.290	0.560
2020/01/31 05:23:14.7	92.810	0.180	-0.290	0.560
2020/01/31 05:23:14.8	92.820	0.200	-0.280	0.560
2020/01/31 05:23:14.9	92.820	0.210	-0.280	0.560
2020/01/31 05:23:15.0	92.820	0.210	-0.270	0.560
2020/01/31 05:23:15.1	92.830	0.220	-0.270	0.560
2020/01/31 05:23:15.2	92.820	0.230	-0.250	0.560
2020/01/31 05:23:15.3	92.820	0.230	-0.240	0.570
2020/01/31 05:23:15.4	92.820	0.230	-0.220	0.580
2020/01/31 05:23:15.5	92.820	0.230	-0.210	0.590
2020/01/31 05:23:15.6	92.820	0.230	-0.180	0.600
2020/01/31 05:23:15.7	92.820	0.230	-0.160	0.610
2020/01/31 05:23:15.8	92.810	0.220	-0.130	0.620
2020/01/31 05:23:15.9	92.810	0.210	-0.100	0.630
2020/01/31 05:23:16.0	92.800	0.200	-0.070	0.640
2020/01/31 05:23:16.1	92.790	0.180	-0.030	0.660
2020/01/31 05:23:16.2	92.790	0.170	0.000	0.670
2020/01/31 05:23:16.3	92.780	0.150	0.040	0.680
2020/01/31 05:23:16.4	92.770	0.130	0.080	0.690
2020/01/31 05:23:16.5	92.760	0.110	0.110	0.700
2020/01/31 05:23:16.6	92.750	0.090	0.150	0.710
2020/01/31 05:23:16.7	92.730	0.060	0.190	0.710
2020/01/31 05:23:16.8	92.720	0.040	0.220	0.720
2020/01/31 05:23:16.9	92.710	0.020	0.250	0.730
2020/01/31 05:23:17.0	92.700	-0.010	0.280	0.740
2020/01/31 05:23:17.1	92.690	-0.030	0.310	0.750
2020/01/31 05:23:17.2	92.670	-0.050	0.330	0.760
2020/01/31 05:23:17.3	92.660	-0.080	0.350	0.760
2020/01/31 05:23:17.4	92.650	-0.090	0.370	0.770
2020/01/31 05:23:17.5	92.640	-0.110	0.370	0.780
2020/01/31 05:23:17.6	92.640	-0.130	0.380	0.790
2020/01/31 05:23:17.7	92.630	-0.140	0.380	0.790
2020/01/31 05:23:17.8	92.630	-0.150	0.370	0.800
2020/01/31 05:23:17.9	92.620	-0.150	0.350	0.810
2020/01/31 05:23:18.0	92.620	-0.150	0.330	0.810
2020/01/31 05:23:18.1	92.620	-0.150	0.300	0.820
2020/01/31 05:23:18.2	92.620	-0.150	0.270	0.820
2020/01/31 05:23:18.3	92.620	-0.140	0.230	0.830
2020/01/31 05:23:18.4	92.620	-0.130	0.180	0.830
2020/01/31 05:23:18.5	92.630	-0.110	0.120	0.830
2020/01/31 05:23:18.6	92.630	-0.090	0.070	0.840
2020/01/31 05:23:18.7	92.630	-0.060	0.000	0.840
2020/01/31 05:23:18.8	92.640	-0.040	-0.070	0.840
2020/01/31 05:23:18.9	92.640	-0.000	-0.140	0.840
2020/01/31 05:23:19.0	92.640	0.030	-0.220	0.840
2020/01/31 05:23:19.1	92.650	0.070	-0.300	0.840
2020/01/31 05:23:19.2	92.650	0.110	-0.380	0.840
2020/01/31 05:23:19.3	92.650	0.150	-0.460	0.840
2020/01/31 05:23:19.4	92.660	0.190	-0.540	0.840
2020/01/31 05:23:19.5	92.660	0.240	-0.620	0.840
2020/01/31 05:23:19.6	92.660	0.280	-0.700	0.840
2020/01/31 05:23:19.7	92.660	0.320	-0.780	0.840
2020/01/31 05:23:19.8	92.660	0.370	-0.850	0.840
2020/01/31 05:23:19.9	92.660	0.410	-0.910	0.850
2020/01/31 05:23:20.0	92.660	0.450	-0.970	0.850
2020/01/31 05:23:20.1	92.660	0.490	-1.030	0.850
2020/01/31 05:23:20.2	92.660	0.520	-1.070	0.860
2020/01/31 05:23:20.3	92.660	0.550	-1.110	0.870
2020/01/31 05:23:20.4	92.660	0.580	-1.130	0.870
2020/01/31 05:23:20.5	92.660	0.600	-1.140	0.890
2020/01/31 05:23:20.6	92.650	0.620	-1.150	0.900
2020/01/31 05:23:20.7	92.650	0.630	-1.140	0.910
2020/01/31 05:23:20.8	92.640	0.640	-1.120	0.930
2020/01/31 05:23:20.9	92.640	0.640	-1.100	0.940
2020/01/31 05:23:21.0	92.630	0.640	-1.060	0.960
2020/01/31 05:23:21.1	92.630	0.630	-1.010	0.980
2020/01/31 05:23:21.2	92.620	0.610	-0.950	1.000
2020/01/31 05:23:21.3	92.610	0.580	-0.880	1.020
2020/01/31 05:23:21.4	92.600	0.560	-0.800	1.030
2020/01/31 05:23:21.5	92.590	0.520	-0.710	1.050
2020/01/31 05:23:21.6	92.580	0.480	-0.620	1.070
2020/01/31 05:23:21.7	92.570	0.430	-0.520	1.090
2020/01/31 05:23:21.8	92.560	0.380	-0.420	1.110
2020/01/31 05:23:21.9	92.550	0.330	-0.310	1.130
2020/01/31 05:23:22.0	92.540	0.270	-0.200	1.150
2020/01/31 05:23:22.1	92.530	0.200	-0.080	1.160
2020/01/31 05:23:22.2	92.510	0.140	0.040	1.180
2020/01/31 05:23:22.3	92.490	0.070	0.150	1.190
2020/01/31 05:23:22.4	92.480	-0.000	0.260	1.210
2020/01/31 05:23:22.5	92.460	-0.070	0.370	1.230
2020/01/31 05:23:22.6	92.440	-0.150	0.480	1.240
2020/01/31 05:23:22.7	92.420	-0.220	0.580	1.260
2020/01/31 05:23:22.8	92.390	-0.290	0.670	1.270
2020/01/31 05:23:22.9	92.370	-0.360	0.760	1.280
2020/01/31 05:23:23.0	92.340	-0.430	0.840	1.300
2020/01/31 05:23:23.1	92.320	-0.490	0.910	1.310
2020/01/31 05:23:23.2	92.290	-0.550	0.970	1.310
2020/01/31 05:23:23.3	92.260	-0.610	1.020	1.320
2020/01/31 05:23:23.4	92.230	-0.660	1.050	1.330
2020/01/31 05:23:23.5	92.210	-0.710	1.080	1.330
2020/01/31 05:23:23.6	92.180	-0.750	1.090	1.330
2020/01/31 05:23:23.7	92.160	-0.790	1.090	1.320
2020/01/31 05:23:23.8	92.140	-0.820	1.080	1.310
2020/01/31 05:23:23.9	92.120	-0.840	1.050	1.300
2020/01/31 05:23:24.0	92.100	-0.860	1.020	1.290
2020/01/31 05:23:24.1	92.090	-0.870	0.970	1.270
2020/01/31 05:23:24.2	92.070	-0.880	0.910	1.240
2020/01/31 05:23:24.3	92.060	-0.870	0.830	1.210
2020/01/31 05:23:24.4	92.060	-0.860	0.750	1.180
2020/01/31 05:23:24.5	92.050	-0.850	0.660	1.140
2020/01/31 05:23:24.6	92.050	-0.820	0.550	1.100
2020/01/31 05:23:24.7	92.060	-0.800	0.440	1.060
2020/01/31 05:23:24.8	92.060	-0.760	0.320	1.010
2020/01/31 05:23:24.9	92.070	-0.720	0.200	0.960
2020/01/31 05:23:25.0	92.080	-0.680	0.070	0.910
2020/01/31 05:23:25.1	92.100	-0.630	-0.070	0.850
2020/01/31 05:23:25.2	92.110	-0.580	-0.210	0.800
2020/01/31 05:23:25.3	92.130	-0.520	-0.350	0.740
2020/01/31 05:23:25.4	92.150	-0.460	-0.480	0.690
2020/01/31 05:23:25.5	92.180	-0.400	-0.620	0.630
2020/01/31 05:23:25.6	92.200	-0.330	-0.760	0.580
2020/01/31 05:23:25.7	92.220	-0.270	-0.890	0.530
2020/01/31 05:23:25.8	92.250	-0.210	-1.010	0.490
2020/01/31 05:23:25.9	92.270	-0.140	-1.130	0.440
2020/01/31 05:23:26.0	92.290	-0.080	-1.240	0.410
2020/01/31 05:23:26.1	92.320	-0.010	-1.340	0.370
2020/01/31 05:23:26.2	92.340	0.050	-1.430	0.350
2020/01/31 05:23:26.3	92.350	0.110	-1.510	0.330
2020/01/31 05:23:26.4	92.370	0.160	-1.580	0.310
2020/01/31 05:23:26.5	92.380	0.220	-1.640	0.310
2020/01/31 05:23:26.6	92.390	0.270	-1.680	0.310
2020/01/31 05:23:26.7	92.390	0.310	-1.700	0.310
2020/01/31 05:23:26.8	92.390	0.350	-1.720	0.320
2020/01/31 05:23:26.9	92.390	0.390	-1.710	0.340
2020/01/31 05:23:27.0	92.380	0.420	-1.690	0.360
2020/01/31 05:23:27.1	92.370	0.440	-1.660	0.390
2020/01/31 05:23:27.2	92.360	0.460	-1.620	0.420
2020/01/31 05:23:27.3	92.340	0.480	-1.560	0.450
2020/01/31 05:23:27.4	92.330	0.480	-1.480	0.480
2020/01/31 05:23:27.5	92.310	0.490	-1.390	0.510
2020/01/31 05:23:27.6	92.290	0.480	-1.300	0.550
2020/01/31 05:23:27.7	92.260	0.470	-1.190	0.580
2020/01/31 05:23:27.8	92.240	0.460	-1.070	0.620
2020/01/31 05:23:27.9	92.210	0.440	-0.940	0.650
2020/01/31 05:23:28.0	92.180	0.410	-0.810	0.680
2020/01/31 05:23:28.1	92.160	0.380	-0.670	0.710
2020/01/31 05:23:28.2	92.130	0.350	-0.530	0.750
2020/01/31 05:23:28.3	92.100	0.310	-0.380	0.770
2020/01/31 05:23:28.4	92.060	0.260	-0.240	0.800
2020/01/31 05:23:28.5	92.030	0.220	-0.090	0.820
2020/01/31 05:23:28.6	92.000	0.170	0.050	0.850
2020/01/31 05:23:28.7	91.970	0.120	0.190	0.870
2020/01/31 05:23:28.8	91.930	0.070	0.330	0.880
2020/01/31 05:23:28.9	91.900	0.020	0.460	0.900
2020/01/31 05:23:29.0	91.870	-0.040	0.580	0.910
2020/01/31 05:23:29.1	91.840	-0.090	0.690	0.930
2020/01/31 05:23:29.2	91.810	-0.140	0.790	0.930
2020/01/31 05:23:29.3	91.780	-0.190	0.890	0.940
2020/01/31 05:23:29.4	91.750	-0.230	0.970	0.950
2020/01/31 05:23:29.5	91.720	-0.280	1.040	0.950
2020/01/31 05:23:29.6	91.700	-0.320	1.090	0.950
2020/01/31 05:23:29.7	91.670	-0.360	1.130	0.950
2020/01/31 05:23:29.8	91.650	-0.390	1.160	0.950
2020/01/31 05:23:29.9	91.630	-0.420	1.180	0.950
2020/01/31 05:23:30.0	91.610	-0.450	1.170	0.940
2020/01/31 05:23:30.1	91.590	-0.470	1.160	0.940
2020/01/31 05:23:30.2	91.560	-0.480	1.130	0.930
2020/01/31 05:23:30.3	91.540	-0.490	1.090	0.920
2020/01/31 05:23:30.4	91.520	-0.500	1.040	0.910
2020/01/31 05:23:30.5	91.510	-0.500	0.980	0.900
2020/01/31 05:23:30.6	91.490	-0.490	0.900	0.880
2020/01/31 05:23:30.7	91.480	-0.480	0.810	0.860
2020/01/31 05:23:30.8	91.460	-0.470	0.720	0.850
2020/01/31 05:23:30.9	91.450	-0.450	0.610	0.820
2020/01/31 05:23:31.0	91.440	-0.430	0.500	0.800
2020/01/31 05:23:31.1	91.430	-0.400	0.380	0.770
2020/01/31 05:23:31.2	91.420	-0.370	0.260	0.740
2020/01/31 05:23:31.3	91.420	-0.330	0.130	0.710
2020/01/31 05:23:31.4	91.410	-0.290	-0.000	0.680
2020/01/31 05:23:31.5	91.420	-0.250	-0.130	0.640
2020/01/31 05:23:31.6	91.420	-0.210	-0.270	0.610
2020/01/31 05:23:31.7	91.430	-0.160	-0.400	0.570
2020/01/31 05:23:31.8	91.430	-0.120	-0.530	0.530
2020/01/31 05:23:31.9	91.440	-0.070	-0.650	0.500
2020/01/31 05:23:32.0	91.450	-0.020	-0.770	0.460
2020/01/31 05:23:32.1	91.470	0.030	-0.890	0.430
2020/01/31 05:23:32.2	91.480	0.070	-1.000	0.400
2020/01/31 05:23:32.3	91.490	0.120	-1.090	0.370
2020/01/31 05:23:32.4	91.510	0.170	-1.180	0.340
2020/01/31 05:23:32.5	91.530	0.210	-1.260	0.320
2020/01/31 05:23:32.6	91.540	0.260	-1.330	0.310
2020/01/31 05:23:32.7	91.560	0.300	-1.380	0.290
2020/01/31 05:23:32.8	91.570	0.340	-1.430	0.290
2020/01/31 05:23:32.9	91.580	0.370	-1.460	0.290
2020/01/31 05:23:33.0	91.590	0.410	-1.480	0.290
2020/01/31 05:23:33.1	91.600	0.440	-1.480	0.300
2020/01/31 05:23:33.2	91.600	0.470	-1.470	0.320
2020/01/31 05:23:33.3	91.610	0.490	-1.450	0.340
2020/01/31 05:23:33.4	91.610	0.510	-1.420	0.370
2020/01/31 05:23:33.5	91.600	0.530	-1.370	0.410
2020/01/31 05:23:33.6	91.600	0.540	-1.320	0.440
2020/01/31 05:23:33.7	91.590	0.560	-1.250	0.480
2020/01/31 05:23:33.8	91.580	0.560	-1.170	0.530
2020/01/31 05:23:33.9	91.560	0.570	-1.080	0.570
2020/01/31 05:23:34.0	91.550	0.570	-0.990	0.620
2020/01/31 05:23:34.1	91.530	0.560	-0.880	0.660
2020/01/31 05:23:34.2	91.510	0.560	-0.770	0.710
2020/01/31 05:23:34.3	91.490	0.550	-0.660	0.760
2020/01/31 05:23:34.4	91.470	0.530	-0.550	0.800
2020/01/31 05:23:34.5	91.450	0.520	-0.440	0.850
2020/01/31 05:23:34.6	91.430	0.500	-0.320	0.890
2020/01/31 05:23:34.7	91.420	0.480	-0.210	0.930
2020/01/31 05:23:34.8	91.400	0.460	-0.100	0.970
2020/01/31 05:23:34.9	91.380	0.440	0.000	1.000
2020/01/31 05:23:35.0	91.370	0.420	0.100	1.030
2020/01/31 05:23:35.1	91.360	0.390	0.200	1.060
2020/01/31 05:23:35.2	91.340	0.370	0.290	1.090
2020/01/31 05:23:35.3	91.340	0.340	0.370	1.110
2020/01/31 05:23:35.4	91.330	0.310	0.440	1.130
2020/01/31 05:23:35.5	91.330	0.290	0.500	1.140
2020/01/31 05:23:35.6	91.330	0.260	0.560	1.160
2020/01/31 05:23:35.7	91.340	0.240	0.600	1.160
2020/01/31 05:23:35.8	91.340	0.210	0.640	1.170
2020/01/31 05:23:35.9	91.350	0.190	0.660	1.170
2020/01/31 05:23:36.0	91.360	0.160	0.680	1.170
2020/01/31 05:23:36.1	91.370	0.140	0.690	1.170
2020/01/31 05:23:36.2	91.380	0.120	0.690	1.160
2020/01/31 05:23:36.3	91.390	0.100	0.670	1.160
2020/01/31 05:23:36.4	91.400	0.080	0.660	1.150
2020/01/31 05:23:36.5	91.410	0.060	0.630	1.150
2020/01/31 05:23:36.6	91.420	0.040	0.600	1.140
2020/01/31 05:23:36.7	91.430	0.030	0.560	1.130
2020/01/31 05:23:36.8	91.440	0.010	0.520	1.130
2020/01/31 05:23:36.9	91.450	-0.000	0.470	1.120
2020/01/31 05:23:37.0	91.450	-0.020	0.420	1.110
2020/01/31 05:23:37.1	91.460	-0.030	0.370	1.100
2020/01/31 05:23:37.2	91.460	-0.040	0.310	1.100
2020/01/31 05:23:37.3	91.470	-0.050	0.250	1.090
2020/01/31 05:23:37.4	91.460	-0.070	0.200	1.080
2020/01/31 05:23:37.5	91.460	-0.080	0.140	1.070
2020/01/31 05:23:37.6	91.460	-0.090	0.090	1.060
2020/01/31 05:23:37.7	91.460	-0.100	0.040	1.050
2020/01/31 05:23:37.8	91.450	-0.120	-0.010	1.040
2020/01/31 05:23:37.9	91.450	-0.130	-0.050	1.020
2020/01/31 05:23:38.0	91.440	-0.150	-0.090	1.010
2020/01/31 05:23:38.1	91.430	-0.160	-0.130	0.990
2020/01/31 05:23:38.2	91.420	-0.180	-0.160	0.980
2020/01/31 05:23:38.3	91.420	-0.190	-0.190	0.970
2020/01/31 05:23:38.4	91.410	-0.210	-0.210	0.950
2020/01/31 05:23:38.5	91.400	-0.230	-0.230	0.940
2020/01/31 05:23:38.6	91.390	-0.250	-0.250	0.940
2020/01/31 05:23:38.7	91.380	-0.260	-0.260	0.930
2020/01/31 05:23:38.8	91.370	-0.280	-0.260	0.930
2020/01/31 05:23:38.9	91.360	-0.300	-0.270	0.930
2020/01/31 05:23:39.0	91.360	-0.320	-0.270	0.930
2020/01/31 05:23:39.1	91.350	-0.340	-0.270	0.930
2020/01/31 05:23:39.2	91.340	-0.350	-0.260	0.940
2020/01/31 05:23:39.3	91.340	-0.370	-0.250	0.950
2020/01/31 05:23:39.4	91.330	-0.380	-0.250	0.960
2020/01/31 05:23:39.5	91.330	-0.390	-0.240	0.980
2020/01/31 05:23:39.6	91.320	-0.410	-0.240	0.990
2020/01/31 05:23:39.7	91.320	-0.410	-0.240	1.010
2020/01/31 05:23:39.8	91.320	-0.420	-0.240	1.030
2020/01/31 05:23:39.9	91.320	-0.420	-0.240	1.050
2020/01/31 05:23:40.0	91.320	-0.420	-0.240	1.070
2020/01/31 05:23:40.1	91.330	-0.420	-0.250	1.090
2020/01/31 05:23:40.2	91.330	-0.420	-0.270	1.110
2020/01/31 05:23:40.3	91.340	-0.410	-0.280	1.120
2020/01/31 05:23:40.4	91.350	-0.390	-0.310	1.140
2020/01/31 05:23:40.5	91.360	-0.380	-0.330	1.150
2020/01/31 05:23:40.6	91.380	-0.360	-0.370	1.160
2020/01/31 05:23:40.7	91.390	-0.330	-0.400	1.170
2020/01/31 05:23:40.8	91.410	-0.310	-0.440	1.170
2020/01/31 05:23:40.9	91.420	-0.280	-0.480	1.180
2020/01/31 05:23:41.0	91.440	-0.250	-0.530	1.170
2020/01/31 05:23:41.1	91.460	-0.210	-0.580	1.170
2020/01/31 05:23:41.2	91.480	-0.180	-0.620	1.160
2020/01/31 05:23:41.3	91.500	-0.140	-0.670	1.140
2020/01/31 05:23:41.4	91.520	-0.100	-0.720	1.130
2020/01/31 05:23:41.5	91.540	-0.060	-0.760	1.110
2020/01/31 05:23:41.6	91.560	-0.020	-0.810	1.090
2020/01/31 05:23:41.7	91.580	0.020	-0.850	1.070
2020/01/31 05:23:41.8	91.590	0.060	-0.880	1.040
2020/01/31 05:23:41.9	91.610	0.100	-0.910	1.020
2020/01/31 05:23:42.0	91.620	0.140	-0.930	1.000
2020/01/31 05:23:42.1	91.630	0.170	-0.950	0.980
2020/01/31 05:23:42.2	91.640	0.200	-0.960	0.960
2020/01/31 05:23:42.3	91.650	0.230	-0.960	0.940
2020/01/31 05:23:42.4	91.650	0.260	-0.950	0.920
2020/01/31 05:23:42.5	91.650	0.280	-0.930	0.910
2020/01/31 05:23:42.6	91.640	0.290	-0.900	0.890
2020/01/31 05:23:42.7	91.630	0.300	-0.870	0.880
2020/01/31 05:23:42.8	91.620	0.310	-0.820	0.870
2020/01/31 05:23:42.9	91.610	0.310	-0.770	0.860
2020/01/31 05:23:43.0	91.590	0.310	-0.710	0.860
2020/01/31 05:23:43.1	91.580	0.300	-0.640	0.850
2020/01/31 05:23:43.2	91.560	0.280	-0.560	0.850
2020/01/31 05:23:43.3	91.540	0.270	-0.480	0.850
2020/01/31 05:23:43.4	91.520	0.240	-0.390	0.850
2020/01/31 05:23:43.5	91.500	0.210	-0.300	0.850
2020/01/31 05:23:43.6	91.480	0.180	-0.200	0.850
2020/01/31 05:23:43.7	91.450	0.150	-0.100	0.860
2020/01/31 05:23:43.8	91.430	0.110	-0.000	0.860
2020/01/31 05:23:43.9	91.410	0.060	0.100	0.870
2020/01/31 05:23:44.0	91.380	0.020	0.200	0.880
2020/01/31 05:23:44.1	91.360	-0.030	0.290	0.880
2020/01/31 05:23:44.2	91.330	-0.080	0.390	0.880
2020/01/31 05:23:44.3	91.310	-0.130	0.480	0.890
2020/01/31 05:23:44.4	91.290	-0.170	0.560	0.890
2020/01/31 05:23:44.5	91.270	-0.220	0.630	0.880
2020/01/31 05:23:44.6	91.260	-0.270	0.700	0.880
2020/01/31 05:23:44.7	91.240	-0.310	0.760	0.870
2020/01/31 05:23:44.8	91.230	-0.360	0.810	0.860
2020/01/31 05:23:44.9	91.220	-0.390	0.840	0.850
2020/01/31 05:23:45.0	91.210	-0.430	0.870	0.830
2020/01/31 05:23:45.1	91.200	-0.460	0.890	0.820
2020/01/31 05:23:45.2	91.190	-0.480	0.890	0.790
2020/01/31 05:23:45.3	91.190	-0.500	0.880	0.770
2020/01/31 05:23:45.4	91.190	-0.520	0.860	0.750
2020/01/31 05:23:45.5	91.190	-0.530	0.820	0.720
2020/01/31 05:23:45.6	91.180	-0.530	0.770	0.690
2020/01/31 05:23:45.7	91.180	-0.520	0.710	0.660
2020/01/31 05:23:45.8	91.190	-0.510	0.640	0.630
2020/01/31 05:23:45.9	91.190	-0.500	0.560	0.600
2020/01/31 05:23:46.0	91.190	-0.470	0.470	0.560
2020/01/31 05:23:46.1	91.190	-0.440	0.370	0.530
2020/01/31 05:23:46.2	91.200	-0.400	0.250	0.500
2020/01/31 05:23:46.3	91.200	-0.360	0.130	0.460
2020/01/31 05:23:46.4	91.210	-0.310	0.010	0.430
2020/01/31 05:23:46.5	91.210	-0.260	-0.120	0.400
2020/01/31 05:23:46.6	91.220	-0.200	-0.250	0.370
2020/01/31 05:23:46.7	91.230	-0.140	-0.390	0.340
2020/01/31 05:23:46.8	91.240	-0.070	-0.520	0.310
2020/01/31 05:23:46.9	91.240	-0.010	-0.650	0.290
2020/01/31 05:23:47.0	91.250	0.060	-0.780	0.260
2020/01/31 05:23:47.1	91.250	0.130	-0.910	0.250
2020/01/31 05:23:47.2	91.260	0.200	-1.020	0.230
2020/01/31 05:23:47.3	91.260	0.270	-1.130	0.220
2020/01/31 05:23:47.4	91.260	0.340	-1.230	0.200
2020/01/31 05:23:47.5	91.260	0.400	-1.320	0.200
2020/01/31 05:23:47.6	91.260	0.460	-1.390	0.190
2020/01/31 05:23:47.7	91.260	0.520	-1.460	0.190
2020/01/31 05:23:47.8	91.260	0.570	-1.510	0.190
2020/01/31 05:23:47.9	91.260	0.620	-1.540	0.190
2020/01/31 05:23:48.0	91.260	0.660	-1.560	0.190
2020/01/31 05:23:48.1	91.250	0.700	-1.570	0.200
2020/01/31 05:23:48.2	91.250	0.730	-1.570	0.210
2020/01/31 05:23:48.3	91.250	0.760	-1.540	0.230
2020/01/31 05:23:48.4	91.240	0.770	-1.510	0.250
2020/01/31 05:23:48.5	91.240	0.780	-1.450	0.270
2020/01/31 05:23:48.6	91.230	0.790	-1.390	0.290
2020/01/31 05:23:48.7	91.220	0.780	-1.310	0.320
2020/01/31 05:23:48.8	91.220	0.770	-1.220	0.350
2020/01/31 05:23:48.9	91.210	0.760	-1.120	0.380
2020/01/31 05:23:49.0	91.210	0.730	-1.010	0.420
2020/01/31 05:23:49.1	91.200	0.700	-0.890	0.460
2020/01/31 05:23:49.2	91.200	0.670	-0.760	0.490
2020/01/31 05:23:49.3	91.200	0.630	-0.620	0.530
2020/01/31 05:23:49.4	91.190	0.590	-0.490	0.580
2020/01/31 05:23:49.5	91.190	0.540	-0.350	0.620
2020/01/31 05:23:49.6	91.180	0.480	-0.210	0.670
2020/01/31 05:23:49.7	91.180	0.430	-0.070	0.710
2020/01/31 05:23:49.8	91.180	0.370	0.060	0.760
2020/01/31 05:23:49.9	91.180	0.310	0.190	0.800
2020/01/31 05:23:50.0	91.180	0.250	0.320	0.840
2020/01/31 05:23:50.1	91.180	0.190	0.440	0.890
2020/01/31 05:23:50.2	91.180	0.130	0.560	0.930
2020/01/31 05:23:50.3	91.180	0.070	0.660	0.970
2020/01/31 05:23:50.4	91.190	0.010	0.760	1.000
2020/01/31 05:23:50.5	91.190	-0.050	0.840	1.030
2020/01/31 05:23:50.6	91.190	-0.110	0.910	1.060
2020/01/31 05:23:50.7	91.200	-0.160	0.970	1.090
2020/01/31 05:23:50.8	91.210	-0.210	1.020	1.110
2020/01/31 05:23:50.9	91.210	-0.260	1.060	1.130
2020/01/31 05:23:51.0	91.220	-0.300	1.080	1.140
2020/01/31 05:23:51.1	91.230	-0.340	1.090	1.160
2020/01/31 05:23:51.2	91.240	-0.370	1.090	1.160
2020/01/31 05:23:51.3	91.240	-0.400	1.070	1.170
2020/01/31 05:23:51.4	91.250	-0.430	1.040	1.170
2020/01/31 05:23:51.5	91.260	-0.450	1.010	1.170
2020/01/31 05:23:51.6	91.260	-0.460	0.950	1.170
2020/01/31 05:23:51.7	91.270	-0.470	0.890	1.170
2020/01/31 05:23:51.8	91.270	-0.480	0.820	1.170
2020/01/31 05:23:51.9	91.280	-0.480	0.740	1.160
2020/01/31 05:23:52.0	91.280	-0.470	0.660	1.160
2020/01/31 05:23:52.1	91.280	-0.460	0.560	1.150
2020/01/31 05:23:52.2	91.280	-0.450	0.460	1.140
2020/01/31 05:23:52.3	91.280	-0.430	0.350	1.130
2020/01/31 05:23:52.4	91.280	-0.410	0.250	1.120
2020/01/31 05:23:52.5	91.280	-0.390	0.130	1.110
2020/01/31 05:23:52.6	91.280	-0.360	0.020	1.100
2020/01/31 05:23:52.7	91.280	-0.330	-0.090	1.080
2020/01/31 05:23:52.8	91.280	-0.300	-0.210	1.060
2020/01/31 05:23:52.9	91.280	-0.270	-0.320	1.050
2020/01/31 05:23:53.0	91.290	-0.230	-0.420	1.030
2020/01/31 05:23:53.1	91.290	-0.200	-0.520	1.010
2020/01/31 05:23:53.2	91.290	-0.160	-0.620	1.000
2020/01/31 05:23:53.3	91.290	-0.130	-0.710	0.980
2020/01/31 05:23:53.4	91.300	-0.100	-0.800	0.970
2020/01/31 05:23:53.5	91.300	-0.070	-0.870	0.950
2020/01/31 05:23:53.6	91.300	-0.040	-0.930	0.940
2020/01/31 05:23:53.7	91.300	-0.010	-0.990	0.930
2020/01/31 05:23:53.8	91.300	0.010	-1.030	0.920
2020/01/31 05:23:53.9	91.300	0.040	-1.060	0.920
2020/01/31 05:23:54.0	91.300	0.060	-1.080	0.910
2020/01/31 05:23:54.1	91.300	0.070	-1.090	0.910
2020/01/31 05:23:54.2	91.300	0.090	-1.090	0.900
2020/01/31 05:23:54.3	91.300	0.090	-1.080	0.900
2020/01/31 05:23:54.4	91.290	0.100	-1.050	0.910
2020/01/31 05:23:54.5	91.290	0.100	-1.020	0.910
2020/01/31 05:23:54.6	91.290	0.100	-0.970	0.920
2020/01/31 05:23:54.7	91.280	0.090	-0.920	0.930
2020/01/31 05:23:54.8	91.280	0.090	-0.860	0.940
2020/01/31 05:23:54.9	91.280	0.070	-0.790	0.950
2020/01/31 05:23:55.0	91.270	0.060	-0.710	0.970
2020/01/31 05:23:55.1	91.270	0.040	-0.630	0.980
2020/01/31 05:23:55.2	91.260	0.020	-0.540	1.000
2020/01/31 05:23:55.3	91.260	0.000	-0.450	1.010
2020/01/31 05:23:55.4	91.250	-0.020	-0.360	1.030
2020/01/31 05:23:55.5	91.250	-0.050	-0.280	1.040
2020/01/31 05:23:55.6	91.250	-0.070	-0.190	1.050
2020/01/31 05:23:55.7	91.250	-0.100	-0.100	1.060
2020/01/31 05:23:55.8	91.250	-0.120	-0.020	1.060
2020/01/31 05:23:55.9	91.250	-0.150	0.060	1.070
2020/01/31 05:23:56.0	91.250	-0.170	0.130	1.070
2020/01/31 05:23:56.1	91.250	-0.200	0.200	1.060
2020/01/31 05:23:56.2	91.240	-0.220	0.260	1.050
2020/01/31 05:23:56.3	91.250	-0.240	0.310	1.050
2020/01/31 05:23:56.4	91.250	-0.260	0.360	1.030
2020/01/31 05:23:56.5	91.250	-0.280	0.400	1.020
2020/01/31 05:23:56.6	91.250	-0.290	0.430	1.000
2020/01/31 05:23:56.7	91.260	-0.300	0.450	0.980
2020/01/31 05:23:56.8	91.260	-0.310	0.460	0.960
2020/01/31 05:23:56.9	91.260	-0.310	0.460	0.930
2020/01/31 05:23:57.0	91.270	-0.310	0.450	0.910
2020/01/31 05:23:57.1	91.270	-0.310	0.440	0.880
2020/01/31 05:23:57.2	91.270	-0.310	0.410	0.850
2020/01/31 05:23:57.3	91.270	-0.300	0.380	0.830
2020/01/31 05:23:57.4	91.270	-0.290	0.340	0.800
2020/01/31 05:23:57.5	91.270	-0.270	0.290	0.770
2020/01/31 05:23:57.6	91.280	-0.250	0.240	0.740
2020/01/31 05:23:57.7	91.280	-0.230	0.190	0.720
2020/01/31 05:23:57.8	91.280	-0.210	0.130	0.690
2020/01/31 05:23:57.9	91.280	-0.180	0.070	0.660
2020/01/31 05:23:58.0	91.280	-0.160	0.000	0.640
2020/01/31 05:23:58.1	91.290	-0.130	-0.060	0.620
2020/01/31 05:23:58.2	91.290	-0.090	-0.140	0.590
2020/01/31 05:23:58.3	91.290	-0.060	-0.200	0.570
2020/01/31 05:23:58.4	91.300	-0.030	-0.260	0.550
2020/01/31 05:23:58.5	91.300	0.000	-0.330	0.530
2020/01/31 05:23:58.6	91.310	0.040	-0.380	0.510
2020/01/31 05:23:58.7	91.310	0.070	-0.440	0.490
2020/01/31 05:23:58.8	91.320	0.100	-0.490	0.480
2020/01/31 05:23:58.9	91.330	0.130	-0.540	0.460
2020/01/31 05:23:59.0	91.340	0.170	-0.580	0.450
2020/01/31 05:23:59.1	91.350	0.200	-0.620	0.430
2020/01/31 05:23:59.2	91.360	0.220	-0.650	0.420
2020/01/31 05:23:59.3	91.370	0.250	-0.680	0.410
2020/01/31 05:23:59.4	91.380	0.280	-0.710	0.400
2020/01/31 05:23:59.5	91.390	0.300	-0.730	0.390
2020/01/31 05:23:59.6	91.410	0.330	-0.740	0.380
2020/01/31 05:23:59.7	91.420	0.350	-0.760	0.370
2020/01/31 05:23:59.8	91.430	0.370	-0.770	0.360
2020/01/31 05:23:59.9	91.450	0.390	-0.770	0.350
2020/01/31 05:24:00.0	91.460	0.400	-0.780	0.350
2020/01/31 05:24:00.1	91.480	0.420	-0.780	0.350
2020/01/31 05:24:00.2	91.490	0.430	-0.780	0.340
2020/01/31 05:24:00.3	91.500	0.440	-0.780	0.340
2020/01/31 05:24:00.4	91.510	0.450	-0.780	0.340
2020/01/31 05:24:00.5	91.520	0.460	-0.770	0.340
2020/01/31 05:24:00.6	91.530	0.460	-0.760	0.350
2020/01/31 05:24:00.7	91.540	0.470	-0.760	0.360
2020/01/31 05:24:00.8	91.540	0.470	-0.750	0.370
2020/01/31 05:24:00.9	91.550	0.470	-0.740	0.380
2020/01/31 05:24:01.0	91.550	0.470	-0.730	0.400
2020/01/31 05:24:01.1	91.550	0.470	-0.710	0.420
2020/01/31 05:24:01.2	91.540	0.470	-0.690	0.440
2020/01/31 05:24:01.3	91.540	0.460	-0.680	0.460
2020/01/31 05:24:01.4	91.530	0.460	-0.660	0.490
2020/01/31 05:24:01.5	91.530	0.450	-0.630	0.510
2020/01/31 05:24:01.6	91.520	0.440	-0.610	0.540
2020/01/31 05:24:01.7	91.510	0.420	-0.580	0.580
2020/01/31 05:24:01.8	91.490	0.410	-0.540	0.610
2020/01/31 05:24:01.9	91.480	0.390	-0.510	0.650
2020/01/31 05:24:02.0	91.460	0.370	-0.460	0.680
2020/01/31 05:24:02.1	91.450	0.340	-0.420	0.720
2020/01/31 05:24:02.2	91.440	0.320	-0.370	0.760
2020/01/31 05:24:02.3	91.420	0.290	-0.310	0.800
2020/01/31 05:24:02.4	91.400	0.260	-0.260	0.840
2020/01/31 05:24:02.5	91.390	0.220	-0.200	0.880
2020/01/31 05:24:02.6	91.370	0.190	-0.140	0.920
2020/01/31 05:24:02.7	91.350	0.150	-0.070	0.970
2020/01/31 05:24:02.8	91.340	0.120	-0.010	1.010
2020/01/31 05:24:02.9	91.320	0.080	0.060	1.040
2020/01/31 05:24:03.0	91.310	0.030	0.120	1.080
2020/01/31 05:24:03.1	91.300	-0.010	0.190	1.120
2020/01/31 05:24:03.2	91.290	-0.050	0.250	1.150
2020/01/31 05:24:03.3	91.280	-0.090	0.310	1.180
2020/01/31 05:24:03.4	91.270	-0.140	0.370	1.200
2020/01/31 05:24:03.5	91.270	-0.180	0.430	1.220
2020/01/31 05:24:03.6	91.270	-0.220	0.480	1.240
2020/01/31 05:24:03.7	91.270	-0.260	0.520	1.250
2020/01/31 05:24:03.8	91.270	-0.300	0.560	1.250
2020/01/31 05:24:03.9	91.280	-0.340	0.590	1.250
2020/01/31 05:24:04.0	91.290	-0.370	0.610	1.240
2020/01/31 05:24:04.1	91.310	-0.400	0.630	1.230
2020/01/31 05:24:04.2	91.330	-0.430	0.630	1.210
2020/01/31 05:24:04.3	91.340	-0.460	0.640	1.190
2020/01/31 05:24:04.4	91.370	-0.480	0.630	1.160
2020/01/31 05:24:04.5	91.390	-0.500	0.610	1.130
2020/01/31 05:24:04.6	91.420	-0.510	0.590	1.100
2020/01/31 05:24:04.7	91.440	-0.520	0.560	1.070
2020/01/31 05:24:04.8	91.470	-0.530	0.530	1.030
2020/01/31 05:24:04.9	91.500	-0.530	0.490	1.000
2020/01/31 05:24:05.0	91.530	-0.530	0.440	0.960
2020/01/31 05:24:05.1	91.560	-0.530	0.390	0.930
2020/01/31 05:24:05.2	91.590	-0.520	0.340	0.890
2020/01/31 05:24:05.3	91.620	-0.510	0.280	0.860
2020/01/31 05:24:05.4	91.650	-0.490	0.220	0.830
2020/01/31 05:24:05.5	91.670	-0.470	0.150	0.800
2020/01/31 05:24:05.6	91.700	-0.450	0.090	0.770
2020/01/31 05:24:05.7	91.730	-0.420	0.030	0.740
2020/01/31 05:24:05.8	91.750	-0.400	-0.040	0.710
2020/01/31 05:24:05.9	91.770	-0.370	-0.100	0.690
2020/01/31 05:24:06.0	91.790	-0.330	-0.170	0.660
2020/01/31 05:24:06.1	91.810	-0.300	-0.230	0.640
2020/01/31 05:24:06.2	91.840	-0.270	-0.300	0.620
2020/01/31 05:24:06.3	91.850	-0.230	-0.360	0.600
2020/01/31 05:24:06.4	91.870	-0.190	-0.420	0.590
2020/01/31 05:24:06.5	91.880	-0.160	-0.470	0.580
2020/01/31 05:24:06.6	91.890	-0.120	-0.530	0.570
2020/01/31 05:24:06.7	91.900	-0.080	-0.580	0.560
2020/01/31 05:24:06.8	91.900	-0.040	-0.630	0.550
2020/01/31 05:24:06.9	91.910	-0.010	-0.670	0.550
2020/01/31 05:24:07.0	91.910	0.030	-0.720	0.540
2020/01/31 05:24:07.1	91.910	0.060	-0.750	0.540
2020/01/31 05:24:07.2	91.900	0.100	-0.790	0.550
2020/01/31 05:24:07.3	91.900	0.130	-0.820	0.550
2020/01/31 05:24:07.4	91.900	0.150	-0.850	0.560
2020/01/31 05:24:07.5	91.900	0.180	-0.860	0.560
2020/01/31 05:24:07.6	91.890	0.210	-0.880	0.570
2020/01/31 05:24:07.7	91.890	0.230	-0.890	0.590
2020/01/31 05:24:07.8	91.880	0.250	-0.890	0.600
2020/01/31 05:24:07.9	91.880	0.260	-0.880	0.620
2020/01/31 05:24:08.0	91.870	0.270	-0.870	0.630
2020/01/31 05:24:08.1	91.870	0.280	-0.850	0.650
2020/01/31 05:24:08.2	91.860	0.290	-0.820	0.670
2020/01/31 05:24:08.3	91.860	0.290	-0.790	0.690
2020/01/31 05:24:08.4	91.850	0.290	-0.760	0.710
2020/01/31 05:24:08.5	91.840	0.280	-0.710	0.730
2020/01/31 05:24:08.6	91.830	0.280	-0.660	0.760
2020/01/31 05:24:08.7	91.820	0.270	-0.610	0.780
2020/01/31 05:24:08.8	91.810	0.250	-0.560	0.800
2020/01/31 05:24:08.9	91.800	0.240	-0.490	0.820
2020/01/31 05:24:09.0	91.790	0.220	-0.430	0.830
2020/01/31 05:24:09.1	91.780	0.190	-0.360	0.850
2020/01/31 05:24:09.2	91.770	0.170	-0.300	0.870
2020/01/31 05:24:09.3	91.760	0.140	-0.230	0.880
2020/01/31 05:24:09.4	91.750	0.120	-0.160	0.890
2020/01/31 05:24:09.5	91.740	0.090	-0.100	0.890
2020/01/31 05:24:09.6	91.730	0.060	-0.040	0.900
2020/01/31 05:24:09.7	91.720	0.030	0.020	0.900
2020/01/31 05:24:09.8	91.710	0.000	0.080	0.890
2020/01/31 05:24:09.9	91.690	-0.020	0.120	0.890
2020/01/31 05:24:10.0	91.680	-0.050	0.170	0.880
2020/01/31 05:24:10.1	91.670	-0.070	0.200	0.860
2020/01/31 05:24:10.2	91.670	-0.100	0.230	0.840
2020/01/31 05:24:10.3	91.660	-0.110	0.250	0.810
2020/01/31 05:24:10.4	91.660	-0.130	0.260	0.790
2020/01/31 05:24:10.5	91.650	-0.150	0.260	0.760
2020/01/31 05:24:10.6	91.650	-0.160	0.250	0.720
2020/01/31 05:24:10.7	91.650	-0.160	0.240	0.680
2020/01/31 05:24:10.8	91.650	-0.170	0.220	0.640
2020/01/31 05:24:10.9	91.650	-0.170	0.190	0.600
2020/01/31 05:24:11.0	91.650	-0.160	0.160	0.560
2020/01/31 05:24:11.1	91.660	-0.160	0.110	0.520
2020/01/31 05:24:11.2	91.670	-0.150	0.070	0.470
2020/01/31 05:24:11.3	91.680	-0.140	0.020	0.430
2020/01/31 05:24:11.4	91.690	-0.120	-0.030	0.400
2020/01/31 05:24:11.5	91.710	-0.110	-0.080	0.370
2020/01/31 05:24:11.6	91.720	-0.090	-0.140	0.340
2020/01/31 05:24:11.7	91.730	-0.070	-0.190	0.320
2020/01/31 05:24:11.8	91.740	-0.050	-0.240	0.300
2020/01/31 05:24:11.9	91.760	-0.030	-0.290	0.290
2020/01/31 05:24:12.0	91.770	-0.010	-0.340	0.280
2020/01/31 05:24:12.1	91.780	0.010	-0.380	0.280
2020/01/31 05:24:12.2	91.790	0.030	-0.420	0.280
2020/01/31 05:24:12.3	91.800	0.050	-0.460	0.290
2020/01/31 05:24:12.4	91.810	0.070	-0.490	0.300
2020/01/31 05:24:12.5	91.820	0.090	-0.510	0.320
2020/01/31 05:24:12.6	91.830	0.110	-0.530	0.340
2020/01/31 05:24:12.7	91.840	0.120	-0.540	0.360
2020/01/31 05:24:12.8	91.850	0.140	-0.550	0.380
2020/01/31 05:24:12.9	91.850	0.150	-0.550	0.410
2020/01/31 05:24:13.0	91.860	0.160	-0.550	0.430
2020/01/31 05:24:13.1	91.860	0.170	-0.530	0.460
2020/01/31 05:24:13.2	91.860	0.180	-0.520	0.480
2020/01/31 05:24:13.3	91.870	0.180	-0.500	0.510
2020/01/31 05:24:13.4	91.870	0.190	-0.480	0.530
2020/01/31 05:24:13.5	91.870	0.190	-0.450	0.550
2020/01/31 05:24:13.6	91.870	0.180	-0.420	0.570
2020/01/31 05:24:13.7	91.880	0.180	-0.390	0.580
2020/01/31 05:24:13.8	91.880	0.180	-0.360	0.590
2020/01/31 05:24:13.9	91.880	0.170	-0.330	0.600
2020/01/31 05:24:14.0	91.890	0.160	-0.290	0.610
2020/01/31 05:24:14.1	91.890	0.150	-0.260	0.610
2020/01/31 05:24:14.2	91.900	0.150	-0.230	0.610
2020/01/31 05:24:14.3	91.900	0.140	-0.200	0.610
2020/01/31 05:24:14.4	91.910	0.120	-0.170	0.610
2020/01/31 05:24:14.5	91.910	0.110	-0.150	0.600
2020/01/31 05:24:14.6	91.920	0.100	-0.120	0.600
2020/01/31 05:24:14.7	91.930	0.090	-0.100	0.590
2020/01/31 05:24:14.8	91.940	0.080	-0.080	0.580
2020/01/31 05:24:14.9	91.950	0.070	-0.070	0.580
2020/01/31 05:24:15.0	91.960	0.060	-0.050	0.580
2020/01/31 05:24:15.1	91.970	0.050	-0.040	0.580
2020/01/31 05:24:15.2	91.970	0.040	-0.030	0.570
2020/01/31 05:24:15.3	91.980	0.030	-0.020	0.580
2020/01/31 05:24:15.4	91.990	0.020	-0.010	0.580
2020/01/31 05:24:15.5	92.000	0.010	-0.010	0.590
2020/01/31 05:24:15.6	92.010	-0.000	0.000	0.600
2020/01/31 05:24:15.7	92.010	-0.010	0.010	0.620
2020/01/31 05:24:15.8	92.020	-0.020	0.010	0.630
2020/01/31 05:24:15.9	92.030	-0.030	0.020	0.650
2020/01/31 05:24:16.0	92.030	-0.040	0.030	0.670
2020/01/31 05:24:16.1	92.040	-0.050	0.040	0.680
2020/01/31 05:24:16.2	92.040	-0.060	0.050	0.700
2020/01/31 05:24:16.3	92.050	-0.070	0.060	0.710
2020/01/31 05:24:16.4	92.050	-0.090	0.070	0.720
2020/01/31 05:24:16.5	92.060	-0.100	0.080	0.730
2020/01/31 05:24:16.6	92.060	-0.110	0.090	0.740
2020/01/31 05:24:16.7	92.070	-0.120	0.100	0.740
2020/01/31 05:24:16.8	92.070	-0.130	0.110	0.750
2020/01/31 05:24:16.9	92.070	-0.140	0.120	0.750
2020/01/31 05:24:17.0	92.080	-0.150	0.120	0.750
2020/01/31 05:24:17.1	92.080	-0.170	0.130	0.740
2020/01/31 05:24:17.2	92.080	-0.180	0.130	0.730
2020/01/31 05:24:17.3	92.090	-0.190	0.130	0.730
2020/01/31 05:24:17.4	92.090	-0.190	0.120	0.720
2020/01/31 05:24:17.5	92.090	-0.200	0.120	0.710
2020/01/31 05:24:17.6	92.100	-0.210	0.110	0.700
2020/01/31 05:24:17.7	92.100	-0.210	0.100	0.690
2020/01/31 05:24:17.8	92.100	-0.210	0.080	0.680
2020/01/31 05:24:17.9	92.110	-0.210	0.060	0.680
2020/01/31 05:24:18.0	92.110	-0.210	0.030	0.670
2020/01/31 05:24:18.1	92.110	-0.210	0.000	0.660
2020/01/31 05:24:18.2	92.120	-0.200	-0.030	0.660
2020/01/31 05:24:18.3	92.120	-0.200	-0.070	0.650
2020/01/31 05:24:18.4	92.130	-0.190	-0.110	0.650
2020/01/31 05:24:18.5	92.130	-0.170	-0.160	0.640
2020/01/31 05:24:18.6	92.130	-0.160	-0.200	0.640
2020/01/31 05:24:18.7	92.130	-0.150	-0.250	0.640
2020/01/31 05:24:18.8	92.130	-0.130	-0.300	0.640
2020/01/31 05:24:18.9	92.130	-0.110	-0.350	0.640
2020/01/31 05:24:19.0	92.130	-0.090	-0.390	0.640
2020/01/31 05:24:19.1	92.130	-0.070	-0.440	0.640
2020/01/31 05:24:19.2	92.120	-0.050	-0.490	0.640
2020/01/31 05:24:19.3	92.120	-0.030	-0.530	0.650
2020/01/31 05:24:19.4	92.110	-0.010	-0.570	0.650
2020/01/31 05:24:19.5	92.100	0.010	-0.600	0.650
2020/01/31 05:24:19.6	92.090	0.030	-0.640	0.650
2020/01/31 05:24:19.7	92.080	0.050	-0.670	0.650
2020/01/31 05:24:19.8	92.070	0.060	-0.690	0.640
2020/01/31 05:24:19.9	92.060	0.080	-0.710	0.640
2020/01/31 05:24:20.0	92.050	0.100	-0.720	0.630
2020/01/31 05:24:20.1	92.040	0.110	-0.730	0.620
2020/01/31 05:24:20.2	92.030	0.120	-0.730	0.610
2020/01/31 05:24:20.3	92.020	0.130	-0.730	0.590
2020/01/31 05:24:20.4	92.010	0.140	-0.720	0.580
2020/01/31 05:24:20.5	92.010	0.140	-0.700	0.560
2020/01/31 05:24:20.6	92.000	0.140	-0.680	0.550
2020/01/31 05:24:20.7	92.000	0.140	-0.660	0.530
2020/01/31 05:24:20.8	91.990	0.140	-0.630	0.510
2020/01/31 05:24:20.9	91.990	0.140	-0.600	0.490
2020/01/31 05:24:21.0	91.990	0.140	-0.560	0.480
2020/01/31 05:24:21.1	91.990	0.130	-0.520	0.460
2020/01/31 05:24:21.2	92.000	0.120	-0.470	0.450
2020/01/31 05:24:21.3	92.000	0.110	-0.430	0.440
2020/01/31 05:24:21.4	92.010	0.100	-0.380	0.430
2020/01/31 05:24:21.5	92.020	0.090	-0.340	0.430
2020/01/31 05:24:21.6	92.020	0.080	-0.290	0.420
2020/01/31 05:24:21.7	92.030	0.070	-0.250	0.420
2020/01/31 05:24:21.8	92.040	0.050	-0.200	0.420
2020/01/31 05:24:21.9	92.050	0.040	-0.170	0.420
2020/01/31 05:24:22.0	92.070	0.030	-0.130	0.430
2020/01/31 05:24:22.1	92.080	0.020	-0.100	0.430
2020/01/31 05:24:22.2	92.090	0.010	-0.070	0.430
2020/01/31 05:24:22.3	92.110	0.000	-0.050	0.440
2020/01/31 05:24:22.4	92.120	-0.000	-0.030	0.440
2020/01/31 05:24:22.5	92.140	-0.010	-0.020	0.450
2020/01/31 05:24:22.6	92.160	-0.010	-0.020	0.450
2020/01/31 05:24:22.7	92.170	-0.010	-0.020	0.450
2020/01/31 05:24:22.8	92.190	-0.000	-0.030	0.450
2020/01/31 05:24:22.9	92.210	0.000	-0.050	0.460
2020/01/31 05:24:23.0	92.230	0.010	-0.070	0.460
2020/01/31 05:24:23.1	92.250	0.030	-0.100	0.460
2020/01/31 05:24:23.2	92.260	0.040	-0.130	0.460
2020/01/31 05:24:23.3	92.280	0.060	-0.170	0.450
2020/01/31 05:24:23.4	92.300	0.080	-0.210	0.450
2020/01/31 05:24:23.5	92.320	0.100	-0.250	0.450
2020/01/31 05:24:23.6	92.340	0.120	-0.290	0.450
2020/01/31 05:24:23.7	92.360	0.150	-0.330	0.450
2020/01/31 05:24:23.8	92.370	0.180	-0.370	0.450
2020/01/31 05:24:23.9	92.390	0.200	-0.410	0.460
2020/01/31 05:24:24.0	92.400	0.230	-0.450	0.460
2020/01/31 05:24:24.1	92.410	0.260	-0.480	0.470
2020/01/31 05:24:24.2	92.430	0.280	-0.510	0.480
2020/01/31 05:24:24.3	92.430	0.300	-0.530	0.490
2020/01/31 05:24:24.4	92.440	0.320	-0.550	0.500
2020/01/31 05:24:24.5	92.440	0.340	-0.560	0.520
2020/01/31 05:24:24.6	92.440	0.360	-0.560	0.540
2020/01/31 05:24:24.7	92.440	0.370	-0.560	0.570
2020/01/31 05:24:24.8	92.430	0.380	-0.550	0.600
2020/01/31 05:24:24.9	92.420	0.380	-0.540	0.630
2020/01/31 05:24:25.0	92.410	0.380	-0.510	0.660
2020/01/31 05:24:25.1	92.400	0.380	-0.480	0.690
2020/01/31 05:24:25.2	92.390	0.370	-0.450	0.730
2020/01/31 05:24:25.3	92.380	0.360	-0.410	0.770
2020/01/31 05:24:25.4	92.360	0.340	-0.360	0.800
2020/01/31 05:24:25.5	92.340	0.320	-0.310	0.840
2020/01/31 05:24:25.6	92.330	0.300	-0.260	0.880
2020/01/31 05:24:25.7	92.310	0.270	-0.200	0.920
2020/01/31 05:24:25.8	92.290	0.230	-0.150	0.960
2020/01/31 05:24:25.9	92.280	0.200	-0.090	0.990
2020/01/31 05:24:26.0	92.270	0.160	-0.020	1.030
2020/01/31 05:24:26.1	92.250	0.120	0.040	1.060
2020/01/31 05:24:26.2	92.240	0.080	0.100	1.080
2020/01/31 05:24:26.3	92.230	0.030	0.160	1.110
2020/01/31 05:24:26.4	92.230	-0.010	0.210	1.130
2020/01/31 05:24:26.5	92.220	-0.060	0.270	1.150
2020/01/31 05:24:26.6	92.220	-0.110	0.320	1.160
2020/01/31 05:24:26.7	92.230	-0.150	0.360	1.170
2020/01/31 05:24:26.8	92.230	-0.200	0.400	1.180
2020/01/31 05:24:26.9	92.240	-0.240	0.440	1.180
2020/01/31 05:24:27.0	92.250	-0.280	0.470	1.170
2020/01/31 05:24:27.1	92.270	-0.320	0.490	1.170
2020/01/31 05:24:27.2	92.280	-0.360	0.510	1.150
2020/01/31 05:24:27.3	92.300	-0.390	0.520	1.140
2020/01/31 05:24:27.4	92.320	-0.420	0.520	1.120
2020/01/31 05:24:27.5	92.340	-0.450	0.510	1.100
2020/01/31 05:24:27.6	92.360	-0.470	0.500	1.080
2020/01/31 05:24:27.7	92.390	-0.490	0.480	1.060
2020/01/31 05:24:27.8	92.410	-0.500	0.460	1.040
2020/01/31 05:24:27.9	92.430	-0.510	0.430	1.010
2020/01/31 05:24:28.0	92.460	-0.520	0.390	0.990
2020/01/31 05:24:28.1	92.480	-0.520	0.350	0.970
2020/01/31 05:24:28.2	92.500	-0.520	0.300	0.950
2020/01/31 05:24:28.3	92.520	-0.510	0.250	0.920
2020/01/31 05:24:28.4	92.540	-0.500	0.200	0.910
2020/01/31 05:24:28.5	92.560	-0.490	0.150	0.890
2020/01/31 05:24:28.6	92.570	-0.470	0.090	0.870
2020/01/31 05:24:28.7	92.580	-0.450	0.030	0.860
2020/01/31 05:24:28.8	92.590	-0.430	-0.020	0.850
2020/01/31 05:24:28.9	92.600	-0.400	-0.080	0.840
2020/01/31 05:24:29.0	92.600	-0.370	-0.140	0.830
2020/01/31 05:24:29.1	92.610	-0.350	-0.190	0.830
2020/01/31 05:24:29.2	92.600	-0.320	-0.250	0.830
2020/01/31 05:24:29.3	92.600	-0.290	-0.290	0.820
2020/01/31 05:24:29.4	92.590	-0.250	-0.340	0.820
2020/01/31 05:24:29.5	92.590	-0.220	-0.380	0.820
2020/01/31 05:24:29.6	92.580	-0.190	-0.420	0.820
2020/01/31 05:24:29.7	92.570	-0.160	-0.450	0.820
2020/01/31 05:24:29.8	92.550	-0.130	-0.480	0.830
2020/01/31 05:24:29.9	92.540	-0.100	-0.510	0.830
2020/01/31 05:24:30.0	92.530	-0.070	-0.530	0.830
2020/01/31 05:24:30.1	92.510	-0.040	-0.550	0.830
2020/01/31 05:24:30.2	92.510	-0.020	-0.570	0.840
2020/01/31 05:24:30.3	92.490	0.010	-0.580	0.840
2020/01/31 05:24:30.4	92.480	0.030	-0.590	0.840
2020/01/31 05:24:30.5	92.460	0.050	-0.600	0.850
2020/01/31 05:24:30.6	92.450	0.070	-0.600	0.850
2020/01/31 05:24:30.7	92.440	0.090	-0.600	0.850
2020/01/31 05:24:30.8	92.430	0.110	-0.600	0.850
2020/01/31 05:24:30.9	92.420	0.130	-0.610	0.840
2020/01/31 05:24:31.0	92.410	0.150	-0.600	0.840
2020/01/31 05:24:31.1	92.410	0.160	-0.600	0.830
2020/01/31 05:24:31.2	92.410	0.180	-0.600	0.830
2020/01/31 05:24:31.3	92.410	0.190	-0.600	0.820
2020/01/31 05:24:31.4	92.410	0.200	-0.600	0.810
2020/01/31 05:24:31.5	92.420	0.220	-0.600	0.790
2020/01/31 05:24:31.6	92.430	0.230	-0.600	0.780
2020/01/31 05:24:31.7	92.440	0.240	-0.600	0.760
2020/01/31 05:24:31.8	92.460	0.250	-0.600	0.750
2020/01/31 05:24:31.9	92.480	0.270	-0.600	0.730
2020/01/31 05:24:32.0	92.500	0.280	-0.610	0.710
2020/01/31 05:24:32.1	92.520	0.290	-0.610	0.680
2020/01/31 05:24:32.2	92.550	0.300	-0.620	0.660
2020/01/31 05:24:32.3	92.570	0.310	-0.620	0.630
2020/01/31 05:24:32.4	92.600	0.320	-0.630	0.610
2020/01/31 05:24:32.5	92.630	0.340	-0.630	0.580
2020/01/31 05:24:32.6	92.660	0.350	-0.630	0.550
2020/01/31 05:24:32.7	92.690	0.360	-0.640	0.530
2020/01/31 05:24:32.8	92.720	0.370	-0.630	0.500
2020/01/31 05:24:32.9	92.750	0.370	-0.630	0.470
2020/01/31 05:24:33.0	92.780	0.380	-0.630	0.450
2020/01/31 05:24:33.1	92.810	0.390	-0.620	0.430
2020/01/31 05:24:33.2	92.830	0.390	-0.600	0.410
2020/01/31 05:24:33.3	92.860	0.390	-0.590	0.390
2020/01/31 05:24:33.4	92.880	0.400	-0.570	0.380
2020/01/31 05:24:33.5	92.900	0.390	-0.540	0.370
2020/01/31 05:24:33.6	92.910	0.390	-0.520	0.360
2020/01/31 05:24:33.7	92.920	0.390	-0.480	0.360
2020/01/31 05:24:33.8	92.930	0.380	-0.450	0.370
2020/01/31 05:24:33.9	92.940	0.370	-0.410	0.380
2020/01/31 05:24:34.0	92.940	0.360	-0.360	0.390
2020/01/31 05:24:34.1	92.930	0.350	-0.320	0.410
2020/01/31 05:24:34.2	92.930	0.330	-0.270	0.440
2020/01/31 05:24:34.3	92.920	0.310	-0.210	0.470
2020/01/31 05:24:34.4	92.900	0.290	-0.160	0.510
2020/01/31 05:24:34.5	92.890	0.270	-0.110	0.550
2020/01/31 05:24:34.6	92.870	0.240	-0.050	0.590
2020/01/31 05:24:34.7	92.840	0.220	0.010	0.640
2020/01/31 05:24:34.8	92.820	0.190	0.060	0.690
2020/01/31 05:24:34.9	92.800	0.160	0.110	0.740
2020/01/31 05:24:35.0	92.770	0.130	0.160	0.790
2020/01/31 05:24:35.1	92.750	0.100	0.210	0.830
2020/01/31 05:24:35.2	92.720	0.070	0.260	0.880
2020/01/31 05:24:35.3	92.690	0.030	0.300	0.920
2020/01/31 05:24:35.4	92.670	-0.000	0.330	0.970
2020/01/31 05:24:35.5	92.650	-0.040	0.360	1.000
2020/01/31 05:24:35.6	92.630	-0.070	0.380	1.040
2020/01/31 05:24:35.7	92.610	-0.100	0.400	1.070
2020/01/31 05:24:35.8	92.590	-0.140	0.410	1.100
2020/01/31 05:24:35.9	92.570	-0.170	0.420	1.120
2020/01/31 05:24:36.0	92.550	-0.200	0.410	1.140
2020/01/31 05:24:36.1	92.530	-0.230	0.410	1.160
2020/01/31 05:24:36.2	92.520	-0.260	0.390	1.170
2020/01/31 05:24:36.3	92.510	-0.290	0.370	1.180
2020/01/31 05:24:36.4	92.500	-0.310	0.340	1.180
2020/01/31 05:24:36.5	92.490	-0.340	0.310	1.180
2020/01/31 05:24:36.6	92.480	-0.360	0.270	1.170
2020/01/31 05:24:36.7	92.470	-0.380	0.220	1.160
2020/01/31 05:24:36.8	92.460	-0.390	0.180	1.150
2020/01/31 05:24:36.9	92.460	-0.410	0.120	1.130
2020/01/31 05:24:37.0	92.450	-0.420	0.070	1.110
2020/01/31 05:24:37.1	92.450	-0.420	0.010	1.090
2020/01/31 05:24:37.2	92.440	-0.430	-0.050	1.060
2020/01/31 05:24:37.3	92.440	-0.430	-0.110	1.040
2020/01/31 05:24:37.4	92.450	-0.430	-0.170	1.010
2020/01/31 05:24:37.5	92.450	-0.420	-0.230	0.980
2020/01/31 05:24:37.6	92.450	-0.420	-0.280	0.950
2020/01/31 05:24:37.7	92.460	-0.410	-0.340	0.920
2020/01/31 05:24:37.8	92.470	-0.390	-0.390	0.890
2020/01/31 05:24:37.9	92.480	-0.380	-0.430	0.860
2020/01/31 05:24:38.0	92.490	-0.360	-0.470	0.820
2020/01/31 05:24:38.1	92.500	-0.340	-0.510	0.790
2020/01/31 05:24:38.2	92.510	-0.320	-0.540	0.760
2020/01/31 05:24:38.3	92.530	-0.290	-0.570	0.720
2020/01/31 05:24:38.4	92.540	-0.260	-0.590	0.690
2020/01/31 05:24:38.5	92.560	-0.240	-0.610	0.660
2020/01/31 05:24:38.6	92.580	-0.210	-0.630	0.620
2020/01/31 05:24:38.7	92.600	-0.170	-0.640	0.590
2020/01/31 05:24:38.8	92.620	-0.140	-0.640	0.570
2020/01/31 05:24:38.9	92.640	-0.110	-0.650	0.540
2020/01/31 05:24:39.0	92.660	-0.080	-0.650	0.510
2020/01/31 05:24:39.1	92.680	-0.040	-0.640	0.490
2020/01/31 05:24:39.2	92.690	-0.010	-0.640	0.470
2020/01/31 05:24:39.3	92.710	0.030	-0.630	0.460
2020/01/31 05:24:39.4	92.730	0.060	-0.630	0.440
2020/01/31 05:24:39.5	92.750	0.100	-0.620	0.430
2020/01/31 05:24:39.6	92.760	0.130	-0.610	0.420
2020/01/31 05:24:39.7	92.770	0.160	-0.600	0.410
2020/01/31 05:24:39.8	92.790	0.190	-0.590	0.400
2020/01/31 05:24:39.9	92.790	0.220	-0.570	0.400
2020/01/31 05:24:40.0	92.800	0.250	-0.560	0.400
2020/01/31 05:24:40.1	92.810	0.280	-0.550	0.400
2020/01/31 05:24:40.2	92.810	0.300	-0.540	0.400
2020/01/31 05:24:40.3	92.810	0.320	-0.520	0.410
2020/01/31 05:24:40.4	92.810	0.340	-0.500	0.420
2020/01/31 05:24:40.5	92.810	0.350	-0.480	0.430
2020/01/31 05:24:40.6	92.810	0.360	-0.460	0.450
2020/01/31 05:24:40.7	92.800	0.370	-0.440	0.470
2020/01/31 05:24:40.8	92.800	0.380	-0.420	0.480
2020/01/31 05:24:40.9	92.790	0.380	-0.390	0.510
2020/01/31 05:24:41.0	92.780	0.380	-0.360	0.530
2020/01/31 05:24:41.1	92.780	0.380	-0.330	0.550
2020/01/31 05:24:41.2	92.770	0.370	-0.300	0.580
2020/01/31 05:24:41.3	92.770	0.360	-0.260	0.600
2020/01/31 05:24:41.4	92.760	0.350	-0.230	0.630
2020/01/31 05:24:41.5	92.750	0.330	-0.190	0.650
2020/01/31 05:24:41.6	92.740	0.310	-0.140	0.670
2020/01/31 05:24:41.7	92.740	0.290	-0.100	0.700
2020/01/31 05:24:41.8	92.730	0.270	-0.050	0.710
2020/01/31 05:24:41.9	92.720	0.240	-0.010	0.730
2020/01/31 05:24:42.0	92.720	0.210	0.040	0.750
2020/01/31 05:24:42.1	92.710	0.180	0.100	0.760
2020/01/31 05:24:42.2	92.710	0.150	0.150	0.770
2020/01/31 05:24:42.3	92.700	0.120	0.200	0.770
2020/01/31 05:24:42.4	92.690	0.080	0.250	0.780
2020/01/31 05:24:42.5	92.690	0.040	0.300	0.780
2020/01/31 05:24:42.6	92.680	0.010	0.350	0.780
2020/01/31 05:24:42.7	92.670	-0.030	0.400	0.770
2020/01/31 05:24:42.8	92.660	-0.070	0.450	0.770
2020/01/31 05:24:42.9	92.660	-0.100	0.490	0.760
2020/01/31 05:24:43.0	92.650	-0.140	0.530	0.750
2020/01/31 05:24:43.1	92.640	-0.170	0.570	0.740
2020/01/31 05:24:43.2	92.630	-0.210	0.600	0.730
2020/01/31 05:24:43.3	92.620	-0.240	0.620	0.720
2020/01/31 05:24:43.4	92.610	-0.260	0.630	0.710
2020/01/31 05:24:43.5	92.600	-0.290	0.640	0.700
2020/01/31 05:24:43.6	92.590	-0.310	0.640	0.690
2020/01/31 05:24:43.7	92.580	-0.330	0.630	0.680
2020/01/31 05:24:43.8	92.570	-0.340	0.610	0.670
2020/01/31 05:24:43.9	92.560	-0.350	0.580	0.660
2020/01/31 05:24:44.0	92.560	-0.350	0.540	0.650
2020/01/31 05:24:44.1	92.550	-0.350	0.490	0.640
2020/01/31 05:24:44.2	92.550	-0.350	0.430	0.640
2020/01/31 05:24:44.3	92.550	-0.340	0.360	0.630
2020/01/31 05:24:44.4	92.550	-0.320	0.280	0.620
2020/01/31 05:24:44.5	92.550	-0.300	0.190	0.610
2020/01/31 05:24:44.6	92.560	-0.280	0.100	0.600
2020/01/31 05:24:44.7	92.560	-0.250	-0.010	0.580
2020/01/31 05:24:44.8	92.570	-0.220	-0.120	0.570
2020/01/31 05:24:44.9	92.580	-0.180	-0.230	0.560
2020/01/31 05:24:45.0	92.590	-0.140	-0.350	0.550
2020/01/31 05:24:45.1	92.610	-0.100	-0.470	0.530
2020/01/31 05:24:45.2	92.620	-0.060	-0.590	0.520
2020/01/31 05:24:45.3	92.630	-0.020	-0.710	0.510
2020/01/31 05:24:45.4	92.650	0.030	-0.830	0.490
2020/01/31 05:24:45.5	92.660	0.070	-0.940	0.480
2020/01/31 05:24:45.6	92.670	0.120	-1.050	0.470
2020/01/31 05:24:45.7	92.680	0.160	-1.150	0.460
2020/01/31 05:24:45.8	92.690	0.200	-1.250	0.460
2020/01/31 05:24:45.9	92.700	0.240	-1.330	0.450
2020/01/31 05:24:46.0	92.710	0.280	-1.410	0.450
2020/01/31 05:24:46.1	92.710	0.320	-1.470	0.440
2020/01/31 05:24:46.2	92.710	0.350	-1.520	0.440
2020/01/31 05:24:46.3	92.710	0.370	-1.550	0.450
2020/01/31 05:24:46.4	92.710	0.400	-1.570	0.450
2020/01/31 05:24:46.5	92.710	0.410	-1.580	0.460
2020/01/31 05:24:46.6	92.710	0.430	-1.570	0.470
2020/01/31 05:24:46.7	92.700	0.430	-1.540	0.490
2020/01/31 05:24:46.8	92.690	0.430	-1.500	0.510
2020/01/31 05:24:46.9	92.690	0.430	-1.440	0.530
2020/01/31 05:24:47.0	92.680	0.420	-1.360	0.550
2020/01/31 05:24:47.1	92.660	0.400	-1.280	0.580
2020/01/31 05:24:47.2	92.650	0.380	-1.170	0.600
2020/01/31 05:24:47.3	92.640	0.360	-1.060	0.630
2020/01/31 05:24:47.4	92.620	0.320	-0.930	0.670
2020/01/31 05:24:47.5	92.610	0.290	-0.800	0.700
2020/01/31 05:24:47.6	92.600	0.250	-0.660	0.740
2020/01/31 05:24:47.7	92.580	0.200	-0.510	0.770
2020/01/31 05:24:47.8	92.570	0.150	-0.360	0.810
2020/01/31 05:24:47.9	92.560	0.100	-0.210	0.850
2020/01/31 05:24:48.0	92.550	0.050	-0.050	0.890
2020/01/31 05:24:48.1	92.530	-0.010	0.100	0.920
2020/01/31 05:24:48.2	92.530	-0.070	0.260	0.960
2020/01/31 05:24:48.3	92.520	-0.130	0.400	0.990
2020/01/31 05:24:48.4	92.510	-0.190	0.540	1.020
2020/01/31 05:24:48.5	92.500	-0.250	0.670	1.050
2020/01/31 05:24:48.6	92.500	-0.300	0.800	1.080
2020/01/31 05:24:48.7	92.500	-0.360	0.910	1.100
2020/01/31 05:24:48.8	92.490	-0.410	1.010	1.120
2020/01/31 05:24:48.9	92.490	-0.460	1.090	1.140
2020/01/31 05:24:49.0	92.500	-0.510	1.160	1.150
2020/01/31 05:24:49.1	92.500	-0.550	1.220	1.150
2020/01/31 05:24:49.2	92.500	-0.590	1.270	1.160
2020/01/31 05:24:49.3	92.510	-0.620	1.290	1.150
2020/01/31 05:24:49.4	92.520	-0.640	1.300	1.150
2020/01/31 05:24:49.5	92.530	-0.660	1.290	1.130
2020/01/31 05:24:49.6	92.540	-0.670	1.260	1.120
2020/01/31 05:24:49.7	92.550	-0.680	1.220	1.100
2020/01/31 05:24:49.8	92.570	-0.670	1.160	1.080
2020/01/31 05:24:49.9	92.580	-0.660	1.080	1.050
2020/01/31 05:24:50.0	92.600	-0.650	0.990	1.020
2020/01/31 05:24:50.1	92.610	-0.620	0.890	0.990
2020/01/31 05:24:50.2	92.620	-0.590	0.770	0.960
2020/01/31 05:24:50.3	92.640	-0.550	0.650	0.930
2020/01/31 05:24:50.4	92.650	-0.510	0.520	0.900
2020/01/31 05:24:50.5	92.660	-0.460	0.380	0.870
2020/01/31 05:24:50.6	92.670	-0.400	0.230	0.830
2020/01/31 05:24:50.7	92.680	-0.340	0.080	0.800
2020/01/31 05:24:50.8	92.690	-0.280	-0.070	0.770
2020/01/31 05:24:50.9	92.700	-0.210	-0.220	0.750
2020/01/31 05:24:51.0	92.700	-0.140	-0.370	0.720
2020/01/31 05:24:51.1	92.710	-0.070	-0.520	0.690
2020/01/31 05:24:51.2	92.710	0.000	-0.670	0.670
2020/01/31 05:24:51.3	92.710	0.080	-0.810	0.640
2020/01/31 05:24:51.4	92.710	0.150	-0.930	0.620
2020/01/31 05:24:51.5	92.710	0.220	-1.050	0.600
2020/01/31 05:24:51.6	92.710	0.290	-1.160	0.590
2020/01/31 05:24:51.7	92.710	0.360	-1.250	0.570
2020/01/31 05:24:51.8	92.700	0.420	-1.340	0.560
2020/01/31 05:24:51.9	92.700	0.480	-1.400	0.550
2020/01/31 05:24:52.0	92.690	0.530	-1.460	0.550
2020/01/31 05:24:52.1	92.680	0.580	-1.500	0.550
2020/01/31 05:24:52.2	92.660	0.620	-1.520	0.550
2020/01/31 05:24:52.3	92.650	0.660	-1.530	0.560
2020/01/31 05:24:52.4	92.640	0.690	-1.520	0.570
2020/01/31 05:24:52.5	92.630	0.710	-1.500	0.580
2020/01/31 05:24:52.6	92.610	0.730	-1.470	0.600
2020/01/31 05:24:52.7	92.600	0.730	-1.420	0.620
2020/01/31 05:24:52.8	92.580	0.730	-1.360	0.640
2020/01/31 05:24:52.9	92.570	0.730	-1.290	0.660
2020/01/31 05:24:53.0	92.550	0.710	-1.210	0.680
2020/01/31 05:24:53.1	92.530	0.690	-1.130	0.710
2020/01/31 05:24:53.2	92.520	0.670	-1.030	0.730
2020/01/31 05:24:53.3	92.500	0.630	-0.930	0.760
2020/01/31 05:24:53.4	92.490	0.590	-0.820	0.780
2020/01/31 05:24:53.5	92.470	0.550	-0.710	0.800
2020/01/31 05:24:53.6	92.460	0.500	-0.600	0.820
2020/01/31 05:24:53.7	92.440	0.450	-0.490	0.840
2020/01/31 05:24:53.8	92.430	0.390	-0.380	0.860
2020/01/31 05:24:53.9	92.420	0.330	-0.270	0.870
2020/01/31 05:24:54.0	92.410	0.270	-0.160	0.880
2020/01/31 05:24:54.1	92.400	0.210	-0.060	0.890
2020/01/31 05:24:54.2	92.390	0.150	0.040	0.880
2020/01/31 05:24:54.3	92.380	0.090	0.120	0.880
2020/01/31 05:24:54.4	92.380	0.030	0.200	0.880
2020/01/31 05:24:54.5	92.370	-0.030	0.270	0.870
2020/01/31 05:24:54.6	92.370	-0.080	0.340	0.860
2020/01/31 05:24:54.7	92.370	-0.130	0.390	0.840
2020/01/31 05:24:54.8	92.380	-0.180	0.430	0.820
2020/01/31 05:24:54.9	92.380	-0.230	0.470	0.800
2020/01/31 05:24:55.0	92.390	-0.270	0.490	0.780
2020/01/31 05:24:55.1	92.390	-0.310	0.500	0.760
2020/01/31 05:24:55.2	92.400	-0.340	0.510	0.740
2020/01/31 05:24:55.3	92.410	-0.370	0.510	0.720
2020/01/31 05:24:55.4	92.420	-0.390	0.500	0.700
2020/01/31 05:24:55.5	92.430	-0.410	0.480	0.690
2020/01/31 05:24:55.6	92.440	-0.420	0.460	0.670
2020/01/31 05:24:55.7	92.450	-0.430	0.420	0.660
2020/01/31 05:24:55.8	92.460	-0.430	0.390	0.650
2020/01/31 05:24:55.9	92.470	-0.430	0.340	0.640
2020/01/31 05:24:56.0	92.480	-0.430	0.290	0.640
2020/01/31 05:24:56.1	92.490	-0.420	0.240	0.630
2020/01/31 05:24:56.2	92.510	-0.410	0.180	0.630
2020/01/31 05:24:56.3	92.520	-0.390	0.120	0.630
2020/01/31 05:24:56.4	92.530	-0.370	0.060	0.640
2020/01/31 05:24:56.5	92.550	-0.350	-0.010	0.640
2020/01/31 05:24:56.6	92.570	-0.330	-0.070	0.650
2020/01/31 05:24:56.7	92.590	-0.300	-0.140	0.650
2020/01/31 05:24:56.8	92.610	-0.270	-0.200	0.660
2020/01/31 05:24:56.9	92.630	-0.240	-0.260	0.660
2020/01/31 05:24:57.0	92.660	-0.210	-0.310	0.670
2020/01/31 05:24:57.1	92.680	-0.180	-0.370	0.670
2020/01/31 05:24:57.2	92.710	-0.160	-0.420	0.680
2020/01/31 05:24:57.3	92.740	-0.130	-0.460	0.680
2020/01/31 05:24:57.4	92.760	-0.110	-0.490	0.690
2020/01/31 05:24:57.5	92.790	-0.080	-0.520	0.700
2020/01/31 05:24:57.6	92.820	-0.060	-0.540	0.700
2020/01/31 05:24:57.7	92.850	-0.050	-0.550	0.710
2020/01/31 05:24:57.8	92.870	-0.030	-0.550	0.720
2020/01/31 05:24:57.9	92.890	-0.020	-0.540	0.730
2020/01/31 05:24:58.0	92.910	-0.020	-0.520	0.740
2020/01/31 05:24:58.1	92.930	-0.010	-0.500	0.750
2020/01/31 05:24:58.2	92.950	-0.010	-0.470	0.760
2020/01/31 05:24:58.3	92.960	-0.020	-0.430	0.780
2020/01/31 05:24:58.4	92.970	-0.030	-0.380	0.800
2020/01/31 05:24:58.5	92.970	-0.040	-0.330	0.820
2020/01/31 05:24:58.6	92.970	-0.050	-0.270	0.840
2020/01/31 05:24:58.7	92.970	-0.070	-0.200	0.860
2020/01/31 05:24:58.8	92.970	-0.080	-0.140	0.880
2020/01/31 05:24:58.9	92.960	-0.110	-0.070	0.910
2020/01/31 05:24:59.0	92.940	-0.130	0.010	0.930
2020/01/31 05:24:59.1	92.920	-0.150	0.080	0.960
2020/01/31 05:24:59.2	92.910	-0.180	0.150	0.990
2020/01/31 05:24:59.3	92.880	-0.210	0.220	1.010
2020/01/31 05:24:59.4	92.850	-0.230	0.290	1.030
2020/01/31 05:24:59.5	92.820	-0.260	0.360	1.060
2020/01/31 05:24:59.6	92.790	-0.280	0.420	1.080
2020/01/31 05:24:59.7	92.760	-0.310	0.470	1.090
2020/01/31 05:24:59.8	92.730	-0.330	0.510	1.100
2020/01/31 05:24:59.9	92.700	-0.350	0.550	1.110
2020/01/31 05:25:00.0	92.680	-0.360	0.580	1.110
2020/01/31 05:25:00.1	92.650	-0.380	0.600	1.110
2020/01/31 05:25:00.2	92.630	-0.390	0.610	1.090
2020/01/31 05:25:00.3	92.610	-0.390	0.610	1.080
2020/01/31 05:25:00.4	92.590	-0.400	0.600	1.060
2020/01/31 05:25:00.5	92.580	-0.390	0.580	1.030
2020/01/31 05:25:00.6	92.570	-0.390	0.550	1.000
2020/01/31 05:25:00.7	92.560	-0.380	0.510	0.960
2020/01/31 05:25:00.8	92.560	-0.360	0.470	0.920
2020/01/31 05:25:00.9	92.560	-0.350	0.410	0.880
2020/01/31 05:25:01.0	92.560	-0.330	0.350	0.840
2020/01/31 05:25:01.1	92.570	-0.300	0.280	0.790
2020/01/31 05:25:01.2	92.580	-0.270	0.200	0.740
2020/01/31 05:25:01.3	92.580	-0.240	0.120	0.700
2020/01/31 05:25:01.4	92.590	-0.210	0.040	0.650
2020/01/31 05:25:01.5	92.600	-0.170	-0.050	0.600
2020/01/31 05:25:01.6	92.610	-0.140	-0.130	0.560
2020/01/31 05:25:01.7	92.620	-0.100	-0.220	0.510
2020/01/31 05:25:01.8	92.630	-0.060	-0.310	0.470
2020/01/31 05:25:01.9	92.640	-0.020	-0.390	0.430
2020/01/31 05:25:02.0	92.640	0.010	-0.480	0.380
2020/01/31 05:25:02.1	92.650	0.050	-0.560	0.340
2020/01/31 05:25:02.2	92.660	0.090	-0.630	0.300
2020/01/31 05:25:02.3	92.660	0.120	-0.700	0.260
2020/01/31 05:25:02.4	92.670	0.150	-0.770	0.220
2020/01/31 05:25:02.5	92.670	0.190	-0.830	0.180
2020/01/31 05:25:02.6	92.670	0.220	-0.880	0.150
2020/01/31 05:25:02.7	92.670	0.240	-0.930	0.110
2020/01/31 05:25:02.8	92.670	0.270	-0.970	0.080
2020/01/31 05:25:02.9	92.670	0.300	-1.000	0.050
2020/01/31 05:25:03.0	92.660	0.320	-1.030	0.030
2020/01/31 05:25:03.1	92.660	0.340	-1.050	0.010
2020/01/31 05:25:03.2	92.650	0.360	-1.060	-0.010
2020/01/31 05:25:03.3	92.640	0.370	-1.060	-0.020
2020/01/31 05:25:03.4	92.630	0.390	-1.060	-0.030
2020/01/31 05:25:03.5	92.620	0.400	-1.050	-0.030
2020/01/31 05:25:03.6	92.610	0.410	-1.040	-0.030
2020/01/31 05:25:03.7	92.600	0.420	-1.020	-0.020
2020/01/31 05:25:03.8	92.590	0.430	-1.000	-0.010
2020/01/31 05:25:03.9	92.580	0.440	-0.970	0.000
2020/01/31 05:25:04.0	92.570	0.440	-0.940	0.020
2020/01/31 05:25:04.1	92.560	0.450	-0.910	0.050
2020/01/31 05:25:04.2	92.550	0.450	-0.880	0.080
2020/01/31 05:25:04.3	92.540	0.460	-0.840	0.110
2020/01/31 05:25:04.4	92.530	0.460	-0.800	0.140
2020/01/31 05:25:04.5	92.520	0.460	-0.770	0.180
2020/01/31 05:25:04.6	92.510	0.460	-0.730	0.220
2020/01/31 05:25:04.7	92.500	0.460	-0.700	0.260
2020/01/31 05:25:04.8	92.500	0.460	-0.660	0.300
2020/01/31 05:25:04.9	92.490	0.460	-0.630	0.340
2020/01/31 05:25:05.0	92.490	0.460	-0.600	0.380
2020/01/31 05:25:05.1	92.490	0.460	-0.570	0.420
2020/01/31 05:25:05.2	92.480	0.460	-0.530	0.460
2020/01/31 05:25:05.3	92.480	0.450	-0.510	0.500
2020/01/31 05:25:05.4	92.480	0.450	-0.480	0.530
2020/01/31 05:25:05.5	92.480	0.440	-0.450	0.570
2020/01/31 05:25:05.6	92.480	0.430	-0.430	0.610
2020/01/31 05:25:05.7	92.490	0.420	-0.410	0.640
2020/01/31 05:25:05.8	92.490	0.410	-0.380	0.680
2020/01/31 05:25:05.9	92.490	0.400	-0.360	0.710
2020/01/31 05:25:06.0	92.490	0.390	-0.340	0.740
2020/01/31 05:25:06.1	92.490	0.370	-0.320	0.770
2020/01/31 05:25:06.2	92.490	0.360	-0.290	0.800
2020/01/31 05:25:06.3	92.480	0.340	-0.270	0.830
2020/01/31 05:25:06.4	92.480	0.320	-0.240	0.860
2020/01/31 05:25:06.5	92.480	0.300	-0.220	0.880
2020/01/31 05:25:06.6	92.480	0.280	-0.190	0.900
2020/01/31 05:25:06.7	92.470	0.250	-0.170	0.920
2020/01/31 05:25:06.8	92.470	0.230	-0.140	0.940
2020/01/31 05:25:06.9	92.470	0.200	-0.110	0.950
2020/01/31 05:25:07.0	92.460	0.180	-0.080	0.970
2020/01/31 05:25:07.1	92.460	0.150	-0.050	0.980
2020/01/31 05:25:07.2	92.460	0.120	-0.020	0.990
2020/01/31 05:25:07.3	92.450	0.090	0.010	0.990
2020/01/31 05:25:07.4	92.450	0.060	0.040	1.000
2020/01/31 05:25:07.5	92.450	0.040	0.080	1.000
2020/01/31 05:25:07.6	92.450	0.010	0.110	1.010
2020/01/31 05:25:07.7	92.450	-0.020	0.140	1.010
2020/01/31 05:25:07.8	92.460	-0.050	0.170	1.010
2020/01/31 05:25:07.9	92.460	-0.080	0.200	1.000
2020/01/31 05:25:08.0	92.460	-0.110	0.220	1.000
2020/01/31 05:25:08.1	92.460	-0.140	0.250	1.000
2020/01/31 05:25:08.2	92.470	-0.170	0.280	1.000
2020/01/31 05:25:08.3	92.470	-0.190	0.300	0.990
2020/01/31 05:25:08.4	92.470	-0.220	0.320	0.990
2020/01/31 05:25:08.5	92.470	-0.250	0.340	0.990
2020/01/31 05:25:08.6	92.470	-0.270	0.360	0.990
2020/01/31 05:25:08.7	92.470	-0.300	0.370	0.990
2020/01/31 05:25:08.8	92.470	-0.320	0.380	0.990
2020/01/31 05:25:08.9	92.470	-0.350	0.390	0.980
2020/01/31 05:25:09.0	92.470	-0.370	0.400	0.980
2020/01/31 05:25:09.1	92.470	-0.390	0.400	0.980
2020/01/31 05:25:09.2	92.470	-0.410	0.400	0.980
2020/01/31 05:25:09.3	92.480	-0.430	0.390	0.970
2020/01/31 05:25:09.4	92.480	-0.450	0.390	0.960
2020/01/31 05:25:09.5	92.480	-0.460	0.380	0.950
2020/01/31 05:25:09.6	92.490	-0.480	0.360	0.940
2020/01/31 05:25:09.7	92.490	-0.490	0.350	0.920
2020/01/31 05:25:09.8	92.500	-0.500	0.330	0.900
2020/01/31 05:25:09.9	92.510	-0.510	0.310	0.880
2020/01/31 05:25:10.0	92.530	-0.510	0.280	0.860
2020/01/31 05:25:10.1	92.540	-0.520	0.260	0.830
2020/01/31 05:25:10.2	92.560	-0.520	0.230	0.800
2020/01/31 05:25:10.3	92.580	-0.520	0.200	0.760
2020/01/31 05:25:10.4	92.590	-0.520	0.170	0.730
2020/01/31 05:25:10.5	92.610	-0.520	0.140	0.690
2020/01/31 05:25:10.6	92.640	-0.520	0.110	0.650
2020/01/31 05:25:10.7	92.660	-0.510	0.080	0.610
2020/01/31 05:25:10.8	92.680	-0.510	0.050	0.570
2020/01/31 05:25:10.9	92.700	-0.500	0.020	0.530
2020/01/31 05:25:11.0	92.730	-0.480	-0.010	0.490
2020/01/31 05:25:11.1	92.750	-0.470	-0.040	0.450
2020/01/31 05:25:11.2	92.770	-0.460	-0.070	0.410
2020/01/31 05:25:11.3	92.790	-0.440	-0.090	0.380
2020/01/31 05:25:11.4	92.810	-0.420	-0.120	0.350
2020/01/31 05:25:11.5	92.820	-0.400	-0.140	0.310
2020/01/31 05:25:11.6	92.840	-0.380	-0.170	0.290
2020/01/31 05:25:11.7	92.850	-0.350	-0.190	0.260
2020/01/31 05:25:11.8	92.870	-0.320	-0.210	0.240
2020/01/31 05:25:11.9	92.880	-0.300	-0.230	0.220
2020/01/31 05:25:12.0	92.890	-0.270	-0.250	0.200
2020/01/31 05:25:12.1	92.890	-0.230	-0.280	0.180
2020/01/31 05:25:12.2	92.900	-0.200	-0.300	0.170
2020/01/31 05:25:12.3	92.910	-0.170	-0.320	0.160
2020/01/31 05:25:12.4	92.910	-0.130	-0.340	0.150
2020/01/31 05:25:12.5	92.910	-0.100	-0.370	0.140
2020/01/31 05:25:12.6	92.910	-0.060	-0.390	0.140
2020/01/31 05:25:12.7	92.910	-0.020	-0.410	0.140
2020/01/31 05:25:12.8	92.910	0.020	-0.440	0.140
2020/01/31 05:25:12.9	92.900	0.060	-0.470	0.150
2020/01/31 05:25:13.0	92.900	0.100	-0.500	0.160
2020/01/31 05:25:13.1	92.890	0.140	-0.530	0.170
2020/01/31 05:25:13.2	92.880	0.180	-0.560	0.190
2020/01/31 05:25:13.3	92.870	0.220	-0.590	0.210
2020/01/31 05:25:13.4	92.860	0.250	-0.630	0.230
2020/01/31 05:25:13.5	92.840	0.290	-0.660	0.260
2020/01/31 05:25:13.6	92.830	0.330	-0.700	0.290
2020/01/31 05:25:13.7	92.810	0.360	-0.730	0.320
2020/01/31 05:25:13.8	92.790	0.390	-0.760	0.360
2020/01/31 05:25:13.9	92.770	0.420	-0.800	0.390
2020/01/31 05:25:14.0	92.750	0.450	-0.820	0.430
2020/01/31 05:25:14.1	92.730	0.470	-0.850	0.470
2020/01/31 05:25:14.2	92.710	0.490	-0.870	0.510
2020/01/31 05:25:14.3	92.690	0.500	-0.890	0.550
2020/01/31 05:25:14.4	92.680	0.520	-0.910	0.580
2020/01/31 05:25:14.5	92.660	0.530	-0.920	0.620
2020/01/31 05:25:14.6	92.640	0.530	-0.930	0.650
2020/01/31 05:25:14.7	92.630	0.530	-0.930	0.680
2020/01/31 05:25:14.8	92.620	0.530	-0.930	0.700
2020/01/31 05:25:14.9	92.610	0.520	-0.910	0.720
2020/01/31 05:25:15.0	92.600	0.510	-0.900	0.740
2020/01/31 05:25:15.1	92.590	0.490	-0.870	0.760
2020/01/31 05:25:15.2	92.590	0.470	-0.840	0.760
2020/01/31 05:25:15.3	92.590	0.450	-0.810	0.770
2020/01/31 05:25:15.4	92.590	0.420	-0.770	0.780
2020/01/31 05:25:15.5	92.590	0.390	-0.720	0.780
2020/01/31 05:25:15.6	92.590	0.360	-0.660	0.780
2020/01/31 05:25:15.7	92.600	0.330	-0.600	0.780
2020/01/31 05:25:15.8	92.600	0.290	-0.540	0.780
2020/01/31 05:25:15.9	92.600	0.250	-0.470	0.780
2020/01/31 05:25:16.0	92.610	0.210	-0.400	0.780
2020/01/31 05:25:16.1	92.610	0.170	-0.320	0.780
2020/01/31 05:25:16.2	92.620	0.120	-0.250	0.780
2020/01/31 05:25:16.3	92.620	0.080	-0.170	0.790
2020/01/31 05:25:16.4	92.620	0.040	-0.090	0.790
2020/01/31 05:25:16.5	92.620	-0.010	-0.010	0.800
2020/01/31 05:25:16.6	92.620	-0.050	0.070	0.810
2020/01/31 05:25:16.7	92.620	-0.090	0.150	0.830
2020/01/31 05:25:16.8	92.620	-0.130	0.220	0.840
2020/01/31 05:25:16.9	92.610	-0.170	0.290	0.860
2020/01/31 05:25:17.0	92.600	-0.200	0.350	0.880
2020/01/31 05:25:17.1	92.590	-0.230	0.410	0.900
2020/01/31 05:25:17.2	92.580	-0.260	0.470	0.920
2020/01/31 05:25:17.3	92.570	-0.290	0.510	0.940
2020/01/31 05:25:17.4	92.560	-0.310	0.550	0.960
2020/01/31 05:25:17.5	92.540	-0.330	0.580	0.970
2020/01/31 05:25:17.6	92.530	-0.340	0.600	0.990
2020/01/31 05:25:17.7	92.520	-0.350	0.600	1.000
2020/01/31 05:25:17.8	92.500	-0.360	0.600	1.010
2020/01/31 05:25:17.9	92.490	-0.360	0.590	1.010
2020/01/31 05:25:18.0	92.480	-0.360	0.570	1.010
2020/01/31 05:25:18.1	92.460	-0.350	0.540	1.000
2020/01/31 05:25:18.2	92.450	-0.340	0.500	0.990
2020/01/31 05:25:18.3	92.440	-0.330	0.450	0.980
2020/01/31 05:25:18.4	92.440	-0.310	0.400	0.960
2020/01/31 05:25:18.5	92.430	-0.290	0.340	0.940
2020/01/31 05:25:18.6	92.430	-0.260	0.270	0.910
2020/01/31 05:25:18.7	92.430	-0.230	0.190	0.890
2020/01/31 05:25:18.8	92.430	-0.200	0.120	0.860
2020/01/31 05:25:18.9	92.430	-0.170	0.040	0.820
2020/01/31 05:25:19.0	92.440	-0.130	-0.050	0.790
2020/01/31 05:25:19.1	92.440	-0.100	-0.130	0.760
2020/01/31 05:25:19.2	92.450	-0.060	-0.220	0.730
2020/01/31 05:25:19.3	92.460	-0.020	-0.300	0.700
2020/01/31 05:25:19.4	92.470	0.010	-0.380	0.670
2020/01/31 05:25:19.5	92.480	0.050	-0.450	0.640
2020/01/31 05:25:19.6	92.490	0.090	-0.520	0.620
2020/01/31 05:25:19.7	92.500	0.120	-0.590	0.590
2020/01/31 05:25:19.8	92.510	0.160	-0.650	0.570
2020/01/31 05:25:19.9	92.520	0.190	-0.700	0.560
2020/01/31 05:25:20.0	92.540	0.220	-0.750	0.540
2020/01/31 05:25:20.1	92.550	0.250	-0.790	0.530
2020/01/31 05:25:20.2	92.560	0.270	-0.820	0.520
2020/01/31 05:25:20.3	92.570	0.300	-0.840	0.510
2020/01/31 05:25:20.4	92.580	0.320	-0.860	0.510
2020/01/31 05:25:20.5	92.590	0.330	-0.870	0.500
2020/01/31 05:25:20.6	92.610	0.350	-0.870	0.490
2020/01/31 05:25:20.7	92.620	0.360	-0.860	0.490
2020/01/31 05:25:20.8	92.630	0.360	-0.850	0.480
2020/01/31 05:25:20.9	92.640	0.370	-0.820	0.480
2020/01/31 05:25:21.0	92.650	0.370	-0.800	0.470
2020/01/31 05:25:21.1	92.660	0.370	-0.760	0.470
2020/01/31 05:25:21.2	92.660	0.370	-0.720	0.460
2020/01/31 05:25:21.3	92.670	0.360	-0.680	0.460
2020/01/31 05:25:21.4	92.680	0.350	-0.630	0.450
2020/01/31 05:25:21.5	92.690	0.340	-0.570	0.450
2020/01/31 05:25:21.6	92.690	0.330	-0.520	0.450
2020/01/31 05:25:21.7	92.700	0.310	-0.460	0.440
2020/01/31 05:25:21.8	92.700	0.300	-0.390	0.440
2020/01/31 05:25:21.9	92.710	0.280	-0.330	0.440
2020/01/31 05:25:22.0	92.710	0.260	-0.270	0.450
2020/01/31 05:25:22.1	92.710	0.240	-0.200	0.450
2020/01/31 05:25:22.2	92.720	0.220	-0.130	0.460
2020/01/31 05:25:22.3	92.720	0.190	-0.070	0.470
2020/01/31 05:25:22.4	92.720	0.170	-0.010	0.490
2020/01/31 05:25:22.5	92.720	0.140	0.050	0.510
2020/01/31 05:25:22.6	92.720	0.120	0.110	0.530
2020/01/31 05:25:22.7	92.720	0.090	0.170	0.560
2020/01/31 05:25:22.8	92.710	0.060	0.220	0.590
2020/01/31 05:25:22.9	92.710	0.030	0.260	0.630
2020/01/31 05:25:23.0	92.710	0.000	0.300	0.660
2020/01/31 05:25:23.1	92.700	-0.020	0.340	0.700
2020/01/31 05:25:23.2	92.700	-0.050	0.370	0.750
2020/01/31 05:25:23.3	92.700	-0.080	0.390	0.790
2020/01/31 05:25:23.4	92.700	-0.110	0.410	0.830
2020/01/31 05:25:23.5	92.690	-0.140	0.420	0.880
2020/01/31 05:25:23.6	92.690	-0.160	0.430	0.920
2020/01/31 05:25:23.7	92.690	-0.190	0.430	0.960
2020/01/31 05:25:23.8	92.690	-0.210	0.420	1.000
2020/01/31 05:25:23.9	92.690	-0.240	0.400	1.040
2020/01/31 05:25:24.0	92.690	-0.260	0.380	1.070
2020/01/31 05:25:24.1	92.690	-0.280	0.360	1.100
2020/01/31 05:25:24.2	92.690	-0.300	0.330	1.130
2020/01/31 05:25:24.3	92.690	-0.320	0.290	1.150
2020/01/31 05:25:24.4	92.690	-0.330	0.250	1.170
2020/01/31 05:25:24.5	92.680	-0.350	0.210	1.190
2020/01/31 05:25:24.6	92.680	-0.360	0.170	1.200
2020/01/31 05:25:24.7	92.680	-0.370	0.120	1.210
2020/01/31 05:25:24.8	92.670	-0.380	0.070	1.210
2020/01/31 05:25:24.9	92.660	-0.380	0.020	1.210
2020/01/31 05:25:25.0	92.650	-0.390	-0.030	1.210
2020/01/31 05:25:25.1	92.640	-0.390	-0.070	1.210
2020/01/31 05:25:25.2	92.630	-0.390	-0.130	1.200
2020/01/31 05:25:25.3	92.620	-0.390	-0.170	1.190
2020/01/31 05:25:25.4	92.600	-0.390	-0.220	1.180
2020/01/31 05:25:25.5	92.580	-0.380	-0.260	1.170
2020/01/31 05:25:25.6	92.570	-0.370	-0.300	1.160
2020/01/31 05:25:25.7	92.550	-0.360	-0.340	1.150
2020/01/31 05:25:25.8	92.530	-0.350	-0.380	1.140
2020/01/31 05:25:25.9	92.510	-0.340	-0.410	1.130
2020/01/31 05:25:26.0	92.480	-0.330	-0.440	1.120
2020/01/31 05:25:26.1	92.460	-0.310	-0.470	1.110
2020/01/31 05:25:26.2	92.450	-0.290	-0.490	1.100
2020/01/31 05:25:26.3	92.420	-0.270	-0.510	1.100
2020/01/31 05:25:26.4	92.400	-0.250	-0.530	1.090
2020/01/31 05:25:26.5	92.380	-0.230	-0.540	1.090
2020/01/31 05:25:26.6	92.370	-0.210	-0.560	1.080
2020/01/31 05:25:26.7	92.350	-0.190	-0.570	1.080
2020/01/31 05:25:26.8	92.330	-0.160	-0.580	1.070
2020/01/31 05:25:26.9	92.320	-0.140	-0.580	1.060
2020/01/31 05:25:27.0	92.310	-0.110	-0.590	1.060
2020/01/31 05:25:27.1	92.300	-0.080	-0.590	1.050
2020/01/31 05:25:27.2	92.290	-0.060	-0.590	1.040
2020/01/31 05:25:27.3	92.290	-0.030	-0.600	1.030
2020/01/31 05:25:27.4	92.280	-0.000	-0.600	1.020
2020/01/31 05:25:27.5	92.280	0.020	-0.590	1.000
2020/01/31 05:25:27.6	92.280	0.050	-0.590	0.990
2020/01/31 05:25:27.7	92.290	0.080	-0.590	0.970
2020/01/31 05:25:27.8	92.290	0.100	-0.590	0.950
2020/01/31 05:25:27.9	92.300	0.130	-0.590	0.920
2020/01/31 05:25:28.0	92.310	0.160	-0.590	0.900
2020/01/31 05:25:28.1	92.320	0.180	-0.590	0.870
2020/01/31 05:25:28.2	92.340	0.210	-0.590	0.840
2020/01/31 05:25:28.3	92.350	0.240	-0.590	0.820
2020/01/31 05:25:28.4	92.370	0.260	-0.590	0.780
2020/01/31 05:25:28.5	92.380	0.280	-0.580	0.750
2020/01/31 05:25:28.6	92.400	0.310	-0.580	0.720
2020/01/31 05:25:28.7	92.410	0.330	-0.580	0.690
2020/01/31 05:25:28.8	92.430	0.350	-0.580	0.660
2020/01/31 05:25:28.9	92.440	0.370	-0.570	0.630
2020/01/31 05:25:29.0	92.460	0.390	-0.560	0.610
2020/01/31 05:25:29.1	92.470	0.400	-0.550	0.580
2020/01/31 05:25:29.2	92.490	0.420	-0.540	0.560
2020/01/31 05:25:29.3	92.500	0.430	-0.530	0.540
2020/01/31 05:25:29.4	92.510	0.440	-0.520	0.520
2020/01/31 05:25:29.5	92.510	0.450	-0.500	0.510
2020/01/31 05:25:29.6	92.520	0.460	-0.480	0.500
2020/01/31 05:25:29.7	92.520	0.460	-0.460	0.490
2020/01/31 05:25:29.8	92.520	0.460	-0.440	0.490
2020/01/31 05:25:29.9	92.510	0.460	-0.410	0.490
2020/01/31 05:25:30.0	92.500	0.460	-0.390	0.500
2020/01/31 05:25:30.1	92.490	0.450	-0.360	0.510
2020/01/31 05:25:30.2	92.480	0.440	-0.320	0.520
2020/01/31 05:25:30.3	92.460	0.430	-0.290	0.540
2020/01/31 05:25:30.4	92.440	0.420	-0.260	0.560
2020/01/31 05:25:30.5	92.420	0.400	-0.230	0.580
2020/01/31 05:25:30.6	92.400	0.380	-0.190	0.610
2020/01/31 05:25:30.7	92.370	0.360	-0.160	0.640
2020/01/31 05:25:30.8	92.350	0.340	-0.120	0.670
2020/01/31 05:25:30.9	92.320	0.310	-0.090	0.700
2020/01/31 05:25:31.0	92.290	0.280	-0.060	0.740
2020/01/31 05:25:31.1	92.260	0.250	-0.030	0.770
2020/01/31 05:25:31.2	92.220	0.220	0.000	0.800
2020/01/31 05:25:31.3	92.190	0.190	0.030	0.830
2020/01/31 05:25:31.4	92.170	0.160	0.060	0.860
2020/01/31 05:25:31.5	92.140	0.120	0.090	0.890
2020/01/31 05:25:31.6	92.120	0.090	0.120	0.920
2020/01/31 05:25:31.7	92.090	0.050	0.140	0.940
2020/01/31 05:25:31.8	92.070	0.020	0.170	0.960
2020/01/31 05:25:31.9	92.060	-0.020	0.190	0.970
2020/01/31 05:25:32.0	92.040	-0.060	0.210	0.980
2020/01/31 05:25:32.1	92.040	-0.090	0.220	0.990
2020/01/31 05:25:32.2	92.030	-0.130	0.240	0.990
2020/01/31 05:25:32.3	92.020	-0.160	0.250	0.990
2020/01/31 05:25:32.4	92.020	-0.190	0.260	0.990
2020/01/31 05:25:32.5	92.030	-0.230	0.270	0.980
2020/01/31 05:25:32.6	92.030	-0.260	0.270	0.970
2020/01/31 05:25:32.7	92.040	-0.280	0.280	0.950
2020/01/31 05:25:32.8	92.040	-0.310	0.270	0.930
2020/01/31 05:25:32.9	92.050	-0.330	0.270	0.910
2020/01/31 05:25:33.0	92.060	-0.360	0.260	0.900
2020/01/31 05:25:33.1	92.070	-0.380	0.250	0.880
2020/01/31 05:25:33.2	92.080	-0.390	0.240	0.850
2020/01/31 05:25:33.3	92.090	-0.410	0.220	0.830
2020/01/31 05:25:33.4	92.100	-0.420	0.200	0.820
2020/01/31 05:25:33.5	92.110	-0.420	0.180	0.800
2020/01/31 05:25:33.6	92.120	-0.430	0.160	0.790
2020/01/31 05:25:33.7	92.120	-0.430	0.130	0.770
2020/01/31 05:25:33.8	92.130	-0.430	0.110	0.760
2020/01/31 05:25:33.9	92.140	-0.420	0.080	0.750
2020/01/31 05:25:34.0	92.150	-0.420	0.040	0.740
2020/01/31 05:25:34.1	92.160	-0.410	0.010	0.730
2020/01/31 05:25:34.2	92.160	-0.390	-0.030	0.720
2020/01/31 05:25:34.3	92.170	-0.380	-0.070	0.710
2020/01/31 05:25:34.4	92.180	-0.360	-0.110	0.700
2020/01/31 05:25:34.5	92.180	-0.340	-0.150	0.700
2020/01/31 05:25:34.6	92.190	-0.310	-0.190	0.690
2020/01/31 05:25:34.7	92.200	-0.290	-0.230	0.690
2020/01/31 05:25:34.8	92.200	-0.260	-0.280	0.690
2020/01/31 05:25:34.9	92.210	-0.230	-0.320	0.690
2020/01/31 05:25:35.0	92.220	-0.200	-0.370	0.680
2020/01/31 05:25:35.1	92.220	-0.160	-0.410	0.680
2020/01/31 05:25:35.2	92.230	-0.130	-0.460	0.690
2020/01/31 05:25:35.3	92.240	-0.100	-0.510	0.690
2020/01/31 05:25:35.4	92.240	-0.060	-0.550	0.700
2020/01/31 05:25:35.5	92.240	-0.030	-0.590	0.700
2020/01/31 05:25:35.6	92.250	0.010	-0.630	0.710
2020/01/31 05:25:35.7	92.250	0.040	-0.660	0.720
2020/01/31 05:25:35.8	92.250	0.070	-0.700	0.730
2020/01/31 05:25:35.9	92.250	0.110	-0.730	0.750
2020/01/31 05:25:36.0	92.250	0.140	-0.750	0.760
2020/01/31 05:25:36.1	92.250	0.170	-0.770	0.780
2020/01/31 05:25:36.2	92.250	0.200	-0.790	0.800
2020/01/31 05:25:36.3	92.240	0.220	-0.800	0.820
2020/01/31 05:25:36.4	92.240	0.240	-0.810	0.840
2020/01/31 05:25:36.5	92.230	0.270	-0.810	0.870
2020/01/31 05:25:36.6	92.230	0.280	-0.810	0.900
2020/01/31 05:25:36.7	92.220	0.300	-0.800	0.920
2020/01/31 05:25:36.8	92.210	0.310	-0.780	0.950
2020/01/31 05:25:36.9	92.200	0.320	-0.760	0.990
2020/01/31 05:25:37.0	92.200	0.330	-0.740	1.020
2020/01/31 05:25:37.1	92.190	0.330	-0.710	1.050
2020/01/31 05:25:37.2	92.180	0.330	-0.670	1.070
2020/01/31 05:25:37.3	92.170	0.330	-0.620	1.100
2020/01/31 05:25:37.4	92.160	0.320	-0.580	1.130
2020/01/31 05:25:37.5	92.150	0.310	-0.530	1.160
2020/01/31 05:25:37.6	92.150	0.300	-0.470	1.180
2020/01/31 05:25:37.7	92.140	0.280	-0.420	1.200
2020/01/31 05:25:37.8	92.130	0.260	-0.360	1.220
2020/01/31 05:25:37.9	92.130	0.240	-0.300	1.240
2020/01/31 05:25:38.0	92.120	0.210	-0.230	1.250
2020/01/31 05:25:38.1	92.120	0.180	-0.170	1.260
2020/01/31 05:25:38.2	92.120	0.150	-0.100	1.260
2020/01/31 05:25:38.3	92.120	0.120	-0.040	1.260
2020/01/31 05:25:38.4	92.120	0.090	0.020	1.260
2020/01/31 05:25:38.5	92.120	0.060	0.080	1.260
2020/01/31 05:25:38.6	92.120	0.020	0.140	1.250
2020/01/31 05:25:38.7	92.130	-0.010	0.200	1.240
2020/01/31 05:25:38.8	92.130	-0.050	0.250	1.220
2020/01/31 05:25:38.9	92.130	-0.080	0.300	1.210
2020/01/31 05:25:39.0	92.140	-0.120	0.340	1.190
2020/01/31 05:25:39.1	92.140	-0.150	0.380	1.170
2020/01/31 05:25:39.2	92.140	-0.190	0.420	1.140
2020/01/31 05:25:39.3	92.140	-0.220	0.450	1.120
2020/01/31 05:25:39.4	92.140	-0.250	0.470	1.100
2020/01/31 05:25:39.5	92.140	-0.270	0.490	1.080
2020/01/31 05:25:39.6	92.140	-0.300	0.510	1.060
2020/01/31 05:25:39.7	92.130	-0.320	0.520	1.040
2020/01/31 05:25:39.8	92.130	-0.340	0.520	1.020
2020/01/31 05:25:39.9	92.120	-0.360	0.520	1.000
2020/01/31 05:25:40.0	92.110	-0.380	0.510	0.980
2020/01/31 05:25:40.1	92.100	-0.390	0.500	0.970
2020/01/31 05:25:40.2	92.090	-0.400	0.480	0.950
2020/01/31 05:25:40.3	92.080	-0.410	0.450	0.930
2020/01/31 05:25:40.4	92.070	-0.410	0.420	0.910
2020/01/31 05:25:40.5	92.060	-0.410	0.380	0.890
2020/01/31 05:25:40.6	92.050	-0.400	0.330	0.870
2020/01/31 05:25:40.7	92.030	-0.400	0.280	0.850
2020/01/31 05:25:40.8	92.020	-0.380	0.220	0.830
2020/01/31 05:25:40.9	92.010	-0.370	0.150	0.800
2020/01/31 05:25:41.0	92.000	-0.350	0.080	0.770
2020/01/31 05:25:41.1	92.000	-0.330	0.010	0.740
2020/01/31 05:25:41.2	91.990	-0.310	-0.070	0.710
2020/01/31 05:25:41.3	91.990	-0.280	-0.150	0.680
2020/01/31 05:25:41.4	91.980	-0.250	-0.240	0.650
2020/01/31 05:25:41.5	91.980	-0.210	-0.320	0.610
2020/01/31 05:25:41.6	91.970	-0.180	-0.410	0.580
2020/01/31 05:25:41.7	91.970	-0.140	-0.500	0.550
2020/01/31 05:25:41.8	91.970	-0.100	-0.590	0.520
2020/01/31 05:25:41.9	91.970	-0.060	-0.670	0.490
2020/01/31 05:25:42.0	91.970	-0.020	-0.750	0.460
2020/01/31 05:25:42.1	91.970	0.030	-0.830	0.430
2020/01/31 05:25:42.2	91.970	0.070	-0.910	0.410
2020/01/31 05:25:42.3	91.970	0.120	-0.980	0.390
2020/01/31 05:25:42.4	91.980	0.170	-1.040	0.380
2020/01/31 05:25:42.5	91.980	0.210	-1.100	0.370
2020/01/31 05:25:42.6	91.980	0.260	-1.150	0.360
2020/01/31 05:25:42.7	91.990	0.300	-1.200	0.360
2020/01/31 05:25:42.8	91.990	0.340	-1.230	0.370
2020/01/31 05:25:42.9	91.990	0.380	-1.260	0.370
2020/01/31 05:25:43.0	91.990	0.420	-1.270	0.390
2020/01/31 05:25:43.1	91.990	0.460	-1.280	0.400
2020/01/31 05:25:43.2	91.990	0.490	-1.280	0.420
2020/01/31 05:25:43.3	91.990	0.520	-1.270	0.450
2020/01/31 05:25:43.4	92.000	0.540	-1.250	0.470
2020/01/31 05:25:43.5	92.000	0.570	-1.230	0.490
2020/01/31 05:25:43.6	92.000	0.580	-1.190	0.520
2020/01/31 05:25:43.7	91.990	0.600	-1.150	0.540
2020/01/31 05:25:43.8	91.990	0.610	-1.090	0.570
2020/01/31 05:25:43.9	91.990	0.610	-1.040	0.590
2020/01/31 05:25:44.0	91.990	0.610	-0.970	0.620
2020/01/31 05:25:44.1	91.990	0.610	-0.900	0.640
2020/01/31 05:25:44.2	91.980	0.600	-0.820	0.660
2020/01/31 05:25:44.3	91.980	0.580	-0.740	0.680
2020/01/31 05:25:44.4	91.970	0.570	-0.660	0.700
2020/01/31 05:25:44.5	91.970	0.550	-0.570	0.720
2020/01/31 05:25:44.6	91.960	0.520	-0.480	0.740
2020/01/31 05:25:44.7	91.960	0.490	-0.390	0.750
2020/01/31 05:25:44.8	91.950	0.460	-0.290	0.770
2020/01/31 05:25:44.9	91.940	0.430	-0.200	0.780
2020/01/31 05:25:45.0	91.940	0.390	-0.110	0.800
2020/01/31 05:25:45.1	91.930	0.350	-0.020	0.820
2020/01/31 05:25:45.2	91.920	0.300	0.080	0.830
2020/01/31 05:25:45.3	91.910	0.260	0.160	0.850
2020/01/31 05:25:45.4	91.900	0.210	0.240	0.860
2020/01/31 05:25:45.5	91.890	0.170	0.320	0.880
2020/01/31 05:25:45.6	91.880	0.120	0.400	0.900
2020/01/31 05:25:45.7	91.860	0.070	0.470	0.910
2020/01/31 05:25:45.8	91.850	0.020	0.530	0.930
2020/01/31 05:25:45.9	91.840	-0.030	0.590	0.940
2020/01/31 05:25:46.0	91.830	-0.080	0.640	0.960
2020/01/31 05:25:46.1	91.820	-0.120	0.690	0.970
2020/01/31 05:25:46.2	91.810	-0.170	0.720	0.980
2020/01/31 05:25:46.3	91.800	-0.210	0.750	0.990
2020/01/31 05:25:46.4	91.790	-0.250	0.780	0.990
2020/01/31 05:25:46.5	91.780	-0.290	0.790	1.000
2020/01/31 05:25:46.6	91.780	-0.330	0.800	1.000
2020/01/31 05:25:46.7	91.770	-0.360	0.800	1.000
2020/01/31 05:25:46.8	91.760	-0.390	0.790	1.000
2020/01/31 05:25:46.9	91.750	-0.410	0.770	1.000
2020/01/31 05:25:47.0	91.750	-0.430	0.750	1.000
2020/01/31 05:25:47.1	91.740	-0.450	0.720	1.000
2020/01/31 05:25:47.2	91.730	-0.460	0.680	0.990
2020/01/31 05:25:47.3	91.720	-0.470	0.630	0.990
2020/01/31 05:25:47.4	91.710	-0.470	0.580	0.990
2020/01/31 05:25:47.5	91.700	-0.470	0.530	0.980
2020/01/31 05:25:47.6	91.690	-0.460	0.460	0.980
2020/01/31 05:25:47.7	91.680	-0.450	0.400	0.980
2020/01/31 05:25:47.8	91.670	-0.440	0.330	0.980
2020/01/31 05:25:47.9	91.650	-0.420	0.250	0.970
2020/01/31 05:25:48.0	91.640	-0.400	0.180	0.970
2020/01/31 05:25:48.1	91.620	-0.380	0.100	0.960
2020/01/31 05:25:48.2	91.600	-0.360	0.020	0.960
2020/01/31 05:25:48.3	91.580	-0.330	-0.060	0.950
2020/01/31 05:25:48.4	91.570	-0.300	-0.130	0.940
2020/01/31 05:25:48.5	91.560	-0.270	-0.200	0.930
2020/01/31 05:25:48.6	91.550	-0.240	-0.270	0.920
2020/01/31 05:25:48.7	91.540	-0.220	-0.340	0.910
2020/01/31 05:25:48.8	91.530	-0.190	-0.400	0.890
2020/01/31 05:25:48.9	91.530	-0.160	-0.460	0.880
2020/01/31 05:25:49.0	91.530	-0.130	-0.510	0.860
2020/01/31 05:25:49.1	91.530	-0.110	-0.560	0.840
2020/01/31 05:25:49.2	91.530	-0.080	-0.600	0.810
2020/01/31 05:25:49.3	91.540	-0.060	-0.640	0.790
2020/01/31 05:25:49.4	91.550	-0.040	-0.670	0.770
2020/01/31 05:25:49.5	91.560	-0.020	-0.690	0.740
2020/01/31 05:25:49.6	91.580	-0.010	-0.710	0.720
2020/01/31 05:25:49.7	91.600	0.010	-0.730	0.690
2020/01/31 05:25:49.8	91.620	0.020	-0.730	0.670
2020/01/31 05:25:49.9	91.640	0.030	-0.740	0.650
2020/01/31 05:25:50.0	91.660	0.030	-0.740	0.630
2020/01/31 05:25:50.1	91.690	0.040	-0.730	0.620
2020/01/31 05:25:50.2	91.700	0.040	-0.720	0.600
2020/01/31 05:25:50.3	91.730	0.040	-0.710	0.580
2020/01/31 05:25:50.4	91.760	0.040	-0.690	0.580
2020/01/31 05:25:50.5	91.790	0.040	-0.670	0.570
2020/01/31 05:25:50.6	91.810	0.030	-0.650	0.580
2020/01/31 05:25:50.7	91.840	0.030	-0.620	0.580
2020/01/31 05:25:50.8	91.870	0.020	-0.600	0.590
2020/01/31 05:25:50.9	91.890	0.020	-0.570	0.600
2020/01/31 05:25:51.0	91.920	0.010	-0.540	0.620
2020/01/31 05:25:51.1	91.940	0.010	-0.510	0.640
2020/01/31 05:25:51.2	91.950	0.000	-0.490	0.670
2020/01/31 05:25:51.3	91.970	0.000	-0.460	0.700
2020/01/31 05:25:51.4	91.980	-0.000	-0.430	0.730
2020/01/31 05:25:51.5	91.990	-0.000	-0.410	0.770
2020/01/31 05:25:51.6	92.000	-0.000	-0.380	0.810
2020/01/31 05:25:51.7	92.000	-0.000	-0.360	0.850
2020/01/31 05:25:51.8	92.000	0.000	-0.340	0.890
2020/01/31 05:25:51.9	91.990	0.000	-0.330	0.930
2020/01/31 05:25:52.0	91.980	0.010	-0.310	0.970
2020/01/31 05:25:52.1	91.960	0.010	-0.300	1.020
2020/01/31 05:25:52.2	91.940	0.020	-0.290	1.070
2020/01/31 05:25:52.3	91.920	0.030	-0.280	1.110
2020/01/31 05:25:52.4	91.900	0.030	-0.270	1.150
2020/01/31 05:25:52.5	91.870	0.040	-0.270	1.190
2020/01/31 05:25:52.6	91.840	0.050	-0.260	1.230
2020/01/31 05:25:52.7	91.810	0.050	-0.260	1.270
2020/01/31 05:25:52.8	91.770	0.060	-0.260	1.300
2020/01/31 05:25:52.9	91.740	0.070	-0.250	1.340
2020/01/31 05:25:53.0	91.700	0.070	-0.250	1.360
2020/01/31 05:25:53.1	91.670	0.080	-0.250	1.390
2020/01/31 05:25:53.2	91.630	0.080	-0.250	1.410
2020/01/31 05:25:53.3	91.600	0.080	-0.250	1.430
2020/01/31 05:25:53.4	91.560	0.080	-0.250	1.450
2020/01/31 05:25:53.5	91.530	0.080	-0.250	1.460
2020/01/31 05:25:53.6	91.500	0.080	-0.250	1.470
2020/01/31 05:25:53.7	91.470	0.080	-0.250	1.480
2020/01/31 05:25:53.8	91.440	0.080	-0.250	1.490
2020/01/31 05:25:53.9	91.410	0.070	-0.250	1.490
2020/01/31 05:25:54.0	91.380	0.070	-0.250	1.490
2020/01/31 05:25:54.1	91.360	0.060	-0.250	1.490
2020/01/31 05:25:54.2	91.340	0.060	-0.250	1.480
2020/01/31 05:25:54.3	91.320	0.050	-0.250	1.470
2020/01/31 05:25:54.4	91.300	0.040	-0.240	1.460
2020/01/31 05:25:54.5	91.290	0.040	-0.230	1.450
2020/01/31 05:25:54.6	91.280	0.030	-0.230	1.430
2020/01/31 05:25:54.7	91.260	0.020	-0.220	1.410
2020/01/31 05:25:54.8	91.250	0.020	-0.210	1.390
2020/01/31 05:25:54.9	91.250	0.010	-0.200	1.370
2020/01/31 05:25:55.0	91.240	0.000	-0.190	1.340
2020/01/31 05:25:55.1	91.240	-0.000	-0.170	1.320
2020/01/31 05:25:55.2	91.240	-0.010	-0.160	1.290
2020/01/31 05:25:55.3	91.240	-0.020	-0.140	1.260
2020/01/31 05:25:55.4	91.240	-0.020	-0.130	1.230
2020/01/31 05:25:55.5	91.240	-0.030	-0.110	1.200
2020/01/31 05:25:55.6	91.250	-0.030	-0.090	1.160
2020/01/31 05:25:55.7	91.260	-0.040	-0.080	1.130
2020/01/31 05:25:55.8	91.260	-0.040	-0.060	1.100
2020/01/31 05:25:55.9	91.270	-0.040	-0.050	1.060
2020/01/31 05:25:56.0	91.280	-0.040	-0.040	1.030
2020/01/31 05:25:56.1	91.290	-0.040	-0.030	0.990
2020/01/31 05:25:56.2	91.300	-0.040	-0.010	0.950
2020/01/31 05:25:56.3	91.310	-0.040	-0.010	0.910
2020/01/31 05:25:56.4	91.320	-0.030	-0.010	0.880
2020/01/31 05:25:56.5	91.320	-0.030	-0.000	0.840
2020/01/31 05:25:56.6	91.330	-0.020	-0.010	0.810
2020/01/31 05:25:56.7	91.340	-0.010	-0.010	0.770
2020/01/31 05:25:56.8	91.350	-0.000	-0.030	0.740
2020/01/31 05:25:56.9	91.350	0.010	-0.040	0.700
2020/01/31 05:25:57.0	91.360	0.020	-0.060	0.670
2020/01/31 05:25:57.1	91.370	0.030	-0.080	0.640
2020/01/31 05:25:57.2	91.380	0.050	-0.110	0.620
2020/01/31 05:25:57.3	91.380	0.070	-0.140	0.590
2020/01/31 05:25:57.4	91.390	0.090	-0.170	0.570
2020/01/31 05:25:57.5	91.400	0.110	-0.210	0.550
2020/01/31 05:25:57.6	91.400	0.130	-0.240	0.530
2020/01/31 05:25:57.7	91.410	0.150	-0.280	0.520
2020/01/31 05:25:57.8	91.420	0.170	-0.320	0.510
2020/01/31 05:25:57.9	91.430	0.190	-0.360	0.500
2020/01/31 05:25:58.0	91.440	0.210	-0.400	0.500
2020/01/31 05:25:58.1	91.450	0.230	-0.430	0.500
2020/01/31 05:25:58.2	91.460	0.250	-0.470	0.510
2020/01/31 05:25:58.3	91.470	0.270	-0.500	0.520
2020/01/31 05:25:58.4	91.480	0.280	-0.530	0.540
2020/01/31 05:25:58.5	91.490	0.290	-0.550	0.560
2020/01/31 05:25:58.6	91.490	0.310	-0.560	0.590
2020/01/31 05:25:58.7	91.500	0.310	-0.580	0.620
2020/01/31 05:25:58.8	91.500	0.320	-0.580	0.650
2020/01/31 05:25:58.9	91.500	0.320	-0.580	0.680
2020/01/31 05:25:59.0	91.500	0.310	-0.570	0.720
2020/01/31 05:25:59.1	91.500	0.310	-0.550	0.760
2020/01/31 05:25:59.2	91.490	0.300	-0.530	0.800
2020/01/31 05:25:59.3	91.490	0.280	-0.500	0.830
2020/01/31 05:25:59.4	91.490	0.260	-0.460	0.870
2020/01/31 05:25:59.5	91.480	0.240	-0.420	0.900
2020/01/31 05:25:59.6	91.480	0.210	-0.370	0.930
2020/01/31 05:25:59.7	91.470	0.180	-0.310	0.960
2020/01/31 05:25:59.8	91.460	0.150	-0.250	0.980
2020/01/31 05:25:59.9	91.460	0.110	-0.190	1.000
2020/01/31 05:26:00.0	91.450	0.070	-0.120	1.020
2020/01/31 05:26:00.1	91.450	0.030	-0.060	1.030
2020/01/31 05:26:00.2	91.450	-0.020	0.020	1.040
2020/01/31 05:26:00.3	91.450	-0.060	0.090	1.040
2020/01/31 05:26:00.4	91.440	-0.110	0.160	1.040
2020/01/31 05:26:00.5	91.440	-0.160	0.230	1.040
2020/01/31 05:26:00.6	91.440	-0.200	0.290	1.040
2020/01/31 05:26:00.7	91.440	-0.250	0.360	1.030
2020/01/31 05:26:00.8	91.440	-0.300	0.420	1.030
2020/01/31 05:26:00.9	91.440	-0.340	0.470	1.020
2020/01/31 05:26:01.0	91.440	-0.380	0.520	1.010
2020/01/31 05:26:01.1	91.440	-0.420	0.560	1.000
2020/01/31 05:26:01.2	91.440	-0.460	0.600	0.990
2020/01/31 05:26:01.3	91.440	-0.490	0.620	0.980
2020/01/31 05:26:01.4	91.440	-0.520	0.640	0.980
2020/01/31 05:26:01.5	91.440	-0.550	0.650	0.970
2020/01/31 05:26:01.6	91.430	-0.570	0.650	0.970
2020/01/31 05:26:01.7	91.430	-0.580	0.640	0.970
2020/01/31 05:26:01.8	91.420	-0.590	0.610	0.970
2020/01/31 05:26:01.9	91.420	-0.600	0.580	0.970
2020/01/31 05:26:02.0	91.410	-0.590	0.540	0.970
2020/01/31 05:26:02.1	91.410	-0.590	0.480	0.970
2020/01/31 05:26:02.2	91.400	-0.570	0.420	0.980
2020/01/31 05:26:02.3	91.390	-0.550	0.340	0.980
2020/01/31 05:26:02.4	91.380	-0.530	0.260	0.980
2020/01/31 05:26:02.5	91.380	-0.500	0.180	0.980
2020/01/31 05:26:02.6	91.370	-0.460	0.080	0.990
2020/01/31 05:26:02.7	91.360	-0.430	-0.020	0.990
2020/01/31 05:26:02.8	91.350	-0.380	-0.120	0.990
2020/01/31 05:26:02.9	91.340	-0.340	-0.220	0.990
2020/01/31 05:26:03.0	91.330	-0.290	-0.330	0.990
2020/01/31 05:26:03.1	91.320	-0.240	-0.430	1.000
2020/01/31 05:26:03.2	91.310	-0.190	-0.540	0.990
2020/01/31 05:26:03.3	91.300	-0.140	-0.640	0.990
2020/01/31 05:26:03.4	91.290	-0.090	-0.730	0.990
2020/01/31 05:26:03.5	91.280	-0.030	-0.820	0.990
2020/01/31 05:26:03.6	91.270	0.020	-0.910	0.990
2020/01/31 05:26:03.7	91.260	0.070	-0.990	0.990
2020/01/31 05:26:03.8	91.250	0.120	-1.060	0.990
2020/01/31 05:26:03.9	91.240	0.170	-1.120	0.990
2020/01/31 05:26:04.0	91.230	0.210	-1.180	0.990
2020/01/31 05:26:04.1	91.220	0.260	-1.220	0.990
2020/01/31 05:26:04.2	91.210	0.300	-1.250	0.990
2020/01/31 05:26:04.3	91.200	0.330	-1.280	0.990
2020/01/31 05:26:04.4	91.190	0.370	-1.290	0.990
2020/01/31 05:26:04.5	91.180	0.400	-1.290	0.990
2020/01/31 05:26:04.6	91.170	0.430	-1.290	0.990
2020/01/31 05:26:04.7	91.160	0.450	-1.270	1.000
2020/01/31 05:26:04.8	91.150	0.470	-1.240	1.000
2020/01/31 05:26:04.9	91.140	0.480	-1.210	1.000
2020/01/31 05:26:05.0	91.130	0.500	-1.170	1.010
2020/01/31 05:26:05.1	91.130	0.510	-1.120	1.010
2020/01/31 05:26:05.2	91.120	0.510	-1.060	1.020
2020/01/31 05:26:05.3	91.110	0.510	-1.000	1.020
2020/01/31 05:26:05.4	91.110	0.510	-0.940	1.020
2020/01/31 05:26:05.5	91.100	0.510	-0.870	1.030
2020/01/31 05:26:05.6	91.090	0.500	-0.800	1.030
2020/01/31 05:26:05.7	91.090	0.500	-0.720	1.030
2020/01/31 05:26:05.8	91.080	0.480	-0.650	1.040
2020/01/31 05:26:05.9	91.070	0.470	-0.570	1.040
2020/01/31 05:26:06.0	91.070	0.460	-0.500	1.040
2020/01/31 05:26:06.1	91.060	0.440	-0.420	1.040
2020/01/31 05:26:06.2	91.060	0.420	-0.350	1.040
2020/01/31 05:26:06.3	91.060	0.400	-0.280	1.030
2020/01/31 05:26:06.4	91.050	0.380	-0.210	1.030
2020/01/31 05:26:06.5	91.060	0.360	-0.140	1.030
2020/01/31 05:26:06.6	91.060	0.330	-0.080	1.020
2020/01/31 05:26:06.7	91.060	0.310	-0.020	1.020
2020/01/31 05:26:06.8	91.070	0.280	0.040	1.010
2020/01/31 05:26:06.9	91.070	0.250	0.090	1.000
2020/01/31 05:26:07.0	91.080	0.220	0.140	1.000
2020/01/31 05:26:07.1	91.090	0.190	0.190	0.990
2020/01/31 05:26:07.2	91.100	0.160	0.240	0.990
2020/01/31 05:26:07.3	91.110	0.120	0.280	0.990
2020/01/31 05:26:07.4	91.120	0.090	0.320	0.980
2020/01/31 05:26:07.5	91.130	0.050	0.350	0.990
2020/01/31 05:26:07.6	91.140	0.020	0.380	0.990
2020/01/31 05:26:07.7	91.150	-0.020	0.410	0.990
2020/01/31 05:26:07.8	91.160	-0.060	0.440	1.000
2020/01/31 05:26:07.9	91.160	-0.100	0.460	1.010
2020/01/31 05:26:08.0	91.170	-0.140	0.480	1.020
2020/01/31 05:26:08.1	91.170	-0.180	0.490	1.030
2020/01/31 05:26:08.2	91.170	-0.220	0.510	1.040
2020/01/31 05:26:08.3	91.170	-0.260	0.520	1.050
2020/01/31 05:26:08.4	91.160	-0.300	0.530	1.070
2020/01/31 05:26:08.5	91.160	-0.340	0.540	1.080
2020/01/31 05:26:08.6	91.160	-0.380	0.550	1.090
2020/01/31 05:26:08.7	91.150	-0.420	0.550	1.110
2020/01/31 05:26:08.8	91.140	-0.460	0.550	1.120
2020/01/31 05:26:08.9	91.140	-0.490	0.550	1.130
2020/01/31 05:26:09.0	91.130	-0.530	0.550	1.130
2020/01/31 05:26:09.1	91.120	-0.560	0.550	1.140
2020/01/31 05:26:09.2	91.100	-0.590	0.540	1.140
2020/01/31 05:26:09.3	91.090	-0.620	0.530	1.150
2020/01/31 05:26:09.4	91.080	-0.640	0.520	1.150
2020/01/31 05:26:09.5	91.070	-0.660	0.510	1.150
2020/01/31 05:26:09.6	91.060	-0.680	0.490	1.150
2020/01/31 05:26:09.7	91.040	-0.700	0.470	1.150
2020/01/31 05:26:09.8	91.030	-0.710	0.450	1.150
2020/01/31 05:26:09.9	91.020	-0.720	0.420	1.150
2020/01/31 05:26:10.0	91.010	-0.720	0.390	1.140
2020/01/31 05:26:10.1	91.000	-0.720	0.360	1.140
2020/01/31 05:26:10.2	90.990	-0.710	0.320	1.130
2020/01/31 05:26:10.3	90.980	-0.700	0.270	1.120
2020/01/31 05:26:10.4	90.980	-0.680	0.220	1.110
2020/01/31 05:26:10.5	90.970	-0.660	0.160	1.090
2020/01/31 05:26:10.6	90.970	-0.630	0.100	1.080
2020/01/31 05:26:10.7	90.970	-0.600	0.030	1.070
2020/01/31 05:26:10.8	90.970	-0.560	-0.050	1.050
2020/01/31 05:26:10.9	90.970	-0.510	-0.130	1.040
2020/01/31 05:26:11.0	90.970	-0.460	-0.220	1.030
2020/01/31 05:26:11.1	90.970	-0.410	-0.310	1.010
2020/01/31 05:26:11.2	90.970	-0.350	-0.410	0.990
2020/01/31 05:26:11.3	90.980	-0.280	-0.510	0.980
2020/01/31 05:26:11.4	90.980	-0.210	-0.620	0.970
2020/01/31 05:26:11.5	90.980	-0.140	-0.720	0.950
2020/01/31 05:26:11.6	90.990	-0.070	-0.820	0.940
2020/01/31 05:26:11.7	90.990	0.010	-0.930	0.930
2020/01/31 05:26:11.8	90.990	0.090	-1.030	0.920
2020/01/31 05:26:11.9	90.990	0.170	-1.130	0.910
2020/01/31 05:26:12.0	90.990	0.250	-1.230	0.900
2020/01/31 05:26:12.1	90.990	0.330	-1.320	0.890
2020/01/31 05:26:12.2	90.990	0.410	-1.400	0.890
2020/01/31 05:26:12.3	90.990	0.480	-1.480	0.880
2020/01/31 05:26:12.4	90.990	0.560	-1.550	0.880
2020/01/31 05:26:12.5	90.980	0.630	-1.610	0.870
2020/01/31 05:26:12.6	90.980	0.700	-1.660	0.870
2020/01/31 05:26:12.7	90.970	0.760	-1.700	0.870
2020/01/31 05:26:12.8	90.970	0.820	-1.720	0.870
2020/01/31 05:26:12.9	90.960	0.870	-1.730	0.860
2020/01/31 05:26:13.0	90.950	0.920	-1.730	0.860
2020/01/31 05:26:13.1	90.940	0.960	-1.720	0.860
2020/01/31 05:26:13.2	90.930	0.990	-1.700	0.860
2020/01/31 05:26:13.3	90.920	1.020	-1.660	0.860
2020/01/31 05:26:13.4	90.910	1.040	-1.600	0.860
2020/01/31 05:26:13.5	90.890	1.050	-1.540	0.860
2020/01/31 05:26:13.6	90.880	1.050	-1.460	0.870
2020/01/31 05:26:13.7	90.860	1.040	-1.360	0.870
2020/01/31 05:26:13.8	90.840	1.030	-1.260	0.870
2020/01/31 05:26:13.9	90.820	1.010	-1.140	0.880
2020/01/31 05:26:14.0	90.800	0.970	-1.010	0.880
2020/01/31 05:26:14.1	90.780	0.940	-0.870	0.890
2020/01/31 05:26:14.2	90.760	0.890	-0.720	0.890
2020/01/31 05:26:14.3	90.740	0.840	-0.570	0.900
2020/01/31 05:26:14.4	90.720	0.780	-0.410	0.910
2020/01/31 05:26:14.5	90.700	0.710	-0.240	0.920
2020/01/31 05:26:14.6	90.680	0.640	-0.070	0.930
2020/01/31 05:26:14.7	90.650	0.560	0.100	0.950
2020/01/31 05:26:14.8	90.630	0.470	0.280	0.960
2020/01/31 05:26:14.9	90.610	0.380	0.450	0.980
2020/01/31 05:26:15.0	90.590	0.290	0.620	0.990
2020/01/31 05:26:15.1	90.570	0.200	0.790	1.010
2020/01/31 05:26:15.2	90.560	0.100	0.950	1.020
2020/01/31 05:26:15.3	90.540	0.000	1.110	1.040
2020/01/31 05:26:15.4	90.520	-0.100	1.250	1.060
2020/01/31 05:26:15.5	90.510	-0.200	1.390	1.070
2020/01/31 05:26:15.6	90.500	-0.300	1.510	1.090
2020/01/31 05:26:15.7	90.490	-0.400	1.630	1.100
2020/01/31 05:26:15.8	90.480	-0.490	1.720	1.120
2020/01/31 05:26:15.9	90.470	-0.580	1.800	1.130
2020/01/31 05:26:16.0	90.460	-0.670	1.870	1.130
2020/01/31 05:26:16.1	90.460	-0.750	1.910	1.140
2020/01/31 05:26:16.2	90.460	-0.830	1.940	1.140
2020/01/31 05:26:16.3	90.460	-0.900	1.950	1.140
2020/01/31 05:26:16.4	90.460	-0.960	1.940	1.140
2020/01/31 05:26:16.5	90.460	-1.020	1.910	1.130
2020/01/31 05:26:16.6	90.470	-1.060	1.850	1.120
2020/01/31 05:26:16.7	90.480	-1.100	1.780	1.100
2020/01/31 05:26:16.8	90.490	-1.130	1.690	1.080
2020/01/31 05:26:16.9	90.500	-1.150	1.580	1.060
2020/01/31 05:26:17.0	90.520	-1.160	1.450	1.040
2020/01/31 05:26:17.1	90.540	-1.160	1.310	1.020
2020/01/31 05:26:17.2	90.550	-1.150	1.150	0.990
2020/01/31 05:26:17.3	90.570	-1.130	0.970	0.970
2020/01/31 05:26:17.4	90.590	-1.100	0.780	0.950
2020/01/31 05:26:17.5	90.610	-1.060	0.590	0.930
2020/01/31 05:26:17.6	90.630	-1.010	0.380	0.910
2020/01/31 05:26:17.7	90.650	-0.950	0.170	0.900
2020/01/31 05:26:17.8	90.670	-0.890	-0.050	0.890
2020/01/31 05:26:17.9	90.690	-0.810	-0.270	0.890
2020/01/31 05:26:18.0	90.710	-0.730	-0.490	0.890
2020/01/31 05:26:18.1	90.720	-0.650	-0.710	0.890
2020/01/31 05:26:18.2	90.740	-0.560	-0.930	0.900
2020/01/31 05:26:18.3	90.750	-0.470	-1.130	0.900
2020/01/31 05:26:18.4	90.760	-0.370	-1.330	0.920
2020/01/31 05:26:18.5	90.770	-0.270	-1.520	0.930
2020/01/31 05:26:18.6	90.780	-0.170	-1.700	0.940
2020/01/31 05:26:18.7	90.780	-0.070	-1.860	0.960
2020/01/31 05:26:18.8	90.780	0.030	-2.010	0.980
2020/01/31 05:26:18.9	90.780	0.130	-2.140	0.990
2020/01/31 05:26:19.0	90.780	0.220	-2.250	1.010
2020/01/31 05:26:19.1	90.770	0.310	-2.340	1.030
2020/01/31 05:26:19.2	90.760	0.400	-2.420	1.050
2020/01/31 05:26:19.3	90.750	0.480	-2.470	1.070
2020/01/31 05:26:19.4	90.730	0.550	-2.490	1.090
2020/01/31 05:26:19.5	90.720	0.620	-2.490	1.110
2020/01/31 05:26:19.6	90.700	0.680	-2.470	1.130
2020/01/31 05:26:19.7	90.670	0.730	-2.420	1.150
2020/01/31 05:26:19.8	90.650	0.770	-2.350	1.170
2020/01/31 05:26:19.9	90.630	0.800	-2.270	1.190
2020/01/31 05:26:20.0	90.600	0.820	-2.160	1.210
2020/01/31 05:26:20.1	90.570	0.830	-2.030	1.230
2020/01/31 05:26:20.2	90.550	0.830	-1.880	1.260
2020/01/31 05:26:20.3	90.520	0.830	-1.720	1.280
2020/01/31 05:26:20.4	90.490	0.810	-1.540	1.300
2020/01/31 05:26:20.5	90.460	0.790	-1.350	1.330
2020/01/31 05:26:20.6	90.430	0.750	-1.150	1.350
2020/01/31 05:26:20.7	90.410	0.710	-0.940	1.370
2020/01/31 05:26:20.8	90.380	0.660	-0.730	1.390
2020/01/31 05:26:20.9	90.350	0.600	-0.510	1.410
2020/01/31 05:26:21.0	90.320	0.540	-0.300	1.430
2020/01/31 05:26:21.1	90.300	0.470	-0.080	1.440
2020/01/31 05:26:21.2	90.270	0.400	0.140	1.460
2020/01/31 05:26:21.3	90.250	0.320	0.350	1.460
2020/01/31 05:26:21.4	90.230	0.240	0.550	1.470
2020/01/31 05:26:21.5	90.200	0.160	0.740	1.470
2020/01/31 05:26:21.6	90.190	0.080	0.920	1.460
2020/01/31 05:26:21.7	90.170	-0.000	1.090	1.450
2020/01/31 05:26:21.8	90.150	-0.080	1.240	1.430
2020/01/31 05:26:21.9	90.140	-0.160	1.380	1.400
2020/01/31 05:26:22.0	90.130	-0.240	1.490	1.370
2020/01/31 05:26:22.1	90.120	-0.310	1.590	1.340
2020/01/31 05:26:22.2	90.110	-0.370	1.660	1.290
2020/01/31 05:26:22.3	90.110	-0.430	1.710	1.240
2020/01/31 05:26:22.4	90.100	-0.480	1.750	1.190
2020/01/31 05:26:22.5	90.100	-0.520	1.750	1.130
2020/01/31 05:26:22.6	90.100	-0.560	1.740	1.080
2020/01/31 05:26:22.7	90.100	-0.580	1.700	1.020
2020/01/31 05:26:22.8	90.100	-0.590	1.650	0.960
2020/01/31 05:26:22.9	90.100	-0.600	1.570	0.900
2020/01/31 05:26:23.0	90.100	-0.590	1.470	0.840
2020/01/31 05:26:23.1	90.100	-0.580	1.350	0.780
2020/01/31 05:26:23.2	90.100	-0.560	1.220	0.720
2020/01/31 05:26:23.3	90.100	-0.520	1.080	0.670
2020/01/31 05:26:23.4	90.100	-0.480	0.920	0.620
2020/01/31 05:26:23.5	90.100	-0.440	0.750	0.570
2020/01/31 05:26:23.6	90.100	-0.380	0.580	0.530
2020/01/31 05:26:23.7	90.100	-0.320	0.400	0.490
2020/01/31 05:26:23.8	90.110	-0.260	0.210	0.450
2020/01/31 05:26:23.9	90.110	-0.190	0.030	0.420
2020/01/31 05:26:24.0	90.110	-0.120	-0.150	0.390
2020/01/31 05:26:24.1	90.110	-0.050	-0.330	0.360
2020/01/31 05:26:24.2	90.110	0.030	-0.510	0.320
2020/01/31 05:26:24.3	90.110	0.100	-0.670	0.300
2020/01/31 05:26:24.4	90.110	0.170	-0.830	0.270
2020/01/31 05:26:24.5	90.120	0.240	-0.970	0.250
2020/01/31 05:26:24.6	90.130	0.310	-1.100	0.230
2020/01/31 05:26:24.7	90.140	0.380	-1.220	0.210
2020/01/31 05:26:24.8	90.150	0.440	-1.320	0.190
2020/01/31 05:26:24.9	90.160	0.490	-1.400	0.180
2020/01/31 05:26:25.0	90.170	0.540	-1.470	0.170
2020/01/31 05:26:25.1	90.180	0.590	-1.530	0.160
2020/01/31 05:26:25.2	90.190	0.630	-1.560	0.150
2020/01/31 05:26:25.3	90.210	0.660	-1.580	0.150
2020/01/31 05:26:25.4	90.220	0.680	-1.580	0.150
2020/01/31 05:26:25.5	90.240	0.700	-1.560	0.160
2020/01/31 05:26:25.6	90.250	0.710	-1.530	0.170
2020/01/31 05:26:25.7	90.270	0.720	-1.490	0.190
2020/01/31 05:26:25.8	90.290	0.720	-1.430	0.220
2020/01/31 05:26:25.9	90.300	0.710	-1.350	0.250
2020/01/31 05:26:26.0	90.320	0.690	-1.270	0.280
2020/01/31 05:26:26.1	90.340	0.670	-1.170	0.320
2020/01/31 05:26:26.2	90.360	0.640	-1.070	0.360
2020/01/31 05:26:26.3	90.370	0.610	-0.960	0.410
2020/01/31 05:26:26.4	90.390	0.570	-0.840	0.470
2020/01/31 05:26:26.5	90.410	0.530	-0.720	0.520
2020/01/31 05:26:26.6	90.430	0.480	-0.590	0.580
2020/01/31 05:26:26.7	90.440	0.430	-0.470	0.650
2020/01/31 05:26:26.8	90.460	0.380	-0.340	0.710
2020/01/31 05:26:26.9	90.470	0.320	-0.220	0.780
2020/01/31 05:26:27.0	90.490	0.260	-0.100	0.850
2020/01/31 05:26:27.1	90.500	0.200	0.020	0.910
2020/01/31 05:26:27.2	90.500	0.140	0.130	0.980
2020/01/31 05:26:27.3	90.510	0.080	0.240	1.040
2020/01/31 05:26:27.4	90.520	0.030	0.330	1.110
2020/01/31 05:26:27.5	90.520	-0.030	0.420	1.170
2020/01/31 05:26:27.6	90.520	-0.090	0.500	1.220
2020/01/31 05:26:27.7	90.530	-0.140	0.570	1.270
2020/01/31 05:26:27.8	90.530	-0.200	0.630	1.320
2020/01/31 05:26:27.9	90.520	-0.250	0.690	1.370
2020/01/31 05:26:28.0	90.520	-0.290	0.730	1.400
2020/01/31 05:26:28.1	90.520	-0.340	0.760	1.430
2020/01/31 05:26:28.2	90.510	-0.380	0.770	1.460
2020/01/31 05:26:28.3	90.500	-0.410	0.780	1.480
2020/01/31 05:26:28.4	90.500	-0.450	0.780	1.490
2020/01/31 05:26:28.5	90.490	-0.480	0.770	1.500
2020/01/31 05:26:28.6	90.490	-0.500	0.750	1.510
2020/01/31 05:26:28.7	90.480	-0.520	0.720	1.510
2020/01/31 05:26:28.8	90.480	-0.540	0.680	1.510
2020/01/31 05:26:28.9	90.480	-0.550	0.640	1.500
2020/01/31 05:26:29.0	90.470	-0.560	0.580	1.490
2020/01/31 05:26:29.1	90.470	-0.560	0.520	1.480
2020/01/31 05:26:29.2	90.460	-0.560	0.460	1.470
2020/01/31 05:26:29.3	90.460	-0.560	0.390	1.460
2020/01/31 05:26:29.4	90.460	-0.550	0.320	1.450
2020/01/31 05:26:29.5	90.460	-0.540	0.250	1.440
2020/01/31 05:26:29.6	90.460	-0.530	0.170	1.430
2020/01/31 05:26:29.7	90.470	-0.510	0.090	1.420
2020/01/31 05:26:29.8	90.470	-0.480	0.000	1.410
2020/01/31 05:26:29.9	90.470	-0.460	-0.080	1.400
2020/01/31 05:26:30.0	90.470	-0.430	-0.160	1.390
2020/01/31 05:26:30.1	90.480	-0.400	-0.240	1.380
2020/01/31 05:26:30.2	90.480	-0.360	-0.320	1.370
2020/01/31 05:26:30.3	90.480	-0.320	-0.400	1.360
2020/01/31 05:26:30.4	90.490	-0.290	-0.470	1.350
2020/01/31 05:26:30.5	90.490	-0.250	-0.550	1.340
2020/01/31 05:26:30.6	90.500	-0.200	-0.610	1.330
2020/01/31 05:26:30.7	90.500	-0.160	-0.680	1.330
2020/01/31 05:26:30.8	90.510	-0.120	-0.730	1.320
2020/01/31 05:26:30.9	90.510	-0.070	-0.790	1.310
2020/01/31 05:26:31.0	90.520	-0.030	-0.840	1.300
2020/01/31 05:26:31.1	90.520	0.010	-0.880	1.300
2020/01/31 05:26:31.2	90.540	0.050	-0.910	1.280
2020/01/31 05:26:31.3	90.540	0.090	-0.940	1.270
2020/01/31 05:26:31.4	90.540	0.130	-0.960	1.270
2020/01/31 05:26:31.5	90.550	0.170	-0.980	1.250
2020/01/31 05:26:31.6	90.550	0.200	-0.990	1.240
2020/01/31 05:26:31.7	90.550	0.230	-0.990	1.230
2020/01/31 05:26:31.8	90.550	0.260	-0.990	1.220
2020/01/31 05:26:31.9	90.550	0.280	-0.980	1.200
2020/01/31 05:26:32.0	90.550	0.300	-0.970	1.190
2020/01/31 05:26:32.1	90.550	0.320	-0.950	1.170
2020/01/31 05:26:32.2	90.540	0.330	-0.930	1.150
2020/01/31 05:26:32.3	90.540	0.340	-0.900	1.120
2020/01/31 05:26:32.4	90.530	0.340	-0.870	1.100
2020/01/31 05:26:32.5	90.530	0.340	-0.830	1.080
2020/01/31 05:26:32.6	90.520	0.340	-0.790	1.050
2020/01/31 05:26:32.7	90.510	0.330	-0.740	1.030
2020/01/31 05:26:32.8	90.500	0.320	-0.690	1.000
2020/01/31 05:26:32.9	90.490	0.310	-0.640	0.980
2020/01/31 05:26:33.0	90.480	0.290	-0.590	0.950
2020/01/31 05:26:33.1	90.470	0.270	-0.530	0.920
2020/01/31 05:26:33.2	90.460	0.250	-0.470	0.900
2020/01/31 05:26:33.3	90.440	0.230	-0.410	0.870
2020/01/31 05:26:33.4	90.430	0.200	-0.350	0.850
2020/01/31 05:26:33.5	90.420	0.170	-0.290	0.830
2020/01/31 05:26:33.6	90.410	0.140	-0.230	0.810
2020/01/31 05:26:33.7	90.400	0.110	-0.160	0.790
2020/01/31 05:26:33.8	90.400	0.080	-0.100	0.770
2020/01/31 05:26:33.9	90.390	0.050	-0.040	0.750
2020/01/31 05:26:34.0	90.380	0.020	0.020	0.730
2020/01/31 05:26:34.1	90.380	-0.010	0.090	0.720
2020/01/31 05:26:34.2	90.370	-0.040	0.150	0.700
2020/01/31 05:26:34.3	90.370	-0.070	0.200	0.680
2020/01/31 05:26:34.4	90.370	-0.100	0.260	0.660
2020/01/31 05:26:34.5	90.370	-0.130	0.310	0.650
2020/01/31 05:26:34.6	90.380	-0.150	0.360	0.630
2020/01/31 05:26:34.7	90.380	-0.180	0.400	0.610
2020/01/31 05:26:34.8	90.390	-0.200	0.440	0.600
2020/01/31 05:26:34.9	90.390	-0.220	0.480	0.580
2020/01/31 05:26:35.0	90.400	-0.230	0.510	0.560
2020/01/31 05:26:35.1	90.410	-0.250	0.530	0.550
2020/01/31 05:26:35.2	90.410	-0.260	0.550	0.530
2020/01/31 05:26:35.3	90.420	-0.270	0.560	0.510
2020/01/31 05:26:35.4	90.430	-0.270	0.570	0.490
2020/01/31 05:26:35.5	90.440	-0.270	0.570	0.470
2020/01/31 05:26:35.6	90.450	-0.270	0.560	0.450
2020/01/31 05:26:35.7	90.450	-0.270	0.540	0.420
2020/01/31 05:26:35.8	90.460	-0.260	0.520	0.400
2020/01/31 05:26:35.9	90.460	-0.250	0.480	0.380
2020/01/31 05:26:36.0	90.470	-0.240	0.450	0.360
2020/01/31 05:26:36.1	90.470	-0.220	0.400	0.340
2020/01/31 05:26:36.2	90.470	-0.200	0.340	0.310
2020/01/31 05:26:36.3	90.470	-0.180	0.280	0.290
2020/01/31 05:26:36.4	90.470	-0.150	0.220	0.270
2020/01/31 05:26:36.5	90.470	-0.120	0.150	0.250
2020/01/31 05:26:36.6	90.470	-0.090	0.070	0.240
2020/01/31 05:26:36.7	90.470	-0.060	-0.000	0.220
2020/01/31 05:26:36.8	90.470	-0.030	-0.080	0.210
2020/01/31 05:26:36.9	90.470	0.000	-0.160	0.190
2020/01/31 05:26:37.0	90.470	0.030	-0.240	0.180
2020/01/31 05:26:37.1	90.470	0.070	-0.330	0.180
2020/01/31 05:26:37.2	90.470	0.100	-0.400	0.170
2020/01/31 05:26:37.3	90.470	0.130	-0.480	0.170
2020/01/31 05:26:37.4	90.470	0.160	-0.550	0.170
2020/01/31 05:26:37.5	90.480	0.190	-0.620	0.180
2020/01/31 05:26:37.6	90.480	0.210	-0.680	0.190
2020/01/31 05:26:37.7	90.480	0.240	-0.740	0.200
2020/01/31 05:26:37.8	90.490	0.260	-0.790	0.220
2020/01/31 05:26:37.9	90.490	0.280	-0.830	0.240
2020/01/31 05:26:38.0	90.500	0.290	-0.860	0.260
2020/01/31 05:26:38.1	90.510	0.300	-0.890	0.290
2020/01/31 05:26:38.2	90.520	0.310	-0.900	0.320
2020/01/31 05:26:38.3	90.540	0.320	-0.910	0.350
2020/01/31 05:26:38.4	90.550	0.320	-0.900	0.380
2020/01/31 05:26:38.5	90.560	0.310	-0.890	0.420
2020/01/31 05:26:38.6	90.580	0.310	-0.870	0.450
2020/01/31 05:26:38.7	90.590	0.300	-0.840	0.490
2020/01/31 05:26:38.8	90.610	0.290	-0.800	0.530
2020/01/31 05:26:38.9	90.620	0.270	-0.760	0.570
2020/01/31 05:26:39.0	90.640	0.250	-0.710	0.610
2020/01/31 05:26:39.1	90.660	0.230	-0.650	0.650
2020/01/31 05:26:39.2	90.680	0.210	-0.590	0.680
2020/01/31 05:26:39.3	90.700	0.190	-0.520	0.720
2020/01/31 05:26:39.4	90.710	0.160	-0.450	0.760
2020/01/31 05:26:39.5	90.730	0.130	-0.380	0.800
2020/01/31 05:26:39.6	90.750	0.110	-0.310	0.840
2020/01/31 05:26:39.7	90.770	0.080	-0.240	0.880
2020/01/31 05:26:39.8	90.780	0.050	-0.170	0.920
2020/01/31 05:26:39.9	90.790	0.030	-0.110	0.960
2020/01/31 05:26:40.0	90.810	0.010	-0.050	1.000
2020/01/31 05:26:40.1	90.820	-0.010	0.010	1.030
2020/01/31 05:26:40.2	90.830	-0.030	0.060	1.080
2020/01/31 05:26:40.3	90.840	-0.050	0.100	1.110
2020/01/31 05:26:40.4	90.840	-0.060	0.130	1.150
2020/01/31 05:26:40.5	90.850	-0.070	0.160	1.190
2020/01/31 05:26:40.6	90.860	-0.070	0.170	1.220
2020/01/31 05:26:40.7	90.860	-0.070	0.180	1.260
2020/01/31 05:26:40.8	90.870	-0.070	0.170	1.290
2020/01/31 05:26:40.9	90.870	-0.060	0.160	1.320
2020/01/31 05:26:41.0	90.870	-0.050	0.140	1.340
2020/01/31 05:26:41.1	90.870	-0.040	0.110	1.370
2020/01/31 05:26:41.2	90.870	-0.020	0.070	1.390
2020/01/31 05:26:41.3	90.870	0.000	0.030	1.410
2020/01/31 05:26:41.4	90.870	0.020	-0.020	1.430
2020/01/31 05:26:41.5	90.870	0.040	-0.070	1.450
2020/01/31 05:26:41.6	90.880	0.070	-0.120	1.460
2020/01/31 05:26:41.7	90.880	0.090	-0.170	1.480
2020/01/31 05:26:41.8	90.880	0.120	-0.230	1.490
2020/01/31 05:26:41.9	90.880	0.140	-0.290	1.500
2020/01/31 05:26:42.0	90.870	0.160	-0.340	1.510
2020/01/31 05:26:42.1	90.870	0.180	-0.390	1.510
2020/01/31 05:26:42.2	90.870	0.200	-0.440	1.520
2020/01/31 05:26:42.3	90.860	0.220	-0.480	1.520
2020/01/31 05:26:42.4	90.860	0.230	-0.520	1.520
2020/01/31 05:26:42.5	90.860	0.240	-0.550	1.520
2020/01/31 05:26:42.6	90.860	0.250	-0.570	1.510
2020/01/31 05:26:42.7	90.850	0.250	-0.590	1.510
2020/01/31 05:26:42.8	90.850	0.250	-0.600	1.500
2020/01/31 05:26:42.9	90.840	0.250	-0.600	1.490
2020/01/31 05:26:43.0	90.840	0.240	-0.600	1.480
2020/01/31 05:26:43.1	90.830	0.230	-0.590	1.460
2020/01/31 05:26:43.2	90.830	0.220	-0.570	1.440
2020/01/31 05:26:43.3	90.820	0.200	-0.540	1.430
2020/01/31 05:26:43.4	90.810	0.180	-0.510	1.410
2020/01/31 05:26:43.5	90.800	0.150	-0.470	1.390
2020/01/31 05:26:43.6	90.790	0.120	-0.420	1.360
2020/01/31 05:26:43.7	90.780	0.090	-0.370	1.340
2020/01/31 05:26:43.8	90.780	0.060	-0.310	1.310
2020/01/31 05:26:43.9	90.770	0.030	-0.250	1.280
2020/01/31 05:26:44.0	90.760	-0.010	-0.180	1.240
2020/01/31 05:26:44.1	90.750	-0.050	-0.110	1.210
2020/01/31 05:26:44.2	90.740	-0.090	-0.040	1.170
2020/01/31 05:26:44.3	90.740	-0.120	0.030	1.130
2020/01/31 05:26:44.4	90.730	-0.160	0.100	1.090
2020/01/31 05:26:44.5	90.720	-0.200	0.170	1.050
2020/01/31 05:26:44.6	90.720	-0.240	0.240	1.010
2020/01/31 05:26:44.7	90.710	-0.280	0.300	0.970
2020/01/31 05:26:44.8	90.710	-0.310	0.370	0.930
2020/01/31 05:26:44.9	90.710	-0.340	0.420	0.890
2020/01/31 05:26:45.0	90.700	-0.370	0.470	0.850
2020/01/31 05:26:45.1	90.700	-0.400	0.520	0.810
2020/01/31 05:26:45.2	90.700	-0.430	0.550	0.770
2020/01/31 05:26:45.3	90.700	-0.450	0.590	0.740
2020/01/31 05:26:45.4	90.700	-0.460	0.610	0.700
2020/01/31 05:26:45.5	90.700	-0.480	0.620	0.670
2020/01/31 05:26:45.6	90.700	-0.490	0.630	0.640
2020/01/31 05:26:45.7	90.710	-0.490	0.630	0.610
2020/01/31 05:26:45.8	90.710	-0.500	0.620	0.580
2020/01/31 05:26:45.9	90.720	-0.490	0.600	0.560
2020/01/31 05:26:46.0	90.730	-0.490	0.580	0.530
2020/01/31 05:26:46.1	90.740	-0.480	0.540	0.500
2020/01/31 05:26:46.2	90.740	-0.460	0.500	0.470
2020/01/31 05:26:46.3	90.760	-0.440	0.450	0.440
2020/01/31 05:26:46.4	90.770	-0.420	0.400	0.410
2020/01/31 05:26:46.5	90.790	-0.400	0.330	0.380
2020/01/31 05:26:46.6	90.810	-0.370	0.260	0.350
2020/01/31 05:26:46.7	90.830	-0.340	0.190	0.320
2020/01/31 05:26:46.8	90.850	-0.310	0.110	0.280
2020/01/31 05:26:46.9	90.870	-0.270	0.030	0.240
2020/01/31 05:26:47.0	90.900	-0.230	-0.060	0.210
2020/01/31 05:26:47.1	90.930	-0.190	-0.150	0.170
2020/01/31 05:26:47.2	90.960	-0.150	-0.240	0.130
2020/01/31 05:26:47.3	90.990	-0.100	-0.330	0.090
2020/01/31 05:26:47.4	91.010	-0.060	-0.420	0.060
2020/01/31 05:26:47.5	91.040	-0.010	-0.510	0.030
2020/01/31 05:26:47.6	91.070	0.040	-0.590	0.010
2020/01/31 05:26:47.7	91.090	0.080	-0.670	-0.010
2020/01/31 05:26:47.8	91.120	0.130	-0.750	-0.030
2020/01/31 05:26:47.9	91.140	0.170	-0.810	-0.040
2020/01/31 05:26:48.0	91.170	0.220	-0.880	-0.040
2020/01/31 05:26:48.1	91.190	0.260	-0.930	-0.040
2020/01/31 05:26:48.2	91.210	0.300	-0.980	-0.040
2020/01/31 05:26:48.3	91.220	0.340	-1.020	-0.020
2020/01/31 05:26:48.4	91.240	0.380	-1.050	-0.000
2020/01/31 05:26:48.5	91.250	0.410	-1.080	0.020
2020/01/31 05:26:48.6	91.270	0.440	-1.090	0.060
2020/01/31 05:26:48.7	91.280	0.470	-1.090	0.090
2020/01/31 05:26:48.8	91.290	0.490	-1.090	0.130
2020/01/31 05:26:48.9	91.300	0.510	-1.080	0.180
2020/01/31 05:26:49.0	91.300	0.530	-1.060	0.230
2020/01/31 05:26:49.1	91.310	0.540	-1.030	0.280
2020/01/31 05:26:49.2	91.320	0.540	-1.000	0.330
2020/01/31 05:26:49.3	91.320	0.550	-0.960	0.390
2020/01/31 05:26:49.4	91.320	0.540	-0.920	0.440
2020/01/31 05:26:49.5	91.320	0.540	-0.870	0.500
2020/01/31 05:26:49.6	91.320	0.530	-0.820	0.560
2020/01/31 05:26:49.7	91.320	0.510	-0.770	0.610
2020/01/31 05:26:49.8	91.320	0.500	-0.720	0.670
2020/01/31 05:26:49.9	91.310	0.480	-0.670	0.720
2020/01/31 05:26:50.0	91.310	0.450	-0.610	0.770
2020/01/31 05:26:50.1	91.300	0.430	-0.560	0.820
2020/01/31 05:26:50.2	91.290	0.400	-0.510	0.860
2020/01/31 05:26:50.3	91.280	0.370	-0.460	0.910
2020/01/31 05:26:50.4	91.270	0.340	-0.420	0.950
2020/01/31 05:26:50.5	91.250	0.310	-0.380	0.990
2020/01/31 05:26:50.6	91.240	0.280	-0.340	1.020
2020/01/31 05:26:50.7	91.220	0.250	-0.310	1.060
2020/01/31 05:26:50.8	91.200	0.220	-0.280	1.090
2020/01/31 05:26:50.9	91.180	0.180	-0.260	1.120
2020/01/31 05:26:51.0	91.160	0.150	-0.230	1.150
2020/01/31 05:26:51.1	91.140	0.120	-0.210	1.170
2020/01/31 05:26:51.2	91.120	0.090	-0.200	1.190
2020/01/31 05:26:51.3	91.100	0.060	-0.180	1.210
2020/01/31 05:26:51.4	91.080	0.030	-0.170	1.230
2020/01/31 05:26:51.5	91.060	-0.000	-0.160	1.250
2020/01/31 05:26:51.6	91.040	-0.030	-0.150	1.260
2020/01/31 05:26:51.7	91.020	-0.060	-0.140	1.270
2020/01/31 05:26:51.8	91.010	-0.080	-0.130	1.270
2020/01/31 05:26:51.9	90.990	-0.110	-0.120	1.280
2020/01/31 05:26:52.0	90.980	-0.130	-0.100	1.280
2020/01/31 05:26:52.1	90.960	-0.160	-0.090	1.280
2020/01/31 05:26:52.2	90.950	-0.180	-0.080	1.280
2020/01/31 05:26:52.3	90.940	-0.200	-0.060	1.280
2020/01/31 05:26:52.4	90.930	-0.210	-0.050	1.270
2020/01/31 05:26:52.5	90.920	-0.230	-0.030	1.270
2020/01/31 05:26:52.6	90.910	-0.250	-0.010	1.260
2020/01/31 05:26:52.7	90.900	-0.260	0.010	1.250
2020/01/31 05:26:52.8	90.900	-0.270	0.030	1.240
2020/01/31 05:26:52.9	90.890	-0.280	0.050	1.220
2020/01/31 05:26:53.0	90.890	-0.290	0.070	1.200
2020/01/31 05:26:53.1	90.890	-0.300	0.090	1.180
2020/01/31 05:26:53.2	90.890	-0.300	0.110	1.160
2020/01/31 05:26:53.3	90.890	-0.310	0.130	1.140
2020/01/31 05:26:53.4	90.890	-0.310	0.150	1.110
2020/01/31 05:26:53.5	90.900	-0.310	0.170	1.080
2020/01/31 05:26:53.6	90.900	-0.310	0.190	1.050
2020/01/31 05:26:53.7	90.910	-0.310	0.210	1.010
2020/01/31 05:26:53.8	90.920	-0.310	0.220	0.980
2020/01/31 05:26:53.9	90.940	-0.310	0.230	0.940
2020/01/31 05:26:54.0	90.950	-0.300	0.240	0.900
2020/01/31 05:26:54.1	90.970	-0.300	0.250	0.860
2020/01/31 05:26:54.2	90.990	-0.290	0.260	0.810
2020/01/31 05:26:54.3	91.010	-0.290	0.260	0.770
2020/01/31 05:26:54.4	91.030	-0.280	0.260	0.730
2020/01/31 05:26:54.5	91.050	-0.270	0.250	0.690
2020/01/31 05:26:54.6	91.080	-0.260	0.240	0.650
2020/01/31 05:26:54.7	91.110	-0.260	0.230	0.610
2020/01/31 05:26:54.8	91.130	-0.250	0.220	0.570
2020/01/31 05:26:54.9	91.160	-0.240	0.200	0.530
2020/01/31 05:26:55.0	91.190	-0.220	0.180	0.490
2020/01/31 05:26:55.1	91.220	-0.210	0.150	0.450
2020/01/31 05:26:55.2	91.250	-0.200	0.120	0.420
2020/01/31 05:26:55.3	91.280	-0.190	0.090	0.380
2020/01/31 05:26:55.4	91.310	-0.170	0.060	0.350
2020/01/31 05:26:55.5	91.340	-0.160	0.020	0.320
2020/01/31 05:26:55.6	91.370	-0.140	-0.010	0.290
2020/01/31 05:26:55.7	91.410	-0.120	-0.050	0.260
2020/01/31 05:26:55.8	91.440	-0.100	-0.090	0.230
2020/01/31 05:26:55.9	91.470	-0.090	-0.130	0.210
2020/01/31 05:26:56.0	91.500	-0.070	-0.170	0.180
2020/01/31 05:26:56.1	91.530	-0.050	-0.210	0.160
2020/01/31 05:26:56.2	91.560	-0.020	-0.240	0.140
2020/01/31 05:26:56.3	91.590	-0.000	-0.280	0.120
2020/01/31 05:26:56.4	91.620	0.020	-0.310	0.110
2020/01/31 05:26:56.5	91.650	0.040	-0.340	0.100
2020/01/31 05:26:56.6	91.670	0.070	-0.380	0.090
2020/01/31 05:26:56.7	91.700	0.090	-0.400	0.090
2020/01/31 05:26:56.8	91.720	0.120	-0.430	0.090
2020/01/31 05:26:56.9	91.740	0.140	-0.450	0.090
2020/01/31 05:26:57.0	91.760	0.170	-0.470	0.110
2020/01/31 05:26:57.1	91.780	0.190	-0.490	0.120
2020/01/31 05:26:57.2	91.790	0.210	-0.500	0.140
2020/01/31 05:26:57.3	91.800	0.240	-0.510	0.170
2020/01/31 05:26:57.4	91.800	0.260	-0.520	0.200
2020/01/31 05:26:57.5	91.810	0.280	-0.530	0.230
2020/01/31 05:26:57.6	91.810	0.300	-0.530	0.270
2020/01/31 05:26:57.7	91.810	0.320	-0.530	0.320
2020/01/31 05:26:57.8	91.810	0.340	-0.530	0.360
2020/01/31 05:26:57.9	91.800	0.360	-0.520	0.410
2020/01/31 05:26:58.0	91.790	0.380	-0.510	0.460
2020/01/31 05:26:58.1	91.780	0.390	-0.510	0.510
2020/01/31 05:26:58.2	91.760	0.400	-0.490	0.560
2020/01/31 05:26:58.3	91.740	0.410	-0.480	0.620
2020/01/31 05:26:58.4	91.720	0.420	-0.470	0.670
2020/01/31 05:26:58.5	91.690	0.420	-0.460	0.720
2020/01/31 05:26:58.6	91.670	0.420	-0.440	0.770
2020/01/31 05:26:58.7	91.640	0.420	-0.420	0.820
2020/01/31 05:26:58.8	91.610	0.420	-0.410	0.870
2020/01/31 05:26:58.9	91.590	0.410	-0.390	0.920
2020/01/31 05:26:59.0	91.560	0.400	-0.370	0.960
2020/01/31 05:26:59.1	91.530	0.390	-0.350	1.000
2020/01/31 05:26:59.2	91.500	0.370	-0.330	1.030
2020/01/31 05:26:59.3	91.470	0.350	-0.310	1.060
2020/01/31 05:26:59.4	91.450	0.320	-0.280	1.090
2020/01/31 05:26:59.5	91.420	0.300	-0.260	1.110
2020/01/31 05:26:59.6	91.400	0.270	-0.240	1.130
2020/01/31 05:26:59.7	91.380	0.240	-0.210	1.140
2020/01/31 05:26:59.8	91.370	0.200	-0.190	1.150
2020/01/31 05:26:59.9	91.360	0.170	-0.160	1.160
2020/01/31 05:27:00.0	91.350	0.130	-0.130	1.160
2020/01/31 05:27:00.1	91.340	0.080	-0.110	1.150
2020/01/31 05:27:00.2	91.340	0.040	-0.080	1.140
2020/01/31 05:27:00.3	91.350	-0.000	-0.050	1.130
2020/01/31 05:27:00.4	91.360	-0.050	-0.020	1.120
2020/01/31 05:27:00.5	91.370	-0.090	0.010	1.110
2020/01/31 05:27:00.6	91.390	-0.140	0.030	1.090
2020/01/31 05:27:00.7	91.410	-0.190	0.060	1.080
2020/01/31 05:27:00.8	91.430	-0.230	0.090	1.060
2020/01/31 05:27:00.9	91.460	-0.280	0.110	1.040
2020/01/31 05:27:01.0	91.480	-0.320	0.140	1.020
2020/01/31 05:27:01.1	91.510	-0.360	0.160	1.000
2020/01/31 05:27:01.2	91.550	-0.400	0.180	0.980
2020/01/31 05:27:01.3	91.580	-0.440	0.200	0.960
2020/01/31 05:27:01.4	91.620	-0.470	0.220	0.940
2020/01/31 05:27:01.5	91.650	-0.500	0.230	0.920
2020/01/31 05:27:01.6	91.680	-0.530	0.240	0.910
2020/01/31 05:27:01.7	91.720	-0.550	0.250	0.890
2020/01/31 05:27:01.8	91.750	-0.570	0.250	0.880
2020/01/31 05:27:01.9	91.780	-0.580	0.240	0.870
2020/01/31 05:27:02.0	91.820	-0.590	0.240	0.860
2020/01/31 05:27:02.1	91.850	-0.590	0.220	0.850
2020/01/31 05:27:02.2	91.880	-0.580	0.200	0.840
2020/01/31 05:27:02.3	91.900	-0.570	0.180	0.840
2020/01/31 05:27:02.4	91.930	-0.560	0.140	0.830
2020/01/31 05:27:02.5	91.950	-0.540	0.100	0.830
2020/01/31 05:27:02.6	91.970	-0.510	0.050	0.820
2020/01/31 05:27:02.7	91.990	-0.470	-0.000	0.820
2020/01/31 05:27:02.8	92.000	-0.430	-0.060	0.820
2020/01/31 05:27:02.9	92.010	-0.390	-0.130	0.820
2020/01/31 05:27:03.0	92.020	-0.340	-0.200	0.820
2020/01/31 05:27:03.1	92.030	-0.290	-0.270	0.820
2020/01/31 05:27:03.2	92.030	-0.230	-0.360	0.830
2020/01/31 05:27:03.3	92.040	-0.170	-0.430	0.830
2020/01/31 05:27:03.4	92.040	-0.110	-0.510	0.830
2020/01/31 05:27:03.5	92.040	-0.050	-0.590	0.830
2020/01/31 05:27:03.6	92.040	0.020	-0.670	0.830
2020/01/31 05:27:03.7	92.040	0.080	-0.740	0.840
2020/01/31 05:27:03.8	92.030	0.140	-0.810	0.840
2020/01/31 05:27:03.9	92.030	0.200	-0.880	0.840
2020/01/31 05:27:04.0	92.020	0.260	-0.940	0.840
2020/01/31 05:27:04.1	92.020	0.310	-0.990	0.850
2020/01/31 05:27:04.2	92.010	0.360	-1.030	0.850
2020/01/31 05:27:04.3	92.000	0.410	-1.070	0.860
2020/01/31 05:27:04.4	92.000	0.450	-1.090	0.860
2020/01/31 05:27:04.5	91.990	0.490	-1.110	0.870
2020/01/31 05:27:04.6	91.980	0.520	-1.120	0.880
2020/01/31 05:27:04.7	91.980	0.550	-1.120	0.890
2020/01/31 05:27:04.8	91.970	0.570	-1.110	0.910
2020/01/31 05:27:04.9	91.960	0.580	-1.090	0.920
2020/01/31 05:27:05.0	91.960	0.590	-1.060	0.930
2020/01/31 05:27:05.1	91.950	0.600	-1.020	0.940
2020/01/31 05:27:05.2	91.950	0.590	-0.970	0.960
2020/01/31 05:27:05.3	91.940	0.590	-0.910	0.970
2020/01/31 05:27:05.4	91.940	0.570	-0.850	0.980
2020/01/31 05:27:05.5	91.930	0.550	-0.780	0.990
2020/01/31 05:27:05.6	91.930	0.530	-0.700	1.000
2020/01/31 05:27:05.7	91.930	0.500	-0.620	1.000
2020/01/31 05:27:05.8	91.930	0.470	-0.530	1.010
2020/01/31 05:27:05.9	91.920	0.440	-0.440	1.010
2020/01/31 05:27:06.0	91.920	0.400	-0.340	1.010
2020/01/31 05:27:06.1	91.920	0.350	-0.250	1.010
2020/01/31 05:27:06.2	91.920	0.310	-0.150	1.010
2020/01/31 05:27:06.3	91.920	0.260	-0.060	1.000
2020/01/31 05:27:06.4	91.920	0.220	0.040	0.990
2020/01/31 05:27:06.5	91.910	0.170	0.120	0.980
2020/01/31 05:27:06.6	91.910	0.120	0.210	0.960
2020/01/31 05:27:06.7	91.910	0.070	0.290	0.950
2020/01/31 05:27:06.8	91.910	0.020	0.370	0.930
2020/01/31 05:27:06.9	91.910	-0.030	0.430	0.910
2020/01/31 05:27:07.0	91.900	-0.070	0.500	0.890
2020/01/31 05:27:07.1	91.900	-0.110	0.550	0.860
2020/01/31 05:27:07.2	91.900	-0.160	0.600	0.840
2020/01/31 05:27:07.3	91.890	-0.190	0.630	0.810
2020/01/31 05:27:07.4	91.890	-0.230	0.660	0.790
2020/01/31 05:27:07.5	91.890	-0.260	0.680	0.760
2020/01/31 05:27:07.6	91.890	-0.290	0.680	0.740
2020/01/31 05:27:07.7	91.890	-0.310	0.680	0.720
2020/01/31 05:27:07.8	91.890	-0.330	0.670	0.700
2020/01/31 05:27:07.9	91.890	-0.340	0.650	0.680
2020/01/31 05:27:08.0	91.890	-0.350	0.620	0.660
2020/01/31 05:27:08.1	91.890	-0.360	0.570	0.640
2020/01/31 05:27:08.2	91.880	-0.360	0.520	0.630
2020/01/31 05:27:08.3	91.890	-0.360	0.470	0.620
2020/01/31 05:27:08.4	91.890	-0.360	0.400	0.610
2020/01/31 05:27:08.5	91.900	-0.350	0.330	0.600
2020/01/31 05:27:08.6	91.900	-0.330	0.250	0.600
2020/01/31 05:27:08.7	91.910	-0.320	0.170	0.600
2020/01/31 05:27:08.8	91.920	-0.300	0.090	0.600
2020/01/31 05:27:08.9	91.920	-0.280	0.000	0.600
2020/01/31 05:27:09.0	91.930	-0.250	-0.090	0.610
2020/01/31 05:27:09.1	91.940	-0.230	-0.170	0.610
2020/01/31 05:27:09.2	91.950	-0.200	-0.270	0.620
2020/01/31 05:27:09.3	91.950	-0.170	-0.350	0.620
2020/01/31 05:27:09.4	91.960	-0.140	-0.430	0.630
2020/01/31 05:27:09.5	91.970	-0.110	-0.510	0.640
2020/01/31 05:27:09.6	91.970	-0.080	-0.580	0.640
2020/01/31 05:27:09.7	91.980	-0.050	-0.650	0.650
2020/01/31 05:27:09.8	91.990	-0.020	-0.710	0.650
2020/01/31 05:27:09.9	91.990	0.010	-0.770	0.660
2020/01/31 05:27:10.0	92.000	0.030	-0.810	0.660
2020/01/31 05:27:10.1	92.010	0.060	-0.850	0.660
2020/01/31 05:27:10.2	92.020	0.090	-0.890	0.670
2020/01/31 05:27:10.3	92.030	0.110	-0.910	0.670
2020/01/31 05:27:10.4	92.040	0.130	-0.920	0.670
2020/01/31 05:27:10.5	92.050	0.150	-0.930	0.670
2020/01/31 05:27:10.6	92.060	0.170	-0.930	0.670
2020/01/31 05:27:10.7	92.070	0.180	-0.920	0.670
2020/01/31 05:27:10.8	92.080	0.190	-0.910	0.670
2020/01/31 05:27:10.9	92.100	0.200	-0.880	0.680
2020/01/31 05:27:11.0	92.110	0.210	-0.860	0.680
2020/01/31 05:27:11.1	92.120	0.220	-0.820	0.690
2020/01/31 05:27:11.2	92.130	0.220	-0.780	0.700
2020/01/31 05:27:11.3	92.140	0.220	-0.730	0.720
2020/01/31 05:27:11.4	92.160	0.210	-0.690	0.740
2020/01/31 05:27:11.5	92.170	0.210	-0.640	0.760
2020/01/31 05:27:11.6	92.180	0.200	-0.580	0.790
2020/01/31 05:27:11.7	92.190	0.190	-0.530	0.820
2020/01/31 05:27:11.8	92.200	0.180	-0.470	0.850
2020/01/31 05:27:11.9	92.210	0.160	-0.410	0.880
2020/01/31 05:27:12.0	92.220	0.140	-0.350	0.920
2020/01/31 05:27:12.1	92.230	0.130	-0.290	0.960
2020/01/31 05:27:12.2	92.240	0.100	-0.230	1.000
2020/01/31 05:27:12.3	92.250	0.080	-0.170	1.040
2020/01/31 05:27:12.4	92.260	0.060	-0.110	1.070
2020/01/31 05:27:12.5	92.270	0.030	-0.050	1.110
2020/01/31 05:27:12.6	92.280	0.000	0.010	1.140
2020/01/31 05:27:12.7	92.280	-0.030	0.060	1.170
2020/01/31 05:27:12.8	92.290	-0.060	0.120	1.200
2020/01/31 05:27:12.9	92.290	-0.090	0.170	1.220
2020/01/31 05:27:13.0	92.290	-0.120	0.220	1.240
2020/01/31 05:27:13.1	92.300	-0.160	0.270	1.250
2020/01/31 05:27:13.2	92.300	-0.190	0.320	1.260
2020/01/31 05:27:13.3	92.300	-0.220	0.370	1.270
2020/01/31 05:27:13.4	92.290	-0.260	0.410	1.270
2020/01/31 05:27:13.5	92.290	-0.290	0.450	1.270
2020/01/31 05:27:13.6	92.290	-0.320	0.480	1.270
2020/01/31 05:27:13.7	92.280	-0.360	0.520	1.260
2020/01/31 05:27:13.8	92.270	-0.390	0.550	1.250
2020/01/31 05:27:13.9	92.260	-0.420	0.570	1.230
2020/01/31 05:27:14.0	92.250	-0.450	0.600	1.220
2020/01/31 05:27:14.1	92.230	-0.480	0.620	1.200
2020/01/31 05:27:14.2	92.220	-0.500	0.640	1.180
2020/01/31 05:27:14.3	92.200	-0.530	0.650	1.160
2020/01/31 05:27:14.4	92.180	-0.550	0.660	1.140
2020/01/31 05:27:14.5	92.160	-0.570	0.670	1.120
2020/01/31 05:27:14.6	92.140	-0.580	0.670	1.100
2020/01/31 05:27:14.7	92.110	-0.600	0.660	1.080
2020/01/31 05:27:14.8	92.090	-0.600	0.650	1.060
2020/01/31 05:27:14.9	92.070	-0.610	0.630	1.040
2020/01/31 05:27:15.0	92.040	-0.610	0.610	1.030
2020/01/31 05:27:15.1	92.020	-0.600	0.580	1.010
2020/01/31 05:27:15.2	92.000	-0.590	0.540	1.000
2020/01/31 05:27:15.3	91.970	-0.580	0.490	0.980
2020/01/31 05:27:15.4	91.950	-0.560	0.430	0.970
2020/01/31 05:27:15.5	91.940	-0.530	0.370	0.950
2020/01/31 05:27:15.6	91.920	-0.500	0.290	0.930
2020/01/31 05:27:15.7	91.910	-0.470	0.210	0.910
2020/01/31 05:27:15.8	91.900	-0.420	0.120	0.890
2020/01/31 05:27:15.9	91.890	-0.380	0.030	0.860
2020/01/31 05:27:16.0	91.890	-0.320	-0.080	0.830
2020/01/31 05:27:16.1	91.890	-0.270	-0.190	0.810
2020/01/31 05:27:16.2	91.890	-0.200	-0.300	0.770
2020/01/31 05:27:16.3	91.890	-0.140	-0.420	0.740
2020/01/31 05:27:16.4	91.900	-0.070	-0.540	0.700
2020/01/31 05:27:16.5	91.910	0.000	-0.670	0.670
2020/01/31 05:27:16.6	91.920	0.070	-0.790	0.630
2020/01/31 05:27:16.7	91.930	0.150	-0.910	0.590
2020/01/31 05:27:16.8	91.940	0.220	-1.030	0.550
2020/01/31 05:27:16.9	91.960	0.300	-1.140	0.510
2020/01/31 05:27:17.0	91.970	0.370	-1.250	0.470
2020/01/31 05:27:17.1	91.990	0.440	-1.350	0.430
2020/01/31 05:27:17.2	92.000	0.510	-1.450	0.390
2020/01/31 05:27:17.3	92.020	0.580	-1.530	0.350
2020/01/31 05:27:17.4	92.030	0.640	-1.600	0.320
2020/01/31 05:27:17.5	92.040	0.700	-1.660	0.280
2020/01/31 05:27:17.6	92.050	0.750	-1.700	0.250
2020/01/31 05:27:17.7	92.060	0.790	-1.730	0.220
2020/01/31 05:27:17.8	92.070	0.830	-1.750	0.200
2020/01/31 05:27:17.9	92.080	0.870	-1.750	0.180
2020/01/31 05:27:18.0	92.080	0.890	-1.740	0.170
2020/01/31 05:27:18.1	92.080	0.910	-1.710	0.160
2020/01/31 05:27:18.2	92.080	0.920	-1.660	0.150
2020/01/31 05:27:18.3	92.080	0.920	-1.610	0.160
2020/01/31 05:27:18.4	92.070	0.920	-1.540	0.170
2020/01/31 05:27:18.5	92.070	0.900	-1.450	0.180
2020/01/31 05:27:18.6	92.060	0.880	-1.350	0.200
2020/01/31 05:27:18.7	92.050	0.850	-1.240	0.230
2020/01/31 05:27:18.8	92.030	0.820	-1.120	0.260
2020/01/31 05:27:18.9	92.020	0.770	-1.000	0.300
2020/01/31 05:27:19.0	92.010	0.720	-0.860	0.340
2020/01/31 05:27:19.1	91.990	0.670	-0.710	0.380
2020/01/31 05:27:19.2	91.970	0.610	-0.560	0.420
2020/01/31 05:27:19.3	91.960	0.540	-0.410	0.470
2020/01/31 05:27:19.4	91.940	0.470	-0.250	0.510
2020/01/31 05:27:19.5	91.920	0.400	-0.090	0.560
2020/01/31 05:27:19.6	91.910	0.320	0.070	0.610
2020/01/31 05:27:19.7	91.890	0.240	0.230	0.650
2020/01/31 05:27:19.8	91.870	0.160	0.380	0.690
2020/01/31 05:27:19.9	91.860	0.080	0.530	0.730
2020/01/31 05:27:20.0	91.840	0.000	0.670	0.770
2020/01/31 05:27:20.1	91.830	-0.080	0.800	0.810
2020/01/31 05:27:20.2	91.810	-0.160	0.930	0.830
2020/01/31 05:27:20.3	91.800	-0.240	1.050	0.860
2020/01/31 05:27:20.4	91.790	-0.310	1.160	0.880
2020/01/31 05:27:20.5	91.780	-0.380	1.250	0.900
2020/01/31 05:27:20.6	91.780	-0.440	1.330	0.910
2020/01/31 05:27:20.7	91.770	-0.500	1.390	0.920
2020/01/31 05:27:20.8	91.770	-0.560	1.440	0.920
2020/01/31 05:27:20.9	91.780	-0.610	1.480	0.920
2020/01/31 05:27:21.0	91.780	-0.650	1.490	0.910
2020/01/31 05:27:21.1	91.790	-0.680	1.490	0.910
2020/01/31 05:27:21.2	91.790	-0.710	1.480	0.890
2020/01/31 05:27:21.3	91.800	-0.720	1.450	0.880
2020/01/31 05:27:21.4	91.810	-0.730	1.400	0.860
2020/01/31 05:27:21.5	91.820	-0.730	1.330	0.840
2020/01/31 05:27:21.6	91.840	-0.720	1.250	0.820
2020/01/31 05:27:21.7	91.850	-0.700	1.150	0.810
2020/01/31 05:27:21.8	91.860	-0.680	1.040	0.790
2020/01/31 05:27:21.9	91.870	-0.640	0.910	0.770
2020/01/31 05:27:22.0	91.880	-0.600	0.770	0.760
2020/01/31 05:27:22.1	91.890	-0.550	0.630	0.750
2020/01/31 05:27:22.2	91.900	-0.490	0.470	0.740
2020/01/31 05:27:22.3	91.910	-0.430	0.300	0.730
2020/01/31 05:27:22.4	91.910	-0.360	0.140	0.730
2020/01/31 05:27:22.5	91.910	-0.290	-0.040	0.730
2020/01/31 05:27:22.6	91.910	-0.210	-0.210	0.730
2020/01/31 05:27:22.7	91.910	-0.130	-0.390	0.730
2020/01/31 05:27:22.8	91.910	-0.050	-0.560	0.740
2020/01/31 05:27:22.9	91.900	0.040	-0.720	0.750
2020/01/31 05:27:23.0	91.890	0.120	-0.890	0.760
2020/01/31 05:27:23.1	91.880	0.210	-1.040	0.770
2020/01/31 05:27:23.2	91.870	0.290	-1.190	0.780
2020/01/31 05:27:23.3	91.860	0.370	-1.330	0.790
2020/01/31 05:27:23.4	91.850	0.450	-1.450	0.800
2020/01/31 05:27:23.5	91.830	0.520	-1.560	0.810
2020/01/31 05:27:23.6	91.820	0.580	-1.650	0.830
2020/01/31 05:27:23.7	91.810	0.640	-1.730	0.840
2020/01/31 05:27:23.8	91.790	0.700	-1.790	0.850
2020/01/31 05:27:23.9	91.780	0.750	-1.840	0.860
2020/01/31 05:27:24.0	91.770	0.790	-1.870	0.870
2020/01/31 05:27:24.1	91.760	0.820	-1.880	0.880
2020/01/31 05:27:24.2	91.740	0.840	-1.880	0.890
2020/01/31 05:27:24.3	91.740	0.860	-1.860	0.890
2020/01/31 05:27:24.4	91.730	0.860	-1.830	0.900
2020/01/31 05:27:24.5	91.720	0.860	-1.780	0.910
2020/01/31 05:27:24.6	91.720	0.850	-1.710	0.920
2020/01/31 05:27:24.7	91.710	0.830	-1.630	0.930
2020/01/31 05:27:24.8	91.710	0.800	-1.530	0.940
2020/01/31 05:27:24.9	91.710	0.760	-1.430	0.950
2020/01/31 05:27:25.0	91.710	0.720	-1.310	0.970
2020/01/31 05:27:25.1	91.710	0.670	-1.180	0.980
2020/01/31 05:27:25.2	91.700	0.610	-1.040	0.990
2020/01/31 05:27:25.3	91.710	0.550	-0.890	1.010
2020/01/31 05:27:25.4	91.710	0.480	-0.750	1.030
2020/01/31 05:27:25.5	91.720	0.410	-0.590	1.050
2020/01/31 05:27:25.6	91.720	0.340	-0.440	1.070
2020/01/31 05:27:25.7	91.730	0.260	-0.280	1.090
2020/01/31 05:27:25.8	91.730	0.180	-0.120	1.120
2020/01/31 05:27:25.9	91.740	0.090	0.030	1.140
2020/01/31 05:27:26.0	91.740	0.010	0.190	1.170
2020/01/31 05:27:26.1	91.750	-0.080	0.340	1.200
2020/01/31 05:27:26.2	91.750	-0.160	0.490	1.230
2020/01/31 05:27:26.3	91.760	-0.250	0.630	1.260
2020/01/31 05:27:26.4	91.760	-0.330	0.760	1.290
2020/01/31 05:27:26.5	91.770	-0.410	0.890	1.320
2020/01/31 05:27:26.6	91.770	-0.490	1.000	1.350
2020/01/31 05:27:26.7	91.770	-0.570	1.110	1.380
2020/01/31 05:27:26.8	91.780	-0.640	1.210	1.410
2020/01/31 05:27:26.9	91.780	-0.710	1.290	1.430
2020/01/31 05:27:27.0	91.790	-0.780	1.360	1.450
2020/01/31 05:27:27.1	91.790	-0.840	1.420	1.470
2020/01/31 05:27:27.2	91.800	-0.890	1.460	1.480
2020/01/31 05:27:27.3	91.810	-0.940	1.480	1.490
2020/01/31 05:27:27.4	91.820	-0.980	1.490	1.500
2020/01/31 05:27:27.5	91.820	-1.020	1.490	1.500
2020/01/31 05:27:27.6	91.840	-1.040	1.470	1.490
2020/01/31 05:27:27.7	91.850	-1.060	1.430	1.480
2020/01/31 05:27:27.8	91.860	-1.070	1.370	1.470
2020/01/31 05:27:27.9	91.870	-1.070	1.300	1.450
2020/01/31 05:27:28.0	91.890	-1.070	1.210	1.420
2020/01/31 05:27:28.1	91.900	-1.050	1.110	1.400
2020/01/31 05:27:28.2	91.920	-1.030	1.000	1.370
2020/01/31 05:27:28.3	91.940	-1.000	0.880	1.330
2020/01/31 05:27:28.4	91.950	-0.960	0.740	1.300
2020/01/31 05:27:28.5	91.970	-0.920	0.600	1.270
2020/01/31 05:27:28.6	91.980	-0.870	0.450	1.240
2020/01/31 05:27:28.7	91.990	-0.810	0.300	1.210
2020/01/31 05:27:28.8	92.000	-0.760	0.140	1.180
2020/01/31 05:27:28.9	92.010	-0.690	-0.020	1.160
2020/01/31 05:27:29.0	92.020	-0.630	-0.170	1.140
2020/01/31 05:27:29.1	92.020	-0.560	-0.320	1.120
2020/01/31 05:27:29.2	92.030	-0.490	-0.480	1.100
2020/01/31 05:27:29.3	92.020	-0.420	-0.620	1.080
2020/01/31 05:27:29.4	92.020	-0.350	-0.750	1.070
2020/01/31 05:27:29.5	92.010	-0.290	-0.870	1.060
2020/01/31 05:27:29.6	92.000	-0.220	-0.980	1.050
2020/01/31 05:27:29.7	91.990	-0.160	-1.070	1.040
2020/01/31 05:27:29.8	91.980	-0.100	-1.160	1.030
2020/01/31 05:27:29.9	91.960	-0.050	-1.230	1.020
2020/01/31 05:27:30.0	91.950	0.000	-1.290	1.010
2020/01/31 05:27:30.1	91.930	0.050	-1.330	1.000
2020/01/31 05:27:30.2	91.900	0.090	-1.360	0.990
2020/01/31 05:27:30.3	91.880	0.120	-1.380	0.970
2020/01/31 05:27:30.4	91.860	0.150	-1.380	0.960
2020/01/31 05:27:30.5	91.840	0.180	-1.370	0.950
2020/01/31 05:27:30.6	91.820	0.200	-1.340	0.930
2020/01/31 05:27:30.7	91.800	0.210	-1.300	0.910
2020/01/31 05:27:30.8	91.780	0.220	-1.250	0.890
2020/01/31 05:27:30.9	91.760	0.220	-1.200	0.870
2020/01/31 05:27:31.0	91.740	0.220	-1.130	0.850
2020/01/31 05:27:31.1	91.710	0.220	-1.050	0.830
2020/01/31 05:27:31.2	91.690	0.210	-0.970	0.810
2020/01/31 05:27:31.3	91.670	0.200	-0.880	0.780
2020/01/31 05:27:31.4	91.650	0.190	-0.780	0.760
2020/01/31 05:27:31.5	91.640	0.170	-0.690	0.730
2020/01/31 05:27:31.6	91.620	0.160	-0.590	0.700
2020/01/31 05:27:31.7	91.610	0.140	-0.490	0.680
2020/01/31 05:27:31.8	91.600	0.130	-0.400	0.650
2020/01/31 05:27:31.9	91.590	0.120	-0.310	0.620
2020/01/31 05:27:32.0	91.580	0.100	-0.220	0.590
2020/01/31 05:27:32.1	91.580	0.100	-0.140	0.560
2020/01/31 05:27:32.2	91.580	0.090	-0.060	0.530
2020/01/31 05:27:32.3	91.580	0.090	0.010	0.500
2020/01/31 05:27:32.4	91.580	0.090	0.070	0.460
2020/01/31 05:27:32.5	91.590	0.090	0.120	0.430
2020/01/31 05:27:32.6	91.590	0.100	0.170	0.400
2020/01/31 05:27:32.7	91.600	0.110	0.200	0.370
2020/01/31 05:27:32.8	91.610	0.130	0.220	0.340
2020/01/31 05:27:32.9	91.620	0.160	0.230	0.310
2020/01/31 05:27:33.0	91.640	0.180	0.240	0.280
2020/01/31 05:27:33.1	91.650	0.220	0.230	0.250
2020/01/31 05:27:33.2	91.660	0.250	0.210	0.220
2020/01/31 05:27:33.3	91.670	0.290	0.190	0.190
2020/01/31 05:27:33.4	91.690	0.330	0.160	0.160
2020/01/31 05:27:33.5	91.710	0.380	0.120	0.140
2020/01/31 05:27:33.6	91.720	0.420	0.070	0.110
2020/01/31 05:27:33.7	91.740	0.470	0.020	0.080
2020/01/31 05:27:33.8	91.750	0.520	-0.030	0.060
2020/01/31 05:27:33.9	91.770	0.570	-0.090	0.040
2020/01/31 05:27:34.0	91.780	0.620	-0.150	0.020
2020/01/31 05:27:34.1	91.800	0.670	-0.220	-0.010
2020/01/31 05:27:34.2	91.800	0.720	-0.280	-0.020
2020/01/31 05:27:34.3	91.810	0.770	-0.350	-0.040
2020/01/31 05:27:34.4	91.820	0.810	-0.410	-0.060
2020/01/31 05:27:34.5	91.830	0.850	-0.470	-0.070
2020/01/31 05:27:34.6	91.840	0.880	-0.520	-0.080
2020/01/31 05:27:34.7	91.840	0.910	-0.580	-0.090
2020/01/31 05:27:34.8	91.850	0.940	-0.620	-0.100
2020/01/31 05:27:34.9	91.850	0.960	-0.660	-0.100
2020/01/31 05:27:35.0	91.860	0.980	-0.700	-0.090
2020/01/31 05:27:35.1	91.860	0.990	-0.730	-0.080
2020/01/31 05:27:35.2	91.860	0.990	-0.750	-0.070
2020/01/31 05:27:35.3	91.860	0.990	-0.760	-0.050
2020/01/31 05:27:35.4	91.860	0.980	-0.760	-0.030
2020/01/31 05:27:35.5	91.860	0.970	-0.760	0.010
2020/01/31 05:27:35.6	91.860	0.950	-0.750	0.040
2020/01/31 05:27:35.7	91.860	0.920	-0.730	0.090
2020/01/31 05:27:35.8	91.860	0.880	-0.690	0.130
2020/01/31 05:27:35.9	91.860	0.840	-0.650	0.190
2020/01/31 05:27:36.0	91.850	0.800	-0.610	0.240
2020/01/31 05:27:36.1	91.850	0.740	-0.550	0.300
2020/01/31 05:27:36.2	91.850	0.680	-0.480	0.360
2020/01/31 05:27:36.3	91.840	0.620	-0.410	0.430
2020/01/31 05:27:36.4	91.840	0.550	-0.330	0.500
2020/01/31 05:27:36.5	91.840	0.470	-0.250	0.560
2020/01/31 05:27:36.6	91.830	0.400	-0.160	0.630
2020/01/31 05:27:36.7	91.830	0.310	-0.060	0.700
2020/01/31 05:27:36.8	91.830	0.230	0.030	0.770
2020/01/31 05:27:36.9	91.820	0.140	0.130	0.840
2020/01/31 05:27:37.0	91.820	0.050	0.220	0.910
2020/01/31 05:27:37.1	91.810	-0.040	0.320	0.970
2020/01/31 05:27:37.2	91.810	-0.130	0.410	1.040
2020/01/31 05:27:37.3	91.800	-0.220	0.500	1.100
2020/01/31 05:27:37.4	91.800	-0.310	0.580	1.160
2020/01/31 05:27:37.5	91.790	-0.400	0.660	1.210
2020/01/31 05:27:37.6	91.780	-0.490	0.740	1.260
2020/01/31 05:27:37.7	91.780	-0.580	0.810	1.300
2020/01/31 05:27:37.8	91.780	-0.660	0.870	1.340
2020/01/31 05:27:37.9	91.770	-0.740	0.920	1.380
2020/01/31 05:27:38.0	91.770	-0.810	0.960	1.410
2020/01/31 05:27:38.1	91.770	-0.880	1.000	1.430
2020/01/31 05:27:38.2	91.770	-0.940	1.020	1.450
2020/01/31 05:27:38.3	91.770	-1.000	1.040	1.470
2020/01/31 05:27:38.4	91.770	-1.050	1.040	1.480
2020/01/31 05:27:38.5	91.770	-1.100	1.030	1.480
2020/01/31 05:27:38.6	91.770	-1.140	1.010	1.490
2020/01/31 05:27:38.7	91.770	-1.170	0.990	1.490
2020/01/31 05:27:38.8	91.780	-1.190	0.950	1.490
2020/01/31 05:27:38.9	91.780	-1.210	0.900	1.480
2020/01/31 05:27:39.0	91.780	-1.220	0.830	1.480
2020/01/31 05:27:39.1	91.780	-1.220	0.760	1.470
2020/01/31 05:27:39.2	91.780	-1.210	0.680	1.460
2020/01/31 05:27:39.3	91.780	-1.190	0.590	1.450
2020/01/31 05:27:39.4	91.790	-1.170	0.490	1.440
2020/01/31 05:27:39.5	91.790	-1.140	0.380	1.440
2020/01/31 05:27:39.6	91.790	-1.100	0.270	1.430
2020/01/31 05:27:39.7	91.790	-1.050	0.150	1.420
2020/01/31 05:27:39.8	91.800	-1.000	0.030	1.410
2020/01/31 05:27:39.9	91.800	-0.940	-0.100	1.400
2020/01/31 05:27:40.0	91.810	-0.870	-0.240	1.390
2020/01/31 05:27:40.1	91.810	-0.800	-0.370	1.370
2020/01/31 05:27:40.2	91.820	-0.730	-0.510	1.360
2020/01/31 05:27:40.3	91.830	-0.650	-0.640	1.350
2020/01/31 05:27:40.4	91.840	-0.560	-0.780	1.340
2020/01/31 05:27:40.5	91.850	-0.480	-0.910	1.320
2020/01/31 05:27:40.6	91.860	-0.390	-1.040	1.310
2020/01/31 05:27:40.7	91.880	-0.300	-1.160	1.290
2020/01/31 05:27:40.8	91.890	-0.210	-1.280	1.270
2020/01/31 05:27:40.9	91.910	-0.120	-1.390	1.260
2020/01/31 05:27:41.0	91.920	-0.030	-1.490	1.240
2020/01/31 05:27:41.1	91.940	0.050	-1.580	1.220
2020/01/31 05:27:41.2	91.950	0.140	-1.670	1.200
2020/01/31 05:27:41.3	91.970	0.220	-1.740	1.180
2020/01/31 05:27:41.4	91.980	0.300	-1.800	1.160
2020/01/31 05:27:41.5	92.000	0.370	-1.840	1.140
2020/01/31 05:27:41.6	92.010	0.440	-1.870	1.120
2020/01/31 05:27:41.7	92.030	0.500	-1.890	1.100
2020/01/31 05:27:41.8	92.040	0.560	-1.890	1.080
2020/01/31 05:27:41.9	92.050	0.610	-1.880	1.060
2020/01/31 05:27:42.0	92.060	0.660	-1.850	1.040
2020/01/31 05:27:42.1	92.070	0.690	-1.810	1.020
2020/01/31 05:27:42.2	92.080	0.720	-1.750	1.000
2020/01/31 05:27:42.3	92.080	0.740	-1.670	0.980
2020/01/31 05:27:42.4	92.090	0.760	-1.590	0.960
2020/01/31 05:27:42.5	92.090	0.770	-1.490	0.940
2020/01/31 05:27:42.6	92.090	0.770	-1.380	0.920
2020/01/31 05:27:42.7	92.090	0.760	-1.260	0.910
2020/01/31 05:27:42.8	92.080	0.750	-1.130	0.890
2020/01/31 05:27:42.9	92.080	0.730	-0.990	0.870
2020/01/31 05:27:43.0	92.070	0.700	-0.850	0.850
2020/01/31 05:27:43.1	92.060	0.670	-0.700	0.840
2020/01/31 05:27:43.2	92.040	0.630	-0.540	0.810
2020/01/31 05:27:43.3	92.030	0.590	-0.380	0.790
2020/01/31 05:27:43.4	92.020	0.540	-0.230	0.770
2020/01/31 05:27:43.5	92.000	0.490	-0.070	0.750
2020/01/31 05:27:43.6	91.990	0.430	0.080	0.730
2020/01/31 05:27:43.7	91.970	0.380	0.230	0.710
2020/01/31 05:27:43.8	91.960	0.320	0.380	0.680
2020/01/31 05:27:43.9	91.950	0.260	0.520	0.650
2020/01/31 05:27:44.0	91.930	0.200	0.650	0.620
2020/01/31 05:27:44.1	91.920	0.130	0.770	0.590
2020/01/31 05:27:44.2	91.910	0.070	0.880	0.550
2020/01/31 05:27:44.3	91.900	0.020	0.970	0.520
2020/01/31 05:27:44.4	91.900	-0.040	1.060	0.480
2020/01/31 05:27:44.5	91.890	-0.090	1.130	0.440
2020/01/31 05:27:44.6	91.890	-0.140	1.190	0.400
2020/01/31 05:27:44.7	91.890	-0.190	1.230	0.360
2020/01/31 05:27:44.8	91.890	-0.230	1.260	0.320
2020/01/31 05:27:44.9	91.890	-0.260	1.270	0.280
2020/01/31 05:27:45.0	91.890	-0.290	1.270	0.240
2020/01/31 05:27:45.1	91.890	-0.320	1.260	0.200
2020/01/31 05:27:45.2	91.900	-0.340	1.230	0.170
2020/01/31 05:27:45.3	91.900	-0.350	1.190	0.130
2020/01/31 05:27:45.4	91.910	-0.360	1.140	0.100
2020/01/31 05:27:45.5	91.910	-0.360	1.070	0.070
2020/01/31 05:27:45.6	91.920	-0.360	1.000	0.050
2020/01/31 05:27:45.7	91.920	-0.350	0.920	0.030
2020/01/31 05:27:45.8	91.920	-0.330	0.830	0.010
2020/01/31 05:27:45.9	91.930	-0.310	0.730	-0.010
2020/01/31 05:27:46.0	91.930	-0.290	0.630	-0.030
2020/01/31 05:27:46.1	91.930	-0.260	0.520	-0.040
2020/01/31 05:27:46.2	91.930	-0.230	0.410	-0.060
2020/01/31 05:27:46.3	91.930	-0.200	0.310	-0.070
2020/01/31 05:27:46.4	91.940	-0.160	0.200	-0.080
2020/01/31 05:27:46.5	91.940	-0.130	0.090	-0.090
2020/01/31 05:27:46.6	91.940	-0.090	-0.020	-0.100
2020/01/31 05:27:46.7	91.950	-0.050	-0.120	-0.110
2020/01/31 05:27:46.8	91.950	-0.010	-0.220	-0.110
2020/01/31 05:27:46.9	91.960	0.030	-0.310	-0.120
2020/01/31 05:27:47.0	91.960	0.070	-0.400	-0.120
2020/01/31 05:27:47.1	91.970	0.100	-0.480	-0.120
2020/01/31 05:27:47.2	91.970	0.140	-0.550	-0.120
2020/01/31 05:27:47.3	91.970	0.170	-0.620	-0.120
2020/01/31 05:27:47.4	91.970	0.200	-0.680	-0.110
2020/01/31 05:27:47.5	91.980	0.230	-0.730	-0.100
2020/01/31 05:27:47.6	91.980	0.250	-0.770	-0.080
2020/01/31 05:27:47.7	91.980	0.270	-0.810	-0.060
2020/01/31 05:27:47.8	91.980	0.290	-0.830	-0.040
2020/01/31 05:27:47.9	91.980	0.300	-0.850	-0.010
2020/01/31 05:27:48.0	91.980	0.310	-0.860	0.020
2020/01/31 05:27:48.1	91.980	0.310	-0.860	0.050
2020/01/31 05:27:48.2	91.980	0.310	-0.860	0.090
2020/01/31 05:27:48.3	91.980	0.300	-0.840	0.140
2020/01/31 05:27:48.4	91.980	0.300	-0.820	0.180
2020/01/31 05:27:48.5	91.980	0.280	-0.790	0.230
2020/01/31 05:27:48.6	91.980	0.270	-0.760	0.280
2020/01/31 05:27:48.7	91.980	0.250	-0.720	0.330
2020/01/31 05:27:48.8	91.980	0.230	-0.680	0.380
2020/01/31 05:27:48.9	91.980	0.210	-0.640	0.440
2020/01/31 05:27:49.0	91.980	0.180	-0.590	0.490
2020/01/31 05:27:49.1	91.980	0.160	-0.540	0.550
2020/01/31 05:27:49.2	91.980	0.130	-0.490	0.600
2020/01/31 05:27:49.3	91.980	0.100	-0.440	0.650
2020/01/31 05:27:49.4	91.990	0.070	-0.390	0.700
2020/01/31 05:27:49.5	92.000	0.040	-0.350	0.750
2020/01/31 05:27:49.6	92.010	0.010	-0.310	0.800
2020/01/31 05:27:49.7	92.020	-0.020	-0.270	0.840
2020/01/31 05:27:49.8	92.030	-0.040	-0.230	0.870
2020/01/31 05:27:49.9	92.040	-0.070	-0.200	0.910
2020/01/31 05:27:50.0	92.060	-0.090	-0.170	0.940
2020/01/31 05:27:50.1	92.080	-0.110	-0.140	0.970
2020/01/31 05:27:50.2	92.100	-0.130	-0.130	0.990
2020/01/31 05:27:50.3	92.120	-0.150	-0.110	1.010
2020/01/31 05:27:50.4	92.140	-0.160	-0.100	1.030
2020/01/31 05:27:50.5	92.170	-0.180	-0.090	1.050
2020/01/31 05:27:50.6	92.190	-0.190	-0.090	1.070
2020/01/31 05:27:50.7	92.210	-0.190	-0.090	1.080
2020/01/31 05:27:50.8	92.240	-0.200	-0.090	1.100
2020/01/31 05:27:50.9	92.260	-0.200	-0.100	1.110
2020/01/31 05:27:51.0	92.280	-0.200	-0.110	1.120
2020/01/31 05:27:51.1	92.300	-0.190	-0.120	1.140
2020/01/31 05:27:51.2	92.320	-0.190	-0.140	1.160
2020/01/31 05:27:51.3	92.330	-0.180	-0.160	1.180
2020/01/31 05:27:51.4	92.350	-0.170	-0.180	1.200
2020/01/31 05:27:51.5	92.360	-0.160	-0.200	1.230
2020/01/31 05:27:51.6	92.360	-0.150	-0.220	1.250
2020/01/31 05:27:51.7	92.360	-0.140	-0.240	1.280
2020/01/31 05:27:51.8	92.360	-0.120	-0.260	1.320
2020/01/31 05:27:51.9	92.360	-0.110	-0.290	1.350
2020/01/31 05:27:52.0	92.350	-0.090	-0.310	1.390
2020/01/31 05:27:52.1	92.340	-0.080	-0.320	1.420
2020/01/31 05:27:52.2	92.320	-0.070	-0.340	1.460
2020/01/31 05:27:52.3	92.300	-0.050	-0.360	1.490
2020/01/31 05:27:52.4	92.290	-0.040	-0.370	1.520
2020/01/31 05:27:52.5	92.260	-0.030	-0.380	1.550
2020/01/31 05:27:52.6	92.240	-0.010	-0.380	1.580
2020/01/31 05:27:52.7	92.220	-0.000	-0.390	1.600
2020/01/31 05:27:52.8	92.190	0.000	-0.390	1.610
2020/01/31 05:27:52.9	92.170	0.010	-0.380	1.620
2020/01/31 05:27:53.0	92.150	0.020	-0.370	1.630
2020/01/31 05:27:53.1	92.120	0.020	-0.360	1.630
2020/01/31 05:27:53.2	92.100	0.030	-0.350	1.620
2020/01/31 05:27:53.3	92.070	0.030	-0.330	1.610
2020/01/31 05:27:53.4	92.050	0.030	-0.310	1.600
2020/01/31 05:27:53.5	92.030	0.030	-0.280	1.580
2020/01/31 05:27:53.6	92.000	0.030	-0.260	1.560
2020/01/31 05:27:53.7	91.980	0.030	-0.230	1.530
2020/01/31 05:27:53.8	91.960	0.020	-0.200	1.510
2020/01/31 05:27:53.9	91.940	0.020	-0.170	1.480
2020/01/31 05:27:54.0	91.920	0.020	-0.140	1.450
2020/01/31 05:27:54.1	91.910	0.020	-0.110	1.420
2020/01/31 05:27:54.2	91.890	0.010	-0.080	1.380
2020/01/31 05:27:54.3	91.870	0.010	-0.050	1.350
2020/01/31 05:27:54.4	91.860	0.010	-0.020	1.320
2020/01/31 05:27:54.5	91.850	0.000	0.000	1.280
2020/01/31 05:27:54.6	91.830	0.000	0.020	1.250
2020/01/31 05:27:54.7	91.820	0.000	0.040	1.210
2020/01/31 05:27:54.8	91.810	0.000	0.050	1.170
2020/01/31 05:27:54.9	91.800	0.010	0.060	1.130
2020/01/31 05:27:55.0	91.800	0.010	0.060	1.100
2020/01/31 05:27:55.1	91.790	0.020	0.060	1.060
2020/01/31 05:27:55.2	91.780	0.020	0.060	1.010
2020/01/31 05:27:55.3	91.780	0.030	0.050	0.970
2020/01/31 05:27:55.4	91.780	0.040	0.040	0.930
2020/01/31 05:27:55.5	91.780	0.050	0.030	0.880
2020/01/31 05:27:55.6	91.770	0.060	0.010	0.840
2020/01/31 05:27:55.7	91.780	0.070	-0.010	0.790
2020/01/31 05:27:55.8	91.780	0.090	-0.040	0.740
2020/01/31 05:27:55.9	91.780	0.100	-0.070	0.680
2020/01/31 05:27:56.0	91.790	0.120	-0.100	0.630
2020/01/31 05:27:56.1	91.800	0.130	-0.130	0.570
2020/01/31 05:27:56.2	91.810	0.150	-0.160	0.520
2020/01/31 05:27:56.3	91.820	0.170	-0.200	0.460
2020/01/31 05:27:56.4	91.830	0.180	-0.230	0.400
2020/01/31 05:27:56.5	91.850	0.200	-0.260	0.340
2020/01/31 05:27:56.6	91.870	0.220	-0.300	0.290
2020/01/31 05:27:56.7	91.890	0.230	-0.330	0.230
2020/01/31 05:27:56.8	91.910	0.250	-0.360	0.170
2020/01/31 05:27:56.9	91.930	0.270	-0.390	0.120
2020/01/31 05:27:57.0	91.950	0.280	-0.420	0.070
2020/01/31 05:27:57.1	91.970	0.290	-0.450	0.020
2020/01/31 05:27:57.2	91.990	0.310	-0.470	-0.030
2020/01/31 05:27:57.3	92.010	0.320	-0.490	-0.070
2020/01/31 05:27:57.4	92.030	0.330	-0.510	-0.110
2020/01/31 05:27:57.5	92.050	0.340	-0.530	-0.140
2020/01/31 05:27:57.6	92.080	0.350	-0.540	-0.170
2020/01/31 05:27:57.7	92.100	0.350	-0.560	-0.190
2020/01/31 05:27:57.8	92.110	0.360	-0.560	-0.200
2020/01/31 05:27:57.9	92.130	0.360	-0.570	-0.210
2020/01/31 05:27:58.0	92.150	0.370	-0.570	-0.210
2020/01/31 05:27:58.1	92.160	0.370	-0.570	-0.200
2020/01/31 05:27:58.2	92.170	0.370	-0.570	-0.190
2020/01/31 05:27:58.3	92.180	0.360	-0.560	-0.180
2020/01/31 05:27:58.4	92.180	0.360	-0.550	-0.150
2020/01/31 05:27:58.5	92.190	0.350	-0.540	-0.120
2020/01/31 05:27:58.6	92.190	0.350	-0.520	-0.090
2020/01/31 05:27:58.7	92.190	0.340	-0.500	-0.050
2020/01/31 05:27:58.8	92.190	0.330	-0.480	-0.010
2020/01/31 05:27:58.9	92.190	0.310	-0.460	0.030
2020/01/31 05:27:59.0	92.190	0.300	-0.430	0.080
2020/01/31 05:27:59.1	92.190	0.280	-0.400	0.120
2020/01/31 05:27:59.2	92.190	0.260	-0.370	0.170
2020/01/31 05:27:59.3	92.180	0.240	-0.340	0.230
2020/01/31 05:27:59.4	92.180	0.220	-0.310	0.280
2020/01/31 05:27:59.5	92.170	0.200	-0.270	0.330
2020/01/31 05:27:59.6	92.160	0.170	-0.230	0.380
2020/01/31 05:27:59.7	92.160	0.140	-0.200	0.430
2020/01/31 05:27:59.8	92.150	0.120	-0.160	0.480
2020/01/31 05:27:59.9	92.150	0.090	-0.120	0.530
2020/01/31 05:28:00.0	92.140	0.050	-0.080	0.580
2020/01/31 05:28:00.1	92.130	0.020	-0.040	0.630
2020/01/31 05:28:00.2	92.130	-0.010	-0.010	0.680
2020/01/31 05:28:00.3	92.120	-0.040	0.030	0.720
2020/01/31 05:28:00.4	92.110	-0.080	0.060	0.770
2020/01/31 05:28:00.5	92.110	-0.110	0.090	0.810
2020/01/31 05:28:00.6	92.100	-0.140	0.120	0.850
2020/01/31 05:28:00.7	92.090	-0.170	0.140	0.900
2020/01/31 05:28:00.8	92.080	-0.200	0.160	0.930
2020/01/31 05:28:00.9	92.080	-0.230	0.180	0.970
2020/01/31 05:28:01.0	92.070	-0.260	0.190	1.010
2020/01/31 05:28:01.1	92.060	-0.290	0.200	1.040
2020/01/31 05:28:01.2	92.060	-0.310	0.210	1.070
2020/01/31 05:28:01.3	92.050	-0.340	0.210	1.100
2020/01/31 05:28:01.4	92.040	-0.360	0.200	1.130
2020/01/31 05:28:01.5	92.040	-0.380	0.200	1.160
2020/01/31 05:28:01.6	92.030	-0.390	0.190	1.180
2020/01/31 05:28:01.7	92.020	-0.410	0.180	1.200
2020/01/31 05:28:01.8	92.020	-0.420	0.160	1.220
2020/01/31 05:28:01.9	92.010	-0.430	0.150	1.240
2020/01/31 05:28:02.0	92.010	-0.430	0.130	1.260
2020/01/31 05:28:02.1	92.010	-0.440	0.110	1.270
2020/01/31 05:28:02.2	92.000	-0.440	0.080	1.280
2020/01/31 05:28:02.3	92.000	-0.440	0.060	1.280
2020/01/31 05:28:02.4	92.000	-0.440	0.040	1.290
2020/01/31 05:28:02.5	92.000	-0.430	0.020	1.290
2020/01/31 05:28:02.6	92.000	-0.430	-0.010	1.290
2020/01/31 05:28:02.7	92.000	-0.420	-0.030	1.280
2020/01/31 05:28:02.8	92.010	-0.410	-0.050	1.270
2020/01/31 05:28:02.9	92.010	-0.400	-0.070	1.260
2020/01/31 05:28:03.0	92.010	-0.380	-0.090	1.250
2020/01/31 05:28:03.1	92.020	-0.370	-0.110	1.240
2020/01/31 05:28:03.2	92.020	-0.350	-0.130	1.220
2020/01/31 05:28:03.3	92.030	-0.330	-0.140	1.200
2020/01/31 05:28:03.4	92.030	-0.310	-0.160	1.180
2020/01/31 05:28:03.5	92.040	-0.290	-0.170	1.160
2020/01/31 05:28:03.6	92.050	-0.270	-0.180	1.130
2020/01/31 05:28:03.7	92.050	-0.250	-0.190	1.100
2020/01/31 05:28:03.8	92.060	-0.230	-0.200	1.070
2020/01/31 05:28:03.9	92.070	-0.210	-0.210	1.040
2020/01/31 05:28:04.0	92.070	-0.190	-0.220	1.010
2020/01/31 05:28:04.1	92.080	-0.170	-0.230	0.980
2020/01/31 05:28:04.2	92.090	-0.150	-0.230	0.950
2020/01/31 05:28:04.3	92.090	-0.130	-0.240	0.920
2020/01/31 05:28:04.4	92.100	-0.100	-0.250	0.890
2020/01/31 05:28:04.5	92.100	-0.080	-0.260	0.860
2020/01/31 05:28:04.6	92.110	-0.060	-0.260	0.830
2020/01/31 05:28:04.7	92.110	-0.040	-0.270	0.800
2020/01/31 05:28:04.8	92.110	-0.020	-0.280	0.780
2020/01/31 05:28:04.9	92.110	0.000	-0.290	0.760
2020/01/31 05:28:05.0	92.110	0.030	-0.300	0.740
2020/01/31 05:28:05.1	92.120	0.050	-0.320	0.720
2020/01/31 05:28:05.2	92.120	0.070	-0.330	0.700
2020/01/31 05:28:05.3	92.120	0.090	-0.350	0.690
2020/01/31 05:28:05.4	92.120	0.110	-0.360	0.680
2020/01/31 05:28:05.5	92.120	0.130	-0.380	0.670
2020/01/31 05:28:05.6	92.120	0.150	-0.400	0.660
2020/01/31 05:28:05.7	92.120	0.170	-0.420	0.650
2020/01/31 05:28:05.8	92.120	0.190	-0.440	0.650
2020/01/31 05:28:05.9	92.120	0.210	-0.460	0.650
2020/01/31 05:28:06.0	92.120	0.230	-0.470	0.640
2020/01/31 05:28:06.1	92.110	0.240	-0.490	0.640
2020/01/31 05:28:06.2	92.110	0.260	-0.510	0.640
2020/01/31 05:28:06.3	92.110	0.270	-0.530	0.650
2020/01/31 05:28:06.4	92.110	0.290	-0.550	0.650
2020/01/31 05:28:06.5	92.100	0.300	-0.570	0.650
2020/01/31 05:28:06.6	92.100	0.310	-0.580	0.660
2020/01/31 05:28:06.7	92.100	0.320	-0.590	0.670
2020/01/31 05:28:06.8	92.090	0.320	-0.610	0.670
2020/01/31 05:28:06.9	92.080	0.330	-0.620	0.680
2020/01/31 05:28:07.0	92.070	0.330	-0.620	0.690
2020/01/31 05:28:07.1	92.060	0.340	-0.630	0.700
2020/01/31 05:28:07.2	92.050	0.340	-0.630	0.710
2020/01/31 05:28:07.3	92.040	0.340	-0.630	0.720
2020/01/31 05:28:07.4	92.030	0.330	-0.630	0.730
2020/01/31 05:28:07.5	92.010	0.320	-0.620	0.740
2020/01/31 05:28:07.6	92.000	0.320	-0.610	0.740
2020/01/31 05:28:07.7	91.990	0.310	-0.600	0.750
2020/01/31 05:28:07.8	91.970	0.290	-0.580	0.750
2020/01/31 05:28:07.9	91.960	0.280	-0.560	0.760
2020/01/31 05:28:08.0	91.950	0.260	-0.530	0.760
2020/01/31 05:28:08.1	91.940	0.240	-0.500	0.760
2020/01/31 05:28:08.2	91.920	0.220	-0.460	0.760
2020/01/31 05:28:08.3	91.910	0.200	-0.420	0.770
2020/01/31 05:28:08.4	91.900	0.170	-0.380	0.770
2020/01/31 05:28:08.5	91.890	0.150	-0.330	0.770
2020/01/31 05:28:08.6	91.880	0.120	-0.280	0.780
2020/01/31 05:28:08.7	91.870	0.090	-0.230	0.780
2020/01/31 05:28:08.8	91.860	0.070	-0.170	0.790
2020/01/31 05:28:08.9	91.850	0.040	-0.110	0.800
2020/01/31 05:28:09.0	91.840	0.010	-0.050	0.810
2020/01/31 05:28:09.1	91.830	-0.020	0.010	0.820
2020/01/31 05:28:09.2	91.820	-0.040	0.070	0.830
2020/01/31 05:28:09.3	91.810	-0.070	0.130	0.840
2020/01/31 05:28:09.4	91.800	-0.090	0.180	0.860
2020/01/31 05:28:09.5	91.800	-0.110	0.240	0.880
2020/01/31 05:28:09.6	91.790	-0.130	0.290	0.900
2020/01/31 05:28:09.7	91.780	-0.140	0.340	0.930
2020/01/31 05:28:09.8	91.780	-0.160	0.380	0.950
2020/01/31 05:28:09.9	91.770	-0.170	0.420	0.970
2020/01/31 05:28:10.0	91.770	-0.180	0.450	1.000
2020/01/31 05:28:10.1	91.760	-0.180	0.470	1.020
2020/01/31 05:28:10.2	91.760	-0.190	0.490	1.050
2020/01/31 05:28:10.3	91.760	-0.190	0.500	1.070
2020/01/31 05:28:10.4	91.760	-0.190	0.500	1.090
2020/01/31 05:28:10.5	91.750	-0.180	0.500	1.110
2020/01/31 05:28:10.6	91.750	-0.180	0.490	1.130
2020/01/31 05:28:10.7	91.750	-0.170	0.470	1.140
2020/01/31 05:28:10.8	91.750	-0.160	0.450	1.160
2020/01/31 05:28:10.9	91.750	-0.150	0.420	1.170
2020/01/31 05:28:11.0	91.750	-0.130	0.390	1.180
2020/01/31 05:28:11.1	91.750	-0.120	0.350	1.190
2020/01/31 05:28:11.2	91.740	-0.110	0.300	1.190
2020/01/31 05:28:11.3	91.740	-0.090	0.250	1.200
2020/01/31 05:28:11.4	91.740	-0.070	0.200	1.200
2020/01/31 05:28:11.5	91.740	-0.060	0.140	1.200
2020/01/31 05:28:11.6	91.740	-0.040	0.080	1.200
2020/01/31 05:28:11.7	91.730	-0.030	0.020	1.190
2020/01/31 05:28:11.8	91.730	-0.010	-0.040	1.180
2020/01/31 05:28:11.9	91.730	0.000	-0.100	1.170
2020/01/31 05:28:12.0	91.730	0.010	-0.170	1.160
2020/01/31 05:28:12.1	91.730	0.030	-0.230	1.140
2020/01/31 05:28:12.2	91.730	0.040	-0.290	1.120
2020/01/31 05:28:12.3	91.730	0.050	-0.350	1.100
2020/01/31 05:28:12.4	91.730	0.060	-0.410	1.070
2020/01/31 05:28:12.5	91.730	0.080	-0.470	1.040
2020/01/31 05:28:12.6	91.720	0.090	-0.530	1.010
2020/01/31 05:28:12.7	91.730	0.100	-0.580	0.990
2020/01/31 05:28:12.8	91.730	0.110	-0.630	0.950
2020/01/31 05:28:12.9	91.730	0.120	-0.680	0.930
2020/01/31 05:28:13.0	91.730	0.130	-0.720	0.900
2020/01/31 05:28:13.1	91.730	0.140	-0.760	0.870
2020/01/31 05:28:13.2	91.730	0.150	-0.800	0.840
2020/01/31 05:28:13.3	91.730	0.170	-0.830	0.820
2020/01/31 05:28:13.4	91.730	0.180	-0.860	0.790
2020/01/31 05:28:13.5	91.730	0.190	-0.890	0.780
2020/01/31 05:28:13.6	91.740	0.210	-0.910	0.760
2020/01/31 05:28:13.7	91.740	0.230	-0.930	0.740
2020/01/31 05:28:13.8	91.750	0.240	-0.940	0.720
2020/01/31 05:28:13.9	91.760	0.260	-0.950	0.710
2020/01/31 05:28:14.0	91.770	0.280	-0.960	0.700
2020/01/31 05:28:14.1	91.780	0.300	-0.970	0.690
2020/01/31 05:28:14.2	91.790	0.320	-0.970	0.680
2020/01/31 05:28:14.3	91.810	0.340	-0.970	0.670
2020/01/31 05:28:14.4	91.820	0.360	-0.970	0.660
2020/01/31 05:28:14.5	91.830	0.380	-0.960	0.660
2020/01/31 05:28:14.6	91.850	0.400	-0.950	0.660
2020/01/31 05:28:14.7	91.860	0.410	-0.930	0.660
2020/01/31 05:28:14.8	91.870	0.430	-0.910	0.660
2020/01/31 05:28:14.9	91.880	0.440	-0.890	0.660
2020/01/31 05:28:15.0	91.890	0.450	-0.860	0.670
2020/01/31 05:28:15.1	91.900	0.450	-0.820	0.680
2020/01/31 05:28:15.2	91.900	0.460	-0.790	0.680
2020/01/31 05:28:15.3	91.900	0.450	-0.750	0.690
2020/01/31 05:28:15.4	91.910	0.450	-0.700	0.700
2020/01/31 05:28:15.5	91.910	0.440	-0.650	0.710
2020/01/31 05:28:15.6	91.900	0.420	-0.590	0.710
2020/01/31 05:28:15.7	91.900	0.400	-0.520	0.720
2020/01/31 05:28:15.8	91.900	0.380	-0.460	0.730
2020/01/31 05:28:15.9	91.890	0.350	-0.390	0.740
2020/01/31 05:28:16.0	91.880	0.320	-0.310	0.750
2020/01/31 05:28:16.1	91.870	0.280	-0.240	0.760
2020/01/31 05:28:16.2	91.860	0.240	-0.150	0.770
2020/01/31 05:28:16.3	91.840	0.200	-0.070	0.780
2020/01/31 05:28:16.4	91.830	0.150	0.020	0.790
2020/01/31 05:28:16.5	91.810	0.100	0.100	0.810
2020/01/31 05:28:16.6	91.790	0.040	0.190	0.820
2020/01/31 05:28:16.7	91.770	-0.010	0.270	0.840
2020/01/31 05:28:16.8	91.750	-0.070	0.360	0.850
2020/01/31 05:28:16.9	91.730	-0.120	0.440	0.870
2020/01/31 05:28:17.0	91.710	-0.180	0.530	0.890
2020/01/31 05:28:17.1	91.690	-0.240	0.610	0.900
2020/01/31 05:28:17.2	91.660	-0.300	0.680	0.920
2020/01/31 05:28:17.3	91.640	-0.360	0.750	0.940
2020/01/31 05:28:17.4	91.620	-0.410	0.820	0.960
2020/01/31 05:28:17.5	91.600	-0.470	0.880	0.970
2020/01/31 05:28:17.6	91.590	-0.520	0.930	0.990
2020/01/31 05:28:17.7	91.570	-0.570	0.980	1.010
2020/01/31 05:28:17.8	91.560	-0.620	1.010	1.020
2020/01/31 05:28:17.9	91.550	-0.660	1.040	1.030
2020/01/31 05:28:18.0	91.540	-0.700	1.060	1.050
2020/01/31 05:28:18.1	91.530	-0.730	1.070	1.050
2020/01/31 05:28:18.2	91.520	-0.760	1.060	1.060
2020/01/31 05:28:18.3	91.520	-0.780	1.050	1.070
2020/01/31 05:28:18.4	91.520	-0.800	1.020	1.070
2020/01/31 05:28:18.5	91.520	-0.810	0.990	1.070
2020/01/31 05:28:18.6	91.520	-0.820	0.940	1.070
2020/01/31 05:28:18.7	91.520	-0.810	0.870	1.060
2020/01/31 05:28:18.8	91.520	-0.810	0.800	1.060
2020/01/31 05:28:18.9	91.520	-0.790	0.720	1.050
2020/01/31 05:28:19.0	91.530	-0.770	0.620	1.040
2020/01/31 05:28:19.1	91.530	-0.750	0.520	1.030
2020/01/31 05:28:19.2	91.530	-0.720	0.410	1.020
2020/01/31 05:28:19.3	91.530	-0.680	0.290	1.010
2020/01/31 05:28:19.4	91.530	-0.640	0.160	0.990
2020/01/31 05:28:19.5	91.530	-0.590	0.030	0.970
2020/01/31 05:28:19.6	91.530	-0.540	-0.110	0.950
2020/01/31 05:28:19.7	91.530	-0.490	-0.250	0.930
2020/01/31 05:28:19.8	91.530	-0.430	-0.390	0.910
2020/01/31 05:28:19.9	91.530	-0.370	-0.530	0.890
2020/01/31 05:28:20.0	91.530	-0.310	-0.660	0.870
2020/01/31 05:28:20.1	91.530	-0.250	-0.800	0.840
2020/01/31 05:28:20.2	91.530	-0.180	-0.930	0.810
2020/01/31 05:28:20.3	91.530	-0.120	-1.050	0.790
2020/01/31 05:28:20.4	91.530	-0.050	-1.170	0.770
2020/01/31 05:28:20.5	91.530	0.010	-1.270	0.750
2020/01/31 05:28:20.6	91.530	0.080	-1.370	0.730
2020/01/31 05:28:20.7	91.530	0.140	-1.450	0.710
2020/01/31 05:28:20.8	91.540	0.200	-1.520	0.700
2020/01/31 05:28:20.9	91.540	0.250	-1.580	0.690
2020/01/31 05:28:21.0	91.540	0.300	-1.620	0.680
2020/01/31 05:28:21.1	91.550	0.350	-1.650	0.670
2020/01/31 05:28:21.2	91.560	0.390	-1.670	0.670
2020/01/31 05:28:21.3	91.570	0.430	-1.670	0.660
2020/01/31 05:28:21.4	91.580	0.460	-1.660	0.660
2020/01/31 05:28:21.5	91.590	0.490	-1.630	0.670
2020/01/31 05:28:21.6	91.600	0.510	-1.590	0.670
2020/01/31 05:28:21.7	91.620	0.530	-1.540	0.670
2020/01/31 05:28:21.8	91.630	0.540	-1.470	0.680
2020/01/31 05:28:21.9	91.650	0.550	-1.390	0.690
2020/01/31 05:28:22.0	91.660	0.550	-1.310	0.690
2020/01/31 05:28:22.1	91.680	0.540	-1.210	0.700
2020/01/31 05:28:22.2	91.710	0.530	-1.100	0.710
2020/01/31 05:28:22.3	91.730	0.520	-0.990	0.710
2020/01/31 05:28:22.4	91.750	0.500	-0.870	0.720
2020/01/31 05:28:22.5	91.770	0.470	-0.750	0.720
2020/01/31 05:28:22.6	91.800	0.450	-0.620	0.720
2020/01/31 05:28:22.7	91.820	0.410	-0.490	0.720
2020/01/31 05:28:22.8	91.840	0.380	-0.360	0.720
2020/01/31 05:28:22.9	91.870	0.340	-0.230	0.720
2020/01/31 05:28:23.0	91.890	0.300	-0.090	0.720
2020/01/31 05:28:23.1	91.910	0.260	0.040	0.720
2020/01/31 05:28:23.2	91.930	0.220	0.170	0.710
2020/01/31 05:28:23.3	91.950	0.170	0.290	0.710
2020/01/31 05:28:23.4	91.960	0.130	0.410	0.700
2020/01/31 05:28:23.5	91.980	0.080	0.530	0.700
2020/01/31 05:28:23.6	91.990	0.030	0.640	0.690
2020/01/31 05:28:23.7	92.000	-0.010	0.740	0.690
2020/01/31 05:28:23.8	92.000	-0.060	0.840	0.690
2020/01/31 05:28:23.9	92.000	-0.110	0.930	0.680
2020/01/31 05:28:24.0	92.000	-0.160	1.010	0.680
2020/01/31 05:28:24.1	91.990	-0.200	1.080	0.680
2020/01/31 05:28:24.2	91.990	-0.240	1.140	0.680
2020/01/31 05:28:24.3	91.980	-0.290	1.190	0.680
2020/01/31 05:28:24.4	91.960	-0.330	1.230	0.680
2020/01/31 05:28:24.5	91.940	-0.360	1.260	0.690
2020/01/31 05:28:24.6	91.920	-0.400	1.280	0.690
2020/01/31 05:28:24.7	91.900	-0.430	1.280	0.700
2020/01/31 05:28:24.8	91.880	-0.460	1.270	0.710
2020/01/31 05:28:24.9	91.850	-0.480	1.250	0.720
2020/01/31 05:28:25.0	91.820	-0.500	1.210	0.730
2020/01/31 05:28:25.1	91.790	-0.510	1.160	0.740
2020/01/31 05:28:25.2	91.770	-0.520	1.100	0.750
2020/01/31 05:28:25.3	91.740	-0.520	1.020	0.760
2020/01/31 05:28:25.4	91.710	-0.510	0.930	0.780
2020/01/31 05:28:25.5	91.680	-0.500	0.820	0.790
2020/01/31 05:28:25.6	91.660	-0.490	0.700	0.800
2020/01/31 05:28:25.7	91.630	-0.470	0.580	0.810
2020/01/31 05:28:25.8	91.610	-0.440	0.440	0.810
2020/01/31 05:28:25.9	91.590	-0.400	0.290	0.820
2020/01/31 05:28:26.0	91.570	-0.370	0.140	0.820
2020/01/31 05:28:26.1	91.560	-0.320	-0.020	0.820
2020/01/31 05:28:26.2	91.540	-0.270	-0.190	0.820
2020/01/31 05:28:26.3	91.530	-0.220	-0.350	0.810
2020/01/31 05:28:26.4	91.520	-0.170	-0.510	0.810
2020/01/31 05:28:26.5	91.520	-0.110	-0.670	0.800
2020/01/31 05:28:26.6	91.520	-0.050	-0.830	0.790
2020/01/31 05:28:26.7	91.510	0.020	-0.980	0.780
2020/01/31 05:28:26.8	91.520	0.080	-1.130	0.770
2020/01/31 05:28:26.9	91.520	0.140	-1.260	0.760
2020/01/31 05:28:27.0	91.520	0.210	-1.390	0.740
2020/01/31 05:28:27.1	91.530	0.270	-1.510	0.730
2020/01/31 05:28:27.2	91.540	0.330	-1.610	0.720
2020/01/31 05:28:27.3	91.550	0.390	-1.690	0.710
2020/01/31 05:28:27.4	91.560	0.440	-1.770	0.690
2020/01/31 05:28:27.5	91.570	0.490	-1.820	0.680
2020/01/31 05:28:27.6	91.580	0.530	-1.860	0.670
2020/01/31 05:28:27.7	91.590	0.570	-1.880	0.660
2020/01/31 05:28:27.8	91.600	0.600	-1.880	0.650
2020/01/31 05:28:27.9	91.610	0.630	-1.870	0.640
2020/01/31 05:28:28.0	91.620	0.650	-1.840	0.640
2020/01/31 05:28:28.1	91.630	0.660	-1.790	0.630
2020/01/31 05:28:28.2	91.630	0.660	-1.730	0.620
2020/01/31 05:28:28.3	91.640	0.660	-1.650	0.620
2020/01/31 05:28:28.4	91.650	0.650	-1.560	0.620
2020/01/31 05:28:28.5	91.650	0.640	-1.460	0.620
2020/01/31 05:28:28.6	91.650	0.620	-1.340	0.620
2020/01/31 05:28:28.7	91.660	0.590	-1.210	0.620
2020/01/31 05:28:28.8	91.660	0.560	-1.070	0.620
2020/01/31 05:28:28.9	91.660	0.520	-0.930	0.630
2020/01/31 05:28:29.0	91.650	0.470	-0.780	0.640
2020/01/31 05:28:29.1	91.650	0.420	-0.620	0.650
2020/01/31 05:28:29.2	91.640	0.370	-0.460	0.660
2020/01/31 05:28:29.3	91.630	0.320	-0.300	0.670
2020/01/31 05:28:29.4	91.620	0.260	-0.140	0.680
2020/01/31 05:28:29.5	91.610	0.200	0.010	0.690
2020/01/31 05:28:29.6	91.590	0.140	0.160	0.710
2020/01/31 05:28:29.7	91.580	0.080	0.310	0.720
2020/01/31 05:28:29.8	91.570	0.020	0.450	0.740
2020/01/31 05:28:29.9	91.560	-0.040	0.570	0.750
2020/01/31 05:28:30.0	91.540	-0.090	0.690	0.770
2020/01/31 05:28:30.1	91.530	-0.150	0.800	0.780
2020/01/31 05:28:30.2	91.520	-0.200	0.890	0.790
2020/01/31 05:28:30.3	91.510	-0.240	0.970	0.810
2020/01/31 05:28:30.4	91.500	-0.290	1.040	0.820
2020/01/31 05:28:30.5	91.490	-0.320	1.080	0.830
2020/01/31 05:28:30.6	91.490	-0.350	1.120	0.840
2020/01/31 05:28:30.7	91.480	-0.380	1.140	0.840
2020/01/31 05:28:30.8	91.480	-0.400	1.140	0.850
2020/01/31 05:28:30.9	91.480	-0.410	1.120	0.860
2020/01/31 05:28:31.0	91.480	-0.410	1.100	0.860
2020/01/31 05:28:31.1	91.480	-0.410	1.050	0.870
2020/01/31 05:28:31.2	91.480	-0.410	1.000	0.870
2020/01/31 05:28:31.3	91.490	-0.400	0.930	0.870
2020/01/31 05:28:31.4	91.490	-0.380	0.860	0.870
2020/01/31 05:28:31.5	91.500	-0.360	0.770	0.860
2020/01/31 05:28:31.6	91.500	-0.340	0.680	0.860
2020/01/31 05:28:31.7	91.510	-0.310	0.580	0.850
2020/01/31 05:28:31.8	91.520	-0.280	0.470	0.840
2020/01/31 05:28:31.9	91.520	-0.250	0.370	0.830
2020/01/31 05:28:32.0	91.530	-0.210	0.260	0.820
2020/01/31 05:28:32.1	91.540	-0.180	0.150	0.810
2020/01/31 05:28:32.2	91.550	-0.150	0.040	0.800
2020/01/31 05:28:32.3	91.550	-0.110	-0.060	0.780
2020/01/31 05:28:32.4	91.560	-0.080	-0.170	0.770
2020/01/31 05:28:32.5	91.560	-0.050	-0.260	0.750
2020/01/31 05:28:32.6	91.560	-0.020	-0.350	0.730
2020/01/31 05:28:32.7	91.560	0.010	-0.440	0.710
2020/01/31 05:28:32.8	91.560	0.030	-0.510	0.680
2020/01/31 05:28:32.9	91.560	0.050	-0.590	0.660
2020/01/31 05:28:33.0	91.560	0.070	-0.650	0.640
2020/01/31 05:28:33.1	91.560	0.080	-0.700	0.610
2020/01/31 05:28:33.2	91.550	0.090	-0.750	0.590
2020/01/31 05:28:33.3	91.550	0.100	-0.790	0.560
2020/01/31 05:28:33.4	91.540	0.100	-0.810	0.540
2020/01/31 05:28:33.5	91.540	0.100	-0.830	0.520
2020/01/31 05:28:33.6	91.530	0.100	-0.840	0.510
2020/01/31 05:28:33.7	91.520	0.090	-0.840	0.490
2020/01/31 05:28:33.8	91.510	0.090	-0.830	0.480
2020/01/31 05:28:33.9	91.500	0.070	-0.810	0.470
2020/01/31 05:28:34.0	91.490	0.060	-0.790	0.470
2020/01/31 05:28:34.1	91.480	0.040	-0.750	0.460
2020/01/31 05:28:34.2	91.470	0.030	-0.710	0.460
2020/01/31 05:28:34.3	91.460	0.010	-0.670	0.470
2020/01/31 05:28:34.4	91.460	-0.010	-0.620	0.470
2020/01/31 05:28:34.5	91.450	-0.030	-0.570	0.480
2020/01/31 05:28:34.6	91.450	-0.050	-0.520	0.500
2020/01/31 05:28:34.7	91.440	-0.070	-0.470	0.520
2020/01/31 05:28:34.8	91.440	-0.090	-0.420	0.540
2020/01/31 05:28:34.9	91.440	-0.110	-0.370	0.560
2020/01/31 05:28:35.0	91.440	-0.130	-0.320	0.580
2020/01/31 05:28:35.1	91.440	-0.150	-0.270	0.610
2020/01/31 05:28:35.2	91.440	-0.160	-0.220	0.640
2020/01/31 05:28:35.3	91.450	-0.180	-0.180	0.670
2020/01/31 05:28:35.4	91.450	-0.190	-0.140	0.700
2020/01/31 05:28:35.5	91.460	-0.200	-0.110	0.730
2020/01/31 05:28:35.6	91.460	-0.210	-0.070	0.760
2020/01/31 05:28:35.7	91.470	-0.220	-0.050	0.790
2020/01/31 05:28:35.8	91.470	-0.230	-0.020	0.820
2020/01/31 05:28:35.9	91.480	-0.230	-0.010	0.840
2020/01/31 05:28:36.0	91.480	-0.240	0.010	0.860
2020/01/31 05:28:36.1	91.490	-0.240	0.020	0.890
2020/01/31 05:28:36.2	91.490	-0.240	0.020	0.900
2020/01/31 05:28:36.3	91.500	-0.240	0.030	0.920
2020/01/31 05:28:36.4	91.500	-0.240	0.020	0.930
2020/01/31 05:28:36.5	91.500	-0.240	0.020	0.940
2020/01/31 05:28:36.6	91.500	-0.240	0.000	0.950
2020/01/31 05:28:36.7	91.500	-0.230	-0.010	0.950
2020/01/31 05:28:36.8	91.500	-0.230	-0.030	0.960
2020/01/31 05:28:36.9	91.500	-0.220	-0.050	0.960
2020/01/31 05:28:37.0	91.490	-0.210	-0.070	0.960
2020/01/31 05:28:37.1	91.490	-0.200	-0.090	0.960
2020/01/31 05:28:37.2	91.480	-0.190	-0.120	0.950
2020/01/31 05:28:37.3	91.470	-0.180	-0.140	0.950
2020/01/31 05:28:37.4	91.460	-0.170	-0.170	0.950
2020/01/31 05:28:37.5	91.450	-0.150	-0.190	0.950
2020/01/31 05:28:37.6	91.440	-0.140	-0.220	0.950
2020/01/31 05:28:37.7	91.430	-0.120	-0.240	0.950
2020/01/31 05:28:37.8	91.410	-0.110	-0.270	0.950
2020/01/31 05:28:37.9	91.400	-0.090	-0.290	0.950
2020/01/31 05:28:38.0	91.390	-0.070	-0.310	0.950
2020/01/31 05:28:38.1	91.380	-0.050	-0.330	0.950
2020/01/31 05:28:38.2	91.360	-0.030	-0.340	0.960
2020/01/31 05:28:38.3	91.350	-0.010	-0.360	0.960
2020/01/31 05:28:38.4	91.340	0.010	-0.370	0.960
2020/01/31 05:28:38.5	91.340	0.030	-0.380	0.960
2020/01/31 05:28:38.6	91.330	0.050	-0.380	0.960
2020/01/31 05:28:38.7	91.330	0.070	-0.390	0.960
2020/01/31 05:28:38.8	91.330	0.090	-0.390	0.960
2020/01/31 05:28:38.9	91.330	0.110	-0.390	0.960
2020/01/31 05:28:39.0	91.330	0.130	-0.390	0.960
2020/01/31 05:28:39.1	91.340	0.150	-0.380	0.960
2020/01/31 05:28:39.2	91.350	0.160	-0.380	0.950
2020/01/31 05:28:39.3	91.350	0.180	-0.380	0.950
2020/01/31 05:28:39.4	91.360	0.190	-0.370	0.940
2020/01/31 05:28:39.5	91.370	0.210	-0.360	0.930
2020/01/31 05:28:39.6	91.380	0.220	-0.350	0.920
2020/01/31 05:28:39.7	91.390	0.230	-0.340	0.910
2020/01/31 05:28:39.8	91.400	0.230	-0.330	0.900
2020/01/31 05:28:39.9	91.420	0.240	-0.320	0.890
2020/01/31 05:28:40.0	91.430	0.240	-0.310	0.880
2020/01/31 05:28:40.1	91.430	0.240	-0.300	0.870
2020/01/31 05:28:40.2	91.440	0.240	-0.280	0.860
2020/01/31 05:28:40.3	91.450	0.230	-0.270	0.840
2020/01/31 05:28:40.4	91.460	0.230	-0.260	0.830
2020/01/31 05:28:40.5	91.470	0.220	-0.250	0.810
2020/01/31 05:28:40.6	91.470	0.210	-0.240	0.800
2020/01/31 05:28:40.7	91.480	0.190	-0.230	0.780
2020/01/31 05:28:40.8	91.490	0.180	-0.220	0.760
2020/01/31 05:28:40.9	91.490	0.160	-0.200	0.740
2020/01/31 05:28:41.0	91.490	0.140	-0.190	0.730
2020/01/31 05:28:41.1	91.500	0.120	-0.180	0.710
2020/01/31 05:28:41.2	91.500	0.100	-0.170	0.680
2020/01/31 05:28:41.3	91.500	0.080	-0.150	0.670
2020/01/31 05:28:41.4	91.500	0.060	-0.140	0.650
2020/01/31 05:28:41.5	91.500	0.030	-0.130	0.630
2020/01/31 05:28:41.6	91.500	0.010	-0.110	0.610
2020/01/31 05:28:41.7	91.500	-0.010	-0.100	0.600
2020/01/31 05:28:41.8	91.500	-0.030	-0.080	0.580
2020/01/31 05:28:41.9	91.490	-0.060	-0.070	0.570
2020/01/31 05:28:42.0	91.490	-0.080	-0.050	0.560
2020/01/31 05:28:42.1	91.490	-0.100	-0.040	0.550
2020/01/31 05:28:42.2	91.480	-0.110	-0.030	0.540
2020/01/31 05:28:42.3	91.480	-0.130	-0.020	0.530
2020/01/31 05:28:42.4	91.470	-0.150	-0.010	0.520
2020/01/31 05:28:42.5	91.460	-0.160	0.000	0.520
2020/01/31 05:28:42.6	91.460	-0.170	0.010	0.520
2020/01/31 05:28:42.7	91.450	-0.180	0.020	0.520
2020/01/31 05:28:42.8	91.440	-0.190	0.030	0.530
2020/01/31 05:28:42.9	91.430	-0.190	0.030	0.530
2020/01/31 05:28:43.0	91.430	-0.190	0.040	0.540
2020/01/31 05:28:43.1	91.420	-0.200	0.040	0.550
2020/01/31 05:28:43.2	91.410	-0.200	0.040	0.560
2020/01/31 05:28:43.3	91.410	-0.190	0.040	0.580
2020/01/31 05:28:43.4	91.400	-0.190	0.030	0.590
2020/01/31 05:28:43.5	91.400	-0.180	0.030	0.600
2020/01/31 05:28:43.6	91.400	-0.180	0.020	0.610
2020/01/31 05:28:43.7	91.400	-0.170	0.010	0.630
2020/01/31 05:28:43.8	91.400	-0.160	-0.010	0.640
2020/01/31 05:28:43.9	91.400	-0.150	-0.020	0.650
2020/01/31 05:28:44.0	91.400	-0.130	-0.040	0.660
2020/01/31 05:28:44.1	91.410	-0.120	-0.060	0.670
2020/01/31 05:28:44.2	91.420	-0.110	-0.090	0.680
2020/01/31 05:28:44.3	91.430	-0.090	-0.110	0.680
2020/01/31 05:28:44.4	91.440	-0.070	-0.140	0.690
2020/01/31 05:28:44.5	91.450	-0.050	-0.180	0.690
2020/01/31 05:28:44.6	91.470	-0.030	-0.210	0.700
2020/01/31 05:28:44.7	91.480	-0.010	-0.250	0.700
2020/01/31 05:28:44.8	91.490	0.010	-0.290	0.700
2020/01/31 05:28:44.9	91.510	0.030	-0.330	0.700
2020/01/31 05:28:45.0	91.520	0.050	-0.370	0.700
2020/01/31 05:28:45.1	91.540	0.080	-0.410	0.700
2020/01/31 05:28:45.2	91.560	0.100	-0.450	0.710
2020/01/31 05:28:45.3	91.570	0.120	-0.490	0.710
2020/01/31 05:28:45.4	91.580	0.140	-0.530	0.710
2020/01/31 05:28:45.5	91.590	0.170	-0.570	0.720
2020/01/31 05:28:45.6	91.600	0.190	-0.610	0.720
2020/01/31 05:28:45.7	91.610	0.210	-0.640	0.720
2020/01/31 05:28:45.8	91.620	0.230	-0.660	0.730
2020/01/31 05:28:45.9	91.630	0.250	-0.680	0.730
2020/01/31 05:28:46.0	91.630	0.260	-0.700	0.730
2020/01/31 05:28:46.1	91.640	0.280	-0.710	0.740
2020/01/31 05:28:46.2	91.650	0.290	-0.710	0.740
2020/01/31 05:28:46.3	91.660	0.300	-0.710	0.740
2020/01/31 05:28:46.4	91.660	0.310	-0.700	0.740
2020/01/31 05:28:46.5	91.660	0.310	-0.680	0.740
2020/01/31 05:28:46.6	91.670	0.320	-0.660	0.750
2020/01/31 05:28:46.7	91.670	0.320	-0.630	0.750
2020/01/31 05:28:46.8	91.670	0.310	-0.590	0.750
2020/01/31 05:28:46.9	91.670	0.310	-0.550	0.750
2020/01/31 05:28:47.0	91.670	0.300	-0.500	0.760
2020/01/31 05:28:47.1	91.670	0.290	-0.450	0.760
2020/01/31 05:28:47.2	91.670	0.270	-0.390	0.770
2020/01/31 05:28:47.3	91.670	0.260	-0.330	0.770
2020/01/31 05:28:47.4	91.670	0.240	-0.270	0.780
2020/01/31 05:28:47.5	91.660	0.220	-0.200	0.790
2020/01/31 05:28:47.6	91.660	0.200	-0.140	0.790
2020/01/31 05:28:47.7	91.660	0.180	-0.080	0.800
2020/01/31 05:28:47.8	91.660	0.160	-0.020	0.810
2020/01/31 05:28:47.9	91.660	0.140	0.040	0.820
2020/01/31 05:28:48.0	91.660	0.120	0.090	0.830
2020/01/31 05:28:48.1	91.660	0.100	0.140	0.840
2020/01/31 05:28:48.2	91.660	0.080	0.190	0.840
2020/01/31 05:28:48.3	91.670	0.060	0.230	0.850
2020/01/31 05:28:48.4	91.670	0.040	0.260	0.860
2020/01/31 05:28:48.5	91.680	0.020	0.290	0.870
2020/01/31 05:28:48.6	91.680	0.010	0.300	0.880
2020/01/31 05:28:48.7	91.690	-0.010	0.320	0.890
2020/01/31 05:28:48.8	91.700	-0.020	0.320	0.900
2020/01/31 05:28:48.9	91.700	-0.030	0.320	0.920
2020/01/31 05:28:49.0	91.710	-0.030	0.310	0.930
2020/01/31 05:28:49.1	91.720	-0.040	0.300	0.940
2020/01/31 05:28:49.2	91.730	-0.040	0.280	0.950
2020/01/31 05:28:49.3	91.740	-0.040	0.250	0.960
2020/01/31 05:28:49.4	91.750	-0.040	0.220	0.970
2020/01/31 05:28:49.5	91.760	-0.040	0.180	0.980
2020/01/31 05:28:49.6	91.770	-0.040	0.130	0.990
2020/01/31 05:28:49.7	91.780	-0.030	0.080	0.990
2020/01/31 05:28:49.8	91.790	-0.020	0.030	0.990
2020/01/31 05:28:49.9	91.800	-0.020	-0.030	0.990
2020/01/31 05:28:50.0	91.810	-0.010	-0.090	0.990
2020/01/31 05:28:50.1	91.820	0.010	-0.150	0.990
2020/01/31 05:28:50.2	91.830	0.020	-0.220	0.980
2020/01/31 05:28:50.3	91.840	0.030	-0.280	0.970
2020/01/31 05:28:50.4	91.850	0.040	-0.350	0.960
2020/01/31 05:28:50.5	91.860	0.060	-0.410	0.950
2020/01/31 05:28:50.6	91.880	0.070	-0.470	0.930
2020/01/31 05:28:50.7	91.890	0.080	-0.530	0.920
2020/01/31 05:28:50.8	91.900	0.100	-0.590	0.900
2020/01/31 05:28:50.9	91.910	0.110	-0.640	0.880
2020/01/31 05:28:51.0	91.920	0.120	-0.680	0.860
2020/01/31 05:28:51.1	91.930	0.120	-0.720	0.850
2020/01/31 05:28:51.2	91.940	0.130	-0.760	0.830
2020/01/31 05:28:51.3	91.940	0.130	-0.780	0.820
2020/01/31 05:28:51.4	91.950	0.130	-0.790	0.800
2020/01/31 05:28:51.5	91.950	0.130	-0.800	0.800
2020/01/31 05:28:51.6	91.960	0.120	-0.800	0.790
2020/01/31 05:28:51.7	91.950	0.110	-0.780	0.800
2020/01/31 05:28:51.8	91.950	0.090	-0.760	0.800
2020/01/31 05:28:51.9	91.950	0.070	-0.720	0.810
2020/01/31 05:28:52.0	91.940	0.050	-0.680	0.830
2020/01/31 05:28:52.1	91.930	0.020	-0.630	0.850
2020/01/31 05:28:52.2	91.910	-0.010	-0.570	0.870
2020/01/31 05:28:52.3	91.900	-0.050	-0.510	0.900
2020/01/31 05:28:52.4	91.880	-0.090	-0.440	0.930
2020/01/31 05:28:52.5	91.870	-0.130	-0.360	0.960
2020/01/31 05:28:52.6	91.850	-0.170	-0.280	1.000
2020/01/31 05:28:52.7	91.830	-0.220	-0.190	1.040
2020/01/31 05:28:52.8	91.810	-0.270	-0.110	1.070
2020/01/31 05:28:52.9	91.790	-0.320	-0.020	1.110
2020/01/31 05:28:53.0	91.770	-0.380	0.070	1.150
2020/01/31 05:28:53.1	91.750	-0.430	0.150	1.190
2020/01/31 05:28:53.2	91.730	-0.480	0.240	1.220
2020/01/31 05:28:53.3	91.710	-0.530	0.320	1.260
2020/01/31 05:28:53.4	91.690	-0.590	0.400	1.280
2020/01/31 05:28:53.5	91.670	-0.640	0.470	1.300
2020/01/31 05:28:53.6	91.650	-0.680	0.530	1.320
2020/01/31 05:28:53.7	91.630	-0.730	0.590	1.330
2020/01/31 05:28:53.8	91.620	-0.770	0.640	1.340
2020/01/31 05:28:53.9	91.600	-0.800	0.680	1.340
2020/01/31 05:28:54.0	91.590	-0.830	0.700	1.330
2020/01/31 05:28:54.1	91.580	-0.860	0.720	1.320
2020/01/31 05:28:54.2	91.560	-0.880	0.730	1.300
2020/01/31 05:28:54.3	91.550	-0.890	0.730	1.270
2020/01/31 05:28:54.4	91.550	-0.890	0.710	1.250
2020/01/31 05:28:54.5	91.540	-0.890	0.680	1.220
2020/01/31 05:28:54.6	91.530	-0.890	0.650	1.180
2020/01/31 05:28:54.7	91.530	-0.870	0.600	1.150
2020/01/31 05:28:54.8	91.530	-0.850	0.540	1.110
2020/01/31 05:28:54.9	91.520	-0.820	0.470	1.070
2020/01/31 05:28:55.0	91.520	-0.780	0.400	1.030
2020/01/31 05:28:55.1	91.520	-0.740	0.310	0.980
2020/01/31 05:28:55.2	91.520	-0.690	0.210	0.940
2020/01/31 05:28:55.3	91.520	-0.630	0.110	0.900
2020/01/31 05:28:55.4	91.520	-0.570	0.010	0.850
2020/01/31 05:28:55.5	91.520	-0.510	-0.100	0.810
2020/01/31 05:28:55.6	91.520	-0.440	-0.220	0.770
2020/01/31 05:28:55.7	91.520	-0.370	-0.330	0.720
2020/01/31 05:28:55.8	91.530	-0.290	-0.450	0.680
2020/01/31 05:28:55.9	91.530	-0.210	-0.560	0.630
2020/01/31 05:28:56.0	91.530	-0.130	-0.680	0.590
2020/01/31 05:28:56.1	91.530	-0.050	-0.790	0.550
2020/01/31 05:28:56.2	91.540	0.030	-0.900	0.510
2020/01/31 05:28:56.3	91.540	0.110	-1.000	0.470
2020/01/31 05:28:56.4	91.540	0.190	-1.090	0.440
2020/01/31 05:28:56.5	91.550	0.270	-1.180	0.410
2020/01/31 05:28:56.6	91.550	0.340	-1.260	0.380
2020/01/31 05:28:56.7	91.550	0.410	-1.330	0.350
2020/01/31 05:28:56.8	91.550	0.480	-1.390	0.330
2020/01/31 05:28:56.9	91.560	0.540	-1.440	0.300
2020/01/31 05:28:57.0	91.560	0.600	-1.480	0.280
2020/01/31 05:28:57.1	91.560	0.650	-1.500	0.260
2020/01/31 05:28:57.2	91.570	0.700	-1.520	0.250
2020/01/31 05:28:57.3	91.570	0.740	-1.520	0.230
2020/01/31 05:28:57.4	91.580	0.780	-1.510	0.220
2020/01/31 05:28:57.5	91.580	0.810	-1.480	0.210
2020/01/31 05:28:57.6	91.580	0.830	-1.450	0.190
2020/01/31 05:28:57.7	91.590	0.850	-1.400	0.180
2020/01/31 05:28:57.8	91.590	0.860	-1.340	0.180
2020/01/31 05:28:57.9	91.600	0.860	-1.270	0.170
2020/01/31 05:28:58.0	91.600	0.860	-1.180	0.160
2020/01/31 05:28:58.1	91.610	0.850	-1.090	0.160
2020/01/31 05:28:58.2	91.620	0.830	-0.990	0.160
2020/01/31 05:28:58.3	91.620	0.810	-0.880	0.160
2020/01/31 05:28:58.4	91.630	0.790	-0.770	0.160
2020/01/31 05:28:58.5	91.640	0.750	-0.640	0.160
2020/01/31 05:28:58.6	91.650	0.720	-0.520	0.160
2020/01/31 05:28:58.7	91.660	0.680	-0.390	0.160
2020/01/31 05:28:58.8	91.670	0.630	-0.260	0.170
2020/01/31 05:28:58.9	91.680	0.590	-0.140	0.180
2020/01/31 05:28:59.0	91.690	0.540	-0.010	0.190
2020/01/31 05:28:59.1	91.710	0.490	0.120	0.200
2020/01/31 05:28:59.2	91.730	0.430	0.240	0.210
2020/01/31 05:28:59.3	91.740	0.380	0.360	0.220
2020/01/31 05:28:59.4	91.750	0.330	0.480	0.240
2020/01/31 05:28:59.5	91.760	0.270	0.580	0.260
2020/01/31 05:28:59.6	91.770	0.220	0.680	0.280
2020/01/31 05:28:59.7	91.780	0.170	0.770	0.310
2020/01/31 05:28:59.8	91.790	0.120	0.850	0.330
2020/01/31 05:28:59.9	91.800	0.070	0.920	0.360
2020/01/31 05:29:00.0	91.810	0.030	0.980	0.390
2020/01/31 05:29:00.1	91.810	-0.010	1.030	0.420
2020/01/31 05:29:00.2	91.820	-0.050	1.070	0.460
2020/01/31 05:29:00.3	91.820	-0.090	1.100	0.490
2020/01/31 05:29:00.4	91.820	-0.120	1.120	0.520
2020/01/31 05:29:00.5	91.820	-0.150	1.130	0.560
2020/01/31 05:29:00.6	91.820	-0.180	1.120	0.590
2020/01/31 05:29:00.7	91.820	-0.200	1.110	0.630
2020/01/31 05:29:00.8	91.810	-0.220	1.090	0.660
2020/01/31 05:29:00.9	91.800	-0.230	1.060	0.690
2020/01/31 05:29:01.0	91.790	-0.250	1.020	0.720
2020/01/31 05:29:01.1	91.780	-0.260	0.970	0.750
2020/01/31 05:29:01.2	91.760	-0.260	0.920	0.770
2020/01/31 05:29:01.3	91.750	-0.270	0.850	0.800
2020/01/31 05:29:01.4	91.730	-0.270	0.790	0.820
2020/01/31 05:29:01.5	91.710	-0.270	0.710	0.850
2020/01/31 05:29:01.6	91.690	-0.260	0.640	0.870
2020/01/31 05:29:01.7	91.670	-0.260	0.550	0.890
2020/01/31 05:29:01.8	91.640	-0.250	0.460	0.900
2020/01/31 05:29:01.9	91.620	-0.240	0.370	0.920
2020/01/31 05:29:02.0	91.600	-0.220	0.280	0.930
2020/01/31 05:29:02.1	91.580	-0.200	0.180	0.940
2020/01/31 05:29:02.2	91.560	-0.190	0.080	0.960
2020/01/31 05:29:02.3	91.540	-0.160	-0.020	0.970
2020/01/31 05:29:02.4	91.520	-0.140	-0.130	0.980
2020/01/31 05:29:02.5	91.500	-0.120	-0.230	0.980
2020/01/31 05:29:02.6	91.480	-0.090	-0.330	0.990
2020/01/31 05:29:02.7	91.470	-0.060	-0.440	1.000
2020/01/31 05:29:02.8	91.460	-0.040	-0.540	1.000
2020/01/31 05:29:02.9	91.450	-0.010	-0.640	1.010
2020/01/31 05:29:03.0	91.440	0.020	-0.730	1.010
2020/01/31 05:29:03.1	91.440	0.050	-0.830	1.020
2020/01/31 05:29:03.2	91.430	0.080	-0.920	1.020
2020/01/31 05:29:03.3	91.440	0.120	-1.000	1.020
2020/01/31 05:29:03.4	91.440	0.150	-1.080	1.020
2020/01/31 05:29:03.5	91.450	0.180	-1.160	1.020
2020/01/31 05:29:03.6	91.470	0.200	-1.220	1.020
2020/01/31 05:29:03.7	91.480	0.230	-1.280	1.020
2020/01/31 05:29:03.8	91.500	0.260	-1.330	1.020
2020/01/31 05:29:03.9	91.530	0.280	-1.380	1.020
2020/01/31 05:29:04.0	91.550	0.310	-1.410	1.010
2020/01/31 05:29:04.1	91.580	0.320	-1.430	1.010
2020/01/31 05:29:04.2	91.610	0.340	-1.450	1.020
2020/01/31 05:29:04.3	91.640	0.350	-1.450	1.020
2020/01/31 05:29:04.4	91.670	0.360	-1.440	1.020
2020/01/31 05:29:04.5	91.700	0.370	-1.420	1.020
2020/01/31 05:29:04.6	91.730	0.370	-1.390	1.020
2020/01/31 05:29:04.7	91.750	0.370	-1.350	1.030
2020/01/31 05:29:04.8	91.780	0.360	-1.300	1.030
2020/01/31 05:29:04.9	91.810	0.350	-1.240	1.040
2020/01/31 05:29:05.0	91.830	0.330	-1.170	1.050
2020/01/31 05:29:05.1	91.850	0.310	-1.090	1.060
2020/01/31 05:29:05.2	91.860	0.290	-1.000	1.070
2020/01/31 05:29:05.3	91.880	0.260	-0.910	1.080
2020/01/31 05:29:05.4	91.890	0.220	-0.810	1.090
2020/01/31 05:29:05.5	91.890	0.190	-0.700	1.100
2020/01/31 05:29:05.6	91.900	0.140	-0.600	1.110
2020/01/31 05:29:05.7	91.900	0.100	-0.480	1.130
2020/01/31 05:29:05.8	91.890	0.050	-0.370	1.140
2020/01/31 05:29:05.9	91.890	0.000	-0.250	1.160
2020/01/31 05:29:06.0	91.880	-0.050	-0.140	1.170
2020/01/31 05:29:06.1	91.870	-0.110	-0.030	1.190
2020/01/31 05:29:06.2	91.850	-0.160	0.080	1.200
2020/01/31 05:29:06.3	91.840	-0.220	0.190	1.220
2020/01/31 05:29:06.4	91.820	-0.270	0.290	1.240
2020/01/31 05:29:06.5	91.810	-0.330	0.390	1.260
2020/01/31 05:29:06.6	91.790	-0.380	0.470	1.270
2020/01/31 05:29:06.7	91.770	-0.440	0.560	1.290
2020/01/31 05:29:06.8	91.750	-0.490	0.630	1.310
2020/01/31 05:29:06.9	91.720	-0.530	0.690	1.320
2020/01/31 05:29:07.0	91.700	-0.580	0.750	1.340
2020/01/31 05:29:07.1	91.680	-0.620	0.790	1.350
2020/01/31 05:29:07.2	91.650	-0.650	0.820	1.360
2020/01/31 05:29:07.3	91.630	-0.680	0.840	1.370
2020/01/31 05:29:07.4	91.610	-0.700	0.850	1.380
2020/01/31 05:29:07.5	91.590	-0.720	0.850	1.380
2020/01/31 05:29:07.6	91.570	-0.730	0.830	1.380
2020/01/31 05:29:07.7	91.550	-0.740	0.810	1.370
2020/01/31 05:29:07.8	91.540	-0.740	0.770	1.370
2020/01/31 05:29:07.9	91.520	-0.730	0.730	1.360
2020/01/31 05:29:08.0	91.510	-0.720	0.670	1.340
2020/01/31 05:29:08.1	91.500	-0.710	0.610	1.320
2020/01/31 05:29:08.2	91.490	-0.680	0.530	1.290
2020/01/31 05:29:08.3	91.480	-0.660	0.460	1.260
2020/01/31 05:29:08.4	91.480	-0.620	0.370	1.220
2020/01/31 05:29:08.5	91.480	-0.590	0.290	1.180
2020/01/31 05:29:08.6	91.490	-0.550	0.200	1.130
2020/01/31 05:29:08.7	91.490	-0.500	0.110	1.080
2020/01/31 05:29:08.8	91.500	-0.460	0.020	1.030
2020/01/31 05:29:08.9	91.520	-0.410	-0.070	0.970
2020/01/31 05:29:09.0	91.530	-0.360	-0.160	0.910
2020/01/31 05:29:09.1	91.550	-0.310	-0.250	0.850
2020/01/31 05:29:09.2	91.570	-0.260	-0.330	0.790
2020/01/31 05:29:09.3	91.590	-0.210	-0.410	0.720
2020/01/31 05:29:09.4	91.620	-0.150	-0.490	0.660
2020/01/31 05:29:09.5	91.640	-0.100	-0.550	0.600
2020/01/31 05:29:09.6	91.670	-0.050	-0.620	0.540
2020/01/31 05:29:09.7	91.690	-0.000	-0.670	0.490
2020/01/31 05:29:09.8	91.720	0.050	-0.720	0.440
2020/01/31 05:29:09.9	91.750	0.090	-0.760	0.380
2020/01/31 05:29:10.0	91.780	0.140	-0.800	0.330
2020/01/31 05:29:10.1	91.810	0.180	-0.830	0.290
2020/01/31 05:29:10.2	91.830	0.220	-0.850	0.250
2020/01/31 05:29:10.3	91.860	0.260	-0.860	0.210
2020/01/31 05:29:10.4	91.890	0.300	-0.860	0.170
2020/01/31 05:29:10.5	91.910	0.330	-0.860	0.140
2020/01/31 05:29:10.6	91.940	0.360	-0.850	0.110
2020/01/31 05:29:10.7	91.960	0.390	-0.830	0.080
2020/01/31 05:29:10.8	91.980	0.410	-0.810	0.060
2020/01/31 05:29:10.9	92.000	0.430	-0.780	0.050
2020/01/31 05:29:11.0	92.020	0.450	-0.750	0.030
2020/01/31 05:29:11.1	92.030	0.470	-0.710	0.030
2020/01/31 05:29:11.2	92.040	0.480	-0.670	0.030
2020/01/31 05:29:11.3	92.050	0.490	-0.620	0.030
2020/01/31 05:29:11.4	92.050	0.500	-0.570	0.030
2020/01/31 05:29:11.5	92.060	0.510	-0.520	0.040
2020/01/31 05:29:11.6	92.060	0.510	-0.470	0.050
2020/01/31 05:29:11.7	92.060	0.510	-0.420	0.070
2020/01/31 05:29:11.8	92.060	0.510	-0.360	0.090
2020/01/31 05:29:11.9	92.050	0.510	-0.310	0.110
2020/01/31 05:29:12.0	92.050	0.500	-0.260	0.140
2020/01/31 05:29:12.1	92.040	0.490	-0.210	0.160
2020/01/31 05:29:12.2	92.040	0.480	-0.160	0.190
2020/01/31 05:29:12.3	92.040	0.470	-0.110	0.220
2020/01/31 05:29:12.4	92.030	0.460	-0.070	0.250
2020/01/31 05:29:12.5	92.020	0.450	-0.020	0.290
2020/01/31 05:29:12.6	92.020	0.430	0.010	0.320
2020/01/31 05:29:12.7	92.010	0.410	0.050	0.360
2020/01/31 05:29:12.8	92.000	0.400	0.080	0.400
2020/01/31 05:29:12.9	91.990	0.380	0.110	0.430
2020/01/31 05:29:13.0	91.990	0.350	0.130	0.470
2020/01/31 05:29:13.1	91.980	0.330	0.150	0.510
2020/01/31 05:29:13.2	91.970	0.310	0.170	0.540
2020/01/31 05:29:13.3	91.960	0.290	0.180	0.580
2020/01/31 05:29:13.4	91.950	0.260	0.180	0.610
2020/01/31 05:29:13.5	91.940	0.240	0.190	0.650
2020/01/31 05:29:13.6	91.940	0.210	0.190	0.680
2020/01/31 05:29:13.7	91.930	0.190	0.180	0.710
2020/01/31 05:29:13.8	91.920	0.160	0.180	0.740
2020/01/31 05:29:13.9	91.920	0.140	0.160	0.770
2020/01/31 05:29:14.0	91.910	0.110	0.150	0.800
2020/01/31 05:29:14.1	91.910	0.080	0.130	0.820
2020/01/31 05:29:14.2	91.900	0.060	0.110	0.840
2020/01/31 05:29:14.3	91.900	0.040	0.090	0.860
2020/01/31 05:29:14.4	91.900	0.010	0.060	0.870
2020/01/31 05:29:14.5	91.890	-0.010	0.030	0.880
2020/01/31 05:29:14.6	91.890	-0.030	0.000	0.890
2020/01/31 05:29:14.7	91.900	-0.050	-0.030	0.900
2020/01/31 05:29:14.8	91.900	-0.070	-0.060	0.900
2020/01/31 05:29:14.9	91.900	-0.090	-0.100	0.900
2020/01/31 05:29:15.0	91.910	-0.110	-0.130	0.900
2020/01/31 05:29:15.1	91.910	-0.120	-0.170	0.890
2020/01/31 05:29:15.2	91.920	-0.130	-0.210	0.890
2020/01/31 05:29:15.3	91.920	-0.140	-0.250	0.880
2020/01/31 05:29:15.4	91.930	-0.150	-0.280	0.870
2020/01/31 05:29:15.5	91.940	-0.150	-0.320	0.870
2020/01/31 05:29:15.6	91.940	-0.160	-0.360	0.860
2020/01/31 05:29:15.7	91.950	-0.160	-0.390	0.850
2020/01/31 05:29:15.8	91.960	-0.150	-0.430	0.850
2020/01/31 05:29:15.9	91.970	-0.150	-0.460	0.840
2020/01/31 05:29:16.0	91.980	-0.140	-0.490	0.840
2020/01/31 05:29:16.1	91.980	-0.130	-0.520	0.840
2020/01/31 05:29:16.2	92.000	-0.120	-0.550	0.840
2020/01/31 05:29:16.3	92.000	-0.110	-0.570	0.850
2020/01/31 05:29:16.4	92.010	-0.100	-0.590	0.850
2020/01/31 05:29:16.5	92.020	-0.080	-0.600	0.860
2020/01/31 05:29:16.6	92.020	-0.070	-0.610	0.870
2020/01/31 05:29:16.7	92.030	-0.050	-0.620	0.880
2020/01/31 05:29:16.8	92.030	-0.040	-0.620	0.900
2020/01/31 05:29:16.9	92.040	-0.020	-0.620	0.910
2020/01/31 05:29:17.0	92.040	-0.000	-0.620	0.930
2020/01/31 05:29:17.1	92.040	0.010	-0.610	0.940
2020/01/31 05:29:17.2	92.040	0.030	-0.600	0.960
2020/01/31 05:29:17.3	92.050	0.040	-0.580	0.980
2020/01/31 05:29:17.4	92.050	0.060	-0.560	0.990
2020/01/31 05:29:17.5	92.060	0.070	-0.540	1.010
2020/01/31 05:29:17.6	92.060	0.080	-0.520	1.020
2020/01/31 05:29:17.7	92.070	0.090	-0.490	1.030
2020/01/31 05:29:17.8	92.070	0.100	-0.460	1.050
2020/01/31 05:29:17.9	92.080	0.110	-0.430	1.060
2020/01/31 05:29:18.0	92.080	0.120	-0.400	1.070
2020/01/31 05:29:18.1	92.090	0.120	-0.360	1.080
2020/01/31 05:29:18.2	92.090	0.130	-0.330	1.080
2020/01/31 05:29:18.3	92.100	0.130	-0.290	1.090
2020/01/31 05:29:18.4	92.110	0.130	-0.250	1.090
2020/01/31 05:29:18.5	92.120	0.130	-0.220	1.090
2020/01/31 05:29:18.6	92.120	0.120	-0.180	1.100
2020/01/31 05:29:18.7	92.130	0.120	-0.140	1.100
2020/01/31 05:29:18.8	92.140	0.110	-0.100	1.100
2020/01/31 05:29:18.9	92.150	0.100	-0.060	1.100
2020/01/31 05:29:19.0	92.160	0.090	-0.030	1.100
2020/01/31 05:29:19.1	92.160	0.070	0.010	1.100
2020/01/31 05:29:19.2	92.170	0.060	0.040	1.100
2020/01/31 05:29:19.3	92.180	0.040	0.080	1.100
2020/01/31 05:29:19.4	92.180	0.030	0.110	1.100
2020/01/31 05:29:19.5	92.190	0.010	0.130	1.100
2020/01/31 05:29:19.6	92.190	-0.010	0.160	1.100
2020/01/31 05:29:19.7	92.190	-0.030	0.180	1.100
2020/01/31 05:29:19.8	92.200	-0.060	0.200	1.090
2020/01/31 05:29:19.9	92.200	-0.080	0.220	1.090
2020/01/31 05:29:20.0	92.200	-0.100	0.230	1.090
2020/01/31 05:29:20.1	92.200	-0.120	0.240	1.080
2020/01/31 05:29:20.2	92.190	-0.140	0.240	1.070
2020/01/31 05:29:20.3	92.190	-0.170	0.240	1.060
2020/01/31 05:29:20.4	92.190	-0.190	0.240	1.050
2020/01/31 05:29:20.5	92.190	-0.210	0.240	1.040
2020/01/31 05:29:20.6	92.190	-0.230	0.230	1.020
2020/01/31 05:29:20.7	92.190	-0.240	0.210	1.000
2020/01/31 05:29:20.8	92.190	-0.260	0.190	0.980
2020/01/31 05:29:20.9	92.190	-0.280	0.170	0.950
2020/01/31 05:29:21.0	92.190	-0.290	0.140	0.930
2020/01/31 05:29:21.1	92.190	-0.300	0.110	0.900
2020/01/31 05:29:21.2	92.200	-0.310	0.080	0.860
2020/01/31 05:29:21.3	92.200	-0.310	0.040	0.820
2020/01/31 05:29:21.4	92.210	-0.320	0.000	0.790
2020/01/31 05:29:21.5	92.220	-0.320	-0.040	0.750
2020/01/31 05:29:21.6	92.220	-0.310	-0.080	0.710
2020/01/31 05:29:21.7	92.230	-0.310	-0.130	0.670
2020/01/31 05:29:21.8	92.240	-0.300	-0.170	0.640
2020/01/31 05:29:21.9	92.250	-0.290	-0.220	0.600
2020/01/31 05:29:22.0	92.260	-0.270	-0.270	0.570
2020/01/31 05:29:22.1	92.270	-0.250	-0.310	0.540
2020/01/31 05:29:22.2	92.280	-0.230	-0.360	0.510
2020/01/31 05:29:22.3	92.290	-0.210	-0.400	0.480
2020/01/31 05:29:22.4	92.290	-0.190	-0.440	0.460
2020/01/31 05:29:22.5	92.300	-0.160	-0.480	0.450
2020/01/31 05:29:22.6	92.310	-0.130	-0.510	0.430
2020/01/31 05:29:22.7	92.320	-0.100	-0.530	0.420
2020/01/31 05:29:22.8	92.320	-0.070	-0.560	0.420
2020/01/31 05:29:22.9	92.320	-0.050	-0.570	0.420
2020/01/31 05:29:23.0	92.330	-0.020	-0.590	0.420
2020/01/31 05:29:23.1	92.330	0.010	-0.590	0.420
2020/01/31 05:29:23.2	92.330	0.040	-0.590	0.430
2020/01/31 05:29:23.3	92.320	0.060	-0.590	0.440
2020/01/31 05:29:23.4	92.320	0.080	-0.570	0.450
2020/01/31 05:29:23.5	92.320	0.110	-0.560	0.460
2020/01/31 05:29:23.6	92.310	0.120	-0.530	0.470
2020/01/31 05:29:23.7	92.300	0.140	-0.500	0.480
2020/01/31 05:29:23.8	92.300	0.150	-0.470	0.490
2020/01/31 05:29:23.9	92.290	0.160	-0.430	0.500
2020/01/31 05:29:24.0	92.280	0.170	-0.400	0.500
2020/01/31 05:29:24.1	92.270	0.170	-0.350	0.510
2020/01/31 05:29:24.2	92.260	0.170	-0.310	0.510
2020/01/31 05:29:24.3	92.250	0.170	-0.260	0.520
2020/01/31 05:29:24.4	92.240	0.170	-0.220	0.520
2020/01/31 05:29:24.5	92.240	0.160	-0.170	0.520
2020/01/31 05:29:24.6	92.230	0.150	-0.130	0.530
2020/01/31 05:29:24.7	92.220	0.140	-0.090	0.530
2020/01/31 05:29:24.8	92.210	0.120	-0.050	0.540
2020/01/31 05:29:24.9	92.200	0.110	-0.010	0.540
2020/01/31 05:29:25.0	92.200	0.090	0.030	0.550
2020/01/31 05:29:25.1	92.190	0.080	0.060	0.550
2020/01/31 05:29:25.2	92.180	0.060	0.080	0.560
2020/01/31 05:29:25.3	92.180	0.040	0.100	0.570
2020/01/31 05:29:25.4	92.180	0.020	0.120	0.580
2020/01/31 05:29:25.5	92.170	0.010	0.130	0.600
2020/01/31 05:29:25.6	92.170	-0.010	0.130	0.620
2020/01/31 05:29:25.7	92.170	-0.020	0.130	0.630
2020/01/31 05:29:25.8	92.160	-0.040	0.130	0.660
2020/01/31 05:29:25.9	92.160	-0.050	0.120	0.680
2020/01/31 05:29:26.0	92.150	-0.060	0.100	0.700
2020/01/31 05:29:26.1	92.150	-0.070	0.080	0.730
2020/01/31 05:29:26.2	92.140	-0.080	0.060	0.760
2020/01/31 05:29:26.3	92.130	-0.090	0.030	0.790
2020/01/31 05:29:26.4	92.130	-0.090	-0.000	0.820
2020/01/31 05:29:26.5	92.120	-0.090	-0.040	0.850
2020/01/31 05:29:26.6	92.110	-0.090	-0.080	0.870
2020/01/31 05:29:26.7	92.110	-0.090	-0.130	0.900
2020/01/31 05:29:26.8	92.100	-0.080	-0.180	0.920
2020/01/31 05:29:26.9	92.100	-0.070	-0.240	0.940
2020/01/31 05:29:27.0	92.090	-0.060	-0.290	0.960
2020/01/31 05:29:27.1	92.090	-0.050	-0.350	0.970
2020/01/31 05:29:27.2	92.080	-0.040	-0.410	0.980
2020/01/31 05:29:27.3	92.080	-0.020	-0.480	0.980
2020/01/31 05:29:27.4	92.080	0.000	-0.540	0.990
2020/01/31 05:29:27.5	92.080	0.030	-0.600	0.980
2020/01/31 05:29:27.6	92.080	0.050	-0.670	0.980
2020/01/31 05:29:27.7	92.080	0.080	-0.730	0.970
2020/01/31 05:29:27.8	92.080	0.110	-0.790	0.960
2020/01/31 05:29:27.9	92.080	0.140	-0.850	0.950
2020/01/31 05:29:28.0	92.080	0.170	-0.900	0.930
2020/01/31 05:29:28.1	92.080	0.200	-0.950	0.920
2020/01/31 05:29:28.2	92.090	0.230	-1.000	0.900
2020/01/31 05:29:28.3	92.090	0.270	-1.040	0.890
2020/01/31 05:29:28.4	92.090	0.300	-1.070	0.870
2020/01/31 05:29:28.5	92.090	0.330	-1.090	0.860
2020/01/31 05:29:28.6	92.080	0.360	-1.110	0.850
2020/01/31 05:29:28.7	92.080	0.390	-1.110	0.840
2020/01/31 05:29:28.8	92.080	0.410	-1.110	0.830
2020/01/31 05:29:28.9	92.080	0.430	-1.090	0.820
2020/01/31 05:29:29.0	92.080	0.460	-1.070	0.810
2020/01/31 05:29:29.1	92.070	0.470	-1.030	0.810
2020/01/31 05:29:29.2	92.070	0.490	-0.990	0.810
2020/01/31 05:29:29.3	92.070	0.500	-0.930	0.810
2020/01/31 05:29:29.4	92.070	0.500	-0.870	0.820
2020/01/31 05:29:29.5	92.060	0.500	-0.800	0.830
2020/01/31 05:29:29.6	92.060	0.500	-0.720	0.840
2020/01/31 05:29:29.7	92.060	0.490	-0.630	0.850
2020/01/31 05:29:29.8	92.050	0.480	-0.540	0.860
2020/01/31 05:29:29.9	92.050	0.460	-0.440	0.880
2020/01/31 05:29:30.0	92.040	0.440	-0.330	0.900
2020/01/31 05:29:30.1	92.040	0.420	-0.220	0.910
2020/01/31 05:29:30.2	92.030	0.390	-0.110	0.930
2020/01/31 05:29:30.3	92.020	0.350	0.000	0.950
2020/01/31 05:29:30.4	92.020	0.320	0.120	0.970
2020/01/31 05:29:30.5	92.010	0.280	0.230	0.990
2020/01/31 05:29:30.6	92.010	0.230	0.340	1.000
2020/01/31 05:29:30.7	92.000	0.190	0.440	1.020
2020/01/31 05:29:30.8	91.990	0.140	0.550	1.030
2020/01/31 05:29:30.9	91.990	0.090	0.650	1.030
2020/01/31 05:29:31.0	91.990	0.030	0.740	1.040
2020/01/31 05:29:31.1	91.980	-0.020	0.820	1.040
2020/01/31 05:29:31.2	91.980	-0.070	0.890	1.040
2020/01/31 05:29:31.3	91.980	-0.130	0.960	1.030
2020/01/31 05:29:31.4	91.980	-0.180	1.020	1.030
2020/01/31 05:29:31.5	91.980	-0.240	1.070	1.010
2020/01/31 05:29:31.6	91.980	-0.290	1.100	1.000
2020/01/31 05:29:31.7	91.980	-0.340	1.130	0.980
2020/01/31 05:29:31.8	91.980	-0.390	1.150	0.960
2020/01/31 05:29:31.9	91.980	-0.430	1.150	0.930
2020/01/31 05:29:32.0	91.990	-0.480	1.140	0.910
2020/01/31 05:29:32.1	91.990	-0.520	1.130	0.880
2020/01/31 05:29:32.2	91.990	-0.550	1.100	0.850
2020/01/31 05:29:32.3	91.990	-0.580	1.060	0.820
2020/01/31 05:29:32.4	92.000	-0.610	1.010	0.790
2020/01/31 05:29:32.5	92.000	-0.630	0.950	0.760
2020/01/31 05:29:32.6	92.000	-0.650	0.880	0.730
2020/01/31 05:29:32.7	92.010	-0.660	0.800	0.700
2020/01/31 05:29:32.8	92.010	-0.660	0.710	0.670
2020/01/31 05:29:32.9	92.020	-0.660	0.620	0.650
2020/01/31 05:29:33.0	92.020	-0.660	0.520	0.620
2020/01/31 05:29:33.1	92.020	-0.650	0.410	0.600
2020/01/31 05:29:33.2	92.020	-0.630	0.300	0.570
2020/01/31 05:29:33.3	92.030	-0.610	0.180	0.550
2020/01/31 05:29:33.4	92.040	-0.590	0.060	0.530
2020/01/31 05:29:33.5	92.040	-0.560	-0.060	0.500
2020/01/31 05:29:33.6	92.050	-0.520	-0.180	0.490
2020/01/31 05:29:33.7	92.060	-0.480	-0.300	0.470
2020/01/31 05:29:33.8	92.070	-0.440	-0.420	0.450
2020/01/31 05:29:33.9	92.080	-0.390	-0.540	0.440
2020/01/31 05:29:34.0	92.090	-0.350	-0.650	0.430
2020/01/31 05:29:34.1	92.110	-0.290	-0.770	0.430
2020/01/31 05:29:34.2	92.120	-0.240	-0.870	0.430
2020/01/31 05:29:34.3	92.130	-0.180	-0.980	0.430
2020/01/31 05:29:34.4	92.140	-0.130	-1.070	0.440
2020/01/31 05:29:34.5	92.150	-0.070	-1.160	0.450
2020/01/31 05:29:34.6	92.160	-0.010	-1.250	0.460
2020/01/31 05:29:34.7	92.170	0.050	-1.320	0.470
2020/01/31 05:29:34.8	92.170	0.100	-1.380	0.490
2020/01/31 05:29:34.9	92.180	0.160	-1.440	0.510
2020/01/31 05:29:35.0	92.190	0.210	-1.490	0.530
2020/01/31 05:29:35.1	92.190	0.260	-1.530	0.550
2020/01/31 05:29:35.2	92.200	0.310	-1.560	0.580
2020/01/31 05:29:35.3	92.200	0.350	-1.570	0.600
2020/01/31 05:29:35.4	92.210	0.390	-1.580	0.620
2020/01/31 05:29:35.5	92.210	0.430	-1.580	0.640
2020/01/31 05:29:35.6	92.210	0.460	-1.560	0.660
2020/01/31 05:29:35.7	92.210	0.490	-1.540	0.680
2020/01/31 05:29:35.8	92.210	0.510	-1.510	0.700
2020/01/31 05:29:35.9	92.210	0.520	-1.460	0.720
2020/01/31 05:29:36.0	92.210	0.530	-1.410	0.740
2020/01/31 05:29:36.1	92.210	0.540	-1.350	0.760
2020/01/31 05:29:36.2	92.210	0.540	-1.280	0.770
2020/01/31 05:29:36.3	92.200	0.540	-1.200	0.790
2020/01/31 05:29:36.4	92.200	0.530	-1.110	0.810
2020/01/31 05:29:36.5	92.190	0.510	-1.020	0.830
2020/01/31 05:29:36.6	92.180	0.490	-0.920	0.850
2020/01/31 05:29:36.7	92.180	0.470	-0.820	0.880
2020/01/31 05:29:36.8	92.170	0.440	-0.710	0.910
2020/01/31 05:29:36.9	92.160	0.400	-0.590	0.930
2020/01/31 05:29:37.0	92.140	0.370	-0.470	0.970
2020/01/31 05:29:37.1	92.130	0.330	-0.350	1.000
2020/01/31 05:29:37.2	92.110	0.280	-0.230	1.030
2020/01/31 05:29:37.3	92.090	0.230	-0.110	1.070
2020/01/31 05:29:37.4	92.080	0.180	0.020	1.110
2020/01/31 05:29:37.5	92.060	0.130	0.140	1.140
2020/01/31 05:29:37.6	92.040	0.080	0.260	1.180
2020/01/31 05:29:37.7	92.020	0.030	0.380	1.210
2020/01/31 05:29:37.8	92.000	-0.030	0.490	1.250
2020/01/31 05:29:37.9	91.980	-0.090	0.600	1.280
2020/01/31 05:29:38.0	91.960	-0.140	0.700	1.310
2020/01/31 05:29:38.1	91.940	-0.200	0.800	1.330
2020/01/31 05:29:38.2	91.910	-0.250	0.880	1.360
2020/01/31 05:29:38.3	91.890	-0.300	0.960	1.380
2020/01/31 05:29:38.4	91.870	-0.350	1.030	1.390
2020/01/31 05:29:38.5	91.850	-0.390	1.080	1.400
2020/01/31 05:29:38.6	91.830	-0.430	1.130	1.400
2020/01/31 05:29:38.7	91.810	-0.470	1.160	1.400
2020/01/31 05:29:38.8	91.800	-0.510	1.170	1.390
2020/01/31 05:29:38.9	91.780	-0.530	1.180	1.380
2020/01/31 05:29:39.0	91.760	-0.560	1.170	1.360
2020/01/31 05:29:39.1	91.750	-0.570	1.140	1.340
2020/01/31 05:29:39.2	91.730	-0.580	1.110	1.310
2020/01/31 05:29:39.3	91.710	-0.590	1.060	1.270
2020/01/31 05:29:39.4	91.700	-0.590	0.990	1.230
2020/01/31 05:29:39.5	91.690	-0.580	0.910	1.190
2020/01/31 05:29:39.6	91.670	-0.560	0.820	1.140
2020/01/31 05:29:39.7	91.660	-0.540	0.720	1.090
2020/01/31 05:29:39.8	91.650	-0.510	0.600	1.030
2020/01/31 05:29:39.9	91.640	-0.480	0.480	0.970
2020/01/31 05:29:40.0	91.630	-0.440	0.360	0.920
2020/01/31 05:29:40.1	91.630	-0.390	0.220	0.860
2020/01/31 05:29:40.2	91.630	-0.340	0.080	0.800
2020/01/31 05:29:40.3	91.630	-0.280	-0.060	0.740
2020/01/31 05:29:40.4	91.630	-0.220	-0.210	0.680
2020/01/31 05:29:40.5	91.630	-0.160	-0.350	0.620
2020/01/31 05:29:40.6	91.630	-0.090	-0.490	0.560
2020/01/31 05:29:40.7	91.640	-0.030	-0.630	0.510
2020/01/31 05:29:40.8	91.650	0.040	-0.760	0.460
2020/01/31 05:29:40.9	91.670	0.120	-0.890	0.410
2020/01/31 05:29:41.0	91.690	0.190	-1.010	0.360
2020/01/31 05:29:41.1	91.710	0.260	-1.130	0.320
2020/01/31 05:29:41.2	91.730	0.330	-1.230	0.280
2020/01/31 05:29:41.3	91.750	0.400	-1.320	0.240
2020/01/31 05:29:41.4	91.780	0.460	-1.410	0.210
2020/01/31 05:29:41.5	91.810	0.520	-1.480	0.190
2020/01/31 05:29:41.6	91.840	0.580	-1.540	0.170
2020/01/31 05:29:41.7	91.870	0.640	-1.590	0.150
2020/01/31 05:29:41.8	91.890	0.680	-1.620	0.140
2020/01/31 05:29:41.9	91.920	0.730	-1.640	0.140
2020/01/31 05:29:42.0	91.950	0.760	-1.650	0.140
2020/01/31 05:29:42.1	91.980	0.790	-1.640	0.140
2020/01/31 05:29:42.2	92.000	0.810	-1.620	0.150
2020/01/31 05:29:42.3	92.020	0.820	-1.580	0.160
2020/01/31 05:29:42.4	92.040	0.830	-1.520	0.170
2020/01/31 05:29:42.5	92.060	0.830	-1.460	0.180
2020/01/31 05:29:42.6	92.070	0.820	-1.370	0.200
2020/01/31 05:29:42.7	92.090	0.800	-1.280	0.210
2020/01/31 05:29:42.8	92.100	0.770	-1.170	0.230
2020/01/31 05:29:42.9	92.110	0.740	-1.060	0.250
2020/01/31 05:29:43.0	92.120	0.690	-0.930	0.280
2020/01/31 05:29:43.1	92.120	0.650	-0.790	0.300
2020/01/31 05:29:43.2	92.120	0.590	-0.650	0.330
2020/01/31 05:29:43.3	92.120	0.530	-0.500	0.350
2020/01/31 05:29:43.4	92.120	0.460	-0.350	0.390
2020/01/31 05:29:43.5	92.120	0.380	-0.190	0.420
2020/01/31 05:29:43.6	92.120	0.300	-0.030	0.450
2020/01/31 05:29:43.7	92.110	0.220	0.130	0.490
2020/01/31 05:29:43.8	92.110	0.130	0.280	0.530
2020/01/31 05:29:43.9	92.100	0.040	0.440	0.560
2020/01/31 05:29:44.0	92.090	-0.050	0.580	0.600
2020/01/31 05:29:44.1	92.080	-0.140	0.720	0.640
2020/01/31 05:29:44.2	92.070	-0.230	0.860	0.680
2020/01/31 05:29:44.3	92.060	-0.320	0.980	0.730
2020/01/31 05:29:44.4	92.050	-0.410	1.090	0.770
2020/01/31 05:29:44.5	92.040	-0.490	1.190	0.810
2020/01/31 05:29:44.6	92.030	-0.570	1.270	0.850
2020/01/31 05:29:44.7	92.020	-0.640	1.340	0.900
2020/01/31 05:29:44.8	92.020	-0.710	1.390	0.940
2020/01/31 05:29:44.9	92.010	-0.770	1.430	0.980
2020/01/31 05:29:45.0	92.000	-0.830	1.450	1.020
2020/01/31 05:29:45.1	91.990	-0.870	1.460	1.060
2020/01/31 05:29:45.2	91.980	-0.910	1.450	1.090
2020/01/31 05:29:45.3	91.970	-0.940	1.420	1.120
2020/01/31 05:29:45.4	91.970	-0.960	1.380	1.150
2020/01/31 05:29:45.5	91.960	-0.980	1.320	1.180
2020/01/31 05:29:45.6	91.950	-0.980	1.240	1.200
2020/01/31 05:29:45.7	91.940	-0.970	1.160	1.210
2020/01/31 05:29:45.8	91.930	-0.960	1.050	1.230
2020/01/31 05:29:45.9	91.930	-0.940	0.940	1.230
2020/01/31 05:29:46.0	91.920	-0.900	0.820	1.240
2020/01/31 05:29:46.1	91.910	-0.860	0.680	1.240
2020/01/31 05:29:46.2	91.910	-0.810	0.540	1.230
2020/01/31 05:29:46.3	91.910	-0.760	0.390	1.220
2020/01/31 05:29:46.4	91.900	-0.690	0.240	1.200
2020/01/31 05:29:46.5	91.900	-0.620	0.080	1.180
2020/01/31 05:29:46.6	91.890	-0.550	-0.080	1.160
2020/01/31 05:29:46.7	91.890	-0.470	-0.240	1.140
2020/01/31 05:29:46.8	91.880	-0.380	-0.400	1.120
2020/01/31 05:29:46.9	91.880	-0.300	-0.550	1.090
2020/01/31 05:29:47.0	91.870	-0.210	-0.700	1.070
2020/01/31 05:29:47.1	91.870	-0.120	-0.840	1.040
2020/01/31 05:29:47.2	91.870	-0.030	-0.980	1.020
2020/01/31 05:29:47.3	91.860	0.060	-1.110	1.000
2020/01/31 05:29:47.4	91.850	0.150	-1.230	0.980
2020/01/31 05:29:47.5	91.840	0.240	-1.340	0.970
2020/01/31 05:29:47.6	91.840	0.320	-1.430	0.950
2020/01/31 05:29:47.7	91.830	0.400	-1.510	0.940
2020/01/31 05:29:47.8	91.820	0.480	-1.580	0.930
2020/01/31 05:29:47.9	91.810	0.550	-1.640	0.920
2020/01/31 05:29:48.0	91.790	0.610	-1.690	0.920
2020/01/31 05:29:48.1	91.780	0.670	-1.720	0.920
2020/01/31 05:29:48.2	91.770	0.720	-1.730	0.920
2020/01/31 05:29:48.3	91.750	0.760	-1.730	0.920
2020/01/31 05:29:48.4	91.740	0.800	-1.720	0.920
2020/01/31 05:29:48.5	91.730	0.830	-1.700	0.920
2020/01/31 05:29:48.6	91.710	0.850	-1.660	0.920
2020/01/31 05:29:48.7	91.700	0.860	-1.610	0.920
2020/01/31 05:29:48.8	91.680	0.870	-1.550	0.920
2020/01/31 05:29:48.9	91.670	0.870	-1.480	0.910
2020/01/31 05:29:49.0	91.650	0.860	-1.400	0.910
2020/01/31 05:29:49.1	91.640	0.840	-1.310	0.900
2020/01/31 05:29:49.2	91.620	0.820	-1.210	0.890
2020/01/31 05:29:49.3	91.610	0.790	-1.110	0.880
2020/01/31 05:29:49.4	91.590	0.750	-1.000	0.870
2020/01/31 05:29:49.5	91.580	0.710	-0.880	0.850
2020/01/31 05:29:49.6	91.570	0.670	-0.760	0.830
2020/01/31 05:29:49.7	91.560	0.610	-0.630	0.810
2020/01/31 05:29:49.8	91.540	0.560	-0.500	0.790
2020/01/31 05:29:49.9	91.530	0.500	-0.370	0.770
2020/01/31 05:29:50.0	91.520	0.440	-0.240	0.750
2020/01/31 05:29:50.1	91.510	0.380	-0.110	0.730
2020/01/31 05:29:50.2	91.510	0.310	0.030	0.700
2020/01/31 05:29:50.3	91.500	0.250	0.160	0.680
2020/01/31 05:29:50.4	91.500	0.180	0.280	0.660
2020/01/31 05:29:50.5	91.490	0.110	0.400	0.650
2020/01/31 05:29:50.6	91.490	0.050	0.510	0.630
2020/01/31 05:29:50.7	91.490	-0.020	0.620	0.620
2020/01/31 05:29:50.8	91.490	-0.080	0.720	0.600
2020/01/31 05:29:50.9	91.490	-0.140	0.810	0.600
2020/01/31 05:29:51.0	91.490	-0.190	0.890	0.590
2020/01/31 05:29:51.1	91.500	-0.250	0.950	0.590
2020/01/31 05:29:51.2	91.510	-0.300	1.010	0.580
2020/01/31 05:29:51.3	91.510	-0.340	1.060	0.590
2020/01/31 05:29:51.4	91.520	-0.390	1.100	0.590
2020/01/31 05:29:51.5	91.520	-0.420	1.120	0.600
2020/01/31 05:29:51.6	91.530	-0.460	1.130	0.610
2020/01/31 05:29:51.7	91.540	-0.490	1.140	0.620
2020/01/31 05:29:51.8	91.550	-0.510	1.130	0.640
2020/01/31 05:29:51.9	91.550	-0.530	1.110	0.650
2020/01/31 05:29:52.0	91.560	-0.550	1.080	0.670
2020/01/31 05:29:52.1	91.570	-0.560	1.040	0.680
2020/01/31 05:29:52.2	91.580	-0.570	0.990	0.700
2020/01/31 05:29:52.3	91.590	-0.580	0.930	0.720
2020/01/31 05:29:52.4	91.600	-0.580	0.860	0.730
2020/01/31 05:29:52.5	91.610	-0.580	0.790	0.740
2020/01/31 05:29:52.6	91.630	-0.570	0.700	0.760
2020/01/31 05:29:52.7	91.640	-0.570	0.620	0.770
2020/01/31 05:29:52.8	91.650	-0.560	0.520	0.780
2020/01/31 05:29:52.9	91.660	-0.540	0.430	0.780
2020/01/31 05:29:53.0	91.670	-0.530	0.320	0.790
2020/01/31 05:29:53.1	91.680	-0.510	0.220	0.790
2020/01/31 05:29:53.2	91.680	-0.490	0.110	0.790
2020/01/31 05:29:53.3	91.690	-0.460	0.000	0.790
2020/01/31 05:29:53.4	91.700	-0.440	-0.110	0.790
2020/01/31 05:29:53.5	91.700	-0.410	-0.220	0.790
2020/01/31 05:29:53.6	91.710	-0.390	-0.320	0.790
2020/01/31 05:29:53.7	91.720	-0.360	-0.430	0.790
2020/01/31 05:29:53.8	91.720	-0.330	-0.530	0.780
2020/01/31 05:29:53.9	91.720	-0.300	-0.630	0.780
2020/01/31 05:29:54.0	91.730	-0.270	-0.720	0.780
2020/01/31 05:29:54.1	91.730	-0.230	-0.810	0.790
2020/01/31 05:29:54.2	91.730	-0.200	-0.890	0.790
2020/01/31 05:29:54.3	91.730	-0.170	-0.960	0.790
2020/01/31 05:29:54.4	91.720	-0.140	-1.030	0.800
2020/01/31 05:29:54.5	91.720	-0.100	-1.090	0.810
2020/01/31 05:29:54.6	91.710	-0.070	-1.130	0.820
2020/01/31 05:29:54.7	91.710	-0.040	-1.170	0.840
2020/01/31 05:29:54.8	91.700	-0.010	-1.200	0.860
2020/01/31 05:29:54.9	91.690	0.020	-1.220	0.880
2020/01/31 05:29:55.0	91.680	0.050	-1.230	0.910
2020/01/31 05:29:55.1	91.670	0.080	-1.230	0.940
2020/01/31 05:29:55.2	91.660	0.110	-1.210	0.970
2020/01/31 05:29:55.3	91.640	0.140	-1.190	1.000
2020/01/31 05:29:55.4	91.630	0.170	-1.160	1.030
2020/01/31 05:29:55.5	91.610	0.190	-1.120	1.060
2020/01/31 05:29:55.6	91.600	0.210	-1.080	1.090
2020/01/31 05:29:55.7	91.580	0.240	-1.030	1.120
2020/01/31 05:29:55.8	91.570	0.260	-0.970	1.150
2020/01/31 05:29:55.9	91.550	0.280	-0.900	1.170
2020/01/31 05:29:56.0	91.540	0.290	-0.830	1.200
2020/01/31 05:29:56.1	91.520	0.310	-0.760	1.220
2020/01/31 05:29:56.2	91.500	0.320	-0.690	1.240
2020/01/31 05:29:56.3	91.490	0.340	-0.610	1.250
2020/01/31 05:29:56.4	91.480	0.350	-0.540	1.260
2020/01/31 05:29:56.5	91.460	0.360	-0.460	1.270
2020/01/31 05:29:56.6	91.450	0.360	-0.390	1.280
2020/01/31 05:29:56.7	91.430	0.370	-0.320	1.280
2020/01/31 05:29:56.8	91.420	0.380	-0.250	1.280
2020/01/31 05:29:56.9	91.400	0.380	-0.190	1.270
2020/01/31 05:29:57.0	91.390	0.380	-0.120	1.260
2020/01/31 05:29:57.1	91.370	0.380	-0.070	1.250
2020/01/31 05:29:57.2	91.350	0.380	-0.010	1.230
2020/01/31 05:29:57.3	91.340	0.370	0.040	1.210
2020/01/31 05:29:57.4	91.320	0.370	0.080	1.190
2020/01/31 05:29:57.5	91.310	0.360	0.120	1.170
2020/01/31 05:29:57.6	91.290	0.350	0.150	1.140
2020/01/31 05:29:57.7	91.270	0.340	0.180	1.110
2020/01/31 05:29:57.8	91.260	0.330	0.200	1.080
2020/01/31 05:29:57.9	91.240	0.320	0.220	1.060
2020/01/31 05:29:58.0	91.220	0.310	0.240	1.030
2020/01/31 05:29:58.1	91.210	0.290	0.250	1.000
2020/01/31 05:29:58.2	91.190	0.280	0.250	0.960
2020/01/31 05:29:58.3	91.180	0.260	0.250	0.940
2020/01/31 05:29:58.4	91.160	0.240	0.250	0.910
2020/01/31 05:29:58.5	91.150	0.230	0.250	0.880
2020/01/31 05:29:58.6	91.140	0.210	0.240	0.850
2020/01/31 05:29:58.7	91.130	0.190	0.230	0.820
2020/01/31 05:29:58.8	91.130	0.170	0.220	0.790
2020/01/31 05:29:58.9	91.120	0.150	0.210	0.770
2020/01/31 05:29:59.0	91.120	0.130	0.190	0.740
2020/01/31 05:29:59.1	91.120	0.100	0.180	0.710
2020/01/31 05:29:59.2	91.120	0.080	0.160	0.680
2020/01/31 05:29:59.3	91.120	0.060	0.140	0.660
2020/01/31 05:29:59.4	91.130	0.050	0.110	0.630
2020/01/31 05:29:59.5	91.130	0.030	0.090	0.610
2020/01/31 05:29:59.6	91.150	0.010	0.070	0.580
2020/01/31 05:29:59.7	91.160	-0.010	0.040	0.560
2020/01/31 05:29:59.8	91.180	-0.020	0.010	0.530
2020/01/31 05:29:59.9	91.190	-0.030	-0.020	0.510
2020/01/31 05:30:00.0	91.210	-0.040	-0.050	0.490
2020/01/31 05:30:00.1	91.230	-0.050	-0.080	0.470
2020/01/31 05:30:00.2	91.250	-0.060	-0.110	0.450
2020/01/31 05:30:00.3	91.270	-0.070	-0.140	0.430
2020/01/31 05:30:00.4	91.290	-0.070	-0.180	0.420
2020/01/31 05:30:00.5	91.310	-0.070	-0.220	0.400
2020/01/31 05:30:00.6	91.330	-0.070	-0.250	0.400
2020/01/31 05:30:00.7	91.350	-0.070	-0.290	0.390
2020/01/31 05:30:00.8	91.370	-0.070	-0.330	0.390
2020/01/31 05:30:00.9	91.390	-0.060	-0.370	0.390
2020/01/31 05:30:01.0	91.400	-0.050	-0.410	0.400
2020/01/31 05:30:01.1	91.420	-0.040	-0.450	0.410
2020/01/31 05:30:01.2	91.430	-0.030	-0.500	0.420
2020/01/31 05:30:01.3	91.440	-0.020	-0.530	0.440
2020/01/31 05:30:01.4	91.440	-0.010	-0.570	0.460
2020/01/31 05:30:01.5	91.450	0.010	-0.610	0.480
2020/01/31 05:30:01.6	91.450	0.020	-0.640	0.500
2020/01/31 05:30:01.7	91.450	0.040	-0.670	0.530
2020/01/31 05:30:01.8	91.460	0.050	-0.700	0.550
2020/01/31 05:30:01.9	91.450	0.070	-0.720	0.580
2020/01/31 05:30:02.0	91.450	0.080	-0.740	0.610
2020/01/31 05:30:02.1	91.450	0.090	-0.760	0.640
2020/01/31 05:30:02.2	91.450	0.110	-0.760	0.670
2020/01/31 05:30:02.3	91.450	0.120	-0.770	0.700
2020/01/31 05:30:02.4	91.440	0.130	-0.770	0.730
2020/01/31 05:30:02.5	91.440	0.130	-0.770	0.760
2020/01/31 05:30:02.6	91.440	0.140	-0.760	0.800
2020/01/31 05:30:02.7	91.430	0.150	-0.750	0.830
2020/01/31 05:30:02.8	91.430	0.150	-0.730	0.870
2020/01/31 05:30:02.9	91.430	0.150	-0.710	0.900
2020/01/31 05:30:03.0	91.430	0.150	-0.680	0.940
2020/01/31 05:30:03.1	91.420	0.150	-0.640	0.970
2020/01/31 05:30:03.2	91.430	0.140	-0.610	1.010
2020/01/31 05:30:03.3	91.420	0.140	-0.570	1.040
2020/01/31 05:30:03.4	91.420	0.130	-0.520	1.070
2020/01/31 05:30:03.5	91.420	0.120	-0.470	1.110
2020/01/31 05:30:03.6	91.420	0.110	-0.420	1.140
2020/01/31 05:30:03.7	91.420	0.100	-0.360	1.170
2020/01/31 05:30:03.8	91.420	0.080	-0.300	1.200
2020/01/31 05:30:03.9	91.420	0.070	-0.240	1.230
2020/01/31 05:30:04.0	91.420	0.050	-0.180	1.260
2020/01/31 05:30:04.1	91.420	0.040	-0.110	1.290
2020/01/31 05:30:04.2	91.420	0.020	-0.050	1.310
2020/01/31 05:30:04.3	91.420	0.000	0.020	1.330
2020/01/31 05:30:04.4	91.430	-0.020	0.080	1.350
2020/01/31 05:30:04.5	91.430	-0.040	0.140	1.370
2020/01/31 05:30:04.6	91.430	-0.060	0.200	1.380
2020/01/31 05:30:04.7	91.440	-0.080	0.260	1.390
2020/01/31 05:30:04.8	91.440	-0.100	0.320	1.400
2020/01/31 05:30:04.9	91.450	-0.130	0.370	1.410
2020/01/31 05:30:05.0	91.450	-0.150	0.420	1.400
2020/01/31 05:30:05.1	91.460	-0.170	0.470	1.400
2020/01/31 05:30:05.2	91.470	-0.190	0.510	1.390
2020/01/31 05:30:05.3	91.480	-0.220	0.550	1.380
2020/01/31 05:30:05.4	91.490	-0.240	0.580	1.360
2020/01/31 05:30:05.5	91.500	-0.260	0.610	1.340
2020/01/31 05:30:05.6	91.510	-0.280	0.630	1.310
2020/01/31 05:30:05.7	91.520	-0.300	0.640	1.280
2020/01/31 05:30:05.8	91.530	-0.320	0.650	1.250
2020/01/31 05:30:05.9	91.540	-0.340	0.660	1.220
2020/01/31 05:30:06.0	91.550	-0.360	0.660	1.180
2020/01/31 05:30:06.1	91.560	-0.370	0.650	1.140
2020/01/31 05:30:06.2	91.580	-0.380	0.630	1.100
2020/01/31 05:30:06.3	91.590	-0.390	0.610	1.070
2020/01/31 05:30:06.4	91.590	-0.400	0.580	1.030
2020/01/31 05:30:06.5	91.600	-0.400	0.540	0.990
2020/01/31 05:30:06.6	91.600	-0.410	0.500	0.950
2020/01/31 05:30:06.7	91.600	-0.400	0.450	0.920
2020/01/31 05:30:06.8	91.600	-0.400	0.400	0.890
2020/01/31 05:30:06.9	91.600	-0.390	0.340	0.850
2020/01/31 05:30:07.0	91.590	-0.380	0.270	0.820
2020/01/31 05:30:07.1	91.590	-0.360	0.200	0.800
2020/01/31 05:30:07.2	91.580	-0.340	0.130	0.770
2020/01/31 05:30:07.3	91.570	-0.320	0.060	0.740
2020/01/31 05:30:07.4	91.560	-0.290	-0.020	0.720
2020/01/31 05:30:07.5	91.550	-0.270	-0.090	0.700
2020/01/31 05:30:07.6	91.540	-0.240	-0.170	0.680
2020/01/31 05:30:07.7	91.530	-0.210	-0.240	0.660
2020/01/31 05:30:07.8	91.530	-0.170	-0.320	0.640
2020/01/31 05:30:07.9	91.520	-0.140	-0.390	0.620
2020/01/31 05:30:08.0	91.510	-0.100	-0.460	0.600
2020/01/31 05:30:08.1	91.510	-0.060	-0.530	0.580
2020/01/31 05:30:08.2	91.500	-0.030	-0.610	0.560
2020/01/31 05:30:08.3	91.500	0.010	-0.670	0.540
2020/01/31 05:30:08.4	91.500	0.050	-0.730	0.510
2020/01/31 05:30:08.5	91.500	0.080	-0.790	0.490
2020/01/31 05:30:08.6	91.510	0.120	-0.840	0.470
2020/01/31 05:30:08.7	91.520	0.160	-0.890	0.450
2020/01/31 05:30:08.8	91.530	0.190	-0.930	0.430
2020/01/31 05:30:08.9	91.540	0.220	-0.970	0.410
2020/01/31 05:30:09.0	91.550	0.250	-1.000	0.390
2020/01/31 05:30:09.1	91.570	0.280	-1.030	0.370
2020/01/31 05:30:09.2	91.600	0.310	-1.050	0.350
2020/01/31 05:30:09.3	91.620	0.330	-1.070	0.330
2020/01/31 05:30:09.4	91.640	0.360	-1.080	0.310
2020/01/31 05:30:09.5	91.670	0.380	-1.090	0.290
2020/01/31 05:30:09.6	91.700	0.400	-1.100	0.280
2020/01/31 05:30:09.7	91.720	0.410	-1.100	0.260
2020/01/31 05:30:09.8	91.750	0.420	-1.090	0.260
2020/01/31 05:30:09.9	91.780	0.430	-1.080	0.250
2020/01/31 05:30:10.0	91.810	0.440	-1.060	0.250
2020/01/31 05:30:10.1	91.830	0.440	-1.030	0.260
2020/01/31 05:30:10.2	91.850	0.440	-1.010	0.260
2020/01/31 05:30:10.3	91.870	0.440	-0.970	0.280
2020/01/31 05:30:10.4	91.880	0.430	-0.930	0.300
2020/01/31 05:30:10.5	91.890	0.430	-0.880	0.320
2020/01/31 05:30:10.6	91.900	0.410	-0.830	0.350
2020/01/31 05:30:10.7	91.910	0.400	-0.770	0.380
2020/01/31 05:30:10.8	91.910	0.380	-0.710	0.410
2020/01/31 05:30:10.9	91.910	0.360	-0.640	0.450
2020/01/31 05:30:11.0	91.900	0.340	-0.570	0.490
2020/01/31 05:30:11.1	91.890	0.310	-0.500	0.530
2020/01/31 05:30:11.2	91.880	0.290	-0.410	0.580
2020/01/31 05:30:11.3	91.870	0.260	-0.340	0.620
2020/01/31 05:30:11.4	91.850	0.230	-0.260	0.660
2020/01/31 05:30:11.5	91.830	0.200	-0.190	0.700
2020/01/31 05:30:11.6	91.820	0.160	-0.120	0.740
2020/01/31 05:30:11.7	91.800	0.130	-0.040	0.780
2020/01/31 05:30:11.8	91.780	0.100	0.020	0.820
2020/01/31 05:30:11.9	91.760	0.070	0.090	0.850
2020/01/31 05:30:12.0	91.740	0.030	0.150	0.880
2020/01/31 05:30:12.1	91.720	0.000	0.200	0.910
2020/01/31 05:30:12.2	91.700	-0.030	0.240	0.930
2020/01/31 05:30:12.3	91.680	-0.050	0.290	0.950
2020/01/31 05:30:12.4	91.660	-0.080	0.320	0.970
2020/01/31 05:30:12.5	91.650	-0.100	0.350	0.990
2020/01/31 05:30:12.6	91.630	-0.130	0.370	1.000
2020/01/31 05:30:12.7	91.620	-0.150	0.390	1.020
2020/01/31 05:30:12.8	91.600	-0.160	0.400	1.030
2020/01/31 05:30:12.9	91.590	-0.180	0.400	1.030
2020/01/31 05:30:13.0	91.570	-0.190	0.390	1.040
2020/01/31 05:30:13.1	91.560	-0.200	0.380	1.050
2020/01/31 05:30:13.2	91.550	-0.200	0.370	1.050
2020/01/31 05:30:13.3	91.530	-0.210	0.350	1.050
2020/01/31 05:30:13.4	91.520	-0.210	0.330	1.060
2020/01/31 05:30:13.5	91.510	-0.210	0.300	1.060
2020/01/31 05:30:13.6	91.500	-0.200	0.270	1.050
2020/01/31 05:30:13.7	91.490	-0.200	0.230	1.050
2020/01/31 05:30:13.8	91.480	-0.190	0.200	1.040
2020/01/31 05:30:13.9	91.480	-0.180	0.160	1.030
2020/01/31 05:30:14.0	91.470	-0.170	0.120	1.020
2020/01/31 05:30:14.1	91.470	-0.160	0.080	1.010
2020/01/31 05:30:14.2	91.460	-0.140	0.030	0.990
2020/01/31 05:30:14.3	91.460	-0.130	-0.010	0.970
2020/01/31 05:30:14.4	91.460	-0.110	-0.060	0.950
2020/01/31 05:30:14.5	91.460	-0.090	-0.100	0.930
2020/01/31 05:30:14.6	91.460	-0.070	-0.150	0.900
2020/01/31 05:30:14.7	91.470	-0.050	-0.190	0.880
2020/01/31 05:30:14.8	91.470	-0.020	-0.230	0.850
2020/01/31 05:30:14.9	91.480	-0.000	-0.270	0.820
2020/01/31 05:30:15.0	91.490	0.020	-0.310	0.790
2020/01/31 05:30:15.1	91.500	0.040	-0.350	0.760
2020/01/31 05:30:15.2	91.510	0.070	-0.380	0.730
2020/01/31 05:30:15.3	91.520	0.090	-0.420	0.700
2020/01/31 05:30:15.4	91.530	0.110	-0.440	0.670
2020/01/31 05:30:15.5	91.540	0.130	-0.470	0.640
2020/01/31 05:30:15.6	91.550	0.150	-0.490	0.610
2020/01/31 05:30:15.7	91.560	0.170	-0.500	0.580
2020/01/31 05:30:15.8	91.580	0.180	-0.510	0.560
2020/01/31 05:30:15.9	91.590	0.190	-0.520	0.530
2020/01/31 05:30:16.0	91.600	0.200	-0.520	0.510
2020/01/31 05:30:16.1	91.610	0.210	-0.520	0.490
2020/01/31 05:30:16.2	91.620	0.220	-0.520	0.470
2020/01/31 05:30:16.3	91.620	0.220	-0.510	0.460
2020/01/31 05:30:16.4	91.630	0.220	-0.490	0.440
2020/01/31 05:30:16.5	91.640	0.210	-0.470	0.440
2020/01/31 05:30:16.6	91.650	0.210	-0.450	0.430
2020/01/31 05:30:16.7	91.660	0.200	-0.420	0.430
2020/01/31 05:30:16.8	91.660	0.180	-0.390	0.430
2020/01/31 05:30:16.9	91.660	0.170	-0.360	0.430
2020/01/31 05:30:17.0	91.670	0.150	-0.330	0.430
2020/01/31 05:30:17.1	91.670	0.130	-0.300	0.440
2020/01/31 05:30:17.2	91.670	0.100	-0.260	0.450
2020/01/31 05:30:17.3	91.670	0.080	-0.220	0.460
2020/01/31 05:30:17.4	91.670	0.050	-0.190	0.470
2020/01/31 05:30:17.5	91.660	0.020	-0.150	0.490
2020/01/31 05:30:17.6	91.660	-0.010	-0.120	0.500
2020/01/31 05:30:17.7	91.660	-0.040	-0.080	0.520
2020/01/31 05:30:17.8	91.650	-0.070	-0.050	0.530
2020/01/31 05:30:17.9	91.650	-0.100	-0.020	0.550
2020/01/31 05:30:18.0	91.640	-0.130	0.010	0.560
2020/01/31 05:30:18.1	91.640	-0.160	0.040	0.580
2020/01/31 05:30:18.2	91.630	-0.190	0.060	0.600
2020/01/31 05:30:18.3	91.620	-0.210	0.080	0.610
2020/01/31 05:30:18.4	91.620	-0.240	0.100	0.630
2020/01/31 05:30:18.5	91.610	-0.260	0.120	0.650
2020/01/31 05:30:18.6	91.610	-0.280	0.140	0.670
2020/01/31 05:30:18.7	91.600	-0.300	0.150	0.680
2020/01/31 05:30:18.8	91.600	-0.320	0.150	0.700
2020/01/31 05:30:18.9	91.600	-0.330	0.160	0.720
2020/01/31 05:30:19.0	91.590	-0.340	0.160	0.740
2020/01/31 05:30:19.1	91.590	-0.340	0.160	0.760
2020/01/31 05:30:19.2	91.590	-0.340	0.150	0.770
2020/01/31 05:30:19.3	91.590	-0.340	0.140	0.790
2020/01/31 05:30:19.4	91.590	-0.340	0.120	0.810
2020/01/31 05:30:19.5	91.590	-0.330	0.100	0.820
2020/01/31 05:30:19.6	91.590	-0.310	0.080	0.840
2020/01/31 05:30:19.7	91.600	-0.300	0.050	0.860
2020/01/31 05:30:19.8	91.600	-0.280	0.020	0.870
2020/01/31 05:30:19.9	91.600	-0.250	-0.010	0.890
2020/01/31 05:30:20.0	91.610	-0.230	-0.050	0.900
2020/01/31 05:30:20.1	91.610	-0.200	-0.100	0.910
2020/01/31 05:30:20.2	91.620	-0.170	-0.140	0.920
2020/01/31 05:30:20.3	91.620	-0.130	-0.190	0.920
2020/01/31 05:30:20.4	91.630	-0.100	-0.240	0.930
2020/01/31 05:30:20.5	91.630	-0.060	-0.300	0.940
2020/01/31 05:30:20.6	91.640	-0.020	-0.350	0.940
2020/01/31 05:30:20.7	91.640	0.010	-0.400	0.950
2020/01/31 05:30:20.8	91.640	0.050	-0.450	0.950
2020/01/31 05:30:20.9	91.640	0.080	-0.500	0.960
2020/01/31 05:30:21.0	91.640	0.120	-0.540	0.970
2020/01/31 05:30:21.1	91.630	0.150	-0.590	0.980
2020/01/31 05:30:21.2	91.630	0.180	-0.630	0.990
2020/01/31 05:30:21.3	91.620	0.200	-0.660	1.000
2020/01/31 05:30:21.4	91.610	0.220	-0.680	1.010
2020/01/31 05:30:21.5	91.590	0.240	-0.700	1.020
2020/01/31 05:30:21.6	91.580	0.260	-0.720	1.030
2020/01/31 05:30:21.7	91.560	0.270	-0.720	1.040
2020/01/31 05:30:21.8	91.540	0.270	-0.720	1.050
2020/01/31 05:30:21.9	91.510	0.270	-0.710	1.060
2020/01/31 05:30:22.0	91.490	0.270	-0.700	1.070
2020/01/31 05:30:22.1	91.470	0.260	-0.680	1.070
2020/01/31 05:30:22.2	91.440	0.250	-0.650	1.080
2020/01/31 05:30:22.3	91.420	0.230	-0.620	1.080
2020/01/31 05:30:22.4	91.390	0.210	-0.580	1.080
2020/01/31 05:30:22.5	91.360	0.180	-0.530	1.090
2020/01/31 05:30:22.6	91.340	0.160	-0.480	1.090
2020/01/31 05:30:22.7	91.310	0.120	-0.430	1.080
2020/01/31 05:30:22.8	91.280	0.090	-0.370	1.080
2020/01/31 05:30:22.9	91.260	0.050	-0.310	1.070
2020/01/31 05:30:23.0	91.230	0.020	-0.240	1.070
2020/01/31 05:30:23.1	91.210	-0.020	-0.180	1.060
2020/01/31 05:30:23.2	91.180	-0.060	-0.110	1.040
2020/01/31 05:30:23.3	91.160	-0.100	-0.050	1.030
2020/01/31 05:30:23.4	91.150	-0.140	0.010	1.010
2020/01/31 05:30:23.5	91.130	-0.180	0.070	1.000
2020/01/31 05:30:23.6	91.120	-0.220	0.130	0.980
2020/01/31 05:30:23.7	91.110	-0.250	0.180	0.960
2020/01/31 05:30:23.8	91.100	-0.280	0.230	0.930
2020/01/31 05:30:23.9	91.090	-0.310	0.270	0.910
2020/01/31 05:30:24.0	91.090	-0.330	0.300	0.890
2020/01/31 05:30:24.1	91.090	-0.350	0.320	0.860
2020/01/31 05:30:24.2	91.080	-0.370	0.340	0.840
2020/01/31 05:30:24.3	91.080	-0.380	0.350	0.810
2020/01/31 05:30:24.4	91.080	-0.380	0.350	0.790
2020/01/31 05:30:24.5	91.080	-0.380	0.350	0.760
2020/01/31 05:30:24.6	91.080	-0.380	0.330	0.740
2020/01/31 05:30:24.7	91.080	-0.370	0.310	0.710
2020/01/31 05:30:24.8	91.080	-0.350	0.280	0.690
2020/01/31 05:30:24.9	91.090	-0.330	0.240	0.660
2020/01/31 05:30:25.0	91.090	-0.310	0.190	0.640
2020/01/31 05:30:25.1	91.090	-0.280	0.140	0.610
2020/01/31 05:30:25.2	91.090	-0.240	0.070	0.580
2020/01/31 05:30:25.3	91.100	-0.210	0.010	0.560
2020/01/31 05:30:25.4	91.100	-0.170	-0.060	0.530
2020/01/31 05:30:25.5	91.100	-0.120	-0.130	0.510
2020/01/31 05:30:25.6	91.110	-0.080	-0.210	0.480
2020/01/31 05:30:25.7	91.110	-0.030	-0.280	0.460
2020/01/31 05:30:25.8	91.120	0.020	-0.360	0.440
2020/01/31 05:30:25.9	91.130	0.070	-0.430	0.420
2020/01/31 05:30:26.0	91.130	0.120	-0.500	0.400
2020/01/31 05:30:26.1	91.140	0.170	-0.580	0.380
2020/01/31 05:30:26.2	91.140	0.220	-0.650	0.370
2020/01/31 05:30:26.3	91.150	0.270	-0.710	0.360
2020/01/31 05:30:26.4	91.160	0.320	-0.770	0.350
2020/01/31 05:30:26.5	91.160	0.360	-0.820	0.350
2020/01/31 05:30:26.6	91.170	0.400	-0.870	0.360
2020/01/31 05:30:26.7	91.170	0.440	-0.910	0.360
2020/01/31 05:30:26.8	91.180	0.470	-0.940	0.370
2020/01/31 05:30:26.9	91.180	0.500	-0.960	0.380
2020/01/31 05:30:27.0	91.190	0.530	-0.980	0.400
2020/01/31 05:30:27.1	91.190	0.550	-0.980	0.410
2020/01/31 05:30:27.2	91.200	0.560	-0.970	0.430
2020/01/31 05:30:27.3	91.210	0.570	-0.960	0.450
2020/01/31 05:30:27.4	91.210	0.580	-0.940	0.470
2020/01/31 05:30:27.5	91.220	0.580	-0.910	0.490
2020/01/31 05:30:27.6	91.220	0.570	-0.870	0.510
2020/01/31 05:30:27.7	91.230	0.560	-0.820	0.530
2020/01/31 05:30:27.8	91.230	0.540	-0.770	0.550
2020/01/31 05:30:27.9	91.230	0.520	-0.710	0.570
2020/01/31 05:30:28.0	91.240	0.490	-0.640	0.580
2020/01/31 05:30:28.1	91.240	0.460	-0.560	0.600
2020/01/31 05:30:28.2	91.240	0.420	-0.480	0.620
2020/01/31 05:30:28.3	91.240	0.380	-0.400	0.640
2020/01/31 05:30:28.4	91.240	0.330	-0.310	0.660
2020/01/31 05:30:28.5	91.240	0.280	-0.210	0.680
2020/01/31 05:30:28.6	91.240	0.220	-0.120	0.700
2020/01/31 05:30:28.7	91.240	0.160	-0.020	0.720
2020/01/31 05:30:28.8	91.230	0.100	0.070	0.740
2020/01/31 05:30:28.9	91.220	0.040	0.170	0.760
2020/01/31 05:30:29.0	91.220	-0.030	0.260	0.790
2020/01/31 05:30:29.1	91.210	-0.100	0.360	0.810
2020/01/31 05:30:29.2	91.190	-0.170	0.450	0.840
2020/01/31 05:30:29.3	91.180	-0.240	0.530	0.860
2020/01/31 05:30:29.4	91.160	-0.300	0.610	0.890
2020/01/31 05:30:29.5	91.150	-0.370	0.680	0.920
2020/01/31 05:30:29.6	91.130	-0.440	0.740	0.950
2020/01/31 05:30:29.7	91.110	-0.500	0.800	0.980
2020/01/31 05:30:29.8	91.090	-0.560	0.840	1.010
2020/01/31 05:30:29.9	91.070	-0.620	0.880	1.040
2020/01/31 05:30:30.0	91.050	-0.670	0.910	1.070
2020/01/31 05:30:30.1	91.030	-0.720	0.930	1.090
2020/01/31 05:30:30.2	91.010	-0.760	0.930	1.110
2020/01/31 05:30:30.3	90.990	-0.800	0.930	1.130
2020/01/31 05:30:30.4	90.970	-0.830	0.920	1.150
2020/01/31 05:30:30.5	90.960	-0.860	0.890	1.170
2020/01/31 05:30:30.6	90.940	-0.880	0.860	1.190
2020/01/31 05:30:30.7	90.930	-0.890	0.810	1.200
2020/01/31 05:30:30.8	90.910	-0.890	0.760	1.210
2020/01/31 05:30:30.9	90.900	-0.890	0.690	1.210
2020/01/31 05:30:31.0	90.890	-0.880	0.610	1.210
2020/01/31 05:30:31.1	90.880	-0.860	0.530	1.210
2020/01/31 05:30:31.2	90.880	-0.840	0.430	1.210
2020/01/31 05:30:31.3	90.880	-0.800	0.330	1.200
2020/01/31 05:30:31.4	90.870	-0.760	0.210	1.190
2020/01/31 05:30:31.5	90.870	-0.710	0.090	1.180
2020/01/31 05:30:31.6	90.880	-0.660	-0.030	1.160
2020/01/31 05:30:31.7	90.880	-0.590	-0.170	1.140
2020/01/31 05:30:31.8	90.890	-0.520	-0.300	1.120
2020/01/31 05:30:31.9	90.900	-0.450	-0.440	1.100
2020/01/31 05:30:32.0	90.910	-0.370	-0.580	1.070
2020/01/31 05:30:32.1	90.920	-0.280	-0.720	1.040
2020/01/31 05:30:32.2	90.930	-0.190	-0.860	1.010
2020/01/31 05:30:32.3	90.950	-0.100	-1.000	0.980
2020/01/31 05:30:32.4	90.960	-0.010	-1.130	0.950
2020/01/31 05:30:32.5	90.980	0.090	-1.260	0.910
2020/01/31 05:30:32.6	91.000	0.180	-1.370	0.880
2020/01/31 05:30:32.7	91.010	0.280	-1.480	0.840
2020/01/31 05:30:32.8	91.030	0.370	-1.580	0.810
2020/01/31 05:30:32.9	91.050	0.470	-1.670	0.780
2020/01/31 05:30:33.0	91.070	0.550	-1.740	0.750
2020/01/31 05:30:33.1	91.080	0.640	-1.800	0.720
2020/01/31 05:30:33.2	91.090	0.720	-1.850	0.690
2020/01/31 05:30:33.3	91.100	0.790	-1.880	0.660
2020/01/31 05:30:33.4	91.110	0.860	-1.890	0.640
2020/01/31 05:30:33.5	91.120	0.910	-1.880	0.620
2020/01/31 05:30:33.6	91.120	0.960	-1.860	0.600
2020/01/31 05:30:33.7	91.130	1.000	-1.820	0.590
2020/01/31 05:30:33.8	91.120	1.040	-1.760	0.580
2020/01/31 05:30:33.9	91.120	1.060	-1.680	0.570
2020/01/31 05:30:34.0	91.110	1.070	-1.590	0.570
2020/01/31 05:30:34.1	91.100	1.070	-1.490	0.570
2020/01/31 05:30:34.2	91.090	1.060	-1.370	0.570
2020/01/31 05:30:34.3	91.070	1.050	-1.230	0.580
2020/01/31 05:30:34.4	91.060	1.020	-1.090	0.580
2020/01/31 05:30:34.5	91.040	0.980	-0.940	0.590
2020/01/31 05:30:34.6	91.020	0.940	-0.770	0.610
2020/01/31 05:30:34.7	91.000	0.880	-0.610	0.620
2020/01/31 05:30:34.8	90.980	0.820	-0.430	0.630
2020/01/31 05:30:34.9	90.950	0.750	-0.260	0.650
2020/01/31 05:30:35.0	90.930	0.680	-0.080	0.660
2020/01/31 05:30:35.1	90.900	0.590	0.100	0.680
2020/01/31 05:30:35.2	90.880	0.510	0.280	0.690
2020/01/31 05:30:35.3	90.850	0.420	0.450	0.710
2020/01/31 05:30:35.4	90.830	0.330	0.620	0.720
2020/01/31 05:30:35.5	90.800	0.230	0.780	0.730
2020/01/31 05:30:35.6	90.780	0.140	0.930	0.740
2020/01/31 05:30:35.7	90.750	0.040	1.070	0.750
2020/01/31 05:30:35.8	90.730	-0.060	1.200	0.750
2020/01/31 05:30:35.9	90.710	-0.150	1.320	0.750
2020/01/31 05:30:36.0	90.690	-0.240	1.420	0.750
2020/01/31 05:30:36.1	90.680	-0.330	1.520	0.750
2020/01/31 05:30:36.2	90.670	-0.420	1.590	0.740
2020/01/31 05:30:36.3	90.660	-0.500	1.660	0.730
2020/01/31 05:30:36.4	90.650	-0.570	1.710	0.720
2020/01/31 05:30:36.5	90.640	-0.650	1.740	0.710
2020/01/31 05:30:36.6	90.640	-0.710	1.760	0.700
2020/01/31 05:30:36.7	90.640	-0.770	1.760	0.680
2020/01/31 05:30:36.8	90.640	-0.820	1.750	0.660
2020/01/31 05:30:36.9	90.640	-0.860	1.710	0.640
2020/01/31 05:30:37.0	90.650	-0.900	1.670	0.620
2020/01/31 05:30:37.1	90.660	-0.920	1.600	0.600
2020/01/31 05:30:37.2	90.670	-0.940	1.520	0.570
2020/01/31 05:30:37.3	90.680	-0.950	1.430	0.550
2020/01/31 05:30:37.4	90.700	-0.950	1.320	0.520
2020/01/31 05:30:37.5	90.710	-0.940	1.200	0.500
2020/01/31 05:30:37.6	90.730	-0.930	1.060	0.470
2020/01/31 05:30:37.7	90.760	-0.900	0.920	0.440
2020/01/31 05:30:37.8	90.780	-0.870	0.760	0.410
2020/01/31 05:30:37.9	90.800	-0.840	0.600	0.380
2020/01/31 05:30:38.0	90.830	-0.790	0.430	0.350
2020/01/31 05:30:38.1	90.860	-0.740	0.250	0.330
2020/01/31 05:30:38.2	90.890	-0.680	0.060	0.300
2020/01/31 05:30:38.3	90.920	-0.620	-0.120	0.270
2020/01/31 05:30:38.4	90.940	-0.560	-0.300	0.250
2020/01/31 05:30:38.5	90.970	-0.490	-0.490	0.230
2020/01/31 05:30:38.6	91.000	-0.410	-0.670	0.220
2020/01/31 05:30:38.7	91.020	-0.340	-0.840	0.200
2020/01/31 05:30:38.8	91.040	-0.260	-1.020	0.190
2020/01/31 05:30:38.9	91.060	-0.190	-1.180	0.190
2020/01/31 05:30:39.0	91.080	-0.110	-1.330	0.180
2020/01/31 05:30:39.1	91.100	-0.040	-1.470	0.180
2020/01/31 05:30:39.2	91.110	0.030	-1.610	0.190
2020/01/31 05:30:39.3	91.130	0.100	-1.720	0.200
2020/01/31 05:30:39.4	91.130	0.170	-1.820	0.210
2020/01/31 05:30:39.5	91.140	0.230	-1.900	0.230
2020/01/31 05:30:39.6	91.140	0.280	-1.970	0.260
2020/01/31 05:30:39.7	91.130	0.330	-2.020	0.280
2020/01/31 05:30:39.8	91.130	0.370	-2.050	0.320
2020/01/31 05:30:39.9	91.120	0.410	-2.060	0.350
2020/01/31 05:30:40.0	91.100	0.440	-2.050	0.390
2020/01/31 05:30:40.1	91.090	0.460	-2.020	0.440
2020/01/31 05:30:40.2	91.060	0.470	-1.980	0.490
2020/01/31 05:30:40.3	91.040	0.480	-1.920	0.540
2020/01/31 05:30:40.4	91.010	0.480	-1.840	0.590
2020/01/31 05:30:40.5	90.990	0.470	-1.750	0.640
2020/01/31 05:30:40.6	90.960	0.460	-1.640	0.700
2020/01/31 05:30:40.7	90.930	0.430	-1.520	0.750
2020/01/31 05:30:40.8	90.900	0.400	-1.380	0.810
2020/01/31 05:30:40.9	90.870	0.370	-1.240	0.870
2020/01/31 05:30:41.0	90.840	0.330	-1.090	0.920
2020/01/31 05:30:41.1	90.810	0.280	-0.930	0.980
2020/01/31 05:30:41.2	90.770	0.230	-0.760	1.040
2020/01/31 05:30:41.3	90.740	0.170	-0.590	1.090
2020/01/31 05:30:41.4	90.710	0.120	-0.420	1.140
2020/01/31 05:30:41.5	90.680	0.050	-0.250	1.180
2020/01/31 05:30:41.6	90.660	-0.010	-0.090	1.230
2020/01/31 05:30:41.7	90.630	-0.070	0.080	1.270
2020/01/31 05:30:41.8	90.610	-0.130	0.230	1.310
2020/01/31 05:30:41.9	90.590	-0.190	0.380	1.340
2020/01/31 05:30:42.0	90.570	-0.250	0.520	1.360
2020/01/31 05:30:42.1	90.550	-0.310	0.650	1.390
2020/01/31 05:30:42.2	90.540	-0.360	0.760	1.400
2020/01/31 05:30:42.3	90.530	-0.410	0.870	1.410
2020/01/31 05:30:42.4	90.520	-0.460	0.950	1.420
2020/01/31 05:30:42.5	90.520	-0.500	1.030	1.410
2020/01/31 05:30:42.6	90.520	-0.530	1.080	1.410
2020/01/31 05:30:42.7	90.520	-0.550	1.120	1.390
2020/01/31 05:30:42.8	90.530	-0.570	1.140	1.380
2020/01/31 05:30:42.9	90.540	-0.580	1.150	1.350
2020/01/31 05:30:43.0	90.550	-0.580	1.140	1.320
2020/01/31 05:30:43.1	90.570	-0.580	1.110	1.280
2020/01/31 05:30:43.2	90.590	-0.570	1.070	1.240
2020/01/31 05:30:43.3	90.610	-0.550	1.010	1.190
2020/01/31 05:30:43.4	90.630	-0.520	0.940	1.140
2020/01/31 05:30:43.5	90.660	-0.490	0.860	1.090
2020/01/31 05:30:43.6	90.680	-0.450	0.760	1.030
2020/01/31 05:30:43.7	90.710	-0.410	0.660	0.970
2020/01/31 05:30:43.8	90.730	-0.360	0.550	0.910
2020/01/31 05:30:43.9	90.760	-0.300	0.440	0.840
2020/01/31 05:30:44.0	90.780	-0.250	0.320	0.780
2020/01/31 05:30:44.1	90.800	-0.190	0.210	0.720
2020/01/31 05:30:44.2	90.820	-0.120	0.080	0.650
2020/01/31 05:30:44.3	90.840	-0.060	-0.040	0.590
2020/01/31 05:30:44.4	90.850	0.000	-0.150	0.530
2020/01/31 05:30:44.5	90.860	0.070	-0.260	0.480
2020/01/31 05:30:44.6	90.870	0.130	-0.360	0.430
2020/01/31 05:30:44.7	90.880	0.190	-0.460	0.380
2020/01/31 05:30:44.8	90.880	0.250	-0.550	0.330
2020/01/31 05:30:44.9	90.890	0.310	-0.630	0.290
2020/01/31 05:30:45.0	90.890	0.370	-0.700	0.250
2020/01/31 05:30:45.1	90.890	0.420	-0.750	0.210
2020/01/31 05:30:45.2	90.880	0.470	-0.800	0.180
2020/01/31 05:30:45.3	90.880	0.510	-0.840	0.160
2020/01/31 05:30:45.4	90.880	0.550	-0.870	0.140
2020/01/31 05:30:45.5	90.870	0.580	-0.880	0.120
2020/01/31 05:30:45.6	90.860	0.610	-0.890	0.110
2020/01/31 05:30:45.7	90.850	0.640	-0.890	0.110
2020/01/31 05:30:45.8	90.850	0.660	-0.880	0.110
2020/01/31 05:30:45.9	90.840	0.670	-0.860	0.110
2020/01/31 05:30:46.0	90.830	0.680	-0.830	0.110
2020/01/31 05:30:46.1	90.820	0.690	-0.800	0.120
2020/01/31 05:30:46.2	90.830	0.690	-0.770	0.130
2020/01/31 05:30:46.3	90.820	0.690	-0.720	0.150
2020/01/31 05:30:46.4	90.820	0.680	-0.680	0.160
2020/01/31 05:30:46.5	90.820	0.670	-0.630	0.170
2020/01/31 05:30:46.6	90.820	0.660	-0.590	0.190
2020/01/31 05:30:46.7	90.820	0.650	-0.540	0.200
2020/01/31 05:30:46.8	90.820	0.640	-0.500	0.220
2020/01/31 05:30:46.9	90.830	0.620	-0.450	0.240
2020/01/31 05:30:47.0	90.830	0.600	-0.410	0.260
2020/01/31 05:30:47.1	90.840	0.580	-0.370	0.270
2020/01/31 05:30:47.2	90.850	0.570	-0.330	0.290
2020/01/31 05:30:47.3	90.860	0.550	-0.300	0.310
2020/01/31 05:30:47.4	90.870	0.530	-0.270	0.330
2020/01/31 05:30:47.5	90.880	0.510	-0.250	0.340
2020/01/31 05:30:47.6	90.890	0.490	-0.230	0.360
2020/01/31 05:30:47.7	90.900	0.480	-0.210	0.370
2020/01/31 05:30:47.8	90.920	0.460	-0.200	0.380
2020/01/31 05:30:47.9	90.930	0.450	-0.190	0.390
2020/01/31 05:30:48.0	90.940	0.430	-0.190	0.400
2020/01/31 05:30:48.1	90.960	0.420	-0.180	0.410
2020/01/31 05:30:48.2	90.970	0.410	-0.190	0.410
2020/01/31 05:30:48.3	90.990	0.400	-0.190	0.420
2020/01/31 05:30:48.4	91.000	0.390	-0.200	0.420
2020/01/31 05:30:48.5	91.020	0.380	-0.200	0.420
2020/01/31 05:30:48.6	91.030	0.370	-0.210	0.420
2020/01/31 05:30:48.7	91.050	0.360	-0.220	0.420
2020/01/31 05:30:48.8	91.060	0.350	-0.230	0.430
2020/01/31 05:30:48.9	91.080	0.330	-0.240	0.430
2020/01/31 05:30:49.0	91.090	0.320	-0.250	0.430
2020/01/31 05:30:49.1	91.100	0.310	-0.250	0.440
2020/01/31 05:30:49.2	91.120	0.290	-0.260	0.440
2020/01/31 05:30:49.3	91.130	0.280	-0.260	0.460
2020/01/31 05:30:49.4	91.140	0.260	-0.250	0.470
2020/01/31 05:30:49.5	91.150	0.240	-0.250	0.490
2020/01/31 05:30:49.6	91.150	0.220	-0.240	0.510
2020/01/31 05:30:49.7	91.160	0.190	-0.230	0.530
2020/01/31 05:30:49.8	91.170	0.170	-0.220	0.560
2020/01/31 05:30:49.9	91.170	0.140	-0.200	0.590
2020/01/31 05:30:50.0	91.180	0.100	-0.180	0.620
2020/01/31 05:30:50.1	91.180	0.070	-0.160	0.650
2020/01/31 05:30:50.2	91.190	0.030	-0.130	0.690
2020/01/31 05:30:50.3	91.190	-0.010	-0.100	0.720
2020/01/31 05:30:50.4	91.190	-0.050	-0.070	0.760
2020/01/31 05:30:50.5	91.200	-0.090	-0.040	0.800
2020/01/31 05:30:50.6	91.200	-0.130	-0.010	0.850
2020/01/31 05:30:50.7	91.200	-0.180	0.030	0.890
2020/01/31 05:30:50.8	91.210	-0.230	0.060	0.930
2020/01/31 05:30:50.9	91.210	-0.270	0.100	0.970
2020/01/31 05:30:51.0	91.210	-0.320	0.140	1.000
2020/01/31 05:30:51.1	91.220	-0.370	0.170	1.040
2020/01/31 05:30:51.2	91.230	-0.420	0.210	1.070
2020/01/31 05:30:51.3	91.230	-0.470	0.240	1.110
2020/01/31 05:30:51.4	91.240	-0.520	0.270	1.140
2020/01/31 05:30:51.5	91.240	-0.560	0.300	1.160
2020/01/31 05:30:51.6	91.250	-0.610	0.330	1.190
2020/01/31 05:30:51.7	91.250	-0.650	0.360	1.210
2020/01/31 05:30:51.8	91.260	-0.700	0.380	1.230
2020/01/31 05:30:51.9	91.270	-0.730	0.400	1.250
2020/01/31 05:30:52.0	91.280	-0.770	0.410	1.270
2020/01/31 05:30:52.1	91.290	-0.800	0.430	1.280
2020/01/31 05:30:52.2	91.300	-0.830	0.430	1.280
2020/01/31 05:30:52.3	91.310	-0.860	0.440	1.290
2020/01/31 05:30:52.4	91.330	-0.880	0.430	1.300
2020/01/31 05:30:52.5	91.340	-0.900	0.430	1.300
2020/01/31 05:30:52.6	91.360	-0.920	0.410	1.300
2020/01/31 05:30:52.7	91.370	-0.930	0.400	1.290
2020/01/31 05:30:52.8	91.390	-0.930	0.370	1.290
2020/01/31 05:30:52.9	91.410	-0.930	0.350	1.280
2020/01/31 05:30:53.0	91.430	-0.930	0.310	1.270
2020/01/31 05:30:53.1	91.450	-0.920	0.280	1.260
2020/01/31 05:30:53.2	91.460	-0.910	0.230	1.240
2020/01/31 05:30:53.3	91.480	-0.900	0.180	1.230
2020/01/31 05:30:53.4	91.500	-0.880	0.130	1.210
2020/01/31 05:30:53.5	91.520	-0.850	0.070	1.190
2020/01/31 05:30:53.6	91.540	-0.830	0.010	1.170
2020/01/31 05:30:53.7	91.560	-0.790	-0.050	1.140
2020/01/31 05:30:53.8	91.570	-0.760	-0.120	1.120
2020/01/31 05:30:53.9	91.590	-0.720	-0.190	1.090
2020/01/31 05:30:54.0	91.600	-0.680	-0.260	1.070
2020/01/31 05:30:54.1	91.620	-0.630	-0.340	1.040
2020/01/31 05:30:54.2	91.630	-0.580	-0.420	1.010
2020/01/31 05:30:54.3	91.640	-0.530	-0.500	0.970
2020/01/31 05:30:54.4	91.650	-0.480	-0.580	0.940
2020/01/31 05:30:54.5	91.670	-0.420	-0.650	0.910
2020/01/31 05:30:54.6	91.680	-0.360	-0.730	0.880
2020/01/31 05:30:54.7	91.690	-0.300	-0.800	0.850
2020/01/31 05:30:54.8	91.700	-0.240	-0.870	0.820
2020/01/31 05:30:54.9	91.710	-0.180	-0.940	0.790
2020/01/31 05:30:55.0	91.710	-0.120	-1.000	0.770
2020/01/31 05:30:55.1	91.720	-0.060	-1.060	0.740
2020/01/31 05:30:55.2	91.730	0.000	-1.110	0.720
2020/01/31 05:30:55.3	91.740	0.060	-1.150	0.700
2020/01/31 05:30:55.4	91.740	0.120	-1.190	0.680
2020/01/31 05:30:55.5	91.740	0.180	-1.220	0.670
2020/01/31 05:30:55.6	91.750	0.230	-1.240	0.660
2020/01/31 05:30:55.7	91.750	0.290	-1.250	0.640
2020/01/31 05:30:55.8	91.740	0.330	-1.260	0.630
2020/01/31 05:30:55.9	91.740	0.380	-1.250	0.630
2020/01/31 05:30:56.0	91.740	0.420	-1.240	0.620
2020/01/31 05:30:56.1	91.730	0.460	-1.210	0.610
2020/01/31 05:30:56.2	91.720	0.500	-1.180	0.610
2020/01/31 05:30:56.3	91.710	0.520	-1.130	0.600
2020/01/31 05:30:56.4	91.690	0.550	-1.080	0.600
2020/01/31 05:30:56.5	91.680	0.570	-1.020	0.600
2020/01/31 05:30:56.6	91.670	0.580	-0.950	0.590
2020/01/31 05:30:56.7	91.650	0.590	-0.870	0.590
2020/01/31 05:30:56.8	91.630	0.590	-0.790	0.580
2020/01/31 05:30:56.9	91.610	0.590	-0.700	0.570
2020/01/31 05:30:57.0	91.590	0.590	-0.610	0.560
2020/01/31 05:30:57.1	91.570	0.570	-0.510	0.550
2020/01/31 05:30:57.2	91.550	0.560	-0.410	0.540
2020/01/31 05:30:57.3	91.530	0.540	-0.300	0.520
2020/01/31 05:30:57.4	91.510	0.520	-0.200	0.500
2020/01/31 05:30:57.5	91.490	0.490	-0.090	0.490
2020/01/31 05:30:57.6	91.470	0.470	0.010	0.470
2020/01/31 05:30:57.7	91.450	0.440	0.110	0.440
2020/01/31 05:30:57.8	91.430	0.400	0.210	0.420
2020/01/31 05:30:57.9	91.410	0.370	0.310	0.390
2020/01/31 05:30:58.0	91.400	0.340	0.400	0.370
2020/01/31 05:30:58.1	91.380	0.310	0.480	0.340
2020/01/31 05:30:58.2	91.370	0.270	0.560	0.300
2020/01/31 05:30:58.3	91.360	0.240	0.630	0.270
2020/01/31 05:30:58.4	91.360	0.220	0.690	0.240
2020/01/31 05:30:58.5	91.350	0.190	0.740	0.200
2020/01/31 05:30:58.6	91.350	0.170	0.780	0.160
2020/01/31 05:30:58.7	91.350	0.150	0.800	0.120
2020/01/31 05:30:58.8	91.360	0.140	0.820	0.080
2020/01/31 05:30:58.9	91.370	0.120	0.820	0.040
2020/01/31 05:30:59.0	91.380	0.120	0.820	-0.010
2020/01/31 05:30:59.1	91.400	0.120	0.800	-0.050
2020/01/31 05:30:59.2	91.420	0.120	0.780	-0.100
2020/01/31 05:30:59.3	91.440	0.130	0.740	-0.140
2020/01/31 05:30:59.4	91.460	0.140	0.690	-0.180
2020/01/31 05:30:59.5	91.490	0.160	0.630	-0.220
2020/01/31 05:30:59.6	91.510	0.180	0.570	-0.260
2020/01/31 05:30:59.7	91.540	0.200	0.490	-0.300
2020/01/31 05:30:59.8	91.570	0.230	0.410	-0.330
2020/01/31 05:30:59.9	91.600	0.260	0.330	-0.360
2020/01/31 05:31:00.0	91.630	0.290	0.240	-0.390
2020/01/31 05:31:00.1	91.670	0.330	0.150	-0.410
2020/01/31 05:31:00.2	91.700	0.370	0.040	-0.430
2020/01/31 05:31:00.3	91.730	0.400	-0.050	-0.450
2020/01/31 05:31:00.4	91.760	0.440	-0.150	-0.460
2020/01/31 05:31:00.5	91.800	0.480	-0.250	-0.470
2020/01/31 05:31:00.6	91.830	0.520	-0.350	-0.470
2020/01/31 05:31:00.7	91.850	0.560	-0.450	-0.470
2020/01/31 05:31:00.8	91.880	0.590	-0.540	-0.470
2020/01/31 05:31:00.9	91.910	0.620	-0.630	-0.460
2020/01/31 05:31:01.0	91.940	0.660	-0.710	-0.450
2020/01/31 05:31:01.1	91.960	0.680	-0.790	-0.430
2020/01/31 05:31:01.2	91.980	0.710	-0.860	-0.410
2020/01/31 05:31:01.3	92.000	0.730	-0.930	-0.390
2020/01/31 05:31:01.4	92.020	0.740	-0.990	-0.360
2020/01/31 05:31:01.5	92.040	0.750	-1.040	-0.320
2020/01/31 05:31:01.6	92.060	0.760	-1.080	-0.280
2020/01/31 05:31:01.7	92.070	0.760	-1.100	-0.240
2020/01/31 05:31:01.8	92.080	0.750	-1.120	-0.190
2020/01/31 05:31:01.9	92.080	0.740	-1.130	-0.130
2020/01/31 05:31:02.0	92.080	0.720	-1.120	-0.070
2020/01/31 05:31:02.1	92.080	0.690	-1.100	-0.000
2020/01/31 05:31:02.2	92.080	0.660	-1.070	0.060
2020/01/31 05:31:02.3	92.070	0.620	-1.030	0.130
2020/01/31 05:31:02.4	92.070	0.570	-0.980	0.210
2020/01/31 05:31:02.5	92.060	0.520	-0.910	0.280
2020/01/31 05:31:02.6	92.050	0.470	-0.840	0.360
2020/01/31 05:31:02.7	92.040	0.410	-0.760	0.430
2020/01/31 05:31:02.8	92.020	0.340	-0.670	0.510
2020/01/31 05:31:02.9	92.010	0.270	-0.570	0.590
2020/01/31 05:31:03.0	91.990	0.200	-0.460	0.660
2020/01/31 05:31:03.1	91.980	0.120	-0.350	0.730
2020/01/31 05:31:03.2	91.960	0.040	-0.230	0.810
2020/01/31 05:31:03.3	91.940	-0.040	-0.110	0.880
2020/01/31 05:31:03.4	91.920	-0.120	0.010	0.940
2020/01/31 05:31:03.5	91.900	-0.200	0.130	1.010
2020/01/31 05:31:03.6	91.880	-0.280	0.250	1.070
2020/01/31 05:31:03.7	91.870	-0.370	0.370	1.130
2020/01/31 05:31:03.8	91.850	-0.450	0.490	1.180
2020/01/31 05:31:03.9	91.830	-0.530	0.590	1.230
2020/01/31 05:31:04.0	91.820	-0.600	0.700	1.280
2020/01/31 05:31:04.1	91.810	-0.670	0.790	1.320
2020/01/31 05:31:04.2	91.790	-0.740	0.870	1.350
2020/01/31 05:31:04.3	91.780	-0.800	0.940	1.380
2020/01/31 05:31:04.4	91.780	-0.850	1.000	1.400
2020/01/31 05:31:04.5	91.770	-0.900	1.040	1.420
2020/01/31 05:31:04.6	91.760	-0.940	1.070	1.430
2020/01/31 05:31:04.7	91.760	-0.980	1.090	1.440
2020/01/31 05:31:04.8	91.750	-1.010	1.090	1.450
2020/01/31 05:31:04.9	91.750	-1.030	1.080	1.450
2020/01/31 05:31:05.0	91.750	-1.040	1.060	1.450
2020/01/31 05:31:05.1	91.740	-1.040	1.020	1.450
2020/01/31 05:31:05.2	91.740	-1.040	0.960	1.450
2020/01/31 05:31:05.3	91.740	-1.030	0.900	1.440
2020/01/31 05:31:05.4	91.740	-1.010	0.810	1.430
2020/01/31 05:31:05.5	91.740	-0.980	0.720	1.420
2020/01/31 05:31:05.6	91.740	-0.940	0.620	1.400
2020/01/31 05:31:05.7	91.740	-0.900	0.500	1.380
2020/01/31 05:31:05.8	91.750	-0.860	0.380	1.360
2020/01/31 05:31:05.9	91.750	-0.800	0.240	1.340
2020/01/31 05:31:06.0	91.760	-0.740	0.100	1.320
2020/01/31 05:31:06.1	91.760	-0.680	-0.040	1.290
2020/01/31 05:31:06.2	91.770	-0.610	-0.190	1.260
2020/01/31 05:31:06.3	91.780	-0.540	-0.340	1.230
2020/01/31 05:31:06.4	91.790	-0.460	-0.490	1.200
2020/01/31 05:31:06.5	91.800	-0.390	-0.640	1.170
2020/01/31 05:31:06.6	91.810	-0.310	-0.790	1.140
2020/01/31 05:31:06.7	91.820	-0.230	-0.940	1.110
2020/01/31 05:31:06.8	91.830	-0.150	-1.080	1.070
2020/01/31 05:31:06.9	91.840	-0.070	-1.210	1.040
2020/01/31 05:31:07.0	91.850	0.000	-1.330	1.010
2020/01/31 05:31:07.1	91.860	0.080	-1.450	0.980
2020/01/31 05:31:07.2	91.880	0.150	-1.560	0.950
2020/01/31 05:31:07.3	91.890	0.220	-1.650	0.910
2020/01/31 05:31:07.4	91.900	0.290	-1.740	0.880
2020/01/31 05:31:07.5	91.910	0.350	-1.810	0.850
2020/01/31 05:31:07.6	91.920	0.400	-1.860	0.820
2020/01/31 05:31:07.7	91.920	0.460	-1.900	0.790
2020/01/31 05:31:07.8	91.930	0.500	-1.930	0.760
2020/01/31 05:31:07.9	91.940	0.540	-1.940	0.740
2020/01/31 05:31:08.0	91.940	0.580	-1.930	0.710
2020/01/31 05:31:08.1	91.950	0.610	-1.900	0.690
2020/01/31 05:31:08.2	91.950	0.630	-1.860	0.660
2020/01/31 05:31:08.3	91.950	0.640	-1.800	0.650
2020/01/31 05:31:08.4	91.940	0.650	-1.720	0.630
2020/01/31 05:31:08.5	91.940	0.650	-1.620	0.620
2020/01/31 05:31:08.6	91.930	0.640	-1.510	0.610
2020/01/31 05:31:08.7	91.930	0.630	-1.390	0.600
2020/01/31 05:31:08.8	91.920	0.610	-1.250	0.590
2020/01/31 05:31:08.9	91.910	0.590	-1.100	0.590
2020/01/31 05:31:09.0	91.890	0.550	-0.940	0.590
2020/01/31 05:31:09.1	91.880	0.520	-0.770	0.590
2020/01/31 05:31:09.2	91.860	0.470	-0.590	0.590
2020/01/31 05:31:09.3	91.850	0.430	-0.410	0.590
2020/01/31 05:31:09.4	91.830	0.370	-0.220	0.590
2020/01/31 05:31:09.5	91.820	0.320	-0.030	0.590
2020/01/31 05:31:09.6	91.810	0.260	0.160	0.600
2020/01/31 05:31:09.7	91.790	0.190	0.340	0.600
2020/01/31 05:31:09.8	91.780	0.130	0.520	0.600
2020/01/31 05:31:09.9	91.770	0.060	0.700	0.600
2020/01/31 05:31:10.0	91.760	-0.010	0.870	0.600
2020/01/31 05:31:10.1	91.760	-0.080	1.030	0.600
2020/01/31 05:31:10.2	91.760	-0.140	1.170	0.600
2020/01/31 05:31:10.3	91.760	-0.210	1.310	0.590
2020/01/31 05:31:10.4	91.760	-0.270	1.430	0.590
2020/01/31 05:31:10.5	91.760	-0.330	1.530	0.580
2020/01/31 05:31:10.6	91.760	-0.390	1.620	0.570
2020/01/31 05:31:10.7	91.770	-0.440	1.690	0.550
2020/01/31 05:31:10.8	91.780	-0.490	1.740	0.540
2020/01/31 05:31:10.9	91.790	-0.540	1.770	0.520
2020/01/31 05:31:11.0	91.800	-0.570	1.780	0.500
2020/01/31 05:31:11.1	91.820	-0.600	1.770	0.480
2020/01/31 05:31:11.2	91.830	-0.630	1.740	0.450
2020/01/31 05:31:11.3	91.850	-0.640	1.690	0.420
2020/01/31 05:31:11.4	91.870	-0.650	1.630	0.390
2020/01/31 05:31:11.5	91.890	-0.650	1.540	0.360
2020/01/31 05:31:11.6	91.910	-0.650	1.440	0.330
2020/01/31 05:31:11.7	91.930	-0.640	1.320	0.300
2020/01/31 05:31:11.8	91.950	-0.620	1.200	0.270
2020/01/31 05:31:11.9	91.970	-0.590	1.050	0.240
2020/01/31 05:31:12.0	91.990	-0.560	0.900	0.210
2020/01/31 05:31:12.1	92.000	-0.530	0.740	0.180
2020/01/31 05:31:12.2	92.020	-0.490	0.570	0.150
2020/01/31 05:31:12.3	92.040	-0.440	0.400	0.120
2020/01/31 05:31:12.4	92.050	-0.390	0.230	0.100
2020/01/31 05:31:12.5	92.060	-0.340	0.050	0.080
2020/01/31 05:31:12.6	92.070	-0.280	-0.120	0.070
2020/01/31 05:31:12.7	92.080	-0.220	-0.300	0.050
2020/01/31 05:31:12.8	92.080	-0.160	-0.470	0.050
2020/01/31 05:31:12.9	92.090	-0.100	-0.630	0.040
2020/01/31 05:31:13.0	92.090	-0.030	-0.790	0.040
2020/01/31 05:31:13.1	92.090	0.030	-0.940	0.040
2020/01/31 05:31:13.2	92.090	0.100	-1.090	0.050
2020/01/31 05:31:13.3	92.090	0.160	-1.220	0.060
2020/01/31 05:31:13.4	92.090	0.220	-1.340	0.070
2020/01/31 05:31:13.5	92.080	0.280	-1.450	0.090
2020/01/31 05:31:13.6	92.080	0.330	-1.540	0.110
2020/01/31 05:31:13.7	92.070	0.390	-1.620	0.140
2020/01/31 05:31:13.8	92.070	0.440	-1.690	0.170
2020/01/31 05:31:13.9	92.070	0.480	-1.740	0.200
2020/01/31 05:31:14.0	92.060	0.520	-1.770	0.240
2020/01/31 05:31:14.1	92.060	0.560	-1.800	0.270
2020/01/31 05:31:14.2	92.060	0.590	-1.800	0.310
2020/01/31 05:31:14.3	92.050	0.620	-1.790	0.350
2020/01/31 05:31:14.4	92.050	0.640	-1.760	0.400
2020/01/31 05:31:14.5	92.050	0.660	-1.720	0.440
2020/01/31 05:31:14.6	92.040	0.670	-1.670	0.480
2020/01/31 05:31:14.7	92.040	0.680	-1.600	0.530
2020/01/31 05:31:14.8	92.040	0.680	-1.520	0.570
2020/01/31 05:31:14.9	92.040	0.680	-1.430	0.620
2020/01/31 05:31:15.0	92.040	0.670	-1.330	0.660
2020/01/31 05:31:15.1	92.050	0.650	-1.230	0.710
2020/01/31 05:31:15.2	92.050	0.630	-1.110	0.750
2020/01/31 05:31:15.3	92.050	0.610	-0.990	0.800
2020/01/31 05:31:15.4	92.060	0.590	-0.860	0.840
2020/01/31 05:31:15.5	92.070	0.560	-0.730	0.880
2020/01/31 05:31:15.6	92.080	0.520	-0.600	0.920
2020/01/31 05:31:15.7	92.080	0.490	-0.470	0.950
2020/01/31 05:31:15.8	92.090	0.450	-0.340	0.990
2020/01/31 05:31:15.9	92.110	0.410	-0.210	1.020
2020/01/31 05:31:16.0	92.120	0.360	-0.080	1.050
2020/01/31 05:31:16.1	92.130	0.320	0.040	1.080
2020/01/31 05:31:16.2	92.140	0.270	0.160	1.100
2020/01/31 05:31:16.3	92.150	0.230	0.270	1.120
2020/01/31 05:31:16.4	92.170	0.180	0.370	1.140
2020/01/31 05:31:16.5	92.180	0.140	0.460	1.160
2020/01/31 05:31:16.6	92.200	0.090	0.550	1.170
2020/01/31 05:31:16.7	92.210	0.050	0.620	1.180
2020/01/31 05:31:16.8	92.230	0.010	0.680	1.190
2020/01/31 05:31:16.9	92.250	-0.020	0.720	1.190
2020/01/31 05:31:17.0	92.270	-0.060	0.760	1.190
2020/01/31 05:31:17.1	92.280	-0.090	0.780	1.190
2020/01/31 05:31:17.2	92.300	-0.120	0.800	1.180
2020/01/31 05:31:17.3	92.320	-0.140	0.800	1.170
2020/01/31 05:31:17.4	92.340	-0.160	0.790	1.160
2020/01/31 05:31:17.5	92.360	-0.180	0.760	1.140
2020/01/31 05:31:17.6	92.380	-0.190	0.730	1.120
2020/01/31 05:31:17.7	92.400	-0.200	0.690	1.100
2020/01/31 05:31:17.8	92.420	-0.210	0.640	1.080
2020/01/31 05:31:17.9	92.440	-0.220	0.590	1.060
2020/01/31 05:31:18.0	92.460	-0.220	0.520	1.040
2020/01/31 05:31:18.1	92.480	-0.220	0.460	1.020
2020/01/31 05:31:18.2	92.490	-0.210	0.380	1.000
2020/01/31 05:31:18.3	92.500	-0.210	0.300	0.970
2020/01/31 05:31:18.4	92.520	-0.200	0.230	0.950
2020/01/31 05:31:18.5	92.530	-0.190	0.150	0.930
2020/01/31 05:31:18.6	92.540	-0.180	0.070	0.910
2020/01/31 05:31:18.7	92.540	-0.170	-0.000	0.900
2020/01/31 05:31:18.8	92.550	-0.160	-0.080	0.880
2020/01/31 05:31:18.9	92.550	-0.150	-0.150	0.860
2020/01/31 05:31:19.0	92.550	-0.140	-0.220	0.850
2020/01/31 05:31:19.1	92.550	-0.130	-0.290	0.840
2020/01/31 05:31:19.2	92.560	-0.120	-0.340	0.830
2020/01/31 05:31:19.3	92.560	-0.110	-0.400	0.820
2020/01/31 05:31:19.4	92.550	-0.100	-0.440	0.820
2020/01/31 05:31:19.5	92.550	-0.090	-0.490	0.810
2020/01/31 05:31:19.6	92.540	-0.080	-0.520	0.810
2020/01/31 05:31:19.7	92.540	-0.080	-0.550	0.810
2020/01/31 05:31:19.8	92.530	-0.070	-0.570	0.810
2020/01/31 05:31:19.9	92.530	-0.070	-0.580	0.810
2020/01/31 05:31:20.0	92.530	-0.070	-0.580	0.810
2020/01/31 05:31:20.1	92.520	-0.060	-0.580	0.810
2020/01/31 05:31:20.2	92.510	-0.060	-0.580	0.810
2020/01/31 05:31:20.3	92.510	-0.060	-0.560	0.800
2020/01/31 05:31:20.4	92.510	-0.070	-0.540	0.800
2020/01/31 05:31:20.5	92.520	-0.070	-0.520	0.790
2020/01/31 05:31:20.6	92.520	-0.070	-0.490	0.780
2020/01/31 05:31:20.7	92.530	-0.070	-0.450	0.760
2020/01/31 05:31:20.8	92.530	-0.080	-0.410	0.740
2020/01/31 05:31:20.9	92.540	-0.080	-0.370	0.730
2020/01/31 05:31:21.0	92.550	-0.080	-0.330	0.700
2020/01/31 05:31:21.1	92.570	-0.090	-0.290	0.680
2020/01/31 05:31:21.2	92.580	-0.090	-0.240	0.650
2020/01/31 05:31:21.3	92.600	-0.090	-0.190	0.610
2020/01/31 05:31:21.4	92.610	-0.090	-0.150	0.580
2020/01/31 05:31:21.5	92.630	-0.090	-0.110	0.540
2020/01/31 05:31:21.6	92.650	-0.090	-0.070	0.510
2020/01/31 05:31:21.7	92.660	-0.090	-0.030	0.470
2020/01/31 05:31:21.8	92.680	-0.090	0.000	0.430
2020/01/31 05:31:21.9	92.700	-0.090	0.030	0.400
2020/01/31 05:31:22.0	92.710	-0.090	0.050	0.360
2020/01/31 05:31:22.1	92.730	-0.080	0.070	0.330
2020/01/31 05:31:22.2	92.750	-0.070	0.090	0.290
2020/01/31 05:31:22.3	92.760	-0.060	0.100	0.270
2020/01/31 05:31:22.4	92.770	-0.050	0.100	0.240
2020/01/31 05:31:22.5	92.770	-0.040	0.100	0.210
2020/01/31 05:31:22.6	92.780	-0.030	0.090	0.190
2020/01/31 05:31:22.7	92.780	-0.020	0.070	0.170
2020/01/31 05:31:22.8	92.790	-0.000	0.050	0.150
2020/01/31 05:31:22.9	92.790	0.010	0.030	0.140
2020/01/31 05:31:23.0	92.790	0.030	0.000	0.120
2020/01/31 05:31:23.1	92.790	0.050	-0.030	0.110
2020/01/31 05:31:23.2	92.780	0.070	-0.070	0.100
2020/01/31 05:31:23.3	92.780	0.090	-0.110	0.090
2020/01/31 05:31:23.4	92.770	0.100	-0.150	0.090
2020/01/31 05:31:23.5	92.770	0.120	-0.200	0.080
2020/01/31 05:31:23.6	92.760	0.140	-0.240	0.080
2020/01/31 05:31:23.7	92.750	0.160	-0.290	0.080
2020/01/31 05:31:23.8	92.750	0.180	-0.330	0.080
2020/01/31 05:31:23.9	92.740	0.200	-0.380	0.080
2020/01/31 05:31:24.0	92.730	0.220	-0.420	0.090
2020/01/31 05:31:24.1	92.720	0.230	-0.470	0.100
2020/01/31 05:31:24.2	92.720	0.250	-0.510	0.110
2020/01/31 05:31:24.3	92.710	0.260	-0.550	0.130
2020/01/31 05:31:24.4	92.710	0.280	-0.590	0.150
2020/01/31 05:31:24.5	92.700	0.290	-0.620	0.170
2020/01/31 05:31:24.6	92.690	0.300	-0.650	0.190
2020/01/31 05:31:24.7	92.690	0.310	-0.670	0.220
2020/01/31 05:31:24.8	92.690	0.310	-0.690	0.250
2020/01/31 05:31:24.9	92.680	0.310	-0.710	0.280
2020/01/31 05:31:25.0	92.680	0.320	-0.720	0.310
2020/01/31 05:31:25.1	92.680	0.320	-0.720	0.340
2020/01/31 05:31:25.2	92.680	0.310	-0.720	0.370
2020/01/31 05:31:25.3	92.690	0.310	-0.710	0.410
2020/01/31 05:31:25.4	92.690	0.300	-0.700	0.440
2020/01/31 05:31:25.5	92.700	0.290	-0.680	0.470
2020/01/31 05:31:25.6	92.700	0.280	-0.660	0.490
2020/01/31 05:31:25.7	92.710	0.270	-0.640	0.520
2020/01/31 05:31:25.8	92.720	0.250	-0.600	0.550
2020/01/31 05:31:25.9	92.730	0.230	-0.570	0.570
2020/01/31 05:31:26.0	92.740	0.210	-0.530	0.590
2020/01/31 05:31:26.1	92.750	0.190	-0.490	0.610
2020/01/31 05:31:26.2	92.760	0.170	-0.450	0.620
2020/01/31 05:31:26.3	92.760	0.150	-0.400	0.640
2020/01/31 05:31:26.4	92.770	0.130	-0.350	0.650
2020/01/31 05:31:26.5	92.780	0.100	-0.310	0.670
2020/01/31 05:31:26.6	92.780	0.080	-0.260	0.680
2020/01/31 05:31:26.7	92.790	0.050	-0.210	0.700
2020/01/31 05:31:26.8	92.790	0.030	-0.160	0.710
2020/01/31 05:31:26.9	92.790	0.000	-0.120	0.720
2020/01/31 05:31:27.0	92.790	-0.020	-0.080	0.740
2020/01/31 05:31:27.1	92.790	-0.050	-0.040	0.750
2020/01/31 05:31:27.2	92.780	-0.070	-0.010	0.770
2020/01/31 05:31:27.3	92.780	-0.090	0.020	0.790
2020/01/31 05:31:27.4	92.780	-0.120	0.050	0.800
2020/01/31 05:31:27.5	92.770	-0.140	0.070	0.820
2020/01/31 05:31:27.6	92.770	-0.160	0.090	0.840
2020/01/31 05:31:27.7	92.760	-0.170	0.100	0.860
2020/01/31 05:31:27.8	92.760	-0.190	0.110	0.880
2020/01/31 05:31:27.9	92.760	-0.200	0.110	0.900
2020/01/31 05:31:28.0	92.750	-0.220	0.110	0.920
2020/01/31 05:31:28.1	92.750	-0.230	0.100	0.930
2020/01/31 05:31:28.2	92.760	-0.230	0.090	0.940
2020/01/31 05:31:28.3	92.760	-0.240	0.080	0.960
2020/01/31 05:31:28.4	92.760	-0.250	0.060	0.970
2020/01/31 05:31:28.5	92.770	-0.250	0.040	0.980
2020/01/31 05:31:28.6	92.770	-0.250	0.020	0.980
2020/01/31 05:31:28.7	92.780	-0.250	-0.010	0.990
2020/01/31 05:31:28.8	92.780	-0.250	-0.030	0.990
2020/01/31 05:31:28.9	92.790	-0.240	-0.060	0.980
2020/01/31 05:31:29.0	92.800	-0.240	-0.080	0.980
2020/01/31 05:31:29.1	92.810	-0.230	-0.100	0.970
2020/01/31 05:31:29.2	92.830	-0.220	-0.130	0.960
2020/01/31 05:31:29.3	92.840	-0.210	-0.150	0.950
2020/01/31 05:31:29.4	92.850	-0.200	-0.170	0.930
2020/01/31 05:31:29.5	92.860	-0.200	-0.180	0.920
2020/01/31 05:31:29.6	92.870	-0.190	-0.190	0.900
2020/01/31 05:31:29.7	92.870	-0.180	-0.190	0.880
2020/01/31 05:31:29.8	92.880	-0.160	-0.190	0.870
2020/01/31 05:31:29.9	92.890	-0.150	-0.190	0.850
2020/01/31 05:31:30.0	92.890	-0.140	-0.180	0.830
2020/01/31 05:31:30.1	92.900	-0.130	-0.170	0.820
2020/01/31 05:31:30.2	92.900	-0.120	-0.160	0.800
2020/01/31 05:31:30.3	92.900	-0.110	-0.140	0.790
2020/01/31 05:31:30.4	92.900	-0.100	-0.120	0.770
2020/01/31 05:31:30.5	92.900	-0.100	-0.100	0.760
2020/01/31 05:31:30.6	92.890	-0.090	-0.080	0.750
2020/01/31 05:31:30.7	92.890	-0.080	-0.060	0.740
2020/01/31 05:31:30.8	92.880	-0.070	-0.040	0.740
2020/01/31 05:31:30.9	92.870	-0.060	-0.020	0.730
2020/01/31 05:31:31.0	92.860	-0.060	0.000	0.720
2020/01/31 05:31:31.1	92.850	-0.050	0.020	0.720
2020/01/31 05:31:31.2	92.840	-0.040	0.040	0.710
2020/01/31 05:31:31.3	92.830	-0.030	0.050	0.700
2020/01/31 05:31:31.4	92.810	-0.020	0.060	0.700
2020/01/31 05:31:31.5	92.790	-0.020	0.060	0.690
2020/01/31 05:31:31.6	92.770	-0.010	0.060	0.690
2020/01/31 05:31:31.7	92.750	0.000	0.060	0.680
2020/01/31 05:31:31.8	92.730	0.010	0.050	0.670
2020/01/31 05:31:31.9	92.710	0.020	0.040	0.660
2020/01/31 05:31:32.0	92.680	0.030	0.030	0.650
2020/01/31 05:31:32.1	92.660	0.040	0.010	0.640
2020/01/31 05:31:32.2	92.640	0.050	-0.020	0.630
2020/01/31 05:31:32.3	92.610	0.060	-0.050	0.620
2020/01/31 05:31:32.4	92.590	0.070	-0.080	0.610
2020/01/31 05:31:32.5	92.560	0.080	-0.110	0.600
2020/01/31 05:31:32.6	92.530	0.100	-0.150	0.590
2020/01/31 05:31:32.7	92.510	0.110	-0.180	0.580
2020/01/31 05:31:32.8	92.490	0.120	-0.220	0.570
2020/01/31 05:31:32.9	92.460	0.130	-0.270	0.560
2020/01/31 05:31:33.0	92.440	0.140	-0.310	0.540
2020/01/31 05:31:33.1	92.420	0.160	-0.350	0.530
2020/01/31 05:31:33.2	92.400	0.170	-0.390	0.520
2020/01/31 05:31:33.3	92.390	0.180	-0.440	0.510
2020/01/31 05:31:33.4	92.380	0.190	-0.480	0.500
2020/01/31 05:31:33.5	92.370	0.200	-0.520	0.490
2020/01/31 05:31:33.6	92.360	0.210	-0.560	0.480
2020/01/31 05:31:33.7	92.360	0.220	-0.590	0.470
2020/01/31 05:31:33.8	92.370	0.230	-0.620	0.460
2020/01/31 05:31:33.9	92.370	0.230	-0.650	0.450
2020/01/31 05:31:34.0	92.380	0.240	-0.680	0.450
2020/01/31 05:31:34.1	92.390	0.240	-0.700	0.440
2020/01/31 05:31:34.2	92.400	0.240	-0.710	0.430
2020/01/31 05:31:34.3	92.420	0.240	-0.720	0.420
2020/01/31 05:31:34.4	92.440	0.240	-0.720	0.410
2020/01/31 05:31:34.5	92.460	0.240	-0.720	0.400
2020/01/31 05:31:34.6	92.490	0.230	-0.710	0.390
2020/01/31 05:31:34.7	92.510	0.220	-0.700	0.380
2020/01/31 05:31:34.8	92.540	0.210	-0.680	0.380
2020/01/31 05:31:34.9	92.570	0.200	-0.650	0.370
2020/01/31 05:31:35.0	92.600	0.180	-0.620	0.360
2020/01/31 05:31:35.1	92.630	0.160	-0.580	0.350
2020/01/31 05:31:35.2	92.670	0.140	-0.540	0.350
2020/01/31 05:31:35.3	92.700	0.120	-0.500	0.340
2020/01/31 05:31:35.4	92.730	0.090	-0.440	0.340
2020/01/31 05:31:35.5	92.750	0.060	-0.390	0.340
2020/01/31 05:31:35.6	92.780	0.030	-0.330	0.350
2020/01/31 05:31:35.7	92.800	0.000	-0.260	0.350
2020/01/31 05:31:35.8	92.830	-0.030	-0.200	0.360
2020/01/31 05:31:35.9	92.850	-0.060	-0.130	0.370
2020/01/31 05:31:36.0	92.860	-0.100	-0.060	0.390
2020/01/31 05:31:36.1	92.880	-0.130	0.000	0.410
2020/01/31 05:31:36.2	92.890	-0.170	0.070	0.440
2020/01/31 05:31:36.3	92.900	-0.200	0.140	0.460
2020/01/31 05:31:36.4	92.910	-0.240	0.200	0.490
2020/01/31 05:31:36.5	92.910	-0.270	0.250	0.530
2020/01/31 05:31:36.6	92.910	-0.300	0.310	0.570
2020/01/31 05:31:36.7	92.910	-0.330	0.360	0.610
2020/01/31 05:31:36.8	92.910	-0.360	0.400	0.660
2020/01/31 05:31:36.9	92.910	-0.390	0.440	0.700
2020/01/31 05:31:37.0	92.900	-0.410	0.460	0.750
2020/01/31 05:31:37.1	92.890	-0.430	0.490	0.800
2020/01/31 05:31:37.2	92.880	-0.450	0.500	0.850
2020/01/31 05:31:37.3	92.870	-0.460	0.510	0.900
2020/01/31 05:31:37.4	92.850	-0.470	0.510	0.950
2020/01/31 05:31:37.5	92.840	-0.480	0.490	1.000
2020/01/31 05:31:37.6	92.820	-0.480	0.470	1.050
2020/01/31 05:31:37.7	92.800	-0.480	0.450	1.100
2020/01/31 05:31:37.8	92.790	-0.470	0.410	1.140
2020/01/31 05:31:37.9	92.770	-0.460	0.370	1.190
2020/01/31 05:31:38.0	92.750	-0.450	0.320	1.230
2020/01/31 05:31:38.1	92.730	-0.430	0.270	1.270
2020/01/31 05:31:38.2	92.700	-0.410	0.200	1.300
2020/01/31 05:31:38.3	92.680	-0.380	0.140	1.340
2020/01/31 05:31:38.4	92.660	-0.350	0.070	1.370
2020/01/31 05:31:38.5	92.640	-0.320	-0.000	1.390
2020/01/31 05:31:38.6	92.610	-0.290	-0.080	1.410
2020/01/31 05:31:38.7	92.590	-0.250	-0.160	1.430
2020/01/31 05:31:38.8	92.560	-0.210	-0.230	1.450
2020/01/31 05:31:38.9	92.540	-0.170	-0.310	1.460
2020/01/31 05:31:39.0	92.510	-0.130	-0.390	1.470
2020/01/31 05:31:39.1	92.490	-0.090	-0.470	1.470
2020/01/31 05:31:39.2	92.460	-0.050	-0.540	1.460
2020/01/31 05:31:39.3	92.440	-0.000	-0.620	1.450
2020/01/31 05:31:39.4	92.420	0.040	-0.690	1.440
2020/01/31 05:31:39.5	92.390	0.090	-0.750	1.420
2020/01/31 05:31:39.6	92.370	0.130	-0.820	1.400
2020/01/31 05:31:39.7	92.350	0.180	-0.870	1.370
2020/01/31 05:31:39.8	92.330	0.220	-0.930	1.350
2020/01/31 05:31:39.9	92.320	0.270	-0.970	1.310
2020/01/31 05:31:40.0	92.300	0.310	-1.020	1.280
2020/01/31 05:31:40.1	92.280	0.350	-1.050	1.240
2020/01/31 05:31:40.2	92.270	0.390	-1.080	1.200
2020/01/31 05:31:40.3	92.260	0.430	-1.110	1.170
2020/01/31 05:31:40.4	92.250	0.460	-1.120	1.130
2020/01/31 05:31:40.5	92.240	0.500	-1.130	1.090
2020/01/31 05:31:40.6	92.230	0.530	-1.140	1.050
2020/01/31 05:31:40.7	92.230	0.560	-1.140	1.010
2020/01/31 05:31:40.8	92.220	0.580	-1.130	0.970
2020/01/31 05:31:40.9	92.220	0.610	-1.110	0.930
2020/01/31 05:31:41.0	92.220	0.630	-1.080	0.900
2020/01/31 05:31:41.1	92.220	0.640	-1.050	0.860
2020/01/31 05:31:41.2	92.210	0.650	-1.020	0.830
2020/01/31 05:31:41.3	92.210	0.660	-0.970	0.800
2020/01/31 05:31:41.4	92.210	0.670	-0.920	0.770
2020/01/31 05:31:41.5	92.200	0.670	-0.870	0.740
2020/01/31 05:31:41.6	92.200	0.670	-0.810	0.710
2020/01/31 05:31:41.7	92.200	0.660	-0.740	0.690
2020/01/31 05:31:41.8	92.200	0.650	-0.670	0.660
2020/01/31 05:31:41.9	92.200	0.640	-0.590	0.640
2020/01/31 05:31:42.0	92.200	0.620	-0.520	0.620
2020/01/31 05:31:42.1	92.190	0.600	-0.430	0.590
2020/01/31 05:31:42.2	92.200	0.570	-0.350	0.570
2020/01/31 05:31:42.3	92.190	0.540	-0.270	0.550
2020/01/31 05:31:42.4	92.190	0.510	-0.180	0.530
2020/01/31 05:31:42.5	92.180	0.470	-0.090	0.500
2020/01/31 05:31:42.6	92.180	0.430	-0.000	0.480
2020/01/31 05:31:42.7	92.170	0.390	0.080	0.460
2020/01/31 05:31:42.8	92.170	0.340	0.170	0.440
2020/01/31 05:31:42.9	92.160	0.300	0.250	0.420
2020/01/31 05:31:43.0	92.150	0.250	0.330	0.400
2020/01/31 05:31:43.1	92.150	0.200	0.410	0.380
2020/01/31 05:31:43.2	92.140	0.150	0.490	0.350
2020/01/31 05:31:43.3	92.140	0.090	0.560	0.340
2020/01/31 05:31:43.4	92.140	0.040	0.620	0.320
2020/01/31 05:31:43.5	92.140	-0.010	0.680	0.310
2020/01/31 05:31:43.6	92.130	-0.060	0.730	0.290
2020/01/31 05:31:43.7	92.130	-0.110	0.770	0.280
2020/01/31 05:31:43.8	92.140	-0.160	0.810	0.280
2020/01/31 05:31:43.9	92.140	-0.200	0.840	0.270
2020/01/31 05:31:44.0	92.140	-0.250	0.860	0.270
2020/01/31 05:31:44.1	92.150	-0.290	0.880	0.280
2020/01/31 05:31:44.2	92.150	-0.330	0.880	0.280
2020/01/31 05:31:44.3	92.160	-0.360	0.880	0.290
2020/01/31 05:31:44.4	92.170	-0.390	0.880	0.310
2020/01/31 05:31:44.5	92.170	-0.420	0.860	0.330
2020/01/31 05:31:44.6	92.180	-0.450	0.840	0.350
2020/01/31 05:31:44.7	92.190	-0.470	0.810	0.380
2020/01/31 05:31:44.8	92.190	-0.490	0.770	0.410
2020/01/31 05:31:44.9	92.200	-0.500	0.730	0.440
2020/01/31 05:31:45.0	92.210	-0.510	0.680	0.470
2020/01/31 05:31:45.1	92.210	-0.520	0.620	0.500
2020/01/31 05:31:45.2	92.220	-0.520	0.560	0.530
2020/01/31 05:31:45.3	92.230	-0.520	0.490	0.570
2020/01/31 05:31:45.4	92.230	-0.520	0.410	0.600
2020/01/31 05:31:45.5	92.240	-0.510	0.330	0.620
2020/01/31 05:31:45.6	92.250	-0.500	0.250	0.650
2020/01/31 05:31:45.7	92.260	-0.490	0.160	0.680
2020/01/31 05:31:45.8	92.280	-0.480	0.070	0.700
2020/01/31 05:31:45.9	92.290	-0.460	-0.030	0.720
2020/01/31 05:31:46.0	92.300	-0.440	-0.130	0.730
2020/01/31 05:31:46.1	92.310	-0.420	-0.220	0.750
2020/01/31 05:31:46.2	92.330	-0.400	-0.320	0.750
2020/01/31 05:31:46.3	92.340	-0.380	-0.420	0.760
2020/01/31 05:31:46.4	92.350	-0.350	-0.510	0.770
2020/01/31 05:31:46.5	92.370	-0.330	-0.610	0.780
2020/01/31 05:31:46.6	92.380	-0.300	-0.700	0.790
2020/01/31 05:31:46.7	92.400	-0.280	-0.780	0.790
2020/01/31 05:31:46.8	92.410	-0.250	-0.860	0.800
2020/01/31 05:31:46.9	92.420	-0.220	-0.940	0.810
2020/01/31 05:31:47.0	92.430	-0.200	-1.010	0.820
2020/01/31 05:31:47.1	92.430	-0.180	-1.070	0.840
2020/01/31 05:31:47.2	92.440	-0.150	-1.120	0.860
2020/01/31 05:31:47.3	92.440	-0.130	-1.160	0.870
2020/01/31 05:31:47.4	92.440	-0.120	-1.190	0.900
2020/01/31 05:31:47.5	92.430	-0.100	-1.210	0.920
2020/01/31 05:31:47.6	92.430	-0.080	-1.220	0.940
2020/01/31 05:31:47.7	92.420	-0.070	-1.220	0.970
2020/01/31 05:31:47.8	92.410	-0.060	-1.220	1.000
2020/01/31 05:31:47.9	92.390	-0.050	-1.190	1.030
2020/01/31 05:31:48.0	92.380	-0.050	-1.160	1.060
2020/01/31 05:31:48.1	92.360	-0.040	-1.120	1.100
2020/01/31 05:31:48.2	92.340	-0.040	-1.070	1.130
2020/01/31 05:31:48.3	92.320	-0.040	-1.020	1.160
2020/01/31 05:31:48.4	92.290	-0.050	-0.950	1.190
2020/01/31 05:31:48.5	92.270	-0.050	-0.880	1.220
2020/01/31 05:31:48.6	92.240	-0.060	-0.800	1.240
2020/01/31 05:31:48.7	92.220	-0.070	-0.720	1.270
2020/01/31 05:31:48.8	92.190	-0.080	-0.640	1.290
2020/01/31 05:31:48.9	92.170	-0.090	-0.550	1.300
2020/01/31 05:31:49.0	92.140	-0.110	-0.460	1.310
2020/01/31 05:31:49.1	92.120	-0.120	-0.370	1.320
2020/01/31 05:31:49.2	92.080	-0.140	-0.290	1.330
2020/01/31 05:31:49.3	92.060	-0.150	-0.200	1.320
2020/01/31 05:31:49.4	92.040	-0.160	-0.120	1.320
2020/01/31 05:31:49.5	92.020	-0.180	-0.050	1.310
2020/01/31 05:31:49.6	92.000	-0.190	0.030	1.290
2020/01/31 05:31:49.7	91.990	-0.200	0.090	1.270
2020/01/31 05:31:49.8	91.970	-0.210	0.150	1.250
2020/01/31 05:31:49.9	91.950	-0.220	0.210	1.220
2020/01/31 05:31:50.0	91.940	-0.230	0.250	1.200
2020/01/31 05:31:50.1	91.930	-0.240	0.290	1.160
2020/01/31 05:31:50.2	91.910	-0.240	0.320	1.130
2020/01/31 05:31:50.3	91.900	-0.250	0.350	1.090
2020/01/31 05:31:50.4	91.880	-0.250	0.360	1.060
2020/01/31 05:31:50.5	91.870	-0.240	0.370	1.020
2020/01/31 05:31:50.6	91.860	-0.240	0.370	0.990
2020/01/31 05:31:50.7	91.850	-0.230	0.360	0.950
2020/01/31 05:31:50.8	91.840	-0.220	0.350	0.920
2020/01/31 05:31:50.9	91.830	-0.210	0.330	0.880
2020/01/31 05:31:51.0	91.820	-0.200	0.310	0.850
2020/01/31 05:31:51.1	91.800	-0.180	0.270	0.810
2020/01/31 05:31:51.2	91.790	-0.170	0.240	0.780
2020/01/31 05:31:51.3	91.780	-0.150	0.200	0.740
2020/01/31 05:31:51.4	91.770	-0.130	0.160	0.700
2020/01/31 05:31:51.5	91.760	-0.100	0.110	0.670
2020/01/31 05:31:51.6	91.760	-0.080	0.070	0.630
2020/01/31 05:31:51.7	91.750	-0.050	0.020	0.590
2020/01/31 05:31:51.8	91.750	-0.030	-0.030	0.550
2020/01/31 05:31:51.9	91.750	-0.000	-0.080	0.510
2020/01/31 05:31:52.0	91.740	0.030	-0.130	0.470
2020/01/31 05:31:52.1	91.740	0.060	-0.180	0.430
2020/01/31 05:31:52.2	91.740	0.090	-0.230	0.390
2020/01/31 05:31:52.3	91.740	0.120	-0.280	0.350
2020/01/31 05:31:52.4	91.750	0.150	-0.330	0.310
2020/01/31 05:31:52.5	91.750	0.180	-0.370	0.270
2020/01/31 05:31:52.6	91.760	0.210	-0.410	0.230
2020/01/31 05:31:52.7	91.770	0.240	-0.450	0.200
2020/01/31 05:31:52.8	91.780	0.270	-0.490	0.160
2020/01/31 05:31:52.9	91.790	0.300	-0.530	0.130
2020/01/31 05:31:53.0	91.790	0.340	-0.570	0.110
2020/01/31 05:31:53.1	91.800	0.370	-0.600	0.080
2020/01/31 05:31:53.2	91.820	0.400	-0.630	0.060
2020/01/31 05:31:53.3	91.820	0.420	-0.650	0.040
2020/01/31 05:31:53.4	91.830	0.450	-0.680	0.030
2020/01/31 05:31:53.5	91.840	0.480	-0.700	0.030
2020/01/31 05:31:53.6	91.850	0.500	-0.720	0.030
2020/01/31 05:31:53.7	91.850	0.530	-0.730	0.030
2020/01/31 05:31:53.8	91.860	0.550	-0.740	0.040
2020/01/31 05:31:53.9	91.860	0.570	-0.750	0.060
2020/01/31 05:31:54.0	91.860	0.580	-0.750	0.070
2020/01/31 05:31:54.1	91.860	0.600	-0.740	0.100
2020/01/31 05:31:54.2	91.860	0.610	-0.730	0.130
2020/01/31 05:31:54.3	91.860	0.610	-0.720	0.150
2020/01/31 05:31:54.4	91.860	0.620	-0.700	0.180
2020/01/31 05:31:54.5	91.850	0.620	-0.670	0.220
2020/01/31 05:31:54.6	91.850	0.610	-0.640	0.250
2020/01/31 05:31:54.7	91.840	0.610	-0.600	0.280
2020/01/31 05:31:54.8	91.830	0.600	-0.560	0.310
2020/01/31 05:31:54.9	91.820	0.580	-0.510	0.340
2020/01/31 05:31:55.0	91.820	0.570	-0.460	0.370
2020/01/31 05:31:55.1	91.810	0.550	-0.400	0.400
2020/01/31 05:31:55.2	91.800	0.520	-0.350	0.430
2020/01/31 05:31:55.3	91.790	0.500	-0.280	0.460
2020/01/31 05:31:55.4	91.780	0.470	-0.220	0.490
2020/01/31 05:31:55.5	91.770	0.430	-0.150	0.510
2020/01/31 05:31:55.6	91.760	0.400	-0.080	0.540
2020/01/31 05:31:55.7	91.760	0.360	-0.010	0.560
2020/01/31 05:31:55.8	91.750	0.320	0.060	0.590
2020/01/31 05:31:55.9	91.750	0.280	0.120	0.610
2020/01/31 05:31:56.0	91.740	0.240	0.190	0.630
2020/01/31 05:31:56.1	91.740	0.190	0.250	0.650
2020/01/31 05:31:56.2	91.730	0.150	0.310	0.670
2020/01/31 05:31:56.3	91.730	0.100	0.360	0.690
2020/01/31 05:31:56.4	91.740	0.060	0.410	0.710
2020/01/31 05:31:56.5	91.740	0.010	0.450	0.730
2020/01/31 05:31:56.6	91.740	-0.030	0.480	0.760
2020/01/31 05:31:56.7	91.750	-0.070	0.510	0.780
2020/01/31 05:31:56.8	91.750	-0.110	0.530	0.800
2020/01/31 05:31:56.9	91.760	-0.150	0.540	0.820
2020/01/31 05:31:57.0	91.760	-0.190	0.540	0.840
2020/01/31 05:31:57.1	91.770	-0.230	0.540	0.870
2020/01/31 05:31:57.2	91.770	-0.260	0.530	0.890
2020/01/31 05:31:57.3	91.780	-0.290	0.520	0.910
2020/01/31 05:31:57.4	91.790	-0.320	0.490	0.930
2020/01/31 05:31:57.5	91.790	-0.350	0.460	0.950
2020/01/31 05:31:57.6	91.800	-0.370	0.430	0.970
2020/01/31 05:31:57.7	91.810	-0.390	0.390	0.990
2020/01/31 05:31:57.8	91.810	-0.410	0.340	1.010
2020/01/31 05:31:57.9	91.820	-0.420	0.290	1.030
2020/01/31 05:31:58.0	91.820	-0.430	0.240	1.050
2020/01/31 05:31:58.1	91.830	-0.440	0.180	1.060
2020/01/31 05:31:58.2	91.820	-0.450	0.130	1.080
2020/01/31 05:31:58.3	91.820	-0.450	0.060	1.090
2020/01/31 05:31:58.4	91.830	-0.450	-0.000	1.100
2020/01/31 05:31:58.5	91.830	-0.440	-0.070	1.110
2020/01/31 05:31:58.6	91.830	-0.430	-0.130	1.120
2020/01/31 05:31:58.7	91.820	-0.420	-0.200	1.120
2020/01/31 05:31:58.8	91.820	-0.410	-0.270	1.130
2020/01/31 05:31:58.9	91.820	-0.390	-0.340	1.130
2020/01/31 05:31:59.0	91.820	-0.370	-0.410	1.140
2020/01/31 05:31:59.1	91.820	-0.350	-0.470	1.140
2020/01/31 05:31:59.2	91.820	-0.320	-0.540	1.150
2020/01/31 05:31:59.3	91.820	-0.300	-0.610	1.150
2020/01/31 05:31:59.4	91.820	-0.270	-0.670	1.150
2020/01/31 05:31:59.5	91.810	-0.240	-0.730	1.160
2020/01/31 05:31:59.6	91.810	-0.200	-0.780	1.160
2020/01/31 05:31:59.7	91.810	-0.170	-0.830	1.170
2020/01/31 05:31:59.8	91.810	-0.140	-0.880	1.170
2020/01/31 05:31:59.9	91.800	-0.100	-0.920	1.180
2020/01/31 05:32:00.0	91.800	-0.070	-0.960	1.190
2020/01/31 05:32:00.1	91.800	-0.030	-0.990	1.200
2020/01/31 05:32:00.2	91.780	-0.000	-1.010	1.210
2020/01/31 05:32:00.3	91.780	0.030	-1.030	1.230
2020/01/31 05:32:00.4	91.770	0.060	-1.040	1.250
2020/01/31 05:32:00.5	91.760	0.080	-1.040	1.270
2020/01/31 05:32:00.6	91.750	0.110	-1.030	1.280
2020/01/31 05:32:00.7	91.730	0.130	-1.020	1.300
2020/01/31 05:32:00.8	91.710	0.140	-0.990	1.320
2020/01/31 05:32:00.9	91.700	0.160	-0.960	1.340
2020/01/31 05:32:01.0	91.680	0.160	-0.920	1.350
2020/01/31 05:32:01.1	91.660	0.170	-0.870	1.370
2020/01/31 05:32:01.2	91.630	0.170	-0.820	1.380
2020/01/31 05:32:01.3	91.610	0.160	-0.760	1.380
2020/01/31 05:32:01.4	91.590	0.160	-0.690	1.380
2020/01/31 05:32:01.5	91.560	0.140	-0.620	1.380
2020/01/31 05:32:01.6	91.540	0.130	-0.540	1.370
2020/01/31 05:32:01.7	91.510	0.110	-0.460	1.360
2020/01/31 05:32:01.8	91.480	0.080	-0.370	1.340
2020/01/31 05:32:01.9	91.460	0.060	-0.280	1.320
2020/01/31 05:32:02.0	91.430	0.030	-0.190	1.290
2020/01/31 05:32:02.1	91.400	-0.010	-0.090	1.250
2020/01/31 05:32:02.2	91.380	-0.040	0.000	1.210
2020/01/31 05:32:02.3	91.350	-0.080	0.100	1.170
2020/01/31 05:32:02.4	91.330	-0.120	0.190	1.130
2020/01/31 05:32:02.5	91.300	-0.150	0.280	1.080
2020/01/31 05:32:02.6	91.280	-0.190	0.360	1.030
2020/01/31 05:32:02.7	91.260	-0.230	0.440	0.980
2020/01/31 05:32:02.8	91.250	-0.260	0.520	0.920
2020/01/31 05:32:02.9	91.230	-0.300	0.580	0.870
2020/01/31 05:32:03.0	91.220	-0.330	0.650	0.810
2020/01/31 05:32:03.1	91.210	-0.360	0.700	0.750
2020/01/31 05:32:03.2	91.210	-0.390	0.740	0.690
2020/01/31 05:32:03.3	91.210	-0.410	0.780	0.630
2020/01/31 05:32:03.4	91.210	-0.430	0.800	0.580
2020/01/31 05:32:03.5	91.220	-0.450	0.820	0.520
2020/01/31 05:32:03.6	91.230	-0.460	0.820	0.460
2020/01/31 05:32:03.7	91.240	-0.470	0.820	0.400
2020/01/31 05:32:03.8	91.250	-0.470	0.800	0.340
2020/01/31 05:32:03.9	91.270	-0.470	0.780	0.280
2020/01/31 05:32:04.0	91.290	-0.460	0.740	0.220
2020/01/31 05:32:04.1	91.320	-0.450	0.690	0.170
2020/01/31 05:32:04.2	91.350	-0.440	0.630	0.110
2020/01/31 05:32:04.3	91.370	-0.420	0.570	0.060
2020/01/31 05:32:04.4	91.400	-0.390	0.490	0.010
2020/01/31 05:32:04.5	91.430	-0.370	0.410	-0.040
2020/01/31 05:32:04.6	91.450	-0.340	0.320	-0.090
2020/01/31 05:32:04.7	91.480	-0.300	0.230	-0.130
2020/01/31 05:32:04.8	91.510	-0.270	0.120	-0.170
2020/01/31 05:32:04.9	91.530	-0.230	0.020	-0.210
2020/01/31 05:32:05.0	91.550	-0.180	-0.090	-0.240
2020/01/31 05:32:05.1	91.580	-0.140	-0.200	-0.270
2020/01/31 05:32:05.2	91.600	-0.100	-0.310	-0.290
2020/01/31 05:32:05.3	91.620	-0.050	-0.420	-0.310
2020/01/31 05:32:05.4	91.640	-0.000	-0.530	-0.330
2020/01/31 05:32:05.5	91.660	0.040	-0.640	-0.340
2020/01/31 05:32:05.6	91.680	0.090	-0.740	-0.340
2020/01/31 05:32:05.7	91.700	0.130	-0.840	-0.350
2020/01/31 05:32:05.8	91.710	0.180	-0.930	-0.340
2020/01/31 05:32:05.9	91.720	0.220	-1.010	-0.330
2020/01/31 05:32:06.0	91.740	0.260	-1.090	-0.320
2020/01/31 05:32:06.1	91.750	0.300	-1.160	-0.300
2020/01/31 05:32:06.2	91.760	0.330	-1.210	-0.280
2020/01/31 05:32:06.3	91.770	0.370	-1.260	-0.250
2020/01/31 05:32:06.4	91.780	0.400	-1.290	-0.210
2020/01/31 05:32:06.5	91.790	0.420	-1.310	-0.170
2020/01/31 05:32:06.6	91.800	0.440	-1.330	-0.130
2020/01/31 05:32:06.7	91.800	0.460	-1.320	-0.080
2020/01/31 05:32:06.8	91.810	0.470	-1.310	-0.030
2020/01/31 05:32:06.9	91.810	0.480	-1.290	0.030
2020/01/31 05:32:07.0	91.810	0.490	-1.250	0.090
2020/01/31 05:32:07.1	91.810	0.490	-1.200	0.150
2020/01/31 05:32:07.2	91.820	0.490	-1.150	0.220
2020/01/31 05:32:07.3	91.820	0.480	-1.080	0.290
2020/01/31 05:32:07.4	91.810	0.470	-1.000	0.370
2020/01/31 05:32:07.5	91.810	0.450	-0.920	0.440
2020/01/31 05:32:07.6	91.800	0.430	-0.830	0.520
2020/01/31 05:32:07.7	91.790	0.400	-0.730	0.600
2020/01/31 05:32:07.8	91.780	0.380	-0.630	0.680
2020/01/31 05:32:07.9	91.760	0.350	-0.520	0.760
2020/01/31 05:32:08.0	91.750	0.310	-0.410	0.840
2020/01/31 05:32:08.1	91.730	0.270	-0.300	0.920
2020/01/31 05:32:08.2	91.710	0.240	-0.190	1.000
2020/01/31 05:32:08.3	91.680	0.190	-0.090	1.080
2020/01/31 05:32:08.4	91.660	0.150	0.020	1.150
2020/01/31 05:32:08.5	91.630	0.110	0.120	1.220
2020/01/31 05:32:08.6	91.600	0.070	0.210	1.290
2020/01/31 05:32:08.7	91.570	0.020	0.290	1.360
2020/01/31 05:32:08.8	91.540	-0.020	0.370	1.420
2020/01/31 05:32:08.9	91.510	-0.060	0.440	1.470
2020/01/31 05:32:09.0	91.480	-0.100	0.500	1.520
2020/01/31 05:32:09.1	91.450	-0.140	0.560	1.560
2020/01/31 05:32:09.2	91.420	-0.180	0.600	1.590
2020/01/31 05:32:09.3	91.390	-0.210	0.620	1.620
2020/01/31 05:32:09.4	91.360	-0.240	0.640	1.640
2020/01/31 05:32:09.5	91.330	-0.270	0.650	1.650
2020/01/31 05:32:09.6	91.300	-0.290	0.650	1.660
2020/01/31 05:32:09.7	91.280	-0.310	0.630	1.660
2020/01/31 05:32:09.8	91.260	-0.320	0.610	1.650
2020/01/31 05:32:09.9	91.240	-0.330	0.570	1.640
2020/01/31 05:32:10.0	91.220	-0.330	0.530	1.620
2020/01/31 05:32:10.1	91.200	-0.330	0.470	1.600
2020/01/31 05:32:10.2	91.180	-0.330	0.410	1.580
2020/01/31 05:32:10.3	91.170	-0.320	0.340	1.550
2020/01/31 05:32:10.4	91.160	-0.300	0.260	1.520
2020/01/31 05:32:10.5	91.150	-0.280	0.180	1.480
2020/01/31 05:32:10.6	91.150	-0.260	0.090	1.440
2020/01/31 05:32:10.7	91.140	-0.230	-0.000	1.400
2020/01/31 05:32:10.8	91.140	-0.190	-0.090	1.360
2020/01/31 05:32:10.9	91.140	-0.160	-0.190	1.320
2020/01/31 05:32:11.0	91.140	-0.120	-0.280	1.270
2020/01/31 05:32:11.1	91.150	-0.070	-0.370	1.230
2020/01/31 05:32:11.2	91.140	-0.030	-0.460	1.180
2020/01/31 05:32:11.3	91.150	0.020	-0.550	1.130
2020/01/31 05:32:11.4	91.160	0.070	-0.630	1.090
2020/01/31 05:32:11.5	91.170	0.110	-0.700	1.050
2020/01/31 05:32:11.6	91.180	0.160	-0.770	1.000
2020/01/31 05:32:11.7	91.190	0.210	-0.820	0.960
2020/01/31 05:32:11.8	91.200	0.260	-0.870	0.920
2020/01/31 05:32:11.9	91.210	0.300	-0.920	0.880
2020/01/31 05:32:12.0	91.220	0.350	-0.950	0.850
2020/01/31 05:32:12.1	91.240	0.390	-0.970	0.810
2020/01/31 05:32:12.2	91.240	0.430	-0.990	0.780
2020/01/31 05:32:12.3	91.260	0.470	-0.990	0.750
2020/01/31 05:32:12.4	91.270	0.500	-0.980	0.720
2020/01/31 05:32:12.5	91.280	0.530	-0.960	0.700
2020/01/31 05:32:12.6	91.300	0.550	-0.940	0.680
2020/01/31 05:32:12.7	91.310	0.570	-0.900	0.660
2020/01/31 05:32:12.8	91.320	0.590	-0.860	0.640
2020/01/31 05:32:12.9	91.330	0.600	-0.810	0.630
2020/01/31 05:32:13.0	91.340	0.600	-0.750	0.610
2020/01/31 05:32:13.1	91.350	0.600	-0.690	0.610
2020/01/31 05:32:13.2	91.360	0.600	-0.620	0.600
2020/01/31 05:32:13.3	91.360	0.590	-0.550	0.590
2020/01/31 05:32:13.4	91.370	0.570	-0.470	0.590
2020/01/31 05:32:13.5	91.380	0.550	-0.380	0.590
2020/01/31 05:32:13.6	91.380	0.530	-0.290	0.590
2020/01/31 05:32:13.7	91.390	0.500	-0.200	0.590
2020/01/31 05:32:13.8	91.390	0.460	-0.110	0.590
2020/01/31 05:32:13.9	91.400	0.420	-0.020	0.600
2020/01/31 05:32:14.0	91.400	0.380	0.070	0.600
2020/01/31 05:32:14.1	91.410	0.330	0.160	0.600
2020/01/31 05:32:14.2	91.420	0.290	0.260	0.610
2020/01/31 05:32:14.3	91.420	0.230	0.340	0.610
2020/01/31 05:32:14.4	91.420	0.180	0.420	0.620
2020/01/31 05:32:14.5	91.430	0.130	0.500	0.630
2020/01/31 05:32:14.6	91.430	0.070	0.570	0.630
2020/01/31 05:32:14.7	91.440	0.010	0.630	0.640
2020/01/31 05:32:14.8	91.440	-0.040	0.690	0.650
2020/01/31 05:32:14.9	91.450	-0.100	0.740	0.650
2020/01/31 05:32:15.0	91.460	-0.150	0.770	0.660
2020/01/31 05:32:15.1	91.470	-0.200	0.800	0.670
2020/01/31 05:32:15.2	91.480	-0.250	0.820	0.680
2020/01/31 05:32:15.3	91.490	-0.300	0.830	0.690
2020/01/31 05:32:15.4	91.500	-0.340	0.830	0.690
2020/01/31 05:32:15.5	91.510	-0.380	0.810	0.700
2020/01/31 05:32:15.6	91.530	-0.420	0.790	0.710
2020/01/31 05:32:15.7	91.550	-0.450	0.750	0.720
2020/01/31 05:32:15.8	91.560	-0.470	0.710	0.730
2020/01/31 05:32:15.9	91.580	-0.490	0.650	0.750
2020/01/31 05:32:16.0	91.600	-0.500	0.590	0.760
2020/01/31 05:32:16.1	91.620	-0.520	0.520	0.770
2020/01/31 05:32:16.2	91.650	-0.520	0.440	0.780
2020/01/31 05:32:16.3	91.670	-0.520	0.360	0.800
2020/01/31 05:32:16.4	91.690	-0.520	0.270	0.810
2020/01/31 05:32:16.5	91.710	-0.510	0.180	0.820
2020/01/31 05:32:16.6	91.730	-0.500	0.080	0.840
2020/01/31 05:32:16.7	91.750	-0.490	-0.010	0.850
2020/01/31 05:32:16.8	91.760	-0.480	-0.110	0.860
2020/01/31 05:32:16.9	91.780	-0.460	-0.200	0.880
2020/01/31 05:32:17.0	91.790	-0.440	-0.290	0.890
2020/01/31 05:32:17.1	91.800	-0.420	-0.380	0.900
2020/01/31 05:32:17.2	91.810	-0.400	-0.470	0.920
2020/01/31 05:32:17.3	91.820	-0.380	-0.550	0.930
2020/01/31 05:32:17.4	91.820	-0.360	-0.630	0.940
2020/01/31 05:32:17.5	91.820	-0.340	-0.700	0.950
2020/01/31 05:32:17.6	91.820	-0.320	-0.760	0.960
2020/01/31 05:32:17.7	91.820	-0.310	-0.820	0.970
2020/01/31 05:32:17.8	91.810	-0.290	-0.870	0.980
2020/01/31 05:32:17.9	91.810	-0.280	-0.910	0.990
2020/01/31 05:32:18.0	91.790	-0.260	-0.950	1.000
2020/01/31 05:32:18.1	91.780	-0.250	-0.980	1.010
2020/01/31 05:32:18.2	91.760	-0.240	-1.000	1.020
2020/01/31 05:32:18.3	91.750	-0.230	-1.010	1.040
2020/01/31 05:32:18.4	91.720	-0.220	-1.020	1.050
2020/01/31 05:32:18.5	91.700	-0.220	-1.020	1.070
2020/01/31 05:32:18.6	91.680	-0.210	-1.020	1.080
2020/01/31 05:32:18.7	91.660	-0.210	-1.010	1.100
2020/01/31 05:32:18.8	91.630	-0.200	-1.000	1.120
2020/01/31 05:32:18.9	91.610	-0.200	-0.980	1.130
2020/01/31 05:32:19.0	91.580	-0.200	-0.960	1.150
2020/01/31 05:32:19.1	91.560	-0.200	-0.930	1.160
2020/01/31 05:32:19.2	91.540	-0.200	-0.910	1.170
2020/01/31 05:32:19.3	91.520	-0.200	-0.880	1.180
2020/01/31 05:32:19.4	91.500	-0.200	-0.840	1.190
2020/01/31 05:32:19.5	91.490	-0.190	-0.810	1.200
2020/01/31 05:32:19.6	91.470	-0.190	-0.770	1.200
2020/01/31 05:32:19.7	91.460	-0.190	-0.740	1.200
2020/01/31 05:32:19.8	91.450	-0.180	-0.700	1.190
2020/01/31 05:32:19.9	91.440	-0.180	-0.660	1.190
2020/01/31 05:32:20.0	91.430	-0.170	-0.620	1.180
2020/01/31 05:32:20.1	91.420	-0.160	-0.590	1.170
2020/01/31 05:32:20.2	91.420	-0.150	-0.540	1.160
2020/01/31 05:32:20.3	91.420	-0.140	-0.500	1.140
2020/01/31 05:32:20.4	91.420	-0.130	-0.470	1.130
2020/01/31 05:32:20.5	91.420	-0.110	-0.430	1.110
2020/01/31 05:32:20.6	91.420	-0.100	-0.390	1.090
2020/01/31 05:32:20.7	91.420	-0.080	-0.360	1.070
2020/01/31 05:32:20.8	91.420	-0.060	-0.320	1.050
2020/01/31 05:32:20.9	91.420	-0.050	-0.290	1.030
2020/01/31 05:32:21.0	91.420	-0.030	-0.250	1.010
2020/01/31 05:32:21.1	91.410	-0.010	-0.220	0.980
2020/01/31 05:32:21.2	91.400	0.010	-0.190	0.960
2020/01/31 05:32:21.3	91.390	0.030	-0.150	0.940
2020/01/31 05:32:21.4	91.380	0.050	-0.120	0.920
2020/01/31 05:32:21.5	91.370	0.060	-0.080	0.900
2020/01/31 05:32:21.6	91.350	0.080	-0.050	0.870
2020/01/31 05:32:21.7	91.320	0.100	-0.020	0.850
2020/01/31 05:32:21.8	91.300	0.110	0.020	0.820
2020/01/31 05:32:21.9	91.270	0.120	0.050	0.800
2020/01/31 05:32:22.0	91.250	0.140	0.080	0.770
2020/01/31 05:32:22.1	91.220	0.150	0.110	0.740
2020/01/31 05:32:22.2	91.190	0.150	0.150	0.710
2020/01/31 05:32:22.3	91.150	0.160	0.180	0.670
2020/01/31 05:32:22.4	91.120	0.170	0.210	0.630
2020/01/31 05:32:22.5	91.090	0.170	0.240	0.590
2020/01/31 05:32:22.6	91.060	0.170	0.260	0.550
2020/01/31 05:32:22.7	91.030	0.170	0.290	0.510
2020/01/31 05:32:22.8	91.000	0.170	0.310	0.470
2020/01/31 05:32:22.9	90.970	0.170	0.330	0.420
2020/01/31 05:32:23.0	90.940	0.170	0.340	0.380
2020/01/31 05:32:23.1	90.920	0.170	0.360	0.340
2020/01/31 05:32:23.2	90.900	0.160	0.370	0.290
2020/01/31 05:32:23.3	90.880	0.160	0.370	0.250
2020/01/31 05:32:23.4	90.870	0.160	0.370	0.200
2020/01/31 05:32:23.5	90.860	0.150	0.370	0.160
2020/01/31 05:32:23.6	90.860	0.150	0.360	0.120
2020/01/31 05:32:23.7	90.850	0.150	0.350	0.080
2020/01/31 05:32:23.8	90.850	0.150	0.330	0.040
2020/01/31 05:32:23.9	90.860	0.150	0.300	0.010
2020/01/31 05:32:24.0	90.870	0.150	0.270	-0.030
2020/01/31 05:32:24.1	90.880	0.160	0.240	-0.060
2020/01/31 05:32:24.2	90.900	0.160	0.200	-0.090
2020/01/31 05:32:24.3	90.920	0.170	0.150	-0.120
2020/01/31 05:32:24.4	90.940	0.180	0.100	-0.150
2020/01/31 05:32:24.5	90.970	0.200	0.050	-0.170
2020/01/31 05:32:24.6	90.990	0.210	-0.010	-0.190
2020/01/31 05:32:24.7	91.020	0.230	-0.070	-0.210
2020/01/31 05:32:24.8	91.040	0.250	-0.140	-0.230
2020/01/31 05:32:24.9	91.070	0.260	-0.200	-0.240
2020/01/31 05:32:25.0	91.100	0.290	-0.270	-0.260
2020/01/31 05:32:25.1	91.130	0.310	-0.340	-0.270
2020/01/31 05:32:25.2	91.170	0.330	-0.400	-0.280
2020/01/31 05:32:25.3	91.200	0.350	-0.460	-0.280
2020/01/31 05:32:25.4	91.230	0.380	-0.520	-0.290
2020/01/31 05:32:25.5	91.250	0.400	-0.580	-0.290
2020/01/31 05:32:25.6	91.280	0.420	-0.630	-0.280
2020/01/31 05:32:25.7	91.310	0.440	-0.680	-0.270
2020/01/31 05:32:25.8	91.330	0.460	-0.720	-0.260
2020/01/31 05:32:25.9	91.350	0.480	-0.760	-0.250
2020/01/31 05:32:26.0	91.370	0.490	-0.790	-0.220
2020/01/31 05:32:26.1	91.390	0.500	-0.810	-0.200
2020/01/31 05:32:26.2	91.410	0.520	-0.830	-0.170
2020/01/31 05:32:26.3	91.420	0.520	-0.840	-0.130
2020/01/31 05:32:26.4	91.430	0.530	-0.840	-0.090
2020/01/31 05:32:26.5	91.430	0.530	-0.840	-0.040
2020/01/31 05:32:26.6	91.430	0.530	-0.820	0.010
2020/01/31 05:32:26.7	91.430	0.530	-0.800	0.060
2020/01/31 05:32:26.8	91.430	0.520	-0.770	0.120
2020/01/31 05:32:26.9	91.430	0.510	-0.740	0.190
2020/01/31 05:32:27.0	91.420	0.500	-0.700	0.260
2020/01/31 05:32:27.1	91.410	0.480	-0.650	0.330
2020/01/31 05:32:27.2	91.400	0.460	-0.600	0.410
2020/01/31 05:32:27.3	91.390	0.440	-0.540	0.490
2020/01/31 05:32:27.4	91.370	0.410	-0.480	0.580
2020/01/31 05:32:27.5	91.360	0.390	-0.410	0.660
2020/01/31 05:32:27.6	91.340	0.350	-0.350	0.750
2020/01/31 05:32:27.7	91.330	0.320	-0.280	0.830
2020/01/31 05:32:27.8	91.310	0.280	-0.210	0.920
2020/01/31 05:32:27.9	91.300	0.250	-0.140	1.010
2020/01/31 05:32:28.0	91.280	0.210	-0.070	1.090
2020/01/31 05:32:28.1	91.270	0.170	-0.010	1.180
2020/01/31 05:32:28.2	91.260	0.130	0.050	1.260
2020/01/31 05:32:28.3	91.240	0.080	0.110	1.340
2020/01/31 05:32:28.4	91.230	0.040	0.170	1.410
2020/01/31 05:32:28.5	91.220	-0.000	0.220	1.490
2020/01/31 05:32:28.6	91.220	-0.040	0.270	1.560
2020/01/31 05:32:28.7	91.210	-0.090	0.310	1.620
2020/01/31 05:32:28.8	91.200	-0.130	0.340	1.680
2020/01/31 05:32:28.9	91.200	-0.170	0.370	1.730
2020/01/31 05:32:29.0	91.200	-0.210	0.390	1.780
2020/01/31 05:32:29.1	91.190	-0.240	0.400	1.830
2020/01/31 05:32:29.2	91.190	-0.280	0.410	1.860
2020/01/31 05:32:29.3	91.190	-0.310	0.410	1.900
2020/01/31 05:32:29.4	91.190	-0.340	0.400	1.920
2020/01/31 05:32:29.5	91.190	-0.370	0.390	1.940
2020/01/31 05:32:29.6	91.190	-0.400	0.360	1.960
2020/01/31 05:32:29.7	91.190	-0.420	0.330	1.960
2020/01/31 05:32:29.8	91.190	-0.440	0.300	1.970
2020/01/31 05:32:29.9	91.200	-0.460	0.250	1.970
2020/01/31 05:32:30.0	91.200	-0.480	0.210	1.960
2020/01/31 05:32:30.1	91.200	-0.490	0.160	1.950
2020/01/31 05:32:30.2	91.190	-0.500	0.100	1.940
2020/01/31 05:32:30.3	91.190	-0.500	0.040	1.920
2020/01/31 05:32:30.4	91.190	-0.510	-0.020	1.900
2020/01/31 05:32:30.5	91.190	-0.510	-0.080	1.890
2020/01/31 05:32:30.6	91.190	-0.510	-0.140	1.860
2020/01/31 05:32:30.7	91.180	-0.500	-0.200	1.840
2020/01/31 05:32:30.8	91.180	-0.490	-0.260	1.820
2020/01/31 05:32:30.9	91.170	-0.490	-0.320	1.790
2020/01/31 05:32:31.0	91.170	-0.470	-0.380	1.770
2020/01/31 05:32:31.1	91.160	-0.460	-0.440	1.740
2020/01/31 05:32:31.2	91.150	-0.450	-0.490	1.720
2020/01/31 05:32:31.3	91.150	-0.430	-0.540	1.690
2020/01/31 05:32:31.4	91.140	-0.410	-0.580	1.660
2020/01/31 05:32:31.5	91.140	-0.390	-0.620	1.630
2020/01/31 05:32:31.6	91.130	-0.370	-0.660	1.600
2020/01/31 05:32:31.7	91.120	-0.350	-0.690	1.570
2020/01/31 05:32:31.8	91.120	-0.330	-0.720	1.540
2020/01/31 05:32:31.9	91.120	-0.310	-0.740	1.510
2020/01/31 05:32:32.0	91.110	-0.290	-0.760	1.480
2020/01/31 05:32:32.1	91.110	-0.270	-0.780	1.450
2020/01/31 05:32:32.2	91.110	-0.240	-0.780	1.420
2020/01/31 05:32:32.3	91.110	-0.220	-0.790	1.390
2020/01/31 05:32:32.4	91.110	-0.200	-0.790	1.350
2020/01/31 05:32:32.5	91.110	-0.180	-0.790	1.320
2020/01/31 05:32:32.6	91.120	-0.160	-0.790	1.290
2020/01/31 05:32:32.7	91.120	-0.140	-0.780	1.250
2020/01/31 05:32:32.8	91.120	-0.120	-0.770	1.220
2020/01/31 05:32:32.9	91.130	-0.100	-0.750	1.190
2020/01/31 05:32:33.0	91.130	-0.090	-0.730	1.150
2020/01/31 05:32:33.1	91.140	-0.070	-0.710	1.110
2020/01/31 05:32:33.2	91.140	-0.060	-0.680	1.080
2020/01/31 05:32:33.3	91.150	-0.050	-0.650	1.040
2020/01/31 05:32:33.4	91.160	-0.040	-0.620	1.000
2020/01/31 05:32:33.5	91.170	-0.030	-0.580	0.950
2020/01/31 05:32:33.6	91.180	-0.030	-0.540	0.910
2020/01/31 05:32:33.7	91.190	-0.020	-0.490	0.870
2020/01/31 05:32:33.8	91.200	-0.020	-0.450	0.820
2020/01/31 05:32:33.9	91.210	-0.020	-0.400	0.780
2020/01/31 05:32:34.0	91.230	-0.030	-0.340	0.740
2020/01/31 05:32:34.1	91.240	-0.030	-0.290	0.690
2020/01/31 05:32:34.2	91.250	-0.040	-0.230	0.650
2020/01/31 05:32:34.3	91.260	-0.050	-0.170	0.610
2020/01/31 05:32:34.4	91.280	-0.060	-0.110	0.580
2020/01/31 05:32:34.5	91.290	-0.070	-0.040	0.540
2020/01/31 05:32:34.6	91.300	-0.080	0.020	0.510
2020/01/31 05:32:34.7	91.310	-0.090	0.080	0.480
2020/01/31 05:32:34.8	91.320	-0.110	0.140	0.450
2020/01/31 05:32:34.9	91.330	-0.120	0.200	0.430
2020/01/31 05:32:35.0	91.330	-0.130	0.260	0.410
2020/01/31 05:32:35.1	91.340	-0.150	0.310	0.390
2020/01/31 05:32:35.2	91.350	-0.160	0.360	0.370
2020/01/31 05:32:35.3	91.350	-0.170	0.410	0.360
2020/01/31 05:32:35.4	91.340	-0.180	0.450	0.350
2020/01/31 05:32:35.5	91.340	-0.190	0.490	0.340
2020/01/31 05:32:35.6	91.330	-0.200	0.520	0.340
2020/01/31 05:32:35.7	91.320	-0.210	0.540	0.340
2020/01/31 05:32:35.8	91.310	-0.210	0.550	0.350
2020/01/31 05:32:35.9	91.300	-0.210	0.560	0.350
2020/01/31 05:32:36.0	91.290	-0.210	0.560	0.360
2020/01/31 05:32:36.1	91.270	-0.210	0.550	0.370
2020/01/31 05:32:36.2	91.260	-0.200	0.530	0.370
2020/01/31 05:32:36.3	91.240	-0.190	0.500	0.380
2020/01/31 05:32:36.4	91.220	-0.180	0.470	0.390
2020/01/31 05:32:36.5	91.210	-0.170	0.430	0.400
2020/01/31 05:32:36.6	91.190	-0.150	0.380	0.400
2020/01/31 05:32:36.7	91.170	-0.130	0.320	0.410
2020/01/31 05:32:36.8	91.160	-0.110	0.250	0.410
2020/01/31 05:32:36.9	91.150	-0.090	0.180	0.410
2020/01/31 05:32:37.0	91.140	-0.060	0.110	0.410
2020/01/31 05:32:37.1	91.130	-0.030	0.030	0.400
2020/01/31 05:32:37.2	91.120	-0.000	-0.060	0.400
2020/01/31 05:32:37.3	91.110	0.030	-0.150	0.390
2020/01/31 05:32:37.4	91.110	0.060	-0.240	0.390
2020/01/31 05:32:37.5	91.110	0.100	-0.330	0.380
2020/01/31 05:32:37.6	91.110	0.130	-0.420	0.370
2020/01/31 05:32:37.7	91.120	0.170	-0.510	0.370
2020/01/31 05:32:37.8	91.130	0.210	-0.600	0.360
2020/01/31 05:32:37.9	91.140	0.250	-0.690	0.360
2020/01/31 05:32:38.0	91.150	0.280	-0.770	0.360
2020/01/31 05:32:38.1	91.170	0.320	-0.840	0.360
2020/01/31 05:32:38.2	91.190	0.360	-0.920	0.350
2020/01/31 05:32:38.3	91.210	0.390	-0.980	0.360
2020/01/31 05:32:38.4	91.240	0.430	-1.030	0.360
2020/01/31 05:32:38.5	91.260	0.460	-1.080	0.360
2020/01/31 05:32:38.6	91.290	0.490	-1.120	0.370
2020/01/31 05:32:38.7	91.320	0.520	-1.140	0.380
2020/01/31 05:32:38.8	91.350	0.540	-1.160	0.390
2020/01/31 05:32:38.9	91.380	0.570	-1.160	0.400
2020/01/31 05:32:39.0	91.410	0.580	-1.160	0.410
2020/01/31 05:32:39.1	91.440	0.600	-1.140	0.430
2020/01/31 05:32:39.2	91.480	0.610	-1.110	0.440
2020/01/31 05:32:39.3	91.510	0.620	-1.080	0.450
2020/01/31 05:32:39.4	91.540	0.630	-1.030	0.470
2020/01/31 05:32:39.5	91.570	0.630	-0.980	0.480
2020/01/31 05:32:39.6	91.600	0.630	-0.920	0.490
2020/01/31 05:32:39.7	91.630	0.620	-0.860	0.500
2020/01/31 05:32:39.8	91.650	0.610	-0.780	0.510
2020/01/31 05:32:39.9	91.680	0.600	-0.710	0.520
2020/01/31 05:32:40.0	91.700	0.580	-0.630	0.530
2020/01/31 05:32:40.1	91.720	0.560	-0.540	0.540
2020/01/31 05:32:40.2	91.730	0.540	-0.460	0.550
2020/01/31 05:32:40.3	91.740	0.520	-0.370	0.570
2020/01/31 05:32:40.4	91.750	0.490	-0.290	0.580
2020/01/31 05:32:40.5	91.760	0.460	-0.200	0.590
2020/01/31 05:32:40.6	91.760	0.430	-0.120	0.610
2020/01/31 05:32:40.7	91.760	0.390	-0.040	0.630
2020/01/31 05:32:40.8	91.750	0.360	0.040	0.650
2020/01/31 05:32:40.9	91.750	0.320	0.110	0.680
2020/01/31 05:32:41.0	91.740	0.290	0.180	0.710
2020/01/31 05:32:41.1	91.720	0.250	0.240	0.740
2020/01/31 05:32:41.2	91.700	0.210	0.300	0.770
2020/01/31 05:32:41.3	91.680	0.180	0.350	0.800
2020/01/31 05:32:41.4	91.660	0.140	0.390	0.840
2020/01/31 05:32:41.5	91.640	0.100	0.440	0.880
2020/01/31 05:32:41.6	91.610	0.060	0.470	0.920
2020/01/31 05:32:41.7	91.590	0.030	0.500	0.960
2020/01/31 05:32:41.8	91.560	-0.010	0.520	1.000
2020/01/31 05:32:41.9	91.530	-0.040	0.540	1.040
2020/01/31 05:32:42.0	91.510	-0.070	0.550	1.070
2020/01/31 05:32:42.1	91.480	-0.100	0.550	1.110
2020/01/31 05:32:42.2	91.450	-0.140	0.560	1.140
2020/01/31 05:32:42.3	91.430	-0.160	0.560	1.170
2020/01/31 05:32:42.4	91.400	-0.190	0.550	1.190
2020/01/31 05:32:42.5	91.380	-0.220	0.540	1.210
2020/01/31 05:32:42.6	91.370	-0.240	0.530	1.220
2020/01/31 05:32:42.7	91.350	-0.270	0.510	1.230
2020/01/31 05:32:42.8	91.340	-0.290	0.490	1.230
2020/01/31 05:32:42.9	91.330	-0.310	0.460	1.230
2020/01/31 05:32:43.0	91.320	-0.330	0.430	1.220
2020/01/31 05:32:43.1	91.320	-0.340	0.400	1.210
2020/01/31 05:32:43.2	91.320	-0.350	0.350	1.190
2020/01/31 05:32:43.3	91.320	-0.360	0.310	1.160
2020/01/31 05:32:43.4	91.330	-0.370	0.270	1.140
2020/01/31 05:32:43.5	91.340	-0.370	0.220	1.110
2020/01/31 05:32:43.6	91.350	-0.380	0.170	1.070
2020/01/31 05:32:43.7	91.360	-0.370	0.120	1.040
2020/01/31 05:32:43.8	91.380	-0.370	0.060	1.000
2020/01/31 05:32:43.9	91.400	-0.360	-0.000	0.960
2020/01/31 05:32:44.0	91.420	-0.350	-0.070	0.920
2020/01/31 05:32:44.1	91.440	-0.330	-0.130	0.880
2020/01/31 05:32:44.2	91.470	-0.310	-0.200	0.840
2020/01/31 05:32:44.3	91.500	-0.290	-0.270	0.800
2020/01/31 05:32:44.4	91.520	-0.270	-0.350	0.770
2020/01/31 05:32:44.5	91.550	-0.240	-0.420	0.730
2020/01/31 05:32:44.6	91.580	-0.210	-0.500	0.700
2020/01/31 05:32:44.7	91.610	-0.170	-0.580	0.680
2020/01/31 05:32:44.8	91.630	-0.140	-0.650	0.650
2020/01/31 05:32:44.9	91.660	-0.100	-0.720	0.630
2020/01/31 05:32:45.0	91.690	-0.060	-0.790	0.620
2020/01/31 05:32:45.1	91.710	-0.020	-0.860	0.610
2020/01/31 05:32:45.2	91.750	0.020	-0.930	0.600
2020/01/31 05:32:45.3	91.770	0.060	-0.980	0.590
2020/01/31 05:32:45.4	91.780	0.100	-1.030	0.590
2020/01/31 05:32:45.5	91.790	0.130	-1.070	0.600
2020/01/31 05:32:45.6	91.810	0.170	-1.110	0.600
2020/01/31 05:32:45.7	91.810	0.200	-1.130	0.610
2020/01/31 05:32:45.8	91.820	0.230	-1.140	0.620
2020/01/31 05:32:45.9	91.820	0.250	-1.150	0.630
2020/01/31 05:32:46.0	91.820	0.270	-1.140	0.650
2020/01/31 05:32:46.1	91.810	0.290	-1.130	0.660
2020/01/31 05:32:46.2	91.800	0.300	-1.110	0.680
2020/01/31 05:32:46.3	91.790	0.300	-1.070	0.700
2020/01/31 05:32:46.4	91.780	0.300	-1.030	0.720
2020/01/31 05:32:46.5	91.760	0.290	-0.980	0.740
2020/01/31 05:32:46.6	91.750	0.280	-0.910	0.760
2020/01/31 05:32:46.7	91.730	0.260	-0.840	0.780
2020/01/31 05:32:46.8	91.700	0.230	-0.770	0.810
2020/01/31 05:32:46.9	91.680	0.200	-0.680	0.840
2020/01/31 05:32:47.0	91.660	0.170	-0.600	0.870
2020/01/31 05:32:47.1	91.630	0.130	-0.500	0.900
2020/01/31 05:32:47.2	91.600	0.080	-0.400	0.930
2020/01/31 05:32:47.3	91.580	0.030	-0.300	0.970
2020/01/31 05:32:47.4	91.550	-0.020	-0.200	1.010
2020/01/31 05:32:47.5	91.520	-0.080	-0.090	1.050
2020/01/31 05:32:47.6	91.500	-0.140	0.010	1.090
2020/01/31 05:32:47.7	91.470	-0.200	0.110	1.130
2020/01/31 05:32:47.8	91.450	-0.270	0.220	1.170
2020/01/31 05:32:47.9	91.420	-0.330	0.320	1.200
2020/01/31 05:32:48.0	91.400	-0.400	0.410	1.240
2020/01/31 05:32:48.1	91.370	-0.470	0.500	1.270
2020/01/31 05:32:48.2	91.350	-0.530	0.590	1.300
2020/01/31 05:32:48.3	91.330	-0.590	0.670	1.330
2020/01/31 05:32:48.4	91.300	-0.660	0.740	1.350
2020/01/31 05:32:48.5	91.280	-0.720	0.810	1.370
2020/01/31 05:32:48.6	91.270	-0.770	0.860	1.380
2020/01/31 05:32:48.7	91.250	-0.820	0.910	1.390
2020/01/31 05:32:48.8	91.230	-0.870	0.950	1.390
2020/01/31 05:32:48.9	91.220	-0.910	0.970	1.390
2020/01/31 05:32:49.0	91.210	-0.950	0.990	1.380
2020/01/31 05:32:49.1	91.190	-0.980	0.990	1.370
2020/01/31 05:32:49.2	91.190	-1.000	0.990	1.340
2020/01/31 05:32:49.3	91.180	-1.020	0.970	1.320
2020/01/31 05:32:49.4	91.180	-1.030	0.940	1.290
2020/01/31 05:32:49.5	91.170	-1.030	0.890	1.250
2020/01/31 05:32:49.6	91.170	-1.030	0.840	1.220
2020/01/31 05:32:49.7	91.170	-1.010	0.770	1.180
2020/01/31 05:32:49.8	91.170	-0.990	0.700	1.140
2020/01/31 05:32:49.9	91.170	-0.960	0.610	1.090
2020/01/31 05:32:50.0	91.180	-0.930	0.510	1.050
2020/01/31 05:32:50.1	91.180	-0.880	0.400	1.000
2020/01/31 05:32:50.2	91.190	-0.830	0.280	0.950
2020/01/31 05:32:50.3	91.200	-0.770	0.150	0.910
2020/01/31 05:32:50.4	91.210	-0.700	0.020	0.860
2020/01/31 05:32:50.5	91.220	-0.630	-0.120	0.810
2020/01/31 05:32:50.6	91.230	-0.550	-0.260	0.770
2020/01/31 05:32:50.7	91.250	-0.460	-0.410	0.730
2020/01/31 05:32:50.8	91.260	-0.370	-0.560	0.690
2020/01/31 05:32:50.9	91.280	-0.270	-0.710	0.650
2020/01/31 05:32:51.0	91.290	-0.170	-0.860	0.610
2020/01/31 05:32:51.1	91.310	-0.070	-1.010	0.580
2020/01/31 05:32:51.2	91.320	0.030	-1.150	0.550
2020/01/31 05:32:51.3	91.330	0.130	-1.280	0.520
2020/01/31 05:32:51.4	91.340	0.240	-1.410	0.500
2020/01/31 05:32:51.5	91.350	0.340	-1.520	0.490
2020/01/31 05:32:51.6	91.360	0.440	-1.620	0.470
2020/01/31 05:32:51.7	91.360	0.530	-1.710	0.460
2020/01/31 05:32:51.8	91.360	0.630	-1.780	0.460
2020/01/31 05:32:51.9	91.360	0.710	-1.840	0.450
2020/01/31 05:32:52.0	91.350	0.790	-1.870	0.450
2020/01/31 05:32:52.1	91.350	0.860	-1.890	0.450
2020/01/31 05:32:52.2	91.330	0.930	-1.890	0.460
2020/01/31 05:32:52.3	91.320	0.990	-1.880	0.460
2020/01/31 05:32:52.4	91.300	1.040	-1.840	0.460
2020/01/31 05:32:52.5	91.290	1.080	-1.790	0.470
2020/01/31 05:32:52.6	91.270	1.110	-1.720	0.470
2020/01/31 05:32:52.7	91.250	1.140	-1.640	0.480
2020/01/31 05:32:52.8	91.220	1.150	-1.530	0.480
2020/01/31 05:32:52.9	91.190	1.150	-1.420	0.490
2020/01/31 05:32:53.0	91.160	1.150	-1.290	0.500
2020/01/31 05:32:53.1	91.130	1.140	-1.150	0.500
2020/01/31 05:32:53.2	91.100	1.110	-0.990	0.510
2020/01/31 05:32:53.3	91.060	1.080	-0.830	0.520
2020/01/31 05:32:53.4	91.030	1.050	-0.670	0.530
2020/01/31 05:32:53.5	90.990	1.000	-0.490	0.540
2020/01/31 05:32:53.6	90.950	0.950	-0.320	0.550
2020/01/31 05:32:53.7	90.910	0.890	-0.140	0.560
2020/01/31 05:32:53.8	90.870	0.830	0.040	0.570
2020/01/31 05:32:53.9	90.830	0.760	0.210	0.580
2020/01/31 05:32:54.0	90.790	0.690	0.380	0.590
2020/01/31 05:32:54.1	90.750	0.620	0.540	0.600
2020/01/31 05:32:54.2	90.720	0.540	0.700	0.610
2020/01/31 05:32:54.3	90.680	0.470	0.850	0.620
2020/01/31 05:32:54.4	90.650	0.390	0.980	0.630
2020/01/31 05:32:54.5	90.620	0.310	1.100	0.640
2020/01/31 05:32:54.6	90.590	0.240	1.210	0.650
2020/01/31 05:32:54.7	90.570	0.170	1.310	0.650
2020/01/31 05:32:54.8	90.550	0.090	1.390	0.660
2020/01/31 05:32:54.9	90.530	0.030	1.450	0.660
2020/01/31 05:32:55.0	90.510	-0.030	1.500	0.660
2020/01/31 05:32:55.1	90.500	-0.090	1.530	0.660
2020/01/31 05:32:55.2	90.490	-0.140	1.540	0.660
2020/01/31 05:32:55.3	90.480	-0.190	1.530	0.650
2020/01/31 05:32:55.4	90.480	-0.230	1.510	0.640
2020/01/31 05:32:55.5	90.480	-0.270	1.470	0.620
2020/01/31 05:32:55.6	90.480	-0.300	1.420	0.610
2020/01/31 05:32:55.7	90.490	-0.320	1.340	0.590
2020/01/31 05:32:55.8	90.490	-0.340	1.260	0.560
2020/01/31 05:32:55.9	90.500	-0.350	1.160	0.540
2020/01/31 05:32:56.0	90.520	-0.350	1.050	0.510
2020/01/31 05:32:56.1	90.540	-0.350	0.920	0.480
2020/01/31 05:32:56.2	90.560	-0.340	0.780	0.440
2020/01/31 05:32:56.3	90.580	-0.320	0.640	0.400
2020/01/31 05:32:56.4	90.610	-0.300	0.490	0.370
2020/01/31 05:32:56.5	90.640	-0.280	0.340	0.330
2020/01/31 05:32:56.6	90.670	-0.250	0.180	0.300
2020/01/31 05:32:56.7	90.690	-0.220	0.020	0.270
2020/01/31 05:32:56.8	90.730	-0.190	-0.140	0.240
2020/01/31 05:32:56.9	90.760	-0.150	-0.300	0.210
2020/01/31 05:32:57.0	90.790	-0.110	-0.450	0.200
2020/01/31 05:32:57.1	90.810	-0.070	-0.600	0.190
2020/01/31 05:32:57.2	90.840	-0.040	-0.760	0.180
2020/01/31 05:32:57.3	90.860	0.000	-0.890	0.190
2020/01/31 05:32:57.4	90.880	0.040	-1.020	0.200
2020/01/31 05:32:57.5	90.900	0.080	-1.140	0.220
2020/01/31 05:32:57.6	90.920	0.120	-1.240	0.240
2020/01/31 05:32:57.7	90.940	0.150	-1.330	0.280
2020/01/31 05:32:57.8	90.950	0.180	-1.410	0.320
2020/01/31 05:32:57.9	90.960	0.210	-1.480	0.370
2020/01/31 05:32:58.0	90.960	0.230	-1.530	0.420
2020/01/31 05:32:58.1	90.970	0.240	-1.560	0.480
2020/01/31 05:32:58.2	90.960	0.260	-1.570	0.550
2020/01/31 05:32:58.3	90.950	0.260	-1.570	0.610
2020/01/31 05:32:58.4	90.950	0.260	-1.560	0.680
2020/01/31 05:32:58.5	90.940	0.260	-1.520	0.760
2020/01/31 05:32:58.6	90.930	0.250	-1.480	0.830
2020/01/31 05:32:58.7	90.910	0.230	-1.410	0.910
2020/01/31 05:32:58.8	90.900	0.210	-1.340	0.980
2020/01/31 05:32:58.9	90.880	0.180	-1.250	1.060
2020/01/31 05:32:59.0	90.870	0.140	-1.150	1.140
2020/01/31 05:32:59.1	90.850	0.100	-1.040	1.210
2020/01/31 05:32:59.2	90.830	0.060	-0.930	1.280
2020/01/31 05:32:59.3	90.810	0.010	-0.810	1.350
2020/01/31 05:32:59.4	90.790	-0.040	-0.680	1.420
2020/01/31 05:32:59.5	90.760	-0.100	-0.550	1.490
2020/01/31 05:32:59.6	90.740	-0.160	-0.410	1.550
2020/01/31 05:32:59.7	90.720	-0.220	-0.280	1.610
2020/01/31 05:32:59.8	90.690	-0.280	-0.150	1.660
2020/01/31 05:32:59.9	90.670	-0.340	-0.020	1.710
2020/01/31 05:33:00.0	90.650	-0.400	0.110	1.760
2020/01/31 05:33:00.1	90.630	-0.460	0.220	1.800
2020/01/31 05:33:00.2	90.600	-0.520	0.340	1.830
2020/01/31 05:33:00.3	90.580	-0.580	0.440	1.860
2020/01/31 05:33:00.4	90.560	-0.640	0.540	1.880
2020/01/31 05:33:00.5	90.540	-0.690	0.620	1.900
2020/01/31 05:33:00.6	90.520	-0.730	0.690	1.910
2020/01/31 05:33:00.7	90.510	-0.780	0.750	1.910
2020/01/31 05:33:00.8	90.500	-0.810	0.800	1.900
2020/01/31 05:33:00.9	90.490	-0.840	0.830	1.890
2020/01/31 05:33:01.0	90.490	-0.870	0.850	1.870
2020/01/31 05:33:01.1	90.480	-0.890	0.850	1.840
2020/01/31 05:33:01.2	90.490	-0.900	0.840	1.810
2020/01/31 05:33:01.3	90.490	-0.900	0.820	1.770
2020/01/31 05:33:01.4	90.490	-0.900	0.780	1.730
2020/01/31 05:33:01.5	90.500	-0.880	0.730	1.680
2020/01/31 05:33:01.6	90.500	-0.860	0.680	1.630
2020/01/31 05:33:01.7	90.510	-0.840	0.610	1.580
2020/01/31 05:33:01.8	90.520	-0.810	0.530	1.520
2020/01/31 05:33:01.9	90.530	-0.770	0.450	1.470
2020/01/31 05:33:02.0	90.540	-0.730	0.360	1.410
2020/01/31 05:33:02.1	90.550	-0.680	0.270	1.350
2020/01/31 05:33:02.2	90.560	-0.620	0.160	1.290
2020/01/31 05:33:02.3	90.570	-0.570	0.070	1.230
2020/01/31 05:33:02.4	90.580	-0.500	-0.030	1.170
2020/01/31 05:33:02.5	90.600	-0.440	-0.130	1.110
2020/01/31 05:33:02.6	90.610	-0.380	-0.220	1.040
2020/01/31 05:33:02.7	90.630	-0.310	-0.310	0.980
2020/01/31 05:33:02.8	90.640	-0.240	-0.400	0.920
2020/01/31 05:33:02.9	90.660	-0.170	-0.480	0.860
2020/01/31 05:33:03.0	90.670	-0.100	-0.560	0.800
2020/01/31 05:33:03.1	90.680	-0.030	-0.630	0.740
2020/01/31 05:33:03.2	90.710	0.040	-0.690	0.690
2020/01/31 05:33:03.3	90.720	0.100	-0.740	0.630
2020/01/31 05:33:03.4	90.730	0.170	-0.790	0.580
2020/01/31 05:33:03.5	90.750	0.230	-0.830	0.530
2020/01/31 05:33:03.6	90.760	0.290	-0.860	0.490
2020/01/31 05:33:03.7	90.770	0.340	-0.890	0.440
2020/01/31 05:33:03.8	90.780	0.400	-0.900	0.400
2020/01/31 05:33:03.9	90.780	0.450	-0.910	0.370
2020/01/31 05:33:04.0	90.790	0.490	-0.920	0.330
2020/01/31 05:33:04.1	90.790	0.530	-0.910	0.310
2020/01/31 05:33:04.2	90.800	0.570	-0.900	0.280
2020/01/31 05:33:04.3	90.800	0.600	-0.890	0.260
2020/01/31 05:33:04.4	90.800	0.630	-0.870	0.240
2020/01/31 05:33:04.5	90.790	0.660	-0.840	0.230
2020/01/31 05:33:04.6	90.780	0.670	-0.810	0.220
2020/01/31 05:33:04.7	90.780	0.690	-0.780	0.210
2020/01/31 05:33:04.8	90.770	0.700	-0.750	0.210
2020/01/31 05:33:04.9	90.750	0.710	-0.710	0.220
2020/01/31 05:33:05.0	90.740	0.710	-0.670	0.220
2020/01/31 05:33:05.1	90.730	0.710	-0.630	0.230
2020/01/31 05:33:05.2	90.710	0.710	-0.580	0.250
2020/01/31 05:33:05.3	90.700	0.700	-0.540	0.260
2020/01/31 05:33:05.4	90.680	0.690	-0.500	0.280
2020/01/31 05:33:05.5	90.670	0.680	-0.450	0.300
2020/01/31 05:33:05.6	90.650	0.660	-0.410	0.320
2020/01/31 05:33:05.7	90.640	0.640	-0.370	0.340
2020/01/31 05:33:05.8	90.630	0.620	-0.320	0.360
2020/01/31 05:33:05.9	90.620	0.600	-0.280	0.380
2020/01/31 05:33:06.0	90.610	0.570	-0.240	0.400
2020/01/31 05:33:06.1	90.600	0.540	-0.200	0.420
2020/01/31 05:33:06.2	90.590	0.510	-0.160	0.440
2020/01/31 05:33:06.3	90.590	0.480	-0.120	0.450
2020/01/31 05:33:06.4	90.590	0.450	-0.080	0.470
2020/01/31 05:33:06.5	90.590	0.410	-0.040	0.480
2020/01/31 05:33:06.6	90.590	0.380	0.000	0.490
2020/01/31 05:33:06.7	90.590	0.340	0.040	0.490
2020/01/31 05:33:06.8	90.600	0.310	0.070	0.500
2020/01/31 05:33:06.9	90.600	0.270	0.110	0.500
2020/01/31 05:33:07.0	90.610	0.240	0.140	0.500
2020/01/31 05:33:07.1	90.620	0.200	0.170	0.490
2020/01/31 05:33:07.2	90.630	0.170	0.200	0.480
2020/01/31 05:33:07.3	90.640	0.130	0.220	0.470
2020/01/31 05:33:07.4	90.660	0.100	0.250	0.450
2020/01/31 05:33:07.5	90.670	0.070	0.270	0.440
2020/01/31 05:33:07.6	90.690	0.040	0.290	0.420
2020/01/31 05:33:07.7	90.700	0.010	0.300	0.410
2020/01/31 05:33:07.8	90.720	-0.010	0.310	0.390
2020/01/31 05:33:07.9	90.740	-0.040	0.320	0.370
2020/01/31 05:33:08.0	90.760	-0.060	0.330	0.350
2020/01/31 05:33:08.1	90.780	-0.080	0.320	0.340
2020/01/31 05:33:08.2	90.810	-0.090	0.320	0.320
2020/01/31 05:33:08.3	90.830	-0.110	0.310	0.310
2020/01/31 05:33:08.4	90.850	-0.120	0.290	0.300
2020/01/31 05:33:08.5	90.880	-0.130	0.270	0.290
2020/01/31 05:33:08.6	90.910	-0.130	0.240	0.290
2020/01/31 05:33:08.7	90.930	-0.130	0.210	0.290
2020/01/31 05:33:08.8	90.960	-0.130	0.170	0.290
2020/01/31 05:33:08.9	90.990	-0.130	0.130	0.300
2020/01/31 05:33:09.0	91.020	-0.130	0.090	0.310
2020/01/31 05:33:09.1	91.050	-0.120	0.040	0.320
2020/01/31 05:33:09.2	91.070	-0.110	-0.020	0.340
2020/01/31 05:33:09.3	91.100	-0.100	-0.070	0.360
2020/01/31 05:33:09.4	91.130	-0.090	-0.130	0.390
2020/01/31 05:33:09.5	91.160	-0.080	-0.180	0.420
2020/01/31 05:33:09.6	91.190	-0.070	-0.240	0.450
2020/01/31 05:33:09.7	91.220	-0.060	-0.300	0.480
2020/01/31 05:33:09.8	91.240	-0.050	-0.360	0.520
2020/01/31 05:33:09.9	91.260	-0.040	-0.420	0.560
2020/01/31 05:33:10.0	91.290	-0.030	-0.470	0.600
2020/01/31 05:33:10.1	91.300	-0.020	-0.520	0.640
2020/01/31 05:33:10.2	91.320	-0.010	-0.570	0.680
2020/01/31 05:33:10.3	91.330	-0.010	-0.620	0.720
2020/01/31 05:33:10.4	91.350	-0.010	-0.660	0.760
2020/01/31 05:33:10.5	91.360	-0.000	-0.700	0.800
2020/01/31 05:33:10.6	91.360	-0.000	-0.720	0.840
2020/01/31 05:33:10.7	91.370	-0.010	-0.750	0.880
2020/01/31 05:33:10.8	91.370	-0.010	-0.770	0.920
2020/01/31 05:33:10.9	91.370	-0.020	-0.770	0.960
2020/01/31 05:33:11.0	91.370	-0.030	-0.780	0.990
2020/01/31 05:33:11.1	91.360	-0.040	-0.770	1.030
2020/01/31 05:33:11.2	91.360	-0.060	-0.760	1.070
2020/01/31 05:33:11.3	91.350	-0.070	-0.740	1.100
2020/01/31 05:33:11.4	91.340	-0.090	-0.710	1.130
2020/01/31 05:33:11.5	91.330	-0.110	-0.680	1.170
2020/01/31 05:33:11.6	91.320	-0.140	-0.630	1.200
2020/01/31 05:33:11.7	91.310	-0.160	-0.590	1.230
2020/01/31 05:33:11.8	91.300	-0.190	-0.530	1.250
2020/01/31 05:33:11.9	91.280	-0.210	-0.470	1.280
2020/01/31 05:33:12.0	91.270	-0.240	-0.410	1.310
2020/01/31 05:33:12.1	91.260	-0.270	-0.340	1.330
2020/01/31 05:33:12.2	91.240	-0.300	-0.270	1.350
2020/01/31 05:33:12.3	91.230	-0.330	-0.200	1.370
2020/01/31 05:33:12.4	91.220	-0.360	-0.130	1.390
2020/01/31 05:33:12.5	91.210	-0.390	-0.060	1.400
2020/01/31 05:33:12.6	91.200	-0.410	0.010	1.410
2020/01/31 05:33:12.7	91.190	-0.440	0.080	1.420
2020/01/31 05:33:12.8	91.190	-0.460	0.140	1.420
2020/01/31 05:33:12.9	91.180	-0.480	0.200	1.420
2020/01/31 05:33:13.0	91.180	-0.500	0.260	1.420
2020/01/31 05:33:13.1	91.180	-0.520	0.310	1.410
2020/01/31 05:33:13.2	91.190	-0.530	0.350	1.400
2020/01/31 05:33:13.3	91.190	-0.540	0.390	1.390
2020/01/31 05:33:13.4	91.200	-0.540	0.420	1.370
2020/01/31 05:33:13.5	91.210	-0.540	0.440	1.340
2020/01/31 05:33:13.6	91.220	-0.530	0.450	1.310
2020/01/31 05:33:13.7	91.240	-0.520	0.450	1.280
2020/01/31 05:33:13.8	91.260	-0.510	0.450	1.240
2020/01/31 05:33:13.9	91.280	-0.490	0.430	1.200
2020/01/31 05:33:14.0	91.300	-0.470	0.410	1.160
2020/01/31 05:33:14.1	91.330	-0.440	0.370	1.110
2020/01/31 05:33:14.2	91.360	-0.410	0.340	1.050
2020/01/31 05:33:14.3	91.390	-0.370	0.290	1.000
2020/01/31 05:33:14.4	91.420	-0.330	0.230	0.940
2020/01/31 05:33:14.5	91.450	-0.280	0.160	0.880
2020/01/31 05:33:14.6	91.480	-0.230	0.090	0.810
2020/01/31 05:33:14.7	91.510	-0.180	0.010	0.750
2020/01/31 05:33:14.8	91.540	-0.130	-0.070	0.680
2020/01/31 05:33:14.9	91.570	-0.070	-0.150	0.610
2020/01/31 05:33:15.0	91.600	-0.010	-0.230	0.540
2020/01/31 05:33:15.1	91.630	0.050	-0.320	0.470
2020/01/31 05:33:15.2	91.650	0.110	-0.420	0.400
2020/01/31 05:33:15.3	91.680	0.170	-0.500	0.330
2020/01/31 05:33:15.4	91.700	0.230	-0.580	0.270
2020/01/31 05:33:15.5	91.730	0.290	-0.660	0.200
2020/01/31 05:33:15.6	91.750	0.350	-0.730	0.140
2020/01/31 05:33:15.7	91.760	0.400	-0.800	0.080
2020/01/31 05:33:15.8	91.780	0.450	-0.860	0.020
2020/01/31 05:33:15.9	91.790	0.500	-0.910	-0.030
2020/01/31 05:33:16.0	91.800	0.550	-0.950	-0.080
2020/01/31 05:33:16.1	91.810	0.590	-0.980	-0.120
2020/01/31 05:33:16.2	91.820	0.630	-1.010	-0.160
2020/01/31 05:33:16.3	91.820	0.660	-1.020	-0.190
2020/01/31 05:33:16.4	91.830	0.690	-1.020	-0.210
2020/01/31 05:33:16.5	91.820	0.710	-1.020	-0.230
2020/01/31 05:33:16.6	91.820	0.730	-1.000	-0.240
2020/01/31 05:33:16.7	91.810	0.740	-0.970	-0.240
2020/01/31 05:33:16.8	91.810	0.750	-0.930	-0.240
2020/01/31 05:33:16.9	91.800	0.750	-0.890	-0.230
2020/01/31 05:33:17.0	91.780	0.750	-0.840	-0.210
2020/01/31 05:33:17.1	91.770	0.740	-0.780	-0.190
2020/01/31 05:33:17.2	91.760	0.730	-0.710	-0.160
2020/01/31 05:33:17.3	91.740	0.720	-0.640	-0.130
2020/01/31 05:33:17.4	91.730	0.700	-0.560	-0.090
2020/01/31 05:33:17.5	91.710	0.670	-0.480	-0.050
2020/01/31 05:33:17.6	91.700	0.650	-0.400	-0.010
2020/01/31 05:33:17.7	91.680	0.610	-0.320	0.030
2020/01/31 05:33:17.8	91.660	0.580	-0.230	0.080
2020/01/31 05:33:17.9	91.650	0.540	-0.150	0.130
2020/01/31 05:33:18.0	91.630	0.510	-0.070	0.180
2020/01/31 05:33:18.1	91.620	0.470	0.000	0.220
2020/01/31 05:33:18.2	91.600	0.420	0.080	0.270
2020/01/31 05:33:18.3	91.580	0.380	0.140	0.320
2020/01/31 05:33:18.4	91.570	0.340	0.210	0.360
2020/01/31 05:33:18.5	91.560	0.290	0.260	0.400
2020/01/31 05:33:18.6	91.550	0.250	0.310	0.430
2020/01/31 05:33:18.7	91.540	0.200	0.360	0.470
2020/01/31 05:33:18.8	91.530	0.160	0.390	0.490
2020/01/31 05:33:18.9	91.530	0.120	0.420	0.520
2020/01/31 05:33:19.0	91.530	0.070	0.440	0.530
2020/01/31 05:33:19.1	91.530	0.030	0.460	0.550
2020/01/31 05:33:19.2	91.530	-0.010	0.460	0.560
2020/01/31 05:33:19.3	91.540	-0.040	0.460	0.560
2020/01/31 05:33:19.4	91.550	-0.080	0.460	0.560
2020/01/31 05:33:19.5	91.560	-0.120	0.440	0.560
2020/01/31 05:33:19.6	91.570	-0.150	0.420	0.550
2020/01/31 05:33:19.7	91.590	-0.180	0.390	0.540
2020/01/31 05:33:19.8	91.600	-0.210	0.360	0.530
2020/01/31 05:33:19.9	91.620	-0.230	0.320	0.520
2020/01/31 05:33:20.0	91.640	-0.250	0.280	0.510
2020/01/31 05:33:20.1	91.660	-0.270	0.240	0.500
2020/01/31 05:33:20.2	91.680	-0.290	0.190	0.480
2020/01/31 05:33:20.3	91.700	-0.310	0.140	0.480
2020/01/31 05:33:20.4	91.720	-0.320	0.090	0.470
2020/01/31 05:33:20.5	91.740	-0.330	0.040	0.470
2020/01/31 05:33:20.6	91.770	-0.340	-0.010	0.470
2020/01/31 05:33:20.7	91.790	-0.350	-0.060	0.470
2020/01/31 05:33:20.8	91.810	-0.350	-0.110	0.480
2020/01/31 05:33:20.9	91.830	-0.350	-0.160	0.490
2020/01/31 05:33:21.0	91.850	-0.350	-0.210	0.500
2020/01/31 05:33:21.1	91.880	-0.350	-0.250	0.520
2020/01/31 05:33:21.2	91.900	-0.340	-0.300	0.530
2020/01/31 05:33:21.3	91.920	-0.330	-0.340	0.560
2020/01/31 05:33:21.4	91.940	-0.320	-0.380	0.580
2020/01/31 05:33:21.5	91.970	-0.310	-0.420	0.610
2020/01/31 05:33:21.6	91.990	-0.300	-0.450	0.640
2020/01/31 05:33:21.7	92.020	-0.290	-0.480	0.680
2020/01/31 05:33:21.8	92.040	-0.270	-0.510	0.710
2020/01/31 05:33:21.9	92.070	-0.260	-0.530	0.750
2020/01/31 05:33:22.0	92.090	-0.240	-0.560	0.790
2020/01/31 05:33:22.1	92.120	-0.220	-0.570	0.830
2020/01/31 05:33:22.2	92.130	-0.210	-0.590	0.870
2020/01/31 05:33:22.3	92.160	-0.190	-0.600	0.910
2020/01/31 05:33:22.4	92.180	-0.170	-0.610	0.950
2020/01/31 05:33:22.5	92.190	-0.160	-0.610	0.990
2020/01/31 05:33:22.6	92.210	-0.140	-0.600	1.030
2020/01/31 05:33:22.7	92.220	-0.130	-0.600	1.070
2020/01/31 05:33:22.8	92.240	-0.120	-0.580	1.100
2020/01/31 05:33:22.9	92.250	-0.110	-0.570	1.130
2020/01/31 05:33:23.0	92.260	-0.100	-0.550	1.160
2020/01/31 05:33:23.1	92.260	-0.100	-0.530	1.180
2020/01/31 05:33:23.2	92.270	-0.090	-0.500	1.200
2020/01/31 05:33:23.3	92.270	-0.090	-0.470	1.210
2020/01/31 05:33:23.4	92.280	-0.090	-0.430	1.230
2020/01/31 05:33:23.5	92.280	-0.090	-0.390	1.240
2020/01/31 05:33:23.6	92.280	-0.100	-0.350	1.240
2020/01/31 05:33:23.7	92.280	-0.110	-0.310	1.250
2020/01/31 05:33:23.8	92.280	-0.120	-0.260	1.250
2020/01/31 05:33:23.9	92.270	-0.130	-0.220	1.250
2020/01/31 05:33:24.0	92.270	-0.140	-0.170	1.250
2020/01/31 05:33:24.1	92.270	-0.150	-0.120	1.240
2020/01/31 05:33:24.2	92.260	-0.170	-0.060	1.230
2020/01/31 05:33:24.3	92.250	-0.190	-0.010	1.230
2020/01/31 05:33:24.4	92.240	-0.210	0.040	1.220
2020/01/31 05:33:24.5	92.240	-0.230	0.090	1.210
2020/01/31 05:33:24.6	92.230	-0.250	0.140	1.200
2020/01/31 05:33:24.7	92.220	-0.260	0.180	1.180
2020/01/31 05:33:24.8	92.210	-0.280	0.230	1.170
2020/01/31 05:33:24.9	92.200	-0.300	0.260	1.160
2020/01/31 05:33:25.0	92.180	-0.320	0.300	1.140
2020/01/31 05:33:25.1	92.170	-0.330	0.330	1.120
2020/01/31 05:33:25.2	92.160	-0.350	0.350	1.100
2020/01/31 05:33:25.3	92.150	-0.360	0.370	1.080
2020/01/31 05:33:25.4	92.130	-0.370	0.380	1.060
2020/01/31 05:33:25.5	92.120	-0.370	0.380	1.040
2020/01/31 05:33:25.6	92.110	-0.380	0.380	1.020
2020/01/31 05:33:25.7	92.100	-0.370	0.370	0.990
2020/01/31 05:33:25.8	92.090	-0.370	0.350	0.960
2020/01/31 05:33:25.9	92.070	-0.360	0.320	0.930
2020/01/31 05:33:26.0	92.060	-0.340	0.280	0.890
2020/01/31 05:33:26.1	92.060	-0.320	0.230	0.850
2020/01/31 05:33:26.2	92.040	-0.300	0.170	0.810
2020/01/31 05:33:26.3	92.040	-0.270	0.100	0.760
2020/01/31 05:33:26.4	92.040	-0.230	0.030	0.710
2020/01/31 05:33:26.5	92.030	-0.190	-0.060	0.660
2020/01/31 05:33:26.6	92.030	-0.150	-0.140	0.610
2020/01/31 05:33:26.7	92.040	-0.100	-0.240	0.550
2020/01/31 05:33:26.8	92.040	-0.050	-0.340	0.490
2020/01/31 05:33:26.9	92.050	0.010	-0.440	0.430
2020/01/31 05:33:27.0	92.050	0.070	-0.540	0.370
2020/01/31 05:33:27.1	92.060	0.130	-0.650	0.310
2020/01/31 05:33:27.2	92.070	0.190	-0.750	0.250
2020/01/31 05:33:27.3	92.080	0.260	-0.850	0.200
2020/01/31 05:33:27.4	92.090	0.320	-0.950	0.140
2020/01/31 05:33:27.5	92.100	0.390	-1.040	0.090
2020/01/31 05:33:27.6	92.110	0.450	-1.120	0.050
2020/01/31 05:33:27.7	92.120	0.510	-1.190	0.010
2020/01/31 05:33:27.8	92.120	0.570	-1.260	-0.030
2020/01/31 05:33:27.9	92.130	0.620	-1.310	-0.060
2020/01/31 05:33:28.0	92.140	0.680	-1.350	-0.090
2020/01/31 05:33:28.1	92.150	0.720	-1.380	-0.120
2020/01/31 05:33:28.2	92.160	0.760	-1.400	-0.140
2020/01/31 05:33:28.3	92.160	0.800	-1.400	-0.150
2020/01/31 05:33:28.4	92.170	0.830	-1.380	-0.160
2020/01/31 05:33:28.5	92.170	0.850	-1.350	-0.160
2020/01/31 05:33:28.6	92.170	0.870	-1.310	-0.150
2020/01/31 05:33:28.7	92.170	0.880	-1.250	-0.140
2020/01/31 05:33:28.8	92.170	0.880	-1.180	-0.130
2020/01/31 05:33:28.9	92.170	0.870	-1.100	-0.110
2020/01/31 05:33:29.0	92.160	0.860	-1.000	-0.080
2020/01/31 05:33:29.1	92.160	0.840	-0.900	-0.060
2020/01/31 05:33:29.2	92.160	0.810	-0.780	-0.030
2020/01/31 05:33:29.3	92.160	0.780	-0.660	0.000
2020/01/31 05:33:29.4	92.150	0.740	-0.530	0.040
2020/01/31 05:33:29.5	92.140	0.690	-0.390	0.080
2020/01/31 05:33:29.6	92.130	0.640	-0.250	0.120
2020/01/31 05:33:29.7	92.120	0.580	-0.110	0.160
2020/01/31 05:33:29.8	92.110	0.520	0.030	0.210
2020/01/31 05:33:29.9	92.100	0.450	0.170	0.250
2020/01/31 05:33:30.0	92.090	0.380	0.310	0.300
2020/01/31 05:33:30.1	92.080	0.310	0.440	0.340
2020/01/31 05:33:30.2	92.060	0.240	0.580	0.390
2020/01/31 05:33:30.3	92.050	0.160	0.700	0.440
2020/01/31 05:33:30.4	92.040	0.090	0.810	0.480
2020/01/31 05:33:30.5	92.040	0.010	0.910	0.520
2020/01/31 05:33:30.6	92.030	-0.060	1.010	0.560
2020/01/31 05:33:30.7	92.020	-0.140	1.090	0.600
2020/01/31 05:33:30.8	92.020	-0.210	1.150	0.640
2020/01/31 05:33:30.9	92.020	-0.270	1.210	0.670
2020/01/31 05:33:31.0	92.020	-0.330	1.250	0.700
2020/01/31 05:33:31.1	92.020	-0.390	1.270	0.730
2020/01/31 05:33:31.2	92.020	-0.450	1.270	0.750
2020/01/31 05:33:31.3	92.030	-0.490	1.260	0.770
2020/01/31 05:33:31.4	92.040	-0.530	1.240	0.780
2020/01/31 05:33:31.5	92.050	-0.570	1.200	0.800
2020/01/31 05:33:31.6	92.060	-0.600	1.140	0.810
2020/01/31 05:33:31.7	92.070	-0.620	1.070	0.810
2020/01/31 05:33:31.8	92.090	-0.630	0.990	0.810
2020/01/31 05:33:31.9	92.100	-0.640	0.890	0.810
2020/01/31 05:33:32.0	92.120	-0.640	0.780	0.810
2020/01/31 05:33:32.1	92.140	-0.640	0.660	0.800
2020/01/31 05:33:32.2	92.170	-0.620	0.530	0.790
2020/01/31 05:33:32.3	92.190	-0.600	0.400	0.780
2020/01/31 05:33:32.4	92.210	-0.580	0.250	0.760
2020/01/31 05:33:32.5	92.240	-0.550	0.100	0.750
2020/01/31 05:33:32.6	92.260	-0.510	-0.050	0.740
2020/01/31 05:33:32.7	92.280	-0.470	-0.200	0.720
2020/01/31 05:33:32.8	92.310	-0.420	-0.350	0.710
2020/01/31 05:33:32.9	92.330	-0.370	-0.500	0.700
2020/01/31 05:33:33.0	92.360	-0.320	-0.640	0.700
2020/01/31 05:33:33.1	92.380	-0.270	-0.780	0.690
2020/01/31 05:33:33.2	92.410	-0.210	-0.920	0.690
2020/01/31 05:33:33.3	92.430	-0.160	-1.040	0.690
2020/01/31 05:33:33.4	92.450	-0.100	-1.140	0.700
2020/01/31 05:33:33.5	92.470	-0.040	-1.240	0.710
2020/01/31 05:33:33.6	92.490	0.010	-1.320	0.720
2020/01/31 05:33:33.7	92.500	0.070	-1.390	0.740
2020/01/31 05:33:33.8	92.520	0.120	-1.440	0.760
2020/01/31 05:33:33.9	92.530	0.170	-1.470	0.780
2020/01/31 05:33:34.0	92.540	0.210	-1.490	0.810
2020/01/31 05:33:34.1	92.550	0.250	-1.490	0.830
2020/01/31 05:33:34.2	92.550	0.290	-1.480	0.870
2020/01/31 05:33:34.3	92.560	0.320	-1.450	0.900
2020/01/31 05:33:34.4	92.560	0.350	-1.410	0.930
2020/01/31 05:33:34.5	92.560	0.370	-1.350	0.970
2020/01/31 05:33:34.6	92.560	0.390	-1.280	1.000
2020/01/31 05:33:34.7	92.560	0.400	-1.200	1.040
2020/01/31 05:33:34.8	92.560	0.400	-1.120	1.080
2020/01/31 05:33:34.9	92.550	0.400	-1.020	1.120
2020/01/31 05:33:35.0	92.540	0.400	-0.910	1.160
2020/01/31 05:33:35.1	92.530	0.390	-0.800	1.200
2020/01/31 05:33:35.2	92.520	0.370	-0.690	1.230
2020/01/31 05:33:35.3	92.510	0.360	-0.580	1.270
2020/01/31 05:33:35.4	92.500	0.330	-0.460	1.310
2020/01/31 05:33:35.5	92.490	0.310	-0.350	1.340
2020/01/31 05:33:35.6	92.470	0.280	-0.240	1.370
2020/01/31 05:33:35.7	92.460	0.250	-0.130	1.400
2020/01/31 05:33:35.8	92.440	0.220	-0.030	1.430
2020/01/31 05:33:35.9	92.430	0.180	0.070	1.450
2020/01/31 05:33:36.0	92.410	0.150	0.150	1.470
2020/01/31 05:33:36.1	92.400	0.110	0.230	1.490
2020/01/31 05:33:36.2	92.380	0.080	0.300	1.500
2020/01/31 05:33:36.3	92.360	0.040	0.360	1.510
2020/01/31 05:33:36.4	92.350	0.010	0.400	1.510
2020/01/31 05:33:36.5	92.330	-0.020	0.440	1.510
2020/01/31 05:33:36.6	92.320	-0.050	0.460	1.510
2020/01/31 05:33:36.7	92.310	-0.080	0.480	1.500
2020/01/31 05:33:36.8	92.300	-0.100	0.480	1.490
2020/01/31 05:33:36.9	92.290	-0.120	0.470	1.470
2020/01/31 05:33:37.0	92.280	-0.140	0.460	1.440
2020/01/31 05:33:37.1	92.270	-0.160	0.430	1.410
2020/01/31 05:33:37.2	92.270	-0.170	0.400	1.380
2020/01/31 05:33:37.3	92.270	-0.180	0.360	1.340
2020/01/31 05:33:37.4	92.260	-0.190	0.320	1.300
2020/01/31 05:33:37.5	92.260	-0.200	0.270	1.260
2020/01/31 05:33:37.6	92.260	-0.200	0.220	1.220
2020/01/31 05:33:37.7	92.260	-0.210	0.170	1.170
2020/01/31 05:33:37.8	92.260	-0.210	0.120	1.130
2020/01/31 05:33:37.9	92.260	-0.210	0.070	1.080
2020/01/31 05:33:38.0	92.260	-0.210	0.020	1.040
2020/01/31 05:33:38.1	92.260	-0.200	-0.020	0.990
2020/01/31 05:33:38.2	92.260	-0.200	-0.070	0.940
2020/01/31 05:33:38.3	92.260	-0.190	-0.110	0.890
2020/01/31 05:33:38.4	92.260	-0.190	-0.150	0.850
2020/01/31 05:33:38.5	92.260	-0.180	-0.180	0.810
2020/01/31 05:33:38.6	92.260	-0.180	-0.210	0.760
2020/01/31 05:33:38.7	92.260	-0.170	-0.240	0.720
2020/01/31 05:33:38.8	92.270	-0.170	-0.260	0.680
2020/01/31 05:33:38.9	92.270	-0.170	-0.280	0.640
2020/01/31 05:33:39.0	92.280	-0.160	-0.290	0.610
2020/01/31 05:33:39.1	92.280	-0.160	-0.300	0.570
2020/01/31 05:33:39.2	92.280	-0.160	-0.310	0.540
2020/01/31 05:33:39.3	92.290	-0.160	-0.310	0.500
2020/01/31 05:33:39.4	92.290	-0.160	-0.310	0.470
2020/01/31 05:33:39.5	92.300	-0.160	-0.310	0.450
2020/01/31 05:33:39.6	92.310	-0.160	-0.310	0.420
2020/01/31 05:33:39.7	92.320	-0.160	-0.300	0.400
2020/01/31 05:33:39.8	92.330	-0.160	-0.300	0.380
2020/01/31 05:33:39.9	92.330	-0.160	-0.290	0.360
2020/01/31 05:33:40.0	92.340	-0.170	-0.290	0.350
2020/01/31 05:33:40.1	92.350	-0.170	-0.280	0.340
2020/01/31 05:33:40.2	92.360	-0.170	-0.280	0.320
2020/01/31 05:33:40.3	92.370	-0.180	-0.270	0.320
2020/01/31 05:33:40.4	92.370	-0.180	-0.270	0.310
2020/01/31 05:33:40.5	92.380	-0.180	-0.270	0.310
2020/01/31 05:33:40.6	92.390	-0.190	-0.270	0.310
2020/01/31 05:33:40.7	92.390	-0.190	-0.270	0.310
2020/01/31 05:33:40.8	92.400	-0.190	-0.270	0.310
2020/01/31 05:33:40.9	92.400	-0.190	-0.280	0.320
2020/01/31 05:33:41.0	92.410	-0.190	-0.280	0.330
2020/01/31 05:33:41.1	92.410	-0.190	-0.290	0.340
2020/01/31 05:33:41.2	92.420	-0.180	-0.290	0.350
2020/01/31 05:33:41.3	92.430	-0.180	-0.300	0.370
2020/01/31 05:33:41.4	92.430	-0.170	-0.300	0.390
2020/01/31 05:33:41.5	92.430	-0.160	-0.300	0.400
2020/01/31 05:33:41.6	92.430	-0.150	-0.310	0.430
2020/01/31 05:33:41.7	92.440	-0.140	-0.310	0.450
2020/01/31 05:33:41.8	92.440	-0.130	-0.310	0.470
2020/01/31 05:33:41.9	92.440	-0.110	-0.310	0.490
2020/01/31 05:33:42.0	92.440	-0.100	-0.310	0.510
2020/01/31 05:33:42.1	92.440	-0.080	-0.310	0.540
2020/01/31 05:33:42.2	92.450	-0.060	-0.310	0.550
2020/01/31 05:33:42.3	92.450	-0.040	-0.310	0.570
2020/01/31 05:33:42.4	92.460	-0.020	-0.300	0.590
2020/01/31 05:33:42.5	92.460	-0.000	-0.290	0.610
2020/01/31 05:33:42.6	92.470	0.020	-0.290	0.630
2020/01/31 05:33:42.7	92.470	0.040	-0.280	0.640
2020/01/31 05:33:42.8	92.480	0.060	-0.260	0.650
2020/01/31 05:33:42.9	92.490	0.080	-0.250	0.660
2020/01/31 05:33:43.0	92.500	0.100	-0.240	0.670
2020/01/31 05:33:43.1	92.510	0.120	-0.220	0.670
2020/01/31 05:33:43.2	92.520	0.130	-0.210	0.680
2020/01/31 05:33:43.3	92.530	0.150	-0.200	0.680
2020/01/31 05:33:43.4	92.540	0.160	-0.180	0.680
2020/01/31 05:33:43.5	92.550	0.180	-0.170	0.680
2020/01/31 05:33:43.6	92.560	0.190	-0.150	0.680
2020/01/31 05:33:43.7	92.580	0.200	-0.140	0.680
2020/01/31 05:33:43.8	92.590	0.210	-0.130	0.680
2020/01/31 05:33:43.9	92.600	0.220	-0.120	0.680
2020/01/31 05:33:44.0	92.620	0.230	-0.110	0.680
2020/01/31 05:33:44.1	92.630	0.240	-0.100	0.680
2020/01/31 05:33:44.2	92.630	0.240	-0.090	0.670
2020/01/31 05:33:44.3	92.650	0.250	-0.090	0.670
2020/01/31 05:33:44.4	92.660	0.250	-0.090	0.680
2020/01/31 05:33:44.5	92.670	0.260	-0.090	0.680
2020/01/31 05:33:44.6	92.680	0.260	-0.100	0.680
2020/01/31 05:33:44.7	92.680	0.260	-0.100	0.690
2020/01/31 05:33:44.8	92.690	0.260	-0.110	0.700
2020/01/31 05:33:44.9	92.690	0.270	-0.130	0.710
2020/01/31 05:33:45.0	92.700	0.270	-0.140	0.710
2020/01/31 05:33:45.1	92.700	0.270	-0.160	0.720
2020/01/31 05:33:45.2	92.700	0.270	-0.180	0.730
2020/01/31 05:33:45.3	92.700	0.280	-0.200	0.740
2020/01/31 05:33:45.4	92.710	0.280	-0.230	0.740
2020/01/31 05:33:45.5	92.710	0.280	-0.250	0.750
2020/01/31 05:33:45.6	92.710	0.290	-0.280	0.750
2020/01/31 05:33:45.7	92.710	0.290	-0.300	0.750
2020/01/31 05:33:45.8	92.710	0.300	-0.330	0.750
2020/01/31 05:33:45.9	92.710	0.300	-0.350	0.740
2020/01/31 05:33:46.0	92.710	0.300	-0.370	0.740
2020/01/31 05:33:46.1	92.710	0.310	-0.400	0.730
2020/01/31 05:33:46.2	92.710	0.310	-0.420	0.720
2020/01/31 05:33:46.3	92.710	0.320	-0.440	0.710
2020/01/31 05:33:46.4	92.710	0.320	-0.450	0.700
2020/01/31 05:33:46.5	92.710	0.330	-0.460	0.680
2020/01/31 05:33:46.6	92.710	0.330	-0.470	0.670
2020/01/31 05:33:46.7	92.710	0.330	-0.480	0.660
2020/01/31 05:33:46.8	92.710	0.340	-0.480	0.650
2020/01/31 05:33:46.9	92.700	0.340	-0.470	0.650
2020/01/31 05:33:47.0	92.690	0.340	-0.460	0.640
2020/01/31 05:33:47.1	92.680	0.340	-0.450	0.640
2020/01/31 05:33:47.2	92.670	0.340	-0.440	0.640
2020/01/31 05:33:47.3	92.650	0.330	-0.420	0.640
2020/01/31 05:33:47.4	92.640	0.330	-0.390	0.640
2020/01/31 05:33:47.5	92.620	0.330	-0.370	0.640
2020/01/31 05:33:47.6	92.610	0.320	-0.340	0.640
2020/01/31 05:33:47.7	92.590	0.310	-0.310	0.650
2020/01/31 05:33:47.8	92.570	0.300	-0.270	0.650
2020/01/31 05:33:47.9	92.550	0.290	-0.240	0.650
2020/01/31 05:33:48.0	92.530	0.270	-0.200	0.650
2020/01/31 05:33:48.1	92.510	0.260	-0.160	0.660
2020/01/31 05:33:48.2	92.490	0.240	-0.130	0.650
2020/01/31 05:33:48.3	92.470	0.220	-0.090	0.650
2020/01/31 05:33:48.4	92.460	0.200	-0.060	0.650
2020/01/31 05:33:48.5	92.440	0.180	-0.030	0.640
2020/01/31 05:33:48.6	92.430	0.160	0.010	0.640
2020/01/31 05:33:48.7	92.420	0.140	0.030	0.630
2020/01/31 05:33:48.8	92.410	0.110	0.060	0.630
2020/01/31 05:33:48.9	92.400	0.090	0.080	0.620
2020/01/31 05:33:49.0	92.390	0.070	0.100	0.610
2020/01/31 05:33:49.1	92.380	0.040	0.120	0.600
2020/01/31 05:33:49.2	92.380	0.010	0.140	0.590
2020/01/31 05:33:49.3	92.380	-0.010	0.150	0.580
2020/01/31 05:33:49.4	92.380	-0.040	0.150	0.570
2020/01/31 05:33:49.5	92.380	-0.060	0.160	0.570
2020/01/31 05:33:49.6	92.380	-0.090	0.160	0.560
2020/01/31 05:33:49.7	92.380	-0.110	0.150	0.550
2020/01/31 05:33:49.8	92.380	-0.140	0.150	0.550
2020/01/31 05:33:49.9	92.380	-0.160	0.140	0.550
2020/01/31 05:33:50.0	92.390	-0.180	0.120	0.540
2020/01/31 05:33:50.1	92.390	-0.210	0.110	0.540
2020/01/31 05:33:50.2	92.400	-0.220	0.080	0.540
2020/01/31 05:33:50.3	92.400	-0.240	0.060	0.540
2020/01/31 05:33:50.4	92.410	-0.260	0.040	0.540
2020/01/31 05:33:50.5	92.420	-0.270	0.020	0.540
2020/01/31 05:33:50.6	92.430	-0.290	-0.010	0.550
2020/01/31 05:33:50.7	92.440	-0.300	-0.040	0.550
2020/01/31 05:33:50.8	92.450	-0.310	-0.070	0.550
2020/01/31 05:33:50.9	92.470	-0.310	-0.090	0.550
2020/01/31 05:33:51.0	92.480	-0.320	-0.120	0.550
2020/01/31 05:33:51.1	92.490	-0.320	-0.150	0.550
2020/01/31 05:33:51.2	92.500	-0.320	-0.180	0.560
2020/01/31 05:33:51.3	92.510	-0.320	-0.210	0.560
2020/01/31 05:33:51.4	92.520	-0.320	-0.240	0.560
2020/01/31 05:33:51.5	92.540	-0.310	-0.270	0.560
2020/01/31 05:33:51.6	92.540	-0.300	-0.300	0.570
2020/01/31 05:33:51.7	92.550	-0.290	-0.330	0.570
2020/01/31 05:33:51.8	92.560	-0.280	-0.360	0.580
2020/01/31 05:33:51.9	92.570	-0.260	-0.390	0.590
2020/01/31 05:33:52.0	92.570	-0.250	-0.420	0.600
2020/01/31 05:33:52.1	92.580	-0.230	-0.450	0.610
2020/01/31 05:33:52.2	92.580	-0.210	-0.480	0.630
2020/01/31 05:33:52.3	92.580	-0.190	-0.510	0.640
2020/01/31 05:33:52.4	92.580	-0.170	-0.540	0.660
2020/01/31 05:33:52.5	92.580	-0.150	-0.560	0.680
2020/01/31 05:33:52.6	92.570	-0.130	-0.580	0.710
2020/01/31 05:33:52.7	92.570	-0.110	-0.600	0.730
2020/01/31 05:33:52.8	92.560	-0.090	-0.620	0.760
2020/01/31 05:33:52.9	92.560	-0.070	-0.640	0.790
2020/01/31 05:33:53.0	92.550	-0.050	-0.650	0.810
2020/01/31 05:33:53.1	92.540	-0.030	-0.660	0.840
2020/01/31 05:33:53.2	92.540	-0.010	-0.670	0.880
2020/01/31 05:33:53.3	92.520	0.010	-0.670	0.910
2020/01/31 05:33:53.4	92.510	0.020	-0.670	0.940
2020/01/31 05:33:53.5	92.500	0.030	-0.670	0.970
2020/01/31 05:33:53.6	92.490	0.040	-0.660	1.000
2020/01/31 05:33:53.7	92.480	0.050	-0.650	1.030
2020/01/31 05:33:53.8	92.470	0.060	-0.640	1.050
2020/01/31 05:33:53.9	92.460	0.060	-0.620	1.080
2020/01/31 05:33:54.0	92.450	0.070	-0.600	1.100
2020/01/31 05:33:54.1	92.440	0.070	-0.580	1.120
2020/01/31 05:33:54.2	92.430	0.060	-0.550	1.140
2020/01/31 05:33:54.3	92.420	0.060	-0.530	1.150
2020/01/31 05:33:54.4	92.420	0.050	-0.500	1.160
2020/01/31 05:33:54.5	92.410	0.040	-0.460	1.170
2020/01/31 05:33:54.6	92.410	0.030	-0.430	1.170
2020/01/31 05:33:54.7	92.400	0.020	-0.390	1.170
2020/01/31 05:33:54.8	92.400	0.010	-0.350	1.170
2020/01/31 05:33:54.9	92.400	-0.010	-0.310	1.160
2020/01/31 05:33:55.0	92.400	-0.030	-0.270	1.160
2020/01/31 05:33:55.1	92.400	-0.040	-0.230	1.140
2020/01/31 05:33:55.2	92.400	-0.060	-0.190	1.130
2020/01/31 05:33:55.3	92.410	-0.080	-0.150	1.110
2020/01/31 05:33:55.4	92.410	-0.100	-0.110	1.100
2020/01/31 05:33:55.5	92.420	-0.120	-0.070	1.080
2020/01/31 05:33:55.6	92.430	-0.140	-0.030	1.060
2020/01/31 05:33:55.7	92.440	-0.160	0.000	1.040
2020/01/31 05:33:55.8	92.450	-0.180	0.040	1.020
2020/01/31 05:33:55.9	92.460	-0.190	0.070	1.000
2020/01/31 05:33:56.0	92.460	-0.210	0.100	0.970
2020/01/31 05:33:56.1	92.470	-0.220	0.120	0.950
2020/01/31 05:33:56.2	92.470	-0.240	0.150	0.930
2020/01/31 05:33:56.3	92.480	-0.250	0.170	0.910
2020/01/31 05:33:56.4	92.490	-0.260	0.190	0.890
2020/01/31 05:33:56.5	92.500	-0.270	0.210	0.870
2020/01/31 05:33:56.6	92.500	-0.270	0.220	0.850
2020/01/31 05:33:56.7	92.510	-0.280	0.230	0.830
2020/01/31 05:33:56.8	92.520	-0.280	0.240	0.820
2020/01/31 05:33:56.9	92.520	-0.280	0.240	0.800
2020/01/31 05:33:57.0	92.520	-0.280	0.240	0.780
2020/01/31 05:33:57.1	92.530	-0.280	0.240	0.770
2020/01/31 05:33:57.2	92.530	-0.280	0.240	0.760
2020/01/31 05:33:57.3	92.530	-0.270	0.230	0.740
2020/01/31 05:33:57.4	92.530	-0.260	0.220	0.730
2020/01/31 05:33:57.5	92.530	-0.250	0.210	0.730
2020/01/31 05:33:57.6	92.520	-0.240	0.190	0.720
2020/01/31 05:33:57.7	92.520	-0.230	0.180	0.710
2020/01/31 05:33:57.8	92.510	-0.220	0.160	0.710
2020/01/31 05:33:57.9	92.500	-0.210	0.140	0.710
2020/01/31 05:33:58.0	92.490	-0.190	0.120	0.710
2020/01/31 05:33:58.1	92.470	-0.180	0.090	0.720
2020/01/31 05:33:58.2	92.450	-0.160	0.070	0.720
2020/01/31 05:33:58.3	92.430	-0.140	0.050	0.730
2020/01/31 05:33:58.4	92.410	-0.130	0.020	0.740
2020/01/31 05:33:58.5	92.390	-0.110	-0.000	0.750
2020/01/31 05:33:58.6	92.370	-0.090	-0.030	0.760
2020/01/31 05:33:58.7	92.340	-0.070	-0.060	0.770
2020/01/31 05:33:58.8	92.320	-0.050	-0.080	0.790
2020/01/31 05:33:58.9	92.300	-0.040	-0.110	0.800
2020/01/31 05:33:59.0	92.270	-0.020	-0.140	0.810
2020/01/31 05:33:59.1	92.250	-0.000	-0.170	0.820
2020/01/31 05:33:59.2	92.230	0.020	-0.200	0.830
2020/01/31 05:33:59.3	92.210	0.030	-0.230	0.830
2020/01/31 05:33:59.4	92.180	0.050	-0.260	0.840
2020/01/31 05:33:59.5	92.160	0.070	-0.290	0.840
2020/01/31 05:33:59.6	92.150	0.090	-0.320	0.840
2020/01/31 05:33:59.7	92.130	0.110	-0.360	0.840
2020/01/31 05:33:59.8	92.110	0.120	-0.390	0.840
2020/01/31 05:33:59.9	92.100	0.140	-0.430	0.830
2020/01/31 05:34:00.0	92.090	0.160	-0.460	0.830
2020/01/31 05:34:00.1	92.080	0.180	-0.500	0.820
2020/01/31 05:34:00.2	92.070	0.200	-0.530	0.820
2020/01/31 05:34:00.3	92.060	0.210	-0.570	0.810
2020/01/31 05:34:00.4	92.060	0.230	-0.600	0.800
2020/01/31 05:34:00.5	92.050	0.250	-0.640	0.790
2020/01/31 05:34:00.6	92.050	0.260	-0.670	0.780
2020/01/31 05:34:00.7	92.050	0.280	-0.700	0.770
2020/01/31 05:34:00.8	92.050	0.290	-0.730	0.760
2020/01/31 05:34:00.9	92.050	0.300	-0.750	0.750
2020/01/31 05:34:01.0	92.050	0.320	-0.770	0.740
2020/01/31 05:34:01.1	92.050	0.330	-0.780	0.730
2020/01/31 05:34:01.2	92.060	0.330	-0.800	0.710
2020/01/31 05:34:01.3	92.060	0.340	-0.800	0.700
2020/01/31 05:34:01.4	92.060	0.350	-0.800	0.690
2020/01/31 05:34:01.5	92.070	0.350	-0.790	0.690
2020/01/31 05:34:01.6	92.070	0.350	-0.770	0.680
2020/01/31 05:34:01.7	92.070	0.350	-0.750	0.680
2020/01/31 05:34:01.8	92.070	0.350	-0.720	0.680
2020/01/31 05:34:01.9	92.080	0.350	-0.690	0.670
2020/01/31 05:34:02.0	92.080	0.340	-0.650	0.670
2020/01/31 05:34:02.1	92.080	0.330	-0.600	0.670
2020/01/31 05:34:02.2	92.090	0.320	-0.540	0.680
2020/01/31 05:34:02.3	92.090	0.310	-0.490	0.680
2020/01/31 05:34:02.4	92.090	0.290	-0.420	0.680
2020/01/31 05:34:02.5	92.090	0.280	-0.350	0.680
2020/01/31 05:34:02.6	92.090	0.260	-0.280	0.690
2020/01/31 05:34:02.7	92.090	0.240	-0.210	0.700
2020/01/31 05:34:02.8	92.090	0.220	-0.130	0.700
2020/01/31 05:34:02.9	92.090	0.200	-0.050	0.710
2020/01/31 05:34:03.0	92.090	0.170	0.030	0.730
2020/01/31 05:34:03.1	92.090	0.150	0.100	0.740
2020/01/31 05:34:03.2	92.080	0.130	0.180	0.750
2020/01/31 05:34:03.3	92.070	0.100	0.250	0.770
2020/01/31 05:34:03.4	92.070	0.080	0.320	0.780
2020/01/31 05:34:03.5	92.060	0.050	0.380	0.810
2020/01/31 05:34:03.6	92.060	0.030	0.440	0.830
2020/01/31 05:34:03.7	92.050	0.010	0.490	0.850
2020/01/31 05:34:03.8	92.040	-0.010	0.540	0.880
2020/01/31 05:34:03.9	92.030	-0.030	0.570	0.910
2020/01/31 05:34:04.0	92.020	-0.040	0.600	0.930
2020/01/31 05:34:04.1	92.010	-0.060	0.620	0.960
2020/01/31 05:34:04.2	92.000	-0.070	0.630	0.990
2020/01/31 05:34:04.3	91.990	-0.080	0.630	1.020
2020/01/31 05:34:04.4	91.980	-0.080	0.610	1.040
2020/01/31 05:34:04.5	91.970	-0.080	0.590	1.070
2020/01/31 05:34:04.6	91.960	-0.080	0.550	1.100
2020/01/31 05:34:04.7	91.950	-0.080	0.510	1.120
2020/01/31 05:34:04.8	91.950	-0.070	0.450	1.140
2020/01/31 05:34:04.9	91.940	-0.060	0.390	1.160
2020/01/31 05:34:05.0	91.930	-0.040	0.310	1.180
2020/01/31 05:34:05.1	91.930	-0.020	0.230	1.200
2020/01/31 05:34:05.2	91.920	0.000	0.130	1.210
2020/01/31 05:34:05.3	91.910	0.030	0.030	1.210
2020/01/31 05:34:05.4	91.910	0.050	-0.070	1.220
2020/01/31 05:34:05.5	91.910	0.090	-0.180	1.220
2020/01/31 05:34:05.6	91.920	0.120	-0.300	1.220
2020/01/31 05:34:05.7	91.920	0.160	-0.410	1.210
2020/01/31 05:34:05.8	91.920	0.190	-0.530	1.210
2020/01/31 05:34:05.9	91.930	0.230	-0.640	1.200
2020/01/31 05:34:06.0	91.940	0.270	-0.760	1.190
2020/01/31 05:34:06.1	91.940	0.310	-0.870	1.180
2020/01/31 05:34:06.2	91.950	0.340	-0.970	1.170
2020/01/31 05:34:06.3	91.960	0.380	-1.070	1.150
2020/01/31 05:34:06.4	91.970	0.410	-1.160	1.150
2020/01/31 05:34:06.5	91.970	0.440	-1.230	1.140
2020/01/31 05:34:06.6	91.980	0.470	-1.300	1.130
2020/01/31 05:34:06.7	91.980	0.500	-1.350	1.130
2020/01/31 05:34:06.8	91.990	0.510	-1.390	1.130
2020/01/31 05:34:06.9	91.990	0.530	-1.420	1.130
2020/01/31 05:34:07.0	91.990	0.540	-1.420	1.130
2020/01/31 05:34:07.1	91.980	0.540	-1.420	1.130
2020/01/31 05:34:07.2	91.990	0.540	-1.400	1.140
2020/01/31 05:34:07.3	91.980	0.530	-1.360	1.140
2020/01/31 05:34:07.4	91.980	0.510	-1.300	1.150
2020/01/31 05:34:07.5	91.970	0.490	-1.230	1.160
2020/01/31 05:34:07.6	91.960	0.460	-1.150	1.170
2020/01/31 05:34:07.7	91.950	0.420	-1.050	1.180
2020/01/31 05:34:07.8	91.930	0.380	-0.940	1.190
2020/01/31 05:34:07.9	91.920	0.330	-0.820	1.190
2020/01/31 05:34:08.0	91.900	0.280	-0.690	1.200
2020/01/31 05:34:08.1	91.880	0.220	-0.550	1.210
2020/01/31 05:34:08.2	91.860	0.160	-0.400	1.210
2020/01/31 05:34:08.3	91.840	0.090	-0.250	1.220
2020/01/31 05:34:08.4	91.820	0.020	-0.100	1.220
2020/01/31 05:34:08.5	91.800	-0.060	0.050	1.220
2020/01/31 05:34:08.6	91.780	-0.130	0.210	1.230
2020/01/31 05:34:08.7	91.760	-0.210	0.360	1.220
2020/01/31 05:34:08.8	91.740	-0.290	0.510	1.220
2020/01/31 05:34:08.9	91.710	-0.370	0.650	1.220
2020/01/31 05:34:09.0	91.690	-0.450	0.780	1.210
2020/01/31 05:34:09.1	91.670	-0.530	0.900	1.200
2020/01/31 05:34:09.2	91.660	-0.600	1.020	1.180
2020/01/31 05:34:09.3	91.640	-0.670	1.120	1.160
2020/01/31 05:34:09.4	91.620	-0.740	1.200	1.140
2020/01/31 05:34:09.5	91.610	-0.800	1.280	1.120
2020/01/31 05:34:09.6	91.600	-0.860	1.330	1.100
2020/01/31 05:34:09.7	91.590	-0.910	1.370	1.070
2020/01/31 05:34:09.8	91.580	-0.960	1.400	1.040
2020/01/31 05:34:09.9	91.570	-0.990	1.400	1.010
2020/01/31 05:34:10.0	91.560	-1.020	1.390	0.970
2020/01/31 05:34:10.1	91.560	-1.040	1.360	0.930
2020/01/31 05:34:10.2	91.560	-1.050	1.320	0.890
2020/01/31 05:34:10.3	91.560	-1.060	1.250	0.850
2020/01/31 05:34:10.4	91.560	-1.050	1.170	0.820
2020/01/31 05:34:10.5	91.560	-1.040	1.080	0.780
2020/01/31 05:34:10.6	91.560	-1.020	0.970	0.730
2020/01/31 05:34:10.7	91.560	-0.990	0.850	0.690
2020/01/31 05:34:10.8	91.560	-0.950	0.720	0.650
2020/01/31 05:34:10.9	91.560	-0.910	0.570	0.610
2020/01/31 05:34:11.0	91.560	-0.860	0.420	0.570
2020/01/31 05:34:11.1	91.570	-0.800	0.270	0.530
2020/01/31 05:34:11.2	91.580	-0.740	0.100	0.490
2020/01/31 05:34:11.3	91.580	-0.670	-0.060	0.450
2020/01/31 05:34:11.4	91.580	-0.600	-0.230	0.410
2020/01/31 05:34:11.5	91.590	-0.530	-0.400	0.370
2020/01/31 05:34:11.6	91.590	-0.450	-0.560	0.340
2020/01/31 05:34:11.7	91.600	-0.370	-0.720	0.300
2020/01/31 05:34:11.8	91.610	-0.280	-0.880	0.260
2020/01/31 05:34:11.9	91.620	-0.200	-1.030	0.230
2020/01/31 05:34:12.0	91.630	-0.120	-1.170	0.200
2020/01/31 05:34:12.1	91.640	-0.040	-1.300	0.170
2020/01/31 05:34:12.2	91.650	0.050	-1.430	0.140
2020/01/31 05:34:12.3	91.670	0.120	-1.540	0.120
2020/01/31 05:34:12.4	91.680	0.200	-1.640	0.100
2020/01/31 05:34:12.5	91.690	0.270	-1.720	0.080
2020/01/31 05:34:12.6	91.710	0.340	-1.780	0.070
2020/01/31 05:34:12.7	91.720	0.400	-1.830	0.060
2020/01/31 05:34:12.8	91.730	0.450	-1.860	0.060
2020/01/31 05:34:12.9	91.740	0.500	-1.880	0.060
2020/01/31 05:34:13.0	91.750	0.540	-1.870	0.070
2020/01/31 05:34:13.1	91.750	0.580	-1.850	0.080
2020/01/31 05:34:13.2	91.760	0.610	-1.810	0.100
2020/01/31 05:34:13.3	91.760	0.630	-1.750	0.120
2020/01/31 05:34:13.4	91.760	0.640	-1.680	0.140
2020/01/31 05:34:13.5	91.760	0.650	-1.600	0.170
2020/01/31 05:34:13.6	91.760	0.650	-1.490	0.200
2020/01/31 05:34:13.7	91.750	0.640	-1.380	0.230
2020/01/31 05:34:13.8	91.750	0.630	-1.250	0.260
2020/01/31 05:34:13.9	91.740	0.610	-1.110	0.290
2020/01/31 05:34:14.0	91.720	0.580	-0.960	0.330
2020/01/31 05:34:14.1	91.710	0.550	-0.800	0.360
2020/01/31 05:34:14.2	91.680	0.510	-0.630	0.400
2020/01/31 05:34:14.3	91.660	0.470	-0.460	0.430
2020/01/31 05:34:14.4	91.640	0.420	-0.290	0.470
2020/01/31 05:34:14.5	91.610	0.370	-0.110	0.500
2020/01/31 05:34:14.6	91.580	0.320	0.060	0.540
2020/01/31 05:34:14.7	91.550	0.260	0.230	0.580
2020/01/31 05:34:14.8	91.520	0.200	0.390	0.610
2020/01/31 05:34:14.9	91.490	0.140	0.540	0.650
2020/01/31 05:34:15.0	91.460	0.090	0.690	0.680
2020/01/31 05:34:15.1	91.420	0.030	0.830	0.720
2020/01/31 05:34:15.2	91.380	-0.030	0.950	0.750
2020/01/31 05:34:15.3	91.350	-0.080	1.060	0.780
2020/01/31 05:34:15.4	91.310	-0.130	1.150	0.810
2020/01/31 05:34:15.5	91.280	-0.180	1.230	0.840
2020/01/31 05:34:15.6	91.250	-0.230	1.280	0.870
2020/01/31 05:34:15.7	91.220	-0.260	1.320	0.890
2020/01/31 05:34:15.8	91.190	-0.300	1.340	0.910
2020/01/31 05:34:15.9	91.160	-0.320	1.340	0.930
2020/01/31 05:34:16.0	91.140	-0.340	1.320	0.950
2020/01/31 05:34:16.1	91.110	-0.360	1.280	0.960
2020/01/31 05:34:16.2	91.100	-0.360	1.220	0.960
2020/01/31 05:34:16.3	91.090	-0.360	1.150	0.960
2020/01/31 05:34:16.4	91.080	-0.360	1.050	0.960
2020/01/31 05:34:16.5	91.070	-0.340	0.940	0.950
2020/01/31 05:34:16.6	91.070	-0.330	0.820	0.940
2020/01/31 05:34:16.7	91.070	-0.300	0.680	0.920
2020/01/31 05:34:16.8	91.080	-0.270	0.540	0.900
2020/01/31 05:34:16.9	91.080	-0.240	0.390	0.880
2020/01/31 05:34:17.0	91.090	-0.200	0.230	0.850
2020/01/31 05:34:17.1	91.100	-0.150	0.070	0.820
2020/01/31 05:34:17.2	91.110	-0.110	-0.100	0.790
2020/01/31 05:34:17.3	91.120	-0.060	-0.260	0.760
2020/01/31 05:34:17.4	91.140	-0.010	-0.420	0.730
2020/01/31 05:34:17.5	91.160	0.040	-0.570	0.690
2020/01/31 05:34:17.6	91.170	0.090	-0.710	0.660
2020/01/31 05:34:17.7	91.190	0.130	-0.850	0.630
2020/01/31 05:34:17.8	91.210	0.180	-0.970	0.610
2020/01/31 05:34:17.9	91.220	0.220	-1.080	0.580
2020/01/31 05:34:18.0	91.240	0.270	-1.170	0.560
2020/01/31 05:34:18.1	91.250	0.300	-1.250	0.540
2020/01/31 05:34:18.2	91.280	0.340	-1.320	0.520
2020/01/31 05:34:18.3	91.290	0.370	-1.360	0.510
2020/01/31 05:34:18.4	91.300	0.390	-1.390	0.500
2020/01/31 05:34:18.5	91.310	0.410	-1.410	0.500
2020/01/31 05:34:18.6	91.320	0.420	-1.400	0.510
2020/01/31 05:34:18.7	91.330	0.430	-1.380	0.520
2020/01/31 05:34:18.8	91.330	0.430	-1.340	0.530
2020/01/31 05:34:18.9	91.330	0.420	-1.290	0.560
2020/01/31 05:34:19.0	91.330	0.410	-1.220	0.590
2020/01/31 05:34:19.1	91.320	0.390	-1.140	0.620
2020/01/31 05:34:19.2	91.320	0.370	-1.050	0.660
2020/01/31 05:34:19.3	91.310	0.340	-0.940	0.700
2020/01/31 05:34:19.4	91.300	0.300	-0.830	0.750
2020/01/31 05:34:19.5	91.280	0.260	-0.710	0.800
2020/01/31 05:34:19.6	91.270	0.220	-0.590	0.850
2020/01/31 05:34:19.7	91.260	0.170	-0.460	0.900
2020/01/31 05:34:19.8	91.240	0.120	-0.330	0.950
2020/01/31 05:34:19.9	91.220	0.060	-0.200	1.010
2020/01/31 05:34:20.0	91.200	0.000	-0.070	1.060
2020/01/31 05:34:20.1	91.180	-0.050	0.050	1.110
2020/01/31 05:34:20.2	91.160	-0.110	0.180	1.160
2020/01/31 05:34:20.3	91.140	-0.170	0.290	1.210
2020/01/31 05:34:20.4	91.120	-0.230	0.400	1.250
2020/01/31 05:34:20.5	91.090	-0.290	0.500	1.290
2020/01/31 05:34:20.6	91.070	-0.340	0.580	1.320
2020/01/31 05:34:20.7	91.050	-0.390	0.660	1.350
2020/01/31 05:34:20.8	91.030	-0.440	0.730	1.380
2020/01/31 05:34:20.9	91.010	-0.480	0.780	1.400
2020/01/31 05:34:21.0	90.990	-0.520	0.820	1.410
2020/01/31 05:34:21.1	90.970	-0.550	0.840	1.420
2020/01/31 05:34:21.2	90.950	-0.570	0.850	1.410
2020/01/31 05:34:21.3	90.940	-0.590	0.840	1.400
2020/01/31 05:34:21.4	90.930	-0.600	0.820	1.390
2020/01/31 05:34:21.5	90.920	-0.610	0.790	1.370
2020/01/31 05:34:21.6	90.920	-0.600	0.740	1.350
2020/01/31 05:34:21.7	90.910	-0.590	0.680	1.330
2020/01/31 05:34:21.8	90.910	-0.570	0.610	1.300
2020/01/31 05:34:21.9	90.910	-0.540	0.530	1.270
2020/01/31 05:34:22.0	90.920	-0.510	0.450	1.240
2020/01/31 05:34:22.1	90.920	-0.470	0.350	1.200
2020/01/31 05:34:22.2	90.930	-0.420	0.250	1.170
2020/01/31 05:34:22.3	90.940	-0.370	0.140	1.130
2020/01/31 05:34:22.4	90.960	-0.310	0.040	1.090
2020/01/31 05:34:22.5	90.970	-0.250	-0.070	1.060
2020/01/31 05:34:22.6	90.990	-0.190	-0.180	1.030
2020/01/31 05:34:22.7	91.000	-0.120	-0.280	0.990
2020/01/31 05:34:22.8	91.020	-0.050	-0.380	0.960
2020/01/31 05:34:22.9	91.040	0.010	-0.480	0.930
2020/01/31 05:34:23.0	91.060	0.080	-0.570	0.900
2020/01/31 05:34:23.1	91.070	0.150	-0.660	0.880
2020/01/31 05:34:23.2	91.080	0.220	-0.740	0.850
2020/01/31 05:34:23.3	91.100	0.280	-0.810	0.830
2020/01/31 05:34:23.4	91.110	0.340	-0.860	0.810
2020/01/31 05:34:23.5	91.120	0.400	-0.910	0.790
2020/01/31 05:34:23.6	91.130	0.450	-0.950	0.780
2020/01/31 05:34:23.7	91.130	0.500	-0.980	0.760
2020/01/31 05:34:23.8	91.140	0.540	-1.000	0.750
2020/01/31 05:34:23.9	91.140	0.570	-1.010	0.730
2020/01/31 05:34:24.0	91.140	0.600	-1.010	0.720
2020/01/31 05:34:24.1	91.130	0.630	-0.990	0.700
2020/01/31 05:34:24.2	91.130	0.640	-0.970	0.680
2020/01/31 05:34:24.3	91.120	0.650	-0.940	0.660
2020/01/31 05:34:24.4	91.110	0.650	-0.900	0.650
2020/01/31 05:34:24.5	91.100	0.650	-0.850	0.630
2020/01/31 05:34:24.6	91.090	0.640	-0.790	0.620
2020/01/31 05:34:24.7	91.080	0.620	-0.720	0.600
2020/01/31 05:34:24.8	91.070	0.590	-0.650	0.590
2020/01/31 05:34:24.9	91.050	0.560	-0.570	0.580
2020/01/31 05:34:25.0	91.030	0.530	-0.490	0.570
2020/01/31 05:34:25.1	91.010	0.490	-0.400	0.560
2020/01/31 05:34:25.2	90.990	0.450	-0.310	0.550
2020/01/31 05:34:25.3	90.970	0.400	-0.210	0.550
2020/01/31 05:34:25.4	90.950	0.350	-0.120	0.550
2020/01/31 05:34:25.5	90.930	0.290	-0.030	0.550
2020/01/31 05:34:25.6	90.900	0.240	0.060	0.560
2020/01/31 05:34:25.7	90.880	0.180	0.150	0.570
2020/01/31 05:34:25.8	90.860	0.130	0.230	0.580
2020/01/31 05:34:25.9	90.840	0.070	0.310	0.590
2020/01/31 05:34:26.0	90.820	0.020	0.380	0.600
2020/01/31 05:34:26.1	90.800	-0.040	0.450	0.620
2020/01/31 05:34:26.2	90.780	-0.090	0.500	0.630
2020/01/31 05:34:26.3	90.760	-0.140	0.550	0.640
2020/01/31 05:34:26.4	90.750	-0.180	0.590	0.660
2020/01/31 05:34:26.5	90.730	-0.220	0.620	0.670
2020/01/31 05:34:26.6	90.720	-0.250	0.630	0.690
2020/01/31 05:34:26.7	90.710	-0.280	0.640	0.700
2020/01/31 05:34:26.8	90.700	-0.310	0.630	0.710
2020/01/31 05:34:26.9	90.690	-0.330	0.610	0.710
2020/01/31 05:34:27.0	90.680	-0.340	0.590	0.720
2020/01/31 05:34:27.1	90.680	-0.350	0.550	0.720
2020/01/31 05:34:27.2	90.660	-0.350	0.490	0.710
2020/01/31 05:34:27.3	90.660	-0.350	0.430	0.710
2020/01/31 05:34:27.4	90.660	-0.340	0.370	0.700
2020/01/31 05:34:27.5	90.670	-0.330	0.290	0.690
2020/01/31 05:34:27.6	90.670	-0.310	0.210	0.680
2020/01/31 05:34:27.7	90.680	-0.290	0.120	0.660
2020/01/31 05:34:27.8	90.690	-0.260	0.020	0.640
2020/01/31 05:34:27.9	90.700	-0.230	-0.080	0.630
2020/01/31 05:34:28.0	90.710	-0.190	-0.180	0.610
2020/01/31 05:34:28.1	90.720	-0.160	-0.280	0.590
2020/01/31 05:34:28.2	90.740	-0.120	-0.390	0.570
2020/01/31 05:34:28.3	90.760	-0.080	-0.490	0.560
2020/01/31 05:34:28.4	90.770	-0.040	-0.590	0.550
2020/01/31 05:34:28.5	90.790	0.000	-0.680	0.540
2020/01/31 05:34:28.6	90.800	0.040	-0.770	0.540
2020/01/31 05:34:28.7	90.820	0.080	-0.850	0.550
2020/01/31 05:34:28.8	90.830	0.110	-0.930	0.550
2020/01/31 05:34:28.9	90.840	0.150	-0.990	0.570
2020/01/31 05:34:29.0	90.860	0.180	-1.050	0.590
2020/01/31 05:34:29.1	90.870	0.200	-1.100	0.610
2020/01/31 05:34:29.2	90.880	0.220	-1.130	0.630
2020/01/31 05:34:29.3	90.890	0.240	-1.160	0.660
2020/01/31 05:34:29.4	90.900	0.250	-1.170	0.690
2020/01/31 05:34:29.5	90.910	0.260	-1.170	0.730
2020/01/31 05:34:29.6	90.910	0.260	-1.170	0.760
2020/01/31 05:34:29.7	90.920	0.260	-1.150	0.800
2020/01/31 05:34:29.8	90.930	0.250	-1.120	0.840
2020/01/31 05:34:29.9	90.930	0.230	-1.070	0.880
2020/01/31 05:34:30.0	90.940	0.210	-1.020	0.920
2020/01/31 05:34:30.1	90.940	0.180	-0.960	0.960
2020/01/31 05:34:30.2	90.940	0.150	-0.900	1.000
2020/01/31 05:34:30.3	90.940	0.120	-0.820	1.040
2020/01/31 05:34:30.4	90.940	0.080	-0.740	1.080
2020/01/31 05:34:30.5	90.940	0.030	-0.650	1.120
2020/01/31 05:34:30.6	90.930	-0.010	-0.550	1.160
2020/01/31 05:34:30.7	90.930	-0.060	-0.450	1.190
2020/01/31 05:34:30.8	90.930	-0.120	-0.350	1.230
2020/01/31 05:34:30.9	90.920	-0.170	-0.250	1.270
2020/01/31 05:34:31.0	90.920	-0.220	-0.150	1.310
2020/01/31 05:34:31.1	90.910	-0.280	-0.050	1.350
2020/01/31 05:34:31.2	90.900	-0.330	0.050	1.380
2020/01/31 05:34:31.3	90.890	-0.380	0.140	1.420
2020/01/31 05:34:31.4	90.880	-0.430	0.230	1.450
2020/01/31 05:34:31.5	90.880	-0.480	0.320	1.490
2020/01/31 05:34:31.6	90.860	-0.530	0.400	1.520
2020/01/31 05:34:31.7	90.850	-0.570	0.470	1.550
2020/01/31 05:34:31.8	90.840	-0.610	0.530	1.580
2020/01/31 05:34:31.9	90.830	-0.650	0.580	1.610
2020/01/31 05:34:32.0	90.820	-0.680	0.630	1.640
2020/01/31 05:34:32.1	90.810	-0.710	0.660	1.660
2020/01/31 05:34:32.2	90.800	-0.730	0.680	1.680
2020/01/31 05:34:32.3	90.790	-0.740	0.700	1.700
2020/01/31 05:34:32.4	90.770	-0.750	0.710	1.710
2020/01/31 05:34:32.5	90.760	-0.760	0.700	1.720
2020/01/31 05:34:32.6	90.740	-0.760	0.690	1.720
2020/01/31 05:34:32.7	90.730	-0.750	0.660	1.720
2020/01/31 05:34:32.8	90.710	-0.740	0.630	1.720
2020/01/31 05:34:32.9	90.700	-0.730	0.590	1.700
2020/01/31 05:34:33.0	90.680	-0.710	0.540	1.690
2020/01/31 05:34:33.1	90.670	-0.680	0.490	1.660
2020/01/31 05:34:33.2	90.650	-0.650	0.420	1.630
2020/01/31 05:34:33.3	90.640	-0.610	0.350	1.600
2020/01/31 05:34:33.4	90.620	-0.570	0.280	1.560
2020/01/31 05:34:33.5	90.610	-0.530	0.200	1.510
2020/01/31 05:34:33.6	90.600	-0.480	0.120	1.460
2020/01/31 05:34:33.7	90.590	-0.420	0.030	1.410
2020/01/31 05:34:33.8	90.580	-0.370	-0.050	1.350
2020/01/31 05:34:33.9	90.580	-0.310	-0.140	1.280
2020/01/31 05:34:34.0	90.570	-0.250	-0.230	1.220
2020/01/31 05:34:34.1	90.570	-0.190	-0.320	1.150
2020/01/31 05:34:34.2	90.570	-0.130	-0.400	1.080
2020/01/31 05:34:34.3	90.580	-0.060	-0.490	1.010
2020/01/31 05:34:34.4	90.580	0.010	-0.570	0.940
2020/01/31 05:34:34.5	90.590	0.070	-0.640	0.870
2020/01/31 05:34:34.6	90.600	0.140	-0.710	0.810
2020/01/31 05:34:34.7	90.620	0.210	-0.780	0.740
2020/01/31 05:34:34.8	90.630	0.280	-0.840	0.680
2020/01/31 05:34:34.9	90.650	0.340	-0.890	0.620
2020/01/31 05:34:35.0	90.670	0.410	-0.940	0.570
2020/01/31 05:34:35.1	90.690	0.470	-0.980	0.510
2020/01/31 05:34:35.2	90.720	0.530	-1.010	0.460
2020/01/31 05:34:35.3	90.750	0.590	-1.040	0.410
2020/01/31 05:34:35.4	90.770	0.650	-1.060	0.370
2020/01/31 05:34:35.5	90.800	0.700	-1.060	0.320
2020/01/31 05:34:35.6	90.830	0.750	-1.070	0.290
2020/01/31 05:34:35.7	90.860	0.790	-1.060	0.260
2020/01/31 05:34:35.8	90.890	0.830	-1.040	0.230
2020/01/31 05:34:35.9	90.920	0.860	-1.020	0.200
2020/01/31 05:34:36.0	90.950	0.890	-0.990	0.180
2020/01/31 05:34:36.1	90.980	0.910	-0.960	0.160
2020/01/31 05:34:36.2	91.010	0.930	-0.910	0.150
2020/01/31 05:34:36.3	91.040	0.940	-0.860	0.140
2020/01/31 05:34:36.4	91.060	0.950	-0.810	0.130
2020/01/31 05:34:36.5	91.080	0.950	-0.740	0.120
2020/01/31 05:34:36.6	91.100	0.940	-0.680	0.120
2020/01/31 05:34:36.7	91.120	0.920	-0.600	0.120
2020/01/31 05:34:36.8	91.130	0.900	-0.530	0.120
2020/01/31 05:34:36.9	91.140	0.880	-0.450	0.130
2020/01/31 05:34:37.0	91.150	0.850	-0.370	0.130
2020/01/31 05:34:37.1	91.160	0.810	-0.280	0.140
2020/01/31 05:34:37.2	91.170	0.770	-0.200	0.150
2020/01/31 05:34:37.3	91.170	0.720	-0.110	0.160
2020/01/31 05:34:37.4	91.170	0.670	-0.030	0.170
2020/01/31 05:34:37.5	91.160	0.620	0.060	0.180
2020/01/31 05:34:37.6	91.160	0.560	0.140	0.200
2020/01/31 05:34:37.7	91.150	0.500	0.220	0.210
2020/01/31 05:34:37.8	91.140	0.430	0.300	0.230
2020/01/31 05:34:37.9	91.120	0.370	0.380	0.250
2020/01/31 05:34:38.0	91.110	0.300	0.450	0.280
2020/01/31 05:34:38.1	91.090	0.230	0.520	0.300
2020/01/31 05:34:38.2	91.070	0.170	0.590	0.330
2020/01/31 05:34:38.3	91.050	0.100	0.640	0.350
2020/01/31 05:34:38.4	91.030	0.030	0.700	0.380
2020/01/31 05:34:38.5	91.010	-0.030	0.740	0.410
2020/01/31 05:34:38.6	91.000	-0.090	0.780	0.440
2020/01/31 05:34:38.7	90.980	-0.150	0.810	0.470
2020/01/31 05:34:38.8	90.960	-0.210	0.830	0.500
2020/01/31 05:34:38.9	90.950	-0.260	0.850	0.520
2020/01/31 05:34:39.0	90.940	-0.310	0.850	0.550
2020/01/31 05:34:39.1	90.930	-0.350	0.850	0.580
2020/01/31 05:34:39.2	90.910	-0.390	0.840	0.600
2020/01/31 05:34:39.3	90.910	-0.430	0.820	0.620
2020/01/31 05:34:39.4	90.910	-0.460	0.790	0.640
2020/01/31 05:34:39.5	90.910	-0.480	0.750	0.660
2020/01/31 05:34:39.6	90.910	-0.500	0.700	0.680
2020/01/31 05:34:39.7	90.920	-0.510	0.650	0.700
2020/01/31 05:34:39.8	90.930	-0.520	0.580	0.720
2020/01/31 05:34:39.9	90.940	-0.520	0.510	0.730
2020/01/31 05:34:40.0	90.960	-0.510	0.430	0.740
2020/01/31 05:34:40.1	90.980	-0.510	0.350	0.750
2020/01/31 05:34:40.2	90.990	-0.490	0.260	0.760
2020/01/31 05:34:40.3	91.010	-0.470	0.160	0.770
2020/01/31 05:34:40.4	91.040	-0.450	0.060	0.780
2020/01/31 05:34:40.5	91.070	-0.420	-0.040	0.780
2020/01/31 05:34:40.6	91.090	-0.390	-0.150	0.780
2020/01/31 05:34:40.7	91.120	-0.360	-0.250	0.780
2020/01/31 05:34:40.8	91.150	-0.320	-0.350	0.780
2020/01/31 05:34:40.9	91.190	-0.280	-0.460	0.780
2020/01/31 05:34:41.0	91.220	-0.250	-0.550	0.770
2020/01/31 05:34:41.1	91.250	-0.210	-0.650	0.760
2020/01/31 05:34:41.2	91.280	-0.170	-0.750	0.760
2020/01/31 05:34:41.3	91.310	-0.130	-0.830	0.750
2020/01/31 05:34:41.4	91.340	-0.090	-0.910	0.740
2020/01/31 05:34:41.5	91.370	-0.060	-0.970	0.740
2020/01/31 05:34:41.6	91.390	-0.020	-1.040	0.740
2020/01/31 05:34:41.7	91.410	0.010	-1.090	0.740
2020/01/31 05:34:41.8	91.430	0.040	-1.130	0.740
2020/01/31 05:34:41.9	91.450	0.070	-1.160	0.750
2020/01/31 05:34:42.0	91.460	0.100	-1.180	0.760
2020/01/31 05:34:42.1	91.460	0.120	-1.190	0.770
2020/01/31 05:34:42.2	91.470	0.140	-1.190	0.790
2020/01/31 05:34:42.3	91.470	0.150	-1.180	0.820
2020/01/31 05:34:42.4	91.470	0.160	-1.160	0.840
2020/01/31 05:34:42.5	91.460	0.170	-1.120	0.870
2020/01/31 05:34:42.6	91.450	0.180	-1.080	0.910
2020/01/31 05:34:42.7	91.440	0.180	-1.040	0.950
2020/01/31 05:34:42.8	91.420	0.170	-0.980	0.990
2020/01/31 05:34:42.9	91.400	0.170	-0.920	1.030
2020/01/31 05:34:43.0	91.380	0.160	-0.860	1.070
2020/01/31 05:34:43.1	91.350	0.150	-0.780	1.120
2020/01/31 05:34:43.2	91.330	0.140	-0.710	1.160
2020/01/31 05:34:43.3	91.300	0.120	-0.630	1.210
2020/01/31 05:34:43.4	91.270	0.100	-0.550	1.250
2020/01/31 05:34:43.5	91.250	0.080	-0.480	1.280
2020/01/31 05:34:43.6	91.220	0.060	-0.400	1.320
2020/01/31 05:34:43.7	91.200	0.040	-0.320	1.340
2020/01/31 05:34:43.8	91.170	0.010	-0.250	1.360
2020/01/31 05:34:43.9	91.150	-0.010	-0.180	1.380
2020/01/31 05:34:44.0	91.130	-0.040	-0.110	1.390
2020/01/31 05:34:44.1	91.100	-0.060	-0.050	1.390
2020/01/31 05:34:44.2	91.090	-0.090	0.000	1.390
2020/01/31 05:34:44.3	91.080	-0.110	0.050	1.380
2020/01/31 05:34:44.4	91.060	-0.130	0.100	1.360
2020/01/31 05:34:44.5	91.050	-0.160	0.140	1.340
2020/01/31 05:34:44.6	91.030	-0.180	0.170	1.320
2020/01/31 05:34:44.7	91.020	-0.200	0.190	1.290
2020/01/31 05:34:44.8	91.010	-0.220	0.210	1.260
2020/01/31 05:34:44.9	91.000	-0.230	0.220	1.220
2020/01/31 05:34:45.0	90.990	-0.250	0.220	1.180
2020/01/31 05:34:45.1	90.980	-0.260	0.220	1.150
2020/01/31 05:34:45.2	90.970	-0.270	0.210	1.100
2020/01/31 05:34:45.3	90.970	-0.270	0.190	1.060
2020/01/31 05:34:45.4	90.960	-0.270	0.170	1.010
2020/01/31 05:34:45.5	90.950	-0.270	0.140	0.970
2020/01/31 05:34:45.6	90.950	-0.270	0.100	0.920
2020/01/31 05:34:45.7	90.950	-0.260	0.060	0.870
2020/01/31 05:34:45.8	90.940	-0.250	0.020	0.830
2020/01/31 05:34:45.9	90.940	-0.240	-0.030	0.780
2020/01/31 05:34:46.0	90.940	-0.220	-0.080	0.720
2020/01/31 05:34:46.1	90.940	-0.200	-0.130	0.670
2020/01/31 05:34:46.2	90.950	-0.180	-0.180	0.620
2020/01/31 05:34:46.3	90.950	-0.160	-0.240	0.560
2020/01/31 05:34:46.4	90.960	-0.130	-0.290	0.500
2020/01/31 05:34:46.5	90.960	-0.100	-0.350	0.450
2020/01/31 05:34:46.6	90.970	-0.070	-0.400	0.390
2020/01/31 05:34:46.7	90.970	-0.040	-0.450	0.340
2020/01/31 05:34:46.8	90.980	-0.010	-0.500	0.280
2020/01/31 05:34:46.9	90.990	0.030	-0.540	0.230
2020/01/31 05:34:47.0	91.000	0.060	-0.580	0.170
2020/01/31 05:34:47.1	91.000	0.090	-0.610	0.120
2020/01/31 05:34:47.2	91.020	0.130	-0.650	0.080
2020/01/31 05:34:47.3	91.030	0.160	-0.670	0.030
2020/01/31 05:34:47.4	91.040	0.190	-0.680	-0.010
2020/01/31 05:34:47.5	91.050	0.220	-0.690	-0.040
2020/01/31 05:34:47.6	91.070	0.240	-0.700	-0.070
2020/01/31 05:34:47.7	91.080	0.270	-0.690	-0.090
2020/01/31 05:34:47.8	91.090	0.290	-0.680	-0.110
2020/01/31 05:34:47.9	91.100	0.310	-0.660	-0.120
2020/01/31 05:34:48.0	91.110	0.320	-0.630	-0.120
2020/01/31 05:34:48.1	91.120	0.330	-0.600	-0.120
2020/01/31 05:34:48.2	91.130	0.330	-0.570	-0.110
2020/01/31 05:34:48.3	91.130	0.340	-0.520	-0.090
2020/01/31 05:34:48.4	91.140	0.330	-0.470	-0.060
2020/01/31 05:34:48.5	91.140	0.320	-0.410	-0.020
2020/01/31 05:34:48.6	91.140	0.310	-0.350	0.020
2020/01/31 05:34:48.7	91.140	0.290	-0.290	0.070
2020/01/31 05:34:48.8	91.140	0.270	-0.220	0.120
2020/01/31 05:34:48.9	91.140	0.250	-0.150	0.170
2020/01/31 05:34:49.0	91.130	0.220	-0.080	0.230
2020/01/31 05:34:49.1	91.130	0.190	-0.010	0.300
2020/01/31 05:34:49.2	91.110	0.150	0.070	0.360
2020/01/31 05:34:49.3	91.110	0.120	0.140	0.430
2020/01/31 05:34:49.4	91.100	0.080	0.210	0.490
2020/01/31 05:34:49.5	91.100	0.040	0.280	0.550
2020/01/31 05:34:49.6	91.090	-0.010	0.340	0.610
2020/01/31 05:34:49.7	91.090	-0.050	0.400	0.670
2020/01/31 05:34:49.8	91.090	-0.090	0.450	0.720
2020/01/31 05:34:49.9	91.090	-0.130	0.490	0.770
2020/01/31 05:34:50.0	91.090	-0.180	0.530	0.810
2020/01/31 05:34:50.1	91.090	-0.210	0.570	0.850
2020/01/31 05:34:50.2	91.100	-0.250	0.590	0.880
2020/01/31 05:34:50.3	91.110	-0.290	0.600	0.910
2020/01/31 05:34:50.4	91.110	-0.320	0.610	0.930
2020/01/31 05:34:50.5	91.120	-0.340	0.610	0.950
2020/01/31 05:34:50.6	91.120	-0.370	0.600	0.970
2020/01/31 05:34:50.7	91.130	-0.390	0.570	0.980
2020/01/31 05:34:50.8	91.140	-0.400	0.540	0.990
2020/01/31 05:34:50.9	91.140	-0.410	0.510	0.990
2020/01/31 05:34:51.0	91.150	-0.410	0.460	1.000
2020/01/31 05:34:51.1	91.150	-0.410	0.400	1.000
2020/01/31 05:34:51.2	91.150	-0.400	0.340	1.000
2020/01/31 05:34:51.3	91.150	-0.380	0.270	1.010
2020/01/31 05:34:51.4	91.160	-0.360	0.190	1.020
2020/01/31 05:34:51.5	91.160	-0.340	0.110	1.020
2020/01/31 05:34:51.6	91.160	-0.310	0.030	1.030
2020/01/31 05:34:51.7	91.150	-0.280	-0.060	1.040
2020/01/31 05:34:51.8	91.150	-0.240	-0.150	1.050
2020/01/31 05:34:51.9	91.150	-0.200	-0.240	1.060
2020/01/31 05:34:52.0	91.150	-0.150	-0.320	1.070
2020/01/31 05:34:52.1	91.150	-0.110	-0.410	1.080
2020/01/31 05:34:52.2	91.150	-0.060	-0.500	1.090
2020/01/31 05:34:52.3	91.160	-0.010	-0.580	1.110
2020/01/31 05:34:52.4	91.160	0.040	-0.650	1.120
2020/01/31 05:34:52.5	91.170	0.090	-0.730	1.130
2020/01/31 05:34:52.6	91.170	0.140	-0.790	1.140
2020/01/31 05:34:52.7	91.180	0.180	-0.850	1.150
2020/01/31 05:34:52.8	91.190	0.230	-0.900	1.150
2020/01/31 05:34:52.9	91.200	0.270	-0.940	1.160
2020/01/31 05:34:53.0	91.220	0.310	-0.970	1.170
2020/01/31 05:34:53.1	91.230	0.340	-0.990	1.180
2020/01/31 05:34:53.2	91.240	0.370	-1.010	1.190
2020/01/31 05:34:53.3	91.260	0.390	-1.010	1.200
2020/01/31 05:34:53.4	91.270	0.410	-1.000	1.210
2020/01/31 05:34:53.5	91.280	0.420	-0.980	1.210
2020/01/31 05:34:53.6	91.300	0.430	-0.950	1.220
2020/01/31 05:34:53.7	91.310	0.430	-0.910	1.230
2020/01/31 05:34:53.8	91.320	0.430	-0.860	1.230
2020/01/31 05:34:53.9	91.330	0.420	-0.800	1.230
2020/01/31 05:34:54.0	91.340	0.400	-0.730	1.230
2020/01/31 05:34:54.1	91.350	0.380	-0.650	1.230
2020/01/31 05:34:54.2	91.360	0.350	-0.570	1.230
2020/01/31 05:34:54.3	91.360	0.310	-0.480	1.220
2020/01/31 05:34:54.4	91.370	0.280	-0.380	1.210
2020/01/31 05:34:54.5	91.370	0.230	-0.280	1.200
2020/01/31 05:34:54.6	91.370	0.190	-0.180	1.190
2020/01/31 05:34:54.7	91.370	0.140	-0.070	1.170
2020/01/31 05:34:54.8	91.370	0.090	0.030	1.150
2020/01/31 05:34:54.9	91.370	0.040	0.140	1.130
2020/01/31 05:34:55.0	91.360	-0.020	0.240	1.110
2020/01/31 05:34:55.1	91.360	-0.070	0.340	1.080
2020/01/31 05:34:55.2	91.350	-0.130	0.430	1.050
2020/01/31 05:34:55.3	91.340	-0.180	0.520	1.020
2020/01/31 05:34:55.4	91.330	-0.230	0.600	0.990
2020/01/31 05:34:55.5	91.320	-0.280	0.680	0.960
2020/01/31 05:34:55.6	91.310	-0.320	0.740	0.920
2020/01/31 05:34:55.7	91.300	-0.360	0.800	0.890
2020/01/31 05:34:55.8	91.290	-0.400	0.840	0.850
2020/01/31 05:34:55.9	91.280	-0.430	0.870	0.820
2020/01/31 05:34:56.0	91.270	-0.460	0.880	0.780
2020/01/31 05:34:56.1	91.250	-0.470	0.880	0.740
2020/01/31 05:34:56.2	91.250	-0.490	0.870	0.700
2020/01/31 05:34:56.3	91.240	-0.490	0.850	0.660
2020/01/31 05:34:56.4	91.230	-0.480	0.800	0.630
2020/01/31 05:34:56.5	91.220	-0.470	0.740	0.590
2020/01/31 05:34:56.6	91.210	-0.450	0.670	0.560
2020/01/31 05:34:56.7	91.200	-0.420	0.580	0.530
2020/01/31 05:34:56.8	91.200	-0.390	0.480	0.510
2020/01/31 05:34:56.9	91.190	-0.340	0.360	0.480
2020/01/31 05:34:57.0	91.190	-0.290	0.240	0.460
2020/01/31 05:34:57.1	91.180	-0.240	0.100	0.450
2020/01/31 05:34:57.2	91.170	-0.170	-0.040	0.430
2020/01/31 05:34:57.3	91.170	-0.100	-0.190	0.420
2020/01/31 05:34:57.4	91.170	-0.030	-0.340	0.420
2020/01/31 05:34:57.5	91.170	0.040	-0.490	0.410
2020/01/31 05:34:57.6	91.170	0.120	-0.650	0.410
2020/01/31 05:34:57.7	91.180	0.200	-0.800	0.410
2020/01/31 05:34:57.8	91.180	0.280	-0.950	0.410
2020/01/31 05:34:57.9	91.180	0.360	-1.090	0.410
2020/01/31 05:34:58.0	91.190	0.440	-1.220	0.410
2020/01/31 05:34:58.1	91.190	0.510	-1.340	0.410
2020/01/31 05:34:58.2	91.190	0.590	-1.460	0.400
2020/01/31 05:34:58.3	91.200	0.650	-1.560	0.400
2020/01/31 05:34:58.4	91.200	0.710	-1.640	0.400
2020/01/31 05:34:58.5	91.200	0.770	-1.700	0.390
2020/01/31 05:34:58.6	91.210	0.820	-1.750	0.390
2020/01/31 05:34:58.7	91.210	0.860	-1.780	0.390
2020/01/31 05:34:58.8	91.210	0.890	-1.790	0.390
2020/01/31 05:34:58.9	91.200	0.910	-1.770	0.390
2020/01/31 05:34:59.0	91.200	0.920	-1.740	0.390
2020/01/31 05:34:59.1	91.200	0.930	-1.690	0.390
2020/01/31 05:34:59.2	91.190	0.920	-1.620	0.390
2020/01/31 05:34:59.3	91.180	0.900	-1.530	0.400
2020/01/31 05:34:59.4	91.170	0.880	-1.420	0.410
2020/01/31 05:34:59.5	91.160	0.840	-1.300	0.420
2020/01/31 05:34:59.6	91.150	0.800	-1.160	0.440
2020/01/31 05:34:59.7	91.140	0.740	-1.010	0.460
2020/01/31 05:34:59.8	91.120	0.680	-0.850	0.490
2020/01/31 05:34:59.9	91.100	0.610	-0.680	0.520
2020/01/31 05:35:00.0	91.090	0.530	-0.500	0.550
2020/01/31 05:35:00.1	91.070	0.440	-0.320	0.580
2020/01/31 05:35:00.2	91.050	0.350	-0.130	0.620
2020/01/31 05:35:00.3	91.030	0.260	0.050	0.660
2020/01/31 05:35:00.4	91.010	0.160	0.230	0.700
2020/01/31 05:35:00.5	90.990	0.060	0.410	0.740
2020/01/31 05:35:00.6	90.970	-0.040	0.580	0.780
2020/01/31 05:35:00.7	90.950	-0.150	0.750	0.820
2020/01/31 05:35:00.8	90.940	-0.250	0.900	0.860
2020/01/31 05:35:00.9	90.920	-0.350	1.040	0.900
2020/01/31 05:35:01.0	90.910	-0.450	1.160	0.930
2020/01/31 05:35:01.1	90.900	-0.540	1.280	0.960
2020/01/31 05:35:01.2	90.900	-0.630	1.370	0.990
2020/01/31 05:35:01.3	90.900	-0.710	1.440	1.010
2020/01/31 05:35:01.4	90.900	-0.790	1.500	1.030
2020/01/31 05:35:01.5	90.900	-0.860	1.540	1.050
2020/01/31 05:35:01.6	90.900	-0.920	1.560	1.060
2020/01/31 05:35:01.7	90.910	-0.960	1.560	1.060
2020/01/31 05:35:01.8	90.920	-1.000	1.530	1.060
2020/01/31 05:35:01.9	90.930	-1.030	1.490	1.060
2020/01/31 05:35:02.0	90.940	-1.050	1.420	1.050
2020/01/31 05:35:02.1	90.960	-1.050	1.330	1.030
2020/01/31 05:35:02.2	90.980	-1.050	1.230	1.010
2020/01/31 05:35:02.3	91.000	-1.030	1.110	0.990
2020/01/31 05:35:02.4	91.030	-1.000	0.970	0.960
2020/01/31 05:35:02.5	91.050	-0.960	0.810	0.930
2020/01/31 05:35:02.6	91.080	-0.910	0.650	0.890
2020/01/31 05:35:02.7	91.110	-0.850	0.470	0.850
2020/01/31 05:35:02.8	91.140	-0.780	0.280	0.820
2020/01/31 05:35:02.9	91.170	-0.700	0.090	0.780
2020/01/31 05:35:03.0	91.210	-0.620	-0.100	0.740
2020/01/31 05:35:03.1	91.240	-0.530	-0.300	0.700
2020/01/31 05:35:03.2	91.270	-0.440	-0.500	0.670
2020/01/31 05:35:03.3	91.300	-0.340	-0.690	0.640
2020/01/31 05:35:03.4	91.330	-0.240	-0.870	0.620
2020/01/31 05:35:03.5	91.350	-0.140	-1.040	0.600
2020/01/31 05:35:03.6	91.370	-0.040	-1.210	0.590
2020/01/31 05:35:03.7	91.380	0.060	-1.350	0.580
2020/01/31 05:35:03.8	91.390	0.150	-1.490	0.580
2020/01/31 05:35:03.9	91.390	0.240	-1.600	0.580
2020/01/31 05:35:04.0	91.390	0.320	-1.690	0.580
2020/01/31 05:35:04.1	91.390	0.400	-1.760	0.590
2020/01/31 05:35:04.2	91.390	0.460	-1.820	0.590
2020/01/31 05:35:04.3	91.380	0.520	-1.850	0.600
2020/01/31 05:35:04.4	91.380	0.570	-1.850	0.620
2020/01/31 05:35:04.5	91.370	0.610	-1.840	0.630
2020/01/31 05:35:04.6	91.370	0.640	-1.810	0.650
2020/01/31 05:35:04.7	91.350	0.660	-1.750	0.670
2020/01/31 05:35:04.8	91.340	0.670	-1.670	0.690
2020/01/31 05:35:04.9	91.330	0.660	-1.580	0.710
2020/01/31 05:35:05.0	91.310	0.650	-1.460	0.740
2020/01/31 05:35:05.1	91.300	0.630	-1.330	0.770
2020/01/31 05:35:05.2	91.280	0.590	-1.170	0.800
2020/01/31 05:35:05.3	91.260	0.550	-1.010	0.830
2020/01/31 05:35:05.4	91.240	0.500	-0.830	0.860
2020/01/31 05:35:05.5	91.220	0.440	-0.650	0.900
2020/01/31 05:35:05.6	91.200	0.370	-0.450	0.930
2020/01/31 05:35:05.7	91.180	0.300	-0.250	0.970
2020/01/31 05:35:05.8	91.160	0.210	-0.050	1.000
2020/01/31 05:35:05.9	91.140	0.130	0.160	1.030
2020/01/31 05:35:06.0	91.130	0.040	0.360	1.070
2020/01/31 05:35:06.1	91.120	-0.060	0.550	1.100
2020/01/31 05:35:06.2	91.110	-0.150	0.740	1.120
2020/01/31 05:35:06.3	91.100	-0.240	0.930	1.150
2020/01/31 05:35:06.4	91.090	-0.340	1.090	1.170
2020/01/31 05:35:06.5	91.090	-0.430	1.250	1.190
2020/01/31 05:35:06.6	91.080	-0.520	1.390	1.210
2020/01/31 05:35:06.7	91.080	-0.600	1.510	1.230
2020/01/31 05:35:06.8	91.080	-0.680	1.610	1.240
2020/01/31 05:35:06.9	91.080	-0.750	1.690	1.250
2020/01/31 05:35:07.0	91.080	-0.820	1.750	1.250
2020/01/31 05:35:07.1	91.080	-0.870	1.780	1.250
2020/01/31 05:35:07.2	91.090	-0.920	1.790	1.250
2020/01/31 05:35:07.3	91.090	-0.950	1.780	1.240
2020/01/31 05:35:07.4	91.100	-0.980	1.740	1.220
2020/01/31 05:35:07.5	91.110	-1.000	1.680	1.210
2020/01/31 05:35:07.6	91.120	-1.000	1.600	1.190
2020/01/31 05:35:07.7	91.130	-0.990	1.490	1.160
2020/01/31 05:35:07.8	91.150	-0.980	1.360	1.130
2020/01/31 05:35:07.9	91.160	-0.950	1.220	1.100
2020/01/31 05:35:08.0	91.180	-0.910	1.060	1.060
2020/01/31 05:35:08.1	91.190	-0.860	0.880	1.020
2020/01/31 05:35:08.2	91.210	-0.810	0.690	0.970
2020/01/31 05:35:08.3	91.220	-0.740	0.490	0.930
2020/01/31 05:35:08.4	91.240	-0.670	0.280	0.880
2020/01/31 05:35:08.5	91.250	-0.590	0.070	0.840
2020/01/31 05:35:08.6	91.270	-0.510	-0.150	0.790
2020/01/31 05:35:08.7	91.280	-0.420	-0.370	0.750
2020/01/31 05:35:08.8	91.290	-0.330	-0.580	0.700
2020/01/31 05:35:08.9	91.300	-0.230	-0.790	0.660
2020/01/31 05:35:09.0	91.310	-0.130	-0.990	0.620
2020/01/31 05:35:09.1	91.310	-0.040	-1.180	0.580
2020/01/31 05:35:09.2	91.310	0.060	-1.370	0.540
2020/01/31 05:35:09.3	91.310	0.160	-1.540	0.510
2020/01/31 05:35:09.4	91.310	0.250	-1.690	0.490
2020/01/31 05:35:09.5	91.300	0.340	-1.820	0.460
2020/01/31 05:35:09.6	91.290	0.430	-1.930	0.450
2020/01/31 05:35:09.7	91.280	0.510	-2.030	0.430
2020/01/31 05:35:09.8	91.270	0.580	-2.090	0.420
2020/01/31 05:35:09.9	91.260	0.650	-2.140	0.410
2020/01/31 05:35:10.0	91.240	0.710	-2.170	0.410
2020/01/31 05:35:10.1	91.230	0.770	-2.170	0.410
2020/01/31 05:35:10.2	91.210	0.810	-2.140	0.420
2020/01/31 05:35:10.3	91.190	0.850	-2.100	0.420
2020/01/31 05:35:10.4	91.170	0.880	-2.030	0.430
2020/01/31 05:35:10.5	91.150	0.900	-1.950	0.450
2020/01/31 05:35:10.6	91.130	0.910	-1.840	0.460
2020/01/31 05:35:10.7	91.110	0.910	-1.710	0.480
2020/01/31 05:35:10.8	91.090	0.900	-1.580	0.490
2020/01/31 05:35:10.9	91.070	0.890	-1.420	0.510
2020/01/31 05:35:11.0	91.060	0.860	-1.260	0.530
2020/01/31 05:35:11.1	91.040	0.830	-1.080	0.550
2020/01/31 05:35:11.2	91.020	0.800	-0.890	0.560
2020/01/31 05:35:11.3	91.000	0.750	-0.710	0.580
2020/01/31 05:35:11.4	90.990	0.700	-0.520	0.600
2020/01/31 05:35:11.5	90.980	0.650	-0.330	0.610
2020/01/31 05:35:11.6	90.960	0.590	-0.140	0.630
2020/01/31 05:35:11.7	90.950	0.520	0.050	0.640
2020/01/31 05:35:11.8	90.950	0.460	0.220	0.650
2020/01/31 05:35:11.9	90.940	0.390	0.390	0.660
2020/01/31 05:35:12.0	90.940	0.330	0.550	0.670
2020/01/31 05:35:12.1	90.940	0.260	0.690	0.670
2020/01/31 05:35:12.2	90.950	0.200	0.820	0.670
2020/01/31 05:35:12.3	90.950	0.130	0.940	0.670
2020/01/31 05:35:12.4	90.960	0.080	1.040	0.670
2020/01/31 05:35:12.5	90.970	0.020	1.120	0.670
2020/01/31 05:35:12.6	90.980	-0.030	1.180	0.660
2020/01/31 05:35:12.7	90.990	-0.070	1.220	0.650
2020/01/31 05:35:12.8	91.010	-0.110	1.250	0.650
2020/01/31 05:35:12.9	91.030	-0.140	1.250	0.640
2020/01/31 05:35:13.0	91.040	-0.170	1.230	0.630
2020/01/31 05:35:13.1	91.060	-0.180	1.200	0.620
2020/01/31 05:35:13.2	91.080	-0.190	1.150	0.600
2020/01/31 05:35:13.3	91.110	-0.200	1.080	0.590
2020/01/31 05:35:13.4	91.130	-0.190	0.990	0.580
2020/01/31 05:35:13.5	91.150	-0.180	0.890	0.570
2020/01/31 05:35:13.6	91.170	-0.160	0.780	0.560
2020/01/31 05:35:13.7	91.190	-0.130	0.660	0.560
2020/01/31 05:35:13.8	91.210	-0.100	0.530	0.550
2020/01/31 05:35:13.9	91.230	-0.060	0.390	0.540
2020/01/31 05:35:14.0	91.250	-0.020	0.250	0.530
2020/01/31 05:35:14.1	91.270	0.020	0.110	0.530
2020/01/31 05:35:14.2	91.290	0.070	-0.050	0.520
2020/01/31 05:35:14.3	91.310	0.120	-0.190	0.510
2020/01/31 05:35:14.4	91.330	0.170	-0.330	0.510
2020/01/31 05:35:14.5	91.350	0.230	-0.470	0.500
2020/01/31 05:35:14.6	91.370	0.280	-0.600	0.500
2020/01/31 05:35:14.7	91.390	0.330	-0.730	0.490
2020/01/31 05:35:14.8	91.400	0.380	-0.840	0.490
2020/01/31 05:35:14.9	91.420	0.420	-0.950	0.490
2020/01/31 05:35:15.0	91.430	0.470	-1.040	0.490
2020/01/31 05:35:15.1	91.450	0.510	-1.120	0.490
2020/01/31 05:35:15.2	91.460	0.540	-1.190	0.490
2020/01/31 05:35:15.3	91.480	0.570	-1.230	0.490
2020/01/31 05:35:15.4	91.490	0.590	-1.270	0.500
2020/01/31 05:35:15.5	91.510	0.610	-1.290	0.510
2020/01/31 05:35:15.6	91.520	0.620	-1.290	0.520
2020/01/31 05:35:15.7	91.530	0.620	-1.270	0.530
2020/01/31 05:35:15.8	91.540	0.610	-1.240	0.550
2020/01/31 05:35:15.9	91.550	0.600	-1.200	0.570
2020/01/31 05:35:16.0	91.560	0.580	-1.130	0.590
2020/01/31 05:35:16.1	91.570	0.560	-1.060	0.620
2020/01/31 05:35:16.2	91.570	0.520	-0.970	0.650
2020/01/31 05:35:16.3	91.580	0.480	-0.870	0.680
2020/01/31 05:35:16.4	91.590	0.430	-0.760	0.710
2020/01/31 05:35:16.5	91.600	0.380	-0.640	0.750
2020/01/31 05:35:16.6	91.600	0.320	-0.500	0.780
2020/01/31 05:35:16.7	91.610	0.260	-0.370	0.820
2020/01/31 05:35:16.8	91.610	0.190	-0.230	0.860
2020/01/31 05:35:16.9	91.620	0.120	-0.080	0.900
2020/01/31 05:35:17.0	91.620	0.040	0.060	0.940
2020/01/31 05:35:17.1	91.620	-0.040	0.210	0.980
2020/01/31 05:35:17.2	91.630	-0.120	0.360	1.020
2020/01/31 05:35:17.3	91.630	-0.200	0.500	1.050
2020/01/31 05:35:17.4	91.640	-0.280	0.630	1.090
2020/01/31 05:35:17.5	91.640	-0.360	0.750	1.120
2020/01/31 05:35:17.6	91.640	-0.440	0.870	1.150
2020/01/31 05:35:17.7	91.650	-0.520	0.970	1.180
2020/01/31 05:35:17.8	91.650	-0.590	1.070	1.210
2020/01/31 05:35:17.9	91.650	-0.670	1.150	1.230
2020/01/31 05:35:18.0	91.650	-0.730	1.220	1.250
2020/01/31 05:35:18.1	91.660	-0.800	1.270	1.270
2020/01/31 05:35:18.2	91.650	-0.850	1.300	1.280
2020/01/31 05:35:18.3	91.660	-0.900	1.330	1.290
2020/01/31 05:35:18.4	91.660	-0.950	1.340	1.300
2020/01/31 05:35:18.5	91.660	-0.990	1.330	1.310
2020/01/31 05:35:18.6	91.660	-1.020	1.300	1.320
2020/01/31 05:35:18.7	91.660	-1.050	1.270	1.320
2020/01/31 05:35:18.8	91.660	-1.070	1.210	1.320
2020/01/31 05:35:18.9	91.650	-1.080	1.150	1.310
2020/01/31 05:35:19.0	91.650	-1.080	1.070	1.300
2020/01/31 05:35:19.1	91.650	-1.080	0.970	1.290
2020/01/31 05:35:19.2	91.650	-1.060	0.870	1.280
2020/01/31 05:35:19.3	91.640	-1.050	0.750	1.270
2020/01/31 05:35:19.4	91.640	-1.020	0.620	1.250
2020/01/31 05:35:19.5	91.640	-0.990	0.490	1.220
2020/01/31 05:35:19.6	91.640	-0.950	0.350	1.200
2020/01/31 05:35:19.7	91.640	-0.900	0.200	1.170
2020/01/31 05:35:19.8	91.640	-0.850	0.050	1.130
2020/01/31 05:35:19.9	91.650	-0.790	-0.110	1.100
2020/01/31 05:35:20.0	91.660	-0.730	-0.260	1.060
2020/01/31 05:35:20.1	91.670	-0.660	-0.420	1.010
2020/01/31 05:35:20.2	91.680	-0.590	-0.580	0.970
2020/01/31 05:35:20.3	91.700	-0.520	-0.730	0.920
2020/01/31 05:35:20.4	91.720	-0.440	-0.870	0.880
2020/01/31 05:35:20.5	91.740	-0.360	-1.010	0.830
2020/01/31 05:35:20.6	91.760	-0.280	-1.140	0.790
2020/01/31 05:35:20.7	91.790	-0.200	-1.270	0.750
2020/01/31 05:35:20.8	91.810	-0.120	-1.380	0.710
2020/01/31 05:35:20.9	91.840	-0.040	-1.490	0.670
2020/01/31 05:35:21.0	91.870	0.040	-1.580	0.630
2020/01/31 05:35:21.1	91.900	0.120	-1.660	0.600
2020/01/31 05:35:21.2	91.930	0.190	-1.730	0.560
2020/01/31 05:35:21.3	91.960	0.260	-1.780	0.540
2020/01/31 05:35:21.4	91.990	0.330	-1.820	0.510
2020/01/31 05:35:21.5	92.020	0.400	-1.850	0.490
2020/01/31 05:35:21.6	92.050	0.460	-1.860	0.480
2020/01/31 05:35:21.7	92.070	0.510	-1.850	0.470
2020/01/31 05:35:21.8	92.090	0.560	-1.840	0.460
2020/01/31 05:35:21.9	92.110	0.600	-1.810	0.450
2020/01/31 05:35:22.0	92.120	0.640	-1.760	0.450
2020/01/31 05:35:22.1	92.140	0.670	-1.710	0.450
2020/01/31 05:35:22.2	92.150	0.700	-1.640	0.450
2020/01/31 05:35:22.3	92.150	0.710	-1.560	0.460
2020/01/31 05:35:22.4	92.160	0.730	-1.470	0.470
2020/01/31 05:35:22.5	92.160	0.730	-1.370	0.480
2020/01/31 05:35:22.6	92.150	0.730	-1.260	0.490
2020/01/31 05:35:22.7	92.150	0.730	-1.150	0.510
2020/01/31 05:35:22.8	92.140	0.710	-1.030	0.530
2020/01/31 05:35:22.9	92.120	0.700	-0.900	0.550
2020/01/31 05:35:23.0	92.110	0.670	-0.770	0.560
2020/01/31 05:35:23.1	92.090	0.650	-0.640	0.580
2020/01/31 05:35:23.2	92.060	0.610	-0.510	0.600
2020/01/31 05:35:23.3	92.040	0.580	-0.370	0.620
2020/01/31 05:35:23.4	92.020	0.540	-0.240	0.640
2020/01/31 05:35:23.5	91.990	0.500	-0.110	0.650
2020/01/31 05:35:23.6	91.970	0.450	0.020	0.670
2020/01/31 05:35:23.7	91.940	0.400	0.150	0.680
2020/01/31 05:35:23.8	91.910	0.350	0.270	0.690
2020/01/31 05:35:23.9	91.890	0.300	0.390	0.700
2020/01/31 05:35:24.0	91.860	0.250	0.500	0.700
2020/01/31 05:35:24.1	91.830	0.190	0.610	0.710
2020/01/31 05:35:24.2	91.800	0.140	0.700	0.710
2020/01/31 05:35:24.3	91.770	0.090	0.790	0.710
2020/01/31 05:35:24.4	91.750	0.040	0.870	0.710
2020/01/31 05:35:24.5	91.730	-0.020	0.940	0.710
2020/01/31 05:35:24.6	91.710	-0.060	1.010	0.700
2020/01/31 05:35:24.7	91.690	-0.110	1.060	0.700
2020/01/31 05:35:24.8	91.670	-0.160	1.100	0.690
2020/01/31 05:35:24.9	91.660	-0.200	1.130	0.680
2020/01/31 05:35:25.0	91.640	-0.240	1.150	0.670
2020/01/31 05:35:25.1	91.630	-0.270	1.160	0.660
2020/01/31 05:35:25.2	91.630	-0.300	1.150	0.640
2020/01/31 05:35:25.3	91.630	-0.320	1.140	0.630
2020/01/31 05:35:25.4	91.620	-0.350	1.110	0.610
2020/01/31 05:35:25.5	91.620	-0.360	1.080	0.590
2020/01/31 05:35:25.6	91.620	-0.370	1.030	0.560
2020/01/31 05:35:25.7	91.630	-0.380	0.970	0.540
2020/01/31 05:35:25.8	91.640	-0.380	0.910	0.510
2020/01/31 05:35:25.9	91.650	-0.370	0.830	0.480
2020/01/31 05:35:26.0	91.660	-0.360	0.750	0.440
2020/01/31 05:35:26.1	91.670	-0.350	0.650	0.410
2020/01/31 05:35:26.2	91.690	-0.330	0.550	0.360
2020/01/31 05:35:26.3	91.710	-0.300	0.440	0.320
2020/01/31 05:35:26.4	91.730	-0.280	0.330	0.280
2020/01/31 05:35:26.5	91.760	-0.240	0.220	0.240
2020/01/31 05:35:26.6	91.780	-0.210	0.110	0.190
2020/01/31 05:35:26.7	91.810	-0.170	-0.010	0.150
2020/01/31 05:35:26.8	91.830	-0.130	-0.130	0.110
2020/01/31 05:35:26.9	91.860	-0.080	-0.240	0.070
2020/01/31 05:35:27.0	91.880	-0.040	-0.360	0.030
2020/01/31 05:35:27.1	91.910	0.010	-0.470	-0.000
2020/01/31 05:35:27.2	91.930	0.060	-0.580	-0.040
2020/01/31 05:35:27.3	91.960	0.110	-0.680	-0.060
2020/01/31 05:35:27.4	91.980	0.160	-0.780	-0.090
2020/01/31 05:35:27.5	92.010	0.210	-0.870	-0.100
2020/01/31 05:35:27.6	92.030	0.260	-0.960	-0.120
2020/01/31 05:35:27.7	92.050	0.310	-1.030	-0.120
2020/01/31 05:35:27.8	92.070	0.360	-1.100	-0.130
2020/01/31 05:35:27.9	92.090	0.400	-1.160	-0.120
2020/01/31 05:35:28.0	92.110	0.440	-1.210	-0.110
2020/01/31 05:35:28.1	92.130	0.480	-1.250	-0.100
2020/01/31 05:35:28.2	92.140	0.520	-1.280	-0.070
2020/01/31 05:35:28.3	92.150	0.550	-1.300	-0.050
2020/01/31 05:35:28.4	92.170	0.580	-1.310	-0.010
2020/01/31 05:35:28.5	92.180	0.600	-1.310	0.030
2020/01/31 05:35:28.6	92.190	0.620	-1.300	0.070
2020/01/31 05:35:28.7	92.200	0.630	-1.270	0.120
2020/01/31 05:35:28.8	92.210	0.640	-1.240	0.170
2020/01/31 05:35:28.9	92.220	0.650	-1.200	0.230
2020/01/31 05:35:29.0	92.230	0.640	-1.150	0.280
2020/01/31 05:35:29.1	92.240	0.640	-1.090	0.340
2020/01/31 05:35:29.2	92.240	0.630	-1.030	0.410
2020/01/31 05:35:29.3	92.250	0.620	-0.950	0.470
2020/01/31 05:35:29.4	92.250	0.600	-0.870	0.530
2020/01/31 05:35:29.5	92.260	0.570	-0.790	0.600
2020/01/31 05:35:29.6	92.260	0.550	-0.700	0.660
2020/01/31 05:35:29.7	92.260	0.520	-0.610	0.720
2020/01/31 05:35:29.8	92.260	0.480	-0.520	0.780
2020/01/31 05:35:29.9	92.260	0.440	-0.420	0.840
2020/01/31 05:35:30.0	92.260	0.410	-0.320	0.890
2020/01/31 05:35:30.1	92.250	0.360	-0.230	0.940
2020/01/31 05:35:30.2	92.240	0.320	-0.130	0.990
2020/01/31 05:35:30.3	92.240	0.270	-0.040	1.030
2020/01/31 05:35:30.4	92.230	0.230	0.050	1.070
2020/01/31 05:35:30.5	92.230	0.180	0.140	1.110
2020/01/31 05:35:30.6	92.220	0.130	0.230	1.140
2020/01/31 05:35:30.7	92.220	0.080	0.300	1.170
2020/01/31 05:35:30.8	92.210	0.030	0.380	1.200
2020/01/31 05:35:30.9	92.200	-0.020	0.450	1.220
2020/01/31 05:35:31.0	92.190	-0.060	0.510	1.240
2020/01/31 05:35:31.1	92.180	-0.110	0.560	1.260
2020/01/31 05:35:31.2	92.180	-0.150	0.610	1.270
2020/01/31 05:35:31.3	92.170	-0.190	0.650	1.280
2020/01/31 05:35:31.4	92.160	-0.230	0.680	1.290
2020/01/31 05:35:31.5	92.160	-0.270	0.700	1.300
2020/01/31 05:35:31.6	92.150	-0.300	0.720	1.300
2020/01/31 05:35:31.7	92.140	-0.330	0.730	1.300
2020/01/31 05:35:31.8	92.140	-0.360	0.730	1.300
2020/01/31 05:35:31.9	92.130	-0.380	0.720	1.310
2020/01/31 05:35:32.0	92.130	-0.400	0.710	1.310
2020/01/31 05:35:32.1	92.120	-0.420	0.690	1.300
2020/01/31 05:35:32.2	92.120	-0.430	0.660	1.300
2020/01/31 05:35:32.3	92.110	-0.450	0.630	1.300
2020/01/31 05:35:32.4	92.110	-0.450	0.590	1.290
2020/01/31 05:35:32.5	92.110	-0.460	0.550	1.290
2020/01/31 05:35:32.6	92.110	-0.460	0.510	1.280
2020/01/31 05:35:32.7	92.110	-0.460	0.460	1.270
2020/01/31 05:35:32.8	92.110	-0.460	0.410	1.260
2020/01/31 05:35:32.9	92.110	-0.450	0.360	1.250
2020/01/31 05:35:33.0	92.110	-0.450	0.310	1.240
2020/01/31 05:35:33.1	92.120	-0.440	0.260	1.220
2020/01/31 05:35:33.2	92.110	-0.430	0.200	1.200
2020/01/31 05:35:33.3	92.120	-0.420	0.150	1.180
2020/01/31 05:35:33.4	92.120	-0.410	0.100	1.160
2020/01/31 05:35:33.5	92.130	-0.400	0.050	1.140
2020/01/31 05:35:33.6	92.140	-0.390	0.000	1.110
2020/01/31 05:35:33.7	92.150	-0.380	-0.040	1.090
2020/01/31 05:35:33.8	92.150	-0.360	-0.080	1.060
2020/01/31 05:35:33.9	92.160	-0.350	-0.130	1.040
2020/01/31 05:35:34.0	92.170	-0.340	-0.170	1.010
2020/01/31 05:35:34.1	92.180	-0.320	-0.200	0.980
2020/01/31 05:35:34.2	92.200	-0.310	-0.240	0.950
2020/01/31 05:35:34.3	92.210	-0.300	-0.280	0.920
2020/01/31 05:35:34.4	92.220	-0.280	-0.310	0.900
2020/01/31 05:35:34.5	92.230	-0.270	-0.340	0.870
2020/01/31 05:35:34.6	92.240	-0.260	-0.370	0.850
2020/01/31 05:35:34.7	92.250	-0.240	-0.400	0.830
2020/01/31 05:35:34.8	92.250	-0.230	-0.430	0.810
2020/01/31 05:35:34.9	92.260	-0.210	-0.470	0.790
2020/01/31 05:35:35.0	92.270	-0.200	-0.500	0.770
2020/01/31 05:35:35.1	92.280	-0.180	-0.530	0.750
2020/01/31 05:35:35.2	92.290	-0.160	-0.560	0.740
2020/01/31 05:35:35.3	92.290	-0.140	-0.590	0.730
2020/01/31 05:35:35.4	92.300	-0.120	-0.620	0.710
2020/01/31 05:35:35.5	92.310	-0.100	-0.660	0.710
2020/01/31 05:35:35.6	92.310	-0.080	-0.690	0.700
2020/01/31 05:35:35.7	92.320	-0.050	-0.720	0.690
2020/01/31 05:35:35.8	92.330	-0.030	-0.750	0.690
2020/01/31 05:35:35.9	92.330	-0.000	-0.780	0.680
2020/01/31 05:35:36.0	92.340	0.030	-0.820	0.680
2020/01/31 05:35:36.1	92.350	0.060	-0.840	0.680
2020/01/31 05:35:36.2	92.350	0.090	-0.880	0.680
2020/01/31 05:35:36.3	92.360	0.120	-0.900	0.680
2020/01/31 05:35:36.4	92.360	0.150	-0.930	0.680
2020/01/31 05:35:36.5	92.370	0.180	-0.950	0.690
2020/01/31 05:35:36.6	92.370	0.220	-0.960	0.690
2020/01/31 05:35:36.7	92.370	0.250	-0.970	0.700
2020/01/31 05:35:36.8	92.370	0.280	-0.980	0.700
2020/01/31 05:35:36.9	92.370	0.310	-0.990	0.710
2020/01/31 05:35:37.0	92.370	0.340	-0.980	0.720
2020/01/31 05:35:37.1	92.370	0.370	-0.980	0.720
2020/01/31 05:35:37.2	92.360	0.400	-0.970	0.730
2020/01/31 05:35:37.3	92.360	0.420	-0.950	0.740
2020/01/31 05:35:37.4	92.360	0.440	-0.920	0.740
2020/01/31 05:35:37.5	92.350	0.460	-0.890	0.750
2020/01/31 05:35:37.6	92.350	0.470	-0.850	0.750
2020/01/31 05:35:37.7	92.340	0.480	-0.800	0.760
2020/01/31 05:35:37.8	92.330	0.490	-0.750	0.760
2020/01/31 05:35:37.9	92.330	0.490	-0.700	0.770
2020/01/31 05:35:38.0	92.320	0.490	-0.640	0.770
2020/01/31 05:35:38.1	92.310	0.480	-0.570	0.780
2020/01/31 05:35:38.2	92.290	0.470	-0.500	0.780
2020/01/31 05:35:38.3	92.280	0.460	-0.430	0.790
2020/01/31 05:35:38.4	92.270	0.440	-0.350	0.800
2020/01/31 05:35:38.5	92.260	0.420	-0.280	0.800
2020/01/31 05:35:38.6	92.250	0.390	-0.200	0.810
2020/01/31 05:35:38.7	92.240	0.360	-0.110	0.820
2020/01/31 05:35:38.8	92.230	0.330	-0.030	0.830
2020/01/31 05:35:38.9	92.220	0.290	0.050	0.840
2020/01/31 05:35:39.0	92.210	0.250	0.130	0.860
2020/01/31 05:35:39.1	92.200	0.210	0.210	0.870
2020/01/31 05:35:39.2	92.190	0.170	0.280	0.880
2020/01/31 05:35:39.3	92.180	0.130	0.350	0.890
2020/01/31 05:35:39.4	92.170	0.080	0.420	0.910
2020/01/31 05:35:39.5	92.160	0.040	0.480	0.930
2020/01/31 05:35:39.6	92.150	-0.010	0.540	0.940
2020/01/31 05:35:39.7	92.150	-0.050	0.590	0.960
2020/01/31 05:35:39.8	92.140	-0.100	0.630	0.970
2020/01/31 05:35:39.9	92.130	-0.140	0.660	0.990
2020/01/31 05:35:40.0	92.120	-0.180	0.690	1.000
2020/01/31 05:35:40.1	92.120	-0.220	0.710	1.010
2020/01/31 05:35:40.2	92.110	-0.250	0.720	1.020
2020/01/31 05:35:40.3	92.100	-0.290	0.720	1.030
2020/01/31 05:35:40.4	92.100	-0.310	0.710	1.040
2020/01/31 05:35:40.5	92.090	-0.340	0.690	1.040
2020/01/31 05:35:40.6	92.090	-0.360	0.660	1.050
2020/01/31 05:35:40.7	92.090	-0.370	0.620	1.050
2020/01/31 05:35:40.8	92.080	-0.390	0.570	1.040
2020/01/31 05:35:40.9	92.080	-0.390	0.520	1.040
2020/01/31 05:35:41.0	92.080	-0.390	0.450	1.030
2020/01/31 05:35:41.1	92.080	-0.390	0.380	1.020
2020/01/31 05:35:41.2	92.080	-0.380	0.300	1.000
2020/01/31 05:35:41.3	92.080	-0.370	0.220	0.990
2020/01/31 05:35:41.4	92.090	-0.360	0.130	0.980
2020/01/31 05:35:41.5	92.090	-0.340	0.040	0.970
2020/01/31 05:35:41.6	92.090	-0.310	-0.050	0.950
2020/01/31 05:35:41.7	92.090	-0.290	-0.140	0.940
2020/01/31 05:35:41.8	92.090	-0.260	-0.230	0.930
2020/01/31 05:35:41.9	92.100	-0.230	-0.320	0.920
2020/01/31 05:35:42.0	92.100	-0.190	-0.410	0.910
2020/01/31 05:35:42.1	92.100	-0.160	-0.500	0.900
2020/01/31 05:35:42.2	92.100	-0.120	-0.580	0.890
2020/01/31 05:35:42.3	92.110	-0.090	-0.660	0.880
2020/01/31 05:35:42.4	92.110	-0.050	-0.720	0.880
2020/01/31 05:35:42.5	92.110	-0.020	-0.790	0.880
2020/01/31 05:35:42.6	92.120	0.010	-0.840	0.870
2020/01/31 05:35:42.7	92.120	0.040	-0.880	0.870
2020/01/31 05:35:42.8	92.120	0.070	-0.920	0.870
2020/01/31 05:35:42.9	92.120	0.100	-0.950	0.870
2020/01/31 05:35:43.0	92.130	0.130	-0.970	0.880
2020/01/31 05:35:43.1	92.130	0.150	-0.980	0.880
2020/01/31 05:35:43.2	92.130	0.170	-0.980	0.880
2020/01/31 05:35:43.3	92.140	0.190	-0.970	0.880
2020/01/31 05:35:43.4	92.140	0.200	-0.950	0.880
2020/01/31 05:35:43.5	92.140	0.220	-0.930	0.880
2020/01/31 05:35:43.6	92.150	0.230	-0.890	0.880
2020/01/31 05:35:43.7	92.150	0.230	-0.850	0.880
2020/01/31 05:35:43.8	92.150	0.240	-0.810	0.880
2020/01/31 05:35:43.9	92.150	0.240	-0.750	0.880
2020/01/31 05:35:44.0	92.160	0.240	-0.690	0.880
2020/01/31 05:35:44.1	92.160	0.230	-0.630	0.880
2020/01/31 05:35:44.2	92.160	0.230	-0.560	0.880
2020/01/31 05:35:44.3	92.170	0.220	-0.490	0.880
2020/01/31 05:35:44.4	92.170	0.210	-0.420	0.870
2020/01/31 05:35:44.5	92.170	0.200	-0.340	0.870
2020/01/31 05:35:44.6	92.170	0.190	-0.260	0.870
2020/01/31 05:35:44.7	92.170	0.180	-0.190	0.860
2020/01/31 05:35:44.8	92.170	0.170	-0.110	0.860
2020/01/31 05:35:44.9	92.170	0.160	-0.040	0.860
2020/01/31 05:35:45.0	92.160	0.150	0.030	0.850
2020/01/31 05:35:45.1	92.160	0.140	0.090	0.850
2020/01/31 05:35:45.2	92.150	0.130	0.150	0.850
2020/01/31 05:35:45.3	92.140	0.120	0.210	0.840
2020/01/31 05:35:45.4	92.140	0.110	0.260	0.840
2020/01/31 05:35:45.5	92.130	0.100	0.300	0.830
2020/01/31 05:35:45.6	92.120	0.100	0.340	0.830
2020/01/31 05:35:45.7	92.110	0.090	0.360	0.830
2020/01/31 05:35:45.8	92.100	0.090	0.390	0.820
2020/01/31 05:35:45.9	92.080	0.090	0.400	0.820
2020/01/31 05:35:46.0	92.070	0.100	0.410	0.820
2020/01/31 05:35:46.1	92.060	0.100	0.410	0.810
2020/01/31 05:35:46.2	92.050	0.110	0.400	0.810
2020/01/31 05:35:46.3	92.040	0.110	0.380	0.800
2020/01/31 05:35:46.4	92.030	0.120	0.360	0.800
2020/01/31 05:35:46.5	92.020	0.130	0.340	0.800
2020/01/31 05:35:46.6	92.020	0.140	0.310	0.790
2020/01/31 05:35:46.7	92.010	0.150	0.270	0.790
2020/01/31 05:35:46.8	92.010	0.160	0.230	0.780
2020/01/31 05:35:46.9	92.010	0.170	0.190	0.770
2020/01/31 05:35:47.0	92.010	0.180	0.150	0.760
2020/01/31 05:35:47.1	92.020	0.190	0.100	0.750
2020/01/31 05:35:47.2	92.020	0.200	0.050	0.740
2020/01/31 05:35:47.3	92.030	0.210	0.000	0.730
2020/01/31 05:35:47.4	92.040	0.210	-0.040	0.720
2020/01/31 05:35:47.5	92.050	0.220	-0.090	0.710
2020/01/31 05:35:47.6	92.060	0.220	-0.130	0.700
2020/01/31 05:35:47.7	92.070	0.220	-0.170	0.680
2020/01/31 05:35:47.8	92.080	0.220	-0.210	0.670
2020/01/31 05:35:47.9	92.090	0.220	-0.250	0.660
2020/01/31 05:35:48.0	92.100	0.220	-0.280	0.640
2020/01/31 05:35:48.1	92.110	0.210	-0.320	0.630
2020/01/31 05:35:48.2	92.110	0.210	-0.340	0.620
2020/01/31 05:35:48.3	92.120	0.200	-0.370	0.610
2020/01/31 05:35:48.4	92.120	0.180	-0.390	0.600
2020/01/31 05:35:48.5	92.130	0.170	-0.410	0.600
2020/01/31 05:35:48.6	92.130	0.160	-0.430	0.600
2020/01/31 05:35:48.7	92.130	0.140	-0.440	0.600
2020/01/31 05:35:48.8	92.130	0.120	-0.450	0.600
2020/01/31 05:35:48.9	92.130	0.100	-0.460	0.610
2020/01/31 05:35:49.0	92.120	0.080	-0.460	0.620
2020/01/31 05:35:49.1	92.120	0.060	-0.460	0.630
2020/01/31 05:35:49.2	92.130	0.040	-0.460	0.650
2020/01/31 05:35:49.3	92.120	0.020	-0.460	0.670
2020/01/31 05:35:49.4	92.120	-0.010	-0.460	0.700
2020/01/31 05:35:49.5	92.110	-0.030	-0.450	0.720
2020/01/31 05:35:49.6	92.110	-0.050	-0.440	0.750
2020/01/31 05:35:49.7	92.110	-0.080	-0.420	0.790
2020/01/31 05:35:49.8	92.100	-0.110	-0.410	0.820
2020/01/31 05:35:49.9	92.100	-0.130	-0.390	0.860
2020/01/31 05:35:50.0	92.100	-0.160	-0.380	0.890
2020/01/31 05:35:50.1	92.100	-0.180	-0.360	0.930
2020/01/31 05:35:50.2	92.090	-0.210	-0.340	0.960
2020/01/31 05:35:50.3	92.090	-0.230	-0.320	1.000
2020/01/31 05:35:50.4	92.100	-0.250	-0.300	1.030
2020/01/31 05:35:50.5	92.100	-0.280	-0.280	1.070
2020/01/31 05:35:50.6	92.100	-0.300	-0.260	1.100
2020/01/31 05:35:50.7	92.110	-0.320	-0.230	1.130
2020/01/31 05:35:50.8	92.120	-0.340	-0.210	1.160
2020/01/31 05:35:50.9	92.120	-0.350	-0.190	1.180
2020/01/31 05:35:51.0	92.130	-0.370	-0.170	1.210
2020/01/31 05:35:51.1	92.140	-0.380	-0.150	1.230
2020/01/31 05:35:51.2	92.150	-0.400	-0.130	1.250
2020/01/31 05:35:51.3	92.150	-0.410	-0.110	1.260
2020/01/31 05:35:51.4	92.160	-0.410	-0.100	1.280
2020/01/31 05:35:51.5	92.170	-0.420	-0.080	1.290
2020/01/31 05:35:51.6	92.170	-0.430	-0.070	1.310
2020/01/31 05:35:51.7	92.180	-0.430	-0.060	1.320
2020/01/31 05:35:51.8	92.180	-0.430	-0.050	1.330
2020/01/31 05:35:51.9	92.180	-0.430	-0.040	1.330
2020/01/31 05:35:52.0	92.180	-0.420	-0.030	1.340
2020/01/31 05:35:52.1	92.180	-0.420	-0.030	1.350
2020/01/31 05:35:52.2	92.190	-0.410	-0.030	1.350
2020/01/31 05:35:52.3	92.180	-0.400	-0.030	1.360
2020/01/31 05:35:52.4	92.170	-0.390	-0.030	1.360
2020/01/31 05:35:52.5	92.170	-0.380	-0.040	1.360
2020/01/31 05:35:52.6	92.160	-0.370	-0.050	1.370
2020/01/31 05:35:52.7	92.150	-0.350	-0.060	1.370
2020/01/31 05:35:52.8	92.130	-0.330	-0.070	1.370
2020/01/31 05:35:52.9	92.120	-0.310	-0.090	1.370
2020/01/31 05:35:53.0	92.100	-0.290	-0.110	1.370
2020/01/31 05:35:53.1	92.080	-0.270	-0.140	1.370
2020/01/31 05:35:53.2	92.050	-0.240	-0.170	1.370
2020/01/31 05:35:53.3	92.030	-0.210	-0.190	1.370
2020/01/31 05:35:53.4	92.000	-0.180	-0.230	1.370
2020/01/31 05:35:53.5	91.980	-0.150	-0.260	1.370
2020/01/31 05:35:53.6	91.950	-0.120	-0.290	1.360
2020/01/31 05:35:53.7	91.930	-0.090	-0.330	1.360
2020/01/31 05:35:53.8	91.900	-0.060	-0.370	1.350
2020/01/31 05:35:53.9	91.870	-0.020	-0.410	1.350
2020/01/31 05:35:54.0	91.850	0.010	-0.440	1.340
2020/01/31 05:35:54.1	91.830	0.040	-0.480	1.320
2020/01/31 05:35:54.2	91.800	0.080	-0.520	1.300
2020/01/31 05:35:54.3	91.780	0.110	-0.560	1.280
2020/01/31 05:35:54.4	91.760	0.140	-0.590	1.260
2020/01/31 05:35:54.5	91.740	0.170	-0.620	1.240
2020/01/31 05:35:54.6	91.730	0.200	-0.640	1.210
2020/01/31 05:35:54.7	91.720	0.230	-0.660	1.190
2020/01/31 05:35:54.8	91.720	0.260	-0.680	1.160
2020/01/31 05:35:54.9	91.710	0.280	-0.690	1.120
2020/01/31 05:35:55.0	91.710	0.310	-0.700	1.090
2020/01/31 05:35:55.1	91.710	0.320	-0.700	1.060
2020/01/31 05:35:55.2	91.720	0.340	-0.700	1.020
2020/01/31 05:35:55.3	91.720	0.350	-0.690	0.980
2020/01/31 05:35:55.4	91.720	0.370	-0.670	0.940
2020/01/31 05:35:55.5	91.730	0.370	-0.650	0.900
2020/01/31 05:35:55.6	91.740	0.380	-0.630	0.860
2020/01/31 05:35:55.7	91.740	0.380	-0.600	0.820
2020/01/31 05:35:55.8	91.750	0.380	-0.570	0.780
2020/01/31 05:35:55.9	91.760	0.380	-0.530	0.740
2020/01/31 05:35:56.0	91.770	0.370	-0.490	0.690
2020/01/31 05:35:56.1	91.780	0.360	-0.440	0.650
2020/01/31 05:35:56.2	91.790	0.350	-0.400	0.600
2020/01/31 05:35:56.3	91.800	0.340	-0.350	0.560
2020/01/31 05:35:56.4	91.810	0.330	-0.300	0.520
2020/01/31 05:35:56.5	91.820	0.310	-0.240	0.480
2020/01/31 05:35:56.6	91.820	0.300	-0.190	0.440
2020/01/31 05:35:56.7	91.830	0.280	-0.140	0.400
2020/01/31 05:35:56.8	91.830	0.260	-0.090	0.360
2020/01/31 05:35:56.9	91.840	0.250	-0.040	0.330
2020/01/31 05:35:57.0	91.840	0.230	0.010	0.290
2020/01/31 05:35:57.1	91.850	0.210	0.060	0.260
2020/01/31 05:35:57.2	91.860	0.190	0.110	0.230
2020/01/31 05:35:57.3	91.860	0.180	0.150	0.200
2020/01/31 05:35:57.4	91.870	0.160	0.190	0.180
2020/01/31 05:35:57.5	91.880	0.150	0.220	0.160
2020/01/31 05:35:57.6	91.900	0.130	0.260	0.140
2020/01/31 05:35:57.7	91.910	0.120	0.280	0.130
2020/01/31 05:35:57.8	91.930	0.100	0.310	0.120
2020/01/31 05:35:57.9	91.940	0.090	0.330	0.110
2020/01/31 05:35:58.0	91.960	0.080	0.340	0.110
2020/01/31 05:35:58.1	91.980	0.060	0.350	0.110
2020/01/31 05:35:58.2	92.010	0.050	0.360	0.110
2020/01/31 05:35:58.3	92.030	0.040	0.360	0.120
2020/01/31 05:35:58.4	92.060	0.030	0.360	0.140
2020/01/31 05:35:58.5	92.080	0.020	0.350	0.160
2020/01/31 05:35:58.6	92.110	0.010	0.340	0.180
2020/01/31 05:35:58.7	92.130	0.000	0.330	0.210
2020/01/31 05:35:58.8	92.150	-0.010	0.310	0.240
2020/01/31 05:35:58.9	92.180	-0.020	0.300	0.280
2020/01/31 05:35:59.0	92.200	-0.030	0.270	0.320
2020/01/31 05:35:59.1	92.220	-0.040	0.250	0.360
2020/01/31 05:35:59.2	92.230	-0.040	0.220	0.400
2020/01/31 05:35:59.3	92.250	-0.050	0.190	0.450
2020/01/31 05:35:59.4	92.270	-0.060	0.160	0.490
2020/01/31 05:35:59.5	92.280	-0.070	0.130	0.540
2020/01/31 05:35:59.6	92.290	-0.070	0.100	0.590
2020/01/31 05:35:59.7	92.300	-0.080	0.060	0.630
2020/01/31 05:35:59.8	92.300	-0.090	0.030	0.680
2020/01/31 05:35:59.9	92.310	-0.090	-0.010	0.730
2020/01/31 05:36:00.0	92.310	-0.100	-0.050	0.780
2020/01/31 05:36:00.1	92.310	-0.100	-0.090	0.830
2020/01/31 05:36:00.2	92.300	-0.100	-0.130	0.870
2020/01/31 05:36:00.3	92.300	-0.110	-0.170	0.920
2020/01/31 05:36:00.4	92.290	-0.110	-0.210	0.960
2020/01/31 05:36:00.5	92.280	-0.110	-0.250	1.010
2020/01/31 05:36:00.6	92.270	-0.110	-0.290	1.050
2020/01/31 05:36:00.7	92.260	-0.110	-0.330	1.100
2020/01/31 05:36:00.8	92.250	-0.110	-0.360	1.150
2020/01/31 05:36:00.9	92.230	-0.110	-0.400	1.190
2020/01/31 05:36:01.0	92.220	-0.110	-0.430	1.240
2020/01/31 05:36:01.1	92.200	-0.110	-0.470	1.290
2020/01/31 05:36:01.2	92.170	-0.110	-0.500	1.330
2020/01/31 05:36:01.3	92.150	-0.110	-0.530	1.380
2020/01/31 05:36:01.4	92.130	-0.110	-0.550	1.430
2020/01/31 05:36:01.5	92.100	-0.110	-0.580	1.470
2020/01/31 05:36:01.6	92.070	-0.110	-0.600	1.520
2020/01/31 05:36:01.7	92.050	-0.110	-0.620	1.560
2020/01/31 05:36:01.8	92.020	-0.100	-0.630	1.600
2020/01/31 05:36:01.9	91.990	-0.100	-0.650	1.640
2020/01/31 05:36:02.0	91.960	-0.100	-0.660	1.680
2020/01/31 05:36:02.1	91.930	-0.100	-0.660	1.720
2020/01/31 05:36:02.2	91.910	-0.100	-0.660	1.750
2020/01/31 05:36:02.3	91.880	-0.100	-0.660	1.770
2020/01/31 05:36:02.4	91.860	-0.090	-0.660	1.800
2020/01/31 05:36:02.5	91.830	-0.090	-0.660	1.810
2020/01/31 05:36:02.6	91.810	-0.090	-0.650	1.830
2020/01/31 05:36:02.7	91.800	-0.090	-0.640	1.830
2020/01/31 05:36:02.8	91.780	-0.090	-0.620	1.840
2020/01/31 05:36:02.9	91.770	-0.090	-0.610	1.840
2020/01/31 05:36:03.0	91.760	-0.090	-0.590	1.830
2020/01/31 05:36:03.1	91.750	-0.090	-0.570	1.820
2020/01/31 05:36:03.2	91.740	-0.080	-0.550	1.800
2020/01/31 05:36:03.3	91.740	-0.080	-0.530	1.780
2020/01/31 05:36:03.4	91.740	-0.080	-0.510	1.760
2020/01/31 05:36:03.5	91.740	-0.080	-0.480	1.730
2020/01/31 05:36:03.6	91.740	-0.080	-0.460	1.700
2020/01/31 05:36:03.7	91.750	-0.070	-0.430	1.670
2020/01/31 05:36:03.8	91.760	-0.070	-0.410	1.630
2020/01/31 05:36:03.9	91.770	-0.070	-0.380	1.600
2020/01/31 05:36:04.0	91.770	-0.060	-0.360	1.560
2020/01/31 05:36:04.1	91.790	-0.050	-0.330	1.520
2020/01/31 05:36:04.2	91.800	-0.050	-0.310	1.480
2020/01/31 05:36:04.3	91.810	-0.040	-0.280	1.440
2020/01/31 05:36:04.4	91.830	-0.030	-0.260	1.390
2020/01/31 05:36:04.5	91.840	-0.020	-0.230	1.350
2020/01/31 05:36:04.6	91.860	-0.010	-0.210	1.300
2020/01/31 05:36:04.7	91.880	-0.000	-0.190	1.260
2020/01/31 05:36:04.8	91.900	0.010	-0.170	1.210
2020/01/31 05:36:04.9	91.920	0.010	-0.140	1.160
2020/01/31 05:36:05.0	91.940	0.020	-0.120	1.120
2020/01/31 05:36:05.1	91.960	0.030	-0.100	1.070
2020/01/31 05:36:05.2	91.990	0.040	-0.080	1.020
2020/01/31 05:36:05.3	92.010	0.050	-0.060	0.970
2020/01/31 05:36:05.4	92.020	0.060	-0.040	0.930
2020/01/31 05:36:05.5	92.040	0.060	-0.020	0.880
2020/01/31 05:36:05.6	92.060	0.070	0.000	0.840
2020/01/31 05:36:05.7	92.080	0.070	0.020	0.790
2020/01/31 05:36:05.8	92.090	0.080	0.040	0.750
2020/01/31 05:36:05.9	92.100	0.080	0.060	0.710
2020/01/31 05:36:06.0	92.110	0.080	0.080	0.670
2020/01/31 05:36:06.1	92.120	0.080	0.090	0.630
2020/01/31 05:36:06.2	92.130	0.080	0.110	0.600
2020/01/31 05:36:06.3	92.130	0.080	0.120	0.560
2020/01/31 05:36:06.4	92.140	0.070	0.130	0.530
2020/01/31 05:36:06.5	92.140	0.070	0.140	0.510
2020/01/31 05:36:06.6	92.130	0.060	0.150	0.480
2020/01/31 05:36:06.7	92.130	0.060	0.150	0.470
2020/01/31 05:36:06.8	92.120	0.050	0.150	0.450
2020/01/31 05:36:06.9	92.110	0.040	0.150	0.440
2020/01/31 05:36:07.0	92.100	0.030	0.150	0.440
2020/01/31 05:36:07.1	92.080	0.020	0.140	0.440
2020/01/31 05:36:07.2	92.060	0.010	0.130	0.440
2020/01/31 05:36:07.3	92.040	0.000	0.120	0.450
2020/01/31 05:36:07.4	92.010	-0.010	0.110	0.460
2020/01/31 05:36:07.5	91.990	-0.020	0.100	0.470
2020/01/31 05:36:07.6	91.970	-0.030	0.080	0.490
2020/01/31 05:36:07.7	91.940	-0.040	0.070	0.500
2020/01/31 05:36:07.8	91.920	-0.060	0.050	0.520
2020/01/31 05:36:07.9	91.890	-0.070	0.030	0.540
2020/01/31 05:36:08.0	91.860	-0.080	0.010	0.560
2020/01/31 05:36:08.1	91.840	-0.090	-0.010	0.570
2020/01/31 05:36:08.2	91.820	-0.100	-0.020	0.590
2020/01/31 05:36:08.3	91.790	-0.110	-0.040	0.610
2020/01/31 05:36:08.4	91.770	-0.120	-0.070	0.620
2020/01/31 05:36:08.5	91.750	-0.130	-0.090	0.630
2020/01/31 05:36:08.6	91.730	-0.140	-0.110	0.650
2020/01/31 05:36:08.7	91.710	-0.150	-0.140	0.660
2020/01/31 05:36:08.8	91.690	-0.150	-0.160	0.660
2020/01/31 05:36:08.9	91.680	-0.160	-0.180	0.670
2020/01/31 05:36:09.0	91.670	-0.160	-0.210	0.680
2020/01/31 05:36:09.1	91.660	-0.160	-0.230	0.680
2020/01/31 05:36:09.2	91.660	-0.160	-0.260	0.680
2020/01/31 05:36:09.3	91.650	-0.160	-0.290	0.690
2020/01/31 05:36:09.4	91.650	-0.150	-0.310	0.690
2020/01/31 05:36:09.5	91.650	-0.150	-0.340	0.690
2020/01/31 05:36:09.6	91.660	-0.140	-0.370	0.690
2020/01/31 05:36:09.7	91.660	-0.130	-0.390	0.690
2020/01/31 05:36:09.8	91.670	-0.120	-0.420	0.690
2020/01/31 05:36:09.9	91.670	-0.110	-0.450	0.690
2020/01/31 05:36:10.0	91.680	-0.100	-0.470	0.700
2020/01/31 05:36:10.1	91.690	-0.090	-0.500	0.700
2020/01/31 05:36:10.2	91.700	-0.070	-0.530	0.700
2020/01/31 05:36:10.3	91.710	-0.050	-0.550	0.710
2020/01/31 05:36:10.4	91.710	-0.040	-0.580	0.710
2020/01/31 05:36:10.5	91.720	-0.020	-0.600	0.720
2020/01/31 05:36:10.6	91.730	-0.000	-0.620	0.730
2020/01/31 05:36:10.7	91.730	0.020	-0.640	0.730
2020/01/31 05:36:10.8	91.740	0.040	-0.660	0.750
2020/01/31 05:36:10.9	91.740	0.060	-0.680	0.760
2020/01/31 05:36:11.0	91.740	0.070	-0.690	0.770
2020/01/31 05:36:11.1	91.740	0.090	-0.700	0.780
2020/01/31 05:36:11.2	91.730	0.110	-0.710	0.800
2020/01/31 05:36:11.3	91.730	0.130	-0.710	0.810
2020/01/31 05:36:11.4	91.730	0.140	-0.700	0.830
2020/01/31 05:36:11.5	91.720	0.150	-0.690	0.840
2020/01/31 05:36:11.6	91.720	0.160	-0.680	0.860
2020/01/31 05:36:11.7	91.710	0.170	-0.660	0.880
2020/01/31 05:36:11.8	91.710	0.180	-0.640	0.890
2020/01/31 05:36:11.9	91.700	0.180	-0.610	0.910
2020/01/31 05:36:12.0	91.690	0.180	-0.570	0.930
2020/01/31 05:36:12.1	91.690	0.180	-0.530	0.950
2020/01/31 05:36:12.2	91.670	0.170	-0.490	0.970
2020/01/31 05:36:12.3	91.660	0.170	-0.440	0.990
2020/01/31 05:36:12.4	91.650	0.160	-0.390	1.010
2020/01/31 05:36:12.5	91.630	0.140	-0.330	1.040
2020/01/31 05:36:12.6	91.620	0.130	-0.270	1.070
2020/01/31 05:36:12.7	91.610	0.110	-0.210	1.090
2020/01/31 05:36:12.8	91.590	0.090	-0.150	1.120
2020/01/31 05:36:12.9	91.570	0.070	-0.080	1.150
2020/01/31 05:36:13.0	91.550	0.040	-0.020	1.190
2020/01/31 05:36:13.1	91.530	0.020	0.050	1.220
2020/01/31 05:36:13.2	91.510	-0.010	0.110	1.250
2020/01/31 05:36:13.3	91.490	-0.040	0.170	1.280
2020/01/31 05:36:13.4	91.460	-0.070	0.230	1.310
2020/01/31 05:36:13.5	91.430	-0.090	0.280	1.350
2020/01/31 05:36:13.6	91.400	-0.120	0.340	1.380
2020/01/31 05:36:13.7	91.370	-0.150	0.380	1.410
2020/01/31 05:36:13.8	91.340	-0.180	0.430	1.430
2020/01/31 05:36:13.9	91.300	-0.200	0.470	1.460
2020/01/31 05:36:14.0	91.270	-0.230	0.500	1.480
2020/01/31 05:36:14.1	91.230	-0.250	0.520	1.500
2020/01/31 05:36:14.2	91.210	-0.270	0.540	1.510
2020/01/31 05:36:14.3	91.170	-0.290	0.550	1.520
2020/01/31 05:36:14.4	91.140	-0.300	0.560	1.530
2020/01/31 05:36:14.5	91.110	-0.320	0.560	1.530
2020/01/31 05:36:14.6	91.080	-0.330	0.550	1.530
2020/01/31 05:36:14.7	91.060	-0.330	0.530	1.530
2020/01/31 05:36:14.8	91.030	-0.340	0.500	1.520
2020/01/31 05:36:14.9	91.010	-0.330	0.470	1.500
2020/01/31 05:36:15.0	90.980	-0.330	0.420	1.480
2020/01/31 05:36:15.1	90.970	-0.320	0.370	1.460
2020/01/31 05:36:15.2	90.950	-0.310	0.320	1.430
2020/01/31 05:36:15.3	90.930	-0.300	0.250	1.390
2020/01/31 05:36:15.4	90.920	-0.280	0.190	1.360
2020/01/31 05:36:15.5	90.920	-0.260	0.110	1.320
2020/01/31 05:36:15.6	90.910	-0.230	0.030	1.270
2020/01/31 05:36:15.7	90.910	-0.210	-0.050	1.230
2020/01/31 05:36:15.8	90.910	-0.180	-0.130	1.180
2020/01/31 05:36:15.9	90.910	-0.150	-0.220	1.130
2020/01/31 05:36:16.0	90.920	-0.110	-0.310	1.080
2020/01/31 05:36:16.1	90.930	-0.080	-0.400	1.020
2020/01/31 05:36:16.2	90.930	-0.040	-0.490	0.970
2020/01/31 05:36:16.3	90.950	-0.000	-0.580	0.920
2020/01/31 05:36:16.4	90.960	0.040	-0.660	0.870
2020/01/31 05:36:16.5	90.980	0.080	-0.740	0.830
2020/01/31 05:36:16.6	91.000	0.120	-0.810	0.790
2020/01/31 05:36:16.7	91.020	0.150	-0.880	0.750
2020/01/31 05:36:16.8	91.040	0.190	-0.950	0.720
2020/01/31 05:36:16.9	91.060	0.230	-1.010	0.690
2020/01/31 05:36:17.0	91.070	0.270	-1.060	0.670
2020/01/31 05:36:17.1	91.090	0.300	-1.110	0.650
2020/01/31 05:36:17.2	91.110	0.340	-1.140	0.640
2020/01/31 05:36:17.3	91.120	0.370	-1.170	0.630
2020/01/31 05:36:17.4	91.140	0.390	-1.190	0.620
2020/01/31 05:36:17.5	91.150	0.420	-1.200	0.630
2020/01/31 05:36:17.6	91.160	0.440	-1.210	0.630
2020/01/31 05:36:17.7	91.170	0.460	-1.200	0.640
2020/01/31 05:36:17.8	91.170	0.480	-1.180	0.650
2020/01/31 05:36:17.9	91.180	0.490	-1.150	0.670
2020/01/31 05:36:18.0	91.180	0.500	-1.110	0.690
2020/01/31 05:36:18.1	91.180	0.510	-1.060	0.710
2020/01/31 05:36:18.2	91.190	0.510	-1.010	0.730
2020/01/31 05:36:18.3	91.180	0.500	-0.940	0.750
2020/01/31 05:36:18.4	91.180	0.500	-0.860	0.780
2020/01/31 05:36:18.5	91.170	0.480	-0.780	0.810
2020/01/31 05:36:18.6	91.160	0.470	-0.690	0.840
2020/01/31 05:36:18.7	91.140	0.450	-0.590	0.870
2020/01/31 05:36:18.8	91.130	0.420	-0.480	0.900
2020/01/31 05:36:18.9	91.110	0.390	-0.370	0.930
2020/01/31 05:36:19.0	91.090	0.360	-0.260	0.960
2020/01/31 05:36:19.1	91.070	0.320	-0.140	1.000
2020/01/31 05:36:19.2	91.050	0.280	-0.020	1.030
2020/01/31 05:36:19.3	91.020	0.240	0.090	1.070
2020/01/31 05:36:19.4	91.000	0.190	0.210	1.100
2020/01/31 05:36:19.5	90.980	0.150	0.320	1.140
2020/01/31 05:36:19.6	90.950	0.100	0.430	1.170
2020/01/31 05:36:19.7	90.930	0.050	0.530	1.210
2020/01/31 05:36:19.8	90.900	-0.000	0.630	1.240
2020/01/31 05:36:19.9	90.880	-0.050	0.710	1.270
2020/01/31 05:36:20.0	90.860	-0.110	0.790	1.300
2020/01/31 05:36:20.1	90.840	-0.160	0.860	1.330
2020/01/31 05:36:20.2	90.830	-0.200	0.920	1.350
2020/01/31 05:36:20.3	90.810	-0.250	0.960	1.370
2020/01/31 05:36:20.4	90.790	-0.290	1.000	1.390
2020/01/31 05:36:20.5	90.780	-0.340	1.020	1.410
2020/01/31 05:36:20.6	90.770	-0.370	1.020	1.420
2020/01/31 05:36:20.7	90.760	-0.410	1.010	1.420
2020/01/31 05:36:20.8	90.750	-0.440	0.990	1.420
2020/01/31 05:36:20.9	90.740	-0.460	0.960	1.420
2020/01/31 05:36:21.0	90.740	-0.480	0.910	1.410
2020/01/31 05:36:21.1	90.740	-0.490	0.850	1.390
2020/01/31 05:36:21.2	90.730	-0.500	0.770	1.380
2020/01/31 05:36:21.3	90.730	-0.500	0.680	1.350
2020/01/31 05:36:21.4	90.730	-0.500	0.590	1.330
2020/01/31 05:36:21.5	90.740	-0.490	0.480	1.300
2020/01/31 05:36:21.6	90.740	-0.480	0.360	1.280
2020/01/31 05:36:21.7	90.740	-0.460	0.240	1.250
2020/01/31 05:36:21.8	90.750	-0.430	0.110	1.220
2020/01/31 05:36:21.9	90.750	-0.410	-0.020	1.190
2020/01/31 05:36:22.0	90.760	-0.370	-0.150	1.160
2020/01/31 05:36:22.1	90.760	-0.340	-0.280	1.140
2020/01/31 05:36:22.2	90.780	-0.300	-0.420	1.110
2020/01/31 05:36:22.3	90.780	-0.250	-0.550	1.090
2020/01/31 05:36:22.4	90.790	-0.210	-0.670	1.070
2020/01/31 05:36:22.5	90.790	-0.170	-0.790	1.050
2020/01/31 05:36:22.6	90.800	-0.120	-0.890	1.030
2020/01/31 05:36:22.7	90.800	-0.070	-1.000	1.020
2020/01/31 05:36:22.8	90.810	-0.030	-1.090	1.010
2020/01/31 05:36:22.9	90.810	0.020	-1.170	1.000
2020/01/31 05:36:23.0	90.820	0.060	-1.240	0.990
2020/01/31 05:36:23.1	90.820	0.100	-1.300	0.990
2020/01/31 05:36:23.2	90.830	0.140	-1.350	0.990
2020/01/31 05:36:23.3	90.840	0.180	-1.390	0.990
2020/01/31 05:36:23.4	90.840	0.210	-1.410	0.990
2020/01/31 05:36:23.5	90.840	0.240	-1.410	1.000
2020/01/31 05:36:23.6	90.850	0.260	-1.410	1.020
2020/01/31 05:36:23.7	90.850	0.280	-1.390	1.030
2020/01/31 05:36:23.8	90.850	0.290	-1.360	1.050
2020/01/31 05:36:23.9	90.850	0.300	-1.310	1.070
2020/01/31 05:36:24.0	90.850	0.310	-1.260	1.090
2020/01/31 05:36:24.1	90.850	0.310	-1.190	1.110
2020/01/31 05:36:24.2	90.850	0.300	-1.110	1.140
2020/01/31 05:36:24.3	90.840	0.290	-1.020	1.170
2020/01/31 05:36:24.4	90.840	0.270	-0.920	1.190
2020/01/31 05:36:24.5	90.830	0.250	-0.820	1.220
2020/01/31 05:36:24.6	90.820	0.220	-0.710	1.250
2020/01/31 05:36:24.7	90.810	0.190	-0.590	1.280
2020/01/31 05:36:24.8	90.790	0.150	-0.470	1.310
2020/01/31 05:36:24.9	90.780	0.110	-0.340	1.340
2020/01/31 05:36:25.0	90.760	0.070	-0.220	1.360
2020/01/31 05:36:25.1	90.750	0.020	-0.090	1.390
2020/01/31 05:36:25.2	90.720	-0.020	0.030	1.410
2020/01/31 05:36:25.3	90.700	-0.070	0.150	1.430
2020/01/31 05:36:25.4	90.680	-0.130	0.270	1.450
2020/01/31 05:36:25.5	90.660	-0.180	0.380	1.460
2020/01/31 05:36:25.6	90.640	-0.230	0.480	1.470
2020/01/31 05:36:25.7	90.620	-0.280	0.580	1.480
2020/01/31 05:36:25.8	90.610	-0.330	0.670	1.480
2020/01/31 05:36:25.9	90.590	-0.380	0.740	1.480
2020/01/31 05:36:26.0	90.570	-0.420	0.810	1.470
2020/01/31 05:36:26.1	90.550	-0.470	0.870	1.460
2020/01/31 05:36:26.2	90.530	-0.510	0.910	1.440
2020/01/31 05:36:26.3	90.520	-0.540	0.940	1.410
2020/01/31 05:36:26.4	90.510	-0.570	0.960	1.390
2020/01/31 05:36:26.5	90.500	-0.600	0.960	1.360
2020/01/31 05:36:26.6	90.490	-0.620	0.960	1.320
2020/01/31 05:36:26.7	90.480	-0.640	0.930	1.280
2020/01/31 05:36:26.8	90.480	-0.640	0.900	1.240
2020/01/31 05:36:26.9	90.470	-0.650	0.850	1.190
2020/01/31 05:36:27.0	90.470	-0.640	0.790	1.140
2020/01/31 05:36:27.1	90.470	-0.640	0.720	1.090
2020/01/31 05:36:27.2	90.480	-0.620	0.640	1.040
2020/01/31 05:36:27.3	90.480	-0.600	0.550	0.990
2020/01/31 05:36:27.4	90.490	-0.570	0.450	0.940
2020/01/31 05:36:27.5	90.490	-0.540	0.340	0.890
2020/01/31 05:36:27.6	90.500	-0.500	0.220	0.840
2020/01/31 05:36:27.7	90.510	-0.450	0.110	0.790
2020/01/31 05:36:27.8	90.520	-0.410	-0.010	0.740
2020/01/31 05:36:27.9	90.530	-0.360	-0.140	0.700
2020/01/31 05:36:28.0	90.550	-0.300	-0.260	0.650
2020/01/31 05:36:28.1	90.560	-0.240	-0.380	0.610
2020/01/31 05:36:28.2	90.580	-0.180	-0.500	0.570
2020/01/31 05:36:28.3	90.600	-0.120	-0.610	0.530
2020/01/31 05:36:28.4	90.610	-0.060	-0.720	0.500
2020/01/31 05:36:28.5	90.630	0.000	-0.820	0.460
2020/01/31 05:36:28.6	90.650	0.060	-0.910	0.430
2020/01/31 05:36:28.7	90.670	0.120	-1.000	0.410
2020/01/31 05:36:28.8	90.690	0.180	-1.070	0.380
2020/01/31 05:36:28.9	90.710	0.240	-1.140	0.360
2020/01/31 05:36:29.0	90.730	0.290	-1.190	0.340
2020/01/31 05:36:29.1	90.750	0.350	-1.230	0.330
2020/01/31 05:36:29.2	90.770	0.390	-1.260	0.320
2020/01/31 05:36:29.3	90.780	0.440	-1.280	0.320
2020/01/31 05:36:29.4	90.790	0.480	-1.290	0.310
2020/01/31 05:36:29.5	90.810	0.510	-1.280	0.320
2020/01/31 05:36:29.6	90.820	0.540	-1.260	0.330
2020/01/31 05:36:29.7	90.820	0.560	-1.240	0.340
2020/01/31 05:36:29.8	90.830	0.580	-1.200	0.350
2020/01/31 05:36:29.9	90.830	0.600	-1.150	0.370
2020/01/31 05:36:30.0	90.840	0.600	-1.090	0.390
2020/01/31 05:36:30.1	90.840	0.610	-1.030	0.410
2020/01/31 05:36:30.2	90.830	0.600	-0.950	0.440
2020/01/31 05:36:30.3	90.830	0.590	-0.870	0.470
2020/01/31 05:36:30.4	90.830	0.580	-0.790	0.500
2020/01/31 05:36:30.5	90.820	0.560	-0.700	0.530
2020/01/31 05:36:30.6	90.810	0.540	-0.610	0.560
2020/01/31 05:36:30.7	90.800	0.510	-0.510	0.600
2020/01/31 05:36:30.8	90.780	0.480	-0.420	0.640
2020/01/31 05:36:30.9	90.770	0.440	-0.320	0.680
2020/01/31 05:36:31.0	90.750	0.400	-0.230	0.720
2020/01/31 05:36:31.1	90.730	0.350	-0.130	0.760
2020/01/31 05:36:31.2	90.710	0.310	-0.040	0.800
2020/01/31 05:36:31.3	90.680	0.260	0.050	0.850
2020/01/31 05:36:31.4	90.660	0.210	0.130	0.890
2020/01/31 05:36:31.5	90.630	0.150	0.210	0.940
2020/01/31 05:36:31.6	90.610	0.100	0.290	0.980
2020/01/31 05:36:31.7	90.580	0.050	0.360	1.020
2020/01/31 05:36:31.8	90.560	-0.010	0.420	1.070
2020/01/31 05:36:31.9	90.530	-0.060	0.470	1.110
2020/01/31 05:36:32.0	90.500	-0.110	0.520	1.150
2020/01/31 05:36:32.1	90.480	-0.160	0.560	1.180
2020/01/31 05:36:32.2	90.450	-0.210	0.600	1.210
2020/01/31 05:36:32.3	90.430	-0.260	0.620	1.240
2020/01/31 05:36:32.4	90.410	-0.300	0.630	1.260
2020/01/31 05:36:32.5	90.390	-0.340	0.640	1.280
2020/01/31 05:36:32.6	90.370	-0.380	0.640	1.300
2020/01/31 05:36:32.7	90.360	-0.410	0.630	1.310
2020/01/31 05:36:32.8	90.340	-0.440	0.610	1.310
2020/01/31 05:36:32.9	90.330	-0.460	0.580	1.320
2020/01/31 05:36:33.0	90.320	-0.480	0.550	1.310
2020/01/31 05:36:33.1	90.310	-0.490	0.520	1.310
2020/01/31 05:36:33.2	90.300	-0.500	0.470	1.290
2020/01/31 05:36:33.3	90.300	-0.500	0.420	1.280
2020/01/31 05:36:33.4	90.290	-0.500	0.370	1.260
2020/01/31 05:36:33.5	90.280	-0.490	0.320	1.240
2020/01/31 05:36:33.6	90.280	-0.480	0.260	1.220
2020/01/31 05:36:33.7	90.270	-0.460	0.200	1.200
2020/01/31 05:36:33.8	90.270	-0.440	0.140	1.180
2020/01/31 05:36:33.9	90.260	-0.410	0.080	1.150
2020/01/31 05:36:34.0	90.260	-0.380	0.020	1.120
2020/01/31 05:36:34.1	90.260	-0.350	-0.050	1.100
2020/01/31 05:36:34.2	90.250	-0.310	-0.110	1.070
2020/01/31 05:36:34.3	90.250	-0.270	-0.170	1.040
2020/01/31 05:36:34.4	90.250	-0.230	-0.230	1.010
2020/01/31 05:36:34.5	90.250	-0.180	-0.300	0.980
2020/01/31 05:36:34.6	90.250	-0.140	-0.360	0.950
2020/01/31 05:36:34.7	90.260	-0.090	-0.420	0.920
2020/01/31 05:36:34.8	90.260	-0.030	-0.480	0.890
2020/01/31 05:36:34.9	90.260	0.020	-0.530	0.860
2020/01/31 05:36:35.0	90.270	0.070	-0.590	0.830
2020/01/31 05:36:35.1	90.270	0.120	-0.640	0.800
2020/01/31 05:36:35.2	90.270	0.180	-0.700	0.770
2020/01/31 05:36:35.3	90.270	0.230	-0.750	0.750
2020/01/31 05:36:35.4	90.280	0.280	-0.800	0.720
2020/01/31 05:36:35.5	90.290	0.330	-0.840	0.700
2020/01/31 05:36:35.6	90.300	0.380	-0.880	0.680
2020/01/31 05:36:35.7	90.310	0.420	-0.920	0.660
2020/01/31 05:36:35.8	90.330	0.460	-0.950	0.650
2020/01/31 05:36:35.9	90.340	0.500	-0.980	0.630
2020/01/31 05:36:36.0	90.350	0.540	-1.000	0.620
2020/01/31 05:36:36.1	90.370	0.570	-1.020	0.610
2020/01/31 05:36:36.2	90.380	0.600	-1.030	0.600
2020/01/31 05:36:36.3	90.400	0.630	-1.030	0.600
2020/01/31 05:36:36.4	90.410	0.650	-1.030	0.600
2020/01/31 05:36:36.5	90.430	0.660	-1.020	0.600
2020/01/31 05:36:36.6	90.450	0.670	-1.000	0.610
2020/01/31 05:36:36.7	90.460	0.680	-0.970	0.620
2020/01/31 05:36:36.8	90.480	0.680	-0.930	0.630
2020/01/31 05:36:36.9	90.500	0.670	-0.890	0.640
2020/01/31 05:36:37.0	90.510	0.660	-0.830	0.650
2020/01/31 05:36:37.1	90.530	0.640	-0.770	0.670
2020/01/31 05:36:37.2	90.540	0.620	-0.700	0.690
2020/01/31 05:36:37.3	90.550	0.590	-0.620	0.710
2020/01/31 05:36:37.4	90.570	0.550	-0.540	0.740
2020/01/31 05:36:37.5	90.580	0.520	-0.450	0.760
2020/01/31 05:36:37.6	90.590	0.470	-0.350	0.790
2020/01/31 05:36:37.7	90.590	0.420	-0.250	0.810
2020/01/31 05:36:37.8	90.600	0.370	-0.150	0.840
2020/01/31 05:36:37.9	90.600	0.310	-0.040	0.870
2020/01/31 05:36:38.0	90.600	0.250	0.070	0.900
2020/01/31 05:36:38.1	90.600	0.190	0.180	0.920
2020/01/31 05:36:38.2	90.600	0.130	0.280	0.950
2020/01/31 05:36:38.3	90.590	0.060	0.390	0.980
2020/01/31 05:36:38.4	90.580	-0.010	0.490	1.000
2020/01/31 05:36:38.5	90.570	-0.080	0.580	1.030
2020/01/31 05:36:38.6	90.560	-0.150	0.670	1.050
2020/01/31 05:36:38.7	90.540	-0.220	0.760	1.080
2020/01/31 05:36:38.8	90.530	-0.290	0.830	1.100
2020/01/31 05:36:38.9	90.510	-0.360	0.900	1.120
2020/01/31 05:36:39.0	90.490	-0.420	0.950	1.140
2020/01/31 05:36:39.1	90.470	-0.480	0.990	1.160
2020/01/31 05:36:39.2	90.460	-0.540	1.020	1.180
2020/01/31 05:36:39.3	90.440	-0.590	1.040	1.200
2020/01/31 05:36:39.4	90.420	-0.640	1.050	1.210
2020/01/31 05:36:39.5	90.410	-0.680	1.040	1.220
2020/01/31 05:36:39.6	90.390	-0.720	1.020	1.230
2020/01/31 05:36:39.7	90.380	-0.750	0.990	1.240
2020/01/31 05:36:39.8	90.360	-0.770	0.940	1.250
2020/01/31 05:36:39.9	90.360	-0.790	0.880	1.250
2020/01/31 05:36:40.0	90.350	-0.800	0.810	1.250
2020/01/31 05:36:40.1	90.340	-0.800	0.730	1.250
2020/01/31 05:36:40.2	90.340	-0.800	0.630	1.250
2020/01/31 05:36:40.3	90.340	-0.790	0.530	1.240
2020/01/31 05:36:40.4	90.340	-0.770	0.410	1.230
2020/01/31 05:36:40.5	90.340	-0.740	0.290	1.220
2020/01/31 05:36:40.6	90.350	-0.710	0.160	1.200
2020/01/31 05:36:40.7	90.360	-0.670	0.020	1.190
2020/01/31 05:36:40.8	90.370	-0.630	-0.110	1.170
2020/01/31 05:36:40.9	90.380	-0.580	-0.250	1.150
2020/01/31 05:36:41.0	90.390	-0.530	-0.390	1.130
2020/01/31 05:36:41.1	90.400	-0.470	-0.530	1.110
2020/01/31 05:36:41.2	90.410	-0.410	-0.670	1.080
2020/01/31 05:36:41.3	90.420	-0.350	-0.800	1.060
2020/01/31 05:36:41.4	90.430	-0.290	-0.920	1.040
2020/01/31 05:36:41.5	90.440	-0.220	-1.040	1.020
2020/01/31 05:36:41.6	90.440	-0.160	-1.140	1.000
2020/01/31 05:36:41.7	90.450	-0.100	-1.240	0.980
2020/01/31 05:36:41.8	90.450	-0.040	-1.320	0.970
2020/01/31 05:36:41.9	90.450	0.020	-1.390	0.960
2020/01/31 05:36:42.0	90.450	0.080	-1.440	0.950
2020/01/31 05:36:42.1	90.450	0.130	-1.480	0.940
2020/01/31 05:36:42.2	90.440	0.180	-1.510	0.940
2020/01/31 05:36:42.3	90.430	0.220	-1.520	0.940
2020/01/31 05:36:42.4	90.430	0.260	-1.510	0.940
2020/01/31 05:36:42.5	90.420	0.290	-1.490	0.940
2020/01/31 05:36:42.6	90.400	0.320	-1.460	0.950
2020/01/31 05:36:42.7	90.390	0.340	-1.400	0.960
2020/01/31 05:36:42.8	90.370	0.360	-1.340	0.970
2020/01/31 05:36:42.9	90.350	0.370	-1.260	0.990
2020/01/31 05:36:43.0	90.340	0.370	-1.180	1.000
2020/01/31 05:36:43.1	90.320	0.370	-1.080	1.020
2020/01/31 05:36:43.2	90.290	0.360	-0.970	1.040
2020/01/31 05:36:43.3	90.270	0.350	-0.860	1.060
2020/01/31 05:36:43.4	90.250	0.330	-0.740	1.070
2020/01/31 05:36:43.5	90.230	0.310	-0.620	1.090
2020/01/31 05:36:43.6	90.210	0.280	-0.500	1.110
2020/01/31 05:36:43.7	90.200	0.250	-0.380	1.120
2020/01/31 05:36:43.8	90.180	0.220	-0.260	1.140
2020/01/31 05:36:43.9	90.160	0.180	-0.140	1.150
2020/01/31 05:36:44.0	90.140	0.140	-0.020	1.160
2020/01/31 05:36:44.1	90.130	0.100	0.080	1.170
2020/01/31 05:36:44.2	90.120	0.060	0.190	1.180
2020/01/31 05:36:44.3	90.110	0.020	0.280	1.180
2020/01/31 05:36:44.4	90.100	-0.030	0.370	1.180
2020/01/31 05:36:44.5	90.090	-0.070	0.440	1.180
2020/01/31 05:36:44.6	90.080	-0.110	0.510	1.180
2020/01/31 05:36:44.7	90.080	-0.140	0.560	1.170
2020/01/31 05:36:44.8	90.080	-0.180	0.600	1.160
2020/01/31 05:36:44.9	90.080	-0.210	0.620	1.150
2020/01/31 05:36:45.0	90.080	-0.240	0.640	1.130
2020/01/31 05:36:45.1	90.090	-0.260	0.640	1.110
2020/01/31 05:36:45.2	90.100	-0.280	0.630	1.090
2020/01/31 05:36:45.3	90.110	-0.290	0.610	1.070
2020/01/31 05:36:45.4	90.130	-0.300	0.570	1.040
2020/01/31 05:36:45.5	90.140	-0.300	0.530	1.010
2020/01/31 05:36:45.6	90.160	-0.290	0.470	0.980
2020/01/31 05:36:45.7	90.180	-0.280	0.410	0.950
2020/01/31 05:36:45.8	90.200	-0.270	0.340	0.920
2020/01/31 05:36:45.9	90.220	-0.250	0.260	0.890
2020/01/31 05:36:46.0	90.250	-0.230	0.180	0.860
2020/01/31 05:36:46.1	90.270	-0.200	0.090	0.830
2020/01/31 05:36:46.2	90.290	-0.170	0.000	0.790
2020/01/31 05:36:46.3	90.320	-0.130	-0.090	0.760
2020/01/31 05:36:46.4	90.340	-0.090	-0.180	0.740
2020/01/31 05:36:46.5	90.360	-0.060	-0.260	0.710
2020/01/31 05:36:46.6	90.380	-0.010	-0.340	0.680
2020/01/31 05:36:46.7	90.400	0.030	-0.420	0.660
2020/01/31 05:36:46.8	90.420	0.070	-0.490	0.640
2020/01/31 05:36:46.9	90.440	0.110	-0.560	0.620
2020/01/31 05:36:47.0	90.450	0.150	-0.610	0.600
2020/01/31 05:36:47.1	90.460	0.180	-0.660	0.580
2020/01/31 05:36:47.2	90.470	0.220	-0.710	0.570
2020/01/31 05:36:47.3	90.480	0.250	-0.730	0.560
2020/01/31 05:36:47.4	90.490	0.280	-0.750	0.550
2020/01/31 05:36:47.5	90.490	0.300	-0.760	0.540
2020/01/31 05:36:47.6	90.490	0.320	-0.750	0.540
2020/01/31 05:36:47.7	90.500	0.330	-0.740	0.540
2020/01/31 05:36:47.8	90.490	0.340	-0.720	0.540
2020/01/31 05:36:47.9	90.490	0.350	-0.680	0.550
2020/01/31 05:36:48.0	90.490	0.350	-0.640	0.550
2020/01/31 05:36:48.1	90.480	0.340	-0.590	0.570
2020/01/31 05:36:48.2	90.470	0.330	-0.530	0.580
2020/01/31 05:36:48.3	90.470	0.320	-0.470	0.590
2020/01/31 05:36:48.4	90.450	0.300	-0.400	0.610
2020/01/31 05:36:48.5	90.440	0.280	-0.320	0.630
2020/01/31 05:36:48.6	90.430	0.250	-0.250	0.660
2020/01/31 05:36:48.7	90.420	0.220	-0.170	0.680
2020/01/31 05:36:48.8	90.410	0.190	-0.090	0.710
2020/01/31 05:36:48.9	90.390	0.160	-0.010	0.730
2020/01/31 05:36:49.0	90.380	0.120	0.060	0.760
2020/01/31 05:36:49.1	90.360	0.080	0.140	0.780
2020/01/31 05:36:49.2	90.350	0.050	0.210	0.810
2020/01/31 05:36:49.3	90.330	0.010	0.270	0.840
2020/01/31 05:36:49.4	90.320	-0.030	0.330	0.860
2020/01/31 05:36:49.5	90.310	-0.060	0.380	0.880
2020/01/31 05:36:49.6	90.300	-0.100	0.430	0.900
2020/01/31 05:36:49.7	90.290	-0.130	0.460	0.920
2020/01/31 05:36:49.8	90.280	-0.150	0.490	0.930
2020/01/31 05:36:49.9	90.280	-0.180	0.500	0.940
2020/01/31 05:36:50.0	90.270	-0.200	0.510	0.940
2020/01/31 05:36:50.1	90.270	-0.210	0.510	0.940
2020/01/31 05:36:50.2	90.260	-0.220	0.490	0.930
2020/01/31 05:36:50.3	90.260	-0.230	0.470	0.920
2020/01/31 05:36:50.4	90.270	-0.230	0.430	0.910
2020/01/31 05:36:50.5	90.270	-0.230	0.390	0.890
2020/01/31 05:36:50.6	90.280	-0.210	0.330	0.870
2020/01/31 05:36:50.7	90.290	-0.200	0.270	0.840
2020/01/31 05:36:50.8	90.300	-0.180	0.190	0.810
2020/01/31 05:36:50.9	90.320	-0.150	0.120	0.780
2020/01/31 05:36:51.0	90.330	-0.120	0.030	0.750
2020/01/31 05:36:51.1	90.340	-0.090	-0.060	0.720
2020/01/31 05:36:51.2	90.360	-0.050	-0.150	0.680
2020/01/31 05:36:51.3	90.380	-0.010	-0.240	0.650
2020/01/31 05:36:51.4	90.400	0.040	-0.340	0.610
2020/01/31 05:36:51.5	90.410	0.080	-0.430	0.580
2020/01/31 05:36:51.6	90.430	0.130	-0.520	0.560
2020/01/31 05:36:51.7	90.440	0.180	-0.610	0.530
2020/01/31 05:36:51.8	90.460	0.220	-0.690	0.510
2020/01/31 05:36:51.9	90.470	0.270	-0.770	0.490
2020/01/31 05:36:52.0	90.480	0.320	-0.840	0.480
2020/01/31 05:36:52.1	90.500	0.360	-0.900	0.470
2020/01/31 05:36:52.2	90.510	0.410	-0.970	0.460
2020/01/31 05:36:52.3	90.520	0.450	-1.010	0.460
2020/01/31 05:36:52.4	90.530	0.480	-1.050	0.460
2020/01/31 05:36:52.5	90.540	0.520	-1.080	0.470
2020/01/31 05:36:52.6	90.550	0.550	-1.110	0.470
2020/01/31 05:36:52.7	90.550	0.570	-1.120	0.490
2020/01/31 05:36:52.8	90.560	0.600	-1.120	0.500
2020/01/31 05:36:52.9	90.560	0.610	-1.110	0.520
2020/01/31 05:36:53.0	90.560	0.620	-1.090	0.550
2020/01/31 05:36:53.1	90.570	0.630	-1.060	0.570
2020/01/31 05:36:53.2	90.580	0.630	-1.020	0.600
2020/01/31 05:36:53.3	90.580	0.620	-0.980	0.630
2020/01/31 05:36:53.4	90.590	0.610	-0.920	0.660
2020/01/31 05:36:53.5	90.590	0.600	-0.860	0.700
2020/01/31 05:36:53.6	90.590	0.570	-0.790	0.730
2020/01/31 05:36:53.7	90.590	0.550	-0.720	0.770
2020/01/31 05:36:53.8	90.590	0.510	-0.640	0.800
2020/01/31 05:36:53.9	90.590	0.480	-0.550	0.840
2020/01/31 05:36:54.0	90.590	0.430	-0.470	0.880
2020/01/31 05:36:54.1	90.590	0.390	-0.380	0.920
2020/01/31 05:36:54.2	90.580	0.330	-0.280	0.960
2020/01/31 05:36:54.3	90.580	0.280	-0.190	0.990
2020/01/31 05:36:54.4	90.580	0.220	-0.090	1.030
2020/01/31 05:36:54.5	90.570	0.160	-0.000	1.070
2020/01/31 05:36:54.6	90.570	0.100	0.090	1.110
2020/01/31 05:36:54.7	90.560	0.030	0.180	1.150
2020/01/31 05:36:54.8	90.550	-0.040	0.260	1.180
2020/01/31 05:36:54.9	90.550	-0.110	0.340	1.220
2020/01/31 05:36:55.0	90.540	-0.170	0.420	1.250
2020/01/31 05:36:55.1	90.530	-0.240	0.490	1.290
2020/01/31 05:36:55.2	90.530	-0.310	0.560	1.320
2020/01/31 05:36:55.3	90.520	-0.380	0.610	1.340
2020/01/31 05:36:55.4	90.510	-0.440	0.660	1.370
2020/01/31 05:36:55.5	90.500	-0.500	0.700	1.390
2020/01/31 05:36:55.6	90.490	-0.560	0.740	1.410
2020/01/31 05:36:55.7	90.480	-0.610	0.760	1.420
2020/01/31 05:36:55.8	90.470	-0.660	0.770	1.430
2020/01/31 05:36:55.9	90.470	-0.710	0.780	1.430
2020/01/31 05:36:56.0	90.460	-0.740	0.770	1.420
2020/01/31 05:36:56.1	90.460	-0.780	0.750	1.410
2020/01/31 05:36:56.2	90.460	-0.800	0.720	1.390
2020/01/31 05:36:56.3	90.460	-0.820	0.690	1.370
2020/01/31 05:36:56.4	90.470	-0.840	0.640	1.340
2020/01/31 05:36:56.5	90.470	-0.850	0.590	1.300
2020/01/31 05:36:56.6	90.480	-0.850	0.530	1.260
2020/01/31 05:36:56.7	90.500	-0.840	0.460	1.220
2020/01/31 05:36:56.8	90.510	-0.830	0.390	1.170
2020/01/31 05:36:56.9	90.530	-0.810	0.310	1.120
2020/01/31 05:36:57.0	90.540	-0.780	0.230	1.070
2020/01/31 05:36:57.1	90.560	-0.750	0.140	1.020
2020/01/31 05:36:57.2	90.570	-0.710	0.060	0.960
2020/01/31 05:36:57.3	90.600	-0.670	-0.030	0.910
2020/01/31 05:36:57.4	90.620	-0.620	-0.110	0.860
2020/01/31 05:36:57.5	90.650	-0.570	-0.200	0.810
2020/01/31 05:36:57.6	90.670	-0.520	-0.280	0.770
2020/01/31 05:36:57.7	90.700	-0.460	-0.360	0.730
2020/01/31 05:36:57.8	90.730	-0.400	-0.430	0.690
2020/01/31 05:36:57.9	90.760	-0.340	-0.500	0.650
2020/01/31 05:36:58.0	90.790	-0.280	-0.560	0.620
2020/01/31 05:36:58.1	90.810	-0.220	-0.620	0.600
2020/01/31 05:36:58.2	90.840	-0.160	-0.680	0.570
2020/01/31 05:36:58.3	90.870	-0.100	-0.720	0.550
2020/01/31 05:36:58.4	90.900	-0.040	-0.760	0.530
2020/01/31 05:36:58.5	90.920	0.020	-0.780	0.520
2020/01/31 05:36:58.6	90.940	0.070	-0.800	0.510
2020/01/31 05:36:58.7	90.970	0.120	-0.820	0.500
2020/01/31 05:36:58.8	90.990	0.170	-0.820	0.500
2020/01/31 05:36:58.9	91.010	0.210	-0.820	0.500
2020/01/31 05:36:59.0	91.020	0.250	-0.820	0.500
2020/01/31 05:36:59.1	91.040	0.280	-0.800	0.500
2020/01/31 05:36:59.2	91.070	0.310	-0.790	0.510
2020/01/31 05:36:59.3	91.080	0.340	-0.760	0.510
2020/01/31 05:36:59.4	91.090	0.350	-0.740	0.510
2020/01/31 05:36:59.5	91.100	0.370	-0.710	0.510
2020/01/31 05:36:59.6	91.110	0.380	-0.670	0.510
2020/01/31 05:36:59.7	91.120	0.390	-0.640	0.510
2020/01/31 05:36:59.8	91.120	0.390	-0.600	0.510
2020/01/31 05:36:59.9	91.130	0.390	-0.560	0.510
2020/01/31 05:37:00.0	91.130	0.380	-0.520	0.500
2020/01/31 05:37:00.1	91.140	0.370	-0.470	0.500
2020/01/31 05:37:00.2	91.140	0.360	-0.430	0.500
2020/01/31 05:37:00.3	91.140	0.340	-0.380	0.500
2020/01/31 05:37:00.4	91.140	0.330	-0.340	0.490
2020/01/31 05:37:00.5	91.150	0.310	-0.300	0.490
2020/01/31 05:37:00.6	91.150	0.280	-0.260	0.490
2020/01/31 05:37:00.7	91.150	0.260	-0.220	0.490
2020/01/31 05:37:00.8	91.160	0.240	-0.190	0.490
2020/01/31 05:37:00.9	91.160	0.210	-0.150	0.490
2020/01/31 05:37:01.0	91.160	0.190	-0.120	0.490
2020/01/31 05:37:01.1	91.160	0.170	-0.100	0.490
2020/01/31 05:37:01.2	91.160	0.140	-0.070	0.500
2020/01/31 05:37:01.3	91.150	0.120	-0.050	0.500
2020/01/31 05:37:01.4	91.150	0.100	-0.030	0.510
2020/01/31 05:37:01.5	91.150	0.080	-0.020	0.510
2020/01/31 05:37:01.6	91.140	0.060	-0.020	0.520
2020/01/31 05:37:01.7	91.130	0.050	-0.010	0.530
2020/01/31 05:37:01.8	91.120	0.040	-0.020	0.540
2020/01/31 05:37:01.9	91.120	0.030	-0.020	0.540
2020/01/31 05:37:02.0	91.110	0.030	-0.030	0.550
2020/01/31 05:37:02.1	91.100	0.020	-0.050	0.560
2020/01/31 05:37:02.2	91.080	0.020	-0.080	0.560
2020/01/31 05:37:02.3	91.070	0.030	-0.100	0.570
2020/01/31 05:37:02.4	91.060	0.030	-0.120	0.570
2020/01/31 05:37:02.5	91.050	0.040	-0.150	0.570
2020/01/31 05:37:02.6	91.040	0.050	-0.180	0.570
2020/01/31 05:37:02.7	91.030	0.070	-0.210	0.570
2020/01/31 05:37:02.8	91.020	0.080	-0.240	0.560
2020/01/31 05:37:02.9	91.010	0.100	-0.270	0.560
2020/01/31 05:37:03.0	91.000	0.110	-0.290	0.550
2020/01/31 05:37:03.1	90.990	0.130	-0.320	0.550
2020/01/31 05:37:03.2	90.980	0.150	-0.340	0.540
2020/01/31 05:37:03.3	90.980	0.170	-0.350	0.530
2020/01/31 05:37:03.4	90.970	0.180	-0.370	0.520
2020/01/31 05:37:03.5	90.970	0.200	-0.380	0.510
2020/01/31 05:37:03.6	90.960	0.220	-0.390	0.500
2020/01/31 05:37:03.7	90.960	0.230	-0.390	0.490
2020/01/31 05:37:03.8	90.960	0.240	-0.390	0.480
2020/01/31 05:37:03.9	90.960	0.260	-0.390	0.470
2020/01/31 05:37:04.0	90.970	0.270	-0.390	0.460
2020/01/31 05:37:04.1	90.970	0.270	-0.380	0.450
2020/01/31 05:37:04.2	90.980	0.280	-0.370	0.440
2020/01/31 05:37:04.3	90.990	0.290	-0.350	0.430
2020/01/31 05:37:04.4	91.000	0.290	-0.340	0.420
2020/01/31 05:37:04.5	91.010	0.290	-0.320	0.410
2020/01/31 05:37:04.6	91.020	0.290	-0.300	0.400
2020/01/31 05:37:04.7	91.040	0.290	-0.290	0.390
2020/01/31 05:37:04.8	91.060	0.290	-0.270	0.380
2020/01/31 05:37:04.9	91.070	0.280	-0.250	0.370
2020/01/31 05:37:05.0	91.090	0.280	-0.240	0.360
2020/01/31 05:37:05.1	91.110	0.270	-0.220	0.350
2020/01/31 05:37:05.2	91.140	0.260	-0.210	0.340
2020/01/31 05:37:05.3	91.160	0.260	-0.200	0.340
2020/01/31 05:37:05.4	91.170	0.250	-0.190	0.330
2020/01/31 05:37:05.5	91.190	0.240	-0.190	0.330
2020/01/31 05:37:05.6	91.210	0.240	-0.190	0.330
2020/01/31 05:37:05.7	91.230	0.230	-0.190	0.330
2020/01/31 05:37:05.8	91.250	0.220	-0.190	0.340
2020/01/31 05:37:05.9	91.260	0.220	-0.200	0.340
2020/01/31 05:37:06.0	91.270	0.210	-0.200	0.350
2020/01/31 05:37:06.1	91.290	0.200	-0.210	0.370
2020/01/31 05:37:06.2	91.300	0.200	-0.230	0.380
2020/01/31 05:37:06.3	91.310	0.190	-0.240	0.390
2020/01/31 05:37:06.4	91.320	0.190	-0.250	0.410
2020/01/31 05:37:06.5	91.330	0.180	-0.260	0.430
2020/01/31 05:37:06.6	91.330	0.170	-0.270	0.450
2020/01/31 05:37:06.7	91.340	0.170	-0.280	0.470
2020/01/31 05:37:06.8	91.350	0.160	-0.290	0.500
2020/01/31 05:37:06.9	91.350	0.150	-0.290	0.520
2020/01/31 05:37:07.0	91.350	0.140	-0.300	0.540
2020/01/31 05:37:07.1	91.360	0.130	-0.300	0.570
2020/01/31 05:37:07.2	91.350	0.120	-0.300	0.590
2020/01/31 05:37:07.3	91.350	0.110	-0.300	0.620
2020/01/31 05:37:07.4	91.360	0.100	-0.290	0.650
2020/01/31 05:37:07.5	91.360	0.080	-0.280	0.670
2020/01/31 05:37:07.6	91.370	0.070	-0.270	0.700
2020/01/31 05:37:07.7	91.380	0.050	-0.250	0.720
2020/01/31 05:37:07.8	91.380	0.030	-0.230	0.750
2020/01/31 05:37:07.9	91.390	0.010	-0.210	0.770
2020/01/31 05:37:08.0	91.400	-0.020	-0.180	0.790
2020/01/31 05:37:08.1	91.410	-0.040	-0.160	0.820
2020/01/31 05:37:08.2	91.410	-0.070	-0.120	0.840
2020/01/31 05:37:08.3	91.420	-0.100	-0.090	0.860
2020/01/31 05:37:08.4	91.430	-0.130	-0.050	0.890
2020/01/31 05:37:08.5	91.440	-0.160	-0.010	0.910
2020/01/31 05:37:08.6	91.450	-0.190	0.030	0.930
2020/01/31 05:37:08.7	91.460	-0.220	0.070	0.960
2020/01/31 05:37:08.8	91.470	-0.260	0.110	0.980
2020/01/31 05:37:08.9	91.480	-0.290	0.150	1.000
2020/01/31 05:37:09.0	91.490	-0.320	0.180	1.020
2020/01/31 05:37:09.1	91.500	-0.360	0.220	1.030
2020/01/31 05:37:09.2	91.520	-0.390	0.250	1.050
2020/01/31 05:37:09.3	91.530	-0.420	0.290	1.060
2020/01/31 05:37:09.4	91.540	-0.450	0.310	1.070
2020/01/31 05:37:09.5	91.550	-0.470	0.340	1.080
2020/01/31 05:37:09.6	91.570	-0.500	0.360	1.080
2020/01/31 05:37:09.7	91.580	-0.520	0.380	1.090
2020/01/31 05:37:09.8	91.590	-0.530	0.390	1.090
2020/01/31 05:37:09.9	91.600	-0.550	0.400	1.090
2020/01/31 05:37:10.0	91.610	-0.560	0.400	1.090
2020/01/31 05:37:10.1	91.620	-0.570	0.400	1.090
2020/01/31 05:37:10.2	91.630	-0.570	0.390	1.080
2020/01/31 05:37:10.3	91.640	-0.570	0.380	1.070
2020/01/31 05:37:10.4	91.640	-0.570	0.360	1.070
2020/01/31 05:37:10.5	91.650	-0.570	0.330	1.060
2020/01/31 05:37:10.6	91.650	-0.560	0.310	1.040
2020/01/31 05:37:10.7	91.650	-0.540	0.270	1.030
2020/01/31 05:37:10.8	91.660	-0.530	0.240	1.020
2020/01/31 05:37:10.9	91.660	-0.510	0.190	1.000
2020/01/31 05:37:11.0	91.660	-0.490	0.150	0.980
2020/01/31 05:37:11.1	91.670	-0.460	0.100	0.960
2020/01/31 05:37:11.2	91.660	-0.430	0.040	0.940
2020/01/31 05:37:11.3	91.670	-0.400	-0.020	0.920
2020/01/31 05:37:11.4	91.670	-0.370	-0.080	0.900
2020/01/31 05:37:11.5	91.680	-0.340	-0.140	0.870
2020/01/31 05:37:11.6	91.690	-0.300	-0.210	0.850
2020/01/31 05:37:11.7	91.700	-0.260	-0.280	0.830
2020/01/31 05:37:11.8	91.700	-0.220	-0.350	0.800
2020/01/31 05:37:11.9	91.710	-0.180	-0.420	0.780
2020/01/31 05:37:12.0	91.720	-0.140	-0.490	0.760
2020/01/31 05:37:12.1	91.730	-0.100	-0.560	0.740
2020/01/31 05:37:12.2	91.740	-0.060	-0.630	0.720
2020/01/31 05:37:12.3	91.750	-0.020	-0.700	0.700
2020/01/31 05:37:12.4	91.760	0.030	-0.760	0.690
2020/01/31 05:37:12.5	91.770	0.070	-0.820	0.670
2020/01/31 05:37:12.6	91.780	0.110	-0.880	0.660
2020/01/31 05:37:12.7	91.790	0.150	-0.930	0.640
2020/01/31 05:37:12.8	91.800	0.190	-0.970	0.630
2020/01/31 05:37:12.9	91.810	0.220	-1.010	0.620
2020/01/31 05:37:13.0	91.820	0.260	-1.040	0.600
2020/01/31 05:37:13.1	91.820	0.290	-1.060	0.590
2020/01/31 05:37:13.2	91.830	0.320	-1.080	0.580
2020/01/31 05:37:13.3	91.840	0.350	-1.080	0.560
2020/01/31 05:37:13.4	91.850	0.370	-1.080	0.550
2020/01/31 05:37:13.5	91.860	0.390	-1.060	0.540
2020/01/31 05:37:13.6	91.880	0.410	-1.040	0.520
2020/01/31 05:37:13.7	91.890	0.430	-1.010	0.510
2020/01/31 05:37:13.8	91.900	0.440	-0.970	0.500
2020/01/31 05:37:13.9	91.910	0.450	-0.930	0.490
2020/01/31 05:37:14.0	91.920	0.450	-0.870	0.480
2020/01/31 05:37:14.1	91.930	0.450	-0.810	0.470
2020/01/31 05:37:14.2	91.940	0.450	-0.740	0.450
2020/01/31 05:37:14.3	91.950	0.440	-0.660	0.450
2020/01/31 05:37:14.4	91.950	0.430	-0.580	0.440
2020/01/31 05:37:14.5	91.960	0.420	-0.500	0.440
2020/01/31 05:37:14.6	91.960	0.400	-0.410	0.450
2020/01/31 05:37:14.7	91.960	0.380	-0.310	0.450
2020/01/31 05:37:14.8	91.960	0.360	-0.220	0.460
2020/01/31 05:37:14.9	91.960	0.330	-0.120	0.470
2020/01/31 05:37:15.0	91.950	0.300	-0.030	0.480
2020/01/31 05:37:15.1	91.940	0.270	0.070	0.500
2020/01/31 05:37:15.2	91.940	0.230	0.160	0.510
2020/01/31 05:37:15.3	91.920	0.200	0.250	0.530
2020/01/31 05:37:15.4	91.910	0.160	0.330	0.550
2020/01/31 05:37:15.5	91.900	0.120	0.410	0.570
2020/01/31 05:37:15.6	91.890	0.090	0.480	0.590
2020/01/31 05:37:15.7	91.870	0.050	0.540	0.610
2020/01/31 05:37:15.8	91.860	0.010	0.600	0.630
2020/01/31 05:37:15.9	91.840	-0.020	0.640	0.650
2020/01/31 05:37:16.0	91.830	-0.060	0.680	0.660
2020/01/31 05:37:16.1	91.810	-0.090	0.700	0.680
2020/01/31 05:37:16.2	91.800	-0.120	0.720	0.690
2020/01/31 05:37:16.3	91.790	-0.140	0.720	0.690
2020/01/31 05:37:16.4	91.780	-0.170	0.710	0.700
2020/01/31 05:37:16.5	91.770	-0.180	0.690	0.690
2020/01/31 05:37:16.6	91.760	-0.200	0.650	0.690
2020/01/31 05:37:16.7	91.760	-0.200	0.610	0.680
2020/01/31 05:37:16.8	91.750	-0.210	0.550	0.670
2020/01/31 05:37:16.9	91.750	-0.210	0.480	0.650
2020/01/31 05:37:17.0	91.740	-0.200	0.410	0.640
2020/01/31 05:37:17.1	91.740	-0.190	0.320	0.620
2020/01/31 05:37:17.2	91.750	-0.170	0.230	0.590
2020/01/31 05:37:17.3	91.740	-0.150	0.130	0.570
2020/01/31 05:37:17.4	91.740	-0.120	0.020	0.550
2020/01/31 05:37:17.5	91.740	-0.100	-0.080	0.530
2020/01/31 05:37:17.6	91.740	-0.060	-0.190	0.520
2020/01/31 05:37:17.7	91.740	-0.030	-0.300	0.500
2020/01/31 05:37:17.8	91.730	0.010	-0.410	0.490
2020/01/31 05:37:17.9	91.730	0.050	-0.520	0.480
2020/01/31 05:37:18.0	91.730	0.090	-0.620	0.470
2020/01/31 05:37:18.1	91.730	0.140	-0.720	0.470
2020/01/31 05:37:18.2	91.730	0.180	-0.830	0.470
2020/01/31 05:37:18.3	91.730	0.230	-0.910	0.470
2020/01/31 05:37:18.4	91.730	0.270	-1.000	0.480
2020/01/31 05:37:18.5	91.740	0.310	-1.070	0.480
2020/01/31 05:37:18.6	91.740	0.360	-1.140	0.490
2020/01/31 05:37:18.7	91.750	0.400	-1.190	0.500
2020/01/31 05:37:18.8	91.750	0.430	-1.240	0.520
2020/01/31 05:37:18.9	91.760	0.470	-1.280	0.530
2020/01/31 05:37:19.0	91.770	0.500	-1.310	0.550
2020/01/31 05:37:19.1	91.780	0.530	-1.320	0.570
2020/01/31 05:37:19.2	91.790	0.550	-1.330	0.590
2020/01/31 05:37:19.3	91.810	0.570	-1.330	0.610
2020/01/31 05:37:19.4	91.820	0.590	-1.310	0.630
2020/01/31 05:37:19.5	91.840	0.600	-1.290	0.660
2020/01/31 05:37:19.6	91.850	0.610	-1.260	0.680
2020/01/31 05:37:19.7	91.870	0.610	-1.220	0.710
2020/01/31 05:37:19.8	91.880	0.600	-1.160	0.740
2020/01/31 05:37:19.9	91.900	0.600	-1.110	0.760
2020/01/31 05:37:20.0	91.920	0.580	-1.040	0.790
2020/01/31 05:37:20.1	91.930	0.560	-0.960	0.820
2020/01/31 05:37:20.2	91.950	0.540	-0.880	0.850
2020/01/31 05:37:20.3	91.970	0.510	-0.790	0.880
2020/01/31 05:37:20.4	91.980	0.470	-0.700	0.900
2020/01/31 05:37:20.5	91.990	0.440	-0.600	0.930
2020/01/31 05:37:20.6	92.010	0.390	-0.500	0.960
2020/01/31 05:37:20.7	92.020	0.350	-0.390	0.990
2020/01/31 05:37:20.8	92.030	0.300	-0.290	1.020
2020/01/31 05:37:20.9	92.040	0.240	-0.180	1.040
2020/01/31 05:37:21.0	92.050	0.180	-0.070	1.070
2020/01/31 05:37:21.1	92.060	0.120	0.050	1.100
2020/01/31 05:37:21.2	92.070	0.060	0.160	1.130
2020/01/31 05:37:21.3	92.080	-0.000	0.260	1.150
2020/01/31 05:37:21.4	92.090	-0.070	0.370	1.180
2020/01/31 05:37:21.5	92.100	-0.130	0.470	1.210
2020/01/31 05:37:21.6	92.100	-0.200	0.570	1.240
2020/01/31 05:37:21.7	92.110	-0.270	0.660	1.260
2020/01/31 05:37:21.8	92.110	-0.330	0.750	1.290
2020/01/31 05:37:21.9	92.120	-0.400	0.830	1.320
2020/01/31 05:37:22.0	92.120	-0.460	0.910	1.340
2020/01/31 05:37:22.1	92.120	-0.520	0.970	1.360
2020/01/31 05:37:22.2	92.120	-0.580	1.030	1.390
2020/01/31 05:37:22.3	92.110	-0.630	1.080	1.410
2020/01/31 05:37:22.4	92.110	-0.690	1.120	1.430
2020/01/31 05:37:22.5	92.110	-0.730	1.150	1.440
2020/01/31 05:37:22.6	92.110	-0.770	1.160	1.450
2020/01/31 05:37:22.7	92.100	-0.810	1.170	1.460
2020/01/31 05:37:22.8	92.100	-0.840	1.170	1.470
2020/01/31 05:37:22.9	92.100	-0.870	1.160	1.470
2020/01/31 05:37:23.0	92.090	-0.890	1.130	1.470
2020/01/31 05:37:23.1	92.090	-0.910	1.090	1.460
2020/01/31 05:37:23.2	92.090	-0.920	1.050	1.450
2020/01/31 05:37:23.3	92.090	-0.920	0.990	1.430
2020/01/31 05:37:23.4	92.080	-0.920	0.930	1.410
2020/01/31 05:37:23.5	92.080	-0.910	0.850	1.380
2020/01/31 05:37:23.6	92.080	-0.890	0.770	1.350
2020/01/31 05:37:23.7	92.080	-0.870	0.680	1.310
2020/01/31 05:37:23.8	92.090	-0.840	0.580	1.270
2020/01/31 05:37:23.9	92.090	-0.810	0.470	1.220
2020/01/31 05:37:24.0	92.090	-0.770	0.360	1.170
2020/01/31 05:37:24.1	92.100	-0.730	0.250	1.120
2020/01/31 05:37:24.2	92.110	-0.680	0.120	1.070
2020/01/31 05:37:24.3	92.110	-0.630	0.000	1.020
2020/01/31 05:37:24.4	92.120	-0.570	-0.120	0.960
2020/01/31 05:37:24.5	92.130	-0.520	-0.240	0.910
2020/01/31 05:37:24.6	92.140	-0.450	-0.370	0.860
2020/01/31 05:37:24.7	92.150	-0.390	-0.490	0.800
2020/01/31 05:37:24.8	92.170	-0.320	-0.610	0.750
2020/01/31 05:37:24.9	92.180	-0.250	-0.720	0.700
2020/01/31 05:37:25.0	92.200	-0.180	-0.830	0.650
2020/01/31 05:37:25.1	92.210	-0.110	-0.940	0.610
2020/01/31 05:37:25.2	92.220	-0.040	-1.040	0.560
2020/01/31 05:37:25.3	92.240	0.030	-1.130	0.520
2020/01/31 05:37:25.4	92.260	0.100	-1.220	0.480
2020/01/31 05:37:25.5	92.280	0.170	-1.300	0.440
2020/01/31 05:37:25.6	92.300	0.230	-1.370	0.410
2020/01/31 05:37:25.7	92.310	0.300	-1.430	0.380
2020/01/31 05:37:25.8	92.330	0.360	-1.480	0.350
2020/01/31 05:37:25.9	92.350	0.420	-1.510	0.320
2020/01/31 05:37:26.0	92.370	0.470	-1.540	0.300
2020/01/31 05:37:26.1	92.380	0.520	-1.560	0.280
2020/01/31 05:37:26.2	92.390	0.570	-1.560	0.260
2020/01/31 05:37:26.3	92.410	0.610	-1.550	0.250
2020/01/31 05:37:26.4	92.420	0.650	-1.530	0.240
2020/01/31 05:37:26.5	92.430	0.680	-1.500	0.240
2020/01/31 05:37:26.6	92.440	0.710	-1.450	0.230
2020/01/31 05:37:26.7	92.440	0.720	-1.400	0.240
2020/01/31 05:37:26.8	92.450	0.740	-1.330	0.240
2020/01/31 05:37:26.9	92.450	0.740	-1.250	0.250
2020/01/31 05:37:27.0	92.450	0.750	-1.170	0.270
2020/01/31 05:37:27.1	92.440	0.740	-1.080	0.280
2020/01/31 05:37:27.2	92.440	0.730	-0.970	0.300
2020/01/31 05:37:27.3	92.430	0.710	-0.860	0.320
2020/01/31 05:37:27.4	92.420	0.690	-0.750	0.350
2020/01/31 05:37:27.5	92.400	0.660	-0.640	0.370
2020/01/31 05:37:27.6	92.390	0.630	-0.520	0.400
2020/01/31 05:37:27.7	92.360	0.590	-0.400	0.430
2020/01/31 05:37:27.8	92.340	0.550	-0.270	0.460
2020/01/31 05:37:27.9	92.320	0.510	-0.150	0.490
2020/01/31 05:37:28.0	92.290	0.460	-0.040	0.520
2020/01/31 05:37:28.1	92.260	0.400	0.080	0.550
2020/01/31 05:37:28.2	92.220	0.350	0.190	0.580
2020/01/31 05:37:28.3	92.190	0.300	0.300	0.610
2020/01/31 05:37:28.4	92.160	0.240	0.400	0.630
2020/01/31 05:37:28.5	92.130	0.180	0.490	0.660
2020/01/31 05:37:28.6	92.090	0.120	0.570	0.680
2020/01/31 05:37:28.7	92.060	0.070	0.650	0.700
2020/01/31 05:37:28.8	92.030	0.010	0.720	0.720
2020/01/31 05:37:28.9	92.000	-0.040	0.770	0.740
2020/01/31 05:37:29.0	91.970	-0.100	0.820	0.750
2020/01/31 05:37:29.1	91.940	-0.150	0.860	0.760
2020/01/31 05:37:29.2	91.910	-0.190	0.880	0.760
2020/01/31 05:37:29.3	91.880	-0.240	0.900	0.770
2020/01/31 05:37:29.4	91.860	-0.280	0.900	0.770
2020/01/31 05:37:29.5	91.840	-0.310	0.890	0.760
2020/01/31 05:37:29.6	91.820	-0.340	0.870	0.760
2020/01/31 05:37:29.7	91.810	-0.360	0.840	0.740
2020/01/31 05:37:29.8	91.800	-0.380	0.800	0.730
2020/01/31 05:37:29.9	91.790	-0.390	0.750	0.710
2020/01/31 05:37:30.0	91.790	-0.390	0.690	0.690
2020/01/31 05:37:30.1	91.790	-0.390	0.610	0.660
2020/01/31 05:37:30.2	91.800	-0.380	0.530	0.640
2020/01/31 05:37:30.3	91.810	-0.370	0.440	0.610
2020/01/31 05:37:30.4	91.820	-0.350	0.340	0.580
2020/01/31 05:37:30.5	91.830	-0.320	0.240	0.550
2020/01/31 05:37:30.6	91.850	-0.290	0.130	0.520
2020/01/31 05:37:30.7	91.870	-0.250	0.020	0.490
2020/01/31 05:37:30.8	91.890	-0.210	-0.100	0.460
2020/01/31 05:37:30.9	91.910	-0.170	-0.210	0.430
2020/01/31 05:37:31.0	91.940	-0.120	-0.330	0.400
2020/01/31 05:37:31.1	91.970	-0.070	-0.440	0.380
2020/01/31 05:37:31.2	92.000	-0.010	-0.550	0.350
2020/01/31 05:37:31.3	92.030	0.040	-0.660	0.320
2020/01/31 05:37:31.4	92.060	0.100	-0.760	0.300
2020/01/31 05:37:31.5	92.100	0.150	-0.850	0.280
2020/01/31 05:37:31.6	92.130	0.200	-0.930	0.260
2020/01/31 05:37:31.7	92.160	0.250	-1.010	0.250
2020/01/31 05:37:31.8	92.190	0.300	-1.070	0.240
2020/01/31 05:37:31.9	92.220	0.350	-1.120	0.230
2020/01/31 05:37:32.0	92.240	0.390	-1.170	0.230
2020/01/31 05:37:32.1	92.270	0.420	-1.200	0.230
2020/01/31 05:37:32.2	92.300	0.450	-1.220	0.230
2020/01/31 05:37:32.3	92.320	0.480	-1.220	0.240
2020/01/31 05:37:32.4	92.340	0.500	-1.220	0.250
2020/01/31 05:37:32.5	92.350	0.510	-1.200	0.260
2020/01/31 05:37:32.6	92.370	0.520	-1.170	0.270
2020/01/31 05:37:32.7	92.380	0.520	-1.130	0.290
2020/01/31 05:37:32.8	92.380	0.520	-1.080	0.310
2020/01/31 05:37:32.9	92.390	0.510	-1.020	0.340
2020/01/31 05:37:33.0	92.390	0.490	-0.960	0.360
2020/01/31 05:37:33.1	92.390	0.470	-0.880	0.390
2020/01/31 05:37:33.2	92.380	0.440	-0.790	0.420
2020/01/31 05:37:33.3	92.380	0.400	-0.700	0.450
2020/01/31 05:37:33.4	92.370	0.360	-0.600	0.480
2020/01/31 05:37:33.5	92.360	0.310	-0.500	0.520
2020/01/31 05:37:33.6	92.340	0.260	-0.390	0.550
2020/01/31 05:37:33.7	92.320	0.210	-0.280	0.590
2020/01/31 05:37:33.8	92.300	0.150	-0.170	0.630
2020/01/31 05:37:33.9	92.280	0.090	-0.060	0.670
2020/01/31 05:37:34.0	92.260	0.030	0.060	0.720
2020/01/31 05:37:34.1	92.240	-0.040	0.170	0.770
2020/01/31 05:37:34.2	92.220	-0.100	0.280	0.810
2020/01/31 05:37:34.3	92.190	-0.170	0.380	0.860
2020/01/31 05:37:34.4	92.170	-0.230	0.490	0.910
2020/01/31 05:37:34.5	92.140	-0.300	0.580	0.960
2020/01/31 05:37:34.6	92.120	-0.360	0.670	1.010
2020/01/31 05:37:34.7	92.090	-0.430	0.750	1.050
2020/01/31 05:37:34.8	92.070	-0.490	0.830	1.100
2020/01/31 05:37:34.9	92.050	-0.540	0.890	1.150
2020/01/31 05:37:35.0	92.030	-0.600	0.950	1.190
2020/01/31 05:37:35.1	92.010	-0.650	0.990	1.230
2020/01/31 05:37:35.2	92.000	-0.690	1.030	1.260
2020/01/31 05:37:35.3	91.980	-0.730	1.050	1.300
2020/01/31 05:37:35.4	91.970	-0.760	1.060	1.320
2020/01/31 05:37:35.5	91.960	-0.790	1.060	1.340
2020/01/31 05:37:35.6	91.950	-0.810	1.050	1.360
2020/01/31 05:37:35.7	91.950	-0.830	1.020	1.370
2020/01/31 05:37:35.8	91.950	-0.830	0.980	1.370
2020/01/31 05:37:35.9	91.950	-0.830	0.920	1.370
2020/01/31 05:37:36.0	91.960	-0.830	0.860	1.360
2020/01/31 05:37:36.1	91.960	-0.810	0.780	1.350
2020/01/31 05:37:36.2	91.970	-0.790	0.690	1.320
2020/01/31 05:37:36.3	91.980	-0.760	0.580	1.300
2020/01/31 05:37:36.4	92.000	-0.720	0.470	1.270
2020/01/31 05:37:36.5	92.010	-0.670	0.350	1.230
2020/01/31 05:37:36.6	92.030	-0.620	0.220	1.190
2020/01/31 05:37:36.7	92.050	-0.560	0.090	1.160
2020/01/31 05:37:36.8	92.060	-0.500	-0.060	1.110
2020/01/31 05:37:36.9	92.080	-0.430	-0.200	1.070
2020/01/31 05:37:37.0	92.100	-0.360	-0.350	1.030
2020/01/31 05:37:37.1	92.120	-0.280	-0.490	0.990
2020/01/31 05:37:37.2	92.140	-0.200	-0.650	0.950
2020/01/31 05:37:37.3	92.150	-0.120	-0.790	0.910
2020/01/31 05:37:37.4	92.170	-0.030	-0.930	0.870
2020/01/31 05:37:37.5	92.180	0.050	-1.060	0.830
2020/01/31 05:37:37.6	92.190	0.140	-1.180	0.800
2020/01/31 05:37:37.7	92.200	0.220	-1.300	0.770
2020/01/31 05:37:37.8	92.210	0.300	-1.400	0.740
2020/01/31 05:37:37.9	92.210	0.380	-1.490	0.710
2020/01/31 05:37:38.0	92.210	0.450	-1.560	0.690
2020/01/31 05:37:38.1	92.210	0.520	-1.620	0.670
2020/01/31 05:37:38.2	92.190	0.580	-1.670	0.660
2020/01/31 05:37:38.3	92.190	0.640	-1.700	0.650
2020/01/31 05:37:38.4	92.180	0.690	-1.710	0.640
2020/01/31 05:37:38.5	92.160	0.740	-1.710	0.640
2020/01/31 05:37:38.6	92.150	0.770	-1.700	0.640
2020/01/31 05:37:38.7	92.130	0.800	-1.670	0.640
2020/01/31 05:37:38.8	92.120	0.820	-1.630	0.650
2020/01/31 05:37:38.9	92.100	0.840	-1.570	0.660
2020/01/31 05:37:39.0	92.080	0.850	-1.500	0.660
2020/01/31 05:37:39.1	92.060	0.840	-1.420	0.670
2020/01/31 05:37:39.2	92.040	0.840	-1.330	0.690
2020/01/31 05:37:39.3	92.020	0.820	-1.230	0.700
2020/01/31 05:37:39.4	92.000	0.800	-1.120	0.710
2020/01/31 05:37:39.5	91.980	0.770	-1.000	0.720
2020/01/31 05:37:39.6	91.950	0.740	-0.880	0.740
2020/01/31 05:37:39.7	91.930	0.690	-0.760	0.750
2020/01/31 05:37:39.8	91.910	0.650	-0.630	0.770
2020/01/31 05:37:39.9	91.880	0.600	-0.500	0.780
2020/01/31 05:37:40.0	91.860	0.550	-0.370	0.790
2020/01/31 05:37:40.1	91.840	0.490	-0.250	0.800
2020/01/31 05:37:40.2	91.820	0.440	-0.120	0.810
2020/01/31 05:37:40.3	91.800	0.380	0.000	0.820
2020/01/31 05:37:40.4	91.780	0.320	0.120	0.830
2020/01/31 05:37:40.5	91.760	0.260	0.230	0.840
2020/01/31 05:37:40.6	91.740	0.200	0.340	0.850
2020/01/31 05:37:40.7	91.730	0.140	0.440	0.860
2020/01/31 05:37:40.8	91.710	0.090	0.530	0.860
2020/01/31 05:37:40.9	91.700	0.030	0.610	0.870
2020/01/31 05:37:41.0	91.680	-0.020	0.690	0.870
2020/01/31 05:37:41.1	91.670	-0.070	0.750	0.880
2020/01/31 05:37:41.2	91.650	-0.120	0.810	0.880
2020/01/31 05:37:41.3	91.640	-0.160	0.860	0.880
2020/01/31 05:37:41.4	91.630	-0.200	0.900	0.880
2020/01/31 05:37:41.5	91.620	-0.240	0.930	0.880
2020/01/31 05:37:41.6	91.620	-0.270	0.950	0.880
2020/01/31 05:37:41.7	91.610	-0.300	0.960	0.870
2020/01/31 05:37:41.8	91.610	-0.330	0.970	0.870
2020/01/31 05:37:41.9	91.610	-0.360	0.960	0.860
2020/01/31 05:37:42.0	91.610	-0.380	0.950	0.850
2020/01/31 05:37:42.1	91.610	-0.390	0.920	0.840
2020/01/31 05:37:42.2	91.620	-0.410	0.890	0.820
2020/01/31 05:37:42.3	91.620	-0.420	0.850	0.800
2020/01/31 05:37:42.4	91.630	-0.430	0.800	0.790
2020/01/31 05:37:42.5	91.640	-0.430	0.740	0.770
2020/01/31 05:37:42.6	91.660	-0.440	0.680	0.750
2020/01/31 05:37:42.7	91.670	-0.440	0.610	0.720
2020/01/31 05:37:42.8	91.680	-0.440	0.540	0.700
2020/01/31 05:37:42.9	91.700	-0.430	0.460	0.680
2020/01/31 05:37:43.0	91.710	-0.420	0.380	0.650
2020/01/31 05:37:43.1	91.730	-0.420	0.300	0.630
2020/01/31 05:37:43.2	91.740	-0.400	0.210	0.600
2020/01/31 05:37:43.3	91.750	-0.390	0.120	0.580
2020/01/31 05:37:43.4	91.760	-0.380	0.030	0.560
2020/01/31 05:37:43.5	91.780	-0.360	-0.060	0.540
2020/01/31 05:37:43.6	91.790	-0.350	-0.150	0.520
2020/01/31 05:37:43.7	91.800	-0.330	-0.230	0.500
2020/01/31 05:37:43.8	91.810	-0.310	-0.310	0.490
2020/01/31 05:37:43.9	91.820	-0.290	-0.390	0.480
2020/01/31 05:37:44.0	91.830	-0.270	-0.470	0.470
2020/01/31 05:37:44.1	91.840	-0.250	-0.540	0.460
2020/01/31 05:37:44.2	91.840	-0.230	-0.600	0.450
2020/01/31 05:37:44.3	91.850	-0.210	-0.660	0.450
2020/01/31 05:37:44.4	91.850	-0.190	-0.720	0.450
2020/01/31 05:37:44.5	91.850	-0.160	-0.760	0.460
2020/01/31 05:37:44.6	91.840	-0.140	-0.800	0.470
2020/01/31 05:37:44.7	91.840	-0.120	-0.830	0.480
2020/01/31 05:37:44.8	91.840	-0.100	-0.860	0.490
2020/01/31 05:37:44.9	91.840	-0.080	-0.880	0.510
2020/01/31 05:37:45.0	91.830	-0.060	-0.890	0.520
2020/01/31 05:37:45.1	91.830	-0.040	-0.890	0.540
2020/01/31 05:37:45.2	91.820	-0.020	-0.890	0.570
2020/01/31 05:37:45.3	91.820	0.000	-0.890	0.590
2020/01/31 05:37:45.4	91.810	0.020	-0.870	0.620
2020/01/31 05:37:45.5	91.810	0.040	-0.850	0.640
2020/01/31 05:37:45.6	91.810	0.060	-0.830	0.670
2020/01/31 05:37:45.7	91.800	0.070	-0.800	0.700
2020/01/31 05:37:45.8	91.800	0.090	-0.770	0.720
2020/01/31 05:37:45.9	91.800	0.100	-0.730	0.750
2020/01/31 05:37:46.0	91.800	0.110	-0.690	0.780
2020/01/31 05:37:46.1	91.800	0.130	-0.650	0.800
2020/01/31 05:37:46.2	91.800	0.140	-0.610	0.820
2020/01/31 05:37:46.3	91.810	0.150	-0.560	0.850
2020/01/31 05:37:46.4	91.820	0.150	-0.510	0.870
2020/01/31 05:37:46.5	91.820	0.160	-0.460	0.890
2020/01/31 05:37:46.6	91.830	0.170	-0.420	0.910
2020/01/31 05:37:46.7	91.840	0.170	-0.370	0.920
2020/01/31 05:37:46.8	91.860	0.170	-0.320	0.940
2020/01/31 05:37:46.9	91.870	0.170	-0.270	0.950
2020/01/31 05:37:47.0	91.880	0.170	-0.220	0.960
2020/01/31 05:37:47.1	91.900	0.170	-0.170	0.970
2020/01/31 05:37:47.2	91.920	0.170	-0.130	0.970
2020/01/31 05:37:47.3	91.940	0.160	-0.090	0.970
2020/01/31 05:37:47.4	91.950	0.160	-0.040	0.970
2020/01/31 05:37:47.5	91.960	0.150	-0.000	0.970
2020/01/31 05:37:47.6	91.970	0.140	0.040	0.970
2020/01/31 05:37:47.7	91.980	0.130	0.080	0.960
2020/01/31 05:37:47.8	91.990	0.120	0.110	0.960
2020/01/31 05:37:47.9	92.000	0.110	0.150	0.950
2020/01/31 05:37:48.0	92.000	0.100	0.180	0.940
2020/01/31 05:37:48.1	92.010	0.080	0.200	0.930
2020/01/31 05:37:48.2	92.010	0.070	0.220	0.920
2020/01/31 05:37:48.3	92.000	0.060	0.240	0.910
2020/01/31 05:37:48.4	92.000	0.040	0.260	0.900
2020/01/31 05:37:48.5	91.990	0.030	0.280	0.880
2020/01/31 05:37:48.6	91.980	0.010	0.280	0.870
2020/01/31 05:37:48.7	91.970	-0.000	0.290	0.850
2020/01/31 05:37:48.8	91.960	-0.020	0.290	0.830
2020/01/31 05:37:48.9	91.940	-0.030	0.290	0.820
2020/01/31 05:37:49.0	91.930	-0.040	0.280	0.800
2020/01/31 05:37:49.1	91.910	-0.050	0.270	0.780
2020/01/31 05:37:49.2	91.900	-0.060	0.250	0.760
2020/01/31 05:37:49.3	91.890	-0.060	0.230	0.740
2020/01/31 05:37:49.4	91.870	-0.070	0.210	0.720
2020/01/31 05:37:49.5	91.860	-0.070	0.180	0.700
2020/01/31 05:37:49.6	91.850	-0.070	0.140	0.680
2020/01/31 05:37:49.7	91.830	-0.060	0.100	0.660
2020/01/31 05:37:49.8	91.820	-0.060	0.060	0.640
2020/01/31 05:37:49.9	91.810	-0.050	0.010	0.630
2020/01/31 05:37:50.0	91.790	-0.030	-0.040	0.610
2020/01/31 05:37:50.1	91.780	-0.020	-0.100	0.600
2020/01/31 05:37:50.2	91.770	-0.000	-0.160	0.590
2020/01/31 05:37:50.3	91.760	0.020	-0.220	0.580
2020/01/31 05:37:50.4	91.750	0.040	-0.290	0.580
2020/01/31 05:37:50.5	91.740	0.070	-0.350	0.570
2020/01/31 05:37:50.6	91.730	0.090	-0.420	0.570
2020/01/31 05:37:50.7	91.720	0.120	-0.490	0.560
2020/01/31 05:37:50.8	91.710	0.150	-0.560	0.560
2020/01/31 05:37:50.9	91.700	0.180	-0.630	0.560
2020/01/31 05:37:51.0	91.690	0.210	-0.690	0.560
2020/01/31 05:37:51.1	91.690	0.240	-0.750	0.560
2020/01/31 05:37:51.2	91.680	0.270	-0.810	0.550
2020/01/31 05:37:51.3	91.680	0.290	-0.870	0.560
2020/01/31 05:37:51.4	91.670	0.320	-0.910	0.560
2020/01/31 05:37:51.5	91.670	0.340	-0.950	0.560
2020/01/31 05:37:51.6	91.670	0.360	-0.990	0.560
2020/01/31 05:37:51.7	91.670	0.380	-1.020	0.560
2020/01/31 05:37:51.8	91.670	0.390	-1.030	0.570
2020/01/31 05:37:51.9	91.670	0.400	-1.050	0.570
2020/01/31 05:37:52.0	91.670	0.400	-1.050	0.580
2020/01/31 05:37:52.1	91.680	0.410	-1.040	0.580
2020/01/31 05:37:52.2	91.680	0.410	-1.030	0.590
2020/01/31 05:37:52.3	91.690	0.400	-1.010	0.590
2020/01/31 05:37:52.4	91.700	0.390	-0.980	0.590
2020/01/31 05:37:52.5	91.710	0.380	-0.940	0.600
2020/01/31 05:37:52.6	91.720	0.360	-0.890	0.600
2020/01/31 05:37:52.7	91.730	0.340	-0.840	0.610
2020/01/31 05:37:52.8	91.740	0.320	-0.780	0.610
2020/01/31 05:37:52.9	91.760	0.290	-0.710	0.620
2020/01/31 05:37:53.0	91.770	0.260	-0.640	0.620
2020/01/31 05:37:53.1	91.790	0.230	-0.570	0.630
2020/01/31 05:37:53.2	91.810	0.200	-0.480	0.640
2020/01/31 05:37:53.3	91.830	0.160	-0.400	0.640
2020/01/31 05:37:53.4	91.850	0.120	-0.310	0.650
2020/01/31 05:37:53.5	91.870	0.090	-0.230	0.670
2020/01/31 05:37:53.6	91.890	0.050	-0.140	0.680
2020/01/31 05:37:53.7	91.910	0.010	-0.060	0.690
2020/01/31 05:37:53.8	91.930	-0.030	0.020	0.710
2020/01/31 05:37:53.9	91.960	-0.060	0.100	0.720
2020/01/31 05:37:54.0	91.980	-0.100	0.180	0.740
2020/01/31 05:37:54.1	92.000	-0.130	0.250	0.760
2020/01/31 05:37:54.2	92.030	-0.160	0.310	0.780
2020/01/31 05:37:54.3	92.050	-0.200	0.370	0.800
2020/01/31 05:37:54.4	92.070	-0.220	0.420	0.830
2020/01/31 05:37:54.5	92.090	-0.250	0.470	0.850
2020/01/31 05:37:54.6	92.100	-0.270	0.510	0.880
2020/01/31 05:37:54.7	92.120	-0.290	0.540	0.910
2020/01/31 05:37:54.8	92.130	-0.310	0.570	0.940
2020/01/31 05:37:54.9	92.150	-0.330	0.590	0.960
2020/01/31 05:37:55.0	92.160	-0.340	0.600	0.990
2020/01/31 05:37:55.1	92.160	-0.360	0.610	1.020
2020/01/31 05:37:55.2	92.160	-0.370	0.600	1.050
2020/01/31 05:37:55.3	92.160	-0.370	0.600	1.080
2020/01/31 05:37:55.4	92.170	-0.380	0.580	1.100
2020/01/31 05:37:55.5	92.170	-0.380	0.560	1.130
2020/01/31 05:37:55.6	92.170	-0.390	0.540	1.160
2020/01/31 05:37:55.7	92.160	-0.390	0.510	1.180
2020/01/31 05:37:55.8	92.160	-0.390	0.470	1.200
2020/01/31 05:37:55.9	92.150	-0.380	0.430	1.220
2020/01/31 05:37:56.0	92.150	-0.380	0.380	1.240
2020/01/31 05:37:56.1	92.140	-0.380	0.340	1.250
2020/01/31 05:37:56.2	92.130	-0.370	0.290	1.260
2020/01/31 05:37:56.3	92.120	-0.360	0.230	1.270
2020/01/31 05:37:56.4	92.110	-0.350	0.180	1.270
2020/01/31 05:37:56.5	92.100	-0.340	0.120	1.280
2020/01/31 05:37:56.6	92.090	-0.330	0.060	1.280
2020/01/31 05:37:56.7	92.080	-0.320	0.000	1.280
2020/01/31 05:37:56.8	92.070	-0.300	-0.050	1.270
2020/01/31 05:37:56.9	92.050	-0.290	-0.110	1.270
2020/01/31 05:37:57.0	92.040	-0.270	-0.170	1.260
2020/01/31 05:37:57.1	92.030	-0.250	-0.220	1.250
2020/01/31 05:37:57.2	92.030	-0.230	-0.270	1.230
2020/01/31 05:37:57.3	92.020	-0.210	-0.320	1.210
2020/01/31 05:37:57.4	92.010	-0.180	-0.370	1.200
2020/01/31 05:37:57.5	92.000	-0.160	-0.410	1.180
2020/01/31 05:37:57.6	92.000	-0.130	-0.460	1.160
2020/01/31 05:37:57.7	91.990	-0.110	-0.490	1.130
2020/01/31 05:37:57.8	91.990	-0.080	-0.530	1.110
2020/01/31 05:37:57.9	91.990	-0.050	-0.560	1.080
2020/01/31 05:37:58.0	91.990	-0.020	-0.590	1.050
2020/01/31 05:37:58.1	91.990	0.010	-0.610	1.020
2020/01/31 05:37:58.2	91.980	0.050	-0.630	0.990
2020/01/31 05:37:58.3	91.980	0.080	-0.650	0.960
2020/01/31 05:37:58.4	91.990	0.110	-0.660	0.930
2020/01/31 05:37:58.5	91.990	0.140	-0.670	0.890
2020/01/31 05:37:58.6	91.990	0.170	-0.680	0.860
2020/01/31 05:37:58.7	92.000	0.210	-0.680	0.820
2020/01/31 05:37:58.8	92.000	0.240	-0.680	0.790
2020/01/31 05:37:58.9	92.010	0.270	-0.670	0.760
2020/01/31 05:37:59.0	92.020	0.290	-0.670	0.720
2020/01/31 05:37:59.1	92.020	0.320	-0.660	0.690
2020/01/31 05:37:59.2	92.030	0.340	-0.640	0.660
2020/01/31 05:37:59.3	92.030	0.360	-0.630	0.630
2020/01/31 05:37:59.4	92.040	0.380	-0.610	0.600
2020/01/31 05:37:59.5	92.040	0.400	-0.590	0.570
2020/01/31 05:37:59.6	92.050	0.410	-0.570	0.540
2020/01/31 05:37:59.7	92.050	0.420	-0.550	0.520
2020/01/31 05:37:59.8	92.060	0.430	-0.520	0.490
2020/01/31 05:37:59.9	92.060	0.430	-0.500	0.470
2020/01/31 05:38:00.0	92.070	0.430	-0.470	0.460
2020/01/31 05:38:00.1	92.070	0.430	-0.450	0.440
2020/01/31 05:38:00.2	92.060	0.430	-0.420	0.430
2020/01/31 05:38:00.3	92.060	0.420	-0.390	0.420
2020/01/31 05:38:00.4	92.060	0.410	-0.370	0.410
2020/01/31 05:38:00.5	92.060	0.400	-0.340	0.410
2020/01/31 05:38:00.6	92.060	0.390	-0.310	0.400
2020/01/31 05:38:00.7	92.050	0.370	-0.290	0.400
2020/01/31 05:38:00.8	92.050	0.350	-0.260	0.410
2020/01/31 05:38:00.9	92.050	0.330	-0.240	0.410
2020/01/31 05:38:01.0	92.040	0.310	-0.210	0.420
2020/01/31 05:38:01.1	92.040	0.290	-0.190	0.430
2020/01/31 05:38:01.2	92.030	0.260	-0.170	0.440
2020/01/31 05:38:01.3	92.020	0.230	-0.150	0.450
2020/01/31 05:38:01.4	92.010	0.210	-0.130	0.470
2020/01/31 05:38:01.5	92.010	0.180	-0.100	0.490
2020/01/31 05:38:01.6	92.000	0.150	-0.090	0.510
2020/01/31 05:38:01.7	91.990	0.120	-0.070	0.540
2020/01/31 05:38:01.8	91.990	0.090	-0.050	0.570
2020/01/31 05:38:01.9	91.990	0.060	-0.040	0.600
2020/01/31 05:38:02.0	91.980	0.030	-0.030	0.630
2020/01/31 05:38:02.1	91.980	0.000	-0.020	0.660
2020/01/31 05:38:02.2	91.970	-0.030	-0.010	0.690
2020/01/31 05:38:02.3	91.970	-0.050	-0.000	0.720
2020/01/31 05:38:02.4	91.970	-0.080	0.000	0.760
2020/01/31 05:38:02.5	91.970	-0.110	0.000	0.790
2020/01/31 05:38:02.6	91.970	-0.130	0.000	0.820
2020/01/31 05:38:02.7	91.970	-0.160	-0.000	0.860
2020/01/31 05:38:02.8	91.970	-0.180	-0.010	0.890
2020/01/31 05:38:02.9	91.980	-0.200	-0.010	0.920
2020/01/31 05:38:03.0	91.980	-0.220	-0.020	0.960
2020/01/31 05:38:03.1	91.990	-0.240	-0.030	0.990
2020/01/31 05:38:03.2	92.000	-0.260	-0.050	1.020
2020/01/31 05:38:03.3	92.000	-0.270	-0.060	1.050
2020/01/31 05:38:03.4	92.010	-0.290	-0.070	1.070
2020/01/31 05:38:03.5	92.020	-0.300	-0.090	1.100
2020/01/31 05:38:03.6	92.020	-0.310	-0.100	1.130
2020/01/31 05:38:03.7	92.030	-0.320	-0.120	1.160
2020/01/31 05:38:03.8	92.030	-0.330	-0.130	1.180
2020/01/31 05:38:03.9	92.030	-0.340	-0.150	1.210
2020/01/31 05:38:04.0	92.040	-0.340	-0.160	1.230
2020/01/31 05:38:04.1	92.040	-0.350	-0.180	1.260
2020/01/31 05:38:04.2	92.040	-0.350	-0.190	1.280
2020/01/31 05:38:04.3	92.040	-0.350	-0.200	1.310
2020/01/31 05:38:04.4	92.040	-0.350	-0.200	1.330
2020/01/31 05:38:04.5	92.040	-0.350	-0.210	1.350
2020/01/31 05:38:04.6	92.040	-0.340	-0.210	1.370
2020/01/31 05:38:04.7	92.030	-0.340	-0.210	1.390
2020/01/31 05:38:04.8	92.030	-0.330	-0.210	1.410
2020/01/31 05:38:04.9	92.030	-0.330	-0.200	1.420
2020/01/31 05:38:05.0	92.030	-0.320	-0.190	1.430
2020/01/31 05:38:05.1	92.020	-0.310	-0.180	1.440
2020/01/31 05:38:05.2	92.020	-0.310	-0.170	1.450
2020/01/31 05:38:05.3	92.010	-0.300	-0.160	1.450
2020/01/31 05:38:05.4	92.010	-0.290	-0.140	1.450
2020/01/31 05:38:05.5	92.010	-0.280	-0.130	1.450
2020/01/31 05:38:05.6	92.000	-0.270	-0.120	1.440
2020/01/31 05:38:05.7	92.000	-0.250	-0.100	1.430
2020/01/31 05:38:05.8	91.990	-0.240	-0.090	1.420
2020/01/31 05:38:05.9	91.990	-0.230	-0.080	1.400
2020/01/31 05:38:06.0	91.990	-0.210	-0.070	1.380
2020/01/31 05:38:06.1	91.980	-0.200	-0.070	1.360
2020/01/31 05:38:06.2	91.980	-0.180	-0.070	1.330
2020/01/31 05:38:06.3	91.970	-0.160	-0.070	1.300
2020/01/31 05:38:06.4	91.970	-0.150	-0.070	1.270
2020/01/31 05:38:06.5	91.960	-0.130	-0.080	1.240
2020/01/31 05:38:06.6	91.960	-0.100	-0.090	1.200
2020/01/31 05:38:06.7	91.960	-0.080	-0.110	1.170
2020/01/31 05:38:06.8	91.960	-0.060	-0.130	1.140
2020/01/31 05:38:06.9	91.950	-0.040	-0.150	1.100
2020/01/31 05:38:07.0	91.950	-0.010	-0.180	1.060
2020/01/31 05:38:07.1	91.940	0.010	-0.210	1.030
2020/01/31 05:38:07.2	91.940	0.040	-0.240	0.990
2020/01/31 05:38:07.3	91.930	0.070	-0.280	0.950
2020/01/31 05:38:07.4	91.930	0.100	-0.320	0.920
2020/01/31 05:38:07.5	91.920	0.120	-0.350	0.880
2020/01/31 05:38:07.6	91.920	0.150	-0.390	0.840
2020/01/31 05:38:07.7	91.910	0.180	-0.430	0.810
2020/01/31 05:38:07.8	91.900	0.210	-0.470	0.780
2020/01/31 05:38:07.9	91.890	0.240	-0.510	0.740
2020/01/31 05:38:08.0	91.880	0.270	-0.540	0.710
2020/01/31 05:38:08.1	91.870	0.290	-0.570	0.670
2020/01/31 05:38:08.2	91.870	0.320	-0.610	0.630
2020/01/31 05:38:08.3	91.860	0.340	-0.630	0.590
2020/01/31 05:38:08.4	91.850	0.370	-0.650	0.560
2020/01/31 05:38:08.5	91.850	0.390	-0.670	0.520
2020/01/31 05:38:08.6	91.840	0.410	-0.680	0.480
2020/01/31 05:38:08.7	91.830	0.430	-0.690	0.440
2020/01/31 05:38:08.8	91.830	0.440	-0.690	0.400
2020/01/31 05:38:08.9	91.830	0.460	-0.690	0.360
2020/01/31 05:38:09.0	91.820	0.470	-0.690	0.320
2020/01/31 05:38:09.1	91.820	0.480	-0.680	0.280
2020/01/31 05:38:09.2	91.830	0.490	-0.660	0.250
2020/01/31 05:38:09.3	91.830	0.490	-0.650	0.210
2020/01/31 05:38:09.4	91.840	0.500	-0.620	0.180
2020/01/31 05:38:09.5	91.850	0.500	-0.600	0.160
2020/01/31 05:38:09.6	91.860	0.500	-0.570	0.130
2020/01/31 05:38:09.7	91.870	0.500	-0.540	0.120
2020/01/31 05:38:09.8	91.880	0.500	-0.500	0.100
2020/01/31 05:38:09.9	91.890	0.490	-0.470	0.090
2020/01/31 05:38:10.0	91.910	0.480	-0.430	0.090
2020/01/31 05:38:10.1	91.920	0.470	-0.390	0.100
2020/01/31 05:38:10.2	91.930	0.460	-0.350	0.100
2020/01/31 05:38:10.3	91.950	0.450	-0.300	0.120
2020/01/31 05:38:10.4	91.960	0.430	-0.260	0.140
2020/01/31 05:38:10.5	91.970	0.420	-0.220	0.160
2020/01/31 05:38:10.6	91.980	0.400	-0.170	0.190
2020/01/31 05:38:10.7	91.990	0.380	-0.130	0.220
2020/01/31 05:38:10.8	92.000	0.360	-0.090	0.250
2020/01/31 05:38:10.9	92.010	0.340	-0.050	0.280
2020/01/31 05:38:11.0	92.020	0.310	-0.000	0.320
2020/01/31 05:38:11.1	92.030	0.290	0.040	0.350
2020/01/31 05:38:11.2	92.050	0.260	0.080	0.390
2020/01/31 05:38:11.3	92.060	0.230	0.120	0.420
2020/01/31 05:38:11.4	92.060	0.200	0.150	0.450
2020/01/31 05:38:11.5	92.070	0.170	0.190	0.490
2020/01/31 05:38:11.6	92.080	0.130	0.220	0.520
2020/01/31 05:38:11.7	92.090	0.100	0.250	0.540
2020/01/31 05:38:11.8	92.100	0.060	0.280	0.570
2020/01/31 05:38:11.9	92.100	0.030	0.310	0.600
2020/01/31 05:38:12.0	92.110	-0.010	0.330	0.620
2020/01/31 05:38:12.1	92.120	-0.050	0.350	0.640
2020/01/31 05:38:12.2	92.130	-0.080	0.370	0.660
2020/01/31 05:38:12.3	92.130	-0.120	0.390	0.680
2020/01/31 05:38:12.4	92.140	-0.160	0.400	0.700
2020/01/31 05:38:12.5	92.140	-0.190	0.410	0.730
2020/01/31 05:38:12.6	92.150	-0.230	0.410	0.750
2020/01/31 05:38:12.7	92.150	-0.270	0.410	0.780
2020/01/31 05:38:12.8	92.150	-0.300	0.400	0.810
2020/01/31 05:38:12.9	92.150	-0.330	0.400	0.840
2020/01/31 05:38:13.0	92.140	-0.360	0.380	0.870
2020/01/31 05:38:13.1	92.140	-0.390	0.370	0.910
2020/01/31 05:38:13.2	92.130	-0.420	0.340	0.950
2020/01/31 05:38:13.3	92.120	-0.440	0.320	1.000
2020/01/31 05:38:13.4	92.110	-0.470	0.290	1.040
2020/01/31 05:38:13.5	92.100	-0.490	0.260	1.090
2020/01/31 05:38:13.6	92.090	-0.500	0.230	1.140
2020/01/31 05:38:13.7	92.070	-0.520	0.190	1.190
2020/01/31 05:38:13.8	92.060	-0.530	0.150	1.240
2020/01/31 05:38:13.9	92.040	-0.540	0.110	1.290
2020/01/31 05:38:14.0	92.030	-0.540	0.060	1.340
2020/01/31 05:38:14.1	92.010	-0.550	0.010	1.380
2020/01/31 05:38:14.2	91.990	-0.550	-0.040	1.430
2020/01/31 05:38:14.3	91.970	-0.550	-0.090	1.470
2020/01/31 05:38:14.4	91.960	-0.540	-0.150	1.500
2020/01/31 05:38:14.5	91.940	-0.540	-0.200	1.540
2020/01/31 05:38:14.6	91.930	-0.520	-0.260	1.560
2020/01/31 05:38:14.7	91.920	-0.510	-0.320	1.590
2020/01/31 05:38:14.8	91.910	-0.500	-0.380	1.600
2020/01/31 05:38:14.9	91.900	-0.480	-0.430	1.620
2020/01/31 05:38:15.0	91.890	-0.460	-0.490	1.620
2020/01/31 05:38:15.1	91.880	-0.440	-0.550	1.620
2020/01/31 05:38:15.2	91.880	-0.410	-0.610	1.620
2020/01/31 05:38:15.3	91.880	-0.390	-0.660	1.600
2020/01/31 05:38:15.4	91.880	-0.360	-0.710	1.590
2020/01/31 05:38:15.5	91.880	-0.330	-0.760	1.570
2020/01/31 05:38:15.6	91.880	-0.290	-0.810	1.540
2020/01/31 05:38:15.7	91.890	-0.260	-0.860	1.510
2020/01/31 05:38:15.8	91.890	-0.230	-0.900	1.480
2020/01/31 05:38:15.9	91.900	-0.190	-0.940	1.450
2020/01/31 05:38:16.0	91.900	-0.150	-0.970	1.410
2020/01/31 05:38:16.1	91.910	-0.110	-1.000	1.380
2020/01/31 05:38:16.2	91.920	-0.080	-1.020	1.340
2020/01/31 05:38:16.3	91.930	-0.040	-1.040	1.310
2020/01/31 05:38:16.4	91.930	-0.000	-1.050	1.270
2020/01/31 05:38:16.5	91.940	0.030	-1.050	1.240
2020/01/31 05:38:16.6	91.940	0.070	-1.050	1.220
2020/01/31 05:38:16.7	91.940	0.100	-1.030	1.190
2020/01/31 05:38:16.8	91.940	0.130	-1.010	1.160
2020/01/31 05:38:16.9	91.940	0.160	-0.980	1.140
2020/01/31 05:38:17.0	91.940	0.190	-0.940	1.120
2020/01/31 05:38:17.1	91.940	0.210	-0.900	1.090
2020/01/31 05:38:17.2	91.920	0.230	-0.840	1.080
2020/01/31 05:38:17.3	91.920	0.250	-0.780	1.060
2020/01/31 05:38:17.4	91.920	0.260	-0.710	1.040
2020/01/31 05:38:17.5	91.910	0.270	-0.640	1.020
2020/01/31 05:38:17.6	91.900	0.280	-0.560	1.000
2020/01/31 05:38:17.7	91.900	0.280	-0.470	0.980
2020/01/31 05:38:17.8	91.890	0.280	-0.390	0.960
2020/01/31 05:38:17.9	91.880	0.270	-0.290	0.940
2020/01/31 05:38:18.0	91.880	0.260	-0.200	0.920
2020/01/31 05:38:18.1	91.870	0.250	-0.110	0.900
2020/01/31 05:38:18.2	91.870	0.240	-0.020	0.880
2020/01/31 05:38:18.3	91.860	0.220	0.070	0.860
2020/01/31 05:38:18.4	91.850	0.200	0.160	0.840
2020/01/31 05:38:18.5	91.850	0.180	0.250	0.810
2020/01/31 05:38:18.6	91.840	0.160	0.320	0.790
2020/01/31 05:38:18.7	91.840	0.140	0.400	0.770
2020/01/31 05:38:18.8	91.830	0.110	0.460	0.740
2020/01/31 05:38:18.9	91.830	0.090	0.520	0.720
2020/01/31 05:38:19.0	91.820	0.070	0.570	0.690
2020/01/31 05:38:19.1	91.820	0.040	0.610	0.670
2020/01/31 05:38:19.2	91.820	0.020	0.640	0.640
2020/01/31 05:38:19.3	91.820	0.010	0.660	0.610
2020/01/31 05:38:19.4	91.820	-0.010	0.670	0.590
2020/01/31 05:38:19.5	91.820	-0.020	0.670	0.560
2020/01/31 05:38:19.6	91.820	-0.040	0.650	0.540
2020/01/31 05:38:19.7	91.820	-0.040	0.630	0.510
2020/01/31 05:38:19.8	91.830	-0.050	0.590	0.490
2020/01/31 05:38:19.9	91.830	-0.050	0.550	0.470
2020/01/31 05:38:20.0	91.830	-0.040	0.490	0.440
2020/01/31 05:38:20.1	91.840	-0.040	0.430	0.420
2020/01/31 05:38:20.2	91.830	-0.030	0.360	0.400
2020/01/31 05:38:20.3	91.840	-0.020	0.280	0.380
2020/01/31 05:38:20.4	91.840	-0.000	0.200	0.360
2020/01/31 05:38:20.5	91.840	0.020	0.110	0.340
2020/01/31 05:38:20.6	91.850	0.040	0.020	0.320
2020/01/31 05:38:20.7	91.850	0.060	-0.080	0.300
2020/01/31 05:38:20.8	91.850	0.080	-0.170	0.280
2020/01/31 05:38:20.9	91.850	0.100	-0.270	0.270
2020/01/31 05:38:21.0	91.850	0.120	-0.360	0.260
2020/01/31 05:38:21.1	91.850	0.150	-0.450	0.250
2020/01/31 05:38:21.2	91.850	0.170	-0.540	0.240
2020/01/31 05:38:21.3	91.840	0.190	-0.620	0.230
2020/01/31 05:38:21.4	91.840	0.210	-0.700	0.230
2020/01/31 05:38:21.5	91.830	0.220	-0.760	0.230
2020/01/31 05:38:21.6	91.820	0.240	-0.820	0.240
2020/01/31 05:38:21.7	91.810	0.250	-0.880	0.240
2020/01/31 05:38:21.8	91.800	0.260	-0.920	0.260
2020/01/31 05:38:21.9	91.790	0.270	-0.960	0.270
2020/01/31 05:38:22.0	91.780	0.270	-0.980	0.290
2020/01/31 05:38:22.1	91.760	0.270	-0.990	0.310
2020/01/31 05:38:22.2	91.750	0.260	-1.000	0.340
2020/01/31 05:38:22.3	91.740	0.250	-0.990	0.370
2020/01/31 05:38:22.4	91.720	0.240	-0.980	0.410
2020/01/31 05:38:22.5	91.710	0.230	-0.950	0.440
2020/01/31 05:38:22.6	91.690	0.210	-0.910	0.490
2020/01/31 05:38:22.7	91.670	0.190	-0.870	0.530
2020/01/31 05:38:22.8	91.660	0.170	-0.810	0.580
2020/01/31 05:38:22.9	91.640	0.140	-0.750	0.620
2020/01/31 05:38:23.0	91.630	0.110	-0.680	0.670
2020/01/31 05:38:23.1	91.610	0.080	-0.600	0.720
2020/01/31 05:38:23.2	91.600	0.050	-0.510	0.770
2020/01/31 05:38:23.3	91.590	0.010	-0.420	0.820
2020/01/31 05:38:23.4	91.580	-0.020	-0.330	0.870
2020/01/31 05:38:23.5	91.580	-0.060	-0.240	0.910
2020/01/31 05:38:23.6	91.580	-0.090	-0.150	0.950
2020/01/31 05:38:23.7	91.580	-0.130	-0.060	0.990
2020/01/31 05:38:23.8	91.580	-0.170	0.030	1.030
2020/01/31 05:38:23.9	91.580	-0.200	0.120	1.070
2020/01/31 05:38:24.0	91.590	-0.240	0.200	1.100
2020/01/31 05:38:24.1	91.600	-0.270	0.270	1.120
2020/01/31 05:38:24.2	91.600	-0.300	0.340	1.150
2020/01/31 05:38:24.3	91.610	-0.320	0.400	1.170
2020/01/31 05:38:24.4	91.620	-0.350	0.460	1.190
2020/01/31 05:38:24.5	91.630	-0.370	0.500	1.210
2020/01/31 05:38:24.6	91.640	-0.380	0.530	1.220
2020/01/31 05:38:24.7	91.650	-0.400	0.550	1.240
2020/01/31 05:38:24.8	91.650	-0.410	0.560	1.250
2020/01/31 05:38:24.9	91.660	-0.410	0.560	1.260
2020/01/31 05:38:25.0	91.670	-0.410	0.550	1.270
2020/01/31 05:38:25.1	91.670	-0.410	0.530	1.270
2020/01/31 05:38:25.2	91.670	-0.400	0.500	1.280
2020/01/31 05:38:25.3	91.680	-0.390	0.460	1.280
2020/01/31 05:38:25.4	91.680	-0.380	0.410	1.290
2020/01/31 05:38:25.5	91.670	-0.360	0.350	1.290
2020/01/31 05:38:25.6	91.670	-0.340	0.280	1.290
2020/01/31 05:38:25.7	91.670	-0.320	0.210	1.280
2020/01/31 05:38:25.8	91.660	-0.290	0.120	1.280
2020/01/31 05:38:25.9	91.650	-0.260	0.040	1.280
2020/01/31 05:38:26.0	91.640	-0.230	-0.050	1.280
2020/01/31 05:38:26.1	91.630	-0.190	-0.150	1.280
2020/01/31 05:38:26.2	91.620	-0.160	-0.240	1.280
2020/01/31 05:38:26.3	91.610	-0.120	-0.340	1.280
2020/01/31 05:38:26.4	91.600	-0.080	-0.430	1.280
2020/01/31 05:38:26.5	91.580	-0.040	-0.520	1.280
2020/01/31 05:38:26.6	91.570	-0.000	-0.610	1.280
2020/01/31 05:38:26.7	91.550	0.030	-0.690	1.280
2020/01/31 05:38:26.8	91.540	0.070	-0.770	1.280
2020/01/31 05:38:26.9	91.520	0.110	-0.830	1.270
2020/01/31 05:38:27.0	91.510	0.140	-0.890	1.270
2020/01/31 05:38:27.1	91.490	0.170	-0.940	1.260
2020/01/31 05:38:27.2	91.470	0.200	-0.990	1.260
2020/01/31 05:38:27.3	91.460	0.230	-1.010	1.250
2020/01/31 05:38:27.4	91.450	0.250	-1.030	1.250
2020/01/31 05:38:27.5	91.440	0.270	-1.030	1.240
2020/01/31 05:38:27.6	91.430	0.280	-1.020	1.230
2020/01/31 05:38:27.7	91.420	0.300	-1.000	1.220
2020/01/31 05:38:27.8	91.410	0.300	-0.970	1.210
2020/01/31 05:38:27.9	91.400	0.310	-0.920	1.200
2020/01/31 05:38:28.0	91.390	0.310	-0.870	1.180
2020/01/31 05:38:28.1	91.390	0.310	-0.810	1.170
2020/01/31 05:38:28.2	91.380	0.300	-0.720	1.150
2020/01/31 05:38:28.3	91.370	0.290	-0.640	1.130
2020/01/31 05:38:28.4	91.360	0.270	-0.560	1.120
2020/01/31 05:38:28.5	91.360	0.250	-0.470	1.100
2020/01/31 05:38:28.6	91.350	0.230	-0.370	1.070
2020/01/31 05:38:28.7	91.340	0.210	-0.270	1.050
2020/01/31 05:38:28.8	91.340	0.180	-0.170	1.030
2020/01/31 05:38:28.9	91.330	0.150	-0.070	1.000
2020/01/31 05:38:29.0	91.320	0.120	0.030	0.970
2020/01/31 05:38:29.1	91.320	0.090	0.120	0.950
2020/01/31 05:38:29.2	91.310	0.060	0.210	0.920
2020/01/31 05:38:29.3	91.300	0.030	0.290	0.890
2020/01/31 05:38:29.4	91.300	0.000	0.370	0.860
2020/01/31 05:38:29.5	91.300	-0.030	0.440	0.830
2020/01/31 05:38:29.6	91.290	-0.050	0.500	0.800
2020/01/31 05:38:29.7	91.290	-0.080	0.550	0.770
2020/01/31 05:38:29.8	91.280	-0.100	0.590	0.740
2020/01/31 05:38:29.9	91.280	-0.120	0.620	0.720
2020/01/31 05:38:30.0	91.280	-0.140	0.640	0.690
2020/01/31 05:38:30.1	91.280	-0.150	0.650	0.660
2020/01/31 05:38:30.2	91.280	-0.160	0.650	0.640
2020/01/31 05:38:30.3	91.280	-0.160	0.630	0.610
2020/01/31 05:38:30.4	91.290	-0.160	0.600	0.590
2020/01/31 05:38:30.5	91.290	-0.160	0.560	0.560
2020/01/31 05:38:30.6	91.300	-0.150	0.510	0.540
2020/01/31 05:38:30.7	91.310	-0.140	0.450	0.510
2020/01/31 05:38:30.8	91.320	-0.120	0.380	0.490
2020/01/31 05:38:30.9	91.330	-0.100	0.300	0.460
2020/01/31 05:38:31.0	91.350	-0.070	0.220	0.440
2020/01/31 05:38:31.1	91.370	-0.040	0.130	0.420
2020/01/31 05:38:31.2	91.380	-0.010	0.030	0.390
2020/01/31 05:38:31.3	91.400	0.020	-0.070	0.370
2020/01/31 05:38:31.4	91.420	0.060	-0.180	0.350
2020/01/31 05:38:31.5	91.440	0.100	-0.280	0.340
2020/01/31 05:38:31.6	91.470	0.140	-0.390	0.320
2020/01/31 05:38:31.7	91.480	0.180	-0.490	0.310
2020/01/31 05:38:31.8	91.500	0.220	-0.590	0.300
2020/01/31 05:38:31.9	91.520	0.260	-0.690	0.290
2020/01/31 05:38:32.0	91.540	0.300	-0.780	0.290
2020/01/31 05:38:32.1	91.550	0.340	-0.870	0.290
2020/01/31 05:38:32.2	91.550	0.370	-0.950	0.300
2020/01/31 05:38:32.3	91.560	0.400	-1.020	0.310
2020/01/31 05:38:32.4	91.560	0.430	-1.080	0.320
2020/01/31 05:38:32.5	91.560	0.460	-1.120	0.340
2020/01/31 05:38:32.6	91.550	0.480	-1.150	0.370
2020/01/31 05:38:32.7	91.540	0.490	-1.170	0.400
2020/01/31 05:38:32.8	91.540	0.500	-1.180	0.430
2020/01/31 05:38:32.9	91.520	0.500	-1.170	0.470
2020/01/31 05:38:33.0	91.510	0.500	-1.150	0.510
2020/01/31 05:38:33.1	91.490	0.480	-1.110	0.550
2020/01/31 05:38:33.2	91.470	0.470	-1.050	0.600
2020/01/31 05:38:33.3	91.450	0.440	-0.990	0.650
2020/01/31 05:38:33.4	91.420	0.410	-0.910	0.710
2020/01/31 05:38:33.5	91.400	0.370	-0.820	0.770
2020/01/31 05:38:33.6	91.370	0.330	-0.720	0.830
2020/01/31 05:38:33.7	91.340	0.280	-0.610	0.890
2020/01/31 05:38:33.8	91.310	0.220	-0.500	0.950
2020/01/31 05:38:33.9	91.280	0.160	-0.370	1.020
2020/01/31 05:38:34.0	91.250	0.090	-0.240	1.080
2020/01/31 05:38:34.1	91.220	0.020	-0.110	1.150
2020/01/31 05:38:34.2	91.190	-0.050	0.020	1.210
2020/01/31 05:38:34.3	91.160	-0.130	0.160	1.280
2020/01/31 05:38:34.4	91.130	-0.210	0.290	1.340
2020/01/31 05:38:34.5	91.110	-0.290	0.420	1.400
2020/01/31 05:38:34.6	91.080	-0.370	0.540	1.460
2020/01/31 05:38:34.7	91.060	-0.450	0.660	1.510
2020/01/31 05:38:34.8	91.040	-0.530	0.770	1.560
2020/01/31 05:38:34.9	91.020	-0.610	0.860	1.610
2020/01/31 05:38:35.0	91.000	-0.680	0.950	1.650
2020/01/31 05:38:35.1	90.990	-0.750	1.020	1.680
2020/01/31 05:38:35.2	90.980	-0.820	1.090	1.710
2020/01/31 05:38:35.3	90.970	-0.870	1.130	1.730
2020/01/31 05:38:35.4	90.970	-0.930	1.160	1.750
2020/01/31 05:38:35.5	90.960	-0.970	1.170	1.760
2020/01/31 05:38:35.6	90.970	-1.000	1.170	1.760
2020/01/31 05:38:35.7	90.970	-1.030	1.140	1.750
2020/01/31 05:38:35.8	90.970	-1.050	1.100	1.740
2020/01/31 05:38:35.9	90.980	-1.050	1.040	1.720
2020/01/31 05:38:36.0	90.990	-1.050	0.970	1.700
2020/01/31 05:38:36.1	91.010	-1.040	0.870	1.670
2020/01/31 05:38:36.2	91.030	-1.010	0.760	1.630
2020/01/31 05:38:36.3	91.040	-0.980	0.640	1.590
2020/01/31 05:38:36.4	91.060	-0.930	0.510	1.540
2020/01/31 05:38:36.5	91.080	-0.880	0.370	1.490
2020/01/31 05:38:36.6	91.100	-0.820	0.220	1.450
2020/01/31 05:38:36.7	91.120	-0.750	0.060	1.400
2020/01/31 05:38:36.8	91.130	-0.670	-0.110	1.350
2020/01/31 05:38:36.9	91.150	-0.580	-0.270	1.300
2020/01/31 05:38:37.0	91.160	-0.490	-0.440	1.250
2020/01/31 05:38:37.1	91.180	-0.390	-0.610	1.210
2020/01/31 05:38:37.2	91.190	-0.290	-0.780	1.160
2020/01/31 05:38:37.3	91.190	-0.190	-0.930	1.130
2020/01/31 05:38:37.4	91.200	-0.090	-1.090	1.100
2020/01/31 05:38:37.5	91.200	0.020	-1.230	1.070
2020/01/31 05:38:37.6	91.190	0.120	-1.360	1.050
2020/01/31 05:38:37.7	91.180	0.220	-1.480	1.040
2020/01/31 05:38:37.8	91.170	0.320	-1.580	1.030
2020/01/31 05:38:37.9	91.160	0.410	-1.670	1.020
2020/01/31 05:38:38.0	91.140	0.500	-1.740	1.020
2020/01/31 05:38:38.1	91.120	0.580	-1.790	1.020
2020/01/31 05:38:38.2	91.100	0.650	-1.830	1.030
2020/01/31 05:38:38.3	91.080	0.710	-1.840	1.040
2020/01/31 05:38:38.4	91.060	0.770	-1.840	1.050
2020/01/31 05:38:38.5	91.040	0.810	-1.810	1.060
2020/01/31 05:38:38.6	91.020	0.850	-1.770	1.070
2020/01/31 05:38:38.7	91.000	0.880	-1.720	1.090
2020/01/31 05:38:38.8	90.980	0.890	-1.640	1.100
2020/01/31 05:38:38.9	90.950	0.900	-1.550	1.120
2020/01/31 05:38:39.0	90.930	0.890	-1.450	1.130
2020/01/31 05:38:39.1	90.920	0.880	-1.330	1.140
2020/01/31 05:38:39.2	90.910	0.850	-1.190	1.150
2020/01/31 05:38:39.3	90.890	0.820	-1.050	1.150
2020/01/31 05:38:39.4	90.880	0.770	-0.890	1.150
2020/01/31 05:38:39.5	90.860	0.720	-0.730	1.150
2020/01/31 05:38:39.6	90.850	0.660	-0.570	1.140
2020/01/31 05:38:39.7	90.840	0.590	-0.400	1.130
2020/01/31 05:38:39.8	90.830	0.520	-0.230	1.120
2020/01/31 05:38:39.9	90.830	0.440	-0.050	1.100
2020/01/31 05:38:40.0	90.820	0.360	0.120	1.080
2020/01/31 05:38:40.1	90.820	0.280	0.280	1.050
2020/01/31 05:38:40.2	90.820	0.190	0.450	1.020
2020/01/31 05:38:40.3	90.820	0.110	0.600	0.980
2020/01/31 05:38:40.4	90.830	0.020	0.750	0.950
2020/01/31 05:38:40.5	90.830	-0.060	0.880	0.900
2020/01/31 05:38:40.6	90.840	-0.150	1.000	0.860
2020/01/31 05:38:40.7	90.850	-0.220	1.110	0.810
2020/01/31 05:38:40.8	90.870	-0.300	1.200	0.770
2020/01/31 05:38:40.9	90.880	-0.370	1.280	0.720
2020/01/31 05:38:41.0	90.900	-0.430	1.350	0.670
2020/01/31 05:38:41.1	90.910	-0.490	1.390	0.620
2020/01/31 05:38:41.2	90.930	-0.540	1.430	0.570
2020/01/31 05:38:41.3	90.940	-0.590	1.440	0.520
2020/01/31 05:38:41.4	90.960	-0.620	1.440	0.470
2020/01/31 05:38:41.5	90.980	-0.650	1.420	0.430
2020/01/31 05:38:41.6	91.000	-0.670	1.390	0.390
2020/01/31 05:38:41.7	91.020	-0.690	1.340	0.350
2020/01/31 05:38:41.8	91.040	-0.690	1.270	0.310
2020/01/31 05:38:41.9	91.060	-0.690	1.200	0.280
2020/01/31 05:38:42.0	91.070	-0.680	1.100	0.250
2020/01/31 05:38:42.1	91.090	-0.660	1.000	0.230
2020/01/31 05:38:42.2	91.100	-0.630	0.880	0.200
2020/01/31 05:38:42.3	91.120	-0.590	0.760	0.190
2020/01/31 05:38:42.4	91.130	-0.550	0.620	0.170
2020/01/31 05:38:42.5	91.140	-0.500	0.480	0.170
2020/01/31 05:38:42.6	91.150	-0.450	0.330	0.160
2020/01/31 05:38:42.7	91.160	-0.390	0.170	0.160
2020/01/31 05:38:42.8	91.170	-0.320	0.010	0.170
2020/01/31 05:38:42.9	91.170	-0.250	-0.150	0.170
2020/01/31 05:38:43.0	91.180	-0.180	-0.310	0.180
2020/01/31 05:38:43.1	91.180	-0.100	-0.470	0.200
2020/01/31 05:38:43.2	91.190	-0.020	-0.620	0.210
2020/01/31 05:38:43.3	91.190	0.050	-0.770	0.230
2020/01/31 05:38:43.4	91.190	0.130	-0.920	0.250
2020/01/31 05:38:43.5	91.190	0.210	-1.050	0.280
2020/01/31 05:38:43.6	91.180	0.280	-1.170	0.300
2020/01/31 05:38:43.7	91.180	0.360	-1.290	0.330
2020/01/31 05:38:43.8	91.170	0.430	-1.380	0.370
2020/01/31 05:38:43.9	91.160	0.490	-1.470	0.410
2020/01/31 05:38:44.0	91.150	0.550	-1.540	0.450
2020/01/31 05:38:44.1	91.140	0.600	-1.600	0.490
2020/01/31 05:38:44.2	91.130	0.650	-1.640	0.530
2020/01/31 05:38:44.3	91.110	0.690	-1.660	0.580
2020/01/31 05:38:44.4	91.100	0.720	-1.670	0.630
2020/01/31 05:38:44.5	91.080	0.750	-1.650	0.680
2020/01/31 05:38:44.6	91.060	0.760	-1.630	0.740
2020/01/31 05:38:44.7	91.030	0.770	-1.580	0.790
2020/01/31 05:38:44.8	91.010	0.770	-1.520	0.850
2020/01/31 05:38:44.9	90.980	0.770	-1.450	0.900
2020/01/31 05:38:45.0	90.960	0.750	-1.360	0.950
2020/01/31 05:38:45.1	90.930	0.720	-1.260	1.010
2020/01/31 05:38:45.2	90.900	0.690	-1.140	1.060
2020/01/31 05:38:45.3	90.870	0.650	-1.020	1.110
2020/01/31 05:38:45.4	90.840	0.610	-0.890	1.150
2020/01/31 05:38:45.5	90.810	0.550	-0.750	1.190
2020/01/31 05:38:45.6	90.780	0.500	-0.610	1.230
2020/01/31 05:38:45.7	90.750	0.430	-0.460	1.270
2020/01/31 05:38:45.8	90.730	0.360	-0.310	1.300
2020/01/31 05:38:45.9	90.700	0.290	-0.160	1.320
2020/01/31 05:38:46.0	90.670	0.220	-0.010	1.350
2020/01/31 05:38:46.1	90.640	0.140	0.130	1.360
2020/01/31 05:38:46.2	90.620	0.070	0.280	1.380
2020/01/31 05:38:46.3	90.600	-0.010	0.410	1.380
2020/01/31 05:38:46.4	90.580	-0.090	0.540	1.380
2020/01/31 05:38:46.5	90.570	-0.160	0.660	1.380
2020/01/31 05:38:46.6	90.550	-0.240	0.760	1.370
2020/01/31 05:38:46.7	90.540	-0.300	0.860	1.350
2020/01/31 05:38:46.8	90.540	-0.370	0.940	1.330
2020/01/31 05:38:46.9	90.540	-0.430	1.010	1.300
2020/01/31 05:38:47.0	90.540	-0.480	1.060	1.270
2020/01/31 05:38:47.1	90.540	-0.530	1.100	1.240
2020/01/31 05:38:47.2	90.550	-0.570	1.120	1.190
2020/01/31 05:38:47.3	90.560	-0.600	1.130	1.150
2020/01/31 05:38:47.4	90.580	-0.620	1.120	1.100
2020/01/31 05:38:47.5	90.600	-0.640	1.100	1.050
2020/01/31 05:38:47.6	90.620	-0.650	1.060	1.000
2020/01/31 05:38:47.7	90.650	-0.660	1.010	0.950
2020/01/31 05:38:47.8	90.670	-0.650	0.940	0.890
2020/01/31 05:38:47.9	90.700	-0.640	0.870	0.840
2020/01/31 05:38:48.0	90.730	-0.620	0.790	0.790
2020/01/31 05:38:48.1	90.760	-0.600	0.690	0.740
2020/01/31 05:38:48.2	90.800	-0.570	0.590	0.690
2020/01/31 05:38:48.3	90.830	-0.530	0.490	0.640
2020/01/31 05:38:48.4	90.860	-0.500	0.370	0.600
2020/01/31 05:38:48.5	90.900	-0.450	0.260	0.560
2020/01/31 05:38:48.6	90.930	-0.400	0.140	0.520
2020/01/31 05:38:48.7	90.960	-0.350	0.020	0.490
2020/01/31 05:38:48.8	90.990	-0.300	-0.100	0.460
2020/01/31 05:38:48.9	91.030	-0.250	-0.220	0.430
2020/01/31 05:38:49.0	91.060	-0.190	-0.330	0.400
2020/01/31 05:38:49.1	91.090	-0.130	-0.450	0.370
2020/01/31 05:38:49.2	91.110	-0.080	-0.560	0.350
2020/01/31 05:38:49.3	91.140	-0.020	-0.670	0.340
2020/01/31 05:38:49.4	91.170	0.030	-0.760	0.320
2020/01/31 05:38:49.5	91.200	0.080	-0.850	0.310
2020/01/31 05:38:49.6	91.230	0.130	-0.940	0.300
2020/01/31 05:38:49.7	91.260	0.170	-1.010	0.300
2020/01/31 05:38:49.8	91.280	0.210	-1.080	0.300
2020/01/31 05:38:49.9	91.310	0.250	-1.130	0.300
2020/01/31 05:38:50.0	91.330	0.280	-1.180	0.310
2020/01/31 05:38:50.1	91.350	0.310	-1.210	0.320
2020/01/31 05:38:50.2	91.360	0.330	-1.230	0.340
2020/01/31 05:38:50.3	91.370	0.350	-1.250	0.360
2020/01/31 05:38:50.4	91.380	0.360	-1.250	0.390
2020/01/31 05:38:50.5	91.390	0.370	-1.240	0.420
2020/01/31 05:38:50.6	91.390	0.370	-1.220	0.460
2020/01/31 05:38:50.7	91.390	0.370	-1.190	0.500
2020/01/31 05:38:50.8	91.390	0.360	-1.150	0.550
2020/01/31 05:38:50.9	91.380	0.350	-1.110	0.600
2020/01/31 05:38:51.0	91.370	0.330	-1.050	0.660
2020/01/31 05:38:51.1	91.360	0.310	-0.980	0.710
2020/01/31 05:38:51.2	91.350	0.290	-0.910	0.770
2020/01/31 05:38:51.3	91.340	0.260	-0.830	0.830
2020/01/31 05:38:51.4	91.320	0.220	-0.750	0.890
2020/01/31 05:38:51.5	91.290	0.190	-0.660	0.950
2020/01/31 05:38:51.6	91.270	0.150	-0.570	1.010
2020/01/31 05:38:51.7	91.250	0.110	-0.480	1.070
2020/01/31 05:38:51.8	91.220	0.070	-0.380	1.120
2020/01/31 05:38:51.9	91.190	0.030	-0.280	1.170
2020/01/31 05:38:52.0	91.160	-0.010	-0.190	1.220
2020/01/31 05:38:52.1	91.130	-0.050	-0.100	1.270
2020/01/31 05:38:52.2	91.100	-0.090	-0.000	1.310
2020/01/31 05:38:52.3	91.060	-0.130	0.080	1.340
2020/01/31 05:38:52.4	91.030	-0.160	0.160	1.380
2020/01/31 05:38:52.5	91.000	-0.200	0.230	1.400
2020/01/31 05:38:52.6	90.970	-0.230	0.300	1.430
2020/01/31 05:38:52.7	90.930	-0.250	0.360	1.450
2020/01/31 05:38:52.8	90.900	-0.280	0.410	1.460
2020/01/31 05:38:52.9	90.870	-0.300	0.460	1.470
2020/01/31 05:38:53.0	90.840	-0.310	0.490	1.470
2020/01/31 05:38:53.1	90.810	-0.330	0.510	1.470
2020/01/31 05:38:53.2	90.780	-0.340	0.530	1.460
2020/01/31 05:38:53.3	90.750	-0.340	0.540	1.450
2020/01/31 05:38:53.4	90.730	-0.340	0.540	1.440
2020/01/31 05:38:53.5	90.710	-0.340	0.530	1.420
2020/01/31 05:38:53.6	90.690	-0.330	0.510	1.400
2020/01/31 05:38:53.7	90.670	-0.320	0.480	1.380
2020/01/31 05:38:53.8	90.650	-0.310	0.450	1.350
2020/01/31 05:38:53.9	90.640	-0.290	0.410	1.320
2020/01/31 05:38:54.0	90.630	-0.280	0.370	1.290
2020/01/31 05:38:54.1	90.620	-0.250	0.320	1.250
2020/01/31 05:38:54.2	90.620	-0.230	0.260	1.210
2020/01/31 05:38:54.3	90.620	-0.210	0.200	1.170
2020/01/31 05:38:54.4	90.620	-0.180	0.130	1.120
2020/01/31 05:38:54.5	90.620	-0.150	0.070	1.080
2020/01/31 05:38:54.6	90.620	-0.120	-0.000	1.030
2020/01/31 05:38:54.7	90.630	-0.090	-0.080	0.970
2020/01/31 05:38:54.8	90.630	-0.060	-0.150	0.920
2020/01/31 05:38:54.9	90.650	-0.020	-0.230	0.860
2020/01/31 05:38:55.0	90.660	0.010	-0.300	0.800
2020/01/31 05:38:55.1	90.670	0.050	-0.370	0.750
2020/01/31 05:38:55.2	90.690	0.080	-0.440	0.690
2020/01/31 05:38:55.3	90.710	0.110	-0.510	0.630
2020/01/31 05:38:55.4	90.730	0.140	-0.580	0.570
2020/01/31 05:38:55.5	90.750	0.180	-0.640	0.520
2020/01/31 05:38:55.6	90.770	0.210	-0.690	0.460
2020/01/31 05:38:55.7	90.800	0.230	-0.740	0.410
2020/01/31 05:38:55.8	90.820	0.260	-0.780	0.370
2020/01/31 05:38:55.9	90.850	0.290	-0.820	0.320
2020/01/31 05:38:56.0	90.870	0.310	-0.840	0.280
2020/01/31 05:38:56.1	90.900	0.330	-0.860	0.250
2020/01/31 05:38:56.2	90.920	0.340	-0.870	0.220
2020/01/31 05:38:56.3	90.950	0.360	-0.870	0.190
2020/01/31 05:38:56.4	90.970	0.370	-0.870	0.170
2020/01/31 05:38:56.5	91.000	0.370	-0.850	0.160
2020/01/31 05:38:56.6	91.020	0.380	-0.830	0.150
2020/01/31 05:38:56.7	91.050	0.380	-0.790	0.150
2020/01/31 05:38:56.8	91.070	0.380	-0.750	0.150
2020/01/31 05:38:56.9	91.090	0.370	-0.710	0.150
2020/01/31 05:38:57.0	91.110	0.360	-0.660	0.160
2020/01/31 05:38:57.1	91.130	0.350	-0.600	0.180
2020/01/31 05:38:57.2	91.150	0.330	-0.540	0.200
2020/01/31 05:38:57.3	91.160	0.320	-0.470	0.220
2020/01/31 05:38:57.4	91.180	0.300	-0.400	0.240
2020/01/31 05:38:57.5	91.190	0.270	-0.320	0.270
2020/01/31 05:38:57.6	91.200	0.250	-0.250	0.300
2020/01/31 05:38:57.7	91.210	0.220	-0.170	0.330
2020/01/31 05:38:57.8	91.210	0.190	-0.090	0.360
2020/01/31 05:38:57.9	91.220	0.160	-0.020	0.390
2020/01/31 05:38:58.0	91.220	0.120	0.060	0.420
2020/01/31 05:38:58.1	91.220	0.090	0.140	0.460
2020/01/31 05:38:58.2	91.210	0.060	0.210	0.490
2020/01/31 05:38:58.3	91.210	0.020	0.280	0.520
2020/01/31 05:38:58.4	91.210	-0.010	0.350	0.550
2020/01/31 05:38:58.5	91.210	-0.050	0.410	0.580
2020/01/31 05:38:58.6	91.210	-0.080	0.470	0.610
2020/01/31 05:38:58.7	91.200	-0.110	0.520	0.640
2020/01/31 05:38:58.8	91.200	-0.140	0.570	0.660
2020/01/31 05:38:58.9	91.200	-0.170	0.600	0.690
2020/01/31 05:38:59.0	91.200	-0.200	0.640	0.710
2020/01/31 05:38:59.1	91.190	-0.230	0.660	0.730
2020/01/31 05:38:59.2	91.200	-0.250	0.680	0.740
2020/01/31 05:38:59.3	91.200	-0.270	0.690	0.760
2020/01/31 05:38:59.4	91.200	-0.290	0.690	0.780
2020/01/31 05:38:59.5	91.200	-0.300	0.680	0.790
2020/01/31 05:38:59.6	91.200	-0.310	0.670	0.810
2020/01/31 05:38:59.7	91.200	-0.320	0.640	0.820
2020/01/31 05:38:59.8	91.200	-0.320	0.610	0.830
2020/01/31 05:38:59.9	91.200	-0.320	0.570	0.830
2020/01/31 05:39:00.0	91.210	-0.320	0.520	0.840
2020/01/31 05:39:00.1	91.210	-0.310	0.460	0.840
2020/01/31 05:39:00.2	91.230	-0.290	0.390	0.850
2020/01/31 05:39:00.3	91.230	-0.270	0.310	0.850
2020/01/31 05:39:00.4	91.240	-0.250	0.230	0.850
2020/01/31 05:39:00.5	91.250	-0.220	0.140	0.850
2020/01/31 05:39:00.6	91.260	-0.190	0.040	0.850
2020/01/31 05:39:00.7	91.270	-0.150	-0.060	0.840
2020/01/31 05:39:00.8	91.280	-0.110	-0.170	0.840
2020/01/31 05:39:00.9	91.280	-0.070	-0.280	0.840
2020/01/31 05:39:01.0	91.290	-0.020	-0.390	0.840
2020/01/31 05:39:01.1	91.300	0.030	-0.510	0.830
2020/01/31 05:39:01.2	91.310	0.080	-0.620	0.830
2020/01/31 05:39:01.3	91.320	0.130	-0.740	0.830
2020/01/31 05:39:01.4	91.320	0.180	-0.850	0.830
2020/01/31 05:39:01.5	91.330	0.230	-0.950	0.840
2020/01/31 05:39:01.6	91.330	0.290	-1.050	0.840
2020/01/31 05:39:01.7	91.330	0.340	-1.150	0.840
2020/01/31 05:39:01.8	91.320	0.390	-1.230	0.850
2020/01/31 05:39:01.9	91.320	0.430	-1.310	0.850
2020/01/31 05:39:02.0	91.310	0.480	-1.370	0.860
2020/01/31 05:39:02.1	91.310	0.520	-1.420	0.860
2020/01/31 05:39:02.2	91.300	0.550	-1.470	0.870
2020/01/31 05:39:02.3	91.290	0.590	-1.500	0.870
2020/01/31 05:39:02.4	91.290	0.610	-1.510	0.870
2020/01/31 05:39:02.5	91.280	0.630	-1.510	0.870
2020/01/31 05:39:02.6	91.270	0.650	-1.500	0.870
2020/01/31 05:39:02.7	91.270	0.660	-1.470	0.870
2020/01/31 05:39:02.8	91.260	0.660	-1.440	0.870
2020/01/31 05:39:02.9	91.260	0.660	-1.380	0.870
2020/01/31 05:39:03.0	91.250	0.660	-1.320	0.870
2020/01/31 05:39:03.1	91.250	0.640	-1.240	0.870
2020/01/31 05:39:03.2	91.240	0.620	-1.160	0.870
2020/01/31 05:39:03.3	91.240	0.600	-1.060	0.870
2020/01/31 05:39:03.4	91.240	0.570	-0.960	0.870
2020/01/31 05:39:03.5	91.240	0.530	-0.840	0.870
2020/01/31 05:39:03.6	91.240	0.490	-0.730	0.870
2020/01/31 05:39:03.7	91.240	0.450	-0.600	0.870
2020/01/31 05:39:03.8	91.250	0.400	-0.480	0.880
2020/01/31 05:39:03.9	91.250	0.350	-0.350	0.880
2020/01/31 05:39:04.0	91.260	0.290	-0.220	0.880
2020/01/31 05:39:04.1	91.260	0.240	-0.090	0.890
2020/01/31 05:39:04.2	91.270	0.180	0.040	0.900
2020/01/31 05:39:04.3	91.270	0.120	0.170	0.910
2020/01/31 05:39:04.4	91.280	0.060	0.290	0.920
2020/01/31 05:39:04.5	91.280	-0.010	0.400	0.930
2020/01/31 05:39:04.6	91.270	-0.070	0.510	0.940
2020/01/31 05:39:04.7	91.270	-0.130	0.610	0.950
2020/01/31 05:39:04.8	91.270	-0.190	0.710	0.960
2020/01/31 05:39:04.9	91.260	-0.250	0.790	0.970
2020/01/31 05:39:05.0	91.250	-0.300	0.870	0.980
2020/01/31 05:39:05.1	91.240	-0.360	0.940	0.990
2020/01/31 05:39:05.2	91.240	-0.410	0.990	1.000
2020/01/31 05:39:05.3	91.230	-0.460	1.030	1.010
2020/01/31 05:39:05.4	91.220	-0.500	1.070	1.010
2020/01/31 05:39:05.5	91.200	-0.550	1.090	1.010
2020/01/31 05:39:05.6	91.190	-0.580	1.100	1.000
2020/01/31 05:39:05.7	91.170	-0.620	1.090	1.000
2020/01/31 05:39:05.8	91.160	-0.650	1.080	0.990
2020/01/31 05:39:05.9	91.150	-0.670	1.050	0.970
2020/01/31 05:39:06.0	91.130	-0.700	1.020	0.950
2020/01/31 05:39:06.1	91.120	-0.710	0.970	0.930
2020/01/31 05:39:06.2	91.110	-0.730	0.920	0.900
2020/01/31 05:39:06.3	91.100	-0.740	0.850	0.870
2020/01/31 05:39:06.4	91.090	-0.740	0.780	0.840
2020/01/31 05:39:06.5	91.090	-0.740	0.690	0.800
2020/01/31 05:39:06.6	91.090	-0.740	0.600	0.770
2020/01/31 05:39:06.7	91.080	-0.730	0.510	0.730
2020/01/31 05:39:06.8	91.080	-0.710	0.410	0.690
2020/01/31 05:39:06.9	91.090	-0.700	0.300	0.660
2020/01/31 05:39:07.0	91.090	-0.670	0.190	0.620
2020/01/31 05:39:07.1	91.100	-0.650	0.080	0.590
2020/01/31 05:39:07.2	91.110	-0.620	-0.030	0.560
2020/01/31 05:39:07.3	91.120	-0.590	-0.150	0.530
2020/01/31 05:39:07.4	91.130	-0.550	-0.260	0.500
2020/01/31 05:39:07.5	91.150	-0.520	-0.370	0.480
2020/01/31 05:39:07.6	91.160	-0.480	-0.470	0.450
2020/01/31 05:39:07.7	91.180	-0.440	-0.570	0.430
2020/01/31 05:39:07.8	91.200	-0.400	-0.670	0.410
2020/01/31 05:39:07.9	91.210	-0.350	-0.760	0.400
2020/01/31 05:39:08.0	91.230	-0.310	-0.840	0.390
2020/01/31 05:39:08.1	91.250	-0.260	-0.910	0.380
2020/01/31 05:39:08.2	91.270	-0.220	-0.970	0.370
2020/01/31 05:39:08.3	91.290	-0.180	-1.030	0.360
2020/01/31 05:39:08.4	91.310	-0.130	-1.080	0.360
2020/01/31 05:39:08.5	91.340	-0.090	-1.110	0.360
2020/01/31 05:39:08.6	91.360	-0.050	-1.140	0.360
2020/01/31 05:39:08.7	91.380	-0.010	-1.150	0.360
2020/01/31 05:39:08.8	91.400	0.020	-1.160	0.370
2020/01/31 05:39:08.9	91.420	0.060	-1.150	0.380
2020/01/31 05:39:09.0	91.440	0.090	-1.140	0.380
2020/01/31 05:39:09.1	91.460	0.120	-1.110	0.390
2020/01/31 05:39:09.2	91.470	0.140	-1.080	0.400
2020/01/31 05:39:09.3	91.490	0.170	-1.040	0.420
2020/01/31 05:39:09.4	91.510	0.190	-0.990	0.430
2020/01/31 05:39:09.5	91.520	0.200	-0.930	0.450
2020/01/31 05:39:09.6	91.540	0.220	-0.870	0.470
2020/01/31 05:39:09.7	91.550	0.230	-0.800	0.490
2020/01/31 05:39:09.8	91.560	0.230	-0.730	0.510
2020/01/31 05:39:09.9	91.570	0.240	-0.650	0.530
2020/01/31 05:39:10.0	91.580	0.240	-0.570	0.550
2020/01/31 05:39:10.1	91.590	0.240	-0.490	0.580
2020/01/31 05:39:10.2	91.580	0.240	-0.410	0.610
2020/01/31 05:39:10.3	91.590	0.240	-0.330	0.630
2020/01/31 05:39:10.4	91.590	0.230	-0.260	0.660
2020/01/31 05:39:10.5	91.590	0.220	-0.180	0.690
2020/01/31 05:39:10.6	91.590	0.210	-0.110	0.720
2020/01/31 05:39:10.7	91.590	0.210	-0.050	0.750
2020/01/31 05:39:10.8	91.590	0.200	0.010	0.780
2020/01/31 05:39:10.9	91.590	0.190	0.060	0.810
2020/01/31 05:39:11.0	91.590	0.180	0.100	0.840
2020/01/31 05:39:11.1	91.590	0.170	0.140	0.870
2020/01/31 05:39:11.2	91.590	0.170	0.170	0.900
2020/01/31 05:39:11.3	91.590	0.160	0.190	0.930
2020/01/31 05:39:11.4	91.580	0.160	0.200	0.960
2020/01/31 05:39:11.5	91.580	0.170	0.200	0.990
2020/01/31 05:39:11.6	91.580	0.170	0.190	1.020
2020/01/31 05:39:11.7	91.570	0.180	0.170	1.040
2020/01/31 05:39:11.8	91.570	0.190	0.150	1.060
2020/01/31 05:39:11.9	91.570	0.200	0.110	1.080
2020/01/31 05:39:12.0	91.560	0.220	0.070	1.090
2020/01/31 05:39:12.1	91.560	0.240	0.020	1.100
2020/01/31 05:39:12.2	91.550	0.270	-0.040	1.110
2020/01/31 05:39:12.3	91.550	0.290	-0.100	1.110
2020/01/31 05:39:12.4	91.550	0.320	-0.160	1.110
2020/01/31 05:39:12.5	91.550	0.360	-0.230	1.100
2020/01/31 05:39:12.6	91.550	0.390	-0.300	1.090
2020/01/31 05:39:12.7	91.550	0.420	-0.370	1.080
2020/01/31 05:39:12.8	91.550	0.460	-0.430	1.070
2020/01/31 05:39:12.9	91.550	0.500	-0.500	1.050
2020/01/31 05:39:13.0	91.540	0.530	-0.560	1.030
2020/01/31 05:39:13.1	91.540	0.570	-0.610	1.020
2020/01/31 05:39:13.2	91.530	0.600	-0.670	1.000
2020/01/31 05:39:13.3	91.520	0.630	-0.710	0.980
2020/01/31 05:39:13.4	91.510	0.660	-0.750	0.970
2020/01/31 05:39:13.5	91.490	0.690	-0.770	0.960
2020/01/31 05:39:13.6	91.480	0.710	-0.790	0.950
2020/01/31 05:39:13.7	91.460	0.730	-0.800	0.940
2020/01/31 05:39:13.8	91.440	0.740	-0.800	0.940
2020/01/31 05:39:13.9	91.420	0.750	-0.790	0.930
2020/01/31 05:39:14.0	91.400	0.750	-0.760	0.930
2020/01/31 05:39:14.1	91.380	0.750	-0.730	0.930
2020/01/31 05:39:14.2	91.360	0.740	-0.690	0.920
2020/01/31 05:39:14.3	91.340	0.720	-0.640	0.920
2020/01/31 05:39:14.4	91.320	0.700	-0.580	0.930
2020/01/31 05:39:14.5	91.300	0.680	-0.510	0.930
2020/01/31 05:39:14.6	91.280	0.640	-0.430	0.930
2020/01/31 05:39:14.7	91.260	0.600	-0.350	0.930
2020/01/31 05:39:14.8	91.250	0.560	-0.260	0.930
2020/01/31 05:39:14.9	91.240	0.510	-0.170	0.930
2020/01/31 05:39:15.0	91.230	0.450	-0.070	0.930
2020/01/31 05:39:15.1	91.220	0.390	0.020	0.930
2020/01/31 05:39:15.2	91.220	0.330	0.130	0.920
2020/01/31 05:39:15.3	91.220	0.260	0.230	0.920
2020/01/31 05:39:15.4	91.220	0.190	0.320	0.910
2020/01/31 05:39:15.5	91.220	0.120	0.420	0.900
2020/01/31 05:39:15.6	91.230	0.050	0.510	0.890
2020/01/31 05:39:15.7	91.240	-0.030	0.590	0.880
2020/01/31 05:39:15.8	91.250	-0.100	0.670	0.870
2020/01/31 05:39:15.9	91.260	-0.180	0.740	0.850
2020/01/31 05:39:16.0	91.280	-0.250	0.810	0.830
2020/01/31 05:39:16.1	91.300	-0.320	0.860	0.820
2020/01/31 05:39:16.2	91.310	-0.390	0.910	0.800
2020/01/31 05:39:16.3	91.330	-0.450	0.950	0.780
2020/01/31 05:39:16.4	91.350	-0.510	0.970	0.760
2020/01/31 05:39:16.5	91.370	-0.570	0.980	0.740
2020/01/31 05:39:16.6	91.390	-0.620	0.980	0.720
2020/01/31 05:39:16.7	91.410	-0.660	0.970	0.710
2020/01/31 05:39:16.8	91.430	-0.700	0.950	0.690
2020/01/31 05:39:16.9	91.450	-0.730	0.910	0.680
2020/01/31 05:39:17.0	91.470	-0.760	0.860	0.660
2020/01/31 05:39:17.1	91.490	-0.780	0.800	0.650
2020/01/31 05:39:17.2	91.500	-0.790	0.730	0.640
2020/01/31 05:39:17.3	91.520	-0.800	0.650	0.630
2020/01/31 05:39:17.4	91.540	-0.790	0.560	0.630
2020/01/31 05:39:17.5	91.550	-0.790	0.460	0.620
2020/01/31 05:39:17.6	91.570	-0.770	0.350	0.620
2020/01/31 05:39:17.7	91.580	-0.750	0.240	0.620
2020/01/31 05:39:17.8	91.590	-0.720	0.120	0.630
2020/01/31 05:39:17.9	91.600	-0.690	-0.000	0.630
2020/01/31 05:39:18.0	91.610	-0.650	-0.130	0.640
2020/01/31 05:39:18.1	91.620	-0.610	-0.250	0.650
2020/01/31 05:39:18.2	91.620	-0.570	-0.380	0.670
2020/01/31 05:39:18.3	91.630	-0.520	-0.510	0.680
2020/01/31 05:39:18.4	91.630	-0.460	-0.630	0.700
2020/01/31 05:39:18.5	91.630	-0.410	-0.750	0.720
2020/01/31 05:39:18.6	91.630	-0.350	-0.860	0.740
2020/01/31 05:39:18.7	91.630	-0.300	-0.970	0.770
2020/01/31 05:39:18.8	91.630	-0.240	-1.070	0.800
2020/01/31 05:39:18.9	91.630	-0.180	-1.150	0.820
2020/01/31 05:39:19.0	91.630	-0.120	-1.230	0.850
2020/01/31 05:39:19.1	91.620	-0.070	-1.300	0.880
2020/01/31 05:39:19.2	91.630	-0.020	-1.360	0.910
2020/01/31 05:39:19.3	91.620	0.030	-1.400	0.940
2020/01/31 05:39:19.4	91.620	0.080	-1.430	0.970
2020/01/31 05:39:19.5	91.620	0.120	-1.450	1.000
2020/01/31 05:39:19.6	91.610	0.160	-1.450	1.030
2020/01/31 05:39:19.7	91.610	0.190	-1.440	1.060
2020/01/31 05:39:19.8	91.610	0.220	-1.420	1.090
2020/01/31 05:39:19.9	91.600	0.240	-1.380	1.110
2020/01/31 05:39:20.0	91.600	0.260	-1.340	1.130
2020/01/31 05:39:20.1	91.590	0.270	-1.280	1.160
2020/01/31 05:39:20.2	91.590	0.280	-1.210	1.180
2020/01/31 05:39:20.3	91.580	0.290	-1.130	1.200
2020/01/31 05:39:20.4	91.580	0.290	-1.040	1.210
2020/01/31 05:39:20.5	91.570	0.280	-0.950	1.230
2020/01/31 05:39:20.6	91.570	0.270	-0.840	1.240
2020/01/31 05:39:20.7	91.560	0.260	-0.740	1.250
2020/01/31 05:39:20.8	91.560	0.240	-0.630	1.260
2020/01/31 05:39:20.9	91.550	0.220	-0.520	1.270
2020/01/31 05:39:21.0	91.550	0.200	-0.400	1.270
2020/01/31 05:39:21.1	91.540	0.180	-0.290	1.270
2020/01/31 05:39:21.2	91.550	0.150	-0.180	1.270
2020/01/31 05:39:21.3	91.540	0.120	-0.070	1.270
2020/01/31 05:39:21.4	91.530	0.100	0.030	1.260
2020/01/31 05:39:21.5	91.530	0.070	0.130	1.250
2020/01/31 05:39:21.6	91.520	0.040	0.220	1.240
2020/01/31 05:39:21.7	91.510	0.020	0.300	1.230
2020/01/31 05:39:21.8	91.510	-0.010	0.380	1.210
2020/01/31 05:39:21.9	91.500	-0.030	0.440	1.190
2020/01/31 05:39:22.0	91.490	-0.050	0.490	1.170
2020/01/31 05:39:22.1	91.480	-0.070	0.540	1.150
2020/01/31 05:39:22.2	91.470	-0.080	0.570	1.130
2020/01/31 05:39:22.3	91.460	-0.090	0.590	1.110
2020/01/31 05:39:22.4	91.450	-0.100	0.600	1.080
2020/01/31 05:39:22.5	91.440	-0.110	0.610	1.050
2020/01/31 05:39:22.6	91.430	-0.110	0.600	1.020
2020/01/31 05:39:22.7	91.420	-0.110	0.580	0.990
2020/01/31 05:39:22.8	91.410	-0.110	0.560	0.950
2020/01/31 05:39:22.9	91.400	-0.100	0.530	0.920
2020/01/31 05:39:23.0	91.400	-0.090	0.490	0.880
2020/01/31 05:39:23.1	91.390	-0.080	0.440	0.840
2020/01/31 05:39:23.2	91.400	-0.060	0.390	0.800
2020/01/31 05:39:23.3	91.400	-0.050	0.330	0.760
2020/01/31 05:39:23.4	91.400	-0.030	0.270	0.720
2020/01/31 05:39:23.5	91.400	-0.000	0.200	0.680
2020/01/31 05:39:23.6	91.400	0.020	0.130	0.640
2020/01/31 05:39:23.7	91.400	0.040	0.060	0.600
2020/01/31 05:39:23.8	91.410	0.070	-0.010	0.570
2020/01/31 05:39:23.9	91.410	0.090	-0.080	0.530
2020/01/31 05:39:24.0	91.410	0.120	-0.160	0.500
2020/01/31 05:39:24.1	91.420	0.140	-0.230	0.480
2020/01/31 05:39:24.2	91.410	0.160	-0.300	0.450
2020/01/31 05:39:24.3	91.410	0.190	-0.360	0.440
2020/01/31 05:39:24.4	91.410	0.210	-0.420	0.420
2020/01/31 05:39:24.5	91.410	0.230	-0.480	0.410
2020/01/31 05:39:24.6	91.400	0.240	-0.530	0.400
2020/01/31 05:39:24.7	91.400	0.250	-0.570	0.400
2020/01/31 05:39:24.8	91.390	0.260	-0.610	0.410
2020/01/31 05:39:24.9	91.370	0.270	-0.630	0.420
2020/01/31 05:39:25.0	91.360	0.270	-0.660	0.430
2020/01/31 05:39:25.1	91.340	0.270	-0.670	0.450
2020/01/31 05:39:25.2	91.330	0.270	-0.680	0.470
2020/01/31 05:39:25.3	91.310	0.260	-0.670	0.490
2020/01/31 05:39:25.4	91.290	0.250	-0.670	0.510
2020/01/31 05:39:25.5	91.270	0.230	-0.650	0.540
2020/01/31 05:39:25.6	91.250	0.210	-0.630	0.570
2020/01/31 05:39:25.7	91.230	0.190	-0.600	0.590
2020/01/31 05:39:25.8	91.210	0.170	-0.560	0.620
2020/01/31 05:39:25.9	91.190	0.140	-0.530	0.650
2020/01/31 05:39:26.0	91.170	0.110	-0.490	0.680
2020/01/31 05:39:26.1	91.160	0.070	-0.440	0.700
2020/01/31 05:39:26.2	91.140	0.040	-0.390	0.730
2020/01/31 05:39:26.3	91.120	0.010	-0.340	0.750
2020/01/31 05:39:26.4	91.110	-0.030	-0.300	0.780
2020/01/31 05:39:26.5	91.100	-0.070	-0.250	0.800
2020/01/31 05:39:26.6	91.090	-0.100	-0.200	0.810
2020/01/31 05:39:26.7	91.090	-0.140	-0.160	0.830
2020/01/31 05:39:26.8	91.090	-0.170	-0.110	0.840
2020/01/31 05:39:26.9	91.090	-0.200	-0.070	0.850
2020/01/31 05:39:27.0	91.090	-0.230	-0.040	0.860
2020/01/31 05:39:27.1	91.100	-0.260	-0.000	0.870
2020/01/31 05:39:27.2	91.100	-0.280	0.030	0.870
2020/01/31 05:39:27.3	91.110	-0.300	0.050	0.880
2020/01/31 05:39:27.4	91.120	-0.320	0.070	0.880
2020/01/31 05:39:27.5	91.140	-0.330	0.090	0.880
2020/01/31 05:39:27.6	91.150	-0.340	0.100	0.890
2020/01/31 05:39:27.7	91.170	-0.350	0.100	0.890
2020/01/31 05:39:27.8	91.180	-0.350	0.110	0.890
2020/01/31 05:39:27.9	91.200	-0.350	0.110	0.890
2020/01/31 05:39:28.0	91.210	-0.350	0.110	0.890
2020/01/31 05:39:28.1	91.230	-0.340	0.100	0.890
2020/01/31 05:39:28.2	91.240	-0.330	0.090	0.880
2020/01/31 05:39:28.3	91.260	-0.310	0.080	0.880
2020/01/31 05:39:28.4	91.270	-0.300	0.070	0.870
2020/01/31 05:39:28.5	91.290	-0.280	0.060	0.870
2020/01/31 05:39:28.6	91.300	-0.250	0.040	0.860
2020/01/31 05:39:28.7	91.310	-0.230	0.030	0.850
2020/01/31 05:39:28.8	91.330	-0.200	0.010	0.850
2020/01/31 05:39:28.9	91.340	-0.180	-0.010	0.840
2020/01/31 05:39:29.0	91.350	-0.150	-0.030	0.830
2020/01/31 05:39:29.1	91.360	-0.120	-0.050	0.820
2020/01/31 05:39:29.2	91.370	-0.090	-0.070	0.810
2020/01/31 05:39:29.3	91.380	-0.060	-0.100	0.800
2020/01/31 05:39:29.4	91.390	-0.030	-0.120	0.790
2020/01/31 05:39:29.5	91.400	0.000	-0.140	0.780
2020/01/31 05:39:29.6	91.400	0.040	-0.160	0.770
2020/01/31 05:39:29.7	91.400	0.070	-0.190	0.760
2020/01/31 05:39:29.8	91.400	0.100	-0.210	0.750
2020/01/31 05:39:29.9	91.400	0.130	-0.240	0.750
2020/01/31 05:39:30.0	91.400	0.160	-0.260	0.750
2020/01/31 05:39:30.1	91.400	0.180	-0.290	0.740
2020/01/31 05:39:30.2	91.390	0.210	-0.310	0.740
2020/01/31 05:39:30.3	91.380	0.240	-0.340	0.740
2020/01/31 05:39:30.4	91.370	0.260	-0.360	0.750
2020/01/31 05:39:30.5	91.360	0.280	-0.390	0.750
2020/01/31 05:39:30.6	91.350	0.310	-0.410	0.750
2020/01/31 05:39:30.7	91.340	0.330	-0.440	0.760
2020/01/31 05:39:30.8	91.320	0.340	-0.460	0.760
2020/01/31 05:39:30.9	91.310	0.360	-0.480	0.770
2020/01/31 05:39:31.0	91.290	0.370	-0.500	0.780
2020/01/31 05:39:31.1	91.280	0.380	-0.520	0.780
2020/01/31 05:39:31.2	91.260	0.390	-0.540	0.790
2020/01/31 05:39:31.3	91.240	0.400	-0.550	0.790
2020/01/31 05:39:31.4	91.230	0.410	-0.570	0.800
2020/01/31 05:39:31.5	91.210	0.410	-0.570	0.800
2020/01/31 05:39:31.6	91.200	0.410	-0.580	0.800
2020/01/31 05:39:31.7	91.180	0.410	-0.580	0.810
2020/01/31 05:39:31.8	91.170	0.410	-0.580	0.810
2020/01/31 05:39:31.9	91.160	0.410	-0.580	0.810
2020/01/31 05:39:32.0	91.150	0.400	-0.580	0.810
2020/01/31 05:39:32.1	91.140	0.400	-0.570	0.810
2020/01/31 05:39:32.2	91.140	0.390	-0.560	0.810
2020/01/31 05:39:32.3	91.130	0.380	-0.540	0.810
2020/01/31 05:39:32.4	91.130	0.370	-0.520	0.810
2020/01/31 05:39:32.5	91.120	0.350	-0.500	0.800
2020/01/31 05:39:32.6	91.120	0.340	-0.480	0.800
2020/01/31 05:39:32.7	91.110	0.320	-0.460	0.800
2020/01/31 05:39:32.8	91.110	0.310	-0.430	0.800
2020/01/31 05:39:32.9	91.110	0.290	-0.400	0.790
2020/01/31 05:39:33.0	91.110	0.280	-0.380	0.790
2020/01/31 05:39:33.1	91.110	0.260	-0.350	0.790
2020/01/31 05:39:33.2	91.100	0.240	-0.320	0.780
2020/01/31 05:39:33.3	91.100	0.220	-0.290	0.780
2020/01/31 05:39:33.4	91.100	0.210	-0.270	0.770
2020/01/31 05:39:33.5	91.100	0.190	-0.240	0.760
2020/01/31 05:39:33.6	91.100	0.180	-0.220	0.760
2020/01/31 05:39:33.7	91.110	0.160	-0.200	0.750
2020/01/31 05:39:33.8	91.110	0.140	-0.180	0.740
2020/01/31 05:39:33.9	91.120	0.130	-0.160	0.720
2020/01/31 05:39:34.0	91.120	0.120	-0.150	0.710
2020/01/31 05:39:34.1	91.130	0.100	-0.130	0.700
2020/01/31 05:39:34.2	91.140	0.090	-0.120	0.680
2020/01/31 05:39:34.3	91.150	0.080	-0.120	0.660
2020/01/31 05:39:34.4	91.160	0.070	-0.110	0.650
2020/01/31 05:39:34.5	91.170	0.050	-0.100	0.630
2020/01/31 05:39:34.6	91.190	0.040	-0.100	0.620
2020/01/31 05:39:34.7	91.200	0.030	-0.100	0.610
2020/01/31 05:39:34.8	91.220	0.020	-0.090	0.600
2020/01/31 05:39:34.9	91.230	0.010	-0.090	0.590
2020/01/31 05:39:35.0	91.240	0.000	-0.090	0.590
2020/01/31 05:39:35.1	91.260	-0.010	-0.090	0.590
2020/01/31 05:39:35.2	91.260	-0.020	-0.080	0.590
2020/01/31 05:39:35.3	91.270	-0.030	-0.080	0.600
2020/01/31 05:39:35.4	91.280	-0.050	-0.070	0.620
2020/01/31 05:39:35.5	91.280	-0.060	-0.070	0.640
2020/01/31 05:39:35.6	91.290	-0.080	-0.060	0.660
2020/01/31 05:39:35.7	91.290	-0.100	-0.050	0.690
2020/01/31 05:39:35.8	91.290	-0.120	-0.030	0.720
2020/01/31 05:39:35.9	91.290	-0.140	-0.020	0.750
2020/01/31 05:39:36.0	91.290	-0.160	-0.000	0.790
2020/01/31 05:39:36.1	91.280	-0.180	0.020	0.830
2020/01/31 05:39:36.2	91.280	-0.210	0.030	0.870
2020/01/31 05:39:36.3	91.280	-0.230	0.050	0.910
2020/01/31 05:39:36.4	91.270	-0.260	0.070	0.940
2020/01/31 05:39:36.5	91.260	-0.290	0.100	0.980
2020/01/31 05:39:36.6	91.250	-0.320	0.120	1.020
2020/01/31 05:39:36.7	91.240	-0.350	0.150	1.060
2020/01/31 05:39:36.8	91.230	-0.380	0.170	1.090
2020/01/31 05:39:36.9	91.220	-0.410	0.190	1.120
2020/01/31 05:39:37.0	91.210	-0.440	0.210	1.150
2020/01/31 05:39:37.1	91.200	-0.470	0.230	1.180
2020/01/31 05:39:37.2	91.200	-0.500	0.260	1.210
2020/01/31 05:39:37.3	91.190	-0.530	0.270	1.230
2020/01/31 05:39:37.4	91.180	-0.560	0.280	1.250
2020/01/31 05:39:37.5	91.170	-0.590	0.290	1.270
2020/01/31 05:39:37.6	91.160	-0.610	0.290	1.290
2020/01/31 05:39:37.7	91.150	-0.630	0.290	1.300
2020/01/31 05:39:37.8	91.140	-0.650	0.290	1.310
2020/01/31 05:39:37.9	91.140	-0.670	0.280	1.320
2020/01/31 05:39:38.0	91.130	-0.690	0.270	1.330
2020/01/31 05:39:38.1	91.120	-0.700	0.250	1.330
2020/01/31 05:39:38.2	91.120	-0.710	0.220	1.340
2020/01/31 05:39:38.3	91.120	-0.710	0.200	1.340
2020/01/31 05:39:38.4	91.120	-0.710	0.170	1.330
2020/01/31 05:39:38.5	91.110	-0.710	0.140	1.320
2020/01/31 05:39:38.6	91.110	-0.700	0.110	1.310
2020/01/31 05:39:38.7	91.110	-0.690	0.070	1.300
2020/01/31 05:39:38.8	91.110	-0.680	0.030	1.280
2020/01/31 05:39:38.9	91.110	-0.660	-0.020	1.270
2020/01/31 05:39:39.0	91.110	-0.630	-0.060	1.240
2020/01/31 05:39:39.1	91.110	-0.610	-0.110	1.220
2020/01/31 05:39:39.2	91.120	-0.580	-0.150	1.190
2020/01/31 05:39:39.3	91.120	-0.540	-0.200	1.170
2020/01/31 05:39:39.4	91.120	-0.500	-0.250	1.130
2020/01/31 05:39:39.5	91.130	-0.460	-0.290	1.100
2020/01/31 05:39:39.6	91.130	-0.420	-0.340	1.060
2020/01/31 05:39:39.7	91.140	-0.370	-0.390	1.030
2020/01/31 05:39:39.8	91.150	-0.320	-0.430	0.980
2020/01/31 05:39:39.9	91.150	-0.270	-0.480	0.940
2020/01/31 05:39:40.0	91.160	-0.220	-0.520	0.900
2020/01/31 05:39:40.1	91.170	-0.160	-0.560	0.850
2020/01/31 05:39:40.2	91.200	-0.110	-0.600	0.800
2020/01/31 05:39:40.3	91.210	-0.050	-0.630	0.760
2020/01/31 05:39:40.4	91.220	0.000	-0.660	0.720
2020/01/31 05:39:40.5	91.240	0.060	-0.680	0.670
2020/01/31 05:39:40.6	91.250	0.110	-0.700	0.640
2020/01/31 05:39:40.7	91.270	0.170	-0.710	0.600
2020/01/31 05:39:40.8	91.280	0.220	-0.720	0.570
2020/01/31 05:39:40.9	91.300	0.270	-0.730	0.550
2020/01/31 05:39:41.0	91.310	0.310	-0.730	0.530
2020/01/31 05:39:41.1	91.330	0.360	-0.730	0.510
2020/01/31 05:39:41.2	91.340	0.400	-0.720	0.500
2020/01/31 05:39:41.3	91.350	0.430	-0.710	0.490
2020/01/31 05:39:41.4	91.360	0.470	-0.700	0.480
2020/01/31 05:39:41.5	91.370	0.500	-0.690	0.480
2020/01/31 05:39:41.6	91.380	0.530	-0.680	0.490
2020/01/31 05:39:41.7	91.380	0.550	-0.660	0.490
2020/01/31 05:39:41.8	91.390	0.570	-0.650	0.500
2020/01/31 05:39:41.9	91.390	0.590	-0.630	0.520
2020/01/31 05:39:42.0	91.390	0.600	-0.610	0.530
2020/01/31 05:39:42.1	91.390	0.610	-0.600	0.540
2020/01/31 05:39:42.2	91.390	0.620	-0.580	0.560
2020/01/31 05:39:42.3	91.380	0.620	-0.560	0.570
2020/01/31 05:39:42.4	91.380	0.620	-0.550	0.590
2020/01/31 05:39:42.5	91.370	0.620	-0.540	0.600
2020/01/31 05:39:42.6	91.360	0.620	-0.520	0.610
2020/01/31 05:39:42.7	91.340	0.610	-0.510	0.630
2020/01/31 05:39:42.8	91.330	0.600	-0.500	0.640
2020/01/31 05:39:42.9	91.320	0.590	-0.480	0.640
2020/01/31 05:39:43.0	91.300	0.580	-0.470	0.650
2020/01/31 05:39:43.1	91.280	0.570	-0.460	0.660
2020/01/31 05:39:43.2	91.260	0.550	-0.450	0.670
2020/01/31 05:39:43.3	91.240	0.530	-0.440	0.670
2020/01/31 05:39:43.4	91.230	0.520	-0.430	0.680
2020/01/31 05:39:43.5	91.210	0.500	-0.410	0.680
2020/01/31 05:39:43.6	91.190	0.480	-0.400	0.690
2020/01/31 05:39:43.7	91.160	0.460	-0.380	0.690
2020/01/31 05:39:43.8	91.140	0.440	-0.370	0.700
2020/01/31 05:39:43.9	91.120	0.420	-0.350	0.710
2020/01/31 05:39:44.0	91.100	0.400	-0.340	0.720
2020/01/31 05:39:44.1	91.080	0.380	-0.320	0.720
2020/01/31 05:39:44.2	91.070	0.360	-0.300	0.730
2020/01/31 05:39:44.3	91.050	0.340	-0.290	0.740
2020/01/31 05:39:44.4	91.030	0.320	-0.270	0.760
2020/01/31 05:39:44.5	91.010	0.300	-0.250	0.770
2020/01/31 05:39:44.6	90.990	0.280	-0.240	0.780
2020/01/31 05:39:44.7	90.980	0.260	-0.220	0.790
2020/01/31 05:39:44.8	90.960	0.240	-0.200	0.810
2020/01/31 05:39:44.9	90.950	0.230	-0.190	0.820
2020/01/31 05:39:45.0	90.940	0.210	-0.170	0.830
2020/01/31 05:39:45.1	90.930	0.190	-0.150	0.840
2020/01/31 05:39:45.2	90.910	0.180	-0.140	0.840
2020/01/31 05:39:45.3	90.900	0.160	-0.130	0.850
2020/01/31 05:39:45.4	90.900	0.140	-0.110	0.850
2020/01/31 05:39:45.5	90.890	0.130	-0.100	0.850
2020/01/31 05:39:45.6	90.890	0.110	-0.090	0.850
2020/01/31 05:39:45.7	90.900	0.100	-0.080	0.850
2020/01/31 05:39:45.8	90.900	0.080	-0.070	0.840
2020/01/31 05:39:45.9	90.910	0.070	-0.060	0.830
2020/01/31 05:39:46.0	90.920	0.050	-0.040	0.820
2020/01/31 05:39:46.1	90.930	0.030	-0.030	0.800
2020/01/31 05:39:46.2	90.950	0.020	-0.020	0.790
2020/01/31 05:39:46.3	90.960	-0.000	-0.010	0.770
2020/01/31 05:39:46.4	90.980	-0.020	0.000	0.750
2020/01/31 05:39:46.5	90.990	-0.040	0.020	0.730
2020/01/31 05:39:46.6	91.010	-0.060	0.030	0.710
2020/01/31 05:39:46.7	91.030	-0.080	0.040	0.700
2020/01/31 05:39:46.8	91.050	-0.100	0.060	0.680
2020/01/31 05:39:46.9	91.070	-0.120	0.070	0.660
2020/01/31 05:39:47.0	91.090	-0.140	0.090	0.650
2020/01/31 05:39:47.1	91.110	-0.160	0.110	0.640
2020/01/31 05:39:47.2	91.140	-0.180	0.120	0.640
2020/01/31 05:39:47.3	91.160	-0.200	0.140	0.630
2020/01/31 05:39:47.4	91.180	-0.220	0.150	0.630
2020/01/31 05:39:47.5	91.200	-0.240	0.170	0.630
2020/01/31 05:39:47.6	91.220	-0.260	0.180	0.630
2020/01/31 05:39:47.7	91.240	-0.280	0.190	0.630
2020/01/31 05:39:47.8	91.250	-0.300	0.200	0.640
2020/01/31 05:39:47.9	91.270	-0.310	0.200	0.650
2020/01/31 05:39:48.0	91.290	-0.330	0.210	0.660
2020/01/31 05:39:48.1	91.300	-0.340	0.210	0.680
2020/01/31 05:39:48.2	91.310	-0.350	0.200	0.700
2020/01/31 05:39:48.3	91.320	-0.360	0.190	0.710
2020/01/31 05:39:48.4	91.330	-0.360	0.180	0.730
2020/01/31 05:39:48.5	91.340	-0.370	0.170	0.750
2020/01/31 05:39:48.6	91.350	-0.370	0.150	0.770
2020/01/31 05:39:48.7	91.360	-0.370	0.130	0.790
2020/01/31 05:39:48.8	91.370	-0.360	0.110	0.810
2020/01/31 05:39:48.9	91.370	-0.360	0.080	0.830
2020/01/31 05:39:49.0	91.380	-0.350	0.050	0.850
2020/01/31 05:39:49.1	91.380	-0.340	0.020	0.870
2020/01/31 05:39:49.2	91.390	-0.330	-0.020	0.890
2020/01/31 05:39:49.3	91.400	-0.310	-0.050	0.910
2020/01/31 05:39:49.4	91.400	-0.300	-0.090	0.920
2020/01/31 05:39:49.5	91.400	-0.290	-0.120	0.940
2020/01/31 05:39:49.6	91.400	-0.270	-0.150	0.960
2020/01/31 05:39:49.7	91.400	-0.250	-0.190	0.970
2020/01/31 05:39:49.8	91.400	-0.240	-0.220	0.990
2020/01/31 05:39:49.9	91.400	-0.220	-0.250	1.000
2020/01/31 05:39:50.0	91.400	-0.210	-0.280	1.020
2020/01/31 05:39:50.1	91.400	-0.200	-0.310	1.030
2020/01/31 05:39:50.2	91.400	-0.180	-0.330	1.050
2020/01/31 05:39:50.3	91.400	-0.170	-0.350	1.060
2020/01/31 05:39:50.4	91.400	-0.160	-0.360	1.070
2020/01/31 05:39:50.5	91.400	-0.160	-0.380	1.080
2020/01/31 05:39:50.6	91.400	-0.150	-0.390	1.090
2020/01/31 05:39:50.7	91.400	-0.150	-0.390	1.100
2020/01/31 05:39:50.8	91.410	-0.150	-0.400	1.110
2020/01/31 05:39:50.9	91.410	-0.150	-0.400	1.120
2020/01/31 05:39:51.0	91.410	-0.150	-0.390	1.130
2020/01/31 05:39:51.1	91.410	-0.160	-0.380	1.140
2020/01/31 05:39:51.2	91.420	-0.160	-0.380	1.150
2020/01/31 05:39:51.3	91.420	-0.170	-0.370	1.150
2020/01/31 05:39:51.4	91.420	-0.180	-0.350	1.160
2020/01/31 05:39:51.5	91.430	-0.190	-0.330	1.160
2020/01/31 05:39:51.6	91.430	-0.200	-0.320	1.170
2020/01/31 05:39:51.7	91.440	-0.210	-0.300	1.170
2020/01/31 05:39:51.8	91.440	-0.230	-0.280	1.160
2020/01/31 05:39:51.9	91.450	-0.240	-0.260	1.160
2020/01/31 05:39:52.0	91.450	-0.250	-0.240	1.150
2020/01/31 05:39:52.1	91.460	-0.270	-0.210	1.140
2020/01/31 05:39:52.2	91.470	-0.280	-0.190	1.120
2020/01/31 05:39:52.3	91.480	-0.290	-0.170	1.110
2020/01/31 05:39:52.4	91.480	-0.300	-0.150	1.090
2020/01/31 05:39:52.5	91.490	-0.300	-0.140	1.070
2020/01/31 05:39:52.6	91.490	-0.310	-0.120	1.050
2020/01/31 05:39:52.7	91.490	-0.310	-0.110	1.020
2020/01/31 05:39:52.8	91.490	-0.310	-0.100	0.990
2020/01/31 05:39:52.9	91.500	-0.310	-0.100	0.970
2020/01/31 05:39:53.0	91.500	-0.300	-0.100	0.940
2020/01/31 05:39:53.1	91.490	-0.290	-0.100	0.910
2020/01/31 05:39:53.2	91.500	-0.280	-0.100	0.870
2020/01/31 05:39:53.3	91.500	-0.260	-0.110	0.840
2020/01/31 05:39:53.4	91.500	-0.240	-0.120	0.810
2020/01/31 05:39:53.5	91.490	-0.220	-0.130	0.780
2020/01/31 05:39:53.6	91.490	-0.190	-0.150	0.740
2020/01/31 05:39:53.7	91.480	-0.160	-0.170	0.710
2020/01/31 05:39:53.8	91.480	-0.130	-0.200	0.680
2020/01/31 05:39:53.9	91.470	-0.090	-0.220	0.640
2020/01/31 05:39:54.0	91.470	-0.060	-0.250	0.610
2020/01/31 05:39:54.1	91.460	-0.020	-0.280	0.590
2020/01/31 05:39:54.2	91.450	0.020	-0.320	0.560
2020/01/31 05:39:54.3	91.450	0.070	-0.360	0.540
2020/01/31 05:39:54.4	91.440	0.110	-0.390	0.520
2020/01/31 05:39:54.5	91.440	0.150	-0.430	0.500
2020/01/31 05:39:54.6	91.430	0.200	-0.470	0.490
2020/01/31 05:39:54.7	91.430	0.240	-0.510	0.480
2020/01/31 05:39:54.8	91.430	0.290	-0.550	0.470
2020/01/31 05:39:54.9	91.420	0.330	-0.600	0.470
2020/01/31 05:39:55.0	91.420	0.370	-0.640	0.470
2020/01/31 05:39:55.1	91.420	0.410	-0.680	0.470
2020/01/31 05:39:55.2	91.430	0.450	-0.720	0.480
2020/01/31 05:39:55.3	91.430	0.480	-0.750	0.490
2020/01/31 05:39:55.4	91.430	0.520	-0.790	0.490
2020/01/31 05:39:55.5	91.430	0.550	-0.820	0.500
2020/01/31 05:39:55.6	91.440	0.570	-0.850	0.510
2020/01/31 05:39:55.7	91.440	0.600	-0.870	0.530
2020/01/31 05:39:55.8	91.440	0.610	-0.880	0.540
2020/01/31 05:39:55.9	91.450	0.630	-0.890	0.550
2020/01/31 05:39:56.0	91.450	0.630	-0.890	0.560
2020/01/31 05:39:56.1	91.460	0.640	-0.890	0.570
2020/01/31 05:39:56.2	91.460	0.630	-0.880	0.570
2020/01/31 05:39:56.3	91.460	0.630	-0.850	0.580
2020/01/31 05:39:56.4	91.460	0.610	-0.820	0.590
2020/01/31 05:39:56.5	91.460	0.590	-0.780	0.590
2020/01/31 05:39:56.6	91.460	0.570	-0.730	0.600
2020/01/31 05:39:56.7	91.460	0.530	-0.670	0.610
2020/01/31 05:39:56.8	91.460	0.500	-0.600	0.620
2020/01/31 05:39:56.9	91.460	0.460	-0.530	0.620
2020/01/31 05:39:57.0	91.450	0.410	-0.440	0.630
2020/01/31 05:39:57.1	91.450	0.360	-0.350	0.640
2020/01/31 05:39:57.2	91.450	0.310	-0.250	0.650
2020/01/31 05:39:57.3	91.440	0.250	-0.150	0.670
2020/01/31 05:39:57.4	91.430	0.190	-0.050	0.680
2020/01/31 05:39:57.5	91.420	0.130	0.050	0.700
2020/01/31 05:39:57.6	91.410	0.060	0.160	0.720
2020/01/31 05:39:57.7	91.390	-0.000	0.260	0.740
2020/01/31 05:39:57.8	91.380	-0.070	0.360	0.760
2020/01/31 05:39:57.9	91.360	-0.130	0.460	0.790
2020/01/31 05:39:58.0	91.350	-0.200	0.550	0.810
2020/01/31 05:39:58.1	91.330	-0.260	0.640	0.840
2020/01/31 05:39:58.2	91.310	-0.320	0.720	0.870
2020/01/31 05:39:58.3	91.290	-0.370	0.790	0.900
2020/01/31 05:39:58.4	91.270	-0.420	0.850	0.930
2020/01/31 05:39:58.5	91.250	-0.470	0.890	0.960
2020/01/31 05:39:58.6	91.240	-0.510	0.930	0.990
2020/01/31 05:39:58.7	91.220	-0.540	0.950	1.010
2020/01/31 05:39:58.8	91.200	-0.570	0.960	1.040
2020/01/31 05:39:58.9	91.190	-0.590	0.950	1.060
2020/01/31 05:39:59.0	91.170	-0.610	0.930	1.070
2020/01/31 05:39:59.1	91.160	-0.620	0.900	1.080
2020/01/31 05:39:59.2	91.150	-0.610	0.850	1.090
2020/01/31 05:39:59.3	91.140	-0.610	0.790	1.100
2020/01/31 05:39:59.4	91.140	-0.590	0.710	1.090
2020/01/31 05:39:59.5	91.130	-0.570	0.620	1.090
2020/01/31 05:39:59.6	91.130	-0.540	0.520	1.080
2020/01/31 05:39:59.7	91.120	-0.500	0.420	1.060
2020/01/31 05:39:59.8	91.120	-0.450	0.300	1.050
2020/01/31 05:39:59.9	91.120	-0.410	0.180	1.030
2020/01/31 05:40:00.0	91.120	-0.350	0.050	1.000
2020/01/31 05:40:00.1	91.120	-0.290	-0.080	0.980
2020/01/31 05:40:00.2	91.120	-0.230	-0.220	0.950
2020/01/31 05:40:00.3	91.130	-0.170	-0.350	0.920
2020/01/31 05:40:00.4	91.130	-0.100	-0.480	0.890
2020/01/31 05:40:00.5	91.130	-0.030	-0.610	0.860
2020/01/31 05:40:00.6	91.140	0.030	-0.730	0.830
2020/01/31 05:40:00.7	91.140	0.100	-0.850	0.800
2020/01/31 05:40:00.8	91.150	0.160	-0.950	0.770
2020/01/31 05:40:00.9	91.160	0.220	-1.050	0.740
2020/01/31 05:40:01.0	91.170	0.280	-1.130	0.710
2020/01/31 05:40:01.1	91.180	0.330	-1.210	0.680
2020/01/31 05:40:01.2	91.190	0.380	-1.270	0.660
2020/01/31 05:40:01.3	91.200	0.420	-1.320	0.630
2020/01/31 05:40:01.4	91.210	0.460	-1.350	0.610
2020/01/31 05:40:01.5	91.230	0.490	-1.370	0.590
2020/01/31 05:40:01.6	91.240	0.520	-1.380	0.570
2020/01/31 05:40:01.7	91.250	0.540	-1.370	0.550
2020/01/31 05:40:01.8	91.270	0.550	-1.350	0.540
2020/01/31 05:40:01.9	91.280	0.560	-1.310	0.530
2020/01/31 05:40:02.0	91.300	0.550	-1.260	0.520
2020/01/31 05:40:02.1	91.310	0.550	-1.200	0.520
2020/01/31 05:40:02.2	91.320	0.530	-1.130	0.520
2020/01/31 05:40:02.3	91.340	0.510	-1.050	0.520
2020/01/31 05:40:02.4	91.350	0.480	-0.960	0.520
2020/01/31 05:40:02.5	91.370	0.450	-0.860	0.530
2020/01/31 05:40:02.6	91.380	0.420	-0.750	0.540
2020/01/31 05:40:02.7	91.390	0.380	-0.640	0.560
2020/01/31 05:40:02.8	91.400	0.330	-0.520	0.570
2020/01/31 05:40:02.9	91.410	0.280	-0.400	0.590
2020/01/31 05:40:03.0	91.420	0.230	-0.280	0.620
2020/01/31 05:40:03.1	91.430	0.180	-0.160	0.640
2020/01/31 05:40:03.2	91.430	0.130	-0.030	0.670
2020/01/31 05:40:03.3	91.440	0.080	0.080	0.700
2020/01/31 05:40:03.4	91.450	0.020	0.200	0.730
2020/01/31 05:40:03.5	91.450	-0.030	0.300	0.760
2020/01/31 05:40:03.6	91.460	-0.080	0.400	0.800
2020/01/31 05:40:03.7	91.460	-0.130	0.500	0.830
2020/01/31 05:40:03.8	91.470	-0.180	0.580	0.860
2020/01/31 05:40:03.9	91.470	-0.220	0.650	0.900
2020/01/31 05:40:04.0	91.470	-0.260	0.720	0.930
2020/01/31 05:40:04.1	91.470	-0.300	0.770	0.970
2020/01/31 05:40:04.2	91.470	-0.330	0.810	1.000
2020/01/31 05:40:04.3	91.470	-0.360	0.840	1.030
2020/01/31 05:40:04.4	91.470	-0.390	0.860	1.070
2020/01/31 05:40:04.5	91.470	-0.410	0.870	1.100
2020/01/31 05:40:04.6	91.470	-0.430	0.860	1.130
2020/01/31 05:40:04.7	91.470	-0.450	0.850	1.160
2020/01/31 05:40:04.8	91.460	-0.460	0.820	1.180
2020/01/31 05:40:04.9	91.460	-0.470	0.790	1.210
2020/01/31 05:40:05.0	91.450	-0.470	0.740	1.240
2020/01/31 05:40:05.1	91.450	-0.470	0.690	1.260
2020/01/31 05:40:05.2	91.450	-0.460	0.620	1.290
2020/01/31 05:40:05.3	91.440	-0.460	0.550	1.310
2020/01/31 05:40:05.4	91.430	-0.440	0.470	1.330
2020/01/31 05:40:05.5	91.420	-0.430	0.390	1.350
2020/01/31 05:40:05.6	91.400	-0.410	0.290	1.370
2020/01/31 05:40:05.7	91.390	-0.390	0.200	1.390
2020/01/31 05:40:05.8	91.370	-0.370	0.100	1.410
2020/01/31 05:40:05.9	91.360	-0.350	-0.000	1.420
2020/01/31 05:40:06.0	91.340	-0.320	-0.110	1.440
2020/01/31 05:40:06.1	91.320	-0.290	-0.210	1.450
2020/01/31 05:40:06.2	91.290	-0.270	-0.310	1.460
2020/01/31 05:40:06.3	91.270	-0.240	-0.410	1.470
2020/01/31 05:40:06.4	91.250	-0.210	-0.500	1.480
2020/01/31 05:40:06.5	91.220	-0.180	-0.590	1.480
2020/01/31 05:40:06.6	91.200	-0.160	-0.670	1.480
2020/01/31 05:40:06.7	91.170	-0.130	-0.740	1.480
2020/01/31 05:40:06.8	91.150	-0.110	-0.800	1.480
2020/01/31 05:40:06.9	91.120	-0.080	-0.850	1.470
2020/01/31 05:40:07.0	91.100	-0.060	-0.890	1.460
2020/01/31 05:40:07.1	91.080	-0.040	-0.920	1.450
2020/01/31 05:40:07.2	91.050	-0.030	-0.940	1.440
2020/01/31 05:40:07.3	91.030	-0.010	-0.950	1.420
2020/01/31 05:40:07.4	91.010	-0.000	-0.950	1.400
2020/01/31 05:40:07.5	90.990	0.010	-0.930	1.380
2020/01/31 05:40:07.6	90.970	0.010	-0.910	1.360
2020/01/31 05:40:07.7	90.960	0.020	-0.880	1.340
2020/01/31 05:40:07.8	90.940	0.020	-0.840	1.310
2020/01/31 05:40:07.9	90.930	0.020	-0.790	1.280
2020/01/31 05:40:08.0	90.920	0.020	-0.740	1.250
2020/01/31 05:40:08.1	90.910	0.020	-0.680	1.220
2020/01/31 05:40:08.2	90.910	0.010	-0.620	1.190
2020/01/31 05:40:08.3	90.910	0.010	-0.550	1.160
2020/01/31 05:40:08.4	90.910	0.010	-0.490	1.130
2020/01/31 05:40:08.5	90.920	0.000	-0.430	1.090
2020/01/31 05:40:08.6	90.920	-0.000	-0.370	1.050
2020/01/31 05:40:08.7	90.940	-0.010	-0.320	1.010
2020/01/31 05:40:08.8	90.950	-0.010	-0.270	0.970
2020/01/31 05:40:08.9	90.970	-0.010	-0.220	0.930
2020/01/31 05:40:09.0	90.990	-0.010	-0.190	0.890
2020/01/31 05:40:09.1	91.020	-0.010	-0.150	0.840
2020/01/31 05:40:09.2	91.050	-0.000	-0.130	0.790
2020/01/31 05:40:09.3	91.080	0.000	-0.110	0.740
2020/01/31 05:40:09.4	91.120	0.010	-0.110	0.690
2020/01/31 05:40:09.5	91.150	0.030	-0.110	0.640
2020/01/31 05:40:09.6	91.190	0.040	-0.110	0.600
2020/01/31 05:40:09.7	91.220	0.060	-0.120	0.550
2020/01/31 05:40:09.8	91.260	0.080	-0.140	0.500
2020/01/31 05:40:09.9	91.300	0.100	-0.160	0.460
2020/01/31 05:40:10.0	91.330	0.130	-0.190	0.420
2020/01/31 05:40:10.1	91.360	0.150	-0.220	0.380
2020/01/31 05:40:10.2	91.390	0.180	-0.250	0.350
2020/01/31 05:40:10.3	91.420	0.200	-0.280	0.320
2020/01/31 05:40:10.4	91.440	0.230	-0.310	0.290
2020/01/31 05:40:10.5	91.450	0.250	-0.330	0.280
2020/01/31 05:40:10.6	91.470	0.280	-0.360	0.260
2020/01/31 05:40:10.7	91.480	0.300	-0.370	0.250
2020/01/31 05:40:10.8	91.480	0.320	-0.390	0.240
2020/01/31 05:40:10.9	91.480	0.330	-0.400	0.240
2020/01/31 05:40:11.0	91.480	0.350	-0.400	0.240
2020/01/31 05:40:11.1	91.470	0.360	-0.390	0.250
2020/01/31 05:40:11.2	91.460	0.360	-0.380	0.260
2020/01/31 05:40:11.3	91.440	0.360	-0.360	0.270
2020/01/31 05:40:11.4	91.420	0.360	-0.330	0.280
2020/01/31 05:40:11.5	91.400	0.360	-0.300	0.290
2020/01/31 05:40:11.6	91.380	0.350	-0.260	0.310
2020/01/31 05:40:11.7	91.350	0.330	-0.210	0.330
2020/01/31 05:40:11.8	91.320	0.310	-0.170	0.350
2020/01/31 05:40:11.9	91.290	0.290	-0.110	0.370
2020/01/31 05:40:12.0	91.260	0.270	-0.050	0.400
2020/01/31 05:40:12.1	91.230	0.240	0.000	0.420
2020/01/31 05:40:12.2	91.200	0.210	0.070	0.440
2020/01/31 05:40:12.3	91.170	0.170	0.130	0.470
2020/01/31 05:40:12.4	91.140	0.140	0.190	0.490
2020/01/31 05:40:12.5	91.100	0.100	0.250	0.520
2020/01/31 05:40:12.6	91.070	0.060	0.300	0.540
2020/01/31 05:40:12.7	91.040	0.020	0.350	0.560
2020/01/31 05:40:12.8	91.010	-0.010	0.390	0.590
2020/01/31 05:40:12.9	90.980	-0.050	0.430	0.610
2020/01/31 05:40:13.0	90.950	-0.090	0.460	0.630
2020/01/31 05:40:13.1	90.930	-0.120	0.480	0.640
2020/01/31 05:40:13.2	90.910	-0.150	0.500	0.660
2020/01/31 05:40:13.3	90.880	-0.180	0.500	0.680
2020/01/31 05:40:13.4	90.860	-0.210	0.490	0.690
2020/01/31 05:40:13.5	90.850	-0.230	0.480	0.690
2020/01/31 05:40:13.6	90.830	-0.250	0.450	0.700
2020/01/31 05:40:13.7	90.820	-0.260	0.410	0.700
2020/01/31 05:40:13.8	90.820	-0.270	0.370	0.700
2020/01/31 05:40:13.9	90.810	-0.280	0.310	0.700
2020/01/31 05:40:14.0	90.810	-0.280	0.250	0.690
2020/01/31 05:40:14.1	90.810	-0.280	0.180	0.680
2020/01/31 05:40:14.2	90.830	-0.270	0.100	0.670
2020/01/31 05:40:14.3	90.830	-0.260	0.010	0.660
2020/01/31 05:40:14.4	90.850	-0.240	-0.080	0.650
2020/01/31 05:40:14.5	90.860	-0.220	-0.170	0.640
2020/01/31 05:40:14.6	90.880	-0.200	-0.270	0.620
2020/01/31 05:40:14.7	90.900	-0.180	-0.360	0.610
2020/01/31 05:40:14.8	90.920	-0.150	-0.460	0.600
2020/01/31 05:40:14.9	90.940	-0.120	-0.550	0.590
2020/01/31 05:40:15.0	90.960	-0.090	-0.650	0.580
2020/01/31 05:40:15.1	90.980	-0.060	-0.740	0.570
2020/01/31 05:40:15.2	91.000	-0.020	-0.820	0.570
2020/01/31 05:40:15.3	91.020	0.010	-0.900	0.570
2020/01/31 05:40:15.4	91.030	0.040	-0.970	0.570
2020/01/31 05:40:15.5	91.050	0.070	-1.040	0.570
2020/01/31 05:40:15.6	91.070	0.100	-1.090	0.580
2020/01/31 05:40:15.7	91.080	0.130	-1.140	0.590
2020/01/31 05:40:15.8	91.090	0.160	-1.180	0.600
2020/01/31 05:40:15.9	91.100	0.180	-1.200	0.620
2020/01/31 05:40:16.0	91.100	0.200	-1.220	0.630
2020/01/31 05:40:16.1	91.110	0.220	-1.230	0.650
2020/01/31 05:40:16.2	91.120	0.240	-1.230	0.680
2020/01/31 05:40:16.3	91.120	0.250	-1.220	0.700
2020/01/31 05:40:16.4	91.110	0.250	-1.190	0.730
2020/01/31 05:40:16.5	91.110	0.260	-1.160	0.760
2020/01/31 05:40:16.6	91.100	0.260	-1.120	0.790
2020/01/31 05:40:16.7	91.100	0.250	-1.070	0.820
2020/01/31 05:40:16.8	91.090	0.250	-1.010	0.860
2020/01/31 05:40:16.9	91.080	0.240	-0.940	0.900
2020/01/31 05:40:17.0	91.070	0.220	-0.870	0.940
2020/01/31 05:40:17.1	91.050	0.210	-0.790	0.980
2020/01/31 05:40:17.2	91.050	0.180	-0.700	1.020
2020/01/31 05:40:17.3	91.040	0.160	-0.610	1.070
2020/01/31 05:40:17.4	91.030	0.130	-0.520	1.110
2020/01/31 05:40:17.5	91.010	0.110	-0.420	1.150
2020/01/31 05:40:17.6	91.000	0.080	-0.330	1.200
2020/01/31 05:40:17.7	90.990	0.040	-0.230	1.240
2020/01/31 05:40:17.8	90.980	0.010	-0.130	1.280
2020/01/31 05:40:17.9	90.970	-0.030	-0.040	1.320
2020/01/31 05:40:18.0	90.970	-0.060	0.050	1.350
2020/01/31 05:40:18.1	90.960	-0.100	0.140	1.390
2020/01/31 05:40:18.2	90.950	-0.140	0.230	1.420
2020/01/31 05:40:18.3	90.940	-0.170	0.310	1.440
2020/01/31 05:40:18.4	90.940	-0.210	0.380	1.470
2020/01/31 05:40:18.5	90.940	-0.240	0.450	1.490
2020/01/31 05:40:18.6	90.950	-0.280	0.510	1.500
2020/01/31 05:40:18.7	90.950	-0.310	0.560	1.510
2020/01/31 05:40:18.8	90.950	-0.340	0.610	1.520
2020/01/31 05:40:18.9	90.960	-0.370	0.650	1.520
2020/01/31 05:40:19.0	90.970	-0.400	0.680	1.520
2020/01/31 05:40:19.1	90.970	-0.430	0.700	1.510
2020/01/31 05:40:19.2	90.980	-0.450	0.710	1.490
2020/01/31 05:40:19.3	90.990	-0.470	0.710	1.470
2020/01/31 05:40:19.4	91.000	-0.490	0.710	1.440
2020/01/31 05:40:19.5	91.010	-0.500	0.700	1.410
2020/01/31 05:40:19.6	91.020	-0.520	0.680	1.380
2020/01/31 05:40:19.7	91.030	-0.520	0.660	1.340
2020/01/31 05:40:19.8	91.050	-0.530	0.630	1.310
2020/01/31 05:40:19.9	91.060	-0.530	0.600	1.260
2020/01/31 05:40:20.0	91.070	-0.530	0.560	1.220
2020/01/31 05:40:20.1	91.080	-0.530	0.520	1.180
2020/01/31 05:40:20.2	91.090	-0.520	0.470	1.130
2020/01/31 05:40:20.3	91.100	-0.510	0.420	1.090
2020/01/31 05:40:20.4	91.110	-0.500	0.370	1.050
2020/01/31 05:40:20.5	91.120	-0.490	0.330	1.010
2020/01/31 05:40:20.6	91.120	-0.470	0.280	0.960
2020/01/31 05:40:20.7	91.130	-0.450	0.230	0.930
2020/01/31 05:40:20.8	91.130	-0.430	0.190	0.890
2020/01/31 05:40:20.9	91.130	-0.400	0.140	0.850
2020/01/31 05:40:21.0	91.130	-0.380	0.100	0.820
2020/01/31 05:40:21.1	91.140	-0.350	0.060	0.780
2020/01/31 05:40:21.2	91.140	-0.320	0.020	0.750
2020/01/31 05:40:21.3	91.140	-0.290	-0.010	0.710
2020/01/31 05:40:21.4	91.140	-0.260	-0.050	0.680
2020/01/31 05:40:21.5	91.140	-0.230	-0.080	0.650
2020/01/31 05:40:21.6	91.130	-0.190	-0.110	0.620
2020/01/31 05:40:21.7	91.130	-0.160	-0.150	0.590
2020/01/31 05:40:21.8	91.130	-0.120	-0.180	0.560
2020/01/31 05:40:21.9	91.130	-0.080	-0.210	0.530
2020/01/31 05:40:22.0	91.120	-0.050	-0.240	0.500
2020/01/31 05:40:22.1	91.120	-0.010	-0.270	0.480
2020/01/31 05:40:22.2	91.120	0.030	-0.310	0.450
2020/01/31 05:40:22.3	91.130	0.070	-0.340	0.420
2020/01/31 05:40:22.4	91.130	0.110	-0.380	0.390
2020/01/31 05:40:22.5	91.130	0.160	-0.410	0.370
2020/01/31 05:40:22.6	91.140	0.200	-0.460	0.340
2020/01/31 05:40:22.7	91.150	0.240	-0.500	0.320
2020/01/31 05:40:22.8	91.160	0.280	-0.540	0.300
2020/01/31 05:40:22.9	91.170	0.330	-0.590	0.270
2020/01/31 05:40:23.0	91.180	0.370	-0.640	0.250
2020/01/31 05:40:23.1	91.200	0.420	-0.690	0.230
2020/01/31 05:40:23.2	91.220	0.460	-0.740	0.220
2020/01/31 05:40:23.3	91.240	0.510	-0.800	0.200
2020/01/31 05:40:23.4	91.260	0.550	-0.850	0.190
2020/01/31 05:40:23.5	91.270	0.590	-0.900	0.180
2020/01/31 05:40:23.6	91.290	0.630	-0.960	0.180
2020/01/31 05:40:23.7	91.300	0.670	-1.000	0.170
2020/01/31 05:40:23.8	91.320	0.710	-1.050	0.170
2020/01/31 05:40:23.9	91.330	0.740	-1.090	0.180
2020/01/31 05:40:24.0	91.340	0.770	-1.130	0.180
2020/01/31 05:40:24.1	91.350	0.800	-1.160	0.190
2020/01/31 05:40:24.2	91.350	0.820	-1.180	0.210
2020/01/31 05:40:24.3	91.360	0.840	-1.200	0.220
2020/01/31 05:40:24.4	91.360	0.850	-1.210	0.240
2020/01/31 05:40:24.5	91.370	0.860	-1.210	0.250
2020/01/31 05:40:24.6	91.370	0.860	-1.200	0.270
2020/01/31 05:40:24.7	91.370	0.860	-1.180	0.290
2020/01/31 05:40:24.8	91.370	0.850	-1.150	0.310
2020/01/31 05:40:24.9	91.370	0.840	-1.120	0.320
2020/01/31 05:40:25.0	91.370	0.820	-1.070	0.340
2020/01/31 05:40:25.1	91.370	0.790	-1.020	0.360
2020/01/31 05:40:25.2	91.360	0.760	-0.950	0.380
2020/01/31 05:40:25.3	91.360	0.720	-0.880	0.400
2020/01/31 05:40:25.4	91.350	0.680	-0.800	0.420
2020/01/31 05:40:25.5	91.350	0.630	-0.710	0.440
2020/01/31 05:40:25.6	91.340	0.580	-0.620	0.460
2020/01/31 05:40:25.7	91.330	0.520	-0.520	0.470
2020/01/31 05:40:25.8	91.320	0.460	-0.420	0.490
2020/01/31 05:40:25.9	91.310	0.400	-0.310	0.510
2020/01/31 05:40:26.0	91.310	0.330	-0.200	0.530
2020/01/31 05:40:26.1	91.300	0.260	-0.090	0.560
2020/01/31 05:40:26.2	91.290	0.190	0.030	0.580
2020/01/31 05:40:26.3	91.290	0.120	0.140	0.600
2020/01/31 05:40:26.4	91.280	0.050	0.250	0.630
2020/01/31 05:40:26.5	91.270	-0.020	0.360	0.650
2020/01/31 05:40:26.6	91.260	-0.100	0.470	0.680
2020/01/31 05:40:26.7	91.250	-0.170	0.570	0.700
2020/01/31 05:40:26.8	91.250	-0.240	0.660	0.730
2020/01/31 05:40:26.9	91.240	-0.300	0.750	0.760
2020/01/31 05:40:27.0	91.240	-0.370	0.830	0.790
2020/01/31 05:40:27.1	91.230	-0.430	0.910	0.810
2020/01/31 05:40:27.2	91.230	-0.490	0.970	0.840
2020/01/31 05:40:27.3	91.230	-0.540	1.020	0.860
2020/01/31 05:40:27.4	91.220	-0.590	1.060	0.890
2020/01/31 05:40:27.5	91.230	-0.630	1.090	0.910
2020/01/31 05:40:27.6	91.230	-0.670	1.100	0.930
2020/01/31 05:40:27.7	91.230	-0.700	1.110	0.960
2020/01/31 05:40:27.8	91.230	-0.720	1.100	0.970
2020/01/31 05:40:27.9	91.240	-0.740	1.070	0.990
2020/01/31 05:40:28.0	91.250	-0.760	1.030	1.010
2020/01/31 05:40:28.1	91.250	-0.760	0.980	1.020
2020/01/31 05:40:28.2	91.270	-0.760	0.920	1.030
2020/01/31 05:40:28.3	91.280	-0.760	0.840	1.040
2020/01/31 05:40:28.4	91.290	-0.750	0.750	1.050
2020/01/31 05:40:28.5	91.300	-0.730	0.660	1.050
2020/01/31 05:40:28.6	91.310	-0.700	0.550	1.060
2020/01/31 05:40:28.7	91.320	-0.670	0.430	1.060
2020/01/31 05:40:28.8	91.330	-0.640	0.300	1.050
2020/01/31 05:40:28.9	91.350	-0.600	0.170	1.050
2020/01/31 05:40:29.0	91.360	-0.560	0.030	1.040
2020/01/31 05:40:29.1	91.380	-0.510	-0.110	1.030
2020/01/31 05:40:29.2	91.390	-0.460	-0.250	1.020
2020/01/31 05:40:29.3	91.410	-0.410	-0.390	1.010
2020/01/31 05:40:29.4	91.430	-0.350	-0.540	0.990
2020/01/31 05:40:29.5	91.450	-0.300	-0.670	0.970
2020/01/31 05:40:29.6	91.470	-0.240	-0.810	0.950
2020/01/31 05:40:29.7	91.490	-0.190	-0.940	0.930
2020/01/31 05:40:29.8	91.520	-0.130	-1.060	0.910
2020/01/31 05:40:29.9	91.540	-0.080	-1.170	0.890
2020/01/31 05:40:30.0	91.560	-0.030	-1.270	0.880
2020/01/31 05:40:30.1	91.590	0.020	-1.360	0.860
2020/01/31 05:40:30.2	91.590	0.070	-1.440	0.840
2020/01/31 05:40:30.3	91.610	0.110	-1.510	0.830
2020/01/31 05:40:30.4	91.640	0.150	-1.560	0.820
2020/01/31 05:40:30.5	91.660	0.190	-1.590	0.810
2020/01/31 05:40:30.6	91.680	0.220	-1.600	0.800
2020/01/31 05:40:30.7	91.700	0.250	-1.600	0.800
2020/01/31 05:40:30.8	91.710	0.270	-1.580	0.790
2020/01/31 05:40:30.9	91.730	0.280	-1.550	0.790
2020/01/31 05:40:31.0	91.740	0.290	-1.490	0.790
2020/01/31 05:40:31.1	91.750	0.290	-1.420	0.790
2020/01/31 05:40:31.2	91.750	0.290	-1.340	0.800
2020/01/31 05:40:31.3	91.760	0.280	-1.240	0.800
2020/01/31 05:40:31.4	91.760	0.260	-1.130	0.810
2020/01/31 05:40:31.5	91.760	0.240	-1.000	0.810
2020/01/31 05:40:31.6	91.760	0.220	-0.870	0.820
2020/01/31 05:40:31.7	91.760	0.190	-0.730	0.820
2020/01/31 05:40:31.8	91.760	0.150	-0.580	0.830
2020/01/31 05:40:31.9	91.750	0.110	-0.420	0.830
2020/01/31 05:40:32.0	91.740	0.070	-0.260	0.840
2020/01/31 05:40:32.1	91.730	0.030	-0.100	0.840
2020/01/31 05:40:32.2	91.730	-0.020	0.060	0.840
2020/01/31 05:40:32.3	91.720	-0.070	0.220	0.840
2020/01/31 05:40:32.4	91.700	-0.130	0.380	0.850
2020/01/31 05:40:32.5	91.680	-0.180	0.530	0.840
2020/01/31 05:40:32.6	91.670	-0.230	0.670	0.840
2020/01/31 05:40:32.7	91.650	-0.290	0.810	0.830
2020/01/31 05:40:32.8	91.640	-0.340	0.930	0.830
2020/01/31 05:40:32.9	91.620	-0.390	1.050	0.810
2020/01/31 05:40:33.0	91.610	-0.430	1.140	0.800
2020/01/31 05:40:33.1	91.600	-0.480	1.230	0.780
2020/01/31 05:40:33.2	91.590	-0.520	1.300	0.750
2020/01/31 05:40:33.3	91.580	-0.550	1.350	0.730
2020/01/31 05:40:33.4	91.580	-0.580	1.390	0.700
2020/01/31 05:40:33.5	91.570	-0.600	1.410	0.670
2020/01/31 05:40:33.6	91.570	-0.620	1.410	0.630
2020/01/31 05:40:33.7	91.570	-0.630	1.400	0.600
2020/01/31 05:40:33.8	91.570	-0.630	1.360	0.560
2020/01/31 05:40:33.9	91.570	-0.620	1.310	0.530
2020/01/31 05:40:34.0	91.580	-0.610	1.240	0.490
2020/01/31 05:40:34.1	91.580	-0.590	1.160	0.450
2020/01/31 05:40:34.2	91.580	-0.560	1.060	0.410
2020/01/31 05:40:34.3	91.590	-0.530	0.940	0.380
2020/01/31 05:40:34.4	91.590	-0.490	0.820	0.350
2020/01/31 05:40:34.5	91.600	-0.440	0.680	0.320
2020/01/31 05:40:34.6	91.600	-0.380	0.530	0.300
2020/01/31 05:40:34.7	91.610	-0.320	0.370	0.270
2020/01/31 05:40:34.8	91.610	-0.260	0.210	0.250
2020/01/31 05:40:34.9	91.620	-0.190	0.040	0.230
2020/01/31 05:40:35.0	91.620	-0.120	-0.130	0.200
2020/01/31 05:40:35.1	91.620	-0.040	-0.300	0.190
2020/01/31 05:40:35.2	91.600	0.030	-0.480	0.170
2020/01/31 05:40:35.3	91.600	0.110	-0.640	0.150
2020/01/31 05:40:35.4	91.600	0.190	-0.810	0.140
2020/01/31 05:40:35.5	91.600	0.270	-0.970	0.120
2020/01/31 05:40:35.6	91.600	0.340	-1.120	0.110
2020/01/31 05:40:35.7	91.600	0.420	-1.260	0.090
2020/01/31 05:40:35.8	91.600	0.490	-1.390	0.080
2020/01/31 05:40:35.9	91.600	0.550	-1.510	0.070
2020/01/31 05:40:36.0	91.600	0.610	-1.620	0.060
2020/01/31 05:40:36.1	91.600	0.670	-1.710	0.050
2020/01/31 05:40:36.2	91.590	0.720	-1.790	0.040
2020/01/31 05:40:36.3	91.590	0.770	-1.850	0.040
2020/01/31 05:40:36.4	91.590	0.810	-1.890	0.040
2020/01/31 05:40:36.5	91.590	0.840	-1.920	0.050
2020/01/31 05:40:36.6	91.590	0.860	-1.920	0.060
2020/01/31 05:40:36.7	91.590	0.880	-1.910	0.080
2020/01/31 05:40:36.8	91.590	0.890	-1.890	0.100
2020/01/31 05:40:36.9	91.580	0.900	-1.840	0.130
2020/01/31 05:40:37.0	91.580	0.900	-1.780	0.170
2020/01/31 05:40:37.1	91.590	0.890	-1.710	0.210
2020/01/31 05:40:37.2	91.590	0.870	-1.610	0.250
2020/01/31 05:40:37.3	91.590	0.850	-1.500	0.300
2020/01/31 05:40:37.4	91.590	0.820	-1.390	0.360
2020/01/31 05:40:37.5	91.600	0.780	-1.260	0.410
2020/01/31 05:40:37.6	91.600	0.740	-1.120	0.470
2020/01/31 05:40:37.7	91.600	0.690	-0.970	0.530
2020/01/31 05:40:37.8	91.610	0.640	-0.810	0.590
2020/01/31 05:40:37.9	91.620	0.590	-0.650	0.660
2020/01/31 05:40:38.0	91.620	0.530	-0.490	0.720
2020/01/31 05:40:38.1	91.630	0.470	-0.330	0.780
2020/01/31 05:40:38.2	91.640	0.410	-0.160	0.840
2020/01/31 05:40:38.3	91.650	0.340	-0.000	0.900
2020/01/31 05:40:38.4	91.660	0.270	0.160	0.960
2020/01/31 05:40:38.5	91.670	0.200	0.310	1.020
2020/01/31 05:40:38.6	91.680	0.130	0.460	1.070
2020/01/31 05:40:38.7	91.690	0.070	0.600	1.110
2020/01/31 05:40:38.8	91.700	-0.000	0.730	1.150
2020/01/31 05:40:38.9	91.710	-0.070	0.850	1.190
2020/01/31 05:40:39.0	91.730	-0.140	0.960	1.220
2020/01/31 05:40:39.1	91.740	-0.200	1.060	1.250
2020/01/31 05:40:39.2	91.760	-0.260	1.150	1.270
2020/01/31 05:40:39.3	91.780	-0.320	1.220	1.280
2020/01/31 05:40:39.4	91.790	-0.370	1.280	1.290
2020/01/31 05:40:39.5	91.810	-0.430	1.320	1.300
2020/01/31 05:40:39.6	91.820	-0.470	1.350	1.300
2020/01/31 05:40:39.7	91.840	-0.520	1.360	1.290
2020/01/31 05:40:39.8	91.850	-0.550	1.360	1.280
2020/01/31 05:40:39.9	91.870	-0.590	1.340	1.270
2020/01/31 05:40:40.0	91.890	-0.620	1.310	1.260
2020/01/31 05:40:40.1	91.900	-0.640	1.260	1.240
2020/01/31 05:40:40.2	91.930	-0.660	1.200	1.220
2020/01/31 05:40:40.3	91.940	-0.670	1.120	1.210
2020/01/31 05:40:40.4	91.960	-0.680	1.040	1.190
2020/01/31 05:40:40.5	91.970	-0.680	0.940	1.170
2020/01/31 05:40:40.6	91.990	-0.670	0.840	1.160
2020/01/31 05:40:40.7	92.000	-0.660	0.730	1.150
2020/01/31 05:40:40.8	92.020	-0.650	0.600	1.140
2020/01/31 05:40:40.9	92.030	-0.630	0.480	1.130
2020/01/31 05:40:41.0	92.040	-0.600	0.340	1.130
2020/01/31 05:40:41.1	92.050	-0.570	0.210	1.130
2020/01/31 05:40:41.2	92.040	-0.540	0.070	1.130
2020/01/31 05:40:41.3	92.050	-0.500	-0.070	1.130
2020/01/31 05:40:41.4	92.060	-0.460	-0.210	1.130
2020/01/31 05:40:41.5	92.060	-0.420	-0.350	1.130
2020/01/31 05:40:41.6	92.060	-0.370	-0.480	1.140
2020/01/31 05:40:41.7	92.060	-0.320	-0.610	1.140
2020/01/31 05:40:41.8	92.060	-0.270	-0.730	1.140
2020/01/31 05:40:41.9	92.060	-0.210	-0.850	1.140
2020/01/31 05:40:42.0	92.060	-0.160	-0.960	1.140
2020/01/31 05:40:42.1	92.060	-0.110	-1.060	1.130
2020/01/31 05:40:42.2	92.060	-0.050	-1.150	1.130
2020/01/31 05:40:42.3	92.050	0.000	-1.230	1.120
2020/01/31 05:40:42.4	92.050	0.060	-1.300	1.110
2020/01/31 05:40:42.5	92.050	0.110	-1.360	1.100
2020/01/31 05:40:42.6	92.040	0.160	-1.410	1.080
2020/01/31 05:40:42.7	92.040	0.210	-1.450	1.070
2020/01/31 05:40:42.8	92.040	0.260	-1.470	1.050
2020/01/31 05:40:42.9	92.040	0.300	-1.490	1.030
2020/01/31 05:40:43.0	92.040	0.340	-1.490	1.010
2020/01/31 05:40:43.1	92.040	0.380	-1.480	0.990
2020/01/31 05:40:43.2	92.040	0.420	-1.470	0.970
2020/01/31 05:40:43.3	92.040	0.450	-1.440	0.940
2020/01/31 05:40:43.4	92.040	0.480	-1.400	0.920
2020/01/31 05:40:43.5	92.040	0.510	-1.350	0.900
2020/01/31 05:40:43.6	92.050	0.530	-1.290	0.880
2020/01/31 05:40:43.7	92.050	0.540	-1.230	0.860
2020/01/31 05:40:43.8	92.050	0.550	-1.150	0.840
2020/01/31 05:40:43.9	92.060	0.560	-1.070	0.830
2020/01/31 05:40:44.0	92.060	0.570	-0.980	0.810
2020/01/31 05:40:44.1	92.060	0.570	-0.890	0.800
2020/01/31 05:40:44.2	92.060	0.560	-0.790	0.790
2020/01/31 05:40:44.3	92.060	0.550	-0.690	0.780
2020/01/31 05:40:44.4	92.070	0.540	-0.580	0.770
2020/01/31 05:40:44.5	92.070	0.520	-0.480	0.760
2020/01/31 05:40:44.6	92.070	0.500	-0.370	0.750
2020/01/31 05:40:44.7	92.080	0.470	-0.260	0.750
2020/01/31 05:40:44.8	92.080	0.450	-0.160	0.740
2020/01/31 05:40:44.9	92.090	0.410	-0.050	0.730
2020/01/31 05:40:45.0	92.090	0.380	0.050	0.720
2020/01/31 05:40:45.1	92.090	0.340	0.150	0.710
2020/01/31 05:40:45.2	92.110	0.300	0.250	0.700
2020/01/31 05:40:45.3	92.110	0.260	0.350	0.690
2020/01/31 05:40:45.4	92.120	0.220	0.430	0.680
2020/01/31 05:40:45.5	92.120	0.170	0.520	0.660
2020/01/31 05:40:45.6	92.130	0.130	0.590	0.640
2020/01/31 05:40:45.7	92.140	0.080	0.660	0.620
2020/01/31 05:40:45.8	92.150	0.030	0.730	0.600
2020/01/31 05:40:45.9	92.160	-0.010	0.780	0.580
2020/01/31 05:40:46.0	92.170	-0.060	0.830	0.550
2020/01/31 05:40:46.1	92.180	-0.100	0.870	0.520
2020/01/31 05:40:46.2	92.210	-0.140	0.900	0.490
2020/01/31 05:40:46.3	92.220	-0.180	0.920	0.460
2020/01/31 05:40:46.4	92.240	-0.220	0.930	0.430
2020/01/31 05:40:46.5	92.250	-0.250	0.930	0.400
2020/01/31 05:40:46.6	92.260	-0.290	0.930	0.370
2020/01/31 05:40:46.7	92.270	-0.310	0.910	0.340
2020/01/31 05:40:46.8	92.290	-0.340	0.880	0.310
2020/01/31 05:40:46.9	92.300	-0.360	0.850	0.290
2020/01/31 05:40:47.0	92.320	-0.370	0.800	0.270
2020/01/31 05:40:47.1	92.330	-0.390	0.750	0.250
2020/01/31 05:40:47.2	92.340	-0.390	0.690	0.240
2020/01/31 05:40:47.3	92.350	-0.400	0.620	0.220
2020/01/31 05:40:47.4	92.360	-0.400	0.540	0.210
2020/01/31 05:40:47.5	92.380	-0.390	0.460	0.210
2020/01/31 05:40:47.6	92.390	-0.380	0.380	0.210
2020/01/31 05:40:47.7	92.400	-0.370	0.290	0.210
2020/01/31 05:40:47.8	92.410	-0.350	0.200	0.210
2020/01/31 05:40:47.9	92.420	-0.330	0.100	0.220
2020/01/31 05:40:48.0	92.420	-0.310	-0.000	0.230
2020/01/31 05:40:48.1	92.430	-0.290	-0.100	0.240
2020/01/31 05:40:48.2	92.420	-0.260	-0.200	0.250
2020/01/31 05:40:48.3	92.430	-0.230	-0.300	0.260
2020/01/31 05:40:48.4	92.430	-0.200	-0.400	0.280
2020/01/31 05:40:48.5	92.440	-0.170	-0.490	0.290
2020/01/31 05:40:48.6	92.440	-0.130	-0.580	0.300
2020/01/31 05:40:48.7	92.440	-0.100	-0.670	0.320
2020/01/31 05:40:48.8	92.440	-0.070	-0.750	0.330
2020/01/31 05:40:48.9	92.450	-0.030	-0.820	0.340
2020/01/31 05:40:49.0	92.450	-0.000	-0.890	0.350
2020/01/31 05:40:49.1	92.450	0.030	-0.950	0.370
2020/01/31 05:40:49.2	92.430	0.060	-1.000	0.380
2020/01/31 05:40:49.3	92.430	0.080	-1.050	0.390
2020/01/31 05:40:49.4	92.430	0.110	-1.090	0.410
2020/01/31 05:40:49.5	92.430	0.130	-1.110	0.420
2020/01/31 05:40:49.6	92.430	0.150	-1.140	0.440
2020/01/31 05:40:49.7	92.430	0.160	-1.150	0.460
2020/01/31 05:40:49.8	92.430	0.180	-1.150	0.480
2020/01/31 05:40:49.9	92.430	0.190	-1.150	0.510
2020/01/31 05:40:50.0	92.420	0.190	-1.130	0.540
2020/01/31 05:40:50.1	92.420	0.190	-1.110	0.560
2020/01/31 05:40:50.2	92.430	0.190	-1.090	0.600
2020/01/31 05:40:50.3	92.420	0.190	-1.050	0.630
2020/01/31 05:40:50.4	92.420	0.180	-1.010	0.670
2020/01/31 05:40:50.5	92.420	0.170	-0.960	0.700
2020/01/31 05:40:50.6	92.410	0.160	-0.910	0.740
2020/01/31 05:40:50.7	92.410	0.150	-0.850	0.780
2020/01/31 05:40:50.8	92.400	0.130	-0.780	0.820
2020/01/31 05:40:50.9	92.400	0.110	-0.710	0.860
2020/01/31 05:40:51.0	92.390	0.090	-0.640	0.900
2020/01/31 05:40:51.1	92.380	0.070	-0.560	0.930
2020/01/31 05:40:51.2	92.380	0.050	-0.480	0.970
2020/01/31 05:40:51.3	92.370	0.020	-0.400	1.000
2020/01/31 05:40:51.4	92.370	-0.000	-0.320	1.030
2020/01/31 05:40:51.5	92.360	-0.030	-0.240	1.060
2020/01/31 05:40:51.6	92.350	-0.050	-0.160	1.080
2020/01/31 05:40:51.7	92.350	-0.080	-0.090	1.100
2020/01/31 05:40:51.8	92.340	-0.100	-0.010	1.110
2020/01/31 05:40:51.9	92.340	-0.130	0.060	1.120
2020/01/31 05:40:52.0	92.340	-0.150	0.120	1.130
2020/01/31 05:40:52.1	92.330	-0.170	0.180	1.130
2020/01/31 05:40:52.2	92.320	-0.190	0.240	1.120
2020/01/31 05:40:52.3	92.320	-0.210	0.290	1.120
2020/01/31 05:40:52.4	92.320	-0.220	0.330	1.110
2020/01/31 05:40:52.5	92.320	-0.240	0.370	1.090
2020/01/31 05:40:52.6	92.320	-0.250	0.390	1.070
2020/01/31 05:40:52.7	92.330	-0.260	0.410	1.050
2020/01/31 05:40:52.8	92.330	-0.270	0.430	1.030
2020/01/31 05:40:52.9	92.330	-0.270	0.430	1.010
2020/01/31 05:40:53.0	92.340	-0.270	0.430	0.980
2020/01/31 05:40:53.1	92.340	-0.270	0.420	0.960
2020/01/31 05:40:53.2	92.350	-0.270	0.400	0.930
2020/01/31 05:40:53.3	92.360	-0.260	0.380	0.910
2020/01/31 05:40:53.4	92.360	-0.250	0.340	0.880
2020/01/31 05:40:53.5	92.370	-0.240	0.310	0.860
2020/01/31 05:40:53.6	92.370	-0.230	0.260	0.830
2020/01/31 05:40:53.7	92.370	-0.210	0.220	0.810
2020/01/31 05:40:53.8	92.380	-0.190	0.160	0.790
2020/01/31 05:40:53.9	92.380	-0.170	0.110	0.770
2020/01/31 05:40:54.0	92.380	-0.150	0.050	0.750
2020/01/31 05:40:54.1	92.390	-0.130	-0.010	0.740
2020/01/31 05:40:54.2	92.390	-0.100	-0.070	0.730
2020/01/31 05:40:54.3	92.390	-0.080	-0.130	0.710
2020/01/31 05:40:54.4	92.390	-0.050	-0.190	0.700
2020/01/31 05:40:54.5	92.390	-0.020	-0.250	0.680
2020/01/31 05:40:54.6	92.390	0.010	-0.300	0.670
2020/01/31 05:40:54.7	92.390	0.030	-0.360	0.660
2020/01/31 05:40:54.8	92.380	0.060	-0.400	0.650
2020/01/31 05:40:54.9	92.380	0.090	-0.450	0.640
2020/01/31 05:40:55.0	92.380	0.120	-0.490	0.630
2020/01/31 05:40:55.1	92.370	0.150	-0.530	0.620
2020/01/31 05:40:55.2	92.370	0.180	-0.560	0.600
2020/01/31 05:40:55.3	92.360	0.200	-0.580	0.590
2020/01/31 05:40:55.4	92.360	0.230	-0.610	0.580
2020/01/31 05:40:55.5	92.350	0.250	-0.620	0.580
2020/01/31 05:40:55.6	92.340	0.270	-0.640	0.570
2020/01/31 05:40:55.7	92.330	0.290	-0.650	0.560
2020/01/31 05:40:55.8	92.330	0.310	-0.650	0.550
2020/01/31 05:40:55.9	92.320	0.330	-0.660	0.540
2020/01/31 05:40:56.0	92.310	0.350	-0.650	0.530
2020/01/31 05:40:56.1	92.300	0.360	-0.650	0.520
2020/01/31 05:40:56.2	92.310	0.370	-0.640	0.510
2020/01/31 05:40:56.3	92.310	0.380	-0.630	0.510
2020/01/31 05:40:56.4	92.300	0.390	-0.620	0.500
2020/01/31 05:40:56.5	92.300	0.400	-0.600	0.490
2020/01/31 05:40:56.6	92.290	0.400	-0.590	0.480
2020/01/31 05:40:56.7	92.290	0.410	-0.570	0.470
2020/01/31 05:40:56.8	92.290	0.410	-0.550	0.470
2020/01/31 05:40:56.9	92.290	0.410	-0.530	0.460
2020/01/31 05:40:57.0	92.290	0.410	-0.500	0.460
2020/01/31 05:40:57.1	92.290	0.400	-0.480	0.460
2020/01/31 05:40:57.2	92.280	0.400	-0.450	0.460
2020/01/31 05:40:57.3	92.280	0.390	-0.420	0.470
2020/01/31 05:40:57.4	92.280	0.380	-0.390	0.480
2020/01/31 05:40:57.5	92.280	0.360	-0.360	0.480
2020/01/31 05:40:57.6	92.280	0.350	-0.330	0.490
2020/01/31 05:40:57.7	92.280	0.330	-0.290	0.510
2020/01/31 05:40:57.8	92.280	0.320	-0.260	0.520
2020/01/31 05:40:57.9	92.280	0.300	-0.220	0.530
2020/01/31 05:40:58.0	92.280	0.270	-0.180	0.550
2020/01/31 05:40:58.1	92.280	0.250	-0.140	0.560
2020/01/31 05:40:58.2	92.290	0.230	-0.100	0.580
2020/01/31 05:40:58.3	92.300	0.200	-0.060	0.590
2020/01/31 05:40:58.4	92.300	0.170	-0.020	0.600
2020/01/31 05:40:58.5	92.310	0.150	0.020	0.610
2020/01/31 05:40:58.6	92.320	0.120	0.050	0.620
2020/01/31 05:40:58.7	92.330	0.090	0.090	0.630
2020/01/31 05:40:58.8	92.340	0.060	0.130	0.640
2020/01/31 05:40:58.9	92.350	0.030	0.160	0.650
2020/01/31 05:40:59.0	92.360	0.000	0.200	0.660
2020/01/31 05:40:59.1	92.370	-0.030	0.230	0.660
2020/01/31 05:40:59.2	92.400	-0.060	0.260	0.670
2020/01/31 05:40:59.3	92.410	-0.080	0.290	0.670
2020/01/31 05:40:59.4	92.420	-0.110	0.310	0.680
2020/01/31 05:40:59.5	92.430	-0.130	0.330	0.690
2020/01/31 05:40:59.6	92.440	-0.160	0.350	0.710
2020/01/31 05:40:59.7	92.440	-0.180	0.370	0.720
2020/01/31 05:40:59.8	92.450	-0.200	0.380	0.740
2020/01/31 05:40:59.9	92.460	-0.210	0.390	0.750
2020/01/31 05:41:00.0	92.470	-0.230	0.390	0.770
2020/01/31 05:41:00.1	92.470	-0.240	0.390	0.800
2020/01/31 05:41:00.2	92.490	-0.250	0.390	0.820
2020/01/31 05:41:00.3	92.500	-0.260	0.380	0.850
2020/01/31 05:41:00.4	92.500	-0.270	0.370	0.880
2020/01/31 05:41:00.5	92.500	-0.270	0.350	0.910
2020/01/31 05:41:00.6	92.510	-0.270	0.330	0.940
2020/01/31 05:41:00.7	92.510	-0.260	0.300	0.970
2020/01/31 05:41:00.8	92.510	-0.260	0.270	1.000
2020/01/31 05:41:00.9	92.510	-0.250	0.230	1.030
2020/01/31 05:41:01.0	92.510	-0.230	0.190	1.060
2020/01/31 05:41:01.1	92.510	-0.220	0.140	1.090
2020/01/31 05:41:01.2	92.510	-0.200	0.090	1.120
2020/01/31 05:41:01.3	92.510	-0.180	0.040	1.140
2020/01/31 05:41:01.4	92.510	-0.160	-0.020	1.170
2020/01/31 05:41:01.5	92.510	-0.130	-0.080	1.190
2020/01/31 05:41:01.6	92.510	-0.110	-0.140	1.210
2020/01/31 05:41:01.7	92.510	-0.080	-0.210	1.230
2020/01/31 05:41:01.8	92.510	-0.050	-0.270	1.240
2020/01/31 05:41:01.9	92.510	-0.030	-0.340	1.250
2020/01/31 05:41:02.0	92.500	0.000	-0.410	1.260
2020/01/31 05:41:02.1	92.500	0.030	-0.470	1.260
2020/01/31 05:41:02.2	92.490	0.060	-0.540	1.270
2020/01/31 05:41:02.3	92.490	0.090	-0.610	1.270
2020/01/31 05:41:02.4	92.490	0.120	-0.670	1.260
2020/01/31 05:41:02.5	92.480	0.150	-0.720	1.260
2020/01/31 05:41:02.6	92.480	0.170	-0.780	1.250
2020/01/31 05:41:02.7	92.480	0.200	-0.830	1.250
2020/01/31 05:41:02.8	92.470	0.220	-0.880	1.240
2020/01/31 05:41:02.9	92.460	0.250	-0.920	1.230
2020/01/31 05:41:03.0	92.460	0.270	-0.960	1.220
2020/01/31 05:41:03.1	92.450	0.280	-0.990	1.210
2020/01/31 05:41:03.2	92.420	0.300	-1.020	1.200
2020/01/31 05:41:03.3	92.410	0.310	-1.040	1.190
2020/01/31 05:41:03.4	92.390	0.330	-1.060	1.190
2020/01/31 05:41:03.5	92.370	0.340	-1.060	1.180
2020/01/31 05:41:03.6	92.350	0.340	-1.060	1.180
2020/01/31 05:41:03.7	92.330	0.350	-1.060	1.180
2020/01/31 05:41:03.8	92.310	0.350	-1.050	1.180
2020/01/31 05:41:03.9	92.290	0.350	-1.030	1.170
2020/01/31 05:41:04.0	92.270	0.340	-1.000	1.170
2020/01/31 05:41:04.1	92.240	0.340	-0.970	1.170
2020/01/31 05:41:04.2	92.220	0.330	-0.930	1.170
2020/01/31 05:41:04.3	92.200	0.320	-0.890	1.170
2020/01/31 05:41:04.4	92.180	0.300	-0.830	1.160
2020/01/31 05:41:04.5	92.160	0.280	-0.780	1.160
2020/01/31 05:41:04.6	92.140	0.260	-0.710	1.150
2020/01/31 05:41:04.7	92.120	0.240	-0.650	1.140
2020/01/31 05:41:04.8	92.100	0.210	-0.570	1.140
2020/01/31 05:41:04.9	92.080	0.180	-0.500	1.120
2020/01/31 05:41:05.0	92.070	0.150	-0.420	1.110
2020/01/31 05:41:05.1	92.050	0.120	-0.330	1.100
2020/01/31 05:41:05.2	92.030	0.080	-0.250	1.080
2020/01/31 05:41:05.3	92.020	0.050	-0.160	1.060
2020/01/31 05:41:05.4	92.020	0.010	-0.080	1.050
2020/01/31 05:41:05.5	92.010	-0.030	0.010	1.030
2020/01/31 05:41:05.6	92.000	-0.070	0.100	1.010
2020/01/31 05:41:05.7	92.000	-0.110	0.180	1.000
2020/01/31 05:41:05.8	92.000	-0.150	0.260	0.980
2020/01/31 05:41:05.9	92.000	-0.200	0.330	0.960
2020/01/31 05:41:06.0	92.000	-0.240	0.410	0.940
2020/01/31 05:41:06.1	92.000	-0.280	0.470	0.930
2020/01/31 05:41:06.2	92.000	-0.320	0.540	0.910
2020/01/31 05:41:06.3	92.000	-0.360	0.590	0.890
2020/01/31 05:41:06.4	92.010	-0.400	0.640	0.880
2020/01/31 05:41:06.5	92.010	-0.430	0.680	0.870
2020/01/31 05:41:06.6	92.020	-0.470	0.710	0.850
2020/01/31 05:41:06.7	92.030	-0.500	0.730	0.840
2020/01/31 05:41:06.8	92.050	-0.530	0.750	0.830
2020/01/31 05:41:06.9	92.060	-0.550	0.750	0.810
2020/01/31 05:41:07.0	92.070	-0.570	0.750	0.800
2020/01/31 05:41:07.1	92.090	-0.590	0.740	0.790
2020/01/31 05:41:07.2	92.110	-0.610	0.710	0.770
2020/01/31 05:41:07.3	92.130	-0.620	0.680	0.760
2020/01/31 05:41:07.4	92.150	-0.630	0.640	0.740
2020/01/31 05:41:07.5	92.170	-0.630	0.590	0.720
2020/01/31 05:41:07.6	92.190	-0.630	0.540	0.700
2020/01/31 05:41:07.7	92.220	-0.620	0.470	0.680
2020/01/31 05:41:07.8	92.240	-0.610	0.400	0.650
2020/01/31 05:41:07.9	92.260	-0.600	0.330	0.630
2020/01/31 05:41:08.0	92.290	-0.580	0.250	0.600
2020/01/31 05:41:08.1	92.310	-0.560	0.160	0.570
2020/01/31 05:41:08.2	92.330	-0.540	0.070	0.540
2020/01/31 05:41:08.3	92.360	-0.510	-0.020	0.520
2020/01/31 05:41:08.4	92.380	-0.480	-0.110	0.490
2020/01/31 05:41:08.5	92.390	-0.440	-0.200	0.470
2020/01/31 05:41:08.6	92.410	-0.400	-0.280	0.450
2020/01/31 05:41:08.7	92.430	-0.360	-0.370	0.430
2020/01/31 05:41:08.8	92.440	-0.320	-0.460	0.410
2020/01/31 05:41:08.9	92.450	-0.280	-0.540	0.400
2020/01/31 05:41:09.0	92.450	-0.230	-0.620	0.400
2020/01/31 05:41:09.1	92.460	-0.190	-0.690	0.390
2020/01/31 05:41:09.2	92.450	-0.140	-0.750	0.390
2020/01/31 05:41:09.3	92.440	-0.090	-0.810	0.400
2020/01/31 05:41:09.4	92.440	-0.050	-0.870	0.410
2020/01/31 05:41:09.5	92.430	0.000	-0.910	0.430
2020/01/31 05:41:09.6	92.420	0.050	-0.950	0.450
2020/01/31 05:41:09.7	92.410	0.090	-0.990	0.470
2020/01/31 05:41:09.8	92.400	0.130	-1.010	0.500
2020/01/31 05:41:09.9	92.380	0.170	-1.030	0.540
2020/01/31 05:41:10.0	92.360	0.210	-1.040	0.570
2020/01/31 05:41:10.1	92.340	0.250	-1.040	0.610
2020/01/31 05:41:10.2	92.320	0.280	-1.040	0.650
2020/01/31 05:41:10.3	92.300	0.310	-1.030	0.690
2020/01/31 05:41:10.4	92.270	0.340	-1.010	0.730
2020/01/31 05:41:10.5	92.250	0.370	-0.990	0.770
2020/01/31 05:41:10.6	92.230	0.390	-0.960	0.810
2020/01/31 05:41:10.7	92.200	0.410	-0.930	0.850
2020/01/31 05:41:10.8	92.180	0.420	-0.890	0.880
2020/01/31 05:41:10.9	92.160	0.430	-0.840	0.910
2020/01/31 05:41:11.0	92.140	0.440	-0.790	0.940
2020/01/31 05:41:11.1	92.120	0.450	-0.740	0.960
2020/01/31 05:41:11.2	92.090	0.450	-0.690	0.990
2020/01/31 05:41:11.3	92.070	0.450	-0.630	1.000
2020/01/31 05:41:11.4	92.060	0.450	-0.570	1.010
2020/01/31 05:41:11.5	92.050	0.450	-0.510	1.010
2020/01/31 05:41:11.6	92.040	0.440	-0.450	1.010
2020/01/31 05:41:11.7	92.030	0.430	-0.380	1.000
2020/01/31 05:41:11.8	92.020	0.420	-0.320	0.990
2020/01/31 05:41:11.9	92.020	0.400	-0.260	0.970
2020/01/31 05:41:12.0	92.020	0.390	-0.190	0.950
2020/01/31 05:41:12.1	92.010	0.370	-0.130	0.930
2020/01/31 05:41:12.2	92.020	0.360	-0.070	0.900
2020/01/31 05:41:12.3	92.020	0.340	-0.010	0.870
2020/01/31 05:41:12.4	92.020	0.320	0.050	0.830
2020/01/31 05:41:12.5	92.020	0.300	0.100	0.800
2020/01/31 05:41:12.6	92.020	0.290	0.160	0.760
2020/01/31 05:41:12.7	92.020	0.270	0.210	0.730
2020/01/31 05:41:12.8	92.020	0.250	0.250	0.690
2020/01/31 05:41:12.9	92.020	0.230	0.300	0.650
2020/01/31 05:41:13.0	92.020	0.210	0.340	0.620
2020/01/31 05:41:13.1	92.010	0.190	0.370	0.590
2020/01/31 05:41:13.2	92.010	0.180	0.400	0.560
2020/01/31 05:41:13.3	92.000	0.160	0.430	0.530
2020/01/31 05:41:13.4	91.990	0.150	0.460	0.500
2020/01/31 05:41:13.5	91.980	0.130	0.480	0.480
2020/01/31 05:41:13.6	91.970	0.120	0.490	0.450
2020/01/31 05:41:13.7	91.960	0.110	0.500	0.430
2020/01/31 05:41:13.8	91.950	0.100	0.500	0.420
2020/01/31 05:41:13.9	91.930	0.090	0.500	0.410
2020/01/31 05:41:14.0	91.920	0.080	0.490	0.390
2020/01/31 05:41:14.1	91.910	0.070	0.480	0.390
2020/01/31 05:41:14.2	91.890	0.070	0.470	0.380
2020/01/31 05:41:14.3	91.880	0.060	0.440	0.370
2020/01/31 05:41:14.4	91.860	0.060	0.410	0.370
2020/01/31 05:41:14.5	91.850	0.060	0.370	0.370
2020/01/31 05:41:14.6	91.840	0.060	0.330	0.370
2020/01/31 05:41:14.7	91.830	0.060	0.280	0.380
2020/01/31 05:41:14.8	91.830	0.060	0.220	0.380
2020/01/31 05:41:14.9	91.820	0.070	0.160	0.380
2020/01/31 05:41:15.0	91.820	0.070	0.100	0.390
2020/01/31 05:41:15.1	91.830	0.080	0.030	0.390
2020/01/31 05:41:15.2	91.830	0.090	-0.050	0.400
2020/01/31 05:41:15.3	91.830	0.100	-0.120	0.400
2020/01/31 05:41:15.4	91.840	0.110	-0.200	0.400
2020/01/31 05:41:15.5	91.850	0.130	-0.280	0.410
2020/01/31 05:41:15.6	91.870	0.140	-0.360	0.410
2020/01/31 05:41:15.7	91.880	0.160	-0.440	0.420
2020/01/31 05:41:15.8	91.900	0.170	-0.520	0.430
2020/01/31 05:41:15.9	91.910	0.190	-0.600	0.440
2020/01/31 05:41:16.0	91.930	0.200	-0.680	0.450
2020/01/31 05:41:16.1	91.940	0.220	-0.750	0.470
2020/01/31 05:41:16.2	91.960	0.240	-0.820	0.480
2020/01/31 05:41:16.3	91.970	0.250	-0.890	0.510
2020/01/31 05:41:16.4	91.980	0.270	-0.940	0.530
2020/01/31 05:41:16.5	92.000	0.280	-1.000	0.560
2020/01/31 05:41:16.6	92.010	0.300	-1.040	0.600
2020/01/31 05:41:16.7	92.020	0.310	-1.080	0.630
2020/01/31 05:41:16.8	92.020	0.320	-1.110	0.670
2020/01/31 05:41:16.9	92.030	0.320	-1.130	0.720
2020/01/31 05:41:17.0	92.030	0.330	-1.140	0.760
2020/01/31 05:41:17.1	92.030	0.330	-1.140	0.810
2020/01/31 05:41:17.2	92.040	0.330	-1.130	0.870
2020/01/31 05:41:17.3	92.040	0.320	-1.110	0.930
2020/01/31 05:41:17.4	92.030	0.310	-1.080	0.980
2020/01/31 05:41:17.5	92.030	0.300	-1.040	1.040
2020/01/31 05:41:17.6	92.030	0.280	-1.000	1.100
2020/01/31 05:41:17.7	92.020	0.260	-0.940	1.160
2020/01/31 05:41:17.8	92.020	0.230	-0.880	1.220
2020/01/31 05:41:17.9	92.010	0.200	-0.810	1.270
2020/01/31 05:41:18.0	92.000	0.170	-0.730	1.330
2020/01/31 05:41:18.1	92.000	0.130	-0.640	1.390
2020/01/31 05:41:18.2	91.990	0.090	-0.550	1.440
2020/01/31 05:41:18.3	91.980	0.050	-0.450	1.500
2020/01/31 05:41:18.4	91.980	0.000	-0.350	1.550
2020/01/31 05:41:18.5	91.970	-0.050	-0.250	1.590
2020/01/31 05:41:18.6	91.970	-0.100	-0.140	1.640
2020/01/31 05:41:18.7	91.960	-0.160	-0.030	1.670
2020/01/31 05:41:18.8	91.960	-0.220	0.070	1.710
2020/01/31 05:41:18.9	91.960	-0.270	0.180	1.740
2020/01/31 05:41:19.0	91.960	-0.330	0.290	1.770
2020/01/31 05:41:19.1	91.950	-0.390	0.390	1.790
2020/01/31 05:41:19.2	91.970	-0.450	0.490	1.810
2020/01/31 05:41:19.3	91.970	-0.510	0.580	1.830
2020/01/31 05:41:19.4	91.970	-0.570	0.670	1.840
2020/01/31 05:41:19.5	91.960	-0.630	0.750	1.850
2020/01/31 05:41:19.6	91.960	-0.680	0.820	1.860
2020/01/31 05:41:19.7	91.950	-0.730	0.880	1.860
2020/01/31 05:41:19.8	91.950	-0.780	0.930	1.860
2020/01/31 05:41:19.9	91.940	-0.820	0.970	1.860
2020/01/31 05:41:20.0	91.930	-0.860	1.000	1.860
2020/01/31 05:41:20.1	91.920	-0.900	1.020	1.860
2020/01/31 05:41:20.2	91.920	-0.930	1.030	1.850
2020/01/31 05:41:20.3	91.910	-0.950	1.020	1.840
2020/01/31 05:41:20.4	91.900	-0.970	1.000	1.820
2020/01/31 05:41:20.5	91.890	-0.990	0.980	1.800
2020/01/31 05:41:20.6	91.880	-0.990	0.930	1.780
2020/01/31 05:41:20.7	91.870	-0.990	0.880	1.750
2020/01/31 05:41:20.8	91.860	-0.990	0.820	1.720
2020/01/31 05:41:20.9	91.850	-0.980	0.740	1.690
2020/01/31 05:41:21.0	91.850	-0.960	0.660	1.650
2020/01/31 05:41:21.1	91.840	-0.930	0.570	1.610
2020/01/31 05:41:21.2	91.850	-0.900	0.460	1.560
2020/01/31 05:41:21.3	91.850	-0.860	0.350	1.500
2020/01/31 05:41:21.4	91.850	-0.820	0.230	1.450
2020/01/31 05:41:21.5	91.850	-0.770	0.100	1.390
2020/01/31 05:41:21.6	91.860	-0.710	-0.030	1.330
2020/01/31 05:41:21.7	91.860	-0.650	-0.160	1.270
2020/01/31 05:41:21.8	91.870	-0.590	-0.290	1.200
2020/01/31 05:41:21.9	91.880	-0.520	-0.430	1.140
2020/01/31 05:41:22.0	91.890	-0.440	-0.560	1.070
2020/01/31 05:41:22.1	91.900	-0.370	-0.700	1.010
2020/01/31 05:41:22.2	91.910	-0.290	-0.830	0.950
2020/01/31 05:41:22.3	91.920	-0.210	-0.960	0.880
2020/01/31 05:41:22.4	91.930	-0.130	-1.080	0.830
2020/01/31 05:41:22.5	91.930	-0.050	-1.190	0.770
2020/01/31 05:41:22.6	91.940	0.030	-1.290	0.720
2020/01/31 05:41:22.7	91.950	0.110	-1.390	0.680
2020/01/31 05:41:22.8	91.950	0.180	-1.470	0.640
2020/01/31 05:41:22.9	91.950	0.260	-1.540	0.600
2020/01/31 05:41:23.0	91.950	0.330	-1.590	0.570
2020/01/31 05:41:23.1	91.940	0.400	-1.640	0.550
2020/01/31 05:41:23.2	91.910	0.460	-1.660	0.520
2020/01/31 05:41:23.3	91.910	0.520	-1.680	0.500
2020/01/31 05:41:23.4	91.900	0.570	-1.670	0.490
2020/01/31 05:41:23.5	91.890	0.620	-1.660	0.480
2020/01/31 05:41:23.6	91.880	0.660	-1.620	0.460
2020/01/31 05:41:23.7	91.860	0.690	-1.570	0.460
2020/01/31 05:41:23.8	91.850	0.720	-1.510	0.450
2020/01/31 05:41:23.9	91.840	0.740	-1.430	0.440
2020/01/31 05:41:24.0	91.820	0.750	-1.340	0.440
2020/01/31 05:41:24.1	91.810	0.760	-1.240	0.430
2020/01/31 05:41:24.2	91.780	0.760	-1.130	0.430
2020/01/31 05:41:24.3	91.770	0.750	-1.000	0.430
2020/01/31 05:41:24.4	91.750	0.740	-0.870	0.430
2020/01/31 05:41:24.5	91.730	0.720	-0.740	0.420
2020/01/31 05:41:24.6	91.710	0.700	-0.600	0.420
2020/01/31 05:41:24.7	91.700	0.670	-0.450	0.420
2020/01/31 05:41:24.8	91.680	0.630	-0.310	0.420
2020/01/31 05:41:24.9	91.660	0.590	-0.160	0.430
2020/01/31 05:41:25.0	91.650	0.550	-0.020	0.430
2020/01/31 05:41:25.1	91.630	0.510	0.120	0.430
2020/01/31 05:41:25.2	91.630	0.460	0.260	0.430
2020/01/31 05:41:25.3	91.620	0.420	0.380	0.440
2020/01/31 05:41:25.4	91.600	0.370	0.500	0.440
2020/01/31 05:41:25.5	91.590	0.320	0.610	0.450
2020/01/31 05:41:25.6	91.580	0.270	0.710	0.450
2020/01/31 05:41:25.7	91.570	0.220	0.790	0.460
2020/01/31 05:41:25.8	91.560	0.180	0.870	0.460
2020/01/31 05:41:25.9	91.550	0.130	0.930	0.470
2020/01/31 05:41:26.0	91.550	0.090	0.970	0.470
2020/01/31 05:41:26.1	91.540	0.050	1.010	0.480
2020/01/31 05:41:26.2	91.540	0.020	1.030	0.480
2020/01/31 05:41:26.3	91.540	-0.010	1.030	0.490
2020/01/31 05:41:26.4	91.530	-0.040	1.030	0.490
2020/01/31 05:41:26.5	91.530	-0.060	1.010	0.490
2020/01/31 05:41:26.6	91.540	-0.080	0.980	0.490
2020/01/31 05:41:26.7	91.540	-0.100	0.930	0.500
2020/01/31 05:41:26.8	91.540	-0.110	0.880	0.490
2020/01/31 05:41:26.9	91.540	-0.120	0.820	0.490
2020/01/31 05:41:27.0	91.550	-0.120	0.750	0.490
2020/01/31 05:41:27.1	91.550	-0.120	0.670	0.490
2020/01/31 05:41:27.2	91.550	-0.120	0.580	0.490
2020/01/31 05:41:27.3	91.560	-0.120	0.490	0.480
2020/01/31 05:41:27.4	91.560	-0.110	0.400	0.480
2020/01/31 05:41:27.5	91.560	-0.100	0.300	0.480
2020/01/31 05:41:27.6	91.560	-0.090	0.200	0.480
2020/01/31 05:41:27.7	91.560	-0.070	0.100	0.480
2020/01/31 05:41:27.8	91.570	-0.060	0.000	0.480
2020/01/31 05:41:27.9	91.570	-0.040	-0.090	0.490
2020/01/31 05:41:28.0	91.570	-0.020	-0.190	0.490
2020/01/31 05:41:28.1	91.570	-0.000	-0.280	0.500
2020/01/31 05:41:28.2	91.560	0.020	-0.370	0.500
2020/01/31 05:41:28.3	91.560	0.040	-0.460	0.510
2020/01/31 05:41:28.4	91.560	0.050	-0.540	0.520
2020/01/31 05:41:28.5	91.570	0.070	-0.620	0.530
2020/01/31 05:41:28.6	91.570	0.090	-0.690	0.550
2020/01/31 05:41:28.7	91.580	0.110	-0.750	0.560
2020/01/31 05:41:28.8	91.580	0.130	-0.800	0.580
2020/01/31 05:41:28.9	91.590	0.140	-0.850	0.600
2020/01/31 05:41:29.0	91.590	0.150	-0.890	0.620
2020/01/31 05:41:29.1	91.600	0.160	-0.920	0.640
2020/01/31 05:41:29.2	91.590	0.170	-0.950	0.660
2020/01/31 05:41:29.3	91.600	0.180	-0.970	0.690
2020/01/31 05:41:29.4	91.610	0.190	-0.970	0.720
2020/01/31 05:41:29.5	91.620	0.190	-0.970	0.750
2020/01/31 05:41:29.6	91.630	0.190	-0.960	0.780
2020/01/31 05:41:29.7	91.640	0.190	-0.950	0.810
2020/01/31 05:41:29.8	91.660	0.180	-0.930	0.840
2020/01/31 05:41:29.9	91.670	0.170	-0.890	0.880
2020/01/31 05:41:30.0	91.690	0.160	-0.860	0.910
2020/01/31 05:41:30.1	91.700	0.150	-0.820	0.950
2020/01/31 05:41:30.2	91.710	0.140	-0.770	0.990
2020/01/31 05:41:30.3	91.730	0.120	-0.710	1.030
2020/01/31 05:41:30.4	91.740	0.100	-0.660	1.070
2020/01/31 05:41:30.5	91.760	0.080	-0.600	1.100
2020/01/31 05:41:30.6	91.770	0.050	-0.540	1.140
2020/01/31 05:41:30.7	91.780	0.030	-0.480	1.180
2020/01/31 05:41:30.8	91.800	-0.000	-0.410	1.220
2020/01/31 05:41:30.9	91.810	-0.030	-0.350	1.260
2020/01/31 05:41:31.0	91.820	-0.060	-0.290	1.300
2020/01/31 05:41:31.1	91.820	-0.090	-0.220	1.340
2020/01/31 05:41:31.2	91.850	-0.120	-0.170	1.380
2020/01/31 05:41:31.3	91.850	-0.150	-0.110	1.420
2020/01/31 05:41:31.4	91.850	-0.180	-0.060	1.450
2020/01/31 05:41:31.5	91.850	-0.210	-0.010	1.490
2020/01/31 05:41:31.6	91.850	-0.240	0.040	1.520
2020/01/31 05:41:31.7	91.850	-0.260	0.080	1.550
2020/01/31 05:41:31.8	91.840	-0.290	0.110	1.580
2020/01/31 05:41:31.9	91.840	-0.310	0.140	1.600
2020/01/31 05:41:32.0	91.830	-0.330	0.170	1.620
2020/01/31 05:41:32.1	91.820	-0.350	0.180	1.650
2020/01/31 05:41:32.2	91.830	-0.360	0.190	1.660
2020/01/31 05:41:32.3	91.810	-0.380	0.200	1.680
2020/01/31 05:41:32.4	91.800	-0.380	0.200	1.690
2020/01/31 05:41:32.5	91.780	-0.390	0.190	1.700
2020/01/31 05:41:32.6	91.770	-0.390	0.180	1.710
2020/01/31 05:41:32.7	91.750	-0.390	0.160	1.710
2020/01/31 05:41:32.8	91.730	-0.390	0.150	1.710
2020/01/31 05:41:32.9	91.710	-0.380	0.120	1.710
2020/01/31 05:41:33.0	91.690	-0.370	0.100	1.710
2020/01/31 05:41:33.1	91.670	-0.360	0.070	1.700
2020/01/31 05:41:33.2	91.650	-0.340	0.050	1.700
2020/01/31 05:41:33.3	91.630	-0.320	0.020	1.690
2020/01/31 05:41:33.4	91.610	-0.310	-0.010	1.670
2020/01/31 05:41:33.5	91.590	-0.290	-0.030	1.660
2020/01/31 05:41:33.6	91.570	-0.270	-0.060	1.640
2020/01/31 05:41:33.7	91.550	-0.240	-0.080	1.620
2020/01/31 05:41:33.8	91.530	-0.220	-0.100	1.600
2020/01/31 05:41:33.9	91.510	-0.200	-0.130	1.580
2020/01/31 05:41:34.0	91.500	-0.180	-0.150	1.550
2020/01/31 05:41:34.1	91.480	-0.150	-0.170	1.520
2020/01/31 05:41:34.2	91.470	-0.130	-0.180	1.490
2020/01/31 05:41:34.3	91.450	-0.110	-0.200	1.450
2020/01/31 05:41:34.4	91.440	-0.090	-0.220	1.420
2020/01/31 05:41:34.5	91.430	-0.070	-0.240	1.380
2020/01/31 05:41:34.6	91.420	-0.050	-0.250	1.340
2020/01/31 05:41:34.7	91.410	-0.030	-0.270	1.300
2020/01/31 05:41:34.8	91.400	-0.010	-0.290	1.260
2020/01/31 05:41:34.9	91.400	0.010	-0.310	1.210
2020/01/31 05:41:35.0	91.400	0.030	-0.320	1.160
2020/01/31 05:41:35.1	91.390	0.050	-0.340	1.120
2020/01/31 05:41:35.2	91.390	0.070	-0.370	1.060
2020/01/31 05:41:35.3	91.390	0.090	-0.380	1.010
2020/01/31 05:41:35.4	91.390	0.100	-0.400	0.960
2020/01/31 05:41:35.5	91.390	0.120	-0.420	0.910
2020/01/31 05:41:35.6	91.400	0.130	-0.440	0.860
2020/01/31 05:41:35.7	91.410	0.150	-0.460	0.810
2020/01/31 05:41:35.8	91.410	0.160	-0.470	0.760
2020/01/31 05:41:35.9	91.420	0.180	-0.480	0.710
2020/01/31 05:41:36.0	91.430	0.190	-0.490	0.660
2020/01/31 05:41:36.1	91.440	0.200	-0.500	0.610
2020/01/31 05:41:36.2	91.440	0.210	-0.510	0.570
2020/01/31 05:41:36.3	91.440	0.220	-0.510	0.530
2020/01/31 05:41:36.4	91.450	0.230	-0.500	0.490
2020/01/31 05:41:36.5	91.460	0.230	-0.500	0.460
2020/01/31 05:41:36.6	91.470	0.240	-0.480	0.420
2020/01/31 05:41:36.7	91.480	0.240	-0.470	0.390
2020/01/31 05:41:36.8	91.490	0.240	-0.450	0.350
2020/01/31 05:41:36.9	91.490	0.240	-0.420	0.330
2020/01/31 05:41:37.0	91.500	0.240	-0.400	0.300
2020/01/31 05:41:37.1	91.510	0.240	-0.370	0.270
2020/01/31 05:41:37.2	91.500	0.230	-0.330	0.250
2020/01/31 05:41:37.3	91.510	0.220	-0.300	0.230
2020/01/31 05:41:37.4	91.510	0.220	-0.270	0.210
2020/01/31 05:41:37.5	91.520	0.210	-0.230	0.200
2020/01/31 05:41:37.6	91.520	0.200	-0.200	0.180
2020/01/31 05:41:37.7	91.520	0.190	-0.170	0.170
2020/01/31 05:41:37.8	91.530	0.180	-0.140	0.170
2020/01/31 05:41:37.9	91.530	0.170	-0.110	0.160
2020/01/31 05:41:38.0	91.530	0.160	-0.090	0.160
2020/01/31 05:41:38.1	91.530	0.150	-0.070	0.170
2020/01/31 05:41:38.2	91.510	0.140	-0.060	0.170
2020/01/31 05:41:38.3	91.510	0.120	-0.050	0.180
2020/01/31 05:41:38.4	91.500	0.110	-0.040	0.200
2020/01/31 05:41:38.5	91.490	0.100	-0.040	0.210
2020/01/31 05:41:38.6	91.490	0.090	-0.040	0.230
2020/01/31 05:41:38.7	91.470	0.080	-0.040	0.250
2020/01/31 05:41:38.8	91.460	0.070	-0.040	0.280
2020/01/31 05:41:38.9	91.450	0.060	-0.050	0.300
2020/01/31 05:41:39.0	91.430	0.050	-0.060	0.330
2020/01/31 05:41:39.1	91.420	0.040	-0.070	0.360
2020/01/31 05:41:39.2	91.400	0.030	-0.080	0.390
2020/01/31 05:41:39.3	91.380	0.020	-0.090	0.420
2020/01/31 05:41:39.4	91.370	0.000	-0.100	0.450
2020/01/31 05:41:39.5	91.350	-0.010	-0.110	0.480
2020/01/31 05:41:39.6	91.330	-0.020	-0.120	0.520
2020/01/31 05:41:39.7	91.320	-0.030	-0.130	0.550
2020/01/31 05:41:39.8	91.300	-0.040	-0.140	0.590
2020/01/31 05:41:39.9	91.290	-0.050	-0.150	0.620
2020/01/31 05:41:40.0	91.270	-0.070	-0.160	0.660
2020/01/31 05:41:40.1	91.260	-0.080	-0.170	0.700
2020/01/31 05:41:40.2	91.250	-0.090	-0.170	0.730
2020/01/31 05:41:40.3	91.240	-0.100	-0.180	0.770
2020/01/31 05:41:40.4	91.240	-0.110	-0.180	0.810
2020/01/31 05:41:40.5	91.240	-0.120	-0.180	0.840
2020/01/31 05:41:40.6	91.240	-0.120	-0.180	0.870
2020/01/31 05:41:40.7	91.250	-0.130	-0.190	0.910
2020/01/31 05:41:40.8	91.260	-0.140	-0.190	0.940
2020/01/31 05:41:40.9	91.270	-0.140	-0.190	0.970
2020/01/31 05:41:41.0	91.280	-0.150	-0.190	0.990
2020/01/31 05:41:41.1	91.290	-0.150	-0.180	1.020
2020/01/31 05:41:41.2	91.320	-0.160	-0.190	1.040
2020/01/31 05:41:41.3	91.330	-0.160	-0.180	1.060
2020/01/31 05:41:41.4	91.350	-0.160	-0.180	1.080
2020/01/31 05:41:41.5	91.360	-0.170	-0.180	1.090
2020/01/31 05:41:41.6	91.380	-0.170	-0.170	1.100
2020/01/31 05:41:41.7	91.400	-0.170	-0.170	1.110
2020/01/31 05:41:41.8	91.420	-0.180	-0.160	1.120
2020/01/31 05:41:41.9	91.430	-0.180	-0.150	1.120
2020/01/31 05:41:42.0	91.450	-0.180	-0.150	1.130
2020/01/31 05:41:42.1	91.460	-0.180	-0.140	1.130
2020/01/31 05:41:42.2	91.480	-0.180	-0.130	1.130
2020/01/31 05:41:42.3	91.490	-0.190	-0.120	1.130
2020/01/31 05:41:42.4	91.500	-0.190	-0.110	1.130
2020/01/31 05:41:42.5	91.510	-0.190	-0.110	1.130
2020/01/31 05:41:42.6	91.520	-0.190	-0.100	1.130
2020/01/31 05:41:42.7	91.520	-0.190	-0.090	1.130
2020/01/31 05:41:42.8	91.530	-0.190	-0.080	1.120
2020/01/31 05:41:42.9	91.530	-0.190	-0.080	1.120
2020/01/31 05:41:43.0	91.530	-0.190	-0.070	1.120
2020/01/31 05:41:43.1	91.530	-0.190	-0.060	1.110
2020/01/31 05:41:43.2	91.530	-0.190	-0.060	1.110
2020/01/31 05:41:43.3	91.520	-0.190	-0.060	1.110
2020/01/31 05:41:43.4	91.520	-0.190	-0.060	1.110
2020/01/31 05:41:43.5	91.510	-0.180	-0.060	1.110
2020/01/31 05:41:43.6	91.500	-0.180	-0.060	1.110
2020/01/31 05:41:43.7	91.490	-0.170	-0.070	1.110
2020/01/31 05:41:43.8	91.470	-0.160	-0.070	1.100
2020/01/31 05:41:43.9	91.460	-0.150	-0.080	1.100
2020/01/31 05:41:44.0	91.440	-0.140	-0.100	1.100
2020/01/31 05:41:44.1	91.430	-0.130	-0.110	1.100
2020/01/31 05:41:44.2	91.400	-0.120	-0.140	1.100
2020/01/31 05:41:44.3	91.390	-0.100	-0.160	1.100
2020/01/31 05:41:44.4	91.360	-0.080	-0.180	1.100
2020/01/31 05:41:44.5	91.340	-0.070	-0.210	1.100
2020/01/31 05:41:44.6	91.320	-0.050	-0.240	1.100
2020/01/31 05:41:44.7	91.300	-0.020	-0.280	1.100
2020/01/31 05:41:44.8	91.270	-0.000	-0.320	1.100
2020/01/31 05:41:44.9	91.250	0.020	-0.350	1.100
2020/01/31 05:41:45.0	91.220	0.050	-0.390	1.110
2020/01/31 05:41:45.1	91.200	0.070	-0.430	1.110
2020/01/31 05:41:45.2	91.160	0.100	-0.470	1.110
2020/01/31 05:41:45.3	91.140	0.120	-0.510	1.110
2020/01/31 05:41:45.4	91.120	0.150	-0.550	1.110
2020/01/31 05:41:45.5	91.100	0.170	-0.590	1.100
2020/01/31 05:41:45.6	91.080	0.190	-0.620	1.100
2020/01/31 05:41:45.7	91.060	0.220	-0.660	1.090
2020/01/31 05:41:45.8	91.040	0.240	-0.690	1.080
2020/01/31 05:41:45.9	91.030	0.260	-0.710	1.070
2020/01/31 05:41:46.0	91.010	0.270	-0.740	1.060
2020/01/31 05:41:46.1	91.000	0.290	-0.750	1.050
2020/01/31 05:41:46.2	90.990	0.300	-0.770	1.030
2020/01/31 05:41:46.3	90.980	0.320	-0.780	1.020
2020/01/31 05:41:46.4	90.970	0.330	-0.780	1.000
2020/01/31 05:41:46.5	90.960	0.330	-0.780	0.980
2020/01/31 05:41:46.6	90.950	0.340	-0.770	0.960
2020/01/31 05:41:46.7	90.950	0.340	-0.760	0.930
2020/01/31 05:41:46.8	90.940	0.340	-0.740	0.910
2020/01/31 05:41:46.9	90.940	0.340	-0.710	0.890
2020/01/31 05:41:47.0	90.940	0.340	-0.680	0.860
2020/01/31 05:41:47.1	90.940	0.330	-0.650	0.840
2020/01/31 05:41:47.2	90.920	0.330	-0.600	0.810
2020/01/31 05:41:47.3	90.920	0.320	-0.560	0.790
2020/01/31 05:41:47.4	90.920	0.300	-0.510	0.770
2020/01/31 05:41:47.5	90.920	0.290	-0.460	0.750
2020/01/31 05:41:47.6	90.920	0.270	-0.400	0.730
2020/01/31 05:41:47.7	90.920	0.250	-0.340	0.710
2020/01/31 05:41:47.8	90.930	0.230	-0.280	0.690
2020/01/31 05:41:47.9	90.930	0.210	-0.220	0.680
2020/01/31 05:41:48.0	90.930	0.190	-0.160	0.660
2020/01/31 05:41:48.1	90.930	0.170	-0.090	0.650
2020/01/31 05:41:48.2	90.940	0.140	-0.030	0.650
2020/01/31 05:41:48.3	90.940	0.110	0.030	0.640
2020/01/31 05:41:48.4	90.950	0.080	0.100	0.630
2020/01/31 05:41:48.5	90.950	0.050	0.160	0.630
2020/01/31 05:41:48.6	90.950	0.030	0.210	0.630
2020/01/31 05:41:48.7	90.950	-0.000	0.270	0.630
2020/01/31 05:41:48.8	90.950	-0.030	0.320	0.630
2020/01/31 05:41:48.9	90.950	-0.060	0.370	0.630
2020/01/31 05:41:49.0	90.950	-0.090	0.410	0.630
2020/01/31 05:41:49.1	90.950	-0.120	0.450	0.640
2020/01/31 05:41:49.2	90.950	-0.150	0.480	0.650
2020/01/31 05:41:49.3	90.950	-0.170	0.500	0.650
2020/01/31 05:41:49.4	90.950	-0.200	0.520	0.660
2020/01/31 05:41:49.5	90.950	-0.220	0.530	0.660
2020/01/31 05:41:49.6	90.950	-0.240	0.540	0.670
2020/01/31 05:41:49.7	90.960	-0.260	0.530	0.670
2020/01/31 05:41:49.8	90.960	-0.270	0.520	0.680
2020/01/31 05:41:49.9	90.970	-0.280	0.500	0.680
2020/01/31 05:41:50.0	90.970	-0.290	0.480	0.690
2020/01/31 05:41:50.1	90.980	-0.290	0.440	0.690
2020/01/31 05:41:50.2	90.990	-0.300	0.400	0.690
2020/01/31 05:41:50.3	91.000	-0.290	0.350	0.690
2020/01/31 05:41:50.4	91.010	-0.290	0.300	0.690
2020/01/31 05:41:50.5	91.010	-0.280	0.240	0.690
2020/01/31 05:41:50.6	91.020	-0.260	0.180	0.700
2020/01/31 05:41:50.7	91.030	-0.250	0.110	0.700
2020/01/31 05:41:50.8	91.030	-0.230	0.040	0.710
2020/01/31 05:41:50.9	91.030	-0.200	-0.040	0.720
2020/01/31 05:41:51.0	91.040	-0.180	-0.110	0.740
2020/01/31 05:41:51.1	91.030	-0.150	-0.180	0.760
2020/01/31 05:41:51.2	91.030	-0.130	-0.260	0.780
2020/01/31 05:41:51.3	91.020	-0.100	-0.330	0.800
2020/01/31 05:41:51.4	91.020	-0.070	-0.390	0.830
2020/01/31 05:41:51.5	91.010	-0.040	-0.450	0.860
2020/01/31 05:41:51.6	91.000	-0.010	-0.510	0.890
2020/01/31 05:41:51.7	90.990	0.020	-0.560	0.930
2020/01/31 05:41:51.8	90.980	0.050	-0.610	0.970
2020/01/31 05:41:51.9	90.960	0.080	-0.640	1.000
2020/01/31 05:41:52.0	90.950	0.110	-0.680	1.040
2020/01/31 05:41:52.1	90.930	0.130	-0.700	1.080
2020/01/31 05:41:52.2	90.910	0.160	-0.720	1.120
2020/01/31 05:41:52.3	90.890	0.180	-0.730	1.160
2020/01/31 05:41:52.4	90.870	0.190	-0.740	1.200
2020/01/31 05:41:52.5	90.850	0.210	-0.740	1.240
2020/01/31 05:41:52.6	90.820	0.220	-0.740	1.270
2020/01/31 05:41:52.7	90.800	0.230	-0.730	1.300
2020/01/31 05:41:52.8	90.780	0.240	-0.720	1.330
2020/01/31 05:41:52.9	90.760	0.240	-0.700	1.350
2020/01/31 05:41:53.0	90.740	0.240	-0.680	1.370
2020/01/31 05:41:53.1	90.720	0.240	-0.660	1.390
2020/01/31 05:41:53.2	90.700	0.230	-0.640	1.400
2020/01/31 05:41:53.3	90.690	0.230	-0.610	1.410
2020/01/31 05:41:53.4	90.670	0.210	-0.580	1.420
2020/01/31 05:41:53.5	90.660	0.200	-0.550	1.420
2020/01/31 05:41:53.6	90.650	0.190	-0.520	1.420
2020/01/31 05:41:53.7	90.640	0.170	-0.490	1.410
2020/01/31 05:41:53.8	90.640	0.150	-0.470	1.400
2020/01/31 05:41:53.9	90.640	0.130	-0.440	1.380
2020/01/31 05:41:54.0	90.640	0.110	-0.410	1.360
2020/01/31 05:41:54.1	90.640	0.090	-0.390	1.340
2020/01/31 05:41:54.2	90.650	0.070	-0.360	1.320
2020/01/31 05:41:54.3	90.660	0.050	-0.340	1.300
2020/01/31 05:41:54.4	90.670	0.020	-0.320	1.280
2020/01/31 05:41:54.5	90.680	-0.000	-0.290	1.250
2020/01/31 05:41:54.6	90.690	-0.020	-0.270	1.230
2020/01/31 05:41:54.7	90.710	-0.050	-0.250	1.210
2020/01/31 05:41:54.8	90.720	-0.070	-0.230	1.190
2020/01/31 05:41:54.9	90.740	-0.100	-0.200	1.170
2020/01/31 05:41:55.0	90.760	-0.120	-0.180	1.150
2020/01/31 05:41:55.1	90.780	-0.150	-0.160	1.130
2020/01/31 05:41:55.2	90.790	-0.170	-0.140	1.120
2020/01/31 05:41:55.3	90.810	-0.190	-0.110	1.100
2020/01/31 05:41:55.4	90.820	-0.210	-0.090	1.090
2020/01/31 05:41:55.5	90.840	-0.230	-0.070	1.070
2020/01/31 05:41:55.6	90.850	-0.250	-0.050	1.060
2020/01/31 05:41:55.7	90.870	-0.270	-0.020	1.050
2020/01/31 05:41:55.8	90.880	-0.290	-0.000	1.040
2020/01/31 05:41:55.9	90.890	-0.300	0.020	1.020
2020/01/31 05:41:56.0	90.900	-0.310	0.040	1.010
2020/01/31 05:41:56.1	90.910	-0.330	0.050	1.000
2020/01/31 05:41:56.2	90.910	-0.330	0.070	0.990
2020/01/31 05:41:56.3	90.920	-0.340	0.080	0.980
2020/01/31 05:41:56.4	90.930	-0.340	0.090	0.970
2020/01/31 05:41:56.5	90.930	-0.350	0.100	0.950
2020/01/31 05:41:56.6	90.930	-0.350	0.110	0.940
2020/01/31 05:41:56.7	90.940	-0.340	0.110	0.930
2020/01/31 05:41:56.8	90.940	-0.340	0.120	0.920
2020/01/31 05:41:56.9	90.940	-0.330	0.120	0.920
2020/01/31 05:41:57.0	90.940	-0.320	0.120	0.910
2020/01/31 05:41:57.1	90.930	-0.310	0.110	0.900
2020/01/31 05:41:57.2	90.950	-0.300	0.110	0.900
2020/01/31 05:41:57.3	90.940	-0.290	0.100	0.900
2020/01/31 05:41:57.4	90.940	-0.270	0.090	0.900
2020/01/31 05:41:57.5	90.930	-0.260	0.080	0.910
2020/01/31 05:41:57.6	90.920	-0.240	0.070	0.910
2020/01/31 05:41:57.7	90.920	-0.230	0.060	0.920
2020/01/31 05:41:57.8	90.910	-0.210	0.050	0.930
2020/01/31 05:41:57.9	90.900	-0.200	0.030	0.940
2020/01/31 05:41:58.0	90.890	-0.180	0.020	0.950
2020/01/31 05:41:58.1	90.880	-0.170	0.010	0.960
2020/01/31 05:41:58.2	90.870	-0.160	-0.000	0.980
2020/01/31 05:41:58.3	90.870	-0.140	-0.020	0.990
2020/01/31 05:41:58.4	90.860	-0.130	-0.030	1.000
2020/01/31 05:41:58.5	90.850	-0.120	-0.040	1.010
2020/01/31 05:41:58.6	90.840	-0.110	-0.050	1.020
2020/01/31 05:41:58.7	90.840	-0.110	-0.060	1.020
2020/01/31 05:41:58.8	90.830	-0.100	-0.080	1.030
2020/01/31 05:41:58.9	90.820	-0.090	-0.090	1.030
2020/01/31 05:41:59.0	90.820	-0.090	-0.110	1.030
2020/01/31 05:41:59.1	90.810	-0.080	-0.120	1.030
2020/01/31 05:41:59.2	90.800	-0.080	-0.140	1.020
2020/01/31 05:41:59.3	90.790	-0.070	-0.150	1.010
2020/01/31 05:41:59.4	90.790	-0.070	-0.170	1.010
2020/01/31 05:41:59.5	90.780	-0.060	-0.190	1.000
2020/01/31 05:41:59.6	90.770	-0.050	-0.210	0.990
2020/01/31 05:41:59.7	90.760	-0.050	-0.230	0.980
2020/01/31 05:41:59.8	90.750	-0.040	-0.260	0.970
2020/01/31 05:41:59.9	90.740	-0.030	-0.280	0.950
2020/01/31 05:42:00.0	90.730	-0.020	-0.310	0.940
2020/01/31 05:42:00.1	90.720	-0.010	-0.330	0.930
2020/01/31 05:42:00.2	90.710	0.010	-0.360	0.920
2020/01/31 05:42:00.3	90.700	0.020	-0.390	0.910
2020/01/31 05:42:00.4	90.680	0.040	-0.410	0.900
2020/01/31 05:42:00.5	90.670	0.050	-0.440	0.890
2020/01/31 05:42:00.6	90.650	0.070	-0.460	0.890
2020/01/31 05:42:00.7	90.640	0.090	-0.480	0.880
2020/01/31 05:42:00.8	90.630	0.110	-0.500	0.870
2020/01/31 05:42:00.9	90.610	0.130	-0.520	0.860
2020/01/31 05:42:01.0	90.600	0.150	-0.540	0.850
2020/01/31 05:42:01.1	90.590	0.170	-0.560	0.840
2020/01/31 05:42:01.2	90.580	0.190	-0.570	0.820
2020/01/31 05:42:01.3	90.570	0.210	-0.580	0.810
2020/01/31 05:42:01.4	90.560	0.230	-0.590	0.800
2020/01/31 05:42:01.5	90.550	0.250	-0.600	0.790
2020/01/31 05:42:01.6	90.550	0.270	-0.610	0.780
2020/01/31 05:42:01.7	90.540	0.290	-0.610	0.760
2020/01/31 05:42:01.8	90.540	0.310	-0.620	0.750
2020/01/31 05:42:01.9	90.540	0.330	-0.620	0.730
2020/01/31 05:42:02.0	90.550	0.350	-0.620	0.720
2020/01/31 05:42:02.1	90.550	0.370	-0.620	0.700
2020/01/31 05:42:02.2	90.560	0.390	-0.620	0.680
2020/01/31 05:42:02.3	90.570	0.410	-0.620	0.670
2020/01/31 05:42:02.4	90.580	0.420	-0.620	0.650
2020/01/31 05:42:02.5	90.600	0.440	-0.620	0.630
2020/01/31 05:42:02.6	90.610	0.460	-0.610	0.620
2020/01/31 05:42:02.7	90.630	0.470	-0.610	0.600
2020/01/31 05:42:02.8	90.640	0.480	-0.600	0.590
2020/01/31 05:42:02.9	90.660	0.490	-0.600	0.580
2020/01/31 05:42:03.0	90.680	0.510	-0.590	0.570
2020/01/31 05:42:03.1	90.700	0.510	-0.580	0.560
2020/01/31 05:42:03.2	90.700	0.520	-0.560	0.550
2020/01/31 05:42:03.3	90.720	0.530	-0.550	0.550
2020/01/31 05:42:03.4	90.750	0.530	-0.530	0.550
2020/01/31 05:42:03.5	90.760	0.540	-0.520	0.560
2020/01/31 05:42:03.6	90.780	0.540	-0.500	0.570
2020/01/31 05:42:03.7	90.800	0.530	-0.480	0.580
2020/01/31 05:42:03.8	90.820	0.530	-0.450	0.600
2020/01/31 05:42:03.9	90.830	0.520	-0.430	0.610
2020/01/31 05:42:04.0	90.850	0.510	-0.400	0.630
2020/01/31 05:42:04.1	90.860	0.500	-0.370	0.660
2020/01/31 05:42:04.2	90.860	0.490	-0.340	0.690
2020/01/31 05:42:04.3	90.860	0.470	-0.310	0.710
2020/01/31 05:42:04.4	90.870	0.450	-0.280	0.740
2020/01/31 05:42:04.5	90.870	0.430	-0.240	0.770
2020/01/31 05:42:04.6	90.870	0.410	-0.210	0.800
2020/01/31 05:42:04.7	90.870	0.380	-0.170	0.830
2020/01/31 05:42:04.8	90.860	0.360	-0.130	0.850
2020/01/31 05:42:04.9	90.860	0.320	-0.090	0.880
2020/01/31 05:42:05.0	90.850	0.290	-0.050	0.910
2020/01/31 05:42:05.1	90.840	0.260	-0.010	0.940
2020/01/31 05:42:05.2	90.820	0.220	0.020	0.960
2020/01/31 05:42:05.3	90.810	0.180	0.060	0.980
2020/01/31 05:42:05.4	90.790	0.140	0.100	1.010
2020/01/31 05:42:05.5	90.780	0.100	0.130	1.030
2020/01/31 05:42:05.6	90.760	0.050	0.170	1.050
2020/01/31 05:42:05.7	90.750	0.010	0.200	1.080
2020/01/31 05:42:05.8	90.730	-0.040	0.230	1.100
2020/01/31 05:42:05.9	90.710	-0.090	0.260	1.120
2020/01/31 05:42:06.0	90.690	-0.130	0.280	1.150
2020/01/31 05:42:06.1	90.670	-0.180	0.310	1.170
2020/01/31 05:42:06.2	90.660	-0.230	0.330	1.200
2020/01/31 05:42:06.3	90.630	-0.280	0.350	1.230
2020/01/31 05:42:06.4	90.610	-0.320	0.360	1.260
2020/01/31 05:42:06.5	90.580	-0.370	0.370	1.290
2020/01/31 05:42:06.6	90.560	-0.410	0.390	1.320
2020/01/31 05:42:06.7	90.530	-0.460	0.390	1.350
2020/01/31 05:42:06.8	90.510	-0.500	0.400	1.380
2020/01/31 05:42:06.9	90.480	-0.540	0.400	1.410
2020/01/31 05:42:07.0	90.460	-0.580	0.400	1.440
2020/01/31 05:42:07.1	90.430	-0.610	0.400	1.460
2020/01/31 05:42:07.2	90.410	-0.650	0.400	1.490
2020/01/31 05:42:07.3	90.390	-0.680	0.400	1.510
2020/01/31 05:42:07.4	90.370	-0.710	0.390	1.520
2020/01/31 05:42:07.5	90.350	-0.740	0.380	1.530
2020/01/31 05:42:07.6	90.330	-0.760	0.370	1.530
2020/01/31 05:42:07.7	90.320	-0.780	0.360	1.530
2020/01/31 05:42:07.8	90.310	-0.800	0.340	1.530
2020/01/31 05:42:07.9	90.310	-0.810	0.330	1.510
2020/01/31 05:42:08.0	90.300	-0.830	0.310	1.500
2020/01/31 05:42:08.1	90.300	-0.830	0.290	1.470
2020/01/31 05:42:08.2	90.320	-0.840	0.260	1.450
2020/01/31 05:42:08.3	90.330	-0.840	0.230	1.420
2020/01/31 05:42:08.4	90.340	-0.830	0.200	1.380
2020/01/31 05:42:08.5	90.350	-0.830	0.160	1.340
2020/01/31 05:42:08.6	90.370	-0.810	0.130	1.300
2020/01/31 05:42:08.7	90.390	-0.800	0.080	1.250
2020/01/31 05:42:08.8	90.410	-0.780	0.040	1.210
2020/01/31 05:42:08.9	90.430	-0.750	-0.010	1.160
2020/01/31 05:42:09.0	90.460	-0.720	-0.060	1.110
2020/01/31 05:42:09.1	90.490	-0.690	-0.120	1.060
2020/01/31 05:42:09.2	90.530	-0.650	-0.180	1.010
2020/01/31 05:42:09.3	90.560	-0.610	-0.250	0.960
2020/01/31 05:42:09.4	90.590	-0.560	-0.310	0.920
2020/01/31 05:42:09.5	90.630	-0.510	-0.380	0.880
2020/01/31 05:42:09.6	90.660	-0.450	-0.450	0.840
2020/01/31 05:42:09.7	90.690	-0.400	-0.530	0.800
2020/01/31 05:42:09.8	90.720	-0.340	-0.600	0.770
2020/01/31 05:42:09.9	90.750	-0.280	-0.670	0.740
2020/01/31 05:42:10.0	90.780	-0.210	-0.740	0.720
2020/01/31 05:42:10.1	90.800	-0.150	-0.810	0.700
2020/01/31 05:42:10.2	90.830	-0.080	-0.880	0.690
2020/01/31 05:42:10.3	90.850	-0.020	-0.940	0.670
2020/01/31 05:42:10.4	90.870	0.050	-1.000	0.660
2020/01/31 05:42:10.5	90.880	0.110	-1.050	0.660
2020/01/31 05:42:10.6	90.890	0.170	-1.090	0.650
2020/01/31 05:42:10.7	90.900	0.230	-1.130	0.650
2020/01/31 05:42:10.8	90.900	0.290	-1.160	0.640
2020/01/31 05:42:10.9	90.900	0.340	-1.180	0.640
2020/01/31 05:42:11.0	90.900	0.390	-1.200	0.640
2020/01/31 05:42:11.1	90.890	0.440	-1.200	0.640
2020/01/31 05:42:11.2	90.890	0.480	-1.190	0.640
2020/01/31 05:42:11.3	90.880	0.520	-1.180	0.650
2020/01/31 05:42:11.4	90.870	0.550	-1.160	0.650
2020/01/31 05:42:11.5	90.850	0.570	-1.120	0.650
2020/01/31 05:42:11.6	90.830	0.590	-1.080	0.660
2020/01/31 05:42:11.7	90.820	0.610	-1.030	0.660
2020/01/31 05:42:11.8	90.800	0.620	-0.970	0.670
2020/01/31 05:42:11.9	90.780	0.620	-0.900	0.670
2020/01/31 05:42:12.0	90.760	0.620	-0.830	0.680
2020/01/31 05:42:12.1	90.740	0.610	-0.750	0.690
2020/01/31 05:42:12.2	90.720	0.590	-0.660	0.700
2020/01/31 05:42:12.3	90.700	0.570	-0.570	0.700
2020/01/31 05:42:12.4	90.680	0.550	-0.480	0.710
2020/01/31 05:42:12.5	90.660	0.520	-0.390	0.720
2020/01/31 05:42:12.6	90.650	0.490	-0.290	0.730
2020/01/31 05:42:12.7	90.630	0.450	-0.190	0.740
2020/01/31 05:42:12.8	90.610	0.410	-0.090	0.750
2020/01/31 05:42:12.9	90.600	0.370	0.000	0.760
2020/01/31 05:42:13.0	90.580	0.320	0.100	0.760
2020/01/31 05:42:13.1	90.570	0.270	0.190	0.770
2020/01/31 05:42:13.2	90.560	0.220	0.280	0.770
2020/01/31 05:42:13.3	90.540	0.170	0.360	0.770
2020/01/31 05:42:13.4	90.530	0.120	0.440	0.780
2020/01/31 05:42:13.5	90.520	0.070	0.510	0.780
2020/01/31 05:42:13.6	90.510	0.020	0.580	0.770
2020/01/31 05:42:13.7	90.500	-0.020	0.640	0.770
2020/01/31 05:42:13.8	90.490	-0.070	0.690	0.760
2020/01/31 05:42:13.9	90.480	-0.120	0.730	0.760
2020/01/31 05:42:14.0	90.470	-0.160	0.760	0.750
2020/01/31 05:42:14.1	90.460	-0.200	0.780	0.740
2020/01/31 05:42:14.2	90.460	-0.230	0.790	0.720
2020/01/31 05:42:14.3	90.450	-0.260	0.790	0.710
2020/01/31 05:42:14.4	90.440	-0.290	0.780	0.690
2020/01/31 05:42:14.5	90.430	-0.310	0.760	0.670
2020/01/31 05:42:14.6	90.420	-0.330	0.730	0.660
2020/01/31 05:42:14.7	90.410	-0.340	0.690	0.640
2020/01/31 05:42:14.8	90.400	-0.340	0.640	0.620
2020/01/31 05:42:14.9	90.390	-0.350	0.570	0.600
2020/01/31 05:42:15.0	90.390	-0.340	0.500	0.580
2020/01/31 05:42:15.1	90.380	-0.330	0.420	0.550
2020/01/31 05:42:15.2	90.370	-0.310	0.330	0.530
2020/01/31 05:42:15.3	90.370	-0.290	0.230	0.510
2020/01/31 05:42:15.4	90.360	-0.260	0.130	0.490
2020/01/31 05:42:15.5	90.360	-0.230	0.010	0.470
2020/01/31 05:42:15.6	90.360	-0.190	-0.100	0.450
2020/01/31 05:42:15.7	90.360	-0.150	-0.220	0.430
2020/01/31 05:42:15.8	90.360	-0.100	-0.340	0.410
2020/01/31 05:42:15.9	90.360	-0.060	-0.470	0.390
2020/01/31 05:42:16.0	90.360	-0.000	-0.590	0.380
2020/01/31 05:42:16.1	90.360	0.050	-0.700	0.360
2020/01/31 05:42:16.2	90.360	0.100	-0.820	0.350
2020/01/31 05:42:16.3	90.360	0.160	-0.930	0.340
2020/01/31 05:42:16.4	90.370	0.210	-1.030	0.340
2020/01/31 05:42:16.5	90.370	0.260	-1.120	0.340
2020/01/31 05:42:16.6	90.380	0.310	-1.200	0.340
2020/01/31 05:42:16.7	90.390	0.360	-1.270	0.340
2020/01/31 05:42:16.8	90.390	0.410	-1.320	0.350
2020/01/31 05:42:16.9	90.400	0.450	-1.370	0.360
2020/01/31 05:42:17.0	90.410	0.480	-1.390	0.370
2020/01/31 05:42:17.1	90.420	0.510	-1.410	0.390
2020/01/31 05:42:17.2	90.420	0.530	-1.410	0.400
2020/01/31 05:42:17.3	90.430	0.550	-1.390	0.420
2020/01/31 05:42:17.4	90.440	0.560	-1.360	0.440
2020/01/31 05:42:17.5	90.440	0.560	-1.320	0.460
2020/01/31 05:42:17.6	90.450	0.560	-1.260	0.490
2020/01/31 05:42:17.7	90.460	0.550	-1.190	0.510
2020/01/31 05:42:17.8	90.460	0.530	-1.110	0.530
2020/01/31 05:42:17.9	90.470	0.510	-1.020	0.560
2020/01/31 05:42:18.0	90.470	0.480	-0.920	0.580
2020/01/31 05:42:18.1	90.480	0.440	-0.810	0.610
2020/01/31 05:42:18.2	90.500	0.400	-0.690	0.640
2020/01/31 05:42:18.3	90.500	0.350	-0.570	0.660
2020/01/31 05:42:18.4	90.500	0.300	-0.450	0.680
2020/01/31 05:42:18.5	90.500	0.250	-0.330	0.700
2020/01/31 05:42:18.6	90.500	0.190	-0.200	0.720
2020/01/31 05:42:18.7	90.500	0.130	-0.080	0.740
2020/01/31 05:42:18.8	90.500	0.070	0.040	0.760
2020/01/31 05:42:18.9	90.490	0.010	0.150	0.780
2020/01/31 05:42:19.0	90.490	-0.050	0.260	0.790
2020/01/31 05:42:19.1	90.480	-0.110	0.360	0.810
2020/01/31 05:42:19.2	90.480	-0.170	0.460	0.820
2020/01/31 05:42:19.3	90.470	-0.230	0.540	0.830
2020/01/31 05:42:19.4	90.470	-0.280	0.620	0.840
2020/01/31 05:42:19.5	90.460	-0.330	0.680	0.850
2020/01/31 05:42:19.6	90.450	-0.370	0.730	0.860
2020/01/31 05:42:19.7	90.450	-0.410	0.780	0.870
2020/01/31 05:42:19.8	90.450	-0.450	0.810	0.870
2020/01/31 05:42:19.9	90.450	-0.480	0.830	0.870
2020/01/31 05:42:20.0	90.450	-0.510	0.840	0.880
2020/01/31 05:42:20.1	90.450	-0.520	0.840	0.870
2020/01/31 05:42:20.2	90.450	-0.540	0.830	0.870
2020/01/31 05:42:20.3	90.460	-0.550	0.810	0.860
2020/01/31 05:42:20.4	90.470	-0.550	0.780	0.860
2020/01/31 05:42:20.5	90.480	-0.550	0.740	0.850
2020/01/31 05:42:20.6	90.500	-0.540	0.700	0.850
2020/01/31 05:42:20.7	90.520	-0.530	0.650	0.840
2020/01/31 05:42:20.8	90.530	-0.510	0.590	0.830
2020/01/31 05:42:20.9	90.550	-0.500	0.540	0.830
2020/01/31 05:42:21.0	90.570	-0.470	0.470	0.820
2020/01/31 05:42:21.1	90.590	-0.450	0.410	0.820
2020/01/31 05:42:21.2	90.600	-0.420	0.340	0.810
2020/01/31 05:42:21.3	90.620	-0.400	0.280	0.810
2020/01/31 05:42:21.4	90.630	-0.370	0.210	0.810
2020/01/31 05:42:21.5	90.650	-0.340	0.150	0.800
2020/01/31 05:42:21.6	90.660	-0.310	0.090	0.800
2020/01/31 05:42:21.7	90.660	-0.280	0.030	0.800
2020/01/31 05:42:21.8	90.670	-0.260	-0.020	0.790
2020/01/31 05:42:21.9	90.670	-0.230	-0.070	0.790
2020/01/31 05:42:22.0	90.670	-0.210	-0.120	0.780
2020/01/31 05:42:22.1	90.670	-0.190	-0.160	0.770
2020/01/31 05:42:22.2	90.680	-0.170	-0.200	0.760
2020/01/31 05:42:22.3	90.670	-0.160	-0.230	0.750
2020/01/31 05:42:22.4	90.670	-0.140	-0.250	0.740
2020/01/31 05:42:22.5	90.660	-0.130	-0.270	0.720
2020/01/31 05:42:22.6	90.640	-0.130	-0.280	0.700
2020/01/31 05:42:22.7	90.630	-0.120	-0.290	0.680
2020/01/31 05:42:22.8	90.620	-0.120	-0.300	0.660
2020/01/31 05:42:22.9	90.600	-0.120	-0.300	0.640
2020/01/31 05:42:23.0	90.590	-0.120	-0.290	0.620
2020/01/31 05:42:23.1	90.570	-0.120	-0.290	0.610
2020/01/31 05:42:23.2	90.540	-0.130	-0.280	0.580
2020/01/31 05:42:23.3	90.520	-0.130	-0.270	0.570
2020/01/31 05:42:23.4	90.500	-0.140	-0.260	0.550
2020/01/31 05:42:23.5	90.480	-0.150	-0.250	0.530
2020/01/31 05:42:23.6	90.460	-0.150	-0.240	0.520
2020/01/31 05:42:23.7	90.440	-0.160	-0.240	0.500
2020/01/31 05:42:23.8	90.420	-0.160	-0.240	0.490
2020/01/31 05:42:23.9	90.400	-0.160	-0.240	0.470
2020/01/31 05:42:24.0	90.390	-0.160	-0.250	0.460
2020/01/31 05:42:24.1	90.370	-0.160	-0.260	0.450
2020/01/31 05:42:24.2	90.360	-0.150	-0.280	0.430
2020/01/31 05:42:24.3	90.350	-0.150	-0.310	0.420
2020/01/31 05:42:24.4	90.340	-0.130	-0.340	0.410
2020/01/31 05:42:24.5	90.340	-0.120	-0.380	0.390
2020/01/31 05:42:24.6	90.340	-0.100	-0.430	0.380
2020/01/31 05:42:24.7	90.350	-0.070	-0.480	0.360
2020/01/31 05:42:24.8	90.350	-0.050	-0.530	0.350
2020/01/31 05:42:24.9	90.360	-0.010	-0.600	0.330
2020/01/31 05:42:25.0	90.380	0.020	-0.660	0.320
2020/01/31 05:42:25.1	90.390	0.060	-0.730	0.310
2020/01/31 05:42:25.2	90.410	0.100	-0.800	0.300
2020/01/31 05:42:25.3	90.430	0.140	-0.870	0.290
2020/01/31 05:42:25.4	90.450	0.180	-0.940	0.280
2020/01/31 05:42:25.5	90.470	0.230	-1.010	0.270
2020/01/31 05:42:25.6	90.490	0.270	-1.080	0.260
2020/01/31 05:42:25.7	90.500	0.320	-1.140	0.260
2020/01/31 05:42:25.8	90.520	0.360	-1.190	0.250
2020/01/31 05:42:25.9	90.530	0.400	-1.240	0.250
2020/01/31 05:42:26.0	90.540	0.450	-1.280	0.250
2020/01/31 05:42:26.1	90.540	0.480	-1.310	0.250
2020/01/31 05:42:26.2	90.540	0.520	-1.340	0.250
2020/01/31 05:42:26.3	90.540	0.550	-1.350	0.250
2020/01/31 05:42:26.4	90.540	0.580	-1.350	0.250
2020/01/31 05:42:26.5	90.540	0.600	-1.340	0.250
2020/01/31 05:42:26.6	90.530	0.620	-1.310	0.250
2020/01/31 05:42:26.7	90.520	0.630	-1.270	0.250
2020/01/31 05:42:26.8	90.500	0.640	-1.220	0.250
2020/01/31 05:42:26.9	90.490	0.640	-1.160	0.260
2020/01/31 05:42:27.0	90.470	0.630	-1.090	0.260
2020/01/31 05:42:27.1	90.450	0.620	-1.000	0.270
2020/01/31 05:42:27.2	90.430	0.600	-0.910	0.280
2020/01/31 05:42:27.3	90.400	0.580	-0.800	0.290
2020/01/31 05:42:27.4	90.370	0.550	-0.690	0.300
2020/01/31 05:42:27.5	90.340	0.520	-0.580	0.320
2020/01/31 05:42:27.6	90.310	0.480	-0.450	0.340
2020/01/31 05:42:27.7	90.280	0.440	-0.330	0.370
2020/01/31 05:42:27.8	90.240	0.390	-0.200	0.390
2020/01/31 05:42:27.9	90.210	0.340	-0.080	0.420
2020/01/31 05:42:28.0	90.180	0.280	0.050	0.460
2020/01/31 05:42:28.1	90.140	0.220	0.170	0.490
2020/01/31 05:42:28.2	90.120	0.160	0.300	0.530
2020/01/31 05:42:28.3	90.090	0.100	0.410	0.570
2020/01/31 05:42:28.4	90.060	0.040	0.520	0.620
2020/01/31 05:42:28.5	90.030	-0.020	0.620	0.660
2020/01/31 05:42:28.6	90.010	-0.080	0.710	0.710
2020/01/31 05:42:28.7	89.990	-0.140	0.790	0.750
2020/01/31 05:42:28.8	89.970	-0.200	0.850	0.800
2020/01/31 05:42:28.9	89.950	-0.250	0.910	0.840
2020/01/31 05:42:29.0	89.940	-0.310	0.950	0.890
2020/01/31 05:42:29.1	89.930	-0.360	0.980	0.930
2020/01/31 05:42:29.2	89.930	-0.400	1.000	0.970
2020/01/31 05:42:29.3	89.930	-0.440	1.000	1.010
2020/01/31 05:42:29.4	89.930	-0.480	1.000	1.040
2020/01/31 05:42:29.5	89.930	-0.510	0.980	1.080
2020/01/31 05:42:29.6	89.940	-0.540	0.950	1.110
2020/01/31 05:42:29.7	89.940	-0.560	0.910	1.140
2020/01/31 05:42:29.8	89.950	-0.580	0.860	1.160
2020/01/31 05:42:29.9	89.960	-0.590	0.800	1.180
2020/01/31 05:42:30.0	89.980	-0.600	0.740	1.190
2020/01/31 05:42:30.1	89.990	-0.600	0.660	1.210
2020/01/31 05:42:30.2	90.000	-0.600	0.570	1.210
2020/01/31 05:42:30.3	90.010	-0.600	0.480	1.220
2020/01/31 05:42:30.4	90.030	-0.580	0.390	1.210
2020/01/31 05:42:30.5	90.050	-0.570	0.290	1.210
2020/01/31 05:42:30.6	90.060	-0.550	0.190	1.200
2020/01/31 05:42:30.7	90.080	-0.530	0.090	1.180
2020/01/31 05:42:30.8	90.090	-0.500	-0.010	1.170
2020/01/31 05:42:30.9	90.110	-0.470	-0.110	1.150
2020/01/31 05:42:31.0	90.120	-0.430	-0.210	1.130
2020/01/31 05:42:31.1	90.130	-0.400	-0.300	1.110
2020/01/31 05:42:31.2	90.150	-0.360	-0.400	1.090
2020/01/31 05:42:31.3	90.160	-0.320	-0.480	1.070
2020/01/31 05:42:31.4	90.170	-0.280	-0.560	1.050
2020/01/31 05:42:31.5	90.180	-0.240	-0.630	1.030
2020/01/31 05:42:31.6	90.190	-0.200	-0.690	1.010
2020/01/31 05:42:31.7	90.200	-0.160	-0.740	1.000
2020/01/31 05:42:31.8	90.210	-0.120	-0.790	0.990
2020/01/31 05:42:31.9	90.220	-0.080	-0.820	0.980
2020/01/31 05:42:32.0	90.230	-0.040	-0.840	0.970
2020/01/31 05:42:32.1	90.240	-0.010	-0.860	0.960
2020/01/31 05:42:32.2	90.260	0.020	-0.860	0.960
2020/01/31 05:42:32.3	90.270	0.050	-0.850	0.960
2020/01/31 05:42:32.4	90.280	0.080	-0.840	0.960
2020/01/31 05:42:32.5	90.290	0.100	-0.810	0.960
2020/01/31 05:42:32.6	90.310	0.120	-0.780	0.970
2020/01/31 05:42:32.7	90.320	0.140	-0.740	0.970
2020/01/31 05:42:32.8	90.330	0.160	-0.690	0.980
2020/01/31 05:42:32.9	90.350	0.170	-0.640	0.990
2020/01/31 05:42:33.0	90.360	0.180	-0.580	1.000
2020/01/31 05:42:33.1	90.380	0.180	-0.520	1.000
2020/01/31 05:42:33.2	90.380	0.180	-0.460	1.010
2020/01/31 05:42:33.3	90.400	0.180	-0.390	1.020
2020/01/31 05:42:33.4	90.420	0.180	-0.320	1.030
2020/01/31 05:42:33.5	90.430	0.180	-0.250	1.030
2020/01/31 05:42:33.6	90.450	0.170	-0.190	1.030
2020/01/31 05:42:33.7	90.470	0.170	-0.120	1.040
2020/01/31 05:42:33.8	90.490	0.160	-0.060	1.030
2020/01/31 05:42:33.9	90.510	0.150	-0.000	1.030
2020/01/31 05:42:34.0	90.530	0.140	0.050	1.020
2020/01/31 05:42:34.1	90.550	0.130	0.100	1.010
2020/01/31 05:42:34.2	90.550	0.120	0.150	0.990
2020/01/31 05:42:34.3	90.570	0.110	0.190	0.970
2020/01/31 05:42:34.4	90.590	0.100	0.220	0.950
2020/01/31 05:42:34.5	90.610	0.090	0.250	0.920
2020/01/31 05:42:34.6	90.630	0.090	0.270	0.890
2020/01/31 05:42:34.7	90.650	0.080	0.290	0.860
2020/01/31 05:42:34.8	90.670	0.070	0.300	0.830
2020/01/31 05:42:34.9	90.680	0.070	0.310	0.800
2020/01/31 05:42:35.0	90.700	0.060	0.310	0.770
2020/01/31 05:42:35.1	90.710	0.060	0.300	0.730
2020/01/31 05:42:35.2	90.730	0.060	0.290	0.700
2020/01/31 05:42:35.3	90.740	0.050	0.270	0.670
2020/01/31 05:42:35.4	90.750	0.050	0.250	0.650
2020/01/31 05:42:35.5	90.750	0.050	0.230	0.620
2020/01/31 05:42:35.6	90.760	0.060	0.200	0.610
2020/01/31 05:42:35.7	90.760	0.060	0.160	0.590
2020/01/31 05:42:35.8	90.760	0.060	0.120	0.580
2020/01/31 05:42:35.9	90.750	0.070	0.080	0.580
2020/01/31 05:42:36.0	90.750	0.070	0.040	0.580
2020/01/31 05:42:36.1	90.740	0.080	-0.010	0.580
2020/01/31 05:42:36.2	90.730	0.090	-0.070	0.590
2020/01/31 05:42:36.3	90.720	0.100	-0.120	0.600
2020/01/31 05:42:36.4	90.700	0.110	-0.180	0.620
2020/01/31 05:42:36.5	90.690	0.120	-0.230	0.640
2020/01/31 05:42:36.6	90.680	0.130	-0.290	0.660
2020/01/31 05:42:36.7	90.670	0.140	-0.350	0.680
2020/01/31 05:42:36.8	90.660	0.160	-0.410	0.700
2020/01/31 05:42:36.9	90.650	0.170	-0.470	0.720
2020/01/31 05:42:37.0	90.640	0.180	-0.530	0.740
2020/01/31 05:42:37.1	90.640	0.200	-0.590	0.760
2020/01/31 05:42:37.2	90.640	0.210	-0.640	0.770
2020/01/31 05:42:37.3	90.630	0.230	-0.700	0.790
2020/01/31 05:42:37.4	90.640	0.240	-0.750	0.800
2020/01/31 05:42:37.5	90.640	0.260	-0.800	0.810
2020/01/31 05:42:37.6	90.650	0.270	-0.840	0.810
2020/01/31 05:42:37.7	90.660	0.290	-0.880	0.810
2020/01/31 05:42:37.8	90.670	0.300	-0.910	0.810
2020/01/31 05:42:37.9	90.690	0.320	-0.940	0.810
2020/01/31 05:42:38.0	90.700	0.330	-0.970	0.800
2020/01/31 05:42:38.1	90.720	0.350	-0.990	0.800
2020/01/31 05:42:38.2	90.740	0.360	-1.010	0.780
2020/01/31 05:42:38.3	90.760	0.370	-1.010	0.780
2020/01/31 05:42:38.4	90.780	0.380	-1.010	0.770
2020/01/31 05:42:38.5	90.810	0.390	-1.010	0.760
2020/01/31 05:42:38.6	90.830	0.400	-1.000	0.750
2020/01/31 05:42:38.7	90.850	0.410	-0.980	0.740
2020/01/31 05:42:38.8	90.870	0.410	-0.950	0.730
2020/01/31 05:42:38.9	90.890	0.410	-0.920	0.720
2020/01/31 05:42:39.0	90.910	0.410	-0.880	0.720
2020/01/31 05:42:39.1	90.930	0.400	-0.840	0.720
2020/01/31 05:42:39.2	90.950	0.390	-0.790	0.720
2020/01/31 05:42:39.3	90.960	0.380	-0.730	0.720
2020/01/31 05:42:39.4	90.970	0.370	-0.670	0.720
2020/01/31 05:42:39.5	90.980	0.350	-0.600	0.720
2020/01/31 05:42:39.6	90.990	0.320	-0.530	0.730
2020/01/31 05:42:39.7	90.990	0.300	-0.460	0.730
2020/01/31 05:42:39.8	90.990	0.270	-0.380	0.740
2020/01/31 05:42:39.9	90.990	0.230	-0.300	0.750
2020/01/31 05:42:40.0	90.990	0.190	-0.220	0.760
2020/01/31 05:42:40.1	90.980	0.150	-0.140	0.770
2020/01/31 05:42:40.2	90.970	0.110	-0.050	0.780
2020/01/31 05:42:40.3	90.960	0.060	0.030	0.790
2020/01/31 05:42:40.4	90.950	0.010	0.110	0.800
2020/01/31 05:42:40.5	90.940	-0.040	0.190	0.810
2020/01/31 05:42:40.6	90.920	-0.090	0.270	0.820
2020/01/31 05:42:40.7	90.910	-0.150	0.340	0.830
2020/01/31 05:42:40.8	90.900	-0.200	0.410	0.840
2020/01/31 05:42:40.9	90.880	-0.260	0.470	0.850
2020/01/31 05:42:41.0	90.870	-0.310	0.530	0.850
2020/01/31 05:42:41.1	90.850	-0.360	0.580	0.850
2020/01/31 05:42:41.2	90.840	-0.410	0.620	0.850
2020/01/31 05:42:41.3	90.830	-0.460	0.650	0.850
2020/01/31 05:42:41.4	90.820	-0.510	0.680	0.840
2020/01/31 05:42:41.5	90.820	-0.550	0.700	0.830
2020/01/31 05:42:41.6	90.810	-0.590	0.710	0.820
2020/01/31 05:42:41.7	90.810	-0.620	0.720	0.800
2020/01/31 05:42:41.8	90.820	-0.650	0.710	0.780
2020/01/31 05:42:41.9	90.820	-0.670	0.700	0.750
2020/01/31 05:42:42.0	90.840	-0.690	0.680	0.710
2020/01/31 05:42:42.1	90.850	-0.700	0.640	0.670
2020/01/31 05:42:42.2	90.870	-0.710	0.600	0.630
2020/01/31 05:42:42.3	90.900	-0.700	0.560	0.580
2020/01/31 05:42:42.4	90.920	-0.700	0.500	0.530
2020/01/31 05:42:42.5	90.950	-0.680	0.430	0.480
2020/01/31 05:42:42.6	90.980	-0.660	0.360	0.420
2020/01/31 05:42:42.7	91.020	-0.630	0.280	0.370
2020/01/31 05:42:42.8	91.060	-0.600	0.190	0.310
2020/01/31 05:42:42.9	91.100	-0.560	0.100	0.250
2020/01/31 05:42:43.0	91.140	-0.510	0.010	0.190
2020/01/31 05:42:43.1	91.180	-0.460	-0.080	0.140
2020/01/31 05:42:43.2	91.220	-0.410	-0.190	0.080
2020/01/31 05:42:43.3	91.270	-0.350	-0.290	0.030
2020/01/31 05:42:43.4	91.310	-0.290	-0.380	-0.020
2020/01/31 05:42:43.5	91.360	-0.230	-0.470	-0.060
2020/01/31 05:42:43.6	91.400	-0.170	-0.560	-0.100
2020/01/31 05:42:43.7	91.440	-0.100	-0.650	-0.130
2020/01/31 05:42:43.8	91.480	-0.040	-0.730	-0.160
2020/01/31 05:42:43.9	91.520	0.020	-0.800	-0.180
2020/01/31 05:42:44.0	91.550	0.080	-0.870	-0.200
2020/01/31 05:42:44.1	91.590	0.140	-0.930	-0.210
2020/01/31 05:42:44.2	91.610	0.190	-0.980	-0.210
2020/01/31 05:42:44.3	91.640	0.240	-1.020	-0.210
2020/01/31 05:42:44.4	91.670	0.290	-1.040	-0.210
2020/01/31 05:42:44.5	91.690	0.330	-1.060	-0.200
2020/01/31 05:42:44.6	91.700	0.360	-1.060	-0.180
2020/01/31 05:42:44.7	91.710	0.390	-1.050	-0.160
2020/01/31 05:42:44.8	91.720	0.410	-1.040	-0.140
2020/01/31 05:42:44.9	91.730	0.430	-1.010	-0.110
2020/01/31 05:42:45.0	91.730	0.440	-0.970	-0.080
2020/01/31 05:42:45.1	91.730	0.440	-0.920	-0.050
2020/01/31 05:42:45.2	91.740	0.440	-0.860	-0.010
2020/01/31 05:42:45.3	91.730	0.430	-0.790	0.030
2020/01/31 05:42:45.4	91.720	0.410	-0.710	0.070
2020/01/31 05:42:45.5	91.700	0.390	-0.630	0.120
2020/01/31 05:42:45.6	91.680	0.360	-0.540	0.160
2020/01/31 05:42:45.7	91.660	0.330	-0.450	0.210
2020/01/31 05:42:45.8	91.640	0.290	-0.360	0.260
2020/01/31 05:42:45.9	91.610	0.250	-0.260	0.300
2020/01/31 05:42:46.0	91.590	0.200	-0.160	0.350
2020/01/31 05:42:46.1	91.560	0.150	-0.060	0.400
2020/01/31 05:42:46.2	91.540	0.100	0.030	0.440
2020/01/31 05:42:46.3	91.500	0.050	0.130	0.490
2020/01/31 05:42:46.4	91.470	-0.010	0.210	0.530
2020/01/31 05:42:46.5	91.440	-0.060	0.290	0.570
2020/01/31 05:42:46.6	91.410	-0.110	0.370	0.610
2020/01/31 05:42:46.7	91.380	-0.170	0.440	0.640
2020/01/31 05:42:46.8	91.350	-0.220	0.500	0.680
2020/01/31 05:42:46.9	91.320	-0.270	0.540	0.700
2020/01/31 05:42:47.0	91.290	-0.310	0.590	0.730
2020/01/31 05:42:47.1	91.260	-0.350	0.620	0.740
2020/01/31 05:42:47.2	91.230	-0.390	0.640	0.760
2020/01/31 05:42:47.3	91.210	-0.420	0.650	0.770
2020/01/31 05:42:47.4	91.190	-0.450	0.650	0.770
2020/01/31 05:42:47.5	91.170	-0.480	0.640	0.770
2020/01/31 05:42:47.6	91.160	-0.500	0.620	0.760
2020/01/31 05:42:47.7	91.150	-0.510	0.590	0.750
2020/01/31 05:42:47.8	91.150	-0.520	0.550	0.740
2020/01/31 05:42:47.9	91.150	-0.520	0.500	0.720
2020/01/31 05:42:48.0	91.150	-0.520	0.450	0.700
2020/01/31 05:42:48.1	91.150	-0.510	0.390	0.680
2020/01/31 05:42:48.2	91.160	-0.500	0.320	0.650
2020/01/31 05:42:48.3	91.180	-0.480	0.250	0.620
2020/01/31 05:42:48.4	91.190	-0.460	0.170	0.580
2020/01/31 05:42:48.5	91.200	-0.430	0.090	0.550
2020/01/31 05:42:48.6	91.220	-0.400	0.010	0.510
2020/01/31 05:42:48.7	91.240	-0.370	-0.080	0.480
2020/01/31 05:42:48.8	91.260	-0.330	-0.170	0.440
2020/01/31 05:42:48.9	91.290	-0.290	-0.250	0.400
2020/01/31 05:42:49.0	91.310	-0.240	-0.340	0.360
2020/01/31 05:42:49.1	91.340	-0.190	-0.420	0.330
2020/01/31 05:42:49.2	91.360	-0.140	-0.510	0.290
2020/01/31 05:42:49.3	91.380	-0.090	-0.590	0.260
2020/01/31 05:42:49.4	91.410	-0.040	-0.670	0.230
2020/01/31 05:42:49.5	91.430	0.010	-0.740	0.210
2020/01/31 05:42:49.6	91.460	0.070	-0.800	0.180
2020/01/31 05:42:49.7	91.480	0.120	-0.860	0.170
2020/01/31 05:42:49.8	91.500	0.170	-0.910	0.150
2020/01/31 05:42:49.9	91.520	0.230	-0.960	0.140
2020/01/31 05:42:50.0	91.540	0.280	-1.000	0.140
2020/01/31 05:42:50.1	91.560	0.330	-1.030	0.130
2020/01/31 05:42:50.2	91.590	0.380	-1.060	0.130
2020/01/31 05:42:50.3	91.610	0.430	-1.080	0.140
2020/01/31 05:42:50.4	91.620	0.470	-1.090	0.150
2020/01/31 05:42:50.5	91.630	0.510	-1.090	0.160
2020/01/31 05:42:50.6	91.640	0.550	-1.090	0.170
2020/01/31 05:42:50.7	91.650	0.590	-1.090	0.190
2020/01/31 05:42:50.8	91.650	0.620	-1.070	0.210
2020/01/31 05:42:50.9	91.660	0.650	-1.050	0.230
2020/01/31 05:42:51.0	91.660	0.670	-1.030	0.260
2020/01/31 05:42:51.1	91.660	0.690	-1.000	0.280
2020/01/31 05:42:51.2	91.650	0.710	-0.970	0.310
2020/01/31 05:42:51.3	91.640	0.720	-0.930	0.340
2020/01/31 05:42:51.4	91.640	0.730	-0.890	0.380
2020/01/31 05:42:51.5	91.630	0.740	-0.840	0.410
2020/01/31 05:42:51.6	91.620	0.740	-0.790	0.450
2020/01/31 05:42:51.7	91.600	0.730	-0.730	0.490
2020/01/31 05:42:51.8	91.590	0.720	-0.680	0.530
2020/01/31 05:42:51.9	91.570	0.710	-0.620	0.570
2020/01/31 05:42:52.0	91.560	0.700	-0.560	0.620
2020/01/31 05:42:52.1	91.540	0.680	-0.500	0.660
2020/01/31 05:42:52.2	91.510	0.650	-0.430	0.710
2020/01/31 05:42:52.3	91.490	0.630	-0.370	0.760
2020/01/31 05:42:52.4	91.460	0.600	-0.310	0.800
2020/01/31 05:42:52.5	91.440	0.570	-0.250	0.840
2020/01/31 05:42:52.6	91.420	0.530	-0.190	0.890
2020/01/31 05:42:52.7	91.390	0.490	-0.130	0.930
2020/01/31 05:42:52.8	91.370	0.460	-0.070	0.960
2020/01/31 05:42:52.9	91.350	0.410	-0.020	1.000
2020/01/31 05:42:53.0	91.330	0.370	0.040	1.030
2020/01/31 05:42:53.1	91.310	0.330	0.090	1.060
2020/01/31 05:42:53.2	91.280	0.280	0.130	1.080
2020/01/31 05:42:53.3	91.260	0.240	0.180	1.090
2020/01/31 05:42:53.4	91.240	0.190	0.230	1.110
2020/01/31 05:42:53.5	91.230	0.150	0.270	1.120
2020/01/31 05:42:53.6	91.210	0.100	0.320	1.130
2020/01/31 05:42:53.7	91.200	0.050	0.360	1.130
2020/01/31 05:42:53.8	91.190	0.010	0.390	1.120
2020/01/31 05:42:53.9	91.180	-0.040	0.430	1.110
2020/01/31 05:42:54.0	91.170	-0.090	0.460	1.100
2020/01/31 05:42:54.1	91.170	-0.130	0.490	1.090
2020/01/31 05:42:54.2	91.170	-0.180	0.520	1.070
2020/01/31 05:42:54.3	91.170	-0.220	0.540	1.050
2020/01/31 05:42:54.4	91.170	-0.260	0.560	1.020
2020/01/31 05:42:54.5	91.180	-0.300	0.580	0.990
2020/01/31 05:42:54.6	91.190	-0.340	0.600	0.960
2020/01/31 05:42:54.7	91.210	-0.380	0.610	0.920
2020/01/31 05:42:54.8	91.230	-0.410	0.620	0.890
2020/01/31 05:42:54.9	91.250	-0.450	0.620	0.850
2020/01/31 05:42:55.0	91.280	-0.480	0.620	0.810
2020/01/31 05:42:55.1	91.300	-0.500	0.620	0.770
2020/01/31 05:42:55.2	91.340	-0.530	0.620	0.730
2020/01/31 05:42:55.3	91.380	-0.550	0.610	0.690
2020/01/31 05:42:55.4	91.410	-0.560	0.590	0.650
2020/01/31 05:42:55.5	91.450	-0.580	0.570	0.610
2020/01/31 05:42:55.6	91.490	-0.590	0.550	0.570
2020/01/31 05:42:55.7	91.530	-0.590	0.520	0.540
2020/01/31 05:42:55.8	91.570	-0.590	0.480	0.500
2020/01/31 05:42:55.9	91.610	-0.590	0.440	0.470
2020/01/31 05:42:56.0	91.650	-0.580	0.390	0.450
2020/01/31 05:42:56.1	91.690	-0.570	0.340	0.420
2020/01/31 05:42:56.2	91.740	-0.560	0.290	0.400
2020/01/31 05:42:56.3	91.780	-0.540	0.230	0.390
2020/01/31 05:42:56.4	91.810	-0.520	0.170	0.380
2020/01/31 05:42:56.5	91.850	-0.500	0.110	0.370
2020/01/31 05:42:56.6	91.880	-0.480	0.040	0.360
2020/01/31 05:42:56.7	91.920	-0.450	-0.030	0.360
2020/01/31 05:42:56.8	91.950	-0.420	-0.100	0.360
2020/01/31 05:42:56.9	91.970	-0.390	-0.170	0.370
2020/01/31 05:42:57.0	92.000	-0.360	-0.250	0.380
2020/01/31 05:42:57.1	92.020	-0.330	-0.320	0.390
2020/01/31 05:42:57.2	92.040	-0.290	-0.400	0.400
2020/01/31 05:42:57.3	92.060	-0.260	-0.470	0.420
2020/01/31 05:42:57.4	92.070	-0.230	-0.540	0.440
2020/01/31 05:42:57.5	92.080	-0.190	-0.610	0.460
2020/01/31 05:42:57.6	92.090	-0.160	-0.680	0.480
2020/01/31 05:42:57.7	92.100	-0.120	-0.740	0.500
2020/01/31 05:42:57.8	92.100	-0.090	-0.790	0.520
2020/01/31 05:42:57.9	92.100	-0.060	-0.840	0.530
2020/01/31 05:42:58.0	92.100	-0.030	-0.890	0.550
2020/01/31 05:42:58.1	92.100	-0.000	-0.930	0.570
2020/01/31 05:42:58.2	92.090	0.020	-0.960	0.590
2020/01/31 05:42:58.3	92.090	0.050	-0.990	0.610
2020/01/31 05:42:58.4	92.080	0.070	-1.010	0.620
2020/01/31 05:42:58.5	92.070	0.100	-1.020	0.640
2020/01/31 05:42:58.6	92.060	0.120	-1.030	0.650
2020/01/31 05:42:58.7	92.050	0.140	-1.030	0.670
2020/01/31 05:42:58.8	92.040	0.150	-1.020	0.680
2020/01/31 05:42:58.9	92.030	0.170	-1.000	0.690
2020/01/31 05:42:59.0	92.010	0.180	-0.970	0.710
2020/01/31 05:42:59.1	92.000	0.190	-0.940	0.720
2020/01/31 05:42:59.2	92.000	0.200	-0.900	0.730
2020/01/31 05:42:59.3	91.980	0.200	-0.860	0.740
2020/01/31 05:42:59.4	91.970	0.210	-0.810	0.760
2020/01/31 05:42:59.5	91.960	0.210	-0.750	0.770
2020/01/31 05:42:59.6	91.950	0.210	-0.690	0.780
2020/01/31 05:42:59.7	91.930	0.210	-0.630	0.800
2020/01/31 05:42:59.8	91.920	0.210	-0.560	0.810
2020/01/31 05:42:59.9	91.910	0.200	-0.500	0.820
2020/01/31 05:43:00.0	91.900	0.200	-0.430	0.840
2020/01/31 05:43:00.1	91.900	0.190	-0.360	0.850
2020/01/31 05:43:00.2	91.890	0.190	-0.290	0.860
2020/01/31 05:43:00.3	91.880	0.180	-0.220	0.870
2020/01/31 05:43:00.4	91.880	0.170	-0.160	0.880
2020/01/31 05:43:00.5	91.880	0.170	-0.100	0.890
2020/01/31 05:43:00.6	91.880	0.160	-0.050	0.890
2020/01/31 05:43:00.7	91.880	0.150	0.000	0.900
2020/01/31 05:43:00.8	91.890	0.140	0.050	0.900
2020/01/31 05:43:00.9	91.890	0.140	0.080	0.890
2020/01/31 05:43:01.0	91.900	0.130	0.120	0.880
2020/01/31 05:43:01.1	91.910	0.130	0.140	0.870
2020/01/31 05:43:01.2	91.930	0.130	0.150	0.850
2020/01/31 05:43:01.3	91.940	0.120	0.160	0.830
2020/01/31 05:43:01.4	91.950	0.120	0.170	0.800
2020/01/31 05:43:01.5	91.960	0.120	0.160	0.770
2020/01/31 05:43:01.6	91.970	0.120	0.150	0.740
2020/01/31 05:43:01.7	91.980	0.130	0.120	0.700
2020/01/31 05:43:01.8	91.990	0.130	0.100	0.670
2020/01/31 05:43:01.9	92.000	0.140	0.060	0.630
2020/01/31 05:43:02.0	92.010	0.150	0.020	0.590
2020/01/31 05:43:02.1	92.020	0.160	-0.020	0.550
2020/01/31 05:43:02.2	92.030	0.170	-0.080	0.510
2020/01/31 05:43:02.3	92.030	0.180	-0.130	0.470
2020/01/31 05:43:02.4	92.040	0.190	-0.190	0.440
2020/01/31 05:43:02.5	92.040	0.210	-0.250	0.400
2020/01/31 05:43:02.6	92.040	0.220	-0.310	0.370
2020/01/31 05:43:02.7	92.040	0.240	-0.370	0.340
2020/01/31 05:43:02.8	92.040	0.250	-0.430	0.320
2020/01/31 05:43:02.9	92.030	0.270	-0.490	0.290
2020/01/31 05:43:03.0	92.030	0.280	-0.550	0.280
2020/01/31 05:43:03.1	92.030	0.290	-0.600	0.260
2020/01/31 05:43:03.2	92.030	0.310	-0.650	0.240
2020/01/31 05:43:03.3	92.030	0.320	-0.690	0.230
2020/01/31 05:43:03.4	92.020	0.330	-0.730	0.220
2020/01/31 05:43:03.5	92.020	0.340	-0.760	0.220
2020/01/31 05:43:03.6	92.010	0.340	-0.790	0.220
2020/01/31 05:43:03.7	92.000	0.350	-0.800	0.220
2020/01/31 05:43:03.8	92.000	0.350	-0.810	0.230
2020/01/31 05:43:03.9	91.990	0.350	-0.810	0.240
2020/01/31 05:43:04.0	91.990	0.340	-0.790	0.250
2020/01/31 05:43:04.1	91.980	0.330	-0.770	0.260
2020/01/31 05:43:04.2	91.980	0.320	-0.750	0.280
2020/01/31 05:43:04.3	91.980	0.310	-0.710	0.300
2020/01/31 05:43:04.4	91.970	0.300	-0.660	0.320
2020/01/31 05:43:04.5	91.970	0.280	-0.610	0.350
2020/01/31 05:43:04.6	91.970	0.260	-0.550	0.370
2020/01/31 05:43:04.7	91.970	0.230	-0.490	0.400
2020/01/31 05:43:04.8	91.980	0.210	-0.410	0.420
2020/01/31 05:43:04.9	91.980	0.180	-0.340	0.440
2020/01/31 05:43:05.0	91.990	0.150	-0.260	0.470
2020/01/31 05:43:05.1	91.990	0.120	-0.180	0.490
2020/01/31 05:43:05.2	92.000	0.080	-0.100	0.510
2020/01/31 05:43:05.3	92.010	0.050	-0.020	0.530
2020/01/31 05:43:05.4	92.020	0.010	0.060	0.550
2020/01/31 05:43:05.5	92.040	-0.030	0.140	0.560
2020/01/31 05:43:05.6	92.050	-0.060	0.210	0.580
2020/01/31 05:43:05.7	92.070	-0.100	0.280	0.590
2020/01/31 05:43:05.8	92.090	-0.130	0.340	0.600
2020/01/31 05:43:05.9	92.110	-0.170	0.390	0.610
2020/01/31 05:43:06.0	92.130	-0.200	0.440	0.610
2020/01/31 05:43:06.1	92.150	-0.230	0.480	0.620
2020/01/31 05:43:06.2	92.170	-0.250	0.520	0.620
2020/01/31 05:43:06.3	92.190	-0.280	0.540	0.620
2020/01/31 05:43:06.4	92.220	-0.300	0.560	0.620
2020/01/31 05:43:06.5	92.240	-0.320	0.570	0.620
2020/01/31 05:43:06.6	92.260	-0.340	0.570	0.620
2020/01/31 05:43:06.7	92.280	-0.350	0.560	0.610
2020/01/31 05:43:06.8	92.300	-0.360	0.550	0.610
2020/01/31 05:43:06.9	92.320	-0.370	0.530	0.600
2020/01/31 05:43:07.0	92.330	-0.370	0.510	0.600
2020/01/31 05:43:07.1	92.350	-0.370	0.480	0.600
2020/01/31 05:43:07.2	92.370	-0.370	0.440	0.590
2020/01/31 05:43:07.3	92.380	-0.370	0.400	0.590
2020/01/31 05:43:07.4	92.390	-0.360	0.360	0.590
2020/01/31 05:43:07.5	92.400	-0.350	0.320	0.590
2020/01/31 05:43:07.6	92.400	-0.340	0.270	0.600
2020/01/31 05:43:07.7	92.410	-0.330	0.220	0.600
2020/01/31 05:43:07.8	92.410	-0.310	0.170	0.610
2020/01/31 05:43:07.9	92.410	-0.290	0.120	0.620
2020/01/31 05:43:08.0	92.410	-0.270	0.070	0.630
2020/01/31 05:43:08.1	92.410	-0.250	0.020	0.640
2020/01/31 05:43:08.2	92.410	-0.230	-0.030	0.650
2020/01/31 05:43:08.3	92.410	-0.210	-0.080	0.670
2020/01/31 05:43:08.4	92.410	-0.180	-0.140	0.680
2020/01/31 05:43:08.5	92.410	-0.160	-0.180	0.690
2020/01/31 05:43:08.6	92.410	-0.130	-0.230	0.700
2020/01/31 05:43:08.7	92.410	-0.110	-0.280	0.720
2020/01/31 05:43:08.8	92.410	-0.080	-0.330	0.730
2020/01/31 05:43:08.9	92.420	-0.050	-0.380	0.730
2020/01/31 05:43:09.0	92.420	-0.020	-0.420	0.740
2020/01/31 05:43:09.1	92.430	0.000	-0.470	0.740
2020/01/31 05:43:09.2	92.430	0.030	-0.510	0.740
2020/01/31 05:43:09.3	92.440	0.060	-0.550	0.740
2020/01/31 05:43:09.4	92.460	0.090	-0.590	0.730
2020/01/31 05:43:09.5	92.470	0.110	-0.630	0.720
2020/01/31 05:43:09.6	92.490	0.140	-0.660	0.710
2020/01/31 05:43:09.7	92.510	0.160	-0.690	0.690
2020/01/31 05:43:09.8	92.530	0.180	-0.720	0.670
2020/01/31 05:43:09.9	92.550	0.210	-0.740	0.660
2020/01/31 05:43:10.0	92.570	0.230	-0.770	0.640
2020/01/31 05:43:10.1	92.600	0.240	-0.780	0.610
2020/01/31 05:43:10.2	92.610	0.260	-0.800	0.590
2020/01/31 05:43:10.3	92.630	0.270	-0.810	0.570
2020/01/31 05:43:10.4	92.660	0.280	-0.810	0.550
2020/01/31 05:43:10.5	92.680	0.290	-0.810	0.530
2020/01/31 05:43:10.6	92.700	0.300	-0.800	0.510
2020/01/31 05:43:10.7	92.720	0.300	-0.780	0.490
2020/01/31 05:43:10.8	92.740	0.300	-0.770	0.480
2020/01/31 05:43:10.9	92.760	0.300	-0.740	0.470
2020/01/31 05:43:11.0	92.780	0.300	-0.710	0.460
2020/01/31 05:43:11.1	92.790	0.290	-0.670	0.450
2020/01/31 05:43:11.2	92.800	0.280	-0.630	0.450
2020/01/31 05:43:11.3	92.810	0.260	-0.590	0.450
2020/01/31 05:43:11.4	92.810	0.250	-0.540	0.450
2020/01/31 05:43:11.5	92.820	0.230	-0.490	0.450
2020/01/31 05:43:11.6	92.820	0.210	-0.430	0.450
2020/01/31 05:43:11.7	92.820	0.190	-0.370	0.460
2020/01/31 05:43:11.8	92.810	0.160	-0.310	0.460
2020/01/31 05:43:11.9	92.810	0.140	-0.250	0.470
2020/01/31 05:43:12.0	92.800	0.110	-0.180	0.470
2020/01/31 05:43:12.1	92.790	0.080	-0.120	0.480
2020/01/31 05:43:12.2	92.780	0.050	-0.050	0.480
2020/01/31 05:43:12.3	92.770	0.020	0.010	0.490
2020/01/31 05:43:12.4	92.750	-0.010	0.070	0.500
2020/01/31 05:43:12.5	92.730	-0.040	0.130	0.500
2020/01/31 05:43:12.6	92.710	-0.070	0.190	0.510
2020/01/31 05:43:12.7	92.690	-0.100	0.240	0.520
2020/01/31 05:43:12.8	92.660	-0.130	0.290	0.520
2020/01/31 05:43:12.9	92.640	-0.160	0.340	0.530
2020/01/31 05:43:13.0	92.620	-0.180	0.380	0.540
2020/01/31 05:43:13.1	92.590	-0.210	0.410	0.550
2020/01/31 05:43:13.2	92.580	-0.230	0.440	0.560
2020/01/31 05:43:13.3	92.560	-0.250	0.460	0.570
2020/01/31 05:43:13.4	92.530	-0.270	0.480	0.580
2020/01/31 05:43:13.5	92.510	-0.280	0.480	0.590
2020/01/31 05:43:13.6	92.480	-0.300	0.480	0.600
2020/01/31 05:43:13.7	92.460	-0.300	0.470	0.620
2020/01/31 05:43:13.8	92.440	-0.310	0.450	0.630
2020/01/31 05:43:13.9	92.430	-0.310	0.420	0.640
2020/01/31 05:43:14.0	92.410	-0.310	0.390	0.650
2020/01/31 05:43:14.1	92.400	-0.310	0.350	0.660
2020/01/31 05:43:14.2	92.380	-0.300	0.290	0.670
2020/01/31 05:43:14.3	92.380	-0.290	0.230	0.670
2020/01/31 05:43:14.4	92.370	-0.270	0.170	0.680
2020/01/31 05:43:14.5	92.370	-0.260	0.100	0.680
2020/01/31 05:43:14.6	92.370	-0.240	0.030	0.680
2020/01/31 05:43:14.7	92.380	-0.220	-0.050	0.680
2020/01/31 05:43:14.8	92.390	-0.190	-0.130	0.680
2020/01/31 05:43:14.9	92.400	-0.170	-0.210	0.670
2020/01/31 05:43:15.0	92.410	-0.140	-0.300	0.660
2020/01/31 05:43:15.1	92.430	-0.120	-0.380	0.650
2020/01/31 05:43:15.2	92.440	-0.090	-0.470	0.640
2020/01/31 05:43:15.3	92.460	-0.060	-0.550	0.620
2020/01/31 05:43:15.4	92.480	-0.030	-0.630	0.600
2020/01/31 05:43:15.5	92.500	-0.000	-0.710	0.580
2020/01/31 05:43:15.6	92.530	0.030	-0.780	0.550
2020/01/31 05:43:15.7	92.550	0.050	-0.850	0.520
2020/01/31 05:43:15.8	92.570	0.080	-0.910	0.490
2020/01/31 05:43:15.9	92.600	0.100	-0.960	0.470
2020/01/31 05:43:16.0	92.620	0.130	-1.010	0.440
2020/01/31 05:43:16.1	92.640	0.150	-1.050	0.410
2020/01/31 05:43:16.2	92.660	0.170	-1.080	0.390
2020/01/31 05:43:16.3	92.680	0.180	-1.100	0.370
2020/01/31 05:43:16.4	92.690	0.200	-1.110	0.350
2020/01/31 05:43:16.5	92.710	0.210	-1.100	0.340
2020/01/31 05:43:16.6	92.720	0.220	-1.090	0.330
2020/01/31 05:43:16.7	92.730	0.230	-1.070	0.320
2020/01/31 05:43:16.8	92.740	0.230	-1.040	0.330
2020/01/31 05:43:16.9	92.750	0.230	-0.990	0.330
2020/01/31 05:43:17.0	92.750	0.230	-0.940	0.350
2020/01/31 05:43:17.1	92.750	0.230	-0.880	0.360
2020/01/31 05:43:17.2	92.740	0.230	-0.820	0.390
2020/01/31 05:43:17.3	92.730	0.220	-0.750	0.420
2020/01/31 05:43:17.4	92.720	0.210	-0.670	0.450
2020/01/31 05:43:17.5	92.710	0.200	-0.590	0.490
2020/01/31 05:43:17.6	92.700	0.190	-0.500	0.530
2020/01/31 05:43:17.7	92.690	0.180	-0.420	0.570
2020/01/31 05:43:17.8	92.670	0.160	-0.330	0.610
2020/01/31 05:43:17.9	92.660	0.150	-0.240	0.650
2020/01/31 05:43:18.0	92.640	0.130	-0.150	0.700
2020/01/31 05:43:18.1	92.620	0.110	-0.070	0.740
2020/01/31 05:43:18.2	92.600	0.100	0.010	0.780
2020/01/31 05:43:18.3	92.580	0.080	0.090	0.820
2020/01/31 05:43:18.4	92.560	0.060	0.160	0.850
2020/01/31 05:43:18.5	92.550	0.050	0.220	0.880
2020/01/31 05:43:18.6	92.530	0.030	0.280	0.910
2020/01/31 05:43:18.7	92.520	0.020	0.330	0.930
2020/01/31 05:43:18.8	92.510	0.010	0.370	0.940
2020/01/31 05:43:18.9	92.500	-0.000	0.400	0.960
2020/01/31 05:43:19.0	92.500	-0.010	0.430	0.960
2020/01/31 05:43:19.1	92.490	-0.020	0.450	0.960
2020/01/31 05:43:19.2	92.500	-0.020	0.450	0.960
2020/01/31 05:43:19.3	92.500	-0.020	0.460	0.950
2020/01/31 05:43:19.4	92.500	-0.030	0.450	0.940
2020/01/31 05:43:19.5	92.500	-0.020	0.430	0.920
2020/01/31 05:43:19.6	92.510	-0.020	0.410	0.910
2020/01/31 05:43:19.7	92.510	-0.010	0.380	0.890
2020/01/31 05:43:19.8	92.520	-0.010	0.350	0.870
2020/01/31 05:43:19.9	92.530	0.000	0.310	0.850
2020/01/31 05:43:20.0	92.540	0.020	0.260	0.830
2020/01/31 05:43:20.1	92.550	0.030	0.210	0.820
2020/01/31 05:43:20.2	92.560	0.050	0.150	0.800
2020/01/31 05:43:20.3	92.570	0.060	0.090	0.780
2020/01/31 05:43:20.4	92.580	0.080	0.020	0.770
2020/01/31 05:43:20.5	92.590	0.100	-0.040	0.760
2020/01/31 05:43:20.6	92.600	0.120	-0.100	0.740
2020/01/31 05:43:20.7	92.600	0.140	-0.170	0.730
2020/01/31 05:43:20.8	92.610	0.160	-0.230	0.720
2020/01/31 05:43:20.9	92.620	0.180	-0.290	0.710
2020/01/31 05:43:21.0	92.630	0.200	-0.350	0.690
2020/01/31 05:43:21.1	92.630	0.220	-0.410	0.680
2020/01/31 05:43:21.2	92.640	0.230	-0.460	0.660
2020/01/31 05:43:21.3	92.640	0.250	-0.510	0.640
2020/01/31 05:43:21.4	92.650	0.260	-0.550	0.630
2020/01/31 05:43:21.5	92.650	0.270	-0.590	0.600
2020/01/31 05:43:21.6	92.660	0.270	-0.610	0.580
2020/01/31 05:43:21.7	92.660	0.280	-0.640	0.560
2020/01/31 05:43:21.8	92.660	0.280	-0.650	0.540
2020/01/31 05:43:21.9	92.660	0.280	-0.660	0.520
2020/01/31 05:43:22.0	92.670	0.270	-0.650	0.500
2020/01/31 05:43:22.1	92.670	0.260	-0.640	0.480
2020/01/31 05:43:22.2	92.660	0.250	-0.620	0.460
2020/01/31 05:43:22.3	92.660	0.240	-0.600	0.440
2020/01/31 05:43:22.4	92.660	0.220	-0.560	0.430
2020/01/31 05:43:22.5	92.660	0.200	-0.520	0.420
2020/01/31 05:43:22.6	92.660	0.170	-0.470	0.410
2020/01/31 05:43:22.7	92.660	0.150	-0.410	0.400
2020/01/31 05:43:22.8	92.660	0.120	-0.350	0.400
2020/01/31 05:43:22.9	92.660	0.090	-0.280	0.400
2020/01/31 05:43:23.0	92.660	0.060	-0.210	0.410
2020/01/31 05:43:23.1	92.660	0.020	-0.140	0.420
2020/01/31 05:43:23.2	92.670	-0.010	-0.060	0.440
2020/01/31 05:43:23.3	92.670	-0.050	0.010	0.450
2020/01/31 05:43:23.4	92.670	-0.080	0.090	0.470
2020/01/31 05:43:23.5	92.670	-0.120	0.160	0.500
2020/01/31 05:43:23.6	92.680	-0.150	0.240	0.520
2020/01/31 05:43:23.7	92.680	-0.190	0.300	0.550
2020/01/31 05:43:23.8	92.690	-0.220	0.360	0.580
2020/01/31 05:43:23.9	92.690	-0.250	0.420	0.620
2020/01/31 05:43:24.0	92.700	-0.280	0.460	0.650
2020/01/31 05:43:24.1	92.710	-0.310	0.500	0.680
2020/01/31 05:43:24.2	92.720	-0.330	0.530	0.710
2020/01/31 05:43:24.3	92.730	-0.350	0.540	0.740
2020/01/31 05:43:24.4	92.750	-0.360	0.550	0.770
2020/01/31 05:43:24.5	92.760	-0.380	0.540	0.790
2020/01/31 05:43:24.6	92.770	-0.380	0.520	0.820
2020/01/31 05:43:24.7	92.780	-0.390	0.490	0.840
2020/01/31 05:43:24.8	92.800	-0.390	0.450	0.860
2020/01/31 05:43:24.9	92.810	-0.380	0.400	0.870
2020/01/31 05:43:25.0	92.820	-0.370	0.340	0.880
2020/01/31 05:43:25.1	92.830	-0.360	0.270	0.890
2020/01/31 05:43:25.2	92.860	-0.340	0.190	0.900
2020/01/31 05:43:25.3	92.860	-0.320	0.100	0.900
2020/01/31 05:43:25.4	92.870	-0.300	0.010	0.910
2020/01/31 05:43:25.5	92.880	-0.270	-0.080	0.900
2020/01/31 05:43:25.6	92.880	-0.240	-0.180	0.900
2020/01/31 05:43:25.7	92.880	-0.210	-0.280	0.900
2020/01/31 05:43:25.8	92.880	-0.180	-0.380	0.900
2020/01/31 05:43:25.9	92.870	-0.150	-0.480	0.900
2020/01/31 05:43:26.0	92.860	-0.110	-0.580	0.900
2020/01/31 05:43:26.1	92.850	-0.080	-0.670	0.900
2020/01/31 05:43:26.2	92.830	-0.040	-0.770	0.900
2020/01/31 05:43:26.3	92.810	-0.010	-0.850	0.910
2020/01/31 05:43:26.4	92.790	0.020	-0.920	0.910
2020/01/31 05:43:26.5	92.770	0.060	-0.990	0.920
2020/01/31 05:43:26.6	92.750	0.090	-1.050	0.930
2020/01/31 05:43:26.7	92.720	0.110	-1.100	0.940
2020/01/31 05:43:26.8	92.690	0.140	-1.140	0.950
2020/01/31 05:43:26.9	92.670	0.160	-1.170	0.960
2020/01/31 05:43:27.0	92.640	0.190	-1.190	0.970
2020/01/31 05:43:27.1	92.620	0.200	-1.200	0.990
2020/01/31 05:43:27.2	92.570	0.220	-1.190	1.000
2020/01/31 05:43:27.3	92.540	0.230	-1.180	1.020
2020/01/31 05:43:27.4	92.520	0.240	-1.150	1.030
2020/01/31 05:43:27.5	92.500	0.240	-1.120	1.050
2020/01/31 05:43:27.6	92.480	0.240	-1.080	1.070
2020/01/31 05:43:27.7	92.460	0.240	-1.030	1.080
2020/01/31 05:43:27.8	92.440	0.240	-0.970	1.100
2020/01/31 05:43:27.9	92.430	0.230	-0.900	1.110
2020/01/31 05:43:28.0	92.420	0.220	-0.830	1.120
2020/01/31 05:43:28.1	92.410	0.200	-0.750	1.130
2020/01/31 05:43:28.2	92.400	0.180	-0.670	1.130
2020/01/31 05:43:28.3	92.390	0.160	-0.580	1.130
2020/01/31 05:43:28.4	92.390	0.140	-0.490	1.140
2020/01/31 05:43:28.5	92.390	0.120	-0.400	1.130
2020/01/31 05:43:28.6	92.390	0.090	-0.310	1.130
2020/01/31 05:43:28.7	92.400	0.060	-0.220	1.120
2020/01/31 05:43:28.8	92.400	0.030	-0.130	1.110
2020/01/31 05:43:28.9	92.410	0.000	-0.040	1.090
2020/01/31 05:43:29.0	92.420	-0.030	0.050	1.070
2020/01/31 05:43:29.1	92.430	-0.060	0.130	1.050
2020/01/31 05:43:29.2	92.450	-0.090	0.210	1.030
2020/01/31 05:43:29.3	92.460	-0.120	0.290	1.000
2020/01/31 05:43:29.4	92.480	-0.150	0.360	0.970
2020/01/31 05:43:29.5	92.490	-0.180	0.430	0.930
2020/01/31 05:43:29.6	92.500	-0.210	0.490	0.890
2020/01/31 05:43:29.7	92.520	-0.240	0.540	0.860
2020/01/31 05:43:29.8	92.530	-0.260	0.590	0.820
2020/01/31 05:43:29.9	92.540	-0.290	0.620	0.770
2020/01/31 05:43:30.0	92.560	-0.310	0.650	0.730
2020/01/31 05:43:30.1	92.570	-0.330	0.680	0.690
2020/01/31 05:43:30.2	92.600	-0.340	0.690	0.650
2020/01/31 05:43:30.3	92.610	-0.360	0.690	0.610
2020/01/31 05:43:30.4	92.620	-0.370	0.680	0.570
2020/01/31 05:43:30.5	92.630	-0.370	0.670	0.530
2020/01/31 05:43:30.6	92.640	-0.370	0.640	0.490
2020/01/31 05:43:30.7	92.650	-0.370	0.610	0.450
2020/01/31 05:43:30.8	92.650	-0.370	0.560	0.410
2020/01/31 05:43:30.9	92.660	-0.360	0.510	0.380
2020/01/31 05:43:31.0	92.670	-0.350	0.450	0.350
2020/01/31 05:43:31.1	92.670	-0.340	0.390	0.320
2020/01/31 05:43:31.2	92.700	-0.320	0.310	0.300
2020/01/31 05:43:31.3	92.710	-0.300	0.240	0.280
2020/01/31 05:43:31.4	92.710	-0.280	0.160	0.260
2020/01/31 05:43:31.5	92.710	-0.260	0.070	0.250
2020/01/31 05:43:31.6	92.720	-0.230	-0.020	0.240
2020/01/31 05:43:31.7	92.720	-0.200	-0.110	0.230
2020/01/31 05:43:31.8	92.730	-0.170	-0.200	0.230
2020/01/31 05:43:31.9	92.730	-0.140	-0.290	0.220
2020/01/31 05:43:32.0	92.730	-0.110	-0.380	0.230
2020/01/31 05:43:32.1	92.730	-0.070	-0.460	0.230
2020/01/31 05:43:32.2	92.720	-0.040	-0.550	0.230
2020/01/31 05:43:32.3	92.720	-0.000	-0.630	0.240
2020/01/31 05:43:32.4	92.720	0.030	-0.710	0.250
2020/01/31 05:43:32.5	92.710	0.060	-0.770	0.270
2020/01/31 05:43:32.6	92.710	0.100	-0.830	0.280
2020/01/31 05:43:32.7	92.700	0.130	-0.890	0.300
2020/01/31 05:43:32.8	92.700	0.160	-0.930	0.310
2020/01/31 05:43:32.9	92.690	0.190	-0.970	0.330
2020/01/31 05:43:33.0	92.680	0.220	-0.990	0.350
2020/01/31 05:43:33.1	92.670	0.240	-1.010	0.360
2020/01/31 05:43:33.2	92.650	0.270	-1.020	0.380
2020/01/31 05:43:33.3	92.640	0.290	-1.020	0.400
2020/01/31 05:43:33.4	92.620	0.310	-1.010	0.410
2020/01/31 05:43:33.5	92.610	0.320	-0.980	0.430
2020/01/31 05:43:33.6	92.600	0.330	-0.950	0.450
2020/01/31 05:43:33.7	92.590	0.340	-0.910	0.470
2020/01/31 05:43:33.8	92.580	0.350	-0.870	0.480
2020/01/31 05:43:33.9	92.570	0.350	-0.810	0.500
2020/01/31 05:43:34.0	92.560	0.350	-0.750	0.520
2020/01/31 05:43:34.1	92.550	0.340	-0.680	0.530
2020/01/31 05:43:34.2	92.530	0.340	-0.610	0.550
2020/01/31 05:43:34.3	92.520	0.330	-0.530	0.570
2020/01/31 05:43:34.4	92.510	0.310	-0.450	0.580
2020/01/31 05:43:34.5	92.510	0.290	-0.370	0.600
2020/01/31 05:43:34.6	92.500	0.280	-0.280	0.610
2020/01/31 05:43:34.7	92.500	0.250	-0.200	0.630
2020/01/31 05:43:34.8	92.500	0.230	-0.120	0.650
2020/01/31 05:43:34.9	92.490	0.200	-0.040	0.660
2020/01/31 05:43:35.0	92.490	0.180	0.040	0.680
2020/01/31 05:43:35.1	92.490	0.150	0.120	0.700
2020/01/31 05:43:35.2	92.480	0.120	0.190	0.710
2020/01/31 05:43:35.3	92.480	0.090	0.250	0.730
2020/01/31 05:43:35.4	92.480	0.070	0.310	0.740
2020/01/31 05:43:35.5	92.480	0.040	0.360	0.760
2020/01/31 05:43:35.6	92.490	0.010	0.400	0.770
2020/01/31 05:43:35.7	92.490	-0.010	0.430	0.780
2020/01/31 05:43:35.8	92.490	-0.040	0.450	0.800
2020/01/31 05:43:35.9	92.490	-0.060	0.470	0.800
2020/01/31 05:43:36.0	92.490	-0.070	0.470	0.810
2020/01/31 05:43:36.1	92.490	-0.090	0.470	0.820
2020/01/31 05:43:36.2	92.490	-0.100	0.450	0.820
2020/01/31 05:43:36.3	92.490	-0.100	0.430	0.830
2020/01/31 05:43:36.4	92.490	-0.110	0.390	0.830
2020/01/31 05:43:36.5	92.490	-0.110	0.350	0.820
2020/01/31 05:43:36.6	92.490	-0.100	0.300	0.820
2020/01/31 05:43:36.7	92.490	-0.100	0.240	0.810
2020/01/31 05:43:36.8	92.490	-0.090	0.180	0.800
2020/01/31 05:43:36.9	92.490	-0.070	0.120	0.790
2020/01/31 05:43:37.0	92.500	-0.060	0.050	0.780
2020/01/31 05:43:37.1	92.500	-0.040	-0.020	0.770
2020/01/31 05:43:37.2	92.520	-0.020	-0.090	0.760
2020/01/31 05:43:37.3	92.520	-0.000	-0.160	0.750
2020/01/31 05:43:37.4	92.520	0.020	-0.230	0.740
2020/01/31 05:43:37.5	92.530	0.040	-0.300	0.730
2020/01/31 05:43:37.6	92.530	0.060	-0.360	0.730
2020/01/31 05:43:37.7	92.530	0.070	-0.410	0.730
2020/01/31 05:43:37.8	92.520	0.090	-0.460	0.730
2020/01/31 05:43:37.9	92.520	0.110	-0.510	0.740
2020/01/31 05:43:38.0	92.520	0.120	-0.550	0.750
2020/01/31 05:43:38.1	92.510	0.130	-0.580	0.760
2020/01/31 05:43:38.2	92.500	0.140	-0.600	0.770
2020/01/31 05:43:38.3	92.500	0.150	-0.620	0.790
2020/01/31 05:43:38.4	92.490	0.150	-0.630	0.810
2020/01/31 05:43:38.5	92.480	0.150	-0.630	0.830
2020/01/31 05:43:38.6	92.470	0.150	-0.630	0.840
2020/01/31 05:43:38.7	92.460	0.140	-0.610	0.860
2020/01/31 05:43:38.8	92.440	0.140	-0.600	0.880
2020/01/31 05:43:38.9	92.430	0.120	-0.570	0.900
2020/01/31 05:43:39.0	92.420	0.110	-0.550	0.920
2020/01/31 05:43:39.1	92.410	0.090	-0.520	0.940
2020/01/31 05:43:39.2	92.370	0.080	-0.480	0.950
2020/01/31 05:43:39.3	92.360	0.050	-0.440	0.970
2020/01/31 05:43:39.4	92.340	0.030	-0.400	0.980
2020/01/31 05:43:39.5	92.330	0.010	-0.360	0.980
2020/01/31 05:43:39.6	92.320	-0.020	-0.320	0.990
2020/01/31 05:43:39.7	92.320	-0.040	-0.280	0.990
2020/01/31 05:43:39.8	92.310	-0.060	-0.240	0.990
2020/01/31 05:43:39.9	92.310	-0.090	-0.210	0.990
2020/01/31 05:43:40.0	92.300	-0.110	-0.170	0.990
2020/01/31 05:43:40.1	92.300	-0.140	-0.140	0.980
2020/01/31 05:43:40.2	92.300	-0.160	-0.110	0.970
2020/01/31 05:43:40.3	92.300	-0.180	-0.080	0.960
2020/01/31 05:43:40.4	92.300	-0.200	-0.060	0.960
2020/01/31 05:43:40.5	92.310	-0.210	-0.040	0.950
2020/01/31 05:43:40.6	92.320	-0.230	-0.030	0.930
2020/01/31 05:43:40.7	92.320	-0.240	-0.010	0.920
2020/01/31 05:43:40.8	92.330	-0.250	-0.010	0.910
2020/01/31 05:43:40.9	92.340	-0.250	-0.000	0.900
2020/01/31 05:43:41.0	92.360	-0.260	-0.000	0.880
2020/01/31 05:43:41.1	92.370	-0.260	-0.010	0.870
2020/01/31 05:43:41.2	92.390	-0.260	-0.010	0.860
2020/01/31 05:43:41.3	92.400	-0.250	-0.020	0.840
2020/01/31 05:43:41.4	92.420	-0.240	-0.040	0.820
2020/01/31 05:43:41.5	92.430	-0.230	-0.050	0.810
2020/01/31 05:43:41.6	92.440	-0.220	-0.070	0.790
2020/01/31 05:43:41.7	92.460	-0.210	-0.090	0.770
2020/01/31 05:43:41.8	92.470	-0.190	-0.110	0.750
2020/01/31 05:43:41.9	92.480	-0.170	-0.130	0.730
2020/01/31 05:43:42.0	92.490	-0.150	-0.160	0.720
2020/01/31 05:43:42.1	92.500	-0.120	-0.180	0.700
2020/01/31 05:43:42.2	92.510	-0.100	-0.210	0.680
2020/01/31 05:43:42.3	92.520	-0.070	-0.240	0.670
2020/01/31 05:43:42.4	92.520	-0.040	-0.260	0.660
2020/01/31 05:43:42.5	92.520	-0.010	-0.290	0.650
2020/01/31 05:43:42.6	92.520	0.020	-0.320	0.640
2020/01/31 05:43:42.7	92.520	0.050	-0.350	0.630
2020/01/31 05:43:42.8	92.520	0.080	-0.370	0.620
2020/01/31 05:43:42.9	92.510	0.110	-0.390	0.620
2020/01/31 05:43:43.0	92.500	0.140	-0.420	0.620
2020/01/31 05:43:43.1	92.490	0.170	-0.440	0.620
2020/01/31 05:43:43.2	92.480	0.200	-0.450	0.620
2020/01/31 05:43:43.3	92.460	0.220	-0.460	0.630
2020/01/31 05:43:43.4	92.440	0.240	-0.470	0.640
2020/01/31 05:43:43.5	92.420	0.260	-0.480	0.650
2020/01/31 05:43:43.6	92.390	0.280	-0.480	0.660
2020/01/31 05:43:43.7	92.370	0.290	-0.480	0.670
2020/01/31 05:43:43.8	92.340	0.300	-0.470	0.690
2020/01/31 05:43:43.9	92.310	0.310	-0.460	0.710
2020/01/31 05:43:44.0	92.270	0.310	-0.440	0.730
2020/01/31 05:43:44.1	92.240	0.310	-0.420	0.750
2020/01/31 05:43:44.2	92.190	0.300	-0.400	0.770
2020/01/31 05:43:44.3	92.150	0.290	-0.370	0.800
2020/01/31 05:43:44.4	92.120	0.270	-0.330	0.820
2020/01/31 05:43:44.5	92.080	0.250	-0.300	0.840
2020/01/31 05:43:44.6	92.040	0.230	-0.260	0.860
2020/01/31 05:43:44.7	92.010	0.210	-0.220	0.880
2020/01/31 05:43:44.8	91.970	0.180	-0.180	0.890
2020/01/31 05:43:44.9	91.940	0.140	-0.140	0.910
2020/01/31 05:43:45.0	91.900	0.110	-0.100	0.920
2020/01/31 05:43:45.1	91.870	0.070	-0.060	0.930
2020/01/31 05:43:45.2	91.840	0.040	-0.020	0.930
2020/01/31 05:43:45.3	91.820	-0.000	0.010	0.930
2020/01/31 05:43:45.4	91.800	-0.040	0.040	0.930
2020/01/31 05:43:45.5	91.780	-0.080	0.070	0.920
2020/01/31 05:43:45.6	91.760	-0.120	0.100	0.910
2020/01/31 05:43:45.7	91.750	-0.160	0.110	0.900
2020/01/31 05:43:45.8	91.750	-0.200	0.130	0.880
2020/01/31 05:43:45.9	91.740	-0.230	0.130	0.860
2020/01/31 05:43:46.0	91.740	-0.260	0.140	0.830
2020/01/31 05:43:46.1	91.750	-0.290	0.130	0.810
2020/01/31 05:43:46.2	91.760	-0.320	0.120	0.780
2020/01/31 05:43:46.3	91.770	-0.340	0.110	0.750
2020/01/31 05:43:46.4	91.780	-0.360	0.090	0.730
2020/01/31 05:43:46.5	91.790	-0.370	0.060	0.700
2020/01/31 05:43:46.6	91.810	-0.380	0.030	0.680
2020/01/31 05:43:46.7	91.830	-0.380	-0.010	0.650
2020/01/31 05:43:46.8	91.850	-0.380	-0.050	0.630
2020/01/31 05:43:46.9	91.870	-0.380	-0.090	0.610
2020/01/31 05:43:47.0	91.890	-0.370	-0.130	0.590
2020/01/31 05:43:47.1	91.910	-0.360	-0.180	0.580
2020/01/31 05:43:47.2	91.940	-0.340	-0.230	0.560
2020/01/31 05:43:47.3	91.960	-0.320	-0.280	0.550
2020/01/31 05:43:47.4	91.980	-0.300	-0.320	0.550
2020/01/31 05:43:47.5	92.000	-0.270	-0.370	0.540
2020/01/31 05:43:47.6	92.020	-0.250	-0.410	0.540
2020/01/31 05:43:47.7	92.040	-0.220	-0.450	0.540
2020/01/31 05:43:47.8	92.060	-0.190	-0.480	0.550
2020/01/31 05:43:47.9	92.080	-0.160	-0.510	0.550
2020/01/31 05:43:48.0	92.100	-0.130	-0.540	0.560
2020/01/31 05:43:48.1	92.110	-0.100	-0.560	0.580
2020/01/31 05:43:48.2	92.130	-0.070	-0.580	0.590
2020/01/31 05:43:48.3	92.140	-0.050	-0.590	0.610
2020/01/31 05:43:48.4	92.150	-0.020	-0.600	0.630
2020/01/31 05:43:48.5	92.160	0.000	-0.600	0.650
2020/01/31 05:43:48.6	92.170	0.020	-0.600	0.680
2020/01/31 05:43:48.7	92.180	0.040	-0.590	0.700
2020/01/31 05:43:48.8	92.180	0.060	-0.580	0.730
2020/01/31 05:43:48.9	92.190	0.080	-0.560	0.760
2020/01/31 05:43:49.0	92.190	0.090	-0.540	0.790
2020/01/31 05:43:49.1	92.190	0.100	-0.510	0.820
2020/01/31 05:43:49.2	92.180	0.100	-0.490	0.850
2020/01/31 05:43:49.3	92.170	0.110	-0.460	0.880
2020/01/31 05:43:49.4	92.170	0.110	-0.420	0.910
2020/01/31 05:43:49.5	92.160	0.110	-0.390	0.940
2020/01/31 05:43:49.6	92.150	0.110	-0.350	0.970
2020/01/31 05:43:49.7	92.130	0.100	-0.310	1.010
2020/01/31 05:43:49.8	92.120	0.090	-0.270	1.040
2020/01/31 05:43:49.9	92.100	0.090	-0.230	1.070
2020/01/31 05:43:50.0	92.080	0.080	-0.190	1.100
2020/01/31 05:43:50.1	92.060	0.070	-0.140	1.140
2020/01/31 05:43:50.2	92.030	0.050	-0.100	1.170
2020/01/31 05:43:50.3	92.010	0.040	-0.060	1.200
2020/01/31 05:43:50.4	91.980	0.030	-0.020	1.230
2020/01/31 05:43:50.5	91.960	0.010	0.030	1.250
2020/01/31 05:43:50.6	91.930	-0.010	0.070	1.280
2020/01/31 05:43:50.7	91.900	-0.030	0.110	1.300
2020/01/31 05:43:50.8	91.870	-0.050	0.150	1.320
2020/01/31 05:43:50.9	91.840	-0.070	0.190	1.340
2020/01/31 05:43:51.0	91.820	-0.090	0.230	1.350
2020/01/31 05:43:51.1	91.790	-0.110	0.270	1.370
2020/01/31 05:43:51.2	91.760	-0.140	0.310	1.370
2020/01/31 05:43:51.3	91.740	-0.160	0.340	1.380
2020/01/31 05:43:51.4	91.710	-0.180	0.370	1.380
2020/01/31 05:43:51.5	91.690	-0.200	0.400	1.370
2020/01/31 05:43:51.6	91.670	-0.230	0.430	1.360
2020/01/31 05:43:51.7	91.650	-0.250	0.440	1.350
2020/01/31 05:43:51.8	91.630	-0.270	0.460	1.330
2020/01/31 05:43:51.9	91.610	-0.280	0.460	1.310
2020/01/31 05:43:52.0	91.600	-0.300	0.460	1.280
2020/01/31 05:43:52.1	91.590	-0.310	0.450	1.240
2020/01/31 05:43:52.2	91.570	-0.320	0.440	1.200
2020/01/31 05:43:52.3	91.570	-0.320	0.420	1.150
2020/01/31 05:43:52.4	91.560	-0.320	0.380	1.100
2020/01/31 05:43:52.5	91.560	-0.310	0.340	1.050
2020/01/31 05:43:52.6	91.560	-0.300	0.280	0.990
2020/01/31 05:43:52.7	91.560	-0.290	0.220	0.930
2020/01/31 05:43:52.8	91.570	-0.270	0.150	0.860
2020/01/31 05:43:52.9	91.580	-0.240	0.070	0.800
2020/01/31 05:43:53.0	91.580	-0.210	-0.020	0.730
2020/01/31 05:43:53.1	91.590	-0.170	-0.110	0.660
2020/01/31 05:43:53.2	91.600	-0.130	-0.220	0.600
2020/01/31 05:43:53.3	91.610	-0.080	-0.320	0.530
2020/01/31 05:43:53.4	91.620	-0.030	-0.430	0.480
2020/01/31 05:43:53.5	91.630	0.030	-0.530	0.420
2020/01/31 05:43:53.6	91.640	0.090	-0.640	0.370
2020/01/31 05:43:53.7	91.650	0.150	-0.750	0.320
2020/01/31 05:43:53.8	91.650	0.210	-0.850	0.280
2020/01/31 05:43:53.9	91.660	0.280	-0.950	0.250
2020/01/31 05:43:54.0	91.660	0.340	-1.050	0.220
2020/01/31 05:43:54.1	91.670	0.410	-1.140	0.190
2020/01/31 05:43:54.2	91.680	0.470	-1.220	0.170
2020/01/31 05:43:54.3	91.680	0.530	-1.290	0.160
2020/01/31 05:43:54.4	91.680	0.590	-1.350	0.140
2020/01/31 05:43:54.5	91.690	0.640	-1.400	0.140
2020/01/31 05:43:54.6	91.690	0.690	-1.440	0.130
2020/01/31 05:43:54.7	91.700	0.740	-1.460	0.130
2020/01/31 05:43:54.8	91.710	0.780	-1.480	0.140
2020/01/31 05:43:54.9	91.710	0.820	-1.480	0.150
2020/01/31 05:43:55.0	91.720	0.840	-1.470	0.160
2020/01/31 05:43:55.1	91.720	0.870	-1.440	0.180
2020/01/31 05:43:55.2	91.730	0.880	-1.410	0.200
2020/01/31 05:43:55.3	91.730	0.890	-1.360	0.220
2020/01/31 05:43:55.4	91.730	0.890	-1.300	0.250
2020/01/31 05:43:55.5	91.740	0.880	-1.230	0.280
2020/01/31 05:43:55.6	91.740	0.870	-1.150	0.320
2020/01/31 05:43:55.7	91.740	0.850	-1.060	0.350
2020/01/31 05:43:55.8	91.740	0.820	-0.960	0.400
2020/01/31 05:43:55.9	91.740	0.780	-0.860	0.440
2020/01/31 05:43:56.0	91.730	0.740	-0.740	0.490
2020/01/31 05:43:56.1	91.730	0.690	-0.630	0.530
2020/01/31 05:43:56.2	91.720	0.630	-0.500	0.580
2020/01/31 05:43:56.3	91.710	0.570	-0.370	0.640
2020/01/31 05:43:56.4	91.700	0.510	-0.240	0.690
2020/01/31 05:43:56.5	91.690	0.440	-0.110	0.750
2020/01/31 05:43:56.6	91.670	0.360	0.020	0.800
2020/01/31 05:43:56.7	91.660	0.280	0.150	0.860
2020/01/31 05:43:56.8	91.640	0.200	0.280	0.920
2020/01/31 05:43:56.9	91.630	0.120	0.410	0.980
2020/01/31 05:43:57.0	91.610	0.040	0.530	1.030
2020/01/31 05:43:57.1	91.590	-0.040	0.650	1.080
2020/01/31 05:43:57.2	91.570	-0.130	0.760	1.140
2020/01/31 05:43:57.3	91.550	-0.210	0.860	1.190
2020/01/31 05:43:57.4	91.530	-0.290	0.960	1.230
2020/01/31 05:43:57.5	91.520	-0.370	1.050	1.270
2020/01/31 05:43:57.6	91.500	-0.440	1.130	1.310
2020/01/31 05:43:57.7	91.490	-0.510	1.200	1.340
2020/01/31 05:43:57.8	91.470	-0.580	1.260	1.360
2020/01/31 05:43:57.9	91.460	-0.650	1.310	1.380
2020/01/31 05:43:58.0	91.450	-0.710	1.340	1.400
2020/01/31 05:43:58.1	91.450	-0.760	1.370	1.410
2020/01/31 05:43:58.2	91.440	-0.810	1.380	1.410
2020/01/31 05:43:58.3	91.440	-0.850	1.370	1.410
2020/01/31 05:43:58.4	91.440	-0.880	1.350	1.410
2020/01/31 05:43:58.5	91.440	-0.910	1.320	1.400
2020/01/31 05:43:58.6	91.440	-0.930	1.270	1.390
2020/01/31 05:43:58.7	91.440	-0.940	1.210	1.380
2020/01/31 05:43:58.8	91.440	-0.940	1.140	1.360
2020/01/31 05:43:58.9	91.440	-0.940	1.050	1.340
2020/01/31 05:43:59.0	91.440	-0.930	0.960	1.330
2020/01/31 05:43:59.1	91.450	-0.910	0.850	1.310
2020/01/31 05:43:59.2	91.450	-0.890	0.730	1.280
2020/01/31 05:43:59.3	91.460	-0.860	0.610	1.260
2020/01/31 05:43:59.4	91.460	-0.820	0.480	1.240
2020/01/31 05:43:59.5	91.470	-0.780	0.340	1.210
2020/01/31 05:43:59.6	91.480	-0.740	0.200	1.190
2020/01/31 05:43:59.7	91.480	-0.690	0.050	1.170
2020/01/31 05:43:59.8	91.490	-0.630	-0.090	1.140
2020/01/31 05:43:59.9	91.490	-0.580	-0.230	1.120
2020/01/31 05:44:00.0	91.500	-0.520	-0.380	1.090
2020/01/31 05:44:00.1	91.510	-0.460	-0.510	1.060
2020/01/31 05:44:00.2	91.490	-0.390	-0.660	1.030
2020/01/31 05:44:00.3	91.500	-0.330	-0.790	1.010
2020/01/31 05:44:00.4	91.510	-0.270	-0.910	0.980
2020/01/31 05:44:00.5	91.510	-0.210	-1.010	0.960
2020/01/31 05:44:00.6	91.510	-0.140	-1.110	0.930
2020/01/31 05:44:00.7	91.520	-0.080	-1.200	0.910
2020/01/31 05:44:00.8	91.520	-0.030	-1.280	0.880
2020/01/31 05:44:00.9	91.520	0.030	-1.340	0.860
2020/01/31 05:44:01.0	91.520	0.080	-1.390	0.840
2020/01/31 05:44:01.1	91.520	0.130	-1.430	0.820
2020/01/31 05:44:01.2	91.500	0.170	-1.460	0.800
2020/01/31 05:44:01.3	91.500	0.210	-1.470	0.790
2020/01/31 05:44:01.4	91.500	0.250	-1.470	0.770
2020/01/31 05:44:01.5	91.500	0.280	-1.460	0.760
2020/01/31 05:44:01.6	91.500	0.310	-1.440	0.750
2020/01/31 05:44:01.7	91.500	0.330	-1.400	0.730
2020/01/31 05:44:01.8	91.490	0.350	-1.360	0.720
2020/01/31 05:44:01.9	91.490	0.360	-1.310	0.710
2020/01/31 05:44:02.0	91.490	0.370	-1.250	0.710
2020/01/31 05:44:02.1	91.490	0.380	-1.180	0.700
2020/01/31 05:44:02.2	91.490	0.380	-1.110	0.690
2020/01/31 05:44:02.3	91.490	0.380	-1.040	0.680
2020/01/31 05:44:02.4	91.490	0.380	-0.960	0.670
2020/01/31 05:44:02.5	91.490	0.370	-0.880	0.670
2020/01/31 05:44:02.6	91.490	0.360	-0.800	0.660
2020/01/31 05:44:02.7	91.490	0.350	-0.720	0.650
2020/01/31 05:44:02.8	91.490	0.340	-0.650	0.640
2020/01/31 05:44:02.9	91.490	0.330	-0.570	0.620
2020/01/31 05:44:03.0	91.490	0.310	-0.500	0.610
2020/01/31 05:44:03.1	91.490	0.300	-0.420	0.600
2020/01/31 05:44:03.2	91.500	0.280	-0.350	0.590
2020/01/31 05:44:03.3	91.510	0.260	-0.290	0.580
2020/01/31 05:44:03.4	91.510	0.250	-0.220	0.570
2020/01/31 05:44:03.5	91.510	0.230	-0.160	0.560
2020/01/31 05:44:03.6	91.520	0.210	-0.110	0.550
2020/01/31 05:44:03.7	91.520	0.200	-0.050	0.540
2020/01/31 05:44:03.8	91.520	0.180	-0.000	0.540
2020/01/31 05:44:03.9	91.520	0.160	0.050	0.540
2020/01/31 05:44:04.0	91.520	0.150	0.090	0.540
2020/01/31 05:44:04.1	91.510	0.130	0.130	0.540
2020/01/31 05:44:04.2	91.510	0.120	0.170	0.550
2020/01/31 05:44:04.3	91.510	0.110	0.200	0.560
2020/01/31 05:44:04.4	91.500	0.100	0.230	0.570
2020/01/31 05:44:04.5	91.500	0.080	0.250	0.580
2020/01/31 05:44:04.6	91.490	0.070	0.280	0.600
2020/01/31 05:44:04.7	91.480	0.070	0.290	0.610
2020/01/31 05:44:04.8	91.470	0.060	0.310	0.630
2020/01/31 05:44:04.9	91.460	0.050	0.320	0.650
2020/01/31 05:44:05.0	91.450	0.040	0.320	0.660
2020/01/31 05:44:05.1	91.440	0.040	0.320	0.680
2020/01/31 05:44:05.2	91.420	0.030	0.320	0.700
2020/01/31 05:44:05.3	91.410	0.030	0.310	0.710
2020/01/31 05:44:05.4	91.400	0.030	0.300	0.730
2020/01/31 05:44:05.5	91.400	0.030	0.290	0.750
2020/01/31 05:44:05.6	91.390	0.020	0.270	0.760
2020/01/31 05:44:05.7	91.380	0.020	0.250	0.780
2020/01/31 05:44:05.8	91.380	0.020	0.230	0.790
2020/01/31 05:44:05.9	91.370	0.020	0.200	0.810
2020/01/31 05:44:06.0	91.370	0.020	0.170	0.820
2020/01/31 05:44:06.1	91.360	0.020	0.140	0.840
2020/01/31 05:44:06.2	91.370	0.020	0.100	0.860
2020/01/31 05:44:06.3	91.360	0.010	0.070	0.870
2020/01/31 05:44:06.4	91.360	0.010	0.030	0.890
2020/01/31 05:44:06.5	91.350	0.010	-0.010	0.900
2020/01/31 05:44:06.6	91.350	0.010	-0.040	0.920
2020/01/31 05:44:06.7	91.340	0.010	-0.080	0.940
2020/01/31 05:44:06.8	91.330	0.000	-0.130	0.950
2020/01/31 05:44:06.9	91.320	-0.000	-0.170	0.970
2020/01/31 05:44:07.0	91.310	-0.000	-0.210	0.980
2020/01/31 05:44:07.1	91.300	-0.010	-0.250	1.000
2020/01/31 05:44:07.2	91.300	-0.010	-0.290	1.010
2020/01/31 05:44:07.3	91.290	-0.010	-0.330	1.020
2020/01/31 05:44:07.4	91.280	-0.020	-0.370	1.030
2020/01/31 05:44:07.5	91.270	-0.020	-0.410	1.040
2020/01/31 05:44:07.6	91.260	-0.020	-0.450	1.040
2020/01/31 05:44:07.7	91.260	-0.020	-0.490	1.050
2020/01/31 05:44:07.8	91.250	-0.020	-0.520	1.050
2020/01/31 05:44:07.9	91.240	-0.030	-0.550	1.050
2020/01/31 05:44:08.0	91.240	-0.030	-0.570	1.050
2020/01/31 05:44:08.1	91.230	-0.030	-0.600	1.040
2020/01/31 05:44:08.2	91.230	-0.030	-0.620	1.030
2020/01/31 05:44:08.3	91.220	-0.030	-0.630	1.030
2020/01/31 05:44:08.4	91.220	-0.030	-0.640	1.020
2020/01/31 05:44:08.5	91.220	-0.020	-0.640	1.020
2020/01/31 05:44:08.6	91.220	-0.020	-0.650	1.010
2020/01/31 05:44:08.7	91.220	-0.020	-0.640	1.000
2020/01/31 05:44:08.8	91.210	-0.020	-0.630	1.000
2020/01/31 05:44:08.9	91.210	-0.020	-0.620	0.990
2020/01/31 05:44:09.0	91.210	-0.010	-0.600	0.990
2020/01/31 05:44:09.1	91.210	-0.010	-0.580	0.980
2020/01/31 05:44:09.2	91.210	-0.010	-0.560	0.980
2020/01/31 05:44:09.3	91.200	-0.000	-0.530	0.980
2020/01/31 05:44:09.4	91.200	0.000	-0.500	0.980
2020/01/31 05:44:09.5	91.200	0.010	-0.460	0.980
2020/01/31 05:44:09.6	91.200	0.010	-0.420	0.980
2020/01/31 05:44:09.7	91.190	0.020	-0.380	0.980
2020/01/31 05:44:09.8	91.190	0.020	-0.340	0.990
2020/01/31 05:44:09.9	91.190	0.030	-0.300	0.990
2020/01/31 05:44:10.0	91.190	0.030	-0.250	0.990
2020/01/31 05:44:10.1	91.190	0.030	-0.210	1.000
2020/01/31 05:44:10.2	91.180	0.040	-0.160	1.000
2020/01/31 05:44:10.3	91.180	0.040	-0.120	1.000
2020/01/31 05:44:10.4	91.190	0.040	-0.070	1.010
2020/01/31 05:44:10.5	91.190	0.040	-0.020	1.010
2020/01/31 05:44:10.6	91.200	0.030	0.020	1.010
2020/01/31 05:44:10.7	91.200	0.030	0.060	1.020
2020/01/31 05:44:10.8	91.210	0.030	0.100	1.020
2020/01/31 05:44:10.9	91.210	0.020	0.140	1.020
2020/01/31 05:44:11.0	91.220	0.010	0.170	1.020
2020/01/31 05:44:11.1	91.230	0.000	0.200	1.030
2020/01/31 05:44:11.2	91.240	-0.000	0.240	1.030
2020/01/31 05:44:11.3	91.250	-0.020	0.260	1.030
2020/01/31 05:44:11.4	91.260	-0.030	0.280	1.030
2020/01/31 05:44:11.5	91.260	-0.040	0.300	1.020
2020/01/31 05:44:11.6	91.270	-0.050	0.310	1.020
2020/01/31 05:44:11.7	91.280	-0.060	0.320	1.010
2020/01/31 05:44:11.8	91.280	-0.080	0.320	1.010
2020/01/31 05:44:11.9	91.290	-0.090	0.320	1.000
2020/01/31 05:44:12.0	91.300	-0.100	0.310	0.990
2020/01/31 05:44:12.1	91.300	-0.120	0.300	0.980
2020/01/31 05:44:12.2	91.300	-0.130	0.280	0.970
2020/01/31 05:44:12.3	91.300	-0.140	0.260	0.960
2020/01/31 05:44:12.4	91.300	-0.150	0.240	0.940
2020/01/31 05:44:12.5	91.300	-0.160	0.210	0.930
2020/01/31 05:44:12.6	91.300	-0.160	0.180	0.910
2020/01/31 05:44:12.7	91.300	-0.170	0.140	0.900
2020/01/31 05:44:12.8	91.300	-0.170	0.110	0.880
2020/01/31 05:44:12.9	91.300	-0.170	0.070	0.870
2020/01/31 05:44:13.0	91.300	-0.170	0.020	0.860
2020/01/31 05:44:13.1	91.300	-0.160	-0.020	0.850
2020/01/31 05:44:13.2	91.300	-0.160	-0.070	0.830
2020/01/31 05:44:13.3	91.300	-0.150	-0.120	0.820
2020/01/31 05:44:13.4	91.300	-0.140	-0.160	0.810
2020/01/31 05:44:13.5	91.300	-0.120	-0.210	0.810
2020/01/31 05:44:13.6	91.300	-0.100	-0.260	0.800
2020/01/31 05:44:13.7	91.300	-0.080	-0.310	0.800
2020/01/31 05:44:13.8	91.310	-0.060	-0.360	0.800
2020/01/31 05:44:13.9	91.310	-0.040	-0.410	0.800
2020/01/31 05:44:14.0	91.310	-0.010	-0.450	0.800
2020/01/31 05:44:14.1	91.310	0.010	-0.500	0.800
2020/01/31 05:44:14.2	91.310	0.040	-0.540	0.810
2020/01/31 05:44:14.3	91.310	0.070	-0.590	0.810
2020/01/31 05:44:14.4	91.320	0.100	-0.630	0.820
2020/01/31 05:44:14.5	91.320	0.140	-0.670	0.820
2020/01/31 05:44:14.6	91.330	0.170	-0.700	0.820
2020/01/31 05:44:14.7	91.340	0.200	-0.740	0.830
2020/01/31 05:44:14.8	91.340	0.230	-0.770	0.830
2020/01/31 05:44:14.9	91.350	0.270	-0.800	0.830
2020/01/31 05:44:15.0	91.360	0.300	-0.830	0.840
2020/01/31 05:44:15.1	91.370	0.330	-0.860	0.840
2020/01/31 05:44:15.2	91.380	0.360	-0.880	0.840
2020/01/31 05:44:15.3	91.390	0.390	-0.900	0.840
2020/01/31 05:44:15.4	91.400	0.410	-0.920	0.840
2020/01/31 05:44:15.5	91.400	0.440	-0.930	0.840
2020/01/31 05:44:15.6	91.410	0.460	-0.940	0.840
2020/01/31 05:44:15.7	91.420	0.480	-0.940	0.840
2020/01/31 05:44:15.8	91.430	0.500	-0.930	0.830
2020/01/31 05:44:15.9	91.430	0.510	-0.920	0.830
2020/01/31 05:44:16.0	91.440	0.510	-0.900	0.830
2020/01/31 05:44:16.1	91.440	0.520	-0.870	0.830
2020/01/31 05:44:16.2	91.440	0.510	-0.840	0.840
2020/01/31 05:44:16.3	91.440	0.510	-0.790	0.840
2020/01/31 05:44:16.4	91.440	0.490	-0.740	0.840
2020/01/31 05:44:16.5	91.430	0.480	-0.680	0.830
2020/01/31 05:44:16.6	91.430	0.450	-0.620	0.830
2020/01/31 05:44:16.7	91.420	0.430	-0.550	0.830
2020/01/31 05:44:16.8	91.420	0.390	-0.470	0.830
2020/01/31 05:44:16.9	91.410	0.350	-0.380	0.830
2020/01/31 05:44:17.0	91.400	0.310	-0.290	0.830
2020/01/31 05:44:17.1	91.390	0.270	-0.200	0.830
2020/01/31 05:44:17.2	91.380	0.210	-0.100	0.820
2020/01/31 05:44:17.3	91.360	0.160	-0.000	0.820
2020/01/31 05:44:17.4	91.350	0.100	0.100	0.810
2020/01/31 05:44:17.5	91.330	0.040	0.200	0.810
2020/01/31 05:44:17.6	91.310	-0.020	0.300	0.800
2020/01/31 05:44:17.7	91.300	-0.080	0.400	0.790
2020/01/31 05:44:17.8	91.280	-0.150	0.490	0.790
2020/01/31 05:44:17.9	91.260	-0.210	0.580	0.780
2020/01/31 05:44:18.0	91.240	-0.280	0.660	0.770
2020/01/31 05:44:18.1	91.220	-0.340	0.740	0.760
2020/01/31 05:44:18.2	91.210	-0.400	0.810	0.750
2020/01/31 05:44:18.3	91.190	-0.460	0.870	0.740
2020/01/31 05:44:18.4	91.170	-0.510	0.920	0.720
2020/01/31 05:44:18.5	91.160	-0.560	0.950	0.710
2020/01/31 05:44:18.6	91.140	-0.610	0.980	0.700
2020/01/31 05:44:18.7	91.130	-0.650	0.990	0.680
2020/01/31 05:44:18.8	91.120	-0.680	0.990	0.670
2020/01/31 05:44:18.9	91.110	-0.710	0.980	0.650
2020/01/31 05:44:19.0	91.100	-0.730	0.950	0.630
2020/01/31 05:44:19.1	91.100	-0.750	0.910	0.620
2020/01/31 05:44:19.2	91.090	-0.750	0.860	0.590
2020/01/31 05:44:19.3	91.090	-0.750	0.800	0.570
2020/01/31 05:44:19.4	91.090	-0.750	0.720	0.550
2020/01/31 05:44:19.5	91.090	-0.730	0.630	0.530
2020/01/31 05:44:19.6	91.090	-0.720	0.540	0.510
2020/01/31 05:44:19.7	91.100	-0.690	0.430	0.480
2020/01/31 05:44:19.8	91.100	-0.660	0.320	0.450
2020/01/31 05:44:19.9	91.110	-0.620	0.200	0.430
2020/01/31 05:44:20.0	91.130	-0.570	0.070	0.400
2020/01/31 05:44:20.1	91.140	-0.520	-0.060	0.380
2020/01/31 05:44:20.2	91.170	-0.470	-0.200	0.350
2020/01/31 05:44:20.3	91.180	-0.410	-0.340	0.320
2020/01/31 05:44:20.4	91.200	-0.350	-0.480	0.290
2020/01/31 05:44:20.5	91.220	-0.290	-0.620	0.270
2020/01/31 05:44:20.6	91.240	-0.220	-0.750	0.240
2020/01/31 05:44:20.7	91.250	-0.150	-0.880	0.220
2020/01/31 05:44:20.8	91.270	-0.080	-1.010	0.190
2020/01/31 05:44:20.9	91.290	-0.010	-1.140	0.170
2020/01/31 05:44:21.0	91.300	0.060	-1.250	0.150
2020/01/31 05:44:21.1	91.320	0.120	-1.350	0.140
2020/01/31 05:44:21.2	91.340	0.190	-1.450	0.130
2020/01/31 05:44:21.3	91.350	0.250	-1.530	0.120
2020/01/31 05:44:21.4	91.360	0.310	-1.600	0.110
2020/01/31 05:44:21.5	91.370	0.360	-1.660	0.110
2020/01/31 05:44:21.6	91.370	0.410	-1.700	0.120
2020/01/31 05:44:21.7	91.370	0.460	-1.720	0.120
2020/01/31 05:44:21.8	91.370	0.490	-1.730	0.140
2020/01/31 05:44:21.9	91.370	0.520	-1.720	0.150
2020/01/31 05:44:22.0	91.360	0.550	-1.690	0.180
2020/01/31 05:44:22.1	91.350	0.570	-1.640	0.200
2020/01/31 05:44:22.2	91.350	0.580	-1.580	0.230
2020/01/31 05:44:22.3	91.330	0.580	-1.500	0.270
2020/01/31 05:44:22.4	91.320	0.580	-1.410	0.300
2020/01/31 05:44:22.5	91.300	0.560	-1.300	0.350
2020/01/31 05:44:22.6	91.280	0.540	-1.180	0.390
2020/01/31 05:44:22.7	91.260	0.520	-1.050	0.440
2020/01/31 05:44:22.8	91.230	0.490	-0.910	0.480
2020/01/31 05:44:22.9	91.210	0.450	-0.760	0.530
2020/01/31 05:44:23.0	91.190	0.400	-0.600	0.580
2020/01/31 05:44:23.1	91.170	0.350	-0.430	0.630
2020/01/31 05:44:23.2	91.140	0.300	-0.260	0.680
2020/01/31 05:44:23.3	91.120	0.240	-0.090	0.730
2020/01/31 05:44:23.4	91.100	0.170	0.080	0.770
2020/01/31 05:44:23.5	91.080	0.110	0.240	0.820
2020/01/31 05:44:23.6	91.060	0.040	0.410	0.860
2020/01/31 05:44:23.7	91.050	-0.030	0.560	0.890
2020/01/31 05:44:23.8	91.030	-0.100	0.710	0.930
2020/01/31 05:44:23.9	91.010	-0.170	0.850	0.960
2020/01/31 05:44:24.0	91.000	-0.240	0.980	0.980
2020/01/31 05:44:24.1	90.990	-0.310	1.090	1.010
2020/01/31 05:44:24.2	90.980	-0.370	1.190	1.020
2020/01/31 05:44:24.3	90.970	-0.430	1.280	1.040
2020/01/31 05:44:24.4	90.960	-0.480	1.350	1.040
2020/01/31 05:44:24.5	90.960	-0.530	1.400	1.050
2020/01/31 05:44:24.6	90.950	-0.580	1.430	1.050
2020/01/31 05:44:24.7	90.950	-0.620	1.450	1.050
2020/01/31 05:44:24.8	90.950	-0.650	1.440	1.040
2020/01/31 05:44:24.9	90.950	-0.670	1.420	1.030
2020/01/31 05:44:25.0	90.960	-0.690	1.380	1.010
2020/01/31 05:44:25.1	90.960	-0.700	1.330	1.000
2020/01/31 05:44:25.2	90.950	-0.700	1.250	0.980
2020/01/31 05:44:25.3	90.960	-0.690	1.160	0.950
2020/01/31 05:44:25.4	90.970	-0.680	1.060	0.930
2020/01/31 05:44:25.5	90.970	-0.660	0.940	0.910
2020/01/31 05:44:25.6	90.980	-0.630	0.820	0.880
2020/01/31 05:44:25.7	90.990	-0.600	0.680	0.860
2020/01/31 05:44:25.8	91.000	-0.560	0.530	0.830
2020/01/31 05:44:25.9	91.010	-0.510	0.370	0.800
2020/01/31 05:44:26.0	91.010	-0.460	0.210	0.760
2020/01/31 05:44:26.1	91.020	-0.400	0.050	0.730
2020/01/31 05:44:26.2	91.010	-0.340	-0.130	0.690
2020/01/31 05:44:26.3	91.020	-0.270	-0.300	0.660
2020/01/31 05:44:26.4	91.030	-0.200	-0.460	0.620
2020/01/31 05:44:26.5	91.040	-0.130	-0.630	0.590
2020/01/31 05:44:26.6	91.040	-0.060	-0.790	0.550
2020/01/31 05:44:26.7	91.050	0.010	-0.940	0.520
2020/01/31 05:44:26.8	91.050	0.090	-1.080	0.480
2020/01/31 05:44:26.9	91.060	0.160	-1.220	0.460
2020/01/31 05:44:27.0	91.060	0.240	-1.340	0.430
2020/01/31 05:44:27.1	91.070	0.310	-1.450	0.410
2020/01/31 05:44:27.2	91.090	0.380	-1.550	0.390
2020/01/31 05:44:27.3	91.100	0.440	-1.630	0.380
2020/01/31 05:44:27.4	91.100	0.510	-1.690	0.370
2020/01/31 05:44:27.5	91.100	0.560	-1.740	0.370
2020/01/31 05:44:27.6	91.100	0.620	-1.780	0.370
2020/01/31 05:44:27.7	91.100	0.660	-1.790	0.380
2020/01/31 05:44:27.8	91.090	0.700	-1.790	0.390
2020/01/31 05:44:27.9	91.090	0.740	-1.780	0.400
2020/01/31 05:44:28.0	91.090	0.770	-1.740	0.410
2020/01/31 05:44:28.1	91.080	0.790	-1.690	0.440
2020/01/31 05:44:28.2	91.090	0.800	-1.630	0.460
2020/01/31 05:44:28.3	91.090	0.810	-1.550	0.480
2020/01/31 05:44:28.4	91.090	0.810	-1.460	0.510
2020/01/31 05:44:28.5	91.080	0.800	-1.350	0.540
2020/01/31 05:44:28.6	91.080	0.780	-1.240	0.570
2020/01/31 05:44:28.7	91.070	0.760	-1.110	0.600
2020/01/31 05:44:28.8	91.070	0.730	-0.970	0.640
2020/01/31 05:44:28.9	91.060	0.690	-0.830	0.670
2020/01/31 05:44:29.0	91.060	0.650	-0.680	0.700
2020/01/31 05:44:29.1	91.060	0.600	-0.530	0.730
2020/01/31 05:44:29.2	91.060	0.550	-0.370	0.770
2020/01/31 05:44:29.3	91.060	0.490	-0.220	0.800
2020/01/31 05:44:29.4	91.070	0.430	-0.060	0.830
2020/01/31 05:44:29.5	91.070	0.360	0.090	0.850
2020/01/31 05:44:29.6	91.070	0.300	0.240	0.870
2020/01/31 05:44:29.7	91.080	0.230	0.390	0.890
2020/01/31 05:44:29.8	91.080	0.150	0.520	0.910
2020/01/31 05:44:29.9	91.090	0.080	0.650	0.930
2020/01/31 05:44:30.0	91.090	0.010	0.770	0.950
2020/01/31 05:44:30.1	91.100	-0.060	0.880	0.970
2020/01/31 05:44:30.2	91.110	-0.130	0.980	0.970
2020/01/31 05:44:30.3	91.120	-0.200	1.060	0.980
2020/01/31 05:44:30.4	91.130	-0.260	1.130	1.000
2020/01/31 05:44:30.5	91.130	-0.320	1.180	1.010
2020/01/31 05:44:30.6	91.140	-0.370	1.220	1.030
2020/01/31 05:44:30.7	91.150	-0.420	1.240	1.040
2020/01/31 05:44:30.8	91.160	-0.470	1.250	1.050
2020/01/31 05:44:30.9	91.160	-0.510	1.240	1.070
2020/01/31 05:44:31.0	91.170	-0.540	1.210	1.080
2020/01/31 05:44:31.1	91.170	-0.560	1.160	1.090
2020/01/31 05:44:31.2	91.180	-0.580	1.100	1.110
2020/01/31 05:44:31.3	91.190	-0.590	1.030	1.120
2020/01/31 05:44:31.4	91.190	-0.600	0.940	1.120
2020/01/31 05:44:31.5	91.200	-0.600	0.850	1.130
2020/01/31 05:44:31.6	91.210	-0.590	0.730	1.130
2020/01/31 05:44:31.7	91.220	-0.580	0.620	1.130
2020/01/31 05:44:31.8	91.230	-0.560	0.490	1.130
2020/01/31 05:44:31.9	91.240	-0.540	0.350	1.120
2020/01/31 05:44:32.0	91.250	-0.510	0.220	1.110
2020/01/31 05:44:32.1	91.270	-0.480	0.080	1.100
2020/01/31 05:44:32.2	91.300	-0.440	-0.070	1.080
2020/01/31 05:44:32.3	91.320	-0.400	-0.210	1.060
2020/01/31 05:44:32.4	91.330	-0.360	-0.350	1.040
2020/01/31 05:44:32.5	91.360	-0.320	-0.490	1.020
2020/01/31 05:44:32.6	91.370	-0.270	-0.620	1.000
2020/01/31 05:44:32.7	91.400	-0.220	-0.740	0.990
2020/01/31 05:44:32.8	91.420	-0.170	-0.850	0.970
2020/01/31 05:44:32.9	91.440	-0.130	-0.960	0.960
2020/01/31 05:44:33.0	91.450	-0.080	-1.050	0.940
2020/01/31 05:44:33.1	91.470	-0.030	-1.130	0.940
2020/01/31 05:44:33.2	91.480	0.020	-1.200	0.930
2020/01/31 05:44:33.3	91.500	0.060	-1.260	0.930
2020/01/31 05:44:33.4	91.510	0.100	-1.300	0.930
2020/01/31 05:44:33.5	91.510	0.140	-1.330	0.940
2020/01/31 05:44:33.6	91.520	0.180	-1.350	0.950
2020/01/31 05:44:33.7	91.520	0.210	-1.340	0.960
2020/01/31 05:44:33.8	91.520	0.240	-1.330	0.980
2020/01/31 05:44:33.9	91.520	0.260	-1.300	0.990
2020/01/31 05:44:34.0	91.510	0.280	-1.250	1.010
2020/01/31 05:44:34.1	91.500	0.300	-1.190	1.030
2020/01/31 05:44:34.2	91.480	0.310	-1.120	1.040
2020/01/31 05:44:34.3	91.470	0.310	-1.040	1.060
2020/01/31 05:44:34.4	91.450	0.310	-0.950	1.070
2020/01/31 05:44:34.5	91.430	0.310	-0.850	1.090
2020/01/31 05:44:34.6	91.410	0.300	-0.740	1.100
2020/01/31 05:44:34.7	91.390	0.290	-0.630	1.110
2020/01/31 05:44:34.8	91.370	0.270	-0.510	1.110
2020/01/31 05:44:34.9	91.350	0.260	-0.390	1.120
2020/01/31 05:44:35.0	91.320	0.230	-0.260	1.120
2020/01/31 05:44:35.1	91.300	0.210	-0.140	1.110
2020/01/31 05:44:35.2	91.270	0.180	-0.020	1.100
2020/01/31 05:44:35.3	91.250	0.150	0.100	1.090
2020/01/31 05:44:35.4	91.220	0.120	0.220	1.080
2020/01/31 05:44:35.5	91.200	0.080	0.320	1.060
2020/01/31 05:44:35.6	91.180	0.050	0.430	1.030
2020/01/31 05:44:35.7	91.150	0.020	0.520	1.000
2020/01/31 05:44:35.8	91.130	-0.020	0.600	0.970
2020/01/31 05:44:35.9	91.110	-0.050	0.670	0.930
2020/01/31 05:44:36.0	91.100	-0.080	0.730	0.890
2020/01/31 05:44:36.1	91.090	-0.110	0.780	0.840
2020/01/31 05:44:36.2	91.060	-0.130	0.820	0.790
2020/01/31 05:44:36.3	91.060	-0.150	0.840	0.740
2020/01/31 05:44:36.4	91.060	-0.170	0.840	0.690
2020/01/31 05:44:36.5	91.060	-0.180	0.830	0.640
2020/01/31 05:44:36.6	91.060	-0.190	0.810	0.580
2020/01/31 05:44:36.7	91.070	-0.200	0.770	0.530
2020/01/31 05:44:36.8	91.080	-0.200	0.720	0.470
2020/01/31 05:44:36.9	91.100	-0.190	0.650	0.420
2020/01/31 05:44:37.0	91.110	-0.180	0.570	0.370
2020/01/31 05:44:37.1	91.140	-0.170	0.480	0.320
2020/01/31 05:44:37.2	91.160	-0.150	0.370	0.270
2020/01/31 05:44:37.3	91.190	-0.130	0.260	0.220
2020/01/31 05:44:37.4	91.220	-0.100	0.150	0.180
2020/01/31 05:44:37.5	91.250	-0.070	0.030	0.140
2020/01/31 05:44:37.6	91.290	-0.040	-0.100	0.100
2020/01/31 05:44:37.7	91.320	-0.010	-0.230	0.060
2020/01/31 05:44:37.8	91.360	0.030	-0.360	0.030
2020/01/31 05:44:37.9	91.400	0.070	-0.480	-0.010
2020/01/31 05:44:38.0	91.440	0.110	-0.610	-0.040
2020/01/31 05:44:38.1	91.480	0.150	-0.730	-0.060
2020/01/31 05:44:38.2	91.520	0.190	-0.840	-0.090
2020/01/31 05:44:38.3	91.560	0.230	-0.950	-0.110
2020/01/31 05:44:38.4	91.610	0.260	-1.040	-0.130
2020/01/31 05:44:38.5	91.640	0.300	-1.120	-0.140
2020/01/31 05:44:38.6	91.680	0.330	-1.190	-0.160
2020/01/31 05:44:38.7	91.720	0.360	-1.250	-0.160
2020/01/31 05:44:38.8	91.750	0.380	-1.290	-0.160
2020/01/31 05:44:38.9	91.780	0.400	-1.320	-0.160
2020/01/31 05:44:39.0	91.810	0.410	-1.330	-0.150
2020/01/31 05:44:39.1	91.830	0.420	-1.330	-0.130
2020/01/31 05:44:39.2	91.870	0.430	-1.320	-0.110
2020/01/31 05:44:39.3	91.880	0.420	-1.290	-0.080
2020/01/31 05:44:39.4	91.900	0.420	-1.240	-0.050
2020/01/31 05:44:39.5	91.910	0.400	-1.180	-0.010
2020/01/31 05:44:39.6	91.910	0.390	-1.110	0.040
2020/01/31 05:44:39.7	91.910	0.360	-1.030	0.090
2020/01/31 05:44:39.8	91.910	0.330	-0.940	0.140
2020/01/31 05:44:39.9	91.910	0.300	-0.830	0.200
2020/01/31 05:44:40.0	91.900	0.260	-0.720	0.260
2020/01/31 05:44:40.1	91.890	0.210	-0.600	0.330
2020/01/31 05:44:40.2	91.880	0.160	-0.480	0.400
2020/01/31 05:44:40.3	91.870	0.110	-0.350	0.470
2020/01/31 05:44:40.4	91.850	0.050	-0.230	0.540
2020/01/31 05:44:40.5	91.830	-0.010	-0.100	0.610
2020/01/31 05:44:40.6	91.810	-0.070	0.030	0.680
2020/01/31 05:44:40.7	91.790	-0.130	0.150	0.750
2020/01/31 05:44:40.8	91.770	-0.190	0.270	0.810
2020/01/31 05:44:40.9	91.750	-0.250	0.380	0.870
2020/01/31 05:44:41.0	91.730	-0.310	0.490	0.930
2020/01/31 05:44:41.1	91.700	-0.370	0.590	0.980
2020/01/31 05:44:41.2	91.690	-0.430	0.680	1.030
2020/01/31 05:44:41.3	91.660	-0.490	0.760	1.080
2020/01/31 05:44:41.4	91.640	-0.540	0.830	1.120
2020/01/31 05:44:41.5	91.620	-0.590	0.880	1.150
2020/01/31 05:44:41.6	91.600	-0.630	0.930	1.180
2020/01/31 05:44:41.7	91.580	-0.670	0.960	1.200
2020/01/31 05:44:41.8	91.560	-0.710	0.980	1.220
2020/01/31 05:44:41.9	91.550	-0.740	0.990	1.230
2020/01/31 05:44:42.0	91.530	-0.760	0.990	1.230
2020/01/31 05:44:42.1	91.520	-0.780	0.980	1.230
2020/01/31 05:44:42.2	91.500	-0.790	0.950	1.230
2020/01/31 05:44:42.3	91.490	-0.800	0.910	1.220
2020/01/31 05:44:42.4	91.480	-0.790	0.860	1.200
2020/01/31 05:44:42.5	91.470	-0.780	0.800	1.180
2020/01/31 05:44:42.6	91.470	-0.770	0.730	1.160
2020/01/31 05:44:42.7	91.460	-0.740	0.640	1.130
2020/01/31 05:44:42.8	91.460	-0.710	0.550	1.110
2020/01/31 05:44:42.9	91.460	-0.680	0.450	1.080
2020/01/31 05:44:43.0	91.460	-0.630	0.350	1.040
2020/01/31 05:44:43.1	91.460	-0.590	0.230	1.010
2020/01/31 05:44:43.2	91.470	-0.530	0.110	0.970
2020/01/31 05:44:43.3	91.470	-0.470	-0.010	0.930
2020/01/31 05:44:43.4	91.470	-0.400	-0.140	0.900
2020/01/31 05:44:43.5	91.480	-0.330	-0.260	0.860
2020/01/31 05:44:43.6	91.480	-0.260	-0.390	0.820
2020/01/31 05:44:43.7	91.490	-0.180	-0.520	0.780
2020/01/31 05:44:43.8	91.500	-0.100	-0.640	0.740
2020/01/31 05:44:43.9	91.500	-0.020	-0.770	0.700
2020/01/31 05:44:44.0	91.510	0.060	-0.890	0.660
2020/01/31 05:44:44.1	91.520	0.150	-1.000	0.630
2020/01/31 05:44:44.2	91.540	0.230	-1.110	0.580
2020/01/31 05:44:44.3	91.550	0.320	-1.210	0.550
2020/01/31 05:44:44.4	91.560	0.400	-1.300	0.510
2020/01/31 05:44:44.5	91.570	0.490	-1.390	0.480
2020/01/31 05:44:44.6	91.590	0.570	-1.460	0.450
2020/01/31 05:44:44.7	91.600	0.640	-1.530	0.420
2020/01/31 05:44:44.8	91.610	0.710	-1.580	0.400
2020/01/31 05:44:44.9	91.620	0.780	-1.620	0.380
2020/01/31 05:44:45.0	91.640	0.850	-1.650	0.370
2020/01/31 05:44:45.1	91.640	0.900	-1.660	0.350
2020/01/31 05:44:45.2	91.650	0.960	-1.660	0.350
2020/01/31 05:44:45.3	91.660	1.000	-1.650	0.350
2020/01/31 05:44:45.4	91.670	1.040	-1.620	0.350
2020/01/31 05:44:45.5	91.670	1.070	-1.580	0.350
2020/01/31 05:44:45.6	91.670	1.090	-1.530	0.360
2020/01/31 05:44:45.7	91.670	1.100	-1.460	0.370
2020/01/31 05:44:45.8	91.670	1.110	-1.380	0.390
2020/01/31 05:44:45.9	91.660	1.100	-1.290	0.400
2020/01/31 05:44:46.0	91.660	1.090	-1.190	0.420
2020/01/31 05:44:46.1	91.650	1.070	-1.070	0.440
2020/01/31 05:44:46.2	91.650	1.040	-0.950	0.470
2020/01/31 05:44:46.3	91.640	1.010	-0.820	0.490
2020/01/31 05:44:46.4	91.630	0.960	-0.680	0.520
2020/01/31 05:44:46.5	91.630	0.910	-0.540	0.540
2020/01/31 05:44:46.6	91.620	0.850	-0.390	0.570
2020/01/31 05:44:46.7	91.610	0.780	-0.240	0.590
2020/01/31 05:44:46.8	91.610	0.710	-0.090	0.620
2020/01/31 05:44:46.9	91.600	0.630	0.060	0.640
2020/01/31 05:44:47.0	91.600	0.550	0.210	0.670
2020/01/31 05:44:47.1	91.600	0.470	0.360	0.690
2020/01/31 05:44:47.2	91.600	0.380	0.510	0.720
2020/01/31 05:44:47.3	91.600	0.280	0.650	0.740
2020/01/31 05:44:47.4	91.600	0.190	0.780	0.750
2020/01/31 05:44:47.5	91.610	0.100	0.900	0.770
2020/01/31 05:44:47.6	91.620	0.000	1.020	0.780
2020/01/31 05:44:47.7	91.630	-0.090	1.120	0.790
2020/01/31 05:44:47.8	91.640	-0.180	1.220	0.800
2020/01/31 05:44:47.9	91.660	-0.270	1.300	0.810
2020/01/31 05:44:48.0	91.670	-0.360	1.360	0.810
2020/01/31 05:44:48.1	91.690	-0.440	1.420	0.810
2020/01/31 05:44:48.2	91.720	-0.510	1.450	0.810
2020/01/31 05:44:48.3	91.740	-0.580	1.470	0.810
2020/01/31 05:44:48.4	91.760	-0.640	1.480	0.800
2020/01/31 05:44:48.5	91.780	-0.700	1.470	0.800
2020/01/31 05:44:48.6	91.790	-0.750	1.450	0.790
2020/01/31 05:44:48.7	91.810	-0.790	1.410	0.790
2020/01/31 05:44:48.8	91.830	-0.820	1.350	0.780
2020/01/31 05:44:48.9	91.850	-0.840	1.280	0.770
2020/01/31 05:44:49.0	91.870	-0.860	1.190	0.770
2020/01/31 05:44:49.1	91.880	-0.860	1.100	0.760
2020/01/31 05:44:49.2	91.880	-0.860	0.980	0.750
2020/01/31 05:44:49.3	91.900	-0.850	0.860	0.740
2020/01/31 05:44:49.4	91.910	-0.830	0.730	0.740
2020/01/31 05:44:49.5	91.920	-0.800	0.590	0.730
2020/01/31 05:44:49.6	91.930	-0.770	0.450	0.720
2020/01/31 05:44:49.7	91.940	-0.730	0.300	0.710
2020/01/31 05:44:49.8	91.950	-0.690	0.140	0.700
2020/01/31 05:44:49.9	91.960	-0.640	-0.010	0.690
2020/01/31 05:44:50.0	91.970	-0.590	-0.170	0.680
2020/01/31 05:44:50.1	91.980	-0.530	-0.320	0.670
2020/01/31 05:44:50.2	91.970	-0.470	-0.480	0.660
2020/01/31 05:44:50.3	91.980	-0.410	-0.630	0.650
2020/01/31 05:44:50.4	91.990	-0.350	-0.770	0.650
2020/01/31 05:44:50.5	91.990	-0.280	-0.900	0.650
2020/01/31 05:44:50.6	92.000	-0.220	-1.030	0.650
2020/01/31 05:44:50.7	92.010	-0.150	-1.140	0.650
2020/01/31 05:44:50.8	92.020	-0.090	-1.240	0.660
2020/01/31 05:44:50.9	92.030	-0.030	-1.340	0.660
2020/01/31 05:44:51.0	92.030	0.030	-1.420	0.670
2020/01/31 05:44:51.1	92.040	0.080	-1.480	0.690
2020/01/31 05:44:51.2	92.030	0.130	-1.530	0.710
2020/01/31 05:44:51.3	92.040	0.180	-1.570	0.720
2020/01/31 05:44:51.4	92.040	0.220	-1.590	0.740
2020/01/31 05:44:51.5	92.040	0.260	-1.600	0.770
2020/01/31 05:44:51.6	92.050	0.290	-1.600	0.790
2020/01/31 05:44:51.7	92.050	0.310	-1.580	0.820
2020/01/31 05:44:51.8	92.050	0.330	-1.540	0.840
2020/01/31 05:44:51.9	92.050	0.350	-1.500	0.870
2020/01/31 05:44:52.0	92.050	0.360	-1.440	0.900
2020/01/31 05:44:52.1	92.040	0.360	-1.370	0.920
2020/01/31 05:44:52.2	92.030	0.360	-1.280	0.950
2020/01/31 05:44:52.3	92.030	0.360	-1.190	0.970
2020/01/31 05:44:52.4	92.020	0.340	-1.090	0.990
2020/01/31 05:44:52.5	92.020	0.330	-0.990	1.020
2020/01/31 05:44:52.6	92.010	0.310	-0.880	1.040
2020/01/31 05:44:52.7	92.010	0.290	-0.760	1.050
2020/01/31 05:44:52.8	92.000	0.260	-0.640	1.070
2020/01/31 05:44:52.9	92.000	0.230	-0.520	1.080
2020/01/31 05:44:53.0	91.990	0.200	-0.400	1.090
2020/01/31 05:44:53.1	91.980	0.160	-0.280	1.100
2020/01/31 05:44:53.2	91.970	0.130	-0.170	1.100
2020/01/31 05:44:53.3	91.960	0.090	-0.060	1.100
2020/01/31 05:44:53.4	91.960	0.050	0.050	1.100
2020/01/31 05:44:53.5	91.950	0.020	0.140	1.100
2020/01/31 05:44:53.6	91.940	-0.010	0.230	1.090
2020/01/31 05:44:53.7	91.930	-0.050	0.310	1.080
2020/01/31 05:44:53.8	91.930	-0.080	0.380	1.070
2020/01/31 05:44:53.9	91.920	-0.100	0.450	1.050
2020/01/31 05:44:54.0	91.910	-0.130	0.500	1.040
2020/01/31 05:44:54.1	91.900	-0.150	0.540	1.010
2020/01/31 05:44:54.2	91.890	-0.170	0.560	0.990
2020/01/31 05:44:54.3	91.890	-0.180	0.580	0.960
2020/01/31 05:44:54.4	91.880	-0.200	0.590	0.930
2020/01/31 05:44:54.5	91.870	-0.210	0.590	0.900
2020/01/31 05:44:54.6	91.870	-0.210	0.580	0.870
2020/01/31 05:44:54.7	91.870	-0.210	0.560	0.830
2020/01/31 05:44:54.8	91.860	-0.210	0.530	0.790
2020/01/31 05:44:54.9	91.860	-0.210	0.500	0.750
2020/01/31 05:44:55.0	91.860	-0.200	0.460	0.710
2020/01/31 05:44:55.1	91.870	-0.190	0.410	0.660
2020/01/31 05:44:55.2	91.880	-0.180	0.360	0.620
2020/01/31 05:44:55.3	91.890	-0.160	0.310	0.570
2020/01/31 05:44:55.4	91.890	-0.150	0.250	0.530
2020/01/31 05:44:55.5	91.900	-0.130	0.200	0.490
2020/01/31 05:44:55.6	91.910	-0.110	0.140	0.440
2020/01/31 05:44:55.7	91.930	-0.090	0.080	0.400
2020/01/31 05:44:55.8	91.940	-0.070	0.020	0.360
2020/01/31 05:44:55.9	91.960	-0.040	-0.040	0.320
2020/01/31 05:44:56.0	91.970	-0.020	-0.100	0.280
2020/01/31 05:44:56.1	91.990	0.000	-0.150	0.250
2020/01/31 05:44:56.2	92.010	0.020	-0.210	0.210
2020/01/31 05:44:56.3	92.030	0.050	-0.260	0.180
2020/01/31 05:44:56.4	92.050	0.070	-0.300	0.150
2020/01/31 05:44:56.5	92.070	0.090	-0.340	0.120
2020/01/31 05:44:56.6	92.100	0.110	-0.380	0.100
2020/01/31 05:44:56.7	92.120	0.130	-0.410	0.070
2020/01/31 05:44:56.8	92.140	0.150	-0.440	0.050
2020/01/31 05:44:56.9	92.160	0.170	-0.460	0.040
2020/01/31 05:44:57.0	92.190	0.180	-0.480	0.020
2020/01/31 05:44:57.1	92.210	0.190	-0.490	0.010
2020/01/31 05:44:57.2	92.240	0.210	-0.490	0.000
2020/01/31 05:44:57.3	92.260	0.210	-0.490	-0.000
2020/01/31 05:44:57.4	92.280	0.220	-0.490	-0.010
2020/01/31 05:44:57.5	92.300	0.230	-0.480	-0.010
2020/01/31 05:44:57.6	92.320	0.230	-0.470	-0.010
2020/01/31 05:44:57.7	92.340	0.230	-0.460	-0.010
2020/01/31 05:44:57.8	92.360	0.220	-0.440	-0.000
2020/01/31 05:44:57.9	92.370	0.220	-0.410	0.010
2020/01/31 05:44:58.0	92.390	0.210	-0.390	0.020
2020/01/31 05:44:58.1	92.400	0.200	-0.360	0.030
2020/01/31 05:44:58.2	92.430	0.190	-0.330	0.050
2020/01/31 05:44:58.3	92.440	0.180	-0.300	0.060
2020/01/31 05:44:58.4	92.450	0.170	-0.270	0.080
2020/01/31 05:44:58.5	92.450	0.150	-0.240	0.100
2020/01/31 05:44:58.6	92.460	0.130	-0.200	0.130
2020/01/31 05:44:58.7	92.460	0.120	-0.170	0.150
2020/01/31 05:44:58.8	92.460	0.100	-0.140	0.180
2020/01/31 05:44:58.9	92.460	0.080	-0.110	0.210
2020/01/31 05:44:59.0	92.460	0.060	-0.090	0.240
2020/01/31 05:44:59.1	92.460	0.040	-0.060	0.270
2020/01/31 05:44:59.2	92.470	0.030	-0.040	0.300
2020/01/31 05:44:59.3	92.460	0.010	-0.020	0.340
2020/01/31 05:44:59.4	92.460	-0.010	-0.010	0.380
2020/01/31 05:44:59.5	92.450	-0.020	0.010	0.420
2020/01/31 05:44:59.6	92.440	-0.040	0.010	0.460
2020/01/31 05:44:59.7	92.430	-0.050	0.020	0.510
2020/01/31 05:44:59.8	92.410	-0.060	0.010	0.560
2020/01/31 05:44:59.9	92.400	-0.060	0.010	0.600
2020/01/31 05:45:00.0	92.390	-0.070	0.000	0.650
2020/01/31 05:45:00.1	92.380	-0.070	-0.010	0.700
2020/01/31 05:45:00.2	92.370	-0.070	-0.030	0.750
2020/01/31 05:45:00.3	92.350	-0.070	-0.050	0.790
2020/01/31 05:45:00.4	92.340	-0.060	-0.080	0.840
2020/01/31 05:45:00.5	92.330	-0.050	-0.110	0.880
2020/01/31 05:45:00.6	92.310	-0.040	-0.140	0.930
2020/01/31 05:45:00.7	92.300	-0.030	-0.180	0.970
2020/01/31 05:45:00.8	92.290	-0.010	-0.220	1.010
2020/01/31 05:45:00.9	92.280	0.010	-0.260	1.040
2020/01/31 05:45:01.0	92.270	0.030	-0.300	1.080
2020/01/31 05:45:01.1	92.260	0.050	-0.350	1.110
2020/01/31 05:45:01.2	92.250	0.070	-0.400	1.130
2020/01/31 05:45:01.3	92.240	0.100	-0.440	1.160
2020/01/31 05:45:01.4	92.240	0.130	-0.490	1.180
2020/01/31 05:45:01.5	92.230	0.150	-0.540	1.210
2020/01/31 05:45:01.6	92.220	0.180	-0.580	1.230
2020/01/31 05:45:01.7	92.220	0.210	-0.620	1.250
2020/01/31 05:45:01.8	92.210	0.230	-0.660	1.270
2020/01/31 05:45:01.9	92.210	0.260	-0.700	1.280
2020/01/31 05:45:02.0	92.200	0.280	-0.730	1.300
2020/01/31 05:45:02.1	92.190	0.300	-0.750	1.310
2020/01/31 05:45:02.2	92.170	0.310	-0.780	1.320
2020/01/31 05:45:02.3	92.170	0.320	-0.790	1.330
2020/01/31 05:45:02.4	92.160	0.330	-0.790	1.340
2020/01/31 05:45:02.5	92.160	0.340	-0.790	1.340
2020/01/31 05:45:02.6	92.150	0.340	-0.780	1.340
2020/01/31 05:45:02.7	92.150	0.330	-0.770	1.340
2020/01/31 05:45:02.8	92.150	0.330	-0.750	1.340
2020/01/31 05:45:02.9	92.140	0.310	-0.720	1.340
2020/01/31 05:45:03.0	92.140	0.300	-0.680	1.330
2020/01/31 05:45:03.1	92.140	0.280	-0.640	1.320
2020/01/31 05:45:03.2	92.130	0.250	-0.590	1.300
2020/01/31 05:45:03.3	92.130	0.220	-0.540	1.290
2020/01/31 05:45:03.4	92.130	0.190	-0.480	1.270
2020/01/31 05:45:03.5	92.130	0.160	-0.420	1.260
2020/01/31 05:45:03.6	92.130	0.120	-0.360	1.240
2020/01/31 05:45:03.7	92.130	0.080	-0.300	1.220
2020/01/31 05:45:03.8	92.130	0.040	-0.230	1.200
2020/01/31 05:45:03.9	92.130	-0.010	-0.170	1.180
2020/01/31 05:45:04.0	92.130	-0.050	-0.100	1.160
2020/01/31 05:45:04.1	92.140	-0.090	-0.040	1.140
2020/01/31 05:45:04.2	92.140	-0.140	0.020	1.110
2020/01/31 05:45:04.3	92.140	-0.180	0.080	1.090
2020/01/31 05:45:04.4	92.140	-0.220	0.130	1.070
2020/01/31 05:45:04.5	92.150	-0.260	0.190	1.050
2020/01/31 05:45:04.6	92.160	-0.300	0.230	1.040
2020/01/31 05:45:04.7	92.160	-0.330	0.280	1.020
2020/01/31 05:45:04.8	92.170	-0.360	0.310	1.000
2020/01/31 05:45:04.9	92.180	-0.390	0.350	0.990
2020/01/31 05:45:05.0	92.190	-0.410	0.370	0.970
2020/01/31 05:45:05.1	92.200	-0.430	0.390	0.960
2020/01/31 05:45:05.2	92.200	-0.440	0.410	0.940
2020/01/31 05:45:05.3	92.210	-0.450	0.420	0.930
2020/01/31 05:45:05.4	92.220	-0.450	0.420	0.920
2020/01/31 05:45:05.5	92.230	-0.450	0.420	0.910
2020/01/31 05:45:05.6	92.240	-0.450	0.410	0.900
2020/01/31 05:45:05.7	92.260	-0.440	0.390	0.890
2020/01/31 05:45:05.8	92.270	-0.430	0.370	0.880
2020/01/31 05:45:05.9	92.280	-0.410	0.350	0.870
2020/01/31 05:45:06.0	92.290	-0.390	0.320	0.850
2020/01/31 05:45:06.1	92.300	-0.370	0.290	0.840
2020/01/31 05:45:06.2	92.300	-0.350	0.250	0.830
2020/01/31 05:45:06.3	92.310	-0.320	0.210	0.820
2020/01/31 05:45:06.4	92.320	-0.290	0.180	0.810
2020/01/31 05:45:06.5	92.320	-0.260	0.130	0.800
2020/01/31 05:45:06.6	92.330	-0.230	0.090	0.790
2020/01/31 05:45:06.7	92.330	-0.200	0.050	0.780
2020/01/31 05:45:06.8	92.330	-0.160	0.010	0.770
2020/01/31 05:45:06.9	92.330	-0.130	-0.040	0.760
2020/01/31 05:45:07.0	92.320	-0.100	-0.080	0.750
2020/01/31 05:45:07.1	92.320	-0.060	-0.120	0.740
2020/01/31 05:45:07.2	92.310	-0.030	-0.170	0.740
2020/01/31 05:45:07.3	92.300	-0.000	-0.210	0.730
2020/01/31 05:45:07.4	92.290	0.030	-0.240	0.720
2020/01/31 05:45:07.5	92.270	0.060	-0.280	0.710
2020/01/31 05:45:07.6	92.260	0.080	-0.310	0.700
2020/01/31 05:45:07.7	92.240	0.110	-0.340	0.700
2020/01/31 05:45:07.8	92.230	0.130	-0.370	0.690
2020/01/31 05:45:07.9	92.210	0.160	-0.400	0.680
2020/01/31 05:45:08.0	92.190	0.180	-0.420	0.680
2020/01/31 05:45:08.1	92.180	0.190	-0.440	0.670
2020/01/31 05:45:08.2	92.160	0.210	-0.460	0.660
2020/01/31 05:45:08.3	92.140	0.220	-0.470	0.650
2020/01/31 05:45:08.4	92.130	0.240	-0.480	0.650
2020/01/31 05:45:08.5	92.120	0.250	-0.490	0.640
2020/01/31 05:45:08.6	92.110	0.250	-0.490	0.640
2020/01/31 05:45:08.7	92.100	0.260	-0.490	0.630
2020/01/31 05:45:08.8	92.090	0.270	-0.490	0.620
2020/01/31 05:45:08.9	92.090	0.270	-0.490	0.620
2020/01/31 05:45:09.0	92.090	0.270	-0.480	0.610
2020/01/31 05:45:09.1	92.090	0.270	-0.480	0.600
2020/01/31 05:45:09.2	92.100	0.270	-0.470	0.590
2020/01/31 05:45:09.3	92.110	0.270	-0.470	0.580
2020/01/31 05:45:09.4	92.120	0.270	-0.460	0.570
2020/01/31 05:45:09.5	92.130	0.270	-0.450	0.550
2020/01/31 05:45:09.6	92.140	0.260	-0.450	0.540
2020/01/31 05:45:09.7	92.150	0.260	-0.440	0.530
2020/01/31 05:45:09.8	92.170	0.250	-0.440	0.510
2020/01/31 05:45:09.9	92.180	0.250	-0.430	0.500
2020/01/31 05:45:10.0	92.200	0.250	-0.430	0.480
2020/01/31 05:45:10.1	92.220	0.240	-0.430	0.470
2020/01/31 05:45:10.2	92.240	0.240	-0.430	0.450
2020/01/31 05:45:10.3	92.260	0.240	-0.430	0.440
2020/01/31 05:45:10.4	92.280	0.240	-0.430	0.430
2020/01/31 05:45:10.5	92.290	0.230	-0.430	0.420
2020/01/31 05:45:10.6	92.310	0.230	-0.440	0.410
2020/01/31 05:45:10.7	92.320	0.230	-0.440	0.410
2020/01/31 05:45:10.8	92.340	0.230	-0.440	0.410
2020/01/31 05:45:10.9	92.350	0.230	-0.440	0.410
2020/01/31 05:45:11.0	92.360	0.230	-0.440	0.420
2020/01/31 05:45:11.1	92.360	0.220	-0.440	0.430
2020/01/31 05:45:11.2	92.360	0.220	-0.440	0.440
2020/01/31 05:45:11.3	92.360	0.220	-0.430	0.460
2020/01/31 05:45:11.4	92.360	0.220	-0.420	0.480
2020/01/31 05:45:11.5	92.360	0.210	-0.410	0.500
2020/01/31 05:45:11.6	92.350	0.210	-0.400	0.520
2020/01/31 05:45:11.7	92.350	0.200	-0.380	0.550
2020/01/31 05:45:11.8	92.340	0.190	-0.360	0.580
2020/01/31 05:45:11.9	92.330	0.190	-0.330	0.620
2020/01/31 05:45:12.0	92.310	0.170	-0.300	0.650
2020/01/31 05:45:12.1	92.300	0.160	-0.270	0.690
2020/01/31 05:45:12.2	92.290	0.150	-0.230	0.720
2020/01/31 05:45:12.3	92.270	0.130	-0.190	0.760
2020/01/31 05:45:12.4	92.250	0.110	-0.150	0.810
2020/01/31 05:45:12.5	92.230	0.090	-0.100	0.850
2020/01/31 05:45:12.6	92.210	0.060	-0.050	0.890
2020/01/31 05:45:12.7	92.190	0.040	-0.010	0.930
2020/01/31 05:45:12.8	92.160	0.010	0.040	0.980
2020/01/31 05:45:12.9	92.140	-0.020	0.090	1.020
2020/01/31 05:45:13.0	92.120	-0.050	0.140	1.060
2020/01/31 05:45:13.1	92.090	-0.080	0.190	1.100
2020/01/31 05:45:13.2	92.070	-0.110	0.230	1.140
2020/01/31 05:45:13.3	92.040	-0.140	0.270	1.180
2020/01/31 05:45:13.4	92.020	-0.180	0.300	1.220
2020/01/31 05:45:13.5	92.000	-0.210	0.340	1.260
2020/01/31 05:45:13.6	91.980	-0.240	0.360	1.300
2020/01/31 05:45:13.7	91.950	-0.280	0.380	1.330
2020/01/31 05:45:13.8	91.930	-0.310	0.400	1.360
2020/01/31 05:45:13.9	91.920	-0.330	0.410	1.390
2020/01/31 05:45:14.0	91.900	-0.360	0.410	1.410
2020/01/31 05:45:14.1	91.880	-0.390	0.400	1.430
2020/01/31 05:45:14.2	91.860	-0.410	0.390	1.440
2020/01/31 05:45:14.3	91.840	-0.430	0.370	1.460
2020/01/31 05:45:14.4	91.830	-0.440	0.340	1.460
2020/01/31 05:45:14.5	91.830	-0.450	0.300	1.460
2020/01/31 05:45:14.6	91.820	-0.460	0.260	1.460
2020/01/31 05:45:14.7	91.820	-0.470	0.210	1.450
2020/01/31 05:45:14.8	91.820	-0.470	0.150	1.440
2020/01/31 05:45:14.9	91.820	-0.460	0.090	1.420
2020/01/31 05:45:15.0	91.820	-0.450	0.020	1.400
2020/01/31 05:45:15.1	91.830	-0.440	-0.050	1.370
2020/01/31 05:45:15.2	91.830	-0.420	-0.120	1.350
2020/01/31 05:45:15.3	91.840	-0.390	-0.200	1.320
2020/01/31 05:45:15.4	91.850	-0.360	-0.290	1.290
2020/01/31 05:45:15.5	91.860	-0.330	-0.370	1.250
2020/01/31 05:45:15.6	91.880	-0.290	-0.450	1.220
2020/01/31 05:45:15.7	91.900	-0.250	-0.540	1.190
2020/01/31 05:45:15.8	91.920	-0.200	-0.620	1.160
2020/01/31 05:45:15.9	91.930	-0.160	-0.710	1.120
2020/01/31 05:45:16.0	91.950	-0.100	-0.790	1.090
2020/01/31 05:45:16.1	91.970	-0.050	-0.860	1.060
2020/01/31 05:45:16.2	91.990	0.010	-0.940	1.030
2020/01/31 05:45:16.3	92.000	0.060	-1.000	1.000
2020/01/31 05:45:16.4	92.020	0.120	-1.060	0.970
2020/01/31 05:45:16.5	92.030	0.180	-1.110	0.950
2020/01/31 05:45:16.6	92.050	0.230	-1.160	0.920
2020/01/31 05:45:16.7	92.060	0.290	-1.190	0.890
2020/01/31 05:45:16.8	92.080	0.340	-1.210	0.870
2020/01/31 05:45:16.9	92.090	0.390	-1.230	0.850
2020/01/31 05:45:17.0	92.100	0.440	-1.230	0.820
2020/01/31 05:45:17.1	92.110	0.480	-1.220	0.800
2020/01/31 05:45:17.2	92.120	0.520	-1.200	0.790
2020/01/31 05:45:17.3	92.130	0.550	-1.170	0.770
2020/01/31 05:45:17.4	92.130	0.570	-1.120	0.750
2020/01/31 05:45:17.5	92.140	0.600	-1.070	0.740
2020/01/31 05:45:17.6	92.140	0.610	-1.000	0.730
2020/01/31 05:45:17.7	92.140	0.620	-0.930	0.720
2020/01/31 05:45:17.8	92.140	0.630	-0.850	0.720
2020/01/31 05:45:17.9	92.140	0.620	-0.750	0.720
2020/01/31 05:45:18.0	92.140	0.610	-0.650	0.730
2020/01/31 05:45:18.1	92.130	0.600	-0.540	0.730
2020/01/31 05:45:18.2	92.140	0.580	-0.430	0.740
2020/01/31 05:45:18.3	92.130	0.550	-0.310	0.760
2020/01/31 05:45:18.4	92.120	0.520	-0.190	0.780
2020/01/31 05:45:18.5	92.110	0.480	-0.070	0.800
2020/01/31 05:45:18.6	92.100	0.440	0.060	0.830
2020/01/31 05:45:18.7	92.090	0.390	0.180	0.860
2020/01/31 05:45:18.8	92.070	0.340	0.300	0.890
2020/01/31 05:45:18.9	92.060	0.290	0.420	0.920
2020/01/31 05:45:19.0	92.040	0.230	0.530	0.960
2020/01/31 05:45:19.1	92.020	0.170	0.630	0.990
2020/01/31 05:45:19.2	92.020	0.110	0.740	1.030
2020/01/31 05:45:19.3	92.000	0.050	0.820	1.070
2020/01/31 05:45:19.4	91.980	-0.010	0.900	1.100
2020/01/31 05:45:19.5	91.960	-0.070	0.970	1.130
2020/01/31 05:45:19.6	91.940	-0.130	1.020	1.170
2020/01/31 05:45:19.7	91.920	-0.190	1.060	1.190
2020/01/31 05:45:19.8	91.900	-0.240	1.090	1.220
2020/01/31 05:45:19.9	91.880	-0.290	1.100	1.240
2020/01/31 05:45:20.0	91.860	-0.340	1.110	1.260
2020/01/31 05:45:20.1	91.840	-0.390	1.090	1.270
2020/01/31 05:45:20.2	91.830	-0.430	1.070	1.270
2020/01/31 05:45:20.3	91.810	-0.470	1.030	1.280
2020/01/31 05:45:20.4	91.800	-0.500	0.980	1.270
2020/01/31 05:45:20.5	91.780	-0.530	0.910	1.260
2020/01/31 05:45:20.6	91.770	-0.550	0.840	1.250
2020/01/31 05:45:20.7	91.770	-0.570	0.760	1.230
2020/01/31 05:45:20.8	91.760	-0.580	0.670	1.200
2020/01/31 05:45:20.9	91.760	-0.590	0.570	1.170
2020/01/31 05:45:21.0	91.760	-0.600	0.470	1.130
2020/01/31 05:45:21.1	91.760	-0.600	0.360	1.090
2020/01/31 05:45:21.2	91.770	-0.590	0.240	1.050
2020/01/31 05:45:21.3	91.780	-0.580	0.130	1.010
2020/01/31 05:45:21.4	91.780	-0.570	0.020	0.970
2020/01/31 05:45:21.5	91.800	-0.550	-0.100	0.920
2020/01/31 05:45:21.6	91.810	-0.530	-0.210	0.880
2020/01/31 05:45:21.7	91.820	-0.500	-0.320	0.840
2020/01/31 05:45:21.8	91.840	-0.470	-0.430	0.800
2020/01/31 05:45:21.9	91.860	-0.440	-0.540	0.760
2020/01/31 05:45:22.0	91.880	-0.410	-0.640	0.730
2020/01/31 05:45:22.1	91.900	-0.370	-0.730	0.700
2020/01/31 05:45:22.2	91.900	-0.330	-0.830	0.660
2020/01/31 05:45:22.3	91.920	-0.290	-0.910	0.640
2020/01/31 05:45:22.4	91.940	-0.240	-0.990	0.620
2020/01/31 05:45:22.5	91.970	-0.200	-1.070	0.600
2020/01/31 05:45:22.6	91.990	-0.150	-1.130	0.590
2020/01/31 05:45:22.7	92.010	-0.100	-1.200	0.580
2020/01/31 05:45:22.8	92.030	-0.060	-1.250	0.580
2020/01/31 05:45:22.9	92.050	-0.010	-1.290	0.580
2020/01/31 05:45:23.0	92.070	0.040	-1.330	0.580
2020/01/31 05:45:23.1	92.090	0.080	-1.360	0.590
2020/01/31 05:45:23.2	92.100	0.130	-1.390	0.600
2020/01/31 05:45:23.3	92.120	0.170	-1.400	0.610
2020/01/31 05:45:23.4	92.130	0.210	-1.410	0.630
2020/01/31 05:45:23.5	92.140	0.250	-1.400	0.640
2020/01/31 05:45:23.6	92.150	0.290	-1.390	0.660
2020/01/31 05:45:23.7	92.160	0.320	-1.370	0.690
2020/01/31 05:45:23.8	92.170	0.350	-1.350	0.710
2020/01/31 05:45:23.9	92.170	0.370	-1.310	0.730
2020/01/31 05:45:24.0	92.170	0.400	-1.270	0.760
2020/01/31 05:45:24.1	92.170	0.410	-1.210	0.790
2020/01/31 05:45:24.2	92.150	0.430	-1.150	0.820
2020/01/31 05:45:24.3	92.150	0.430	-1.080	0.840
2020/01/31 05:45:24.4	92.140	0.440	-1.010	0.870
2020/01/31 05:45:24.5	92.140	0.440	-0.930	0.900
2020/01/31 05:45:24.6	92.130	0.430	-0.840	0.930
2020/01/31 05:45:24.7	92.120	0.420	-0.750	0.960
2020/01/31 05:45:24.8	92.120	0.400	-0.650	0.990
2020/01/31 05:45:24.9	92.110	0.380	-0.550	1.020
2020/01/31 05:45:25.0	92.090	0.360	-0.440	1.050
2020/01/31 05:45:25.1	92.080	0.330	-0.330	1.080
2020/01/31 05:45:25.2	92.060	0.290	-0.220	1.110
2020/01/31 05:45:25.3	92.050	0.260	-0.110	1.130
2020/01/31 05:45:25.4	92.030	0.220	0.010	1.150
2020/01/31 05:45:25.5	92.010	0.170	0.120	1.180
2020/01/31 05:45:25.6	92.000	0.130	0.230	1.200
2020/01/31 05:45:25.7	91.980	0.080	0.340	1.210
2020/01/31 05:45:25.8	91.950	0.030	0.450	1.230
2020/01/31 05:45:25.9	91.930	-0.020	0.550	1.240
2020/01/31 05:45:26.0	91.910	-0.070	0.650	1.250
2020/01/31 05:45:26.1	91.880	-0.130	0.740	1.260
2020/01/31 05:45:26.2	91.860	-0.180	0.820	1.260
2020/01/31 05:45:26.3	91.840	-0.230	0.900	1.260
2020/01/31 05:45:26.4	91.810	-0.270	0.960	1.260
2020/01/31 05:45:26.5	91.780	-0.320	1.010	1.260
2020/01/31 05:45:26.6	91.750	-0.360	1.060	1.250
2020/01/31 05:45:26.7	91.710	-0.390	1.090	1.240
2020/01/31 05:45:26.8	91.680	-0.430	1.110	1.230
2020/01/31 05:45:26.9	91.650	-0.450	1.110	1.220
2020/01/31 05:45:27.0	91.620	-0.470	1.100	1.200
2020/01/31 05:45:27.1	91.590	-0.490	1.080	1.180
2020/01/31 05:45:27.2	91.560	-0.500	1.040	1.160
2020/01/31 05:45:27.3	91.530	-0.500	0.990	1.130
2020/01/31 05:45:27.4	91.500	-0.500	0.920	1.110
2020/01/31 05:45:27.5	91.470	-0.480	0.850	1.080
2020/01/31 05:45:27.6	91.450	-0.470	0.760	1.040
2020/01/31 05:45:27.7	91.420	-0.440	0.650	1.010
2020/01/31 05:45:27.8	91.400	-0.410	0.540	0.970
2020/01/31 05:45:27.9	91.380	-0.380	0.420	0.930
2020/01/31 05:45:28.0	91.370	-0.330	0.300	0.890
2020/01/31 05:45:28.1	91.360	-0.290	0.170	0.840
2020/01/31 05:45:28.2	91.350	-0.240	0.030	0.790
2020/01/31 05:45:28.3	91.340	-0.190	-0.110	0.750
2020/01/31 05:45:28.4	91.340	-0.130	-0.250	0.700
2020/01/31 05:45:28.5	91.350	-0.070	-0.390	0.650
2020/01/31 05:45:28.6	91.350	-0.010	-0.520	0.600
2020/01/31 05:45:28.7	91.370	0.050	-0.650	0.550
2020/01/31 05:45:28.8	91.380	0.110	-0.780	0.500
2020/01/31 05:45:28.9	91.400	0.170	-0.900	0.450
2020/01/31 05:45:29.0	91.420	0.230	-1.010	0.410
2020/01/31 05:45:29.1	91.450	0.280	-1.110	0.370
2020/01/31 05:45:29.2	91.470	0.340	-1.210	0.330
2020/01/31 05:45:29.3	91.500	0.390	-1.290	0.300
2020/01/31 05:45:29.4	91.530	0.430	-1.360	0.270
2020/01/31 05:45:29.5	91.560	0.480	-1.420	0.250
2020/01/31 05:45:29.6	91.590	0.510	-1.460	0.230
2020/01/31 05:45:29.7	91.620	0.550	-1.500	0.210
2020/01/31 05:45:29.8	91.650	0.580	-1.520	0.200
2020/01/31 05:45:29.9	91.690	0.600	-1.530	0.200
2020/01/31 05:45:30.0	91.720	0.620	-1.520	0.200
2020/01/31 05:45:30.1	91.750	0.630	-1.510	0.210
2020/01/31 05:45:30.2	91.780	0.640	-1.470	0.220
2020/01/31 05:45:30.3	91.820	0.640	-1.430	0.240
2020/01/31 05:45:30.4	91.850	0.630	-1.380	0.260
2020/01/31 05:45:30.5	91.880	0.620	-1.310	0.290
2020/01/31 05:45:30.6	91.910	0.600	-1.230	0.320
2020/01/31 05:45:30.7	91.950	0.580	-1.150	0.350
2020/01/31 05:45:30.8	91.980	0.560	-1.050	0.390
2020/01/31 05:45:30.9	92.010	0.530	-0.950	0.440
2020/01/31 05:45:31.0	92.040	0.490	-0.840	0.480
2020/01/31 05:45:31.1	92.060	0.450	-0.720	0.530
2020/01/31 05:45:31.2	92.090	0.410	-0.600	0.580
2020/01/31 05:45:31.3	92.110	0.360	-0.470	0.640
2020/01/31 05:45:31.4	92.140	0.310	-0.350	0.700
2020/01/31 05:45:31.5	92.160	0.260	-0.210	0.760
2020/01/31 05:45:31.6	92.180	0.210	-0.080	0.820
2020/01/31 05:45:31.7	92.190	0.160	0.050	0.880
2020/01/31 05:45:31.8	92.210	0.100	0.170	0.940
2020/01/31 05:45:31.9	92.220	0.050	0.290	1.000
2020/01/31 05:45:32.0	92.230	-0.010	0.410	1.060
2020/01/31 05:45:32.1	92.230	-0.070	0.520	1.120
2020/01/31 05:45:32.2	92.230	-0.120	0.630	1.190
2020/01/31 05:45:32.3	92.220	-0.170	0.720	1.240
2020/01/31 05:45:32.4	92.220	-0.220	0.800	1.300
2020/01/31 05:45:32.5	92.210	-0.270	0.880	1.360
2020/01/31 05:45:32.6	92.200	-0.320	0.940	1.410
2020/01/31 05:45:32.7	92.190	-0.360	0.990	1.460
2020/01/31 05:45:32.8	92.170	-0.400	1.030	1.510
2020/01/31 05:45:32.9	92.150	-0.440	1.050	1.560
2020/01/31 05:45:33.0	92.130	-0.470	1.070	1.600
2020/01/31 05:45:33.1	92.100	-0.500	1.070	1.640
2020/01/31 05:45:33.2	92.080	-0.520	1.060	1.670
2020/01/31 05:45:33.3	92.050	-0.540	1.040	1.710
2020/01/31 05:45:33.4	92.020	-0.560	1.010	1.730
2020/01/31 05:45:33.5	91.990	-0.570	0.970	1.750
2020/01/31 05:45:33.6	91.950	-0.580	0.920	1.770
2020/01/31 05:45:33.7	91.920	-0.580	0.850	1.780
2020/01/31 05:45:33.8	91.890	-0.590	0.790	1.790
2020/01/31 05:45:33.9	91.850	-0.580	0.710	1.790
2020/01/31 05:45:34.0	91.820	-0.580	0.630	1.780
2020/01/31 05:45:34.1	91.790	-0.570	0.540	1.770
2020/01/31 05:45:34.2	91.770	-0.560	0.450	1.750
2020/01/31 05:45:34.3	91.740	-0.540	0.350	1.730
2020/01/31 05:45:34.4	91.720	-0.530	0.260	1.710
2020/01/31 05:45:34.5	91.700	-0.510	0.160	1.680
2020/01/31 05:45:34.6	91.690	-0.480	0.060	1.650
2020/01/31 05:45:34.7	91.670	-0.460	-0.030	1.620
2020/01/31 05:45:34.8	91.670	-0.430	-0.130	1.580
2020/01/31 05:45:34.9	91.660	-0.400	-0.220	1.540
2020/01/31 05:45:35.0	91.660	-0.370	-0.310	1.500
2020/01/31 05:45:35.1	91.660	-0.340	-0.400	1.460
2020/01/31 05:45:35.2	91.660	-0.310	-0.480	1.410
2020/01/31 05:45:35.3	91.670	-0.280	-0.560	1.370
2020/01/31 05:45:35.4	91.680	-0.250	-0.630	1.320
2020/01/31 05:45:35.5	91.690	-0.210	-0.700	1.270
2020/01/31 05:45:35.6	91.700	-0.180	-0.760	1.230
2020/01/31 05:45:35.7	91.720	-0.150	-0.820	1.180
2020/01/31 05:45:35.8	91.740	-0.110	-0.870	1.130
2020/01/31 05:45:35.9	91.760	-0.080	-0.910	1.080
2020/01/31 05:45:36.0	91.780	-0.050	-0.950	1.030
2020/01/31 05:45:36.1	91.800	-0.020	-0.980	0.990
2020/01/31 05:45:36.2	91.810	0.010	-1.010	0.940
2020/01/31 05:45:36.3	91.830	0.040	-1.030	0.900
2020/01/31 05:45:36.4	91.850	0.060	-1.040	0.850
2020/01/31 05:45:36.5	91.880	0.080	-1.040	0.810
2020/01/31 05:45:36.6	91.900	0.110	-1.040	0.770
2020/01/31 05:45:36.7	91.920	0.130	-1.030	0.730
2020/01/31 05:45:36.8	91.940	0.140	-1.020	0.700
2020/01/31 05:45:36.9	91.960	0.160	-1.000	0.660
2020/01/31 05:45:37.0	91.970	0.170	-0.980	0.630
2020/01/31 05:45:37.1	91.990	0.180	-0.950	0.600
2020/01/31 05:45:37.2	92.010	0.190	-0.910	0.580
2020/01/31 05:45:37.3	92.020	0.200	-0.880	0.560
2020/01/31 05:45:37.4	92.030	0.200	-0.840	0.540
2020/01/31 05:45:37.5	92.040	0.200	-0.800	0.520
2020/01/31 05:45:37.6	92.040	0.200	-0.750	0.510
2020/01/31 05:45:37.7	92.050	0.200	-0.700	0.500
2020/01/31 05:45:37.8	92.050	0.200	-0.660	0.490
2020/01/31 05:45:37.9	92.050	0.190	-0.600	0.490
2020/01/31 05:45:38.0	92.050	0.180	-0.550	0.490
2020/01/31 05:45:38.1	92.040	0.180	-0.500	0.500
2020/01/31 05:45:38.2	92.030	0.170	-0.450	0.510
2020/01/31 05:45:38.3	92.020	0.150	-0.400	0.520
2020/01/31 05:45:38.4	92.010	0.140	-0.350	0.540
2020/01/31 05:45:38.5	92.000	0.130	-0.300	0.560
2020/01/31 05:45:38.6	91.980	0.120	-0.260	0.580
2020/01/31 05:45:38.7	91.960	0.110	-0.210	0.610
2020/01/31 05:45:38.8	91.940	0.090	-0.170	0.640
2020/01/31 05:45:38.9	91.920	0.080	-0.130	0.670
2020/01/31 05:45:39.0	91.900	0.070	-0.090	0.710
2020/01/31 05:45:39.1	91.880	0.060	-0.060	0.740
2020/01/31 05:45:39.2	91.850	0.050	-0.020	0.770
2020/01/31 05:45:39.3	91.830	0.040	0.000	0.810
2020/01/31 05:45:39.4	91.810	0.030	0.030	0.840
2020/01/31 05:45:39.5	91.780	0.030	0.040	0.870
2020/01/31 05:45:39.6	91.760	0.020	0.060	0.900
2020/01/31 05:45:39.7	91.740	0.020	0.070	0.930
2020/01/31 05:45:39.8	91.720	0.020	0.080	0.950
2020/01/31 05:45:39.9	91.700	0.020	0.080	0.970
2020/01/31 05:45:40.0	91.690	0.020	0.080	0.990
2020/01/31 05:45:40.1	91.670	0.020	0.080	1.000
2020/01/31 05:45:40.2	91.650	0.030	0.080	1.010
2020/01/31 05:45:40.3	91.640	0.030	0.070	1.010
2020/01/31 05:45:40.4	91.620	0.040	0.060	1.020
2020/01/31 05:45:40.5	91.610	0.050	0.040	1.020
2020/01/31 05:45:40.6	91.590	0.060	0.020	1.020
2020/01/31 05:45:40.7	91.580	0.070	0.000	1.010
2020/01/31 05:45:40.8	91.560	0.080	-0.020	1.010
2020/01/31 05:45:40.9	91.550	0.090	-0.040	1.000
2020/01/31 05:45:41.0	91.530	0.100	-0.070	0.990
2020/01/31 05:45:41.1	91.520	0.120	-0.090	0.980
2020/01/31 05:45:41.2	91.510	0.130	-0.130	0.970
2020/01/31 05:45:41.3	91.490	0.140	-0.150	0.960
2020/01/31 05:45:41.4	91.480	0.150	-0.180	0.950
2020/01/31 05:45:41.5	91.470	0.160	-0.200	0.930
2020/01/31 05:45:41.6	91.460	0.170	-0.220	0.920
2020/01/31 05:45:41.7	91.450	0.180	-0.250	0.910
2020/01/31 05:45:41.8	91.440	0.190	-0.270	0.890
2020/01/31 05:45:41.9	91.440	0.200	-0.290	0.880
2020/01/31 05:45:42.0	91.430	0.200	-0.310	0.870
2020/01/31 05:45:42.1	91.430	0.210	-0.320	0.860
2020/01/31 05:45:42.2	91.420	0.210	-0.330	0.850
2020/01/31 05:45:42.3	91.420	0.210	-0.340	0.830
2020/01/31 05:45:42.4	91.420	0.210	-0.350	0.820
2020/01/31 05:45:42.5	91.430	0.210	-0.350	0.810
2020/01/31 05:45:42.6	91.430	0.200	-0.350	0.800
2020/01/31 05:45:42.7	91.440	0.190	-0.350	0.790
2020/01/31 05:45:42.8	91.450	0.180	-0.340	0.780
2020/01/31 05:45:42.9	91.460	0.170	-0.320	0.770
2020/01/31 05:45:43.0	91.470	0.160	-0.300	0.760
2020/01/31 05:45:43.1	91.480	0.140	-0.280	0.750
2020/01/31 05:45:43.2	91.480	0.120	-0.250	0.740
2020/01/31 05:45:43.3	91.490	0.100	-0.220	0.730
2020/01/31 05:45:43.4	91.500	0.070	-0.190	0.720
2020/01/31 05:45:43.5	91.510	0.050	-0.150	0.710
2020/01/31 05:45:43.6	91.530	0.020	-0.110	0.710
2020/01/31 05:45:43.7	91.540	-0.010	-0.060	0.700
2020/01/31 05:45:43.8	91.550	-0.040	-0.010	0.700
2020/01/31 05:45:43.9	91.560	-0.080	0.030	0.700
2020/01/31 05:45:44.0	91.570	-0.110	0.080	0.700
2020/01/31 05:45:44.1	91.580	-0.150	0.130	0.700
2020/01/31 05:45:44.2	91.610	-0.180	0.180	0.700
2020/01/31 05:45:44.3	91.610	-0.220	0.230	0.700
2020/01/31 05:45:44.4	91.620	-0.250	0.280	0.700
2020/01/31 05:45:44.5	91.630	-0.280	0.320	0.700
2020/01/31 05:45:44.6	91.630	-0.310	0.360	0.710
2020/01/31 05:45:44.7	91.630	-0.340	0.400	0.710
2020/01/31 05:45:44.8	91.630	-0.370	0.430	0.710
2020/01/31 05:45:44.9	91.630	-0.400	0.450	0.710
2020/01/31 05:45:45.0	91.630	-0.420	0.470	0.720
2020/01/31 05:45:45.1	91.630	-0.440	0.490	0.720
2020/01/31 05:45:45.2	91.640	-0.450	0.500	0.720
2020/01/31 05:45:45.3	91.640	-0.460	0.490	0.730
2020/01/31 05:45:45.4	91.630	-0.470	0.480	0.740
2020/01/31 05:45:45.5	91.620	-0.470	0.470	0.750
2020/01/31 05:45:45.6	91.600	-0.460	0.440	0.760
2020/01/31 05:45:45.7	91.590	-0.450	0.410	0.770
2020/01/31 05:45:45.8	91.570	-0.440	0.370	0.780
2020/01/31 05:45:45.9	91.550	-0.420	0.320	0.800
2020/01/31 05:45:46.0	91.530	-0.390	0.260	0.820
2020/01/31 05:45:46.1	91.500	-0.360	0.200	0.840
2020/01/31 05:45:46.2	91.480	-0.330	0.120	0.860
2020/01/31 05:45:46.3	91.450	-0.290	0.050	0.880
2020/01/31 05:45:46.4	91.430	-0.250	-0.030	0.910
2020/01/31 05:45:46.5	91.400	-0.210	-0.110	0.930
2020/01/31 05:45:46.6	91.370	-0.160	-0.200	0.960
2020/01/31 05:45:46.7	91.350	-0.100	-0.290	0.980
2020/01/31 05:45:46.8	91.320	-0.050	-0.380	1.000
2020/01/31 05:45:46.9	91.290	0.000	-0.470	1.030
2020/01/31 05:45:47.0	91.270	0.060	-0.560	1.050
2020/01/31 05:45:47.1	91.250	0.120	-0.650	1.080
2020/01/31 05:45:47.2	91.210	0.180	-0.750	1.100
2020/01/31 05:45:47.3	91.190	0.230	-0.830	1.120
2020/01/31 05:45:47.4	91.170	0.290	-0.920	1.150
2020/01/31 05:45:47.5	91.160	0.350	-1.000	1.170
2020/01/31 05:45:47.6	91.140	0.400	-1.080	1.190
2020/01/31 05:45:47.7	91.130	0.450	-1.150	1.210
2020/01/31 05:45:47.8	91.110	0.500	-1.210	1.230
2020/01/31 05:45:47.9	91.100	0.540	-1.270	1.240
2020/01/31 05:45:48.0	91.100	0.590	-1.320	1.260
2020/01/31 05:45:48.1	91.090	0.620	-1.360	1.270
2020/01/31 05:45:48.2	91.070	0.650	-1.390	1.290
2020/01/31 05:45:48.3	91.070	0.680	-1.420	1.300
2020/01/31 05:45:48.4	91.070	0.700	-1.430	1.310
2020/01/31 05:45:48.5	91.070	0.720	-1.430	1.310
2020/01/31 05:45:48.6	91.070	0.730	-1.430	1.320
2020/01/31 05:45:48.7	91.070	0.730	-1.410	1.320
2020/01/31 05:45:48.8	91.080	0.730	-1.390	1.330
2020/01/31 05:45:48.9	91.080	0.720	-1.350	1.330
2020/01/31 05:45:49.0	91.090	0.710	-1.300	1.330
2020/01/31 05:45:49.1	91.100	0.690	-1.240	1.330
2020/01/31 05:45:49.2	91.100	0.670	-1.180	1.320
2020/01/31 05:45:49.3	91.100	0.630	-1.110	1.320
2020/01/31 05:45:49.4	91.110	0.600	-1.020	1.320
2020/01/31 05:45:49.5	91.120	0.560	-0.930	1.310
2020/01/31 05:45:49.6	91.130	0.510	-0.830	1.310
2020/01/31 05:45:49.7	91.130	0.460	-0.730	1.310
2020/01/31 05:45:49.8	91.140	0.400	-0.620	1.300
2020/01/31 05:45:49.9	91.140	0.350	-0.510	1.300
2020/01/31 05:45:50.0	91.140	0.280	-0.390	1.300
2020/01/31 05:45:50.1	91.140	0.220	-0.270	1.300
2020/01/31 05:45:50.2	91.140	0.150	-0.140	1.300
2020/01/31 05:45:50.3	91.140	0.090	-0.020	1.300
2020/01/31 05:45:50.4	91.130	0.020	0.110	1.300
2020/01/31 05:45:50.5	91.120	-0.050	0.230	1.310
2020/01/31 05:45:50.6	91.110	-0.120	0.350	1.310
2020/01/31 05:45:50.7	91.100	-0.190	0.460	1.310
2020/01/31 05:45:50.8	91.090	-0.260	0.570	1.320
2020/01/31 05:45:50.9	91.080	-0.330	0.670	1.320
2020/01/31 05:45:51.0	91.060	-0.400	0.770	1.320
2020/01/31 05:45:51.1	91.050	-0.460	0.860	1.320
2020/01/31 05:45:51.2	91.040	-0.520	0.940	1.320
2020/01/31 05:45:51.3	91.030	-0.580	1.010	1.320
2020/01/31 05:45:51.4	91.020	-0.630	1.070	1.320
2020/01/31 05:45:51.5	91.010	-0.680	1.130	1.320
2020/01/31 05:45:51.6	91.000	-0.730	1.170	1.320
2020/01/31 05:45:51.7	91.000	-0.770	1.200	1.310
2020/01/31 05:45:51.8	90.990	-0.800	1.220	1.300
2020/01/31 05:45:51.9	90.980	-0.830	1.230	1.290
2020/01/31 05:45:52.0	90.980	-0.860	1.230	1.280
2020/01/31 05:45:52.1	90.980	-0.880	1.210	1.260
2020/01/31 05:45:52.2	90.990	-0.890	1.190	1.250
2020/01/31 05:45:52.3	90.990	-0.900	1.150	1.230
2020/01/31 05:45:52.4	90.990	-0.910	1.100	1.210
2020/01/31 05:45:52.5	91.000	-0.900	1.040	1.180
2020/01/31 05:45:52.6	91.000	-0.900	0.970	1.160
2020/01/31 05:45:52.7	91.000	-0.880	0.890	1.130
2020/01/31 05:45:52.8	91.010	-0.860	0.800	1.100
2020/01/31 05:45:52.9	91.020	-0.840	0.700	1.070
2020/01/31 05:45:53.0	91.020	-0.810	0.600	1.030
2020/01/31 05:45:53.1	91.030	-0.780	0.490	1.000
2020/01/31 05:45:53.2	91.040	-0.740	0.360	0.970
2020/01/31 05:45:53.3	91.050	-0.690	0.240	0.930
2020/01/31 05:45:53.4	91.060	-0.650	0.120	0.900
2020/01/31 05:45:53.5	91.060	-0.590	-0.010	0.870
2020/01/31 05:45:53.6	91.070	-0.540	-0.140	0.830
2020/01/31 05:45:53.7	91.070	-0.480	-0.270	0.800
2020/01/31 05:45:53.8	91.080	-0.420	-0.400	0.770
2020/01/31 05:45:53.9	91.080	-0.360	-0.520	0.750
2020/01/31 05:45:54.0	91.090	-0.290	-0.640	0.720
2020/01/31 05:45:54.1	91.090	-0.230	-0.750	0.690
2020/01/31 05:45:54.2	91.090	-0.160	-0.860	0.660
2020/01/31 05:45:54.3	91.090	-0.090	-0.960	0.640
2020/01/31 05:45:54.4	91.100	-0.030	-1.050	0.620
2020/01/31 05:45:54.5	91.100	0.030	-1.130	0.600
2020/01/31 05:45:54.6	91.100	0.100	-1.200	0.580
2020/01/31 05:45:54.7	91.100	0.160	-1.260	0.560
2020/01/31 05:45:54.8	91.100	0.210	-1.300	0.550
2020/01/31 05:45:54.9	91.090	0.270	-1.340	0.530
2020/01/31 05:45:55.0	91.090	0.320	-1.360	0.520
2020/01/31 05:45:55.1	91.080	0.360	-1.380	0.510
2020/01/31 05:45:55.2	91.060	0.410	-1.390	0.500
2020/01/31 05:45:55.3	91.060	0.440	-1.380	0.490
2020/01/31 05:45:55.4	91.050	0.480	-1.360	0.490
2020/01/31 05:45:55.5	91.040	0.510	-1.330	0.490
2020/01/31 05:45:55.6	91.030	0.530	-1.290	0.490
2020/01/31 05:45:55.7	91.020	0.550	-1.240	0.490
2020/01/31 05:45:55.8	91.010	0.560	-1.180	0.490
2020/01/31 05:45:55.9	90.990	0.570	-1.110	0.500
2020/01/31 05:45:56.0	90.980	0.580	-1.040	0.500
2020/01/31 05:45:56.1	90.960	0.580	-0.970	0.510
2020/01/31 05:45:56.2	90.950	0.570	-0.880	0.520
2020/01/31 05:45:56.3	90.940	0.560	-0.790	0.540
2020/01/31 05:45:56.4	90.920	0.550	-0.700	0.550
2020/01/31 05:45:56.5	90.910	0.540	-0.610	0.560
2020/01/31 05:45:56.6	90.890	0.520	-0.520	0.580
2020/01/31 05:45:56.7	90.880	0.500	-0.430	0.600
2020/01/31 05:45:56.8	90.860	0.480	-0.340	0.610
2020/01/31 05:45:56.9	90.850	0.450	-0.250	0.630
2020/01/31 05:45:57.0	90.840	0.420	-0.160	0.640
2020/01/31 05:45:57.1	90.830	0.390	-0.080	0.660
2020/01/31 05:45:57.2	90.810	0.360	0.000	0.670
2020/01/31 05:45:57.3	90.800	0.330	0.080	0.680
2020/01/31 05:45:57.4	90.800	0.300	0.150	0.690
2020/01/31 05:45:57.5	90.790	0.270	0.220	0.710
2020/01/31 05:45:57.6	90.790	0.240	0.280	0.720
2020/01/31 05:45:57.7	90.790	0.210	0.340	0.730
2020/01/31 05:45:57.8	90.790	0.180	0.390	0.740
2020/01/31 05:45:57.9	90.780	0.150	0.430	0.760
2020/01/31 05:45:58.0	90.780	0.120	0.470	0.770
2020/01/31 05:45:58.1	90.780	0.090	0.490	0.780
2020/01/31 05:45:58.2	90.790	0.070	0.520	0.790
2020/01/31 05:45:58.3	90.790	0.050	0.530	0.810
2020/01/31 05:45:58.4	90.790	0.020	0.530	0.820
2020/01/31 05:45:58.5	90.790	0.010	0.530	0.840
2020/01/31 05:45:58.6	90.780	-0.010	0.520	0.850
2020/01/31 05:45:58.7	90.780	-0.020	0.500	0.870
2020/01/31 05:45:58.8	90.780	-0.040	0.470	0.890
2020/01/31 05:45:58.9	90.770	-0.040	0.440	0.910
2020/01/31 05:45:59.0	90.770	-0.050	0.400	0.930
2020/01/31 05:45:59.1	90.760	-0.050	0.350	0.950
2020/01/31 05:45:59.2	90.750	-0.050	0.300	0.970
2020/01/31 05:45:59.3	90.740	-0.050	0.240	1.000
2020/01/31 05:45:59.4	90.730	-0.040	0.180	1.020
2020/01/31 05:45:59.5	90.710	-0.040	0.110	1.040
2020/01/31 05:45:59.6	90.700	-0.030	0.040	1.070
2020/01/31 05:45:59.7	90.680	-0.020	-0.030	1.090
2020/01/31 05:45:59.8	90.660	-0.010	-0.100	1.110
2020/01/31 05:45:59.9	90.640	0.010	-0.170	1.140
2020/01/31 05:46:00.0	90.630	0.020	-0.240	1.160
2020/01/31 05:46:00.1	90.610	0.040	-0.310	1.180
2020/01/31 05:46:00.2	90.590	0.060	-0.380	1.200
2020/01/31 05:46:00.3	90.570	0.070	-0.450	1.220
2020/01/31 05:46:00.4	90.550	0.090	-0.510	1.230
2020/01/31 05:46:00.5	90.540	0.110	-0.570	1.250
2020/01/31 05:46:00.6	90.520	0.130	-0.630	1.260
2020/01/31 05:46:00.7	90.510	0.150	-0.680	1.270
2020/01/31 05:46:00.8	90.500	0.160	-0.730	1.280
2020/01/31 05:46:00.9	90.500	0.180	-0.770	1.280
2020/01/31 05:46:01.0	90.490	0.190	-0.800	1.290
2020/01/31 05:46:01.1	90.490	0.200	-0.830	1.290
2020/01/31 05:46:01.2	90.510	0.220	-0.850	1.300
2020/01/31 05:46:01.3	90.510	0.220	-0.870	1.300
2020/01/31 05:46:01.4	90.510	0.230	-0.880	1.300
2020/01/31 05:46:01.5	90.520	0.240	-0.880	1.310
2020/01/31 05:46:01.6	90.530	0.240	-0.880	1.310
2020/01/31 05:46:01.7	90.540	0.240	-0.870	1.320
2020/01/31 05:46:01.8	90.560	0.240	-0.850	1.320
2020/01/31 05:46:01.9	90.570	0.230	-0.820	1.330
2020/01/31 05:46:02.0	90.590	0.220	-0.790	1.340
2020/01/31 05:46:02.1	90.610	0.210	-0.760	1.350
2020/01/31 05:46:02.2	90.620	0.190	-0.720	1.360
2020/01/31 05:46:02.3	90.640	0.170	-0.670	1.370
2020/01/31 05:46:02.4	90.670	0.150	-0.610	1.380
2020/01/31 05:46:02.5	90.690	0.120	-0.550	1.390
2020/01/31 05:46:02.6	90.710	0.090	-0.490	1.400
2020/01/31 05:46:02.7	90.730	0.060	-0.420	1.410
2020/01/31 05:46:02.8	90.750	0.020	-0.340	1.420
2020/01/31 05:46:02.9	90.770	-0.020	-0.270	1.430
2020/01/31 05:46:03.0	90.790	-0.060	-0.190	1.440
2020/01/31 05:46:03.1	90.810	-0.100	-0.110	1.450
2020/01/31 05:46:03.2	90.820	-0.140	-0.030	1.450
2020/01/31 05:46:03.3	90.840	-0.190	0.050	1.460
2020/01/31 05:46:03.4	90.850	-0.240	0.120	1.460
2020/01/31 05:46:03.5	90.860	-0.280	0.200	1.460
2020/01/31 05:46:03.6	90.870	-0.330	0.270	1.460
2020/01/31 05:46:03.7	90.880	-0.370	0.340	1.460
2020/01/31 05:46:03.8	90.880	-0.410	0.400	1.460
2020/01/31 05:46:03.9	90.890	-0.460	0.460	1.460
2020/01/31 05:46:04.0	90.890	-0.500	0.510	1.450
2020/01/31 05:46:04.1	90.880	-0.530	0.550	1.450
2020/01/31 05:46:04.2	90.870	-0.560	0.590	1.440
2020/01/31 05:46:04.3	90.870	-0.590	0.620	1.430
2020/01/31 05:46:04.4	90.860	-0.620	0.640	1.430
2020/01/31 05:46:04.5	90.840	-0.640	0.660	1.420
2020/01/31 05:46:04.6	90.830	-0.660	0.660	1.410
2020/01/31 05:46:04.7	90.810	-0.670	0.650	1.410
2020/01/31 05:46:04.8	90.790	-0.670	0.640	1.400
2020/01/31 05:46:04.9	90.770	-0.670	0.620	1.400
2020/01/31 05:46:05.0	90.750	-0.670	0.580	1.390
2020/01/31 05:46:05.1	90.730	-0.660	0.550	1.390
2020/01/31 05:46:05.2	90.690	-0.640	0.490	1.380
2020/01/31 05:46:05.3	90.670	-0.620	0.440	1.380
2020/01/31 05:46:05.4	90.640	-0.600	0.380	1.370
2020/01/31 05:46:05.5	90.620	-0.570	0.310	1.360
2020/01/31 05:46:05.6	90.590	-0.530	0.230	1.360
2020/01/31 05:46:05.7	90.570	-0.500	0.160	1.350
2020/01/31 05:46:05.8	90.540	-0.450	0.070	1.340
2020/01/31 05:46:05.9	90.520	-0.410	-0.010	1.320
2020/01/31 05:46:06.0	90.500	-0.360	-0.100	1.310
2020/01/31 05:46:06.1	90.480	-0.310	-0.190	1.290
2020/01/31 05:46:06.2	90.460	-0.250	-0.280	1.260
2020/01/31 05:46:06.3	90.450	-0.200	-0.380	1.240
2020/01/31 05:46:06.4	90.440	-0.140	-0.470	1.210
2020/01/31 05:46:06.5	90.440	-0.080	-0.560	1.180
2020/01/31 05:46:06.6	90.440	-0.020	-0.650	1.140
2020/01/31 05:46:06.7	90.440	0.040	-0.740	1.100
2020/01/31 05:46:06.8	90.440	0.100	-0.820	1.060
2020/01/31 05:46:06.9	90.450	0.150	-0.900	1.020
2020/01/31 05:46:07.0	90.460	0.210	-0.970	0.980
2020/01/31 05:46:07.1	90.470	0.260	-1.040	0.940
2020/01/31 05:46:07.2	90.480	0.310	-1.100	0.890
2020/01/31 05:46:07.3	90.490	0.360	-1.150	0.850
2020/01/31 05:46:07.4	90.510	0.400	-1.190	0.800
2020/01/31 05:46:07.5	90.520	0.440	-1.220	0.760
2020/01/31 05:46:07.6	90.540	0.480	-1.240	0.720
2020/01/31 05:46:07.7	90.560	0.510	-1.250	0.670
2020/01/31 05:46:07.8	90.570	0.530	-1.250	0.630
2020/01/31 05:46:07.9	90.590	0.550	-1.240	0.590
2020/01/31 05:46:08.0	90.610	0.560	-1.220	0.550
2020/01/31 05:46:08.1	90.620	0.570	-1.180	0.520
2020/01/31 05:46:08.2	90.640	0.570	-1.140	0.480
2020/01/31 05:46:08.3	90.660	0.560	-1.080	0.440
2020/01/31 05:46:08.4	90.670	0.550	-1.020	0.410
2020/01/31 05:46:08.5	90.680	0.540	-0.940	0.390
2020/01/31 05:46:08.6	90.700	0.520	-0.860	0.360
2020/01/31 05:46:08.7	90.710	0.490	-0.770	0.340
2020/01/31 05:46:08.8	90.720	0.460	-0.670	0.330
2020/01/31 05:46:08.9	90.730	0.430	-0.570	0.310
2020/01/31 05:46:09.0	90.740	0.390	-0.460	0.300
2020/01/31 05:46:09.1	90.740	0.350	-0.350	0.300
2020/01/31 05:46:09.2	90.760	0.300	-0.240	0.300
2020/01/31 05:46:09.3	90.770	0.260	-0.130	0.300
2020/01/31 05:46:09.4	90.770	0.210	-0.020	0.310
2020/01/31 05:46:09.5	90.770	0.160	0.090	0.320
2020/01/31 05:46:09.6	90.770	0.110	0.200	0.340
2020/01/31 05:46:09.7	90.770	0.060	0.300	0.360
2020/01/31 05:46:09.8	90.760	0.020	0.390	0.380
2020/01/31 05:46:09.9	90.760	-0.030	0.470	0.410
2020/01/31 05:46:10.0	90.760	-0.070	0.550	0.440
2020/01/31 05:46:10.1	90.750	-0.110	0.610	0.470
2020/01/31 05:46:10.2	90.750	-0.150	0.670	0.500
2020/01/31 05:46:10.3	90.740	-0.180	0.710	0.540
2020/01/31 05:46:10.4	90.740	-0.210	0.740	0.580
2020/01/31 05:46:10.5	90.730	-0.230	0.750	0.610
2020/01/31 05:46:10.6	90.730	-0.250	0.760	0.650
2020/01/31 05:46:10.7	90.720	-0.270	0.750	0.690
2020/01/31 05:46:10.8	90.720	-0.270	0.730	0.720
2020/01/31 05:46:10.9	90.720	-0.280	0.690	0.750
2020/01/31 05:46:11.0	90.710	-0.270	0.650	0.780
2020/01/31 05:46:11.1	90.710	-0.270	0.590	0.810
2020/01/31 05:46:11.2	90.710	-0.250	0.530	0.830
2020/01/31 05:46:11.3	90.710	-0.230	0.450	0.850
2020/01/31 05:46:11.4	90.700	-0.210	0.370	0.870
2020/01/31 05:46:11.5	90.700	-0.190	0.280	0.880
2020/01/31 05:46:11.6	90.700	-0.160	0.180	0.890
2020/01/31 05:46:11.7	90.700	-0.120	0.090	0.900
2020/01/31 05:46:11.8	90.690	-0.090	-0.010	0.900
2020/01/31 05:46:11.9	90.690	-0.060	-0.110	0.900
2020/01/31 05:46:12.0	90.690	-0.020	-0.210	0.900
2020/01/31 05:46:12.1	90.680	0.020	-0.300	0.900
2020/01/31 05:46:12.2	90.680	0.050	-0.400	0.890
2020/01/31 05:46:12.3	90.680	0.090	-0.490	0.890
2020/01/31 05:46:12.4	90.670	0.120	-0.560	0.890
2020/01/31 05:46:12.5	90.670	0.150	-0.630	0.880
2020/01/31 05:46:12.6	90.670	0.180	-0.690	0.880
2020/01/31 05:46:12.7	90.670	0.200	-0.740	0.880
2020/01/31 05:46:12.8	90.660	0.220	-0.790	0.880
2020/01/31 05:46:12.9	90.660	0.240	-0.820	0.880
2020/01/31 05:46:13.0	90.660	0.260	-0.840	0.890
2020/01/31 05:46:13.1	90.660	0.270	-0.850	0.900
2020/01/31 05:46:13.2	90.660	0.270	-0.850	0.910
2020/01/31 05:46:13.3	90.660	0.280	-0.840	0.930
2020/01/31 05:46:13.4	90.660	0.270	-0.830	0.940
2020/01/31 05:46:13.5	90.660	0.270	-0.800	0.970
2020/01/31 05:46:13.6	90.660	0.260	-0.770	0.990
2020/01/31 05:46:13.7	90.660	0.240	-0.730	1.010
2020/01/31 05:46:13.8	90.670	0.220	-0.680	1.040
2020/01/31 05:46:13.9	90.670	0.200	-0.630	1.070
2020/01/31 05:46:14.0	90.670	0.180	-0.580	1.100
2020/01/31 05:46:14.1	90.680	0.150	-0.520	1.120
2020/01/31 05:46:14.2	90.690	0.120	-0.450	1.150
2020/01/31 05:46:14.3	90.700	0.090	-0.390	1.180
2020/01/31 05:46:14.4	90.710	0.060	-0.330	1.200
2020/01/31 05:46:14.5	90.720	0.030	-0.270	1.220
2020/01/31 05:46:14.6	90.730	-0.010	-0.200	1.240
2020/01/31 05:46:14.7	90.750	-0.040	-0.150	1.250
2020/01/31 05:46:14.8	90.760	-0.070	-0.090	1.260
2020/01/31 05:46:14.9	90.770	-0.100	-0.040	1.270
2020/01/31 05:46:15.0	90.790	-0.140	0.010	1.270
2020/01/31 05:46:15.1	90.800	-0.160	0.050	1.270
2020/01/31 05:46:15.2	90.810	-0.190	0.090	1.270
2020/01/31 05:46:15.3	90.820	-0.220	0.120	1.270
2020/01/31 05:46:15.4	90.840	-0.240	0.140	1.260
2020/01/31 05:46:15.5	90.850	-0.260	0.160	1.260
2020/01/31 05:46:15.6	90.860	-0.280	0.180	1.250
2020/01/31 05:46:15.7	90.880	-0.290	0.190	1.240
2020/01/31 05:46:15.8	90.890	-0.300	0.190	1.230
2020/01/31 05:46:15.9	90.900	-0.310	0.200	1.220
2020/01/31 05:46:16.0	90.900	-0.310	0.190	1.210
2020/01/31 05:46:16.1	90.910	-0.320	0.190	1.200
2020/01/31 05:46:16.2	90.910	-0.320	0.180	1.190
2020/01/31 05:46:16.3	90.910	-0.310	0.170	1.190
2020/01/31 05:46:16.4	90.910	-0.310	0.160	1.180
2020/01/31 05:46:16.5	90.910	-0.300	0.140	1.170
2020/01/31 05:46:16.6	90.910	-0.290	0.130	1.170
2020/01/31 05:46:16.7	90.900	-0.280	0.110	1.160
2020/01/31 05:46:16.8	90.900	-0.270	0.090	1.160
2020/01/31 05:46:16.9	90.890	-0.260	0.080	1.160
2020/01/31 05:46:17.0	90.880	-0.240	0.060	1.160
2020/01/31 05:46:17.1	90.870	-0.220	0.050	1.160
2020/01/31 05:46:17.2	90.850	-0.210	0.030	1.160
2020/01/31 05:46:17.3	90.830	-0.190	0.020	1.160
2020/01/31 05:46:17.4	90.810	-0.170	0.000	1.160
2020/01/31 05:46:17.5	90.790	-0.150	-0.010	1.150
2020/01/31 05:46:17.6	90.770	-0.130	-0.020	1.150
2020/01/31 05:46:17.7	90.750	-0.110	-0.030	1.150
2020/01/31 05:46:17.8	90.730	-0.090	-0.050	1.140
2020/01/31 05:46:17.9	90.710	-0.070	-0.060	1.130
2020/01/31 05:46:18.0	90.690	-0.050	-0.070	1.120
2020/01/31 05:46:18.1	90.670	-0.030	-0.090	1.110
2020/01/31 05:46:18.2	90.650	-0.010	-0.100	1.090
2020/01/31 05:46:18.3	90.630	0.010	-0.120	1.060
2020/01/31 05:46:18.4	90.610	0.030	-0.140	1.040
2020/01/31 05:46:18.5	90.600	0.050	-0.170	1.010
2020/01/31 05:46:18.6	90.590	0.080	-0.190	0.970
2020/01/31 05:46:18.7	90.580	0.100	-0.220	0.940
2020/01/31 05:46:18.8	90.580	0.120	-0.250	0.890
2020/01/31 05:46:18.9	90.570	0.140	-0.280	0.850
2020/01/31 05:46:19.0	90.570	0.160	-0.310	0.800
2020/01/31 05:46:19.1	90.580	0.180	-0.350	0.750
2020/01/31 05:46:19.2	90.570	0.200	-0.390	0.700
2020/01/31 05:46:19.3	90.580	0.220	-0.430	0.650
2020/01/31 05:46:19.4	90.590	0.240	-0.470	0.610
2020/01/31 05:46:19.5	90.600	0.260	-0.500	0.560
2020/01/31 05:46:19.6	90.610	0.270	-0.540	0.510
2020/01/31 05:46:19.7	90.630	0.290	-0.580	0.470
2020/01/31 05:46:19.8	90.640	0.300	-0.610	0.430
2020/01/31 05:46:19.9	90.650	0.320	-0.640	0.400
2020/01/31 05:46:20.0	90.660	0.330	-0.670	0.370
2020/01/31 05:46:20.1	90.670	0.340	-0.700	0.350
2020/01/31 05:46:20.2	90.680	0.350	-0.710	0.320
2020/01/31 05:46:20.3	90.690	0.350	-0.730	0.310
2020/01/31 05:46:20.4	90.690	0.360	-0.750	0.300
2020/01/31 05:46:20.5	90.700	0.360	-0.760	0.300
2020/01/31 05:46:20.6	90.700	0.360	-0.770	0.300
2020/01/31 05:46:20.7	90.700	0.350	-0.770	0.300
2020/01/31 05:46:20.8	90.700	0.350	-0.770	0.310
2020/01/31 05:46:20.9	90.700	0.340	-0.760	0.320
2020/01/31 05:46:21.0	90.690	0.330	-0.750	0.340
2020/01/31 05:46:21.1	90.690	0.320	-0.740	0.350
2020/01/31 05:46:21.2	90.680	0.300	-0.730	0.370
2020/01/31 05:46:21.3	90.680	0.290	-0.700	0.390
2020/01/31 05:46:21.4	90.670	0.270	-0.680	0.410
2020/01/31 05:46:21.5	90.660	0.250	-0.650	0.430
2020/01/31 05:46:21.6	90.650	0.220	-0.620	0.460
2020/01/31 05:46:21.7	90.640	0.200	-0.580	0.480
2020/01/31 05:46:21.8	90.630	0.180	-0.550	0.500
2020/01/31 05:46:21.9	90.620	0.150	-0.510	0.530
2020/01/31 05:46:22.0	90.610	0.120	-0.460	0.550
2020/01/31 05:46:22.1	90.600	0.090	-0.420	0.580
2020/01/31 05:46:22.2	90.590	0.070	-0.370	0.610
2020/01/31 05:46:22.3	90.580	0.040	-0.330	0.640
2020/01/31 05:46:22.4	90.570	0.010	-0.280	0.670
2020/01/31 05:46:22.5	90.570	-0.020	-0.230	0.700
2020/01/31 05:46:22.6	90.560	-0.050	-0.190	0.740
2020/01/31 05:46:22.7	90.550	-0.080	-0.140	0.770
2020/01/31 05:46:22.8	90.550	-0.110	-0.100	0.810
2020/01/31 05:46:22.9	90.540	-0.130	-0.050	0.850
2020/01/31 05:46:23.0	90.540	-0.160	-0.010	0.890
2020/01/31 05:46:23.1	90.530	-0.180	0.030	0.930
2020/01/31 05:46:23.2	90.530	-0.210	0.060	0.980
2020/01/31 05:46:23.3	90.530	-0.230	0.100	1.020
2020/01/31 05:46:23.4	90.520	-0.250	0.130	1.070
2020/01/31 05:46:23.5	90.520	-0.270	0.160	1.110
2020/01/31 05:46:23.6	90.520	-0.290	0.180	1.150
2020/01/31 05:46:23.7	90.510	-0.300	0.200	1.200
2020/01/31 05:46:23.8	90.510	-0.320	0.210	1.240
2020/01/31 05:46:23.9	90.510	-0.330	0.220	1.270
2020/01/31 05:46:24.0	90.510	-0.340	0.230	1.310
2020/01/31 05:46:24.1	90.510	-0.340	0.230	1.340
2020/01/31 05:46:24.2	90.490	-0.350	0.220	1.360
2020/01/31 05:46:24.3	90.490	-0.350	0.210	1.390
2020/01/31 05:46:24.4	90.490	-0.350	0.190	1.410
2020/01/31 05:46:24.5	90.500	-0.340	0.170	1.420
2020/01/31 05:46:24.6	90.500	-0.340	0.140	1.440
2020/01/31 05:46:24.7	90.500	-0.330	0.110	1.440
2020/01/31 05:46:24.8	90.510	-0.310	0.080	1.450
2020/01/31 05:46:24.9	90.510	-0.300	0.040	1.450
2020/01/31 05:46:25.0	90.520	-0.280	0.000	1.440
2020/01/31 05:46:25.1	90.520	-0.260	-0.040	1.440
2020/01/31 05:46:25.2	90.520	-0.240	-0.090	1.430
2020/01/31 05:46:25.3	90.530	-0.220	-0.130	1.420
2020/01/31 05:46:25.4	90.530	-0.190	-0.170	1.410
2020/01/31 05:46:25.5	90.540	-0.170	-0.210	1.400
2020/01/31 05:46:25.6	90.540	-0.150	-0.250	1.400
2020/01/31 05:46:25.7	90.540	-0.120	-0.280	1.390
2020/01/31 05:46:25.8	90.530	-0.100	-0.300	1.390
2020/01/31 05:46:25.9	90.530	-0.070	-0.330	1.390
2020/01/31 05:46:26.0	90.520	-0.050	-0.340	1.390
2020/01/31 05:46:26.1	90.510	-0.030	-0.350	1.390
2020/01/31 05:46:26.2	90.510	-0.020	-0.350	1.390
2020/01/31 05:46:26.3	90.500	0.000	-0.350	1.390
2020/01/31 05:46:26.4	90.490	0.010	-0.340	1.390
2020/01/31 05:46:26.5	90.480	0.030	-0.330	1.390
2020/01/31 05:46:26.6	90.470	0.030	-0.310	1.390
2020/01/31 05:46:26.7	90.460	0.040	-0.280	1.380
2020/01/31 05:46:26.8	90.440	0.050	-0.260	1.370
2020/01/31 05:46:26.9	90.430	0.050	-0.220	1.360
2020/01/31 05:46:27.0	90.420	0.050	-0.190	1.350
2020/01/31 05:46:27.1	90.410	0.050	-0.150	1.330
2020/01/31 05:46:27.2	90.410	0.050	-0.110	1.310
2020/01/31 05:46:27.3	90.400	0.040	-0.080	1.280
2020/01/31 05:46:27.4	90.390	0.040	-0.040	1.260
2020/01/31 05:46:27.5	90.390	0.030	-0.000	1.220
2020/01/31 05:46:27.6	90.390	0.020	0.030	1.190
2020/01/31 05:46:27.7	90.390	0.020	0.060	1.150
2020/01/31 05:46:27.8	90.390	0.010	0.090	1.100
2020/01/31 05:46:27.9	90.390	0.000	0.120	1.060
2020/01/31 05:46:28.0	90.400	-0.000	0.130	1.010
2020/01/31 05:46:28.1	90.410	-0.000	0.150	0.960
2020/01/31 05:46:28.2	90.420	-0.010	0.150	0.910
2020/01/31 05:46:28.3	90.430	-0.000	0.160	0.860
2020/01/31 05:46:28.4	90.440	-0.000	0.150	0.810
2020/01/31 05:46:28.5	90.450	0.000	0.140	0.760
2020/01/31 05:46:28.6	90.460	0.010	0.130	0.720
2020/01/31 05:46:28.7	90.470	0.020	0.110	0.670
2020/01/31 05:46:28.8	90.480	0.030	0.080	0.630
2020/01/31 05:46:28.9	90.480	0.040	0.050	0.600
2020/01/31 05:46:29.0	90.480	0.060	0.020	0.560
2020/01/31 05:46:29.1	90.480	0.070	-0.020	0.530
2020/01/31 05:46:29.2	90.480	0.090	-0.060	0.510
2020/01/31 05:46:29.3	90.480	0.110	-0.100	0.480
2020/01/31 05:46:29.4	90.480	0.130	-0.150	0.460
2020/01/31 05:46:29.5	90.470	0.150	-0.190	0.430
2020/01/31 05:46:29.6	90.470	0.170	-0.240	0.410
2020/01/31 05:46:29.7	90.460	0.190	-0.280	0.380
2020/01/31 05:46:29.8	90.450	0.210	-0.330	0.360
2020/01/31 05:46:29.9	90.450	0.230	-0.370	0.330
2020/01/31 05:46:30.0	90.440	0.250	-0.410	0.310
2020/01/31 05:46:30.1	90.440	0.270	-0.450	0.280
2020/01/31 05:46:30.2	90.430	0.280	-0.490	0.250
2020/01/31 05:46:30.3	90.430	0.300	-0.530	0.220
2020/01/31 05:46:30.4	90.430	0.310	-0.560	0.200
2020/01/31 05:46:30.5	90.430	0.320	-0.590	0.180
2020/01/31 05:46:30.6	90.420	0.330	-0.620	0.160
2020/01/31 05:46:30.7	90.420	0.330	-0.640	0.140
2020/01/31 05:46:30.8	90.420	0.340	-0.660	0.130
2020/01/31 05:46:30.9	90.420	0.340	-0.680	0.120
2020/01/31 05:46:31.0	90.420	0.340	-0.690	0.120
2020/01/31 05:46:31.1	90.430	0.340	-0.700	0.120
2020/01/31 05:46:31.2	90.430	0.340	-0.710	0.130
2020/01/31 05:46:31.3	90.440	0.330	-0.710	0.140
2020/01/31 05:46:31.4	90.440	0.320	-0.710	0.160
2020/01/31 05:46:31.5	90.440	0.310	-0.700	0.190
2020/01/31 05:46:31.6	90.440	0.300	-0.690	0.230
2020/01/31 05:46:31.7	90.440	0.290	-0.680	0.270
2020/01/31 05:46:31.8	90.440	0.270	-0.650	0.310
2020/01/31 05:46:31.9	90.430	0.250	-0.630	0.360
2020/01/31 05:46:32.0	90.430	0.240	-0.600	0.410
2020/01/31 05:46:32.1	90.430	0.210	-0.560	0.460
2020/01/31 05:46:32.2	90.440	0.190	-0.530	0.510
2020/01/31 05:46:32.3	90.430	0.160	-0.480	0.560
2020/01/31 05:46:32.4	90.430	0.140	-0.440	0.620
2020/01/31 05:46:32.5	90.430	0.110	-0.390	0.670
2020/01/31 05:46:32.6	90.430	0.070	-0.340	0.720
2020/01/31 05:46:32.7	90.430	0.040	-0.280	0.760
2020/01/31 05:46:32.8	90.430	0.010	-0.230	0.810
2020/01/31 05:46:32.9	90.430	-0.030	-0.170	0.850
2020/01/31 05:46:33.0	90.440	-0.060	-0.120	0.890
2020/01/31 05:46:33.1	90.440	-0.100	-0.060	0.920
2020/01/31 05:46:33.2	90.450	-0.130	-0.010	0.950
2020/01/31 05:46:33.3	90.450	-0.170	0.040	0.980
2020/01/31 05:46:33.4	90.460	-0.200	0.090	1.000
2020/01/31 05:46:33.5	90.470	-0.230	0.130	1.030
2020/01/31 05:46:33.6	90.480	-0.270	0.170	1.040
2020/01/31 05:46:33.7	90.480	-0.300	0.210	1.060
2020/01/31 05:46:33.8	90.490	-0.330	0.240	1.080
2020/01/31 05:46:33.9	90.500	-0.350	0.260	1.090
2020/01/31 05:46:34.0	90.510	-0.380	0.280	1.100
2020/01/31 05:46:34.1	90.520	-0.400	0.290	1.110
2020/01/31 05:46:34.2	90.520	-0.410	0.290	1.120
2020/01/31 05:46:34.3	90.530	-0.430	0.290	1.130
2020/01/31 05:46:34.4	90.530	-0.440	0.280	1.150
2020/01/31 05:46:34.5	90.540	-0.440	0.270	1.160
2020/01/31 05:46:34.6	90.540	-0.450	0.250	1.170
2020/01/31 05:46:34.7	90.540	-0.450	0.220	1.190
2020/01/31 05:46:34.8	90.540	-0.440	0.190	1.200
2020/01/31 05:46:34.9	90.540	-0.430	0.160	1.220
2020/01/31 05:46:35.0	90.540	-0.420	0.120	1.230
2020/01/31 05:46:35.1	90.540	-0.400	0.070	1.250
2020/01/31 05:46:35.2	90.530	-0.390	0.020	1.270
2020/01/31 05:46:35.3	90.530	-0.370	-0.020	1.290
2020/01/31 05:46:35.4	90.520	-0.340	-0.080	1.300
2020/01/31 05:46:35.5	90.510	-0.320	-0.130	1.310
2020/01/31 05:46:35.6	90.510	-0.290	-0.180	1.330
2020/01/31 05:46:35.7	90.500	-0.260	-0.240	1.340
2020/01/31 05:46:35.8	90.500	-0.230	-0.290	1.340
2020/01/31 05:46:35.9	90.490	-0.200	-0.340	1.350
2020/01/31 05:46:36.0	90.490	-0.170	-0.390	1.350
2020/01/31 05:46:36.1	90.490	-0.130	-0.440	1.350
2020/01/31 05:46:36.2	90.480	-0.100	-0.490	1.340
2020/01/31 05:46:36.3	90.480	-0.070	-0.530	1.330
2020/01/31 05:46:36.4	90.480	-0.040	-0.560	1.320
2020/01/31 05:46:36.5	90.480	-0.020	-0.600	1.310
2020/01/31 05:46:36.6	90.480	0.010	-0.620	1.300
2020/01/31 05:46:36.7	90.480	0.030	-0.640	1.280
2020/01/31 05:46:36.8	90.490	0.050	-0.660	1.260
2020/01/31 05:46:36.9	90.490	0.070	-0.670	1.240
2020/01/31 05:46:37.0	90.500	0.090	-0.670	1.220
2020/01/31 05:46:37.1	90.510	0.100	-0.670	1.200
2020/01/31 05:46:37.2	90.520	0.110	-0.660	1.180
2020/01/31 05:46:37.3	90.530	0.110	-0.650	1.150
2020/01/31 05:46:37.4	90.540	0.110	-0.630	1.130
2020/01/31 05:46:37.5	90.550	0.110	-0.600	1.110
2020/01/31 05:46:37.6	90.560	0.110	-0.580	1.100
2020/01/31 05:46:37.7	90.580	0.100	-0.540	1.080
2020/01/31 05:46:37.8	90.590	0.090	-0.510	1.060
2020/01/31 05:46:37.9	90.600	0.080	-0.470	1.040
2020/01/31 05:46:38.0	90.610	0.070	-0.420	1.020
2020/01/31 05:46:38.1	90.620	0.050	-0.380	1.010
2020/01/31 05:46:38.2	90.620	0.030	-0.330	0.990
2020/01/31 05:46:38.3	90.640	0.010	-0.280	0.970
2020/01/31 05:46:38.4	90.650	-0.010	-0.230	0.960
2020/01/31 05:46:38.5	90.660	-0.030	-0.180	0.940
2020/01/31 05:46:38.6	90.670	-0.050	-0.140	0.920
2020/01/31 05:46:38.7	90.680	-0.070	-0.090	0.900
2020/01/31 05:46:38.8	90.690	-0.100	-0.040	0.880
2020/01/31 05:46:38.9	90.700	-0.120	0.000	0.860
2020/01/31 05:46:39.0	90.700	-0.140	0.040	0.840
2020/01/31 05:46:39.1	90.710	-0.160	0.080	0.820
2020/01/31 05:46:39.2	90.720	-0.170	0.110	0.790
2020/01/31 05:46:39.3	90.730	-0.190	0.140	0.770
2020/01/31 05:46:39.4	90.740	-0.200	0.170	0.740
2020/01/31 05:46:39.5	90.740	-0.210	0.190	0.720
2020/01/31 05:46:39.6	90.750	-0.220	0.210	0.690
2020/01/31 05:46:39.7	90.750	-0.230	0.220	0.670
2020/01/31 05:46:39.8	90.760	-0.230	0.230	0.640
2020/01/31 05:46:39.9	90.760	-0.220	0.230	0.620
2020/01/31 05:46:40.0	90.770	-0.220	0.220	0.600
2020/01/31 05:46:40.1	90.770	-0.210	0.210	0.570
2020/01/31 05:46:40.2	90.780	-0.190	0.190	0.550
2020/01/31 05:46:40.3	90.780	-0.180	0.170	0.530
2020/01/31 05:46:40.4	90.780	-0.150	0.140	0.510
2020/01/31 05:46:40.5	90.790	-0.130	0.100	0.490
2020/01/31 05:46:40.6	90.790	-0.100	0.060	0.470
2020/01/31 05:46:40.7	90.790	-0.070	0.020	0.450
2020/01/31 05:46:40.8	90.790	-0.030	-0.030	0.440
2020/01/31 05:46:40.9	90.790	0.010	-0.090	0.420
2020/01/31 05:46:41.0	90.790	0.040	-0.140	0.410
2020/01/31 05:46:41.1	90.790	0.090	-0.200	0.400
2020/01/31 05:46:41.2	90.800	0.130	-0.260	0.380
2020/01/31 05:46:41.3	90.800	0.170	-0.310	0.370
2020/01/31 05:46:41.4	90.810	0.220	-0.370	0.360
2020/01/31 05:46:41.5	90.810	0.260	-0.420	0.360
2020/01/31 05:46:41.6	90.810	0.300	-0.470	0.350
2020/01/31 05:46:41.7	90.810	0.340	-0.520	0.350
2020/01/31 05:46:41.8	90.810	0.370	-0.560	0.350
2020/01/31 05:46:41.9	90.810	0.410	-0.600	0.350
2020/01/31 05:46:42.0	90.810	0.440	-0.620	0.360
2020/01/31 05:46:42.1	90.810	0.470	-0.650	0.360
2020/01/31 05:46:42.2	90.810	0.490	-0.670	0.370
2020/01/31 05:46:42.3	90.810	0.510	-0.670	0.370
2020/01/31 05:46:42.4	90.810	0.520	-0.670	0.380
2020/01/31 05:46:42.5	90.800	0.530	-0.660	0.390
2020/01/31 05:46:42.6	90.800	0.530	-0.650	0.410
2020/01/31 05:46:42.7	90.800	0.530	-0.630	0.420
2020/01/31 05:46:42.8	90.790	0.530	-0.590	0.430
2020/01/31 05:46:42.9	90.790	0.520	-0.560	0.450
2020/01/31 05:46:43.0	90.790	0.500	-0.520	0.460
2020/01/31 05:46:43.1	90.780	0.480	-0.470	0.480
2020/01/31 05:46:43.2	90.780	0.450	-0.410	0.490
2020/01/31 05:46:43.3	90.780	0.420	-0.360	0.510
2020/01/31 05:46:43.4	90.770	0.390	-0.300	0.520
2020/01/31 05:46:43.5	90.770	0.360	-0.240	0.540
2020/01/31 05:46:43.6	90.770	0.320	-0.180	0.550
2020/01/31 05:46:43.7	90.760	0.280	-0.120	0.560
2020/01/31 05:46:43.8	90.760	0.230	-0.060	0.580
2020/01/31 05:46:43.9	90.760	0.190	-0.000	0.590
2020/01/31 05:46:44.0	90.750	0.150	0.050	0.600
2020/01/31 05:46:44.1	90.750	0.100	0.100	0.610
2020/01/31 05:46:44.2	90.750	0.060	0.140	0.620
2020/01/31 05:46:44.3	90.750	0.010	0.180	0.630
2020/01/31 05:46:44.4	90.760	-0.030	0.220	0.640
2020/01/31 05:46:44.5	90.760	-0.070	0.240	0.640
2020/01/31 05:46:44.6	90.770	-0.110	0.270	0.650
2020/01/31 05:46:44.7	90.770	-0.140	0.280	0.650
2020/01/31 05:46:44.8	90.780	-0.170	0.290	0.650
2020/01/31 05:46:44.9	90.790	-0.200	0.290	0.660
2020/01/31 05:46:45.0	90.800	-0.230	0.290	0.660
2020/01/31 05:46:45.1	90.810	-0.250	0.280	0.660
2020/01/31 05:46:45.2	90.820	-0.270	0.260	0.660
2020/01/31 05:46:45.3	90.840	-0.280	0.240	0.670
2020/01/31 05:46:45.4	90.860	-0.290	0.210	0.670
2020/01/31 05:46:45.5	90.870	-0.290	0.170	0.670
2020/01/31 05:46:45.6	90.890	-0.290	0.130	0.680
2020/01/31 05:46:45.7	90.910	-0.290	0.090	0.690
2020/01/31 05:46:45.8	90.930	-0.290	0.040	0.690
2020/01/31 05:46:45.9	90.940	-0.280	-0.010	0.700
2020/01/31 05:46:46.0	90.960	-0.260	-0.070	0.720
2020/01/31 05:46:46.1	90.980	-0.250	-0.130	0.730
2020/01/31 05:46:46.2	91.020	-0.230	-0.190	0.740
2020/01/31 05:46:46.3	91.030	-0.210	-0.240	0.760
2020/01/31 05:46:46.4	91.050	-0.190	-0.300	0.780
2020/01/31 05:46:46.5	91.070	-0.160	-0.360	0.800
2020/01/31 05:46:46.6	91.090	-0.140	-0.420	0.820
2020/01/31 05:46:46.7	91.100	-0.110	-0.480	0.840
2020/01/31 05:46:46.8	91.120	-0.090	-0.530	0.860
2020/01/31 05:46:46.9	91.130	-0.060	-0.580	0.880
2020/01/31 05:46:47.0	91.150	-0.030	-0.630	0.910
2020/01/31 05:46:47.1	91.160	-0.010	-0.670	0.930
2020/01/31 05:46:47.2	91.160	0.020	-0.720	0.960
2020/01/31 05:46:47.3	91.170	0.040	-0.750	0.990
2020/01/31 05:46:47.4	91.180	0.060	-0.780	1.020
2020/01/31 05:46:47.5	91.180	0.080	-0.800	1.050
2020/01/31 05:46:47.6	91.180	0.100	-0.810	1.080
2020/01/31 05:46:47.7	91.180	0.110	-0.820	1.110
2020/01/31 05:46:47.8	91.170	0.130	-0.820	1.130
2020/01/31 05:46:47.9	91.170	0.140	-0.820	1.160
2020/01/31 05:46:48.0	91.160	0.140	-0.800	1.190
2020/01/31 05:46:48.1	91.150	0.140	-0.780	1.210
2020/01/31 05:46:48.2	91.140	0.140	-0.750	1.230
2020/01/31 05:46:48.3	91.120	0.140	-0.710	1.260
2020/01/31 05:46:48.4	91.110	0.130	-0.660	1.280
2020/01/31 05:46:48.5	91.090	0.110	-0.610	1.290
2020/01/31 05:46:48.6	91.080	0.090	-0.560	1.310
2020/01/31 05:46:48.7	91.060	0.070	-0.500	1.320
2020/01/31 05:46:48.8	91.050	0.050	-0.430	1.330
2020/01/31 05:46:48.9	91.030	0.020	-0.360	1.340
2020/01/31 05:46:49.0	91.020	-0.020	-0.290	1.350
2020/01/31 05:46:49.1	91.000	-0.050	-0.220	1.350
2020/01/31 05:46:49.2	90.980	-0.090	-0.150	1.350
2020/01/31 05:46:49.3	90.960	-0.130	-0.070	1.350
2020/01/31 05:46:49.4	90.950	-0.170	-0.000	1.350
2020/01/31 05:46:49.5	90.930	-0.220	0.070	1.340
2020/01/31 05:46:49.6	90.920	-0.260	0.130	1.340
2020/01/31 05:46:49.7	90.910	-0.310	0.190	1.330
2020/01/31 05:46:49.8	90.900	-0.350	0.250	1.320
2020/01/31 05:46:49.9	90.890	-0.390	0.300	1.300
2020/01/31 05:46:50.0	90.880	-0.440	0.350	1.290
2020/01/31 05:46:50.1	90.870	-0.480	0.390	1.270
2020/01/31 05:46:50.2	90.870	-0.520	0.420	1.250
2020/01/31 05:46:50.3	90.860	-0.560	0.450	1.220
2020/01/31 05:46:50.4	90.860	-0.590	0.470	1.200
2020/01/31 05:46:50.5	90.860	-0.620	0.480	1.170
2020/01/31 05:46:50.6	90.860	-0.650	0.490	1.140
2020/01/31 05:46:50.7	90.860	-0.670	0.490	1.110
2020/01/31 05:46:50.8	90.860	-0.690	0.480	1.080
2020/01/31 05:46:50.9	90.860	-0.700	0.470	1.040
2020/01/31 05:46:51.0	90.870	-0.710	0.440	1.010
2020/01/31 05:46:51.1	90.870	-0.710	0.420	0.970
2020/01/31 05:46:51.2	90.880	-0.710	0.380	0.930
2020/01/31 05:46:51.3	90.880	-0.700	0.350	0.890
2020/01/31 05:46:51.4	90.890	-0.690	0.300	0.850
2020/01/31 05:46:51.5	90.890	-0.670	0.250	0.810
2020/01/31 05:46:51.6	90.900	-0.640	0.200	0.770
2020/01/31 05:46:51.7	90.900	-0.610	0.140	0.730
2020/01/31 05:46:51.8	90.910	-0.580	0.080	0.690
2020/01/31 05:46:51.9	90.910	-0.540	0.020	0.650
2020/01/31 05:46:52.0	90.910	-0.490	-0.040	0.610
2020/01/31 05:46:52.1	90.910	-0.450	-0.110	0.570
2020/01/31 05:46:52.2	90.910	-0.400	-0.180	0.520
2020/01/31 05:46:52.3	90.910	-0.340	-0.250	0.480
2020/01/31 05:46:52.4	90.910	-0.280	-0.320	0.440
2020/01/31 05:46:52.5	90.900	-0.220	-0.390	0.400
2020/01/31 05:46:52.6	90.900	-0.160	-0.460	0.370
2020/01/31 05:46:52.7	90.900	-0.100	-0.520	0.330
2020/01/31 05:46:52.8	90.890	-0.040	-0.590	0.290
2020/01/31 05:46:52.9	90.890	0.030	-0.650	0.250
2020/01/31 05:46:53.0	90.880	0.090	-0.710	0.220
2020/01/31 05:46:53.1	90.880	0.160	-0.760	0.190
2020/01/31 05:46:53.2	90.870	0.220	-0.810	0.160
2020/01/31 05:46:53.3	90.870	0.280	-0.860	0.130
2020/01/31 05:46:53.4	90.870	0.340	-0.910	0.110
2020/01/31 05:46:53.5	90.870	0.400	-0.940	0.090
2020/01/31 05:46:53.6	90.870	0.450	-0.980	0.080
2020/01/31 05:46:53.7	90.870	0.500	-1.010	0.070
2020/01/31 05:46:53.8	90.870	0.550	-1.030	0.060
2020/01/31 05:46:53.9	90.880	0.600	-1.050	0.060
2020/01/31 05:46:54.0	90.880	0.640	-1.060	0.060
2020/01/31 05:46:54.1	90.890	0.680	-1.070	0.060
2020/01/31 05:46:54.2	90.900	0.710	-1.070	0.070
2020/01/31 05:46:54.3	90.910	0.740	-1.060	0.080
2020/01/31 05:46:54.4	90.920	0.760	-1.050	0.100
2020/01/31 05:46:54.5	90.930	0.780	-1.030	0.120
2020/01/31 05:46:54.6	90.940	0.800	-1.000	0.140
2020/01/31 05:46:54.7	90.950	0.810	-0.970	0.160
2020/01/31 05:46:54.8	90.960	0.810	-0.930	0.190
2020/01/31 05:46:54.9	90.960	0.810	-0.890	0.210
2020/01/31 05:46:55.0	90.970	0.810	-0.840	0.240
2020/01/31 05:46:55.1	90.980	0.800	-0.790	0.270
2020/01/31 05:46:55.2	90.990	0.780	-0.720	0.300
2020/01/31 05:46:55.3	90.990	0.770	-0.660	0.330
2020/01/31 05:46:55.4	90.990	0.740	-0.590	0.360
2020/01/31 05:46:55.5	90.990	0.720	-0.520	0.390
2020/01/31 05:46:55.6	90.990	0.690	-0.440	0.420
2020/01/31 05:46:55.7	90.990	0.650	-0.370	0.440
2020/01/31 05:46:55.8	90.990	0.620	-0.290	0.470
2020/01/31 05:46:55.9	90.980	0.580	-0.200	0.500
2020/01/31 05:46:56.0	90.980	0.530	-0.120	0.520
2020/01/31 05:46:56.1	90.970	0.490	-0.040	0.540
2020/01/31 05:46:56.2	90.970	0.440	0.040	0.560
2020/01/31 05:46:56.3	90.960	0.390	0.120	0.590
2020/01/31 05:46:56.4	90.950	0.340	0.200	0.610
2020/01/31 05:46:56.5	90.940	0.280	0.280	0.630
2020/01/31 05:46:56.6	90.930	0.230	0.350	0.660
2020/01/31 05:46:56.7	90.920	0.180	0.420	0.680
2020/01/31 05:46:56.8	90.910	0.120	0.490	0.700
2020/01/31 05:46:56.9	90.900	0.070	0.550	0.730
2020/01/31 05:46:57.0	90.890	0.020	0.600	0.760
2020/01/31 05:46:57.1	90.880	-0.030	0.650	0.780
2020/01/31 05:46:57.2	90.870	-0.080	0.690	0.810
2020/01/31 05:46:57.3	90.860	-0.120	0.730	0.840
2020/01/31 05:46:57.4	90.850	-0.170	0.760	0.870
2020/01/31 05:46:57.5	90.840	-0.210	0.780	0.900
2020/01/31 05:46:57.6	90.830	-0.250	0.790	0.940
2020/01/31 05:46:57.7	90.830	-0.280	0.790	0.970
2020/01/31 05:46:57.8	90.820	-0.310	0.790	1.000
2020/01/31 05:46:57.9	90.810	-0.340	0.780	1.030
2020/01/31 05:46:58.0	90.810	-0.360	0.760	1.060
2020/01/31 05:46:58.1	90.810	-0.380	0.730	1.090
2020/01/31 05:46:58.2	90.820	-0.400	0.690	1.110
2020/01/31 05:46:58.3	90.820	-0.410	0.650	1.130
2020/01/31 05:46:58.4	90.830	-0.420	0.610	1.150
2020/01/31 05:46:58.5	90.830	-0.430	0.550	1.170
2020/01/31 05:46:58.6	90.850	-0.430	0.500	1.180
2020/01/31 05:46:58.7	90.860	-0.430	0.440	1.180
2020/01/31 05:46:58.8	90.880	-0.420	0.370	1.180
2020/01/31 05:46:58.9	90.900	-0.420	0.300	1.180
2020/01/31 05:46:59.0	90.920	-0.410	0.230	1.170
2020/01/31 05:46:59.1	90.950	-0.400	0.160	1.160
2020/01/31 05:46:59.2	90.980	-0.390	0.080	1.140
2020/01/31 05:46:59.3	91.010	-0.370	-0.000	1.120
2020/01/31 05:46:59.4	91.040	-0.350	-0.080	1.100
2020/01/31 05:46:59.5	91.070	-0.340	-0.160	1.070
2020/01/31 05:46:59.6	91.100	-0.320	-0.240	1.050
2020/01/31 05:46:59.7	91.130	-0.290	-0.320	1.020
2020/01/31 05:46:59.8	91.160	-0.270	-0.390	0.990
2020/01/31 05:46:59.9	91.190	-0.250	-0.470	0.960
2020/01/31 05:47:00.0	91.220	-0.220	-0.540	0.940
2020/01/31 05:47:00.1	91.250	-0.190	-0.610	0.910
2020/01/31 05:47:00.2	91.280	-0.170	-0.680	0.890
2020/01/31 05:47:00.3	91.300	-0.140	-0.740	0.880
2020/01/31 05:47:00.4	91.320	-0.110	-0.810	0.870
2020/01/31 05:47:00.5	91.330	-0.080	-0.860	0.870
2020/01/31 05:47:00.6	91.350	-0.050	-0.910	0.870
2020/01/31 05:47:00.7	91.360	-0.030	-0.960	0.880
2020/01/31 05:47:00.8	91.370	0.000	-1.000	0.890
2020/01/31 05:47:00.9	91.380	0.030	-1.030	0.910
2020/01/31 05:47:01.0	91.380	0.050	-1.060	0.930
2020/01/31 05:47:01.1	91.380	0.080	-1.070	0.950
2020/01/31 05:47:01.2	91.380	0.100	-1.080	0.990
2020/01/31 05:47:01.3	91.370	0.110	-1.080	1.030
2020/01/31 05:47:01.4	91.360	0.130	-1.070	1.060
2020/01/31 05:47:01.5	91.350	0.140	-1.050	1.100
2020/01/31 05:47:01.6	91.340	0.150	-1.020	1.140
2020/01/31 05:47:01.7	91.330	0.150	-0.980	1.180
2020/01/31 05:47:01.8	91.320	0.150	-0.930	1.220
2020/01/31 05:47:01.9	91.300	0.150	-0.870	1.250
2020/01/31 05:47:02.0	91.290	0.140	-0.810	1.290
2020/01/31 05:47:02.1	91.280	0.120	-0.740	1.320
2020/01/31 05:47:02.2	91.270	0.100	-0.660	1.340
2020/01/31 05:47:02.3	91.250	0.080	-0.580	1.370
2020/01/31 05:47:02.4	91.240	0.060	-0.490	1.390
2020/01/31 05:47:02.5	91.230	0.030	-0.400	1.400
2020/01/31 05:47:02.6	91.210	-0.010	-0.310	1.420
2020/01/31 05:47:02.7	91.200	-0.040	-0.220	1.430
2020/01/31 05:47:02.8	91.190	-0.080	-0.120	1.430
2020/01/31 05:47:02.9	91.180	-0.120	-0.030	1.430
2020/01/31 05:47:03.0	91.180	-0.160	0.060	1.420
2020/01/31 05:47:03.1	91.170	-0.200	0.150	1.420
2020/01/31 05:47:03.2	91.170	-0.250	0.240	1.400
2020/01/31 05:47:03.3	91.160	-0.290	0.310	1.380
2020/01/31 05:47:03.4	91.160	-0.330	0.390	1.360
2020/01/31 05:47:03.5	91.160	-0.370	0.450	1.340
2020/01/31 05:47:03.6	91.160	-0.410	0.510	1.310
2020/01/31 05:47:03.7	91.160	-0.440	0.560	1.280
2020/01/31 05:47:03.8	91.160	-0.470	0.590	1.250
2020/01/31 05:47:03.9	91.170	-0.500	0.620	1.210
2020/01/31 05:47:04.0	91.170	-0.520	0.640	1.170
2020/01/31 05:47:04.1	91.180	-0.540	0.650	1.130
2020/01/31 05:47:04.2	91.180	-0.550	0.640	1.090
2020/01/31 05:47:04.3	91.190	-0.560	0.620	1.050
2020/01/31 05:47:04.4	91.200	-0.560	0.600	1.010
2020/01/31 05:47:04.5	91.200	-0.550	0.550	0.970
2020/01/31 05:47:04.6	91.210	-0.530	0.500	0.920
2020/01/31 05:47:04.7	91.210	-0.510	0.440	0.880
2020/01/31 05:47:04.8	91.220	-0.480	0.370	0.840
2020/01/31 05:47:04.9	91.230	-0.450	0.280	0.800
2020/01/31 05:47:05.0	91.230	-0.410	0.190	0.760
2020/01/31 05:47:05.1	91.230	-0.360	0.100	0.720
2020/01/31 05:47:05.2	91.240	-0.310	-0.000	0.680
2020/01/31 05:47:05.3	91.240	-0.250	-0.110	0.640
2020/01/31 05:47:05.4	91.240	-0.190	-0.220	0.600
2020/01/31 05:47:05.5	91.250	-0.130	-0.340	0.560
2020/01/31 05:47:05.6	91.250	-0.060	-0.450	0.530
2020/01/31 05:47:05.7	91.260	0.000	-0.570	0.490
2020/01/31 05:47:05.8	91.260	0.070	-0.680	0.450
2020/01/31 05:47:05.9	91.270	0.140	-0.790	0.420
2020/01/31 05:47:06.0	91.280	0.210	-0.890	0.390
2020/01/31 05:47:06.1	91.290	0.280	-0.990	0.350
2020/01/31 05:47:06.2	91.300	0.340	-1.090	0.330
2020/01/31 05:47:06.3	91.310	0.400	-1.170	0.300
2020/01/31 05:47:06.4	91.320	0.460	-1.250	0.270
2020/01/31 05:47:06.5	91.330	0.510	-1.310	0.250
2020/01/31 05:47:06.6	91.340	0.560	-1.360	0.230
2020/01/31 05:47:06.7	91.350	0.610	-1.410	0.210
2020/01/31 05:47:06.8	91.360	0.640	-1.440	0.190
2020/01/31 05:47:06.9	91.370	0.680	-1.450	0.170
2020/01/31 05:47:07.0	91.380	0.700	-1.460	0.160
2020/01/31 05:47:07.1	91.390	0.720	-1.450	0.150
2020/01/31 05:47:07.2	91.410	0.730	-1.420	0.140
2020/01/31 05:47:07.3	91.420	0.740	-1.390	0.140
2020/01/31 05:47:07.4	91.420	0.740	-1.340	0.140
2020/01/31 05:47:07.5	91.430	0.730	-1.270	0.150
2020/01/31 05:47:07.6	91.430	0.720	-1.200	0.160
2020/01/31 05:47:07.7	91.440	0.700	-1.110	0.180
2020/01/31 05:47:07.8	91.440	0.670	-1.010	0.200
2020/01/31 05:47:07.9	91.440	0.640	-0.900	0.220
2020/01/31 05:47:08.0	91.440	0.600	-0.790	0.240
2020/01/31 05:47:08.1	91.440	0.560	-0.660	0.270
2020/01/31 05:47:08.2	91.430	0.520	-0.530	0.310
2020/01/31 05:47:08.3	91.430	0.470	-0.390	0.340
2020/01/31 05:47:08.4	91.420	0.410	-0.250	0.380
2020/01/31 05:47:08.5	91.420	0.360	-0.100	0.420
2020/01/31 05:47:08.6	91.410	0.300	0.040	0.460
2020/01/31 05:47:08.7	91.410	0.240	0.180	0.490
2020/01/31 05:47:08.8	91.400	0.180	0.320	0.530
2020/01/31 05:47:08.9	91.400	0.120	0.460	0.570
2020/01/31 05:47:09.0	91.390	0.060	0.590	0.610
2020/01/31 05:47:09.1	91.390	0.000	0.710	0.640
2020/01/31 05:47:09.2	91.390	-0.060	0.820	0.670
2020/01/31 05:47:09.3	91.380	-0.110	0.920	0.700
2020/01/31 05:47:09.4	91.380	-0.160	1.010	0.730
2020/01/31 05:47:09.5	91.380	-0.210	1.080	0.750
2020/01/31 05:47:09.6	91.380	-0.250	1.140	0.770
2020/01/31 05:47:09.7	91.380	-0.290	1.190	0.780
2020/01/31 05:47:09.8	91.380	-0.320	1.220	0.790
2020/01/31 05:47:09.9	91.380	-0.350	1.240	0.790
2020/01/31 05:47:10.0	91.380	-0.370	1.240	0.800
2020/01/31 05:47:10.1	91.380	-0.390	1.220	0.790
2020/01/31 05:47:10.2	91.380	-0.400	1.190	0.790
2020/01/31 05:47:10.3	91.380	-0.410	1.150	0.770
2020/01/31 05:47:10.4	91.390	-0.410	1.090	0.760
2020/01/31 05:47:10.5	91.390	-0.410	1.020	0.740
2020/01/31 05:47:10.6	91.400	-0.400	0.940	0.720
2020/01/31 05:47:10.7	91.400	-0.390	0.850	0.700
2020/01/31 05:47:10.8	91.410	-0.370	0.760	0.670
2020/01/31 05:47:10.9	91.420	-0.350	0.650	0.650
2020/01/31 05:47:11.0	91.430	-0.330	0.540	0.630
2020/01/31 05:47:11.1	91.430	-0.310	0.430	0.620
2020/01/31 05:47:11.2	91.440	-0.280	0.310	0.600
2020/01/31 05:47:11.3	91.450	-0.260	0.190	0.590
2020/01/31 05:47:11.4	91.450	-0.230	0.080	0.580
2020/01/31 05:47:11.5	91.460	-0.200	-0.040	0.580
2020/01/31 05:47:11.6	91.470	-0.170	-0.150	0.580
2020/01/31 05:47:11.7	91.480	-0.140	-0.260	0.590
2020/01/31 05:47:11.8	91.490	-0.110	-0.360	0.600
2020/01/31 05:47:11.9	91.490	-0.080	-0.460	0.610
2020/01/31 05:47:12.0	91.500	-0.050	-0.550	0.630
2020/01/31 05:47:12.1	91.510	-0.020	-0.640	0.650
2020/01/31 05:47:12.2	91.520	0.000	-0.720	0.670
2020/01/31 05:47:12.3	91.530	0.030	-0.790	0.700
2020/01/31 05:47:12.4	91.540	0.050	-0.850	0.720
2020/01/31 05:47:12.5	91.550	0.070	-0.910	0.740
2020/01/31 05:47:12.6	91.560	0.090	-0.950	0.770
2020/01/31 05:47:12.7	91.570	0.100	-0.990	0.790
2020/01/31 05:47:12.8	91.580	0.110	-1.020	0.810
2020/01/31 05:47:12.9	91.580	0.120	-1.040	0.830
2020/01/31 05:47:13.0	91.590	0.130	-1.060	0.860
2020/01/31 05:47:13.1	91.600	0.140	-1.060	0.870
2020/01/31 05:47:13.2	91.600	0.140	-1.060	0.890
2020/01/31 05:47:13.3	91.610	0.140	-1.050	0.900
2020/01/31 05:47:13.4	91.620	0.140	-1.040	0.920
2020/01/31 05:47:13.5	91.630	0.140	-1.010	0.930
2020/01/31 05:47:13.6	91.640	0.140	-0.980	0.940
2020/01/31 05:47:13.7	91.650	0.130	-0.940	0.950
2020/01/31 05:47:13.8	91.660	0.120	-0.900	0.960
2020/01/31 05:47:13.9	91.670	0.110	-0.850	0.970
2020/01/31 05:47:14.0	91.680	0.100	-0.800	0.980
2020/01/31 05:47:14.1	91.690	0.090	-0.740	0.990
2020/01/31 05:47:14.2	91.690	0.070	-0.680	1.000
2020/01/31 05:47:14.3	91.700	0.060	-0.620	1.010
2020/01/31 05:47:14.4	91.700	0.040	-0.550	1.020
2020/01/31 05:47:14.5	91.710	0.020	-0.490	1.030
2020/01/31 05:47:14.6	91.710	0.010	-0.420	1.050
2020/01/31 05:47:14.7	91.720	-0.010	-0.360	1.060
2020/01/31 05:47:14.8	91.720	-0.030	-0.290	1.080
2020/01/31 05:47:14.9	91.720	-0.050	-0.230	1.100
2020/01/31 05:47:15.0	91.720	-0.070	-0.170	1.120
2020/01/31 05:47:15.1	91.720	-0.090	-0.110	1.140
2020/01/31 05:47:15.2	91.710	-0.100	-0.060	1.170
2020/01/31 05:47:15.3	91.710	-0.120	-0.010	1.190
2020/01/31 05:47:15.4	91.700	-0.140	0.040	1.210
2020/01/31 05:47:15.5	91.690	-0.150	0.080	1.230
2020/01/31 05:47:15.6	91.680	-0.170	0.120	1.250
2020/01/31 05:47:15.7	91.670	-0.180	0.150	1.270
2020/01/31 05:47:15.8	91.650	-0.190	0.170	1.280
2020/01/31 05:47:15.9	91.640	-0.200	0.190	1.290
2020/01/31 05:47:16.0	91.630	-0.200	0.200	1.300
2020/01/31 05:47:16.1	91.610	-0.210	0.200	1.300
2020/01/31 05:47:16.2	91.610	-0.210	0.200	1.300
2020/01/31 05:47:16.3	91.590	-0.210	0.190	1.300
2020/01/31 05:47:16.4	91.580	-0.200	0.170	1.280
2020/01/31 05:47:16.5	91.570	-0.200	0.150	1.270
2020/01/31 05:47:16.6	91.560	-0.190	0.130	1.250
2020/01/31 05:47:16.7	91.560	-0.170	0.100	1.230
2020/01/31 05:47:16.8	91.550	-0.160	0.060	1.200
2020/01/31 05:47:16.9	91.550	-0.140	0.020	1.170
2020/01/31 05:47:17.0	91.540	-0.120	-0.020	1.140
2020/01/31 05:47:17.1	91.540	-0.090	-0.060	1.100
2020/01/31 05:47:17.2	91.550	-0.070	-0.110	1.070
2020/01/31 05:47:17.3	91.550	-0.040	-0.150	1.030
2020/01/31 05:47:17.4	91.560	-0.010	-0.200	1.000
2020/01/31 05:47:17.5	91.560	0.020	-0.240	0.960
2020/01/31 05:47:17.6	91.570	0.050	-0.290	0.930
2020/01/31 05:47:17.7	91.580	0.090	-0.330	0.900
2020/01/31 05:47:17.8	91.590	0.120	-0.380	0.860
2020/01/31 05:47:17.9	91.610	0.150	-0.410	0.830
2020/01/31 05:47:18.0	91.620	0.190	-0.450	0.810
2020/01/31 05:47:18.1	91.630	0.220	-0.480	0.780
2020/01/31 05:47:18.2	91.640	0.250	-0.510	0.750
2020/01/31 05:47:18.3	91.660	0.280	-0.540	0.720
2020/01/31 05:47:18.4	91.670	0.310	-0.560	0.700
2020/01/31 05:47:18.5	91.680	0.330	-0.580	0.680
2020/01/31 05:47:18.6	91.690	0.360	-0.590	0.660
2020/01/31 05:47:18.7	91.700	0.380	-0.600	0.630
2020/01/31 05:47:18.8	91.710	0.390	-0.610	0.610
2020/01/31 05:47:18.9	91.720	0.410	-0.610	0.590
2020/01/31 05:47:19.0	91.730	0.420	-0.610	0.570
2020/01/31 05:47:19.1	91.740	0.420	-0.600	0.560
2020/01/31 05:47:19.2	91.740	0.420	-0.590	0.540
2020/01/31 05:47:19.3	91.750	0.420	-0.580	0.530
2020/01/31 05:47:19.4	91.750	0.420	-0.560	0.510
2020/01/31 05:47:19.5	91.760	0.410	-0.530	0.500
2020/01/31 05:47:19.6	91.760	0.390	-0.500	0.490
2020/01/31 05:47:19.7	91.770	0.380	-0.470	0.480
2020/01/31 05:47:19.8	91.770	0.360	-0.440	0.470
2020/01/31 05:47:19.9	91.780	0.330	-0.400	0.460
2020/01/31 05:47:20.0	91.780	0.310	-0.350	0.460
2020/01/31 05:47:20.1	91.780	0.270	-0.310	0.460
2020/01/31 05:47:20.2	91.790	0.240	-0.250	0.450
2020/01/31 05:47:20.3	91.800	0.210	-0.200	0.450
2020/01/31 05:47:20.4	91.800	0.170	-0.150	0.460
2020/01/31 05:47:20.5	91.800	0.130	-0.100	0.470
2020/01/31 05:47:20.6	91.800	0.090	-0.040	0.480
2020/01/31 05:47:20.7	91.810	0.040	0.010	0.490
2020/01/31 05:47:20.8	91.810	0.000	0.070	0.510
2020/01/31 05:47:20.9	91.810	-0.040	0.120	0.520
2020/01/31 05:47:21.0	91.810	-0.090	0.170	0.540
2020/01/31 05:47:21.1	91.810	-0.130	0.210	0.560
2020/01/31 05:47:21.2	91.820	-0.170	0.260	0.580
2020/01/31 05:47:21.3	91.820	-0.220	0.300	0.600
2020/01/31 05:47:21.4	91.820	-0.260	0.330	0.630
2020/01/31 05:47:21.5	91.820	-0.290	0.360	0.650
2020/01/31 05:47:21.6	91.810	-0.330	0.390	0.680
2020/01/31 05:47:21.7	91.810	-0.360	0.410	0.700
2020/01/31 05:47:21.8	91.810	-0.390	0.420	0.730
2020/01/31 05:47:21.9	91.800	-0.420	0.420	0.750
2020/01/31 05:47:22.0	91.800	-0.440	0.420	0.770
2020/01/31 05:47:22.1	91.790	-0.460	0.410	0.800
2020/01/31 05:47:22.2	91.790	-0.470	0.390	0.820
2020/01/31 05:47:22.3	91.780	-0.480	0.360	0.840
2020/01/31 05:47:22.4	91.780	-0.490	0.330	0.860
2020/01/31 05:47:22.5	91.780	-0.490	0.290	0.870
2020/01/31 05:47:22.6	91.770	-0.480	0.240	0.890
2020/01/31 05:47:22.7	91.770	-0.480	0.190	0.900
2020/01/31 05:47:22.8	91.760	-0.470	0.140	0.910
2020/01/31 05:47:22.9	91.760	-0.450	0.080	0.920
2020/01/31 05:47:23.0	91.760	-0.430	0.020	0.930
2020/01/31 05:47:23.1	91.760	-0.410	-0.040	0.930
2020/01/31 05:47:23.2	91.760	-0.390	-0.110	0.930
2020/01/31 05:47:23.3	91.760	-0.360	-0.170	0.940
2020/01/31 05:47:23.4	91.750	-0.330	-0.240	0.940
2020/01/31 05:47:23.5	91.750	-0.300	-0.300	0.950
2020/01/31 05:47:23.6	91.750	-0.270	-0.360	0.950
2020/01/31 05:47:23.7	91.750	-0.240	-0.420	0.950
2020/01/31 05:47:23.8	91.750	-0.200	-0.480	0.950
2020/01/31 05:47:23.9	91.750	-0.170	-0.530	0.950
2020/01/31 05:47:24.0	91.750	-0.130	-0.580	0.950
2020/01/31 05:47:24.1	91.750	-0.100	-0.630	0.950
2020/01/31 05:47:24.2	91.760	-0.060	-0.670	0.950
2020/01/31 05:47:24.3	91.760	-0.030	-0.710	0.950
2020/01/31 05:47:24.4	91.770	0.010	-0.740	0.940
2020/01/31 05:47:24.5	91.770	0.040	-0.770	0.940
2020/01/31 05:47:24.6	91.770	0.070	-0.790	0.930
2020/01/31 05:47:24.7	91.770	0.100	-0.800	0.930
2020/01/31 05:47:24.8	91.770	0.130	-0.810	0.920
2020/01/31 05:47:24.9	91.770	0.160	-0.810	0.910
2020/01/31 05:47:25.0	91.770	0.180	-0.810	0.900
2020/01/31 05:47:25.1	91.770	0.210	-0.800	0.890
2020/01/31 05:47:25.2	91.760	0.230	-0.790	0.880
2020/01/31 05:47:25.3	91.760	0.250	-0.770	0.870
2020/01/31 05:47:25.4	91.760	0.260	-0.750	0.850
2020/01/31 05:47:25.5	91.760	0.280	-0.720	0.840
2020/01/31 05:47:25.6	91.750	0.290	-0.690	0.830
2020/01/31 05:47:25.7	91.750	0.300	-0.650	0.820
2020/01/31 05:47:25.8	91.740	0.310	-0.620	0.810
2020/01/31 05:47:25.9	91.730	0.320	-0.580	0.800
2020/01/31 05:47:26.0	91.730	0.320	-0.540	0.780
2020/01/31 05:47:26.1	91.720	0.320	-0.500	0.770
2020/01/31 05:47:26.2	91.710	0.330	-0.460	0.760
2020/01/31 05:47:26.3	91.700	0.330	-0.410	0.760
2020/01/31 05:47:26.4	91.680	0.330	-0.370	0.750
2020/01/31 05:47:26.5	91.670	0.330	-0.340	0.740
2020/01/31 05:47:26.6	91.660	0.330	-0.300	0.740
2020/01/31 05:47:26.7	91.650	0.330	-0.260	0.740
2020/01/31 05:47:26.8	91.630	0.330	-0.230	0.730
2020/01/31 05:47:26.9	91.620	0.320	-0.200	0.730
2020/01/31 05:47:27.0	91.610	0.320	-0.180	0.730
2020/01/31 05:47:27.1	91.600	0.320	-0.160	0.730
2020/01/31 05:47:27.2	91.590	0.320	-0.140	0.730
2020/01/31 05:47:27.3	91.580	0.320	-0.130	0.730
2020/01/31 05:47:27.4	91.580	0.310	-0.120	0.720
2020/01/31 05:47:27.5	91.580	0.310	-0.110	0.720
2020/01/31 05:47:27.6	91.570	0.310	-0.100	0.710
2020/01/31 05:47:27.7	91.580	0.310	-0.100	0.710
2020/01/31 05:47:27.8	91.580	0.300	-0.100	0.700
2020/01/31 05:47:27.9	91.590	0.300	-0.100	0.690
2020/01/31 05:47:28.0	91.600	0.290	-0.100	0.680
2020/01/31 05:47:28.1	91.610	0.280	-0.100	0.670
2020/01/31 05:47:28.2	91.630	0.270	-0.100	0.660
2020/01/31 05:47:28.3	91.640	0.260	-0.090	0.650
2020/01/31 05:47:28.4	91.660	0.250	-0.090	0.640
2020/01/31 05:47:28.5	91.680	0.230	-0.080	0.630
2020/01/31 05:47:28.6	91.690	0.210	-0.070	0.620
2020/01/31 05:47:28.7	91.710	0.190	-0.050	0.610
2020/01/31 05:47:28.8	91.730	0.170	-0.040	0.600
2020/01/31 05:47:28.9	91.740	0.140	-0.020	0.590
2020/01/31 05:47:29.0	91.760	0.110	0.000	0.580
2020/01/31 05:47:29.1	91.770	0.080	0.030	0.570
2020/01/31 05:47:29.2	91.790	0.050	0.050	0.570
2020/01/31 05:47:29.3	91.800	0.010	0.080	0.560
2020/01/31 05:47:29.4	91.810	-0.020	0.110	0.560
2020/01/31 05:47:29.5	91.830	-0.060	0.140	0.550
2020/01/31 05:47:29.6	91.840	-0.100	0.170	0.550
2020/01/31 05:47:29.7	91.850	-0.140	0.200	0.540
2020/01/31 05:47:29.8	91.860	-0.180	0.230	0.540
2020/01/31 05:47:29.9	91.860	-0.210	0.260	0.530
2020/01/31 05:47:30.0	91.870	-0.250	0.290	0.530
2020/01/31 05:47:30.1	91.870	-0.290	0.310	0.530
2020/01/31 05:47:30.2	91.870	-0.320	0.330	0.520
2020/01/31 05:47:30.3	91.870	-0.350	0.340	0.520
2020/01/31 05:47:30.4	91.870	-0.380	0.350	0.520
2020/01/31 05:47:30.5	91.870	-0.410	0.360	0.520
2020/01/31 05:47:30.6	91.870	-0.430	0.360	0.520
2020/01/31 05:47:30.7	91.860	-0.450	0.350	0.520
2020/01/31 05:47:30.8	91.860	-0.460	0.340	0.520
2020/01/31 05:47:30.9	91.850	-0.470	0.310	0.520
2020/01/31 05:47:31.0	91.840	-0.470	0.290	0.530
2020/01/31 05:47:31.1	91.840	-0.470	0.250	0.530
2020/01/31 05:47:31.2	91.830	-0.470	0.210	0.540
2020/01/31 05:47:31.3	91.820	-0.460	0.170	0.540
2020/01/31 05:47:31.4	91.810	-0.440	0.120	0.550
2020/01/31 05:47:31.5	91.810	-0.420	0.060	0.560
2020/01/31 05:47:31.6	91.800	-0.400	0.000	0.570
2020/01/31 05:47:31.7	91.790	-0.370	-0.060	0.590
2020/01/31 05:47:31.8	91.790	-0.340	-0.130	0.600
2020/01/31 05:47:31.9	91.780	-0.310	-0.190	0.620
2020/01/31 05:47:32.0	91.770	-0.270	-0.260	0.640
2020/01/31 05:47:32.1	91.760	-0.240	-0.330	0.660
2020/01/31 05:47:32.2	91.760	-0.200	-0.400	0.690
2020/01/31 05:47:32.3	91.750	-0.160	-0.470	0.710
2020/01/31 05:47:32.4	91.750	-0.120	-0.540	0.740
2020/01/31 05:47:32.5	91.740	-0.080	-0.600	0.760
2020/01/31 05:47:32.6	91.730	-0.040	-0.660	0.790
2020/01/31 05:47:32.7	91.720	-0.000	-0.720	0.820
2020/01/31 05:47:32.8	91.720	0.030	-0.770	0.840
2020/01/31 05:47:32.9	91.710	0.070	-0.820	0.860
2020/01/31 05:47:33.0	91.700	0.100	-0.860	0.880
2020/01/31 05:47:33.1	91.700	0.140	-0.900	0.900
2020/01/31 05:47:33.2	91.680	0.170	-0.930	0.920
2020/01/31 05:47:33.3	91.680	0.190	-0.960	0.940
2020/01/31 05:47:33.4	91.670	0.220	-0.980	0.950
2020/01/31 05:47:33.5	91.670	0.240	-0.990	0.960
2020/01/31 05:47:33.6	91.670	0.260	-1.000	0.970
2020/01/31 05:47:33.7	91.660	0.270	-1.000	0.980
2020/01/31 05:47:33.8	91.660	0.290	-0.990	0.990
2020/01/31 05:47:33.9	91.660	0.300	-0.980	0.990
2020/01/31 05:47:34.0	91.660	0.300	-0.960	1.000
2020/01/31 05:47:34.1	91.660	0.310	-0.930	1.000
2020/01/31 05:47:34.2	91.640	0.310	-0.900	1.000
2020/01/31 05:47:34.3	91.640	0.310	-0.860	1.000
2020/01/31 05:47:34.4	91.640	0.310	-0.820	1.000
2020/01/31 05:47:34.5	91.640	0.310	-0.780	1.010
2020/01/31 05:47:34.6	91.640	0.300	-0.730	1.010
2020/01/31 05:47:34.7	91.640	0.290	-0.680	1.010
2020/01/31 05:47:34.8	91.640	0.290	-0.630	1.010
2020/01/31 05:47:34.9	91.640	0.280	-0.570	1.010
2020/01/31 05:47:35.0	91.640	0.270	-0.520	1.010
2020/01/31 05:47:35.1	91.640	0.260	-0.460	1.010
2020/01/31 05:47:35.2	91.640	0.240	-0.410	1.010
2020/01/31 05:47:35.3	91.650	0.230	-0.360	1.010
2020/01/31 05:47:35.4	91.650	0.220	-0.300	1.000
2020/01/31 05:47:35.5	91.660	0.210	-0.250	1.000
2020/01/31 05:47:35.6	91.670	0.190	-0.200	1.000
2020/01/31 05:47:35.7	91.680	0.180	-0.150	0.990
2020/01/31 05:47:35.8	91.690	0.170	-0.100	0.990
2020/01/31 05:47:35.9	91.700	0.150	-0.060	0.980
2020/01/31 05:47:36.0	91.710	0.140	-0.010	0.980
2020/01/31 05:47:36.1	91.720	0.130	0.030	0.970
2020/01/31 05:47:36.2	91.730	0.110	0.070	0.960
2020/01/31 05:47:36.3	91.750	0.100	0.110	0.960
2020/01/31 05:47:36.4	91.760	0.080	0.150	0.950
2020/01/31 05:47:36.5	91.770	0.060	0.190	0.950
2020/01/31 05:47:36.6	91.770	0.050	0.220	0.950
2020/01/31 05:47:36.7	91.780	0.030	0.260	0.940
2020/01/31 05:47:36.8	91.780	0.010	0.290	0.940
2020/01/31 05:47:36.9	91.780	-0.010	0.330	0.940
2020/01/31 05:47:37.0	91.780	-0.030	0.360	0.940
2020/01/31 05:47:37.1	91.780	-0.050	0.390	0.940
2020/01/31 05:47:37.2	91.770	-0.080	0.420	0.940
2020/01/31 05:47:37.3	91.750	-0.100	0.450	0.940
2020/01/31 05:47:37.4	91.740	-0.120	0.480	0.940
2020/01/31 05:47:37.5	91.720	-0.150	0.510	0.950
2020/01/31 05:47:37.6	91.700	-0.170	0.540	0.950
2020/01/31 05:47:37.7	91.680	-0.200	0.560	0.950
2020/01/31 05:47:37.8	91.660	-0.230	0.580	0.950
2020/01/31 05:47:37.9	91.630	-0.250	0.600	0.960
2020/01/31 05:47:38.0	91.610	-0.280	0.610	0.960
2020/01/31 05:47:38.1	91.580	-0.300	0.620	0.960
2020/01/31 05:47:38.2	91.550	-0.320	0.630	0.950
2020/01/31 05:47:38.3	91.520	-0.350	0.630	0.950
2020/01/31 05:47:38.4	91.500	-0.370	0.620	0.950
2020/01/31 05:47:38.5	91.470	-0.380	0.610	0.950
2020/01/31 05:47:38.6	91.450	-0.400	0.580	0.940
2020/01/31 05:47:38.7	91.420	-0.410	0.560	0.930
2020/01/31 05:47:38.8	91.400	-0.420	0.520	0.920
2020/01/31 05:47:38.9	91.390	-0.430	0.480	0.910
2020/01/31 05:47:39.0	91.370	-0.440	0.430	0.900
2020/01/31 05:47:39.1	91.360	-0.440	0.370	0.880
2020/01/31 05:47:39.2	91.350	-0.430	0.300	0.860
2020/01/31 05:47:39.3	91.340	-0.420	0.220	0.830
2020/01/31 05:47:39.4	91.340	-0.410	0.140	0.800
2020/01/31 05:47:39.5	91.340	-0.390	0.050	0.770
2020/01/31 05:47:39.6	91.340	-0.370	-0.050	0.740
2020/01/31 05:47:39.7	91.340	-0.340	-0.150	0.710
2020/01/31 05:47:39.8	91.350	-0.310	-0.260	0.670
2020/01/31 05:47:39.9	91.360	-0.280	-0.370	0.630
2020/01/31 05:47:40.0	91.370	-0.240	-0.480	0.600
2020/01/31 05:47:40.1	91.380	-0.190	-0.590	0.560
2020/01/31 05:47:40.2	91.400	-0.150	-0.710	0.520
2020/01/31 05:47:40.3	91.410	-0.100	-0.820	0.490
2020/01/31 05:47:40.4	91.430	-0.050	-0.930	0.460
2020/01/31 05:47:40.5	91.450	0.000	-1.030	0.430
2020/01/31 05:47:40.6	91.470	0.060	-1.130	0.400
2020/01/31 05:47:40.7	91.490	0.110	-1.220	0.380
2020/01/31 05:47:40.8	91.510	0.160	-1.300	0.350
2020/01/31 05:47:40.9	91.540	0.220	-1.370	0.340
2020/01/31 05:47:41.0	91.560	0.270	-1.440	0.320
2020/01/31 05:47:41.1	91.580	0.320	-1.490	0.310
2020/01/31 05:47:41.2	91.590	0.360	-1.530	0.300
2020/01/31 05:47:41.3	91.610	0.400	-1.550	0.300
2020/01/31 05:47:41.4	91.620	0.440	-1.570	0.300
2020/01/31 05:47:41.5	91.640	0.470	-1.570	0.300
2020/01/31 05:47:41.6	91.650	0.500	-1.550	0.310
2020/01/31 05:47:41.7	91.660	0.530	-1.530	0.320
2020/01/31 05:47:41.8	91.670	0.550	-1.490	0.330
2020/01/31 05:47:41.9	91.680	0.560	-1.430	0.350
2020/01/31 05:47:42.0	91.680	0.570	-1.370	0.370
2020/01/31 05:47:42.1	91.680	0.570	-1.300	0.390
2020/01/31 05:47:42.2	91.680	0.560	-1.210	0.420
2020/01/31 05:47:42.3	91.680	0.550	-1.110	0.450
2020/01/31 05:47:42.4	91.670	0.540	-1.010	0.480
2020/01/31 05:47:42.5	91.660	0.520	-0.900	0.520
2020/01/31 05:47:42.6	91.650	0.500	-0.790	0.560
2020/01/31 05:47:42.7	91.640	0.470	-0.670	0.590
2020/01/31 05:47:42.8	91.620	0.430	-0.550	0.640
2020/01/31 05:47:42.9	91.610	0.400	-0.430	0.680
2020/01/31 05:47:43.0	91.590	0.360	-0.300	0.720
2020/01/31 05:47:43.1	91.570	0.320	-0.180	0.770
2020/01/31 05:47:43.2	91.550	0.270	-0.060	0.820
2020/01/31 05:47:43.3	91.530	0.230	0.060	0.860
2020/01/31 05:47:43.4	91.510	0.180	0.180	0.900
2020/01/31 05:47:43.5	91.490	0.130	0.290	0.950
2020/01/31 05:47:43.6	91.470	0.080	0.400	0.990
2020/01/31 05:47:43.7	91.440	0.040	0.490	1.030
2020/01/31 05:47:43.8	91.420	-0.010	0.590	1.070
2020/01/31 05:47:43.9	91.400	-0.060	0.670	1.100
2020/01/31 05:47:44.0	91.370	-0.100	0.740	1.130
2020/01/31 05:47:44.1	91.350	-0.140	0.810	1.170
2020/01/31 05:47:44.2	91.320	-0.180	0.870	1.190
2020/01/31 05:47:44.3	91.300	-0.220	0.910	1.220
2020/01/31 05:47:44.4	91.270	-0.250	0.950	1.240
2020/01/31 05:47:44.5	91.240	-0.280	0.970	1.270
2020/01/31 05:47:44.6	91.210	-0.310	0.990	1.290
2020/01/31 05:47:44.7	91.190	-0.330	0.990	1.310
2020/01/31 05:47:44.8	91.160	-0.350	0.980	1.320
2020/01/31 05:47:44.9	91.130	-0.370	0.970	1.330
2020/01/31 05:47:45.0	91.100	-0.380	0.940	1.340
2020/01/31 05:47:45.1	91.070	-0.390	0.910	1.350
2020/01/31 05:47:45.2	91.050	-0.400	0.860	1.350
2020/01/31 05:47:45.3	91.030	-0.400	0.810	1.350
2020/01/31 05:47:45.4	91.000	-0.400	0.750	1.340
2020/01/31 05:47:45.5	90.980	-0.400	0.690	1.330
2020/01/31 05:47:45.6	90.960	-0.390	0.610	1.320
2020/01/31 05:47:45.7	90.940	-0.380	0.530	1.300
2020/01/31 05:47:45.8	90.920	-0.360	0.440	1.280
2020/01/31 05:47:45.9	90.910	-0.340	0.350	1.250
2020/01/31 05:47:46.0	90.900	-0.320	0.250	1.220
2020/01/31 05:47:46.1	90.890	-0.300	0.140	1.190
2020/01/31 05:47:46.2	90.890	-0.270	0.040	1.150
2020/01/31 05:47:46.3	90.880	-0.240	-0.070	1.110
2020/01/31 05:47:46.4	90.890	-0.210	-0.190	1.070
2020/01/31 05:47:46.5	90.890	-0.170	-0.300	1.030
2020/01/31 05:47:46.6	90.900	-0.140	-0.410	0.980
2020/01/31 05:47:46.7	90.910	-0.100	-0.520	0.930
2020/01/31 05:47:46.8	90.930	-0.060	-0.630	0.880
2020/01/31 05:47:46.9	90.940	-0.020	-0.740	0.830
2020/01/31 05:47:47.0	90.970	0.020	-0.840	0.780
2020/01/31 05:47:47.1	90.990	0.060	-0.940	0.740
2020/01/31 05:47:47.2	91.020	0.100	-1.040	0.690
2020/01/31 05:47:47.3	91.040	0.130	-1.120	0.640
2020/01/31 05:47:47.4	91.070	0.170	-1.190	0.600
2020/01/31 05:47:47.5	91.100	0.210	-1.260	0.560
2020/01/31 05:47:47.6	91.130	0.240	-1.310	0.530
2020/01/31 05:47:47.7	91.160	0.270	-1.360	0.500
2020/01/31 05:47:47.8	91.190	0.300	-1.390	0.480
2020/01/31 05:47:47.9	91.220	0.330	-1.400	0.460
2020/01/31 05:47:48.0	91.250	0.350	-1.410	0.450
2020/01/31 05:47:48.1	91.270	0.370	-1.400	0.450
2020/01/31 05:47:48.2	91.300	0.380	-1.380	0.450
2020/01/31 05:47:48.3	91.320	0.400	-1.350	0.450
2020/01/31 05:47:48.4	91.340	0.400	-1.310	0.460
2020/01/31 05:47:48.5	91.360	0.400	-1.250	0.480
2020/01/31 05:47:48.6	91.380	0.400	-1.190	0.500
2020/01/31 05:47:48.7	91.400	0.400	-1.110	0.520
2020/01/31 05:47:48.8	91.410	0.390	-1.020	0.540
2020/01/31 05:47:48.9	91.420	0.370	-0.930	0.570
2020/01/31 05:47:49.0	91.440	0.350	-0.830	0.590
2020/01/31 05:47:49.1	91.440	0.330	-0.720	0.620
2020/01/31 05:47:49.2	91.450	0.300	-0.610	0.650
2020/01/31 05:47:49.3	91.450	0.270	-0.490	0.680
2020/01/31 05:47:49.4	91.450	0.240	-0.370	0.710
2020/01/31 05:47:49.5	91.450	0.210	-0.250	0.740
2020/01/31 05:47:49.6	91.450	0.170	-0.130	0.770
2020/01/31 05:47:49.7	91.440	0.130	-0.010	0.800
2020/01/31 05:47:49.8	91.430	0.080	0.110	0.820
2020/01/31 05:47:49.9	91.420	0.040	0.220	0.850
2020/01/31 05:47:50.0	91.410	-0.010	0.330	0.880
2020/01/31 05:47:50.1	91.390	-0.050	0.440	0.900
2020/01/31 05:47:50.2	91.370	-0.100	0.540	0.930
2020/01/31 05:47:50.3	91.350	-0.140	0.630	0.950
2020/01/31 05:47:50.4	91.330	-0.190	0.720	0.970
2020/01/31 05:47:50.5	91.310	-0.230	0.800	1.000
2020/01/31 05:47:50.6	91.290	-0.280	0.870	1.020
2020/01/31 05:47:50.7	91.260	-0.320	0.930	1.040
2020/01/31 05:47:50.8	91.240	-0.360	0.980	1.070
2020/01/31 05:47:50.9	91.220	-0.400	1.020	1.090
2020/01/31 05:47:51.0	91.190	-0.430	1.050	1.110
2020/01/31 05:47:51.1	91.170	-0.460	1.070	1.120
2020/01/31 05:47:51.2	91.150	-0.490	1.090	1.140
2020/01/31 05:47:51.3	91.130	-0.520	1.090	1.160
2020/01/31 05:47:51.4	91.110	-0.540	1.080	1.170
2020/01/31 05:47:51.5	91.090	-0.550	1.050	1.180
2020/01/31 05:47:51.6	91.080	-0.570	1.020	1.190
2020/01/31 05:47:51.7	91.070	-0.570	0.980	1.190
2020/01/31 05:47:51.8	91.050	-0.580	0.930	1.190
2020/01/31 05:47:51.9	91.050	-0.580	0.860	1.180
2020/01/31 05:47:52.0	91.040	-0.570	0.790	1.170
2020/01/31 05:47:52.1	91.040	-0.560	0.710	1.160
2020/01/31 05:47:52.2	91.050	-0.540	0.610	1.140
2020/01/31 05:47:52.3	91.050	-0.520	0.510	1.110
2020/01/31 05:47:52.4	91.060	-0.500	0.410	1.080
2020/01/31 05:47:52.5	91.070	-0.470	0.290	1.050
2020/01/31 05:47:52.6	91.080	-0.430	0.170	1.010
2020/01/31 05:47:52.7	91.100	-0.400	0.050	0.960
2020/01/31 05:47:52.8	91.110	-0.360	-0.080	0.920
2020/01/31 05:47:52.9	91.130	-0.310	-0.210	0.870
2020/01/31 05:47:53.0	91.150	-0.260	-0.350	0.820
2020/01/31 05:47:53.1	91.170	-0.210	-0.480	0.770
2020/01/31 05:47:53.2	91.190	-0.160	-0.610	0.720
2020/01/31 05:47:53.3	91.210	-0.100	-0.740	0.680
2020/01/31 05:47:53.4	91.240	-0.050	-0.870	0.630
2020/01/31 05:47:53.5	91.260	0.010	-1.000	0.590
2020/01/31 05:47:53.6	91.280	0.070	-1.110	0.550
2020/01/31 05:47:53.7	91.300	0.120	-1.230	0.520
2020/01/31 05:47:53.8	91.320	0.180	-1.330	0.490
2020/01/31 05:47:53.9	91.340	0.240	-1.420	0.460
2020/01/31 05:47:54.0	91.360	0.290	-1.510	0.440
2020/01/31 05:47:54.1	91.380	0.350	-1.580	0.430
2020/01/31 05:47:54.2	91.390	0.400	-1.640	0.420
2020/01/31 05:47:54.3	91.400	0.440	-1.690	0.410
2020/01/31 05:47:54.4	91.420	0.480	-1.720	0.410
2020/01/31 05:47:54.5	91.430	0.520	-1.740	0.410
2020/01/31 05:47:54.6	91.450	0.560	-1.750	0.420
2020/01/31 05:47:54.7	91.460	0.580	-1.740	0.430
2020/01/31 05:47:54.8	91.470	0.600	-1.710	0.450
2020/01/31 05:47:54.9	91.480	0.620	-1.670	0.470
2020/01/31 05:47:55.0	91.490	0.630	-1.620	0.500
2020/01/31 05:47:55.1	91.500	0.630	-1.560	0.530
2020/01/31 05:47:55.2	91.490	0.630	-1.480	0.560
2020/01/31 05:47:55.3	91.500	0.620	-1.390	0.590
2020/01/31 05:47:55.4	91.500	0.610	-1.290	0.630
2020/01/31 05:47:55.5	91.500	0.580	-1.170	0.670
2020/01/31 05:47:55.6	91.500	0.560	-1.050	0.710
2020/01/31 05:47:55.7	91.500	0.520	-0.920	0.750
2020/01/31 05:47:55.8	91.490	0.480	-0.790	0.790
2020/01/31 05:47:55.9	91.490	0.440	-0.640	0.830
2020/01/31 05:47:56.0	91.480	0.390	-0.500	0.870
2020/01/31 05:47:56.1	91.480	0.330	-0.350	0.910
2020/01/31 05:47:56.2	91.470	0.270	-0.200	0.950
2020/01/31 05:47:56.3	91.460	0.210	-0.050	0.990
2020/01/31 05:47:56.4	91.450	0.150	0.100	1.030
2020/01/31 05:47:56.5	91.430	0.080	0.240	1.060
2020/01/31 05:47:56.6	91.420	0.020	0.380	1.090
2020/01/31 05:47:56.7	91.410	-0.050	0.510	1.120
2020/01/31 05:47:56.8	91.400	-0.120	0.630	1.140
2020/01/31 05:47:56.9	91.380	-0.180	0.750	1.170
2020/01/31 05:47:57.0	91.370	-0.250	0.850	1.180
2020/01/31 05:47:57.1	91.360	-0.310	0.950	1.200
2020/01/31 05:47:57.2	91.340	-0.370	1.030	1.210
2020/01/31 05:47:57.3	91.330	-0.430	1.100	1.220
2020/01/31 05:47:57.4	91.320	-0.480	1.160	1.220
2020/01/31 05:47:57.5	91.320	-0.530	1.210	1.220
2020/01/31 05:47:57.6	91.310	-0.570	1.240	1.210
2020/01/31 05:47:57.7	91.310	-0.610	1.260	1.200
2020/01/31 05:47:57.8	91.310	-0.640	1.270	1.180
2020/01/31 05:47:57.9	91.310	-0.670	1.260	1.160
2020/01/31 05:47:58.0	91.310	-0.690	1.230	1.130
2020/01/31 05:47:58.1	91.320	-0.700	1.200	1.100
2020/01/31 05:47:58.2	91.340	-0.710	1.160	1.070
2020/01/31 05:47:58.3	91.350	-0.700	1.100	1.030
2020/01/31 05:47:58.4	91.360	-0.700	1.030	0.990
2020/01/31 05:47:58.5	91.370	-0.680	0.940	0.950
2020/01/31 05:47:58.6	91.380	-0.660	0.850	0.910
2020/01/31 05:47:58.7	91.390	-0.630	0.750	0.860
2020/01/31 05:47:58.8	91.410	-0.600	0.630	0.820
2020/01/31 05:47:58.9	91.420	-0.560	0.520	0.770
2020/01/31 05:47:59.0	91.430	-0.520	0.390	0.730
2020/01/31 05:47:59.1	91.450	-0.470	0.260	0.680
2020/01/31 05:47:59.2	91.450	-0.410	0.120	0.630
2020/01/31 05:47:59.3	91.460	-0.350	-0.020	0.590
2020/01/31 05:47:59.4	91.470	-0.290	-0.160	0.550
2020/01/31 05:47:59.5	91.480	-0.220	-0.300	0.510
2020/01/31 05:47:59.6	91.490	-0.160	-0.430	0.470
2020/01/31 05:47:59.7	91.490	-0.090	-0.570	0.430
2020/01/31 05:47:59.8	91.490	-0.020	-0.700	0.400
2020/01/31 05:47:59.9	91.490	0.060	-0.820	0.370
2020/01/31 05:48:00.0	91.490	0.130	-0.940	0.340
2020/01/31 05:48:00.1	91.490	0.200	-1.050	0.320
2020/01/31 05:48:00.2	91.490	0.270	-1.140	0.300
2020/01/31 05:48:00.3	91.490	0.330	-1.240	0.280
2020/01/31 05:48:00.4	91.480	0.400	-1.310	0.270
2020/01/31 05:48:00.5	91.480	0.460	-1.380	0.260
2020/01/31 05:48:00.6	91.470	0.520	-1.440	0.250
2020/01/31 05:48:00.7	91.460	0.570	-1.480	0.250
2020/01/31 05:48:00.8	91.450	0.620	-1.510	0.250
2020/01/31 05:48:00.9	91.440	0.660	-1.530	0.260
2020/01/31 05:48:01.0	91.430	0.700	-1.530	0.270
2020/01/31 05:48:01.1	91.420	0.730	-1.530	0.280
2020/01/31 05:48:01.2	91.410	0.760	-1.510	0.290
2020/01/31 05:48:01.3	91.390	0.780	-1.480	0.310
2020/01/31 05:48:01.4	91.380	0.790	-1.440	0.320
2020/01/31 05:48:01.5	91.370	0.800	-1.380	0.340
2020/01/31 05:48:01.6	91.360	0.800	-1.320	0.360
2020/01/31 05:48:01.7	91.360	0.800	-1.250	0.380
2020/01/31 05:48:01.8	91.350	0.790	-1.160	0.400
2020/01/31 05:48:01.9	91.340	0.770	-1.080	0.430
2020/01/31 05:48:02.0	91.340	0.750	-0.980	0.450
2020/01/31 05:48:02.1	91.330	0.720	-0.880	0.470
2020/01/31 05:48:02.2	91.340	0.690	-0.770	0.500
2020/01/31 05:48:02.3	91.340	0.650	-0.660	0.520
2020/01/31 05:48:02.4	91.340	0.610	-0.550	0.550
2020/01/31 05:48:02.5	91.340	0.570	-0.440	0.580
2020/01/31 05:48:02.6	91.350	0.520	-0.330	0.600
2020/01/31 05:48:02.7	91.350	0.470	-0.220	0.630
2020/01/31 05:48:02.8	91.360	0.420	-0.110	0.650
2020/01/31 05:48:02.9	91.370	0.370	-0.010	0.680
2020/01/31 05:48:03.0	91.390	0.310	0.100	0.700
2020/01/31 05:48:03.1	91.400	0.250	0.200	0.730
2020/01/31 05:48:03.2	91.420	0.200	0.290	0.750
2020/01/31 05:48:03.3	91.440	0.140	0.380	0.780
2020/01/31 05:48:03.4	91.460	0.080	0.460	0.800
2020/01/31 05:48:03.5	91.470	0.030	0.530	0.820
2020/01/31 05:48:03.6	91.490	-0.030	0.600	0.850
2020/01/31 05:48:03.7	91.510	-0.080	0.660	0.870
2020/01/31 05:48:03.8	91.530	-0.130	0.710	0.890
2020/01/31 05:48:03.9	91.540	-0.180	0.750	0.910
2020/01/31 05:48:04.0	91.560	-0.220	0.790	0.940
2020/01/31 05:48:04.1	91.570	-0.260	0.810	0.960
2020/01/31 05:48:04.2	91.590	-0.300	0.820	0.980
2020/01/31 05:48:04.3	91.610	-0.330	0.820	0.990
2020/01/31 05:48:04.4	91.620	-0.360	0.810	1.010
2020/01/31 05:48:04.5	91.630	-0.380	0.790	1.030
2020/01/31 05:48:04.6	91.640	-0.400	0.760	1.040
2020/01/31 05:48:04.7	91.650	-0.420	0.720	1.050
2020/01/31 05:48:04.8	91.660	-0.430	0.670	1.060
2020/01/31 05:48:04.9	91.670	-0.430	0.610	1.070
2020/01/31 05:48:05.0	91.680	-0.430	0.550	1.080
2020/01/31 05:48:05.1	91.690	-0.430	0.470	1.090
2020/01/31 05:48:05.2	91.690	-0.430	0.390	1.090
2020/01/31 05:48:05.3	91.690	-0.420	0.310	1.100
2020/01/31 05:48:05.4	91.690	-0.400	0.220	1.100
2020/01/31 05:48:05.5	91.690	-0.390	0.130	1.110
2020/01/31 05:48:05.6	91.690	-0.370	0.040	1.110
2020/01/31 05:48:05.7	91.690	-0.350	-0.040	1.110
2020/01/31 05:48:05.8	91.680	-0.330	-0.130	1.120
2020/01/31 05:48:05.9	91.680	-0.310	-0.210	1.120
2020/01/31 05:48:06.0	91.670	-0.290	-0.290	1.130
2020/01/31 05:48:06.1	91.660	-0.270	-0.360	1.140
2020/01/31 05:48:06.2	91.660	-0.250	-0.420	1.140
2020/01/31 05:48:06.3	91.650	-0.230	-0.480	1.150
2020/01/31 05:48:06.4	91.640	-0.210	-0.530	1.150
2020/01/31 05:48:06.5	91.630	-0.190	-0.560	1.160
2020/01/31 05:48:06.6	91.620	-0.180	-0.590	1.170
2020/01/31 05:48:06.7	91.610	-0.160	-0.610	1.180
2020/01/31 05:48:06.8	91.600	-0.150	-0.620	1.190
2020/01/31 05:48:06.9	91.590	-0.140	-0.620	1.190
2020/01/31 05:48:07.0	91.590	-0.140	-0.610	1.200
2020/01/31 05:48:07.1	91.580	-0.140	-0.590	1.210
2020/01/31 05:48:07.2	91.580	-0.140	-0.570	1.210
2020/01/31 05:48:07.3	91.580	-0.140	-0.540	1.210
2020/01/31 05:48:07.4	91.580	-0.150	-0.500	1.220
2020/01/31 05:48:07.5	91.580	-0.150	-0.460	1.220
2020/01/31 05:48:07.6	91.580	-0.160	-0.410	1.220
2020/01/31 05:48:07.7	91.580	-0.180	-0.360	1.220
2020/01/31 05:48:07.8	91.580	-0.190	-0.310	1.210
2020/01/31 05:48:07.9	91.580	-0.200	-0.260	1.200
2020/01/31 05:48:08.0	91.590	-0.220	-0.210	1.200
2020/01/31 05:48:08.1	91.600	-0.240	-0.170	1.180
2020/01/31 05:48:08.2	91.610	-0.250	-0.130	1.170
2020/01/31 05:48:08.3	91.620	-0.270	-0.090	1.150
2020/01/31 05:48:08.4	91.630	-0.280	-0.050	1.130
2020/01/31 05:48:08.5	91.640	-0.290	-0.030	1.110
2020/01/31 05:48:08.6	91.650	-0.300	-0.010	1.090
2020/01/31 05:48:08.7	91.660	-0.310	0.000	1.060
2020/01/31 05:48:08.8	91.670	-0.310	0.010	1.030
2020/01/31 05:48:08.9	91.680	-0.310	0.000	1.010
2020/01/31 05:48:09.0	91.690	-0.310	-0.010	0.980
2020/01/31 05:48:09.1	91.690	-0.300	-0.030	0.950
2020/01/31 05:48:09.2	91.700	-0.290	-0.050	0.920
2020/01/31 05:48:09.3	91.710	-0.280	-0.080	0.890
2020/01/31 05:48:09.4	91.710	-0.260	-0.130	0.860
2020/01/31 05:48:09.5	91.710	-0.240	-0.170	0.830
2020/01/31 05:48:09.6	91.710	-0.220	-0.220	0.800
2020/01/31 05:48:09.7	91.710	-0.200	-0.280	0.780
2020/01/31 05:48:09.8	91.710	-0.170	-0.330	0.750
2020/01/31 05:48:09.9	91.700	-0.140	-0.390	0.730
2020/01/31 05:48:10.0	91.690	-0.110	-0.450	0.710
2020/01/31 05:48:10.1	91.690	-0.080	-0.510	0.690
2020/01/31 05:48:10.2	91.680	-0.040	-0.570	0.660
2020/01/31 05:48:10.3	91.670	-0.010	-0.630	0.640
2020/01/31 05:48:10.4	91.650	0.030	-0.680	0.620
2020/01/31 05:48:10.5	91.640	0.070	-0.730	0.610
2020/01/31 05:48:10.6	91.630	0.100	-0.770	0.590
2020/01/31 05:48:10.7	91.620	0.140	-0.810	0.580
2020/01/31 05:48:10.8	91.610	0.170	-0.850	0.570
2020/01/31 05:48:10.9	91.590	0.200	-0.880	0.560
2020/01/31 05:48:11.0	91.580	0.230	-0.900	0.560
2020/01/31 05:48:11.1	91.570	0.260	-0.920	0.560
2020/01/31 05:48:11.2	91.560	0.290	-0.920	0.560
2020/01/31 05:48:11.3	91.550	0.320	-0.930	0.560
2020/01/31 05:48:11.4	91.540	0.340	-0.920	0.570
2020/01/31 05:48:11.5	91.530	0.360	-0.910	0.590
2020/01/31 05:48:11.6	91.520	0.370	-0.890	0.600
2020/01/31 05:48:11.7	91.510	0.390	-0.860	0.620
2020/01/31 05:48:11.8	91.510	0.400	-0.820	0.650
2020/01/31 05:48:11.9	91.500	0.400	-0.780	0.670
2020/01/31 05:48:12.0	91.500	0.400	-0.730	0.690
2020/01/31 05:48:12.1	91.490	0.400	-0.670	0.720
2020/01/31 05:48:12.2	91.480	0.400	-0.610	0.750
2020/01/31 05:48:12.3	91.480	0.390	-0.540	0.770
2020/01/31 05:48:12.4	91.470	0.380	-0.470	0.800
2020/01/31 05:48:12.5	91.470	0.360	-0.390	0.830
2020/01/31 05:48:12.6	91.470	0.340	-0.310	0.850
2020/01/31 05:48:12.7	91.470	0.310	-0.220	0.870
2020/01/31 05:48:12.8	91.470	0.290	-0.130	0.890
2020/01/31 05:48:12.9	91.470	0.260	-0.040	0.910
2020/01/31 05:48:13.0	91.470	0.230	0.050	0.920
2020/01/31 05:48:13.1	91.480	0.190	0.140	0.930
2020/01/31 05:48:13.2	91.480	0.150	0.230	0.940
2020/01/31 05:48:13.3	91.480	0.120	0.310	0.940
2020/01/31 05:48:13.4	91.480	0.080	0.400	0.940
2020/01/31 05:48:13.5	91.490	0.040	0.470	0.930
2020/01/31 05:48:13.6	91.490	-0.000	0.540	0.920
2020/01/31 05:48:13.7	91.490	-0.040	0.610	0.910
2020/01/31 05:48:13.8	91.500	-0.070	0.660	0.890
2020/01/31 05:48:13.9	91.500	-0.110	0.700	0.870
2020/01/31 05:48:14.0	91.500	-0.140	0.740	0.840
2020/01/31 05:48:14.1	91.510	-0.170	0.760	0.820
2020/01/31 05:48:14.2	91.510	-0.190	0.780	0.790
2020/01/31 05:48:14.3	91.510	-0.210	0.780	0.760
2020/01/31 05:48:14.4	91.510	-0.230	0.770	0.720
2020/01/31 05:48:14.5	91.510	-0.240	0.750	0.690
2020/01/31 05:48:14.6	91.510	-0.240	0.720	0.660
2020/01/31 05:48:14.7	91.510	-0.240	0.680	0.630
2020/01/31 05:48:14.8	91.510	-0.240	0.630	0.600
2020/01/31 05:48:14.9	91.500	-0.230	0.560	0.570
2020/01/31 05:48:15.0	91.500	-0.210	0.490	0.540
2020/01/31 05:48:15.1	91.490	-0.190	0.410	0.520
2020/01/31 05:48:15.2	91.490	-0.170	0.320	0.500
2020/01/31 05:48:15.3	91.480	-0.130	0.230	0.480
2020/01/31 05:48:15.4	91.480	-0.100	0.130	0.470
2020/01/31 05:48:15.5	91.470	-0.060	0.030	0.460
2020/01/31 05:48:15.6	91.460	-0.020	-0.070	0.450
2020/01/31 05:48:15.7	91.460	0.030	-0.180	0.450
2020/01/31 05:48:15.8	91.450	0.080	-0.280	0.450
2020/01/31 05:48:15.9	91.450	0.130	-0.390	0.450
2020/01/31 05:48:16.0	91.450	0.180	-0.490	0.450
2020/01/31 05:48:16.1	91.450	0.240	-0.580	0.460
2020/01/31 05:48:16.2	91.460	0.290	-0.670	0.470
2020/01/31 05:48:16.3	91.460	0.340	-0.760	0.470
2020/01/31 05:48:16.4	91.470	0.390	-0.830	0.480
2020/01/31 05:48:16.5	91.480	0.440	-0.900	0.490
2020/01/31 05:48:16.6	91.490	0.490	-0.960	0.490
2020/01/31 05:48:16.7	91.500	0.530	-1.010	0.500
2020/01/31 05:48:16.8	91.520	0.570	-1.050	0.510
2020/01/31 05:48:16.9	91.530	0.600	-1.080	0.520
2020/01/31 05:48:17.0	91.550	0.630	-1.090	0.520
2020/01/31 05:48:17.1	91.570	0.660	-1.100	0.530
2020/01/31 05:48:17.2	91.580	0.680	-1.100	0.540
2020/01/31 05:48:17.3	91.600	0.690	-1.080	0.540
2020/01/31 05:48:17.4	91.610	0.700	-1.060	0.540
2020/01/31 05:48:17.5	91.630	0.700	-1.030	0.550
2020/01/31 05:48:17.6	91.650	0.690	-0.980	0.550
2020/01/31 05:48:17.7	91.670	0.680	-0.930	0.550
2020/01/31 05:48:17.8	91.680	0.660	-0.870	0.560
2020/01/31 05:48:17.9	91.700	0.640	-0.810	0.560
2020/01/31 05:48:18.0	91.710	0.610	-0.740	0.560
2020/01/31 05:48:18.1	91.720	0.580	-0.660	0.570
2020/01/31 05:48:18.2	91.730	0.540	-0.580	0.570
2020/01/31 05:48:18.3	91.740	0.500	-0.490	0.570
2020/01/31 05:48:18.4	91.740	0.450	-0.410	0.580
2020/01/31 05:48:18.5	91.740	0.400	-0.320	0.590
2020/01/31 05:48:18.6	91.740	0.350	-0.230	0.610
2020/01/31 05:48:18.7	91.740	0.300	-0.150	0.620
2020/01/31 05:48:18.8	91.740	0.240	-0.060	0.640
2020/01/31 05:48:18.9	91.730	0.190	0.020	0.670
2020/01/31 05:48:19.0	91.720	0.130	0.100	0.690
2020/01/31 05:48:19.1	91.710	0.070	0.170	0.720
2020/01/31 05:48:19.2	91.700	0.010	0.240	0.750
2020/01/31 05:48:19.3	91.680	-0.040	0.300	0.780
2020/01/31 05:48:19.4	91.670	-0.100	0.360	0.820
2020/01/31 05:48:19.5	91.650	-0.150	0.410	0.860
2020/01/31 05:48:19.6	91.640	-0.200	0.450	0.890
2020/01/31 05:48:19.7	91.620	-0.250	0.490	0.940
2020/01/31 05:48:19.8	91.600	-0.300	0.520	0.980
2020/01/31 05:48:19.9	91.580	-0.340	0.540	1.020
2020/01/31 05:48:20.0	91.570	-0.380	0.550	1.060
2020/01/31 05:48:20.1	91.550	-0.420	0.550	1.100
2020/01/31 05:48:20.2	91.530	-0.450	0.550	1.140
2020/01/31 05:48:20.3	91.520	-0.480	0.540	1.180
2020/01/31 05:48:20.4	91.500	-0.500	0.510	1.220
2020/01/31 05:48:20.5	91.490	-0.520	0.490	1.250
2020/01/31 05:48:20.6	91.470	-0.540	0.450	1.280
2020/01/31 05:48:20.7	91.460	-0.550	0.400	1.310
2020/01/31 05:48:20.8	91.450	-0.560	0.350	1.340
2020/01/31 05:48:20.9	91.440	-0.570	0.300	1.360
2020/01/31 05:48:21.0	91.430	-0.570	0.240	1.380
2020/01/31 05:48:21.1	91.430	-0.570	0.170	1.400
2020/01/31 05:48:21.2	91.420	-0.570	0.100	1.410
2020/01/31 05:48:21.3	91.420	-0.560	0.030	1.420
2020/01/31 05:48:21.4	91.420	-0.550	-0.050	1.430
2020/01/31 05:48:21.5	91.420	-0.540	-0.120	1.430
2020/01/31 05:48:21.6	91.420	-0.530	-0.200	1.430
2020/01/31 05:48:21.7	91.420	-0.510	-0.270	1.420
2020/01/31 05:48:21.8	91.420	-0.490	-0.340	1.410
2020/01/31 05:48:21.9	91.430	-0.480	-0.410	1.400
2020/01/31 05:48:22.0	91.430	-0.460	-0.480	1.380
2020/01/31 05:48:22.1	91.440	-0.440	-0.540	1.360
2020/01/31 05:48:22.2	91.440	-0.420	-0.590	1.330
2020/01/31 05:48:22.3	91.450	-0.400	-0.640	1.310
2020/01/31 05:48:22.4	91.460	-0.380	-0.690	1.280
2020/01/31 05:48:22.5	91.470	-0.360	-0.730	1.260
2020/01/31 05:48:22.6	91.470	-0.340	-0.760	1.230
2020/01/31 05:48:22.7	91.480	-0.320	-0.780	1.200
2020/01/31 05:48:22.8	91.490	-0.300	-0.800	1.180
2020/01/31 05:48:22.9	91.490	-0.280	-0.820	1.150
2020/01/31 05:48:23.0	91.490	-0.260	-0.820	1.130
2020/01/31 05:48:23.1	91.500	-0.240	-0.820	1.110
2020/01/31 05:48:23.2	91.510	-0.230	-0.820	1.090
2020/01/31 05:48:23.3	91.510	-0.210	-0.800	1.080
2020/01/31 05:48:23.4	91.510	-0.190	-0.790	1.060
2020/01/31 05:48:23.5	91.500	-0.170	-0.760	1.050
2020/01/31 05:48:23.6	91.500	-0.150	-0.740	1.050
2020/01/31 05:48:23.7	91.500	-0.140	-0.710	1.040
2020/01/31 05:48:23.8	91.490	-0.120	-0.680	1.040
2020/01/31 05:48:23.9	91.480	-0.100	-0.640	1.040
2020/01/31 05:48:24.0	91.480	-0.090	-0.600	1.050
2020/01/31 05:48:24.1	91.470	-0.070	-0.570	1.050
2020/01/31 05:48:24.2	91.460	-0.050	-0.530	1.060
2020/01/31 05:48:24.3	91.450	-0.040	-0.500	1.070
2020/01/31 05:48:24.4	91.440	-0.020	-0.460	1.080
2020/01/31 05:48:24.5	91.430	-0.000	-0.430	1.090
2020/01/31 05:48:24.6	91.410	0.020	-0.400	1.100
2020/01/31 05:48:24.7	91.400	0.030	-0.370	1.110
2020/01/31 05:48:24.8	91.390	0.050	-0.340	1.110
2020/01/31 05:48:24.9	91.380	0.070	-0.320	1.120
2020/01/31 05:48:25.0	91.370	0.080	-0.300	1.120
2020/01/31 05:48:25.1	91.360	0.100	-0.280	1.120
2020/01/31 05:48:25.2	91.360	0.120	-0.260	1.120
2020/01/31 05:48:25.3	91.350	0.130	-0.240	1.110
2020/01/31 05:48:25.4	91.340	0.140	-0.220	1.110
2020/01/31 05:48:25.5	91.340	0.160	-0.210	1.100
2020/01/31 05:48:25.6	91.340	0.170	-0.190	1.090
2020/01/31 05:48:25.7	91.330	0.170	-0.170	1.070
2020/01/31 05:48:25.8	91.330	0.180	-0.150	1.060
2020/01/31 05:48:25.9	91.330	0.180	-0.140	1.050
2020/01/31 05:48:26.0	91.330	0.190	-0.120	1.030
2020/01/31 05:48:26.1	91.330	0.180	-0.100	1.020
2020/01/31 05:48:26.2	91.340	0.180	-0.080	1.000
2020/01/31 05:48:26.3	91.340	0.180	-0.050	0.980
2020/01/31 05:48:26.4	91.340	0.170	-0.030	0.960
2020/01/31 05:48:26.5	91.350	0.160	-0.010	0.950
2020/01/31 05:48:26.6	91.350	0.150	0.020	0.930
2020/01/31 05:48:26.7	91.350	0.140	0.040	0.910
2020/01/31 05:48:26.8	91.360	0.130	0.070	0.890
2020/01/31 05:48:26.9	91.360	0.110	0.100	0.870
2020/01/31 05:48:27.0	91.370	0.100	0.130	0.850
2020/01/31 05:48:27.1	91.380	0.080	0.150	0.830
2020/01/31 05:48:27.2	91.380	0.060	0.180	0.810
2020/01/31 05:48:27.3	91.390	0.040	0.200	0.790
2020/01/31 05:48:27.4	91.400	0.030	0.230	0.760
2020/01/31 05:48:27.5	91.410	0.010	0.250	0.740
2020/01/31 05:48:27.6	91.420	-0.010	0.270	0.710
2020/01/31 05:48:27.7	91.430	-0.020	0.280	0.680
2020/01/31 05:48:27.8	91.440	-0.040	0.300	0.650
2020/01/31 05:48:27.9	91.450	-0.050	0.310	0.620
2020/01/31 05:48:28.0	91.470	-0.060	0.310	0.590
2020/01/31 05:48:28.1	91.480	-0.070	0.320	0.560
2020/01/31 05:48:28.2	91.490	-0.080	0.320	0.530
2020/01/31 05:48:28.3	91.510	-0.080	0.310	0.500
2020/01/31 05:48:28.4	91.520	-0.080	0.300	0.470
2020/01/31 05:48:28.5	91.540	-0.080	0.280	0.440
2020/01/31 05:48:28.6	91.560	-0.080	0.260	0.420
2020/01/31 05:48:28.7	91.580	-0.070	0.230	0.390
2020/01/31 05:48:28.8	91.600	-0.070	0.200	0.370
2020/01/31 05:48:28.9	91.620	-0.060	0.170	0.350
2020/01/31 05:48:29.0	91.640	-0.040	0.130	0.330
2020/01/31 05:48:29.1	91.660	-0.030	0.090	0.310
2020/01/31 05:48:29.2	91.680	-0.010	0.040	0.300
2020/01/31 05:48:29.3	91.690	0.010	-0.010	0.290
2020/01/31 05:48:29.4	91.710	0.030	-0.060	0.280
2020/01/31 05:48:29.5	91.730	0.050	-0.110	0.280
2020/01/31 05:48:29.6	91.740	0.080	-0.170	0.280
2020/01/31 05:48:29.7	91.750	0.100	-0.220	0.280
2020/01/31 05:48:29.8	91.760	0.120	-0.270	0.290
2020/01/31 05:48:29.9	91.770	0.150	-0.320	0.300
2020/01/31 05:48:30.0	91.780	0.170	-0.370	0.310
2020/01/31 05:48:30.1	91.780	0.190	-0.420	0.330
2020/01/31 05:48:30.2	91.780	0.220	-0.460	0.350
2020/01/31 05:48:30.3	91.780	0.230	-0.500	0.380
2020/01/31 05:48:30.4	91.770	0.250	-0.540	0.410
2020/01/31 05:48:30.5	91.760	0.270	-0.570	0.440
2020/01/31 05:48:30.6	91.750	0.280	-0.600	0.470
2020/01/31 05:48:30.7	91.740	0.290	-0.630	0.500
2020/01/31 05:48:30.8	91.720	0.300	-0.650	0.540
2020/01/31 05:48:30.9	91.710	0.300	-0.660	0.580
2020/01/31 05:48:31.0	91.690	0.310	-0.680	0.620
2020/01/31 05:48:31.1	91.670	0.310	-0.680	0.650
2020/01/31 05:48:31.2	91.640	0.300	-0.690	0.700
2020/01/31 05:48:31.3	91.620	0.300	-0.690	0.740
2020/01/31 05:48:31.4	91.600	0.290	-0.690	0.780
2020/01/31 05:48:31.5	91.580	0.280	-0.680	0.820
2020/01/31 05:48:31.6	91.560	0.260	-0.670	0.860
2020/01/31 05:48:31.7	91.530	0.250	-0.660	0.900
2020/01/31 05:48:31.8	91.510	0.230	-0.650	0.940
2020/01/31 05:48:31.9	91.490	0.210	-0.640	0.980
2020/01/31 05:48:32.0	91.470	0.200	-0.620	1.010
2020/01/31 05:48:32.1	91.440	0.180	-0.610	1.050
2020/01/31 05:48:32.2	91.420	0.160	-0.600	1.080
2020/01/31 05:48:32.3	91.400	0.130	-0.580	1.110
2020/01/31 05:48:32.4	91.380	0.110	-0.560	1.140
2020/01/31 05:48:32.5	91.360	0.100	-0.550	1.170
2020/01/31 05:48:32.6	91.340	0.080	-0.530	1.190
2020/01/31 05:48:32.7	91.320	0.060	-0.520	1.210
2020/01/31 05:48:32.8	91.300	0.040	-0.500	1.230
2020/01/31 05:48:32.9	91.290	0.030	-0.490	1.240
2020/01/31 05:48:33.0	91.270	0.020	-0.470	1.250
2020/01/31 05:48:33.1	91.260	0.010	-0.460	1.260
2020/01/31 05:48:33.2	91.250	0.000	-0.440	1.270
2020/01/31 05:48:33.3	91.240	-0.000	-0.430	1.270
2020/01/31 05:48:33.4	91.240	-0.000	-0.420	1.260
2020/01/31 05:48:33.5	91.230	-0.000	-0.410	1.260
2020/01/31 05:48:33.6	91.220	0.000	-0.400	1.250
2020/01/31 05:48:33.7	91.220	0.010	-0.400	1.240
2020/01/31 05:48:33.8	91.210	0.020	-0.390	1.230
2020/01/31 05:48:33.9	91.210	0.030	-0.380	1.220
2020/01/31 05:48:34.0	91.210	0.040	-0.370	1.200
2020/01/31 05:48:34.1	91.210	0.060	-0.350	1.190
2020/01/31 05:48:34.2	91.210	0.070	-0.340	1.170
2020/01/31 05:48:34.3	91.210	0.090	-0.330	1.160
2020/01/31 05:48:34.4	91.220	0.110	-0.310	1.140
2020/01/31 05:48:34.5	91.220	0.130	-0.300	1.120
2020/01/31 05:48:34.6	91.230	0.140	-0.280	1.100
2020/01/31 05:48:34.7	91.230	0.160	-0.260	1.090
2020/01/31 05:48:34.8	91.240	0.180	-0.230	1.070
2020/01/31 05:48:34.9	91.240	0.190	-0.210	1.050
2020/01/31 05:48:35.0	91.250	0.210	-0.180	1.030
2020/01/31 05:48:35.1	91.260	0.220	-0.160	1.010
2020/01/31 05:48:35.2	91.270	0.230	-0.130	0.990
2020/01/31 05:48:35.3	91.280	0.230	-0.110	0.970
2020/01/31 05:48:35.4	91.280	0.240	-0.080	0.950
2020/01/31 05:48:35.5	91.290	0.240	-0.050	0.940
2020/01/31 05:48:35.6	91.300	0.240	-0.020	0.920
2020/01/31 05:48:35.7	91.310	0.240	0.000	0.900
2020/01/31 05:48:35.8	91.310	0.230	0.030	0.890
2020/01/31 05:48:35.9	91.320	0.220	0.060	0.870
2020/01/31 05:48:36.0	91.330	0.210	0.080	0.860
2020/01/31 05:48:36.1	91.330	0.200	0.100	0.850
2020/01/31 05:48:36.2	91.330	0.180	0.130	0.840
2020/01/31 05:48:36.3	91.340	0.160	0.140	0.830
2020/01/31 05:48:36.4	91.340	0.140	0.160	0.820
2020/01/31 05:48:36.5	91.340	0.120	0.180	0.810
2020/01/31 05:48:36.6	91.350	0.100	0.190	0.810
2020/01/31 05:48:36.7	91.350	0.070	0.200	0.800
2020/01/31 05:48:36.8	91.350	0.050	0.200	0.790
2020/01/31 05:48:36.9	91.360	0.020	0.210	0.790
2020/01/31 05:48:37.0	91.360	-0.000	0.210	0.790
2020/01/31 05:48:37.1	91.360	-0.030	0.220	0.780
2020/01/31 05:48:37.2	91.360	-0.050	0.210	0.770
2020/01/31 05:48:37.3	91.360	-0.080	0.210	0.770
2020/01/31 05:48:37.4	91.360	-0.110	0.200	0.770
2020/01/31 05:48:37.5	91.370	-0.130	0.200	0.760
2020/01/31 05:48:37.6	91.370	-0.160	0.190	0.750
2020/01/31 05:48:37.7	91.370	-0.180	0.190	0.750
2020/01/31 05:48:37.8	91.370	-0.210	0.180	0.740
2020/01/31 05:48:37.9	91.380	-0.230	0.170	0.730
2020/01/31 05:48:38.0	91.380	-0.250	0.160	0.720
2020/01/31 05:48:38.1	91.390	-0.270	0.150	0.710
2020/01/31 05:48:38.2	91.390	-0.290	0.140	0.700
2020/01/31 05:48:38.3	91.400	-0.310	0.130	0.690
2020/01/31 05:48:38.4	91.410	-0.320	0.110	0.690
2020/01/31 05:48:38.5	91.410	-0.340	0.100	0.680
2020/01/31 05:48:38.6	91.420	-0.350	0.080	0.670
2020/01/31 05:48:38.7	91.420	-0.360	0.060	0.670
2020/01/31 05:48:38.8	91.430	-0.380	0.040	0.670
2020/01/31 05:48:38.9	91.430	-0.390	0.010	0.670
2020/01/31 05:48:39.0	91.440	-0.390	-0.010	0.680
2020/01/31 05:48:39.1	91.450	-0.400	-0.040	0.680
2020/01/31 05:48:39.2	91.450	-0.410	-0.070	0.690
2020/01/31 05:48:39.3	91.450	-0.410	-0.090	0.700
2020/01/31 05:48:39.4	91.460	-0.420	-0.120	0.720
2020/01/31 05:48:39.5	91.460	-0.420	-0.150	0.740
2020/01/31 05:48:39.6	91.470	-0.420	-0.180	0.760
2020/01/31 05:48:39.7	91.470	-0.420	-0.210	0.780
2020/01/31 05:48:39.8	91.480	-0.420	-0.240	0.810
2020/01/31 05:48:39.9	91.480	-0.420	-0.270	0.840
2020/01/31 05:48:40.0	91.480	-0.420	-0.300	0.870
2020/01/31 05:48:40.1	91.480	-0.420	-0.320	0.900
2020/01/31 05:48:40.2	91.480	-0.420	-0.350	0.930
2020/01/31 05:48:40.3	91.480	-0.410	-0.380	0.950
2020/01/31 05:48:40.4	91.480	-0.410	-0.400	0.980
2020/01/31 05:48:40.5	91.480	-0.410	-0.430	1.010
2020/01/31 05:48:40.6	91.470	-0.400	-0.450	1.040
2020/01/31 05:48:40.7	91.470	-0.390	-0.470	1.070
2020/01/31 05:48:40.8	91.460	-0.390	-0.490	1.090
2020/01/31 05:48:40.9	91.460	-0.380	-0.510	1.120
2020/01/31 05:48:41.0	91.450	-0.370	-0.530	1.140
2020/01/31 05:48:41.1	91.440	-0.360	-0.550	1.160
2020/01/31 05:48:41.2	91.440	-0.340	-0.560	1.180
2020/01/31 05:48:41.3	91.430	-0.330	-0.570	1.200
2020/01/31 05:48:41.4	91.420	-0.320	-0.580	1.220
2020/01/31 05:48:41.5	91.410	-0.300	-0.590	1.240
2020/01/31 05:48:41.6	91.400	-0.290	-0.600	1.260
2020/01/31 05:48:41.7	91.390	-0.270	-0.600	1.280
2020/01/31 05:48:41.8	91.380	-0.250	-0.600	1.300
2020/01/31 05:48:41.9	91.370	-0.240	-0.600	1.320
2020/01/31 05:48:42.0	91.350	-0.220	-0.590	1.340
2020/01/31 05:48:42.1	91.340	-0.200	-0.590	1.350
2020/01/31 05:48:42.2	91.330	-0.180	-0.580	1.370
2020/01/31 05:48:42.3	91.320	-0.170	-0.570	1.390
2020/01/31 05:48:42.4	91.310	-0.150	-0.560	1.400
2020/01/31 05:48:42.5	91.290	-0.130	-0.540	1.410
2020/01/31 05:48:42.6	91.280	-0.110	-0.530	1.420
2020/01/31 05:48:42.7	91.270	-0.100	-0.510	1.430
2020/01/31 05:48:42.8	91.260	-0.080	-0.490	1.440
2020/01/31 05:48:42.9	91.250	-0.070	-0.470	1.440
2020/01/31 05:48:43.0	91.250	-0.050	-0.450	1.440
2020/01/31 05:48:43.1	91.240	-0.040	-0.430	1.440
2020/01/31 05:48:43.2	91.230	-0.020	-0.410	1.430
2020/01/31 05:48:43.3	91.220	-0.010	-0.390	1.420
2020/01/31 05:48:43.4	91.210	0.010	-0.380	1.410
2020/01/31 05:48:43.5	91.210	0.020	-0.360	1.390
2020/01/31 05:48:43.6	91.200	0.030	-0.340	1.370
2020/01/31 05:48:43.7	91.190	0.040	-0.330	1.350
2020/01/31 05:48:43.8	91.190	0.060	-0.320	1.320
2020/01/31 05:48:43.9	91.180	0.070	-0.310	1.290
2020/01/31 05:48:44.0	91.180	0.080	-0.300	1.260
2020/01/31 05:48:44.1	91.180	0.090	-0.290	1.220
2020/01/31 05:48:44.2	91.170	0.110	-0.290	1.180
2020/01/31 05:48:44.3	91.160	0.120	-0.290	1.140
2020/01/31 05:48:44.4	91.160	0.130	-0.290	1.100
2020/01/31 05:48:44.5	91.160	0.150	-0.290	1.060
2020/01/31 05:48:44.6	91.160	0.170	-0.300	1.020
2020/01/31 05:48:44.7	91.150	0.180	-0.300	0.980
2020/01/31 05:48:44.8	91.150	0.200	-0.310	0.950
2020/01/31 05:48:44.9	91.150	0.220	-0.320	0.910
2020/01/31 05:48:45.0	91.150	0.240	-0.330	0.880
2020/01/31 05:48:45.1	91.150	0.260	-0.340	0.850
2020/01/31 05:48:45.2	91.140	0.280	-0.350	0.820
2020/01/31 05:48:45.3	91.140	0.310	-0.360	0.790
2020/01/31 05:48:45.4	91.140	0.330	-0.370	0.770
2020/01/31 05:48:45.5	91.130	0.350	-0.380	0.750
2020/01/31 05:48:45.6	91.130	0.380	-0.390	0.730
2020/01/31 05:48:45.7	91.120	0.400	-0.400	0.710
2020/01/31 05:48:45.8	91.110	0.420	-0.410	0.700
2020/01/31 05:48:45.9	91.110	0.450	-0.420	0.680
2020/01/31 05:48:46.0	91.100	0.470	-0.420	0.670
2020/01/31 05:48:46.1	91.090	0.490	-0.430	0.660
2020/01/31 05:48:46.2	91.080	0.510	-0.430	0.660
2020/01/31 05:48:46.3	91.070	0.530	-0.430	0.650
2020/01/31 05:48:46.4	91.060	0.550	-0.430	0.640
2020/01/31 05:48:46.5	91.050	0.560	-0.430	0.630
2020/01/31 05:48:46.6	91.050	0.570	-0.420	0.620
2020/01/31 05:48:46.7	91.040	0.580	-0.410	0.620
2020/01/31 05:48:46.8	91.030	0.590	-0.390	0.610
2020/01/31 05:48:46.9	91.020	0.590	-0.370	0.600
2020/01/31 05:48:47.0	91.010	0.600	-0.350	0.590
2020/01/31 05:48:47.1	91.010	0.590	-0.330	0.580
2020/01/31 05:48:47.2	91.000	0.590	-0.300	0.560
2020/01/31 05:48:47.3	90.990	0.580	-0.270	0.550
2020/01/31 05:48:47.4	90.990	0.570	-0.230	0.540
2020/01/31 05:48:47.5	90.990	0.550	-0.190	0.530
2020/01/31 05:48:47.6	90.980	0.530	-0.150	0.520
2020/01/31 05:48:47.7	90.980	0.500	-0.110	0.510
2020/01/31 05:48:47.8	90.980	0.480	-0.060	0.500
2020/01/31 05:48:47.9	90.990	0.450	-0.010	0.490
2020/01/31 05:48:48.0	90.990	0.410	0.040	0.490
2020/01/31 05:48:48.1	90.990	0.370	0.090	0.490
2020/01/31 05:48:48.2	91.010	0.340	0.140	0.490
2020/01/31 05:48:48.3	91.020	0.290	0.190	0.500
2020/01/31 05:48:48.4	91.030	0.250	0.250	0.500
2020/01/31 05:48:48.5	91.040	0.200	0.300	0.510
2020/01/31 05:48:48.6	91.050	0.160	0.350	0.520
2020/01/31 05:48:48.7	91.060	0.110	0.400	0.530
2020/01/31 05:48:48.8	91.070	0.060	0.450	0.550
2020/01/31 05:48:48.9	91.090	0.010	0.500	0.560
2020/01/31 05:48:49.0	91.110	-0.040	0.540	0.580
2020/01/31 05:48:49.1	91.120	-0.090	0.580	0.600
2020/01/31 05:48:49.2	91.140	-0.140	0.610	0.610
2020/01/31 05:48:49.3	91.160	-0.190	0.630	0.630
2020/01/31 05:48:49.4	91.170	-0.230	0.650	0.650
2020/01/31 05:48:49.5	91.190	-0.270	0.670	0.670
2020/01/31 05:48:49.6	91.210	-0.320	0.670	0.690
2020/01/31 05:48:49.7	91.230	-0.350	0.670	0.710
2020/01/31 05:48:49.8	91.250	-0.390	0.660	0.730
2020/01/31 05:48:49.9	91.260	-0.420	0.640	0.750
2020/01/31 05:48:50.0	91.280	-0.440	0.610	0.760
2020/01/31 05:48:50.1	91.290	-0.460	0.570	0.780
2020/01/31 05:48:50.2	91.300	-0.480	0.530	0.800
2020/01/31 05:48:50.3	91.310	-0.490	0.480	0.820
2020/01/31 05:48:50.4	91.320	-0.500	0.410	0.850
2020/01/31 05:48:50.5	91.330	-0.500	0.340	0.870
2020/01/31 05:48:50.6	91.330	-0.490	0.260	0.890
2020/01/31 05:48:50.7	91.330	-0.490	0.180	0.910
2020/01/31 05:48:50.8	91.340	-0.470	0.090	0.930
2020/01/31 05:48:50.9	91.340	-0.450	-0.010	0.950
2020/01/31 05:48:51.0	91.340	-0.430	-0.110	0.970
2020/01/31 05:48:51.1	91.340	-0.400	-0.210	1.000
2020/01/31 05:48:51.2	91.340	-0.370	-0.320	1.020
2020/01/31 05:48:51.3	91.340	-0.340	-0.420	1.040
2020/01/31 05:48:51.4	91.350	-0.300	-0.520	1.060
2020/01/31 05:48:51.5	91.350	-0.260	-0.630	1.080
2020/01/31 05:48:51.6	91.360	-0.220	-0.730	1.110
2020/01/31 05:48:51.7	91.360	-0.180	-0.820	1.130
2020/01/31 05:48:51.8	91.370	-0.130	-0.910	1.150
2020/01/31 05:48:51.9	91.380	-0.090	-1.000	1.180
2020/01/31 05:48:52.0	91.400	-0.040	-1.070	1.200
2020/01/31 05:48:52.1	91.410	-0.000	-1.140	1.220
2020/01/31 05:48:52.2	91.420	0.040	-1.200	1.250
2020/01/31 05:48:52.3	91.430	0.080	-1.250	1.280
2020/01/31 05:48:52.4	91.450	0.120	-1.290	1.310
2020/01/31 05:48:52.5	91.460	0.150	-1.320	1.330
2020/01/31 05:48:52.6	91.470	0.180	-1.340	1.360
2020/01/31 05:48:52.7	91.480	0.210	-1.340	1.390
2020/01/31 05:48:52.8	91.500	0.230	-1.340	1.420
2020/01/31 05:48:52.9	91.510	0.250	-1.320	1.440
2020/01/31 05:48:53.0	91.520	0.270	-1.290	1.470
2020/01/31 05:48:53.1	91.530	0.280	-1.250	1.490
2020/01/31 05:48:53.2	91.540	0.290	-1.200	1.510
2020/01/31 05:48:53.3	91.540	0.290	-1.140	1.530
2020/01/31 05:48:53.4	91.550	0.280	-1.070	1.540
2020/01/31 05:48:53.5	91.550	0.270	-0.990	1.560
2020/01/31 05:48:53.6	91.550	0.260	-0.900	1.560
2020/01/31 05:48:53.7	91.550	0.240	-0.810	1.570
2020/01/31 05:48:53.8	91.540	0.220	-0.710	1.570
2020/01/31 05:48:53.9	91.540	0.200	-0.610	1.570
2020/01/31 05:48:54.0	91.530	0.170	-0.500	1.570
2020/01/31 05:48:54.1	91.530	0.140	-0.390	1.560
2020/01/31 05:48:54.2	91.520	0.100	-0.280	1.540
2020/01/31 05:48:54.3	91.510	0.070	-0.170	1.520
2020/01/31 05:48:54.4	91.500	0.030	-0.070	1.500
2020/01/31 05:48:54.5	91.500	-0.010	0.040	1.480
2020/01/31 05:48:54.6	91.490	-0.060	0.140	1.450
2020/01/31 05:48:54.7	91.480	-0.100	0.230	1.420
2020/01/31 05:48:54.8	91.470	-0.150	0.330	1.390
2020/01/31 05:48:54.9	91.460	-0.190	0.410	1.360
2020/01/31 05:48:55.0	91.450	-0.240	0.490	1.330
2020/01/31 05:48:55.1	91.440	-0.280	0.570	1.290
2020/01/31 05:48:55.2	91.430	-0.320	0.630	1.260
2020/01/31 05:48:55.3	91.420	-0.370	0.690	1.230
2020/01/31 05:48:55.4	91.410	-0.410	0.740	1.190
2020/01/31 05:48:55.5	91.400	-0.450	0.780	1.160
2020/01/31 05:48:55.6	91.380	-0.490	0.810	1.130
2020/01/31 05:48:55.7	91.370	-0.520	0.830	1.100
2020/01/31 05:48:55.8	91.360	-0.560	0.840	1.070
2020/01/31 05:48:55.9	91.350	-0.590	0.850	1.040
2020/01/31 05:48:56.0	91.330	-0.610	0.840	1.010
2020/01/31 05:48:56.1	91.320	-0.640	0.830	0.990
2020/01/31 05:48:56.2	91.310	-0.660	0.810	0.960
2020/01/31 05:48:56.3	91.300	-0.670	0.770	0.930
2020/01/31 05:48:56.4	91.290	-0.690	0.730	0.910
2020/01/31 05:48:56.5	91.270	-0.690	0.680	0.890
2020/01/31 05:48:56.6	91.260	-0.700	0.620	0.860
2020/01/31 05:48:56.7	91.250	-0.700	0.560	0.840
2020/01/31 05:48:56.8	91.240	-0.690	0.490	0.810
2020/01/31 05:48:56.9	91.230	-0.680	0.410	0.790
2020/01/31 05:48:57.0	91.220	-0.670	0.320	0.760
2020/01/31 05:48:57.1	91.210	-0.650	0.230	0.730
2020/01/31 05:48:57.2	91.210	-0.620	0.120	0.690
2020/01/31 05:48:57.3	91.210	-0.590	0.020	0.650
2020/01/31 05:48:57.4	91.210	-0.560	-0.080	0.610
2020/01/31 05:48:57.5	91.210	-0.520	-0.190	0.570
2020/01/31 05:48:57.6	91.210	-0.480	-0.300	0.520
2020/01/31 05:48:57.7	91.220	-0.430	-0.410	0.470
2020/01/31 05:48:57.8	91.230	-0.380	-0.520	0.420
2020/01/31 05:48:57.9	91.250	-0.330	-0.630	0.370
2020/01/31 05:48:58.0	91.260	-0.280	-0.740	0.310
2020/01/31 05:48:58.1	91.280	-0.220	-0.840	0.260
2020/01/31 05:48:58.2	91.300	-0.160	-0.940	0.200
2020/01/31 05:48:58.3	91.320	-0.100	-1.030	0.150
2020/01/31 05:48:58.4	91.340	-0.030	-1.120	0.100
2020/01/31 05:48:58.5	91.370	0.030	-1.200	0.060
2020/01/31 05:48:58.6	91.390	0.100	-1.270	0.020
2020/01/31 05:48:58.7	91.410	0.160	-1.330	-0.020
2020/01/31 05:48:58.8	91.440	0.220	-1.380	-0.050
2020/01/31 05:48:58.9	91.460	0.280	-1.430	-0.070
2020/01/31 05:48:59.0	91.480	0.340	-1.460	-0.090
2020/01/31 05:48:59.1	91.500	0.400	-1.480	-0.110
2020/01/31 05:48:59.2	91.520	0.450	-1.490	-0.110
2020/01/31 05:48:59.3	91.530	0.500	-1.490	-0.110
2020/01/31 05:48:59.4	91.540	0.550	-1.480	-0.100
2020/01/31 05:48:59.5	91.550	0.590	-1.460	-0.080
2020/01/31 05:48:59.6	91.560	0.620	-1.420	-0.060
2020/01/31 05:48:59.7	91.560	0.660	-1.380	-0.040
2020/01/31 05:48:59.8	91.560	0.680	-1.320	-0.000
2020/01/31 05:48:59.9	91.550	0.700	-1.260	0.030
2020/01/31 05:49:00.0	91.550	0.710	-1.180	0.070
2020/01/31 05:49:00.1	91.540	0.720	-1.100	0.120
2020/01/31 05:49:00.2	91.530	0.720	-1.010	0.160
2020/01/31 05:49:00.3	91.520	0.720	-0.910	0.210
2020/01/31 05:49:00.4	91.500	0.700	-0.810	0.260
2020/01/31 05:49:00.5	91.480	0.690	-0.700	0.310
2020/01/31 05:49:00.6	91.460	0.660	-0.590	0.360
2020/01/31 05:49:00.7	91.440	0.630	-0.480	0.420
2020/01/31 05:49:00.8	91.420	0.600	-0.360	0.460
2020/01/31 05:49:00.9	91.400	0.560	-0.250	0.510
2020/01/31 05:49:01.0	91.370	0.520	-0.130	0.560
2020/01/31 05:49:01.1	91.350	0.470	-0.020	0.600
2020/01/31 05:49:01.2	91.320	0.420	0.100	0.640
2020/01/31 05:49:01.3	91.300	0.360	0.210	0.680
2020/01/31 05:49:01.4	91.270	0.310	0.310	0.710
2020/01/31 05:49:01.5	91.250	0.250	0.410	0.740
2020/01/31 05:49:01.6	91.220	0.190	0.510	0.770
2020/01/31 05:49:01.7	91.200	0.130	0.600	0.790
2020/01/31 05:49:01.8	91.180	0.070	0.680	0.810
2020/01/31 05:49:01.9	91.160	0.020	0.750	0.830
2020/01/31 05:49:02.0	91.140	-0.040	0.820	0.850
2020/01/31 05:49:02.1	91.130	-0.090	0.880	0.860
2020/01/31 05:49:02.2	91.110	-0.150	0.930	0.870
2020/01/31 05:49:02.3	91.100	-0.190	0.960	0.870
2020/01/31 05:49:02.4	91.090	-0.240	0.990	0.880
2020/01/31 05:49:02.5	91.080	-0.280	1.010	0.890
2020/01/31 05:49:02.6	91.070	-0.310	1.010	0.890
2020/01/31 05:49:02.7	91.060	-0.340	1.000	0.890
2020/01/31 05:49:02.8	91.060	-0.360	0.980	0.890
2020/01/31 05:49:02.9	91.050	-0.380	0.950	0.890
2020/01/31 05:49:03.0	91.050	-0.390	0.910	0.880
2020/01/31 05:49:03.1	91.050	-0.400	0.860	0.880
2020/01/31 05:49:03.2	91.050	-0.400	0.800	0.870
2020/01/31 05:49:03.3	91.050	-0.390	0.730	0.860
2020/01/31 05:49:03.4	91.060	-0.380	0.660	0.850
2020/01/31 05:49:03.5	91.070	-0.360	0.570	0.840
2020/01/31 05:49:03.6	91.080	-0.340	0.480	0.820
2020/01/31 05:49:03.7	91.090	-0.310	0.390	0.810
2020/01/31 05:49:03.8	91.100	-0.280	0.290	0.790
2020/01/31 05:49:03.9	91.110	-0.240	0.190	0.780
2020/01/31 05:49:04.0	91.130	-0.210	0.090	0.760
2020/01/31 05:49:04.1	91.140	-0.170	-0.020	0.740
2020/01/31 05:49:04.2	91.160	-0.120	-0.130	0.730
2020/01/31 05:49:04.3	91.180	-0.080	-0.230	0.710
2020/01/31 05:49:04.4	91.190	-0.030	-0.330	0.690
2020/01/31 05:49:04.5	91.210	0.010	-0.430	0.680
2020/01/31 05:49:04.6	91.220	0.060	-0.530	0.670
2020/01/31 05:49:04.7	91.230	0.110	-0.620	0.660
2020/01/31 05:49:04.8	91.240	0.150	-0.700	0.650
2020/01/31 05:49:04.9	91.250	0.190	-0.780	0.650
2020/01/31 05:49:05.0	91.260	0.230	-0.850	0.640
2020/01/31 05:49:05.1	91.260	0.270	-0.910	0.640
2020/01/31 05:49:05.2	91.260	0.300	-0.970	0.640
2020/01/31 05:49:05.3	91.260	0.330	-1.020	0.650
2020/01/31 05:49:05.4	91.260	0.360	-1.050	0.660
2020/01/31 05:49:05.5	91.260	0.380	-1.080	0.660
2020/01/31 05:49:05.6	91.260	0.400	-1.100	0.680
2020/01/31 05:49:05.7	91.260	0.420	-1.100	0.690
2020/01/31 05:49:05.8	91.250	0.430	-1.100	0.710
2020/01/31 05:49:05.9	91.250	0.430	-1.090	0.730
2020/01/31 05:49:06.0	91.240	0.430	-1.070	0.750
2020/01/31 05:49:06.1	91.240	0.430	-1.050	0.770
2020/01/31 05:49:06.2	91.230	0.420	-1.010	0.790
2020/01/31 05:49:06.3	91.230	0.410	-0.960	0.820
2020/01/31 05:49:06.4	91.220	0.390	-0.910	0.850
2020/01/31 05:49:06.5	91.220	0.370	-0.860	0.880
2020/01/31 05:49:06.6	91.210	0.350	-0.790	0.910
2020/01/31 05:49:06.7	91.210	0.330	-0.730	0.950
2020/01/31 05:49:06.8	91.200	0.300	-0.660	0.980
2020/01/31 05:49:06.9	91.200	0.270	-0.580	1.020
2020/01/31 05:49:07.0	91.190	0.240	-0.510	1.050
2020/01/31 05:49:07.1	91.190	0.210	-0.430	1.090
2020/01/31 05:49:07.2	91.190	0.170	-0.360	1.120
2020/01/31 05:49:07.3	91.180	0.140	-0.280	1.160
2020/01/31 05:49:07.4	91.180	0.110	-0.210	1.190
2020/01/31 05:49:07.5	91.170	0.070	-0.140	1.220
2020/01/31 05:49:07.6	91.170	0.040	-0.070	1.250
2020/01/31 05:49:07.7	91.160	0.010	-0.010	1.270
2020/01/31 05:49:07.8	91.160	-0.020	0.050	1.300
2020/01/31 05:49:07.9	91.160	-0.050	0.110	1.320
2020/01/31 05:49:08.0	91.160	-0.080	0.160	1.340
2020/01/31 05:49:08.1	91.160	-0.110	0.200	1.350
2020/01/31 05:49:08.2	91.150	-0.130	0.240	1.360
2020/01/31 05:49:08.3	91.150	-0.160	0.280	1.370
2020/01/31 05:49:08.4	91.150	-0.180	0.310	1.370
2020/01/31 05:49:08.5	91.160	-0.200	0.340	1.380
2020/01/31 05:49:08.6	91.160	-0.230	0.360	1.380
2020/01/31 05:49:08.7	91.170	-0.250	0.380	1.370
2020/01/31 05:49:08.8	91.170	-0.270	0.400	1.370
2020/01/31 05:49:08.9	91.180	-0.290	0.400	1.370
2020/01/31 05:49:09.0	91.180	-0.300	0.410	1.360
2020/01/31 05:49:09.1	91.190	-0.320	0.410	1.350
2020/01/31 05:49:09.2	91.200	-0.340	0.410	1.350
2020/01/31 05:49:09.3	91.210	-0.360	0.400	1.340
2020/01/31 05:49:09.4	91.220	-0.370	0.390	1.330
2020/01/31 05:49:09.5	91.220	-0.390	0.370	1.320
2020/01/31 05:49:09.6	91.230	-0.400	0.350	1.300
2020/01/31 05:49:09.7	91.240	-0.420	0.330	1.290
2020/01/31 05:49:09.8	91.240	-0.430	0.300	1.280
2020/01/31 05:49:09.9	91.250	-0.440	0.270	1.260
2020/01/31 05:49:10.0	91.250	-0.460	0.230	1.240
2020/01/31 05:49:10.1	91.260	-0.470	0.200	1.220
2020/01/31 05:49:10.2	91.260	-0.480	0.150	1.200
2020/01/31 05:49:10.3	91.260	-0.480	0.110	1.180
2020/01/31 05:49:10.4	91.270	-0.490	0.070	1.160
2020/01/31 05:49:10.5	91.270	-0.490	0.020	1.140
2020/01/31 05:49:10.6	91.270	-0.500	-0.020	1.120
2020/01/31 05:49:10.7	91.280	-0.500	-0.070	1.090
2020/01/31 05:49:10.8	91.280	-0.500	-0.120	1.070
2020/01/31 05:49:10.9	91.280	-0.490	-0.170	1.050
2020/01/31 05:49:11.0	91.280	-0.480	-0.220	1.030
2020/01/31 05:49:11.1	91.290	-0.480	-0.260	1.010
2020/01/31 05:49:11.2	91.290	-0.460	-0.310	0.980
2020/01/31 05:49:11.3	91.290	-0.450	-0.350	0.960
2020/01/31 05:49:11.4	91.290	-0.440	-0.390	0.940
2020/01/31 05:49:11.5	91.300	-0.420	-0.430	0.920
2020/01/31 05:49:11.6	91.300	-0.400	-0.470	0.900
2020/01/31 05:49:11.7	91.300	-0.380	-0.500	0.890
2020/01/31 05:49:11.8	91.300	-0.350	-0.530	0.870
2020/01/31 05:49:11.9	91.300	-0.330	-0.550	0.850
2020/01/31 05:49:12.0	91.300	-0.310	-0.570	0.840
2020/01/31 05:49:12.1	91.290	-0.280	-0.590	0.830
2020/01/31 05:49:12.2	91.290	-0.250	-0.610	0.820
2020/01/31 05:49:12.3	91.280	-0.230	-0.620	0.810
2020/01/31 05:49:12.4	91.280	-0.200	-0.620	0.800
2020/01/31 05:49:12.5	91.270	-0.170	-0.630	0.790
2020/01/31 05:49:12.6	91.260	-0.140	-0.630	0.790
2020/01/31 05:49:12.7	91.250	-0.110	-0.620	0.780
2020/01/31 05:49:12.8	91.240	-0.080	-0.620	0.780
2020/01/31 05:49:12.9	91.230	-0.050	-0.620	0.780
2020/01/31 05:49:13.0	91.220	-0.020	-0.610	0.780
2020/01/31 05:49:13.1	91.210	0.010	-0.600	0.770
2020/01/31 05:49:13.2	91.200	0.030	-0.590	0.780
2020/01/31 05:49:13.3	91.190	0.060	-0.580	0.770
2020/01/31 05:49:13.4	91.170	0.090	-0.570	0.780
2020/01/31 05:49:13.5	91.160	0.120	-0.560	0.780
2020/01/31 05:49:13.6	91.150	0.140	-0.550	0.780
2020/01/31 05:49:13.7	91.130	0.160	-0.540	0.780
2020/01/31 05:49:13.8	91.120	0.190	-0.530	0.780
2020/01/31 05:49:13.9	91.100	0.210	-0.520	0.780
2020/01/31 05:49:14.0	91.090	0.230	-0.510	0.770
2020/01/31 05:49:14.1	91.070	0.240	-0.500	0.770
2020/01/31 05:49:14.2	91.060	0.260	-0.500	0.760
2020/01/31 05:49:14.3	91.050	0.270	-0.490	0.760
2020/01/31 05:49:14.4	91.040	0.290	-0.480	0.750
2020/01/31 05:49:14.5	91.030	0.300	-0.470	0.740
2020/01/31 05:49:14.6	91.020	0.310	-0.460	0.730
2020/01/31 05:49:14.7	91.010	0.320	-0.440	0.720
2020/01/31 05:49:14.8	91.000	0.320	-0.430	0.700
2020/01/31 05:49:14.9	91.000	0.330	-0.420	0.680
2020/01/31 05:49:15.0	91.000	0.330	-0.410	0.660
2020/01/31 05:49:15.1	90.990	0.340	-0.400	0.640
2020/01/31 05:49:15.2	90.990	0.340	-0.380	0.620
2020/01/31 05:49:15.3	91.000	0.340	-0.370	0.600
2020/01/31 05:49:15.4	91.000	0.340	-0.360	0.580
2020/01/31 05:49:15.5	91.010	0.340	-0.340	0.550
2020/01/31 05:49:15.6	91.010	0.340	-0.330	0.530
2020/01/31 05:49:15.7	91.020	0.340	-0.320	0.510
2020/01/31 05:49:15.8	91.030	0.340	-0.300	0.490
2020/01/31 05:49:15.9	91.040	0.340	-0.290	0.460
2020/01/31 05:49:16.0	91.050	0.340	-0.270	0.440
2020/01/31 05:49:16.1	91.070	0.340	-0.260	0.420
2020/01/31 05:49:16.2	91.080	0.340	-0.250	0.410
2020/01/31 05:49:16.3	91.100	0.350	-0.240	0.390
2020/01/31 05:49:16.4	91.110	0.350	-0.230	0.380
2020/01/31 05:49:16.5	91.130	0.350	-0.220	0.370
2020/01/31 05:49:16.6	91.150	0.350	-0.210	0.360
2020/01/31 05:49:16.7	91.160	0.350	-0.200	0.350
2020/01/31 05:49:16.8	91.180	0.350	-0.190	0.350
2020/01/31 05:49:16.9	91.200	0.350	-0.180	0.350
2020/01/31 05:49:17.0	91.210	0.350	-0.170	0.350
2020/01/31 05:49:17.1	91.230	0.350	-0.170	0.350
2020/01/31 05:49:17.2	91.250	0.350	-0.160	0.350
2020/01/31 05:49:17.3	91.260	0.340	-0.150	0.360
2020/01/31 05:49:17.4	91.280	0.340	-0.140	0.370
2020/01/31 05:49:17.5	91.300	0.340	-0.140	0.380
2020/01/31 05:49:17.6	91.310	0.330	-0.130	0.390
2020/01/31 05:49:17.7	91.330	0.320	-0.120	0.410
2020/01/31 05:49:17.8	91.340	0.310	-0.110	0.420
2020/01/31 05:49:17.9	91.360	0.300	-0.110	0.440
2020/01/31 05:49:18.0	91.370	0.290	-0.100	0.460
2020/01/31 05:49:18.1	91.380	0.280	-0.090	0.480
2020/01/31 05:49:18.2	91.390	0.260	-0.080	0.500
2020/01/31 05:49:18.3	91.400	0.250	-0.060	0.520
2020/01/31 05:49:18.4	91.410	0.230	-0.050	0.550
2020/01/31 05:49:18.5	91.420	0.210	-0.040	0.570
2020/01/31 05:49:18.6	91.420	0.190	-0.020	0.600
2020/01/31 05:49:18.7	91.430	0.170	-0.010	0.620
2020/01/31 05:49:18.8	91.430	0.150	0.010	0.650
2020/01/31 05:49:18.9	91.430	0.130	0.020	0.680
2020/01/31 05:49:19.0	91.440	0.100	0.040	0.700
2020/01/31 05:49:19.1	91.440	0.080	0.060	0.730
2020/01/31 05:49:19.2	91.440	0.060	0.070	0.760
2020/01/31 05:49:19.3	91.440	0.030	0.090	0.790
2020/01/31 05:49:19.4	91.440	0.010	0.110	0.820
2020/01/31 05:49:19.5	91.440	-0.020	0.130	0.850
2020/01/31 05:49:19.6	91.440	-0.040	0.150	0.880
2020/01/31 05:49:19.7	91.440	-0.060	0.170	0.910
2020/01/31 05:49:19.8	91.430	-0.080	0.190	0.940
2020/01/31 05:49:19.9	91.430	-0.100	0.200	0.970
2020/01/31 05:49:20.0	91.440	-0.120	0.220	1.000
2020/01/31 05:49:20.1	91.440	-0.140	0.230	1.030
2020/01/31 05:49:20.2	91.430	-0.150	0.240	1.070
2020/01/31 05:49:20.3	91.440	-0.170	0.250	1.090
2020/01/31 05:49:20.4	91.440	-0.180	0.250	1.120
2020/01/31 05:49:20.5	91.440	-0.190	0.250	1.150
2020/01/31 05:49:20.6	91.450	-0.200	0.250	1.170
2020/01/31 05:49:20.7	91.450	-0.200	0.240	1.200
2020/01/31 05:49:20.8	91.460	-0.200	0.230	1.220
2020/01/31 05:49:20.9	91.460	-0.200	0.210	1.240
2020/01/31 05:49:21.0	91.460	-0.200	0.190	1.250
2020/01/31 05:49:21.1	91.470	-0.190	0.160	1.270
2020/01/31 05:49:21.2	91.480	-0.180	0.120	1.280
2020/01/31 05:49:21.3	91.480	-0.170	0.090	1.300
2020/01/31 05:49:21.4	91.480	-0.160	0.040	1.310
2020/01/31 05:49:21.5	91.480	-0.140	-0.000	1.310
2020/01/31 05:49:21.6	91.480	-0.120	-0.050	1.320
2020/01/31 05:49:21.7	91.470	-0.100	-0.100	1.320
2020/01/31 05:49:21.8	91.470	-0.080	-0.150	1.320
2020/01/31 05:49:21.9	91.460	-0.060	-0.210	1.320
2020/01/31 05:49:22.0	91.460	-0.040	-0.270	1.310
2020/01/31 05:49:22.1	91.450	-0.010	-0.320	1.300
2020/01/31 05:49:22.2	91.440	0.010	-0.380	1.290
2020/01/31 05:49:22.3	91.430	0.030	-0.440	1.280
2020/01/31 05:49:22.4	91.420	0.060	-0.500	1.260
2020/01/31 05:49:22.5	91.410	0.080	-0.550	1.250
2020/01/31 05:49:22.6	91.400	0.100	-0.600	1.230
2020/01/31 05:49:22.7	91.400	0.120	-0.650	1.220
2020/01/31 05:49:22.8	91.390	0.140	-0.690	1.200
2020/01/31 05:49:22.9	91.390	0.150	-0.730	1.190
2020/01/31 05:49:23.0	91.380	0.170	-0.760	1.170
2020/01/31 05:49:23.1	91.380	0.180	-0.790	1.150
2020/01/31 05:49:23.2	91.380	0.180	-0.810	1.140
2020/01/31 05:49:23.3	91.390	0.190	-0.830	1.120
2020/01/31 05:49:23.4	91.390	0.190	-0.840	1.110
2020/01/31 05:49:23.5	91.400	0.190	-0.850	1.100
2020/01/31 05:49:23.6	91.410	0.190	-0.840	1.080
2020/01/31 05:49:23.7	91.430	0.180	-0.840	1.070
2020/01/31 05:49:23.8	91.440	0.170	-0.820	1.060
2020/01/31 05:49:23.9	91.460	0.160	-0.810	1.050
2020/01/31 05:49:24.0	91.480	0.150	-0.780	1.050
2020/01/31 05:49:24.1	91.500	0.130	-0.750	1.040
2020/01/31 05:49:24.2	91.520	0.110	-0.720	1.030
2020/01/31 05:49:24.3	91.540	0.080	-0.680	1.020
2020/01/31 05:49:24.4	91.570	0.050	-0.630	1.020
2020/01/31 05:49:24.5	91.590	0.020	-0.580	1.020
2020/01/31 05:49:24.6	91.610	-0.010	-0.530	1.010
2020/01/31 05:49:24.7	91.630	-0.040	-0.480	1.010
2020/01/31 05:49:24.8	91.650	-0.080	-0.420	1.000
2020/01/31 05:49:24.9	91.670	-0.120	-0.360	1.000
2020/01/31 05:49:25.0	91.690	-0.160	-0.300	0.990
2020/01/31 05:49:25.1	91.700	-0.200	-0.240	0.990
2020/01/31 05:49:25.2	91.710	-0.240	-0.180	0.980
2020/01/31 05:49:25.3	91.720	-0.280	-0.120	0.980
2020/01/31 05:49:25.4	91.730	-0.320	-0.060	0.970
2020/01/31 05:49:25.5	91.740	-0.360	-0.010	0.960
2020/01/31 05:49:25.6	91.740	-0.400	0.050	0.950
2020/01/31 05:49:25.7	91.740	-0.440	0.100	0.930
2020/01/31 05:49:25.8	91.740	-0.480	0.150	0.920
2020/01/31 05:49:25.9	91.740	-0.520	0.190	0.910
2020/01/31 05:49:26.0	91.740	-0.550	0.230	0.890
2020/01/31 05:49:26.1	91.730	-0.580	0.270	0.880
2020/01/31 05:49:26.2	91.730	-0.610	0.300	0.860
2020/01/31 05:49:26.3	91.720	-0.640	0.330	0.850
2020/01/31 05:49:26.4	91.710	-0.660	0.350	0.840
2020/01/31 05:49:26.5	91.700	-0.680	0.360	0.830
2020/01/31 05:49:26.6	91.680	-0.690	0.380	0.820
2020/01/31 05:49:26.7	91.670	-0.710	0.380	0.810
2020/01/31 05:49:26.8	91.660	-0.710	0.380	0.800
2020/01/31 05:49:26.9	91.640	-0.720	0.380	0.790
2020/01/31 05:49:27.0	91.630	-0.720	0.370	0.790
2020/01/31 05:49:27.1	91.620	-0.710	0.350	0.780
2020/01/31 05:49:27.2	91.600	-0.710	0.330	0.780
2020/01/31 05:49:27.3	91.580	-0.690	0.300	0.780
2020/01/31 05:49:27.4	91.570	-0.680	0.270	0.780
2020/01/31 05:49:27.5	91.550	-0.660	0.240	0.780
2020/01/31 05:49:27.6	91.540	-0.630	0.200	0.780
2020/01/31 05:49:27.7	91.520	-0.610	0.150	0.780
2020/01/31 05:49:27.8	91.510	-0.570	0.100	0.780
2020/01/31 05:49:27.9	91.500	-0.540	0.050	0.780
2020/01/31 05:49:28.0	91.490	-0.500	-0.010	0.780
2020/01/31 05:49:28.1	91.470	-0.460	-0.070	0.780
2020/01/31 05:49:28.2	91.460	-0.410	-0.130	0.780
2020/01/31 05:49:28.3	91.450	-0.360	-0.200	0.770
2020/01/31 05:49:28.4	91.450	-0.310	-0.260	0.760
2020/01/31 05:49:28.5	91.440	-0.260	-0.330	0.750
2020/01/31 05:49:28.6	91.440	-0.200	-0.400	0.740
2020/01/31 05:49:28.7	91.440	-0.150	-0.470	0.720
2020/01/31 05:49:28.8	91.440	-0.090	-0.540	0.700
2020/01/31 05:49:28.9	91.450	-0.030	-0.610	0.680
2020/01/31 05:49:29.0	91.450	0.030	-0.670	0.660
2020/01/31 05:49:29.1	91.460	0.090	-0.740	0.630
2020/01/31 05:49:29.2	91.470	0.160	-0.810	0.600
2020/01/31 05:49:29.3	91.490	0.220	-0.860	0.570
2020/01/31 05:49:29.4	91.500	0.280	-0.920	0.540
2020/01/31 05:49:29.5	91.520	0.340	-0.970	0.510
2020/01/31 05:49:29.6	91.530	0.400	-1.010	0.480
2020/01/31 05:49:29.7	91.550	0.450	-1.050	0.450
2020/01/31 05:49:29.8	91.570	0.510	-1.080	0.420
2020/01/31 05:49:29.9	91.590	0.560	-1.110	0.400
2020/01/31 05:49:30.0	91.610	0.600	-1.130	0.380
2020/01/31 05:49:30.1	91.630	0.650	-1.140	0.360
2020/01/31 05:49:30.2	91.650	0.690	-1.140	0.340
2020/01/31 05:49:30.3	91.660	0.730	-1.130	0.330
2020/01/31 05:49:30.4	91.680	0.760	-1.120	0.320
2020/01/31 05:49:30.5	91.700	0.790	-1.100	0.310
2020/01/31 05:49:30.6	91.710	0.810	-1.080	0.310
2020/01/31 05:49:30.7	91.720	0.830	-1.040	0.310
2020/01/31 05:49:30.8	91.730	0.850	-1.000	0.310
2020/01/31 05:49:30.9	91.740	0.850	-0.950	0.320
2020/01/31 05:49:31.0	91.740	0.860	-0.900	0.330
2020/01/31 05:49:31.1	91.740	0.860	-0.830	0.340
2020/01/31 05:49:31.2	91.740	0.850	-0.770	0.350
2020/01/31 05:49:31.3	91.740	0.840	-0.690	0.370
2020/01/31 05:49:31.4	91.730	0.820	-0.610	0.390
2020/01/31 05:49:31.5	91.720	0.800	-0.530	0.410
2020/01/31 05:49:31.6	91.710	0.780	-0.440	0.440
2020/01/31 05:49:31.7	91.700	0.750	-0.350	0.460
2020/01/31 05:49:31.8	91.680	0.710	-0.250	0.480
2020/01/31 05:49:31.9	91.660	0.670	-0.150	0.510
2020/01/31 05:49:32.0	91.640	0.630	-0.060	0.530
2020/01/31 05:49:32.1	91.610	0.580	0.040	0.560
2020/01/31 05:49:32.2	91.580	0.530	0.140	0.590
2020/01/31 05:49:32.3	91.560	0.470	0.240	0.610
2020/01/31 05:49:32.4	91.520	0.420	0.330	0.640
2020/01/31 05:49:32.5	91.490	0.360	0.420	0.660
2020/01/31 05:49:32.6	91.460	0.300	0.510	0.690
2020/01/31 05:49:32.7	91.430	0.240	0.590	0.710
2020/01/31 05:49:32.8	91.400	0.170	0.670	0.740
2020/01/31 05:49:32.9	91.360	0.110	0.740	0.760
2020/01/31 05:49:33.0	91.340	0.050	0.800	0.790
2020/01/31 05:49:33.1	91.310	-0.010	0.860	0.810
2020/01/31 05:49:33.2	91.280	-0.070	0.910	0.820
2020/01/31 05:49:33.3	91.260	-0.130	0.940	0.840
2020/01/31 05:49:33.4	91.240	-0.180	0.970	0.860
2020/01/31 05:49:33.5	91.230	-0.230	0.990	0.880
2020/01/31 05:49:33.6	91.210	-0.280	1.000	0.890
2020/01/31 05:49:33.7	91.200	-0.320	1.000	0.900
2020/01/31 05:49:33.8	91.200	-0.360	0.980	0.910
2020/01/31 05:49:33.9	91.200	-0.400	0.960	0.910
2020/01/31 05:49:34.0	91.210	-0.430	0.930	0.910
2020/01/31 05:49:34.1	91.220	-0.450	0.880	0.910
2020/01/31 05:49:34.2	91.240	-0.470	0.820	0.900
2020/01/31 05:49:34.3	91.250	-0.490	0.760	0.890
2020/01/31 05:49:34.4	91.280	-0.500	0.690	0.880
2020/01/31 05:49:34.5	91.300	-0.500	0.610	0.860
2020/01/31 05:49:34.6	91.330	-0.500	0.520	0.840
2020/01/31 05:49:34.7	91.350	-0.500	0.430	0.820
2020/01/31 05:49:34.8	91.380	-0.490	0.340	0.800
2020/01/31 05:49:34.9	91.410	-0.480	0.240	0.780
2020/01/31 05:49:35.0	91.440	-0.460	0.140	0.760
2020/01/31 05:49:35.1	91.470	-0.440	0.030	0.740
2020/01/31 05:49:35.2	91.500	-0.410	-0.070	0.720
2020/01/31 05:49:35.3	91.520	-0.390	-0.170	0.700
2020/01/31 05:49:35.4	91.550	-0.360	-0.270	0.690
2020/01/31 05:49:35.5	91.570	-0.330	-0.370	0.680
2020/01/31 05:49:35.6	91.590	-0.290	-0.460	0.670
2020/01/31 05:49:35.7	91.610	-0.260	-0.550	0.660
2020/01/31 05:49:35.8	91.620	-0.230	-0.640	0.650
2020/01/31 05:49:35.9	91.640	-0.190	-0.710	0.650
2020/01/31 05:49:36.0	91.650	-0.160	-0.780	0.660
2020/01/31 05:49:36.1	91.660	-0.120	-0.850	0.660
2020/01/31 05:49:36.2	91.660	-0.090	-0.910	0.680
2020/01/31 05:49:36.3	91.670	-0.050	-0.960	0.690
2020/01/31 05:49:36.4	91.670	-0.020	-1.000	0.710
2020/01/31 05:49:36.5	91.670	0.010	-1.040	0.740
2020/01/31 05:49:36.6	91.670	0.040	-1.070	0.770
2020/01/31 05:49:36.7	91.670	0.070	-1.090	0.800
2020/01/31 05:49:36.8	91.670	0.090	-1.100	0.840
2020/01/31 05:49:36.9	91.670	0.120	-1.110	0.880
2020/01/31 05:49:37.0	91.670	0.140	-1.100	0.930
2020/01/31 05:49:37.1	91.660	0.160	-1.100	0.980
2020/01/31 05:49:37.2	91.660	0.170	-1.080	1.030
2020/01/31 05:49:37.3	91.650	0.180	-1.070	1.080
2020/01/31 05:49:37.4	91.650	0.190	-1.040	1.130
2020/01/31 05:49:37.5	91.650	0.200	-1.010	1.180
2020/01/31 05:49:37.6	91.640	0.200	-0.980	1.230
2020/01/31 05:49:37.7	91.640	0.210	-0.940	1.280
2020/01/31 05:49:37.8	91.640	0.210	-0.900	1.330
2020/01/31 05:49:37.9	91.640	0.200	-0.850	1.370
2020/01/31 05:49:38.0	91.630	0.200	-0.800	1.410
2020/01/31 05:49:38.1	91.630	0.190	-0.750	1.450
2020/01/31 05:49:38.2	91.630	0.180	-0.700	1.480
2020/01/31 05:49:38.3	91.630	0.170	-0.650	1.510
2020/01/31 05:49:38.4	91.630	0.150	-0.600	1.530
2020/01/31 05:49:38.5	91.630	0.140	-0.550	1.550
2020/01/31 05:49:38.6	91.630	0.120	-0.500	1.560
2020/01/31 05:49:38.7	91.630	0.110	-0.450	1.560
2020/01/31 05:49:38.8	91.630	0.090	-0.400	1.560
2020/01/31 05:49:38.9	91.630	0.070	-0.350	1.550
2020/01/31 05:49:39.0	91.630	0.060	-0.310	1.540
2020/01/31 05:49:39.1	91.630	0.040	-0.260	1.530
2020/01/31 05:49:39.2	91.630	0.020	-0.220	1.500
2020/01/31 05:49:39.3	91.630	0.000	-0.180	1.480
2020/01/31 05:49:39.4	91.620	-0.010	-0.140	1.460
2020/01/31 05:49:39.5	91.620	-0.030	-0.110	1.430
2020/01/31 05:49:39.6	91.610	-0.050	-0.070	1.400
2020/01/31 05:49:39.7	91.610	-0.060	-0.040	1.360
2020/01/31 05:49:39.8	91.600	-0.070	-0.010	1.330
2020/01/31 05:49:39.9	91.580	-0.090	0.020	1.300
2020/01/31 05:49:40.0	91.570	-0.100	0.040	1.270
2020/01/31 05:49:40.1	91.550	-0.100	0.070	1.240
2020/01/31 05:49:40.2	91.540	-0.110	0.090	1.200
2020/01/31 05:49:40.3	91.520	-0.120	0.110	1.170
2020/01/31 05:49:40.4	91.500	-0.120	0.130	1.140
2020/01/31 05:49:40.5	91.480	-0.130	0.150	1.110
2020/01/31 05:49:40.6	91.460	-0.130	0.170	1.080
2020/01/31 05:49:40.7	91.440	-0.130	0.180	1.050
2020/01/31 05:49:40.8	91.420	-0.130	0.200	1.010
2020/01/31 05:49:40.9	91.400	-0.130	0.210	0.980
2020/01/31 05:49:41.0	91.380	-0.130	0.230	0.950
2020/01/31 05:49:41.1	91.360	-0.130	0.240	0.910
2020/01/31 05:49:41.2	91.350	-0.130	0.250	0.880
2020/01/31 05:49:41.3	91.330	-0.120	0.260	0.850
2020/01/31 05:49:41.4	91.320	-0.120	0.260	0.820
2020/01/31 05:49:41.5	91.300	-0.120	0.260	0.780
2020/01/31 05:49:41.6	91.290	-0.120	0.260	0.750
2020/01/31 05:49:41.7	91.280	-0.110	0.260	0.720
2020/01/31 05:49:41.8	91.260	-0.110	0.250	0.690
2020/01/31 05:49:41.9	91.250	-0.100	0.230	0.650
2020/01/31 05:49:42.0	91.240	-0.100	0.220	0.620
2020/01/31 05:49:42.1	91.240	-0.090	0.190	0.590
2020/01/31 05:49:42.2	91.230	-0.090	0.170	0.560
2020/01/31 05:49:42.3	91.220	-0.080	0.140	0.530
2020/01/31 05:49:42.4	91.220	-0.070	0.100	0.500
2020/01/31 05:49:42.5	91.220	-0.060	0.060	0.470
2020/01/31 05:49:42.6	91.220	-0.050	0.020	0.450
2020/01/31 05:49:42.7	91.220	-0.040	-0.030	0.420
2020/01/31 05:49:42.8	91.220	-0.030	-0.090	0.390
2020/01/31 05:49:42.9	91.230	-0.020	-0.140	0.360
2020/01/31 05:49:43.0	91.240	-0.000	-0.200	0.330
2020/01/31 05:49:43.1	91.240	0.010	-0.260	0.300
2020/01/31 05:49:43.2	91.250	0.030	-0.330	0.270
2020/01/31 05:49:43.3	91.260	0.050	-0.400	0.250
2020/01/31 05:49:43.4	91.270	0.070	-0.460	0.230
2020/01/31 05:49:43.5	91.280	0.090	-0.520	0.210
2020/01/31 05:49:43.6	91.300	0.110	-0.590	0.190
2020/01/31 05:49:43.7	91.310	0.130	-0.650	0.170
2020/01/31 05:49:43.8	91.320	0.150	-0.700	0.160
2020/01/31 05:49:43.9	91.340	0.180	-0.750	0.150
2020/01/31 05:49:44.0	91.360	0.200	-0.800	0.140
2020/01/31 05:49:44.1	91.380	0.220	-0.830	0.140
2020/01/31 05:49:44.2	91.380	0.240	-0.870	0.140
2020/01/31 05:49:44.3	91.400	0.260	-0.900	0.140
2020/01/31 05:49:44.4	91.420	0.280	-0.920	0.140
2020/01/31 05:49:44.5	91.440	0.300	-0.920	0.150
2020/01/31 05:49:44.6	91.470	0.310	-0.930	0.160
2020/01/31 05:49:44.7	91.490	0.330	-0.920	0.180
2020/01/31 05:49:44.8	91.510	0.340	-0.910	0.200
2020/01/31 05:49:44.9	91.540	0.350	-0.880	0.230
2020/01/31 05:49:45.0	91.560	0.360	-0.860	0.260
2020/01/31 05:49:45.1	91.590	0.360	-0.820	0.290
2020/01/31 05:49:45.2	91.610	0.360	-0.780	0.330
2020/01/31 05:49:45.3	91.640	0.360	-0.730	0.370
2020/01/31 05:49:45.4	91.670	0.360	-0.680	0.410
2020/01/31 05:49:45.5	91.690	0.350	-0.630	0.450
2020/01/31 05:49:45.6	91.720	0.340	-0.570	0.500
2020/01/31 05:49:45.7	91.750	0.330	-0.510	0.550
2020/01/31 05:49:45.8	91.780	0.310	-0.450	0.600
2020/01/31 05:49:45.9	91.810	0.290	-0.380	0.650
2020/01/31 05:49:46.0	91.830	0.270	-0.310	0.700
2020/01/31 05:49:46.1	91.860	0.240	-0.240	0.750
2020/01/31 05:49:46.2	91.880	0.220	-0.180	0.800
2020/01/31 05:49:46.3	91.900	0.180	-0.110	0.850
2020/01/31 05:49:46.4	91.930	0.150	-0.040	0.890
2020/01/31 05:49:46.5	91.950	0.110	0.030	0.940
2020/01/31 05:49:46.6	91.970	0.070	0.100	0.980
2020/01/31 05:49:46.7	91.980	0.030	0.170	1.020
2020/01/31 05:49:46.8	92.000	-0.010	0.230	1.050
2020/01/31 05:49:46.9	92.010	-0.050	0.290	1.090
2020/01/31 05:49:47.0	92.020	-0.100	0.350	1.120
2020/01/31 05:49:47.1	92.030	-0.140	0.410	1.150
2020/01/31 05:49:47.2	92.020	-0.190	0.470	1.180
2020/01/31 05:49:47.3	92.030	-0.230	0.520	1.210
2020/01/31 05:49:47.4	92.030	-0.280	0.560	1.230
2020/01/31 05:49:47.5	92.030	-0.320	0.600	1.260
2020/01/31 05:49:47.6	92.020	-0.370	0.640	1.280
2020/01/31 05:49:47.7	92.020	-0.410	0.670	1.300
2020/01/31 05:49:47.8	92.010	-0.450	0.700	1.320
2020/01/31 05:49:47.9	92.000	-0.490	0.720	1.340
2020/01/31 05:49:48.0	91.990	-0.530	0.730	1.360
2020/01/31 05:49:48.1	91.980	-0.560	0.740	1.380
2020/01/31 05:49:48.2	91.960	-0.590	0.740	1.400
2020/01/31 05:49:48.3	91.940	-0.610	0.730	1.410
2020/01/31 05:49:48.4	91.930	-0.640	0.720	1.420
2020/01/31 05:49:48.5	91.910	-0.650	0.700	1.440
2020/01/31 05:49:48.6	91.890	-0.670	0.670	1.450
2020/01/31 05:49:48.7	91.870	-0.680	0.640	1.460
2020/01/31 05:49:48.8	91.850	-0.680	0.590	1.460
2020/01/31 05:49:48.9	91.830	-0.680	0.550	1.460
2020/01/31 05:49:49.0	91.810	-0.670	0.490	1.470
2020/01/31 05:49:49.1	91.790	-0.660	0.430	1.460
2020/01/31 05:49:49.2	91.770	-0.650	0.360	1.460
2020/01/31 05:49:49.3	91.750	-0.630	0.290	1.450
2020/01/31 05:49:49.4	91.730	-0.600	0.210	1.440
2020/01/31 05:49:49.5	91.700	-0.570	0.130	1.430
2020/01/31 05:49:49.6	91.680	-0.540	0.040	1.410
2020/01/31 05:49:49.7	91.660	-0.500	-0.050	1.380
2020/01/31 05:49:49.8	91.640	-0.450	-0.140	1.350
2020/01/31 05:49:49.9	91.620	-0.410	-0.230	1.320
2020/01/31 05:49:50.0	91.610	-0.360	-0.320	1.280
2020/01/31 05:49:50.1	91.590	-0.310	-0.420	1.240
2020/01/31 05:49:50.2	91.580	-0.260	-0.520	1.190
2020/01/31 05:49:50.3	91.570	-0.200	-0.610	1.130
2020/01/31 05:49:50.4	91.560	-0.140	-0.700	1.080
2020/01/31 05:49:50.5	91.560	-0.090	-0.790	1.020
2020/01/31 05:49:50.6	91.560	-0.030	-0.870	0.950
2020/01/31 05:49:50.7	91.560	0.030	-0.950	0.890
2020/01/31 05:49:50.8	91.560	0.080	-1.020	0.820
2020/01/31 05:49:50.9	91.570	0.140	-1.100	0.750
2020/01/31 05:49:51.0	91.580	0.190	-1.160	0.690
2020/01/31 05:49:51.1	91.600	0.250	-1.220	0.620
2020/01/31 05:49:51.2	91.610	0.300	-1.270	0.560
2020/01/31 05:49:51.3	91.630	0.350	-1.310	0.500
2020/01/31 05:49:51.4	91.640	0.390	-1.350	0.440
2020/01/31 05:49:51.5	91.660	0.440	-1.380	0.390
2020/01/31 05:49:51.6	91.680	0.480	-1.410	0.340
2020/01/31 05:49:51.7	91.710	0.520	-1.420	0.300
2020/01/31 05:49:51.8	91.730	0.550	-1.430	0.270
2020/01/31 05:49:51.9	91.750	0.580	-1.430	0.240
2020/01/31 05:49:52.0	91.770	0.610	-1.420	0.220
2020/01/31 05:49:52.1	91.790	0.640	-1.400	0.210
2020/01/31 05:49:52.2	91.810	0.660	-1.380	0.200
2020/01/31 05:49:52.3	91.830	0.680	-1.350	0.190
2020/01/31 05:49:52.4	91.840	0.690	-1.310	0.190
2020/01/31 05:49:52.5	91.860	0.700	-1.260	0.200
2020/01/31 05:49:52.6	91.880	0.710	-1.210	0.200
2020/01/31 05:49:52.7	91.900	0.710	-1.150	0.210
2020/01/31 05:49:52.8	91.920	0.710	-1.080	0.220
2020/01/31 05:49:52.9	91.930	0.710	-1.010	0.240
2020/01/31 05:49:53.0	91.950	0.700	-0.930	0.250
2020/01/31 05:49:53.1	91.960	0.690	-0.850	0.270
2020/01/31 05:49:53.2	91.980	0.670	-0.760	0.290
2020/01/31 05:49:53.3	91.990	0.660	-0.670	0.310
2020/01/31 05:49:53.4	92.000	0.640	-0.580	0.330
2020/01/31 05:49:53.5	92.010	0.610	-0.490	0.350
2020/01/31 05:49:53.6	92.020	0.590	-0.390	0.380
2020/01/31 05:49:53.7	92.020	0.560	-0.300	0.400
2020/01/31 05:49:53.8	92.030	0.530	-0.200	0.430
2020/01/31 05:49:53.9	92.030	0.490	-0.110	0.450
2020/01/31 05:49:54.0	92.030	0.460	-0.010	0.480
2020/01/31 05:49:54.1	92.030	0.420	0.080	0.510
2020/01/31 05:49:54.2	92.020	0.380	0.170	0.540
2020/01/31 05:49:54.3	92.010	0.340	0.260	0.570
2020/01/31 05:49:54.4	92.000	0.300	0.350	0.600
2020/01/31 05:49:54.5	91.990	0.250	0.430	0.640
2020/01/31 05:49:54.6	91.970	0.210	0.500	0.680
2020/01/31 05:49:54.7	91.950	0.160	0.580	0.710
2020/01/31 05:49:54.8	91.930	0.110	0.640	0.750
2020/01/31 05:49:54.9	91.910	0.060	0.700	0.790
2020/01/31 05:49:55.0	91.880	0.010	0.760	0.830
2020/01/31 05:49:55.1	91.850	-0.040	0.810	0.880
2020/01/31 05:49:55.2	91.820	-0.090	0.860	0.920
2020/01/31 05:49:55.3	91.790	-0.130	0.890	0.960
2020/01/31 05:49:55.4	91.760	-0.180	0.920	1.000
2020/01/31 05:49:55.5	91.730	-0.230	0.940	1.040
2020/01/31 05:49:55.6	91.700	-0.270	0.960	1.070
2020/01/31 05:49:55.7	91.670	-0.320	0.970	1.110
2020/01/31 05:49:55.8	91.640	-0.360	0.970	1.140
2020/01/31 05:49:55.9	91.610	-0.400	0.960	1.170
2020/01/31 05:49:56.0	91.580	-0.440	0.940	1.200
2020/01/31 05:49:56.1	91.550	-0.470	0.920	1.230
2020/01/31 05:49:56.2	91.530	-0.500	0.890	1.250
2020/01/31 05:49:56.3	91.510	-0.530	0.850	1.260
2020/01/31 05:49:56.4	91.490	-0.550	0.800	1.270
2020/01/31 05:49:56.5	91.480	-0.570	0.750	1.280
2020/01/31 05:49:56.6	91.460	-0.580	0.690	1.280
2020/01/31 05:49:56.7	91.450	-0.590	0.620	1.280
2020/01/31 05:49:56.8	91.440	-0.590	0.540	1.270
2020/01/31 05:49:56.9	91.440	-0.590	0.460	1.250
2020/01/31 05:49:57.0	91.440	-0.580	0.370	1.230
2020/01/31 05:49:57.1	91.440	-0.570	0.280	1.210
2020/01/31 05:49:57.2	91.440	-0.550	0.180	1.190
2020/01/31 05:49:57.3	91.450	-0.530	0.070	1.160
2020/01/31 05:49:57.4	91.450	-0.500	-0.040	1.130
2020/01/31 05:49:57.5	91.470	-0.470	-0.150	1.100
2020/01/31 05:49:57.6	91.480	-0.430	-0.260	1.060
2020/01/31 05:49:57.7	91.490	-0.390	-0.380	1.030
2020/01/31 05:49:57.8	91.510	-0.340	-0.490	0.990
2020/01/31 05:49:57.9	91.530	-0.290	-0.600	0.950
2020/01/31 05:49:58.0	91.560	-0.240	-0.710	0.920
2020/01/31 05:49:58.1	91.580	-0.180	-0.820	0.880
2020/01/31 05:49:58.2	91.600	-0.130	-0.930	0.840
2020/01/31 05:49:58.3	91.630	-0.070	-1.030	0.810
2020/01/31 05:49:58.4	91.660	-0.010	-1.120	0.780
2020/01/31 05:49:58.5	91.680	0.050	-1.200	0.750
2020/01/31 05:49:58.6	91.710	0.110	-1.280	0.730
2020/01/31 05:49:58.7	91.740	0.170	-1.350	0.700
2020/01/31 05:49:58.8	91.770	0.230	-1.400	0.680
2020/01/31 05:49:58.9	91.790	0.280	-1.450	0.670
2020/01/31 05:49:59.0	91.820	0.330	-1.480	0.660
2020/01/31 05:49:59.1	91.840	0.380	-1.500	0.650
2020/01/31 05:49:59.2	91.860	0.420	-1.510	0.640
2020/01/31 05:49:59.3	91.890	0.450	-1.500	0.640
2020/01/31 05:49:59.4	91.910	0.480	-1.480	0.640
2020/01/31 05:49:59.5	91.930	0.510	-1.450	0.640
2020/01/31 05:49:59.6	91.950	0.520	-1.410	0.640
2020/01/31 05:49:59.7	91.970	0.530	-1.350	0.650
2020/01/31 05:49:59.8	91.990	0.540	-1.290	0.670
2020/01/31 05:49:59.9	92.010	0.530	-1.210	0.680
2020/01/31 05:50:00.0	92.020	0.520	-1.110	0.700
2020/01/31 05:50:00.1	92.040	0.510	-1.010	0.720
2020/01/31 05:50:00.2	92.050	0.480	-0.900	0.750
2020/01/31 05:50:00.3	92.060	0.450	-0.780	0.780
2020/01/31 05:50:00.4	92.060	0.410	-0.660	0.810
2020/01/31 05:50:00.5	92.070	0.370	-0.530	0.850
2020/01/31 05:50:00.6	92.070	0.320	-0.390	0.880
2020/01/31 05:50:00.7	92.070	0.260	-0.250	0.920
2020/01/31 05:50:00.8	92.060	0.200	-0.110	0.960
2020/01/31 05:50:00.9	92.060	0.140	0.030	1.010
2020/01/31 05:50:01.0	92.050	0.070	0.170	1.050
2020/01/31 05:50:01.1	92.030	-0.000	0.310	1.100
2020/01/31 05:50:01.2	92.020	-0.080	0.440	1.140
2020/01/31 05:50:01.3	92.000	-0.160	0.570	1.190
2020/01/31 05:50:01.4	91.980	-0.230	0.700	1.230
2020/01/31 05:50:01.5	91.950	-0.310	0.820	1.280
2020/01/31 05:50:01.6	91.930	-0.390	0.920	1.320
2020/01/31 05:50:01.7	91.900	-0.460	1.020	1.360
2020/01/31 05:50:01.8	91.870	-0.540	1.110	1.400
2020/01/31 05:50:01.9	91.840	-0.610	1.190	1.440
2020/01/31 05:50:02.0	91.800	-0.680	1.250	1.470
2020/01/31 05:50:02.1	91.770	-0.740	1.300	1.500
2020/01/31 05:50:02.2	91.740	-0.800	1.340	1.530
2020/01/31 05:50:02.3	91.710	-0.850	1.370	1.550
2020/01/31 05:50:02.4	91.670	-0.900	1.370	1.570
2020/01/31 05:50:02.5	91.640	-0.940	1.370	1.580
2020/01/31 05:50:02.6	91.610	-0.980	1.340	1.590
2020/01/31 05:50:02.7	91.570	-1.000	1.300	1.600
2020/01/31 05:50:02.8	91.540	-1.020	1.250	1.600
2020/01/31 05:50:02.9	91.510	-1.030	1.180	1.590
2020/01/31 05:50:03.0	91.480	-1.030	1.100	1.580
2020/01/31 05:50:03.1	91.460	-1.020	1.000	1.560
2020/01/31 05:50:03.2	91.430	-1.000	0.880	1.540
2020/01/31 05:50:03.3	91.400	-0.970	0.760	1.520
2020/01/31 05:50:03.4	91.380	-0.940	0.620	1.490
2020/01/31 05:50:03.5	91.360	-0.890	0.470	1.450
2020/01/31 05:50:03.6	91.350	-0.840	0.310	1.410
2020/01/31 05:50:03.7	91.330	-0.780	0.140	1.370
2020/01/31 05:50:03.8	91.320	-0.700	-0.040	1.330
2020/01/31 05:50:03.9	91.310	-0.630	-0.220	1.280
2020/01/31 05:50:04.0	91.300	-0.540	-0.410	1.230
2020/01/31 05:50:04.1	91.300	-0.450	-0.590	1.170
2020/01/31 05:50:04.2	91.290	-0.350	-0.790	1.110
2020/01/31 05:50:04.3	91.290	-0.250	-0.970	1.060
2020/01/31 05:50:04.4	91.290	-0.150	-1.150	1.000
2020/01/31 05:50:04.5	91.290	-0.040	-1.320	0.950
2020/01/31 05:50:04.6	91.300	0.060	-1.480	0.890
2020/01/31 05:50:04.7	91.300	0.170	-1.630	0.840
2020/01/31 05:50:04.8	91.300	0.280	-1.770	0.790
2020/01/31 05:50:04.9	91.310	0.380	-1.890	0.740
2020/01/31 05:50:05.0	91.310	0.480	-1.990	0.690
2020/01/31 05:50:05.1	91.320	0.570	-2.080	0.650
2020/01/31 05:50:05.2	91.320	0.660	-2.150	0.610
2020/01/31 05:50:05.3	91.320	0.750	-2.200	0.570
2020/01/31 05:50:05.4	91.330	0.830	-2.220	0.530
2020/01/31 05:50:05.5	91.330	0.900	-2.230	0.500
2020/01/31 05:50:05.6	91.340	0.960	-2.220	0.470
2020/01/31 05:50:05.7	91.340	1.020	-2.190	0.450
2020/01/31 05:50:05.8	91.340	1.060	-2.140	0.420
2020/01/31 05:50:05.9	91.350	1.100	-2.070	0.410
2020/01/31 05:50:06.0	91.350	1.130	-1.990	0.390
2020/01/31 05:50:06.1	91.350	1.150	-1.880	0.380
2020/01/31 05:50:06.2	91.340	1.160	-1.760	0.380
2020/01/31 05:50:06.3	91.340	1.160	-1.630	0.380
2020/01/31 05:50:06.4	91.340	1.150	-1.480	0.380
2020/01/31 05:50:06.5	91.330	1.140	-1.320	0.390
2020/01/31 05:50:06.6	91.330	1.110	-1.160	0.400
2020/01/31 05:50:06.7	91.320	1.080	-0.980	0.420
2020/01/31 05:50:06.8	91.320	1.040	-0.800	0.430
2020/01/31 05:50:06.9	91.310	1.000	-0.620	0.460
2020/01/31 05:50:07.0	91.310	0.940	-0.430	0.480
2020/01/31 05:50:07.1	91.300	0.890	-0.250	0.500
2020/01/31 05:50:07.2	91.300	0.820	-0.070	0.540
2020/01/31 05:50:07.3	91.290	0.760	0.110	0.560
2020/01/31 05:50:07.4	91.290	0.690	0.290	0.590
2020/01/31 05:50:07.5	91.290	0.610	0.450	0.620
2020/01/31 05:50:07.6	91.280	0.540	0.610	0.650
2020/01/31 05:50:07.7	91.280	0.460	0.760	0.680
2020/01/31 05:50:07.8	91.280	0.380	0.890	0.710
2020/01/31 05:50:07.9	91.290	0.310	1.020	0.740
2020/01/31 05:50:08.0	91.290	0.230	1.130	0.770
2020/01/31 05:50:08.1	91.290	0.150	1.220	0.800
2020/01/31 05:50:08.2	91.300	0.080	1.310	0.830
2020/01/31 05:50:08.3	91.310	0.000	1.380	0.860
2020/01/31 05:50:08.4	91.310	-0.070	1.430	0.880
2020/01/31 05:50:08.5	91.310	-0.140	1.470	0.910
2020/01/31 05:50:08.6	91.320	-0.200	1.490	0.940
2020/01/31 05:50:08.7	91.320	-0.260	1.500	0.970
2020/01/31 05:50:08.8	91.320	-0.320	1.490	0.990
2020/01/31 05:50:08.9	91.320	-0.380	1.470	1.020
2020/01/31 05:50:09.0	91.330	-0.430	1.440	1.040
2020/01/31 05:50:09.1	91.330	-0.470	1.390	1.060
2020/01/31 05:50:09.2	91.330	-0.510	1.330	1.080
2020/01/31 05:50:09.3	91.330	-0.550	1.270	1.100
2020/01/31 05:50:09.4	91.330	-0.580	1.190	1.120
2020/01/31 05:50:09.5	91.330	-0.600	1.100	1.130
2020/01/31 05:50:09.6	91.330	-0.630	1.010	1.140
2020/01/31 05:50:09.7	91.320	-0.640	0.910	1.150
2020/01/31 05:50:09.8	91.320	-0.650	0.800	1.160
2020/01/31 05:50:09.9	91.310	-0.660	0.690	1.170
2020/01/31 05:50:10.0	91.310	-0.660	0.580	1.180
2020/01/31 05:50:10.1	91.300	-0.650	0.460	1.180
2020/01/31 05:50:10.2	91.300	-0.650	0.340	1.190
2020/01/31 05:50:10.3	91.290	-0.630	0.220	1.190
2020/01/31 05:50:10.4	91.280	-0.620	0.110	1.200
2020/01/31 05:50:10.5	91.270	-0.590	-0.010	1.200
2020/01/31 05:50:10.6	91.260	-0.570	-0.120	1.200
2020/01/31 05:50:10.7	91.250	-0.540	-0.230	1.200
2020/01/31 05:50:10.8	91.240	-0.510	-0.330	1.200
2020/01/31 05:50:10.9	91.230	-0.480	-0.440	1.200
2020/01/31 05:50:11.0	91.220	-0.440	-0.530	1.200
2020/01/31 05:50:11.1	91.210	-0.410	-0.620	1.200
2020/01/31 05:50:11.2	91.210	-0.370	-0.710	1.200
2020/01/31 05:50:11.3	91.210	-0.330	-0.790	1.200
2020/01/31 05:50:11.4	91.210	-0.290	-0.860	1.200
2020/01/31 05:50:11.5	91.210	-0.250	-0.920	1.200
2020/01/31 05:50:11.6	91.210	-0.210	-0.980	1.200
2020/01/31 05:50:11.7	91.220	-0.170	-1.030	1.200
2020/01/31 05:50:11.8	91.230	-0.130	-1.070	1.200
2020/01/31 05:50:11.9	91.240	-0.100	-1.100	1.200
2020/01/31 05:50:12.0	91.250	-0.060	-1.130	1.200
2020/01/31 05:50:12.1	91.270	-0.030	-1.150	1.210
2020/01/31 05:50:12.2	91.280	0.010	-1.170	1.210
2020/01/31 05:50:12.3	91.300	0.040	-1.170	1.210
2020/01/31 05:50:12.4	91.320	0.060	-1.170	1.220
2020/01/31 05:50:12.5	91.340	0.090	-1.160	1.220
2020/01/31 05:50:12.6	91.360	0.110	-1.140	1.220
2020/01/31 05:50:12.7	91.380	0.130	-1.120	1.220
2020/01/31 05:50:12.8	91.400	0.150	-1.090	1.220
2020/01/31 05:50:12.9	91.420	0.170	-1.050	1.220
2020/01/31 05:50:13.0	91.440	0.180	-1.010	1.210
2020/01/31 05:50:13.1	91.460	0.190	-0.970	1.210
2020/01/31 05:50:13.2	91.480	0.190	-0.910	1.200
2020/01/31 05:50:13.3	91.490	0.200	-0.860	1.190
2020/01/31 05:50:13.4	91.510	0.200	-0.800	1.190
2020/01/31 05:50:13.5	91.520	0.200	-0.740	1.180
2020/01/31 05:50:13.6	91.530	0.190	-0.680	1.170
2020/01/31 05:50:13.7	91.530	0.190	-0.610	1.160
2020/01/31 05:50:13.8	91.530	0.180	-0.550	1.150
2020/01/31 05:50:13.9	91.530	0.170	-0.480	1.150
2020/01/31 05:50:14.0	91.530	0.160	-0.410	1.140
2020/01/31 05:50:14.1	91.520	0.150	-0.350	1.130
2020/01/31 05:50:14.2	91.510	0.140	-0.280	1.120
2020/01/31 05:50:14.3	91.490	0.130	-0.220	1.110
2020/01/31 05:50:14.4	91.470	0.110	-0.150	1.100
2020/01/31 05:50:14.5	91.450	0.100	-0.090	1.090
2020/01/31 05:50:14.6	91.430	0.080	-0.040	1.090
2020/01/31 05:50:14.7	91.400	0.070	0.010	1.080
2020/01/31 05:50:14.8	91.380	0.060	0.060	1.070
2020/01/31 05:50:14.9	91.340	0.040	0.110	1.070
2020/01/31 05:50:15.0	91.310	0.030	0.150	1.060
2020/01/31 05:50:15.1	91.280	0.020	0.180	1.050
2020/01/31 05:50:15.2	91.240	0.010	0.200	1.050
2020/01/31 05:50:15.3	91.210	0.000	0.230	1.040
2020/01/31 05:50:15.4	91.170	-0.010	0.240	1.040
2020/01/31 05:50:15.5	91.130	-0.010	0.250	1.030
2020/01/31 05:50:15.6	91.090	-0.010	0.250	1.020
2020/01/31 05:50:15.7	91.060	-0.010	0.250	1.010
2020/01/31 05:50:15.8	91.020	-0.010	0.230	1.010
2020/01/31 05:50:15.9	90.990	-0.010	0.220	1.000
2020/01/31 05:50:16.0	90.950	-0.010	0.190	0.990
2020/01/31 05:50:16.1	90.920	0.000	0.160	0.980
2020/01/31 05:50:16.2	90.890	0.010	0.120	0.970
2020/01/31 05:50:16.3	90.870	0.030	0.070	0.960
2020/01/31 05:50:16.4	90.840	0.040	0.020	0.950
2020/01/31 05:50:16.5	90.830	0.060	-0.030	0.940
2020/01/31 05:50:16.6	90.810	0.070	-0.090	0.920
2020/01/31 05:50:16.7	90.800	0.090	-0.150	0.910
2020/01/31 05:50:16.8	90.790	0.110	-0.210	0.890
2020/01/31 05:50:16.9	90.790	0.130	-0.280	0.870
2020/01/31 05:50:17.0	90.790	0.150	-0.350	0.850
2020/01/31 05:50:17.1	90.790	0.170	-0.410	0.830
2020/01/31 05:50:17.2	90.810	0.200	-0.470	0.800
2020/01/31 05:50:17.3	90.820	0.220	-0.530	0.770
2020/01/31 05:50:17.4	90.840	0.230	-0.590	0.740
2020/01/31 05:50:17.5	90.860	0.250	-0.640	0.710
2020/01/31 05:50:17.6	90.880	0.270	-0.690	0.670
2020/01/31 05:50:17.7	90.910	0.280	-0.740	0.640
2020/01/31 05:50:17.8	90.940	0.290	-0.770	0.600
2020/01/31 05:50:17.9	90.970	0.300	-0.800	0.560
2020/01/31 05:50:18.0	91.010	0.300	-0.820	0.520
2020/01/31 05:50:18.1	91.050	0.300	-0.830	0.490
2020/01/31 05:50:18.2	91.080	0.300	-0.840	0.440
2020/01/31 05:50:18.3	91.120	0.290	-0.840	0.410
2020/01/31 05:50:18.4	91.160	0.290	-0.830	0.370
2020/01/31 05:50:18.5	91.200	0.270	-0.810	0.340
2020/01/31 05:50:18.6	91.250	0.260	-0.780	0.310
2020/01/31 05:50:18.7	91.290	0.240	-0.750	0.290
2020/01/31 05:50:18.8	91.330	0.220	-0.700	0.270
2020/01/31 05:50:18.9	91.370	0.190	-0.650	0.260
2020/01/31 05:50:19.0	91.410	0.160	-0.600	0.250
2020/01/31 05:50:19.1	91.450	0.130	-0.530	0.250
2020/01/31 05:50:19.2	91.480	0.100	-0.470	0.250
2020/01/31 05:50:19.3	91.520	0.070	-0.390	0.260
2020/01/31 05:50:19.4	91.550	0.030	-0.320	0.280
2020/01/31 05:50:19.5	91.580	-0.010	-0.230	0.300
2020/01/31 05:50:19.6	91.600	-0.040	-0.150	0.320
2020/01/31 05:50:19.7	91.630	-0.080	-0.070	0.350
2020/01/31 05:50:19.8	91.650	-0.120	0.020	0.390
2020/01/31 05:50:19.9	91.670	-0.160	0.100	0.430
2020/01/31 05:50:20.0	91.680	-0.200	0.190	0.470
2020/01/31 05:50:20.1	91.690	-0.240	0.270	0.520
2020/01/31 05:50:20.2	91.710	-0.280	0.350	0.570
2020/01/31 05:50:20.3	91.720	-0.310	0.420	0.620
2020/01/31 05:50:20.4	91.720	-0.350	0.490	0.670
2020/01/31 05:50:20.5	91.730	-0.380	0.550	0.720
2020/01/31 05:50:20.6	91.730	-0.410	0.600	0.770
2020/01/31 05:50:20.7	91.730	-0.430	0.650	0.820
2020/01/31 05:50:20.8	91.730	-0.460	0.690	0.870
2020/01/31 05:50:20.9	91.730	-0.480	0.720	0.920
2020/01/31 05:50:21.0	91.730	-0.490	0.740	0.960
2020/01/31 05:50:21.1	91.730	-0.510	0.750	1.000
2020/01/31 05:50:21.2	91.720	-0.520	0.750	1.040
2020/01/31 05:50:21.3	91.710	-0.520	0.750	1.080
2020/01/31 05:50:21.4	91.710	-0.520	0.730	1.110
2020/01/31 05:50:21.5	91.710	-0.520	0.710	1.140
2020/01/31 05:50:21.6	91.700	-0.520	0.680	1.170
2020/01/31 05:50:21.7	91.700	-0.510	0.640	1.190
2020/01/31 05:50:21.8	91.690	-0.490	0.590	1.210
2020/01/31 05:50:21.9	91.680	-0.480	0.540	1.220
2020/01/31 05:50:22.0	91.680	-0.460	0.480	1.240
2020/01/31 05:50:22.1	91.670	-0.430	0.420	1.250
2020/01/31 05:50:22.2	91.660	-0.410	0.350	1.250
2020/01/31 05:50:22.3	91.650	-0.380	0.280	1.250
2020/01/31 05:50:22.4	91.640	-0.350	0.200	1.250
2020/01/31 05:50:22.5	91.630	-0.320	0.120	1.250
2020/01/31 05:50:22.6	91.620	-0.280	0.040	1.240
2020/01/31 05:50:22.7	91.600	-0.250	-0.040	1.240
2020/01/31 05:50:22.8	91.590	-0.210	-0.120	1.220
2020/01/31 05:50:22.9	91.580	-0.170	-0.200	1.210
2020/01/31 05:50:23.0	91.560	-0.130	-0.280	1.200
2020/01/31 05:50:23.1	91.540	-0.090	-0.360	1.180
2020/01/31 05:50:23.2	91.520	-0.050	-0.440	1.160
2020/01/31 05:50:23.3	91.500	-0.010	-0.520	1.140
2020/01/31 05:50:23.4	91.490	0.040	-0.590	1.120
2020/01/31 05:50:23.5	91.470	0.080	-0.660	1.090
2020/01/31 05:50:23.6	91.450	0.120	-0.720	1.070
2020/01/31 05:50:23.7	91.430	0.160	-0.780	1.040
2020/01/31 05:50:23.8	91.420	0.200	-0.840	1.010
2020/01/31 05:50:23.9	91.400	0.240	-0.890	0.980
2020/01/31 05:50:24.0	91.390	0.280	-0.930	0.950
2020/01/31 05:50:24.1	91.370	0.320	-0.970	0.920
2020/01/31 05:50:24.2	91.360	0.350	-1.000	0.890
2020/01/31 05:50:24.3	91.350	0.390	-1.030	0.850
2020/01/31 05:50:24.4	91.340	0.420	-1.060	0.820
2020/01/31 05:50:24.5	91.340	0.450	-1.070	0.780
2020/01/31 05:50:24.6	91.340	0.480	-1.080	0.750
2020/01/31 05:50:24.7	91.340	0.500	-1.090	0.710
2020/01/31 05:50:24.8				
2020/01/31 05:50:24.9	91.350	0.530	-1.090	0.670
2020/01/31 05:50:25.0	91.370	0.560	-1.070	0.610
2020/01/31 05:50:25.1	91.390	0.580	-1.050	0.580
2020/01/31 05:50:25.2	91.400	0.590	-1.020	0.550
2020/01/31 05:50:25.3	91.420	0.600	-0.990	0.530
2020/01/31 05:50:25.4	91.450	0.600	-0.950	0.500
2020/01/31 05:50:25.5	91.470	0.600	-0.910	0.490
2020/01/31 05:50:25.6	91.490	0.600	-0.860	0.470
2020/01/31 05:50:25.7	91.520	0.590	-0.810	0.460
2020/01/31 05:50:25.8	91.550	0.580	-0.760	0.450
2020/01/31 05:50:25.9	91.580	0.560	-0.700	0.450
2020/01/31 05:50:26.0	91.610	0.540	-0.640	0.450
2020/01/31 05:50:26.1	91.640	0.520	-0.570	0.450
2020/01/31 05:50:26.2	91.670	0.500	-0.510	0.460
2020/01/31 05:50:26.3	91.700	0.470	-0.440	0.470
2020/01/31 05:50:26.4	91.730	0.430	-0.370	0.480
2020/01/31 05:50:26.5	91.750	0.400	-0.300	0.500
2020/01/31 05:50:26.6	91.780	0.360	-0.230	0.530
2020/01/31 05:50:26.7	91.800	0.320	-0.160	0.550
2020/01/31 05:50:26.8	91.820	0.280	-0.090	0.580
2020/01/31 05:50:26.9	91.830	0.230	-0.020	0.620
2020/01/31 05:50:27.0	91.850	0.190	0.040	0.660
2020/01/31 05:50:27.1	91.850	0.140	0.110	0.700
2020/01/31 05:50:27.2	91.860	0.090	0.180	0.740
2020/01/31 05:50:27.3	91.860	0.040	0.240	0.790
2020/01/31 05:50:27.4	91.860	-0.010	0.290	0.830
2020/01/31 05:50:27.5	91.850	-0.050	0.350	0.880
2020/01/31 05:50:27.6	91.840	-0.100	0.400	0.930
2020/01/31 05:50:27.7	91.820	-0.150	0.450	0.980
2020/01/31 05:50:27.8	91.810	-0.200	0.490	1.030
2020/01/31 05:50:27.9	91.790	-0.250	0.530	1.070
2020/01/31 05:50:28.0	91.760	-0.290	0.570	1.120
2020/01/31 05:50:28.1	91.740	-0.340	0.600	1.160
2020/01/31 05:50:28.2	91.710	-0.380	0.620	1.210
2020/01/31 05:50:28.3	91.680	-0.410	0.640	1.240
2020/01/31 05:50:28.4	91.640	-0.450	0.650	1.280
2020/01/31 05:50:28.5	91.610	-0.480	0.660	1.310
2020/01/31 05:50:28.6	91.580	-0.510	0.660	1.330
2020/01/31 05:50:28.7	91.550	-0.530	0.650	1.360
2020/01/31 05:50:28.8	91.510	-0.550	0.630	1.370
2020/01/31 05:50:28.9	91.480	-0.560	0.600	1.380
2020/01/31 05:50:29.0				
2020/01/31 05:50:29.1	91.450	-0.570	0.560	1.390
2020/01/31 05:50:29.2	91.400	-0.560	0.460	1.380
2020/01/31 05:50:29.3	91.380	-0.550	0.400	1.370
2020/01/31 05:50:29.4	91.360	-0.540	0.330	1.360
2020/01/31 05:50:29.5	91.340	-0.510	0.240	1.340
2020/01/31 05:50:29.6	91.330	-0.480	0.160	1.320
2020/01/31 05:50:29.7	91.320	-0.450	0.060	1.290
2020/01/31 05:50:29.8	91.310	-0.410	-0.040	1.260
2020/01/31 05:50:29.9	91.310	-0.360	-0.150	1.230
2020/01/31 05:50:30.0	91.310	-0.310	-0.260	1.190
2020/01/31 05:50:30.1	91.320	-0.260	-0.370	1.150
2020/01/31 05:50:30.2	91.320	-0.200	-0.480	1.110
2020/01/31 05:50:30.3	91.340	-0.140	-0.590	1.070
2020/01/31 05:50:30.4	91.350	-0.080	-0.690	1.020
2020/01/31 05:50:30.5	91.370	-0.020	-0.790	0.980
2020/01/31 05:50:30.6	91.390	0.040	-0.890	0.930
2020/01/31 05:50:30.7	91.420	0.100	-0.970	0.880
2020/01/31 05:50:30.8	91.440	0.150	-1.050	0.840
2020/01/31 05:50:30.9	91.470	0.210	-1.110	0.790
2020/01/31 05:50:31.0	91.500	0.260	-1.170	0.740
2020/01/31 05:50:31.1	91.530	0.310	-1.210	0.690
2020/01/31 05:50:31.2	91.560	0.360	-1.240	0.650
2020/01/31 05:50:31.3	91.590	0.400	-1.260	0.610
2020/01/31 05:50:31.4	91.620	0.430	-1.260	0.560
2020/01/31 05:50:31.5	91.650	0.460	-1.260	0.520
2020/01/31 05:50:31.6	91.680	0.490	-1.240	0.480
2020/01/31 05:50:31.7	91.700	0.510	-1.200	0.450
2020/01/31 05:50:31.8	91.730	0.520	-1.160	0.420
2020/01/31 05:50:31.9	91.750	0.530	-1.100	0.390
2020/01/31 05:50:32.0	91.770	0.530	-1.030	0.360
2020/01/31 05:50:32.1	91.790	0.530	-0.960	0.340
2020/01/31 05:50:32.2	91.800	0.520	-0.870	0.320
2020/01/31 05:50:32.3	91.810	0.510	-0.780	0.310
2020/01/31 05:50:32.4	91.820	0.490	-0.680	0.310
2020/01/31 05:50:32.5	91.820	0.470	-0.570	0.310
2020/01/31 05:50:32.6	91.820	0.440	-0.460	0.310
2020/01/31 05:50:32.7	91.820	0.410	-0.350	0.320
2020/01/31 05:50:32.8	91.810	0.380	-0.240	0.340
2020/01/31 05:50:32.9	91.800	0.340	-0.130	0.360
2020/01/31 05:50:33.0	91.790	0.300	-0.020	0.390
2020/01/31 05:50:33.1	91.770	0.260	0.090	0.420
2020/01/31 05:50:33.2				
2020/01/31 05:50:33.3	91.740	0.220	0.190	0.460
2020/01/31 05:50:33.4	91.690	0.130	0.380	0.530
2020/01/31 05:50:33.5	91.660	0.090	0.460	0.560
2020/01/31 05:50:33.6	91.630	0.050	0.530	0.600
2020/01/31 05:50:33.7	91.600	0.000	0.600	0.640
2020/01/31 05:50:33.8	91.570	-0.040	0.650	0.680
2020/01/31 05:50:33.9	91.530	-0.080	0.690	0.720
2020/01/31 05:50:34.0	91.500	-0.120	0.730	0.760
2020/01/31 05:50:34.1	91.470	-0.150	0.750	0.790
2020/01/31 05:50:34.2	91.440	-0.190	0.760	0.830
2020/01/31 05:50:34.3	91.410	-0.220	0.760	0.870
2020/01/31 05:50:34.4	91.380	-0.250	0.750	0.900
2020/01/31 05:50:34.5	91.360	-0.280	0.730	0.930
2020/01/31 05:50:34.6	91.330	-0.310	0.700	0.970
2020/01/31 05:50:34.7	91.310	-0.330	0.660	1.000
2020/01/31 05:50:34.8	91.280	-0.360	0.620	1.020
2020/01/31 05:50:34.9	91.260	-0.370	0.560	1.050
2020/01/31 05:50:35.0	91.250	-0.390	0.490	1.070
2020/01/31 05:50:35.1	91.230	-0.400	0.420	1.090
2020/01/31 05:50:35.2	91.220	-0.410	0.330	1.110
2020/01/31 05:50:35.3	91.210	-0.420	0.250	1.120
2020/01/31 05:50:35.4	91.210	-0.420	0.150	1.130
2020/01/31 05:50:35.5	91.200	-0.420	0.050	1.140
2020/01/31 05:50:35.6	91.200	-0.420	-0.050	1.150
2020/01/31 05:50:35.7	91.200	-0.410	-0.160	1.150
2020/01/31 05:50:35.8	91.200	-0.400	-0.260	1.140
2020/01/31 05:50:35.9	91.210	-0.380	-0.370	1.130
2020/01/31 05:50:36.0	91.220	-0.370	-0.480	1.120
2020/01/31 05:50:36.1	91.230	-0.350	-0.580	1.110
2020/01/31 05:50:36.2	91.250	-0.320	-0.690	1.100
2020/01/31 05:50:36.3	91.270	-0.300	-0.780	1.080
2020/01/31 05:50:36.4	91.280	-0.270	-0.880	1.060
2020/01/31 05:50:36.5	91.300	-0.240	-0.960	1.050
2020/01/31 05:50:36.6	91.320	-0.210	-1.030	1.030
2020/01/31 05:50:36.7	91.330	-0.180	-1.100	1.020
2020/01/31 05:50:36.8	91.350	-0.150	-1.150	1.010
2020/01/31 05:50:36.9	91.370	-0.110	-1.190	1.000
2020/01/31 05:50:37.0	91.380	-0.080	-1.230	0.990
2020/01/31 05:50:37.1	91.390	-0.050	-1.240	0.990
2020/01/31 05:50:37.2	91.410	-0.020	-1.250	0.990
2020/01/31 05:50:37.3	91.420	0.010	-1.240	0.990
2020/01/31 05:50:37.4				
2020/01/31 05:50:37.5	91.430	0.040	-1.220	0.990
2020/01/31 05:50:37.6	91.440	0.080	-1.150	1.000
2020/01/31 05:50:37.7	91.450	0.100	-1.090	1.000
2020/01/31 05:50:37.8	91.460	0.120	-1.020	1.010
2020/01/31 05:50:37.9	91.460	0.130	-0.950	1.020
2020/01/31 05:50:38.0	91.470	0.140	-0.870	1.030
2020/01/31 05:50:38.1	91.470	0.140	-0.780	1.040
2020/01/31 05:50:38.2	91.470	0.150	-0.690	1.060
2020/01/31 05:50:38.3	91.470	0.140	-0.590	1.070
2020/01/31 05:50:38.4	91.480	0.140	-0.480	1.080
2020/01/31 05:50:38.5	91.480	0.130	-0.380	1.090
2020/01/31 05:50:38.6	91.480	0.120	-0.280	1.110
2020/01/31 05:50:38.7	91.480	0.100	-0.170	1.120
2020/01/31 05:50:38.8	91.490	0.080	-0.070	1.140
2020/01/31 05:50:38.9	91.490	0.060	0.020	1.150
2020/01/31 05:50:39.0	91.490	0.040	0.110	1.160
2020/01/31 05:50:39.1	91.500	0.020	0.200	1.180
2020/01/31 05:50:39.2	91.500	-0.000	0.280	1.190
2020/01/31 05:50:39.3	91.500	-0.030	0.350	1.200
2020/01/31 05:50:39.4	91.510	-0.050	0.420	1.210
2020/01/31 05:50:39.5				
2020/01/31 05:50:39.6	91.510	-0.080	0.470	1.220
2020/01/31 05:50:39.7	91.520	-0.120	0.560	1.220
2020/01/31 05:50:39.8	91.520	-0.150	0.590	1.230
2020/01/31 05:50:39.9	91.520	-0.170	0.600	1.230
2020/01/31 05:50:40.0	91.520	-0.190	0.620	1.220
2020/01/31 05:50:40.1	91.520	-0.200	0.620	1.220
2020/01/31 05:50:40.2	91.520	-0.220	0.610	1.210
2020/01/31 05:50:40.3	91.520	-0.230	0.600	1.200
2020/01/31 05:50:40.4	91.510	-0.240	0.580	1.180
2020/01/31 05:50:40.5	91.510	-0.240	0.550	1.170
2020/01/31 05:50:40.6	91.510	-0.250	0.520	1.150
2020/01/31 05:50:40.7	91.500	-0.250	0.490	1.140
2020/01/31 05:50:40.8	91.490	-0.240	0.450	1.120
2020/01/31 05:50:40.9	91.480	-0.240	0.400	1.100
2020/01/31 05:50:41.0	91.480	-0.230	0.360	1.080
2020/01/31 05:50:41.1	91.470	-0.220	0.310	1.060
2020/01/31 05:50:41.2	91.450	-0.210	0.260	1.030
2020/01/31 05:50:41.3	91.440	-0.200	0.210	1.010
2020/01/31 05:50:41.4	91.430	-0.180	0.160	0.990
2020/01/31 05:50:41.5	91.420	-0.160	0.110	0.970
2020/01/31 05:50:41.6				
2020/01/31 05:50:41.7	91.410	-0.140	0.060	0.950
2020/01/31 05:50:41.8	91.390	-0.100	-0.040	0.910
2020/01/31 05:50:41.9	91.380	-0.070	-0.090	0.900
2020/01/31 05:50:42.0	91.370	-0.050	-0.140	0.880
2020/01/31 05:50:42.1	91.360	-0.020	-0.180	0.860
2020/01/31 05:50:42.2	91.350	0.000	-0.230	0.840
2020/01/31 05:50:42.3	91.340	0.030	-0.270	0.820
2020/01/31 05:50:42.4	91.330	0.060	-0.310	0.800
2020/01/31 05:50:42.5	91.330	0.090	-0.350	0.780
2020/01/31 05:50:42.6	91.320	0.120	-0.390	0.760
2020/01/31 05:50:42.7	91.320	0.150	-0.430	0.740
2020/01/31 05:50:42.8	91.310	0.170	-0.470	0.710
2020/01/31 05:50:42.9	91.310	0.200	-0.500	0.690
2020/01/31 05:50:43.0	91.310	0.230	-0.540	0.670
2020/01/31 05:50:43.1	91.310	0.260	-0.570	0.640
2020/01/31 05:50:43.2	91.310	0.290	-0.600	0.620
2020/01/31 05:50:43.3	91.310	0.320	-0.630	0.590
2020/01/31 05:50:43.4	91.320	0.340	-0.650	0.570
2020/01/31 05:50:43.5	91.330	0.370	-0.670	0.550
2020/01/31 05:50:43.6	91.330	0.400	-0.690	0.530
2020/01/31 05:50:43.7				
2020/01/31 05:50:43.8	91.340	0.420	-0.710	0.510
2020/01/31 05:50:43.9	91.360	0.460	-0.740	0.480
2020/01/31 05:50:44.0	91.370	0.480	-0.750	0.470
2020/01/31 05:50:44.1	91.380	0.500	-0.760	0.460
2020/01/31 05:50:44.2	91.390	0.520	-0.760	0.450
2020/01/31 05:50:44.3	91.400	0.530	-0.770	0.440
2020/01/31 05:50:44.4	91.410	0.550	-0.760	0.440
2020/01/31 05:50:44.5	91.430	0.560	-0.760	0.430
2020/01/31 05:50:44.6	91.440	0.560	-0.750	0.430
2020/01/31 05:50:44.7	91.450	0.570	-0.740	0.430
2020/01/31 05:50:44.8	91.470	0.570	-0.730	0.430
2020/01/31 05:50:44.9	91.490	0.570	-0.720	0.430
2020/01/31 05:50:45.0	91.500	0.570	-0.700	0.430
2020/01/31 05:50:45.1	91.520	0.560	-0.680	0.430
2020/01/31 05:50:45.2	91.530	0.560	-0.660	0.440
2020/01/31 05:50:45.3	91.550	0.550	-0.640	0.440
2020/01/31 05:50:45.4	91.570	0.530	-0.610	0.450
2020/01/31 05:50:45.5	91.580	0.520	-0.590	0.450
2020/01/31 05:50:45.6	91.600	0.500	-0.560	0.460
2020/01/31 05:50:45.7	91.620	0.480	-0.530	0.470
2020/01/31 05:50:45.8				
2020/01/31 05:50:45.9	91.630	0.460	-0.490	0.480
2020/01/31 05:50:46.0	91.660	0.400	-0.430	0.510
2020/01/31 05:50:46.1	91.670	0.370	-0.390	0.530
2020/01/31 05:50:46.2	91.680	0.340	-0.350	0.550
2020/01/31 05:50:46.3	91.690	0.310	-0.320	0.570
2020/01/31 05:50:46.4	91.700	0.280	-0.280	0.600
2020/01/31 05:50:46.5	91.700	0.240	-0.240	0.630
2020/01/31 05:50:46.6	91.710	0.200	-0.200	0.660
2020/01/31 05:50:46.7	91.710	0.170	-0.160	0.700
2020/01/31 05:50:46.8	91.710	0.130	-0.120	0.740
2020/01/31 05:50:46.9	91.710	0.090	-0.090	0.780
2020/01/31 05:50:47.0	91.710	0.060	-0.050	0.830
2020/01/31 05:50:47.1	91.700	0.020	-0.010	0.870
2020/01/31 05:50:47.2	91.690	-0.020	0.020	0.920
2020/01/31 05:50:47.3	91.680	-0.050	0.060	0.970
2020/01/31 05:50:47.4	91.670	-0.090	0.090	1.020
2020/01/31 05:50:47.5	91.660	-0.120	0.120	1.070
2020/01/31 05:50:47.6	91.650	-0.150	0.150	1.120
2020/01/31 05:50:47.7	91.630	-0.180	0.170	1.170
2020/01/31 05:50:47.8	91.620	-0.210	0.200	1.220
2020/01/31 05:50:47.9				
2020/01/31 05:50:48.0	91.600	-0.230	0.220	1.260
2020/01/31 05:50:48.1	91.560	-0.270	0.250	1.350
2020/01/31 05:50:48.2	91.540	-0.290	0.250	1.390
2020/01/31 05:50:48.3	91.520	-0.310	0.260	1.430
2020/01/31 05:50:48.4	91.490	-0.320	0.260	1.460
2020/01/31 05:50:48.5	91.470	-0.340	0.260	1.490
2020/01/31 05:50:48.6	91.450	-0.350	0.260	1.520
2020/01/31 05:50:48.7	91.430	-0.350	0.250	1.540
2020/01/31 05:50:48.8	91.400	-0.360	0.240	1.560
2020/01/31 05:50:48.9	91.380	-0.360	0.220	1.580
2020/01/31 05:50:49.0	91.350	-0.370	0.200	1.600
2020/01/31 05:50:49.1	91.330	-0.370	0.180	1.610
2020/01/31 05:50:49.2	91.310	-0.360	0.150	1.610
2020/01/31 05:50:49.3	91.290	-0.360	0.120	1.610
2020/01/31 05:50:49.4	91.270	-0.360	0.090	1.610
2020/01/31 05:50:49.5	91.260	-0.350	0.050	1.610
2020/01/31 05:50:49.6	91.240	-0.340	0.010	1.590
2020/01/31 05:50:49.7	91.230	-0.340	-0.030	1.580
2020/01/31 05:50:49.8	91.220	-0.330	-0.080	1.560
2020/01/31 05:50:49.9	91.210	-0.320	-0.120	1.540
2020/01/31 05:50:50.0				
2020/01/31 05:50:50.1	91.200	-0.300	-0.170	1.520
2020/01/31 05:50:50.2	91.200	-0.280	-0.270	1.460
2020/01/31 05:50:50.3	91.210	-0.270	-0.320	1.430
2020/01/31 05:50:50.4	91.210	-0.250	-0.370	1.400
2020/01/31 05:50:50.5	91.220	-0.240	-0.420	1.360
2020/01/31 05:50:50.6	91.240	-0.220	-0.470	1.320
2020/01/31 05:50:50.7	91.250	-0.210	-0.520	1.290
2020/01/31 05:50:50.8	91.270	-0.190	-0.570	1.250
2020/01/31 05:50:50.9	91.290	-0.170	-0.610	1.210
2020/01/31 05:50:51.0	91.320	-0.160	-0.650	1.170
2020/01/31 05:50:51.1	91.340	-0.140	-0.690	1.130
2020/01/31 05:50:51.2	91.370	-0.130	-0.720	1.100
2020/01/31 05:50:51.3	91.390	-0.110	-0.750	1.060
2020/01/31 05:50:51.4	91.420	-0.100	-0.770	1.030
2020/01/31 05:50:51.5	91.450	-0.080	-0.790	1.000
2020/01/31 05:50:51.6	91.480	-0.070	-0.800	0.960
2020/01/31 05:50:51.7	91.510	-0.060	-0.810	0.940
2020/01/31 05:50:51.8	91.530	-0.050	-0.810	0.910
2020/01/31 05:50:51.9	91.560	-0.040	-0.800	0.880
2020/01/31 05:50:52.0	91.580	-0.030	-0.790	0.860
2020/01/31 05:50:52.1				
2020/01/31 05:50:52.2	91.600	-0.020	-0.770	0.840
2020/01/31 05:50:52.3	91.640	-0.010	-0.710	0.810
2020/01/31 05:50:52.4	91.650	-0.010	-0.680	0.800
2020/01/31 05:50:52.5	91.660	-0.020	-0.630	0.790
2020/01/31 05:50:52.6	91.670	-0.020	-0.580	0.790
2020/01/31 05:50:52.7	91.680	-0.030	-0.530	0.780
2020/01/31 05:50:52.8	91.680	-0.030	-0.470	0.780
2020/01/31 05:50:52.9	91.680	-0.040	-0.410	0.780
2020/01/31 05:50:53.0	91.680	-0.060	-0.350	0.790
2020/01/31 05:50:53.1	91.670	-0.070	-0.280	0.790
2020/01/31 05:50:53.2	91.660	-0.090	-0.210	0.800
2020/01/31 05:50:53.3	91.650	-0.100	-0.140	0.810
2020/01/31 05:50:53.4	91.640	-0.120	-0.070	0.810
2020/01/31 05:50:53.5	91.620	-0.140	0.000	0.820
2020/01/31 05:50:53.6	91.610	-0.170	0.070	0.830
2020/01/31 05:50:53.7	91.590	-0.190	0.140	0.840
2020/01/31 05:50:53.8	91.580	-0.210	0.210	0.850
2020/01/31 05:50:53.9	91.560	-0.230	0.270	0.860
2020/01/31 05:50:54.0	91.540	-0.250	0.330	0.870
2020/01/31 05:50:54.1	91.520	-0.280	0.380	0.880
2020/01/31 05:50:54.2				
2020/01/31 05:50:54.3	91.510	-0.300	0.430	0.890
2020/01/31 05:50:54.4	91.470	-0.340	0.510	0.900
2020/01/31 05:50:54.5	91.460	-0.350	0.540	0.900
2020/01/31 05:50:54.6	91.440	-0.370	0.560	0.900
2020/01/31 05:50:54.7	91.430	-0.380	0.580	0.900
2020/01/31 05:50:54.8	91.420	-0.390	0.590	0.900
2020/01/31 05:50:54.9	91.410	-0.400	0.590	0.890
2020/01/31 05:50:55.0	91.410	-0.400	0.590	0.880
2020/01/31 05:50:55.1	91.400	-0.400	0.580	0.870
2020/01/31 05:50:55.2	91.400	-0.400	0.570	0.850
2020/01/31 05:50:55.3	91.400	-0.390	0.540	0.830
2020/01/31 05:50:55.4	91.400	-0.390	0.510	0.810
2020/01/31 05:50:55.5	91.400	-0.380	0.480	0.790
2020/01/31 05:50:55.6	91.400	-0.360	0.440	0.760
2020/01/31 05:50:55.7	91.410	-0.350	0.400	0.740
2020/01/31 05:50:55.8	91.410	-0.330	0.350	0.710
2020/01/31 05:50:55.9	91.420	-0.310	0.300	0.680
2020/01/31 05:50:56.0	91.420	-0.280	0.250	0.650
2020/01/31 05:50:56.1	91.430	-0.260	0.190	0.620
2020/01/31 05:50:56.2	91.440	-0.230	0.130	0.590
2020/01/31 05:50:56.3				
2020/01/31 05:50:56.4	91.440	-0.190	0.060	0.560
2020/01/31 05:50:56.5	91.460	-0.120	-0.070	0.490
2020/01/31 05:50:56.6	91.470	-0.090	-0.150	0.460
2020/01/31 05:50:56.7	91.470	-0.050	-0.220	0.430
2020/01/31 05:50:56.8	91.480	-0.010	-0.290	0.400
2020/01/31 05:50:56.9	91.490	0.040	-0.370	0.370
2020/01/31 05:50:57.0	91.500	0.080	-0.440	0.350
2020/01/31 05:50:57.1	91.500	0.130	-0.520	0.320
2020/01/31 05:50:57.2	91.510	0.170	-0.590	0.300
2020/01/31 05:50:57.3	91.510	0.220	-0.660	0.280
2020/01/31 05:50:57.4	91.520	0.270	-0.730	0.270
2020/01/31 05:50:57.5	91.520	0.320	-0.800	0.250
2020/01/31 05:50:57.6	91.530	0.370	-0.870	0.240
2020/01/31 05:50:57.7	91.540	0.410	-0.930	0.240
2020/01/31 05:50:57.8	91.540	0.460	-0.990	0.230
2020/01/31 05:50:57.9	91.550	0.510	-1.040	0.230
2020/01/31 05:50:58.0	91.560	0.550	-1.080	0.230
2020/01/31 05:50:58.1	91.560	0.590	-1.120	0.230
2020/01/31 05:50:58.2	91.570	0.640	-1.160	0.230
2020/01/31 05:50:58.3	91.580	0.670	-1.190	0.240
2020/01/31 05:50:58.4				
2020/01/31 05:50:58.5	91.590	0.710	-1.200	0.240
2020/01/31 05:50:58.6	91.600	0.770	-1.210	0.260
2020/01/31 05:50:58.7	91.610	0.790	-1.200	0.270
2020/01/31 05:50:58.8	91.620	0.810	-1.180	0.290
2020/01/31 05:50:58.9	91.620	0.830	-1.150	0.300
2020/01/31 05:50:59.0	91.630	0.840	-1.110	0.320
2020/01/31 05:50:59.1	91.630	0.850	-1.060	0.340
2020/01/31 05:50:59.2	91.630	0.850	-0.990	0.360
2020/01/31 05:50:59.3	91.630	0.840	-0.930	0.380
2020/01/31 05:50:59.4	91.630	0.830	-0.860	0.410
2020/01/31 05:50:59.5	91.620	0.820	-0.780	0.430
2020/01/31 05:50:59.6	91.610	0.790	-0.690	0.460
2020/01/31 05:50:59.7	91.610	0.770	-0.600	0.480
2020/01/31 05:50:59.8	91.590	0.740	-0.510	0.510
2020/01/31 05:50:59.9	91.580	0.700	-0.420	0.540
2020/01/31 05:51:00.0	91.560	0.660	-0.320	0.570
2020/01/31 05:51:00.1	91.540	0.610	-0.220	0.600
2020/01/31 05:51:00.2	91.520	0.570	-0.130	0.630
2020/01/31 05:51:00.3	91.500	0.510	-0.030	0.660
2020/01/31 05:51:00.4	91.470	0.460	0.060	0.690
2020/01/31 05:51:00.5				
2020/01/31 05:51:00.6	91.440	0.400	0.150	0.720
2020/01/31 05:51:00.7	91.390	0.280	0.320	0.780
2020/01/31 05:51:00.8	91.360	0.220	0.390	0.800
2020/01/31 05:51:00.9	91.320	0.160	0.460	0.830
2020/01/31 05:51:01.0	91.290	0.100	0.510	0.860
2020/01/31 05:51:01.1	91.260	0.040	0.560	0.880
2020/01/31 05:51:01.2	91.240	-0.020	0.600	0.910
2020/01/31 05:51:01.3	91.210	-0.080	0.630	0.930
2020/01/31 05:51:01.4	91.180	-0.130	0.650	0.950
2020/01/31 05:51:01.5	91.160	-0.180	0.660	0.970
2020/01/31 05:51:01.6	91.130	-0.220	0.650	0.980
2020/01/31 05:51:01.7	91.110	-0.260	0.630	0.990
2020/01/31 05:51:01.8	91.100	-0.300	0.610	1.000
2020/01/31 05:51:01.9	91.080	-0.330	0.560	1.010
2020/01/31 05:51:02.0	91.070	-0.350	0.510	1.010
2020/01/31 05:51:02.1	91.060	-0.370	0.450	1.010
2020/01/31 05:51:02.2	91.060	-0.380	0.380	1.000
2020/01/31 05:51:02.3	91.060	-0.390	0.300	1.000
2020/01/31 05:51:02.4	91.060	-0.390	0.220	1.000
2020/01/31 05:51:02.5	91.060	-0.390	0.130	0.990
2020/01/31 05:51:02.6				
2020/01/31 05:51:02.7	91.070	-0.380	0.030	0.980
2020/01/31 05:51:02.8	91.080	-0.360	-0.160	0.960
2020/01/31 05:51:02.9	91.090	-0.340	-0.260	0.950
2020/01/31 05:51:03.0	91.110	-0.320	-0.360	0.940
2020/01/31 05:51:03.1	91.130	-0.290	-0.460	0.930
2020/01/31 05:51:03.2	91.140	-0.270	-0.560	0.910
2020/01/31 05:51:03.3	91.160	-0.240	-0.640	0.900
2020/01/31 05:51:03.4	91.190	-0.210	-0.730	0.890
2020/01/31 05:51:03.5	91.220	-0.190	-0.800	0.880
2020/01/31 05:51:03.6	91.240	-0.160	-0.870	0.870
2020/01/31 05:51:03.7	91.270	-0.140	-0.930	0.860
2020/01/31 05:51:03.8	91.300	-0.110	-0.980	0.860
2020/01/31 05:51:03.9	91.320	-0.090	-1.010	0.860
2020/01/31 05:51:04.0	91.350	-0.070	-1.040	0.860
2020/01/31 05:51:04.1	91.380	-0.060	-1.050	0.860
2020/01/31 05:51:04.2	91.400	-0.050	-1.060	0.870
2020/01/31 05:51:04.3	91.430	-0.040	-1.050	0.880
2020/01/31 05:51:04.4	91.450	-0.040	-1.030	0.900
2020/01/31 05:51:04.5	91.480	-0.040	-1.000	0.910
2020/01/31 05:51:04.6	91.500	-0.040	-0.950	0.930
2020/01/31 05:51:04.7				
2020/01/31 05:51:04.8	91.520	-0.050	-0.900	0.950
2020/01/31 05:51:04.9	91.550	-0.080	-0.760	1.010
2020/01/31 05:51:05.0	91.560	-0.100	-0.680	1.030
2020/01/31 05:51:05.1	91.570	-0.130	-0.590	1.060
2020/01/31 05:51:05.2	91.570	-0.150	-0.490	1.090
2020/01/31 05:51:05.3	91.580	-0.180	-0.390	1.130
2020/01/31 05:51:05.4	91.580	-0.210	-0.290	1.160
2020/01/31 05:51:05.5	91.580	-0.250	-0.180	1.190
2020/01/31 05:51:05.6	91.580	-0.280	-0.070	1.230
2020/01/31 05:51:05.7	91.580	-0.320	0.030	1.260
2020/01/31 05:51:05.8	91.570	-0.360	0.140	1.290
2020/01/31 05:51:05.9	91.560	-0.390	0.240	1.330
2020/01/31 05:51:06.0	91.550	-0.430	0.340	1.350
2020/01/31 05:51:06.1	91.540	-0.470	0.440	1.380
2020/01/31 05:51:06.2	91.520	-0.500	0.530	1.410
2020/01/31 05:51:06.3	91.510	-0.530	0.610	1.430
2020/01/31 05:51:06.4	91.500	-0.560	0.680	1.450
2020/01/31 05:51:06.5	91.480	-0.590	0.740	1.470
2020/01/31 05:51:06.6	91.470	-0.620	0.790	1.480
2020/01/31 05:51:06.7	91.450	-0.640	0.830	1.500
2020/01/31 05:51:06.8				
2020/01/31 05:51:06.9	91.440	-0.650	0.860	1.500
2020/01/31 05:51:07.0	91.410	-0.670	0.880	1.510
2020/01/31 05:51:07.1	91.390	-0.670	0.870	1.510
2020/01/31 05:51:07.2	91.370	-0.660	0.850	1.510
2020/01/31 05:51:07.3	91.360	-0.660	0.810	1.500
2020/01/31 05:51:07.4	91.340	-0.640	0.770	1.490
2020/01/31 05:51:07.5	91.320	-0.620	0.710	1.480
2020/01/31 05:51:07.6	91.310	-0.600	0.650	1.460
2020/01/31 05:51:07.7	91.290	-0.570	0.570	1.440
2020/01/31 05:51:07.8	91.280	-0.530	0.490	1.420
2020/01/31 05:51:07.9	91.260	-0.500	0.400	1.390
2020/01/31 05:51:08.0	91.250	-0.450	0.300	1.350
2020/01/31 05:51:08.1	91.240	-0.410	0.200	1.310
2020/01/31 05:51:08.2	91.230	-0.360	0.090	1.270
2020/01/31 05:51:08.3	91.220	-0.310	-0.020	1.210
2020/01/31 05:51:08.4	91.210	-0.260	-0.130	1.160
2020/01/31 05:51:08.5	91.210	-0.200	-0.240	1.100
2020/01/31 05:51:08.6	91.210	-0.150	-0.350	1.030
2020/01/31 05:51:08.7	91.210	-0.090	-0.460	0.960
2020/01/31 05:51:08.8	91.210	-0.040	-0.560	0.890
2020/01/31 05:51:08.9				
2020/01/31 05:51:09.0	91.220	0.020	-0.660	0.810
2020/01/31 05:51:09.1	91.230	0.130	-0.840	0.650
2020/01/31 05:51:09.2	91.250	0.180	-0.920	0.570
2020/01/31 05:51:09.3	91.260	0.230	-0.990	0.490
2020/01/31 05:51:09.4	91.270	0.280	-1.050	0.420
2020/01/31 05:51:09.5	91.290	0.330	-1.100	0.340
2020/01/31 05:51:09.6	91.310	0.370	-1.150	0.270
2020/01/31 05:51:09.7	91.330	0.420	-1.180	0.210
2020/01/31 05:51:09.8	91.350	0.450	-1.200	0.150
2020/01/31 05:51:09.9	91.370	0.490	-1.200	0.100
2020/01/31 05:51:10.0	91.390	0.520	-1.200	0.060
2020/01/31 05:51:10.1	91.410	0.550	-1.190	0.020
2020/01/31 05:51:10.2	91.440	0.570	-1.170	-0.020
2020/01/31 05:51:10.3	91.460	0.590	-1.140	-0.040
2020/01/31 05:51:10.4	91.490	0.610	-1.100	-0.060
2020/01/31 05:51:10.5				
2020/01/31 05:51:10.6	91.510	0.620	-1.060	-0.060
2020/01/31 05:51:10.7	91.570	0.630	-0.950	-0.060
2020/01/31 05:51:10.8				
2020/01/31 05:51:10.9	91.600	0.630	-0.890	-0.050
2020/01/31 05:51:11.0				
2020/01/31 05:51:11.1	91.650	0.620	-0.750	-0.010
2020/01/31 05:51:11.2				
2020/01/31 05:51:11.3	91.710	0.600	-0.610	0.060
2020/01/31 05:51:11.4				
2020/01/31 05:51:11.5	91.760	0.560	-0.460	0.140
2020/01/31 05:51:11.6				
2020/01/31 05:51:11.7	91.800	0.510	-0.310	0.240
2020/01/31 05:51:11.8				
2020/01/31 05:51:11.9	91.840	0.450	-0.170	0.350
2020/01/31 05:51:12.0				
2020/01/31 05:51:12.1	91.870	0.380	-0.030	0.460
2020/01/31 05:51:12.2	91.880	0.300	0.090	0.580
2020/01/31 05:51:12.3	91.890	0.260	0.140	0.640
2020/01/31 05:51:12.4				
2020/01/31 05:51:12.5	91.890	0.220	0.190	0.690
2020/01/31 05:51:12.6	91.890	0.180	0.240	0.740
2020/01/31 05:51:12.7	91.890	0.090	0.320	0.840
2020/01/31 05:51:12.8				
2020/01/31 05:51:12.9	91.890	0.040	0.350	0.890
2020/01/31 05:51:13.0	91.870	-0.040	0.400	0.970
2020/01/31 05:51:13.1				
2020/01/31 05:51:13.2	91.860	-0.090	0.410	1.010
2020/01/31 05:51:13.3	91.850	-0.130	0.420	1.040
2020/01/31 05:51:13.4	91.820	-0.200	0.430	1.090
2020/01/31 05:51:13.5				
2020/01/31 05:51:13.6	91.800	-0.240	0.430	1.110
2020/01/31 05:51:13.7	91.770	-0.300	0.400	1.150
2020/01/31 05:51:13.8	91.760	-0.320	0.380	1.160
2020/01/31 05:51:13.9				
2020/01/31 05:51:14.0	91.740	-0.350	0.360	1.160
2020/01/31 05:51:14.1	91.730	-0.360	0.330	1.170
2020/01/31 05:51:14.2	91.700	-0.390	0.260	1.180
2020/01/31 05:51:14.3	91.690	-0.400	0.220	1.180
2020/01/31 05:51:14.4	91.680	-0.400	0.180	1.180
2020/01/31 05:51:14.5	91.670	-0.400	0.140	1.170
2020/01/31 05:51:14.6	91.660	-0.400	0.090	1.170
2020/01/31 05:51:14.7	91.650	-0.390	0.040	1.170
2020/01/31 05:51:14.8	91.640	-0.380	-0.010	1.160
2020/01/31 05:51:14.9				
2020/01/31 05:51:15.0	91.630	-0.360	-0.060	1.150
2020/01/31 05:51:15.1	91.630	-0.350	-0.110	1.150
2020/01/31 05:51:15.2	91.630	-0.320	-0.160	1.140
2020/01/31 05:51:15.3	91.630	-0.300	-0.210	1.120
2020/01/31 05:51:15.4	91.650	-0.250	-0.320	1.090
2020/01/31 05:51:15.5				
2020/01/31 05:51:15.6	91.660	-0.220	-0.370	1.070
2020/01/31 05:51:15.7	91.690	-0.150	-0.460	1.030
2020/01/31 05:51:15.8				
2020/01/31 05:51:15.9	91.710	-0.120	-0.500	1.000
2020/01/31 05:51:16.0				
2020/01/31 05:51:16.1	91.760	-0.050	-0.580	0.930
2020/01/31 05:51:16.2	91.780	-0.010	-0.620	0.900
2020/01/31 05:51:16.3	91.840	0.060	-0.680	0.820
2020/01/31 05:51:16.4	91.860	0.090	-0.700	0.770
2020/01/31 05:51:16.5				
2020/01/31 05:51:16.6	91.890	0.120	-0.720	0.720
2020/01/31 05:51:16.7	91.920	0.150	-0.740	0.680
2020/01/31 05:51:16.8	91.960	0.210	-0.760	0.580
2020/01/31 05:51:16.9	91.990	0.240	-0.770	0.530
2020/01/31 05:51:17.0	92.010	0.260	-0.770	0.480
2020/01/31 05:51:17.1	92.020	0.290	-0.770	0.430
2020/01/31 05:51:17.2				
2020/01/31 05:51:17.3	92.040	0.310	-0.760	0.380
2020/01/31 05:51:17.4	92.050	0.330	-0.750	0.340
2020/01/31 05:51:17.5	92.070	0.360	-0.720	0.260
2020/01/31 05:51:17.6				
2020/01/31 05:51:17.7	92.080	0.370	-0.700	0.220
2020/01/31 05:51:17.8	92.080	0.380	-0.670	0.190
2020/01/31 05:51:17.9	92.090	0.400	-0.620	0.140
2020/01/31 05:51:18.0	92.090	0.400	-0.600	0.120
2020/01/31 05:51:18.1	92.090	0.400	-0.570	0.110
2020/01/31 05:51:18.2				
2020/01/31 05:51:18.3	92.090	0.410	-0.540	0.100
2020/01/31 05:51:18.4	92.080	0.400	-0.510	0.090
2020/01/31 05:51:18.5	92.080	0.400	-0.480	0.100
2020/01/31 05:51:18.6	92.070	0.390	-0.410	0.120
2020/01/31 05:51:18.7				
2020/01/31 05:51:18.8	92.070	0.380	-0.380	0.140
2020/01/31 05:51:18.9	92.060	0.360	-0.310	0.190
2020/01/31 05:51:19.0				
2020/01/31 05:51:19.1	92.050	0.350	-0.280	0.220
2020/01/31 05:51:19.2	92.040	0.340	-0.240	0.250
2020/01/31 05:51:19.3	92.030	0.320	-0.200	0.300
2020/01/31 05:51:19.4				
2020/01/31 05:51:19.5	92.020	0.280	-0.140	0.380
2020/01/31 05:51:19.6				
2020/01/31 05:51:19.7	92.000	0.230	-0.070	0.470
2020/01/31 05:51:19.8	91.990	0.200	-0.030	0.510
2020/01/31 05:51:19.9	91.960	0.140	0.040	0.600
2020/01/31 05:51:20.0	91.950	0.110	0.070	0.640
2020/01/31 05:51:20.1				
2020/01/31 05:51:20.2	91.930	0.070	0.110	0.680
2020/01/31 05:51:20.3	91.920	0.040	0.140	0.710
2020/01/31 05:51:20.4	91.890	-0.040	0.200	0.780
2020/01/31 05:51:20.5	91.870	-0.080	0.230	0.810
2020/01/31 05:51:20.6				
2020/01/31 05:51:20.7	91.860	-0.120	0.260	0.840
2020/01/31 05:51:20.8	91.830	-0.200	0.310	0.890
2020/01/31 05:51:20.9				
2020/01/31 05:51:21.0	91.820	-0.230	0.330	0.900
2020/01/31 05:51:21.1				
2020/01/31 05:51:21.2	91.790	-0.310	0.360	0.930
2020/01/31 05:51:21.3				
2020/01/31 05:51:21.4	91.770	-0.390	0.380	0.950
2020/01/31 05:51:21.5				
2020/01/31 05:51:21.6	91.750	-0.450	0.380	0.960
2020/01/31 05:51:21.7	91.740	-0.480	0.370	0.970
2020/01/31 05:51:21.8	91.730	-0.530	0.340	0.960
2020/01/31 05:51:21.9				
2020/01/31 05:51:22.0	91.730	-0.560	0.320	0.960
2020/01/31 05:51:22.1	91.730	-0.570	0.290	0.960
2020/01/31 05:51:22.2	91.730	-0.590	0.250	0.950
2020/01/31 05:51:22.3	91.720	-0.610	0.170	0.940
2020/01/31 05:51:22.4	91.720	-0.610	0.130	0.930
2020/01/31 05:51:22.5	91.730	-0.610	0.080	0.920
2020/01/31 05:51:22.6				
2020/01/31 05:51:22.7	91.730	-0.610	0.020	0.910
2020/01/31 05:51:22.8	91.740	-0.610	-0.030	0.900
2020/01/31 05:51:22.9	91.750	-0.600	-0.090	0.890
2020/01/31 05:51:23.0	91.770	-0.580	-0.140	0.880
2020/01/31 05:51:23.1	91.780	-0.570	-0.200	0.860
2020/01/31 05:51:23.2	91.800	-0.550	-0.260	0.850
2020/01/31 05:51:23.3	91.840	-0.510	-0.370	0.820
2020/01/31 05:51:23.4	91.860	-0.480	-0.420	0.800
2020/01/31 05:51:23.5	91.890	-0.450	-0.470	0.780
2020/01/31 05:51:23.6				
2020/01/31 05:51:23.7	91.920	-0.420	-0.520	0.770
2020/01/31 05:51:23.8	91.950	-0.390	-0.570	0.750
2020/01/31 05:51:23.9	91.980	-0.360	-0.610	0.730
2020/01/31 05:51:24.0				
2020/01/31 05:51:24.1	92.050	-0.290	-0.680	0.700
2020/01/31 05:51:24.2	92.080	-0.260	-0.710	0.690
2020/01/31 05:51:24.3	92.150	-0.190	-0.760	0.660
2020/01/31 05:51:24.4				
2020/01/31 05:51:24.5	92.180	-0.150	-0.770	0.650
2020/01/31 05:51:24.6	92.250	-0.090	-0.800	0.620
2020/01/31 05:51:24.7	92.290	-0.050	-0.800	0.610
2020/01/31 05:51:24.8				
2020/01/31 05:51:24.9	92.320	-0.020	-0.800	0.610
2020/01/31 05:51:25.0	92.350	0.010	-0.800	0.600
2020/01/31 05:51:25.1				
2020/01/31 05:51:25.2	92.400	0.070	-0.780	0.590
2020/01/31 05:51:25.3	92.440	0.120	-0.750	0.590
2020/01/31 05:51:25.4	92.450	0.140	-0.720	0.590
2020/01/31 05:51:25.5				
2020/01/31 05:51:25.6	92.460	0.160	-0.690	0.600
2020/01/31 05:51:25.7	92.460	0.170	-0.660	0.610
2020/01/31 05:51:25.8	92.460	0.190	-0.620	0.620
2020/01/31 05:51:25.9	92.460	0.200	-0.580	0.630
2020/01/31 05:51:26.0	92.450	0.210	-0.540	0.640
2020/01/31 05:51:26.1	92.440	0.210	-0.490	0.660
2020/01/31 05:51:26.2	92.430	0.220	-0.440	0.670
2020/01/31 05:51:26.3				
2020/01/31 05:51:26.4	92.390	0.220	-0.320	0.710
2020/01/31 05:51:26.5	92.370	0.210	-0.260	0.730
2020/01/31 05:51:26.6	92.340	0.210	-0.200	0.750
2020/01/31 05:51:26.7	92.310	0.200	-0.140	0.780
2020/01/31 05:51:26.8	92.270	0.180	-0.080	0.800
2020/01/31 05:51:26.9	92.240	0.170	-0.010	0.820
2020/01/31 05:51:27.0	92.200	0.160	0.050	0.840
2020/01/31 05:51:27.1	92.160	0.140	0.110	0.870
2020/01/31 05:51:27.2	92.120	0.120	0.160	0.890
2020/01/31 05:51:27.3				
2020/01/31 05:51:27.4	92.050	0.080	0.270	0.930
2020/01/31 05:51:27.5	92.010	0.060	0.320	0.940
2020/01/31 05:51:27.6	91.970	0.040	0.360	0.960
2020/01/31 05:51:27.7	91.930	0.030	0.390	0.970
2020/01/31 05:51:27.8	91.890	0.010	0.420	0.970
2020/01/31 05:51:27.9	91.860	-0.010	0.440	0.980
2020/01/31 05:51:28.0	91.790	-0.030	0.450	0.980
2020/01/31 05:51:28.1	91.760	-0.040	0.440	0.980
2020/01/31 05:51:28.2				
2020/01/31 05:51:28.3	91.730	-0.050	0.430	0.970
2020/01/31 05:51:28.4	91.710	-0.050	0.400	0.960
2020/01/31 05:51:28.5	91.680	-0.050	0.360	0.950
2020/01/31 05:51:28.6	91.660	-0.050	0.320	0.930
2020/01/31 05:51:28.7	91.640	-0.040	0.260	0.920
2020/01/31 05:51:28.8	91.600	-0.010	0.130	0.880
2020/01/31 05:51:28.9	91.580	0.010	0.060	0.860
2020/01/31 05:51:29.0	91.560	0.030	-0.030	0.840
2020/01/31 05:51:29.1	91.540	0.060	-0.120	0.810
2020/01/31 05:51:29.2	91.530	0.090	-0.210	0.790
2020/01/31 05:51:29.3				
2020/01/31 05:51:29.4	91.520	0.120	-0.300	0.760
2020/01/31 05:51:29.5	91.510	0.160	-0.400	0.740
2020/01/31 05:51:29.6	91.500	0.200	-0.490	0.710
2020/01/31 05:51:29.7	91.490	0.240	-0.590	0.680
2020/01/31 05:51:29.8	91.490	0.290	-0.680	0.660
2020/01/31 05:51:29.9	91.490	0.330	-0.760	0.630
2020/01/31 05:51:30.0	91.500	0.370	-0.840	0.590
2020/01/31 05:51:30.1	91.510	0.420	-0.920	0.560
2020/01/31 05:51:30.2	91.520	0.460	-0.990	0.530
2020/01/31 05:51:30.3	91.560	0.540	-1.100	0.480
2020/01/31 05:51:30.4	91.580	0.580	-1.140	0.450
2020/01/31 05:51:30.5				
2020/01/31 05:51:30.6	91.600	0.610	-1.180	0.430
2020/01/31 05:51:30.7	91.630	0.640	-1.200	0.410
2020/01/31 05:51:30.8	91.650	0.670	-1.210	0.390
2020/01/31 05:51:30.9	91.680	0.690	-1.220	0.380
2020/01/31 05:51:31.0				
2020/01/31 05:51:31.1	91.740	0.720	-1.200	0.370
2020/01/31 05:51:31.2	91.780	0.730	-1.170	0.370
2020/01/31 05:51:31.3	91.840	0.720	-1.090	0.390
2020/01/31 05:51:31.4	91.870	0.710	-1.040	0.400
2020/01/31 05:51:31.5				
2020/01/31 05:51:31.6	91.900	0.700	-0.970	0.420
2020/01/31 05:51:31.7	91.930	0.680	-0.900	0.440
2020/01/31 05:51:31.8	91.960	0.650	-0.820	0.460
2020/01/31 05:51:31.9	91.990	0.620	-0.730	0.490
2020/01/31 05:51:32.0	92.010	0.580	-0.640	0.530
2020/01/31 05:51:32.1	92.040	0.530	-0.540	0.560
2020/01/31 05:51:32.2	92.060	0.480	-0.430	0.600
2020/01/31 05:51:32.3	92.100	0.370	-0.200	0.680
2020/01/31 05:51:32.4	92.120	0.310	-0.090	0.730
2020/01/31 05:51:32.5	92.140	0.250	0.030	0.770
2020/01/31 05:51:32.6				
2020/01/31 05:51:32.7	92.150	0.190	0.150	0.810
2020/01/31 05:51:32.8	92.170	0.120	0.260	0.860
2020/01/31 05:51:32.9	92.180	0.050	0.380	0.900
2020/01/31 05:51:33.0	92.190	-0.020	0.490	0.950
2020/01/31 05:51:33.1	92.200	-0.090	0.600	0.990
2020/01/31 05:51:33.2	92.210	-0.160	0.700	1.040
2020/01/31 05:51:33.3				
2020/01/31 05:51:33.4	92.220	-0.300	0.880	1.120
2020/01/31 05:51:33.5	92.230	-0.360	0.960	1.150
2020/01/31 05:51:33.6	92.230	-0.420	1.040	1.190
2020/01/31 05:51:33.7	92.240	-0.480	1.100	1.220
2020/01/31 05:51:33.8	92.240	-0.540	1.150	1.250
2020/01/31 05:51:33.9	92.240	-0.590	1.190	1.280
2020/01/31 05:51:34.0	92.240	-0.670	1.240	1.330
2020/01/31 05:51:34.1				
2020/01/31 05:51:34.2	92.240	-0.710	1.240	1.350
2020/01/31 05:51:34.3				
2020/01/31 05:51:34.4	92.250	-0.760	1.210	1.380
2020/01/31 05:51:34.5	92.250	-0.780	1.170	1.390
2020/01/31 05:51:34.6	92.250	-0.790	1.120	1.400
2020/01/31 05:51:34.7	92.250	-0.790	1.050	1.400
2020/01/31 05:51:34.8	92.260	-0.780	0.890	1.410
2020/01/31 05:51:34.9				
2020/01/31 05:51:35.0	92.260	-0.770	0.800	1.400
2020/01/31 05:51:35.1	92.260	-0.750	0.700	1.400
2020/01/31 05:51:35.2	92.260	-0.730	0.590	1.390
2020/01/31 05:51:35.3	92.260	-0.700	0.470	1.380
2020/01/31 05:51:35.4	92.260	-0.670	0.350	1.370
2020/01/31 05:51:35.5	92.250	-0.590	0.100	1.350
2020/01/31 05:51:35.6	92.250	-0.550	-0.020	1.340
2020/01/31 05:51:35.7	92.240	-0.510	-0.140	1.320
2020/01/31 05:51:35.8	92.240	-0.470	-0.260	1.300
2020/01/31 05:51:35.9				
2020/01/31 05:51:36.0	92.230	-0.420	-0.370	1.280
2020/01/31 05:51:36.1				
2020/01/31 05:51:36.2	92.210	-0.330	-0.570	1.230
2020/01/31 05:51:36.3	92.210	-0.290	-0.670	1.200
2020/01/31 05:51:36.4	92.200	-0.250	-0.750	1.170
2020/01/31 05:51:36.5	92.190	-0.210	-0.830	1.140
2020/01/31 05:51:36.6	92.170	-0.140	-0.950	1.080
2020/01/31 05:51:36.7	92.160	-0.100	-1.000	1.040
2020/01/31 05:51:36.8	92.140	-0.070	-1.040	1.010
2020/01/31 05:51:36.9	92.130	-0.050	-1.070	0.980
2020/01/31 05:51:37.0	92.120	-0.020	-1.090	0.950
2020/01/31 05:51:37.1	92.110	-0.000	-1.100	0.920
2020/01/31 05:51:37.2				
2020/01/31 05:51:37.3	92.100	0.020	-1.110	0.890
2020/01/31 05:51:37.4	92.080	0.050	-1.100	0.830
2020/01/31 05:51:37.5				
2020/01/31 05:51:37.6	92.070	0.060	-1.090	0.810
2020/01/31 05:51:37.7	92.070	0.070	-1.070	0.780
2020/01/31 05:51:37.8	92.060	0.090	-1.020	0.740
2020/01/31 05:51:37.9	92.050	0.090	-1.000	0.720
2020/01/31 05:51:38.0				
2020/01/31 05:51:38.1	92.050	0.100	-0.970	0.700
2020/01/31 05:51:38.2	92.050	0.100	-0.950	0.680
2020/01/31 05:51:38.3	92.050	0.110	-0.920	0.650
2020/01/31 05:51:38.4	92.050	0.110	-0.890	0.630
2020/01/31 05:51:38.5	92.050	0.120	-0.870	0.610
2020/01/31 05:51:38.6	92.060	0.130	-0.840	0.590
2020/01/31 05:51:38.7	92.070	0.140	-0.800	0.540
2020/01/31 05:51:38.8	92.070	0.150	-0.780	0.520
2020/01/31 05:51:38.9	92.080	0.160	-0.760	0.500
2020/01/31 05:51:39.0	92.090	0.170	-0.740	0.480
2020/01/31 05:51:39.1	92.090	0.190	-0.720	0.460
2020/01/31 05:51:39.2	92.100	0.200	-0.710	0.430
2020/01/31 05:51:39.3				
2020/01/31 05:51:39.4	92.110	0.210	-0.690	0.410
2020/01/31 05:51:39.5	92.110	0.230	-0.680	0.400
2020/01/31 05:51:39.6	92.120	0.240	-0.660	0.380
2020/01/31 05:51:39.7	92.120	0.260	-0.640	0.370
2020/01/31 05:51:39.8	92.130	0.270	-0.630	0.360
2020/01/31 05:51:39.9	92.130	0.290	-0.610	0.360
2020/01/31 05:51:40.0	92.130	0.300	-0.600	0.360
2020/01/31 05:51:40.1	92.130	0.320	-0.590	0.360
2020/01/31 05:51:40.2	92.130	0.330	-0.570	0.370
2020/01/31 05:51:40.3				
2020/01/31 05:51:40.4	92.120	0.360	-0.540	0.390
2020/01/31 05:51:40.5	92.110	0.370	-0.530	0.410
2020/01/31 05:51:40.6	92.100	0.380	-0.510	0.430
2020/01/31 05:51:40.7	92.100	0.400	-0.500	0.450
2020/01/31 05:51:40.8	92.090	0.410	-0.490	0.480
2020/01/31 05:51:40.9	92.080	0.410	-0.470	0.510
2020/01/31 05:51:41.0	92.070	0.420	-0.450	0.540
2020/01/31 05:51:41.1	92.060	0.420	-0.440	0.570
2020/01/31 05:51:41.2	92.030	0.420	-0.400	0.630
2020/01/31 05:51:41.3	92.020	0.420	-0.370	0.660
2020/01/31 05:51:41.4	92.010	0.410	-0.340	0.690
2020/01/31 05:51:41.5	92.000	0.400	-0.310	0.720
2020/01/31 05:51:41.6	91.980	0.390	-0.270	0.750
2020/01/31 05:51:41.7	91.970	0.370	-0.230	0.780
2020/01/31 05:51:41.8				
2020/01/31 05:51:41.9	91.960	0.350	-0.190	0.810
2020/01/31 05:51:42.0	91.950	0.330	-0.140	0.840
2020/01/31 05:51:42.1	91.940	0.300	-0.080	0.870
2020/01/31 05:51:42.2	91.940	0.270	-0.030	0.900
2020/01/31 05:51:42.3				
2020/01/31 05:51:42.4	91.930	0.200	0.100	0.950
2020/01/31 05:51:42.5				
2020/01/31 05:51:42.6	91.920	0.110	0.240	1.010
2020/01/31 05:51:42.7	91.910	0.060	0.310	1.030
2020/01/31 05:51:42.8	91.910	0.010	0.380	1.060
2020/01/31 05:51:42.9	91.910	-0.040	0.450	1.080
2020/01/31 05:51:43.0	91.910	-0.090	0.520	1.110
2020/01/31 05:51:43.1	91.910	-0.150	0.580	1.130
2020/01/31 05:51:43.2	91.910	-0.200	0.650	1.150
2020/01/31 05:51:43.3	91.920	-0.250	0.710	1.170
2020/01/31 05:51:43.4	91.920	-0.310	0.760	1.180
2020/01/31 05:51:43.5	91.930	-0.360	0.810	1.190
2020/01/31 05:51:43.6	91.930	-0.410	0.850	1.200
2020/01/31 05:51:43.7	91.940	-0.450	0.880	1.210
2020/01/31 05:51:43.8	91.950	-0.500	0.910	1.220
2020/01/31 05:51:43.9	91.950	-0.540	0.920	1.220
2020/01/31 05:51:44.0	91.960	-0.570	0.920	1.210
2020/01/31 05:51:44.1	91.960	-0.600	0.920	1.210
2020/01/31 05:51:44.2	91.970	-0.630	0.900	1.200
2020/01/31 05:51:44.3	91.980	-0.650	0.870	1.190
2020/01/31 05:51:44.4	91.990	-0.660	0.840	1.180
2020/01/31 05:51:44.5	91.990	-0.670	0.790	1.170
2020/01/31 05:51:44.6	92.000	-0.670	0.730	1.150
2020/01/31 05:51:44.7	92.000	-0.660	0.660	1.130
2020/01/31 05:51:44.8	92.010	-0.650	0.590	1.110
2020/01/31 05:51:44.9	92.010	-0.640	0.500	1.090
2020/01/31 05:51:45.0	92.010	-0.610	0.420	1.060
2020/01/31 05:51:45.1	92.020	-0.590	0.320	1.040
2020/01/31 05:51:45.2	92.020	-0.560	0.220	1.020
2020/01/31 05:51:45.3	92.030	-0.520	0.110	0.990
2020/01/31 05:51:45.4	92.040	-0.480	0.010	0.960
2020/01/31 05:51:45.5	92.040	-0.440	-0.100	0.940
2020/01/31 05:51:45.6	92.050	-0.390	-0.210	0.920
2020/01/31 05:51:45.7	92.050	-0.340	-0.310	0.900
2020/01/31 05:51:45.8	92.060	-0.290	-0.410	0.880
2020/01/31 05:51:45.9				
2020/01/31 05:51:46.0	92.070	-0.190	-0.610	0.840
2020/01/31 05:51:46.1	92.080	-0.130	-0.700	0.830
2020/01/31 05:51:46.2	92.080	-0.080	-0.780	0.810
2020/01/31 05:51:46.3	92.100	-0.030	-0.860	0.800
2020/01/31 05:51:46.4	92.100	0.020	-0.920	0.790
2020/01/31 05:51:46.5				
2020/01/31 05:51:46.6	92.120	0.110	-1.040	0.770
2020/01/31 05:51:46.7	92.130	0.160	-1.080	0.760
2020/01/31 05:51:46.8	92.140	0.200	-1.110	0.750
2020/01/31 05:51:46.9	92.150	0.230	-1.140	0.750
2020/01/31 05:51:47.0	92.160	0.270	-1.150	0.740
2020/01/31 05:51:47.1	92.170	0.300	-1.160	0.740
2020/01/31 05:51:47.2	92.180	0.330	-1.160	0.740
2020/01/31 05:51:47.3	92.190	0.350	-1.150	0.730
2020/01/31 05:51:47.4	92.200	0.370	-1.120	0.720
2020/01/31 05:51:47.5				
2020/01/31 05:51:47.6	92.230	0.400	-1.050	0.720
2020/01/31 05:51:47.7	92.250	0.410	-1.010	0.720
2020/01/31 05:51:47.8	92.260	0.410	-0.950	0.720
2020/01/31 05:51:47.9	92.280	0.410	-0.890	0.720
2020/01/31 05:51:48.0	92.290	0.410	-0.820	0.730
2020/01/31 05:51:48.1	92.320	0.400	-0.660	0.730
2020/01/31 05:51:48.2				
2020/01/31 05:51:48.3	92.320	0.390	-0.570	0.740
2020/01/31 05:51:48.4	92.330	0.370	-0.490	0.750
2020/01/31 05:51:48.5	92.340	0.360	-0.400	0.760
2020/01/31 05:51:48.6	92.350	0.340	-0.310	0.770
2020/01/31 05:51:48.7	92.350	0.320	-0.210	0.790
2020/01/31 05:51:48.8	92.350	0.300	-0.120	0.800
2020/01/31 05:51:48.9	92.350	0.270	-0.030	0.820
2020/01/31 05:51:49.0	92.350	0.250	0.050	0.840
2020/01/31 05:51:49.1	92.340	0.230	0.140	0.870
2020/01/31 05:51:49.2	92.330	0.200	0.210	0.890
2020/01/31 05:51:49.3	92.320	0.170	0.290	0.920
2020/01/31 05:51:49.4	92.310	0.150	0.360	0.950
2020/01/31 05:51:49.5	92.290	0.120	0.420	0.980
2020/01/31 05:51:49.6	92.280	0.090	0.470	1.000
2020/01/31 05:51:49.7	92.260	0.060	0.510	1.030
2020/01/31 05:51:49.8				
2020/01/31 05:51:49.9	92.220	0.010	0.570	1.090
2020/01/31 05:51:50.0	92.190	-0.010	0.580	1.120
2020/01/31 05:51:50.1	92.170	-0.030	0.590	1.140
2020/01/31 05:51:50.2	92.140	-0.050	0.580	1.160
2020/01/31 05:51:50.3	92.120	-0.070	0.560	1.180
2020/01/31 05:51:50.4	92.060	-0.110	0.500	1.220
2020/01/31 05:51:50.5				
2020/01/31 05:51:50.6	92.040	-0.120	0.450	1.230
2020/01/31 05:51:50.7	92.020	-0.130	0.390	1.230
2020/01/31 05:51:50.8	91.990	-0.140	0.330	1.240
2020/01/31 05:51:50.9	91.970	-0.140	0.250	1.240
2020/01/31 05:51:51.0	91.950	-0.140	0.170	1.240
2020/01/31 05:51:51.1	91.930	-0.140	0.090	1.230
2020/01/31 05:51:51.2	91.910	-0.140	-0.010	1.220
2020/01/31 05:51:51.3	91.900	-0.130	-0.100	1.200
2020/01/31 05:51:51.4	91.890	-0.120	-0.210	1.190
2020/01/31 05:51:51.5	91.880	-0.110	-0.310	1.170
2020/01/31 05:51:51.6	91.870	-0.090	-0.420	1.150
2020/01/31 05:51:51.7	91.870	-0.080	-0.520	1.130
2020/01/31 05:51:51.8	91.870	-0.060	-0.630	1.100
2020/01/31 05:51:51.9	91.870	-0.030	-0.730	1.080
2020/01/31 05:51:52.0	91.870	-0.010	-0.820	1.050
2020/01/31 05:51:52.1	91.880	0.010	-0.920	1.030
2020/01/31 05:51:52.2	91.890	0.040	-1.000	1.000
2020/01/31 05:51:52.3	91.900	0.070	-1.090	0.980
2020/01/31 05:51:52.4	91.910	0.090	-1.160	0.960
2020/01/31 05:51:52.5	91.930	0.120	-1.220	0.940
2020/01/31 05:51:52.6	91.950	0.150	-1.280	0.930
2020/01/31 05:51:52.7	91.970	0.170	-1.320	0.910
2020/01/31 05:51:52.8	91.990	0.200	-1.350	0.900
2020/01/31 05:51:52.9	92.010	0.220	-1.370	0.890
2020/01/31 05:51:53.0	92.030	0.240	-1.380	0.880
2020/01/31 05:51:53.1	92.060	0.260	-1.380	0.880
2020/01/31 05:51:53.2	92.080	0.280	-1.360	0.880
2020/01/31 05:51:53.3	92.110	0.290	-1.340	0.880
2020/01/31 05:51:53.4	92.130	0.310	-1.300	0.880
2020/01/31 05:51:53.5	92.150	0.310	-1.250	0.890
2020/01/31 05:51:53.6	92.170	0.320	-1.200	0.900
2020/01/31 05:51:53.7	92.190	0.320	-1.130	0.910
2020/01/31 05:51:53.8	92.210	0.320	-1.060	0.920
2020/01/31 05:51:53.9	92.220	0.310	-0.970	0.940
2020/01/31 05:51:54.0	92.240	0.300	-0.880	0.950
2020/01/31 05:51:54.1	92.250	0.290	-0.790	0.970
2020/01/31 05:51:54.2	92.250	0.270	-0.690	0.990
2020/01/31 05:51:54.3	92.250	0.250	-0.580	1.010
2020/01/31 05:51:54.4	92.250	0.220	-0.470	1.030
2020/01/31 05:51:54.5	92.240	0.200	-0.360	1.050
2020/01/31 05:51:54.6	92.240	0.160	-0.250	1.070
2020/01/31 05:51:54.7	92.220	0.130	-0.130	1.090
2020/01/31 05:51:54.8	92.210	0.090	-0.020	1.110
2020/01/31 05:51:54.9	92.190	0.060	0.090	1.130
2020/01/31 05:51:55.0	92.160	0.010	0.200	1.150
2020/01/31 05:51:55.1	92.140	-0.030	0.310	1.170
2020/01/31 05:51:55.2	92.110	-0.070	0.420	1.190
2020/01/31 05:51:55.3	92.080	-0.120	0.520	1.210
2020/01/31 05:51:55.4	92.040	-0.160	0.610	1.220
2020/01/31 05:51:55.5	92.010	-0.210	0.700	1.240
2020/01/31 05:51:55.6	91.970	-0.260	0.790	1.250
2020/01/31 05:51:55.7	91.940	-0.300	0.860	1.270
2020/01/31 05:51:55.8	91.900	-0.340	0.930	1.280
2020/01/31 05:51:55.9	91.860	-0.390	0.990	1.280
2020/01/31 05:51:56.0	91.830	-0.430	1.050	1.290
2020/01/31 05:51:56.1	91.800	-0.470	1.090	1.300
2020/01/31 05:51:56.2	91.760	-0.500	1.120	1.300
2020/01/31 05:51:56.3	91.740	-0.530	1.140	1.300
2020/01/31 05:51:56.4	91.710	-0.560	1.160	1.290
2020/01/31 05:51:56.5	91.690	-0.590	1.160	1.280
2020/01/31 05:51:56.6	91.670	-0.610	1.150	1.270
2020/01/31 05:51:56.7	91.650	-0.620	1.120	1.250
2020/01/31 05:51:56.8	91.640	-0.630	1.090	1.220
2020/01/31 05:51:56.9	91.630	-0.640	1.040	1.190
2020/01/31 05:51:57.0	91.630	-0.640	0.980	1.160
2020/01/31 05:51:57.1	91.630	-0.630	0.910	1.120
2020/01/31 05:51:57.2	91.640	-0.620	0.830	1.070
2020/01/31 05:51:57.3	91.650	-0.600	0.740	1.020
2020/01/31 05:51:57.4	91.660	-0.580	0.640	0.960
2020/01/31 05:51:57.5	91.680	-0.550	0.530	0.910
2020/01/31 05:51:57.6	91.700	-0.510	0.410	0.850
2020/01/31 05:51:57.7	91.730	-0.470	0.290	0.780
2020/01/31 05:51:57.8	91.750	-0.430	0.160	0.720
2020/01/31 05:51:57.9	91.780	-0.380	0.030	0.650
2020/01/31 05:51:58.0	91.810	-0.330	-0.110	0.590
2020/01/31 05:51:58.1	91.840	-0.280	-0.250	0.520
2020/01/31 05:51:58.2	91.880	-0.220	-0.380	0.460
2020/01/31 05:51:58.3	91.910	-0.160	-0.520	0.390
2020/01/31 05:51:58.4	91.940	-0.100	-0.650	0.340
2020/01/31 05:51:58.5	91.970	-0.030	-0.780	0.280
2020/01/31 05:51:58.6	92.000	0.030	-0.900	0.230
2020/01/31 05:51:58.7	92.030	0.090	-1.010	0.180
2020/01/31 05:51:58.8	92.060	0.160	-1.110	0.140
2020/01/31 05:51:58.9	92.080	0.220	-1.210	0.110
2020/01/31 05:51:59.0	92.100	0.280	-1.290	0.070
2020/01/31 05:51:59.1	92.120	0.330	-1.360	0.050
2020/01/31 05:51:59.2	92.130	0.380	-1.410	0.030
2020/01/31 05:51:59.3	92.140	0.430	-1.450	0.020
2020/01/31 05:51:59.4	92.150	0.480	-1.480	0.020
2020/01/31 05:51:59.5	92.150	0.520	-1.500	0.020
2020/01/31 05:51:59.6	92.160	0.550	-1.500	0.020
2020/01/31 05:51:59.7	92.150	0.580	-1.490	0.040
2020/01/31 05:51:59.8	92.150	0.600	-1.470	0.060
2020/01/31 05:51:59.9	92.140	0.620	-1.440	0.080
2020/01/31 05:52:00.0	92.130	0.630	-1.390	0.110
2020/01/31 05:52:00.1	92.120	0.630	-1.330	0.140
2020/01/31 05:52:00.2	92.110	0.630	-1.260	0.180
2020/01/31 05:52:00.3	92.080	0.620	-1.190	0.220
2020/01/31 05:52:00.4	92.070	0.610	-1.100	0.270
2020/01/31 05:52:00.5	92.050	0.590	-1.010	0.320
2020/01/31 05:52:00.6	92.030	0.560	-0.920	0.370
2020/01/31 05:52:00.7	92.020	0.530	-0.810	0.420
2020/01/31 05:52:00.8	92.000	0.500	-0.710	0.480
2020/01/31 05:52:00.9	91.980	0.460	-0.600	0.530
2020/01/31 05:52:01.0	91.960	0.420	-0.500	0.590
2020/01/31 05:52:01.1	91.950	0.370	-0.390	0.650
2020/01/31 05:52:01.2	91.930	0.320	-0.290	0.710
2020/01/31 05:52:01.3	91.910	0.270	-0.180	0.770
2020/01/31 05:52:01.4	91.900	0.220	-0.080	0.820
2020/01/31 05:52:01.5	91.890	0.170	0.010	0.880
2020/01/31 05:52:01.6	91.880	0.120	0.090	0.930
2020/01/31 05:52:01.7	91.880	0.070	0.170	0.980
2020/01/31 05:52:01.8	91.870	0.020	0.250	1.030
2020/01/31 05:52:01.9	91.870	-0.030	0.310	1.070
2020/01/31 05:52:02.0	91.870	-0.080	0.360	1.110
2020/01/31 05:52:02.1	91.870	-0.120	0.410	1.140
2020/01/31 05:52:02.2	91.870	-0.160	0.450	1.170
2020/01/31 05:52:02.3	91.870	-0.200	0.470	1.200
2020/01/31 05:52:02.4	91.870	-0.240	0.490	1.220
2020/01/31 05:52:02.5	91.880	-0.270	0.500	1.240
2020/01/31 05:52:02.6	91.880	-0.290	0.500	1.250
2020/01/31 05:52:02.7	91.880	-0.310	0.490	1.260
2020/01/31 05:52:02.8	91.880	-0.330	0.470	1.270
2020/01/31 05:52:02.9	91.880	-0.340	0.440	1.280
2020/01/31 05:52:03.0	91.880	-0.350	0.410	1.280
2020/01/31 05:52:03.1	91.880	-0.360	0.370	1.270
2020/01/31 05:52:03.2	91.890	-0.360	0.330	1.270
2020/01/31 05:52:03.3	91.890	-0.350	0.280	1.260
2020/01/31 05:52:03.4	91.890	-0.350	0.230	1.240
2020/01/31 05:52:03.5	91.890	-0.340	0.180	1.230
2020/01/31 05:52:03.6	91.890	-0.330	0.120	1.210
2020/01/31 05:52:03.7	91.890	-0.310	0.070	1.190
2020/01/31 05:52:03.8	91.900	-0.300	0.010	1.170
2020/01/31 05:52:03.9	91.900	-0.280	-0.040	1.150
2020/01/31 05:52:04.0	91.910	-0.260	-0.090	1.130
2020/01/31 05:52:04.1	91.920	-0.240	-0.140	1.100
2020/01/31 05:52:04.2	91.920	-0.220	-0.180	1.080
2020/01/31 05:52:04.3	91.930	-0.200	-0.220	1.060
2020/01/31 05:52:04.4	91.930	-0.180	-0.260	1.050
2020/01/31 05:52:04.5	91.940	-0.160	-0.290	1.030
2020/01/31 05:52:04.6	91.950	-0.140	-0.320	1.020
2020/01/31 05:52:04.7	91.950	-0.120	-0.350	1.010
2020/01/31 05:52:04.8	91.950	-0.110	-0.360	1.000
2020/01/31 05:52:04.9	91.950	-0.090	-0.380	1.000
2020/01/31 05:52:05.0	91.960	-0.080	-0.390	1.000
2020/01/31 05:52:05.1	91.950	-0.060	-0.390	1.000
2020/01/31 05:52:05.2	91.950	-0.050	-0.390	1.010
2020/01/31 05:52:05.3	91.940	-0.040	-0.390	1.010
2020/01/31 05:52:05.4	91.940	-0.030	-0.380	1.030
2020/01/31 05:52:05.5	91.930	-0.030	-0.360	1.040
2020/01/31 05:52:05.6	91.920	-0.020	-0.350	1.050
2020/01/31 05:52:05.7	91.900	-0.020	-0.330	1.070
2020/01/31 05:52:05.8	91.890	-0.020	-0.310	1.090
2020/01/31 05:52:05.9	91.880	-0.020	-0.280	1.100
2020/01/31 05:52:06.0	91.860	-0.020	-0.260	1.120
2020/01/31 05:52:06.1	91.850	-0.020	-0.230	1.130
2020/01/31 05:52:06.2	91.830	-0.030	-0.200	1.150
2020/01/31 05:52:06.3	91.820	-0.030	-0.180	1.160
2020/01/31 05:52:06.4	91.810	-0.040	-0.150	1.160
2020/01/31 05:52:06.5	91.800	-0.040	-0.120	1.170
2020/01/31 05:52:06.6	91.790	-0.050	-0.100	1.160
2020/01/31 05:52:06.7	91.790	-0.060	-0.070	1.160
2020/01/31 05:52:06.8	91.780	-0.060	-0.050	1.150
2020/01/31 05:52:06.9	91.780	-0.070	-0.030	1.130
2020/01/31 05:52:07.0	91.780	-0.080	-0.010	1.110
2020/01/31 05:52:07.1	91.780	-0.090	0.000	1.090
2020/01/31 05:52:07.2	91.790	-0.090	0.020	1.070
2020/01/31 05:52:07.3	91.790	-0.100	0.030	1.040
2020/01/31 05:52:07.4	91.800	-0.100	0.040	1.010
2020/01/31 05:52:07.5	91.810	-0.110	0.040	0.980
2020/01/31 05:52:07.6	91.820	-0.110	0.040	0.950
2020/01/31 05:52:07.7	91.830	-0.110	0.030	0.920
2020/01/31 05:52:07.8	91.840	-0.110	0.030	0.890
2020/01/31 05:52:07.9	91.860	-0.110	0.020	0.850
2020/01/31 05:52:08.0	91.870	-0.110	0.000	0.820
2020/01/31 05:52:08.1	91.890	-0.110	-0.010	0.800
2020/01/31 05:52:08.2	91.910	-0.100	-0.030	0.770
2020/01/31 05:52:08.3	91.910	-0.100	-0.060	0.740
2020/01/31 05:52:08.4	91.930	-0.090	-0.080	0.720
2020/01/31 05:52:08.5	91.950	-0.080	-0.110	0.700
2020/01/31 05:52:08.6	91.960	-0.070	-0.130	0.680
2020/01/31 05:52:08.7	91.980	-0.060	-0.160	0.670
2020/01/31 05:52:08.8	92.000	-0.040	-0.190	0.650
2020/01/31 05:52:08.9	92.010	-0.030	-0.220	0.640
2020/01/31 05:52:09.0	92.030	-0.010	-0.250	0.630
2020/01/31 05:52:09.1	92.040	0.000	-0.280	0.620
2020/01/31 05:52:09.2	92.060	0.020	-0.310	0.620
2020/01/31 05:52:09.3	92.070	0.040	-0.340	0.620
2020/01/31 05:52:09.4	92.080	0.060	-0.370	0.610
2020/01/31 05:52:09.5	92.090	0.080	-0.400	0.610
2020/01/31 05:52:09.6	92.100	0.100	-0.430	0.610
2020/01/31 05:52:09.7	92.110	0.120	-0.460	0.610
2020/01/31 05:52:09.8	92.120	0.140	-0.490	0.610
2020/01/31 05:52:09.9	92.130	0.150	-0.520	0.610
2020/01/31 05:52:10.0	92.130	0.170	-0.540	0.610
2020/01/31 05:52:10.1	92.140	0.190	-0.570	0.610
2020/01/31 05:52:10.2	92.140	0.210	-0.590	0.610
2020/01/31 05:52:10.3	92.150	0.230	-0.610	0.610
2020/01/31 05:52:10.4	92.150	0.240	-0.630	0.620
2020/01/31 05:52:10.5	92.150	0.260	-0.650	0.620
2020/01/31 05:52:10.6	92.150	0.270	-0.670	0.630
2020/01/31 05:52:10.7	92.150	0.290	-0.690	0.640
2020/01/31 05:52:10.8	92.150	0.300	-0.700	0.650
2020/01/31 05:52:10.9	92.140	0.310	-0.710	0.660
2020/01/31 05:52:11.0	92.140	0.320	-0.720	0.680
2020/01/31 05:52:11.1	92.140	0.330	-0.730	0.690
2020/01/31 05:52:11.2	92.130	0.340	-0.740	0.710
2020/01/31 05:52:11.3	92.120	0.350	-0.740	0.720
2020/01/31 05:52:11.4	92.110	0.360	-0.750	0.740
2020/01/31 05:52:11.5	92.110	0.370	-0.750	0.770
2020/01/31 05:52:11.6	92.100	0.380	-0.740	0.790
2020/01/31 05:52:11.7	92.090	0.380	-0.740	0.810
2020/01/31 05:52:11.8	92.080	0.390	-0.730	0.840
2020/01/31 05:52:11.9	92.080	0.400	-0.730	0.870
2020/01/31 05:52:12.0	92.070	0.400	-0.710	0.900
2020/01/31 05:52:12.1	92.050	0.400	-0.700	0.930
2020/01/31 05:52:12.2	92.040	0.400	-0.680	0.960
2020/01/31 05:52:12.3	92.030	0.410	-0.660	0.990
2020/01/31 05:52:12.4	92.020	0.400	-0.630	1.020
2020/01/31 05:52:12.5	92.010	0.400	-0.610	1.050
2020/01/31 05:52:12.6	91.990	0.400	-0.570	1.080
2020/01/31 05:52:12.7	91.980	0.390	-0.530	1.100
2020/01/31 05:52:12.8	91.970	0.380	-0.490	1.130
2020/01/31 05:52:12.9	91.960	0.370	-0.450	1.150
2020/01/31 05:52:13.0	91.950	0.360	-0.400	1.180
2020/01/31 05:52:13.1	91.950	0.350	-0.350	1.200
2020/01/31 05:52:13.2	91.940	0.330	-0.290	1.220
2020/01/31 05:52:13.3	91.920	0.310	-0.240	1.230
2020/01/31 05:52:13.4	91.910	0.290	-0.180	1.240
2020/01/31 05:52:13.5	91.910	0.260	-0.110	1.260
2020/01/31 05:52:13.6	91.900	0.240	-0.050	1.270
2020/01/31 05:52:13.7	91.890	0.210	0.020	1.280
2020/01/31 05:52:13.8	91.880	0.170	0.080	1.280
2020/01/31 05:52:13.9	91.880	0.140	0.140	1.290
2020/01/31 05:52:14.0	91.870	0.110	0.210	1.280
2020/01/31 05:52:14.1	91.870	0.070	0.270	1.280
2020/01/31 05:52:14.2	91.870	0.030	0.330	1.280
2020/01/31 05:52:14.3	91.870	-0.010	0.390	1.270
2020/01/31 05:52:14.4	91.870	-0.050	0.440	1.260
2020/01/31 05:52:14.5	91.870	-0.090	0.480	1.240
2020/01/31 05:52:14.6	91.870	-0.130	0.530	1.220
2020/01/31 05:52:14.7	91.880	-0.170	0.560	1.200
2020/01/31 05:52:14.8	91.880	-0.200	0.590	1.170
2020/01/31 05:52:14.9	91.890	-0.240	0.610	1.140
2020/01/31 05:52:15.0	91.900	-0.270	0.620	1.110
2020/01/31 05:52:15.1	91.910	-0.310	0.620	1.080
2020/01/31 05:52:15.2	91.920	-0.340	0.620	1.040
2020/01/31 05:52:15.3	91.940	-0.360	0.610	1.000
2020/01/31 05:52:15.4	91.950	-0.390	0.590	0.960
2020/01/31 05:52:15.5	91.970	-0.410	0.570	0.910
2020/01/31 05:52:15.6	91.990	-0.420	0.530	0.870
2020/01/31 05:52:15.7	92.010	-0.440	0.500	0.830
2020/01/31 05:52:15.8	92.020	-0.450	0.450	0.790
2020/01/31 05:52:15.9	92.040	-0.450	0.400	0.750
2020/01/31 05:52:16.0	92.060	-0.460	0.350	0.710
2020/01/31 05:52:16.1	92.070	-0.460	0.290	0.680
2020/01/31 05:52:16.2	92.090	-0.450	0.230	0.640
2020/01/31 05:52:16.3	92.110	-0.450	0.170	0.610
2020/01/31 05:52:16.4	92.120	-0.440	0.110	0.580
2020/01/31 05:52:16.5	92.140	-0.430	0.040	0.550
2020/01/31 05:52:16.6	92.150	-0.420	-0.020	0.530
2020/01/31 05:52:16.7	92.170	-0.400	-0.090	0.500
2020/01/31 05:52:16.8	92.180	-0.380	-0.150	0.480
2020/01/31 05:52:16.9	92.190	-0.370	-0.210	0.470
2020/01/31 05:52:17.0	92.210	-0.350	-0.270	0.450
2020/01/31 05:52:17.1	92.220	-0.330	-0.330	0.440
2020/01/31 05:52:17.2	92.230	-0.300	-0.380	0.430
2020/01/31 05:52:17.3	92.240	-0.280	-0.430	0.420
2020/01/31 05:52:17.4	92.260	-0.260	-0.480	0.420
2020/01/31 05:52:17.5	92.270	-0.240	-0.520	0.420
2020/01/31 05:52:17.6	92.280	-0.220	-0.560	0.420
2020/01/31 05:52:17.7	92.290	-0.200	-0.600	0.420
2020/01/31 05:52:17.8	92.300	-0.180	-0.630	0.420
2020/01/31 05:52:17.9	92.310	-0.150	-0.650	0.430
2020/01/31 05:52:18.0	92.320	-0.140	-0.680	0.440
2020/01/31 05:52:18.1	92.320	-0.120	-0.690	0.450
2020/01/31 05:52:18.2	92.330	-0.100	-0.710	0.460
2020/01/31 05:52:18.3	92.340	-0.080	-0.720	0.470
2020/01/31 05:52:18.4	92.340	-0.070	-0.720	0.490
2020/01/31 05:52:18.5	92.350	-0.050	-0.720	0.500
2020/01/31 05:52:18.6	92.350	-0.040	-0.720	0.520
2020/01/31 05:52:18.7	92.360	-0.030	-0.710	0.530
2020/01/31 05:52:18.8	92.360	-0.020	-0.700	0.550
2020/01/31 05:52:18.9	92.360	-0.010	-0.690	0.560
2020/01/31 05:52:19.0	92.360	-0.000	-0.670	0.580
2020/01/31 05:52:19.1	92.360	0.010	-0.650	0.610
2020/01/31 05:52:19.2	92.360	0.010	-0.620	0.630
2020/01/31 05:52:19.3	92.350	0.020	-0.600	0.650
2020/01/31 05:52:19.4	92.340	0.020	-0.570	0.680
2020/01/31 05:52:19.5	92.340	0.020	-0.530	0.710
2020/01/31 05:52:19.6	92.330	0.020	-0.500	0.740
2020/01/31 05:52:19.7	92.320	0.020	-0.460	0.770
2020/01/31 05:52:19.8	92.310	0.020	-0.420	0.810
2020/01/31 05:52:19.9	92.300	0.020	-0.390	0.840
2020/01/31 05:52:20.0	92.290	0.020	-0.350	0.880
2020/01/31 05:52:20.1	92.280	0.020	-0.310	0.910
2020/01/31 05:52:20.2	92.270	0.020	-0.270	0.950
2020/01/31 05:52:20.3	92.260	0.020	-0.240	0.980
2020/01/31 05:52:20.4	92.240	0.020	-0.200	1.020
2020/01/31 05:52:20.5	92.230	0.010	-0.170	1.040
2020/01/31 05:52:20.6	92.220	0.010	-0.140	1.070
2020/01/31 05:52:20.7	92.210	0.010	-0.110	1.090
2020/01/31 05:52:20.8	92.210	0.000	-0.090	1.110
2020/01/31 05:52:20.9	92.200	0.000	-0.070	1.130
2020/01/31 05:52:21.0	92.190	-0.000	-0.050	1.140
2020/01/31 05:52:21.1	92.180	-0.000	-0.040	1.150
2020/01/31 05:52:21.2	92.180	-0.010	-0.030	1.150
2020/01/31 05:52:21.3	92.180	-0.010	-0.020	1.150
2020/01/31 05:52:21.4	92.170	-0.010	-0.020	1.140
2020/01/31 05:52:21.5	92.170	-0.010	-0.020	1.130
2020/01/31 05:52:21.6	92.160	-0.010	-0.020	1.120
2020/01/31 05:52:21.7	92.150	-0.010	-0.030	1.110
2020/01/31 05:52:21.8	92.150	-0.010	-0.040	1.100
2020/01/31 05:52:21.9	92.140	-0.010	-0.050	1.080
2020/01/31 05:52:22.0	92.130	-0.010	-0.070	1.070
2020/01/31 05:52:22.1	92.120	-0.010	-0.090	1.050
2020/01/31 05:52:22.2	92.100	-0.010	-0.110	1.040
2020/01/31 05:52:22.3	92.090	-0.000	-0.130	1.020
2020/01/31 05:52:22.4	92.070	-0.000	-0.150	1.010
2020/01/31 05:52:22.5	92.050	-0.000	-0.170	1.000
2020/01/31 05:52:22.6	92.040	-0.000	-0.190	0.990
2020/01/31 05:52:22.7	92.020	0.000	-0.210	0.980
2020/01/31 05:52:22.8	92.000	0.000	-0.220	0.960
2020/01/31 05:52:22.9	91.980	-0.000	-0.240	0.960
2020/01/31 05:52:23.0	91.960	-0.000	-0.250	0.950
2020/01/31 05:52:23.1	91.940	-0.010	-0.250	0.940
2020/01/31 05:52:23.2	91.920	-0.010	-0.250	0.930
2020/01/31 05:52:23.3	91.900	-0.010	-0.250	0.920
2020/01/31 05:52:23.4	91.890	-0.020	-0.250	0.910
2020/01/31 05:52:23.5	91.870	-0.030	-0.240	0.900
2020/01/31 05:52:23.6	91.850	-0.030	-0.230	0.890
2020/01/31 05:52:23.7	91.840	-0.040	-0.210	0.880
2020/01/31 05:52:23.8	91.830	-0.050	-0.200	0.870
2020/01/31 05:52:23.9	91.820	-0.060	-0.180	0.870
2020/01/31 05:52:24.0	91.810	-0.060	-0.160	0.860
2020/01/31 05:52:24.1	91.810	-0.070	-0.140	0.850
2020/01/31 05:52:24.2	91.810	-0.080	-0.130	0.840
2020/01/31 05:52:24.3	91.800	-0.080	-0.110	0.820
2020/01/31 05:52:24.4	91.800	-0.090	-0.100	0.810
2020/01/31 05:52:24.5	91.810	-0.090	-0.090	0.800
2020/01/31 05:52:24.6	91.810	-0.090	-0.080	0.780
2020/01/31 05:52:24.7	91.820	-0.080	-0.080	0.770
2020/01/31 05:52:24.8	91.830	-0.080	-0.090	0.760
2020/01/31 05:52:24.9	91.840	-0.070	-0.100	0.740
2020/01/31 05:52:25.0	91.860	-0.050	-0.120	0.730
2020/01/31 05:52:25.1	91.870	-0.040	-0.140	0.710
2020/01/31 05:52:25.2	91.890	-0.010	-0.180	0.700
2020/01/31 05:52:25.3	91.900	0.010	-0.220	0.680
2020/01/31 05:52:25.4	91.920	0.040	-0.260	0.670
2020/01/31 05:52:25.5	91.930	0.080	-0.310	0.660
2020/01/31 05:52:25.6	91.950	0.120	-0.370	0.650
2020/01/31 05:52:25.7	91.970	0.160	-0.430	0.640
2020/01/31 05:52:25.8	91.990	0.200	-0.500	0.630
2020/01/31 05:52:25.9	92.000	0.250	-0.560	0.610
2020/01/31 05:52:26.0	92.020	0.300	-0.630	0.600
2020/01/31 05:52:26.1	92.040	0.350	-0.700	0.590
2020/01/31 05:52:26.2	92.060	0.410	-0.760	0.580
2020/01/31 05:52:26.3	92.080	0.460	-0.830	0.570
2020/01/31 05:52:26.4	92.100	0.510	-0.880	0.570
2020/01/31 05:52:26.5	92.120	0.560	-0.940	0.560
2020/01/31 05:52:26.6	92.130	0.610	-0.980	0.560
2020/01/31 05:52:26.7	92.150	0.660	-1.020	0.560
2020/01/31 05:52:26.8	92.160	0.700	-1.040	0.560
2020/01/31 05:52:26.9	92.180	0.730	-1.060	0.560
2020/01/31 05:52:27.0	92.190	0.760	-1.060	0.570
2020/01/31 05:52:27.1	92.190	0.790	-1.060	0.580
2020/01/31 05:52:27.2	92.200	0.810	-1.040	0.590
2020/01/31 05:52:27.3	92.200	0.820	-1.010	0.610
2020/01/31 05:52:27.4	92.200	0.830	-0.970	0.630
2020/01/31 05:52:27.5	92.190	0.820	-0.920	0.650
2020/01/31 05:52:27.6	92.190	0.810	-0.850	0.680
2020/01/31 05:52:27.7	92.170	0.800	-0.780	0.700
2020/01/31 05:52:27.8	92.160	0.770	-0.700	0.730
2020/01/31 05:52:27.9	92.140	0.740	-0.600	0.760
2020/01/31 05:52:28.0	92.120	0.700	-0.500	0.790
2020/01/31 05:52:28.1	92.100	0.650	-0.390	0.820
2020/01/31 05:52:28.2	92.080	0.590	-0.280	0.850
2020/01/31 05:52:28.3	92.050	0.530	-0.160	0.880
2020/01/31 05:52:28.4	92.020	0.460	-0.030	0.910
2020/01/31 05:52:28.5	91.990	0.390	0.090	0.940
2020/01/31 05:52:28.6	91.960	0.310	0.220	0.970
2020/01/31 05:52:28.7	91.920	0.230	0.350	0.990
2020/01/31 05:52:28.8	91.890	0.140	0.480	1.010
2020/01/31 05:52:28.9	91.850	0.050	0.600	1.030
2020/01/31 05:52:29.0	91.810	-0.040	0.730	1.050
2020/01/31 05:52:29.1	91.780	-0.130	0.840	1.060
2020/01/31 05:52:29.2	91.740	-0.220	0.950	1.070
2020/01/31 05:52:29.3	91.710	-0.310	1.060	1.080
2020/01/31 05:52:29.4	91.670	-0.400	1.160	1.080
2020/01/31 05:52:29.5	91.640	-0.490	1.240	1.080
2020/01/31 05:52:29.6	91.610	-0.580	1.320	1.070
2020/01/31 05:52:29.7	91.580	-0.660	1.380	1.070
2020/01/31 05:52:29.8	91.550	-0.740	1.440	1.060
2020/01/31 05:52:29.9	91.530	-0.810	1.470	1.040
2020/01/31 05:52:30.0	91.510	-0.870	1.490	1.020
2020/01/31 05:52:30.1	91.500	-0.930	1.500	1.000
2020/01/31 05:52:30.2	91.480	-0.980	1.490	0.980
2020/01/31 05:52:30.3	91.480	-1.020	1.470	0.950
2020/01/31 05:52:30.4	91.470	-1.060	1.430	0.930
2020/01/31 05:52:30.5	91.470	-1.080	1.370	0.900
2020/01/31 05:52:30.6	91.470	-1.100	1.290	0.880
2020/01/31 05:52:30.7	91.470	-1.110	1.200	0.850
2020/01/31 05:52:30.8	91.480	-1.100	1.090	0.820
2020/01/31 05:52:30.9	91.490	-1.090	0.970	0.800
2020/01/31 05:52:31.0	91.500	-1.070	0.840	0.770
2020/01/31 05:52:31.1	91.520	-1.040	0.690	0.750
2020/01/31 05:52:31.2	91.530	-1.000	0.530	0.730
2020/01/31 05:52:31.3	91.560	-0.960	0.370	0.710
2020/01/31 05:52:31.4	91.580	-0.910	0.200	0.690
2020/01/31 05:52:31.5	91.590	-0.850	0.020	0.680
2020/01/31 05:52:31.6	91.610	-0.790	-0.160	0.670
2020/01/31 05:52:31.7	91.630	-0.720	-0.340	0.660
2020/01/31 05:52:31.8	91.640	-0.650	-0.520	0.650
2020/01/31 05:52:31.9	91.660	-0.570	-0.700	0.650
2020/01/31 05:52:32.0	91.680	-0.490	-0.880	0.640
2020/01/31 05:52:32.1	91.690	-0.410	-1.050	0.640
2020/01/31 05:52:32.2	91.700	-0.330	-1.210	0.640
2020/01/31 05:52:32.3	91.710	-0.250	-1.370	0.630
2020/01/31 05:52:32.4	91.720	-0.160	-1.520	0.640
2020/01/31 05:52:32.5	91.730	-0.080	-1.650	0.650
2020/01/31 05:52:32.6	91.740	0.000	-1.760	0.660
2020/01/31 05:52:32.7	91.740	0.080	-1.870	0.670
2020/01/31 05:52:32.8	91.740	0.160	-1.960	0.680
2020/01/31 05:52:32.9	91.750	0.240	-2.030	0.700
2020/01/31 05:52:33.0	91.750	0.310	-2.080	0.720
2020/01/31 05:52:33.1	91.750	0.380	-2.120	0.740
2020/01/31 05:52:33.2	91.750	0.440	-2.140	0.770
2020/01/31 05:52:33.3	91.730	0.500	-2.150	0.800
2020/01/31 05:52:33.4	91.730	0.550	-2.140	0.840
2020/01/31 05:52:33.5	91.730	0.590	-2.110	0.880
2020/01/31 05:52:33.6	91.720	0.630	-2.060	0.920
2020/01/31 05:52:33.7	91.710	0.670	-2.010	0.960
2020/01/31 05:52:33.8	91.710	0.690	-1.930	1.000
2020/01/31 05:52:33.9	91.700	0.710	-1.850	1.050
2020/01/31 05:52:34.0	91.690	0.730	-1.750	1.100
2020/01/31 05:52:34.1	91.680	0.740	-1.640	1.140
2020/01/31 05:52:34.2	91.670	0.740	-1.520	1.190
2020/01/31 05:52:34.3	91.660	0.730	-1.390	1.240
2020/01/31 05:52:34.4	91.650	0.720	-1.260	1.290
2020/01/31 05:52:34.5	91.640	0.700	-1.120	1.330
2020/01/31 05:52:34.6	91.630	0.680	-0.980	1.380
2020/01/31 05:52:34.7	91.620	0.650	-0.830	1.420
2020/01/31 05:52:34.8	91.610	0.610	-0.680	1.460
2020/01/31 05:52:34.9	91.600	0.570	-0.530	1.490
2020/01/31 05:52:35.0	91.590	0.530	-0.390	1.520
2020/01/31 05:52:35.1	91.580	0.480	-0.240	1.550
2020/01/31 05:52:35.2	91.560	0.430	-0.100	1.570
2020/01/31 05:52:35.3	91.560	0.380	0.050	1.590
2020/01/31 05:52:35.4	91.540	0.320	0.180	1.600
2020/01/31 05:52:35.5	91.530	0.260	0.310	1.610
2020/01/31 05:52:35.6	91.520	0.200	0.440	1.610
2020/01/31 05:52:35.7	91.500	0.140	0.560	1.600
2020/01/31 05:52:35.8	91.490	0.080	0.670	1.580
2020/01/31 05:52:35.9	91.470	0.010	0.770	1.560
2020/01/31 05:52:36.0	91.460	-0.050	0.870	1.530
2020/01/31 05:52:36.1	91.440	-0.110	0.960	1.500
2020/01/31 05:52:36.2	91.430	-0.170	1.040	1.460
2020/01/31 05:52:36.3	91.420	-0.230	1.110	1.410
2020/01/31 05:52:36.4	91.400	-0.280	1.170	1.360
2020/01/31 05:52:36.5	91.390	-0.340	1.220	1.300
2020/01/31 05:52:36.6	91.370	-0.380	1.270	1.240
2020/01/31 05:52:36.7	91.350	-0.430	1.300	1.180
2020/01/31 05:52:36.8	91.340	-0.470	1.320	1.110
2020/01/31 05:52:36.9	91.330	-0.510	1.340	1.050
2020/01/31 05:52:37.0	91.310	-0.540	1.340	0.980
2020/01/31 05:52:37.1	91.300	-0.570	1.330	0.910
2020/01/31 05:52:37.2	91.290	-0.590	1.310	0.850
2020/01/31 05:52:37.3	91.290	-0.610	1.280	0.790
2020/01/31 05:52:37.4	91.280	-0.620	1.240	0.730
2020/01/31 05:52:37.5	91.270	-0.620	1.180	0.670
2020/01/31 05:52:37.6	91.260	-0.620	1.110	0.610
2020/01/31 05:52:37.7	91.250	-0.610	1.040	0.560
2020/01/31 05:52:37.8	91.240	-0.590	0.950	0.520
2020/01/31 05:52:37.9	91.240	-0.560	0.850	0.480
2020/01/31 05:52:38.0	91.230	-0.530	0.740	0.440
2020/01/31 05:52:38.1	91.230	-0.500	0.620	0.400
2020/01/31 05:52:38.2	91.230	-0.460	0.490	0.370
2020/01/31 05:52:38.3	91.230	-0.410	0.350	0.340
2020/01/31 05:52:38.4	91.230	-0.360	0.220	0.320
2020/01/31 05:52:38.5	91.230	-0.300	0.080	0.300
2020/01/31 05:52:38.6	91.240	-0.240	-0.070	0.290
2020/01/31 05:52:38.7	91.250	-0.180	-0.210	0.270
2020/01/31 05:52:38.8	91.260	-0.120	-0.360	0.270
2020/01/31 05:52:38.9	91.270	-0.050	-0.500	0.260
2020/01/31 05:52:39.0	91.280	0.010	-0.640	0.250
2020/01/31 05:52:39.1	91.300	0.080	-0.780	0.250
2020/01/31 05:52:39.2	91.310	0.140	-0.910	0.240
2020/01/31 05:52:39.3	91.330	0.210	-1.030	0.240
2020/01/31 05:52:39.4	91.350	0.270	-1.150	0.240
2020/01/31 05:52:39.5	91.370	0.320	-1.250	0.230
2020/01/31 05:52:39.6	91.390	0.380	-1.350	0.230
2020/01/31 05:52:39.7	91.410	0.430	-1.430	0.230
2020/01/31 05:52:39.8	91.430	0.480	-1.500	0.220
2020/01/31 05:52:39.9	91.450	0.520	-1.560	0.220
2020/01/31 05:52:40.0	91.470	0.550	-1.610	0.220
2020/01/31 05:52:40.1	91.490	0.590	-1.640	0.220
2020/01/31 05:52:40.2	91.510	0.610	-1.660	0.220
2020/01/31 05:52:40.3	91.510	0.630	-1.660	0.220
2020/01/31 05:52:40.4	91.530	0.640	-1.660	0.230
2020/01/31 05:52:40.5	91.540	0.650	-1.630	0.240
2020/01/31 05:52:40.6	91.550	0.650	-1.600	0.250
2020/01/31 05:52:40.7	91.560	0.650	-1.540	0.270
2020/01/31 05:52:40.8	91.570	0.630	-1.480	0.290
2020/01/31 05:52:40.9	91.570	0.620	-1.400	0.320
2020/01/31 05:52:41.0	91.570	0.590	-1.310	0.350
2020/01/31 05:52:41.1	91.570	0.560	-1.220	0.380
2020/01/31 05:52:41.2	91.560	0.530	-1.110	0.420
2020/01/31 05:52:41.3	91.560	0.490	-0.990	0.460
2020/01/31 05:52:41.4	91.550	0.440	-0.860	0.510
2020/01/31 05:52:41.5	91.540	0.400	-0.730	0.560
2020/01/31 05:52:41.6	91.530	0.340	-0.600	0.610
2020/01/31 05:52:41.7	91.520	0.290	-0.460	0.660
2020/01/31 05:52:41.8	91.500	0.230	-0.310	0.720
2020/01/31 05:52:41.9	91.490	0.170	-0.170	0.770
2020/01/31 05:52:42.0	91.470	0.110	-0.030	0.830
2020/01/31 05:52:42.1	91.460	0.050	0.100	0.890
2020/01/31 05:52:42.2	91.450	-0.020	0.230	0.940
2020/01/31 05:52:42.3	91.440	-0.080	0.360	0.990
2020/01/31 05:52:42.4	91.430	-0.140	0.480	1.050
2020/01/31 05:52:42.5	91.420	-0.200	0.590	1.100
2020/01/31 05:52:42.6	91.410	-0.260	0.690	1.140
2020/01/31 05:52:42.7	91.400	-0.320	0.780	1.180
2020/01/31 05:52:42.8	91.400	-0.370	0.860	1.220
2020/01/31 05:52:42.9	91.390	-0.420	0.920	1.260
2020/01/31 05:52:43.0	91.390	-0.460	0.980	1.280
2020/01/31 05:52:43.1	91.390	-0.500	1.020	1.310
2020/01/31 05:52:43.2	91.400	-0.540	1.040	1.320
2020/01/31 05:52:43.3	91.410	-0.570	1.060	1.340
2020/01/31 05:52:43.4	91.410	-0.590	1.060	1.340
2020/01/31 05:52:43.5	91.430	-0.610	1.040	1.340
2020/01/31 05:52:43.6	91.440	-0.630	1.020	1.330
2020/01/31 05:52:43.7	91.460	-0.630	0.970	1.310
2020/01/31 05:52:43.8	91.480	-0.640	0.920	1.280
2020/01/31 05:52:43.9	91.510	-0.630	0.860	1.250
2020/01/31 05:52:44.0	91.540	-0.620	0.780	1.220
2020/01/31 05:52:44.1	91.570	-0.610	0.690	1.180
2020/01/31 05:52:44.2	91.600	-0.590	0.600	1.130
2020/01/31 05:52:44.3	91.640	-0.560	0.490	1.080
2020/01/31 05:52:44.4	91.680	-0.530	0.390	1.030
2020/01/31 05:52:44.5	91.720	-0.490	0.280	0.980
2020/01/31 05:52:44.6	91.760	-0.450	0.160	0.930
2020/01/31 05:52:44.7	91.800	-0.410	0.050	0.880
2020/01/31 05:52:44.8	91.840	-0.360	-0.070	0.840
2020/01/31 05:52:44.9	91.880	-0.310	-0.180	0.790
2020/01/31 05:52:45.0	91.920	-0.260	-0.290	0.750
2020/01/31 05:52:45.1	91.960	-0.200	-0.400	0.720
2020/01/31 05:52:45.2	91.990	-0.140	-0.500	0.690
2020/01/31 05:52:45.3	92.020	-0.080	-0.600	0.660
2020/01/31 05:52:45.4	92.050	-0.030	-0.690	0.640
2020/01/31 05:52:45.5	92.070	0.030	-0.780	0.630
2020/01/31 05:52:45.6	92.090	0.090	-0.850	0.620
2020/01/31 05:52:45.7	92.110	0.150	-0.910	0.610
2020/01/31 05:52:45.8	92.120	0.200	-0.960	0.610
2020/01/31 05:52:45.9	92.120	0.260	-1.010	0.620
2020/01/31 05:52:46.0	92.130	0.310	-1.040	0.630
2020/01/31 05:52:46.1	92.130	0.350	-1.060	0.640
2020/01/31 05:52:46.2	92.120	0.390	-1.080	0.650
2020/01/31 05:52:46.3	92.120	0.430	-1.070	0.670
2020/01/31 05:52:46.4	92.110	0.470	-1.070	0.680
2020/01/31 05:52:46.5	92.100	0.500	-1.050	0.700
2020/01/31 05:52:46.6	92.090	0.520	-1.020	0.710
2020/01/31 05:52:46.7	92.080	0.540	-0.980	0.720
2020/01/31 05:52:46.8	92.060	0.550	-0.940	0.740
2020/01/31 05:52:46.9	92.040	0.560	-0.890	0.750
2020/01/31 05:52:47.0	92.030	0.560	-0.830	0.760
2020/01/31 05:52:47.1	92.010	0.560	-0.770	0.770
2020/01/31 05:52:47.2	91.990	0.550	-0.710	0.770
2020/01/31 05:52:47.3	91.970	0.540	-0.640	0.780
2020/01/31 05:52:47.4	91.950	0.520	-0.570	0.780
2020/01/31 05:52:47.5	91.930	0.500	-0.490	0.790
2020/01/31 05:52:47.6	91.920	0.480	-0.420	0.790
2020/01/31 05:52:47.7	91.900	0.450	-0.350	0.800
2020/01/31 05:52:47.8	91.890	0.420	-0.280	0.800
2020/01/31 05:52:47.9	91.870	0.390	-0.210	0.800
2020/01/31 05:52:48.0	91.860	0.350	-0.140	0.800
2020/01/31 05:52:48.1	91.840	0.320	-0.080	0.800
2020/01/31 05:52:48.2	91.830	0.280	-0.020	0.790
2020/01/31 05:52:48.3	91.830	0.240	0.030	0.790
2020/01/31 05:52:48.4	91.820	0.210	0.080	0.790
2020/01/31 05:52:48.5	91.810	0.170	0.120	0.780
2020/01/31 05:52:48.6	91.800	0.130	0.150	0.770
2020/01/31 05:52:48.7	91.790	0.100	0.180	0.760
2020/01/31 05:52:48.8	91.780	0.070	0.210	0.750
2020/01/31 05:52:48.9	91.780	0.040	0.220	0.730
2020/01/31 05:52:49.0	91.770	0.010	0.240	0.710
2020/01/31 05:52:49.1	91.770	-0.010	0.240	0.690
2020/01/31 05:52:49.2	91.770	-0.030	0.240	0.660
2020/01/31 05:52:49.3	91.770	-0.050	0.240	0.630
2020/01/31 05:52:49.4	91.780	-0.070	0.230	0.590
2020/01/31 05:52:49.5	91.780	-0.080	0.220	0.550
2020/01/31 05:52:49.6	91.790	-0.100	0.200	0.510
2020/01/31 05:52:49.7	91.800	-0.100	0.180	0.470
2020/01/31 05:52:49.8	91.820	-0.110	0.160	0.430
2020/01/31 05:52:49.9	91.830	-0.110	0.130	0.390
2020/01/31 05:52:50.0	91.850	-0.110	0.110	0.340
2020/01/31 05:52:50.1	91.870	-0.110	0.070	0.300
2020/01/31 05:52:50.2	91.890	-0.100	0.040	0.260
2020/01/31 05:52:50.3	91.910	-0.100	0.010	0.220
2020/01/31 05:52:50.4	91.930	-0.090	-0.030	0.190
2020/01/31 05:52:50.5	91.960	-0.070	-0.070	0.150
2020/01/31 05:52:50.6	91.980	-0.060	-0.110	0.130
2020/01/31 05:52:50.7	92.010	-0.050	-0.150	0.100
2020/01/31 05:52:50.8	92.030	-0.030	-0.190	0.080
2020/01/31 05:52:50.9	92.060	-0.020	-0.230	0.070
2020/01/31 05:52:51.0	92.080	-0.000	-0.280	0.060
2020/01/31 05:52:51.1	92.110	0.010	-0.320	0.050
2020/01/31 05:52:51.2	92.130	0.030	-0.360	0.060
2020/01/31 05:52:51.3	92.150	0.040	-0.400	0.060
2020/01/31 05:52:51.4	92.170	0.060	-0.440	0.070
2020/01/31 05:52:51.5	92.190	0.070	-0.470	0.090
2020/01/31 05:52:51.6	92.210	0.080	-0.500	0.110
2020/01/31 05:52:51.7	92.220	0.090	-0.530	0.130
2020/01/31 05:52:51.8	92.230	0.100	-0.560	0.150
2020/01/31 05:52:51.9	92.250	0.100	-0.570	0.170
2020/01/31 05:52:52.0	92.260	0.100	-0.590	0.200
2020/01/31 05:52:52.1	92.270	0.100	-0.600	0.230
2020/01/31 05:52:52.2	92.280	0.090	-0.600	0.250
2020/01/31 05:52:52.3	92.280	0.090	-0.600	0.280
2020/01/31 05:52:52.4	92.290	0.080	-0.600	0.310
2020/01/31 05:52:52.5	92.300	0.060	-0.590	0.340
2020/01/31 05:52:52.6	92.320	0.050	-0.570	0.360
2020/01/31 05:52:52.7	92.330	0.030	-0.550	0.390
2020/01/31 05:52:52.8	92.340	0.010	-0.520	0.420
2020/01/31 05:52:52.9	92.350	-0.010	-0.500	0.450
2020/01/31 05:52:53.0	92.360	-0.040	-0.460	0.480
2020/01/31 05:52:53.1	92.380	-0.060	-0.430	0.510
2020/01/31 05:52:53.2	92.390	-0.090	-0.390	0.540
2020/01/31 05:52:53.3	92.400	-0.120	-0.340	0.560
2020/01/31 05:52:53.4	92.420	-0.150	-0.300	0.590
2020/01/31 05:52:53.5	92.430	-0.180	-0.260	0.630
2020/01/31 05:52:53.6	92.440	-0.210	-0.210	0.660
2020/01/31 05:52:53.7	92.460	-0.240	-0.170	0.690
2020/01/31 05:52:53.8	92.470	-0.260	-0.130	0.730
2020/01/31 05:52:53.9	92.480	-0.290	-0.090	0.760
2020/01/31 05:52:54.0	92.490	-0.320	-0.050	0.800
2020/01/31 05:52:54.1	92.500	-0.340	-0.010	0.840
2020/01/31 05:52:54.2	92.510	-0.360	0.020	0.880
2020/01/31 05:52:54.3	92.510	-0.380	0.040	0.920
2020/01/31 05:52:54.4	92.510	-0.390	0.060	0.960
2020/01/31 05:52:54.5	92.520	-0.410	0.080	1.000
2020/01/31 05:52:54.6	92.520	-0.410	0.090	1.040
2020/01/31 05:52:54.7	92.520	-0.420	0.090	1.070
2020/01/31 05:52:54.8	92.520	-0.420	0.090	1.110
2020/01/31 05:52:54.9	92.520	-0.420	0.090	1.140
2020/01/31 05:52:55.0	92.520	-0.410	0.070	1.170
2020/01/31 05:52:55.1	92.520	-0.400	0.060	1.190
2020/01/31 05:52:55.2	92.520	-0.380	0.040	1.210
2020/01/31 05:52:55.3	92.520	-0.370	0.010	1.230
2020/01/31 05:52:55.4	92.510	-0.350	-0.020	1.250
2020/01/31 05:52:55.5	92.510	-0.330	-0.050	1.260
2020/01/31 05:52:55.6	92.510	-0.300	-0.080	1.270
2020/01/31 05:52:55.7	92.500	-0.280	-0.120	1.280
2020/01/31 05:52:55.8	92.500	-0.250	-0.150	1.280
2020/01/31 05:52:55.9	92.490	-0.220	-0.190	1.280
2020/01/31 05:52:56.0	92.490	-0.190	-0.220	1.280
2020/01/31 05:52:56.1	92.480	-0.160	-0.250	1.280
2020/01/31 05:52:56.2	92.470	-0.130	-0.280	1.280
2020/01/31 05:52:56.3	92.460	-0.110	-0.300	1.270
2020/01/31 05:52:56.4	92.460	-0.080	-0.330	1.260
2020/01/31 05:52:56.5	92.450	-0.050	-0.340	1.260
2020/01/31 05:52:56.6	92.440	-0.030	-0.360	1.240
2020/01/31 05:52:56.7	92.440	-0.010	-0.370	1.230
2020/01/31 05:52:56.8	92.430	0.020	-0.380	1.220
2020/01/31 05:52:56.9	92.420	0.030	-0.380	1.200
2020/01/31 05:52:57.0	92.420	0.050	-0.380	1.180
2020/01/31 05:52:57.1	92.410	0.070	-0.380	1.160
2020/01/31 05:52:57.2	92.410	0.080	-0.370	1.140
2020/01/31 05:52:57.3	92.410	0.090	-0.360	1.120
2020/01/31 05:52:57.4	92.400	0.100	-0.350	1.090
2020/01/31 05:52:57.5	92.400	0.100	-0.330	1.060
2020/01/31 05:52:57.6	92.400	0.110	-0.320	1.030
2020/01/31 05:52:57.7	92.400	0.110	-0.300	1.000
2020/01/31 05:52:57.8	92.400	0.120	-0.280	0.970
2020/01/31 05:52:57.9	92.410	0.120	-0.270	0.930
2020/01/31 05:52:58.0	92.410	0.120	-0.250	0.890
2020/01/31 05:52:58.1	92.420	0.120	-0.230	0.850
2020/01/31 05:52:58.2	92.430	0.110	-0.220	0.810
2020/01/31 05:52:58.3	92.440	0.110	-0.200	0.770
2020/01/31 05:52:58.4	92.450	0.110	-0.190	0.720
2020/01/31 05:52:58.5	92.460	0.110	-0.180	0.680
2020/01/31 05:52:58.6	92.470	0.110	-0.170	0.640
2020/01/31 05:52:58.7	92.480	0.110	-0.160	0.600
2020/01/31 05:52:58.8	92.490	0.110	-0.150	0.560
2020/01/31 05:52:58.9	92.500	0.110	-0.140	0.520
2020/01/31 05:52:59.0	92.510	0.110	-0.130	0.480
2020/01/31 05:52:59.1	92.520	0.110	-0.130	0.450
2020/01/31 05:52:59.2	92.530	0.110	-0.120	0.410
2020/01/31 05:52:59.3	92.540	0.120	-0.120	0.380
2020/01/31 05:52:59.4	92.540	0.120	-0.120	0.350
2020/01/31 05:52:59.5	92.550	0.130	-0.120	0.330
2020/01/31 05:52:59.6	92.550	0.130	-0.120	0.300
2020/01/31 05:52:59.7	92.550	0.140	-0.120	0.270
2020/01/31 05:52:59.8	92.550	0.150	-0.120	0.250
2020/01/31 05:52:59.9	92.550	0.160	-0.120	0.230
2020/01/31 05:53:00.0	92.550	0.170	-0.120	0.210
2020/01/31 05:53:00.1	92.550	0.180	-0.130	0.190
2020/01/31 05:53:00.2	92.540	0.190	-0.130	0.170
2020/01/31 05:53:00.3	92.540	0.200	-0.140	0.150
2020/01/31 05:53:00.4	92.540	0.210	-0.150	0.130
2020/01/31 05:53:00.5	92.540	0.220	-0.160	0.110
2020/01/31 05:53:00.6	92.540	0.240	-0.170	0.100
2020/01/31 05:53:00.7	92.550	0.250	-0.180	0.090
2020/01/31 05:53:00.8	92.550	0.260	-0.200	0.070
2020/01/31 05:53:00.9	92.550	0.270	-0.220	0.070
2020/01/31 05:53:01.0	92.550	0.290	-0.240	0.060
2020/01/31 05:53:01.1	92.560	0.300	-0.260	0.060
2020/01/31 05:53:01.2	92.560	0.310	-0.280	0.060
2020/01/31 05:53:01.3	92.570	0.320	-0.300	0.070
2020/01/31 05:53:01.4	92.570	0.330	-0.320	0.080
2020/01/31 05:53:01.5	92.570	0.340	-0.340	0.090
2020/01/31 05:53:01.6	92.570	0.350	-0.360	0.110
2020/01/31 05:53:01.7	92.570	0.360	-0.370	0.130
2020/01/31 05:53:01.8	92.570	0.360	-0.390	0.150
2020/01/31 05:53:01.9	92.560	0.360	-0.400	0.180
2020/01/31 05:53:02.0	92.560	0.360	-0.410	0.210
2020/01/31 05:53:02.1	92.560	0.360	-0.410	0.240
2020/01/31 05:53:02.2	92.560	0.360	-0.410	0.270
2020/01/31 05:53:02.3	92.560	0.350	-0.420	0.300
2020/01/31 05:53:02.4	92.560	0.340	-0.410	0.330
2020/01/31 05:53:02.5	92.560	0.330	-0.400	0.370
2020/01/31 05:53:02.6	92.560	0.310	-0.380	0.400
2020/01/31 05:53:02.7	92.560	0.300	-0.360	0.430
2020/01/31 05:53:02.8	92.560	0.280	-0.340	0.460
2020/01/31 05:53:02.9	92.560	0.260	-0.310	0.490
2020/01/31 05:53:03.0	92.570	0.230	-0.280	0.520
2020/01/31 05:53:03.1	92.570	0.210	-0.250	0.540
2020/01/31 05:53:03.2	92.580	0.180	-0.220	0.570
2020/01/31 05:53:03.3	92.590	0.150	-0.180	0.590
2020/01/31 05:53:03.4	92.600	0.130	-0.150	0.610
2020/01/31 05:53:03.5	92.610	0.100	-0.120	0.630
2020/01/31 05:53:03.6	92.620	0.070	-0.090	0.640
2020/01/31 05:53:03.7	92.630	0.040	-0.060	0.660
2020/01/31 05:53:03.8	92.650	0.020	-0.040	0.670
2020/01/31 05:53:03.9	92.660	-0.010	-0.010	0.690
2020/01/31 05:53:04.0	92.670	-0.030	0.010	0.700
2020/01/31 05:53:04.1	92.680	-0.060	0.020	0.710
2020/01/31 05:53:04.2	92.690	-0.080	0.030	0.720
2020/01/31 05:53:04.3	92.700	-0.100	0.030	0.730
2020/01/31 05:53:04.4	92.710	-0.110	0.040	0.750
2020/01/31 05:53:04.5	92.720	-0.130	0.030	0.760
2020/01/31 05:53:04.6	92.720	-0.140	0.030	0.780
2020/01/31 05:53:04.7	92.730	-0.150	0.020	0.800
2020/01/31 05:53:04.8	92.730	-0.160	0.010	0.820
2020/01/31 05:53:04.9	92.730	-0.160	-0.010	0.840
2020/01/31 05:53:05.0	92.730	-0.170	-0.020	0.870
2020/01/31 05:53:05.1	92.730	-0.170	-0.040	0.890
2020/01/31 05:53:05.2	92.720	-0.170	-0.060	0.920
2020/01/31 05:53:05.3	92.710	-0.170	-0.080	0.950
2020/01/31 05:53:05.4	92.700	-0.170	-0.100	0.980
2020/01/31 05:53:05.5	92.700	-0.160	-0.120	1.010
2020/01/31 05:53:05.6	92.690	-0.160	-0.150	1.040
2020/01/31 05:53:05.7	92.680	-0.160	-0.170	1.070
2020/01/31 05:53:05.8	92.670	-0.150	-0.190	1.100
2020/01/31 05:53:05.9	92.660	-0.150	-0.210	1.120
2020/01/31 05:53:06.0	92.650	-0.140	-0.230	1.150
2020/01/31 05:53:06.1	92.630	-0.130	-0.250	1.180
2020/01/31 05:53:06.2	92.620	-0.130	-0.270	1.200
2020/01/31 05:53:06.3	92.600	-0.120	-0.280	1.220
2020/01/31 05:53:06.4	92.590	-0.120	-0.300	1.240
2020/01/31 05:53:06.5	92.580	-0.110	-0.310	1.260
2020/01/31 05:53:06.6	92.570	-0.110	-0.330	1.280
2020/01/31 05:53:06.7	92.570	-0.110	-0.340	1.290
2020/01/31 05:53:06.8	92.560	-0.100	-0.350	1.300
2020/01/31 05:53:06.9	92.560	-0.100	-0.360	1.300
2020/01/31 05:53:07.0	92.560	-0.100	-0.370	1.310
2020/01/31 05:53:07.1	92.560	-0.100	-0.380	1.310
2020/01/31 05:53:07.2	92.560	-0.100	-0.380	1.310
2020/01/31 05:53:07.3	92.570	-0.100	-0.380	1.310
2020/01/31 05:53:07.4	92.580	-0.110	-0.390	1.300
2020/01/31 05:53:07.5	92.580	-0.110	-0.380	1.300
2020/01/31 05:53:07.6	92.590	-0.120	-0.380	1.290
2020/01/31 05:53:07.7	92.590	-0.120	-0.370	1.280
2020/01/31 05:53:07.8	92.600	-0.130	-0.360	1.270
2020/01/31 05:53:07.9	92.610	-0.130	-0.350	1.260
2020/01/31 05:53:08.0	92.620	-0.140	-0.340	1.250
2020/01/31 05:53:08.1	92.620	-0.150	-0.320	1.230
2020/01/31 05:53:08.2	92.630	-0.160	-0.310	1.220
2020/01/31 05:53:08.3	92.640	-0.170	-0.290	1.190
2020/01/31 05:53:08.4	92.640	-0.180	-0.270	1.170
2020/01/31 05:53:08.5	92.650	-0.180	-0.250	1.150
2020/01/31 05:53:08.6	92.660	-0.190	-0.230	1.130
2020/01/31 05:53:08.7	92.660	-0.200	-0.220	1.110
2020/01/31 05:53:08.8	92.660	-0.200	-0.200	1.090
2020/01/31 05:53:08.9	92.670	-0.210	-0.180	1.060
2020/01/31 05:53:09.0	92.670	-0.210	-0.160	1.040
2020/01/31 05:53:09.1	92.670	-0.210	-0.140	1.010
2020/01/31 05:53:09.2	92.660	-0.220	-0.130	0.980
2020/01/31 05:53:09.3	92.660	-0.220	-0.110	0.960
2020/01/31 05:53:09.4	92.660	-0.210	-0.100	0.930
2020/01/31 05:53:09.5	92.650	-0.210	-0.080	0.900
2020/01/31 05:53:09.6	92.640	-0.210	-0.070	0.870
2020/01/31 05:53:09.7	92.640	-0.200	-0.060	0.850
2020/01/31 05:53:09.8	92.630	-0.190	-0.060	0.820
2020/01/31 05:53:09.9	92.620	-0.180	-0.050	0.790
2020/01/31 05:53:10.0	92.610	-0.170	-0.050	0.760
2020/01/31 05:53:10.1	92.610	-0.160	-0.050	0.730
2020/01/31 05:53:10.2	92.600	-0.150	-0.060	0.710
2020/01/31 05:53:10.3	92.590	-0.130	-0.060	0.670
2020/01/31 05:53:10.4	92.580	-0.110	-0.070	0.650
2020/01/31 05:53:10.5	92.570	-0.090	-0.080	0.630
2020/01/31 05:53:10.6	92.560	-0.070	-0.090	0.610
2020/01/31 05:53:10.7	92.550	-0.050	-0.110	0.590
2020/01/31 05:53:10.8	92.540	-0.030	-0.130	0.580
2020/01/31 05:53:10.9	92.540	-0.010	-0.150	0.560
2020/01/31 05:53:11.0	92.530	0.010	-0.180	0.550
2020/01/31 05:53:11.1	92.520	0.040	-0.200	0.540
2020/01/31 05:53:11.2	92.510	0.060	-0.230	0.530
2020/01/31 05:53:11.3	92.510	0.090	-0.260	0.530
2020/01/31 05:53:11.4	92.500	0.110	-0.290	0.520
2020/01/31 05:53:11.5	92.500	0.130	-0.320	0.510
2020/01/31 05:53:11.6	92.490	0.150	-0.350	0.510
2020/01/31 05:53:11.7	92.480	0.180	-0.380	0.510
2020/01/31 05:53:11.8	92.480	0.200	-0.410	0.500
2020/01/31 05:53:11.9	92.480	0.220	-0.440	0.500
2020/01/31 05:53:12.0	92.470	0.230	-0.470	0.500
2020/01/31 05:53:12.1	92.470	0.250	-0.490	0.490
2020/01/31 05:53:12.2	92.470	0.260	-0.520	0.490
2020/01/31 05:53:12.3	92.470	0.270	-0.540	0.490
2020/01/31 05:53:12.4	92.470	0.280	-0.560	0.480
2020/01/31 05:53:12.5	92.480	0.290	-0.580	0.470
2020/01/31 05:53:12.6	92.480	0.300	-0.590	0.470
2020/01/31 05:53:12.7	92.490	0.300	-0.600	0.460
2020/01/31 05:53:12.8	92.490	0.300	-0.600	0.450
2020/01/31 05:53:12.9	92.500	0.300	-0.600	0.440
2020/01/31 05:53:13.0	92.510	0.290	-0.600	0.430
2020/01/31 05:53:13.1	92.510	0.290	-0.590	0.420
2020/01/31 05:53:13.2	92.520	0.280	-0.580	0.420
2020/01/31 05:53:13.3	92.530	0.270	-0.560	0.410
2020/01/31 05:53:13.4	92.540	0.250	-0.540	0.400
2020/01/31 05:53:13.5	92.550	0.240	-0.510	0.400
2020/01/31 05:53:13.6	92.570	0.220	-0.480	0.400
2020/01/31 05:53:13.7	92.580	0.200	-0.450	0.400
2020/01/31 05:53:13.8	92.590	0.180	-0.420	0.410
2020/01/31 05:53:13.9	92.610	0.160	-0.380	0.420
2020/01/31 05:53:14.0	92.620	0.140	-0.340	0.430
2020/01/31 05:53:14.1	92.640	0.120	-0.300	0.450
2020/01/31 05:53:14.2	92.650	0.100	-0.250	0.460
2020/01/31 05:53:14.3	92.670	0.080	-0.200	0.490
2020/01/31 05:53:14.4	92.680	0.060	-0.160	0.510
2020/01/31 05:53:14.5	92.700	0.040	-0.110	0.540
2020/01/31 05:53:14.6	92.720	0.010	-0.060	0.570
2020/01/31 05:53:14.7	92.730	-0.010	-0.020	0.600
2020/01/31 05:53:14.8	92.750	-0.030	0.020	0.630
2020/01/31 05:53:14.9	92.770	-0.040	0.070	0.670
2020/01/31 05:53:15.0	92.790	-0.060	0.110	0.700
2020/01/31 05:53:15.1	92.810	-0.080	0.140	0.730
2020/01/31 05:53:15.2	92.830	-0.090	0.170	0.770
2020/01/31 05:53:15.3	92.860	-0.110	0.200	0.800
2020/01/31 05:53:15.4	92.880	-0.120	0.230	0.830
2020/01/31 05:53:15.5	92.900	-0.130	0.250	0.860
2020/01/31 05:53:15.6	92.930	-0.140	0.270	0.880
2020/01/31 05:53:15.7	92.950	-0.150	0.280	0.910
2020/01/31 05:53:15.8	92.980	-0.160	0.290	0.930
2020/01/31 05:53:15.9	93.000	-0.170	0.300	0.950
2020/01/31 05:53:16.0	93.020	-0.170	0.300	0.970
2020/01/31 05:53:16.1	93.040	-0.180	0.300	0.990
2020/01/31 05:53:16.2	93.060	-0.180	0.290	1.000
2020/01/31 05:53:16.3	93.080	-0.180	0.280	1.020
2020/01/31 05:53:16.4	93.100	-0.180	0.260	1.030
2020/01/31 05:53:16.5	93.110	-0.180	0.240	1.050
2020/01/31 05:53:16.6	93.120	-0.180	0.220	1.060
2020/01/31 05:53:16.7	93.130	-0.170	0.180	1.080
2020/01/31 05:53:16.8	93.140	-0.160	0.150	1.090
2020/01/31 05:53:16.9	93.150	-0.150	0.110	1.110
2020/01/31 05:53:17.0	93.150	-0.140	0.070	1.130
2020/01/31 05:53:17.1	93.140	-0.130	0.020	1.150
2020/01/31 05:53:17.2	93.140	-0.110	-0.020	1.160
2020/01/31 05:53:17.3	93.130	-0.100	-0.080	1.180
2020/01/31 05:53:17.4	93.110	-0.080	-0.130	1.200
2020/01/31 05:53:17.5	93.090	-0.060	-0.180	1.220
2020/01/31 05:53:17.6	93.070	-0.040	-0.230	1.240
2020/01/31 05:53:17.7	93.050	-0.010	-0.290	1.250
2020/01/31 05:53:17.8	93.020	0.010	-0.340	1.270
2020/01/31 05:53:17.9	92.990	0.030	-0.390	1.280
2020/01/31 05:53:18.0	92.960	0.060	-0.440	1.300
2020/01/31 05:53:18.1	92.920	0.080	-0.490	1.310
2020/01/31 05:53:18.2	92.880	0.110	-0.540	1.310
2020/01/31 05:53:18.3	92.840	0.130	-0.580	1.310
2020/01/31 05:53:18.4	92.800	0.150	-0.620	1.320
2020/01/31 05:53:18.5	92.760	0.170	-0.650	1.320
2020/01/31 05:53:18.6	92.710	0.190	-0.680	1.320
2020/01/31 05:53:18.7	92.670	0.210	-0.700	1.310
2020/01/31 05:53:18.8	92.630	0.230	-0.720	1.310
2020/01/31 05:53:18.9	92.590	0.240	-0.730	1.300
2020/01/31 05:53:19.0	92.560	0.260	-0.730	1.290
2020/01/31 05:53:19.1	92.520	0.270	-0.740	1.280
2020/01/31 05:53:19.2	92.490	0.280	-0.730	1.260
2020/01/31 05:53:19.3	92.460	0.290	-0.730	1.250
2020/01/31 05:53:19.4	92.430	0.290	-0.720	1.230
2020/01/31 05:53:19.5	92.410	0.300	-0.700	1.210
2020/01/31 05:53:19.6	92.390	0.300	-0.680	1.190
2020/01/31 05:53:19.7	92.370	0.300	-0.660	1.170
2020/01/31 05:53:19.8	92.360	0.300	-0.640	1.140
2020/01/31 05:53:19.9	92.350	0.300	-0.610	1.110
2020/01/31 05:53:20.0	92.350	0.290	-0.580	1.080
2020/01/31 05:53:20.1	92.350	0.290	-0.550	1.050
2020/01/31 05:53:20.2	92.350	0.280	-0.520	1.020
2020/01/31 05:53:20.3	92.360	0.270	-0.490	0.980
2020/01/31 05:53:20.4	92.370	0.260	-0.460	0.940
2020/01/31 05:53:20.5	92.390	0.250	-0.430	0.900
2020/01/31 05:53:20.6	92.410	0.240	-0.400	0.860
2020/01/31 05:53:20.7	92.430	0.230	-0.370	0.820
2020/01/31 05:53:20.8	92.460	0.220	-0.350	0.780
2020/01/31 05:53:20.9	92.480	0.200	-0.320	0.740
2020/01/31 05:53:21.0	92.510	0.190	-0.290	0.700
2020/01/31 05:53:21.1	92.540	0.180	-0.270	0.660
2020/01/31 05:53:21.2	92.570	0.170	-0.240	0.620
2020/01/31 05:53:21.3	92.610	0.160	-0.220	0.580
2020/01/31 05:53:21.4	92.640	0.150	-0.200	0.540
2020/01/31 05:53:21.5	92.680	0.130	-0.180	0.510
2020/01/31 05:53:21.6	92.710	0.120	-0.160	0.470
2020/01/31 05:53:21.7	92.740	0.110	-0.140	0.440
2020/01/31 05:53:21.8	92.780	0.100	-0.130	0.410
2020/01/31 05:53:21.9	92.810	0.090	-0.110	0.380
2020/01/31 05:53:22.0	92.840	0.080	-0.090	0.360
2020/01/31 05:53:22.1	92.870	0.060	-0.070	0.340
2020/01/31 05:53:22.2	92.900	0.050	-0.060	0.330
2020/01/31 05:53:22.3	92.930	0.040	-0.040	0.310
2020/01/31 05:53:22.4	92.960	0.030	-0.020	0.300
2020/01/31 05:53:22.5	92.980	0.010	-0.010	0.300
2020/01/31 05:53:22.6	93.000	-0.000	0.010	0.300
2020/01/31 05:53:22.7	93.020	-0.020	0.030	0.300
2020/01/31 05:53:22.8	93.040	-0.030	0.040	0.310
2020/01/31 05:53:22.9	93.050	-0.050	0.060	0.330
2020/01/31 05:53:23.0	93.070	-0.070	0.070	0.350
2020/01/31 05:53:23.1	93.070	-0.090	0.090	0.370
2020/01/31 05:53:23.2	93.080	-0.100	0.100	0.400
2020/01/31 05:53:23.3	93.080	-0.120	0.110	0.440
2020/01/31 05:53:23.4	93.080	-0.140	0.120	0.470
2020/01/31 05:53:23.5	93.070	-0.160	0.130	0.520
2020/01/31 05:53:23.6	93.060	-0.180	0.140	0.560
2020/01/31 05:53:23.7	93.050	-0.200	0.150	0.610
2020/01/31 05:53:23.8	93.040	-0.220	0.160	0.670
2020/01/31 05:53:23.9	93.030	-0.240	0.160	0.720
2020/01/31 05:53:24.0	93.010	-0.260	0.170	0.780
2020/01/31 05:53:24.1	92.990	-0.270	0.170	0.830
2020/01/31 05:53:24.2	92.970	-0.290	0.170	0.890
2020/01/31 05:53:24.3	92.950	-0.300	0.170	0.950
2020/01/31 05:53:24.4	92.930	-0.320	0.170	1.000
2020/01/31 05:53:24.5	92.910	-0.330	0.170	1.050
2020/01/31 05:53:24.6	92.890	-0.340	0.170	1.100
2020/01/31 05:53:24.7	92.880	-0.350	0.160	1.150
2020/01/31 05:53:24.8	92.860	-0.350	0.160	1.190
2020/01/31 05:53:24.9	92.840	-0.360	0.150	1.230
2020/01/31 05:53:25.0	92.830	-0.360	0.140	1.260
2020/01/31 05:53:25.1	92.810	-0.360	0.130	1.290
2020/01/31 05:53:25.2	92.800	-0.360	0.120	1.320
2020/01/31 05:53:25.3	92.790	-0.360	0.110	1.330
2020/01/31 05:53:25.4	92.790	-0.360	0.100	1.350
2020/01/31 05:53:25.5	92.780	-0.360	0.080	1.360
2020/01/31 05:53:25.6	92.780	-0.350	0.060	1.360
2020/01/31 05:53:25.7	92.780	-0.340	0.050	1.360
2020/01/31 05:53:25.8	92.780	-0.340	0.030	1.350
2020/01/31 05:53:25.9	92.780	-0.330	0.000	1.340
2020/01/31 05:53:26.0	92.780	-0.320	-0.020	1.330
2020/01/31 05:53:26.1	92.790	-0.310	-0.040	1.310
2020/01/31 05:53:26.2	92.790	-0.290	-0.070	1.290
2020/01/31 05:53:26.3	92.800	-0.280	-0.110	1.260
2020/01/31 05:53:26.4	92.800	-0.270	-0.140	1.230
2020/01/31 05:53:26.5	92.810	-0.260	-0.170	1.200
2020/01/31 05:53:26.6	92.820	-0.240	-0.200	1.170
2020/01/31 05:53:26.7	92.820	-0.230	-0.240	1.130
2020/01/31 05:53:26.8	92.830	-0.210	-0.270	1.100
2020/01/31 05:53:26.9	92.830	-0.200	-0.310	1.060
2020/01/31 05:53:27.0	92.840	-0.180	-0.350	1.030
2020/01/31 05:53:27.1	92.840	-0.170	-0.380	0.990
2020/01/31 05:53:27.2	92.840	-0.150	-0.420	0.960
2020/01/31 05:53:27.3	92.850	-0.140	-0.460	0.920
2020/01/31 05:53:27.4	92.850	-0.120	-0.500	0.890
2020/01/31 05:53:27.5	92.850	-0.110	-0.540	0.850
2020/01/31 05:53:27.6	92.850	-0.090	-0.570	0.820
2020/01/31 05:53:27.7	92.850	-0.080	-0.600	0.790
2020/01/31 05:53:27.8	92.850	-0.070	-0.640	0.770
2020/01/31 05:53:27.9	92.840	-0.050	-0.670	0.740
2020/01/31 05:53:28.0	92.840	-0.040	-0.690	0.720
2020/01/31 05:53:28.1	92.840	-0.020	-0.720	0.700
2020/01/31 05:53:28.2	92.840	-0.010	-0.740	0.680
2020/01/31 05:53:28.3	92.840	0.000	-0.750	0.660
2020/01/31 05:53:28.4	92.830	0.010	-0.770	0.650
2020/01/31 05:53:28.5	92.830	0.030	-0.780	0.640
2020/01/31 05:53:28.6	92.830	0.040	-0.780	0.630
2020/01/31 05:53:28.7	92.820	0.050	-0.780	0.630
2020/01/31 05:53:28.8	92.820	0.060	-0.780	0.620
2020/01/31 05:53:28.9	92.810	0.070	-0.770	0.620
2020/01/31 05:53:29.0	92.810	0.080	-0.760	0.630
2020/01/31 05:53:29.1	92.800	0.090	-0.740	0.630
2020/01/31 05:53:29.2	92.800	0.100	-0.720	0.640
2020/01/31 05:53:29.3	92.790	0.110	-0.700	0.640
2020/01/31 05:53:29.4	92.780	0.120	-0.670	0.660
2020/01/31 05:53:29.5	92.770	0.120	-0.650	0.670
2020/01/31 05:53:29.6	92.760	0.130	-0.610	0.690
2020/01/31 05:53:29.7	92.750	0.130	-0.580	0.710
2020/01/31 05:53:29.8	92.740	0.140	-0.540	0.730
2020/01/31 05:53:29.9	92.730	0.140	-0.510	0.750
2020/01/31 05:53:30.0	92.710	0.140	-0.470	0.770
2020/01/31 05:53:30.1	92.700	0.140	-0.430	0.790
2020/01/31 05:53:30.2	92.690	0.150	-0.400	0.820
2020/01/31 05:53:30.3	92.680	0.150	-0.360	0.840
2020/01/31 05:53:30.4	92.670	0.150	-0.330	0.870
2020/01/31 05:53:30.5	92.650	0.150	-0.300	0.890
2020/01/31 05:53:30.6	92.640	0.150	-0.270	0.910
2020/01/31 05:53:30.7	92.630	0.150	-0.250	0.920
2020/01/31 05:53:30.8	92.620	0.150	-0.220	0.940
2020/01/31 05:53:30.9	92.610	0.150	-0.210	0.950
2020/01/31 05:53:31.0	92.600	0.150	-0.190	0.960
2020/01/31 05:53:31.1	92.600	0.150	-0.180	0.970
2020/01/31 05:53:31.2	92.590	0.150	-0.170	0.970
2020/01/31 05:53:31.3	92.580	0.150	-0.170	0.970
2020/01/31 05:53:31.4	92.580	0.160	-0.160	0.970
2020/01/31 05:53:31.5	92.580	0.160	-0.160	0.970
2020/01/31 05:53:31.6	92.580	0.160	-0.160	0.960
2020/01/31 05:53:31.7	92.580	0.170	-0.170	0.960
2020/01/31 05:53:31.8	92.580	0.170	-0.170	0.950
2020/01/31 05:53:31.9	92.580	0.170	-0.170	0.950
2020/01/31 05:53:32.0	92.580	0.180	-0.180	0.940
2020/01/31 05:53:32.1	92.580	0.180	-0.180	0.930
2020/01/31 05:53:32.2	92.580	0.180	-0.190	0.920
2020/01/31 05:53:32.3	92.580	0.180	-0.190	0.910
2020/01/31 05:53:32.4	92.580	0.180	-0.190	0.900
2020/01/31 05:53:32.5	92.570	0.180	-0.190	0.900
2020/01/31 05:53:32.6	92.570	0.180	-0.190	0.890
2020/01/31 05:53:32.7	92.570	0.180	-0.190	0.890
2020/01/31 05:53:32.8	92.560	0.180	-0.190	0.880
2020/01/31 05:53:32.9	92.550	0.180	-0.180	0.880
2020/01/31 05:53:33.0	92.540	0.170	-0.180	0.870
2020/01/31 05:53:33.1	92.530	0.170	-0.170	0.870
2020/01/31 05:53:33.2	92.520	0.160	-0.160	0.870
2020/01/31 05:53:33.3	92.510	0.150	-0.150	0.860
2020/01/31 05:53:33.4	92.490	0.140	-0.130	0.860
2020/01/31 05:53:33.5	92.470	0.130	-0.110	0.860
2020/01/31 05:53:33.6	92.440	0.120	-0.090	0.850
2020/01/31 05:53:33.7	92.420	0.110	-0.070	0.850
2020/01/31 05:53:33.8	92.400	0.100	-0.050	0.840
2020/01/31 05:53:33.9	92.370	0.090	-0.030	0.830
2020/01/31 05:53:34.0	92.340	0.070	-0.010	0.830
2020/01/31 05:53:34.1	92.320	0.060	0.020	0.820
2020/01/31 05:53:34.2	92.290	0.040	0.040	0.810
2020/01/31 05:53:34.3	92.270	0.030	0.060	0.800
2020/01/31 05:53:34.4	92.240	0.010	0.080	0.790
2020/01/31 05:53:34.5	92.210	-0.000	0.100	0.770
2020/01/31 05:53:34.6	92.190	-0.020	0.120	0.760
2020/01/31 05:53:34.7	92.170	-0.030	0.130	0.750
2020/01/31 05:53:34.8	92.150	-0.040	0.140	0.730
2020/01/31 05:53:34.9	92.130	-0.050	0.150	0.720
2020/01/31 05:53:35.0	92.110	-0.060	0.160	0.700
2020/01/31 05:53:35.1	92.100	-0.070	0.160	0.680
2020/01/31 05:53:35.2	92.100	-0.080	0.160	0.660
2020/01/31 05:53:35.3	92.090	-0.090	0.160	0.630
2020/01/31 05:53:35.4	92.090	-0.090	0.150	0.610
2020/01/31 05:53:35.5	92.100	-0.100	0.140	0.580
2020/01/31 05:53:35.6	92.100	-0.100	0.120	0.560
2020/01/31 05:53:35.7	92.110	-0.100	0.100	0.540
2020/01/31 05:53:35.8	92.130	-0.100	0.070	0.520
2020/01/31 05:53:35.9	92.140	-0.090	0.050	0.500
2020/01/31 05:53:36.0	92.160	-0.090	0.020	0.480
2020/01/31 05:53:36.1	92.180	-0.080	-0.010	0.460
2020/01/31 05:53:36.2	92.210	-0.070	-0.050	0.440
2020/01/31 05:53:36.3	92.230	-0.060	-0.090	0.430
2020/01/31 05:53:36.4	92.250	-0.050	-0.120	0.410
2020/01/31 05:53:36.5	92.280	-0.030	-0.160	0.400
2020/01/31 05:53:36.6	92.310	-0.020	-0.190	0.390
2020/01/31 05:53:36.7	92.340	-0.010	-0.230	0.380
2020/01/31 05:53:36.8	92.370	0.010	-0.260	0.370
2020/01/31 05:53:36.9	92.400	0.020	-0.290	0.370
2020/01/31 05:53:37.0	92.430	0.030	-0.320	0.360
2020/01/31 05:53:37.1	92.460	0.040	-0.350	0.360
2020/01/31 05:53:37.2	92.490	0.060	-0.380	0.360
2020/01/31 05:53:37.3	92.510	0.070	-0.410	0.360
2020/01/31 05:53:37.4	92.540	0.080	-0.430	0.360
2020/01/31 05:53:37.5	92.570	0.090	-0.450	0.360
2020/01/31 05:53:37.6	92.590	0.090	-0.460	0.370
2020/01/31 05:53:37.7	92.610	0.100	-0.470	0.380
2020/01/31 05:53:37.8	92.630	0.100	-0.480	0.400
2020/01/31 05:53:37.9	92.650	0.100	-0.480	0.420
2020/01/31 05:53:38.0	92.660	0.100	-0.480	0.440
2020/01/31 05:53:38.1	92.670	0.090	-0.480	0.470
2020/01/31 05:53:38.2	92.680	0.090	-0.470	0.500
2020/01/31 05:53:38.3	92.690	0.080	-0.450	0.540
2020/01/31 05:53:38.4	92.690	0.060	-0.430	0.580
2020/01/31 05:53:38.5	92.690	0.050	-0.410	0.620
2020/01/31 05:53:38.6	92.680	0.030	-0.390	0.660
2020/01/31 05:53:38.7	92.670	0.010	-0.360	0.700
2020/01/31 05:53:38.8	92.660	-0.010	-0.330	0.750
2020/01/31 05:53:38.9	92.640	-0.040	-0.290	0.800
2020/01/31 05:53:39.0	92.620	-0.070	-0.260	0.850
2020/01/31 05:53:39.1	92.600	-0.100	-0.220	0.900
2020/01/31 05:53:39.2	92.580	-0.130	-0.180	0.950
2020/01/31 05:53:39.3	92.570	-0.160	-0.150	1.010
2020/01/31 05:53:39.4	92.550	-0.190	-0.110	1.060
2020/01/31 05:53:39.5	92.520	-0.220	-0.070	1.110
2020/01/31 05:53:39.6	92.500	-0.260	-0.040	1.160
2020/01/31 05:53:39.7	92.470	-0.290	-0.010	1.200
2020/01/31 05:53:39.8	92.440	-0.320	0.020	1.250
2020/01/31 05:53:39.9	92.420	-0.350	0.050	1.290
2020/01/31 05:53:40.0	92.390	-0.380	0.070	1.320
2020/01/31 05:53:40.1	92.370	-0.400	0.080	1.360
2020/01/31 05:53:40.2	92.350	-0.420	0.090	1.390
2020/01/31 05:53:40.3	92.330	-0.440	0.090	1.410
2020/01/31 05:53:40.4	92.300	-0.460	0.090	1.430
2020/01/31 05:53:40.5	92.280	-0.470	0.080	1.450
2020/01/31 05:53:40.6	92.260	-0.470	0.070	1.460
2020/01/31 05:53:40.7	92.240	-0.480	0.050	1.470
2020/01/31 05:53:40.8	92.230	-0.470	0.030	1.470
2020/01/31 05:53:40.9	92.210	-0.470	0.000	1.480
2020/01/31 05:53:41.0	92.190	-0.460	-0.030	1.470
2020/01/31 05:53:41.1	92.180	-0.450	-0.060	1.470
2020/01/31 05:53:41.2	92.170	-0.430	-0.100	1.460
2020/01/31 05:53:41.3	92.150	-0.410	-0.140	1.450
2020/01/31 05:53:41.4	92.140	-0.390	-0.180	1.430
2020/01/31 05:53:41.5	92.120	-0.360	-0.220	1.420
2020/01/31 05:53:41.6	92.110	-0.330	-0.260	1.400
2020/01/31 05:53:41.7	92.100	-0.300	-0.300	1.380
2020/01/31 05:53:41.8	92.090	-0.270	-0.340	1.360
2020/01/31 05:53:41.9	92.080	-0.240	-0.380	1.330
2020/01/31 05:53:42.0	92.070	-0.210	-0.410	1.300
2020/01/31 05:53:42.1	92.060	-0.170	-0.450	1.270
2020/01/31 05:53:42.2	92.060	-0.140	-0.480	1.240
2020/01/31 05:53:42.3	92.050	-0.100	-0.500	1.210
2020/01/31 05:53:42.4	92.040	-0.070	-0.530	1.170
2020/01/31 05:53:42.5	92.040	-0.040	-0.550	1.140
2020/01/31 05:53:42.6	92.030	-0.000	-0.570	1.100
2020/01/31 05:53:42.7	92.030	0.030	-0.590	1.060
2020/01/31 05:53:42.8	92.020	0.060	-0.600	1.020
2020/01/31 05:53:42.9	92.020	0.090	-0.610	0.980
2020/01/31 05:53:43.0	92.020	0.120	-0.620	0.940
2020/01/31 05:53:43.1	92.010	0.140	-0.630	0.900
2020/01/31 05:53:43.2	92.010	0.170	-0.630	0.870
2020/01/31 05:53:43.3	92.000	0.190	-0.630	0.820
2020/01/31 05:53:43.4	92.000	0.220	-0.630	0.790
2020/01/31 05:53:43.5	91.990	0.240	-0.620	0.760
2020/01/31 05:53:43.6	91.990	0.260	-0.610	0.730
2020/01/31 05:53:43.7	91.980	0.270	-0.600	0.710
2020/01/31 05:53:43.8	91.980	0.290	-0.590	0.680
2020/01/31 05:53:43.9	91.980	0.300	-0.570	0.660
2020/01/31 05:53:44.0	91.970	0.320	-0.560	0.650
2020/01/31 05:53:44.1	91.970	0.330	-0.540	0.630
2020/01/31 05:53:44.2	91.970	0.330	-0.510	0.620
2020/01/31 05:53:44.3	91.970	0.340	-0.490	0.620
2020/01/31 05:53:44.4	91.960	0.340	-0.460	0.610
2020/01/31 05:53:44.5	91.960	0.340	-0.440	0.610
2020/01/31 05:53:44.6	91.960	0.340	-0.410	0.610
2020/01/31 05:53:44.7	91.950	0.340	-0.380	0.610
2020/01/31 05:53:44.8	91.950	0.330	-0.350	0.620
2020/01/31 05:53:44.9	91.950	0.320	-0.310	0.630
2020/01/31 05:53:45.0	91.950	0.300	-0.280	0.640
2020/01/31 05:53:45.1	91.950	0.290	-0.250	0.650
2020/01/31 05:53:45.2	91.950	0.270	-0.210	0.660
2020/01/31 05:53:45.3	91.940	0.250	-0.180	0.660
2020/01/31 05:53:45.4	91.940	0.230	-0.150	0.680
2020/01/31 05:53:45.5	91.940	0.210	-0.120	0.690
2020/01/31 05:53:45.6	91.940	0.180	-0.090	0.700
2020/01/31 05:53:45.7	91.940	0.150	-0.060	0.710
2020/01/31 05:53:45.8	91.950	0.120	-0.030	0.720
2020/01/31 05:53:45.9	91.950	0.100	-0.010	0.730
2020/01/31 05:53:46.0	91.950	0.060	0.020	0.740
2020/01/31 05:53:46.1	91.950	0.030	0.040	0.750
2020/01/31 05:53:46.2	91.950	0.000	0.060	0.760
2020/01/31 05:53:46.3	91.960	-0.030	0.080	0.760
2020/01/31 05:53:46.4	91.960	-0.060	0.090	0.770
2020/01/31 05:53:46.5	91.960	-0.090	0.110	0.780
2020/01/31 05:53:46.6	91.960	-0.120	0.120	0.790
2020/01/31 05:53:46.7	91.960	-0.150	0.130	0.800
2020/01/31 05:53:46.8	91.950	-0.170	0.140	0.810
2020/01/31 05:53:46.9	91.950	-0.200	0.140	0.820
2020/01/31 05:53:47.0	91.950	-0.220	0.150	0.820
2020/01/31 05:53:47.1	91.950	-0.240	0.150	0.830
2020/01/31 05:53:47.2	91.940	-0.260	0.150	0.840
2020/01/31 05:53:47.3	91.940	-0.280	0.140	0.850
2020/01/31 05:53:47.4	91.940	-0.300	0.140	0.860
2020/01/31 05:53:47.5	91.930	-0.310	0.130	0.870
2020/01/31 05:53:47.6	91.930	-0.320	0.120	0.880
2020/01/31 05:53:47.7	91.920	-0.320	0.110	0.880
2020/01/31 05:53:47.8	91.920	-0.330	0.100	0.890
2020/01/31 05:53:47.9	91.920	-0.330	0.090	0.890
2020/01/31 05:53:48.0	91.920	-0.330	0.070	0.900
2020/01/31 05:53:48.1	91.920	-0.320	0.050	0.910
2020/01/31 05:53:48.2	91.920	-0.310	0.030	0.910
2020/01/31 05:53:48.3	91.940	-0.300	0.010	0.910
2020/01/31 05:53:48.4	91.940	-0.290	-0.020	0.920
2020/01/31 05:53:48.5	91.950	-0.270	-0.050	0.920
2020/01/31 05:53:48.6	91.950	-0.250	-0.070	0.920
2020/01/31 05:53:48.7	91.960	-0.230	-0.110	0.920
2020/01/31 05:53:48.8	91.970	-0.200	-0.140	0.930
2020/01/31 05:53:48.9	91.980	-0.180	-0.170	0.930
2020/01/31 05:53:49.0	92.000	-0.150	-0.210	0.930
2020/01/31 05:53:49.1	92.010	-0.120	-0.240	0.930
2020/01/31 05:53:49.2	92.030	-0.090	-0.280	0.940
2020/01/31 05:53:49.3	92.050	-0.060	-0.320	0.940
2020/01/31 05:53:49.4	92.060	-0.030	-0.360	0.940
2020/01/31 05:53:49.5	92.080	0.000	-0.400	0.950
2020/01/31 05:53:49.6	92.100	0.030	-0.440	0.950
2020/01/31 05:53:49.7	92.120	0.060	-0.480	0.960
2020/01/31 05:53:49.8	92.140	0.100	-0.520	0.970
2020/01/31 05:53:49.9	92.160	0.130	-0.560	0.970
2020/01/31 05:53:50.0	92.180	0.160	-0.590	0.980
2020/01/31 05:53:50.1	92.200	0.180	-0.630	0.980
2020/01/31 05:53:50.2	92.210	0.210	-0.660	0.990
2020/01/31 05:53:50.3	92.220	0.240	-0.700	1.000
2020/01/31 05:53:50.4	92.230	0.260	-0.730	1.000
2020/01/31 05:53:50.5	92.230	0.280	-0.750	1.000
2020/01/31 05:53:50.6	92.240	0.300	-0.770	1.010
2020/01/31 05:53:50.7	92.240	0.320	-0.790	1.010
2020/01/31 05:53:50.8	92.230	0.340	-0.800	1.010
2020/01/31 05:53:50.9	92.230	0.350	-0.810	1.010
2020/01/31 05:53:51.0	92.220	0.360	-0.810	1.010
2020/01/31 05:53:51.1	92.210	0.370	-0.810	1.000
2020/01/31 05:53:51.2	92.190	0.370	-0.790	1.000
2020/01/31 05:53:51.3	92.170	0.370	-0.770	0.990
2020/01/31 05:53:51.4	92.150	0.370	-0.750	0.990
2020/01/31 05:53:51.5	92.130	0.370	-0.720	0.980
2020/01/31 05:53:51.6	92.100	0.360	-0.680	0.980
2020/01/31 05:53:51.7	92.080	0.350	-0.630	0.970
2020/01/31 05:53:51.8	92.050	0.330	-0.580	0.960
2020/01/31 05:53:51.9	92.020	0.310	-0.530	0.960
2020/01/31 05:53:52.0	91.990	0.290	-0.470	0.950
2020/01/31 05:53:52.1	91.960	0.270	-0.400	0.940
2020/01/31 05:53:52.2	91.930	0.240	-0.330	0.940
2020/01/31 05:53:52.3	91.900	0.210	-0.270	0.930
2020/01/31 05:53:52.4	91.880	0.180	-0.190	0.920
2020/01/31 05:53:52.5	91.850	0.140	-0.120	0.920
2020/01/31 05:53:52.6	91.830	0.110	-0.040	0.910
2020/01/31 05:53:52.7	91.810	0.070	0.030	0.910
2020/01/31 05:53:52.8	91.790	0.030	0.100	0.910
2020/01/31 05:53:52.9	91.770	-0.010	0.170	0.900
2020/01/31 05:53:53.0	91.760	-0.050	0.240	0.900
2020/01/31 05:53:53.1	91.750	-0.090	0.300	0.890
2020/01/31 05:53:53.2	91.740	-0.130	0.360	0.890
2020/01/31 05:53:53.3	91.730	-0.160	0.430	0.890
2020/01/31 05:53:53.4	91.730	-0.200	0.470	0.880
2020/01/31 05:53:53.5	91.730	-0.240	0.520	0.880
2020/01/31 05:53:53.6	91.730	-0.280	0.550	0.870
2020/01/31 05:53:53.7	91.740	-0.310	0.580	0.860
2020/01/31 05:53:53.8	91.750	-0.340	0.600	0.840
2020/01/31 05:53:53.9	91.760	-0.370	0.610	0.830
2020/01/31 05:53:54.0	91.770	-0.400	0.620	0.810
2020/01/31 05:53:54.1	91.790	-0.420	0.610	0.790
2020/01/31 05:53:54.2	91.800	-0.450	0.600	0.770
2020/01/31 05:53:54.3	91.830	-0.460	0.580	0.740
2020/01/31 05:53:54.4	91.850	-0.480	0.550	0.710
2020/01/31 05:53:54.5	91.870	-0.490	0.520	0.680
2020/01/31 05:53:54.6	91.890	-0.490	0.480	0.640
2020/01/31 05:53:54.7	91.920	-0.500	0.430	0.600
2020/01/31 05:53:54.8	91.940	-0.500	0.370	0.560
2020/01/31 05:53:54.9	91.970	-0.490	0.310	0.520
2020/01/31 05:53:55.0	92.000	-0.480	0.240	0.480
2020/01/31 05:53:55.1	92.020	-0.470	0.170	0.440
2020/01/31 05:53:55.2	92.040	-0.450	0.100	0.400
2020/01/31 05:53:55.3	92.070	-0.430	0.020	0.360
2020/01/31 05:53:55.4	92.100	-0.410	-0.060	0.330
2020/01/31 05:53:55.5	92.110	-0.380	-0.140	0.300
2020/01/31 05:53:55.6	92.130	-0.350	-0.220	0.270
2020/01/31 05:53:55.7	92.140	-0.310	-0.300	0.250
2020/01/31 05:53:55.8	92.150	-0.280	-0.380	0.240
2020/01/31 05:53:55.9	92.160	-0.240	-0.450	0.230
2020/01/31 05:53:56.0	92.160	-0.200	-0.520	0.230
2020/01/31 05:53:56.1	92.160	-0.160	-0.590	0.240
2020/01/31 05:53:56.2	92.150	-0.120	-0.650	0.250
2020/01/31 05:53:56.3	92.140	-0.080	-0.710	0.270
2020/01/31 05:53:56.4	92.130	-0.040	-0.770	0.290
2020/01/31 05:53:56.5	92.110	0.000	-0.810	0.320
2020/01/31 05:53:56.6	92.100	0.040	-0.850	0.360
2020/01/31 05:53:56.7	92.080	0.080	-0.890	0.390
2020/01/31 05:53:56.8	92.050	0.120	-0.920	0.430
2020/01/31 05:53:56.9	92.030	0.150	-0.940	0.480
2020/01/31 05:53:57.0	92.000	0.190	-0.960	0.520
2020/01/31 05:53:57.1	91.970	0.220	-0.970	0.570
2020/01/31 05:53:57.2	91.940	0.240	-0.980	0.610
2020/01/31 05:53:57.3	91.900	0.270	-0.980	0.660
2020/01/31 05:53:57.4	91.870	0.290	-0.980	0.710
2020/01/31 05:53:57.5	91.840	0.310	-0.970	0.750
2020/01/31 05:53:57.6	91.810	0.330	-0.950	0.790
2020/01/31 05:53:57.7	91.780	0.340	-0.930	0.830
2020/01/31 05:53:57.8	91.760	0.350	-0.910	0.860
2020/01/31 05:53:57.9	91.730	0.360	-0.880	0.890
2020/01/31 05:53:58.0	91.710	0.360	-0.850	0.920
2020/01/31 05:53:58.1	91.690	0.360	-0.820	0.940
2020/01/31 05:53:58.2	91.680	0.350	-0.780	0.960
2020/01/31 05:53:58.3	91.670	0.350	-0.740	0.970
2020/01/31 05:53:58.4	91.660	0.330	-0.690	0.980
2020/01/31 05:53:58.5	91.650	0.320	-0.640	0.990
2020/01/31 05:53:58.6	91.650	0.300	-0.590	0.990
2020/01/31 05:53:58.7	91.650	0.280	-0.530	0.990
2020/01/31 05:53:58.8	91.660	0.260	-0.470	0.980
2020/01/31 05:53:58.9	91.660	0.230	-0.410	0.980
2020/01/31 05:53:59.0	91.670	0.210	-0.350	0.970
2020/01/31 05:53:59.1	91.680	0.180	-0.280	0.970
2020/01/31 05:53:59.2	91.690	0.150	-0.220	0.960
2020/01/31 05:53:59.3	91.700	0.110	-0.150	0.950
2020/01/31 05:53:59.4	91.720	0.080	-0.080	0.940
2020/01/31 05:53:59.5	91.730	0.040	-0.020	0.930
2020/01/31 05:53:59.6	91.750	0.010	0.050	0.920
2020/01/31 05:53:59.7	91.760	-0.030	0.110	0.910
2020/01/31 05:53:59.8	91.780	-0.060	0.180	0.900
2020/01/31 05:53:59.9	91.790	-0.100	0.230	0.890
2020/01/31 05:54:00.0	91.810	-0.130	0.290	0.880
2020/01/31 05:54:00.1	91.820	-0.160	0.340	0.860
2020/01/31 05:54:00.2	91.830	-0.190	0.390	0.850
2020/01/31 05:54:00.3	91.850	-0.220	0.430	0.840
2020/01/31 05:54:00.4	91.860	-0.250	0.460	0.820
2020/01/31 05:54:00.5	91.870	-0.270	0.490	0.810
2020/01/31 05:54:00.6	91.880	-0.290	0.510	0.790
2020/01/31 05:54:00.7	91.890	-0.310	0.530	0.770
2020/01/31 05:54:00.8	91.900	-0.320	0.540	0.750
2020/01/31 05:54:00.9	91.910	-0.330	0.540	0.730
2020/01/31 05:54:01.0	91.920	-0.330	0.530	0.710
2020/01/31 05:54:01.1	91.920	-0.340	0.520	0.680
2020/01/31 05:54:01.2	91.930	-0.330	0.490	0.660
2020/01/31 05:54:01.3	91.940	-0.330	0.460	0.630
2020/01/31 05:54:01.4	91.950	-0.320	0.430	0.610
2020/01/31 05:54:01.5	91.950	-0.300	0.390	0.580
2020/01/31 05:54:01.6	91.960	-0.290	0.340	0.560
2020/01/31 05:54:01.7	91.960	-0.260	0.280	0.540
2020/01/31 05:54:01.8	91.970	-0.240	0.220	0.520
2020/01/31 05:54:01.9	91.970	-0.210	0.160	0.510
2020/01/31 05:54:02.0	91.970	-0.180	0.090	0.500
2020/01/31 05:54:02.1	91.980	-0.150	0.030	0.490
2020/01/31 05:54:02.2	91.980	-0.110	-0.040	0.490
2020/01/31 05:54:02.3	91.980	-0.070	-0.120	0.490
2020/01/31 05:54:02.4	91.980	-0.030	-0.190	0.490
2020/01/31 05:54:02.5	91.980	0.000	-0.260	0.500
2020/01/31 05:54:02.6	91.970	0.040	-0.330	0.520
2020/01/31 05:54:02.7	91.970	0.080	-0.390	0.540
2020/01/31 05:54:02.8	91.970	0.120	-0.450	0.560
2020/01/31 05:54:02.9	91.960	0.160	-0.510	0.590
2020/01/31 05:54:03.0	91.960	0.190	-0.560	0.620
2020/01/31 05:54:03.1	91.950	0.220	-0.610	0.650
2020/01/31 05:54:03.2	91.940	0.250	-0.650	0.690
2020/01/31 05:54:03.3	91.930	0.280	-0.690	0.720
2020/01/31 05:54:03.4	91.930	0.300	-0.720	0.760
2020/01/31 05:54:03.5	91.920	0.320	-0.750	0.800
2020/01/31 05:54:03.6	91.920	0.340	-0.770	0.830
2020/01/31 05:54:03.7	91.910	0.350	-0.790	0.860
2020/01/31 05:54:03.8	91.910	0.360	-0.800	0.890
2020/01/31 05:54:03.9	91.910	0.360	-0.800	0.920
2020/01/31 05:54:04.0	91.910	0.360	-0.800	0.940
2020/01/31 05:54:04.1	91.900	0.360	-0.800	0.960
2020/01/31 05:54:04.2	91.900	0.350	-0.790	0.980
2020/01/31 05:54:04.3	91.890	0.340	-0.770	0.990
2020/01/31 05:54:04.4	91.890	0.320	-0.750	1.000
2020/01/31 05:54:04.5	91.890	0.310	-0.730	1.010
2020/01/31 05:54:04.6	91.890	0.280	-0.710	1.010
2020/01/31 05:54:04.7	91.890	0.260	-0.680	1.010
2020/01/31 05:54:04.8	91.890	0.230	-0.640	1.010
2020/01/31 05:54:04.9	91.890	0.200	-0.610	1.000
2020/01/31 05:54:05.0	91.890	0.170	-0.570	0.990
2020/01/31 05:54:05.1	91.890	0.140	-0.530	0.990
2020/01/31 05:54:05.2	91.890	0.110	-0.490	0.970
2020/01/31 05:54:05.3	91.890	0.070	-0.440	0.960
2020/01/31 05:54:05.4	91.890	0.040	-0.400	0.940
2020/01/31 05:54:05.5	91.890	-0.000	-0.350	0.930
2020/01/31 05:54:05.6	91.880	-0.040	-0.310	0.930
2020/01/31 05:54:05.7	91.870	-0.070	-0.260	0.920
2020/01/31 05:54:05.8	91.870	-0.110	-0.210	0.910
2020/01/31 05:54:05.9	91.860	-0.150	-0.160	0.910
2020/01/31 05:54:06.0	91.840	-0.180	-0.120	0.910
2020/01/31 05:54:06.1	91.830	-0.220	-0.070	0.910
2020/01/31 05:54:06.2	91.820	-0.250	-0.030	0.920
2020/01/31 05:54:06.3	91.800	-0.280	0.020	0.930
2020/01/31 05:54:06.4	91.780	-0.310	0.060	0.940
2020/01/31 05:54:06.5	91.760	-0.340	0.100	0.950
2020/01/31 05:54:06.6	91.730	-0.370	0.140	0.970
2020/01/31 05:54:06.7	91.710	-0.390	0.180	0.990
2020/01/31 05:54:06.8	91.680	-0.420	0.220	1.000
2020/01/31 05:54:06.9	91.650	-0.440	0.250	1.020
2020/01/31 05:54:07.0	91.630	-0.460	0.280	1.040
2020/01/31 05:54:07.1	91.600	-0.480	0.310	1.060
2020/01/31 05:54:07.2	91.570	-0.490	0.340	1.080
2020/01/31 05:54:07.3	91.540	-0.510	0.350	1.090
2020/01/31 05:54:07.4	91.510	-0.520	0.370	1.110
2020/01/31 05:54:07.5	91.490	-0.530	0.380	1.120
2020/01/31 05:54:07.6	91.460	-0.530	0.390	1.130
2020/01/31 05:54:07.7	91.430	-0.530	0.390	1.140
2020/01/31 05:54:07.8	91.410	-0.530	0.380	1.140
2020/01/31 05:54:07.9	91.390	-0.530	0.370	1.140
2020/01/31 05:54:08.0	91.370	-0.520	0.350	1.140
2020/01/31 05:54:08.1	91.350	-0.510	0.320	1.130
2020/01/31 05:54:08.2	91.340	-0.500	0.290	1.120
2020/01/31 05:54:08.3	91.330	-0.480	0.250	1.100
2020/01/31 05:54:08.4	91.320	-0.450	0.210	1.090
2020/01/31 05:54:08.5	91.310	-0.430	0.160	1.070
2020/01/31 05:54:08.6	91.310	-0.400	0.100	1.050
2020/01/31 05:54:08.7	91.300	-0.360	0.040	1.020
2020/01/31 05:54:08.8	91.300	-0.320	-0.030	1.000
2020/01/31 05:54:08.9	91.300	-0.280	-0.100	0.970
2020/01/31 05:54:09.0	91.300	-0.240	-0.180	0.950
2020/01/31 05:54:09.1	91.300	-0.190	-0.250	0.920
2020/01/31 05:54:09.2	91.300	-0.150	-0.330	0.890
2020/01/31 05:54:09.3	91.310	-0.090	-0.410	0.860
2020/01/31 05:54:09.4	91.310	-0.040	-0.490	0.830
2020/01/31 05:54:09.5	91.310	0.010	-0.570	0.800
2020/01/31 05:54:09.6	91.310	0.070	-0.650	0.770
2020/01/31 05:54:09.7	91.320	0.120	-0.720	0.740
2020/01/31 05:54:09.8	91.320	0.180	-0.800	0.710
2020/01/31 05:54:09.9	91.320	0.230	-0.870	0.680
2020/01/31 05:54:10.0	91.330	0.290	-0.930	0.650
2020/01/31 05:54:10.1	91.330	0.340	-0.990	0.630
2020/01/31 05:54:10.2	91.340	0.400	-1.040	0.600
2020/01/31 05:54:10.3	91.340	0.450	-1.090	0.580
2020/01/31 05:54:10.4	91.340	0.500	-1.130	0.550
2020/01/31 05:54:10.5	91.350	0.550	-1.170	0.530
2020/01/31 05:54:10.6	91.360	0.590	-1.190	0.510
2020/01/31 05:54:10.7	91.370	0.630	-1.200	0.500
2020/01/31 05:54:10.8	91.370	0.670	-1.210	0.480
2020/01/31 05:54:10.9	91.380	0.700	-1.200	0.470
2020/01/31 05:54:11.0	91.390	0.730	-1.190	0.460
2020/01/31 05:54:11.1	91.400	0.750	-1.170	0.460
2020/01/31 05:54:11.2	91.410	0.770	-1.130	0.450
2020/01/31 05:54:11.3	91.420	0.780	-1.090	0.450
2020/01/31 05:54:11.4	91.420	0.790	-1.030	0.450
2020/01/31 05:54:11.5	91.430	0.790	-0.970	0.450
2020/01/31 05:54:11.6	91.430	0.790	-0.890	0.460
2020/01/31 05:54:11.7	91.440	0.780	-0.810	0.470
2020/01/31 05:54:11.8	91.440	0.770	-0.720	0.480
2020/01/31 05:54:11.9	91.450	0.750	-0.630	0.490
2020/01/31 05:54:12.0	91.450	0.730	-0.530	0.510
2020/01/31 05:54:12.1	91.450	0.700	-0.420	0.530
2020/01/31 05:54:12.2	91.450	0.660	-0.310	0.550
2020/01/31 05:54:12.3	91.450	0.620	-0.190	0.570
2020/01/31 05:54:12.4	91.440	0.580	-0.080	0.600
2020/01/31 05:54:12.5	91.440	0.530	0.040	0.620
2020/01/31 05:54:12.6	91.430	0.480	0.150	0.650
2020/01/31 05:54:12.7	91.430	0.420	0.260	0.690
2020/01/31 05:54:12.8	91.420	0.370	0.370	0.720
2020/01/31 05:54:12.9	91.410	0.310	0.470	0.750
2020/01/31 05:54:13.0	91.410	0.250	0.570	0.790
2020/01/31 05:54:13.1	91.400	0.190	0.660	0.820
2020/01/31 05:54:13.2	91.390	0.130	0.740	0.860
2020/01/31 05:54:13.3	91.370	0.060	0.810	0.890
2020/01/31 05:54:13.4	91.360	0.000	0.870	0.930
2020/01/31 05:54:13.5	91.350	-0.060	0.930	0.960
2020/01/31 05:54:13.6	91.340	-0.110	0.970	1.000
2020/01/31 05:54:13.7	91.320	-0.170	1.000	1.030
2020/01/31 05:54:13.8	91.310	-0.220	1.020	1.060
2020/01/31 05:54:13.9	91.290	-0.270	1.020	1.090
2020/01/31 05:54:14.0	91.280	-0.320	1.020	1.120
2020/01/31 05:54:14.1	91.260	-0.360	1.000	1.150
2020/01/31 05:54:14.2	91.250	-0.400	0.970	1.180
2020/01/31 05:54:14.3	91.240	-0.440	0.930	1.200
2020/01/31 05:54:14.4	91.220	-0.470	0.880	1.220
2020/01/31 05:54:14.5	91.210	-0.500	0.820	1.240
2020/01/31 05:54:14.6	91.200	-0.520	0.750	1.250
2020/01/31 05:54:14.7	91.190	-0.540	0.680	1.260
2020/01/31 05:54:14.8	91.180	-0.550	0.600	1.270
2020/01/31 05:54:14.9	91.170	-0.570	0.510	1.280
2020/01/31 05:54:15.0	91.160	-0.570	0.420	1.280
2020/01/31 05:54:15.1	91.150	-0.580	0.330	1.280
2020/01/31 05:54:15.2	91.140	-0.580	0.230	1.280
2020/01/31 05:54:15.3	91.140	-0.580	0.130	1.270
2020/01/31 05:54:15.4	91.130	-0.580	0.040	1.270
2020/01/31 05:54:15.5	91.120	-0.570	-0.060	1.260
2020/01/31 05:54:15.6	91.110	-0.560	-0.150	1.250
2020/01/31 05:54:15.7	91.110	-0.550	-0.230	1.240
2020/01/31 05:54:15.8	91.100	-0.540	-0.320	1.230
2020/01/31 05:54:15.9	91.090	-0.530	-0.390	1.220
2020/01/31 05:54:16.0	91.080	-0.510	-0.470	1.200
2020/01/31 05:54:16.1	91.070	-0.490	-0.530	1.190
2020/01/31 05:54:16.2	91.060	-0.480	-0.600	1.180
2020/01/31 05:54:16.3	91.050	-0.460	-0.650	1.170
2020/01/31 05:54:16.4	91.040	-0.440	-0.690	1.160
2020/01/31 05:54:16.5	91.030	-0.410	-0.730	1.150
2020/01/31 05:54:16.6	91.020	-0.390	-0.770	1.140
2020/01/31 05:54:16.7	91.010	-0.370	-0.800	1.130
2020/01/31 05:54:16.8	91.000	-0.350	-0.820	1.130
2020/01/31 05:54:16.9	90.990	-0.320	-0.830	1.120
2020/01/31 05:54:17.0	90.980	-0.300	-0.840	1.120
2020/01/31 05:54:17.1	90.970	-0.270	-0.850	1.120
2020/01/31 05:54:17.2	90.960	-0.250	-0.850	1.120
2020/01/31 05:54:17.3	90.940	-0.220	-0.850	1.120
2020/01/31 05:54:17.4	90.930	-0.190	-0.840	1.120
2020/01/31 05:54:17.5	90.930	-0.170	-0.830	1.130
2020/01/31 05:54:17.6	90.920	-0.140	-0.820	1.130
2020/01/31 05:54:17.7	90.910	-0.110	-0.810	1.130
2020/01/31 05:54:17.8	90.910	-0.080	-0.800	1.140
2020/01/31 05:54:17.9	90.900	-0.050	-0.790	1.140
2020/01/31 05:54:18.0	90.900	-0.020	-0.780	1.150
2020/01/31 05:54:18.1	90.900	0.010	-0.760	1.150
2020/01/31 05:54:18.2	90.900	0.040	-0.750	1.150
2020/01/31 05:54:18.3	90.880	0.070	-0.740	1.150
2020/01/31 05:54:18.4	90.880	0.100	-0.730	1.160
2020/01/31 05:54:18.5	90.880	0.130	-0.730	1.160
2020/01/31 05:54:18.6	90.880	0.160	-0.720	1.160
2020/01/31 05:54:18.7	90.880	0.190	-0.710	1.150
2020/01/31 05:54:18.8	90.880	0.220	-0.700	1.150
2020/01/31 05:54:18.9	90.880	0.250	-0.700	1.140
2020/01/31 05:54:19.0	90.880	0.270	-0.690	1.130
2020/01/31 05:54:19.1	90.890	0.290	-0.690	1.120
2020/01/31 05:54:19.2	90.890	0.320	-0.680	1.110
2020/01/31 05:54:19.3	90.880	0.340	-0.670	1.090
2020/01/31 05:54:19.4	90.890	0.350	-0.660	1.080
2020/01/31 05:54:19.5	90.890	0.370	-0.650	1.060
2020/01/31 05:54:19.6	90.900	0.380	-0.640	1.040
2020/01/31 05:54:19.7	90.900	0.390	-0.630	1.020
2020/01/31 05:54:19.8	90.900	0.400	-0.620	0.990
2020/01/31 05:54:19.9	90.910	0.400	-0.600	0.970
2020/01/31 05:54:20.0	90.910	0.410	-0.580	0.950
2020/01/31 05:54:20.1	90.920	0.410	-0.560	0.930
2020/01/31 05:54:20.2	90.920	0.400	-0.540	0.910
2020/01/31 05:54:20.3	90.900	0.400	-0.520	0.880
2020/01/31 05:54:20.4	90.900	0.390	-0.490	0.860
2020/01/31 05:54:20.5	90.900	0.380	-0.460	0.850
2020/01/31 05:54:20.6	90.900	0.370	-0.430	0.840
2020/01/31 05:54:20.7	90.900	0.360	-0.390	0.830
2020/01/31 05:54:20.8	90.890	0.340	-0.360	0.820
2020/01/31 05:54:20.9	90.880	0.330	-0.320	0.820
2020/01/31 05:54:21.0	90.880	0.310	-0.270	0.820
2020/01/31 05:54:21.1	90.870	0.290	-0.230	0.820
2020/01/31 05:54:21.2	90.850	0.270	-0.180	0.830
2020/01/31 05:54:21.3	90.850	0.250	-0.130	0.840
2020/01/31 05:54:21.4	90.840	0.220	-0.090	0.850
2020/01/31 05:54:21.5	90.820	0.200	-0.040	0.870
2020/01/31 05:54:21.6	90.800	0.170	0.010	0.890
2020/01/31 05:54:21.7	90.790	0.150	0.060	0.910
2020/01/31 05:54:21.8	90.770	0.120	0.100	0.940
2020/01/31 05:54:21.9	90.750	0.090	0.150	0.960
2020/01/31 05:54:22.0	90.730	0.070	0.190	0.990
2020/01/31 05:54:22.1	90.710	0.040	0.240	1.010
2020/01/31 05:54:22.2	90.690	0.020	0.280	1.040
2020/01/31 05:54:22.3	90.670	-0.010	0.310	1.060
2020/01/31 05:54:22.4	90.650	-0.040	0.350	1.080
2020/01/31 05:54:22.5	90.630	-0.060	0.380	1.100
2020/01/31 05:54:22.6	90.610	-0.090	0.410	1.120
2020/01/31 05:54:22.7	90.600	-0.110	0.430	1.130
2020/01/31 05:54:22.8	90.580	-0.140	0.450	1.130
2020/01/31 05:54:22.9	90.570	-0.160	0.470	1.140
2020/01/31 05:54:23.0	90.560	-0.180	0.480	1.140
2020/01/31 05:54:23.1	90.550	-0.200	0.480	1.130
2020/01/31 05:54:23.2	90.550	-0.220	0.480	1.120
2020/01/31 05:54:23.3	90.550	-0.240	0.480	1.100
2020/01/31 05:54:23.4	90.550	-0.250	0.470	1.090
2020/01/31 05:54:23.5	90.560	-0.260	0.450	1.060
2020/01/31 05:54:23.6	90.560	-0.280	0.430	1.040
2020/01/31 05:54:23.7	90.580	-0.290	0.400	1.010
2020/01/31 05:54:23.8	90.590	-0.300	0.360	0.970
2020/01/31 05:54:23.9	90.610	-0.300	0.330	0.940
2020/01/31 05:54:24.0	90.620	-0.310	0.290	0.910
2020/01/31 05:54:24.1	90.640	-0.310	0.240	0.870
2020/01/31 05:54:24.2	90.670	-0.310	0.190	0.840
2020/01/31 05:54:24.3	90.700	-0.310	0.140	0.810
2020/01/31 05:54:24.4	90.720	-0.310	0.090	0.770
2020/01/31 05:54:24.5	90.750	-0.310	0.030	0.740
2020/01/31 05:54:24.6	90.770	-0.300	-0.020	0.710
2020/01/31 05:54:24.7	90.800	-0.300	-0.080	0.680
2020/01/31 05:54:24.8	90.820	-0.290	-0.130	0.650
2020/01/31 05:54:24.9	90.850	-0.280	-0.190	0.630
2020/01/31 05:54:25.0	90.870	-0.270	-0.240	0.600
2020/01/31 05:54:25.1	90.900	-0.260	-0.290	0.580
2020/01/31 05:54:25.2	90.920	-0.240	-0.340	0.550
2020/01/31 05:54:25.3	90.950	-0.230	-0.390	0.530
2020/01/31 05:54:25.4	90.970	-0.210	-0.430	0.510
2020/01/31 05:54:25.5	90.990	-0.190	-0.470	0.490
2020/01/31 05:54:25.6	91.000	-0.170	-0.500	0.470
2020/01/31 05:54:25.7	91.020	-0.160	-0.540	0.460
2020/01/31 05:54:25.8	91.030	-0.130	-0.560	0.450
2020/01/31 05:54:25.9	91.040	-0.110	-0.590	0.440
2020/01/31 05:54:26.0	91.050	-0.090	-0.600	0.440
2020/01/31 05:54:26.1	91.060	-0.070	-0.620	0.430
2020/01/31 05:54:26.2	91.060	-0.040	-0.630	0.430
2020/01/31 05:54:26.3	91.070	-0.020	-0.640	0.440
2020/01/31 05:54:26.4	91.070	0.000	-0.640	0.440
2020/01/31 05:54:26.5	91.070	0.030	-0.640	0.450
2020/01/31 05:54:26.6	91.070	0.060	-0.640	0.460
2020/01/31 05:54:26.7	91.060	0.080	-0.630	0.470
2020/01/31 05:54:26.8	91.060	0.110	-0.620	0.480
2020/01/31 05:54:26.9	91.050	0.140	-0.610	0.500
2020/01/31 05:54:27.0	91.040	0.160	-0.600	0.520
2020/01/31 05:54:27.1	91.030	0.190	-0.580	0.540
2020/01/31 05:54:27.2	91.020	0.220	-0.570	0.570
2020/01/31 05:54:27.3	91.020	0.250	-0.550	0.590
2020/01/31 05:54:27.4	91.000	0.270	-0.530	0.630
2020/01/31 05:54:27.5	90.990	0.300	-0.510	0.660
2020/01/31 05:54:27.6	90.980	0.320	-0.490	0.690
2020/01/31 05:54:27.7	90.970	0.340	-0.470	0.730
2020/01/31 05:54:27.8	90.960	0.370	-0.450	0.770
2020/01/31 05:54:27.9	90.940	0.390	-0.430	0.810
2020/01/31 05:54:28.0	90.930	0.400	-0.410	0.850
2020/01/31 05:54:28.1	90.920	0.420	-0.390	0.900
2020/01/31 05:54:28.2	90.910	0.430	-0.370	0.940
2020/01/31 05:54:28.3	90.890	0.440	-0.350	0.980
2020/01/31 05:54:28.4	90.880	0.450	-0.320	1.020
2020/01/31 05:54:28.5	90.870	0.460	-0.300	1.050
2020/01/31 05:54:28.6	90.860	0.460	-0.270	1.090
2020/01/31 05:54:28.7	90.850	0.460	-0.240	1.120
2020/01/31 05:54:28.8	90.850	0.450	-0.220	1.140
2020/01/31 05:54:28.9	90.840	0.450	-0.190	1.160
2020/01/31 05:54:29.0	90.840	0.440	-0.160	1.180
2020/01/31 05:54:29.1	90.830	0.420	-0.140	1.190
2020/01/31 05:54:29.2	90.830	0.400	-0.110	1.190
2020/01/31 05:54:29.3	90.840	0.380	-0.080	1.190
2020/01/31 05:54:29.4	90.840	0.360	-0.060	1.180
2020/01/31 05:54:29.5	90.840	0.340	-0.030	1.170
2020/01/31 05:54:29.6	90.840	0.310	-0.010	1.160
2020/01/31 05:54:29.7	90.850	0.280	0.010	1.140
2020/01/31 05:54:29.8	90.850	0.250	0.030	1.120
2020/01/31 05:54:29.9	90.860	0.210	0.050	1.090
2020/01/31 05:54:30.0	90.860	0.180	0.060	1.060
2020/01/31 05:54:30.1	90.870	0.150	0.070	1.030
2020/01/31 05:54:30.2	90.880	0.110	0.080	1.000
2020/01/31 05:54:30.3	90.900	0.080	0.080	0.970
2020/01/31 05:54:30.4	90.910	0.040	0.080	0.930
2020/01/31 05:54:30.5	90.920	0.010	0.080	0.900
2020/01/31 05:54:30.6	90.930	-0.030	0.070	0.860
2020/01/31 05:54:30.7	90.940	-0.060	0.060	0.830
2020/01/31 05:54:30.8	90.950	-0.090	0.040	0.800
2020/01/31 05:54:30.9	90.970	-0.120	0.030	0.760
2020/01/31 05:54:31.0	90.980	-0.140	0.010	0.740
2020/01/31 05:54:31.1	90.990	-0.170	-0.010	0.710
2020/01/31 05:54:31.2	91.000	-0.190	-0.040	0.680
2020/01/31 05:54:31.3	91.020	-0.210	-0.070	0.660
2020/01/31 05:54:31.4	91.030	-0.220	-0.090	0.640
2020/01/31 05:54:31.5	91.040	-0.240	-0.120	0.630
2020/01/31 05:54:31.6	91.050	-0.250	-0.160	0.620
2020/01/31 05:54:31.7	91.060	-0.260	-0.190	0.610
2020/01/31 05:54:31.8	91.070	-0.270	-0.230	0.610
2020/01/31 05:54:31.9	91.070	-0.270	-0.260	0.610
2020/01/31 05:54:32.0	91.080	-0.270	-0.300	0.620
2020/01/31 05:54:32.1	91.080	-0.270	-0.330	0.630
2020/01/31 05:54:32.2	91.080	-0.270	-0.370	0.640
2020/01/31 05:54:32.3	91.070	-0.260	-0.410	0.650
2020/01/31 05:54:32.4	91.060	-0.260	-0.450	0.670
2020/01/31 05:54:32.5	91.060	-0.240	-0.480	0.690
2020/01/31 05:54:32.6	91.050	-0.230	-0.520	0.720
2020/01/31 05:54:32.7	91.040	-0.220	-0.560	0.740
2020/01/31 05:54:32.8	91.030	-0.200	-0.590	0.770
2020/01/31 05:54:32.9	91.020	-0.180	-0.630	0.800
2020/01/31 05:54:33.0	91.010	-0.160	-0.660	0.830
2020/01/31 05:54:33.1	91.000	-0.140	-0.690	0.850
2020/01/31 05:54:33.2	90.990	-0.110	-0.720	0.880
2020/01/31 05:54:33.3	90.980	-0.090	-0.750	0.910
2020/01/31 05:54:33.4	90.960	-0.060	-0.770	0.940
2020/01/31 05:54:33.5	90.950	-0.040	-0.790	0.960
2020/01/31 05:54:33.6	90.940	-0.010	-0.810	0.990
2020/01/31 05:54:33.7	90.930	0.010	-0.830	1.020
2020/01/31 05:54:33.8	90.920	0.040	-0.840	1.040
2020/01/31 05:54:33.9	90.910	0.060	-0.850	1.060
2020/01/31 05:54:34.0	90.900	0.080	-0.850	1.090
2020/01/31 05:54:34.1	90.890	0.100	-0.850	1.110
2020/01/31 05:54:34.2	90.880	0.120	-0.840	1.130
2020/01/31 05:54:34.3	90.880	0.140	-0.830	1.150
2020/01/31 05:54:34.4	90.870	0.150	-0.800	1.170
2020/01/31 05:54:34.5	90.860	0.160	-0.780	1.190
2020/01/31 05:54:34.6	90.860	0.160	-0.740	1.200
2020/01/31 05:54:34.7	90.860	0.170	-0.700	1.220
2020/01/31 05:54:34.8	90.850	0.170	-0.650	1.230
2020/01/31 05:54:34.9	90.850	0.160	-0.600	1.240
2020/01/31 05:54:35.0	90.850	0.150	-0.540	1.250
2020/01/31 05:54:35.1	90.850	0.140	-0.470	1.250
2020/01/31 05:54:35.2	90.850	0.120	-0.400	1.250
2020/01/31 05:54:35.3	90.850	0.100	-0.320	1.250
2020/01/31 05:54:35.4	90.850	0.080	-0.240	1.240
2020/01/31 05:54:35.5	90.860	0.050	-0.150	1.240
2020/01/31 05:54:35.6	90.870	0.020	-0.060	1.230
2020/01/31 05:54:35.7	90.880	-0.010	0.030	1.210
2020/01/31 05:54:35.8	90.890	-0.050	0.120	1.200
2020/01/31 05:54:35.9	90.900	-0.080	0.210	1.180
2020/01/31 05:54:36.0	90.910	-0.120	0.300	1.160
2020/01/31 05:54:36.1	90.920	-0.160	0.390	1.130
2020/01/31 05:54:36.2	90.930	-0.200	0.470	1.100
2020/01/31 05:54:36.3	90.950	-0.250	0.550	1.080
2020/01/31 05:54:36.4	90.970	-0.290	0.630	1.050
2020/01/31 05:54:36.5	90.980	-0.330	0.700	1.020
2020/01/31 05:54:36.6	90.990	-0.370	0.760	0.990
2020/01/31 05:54:36.7	91.000	-0.400	0.820	0.950
2020/01/31 05:54:36.8	91.010	-0.440	0.870	0.920
2020/01/31 05:54:36.9	91.020	-0.470	0.910	0.890
2020/01/31 05:54:37.0	91.030	-0.500	0.940	0.850
2020/01/31 05:54:37.1	91.040	-0.520	0.950	0.820
2020/01/31 05:54:37.2	91.050	-0.540	0.960	0.790
2020/01/31 05:54:37.3	91.070	-0.560	0.950	0.750
2020/01/31 05:54:37.4	91.080	-0.570	0.940	0.720
2020/01/31 05:54:37.5	91.080	-0.580	0.910	0.690
2020/01/31 05:54:37.6	91.090	-0.580	0.870	0.660
2020/01/31 05:54:37.7	91.100	-0.570	0.820	0.640
2020/01/31 05:54:37.8	91.100	-0.560	0.750	0.610
2020/01/31 05:54:37.9	91.110	-0.550	0.670	0.580
2020/01/31 05:54:38.0	91.110	-0.520	0.590	0.560
2020/01/31 05:54:38.1	91.110	-0.500	0.490	0.540
2020/01/31 05:54:38.2	91.120	-0.460	0.380	0.520
2020/01/31 05:54:38.3	91.120	-0.420	0.270	0.500
2020/01/31 05:54:38.4	91.130	-0.380	0.140	0.480
2020/01/31 05:54:38.5	91.130	-0.330	0.020	0.470
2020/01/31 05:54:38.6	91.130	-0.280	-0.120	0.450
2020/01/31 05:54:38.7	91.140	-0.220	-0.250	0.450
2020/01/31 05:54:38.8	91.140	-0.160	-0.390	0.440
2020/01/31 05:54:38.9	91.140	-0.100	-0.520	0.430
2020/01/31 05:54:39.0	91.150	-0.030	-0.660	0.430
2020/01/31 05:54:39.1	91.150	0.040	-0.790	0.430
2020/01/31 05:54:39.2	91.160	0.100	-0.910	0.430
2020/01/31 05:54:39.3	91.150	0.170	-1.030	0.430
2020/01/31 05:54:39.4	91.160	0.230	-1.140	0.430
2020/01/31 05:54:39.5	91.170	0.290	-1.250	0.430
2020/01/31 05:54:39.6	91.170	0.360	-1.340	0.430
2020/01/31 05:54:39.7	91.180	0.410	-1.410	0.440
2020/01/31 05:54:39.8	91.190	0.460	-1.480	0.440
2020/01/31 05:54:39.9	91.200	0.510	-1.530	0.450
2020/01/31 05:54:40.0	91.210	0.550	-1.570	0.460
2020/01/31 05:54:40.1	91.220	0.590	-1.590	0.470
2020/01/31 05:54:40.2	91.230	0.620	-1.590	0.480
2020/01/31 05:54:40.3	91.240	0.640	-1.590	0.500
2020/01/31 05:54:40.4	91.250	0.660	-1.560	0.520
2020/01/31 05:54:40.5	91.260	0.670	-1.520	0.540
2020/01/31 05:54:40.6	91.280	0.670	-1.460	0.560
2020/01/31 05:54:40.7	91.290	0.670	-1.390	0.590
2020/01/31 05:54:40.8	91.300	0.650	-1.310	0.610
2020/01/31 05:54:40.9	91.310	0.630	-1.210	0.650
2020/01/31 05:54:41.0	91.320	0.610	-1.100	0.680
2020/01/31 05:54:41.1	91.320	0.570	-0.980	0.710
2020/01/31 05:54:41.2	91.330	0.530	-0.850	0.750
2020/01/31 05:54:41.3	91.340	0.490	-0.700	0.790
2020/01/31 05:54:41.4	91.350	0.440	-0.560	0.840
2020/01/31 05:54:41.5	91.350	0.380	-0.410	0.880
2020/01/31 05:54:41.6	91.350	0.320	-0.250	0.920
2020/01/31 05:54:41.7	91.360	0.260	-0.100	0.970
2020/01/31 05:54:41.8	91.360	0.190	0.060	1.020
2020/01/31 05:54:41.9	91.360	0.130	0.210	1.060
2020/01/31 05:54:42.0	91.360	0.060	0.360	1.110
2020/01/31 05:54:42.1	91.360	-0.010	0.500	1.150
2020/01/31 05:54:42.2	91.360	-0.080	0.630	1.200
2020/01/31 05:54:42.3	91.350	-0.140	0.750	1.240
2020/01/31 05:54:42.4	91.350	-0.210	0.860	1.280
2020/01/31 05:54:42.5	91.340	-0.270	0.950	1.310
2020/01/31 05:54:42.6	91.340	-0.320	1.040	1.340
2020/01/31 05:54:42.7	91.330	-0.370	1.100	1.370
2020/01/31 05:54:42.8	91.330	-0.420	1.140	1.390
2020/01/31 05:54:42.9	91.320	-0.460	1.170	1.400
2020/01/31 05:54:43.0	91.320	-0.490	1.180	1.410
2020/01/31 05:54:43.1	91.310	-0.510	1.170	1.420
2020/01/31 05:54:43.2	91.310	-0.530	1.150	1.410
2020/01/31 05:54:43.3	91.310	-0.540	1.110	1.410
2020/01/31 05:54:43.4	91.310	-0.540	1.050	1.390
2020/01/31 05:54:43.5	91.300	-0.540	0.970	1.370
2020/01/31 05:54:43.6	91.300	-0.530	0.880	1.340
2020/01/31 05:54:43.7	91.300	-0.510	0.770	1.310
2020/01/31 05:54:43.8	91.300	-0.480	0.660	1.280
2020/01/31 05:54:43.9	91.300	-0.450	0.530	1.250
2020/01/31 05:54:44.0	91.300	-0.410	0.390	1.210
2020/01/31 05:54:44.1	91.290	-0.370	0.250	1.180
2020/01/31 05:54:44.2	91.290	-0.320	0.110	1.140
2020/01/31 05:54:44.3	91.290	-0.260	-0.040	1.110
2020/01/31 05:54:44.4	91.290	-0.210	-0.190	1.080
2020/01/31 05:54:44.5	91.290	-0.150	-0.330	1.060
2020/01/31 05:54:44.6	91.280	-0.080	-0.480	1.040
2020/01/31 05:54:44.7	91.280	-0.020	-0.610	1.020
2020/01/31 05:54:44.8	91.270	0.040	-0.740	1.000
2020/01/31 05:54:44.9	91.270	0.110	-0.860	0.990
2020/01/31 05:54:45.0	91.260	0.170	-0.970	0.980
2020/01/31 05:54:45.1	91.250	0.230	-1.070	0.970
2020/01/31 05:54:45.2	91.250	0.290	-1.150	0.960
2020/01/31 05:54:45.3	91.240	0.350	-1.230	0.960
2020/01/31 05:54:45.4	91.240	0.400	-1.290	0.950
2020/01/31 05:54:45.5	91.230	0.450	-1.330	0.940
2020/01/31 05:54:45.6	91.230	0.490	-1.360	0.920
2020/01/31 05:54:45.7	91.220	0.530	-1.370	0.910
2020/01/31 05:54:45.8	91.220	0.560	-1.370	0.900
2020/01/31 05:54:45.9	91.210	0.590	-1.360	0.880
2020/01/31 05:54:46.0	91.210	0.610	-1.330	0.860
2020/01/31 05:54:46.1	91.210	0.620	-1.290	0.840
2020/01/31 05:54:46.2	91.210	0.630	-1.240	0.820
2020/01/31 05:54:46.3	91.200	0.630	-1.170	0.790
2020/01/31 05:54:46.4	91.200	0.630	-1.100	0.770
2020/01/31 05:54:46.5	91.200	0.620	-1.020	0.740
2020/01/31 05:54:46.6	91.200	0.610	-0.930	0.720
2020/01/31 05:54:46.7	91.200	0.590	-0.840	0.690
2020/01/31 05:54:46.8	91.200	0.570	-0.750	0.670
2020/01/31 05:54:46.9	91.210	0.540	-0.650	0.640
2020/01/31 05:54:47.0	91.210	0.510	-0.550	0.620
2020/01/31 05:54:47.1	91.210	0.480	-0.440	0.590
2020/01/31 05:54:47.2	91.220	0.440	-0.340	0.570
2020/01/31 05:54:47.3	91.230	0.400	-0.240	0.550
2020/01/31 05:54:47.4	91.230	0.360	-0.150	0.530
2020/01/31 05:54:47.5	91.240	0.320	-0.050	0.520
2020/01/31 05:54:47.6	91.240	0.280	0.030	0.500
2020/01/31 05:54:47.7	91.250	0.240	0.120	0.490
2020/01/31 05:54:47.8	91.260	0.200	0.190	0.480
2020/01/31 05:54:47.9	91.260	0.150	0.260	0.470
2020/01/31 05:54:48.0	91.270	0.110	0.320	0.460
2020/01/31 05:54:48.1	91.270	0.070	0.380	0.460
2020/01/31 05:54:48.2	91.280	0.030	0.430	0.460
2020/01/31 05:54:48.3	91.300	-0.000	0.460	0.460
2020/01/31 05:54:48.4	91.300	-0.040	0.490	0.460
2020/01/31 05:54:48.5	91.310	-0.070	0.510	0.470
2020/01/31 05:54:48.6	91.310	-0.110	0.530	0.480
2020/01/31 05:54:48.7	91.320	-0.140	0.530	0.480
2020/01/31 05:54:48.8	91.320	-0.160	0.530	0.490
2020/01/31 05:54:48.9	91.330	-0.190	0.520	0.510
2020/01/31 05:54:49.0	91.330	-0.210	0.510	0.520
2020/01/31 05:54:49.1	91.330	-0.240	0.490	0.530
2020/01/31 05:54:49.2	91.330	-0.260	0.460	0.540
2020/01/31 05:54:49.3	91.340	-0.270	0.430	0.550
2020/01/31 05:54:49.4	91.330	-0.290	0.390	0.560
2020/01/31 05:54:49.5	91.330	-0.300	0.350	0.570
2020/01/31 05:54:49.6	91.330	-0.320	0.300	0.570
2020/01/31 05:54:49.7	91.330	-0.330	0.250	0.580
2020/01/31 05:54:49.8	91.330	-0.330	0.200	0.590
2020/01/31 05:54:49.9	91.330	-0.340	0.140	0.590
2020/01/31 05:54:50.0	91.330	-0.340	0.090	0.600
2020/01/31 05:54:50.1	91.330	-0.350	0.030	0.600
2020/01/31 05:54:50.2	91.320	-0.350	-0.020	0.610
2020/01/31 05:54:50.3	91.330	-0.350	-0.080	0.610
2020/01/31 05:54:50.4	91.330	-0.350	-0.140	0.620
2020/01/31 05:54:50.5	91.330	-0.340	-0.190	0.630
2020/01/31 05:54:50.6	91.330	-0.330	-0.240	0.640
2020/01/31 05:54:50.7	91.330	-0.330	-0.290	0.660
2020/01/31 05:54:50.8	91.330	-0.320	-0.340	0.670
2020/01/31 05:54:50.9	91.330	-0.310	-0.390	0.690
2020/01/31 05:54:51.0	91.330	-0.290	-0.430	0.710
2020/01/31 05:54:51.1	91.340	-0.280	-0.470	0.730
2020/01/31 05:54:51.2	91.340	-0.260	-0.510	0.750
2020/01/31 05:54:51.3	91.350	-0.250	-0.540	0.770
2020/01/31 05:54:51.4	91.350	-0.230	-0.570	0.800
2020/01/31 05:54:51.5	91.360	-0.210	-0.600	0.830
2020/01/31 05:54:51.6	91.370	-0.190	-0.620	0.860
2020/01/31 05:54:51.7	91.380	-0.170	-0.640	0.890
2020/01/31 05:54:51.8	91.390	-0.150	-0.660	0.930
2020/01/31 05:54:51.9	91.400	-0.130	-0.670	0.960
2020/01/31 05:54:52.0	91.400	-0.110	-0.670	1.000
2020/01/31 05:54:52.1	91.410	-0.090	-0.670	1.040
2020/01/31 05:54:52.2	91.420	-0.080	-0.670	1.080
2020/01/31 05:54:52.3	91.420	-0.060	-0.660	1.120
2020/01/31 05:54:52.4	91.430	-0.050	-0.650	1.160
2020/01/31 05:54:52.5	91.430	-0.040	-0.630	1.190
2020/01/31 05:54:52.6	91.430	-0.030	-0.610	1.230
2020/01/31 05:54:52.7	91.430	-0.020	-0.590	1.260
2020/01/31 05:54:52.8	91.430	-0.020	-0.560	1.290
2020/01/31 05:54:52.9	91.430	-0.010	-0.530	1.320
2020/01/31 05:54:53.0	91.430	-0.010	-0.490	1.340
2020/01/31 05:54:53.1	91.430	-0.020	-0.460	1.360
2020/01/31 05:54:53.2	91.420	-0.020	-0.420	1.370
2020/01/31 05:54:53.3	91.410	-0.030	-0.380	1.380
2020/01/31 05:54:53.4	91.400	-0.040	-0.340	1.390
2020/01/31 05:54:53.5	91.390	-0.050	-0.300	1.390
2020/01/31 05:54:53.6	91.380	-0.060	-0.250	1.390
2020/01/31 05:54:53.7	91.370	-0.080	-0.210	1.380
2020/01/31 05:54:53.8	91.360	-0.100	-0.170	1.370
2020/01/31 05:54:53.9	91.350	-0.110	-0.130	1.350
2020/01/31 05:54:54.0	91.340	-0.130	-0.080	1.330
2020/01/31 05:54:54.1	91.330	-0.150	-0.050	1.310
2020/01/31 05:54:54.2	91.320	-0.170	-0.010	1.280
2020/01/31 05:54:54.3	91.300	-0.190	0.020	1.260
2020/01/31 05:54:54.4	91.290	-0.210	0.050	1.230
2020/01/31 05:54:54.5	91.280	-0.230	0.080	1.200
2020/01/31 05:54:54.6	91.270	-0.250	0.110	1.160
2020/01/31 05:54:54.7	91.260	-0.270	0.130	1.130
2020/01/31 05:54:54.8	91.250	-0.280	0.150	1.100
2020/01/31 05:54:54.9	91.240	-0.300	0.160	1.070
2020/01/31 05:54:55.0	91.230	-0.310	0.170	1.040
2020/01/31 05:54:55.1	91.230	-0.320	0.170	1.010
2020/01/31 05:54:55.2	91.220	-0.320	0.170	0.980
2020/01/31 05:54:55.3	91.210	-0.320	0.170	0.940
2020/01/31 05:54:55.4	91.200	-0.320	0.160	0.920
2020/01/31 05:54:55.5	91.190	-0.310	0.140	0.890
2020/01/31 05:54:55.6	91.190	-0.300	0.120	0.860
2020/01/31 05:54:55.7	91.180	-0.290	0.100	0.840
2020/01/31 05:54:55.8	91.180	-0.270	0.070	0.810
2020/01/31 05:54:55.9	91.170	-0.250	0.030	0.790
2020/01/31 05:54:56.0	91.170	-0.220	-0.000	0.770
2020/01/31 05:54:56.1	91.160	-0.190	-0.050	0.750
2020/01/31 05:54:56.2	91.160	-0.160	-0.090	0.730
2020/01/31 05:54:56.3	91.170	-0.120	-0.150	0.700
2020/01/31 05:54:56.4	91.170	-0.080	-0.200	0.680
2020/01/31 05:54:56.5	91.170	-0.040	-0.250	0.660
2020/01/31 05:54:56.6	91.170	0.000	-0.310	0.640
2020/01/31 05:54:56.7	91.170	0.050	-0.370	0.620
2020/01/31 05:54:56.8	91.170	0.100	-0.420	0.590
2020/01/31 05:54:56.9	91.170	0.150	-0.480	0.570
2020/01/31 05:54:57.0	91.170	0.190	-0.540	0.540
2020/01/31 05:54:57.1	91.170	0.240	-0.590	0.520
2020/01/31 05:54:57.2	91.170	0.290	-0.640	0.490
2020/01/31 05:54:57.3	91.180	0.330	-0.690	0.470
2020/01/31 05:54:57.4	91.190	0.380	-0.730	0.440
2020/01/31 05:54:57.5	91.190	0.410	-0.760	0.420
2020/01/31 05:54:57.6	91.200	0.450	-0.790	0.390
2020/01/31 05:54:57.7	91.200	0.480	-0.810	0.370
2020/01/31 05:54:57.8	91.210	0.510	-0.820	0.350
2020/01/31 05:54:57.9	91.210	0.530	-0.830	0.330
2020/01/31 05:54:58.0	91.220	0.550	-0.820	0.310
2020/01/31 05:54:58.1	91.220	0.560	-0.810	0.290
2020/01/31 05:54:58.2	91.220	0.570	-0.790	0.280
2020/01/31 05:54:58.3	91.230	0.580	-0.760	0.260
2020/01/31 05:54:58.4	91.230	0.570	-0.720	0.250
2020/01/31 05:54:58.5	91.230	0.570	-0.680	0.250
2020/01/31 05:54:58.6	91.230	0.560	-0.630	0.250
2020/01/31 05:54:58.7	91.240	0.540	-0.560	0.250
2020/01/31 05:54:58.8	91.240	0.520	-0.500	0.250
2020/01/31 05:54:58.9	91.230	0.490	-0.420	0.260
2020/01/31 05:54:59.0	91.230	0.470	-0.340	0.280
2020/01/31 05:54:59.1	91.230	0.430	-0.260	0.290
2020/01/31 05:54:59.2	91.230	0.400	-0.180	0.310
2020/01/31 05:54:59.3	91.220	0.360	-0.090	0.330
2020/01/31 05:54:59.4	91.210	0.320	0.000	0.360
2020/01/31 05:54:59.5	91.210	0.280	0.090	0.380
2020/01/31 05:54:59.6	91.200	0.240	0.180	0.410
2020/01/31 05:54:59.7	91.200	0.190	0.260	0.440
2020/01/31 05:54:59.8	91.190	0.150	0.340	0.460
2020/01/31 05:54:59.9	91.190	0.110	0.420	0.490
2020/01/31 05:55:00.0	91.180	0.070	0.480	0.520
2020/01/31 05:55:00.1	91.180	0.030	0.540	0.540
2020/01/31 05:55:00.2	91.170	-0.010	0.590	0.570
2020/01/31 05:55:00.3	91.170	-0.040	0.640	0.590
2020/01/31 05:55:00.4	91.160	-0.080	0.670	0.610
2020/01/31 05:55:00.5	91.160	-0.110	0.690	0.630
2020/01/31 05:55:00.6	91.160	-0.130	0.700	0.650
2020/01/31 05:55:00.7	91.150	-0.150	0.700	0.670
2020/01/31 05:55:00.8	91.150	-0.170	0.680	0.690
2020/01/31 05:55:00.9	91.150	-0.180	0.660	0.700
2020/01/31 05:55:01.0	91.140	-0.190	0.620	0.710
2020/01/31 05:55:01.1	91.140	-0.200	0.570	0.720
2020/01/31 05:55:01.2	91.140	-0.200	0.510	0.730
2020/01/31 05:55:01.3	91.140	-0.200	0.450	0.730
2020/01/31 05:55:01.4	91.150	-0.190	0.370	0.740
2020/01/31 05:55:01.5	91.150	-0.180	0.290	0.730
2020/01/31 05:55:01.6	91.160	-0.170	0.200	0.730
2020/01/31 05:55:01.7	91.160	-0.150	0.100	0.730
2020/01/31 05:55:01.8	91.170	-0.130	0.000	0.730
2020/01/31 05:55:01.9	91.190	-0.110	-0.100	0.720
2020/01/31 05:55:02.0	91.200	-0.090	-0.200	0.720
2020/01/31 05:55:02.1	91.220	-0.060	-0.310	0.710
2020/01/31 05:55:02.2	91.240	-0.040	-0.410	0.710
2020/01/31 05:55:02.3	91.260	-0.010	-0.510	0.700
2020/01/31 05:55:02.4	91.280	0.010	-0.610	0.700
2020/01/31 05:55:02.5	91.300	0.040	-0.700	0.700
2020/01/31 05:55:02.6	91.330	0.070	-0.790	0.710
2020/01/31 05:55:02.7	91.360	0.090	-0.870	0.720
2020/01/31 05:55:02.8	91.380	0.120	-0.940	0.730
2020/01/31 05:55:02.9	91.410	0.140	-1.000	0.740
2020/01/31 05:55:03.0	91.440	0.160	-1.060	0.760
2020/01/31 05:55:03.1	91.470	0.180	-1.100	0.780
2020/01/31 05:55:03.2	91.500	0.200	-1.140	0.810
2020/01/31 05:55:03.3	91.520	0.220	-1.160	0.840
2020/01/31 05:55:03.4	91.550	0.230	-1.170	0.870
2020/01/31 05:55:03.5	91.570	0.240	-1.170	0.900
2020/01/31 05:55:03.6	91.590	0.240	-1.160	0.940
2020/01/31 05:55:03.7	91.610	0.250	-1.130	0.980
2020/01/31 05:55:03.8	91.630	0.240	-1.100	1.030
2020/01/31 05:55:03.9	91.640	0.240	-1.050	1.070
2020/01/31 05:55:04.0	91.650	0.230	-0.990	1.120
2020/01/31 05:55:04.1	91.660	0.220	-0.930	1.170
2020/01/31 05:55:04.2	91.660	0.200	-0.850	1.220
2020/01/31 05:55:04.3	91.670	0.180	-0.770	1.270
2020/01/31 05:55:04.4	91.670	0.160	-0.690	1.310
2020/01/31 05:55:04.5	91.670	0.130	-0.590	1.360
2020/01/31 05:55:04.6	91.660	0.100	-0.500	1.400
2020/01/31 05:55:04.7	91.650	0.070	-0.400	1.440
2020/01/31 05:55:04.8	91.630	0.030	-0.300	1.480
2020/01/31 05:55:04.9	91.620	-0.010	-0.210	1.510
2020/01/31 05:55:05.0	91.600	-0.050	-0.110	1.540
2020/01/31 05:55:05.1	91.590	-0.090	-0.020	1.570
2020/01/31 05:55:05.2	91.570	-0.130	0.070	1.600
2020/01/31 05:55:05.3	91.540	-0.170	0.160	1.610
2020/01/31 05:55:05.4	91.520	-0.210	0.230	1.630
2020/01/31 05:55:05.5	91.500	-0.250	0.300	1.640
2020/01/31 05:55:05.6	91.480	-0.290	0.370	1.650
2020/01/31 05:55:05.7	91.460	-0.330	0.420	1.650
2020/01/31 05:55:05.8	91.450	-0.370	0.470	1.640
2020/01/31 05:55:05.9	91.430	-0.400	0.500	1.640
2020/01/31 05:55:06.0	91.420	-0.430	0.530	1.620
2020/01/31 05:55:06.1	91.400	-0.450	0.540	1.600
2020/01/31 05:55:06.2	91.390	-0.480	0.540	1.580
2020/01/31 05:55:06.3	91.380	-0.490	0.550	1.550
2020/01/31 05:55:06.4	91.380	-0.510	0.530	1.510
2020/01/31 05:55:06.5	91.380	-0.510	0.500	1.470
2020/01/31 05:55:06.6	91.380	-0.520	0.470	1.430
2020/01/31 05:55:06.7	91.380	-0.510	0.420	1.380
2020/01/31 05:55:06.8	91.380	-0.500	0.370	1.330
2020/01/31 05:55:06.9	91.390	-0.490	0.310	1.280
2020/01/31 05:55:07.0	91.400	-0.470	0.240	1.230
2020/01/31 05:55:07.1	91.410	-0.450	0.170	1.180
2020/01/31 05:55:07.2	91.420	-0.420	0.090	1.130
2020/01/31 05:55:07.3	91.430	-0.390	0.010	1.070
2020/01/31 05:55:07.4	91.440	-0.350	-0.070	1.020
2020/01/31 05:55:07.5	91.450	-0.310	-0.150	0.970
2020/01/31 05:55:07.6	91.470	-0.270	-0.230	0.930
2020/01/31 05:55:07.7	91.480	-0.230	-0.320	0.880
2020/01/31 05:55:07.8	91.490	-0.180	-0.390	0.830
2020/01/31 05:55:07.9	91.510	-0.130	-0.470	0.780
2020/01/31 05:55:08.0	91.520	-0.090	-0.540	0.740
2020/01/31 05:55:08.1	91.540	-0.040	-0.610	0.690
2020/01/31 05:55:08.2	91.550	0.010	-0.670	0.640
2020/01/31 05:55:08.3	91.570	0.060	-0.730	0.600
2020/01/31 05:55:08.4	91.590	0.100	-0.780	0.550
2020/01/31 05:55:08.5	91.600	0.150	-0.820	0.500
2020/01/31 05:55:08.6	91.620	0.190	-0.860	0.460
2020/01/31 05:55:08.7	91.640	0.220	-0.880	0.410
2020/01/31 05:55:08.8	91.660	0.260	-0.900	0.360
2020/01/31 05:55:08.9	91.680	0.290	-0.910	0.320
2020/01/31 05:55:09.0	91.700	0.320	-0.910	0.280
2020/01/31 05:55:09.1	91.720	0.340	-0.900	0.230
2020/01/31 05:55:09.2	91.740	0.360	-0.880	0.190
2020/01/31 05:55:09.3	91.750	0.370	-0.850	0.150
2020/01/31 05:55:09.4	91.760	0.390	-0.810	0.120
2020/01/31 05:55:09.5	91.780	0.390	-0.770	0.090
2020/01/31 05:55:09.6	91.790	0.390	-0.710	0.070
2020/01/31 05:55:09.7	91.810	0.390	-0.650	0.050
2020/01/31 05:55:09.8	91.820	0.380	-0.590	0.040
2020/01/31 05:55:09.9	91.830	0.370	-0.510	0.030
2020/01/31 05:55:10.0	91.830	0.360	-0.440	0.030
2020/01/31 05:55:10.1	91.840	0.340	-0.360	0.030
2020/01/31 05:55:10.2	91.840	0.320	-0.270	0.040
2020/01/31 05:55:10.3	91.850	0.290	-0.190	0.060
2020/01/31 05:55:10.4	91.850	0.270	-0.100	0.080
2020/01/31 05:55:10.5	91.840	0.240	-0.020	0.110
2020/01/31 05:55:10.6	91.840	0.210	0.060	0.140
2020/01/31 05:55:10.7	91.840	0.170	0.140	0.170
2020/01/31 05:55:10.8	91.830	0.140	0.220	0.210
2020/01/31 05:55:10.9	91.830	0.110	0.290	0.250
2020/01/31 05:55:11.0	91.820	0.070	0.350	0.290
2020/01/31 05:55:11.1	91.810	0.040	0.410	0.330
2020/01/31 05:55:11.2	91.810	0.010	0.460	0.370
2020/01/31 05:55:11.3	91.810	-0.030	0.500	0.420
2020/01/31 05:55:11.4	91.800	-0.060	0.530	0.460
2020/01/31 05:55:11.5	91.800	-0.090	0.550	0.500
2020/01/31 05:55:11.6	91.800	-0.110	0.560	0.530
2020/01/31 05:55:11.7	91.800	-0.140	0.570	0.570
2020/01/31 05:55:11.8	91.800	-0.160	0.560	0.600
2020/01/31 05:55:11.9	91.800	-0.190	0.550	0.630
2020/01/31 05:55:12.0	91.800	-0.200	0.530	0.650
2020/01/31 05:55:12.1	91.800	-0.220	0.500	0.670
2020/01/31 05:55:12.2	91.810	-0.230	0.460	0.690
2020/01/31 05:55:12.3	91.810	-0.240	0.410	0.710
2020/01/31 05:55:12.4	91.810	-0.250	0.360	0.720
2020/01/31 05:55:12.5	91.820	-0.250	0.300	0.730
2020/01/31 05:55:12.6	91.820	-0.260	0.240	0.740
2020/01/31 05:55:12.7	91.830	-0.250	0.170	0.740
2020/01/31 05:55:12.8	91.830	-0.250	0.100	0.750
2020/01/31 05:55:12.9	91.840	-0.240	0.020	0.750
2020/01/31 05:55:13.0	91.840	-0.230	-0.050	0.750
2020/01/31 05:55:13.1	91.850	-0.220	-0.130	0.750
2020/01/31 05:55:13.2	91.850	-0.210	-0.200	0.740
2020/01/31 05:55:13.3	91.860	-0.190	-0.280	0.740
2020/01/31 05:55:13.4	91.860	-0.170	-0.350	0.730
2020/01/31 05:55:13.5	91.870	-0.150	-0.420	0.730
2020/01/31 05:55:13.6	91.870	-0.130	-0.490	0.720
2020/01/31 05:55:13.7	91.880	-0.110	-0.550	0.720
2020/01/31 05:55:13.8	91.890	-0.080	-0.610	0.720
2020/01/31 05:55:13.9	91.900	-0.060	-0.660	0.720
2020/01/31 05:55:14.0	91.900	-0.040	-0.710	0.720
2020/01/31 05:55:14.1	91.910	-0.010	-0.760	0.720
2020/01/31 05:55:14.2	91.920	0.010	-0.790	0.720
2020/01/31 05:55:14.3	91.920	0.030	-0.830	0.730
2020/01/31 05:55:14.4	91.930	0.060	-0.850	0.730
2020/01/31 05:55:14.5	91.940	0.080	-0.870	0.740
2020/01/31 05:55:14.6	91.950	0.100	-0.880	0.750
2020/01/31 05:55:14.7	91.960	0.120	-0.890	0.760
2020/01/31 05:55:14.8	91.960	0.140	-0.890	0.770
2020/01/31 05:55:14.9	91.970	0.160	-0.890	0.780
2020/01/31 05:55:15.0	91.980	0.180	-0.880	0.790
2020/01/31 05:55:15.1	91.980	0.200	-0.870	0.810
2020/01/31 05:55:15.2	91.990	0.210	-0.850	0.820
2020/01/31 05:55:15.3	92.000	0.230	-0.830	0.830
2020/01/31 05:55:15.4	92.000	0.240	-0.810	0.850
2020/01/31 05:55:15.5	92.010	0.260	-0.780	0.860
2020/01/31 05:55:15.6	92.010	0.270	-0.760	0.880
2020/01/31 05:55:15.7	92.010	0.280	-0.730	0.890
2020/01/31 05:55:15.8	92.010	0.290	-0.700	0.910
2020/01/31 05:55:15.9	92.010	0.300	-0.660	0.930
2020/01/31 05:55:16.0	92.010	0.310	-0.630	0.940
2020/01/31 05:55:16.1	92.010	0.310	-0.600	0.960
2020/01/31 05:55:16.2	92.000	0.320	-0.570	0.970
2020/01/31 05:55:16.3	92.000	0.320	-0.530	0.990
2020/01/31 05:55:16.4	91.990	0.320	-0.500	1.000
2020/01/31 05:55:16.5	91.990	0.330	-0.460	1.010
2020/01/31 05:55:16.6	91.980	0.330	-0.430	1.020
2020/01/31 05:55:16.7	91.970	0.320	-0.400	1.030
2020/01/31 05:55:16.8	91.960	0.320	-0.370	1.030
2020/01/31 05:55:16.9	91.950	0.320	-0.330	1.030
2020/01/31 05:55:17.0	91.940	0.310	-0.300	1.030
2020/01/31 05:55:17.1	91.930	0.300	-0.270	1.020
2020/01/31 05:55:17.2	91.920	0.290	-0.230	1.010
2020/01/31 05:55:17.3	91.920	0.280	-0.200	1.000
2020/01/31 05:55:17.4	91.920	0.260	-0.160	0.980
2020/01/31 05:55:17.5	91.910	0.250	-0.130	0.960
2020/01/31 05:55:17.6	91.910	0.230	-0.090	0.940
2020/01/31 05:55:17.7	91.900	0.210	-0.050	0.920
2020/01/31 05:55:17.8	91.900	0.190	-0.010	0.900
2020/01/31 05:55:17.9	91.890	0.160	0.030	0.880
2020/01/31 05:55:18.0	91.890	0.140	0.070	0.860
2020/01/31 05:55:18.1	91.890	0.110	0.120	0.850
2020/01/31 05:55:18.2	91.890	0.080	0.160	0.830
2020/01/31 05:55:18.3	91.890	0.060	0.210	0.810
2020/01/31 05:55:18.4	91.890	0.030	0.250	0.800
2020/01/31 05:55:18.5	91.900	-0.010	0.290	0.780
2020/01/31 05:55:18.6	91.900	-0.040	0.330	0.770
2020/01/31 05:55:18.7	91.910	-0.070	0.370	0.770
2020/01/31 05:55:18.8	91.910	-0.100	0.410	0.760
2020/01/31 05:55:18.9	91.920	-0.140	0.440	0.750
2020/01/31 05:55:19.0	91.930	-0.170	0.470	0.750
2020/01/31 05:55:19.1	91.940	-0.200	0.500	0.740
2020/01/31 05:55:19.2	91.950	-0.230	0.520	0.740
2020/01/31 05:55:19.3	91.960	-0.260	0.540	0.730
2020/01/31 05:55:19.4	91.980	-0.290	0.560	0.730
2020/01/31 05:55:19.5	92.000	-0.320	0.570	0.720
2020/01/31 05:55:19.6	92.010	-0.340	0.570	0.720
2020/01/31 05:55:19.7	92.030	-0.370	0.570	0.710
2020/01/31 05:55:19.8	92.060	-0.390	0.560	0.690
2020/01/31 05:55:19.9	92.080	-0.400	0.540	0.680
2020/01/31 05:55:20.0	92.100	-0.420	0.520	0.670
2020/01/31 05:55:20.1	92.130	-0.430	0.490	0.650
2020/01/31 05:55:20.2	92.150	-0.440	0.460	0.630
2020/01/31 05:55:20.3	92.180	-0.450	0.410	0.610
2020/01/31 05:55:20.4	92.210	-0.450	0.370	0.590
2020/01/31 05:55:20.5	92.230	-0.450	0.320	0.570
2020/01/31 05:55:20.6	92.250	-0.440	0.260	0.550
2020/01/31 05:55:20.7	92.270	-0.440	0.200	0.530
2020/01/31 05:55:20.8	92.290	-0.430	0.130	0.510
2020/01/31 05:55:20.9	92.310	-0.410	0.060	0.490
2020/01/31 05:55:21.0	92.330	-0.390	-0.010	0.470
2020/01/31 05:55:21.1	92.340	-0.370	-0.080	0.450
2020/01/31 05:55:21.2	92.360	-0.350	-0.160	0.440
2020/01/31 05:55:21.3	92.350	-0.330	-0.230	0.420
2020/01/31 05:55:21.4	92.360	-0.300	-0.310	0.410
2020/01/31 05:55:21.5	92.370	-0.270	-0.390	0.400
2020/01/31 05:55:21.6	92.370	-0.240	-0.460	0.390
2020/01/31 05:55:21.7	92.370	-0.210	-0.540	0.390
2020/01/31 05:55:21.8	92.370	-0.170	-0.610	0.390
2020/01/31 05:55:21.9	92.370	-0.140	-0.680	0.390
2020/01/31 05:55:22.0	92.360	-0.110	-0.740	0.390
2020/01/31 05:55:22.1	92.360	-0.070	-0.800	0.400
2020/01/31 05:55:22.2	92.350	-0.040	-0.850	0.420
2020/01/31 05:55:22.3	92.340	-0.010	-0.910	0.430
2020/01/31 05:55:22.4	92.330	0.020	-0.950	0.450
2020/01/31 05:55:22.5	92.320	0.050	-0.990	0.470
2020/01/31 05:55:22.6	92.310	0.080	-1.020	0.490
2020/01/31 05:55:22.7	92.300	0.100	-1.040	0.520
2020/01/31 05:55:22.8	92.290	0.120	-1.050	0.540
2020/01/31 05:55:22.9	92.280	0.140	-1.060	0.570
2020/01/31 05:55:23.0	92.270	0.160	-1.060	0.600
2020/01/31 05:55:23.1	92.260	0.180	-1.050	0.630
2020/01/31 05:55:23.2	92.260	0.190	-1.040	0.660
2020/01/31 05:55:23.3	92.240	0.200	-1.020	0.690
2020/01/31 05:55:23.4	92.240	0.200	-0.990	0.720
2020/01/31 05:55:23.5	92.230	0.210	-0.960	0.750
2020/01/31 05:55:23.6	92.230	0.210	-0.920	0.780
2020/01/31 05:55:23.7	92.230	0.200	-0.880	0.820
2020/01/31 05:55:23.8	92.220	0.200	-0.830	0.840
2020/01/31 05:55:23.9	92.220	0.200	-0.780	0.870
2020/01/31 05:55:24.0	92.220	0.190	-0.730	0.900
2020/01/31 05:55:24.1	92.220	0.180	-0.670	0.920
2020/01/31 05:55:24.2	92.220	0.170	-0.620	0.950
2020/01/31 05:55:24.3	92.220	0.160	-0.560	0.970
2020/01/31 05:55:24.4	92.220	0.150	-0.500	0.980
2020/01/31 05:55:24.5	92.220	0.140	-0.450	1.000
2020/01/31 05:55:24.6	92.220	0.120	-0.390	1.010
2020/01/31 05:55:24.7	92.220	0.110	-0.340	1.020
2020/01/31 05:55:24.8	92.220	0.100	-0.290	1.030
2020/01/31 05:55:24.9	92.220	0.090	-0.240	1.040
2020/01/31 05:55:25.0	92.220	0.080	-0.190	1.040
2020/01/31 05:55:25.1	92.220	0.070	-0.150	1.040
2020/01/31 05:55:25.2	92.220	0.070	-0.110	1.050
2020/01/31 05:55:25.3	92.230	0.060	-0.070	1.040
2020/01/31 05:55:25.4	92.230	0.060	-0.040	1.040
2020/01/31 05:55:25.5	92.230	0.060	-0.020	1.040
2020/01/31 05:55:25.6	92.220	0.060	0.000	1.040
2020/01/31 05:55:25.7	92.220	0.060	0.020	1.040
2020/01/31 05:55:25.8	92.210	0.060	0.040	1.040
2020/01/31 05:55:25.9	92.200	0.060	0.050	1.030
2020/01/31 05:55:26.0	92.190	0.060	0.050	1.030
2020/01/31 05:55:26.1	92.180	0.070	0.050	1.030
2020/01/31 05:55:26.2	92.170	0.070	0.050	1.030
2020/01/31 05:55:26.3	92.170	0.080	0.050	1.020
2020/01/31 05:55:26.4	92.160	0.090	0.040	1.020
2020/01/31 05:55:26.5	92.150	0.090	0.030	1.020
2020/01/31 05:55:26.6	92.130	0.100	0.020	1.010
2020/01/31 05:55:26.7	92.120	0.110	0.010	1.010
2020/01/31 05:55:26.8	92.110	0.110	-0.010	1.000
2020/01/31 05:55:26.9	92.090	0.120	-0.020	1.000
2020/01/31 05:55:27.0	92.080	0.120	-0.040	0.990
2020/01/31 05:55:27.1	92.070	0.130	-0.050	0.980
2020/01/31 05:55:27.2	92.060	0.130	-0.070	0.970
2020/01/31 05:55:27.3	92.040	0.130	-0.080	0.950
2020/01/31 05:55:27.4	92.030	0.130	-0.100	0.940
2020/01/31 05:55:27.5	92.020	0.130	-0.110	0.920
2020/01/31 05:55:27.6	92.010	0.130	-0.120	0.910
2020/01/31 05:55:27.7	92.000	0.130	-0.130	0.890
2020/01/31 05:55:27.8	91.990	0.120	-0.130	0.860
2020/01/31 05:55:27.9	91.980	0.110	-0.130	0.840
2020/01/31 05:55:28.0	91.980	0.110	-0.130	0.820
2020/01/31 05:55:28.1	91.970	0.100	-0.130	0.790
2020/01/31 05:55:28.2	91.970	0.090	-0.130	0.760
2020/01/31 05:55:28.3	91.970	0.080	-0.120	0.730
2020/01/31 05:55:28.4	91.970	0.060	-0.110	0.700
2020/01/31 05:55:28.5	91.970	0.050	-0.100	0.670
2020/01/31 05:55:28.6	91.980	0.040	-0.090	0.640
2020/01/31 05:55:28.7	91.980	0.020	-0.070	0.600
2020/01/31 05:55:28.8	91.990	0.010	-0.050	0.570
2020/01/31 05:55:28.9	92.000	-0.000	-0.030	0.540
2020/01/31 05:55:29.0	92.010	-0.010	-0.010	0.500
2020/01/31 05:55:29.1	92.030	-0.030	0.010	0.470
2020/01/31 05:55:29.2	92.050	-0.040	0.030	0.440
2020/01/31 05:55:29.3	92.060	-0.050	0.050	0.400
2020/01/31 05:55:29.4	92.080	-0.060	0.070	0.370
2020/01/31 05:55:29.5	92.110	-0.060	0.090	0.340
2020/01/31 05:55:29.6	92.130	-0.070	0.110	0.310
2020/01/31 05:55:29.7	92.160	-0.070	0.120	0.280
2020/01/31 05:55:29.8	92.180	-0.070	0.130	0.260
2020/01/31 05:55:29.9	92.210	-0.070	0.140	0.240
2020/01/31 05:55:30.0	92.240	-0.070	0.140	0.220
2020/01/31 05:55:30.1	92.260	-0.060	0.140	0.200
2020/01/31 05:55:30.2	92.290	-0.060	0.130	0.190
2020/01/31 05:55:30.3	92.310	-0.050	0.120	0.180
2020/01/31 05:55:30.4	92.330	-0.040	0.110	0.170
2020/01/31 05:55:30.5	92.350	-0.030	0.090	0.170
2020/01/31 05:55:30.6	92.360	-0.020	0.070	0.170
2020/01/31 05:55:30.7	92.380	-0.010	0.040	0.180
2020/01/31 05:55:30.8	92.390	0.010	0.010	0.190
2020/01/31 05:55:30.9	92.390	0.020	-0.020	0.200
2020/01/31 05:55:31.0	92.390	0.040	-0.060	0.220
2020/01/31 05:55:31.1	92.390	0.050	-0.100	0.240
2020/01/31 05:55:31.2	92.390	0.070	-0.150	0.260
2020/01/31 05:55:31.3	92.380	0.090	-0.190	0.280
2020/01/31 05:55:31.4	92.370	0.100	-0.240	0.310
2020/01/31 05:55:31.5	92.360	0.120	-0.290	0.340
2020/01/31 05:55:31.6	92.350	0.130	-0.340	0.370
2020/01/31 05:55:31.7	92.340	0.140	-0.390	0.400
2020/01/31 05:55:31.8	92.320	0.150	-0.440	0.440
2020/01/31 05:55:31.9	92.310	0.170	-0.490	0.470
2020/01/31 05:55:32.0	92.290	0.170	-0.540	0.510
2020/01/31 05:55:32.1	92.280	0.180	-0.580	0.540
2020/01/31 05:55:32.2	92.270	0.190	-0.620	0.580
2020/01/31 05:55:32.3	92.240	0.190	-0.660	0.620
2020/01/31 05:55:32.4	92.220	0.190	-0.700	0.660
2020/01/31 05:55:32.5	92.210	0.190	-0.720	0.700
2020/01/31 05:55:32.6	92.200	0.190	-0.750	0.740
2020/01/31 05:55:32.7	92.180	0.190	-0.760	0.780
2020/01/31 05:55:32.8	92.170	0.180	-0.770	0.820
2020/01/31 05:55:32.9	92.160	0.170	-0.780	0.860
2020/01/31 05:55:33.0	92.150	0.170	-0.780	0.910
2020/01/31 05:55:33.1	92.140	0.150	-0.770	0.950
2020/01/31 05:55:33.2	92.130	0.140	-0.760	0.990
2020/01/31 05:55:33.3	92.120	0.130	-0.730	1.020
2020/01/31 05:55:33.4	92.110	0.110	-0.710	1.060
2020/01/31 05:55:33.5	92.110	0.090	-0.680	1.100
2020/01/31 05:55:33.6	92.100	0.080	-0.650	1.130
2020/01/31 05:55:33.7	92.100	0.060	-0.620	1.160
2020/01/31 05:55:33.8	92.100	0.040	-0.580	1.190
2020/01/31 05:55:33.9	92.100	0.010	-0.530	1.220
2020/01/31 05:55:34.0	92.100	-0.010	-0.490	1.240
2020/01/31 05:55:34.1	92.110	-0.030	-0.440	1.260
2020/01/31 05:55:34.2	92.110	-0.050	-0.390	1.280
2020/01/31 05:55:34.3	92.100	-0.080	-0.340	1.300
2020/01/31 05:55:34.4	92.110	-0.100	-0.290	1.310
2020/01/31 05:55:34.5	92.120	-0.130	-0.230	1.320
2020/01/31 05:55:34.6	92.120	-0.150	-0.180	1.330
2020/01/31 05:55:34.7	92.130	-0.170	-0.130	1.330
2020/01/31 05:55:34.8	92.140	-0.200	-0.080	1.330
2020/01/31 05:55:34.9	92.150	-0.220	-0.030	1.330
2020/01/31 05:55:35.0	92.160	-0.240	0.020	1.330
2020/01/31 05:55:35.1	92.170	-0.270	0.060	1.330
2020/01/31 05:55:35.2	92.180	-0.290	0.100	1.330
2020/01/31 05:55:35.3	92.200	-0.310	0.140	1.320
2020/01/31 05:55:35.4	92.210	-0.330	0.180	1.320
2020/01/31 05:55:35.5	92.220	-0.340	0.210	1.310
2020/01/31 05:55:35.6	92.230	-0.360	0.230	1.310
2020/01/31 05:55:35.7	92.230	-0.370	0.250	1.300
2020/01/31 05:55:35.8	92.240	-0.390	0.270	1.300
2020/01/31 05:55:35.9	92.250	-0.400	0.280	1.290
2020/01/31 05:55:36.0	92.250	-0.410	0.280	1.290
2020/01/31 05:55:36.1	92.260	-0.410	0.280	1.280
2020/01/31 05:55:36.2	92.260	-0.420	0.270	1.270
2020/01/31 05:55:36.3	92.250	-0.420	0.250	1.260
2020/01/31 05:55:36.4	92.250	-0.420	0.230	1.250
2020/01/31 05:55:36.5	92.260	-0.410	0.210	1.240
2020/01/31 05:55:36.6	92.260	-0.400	0.180	1.230
2020/01/31 05:55:36.7	92.270	-0.390	0.140	1.210
2020/01/31 05:55:36.8	92.270	-0.380	0.110	1.200
2020/01/31 05:55:36.9	92.270	-0.370	0.060	1.180
2020/01/31 05:55:37.0	92.280	-0.350	0.020	1.160
2020/01/31 05:55:37.1	92.280	-0.330	-0.030	1.140
2020/01/31 05:55:37.2	92.290	-0.310	-0.080	1.120
2020/01/31 05:55:37.3	92.310	-0.280	-0.130	1.110
2020/01/31 05:55:37.4	92.320	-0.260	-0.190	1.080
2020/01/31 05:55:37.5	92.320	-0.230	-0.240	1.060
2020/01/31 05:55:37.6	92.320	-0.200	-0.290	1.040
2020/01/31 05:55:37.7	92.320	-0.170	-0.340	1.020
2020/01/31 05:55:37.8	92.320	-0.130	-0.390	0.990
2020/01/31 05:55:37.9	92.320	-0.100	-0.430	0.970
2020/01/31 05:55:38.0	92.320	-0.070	-0.470	0.950
2020/01/31 05:55:38.1	92.320	-0.030	-0.500	0.930
2020/01/31 05:55:38.2	92.320	-0.000	-0.530	0.910
2020/01/31 05:55:38.3	92.310	0.030	-0.560	0.890
2020/01/31 05:55:38.4	92.310	0.060	-0.580	0.880
2020/01/31 05:55:38.5	92.300	0.090	-0.590	0.860
2020/01/31 05:55:38.6	92.300	0.110	-0.590	0.850
2020/01/31 05:55:38.7	92.290	0.140	-0.590	0.840
2020/01/31 05:55:38.8	92.290	0.160	-0.590	0.830
2020/01/31 05:55:38.9	92.280	0.180	-0.580	0.820
2020/01/31 05:55:39.0	92.270	0.190	-0.560	0.810
2020/01/31 05:55:39.1	92.270	0.210	-0.540	0.810
2020/01/31 05:55:39.2	92.260	0.220	-0.520	0.800
2020/01/31 05:55:39.3	92.240	0.230	-0.500	0.790
2020/01/31 05:55:39.4	92.240	0.230	-0.470	0.780
2020/01/31 05:55:39.5	92.230	0.240	-0.440	0.780
2020/01/31 05:55:39.6	92.220	0.240	-0.400	0.770
2020/01/31 05:55:39.7	92.220	0.240	-0.370	0.760
2020/01/31 05:55:39.8	92.210	0.240	-0.340	0.750
2020/01/31 05:55:39.9	92.210	0.230	-0.310	0.740
2020/01/31 05:55:40.0	92.200	0.230	-0.280	0.730
2020/01/31 05:55:40.1	92.200	0.220	-0.250	0.710
2020/01/31 05:55:40.2	92.200	0.210	-0.220	0.690
2020/01/31 05:55:40.3	92.200	0.200	-0.190	0.670
2020/01/31 05:55:40.4	92.200	0.190	-0.170	0.650
2020/01/31 05:55:40.5	92.200	0.180	-0.150	0.630
2020/01/31 05:55:40.6	92.200	0.170	-0.130	0.600
2020/01/31 05:55:40.7	92.200	0.170	-0.120	0.580
2020/01/31 05:55:40.8	92.200	0.160	-0.110	0.550
2020/01/31 05:55:40.9	92.200	0.150	-0.100	0.530
2020/01/31 05:55:41.0	92.210	0.140	-0.100	0.500
2020/01/31 05:55:41.1	92.210	0.140	-0.090	0.480
2020/01/31 05:55:41.2	92.210	0.140	-0.100	0.450
2020/01/31 05:55:41.3	92.190	0.130	-0.100	0.430
2020/01/31 05:55:41.4	92.190	0.130	-0.100	0.410
2020/01/31 05:55:41.5	92.190	0.140	-0.110	0.390
2020/01/31 05:55:41.6	92.180	0.140	-0.120	0.380
2020/01/31 05:55:41.7	92.180	0.140	-0.130	0.370
2020/01/31 05:55:41.8	92.170	0.150	-0.140	0.370
2020/01/31 05:55:41.9	92.170	0.160	-0.140	0.370
2020/01/31 05:55:42.0	92.160	0.170	-0.150	0.370
2020/01/31 05:55:42.1	92.150	0.180	-0.160	0.380
2020/01/31 05:55:42.2	92.140	0.190	-0.170	0.390
2020/01/31 05:55:42.3	92.140	0.200	-0.190	0.400
2020/01/31 05:55:42.4	92.120	0.220	-0.190	0.420
2020/01/31 05:55:42.5	92.100	0.230	-0.200	0.440
2020/01/31 05:55:42.6	92.090	0.250	-0.210	0.460
2020/01/31 05:55:42.7	92.070	0.260	-0.220	0.490
2020/01/31 05:55:42.8	92.050	0.270	-0.230	0.510
2020/01/31 05:55:42.9	92.030	0.290	-0.240	0.540
2020/01/31 05:55:43.0	92.010	0.300	-0.250	0.570
2020/01/31 05:55:43.1	92.000	0.310	-0.260	0.600
2020/01/31 05:55:43.2	91.980	0.320	-0.260	0.630
2020/01/31 05:55:43.3	91.960	0.330	-0.270	0.660
2020/01/31 05:55:43.4	91.950	0.340	-0.280	0.680
2020/01/31 05:55:43.5	91.940	0.340	-0.290	0.700
2020/01/31 05:55:43.6	91.930	0.350	-0.300	0.720
2020/01/31 05:55:43.7	91.920	0.350	-0.310	0.730
2020/01/31 05:55:43.8	91.920	0.340	-0.320	0.740
2020/01/31 05:55:43.9	91.920	0.340	-0.330	0.750
2020/01/31 05:55:44.0	91.920	0.330	-0.330	0.760
2020/01/31 05:55:44.1	91.930	0.330	-0.340	0.760
2020/01/31 05:55:44.2	91.940	0.320	-0.350	0.770
2020/01/31 05:55:44.3	91.970	0.300	-0.360	0.770
2020/01/31 05:55:44.4	91.980	0.290	-0.360	0.770
2020/01/31 05:55:44.5	92.000	0.270	-0.370	0.770
2020/01/31 05:55:44.6	92.020	0.250	-0.370	0.770
2020/01/31 05:55:44.7	92.040	0.230	-0.370	0.770
2020/01/31 05:55:44.8	92.070	0.210	-0.370	0.770
2020/01/31 05:55:44.9	92.100	0.180	-0.370	0.770
2020/01/31 05:55:45.0	92.120	0.160	-0.370	0.770
2020/01/31 05:55:45.1	92.150	0.130	-0.370	0.780
2020/01/31 05:55:45.2	92.180	0.100	-0.360	0.780
2020/01/31 05:55:45.3	92.210	0.080	-0.360	0.790
2020/01/31 05:55:45.4	92.240	0.050	-0.350	0.810
2020/01/31 05:55:45.5	92.270	0.020	-0.340	0.820
2020/01/31 05:55:45.6	92.290	-0.010	-0.330	0.840
2020/01/31 05:55:45.7	92.310	-0.040	-0.310	0.870
2020/01/31 05:55:45.8	92.330	-0.070	-0.300	0.890
2020/01/31 05:55:45.9	92.340	-0.090	-0.280	0.920
2020/01/31 05:55:46.0	92.360	-0.120	-0.260	0.940
2020/01/31 05:55:46.1	92.370	-0.150	-0.230	0.970
2020/01/31 05:55:46.2	92.380	-0.180	-0.210	1.000
2020/01/31 05:55:46.3	92.390	-0.210	-0.180	1.030
2020/01/31 05:55:46.4	92.400	-0.230	-0.160	1.050
2020/01/31 05:55:46.5	92.400	-0.260	-0.130	1.080
2020/01/31 05:55:46.6	92.410	-0.280	-0.090	1.100
2020/01/31 05:55:46.7	92.410	-0.310	-0.060	1.120
2020/01/31 05:55:46.8	92.410	-0.330	-0.030	1.140
2020/01/31 05:55:46.9	92.410	-0.360	0.000	1.160
2020/01/31 05:55:47.0	92.410	-0.380	0.040	1.180
2020/01/31 05:55:47.1	92.400	-0.400	0.070	1.200
2020/01/31 05:55:47.2	92.400	-0.420	0.100	1.220
2020/01/31 05:55:47.3	92.400	-0.440	0.120	1.230
2020/01/31 05:55:47.4	92.390	-0.450	0.150	1.240
2020/01/31 05:55:47.5	92.380	-0.470	0.170	1.250
2020/01/31 05:55:47.6	92.370	-0.480	0.190	1.270
2020/01/31 05:55:47.7	92.360	-0.490	0.210	1.280
2020/01/31 05:55:47.8	92.340	-0.500	0.220	1.290
2020/01/31 05:55:47.9	92.330	-0.510	0.220	1.300
2020/01/31 05:55:48.0	92.320	-0.510	0.220	1.310
2020/01/31 05:55:48.1	92.300	-0.510	0.220	1.320
2020/01/31 05:55:48.2	92.290	-0.510	0.210	1.330
2020/01/31 05:55:48.3	92.260	-0.510	0.200	1.340
2020/01/31 05:55:48.4	92.250	-0.510	0.180	1.350
2020/01/31 05:55:48.5	92.230	-0.500	0.160	1.360
2020/01/31 05:55:48.6	92.220	-0.490	0.130	1.370
2020/01/31 05:55:48.7	92.210	-0.480	0.100	1.370
2020/01/31 05:55:48.8	92.200	-0.470	0.060	1.380
2020/01/31 05:55:48.9	92.200	-0.460	0.020	1.380
2020/01/31 05:55:49.0	92.190	-0.440	-0.020	1.380
2020/01/31 05:55:49.1	92.190	-0.430	-0.060	1.380
2020/01/31 05:55:49.2	92.190	-0.410	-0.110	1.370
2020/01/31 05:55:49.3	92.180	-0.390	-0.170	1.350
2020/01/31 05:55:49.4	92.180	-0.370	-0.210	1.330
2020/01/31 05:55:49.5	92.190	-0.350	-0.260	1.310
2020/01/31 05:55:49.6	92.200	-0.330	-0.310	1.280
2020/01/31 05:55:49.7	92.210	-0.310	-0.360	1.250
2020/01/31 05:55:49.8	92.220	-0.290	-0.400	1.210
2020/01/31 05:55:49.9	92.240	-0.270	-0.440	1.170
2020/01/31 05:55:50.0	92.250	-0.250	-0.480	1.120
2020/01/31 05:55:50.1	92.270	-0.220	-0.520	1.070
2020/01/31 05:55:50.2	92.290	-0.200	-0.550	1.020
2020/01/31 05:55:50.3	92.310	-0.180	-0.580	0.970
2020/01/31 05:55:50.4	92.330	-0.160	-0.610	0.920
2020/01/31 05:55:50.5	92.340	-0.140	-0.630	0.870
2020/01/31 05:55:50.6	92.360	-0.130	-0.640	0.820
2020/01/31 05:55:50.7	92.370	-0.110	-0.650	0.770
2020/01/31 05:55:50.8	92.390	-0.090	-0.660	0.720
2020/01/31 05:55:50.9	92.400	-0.070	-0.660	0.680
2020/01/31 05:55:51.0	92.410	-0.060	-0.660	0.640
2020/01/31 05:55:51.1	92.420	-0.040	-0.650	0.600
2020/01/31 05:55:51.2	92.420	-0.030	-0.630	0.570
2020/01/31 05:55:51.3	92.430	-0.020	-0.620	0.540
2020/01/31 05:55:51.4	92.430	-0.000	-0.600	0.520
2020/01/31 05:55:51.5	92.430	0.010	-0.570	0.500
2020/01/31 05:55:51.6	92.430	0.020	-0.540	0.490
2020/01/31 05:55:51.7	92.430	0.030	-0.510	0.470
2020/01/31 05:55:51.8	92.420	0.040	-0.480	0.470
2020/01/31 05:55:51.9	92.420	0.050	-0.440	0.460
2020/01/31 05:55:52.0	92.420	0.060	-0.410	0.460
2020/01/31 05:55:52.1	92.410	0.070	-0.370	0.460
2020/01/31 05:55:52.2	92.410	0.080	-0.330	0.460
2020/01/31 05:55:52.3	92.410	0.090	-0.300	0.470
2020/01/31 05:55:52.4	92.410	0.110	-0.270	0.470
2020/01/31 05:55:52.5	92.400	0.120	-0.240	0.480
2020/01/31 05:55:52.6	92.400	0.130	-0.210	0.490
2020/01/31 05:55:52.7	92.390	0.140	-0.180	0.490
2020/01/31 05:55:52.8	92.390	0.150	-0.160	0.500
2020/01/31 05:55:52.9	92.380	0.170	-0.140	0.510
2020/01/31 05:55:53.0	92.380	0.180	-0.130	0.520
2020/01/31 05:55:53.1	92.370	0.200	-0.110	0.540
2020/01/31 05:55:53.2	92.360	0.210	-0.110	0.550
2020/01/31 05:55:53.3	92.340	0.230	-0.100	0.560
2020/01/31 05:55:53.4	92.330	0.240	-0.100	0.570
2020/01/31 05:55:53.5	92.310	0.260	-0.100	0.590
2020/01/31 05:55:53.6	92.300	0.270	-0.100	0.600
2020/01/31 05:55:53.7	92.290	0.290	-0.110	0.620
2020/01/31 05:55:53.8	92.270	0.300	-0.120	0.630
2020/01/31 05:55:53.9	92.260	0.320	-0.130	0.650
2020/01/31 05:55:54.0	92.240	0.330	-0.140	0.660
2020/01/31 05:55:54.1	92.230	0.350	-0.160	0.670
2020/01/31 05:55:54.2	92.210	0.360	-0.170	0.680
2020/01/31 05:55:54.3	92.200	0.370	-0.180	0.690
2020/01/31 05:55:54.4	92.190	0.380	-0.200	0.700
2020/01/31 05:55:54.5	92.170	0.390	-0.210	0.700
2020/01/31 05:55:54.6	92.160	0.390	-0.220	0.700
2020/01/31 05:55:54.7	92.140	0.390	-0.230	0.690
2020/01/31 05:55:54.8	92.130	0.390	-0.230	0.690
2020/01/31 05:55:54.9	92.120	0.390	-0.230	0.680
2020/01/31 05:55:55.0	92.110	0.390	-0.230	0.670
2020/01/31 05:55:55.1	92.090	0.380	-0.220	0.660
2020/01/31 05:55:55.2	92.080	0.370	-0.220	0.640
2020/01/31 05:55:55.3	92.090	0.360	-0.210	0.630
2020/01/31 05:55:55.4	92.080	0.340	-0.190	0.610
2020/01/31 05:55:55.5	92.070	0.330	-0.170	0.600
2020/01/31 05:55:55.6	92.060	0.310	-0.150	0.580
2020/01/31 05:55:55.7	92.050	0.290	-0.130	0.570
2020/01/31 05:55:55.8	92.050	0.260	-0.110	0.560
2020/01/31 05:55:55.9	92.040	0.240	-0.080	0.550
2020/01/31 05:55:56.0	92.040	0.210	-0.050	0.540
2020/01/31 05:55:56.1	92.040	0.190	-0.030	0.540
2020/01/31 05:55:56.2	92.040	0.160	-0.000	0.540
2020/01/31 05:55:56.3	92.050	0.130	0.020	0.530
2020/01/31 05:55:56.4	92.050	0.100	0.040	0.540
2020/01/31 05:55:56.5	92.050	0.080	0.060	0.540
2020/01/31 05:55:56.6	92.050	0.050	0.080	0.540
2020/01/31 05:55:56.7	92.060	0.030	0.090	0.550
2020/01/31 05:55:56.8	92.060	0.010	0.090	0.560
2020/01/31 05:55:56.9	92.070	-0.010	0.090	0.560
2020/01/31 05:55:57.0	92.070	-0.030	0.090	0.570
2020/01/31 05:55:57.1	92.080	-0.050	0.080	0.580
2020/01/31 05:55:57.2	92.090	-0.070	0.070	0.590
2020/01/31 05:55:57.3	92.120	-0.080	0.040	0.590
2020/01/31 05:55:57.4	92.130	-0.090	0.020	0.600
2020/01/31 05:55:57.5	92.140	-0.100	-0.010	0.610
2020/01/31 05:55:57.6	92.160	-0.110	-0.040	0.610
2020/01/31 05:55:57.7	92.170	-0.120	-0.070	0.620
2020/01/31 05:55:57.8	92.190	-0.120	-0.110	0.620
2020/01/31 05:55:57.9	92.200	-0.120	-0.150	0.630
2020/01/31 05:55:58.0	92.220	-0.120	-0.200	0.630
2020/01/31 05:55:58.1	92.230	-0.120	-0.240	0.630
2020/01/31 05:55:58.2	92.250	-0.120	-0.290	0.640
2020/01/31 05:55:58.3	92.270	-0.110	-0.340	0.640
2020/01/31 05:55:58.4	92.280	-0.110	-0.390	0.650
2020/01/31 05:55:58.5	92.290	-0.100	-0.430	0.660
2020/01/31 05:55:58.6	92.310	-0.090	-0.480	0.670
2020/01/31 05:55:58.7	92.320	-0.080	-0.530	0.680
2020/01/31 05:55:58.8	92.330	-0.070	-0.570	0.700
2020/01/31 05:55:58.9	92.340	-0.060	-0.610	0.710
2020/01/31 05:55:59.0	92.350	-0.050	-0.650	0.730
2020/01/31 05:55:59.1	92.360	-0.040	-0.690	0.750
2020/01/31 05:55:59.2	92.360	-0.030	-0.720	0.780
2020/01/31 05:55:59.3	92.360	-0.020	-0.750	0.800
2020/01/31 05:55:59.4	92.360	-0.000	-0.770	0.830
2020/01/31 05:55:59.5	92.370	0.000	-0.790	0.860
2020/01/31 05:55:59.6	92.370	0.010	-0.800	0.890
2020/01/31 05:55:59.7	92.370	0.020	-0.800	0.920
2020/01/31 05:55:59.8	92.370	0.030	-0.800	0.960
2020/01/31 05:55:59.9	92.370	0.030	-0.790	1.000
2020/01/31 05:56:00.0	92.370	0.040	-0.780	1.030
2020/01/31 05:56:00.1	92.360	0.040	-0.750	1.070
2020/01/31 05:56:00.2	92.360	0.040	-0.730	1.110
2020/01/31 05:56:00.3	92.330	0.030	-0.690	1.150
2020/01/31 05:56:00.4	92.320	0.030	-0.650	1.190
2020/01/31 05:56:00.5	92.320	0.020	-0.610	1.230
2020/01/31 05:56:00.6	92.310	0.010	-0.560	1.260
2020/01/31 05:56:00.7	92.300	0.000	-0.500	1.300
2020/01/31 05:56:00.8	92.280	-0.010	-0.440	1.330
2020/01/31 05:56:00.9	92.270	-0.030	-0.370	1.360
2020/01/31 05:56:01.0	92.250	-0.050	-0.300	1.390
2020/01/31 05:56:01.1	92.240	-0.070	-0.230	1.410
2020/01/31 05:56:01.2	92.220	-0.090	-0.160	1.430
2020/01/31 05:56:01.3	92.200	-0.110	-0.080	1.460
2020/01/31 05:56:01.4	92.180	-0.140	-0.000	1.470
2020/01/31 05:56:01.5	92.160	-0.170	0.070	1.480
2020/01/31 05:56:01.6	92.140	-0.190	0.140	1.490
2020/01/31 05:56:01.7	92.120	-0.220	0.210	1.490
2020/01/31 05:56:01.8	92.100	-0.250	0.280	1.490
2020/01/31 05:56:01.9	92.080	-0.270	0.340	1.490
2020/01/31 05:56:02.0	92.060	-0.300	0.390	1.480
2020/01/31 05:56:02.1	92.040	-0.330	0.440	1.470
2020/01/31 05:56:02.2	92.020	-0.350	0.490	1.450
2020/01/31 05:56:02.3	92.010	-0.370	0.520	1.430
2020/01/31 05:56:02.4	91.990	-0.390	0.550	1.410
2020/01/31 05:56:02.5	91.970	-0.410	0.570	1.380
2020/01/31 05:56:02.6	91.950	-0.420	0.580	1.360
2020/01/31 05:56:02.7	91.930	-0.430	0.580	1.330
2020/01/31 05:56:02.8	91.920	-0.440	0.560	1.300
2020/01/31 05:56:02.9	91.900	-0.440	0.540	1.260
2020/01/31 05:56:03.0	91.890	-0.440	0.510	1.230
2020/01/31 05:56:03.1	91.880	-0.430	0.460	1.190
2020/01/31 05:56:03.2	91.860	-0.420	0.410	1.150
2020/01/31 05:56:03.3	91.860	-0.400	0.340	1.110
2020/01/31 05:56:03.4	91.860	-0.380	0.270	1.070
2020/01/31 05:56:03.5	91.850	-0.360	0.190	1.030
2020/01/31 05:56:03.6	91.850	-0.330	0.110	0.990
2020/01/31 05:56:03.7	91.850	-0.290	0.010	0.940
2020/01/31 05:56:03.8	91.850	-0.260	-0.080	0.900
2020/01/31 05:56:03.9	91.850	-0.210	-0.180	0.850
2020/01/31 05:56:04.0	91.850	-0.170	-0.270	0.800
2020/01/31 05:56:04.1	91.860	-0.120	-0.370	0.750
2020/01/31 05:56:04.2	91.870	-0.080	-0.470	0.710
2020/01/31 05:56:04.3	91.880	-0.030	-0.560	0.660
2020/01/31 05:56:04.4	91.890	0.030	-0.650	0.610
2020/01/31 05:56:04.5	91.900	0.080	-0.730	0.570
2020/01/31 05:56:04.6	91.910	0.130	-0.810	0.530
2020/01/31 05:56:04.7	91.920	0.180	-0.870	0.490
2020/01/31 05:56:04.8	91.920	0.220	-0.930	0.460
2020/01/31 05:56:04.9	91.930	0.270	-0.980	0.430
2020/01/31 05:56:05.0	91.940	0.310	-1.020	0.400
2020/01/31 05:56:05.1	91.940	0.350	-1.050	0.380
2020/01/31 05:56:05.2	91.940	0.380	-1.060	0.360
2020/01/31 05:56:05.3	91.950	0.410	-1.070	0.340
2020/01/31 05:56:05.4	91.950	0.440	-1.070	0.330
2020/01/31 05:56:05.5	91.950	0.460	-1.050	0.320
2020/01/31 05:56:05.6	91.940	0.470	-1.020	0.320
2020/01/31 05:56:05.7	91.940	0.480	-0.990	0.320
2020/01/31 05:56:05.8	91.930	0.480	-0.940	0.320
2020/01/31 05:56:05.9	91.930	0.480	-0.890	0.330
2020/01/31 05:56:06.0	91.920	0.470	-0.820	0.340
2020/01/31 05:56:06.1	91.910	0.460	-0.750	0.350
2020/01/31 05:56:06.2	91.890	0.440	-0.680	0.370
2020/01/31 05:56:06.3	91.860	0.420	-0.590	0.390
2020/01/31 05:56:06.4	91.850	0.390	-0.510	0.420
2020/01/31 05:56:06.5	91.830	0.360	-0.420	0.440
2020/01/31 05:56:06.6	91.820	0.320	-0.330	0.470
2020/01/31 05:56:06.7	91.800	0.280	-0.240	0.500
2020/01/31 05:56:06.8	91.790	0.230	-0.150	0.530
2020/01/31 05:56:06.9	91.770	0.190	-0.060	0.570
2020/01/31 05:56:07.0	91.750	0.140	0.030	0.600
2020/01/31 05:56:07.1	91.740	0.090	0.110	0.630
2020/01/31 05:56:07.2	91.730	0.040	0.190	0.660
2020/01/31 05:56:07.3	91.730	-0.010	0.270	0.690
2020/01/31 05:56:07.4	91.720	-0.050	0.340	0.720
2020/01/31 05:56:07.5	91.710	-0.100	0.400	0.750
2020/01/31 05:56:07.6	91.700	-0.150	0.460	0.770
2020/01/31 05:56:07.7	91.690	-0.190	0.510	0.800
2020/01/31 05:56:07.8	91.680	-0.230	0.550	0.820
2020/01/31 05:56:07.9	91.680	-0.270	0.580	0.830
2020/01/31 05:56:08.0	91.670	-0.300	0.610	0.850
2020/01/31 05:56:08.1	91.670	-0.330	0.620	0.870
2020/01/31 05:56:08.2	91.670	-0.360	0.630	0.880
2020/01/31 05:56:08.3	91.670	-0.380	0.640	0.890
2020/01/31 05:56:08.4	91.670	-0.390	0.630	0.900
2020/01/31 05:56:08.5	91.680	-0.410	0.610	0.910
2020/01/31 05:56:08.6	91.680	-0.410	0.590	0.920
2020/01/31 05:56:08.7	91.680	-0.420	0.560	0.920
2020/01/31 05:56:08.8	91.690	-0.420	0.530	0.930
2020/01/31 05:56:08.9	91.690	-0.410	0.490	0.940
2020/01/31 05:56:09.0	91.700	-0.400	0.440	0.940
2020/01/31 05:56:09.1	91.700	-0.390	0.380	0.950
2020/01/31 05:56:09.2	91.700	-0.370	0.330	0.950
2020/01/31 05:56:09.3	91.710	-0.350	0.260	0.950
2020/01/31 05:56:09.4	91.710	-0.330	0.190	0.960
2020/01/31 05:56:09.5	91.710	-0.300	0.130	0.960
2020/01/31 05:56:09.6	91.710	-0.270	0.060	0.970
2020/01/31 05:56:09.7	91.700	-0.230	-0.020	0.970
2020/01/31 05:56:09.8	91.700	-0.200	-0.090	0.970
2020/01/31 05:56:09.9	91.690	-0.160	-0.160	0.980
2020/01/31 05:56:10.0	91.690	-0.120	-0.240	0.980
2020/01/31 05:56:10.1	91.680	-0.080	-0.310	0.980
2020/01/31 05:56:10.2	91.670	-0.040	-0.380	0.990
2020/01/31 05:56:10.3	91.650	-0.000	-0.450	0.990
2020/01/31 05:56:10.4	91.640	0.040	-0.510	0.990
2020/01/31 05:56:10.5	91.630	0.080	-0.570	0.990
2020/01/31 05:56:10.6	91.620	0.120	-0.630	1.000
2020/01/31 05:56:10.7	91.610	0.160	-0.690	1.000
2020/01/31 05:56:10.8	91.600	0.200	-0.740	1.000
2020/01/31 05:56:10.9	91.590	0.230	-0.780	1.000
2020/01/31 05:56:11.0	91.580	0.270	-0.830	1.000
2020/01/31 05:56:11.1	91.570	0.300	-0.860	1.000
2020/01/31 05:56:11.2	91.560	0.330	-0.890	1.000
2020/01/31 05:56:11.3	91.530	0.360	-0.930	1.000
2020/01/31 05:56:11.4	91.530	0.390	-0.950	1.000
2020/01/31 05:56:11.5	91.520	0.410	-0.970	1.000
2020/01/31 05:56:11.6	91.520	0.430	-0.980	1.000
2020/01/31 05:56:11.7	91.520	0.450	-0.990	1.000
2020/01/31 05:56:11.8	91.520	0.470	-0.990	1.000
2020/01/31 05:56:11.9	91.520	0.480	-0.990	1.000
2020/01/31 05:56:12.0	91.520	0.490	-0.980	0.990
2020/01/31 05:56:12.1	91.520	0.500	-0.970	0.990
2020/01/31 05:56:12.2	91.520	0.510	-0.950	0.990
2020/01/31 05:56:12.3	91.520	0.510	-0.930	0.980
2020/01/31 05:56:12.4	91.520	0.510	-0.910	0.980
2020/01/31 05:56:12.5	91.520	0.510	-0.880	0.980
2020/01/31 05:56:12.6	91.520	0.500	-0.850	0.980
2020/01/31 05:56:12.7	91.530	0.490	-0.820	0.980
2020/01/31 05:56:12.8	91.530	0.490	-0.790	0.980
2020/01/31 05:56:12.9	91.530	0.480	-0.750	0.990
2020/01/31 05:56:13.0	91.520	0.460	-0.710	0.990
2020/01/31 05:56:13.1	91.520	0.450	-0.670	0.990
2020/01/31 05:56:13.2	91.520	0.430	-0.620	1.000
2020/01/31 05:56:13.3	91.520	0.410	-0.570	1.010
2020/01/31 05:56:13.4	91.510	0.390	-0.520	1.010
2020/01/31 05:56:13.5	91.510	0.370	-0.470	1.020
2020/01/31 05:56:13.6	91.500	0.340	-0.420	1.020
2020/01/31 05:56:13.7	91.490	0.320	-0.360	1.020
2020/01/31 05:56:13.8	91.490	0.290	-0.310	1.030
2020/01/31 05:56:13.9	91.480	0.260	-0.260	1.030
2020/01/31 05:56:14.0	91.470	0.230	-0.200	1.030
2020/01/31 05:56:14.1	91.470	0.200	-0.150	1.030
2020/01/31 05:56:14.2	91.460	0.160	-0.090	1.030
2020/01/31 05:56:14.3	91.460	0.130	-0.040	1.030
2020/01/31 05:56:14.4	91.450	0.090	0.020	1.030
2020/01/31 05:56:14.5	91.450	0.050	0.070	1.030
2020/01/31 05:56:14.6	91.440	0.020	0.120	1.020
2020/01/31 05:56:14.7	91.430	-0.020	0.170	1.020
2020/01/31 05:56:14.8	91.420	-0.060	0.210	1.010
2020/01/31 05:56:14.9	91.410	-0.100	0.260	1.010
2020/01/31 05:56:15.0	91.390	-0.140	0.300	1.000
2020/01/31 05:56:15.1	91.380	-0.180	0.340	0.990
2020/01/31 05:56:15.2	91.370	-0.220	0.380	0.990
2020/01/31 05:56:15.3	91.350	-0.270	0.410	0.980
2020/01/31 05:56:15.4	91.330	-0.300	0.450	0.980
2020/01/31 05:56:15.5	91.320	-0.340	0.470	0.970
2020/01/31 05:56:15.6	91.300	-0.380	0.500	0.970
2020/01/31 05:56:15.7	91.280	-0.420	0.520	0.970
2020/01/31 05:56:15.8	91.270	-0.450	0.540	0.970
2020/01/31 05:56:15.9	91.250	-0.480	0.550	0.960
2020/01/31 05:56:16.0	91.240	-0.510	0.560	0.960
2020/01/31 05:56:16.1	91.220	-0.540	0.560	0.970
2020/01/31 05:56:16.2	91.210	-0.570	0.560	0.970
2020/01/31 05:56:16.3	91.200	-0.590	0.550	0.970
2020/01/31 05:56:16.4	91.180	-0.600	0.540	0.970
2020/01/31 05:56:16.5	91.180	-0.620	0.520	0.970
2020/01/31 05:56:16.6	91.170	-0.630	0.500	0.970
2020/01/31 05:56:16.7	91.160	-0.640	0.470	0.970
2020/01/31 05:56:16.8	91.160	-0.640	0.430	0.960
2020/01/31 05:56:16.9	91.160	-0.640	0.390	0.960
2020/01/31 05:56:17.0	91.160	-0.640	0.350	0.960
2020/01/31 05:56:17.1	91.160	-0.630	0.290	0.950
2020/01/31 05:56:17.2	91.170	-0.620	0.240	0.950
2020/01/31 05:56:17.3	91.190	-0.600	0.170	0.940
2020/01/31 05:56:17.4	91.200	-0.580	0.110	0.930
2020/01/31 05:56:17.5	91.210	-0.560	0.040	0.920
2020/01/31 05:56:17.6	91.230	-0.530	-0.040	0.910
2020/01/31 05:56:17.7	91.250	-0.500	-0.110	0.890
2020/01/31 05:56:17.8	91.270	-0.470	-0.190	0.880
2020/01/31 05:56:17.9	91.290	-0.430	-0.270	0.860
2020/01/31 05:56:18.0	91.310	-0.390	-0.350	0.850
2020/01/31 05:56:18.1	91.330	-0.360	-0.430	0.830
2020/01/31 05:56:18.2	91.360	-0.310	-0.510	0.810
2020/01/31 05:56:18.3	91.380	-0.270	-0.590	0.790
2020/01/31 05:56:18.4	91.400	-0.230	-0.660	0.770
2020/01/31 05:56:18.5	91.430	-0.180	-0.720	0.750
2020/01/31 05:56:18.6	91.450	-0.140	-0.780	0.730
2020/01/31 05:56:18.7	91.470	-0.100	-0.840	0.710
2020/01/31 05:56:18.8	91.490	-0.050	-0.890	0.700
2020/01/31 05:56:18.9	91.510	-0.010	-0.930	0.690
2020/01/31 05:56:19.0	91.530	0.030	-0.960	0.670
2020/01/31 05:56:19.1	91.550	0.070	-0.980	0.660
2020/01/31 05:56:19.2	91.560	0.110	-1.000	0.660
2020/01/31 05:56:19.3	91.560	0.140	-1.000	0.650
2020/01/31 05:56:19.4	91.570	0.170	-1.010	0.650
2020/01/31 05:56:19.5	91.570	0.200	-1.000	0.650
2020/01/31 05:56:19.6	91.570	0.230	-0.980	0.650
2020/01/31 05:56:19.7	91.570	0.250	-0.960	0.660
2020/01/31 05:56:19.8	91.560	0.270	-0.930	0.670
2020/01/31 05:56:19.9	91.560	0.280	-0.890	0.690
2020/01/31 05:56:20.0	91.540	0.300	-0.850	0.700
2020/01/31 05:56:20.1	91.530	0.300	-0.800	0.720
2020/01/31 05:56:20.2	91.510	0.310	-0.750	0.750
2020/01/31 05:56:20.3	91.490	0.310	-0.690	0.780
2020/01/31 05:56:20.4	91.470	0.310	-0.630	0.810
2020/01/31 05:56:20.5	91.440	0.310	-0.570	0.840
2020/01/31 05:56:20.6	91.420	0.300	-0.510	0.870
2020/01/31 05:56:20.7	91.390	0.290	-0.440	0.910
2020/01/31 05:56:20.8	91.360	0.280	-0.380	0.950
2020/01/31 05:56:20.9	91.330	0.260	-0.310	0.980
2020/01/31 05:56:21.0	91.310	0.250	-0.250	1.020
2020/01/31 05:56:21.1	91.280	0.230	-0.190	1.050
2020/01/31 05:56:21.2	91.250	0.220	-0.130	1.080
2020/01/31 05:56:21.3	91.230	0.200	-0.080	1.110
2020/01/31 05:56:21.4	91.200	0.180	-0.030	1.140
2020/01/31 05:56:21.5	91.180	0.160	0.020	1.170
2020/01/31 05:56:21.6	91.150	0.140	0.050	1.190
2020/01/31 05:56:21.7	91.130	0.130	0.090	1.210
2020/01/31 05:56:21.8	91.110	0.110	0.110	1.230
2020/01/31 05:56:21.9	91.100	0.100	0.140	1.240
2020/01/31 05:56:22.0	91.080	0.080	0.150	1.250
2020/01/31 05:56:22.1	91.070	0.070	0.160	1.250
2020/01/31 05:56:22.2	91.060	0.060	0.170	1.250
2020/01/31 05:56:22.3	91.040	0.050	0.160	1.250
2020/01/31 05:56:22.4	91.040	0.040	0.160	1.240
2020/01/31 05:56:22.5	91.040	0.030	0.150	1.220
2020/01/31 05:56:22.6	91.040	0.030	0.130	1.210
2020/01/31 05:56:22.7	91.040	0.020	0.110	1.190
2020/01/31 05:56:22.8	91.050	0.020	0.090	1.160
2020/01/31 05:56:22.9	91.060	0.020	0.060	1.140
2020/01/31 05:56:23.0	91.070	0.030	0.030	1.110
2020/01/31 05:56:23.1	91.080	0.030	-0.000	1.080
2020/01/31 05:56:23.2	91.090	0.040	-0.040	1.050
2020/01/31 05:56:23.3	91.110	0.040	-0.070	1.010
2020/01/31 05:56:23.4	91.120	0.050	-0.110	0.980
2020/01/31 05:56:23.5	91.130	0.060	-0.150	0.960
2020/01/31 05:56:23.6	91.150	0.070	-0.190	0.930
2020/01/31 05:56:23.7	91.160	0.080	-0.230	0.910
2020/01/31 05:56:23.8	91.170	0.100	-0.270	0.890
2020/01/31 05:56:23.9	91.180	0.110	-0.310	0.870
2020/01/31 05:56:24.0	91.190	0.120	-0.340	0.850
2020/01/31 05:56:24.1	91.190	0.130	-0.370	0.840
2020/01/31 05:56:24.2	91.200	0.150	-0.400	0.820
2020/01/31 05:56:24.3	91.210	0.160	-0.430	0.820
2020/01/31 05:56:24.4	91.210	0.170	-0.450	0.810
2020/01/31 05:56:24.5	91.220	0.180	-0.470	0.800
2020/01/31 05:56:24.6	91.220	0.180	-0.480	0.790
2020/01/31 05:56:24.7	91.220	0.190	-0.480	0.780
2020/01/31 05:56:24.8	91.220	0.190	-0.480	0.780
2020/01/31 05:56:24.9	91.230	0.190	-0.470	0.780
2020/01/31 05:56:25.0	91.230	0.190	-0.460	0.780
2020/01/31 05:56:25.1	91.230	0.190	-0.440	0.780
2020/01/31 05:56:25.2	91.230	0.180	-0.420	0.780
2020/01/31 05:56:25.3	91.230	0.170	-0.390	0.790
2020/01/31 05:56:25.4	91.230	0.160	-0.360	0.790
2020/01/31 05:56:25.5	91.230	0.150	-0.320	0.800
2020/01/31 05:56:25.6	91.230	0.130	-0.280	0.810
2020/01/31 05:56:25.7	91.230	0.110	-0.230	0.820
2020/01/31 05:56:25.8	91.220	0.090	-0.180	0.830
2020/01/31 05:56:25.9	91.220	0.070	-0.130	0.850
2020/01/31 05:56:26.0	91.210	0.040	-0.080	0.870
2020/01/31 05:56:26.1	91.200	0.010	-0.030	0.880
2020/01/31 05:56:26.2	91.190	-0.020	0.030	0.900
2020/01/31 05:56:26.3	91.180	-0.050	0.090	0.930
2020/01/31 05:56:26.4	91.170	-0.080	0.140	0.950
2020/01/31 05:56:26.5	91.160	-0.110	0.190	0.970
2020/01/31 05:56:26.6	91.150	-0.150	0.240	0.990
2020/01/31 05:56:26.7	91.140	-0.180	0.290	1.010
2020/01/31 05:56:26.8	91.120	-0.210	0.330	1.030
2020/01/31 05:56:26.9	91.110	-0.250	0.370	1.040
2020/01/31 05:56:27.0	91.100	-0.280	0.400	1.060
2020/01/31 05:56:27.1	91.090	-0.310	0.430	1.070
2020/01/31 05:56:27.2	91.090	-0.340	0.450	1.080
2020/01/31 05:56:27.3	91.080	-0.370	0.470	1.090
2020/01/31 05:56:27.4	91.080	-0.390	0.470	1.100
2020/01/31 05:56:27.5	91.070	-0.420	0.480	1.100
2020/01/31 05:56:27.6	91.070	-0.430	0.470	1.110
2020/01/31 05:56:27.7	91.070	-0.450	0.460	1.100
2020/01/31 05:56:27.8	91.070	-0.460	0.440	1.100
2020/01/31 05:56:27.9	91.070	-0.470	0.420	1.100
2020/01/31 05:56:28.0	91.070	-0.480	0.380	1.090
2020/01/31 05:56:28.1	91.070	-0.480	0.340	1.080
2020/01/31 05:56:28.2	91.070	-0.470	0.290	1.080
2020/01/31 05:56:28.3	91.070	-0.460	0.230	1.060
2020/01/31 05:56:28.4	91.080	-0.450	0.170	1.050
2020/01/31 05:56:28.5	91.080	-0.430	0.110	1.040
2020/01/31 05:56:28.6	91.080	-0.410	0.030	1.020
2020/01/31 05:56:28.7	91.090	-0.380	-0.050	1.010
2020/01/31 05:56:28.8	91.100	-0.350	-0.130	0.990
2020/01/31 05:56:28.9	91.100	-0.310	-0.220	0.970
2020/01/31 05:56:29.0	91.110	-0.270	-0.320	0.950
2020/01/31 05:56:29.1	91.120	-0.230	-0.410	0.930
2020/01/31 05:56:29.2	91.140	-0.180	-0.510	0.900
2020/01/31 05:56:29.3	91.150	-0.130	-0.620	0.880
2020/01/31 05:56:29.4	91.160	-0.070	-0.720	0.850
2020/01/31 05:56:29.5	91.180	-0.010	-0.820	0.820
2020/01/31 05:56:29.6	91.200	0.050	-0.930	0.800
2020/01/31 05:56:29.7	91.210	0.110	-1.020	0.770
2020/01/31 05:56:29.8	91.230	0.170	-1.120	0.750
2020/01/31 05:56:29.9	91.240	0.240	-1.210	0.730
2020/01/31 05:56:30.0	91.260	0.300	-1.300	0.710
2020/01/31 05:56:30.1	91.270	0.360	-1.370	0.700
2020/01/31 05:56:30.2	91.280	0.420	-1.440	0.690
2020/01/31 05:56:30.3	91.270	0.480	-1.510	0.680
2020/01/31 05:56:30.4	91.270	0.540	-1.550	0.680
2020/01/31 05:56:30.5	91.270	0.590	-1.590	0.680
2020/01/31 05:56:30.6	91.260	0.630	-1.610	0.680
2020/01/31 05:56:30.7	91.260	0.670	-1.610	0.690
2020/01/31 05:56:30.8	91.250	0.710	-1.610	0.710
2020/01/31 05:56:30.9	91.240	0.740	-1.580	0.720
2020/01/31 05:56:31.0	91.220	0.760	-1.550	0.740
2020/01/31 05:56:31.1	91.210	0.770	-1.500	0.750
2020/01/31 05:56:31.2	91.190	0.780	-1.430	0.770
2020/01/31 05:56:31.3	91.180	0.780	-1.350	0.800
2020/01/31 05:56:31.4	91.160	0.770	-1.260	0.820
2020/01/31 05:56:31.5	91.140	0.750	-1.150	0.840
2020/01/31 05:56:31.6	91.120	0.730	-1.030	0.870
2020/01/31 05:56:31.7	91.110	0.690	-0.910	0.890
2020/01/31 05:56:31.8	91.090	0.650	-0.770	0.910
2020/01/31 05:56:31.9	91.070	0.610	-0.630	0.930
2020/01/31 05:56:32.0	91.050	0.560	-0.490	0.950
2020/01/31 05:56:32.1	91.030	0.500	-0.330	0.960
2020/01/31 05:56:32.2	91.010	0.430	-0.180	0.980
2020/01/31 05:56:32.3	90.990	0.370	-0.020	0.990
2020/01/31 05:56:32.4	90.980	0.290	0.130	1.000
2020/01/31 05:56:32.5	90.970	0.220	0.280	1.000
2020/01/31 05:56:32.6	90.950	0.140	0.420	1.000
2020/01/31 05:56:32.7	90.940	0.060	0.560	1.000
2020/01/31 05:56:32.8	90.930	-0.020	0.690	1.000
2020/01/31 05:56:32.9	90.920	-0.100	0.810	0.990
2020/01/31 05:56:33.0	90.910	-0.180	0.920	0.980
2020/01/31 05:56:33.1	90.910	-0.250	1.020	0.970
2020/01/31 05:56:33.2	90.900	-0.330	1.100	0.960
2020/01/31 05:56:33.3	90.890	-0.400	1.170	0.940
2020/01/31 05:56:33.4	90.890	-0.460	1.230	0.920
2020/01/31 05:56:33.5	90.890	-0.520	1.270	0.900
2020/01/31 05:56:33.6	90.890	-0.580	1.290	0.870
2020/01/31 05:56:33.7	90.890	-0.620	1.300	0.850
2020/01/31 05:56:33.8	90.900	-0.670	1.300	0.820
2020/01/31 05:56:33.9	90.900	-0.700	1.280	0.790
2020/01/31 05:56:34.0	90.910	-0.720	1.240	0.760
2020/01/31 05:56:34.1	90.920	-0.740	1.190	0.730
2020/01/31 05:56:34.2	90.930	-0.750	1.130	0.710
2020/01/31 05:56:34.3	90.950	-0.760	1.050	0.670
2020/01/31 05:56:34.4	90.970	-0.750	0.970	0.650
2020/01/31 05:56:34.5	90.980	-0.740	0.870	0.620
2020/01/31 05:56:34.6	91.000	-0.720	0.770	0.600
2020/01/31 05:56:34.7	91.010	-0.700	0.660	0.580
2020/01/31 05:56:34.8	91.030	-0.670	0.540	0.570
2020/01/31 05:56:34.9	91.040	-0.630	0.420	0.560
2020/01/31 05:56:35.0	91.050	-0.590	0.300	0.550
2020/01/31 05:56:35.1	91.060	-0.550	0.170	0.540
2020/01/31 05:56:35.2	91.070	-0.500	0.050	0.530
2020/01/31 05:56:35.3	91.090	-0.450	-0.090	0.530
2020/01/31 05:56:35.4	91.090	-0.390	-0.210	0.530
2020/01/31 05:56:35.5	91.100	-0.340	-0.320	0.530
2020/01/31 05:56:35.6	91.100	-0.280	-0.440	0.520
2020/01/31 05:56:35.7	91.100	-0.230	-0.540	0.520
2020/01/31 05:56:35.8	91.100	-0.170	-0.640	0.520
2020/01/31 05:56:35.9	91.100	-0.120	-0.730	0.520
2020/01/31 05:56:36.0	91.100	-0.070	-0.820	0.520
2020/01/31 05:56:36.1	91.090	-0.020	-0.890	0.520
2020/01/31 05:56:36.2	91.090	0.020	-0.960	0.520
2020/01/31 05:56:36.3	91.070	0.070	-1.010	0.530
2020/01/31 05:56:36.4	91.060	0.100	-1.060	0.540
2020/01/31 05:56:36.5	91.050	0.140	-1.090	0.550
2020/01/31 05:56:36.6	91.030	0.170	-1.120	0.560
2020/01/31 05:56:36.7	91.010	0.190	-1.130	0.570
2020/01/31 05:56:36.8	91.000	0.210	-1.130	0.590
2020/01/31 05:56:36.9	90.980	0.230	-1.130	0.610
2020/01/31 05:56:37.0	90.960	0.240	-1.110	0.630
2020/01/31 05:56:37.1	90.940	0.250	-1.090	0.660
2020/01/31 05:56:37.2	90.910	0.250	-1.050	0.680
2020/01/31 05:56:37.3	90.870	0.240	-1.010	0.710
2020/01/31 05:56:37.4	90.850	0.230	-0.960	0.740
2020/01/31 05:56:37.5	90.830	0.220	-0.900	0.770
2020/01/31 05:56:37.6	90.800	0.210	-0.840	0.800
2020/01/31 05:56:37.7	90.780	0.190	-0.770	0.830
2020/01/31 05:56:37.8	90.760	0.160	-0.700	0.860
2020/01/31 05:56:37.9	90.740	0.140	-0.620	0.890
2020/01/31 05:56:38.0	90.730	0.110	-0.550	0.920
2020/01/31 05:56:38.1	90.710	0.080	-0.470	0.940
2020/01/31 05:56:38.2	90.700	0.050	-0.390	0.970
2020/01/31 05:56:38.3	90.690	0.020	-0.300	1.000
2020/01/31 05:56:38.4	90.690	-0.020	-0.220	1.020
2020/01/31 05:56:38.5	90.680	-0.050	-0.150	1.040
2020/01/31 05:56:38.6	90.680	-0.080	-0.070	1.060
2020/01/31 05:56:38.7	90.680	-0.110	-0.000	1.070
2020/01/31 05:56:38.8	90.690	-0.140	0.060	1.080
2020/01/31 05:56:38.9	90.700	-0.160	0.120	1.090
2020/01/31 05:56:39.0	90.710	-0.190	0.170	1.090
2020/01/31 05:56:39.1	90.730	-0.210	0.220	1.090
2020/01/31 05:56:39.2	90.740	-0.230	0.260	1.080
2020/01/31 05:56:39.3	90.780	-0.240	0.290	1.080
2020/01/31 05:56:39.4	90.810	-0.250	0.320	1.060
2020/01/31 05:56:39.5	90.830	-0.260	0.330	1.040
2020/01/31 05:56:39.6	90.860	-0.260	0.340	1.020
2020/01/31 05:56:39.7	90.890	-0.260	0.340	1.000
2020/01/31 05:56:39.8	90.920	-0.250	0.330	0.970
2020/01/31 05:56:39.9	90.960	-0.240	0.310	0.940
2020/01/31 05:56:40.0	90.990	-0.220	0.280	0.910
2020/01/31 05:56:40.1	91.020	-0.200	0.250	0.880
2020/01/31 05:56:40.2	91.050	-0.180	0.210	0.850
2020/01/31 05:56:40.3	91.060	-0.150	0.160	0.820
2020/01/31 05:56:40.4	91.090	-0.110	0.100	0.800
2020/01/31 05:56:40.5	91.120	-0.080	0.050	0.770
2020/01/31 05:56:40.6	91.140	-0.040	-0.020	0.750
2020/01/31 05:56:40.7	91.160	0.000	-0.080	0.740
2020/01/31 05:56:40.8	91.180	0.050	-0.150	0.720
2020/01/31 05:56:40.9	91.200	0.090	-0.220	0.710
2020/01/31 05:56:41.0	91.210	0.140	-0.280	0.710
2020/01/31 05:56:41.1	91.220	0.180	-0.350	0.700
2020/01/31 05:56:41.2	91.230	0.230	-0.420	0.700
2020/01/31 05:56:41.3	91.240	0.270	-0.480	0.710
2020/01/31 05:56:41.4	91.240	0.320	-0.540	0.720
2020/01/31 05:56:41.5	91.240	0.360	-0.590	0.730
2020/01/31 05:56:41.6	91.240	0.400	-0.640	0.740
2020/01/31 05:56:41.7	91.240	0.430	-0.690	0.760
2020/01/31 05:56:41.8	91.230	0.460	-0.730	0.780
2020/01/31 05:56:41.9	91.220	0.490	-0.760	0.800
2020/01/31 05:56:42.0	91.210	0.520	-0.790	0.820
2020/01/31 05:56:42.1	91.200	0.540	-0.810	0.840
2020/01/31 05:56:42.2	91.180	0.550	-0.820	0.870
2020/01/31 05:56:42.3	91.160	0.560	-0.830	0.890
2020/01/31 05:56:42.4	91.140	0.570	-0.820	0.920
2020/01/31 05:56:42.5	91.120	0.570	-0.810	0.950
2020/01/31 05:56:42.6	91.100	0.560	-0.790	0.970
2020/01/31 05:56:42.7	91.080	0.550	-0.760	1.000
2020/01/31 05:56:42.8	91.050	0.540	-0.730	1.030
2020/01/31 05:56:42.9	91.030	0.510	-0.690	1.050
2020/01/31 05:56:43.0	91.000	0.490	-0.640	1.070
2020/01/31 05:56:43.1	90.970	0.460	-0.590	1.090
2020/01/31 05:56:43.2	90.940	0.430	-0.540	1.110
2020/01/31 05:56:43.3	90.910	0.390	-0.470	1.130
2020/01/31 05:56:43.4	90.880	0.350	-0.410	1.140
2020/01/31 05:56:43.5	90.850	0.310	-0.340	1.150
2020/01/31 05:56:43.6	90.820	0.260	-0.270	1.160
2020/01/31 05:56:43.7	90.790	0.210	-0.200	1.170
2020/01/31 05:56:43.8	90.760	0.170	-0.130	1.170
2020/01/31 05:56:43.9	90.740	0.120	-0.060	1.180
2020/01/31 05:56:44.0	90.710	0.070	0.010	1.180
2020/01/31 05:56:44.1	90.690	0.020	0.080	1.170
2020/01/31 05:56:44.2	90.670	-0.030	0.150	1.170
2020/01/31 05:56:44.3	90.640	-0.070	0.210	1.160
2020/01/31 05:56:44.4	90.620	-0.120	0.270	1.140
2020/01/31 05:56:44.5	90.610	-0.160	0.320	1.130
2020/01/31 05:56:44.6	90.600	-0.190	0.370	1.110
2020/01/31 05:56:44.7	90.590	-0.230	0.410	1.090
2020/01/31 05:56:44.8	90.590	-0.260	0.440	1.070
2020/01/31 05:56:44.9	90.580	-0.280	0.460	1.040
2020/01/31 05:56:45.0	90.580	-0.300	0.480	1.020
2020/01/31 05:56:45.1	90.590	-0.320	0.480	0.980
2020/01/31 05:56:45.2	90.590	-0.330	0.480	0.950
2020/01/31 05:56:45.3	90.590	-0.330	0.480	0.910
2020/01/31 05:56:45.4	90.600	-0.330	0.450	0.870
2020/01/31 05:56:45.5	90.620	-0.320	0.420	0.830
2020/01/31 05:56:45.6	90.630	-0.310	0.380	0.790
2020/01/31 05:56:45.7	90.650	-0.290	0.330	0.740
2020/01/31 05:56:45.8	90.660	-0.270	0.270	0.690
2020/01/31 05:56:45.9	90.680	-0.240	0.210	0.640
2020/01/31 05:56:46.0	90.700	-0.210	0.140	0.590
2020/01/31 05:56:46.1	90.730	-0.170	0.060	0.540
2020/01/31 05:56:46.2	90.750	-0.130	-0.020	0.490
2020/01/31 05:56:46.3	90.770	-0.090	-0.110	0.450
2020/01/31 05:56:46.4	90.790	-0.040	-0.200	0.400
2020/01/31 05:56:46.5	90.820	0.000	-0.290	0.360
2020/01/31 05:56:46.6	90.840	0.050	-0.370	0.320
2020/01/31 05:56:46.7	90.860	0.100	-0.450	0.280
2020/01/31 05:56:46.8	90.880	0.140	-0.530	0.250
2020/01/31 05:56:46.9	90.900	0.190	-0.600	0.220
2020/01/31 05:56:47.0	90.930	0.230	-0.670	0.200
2020/01/31 05:56:47.1	90.950	0.270	-0.740	0.180
2020/01/31 05:56:47.2	90.970	0.310	-0.790	0.170
2020/01/31 05:56:47.3	91.000	0.340	-0.840	0.170
2020/01/31 05:56:47.4	91.020	0.370	-0.880	0.170
2020/01/31 05:56:47.5	91.040	0.400	-0.910	0.180
2020/01/31 05:56:47.6	91.060	0.420	-0.930	0.200
2020/01/31 05:56:47.7	91.080	0.440	-0.950	0.220
2020/01/31 05:56:47.8	91.100	0.450	-0.950	0.240
2020/01/31 05:56:47.9	91.110	0.450	-0.950	0.270
2020/01/31 05:56:48.0	91.130	0.450	-0.940	0.310
2020/01/31 05:56:48.1	91.140	0.440	-0.910	0.340
2020/01/31 05:56:48.2	91.160	0.430	-0.880	0.380
2020/01/31 05:56:48.3	91.180	0.410	-0.850	0.430
2020/01/31 05:56:48.4	91.190	0.380	-0.800	0.470
2020/01/31 05:56:48.5	91.210	0.350	-0.750	0.520
2020/01/31 05:56:48.6	91.220	0.320	-0.690	0.570
2020/01/31 05:56:48.7	91.230	0.280	-0.620	0.610
2020/01/31 05:56:48.8	91.240	0.240	-0.550	0.660
2020/01/31 05:56:48.9	91.250	0.190	-0.470	0.700
2020/01/31 05:56:49.0	91.260	0.140	-0.390	0.750
2020/01/31 05:56:49.1	91.270	0.080	-0.310	0.790
2020/01/31 05:56:49.2	91.280	0.030	-0.220	0.840
2020/01/31 05:56:49.3	91.290	-0.030	-0.130	0.880
2020/01/31 05:56:49.4	91.300	-0.090	-0.040	0.920
2020/01/31 05:56:49.5	91.310	-0.150	0.040	0.960
2020/01/31 05:56:49.6	91.320	-0.210	0.130	1.000
2020/01/31 05:56:49.7	91.320	-0.270	0.210	1.030
2020/01/31 05:56:49.8	91.330	-0.330	0.290	1.070
2020/01/31 05:56:49.9	91.330	-0.390	0.370	1.110
2020/01/31 05:56:50.0	91.340	-0.450	0.440	1.140
2020/01/31 05:56:50.1	91.340	-0.500	0.510	1.170
2020/01/31 05:56:50.2	91.350	-0.550	0.570	1.200
2020/01/31 05:56:50.3	91.340	-0.600	0.620	1.240
2020/01/31 05:56:50.4	91.350	-0.650	0.670	1.260
2020/01/31 05:56:50.5	91.350	-0.690	0.710	1.290
2020/01/31 05:56:50.6	91.350	-0.730	0.740	1.320
2020/01/31 05:56:50.7	91.350	-0.760	0.770	1.340
2020/01/31 05:56:50.8	91.350	-0.790	0.780	1.370
2020/01/31 05:56:50.9	91.350	-0.810	0.790	1.390
2020/01/31 05:56:51.0	91.350	-0.830	0.790	1.400
2020/01/31 05:56:51.1	91.350	-0.850	0.780	1.410
2020/01/31 05:56:51.2	91.350	-0.850	0.760	1.420
2020/01/31 05:56:51.3	91.360	-0.860	0.730	1.430
2020/01/31 05:56:51.4	91.360	-0.850	0.680	1.430
2020/01/31 05:56:51.5	91.360	-0.840	0.630	1.420
2020/01/31 05:56:51.6	91.360	-0.830	0.570	1.420
2020/01/31 05:56:51.7	91.360	-0.810	0.500	1.410
2020/01/31 05:56:51.8	91.360	-0.780	0.420	1.390
2020/01/31 05:56:51.9	91.370	-0.740	0.330	1.370
2020/01/31 05:56:52.0	91.370	-0.700	0.240	1.350
2020/01/31 05:56:52.1	91.370	-0.660	0.130	1.320
2020/01/31 05:56:52.2	91.370	-0.610	0.020	1.300
2020/01/31 05:56:52.3	91.380	-0.550	-0.090	1.270
2020/01/31 05:56:52.4	91.380	-0.490	-0.210	1.240
2020/01/31 05:56:52.5	91.380	-0.430	-0.330	1.210
2020/01/31 05:56:52.6	91.380	-0.360	-0.460	1.180
2020/01/31 05:56:52.7	91.380	-0.290	-0.580	1.140
2020/01/31 05:56:52.8	91.380	-0.210	-0.700	1.110
2020/01/31 05:56:52.9	91.380	-0.140	-0.820	1.080
2020/01/31 05:56:53.0	91.380	-0.060	-0.940	1.040
2020/01/31 05:56:53.1	91.380	0.020	-1.050	1.010
2020/01/31 05:56:53.2	91.380	0.100	-1.150	0.980
2020/01/31 05:56:53.3	91.340	0.180	-1.260	0.950
2020/01/31 05:56:53.4	91.340	0.250	-1.350	0.920
2020/01/31 05:56:53.5	91.340	0.330	-1.430	0.890
2020/01/31 05:56:53.6	91.340	0.400	-1.490	0.870
2020/01/31 05:56:53.7	91.340	0.480	-1.550	0.850
2020/01/31 05:56:53.8	91.330	0.540	-1.590	0.830
2020/01/31 05:56:53.9	91.330	0.610	-1.620	0.810
2020/01/31 05:56:54.0	91.330	0.670	-1.630	0.790
2020/01/31 05:56:54.1	91.330	0.720	-1.630	0.780
2020/01/31 05:56:54.2	91.330	0.770	-1.620	0.760
2020/01/31 05:56:54.3	91.340	0.810	-1.580	0.750
2020/01/31 05:56:54.4	91.340	0.840	-1.540	0.730
2020/01/31 05:56:54.5	91.340	0.870	-1.490	0.720
2020/01/31 05:56:54.6	91.350	0.890	-1.420	0.700
2020/01/31 05:56:54.7	91.350	0.910	-1.340	0.690
2020/01/31 05:56:54.8	91.350	0.910	-1.250	0.670
2020/01/31 05:56:54.9	91.360	0.910	-1.150	0.650
2020/01/31 05:56:55.0	91.360	0.910	-1.040	0.640
2020/01/31 05:56:55.1	91.360	0.890	-0.910	0.620
2020/01/31 05:56:55.2	91.360	0.870	-0.790	0.600
2020/01/31 05:56:55.3	91.370	0.840	-0.650	0.580
2020/01/31 05:56:55.4	91.370	0.800	-0.520	0.560
2020/01/31 05:56:55.5	91.370	0.760	-0.370	0.530
2020/01/31 05:56:55.6	91.370	0.710	-0.230	0.510
2020/01/31 05:56:55.7	91.370	0.660	-0.080	0.490
2020/01/31 05:56:55.8	91.370	0.600	0.070	0.460
2020/01/31 05:56:55.9	91.370	0.540	0.210	0.440
2020/01/31 05:56:56.0	91.370	0.480	0.350	0.410
2020/01/31 05:56:56.1	91.360	0.410	0.490	0.390
2020/01/31 05:56:56.2	91.360	0.350	0.610	0.370
2020/01/31 05:56:56.3	91.370	0.280	0.750	0.350
2020/01/31 05:56:56.4	91.360	0.210	0.860	0.330
2020/01/31 05:56:56.5	91.360	0.140	0.960	0.300
2020/01/31 05:56:56.6	91.350	0.070	1.060	0.280
2020/01/31 05:56:56.7	91.350	0.000	1.140	0.260
2020/01/31 05:56:56.8	91.340	-0.060	1.210	0.240
2020/01/31 05:56:56.9	91.340	-0.120	1.270	0.220
2020/01/31 05:56:57.0	91.340	-0.180	1.310	0.200
2020/01/31 05:56:57.1	91.340	-0.240	1.340	0.190
2020/01/31 05:56:57.2	91.340	-0.290	1.360	0.170
2020/01/31 05:56:57.3	91.330	-0.330	1.350	0.150
2020/01/31 05:56:57.4	91.340	-0.370	1.340	0.130
2020/01/31 05:56:57.5	91.350	-0.400	1.300	0.110
2020/01/31 05:56:57.6	91.350	-0.420	1.250	0.090
2020/01/31 05:56:57.7	91.360	-0.440	1.190	0.080
2020/01/31 05:56:57.8	91.370	-0.450	1.100	0.060
2020/01/31 05:56:57.9	91.390	-0.450	1.010	0.040
2020/01/31 05:56:58.0	91.400	-0.450	0.900	0.030
2020/01/31 05:56:58.1	91.420	-0.440	0.770	0.010
2020/01/31 05:56:58.2	91.430	-0.420	0.640	-0.000
2020/01/31 05:56:58.3	91.450	-0.390	0.490	-0.020
2020/01/31 05:56:58.4	91.460	-0.360	0.330	-0.030
2020/01/31 05:56:58.5	91.480	-0.320	0.170	-0.030
2020/01/31 05:56:58.6	91.500	-0.280	0.010	-0.040
2020/01/31 05:56:58.7	91.520	-0.240	-0.160	-0.040
2020/01/31 05:56:58.8	91.530	-0.190	-0.320	-0.040
2020/01/31 05:56:58.9	91.550	-0.130	-0.490	-0.030
2020/01/31 05:56:59.0	91.560	-0.080	-0.650	-0.030
2020/01/31 05:56:59.1	91.580	-0.030	-0.800	-0.010
2020/01/31 05:56:59.2	91.590	0.030	-0.950	0.010
2020/01/31 05:56:59.3	91.620	0.080	-1.090	0.030
2020/01/31 05:56:59.4	91.630	0.130	-1.210	0.060
2020/01/31 05:56:59.5	91.630	0.180	-1.320	0.090
2020/01/31 05:56:59.6	91.640	0.220	-1.420	0.130
2020/01/31 05:56:59.7	91.640	0.270	-1.510	0.180
2020/01/31 05:56:59.8	91.640	0.300	-1.580	0.220
2020/01/31 05:56:59.9	91.640	0.340	-1.630	0.270
2020/01/31 05:57:00.0	91.640	0.360	-1.660	0.330
2020/01/31 05:57:00.1	91.630	0.380	-1.680	0.380
2020/01/31 05:57:00.2	91.630	0.400	-1.690	0.440
2020/01/31 05:57:00.3	91.610	0.410	-1.670	0.500
2020/01/31 05:57:00.4	91.600	0.410	-1.640	0.560
2020/01/31 05:57:00.5	91.590	0.410	-1.600	0.620
2020/01/31 05:57:00.6	91.570	0.400	-1.540	0.690
2020/01/31 05:57:00.7	91.560	0.380	-1.470	0.750
2020/01/31 05:57:00.8	91.550	0.360	-1.380	0.810
2020/01/31 05:57:00.9	91.530	0.330	-1.280	0.880
2020/01/31 05:57:01.0	91.520	0.300	-1.170	0.940
2020/01/31 05:57:01.1	91.500	0.260	-1.060	1.000
2020/01/31 05:57:01.2	91.490	0.220	-0.930	1.060
2020/01/31 05:57:01.3	91.470	0.170	-0.800	1.120
2020/01/31 05:57:01.4	91.450	0.120	-0.660	1.170
2020/01/31 05:57:01.5	91.430	0.070	-0.530	1.220
2020/01/31 05:57:01.6	91.410	0.020	-0.390	1.270
2020/01/31 05:57:01.7	91.400	-0.040	-0.250	1.310
2020/01/31 05:57:01.8	91.380	-0.100	-0.110	1.350
2020/01/31 05:57:01.9	91.360	-0.160	0.020	1.390
2020/01/31 05:57:02.0	91.340	-0.220	0.150	1.420
2020/01/31 05:57:02.1	91.320	-0.280	0.270	1.450
2020/01/31 05:57:02.2	91.310	-0.330	0.390	1.470
2020/01/31 05:57:02.3	91.300	-0.390	0.500	1.490
2020/01/31 05:57:02.4	91.280	-0.440	0.600	1.500
2020/01/31 05:57:02.5	91.270	-0.490	0.690	1.510
2020/01/31 05:57:02.6	91.260	-0.530	0.770	1.510
2020/01/31 05:57:02.7	91.250	-0.580	0.840	1.500
2020/01/31 05:57:02.8	91.240	-0.610	0.900	1.490
2020/01/31 05:57:02.9	91.240	-0.650	0.940	1.480
2020/01/31 05:57:03.0	91.230	-0.670	0.980	1.460
2020/01/31 05:57:03.1	91.230	-0.700	0.990	1.440
2020/01/31 05:57:03.2	91.230	-0.710	1.000	1.410
2020/01/31 05:57:03.3	91.250	-0.720	0.990	1.380
2020/01/31 05:57:03.4	91.250	-0.730	0.970	1.340
2020/01/31 05:57:03.5	91.260	-0.720	0.930	1.300
2020/01/31 05:57:03.6	91.270	-0.710	0.890	1.250
2020/01/31 05:57:03.7	91.280	-0.690	0.830	1.200
2020/01/31 05:57:03.8	91.290	-0.670	0.760	1.150
2020/01/31 05:57:03.9	91.310	-0.640	0.670	1.090
2020/01/31 05:57:04.0	91.320	-0.600	0.580	1.040
2020/01/31 05:57:04.1	91.340	-0.560	0.480	0.980
2020/01/31 05:57:04.2	91.360	-0.510	0.370	0.920
2020/01/31 05:57:04.3	91.380	-0.450	0.260	0.850
2020/01/31 05:57:04.4	91.400	-0.390	0.140	0.790
2020/01/31 05:57:04.5	91.420	-0.330	0.010	0.730
2020/01/31 05:57:04.6	91.450	-0.260	-0.110	0.670
2020/01/31 05:57:04.7	91.470	-0.190	-0.240	0.610
2020/01/31 05:57:04.8	91.480	-0.110	-0.370	0.560
2020/01/31 05:57:04.9	91.500	-0.040	-0.490	0.500
2020/01/31 05:57:05.0	91.520	0.040	-0.620	0.450
2020/01/31 05:57:05.1	91.540	0.120	-0.730	0.410
2020/01/31 05:57:05.2	91.550	0.200	-0.840	0.360
2020/01/31 05:57:05.3	91.560	0.280	-0.950	0.320
2020/01/31 05:57:05.4	91.570	0.360	-1.050	0.290
2020/01/31 05:57:05.5	91.580	0.430	-1.130	0.260
2020/01/31 05:57:05.6	91.590	0.500	-1.200	0.240
2020/01/31 05:57:05.7	91.600	0.560	-1.250	0.220
2020/01/31 05:57:05.8	91.600	0.620	-1.290	0.210
2020/01/31 05:57:05.9	91.610	0.670	-1.320	0.210
2020/01/31 05:57:06.0	91.610	0.720	-1.330	0.210
2020/01/31 05:57:06.1	91.610	0.760	-1.330	0.210
2020/01/31 05:57:06.2	91.610	0.790	-1.310	0.220
2020/01/31 05:57:06.3	91.610	0.810	-1.270	0.230
2020/01/31 05:57:06.4	91.610	0.830	-1.220	0.250
2020/01/31 05:57:06.5	91.610	0.830	-1.160	0.270
2020/01/31 05:57:06.6	91.610	0.830	-1.090	0.300
2020/01/31 05:57:06.7	91.610	0.820	-1.010	0.330
2020/01/31 05:57:06.8	91.610	0.800	-0.920	0.350
2020/01/31 05:57:06.9	91.610	0.780	-0.820	0.380
2020/01/31 05:57:07.0	91.610	0.740	-0.710	0.410
2020/01/31 05:57:07.1	91.610	0.700	-0.600	0.440
2020/01/31 05:57:07.2	91.610	0.650	-0.480	0.470
2020/01/31 05:57:07.3	91.630	0.600	-0.360	0.510
2020/01/31 05:57:07.4	91.630	0.540	-0.230	0.530
2020/01/31 05:57:07.5	91.640	0.470	-0.110	0.560
2020/01/31 05:57:07.6	91.650	0.410	0.010	0.580
2020/01/31 05:57:07.7	91.660	0.330	0.130	0.600
2020/01/31 05:57:07.8	91.670	0.260	0.240	0.620
2020/01/31 05:57:07.9	91.680	0.180	0.350	0.630
2020/01/31 05:57:08.0	91.700	0.110	0.450	0.640
2020/01/31 05:57:08.1	91.720	0.030	0.540	0.650
2020/01/31 05:57:08.2	91.740	-0.050	0.630	0.660
2020/01/31 05:57:08.3	91.760	-0.120	0.710	0.660
2020/01/31 05:57:08.4	91.780	-0.190	0.770	0.660
2020/01/31 05:57:08.5	91.810	-0.260	0.830	0.670
2020/01/31 05:57:08.6	91.830	-0.320	0.870	0.670
2020/01/31 05:57:08.7	91.850	-0.380	0.900	0.670
2020/01/31 05:57:08.8	91.870	-0.440	0.920	0.680
2020/01/31 05:57:08.9	91.880	-0.490	0.930	0.680
2020/01/31 05:57:09.0	91.900	-0.530	0.930	0.690
2020/01/31 05:57:09.1	91.920	-0.570	0.920	0.700
2020/01/31 05:57:09.2	91.930	-0.600	0.900	0.720
2020/01/31 05:57:09.3	91.950	-0.630	0.870	0.740
2020/01/31 05:57:09.4	91.950	-0.650	0.830	0.760
2020/01/31 05:57:09.5	91.950	-0.670	0.780	0.780
2020/01/31 05:57:09.6	91.950	-0.680	0.730	0.800
2020/01/31 05:57:09.7	91.950	-0.680	0.660	0.820
2020/01/31 05:57:09.8	91.950	-0.680	0.600	0.850
2020/01/31 05:57:09.9	91.940	-0.680	0.520	0.870
2020/01/31 05:57:10.0	91.930	-0.670	0.440	0.900
2020/01/31 05:57:10.1	91.920	-0.650	0.360	0.920
2020/01/31 05:57:10.2	91.910	-0.630	0.270	0.950
2020/01/31 05:57:10.3	91.890	-0.610	0.170	0.970
2020/01/31 05:57:10.4	91.880	-0.580	0.080	0.990
2020/01/31 05:57:10.5	91.860	-0.550	-0.010	1.010
2020/01/31 05:57:10.6	91.840	-0.520	-0.110	1.030
2020/01/31 05:57:10.7	91.830	-0.480	-0.210	1.050
2020/01/31 05:57:10.8	91.810	-0.450	-0.310	1.070
2020/01/31 05:57:10.9	91.790	-0.400	-0.400	1.080
2020/01/31 05:57:11.0	91.770	-0.360	-0.500	1.090
2020/01/31 05:57:11.1	91.760	-0.320	-0.600	1.100
2020/01/31 05:57:11.2	91.740	-0.270	-0.700	1.110
2020/01/31 05:57:11.3	91.730	-0.220	-0.790	1.110
2020/01/31 05:57:11.4	91.720	-0.170	-0.880	1.110
2020/01/31 05:57:11.5	91.710	-0.120	-0.970	1.110
2020/01/31 05:57:11.6	91.700	-0.070	-1.050	1.110
2020/01/31 05:57:11.7	91.690	-0.020	-1.130	1.100
2020/01/31 05:57:11.8	91.690	0.040	-1.200	1.090
2020/01/31 05:57:11.9	91.680	0.090	-1.270	1.080
2020/01/31 05:57:12.0	91.680	0.140	-1.340	1.070
2020/01/31 05:57:12.1	91.680	0.200	-1.390	1.050
2020/01/31 05:57:12.2	91.680	0.250	-1.440	1.030
2020/01/31 05:57:12.3	91.680	0.300	-1.480	1.020
2020/01/31 05:57:12.4	91.680	0.350	-1.520	1.000
2020/01/31 05:57:12.5	91.690	0.400	-1.540	0.980
2020/01/31 05:57:12.6	91.690	0.450	-1.560	0.960
2020/01/31 05:57:12.7	91.700	0.500	-1.560	0.940
2020/01/31 05:57:12.8	91.700	0.540	-1.560	0.920
2020/01/31 05:57:12.9	91.710	0.580	-1.550	0.890
2020/01/31 05:57:13.0	91.720	0.620	-1.530	0.870
2020/01/31 05:57:13.1	91.730	0.650	-1.500	0.850
2020/01/31 05:57:13.2	91.740	0.690	-1.450	0.830
2020/01/31 05:57:13.3	91.740	0.720	-1.410	0.810
2020/01/31 05:57:13.4	91.750	0.740	-1.350	0.790
2020/01/31 05:57:13.5	91.760	0.760	-1.280	0.770
2020/01/31 05:57:13.6	91.770	0.780	-1.210	0.750
2020/01/31 05:57:13.7	91.780	0.790	-1.130	0.730
2020/01/31 05:57:13.8	91.790	0.800	-1.040	0.710
2020/01/31 05:57:13.9	91.800	0.800	-0.950	0.690
2020/01/31 05:57:14.0	91.810	0.800	-0.850	0.660
2020/01/31 05:57:14.1	91.820	0.790	-0.750	0.640
2020/01/31 05:57:14.2	91.820	0.780	-0.640	0.620
2020/01/31 05:57:14.3	91.820	0.760	-0.530	0.600
2020/01/31 05:57:14.4	91.830	0.740	-0.410	0.580
2020/01/31 05:57:14.5	91.840	0.720	-0.300	0.550
2020/01/31 05:57:14.6	91.850	0.690	-0.180	0.530
2020/01/31 05:57:14.7	91.850	0.650	-0.070	0.500
2020/01/31 05:57:14.8	91.860	0.620	0.050	0.480
2020/01/31 05:57:14.9	91.870	0.570	0.170	0.450
2020/01/31 05:57:15.0	91.870	0.530	0.280	0.430
2020/01/31 05:57:15.1	91.880	0.480	0.390	0.410
2020/01/31 05:57:15.2	91.880	0.430	0.500	0.390
2020/01/31 05:57:15.3	91.890	0.370	0.610	0.370
2020/01/31 05:57:15.4	91.900	0.320	0.720	0.350
2020/01/31 05:57:15.5	91.900	0.260	0.810	0.340
2020/01/31 05:57:15.6	91.910	0.200	0.910	0.330
2020/01/31 05:57:15.7	91.920	0.140	0.990	0.320
2020/01/31 05:57:15.8	91.920	0.080	1.070	0.320
2020/01/31 05:57:15.9	91.930	0.020	1.140	0.310
2020/01/31 05:57:16.0	91.940	-0.040	1.210	0.310
2020/01/31 05:57:16.1	91.950	-0.100	1.260	0.320
2020/01/31 05:57:16.2	91.960	-0.160	1.310	0.320
2020/01/31 05:57:16.3	91.980	-0.220	1.340	0.330
2020/01/31 05:57:16.4	91.990	-0.270	1.370	0.330
2020/01/31 05:57:16.5	92.010	-0.320	1.390	0.340
2020/01/31 05:57:16.6	92.020	-0.370	1.390	0.360
2020/01/31 05:57:16.7	92.040	-0.420	1.380	0.370
2020/01/31 05:57:16.8	92.050	-0.460	1.360	0.380
2020/01/31 05:57:16.9	92.070	-0.500	1.330	0.400
2020/01/31 05:57:17.0	92.090	-0.530	1.290	0.410
2020/01/31 05:57:17.1	92.110	-0.560	1.230	0.430
2020/01/31 05:57:17.2	92.130	-0.580	1.160	0.440
2020/01/31 05:57:17.3	92.130	-0.590	1.080	0.450
2020/01/31 05:57:17.4	92.150	-0.600	0.990	0.470
2020/01/31 05:57:17.5	92.170	-0.610	0.890	0.480
2020/01/31 05:57:17.6	92.190	-0.610	0.780	0.490
2020/01/31 05:57:17.7	92.210	-0.600	0.660	0.500
2020/01/31 05:57:17.8	92.240	-0.590	0.530	0.510
2020/01/31 05:57:17.9	92.260	-0.570	0.390	0.520
2020/01/31 05:57:18.0	92.280	-0.550	0.250	0.530
2020/01/31 05:57:18.1	92.300	-0.530	0.110	0.540
2020/01/31 05:57:18.2	92.320	-0.500	-0.040	0.550
2020/01/31 05:57:18.3	92.320	-0.470	-0.190	0.550
2020/01/31 05:57:18.4	92.340	-0.430	-0.340	0.560
2020/01/31 05:57:18.5	92.350	-0.390	-0.480	0.570
2020/01/31 05:57:18.6	92.370	-0.350	-0.620	0.590
2020/01/31 05:57:18.7	92.380	-0.310	-0.760	0.610
2020/01/31 05:57:18.8	92.390	-0.260	-0.890	0.620
2020/01/31 05:57:18.9	92.400	-0.220	-1.010	0.640
2020/01/31 05:57:19.0	92.410	-0.170	-1.130	0.670
2020/01/31 05:57:19.1	92.410	-0.130	-1.230	0.690
2020/01/31 05:57:19.2	92.420	-0.090	-1.330	0.720
2020/01/31 05:57:19.3	92.420	-0.040	-1.410	0.750
2020/01/31 05:57:19.4	92.420	-0.010	-1.480	0.790
2020/01/31 05:57:19.5	92.410	0.030	-1.540	0.820
2020/01/31 05:57:19.6	92.400	0.060	-1.580	0.860
2020/01/31 05:57:19.7	92.400	0.090	-1.600	0.900
2020/01/31 05:57:19.8	92.380	0.120	-1.610	0.940
2020/01/31 05:57:19.9	92.370	0.140	-1.610	0.990
2020/01/31 05:57:20.0	92.360	0.160	-1.590	1.030
2020/01/31 05:57:20.1	92.340	0.170	-1.560	1.080
2020/01/31 05:57:20.2	92.320	0.180	-1.520	1.130
2020/01/31 05:57:20.3	92.290	0.180	-1.470	1.180
2020/01/31 05:57:20.4	92.270	0.180	-1.400	1.220
2020/01/31 05:57:20.5	92.250	0.180	-1.330	1.270
2020/01/31 05:57:20.6	92.220	0.170	-1.240	1.310
2020/01/31 05:57:20.7	92.200	0.160	-1.150	1.360
2020/01/31 05:57:20.8	92.170	0.140	-1.050	1.400
2020/01/31 05:57:20.9	92.150	0.120	-0.940	1.430
2020/01/31 05:57:21.0	92.120	0.100	-0.830	1.470
2020/01/31 05:57:21.1	92.090	0.070	-0.720	1.500
2020/01/31 05:57:21.2	92.070	0.050	-0.600	1.520
2020/01/31 05:57:21.3	92.030	0.020	-0.480	1.540
2020/01/31 05:57:21.4	92.010	-0.010	-0.370	1.550
2020/01/31 05:57:21.5	91.980	-0.040	-0.260	1.560
2020/01/31 05:57:21.6	91.960	-0.070	-0.150	1.570
2020/01/31 05:57:21.7	91.940	-0.110	-0.050	1.560
2020/01/31 05:57:21.8	91.920	-0.130	0.040	1.550
2020/01/31 05:57:21.9	91.910	-0.160	0.130	1.540
2020/01/31 05:57:22.0	91.900	-0.190	0.200	1.520
2020/01/31 05:57:22.1	91.890	-0.210	0.270	1.490
2020/01/31 05:57:22.2	91.880	-0.230	0.330	1.450
2020/01/31 05:57:22.3	91.880	-0.250	0.380	1.420
2020/01/31 05:57:22.4	91.870	-0.260	0.420	1.380
2020/01/31 05:57:22.5	91.870	-0.270	0.440	1.330
2020/01/31 05:57:22.6	91.870	-0.280	0.460	1.280
2020/01/31 05:57:22.7	91.880	-0.280	0.460	1.230
2020/01/31 05:57:22.8	91.880	-0.270	0.460	1.180
2020/01/31 05:57:22.9	91.880	-0.260	0.440	1.130
2020/01/31 05:57:23.0	91.890	-0.250	0.420	1.070
2020/01/31 05:57:23.1	91.900	-0.240	0.390	1.020
2020/01/31 05:57:23.2	91.900	-0.210	0.340	0.960
2020/01/31 05:57:23.3	91.920	-0.190	0.290	0.900
2020/01/31 05:57:23.4	91.930	-0.160	0.240	0.850
2020/01/31 05:57:23.5	91.940	-0.130	0.180	0.800
2020/01/31 05:57:23.6	91.950	-0.090	0.110	0.740
2020/01/31 05:57:23.7	91.960	-0.050	0.040	0.690
2020/01/31 05:57:23.8	91.970	-0.010	-0.030	0.640
2020/01/31 05:57:23.9	91.980	0.030	-0.100	0.590
2020/01/31 05:57:24.0	91.990	0.070	-0.180	0.530
2020/01/31 05:57:24.1	92.000	0.120	-0.250	0.480
2020/01/31 05:57:24.2	92.010	0.170	-0.330	0.440
2020/01/31 05:57:24.3	92.030	0.210	-0.400	0.380
2020/01/31 05:57:24.4	92.040	0.260	-0.470	0.340
2020/01/31 05:57:24.5	92.060	0.300	-0.530	0.290
2020/01/31 05:57:24.6	92.070	0.350	-0.590	0.250
2020/01/31 05:57:24.7	92.080	0.390	-0.640	0.210
2020/01/31 05:57:24.8	92.100	0.430	-0.690	0.170
2020/01/31 05:57:24.9	92.110	0.470	-0.730	0.140
2020/01/31 05:57:25.0	92.120	0.500	-0.760	0.120
2020/01/31 05:57:25.1	92.130	0.540	-0.790	0.090
2020/01/31 05:57:25.2	92.140	0.570	-0.810	0.070
2020/01/31 05:57:25.3	92.170	0.590	-0.820	0.060
2020/01/31 05:57:25.4	92.180	0.610	-0.830	0.050
2020/01/31 05:57:25.5	92.180	0.630	-0.820	0.040
2020/01/31 05:57:25.6	92.190	0.640	-0.810	0.040
2020/01/31 05:57:25.7	92.200	0.650	-0.800	0.050
2020/01/31 05:57:25.8	92.200	0.660	-0.770	0.060
2020/01/31 05:57:25.9	92.200	0.660	-0.740	0.070
2020/01/31 05:57:26.0	92.200	0.650	-0.710	0.090
2020/01/31 05:57:26.1	92.200	0.640	-0.660	0.110
2020/01/31 05:57:26.2	92.200	0.630	-0.620	0.130
2020/01/31 05:57:26.3	92.200	0.610	-0.560	0.160
2020/01/31 05:57:26.4	92.200	0.590	-0.510	0.190
2020/01/31 05:57:26.5	92.200	0.570	-0.450	0.220
2020/01/31 05:57:26.6	92.200	0.540	-0.390	0.250
2020/01/31 05:57:26.7	92.190	0.510	-0.320	0.280
2020/01/31 05:57:26.8	92.190	0.480	-0.260	0.310
2020/01/31 05:57:26.9	92.190	0.440	-0.190	0.340
2020/01/31 05:57:27.0	92.190	0.400	-0.120	0.370
2020/01/31 05:57:27.1	92.180	0.360	-0.060	0.390
2020/01/31 05:57:27.2	92.180	0.320	0.010	0.420
2020/01/31 05:57:27.3	92.170	0.280	0.070	0.440
2020/01/31 05:57:27.4	92.170	0.240	0.140	0.470
2020/01/31 05:57:27.5	92.170	0.190	0.200	0.490
2020/01/31 05:57:27.6	92.170	0.150	0.260	0.520
2020/01/31 05:57:27.7	92.170	0.100	0.310	0.540
2020/01/31 05:57:27.8	92.170	0.060	0.360	0.570
2020/01/31 05:57:27.9	92.170	0.010	0.410	0.590
2020/01/31 05:57:28.0	92.160	-0.030	0.450	0.610
2020/01/31 05:57:28.1	92.160	-0.070	0.490	0.630
2020/01/31 05:57:28.2	92.150	-0.110	0.530	0.650
2020/01/31 05:57:28.3	92.160	-0.150	0.560	0.680
2020/01/31 05:57:28.4	92.160	-0.190	0.580	0.700
2020/01/31 05:57:28.5	92.150	-0.220	0.590	0.720
2020/01/31 05:57:28.6	92.150	-0.250	0.600	0.730
2020/01/31 05:57:28.7	92.140	-0.280	0.610	0.750
2020/01/31 05:57:28.8	92.140	-0.310	0.610	0.770
2020/01/31 05:57:28.9	92.130	-0.340	0.600	0.790
2020/01/31 05:57:29.0	92.130	-0.360	0.590	0.810
2020/01/31 05:57:29.1	92.130	-0.380	0.580	0.820
2020/01/31 05:57:29.2	92.120	-0.400	0.560	0.840
2020/01/31 05:57:29.3	92.120	-0.410	0.530	0.850
2020/01/31 05:57:29.4	92.120	-0.430	0.500	0.860
2020/01/31 05:57:29.5	92.120	-0.440	0.470	0.870
2020/01/31 05:57:29.6	92.120	-0.440	0.430	0.880
2020/01/31 05:57:29.7	92.120	-0.450	0.380	0.900
2020/01/31 05:57:29.8	92.120	-0.450	0.340	0.900
2020/01/31 05:57:29.9	92.130	-0.450	0.290	0.910
2020/01/31 05:57:30.0	92.130	-0.440	0.230	0.920
2020/01/31 05:57:30.1	92.140	-0.440	0.180	0.930
2020/01/31 05:57:30.2	92.150	-0.430	0.120	0.930
2020/01/31 05:57:30.3	92.150	-0.410	0.050	0.940
2020/01/31 05:57:30.4	92.160	-0.400	-0.010	0.950
2020/01/31 05:57:30.5	92.170	-0.380	-0.080	0.950
2020/01/31 05:57:30.6	92.180	-0.360	-0.150	0.950
2020/01/31 05:57:30.7	92.190	-0.330	-0.220	0.950
2020/01/31 05:57:30.8	92.210	-0.300	-0.290	0.940
2020/01/31 05:57:30.9	92.220	-0.280	-0.360	0.940
2020/01/31 05:57:31.0	92.230	-0.240	-0.430	0.930
2020/01/31 05:57:31.1	92.250	-0.210	-0.500	0.920
2020/01/31 05:57:31.2	92.260	-0.180	-0.570	0.910
2020/01/31 05:57:31.3	92.260	-0.140	-0.640	0.890
2020/01/31 05:57:31.4	92.280	-0.110	-0.700	0.870
2020/01/31 05:57:31.5	92.290	-0.070	-0.760	0.850
2020/01/31 05:57:31.6	92.310	-0.040	-0.820	0.820
2020/01/31 05:57:31.7	92.320	0.000	-0.870	0.800
2020/01/31 05:57:31.8	92.330	0.040	-0.920	0.780
2020/01/31 05:57:31.9	92.350	0.070	-0.960	0.750
2020/01/31 05:57:32.0	92.360	0.100	-1.000	0.730
2020/01/31 05:57:32.1	92.370	0.130	-1.030	0.710
2020/01/31 05:57:32.2	92.380	0.160	-1.050	0.690
2020/01/31 05:57:32.3	92.390	0.190	-1.070	0.680
2020/01/31 05:57:32.4	92.400	0.210	-1.080	0.670
2020/01/31 05:57:32.5	92.410	0.230	-1.080	0.660
2020/01/31 05:57:32.6	92.410	0.250	-1.070	0.660
2020/01/31 05:57:32.7	92.420	0.270	-1.060	0.660
2020/01/31 05:57:32.8	92.420	0.280	-1.040	0.670
2020/01/31 05:57:32.9	92.430	0.290	-1.020	0.680
2020/01/31 05:57:33.0	92.430	0.300	-0.980	0.700
2020/01/31 05:57:33.1	92.430	0.300	-0.940	0.720
2020/01/31 05:57:33.2	92.440	0.300	-0.900	0.750
2020/01/31 05:57:33.3	92.440	0.290	-0.850	0.780
2020/01/31 05:57:33.4	92.440	0.290	-0.790	0.810
2020/01/31 05:57:33.5	92.440	0.280	-0.740	0.850
2020/01/31 05:57:33.6	92.440	0.260	-0.680	0.880
2020/01/31 05:57:33.7	92.450	0.250	-0.610	0.920
2020/01/31 05:57:33.8	92.450	0.230	-0.550	0.950
2020/01/31 05:57:33.9	92.460	0.210	-0.480	0.980
2020/01/31 05:57:34.0	92.460	0.190	-0.410	1.010
2020/01/31 05:57:34.1	92.470	0.160	-0.340	1.040
2020/01/31 05:57:34.2	92.480	0.140	-0.280	1.060
2020/01/31 05:57:34.3	92.490	0.110	-0.210	1.080
2020/01/31 05:57:34.4	92.500	0.080	-0.140	1.090
2020/01/31 05:57:34.5	92.500	0.050	-0.080	1.100
2020/01/31 05:57:34.6	92.510	0.030	-0.020	1.100
2020/01/31 05:57:34.7	92.520	-0.000	0.030	1.100
2020/01/31 05:57:34.8	92.520	-0.030	0.090	1.090
2020/01/31 05:57:34.9	92.530	-0.060	0.140	1.080
2020/01/31 05:57:35.0	92.540	-0.090	0.180	1.070
2020/01/31 05:57:35.1	92.540	-0.110	0.220	1.050
2020/01/31 05:57:35.2	92.540	-0.140	0.250	1.020
2020/01/31 05:57:35.3	92.560	-0.160	0.280	0.990
2020/01/31 05:57:35.4	92.560	-0.190	0.310	0.960
2020/01/31 05:57:35.5	92.560	-0.210	0.330	0.940
2020/01/31 05:57:35.6	92.560	-0.230	0.340	0.910
2020/01/31 05:57:35.7	92.550	-0.250	0.350	0.890
2020/01/31 05:57:35.8	92.550	-0.260	0.360	0.860
2020/01/31 05:57:35.9	92.540	-0.280	0.360	0.840
2020/01/31 05:57:36.0	92.530	-0.290	0.360	0.820
2020/01/31 05:57:36.1	92.520	-0.300	0.360	0.800
2020/01/31 05:57:36.2	92.510	-0.300	0.350	0.780
2020/01/31 05:57:36.3	92.490	-0.310	0.340	0.770
2020/01/31 05:57:36.4	92.480	-0.310	0.330	0.760
2020/01/31 05:57:36.5	92.470	-0.320	0.310	0.750
2020/01/31 05:57:36.6	92.450	-0.310	0.280	0.750
2020/01/31 05:57:36.7	92.440	-0.310	0.260	0.740
2020/01/31 05:57:36.8	92.420	-0.310	0.230	0.740
2020/01/31 05:57:36.9	92.410	-0.300	0.190	0.730
2020/01/31 05:57:37.0	92.400	-0.290	0.150	0.730
2020/01/31 05:57:37.1	92.390	-0.280	0.110	0.730
2020/01/31 05:57:37.2	92.380	-0.260	0.070	0.730
2020/01/31 05:57:37.3	92.360	-0.250	0.020	0.720
2020/01/31 05:57:37.4	92.350	-0.230	-0.030	0.720
2020/01/31 05:57:37.5	92.350	-0.210	-0.090	0.710
2020/01/31 05:57:37.6	92.340	-0.190	-0.140	0.700
2020/01/31 05:57:37.7	92.340	-0.170	-0.200	0.690
2020/01/31 05:57:37.8	92.340	-0.140	-0.260	0.680
2020/01/31 05:57:37.9	92.350	-0.120	-0.320	0.670
2020/01/31 05:57:38.0	92.350	-0.090	-0.370	0.660
2020/01/31 05:57:38.1	92.360	-0.070	-0.430	0.640
2020/01/31 05:57:38.2	92.360	-0.040	-0.480	0.630
2020/01/31 05:57:38.3	92.370	-0.020	-0.540	0.610
2020/01/31 05:57:38.4	92.380	0.010	-0.590	0.590
2020/01/31 05:57:38.5	92.390	0.030	-0.630	0.580
2020/01/31 05:57:38.6	92.400	0.050	-0.670	0.560
2020/01/31 05:57:38.7	92.410	0.080	-0.710	0.550
2020/01/31 05:57:38.8	92.420	0.100	-0.740	0.530
2020/01/31 05:57:38.9	92.430	0.120	-0.760	0.510
2020/01/31 05:57:39.0	92.440	0.130	-0.780	0.500
2020/01/31 05:57:39.1	92.450	0.150	-0.800	0.490
2020/01/31 05:57:39.2	92.460	0.170	-0.810	0.470
2020/01/31 05:57:39.3	92.470	0.180	-0.810	0.460
2020/01/31 05:57:39.4	92.480	0.190	-0.800	0.450
2020/01/31 05:57:39.5	92.490	0.200	-0.800	0.440
2020/01/31 05:57:39.6	92.500	0.210	-0.780	0.430
2020/01/31 05:57:39.7	92.500	0.210	-0.770	0.430
2020/01/31 05:57:39.8	92.510	0.220	-0.740	0.420
2020/01/31 05:57:39.9	92.520	0.220	-0.720	0.420
2020/01/31 05:57:40.0	92.520	0.230	-0.690	0.420
2020/01/31 05:57:40.1	92.530	0.230	-0.650	0.420
2020/01/31 05:57:40.2	92.530	0.230	-0.610	0.430
2020/01/31 05:57:40.3	92.530	0.230	-0.570	0.430
2020/01/31 05:57:40.4	92.530	0.220	-0.530	0.440
2020/01/31 05:57:40.5	92.530	0.220	-0.480	0.450
2020/01/31 05:57:40.6	92.520	0.210	-0.430	0.470
2020/01/31 05:57:40.7	92.520	0.210	-0.370	0.480
2020/01/31 05:57:40.8	92.510	0.200	-0.320	0.500
2020/01/31 05:57:40.9	92.510	0.200	-0.260	0.520
2020/01/31 05:57:41.0	92.500	0.190	-0.200	0.550
2020/01/31 05:57:41.1	92.490	0.180	-0.140	0.570
2020/01/31 05:57:41.2	92.490	0.170	-0.090	0.600
2020/01/31 05:57:41.3	92.490	0.160	-0.030	0.620
2020/01/31 05:57:41.4	92.480	0.160	0.030	0.650
2020/01/31 05:57:41.5	92.480	0.150	0.080	0.670
2020/01/31 05:57:41.6	92.470	0.140	0.140	0.700
2020/01/31 05:57:41.7	92.460	0.130	0.190	0.730
2020/01/31 05:57:41.8	92.460	0.120	0.230	0.750
2020/01/31 05:57:41.9	92.450	0.110	0.280	0.770
2020/01/31 05:57:42.0	92.450	0.100	0.320	0.800
2020/01/31 05:57:42.1	92.440	0.090	0.350	0.820
2020/01/31 05:57:42.2	92.440	0.080	0.380	0.840
2020/01/31 05:57:42.3	92.410	0.080	0.410	0.860
2020/01/31 05:57:42.4	92.410	0.070	0.430	0.870
2020/01/31 05:57:42.5	92.410	0.060	0.440	0.890
2020/01/31 05:57:42.6	92.400	0.050	0.450	0.900
2020/01/31 05:57:42.7	92.400	0.040	0.460	0.910
2020/01/31 05:57:42.8	92.400	0.030	0.450	0.920
2020/01/31 05:57:42.9	92.400	0.030	0.440	0.930
2020/01/31 05:57:43.0	92.400	0.020	0.420	0.930
2020/01/31 05:57:43.1	92.400	0.020	0.400	0.940
2020/01/31 05:57:43.2	92.400	0.010	0.360	0.940
2020/01/31 05:57:43.3	92.400	0.010	0.330	0.930
2020/01/31 05:57:43.4	92.400	0.010	0.280	0.930
2020/01/31 05:57:43.5	92.410	0.010	0.230	0.920
2020/01/31 05:57:43.6	92.420	0.010	0.170	0.910
2020/01/31 05:57:43.7	92.430	0.010	0.110	0.890
2020/01/31 05:57:43.8	92.450	0.020	0.040	0.880
2020/01/31 05:57:43.9	92.460	0.020	-0.030	0.860
2020/01/31 05:57:44.0	92.480	0.030	-0.100	0.840
2020/01/31 05:57:44.1	92.500	0.030	-0.170	0.830
2020/01/31 05:57:44.2	92.520	0.040	-0.250	0.810
2020/01/31 05:57:44.3	92.550	0.050	-0.320	0.790
2020/01/31 05:57:44.4	92.580	0.060	-0.390	0.770
2020/01/31 05:57:44.5	92.600	0.070	-0.460	0.750
2020/01/31 05:57:44.6	92.630	0.080	-0.520	0.740
2020/01/31 05:57:44.7	92.660	0.090	-0.580	0.720
2020/01/31 05:57:44.8	92.680	0.100	-0.640	0.710
2020/01/31 05:57:44.9	92.710	0.100	-0.690	0.700
2020/01/31 05:57:45.0	92.740	0.110	-0.730	0.700
2020/01/31 05:57:45.1	92.760	0.120	-0.760	0.700
2020/01/31 05:57:45.2	92.780	0.130	-0.790	0.700
2020/01/31 05:57:45.3	92.790	0.130	-0.820	0.700
2020/01/31 05:57:45.4	92.800	0.130	-0.830	0.710
2020/01/31 05:57:45.5	92.820	0.140	-0.840	0.720
2020/01/31 05:57:45.6	92.830	0.140	-0.830	0.730
2020/01/31 05:57:45.7	92.840	0.140	-0.830	0.750
2020/01/31 05:57:45.8	92.850	0.130	-0.810	0.770
2020/01/31 05:57:45.9	92.850	0.130	-0.790	0.790
2020/01/31 05:57:46.0	92.850	0.120	-0.770	0.810
2020/01/31 05:57:46.1	92.850	0.110	-0.740	0.830
2020/01/31 05:57:46.2	92.850	0.100	-0.700	0.850
2020/01/31 05:57:46.3	92.850	0.090	-0.660	0.870
2020/01/31 05:57:46.4	92.840	0.080	-0.610	0.900
2020/01/31 05:57:46.5	92.830	0.060	-0.570	0.920
2020/01/31 05:57:46.6	92.810	0.050	-0.520	0.940
2020/01/31 05:57:46.7	92.800	0.030	-0.460	0.960
2020/01/31 05:57:46.8	92.780	0.010	-0.410	0.980
2020/01/31 05:57:46.9	92.760	-0.010	-0.360	1.000
2020/01/31 05:57:47.0	92.740	-0.040	-0.300	1.020
2020/01/31 05:57:47.1	92.720	-0.060	-0.250	1.040
2020/01/31 05:57:47.2	92.700	-0.090	-0.190	1.060
2020/01/31 05:57:47.3	92.670	-0.110	-0.140	1.080
2020/01/31 05:57:47.4	92.650	-0.140	-0.090	1.090
2020/01/31 05:57:47.5	92.630	-0.170	-0.040	1.110
2020/01/31 05:57:47.6	92.610	-0.190	0.010	1.130
2020/01/31 05:57:47.7	92.590	-0.220	0.060	1.140
2020/01/31 05:57:47.8	92.570	-0.250	0.100	1.150
2020/01/31 05:57:47.9	92.550	-0.280	0.140	1.170
2020/01/31 05:57:48.0	92.530	-0.310	0.180	1.180
2020/01/31 05:57:48.1	92.510	-0.340	0.220	1.190
2020/01/31 05:57:48.2	92.490	-0.360	0.250	1.200
2020/01/31 05:57:48.3	92.480	-0.390	0.280	1.200
2020/01/31 05:57:48.4	92.470	-0.410	0.300	1.200
2020/01/31 05:57:48.5	92.450	-0.440	0.320	1.200
2020/01/31 05:57:48.6	92.440	-0.460	0.340	1.190
2020/01/31 05:57:48.7	92.430	-0.480	0.350	1.180
2020/01/31 05:57:48.8	92.420	-0.500	0.360	1.170
2020/01/31 05:57:48.9	92.410	-0.520	0.360	1.150
2020/01/31 05:57:49.0	92.410	-0.530	0.350	1.130
2020/01/31 05:57:49.1	92.410	-0.540	0.350	1.100
2020/01/31 05:57:49.2	92.400	-0.540	0.330	1.070
2020/01/31 05:57:49.3	92.400	-0.550	0.310	1.030
2020/01/31 05:57:49.4	92.410	-0.550	0.290	0.990
2020/01/31 05:57:49.5	92.410	-0.540	0.250	0.950
2020/01/31 05:57:49.6	92.420	-0.530	0.210	0.910
2020/01/31 05:57:49.7	92.420	-0.520	0.170	0.870
2020/01/31 05:57:49.8	92.430	-0.500	0.120	0.820
2020/01/31 05:57:49.9	92.440	-0.480	0.060	0.770
2020/01/31 05:57:50.0	92.450	-0.450	-0.000	0.720
2020/01/31 05:57:50.1	92.460	-0.420	-0.070	0.680
2020/01/31 05:57:50.2	92.470	-0.380	-0.140	0.630
2020/01/31 05:57:50.3	92.490	-0.340	-0.210	0.580
2020/01/31 05:57:50.4	92.500	-0.300	-0.290	0.540
2020/01/31 05:57:50.5	92.510	-0.250	-0.370	0.500
2020/01/31 05:57:50.6	92.520	-0.200	-0.450	0.460
2020/01/31 05:57:50.7	92.530	-0.140	-0.530	0.420
2020/01/31 05:57:50.8	92.540	-0.090	-0.610	0.390
2020/01/31 05:57:50.9	92.550	-0.030	-0.690	0.360
2020/01/31 05:57:51.0	92.550	0.030	-0.770	0.330
2020/01/31 05:57:51.1	92.560	0.100	-0.850	0.310
2020/01/31 05:57:51.2	92.560	0.160	-0.920	0.290
2020/01/31 05:57:51.3	92.570	0.220	-0.990	0.280
2020/01/31 05:57:51.4	92.570	0.280	-1.050	0.260
2020/01/31 05:57:51.5	92.560	0.340	-1.110	0.250
2020/01/31 05:57:51.6	92.560	0.400	-1.170	0.250
2020/01/31 05:57:51.7	92.550	0.450	-1.210	0.240
2020/01/31 05:57:51.8	92.550	0.500	-1.250	0.240
2020/01/31 05:57:51.9	92.540	0.550	-1.280	0.250
2020/01/31 05:57:52.0	92.530	0.590	-1.300	0.250
2020/01/31 05:57:52.1	92.520	0.630	-1.300	0.260
2020/01/31 05:57:52.2	92.500	0.660	-1.300	0.260
2020/01/31 05:57:52.3	92.490	0.680	-1.290	0.280
2020/01/31 05:57:52.4	92.480	0.700	-1.260	0.300
2020/01/31 05:57:52.5	92.460	0.710	-1.220	0.320
2020/01/31 05:57:52.6	92.450	0.710	-1.180	0.340
2020/01/31 05:57:52.7	92.440	0.700	-1.110	0.370
2020/01/31 05:57:52.8	92.420	0.690	-1.040	0.400
2020/01/31 05:57:52.9	92.410	0.670	-0.960	0.430
2020/01/31 05:57:53.0	92.390	0.640	-0.870	0.460
2020/01/31 05:57:53.1	92.380	0.610	-0.760	0.500
2020/01/31 05:57:53.2	92.370	0.570	-0.650	0.530
2020/01/31 05:57:53.3	92.370	0.520	-0.530	0.580
2020/01/31 05:57:53.4	92.360	0.470	-0.400	0.610
2020/01/31 05:57:53.5	92.350	0.410	-0.270	0.640
2020/01/31 05:57:53.6	92.340	0.350	-0.130	0.670
2020/01/31 05:57:53.7	92.330	0.280	0.010	0.700
2020/01/31 05:57:53.8	92.330	0.210	0.160	0.720
2020/01/31 05:57:53.9	92.320	0.130	0.300	0.750
2020/01/31 05:57:54.0	92.320	0.060	0.440	0.760
2020/01/31 05:57:54.1	92.320	-0.020	0.590	0.780
2020/01/31 05:57:54.2	92.320	-0.100	0.720	0.790
2020/01/31 05:57:54.3	92.320	-0.180	0.860	0.790
2020/01/31 05:57:54.4	92.330	-0.260	0.990	0.790
2020/01/31 05:57:54.5	92.340	-0.340	1.100	0.790
2020/01/31 05:57:54.6	92.350	-0.410	1.210	0.780
2020/01/31 05:57:54.7	92.360	-0.480	1.300	0.770
2020/01/31 05:57:54.8	92.380	-0.550	1.380	0.760
2020/01/31 05:57:54.9	92.400	-0.610	1.450	0.740
2020/01/31 05:57:55.0	92.420	-0.670	1.500	0.720
2020/01/31 05:57:55.1	92.440	-0.720	1.540	0.700
2020/01/31 05:57:55.2	92.460	-0.760	1.560	0.680
2020/01/31 05:57:55.3	92.500	-0.800	1.560	0.650
2020/01/31 05:57:55.4	92.520	-0.830	1.540	0.630
2020/01/31 05:57:55.5	92.540	-0.850	1.500	0.600
2020/01/31 05:57:55.6	92.570	-0.860	1.440	0.580
2020/01/31 05:57:55.7	92.590	-0.860	1.370	0.560
2020/01/31 05:57:55.8	92.610	-0.850	1.270	0.540
2020/01/31 05:57:55.9	92.630	-0.830	1.160	0.520
2020/01/31 05:57:56.0	92.650	-0.800	1.030	0.510
2020/01/31 05:57:56.1	92.670	-0.770	0.890	0.500
2020/01/31 05:57:56.2	92.690	-0.730	0.740	0.500
2020/01/31 05:57:56.3	92.700	-0.680	0.570	0.490
2020/01/31 05:57:56.4	92.710	-0.620	0.400	0.500
2020/01/31 05:57:56.5	92.710	-0.560	0.220	0.510
2020/01/31 05:57:56.6	92.710	-0.490	0.040	0.520
2020/01/31 05:57:56.7	92.710	-0.420	-0.150	0.540
2020/01/31 05:57:56.8	92.700	-0.350	-0.330	0.570
2020/01/31 05:57:56.9	92.690	-0.270	-0.510	0.590
2020/01/31 05:57:57.0	92.680	-0.190	-0.680	0.630
2020/01/31 05:57:57.1	92.650	-0.120	-0.850	0.660
2020/01/31 05:57:57.2	92.630	-0.040	-1.010	0.690
2020/01/31 05:57:57.3	92.610	0.030	-1.160	0.730
2020/01/31 05:57:57.4	92.570	0.110	-1.290	0.770
2020/01/31 05:57:57.5	92.540	0.170	-1.410	0.800
2020/01/31 05:57:57.6	92.500	0.240	-1.520	0.830
2020/01/31 05:57:57.7	92.470	0.300	-1.610	0.870
2020/01/31 05:57:57.8	92.430	0.350	-1.680	0.900
2020/01/31 05:57:57.9	92.390	0.400	-1.740	0.920
2020/01/31 05:57:58.0	92.350	0.440	-1.780	0.950
2020/01/31 05:57:58.1	92.310	0.470	-1.800	0.980
2020/01/31 05:57:58.2	92.270	0.500	-1.800	1.010
2020/01/31 05:57:58.3	92.210	0.520	-1.780	1.030
2020/01/31 05:57:58.4	92.170	0.530	-1.750	1.050
2020/01/31 05:57:58.5	92.130	0.530	-1.700	1.080
2020/01/31 05:57:58.6	92.090	0.530	-1.640	1.100
2020/01/31 05:57:58.7	92.050	0.520	-1.560	1.120
2020/01/31 05:57:58.8	92.010	0.510	-1.470	1.150
2020/01/31 05:57:58.9	91.970	0.480	-1.370	1.170
2020/01/31 05:57:59.0	91.940	0.460	-1.260	1.190
2020/01/31 05:57:59.1	91.900	0.420	-1.140	1.210
2020/01/31 05:57:59.2	91.870	0.390	-1.010	1.220
2020/01/31 05:57:59.3	91.820	0.350	-0.880	1.240
2020/01/31 05:57:59.4	91.790	0.300	-0.740	1.250
2020/01/31 05:57:59.5	91.770	0.260	-0.600	1.260
2020/01/31 05:57:59.6	91.740	0.210	-0.460	1.260
2020/01/31 05:57:59.7	91.720	0.160	-0.320	1.270
2020/01/31 05:57:59.8	91.700	0.110	-0.190	1.270
2020/01/31 05:57:59.9	91.690	0.060	-0.050	1.260
2020/01/31 05:58:00.0	91.680	0.010	0.070	1.250
2020/01/31 05:58:00.1	91.670	-0.030	0.190	1.240
2020/01/31 05:58:00.2	91.660	-0.080	0.300	1.230
2020/01/31 05:58:00.3	91.650	-0.120	0.400	1.210
2020/01/31 05:58:00.4	91.650	-0.160	0.490	1.180
2020/01/31 05:58:00.5	91.650	-0.190	0.570	1.150
2020/01/31 05:58:00.6	91.660	-0.220	0.640	1.120
2020/01/31 05:58:00.7	91.660	-0.250	0.690	1.080
2020/01/31 05:58:00.8	91.670	-0.270	0.730	1.040
2020/01/31 05:58:00.9	91.680	-0.280	0.750	1.000
2020/01/31 05:58:01.0	91.700	-0.290	0.760	0.950
2020/01/31 05:58:01.1	91.710	-0.300	0.760	0.900
2020/01/31 05:58:01.2	91.730	-0.300	0.750	0.850
2020/01/31 05:58:01.3	91.760	-0.290	0.720	0.800
2020/01/31 05:58:01.4	91.780	-0.280	0.680	0.740
2020/01/31 05:58:01.5	91.800	-0.260	0.630	0.690
2020/01/31 05:58:01.6	91.820	-0.240	0.570	0.630
2020/01/31 05:58:01.7	91.840	-0.220	0.500	0.580
2020/01/31 05:58:01.8	91.860	-0.190	0.430	0.520
2020/01/31 05:58:01.9	91.880	-0.150	0.340	0.470
2020/01/31 05:58:02.0	91.900	-0.120	0.260	0.420
2020/01/31 05:58:02.1	91.920	-0.080	0.160	0.370
2020/01/31 05:58:02.2	91.940	-0.040	0.070	0.330
2020/01/31 05:58:02.3	91.970	0.000	-0.030	0.290
2020/01/31 05:58:02.4	91.980	0.040	-0.130	0.250
2020/01/31 05:58:02.5	92.000	0.090	-0.220	0.220
2020/01/31 05:58:02.6	92.010	0.130	-0.320	0.200
2020/01/31 05:58:02.7	92.030	0.170	-0.400	0.180
2020/01/31 05:58:02.8	92.040	0.210	-0.490	0.160
2020/01/31 05:58:02.9	92.050	0.250	-0.570	0.150
2020/01/31 05:58:03.0	92.060	0.290	-0.640	0.150
2020/01/31 05:58:03.1	92.070	0.320	-0.700	0.150
2020/01/31 05:58:03.2	92.070	0.350	-0.760	0.160
2020/01/31 05:58:03.3	92.080	0.380	-0.810	0.180
2020/01/31 05:58:03.4	92.080	0.410	-0.840	0.200
2020/01/31 05:58:03.5	92.080	0.430	-0.870	0.220
2020/01/31 05:58:03.6	92.070	0.450	-0.890	0.260
2020/01/31 05:58:03.7	92.060	0.460	-0.900	0.290
2020/01/31 05:58:03.8	92.050	0.470	-0.890	0.340
2020/01/31 05:58:03.9	92.040	0.470	-0.880	0.380
2020/01/31 05:58:04.0	92.020	0.480	-0.860	0.430
2020/01/31 05:58:04.1	92.000	0.470	-0.830	0.490
2020/01/31 05:58:04.2	91.980	0.460	-0.800	0.540
2020/01/31 05:58:04.3	91.960	0.450	-0.750	0.600
2020/01/31 05:58:04.4	91.930	0.430	-0.700	0.650
2020/01/31 05:58:04.5	91.910	0.410	-0.640	0.710
2020/01/31 05:58:04.6	91.880	0.390	-0.580	0.770
2020/01/31 05:58:04.7	91.850	0.360	-0.510	0.820
2020/01/31 05:58:04.8	91.810	0.330	-0.440	0.880
2020/01/31 05:58:04.9	91.780	0.290	-0.360	0.930
2020/01/31 05:58:05.0	91.750	0.250	-0.280	0.980
2020/01/31 05:58:05.1	91.710	0.210	-0.210	1.020
2020/01/31 05:58:05.2	91.680	0.170	-0.130	1.070
2020/01/31 05:58:05.3	91.660	0.120	-0.050	1.110
2020/01/31 05:58:05.4	91.620	0.070	0.030	1.150
2020/01/31 05:58:05.5	91.590	0.020	0.100	1.180
2020/01/31 05:58:05.6	91.550	-0.020	0.170	1.210
2020/01/31 05:58:05.7	91.520	-0.070	0.230	1.230
2020/01/31 05:58:05.8	91.490	-0.120	0.290	1.250
2020/01/31 05:58:05.9	91.460	-0.170	0.350	1.270
2020/01/31 05:58:06.0	91.430	-0.220	0.400	1.280
2020/01/31 05:58:06.1	91.400	-0.270	0.440	1.290
2020/01/31 05:58:06.2	91.380	-0.310	0.470	1.290
2020/01/31 05:58:06.3	91.360	-0.360	0.500	1.290
2020/01/31 05:58:06.4	91.340	-0.400	0.520	1.290
2020/01/31 05:58:06.5	91.320	-0.430	0.530	1.280
2020/01/31 05:58:06.6	91.300	-0.470	0.540	1.280
2020/01/31 05:58:06.7	91.290	-0.500	0.530	1.270
2020/01/31 05:58:06.8	91.280	-0.520	0.520	1.250
2020/01/31 05:58:06.9	91.270	-0.540	0.500	1.240
2020/01/31 05:58:07.0	91.260	-0.560	0.470	1.220
2020/01/31 05:58:07.1	91.260	-0.570	0.440	1.200
2020/01/31 05:58:07.2	91.250	-0.570	0.400	1.180
2020/01/31 05:58:07.3	91.250	-0.570	0.350	1.150
2020/01/31 05:58:07.4	91.250	-0.570	0.290	1.120
2020/01/31 05:58:07.5	91.260	-0.560	0.240	1.100
2020/01/31 05:58:07.6	91.270	-0.550	0.170	1.060
2020/01/31 05:58:07.7	91.270	-0.530	0.110	1.030
2020/01/31 05:58:07.8	91.280	-0.510	0.040	1.000
2020/01/31 05:58:07.9	91.300	-0.480	-0.040	0.970
2020/01/31 05:58:08.0	91.310	-0.450	-0.110	0.930
2020/01/31 05:58:08.1	91.330	-0.420	-0.180	0.900
2020/01/31 05:58:08.2	91.350	-0.380	-0.260	0.860
2020/01/31 05:58:08.3	91.370	-0.340	-0.340	0.820
2020/01/31 05:58:08.4	91.390	-0.300	-0.410	0.790
2020/01/31 05:58:08.5	91.420	-0.260	-0.480	0.750
2020/01/31 05:58:08.6	91.440	-0.210	-0.540	0.720
2020/01/31 05:58:08.7	91.470	-0.170	-0.610	0.680
2020/01/31 05:58:08.8	91.500	-0.120	-0.660	0.650
2020/01/31 05:58:08.9	91.530	-0.070	-0.710	0.620
2020/01/31 05:58:09.0	91.560	-0.030	-0.760	0.600
2020/01/31 05:58:09.1	91.590	0.020	-0.800	0.570
2020/01/31 05:58:09.2	91.620	0.060	-0.840	0.550
2020/01/31 05:58:09.3	91.640	0.100	-0.860	0.530
2020/01/31 05:58:09.4	91.670	0.140	-0.880	0.520
2020/01/31 05:58:09.5	91.700	0.180	-0.890	0.510
2020/01/31 05:58:09.6	91.720	0.220	-0.900	0.510
2020/01/31 05:58:09.7	91.740	0.250	-0.900	0.510
2020/01/31 05:58:09.8	91.760	0.270	-0.890	0.520
2020/01/31 05:58:09.9	91.780	0.300	-0.870	0.530
2020/01/31 05:58:10.0	91.790	0.320	-0.850	0.540
2020/01/31 05:58:10.1	91.800	0.330	-0.820	0.560
2020/01/31 05:58:10.2	91.810	0.340	-0.780	0.580
2020/01/31 05:58:10.3	91.810	0.350	-0.740	0.610
2020/01/31 05:58:10.4	91.810	0.350	-0.690	0.630
2020/01/31 05:58:10.5	91.810	0.350	-0.640	0.660
2020/01/31 05:58:10.6	91.800	0.350	-0.580	0.700
2020/01/31 05:58:10.7	91.790	0.340	-0.520	0.730
2020/01/31 05:58:10.8	91.780	0.320	-0.450	0.770
2020/01/31 05:58:10.9	91.760	0.300	-0.390	0.800
2020/01/31 05:58:11.0	91.750	0.280	-0.310	0.840
2020/01/31 05:58:11.1	91.730	0.260	-0.240	0.880
2020/01/31 05:58:11.2	91.700	0.230	-0.170	0.920
2020/01/31 05:58:11.3	91.690	0.200	-0.100	0.960
2020/01/31 05:58:11.4	91.660	0.160	-0.020	1.000
2020/01/31 05:58:11.5	91.640	0.130	0.050	1.040
2020/01/31 05:58:11.6	91.610	0.090	0.110	1.080
2020/01/31 05:58:11.7	91.580	0.050	0.180	1.120
2020/01/31 05:58:11.8	91.550	0.010	0.240	1.150
2020/01/31 05:58:11.9	91.530	-0.030	0.300	1.180
2020/01/31 05:58:12.0	91.500	-0.070	0.350	1.210
2020/01/31 05:58:12.1	91.470	-0.110	0.400	1.230
2020/01/31 05:58:12.2	91.450	-0.150	0.430	1.250
2020/01/31 05:58:12.3	91.430	-0.190	0.470	1.260
2020/01/31 05:58:12.4	91.400	-0.230	0.490	1.260
2020/01/31 05:58:12.5	91.380	-0.260	0.510	1.260
2020/01/31 05:58:12.6	91.360	-0.290	0.520	1.260
2020/01/31 05:58:12.7	91.350	-0.320	0.520	1.250
2020/01/31 05:58:12.8	91.330	-0.350	0.520	1.230
2020/01/31 05:58:12.9	91.320	-0.370	0.500	1.200
2020/01/31 05:58:13.0	91.310	-0.390	0.480	1.180
2020/01/31 05:58:13.1	91.300	-0.410	0.450	1.150
2020/01/31 05:58:13.2	91.290	-0.420	0.410	1.110
2020/01/31 05:58:13.3	91.280	-0.430	0.360	1.070
2020/01/31 05:58:13.4	91.280	-0.430	0.310	1.030
2020/01/31 05:58:13.5	91.280	-0.420	0.250	0.990
2020/01/31 05:58:13.6	91.280	-0.410	0.180	0.950
2020/01/31 05:58:13.7	91.280	-0.400	0.110	0.910
2020/01/31 05:58:13.8	91.280	-0.380	0.030	0.870
2020/01/31 05:58:13.9	91.290	-0.360	-0.050	0.840
2020/01/31 05:58:14.0	91.290	-0.330	-0.140	0.800
2020/01/31 05:58:14.1	91.300	-0.290	-0.230	0.770
2020/01/31 05:58:14.2	91.310	-0.260	-0.320	0.740
2020/01/31 05:58:14.3	91.300	-0.210	-0.410	0.710
2020/01/31 05:58:14.4	91.310	-0.170	-0.500	0.690
2020/01/31 05:58:14.5	91.310	-0.120	-0.590	0.670
2020/01/31 05:58:14.6	91.320	-0.070	-0.670	0.660
2020/01/31 05:58:14.7	91.330	-0.020	-0.750	0.650
2020/01/31 05:58:14.8	91.340	0.040	-0.830	0.630
2020/01/31 05:58:14.9	91.340	0.090	-0.910	0.630
2020/01/31 05:58:15.0	91.350	0.150	-0.970	0.620
2020/01/31 05:58:15.1	91.360	0.200	-1.030	0.610
2020/01/31 05:58:15.2	91.360	0.250	-1.090	0.610
2020/01/31 05:58:15.3	91.360	0.300	-1.140	0.610
2020/01/31 05:58:15.4	91.370	0.350	-1.170	0.610
2020/01/31 05:58:15.5	91.370	0.400	-1.200	0.610
2020/01/31 05:58:15.6	91.380	0.440	-1.210	0.610
2020/01/31 05:58:15.7	91.390	0.470	-1.220	0.610
2020/01/31 05:58:15.8	91.390	0.510	-1.210	0.610
2020/01/31 05:58:15.9	91.390	0.540	-1.200	0.610
2020/01/31 05:58:16.0	91.400	0.560	-1.170	0.620
2020/01/31 05:58:16.1	91.400	0.580	-1.140	0.620
2020/01/31 05:58:16.2	91.400	0.590	-1.100	0.620
2020/01/31 05:58:16.3	91.410	0.590	-1.040	0.620
2020/01/31 05:58:16.4	91.410	0.600	-0.980	0.620
2020/01/31 05:58:16.5	91.410	0.590	-0.910	0.630
2020/01/31 05:58:16.6	91.410	0.580	-0.840	0.630
2020/01/31 05:58:16.7	91.410	0.560	-0.760	0.640
2020/01/31 05:58:16.8	91.410	0.540	-0.670	0.650
2020/01/31 05:58:16.9	91.410	0.520	-0.580	0.650
2020/01/31 05:58:17.0	91.410	0.490	-0.480	0.660
2020/01/31 05:58:17.1	91.410	0.450	-0.390	0.670
2020/01/31 05:58:17.2	91.410	0.420	-0.290	0.680
2020/01/31 05:58:17.3	91.410	0.380	-0.190	0.700
2020/01/31 05:58:17.4	91.410	0.330	-0.090	0.710
2020/01/31 05:58:17.5	91.410	0.290	0.000	0.720
2020/01/31 05:58:17.6	91.410	0.240	0.100	0.730
2020/01/31 05:58:17.7	91.410	0.190	0.180	0.750
2020/01/31 05:58:17.8	91.410	0.140	0.270	0.760
2020/01/31 05:58:17.9	91.410	0.100	0.340	0.770
2020/01/31 05:58:18.0	91.410	0.050	0.420	0.790
2020/01/31 05:58:18.1	91.410	0.000	0.480	0.800
2020/01/31 05:58:18.2	91.410	-0.040	0.540	0.810
2020/01/31 05:58:18.3	91.380	-0.080	0.590	0.830
2020/01/31 05:58:18.4	91.380	-0.120	0.630	0.840
2020/01/31 05:58:18.5	91.380	-0.160	0.660	0.850
2020/01/31 05:58:18.6	91.380	-0.200	0.690	0.860
2020/01/31 05:58:18.7	91.370	-0.230	0.710	0.870
2020/01/31 05:58:18.8	91.370	-0.260	0.720	0.880
2020/01/31 05:58:18.9	91.370	-0.290	0.720	0.890
2020/01/31 05:58:19.0	91.360	-0.310	0.710	0.900
2020/01/31 05:58:19.1	91.360	-0.330	0.700	0.900
2020/01/31 05:58:19.2	91.350	-0.340	0.680	0.900
2020/01/31 05:58:19.3	91.360	-0.360	0.650	0.900
2020/01/31 05:58:19.4	91.350	-0.370	0.620	0.900
2020/01/31 05:58:19.5	91.350	-0.370	0.570	0.900
2020/01/31 05:58:19.6	91.350	-0.370	0.530	0.900
2020/01/31 05:58:19.7	91.350	-0.370	0.480	0.890
2020/01/31 05:58:19.8	91.350	-0.370	0.420	0.880
2020/01/31 05:58:19.9	91.350	-0.360	0.360	0.870
2020/01/31 05:58:20.0	91.350	-0.350	0.290	0.850
2020/01/31 05:58:20.1	91.350	-0.330	0.220	0.840
2020/01/31 05:58:20.2	91.370	-0.320	0.150	0.810
2020/01/31 05:58:20.3	91.380	-0.300	0.070	0.790
2020/01/31 05:58:20.4	91.390	-0.280	-0.000	0.770
2020/01/31 05:58:20.5	91.400	-0.250	-0.080	0.750
2020/01/31 05:58:20.6	91.410	-0.230	-0.160	0.730
2020/01/31 05:58:20.7	91.430	-0.200	-0.240	0.710
2020/01/31 05:58:20.8	91.450	-0.170	-0.320	0.680
2020/01/31 05:58:20.9	91.460	-0.130	-0.400	0.660
2020/01/31 05:58:21.0	91.480	-0.100	-0.480	0.640
2020/01/31 05:58:21.1	91.500	-0.070	-0.550	0.620
2020/01/31 05:58:21.2	91.520	-0.030	-0.620	0.600
2020/01/31 05:58:21.3	91.550	0.000	-0.690	0.580
2020/01/31 05:58:21.4	91.570	0.040	-0.750	0.570
2020/01/31 05:58:21.5	91.580	0.070	-0.810	0.560
2020/01/31 05:58:21.6	91.600	0.110	-0.860	0.550
2020/01/31 05:58:21.7	91.620	0.140	-0.900	0.540
2020/01/31 05:58:21.8	91.630	0.170	-0.940	0.530
2020/01/31 05:58:21.9	91.640	0.200	-0.970	0.530
2020/01/31 05:58:22.0	91.650	0.230	-0.990	0.520
2020/01/31 05:58:22.1	91.660	0.250	-1.000	0.520
2020/01/31 05:58:22.2	91.670	0.270	-1.000	0.520
2020/01/31 05:58:22.3	91.680	0.290	-0.990	0.520
2020/01/31 05:58:22.4	91.680	0.310	-0.980	0.530
2020/01/31 05:58:22.5	91.690	0.320	-0.950	0.530
2020/01/31 05:58:22.6	91.690	0.320	-0.920	0.540
2020/01/31 05:58:22.7	91.700	0.330	-0.880	0.540
2020/01/31 05:58:22.8	91.700	0.330	-0.840	0.550
2020/01/31 05:58:22.9	91.700	0.320	-0.780	0.560
2020/01/31 05:58:23.0	91.700	0.320	-0.730	0.570
2020/01/31 05:58:23.1	91.700	0.300	-0.660	0.580
2020/01/31 05:58:23.2	91.690	0.290	-0.590	0.590
2020/01/31 05:58:23.3	91.690	0.270	-0.520	0.600
2020/01/31 05:58:23.4	91.690	0.240	-0.440	0.620
2020/01/31 05:58:23.5	91.680	0.220	-0.360	0.640
2020/01/31 05:58:23.6	91.680	0.190	-0.280	0.650
2020/01/31 05:58:23.7	91.680	0.160	-0.200	0.670
2020/01/31 05:58:23.8	91.680	0.120	-0.120	0.690
2020/01/31 05:58:23.9	91.670	0.080	-0.040	0.710
2020/01/31 05:58:24.0	91.670	0.050	0.040	0.730
2020/01/31 05:58:24.1	91.670	0.010	0.110	0.750
2020/01/31 05:58:24.2	91.690	-0.040	0.180	0.770
2020/01/31 05:58:24.3	91.680	-0.080	0.250	0.780
2020/01/31 05:58:24.4	91.680	-0.120	0.310	0.800
2020/01/31 05:58:24.5	91.680	-0.160	0.360	0.820
2020/01/31 05:58:24.6	91.670	-0.200	0.410	0.830
2020/01/31 05:58:24.7	91.670	-0.240	0.450	0.840
2020/01/31 05:58:24.8	91.670	-0.280	0.480	0.850
2020/01/31 05:58:24.9	91.660	-0.310	0.510	0.860
2020/01/31 05:58:25.0	91.660	-0.340	0.530	0.860
2020/01/31 05:58:25.1	91.660	-0.380	0.540	0.860
2020/01/31 05:58:25.2	91.650	-0.400	0.540	0.870
2020/01/31 05:58:25.3	91.640	-0.430	0.530	0.860
2020/01/31 05:58:25.4	91.640	-0.450	0.520	0.860
2020/01/31 05:58:25.5	91.630	-0.470	0.510	0.850
2020/01/31 05:58:25.6	91.630	-0.490	0.480	0.850
2020/01/31 05:58:25.7	91.630	-0.500	0.450	0.840
2020/01/31 05:58:25.8	91.630	-0.510	0.410	0.830
2020/01/31 05:58:25.9	91.630	-0.520	0.370	0.820
2020/01/31 05:58:26.0	91.630	-0.520	0.320	0.810
2020/01/31 05:58:26.1	91.630	-0.520	0.270	0.800
2020/01/31 05:58:26.2	91.630	-0.510	0.210	0.780
2020/01/31 05:58:26.3	91.620	-0.510	0.150	0.770
2020/01/31 05:58:26.4	91.620	-0.490	0.090	0.750
2020/01/31 05:58:26.5	91.630	-0.480	0.020	0.740
2020/01/31 05:58:26.6	91.640	-0.460	-0.040	0.720
2020/01/31 05:58:26.7	91.640	-0.440	-0.110	0.700
2020/01/31 05:58:26.8	91.650	-0.420	-0.190	0.690
2020/01/31 05:58:26.9	91.660	-0.390	-0.260	0.670
2020/01/31 05:58:27.0	91.670	-0.370	-0.330	0.650
2020/01/31 05:58:27.1	91.680	-0.340	-0.400	0.640
2020/01/31 05:58:27.2	91.690	-0.300	-0.470	0.620
2020/01/31 05:58:27.3	91.710	-0.270	-0.530	0.600
2020/01/31 05:58:27.4	91.720	-0.240	-0.600	0.580
2020/01/31 05:58:27.5	91.730	-0.200	-0.660	0.560
2020/01/31 05:58:27.6	91.750	-0.160	-0.720	0.550
2020/01/31 05:58:27.7	91.760	-0.130	-0.770	0.530
2020/01/31 05:58:27.8	91.780	-0.090	-0.810	0.520
2020/01/31 05:58:27.9	91.790	-0.060	-0.860	0.500
2020/01/31 05:58:28.0	91.810	-0.020	-0.890	0.490
2020/01/31 05:58:28.1	91.830	0.010	-0.920	0.480
2020/01/31 05:58:28.2	91.840	0.040	-0.940	0.470
2020/01/31 05:58:28.3	91.860	0.080	-0.960	0.460
2020/01/31 05:58:28.4	91.870	0.100	-0.970	0.450
2020/01/31 05:58:28.5	91.890	0.130	-0.970	0.440
2020/01/31 05:58:28.6	91.900	0.160	-0.960	0.440
2020/01/31 05:58:28.7	91.910	0.180	-0.950	0.440
2020/01/31 05:58:28.8	91.930	0.200	-0.930	0.440
2020/01/31 05:58:28.9	91.940	0.220	-0.900	0.450
2020/01/31 05:58:29.0	91.940	0.230	-0.870	0.450
2020/01/31 05:58:29.1	91.950	0.240	-0.830	0.460
2020/01/31 05:58:29.2	91.960	0.250	-0.790	0.470
2020/01/31 05:58:29.3	91.970	0.260	-0.740	0.480
2020/01/31 05:58:29.4	91.970	0.270	-0.690	0.500
2020/01/31 05:58:29.5	91.980	0.270	-0.630	0.520
2020/01/31 05:58:29.6	91.980	0.270	-0.580	0.530
2020/01/31 05:58:29.7	91.980	0.270	-0.520	0.550
2020/01/31 05:58:29.8	91.980	0.260	-0.460	0.570
2020/01/31 05:58:29.9	91.980	0.260	-0.400	0.590
2020/01/31 05:58:30.0	91.970	0.250	-0.340	0.620
2020/01/31 05:58:30.1	91.970	0.250	-0.280	0.640
2020/01/31 05:58:30.2	91.970	0.240	-0.220	0.660
2020/01/31 05:58:30.3	91.970	0.230	-0.170	0.680
2020/01/31 05:58:30.4	91.970	0.230	-0.110	0.700
2020/01/31 05:58:30.5	91.960	0.220	-0.070	0.720
2020/01/31 05:58:30.6	91.960	0.210	-0.030	0.740
2020/01/31 05:58:30.7	91.950	0.200	0.010	0.760
2020/01/31 05:58:30.8	91.950	0.200	0.040	0.780
2020/01/31 05:58:30.9	91.940	0.190	0.070	0.790
2020/01/31 05:58:31.0	91.930	0.190	0.090	0.800
2020/01/31 05:58:31.1	91.920	0.180	0.110	0.810
2020/01/31 05:58:31.2	91.920	0.180	0.120	0.820
2020/01/31 05:58:31.3	91.910	0.180	0.130	0.830
2020/01/31 05:58:31.4	91.900	0.180	0.130	0.840
2020/01/31 05:58:31.5	91.890	0.180	0.130	0.840
2020/01/31 05:58:31.6	91.870	0.180	0.120	0.840
2020/01/31 05:58:31.7	91.860	0.190	0.110	0.830
2020/01/31 05:58:31.8	91.840	0.190	0.090	0.830
2020/01/31 05:58:31.9	91.830	0.200	0.080	0.820
2020/01/31 05:58:32.0	91.810	0.200	0.050	0.810
2020/01/31 05:58:32.1	91.790	0.210	0.030	0.790
2020/01/31 05:58:32.2	91.770	0.220	0.010	0.770
2020/01/31 05:58:32.3	91.750	0.230	-0.020	0.750
2020/01/31 05:58:32.4	91.730	0.240	-0.050	0.720
2020/01/31 05:58:32.5	91.720	0.250	-0.070	0.700
2020/01/31 05:58:32.6	91.700	0.260	-0.090	0.670
2020/01/31 05:58:32.7	91.690	0.270	-0.120	0.640
2020/01/31 05:58:32.8	91.670	0.280	-0.140	0.610
2020/01/31 05:58:32.9	91.660	0.280	-0.160	0.570
2020/01/31 05:58:33.0	91.650	0.290	-0.170	0.540
2020/01/31 05:58:33.1	91.650	0.300	-0.190	0.510
2020/01/31 05:58:33.2	91.640	0.300	-0.200	0.470
2020/01/31 05:58:33.3	91.640	0.300	-0.200	0.440
2020/01/31 05:58:33.4	91.640	0.300	-0.210	0.410
2020/01/31 05:58:33.5	91.650	0.300	-0.210	0.380
2020/01/31 05:58:33.6	91.650	0.300	-0.210	0.350
2020/01/31 05:58:33.7	91.660	0.290	-0.210	0.330
2020/01/31 05:58:33.8	91.670	0.290	-0.200	0.310
2020/01/31 05:58:33.9	91.690	0.280	-0.200	0.290
2020/01/31 05:58:34.0	91.700	0.270	-0.190	0.280
2020/01/31 05:58:34.1	91.720	0.250	-0.180	0.270
2020/01/31 05:58:34.2	91.740	0.240	-0.170	0.270
2020/01/31 05:58:34.3	91.750	0.220	-0.160	0.260
2020/01/31 05:58:34.4	91.780	0.200	-0.140	0.260
2020/01/31 05:58:34.5	91.800	0.180	-0.130	0.260
2020/01/31 05:58:34.6	91.820	0.150	-0.120	0.270
2020/01/31 05:58:34.7	91.850	0.130	-0.110	0.280
2020/01/31 05:58:34.8	91.880	0.100	-0.100	0.290
2020/01/31 05:58:34.9	91.900	0.070	-0.090	0.300
2020/01/31 05:58:35.0	91.930	0.050	-0.090	0.310
2020/01/31 05:58:35.1	91.960	0.020	-0.090	0.320
2020/01/31 05:58:35.2	91.980	-0.010	-0.080	0.340
2020/01/31 05:58:35.3	92.020	-0.040	-0.080	0.350
2020/01/31 05:58:35.4	92.050	-0.060	-0.090	0.370
2020/01/31 05:58:35.5	92.080	-0.090	-0.090	0.380
2020/01/31 05:58:35.6	92.110	-0.110	-0.100	0.400
2020/01/31 05:58:35.7	92.140	-0.130	-0.120	0.410
2020/01/31 05:58:35.8	92.170	-0.150	-0.130	0.430
2020/01/31 05:58:35.9	92.190	-0.170	-0.150	0.440
2020/01/31 05:58:36.0	92.220	-0.190	-0.170	0.460
2020/01/31 05:58:36.1	92.250	-0.200	-0.190	0.470
2020/01/31 05:58:36.2	92.280	-0.210	-0.210	0.490
2020/01/31 05:58:36.3	92.330	-0.220	-0.230	0.500
2020/01/31 05:58:36.4	92.360	-0.230	-0.250	0.520
2020/01/31 05:58:36.5	92.380	-0.230	-0.280	0.540
2020/01/31 05:58:36.6	92.410	-0.230	-0.300	0.570
2020/01/31 05:58:36.7	92.430	-0.230	-0.320	0.590
2020/01/31 05:58:36.8	92.460	-0.230	-0.340	0.620
2020/01/31 05:58:36.9	92.480	-0.230	-0.360	0.660
2020/01/31 05:58:37.0	92.500	-0.220	-0.380	0.700
2020/01/31 05:58:37.1	92.510	-0.210	-0.390	0.740
2020/01/31 05:58:37.2	92.520	-0.200	-0.410	0.790
2020/01/31 05:58:37.3	92.510	-0.190	-0.420	0.840
2020/01/31 05:58:37.4	92.520	-0.180	-0.430	0.890
2020/01/31 05:58:37.5	92.520	-0.170	-0.440	0.950
2020/01/31 05:58:37.6	92.520	-0.160	-0.450	1.010
2020/01/31 05:58:37.7	92.510	-0.140	-0.460	1.070
2020/01/31 05:58:37.8	92.500	-0.130	-0.460	1.130
2020/01/31 05:58:37.9	92.490	-0.120	-0.460	1.190
2020/01/31 05:58:38.0	92.480	-0.110	-0.460	1.250
2020/01/31 05:58:38.1	92.460	-0.100	-0.460	1.310
2020/01/31 05:58:38.2	92.410	-0.080	-0.450	1.370
2020/01/31 05:58:38.3	92.380	-0.080	-0.440	1.420
2020/01/31 05:58:38.4	92.360	-0.070	-0.430	1.470
2020/01/31 05:58:38.5	92.340	-0.060	-0.420	1.510
2020/01/31 05:58:38.6	92.310	-0.050	-0.410	1.550
2020/01/31 05:58:38.7	92.280	-0.050	-0.390	1.580
2020/01/31 05:58:38.8	92.250	-0.050	-0.370	1.610
2020/01/31 05:58:38.9	92.230	-0.050	-0.350	1.630
2020/01/31 05:58:39.0	92.200	-0.050	-0.330	1.640
2020/01/31 05:58:39.1	92.170	-0.050	-0.300	1.640
2020/01/31 05:58:39.2	92.140	-0.060	-0.280	1.640
2020/01/31 05:58:39.3	92.110	-0.060	-0.250	1.630
2020/01/31 05:58:39.4	92.080	-0.070	-0.220	1.610
2020/01/31 05:58:39.5	92.060	-0.080	-0.190	1.590
2020/01/31 05:58:39.6	92.030	-0.090	-0.160	1.570
2020/01/31 05:58:39.7	92.010	-0.100	-0.130	1.540
2020/01/31 05:58:39.8	91.990	-0.110	-0.100	1.500
2020/01/31 05:58:39.9	91.970	-0.120	-0.070	1.460
2020/01/31 05:58:40.0	91.950	-0.140	-0.030	1.420
2020/01/31 05:58:40.1	91.930	-0.150	-0.000	1.370
2020/01/31 05:58:40.2	91.920	-0.160	0.030	1.320
2020/01/31 05:58:40.3	91.900	-0.180	0.060	1.270
2020/01/31 05:58:40.4	91.890	-0.190	0.090	1.210
2020/01/31 05:58:40.5	91.880	-0.200	0.120	1.160
2020/01/31 05:58:40.6	91.870	-0.210	0.150	1.100
2020/01/31 05:58:40.7	91.870	-0.230	0.170	1.030
2020/01/31 05:58:40.8	91.870	-0.240	0.190	0.970
2020/01/31 05:58:40.9	91.870	-0.240	0.210	0.910
2020/01/31 05:58:41.0	91.870	-0.250	0.230	0.840
2020/01/31 05:58:41.1	91.880	-0.260	0.240	0.770
2020/01/31 05:58:41.2	91.880	-0.260	0.240	0.710
2020/01/31 05:58:41.3	91.900	-0.260	0.240	0.640
2020/01/31 05:58:41.4	91.910	-0.260	0.240	0.570
2020/01/31 05:58:41.5	91.930	-0.260	0.230	0.500
2020/01/31 05:58:41.6	91.940	-0.260	0.220	0.440
2020/01/31 05:58:41.7	91.960	-0.250	0.200	0.380
2020/01/31 05:58:41.8	91.980	-0.240	0.180	0.320
2020/01/31 05:58:41.9	92.000	-0.230	0.150	0.270
2020/01/31 05:58:42.0	92.020	-0.210	0.120	0.210
2020/01/31 05:58:42.1	92.040	-0.200	0.090	0.160
2020/01/31 05:58:42.2	92.060	-0.180	0.050	0.110
2020/01/31 05:58:42.3	92.100	-0.160	0.010	0.070
2020/01/31 05:58:42.4	92.120	-0.140	-0.040	0.030
2020/01/31 05:58:42.5	92.140	-0.120	-0.080	-0.000
2020/01/31 05:58:42.6	92.160	-0.100	-0.130	-0.030
2020/01/31 05:58:42.7	92.180	-0.070	-0.180	-0.060
2020/01/31 05:58:42.8	92.200	-0.050	-0.230	-0.090
2020/01/31 05:58:42.9	92.220	-0.020	-0.290	-0.110
2020/01/31 05:58:43.0	92.230	0.010	-0.340	-0.120
2020/01/31 05:58:43.1	92.250	0.030	-0.390	-0.130
2020/01/31 05:58:43.2	92.270	0.060	-0.440	-0.140
2020/01/31 05:58:43.3	92.290	0.080	-0.490	-0.150
2020/01/31 05:58:43.4	92.300	0.110	-0.540	-0.150
2020/01/31 05:58:43.5	92.310	0.130	-0.580	-0.140
2020/01/31 05:58:43.6	92.330	0.160	-0.630	-0.140
2020/01/31 05:58:43.7	92.340	0.180	-0.660	-0.130
2020/01/31 05:58:43.8	92.350	0.200	-0.700	-0.120
2020/01/31 05:58:43.9	92.360	0.210	-0.730	-0.100
2020/01/31 05:58:44.0	92.360	0.230	-0.760	-0.080
2020/01/31 05:58:44.1	92.370	0.240	-0.780	-0.060
2020/01/31 05:58:44.2	92.380	0.260	-0.800	-0.030
2020/01/31 05:58:44.3	92.380	0.260	-0.810	-0.000
2020/01/31 05:58:44.4	92.380	0.270	-0.820	0.030
2020/01/31 05:58:44.5	92.380	0.280	-0.820	0.060
2020/01/31 05:58:44.6	92.380	0.280	-0.820	0.100
2020/01/31 05:58:44.7	92.380	0.280	-0.810	0.140
2020/01/31 05:58:44.8	92.380	0.280	-0.800	0.180
2020/01/31 05:58:44.9	92.370	0.270	-0.790	0.220
2020/01/31 05:58:45.0	92.360	0.270	-0.770	0.270
2020/01/31 05:58:45.1	92.350	0.260	-0.740	0.320
2020/01/31 05:58:45.2	92.340	0.250	-0.720	0.370
2020/01/31 05:58:45.3	92.310	0.240	-0.690	0.420
2020/01/31 05:58:45.4	92.300	0.230	-0.650	0.470
2020/01/31 05:58:45.5	92.280	0.210	-0.620	0.520
2020/01/31 05:58:45.6	92.260	0.200	-0.570	0.570
2020/01/31 05:58:45.7	92.240	0.180	-0.530	0.620
2020/01/31 05:58:45.8	92.220	0.160	-0.480	0.670
2020/01/31 05:58:45.9	92.200	0.140	-0.430	0.720
2020/01/31 05:58:46.0	92.180	0.120	-0.380	0.770
2020/01/31 05:58:46.1	92.160	0.100	-0.330	0.810
2020/01/31 05:58:46.2	92.130	0.080	-0.280	0.850
2020/01/31 05:58:46.3	92.110	0.050	-0.220	0.890
2020/01/31 05:58:46.4	92.090	0.030	-0.160	0.930
2020/01/31 05:58:46.5	92.070	0.000	-0.110	0.960
2020/01/31 05:58:46.6	92.050	-0.020	-0.050	0.990
2020/01/31 05:58:46.7	92.030	-0.050	0.000	1.010
2020/01/31 05:58:46.8	92.020	-0.080	0.060	1.030
2020/01/31 05:58:46.9	92.000	-0.100	0.110	1.040
2020/01/31 05:58:47.0	91.990	-0.130	0.160	1.060
2020/01/31 05:58:47.1	91.980	-0.150	0.200	1.060
2020/01/31 05:58:47.2	91.970	-0.170	0.240	1.070
2020/01/31 05:58:47.3	91.950	-0.200	0.280	1.060
2020/01/31 05:58:47.4	91.950	-0.210	0.310	1.060
2020/01/31 05:58:47.5	91.940	-0.230	0.340	1.060
2020/01/31 05:58:47.6	91.940	-0.250	0.360	1.050
2020/01/31 05:58:47.7	91.940	-0.260	0.380	1.040
2020/01/31 05:58:47.8	91.940	-0.270	0.380	1.030
2020/01/31 05:58:47.9	91.940	-0.270	0.380	1.010
2020/01/31 05:58:48.0	91.940	-0.270	0.380	0.990
2020/01/31 05:58:48.1	91.950	-0.270	0.360	0.970
2020/01/31 05:58:48.2	91.950	-0.270	0.340	0.950
2020/01/31 05:58:48.3	91.980	-0.260	0.320	0.930
2020/01/31 05:58:48.4	91.980	-0.240	0.280	0.900
2020/01/31 05:58:48.5	91.990	-0.230	0.240	0.870
2020/01/31 05:58:48.6	91.990	-0.210	0.200	0.840
2020/01/31 05:58:48.7	92.000	-0.180	0.150	0.810
2020/01/31 05:58:48.8	92.010	-0.160	0.100	0.780
2020/01/31 05:58:48.9	92.010	-0.130	0.040	0.750
2020/01/31 05:58:49.0	92.020	-0.090	-0.020	0.720
2020/01/31 05:58:49.1	92.030	-0.060	-0.090	0.680
2020/01/31 05:58:49.2	92.040	-0.020	-0.150	0.650
2020/01/31 05:58:49.3	92.040	0.010	-0.220	0.620
2020/01/31 05:58:49.4	92.050	0.050	-0.290	0.580
2020/01/31 05:58:49.5	92.070	0.100	-0.360	0.550
2020/01/31 05:58:49.6	92.080	0.140	-0.430	0.530
2020/01/31 05:58:49.7	92.090	0.180	-0.490	0.500
2020/01/31 05:58:49.8	92.110	0.220	-0.550	0.470
2020/01/31 05:58:49.9	92.120	0.260	-0.620	0.450
2020/01/31 05:58:50.0	92.140	0.300	-0.670	0.430
2020/01/31 05:58:50.1	92.150	0.340	-0.720	0.410
2020/01/31 05:58:50.2	92.170	0.370	-0.770	0.400
2020/01/31 05:58:50.3	92.190	0.400	-0.810	0.390
2020/01/31 05:58:50.4	92.200	0.430	-0.850	0.380
2020/01/31 05:58:50.5	92.210	0.460	-0.880	0.380
2020/01/31 05:58:50.6	92.230	0.490	-0.900	0.390
2020/01/31 05:58:50.7	92.240	0.510	-0.910	0.390
2020/01/31 05:58:50.8	92.240	0.520	-0.910	0.400
2020/01/31 05:58:50.9	92.250	0.530	-0.910	0.410
2020/01/31 05:58:51.0	92.250	0.540	-0.900	0.430
2020/01/31 05:58:51.1	92.250	0.540	-0.880	0.440
2020/01/31 05:58:51.2	92.250	0.530	-0.850	0.460
2020/01/31 05:58:51.3	92.250	0.530	-0.820	0.480
2020/01/31 05:58:51.4	92.250	0.510	-0.770	0.490
2020/01/31 05:58:51.5	92.240	0.490	-0.720	0.510
2020/01/31 05:58:51.6	92.240	0.470	-0.660	0.530
2020/01/31 05:58:51.7	92.230	0.440	-0.590	0.550
2020/01/31 05:58:51.8	92.220	0.410	-0.520	0.570
2020/01/31 05:58:51.9	92.210	0.370	-0.440	0.590
2020/01/31 05:58:52.0	92.190	0.330	-0.350	0.610
2020/01/31 05:58:52.1	92.180	0.290	-0.260	0.630
2020/01/31 05:58:52.2	92.170	0.240	-0.170	0.650
2020/01/31 05:58:52.3	92.170	0.190	-0.080	0.660
2020/01/31 05:58:52.4	92.150	0.140	0.010	0.680
2020/01/31 05:58:52.5	92.140	0.080	0.110	0.700
2020/01/31 05:58:52.6	92.130	0.020	0.200	0.720
2020/01/31 05:58:52.7	92.120	-0.030	0.290	0.730
2020/01/31 05:58:52.8	92.110	-0.090	0.380	0.750
2020/01/31 05:58:52.9	92.100	-0.140	0.460	0.760
2020/01/31 05:58:53.0	92.090	-0.200	0.530	0.780
2020/01/31 05:58:53.1	92.080	-0.250	0.600	0.790
2020/01/31 05:58:53.2	92.070	-0.310	0.660	0.810
2020/01/31 05:58:53.3	92.070	-0.350	0.720	0.820
2020/01/31 05:58:53.4	92.070	-0.400	0.760	0.830
2020/01/31 05:58:53.5	92.060	-0.440	0.800	0.850
2020/01/31 05:58:53.6	92.060	-0.480	0.820	0.860
2020/01/31 05:58:53.7	92.060	-0.510	0.830	0.870
2020/01/31 05:58:53.8	92.060	-0.540	0.820	0.880
2020/01/31 05:58:53.9	92.060	-0.560	0.810	0.890
2020/01/31 05:58:54.0	92.060	-0.580	0.780	0.900
2020/01/31 05:58:54.1	92.070	-0.590	0.740	0.910
2020/01/31 05:58:54.2	92.070	-0.590	0.690	0.910
2020/01/31 05:58:54.3	92.070	-0.590	0.620	0.900
2020/01/31 05:58:54.4	92.080	-0.580	0.540	0.900
2020/01/31 05:58:54.5	92.090	-0.570	0.460	0.890
2020/01/31 05:58:54.6	92.100	-0.550	0.370	0.880
2020/01/31 05:58:54.7	92.120	-0.520	0.270	0.870
2020/01/31 05:58:54.8	92.140	-0.490	0.160	0.850
2020/01/31 05:58:54.9	92.160	-0.460	0.050	0.830
2020/01/31 05:58:55.0	92.180	-0.420	-0.060	0.810
2020/01/31 05:58:55.1	92.190	-0.370	-0.180	0.780
2020/01/31 05:58:55.2	92.210	-0.330	-0.300	0.760
2020/01/31 05:58:55.3	92.230	-0.280	-0.420	0.730
2020/01/31 05:58:55.4	92.250	-0.220	-0.540	0.700
2020/01/31 05:58:55.5	92.270	-0.170	-0.650	0.670
2020/01/31 05:58:55.6	92.290	-0.120	-0.760	0.640
2020/01/31 05:58:55.7	92.300	-0.060	-0.870	0.620
2020/01/31 05:58:55.8	92.320	-0.010	-0.960	0.590
2020/01/31 05:58:55.9	92.330	0.050	-1.050	0.570
2020/01/31 05:58:56.0	92.340	0.100	-1.130	0.550
2020/01/31 05:58:56.1	92.350	0.150	-1.200	0.530
2020/01/31 05:58:56.2	92.350	0.190	-1.260	0.520
2020/01/31 05:58:56.3	92.350	0.230	-1.310	0.510
2020/01/31 05:58:56.4	92.350	0.270	-1.340	0.500
2020/01/31 05:58:56.5	92.340	0.310	-1.360	0.500
2020/01/31 05:58:56.6	92.330	0.330	-1.360	0.500
2020/01/31 05:58:56.7	92.320	0.360	-1.350	0.500
2020/01/31 05:58:56.8	92.310	0.370	-1.330	0.510
2020/01/31 05:58:56.9	92.300	0.380	-1.290	0.520
2020/01/31 05:58:57.0	92.280	0.390	-1.240	0.540
2020/01/31 05:58:57.1	92.260	0.380	-1.180	0.560
2020/01/31 05:58:57.2	92.240	0.370	-1.100	0.580
2020/01/31 05:58:57.3	92.200	0.360	-1.010	0.610
2020/01/31 05:58:57.4	92.180	0.340	-0.920	0.640
2020/01/31 05:58:57.5	92.160	0.310	-0.810	0.670
2020/01/31 05:58:57.6	92.130	0.270	-0.690	0.710
2020/01/31 05:58:57.7	92.110	0.230	-0.570	0.740
2020/01/31 05:58:57.8	92.080	0.190	-0.450	0.780
2020/01/31 05:58:57.9	92.060	0.140	-0.310	0.820
2020/01/31 05:58:58.0	92.030	0.080	-0.180	0.860
2020/01/31 05:58:58.1	92.010	0.020	-0.050	0.900
2020/01/31 05:58:58.2	91.980	-0.040	0.090	0.940
2020/01/31 05:58:58.3	91.950	-0.100	0.220	0.970
2020/01/31 05:58:58.4	91.930	-0.170	0.340	1.010
2020/01/31 05:58:58.5	91.910	-0.240	0.470	1.040
2020/01/31 05:58:58.6	91.890	-0.300	0.580	1.060
2020/01/31 05:58:58.7	91.870	-0.370	0.690	1.090
2020/01/31 05:58:58.8	91.860	-0.440	0.790	1.110
2020/01/31 05:58:58.9	91.840	-0.500	0.880	1.120
2020/01/31 05:58:59.0	91.830	-0.570	0.960	1.130
2020/01/31 05:58:59.1	91.820	-0.620	1.030	1.130
2020/01/31 05:58:59.2	91.820	-0.680	1.080	1.130
2020/01/31 05:58:59.3	91.800	-0.730	1.120	1.120
2020/01/31 05:58:59.4	91.800	-0.770	1.150	1.100
2020/01/31 05:58:59.5	91.800	-0.810	1.160	1.080
2020/01/31 05:58:59.6	91.810	-0.840	1.150	1.060
2020/01/31 05:58:59.7	91.810	-0.860	1.130	1.030
2020/01/31 05:58:59.8	91.820	-0.870	1.090	0.990
2020/01/31 05:58:59.9	91.830	-0.880	1.040	0.960
2020/01/31 05:59:00.0	91.840	-0.880	0.970	0.920
2020/01/31 05:59:00.1	91.850	-0.870	0.890	0.870
2020/01/31 05:59:00.2	91.860	-0.850	0.800	0.830
2020/01/31 05:59:00.3	91.880	-0.820	0.690	0.780
2020/01/31 05:59:00.4	91.890	-0.790	0.580	0.730
2020/01/31 05:59:00.5	91.900	-0.740	0.450	0.690
2020/01/31 05:59:00.6	91.920	-0.690	0.310	0.640
2020/01/31 05:59:00.7	91.930	-0.630	0.170	0.590
2020/01/31 05:59:00.8	91.940	-0.570	0.030	0.550
2020/01/31 05:59:00.9	91.960	-0.500	-0.120	0.500
2020/01/31 05:59:01.0	91.970	-0.420	-0.280	0.460
2020/01/31 05:59:01.1	91.980	-0.340	-0.430	0.420
2020/01/31 05:59:01.2	91.990	-0.260	-0.580	0.380
2020/01/31 05:59:01.3	92.010	-0.170	-0.740	0.350
2020/01/31 05:59:01.4	92.020	-0.080	-0.880	0.310
2020/01/31 05:59:01.5	92.030	0.010	-1.020	0.290
2020/01/31 05:59:01.6	92.040	0.110	-1.150	0.260
2020/01/31 05:59:01.7	92.050	0.200	-1.280	0.240
2020/01/31 05:59:01.8	92.060	0.290	-1.390	0.220
2020/01/31 05:59:01.9	92.060	0.380	-1.500	0.210
2020/01/31 05:59:02.0	92.070	0.470	-1.590	0.210
2020/01/31 05:59:02.1	92.070	0.550	-1.670	0.200
2020/01/31 05:59:02.2	92.080	0.630	-1.740	0.210
2020/01/31 05:59:02.3	92.090	0.700	-1.790	0.210
2020/01/31 05:59:02.4	92.100	0.770	-1.830	0.220
2020/01/31 05:59:02.5	92.100	0.840	-1.850	0.240
2020/01/31 05:59:02.6	92.100	0.890	-1.860	0.260
2020/01/31 05:59:02.7	92.090	0.940	-1.850	0.280
2020/01/31 05:59:02.8	92.090	0.990	-1.820	0.310
2020/01/31 05:59:02.9	92.090	1.020	-1.790	0.340
2020/01/31 05:59:03.0	92.080	1.050	-1.730	0.370
2020/01/31 05:59:03.1	92.080	1.070	-1.670	0.410
2020/01/31 05:59:03.2	92.070	1.080	-1.580	0.440
2020/01/31 05:59:03.3	92.070	1.090	-1.490	0.490
2020/01/31 05:59:03.4	92.060	1.080	-1.390	0.530
2020/01/31 05:59:03.5	92.040	1.070	-1.270	0.570
2020/01/31 05:59:03.6	92.030	1.050	-1.150	0.610
2020/01/31 05:59:03.7	92.010	1.030	-1.010	0.650
2020/01/31 05:59:03.8	92.000	1.000	-0.870	0.700
2020/01/31 05:59:03.9	91.980	0.960	-0.730	0.740
2020/01/31 05:59:04.0	91.950	0.910	-0.580	0.780
2020/01/31 05:59:04.1	91.930	0.860	-0.430	0.820
2020/01/31 05:59:04.2	91.900	0.800	-0.280	0.860
2020/01/31 05:59:04.3	91.870	0.740	-0.120	0.900
2020/01/31 05:59:04.4	91.840	0.680	0.030	0.940
2020/01/31 05:59:04.5	91.810	0.610	0.170	0.970
2020/01/31 05:59:04.6	91.780	0.540	0.320	1.010
2020/01/31 05:59:04.7	91.750	0.470	0.450	1.040
2020/01/31 05:59:04.8	91.710	0.390	0.580	1.060
2020/01/31 05:59:04.9	91.680	0.320	0.700	1.080
2020/01/31 05:59:05.0	91.650	0.240	0.810	1.100
2020/01/31 05:59:05.1	91.620	0.160	0.920	1.120
2020/01/31 05:59:05.2	91.590	0.090	1.010	1.130
2020/01/31 05:59:05.3	91.570	0.010	1.090	1.130
2020/01/31 05:59:05.4	91.540	-0.060	1.160	1.140
2020/01/31 05:59:05.5	91.520	-0.130	1.210	1.130
2020/01/31 05:59:05.6	91.500	-0.190	1.250	1.130
2020/01/31 05:59:05.7	91.480	-0.250	1.280	1.120
2020/01/31 05:59:05.8	91.460	-0.310	1.290	1.100
2020/01/31 05:59:05.9	91.450	-0.360	1.290	1.090
2020/01/31 05:59:06.0	91.430	-0.410	1.270	1.060
2020/01/31 05:59:06.1	91.430	-0.450	1.240	1.040
2020/01/31 05:59:06.2	91.420	-0.490	1.200	1.010
2020/01/31 05:59:06.3	91.420	-0.510	1.140	0.980
2020/01/31 05:59:06.4	91.420	-0.540	1.070	0.940
2020/01/31 05:59:06.5	91.430	-0.550	1.000	0.910
2020/01/31 05:59:06.6	91.430	-0.560	0.910	0.870
2020/01/31 05:59:06.7	91.440	-0.560	0.810	0.820
2020/01/31 05:59:06.8	91.460	-0.560	0.700	0.780
2020/01/31 05:59:06.9	91.480	-0.550	0.590	0.730
2020/01/31 05:59:07.0	91.500	-0.530	0.470	0.690
2020/01/31 05:59:07.1	91.520	-0.510	0.350	0.640
2020/01/31 05:59:07.2	91.550	-0.490	0.220	0.590
2020/01/31 05:59:07.3	91.580	-0.450	0.090	0.540
2020/01/31 05:59:07.4	91.620	-0.420	-0.040	0.490
2020/01/31 05:59:07.5	91.650	-0.380	-0.160	0.450
2020/01/31 05:59:07.6	91.690	-0.330	-0.280	0.400
2020/01/31 05:59:07.7	91.740	-0.290	-0.400	0.360
2020/01/31 05:59:07.8	91.780	-0.240	-0.510	0.330
2020/01/31 05:59:07.9	91.830	-0.200	-0.610	0.290
2020/01/31 05:59:08.0	91.870	-0.150	-0.700	0.260
2020/01/31 05:59:08.1	91.920	-0.100	-0.790	0.240
2020/01/31 05:59:08.2	91.970	-0.050	-0.870	0.210
2020/01/31 05:59:08.3	92.010	-0.010	-0.930	0.200
2020/01/31 05:59:08.4	92.050	0.030	-0.980	0.190
2020/01/31 05:59:08.5	92.090	0.070	-1.020	0.180
2020/01/31 05:59:08.6	92.130	0.100	-1.040	0.180
2020/01/31 05:59:08.7	92.170	0.130	-1.050	0.180
2020/01/31 05:59:08.8	92.200	0.150	-1.060	0.190
2020/01/31 05:59:08.9	92.230	0.170	-1.050	0.200
2020/01/31 05:59:09.0	92.260	0.190	-1.020	0.210
2020/01/31 05:59:09.1	92.280	0.200	-0.990	0.230
2020/01/31 05:59:09.2	92.320	0.200	-0.950	0.250
2020/01/31 05:59:09.3	92.340	0.200	-0.890	0.280
2020/01/31 05:59:09.4	92.350	0.190	-0.830	0.300
2020/01/31 05:59:09.5	92.370	0.170	-0.770	0.330
2020/01/31 05:59:09.6	92.380	0.150	-0.690	0.360
2020/01/31 05:59:09.7	92.380	0.130	-0.610	0.390
2020/01/31 05:59:09.8	92.380	0.100	-0.530	0.420
2020/01/31 05:59:09.9	92.380	0.060	-0.450	0.450
2020/01/31 05:59:10.0	92.370	0.030	-0.360	0.490
2020/01/31 05:59:10.1	92.370	-0.010	-0.270	0.530
2020/01/31 05:59:10.2	92.350	-0.050	-0.190	0.570
2020/01/31 05:59:10.3	92.350	-0.100	-0.100	0.610
2020/01/31 05:59:10.4	92.330	-0.140	-0.020	0.650
2020/01/31 05:59:10.5	92.320	-0.190	0.050	0.690
2020/01/31 05:59:10.6	92.300	-0.230	0.120	0.730
2020/01/31 05:59:10.7	92.270	-0.280	0.180	0.770
2020/01/31 05:59:10.8	92.250	-0.320	0.240	0.810
2020/01/31 05:59:10.9	92.230	-0.360	0.280	0.860
2020/01/31 05:59:11.0	92.200	-0.390	0.320	0.900
2020/01/31 05:59:11.1	92.170	-0.430	0.350	0.940
2020/01/31 05:59:11.2	92.150	-0.460	0.370	0.970
2020/01/31 05:59:11.3	92.130	-0.480	0.370	1.010
2020/01/31 05:59:11.4	92.100	-0.500	0.370	1.040
2020/01/31 05:59:11.5	92.080	-0.510	0.350	1.070
2020/01/31 05:59:11.6	92.060	-0.520	0.330	1.100
2020/01/31 05:59:11.7	92.030	-0.520	0.290	1.130
2020/01/31 05:59:11.8	92.010	-0.510	0.250	1.150
2020/01/31 05:59:11.9	91.990	-0.500	0.190	1.170
2020/01/31 05:59:12.0	91.970	-0.480	0.130	1.190
2020/01/31 05:59:12.1	91.950	-0.460	0.050	1.200
2020/01/31 05:59:12.2	91.940	-0.430	-0.020	1.210
2020/01/31 05:59:12.3	91.910	-0.400	-0.110	1.210
2020/01/31 05:59:12.4	91.890	-0.360	-0.200	1.220
2020/01/31 05:59:12.5	91.870	-0.320	-0.290	1.220
2020/01/31 05:59:12.6	91.860	-0.270	-0.380	1.220
2020/01/31 05:59:12.7	91.840	-0.220	-0.480	1.210
2020/01/31 05:59:12.8	91.820	-0.170	-0.570	1.210
2020/01/31 05:59:12.9	91.810	-0.120	-0.660	1.200
2020/01/31 05:59:13.0	91.790	-0.070	-0.740	1.180
2020/01/31 05:59:13.1	91.770	-0.020	-0.820	1.160
2020/01/31 05:59:13.2	91.750	0.030	-0.900	1.140
2020/01/31 05:59:13.3	91.730	0.080	-0.970	1.120
2020/01/31 05:59:13.4	91.710	0.120	-1.020	1.100
2020/01/31 05:59:13.5	91.700	0.160	-1.060	1.070
2020/01/31 05:59:13.6	91.680	0.200	-1.100	1.040
2020/01/31 05:59:13.7	91.660	0.230	-1.120	1.010
2020/01/31 05:59:13.8	91.650	0.260	-1.130	0.970
2020/01/31 05:59:13.9	91.630	0.280	-1.130	0.940
2020/01/31 05:59:14.0	91.620	0.300	-1.110	0.900
2020/01/31 05:59:14.1	91.600	0.320	-1.080	0.870
2020/01/31 05:59:14.2	91.590	0.330	-1.050	0.840
2020/01/31 05:59:14.3	91.570	0.330	-1.000	0.800
2020/01/31 05:59:14.4	91.560	0.330	-0.940	0.770
2020/01/31 05:59:14.5	91.550	0.320	-0.870	0.740
2020/01/31 05:59:14.6	91.540	0.310	-0.790	0.710
2020/01/31 05:59:14.7	91.530	0.290	-0.710	0.680
2020/01/31 05:59:14.8	91.520	0.270	-0.620	0.660
2020/01/31 05:59:14.9	91.510	0.250	-0.520	0.630
2020/01/31 05:59:15.0	91.500	0.220	-0.420	0.610
2020/01/31 05:59:15.1	91.500	0.190	-0.320	0.590
2020/01/31 05:59:15.2	91.490	0.160	-0.210	0.560
2020/01/31 05:59:15.3	91.490	0.130	-0.110	0.550
2020/01/31 05:59:15.4	91.490	0.100	-0.010	0.530
2020/01/31 05:59:15.5	91.490	0.060	0.090	0.510
2020/01/31 05:59:15.6	91.490	0.030	0.180	0.490
2020/01/31 05:59:15.7	91.490	0.000	0.260	0.470
2020/01/31 05:59:15.8	91.490	-0.030	0.340	0.450
2020/01/31 05:59:15.9	91.490	-0.050	0.400	0.430
2020/01/31 05:59:16.0	91.500	-0.070	0.460	0.400
2020/01/31 05:59:16.1	91.510	-0.090	0.500	0.380
2020/01/31 05:59:16.2	91.490	-0.100	0.540	0.350
2020/01/31 05:59:16.3	91.500	-0.110	0.560	0.330
2020/01/31 05:59:16.4	91.510	-0.110	0.570	0.300
2020/01/31 05:59:16.5	91.520	-0.110	0.560	0.280
2020/01/31 05:59:16.6	91.540	-0.110	0.550	0.250
2020/01/31 05:59:16.7	91.560	-0.100	0.520	0.220
2020/01/31 05:59:16.8	91.570	-0.080	0.480	0.200
2020/01/31 05:59:16.9	91.590	-0.060	0.440	0.170
2020/01/31 05:59:17.0	91.620	-0.040	0.390	0.150
2020/01/31 05:59:17.1	91.640	-0.010	0.320	0.130
2020/01/31 05:59:17.2	91.660	0.010	0.260	0.110
2020/01/31 05:59:17.3	91.680	0.040	0.190	0.080
2020/01/31 05:59:17.4	91.700	0.080	0.110	0.070
2020/01/31 05:59:17.5	91.730	0.110	0.040	0.060
2020/01/31 05:59:17.6	91.750	0.140	-0.030	0.050
2020/01/31 05:59:17.7	91.770	0.170	-0.110	0.040
2020/01/31 05:59:17.8	91.800	0.200	-0.180	0.040
2020/01/31 05:59:17.9	91.820	0.230	-0.240	0.040
2020/01/31 05:59:18.0	91.840	0.260	-0.300	0.050
2020/01/31 05:59:18.1	91.860	0.280	-0.360	0.060
2020/01/31 05:59:18.2	91.880	0.300	-0.410	0.070
2020/01/31 05:59:18.3	91.910	0.320	-0.460	0.090
2020/01/31 05:59:18.4	91.920	0.340	-0.500	0.110
2020/01/31 05:59:18.5	91.940	0.350	-0.520	0.140
2020/01/31 05:59:18.6	91.960	0.350	-0.540	0.160
2020/01/31 05:59:18.7	91.970	0.360	-0.560	0.190
2020/01/31 05:59:18.8	91.980	0.350	-0.560	0.220
2020/01/31 05:59:18.9	91.990	0.350	-0.560	0.250
2020/01/31 05:59:19.0	92.000	0.330	-0.540	0.290
2020/01/31 05:59:19.1	92.010	0.320	-0.520	0.320
2020/01/31 05:59:19.2	92.010	0.300	-0.500	0.350
2020/01/31 05:59:19.3	92.010	0.280	-0.460	0.390
2020/01/31 05:59:19.4	92.010	0.250	-0.420	0.430
2020/01/31 05:59:19.5	92.020	0.220	-0.370	0.470
2020/01/31 05:59:19.6	92.020	0.190	-0.320	0.520
2020/01/31 05:59:19.7	92.010	0.150	-0.260	0.560
2020/01/31 05:59:19.8	92.010	0.110	-0.200	0.600
2020/01/31 05:59:19.9	92.010	0.080	-0.140	0.640
2020/01/31 05:59:20.0	92.000	0.040	-0.080	0.680
2020/01/31 05:59:20.1	92.000	-0.000	-0.020	0.720
2020/01/31 05:59:20.2	91.990	-0.040	0.050	0.760
2020/01/31 05:59:20.3	92.000	-0.080	0.110	0.800
2020/01/31 05:59:20.4	91.990	-0.120	0.160	0.840
2020/01/31 05:59:20.5	91.980	-0.160	0.210	0.880
2020/01/31 05:59:20.6	91.970	-0.190	0.260	0.910
2020/01/31 05:59:20.7	91.960	-0.220	0.300	0.950
2020/01/31 05:59:20.8	91.940	-0.250	0.330	0.980
2020/01/31 05:59:20.9	91.930	-0.280	0.360	1.010
2020/01/31 05:59:21.0	91.910	-0.300	0.380	1.040
2020/01/31 05:59:21.1	91.890	-0.310	0.390	1.070
2020/01/31 05:59:21.2	91.870	-0.330	0.390	1.100
2020/01/31 05:59:21.3	91.840	-0.340	0.380	1.120
2020/01/31 05:59:21.4	91.820	-0.340	0.360	1.140
2020/01/31 05:59:21.5	91.800	-0.340	0.340	1.160
2020/01/31 05:59:21.6	91.780	-0.340	0.300	1.170
2020/01/31 05:59:21.7	91.770	-0.330	0.260	1.180
2020/01/31 05:59:21.8	91.750	-0.310	0.210	1.190
2020/01/31 05:59:21.9	91.740	-0.290	0.160	1.190
2020/01/31 05:59:22.0	91.730	-0.270	0.100	1.190
2020/01/31 05:59:22.1	91.730	-0.250	0.030	1.180
2020/01/31 05:59:22.2	91.730	-0.220	-0.040	1.160
2020/01/31 05:59:22.3	91.720	-0.190	-0.120	1.140
2020/01/31 05:59:22.4	91.720	-0.150	-0.200	1.120
2020/01/31 05:59:22.5	91.730	-0.110	-0.270	1.090
2020/01/31 05:59:22.6	91.740	-0.070	-0.350	1.060
2020/01/31 05:59:22.7	91.760	-0.030	-0.430	1.030
2020/01/31 05:59:22.8	91.770	0.010	-0.510	0.990
2020/01/31 05:59:22.9	91.790	0.050	-0.580	0.950
2020/01/31 05:59:23.0	91.810	0.100	-0.650	0.910
2020/01/31 05:59:23.1	91.840	0.140	-0.720	0.870
2020/01/31 05:59:23.2	91.860	0.180	-0.780	0.840
2020/01/31 05:59:23.3	91.870	0.230	-0.840	0.800
2020/01/31 05:59:23.4	91.890	0.270	-0.890	0.760
2020/01/31 05:59:23.5	91.920	0.310	-0.930	0.720
2020/01/31 05:59:23.6	91.950	0.340	-0.970	0.690
2020/01/31 05:59:23.7	91.980	0.380	-0.990	0.650
2020/01/31 05:59:23.8	92.010	0.410	-1.010	0.620
2020/01/31 05:59:23.9	92.030	0.440	-1.020	0.590
2020/01/31 05:59:24.0	92.060	0.460	-1.030	0.570
2020/01/31 05:59:24.1	92.090	0.480	-1.020	0.550
2020/01/31 05:59:24.2	92.110	0.500	-1.010	0.520
2020/01/31 05:59:24.3	92.140	0.510	-0.980	0.510
2020/01/31 05:59:24.4	92.160	0.510	-0.950	0.490
2020/01/31 05:59:24.5	92.180	0.510	-0.910	0.480
2020/01/31 05:59:24.6	92.200	0.510	-0.860	0.470
2020/01/31 05:59:24.7	92.220	0.500	-0.810	0.460
2020/01/31 05:59:24.8	92.240	0.480	-0.760	0.460
2020/01/31 05:59:24.9	92.250	0.470	-0.700	0.450
2020/01/31 05:59:25.0	92.260	0.440	-0.630	0.450
2020/01/31 05:59:25.1	92.270	0.410	-0.560	0.460
2020/01/31 05:59:25.2	92.290	0.380	-0.490	0.460
2020/01/31 05:59:25.3	92.290	0.340	-0.420	0.470
2020/01/31 05:59:25.4	92.290	0.300	-0.350	0.480
2020/01/31 05:59:25.5	92.290	0.260	-0.270	0.500
2020/01/31 05:59:25.6	92.290	0.210	-0.200	0.510
2020/01/31 05:59:25.7	92.280	0.160	-0.120	0.530
2020/01/31 05:59:25.8	92.280	0.110	-0.050	0.550
2020/01/31 05:59:25.9	92.270	0.060	0.020	0.580
2020/01/31 05:59:26.0	92.260	0.010	0.080	0.600
2020/01/31 05:59:26.1	92.240	-0.050	0.150	0.630
2020/01/31 05:59:26.2	92.250	-0.100	0.210	0.660
2020/01/31 05:59:26.3	92.240	-0.160	0.260	0.700
2020/01/31 05:59:26.4	92.220	-0.210	0.310	0.730
2020/01/31 05:59:26.5	92.200	-0.260	0.350	0.770
2020/01/31 05:59:26.6	92.180	-0.310	0.390	0.800
2020/01/31 05:59:26.7	92.160	-0.360	0.420	0.840
2020/01/31 05:59:26.8	92.140	-0.410	0.450	0.880
2020/01/31 05:59:26.9	92.120	-0.450	0.460	0.910
2020/01/31 05:59:27.0	92.100	-0.490	0.480	0.950
2020/01/31 05:59:27.1	92.080	-0.520	0.480	0.990
2020/01/31 05:59:27.2	92.060	-0.560	0.480	1.020
2020/01/31 05:59:27.3	92.040	-0.580	0.480	1.040
2020/01/31 05:59:27.4	92.020	-0.610	0.460	1.070
2020/01/31 05:59:27.5	92.000	-0.630	0.440	1.090
2020/01/31 05:59:27.6	91.990	-0.640	0.420	1.110
2020/01/31 05:59:27.7	91.980	-0.650	0.380	1.130
2020/01/31 05:59:27.8	91.970	-0.660	0.350	1.140
2020/01/31 05:59:27.9	91.960	-0.660	0.300	1.140
2020/01/31 05:59:28.0	91.960	-0.650	0.250	1.140
2020/01/31 05:59:28.1	91.960	-0.640	0.200	1.130
2020/01/31 05:59:28.2	91.960	-0.620	0.140	1.120
2020/01/31 05:59:28.3	91.970	-0.600	0.070	1.100
2020/01/31 05:59:28.4	91.970	-0.580	0.000	1.080
2020/01/31 05:59:28.5	91.980	-0.540	-0.070	1.060
2020/01/31 05:59:28.6	91.990	-0.510	-0.150	1.030
2020/01/31 05:59:28.7	92.010	-0.470	-0.220	1.000
2020/01/31 05:59:28.8	92.020	-0.430	-0.300	0.970
2020/01/31 05:59:28.9	92.040	-0.380	-0.380	0.930
2020/01/31 05:59:29.0	92.060	-0.330	-0.460	0.900
2020/01/31 05:59:29.1	92.080	-0.280	-0.540	0.860
2020/01/31 05:59:29.2	92.110	-0.220	-0.610	0.820
2020/01/31 05:59:29.3	92.130	-0.170	-0.680	0.780
2020/01/31 05:59:29.4	92.150	-0.110	-0.740	0.750
2020/01/31 05:59:29.5	92.180	-0.050	-0.800	0.710
2020/01/31 05:59:29.6	92.200	0.000	-0.850	0.680
2020/01/31 05:59:29.7	92.220	0.060	-0.900	0.640
2020/01/31 05:59:29.8	92.250	0.120	-0.940	0.610
2020/01/31 05:59:29.9	92.270	0.170	-0.970	0.580
2020/01/31 05:59:30.0	92.290	0.220	-0.990	0.550
2020/01/31 05:59:30.1	92.310	0.270	-1.000	0.520
2020/01/31 05:59:30.2	92.330	0.310	-1.010	0.500
2020/01/31 05:59:30.3	92.340	0.360	-1.000	0.480
2020/01/31 05:59:30.4	92.350	0.390	-0.990	0.470
2020/01/31 05:59:30.5	92.360	0.430	-0.970	0.450
2020/01/31 05:59:30.6	92.370	0.460	-0.940	0.440
2020/01/31 05:59:30.7	92.370	0.490	-0.900	0.440
2020/01/31 05:59:30.8	92.380	0.510	-0.850	0.440
2020/01/31 05:59:30.9	92.380	0.520	-0.800	0.440
2020/01/31 05:59:31.0	92.380	0.540	-0.740	0.440
2020/01/31 05:59:31.1	92.380	0.540	-0.680	0.450
2020/01/31 05:59:31.2	92.370	0.550	-0.600	0.460
2020/01/31 05:59:31.3	92.380	0.540	-0.530	0.460
2020/01/31 05:59:31.4	92.370	0.540	-0.450	0.480
2020/01/31 05:59:31.5	92.360	0.530	-0.370	0.490
2020/01/31 05:59:31.6	92.350	0.510	-0.290	0.510
2020/01/31 05:59:31.7	92.340	0.500	-0.200	0.520
2020/01/31 05:59:31.8	92.340	0.470	-0.120	0.540
2020/01/31 05:59:31.9	92.330	0.450	-0.030	0.560
2020/01/31 05:59:32.0	92.320	0.420	0.050	0.570
2020/01/31 05:59:32.1	92.310	0.390	0.140	0.590
2020/01/31 05:59:32.2	92.300	0.360	0.220	0.600
2020/01/31 05:59:32.3	92.300	0.320	0.300	0.620
2020/01/31 05:59:32.4	92.290	0.280	0.370	0.630
2020/01/31 05:59:32.5	92.280	0.250	0.440	0.640
2020/01/31 05:59:32.6	92.270	0.210	0.510	0.640
2020/01/31 05:59:32.7	92.270	0.170	0.570	0.650
2020/01/31 05:59:32.8	92.260	0.130	0.620	0.650
2020/01/31 05:59:32.9	92.260	0.090	0.660	0.640
2020/01/31 05:59:33.0	92.250	0.050	0.700	0.640
2020/01/31 05:59:33.1	92.250	0.020	0.730	0.630
2020/01/31 05:59:33.2	92.250	-0.020	0.750	0.610
2020/01/31 05:59:33.3	92.260	-0.050	0.760	0.590
2020/01/31 05:59:33.4	92.260	-0.080	0.770	0.580
2020/01/31 05:59:33.5	92.260	-0.110	0.760	0.560
2020/01/31 05:59:33.6	92.260	-0.140	0.750	0.530
2020/01/31 05:59:33.7	92.270	-0.160	0.720	0.510
2020/01/31 05:59:33.8	92.270	-0.180	0.690	0.480
2020/01/31 05:59:33.9	92.280	-0.190	0.650	0.460
2020/01/31 05:59:34.0	92.280	-0.200	0.600	0.430
2020/01/31 05:59:34.1	92.290	-0.210	0.550	0.400
2020/01/31 05:59:34.2	92.300	-0.220	0.480	0.370
2020/01/31 05:59:34.3	92.300	-0.220	0.410	0.340
2020/01/31 05:59:34.4	92.310	-0.210	0.340	0.310
2020/01/31 05:59:34.5	92.320	-0.210	0.260	0.270
2020/01/31 05:59:34.6	92.330	-0.200	0.170	0.240
2020/01/31 05:59:34.7	92.340	-0.180	0.090	0.210
2020/01/31 05:59:34.8	92.350	-0.170	-0.000	0.190
2020/01/31 05:59:34.9	92.360	-0.150	-0.100	0.160
2020/01/31 05:59:35.0	92.380	-0.130	-0.190	0.130
2020/01/31 05:59:35.1	92.390	-0.100	-0.280	0.110
2020/01/31 05:59:35.2	92.410	-0.070	-0.380	0.090
2020/01/31 05:59:35.3	92.400	-0.050	-0.470	0.070
2020/01/31 05:59:35.4	92.420	-0.020	-0.560	0.060
2020/01/31 05:59:35.5	92.440	0.010	-0.650	0.050
2020/01/31 05:59:35.6	92.450	0.040	-0.730	0.040
2020/01/31 05:59:35.7	92.470	0.070	-0.800	0.040
2020/01/31 05:59:35.8	92.490	0.100	-0.880	0.040
2020/01/31 05:59:35.9	92.510	0.130	-0.940	0.050
2020/01/31 05:59:36.0	92.530	0.160	-1.000	0.060
2020/01/31 05:59:36.1	92.550	0.180	-1.050	0.070
2020/01/31 05:59:36.2	92.570	0.210	-1.090	0.090
2020/01/31 05:59:36.3	92.590	0.230	-1.130	0.110
2020/01/31 05:59:36.4	92.610	0.250	-1.150	0.130
2020/01/31 05:59:36.5	92.630	0.260	-1.170	0.160
2020/01/31 05:59:36.6	92.640	0.270	-1.180	0.200
2020/01/31 05:59:36.7	92.660	0.280	-1.180	0.240
2020/01/31 05:59:36.8	92.680	0.280	-1.170	0.280
2020/01/31 05:59:36.9	92.690	0.280	-1.150	0.330
2020/01/31 05:59:37.0	92.710	0.280	-1.120	0.380
2020/01/31 05:59:37.1	92.720	0.270	-1.090	0.440
2020/01/31 05:59:37.2	92.730	0.260	-1.050	0.490
2020/01/31 05:59:37.3	92.730	0.240	-1.000	0.550
2020/01/31 05:59:37.4	92.730	0.220	-0.940	0.610
2020/01/31 05:59:37.5	92.730	0.200	-0.880	0.670
2020/01/31 05:59:37.6	92.730	0.170	-0.820	0.730
2020/01/31 05:59:37.7	92.730	0.140	-0.750	0.780
2020/01/31 05:59:37.8	92.720	0.110	-0.680	0.840
2020/01/31 05:59:37.9	92.720	0.080	-0.610	0.890
2020/01/31 05:59:38.0	92.700	0.040	-0.530	0.950
2020/01/31 05:59:38.1	92.690	0.010	-0.460	1.000
2020/01/31 05:59:38.2	92.680	-0.030	-0.380	1.040
2020/01/31 05:59:38.3	92.660	-0.070	-0.300	1.090
2020/01/31 05:59:38.4	92.640	-0.110	-0.230	1.130
2020/01/31 05:59:38.5	92.620	-0.150	-0.160	1.160
2020/01/31 05:59:38.6	92.600	-0.180	-0.090	1.190
2020/01/31 05:59:38.7	92.580	-0.220	-0.020	1.220
2020/01/31 05:59:38.8	92.560	-0.250	0.040	1.240
2020/01/31 05:59:38.9	92.540	-0.280	0.090	1.260
2020/01/31 05:59:39.0	92.520	-0.310	0.140	1.270
2020/01/31 05:59:39.1	92.500	-0.340	0.190	1.280
2020/01/31 05:59:39.2	92.470	-0.360	0.230	1.280
2020/01/31 05:59:39.3	92.470	-0.380	0.260	1.280
2020/01/31 05:59:39.4	92.450	-0.390	0.290	1.280
2020/01/31 05:59:39.5	92.430	-0.400	0.310	1.280
2020/01/31 05:59:39.6	92.410	-0.410	0.320	1.270
2020/01/31 05:59:39.7	92.400	-0.410	0.320	1.260
2020/01/31 05:59:39.8	92.380	-0.410	0.320	1.250
2020/01/31 05:59:39.9	92.370	-0.410	0.310	1.240
2020/01/31 05:59:40.0	92.350	-0.400	0.300	1.230
2020/01/31 05:59:40.1	92.340	-0.380	0.280	1.210
2020/01/31 05:59:40.2	92.340	-0.360	0.260	1.200
2020/01/31 05:59:40.3	92.320	-0.340	0.220	1.180
2020/01/31 05:59:40.4	92.310	-0.320	0.190	1.160
2020/01/31 05:59:40.5	92.310	-0.290	0.150	1.140
2020/01/31 05:59:40.6	92.310	-0.260	0.110	1.110
2020/01/31 05:59:40.7	92.310	-0.230	0.070	1.090
2020/01/31 05:59:40.8	92.310	-0.200	0.030	1.060
2020/01/31 05:59:40.9	92.320	-0.160	-0.010	1.030
2020/01/31 05:59:41.0	92.330	-0.130	-0.060	1.000
2020/01/31 05:59:41.1	92.330	-0.090	-0.100	0.970
2020/01/31 05:59:41.2	92.340	-0.060	-0.140	0.930
2020/01/31 05:59:41.3	92.360	-0.020	-0.190	0.900
2020/01/31 05:59:41.4	92.370	0.010	-0.220	0.860
2020/01/31 05:59:41.5	92.380	0.040	-0.260	0.820
2020/01/31 05:59:41.6	92.400	0.070	-0.290	0.780
2020/01/31 05:59:41.7	92.410	0.100	-0.320	0.740
2020/01/31 05:59:41.8	92.420	0.120	-0.340	0.700
2020/01/31 05:59:41.9	92.430	0.140	-0.360	0.650
2020/01/31 05:59:42.0	92.450	0.160	-0.370	0.610
2020/01/31 05:59:42.1	92.460	0.180	-0.380	0.560
2020/01/31 05:59:42.2	92.470	0.190	-0.380	0.520
2020/01/31 05:59:42.3	92.480	0.200	-0.380	0.480
2020/01/31 05:59:42.4	92.490	0.200	-0.370	0.430
2020/01/31 05:59:42.5	92.500	0.210	-0.360	0.390
2020/01/31 05:59:42.6	92.510	0.210	-0.340	0.350
2020/01/31 05:59:42.7	92.510	0.200	-0.320	0.310
2020/01/31 05:59:42.8	92.520	0.200	-0.290	0.270
2020/01/31 05:59:42.9	92.520	0.190	-0.260	0.240
2020/01/31 05:59:43.0	92.520	0.180	-0.230	0.210
2020/01/31 05:59:43.1	92.530	0.160	-0.190	0.180
2020/01/31 05:59:43.2	92.530	0.150	-0.150	0.150
2020/01/31 05:59:43.3	92.530	0.130	-0.110	0.130
2020/01/31 05:59:43.4	92.530	0.110	-0.070	0.110
2020/01/31 05:59:43.5	92.530	0.100	-0.020	0.100
2020/01/31 05:59:43.6	92.520	0.080	0.020	0.080
2020/01/31 05:59:43.7	92.520	0.060	0.050	0.070
2020/01/31 05:59:43.8	92.520	0.040	0.090	0.070
2020/01/31 05:59:43.9	92.520	0.020	0.120	0.060
2020/01/31 05:59:44.0	92.530	0.000	0.150	0.060
2020/01/31 05:59:44.1	92.530	-0.020	0.170	0.060
2020/01/31 05:59:44.2	92.530	-0.030	0.190	0.060
2020/01/31 05:59:44.3	92.540	-0.050	0.190	0.070
2020/01/31 05:59:44.4	92.550	-0.060	0.200	0.080
2020/01/31 05:59:44.5	92.550	-0.070	0.190	0.080
2020/01/31 05:59:44.6	92.560	-0.080	0.180	0.090
2020/01/31 05:59:44.7	92.580	-0.090	0.170	0.100
2020/01/31 05:59:44.8	92.590	-0.090	0.140	0.110
2020/01/31 05:59:44.9	92.600	-0.100	0.110	0.130
2020/01/31 05:59:45.0	92.620	-0.100	0.080	0.140
2020/01/31 05:59:45.1	92.630	-0.100	0.030	0.150
2020/01/31 05:59:45.2	92.650	-0.090	-0.020	0.170
2020/01/31 05:59:45.3	92.680	-0.090	-0.070	0.180
2020/01/31 05:59:45.4	92.700	-0.080	-0.130	0.200
2020/01/31 05:59:45.5	92.720	-0.070	-0.190	0.210
2020/01/31 05:59:45.6	92.740	-0.060	-0.260	0.230
2020/01/31 05:59:45.7	92.760	-0.050	-0.330	0.250
2020/01/31 05:59:45.8	92.780	-0.030	-0.400	0.260
2020/01/31 05:59:45.9	92.800	-0.020	-0.470	0.280
2020/01/31 05:59:46.0	92.820	0.000	-0.550	0.300
2020/01/31 05:59:46.1	92.830	0.020	-0.620	0.320
2020/01/31 05:59:46.2	92.860	0.040	-0.700	0.340
2020/01/31 05:59:46.3	92.870	0.060	-0.760	0.360
2020/01/31 05:59:46.4	92.890	0.080	-0.830	0.390
2020/01/31 05:59:46.5	92.900	0.100	-0.890	0.410
2020/01/31 05:59:46.6	92.910	0.120	-0.940	0.440
2020/01/31 05:59:46.7	92.920	0.140	-0.980	0.470
2020/01/31 05:59:46.8	92.920	0.160	-1.020	0.500
2020/01/31 05:59:46.9	92.930	0.180	-1.050	0.530
2020/01/31 05:59:47.0	92.930	0.200	-1.080	0.560
2020/01/31 05:59:47.1	92.930	0.210	-1.090	0.600
2020/01/31 05:59:47.2	92.930	0.230	-1.090	0.640
2020/01/31 05:59:47.3	92.910	0.240	-1.090	0.680
2020/01/31 05:59:47.4	92.910	0.250	-1.070	0.720
2020/01/31 05:59:47.5	92.900	0.250	-1.050	0.760
2020/01/31 05:59:47.6	92.890	0.250	-1.010	0.800
2020/01/31 05:59:47.7	92.880	0.250	-0.960	0.850
2020/01/31 05:59:47.8	92.870	0.250	-0.910	0.890
2020/01/31 05:59:47.9	92.850	0.240	-0.840	0.940
2020/01/31 05:59:48.0	92.840	0.230	-0.770	0.990
2020/01/31 05:59:48.1	92.820	0.220	-0.690	1.030
2020/01/31 05:59:48.2	92.810	0.200	-0.600	1.080
2020/01/31 05:59:48.3	92.770	0.180	-0.500	1.120
2020/01/31 05:59:48.4	92.760	0.150	-0.400	1.160
2020/01/31 05:59:48.5	92.740	0.120	-0.300	1.210
2020/01/31 05:59:48.6	92.720	0.090	-0.190	1.250
2020/01/31 05:59:48.7	92.700	0.060	-0.080	1.290
2020/01/31 05:59:48.8	92.680	0.020	0.020	1.330
2020/01/31 05:59:48.9	92.660	-0.020	0.130	1.370
2020/01/31 05:59:49.0	92.640	-0.060	0.240	1.410
2020/01/31 05:59:49.1	92.620	-0.110	0.340	1.440
2020/01/31 05:59:49.2	92.600	-0.150	0.440	1.470
2020/01/31 05:59:49.3	92.590	-0.200	0.540	1.500
2020/01/31 05:59:49.4	92.580	-0.250	0.630	1.520
2020/01/31 05:59:49.5	92.560	-0.290	0.710	1.540
2020/01/31 05:59:49.6	92.540	-0.340	0.780	1.550
2020/01/31 05:59:49.7	92.530	-0.380	0.850	1.560
2020/01/31 05:59:49.8	92.520	-0.420	0.900	1.560
2020/01/31 05:59:49.9	92.510	-0.460	0.940	1.560
2020/01/31 05:59:50.0	92.500	-0.500	0.980	1.550
2020/01/31 05:59:50.1	92.490	-0.530	1.000	1.530
2020/01/31 05:59:50.2	92.480	-0.560	1.010	1.510
2020/01/31 05:59:50.3	92.470	-0.580	1.000	1.480
2020/01/31 05:59:50.4	92.470	-0.600	0.990	1.450
2020/01/31 05:59:50.5	92.470	-0.610	0.960	1.410
2020/01/31 05:59:50.6	92.470	-0.620	0.920	1.370
2020/01/31 05:59:50.7	92.470	-0.620	0.860	1.320
2020/01/31 05:59:50.8	92.480	-0.610	0.800	1.270
2020/01/31 05:59:50.9	92.480	-0.600	0.720	1.210
2020/01/31 05:59:51.0	92.490	-0.570	0.630	1.150
2020/01/31 05:59:51.1	92.500	-0.540	0.520	1.090
2020/01/31 05:59:51.2	92.510	-0.510	0.410	1.030
2020/01/31 05:59:51.3	92.530	-0.460	0.290	0.960
2020/01/31 05:59:51.4	92.540	-0.410	0.150	0.900
2020/01/31 05:59:51.5	92.550	-0.350	0.010	0.830
2020/01/31 05:59:51.6	92.560	-0.280	-0.130	0.770
2020/01/31 05:59:51.7	92.580	-0.210	-0.280	0.710
2020/01/31 05:59:51.8	92.590	-0.140	-0.430	0.640
2020/01/31 05:59:51.9	92.610	-0.060	-0.590	0.580
2020/01/31 05:59:52.0	92.630	0.030	-0.740	0.520
2020/01/31 05:59:52.1	92.640	0.110	-0.880	0.470
2020/01/31 05:59:52.2	92.660	0.200	-1.030	0.410
2020/01/31 05:59:52.3	92.690	0.290	-1.170	0.360
2020/01/31 05:59:52.4	92.700	0.380	-1.300	0.310
2020/01/31 05:59:52.5	92.720	0.470	-1.420	0.270
2020/01/31 05:59:52.6	92.730	0.550	-1.520	0.230
2020/01/31 05:59:52.7	92.740	0.630	-1.610	0.200
2020/01/31 05:59:52.8	92.750	0.700	-1.690	0.170
2020/01/31 05:59:52.9	92.760	0.770	-1.740	0.150
2020/01/31 05:59:53.0	92.760	0.830	-1.780	0.130
2020/01/31 05:59:53.1	92.770	0.880	-1.800	0.110
2020/01/31 05:59:53.2	92.770	0.930	-1.800	0.100
2020/01/31 05:59:53.3	92.750	0.960	-1.780	0.090
2020/01/31 05:59:53.4	92.750	0.980	-1.740	0.090
2020/01/31 05:59:53.5	92.750	1.000	-1.680	0.080
2020/01/31 05:59:53.6	92.740	1.000	-1.610	0.080
2020/01/31 05:59:53.7	92.730	0.990	-1.520	0.080
2020/01/31 05:59:53.8	92.720	0.980	-1.410	0.090
2020/01/31 05:59:53.9	92.710	0.950	-1.290	0.090
2020/01/31 05:59:54.0	92.700	0.910	-1.160	0.100
2020/01/31 05:59:54.1	92.690	0.870	-1.010	0.110
2020/01/31 05:59:54.2	92.680	0.810	-0.850	0.120
2020/01/31 05:59:54.3	92.670	0.750	-0.680	0.130
2020/01/31 05:59:54.4	92.660	0.670	-0.500	0.140
2020/01/31 05:59:54.5	92.640	0.590	-0.320	0.160
2020/01/31 05:59:54.6	92.620	0.500	-0.140	0.170
2020/01/31 05:59:54.7	92.600	0.410	0.050	0.190
2020/01/31 05:59:54.8	92.580	0.310	0.230	0.210
2020/01/31 05:59:54.9	92.570	0.210	0.410	0.230
2020/01/31 05:59:55.0	92.550	0.110	0.590	0.250
2020/01/31 05:59:55.1	92.530	0.000	0.760	0.280
2020/01/31 05:59:55.2	92.520	-0.100	0.930	0.300
2020/01/31 05:59:55.3	92.500	-0.210	1.080	0.330
2020/01/31 05:59:55.4	92.490	-0.310	1.230	0.360
2020/01/31 05:59:55.5	92.490	-0.410	1.350	0.380
2020/01/31 05:59:55.6	92.480	-0.510	1.470	0.400
2020/01/31 05:59:55.7	92.480	-0.600	1.560	0.430
2020/01/31 05:59:55.8	92.480	-0.690	1.640	0.450
2020/01/31 05:59:55.9	92.480	-0.770	1.700	0.470
2020/01/31 05:59:56.0	92.480	-0.850	1.750	0.500
2020/01/31 05:59:56.1	92.490	-0.910	1.770	0.520
2020/01/31 05:59:56.2	92.500	-0.970	1.770	0.540
2020/01/31 05:59:56.3	92.500	-1.010	1.760	0.540
2020/01/31 05:59:56.4	92.520	-1.050	1.720	0.560
2020/01/31 05:59:56.5	92.530	-1.080	1.660	0.580
2020/01/31 05:59:56.6	92.550	-1.100	1.590	0.590
2020/01/31 05:59:56.7	92.560	-1.110	1.490	0.600
2020/01/31 05:59:56.8	92.580	-1.110	1.380	0.610
2020/01/31 05:59:56.9	92.600	-1.100	1.250	0.620
2020/01/31 05:59:57.0	92.610	-1.070	1.110	0.630
2020/01/31 05:59:57.1	92.630	-1.040	0.950	0.630
2020/01/31 05:59:57.2	92.650	-1.010	0.780	0.640
2020/01/31 05:59:57.3	92.660	-0.960	0.600	0.640
2020/01/31 05:59:57.4	92.670	-0.900	0.410	0.650
2020/01/31 05:59:57.5	92.690	-0.840	0.210	0.650
2020/01/31 05:59:57.6	92.700	-0.770	0.020	0.650
2020/01/31 05:59:57.7	92.710	-0.700	-0.190	0.650
2020/01/31 05:59:57.8	92.720	-0.620	-0.390	0.660
2020/01/31 05:59:57.9	92.720	-0.540	-0.590	0.660
2020/01/31 05:59:58.0	92.730	-0.450	-0.790	0.660
2020/01/31 05:59:58.1	92.730	-0.360	-0.980	0.670
2020/01/31 05:59:58.2	92.730	-0.270	-1.160	0.680
2020/01/31 05:59:58.3	92.720	-0.180	-1.350	0.680
2020/01/31 05:59:58.4	92.720	-0.090	-1.510	0.700
2020/01/31 05:59:58.5	92.700	-0.010	-1.660	0.720
2020/01/31 05:59:58.6	92.690	0.080	-1.800	0.740
2020/01/31 05:59:58.7	92.670	0.160	-1.920	0.760
2020/01/31 05:59:58.8	92.650	0.240	-2.030	0.790
2020/01/31 05:59:58.9	92.630	0.320	-2.110	0.820
2020/01/31 05:59:59.0	92.600	0.390	-2.180	0.860
2020/01/31 05:59:59.1	92.580	0.460	-2.230	0.900
2020/01/31 05:59:59.2	92.550	0.520	-2.270	0.940
2020/01/31 05:59:59.3	92.490	0.570	-2.280	0.980
2020/01/31 05:59:59.4	92.460	0.620	-2.270	1.020
2020/01/31 05:59:59.5	92.430	0.660	-2.250	1.070
2020/01/31 05:59:59.6	92.400	0.690	-2.210	1.120
2020/01/31 05:59:59.7	92.360	0.720	-2.150	1.160
2020/01/31 05:59:59.8	92.330	0.740	-2.080	1.210
2020/01/31 05:59:59.9	92.300	0.750	-1.990	1.260
2020/01/31 06:00:00.0	92.260	0.760	-1.880	1.300
2020/01/31 06:00:00.1	92.230	0.760	-1.770	1.340
2020/01/31 06:00:00.2	92.200	0.750	-1.640	1.380
2020/01/31 06:00:00.3	92.170	0.740	-1.500	1.410
2020/01/31 06:00:00.4	92.140	0.720	-1.350	1.440
2020/01/31 06:00:00.5	92.120	0.700	-1.200	1.460
2020/01/31 06:00:00.6	92.100	0.670	-1.040	1.470
2020/01/31 06:00:00.7	92.080	0.630	-0.880	1.480
2020/01/31 06:00:00.8	92.060	0.600	-0.710	1.480
2020/01/31 06:00:00.9	92.050	0.560	-0.540	1.470
2020/01/31 06:00:01.0	92.040	0.510	-0.380	1.460
2020/01/31 06:00:01.1	92.030	0.470	-0.210	1.440
2020/01/31 06:00:01.2	92.030	0.420	-0.050	1.410
2020/01/31 06:00:01.3	92.030	0.370	0.110	1.380
2020/01/31 06:00:01.4	92.030	0.320	0.270	1.340
2020/01/31 06:00:01.5	92.030	0.270	0.410	1.300
2020/01/31 06:00:01.6	92.030	0.220	0.550	1.260
2020/01/31 06:00:01.7	92.030	0.170	0.680	1.220
2020/01/31 06:00:01.8	92.040	0.120	0.810	1.170
2020/01/31 06:00:01.9	92.040	0.070	0.920	1.120
2020/01/31 06:00:02.0	92.050	0.020	1.020	1.080
2020/01/31 06:00:02.1	92.050	-0.030	1.120	1.030
2020/01/31 06:00:02.2	92.050	-0.070	1.200	0.990
2020/01/31 06:00:02.3	92.070	-0.110	1.280	0.940
2020/01/31 06:00:02.4	92.070	-0.160	1.340	0.900
2020/01/31 06:00:02.5	92.060	-0.190	1.390	0.860
2020/01/31 06:00:02.6	92.060	-0.230	1.420	0.820
2020/01/31 06:00:02.7	92.050	-0.270	1.450	0.790
2020/01/31 06:00:02.8	92.040	-0.300	1.460	0.750
2020/01/31 06:00:02.9	92.030	-0.330	1.470	0.710
2020/01/31 06:00:03.0	92.020	-0.350	1.460	0.680
2020/01/31 06:00:03.1	92.010	-0.380	1.440	0.640
2020/01/31 06:00:03.2	92.000	-0.400	1.410	0.600
2020/01/31 06:00:03.3	91.990	-0.410	1.370	0.570
2020/01/31 06:00:03.4	91.970	-0.430	1.320	0.530
2020/01/31 06:00:03.5	91.960	-0.440	1.270	0.490
2020/01/31 06:00:03.6	91.960	-0.450	1.200	0.450
2020/01/31 06:00:03.7	91.950	-0.460	1.130	0.400
2020/01/31 06:00:03.8	91.940	-0.460	1.040	0.360
2020/01/31 06:00:03.9	91.940	-0.460	0.960	0.320
2020/01/31 06:00:04.0	91.930	-0.460	0.860	0.270
2020/01/31 06:00:04.1	91.930	-0.450	0.760	0.230
2020/01/31 06:00:04.2	91.930	-0.440	0.650	0.180
2020/01/31 06:00:04.3	91.940	-0.430	0.530	0.140
2020/01/31 06:00:04.4	91.950	-0.410	0.420	0.090
2020/01/31 06:00:04.5	91.960	-0.390	0.290	0.050
2020/01/31 06:00:04.6	91.970	-0.370	0.170	0.020
2020/01/31 06:00:04.7	91.980	-0.350	0.040	-0.020
2020/01/31 06:00:04.8	92.000	-0.320	-0.080	-0.050
2020/01/31 06:00:04.9	92.020	-0.290	-0.210	-0.080
2020/01/31 06:00:05.0	92.040	-0.260	-0.330	-0.100
2020/01/31 06:00:05.1	92.060	-0.220	-0.460	-0.120
2020/01/31 06:00:05.2	92.080	-0.190	-0.580	-0.130
2020/01/31 06:00:05.3	92.120	-0.150	-0.700	-0.150
2020/01/31 06:00:05.4	92.150	-0.110	-0.810	-0.150
2020/01/31 06:00:05.5	92.180	-0.070	-0.910	-0.150
2020/01/31 06:00:05.6	92.220	-0.040	-1.010	-0.150
2020/01/31 06:00:05.7	92.250	0.000	-1.100	-0.150
2020/01/31 06:00:05.8	92.290	0.040	-1.180	-0.140
2020/01/31 06:00:05.9	92.320	0.080	-1.250	-0.120
2020/01/31 06:00:06.0	92.360	0.110	-1.310	-0.110
2020/01/31 06:00:06.1	92.400	0.150	-1.360	-0.090
2020/01/31 06:00:06.2	92.440	0.180	-1.400	-0.060
2020/01/31 06:00:06.3	92.490	0.210	-1.430	-0.040
2020/01/31 06:00:06.4	92.520	0.240	-1.450	-0.010
2020/01/31 06:00:06.5	92.550	0.270	-1.460	0.020
2020/01/31 06:00:06.6	92.580	0.290	-1.450	0.050
2020/01/31 06:00:06.7	92.610	0.310	-1.440	0.090
2020/01/31 06:00:06.8	92.630	0.330	-1.420	0.130
2020/01/31 06:00:06.9	92.650	0.340	-1.380	0.170
2020/01/31 06:00:07.0	92.660	0.350	-1.340	0.210
2020/01/31 06:00:07.1	92.670	0.360	-1.290	0.260
2020/01/31 06:00:07.2	92.680	0.360	-1.230	0.310
2020/01/31 06:00:07.3	92.680	0.360	-1.160	0.360
2020/01/31 06:00:07.4	92.680	0.360	-1.090	0.420
2020/01/31 06:00:07.5	92.670	0.360	-1.010	0.470
2020/01/31 06:00:07.6	92.660	0.350	-0.930	0.530
2020/01/31 06:00:07.7	92.650	0.340	-0.850	0.590
2020/01/31 06:00:07.8	92.630	0.320	-0.760	0.660
2020/01/31 06:00:07.9	92.610	0.310	-0.670	0.720
2020/01/31 06:00:08.0	92.590	0.290	-0.580	0.790
2020/01/31 06:00:08.1	92.570	0.270	-0.500	0.850
2020/01/31 06:00:08.2	92.540	0.240	-0.410	0.920
2020/01/31 06:00:08.3	92.510	0.220	-0.320	0.980
2020/01/31 06:00:08.4	92.480	0.190	-0.230	1.050
2020/01/31 06:00:08.5	92.450	0.160	-0.150	1.110
2020/01/31 06:00:08.6	92.420	0.130	-0.070	1.170
2020/01/31 06:00:08.7	92.390	0.100	0.000	1.230
2020/01/31 06:00:08.8	92.360	0.070	0.070	1.290
2020/01/31 06:00:08.9	92.340	0.040	0.140	1.340
2020/01/31 06:00:09.0	92.310	0.010	0.200	1.390
2020/01/31 06:00:09.1	92.280	-0.020	0.250	1.440
2020/01/31 06:00:09.2	92.260	-0.050	0.300	1.480
2020/01/31 06:00:09.3	92.220	-0.070	0.340	1.520
2020/01/31 06:00:09.4	92.200	-0.100	0.380	1.550
2020/01/31 06:00:09.5	92.180	-0.120	0.400	1.580
2020/01/31 06:00:09.6	92.170	-0.140	0.420	1.610
2020/01/31 06:00:09.7	92.150	-0.160	0.440	1.630
2020/01/31 06:00:09.8	92.140	-0.180	0.440	1.640
2020/01/31 06:00:09.9	92.130	-0.190	0.440	1.650
2020/01/31 06:00:10.0	92.120	-0.200	0.430	1.650
2020/01/31 06:00:10.1	92.120	-0.210	0.420	1.650
2020/01/31 06:00:10.2	92.110	-0.210	0.390	1.640
2020/01/31 06:00:10.3	92.110	-0.210	0.360	1.620
2020/01/31 06:00:10.4	92.110	-0.200	0.320	1.610
2020/01/31 06:00:10.5	92.110	-0.190	0.270	1.590
2020/01/31 06:00:10.6	92.110	-0.180	0.220	1.560
2020/01/31 06:00:10.7	92.120	-0.160	0.160	1.540
2020/01/31 06:00:10.8	92.120	-0.140	0.100	1.510
2020/01/31 06:00:10.9	92.130	-0.120	0.030	1.470
2020/01/31 06:00:11.0	92.140	-0.090	-0.050	1.440
2020/01/31 06:00:11.1	92.140	-0.060	-0.120	1.400
2020/01/31 06:00:11.2	92.150	-0.030	-0.200	1.360
2020/01/31 06:00:11.3	92.160	0.010	-0.280	1.320
2020/01/31 06:00:11.4	92.170	0.050	-0.360	1.270
2020/01/31 06:00:11.5	92.180	0.090	-0.440	1.220
2020/01/31 06:00:11.6	92.200	0.130	-0.510	1.170
2020/01/31 06:00:11.7	92.210	0.170	-0.580	1.110
2020/01/31 06:00:11.8	92.220	0.210	-0.650	1.060
2020/01/31 06:00:11.9	92.230	0.240	-0.710	1.010
2020/01/31 06:00:12.0	92.240	0.280	-0.760	0.950
2020/01/31 06:00:12.1	92.260	0.320	-0.810	0.900
2020/01/31 06:00:12.2	92.270	0.350	-0.850	0.850
2020/01/31 06:00:12.3	92.270	0.380	-0.880	0.790
2020/01/31 06:00:12.4	92.290	0.410	-0.900	0.740
2020/01/31 06:00:12.5	92.300	0.430	-0.910	0.690
2020/01/31 06:00:12.6	92.310	0.450	-0.910	0.650
2020/01/31 06:00:12.7	92.320	0.460	-0.900	0.610
2020/01/31 06:00:12.8	92.330	0.470	-0.880	0.570
2020/01/31 06:00:12.9	92.340	0.480	-0.850	0.540
2020/01/31 06:00:13.0	92.350	0.480	-0.800	0.510
2020/01/31 06:00:13.1	92.360	0.470	-0.750	0.480
2020/01/31 06:00:13.2	92.380	0.460	-0.690	0.470
2020/01/31 06:00:13.3	92.390	0.440	-0.620	0.450
2020/01/31 06:00:13.4	92.400	0.420	-0.550	0.430
2020/01/31 06:00:13.5	92.410	0.390	-0.460	0.420
2020/01/31 06:00:13.6	92.420	0.360	-0.370	0.410
2020/01/31 06:00:13.7	92.420	0.320	-0.280	0.400
2020/01/31 06:00:13.8	92.430	0.280	-0.180	0.400
2020/01/31 06:00:13.9	92.440	0.230	-0.080	0.400
2020/01/31 06:00:14.0	92.440	0.190	0.030	0.400
2020/01/31 06:00:14.1	92.450	0.130	0.130	0.410
2020/01/31 06:00:14.2	92.450	0.080	0.230	0.410
2020/01/31 06:00:14.3	92.460	0.020	0.330	0.420
2020/01/31 06:00:14.4	92.460	-0.030	0.430	0.420
2020/01/31 06:00:14.5	92.470	-0.090	0.520	0.430
2020/01/31 06:00:14.6	92.480	-0.150	0.600	0.440
2020/01/31 06:00:14.7	92.480	-0.210	0.680	0.450
2020/01/31 06:00:14.8	92.490	-0.260	0.750	0.460
2020/01/31 06:00:14.9	92.500	-0.320	0.810	0.470
2020/01/31 06:00:15.0	92.510	-0.370	0.860	0.480
2020/01/31 06:00:15.1	92.520	-0.420	0.890	0.490
2020/01/31 06:00:15.2	92.530	-0.460	0.920	0.500
2020/01/31 06:00:15.3	92.550	-0.500	0.940	0.510
2020/01/31 06:00:15.4	92.560	-0.540	0.940	0.520
2020/01/31 06:00:15.5	92.570	-0.560	0.930	0.530
2020/01/31 06:00:15.6	92.580	-0.590	0.910	0.540
2020/01/31 06:00:15.7	92.590	-0.600	0.870	0.550
2020/01/31 06:00:15.8	92.600	-0.610	0.820	0.560
2020/01/31 06:00:15.9	92.600	-0.620	0.760	0.570
2020/01/31 06:00:16.0	92.610	-0.610	0.690	0.580
2020/01/31 06:00:16.1	92.620	-0.600	0.600	0.590
2020/01/31 06:00:16.2	92.620	-0.590	0.510	0.600
2020/01/31 06:00:16.3	92.630	-0.560	0.400	0.600
2020/01/31 06:00:16.4	92.640	-0.530	0.290	0.610
2020/01/31 06:00:16.5	92.640	-0.500	0.170	0.620
2020/01/31 06:00:16.6	92.640	-0.460	0.050	0.630
2020/01/31 06:00:16.7	92.640	-0.420	-0.080	0.630
2020/01/31 06:00:16.8	92.640	-0.370	-0.210	0.640
2020/01/31 06:00:16.9	92.640	-0.320	-0.340	0.650
2020/01/31 06:00:17.0	92.630	-0.260	-0.470	0.650
2020/01/31 06:00:17.1	92.630	-0.210	-0.600	0.660
2020/01/31 06:00:17.2	92.620	-0.150	-0.730	0.670
2020/01/31 06:00:17.3	92.610	-0.090	-0.860	0.670
2020/01/31 06:00:17.4	92.600	-0.030	-0.970	0.680
2020/01/31 06:00:17.5	92.600	0.020	-1.070	0.690
2020/01/31 06:00:17.6	92.590	0.080	-1.170	0.700
2020/01/31 06:00:17.7	92.580	0.130	-1.260	0.710
2020/01/31 06:00:17.8	92.570	0.180	-1.330	0.720
2020/01/31 06:00:17.9	92.560	0.220	-1.390	0.740
2020/01/31 06:00:18.0	92.550	0.260	-1.450	0.750
2020/01/31 06:00:18.1	92.540	0.300	-1.480	0.770
2020/01/31 06:00:18.2	92.540	0.330	-1.510	0.790
2020/01/31 06:00:18.3	92.530	0.360	-1.510	0.810
2020/01/31 06:00:18.4	92.520	0.380	-1.510	0.830
2020/01/31 06:00:18.5	92.520	0.400	-1.500	0.860
2020/01/31 06:00:18.6	92.520	0.410	-1.470	0.880
2020/01/31 06:00:18.7	92.520	0.410	-1.420	0.910
2020/01/31 06:00:18.8	92.520	0.410	-1.370	0.940
2020/01/31 06:00:18.9	92.530	0.400	-1.300	0.970
2020/01/31 06:00:19.0	92.530	0.390	-1.220	1.000
2020/01/31 06:00:19.1	92.540	0.380	-1.130	1.030
2020/01/31 06:00:19.2	92.550	0.360	-1.030	1.060
2020/01/31 06:00:19.3	92.550	0.330	-0.930	1.090
2020/01/31 06:00:19.4	92.570	0.300	-0.810	1.120
2020/01/31 06:00:19.5	92.580	0.270	-0.690	1.140
2020/01/31 06:00:19.6	92.600	0.230	-0.560	1.170
2020/01/31 06:00:19.7	92.610	0.190	-0.430	1.190
2020/01/31 06:00:19.8	92.630	0.150	-0.300	1.210
2020/01/31 06:00:19.9	92.650	0.100	-0.160	1.230
2020/01/31 06:00:20.0	92.670	0.050	-0.030	1.240
2020/01/31 06:00:20.1	92.690	0.010	0.100	1.250
2020/01/31 06:00:20.2	92.700	-0.040	0.230	1.260
2020/01/31 06:00:20.3	92.720	-0.090	0.360	1.260
2020/01/31 06:00:20.4	92.740	-0.140	0.480	1.270
2020/01/31 06:00:20.5	92.760	-0.190	0.590	1.260
2020/01/31 06:00:20.6	92.770	-0.230	0.690	1.260
2020/01/31 06:00:20.7	92.790	-0.280	0.780	1.250
2020/01/31 06:00:20.8	92.810	-0.320	0.860	1.240
2020/01/31 06:00:20.9	92.820	-0.360	0.930	1.220
2020/01/31 06:00:21.0	92.830	-0.400	0.980	1.210
2020/01/31 06:00:21.1	92.850	-0.430	1.030	1.190
2020/01/31 06:00:21.2	92.860	-0.460	1.060	1.170
2020/01/31 06:00:21.3	92.860	-0.490	1.070	1.140
2020/01/31 06:00:21.4	92.870	-0.500	1.080	1.120
2020/01/31 06:00:21.5	92.880	-0.520	1.070	1.090
2020/01/31 06:00:21.6	92.890	-0.530	1.040	1.070
2020/01/31 06:00:21.7	92.890	-0.530	1.000	1.040
2020/01/31 06:00:21.8	92.900	-0.530	0.950	1.010
2020/01/31 06:00:21.9	92.900	-0.520	0.890	0.990
2020/01/31 06:00:22.0	92.900	-0.510	0.810	0.960
2020/01/31 06:00:22.1	92.900	-0.490	0.720	0.940
2020/01/31 06:00:22.2	92.900	-0.460	0.630	0.920
2020/01/31 06:00:22.3	92.900	-0.430	0.520	0.890
2020/01/31 06:00:22.4	92.890	-0.400	0.410	0.870
2020/01/31 06:00:22.5	92.890	-0.360	0.290	0.850
2020/01/31 06:00:22.6	92.880	-0.310	0.160	0.830
2020/01/31 06:00:22.7	92.870	-0.260	0.030	0.810
2020/01/31 06:00:22.8	92.860	-0.200	-0.100	0.790
2020/01/31 06:00:22.9	92.850	-0.150	-0.230	0.770
2020/01/31 06:00:23.0	92.840	-0.080	-0.360	0.740
2020/01/31 06:00:23.1	92.830	-0.020	-0.480	0.720
2020/01/31 06:00:23.2	92.820	0.040	-0.600	0.700
2020/01/31 06:00:23.3	92.790	0.110	-0.720	0.670
2020/01/31 06:00:23.4	92.780	0.170	-0.830	0.650
2020/01/31 06:00:23.5	92.770	0.230	-0.930	0.620
2020/01/31 06:00:23.6	92.760	0.300	-1.020	0.600
2020/01/31 06:00:23.7	92.750	0.360	-1.100	0.580
2020/01/31 06:00:23.8	92.740	0.410	-1.160	0.550
2020/01/31 06:00:23.9	92.730	0.470	-1.220	0.530
2020/01/31 06:00:24.0	92.720	0.520	-1.260	0.510
2020/01/31 06:00:24.1	92.710	0.560	-1.290	0.490
2020/01/31 06:00:24.2	92.700	0.600	-1.310	0.470
2020/01/31 06:00:24.3	92.690	0.640	-1.310	0.450
2020/01/31 06:00:24.4	92.680	0.670	-1.300	0.430
2020/01/31 06:00:24.5	92.680	0.690	-1.280	0.420
2020/01/31 06:00:24.6	92.670	0.710	-1.250	0.400
2020/01/31 06:00:24.7	92.670	0.720	-1.200	0.380
2020/01/31 06:00:24.8	92.670	0.730	-1.140	0.370
2020/01/31 06:00:24.9	92.670	0.730	-1.080	0.350
2020/01/31 06:00:25.0	92.670	0.720	-1.000	0.340
2020/01/31 06:00:25.1	92.670	0.710	-0.920	0.320
2020/01/31 06:00:25.2	92.670	0.690	-0.830	0.310
2020/01/31 06:00:25.3	92.690	0.670	-0.730	0.290
2020/01/31 06:00:25.4	92.700	0.640	-0.630	0.280
2020/01/31 06:00:25.5	92.710	0.610	-0.520	0.260
2020/01/31 06:00:25.6	92.720	0.570	-0.420	0.250
2020/01/31 06:00:25.7	92.730	0.530	-0.310	0.230
2020/01/31 06:00:25.8	92.740	0.480	-0.210	0.220
2020/01/31 06:00:25.9	92.760	0.440	-0.100	0.210
2020/01/31 06:00:26.0	92.770	0.390	-0.000	0.190
2020/01/31 06:00:26.1	92.780	0.340	0.090	0.180
2020/01/31 06:00:26.2	92.800	0.290	0.180	0.170
2020/01/31 06:00:26.3	92.810	0.240	0.270	0.160
2020/01/31 06:00:26.4	92.820	0.190	0.340	0.160
2020/01/31 06:00:26.5	92.840	0.140	0.410	0.160
2020/01/31 06:00:26.6	92.850	0.090	0.470	0.160
2020/01/31 06:00:26.7	92.850	0.040	0.520	0.160
2020/01/31 06:00:26.8	92.860	-0.000	0.560	0.170
2020/01/31 06:00:26.9	92.860	-0.050	0.590	0.190
2020/01/31 06:00:27.0	92.870	-0.080	0.610	0.200
2020/01/31 06:00:27.1	92.870	-0.120	0.610	0.220
2020/01/31 06:00:27.2	92.870	-0.150	0.610	0.250
2020/01/31 06:00:27.3	92.870	-0.170	0.590	0.270
2020/01/31 06:00:27.4	92.860	-0.190	0.570	0.300
2020/01/31 06:00:27.5	92.860	-0.210	0.530	0.330
2020/01/31 06:00:27.6	92.850	-0.220	0.490	0.370
2020/01/31 06:00:27.7	92.850	-0.230	0.430	0.400
2020/01/31 06:00:27.8	92.850	-0.230	0.370	0.440
2020/01/31 06:00:27.9	92.840	-0.220	0.300	0.480
2020/01/31 06:00:28.0	92.840	-0.220	0.220	0.520
2020/01/31 06:00:28.1	92.840	-0.200	0.130	0.570
2020/01/31 06:00:28.2	92.840	-0.190	0.050	0.610
2020/01/31 06:00:28.3	92.830	-0.170	-0.050	0.650
2020/01/31 06:00:28.4	92.840	-0.150	-0.150	0.690
2020/01/31 06:00:28.5	92.840	-0.120	-0.240	0.730
2020/01/31 06:00:28.6	92.850	-0.100	-0.340	0.780
2020/01/31 06:00:28.7	92.850	-0.070	-0.430	0.820
2020/01/31 06:00:28.8	92.860	-0.040	-0.530	0.870
2020/01/31 06:00:28.9	92.860	-0.010	-0.610	0.920
2020/01/31 06:00:29.0	92.870	0.020	-0.690	0.970
2020/01/31 06:00:29.1	92.880	0.040	-0.770	1.020
2020/01/31 06:00:29.2	92.880	0.070	-0.830	1.070
2020/01/31 06:00:29.3	92.880	0.090	-0.890	1.120
2020/01/31 06:00:29.4	92.890	0.110	-0.940	1.160
2020/01/31 06:00:29.5	92.890	0.130	-0.970	1.220
2020/01/31 06:00:29.6	92.900	0.140	-1.000	1.260
2020/01/31 06:00:29.7	92.900	0.150	-1.010	1.310
2020/01/31 06:00:29.8	92.900	0.150	-1.010	1.360
2020/01/31 06:00:29.9	92.900	0.150	-1.000	1.400
2020/01/31 06:00:30.0	92.900	0.150	-0.970	1.440
2020/01/31 06:00:30.1	92.900	0.130	-0.930	1.480
2020/01/31 06:00:30.2	92.890	0.120	-0.880	1.510
2020/01/31 06:00:30.3	92.880	0.090	-0.820	1.540
2020/01/31 06:00:30.4	92.870	0.070	-0.750	1.570
2020/01/31 06:00:30.5	92.860	0.030	-0.670	1.590
2020/01/31 06:00:30.6	92.850	-0.000	-0.580	1.610
2020/01/31 06:00:30.7	92.840	-0.050	-0.480	1.620
2020/01/31 06:00:30.8	92.830	-0.090	-0.380	1.630
2020/01/31 06:00:30.9	92.820	-0.140	-0.270	1.630
2020/01/31 06:00:31.0	92.800	-0.200	-0.160	1.630
2020/01/31 06:00:31.1	92.780	-0.250	-0.050	1.630
2020/01/31 06:00:31.2	92.770	-0.310	0.070	1.620
2020/01/31 06:00:31.3	92.750	-0.370	0.190	1.610
2020/01/31 06:00:31.4	92.730	-0.420	0.300	1.600
2020/01/31 06:00:31.5	92.710	-0.480	0.410	1.590
2020/01/31 06:00:31.6	92.690	-0.540	0.510	1.580
2020/01/31 06:00:31.7	92.660	-0.590	0.600	1.560
2020/01/31 06:00:31.8	92.640	-0.640	0.690	1.550
2020/01/31 06:00:31.9	92.610	-0.690	0.770	1.530
2020/01/31 06:00:32.0	92.580	-0.730	0.840	1.510
2020/01/31 06:00:32.1	92.560	-0.770	0.890	1.490
2020/01/31 06:00:32.2	92.530	-0.800	0.940	1.470
2020/01/31 06:00:32.3	92.500	-0.830	0.970	1.440
2020/01/31 06:00:32.4	92.470	-0.850	0.990	1.420
2020/01/31 06:00:32.5	92.450	-0.860	0.990	1.390
2020/01/31 06:00:32.6	92.430	-0.860	0.980	1.360
2020/01/31 06:00:32.7	92.410	-0.860	0.950	1.330
2020/01/31 06:00:32.8	92.390	-0.850	0.910	1.290
2020/01/31 06:00:32.9	92.370	-0.820	0.860	1.260
2020/01/31 06:00:33.0	92.360	-0.790	0.790	1.220
2020/01/31 06:00:33.1	92.340	-0.760	0.700	1.170
2020/01/31 06:00:33.2	92.330	-0.710	0.610	1.130
2020/01/31 06:00:33.3	92.320	-0.660	0.490	1.080
2020/01/31 06:00:33.4	92.320	-0.590	0.380	1.020
2020/01/31 06:00:33.5	92.320	-0.530	0.250	0.970
2020/01/31 06:00:33.6	92.320	-0.450	0.110	0.910
2020/01/31 06:00:33.7	92.320	-0.370	-0.030	0.850
2020/01/31 06:00:33.8	92.330	-0.290	-0.170	0.780
2020/01/31 06:00:33.9	92.340	-0.200	-0.320	0.720
2020/01/31 06:00:34.0	92.350	-0.120	-0.460	0.660
2020/01/31 06:00:34.1	92.370	-0.030	-0.610	0.590
2020/01/31 06:00:34.2	92.380	0.060	-0.750	0.530
2020/01/31 06:00:34.3	92.410	0.150	-0.890	0.470
2020/01/31 06:00:34.4	92.430	0.240	-1.020	0.410
2020/01/31 06:00:34.5	92.440	0.330	-1.140	0.360
2020/01/31 06:00:34.6	92.460	0.410	-1.260	0.310
2020/01/31 06:00:34.7	92.480	0.490	-1.360	0.270
2020/01/31 06:00:34.8	92.490	0.560	-1.450	0.230
2020/01/31 06:00:34.9	92.510	0.620	-1.520	0.190
2020/01/31 06:00:35.0	92.530	0.680	-1.580	0.150
2020/01/31 06:00:35.1	92.540	0.740	-1.630	0.120
2020/01/31 06:00:35.2	92.550	0.780	-1.650	0.100
2020/01/31 06:00:35.3	92.570	0.820	-1.670	0.080
2020/01/31 06:00:35.4	92.580	0.840	-1.670	0.060
2020/01/31 06:00:35.5	92.580	0.860	-1.640	0.050
2020/01/31 06:00:35.6	92.590	0.870	-1.610	0.040
2020/01/31 06:00:35.7	92.590	0.870	-1.550	0.040
2020/01/31 06:00:35.8	92.590	0.860	-1.480	0.040
2020/01/31 06:00:35.9	92.580	0.850	-1.400	0.040
2020/01/31 06:00:36.0	92.580	0.820	-1.300	0.050
2020/01/31 06:00:36.1	92.570	0.790	-1.190	0.070
2020/01/31 06:00:36.2	92.560	0.750	-1.060	0.080
2020/01/31 06:00:36.3	92.550	0.700	-0.920	0.100
2020/01/31 06:00:36.4	92.530	0.640	-0.780	0.130
2020/01/31 06:00:36.5	92.510	0.580	-0.630	0.160
2020/01/31 06:00:36.6	92.490	0.520	-0.470	0.190
2020/01/31 06:00:36.7	92.470	0.450	-0.320	0.220
2020/01/31 06:00:36.8	92.450	0.370	-0.160	0.260
2020/01/31 06:00:36.9	92.420	0.300	0.000	0.290
2020/01/31 06:00:37.0	92.400	0.220	0.160	0.330
2020/01/31 06:00:37.1	92.370	0.140	0.310	0.380
2020/01/31 06:00:37.2	92.340	0.060	0.460	0.420
2020/01/31 06:00:37.3	92.310	-0.020	0.600	0.460
2020/01/31 06:00:37.4	92.280	-0.090	0.730	0.500
2020/01/31 06:00:37.5	92.250	-0.160	0.850	0.550
2020/01/31 06:00:37.6	92.220	-0.230	0.960	0.590
2020/01/31 06:00:37.7	92.190	-0.300	1.050	0.630
2020/01/31 06:00:37.8	92.150	-0.360	1.130	0.670
2020/01/31 06:00:37.9	92.120	-0.420	1.190	0.710
2020/01/31 06:00:38.0	92.090	-0.460	1.240	0.750
2020/01/31 06:00:38.1	92.060	-0.510	1.270	0.790
2020/01/31 06:00:38.2	92.030	-0.540	1.290	0.820
2020/01/31 06:00:38.3	92.000	-0.570	1.290	0.860
2020/01/31 06:00:38.4	91.970	-0.590	1.270	0.890
2020/01/31 06:00:38.5	91.950	-0.610	1.230	0.920
2020/01/31 06:00:38.6	91.930	-0.610	1.190	0.940
2020/01/31 06:00:38.7	91.910	-0.610	1.120	0.970
2020/01/31 06:00:38.8	91.890	-0.600	1.040	0.990
2020/01/31 06:00:38.9	91.880	-0.590	0.950	1.010
2020/01/31 06:00:39.0	91.860	-0.570	0.850	1.020
2020/01/31 06:00:39.1	91.850	-0.540	0.740	1.030
2020/01/31 06:00:39.2	91.850	-0.500	0.620	1.050
2020/01/31 06:00:39.3	91.840	-0.470	0.490	1.050
2020/01/31 06:00:39.4	91.830	-0.420	0.360	1.050
2020/01/31 06:00:39.5	91.830	-0.370	0.220	1.060
2020/01/31 06:00:39.6	91.830	-0.320	0.080	1.060
2020/01/31 06:00:39.7	91.830	-0.270	-0.050	1.050
2020/01/31 06:00:39.8	91.830	-0.210	-0.190	1.050
2020/01/31 06:00:39.9	91.840	-0.150	-0.330	1.040
2020/01/31 06:00:40.0	91.840	-0.090	-0.460	1.030
2020/01/31 06:00:40.1	91.850	-0.030	-0.580	1.020
2020/01/31 06:00:40.2	91.860	0.030	-0.700	1.000
2020/01/31 06:00:40.3	91.880	0.090	-0.820	0.980
2020/01/31 06:00:40.4	91.890	0.150	-0.920	0.970
2020/01/31 06:00:40.5	91.900	0.200	-1.010	0.960
2020/01/31 06:00:40.6	91.910	0.260	-1.090	0.940
2020/01/31 06:00:40.7	91.920	0.310	-1.160	0.930
2020/01/31 06:00:40.8	91.930	0.350	-1.220	0.920
2020/01/31 06:00:40.9	91.940	0.400	-1.270	0.910
2020/01/31 06:00:41.0	91.940	0.440	-1.300	0.900
2020/01/31 06:00:41.1	91.950	0.470	-1.320	0.890
2020/01/31 06:00:41.2	91.970	0.500	-1.330	0.890
2020/01/31 06:00:41.3	91.980	0.530	-1.330	0.890
2020/01/31 06:00:41.4	91.980	0.550	-1.320	0.890
2020/01/31 06:00:41.5	91.990	0.570	-1.300	0.890
2020/01/31 06:00:41.6	91.990	0.580	-1.270	0.890
2020/01/31 06:00:41.7	92.000	0.590	-1.220	0.900
2020/01/31 06:00:41.8	92.000	0.590	-1.180	0.910
2020/01/31 06:00:41.9	92.000	0.580	-1.120	0.920
2020/01/31 06:00:42.0	92.010	0.580	-1.060	0.940
2020/01/31 06:00:42.1	92.010	0.560	-0.990	0.960
2020/01/31 06:00:42.2	92.010	0.550	-0.920	0.980
2020/01/31 06:00:42.3	92.020	0.530	-0.840	1.000
2020/01/31 06:00:42.4	92.030	0.500	-0.760	1.020
2020/01/31 06:00:42.5	92.020	0.480	-0.680	1.050
2020/01/31 06:00:42.6	92.020	0.450	-0.600	1.070
2020/01/31 06:00:42.7	92.020	0.420	-0.520	1.100
2020/01/31 06:00:42.8	92.020	0.380	-0.440	1.140
2020/01/31 06:00:42.9	92.020	0.350	-0.360	1.170
2020/01/31 06:00:43.0	92.020	0.310	-0.280	1.200
2020/01/31 06:00:43.1	92.010	0.270	-0.210	1.240
2020/01/31 06:00:43.2	92.010	0.240	-0.140	1.270
2020/01/31 06:00:43.3	92.010	0.200	-0.070	1.310
2020/01/31 06:00:43.4	92.010	0.160	-0.010	1.350
2020/01/31 06:00:43.5	92.000	0.130	0.050	1.380
2020/01/31 06:00:43.6	92.000	0.090	0.100	1.420
2020/01/31 06:00:43.7	91.990	0.060	0.140	1.450
2020/01/31 06:00:43.8	91.980	0.030	0.190	1.490
2020/01/31 06:00:43.9	91.980	-0.000	0.220	1.520
2020/01/31 06:00:44.0	91.970	-0.030	0.250	1.550
2020/01/31 06:00:44.1	91.960	-0.060	0.280	1.580
2020/01/31 06:00:44.2	91.950	-0.090	0.300	1.600
2020/01/31 06:00:44.3	91.920	-0.110	0.320	1.620
2020/01/31 06:00:44.4	91.910	-0.130	0.340	1.640
2020/01/31 06:00:44.5	91.900	-0.150	0.350	1.650
2020/01/31 06:00:44.6	91.890	-0.170	0.360	1.660
2020/01/31 06:00:44.7	91.880	-0.190	0.360	1.670
2020/01/31 06:00:44.8	91.870	-0.200	0.360	1.670
2020/01/31 06:00:44.9	91.860	-0.220	0.370	1.670
2020/01/31 06:00:45.0	91.850	-0.230	0.370	1.660
2020/01/31 06:00:45.1	91.840	-0.240	0.370	1.650
2020/01/31 06:00:45.2	91.820	-0.250	0.360	1.630
2020/01/31 06:00:45.3	91.810	-0.260	0.360	1.610
2020/01/31 06:00:45.4	91.800	-0.270	0.350	1.590
2020/01/31 06:00:45.5	91.790	-0.280	0.350	1.570
2020/01/31 06:00:45.6	91.790	-0.290	0.350	1.540
2020/01/31 06:00:45.7	91.780	-0.300	0.340	1.510
2020/01/31 06:00:45.8	91.780	-0.310	0.330	1.480
2020/01/31 06:00:45.9	91.770	-0.310	0.330	1.450
2020/01/31 06:00:46.0	91.770	-0.320	0.320	1.420
2020/01/31 06:00:46.1	91.770	-0.330	0.320	1.390
2020/01/31 06:00:46.2	91.770	-0.340	0.310	1.350
2020/01/31 06:00:46.3	91.760	-0.340	0.300	1.320
2020/01/31 06:00:46.4	91.770	-0.350	0.290	1.290
2020/01/31 06:00:46.5	91.770	-0.350	0.280	1.270
2020/01/31 06:00:46.6	91.770	-0.360	0.270	1.240
2020/01/31 06:00:46.7	91.780	-0.360	0.260	1.220
2020/01/31 06:00:46.8	91.780	-0.360	0.240	1.200
2020/01/31 06:00:46.9	91.790	-0.360	0.220	1.180
2020/01/31 06:00:47.0	91.790	-0.360	0.200	1.160
2020/01/31 06:00:47.1	91.800	-0.360	0.170	1.150
2020/01/31 06:00:47.2	91.810	-0.350	0.140	1.130
2020/01/31 06:00:47.3	91.810	-0.340	0.110	1.110
2020/01/31 06:00:47.4	91.820	-0.330	0.070	1.100
2020/01/31 06:00:47.5	91.830	-0.320	0.030	1.080
2020/01/31 06:00:47.6	91.850	-0.310	-0.020	1.060
2020/01/31 06:00:47.7	91.860	-0.290	-0.070	1.040
2020/01/31 06:00:47.8	91.870	-0.270	-0.120	1.020
2020/01/31 06:00:47.9	91.890	-0.250	-0.180	1.000
2020/01/31 06:00:48.0	91.900	-0.230	-0.240	0.970
2020/01/31 06:00:48.1	91.910	-0.200	-0.300	0.950
2020/01/31 06:00:48.2	91.940	-0.170	-0.370	0.920
2020/01/31 06:00:48.3	91.960	-0.140	-0.440	0.890
2020/01/31 06:00:48.4	91.970	-0.110	-0.510	0.860
2020/01/31 06:00:48.5	91.980	-0.070	-0.580	0.840
2020/01/31 06:00:48.6	92.000	-0.040	-0.640	0.810
2020/01/31 06:00:48.7	92.010	-0.000	-0.710	0.780
2020/01/31 06:00:48.8	92.020	0.030	-0.770	0.750
2020/01/31 06:00:48.9	92.030	0.070	-0.840	0.720
2020/01/31 06:00:49.0	92.030	0.110	-0.890	0.690
2020/01/31 06:00:49.1	92.040	0.140	-0.950	0.670
2020/01/31 06:00:49.2	92.040	0.170	-0.990	0.640
2020/01/31 06:00:49.3	92.060	0.200	-1.040	0.620
2020/01/31 06:00:49.4	92.060	0.230	-1.080	0.610
2020/01/31 06:00:49.5	92.060	0.260	-1.100	0.590
2020/01/31 06:00:49.6	92.050	0.290	-1.120	0.580
2020/01/31 06:00:49.7	92.050	0.310	-1.140	0.580
2020/01/31 06:00:49.8	92.040	0.330	-1.140	0.580
2020/01/31 06:00:49.9	92.030	0.350	-1.140	0.580
2020/01/31 06:00:50.0	92.020	0.360	-1.120	0.590
2020/01/31 06:00:50.1	92.010	0.370	-1.100	0.600
2020/01/31 06:00:50.2	91.990	0.370	-1.070	0.620
2020/01/31 06:00:50.3	91.990	0.370	-1.030	0.630
2020/01/31 06:00:50.4	91.980	0.370	-0.980	0.660
2020/01/31 06:00:50.5	91.960	0.370	-0.930	0.690
2020/01/31 06:00:50.6	91.940	0.360	-0.870	0.720
2020/01/31 06:00:50.7	91.920	0.350	-0.810	0.750
2020/01/31 06:00:50.8	91.900	0.330	-0.740	0.780
2020/01/31 06:00:50.9	91.880	0.310	-0.660	0.820
2020/01/31 06:00:51.0	91.860	0.290	-0.580	0.850
2020/01/31 06:00:51.1	91.840	0.260	-0.500	0.880
2020/01/31 06:00:51.2	91.820	0.240	-0.420	0.920
2020/01/31 06:00:51.3	91.800	0.210	-0.340	0.960
2020/01/31 06:00:51.4	91.780	0.170	-0.250	0.990
2020/01/31 06:00:51.5	91.760	0.140	-0.170	1.020
2020/01/31 06:00:51.6	91.740	0.110	-0.090	1.040
2020/01/31 06:00:51.7	91.720	0.070	-0.020	1.060
2020/01/31 06:00:51.8	91.710	0.040	0.050	1.090
2020/01/31 06:00:51.9	91.700	0.010	0.120	1.100
2020/01/31 06:00:52.0	91.680	-0.030	0.180	1.120
2020/01/31 06:00:52.1	91.670	-0.060	0.230	1.130
2020/01/31 06:00:52.2	91.660	-0.090	0.280	1.130
2020/01/31 06:00:52.3	91.640	-0.120	0.320	1.130
2020/01/31 06:00:52.4	91.640	-0.140	0.350	1.130
2020/01/31 06:00:52.5	91.630	-0.170	0.380	1.120
2020/01/31 06:00:52.6	91.630	-0.190	0.390	1.120
2020/01/31 06:00:52.7	91.630	-0.200	0.400	1.110
2020/01/31 06:00:52.8	91.630	-0.220	0.400	1.100
2020/01/31 06:00:52.9	91.630	-0.230	0.390	1.080
2020/01/31 06:00:53.0	91.630	-0.230	0.370	1.060
2020/01/31 06:00:53.1	91.640	-0.240	0.340	1.040
2020/01/31 06:00:53.2	91.640	-0.230	0.310	1.020
2020/01/31 06:00:53.3	91.640	-0.230	0.270	0.990
2020/01/31 06:00:53.4	91.650	-0.220	0.220	0.960
2020/01/31 06:00:53.5	91.670	-0.210	0.180	0.940
2020/01/31 06:00:53.6	91.680	-0.200	0.120	0.900
2020/01/31 06:00:53.7	91.700	-0.180	0.070	0.870
2020/01/31 06:00:53.8	91.720	-0.170	0.010	0.840
2020/01/31 06:00:53.9	91.740	-0.150	-0.040	0.810
2020/01/31 06:00:54.0	91.760	-0.130	-0.100	0.780
2020/01/31 06:00:54.1	91.780	-0.100	-0.150	0.750
2020/01/31 06:00:54.2	91.810	-0.080	-0.210	0.730
2020/01/31 06:00:54.3	91.800	-0.050	-0.260	0.700
2020/01/31 06:00:54.4	91.820	-0.030	-0.310	0.680
2020/01/31 06:00:54.5	91.840	-0.000	-0.350	0.670
2020/01/31 06:00:54.6	91.860	0.020	-0.390	0.650
2020/01/31 06:00:54.7	91.870	0.050	-0.430	0.650
2020/01/31 06:00:54.8	91.880	0.070	-0.460	0.640
2020/01/31 06:00:54.9	91.890	0.090	-0.480	0.640
2020/01/31 06:00:55.0	91.890	0.120	-0.500	0.640
2020/01/31 06:00:55.1	91.900	0.140	-0.510	0.650
2020/01/31 06:00:55.2	91.890	0.160	-0.510	0.660
2020/01/31 06:00:55.3	91.890	0.170	-0.510	0.670
2020/01/31 06:00:55.4	91.890	0.190	-0.500	0.690
2020/01/31 06:00:55.5	91.880	0.200	-0.490	0.710
2020/01/31 06:00:55.6	91.870	0.220	-0.470	0.730
2020/01/31 06:00:55.7	91.850	0.230	-0.440	0.750
2020/01/31 06:00:55.8	91.840	0.230	-0.410	0.770
2020/01/31 06:00:55.9	91.820	0.240	-0.380	0.790
2020/01/31 06:00:56.0	91.810	0.240	-0.340	0.810
2020/01/31 06:00:56.1	91.790	0.240	-0.300	0.830
2020/01/31 06:00:56.2	91.770	0.240	-0.250	0.850
2020/01/31 06:00:56.3	91.770	0.240	-0.210	0.870
2020/01/31 06:00:56.4	91.760	0.230	-0.160	0.890
2020/01/31 06:00:56.5	91.740	0.220	-0.110	0.910
2020/01/31 06:00:56.6	91.730	0.220	-0.060	0.920
2020/01/31 06:00:56.7	91.720	0.200	-0.020	0.940
2020/01/31 06:00:56.8	91.700	0.190	0.030	0.950
2020/01/31 06:00:56.9	91.690	0.180	0.070	0.960
2020/01/31 06:00:57.0	91.680	0.160	0.110	0.970
2020/01/31 06:00:57.1	91.670	0.150	0.140	0.980
2020/01/31 06:00:57.2	91.660	0.130	0.170	0.990
2020/01/31 06:00:57.3	91.660	0.110	0.190	0.990
2020/01/31 06:00:57.4	91.650	0.090	0.210	1.000
2020/01/31 06:00:57.5	91.640	0.080	0.220	1.010
2020/01/31 06:00:57.6	91.640	0.060	0.230	1.010
2020/01/31 06:00:57.7	91.630	0.040	0.230	1.010
2020/01/31 06:00:57.8	91.630	0.020	0.230	1.010
2020/01/31 06:00:57.9	91.620	0.000	0.210	1.000
2020/01/31 06:00:58.0	91.620	-0.010	0.200	1.000
2020/01/31 06:00:58.1	91.620	-0.030	0.180	0.990
2020/01/31 06:00:58.2	91.610	-0.040	0.150	0.980
2020/01/31 06:00:58.3	91.620	-0.060	0.130	0.970
2020/01/31 06:00:58.4	91.620	-0.070	0.100	0.950
2020/01/31 06:00:58.5	91.620	-0.090	0.070	0.930
2020/01/31 06:00:58.6	91.630	-0.100	0.040	0.910
2020/01/31 06:00:58.7	91.630	-0.120	0.000	0.890
2020/01/31 06:00:58.8	91.640	-0.130	-0.030	0.870
2020/01/31 06:00:58.9	91.650	-0.140	-0.060	0.840
2020/01/31 06:00:59.0	91.660	-0.150	-0.090	0.820
2020/01/31 06:00:59.1	91.670	-0.160	-0.120	0.790
2020/01/31 06:00:59.2	91.700	-0.170	-0.160	0.760
2020/01/31 06:00:59.3	91.720	-0.180	-0.180	0.740
2020/01/31 06:00:59.4	91.730	-0.190	-0.200	0.720
2020/01/31 06:00:59.5	91.740	-0.200	-0.220	0.700
2020/01/31 06:00:59.6	91.760	-0.210	-0.240	0.680
2020/01/31 06:00:59.7	91.770	-0.220	-0.250	0.670
2020/01/31 06:00:59.8	91.790	-0.230	-0.260	0.650
2020/01/31 06:00:59.9	91.800	-0.230	-0.270	0.640
2020/01/31 06:01:00.0	91.820	-0.230	-0.280	0.640
2020/01/31 06:01:00.1	91.830	-0.240	-0.280	0.630
2020/01/31 06:01:00.2	91.840	-0.240	-0.290	0.630
2020/01/31 06:01:00.3	91.860	-0.240	-0.290	0.630
2020/01/31 06:01:00.4	91.870	-0.230	-0.290	0.640
2020/01/31 06:01:00.5	91.880	-0.230	-0.300	0.650
2020/01/31 06:01:00.6	91.880	-0.220	-0.300	0.660
2020/01/31 06:01:00.7	91.890	-0.210	-0.310	0.680
2020/01/31 06:01:00.8	91.890	-0.200	-0.320	0.700
2020/01/31 06:01:00.9	91.890	-0.180	-0.330	0.720
2020/01/31 06:01:01.0	91.890	-0.170	-0.340	0.750
2020/01/31 06:01:01.1	91.890	-0.150	-0.360	0.780
2020/01/31 06:01:01.2	91.880	-0.130	-0.380	0.810
2020/01/31 06:01:01.3	91.870	-0.110	-0.400	0.840
2020/01/31 06:01:01.4	91.860	-0.090	-0.430	0.870
2020/01/31 06:01:01.5	91.850	-0.070	-0.450	0.910
2020/01/31 06:01:01.6	91.840	-0.040	-0.470	0.940
2020/01/31 06:01:01.7	91.820	-0.020	-0.490	0.970
2020/01/31 06:01:01.8	91.810	0.010	-0.520	1.000
2020/01/31 06:01:01.9	91.800	0.030	-0.550	1.030
2020/01/31 06:01:02.0	91.780	0.050	-0.570	1.050
2020/01/31 06:01:02.1	91.770	0.080	-0.600	1.080
2020/01/31 06:01:02.2	91.760	0.100	-0.620	1.100
2020/01/31 06:01:02.3	91.740	0.120	-0.640	1.120
2020/01/31 06:01:02.4	91.730	0.150	-0.660	1.130
2020/01/31 06:01:02.5	91.720	0.170	-0.680	1.150
2020/01/31 06:01:02.6	91.700	0.180	-0.700	1.160
2020/01/31 06:01:02.7	91.690	0.200	-0.720	1.170
2020/01/31 06:01:02.8	91.680	0.220	-0.740	1.180
2020/01/31 06:01:02.9	91.670	0.230	-0.750	1.180
2020/01/31 06:01:03.0	91.660	0.240	-0.750	1.190
2020/01/31 06:01:03.1	91.650	0.250	-0.760	1.190
2020/01/31 06:01:03.2	91.650	0.260	-0.760	1.190
2020/01/31 06:01:03.3	91.630	0.270	-0.750	1.180
2020/01/31 06:01:03.4	91.630	0.270	-0.740	1.180
2020/01/31 06:01:03.5	91.630	0.270	-0.730	1.180
2020/01/31 06:01:03.6	91.630	0.270	-0.710	1.170
2020/01/31 06:01:03.7	91.630	0.270	-0.680	1.160
2020/01/31 06:01:03.8	91.630	0.260	-0.650	1.160
2020/01/31 06:01:03.9	91.640	0.250	-0.620	1.150
2020/01/31 06:01:04.0	91.640	0.240	-0.570	1.140
2020/01/31 06:01:04.1	91.650	0.230	-0.530	1.130
2020/01/31 06:01:04.2	91.650	0.210	-0.480	1.130
2020/01/31 06:01:04.3	91.660	0.200	-0.420	1.110
2020/01/31 06:01:04.4	91.660	0.180	-0.360	1.110
2020/01/31 06:01:04.5	91.670	0.160	-0.300	1.100
2020/01/31 06:01:04.6	91.680	0.140	-0.230	1.090
2020/01/31 06:01:04.7	91.680	0.110	-0.160	1.090
2020/01/31 06:01:04.8	91.690	0.090	-0.090	1.080
2020/01/31 06:01:04.9	91.690	0.060	-0.010	1.080
2020/01/31 06:01:05.0	91.700	0.030	0.060	1.070
2020/01/31 06:01:05.1	91.700	0.000	0.140	1.070
2020/01/31 06:01:05.2	91.690	-0.030	0.220	1.070
2020/01/31 06:01:05.3	91.690	-0.060	0.290	1.060
2020/01/31 06:01:05.4	91.680	-0.090	0.370	1.060
2020/01/31 06:01:05.5	91.680	-0.120	0.440	1.050
2020/01/31 06:01:05.6	91.670	-0.150	0.500	1.040
2020/01/31 06:01:05.7	91.660	-0.180	0.560	1.030
2020/01/31 06:01:05.8	91.640	-0.210	0.620	1.020
2020/01/31 06:01:05.9	91.630	-0.240	0.670	1.010
2020/01/31 06:01:06.0	91.620	-0.270	0.710	1.000
2020/01/31 06:01:06.1	91.600	-0.290	0.740	0.980
2020/01/31 06:01:06.2	91.580	-0.320	0.760	0.960
2020/01/31 06:01:06.3	91.540	-0.340	0.780	0.940
2020/01/31 06:01:06.4	91.530	-0.360	0.780	0.920
2020/01/31 06:01:06.5	91.510	-0.380	0.770	0.900
2020/01/31 06:01:06.6	91.490	-0.390	0.750	0.870
2020/01/31 06:01:06.7	91.470	-0.400	0.720	0.850
2020/01/31 06:01:06.8	91.460	-0.410	0.680	0.830
2020/01/31 06:01:06.9	91.440	-0.410	0.630	0.800
2020/01/31 06:01:07.0	91.430	-0.410	0.570	0.780
2020/01/31 06:01:07.1	91.420	-0.410	0.500	0.760
2020/01/31 06:01:07.2	91.410	-0.400	0.410	0.730
2020/01/31 06:01:07.3	91.390	-0.380	0.330	0.710
2020/01/31 06:01:07.4	91.390	-0.370	0.230	0.690
2020/01/31 06:01:07.5	91.380	-0.340	0.130	0.670
2020/01/31 06:01:07.6	91.380	-0.320	0.020	0.650
2020/01/31 06:01:07.7	91.380	-0.290	-0.100	0.630
2020/01/31 06:01:07.8	91.390	-0.260	-0.220	0.610
2020/01/31 06:01:07.9	91.390	-0.220	-0.340	0.600
2020/01/31 06:01:08.0	91.400	-0.180	-0.460	0.580
2020/01/31 06:01:08.1	91.410	-0.140	-0.580	0.570
2020/01/31 06:01:08.2	91.420	-0.100	-0.690	0.550
2020/01/31 06:01:08.3	91.460	-0.050	-0.810	0.540
2020/01/31 06:01:08.4	91.470	-0.010	-0.920	0.520
2020/01/31 06:01:08.5	91.490	0.040	-1.030	0.510
2020/01/31 06:01:08.6	91.510	0.090	-1.120	0.490
2020/01/31 06:01:08.7	91.530	0.130	-1.210	0.480
2020/01/31 06:01:08.8	91.550	0.180	-1.290	0.460
2020/01/31 06:01:08.9	91.570	0.220	-1.350	0.450
2020/01/31 06:01:09.0	91.590	0.260	-1.410	0.430
2020/01/31 06:01:09.1	91.610	0.300	-1.450	0.420
2020/01/31 06:01:09.2	91.640	0.330	-1.470	0.400
2020/01/31 06:01:09.3	91.660	0.360	-1.490	0.390
2020/01/31 06:01:09.4	91.680	0.390	-1.490	0.380
2020/01/31 06:01:09.5	91.700	0.410	-1.470	0.380
2020/01/31 06:01:09.6	91.720	0.430	-1.440	0.370
2020/01/31 06:01:09.7	91.740	0.440	-1.390	0.370
2020/01/31 06:01:09.8	91.750	0.450	-1.330	0.380
2020/01/31 06:01:09.9	91.760	0.450	-1.250	0.390
2020/01/31 06:01:10.0	91.780	0.450	-1.170	0.400
2020/01/31 06:01:10.1	91.780	0.440	-1.070	0.420
2020/01/31 06:01:10.2	91.790	0.430	-0.950	0.440
2020/01/31 06:01:10.3	91.820	0.410	-0.830	0.470
2020/01/31 06:01:10.4	91.820	0.380	-0.700	0.500
2020/01/31 06:01:10.5	91.820	0.350	-0.560	0.540
2020/01/31 06:01:10.6	91.810	0.320	-0.420	0.580
2020/01/31 06:01:10.7	91.800	0.280	-0.270	0.620
2020/01/31 06:01:10.8	91.790	0.230	-0.120	0.670
2020/01/31 06:01:10.9	91.770	0.190	0.020	0.730
2020/01/31 06:01:11.0	91.750	0.140	0.170	0.780
2020/01/31 06:01:11.1	91.730	0.090	0.310	0.840
2020/01/31 06:01:11.2	91.710	0.030	0.450	0.890
2020/01/31 06:01:11.3	91.670	-0.020	0.590	0.950
2020/01/31 06:01:11.4	91.640	-0.080	0.710	1.000
2020/01/31 06:01:11.5	91.610	-0.130	0.830	1.050
2020/01/31 06:01:11.6	91.590	-0.190	0.930	1.100
2020/01/31 06:01:11.7	91.560	-0.240	1.020	1.150
2020/01/31 06:01:11.8	91.530	-0.290	1.100	1.190
2020/01/31 06:01:11.9	91.510	-0.340	1.170	1.230
2020/01/31 06:01:12.0	91.490	-0.380	1.220	1.260
2020/01/31 06:01:12.1	91.470	-0.420	1.250	1.290
2020/01/31 06:01:12.2	91.440	-0.460	1.270	1.310
2020/01/31 06:01:12.3	91.420	-0.490	1.270	1.320
2020/01/31 06:01:12.4	91.410	-0.510	1.250	1.330
2020/01/31 06:01:12.5	91.400	-0.530	1.220	1.330
2020/01/31 06:01:12.6	91.400	-0.540	1.170	1.330
2020/01/31 06:01:12.7	91.390	-0.550	1.110	1.320
2020/01/31 06:01:12.8	91.390	-0.550	1.030	1.300
2020/01/31 06:01:12.9	91.390	-0.540	0.940	1.280
2020/01/31 06:01:13.0	91.390	-0.530	0.830	1.260
2020/01/31 06:01:13.1	91.400	-0.510	0.710	1.230
2020/01/31 06:01:13.2	91.400	-0.480	0.580	1.210
2020/01/31 06:01:13.3	91.400	-0.450	0.440	1.180
2020/01/31 06:01:13.4	91.410	-0.410	0.290	1.150
2020/01/31 06:01:13.5	91.410	-0.360	0.140	1.120
2020/01/31 06:01:13.6	91.420	-0.310	-0.010	1.090
2020/01/31 06:01:13.7	91.420	-0.260	-0.170	1.060
2020/01/31 06:01:13.8	91.430	-0.200	-0.330	1.030
2020/01/31 06:01:13.9	91.440	-0.150	-0.480	0.990
2020/01/31 06:01:14.0	91.450	-0.080	-0.640	0.960
2020/01/31 06:01:14.1	91.450	-0.020	-0.780	0.920
2020/01/31 06:01:14.2	91.460	0.040	-0.920	0.880
2020/01/31 06:01:14.3	91.470	0.100	-1.050	0.850
2020/01/31 06:01:14.4	91.480	0.160	-1.170	0.810
2020/01/31 06:01:14.5	91.490	0.220	-1.280	0.770
2020/01/31 06:01:14.6	91.490	0.270	-1.370	0.740
2020/01/31 06:01:14.7	91.500	0.330	-1.450	0.710
2020/01/31 06:01:14.8	91.510	0.380	-1.520	0.680
2020/01/31 06:01:14.9	91.520	0.420	-1.570	0.650
2020/01/31 06:01:15.0	91.520	0.460	-1.600	0.630
2020/01/31 06:01:15.1	91.530	0.490	-1.620	0.600
2020/01/31 06:01:15.2	91.540	0.520	-1.620	0.590
2020/01/31 06:01:15.3	91.550	0.540	-1.600	0.570
2020/01/31 06:01:15.4	91.560	0.560	-1.570	0.560
2020/01/31 06:01:15.5	91.560	0.570	-1.530	0.560
2020/01/31 06:01:15.6	91.570	0.570	-1.470	0.570
2020/01/31 06:01:15.7	91.580	0.570	-1.390	0.570
2020/01/31 06:01:15.8	91.580	0.560	-1.310	0.590
2020/01/31 06:01:15.9	91.590	0.540	-1.210	0.610
2020/01/31 06:01:16.0	91.590	0.520	-1.100	0.630
2020/01/31 06:01:16.1	91.590	0.490	-0.980	0.660
2020/01/31 06:01:16.2	91.600	0.460	-0.860	0.690
2020/01/31 06:01:16.3	91.610	0.420	-0.720	0.730
2020/01/31 06:01:16.4	91.610	0.380	-0.590	0.770
2020/01/31 06:01:16.5	91.620	0.330	-0.450	0.810
2020/01/31 06:01:16.6	91.620	0.280	-0.320	0.850
2020/01/31 06:01:16.7	91.620	0.230	-0.180	0.880
2020/01/31 06:01:16.8	91.610	0.170	-0.040	0.920
2020/01/31 06:01:16.9	91.610	0.120	0.090	0.960
2020/01/31 06:01:17.0	91.610	0.060	0.210	1.000
2020/01/31 06:01:17.1	91.610	0.000	0.330	1.040
2020/01/31 06:01:17.2	91.610	-0.060	0.440	1.080
2020/01/31 06:01:17.3	91.590	-0.110	0.540	1.120
2020/01/31 06:01:17.4	91.590	-0.170	0.640	1.150
2020/01/31 06:01:17.5	91.590	-0.230	0.720	1.180
2020/01/31 06:01:17.6	91.580	-0.280	0.790	1.210
2020/01/31 06:01:17.7	91.580	-0.330	0.850	1.240
2020/01/31 06:01:17.8	91.570	-0.370	0.900	1.270
2020/01/31 06:01:17.9	91.570	-0.420	0.930	1.290
2020/01/31 06:01:18.0	91.560	-0.450	0.950	1.320
2020/01/31 06:01:18.1	91.550	-0.490	0.960	1.340
2020/01/31 06:01:18.2	91.540	-0.520	0.960	1.360
2020/01/31 06:01:18.3	91.530	-0.540	0.940	1.370
2020/01/31 06:01:18.4	91.510	-0.560	0.910	1.390
2020/01/31 06:01:18.5	91.500	-0.580	0.870	1.400
2020/01/31 06:01:18.6	91.490	-0.590	0.820	1.410
2020/01/31 06:01:18.7	91.480	-0.590	0.750	1.410
2020/01/31 06:01:18.8	91.460	-0.590	0.680	1.420
2020/01/31 06:01:18.9	91.450	-0.590	0.590	1.420
2020/01/31 06:01:19.0	91.430	-0.580	0.500	1.420
2020/01/31 06:01:19.1	91.410	-0.560	0.400	1.420
2020/01/31 06:01:19.2	91.400	-0.540	0.290	1.410
2020/01/31 06:01:19.3	91.380	-0.510	0.180	1.400
2020/01/31 06:01:19.4	91.370	-0.480	0.060	1.390
2020/01/31 06:01:19.5	91.350	-0.450	-0.060	1.380
2020/01/31 06:01:19.6	91.340	-0.410	-0.170	1.360
2020/01/31 06:01:19.7	91.330	-0.370	-0.290	1.340
2020/01/31 06:01:19.8	91.310	-0.320	-0.410	1.320
2020/01/31 06:01:19.9	91.300	-0.270	-0.530	1.300
2020/01/31 06:01:20.0	91.300	-0.220	-0.640	1.280
2020/01/31 06:01:20.1	91.290	-0.170	-0.750	1.250
2020/01/31 06:01:20.2	91.280	-0.120	-0.850	1.230
2020/01/31 06:01:20.3	91.280	-0.060	-0.960	1.200
2020/01/31 06:01:20.4	91.280	-0.010	-1.040	1.180
2020/01/31 06:01:20.5	91.280	0.050	-1.130	1.160
2020/01/31 06:01:20.6	91.280	0.100	-1.200	1.140
2020/01/31 06:01:20.7	91.280	0.160	-1.260	1.120
2020/01/31 06:01:20.8	91.280	0.210	-1.310	1.100
2020/01/31 06:01:20.9	91.280	0.260	-1.350	1.080
2020/01/31 06:01:21.0	91.280	0.310	-1.370	1.070
2020/01/31 06:01:21.1	91.290	0.350	-1.390	1.060
2020/01/31 06:01:21.2	91.290	0.390	-1.390	1.050
2020/01/31 06:01:21.3	91.310	0.430	-1.380	1.030
2020/01/31 06:01:21.4	91.310	0.460	-1.360	1.020
2020/01/31 06:01:21.5	91.320	0.480	-1.320	1.010
2020/01/31 06:01:21.6	91.330	0.510	-1.270	1.000
2020/01/31 06:01:21.7	91.340	0.520	-1.210	0.990
2020/01/31 06:01:21.8	91.350	0.530	-1.140	0.980
2020/01/31 06:01:21.9	91.360	0.540	-1.060	0.970
2020/01/31 06:01:22.0	91.370	0.530	-0.970	0.960
2020/01/31 06:01:22.1	91.380	0.530	-0.870	0.950
2020/01/31 06:01:22.2	91.390	0.510	-0.770	0.940
2020/01/31 06:01:22.3	91.400	0.490	-0.660	0.920
2020/01/31 06:01:22.4	91.410	0.470	-0.540	0.910
2020/01/31 06:01:22.5	91.420	0.440	-0.420	0.890
2020/01/31 06:01:22.6	91.440	0.410	-0.290	0.870
2020/01/31 06:01:22.7	91.450	0.370	-0.170	0.850
2020/01/31 06:01:22.8	91.460	0.330	-0.040	0.830
2020/01/31 06:01:22.9	91.470	0.280	0.080	0.810
2020/01/31 06:01:23.0	91.480	0.230	0.210	0.800
2020/01/31 06:01:23.1	91.490	0.180	0.330	0.780
2020/01/31 06:01:23.2	91.490	0.130	0.440	0.760
2020/01/31 06:01:23.3	91.500	0.070	0.560	0.740
2020/01/31 06:01:23.4	91.500	0.020	0.660	0.720
2020/01/31 06:01:23.5	91.510	-0.040	0.750	0.700
2020/01/31 06:01:23.6	91.510	-0.090	0.840	0.690
2020/01/31 06:01:23.7	91.510	-0.150	0.910	0.670
2020/01/31 06:01:23.8	91.510	-0.200	0.980	0.660
2020/01/31 06:01:23.9	91.500	-0.250	1.030	0.650
2020/01/31 06:01:24.0	91.500	-0.290	1.070	0.640
2020/01/31 06:01:24.1	91.490	-0.340	1.100	0.640
2020/01/31 06:01:24.2	91.490	-0.380	1.120	0.630
2020/01/31 06:01:24.3	91.470	-0.410	1.120	0.630
2020/01/31 06:01:24.4	91.460	-0.440	1.110	0.620
2020/01/31 06:01:24.5	91.460	-0.470	1.090	0.620
2020/01/31 06:01:24.6	91.450	-0.490	1.060	0.620
2020/01/31 06:01:24.7	91.440	-0.510	1.020	0.620
2020/01/31 06:01:24.8	91.430	-0.520	0.970	0.620
2020/01/31 06:01:24.9	91.430	-0.530	0.900	0.610
2020/01/31 06:01:25.0	91.430	-0.530	0.830	0.610
2020/01/31 06:01:25.1	91.430	-0.520	0.750	0.610
2020/01/31 06:01:25.2	91.430	-0.520	0.660	0.600
2020/01/31 06:01:25.3	91.430	-0.500	0.560	0.600
2020/01/31 06:01:25.4	91.440	-0.480	0.460	0.600
2020/01/31 06:01:25.5	91.450	-0.460	0.350	0.590
2020/01/31 06:01:25.6	91.460	-0.440	0.240	0.580
2020/01/31 06:01:25.7	91.470	-0.410	0.130	0.580
2020/01/31 06:01:25.8	91.480	-0.370	0.010	0.570
2020/01/31 06:01:25.9	91.490	-0.340	-0.110	0.570
2020/01/31 06:01:26.0	91.510	-0.300	-0.230	0.560
2020/01/31 06:01:26.1	91.530	-0.260	-0.340	0.560
2020/01/31 06:01:26.2	91.550	-0.220	-0.460	0.550
2020/01/31 06:01:26.3	91.570	-0.170	-0.580	0.550
2020/01/31 06:01:26.4	91.590	-0.130	-0.690	0.550
2020/01/31 06:01:26.5	91.610	-0.090	-0.790	0.550
2020/01/31 06:01:26.6	91.630	-0.040	-0.890	0.550
2020/01/31 06:01:26.7	91.650	0.000	-0.980	0.560
2020/01/31 06:01:26.8	91.670	0.040	-1.070	0.560
2020/01/31 06:01:26.9	91.690	0.080	-1.150	0.570
2020/01/31 06:01:27.0	91.700	0.120	-1.220	0.580
2020/01/31 06:01:27.1	91.720	0.160	-1.280	0.580
2020/01/31 06:01:27.2	91.740	0.190	-1.330	0.600
2020/01/31 06:01:27.3	91.760	0.220	-1.380	0.600
2020/01/31 06:01:27.4	91.770	0.250	-1.410	0.620
2020/01/31 06:01:27.5	91.780	0.270	-1.430	0.640
2020/01/31 06:01:27.6	91.790	0.290	-1.440	0.660
2020/01/31 06:01:27.7	91.790	0.310	-1.440	0.680
2020/01/31 06:01:27.8	91.800	0.320	-1.420	0.700
2020/01/31 06:01:27.9	91.790	0.330	-1.400	0.730
2020/01/31 06:01:28.0	91.790	0.330	-1.360	0.760
2020/01/31 06:01:28.1	91.780	0.330	-1.320	0.790
2020/01/31 06:01:28.2	91.770	0.330	-1.260	0.820
2020/01/31 06:01:28.3	91.760	0.320	-1.190	0.850
2020/01/31 06:01:28.4	91.740	0.310	-1.120	0.890
2020/01/31 06:01:28.5	91.730	0.290	-1.030	0.920
2020/01/31 06:01:28.6	91.700	0.270	-0.940	0.960
2020/01/31 06:01:28.7	91.680	0.250	-0.850	0.990
2020/01/31 06:01:28.8	91.650	0.230	-0.740	1.030
2020/01/31 06:01:28.9	91.630	0.200	-0.630	1.060
2020/01/31 06:01:29.0	91.600	0.160	-0.520	1.100
2020/01/31 06:01:29.1	91.570	0.130	-0.410	1.130
2020/01/31 06:01:29.2	91.540	0.090	-0.290	1.160
2020/01/31 06:01:29.3	91.510	0.060	-0.170	1.190
2020/01/31 06:01:29.4	91.480	0.020	-0.060	1.220
2020/01/31 06:01:29.5	91.450	-0.020	0.050	1.250
2020/01/31 06:01:29.6	91.420	-0.060	0.160	1.280
2020/01/31 06:01:29.7	91.390	-0.100	0.260	1.300
2020/01/31 06:01:29.8	91.360	-0.140	0.360	1.320
2020/01/31 06:01:29.9	91.330	-0.170	0.450	1.340
2020/01/31 06:01:30.0	91.310	-0.210	0.530	1.350
2020/01/31 06:01:30.1	91.280	-0.240	0.600	1.370
2020/01/31 06:01:30.2	91.260	-0.270	0.660	1.370
2020/01/31 06:01:30.3	91.230	-0.300	0.710	1.380
2020/01/31 06:01:30.4	91.210	-0.320	0.750	1.380
2020/01/31 06:01:30.5	91.200	-0.350	0.780	1.370
2020/01/31 06:01:30.6	91.180	-0.360	0.790	1.370
2020/01/31 06:01:30.7	91.170	-0.380	0.800	1.350
2020/01/31 06:01:30.8	91.170	-0.380	0.790	1.340
2020/01/31 06:01:30.9	91.160	-0.390	0.760	1.320
2020/01/31 06:01:31.0	91.160	-0.390	0.730	1.290
2020/01/31 06:01:31.1	91.160	-0.390	0.690	1.260
2020/01/31 06:01:31.2	91.160	-0.380	0.630	1.220
2020/01/31 06:01:31.3	91.150	-0.360	0.570	1.180
2020/01/31 06:01:31.4	91.160	-0.350	0.500	1.140
2020/01/31 06:01:31.5	91.170	-0.320	0.420	1.090
2020/01/31 06:01:31.6	91.180	-0.300	0.330	1.040
2020/01/31 06:01:31.7	91.200	-0.270	0.240	0.980
2020/01/31 06:01:31.8	91.210	-0.240	0.140	0.920
2020/01/31 06:01:31.9	91.230	-0.200	0.040	0.860
2020/01/31 06:01:32.0	91.250	-0.160	-0.070	0.800
2020/01/31 06:01:32.1	91.280	-0.120	-0.170	0.740
2020/01/31 06:01:32.2	91.300	-0.070	-0.280	0.680
2020/01/31 06:01:32.3	91.320	-0.030	-0.380	0.620
2020/01/31 06:01:32.4	91.350	0.020	-0.490	0.560
2020/01/31 06:01:32.5	91.370	0.070	-0.580	0.500
2020/01/31 06:01:32.6	91.400	0.120	-0.680	0.440
2020/01/31 06:01:32.7	91.430	0.170	-0.760	0.390
2020/01/31 06:01:32.8	91.450	0.210	-0.840	0.340
2020/01/31 06:01:32.9	91.480	0.260	-0.920	0.290
2020/01/31 06:01:33.0	91.500	0.310	-0.980	0.250
2020/01/31 06:01:33.1	91.530	0.350	-1.040	0.210
2020/01/31 06:01:33.2	91.550	0.390	-1.090	0.170
2020/01/31 06:01:33.3	91.590	0.430	-1.130	0.130
2020/01/31 06:01:33.4	91.610	0.470	-1.160	0.110
2020/01/31 06:01:33.5	91.630	0.500	-1.180	0.090
2020/01/31 06:01:33.6	91.650	0.530	-1.190	0.070
2020/01/31 06:01:33.7	91.660	0.550	-1.190	0.070
2020/01/31 06:01:33.8	91.670	0.570	-1.180	0.070
2020/01/31 06:01:33.9	91.680	0.590	-1.160	0.070
2020/01/31 06:01:34.0	91.680	0.600	-1.130	0.080
2020/01/31 06:01:34.1	91.690	0.610	-1.090	0.100
2020/01/31 06:01:34.2	91.680	0.610	-1.040	0.120
2020/01/31 06:01:34.3	91.700	0.610	-0.980	0.160
2020/01/31 06:01:34.4	91.700	0.600	-0.920	0.190
2020/01/31 06:01:34.5	91.680	0.590	-0.840	0.230
2020/01/31 06:01:34.6	91.670	0.570	-0.760	0.270
2020/01/31 06:01:34.7	91.650	0.540	-0.670	0.310
2020/01/31 06:01:34.8	91.630	0.520	-0.570	0.360
2020/01/31 06:01:34.9	91.600	0.480	-0.470	0.400
2020/01/31 06:01:35.0	91.580	0.450	-0.370	0.450
2020/01/31 06:01:35.1	91.550	0.410	-0.260	0.500
2020/01/31 06:01:35.2	91.520	0.360	-0.150	0.550
2020/01/31 06:01:35.3	91.500	0.310	-0.040	0.590
2020/01/31 06:01:35.4	91.470	0.260	0.070	0.640
2020/01/31 06:01:35.5	91.440	0.210	0.180	0.680
2020/01/31 06:01:35.6	91.410	0.150	0.290	0.730
2020/01/31 06:01:35.7	91.390	0.100	0.390	0.770
2020/01/31 06:01:35.8	91.360	0.040	0.490	0.800
2020/01/31 06:01:35.9	91.340	-0.020	0.580	0.840
2020/01/31 06:01:36.0	91.320	-0.080	0.670	0.870
2020/01/31 06:01:36.1	91.300	-0.130	0.740	0.900
2020/01/31 06:01:36.2	91.280	-0.190	0.820	0.920
2020/01/31 06:01:36.3	91.270	-0.240	0.870	0.940
2020/01/31 06:01:36.4	91.260	-0.290	0.920	0.960
2020/01/31 06:01:36.5	91.260	-0.340	0.960	0.980
2020/01/31 06:01:36.6	91.260	-0.380	0.980	0.990
2020/01/31 06:01:36.7	91.260	-0.420	0.990	1.000
2020/01/31 06:01:36.8	91.260	-0.460	0.990	1.010
2020/01/31 06:01:36.9	91.260	-0.480	0.970	1.010
2020/01/31 06:01:37.0	91.270	-0.510	0.940	1.010
2020/01/31 06:01:37.1	91.280	-0.520	0.900	1.020
2020/01/31 06:01:37.2	91.290	-0.530	0.840	1.010
2020/01/31 06:01:37.3	91.290	-0.530	0.770	1.010
2020/01/31 06:01:37.4	91.300	-0.530	0.690	1.000
2020/01/31 06:01:37.5	91.320	-0.520	0.600	1.000
2020/01/31 06:01:37.6	91.330	-0.500	0.490	0.990
2020/01/31 06:01:37.7	91.350	-0.480	0.380	0.980
2020/01/31 06:01:37.8	91.360	-0.450	0.260	0.980
2020/01/31 06:01:37.9	91.380	-0.410	0.140	0.970
2020/01/31 06:01:38.0	91.390	-0.370	0.010	0.960
2020/01/31 06:01:38.1	91.410	-0.330	-0.120	0.960
2020/01/31 06:01:38.2	91.420	-0.280	-0.250	0.950
2020/01/31 06:01:38.3	91.420	-0.230	-0.390	0.950
2020/01/31 06:01:38.4	91.430	-0.180	-0.510	0.940
2020/01/31 06:01:38.5	91.430	-0.130	-0.640	0.940
2020/01/31 06:01:38.6	91.440	-0.070	-0.750	0.940
2020/01/31 06:01:38.7	91.440	-0.020	-0.860	0.940
2020/01/31 06:01:38.8	91.430	0.030	-0.960	0.940
2020/01/31 06:01:38.9	91.430	0.080	-1.050	0.940
2020/01/31 06:01:39.0	91.420	0.130	-1.130	0.940
2020/01/31 06:01:39.1	91.410	0.170	-1.190	0.940
2020/01/31 06:01:39.2	91.400	0.210	-1.240	0.940
2020/01/31 06:01:39.3	91.390	0.240	-1.280	0.940
2020/01/31 06:01:39.4	91.370	0.270	-1.300	0.940
2020/01/31 06:01:39.5	91.350	0.300	-1.300	0.930
2020/01/31 06:01:39.6	91.330	0.310	-1.290	0.930
2020/01/31 06:01:39.7	91.300	0.330	-1.270	0.930
2020/01/31 06:01:39.8	91.280	0.330	-1.230	0.930
2020/01/31 06:01:39.9	91.260	0.330	-1.180	0.930
2020/01/31 06:01:40.0	91.230	0.330	-1.120	0.930
2020/01/31 06:01:40.1	91.210	0.310	-1.040	0.940
2020/01/31 06:01:40.2	91.180	0.300	-0.950	0.940
2020/01/31 06:01:40.3	91.180	0.270	-0.860	0.950
2020/01/31 06:01:40.4	91.160	0.240	-0.750	0.950
2020/01/31 06:01:40.5	91.130	0.210	-0.640	0.960
2020/01/31 06:01:40.6	91.110	0.170	-0.530	0.970
2020/01/31 06:01:40.7	91.090	0.130	-0.410	0.980
2020/01/31 06:01:40.8	91.070	0.090	-0.290	0.990
2020/01/31 06:01:40.9	91.050	0.040	-0.180	1.000
2020/01/31 06:01:41.0	91.040	-0.010	-0.060	1.010
2020/01/31 06:01:41.1	91.030	-0.060	0.050	1.020
2020/01/31 06:01:41.2	91.020	-0.110	0.160	1.030
2020/01/31 06:01:41.3	91.030	-0.160	0.260	1.050
2020/01/31 06:01:41.4	91.020	-0.210	0.350	1.060
2020/01/31 06:01:41.5	91.020	-0.250	0.430	1.060
2020/01/31 06:01:41.6	91.030	-0.300	0.510	1.070
2020/01/31 06:01:41.7	91.040	-0.340	0.570	1.070
2020/01/31 06:01:41.8	91.050	-0.370	0.610	1.070
2020/01/31 06:01:41.9	91.060	-0.410	0.650	1.070
2020/01/31 06:01:42.0	91.080	-0.430	0.670	1.060
2020/01/31 06:01:42.1	91.100	-0.460	0.670	1.050
2020/01/31 06:01:42.2	91.120	-0.470	0.660	1.040
2020/01/31 06:01:42.3	91.140	-0.480	0.640	1.020
2020/01/31 06:01:42.4	91.160	-0.490	0.610	1.000
2020/01/31 06:01:42.5	91.190	-0.490	0.560	0.970
2020/01/31 06:01:42.6	91.220	-0.490	0.500	0.940
2020/01/31 06:01:42.7	91.250	-0.480	0.440	0.910
2020/01/31 06:01:42.8	91.280	-0.460	0.360	0.880
2020/01/31 06:01:42.9	91.320	-0.440	0.280	0.840
2020/01/31 06:01:43.0	91.350	-0.420	0.190	0.800
2020/01/31 06:01:43.1	91.380	-0.390	0.100	0.750
2020/01/31 06:01:43.2	91.410	-0.360	0.000	0.710
2020/01/31 06:01:43.3	91.440	-0.330	-0.090	0.670
2020/01/31 06:01:43.4	91.470	-0.300	-0.190	0.630
2020/01/31 06:01:43.5	91.500	-0.260	-0.280	0.590
2020/01/31 06:01:43.6	91.520	-0.220	-0.380	0.550
2020/01/31 06:01:43.7	91.540	-0.190	-0.460	0.520
2020/01/31 06:01:43.8	91.560	-0.150	-0.540	0.490
2020/01/31 06:01:43.9	91.570	-0.110	-0.610	0.470
2020/01/31 06:01:44.0	91.580	-0.080	-0.680	0.450
2020/01/31 06:01:44.1	91.590	-0.050	-0.740	0.440
2020/01/31 06:01:44.2	91.590	-0.020	-0.780	0.430
2020/01/31 06:01:44.3	91.590	0.010	-0.820	0.430
2020/01/31 06:01:44.4	91.590	0.030	-0.850	0.430
2020/01/31 06:01:44.5	91.580	0.050	-0.860	0.440
2020/01/31 06:01:44.6	91.570	0.070	-0.870	0.460
2020/01/31 06:01:44.7	91.550	0.080	-0.860	0.480
2020/01/31 06:01:44.8	91.540	0.090	-0.850	0.510
2020/01/31 06:01:44.9	91.510	0.100	-0.830	0.540
2020/01/31 06:01:45.0	91.490	0.100	-0.800	0.570
2020/01/31 06:01:45.1	91.460	0.100	-0.760	0.610
2020/01/31 06:01:45.2	91.430	0.100	-0.710	0.650
2020/01/31 06:01:45.3	91.410	0.090	-0.650	0.700
2020/01/31 06:01:45.4	91.370	0.080	-0.600	0.750
2020/01/31 06:01:45.5	91.340	0.070	-0.530	0.790
2020/01/31 06:01:45.6	91.300	0.050	-0.470	0.840
2020/01/31 06:01:45.7	91.260	0.040	-0.400	0.880
2020/01/31 06:01:45.8	91.220	0.020	-0.330	0.920
2020/01/31 06:01:45.9	91.180	-0.000	-0.270	0.960
2020/01/31 06:01:46.0	91.140	-0.020	-0.200	1.000
2020/01/31 06:01:46.1	91.100	-0.040	-0.140	1.030
2020/01/31 06:01:46.2	91.040	-0.060	-0.070	1.050
2020/01/31 06:01:46.3	91.000	-0.080	-0.020	1.080
2020/01/31 06:01:46.4	90.970	-0.090	0.030	1.100
2020/01/31 06:01:46.5	90.930	-0.110	0.080	1.120
2020/01/31 06:01:46.6	90.890	-0.120	0.110	1.130
2020/01/31 06:01:46.7	90.860	-0.130	0.140	1.140
2020/01/31 06:01:46.8	90.830	-0.130	0.160	1.140
2020/01/31 06:01:46.9	90.800	-0.130	0.170	1.140
2020/01/31 06:01:47.0	90.770	-0.130	0.180	1.140
2020/01/31 06:01:47.1	90.750	-0.130	0.170	1.130
2020/01/31 06:01:47.2	90.720	-0.120	0.160	1.110
2020/01/31 06:01:47.3	90.700	-0.100	0.140	1.090
2020/01/31 06:01:47.4	90.680	-0.090	0.110	1.070
2020/01/31 06:01:47.5	90.670	-0.060	0.070	1.040
2020/01/31 06:01:47.6	90.660	-0.040	0.030	1.020
2020/01/31 06:01:47.7	90.650	-0.010	-0.020	0.980
2020/01/31 06:01:47.8	90.640	0.020	-0.070	0.940
2020/01/31 06:01:47.9	90.640	0.050	-0.130	0.900
2020/01/31 06:01:48.0	90.650	0.090	-0.190	0.860
2020/01/31 06:01:48.1	90.650	0.130	-0.250	0.820
2020/01/31 06:01:48.2	90.660	0.170	-0.310	0.770
2020/01/31 06:01:48.3	90.660	0.210	-0.380	0.710
2020/01/31 06:01:48.4	90.670	0.250	-0.440	0.660
2020/01/31 06:01:48.5	90.690	0.290	-0.490	0.620
2020/01/31 06:01:48.6	90.710	0.320	-0.550	0.570
2020/01/31 06:01:48.7	90.730	0.360	-0.600	0.520
2020/01/31 06:01:48.8	90.750	0.400	-0.640	0.470
2020/01/31 06:01:48.9	90.770	0.430	-0.680	0.430
2020/01/31 06:01:49.0	90.790	0.460	-0.710	0.380
2020/01/31 06:01:49.1	90.820	0.490	-0.740	0.340
2020/01/31 06:01:49.2	90.840	0.520	-0.760	0.300
2020/01/31 06:01:49.3	90.870	0.540	-0.770	0.260
2020/01/31 06:01:49.4	90.890	0.560	-0.780	0.230
2020/01/31 06:01:49.5	90.920	0.580	-0.780	0.190
2020/01/31 06:01:49.6	90.940	0.590	-0.770	0.160
2020/01/31 06:01:49.7	90.970	0.600	-0.760	0.130
2020/01/31 06:01:49.8	90.990	0.610	-0.740	0.110
2020/01/31 06:01:49.9	91.020	0.610	-0.710	0.090
2020/01/31 06:01:50.0	91.040	0.610	-0.680	0.070
2020/01/31 06:01:50.1	91.060	0.600	-0.630	0.050
2020/01/31 06:01:50.2	91.090	0.590	-0.590	0.040
2020/01/31 06:01:50.3	91.110	0.580	-0.540	0.030
2020/01/31 06:01:50.4	91.130	0.560	-0.480	0.020
2020/01/31 06:01:50.5	91.160	0.540	-0.420	0.020
2020/01/31 06:01:50.6	91.180	0.510	-0.350	0.020
2020/01/31 06:01:50.7	91.200	0.480	-0.290	0.030
2020/01/31 06:01:50.8	91.230	0.450	-0.220	0.040
2020/01/31 06:01:50.9	91.250	0.420	-0.150	0.060
2020/01/31 06:01:51.0	91.270	0.390	-0.080	0.080
2020/01/31 06:01:51.1	91.280	0.350	-0.010	0.110
2020/01/31 06:01:51.2	91.300	0.310	0.060	0.140
2020/01/31 06:01:51.3	91.320	0.270	0.130	0.170
2020/01/31 06:01:51.4	91.330	0.230	0.200	0.210
2020/01/31 06:01:51.5	91.350	0.190	0.260	0.250
2020/01/31 06:01:51.6	91.360	0.140	0.320	0.300
2020/01/31 06:01:51.7	91.370	0.100	0.380	0.350
2020/01/31 06:01:51.8	91.380	0.060	0.430	0.400
2020/01/31 06:01:51.9	91.390	0.020	0.480	0.450
2020/01/31 06:01:52.0	91.400	-0.020	0.520	0.510
2020/01/31 06:01:52.1	91.400	-0.060	0.560	0.560
2020/01/31 06:01:52.2	91.400	-0.100	0.590	0.620
2020/01/31 06:01:52.3	91.420	-0.140	0.620	0.680
2020/01/31 06:01:52.4	91.420	-0.170	0.640	0.740
2020/01/31 06:01:52.5	91.420	-0.200	0.660	0.800
2020/01/31 06:01:52.6	91.420	-0.230	0.660	0.850
2020/01/31 06:01:52.7	91.420	-0.260	0.660	0.910
2020/01/31 06:01:52.8	91.420	-0.290	0.660	0.960
2020/01/31 06:01:52.9	91.410	-0.310	0.650	1.010
2020/01/31 06:01:53.0	91.410	-0.330	0.630	1.050
2020/01/31 06:01:53.1	91.400	-0.350	0.610	1.100
2020/01/31 06:01:53.2	91.390	-0.360	0.580	1.140
2020/01/31 06:01:53.3	91.370	-0.370	0.540	1.180
2020/01/31 06:01:53.4	91.360	-0.380	0.500	1.210
2020/01/31 06:01:53.5	91.340	-0.390	0.450	1.240
2020/01/31 06:01:53.6	91.330	-0.390	0.400	1.270
2020/01/31 06:01:53.7	91.320	-0.390	0.350	1.290
2020/01/31 06:01:53.8	91.300	-0.390	0.290	1.310
2020/01/31 06:01:53.9	91.290	-0.380	0.230	1.330
2020/01/31 06:01:54.0	91.280	-0.380	0.160	1.350
2020/01/31 06:01:54.1	91.260	-0.370	0.090	1.360
2020/01/31 06:01:54.2	91.250	-0.350	0.020	1.360
2020/01/31 06:01:54.3	91.250	-0.340	-0.050	1.370
2020/01/31 06:01:54.4	91.240	-0.320	-0.130	1.370
2020/01/31 06:01:54.5	91.230	-0.300	-0.200	1.380
2020/01/31 06:01:54.6	91.220	-0.290	-0.280	1.380
2020/01/31 06:01:54.7	91.220	-0.260	-0.350	1.380
2020/01/31 06:01:54.8	91.210	-0.240	-0.430	1.370
2020/01/31 06:01:54.9	91.200	-0.220	-0.500	1.370
2020/01/31 06:01:55.0	91.200	-0.200	-0.570	1.370
2020/01/31 06:01:55.1	91.200	-0.170	-0.640	1.370
2020/01/31 06:01:55.2	91.200	-0.150	-0.700	1.360
2020/01/31 06:01:55.3	91.210	-0.130	-0.770	1.360
2020/01/31 06:01:55.4	91.210	-0.110	-0.830	1.350
2020/01/31 06:01:55.5	91.210	-0.090	-0.880	1.350
2020/01/31 06:01:55.6	91.220	-0.070	-0.930	1.350
2020/01/31 06:01:55.7	91.230	-0.050	-0.970	1.340
2020/01/31 06:01:55.8	91.240	-0.030	-1.010	1.330
2020/01/31 06:01:55.9	91.250	-0.020	-1.040	1.330
2020/01/31 06:01:56.0	91.260	-0.010	-1.070	1.320
2020/01/31 06:01:56.1	91.280	0.000	-1.090	1.310
2020/01/31 06:01:56.2	91.300	0.010	-1.100	1.300
2020/01/31 06:01:56.3	91.310	0.020	-1.110	1.280
2020/01/31 06:01:56.4	91.330	0.020	-1.110	1.270
2020/01/31 06:01:56.5	91.340	0.020	-1.110	1.250
2020/01/31 06:01:56.6	91.360	0.020	-1.100	1.230
2020/01/31 06:01:56.7	91.370	0.020	-1.080	1.210
2020/01/31 06:01:56.8	91.390	0.010	-1.060	1.190
2020/01/31 06:01:56.9	91.400	0.000	-1.030	1.160
2020/01/31 06:01:57.0	91.410	-0.010	-0.990	1.140
2020/01/31 06:01:57.1	91.420	-0.020	-0.950	1.110
2020/01/31 06:01:57.2	91.430	-0.030	-0.910	1.090
2020/01/31 06:01:57.3	91.420	-0.040	-0.860	1.060
2020/01/31 06:01:57.4	91.420	-0.050	-0.800	1.040
2020/01/31 06:01:57.5	91.430	-0.070	-0.750	1.020
2020/01/31 06:01:57.6	91.430	-0.080	-0.690	1.000
2020/01/31 06:01:57.7	91.430	-0.100	-0.620	0.970
2020/01/31 06:01:57.8	91.430	-0.120	-0.560	0.950
2020/01/31 06:01:57.9	91.430	-0.130	-0.490	0.930
2020/01/31 06:01:58.0	91.430	-0.150	-0.430	0.920
2020/01/31 06:01:58.1	91.420	-0.160	-0.360	0.900
2020/01/31 06:01:58.2	91.420	-0.180	-0.300	0.880
2020/01/31 06:01:58.3	91.420	-0.190	-0.230	0.860
2020/01/31 06:01:58.4	91.410	-0.210	-0.170	0.850
2020/01/31 06:01:58.5	91.410	-0.220	-0.100	0.830
2020/01/31 06:01:58.6	91.410	-0.230	-0.040	0.820
2020/01/31 06:01:58.7	91.400	-0.240	0.020	0.810
2020/01/31 06:01:58.8	91.400	-0.250	0.070	0.800
2020/01/31 06:01:58.9	91.390	-0.260	0.130	0.790
2020/01/31 06:01:59.0	91.390	-0.270	0.180	0.780
2020/01/31 06:01:59.1	91.390	-0.280	0.220	0.770
2020/01/31 06:01:59.2	91.380	-0.280	0.260	0.750
2020/01/31 06:01:59.3	91.380	-0.290	0.300	0.740
2020/01/31 06:01:59.4	91.380	-0.290	0.340	0.730
2020/01/31 06:01:59.5	91.380	-0.290	0.370	0.720
2020/01/31 06:01:59.6	91.370	-0.290	0.390	0.710
2020/01/31 06:01:59.7	91.370	-0.280	0.410	0.690
2020/01/31 06:01:59.8	91.380	-0.280	0.420	0.680
2020/01/31 06:01:59.9	91.380	-0.270	0.420	0.660
2020/01/31 06:02:00.0	91.380	-0.260	0.420	0.640
2020/01/31 06:02:00.1	91.380	-0.240	0.410	0.620
2020/01/31 06:02:00.2	91.390	-0.230	0.400	0.600
2020/01/31 06:02:00.3	91.390	-0.210	0.370	0.570
2020/01/31 06:02:00.4	91.390	-0.190	0.350	0.540
2020/01/31 06:02:00.5	91.400	-0.160	0.310	0.520
2020/01/31 06:02:00.6	91.420	-0.130	0.270	0.480
2020/01/31 06:02:00.7	91.430	-0.100	0.230	0.450
2020/01/31 06:02:00.8	91.440	-0.070	0.180	0.420
2020/01/31 06:02:00.9	91.460	-0.040	0.120	0.380
2020/01/31 06:02:01.0	91.480	-0.000	0.070	0.340
2020/01/31 06:02:01.1	91.500	0.040	0.000	0.300
2020/01/31 06:02:01.2	91.520	0.070	-0.060	0.260
2020/01/31 06:02:01.3	91.540	0.120	-0.130	0.210
2020/01/31 06:02:01.4	91.560	0.160	-0.190	0.170
2020/01/31 06:02:01.5	91.590	0.200	-0.250	0.130
2020/01/31 06:02:01.6	91.610	0.240	-0.310	0.090
2020/01/31 06:02:01.7	91.640	0.280	-0.370	0.050
2020/01/31 06:02:01.8	91.670	0.320	-0.430	0.020
2020/01/31 06:02:01.9	91.690	0.360	-0.480	-0.020
2020/01/31 06:02:02.0	91.720	0.400	-0.530	-0.050
2020/01/31 06:02:02.1	91.740	0.440	-0.580	-0.080
2020/01/31 06:02:02.2	91.770	0.470	-0.620	-0.100
2020/01/31 06:02:02.3	91.800	0.500	-0.650	-0.120
2020/01/31 06:02:02.4	91.830	0.530	-0.680	-0.140
2020/01/31 06:02:02.5	91.850	0.560	-0.710	-0.150
2020/01/31 06:02:02.6	91.870	0.580	-0.720	-0.160
2020/01/31 06:02:02.7	91.890	0.600	-0.740	-0.160
2020/01/31 06:02:02.8	91.900	0.620	-0.740	-0.160
2020/01/31 06:02:02.9	91.920	0.630	-0.740	-0.150
2020/01/31 06:02:03.0	91.930	0.640	-0.730	-0.140
2020/01/31 06:02:03.1	91.950	0.650	-0.720	-0.120
2020/01/31 06:02:03.2	91.970	0.650	-0.710	-0.100
2020/01/31 06:02:03.3	91.980	0.640	-0.680	-0.070
2020/01/31 06:02:03.4	91.990	0.630	-0.650	-0.040
2020/01/31 06:02:03.5	92.000	0.620	-0.620	-0.010
2020/01/31 06:02:03.6	92.000	0.600	-0.580	0.030
2020/01/31 06:02:03.7	92.010	0.580	-0.530	0.070
2020/01/31 06:02:03.8	92.010	0.550	-0.480	0.120
2020/01/31 06:02:03.9	92.010	0.520	-0.430	0.160
2020/01/31 06:02:04.0	92.010	0.490	-0.370	0.210
2020/01/31 06:02:04.1	92.010	0.450	-0.320	0.260
2020/01/31 06:02:04.2	92.000	0.410	-0.250	0.310
2020/01/31 06:02:04.3	91.990	0.370	-0.190	0.360
2020/01/31 06:02:04.4	91.990	0.320	-0.130	0.410
2020/01/31 06:02:04.5	91.990	0.270	-0.060	0.460
2020/01/31 06:02:04.6	91.980	0.220	0.000	0.510
2020/01/31 06:02:04.7	91.970	0.170	0.060	0.560
2020/01/31 06:02:04.8	91.970	0.120	0.120	0.610
2020/01/31 06:02:04.9	91.960	0.060	0.180	0.660
2020/01/31 06:02:05.0	91.950	0.010	0.240	0.710
2020/01/31 06:02:05.1	91.950	-0.040	0.290	0.750
2020/01/31 06:02:05.2	91.940	-0.100	0.340	0.800
2020/01/31 06:02:05.3	91.910	-0.150	0.380	0.840
2020/01/31 06:02:05.4	91.900	-0.200	0.420	0.880
2020/01/31 06:02:05.5	91.890	-0.250	0.450	0.920
2020/01/31 06:02:05.6	91.880	-0.300	0.480	0.960
2020/01/31 06:02:05.7	91.880	-0.340	0.500	0.990
2020/01/31 06:02:05.8	91.870	-0.380	0.510	1.030
2020/01/31 06:02:05.9	91.870	-0.420	0.520	1.060
2020/01/31 06:02:06.0	91.860	-0.450	0.520	1.090
2020/01/31 06:02:06.1	91.860	-0.470	0.510	1.120
2020/01/31 06:02:06.2	91.860	-0.500	0.490	1.140
2020/01/31 06:02:06.3	91.850	-0.520	0.460	1.160
2020/01/31 06:02:06.4	91.850	-0.530	0.430	1.180
2020/01/31 06:02:06.5	91.850	-0.540	0.390	1.200
2020/01/31 06:02:06.6	91.860	-0.540	0.340	1.210
2020/01/31 06:02:06.7	91.860	-0.540	0.280	1.220
2020/01/31 06:02:06.8	91.870	-0.530	0.220	1.230
2020/01/31 06:02:06.9	91.880	-0.510	0.150	1.230
2020/01/31 06:02:07.0	91.890	-0.490	0.080	1.230
2020/01/31 06:02:07.1	91.900	-0.470	0.000	1.240
2020/01/31 06:02:07.2	91.920	-0.440	-0.080	1.230
2020/01/31 06:02:07.3	91.930	-0.410	-0.160	1.230
2020/01/31 06:02:07.4	91.940	-0.370	-0.250	1.220
2020/01/31 06:02:07.5	91.960	-0.330	-0.330	1.210
2020/01/31 06:02:07.6	91.970	-0.290	-0.420	1.210
2020/01/31 06:02:07.7	91.990	-0.240	-0.500	1.200
2020/01/31 06:02:07.8	92.000	-0.200	-0.580	1.190
2020/01/31 06:02:07.9	92.010	-0.150	-0.660	1.190
2020/01/31 06:02:08.0	92.030	-0.100	-0.730	1.180
2020/01/31 06:02:08.1	92.040	-0.050	-0.790	1.180
2020/01/31 06:02:08.2	92.050	-0.000	-0.850	1.170
2020/01/31 06:02:08.3	92.060	0.050	-0.900	1.170
2020/01/31 06:02:08.4	92.060	0.090	-0.940	1.160
2020/01/31 06:02:08.5	92.070	0.130	-0.970	1.160
2020/01/31 06:02:08.6	92.070	0.170	-0.990	1.150
2020/01/31 06:02:08.7	92.080	0.210	-1.000	1.140
2020/01/31 06:02:08.8	92.080	0.240	-1.000	1.130
2020/01/31 06:02:08.9	92.080	0.270	-0.990	1.120
2020/01/31 06:02:09.0	92.090	0.290	-0.970	1.110
2020/01/31 06:02:09.1	92.090	0.310	-0.940	1.100
2020/01/31 06:02:09.2	92.090	0.330	-0.910	1.090
2020/01/31 06:02:09.3	92.110	0.340	-0.860	1.070
2020/01/31 06:02:09.4	92.110	0.340	-0.810	1.060
2020/01/31 06:02:09.5	92.110	0.340	-0.750	1.050
2020/01/31 06:02:09.6	92.110	0.340	-0.690	1.030
2020/01/31 06:02:09.7	92.110	0.330	-0.620	1.020
2020/01/31 06:02:09.8	92.110	0.320	-0.540	1.000
2020/01/31 06:02:09.9	92.110	0.300	-0.470	0.990
2020/01/31 06:02:10.0	92.110	0.290	-0.390	0.970
2020/01/31 06:02:10.1	92.110	0.260	-0.310	0.960
2020/01/31 06:02:10.2	92.120	0.240	-0.220	0.950
2020/01/31 06:02:10.3	92.120	0.210	-0.150	0.930
2020/01/31 06:02:10.4	92.120	0.190	-0.070	0.920
2020/01/31 06:02:10.5	92.120	0.160	0.000	0.910
2020/01/31 06:02:10.6	92.130	0.130	0.070	0.890
2020/01/31 06:02:10.7	92.130	0.110	0.130	0.880
2020/01/31 06:02:10.8	92.140	0.080	0.190	0.860
2020/01/31 06:02:10.9	92.150	0.050	0.240	0.840
2020/01/31 06:02:11.0	92.150	0.030	0.280	0.820
2020/01/31 06:02:11.1	92.160	0.010	0.320	0.800
2020/01/31 06:02:11.2	92.170	-0.010	0.340	0.780
2020/01/31 06:02:11.3	92.190	-0.030	0.360	0.760
2020/01/31 06:02:11.4	92.200	-0.040	0.370	0.730
2020/01/31 06:02:11.5	92.210	-0.050	0.370	0.710
2020/01/31 06:02:11.6	92.220	-0.060	0.360	0.680
2020/01/31 06:02:11.7	92.240	-0.070	0.350	0.650
2020/01/31 06:02:11.8	92.250	-0.070	0.320	0.620
2020/01/31 06:02:11.9	92.270	-0.070	0.290	0.590
2020/01/31 06:02:12.0	92.280	-0.060	0.250	0.550
2020/01/31 06:02:12.1	92.300	-0.060	0.210	0.520
2020/01/31 06:02:12.2	92.310	-0.050	0.160	0.490
2020/01/31 06:02:12.3	92.330	-0.040	0.100	0.450
2020/01/31 06:02:12.4	92.340	-0.020	0.040	0.420
2020/01/31 06:02:12.5	92.360	-0.010	-0.020	0.390
2020/01/31 06:02:12.6	92.370	0.010	-0.090	0.370
2020/01/31 06:02:12.7	92.380	0.030	-0.160	0.340
2020/01/31 06:02:12.8	92.390	0.050	-0.230	0.320
2020/01/31 06:02:12.9	92.390	0.070	-0.300	0.300
2020/01/31 06:02:13.0	92.400	0.090	-0.380	0.290
2020/01/31 06:02:13.1	92.400	0.110	-0.450	0.280
2020/01/31 06:02:13.2	92.400	0.130	-0.520	0.270
2020/01/31 06:02:13.3	92.390	0.150	-0.580	0.270
2020/01/31 06:02:13.4	92.390	0.170	-0.650	0.260
2020/01/31 06:02:13.5	92.390	0.190	-0.700	0.270
2020/01/31 06:02:13.6	92.390	0.200	-0.750	0.270
2020/01/31 06:02:13.7	92.380	0.210	-0.800	0.280
2020/01/31 06:02:13.8	92.380	0.220	-0.830	0.290
2020/01/31 06:02:13.9	92.370	0.220	-0.860	0.300
2020/01/31 06:02:14.0	92.360	0.220	-0.880	0.320
2020/01/31 06:02:14.1	92.360	0.220	-0.890	0.340
2020/01/31 06:02:14.2	92.350	0.210	-0.890	0.360
2020/01/31 06:02:14.3	92.340	0.200	-0.880	0.380
2020/01/31 06:02:14.4	92.330	0.190	-0.860	0.400
2020/01/31 06:02:14.5	92.320	0.170	-0.830	0.430
2020/01/31 06:02:14.6	92.320	0.140	-0.790	0.450
2020/01/31 06:02:14.7	92.310	0.110	-0.740	0.480
2020/01/31 06:02:14.8	92.310	0.080	-0.680	0.510
2020/01/31 06:02:14.9	92.300	0.050	-0.610	0.540
2020/01/31 06:02:15.0	92.300	0.010	-0.540	0.570
2020/01/31 06:02:15.1	92.300	-0.040	-0.450	0.600
2020/01/31 06:02:15.2	92.300	-0.080	-0.360	0.640
2020/01/31 06:02:15.3	92.300	-0.130	-0.260	0.670
2020/01/31 06:02:15.4	92.310	-0.180	-0.160	0.700
2020/01/31 06:02:15.5	92.310	-0.230	-0.060	0.740
2020/01/31 06:02:15.6	92.310	-0.290	0.040	0.770
2020/01/31 06:02:15.7	92.320	-0.340	0.150	0.800
2020/01/31 06:02:15.8	92.330	-0.390	0.250	0.830
2020/01/31 06:02:15.9	92.340	-0.450	0.360	0.860
2020/01/31 06:02:16.0	92.350	-0.500	0.450	0.890
2020/01/31 06:02:16.1	92.360	-0.550	0.550	0.910
2020/01/31 06:02:16.2	92.380	-0.600	0.640	0.930
2020/01/31 06:02:16.3	92.390	-0.640	0.710	0.960
2020/01/31 06:02:16.4	92.410	-0.690	0.780	0.970
2020/01/31 06:02:16.5	92.430	-0.720	0.840	0.990
2020/01/31 06:02:16.6	92.450	-0.760	0.890	1.000
2020/01/31 06:02:16.7	92.480	-0.780	0.930	1.010
2020/01/31 06:02:16.8	92.500	-0.800	0.950	1.010
2020/01/31 06:02:16.9	92.530	-0.820	0.960	1.020
2020/01/31 06:02:17.0	92.550	-0.820	0.950	1.020
2020/01/31 06:02:17.1	92.580	-0.820	0.930	1.020
2020/01/31 06:02:17.2	92.590	-0.810	0.890	1.010
2020/01/31 06:02:17.3	92.620	-0.800	0.840	1.000
2020/01/31 06:02:17.4	92.640	-0.770	0.770	1.000
2020/01/31 06:02:17.5	92.660	-0.740	0.690	0.990
2020/01/31 06:02:17.6	92.690	-0.700	0.600	0.980
2020/01/31 06:02:17.7	92.710	-0.650	0.490	0.970
2020/01/31 06:02:17.8	92.730	-0.600	0.380	0.960
2020/01/31 06:02:17.9	92.740	-0.540	0.250	0.950
2020/01/31 06:02:18.0	92.750	-0.470	0.120	0.940
2020/01/31 06:02:18.1	92.770	-0.400	-0.020	0.930
2020/01/31 06:02:18.2	92.770	-0.320	-0.170	0.920
2020/01/31 06:02:18.3	92.780	-0.240	-0.310	0.910
2020/01/31 06:02:18.4	92.780	-0.160	-0.460	0.900
2020/01/31 06:02:18.5	92.790	-0.070	-0.600	0.890
2020/01/31 06:02:18.6	92.790	0.010	-0.750	0.880
2020/01/31 06:02:18.7	92.780	0.100	-0.880	0.880
2020/01/31 06:02:18.8	92.780	0.190	-1.010	0.870
2020/01/31 06:02:18.9	92.770	0.270	-1.130	0.860
2020/01/31 06:02:19.0	92.770	0.360	-1.240	0.850
2020/01/31 06:02:19.1	92.760	0.440	-1.340	0.850
2020/01/31 06:02:19.2	92.750	0.510	-1.420	0.850
2020/01/31 06:02:19.3	92.750	0.590	-1.490	0.850
2020/01/31 06:02:19.4	92.740	0.650	-1.550	0.850
2020/01/31 06:02:19.5	92.730	0.710	-1.590	0.850
2020/01/31 06:02:19.6	92.720	0.760	-1.610	0.860
2020/01/31 06:02:19.7	92.700	0.810	-1.620	0.860
2020/01/31 06:02:19.8	92.690	0.850	-1.610	0.870
2020/01/31 06:02:19.9	92.680	0.880	-1.590	0.870
2020/01/31 06:02:20.0	92.670	0.900	-1.550	0.880
2020/01/31 06:02:20.1	92.660	0.920	-1.500	0.890
2020/01/31 06:02:20.2	92.650	0.920	-1.430	0.890
2020/01/31 06:02:20.3	92.650	0.920	-1.350	0.890
2020/01/31 06:02:20.4	92.640	0.910	-1.260	0.890
2020/01/31 06:02:20.5	92.640	0.900	-1.150	0.890
2020/01/31 06:02:20.6	92.630	0.870	-1.040	0.890
2020/01/31 06:02:20.7	92.630	0.840	-0.920	0.890
2020/01/31 06:02:20.8	92.630	0.810	-0.790	0.880
2020/01/31 06:02:20.9	92.630	0.760	-0.660	0.870
2020/01/31 06:02:21.0	92.630	0.720	-0.520	0.860
2020/01/31 06:02:21.1	92.630	0.660	-0.380	0.840
2020/01/31 06:02:21.2	92.630	0.610	-0.240	0.820
2020/01/31 06:02:21.3	92.640	0.550	-0.100	0.790
2020/01/31 06:02:21.4	92.640	0.490	0.040	0.760
2020/01/31 06:02:21.5	92.650	0.420	0.170	0.730
2020/01/31 06:02:21.6	92.660	0.360	0.300	0.700
2020/01/31 06:02:21.7	92.670	0.300	0.430	0.660
2020/01/31 06:02:21.8	92.690	0.230	0.540	0.620
2020/01/31 06:02:21.9	92.700	0.170	0.650	0.590
2020/01/31 06:02:22.0	92.710	0.110	0.750	0.550
2020/01/31 06:02:22.1	92.730	0.050	0.840	0.510
2020/01/31 06:02:22.2	92.740	-0.010	0.920	0.470
2020/01/31 06:02:22.3	92.750	-0.070	0.990	0.430
2020/01/31 06:02:22.4	92.770	-0.120	1.040	0.400
2020/01/31 06:02:22.5	92.780	-0.170	1.080	0.360
2020/01/31 06:02:22.6	92.800	-0.210	1.110	0.330
2020/01/31 06:02:22.7	92.810	-0.250	1.130	0.300
2020/01/31 06:02:22.8	92.820	-0.290	1.130	0.280
2020/01/31 06:02:22.9	92.830	-0.320	1.120	0.260
2020/01/31 06:02:23.0	92.840	-0.350	1.100	0.240
2020/01/31 06:02:23.1	92.850	-0.370	1.070	0.220
2020/01/31 06:02:23.2	92.860	-0.390	1.020	0.210
2020/01/31 06:02:23.3	92.870	-0.400	0.970	0.200
2020/01/31 06:02:23.4	92.880	-0.410	0.900	0.200
2020/01/31 06:02:23.5	92.890	-0.420	0.830	0.200
2020/01/31 06:02:23.6	92.890	-0.430	0.750	0.200
2020/01/31 06:02:23.7	92.900	-0.430	0.660	0.200
2020/01/31 06:02:23.8	92.900	-0.430	0.560	0.210
2020/01/31 06:02:23.9	92.900	-0.420	0.460	0.220
2020/01/31 06:02:24.0	92.910	-0.410	0.360	0.240
2020/01/31 06:02:24.1	92.910	-0.400	0.250	0.260
2020/01/31 06:02:24.2	92.910	-0.390	0.130	0.280
2020/01/31 06:02:24.3	92.920	-0.380	0.020	0.300
2020/01/31 06:02:24.4	92.920	-0.360	-0.090	0.320
2020/01/31 06:02:24.5	92.920	-0.340	-0.200	0.350
2020/01/31 06:02:24.6	92.920	-0.320	-0.320	0.380
2020/01/31 06:02:24.7	92.930	-0.300	-0.420	0.400
2020/01/31 06:02:24.8	92.930	-0.280	-0.530	0.430
2020/01/31 06:02:24.9	92.930	-0.260	-0.630	0.450
2020/01/31 06:02:25.0	92.940	-0.240	-0.720	0.480
2020/01/31 06:02:25.1	92.940	-0.220	-0.810	0.500
2020/01/31 06:02:25.2	92.940	-0.190	-0.890	0.530
2020/01/31 06:02:25.3	92.950	-0.170	-0.970	0.550
2020/01/31 06:02:25.4	92.950	-0.150	-1.030	0.570
2020/01/31 06:02:25.5	92.960	-0.120	-1.090	0.590
2020/01/31 06:02:25.6	92.960	-0.100	-1.130	0.610
2020/01/31 06:02:25.7	92.970	-0.080	-1.170	0.630
2020/01/31 06:02:25.8	92.980	-0.060	-1.200	0.640
2020/01/31 06:02:25.9	92.980	-0.040	-1.220	0.660
2020/01/31 06:02:26.0	92.990	-0.020	-1.230	0.680
2020/01/31 06:02:26.1	92.990	-0.000	-1.230	0.700
2020/01/31 06:02:26.2	93.000	0.020	-1.220	0.720
2020/01/31 06:02:26.3	93.020	0.030	-1.200	0.740
2020/01/31 06:02:26.4	93.020	0.050	-1.180	0.760
2020/01/31 06:02:26.5	93.030	0.060	-1.140	0.780
2020/01/31 06:02:26.6	93.030	0.080	-1.110	0.800
2020/01/31 06:02:26.7	93.030	0.090	-1.060	0.830
2020/01/31 06:02:26.8	93.040	0.100	-1.010	0.850
2020/01/31 06:02:26.9	93.040	0.110	-0.960	0.880
2020/01/31 06:02:27.0	93.040	0.120	-0.900	0.910
2020/01/31 06:02:27.1	93.040	0.130	-0.840	0.940
2020/01/31 06:02:27.2	93.040	0.140	-0.770	0.970
2020/01/31 06:02:27.3	93.040	0.150	-0.710	1.010
2020/01/31 06:02:27.4	93.040	0.150	-0.650	1.040
2020/01/31 06:02:27.5	93.040	0.160	-0.580	1.080
2020/01/31 06:02:27.6	93.040	0.160	-0.520	1.120
2020/01/31 06:02:27.7	93.040	0.170	-0.450	1.150
2020/01/31 06:02:27.8	93.040	0.170	-0.390	1.190
2020/01/31 06:02:27.9	93.050	0.170	-0.330	1.230
2020/01/31 06:02:28.0	93.050	0.170	-0.270	1.260
2020/01/31 06:02:28.1	93.050	0.170	-0.210	1.290
2020/01/31 06:02:28.2	93.060	0.170	-0.150	1.320
2020/01/31 06:02:28.3	93.050	0.170	-0.100	1.350
2020/01/31 06:02:28.4	93.060	0.160	-0.050	1.370
2020/01/31 06:02:28.5	93.070	0.160	-0.000	1.390
2020/01/31 06:02:28.6	93.080	0.150	0.050	1.400
2020/01/31 06:02:28.7	93.090	0.140	0.090	1.410
2020/01/31 06:02:28.8	93.100	0.130	0.140	1.410
2020/01/31 06:02:28.9	93.110	0.120	0.180	1.410
2020/01/31 06:02:29.0	93.120	0.110	0.220	1.400
2020/01/31 06:02:29.1	93.130	0.090	0.260	1.390
2020/01/31 06:02:29.2	93.140	0.070	0.300	1.370
2020/01/31 06:02:29.3	93.150	0.050	0.340	1.350
2020/01/31 06:02:29.4	93.160	0.030	0.370	1.320
2020/01/31 06:02:29.5	93.170	0.010	0.410	1.290
2020/01/31 06:02:29.6	93.170	-0.010	0.440	1.250
2020/01/31 06:02:29.7	93.170	-0.040	0.470	1.210
2020/01/31 06:02:29.8	93.180	-0.060	0.500	1.170
2020/01/31 06:02:29.9	93.180	-0.090	0.530	1.130
2020/01/31 06:02:30.0	93.170	-0.120	0.550	1.090
2020/01/31 06:02:30.1	93.170	-0.140	0.580	1.040
2020/01/31 06:02:30.2	93.160	-0.170	0.600	1.000
2020/01/31 06:02:30.3	93.150	-0.190	0.620	0.960
2020/01/31 06:02:30.4	93.140	-0.220	0.630	0.910
2020/01/31 06:02:30.5	93.130	-0.240	0.650	0.870
2020/01/31 06:02:30.6	93.110	-0.270	0.650	0.840
2020/01/31 06:02:30.7	93.100	-0.290	0.660	0.800
2020/01/31 06:02:30.8	93.080	-0.310	0.660	0.770
2020/01/31 06:02:30.9	93.060	-0.330	0.650	0.730
2020/01/31 06:02:31.0	93.050	-0.340	0.640	0.700
2020/01/31 06:02:31.1	93.030	-0.350	0.620	0.670
2020/01/31 06:02:31.2	93.020	-0.360	0.600	0.640
2020/01/31 06:02:31.3	93.000	-0.360	0.570	0.620
2020/01/31 06:02:31.4	92.990	-0.370	0.530	0.590
2020/01/31 06:02:31.5	92.980	-0.360	0.480	0.560
2020/01/31 06:02:31.6	92.970	-0.360	0.430	0.540
2020/01/31 06:02:31.7	92.960	-0.350	0.370	0.510
2020/01/31 06:02:31.8	92.960	-0.330	0.300	0.490
2020/01/31 06:02:31.9	92.960	-0.320	0.230	0.460
2020/01/31 06:02:32.0	92.960	-0.290	0.150	0.430
2020/01/31 06:02:32.1	92.960	-0.270	0.060	0.400
2020/01/31 06:02:32.2	92.970	-0.240	-0.030	0.370
2020/01/31 06:02:32.3	92.970	-0.210	-0.130	0.350
2020/01/31 06:02:32.4	92.980	-0.170	-0.230	0.310
2020/01/31 06:02:32.5	92.990	-0.140	-0.330	0.280
2020/01/31 06:02:32.6	93.000	-0.100	-0.440	0.250
2020/01/31 06:02:32.7	93.020	-0.050	-0.550	0.220
2020/01/31 06:02:32.8	93.040	-0.010	-0.650	0.190
2020/01/31 06:02:32.9	93.060	0.030	-0.760	0.160
2020/01/31 06:02:33.0	93.080	0.080	-0.860	0.130
2020/01/31 06:02:33.1	93.100	0.120	-0.960	0.100
2020/01/31 06:02:33.2	93.120	0.170	-1.050	0.070
2020/01/31 06:02:33.3	93.140	0.220	-1.150	0.040
2020/01/31 06:02:33.4	93.160	0.260	-1.230	0.020
2020/01/31 06:02:33.5	93.180	0.300	-1.310	0.000
2020/01/31 06:02:33.6	93.200	0.340	-1.370	-0.010
2020/01/31 06:02:33.7	93.220	0.380	-1.430	-0.020
2020/01/31 06:02:33.8	93.240	0.410	-1.470	-0.030
2020/01/31 06:02:33.9	93.260	0.450	-1.510	-0.030
2020/01/31 06:02:34.0	93.270	0.470	-1.530	-0.030
2020/01/31 06:02:34.1	93.290	0.500	-1.540	-0.020
2020/01/31 06:02:34.2	93.300	0.520	-1.540	-0.010
2020/01/31 06:02:34.3	93.320	0.540	-1.530	0.010
2020/01/31 06:02:34.4	93.330	0.550	-1.500	0.030
2020/01/31 06:02:34.5	93.340	0.550	-1.460	0.050
2020/01/31 06:02:34.6	93.350	0.560	-1.420	0.080
2020/01/31 06:02:34.7	93.350	0.560	-1.350	0.120
2020/01/31 06:02:34.8	93.360	0.550	-1.280	0.150
2020/01/31 06:02:34.9	93.360	0.540	-1.200	0.190
2020/01/31 06:02:35.0	93.360	0.520	-1.100	0.230
2020/01/31 06:02:35.1	93.360	0.500	-1.000	0.270
2020/01/31 06:02:35.2	93.350	0.480	-0.890	0.320
2020/01/31 06:02:35.3	93.350	0.450	-0.770	0.370
2020/01/31 06:02:35.4	93.350	0.410	-0.650	0.420
2020/01/31 06:02:35.5	93.340	0.380	-0.530	0.470
2020/01/31 06:02:35.6	93.330	0.340	-0.400	0.520
2020/01/31 06:02:35.7	93.320	0.300	-0.260	0.570
2020/01/31 06:02:35.8	93.300	0.250	-0.130	0.620
2020/01/31 06:02:35.9	93.290	0.210	0.000	0.670
2020/01/31 06:02:36.0	93.280	0.160	0.130	0.720
2020/01/31 06:02:36.1	93.270	0.110	0.260	0.770
2020/01/31 06:02:36.2	93.250	0.060	0.380	0.820
2020/01/31 06:02:36.3	93.250	0.010	0.490	0.870
2020/01/31 06:02:36.4	93.230	-0.040	0.600	0.910
2020/01/31 06:02:36.5	93.220	-0.090	0.700	0.960
2020/01/31 06:02:36.6	93.210	-0.130	0.790	1.000
2020/01/31 06:02:36.7	93.200	-0.180	0.870	1.040
2020/01/31 06:02:36.8	93.190	-0.220	0.930	1.080
2020/01/31 06:02:36.9	93.180	-0.260	0.990	1.110
2020/01/31 06:02:37.0	93.160	-0.290	1.030	1.140
2020/01/31 06:02:37.1	93.150	-0.320	1.060	1.180
2020/01/31 06:02:37.2	93.130	-0.350	1.070	1.210
2020/01/31 06:02:37.3	93.130	-0.370	1.070	1.230
2020/01/31 06:02:37.4	93.120	-0.390	1.060	1.260
2020/01/31 06:02:37.5	93.110	-0.400	1.030	1.280
2020/01/31 06:02:37.6	93.100	-0.410	0.990	1.290
2020/01/31 06:02:37.7	93.100	-0.420	0.940	1.310
2020/01/31 06:02:37.8	93.090	-0.420	0.880	1.320
2020/01/31 06:02:37.9	93.090	-0.410	0.810	1.320
2020/01/31 06:02:38.0	93.090	-0.400	0.720	1.330
2020/01/31 06:02:38.1	93.090	-0.380	0.630	1.330
2020/01/31 06:02:38.2	93.100	-0.360	0.530	1.320
2020/01/31 06:02:38.3	93.110	-0.340	0.420	1.310
2020/01/31 06:02:38.4	93.120	-0.310	0.310	1.300
2020/01/31 06:02:38.5	93.130	-0.280	0.190	1.290
2020/01/31 06:02:38.6	93.130	-0.240	0.070	1.270
2020/01/31 06:02:38.7	93.140	-0.210	-0.050	1.260
2020/01/31 06:02:38.8	93.150	-0.170	-0.170	1.240
2020/01/31 06:02:38.9	93.160	-0.130	-0.290	1.220
2020/01/31 06:02:39.0	93.170	-0.090	-0.400	1.200
2020/01/31 06:02:39.1	93.180	-0.040	-0.510	1.180
2020/01/31 06:02:39.2	93.190	-0.000	-0.620	1.160
2020/01/31 06:02:39.3	93.210	0.040	-0.720	1.140
2020/01/31 06:02:39.4	93.220	0.080	-0.810	1.120
2020/01/31 06:02:39.5	93.220	0.120	-0.890	1.100
2020/01/31 06:02:39.6	93.230	0.160	-0.960	1.080
2020/01/31 06:02:39.7	93.230	0.190	-1.010	1.060
2020/01/31 06:02:39.8	93.230	0.220	-1.050	1.040
2020/01/31 06:02:39.9	93.240	0.250	-1.080	1.030
2020/01/31 06:02:40.0	93.230	0.270	-1.100	1.010
2020/01/31 06:02:40.1	93.230	0.290	-1.110	1.000
2020/01/31 06:02:40.2	93.230	0.300	-1.100	0.980
2020/01/31 06:02:40.3	93.220	0.320	-1.070	0.970
2020/01/31 06:02:40.4	93.220	0.320	-1.040	0.960
2020/01/31 06:02:40.5	93.210	0.320	-0.990	0.940
2020/01/31 06:02:40.6	93.200	0.320	-0.930	0.930
2020/01/31 06:02:40.7	93.190	0.310	-0.860	0.920
2020/01/31 06:02:40.8	93.190	0.300	-0.780	0.910
2020/01/31 06:02:40.9	93.180	0.280	-0.700	0.900
2020/01/31 06:02:41.0	93.170	0.260	-0.610	0.890
2020/01/31 06:02:41.1	93.160	0.230	-0.510	0.880
2020/01/31 06:02:41.2	93.150	0.200	-0.410	0.870
2020/01/31 06:02:41.3	93.130	0.170	-0.310	0.860
2020/01/31 06:02:41.4	93.120	0.140	-0.210	0.850
2020/01/31 06:02:41.5	93.120	0.100	-0.100	0.840
2020/01/31 06:02:41.6	93.110	0.060	-0.000	0.830
2020/01/31 06:02:41.7	93.110	0.030	0.100	0.820
2020/01/31 06:02:41.8	93.110	-0.010	0.190	0.800
2020/01/31 06:02:41.9	93.100	-0.050	0.280	0.790
2020/01/31 06:02:42.0	93.100	-0.090	0.360	0.780
2020/01/31 06:02:42.1	93.110	-0.120	0.430	0.760
2020/01/31 06:02:42.2	93.110	-0.150	0.490	0.750
2020/01/31 06:02:42.3	93.110	-0.180	0.540	0.730
2020/01/31 06:02:42.4	93.110	-0.210	0.580	0.710
2020/01/31 06:02:42.5	93.120	-0.230	0.610	0.700
2020/01/31 06:02:42.6	93.120	-0.250	0.620	0.680
2020/01/31 06:02:42.7	93.130	-0.270	0.620	0.660
2020/01/31 06:02:42.8	93.140	-0.270	0.620	0.640
2020/01/31 06:02:42.9	93.150	-0.280	0.590	0.610
2020/01/31 06:02:43.0	93.160	-0.280	0.560	0.590
2020/01/31 06:02:43.1	93.170	-0.270	0.520	0.570
2020/01/31 06:02:43.2	93.180	-0.260	0.460	0.540
2020/01/31 06:02:43.3	93.180	-0.250	0.400	0.510
2020/01/31 06:02:43.4	93.200	-0.230	0.320	0.490
2020/01/31 06:02:43.5	93.210	-0.200	0.240	0.460
2020/01/31 06:02:43.6	93.230	-0.180	0.160	0.440
2020/01/31 06:02:43.7	93.240	-0.140	0.070	0.420
2020/01/31 06:02:43.8	93.260	-0.110	-0.030	0.400
2020/01/31 06:02:43.9	93.270	-0.070	-0.120	0.380
2020/01/31 06:02:44.0	93.280	-0.040	-0.220	0.360
2020/01/31 06:02:44.1	93.300	0.000	-0.320	0.340
2020/01/31 06:02:44.2	93.320	0.040	-0.420	0.330
2020/01/31 06:02:44.3	93.330	0.080	-0.510	0.320
2020/01/31 06:02:44.4	93.340	0.120	-0.600	0.310
2020/01/31 06:02:44.5	93.350	0.160	-0.680	0.300
2020/01/31 06:02:44.6	93.350	0.200	-0.750	0.300
2020/01/31 06:02:44.7	93.360	0.230	-0.820	0.300
2020/01/31 06:02:44.8	93.360	0.260	-0.880	0.300
2020/01/31 06:02:44.9	93.360	0.290	-0.930	0.300
2020/01/31 06:02:45.0	93.360	0.320	-0.970	0.300
2020/01/31 06:02:45.1	93.360	0.340	-1.000	0.310
2020/01/31 06:02:45.2	93.360	0.360	-1.020	0.320
2020/01/31 06:02:45.3	93.350	0.370	-1.020	0.340
2020/01/31 06:02:45.4	93.340	0.380	-1.020	0.350
2020/01/31 06:02:45.5	93.330	0.380	-1.010	0.370
2020/01/31 06:02:45.6	93.330	0.380	-0.990	0.390
2020/01/31 06:02:45.7	93.320	0.370	-0.950	0.410
2020/01/31 06:02:45.8	93.310	0.360	-0.910	0.440
2020/01/31 06:02:45.9	93.300	0.350	-0.860	0.470
2020/01/31 06:02:46.0	93.280	0.330	-0.800	0.490
2020/01/31 06:02:46.1	93.270	0.310	-0.730	0.520
2020/01/31 06:02:46.2	93.260	0.280	-0.660	0.560
2020/01/31 06:02:46.3	93.260	0.250	-0.580	0.590
2020/01/31 06:02:46.4	93.250	0.210	-0.500	0.620
2020/01/31 06:02:46.5	93.240	0.180	-0.420	0.650
2020/01/31 06:02:46.6	93.230	0.140	-0.330	0.690
2020/01/31 06:02:46.7	93.220	0.100	-0.250	0.720
2020/01/31 06:02:46.8	93.210	0.060	-0.160	0.750
2020/01/31 06:02:46.9	93.200	0.010	-0.080	0.790
2020/01/31 06:02:47.0	93.190	-0.030	-0.000	0.820
2020/01/31 06:02:47.1	93.180	-0.070	0.070	0.850
2020/01/31 06:02:47.2	93.170	-0.110	0.140	0.890
2020/01/31 06:02:47.3	93.160	-0.150	0.200	0.920
2020/01/31 06:02:47.4	93.150	-0.190	0.260	0.950
2020/01/31 06:02:47.5	93.140	-0.220	0.300	0.980
2020/01/31 06:02:47.6	93.140	-0.250	0.340	1.010
2020/01/31 06:02:47.7	93.130	-0.280	0.370	1.030
2020/01/31 06:02:47.8	93.130	-0.310	0.400	1.060
2020/01/31 06:02:47.9	93.120	-0.330	0.410	1.080
2020/01/31 06:02:48.0	93.120	-0.340	0.420	1.100
2020/01/31 06:02:48.1	93.120	-0.350	0.410	1.120
2020/01/31 06:02:48.2	93.120	-0.360	0.400	1.130
2020/01/31 06:02:48.3	93.110	-0.370	0.390	1.140
2020/01/31 06:02:48.4	93.110	-0.370	0.370	1.150
2020/01/31 06:02:48.5	93.110	-0.360	0.330	1.160
2020/01/31 06:02:48.6	93.120	-0.360	0.300	1.160
2020/01/31 06:02:48.7	93.120	-0.340	0.260	1.160
2020/01/31 06:02:48.8	93.120	-0.330	0.210	1.160
2020/01/31 06:02:48.9	93.120	-0.310	0.160	1.160
2020/01/31 06:02:49.0	93.120	-0.290	0.110	1.150
2020/01/31 06:02:49.1	93.130	-0.270	0.060	1.150
2020/01/31 06:02:49.2	93.130	-0.240	0.010	1.140
2020/01/31 06:02:49.3	93.130	-0.220	-0.050	1.130
2020/01/31 06:02:49.4	93.130	-0.190	-0.110	1.110
2020/01/31 06:02:49.5	93.130	-0.160	-0.160	1.100
2020/01/31 06:02:49.6	93.130	-0.130	-0.210	1.080
2020/01/31 06:02:49.7	93.130	-0.100	-0.260	1.060
2020/01/31 06:02:49.8	93.130	-0.070	-0.310	1.040
2020/01/31 06:02:49.9	93.130	-0.040	-0.350	1.020
2020/01/31 06:02:50.0	93.130	-0.010	-0.400	1.000
2020/01/31 06:02:50.1	93.130	0.030	-0.430	0.980
2020/01/31 06:02:50.2	93.130	0.060	-0.470	0.960
2020/01/31 06:02:50.3	93.140	0.090	-0.490	0.940
2020/01/31 06:02:50.4	93.130	0.110	-0.520	0.920
2020/01/31 06:02:50.5	93.130	0.140	-0.550	0.900
2020/01/31 06:02:50.6	93.130	0.170	-0.560	0.880
2020/01/31 06:02:50.7	93.130	0.190	-0.580	0.860
2020/01/31 06:02:50.8	93.120	0.210	-0.590	0.840
2020/01/31 06:02:50.9	93.120	0.230	-0.600	0.820
2020/01/31 06:02:51.0	93.120	0.250	-0.600	0.810
2020/01/31 06:02:51.1	93.120	0.270	-0.600	0.790
2020/01/31 06:02:51.2	93.110	0.280	-0.590	0.770
2020/01/31 06:02:51.3	93.090	0.290	-0.590	0.760
2020/01/31 06:02:51.4	93.090	0.300	-0.570	0.750
2020/01/31 06:02:51.5	93.090	0.310	-0.550	0.730
2020/01/31 06:02:51.6	93.090	0.310	-0.530	0.720
2020/01/31 06:02:51.7	93.080	0.320	-0.510	0.710
2020/01/31 06:02:51.8	93.080	0.320	-0.480	0.700
2020/01/31 06:02:51.9	93.080	0.310	-0.450	0.690
2020/01/31 06:02:52.0	93.080	0.310	-0.420	0.680
2020/01/31 06:02:52.1	93.080	0.300	-0.390	0.680
2020/01/31 06:02:52.2	93.080	0.290	-0.350	0.670
2020/01/31 06:02:52.3	93.090	0.280	-0.310	0.660
2020/01/31 06:02:52.4	93.090	0.270	-0.270	0.660
2020/01/31 06:02:52.5	93.090	0.250	-0.230	0.660
2020/01/31 06:02:52.6	93.100	0.230	-0.180	0.660
2020/01/31 06:02:52.7	93.100	0.210	-0.140	0.660
2020/01/31 06:02:52.8	93.100	0.190	-0.100	0.660
2020/01/31 06:02:52.9	93.100	0.170	-0.060	0.660
2020/01/31 06:02:53.0	93.110	0.140	-0.020	0.660
2020/01/31 06:02:53.1	93.110	0.120	0.020	0.660
2020/01/31 06:02:53.2	93.120	0.090	0.060	0.670
2020/01/31 06:02:53.3	93.120	0.060	0.100	0.670
2020/01/31 06:02:53.4	93.130	0.030	0.130	0.670
2020/01/31 06:02:53.5	93.140	0.010	0.170	0.680
2020/01/31 06:02:53.6	93.140	-0.020	0.200	0.680
2020/01/31 06:02:53.7	93.150	-0.050	0.230	0.690
2020/01/31 06:02:53.8	93.160	-0.080	0.260	0.690
2020/01/31 06:02:53.9	93.170	-0.110	0.280	0.690
2020/01/31 06:02:54.0	93.180	-0.130	0.300	0.690
2020/01/31 06:02:54.1	93.190	-0.160	0.320	0.700
2020/01/31 06:02:54.2	93.200	-0.180	0.330	0.700
2020/01/31 06:02:54.3	93.210	-0.210	0.340	0.700
2020/01/31 06:02:54.4	93.220	-0.230	0.350	0.700
2020/01/31 06:02:54.5	93.220	-0.250	0.350	0.700
2020/01/31 06:02:54.6	93.230	-0.270	0.350	0.700
2020/01/31 06:02:54.7	93.240	-0.290	0.350	0.700
2020/01/31 06:02:54.8	93.240	-0.300	0.340	0.700
2020/01/31 06:02:54.9	93.250	-0.310	0.320	0.700
2020/01/31 06:02:55.0	93.260	-0.320	0.310	0.700
2020/01/31 06:02:55.1	93.260	-0.320	0.290	0.700
2020/01/31 06:02:55.2	93.270	-0.330	0.260	0.690
2020/01/31 06:02:55.3	93.290	-0.330	0.230	0.690
2020/01/31 06:02:55.4	93.300	-0.330	0.200	0.680
2020/01/31 06:02:55.5	93.310	-0.320	0.170	0.680
2020/01/31 06:02:55.6	93.310	-0.310	0.130	0.670
2020/01/31 06:02:55.7	93.320	-0.300	0.090	0.660
2020/01/31 06:02:55.8	93.330	-0.290	0.050	0.660
2020/01/31 06:02:55.9	93.340	-0.270	0.010	0.650
2020/01/31 06:02:56.0	93.350	-0.250	-0.040	0.640
2020/01/31 06:02:56.1	93.360	-0.230	-0.090	0.640
2020/01/31 06:02:56.2	93.370	-0.200	-0.130	0.630
2020/01/31 06:02:56.3	93.370	-0.180	-0.180	0.620
2020/01/31 06:02:56.4	93.380	-0.150	-0.230	0.620
2020/01/31 06:02:56.5	93.390	-0.120	-0.280	0.620
2020/01/31 06:02:56.6	93.400	-0.090	-0.330	0.620
2020/01/31 06:02:56.7	93.400	-0.060	-0.380	0.620
2020/01/31 06:02:56.8	93.410	-0.030	-0.430	0.620
2020/01/31 06:02:56.9	93.420	-0.000	-0.480	0.620
2020/01/31 06:02:57.0	93.430	0.030	-0.520	0.630
2020/01/31 06:02:57.1	93.430	0.060	-0.570	0.640
2020/01/31 06:02:57.2	93.440	0.100	-0.610	0.640
2020/01/31 06:02:57.3	93.440	0.130	-0.650	0.660
2020/01/31 06:02:57.4	93.450	0.160	-0.690	0.670
2020/01/31 06:02:57.5	93.450	0.190	-0.730	0.680
2020/01/31 06:02:57.6	93.450	0.220	-0.760	0.700
2020/01/31 06:02:57.7	93.450	0.240	-0.790	0.720
2020/01/31 06:02:57.8	93.450	0.270	-0.820	0.740
2020/01/31 06:02:57.9	93.440	0.290	-0.850	0.760
2020/01/31 06:02:58.0	93.440	0.310	-0.870	0.780
2020/01/31 06:02:58.1	93.430	0.330	-0.890	0.800
2020/01/31 06:02:58.2	93.420	0.350	-0.900	0.820
2020/01/31 06:02:58.3	93.420	0.360	-0.910	0.850
2020/01/31 06:02:58.4	93.400	0.380	-0.910	0.870
2020/01/31 06:02:58.5	93.390	0.380	-0.910	0.890
2020/01/31 06:02:58.6	93.380	0.390	-0.910	0.910
2020/01/31 06:02:58.7	93.360	0.390	-0.900	0.930
2020/01/31 06:02:58.8	93.340	0.390	-0.880	0.960
2020/01/31 06:02:58.9	93.320	0.390	-0.860	0.980
2020/01/31 06:02:59.0	93.300	0.380	-0.830	1.000
2020/01/31 06:02:59.1	93.280	0.370	-0.800	1.020
2020/01/31 06:02:59.2	93.250	0.350	-0.760	1.040
2020/01/31 06:02:59.3	93.230	0.340	-0.720	1.050
2020/01/31 06:02:59.4	93.200	0.320	-0.670	1.070
2020/01/31 06:02:59.5	93.180	0.290	-0.610	1.090
2020/01/31 06:02:59.6	93.150	0.270	-0.550	1.110
2020/01/31 06:02:59.7	93.120	0.240	-0.490	1.120
2020/01/31 06:02:59.8	93.090	0.200	-0.430	1.140
2020/01/31 06:02:59.9	93.060	0.170	-0.360	1.150
2020/01/31 06:03:00.0	93.030	0.130	-0.280	1.170
2020/01/31 06:03:00.1	93.010	0.090	-0.210	1.180
2020/01/31 06:03:00.2	92.970	0.050	-0.130	1.190
2020/01/31 06:03:00.3	92.950	0.010	-0.060	1.200
2020/01/31 06:03:00.4	92.920	-0.030	0.020	1.210
2020/01/31 06:03:00.5	92.900	-0.070	0.090	1.210
2020/01/31 06:03:00.6	92.880	-0.110	0.160	1.220
2020/01/31 06:03:00.7	92.860	-0.150	0.220	1.230
2020/01/31 06:03:00.8	92.840	-0.190	0.280	1.230
2020/01/31 06:03:00.9	92.830	-0.230	0.340	1.230
2020/01/31 06:03:01.0	92.820	-0.270	0.390	1.230
2020/01/31 06:03:01.1	92.800	-0.300	0.430	1.230
2020/01/31 06:03:01.2	92.790	-0.330	0.460	1.230
2020/01/31 06:03:01.3	92.780	-0.360	0.490	1.230
2020/01/31 06:03:01.4	92.780	-0.380	0.510	1.220
2020/01/31 06:03:01.5	92.770	-0.400	0.520	1.210
2020/01/31 06:03:01.6	92.770	-0.410	0.520	1.200
2020/01/31 06:03:01.7	92.770	-0.420	0.510	1.190
2020/01/31 06:03:01.8	92.770	-0.420	0.490	1.170
2020/01/31 06:03:01.9	92.780	-0.420	0.460	1.150
2020/01/31 06:03:02.0	92.780	-0.420	0.430	1.130
2020/01/31 06:03:02.1	92.790	-0.410	0.380	1.110
2020/01/31 06:03:02.2	92.800	-0.390	0.330	1.080
2020/01/31 06:03:02.3	92.800	-0.370	0.270	1.040
2020/01/31 06:03:02.4	92.820	-0.350	0.210	1.010
2020/01/31 06:03:02.5	92.830	-0.320	0.140	0.980
2020/01/31 06:03:02.6	92.850	-0.290	0.070	0.940
2020/01/31 06:03:02.7	92.870	-0.260	0.000	0.900
2020/01/31 06:03:02.8	92.890	-0.230	-0.070	0.860
2020/01/31 06:03:02.9	92.920	-0.190	-0.140	0.820
2020/01/31 06:03:03.0	92.950	-0.150	-0.210	0.780
2020/01/31 06:03:03.1	92.970	-0.110	-0.280	0.730
2020/01/31 06:03:03.2	93.000	-0.080	-0.350	0.690
2020/01/31 06:03:03.3	93.040	-0.040	-0.410	0.650
2020/01/31 06:03:03.4	93.070	0.000	-0.470	0.610
2020/01/31 06:03:03.5	93.100	0.040	-0.520	0.570
2020/01/31 06:03:03.6	93.130	0.080	-0.560	0.530
2020/01/31 06:03:03.7	93.160	0.110	-0.600	0.500
2020/01/31 06:03:03.8	93.180	0.140	-0.630	0.460
2020/01/31 06:03:03.9	93.210	0.170	-0.650	0.430
2020/01/31 06:03:04.0	93.230	0.200	-0.670	0.410
2020/01/31 06:03:04.1	93.260	0.230	-0.670	0.390
2020/01/31 06:03:04.2	93.270	0.250	-0.670	0.360
2020/01/31 06:03:04.3	93.290	0.260	-0.660	0.350
2020/01/31 06:03:04.4	93.310	0.280	-0.650	0.340
2020/01/31 06:03:04.5	93.330	0.290	-0.620	0.330
2020/01/31 06:03:04.6	93.340	0.290	-0.590	0.330
2020/01/31 06:03:04.7	93.360	0.290	-0.550	0.330
2020/01/31 06:03:04.8	93.370	0.290	-0.510	0.330
2020/01/31 06:03:04.9	93.380	0.290	-0.460	0.340
2020/01/31 06:03:05.0	93.390	0.280	-0.410	0.350
2020/01/31 06:03:05.1	93.390	0.270	-0.350	0.360
2020/01/31 06:03:05.2	93.390	0.260	-0.290	0.370
2020/01/31 06:03:05.3	93.400	0.240	-0.230	0.390
2020/01/31 06:03:05.4	93.400	0.220	-0.160	0.410
2020/01/31 06:03:05.5	93.400	0.200	-0.100	0.430
2020/01/31 06:03:05.6	93.400	0.180	-0.030	0.450
2020/01/31 06:03:05.7	93.400	0.150	0.030	0.460
2020/01/31 06:03:05.8	93.390	0.130	0.090	0.480
2020/01/31 06:03:05.9	93.390	0.100	0.160	0.500
2020/01/31 06:03:06.0	93.390	0.070	0.210	0.510
2020/01/31 06:03:06.1	93.380	0.040	0.270	0.530
2020/01/31 06:03:06.2	93.380	0.010	0.320	0.540
2020/01/31 06:03:06.3	93.380	-0.010	0.370	0.540
2020/01/31 06:03:06.4	93.370	-0.040	0.410	0.550
2020/01/31 06:03:06.5	93.370	-0.070	0.450	0.560
2020/01/31 06:03:06.6	93.370	-0.100	0.490	0.570
2020/01/31 06:03:06.7	93.370	-0.120	0.510	0.570
2020/01/31 06:03:06.8	93.360	-0.150	0.540	0.580
2020/01/31 06:03:06.9	93.360	-0.170	0.550	0.580
2020/01/31 06:03:07.0	93.360	-0.190	0.560	0.590
2020/01/31 06:03:07.1	93.350	-0.210	0.570	0.590
2020/01/31 06:03:07.2	93.350	-0.230	0.560	0.600
2020/01/31 06:03:07.3	93.350	-0.240	0.550	0.600
2020/01/31 06:03:07.4	93.340	-0.260	0.540	0.610
2020/01/31 06:03:07.5	93.330	-0.270	0.520	0.620
2020/01/31 06:03:07.6	93.320	-0.280	0.490	0.630
2020/01/31 06:03:07.7	93.310	-0.280	0.460	0.640
2020/01/31 06:03:07.8	93.290	-0.290	0.420	0.640
2020/01/31 06:03:07.9	93.280	-0.290	0.380	0.660
2020/01/31 06:03:08.0	93.260	-0.290	0.330	0.670
2020/01/31 06:03:08.1	93.240	-0.280	0.280	0.680
2020/01/31 06:03:08.2	93.220	-0.280	0.220	0.690
2020/01/31 06:03:08.3	93.200	-0.270	0.160	0.700
2020/01/31 06:03:08.4	93.180	-0.260	0.100	0.710
2020/01/31 06:03:08.5	93.160	-0.250	0.030	0.720
2020/01/31 06:03:08.6	93.140	-0.240	-0.030	0.730
2020/01/31 06:03:08.7	93.130	-0.220	-0.100	0.740
2020/01/31 06:03:08.8	93.110	-0.210	-0.170	0.740
2020/01/31 06:03:08.9	93.100	-0.190	-0.240	0.750
2020/01/31 06:03:09.0	93.080	-0.180	-0.300	0.750
2020/01/31 06:03:09.1	93.070	-0.160	-0.370	0.760
2020/01/31 06:03:09.2	93.060	-0.140	-0.430	0.760
2020/01/31 06:03:09.3	93.060	-0.130	-0.490	0.770
2020/01/31 06:03:09.4	93.060	-0.110	-0.550	0.780
2020/01/31 06:03:09.5	93.050	-0.090	-0.610	0.780
2020/01/31 06:03:09.6	93.050	-0.080	-0.660	0.790
2020/01/31 06:03:09.7	93.050	-0.060	-0.710	0.800
2020/01/31 06:03:09.8	93.050	-0.050	-0.750	0.820
2020/01/31 06:03:09.9	93.040	-0.030	-0.790	0.830
2020/01/31 06:03:10.0	93.050	-0.020	-0.820	0.850
2020/01/31 06:03:10.1	93.050	-0.010	-0.850	0.860
2020/01/31 06:03:10.2	93.040	0.000	-0.870	0.890
2020/01/31 06:03:10.3	93.040	0.010	-0.890	0.910
2020/01/31 06:03:10.4	93.040	0.020	-0.900	0.930
2020/01/31 06:03:10.5	93.040	0.030	-0.910	0.950
2020/01/31 06:03:10.6	93.040	0.030	-0.910	0.970
2020/01/31 06:03:10.7	93.040	0.040	-0.910	0.990
2020/01/31 06:03:10.8	93.040	0.040	-0.910	1.010
2020/01/31 06:03:10.9	93.030	0.040	-0.900	1.030
2020/01/31 06:03:11.0	93.030	0.050	-0.890	1.050
2020/01/31 06:03:11.1	93.030	0.050	-0.870	1.070
2020/01/31 06:03:11.2	93.030	0.050	-0.850	1.080
2020/01/31 06:03:11.3	93.020	0.050	-0.830	1.100
2020/01/31 06:03:11.4	93.020	0.060	-0.810	1.110
2020/01/31 06:03:11.5	93.020	0.060	-0.780	1.120
2020/01/31 06:03:11.6	93.010	0.060	-0.760	1.130
2020/01/31 06:03:11.7	93.010	0.070	-0.730	1.140
2020/01/31 06:03:11.8	93.010	0.070	-0.710	1.140
2020/01/31 06:03:11.9	93.010	0.080	-0.690	1.140
2020/01/31 06:03:12.0	93.000	0.080	-0.670	1.140
2020/01/31 06:03:12.1	93.000	0.090	-0.650	1.140
2020/01/31 06:03:12.2	93.000	0.100	-0.630	1.140
2020/01/31 06:03:12.3	92.990	0.110	-0.610	1.130
2020/01/31 06:03:12.4	92.980	0.120	-0.600	1.130
2020/01/31 06:03:12.5	92.980	0.140	-0.590	1.130
2020/01/31 06:03:12.6	92.970	0.160	-0.580	1.120
2020/01/31 06:03:12.7	92.970	0.170	-0.570	1.120
2020/01/31 06:03:12.8	92.960	0.190	-0.570	1.120
2020/01/31 06:03:12.9	92.950	0.220	-0.560	1.120
2020/01/31 06:03:13.0	92.940	0.240	-0.560	1.120
2020/01/31 06:03:13.1	92.930	0.260	-0.560	1.120
2020/01/31 06:03:13.2	92.920	0.290	-0.560	1.120
2020/01/31 06:03:13.3	92.910	0.310	-0.560	1.130
2020/01/31 06:03:13.4	92.890	0.340	-0.560	1.130
2020/01/31 06:03:13.5	92.870	0.360	-0.560	1.140
2020/01/31 06:03:13.6	92.860	0.380	-0.550	1.140
2020/01/31 06:03:13.7	92.840	0.410	-0.540	1.150
2020/01/31 06:03:13.8	92.820	0.430	-0.530	1.150
2020/01/31 06:03:13.9	92.800	0.450	-0.520	1.160
2020/01/31 06:03:14.0	92.780	0.470	-0.500	1.160
2020/01/31 06:03:14.1	92.760	0.480	-0.480	1.160
2020/01/31 06:03:14.2	92.730	0.490	-0.460	1.150
2020/01/31 06:03:14.3	92.710	0.500	-0.430	1.150
2020/01/31 06:03:14.4	92.690	0.500	-0.390	1.140
2020/01/31 06:03:14.5	92.670	0.500	-0.340	1.120
2020/01/31 06:03:14.6	92.660	0.500	-0.300	1.110
2020/01/31 06:03:14.7	92.650	0.490	-0.240	1.090
2020/01/31 06:03:14.8	92.640	0.480	-0.180	1.060
2020/01/31 06:03:14.9	92.630	0.460	-0.120	1.030
2020/01/31 06:03:15.0	92.620	0.440	-0.050	1.000
2020/01/31 06:03:15.1	92.620	0.410	0.020	0.970
2020/01/31 06:03:15.2	92.620	0.380	0.100	0.930
2020/01/31 06:03:15.3	92.630	0.340	0.180	0.900
2020/01/31 06:03:15.4	92.640	0.310	0.260	0.860
2020/01/31 06:03:15.5	92.650	0.260	0.350	0.820
2020/01/31 06:03:15.6	92.660	0.220	0.430	0.780
2020/01/31 06:03:15.7	92.670	0.170	0.510	0.740
2020/01/31 06:03:15.8	92.690	0.110	0.590	0.700
2020/01/31 06:03:15.9	92.710	0.060	0.670	0.670
2020/01/31 06:03:16.0	92.730	0.000	0.750	0.630
2020/01/31 06:03:16.1	92.750	-0.050	0.820	0.600
2020/01/31 06:03:16.2	92.780	-0.110	0.890	0.570
2020/01/31 06:03:16.3	92.800	-0.170	0.950	0.540
2020/01/31 06:03:16.4	92.830	-0.230	1.000	0.510
2020/01/31 06:03:16.5	92.860	-0.280	1.050	0.490
2020/01/31 06:03:16.6	92.890	-0.340	1.090	0.460
2020/01/31 06:03:16.7	92.930	-0.390	1.130	0.440
2020/01/31 06:03:16.8	92.960	-0.440	1.150	0.420
2020/01/31 06:03:16.9	93.000	-0.480	1.170	0.410
2020/01/31 06:03:17.0	93.030	-0.530	1.170	0.400
2020/01/31 06:03:17.1	93.070	-0.570	1.170	0.380
2020/01/31 06:03:17.2	93.100	-0.600	1.160	0.370
2020/01/31 06:03:17.3	93.140	-0.630	1.140	0.360
2020/01/31 06:03:17.4	93.170	-0.660	1.110	0.360
2020/01/31 06:03:17.5	93.210	-0.680	1.060	0.360
2020/01/31 06:03:17.6	93.240	-0.700	1.010	0.360
2020/01/31 06:03:17.7	93.280	-0.710	0.960	0.360
2020/01/31 06:03:17.8	93.310	-0.710	0.890	0.360
2020/01/31 06:03:17.9	93.340	-0.710	0.810	0.360
2020/01/31 06:03:18.0	93.370	-0.710	0.730	0.370
2020/01/31 06:03:18.1	93.390	-0.700	0.640	0.370
2020/01/31 06:03:18.2	93.410	-0.690	0.540	0.380
2020/01/31 06:03:18.3	93.440	-0.670	0.440	0.390
2020/01/31 06:03:18.4	93.450	-0.640	0.330	0.400
2020/01/31 06:03:18.5	93.460	-0.620	0.220	0.420
2020/01/31 06:03:18.6	93.470	-0.580	0.110	0.430
2020/01/31 06:03:18.7	93.470	-0.550	-0.010	0.450
2020/01/31 06:03:18.8	93.470	-0.510	-0.130	0.470
2020/01/31 06:03:18.9	93.470	-0.470	-0.250	0.490
2020/01/31 06:03:19.0	93.460	-0.430	-0.370	0.510
2020/01/31 06:03:19.1	93.460	-0.380	-0.490	0.530
2020/01/31 06:03:19.2	93.440	-0.330	-0.600	0.550
2020/01/31 06:03:19.3	93.440	-0.290	-0.720	0.580
2020/01/31 06:03:19.4	93.420	-0.240	-0.830	0.610
2020/01/31 06:03:19.5	93.410	-0.190	-0.930	0.640
2020/01/31 06:03:19.6	93.380	-0.140	-1.030	0.670
2020/01/31 06:03:19.7	93.360	-0.090	-1.120	0.710
2020/01/31 06:03:19.8	93.330	-0.040	-1.210	0.750
2020/01/31 06:03:19.9	93.310	0.000	-1.280	0.790
2020/01/31 06:03:20.0	93.280	0.050	-1.350	0.840
2020/01/31 06:03:20.1	93.250	0.090	-1.410	0.880
2020/01/31 06:03:20.2	93.220	0.130	-1.460	0.940
2020/01/31 06:03:20.3	93.200	0.170	-1.500	0.990
2020/01/31 06:03:20.4	93.170	0.210	-1.530	1.040
2020/01/31 06:03:20.5	93.140	0.240	-1.550	1.100
2020/01/31 06:03:20.6	93.110	0.270	-1.560	1.160
2020/01/31 06:03:20.7	93.080	0.290	-1.560	1.220
2020/01/31 06:03:20.8	93.050	0.320	-1.550	1.270
2020/01/31 06:03:20.9	93.020	0.340	-1.530	1.330
2020/01/31 06:03:21.0	93.000	0.350	-1.500	1.390
2020/01/31 06:03:21.1	92.970	0.360	-1.470	1.440
2020/01/31 06:03:21.2	92.950	0.370	-1.420	1.490
2020/01/31 06:03:21.3	92.920	0.380	-1.370	1.540
2020/01/31 06:03:21.4	92.900	0.380	-1.310	1.580
2020/01/31 06:03:21.5	92.880	0.380	-1.250	1.620
2020/01/31 06:03:21.6	92.870	0.380	-1.180	1.650
2020/01/31 06:03:21.7	92.860	0.370	-1.110	1.680
2020/01/31 06:03:21.8	92.850	0.360	-1.030	1.700
2020/01/31 06:03:21.9	92.840	0.340	-0.950	1.720
2020/01/31 06:03:22.0	92.840	0.330	-0.860	1.730
2020/01/31 06:03:22.1	92.830	0.310	-0.780	1.730
2020/01/31 06:03:22.2	92.830	0.290	-0.690	1.720
2020/01/31 06:03:22.3	92.850	0.270	-0.600	1.710
2020/01/31 06:03:22.4	92.850	0.240	-0.520	1.690
2020/01/31 06:03:22.5	92.850	0.220	-0.430	1.670
2020/01/31 06:03:22.6	92.860	0.190	-0.340	1.640
2020/01/31 06:03:22.7	92.870	0.160	-0.260	1.600
2020/01/31 06:03:22.8	92.870	0.140	-0.180	1.570
2020/01/31 06:03:22.9	92.880	0.110	-0.100	1.530
2020/01/31 06:03:23.0	92.880	0.080	-0.020	1.480
2020/01/31 06:03:23.1	92.890	0.050	0.060	1.440
2020/01/31 06:03:23.2	92.890	0.030	0.130	1.390
2020/01/31 06:03:23.3	92.880	0.000	0.200	1.350
2020/01/31 06:03:23.4	92.890	-0.020	0.270	1.300
2020/01/31 06:03:23.5	92.890	-0.040	0.330	1.260
2020/01/31 06:03:23.6	92.890	-0.060	0.390	1.210
2020/01/31 06:03:23.7	92.880	-0.080	0.440	1.170
2020/01/31 06:03:23.8	92.880	-0.100	0.490	1.130
2020/01/31 06:03:23.9	92.870	-0.120	0.540	1.090
2020/01/31 06:03:24.0	92.870	-0.130	0.580	1.050
2020/01/31 06:03:24.1	92.860	-0.140	0.610	1.010
2020/01/31 06:03:24.2	92.850	-0.150	0.640	0.970
2020/01/31 06:03:24.3	92.840	-0.150	0.670	0.940
2020/01/31 06:03:24.4	92.830	-0.160	0.680	0.900
2020/01/31 06:03:24.5	92.830	-0.160	0.700	0.870
2020/01/31 06:03:24.6	92.820	-0.160	0.700	0.840
2020/01/31 06:03:24.7	92.810	-0.150	0.710	0.810
2020/01/31 06:03:24.8	92.810	-0.150	0.700	0.780
2020/01/31 06:03:24.9	92.800	-0.140	0.690	0.750
2020/01/31 06:03:25.0	92.800	-0.130	0.680	0.720
2020/01/31 06:03:25.1	92.800	-0.120	0.650	0.690
2020/01/31 06:03:25.2	92.800	-0.110	0.620	0.650
2020/01/31 06:03:25.3	92.790	-0.090	0.590	0.620
2020/01/31 06:03:25.4	92.790	-0.080	0.550	0.590
2020/01/31 06:03:25.5	92.800	-0.060	0.510	0.560
2020/01/31 06:03:25.6	92.800	-0.040	0.450	0.520
2020/01/31 06:03:25.7	92.810	-0.020	0.400	0.480
2020/01/31 06:03:25.8	92.820	-0.000	0.340	0.440
2020/01/31 06:03:25.9	92.830	0.020	0.280	0.400
2020/01/31 06:03:26.0	92.850	0.040	0.210	0.360
2020/01/31 06:03:26.1	92.870	0.060	0.140	0.320
2020/01/31 06:03:26.2	92.890	0.080	0.060	0.270
2020/01/31 06:03:26.3	92.910	0.100	-0.020	0.220
2020/01/31 06:03:26.4	92.930	0.130	-0.090	0.170
2020/01/31 06:03:26.5	92.960	0.150	-0.170	0.130
2020/01/31 06:03:26.6	92.980	0.170	-0.240	0.080
2020/01/31 06:03:26.7	93.010	0.190	-0.320	0.030
2020/01/31 06:03:26.8	93.040	0.200	-0.390	-0.010
2020/01/31 06:03:26.9	93.070	0.220	-0.460	-0.050
2020/01/31 06:03:27.0	93.100	0.240	-0.530	-0.090
2020/01/31 06:03:27.1	93.130	0.250	-0.590	-0.130
2020/01/31 06:03:27.2	93.160	0.260	-0.650	-0.160
2020/01/31 06:03:27.3	93.190	0.270	-0.700	-0.190
2020/01/31 06:03:27.4	93.220	0.280	-0.740	-0.210
2020/01/31 06:03:27.5	93.240	0.280	-0.770	-0.230
2020/01/31 06:03:27.6	93.260	0.280	-0.800	-0.240
2020/01/31 06:03:27.7	93.280	0.280	-0.820	-0.250
2020/01/31 06:03:27.8	93.300	0.280	-0.830	-0.250
2020/01/31 06:03:27.9	93.320	0.270	-0.830	-0.250
2020/01/31 06:03:28.0	93.330	0.260	-0.820	-0.240
2020/01/31 06:03:28.1	93.340	0.250	-0.800	-0.230
2020/01/31 06:03:28.2	93.360	0.240	-0.780	-0.210
2020/01/31 06:03:28.3	93.360	0.220	-0.740	-0.180
2020/01/31 06:03:28.4	93.360	0.200	-0.700	-0.160
2020/01/31 06:03:28.5	93.360	0.180	-0.650	-0.130
2020/01/31 06:03:28.6	93.360	0.150	-0.600	-0.090
2020/01/31 06:03:28.7	93.350	0.130	-0.540	-0.050
2020/01/31 06:03:28.8	93.340	0.100	-0.480	-0.010
2020/01/31 06:03:28.9	93.320	0.070	-0.410	0.030
2020/01/31 06:03:29.0	93.300	0.040	-0.340	0.080
2020/01/31 06:03:29.1	93.280	0.010	-0.270	0.130
2020/01/31 06:03:29.2	93.260	-0.020	-0.200	0.180
2020/01/31 06:03:29.3	93.240	-0.050	-0.130	0.230
2020/01/31 06:03:29.4	93.220	-0.080	-0.060	0.280
2020/01/31 06:03:29.5	93.190	-0.110	0.010	0.330
2020/01/31 06:03:29.6	93.160	-0.140	0.070	0.380
2020/01/31 06:03:29.7	93.130	-0.170	0.130	0.430
2020/01/31 06:03:29.8	93.100	-0.200	0.190	0.480
2020/01/31 06:03:29.9	93.080	-0.220	0.240	0.530
2020/01/31 06:03:30.0	93.050	-0.240	0.280	0.570
2020/01/31 06:03:30.1	93.020	-0.260	0.310	0.620
2020/01/31 06:03:30.2	92.990	-0.280	0.340	0.660
2020/01/31 06:03:30.3	92.960	-0.300	0.360	0.700
2020/01/31 06:03:30.4	92.940	-0.310	0.370	0.740
2020/01/31 06:03:30.5	92.920	-0.320	0.370	0.780
2020/01/31 06:03:30.6	92.900	-0.320	0.370	0.810
2020/01/31 06:03:30.7	92.880	-0.320	0.350	0.840
2020/01/31 06:03:30.8	92.870	-0.320	0.330	0.870
2020/01/31 06:03:30.9	92.860	-0.320	0.300	0.900
2020/01/31 06:03:31.0	92.850	-0.310	0.270	0.930
2020/01/31 06:03:31.1	92.840	-0.290	0.220	0.950
2020/01/31 06:03:31.2	92.840	-0.280	0.170	0.970
2020/01/31 06:03:31.3	92.840	-0.260	0.120	1.000
2020/01/31 06:03:31.4	92.830	-0.240	0.060	1.020
2020/01/31 06:03:31.5	92.830	-0.220	-0.000	1.050
2020/01/31 06:03:31.6	92.840	-0.190	-0.060	1.070
2020/01/31 06:03:31.7	92.840	-0.160	-0.130	1.100
2020/01/31 06:03:31.8	92.840	-0.140	-0.190	1.120
2020/01/31 06:03:31.9	92.850	-0.110	-0.260	1.140
2020/01/31 06:03:32.0	92.860	-0.080	-0.320	1.170
2020/01/31 06:03:32.1	92.860	-0.050	-0.380	1.190
2020/01/31 06:03:32.2	92.870	-0.020	-0.440	1.220
2020/01/31 06:03:32.3	92.880	0.010	-0.500	1.240
2020/01/31 06:03:32.4	92.880	0.040	-0.550	1.270
2020/01/31 06:03:32.5	92.890	0.060	-0.590	1.290
2020/01/31 06:03:32.6	92.900	0.080	-0.630	1.310
2020/01/31 06:03:32.7	92.900	0.110	-0.670	1.330
2020/01/31 06:03:32.8	92.900	0.130	-0.700	1.340
2020/01/31 06:03:32.9	92.910	0.140	-0.720	1.350
2020/01/31 06:03:33.0	92.910	0.160	-0.740	1.360
2020/01/31 06:03:33.1	92.910	0.170	-0.750	1.370
2020/01/31 06:03:33.2	92.910	0.180	-0.760	1.370
2020/01/31 06:03:33.3	92.900	0.180	-0.760	1.370
2020/01/31 06:03:33.4	92.900	0.190	-0.760	1.370
2020/01/31 06:03:33.5	92.900	0.190	-0.750	1.360
2020/01/31 06:03:33.6	92.900	0.180	-0.740	1.350
2020/01/31 06:03:33.7	92.890	0.180	-0.720	1.340
2020/01/31 06:03:33.8	92.890	0.170	-0.700	1.330
2020/01/31 06:03:33.9	92.890	0.160	-0.670	1.310
2020/01/31 06:03:34.0	92.890	0.150	-0.640	1.290
2020/01/31 06:03:34.1	92.880	0.140	-0.610	1.270
2020/01/31 06:03:34.2	92.890	0.130	-0.570	1.250
2020/01/31 06:03:34.3	92.880	0.110	-0.530	1.230
2020/01/31 06:03:34.4	92.880	0.100	-0.490	1.210
2020/01/31 06:03:34.5	92.880	0.080	-0.450	1.180
2020/01/31 06:03:34.6	92.870	0.070	-0.410	1.160
2020/01/31 06:03:34.7	92.870	0.050	-0.370	1.140
2020/01/31 06:03:34.8	92.860	0.040	-0.320	1.120
2020/01/31 06:03:34.9	92.860	0.020	-0.280	1.110
2020/01/31 06:03:35.0	92.860	0.010	-0.240	1.090
2020/01/31 06:03:35.1	92.850	-0.010	-0.200	1.080
2020/01/31 06:03:35.2	92.850	-0.020	-0.150	1.060
2020/01/31 06:03:35.3	92.840	-0.030	-0.110	1.050
2020/01/31 06:03:35.4	92.840	-0.040	-0.070	1.050
2020/01/31 06:03:35.5	92.830	-0.050	-0.030	1.040
2020/01/31 06:03:35.6	92.830	-0.050	0.000	1.030
2020/01/31 06:03:35.7	92.820	-0.060	0.040	1.020
2020/01/31 06:03:35.8	92.810	-0.060	0.070	1.020
2020/01/31 06:03:35.9	92.810	-0.070	0.100	1.010
2020/01/31 06:03:36.0	92.800	-0.070	0.130	1.010
2020/01/31 06:03:36.1	92.800	-0.070	0.160	1.000
2020/01/31 06:03:36.2	92.790	-0.070	0.180	1.000
2020/01/31 06:03:36.3	92.800	-0.060	0.200	0.980
2020/01/31 06:03:36.4	92.790	-0.060	0.220	0.980
2020/01/31 06:03:36.5	92.790	-0.050	0.230	0.960
2020/01/31 06:03:36.6	92.790	-0.050	0.250	0.950
2020/01/31 06:03:36.7	92.800	-0.040	0.250	0.940
2020/01/31 06:03:36.8	92.800	-0.040	0.260	0.920
2020/01/31 06:03:36.9	92.800	-0.030	0.260	0.900
2020/01/31 06:03:37.0	92.810	-0.020	0.260	0.870
2020/01/31 06:03:37.1	92.810	-0.010	0.260	0.850
2020/01/31 06:03:37.2	92.820	-0.010	0.250	0.820
2020/01/31 06:03:37.3	92.810	0.000	0.240	0.800
2020/01/31 06:03:37.4	92.820	0.010	0.230	0.770
2020/01/31 06:03:37.5	92.820	0.020	0.210	0.740
2020/01/31 06:03:37.6	92.820	0.020	0.200	0.710
2020/01/31 06:03:37.7	92.820	0.030	0.180	0.670
2020/01/31 06:03:37.8	92.820	0.040	0.160	0.640
2020/01/31 06:03:37.9	92.820	0.040	0.140	0.610
2020/01/31 06:03:38.0	92.820	0.050	0.120	0.580
2020/01/31 06:03:38.1	92.810	0.050	0.100	0.550
2020/01/31 06:03:38.2	92.810	0.050	0.080	0.520
2020/01/31 06:03:38.3	92.810	0.050	0.070	0.480
2020/01/31 06:03:38.4	92.800	0.050	0.050	0.460
2020/01/31 06:03:38.5	92.790	0.050	0.020	0.430
2020/01/31 06:03:38.6	92.780	0.040	0.000	0.410
2020/01/31 06:03:38.7	92.770	0.040	-0.010	0.400
2020/01/31 06:03:38.8	92.760	0.030	-0.030	0.380
2020/01/31 06:03:38.9	92.750	0.030	-0.050	0.370
2020/01/31 06:03:39.0	92.730	0.020	-0.070	0.360
2020/01/31 06:03:39.1	92.720	0.010	-0.090	0.360
2020/01/31 06:03:39.2	92.710	-0.000	-0.110	0.350
2020/01/31 06:03:39.3	92.700	-0.010	-0.130	0.360
2020/01/31 06:03:39.4	92.680	-0.030	-0.140	0.360
2020/01/31 06:03:39.5	92.670	-0.040	-0.160	0.370
2020/01/31 06:03:39.6	92.660	-0.050	-0.180	0.380
2020/01/31 06:03:39.7	92.650	-0.070	-0.200	0.390
2020/01/31 06:03:39.8	92.630	-0.080	-0.220	0.410
2020/01/31 06:03:39.9	92.620	-0.090	-0.240	0.430
2020/01/31 06:03:40.0	92.610	-0.110	-0.270	0.440
2020/01/31 06:03:40.1	92.600	-0.120	-0.290	0.460
2020/01/31 06:03:40.2	92.590	-0.130	-0.310	0.490
2020/01/31 06:03:40.3	92.580	-0.140	-0.340	0.510
2020/01/31 06:03:40.4	92.570	-0.150	-0.360	0.530
2020/01/31 06:03:40.5	92.560	-0.160	-0.390	0.550
2020/01/31 06:03:40.6	92.550	-0.160	-0.420	0.570
2020/01/31 06:03:40.7	92.540	-0.170	-0.440	0.590
2020/01/31 06:03:40.8	92.530	-0.170	-0.470	0.610
2020/01/31 06:03:40.9	92.520	-0.170	-0.500	0.620
2020/01/31 06:03:41.0	92.510	-0.170	-0.520	0.640
2020/01/31 06:03:41.1	92.500	-0.170	-0.550	0.650
2020/01/31 06:03:41.2	92.490	-0.160	-0.580	0.660
2020/01/31 06:03:41.3	92.480	-0.160	-0.600	0.670
2020/01/31 06:03:41.4	92.470	-0.150	-0.620	0.680
2020/01/31 06:03:41.5	92.470	-0.140	-0.640	0.680
2020/01/31 06:03:41.6	92.470	-0.120	-0.660	0.690
2020/01/31 06:03:41.7	92.460	-0.110	-0.680	0.690
2020/01/31 06:03:41.8	92.460	-0.090	-0.690	0.690
2020/01/31 06:03:41.9	92.460	-0.080	-0.700	0.690
2020/01/31 06:03:42.0	92.470	-0.060	-0.700	0.690
2020/01/31 06:03:42.1	92.470	-0.040	-0.710	0.690
2020/01/31 06:03:42.2	92.480	-0.020	-0.700	0.690
2020/01/31 06:03:42.3	92.480	-0.000	-0.700	0.690
2020/01/31 06:03:42.4	92.490	0.020	-0.690	0.690
2020/01/31 06:03:42.5	92.510	0.040	-0.670	0.700
2020/01/31 06:03:42.6	92.520	0.060	-0.650	0.700
2020/01/31 06:03:42.7	92.530	0.070	-0.630	0.710
2020/01/31 06:03:42.8	92.540	0.090	-0.600	0.720
2020/01/31 06:03:42.9	92.560	0.110	-0.560	0.730
2020/01/31 06:03:43.0	92.570	0.120	-0.520	0.740
2020/01/31 06:03:43.1	92.590	0.130	-0.480	0.750
2020/01/31 06:03:43.2	92.600	0.140	-0.430	0.770
2020/01/31 06:03:43.3	92.620	0.150	-0.380	0.790
2020/01/31 06:03:43.4	92.630	0.160	-0.330	0.810
2020/01/31 06:03:43.5	92.640	0.160	-0.270	0.830
2020/01/31 06:03:43.6	92.650	0.160	-0.210	0.860
2020/01/31 06:03:43.7	92.660	0.160	-0.150	0.880
2020/01/31 06:03:43.8	92.670	0.160	-0.080	0.910
2020/01/31 06:03:43.9	92.670	0.160	-0.020	0.930
2020/01/31 06:03:44.0	92.680	0.150	0.040	0.960
2020/01/31 06:03:44.1	92.680	0.140	0.110	0.980
2020/01/31 06:03:44.2	92.680	0.130	0.170	1.010
2020/01/31 06:03:44.3	92.680	0.120	0.230	1.030
2020/01/31 06:03:44.4	92.670	0.110	0.290	1.060
2020/01/31 06:03:44.5	92.670	0.090	0.340	1.080
2020/01/31 06:03:44.6	92.660	0.070	0.390	1.100
2020/01/31 06:03:44.7	92.650	0.060	0.440	1.110
2020/01/31 06:03:44.8	92.650	0.040	0.480	1.130
2020/01/31 06:03:44.9	92.640	0.020	0.510	1.140
2020/01/31 06:03:45.0	92.630	0.010	0.540	1.150
2020/01/31 06:03:45.1	92.620	-0.010	0.560	1.150
2020/01/31 06:03:45.2	92.610	-0.030	0.580	1.160
2020/01/31 06:03:45.3	92.600	-0.050	0.590	1.150
2020/01/31 06:03:45.4	92.590	-0.060	0.590	1.150
2020/01/31 06:03:45.5	92.580	-0.070	0.580	1.140
2020/01/31 06:03:45.6	92.580	-0.090	0.560	1.130
2020/01/31 06:03:45.7	92.570	-0.100	0.530	1.110
2020/01/31 06:03:45.8	92.570	-0.110	0.500	1.100
2020/01/31 06:03:45.9	92.570	-0.120	0.460	1.080
2020/01/31 06:03:46.0	92.570	-0.120	0.420	1.060
2020/01/31 06:03:46.1	92.570	-0.130	0.360	1.040
2020/01/31 06:03:46.2	92.570	-0.130	0.310	1.020
2020/01/31 06:03:46.3	92.570	-0.130	0.240	0.990
2020/01/31 06:03:46.4	92.570	-0.130	0.170	0.970
2020/01/31 06:03:46.5	92.580	-0.130	0.100	0.950
2020/01/31 06:03:46.6	92.580	-0.120	0.030	0.930
2020/01/31 06:03:46.7	92.590	-0.120	-0.040	0.910
2020/01/31 06:03:46.8	92.600	-0.110	-0.120	0.890
2020/01/31 06:03:46.9	92.600	-0.100	-0.200	0.870
2020/01/31 06:03:47.0	92.610	-0.090	-0.270	0.850
2020/01/31 06:03:47.1	92.620	-0.080	-0.350	0.830
2020/01/31 06:03:47.2	92.620	-0.070	-0.420	0.820
2020/01/31 06:03:47.3	92.620	-0.060	-0.490	0.800
2020/01/31 06:03:47.4	92.620	-0.050	-0.560	0.790
2020/01/31 06:03:47.5	92.630	-0.040	-0.620	0.780
2020/01/31 06:03:47.6	92.630	-0.020	-0.680	0.770
2020/01/31 06:03:47.7	92.630	-0.010	-0.740	0.770
2020/01/31 06:03:47.8	92.630	0.000	-0.790	0.760
2020/01/31 06:03:47.9	92.640	0.020	-0.830	0.760
2020/01/31 06:03:48.0	92.640	0.030	-0.870	0.760
2020/01/31 06:03:48.1	92.630	0.040	-0.900	0.760
2020/01/31 06:03:48.2	92.630	0.050	-0.930	0.760
2020/01/31 06:03:48.3	92.630	0.060	-0.950	0.760
2020/01/31 06:03:48.4	92.620	0.070	-0.960	0.770
2020/01/31 06:03:48.5	92.620	0.080	-0.960	0.770
2020/01/31 06:03:48.6	92.610	0.090	-0.950	0.770
2020/01/31 06:03:48.7	92.610	0.090	-0.940	0.780
2020/01/31 06:03:48.8	92.600	0.100	-0.920	0.780
2020/01/31 06:03:48.9	92.590	0.100	-0.890	0.790
2020/01/31 06:03:49.0	92.580	0.100	-0.850	0.800
2020/01/31 06:03:49.1	92.570	0.100	-0.810	0.800
2020/01/31 06:03:49.2	92.560	0.100	-0.760	0.810
2020/01/31 06:03:49.3	92.550	0.090	-0.700	0.820
2020/01/31 06:03:49.4	92.540	0.090	-0.630	0.820
2020/01/31 06:03:49.5	92.520	0.080	-0.560	0.830
2020/01/31 06:03:49.6	92.510	0.070	-0.490	0.840
2020/01/31 06:03:49.7	92.490	0.050	-0.410	0.840
2020/01/31 06:03:49.8	92.480	0.040	-0.320	0.850
2020/01/31 06:03:49.9	92.460	0.030	-0.240	0.850
2020/01/31 06:03:50.0	92.450	0.010	-0.150	0.860
2020/01/31 06:03:50.1	92.430	-0.000	-0.070	0.860
2020/01/31 06:03:50.2	92.410	-0.020	0.020	0.860
2020/01/31 06:03:50.3	92.400	-0.040	0.110	0.870
2020/01/31 06:03:50.4	92.390	-0.060	0.190	0.870
2020/01/31 06:03:50.5	92.370	-0.070	0.270	0.870
2020/01/31 06:03:50.6	92.350	-0.090	0.350	0.870
2020/01/31 06:03:50.7	92.340	-0.110	0.410	0.860
2020/01/31 06:03:50.8	92.320	-0.120	0.480	0.860
2020/01/31 06:03:50.9	92.300	-0.130	0.530	0.860
2020/01/31 06:03:51.0	92.290	-0.150	0.580	0.850
2020/01/31 06:03:51.1	92.270	-0.160	0.610	0.850
2020/01/31 06:03:51.2	92.250	-0.160	0.640	0.840
2020/01/31 06:03:51.3	92.230	-0.170	0.660	0.830
2020/01/31 06:03:51.4	92.220	-0.170	0.670	0.830
2020/01/31 06:03:51.5	92.200	-0.170	0.670	0.820
2020/01/31 06:03:51.6	92.190	-0.170	0.650	0.820
2020/01/31 06:03:51.7	92.170	-0.160	0.630	0.810
2020/01/31 06:03:51.8	92.160	-0.150	0.590	0.810
2020/01/31 06:03:51.9	92.150	-0.140	0.550	0.800
2020/01/31 06:03:52.0	92.130	-0.130	0.490	0.800
2020/01/31 06:03:52.1	92.120	-0.110	0.420	0.790
2020/01/31 06:03:52.2	92.120	-0.090	0.350	0.790
2020/01/31 06:03:52.3	92.090	-0.060	0.270	0.780
2020/01/31 06:03:52.4	92.090	-0.030	0.180	0.770
2020/01/31 06:03:52.5	92.080	-0.000	0.080	0.760
2020/01/31 06:03:52.6	92.080	0.030	-0.020	0.760
2020/01/31 06:03:52.7	92.080	0.060	-0.120	0.740
2020/01/31 06:03:52.8	92.080	0.100	-0.230	0.730
2020/01/31 06:03:52.9	92.090	0.130	-0.340	0.720
2020/01/31 06:03:53.0	92.090	0.170	-0.450	0.700
2020/01/31 06:03:53.1	92.100	0.200	-0.560	0.690
2020/01/31 06:03:53.2	92.110	0.240	-0.660	0.670
2020/01/31 06:03:53.3	92.120	0.270	-0.770	0.650
2020/01/31 06:03:53.4	92.140	0.310	-0.870	0.630
2020/01/31 06:03:53.5	92.160	0.340	-0.950	0.600
2020/01/31 06:03:53.6	92.180	0.370	-1.030	0.580
2020/01/31 06:03:53.7	92.200	0.400	-1.110	0.560
2020/01/31 06:03:53.8	92.220	0.420	-1.170	0.540
2020/01/31 06:03:53.9	92.240	0.440	-1.220	0.510
2020/01/31 06:03:54.0	92.270	0.460	-1.260	0.490
2020/01/31 06:03:54.1	92.290	0.480	-1.290	0.470
2020/01/31 06:03:54.2	92.330	0.490	-1.300	0.450
2020/01/31 06:03:54.3	92.360	0.500	-1.300	0.430
2020/01/31 06:03:54.4	92.390	0.500	-1.300	0.420
2020/01/31 06:03:54.5	92.420	0.500	-1.280	0.400
2020/01/31 06:03:54.6	92.440	0.490	-1.240	0.390
2020/01/31 06:03:54.7	92.470	0.480	-1.200	0.390
2020/01/31 06:03:54.8	92.500	0.460	-1.140	0.380
2020/01/31 06:03:54.9	92.530	0.440	-1.080	0.380
2020/01/31 06:03:55.0	92.560	0.420	-1.000	0.380
2020/01/31 06:03:55.1	92.580	0.390	-0.910	0.390
2020/01/31 06:03:55.2	92.610	0.360	-0.820	0.400
2020/01/31 06:03:55.3	92.640	0.320	-0.720	0.410
2020/01/31 06:03:55.4	92.660	0.280	-0.610	0.430
2020/01/31 06:03:55.5	92.680	0.240	-0.500	0.450
2020/01/31 06:03:55.6	92.700	0.190	-0.380	0.480
2020/01/31 06:03:55.7	92.720	0.140	-0.260	0.500
2020/01/31 06:03:55.8	92.730	0.090	-0.140	0.540
2020/01/31 06:03:55.9	92.740	0.030	-0.010	0.570
2020/01/31 06:03:56.0	92.750	-0.020	0.110	0.610
2020/01/31 06:03:56.1	92.760	-0.080	0.230	0.650
2020/01/31 06:03:56.2	92.770	-0.140	0.350	0.690
2020/01/31 06:03:56.3	92.760	-0.200	0.460	0.740
2020/01/31 06:03:56.4	92.770	-0.260	0.570	0.790
2020/01/31 06:03:56.5	92.770	-0.310	0.680	0.840
2020/01/31 06:03:56.6	92.760	-0.370	0.780	0.890
2020/01/31 06:03:56.7	92.760	-0.430	0.870	0.940
2020/01/31 06:03:56.8	92.750	-0.480	0.950	0.990
2020/01/31 06:03:56.9	92.740	-0.530	1.020	1.050
2020/01/31 06:03:57.0	92.730	-0.580	1.080	1.100
2020/01/31 06:03:57.1	92.720	-0.630	1.130	1.160
2020/01/31 06:03:57.2	92.710	-0.670	1.180	1.210
2020/01/31 06:03:57.3	92.690	-0.710	1.210	1.270
2020/01/31 06:03:57.4	92.680	-0.750	1.230	1.320
2020/01/31 06:03:57.5	92.660	-0.780	1.240	1.380
2020/01/31 06:03:57.6	92.640	-0.810	1.230	1.430
2020/01/31 06:03:57.7	92.630	-0.830	1.220	1.470
2020/01/31 06:03:57.8	92.610	-0.850	1.200	1.520
2020/01/31 06:03:57.9	92.590	-0.860	1.160	1.560
2020/01/31 06:03:58.0	92.570	-0.870	1.120	1.600
2020/01/31 06:03:58.1	92.560	-0.880	1.060	1.640
2020/01/31 06:03:58.2	92.540	-0.880	1.000	1.670
2020/01/31 06:03:58.3	92.520	-0.870	0.930	1.700
2020/01/31 06:03:58.4	92.500	-0.860	0.850	1.720
2020/01/31 06:03:58.5	92.490	-0.850	0.760	1.740
2020/01/31 06:03:58.6	92.470	-0.830	0.660	1.760
2020/01/31 06:03:58.7	92.450	-0.800	0.560	1.770
2020/01/31 06:03:58.8	92.440	-0.770	0.460	1.790
2020/01/31 06:03:58.9	92.420	-0.740	0.350	1.790
2020/01/31 06:03:59.0	92.400	-0.700	0.240	1.800
2020/01/31 06:03:59.1	92.390	-0.660	0.120	1.800
2020/01/31 06:03:59.2	92.370	-0.620	0.010	1.800
2020/01/31 06:03:59.3	92.350	-0.570	-0.110	1.800
2020/01/31 06:03:59.4	92.330	-0.520	-0.230	1.790
2020/01/31 06:03:59.5	92.310	-0.470	-0.340	1.790
2020/01/31 06:03:59.6	92.290	-0.420	-0.460	1.780
2020/01/31 06:03:59.7	92.270	-0.360	-0.570	1.770
2020/01/31 06:03:59.8	92.250	-0.300	-0.670	1.760
2020/01/31 06:03:59.9	92.230	-0.240	-0.780	1.750
2020/01/31 06:04:00.0	92.210	-0.180	-0.880	1.730
2020/01/31 06:04:00.1	92.190	-0.120	-0.970	1.720
2020/01/31 06:04:00.2	92.180	-0.050	-1.050	1.700
2020/01/31 06:04:00.3	92.170	0.010	-1.140	1.680
2020/01/31 06:04:00.4	92.160	0.070	-1.210	1.660
2020/01/31 06:04:00.5	92.150	0.130	-1.270	1.630
2020/01/31 06:04:00.6	92.140	0.190	-1.330	1.600
2020/01/31 06:04:00.7	92.130	0.240	-1.380	1.570
2020/01/31 06:04:00.8	92.120	0.300	-1.420	1.540
2020/01/31 06:04:00.9	92.120	0.350	-1.450	1.510
2020/01/31 06:04:01.0	92.120	0.400	-1.470	1.470
2020/01/31 06:04:01.1	92.120	0.440	-1.480	1.430
2020/01/31 06:04:01.2	92.130	0.490	-1.490	1.390
2020/01/31 06:04:01.3	92.130	0.530	-1.480	1.350
2020/01/31 06:04:01.4	92.140	0.560	-1.470	1.310
2020/01/31 06:04:01.5	92.150	0.600	-1.450	1.270
2020/01/31 06:04:01.6	92.160	0.630	-1.420	1.230
2020/01/31 06:04:01.7	92.170	0.650	-1.390	1.180
2020/01/31 06:04:01.8	92.180	0.670	-1.350	1.140
2020/01/31 06:04:01.9	92.200	0.690	-1.300	1.100
2020/01/31 06:04:02.0	92.210	0.700	-1.250	1.050
2020/01/31 06:04:02.1	92.220	0.710	-1.190	1.010
2020/01/31 06:04:02.2	92.240	0.720	-1.130	0.960
2020/01/31 06:04:02.3	92.250	0.720	-1.060	0.920
2020/01/31 06:04:02.4	92.260	0.720	-0.990	0.880
2020/01/31 06:04:02.5	92.280	0.720	-0.920	0.830
2020/01/31 06:04:02.6	92.290	0.710	-0.850	0.790
2020/01/31 06:04:02.7	92.310	0.700	-0.770	0.740
2020/01/31 06:04:02.8	92.320	0.690	-0.690	0.690
2020/01/31 06:04:02.9	92.330	0.680	-0.610	0.650
2020/01/31 06:04:03.0	92.350	0.660	-0.540	0.610
2020/01/31 06:04:03.1	92.360	0.640	-0.460	0.560
2020/01/31 06:04:03.2	92.370	0.620	-0.380	0.520
2020/01/31 06:04:03.3	92.380	0.600	-0.310	0.470
2020/01/31 06:04:03.4	92.390	0.580	-0.230	0.430
2020/01/31 06:04:03.5	92.400	0.550	-0.160	0.390
2020/01/31 06:04:03.6	92.410	0.530	-0.090	0.360
2020/01/31 06:04:03.7	92.410	0.510	-0.030	0.320
2020/01/31 06:04:03.8	92.420	0.480	0.030	0.290
2020/01/31 06:04:03.9	92.420	0.460	0.090	0.260
2020/01/31 06:04:04.0	92.420	0.430	0.150	0.230
2020/01/31 06:04:04.1	92.420	0.410	0.200	0.200
2020/01/31 06:04:04.2	92.420	0.380	0.250	0.180
2020/01/31 06:04:04.3	92.420	0.360	0.300	0.160
2020/01/31 06:04:04.4	92.420	0.340	0.340	0.140
2020/01/31 06:04:04.5	92.410	0.310	0.380	0.130
2020/01/31 06:04:04.6	92.410	0.290	0.420	0.120
2020/01/31 06:04:04.7	92.400	0.270	0.450	0.110
2020/01/31 06:04:04.8	92.390	0.250	0.480	0.110
2020/01/31 06:04:04.9	92.380	0.230	0.500	0.100
2020/01/31 06:04:05.0	92.370	0.210	0.520	0.100
2020/01/31 06:04:05.1	92.360	0.190	0.540	0.100
2020/01/31 06:04:05.2	92.350	0.170	0.550	0.100
2020/01/31 06:04:05.3	92.340	0.150	0.570	0.110
2020/01/31 06:04:05.4	92.330	0.130	0.570	0.110
2020/01/31 06:04:05.5	92.320	0.110	0.580	0.120
2020/01/31 06:04:05.6	92.310	0.090	0.580	0.130
2020/01/31 06:04:05.7	92.310	0.070	0.580	0.140
2020/01/31 06:04:05.8	92.300	0.050	0.580	0.140
2020/01/31 06:04:05.9	92.290	0.030	0.570	0.150
2020/01/31 06:04:06.0	92.290	0.010	0.570	0.160
2020/01/31 06:04:06.1	92.280	-0.020	0.560	0.170
2020/01/31 06:04:06.2	92.280	-0.040	0.550	0.190
2020/01/31 06:04:06.3	92.270	-0.060	0.530	0.200
2020/01/31 06:04:06.4	92.270	-0.080	0.520	0.210
2020/01/31 06:04:06.5	92.270	-0.110	0.510	0.220
2020/01/31 06:04:06.6	92.270	-0.130	0.490	0.240
2020/01/31 06:04:06.7	92.270	-0.160	0.470	0.250
2020/01/31 06:04:06.8	92.280	-0.180	0.460	0.270
2020/01/31 06:04:06.9	92.290	-0.210	0.440	0.290
2020/01/31 06:04:07.0	92.300	-0.230	0.420	0.310
2020/01/31 06:04:07.1	92.310	-0.260	0.400	0.330
2020/01/31 06:04:07.2	92.320	-0.280	0.380	0.350
2020/01/31 06:04:07.3	92.330	-0.310	0.360	0.370
2020/01/31 06:04:07.4	92.350	-0.330	0.340	0.390
2020/01/31 06:04:07.5	92.370	-0.360	0.310	0.410
2020/01/31 06:04:07.6	92.380	-0.380	0.290	0.440
2020/01/31 06:04:07.7	92.400	-0.400	0.260	0.460
2020/01/31 06:04:07.8	92.420	-0.430	0.230	0.490
2020/01/31 06:04:07.9	92.440	-0.450	0.210	0.520
2020/01/31 06:04:08.0	92.450	-0.460	0.180	0.550
2020/01/31 06:04:08.1	92.470	-0.480	0.140	0.580
2020/01/31 06:04:08.2	92.490	-0.500	0.110	0.610
2020/01/31 06:04:08.3	92.500	-0.510	0.070	0.650
2020/01/31 06:04:08.4	92.520	-0.520	0.040	0.680
2020/01/31 06:04:08.5	92.530	-0.530	-0.000	0.720
2020/01/31 06:04:08.6	92.540	-0.530	-0.040	0.760
2020/01/31 06:04:08.7	92.550	-0.540	-0.080	0.800
2020/01/31 06:04:08.8	92.560	-0.540	-0.120	0.840
2020/01/31 06:04:08.9	92.560	-0.540	-0.170	0.890
2020/01/31 06:04:09.0	92.570	-0.530	-0.220	0.930
2020/01/31 06:04:09.1	92.570	-0.520	-0.260	0.970
2020/01/31 06:04:09.2	92.570	-0.510	-0.310	1.020
2020/01/31 06:04:09.3	92.600	-0.500	-0.360	1.060
2020/01/31 06:04:09.4	92.600	-0.490	-0.410	1.100
2020/01/31 06:04:09.5	92.600	-0.470	-0.460	1.150
2020/01/31 06:04:09.6	92.600	-0.450	-0.510	1.190
2020/01/31 06:04:09.7	92.600	-0.430	-0.570	1.230
2020/01/31 06:04:09.8	92.600	-0.410	-0.620	1.280
2020/01/31 06:04:09.9	92.600	-0.390	-0.670	1.320
2020/01/31 06:04:10.0	92.590	-0.360	-0.720	1.350
2020/01/31 06:04:10.1	92.590	-0.340	-0.770	1.390
2020/01/31 06:04:10.2	92.590	-0.310	-0.810	1.430
2020/01/31 06:04:10.3	92.590	-0.280	-0.860	1.470
2020/01/31 06:04:10.4	92.590	-0.250	-0.900	1.500
2020/01/31 06:04:10.5	92.580	-0.230	-0.940	1.530
2020/01/31 06:04:10.6	92.580	-0.200	-0.970	1.570
2020/01/31 06:04:10.7	92.570	-0.170	-1.010	1.600
2020/01/31 06:04:10.8	92.570	-0.150	-1.030	1.630
2020/01/31 06:04:10.9	92.560	-0.120	-1.060	1.660
2020/01/31 06:04:11.0	92.550	-0.100	-1.070	1.690
2020/01/31 06:04:11.1	92.540	-0.080	-1.090	1.720
2020/01/31 06:04:11.2	92.530	-0.050	-1.100	1.740
2020/01/31 06:04:11.3	92.510	-0.040	-1.100	1.770
2020/01/31 06:04:11.4	92.500	-0.020	-1.090	1.790
2020/01/31 06:04:11.5	92.490	-0.000	-1.080	1.810
2020/01/31 06:04:11.6	92.480	0.010	-1.070	1.830
2020/01/31 06:04:11.7	92.460	0.020	-1.050	1.850
2020/01/31 06:04:11.8	92.450	0.030	-1.020	1.860
2020/01/31 06:04:11.9	92.430	0.040	-0.990	1.870
2020/01/31 06:04:12.0	92.410	0.050	-0.950	1.880
2020/01/31 06:04:12.1	92.390	0.050	-0.910	1.890
2020/01/31 06:04:12.2	92.380	0.050	-0.850	1.890
2020/01/31 06:04:12.3	92.360	0.050	-0.800	1.890
2020/01/31 06:04:12.4	92.350	0.050	-0.740	1.890
2020/01/31 06:04:12.5	92.330	0.050	-0.680	1.880
2020/01/31 06:04:12.6	92.310	0.040	-0.610	1.870
2020/01/31 06:04:12.7	92.290	0.040	-0.540	1.850
2020/01/31 06:04:12.8	92.280	0.030	-0.460	1.830
2020/01/31 06:04:12.9	92.260	0.020	-0.390	1.810
2020/01/31 06:04:13.0	92.250	0.010	-0.300	1.780
2020/01/31 06:04:13.1	92.240	0.000	-0.220	1.750
2020/01/31 06:04:13.2	92.230	-0.010	-0.140	1.710
2020/01/31 06:04:13.3	92.230	-0.020	-0.050	1.670
2020/01/31 06:04:13.4	92.230	-0.030	0.030	1.630
2020/01/31 06:04:13.5	92.220	-0.040	0.120	1.580
2020/01/31 06:04:13.6	92.220	-0.050	0.200	1.530
2020/01/31 06:04:13.7	92.220	-0.060	0.280	1.480
2020/01/31 06:04:13.8	92.230	-0.080	0.360	1.430
2020/01/31 06:04:13.9	92.230	-0.090	0.440	1.370
2020/01/31 06:04:14.0	92.240	-0.100	0.510	1.320
2020/01/31 06:04:14.1	92.240	-0.110	0.570	1.260
2020/01/31 06:04:14.2	92.250	-0.120	0.640	1.200
2020/01/31 06:04:14.3	92.250	-0.130	0.690	1.140
2020/01/31 06:04:14.4	92.250	-0.140	0.740	1.080
2020/01/31 06:04:14.5	92.260	-0.140	0.790	1.020
2020/01/31 06:04:14.6	92.270	-0.150	0.820	0.960
2020/01/31 06:04:14.7	92.270	-0.150	0.850	0.890
2020/01/31 06:04:14.8	92.280	-0.160	0.870	0.830
2020/01/31 06:04:14.9	92.280	-0.160	0.880	0.770
2020/01/31 06:04:15.0	92.290	-0.150	0.890	0.710
2020/01/31 06:04:15.1	92.290	-0.150	0.880	0.650
2020/01/31 06:04:15.2	92.290	-0.140	0.870	0.590
2020/01/31 06:04:15.3	92.290	-0.140	0.850	0.520
2020/01/31 06:04:15.4	92.290	-0.130	0.820	0.460
2020/01/31 06:04:15.5	92.290	-0.110	0.780	0.400
2020/01/31 06:04:15.6	92.290	-0.100	0.730	0.340
2020/01/31 06:04:15.7	92.290	-0.080	0.670	0.280
2020/01/31 06:04:15.8	92.290	-0.060	0.610	0.230
2020/01/31 06:04:15.9	92.280	-0.030	0.540	0.170
2020/01/31 06:04:16.0	92.280	-0.010	0.460	0.110
2020/01/31 06:04:16.1	92.280	0.020	0.370	0.060
2020/01/31 06:04:16.2	92.280	0.050	0.280	0.000
2020/01/31 06:04:16.3	92.280	0.080	0.180	-0.060
2020/01/31 06:04:16.4	92.280	0.120	0.090	-0.110
2020/01/31 06:04:16.5	92.280	0.150	-0.010	-0.160
2020/01/31 06:04:16.6	92.280	0.190	-0.120	-0.210
2020/01/31 06:04:16.7	92.280	0.230	-0.220	-0.260
2020/01/31 06:04:16.8	92.280	0.270	-0.320	-0.300
2020/01/31 06:04:16.9	92.280	0.310	-0.430	-0.340
2020/01/31 06:04:17.0	92.290	0.360	-0.530	-0.390
2020/01/31 06:04:17.1	92.290	0.400	-0.630	-0.430
2020/01/31 06:04:17.2	92.290	0.440	-0.720	-0.460
2020/01/31 06:04:17.3	92.300	0.490	-0.820	-0.500
2020/01/31 06:04:17.4	92.300	0.530	-0.910	-0.530
2020/01/31 06:04:17.5	92.310	0.570	-0.990	-0.560
2020/01/31 06:04:17.6	92.320	0.610	-1.060	-0.580
2020/01/31 06:04:17.7	92.320	0.650	-1.130	-0.600
2020/01/31 06:04:17.8	92.330	0.690	-1.200	-0.620
2020/01/31 06:04:17.9	92.340	0.720	-1.250	-0.630
2020/01/31 06:04:18.0	92.350	0.760	-1.300	-0.640
2020/01/31 06:04:18.1	92.360	0.790	-1.330	-0.640
2020/01/31 06:04:18.2	92.370	0.810	-1.360	-0.640
2020/01/31 06:04:18.3	92.380	0.840	-1.380	-0.640
2020/01/31 06:04:18.4	92.390	0.850	-1.380	-0.630
2020/01/31 06:04:18.5	92.400	0.870	-1.380	-0.610
2020/01/31 06:04:18.6	92.410	0.880	-1.370	-0.590
2020/01/31 06:04:18.7	92.410	0.890	-1.350	-0.570
2020/01/31 06:04:18.8	92.420	0.890	-1.310	-0.540
2020/01/31 06:04:18.9	92.430	0.880	-1.270	-0.500
2020/01/31 06:04:19.0	92.430	0.870	-1.220	-0.460
2020/01/31 06:04:19.1	92.440	0.860	-1.150	-0.410
2020/01/31 06:04:19.2	92.440	0.840	-1.080	-0.370
2020/01/31 06:04:19.3	92.440	0.820	-1.000	-0.310
2020/01/31 06:04:19.4	92.440	0.780	-0.920	-0.250
2020/01/31 06:04:19.5	92.450	0.750	-0.820	-0.190
2020/01/31 06:04:19.6	92.450	0.710	-0.720	-0.120
2020/01/31 06:04:19.7	92.450	0.660	-0.610	-0.060
2020/01/31 06:04:19.8	92.450	0.610	-0.500	0.020
2020/01/31 06:04:19.9	92.440	0.560	-0.390	0.090
2020/01/31 06:04:20.0	92.440	0.500	-0.270	0.170
2020/01/31 06:04:20.1	92.440	0.430	-0.150	0.250
2020/01/31 06:04:20.2	92.430	0.370	-0.030	0.330
2020/01/31 06:04:20.3	92.420	0.300	0.090	0.420
2020/01/31 06:04:20.4	92.420	0.220	0.210	0.500
2020/01/31 06:04:20.5	92.410	0.150	0.330	0.590
2020/01/31 06:04:20.6	92.400	0.070	0.450	0.670
2020/01/31 06:04:20.7	92.390	-0.010	0.560	0.760
2020/01/31 06:04:20.8	92.390	-0.090	0.660	0.850
2020/01/31 06:04:20.9	92.380	-0.160	0.760	0.930
2020/01/31 06:04:21.0	92.370	-0.240	0.850	1.010
2020/01/31 06:04:21.1	92.370	-0.320	0.930	1.100
2020/01/31 06:04:21.2	92.360	-0.390	1.010	1.180
2020/01/31 06:04:21.3	92.340	-0.470	1.080	1.260
2020/01/31 06:04:21.4	92.330	-0.540	1.130	1.340
2020/01/31 06:04:21.5	92.330	-0.610	1.180	1.420
2020/01/31 06:04:21.6	92.320	-0.670	1.210	1.490
2020/01/31 06:04:21.7	92.320	-0.730	1.230	1.560
2020/01/31 06:04:21.8	92.320	-0.790	1.240	1.630
2020/01/31 06:04:21.9	92.320	-0.840	1.240	1.700
2020/01/31 06:04:22.0	92.320	-0.890	1.230	1.770
2020/01/31 06:04:22.1	92.320	-0.930	1.210	1.830
2020/01/31 06:04:22.2	92.330	-0.960	1.180	1.890
2020/01/31 06:04:22.3	92.340	-0.990	1.130	1.940
2020/01/31 06:04:22.4	92.340	-1.020	1.080	1.990
2020/01/31 06:04:22.5	92.340	-1.040	1.010	2.040
2020/01/31 06:04:22.6	92.350	-1.050	0.940	2.080
2020/01/31 06:04:22.7	92.350	-1.060	0.860	2.120
2020/01/31 06:04:22.8	92.360	-1.060	0.770	2.160
2020/01/31 06:04:22.9	92.360	-1.050	0.670	2.190
2020/01/31 06:04:23.0	92.360	-1.050	0.570	2.220
2020/01/31 06:04:23.1	92.370	-1.030	0.460	2.240
2020/01/31 06:04:23.2	92.370	-1.010	0.350	2.260
2020/01/31 06:04:23.3	92.370	-0.990	0.230	2.270
2020/01/31 06:04:23.4	92.370	-0.960	0.110	2.290
2020/01/31 06:04:23.5	92.380	-0.920	-0.000	2.300
2020/01/31 06:04:23.6	92.380	-0.890	-0.120	2.300
2020/01/31 06:04:23.7	92.380	-0.850	-0.240	2.310
2020/01/31 06:04:23.8	92.370	-0.800	-0.360	2.310
2020/01/31 06:04:23.9	92.370	-0.750	-0.470	2.310
2020/01/31 06:04:24.0	92.370	-0.700	-0.580	2.300
2020/01/31 06:04:24.1	92.360	-0.650	-0.690	2.300
2020/01/31 06:04:24.2	92.350	-0.600	-0.790	2.290
2020/01/31 06:04:24.3	92.350	-0.540	-0.890	2.280
2020/01/31 06:04:24.4	92.340	-0.490	-0.980	2.270
2020/01/31 06:04:24.5	92.330	-0.430	-1.060	2.260
2020/01/31 06:04:24.6	92.320	-0.370	-1.140	2.250
2020/01/31 06:04:24.7	92.300	-0.310	-1.210	2.230
2020/01/31 06:04:24.8	92.290	-0.260	-1.270	2.220
2020/01/31 06:04:24.9	92.270	-0.200	-1.330	2.200
2020/01/31 06:04:25.0	92.260	-0.150	-1.370	2.190
2020/01/31 06:04:25.1	92.240	-0.090	-1.410	2.170
2020/01/31 06:04:25.2	92.230	-0.040	-1.440	2.150
2020/01/31 06:04:25.3	92.220	0.010	-1.460	2.130
2020/01/31 06:04:25.4	92.210	0.050	-1.460	2.100
2020/01/31 06:04:25.5	92.200	0.100	-1.460	2.080
2020/01/31 06:04:25.6	92.190	0.140	-1.450	2.050
2020/01/31 06:04:25.7	92.180	0.170	-1.420	2.010
2020/01/31 06:04:25.8	92.170	0.210	-1.390	1.980
2020/01/31 06:04:25.9	92.170	0.240	-1.350	1.940
2020/01/31 06:04:26.0	92.170	0.270	-1.300	1.900
2020/01/31 06:04:26.1	92.160	0.290	-1.250	1.860
2020/01/31 06:04:26.2	92.170	0.310	-1.180	1.810
2020/01/31 06:04:26.3	92.170	0.330	-1.110	1.760
2020/01/31 06:04:26.4	92.170	0.340	-1.030	1.710
2020/01/31 06:04:26.5	92.180	0.350	-0.950	1.650
2020/01/31 06:04:26.6	92.190	0.360	-0.860	1.600
2020/01/31 06:04:26.7	92.200	0.360	-0.770	1.540
2020/01/31 06:04:26.8	92.210	0.360	-0.680	1.480
2020/01/31 06:04:26.9	92.220	0.360	-0.590	1.410
2020/01/31 06:04:27.0	92.230	0.360	-0.490	1.340
2020/01/31 06:04:27.1	92.250	0.350	-0.390	1.270
2020/01/31 06:04:27.2	92.260	0.340	-0.300	1.200
2020/01/31 06:04:27.3	92.290	0.330	-0.200	1.130
2020/01/31 06:04:27.4	92.300	0.320	-0.100	1.060
2020/01/31 06:04:27.5	92.310	0.310	-0.010	0.980
2020/01/31 06:04:27.6	92.330	0.300	0.070	0.910
2020/01/31 06:04:27.7	92.340	0.290	0.150	0.830
2020/01/31 06:04:27.8	92.350	0.280	0.230	0.750
2020/01/31 06:04:27.9	92.360	0.270	0.300	0.670
2020/01/31 06:04:28.0	92.370	0.250	0.370	0.590
2020/01/31 06:04:28.1	92.380	0.240	0.420	0.500
2020/01/31 06:04:28.2	92.390	0.230	0.480	0.420
2020/01/31 06:04:28.3	92.410	0.220	0.520	0.340
2020/01/31 06:04:28.4	92.420	0.220	0.560	0.260
2020/01/31 06:04:28.5	92.420	0.210	0.590	0.180
2020/01/31 06:04:28.6	92.420	0.200	0.610	0.100
2020/01/31 06:04:28.7	92.430	0.200	0.630	0.020
2020/01/31 06:04:28.8	92.430	0.190	0.640	-0.050
2020/01/31 06:04:28.9	92.420	0.190	0.650	-0.120
2020/01/31 06:04:29.0	92.420	0.190	0.650	-0.190
2020/01/31 06:04:29.1	92.410	0.190	0.640	-0.250
2020/01/31 06:04:29.2	92.400	0.190	0.630	-0.310
2020/01/31 06:04:29.3	92.380	0.190	0.610	-0.370
2020/01/31 06:04:29.4	92.370	0.190	0.590	-0.420
2020/01/31 06:04:29.5	92.350	0.190	0.570	-0.460
2020/01/31 06:04:29.6	92.330	0.190	0.540	-0.500
2020/01/31 06:04:29.7	92.300	0.190	0.510	-0.530
2020/01/31 06:04:29.8	92.280	0.190	0.480	-0.560
2020/01/31 06:04:29.9	92.250	0.190	0.440	-0.580
2020/01/31 06:04:30.0	92.220	0.190	0.410	-0.600
2020/01/31 06:04:30.1	92.190	0.190	0.370	-0.610
2020/01/31 06:04:30.2	92.160	0.190	0.330	-0.620
2020/01/31 06:04:30.3	92.130	0.190	0.290	-0.630
2020/01/31 06:04:30.4	92.100	0.190	0.240	-0.630
2020/01/31 06:04:30.5	92.070	0.180	0.200	-0.620
2020/01/31 06:04:30.6	92.030	0.180	0.160	-0.610
2020/01/31 06:04:30.7	92.000	0.180	0.110	-0.600
2020/01/31 06:04:30.8	91.980	0.170	0.070	-0.590
2020/01/31 06:04:30.9	91.950	0.170	0.020	-0.570
2020/01/31 06:04:31.0	91.930	0.160	-0.020	-0.550
2020/01/31 06:04:31.1	91.910	0.160	-0.070	-0.530
2020/01/31 06:04:31.2	91.890	0.150	-0.120	-0.510
2020/01/31 06:04:31.3	91.870	0.150	-0.170	-0.500
2020/01/31 06:04:31.4	91.860	0.140	-0.210	-0.470
2020/01/31 06:04:31.5	91.850	0.130	-0.260	-0.450
2020/01/31 06:04:31.6	91.850	0.130	-0.310	-0.430
2020/01/31 06:04:31.7	91.850	0.120	-0.360	-0.410
2020/01/31 06:04:31.8	91.850	0.120	-0.400	-0.390
2020/01/31 06:04:31.9	91.860	0.110	-0.450	-0.380
2020/01/31 06:04:32.0	91.860	0.110	-0.500	-0.360
2020/01/31 06:04:32.1	91.880	0.100	-0.540	-0.340
2020/01/31 06:04:32.2	91.890	0.100	-0.580	-0.320
2020/01/31 06:04:32.3	91.910	0.100	-0.630	-0.310
2020/01/31 06:04:32.4	91.930	0.090	-0.670	-0.290
2020/01/31 06:04:32.5	91.950	0.090	-0.700	-0.270
2020/01/31 06:04:32.6	91.970	0.080	-0.730	-0.250
2020/01/31 06:04:32.7	91.990	0.080	-0.760	-0.230
2020/01/31 06:04:32.8	92.020	0.080	-0.780	-0.210
2020/01/31 06:04:32.9	92.050	0.070	-0.790	-0.190
2020/01/31 06:04:33.0	92.070	0.070	-0.810	-0.160
2020/01/31 06:04:33.1	92.100	0.060	-0.810	-0.130
2020/01/31 06:04:33.2	92.120	0.050	-0.810	-0.100
2020/01/31 06:04:33.3	92.140	0.050	-0.800	-0.070
2020/01/31 06:04:33.4	92.170	0.040	-0.790	-0.030
2020/01/31 06:04:33.5	92.190	0.030	-0.770	0.000
2020/01/31 06:04:33.6	92.220	0.020	-0.740	0.050
2020/01/31 06:04:33.7	92.240	0.010	-0.710	0.090
2020/01/31 06:04:33.8	92.260	0.000	-0.670	0.140
2020/01/31 06:04:33.9	92.280	-0.010	-0.630	0.190
2020/01/31 06:04:34.0	92.300	-0.030	-0.590	0.240
2020/01/31 06:04:34.1	92.320	-0.040	-0.530	0.300
2020/01/31 06:04:34.2	92.340	-0.050	-0.480	0.350
2020/01/31 06:04:34.3	92.370	-0.070	-0.410	0.420
2020/01/31 06:04:34.4	92.380	-0.080	-0.350	0.480
2020/01/31 06:04:34.5	92.400	-0.100	-0.290	0.540
2020/01/31 06:04:34.6	92.410	-0.120	-0.230	0.610
2020/01/31 06:04:34.7	92.420	-0.130	-0.160	0.680
2020/01/31 06:04:34.8	92.430	-0.150	-0.100	0.750
2020/01/31 06:04:34.9	92.440	-0.160	-0.040	0.820
2020/01/31 06:04:35.0	92.440	-0.180	0.020	0.890
2020/01/31 06:04:35.1	92.440	-0.190	0.080	0.970
2020/01/31 06:04:35.2	92.450	-0.210	0.130	1.040
2020/01/31 06:04:35.3	92.450	-0.220	0.180	1.120
2020/01/31 06:04:35.4	92.440	-0.230	0.220	1.190
2020/01/31 06:04:35.5	92.440	-0.240	0.270	1.270
2020/01/31 06:04:35.6	92.430	-0.250	0.300	1.340
2020/01/31 06:04:35.7	92.420	-0.250	0.330	1.420
2020/01/31 06:04:35.8	92.400	-0.260	0.360	1.490
2020/01/31 06:04:35.9	92.380	-0.260	0.380	1.560
2020/01/31 06:04:36.0	92.370	-0.270	0.390	1.630
2020/01/31 06:04:36.1	92.350	-0.270	0.400	1.700
2020/01/31 06:04:36.2	92.320	-0.270	0.400	1.760
2020/01/31 06:04:36.3	92.300	-0.260	0.390	1.820
2020/01/31 06:04:36.4	92.280	-0.260	0.380	1.880
2020/01/31 06:04:36.5	92.260	-0.250	0.360	1.930
2020/01/31 06:04:36.6	92.230	-0.240	0.340	1.980
2020/01/31 06:04:36.7	92.210	-0.230	0.310	2.020
2020/01/31 06:04:36.8	92.190	-0.220	0.270	2.060
2020/01/31 06:04:36.9	92.170	-0.210	0.230	2.090
2020/01/31 06:04:37.0	92.150	-0.190	0.190	2.120
2020/01/31 06:04:37.1	92.130	-0.170	0.140	2.140
2020/01/31 06:04:37.2	92.120	-0.160	0.090	2.160
2020/01/31 06:04:37.3	92.090	-0.140	0.030	2.170
2020/01/31 06:04:37.4	92.080	-0.120	-0.030	2.180
2020/01/31 06:04:37.5	92.070	-0.100	-0.090	2.180
2020/01/31 06:04:37.6	92.060	-0.070	-0.150	2.180
2020/01/31 06:04:37.7	92.050	-0.050	-0.210	2.180
2020/01/31 06:04:37.8	92.040	-0.030	-0.280	2.170
2020/01/31 06:04:37.9	92.040	-0.000	-0.340	2.160
2020/01/31 06:04:38.0	92.040	0.020	-0.400	2.150
2020/01/31 06:04:38.1	92.030	0.050	-0.460	2.140
2020/01/31 06:04:38.2	92.030	0.080	-0.520	2.130
2020/01/31 06:04:38.3	92.030	0.100	-0.570	2.110
2020/01/31 06:04:38.4	92.030	0.130	-0.620	2.090
2020/01/31 06:04:38.5	92.030	0.150	-0.670	2.080
2020/01/31 06:04:38.6	92.020	0.170	-0.710	2.060
2020/01/31 06:04:38.7	92.020	0.200	-0.750	2.040
2020/01/31 06:04:38.8	92.020	0.220	-0.780	2.030
2020/01/31 06:04:38.9	92.010	0.240	-0.810	2.010
2020/01/31 06:04:39.0	92.010	0.250	-0.830	1.990
2020/01/31 06:04:39.1	92.000	0.270	-0.840	1.970
2020/01/31 06:04:39.2	92.000	0.280	-0.850	1.940
2020/01/31 06:04:39.3	92.000	0.290	-0.850	1.920
2020/01/31 06:04:39.4	91.990	0.300	-0.850	1.900
2020/01/31 06:04:39.5	91.980	0.300	-0.840	1.870
2020/01/31 06:04:39.6	91.970	0.300	-0.820	1.840
2020/01/31 06:04:39.7	91.960	0.300	-0.790	1.800
2020/01/31 06:04:39.8	91.940	0.300	-0.760	1.760
2020/01/31 06:04:39.9	91.930	0.290	-0.720	1.720
2020/01/31 06:04:40.0	91.920	0.280	-0.680	1.680
2020/01/31 06:04:40.1	91.900	0.260	-0.630	1.630
2020/01/31 06:04:40.2	91.890	0.240	-0.580	1.590
2020/01/31 06:04:40.3	91.880	0.220	-0.520	1.530
2020/01/31 06:04:40.4	91.870	0.200	-0.450	1.470
2020/01/31 06:04:40.5	91.850	0.170	-0.380	1.420
2020/01/31 06:04:40.6	91.840	0.140	-0.310	1.360
2020/01/31 06:04:40.7	91.830	0.110	-0.240	1.290
2020/01/31 06:04:40.8	91.820	0.070	-0.160	1.230
2020/01/31 06:04:40.9	91.810	0.040	-0.090	1.160
2020/01/31 06:04:41.0	91.800	0.000	-0.010	1.090
2020/01/31 06:04:41.1	91.790	-0.040	0.060	1.020
2020/01/31 06:04:41.2	91.780	-0.070	0.130	0.950
2020/01/31 06:04:41.3	91.770	-0.110	0.210	0.870
2020/01/31 06:04:41.4	91.760	-0.150	0.270	0.800
2020/01/31 06:04:41.5	91.760	-0.180	0.340	0.730
2020/01/31 06:04:41.6	91.760	-0.220	0.400	0.650
2020/01/31 06:04:41.7	91.760	-0.250	0.450	0.580
2020/01/31 06:04:41.8	91.760	-0.280	0.500	0.500
2020/01/31 06:04:41.9	91.760	-0.310	0.550	0.430
2020/01/31 06:04:42.0	91.770	-0.330	0.580	0.350
2020/01/31 06:04:42.1	91.770	-0.360	0.610	0.280
2020/01/31 06:04:42.2	91.780	-0.370	0.630	0.210
2020/01/31 06:04:42.3	91.780	-0.390	0.650	0.140
2020/01/31 06:04:42.4	91.790	-0.400	0.650	0.070
2020/01/31 06:04:42.5	91.800	-0.410	0.650	0.010
2020/01/31 06:04:42.6	91.810	-0.410	0.640	-0.050
2020/01/31 06:04:42.7	91.820	-0.410	0.620	-0.110
2020/01/31 06:04:42.8	91.830	-0.400	0.600	-0.160
2020/01/31 06:04:42.9	91.840	-0.400	0.570	-0.210
2020/01/31 06:04:43.0	91.850	-0.380	0.530	-0.260
2020/01/31 06:04:43.1	91.870	-0.370	0.480	-0.300
2020/01/31 06:04:43.2	91.880	-0.350	0.430	-0.330
2020/01/31 06:04:43.3	91.890	-0.320	0.370	-0.360
2020/01/31 06:04:43.4	91.900	-0.290	0.310	-0.390
2020/01/31 06:04:43.5	91.910	-0.270	0.240	-0.410
2020/01/31 06:04:43.6	91.920	-0.230	0.170	-0.430
2020/01/31 06:04:43.7	91.930	-0.200	0.090	-0.450
2020/01/31 06:04:43.8	91.940	-0.160	0.020	-0.460
2020/01/31 06:04:43.9	91.950	-0.130	-0.060	-0.470
2020/01/31 06:04:44.0	91.960	-0.090	-0.130	-0.480
2020/01/31 06:04:44.1	91.960	-0.050	-0.210	-0.480
2020/01/31 06:04:44.2	91.970	-0.010	-0.280	-0.480
2020/01/31 06:04:44.3	91.970	0.030	-0.360	-0.490
2020/01/31 06:04:44.4	91.970	0.070	-0.430	-0.480
2020/01/31 06:04:44.5	91.970	0.100	-0.500	-0.480
2020/01/31 06:04:44.6	91.980	0.140	-0.560	-0.480
2020/01/31 06:04:44.7	91.980	0.170	-0.610	-0.470
2020/01/31 06:04:44.8	91.980	0.210	-0.670	-0.460
2020/01/31 06:04:44.9	91.980	0.240	-0.710	-0.460
2020/01/31 06:04:45.0	91.980	0.260	-0.750	-0.450
2020/01/31 06:04:45.1	91.980	0.290	-0.790	-0.440
2020/01/31 06:04:45.2	91.980	0.310	-0.810	-0.430
2020/01/31 06:04:45.3	91.970	0.330	-0.830	-0.410
2020/01/31 06:04:45.4	91.970	0.340	-0.850	-0.400
2020/01/31 06:04:45.5	91.970	0.360	-0.850	-0.380
2020/01/31 06:04:45.6	91.960	0.360	-0.850	-0.360
2020/01/31 06:04:45.7	91.960	0.370	-0.850	-0.330
2020/01/31 06:04:45.8	91.950	0.370	-0.840	-0.310
2020/01/31 06:04:45.9	91.940	0.370	-0.820	-0.280
2020/01/31 06:04:46.0	91.930	0.370	-0.790	-0.250
2020/01/31 06:04:46.1	91.920	0.360	-0.760	-0.210
2020/01/31 06:04:46.2	91.920	0.350	-0.720	-0.170
2020/01/31 06:04:46.3	91.910	0.340	-0.690	-0.120
2020/01/31 06:04:46.4	91.890	0.330	-0.650	-0.080
2020/01/31 06:04:46.5	91.880	0.310	-0.600	-0.030
2020/01/31 06:04:46.6	91.860	0.290	-0.550	0.020
2020/01/31 06:04:46.7	91.850	0.270	-0.500	0.080
2020/01/31 06:04:46.8	91.830	0.250	-0.450	0.140
2020/01/31 06:04:46.9	91.810	0.230	-0.400	0.200
2020/01/31 06:04:47.0	91.790	0.210	-0.350	0.260
2020/01/31 06:04:47.1	91.770	0.190	-0.300	0.330
2020/01/31 06:04:47.2	91.750	0.170	-0.260	0.400
2020/01/31 06:04:47.3	91.730	0.140	-0.210	0.470
2020/01/31 06:04:47.4	91.710	0.120	-0.160	0.540
2020/01/31 06:04:47.5	91.690	0.100	-0.120	0.620
2020/01/31 06:04:47.6	91.670	0.080	-0.080	0.690
2020/01/31 06:04:47.7	91.650	0.060	-0.040	0.770
2020/01/31 06:04:47.8	91.640	0.050	-0.010	0.840
2020/01/31 06:04:47.9	91.620	0.030	0.020	0.920
2020/01/31 06:04:48.0	91.600	0.010	0.050	0.990
2020/01/31 06:04:48.1	91.590	0.000	0.070	1.060
2020/01/31 06:04:48.2	91.570	-0.010	0.100	1.140
2020/01/31 06:04:48.3	91.550	-0.020	0.110	1.210
2020/01/31 06:04:48.4	91.540	-0.030	0.130	1.270
2020/01/31 06:04:48.5	91.530	-0.040	0.140	1.340
2020/01/31 06:04:48.6	91.520	-0.050	0.150	1.400
2020/01/31 06:04:48.7	91.510	-0.050	0.150	1.460
2020/01/31 06:04:48.8	91.500	-0.060	0.160	1.510
2020/01/31 06:04:48.9	91.490	-0.070	0.160	1.560
2020/01/31 06:04:49.0	91.490	-0.070	0.160	1.610
2020/01/31 06:04:49.1	91.480	-0.070	0.150	1.650
2020/01/31 06:04:49.2	91.480	-0.080	0.140	1.680
2020/01/31 06:04:49.3	91.480	-0.080	0.140	1.720
2020/01/31 06:04:49.4	91.480	-0.080	0.130	1.740
2020/01/31 06:04:49.5	91.480	-0.080	0.110	1.760
2020/01/31 06:04:49.6	91.480	-0.080	0.100	1.780
2020/01/31 06:04:49.7	91.490	-0.090	0.080	1.790
2020/01/31 06:04:49.8	91.490	-0.090	0.060	1.800
2020/01/31 06:04:49.9	91.500	-0.090	0.040	1.800
2020/01/31 06:04:50.0	91.500	-0.090	0.020	1.800
2020/01/31 06:04:50.1	91.510	-0.090	0.000	1.790
2020/01/31 06:04:50.2	91.520	-0.100	-0.020	1.780
2020/01/31 06:04:50.3	91.530	-0.100	-0.040	1.770
2020/01/31 06:04:50.4	91.540	-0.100	-0.060	1.750
2020/01/31 06:04:50.5	91.550	-0.110	-0.080	1.730
2020/01/31 06:04:50.6	91.560	-0.110	-0.100	1.710
2020/01/31 06:04:50.7	91.580	-0.110	-0.120	1.680
2020/01/31 06:04:50.8	91.590	-0.120	-0.130	1.650
2020/01/31 06:04:50.9	91.600	-0.120	-0.140	1.620
2020/01/31 06:04:51.0	91.610	-0.130	-0.160	1.590
2020/01/31 06:04:51.1	91.620	-0.130	-0.170	1.570
2020/01/31 06:04:51.2	91.640	-0.140	-0.170	1.540
2020/01/31 06:04:51.3	91.650	-0.150	-0.170	1.510
2020/01/31 06:04:51.4	91.660	-0.150	-0.180	1.480
2020/01/31 06:04:51.5	91.670	-0.160	-0.170	1.450
2020/01/31 06:04:51.6	91.680	-0.170	-0.170	1.430
2020/01/31 06:04:51.7	91.680	-0.170	-0.170	1.410
2020/01/31 06:04:51.8	91.690	-0.180	-0.160	1.390
2020/01/31 06:04:51.9	91.700	-0.190	-0.150	1.370
2020/01/31 06:04:52.0	91.700	-0.190	-0.140	1.350
2020/01/31 06:04:52.1	91.710	-0.200	-0.130	1.340
2020/01/31 06:04:52.2	91.710	-0.200	-0.110	1.330
2020/01/31 06:04:52.3	91.720	-0.210	-0.100	1.320
2020/01/31 06:04:52.4	91.720	-0.210	-0.080	1.300
2020/01/31 06:04:52.5	91.720	-0.210	-0.070	1.290
2020/01/31 06:04:52.6	91.720	-0.210	-0.060	1.280
2020/01/31 06:04:52.7	91.710	-0.210	-0.050	1.270
2020/01/31 06:04:52.8	91.710	-0.210	-0.040	1.260
2020/01/31 06:04:52.9	91.710	-0.200	-0.040	1.250
2020/01/31 06:04:53.0	91.700	-0.200	-0.040	1.240
2020/01/31 06:04:53.1	91.700	-0.190	-0.040	1.220
2020/01/31 06:04:53.2	91.700	-0.180	-0.050	1.200
2020/01/31 06:04:53.3	91.690	-0.160	-0.060	1.180
2020/01/31 06:04:53.4	91.690	-0.150	-0.070	1.160
2020/01/31 06:04:53.5	91.680	-0.130	-0.090	1.140
2020/01/31 06:04:53.6	91.670	-0.110	-0.110	1.110
2020/01/31 06:04:53.7	91.670	-0.090	-0.130	1.080
2020/01/31 06:04:53.8	91.660	-0.070	-0.160	1.050
2020/01/31 06:04:53.9	91.660	-0.040	-0.190	1.010
2020/01/31 06:04:54.0	91.650	-0.020	-0.220	0.970
2020/01/31 06:04:54.1	91.650	0.010	-0.260	0.930
2020/01/31 06:04:54.2	91.640	0.040	-0.300	0.890
2020/01/31 06:04:54.3	91.640	0.070	-0.340	0.850
2020/01/31 06:04:54.4	91.630	0.100	-0.380	0.810
2020/01/31 06:04:54.5	91.630	0.130	-0.420	0.770
2020/01/31 06:04:54.6	91.620	0.170	-0.460	0.730
2020/01/31 06:04:54.7	91.620	0.200	-0.500	0.690
2020/01/31 06:04:54.8	91.610	0.230	-0.540	0.660
2020/01/31 06:04:54.9	91.600	0.260	-0.580	0.620
2020/01/31 06:04:55.0	91.600	0.290	-0.610	0.590
2020/01/31 06:04:55.1	91.580	0.320	-0.640	0.570
2020/01/31 06:04:55.2	91.570	0.340	-0.670	0.540
2020/01/31 06:04:55.3	91.560	0.370	-0.690	0.520
2020/01/31 06:04:55.4	91.550	0.390	-0.710	0.500
2020/01/31 06:04:55.5	91.530	0.410	-0.720	0.480
2020/01/31 06:04:55.6	91.520	0.430	-0.730	0.470
2020/01/31 06:04:55.7	91.500	0.440	-0.740	0.460
2020/01/31 06:04:55.8	91.480	0.460	-0.740	0.440
2020/01/31 06:04:55.9	91.460	0.460	-0.730	0.440
2020/01/31 06:04:56.0	91.440	0.470	-0.720	0.430
2020/01/31 06:04:56.1	91.430	0.470	-0.710	0.420
2020/01/31 06:04:56.2	91.400	0.470	-0.680	0.410
2020/01/31 06:04:56.3	91.390	0.470	-0.660	0.410
2020/01/31 06:04:56.4	91.370	0.460	-0.620	0.400
2020/01/31 06:04:56.5	91.350	0.450	-0.590	0.400
2020/01/31 06:04:56.6	91.340	0.440	-0.550	0.390
2020/01/31 06:04:56.7	91.320	0.420	-0.500	0.380
2020/01/31 06:04:56.8	91.310	0.400	-0.450	0.380
2020/01/31 06:04:56.9	91.300	0.380	-0.400	0.370
2020/01/31 06:04:57.0	91.290	0.350	-0.350	0.360
2020/01/31 06:04:57.1	91.280	0.330	-0.290	0.350
2020/01/31 06:04:57.2	91.280	0.300	-0.230	0.340
2020/01/31 06:04:57.3	91.280	0.270	-0.170	0.330
2020/01/31 06:04:57.4	91.280	0.240	-0.100	0.310
2020/01/31 06:04:57.5	91.280	0.200	-0.040	0.300
2020/01/31 06:04:57.6	91.280	0.170	0.020	0.280
2020/01/31 06:04:57.7	91.290	0.130	0.080	0.270
2020/01/31 06:04:57.8	91.300	0.100	0.140	0.250
2020/01/31 06:04:57.9	91.310	0.060	0.190	0.240
2020/01/31 06:04:58.0	91.320	0.030	0.250	0.220
2020/01/31 06:04:58.1	91.340	-0.000	0.300	0.210
2020/01/31 06:04:58.2	91.350	-0.040	0.340	0.190
2020/01/31 06:04:58.3	91.360	-0.070	0.390	0.170
2020/01/31 06:04:58.4	91.380	-0.100	0.420	0.160
2020/01/31 06:04:58.5	91.400	-0.130	0.460	0.150
2020/01/31 06:04:58.6	91.420	-0.150	0.490	0.140
2020/01/31 06:04:58.7	91.440	-0.180	0.510	0.130
2020/01/31 06:04:58.8	91.460	-0.200	0.530	0.120
2020/01/31 06:04:58.9	91.480	-0.220	0.540	0.110
2020/01/31 06:04:59.0	91.510	-0.240	0.540	0.100
2020/01/31 06:04:59.1	91.530	-0.250	0.540	0.100
2020/01/31 06:04:59.2	91.550	-0.270	0.540	0.100
2020/01/31 06:04:59.3	91.570	-0.280	0.530	0.110
2020/01/31 06:04:59.4	91.590	-0.290	0.510	0.110
2020/01/31 06:04:59.5	91.610	-0.290	0.490	0.120
2020/01/31 06:04:59.6	91.620	-0.300	0.460	0.130
2020/01/31 06:04:59.7	91.630	-0.300	0.430	0.150
2020/01/31 06:04:59.8	91.640	-0.300	0.400	0.170
2020/01/31 06:04:59.9	91.650	-0.300	0.370	0.190
2020/01/31 06:05:00.0	91.660	-0.290	0.330	0.220
2020/01/31 06:05:00.1	91.660	-0.290	0.290	0.250
2020/01/31 06:05:00.2	91.660	-0.280	0.240	0.290
2020/01/31 06:05:00.3	91.660	-0.270	0.190	0.320
2020/01/31 06:05:00.4	91.660	-0.260	0.150	0.360
2020/01/31 06:05:00.5	91.660	-0.250	0.100	0.410
2020/01/31 06:05:00.6	91.650	-0.240	0.050	0.450
2020/01/31 06:05:00.7	91.650	-0.220	0.000	0.500
2020/01/31 06:05:00.8	91.640	-0.210	-0.050	0.540
2020/01/31 06:05:00.9	91.640	-0.200	-0.090	0.590
2020/01/31 06:05:01.0	91.630	-0.180	-0.140	0.640
2020/01/31 06:05:01.1	91.620	-0.170	-0.180	0.680
2020/01/31 06:05:01.2	91.610	-0.150	-0.230	0.730
2020/01/31 06:05:01.3	91.590	-0.140	-0.270	0.780
2020/01/31 06:05:01.4	91.580	-0.120	-0.310	0.820
2020/01/31 06:05:01.5	91.570	-0.110	-0.350	0.870
2020/01/31 06:05:01.6	91.570	-0.100	-0.390	0.910
2020/01/31 06:05:01.7	91.560	-0.090	-0.420	0.950
2020/01/31 06:05:01.8	91.550	-0.070	-0.460	0.990
2020/01/31 06:05:01.9	91.540	-0.060	-0.490	1.030
2020/01/31 06:05:02.0	91.540	-0.050	-0.520	1.060
2020/01/31 06:05:02.1	91.530	-0.040	-0.540	1.090
2020/01/31 06:05:02.2	91.530	-0.030	-0.570	1.130
2020/01/31 06:05:02.3	91.530	-0.030	-0.590	1.150
2020/01/31 06:05:02.4	91.520	-0.020	-0.600	1.180
2020/01/31 06:05:02.5	91.520	-0.020	-0.620	1.210
2020/01/31 06:05:02.6	91.520	-0.010	-0.630	1.230
2020/01/31 06:05:02.7	91.520	-0.010	-0.640	1.250
2020/01/31 06:05:02.8	91.520	-0.010	-0.640	1.280
2020/01/31 06:05:02.9	91.520	-0.010	-0.650	1.300
2020/01/31 06:05:03.0	91.520	-0.010	-0.640	1.310
2020/01/31 06:05:03.1	91.520	-0.020	-0.640	1.330
2020/01/31 06:05:03.2	91.530	-0.020	-0.630	1.350
2020/01/31 06:05:03.3	91.530	-0.020	-0.620	1.370
2020/01/31 06:05:03.4	91.540	-0.030	-0.610	1.380
2020/01/31 06:05:03.5	91.540	-0.030	-0.600	1.390
2020/01/31 06:05:03.6	91.550	-0.040	-0.580	1.400
2020/01/31 06:05:03.7	91.550	-0.050	-0.560	1.410
2020/01/31 06:05:03.8	91.560	-0.050	-0.540	1.420
2020/01/31 06:05:03.9	91.560	-0.060	-0.510	1.430
2020/01/31 06:05:04.0	91.570	-0.070	-0.490	1.440
2020/01/31 06:05:04.1	91.570	-0.070	-0.460	1.440
2020/01/31 06:05:04.2	91.580	-0.080	-0.430	1.450
2020/01/31 06:05:04.3	91.590	-0.080	-0.400	1.450
2020/01/31 06:05:04.4	91.590	-0.090	-0.370	1.450
2020/01/31 06:05:04.5	91.600	-0.090	-0.350	1.440
2020/01/31 06:05:04.6	91.600	-0.100	-0.320	1.440
2020/01/31 06:05:04.7	91.610	-0.100	-0.290	1.430
2020/01/31 06:05:04.8	91.620	-0.100	-0.260	1.430
2020/01/31 06:05:04.9	91.620	-0.100	-0.230	1.420
2020/01/31 06:05:05.0	91.630	-0.100	-0.210	1.400
2020/01/31 06:05:05.1	91.630	-0.100	-0.180	1.390
2020/01/31 06:05:05.2	91.640	-0.090	-0.160	1.370
2020/01/31 06:05:05.3	91.650	-0.090	-0.130	1.350
2020/01/31 06:05:05.4	91.650	-0.080	-0.110	1.330
2020/01/31 06:05:05.5	91.660	-0.080	-0.090	1.310
2020/01/31 06:05:05.6	91.660	-0.070	-0.070	1.280
2020/01/31 06:05:05.7	91.660	-0.070	-0.050	1.260
2020/01/31 06:05:05.8	91.660	-0.060	-0.040	1.230
2020/01/31 06:05:05.9	91.660	-0.050	-0.030	1.200
2020/01/31 06:05:06.0	91.660	-0.040	-0.010	1.180
2020/01/31 06:05:06.1	91.660	-0.030	-0.000	1.150
2020/01/31 06:05:06.2	91.650	-0.020	0.010	1.120
2020/01/31 06:05:06.3	91.650	-0.010	0.020	1.100
2020/01/31 06:05:06.4	91.640	-0.000	0.020	1.070
2020/01/31 06:05:06.5	91.640	0.010	0.030	1.050
2020/01/31 06:05:06.6	91.630	0.020	0.030	1.020
2020/01/31 06:05:06.7	91.610	0.030	0.030	1.000
2020/01/31 06:05:06.8	91.600	0.030	0.030	0.980
2020/01/31 06:05:06.9	91.590	0.040	0.030	0.960
2020/01/31 06:05:07.0	91.580	0.050	0.030	0.940
2020/01/31 06:05:07.1	91.560	0.060	0.030	0.920
2020/01/31 06:05:07.2	91.550	0.070	0.020	0.890
2020/01/31 06:05:07.3	91.540	0.080	0.010	0.870
2020/01/31 06:05:07.4	91.530	0.080	0.010	0.850
2020/01/31 06:05:07.5	91.520	0.090	-0.000	0.830
2020/01/31 06:05:07.6	91.510	0.100	-0.010	0.810
2020/01/31 06:05:07.7	91.500	0.100	-0.020	0.780
2020/01/31 06:05:07.8	91.500	0.110	-0.040	0.760
2020/01/31 06:05:07.9	91.490	0.110	-0.050	0.740
2020/01/31 06:05:08.0	91.490	0.120	-0.060	0.710
2020/01/31 06:05:08.1	91.490	0.120	-0.080	0.690
2020/01/31 06:05:08.2	91.490	0.130	-0.100	0.660
2020/01/31 06:05:08.3	91.500	0.130	-0.120	0.630
2020/01/31 06:05:08.4	91.500	0.140	-0.140	0.610
2020/01/31 06:05:08.5	91.500	0.140	-0.160	0.580
2020/01/31 06:05:08.6	91.510	0.150	-0.180	0.550
2020/01/31 06:05:08.7	91.520	0.150	-0.200	0.530
2020/01/31 06:05:08.8	91.520	0.160	-0.230	0.500
2020/01/31 06:05:08.9	91.530	0.160	-0.250	0.480
2020/01/31 06:05:09.0	91.540	0.170	-0.280	0.450
2020/01/31 06:05:09.1	91.540	0.170	-0.300	0.430
2020/01/31 06:05:09.2	91.550	0.180	-0.320	0.410
2020/01/31 06:05:09.3	91.550	0.180	-0.350	0.390
2020/01/31 06:05:09.4	91.560	0.190	-0.370	0.370
2020/01/31 06:05:09.5	91.570	0.190	-0.390	0.350
2020/01/31 06:05:09.6	91.570	0.200	-0.410	0.330
2020/01/31 06:05:09.7	91.580	0.200	-0.420	0.310
2020/01/31 06:05:09.8	91.590	0.210	-0.430	0.300
2020/01/31 06:05:09.9	91.590	0.210	-0.440	0.280
2020/01/31 06:05:10.0	91.600	0.210	-0.440	0.260
2020/01/31 06:05:10.1	91.610	0.210	-0.450	0.240
2020/01/31 06:05:10.2	91.610	0.220	-0.450	0.220
2020/01/31 06:05:10.3	91.620	0.210	-0.440	0.210
2020/01/31 06:05:10.4	91.630	0.210	-0.430	0.190
2020/01/31 06:05:10.5	91.640	0.210	-0.410	0.180
2020/01/31 06:05:10.6	91.650	0.200	-0.390	0.160
2020/01/31 06:05:10.7	91.660	0.200	-0.360	0.150
2020/01/31 06:05:10.8	91.680	0.190	-0.340	0.130
2020/01/31 06:05:10.9	91.690	0.180	-0.310	0.120
2020/01/31 06:05:11.0	91.700	0.170	-0.270	0.110
2020/01/31 06:05:11.1	91.710	0.160	-0.230	0.100
2020/01/31 06:05:11.2	91.730	0.140	-0.190	0.090
2020/01/31 06:05:11.3	91.740	0.130	-0.140	0.080
2020/01/31 06:05:11.4	91.750	0.110	-0.100	0.080
2020/01/31 06:05:11.5	91.760	0.090	-0.060	0.080
2020/01/31 06:05:11.6	91.780	0.070	-0.010	0.080
2020/01/31 06:05:11.7	91.790	0.050	0.040	0.080
2020/01/31 06:05:11.8	91.800	0.030	0.080	0.090
2020/01/31 06:05:11.9	91.810	0.010	0.130	0.100
2020/01/31 06:05:12.0	91.830	-0.010	0.170	0.110
2020/01/31 06:05:12.1	91.840	-0.030	0.220	0.130
2020/01/31 06:05:12.2	91.850	-0.050	0.260	0.150
2020/01/31 06:05:12.3	91.850	-0.070	0.290	0.170
2020/01/31 06:05:12.4	91.860	-0.090	0.330	0.190
2020/01/31 06:05:12.5	91.870	-0.110	0.360	0.220
2020/01/31 06:05:12.6	91.880	-0.130	0.390	0.250
2020/01/31 06:05:12.7	91.890	-0.150	0.410	0.280
2020/01/31 06:05:12.8	91.890	-0.170	0.430	0.310
2020/01/31 06:05:12.9	91.900	-0.180	0.440	0.340
2020/01/31 06:05:13.0	91.900	-0.200	0.440	0.380
2020/01/31 06:05:13.1	91.910	-0.210	0.440	0.410
2020/01/31 06:05:13.2	91.910	-0.220	0.440	0.450
2020/01/31 06:05:13.3	91.920	-0.230	0.430	0.500
2020/01/31 06:05:13.4	91.920	-0.240	0.410	0.530
2020/01/31 06:05:13.5	91.920	-0.240	0.380	0.570
2020/01/31 06:05:13.6	91.920	-0.240	0.350	0.610
2020/01/31 06:05:13.7	91.920	-0.240	0.320	0.650
2020/01/31 06:05:13.8	91.920	-0.240	0.280	0.690
2020/01/31 06:05:13.9	91.920	-0.240	0.230	0.730
2020/01/31 06:05:14.0	91.920	-0.230	0.180	0.760
2020/01/31 06:05:14.1	91.920	-0.230	0.130	0.800
2020/01/31 06:05:14.2	91.910	-0.220	0.070	0.830
2020/01/31 06:05:14.3	91.910	-0.210	0.000	0.870
2020/01/31 06:05:14.4	91.900	-0.190	-0.060	0.910
2020/01/31 06:05:14.5	91.900	-0.180	-0.130	0.950
2020/01/31 06:05:14.6	91.890	-0.160	-0.200	0.990
2020/01/31 06:05:14.7	91.890	-0.150	-0.270	1.030
2020/01/31 06:05:14.8	91.880	-0.130	-0.340	1.070
2020/01/31 06:05:14.9	91.870	-0.110	-0.410	1.110
2020/01/31 06:05:15.0	91.870	-0.090	-0.480	1.150
2020/01/31 06:05:15.1	91.860	-0.070	-0.550	1.190
2020/01/31 06:05:15.2	91.850	-0.050	-0.610	1.230
2020/01/31 06:05:15.3	91.850	-0.030	-0.670	1.270
2020/01/31 06:05:15.4	91.850	-0.000	-0.730	1.310
2020/01/31 06:05:15.5	91.840	0.020	-0.790	1.340
2020/01/31 06:05:15.6	91.840	0.040	-0.840	1.380
2020/01/31 06:05:15.7	91.840	0.060	-0.880	1.410
2020/01/31 06:05:15.8	91.830	0.080	-0.920	1.440
2020/01/31 06:05:15.9	91.830	0.100	-0.950	1.470
2020/01/31 06:05:16.0	91.830	0.120	-0.980	1.500
2020/01/31 06:05:16.1	91.840	0.140	-1.000	1.520
2020/01/31 06:05:16.2	91.840	0.150	-1.010	1.550
2020/01/31 06:05:16.3	91.840	0.160	-1.020	1.570
2020/01/31 06:05:16.4	91.850	0.180	-1.020	1.590
2020/01/31 06:05:16.5	91.850	0.180	-1.010	1.610
2020/01/31 06:05:16.6	91.860	0.190	-0.990	1.630
2020/01/31 06:05:16.7	91.870	0.200	-0.970	1.640
2020/01/31 06:05:16.8	91.880	0.200	-0.940	1.650
2020/01/31 06:05:16.9	91.890	0.190	-0.900	1.660
2020/01/31 06:05:17.0	91.910	0.190	-0.850	1.670
2020/01/31 06:05:17.1	91.920	0.180	-0.800	1.680
2020/01/31 06:05:17.2	91.940	0.170	-0.740	1.680
2020/01/31 06:05:17.3	91.950	0.160	-0.670	1.690
2020/01/31 06:05:17.4	91.960	0.150	-0.600	1.690
2020/01/31 06:05:17.5	91.970	0.130	-0.530	1.690
2020/01/31 06:05:17.6	91.980	0.110	-0.450	1.680
2020/01/31 06:05:17.7	91.990	0.080	-0.370	1.680
2020/01/31 06:05:17.8	92.000	0.060	-0.280	1.670
2020/01/31 06:05:17.9	92.000	0.030	-0.190	1.660
2020/01/31 06:05:18.0	92.010	0.000	-0.110	1.650
2020/01/31 06:05:18.1	92.010	-0.020	-0.020	1.640
2020/01/31 06:05:18.2	92.020	-0.050	0.070	1.630
2020/01/31 06:05:18.3	92.020	-0.090	0.160	1.610
2020/01/31 06:05:18.4	92.010	-0.120	0.240	1.590
2020/01/31 06:05:18.5	92.010	-0.150	0.320	1.580
2020/01/31 06:05:18.6	92.010	-0.180	0.400	1.560
2020/01/31 06:05:18.7	92.000	-0.210	0.470	1.540
2020/01/31 06:05:18.8	92.000	-0.240	0.540	1.520
2020/01/31 06:05:18.9	91.990	-0.260	0.600	1.500
2020/01/31 06:05:19.0	91.980	-0.290	0.650	1.470
2020/01/31 06:05:19.1	91.970	-0.310	0.690	1.450
2020/01/31 06:05:19.2	91.960	-0.330	0.720	1.430
2020/01/31 06:05:19.3	91.940	-0.350	0.750	1.400
2020/01/31 06:05:19.4	91.930	-0.370	0.760	1.370
2020/01/31 06:05:19.5	91.920	-0.380	0.770	1.350
2020/01/31 06:05:19.6	91.910	-0.390	0.770	1.320
2020/01/31 06:05:19.7	91.890	-0.400	0.750	1.290
2020/01/31 06:05:19.8	91.880	-0.400	0.730	1.260
2020/01/31 06:05:19.9	91.870	-0.400	0.690	1.220
2020/01/31 06:05:20.0	91.860	-0.390	0.650	1.190
2020/01/31 06:05:20.1	91.860	-0.380	0.590	1.150
2020/01/31 06:05:20.2	91.850	-0.370	0.530	1.110
2020/01/31 06:05:20.3	91.850	-0.350	0.460	1.070
2020/01/31 06:05:20.4	91.850	-0.330	0.380	1.020
2020/01/31 06:05:20.5	91.850	-0.310	0.290	0.980
2020/01/31 06:05:20.6	91.850	-0.280	0.200	0.930
2020/01/31 06:05:20.7	91.860	-0.250	0.100	0.870
2020/01/31 06:05:20.8	91.860	-0.220	-0.000	0.820
2020/01/31 06:05:20.9	91.870	-0.190	-0.110	0.760
2020/01/31 06:05:21.0	91.890	-0.160	-0.210	0.700
2020/01/31 06:05:21.1	91.900	-0.120	-0.320	0.640
2020/01/31 06:05:21.2	91.920	-0.080	-0.430	0.580
2020/01/31 06:05:21.3	91.930	-0.050	-0.540	0.510
2020/01/31 06:05:21.4	91.960	-0.010	-0.640	0.450
2020/01/31 06:05:21.5	91.980	0.030	-0.730	0.390
2020/01/31 06:05:21.6	92.010	0.060	-0.820	0.330
2020/01/31 06:05:21.7	92.030	0.100	-0.900	0.260
2020/01/31 06:05:21.8	92.060	0.130	-0.980	0.210
2020/01/31 06:05:21.9	92.090	0.160	-1.040	0.150
2020/01/31 06:05:22.0	92.120	0.190	-1.090	0.100
2020/01/31 06:05:22.1	92.150	0.220	-1.140	0.050
2020/01/31 06:05:22.2	92.170	0.240	-1.170	0.000
2020/01/31 06:05:22.3	92.190	0.260	-1.190	-0.040
2020/01/31 06:05:22.4	92.220	0.270	-1.190	-0.080
2020/01/31 06:05:22.5	92.250	0.290	-1.180	-0.110
2020/01/31 06:05:22.6	92.270	0.290	-1.160	-0.140
2020/01/31 06:05:22.7	92.290	0.300	-1.130	-0.160
2020/01/31 06:05:22.8	92.320	0.300	-1.080	-0.180
2020/01/31 06:05:22.9	92.340	0.300	-1.020	-0.190
2020/01/31 06:05:23.0	92.350	0.290	-0.960	-0.200
2020/01/31 06:05:23.1	92.370	0.280	-0.880	-0.200
2020/01/31 06:05:23.2	92.380	0.270	-0.790	-0.200
2020/01/31 06:05:23.3	92.380	0.250	-0.690	-0.190
2020/01/31 06:05:23.4	92.390	0.230	-0.590	-0.180
2020/01/31 06:05:23.5	92.400	0.210	-0.480	-0.170
2020/01/31 06:05:23.6	92.400	0.180	-0.370	-0.160
2020/01/31 06:05:23.7	92.400	0.160	-0.250	-0.140
2020/01/31 06:05:23.8	92.400	0.130	-0.140	-0.120
2020/01/31 06:05:23.9	92.400	0.100	-0.020	-0.090
2020/01/31 06:05:24.0	92.390	0.070	0.100	-0.070
2020/01/31 06:05:24.1	92.390	0.040	0.220	-0.040
2020/01/31 06:05:24.2	92.380	0.000	0.330	-0.010
2020/01/31 06:05:24.3	92.370	-0.030	0.440	0.010
2020/01/31 06:05:24.4	92.360	-0.060	0.540	0.040
2020/01/31 06:05:24.5	92.350	-0.090	0.640	0.060
2020/01/31 06:05:24.6	92.330	-0.120	0.720	0.090
2020/01/31 06:05:24.7	92.320	-0.150	0.800	0.120
2020/01/31 06:05:24.8	92.310	-0.170	0.870	0.140
2020/01/31 06:05:24.9	92.290	-0.190	0.930	0.160
2020/01/31 06:05:25.0	92.280	-0.210	0.970	0.190
2020/01/31 06:05:25.1	92.260	-0.230	1.010	0.210
2020/01/31 06:05:25.2	92.240	-0.240	1.030	0.240
2020/01/31 06:05:25.3	92.230	-0.250	1.030	0.250
2020/01/31 06:05:25.4	92.210	-0.260	1.030	0.280
2020/01/31 06:05:25.5	92.190	-0.260	1.010	0.300
2020/01/31 06:05:25.6	92.170	-0.250	0.980	0.330
2020/01/31 06:05:25.7	92.150	-0.240	0.930	0.350
2020/01/31 06:05:25.8	92.130	-0.230	0.880	0.380
2020/01/31 06:05:25.9	92.110	-0.210	0.810	0.400
2020/01/31 06:05:26.0	92.090	-0.190	0.730	0.430
2020/01/31 06:05:26.1	92.060	-0.160	0.640	0.460
2020/01/31 06:05:26.2	92.040	-0.130	0.540	0.480
2020/01/31 06:05:26.3	92.010	-0.100	0.420	0.510
2020/01/31 06:05:26.4	91.990	-0.060	0.310	0.540
2020/01/31 06:05:26.5	91.970	-0.020	0.190	0.560
2020/01/31 06:05:26.6	91.950	0.020	0.060	0.590
2020/01/31 06:05:26.7	91.930	0.060	-0.070	0.620
2020/01/31 06:05:26.8	91.920	0.100	-0.200	0.650
2020/01/31 06:05:26.9	91.900	0.150	-0.330	0.670
2020/01/31 06:05:27.0	91.890	0.200	-0.460	0.700
2020/01/31 06:05:27.1	91.880	0.240	-0.590	0.720
2020/01/31 06:05:27.2	91.880	0.280	-0.720	0.740
2020/01/31 06:05:27.3	91.880	0.330	-0.840	0.770
2020/01/31 06:05:27.4	91.870	0.370	-0.950	0.790
2020/01/31 06:05:27.5	91.880	0.400	-1.060	0.810
2020/01/31 06:05:27.6	91.880	0.440	-1.160	0.830
2020/01/31 06:05:27.7	91.890	0.470	-1.250	0.850
2020/01/31 06:05:27.8	91.900	0.500	-1.330	0.870
2020/01/31 06:05:27.9	91.910	0.520	-1.400	0.880
2020/01/31 06:05:28.0	91.930	0.540	-1.450	0.900
2020/01/31 06:05:28.1	91.950	0.560	-1.500	0.910
2020/01/31 06:05:28.2	91.970	0.570	-1.530	0.930
2020/01/31 06:05:28.3	91.990	0.570	-1.550	0.940
2020/01/31 06:05:28.4	92.010	0.570	-1.560	0.950
2020/01/31 06:05:28.5	92.040	0.560	-1.550	0.960
2020/01/31 06:05:28.6	92.060	0.550	-1.530	0.970
2020/01/31 06:05:28.7	92.090	0.540	-1.500	0.980
2020/01/31 06:05:28.8	92.120	0.520	-1.450	0.990
2020/01/31 06:05:28.9	92.150	0.490	-1.390	1.000
2020/01/31 06:05:29.0	92.180	0.460	-1.320	1.010
2020/01/31 06:05:29.1	92.220	0.430	-1.240	1.020
2020/01/31 06:05:29.2	92.250	0.390	-1.160	1.030
2020/01/31 06:05:29.3	92.280	0.350	-1.050	1.040
2020/01/31 06:05:29.4	92.320	0.300	-0.950	1.050
2020/01/31 06:05:29.5	92.350	0.250	-0.830	1.060
2020/01/31 06:05:29.6	92.380	0.200	-0.710	1.070
2020/01/31 06:05:29.7	92.420	0.150	-0.590	1.090
2020/01/31 06:05:29.8	92.450	0.100	-0.460	1.100
2020/01/31 06:05:29.9	92.480	0.040	-0.330	1.120
2020/01/31 06:05:30.0	92.510	-0.010	-0.200	1.130
2020/01/31 06:05:30.1	92.550	-0.070	-0.060	1.150
2020/01/31 06:05:30.2	92.580	-0.120	0.070	1.170
2020/01/31 06:05:30.3	92.610	-0.180	0.200	1.180
2020/01/31 06:05:30.4	92.640	-0.230	0.320	1.200
2020/01/31 06:05:30.5	92.670	-0.280	0.440	1.220
2020/01/31 06:05:30.6	92.690	-0.330	0.560	1.240
2020/01/31 06:05:30.7	92.720	-0.380	0.670	1.260
2020/01/31 06:05:30.8	92.740	-0.430	0.770	1.280
2020/01/31 06:05:30.9	92.770	-0.470	0.870	1.300
2020/01/31 06:05:31.0	92.790	-0.510	0.950	1.320
2020/01/31 06:05:31.1	92.810	-0.540	1.030	1.340
2020/01/31 06:05:31.2	92.840	-0.580	1.100	1.370
2020/01/31 06:05:31.3	92.850	-0.600	1.150	1.390
2020/01/31 06:05:31.4	92.870	-0.630	1.200	1.410
2020/01/31 06:05:31.5	92.880	-0.650	1.230	1.430
2020/01/31 06:05:31.6	92.890	-0.660	1.250	1.450
2020/01/31 06:05:31.7	92.900	-0.670	1.260	1.460
2020/01/31 06:05:31.8	92.910	-0.680	1.260	1.480
2020/01/31 06:05:31.9	92.920	-0.680	1.240	1.500
2020/01/31 06:05:32.0	92.920	-0.680	1.220	1.510
2020/01/31 06:05:32.1	92.930	-0.670	1.180	1.530
2020/01/31 06:05:32.2	92.930	-0.660	1.140	1.540
2020/01/31 06:05:32.3	92.920	-0.640	1.080	1.550
2020/01/31 06:05:32.4	92.920	-0.620	1.010	1.560
2020/01/31 06:05:32.5	92.920	-0.600	0.930	1.560
2020/01/31 06:05:32.6	92.910	-0.570	0.850	1.570
2020/01/31 06:05:32.7	92.910	-0.540	0.760	1.570
2020/01/31 06:05:32.8	92.900	-0.500	0.660	1.580
2020/01/31 06:05:32.9	92.890	-0.470	0.550	1.580
2020/01/31 06:05:33.0	92.890	-0.430	0.440	1.580
2020/01/31 06:05:33.1	92.880	-0.390	0.330	1.570
2020/01/31 06:05:33.2	92.870	-0.340	0.220	1.570
2020/01/31 06:05:33.3	92.870	-0.300	0.100	1.560
2020/01/31 06:05:33.4	92.850	-0.260	-0.020	1.560
2020/01/31 06:05:33.5	92.840	-0.210	-0.140	1.550
2020/01/31 06:05:33.6	92.820	-0.170	-0.250	1.540
2020/01/31 06:05:33.7	92.810	-0.120	-0.370	1.530
2020/01/31 06:05:33.8	92.790	-0.080	-0.480	1.520
2020/01/31 06:05:33.9	92.770	-0.040	-0.590	1.500
2020/01/31 06:05:34.0	92.750	-0.000	-0.690	1.490
2020/01/31 06:05:34.1	92.730	0.040	-0.780	1.470
2020/01/31 06:05:34.2	92.710	0.070	-0.870	1.450
2020/01/31 06:05:34.3	92.680	0.100	-0.950	1.430
2020/01/31 06:05:34.4	92.660	0.130	-1.020	1.410
2020/01/31 06:05:34.5	92.640	0.150	-1.080	1.390
2020/01/31 06:05:34.6	92.620	0.170	-1.130	1.360
2020/01/31 06:05:34.7	92.600	0.190	-1.170	1.340
2020/01/31 06:05:34.8	92.580	0.210	-1.200	1.310
2020/01/31 06:05:34.9	92.560	0.220	-1.220	1.280
2020/01/31 06:05:35.0	92.540	0.220	-1.230	1.250
2020/01/31 06:05:35.1	92.520	0.220	-1.220	1.210
2020/01/31 06:05:35.2	92.510	0.220	-1.210	1.180
2020/01/31 06:05:35.3	92.490	0.220	-1.180	1.140
2020/01/31 06:05:35.4	92.480	0.210	-1.150	1.110
2020/01/31 06:05:35.5	92.470	0.200	-1.110	1.070
2020/01/31 06:05:35.6	92.460	0.190	-1.060	1.030
2020/01/31 06:05:35.7	92.460	0.170	-1.000	0.990
2020/01/31 06:05:35.8	92.460	0.150	-0.940	0.950
2020/01/31 06:05:35.9	92.460	0.140	-0.870	0.910
2020/01/31 06:05:36.0	92.460	0.120	-0.790	0.860
2020/01/31 06:05:36.1	92.460	0.100	-0.720	0.820
2020/01/31 06:05:36.2	92.470	0.080	-0.640	0.780
2020/01/31 06:05:36.3	92.480	0.060	-0.560	0.730
2020/01/31 06:05:36.4	92.490	0.040	-0.470	0.680
2020/01/31 06:05:36.5	92.500	0.020	-0.390	0.640
2020/01/31 06:05:36.6	92.510	0.010	-0.320	0.590
2020/01/31 06:05:36.7	92.530	-0.010	-0.240	0.550
2020/01/31 06:05:36.8	92.550	-0.020	-0.170	0.510
2020/01/31 06:05:36.9	92.570	-0.030	-0.100	0.470
2020/01/31 06:05:37.0	92.590	-0.030	-0.040	0.420
2020/01/31 06:05:37.1	92.610	-0.030	0.020	0.380
2020/01/31 06:05:37.2	92.630	-0.030	0.070	0.350
2020/01/31 06:05:37.3	92.650	-0.030	0.110	0.310
2020/01/31 06:05:37.4	92.670	-0.020	0.140	0.270
2020/01/31 06:05:37.5	92.690	-0.010	0.170	0.240
2020/01/31 06:05:37.6	92.720	0.000	0.190	0.200
2020/01/31 06:05:37.7	92.740	0.020	0.200	0.170
2020/01/31 06:05:37.8	92.760	0.040	0.200	0.140
2020/01/31 06:05:37.9	92.790	0.060	0.190	0.110
2020/01/31 06:05:38.0	92.810	0.090	0.180	0.080
2020/01/31 06:05:38.1	92.840	0.110	0.160	0.050
2020/01/31 06:05:38.2	92.870	0.140	0.140	0.020
2020/01/31 06:05:38.3	92.900	0.170	0.110	-0.010
2020/01/31 06:05:38.4	92.930	0.200	0.070	-0.040
2020/01/31 06:05:38.5	92.960	0.230	0.030	-0.060
2020/01/31 06:05:38.6	92.990	0.270	-0.010	-0.090
2020/01/31 06:05:38.7	93.010	0.300	-0.050	-0.110
2020/01/31 06:05:38.8	93.040	0.330	-0.100	-0.130
2020/01/31 06:05:38.9	93.070	0.360	-0.150	-0.160
2020/01/31 06:05:39.0	93.100	0.390	-0.200	-0.170
2020/01/31 06:05:39.1	93.130	0.410	-0.240	-0.190
2020/01/31 06:05:39.2	93.160	0.440	-0.290	-0.200
2020/01/31 06:05:39.3	93.190	0.460	-0.330	-0.220
2020/01/31 06:05:39.4	93.210	0.470	-0.370	-0.220
2020/01/31 06:05:39.5	93.240	0.490	-0.410	-0.230
2020/01/31 06:05:39.6	93.260	0.500	-0.440	-0.230
2020/01/31 06:05:39.7	93.280	0.510	-0.460	-0.220
2020/01/31 06:05:39.8	93.300	0.510	-0.480	-0.210
2020/01/31 06:05:39.9	93.310	0.510	-0.500	-0.200
2020/01/31 06:05:40.0	93.330	0.510	-0.510	-0.180
2020/01/31 06:05:40.1	93.340	0.500	-0.510	-0.150
2020/01/31 06:05:40.2	93.350	0.490	-0.500	-0.120
2020/01/31 06:05:40.3	93.360	0.470	-0.490	-0.090
2020/01/31 06:05:40.4	93.360	0.450	-0.470	-0.050
2020/01/31 06:05:40.5	93.360	0.420	-0.440	-0.000
2020/01/31 06:05:40.6	93.360	0.390	-0.410	0.050
2020/01/31 06:05:40.7	93.360	0.360	-0.370	0.100
2020/01/31 06:05:40.8	93.350	0.320	-0.330	0.160
2020/01/31 06:05:40.9	93.340	0.280	-0.280	0.220
2020/01/31 06:05:41.0	93.330	0.240	-0.230	0.280
2020/01/31 06:05:41.1	93.320	0.190	-0.170	0.350
2020/01/31 06:05:41.2	93.290	0.140	-0.120	0.420
2020/01/31 06:05:41.3	93.280	0.090	-0.050	0.490
2020/01/31 06:05:41.4	93.260	0.040	0.010	0.560
2020/01/31 06:05:41.5	93.240	-0.010	0.070	0.630
2020/01/31 06:05:41.6	93.220	-0.060	0.140	0.710
2020/01/31 06:05:41.7	93.190	-0.110	0.200	0.780
2020/01/31 06:05:41.8	93.170	-0.160	0.260	0.850
2020/01/31 06:05:41.9	93.150	-0.210	0.320	0.920
2020/01/31 06:05:42.0	93.120	-0.260	0.370	0.990
2020/01/31 06:05:42.1	93.100	-0.310	0.430	1.050
2020/01/31 06:05:42.2	93.080	-0.350	0.470	1.110
2020/01/31 06:05:42.3	93.040	-0.400	0.520	1.170
2020/01/31 06:05:42.4	93.020	-0.430	0.560	1.220
2020/01/31 06:05:42.5	93.000	-0.470	0.590	1.270
2020/01/31 06:05:42.6	92.980	-0.500	0.610	1.310
2020/01/31 06:05:42.7	92.960	-0.530	0.630	1.340
2020/01/31 06:05:42.8	92.950	-0.560	0.650	1.370
2020/01/31 06:05:42.9	92.930	-0.580	0.650	1.400
2020/01/31 06:05:43.0	92.920	-0.590	0.650	1.420
2020/01/31 06:05:43.1	92.900	-0.600	0.650	1.440
2020/01/31 06:05:43.2	92.890	-0.610	0.630	1.450
2020/01/31 06:05:43.3	92.880	-0.610	0.610	1.450
2020/01/31 06:05:43.4	92.870	-0.610	0.590	1.450
2020/01/31 06:05:43.5	92.860	-0.600	0.560	1.450
2020/01/31 06:05:43.6	92.850	-0.590	0.520	1.450
2020/01/31 06:05:43.7	92.850	-0.580	0.480	1.440
2020/01/31 06:05:43.8	92.840	-0.560	0.430	1.430
2020/01/31 06:05:43.9	92.840	-0.540	0.380	1.420
2020/01/31 06:05:44.0	92.840	-0.510	0.320	1.400
2020/01/31 06:05:44.1	92.840	-0.480	0.260	1.390
2020/01/31 06:05:44.2	92.840	-0.450	0.200	1.370
2020/01/31 06:05:44.3	92.850	-0.420	0.130	1.350
2020/01/31 06:05:44.4	92.860	-0.380	0.070	1.320
2020/01/31 06:05:44.5	92.860	-0.350	0.000	1.300
2020/01/31 06:05:44.6	92.870	-0.310	-0.070	1.280
2020/01/31 06:05:44.7	92.880	-0.270	-0.140	1.260
2020/01/31 06:05:44.8	92.900	-0.230	-0.210	1.230
2020/01/31 06:05:44.9	92.910	-0.190	-0.270	1.210
2020/01/31 06:05:45.0	92.930	-0.150	-0.340	1.190
2020/01/31 06:05:45.1	92.940	-0.110	-0.410	1.170
2020/01/31 06:05:45.2	92.960	-0.070	-0.480	1.150
2020/01/31 06:05:45.3	92.980	-0.030	-0.540	1.130
2020/01/31 06:05:45.4	93.010	0.010	-0.600	1.110
2020/01/31 06:05:45.5	93.030	0.040	-0.660	1.090
2020/01/31 06:05:45.6	93.050	0.080	-0.720	1.070
2020/01/31 06:05:45.7	93.070	0.110	-0.770	1.060
2020/01/31 06:05:45.8	93.100	0.140	-0.820	1.040
2020/01/31 06:05:45.9	93.120	0.170	-0.860	1.030
2020/01/31 06:05:46.0	93.140	0.190	-0.900	1.010
2020/01/31 06:05:46.1	93.170	0.220	-0.940	1.000
2020/01/31 06:05:46.2	93.190	0.240	-0.970	0.990
2020/01/31 06:05:46.3	93.210	0.260	-1.000	0.970
2020/01/31 06:05:46.4	93.240	0.280	-1.020	0.950
2020/01/31 06:05:46.5	93.260	0.290	-1.040	0.940
2020/01/31 06:05:46.6	93.280	0.310	-1.050	0.930
2020/01/31 06:05:46.7	93.300	0.320	-1.060	0.910
2020/01/31 06:05:46.8	93.310	0.320	-1.060	0.900
2020/01/31 06:05:46.9	93.330	0.330	-1.050	0.890
2020/01/31 06:05:47.0	93.340	0.340	-1.050	0.880
2020/01/31 06:05:47.1	93.350	0.340	-1.030	0.860
2020/01/31 06:05:47.2	93.360	0.340	-1.010	0.850
2020/01/31 06:05:47.3	93.380	0.340	-0.990	0.850
2020/01/31 06:05:47.4	93.380	0.340	-0.960	0.840
2020/01/31 06:05:47.5	93.380	0.330	-0.920	0.830
2020/01/31 06:05:47.6	93.390	0.330	-0.880	0.820
2020/01/31 06:05:47.7	93.390	0.320	-0.840	0.820
2020/01/31 06:05:47.8	93.380	0.310	-0.790	0.820
2020/01/31 06:05:47.9	93.380	0.300	-0.730	0.820
2020/01/31 06:05:48.0	93.370	0.280	-0.680	0.820
2020/01/31 06:05:48.1	93.360	0.270	-0.610	0.820
2020/01/31 06:05:48.2	93.350	0.260	-0.550	0.820
2020/01/31 06:05:48.3	93.340	0.240	-0.480	0.820
2020/01/31 06:05:48.4	93.320	0.220	-0.410	0.830
2020/01/31 06:05:48.5	93.310	0.210	-0.340	0.840
2020/01/31 06:05:48.6	93.290	0.190	-0.270	0.850
2020/01/31 06:05:48.7	93.270	0.170	-0.190	0.860
2020/01/31 06:05:48.8	93.240	0.150	-0.120	0.870
2020/01/31 06:05:48.9	93.220	0.130	-0.050	0.890
2020/01/31 06:05:49.0	93.190	0.110	0.020	0.900
2020/01/31 06:05:49.1	93.170	0.080	0.090	0.920
2020/01/31 06:05:49.2	93.140	0.060	0.160	0.930
2020/01/31 06:05:49.3	93.110	0.040	0.230	0.950
2020/01/31 06:05:49.4	93.080	0.020	0.290	0.970
2020/01/31 06:05:49.5	93.050	-0.000	0.340	0.980
2020/01/31 06:05:49.6	93.020	-0.020	0.400	1.000
2020/01/31 06:05:49.7	93.000	-0.040	0.450	1.020
2020/01/31 06:05:49.8	92.970	-0.060	0.490	1.030
2020/01/31 06:05:49.9	92.940	-0.080	0.530	1.050
2020/01/31 06:05:50.0	92.920	-0.100	0.560	1.060
2020/01/31 06:05:50.1	92.900	-0.110	0.580	1.070
2020/01/31 06:05:50.2	92.880	-0.130	0.600	1.080
2020/01/31 06:05:50.3	92.870	-0.150	0.620	1.080
2020/01/31 06:05:50.4	92.850	-0.160	0.630	1.080
2020/01/31 06:05:50.5	92.840	-0.170	0.630	1.080
2020/01/31 06:05:50.6	92.830	-0.180	0.620	1.080
2020/01/31 06:05:50.7	92.820	-0.190	0.610	1.070
2020/01/31 06:05:50.8	92.810	-0.200	0.590	1.060
2020/01/31 06:05:50.9	92.810	-0.210	0.570	1.040
2020/01/31 06:05:51.0	92.810	-0.210	0.540	1.030
2020/01/31 06:05:51.1	92.810	-0.210	0.510	1.000
2020/01/31 06:05:51.2	92.820	-0.220	0.470	0.980
2020/01/31 06:05:51.3	92.820	-0.220	0.430	0.950
2020/01/31 06:05:51.4	92.830	-0.220	0.380	0.910
2020/01/31 06:05:51.5	92.840	-0.210	0.340	0.880
2020/01/31 06:05:51.6	92.860	-0.210	0.290	0.840
2020/01/31 06:05:51.7	92.870	-0.200	0.240	0.800
2020/01/31 06:05:51.8	92.890	-0.200	0.190	0.760
2020/01/31 06:05:51.9	92.910	-0.190	0.140	0.720
2020/01/31 06:05:52.0	92.930	-0.180	0.090	0.670
2020/01/31 06:05:52.1	92.950	-0.170	0.040	0.630
2020/01/31 06:05:52.2	92.970	-0.160	-0.010	0.590
2020/01/31 06:05:52.3	92.990	-0.150	-0.060	0.540
2020/01/31 06:05:52.4	93.010	-0.140	-0.110	0.500
2020/01/31 06:05:52.5	93.030	-0.130	-0.150	0.460
2020/01/31 06:05:52.6	93.050	-0.110	-0.200	0.430
2020/01/31 06:05:52.7	93.070	-0.100	-0.240	0.400
2020/01/31 06:05:52.8	93.090	-0.080	-0.280	0.370
2020/01/31 06:05:52.9	93.100	-0.070	-0.320	0.340
2020/01/31 06:05:53.0	93.120	-0.060	-0.350	0.320
2020/01/31 06:05:53.1	93.130	-0.040	-0.380	0.300
2020/01/31 06:05:53.2	93.140	-0.030	-0.420	0.280
2020/01/31 06:05:53.3	93.150	-0.010	-0.450	0.270
2020/01/31 06:05:53.4	93.160	0.000	-0.470	0.270
2020/01/31 06:05:53.5	93.170	0.020	-0.490	0.260
2020/01/31 06:05:53.6	93.170	0.030	-0.510	0.260
2020/01/31 06:05:53.7	93.180	0.040	-0.530	0.260
2020/01/31 06:05:53.8	93.190	0.050	-0.550	0.260
2020/01/31 06:05:53.9	93.190	0.060	-0.560	0.270
2020/01/31 06:05:54.0	93.190	0.080	-0.570	0.280
2020/01/31 06:05:54.1	93.190	0.080	-0.570	0.290
2020/01/31 06:05:54.2	93.200	0.090	-0.570	0.300
2020/01/31 06:05:54.3	93.200	0.100	-0.580	0.310
2020/01/31 06:05:54.4	93.200	0.110	-0.570	0.320
2020/01/31 06:05:54.5	93.190	0.110	-0.570	0.340
2020/01/31 06:05:54.6	93.190	0.120	-0.570	0.350
2020/01/31 06:05:54.7	93.190	0.120	-0.560	0.370
2020/01/31 06:05:54.8	93.180	0.130	-0.550	0.390
2020/01/31 06:05:54.9	93.180	0.130	-0.540	0.400
2020/01/31 06:05:55.0	93.170	0.130	-0.530	0.420
2020/01/31 06:05:55.1	93.170	0.130	-0.520	0.430
2020/01/31 06:05:55.2	93.160	0.130	-0.510	0.440
2020/01/31 06:05:55.3	93.150	0.130	-0.490	0.460
2020/01/31 06:05:55.4	93.140	0.130	-0.480	0.470
2020/01/31 06:05:55.5	93.140	0.130	-0.460	0.490
2020/01/31 06:05:55.6	93.130	0.120	-0.450	0.500
2020/01/31 06:05:55.7	93.120	0.120	-0.440	0.520
2020/01/31 06:05:55.8	93.110	0.120	-0.420	0.530
2020/01/31 06:05:55.9	93.110	0.120	-0.410	0.540
2020/01/31 06:05:56.0	93.100	0.120	-0.390	0.560
2020/01/31 06:05:56.1	93.090	0.110	-0.380	0.570
2020/01/31 06:05:56.2	93.100	0.110	-0.360	0.590
2020/01/31 06:05:56.3	93.090	0.110	-0.350	0.610
2020/01/31 06:05:56.4	93.090	0.110	-0.330	0.630
2020/01/31 06:05:56.5	93.090	0.110	-0.320	0.650
2020/01/31 06:05:56.6	93.080	0.100	-0.300	0.670
2020/01/31 06:05:56.7	93.080	0.100	-0.290	0.700
2020/01/31 06:05:56.8	93.080	0.100	-0.270	0.720
2020/01/31 06:05:56.9	93.080	0.090	-0.250	0.750
2020/01/31 06:05:57.0	93.080	0.090	-0.230	0.780
2020/01/31 06:05:57.1	93.080	0.090	-0.210	0.810
2020/01/31 06:05:57.2	93.080	0.080	-0.180	0.840
2020/01/31 06:05:57.3	93.080	0.080	-0.160	0.870
2020/01/31 06:05:57.4	93.090	0.070	-0.130	0.900
2020/01/31 06:05:57.5	93.090	0.060	-0.110	0.940
2020/01/31 06:05:57.6	93.090	0.060	-0.080	0.970
2020/01/31 06:05:57.7	93.100	0.050	-0.050	1.000
2020/01/31 06:05:57.8	93.100	0.040	-0.020	1.040
2020/01/31 06:05:57.9	93.100	0.030	0.010	1.070
2020/01/31 06:05:58.0	93.110	0.020	0.040	1.100
2020/01/31 06:05:58.1	93.110	0.010	0.070	1.120
2020/01/31 06:05:58.2	93.110	-0.000	0.110	1.150
2020/01/31 06:05:58.3	93.120	-0.020	0.130	1.170
2020/01/31 06:05:58.4	93.120	-0.030	0.160	1.190
2020/01/31 06:05:58.5	93.120	-0.040	0.190	1.210
2020/01/31 06:05:58.6	93.120	-0.060	0.220	1.230
2020/01/31 06:05:58.7	93.120	-0.070	0.240	1.240
2020/01/31 06:05:58.8	93.130	-0.080	0.260	1.250
2020/01/31 06:05:58.9	93.130	-0.100	0.280	1.260
2020/01/31 06:05:59.0	93.120	-0.110	0.300	1.260
2020/01/31 06:05:59.1	93.120	-0.120	0.320	1.260
2020/01/31 06:05:59.2	93.120	-0.130	0.330	1.260
2020/01/31 06:05:59.3	93.110	-0.140	0.330	1.260
2020/01/31 06:05:59.4	93.110	-0.150	0.340	1.250
2020/01/31 06:05:59.5	93.100	-0.160	0.340	1.250
2020/01/31 06:05:59.6	93.090	-0.170	0.340	1.240
2020/01/31 06:05:59.7	93.080	-0.170	0.340	1.230
2020/01/31 06:05:59.8	93.070	-0.180	0.330	1.220
2020/01/31 06:05:59.9	93.060	-0.180	0.320	1.210
2020/01/31 06:06:00.0	93.050	-0.180	0.300	1.200
2020/01/31 06:06:00.1	93.030	-0.180	0.280	1.180
2020/01/31 06:06:00.2	93.020	-0.170	0.260	1.160
2020/01/31 06:06:00.3	93.000	-0.170	0.240	1.140
2020/01/31 06:06:00.4	92.990	-0.160	0.210	1.120
2020/01/31 06:06:00.5	92.980	-0.150	0.170	1.100
2020/01/31 06:06:00.6	92.960	-0.140	0.140	1.080
2020/01/31 06:06:00.7	92.950	-0.130	0.100	1.060
2020/01/31 06:06:00.8	92.940	-0.110	0.050	1.040
2020/01/31 06:06:00.9	92.930	-0.100	0.010	1.010
2020/01/31 06:06:01.0	92.920	-0.080	-0.040	0.980
2020/01/31 06:06:01.1	92.920	-0.060	-0.090	0.960
2020/01/31 06:06:01.2	92.910	-0.040	-0.150	0.930
2020/01/31 06:06:01.3	92.910	-0.020	-0.200	0.900
2020/01/31 06:06:01.4	92.900	0.000	-0.260	0.870
2020/01/31 06:06:01.5	92.900	0.020	-0.320	0.850
2020/01/31 06:06:01.6	92.900	0.050	-0.370	0.820
2020/01/31 06:06:01.7	92.900	0.070	-0.430	0.800
2020/01/31 06:06:01.8	92.900	0.100	-0.490	0.770
2020/01/31 06:06:01.9	92.900	0.120	-0.550	0.750
2020/01/31 06:06:02.0	92.910	0.140	-0.600	0.720
2020/01/31 06:06:02.1	92.910	0.170	-0.650	0.700
2020/01/31 06:06:02.2	92.910	0.190	-0.700	0.680
2020/01/31 06:06:02.3	92.920	0.210	-0.750	0.670
2020/01/31 06:06:02.4	92.930	0.230	-0.790	0.650
2020/01/31 06:06:02.5	92.940	0.250	-0.830	0.630
2020/01/31 06:06:02.6	92.950	0.270	-0.870	0.620
2020/01/31 06:06:02.7	92.960	0.290	-0.890	0.610
2020/01/31 06:06:02.8	92.970	0.300	-0.920	0.600
2020/01/31 06:06:02.9	92.980	0.310	-0.940	0.590
2020/01/31 06:06:03.0	92.990	0.330	-0.950	0.580
2020/01/31 06:06:03.1	93.000	0.330	-0.960	0.570
2020/01/31 06:06:03.2	93.010	0.340	-0.960	0.570
2020/01/31 06:06:03.3	93.020	0.350	-0.960	0.560
2020/01/31 06:06:03.4	93.030	0.350	-0.950	0.550
2020/01/31 06:06:03.5	93.040	0.350	-0.930	0.550
2020/01/31 06:06:03.6	93.050	0.350	-0.910	0.540
2020/01/31 06:06:03.7	93.060	0.350	-0.890	0.540
2020/01/31 06:06:03.8	93.070	0.340	-0.860	0.540
2020/01/31 06:06:03.9	93.080	0.340	-0.820	0.530
2020/01/31 06:06:04.0	93.090	0.330	-0.780	0.530
2020/01/31 06:06:04.1	93.090	0.320	-0.740	0.530
2020/01/31 06:06:04.2	93.090	0.300	-0.690	0.530
2020/01/31 06:06:04.3	93.100	0.290	-0.630	0.530
2020/01/31 06:06:04.4	93.110	0.280	-0.580	0.520
2020/01/31 06:06:04.5	93.110	0.260	-0.520	0.520
2020/01/31 06:06:04.6	93.120	0.240	-0.460	0.520
2020/01/31 06:06:04.7	93.130	0.220	-0.390	0.520
2020/01/31 06:06:04.8	93.130	0.200	-0.330	0.520
2020/01/31 06:06:04.9	93.140	0.180	-0.260	0.530
2020/01/31 06:06:05.0	93.150	0.150	-0.190	0.530
2020/01/31 06:06:05.1	93.150	0.130	-0.130	0.530
2020/01/31 06:06:05.2	93.160	0.100	-0.060	0.540
2020/01/31 06:06:05.3	93.170	0.080	0.010	0.540
2020/01/31 06:06:05.4	93.170	0.050	0.080	0.550
2020/01/31 06:06:05.5	93.180	0.020	0.150	0.560
2020/01/31 06:06:05.6	93.180	-0.000	0.210	0.580
2020/01/31 06:06:05.7	93.190	-0.030	0.270	0.590
2020/01/31 06:06:05.8	93.190	-0.060	0.340	0.610
2020/01/31 06:06:05.9	93.190	-0.090	0.390	0.630
2020/01/31 06:06:06.0	93.190	-0.120	0.450	0.650
2020/01/31 06:06:06.1	93.190	-0.150	0.500	0.670
2020/01/31 06:06:06.2	93.190	-0.180	0.550	0.700
2020/01/31 06:06:06.3	93.180	-0.210	0.590	0.720
2020/01/31 06:06:06.4	93.180	-0.240	0.630	0.750
2020/01/31 06:06:06.5	93.180	-0.260	0.660	0.770
2020/01/31 06:06:06.6	93.170	-0.290	0.690	0.800
2020/01/31 06:06:06.7	93.160	-0.310	0.710	0.830
2020/01/31 06:06:06.8	93.160	-0.340	0.730	0.850
2020/01/31 06:06:06.9	93.150	-0.360	0.740	0.880
2020/01/31 06:06:07.0	93.140	-0.380	0.750	0.910
2020/01/31 06:06:07.1	93.130	-0.400	0.750	0.940
2020/01/31 06:06:07.2	93.120	-0.420	0.740	0.960
2020/01/31 06:06:07.3	93.110	-0.430	0.730	0.990
2020/01/31 06:06:07.4	93.100	-0.440	0.710	1.010
2020/01/31 06:06:07.5	93.090	-0.450	0.680	1.040
2020/01/31 06:06:07.6	93.080	-0.460	0.650	1.060
2020/01/31 06:06:07.7	93.070	-0.460	0.610	1.080
2020/01/31 06:06:07.8	93.060	-0.460	0.570	1.110
2020/01/31 06:06:07.9	93.050	-0.460	0.520	1.130
2020/01/31 06:06:08.0	93.040	-0.450	0.460	1.140
2020/01/31 06:06:08.1	93.030	-0.450	0.400	1.160
2020/01/31 06:06:08.2	93.020	-0.440	0.330	1.170
2020/01/31 06:06:08.3	93.020	-0.420	0.260	1.180
2020/01/31 06:06:08.4	93.010	-0.410	0.190	1.190
2020/01/31 06:06:08.5	93.010	-0.390	0.120	1.190
2020/01/31 06:06:08.6	93.010	-0.370	0.040	1.190
2020/01/31 06:06:08.7	93.020	-0.350	-0.040	1.180
2020/01/31 06:06:08.8	93.020	-0.320	-0.120	1.170
2020/01/31 06:06:08.9	93.030	-0.300	-0.200	1.160
2020/01/31 06:06:09.0	93.050	-0.270	-0.270	1.140
2020/01/31 06:06:09.1	93.060	-0.240	-0.350	1.120
2020/01/31 06:06:09.2	93.070	-0.220	-0.430	1.090
2020/01/31 06:06:09.3	93.090	-0.190	-0.500	1.060
2020/01/31 06:06:09.4	93.110	-0.160	-0.570	1.040
2020/01/31 06:06:09.5	93.130	-0.130	-0.630	1.010
2020/01/31 06:06:09.6	93.150	-0.110	-0.680	0.970
2020/01/31 06:06:09.7	93.180	-0.080	-0.730	0.940
2020/01/31 06:06:09.8	93.200	-0.060	-0.780	0.910
2020/01/31 06:06:09.9	93.230	-0.040	-0.820	0.880
2020/01/31 06:06:10.0	93.250	-0.020	-0.850	0.850
2020/01/31 06:06:10.1	93.270	-0.000	-0.870	0.820
2020/01/31 06:06:10.2	93.300	0.010	-0.880	0.790
2020/01/31 06:06:10.3	93.320	0.020	-0.880	0.760
2020/01/31 06:06:10.4	93.340	0.030	-0.880	0.730
2020/01/31 06:06:10.5	93.360	0.040	-0.870	0.710
2020/01/31 06:06:10.6	93.370	0.040	-0.850	0.690
2020/01/31 06:06:10.7	93.380	0.040	-0.830	0.670
2020/01/31 06:06:10.8	93.390	0.040	-0.800	0.650
2020/01/31 06:06:10.9	93.400	0.040	-0.760	0.630
2020/01/31 06:06:11.0	93.400	0.040	-0.720	0.620
2020/01/31 06:06:11.1	93.400	0.030	-0.670	0.610
2020/01/31 06:06:11.2	93.390	0.020	-0.620	0.590
2020/01/31 06:06:11.3	93.390	0.010	-0.560	0.590
2020/01/31 06:06:11.4	93.380	0.000	-0.500	0.580
2020/01/31 06:06:11.5	93.370	-0.010	-0.440	0.580
2020/01/31 06:06:11.6	93.360	-0.020	-0.380	0.570
2020/01/31 06:06:11.7	93.340	-0.030	-0.320	0.570
2020/01/31 06:06:11.8	93.330	-0.040	-0.250	0.570
2020/01/31 06:06:11.9	93.310	-0.050	-0.190	0.570
2020/01/31 06:06:12.0	93.290	-0.060	-0.140	0.570
2020/01/31 06:06:12.1	93.270	-0.060	-0.080	0.570
2020/01/31 06:06:12.2	93.240	-0.070	-0.030	0.580
2020/01/31 06:06:12.3	93.220	-0.070	0.020	0.580
2020/01/31 06:06:12.4	93.190	-0.080	0.060	0.580
2020/01/31 06:06:12.5	93.160	-0.080	0.100	0.580
2020/01/31 06:06:12.6	93.140	-0.070	0.130	0.580
2020/01/31 06:06:12.7	93.110	-0.070	0.150	0.580
2020/01/31 06:06:12.8	93.080	-0.060	0.160	0.570
2020/01/31 06:06:12.9	93.060	-0.050	0.170	0.570
2020/01/31 06:06:13.0	93.030	-0.030	0.170	0.570
2020/01/31 06:06:13.1	93.000	-0.020	0.170	0.570
2020/01/31 06:06:13.2	92.980	0.000	0.160	0.560
2020/01/31 06:06:13.3	92.960	0.020	0.140	0.560
2020/01/31 06:06:13.4	92.930	0.050	0.120	0.560
2020/01/31 06:06:13.5	92.910	0.080	0.090	0.550
2020/01/31 06:06:13.6	92.880	0.110	0.050	0.550
2020/01/31 06:06:13.7	92.860	0.140	0.010	0.550
2020/01/31 06:06:13.8	92.840	0.170	-0.030	0.540
2020/01/31 06:06:13.9	92.820	0.200	-0.080	0.540
2020/01/31 06:06:14.0	92.800	0.240	-0.120	0.540
2020/01/31 06:06:14.1	92.790	0.270	-0.180	0.530
2020/01/31 06:06:14.2	92.770	0.310	-0.230	0.530
2020/01/31 06:06:14.3	92.750	0.340	-0.280	0.530
2020/01/31 06:06:14.4	92.740	0.380	-0.330	0.520
2020/01/31 06:06:14.5	92.740	0.410	-0.380	0.520
2020/01/31 06:06:14.6	92.730	0.450	-0.430	0.520
2020/01/31 06:06:14.7	92.730	0.480	-0.480	0.510
2020/01/31 06:06:14.8	92.730	0.510	-0.530	0.510
2020/01/31 06:06:14.9	92.730	0.540	-0.570	0.500
2020/01/31 06:06:15.0	92.730	0.560	-0.610	0.490
2020/01/31 06:06:15.1	92.740	0.590	-0.640	0.490
2020/01/31 06:06:15.2	92.750	0.610	-0.670	0.480
2020/01/31 06:06:15.3	92.760	0.630	-0.700	0.470
2020/01/31 06:06:15.4	92.770	0.640	-0.720	0.460
2020/01/31 06:06:15.5	92.790	0.650	-0.740	0.440
2020/01/31 06:06:15.6	92.810	0.660	-0.740	0.430
2020/01/31 06:06:15.7	92.830	0.670	-0.750	0.420
2020/01/31 06:06:15.8	92.850	0.670	-0.750	0.410
2020/01/31 06:06:15.9	92.880	0.670	-0.740	0.390
2020/01/31 06:06:16.0	92.900	0.670	-0.720	0.380
2020/01/31 06:06:16.1	92.930	0.660	-0.700	0.370
2020/01/31 06:06:16.2	92.950	0.650	-0.680	0.350
2020/01/31 06:06:16.3	92.980	0.630	-0.650	0.340
2020/01/31 06:06:16.4	93.010	0.610	-0.610	0.330
2020/01/31 06:06:16.5	93.030	0.590	-0.570	0.330
2020/01/31 06:06:16.6	93.060	0.570	-0.520	0.320
2020/01/31 06:06:16.7	93.080	0.540	-0.470	0.320
2020/01/31 06:06:16.8	93.100	0.510	-0.420	0.320
2020/01/31 06:06:16.9	93.120	0.480	-0.360	0.320
2020/01/31 06:06:17.0	93.140	0.440	-0.290	0.330
2020/01/31 06:06:17.1	93.150	0.400	-0.230	0.340
2020/01/31 06:06:17.2	93.160	0.360	-0.160	0.350
2020/01/31 06:06:17.3	93.170	0.320	-0.090	0.360
2020/01/31 06:06:17.4	93.180	0.280	-0.010	0.380
2020/01/31 06:06:17.5	93.190	0.230	0.060	0.400
2020/01/31 06:06:17.6	93.190	0.180	0.130	0.420
2020/01/31 06:06:17.7	93.190	0.130	0.210	0.450
2020/01/31 06:06:17.8	93.190	0.080	0.280	0.480
2020/01/31 06:06:17.9	93.180	0.030	0.350	0.510
2020/01/31 06:06:18.0	93.180	-0.020	0.420	0.540
2020/01/31 06:06:18.1	93.170	-0.070	0.480	0.580
2020/01/31 06:06:18.2	93.160	-0.120	0.540	0.610
2020/01/31 06:06:18.3	93.140	-0.170	0.600	0.650
2020/01/31 06:06:18.4	93.130	-0.220	0.650	0.690
2020/01/31 06:06:18.5	93.110	-0.270	0.700	0.730
2020/01/31 06:06:18.6	93.090	-0.320	0.740	0.770
2020/01/31 06:06:18.7	93.080	-0.360	0.780	0.810
2020/01/31 06:06:18.8	93.060	-0.410	0.800	0.850
2020/01/31 06:06:18.9	93.040	-0.450	0.820	0.880
2020/01/31 06:06:19.0	93.020	-0.490	0.830	0.920
2020/01/31 06:06:19.1	93.000	-0.530	0.840	0.960
2020/01/31 06:06:19.2	92.980	-0.560	0.830	0.990
2020/01/31 06:06:19.3	92.960	-0.590	0.820	1.030
2020/01/31 06:06:19.4	92.950	-0.620	0.800	1.060
2020/01/31 06:06:19.5	92.930	-0.640	0.770	1.100
2020/01/31 06:06:19.6	92.910	-0.660	0.730	1.130
2020/01/31 06:06:19.7	92.900	-0.680	0.690	1.170
2020/01/31 06:06:19.8	92.880	-0.690	0.630	1.200
2020/01/31 06:06:19.9	92.870	-0.700	0.580	1.230
2020/01/31 06:06:20.0	92.860	-0.710	0.510	1.260
2020/01/31 06:06:20.1	92.850	-0.710	0.440	1.290
2020/01/31 06:06:20.2	92.840	-0.710	0.360	1.320
2020/01/31 06:06:20.3	92.830	-0.700	0.280	1.340
2020/01/31 06:06:20.4	92.820	-0.690	0.200	1.370
2020/01/31 06:06:20.5	92.810	-0.680	0.110	1.400
2020/01/31 06:06:20.6	92.800	-0.660	0.020	1.420
2020/01/31 06:06:20.7	92.800	-0.640	-0.060	1.450
2020/01/31 06:06:20.8	92.790	-0.620	-0.150	1.470
2020/01/31 06:06:20.9	92.790	-0.600	-0.240	1.490
2020/01/31 06:06:21.0	92.790	-0.570	-0.330	1.500
2020/01/31 06:06:21.1	92.790	-0.540	-0.410	1.520
2020/01/31 06:06:21.2	92.800	-0.510	-0.500	1.530
2020/01/31 06:06:21.3	92.800	-0.480	-0.570	1.540
2020/01/31 06:06:21.4	92.800	-0.450	-0.640	1.540
2020/01/31 06:06:21.5	92.810	-0.420	-0.710	1.550
2020/01/31 06:06:21.6	92.820	-0.390	-0.770	1.550
2020/01/31 06:06:21.7	92.830	-0.360	-0.820	1.550
2020/01/31 06:06:21.8	92.840	-0.330	-0.870	1.540
2020/01/31 06:06:21.9	92.850	-0.300	-0.910	1.530
2020/01/31 06:06:22.0	92.860	-0.270	-0.940	1.520
2020/01/31 06:06:22.1	92.870	-0.240	-0.960	1.510
2020/01/31 06:06:22.2	92.880	-0.220	-0.980	1.500
2020/01/31 06:06:22.3	92.890	-0.190	-0.990	1.480
2020/01/31 06:06:22.4	92.910	-0.170	-1.000	1.460
2020/01/31 06:06:22.5	92.920	-0.140	-0.990	1.440
2020/01/31 06:06:22.6	92.930	-0.120	-0.990	1.420
2020/01/31 06:06:22.7	92.950	-0.100	-0.970	1.390
2020/01/31 06:06:22.8	92.960	-0.090	-0.950	1.370
2020/01/31 06:06:22.9	92.970	-0.070	-0.920	1.340
2020/01/31 06:06:23.0	92.980	-0.050	-0.890	1.320
2020/01/31 06:06:23.1	92.990	-0.040	-0.860	1.290
2020/01/31 06:06:23.2	93.000	-0.030	-0.820	1.260
2020/01/31 06:06:23.3	93.010	-0.020	-0.770	1.230
2020/01/31 06:06:23.4	93.020	-0.010	-0.730	1.200
2020/01/31 06:06:23.5	93.030	0.000	-0.680	1.160
2020/01/31 06:06:23.6	93.030	0.010	-0.630	1.130
2020/01/31 06:06:23.7	93.040	0.020	-0.580	1.100
2020/01/31 06:06:23.8	93.040	0.030	-0.530	1.070
2020/01/31 06:06:23.9	93.040	0.040	-0.470	1.040
2020/01/31 06:06:24.0	93.040	0.040	-0.420	1.010
2020/01/31 06:06:24.1	93.040	0.050	-0.370	0.980
2020/01/31 06:06:24.2	93.040	0.050	-0.310	0.950
2020/01/31 06:06:24.3	93.040	0.060	-0.260	0.930
2020/01/31 06:06:24.4	93.030	0.060	-0.210	0.900
2020/01/31 06:06:24.5	93.030	0.070	-0.150	0.880
2020/01/31 06:06:24.6	93.020	0.070	-0.100	0.860
2020/01/31 06:06:24.7	93.010	0.080	-0.060	0.840
2020/01/31 06:06:24.8	92.990	0.080	-0.010	0.820
2020/01/31 06:06:24.9	92.980	0.090	0.030	0.800
2020/01/31 06:06:25.0	92.960	0.090	0.070	0.780
2020/01/31 06:06:25.1	92.940	0.090	0.110	0.770
2020/01/31 06:06:25.2	92.930	0.100	0.150	0.750
2020/01/31 06:06:25.3	92.910	0.100	0.180	0.740
2020/01/31 06:06:25.4	92.890	0.110	0.210	0.730
2020/01/31 06:06:25.5	92.870	0.110	0.230	0.720
2020/01/31 06:06:25.6	92.850	0.110	0.260	0.710
2020/01/31 06:06:25.7	92.830	0.110	0.270	0.700
2020/01/31 06:06:25.8	92.810	0.120	0.290	0.700
2020/01/31 06:06:25.9	92.790	0.120	0.300	0.690
2020/01/31 06:06:26.0	92.770	0.120	0.300	0.680
2020/01/31 06:06:26.1	92.750	0.130	0.300	0.670
2020/01/31 06:06:26.2	92.730	0.130	0.300	0.660
2020/01/31 06:06:26.3	92.720	0.130	0.300	0.650
2020/01/31 06:06:26.4	92.700	0.130	0.290	0.640
2020/01/31 06:06:26.5	92.690	0.140	0.270	0.620
2020/01/31 06:06:26.6	92.680	0.140	0.250	0.600
2020/01/31 06:06:26.7	92.670	0.140	0.230	0.580
2020/01/31 06:06:26.8	92.660	0.140	0.210	0.560
2020/01/31 06:06:26.9	92.650	0.150	0.190	0.540
2020/01/31 06:06:27.0	92.650	0.150	0.160	0.510
2020/01/31 06:06:27.1	92.640	0.150	0.130	0.490
2020/01/31 06:06:27.2	92.630	0.150	0.090	0.450
2020/01/31 06:06:27.3	92.630	0.160	0.060	0.420
2020/01/31 06:06:27.4	92.630	0.160	0.030	0.400
2020/01/31 06:06:27.5	92.630	0.160	-0.010	0.370
2020/01/31 06:06:27.6	92.630	0.160	-0.040	0.340
2020/01/31 06:06:27.7	92.630	0.170	-0.080	0.310
2020/01/31 06:06:27.8	92.630	0.170	-0.110	0.280
2020/01/31 06:06:27.9	92.640	0.170	-0.150	0.250
2020/01/31 06:06:28.0	92.640	0.180	-0.190	0.220
2020/01/31 06:06:28.1	92.650	0.180	-0.220	0.200
2020/01/31 06:06:28.2	92.660	0.190	-0.260	0.170
2020/01/31 06:06:28.3	92.660	0.190	-0.300	0.150
2020/01/31 06:06:28.4	92.670	0.200	-0.330	0.120
2020/01/31 06:06:28.5	92.680	0.200	-0.370	0.100
2020/01/31 06:06:28.6	92.690	0.210	-0.400	0.080
2020/01/31 06:06:28.7	92.700	0.220	-0.440	0.060
2020/01/31 06:06:28.8	92.710	0.230	-0.470	0.050
2020/01/31 06:06:28.9	92.730	0.230	-0.500	0.030
2020/01/31 06:06:29.0	92.740	0.240	-0.530	0.020
2020/01/31 06:06:29.1	92.760	0.250	-0.560	0.010
2020/01/31 06:06:29.2	92.770	0.260	-0.580	-0.010
2020/01/31 06:06:29.3	92.790	0.270	-0.610	-0.010
2020/01/31 06:06:29.4	92.810	0.280	-0.630	-0.010
2020/01/31 06:06:29.5	92.820	0.290	-0.650	-0.010
2020/01/31 06:06:29.6	92.840	0.300	-0.660	-0.010
2020/01/31 06:06:29.7	92.860	0.310	-0.670	-0.010
2020/01/31 06:06:29.8	92.870	0.310	-0.680	0.000
2020/01/31 06:06:29.9	92.890	0.320	-0.680	0.020
2020/01/31 06:06:30.0	92.900	0.320	-0.680	0.030
2020/01/31 06:06:30.1	92.910	0.330	-0.680	0.050
2020/01/31 06:06:30.2	92.920	0.330	-0.660	0.070
2020/01/31 06:06:30.3	92.930	0.330	-0.650	0.100
2020/01/31 06:06:30.4	92.940	0.330	-0.630	0.130
2020/01/31 06:06:30.5	92.940	0.330	-0.600	0.160
2020/01/31 06:06:30.6	92.940	0.320	-0.570	0.190
2020/01/31 06:06:30.7	92.930	0.310	-0.540	0.220
2020/01/31 06:06:30.8	92.930	0.300	-0.500	0.260
2020/01/31 06:06:30.9	92.920	0.290	-0.460	0.300
2020/01/31 06:06:31.0	92.910	0.280	-0.410	0.340
2020/01/31 06:06:31.1	92.890	0.260	-0.360	0.380
2020/01/31 06:06:31.2	92.880	0.240	-0.310	0.420
2020/01/31 06:06:31.3	92.850	0.220	-0.250	0.460
2020/01/31 06:06:31.4	92.830	0.200	-0.200	0.510
2020/01/31 06:06:31.5	92.810	0.180	-0.140	0.550
2020/01/31 06:06:31.6	92.790	0.150	-0.090	0.600
2020/01/31 06:06:31.7	92.770	0.130	-0.030	0.640
2020/01/31 06:06:31.8	92.750	0.100	0.030	0.690
2020/01/31 06:06:31.9	92.720	0.070	0.080	0.740
2020/01/31 06:06:32.0	92.700	0.040	0.140	0.780
2020/01/31 06:06:32.1	92.680	0.020	0.190	0.820
2020/01/31 06:06:32.2	92.670	-0.010	0.240	0.870
2020/01/31 06:06:32.3	92.650	-0.040	0.280	0.910
2020/01/31 06:06:32.4	92.630	-0.070	0.320	0.950
2020/01/31 06:06:32.5	92.610	-0.100	0.360	0.990
2020/01/31 06:06:32.6	92.600	-0.120	0.390	1.020
2020/01/31 06:06:32.7	92.590	-0.150	0.420	1.060
2020/01/31 06:06:32.8	92.580	-0.170	0.440	1.090
2020/01/31 06:06:32.9	92.580	-0.190	0.460	1.120
2020/01/31 06:06:33.0	92.580	-0.210	0.470	1.140
2020/01/31 06:06:33.1	92.580	-0.230	0.480	1.170
2020/01/31 06:06:33.2	92.580	-0.250	0.480	1.180
2020/01/31 06:06:33.3	92.590	-0.260	0.480	1.200
2020/01/31 06:06:33.4	92.600	-0.270	0.480	1.210
2020/01/31 06:06:33.5	92.610	-0.280	0.460	1.230
2020/01/31 06:06:33.6	92.620	-0.290	0.450	1.240
2020/01/31 06:06:33.7	92.640	-0.290	0.430	1.240
2020/01/31 06:06:33.8	92.650	-0.290	0.400	1.250
2020/01/31 06:06:33.9	92.670	-0.290	0.370	1.250
2020/01/31 06:06:34.0	92.690	-0.290	0.340	1.260
2020/01/31 06:06:34.1	92.710	-0.290	0.310	1.260
2020/01/31 06:06:34.2	92.730	-0.280	0.270	1.260
2020/01/31 06:06:34.3	92.740	-0.270	0.230	1.260
2020/01/31 06:06:34.4	92.760	-0.260	0.180	1.260
2020/01/31 06:06:34.5	92.780	-0.250	0.140	1.260
2020/01/31 06:06:34.6	92.790	-0.230	0.090	1.260
2020/01/31 06:06:34.7	92.810	-0.220	0.040	1.260
2020/01/31 06:06:34.8	92.820	-0.200	-0.010	1.260
2020/01/31 06:06:34.9	92.840	-0.180	-0.060	1.250
2020/01/31 06:06:35.0	92.850	-0.160	-0.110	1.250
2020/01/31 06:06:35.1	92.860	-0.140	-0.160	1.250
2020/01/31 06:06:35.2	92.870	-0.130	-0.210	1.230
2020/01/31 06:06:35.3	92.880	-0.110	-0.250	1.230
2020/01/31 06:06:35.4	92.890	-0.090	-0.300	1.220
2020/01/31 06:06:35.5	92.900	-0.070	-0.350	1.210
2020/01/31 06:06:35.6	92.910	-0.050	-0.390	1.200
2020/01/31 06:06:35.7	92.920	-0.040	-0.430	1.180
2020/01/31 06:06:35.8	92.930	-0.020	-0.470	1.170
2020/01/31 06:06:35.9	92.940	-0.000	-0.500	1.150
2020/01/31 06:06:36.0	92.950	0.010	-0.540	1.130
2020/01/31 06:06:36.1	92.960	0.020	-0.570	1.110
2020/01/31 06:06:36.2	92.970	0.030	-0.600	1.090
2020/01/31 06:06:36.3	92.990	0.040	-0.620	1.070
2020/01/31 06:06:36.4	93.000	0.050	-0.640	1.050
2020/01/31 06:06:36.5	93.010	0.060	-0.660	1.030
2020/01/31 06:06:36.6	93.010	0.060	-0.680	1.010
2020/01/31 06:06:36.7	93.020	0.070	-0.690	0.990
2020/01/31 06:06:36.8	93.030	0.070	-0.690	0.970
2020/01/31 06:06:36.9	93.040	0.070	-0.700	0.950
2020/01/31 06:06:37.0	93.040	0.070	-0.700	0.940
2020/01/31 06:06:37.1	93.040	0.070	-0.690	0.930
2020/01/31 06:06:37.2	93.050	0.070	-0.680	0.920
2020/01/31 06:06:37.3	93.040	0.060	-0.670	0.920
2020/01/31 06:06:37.4	93.040	0.060	-0.660	0.910
2020/01/31 06:06:37.5	93.030	0.050	-0.640	0.910
2020/01/31 06:06:37.6	93.020	0.040	-0.610	0.920
2020/01/31 06:06:37.7	93.010	0.030	-0.590	0.920
2020/01/31 06:06:37.8	93.000	0.020	-0.560	0.930
2020/01/31 06:06:37.9	92.990	0.010	-0.530	0.950
2020/01/31 06:06:38.0	92.970	-0.000	-0.490	0.960
2020/01/31 06:06:38.1	92.950	-0.010	-0.450	0.970
2020/01/31 06:06:38.2	92.940	-0.030	-0.410	0.990
2020/01/31 06:06:38.3	92.920	-0.050	-0.360	1.010
2020/01/31 06:06:38.4	92.900	-0.060	-0.320	1.030
2020/01/31 06:06:38.5	92.880	-0.080	-0.270	1.050
2020/01/31 06:06:38.6	92.870	-0.100	-0.220	1.070
2020/01/31 06:06:38.7	92.850	-0.120	-0.170	1.080
2020/01/31 06:06:38.8	92.830	-0.130	-0.130	1.100
2020/01/31 06:06:38.9	92.810	-0.150	-0.080	1.120
2020/01/31 06:06:39.0	92.800	-0.170	-0.030	1.130
2020/01/31 06:06:39.1	92.780	-0.190	0.020	1.140
2020/01/31 06:06:39.2	92.760	-0.210	0.060	1.150
2020/01/31 06:06:39.3	92.750	-0.230	0.100	1.160
2020/01/31 06:06:39.4	92.730	-0.250	0.140	1.160
2020/01/31 06:06:39.5	92.720	-0.270	0.180	1.160
2020/01/31 06:06:39.6	92.710	-0.280	0.220	1.160
2020/01/31 06:06:39.7	92.700	-0.300	0.250	1.160
2020/01/31 06:06:39.8	92.690	-0.310	0.270	1.150
2020/01/31 06:06:39.9	92.690	-0.330	0.290	1.140
2020/01/31 06:06:40.0	92.680	-0.340	0.310	1.130
2020/01/31 06:06:40.1	92.680	-0.350	0.320	1.120
2020/01/31 06:06:40.2	92.670	-0.360	0.330	1.100
2020/01/31 06:06:40.3	92.670	-0.370	0.330	1.080
2020/01/31 06:06:40.4	92.670	-0.370	0.330	1.060
2020/01/31 06:06:40.5	92.670	-0.380	0.320	1.030
2020/01/31 06:06:40.6	92.670	-0.380	0.300	1.000
2020/01/31 06:06:40.7	92.670	-0.380	0.280	0.980
2020/01/31 06:06:40.8	92.680	-0.380	0.260	0.950
2020/01/31 06:06:40.9	92.680	-0.370	0.230	0.920
2020/01/31 06:06:41.0	92.680	-0.370	0.200	0.890
2020/01/31 06:06:41.1	92.690	-0.360	0.160	0.860
2020/01/31 06:06:41.2	92.700	-0.350	0.130	0.830
2020/01/31 06:06:41.3	92.700	-0.340	0.080	0.800
2020/01/31 06:06:41.4	92.710	-0.330	0.040	0.770
2020/01/31 06:06:41.5	92.710	-0.320	-0.000	0.740
2020/01/31 06:06:41.6	92.720	-0.300	-0.050	0.720
2020/01/31 06:06:41.7	92.720	-0.290	-0.100	0.690
2020/01/31 06:06:41.8	92.730	-0.270	-0.140	0.670
2020/01/31 06:06:41.9	92.730	-0.250	-0.190	0.650
2020/01/31 06:06:42.0	92.740	-0.230	-0.230	0.630
2020/01/31 06:06:42.1	92.740	-0.210	-0.280	0.610
2020/01/31 06:06:42.2	92.750	-0.190	-0.320	0.590
2020/01/31 06:06:42.3	92.750	-0.170	-0.360	0.570
2020/01/31 06:06:42.4	92.760	-0.140	-0.400	0.550
2020/01/31 06:06:42.5	92.760	-0.120	-0.430	0.530
2020/01/31 06:06:42.6	92.770	-0.100	-0.460	0.520
2020/01/31 06:06:42.7	92.770	-0.070	-0.490	0.500
2020/01/31 06:06:42.8	92.780	-0.050	-0.510	0.480
2020/01/31 06:06:42.9	92.780	-0.020	-0.530	0.470
2020/01/31 06:06:43.0	92.790	0.000	-0.550	0.450
2020/01/31 06:06:43.1	92.800	0.030	-0.560	0.440
2020/01/31 06:06:43.2	92.790	0.050	-0.570	0.410
2020/01/31 06:06:43.3	92.800	0.080	-0.570	0.400
2020/01/31 06:06:43.4	92.800	0.100	-0.580	0.380
2020/01/31 06:06:43.5	92.810	0.130	-0.570	0.370
2020/01/31 06:06:43.6	92.810	0.150	-0.570	0.350
2020/01/31 06:06:43.7	92.820	0.180	-0.560	0.340
2020/01/31 06:06:43.8	92.820	0.200	-0.550	0.320
2020/01/31 06:06:43.9	92.820	0.220	-0.530	0.300
2020/01/31 06:06:44.0	92.830	0.250	-0.510	0.290
2020/01/31 06:06:44.1	92.830	0.270	-0.490	0.270
2020/01/31 06:06:44.2	92.820	0.290	-0.470	0.250
2020/01/31 06:06:44.3	92.830	0.310	-0.450	0.240
2020/01/31 06:06:44.4	92.830	0.330	-0.420	0.220
2020/01/31 06:06:44.5	92.830	0.350	-0.400	0.210
2020/01/31 06:06:44.6	92.830	0.370	-0.370	0.190
2020/01/31 06:06:44.7	92.830	0.380	-0.340	0.180
2020/01/31 06:06:44.8	92.830	0.400	-0.320	0.160
2020/01/31 06:06:44.9	92.830	0.420	-0.290	0.150
2020/01/31 06:06:45.0	92.830	0.430	-0.260	0.140
2020/01/31 06:06:45.1	92.830	0.440	-0.230	0.130
2020/01/31 06:06:45.2	92.830	0.450	-0.210	0.120
2020/01/31 06:06:45.3	92.820	0.460	-0.180	0.120
2020/01/31 06:06:45.4	92.820	0.470	-0.160	0.110
2020/01/31 06:06:45.5	92.810	0.480	-0.130	0.110
2020/01/31 06:06:45.6	92.810	0.490	-0.110	0.100
2020/01/31 06:06:45.7	92.800	0.490	-0.090	0.100
2020/01/31 06:06:45.8	92.800	0.500	-0.070	0.100
2020/01/31 06:06:45.9	92.800	0.500	-0.050	0.100
2020/01/31 06:06:46.0	92.790	0.500	-0.040	0.100
2020/01/31 06:06:46.1	92.790	0.500	-0.030	0.100
2020/01/31 06:06:46.2	92.790	0.490	-0.010	0.110
2020/01/31 06:06:46.3	92.790	0.490	-0.000	0.110
2020/01/31 06:06:46.4	92.780	0.480	0.010	0.120
2020/01/31 06:06:46.5	92.780	0.470	0.020	0.120
2020/01/31 06:06:46.6	92.780	0.460	0.020	0.130
2020/01/31 06:06:46.7	92.780	0.450	0.030	0.140
2020/01/31 06:06:46.8	92.790	0.430	0.030	0.150
2020/01/31 06:06:46.9	92.790	0.420	0.040	0.160
2020/01/31 06:06:47.0	92.790	0.400	0.040	0.170
2020/01/31 06:06:47.1	92.790	0.380	0.040	0.190
2020/01/31 06:06:47.2	92.790	0.360	0.050	0.200
2020/01/31 06:06:47.3	92.800	0.340	0.050	0.220
2020/01/31 06:06:47.4	92.800	0.310	0.050	0.240
2020/01/31 06:06:47.5	92.810	0.290	0.050	0.270
2020/01/31 06:06:47.6	92.810	0.260	0.050	0.290
2020/01/31 06:06:47.7	92.820	0.240	0.040	0.320
2020/01/31 06:06:47.8	92.820	0.210	0.040	0.350
2020/01/31 06:06:47.9	92.830	0.190	0.040	0.380
2020/01/31 06:06:48.0	92.830	0.160	0.030	0.410
2020/01/31 06:06:48.1	92.840	0.140	0.020	0.450
2020/01/31 06:06:48.2	92.840	0.120	0.010	0.490
2020/01/31 06:06:48.3	92.850	0.090	0.000	0.520
2020/01/31 06:06:48.4	92.850	0.070	-0.010	0.560
2020/01/31 06:06:48.5	92.860	0.050	-0.020	0.600
2020/01/31 06:06:48.6	92.860	0.040	-0.040	0.640
2020/01/31 06:06:48.7	92.870	0.020	-0.050	0.680
2020/01/31 06:06:48.8	92.870	0.000	-0.070	0.720
2020/01/31 06:06:48.9	92.880	-0.010	-0.090	0.760
2020/01/31 06:06:49.0	92.880	-0.020	-0.110	0.800
2020/01/31 06:06:49.1	92.890	-0.030	-0.130	0.840
2020/01/31 06:06:49.2	92.900	-0.040	-0.150	0.880
2020/01/31 06:06:49.3	92.910	-0.050	-0.170	0.910
2020/01/31 06:06:49.4	92.910	-0.060	-0.190	0.950
2020/01/31 06:06:49.5	92.920	-0.060	-0.210	0.980
2020/01/31 06:06:49.6	92.930	-0.070	-0.230	1.010
2020/01/31 06:06:49.7	92.940	-0.070	-0.250	1.050
2020/01/31 06:06:49.8	92.960	-0.080	-0.270	1.080
2020/01/31 06:06:49.9	92.970	-0.080	-0.290	1.110
2020/01/31 06:06:50.0	92.980	-0.080	-0.300	1.140
2020/01/31 06:06:50.1	92.990	-0.090	-0.310	1.170
2020/01/31 06:06:50.2	93.000	-0.090	-0.320	1.200
2020/01/31 06:06:50.3	93.010	-0.090	-0.330	1.240
2020/01/31 06:06:50.4	93.020	-0.100	-0.340	1.270
2020/01/31 06:06:50.5	93.030	-0.100	-0.340	1.300
2020/01/31 06:06:50.6	93.050	-0.110	-0.330	1.330
2020/01/31 06:06:50.7	93.060	-0.120	-0.330	1.370
2020/01/31 06:06:50.8	93.070	-0.120	-0.320	1.400
2020/01/31 06:06:50.9	93.080	-0.130	-0.310	1.440
2020/01/31 06:06:51.0	93.090	-0.140	-0.300	1.470
2020/01/31 06:06:51.1	93.100	-0.150	-0.280	1.510
2020/01/31 06:06:51.2	93.110	-0.160	-0.270	1.540
2020/01/31 06:06:51.3	93.120	-0.170	-0.250	1.580
2020/01/31 06:06:51.4	93.130	-0.190	-0.230	1.620
2020/01/31 06:06:51.5	93.130	-0.200	-0.210	1.650
2020/01/31 06:06:51.6	93.140	-0.210	-0.180	1.690
2020/01/31 06:06:51.7	93.150	-0.230	-0.160	1.720
2020/01/31 06:06:51.8	93.150	-0.240	-0.140	1.760
2020/01/31 06:06:51.9	93.160	-0.260	-0.120	1.790
2020/01/31 06:06:52.0	93.160	-0.270	-0.100	1.820
2020/01/31 06:06:52.1	93.160	-0.280	-0.080	1.850
2020/01/31 06:06:52.2	93.170	-0.300	-0.060	1.880
2020/01/31 06:06:52.3	93.170	-0.310	-0.040	1.910
2020/01/31 06:06:52.4	93.170	-0.320	-0.030	1.930
2020/01/31 06:06:52.5	93.170	-0.330	-0.020	1.960
2020/01/31 06:06:52.6	93.170	-0.340	-0.010	1.970
2020/01/31 06:06:52.7	93.170	-0.340	0.000	1.990
2020/01/31 06:06:52.8	93.180	-0.350	0.010	2.000
2020/01/31 06:06:52.9	93.180	-0.350	0.010	2.010
2020/01/31 06:06:53.0	93.180	-0.350	0.010	2.010
2020/01/31 06:06:53.1	93.180	-0.350	0.000	2.010
2020/01/31 06:06:53.2	93.200	-0.350	-0.010	2.000
2020/01/31 06:06:53.3	93.200	-0.350	-0.010	1.990
2020/01/31 06:06:53.4	93.200	-0.340	-0.020	1.980
2020/01/31 06:06:53.5	93.210	-0.330	-0.030	1.960
2020/01/31 06:06:53.6	93.210	-0.330	-0.040	1.940
2020/01/31 06:06:53.7	93.220	-0.320	-0.060	1.910
2020/01/31 06:06:53.8	93.230	-0.310	-0.070	1.880
2020/01/31 06:06:53.9	93.230	-0.290	-0.080	1.840
2020/01/31 06:06:54.0	93.240	-0.280	-0.100	1.800
2020/01/31 06:06:54.1	93.240	-0.270	-0.110	1.760
2020/01/31 06:06:54.2	93.250	-0.260	-0.120	1.720
2020/01/31 06:06:54.3	93.250	-0.240	-0.130	1.670
2020/01/31 06:06:54.4	93.260	-0.230	-0.140	1.620
2020/01/31 06:06:54.5	93.260	-0.220	-0.150	1.580
2020/01/31 06:06:54.6	93.260	-0.200	-0.160	1.530
2020/01/31 06:06:54.7	93.270	-0.190	-0.160	1.480
2020/01/31 06:06:54.8	93.270	-0.180	-0.170	1.430
2020/01/31 06:06:54.9	93.270	-0.170	-0.170	1.370
2020/01/31 06:06:55.0	93.270	-0.160	-0.170	1.320
2020/01/31 06:06:55.1	93.270	-0.150	-0.170	1.270
2020/01/31 06:06:55.2	93.270	-0.140	-0.170	1.220
2020/01/31 06:06:55.3	93.270	-0.130	-0.170	1.170
2020/01/31 06:06:55.4	93.270	-0.130	-0.160	1.110
2020/01/31 06:06:55.5	93.270	-0.120	-0.160	1.060
2020/01/31 06:06:55.6	93.270	-0.110	-0.150	1.010
2020/01/31 06:06:55.7	93.270	-0.110	-0.150	0.950
2020/01/31 06:06:55.8	93.270	-0.110	-0.140	0.900
2020/01/31 06:06:55.9	93.270	-0.100	-0.140	0.840
2020/01/31 06:06:56.0	93.270	-0.100	-0.130	0.790
2020/01/31 06:06:56.1	93.270	-0.100	-0.120	0.730
2020/01/31 06:06:56.2	93.270	-0.100	-0.110	0.670
2020/01/31 06:06:56.3	93.280	-0.100	-0.110	0.610
2020/01/31 06:06:56.4	93.280	-0.100	-0.110	0.550
2020/01/31 06:06:56.5	93.290	-0.100	-0.100	0.500
2020/01/31 06:06:56.6	93.290	-0.100	-0.100	0.440
2020/01/31 06:06:56.7	93.300	-0.100	-0.100	0.380
2020/01/31 06:06:56.8	93.310	-0.100	-0.110	0.320
2020/01/31 06:06:56.9	93.320	-0.090	-0.110	0.260
2020/01/31 06:06:57.0	93.330	-0.090	-0.120	0.200
2020/01/31 06:06:57.1	93.340	-0.090	-0.130	0.140
2020/01/31 06:06:57.2	93.360	-0.090	-0.140	0.090
2020/01/31 06:06:57.3	93.370	-0.080	-0.150	0.030
2020/01/31 06:06:57.4	93.380	-0.070	-0.160	-0.020
2020/01/31 06:06:57.5	93.390	-0.070	-0.180	-0.070
2020/01/31 06:06:57.6	93.400	-0.060	-0.200	-0.120
2020/01/31 06:06:57.7	93.410	-0.050	-0.210	-0.160
2020/01/31 06:06:57.8	93.420	-0.040	-0.230	-0.200
2020/01/31 06:06:57.9	93.430	-0.030	-0.250	-0.240
2020/01/31 06:06:58.0	93.440	-0.020	-0.270	-0.270
2020/01/31 06:06:58.1	93.450	-0.000	-0.290	-0.300
2020/01/31 06:06:58.2	93.440	0.010	-0.310	-0.330
2020/01/31 06:06:58.3	93.440	0.030	-0.330	-0.350
2020/01/31 06:06:58.4	93.440	0.040	-0.350	-0.370
2020/01/31 06:06:58.5	93.440	0.060	-0.370	-0.390
2020/01/31 06:06:58.6	93.440	0.080	-0.390	-0.400
2020/01/31 06:06:58.7	93.430	0.090	-0.410	-0.410
2020/01/31 06:06:58.8	93.420	0.110	-0.430	-0.410
2020/01/31 06:06:58.9	93.420	0.130	-0.440	-0.410
2020/01/31 06:06:59.0	93.400	0.140	-0.460	-0.410
2020/01/31 06:06:59.1	93.390	0.160	-0.470	-0.400
2020/01/31 06:06:59.2	93.380	0.180	-0.480	-0.390
2020/01/31 06:06:59.3	93.360	0.200	-0.490	-0.380
2020/01/31 06:06:59.4	93.350	0.210	-0.490	-0.370
2020/01/31 06:06:59.5	93.330	0.230	-0.500	-0.350
2020/01/31 06:06:59.6	93.320	0.240	-0.500	-0.330
2020/01/31 06:06:59.7	93.300	0.260	-0.500	-0.310
2020/01/31 06:06:59.8	93.290	0.270	-0.500	-0.300
2020/01/31 06:06:59.9	93.270	0.280	-0.490	-0.280
2020/01/31 06:07:00.0	93.260	0.290	-0.490	-0.260
2020/01/31 06:07:00.1	93.250	0.300	-0.480	-0.240
2020/01/31 06:07:00.2	93.240	0.310	-0.470	-0.220
2020/01/31 06:07:00.3	93.230	0.320	-0.460	-0.200
2020/01/31 06:07:00.4	93.230	0.330	-0.450	-0.180
2020/01/31 06:07:00.5	93.230	0.340	-0.440	-0.160
2020/01/31 06:07:00.6	93.230	0.340	-0.420	-0.140
2020/01/31 06:07:00.7	93.240	0.350	-0.400	-0.120
2020/01/31 06:07:00.8	93.250	0.350	-0.390	-0.100
2020/01/31 06:07:00.9	93.260	0.350	-0.370	-0.080
2020/01/31 06:07:01.0	93.270	0.350	-0.350	-0.060
2020/01/31 06:07:01.1	93.280	0.350	-0.330	-0.040
2020/01/31 06:07:01.2	93.300	0.350	-0.310	-0.010
2020/01/31 06:07:01.3	93.320	0.350	-0.290	0.010
2020/01/31 06:07:01.4	93.340	0.350	-0.270	0.040
2020/01/31 06:07:01.5	93.360	0.340	-0.240	0.060
2020/01/31 06:07:01.6	93.380	0.340	-0.220	0.090
2020/01/31 06:07:01.7	93.400	0.330	-0.190	0.130
2020/01/31 06:07:01.8	93.420	0.320	-0.170	0.160
2020/01/31 06:07:01.9	93.440	0.310	-0.140	0.200
2020/01/31 06:07:02.0	93.460	0.300	-0.110	0.240
2020/01/31 06:07:02.1	93.480	0.280	-0.090	0.280
2020/01/31 06:07:02.2	93.500	0.270	-0.060	0.320
2020/01/31 06:07:02.3	93.520	0.250	-0.030	0.360
2020/01/31 06:07:02.4	93.540	0.240	-0.000	0.400
2020/01/31 06:07:02.5	93.560	0.220	0.030	0.450
2020/01/31 06:07:02.6	93.570	0.200	0.050	0.490
2020/01/31 06:07:02.7	93.590	0.180	0.080	0.540
2020/01/31 06:07:02.8	93.610	0.160	0.110	0.580
2020/01/31 06:07:02.9	93.630	0.140	0.140	0.630
2020/01/31 06:07:03.0	93.640	0.120	0.160	0.670
2020/01/31 06:07:03.1	93.660	0.100	0.190	0.710
2020/01/31 06:07:03.2	93.680	0.070	0.210	0.750
2020/01/31 06:07:03.3	93.690	0.050	0.230	0.790
2020/01/31 06:07:03.4	93.710	0.030	0.250	0.830
2020/01/31 06:07:03.5	93.720	0.010	0.270	0.870
2020/01/31 06:07:03.6	93.740	-0.010	0.280	0.910
2020/01/31 06:07:03.7	93.750	-0.030	0.300	0.940
2020/01/31 06:07:03.8	93.760	-0.050	0.310	0.980
2020/01/31 06:07:03.9	93.780	-0.070	0.320	1.010
2020/01/31 06:07:04.0	93.790	-0.080	0.320	1.050
2020/01/31 06:07:04.1	93.800	-0.100	0.320	1.080
2020/01/31 06:07:04.2	93.810	-0.110	0.320	1.110
2020/01/31 06:07:04.3	93.820	-0.120	0.310	1.150
2020/01/31 06:07:04.4	93.820	-0.130	0.310	1.180
2020/01/31 06:07:04.5	93.830	-0.140	0.290	1.210
2020/01/31 06:07:04.6	93.830	-0.140	0.280	1.240
2020/01/31 06:07:04.7	93.830	-0.150	0.260	1.280
2020/01/31 06:07:04.8	93.830	-0.150	0.240	1.310
2020/01/31 06:07:04.9	93.830	-0.150	0.210	1.340
2020/01/31 06:07:05.0	93.820	-0.150	0.180	1.370
2020/01/31 06:07:05.1	93.820	-0.140	0.150	1.400
2020/01/31 06:07:05.2	93.810	-0.140	0.120	1.430
2020/01/31 06:07:05.3	93.800	-0.130	0.080	1.460
2020/01/31 06:07:05.4	93.790	-0.120	0.050	1.490
2020/01/31 06:07:05.5	93.780	-0.110	0.010	1.520
2020/01/31 06:07:05.6	93.770	-0.100	-0.030	1.550
2020/01/31 06:07:05.7	93.760	-0.090	-0.080	1.570
2020/01/31 06:07:05.8	93.750	-0.080	-0.120	1.600
2020/01/31 06:07:05.9	93.740	-0.070	-0.160	1.620
2020/01/31 06:07:06.0	93.730	-0.060	-0.200	1.650
2020/01/31 06:07:06.1	93.720	-0.040	-0.250	1.670
2020/01/31 06:07:06.2	93.710	-0.030	-0.290	1.690
2020/01/31 06:07:06.3	93.700	-0.020	-0.330	1.710
2020/01/31 06:07:06.4	93.690	-0.010	-0.360	1.720
2020/01/31 06:07:06.5	93.680	0.000	-0.400	1.740
2020/01/31 06:07:06.6	93.670	0.010	-0.430	1.760
2020/01/31 06:07:06.7	93.670	0.020	-0.460	1.770
2020/01/31 06:07:06.8	93.660	0.030	-0.490	1.790
2020/01/31 06:07:06.9	93.650	0.040	-0.520	1.800
2020/01/31 06:07:07.0	93.640	0.040	-0.540	1.810
2020/01/31 06:07:07.1	93.640	0.050	-0.560	1.830
2020/01/31 06:07:07.2	93.630	0.050	-0.580	1.830
2020/01/31 06:07:07.3	93.630	0.060	-0.590	1.840
2020/01/31 06:07:07.4	93.620	0.060	-0.600	1.850
2020/01/31 06:07:07.5	93.620	0.060	-0.610	1.850
2020/01/31 06:07:07.6	93.620	0.060	-0.610	1.850
2020/01/31 06:07:07.7	93.610	0.060	-0.610	1.850
2020/01/31 06:07:07.8	93.610	0.060	-0.610	1.850
2020/01/31 06:07:07.9	93.610	0.050	-0.600	1.840
2020/01/31 06:07:08.0	93.610	0.050	-0.590	1.830
2020/01/31 06:07:08.1	93.610	0.040	-0.580	1.820
2020/01/31 06:07:08.2	93.600	0.040	-0.560	1.810
2020/01/31 06:07:08.3	93.600	0.030	-0.540	1.790
2020/01/31 06:07:08.4	93.610	0.020	-0.520	1.770
2020/01/31 06:07:08.5	93.610	0.010	-0.500	1.740
2020/01/31 06:07:08.6	93.610	0.000	-0.470	1.710
2020/01/31 06:07:08.7	93.610	-0.010	-0.430	1.680
2020/01/31 06:07:08.8	93.620	-0.020	-0.400	1.640
2020/01/31 06:07:08.9	93.630	-0.040	-0.360	1.600
2020/01/31 06:07:09.0	93.640	-0.060	-0.320	1.560
2020/01/31 06:07:09.1	93.650	-0.070	-0.280	1.510
2020/01/31 06:07:09.2	93.650	-0.090	-0.230	1.460
2020/01/31 06:07:09.3	93.670	-0.110	-0.190	1.410
2020/01/31 06:07:09.4	93.680	-0.130	-0.140	1.360
2020/01/31 06:07:09.5	93.690	-0.160	-0.090	1.300
2020/01/31 06:07:09.6	93.710	-0.180	-0.040	1.240
2020/01/31 06:07:09.7	93.720	-0.200	0.010	1.180
2020/01/31 06:07:09.8	93.740	-0.230	0.060	1.130
2020/01/31 06:07:09.9	93.760	-0.250	0.110	1.070
2020/01/31 06:07:10.0	93.780	-0.280	0.160	1.010
2020/01/31 06:07:10.1	93.790	-0.310	0.200	0.950
2020/01/31 06:07:10.2	93.810	-0.330	0.250	0.890
2020/01/31 06:07:10.3	93.830	-0.360	0.290	0.840
2020/01/31 06:07:10.4	93.850	-0.390	0.330	0.780
2020/01/31 06:07:10.5	93.860	-0.410	0.370	0.730
2020/01/31 06:07:10.6	93.880	-0.430	0.400	0.680
2020/01/31 06:07:10.7	93.900	-0.460	0.430	0.640
2020/01/31 06:07:10.8	93.920	-0.480	0.450	0.590
2020/01/31 06:07:10.9	93.930	-0.500	0.470	0.550
2020/01/31 06:07:11.0	93.950	-0.520	0.480	0.500
2020/01/31 06:07:11.1	93.960	-0.530	0.480	0.460
2020/01/31 06:07:11.2	93.980	-0.540	0.480	0.420
2020/01/31 06:07:11.3	93.990	-0.550	0.470	0.390
2020/01/31 06:07:11.4	94.000	-0.560	0.460	0.350
2020/01/31 06:07:11.5	94.020	-0.560	0.440	0.320
2020/01/31 06:07:11.6	94.030	-0.560	0.420	0.290
2020/01/31 06:07:11.7	94.050	-0.560	0.390	0.260
2020/01/31 06:07:11.8	94.060	-0.550	0.350	0.230
2020/01/31 06:07:11.9	94.070	-0.540	0.300	0.200
2020/01/31 06:07:12.0	94.080	-0.530	0.260	0.180
2020/01/31 06:07:12.1	94.090	-0.510	0.200	0.150
2020/01/31 06:07:12.2	94.100	-0.490	0.150	0.140
2020/01/31 06:07:12.3	94.100	-0.470	0.080	0.120
2020/01/31 06:07:12.4	94.110	-0.440	0.020	0.100
2020/01/31 06:07:12.5	94.110	-0.410	-0.050	0.080
2020/01/31 06:07:12.6	94.110	-0.370	-0.130	0.070
2020/01/31 06:07:12.7	94.110	-0.340	-0.200	0.060
2020/01/31 06:07:12.8	94.100	-0.300	-0.280	0.050
2020/01/31 06:07:12.9	94.100	-0.250	-0.360	0.040
2020/01/31 06:07:13.0	94.090	-0.210	-0.430	0.040
2020/01/31 06:07:13.1	94.090	-0.160	-0.510	0.030
2020/01/31 06:07:13.2	94.080	-0.110	-0.590	0.030
2020/01/31 06:07:13.3	94.070	-0.060	-0.660	0.030
2020/01/31 06:07:13.4	94.060	-0.010	-0.730	0.040
2020/01/31 06:07:13.5	94.040	0.040	-0.790	0.040
2020/01/31 06:07:13.6	94.030	0.090	-0.860	0.050
2020/01/31 06:07:13.7	94.020	0.140	-0.910	0.050
2020/01/31 06:07:13.8	94.000	0.180	-0.960	0.060
2020/01/31 06:07:13.9	93.990	0.230	-1.010	0.070
2020/01/31 06:07:14.0	93.970	0.280	-1.040	0.090
2020/01/31 06:07:14.1	93.960	0.320	-1.080	0.100
2020/01/31 06:07:14.2	93.930	0.360	-1.100	0.120
2020/01/31 06:07:14.3	93.920	0.400	-1.110	0.130
2020/01/31 06:07:14.4	93.900	0.430	-1.120	0.150
2020/01/31 06:07:14.5	93.880	0.460	-1.120	0.170
2020/01/31 06:07:14.6	93.870	0.490	-1.110	0.190
2020/01/31 06:07:14.7	93.850	0.510	-1.100	0.210
2020/01/31 06:07:14.8	93.840	0.530	-1.080	0.230
2020/01/31 06:07:14.9	93.830	0.540	-1.040	0.250
2020/01/31 06:07:15.0	93.820	0.550	-1.010	0.280
2020/01/31 06:07:15.1	93.810	0.560	-0.960	0.300
2020/01/31 06:07:15.2	93.800	0.560	-0.910	0.330
2020/01/31 06:07:15.3	93.800	0.560	-0.850	0.350
2020/01/31 06:07:15.4	93.790	0.550	-0.790	0.370
2020/01/31 06:07:15.5	93.790	0.540	-0.720	0.400
2020/01/31 06:07:15.6	93.780	0.530	-0.650	0.420
2020/01/31 06:07:15.7	93.780	0.510	-0.580	0.440
2020/01/31 06:07:15.8	93.780	0.490	-0.500	0.470
2020/01/31 06:07:15.9	93.780	0.460	-0.420	0.490
2020/01/31 06:07:16.0	93.790	0.430	-0.330	0.510
2020/01/31 06:07:16.1	93.790	0.400	-0.250	0.540
2020/01/31 06:07:16.2	93.790	0.370	-0.160	0.550
2020/01/31 06:07:16.3	93.790	0.340	-0.080	0.580
2020/01/31 06:07:16.4	93.800	0.300	0.010	0.600
2020/01/31 06:07:16.5	93.800	0.270	0.090	0.630
2020/01/31 06:07:16.6	93.800	0.230	0.170	0.650
2020/01/31 06:07:16.7	93.800	0.190	0.240	0.670
2020/01/31 06:07:16.8	93.800	0.160	0.320	0.700
2020/01/31 06:07:16.9	93.800	0.120	0.380	0.720
2020/01/31 06:07:17.0	93.800	0.090	0.450	0.740
2020/01/31 06:07:17.1	93.800	0.060	0.510	0.760
2020/01/31 06:07:17.2	93.800	0.020	0.560	0.780
2020/01/31 06:07:17.3	93.790	-0.010	0.610	0.790
2020/01/31 06:07:17.4	93.790	-0.030	0.650	0.810
2020/01/31 06:07:17.5	93.790	-0.060	0.690	0.820
2020/01/31 06:07:17.6	93.790	-0.080	0.720	0.830
2020/01/31 06:07:17.7	93.790	-0.100	0.740	0.840
2020/01/31 06:07:17.8	93.780	-0.120	0.750	0.850
2020/01/31 06:07:17.9	93.780	-0.130	0.750	0.850
2020/01/31 06:07:18.0	93.780	-0.140	0.750	0.860
2020/01/31 06:07:18.1	93.780	-0.150	0.740	0.860
2020/01/31 06:07:18.2	93.780	-0.150	0.720	0.860
2020/01/31 06:07:18.3	93.790	-0.160	0.690	0.860
2020/01/31 06:07:18.4	93.790	-0.160	0.660	0.860
2020/01/31 06:07:18.5	93.790	-0.150	0.620	0.850
2020/01/31 06:07:18.6	93.800	-0.140	0.580	0.850
2020/01/31 06:07:18.7	93.800	-0.130	0.530	0.840
2020/01/31 06:07:18.8	93.810	-0.120	0.470	0.840
2020/01/31 06:07:18.9	93.810	-0.110	0.410	0.830
2020/01/31 06:07:19.0	93.820	-0.090	0.340	0.830
2020/01/31 06:07:19.1	93.830	-0.070	0.270	0.820
2020/01/31 06:07:19.2	93.850	-0.050	0.190	0.820
2020/01/31 06:07:19.3	93.860	-0.020	0.120	0.810
2020/01/31 06:07:19.4	93.870	-0.000	0.040	0.800
2020/01/31 06:07:19.5	93.880	0.020	-0.040	0.800
2020/01/31 06:07:19.6	93.890	0.050	-0.110	0.800
2020/01/31 06:07:19.7	93.910	0.080	-0.190	0.790
2020/01/31 06:07:19.8	93.920	0.100	-0.270	0.790
2020/01/31 06:07:19.9	93.930	0.130	-0.340	0.790
2020/01/31 06:07:20.0	93.940	0.150	-0.410	0.790
2020/01/31 06:07:20.1	93.960	0.180	-0.480	0.790
2020/01/31 06:07:20.2	93.970	0.200	-0.540	0.790
2020/01/31 06:07:20.3	93.980	0.220	-0.600	0.790
2020/01/31 06:07:20.4	94.000	0.240	-0.650	0.800
2020/01/31 06:07:20.5	94.010	0.260	-0.700	0.800
2020/01/31 06:07:20.6	94.020	0.270	-0.740	0.810
2020/01/31 06:07:20.7	94.040	0.280	-0.770	0.810
2020/01/31 06:07:20.8	94.050	0.290	-0.800	0.820
2020/01/31 06:07:20.9	94.070	0.300	-0.810	0.830
2020/01/31 06:07:21.0	94.080	0.300	-0.820	0.840
2020/01/31 06:07:21.1	94.090	0.310	-0.830	0.850
2020/01/31 06:07:21.2	94.110	0.300	-0.820	0.860
2020/01/31 06:07:21.3	94.120	0.300	-0.810	0.870
2020/01/31 06:07:21.4	94.140	0.290	-0.790	0.880
2020/01/31 06:07:21.5	94.150	0.280	-0.760	0.890
2020/01/31 06:07:21.6	94.160	0.260	-0.730	0.910
2020/01/31 06:07:21.7	94.170	0.240	-0.690	0.920
2020/01/31 06:07:21.8	94.180	0.220	-0.650	0.940
2020/01/31 06:07:21.9	94.200	0.200	-0.600	0.950
2020/01/31 06:07:22.0	94.200	0.180	-0.550	0.970
2020/01/31 06:07:22.1	94.210	0.150	-0.490	0.990
2020/01/31 06:07:22.2	94.230	0.120	-0.430	1.010
2020/01/31 06:07:22.3	94.230	0.090	-0.370	1.030
2020/01/31 06:07:22.4	94.240	0.060	-0.310	1.050
2020/01/31 06:07:22.5	94.240	0.030	-0.250	1.060
2020/01/31 06:07:22.6	94.240	-0.000	-0.190	1.080
2020/01/31 06:07:22.7	94.240	-0.030	-0.130	1.100
2020/01/31 06:07:22.8	94.240	-0.070	-0.070	1.120
2020/01/31 06:07:22.9	94.240	-0.100	-0.020	1.140
2020/01/31 06:07:23.0	94.230	-0.130	0.040	1.160
2020/01/31 06:07:23.1	94.230	-0.160	0.090	1.170
2020/01/31 06:07:23.2	94.220	-0.190	0.140	1.190
2020/01/31 06:07:23.3	94.220	-0.210	0.180	1.200
2020/01/31 06:07:23.4	94.210	-0.240	0.220	1.210
2020/01/31 06:07:23.5	94.200	-0.260	0.260	1.230
2020/01/31 06:07:23.6	94.190	-0.280	0.290	1.230
2020/01/31 06:07:23.7	94.180	-0.300	0.310	1.240
2020/01/31 06:07:23.8	94.170	-0.320	0.330	1.250
2020/01/31 06:07:23.9	94.170	-0.330	0.350	1.250
2020/01/31 06:07:24.0	94.160	-0.340	0.360	1.250
2020/01/31 06:07:24.1	94.150	-0.350	0.370	1.250
2020/01/31 06:07:24.2	94.130	-0.360	0.370	1.240
2020/01/31 06:07:24.3	94.120	-0.360	0.360	1.240
2020/01/31 06:07:24.4	94.110	-0.360	0.350	1.230
2020/01/31 06:07:24.5	94.090	-0.350	0.340	1.230
2020/01/31 06:07:24.6	94.080	-0.350	0.320	1.220
2020/01/31 06:07:24.7	94.070	-0.340	0.300	1.210
2020/01/31 06:07:24.8	94.050	-0.320	0.270	1.200
2020/01/31 06:07:24.9	94.040	-0.310	0.240	1.200
2020/01/31 06:07:25.0	94.020	-0.290	0.210	1.190
2020/01/31 06:07:25.1	94.010	-0.270	0.180	1.180
2020/01/31 06:07:25.2	93.990	-0.250	0.140	1.170
2020/01/31 06:07:25.3	93.970	-0.230	0.100	1.160
2020/01/31 06:07:25.4	93.960	-0.210	0.060	1.150
2020/01/31 06:07:25.5	93.940	-0.190	0.020	1.140
2020/01/31 06:07:25.6	93.920	-0.160	-0.020	1.130
2020/01/31 06:07:25.7	93.910	-0.140	-0.060	1.110
2020/01/31 06:07:25.8	93.890	-0.110	-0.110	1.100
2020/01/31 06:07:25.9	93.880	-0.090	-0.150	1.090
2020/01/31 06:07:26.0	93.860	-0.070	-0.190	1.080
2020/01/31 06:07:26.1	93.850	-0.040	-0.230	1.060
2020/01/31 06:07:26.2	93.840	-0.020	-0.280	1.040
2020/01/31 06:07:26.3	93.830	-0.000	-0.320	1.030
2020/01/31 06:07:26.4	93.820	0.010	-0.360	1.010
2020/01/31 06:07:26.5	93.820	0.030	-0.390	0.990
2020/01/31 06:07:26.6	93.820	0.040	-0.420	0.970
2020/01/31 06:07:26.7	93.820	0.060	-0.460	0.950
2020/01/31 06:07:26.8	93.820	0.070	-0.490	0.930
2020/01/31 06:07:26.9	93.820	0.070	-0.510	0.910
2020/01/31 06:07:27.0	93.830	0.080	-0.540	0.880
2020/01/31 06:07:27.1	93.830	0.080	-0.560	0.860
2020/01/31 06:07:27.2	93.840	0.080	-0.570	0.830
2020/01/31 06:07:27.3	93.850	0.080	-0.580	0.810
2020/01/31 06:07:27.4	93.860	0.070	-0.590	0.780
2020/01/31 06:07:27.5	93.870	0.070	-0.600	0.760
2020/01/31 06:07:27.6	93.890	0.060	-0.610	0.730
2020/01/31 06:07:27.7	93.900	0.040	-0.610	0.710
2020/01/31 06:07:27.8	93.920	0.030	-0.600	0.680
2020/01/31 06:07:27.9	93.930	0.010	-0.590	0.660
2020/01/31 06:07:28.0	93.950	-0.000	-0.580	0.630
2020/01/31 06:07:28.1	93.970	-0.020	-0.570	0.610
2020/01/31 06:07:28.2	93.980	-0.050	-0.550	0.580
2020/01/31 06:07:28.3	94.000	-0.070	-0.520	0.560
2020/01/31 06:07:28.4	94.010	-0.090	-0.500	0.540
2020/01/31 06:07:28.5	94.030	-0.110	-0.460	0.510
2020/01/31 06:07:28.6	94.040	-0.140	-0.430	0.490
2020/01/31 06:07:28.7	94.050	-0.160	-0.390	0.470
2020/01/31 06:07:28.8	94.060	-0.190	-0.350	0.460
2020/01/31 06:07:28.9	94.070	-0.210	-0.310	0.440
2020/01/31 06:07:29.0	94.080	-0.240	-0.270	0.420
2020/01/31 06:07:29.1	94.090	-0.260	-0.230	0.410
2020/01/31 06:07:29.2	94.090	-0.280	-0.180	0.390
2020/01/31 06:07:29.3	94.100	-0.300	-0.140	0.380
2020/01/31 06:07:29.4	94.100	-0.310	-0.090	0.370
2020/01/31 06:07:29.5	94.100	-0.330	-0.050	0.360
2020/01/31 06:07:29.6	94.100	-0.340	-0.010	0.350
2020/01/31 06:07:29.7	94.100	-0.350	0.030	0.350
2020/01/31 06:07:29.8	94.100	-0.360	0.070	0.340
2020/01/31 06:07:29.9	94.100	-0.360	0.110	0.340
2020/01/31 06:07:30.0	94.090	-0.360	0.140	0.330
2020/01/31 06:07:30.1	94.090	-0.360	0.170	0.330
2020/01/31 06:07:30.2	94.080	-0.350	0.190	0.330
2020/01/31 06:07:30.3	94.080	-0.340	0.210	0.330
2020/01/31 06:07:30.4	94.070	-0.330	0.220	0.330
2020/01/31 06:07:30.5	94.070	-0.310	0.230	0.340
2020/01/31 06:07:30.6	94.060	-0.290	0.230	0.340
2020/01/31 06:07:30.7	94.060	-0.270	0.220	0.340
2020/01/31 06:07:30.8	94.050	-0.240	0.210	0.350
2020/01/31 06:07:30.9	94.040	-0.200	0.200	0.350
2020/01/31 06:07:31.0	94.040	-0.170	0.170	0.360
2020/01/31 06:07:31.1	94.030	-0.130	0.140	0.370
2020/01/31 06:07:31.2	94.020	-0.090	0.110	0.380
2020/01/31 06:07:31.3	94.010	-0.050	0.070	0.390
2020/01/31 06:07:31.4	94.000	-0.000	0.020	0.400
2020/01/31 06:07:31.5	93.990	0.050	-0.030	0.420
2020/01/31 06:07:31.6	93.980	0.090	-0.080	0.430
2020/01/31 06:07:31.7	93.970	0.140	-0.140	0.450
2020/01/31 06:07:31.8	93.960	0.190	-0.190	0.470
2020/01/31 06:07:31.9	93.950	0.240	-0.250	0.490
2020/01/31 06:07:32.0	93.930	0.290	-0.310	0.520
2020/01/31 06:07:32.1	93.920	0.340	-0.370	0.540
2020/01/31 06:07:32.2	93.900	0.380	-0.440	0.560
2020/01/31 06:07:32.3	93.880	0.420	-0.500	0.590
2020/01/31 06:07:32.4	93.860	0.460	-0.550	0.610
2020/01/31 06:07:32.5	93.840	0.500	-0.600	0.640
2020/01/31 06:07:32.6	93.820	0.540	-0.650	0.660
2020/01/31 06:07:32.7	93.800	0.570	-0.690	0.690
2020/01/31 06:07:32.8	93.780	0.590	-0.720	0.710
2020/01/31 06:07:32.9	93.760	0.610	-0.750	0.740
2020/01/31 06:07:33.0	93.740	0.630	-0.770	0.760
2020/01/31 06:07:33.1	93.720	0.640	-0.780	0.780
2020/01/31 06:07:33.2	93.720	0.650	-0.780	0.800
2020/01/31 06:07:33.3	93.700	0.650	-0.780	0.820
2020/01/31 06:07:33.4	93.680	0.640	-0.770	0.830
2020/01/31 06:07:33.5	93.660	0.630	-0.750	0.850
2020/01/31 06:07:33.6	93.640	0.620	-0.720	0.860
2020/01/31 06:07:33.7	93.630	0.600	-0.690	0.880
2020/01/31 06:07:33.8	93.610	0.570	-0.650	0.890
2020/01/31 06:07:33.9	93.600	0.540	-0.600	0.900
2020/01/31 06:07:34.0	93.590	0.510	-0.550	0.910
2020/01/31 06:07:34.1	93.570	0.470	-0.490	0.920
2020/01/31 06:07:34.2	93.560	0.430	-0.430	0.930
2020/01/31 06:07:34.3	93.550	0.390	-0.370	0.930
2020/01/31 06:07:34.4	93.550	0.350	-0.300	0.940
2020/01/31 06:07:34.5	93.540	0.300	-0.230	0.940
2020/01/31 06:07:34.6	93.540	0.250	-0.150	0.940
2020/01/31 06:07:34.7	93.530	0.200	-0.080	0.950
2020/01/31 06:07:34.8	93.530	0.150	-0.010	0.950
2020/01/31 06:07:34.9	93.530	0.100	0.070	0.950
2020/01/31 06:07:35.0	93.530	0.050	0.140	0.940
2020/01/31 06:07:35.1	93.530	0.000	0.200	0.940
2020/01/31 06:07:35.2	93.530	-0.040	0.270	0.940
2020/01/31 06:07:35.3	93.520	-0.090	0.330	0.930
2020/01/31 06:07:35.4	93.530	-0.130	0.390	0.930
2020/01/31 06:07:35.5	93.530	-0.170	0.440	0.920
2020/01/31 06:07:35.6	93.540	-0.200	0.490	0.910
2020/01/31 06:07:35.7	93.550	-0.240	0.530	0.900
2020/01/31 06:07:35.8	93.560	-0.270	0.560	0.900
2020/01/31 06:07:35.9	93.570	-0.290	0.590	0.890
2020/01/31 06:07:36.0	93.580	-0.310	0.610	0.880
2020/01/31 06:07:36.1	93.590	-0.330	0.630	0.870
2020/01/31 06:07:36.2	93.590	-0.340	0.630	0.860
2020/01/31 06:07:36.3	93.610	-0.350	0.630	0.850
2020/01/31 06:07:36.4	93.620	-0.350	0.620	0.840
2020/01/31 06:07:36.5	93.640	-0.350	0.610	0.820
2020/01/31 06:07:36.6	93.650	-0.340	0.580	0.810
2020/01/31 06:07:36.7	93.670	-0.330	0.550	0.800
2020/01/31 06:07:36.8	93.690	-0.310	0.520	0.790
2020/01/31 06:07:36.9	93.700	-0.290	0.480	0.780
2020/01/31 06:07:37.0	93.720	-0.270	0.430	0.770
2020/01/31 06:07:37.1	93.740	-0.240	0.370	0.760
2020/01/31 06:07:37.2	93.760	-0.220	0.310	0.760
2020/01/31 06:07:37.3	93.770	-0.180	0.250	0.750
2020/01/31 06:07:37.4	93.790	-0.150	0.190	0.740
2020/01/31 06:07:37.5	93.800	-0.110	0.120	0.730
2020/01/31 06:07:37.6	93.820	-0.070	0.050	0.730
2020/01/31 06:07:37.7	93.830	-0.030	-0.020	0.720
2020/01/31 06:07:37.8	93.840	0.010	-0.090	0.720
2020/01/31 06:07:37.9	93.840	0.050	-0.160	0.720
2020/01/31 06:07:38.0	93.850	0.090	-0.230	0.720
2020/01/31 06:07:38.1	93.850	0.130	-0.290	0.720
2020/01/31 06:07:38.2	93.850	0.170	-0.360	0.720
2020/01/31 06:07:38.3	93.850	0.200	-0.420	0.720
2020/01/31 06:07:38.4	93.840	0.240	-0.480	0.730
2020/01/31 06:07:38.5	93.840	0.270	-0.530	0.730
2020/01/31 06:07:38.6	93.830	0.300	-0.580	0.740
2020/01/31 06:07:38.7	93.810	0.330	-0.630	0.750
2020/01/31 06:07:38.8	93.800	0.350	-0.670	0.760
2020/01/31 06:07:38.9	93.790	0.370	-0.700	0.770
2020/01/31 06:07:39.0	93.770	0.380	-0.720	0.790
2020/01/31 06:07:39.1	93.750	0.400	-0.740	0.800
2020/01/31 06:07:39.2	93.730	0.400	-0.750	0.810
2020/01/31 06:07:39.3	93.720	0.410	-0.760	0.830
2020/01/31 06:07:39.4	93.700	0.410	-0.760	0.850
2020/01/31 06:07:39.5	93.670	0.400	-0.750	0.860
2020/01/31 06:07:39.6	93.650	0.390	-0.730	0.880
2020/01/31 06:07:39.7	93.630	0.380	-0.710	0.890
2020/01/31 06:07:39.8	93.610	0.360	-0.680	0.910
2020/01/31 06:07:39.9	93.590	0.340	-0.640	0.930
2020/01/31 06:07:40.0	93.570	0.310	-0.600	0.950
2020/01/31 06:07:40.1	93.540	0.290	-0.560	0.960
2020/01/31 06:07:40.2	93.530	0.250	-0.510	0.980
2020/01/31 06:07:40.3	93.510	0.220	-0.450	0.990
2020/01/31 06:07:40.4	93.500	0.190	-0.400	1.010
2020/01/31 06:07:40.5	93.480	0.150	-0.340	1.030
2020/01/31 06:07:40.6	93.470	0.110	-0.280	1.050
2020/01/31 06:07:40.7	93.460	0.070	-0.220	1.070
2020/01/31 06:07:40.8	93.450	0.030	-0.160	1.090
2020/01/31 06:07:40.9	93.440	-0.010	-0.100	1.100
2020/01/31 06:07:41.0	93.430	-0.050	-0.040	1.120
2020/01/31 06:07:41.1	93.430	-0.090	0.010	1.140
2020/01/31 06:07:41.2	93.420	-0.130	0.060	1.160
2020/01/31 06:07:41.3	93.420	-0.170	0.110	1.180
2020/01/31 06:07:41.4	93.420	-0.200	0.150	1.200
2020/01/31 06:07:41.5	93.420	-0.230	0.190	1.210
2020/01/31 06:07:41.6	93.420	-0.260	0.220	1.230
2020/01/31 06:07:41.7	93.420	-0.290	0.250	1.240
2020/01/31 06:07:41.8	93.420	-0.310	0.270	1.250
2020/01/31 06:07:41.9	93.420	-0.330	0.280	1.260
2020/01/31 06:07:42.0	93.430	-0.350	0.290	1.270
2020/01/31 06:07:42.1	93.430	-0.360	0.280	1.280
2020/01/31 06:07:42.2	93.420	-0.370	0.280	1.280
2020/01/31 06:07:42.3	93.430	-0.380	0.260	1.290
2020/01/31 06:07:42.4	93.430	-0.380	0.240	1.290
2020/01/31 06:07:42.5	93.430	-0.380	0.210	1.290
2020/01/31 06:07:42.6	93.440	-0.370	0.180	1.290
2020/01/31 06:07:42.7	93.440	-0.360	0.140	1.290
2020/01/31 06:07:42.8	93.440	-0.350	0.100	1.290
2020/01/31 06:07:42.9	93.450	-0.340	0.050	1.280
2020/01/31 06:07:43.0	93.450	-0.320	0.000	1.270
2020/01/31 06:07:43.1	93.450	-0.310	-0.050	1.260
2020/01/31 06:07:43.2	93.460	-0.290	-0.110	1.250
2020/01/31 06:07:43.3	93.460	-0.270	-0.160	1.240
2020/01/31 06:07:43.4	93.460	-0.250	-0.220	1.230
2020/01/31 06:07:43.5	93.450	-0.220	-0.270	1.220
2020/01/31 06:07:43.6	93.450	-0.200	-0.320	1.210
2020/01/31 06:07:43.7	93.450	-0.180	-0.380	1.200
2020/01/31 06:07:43.8	93.450	-0.160	-0.420	1.190
2020/01/31 06:07:43.9	93.440	-0.140	-0.470	1.180
2020/01/31 06:07:44.0	93.440	-0.120	-0.510	1.170
2020/01/31 06:07:44.1	93.430	-0.110	-0.540	1.170
2020/01/31 06:07:44.2	93.420	-0.090	-0.580	1.160
2020/01/31 06:07:44.3	93.410	-0.080	-0.600	1.150
2020/01/31 06:07:44.4	93.400	-0.070	-0.620	1.150
2020/01/31 06:07:44.5	93.390	-0.060	-0.630	1.150
2020/01/31 06:07:44.6	93.370	-0.050	-0.640	1.150
2020/01/31 06:07:44.7	93.360	-0.040	-0.630	1.150
2020/01/31 06:07:44.8	93.340	-0.040	-0.630	1.150
2020/01/31 06:07:44.9	93.330	-0.040	-0.610	1.150
2020/01/31 06:07:45.0	93.310	-0.040	-0.590	1.150
2020/01/31 06:07:45.1	93.290	-0.050	-0.570	1.160
2020/01/31 06:07:45.2	93.270	-0.050	-0.540	1.160
2020/01/31 06:07:45.3	93.250	-0.060	-0.500	1.170
2020/01/31 06:07:45.4	93.230	-0.070	-0.460	1.170
2020/01/31 06:07:45.5	93.210	-0.080	-0.420	1.170
2020/01/31 06:07:45.6	93.190	-0.090	-0.370	1.180
2020/01/31 06:07:45.7	93.170	-0.100	-0.320	1.180
2020/01/31 06:07:45.8	93.150	-0.110	-0.270	1.180
2020/01/31 06:07:45.9	93.130	-0.130	-0.220	1.180
2020/01/31 06:07:46.0	93.110	-0.140	-0.160	1.180
2020/01/31 06:07:46.1	93.080	-0.150	-0.110	1.180
2020/01/31 06:07:46.2	93.060	-0.160	-0.060	1.170
2020/01/31 06:07:46.3	93.040	-0.180	-0.010	1.170
2020/01/31 06:07:46.4	93.020	-0.190	0.040	1.160
2020/01/31 06:07:46.5	93.000	-0.200	0.090	1.140
2020/01/31 06:07:46.6	92.980	-0.200	0.130	1.130
2020/01/31 06:07:46.7	92.960	-0.210	0.170	1.110
2020/01/31 06:07:46.8	92.940	-0.210	0.210	1.090
2020/01/31 06:07:46.9	92.930	-0.220	0.240	1.060
2020/01/31 06:07:47.0	92.920	-0.220	0.260	1.030
2020/01/31 06:07:47.1	92.910	-0.210	0.290	1.000
2020/01/31 06:07:47.2	92.900	-0.210	0.300	0.960
2020/01/31 06:07:47.3	92.900	-0.200	0.320	0.910
2020/01/31 06:07:47.4	92.900	-0.190	0.320	0.870
2020/01/31 06:07:47.5	92.900	-0.180	0.320	0.820
2020/01/31 06:07:47.6	92.900	-0.170	0.320	0.770
2020/01/31 06:07:47.7	92.910	-0.150	0.310	0.710
2020/01/31 06:07:47.8	92.920	-0.130	0.290	0.660
2020/01/31 06:07:47.9	92.930	-0.110	0.270	0.600
2020/01/31 06:07:48.0	92.940	-0.090	0.250	0.540
2020/01/31 06:07:48.1	92.960	-0.060	0.220	0.480
2020/01/31 06:07:48.2	92.970	-0.040	0.190	0.420
2020/01/31 06:07:48.3	92.990	-0.010	0.160	0.360
2020/01/31 06:07:48.4	93.010	0.020	0.120	0.300
2020/01/31 06:07:48.5	93.020	0.040	0.080	0.250
2020/01/31 06:07:48.6	93.040	0.070	0.040	0.190
2020/01/31 06:07:48.7	93.060	0.100	0.000	0.140
2020/01/31 06:07:48.8	93.080	0.130	-0.040	0.090
2020/01/31 06:07:48.9	93.100	0.170	-0.090	0.050
2020/01/31 06:07:49.0	93.110	0.200	-0.130	0.010
2020/01/31 06:07:49.1	93.130	0.230	-0.180	-0.030
2020/01/31 06:07:49.2	93.140	0.260	-0.230	-0.070
2020/01/31 06:07:49.3	93.150	0.290	-0.280	-0.100
2020/01/31 06:07:49.4	93.160	0.310	-0.330	-0.130
2020/01/31 06:07:49.5	93.170	0.340	-0.370	-0.150
2020/01/31 06:07:49.6	93.180	0.370	-0.420	-0.170
2020/01/31 06:07:49.7	93.180	0.400	-0.470	-0.190
2020/01/31 06:07:49.8	93.190	0.420	-0.510	-0.200
2020/01/31 06:07:49.9	93.190	0.440	-0.550	-0.210
2020/01/31 06:07:50.0	93.190	0.460	-0.590	-0.220
2020/01/31 06:07:50.1	93.190	0.480	-0.630	-0.220
2020/01/31 06:07:50.2	93.180	0.500	-0.670	-0.220
2020/01/31 06:07:50.3	93.170	0.520	-0.700	-0.210
2020/01/31 06:07:50.4	93.160	0.530	-0.730	-0.210
2020/01/31 06:07:50.5	93.150	0.540	-0.760	-0.190
2020/01/31 06:07:50.6	93.140	0.550	-0.790	-0.180
2020/01/31 06:07:50.7	93.120	0.560	-0.810	-0.160
2020/01/31 06:07:50.8	93.100	0.560	-0.820	-0.140
2020/01/31 06:07:50.9	93.080	0.560	-0.840	-0.120
2020/01/31 06:07:51.0	93.050	0.560	-0.840	-0.090
2020/01/31 06:07:51.1	93.030	0.560	-0.840	-0.060
2020/01/31 06:07:51.2	93.010	0.550	-0.840	-0.030
2020/01/31 06:07:51.3	92.980	0.540	-0.830	0.000
2020/01/31 06:07:51.4	92.950	0.530	-0.820	0.040
2020/01/31 06:07:51.5	92.920	0.510	-0.800	0.080
2020/01/31 06:07:51.6	92.890	0.500	-0.770	0.130
2020/01/31 06:07:51.7	92.860	0.480	-0.740	0.170
2020/01/31 06:07:51.8	92.830	0.450	-0.700	0.220
2020/01/31 06:07:51.9	92.800	0.430	-0.660	0.270
2020/01/31 06:07:52.0	92.770	0.400	-0.620	0.320
2020/01/31 06:07:52.1	92.740	0.370	-0.570	0.370
2020/01/31 06:07:52.2	92.710	0.340	-0.510	0.430
2020/01/31 06:07:52.3	92.680	0.310	-0.450	0.480
2020/01/31 06:07:52.4	92.660	0.280	-0.390	0.530
2020/01/31 06:07:52.5	92.640	0.250	-0.330	0.580
2020/01/31 06:07:52.6	92.620	0.210	-0.260	0.630
2020/01/31 06:07:52.7	92.600	0.180	-0.190	0.680
2020/01/31 06:07:52.8	92.590	0.140	-0.120	0.730
2020/01/31 06:07:52.9	92.570	0.110	-0.050	0.780
2020/01/31 06:07:53.0	92.560	0.070	0.020	0.830
2020/01/31 06:07:53.1	92.550	0.030	0.090	0.870
2020/01/31 06:07:53.2	92.530	-0.000	0.160	0.910
2020/01/31 06:07:53.3	92.520	-0.040	0.240	0.950
2020/01/31 06:07:53.4	92.520	-0.070	0.300	0.990
2020/01/31 06:07:53.5	92.510	-0.100	0.370	1.030
2020/01/31 06:07:53.6	92.510	-0.130	0.440	1.070
2020/01/31 06:07:53.7	92.500	-0.160	0.500	1.100
2020/01/31 06:07:53.8	92.500	-0.190	0.560	1.130
2020/01/31 06:07:53.9	92.500	-0.220	0.610	1.160
2020/01/31 06:07:54.0	92.500	-0.240	0.660	1.190
2020/01/31 06:07:54.1	92.500	-0.270	0.710	1.220
2020/01/31 06:07:54.2	92.510	-0.290	0.750	1.240
2020/01/31 06:07:54.3	92.510	-0.310	0.790	1.260
2020/01/31 06:07:54.4	92.510	-0.320	0.810	1.280
2020/01/31 06:07:54.5	92.510	-0.340	0.840	1.300
2020/01/31 06:07:54.6	92.520	-0.350	0.850	1.320
2020/01/31 06:07:54.7	92.530	-0.360	0.860	1.330
2020/01/31 06:07:54.8	92.530	-0.370	0.870	1.340
2020/01/31 06:07:54.9	92.540	-0.370	0.860	1.350
2020/01/31 06:07:55.0	92.550	-0.370	0.850	1.360
2020/01/31 06:07:55.1	92.560	-0.370	0.830	1.360
2020/01/31 06:07:55.2	92.580	-0.370	0.790	1.370
2020/01/31 06:07:55.3	92.590	-0.360	0.760	1.360
2020/01/31 06:07:55.4	92.600	-0.350	0.710	1.360
2020/01/31 06:07:55.5	92.620	-0.340	0.660	1.360
2020/01/31 06:07:55.6	92.640	-0.330	0.600	1.350
2020/01/31 06:07:55.7	92.650	-0.310	0.540	1.340
2020/01/31 06:07:55.8	92.680	-0.290	0.470	1.320
2020/01/31 06:07:55.9	92.700	-0.270	0.390	1.310
2020/01/31 06:07:56.0	92.720	-0.250	0.310	1.290
2020/01/31 06:07:56.1	92.740	-0.220	0.220	1.280
2020/01/31 06:07:56.2	92.760	-0.190	0.130	1.250
2020/01/31 06:07:56.3	92.780	-0.170	0.030	1.230
2020/01/31 06:07:56.4	92.810	-0.140	-0.060	1.210
2020/01/31 06:07:56.5	92.830	-0.110	-0.160	1.190
2020/01/31 06:07:56.6	92.860	-0.080	-0.260	1.170
2020/01/31 06:07:56.7	92.880	-0.050	-0.360	1.150
2020/01/31 06:07:56.8	92.910	-0.020	-0.460	1.120
2020/01/31 06:07:56.9	92.930	0.010	-0.550	1.100
2020/01/31 06:07:57.0	92.960	0.040	-0.640	1.080
2020/01/31 06:07:57.1	92.980	0.070	-0.730	1.070
2020/01/31 06:07:57.2	93.000	0.100	-0.820	1.050
2020/01/31 06:07:57.3	93.020	0.130	-0.900	1.040
2020/01/31 06:07:57.4	93.030	0.150	-0.970	1.030
2020/01/31 06:07:57.5	93.050	0.180	-1.040	1.020
2020/01/31 06:07:57.6	93.060	0.200	-1.090	1.010
2020/01/31 06:07:57.7	93.070	0.220	-1.140	1.010
2020/01/31 06:07:57.8	93.070	0.230	-1.180	1.020
2020/01/31 06:07:57.9	93.070	0.240	-1.210	1.020
2020/01/31 06:07:58.0	93.080	0.250	-1.230	1.030
2020/01/31 06:07:58.1	93.070	0.260	-1.240	1.040
2020/01/31 06:07:58.2	93.060	0.260	-1.240	1.060
2020/01/31 06:07:58.3	93.050	0.260	-1.230	1.080
2020/01/31 06:07:58.4	93.040	0.260	-1.200	1.100
2020/01/31 06:07:58.5	93.030	0.250	-1.170	1.130
2020/01/31 06:07:58.6	93.010	0.230	-1.130	1.160
2020/01/31 06:07:58.7	92.990	0.220	-1.080	1.190
2020/01/31 06:07:58.8	92.970	0.200	-1.020	1.220
2020/01/31 06:07:58.9	92.950	0.170	-0.950	1.250
2020/01/31 06:07:59.0	92.920	0.140	-0.880	1.290
2020/01/31 06:07:59.1	92.890	0.110	-0.800	1.320
2020/01/31 06:07:59.2	92.860	0.080	-0.710	1.360
2020/01/31 06:07:59.3	92.820	0.040	-0.620	1.390
2020/01/31 06:07:59.4	92.790	0.010	-0.530	1.430
2020/01/31 06:07:59.5	92.750	-0.040	-0.440	1.460
2020/01/31 06:07:59.6	92.710	-0.080	-0.340	1.490
2020/01/31 06:07:59.7	92.670	-0.120	-0.240	1.520
2020/01/31 06:07:59.8	92.630	-0.170	-0.150	1.550
2020/01/31 06:07:59.9	92.590	-0.210	-0.050	1.570
2020/01/31 06:08:00.0	92.550	-0.260	0.040	1.590
2020/01/31 06:08:00.1	92.510	-0.300	0.130	1.610
2020/01/31 06:08:00.2	92.470	-0.340	0.220	1.630
2020/01/31 06:08:00.3	92.430	-0.390	0.300	1.640
2020/01/31 06:08:00.4	92.400	-0.430	0.370	1.640
2020/01/31 06:08:00.5	92.360	-0.470	0.440	1.640
2020/01/31 06:08:00.6	92.320	-0.500	0.510	1.630
2020/01/31 06:08:00.7	92.290	-0.540	0.560	1.620
2020/01/31 06:08:00.8	92.260	-0.570	0.610	1.610
2020/01/31 06:08:00.9	92.230	-0.600	0.650	1.580
2020/01/31 06:08:01.0	92.200	-0.620	0.680	1.560
2020/01/31 06:08:01.1	92.170	-0.650	0.710	1.530
2020/01/31 06:08:01.2	92.150	-0.660	0.730	1.490
2020/01/31 06:08:01.3	92.130	-0.670	0.730	1.450
2020/01/31 06:08:01.4	92.110	-0.680	0.730	1.400
2020/01/31 06:08:01.5	92.090	-0.680	0.720	1.350
2020/01/31 06:08:01.6	92.080	-0.680	0.700	1.300
2020/01/31 06:08:01.7	92.070	-0.670	0.680	1.240
2020/01/31 06:08:01.8	92.050	-0.660	0.640	1.180
2020/01/31 06:08:01.9	92.050	-0.640	0.600	1.120
2020/01/31 06:08:02.0	92.040	-0.620	0.550	1.050
2020/01/31 06:08:02.1	92.040	-0.590	0.490	0.990
2020/01/31 06:08:02.2	92.030	-0.560	0.430	0.910
2020/01/31 06:08:02.3	92.030	-0.520	0.360	0.840
2020/01/31 06:08:02.4	92.030	-0.480	0.280	0.770
2020/01/31 06:08:02.5	92.030	-0.430	0.200	0.700
2020/01/31 06:08:02.6	92.040	-0.380	0.110	0.630
2020/01/31 06:08:02.7	92.050	-0.320	0.030	0.560
2020/01/31 06:08:02.8	92.050	-0.260	-0.070	0.490
2020/01/31 06:08:02.9	92.060	-0.200	-0.160	0.420
2020/01/31 06:08:03.0	92.070	-0.140	-0.250	0.350
2020/01/31 06:08:03.1	92.080	-0.070	-0.350	0.280
2020/01/31 06:08:03.2	92.090	-0.000	-0.440	0.220
2020/01/31 06:08:03.3	92.100	0.060	-0.540	0.160
2020/01/31 06:08:03.4	92.110	0.130	-0.630	0.100
2020/01/31 06:08:03.5	92.130	0.200	-0.710	0.040
2020/01/31 06:08:03.6	92.140	0.270	-0.800	-0.020
2020/01/31 06:08:03.7	92.160	0.330	-0.880	-0.070
2020/01/31 06:08:03.8	92.170	0.390	-0.950	-0.120
2020/01/31 06:08:03.9	92.190	0.450	-1.020	-0.170
2020/01/31 06:08:04.0	92.200	0.510	-1.080	-0.210
2020/01/31 06:08:04.1	92.220	0.560	-1.130	-0.250
2020/01/31 06:08:04.2	92.240	0.610	-1.170	-0.290
2020/01/31 06:08:04.3	92.250	0.650	-1.210	-0.330
2020/01/31 06:08:04.4	92.270	0.690	-1.230	-0.360
2020/01/31 06:08:04.5	92.290	0.730	-1.250	-0.390
2020/01/31 06:08:04.6	92.310	0.750	-1.260	-0.420
2020/01/31 06:08:04.7	92.330	0.780	-1.260	-0.440
2020/01/31 06:08:04.8	92.350	0.790	-1.250	-0.460
2020/01/31 06:08:04.9	92.370	0.800	-1.220	-0.480
2020/01/31 06:08:05.0	92.390	0.800	-1.190	-0.490
2020/01/31 06:08:05.1	92.400	0.800	-1.150	-0.500
2020/01/31 06:08:05.2	92.420	0.790	-1.100	-0.510
2020/01/31 06:08:05.3	92.440	0.780	-1.050	-0.510
2020/01/31 06:08:05.4	92.450	0.760	-0.980	-0.510
2020/01/31 06:08:05.5	92.470	0.740	-0.910	-0.500
2020/01/31 06:08:05.6	92.480	0.710	-0.840	-0.490
2020/01/31 06:08:05.7	92.490	0.670	-0.760	-0.470
2020/01/31 06:08:05.8	92.500	0.640	-0.670	-0.450
2020/01/31 06:08:05.9	92.510	0.590	-0.580	-0.430
2020/01/31 06:08:06.0	92.510	0.550	-0.480	-0.400
2020/01/31 06:08:06.1	92.510	0.500	-0.390	-0.360
2020/01/31 06:08:06.2	92.510	0.450	-0.280	-0.320
2020/01/31 06:08:06.3	92.500	0.400	-0.180	-0.280
2020/01/31 06:08:06.4	92.500	0.350	-0.080	-0.230
2020/01/31 06:08:06.5	92.490	0.300	0.020	-0.180
2020/01/31 06:08:06.6	92.480	0.250	0.120	-0.130
2020/01/31 06:08:06.7	92.470	0.190	0.220	-0.070
2020/01/31 06:08:06.8	92.460	0.140	0.320	-0.010
2020/01/31 06:08:06.9	92.440	0.090	0.410	0.050
2020/01/31 06:08:07.0	92.420	0.040	0.500	0.110
2020/01/31 06:08:07.1	92.400	-0.010	0.590	0.180
2020/01/31 06:08:07.2	92.380	-0.060	0.680	0.240
2020/01/31 06:08:07.3	92.350	-0.100	0.750	0.310
2020/01/31 06:08:07.4	92.330	-0.140	0.830	0.380
2020/01/31 06:08:07.5	92.300	-0.180	0.890	0.450
2020/01/31 06:08:07.6	92.280	-0.220	0.950	0.520
2020/01/31 06:08:07.7	92.250	-0.250	1.000	0.590
2020/01/31 06:08:07.8	92.230	-0.280	1.050	0.650
2020/01/31 06:08:07.9	92.210	-0.310	1.080	0.720
2020/01/31 06:08:08.0	92.180	-0.330	1.110	0.790
2020/01/31 06:08:08.1	92.160	-0.350	1.130	0.850
2020/01/31 06:08:08.2	92.130	-0.370	1.140	0.920
2020/01/31 06:08:08.3	92.110	-0.380	1.140	0.980
2020/01/31 06:08:08.4	92.090	-0.380	1.120	1.030
2020/01/31 06:08:08.5	92.070	-0.390	1.100	1.090
2020/01/31 06:08:08.6	92.060	-0.390	1.070	1.140
2020/01/31 06:08:08.7	92.050	-0.380	1.030	1.190
2020/01/31 06:08:08.8	92.040	-0.380	0.980	1.230
2020/01/31 06:08:08.9	92.030	-0.360	0.920	1.270
2020/01/31 06:08:09.0	92.030	-0.350	0.850	1.310
2020/01/31 06:08:09.1	92.020	-0.330	0.780	1.340
2020/01/31 06:08:09.2	92.020	-0.310	0.690	1.370
2020/01/31 06:08:09.3	92.020	-0.290	0.600	1.400
2020/01/31 06:08:09.4	92.020	-0.260	0.510	1.420
2020/01/31 06:08:09.5	92.030	-0.240	0.410	1.440
2020/01/31 06:08:09.6	92.040	-0.210	0.310	1.460
2020/01/31 06:08:09.7	92.040	-0.180	0.200	1.480
2020/01/31 06:08:09.8	92.050	-0.150	0.100	1.490
2020/01/31 06:08:09.9	92.060	-0.120	-0.010	1.500
2020/01/31 06:08:10.0	92.070	-0.090	-0.120	1.510
2020/01/31 06:08:10.1	92.080	-0.050	-0.230	1.520
2020/01/31 06:08:10.2	92.090	-0.020	-0.330	1.530
2020/01/31 06:08:10.3	92.100	0.010	-0.440	1.530
2020/01/31 06:08:10.4	92.110	0.030	-0.530	1.540
2020/01/31 06:08:10.5	92.120	0.060	-0.620	1.540
2020/01/31 06:08:10.6	92.130	0.090	-0.710	1.550
2020/01/31 06:08:10.7	92.140	0.110	-0.790	1.550
2020/01/31 06:08:10.8	92.140	0.140	-0.870	1.560
2020/01/31 06:08:10.9	92.140	0.160	-0.930	1.570
2020/01/31 06:08:11.0	92.150	0.170	-0.990	1.570
2020/01/31 06:08:11.1	92.150	0.190	-1.050	1.580
2020/01/31 06:08:11.2	92.150	0.210	-1.080	1.590
2020/01/31 06:08:11.3	92.150	0.220	-1.120	1.600
2020/01/31 06:08:11.4	92.150	0.230	-1.140	1.610
2020/01/31 06:08:11.5	92.150	0.240	-1.160	1.610
2020/01/31 06:08:11.6	92.150	0.240	-1.170	1.620
2020/01/31 06:08:11.7	92.150	0.250	-1.170	1.630
2020/01/31 06:08:11.8	92.140	0.250	-1.170	1.640
2020/01/31 06:08:11.9	92.140	0.250	-1.150	1.640
2020/01/31 06:08:12.0	92.140	0.250	-1.130	1.650
2020/01/31 06:08:12.1	92.140	0.240	-1.100	1.660
2020/01/31 06:08:12.2	92.140	0.230	-1.070	1.660
2020/01/31 06:08:12.3	92.140	0.230	-1.030	1.660
2020/01/31 06:08:12.4	92.140	0.220	-0.990	1.660
2020/01/31 06:08:12.5	92.140	0.210	-0.940	1.670
2020/01/31 06:08:12.6	92.140	0.190	-0.890	1.660
2020/01/31 06:08:12.7	92.140	0.180	-0.840	1.660
2020/01/31 06:08:12.8	92.140	0.170	-0.790	1.660
2020/01/31 06:08:12.9	92.140	0.150	-0.730	1.660
2020/01/31 06:08:13.0	92.150	0.130	-0.670	1.650
2020/01/31 06:08:13.1	92.150	0.120	-0.610	1.650
2020/01/31 06:08:13.2	92.150	0.100	-0.550	1.650
2020/01/31 06:08:13.3	92.150	0.080	-0.490	1.640
2020/01/31 06:08:13.4	92.150	0.060	-0.440	1.630
2020/01/31 06:08:13.5	92.150	0.040	-0.380	1.620
2020/01/31 06:08:13.6	92.150	0.020	-0.330	1.610
2020/01/31 06:08:13.7	92.150	0.000	-0.280	1.600
2020/01/31 06:08:13.8	92.140	-0.020	-0.230	1.590
2020/01/31 06:08:13.9	92.140	-0.040	-0.180	1.570
2020/01/31 06:08:14.0	92.140	-0.050	-0.140	1.560
2020/01/31 06:08:14.1	92.140	-0.070	-0.090	1.540
2020/01/31 06:08:14.2	92.130	-0.090	-0.060	1.520
2020/01/31 06:08:14.3	92.120	-0.110	-0.020	1.500
2020/01/31 06:08:14.4	92.120	-0.120	0.010	1.480
2020/01/31 06:08:14.5	92.120	-0.140	0.040	1.460
2020/01/31 06:08:14.6	92.120	-0.150	0.070	1.430
2020/01/31 06:08:14.7	92.120	-0.160	0.100	1.410
2020/01/31 06:08:14.8	92.110	-0.180	0.120	1.380
2020/01/31 06:08:14.9	92.110	-0.190	0.140	1.360
2020/01/31 06:08:15.0	92.110	-0.200	0.150	1.330
2020/01/31 06:08:15.1	92.110	-0.210	0.170	1.300
2020/01/31 06:08:15.2	92.110	-0.210	0.180	1.270
2020/01/31 06:08:15.3	92.110	-0.220	0.200	1.250
2020/01/31 06:08:15.4	92.110	-0.220	0.200	1.220
2020/01/31 06:08:15.5	92.120	-0.230	0.210	1.190
2020/01/31 06:08:15.6	92.120	-0.230	0.220	1.160
2020/01/31 06:08:15.7	92.120	-0.230	0.220	1.130
2020/01/31 06:08:15.8	92.130	-0.230	0.230	1.100
2020/01/31 06:08:15.9	92.130	-0.230	0.230	1.070
2020/01/31 06:08:16.0	92.140	-0.230	0.230	1.040
2020/01/31 06:08:16.1	92.140	-0.230	0.230	1.010
2020/01/31 06:08:16.2	92.150	-0.230	0.230	0.980
2020/01/31 06:08:16.3	92.160	-0.230	0.230	0.950
2020/01/31 06:08:16.4	92.160	-0.230	0.230	0.920
2020/01/31 06:08:16.5	92.170	-0.230	0.230	0.890
2020/01/31 06:08:16.6	92.180	-0.220	0.220	0.860
2020/01/31 06:08:16.7	92.180	-0.220	0.220	0.830
2020/01/31 06:08:16.8	92.190	-0.220	0.210	0.790
2020/01/31 06:08:16.9	92.190	-0.220	0.210	0.760
2020/01/31 06:08:17.0	92.200	-0.210	0.200	0.730
2020/01/31 06:08:17.1	92.200	-0.210	0.190	0.700
2020/01/31 06:08:17.2	92.210	-0.210	0.180	0.670
2020/01/31 06:08:17.3	92.210	-0.210	0.170	0.640
2020/01/31 06:08:17.4	92.210	-0.200	0.160	0.610
2020/01/31 06:08:17.5	92.200	-0.200	0.150	0.570
2020/01/31 06:08:17.6	92.200	-0.200	0.130	0.540
2020/01/31 06:08:17.7	92.200	-0.200	0.120	0.500
2020/01/31 06:08:17.8	92.190	-0.190	0.100	0.470
2020/01/31 06:08:17.9	92.190	-0.190	0.080	0.430
2020/01/31 06:08:18.0	92.180	-0.190	0.060	0.400
2020/01/31 06:08:18.1	92.180	-0.180	0.040	0.360
2020/01/31 06:08:18.2	92.170	-0.180	0.020	0.320
2020/01/31 06:08:18.3	92.170	-0.180	0.000	0.280
2020/01/31 06:08:18.4	92.160	-0.170	-0.020	0.250
2020/01/31 06:08:18.5	92.160	-0.170	-0.040	0.210
2020/01/31 06:08:18.6	92.150	-0.160	-0.070	0.180
2020/01/31 06:08:18.7	92.140	-0.160	-0.090	0.150
2020/01/31 06:08:18.8	92.140	-0.150	-0.120	0.120
2020/01/31 06:08:18.9	92.130	-0.140	-0.140	0.100
2020/01/31 06:08:19.0	92.130	-0.140	-0.160	0.080
2020/01/31 06:08:19.1	92.120	-0.130	-0.190	0.060
2020/01/31 06:08:19.2	92.110	-0.120	-0.210	0.040
2020/01/31 06:08:19.3	92.100	-0.110	-0.230	0.030
2020/01/31 06:08:19.4	92.090	-0.100	-0.250	0.020
2020/01/31 06:08:19.5	92.090	-0.090	-0.270	0.020
2020/01/31 06:08:19.6	92.080	-0.080	-0.290	0.010
2020/01/31 06:08:19.7	92.070	-0.070	-0.300	0.010
2020/01/31 06:08:19.8	92.060	-0.060	-0.320	0.020
2020/01/31 06:08:19.9	92.060	-0.050	-0.330	0.020
2020/01/31 06:08:20.0	92.050	-0.040	-0.350	0.030
2020/01/31 06:08:20.1	92.040	-0.030	-0.360	0.040
2020/01/31 06:08:20.2	92.030	-0.020	-0.370	0.050
2020/01/31 06:08:20.3	92.030	-0.010	-0.380	0.060
2020/01/31 06:08:20.4	92.020	0.000	-0.380	0.080
2020/01/31 06:08:20.5	92.020	0.020	-0.390	0.090
2020/01/31 06:08:20.6	92.020	0.030	-0.390	0.100
2020/01/31 06:08:20.7	92.020	0.040	-0.390	0.110
2020/01/31 06:08:20.8	92.020	0.050	-0.400	0.130
2020/01/31 06:08:20.9	92.030	0.070	-0.400	0.140
2020/01/31 06:08:21.0	92.030	0.080	-0.400	0.150
2020/01/31 06:08:21.1	92.040	0.090	-0.400	0.160
2020/01/31 06:08:21.2	92.050	0.110	-0.400	0.170
2020/01/31 06:08:21.3	92.060	0.120	-0.400	0.170
2020/01/31 06:08:21.4	92.070	0.130	-0.400	0.180
2020/01/31 06:08:21.5	92.090	0.150	-0.400	0.190
2020/01/31 06:08:21.6	92.110	0.160	-0.400	0.200
2020/01/31 06:08:21.7	92.120	0.170	-0.400	0.200
2020/01/31 06:08:21.8	92.140	0.180	-0.400	0.210
2020/01/31 06:08:21.9	92.160	0.200	-0.390	0.220
2020/01/31 06:08:22.0	92.180	0.210	-0.390	0.220
2020/01/31 06:08:22.1	92.200	0.220	-0.390	0.230
2020/01/31 06:08:22.2	92.210	0.230	-0.400	0.240
2020/01/31 06:08:22.3	92.230	0.250	-0.390	0.250
2020/01/31 06:08:22.4	92.240	0.260	-0.390	0.260
2020/01/31 06:08:22.5	92.260	0.270	-0.390	0.260
2020/01/31 06:08:22.6	92.270	0.280	-0.390	0.270
2020/01/31 06:08:22.7	92.290	0.290	-0.390	0.280
2020/01/31 06:08:22.8	92.300	0.300	-0.380	0.290
2020/01/31 06:08:22.9	92.310	0.310	-0.380	0.300
2020/01/31 06:08:23.0	92.320	0.320	-0.380	0.320
2020/01/31 06:08:23.1	92.330	0.330	-0.370	0.330
2020/01/31 06:08:23.2	92.330	0.340	-0.360	0.340
2020/01/31 06:08:23.3	92.340	0.340	-0.360	0.360
2020/01/31 06:08:23.4	92.350	0.350	-0.350	0.380
2020/01/31 06:08:23.5	92.350	0.360	-0.340	0.400
2020/01/31 06:08:23.6	92.350	0.370	-0.340	0.420
2020/01/31 06:08:23.7	92.350	0.370	-0.330	0.440
2020/01/31 06:08:23.8	92.350	0.380	-0.320	0.470
2020/01/31 06:08:23.9	92.350	0.380	-0.320	0.490
2020/01/31 06:08:24.0	92.350	0.390	-0.310	0.520
2020/01/31 06:08:24.1	92.340	0.390	-0.300	0.550
2020/01/31 06:08:24.2	92.350	0.390	-0.300	0.580
2020/01/31 06:08:24.3	92.340	0.390	-0.290	0.620
2020/01/31 06:08:24.4	92.340	0.400	-0.280	0.650
2020/01/31 06:08:24.5	92.340	0.400	-0.270	0.690
2020/01/31 06:08:24.6	92.330	0.400	-0.260	0.730
2020/01/31 06:08:24.7	92.330	0.390	-0.250	0.770
2020/01/31 06:08:24.8	92.330	0.390	-0.240	0.810
2020/01/31 06:08:24.9	92.320	0.380	-0.230	0.860
2020/01/31 06:08:25.0	92.320	0.380	-0.210	0.910
2020/01/31 06:08:25.1	92.320	0.370	-0.200	0.950
2020/01/31 06:08:25.2	92.320	0.360	-0.180	1.010
2020/01/31 06:08:25.3	92.320	0.350	-0.170	1.060
2020/01/31 06:08:25.4	92.320	0.340	-0.150	1.110
2020/01/31 06:08:25.5	92.320	0.320	-0.130	1.160
2020/01/31 06:08:25.6	92.320	0.300	-0.100	1.210
2020/01/31 06:08:25.7	92.320	0.280	-0.080	1.260
2020/01/31 06:08:25.8	92.320	0.260	-0.050	1.310
2020/01/31 06:08:25.9	92.320	0.240	-0.030	1.360
2020/01/31 06:08:26.0	92.310	0.210	0.000	1.410
2020/01/31 06:08:26.1	92.310	0.180	0.030	1.460
2020/01/31 06:08:26.2	92.310	0.150	0.060	1.510
2020/01/31 06:08:26.3	92.310	0.120	0.090	1.550
2020/01/31 06:08:26.4	92.310	0.080	0.120	1.590
2020/01/31 06:08:26.5	92.310	0.050	0.160	1.630
2020/01/31 06:08:26.6	92.300	0.010	0.190	1.670
2020/01/31 06:08:26.7	92.300	-0.020	0.220	1.700
2020/01/31 06:08:26.8	92.300	-0.060	0.250	1.730
2020/01/31 06:08:26.9	92.290	-0.100	0.270	1.750
2020/01/31 06:08:27.0	92.290	-0.140	0.300	1.780
2020/01/31 06:08:27.1	92.290	-0.170	0.320	1.800
2020/01/31 06:08:27.2	92.290	-0.210	0.350	1.810
2020/01/31 06:08:27.3	92.290	-0.250	0.370	1.820
2020/01/31 06:08:27.4	92.300	-0.280	0.380	1.830
2020/01/31 06:08:27.5	92.300	-0.320	0.400	1.830
2020/01/31 06:08:27.6	92.300	-0.350	0.410	1.830
2020/01/31 06:08:27.7	92.300	-0.380	0.410	1.820
2020/01/31 06:08:27.8	92.310	-0.400	0.420	1.810
2020/01/31 06:08:27.9	92.310	-0.430	0.420	1.800
2020/01/31 06:08:28.0	92.320	-0.450	0.410	1.780
2020/01/31 06:08:28.1	92.330	-0.470	0.400	1.760
2020/01/31 06:08:28.2	92.350	-0.480	0.390	1.740
2020/01/31 06:08:28.3	92.360	-0.500	0.380	1.720
2020/01/31 06:08:28.4	92.370	-0.500	0.360	1.690
2020/01/31 06:08:28.5	92.380	-0.510	0.340	1.660
2020/01/31 06:08:28.6	92.390	-0.510	0.310	1.630
2020/01/31 06:08:28.7	92.410	-0.510	0.280	1.600
2020/01/31 06:08:28.8	92.420	-0.500	0.250	1.570
2020/01/31 06:08:28.9	92.430	-0.490	0.210	1.540
2020/01/31 06:08:29.0	92.450	-0.480	0.170	1.510
2020/01/31 06:08:29.1	92.460	-0.460	0.130	1.470
2020/01/31 06:08:29.2	92.470	-0.440	0.090	1.440
2020/01/31 06:08:29.3	92.490	-0.410	0.040	1.400
2020/01/31 06:08:29.4	92.500	-0.390	-0.010	1.370
2020/01/31 06:08:29.5	92.520	-0.360	-0.070	1.330
2020/01/31 06:08:29.6	92.530	-0.330	-0.120	1.290
2020/01/31 06:08:29.7	92.550	-0.300	-0.180	1.260
2020/01/31 06:08:29.8	92.560	-0.260	-0.230	1.220
2020/01/31 06:08:29.9	92.570	-0.230	-0.290	1.180
2020/01/31 06:08:30.0	92.580	-0.190	-0.350	1.150
2020/01/31 06:08:30.1	92.590	-0.150	-0.410	1.110
2020/01/31 06:08:30.2	92.610	-0.120	-0.470	1.070
2020/01/31 06:08:30.3	92.620	-0.080	-0.520	1.040
2020/01/31 06:08:30.4	92.630	-0.040	-0.580	1.000
2020/01/31 06:08:30.5	92.630	-0.000	-0.630	0.970
2020/01/31 06:08:30.6	92.640	0.030	-0.680	0.930
2020/01/31 06:08:30.7	92.640	0.070	-0.720	0.900
2020/01/31 06:08:30.8	92.640	0.100	-0.770	0.870
2020/01/31 06:08:30.9	92.640	0.130	-0.800	0.830
2020/01/31 06:08:31.0	92.640	0.160	-0.840	0.800
2020/01/31 06:08:31.1	92.640	0.180	-0.870	0.770
2020/01/31 06:08:31.2	92.640	0.210	-0.890	0.740
2020/01/31 06:08:31.3	92.630	0.230	-0.910	0.710
2020/01/31 06:08:31.4	92.630	0.250	-0.920	0.680
2020/01/31 06:08:31.5	92.620	0.260	-0.930	0.650
2020/01/31 06:08:31.6	92.610	0.270	-0.930	0.630
2020/01/31 06:08:31.7	92.600	0.280	-0.930	0.600
2020/01/31 06:08:31.8	92.590	0.290	-0.920	0.580
2020/01/31 06:08:31.9	92.580	0.290	-0.900	0.560
2020/01/31 06:08:32.0	92.560	0.290	-0.880	0.540
2020/01/31 06:08:32.1	92.550	0.280	-0.850	0.520
2020/01/31 06:08:32.2	92.530	0.280	-0.820	0.500
2020/01/31 06:08:32.3	92.510	0.270	-0.780	0.490
2020/01/31 06:08:32.4	92.490	0.250	-0.740	0.480
2020/01/31 06:08:32.5	92.480	0.230	-0.690	0.470
2020/01/31 06:08:32.6	92.460	0.220	-0.640	0.460
2020/01/31 06:08:32.7	92.450	0.190	-0.580	0.450
2020/01/31 06:08:32.8	92.430	0.170	-0.520	0.440
2020/01/31 06:08:32.9	92.420	0.140	-0.460	0.430
2020/01/31 06:08:33.0	92.410	0.110	-0.400	0.430
2020/01/31 06:08:33.1	92.400	0.080	-0.330	0.420
2020/01/31 06:08:33.2	92.390	0.050	-0.260	0.420
2020/01/31 06:08:33.3	92.380	0.020	-0.190	0.410
2020/01/31 06:08:33.4	92.380	-0.010	-0.120	0.410
2020/01/31 06:08:33.5	92.380	-0.050	-0.050	0.400
2020/01/31 06:08:33.6	92.380	-0.080	0.020	0.400
2020/01/31 06:08:33.7	92.380	-0.120	0.090	0.400
2020/01/31 06:08:33.8	92.380	-0.150	0.150	0.390
2020/01/31 06:08:33.9	92.390	-0.180	0.220	0.390
2020/01/31 06:08:34.0	92.400	-0.210	0.280	0.390
2020/01/31 06:08:34.1	92.400	-0.240	0.330	0.390
2020/01/31 06:08:34.2	92.400	-0.270	0.390	0.380
2020/01/31 06:08:34.3	92.410	-0.300	0.440	0.380
2020/01/31 06:08:34.4	92.430	-0.320	0.480	0.380
2020/01/31 06:08:34.5	92.440	-0.340	0.510	0.380
2020/01/31 06:08:34.6	92.450	-0.360	0.540	0.380
2020/01/31 06:08:34.7	92.470	-0.370	0.560	0.390
2020/01/31 06:08:34.8	92.480	-0.380	0.580	0.390
2020/01/31 06:08:34.9	92.500	-0.390	0.580	0.390
2020/01/31 06:08:35.0	92.520	-0.400	0.580	0.400
2020/01/31 06:08:35.1	92.530	-0.400	0.570	0.410
2020/01/31 06:08:35.2	92.540	-0.400	0.560	0.410
2020/01/31 06:08:35.3	92.560	-0.390	0.530	0.420
2020/01/31 06:08:35.4	92.580	-0.380	0.500	0.430
2020/01/31 06:08:35.5	92.600	-0.370	0.470	0.440
2020/01/31 06:08:35.6	92.620	-0.360	0.420	0.440
2020/01/31 06:08:35.7	92.640	-0.340	0.370	0.450
2020/01/31 06:08:35.8	92.660	-0.320	0.320	0.450
2020/01/31 06:08:35.9	92.680	-0.300	0.260	0.460
2020/01/31 06:08:36.0	92.700	-0.270	0.200	0.460
2020/01/31 06:08:36.1	92.720	-0.250	0.130	0.470
2020/01/31 06:08:36.2	92.750	-0.220	0.060	0.470
2020/01/31 06:08:36.3	92.770	-0.190	-0.010	0.470
2020/01/31 06:08:36.4	92.790	-0.160	-0.080	0.470
2020/01/31 06:08:36.5	92.810	-0.130	-0.150	0.470
2020/01/31 06:08:36.6	92.830	-0.100	-0.230	0.470
2020/01/31 06:08:36.7	92.850	-0.060	-0.290	0.470
2020/01/31 06:08:36.8	92.870	-0.030	-0.360	0.470
2020/01/31 06:08:36.9	92.890	0.000	-0.430	0.480
2020/01/31 06:08:37.0	92.910	0.030	-0.490	0.480
2020/01/31 06:08:37.1	92.920	0.060	-0.540	0.490
2020/01/31 06:08:37.2	92.930	0.090	-0.600	0.490
2020/01/31 06:08:37.3	92.940	0.120	-0.650	0.500
2020/01/31 06:08:37.4	92.950	0.150	-0.690	0.510
2020/01/31 06:08:37.5	92.950	0.170	-0.720	0.530
2020/01/31 06:08:37.6	92.950	0.200	-0.750	0.540
2020/01/31 06:08:37.7	92.950	0.220	-0.780	0.560
2020/01/31 06:08:37.8	92.950	0.240	-0.790	0.580
2020/01/31 06:08:37.9	92.940	0.260	-0.800	0.610
2020/01/31 06:08:38.0	92.940	0.270	-0.810	0.630
2020/01/31 06:08:38.1	92.930	0.290	-0.800	0.660
2020/01/31 06:08:38.2	92.910	0.300	-0.790	0.690
2020/01/31 06:08:38.3	92.900	0.310	-0.770	0.720
2020/01/31 06:08:38.4	92.880	0.320	-0.750	0.760
2020/01/31 06:08:38.5	92.870	0.330	-0.720	0.790
2020/01/31 06:08:38.6	92.850	0.340	-0.690	0.830
2020/01/31 06:08:38.7	92.830	0.340	-0.640	0.860
2020/01/31 06:08:38.8	92.810	0.340	-0.600	0.900
2020/01/31 06:08:38.9	92.790	0.340	-0.550	0.930
2020/01/31 06:08:39.0	92.770	0.340	-0.490	0.970
2020/01/31 06:08:39.1	92.750	0.340	-0.430	1.000
2020/01/31 06:08:39.2	92.730	0.330	-0.370	1.040
2020/01/31 06:08:39.3	92.700	0.320	-0.310	1.070
2020/01/31 06:08:39.4	92.680	0.310	-0.240	1.100
2020/01/31 06:08:39.5	92.660	0.300	-0.170	1.140
2020/01/31 06:08:39.6	92.640	0.290	-0.110	1.170
2020/01/31 06:08:39.7	92.610	0.280	-0.040	1.190
2020/01/31 06:08:39.8	92.590	0.260	0.030	1.220
2020/01/31 06:08:39.9	92.570	0.250	0.090	1.240
2020/01/31 06:08:40.0	92.550	0.230	0.150	1.270
2020/01/31 06:08:40.1	92.520	0.220	0.210	1.290
2020/01/31 06:08:40.2	92.500	0.200	0.260	1.300
2020/01/31 06:08:40.3	92.480	0.190	0.310	1.320
2020/01/31 06:08:40.4	92.460	0.170	0.360	1.330
2020/01/31 06:08:40.5	92.440	0.150	0.400	1.340
2020/01/31 06:08:40.6	92.420	0.140	0.430	1.350
2020/01/31 06:08:40.7	92.400	0.120	0.450	1.360
2020/01/31 06:08:40.8	92.390	0.110	0.470	1.360
2020/01/31 06:08:40.9	92.370	0.100	0.490	1.370
2020/01/31 06:08:41.0	92.360	0.080	0.490	1.360
2020/01/31 06:08:41.1	92.340	0.070	0.490	1.360
2020/01/31 06:08:41.2	92.340	0.060	0.490	1.350
2020/01/31 06:08:41.3	92.330	0.050	0.470	1.340
2020/01/31 06:08:41.4	92.330	0.050	0.450	1.330
2020/01/31 06:08:41.5	92.330	0.040	0.420	1.310
2020/01/31 06:08:41.6	92.330	0.040	0.380	1.290
2020/01/31 06:08:41.7	92.330	0.030	0.340	1.260
2020/01/31 06:08:41.8	92.340	0.030	0.290	1.240
2020/01/31 06:08:41.9	92.350	0.030	0.230	1.210
2020/01/31 06:08:42.0	92.360	0.040	0.180	1.170
2020/01/31 06:08:42.1	92.370	0.040	0.110	1.140
2020/01/31 06:08:42.2	92.400	0.050	0.040	1.100
2020/01/31 06:08:42.3	92.420	0.050	-0.030	1.060
2020/01/31 06:08:42.4	92.440	0.060	-0.100	1.020
2020/01/31 06:08:42.5	92.460	0.070	-0.180	0.980
2020/01/31 06:08:42.6	92.490	0.080	-0.250	0.940
2020/01/31 06:08:42.7	92.510	0.090	-0.330	0.900
2020/01/31 06:08:42.8	92.540	0.100	-0.400	0.850
2020/01/31 06:08:42.9	92.570	0.110	-0.480	0.810
2020/01/31 06:08:43.0	92.600	0.120	-0.550	0.770
2020/01/31 06:08:43.1	92.620	0.130	-0.620	0.740
2020/01/31 06:08:43.2	92.650	0.140	-0.680	0.700
2020/01/31 06:08:43.3	92.680	0.150	-0.740	0.670
2020/01/31 06:08:43.4	92.700	0.150	-0.790	0.630
2020/01/31 06:08:43.5	92.730	0.160	-0.840	0.600
2020/01/31 06:08:43.6	92.760	0.160	-0.880	0.580
2020/01/31 06:08:43.7	92.780	0.170	-0.920	0.550
2020/01/31 06:08:43.8	92.810	0.170	-0.940	0.530
2020/01/31 06:08:43.9	92.830	0.170	-0.960	0.510
2020/01/31 06:08:44.0	92.850	0.170	-0.970	0.500
2020/01/31 06:08:44.1	92.870	0.160	-0.970	0.490
2020/01/31 06:08:44.2	92.890	0.160	-0.960	0.480
2020/01/31 06:08:44.3	92.910	0.150	-0.940	0.470
2020/01/31 06:08:44.4	92.920	0.140	-0.920	0.470
2020/01/31 06:08:44.5	92.930	0.120	-0.880	0.470
2020/01/31 06:08:44.6	92.940	0.110	-0.840	0.480
2020/01/31 06:08:44.7	92.940	0.090	-0.790	0.490
2020/01/31 06:08:44.8	92.940	0.070	-0.730	0.500
2020/01/31 06:08:44.9	92.940	0.050	-0.670	0.520
2020/01/31 06:08:45.0	92.940	0.030	-0.600	0.540
2020/01/31 06:08:45.1	92.940	0.000	-0.530	0.560
2020/01/31 06:08:45.2	92.940	-0.030	-0.440	0.590
2020/01/31 06:08:45.3	92.930	-0.050	-0.360	0.610
2020/01/31 06:08:45.4	92.920	-0.080	-0.280	0.640
2020/01/31 06:08:45.5	92.910	-0.110	-0.190	0.670
2020/01/31 06:08:45.6	92.900	-0.140	-0.110	0.700
2020/01/31 06:08:45.7	92.890	-0.170	-0.020	0.740
2020/01/31 06:08:45.8	92.880	-0.200	0.070	0.770
2020/01/31 06:08:45.9	92.860	-0.230	0.150	0.800
2020/01/31 06:08:46.0	92.850	-0.260	0.230	0.830
2020/01/31 06:08:46.1	92.840	-0.290	0.310	0.870
2020/01/31 06:08:46.2	92.820	-0.320	0.380	0.900
2020/01/31 06:08:46.3	92.810	-0.350	0.450	0.930
2020/01/31 06:08:46.4	92.790	-0.370	0.510	0.960
2020/01/31 06:08:46.5	92.780	-0.390	0.570	0.990
2020/01/31 06:08:46.6	92.770	-0.410	0.620	1.020
2020/01/31 06:08:46.7	92.760	-0.430	0.660	1.040
2020/01/31 06:08:46.8	92.750	-0.450	0.700	1.070
2020/01/31 06:08:46.9	92.730	-0.460	0.720	1.090
2020/01/31 06:08:47.0	92.720	-0.470	0.740	1.120
2020/01/31 06:08:47.1	92.710	-0.470	0.750	1.140
2020/01/31 06:08:47.2	92.700	-0.480	0.750	1.160
2020/01/31 06:08:47.3	92.680	-0.480	0.750	1.180
2020/01/31 06:08:47.4	92.670	-0.480	0.730	1.200
2020/01/31 06:08:47.5	92.660	-0.470	0.710	1.210
2020/01/31 06:08:47.6	92.650	-0.460	0.680	1.230
2020/01/31 06:08:47.7	92.640	-0.450	0.640	1.240
2020/01/31 06:08:47.8	92.620	-0.430	0.600	1.250
2020/01/31 06:08:47.9	92.610	-0.420	0.550	1.260
2020/01/31 06:08:48.0	92.600	-0.400	0.500	1.270
2020/01/31 06:08:48.1	92.590	-0.370	0.440	1.280
2020/01/31 06:08:48.2	92.560	-0.350	0.370	1.280
2020/01/31 06:08:48.3	92.550	-0.320	0.300	1.280
2020/01/31 06:08:48.4	92.540	-0.300	0.230	1.290
2020/01/31 06:08:48.5	92.520	-0.270	0.160	1.290
2020/01/31 06:08:48.6	92.510	-0.240	0.080	1.290
2020/01/31 06:08:48.7	92.500	-0.210	0.010	1.290
2020/01/31 06:08:48.8	92.490	-0.180	-0.060	1.280
2020/01/31 06:08:48.9	92.480	-0.150	-0.140	1.280
2020/01/31 06:08:49.0	92.470	-0.120	-0.210	1.270
2020/01/31 06:08:49.1	92.460	-0.090	-0.280	1.260
2020/01/31 06:08:49.2	92.450	-0.060	-0.340	1.250
2020/01/31 06:08:49.3	92.440	-0.030	-0.410	1.240
2020/01/31 06:08:49.4	92.430	-0.000	-0.470	1.220
2020/01/31 06:08:49.5	92.430	0.030	-0.530	1.200
2020/01/31 06:08:49.6	92.420	0.050	-0.590	1.180
2020/01/31 06:08:49.7	92.420	0.070	-0.640	1.160
2020/01/31 06:08:49.8	92.420	0.090	-0.680	1.130
2020/01/31 06:08:49.9	92.420	0.110	-0.720	1.110
2020/01/31 06:08:50.0	92.420	0.130	-0.760	1.080
2020/01/31 06:08:50.1	92.420	0.140	-0.790	1.040
2020/01/31 06:08:50.2	92.430	0.150	-0.820	1.010
2020/01/31 06:08:50.3	92.440	0.160	-0.840	0.980
2020/01/31 06:08:50.4	92.450	0.170	-0.860	0.940
2020/01/31 06:08:50.5	92.460	0.170	-0.870	0.900
2020/01/31 06:08:50.6	92.470	0.180	-0.880	0.860
2020/01/31 06:08:50.7	92.490	0.180	-0.880	0.820
2020/01/31 06:08:50.8	92.510	0.170	-0.870	0.780
2020/01/31 06:08:50.9	92.530	0.170	-0.860	0.740
2020/01/31 06:08:51.0	92.560	0.160	-0.850	0.690
2020/01/31 06:08:51.1	92.580	0.150	-0.830	0.650
2020/01/31 06:08:51.2	92.610	0.140	-0.800	0.610
2020/01/31 06:08:51.3	92.640	0.130	-0.780	0.570
2020/01/31 06:08:51.4	92.670	0.120	-0.750	0.530
2020/01/31 06:08:51.5	92.700	0.110	-0.710	0.490
2020/01/31 06:08:51.6	92.740	0.090	-0.670	0.460
2020/01/31 06:08:51.7	92.770	0.080	-0.630	0.430
2020/01/31 06:08:51.8	92.800	0.060	-0.590	0.400
2020/01/31 06:08:51.9	92.830	0.050	-0.550	0.380
2020/01/31 06:08:52.0	92.860	0.030	-0.500	0.360
2020/01/31 06:08:52.1	92.890	0.020	-0.450	0.350
2020/01/31 06:08:52.2	92.910	0.000	-0.400	0.340
2020/01/31 06:08:52.3	92.930	-0.010	-0.350	0.330
2020/01/31 06:08:52.4	92.950	-0.020	-0.300	0.330
2020/01/31 06:08:52.5	92.960	-0.040	-0.250	0.340
2020/01/31 06:08:52.6	92.970	-0.050	-0.200	0.340
2020/01/31 06:08:52.7	92.980	-0.060	-0.160	0.350
2020/01/31 06:08:52.8	92.980	-0.070	-0.110	0.370
2020/01/31 06:08:52.9	92.980	-0.070	-0.060	0.390
2020/01/31 06:08:53.0	92.970	-0.080	-0.020	0.410
2020/01/31 06:08:53.1	92.960	-0.080	0.020	0.440
2020/01/31 06:08:53.2	92.960	-0.090	0.060	0.470
2020/01/31 06:08:53.3	92.950	-0.090	0.090	0.500
2020/01/31 06:08:53.4	92.930	-0.090	0.120	0.530
2020/01/31 06:08:53.5	92.910	-0.090	0.150	0.560
2020/01/31 06:08:53.6	92.890	-0.080	0.180	0.590
2020/01/31 06:08:53.7	92.870	-0.080	0.200	0.630
2020/01/31 06:08:53.8	92.850	-0.070	0.220	0.660
2020/01/31 06:08:53.9	92.830	-0.060	0.240	0.690
2020/01/31 06:08:54.0	92.810	-0.060	0.250	0.720
2020/01/31 06:08:54.1	92.780	-0.050	0.260	0.750
2020/01/31 06:08:54.2	92.750	-0.040	0.260	0.780
2020/01/31 06:08:54.3	92.730	-0.020	0.260	0.800
2020/01/31 06:08:54.4	92.710	-0.010	0.260	0.830
2020/01/31 06:08:54.5	92.690	0.000	0.250	0.850
2020/01/31 06:08:54.6	92.670	0.020	0.240	0.870
2020/01/31 06:08:54.7	92.650	0.030	0.220	0.890
2020/01/31 06:08:54.8	92.630	0.040	0.210	0.900
2020/01/31 06:08:54.9	92.620	0.060	0.190	0.920
2020/01/31 06:08:55.0	92.600	0.070	0.160	0.930
2020/01/31 06:08:55.1	92.590	0.090	0.140	0.940
2020/01/31 06:08:55.2	92.580	0.100	0.110	0.950
2020/01/31 06:08:55.3	92.570	0.120	0.080	0.960
2020/01/31 06:08:55.4	92.560	0.130	0.050	0.970
2020/01/31 06:08:55.5	92.550	0.140	0.010	0.980
2020/01/31 06:08:55.6	92.540	0.160	-0.020	0.980
2020/01/31 06:08:55.7	92.530	0.170	-0.050	0.990
2020/01/31 06:08:55.8	92.520	0.180	-0.090	0.990
2020/01/31 06:08:55.9	92.520	0.190	-0.120	1.000
2020/01/31 06:08:56.0	92.510	0.200	-0.150	1.000
2020/01/31 06:08:56.1	92.500	0.210	-0.190	1.000
2020/01/31 06:08:56.2	92.510	0.220	-0.220	1.000
2020/01/31 06:08:56.3	92.500	0.230	-0.250	1.000
2020/01/31 06:08:56.4	92.500	0.240	-0.290	1.000
2020/01/31 06:08:56.5	92.500	0.250	-0.320	0.990
2020/01/31 06:08:56.6	92.490	0.260	-0.350	0.990
2020/01/31 06:08:56.7	92.490	0.270	-0.370	0.980
2020/01/31 06:08:56.8	92.490	0.270	-0.400	0.970
2020/01/31 06:08:56.9	92.490	0.280	-0.430	0.960
2020/01/31 06:08:57.0	92.500	0.290	-0.450	0.950
2020/01/31 06:08:57.1	92.500	0.290	-0.470	0.930
2020/01/31 06:08:57.2	92.510	0.300	-0.490	0.910
2020/01/31 06:08:57.3	92.520	0.310	-0.510	0.890
2020/01/31 06:08:57.4	92.520	0.310	-0.520	0.870
2020/01/31 06:08:57.5	92.530	0.320	-0.540	0.850
2020/01/31 06:08:57.6	92.540	0.330	-0.550	0.820
2020/01/31 06:08:57.7	92.550	0.330	-0.560	0.800
2020/01/31 06:08:57.8	92.570	0.340	-0.560	0.770
2020/01/31 06:08:57.9	92.580	0.340	-0.570	0.740
2020/01/31 06:08:58.0	92.590	0.350	-0.570	0.710
2020/01/31 06:08:58.1	92.610	0.360	-0.570	0.680
2020/01/31 06:08:58.2	92.620	0.360	-0.570	0.650
2020/01/31 06:08:58.3	92.640	0.370	-0.560	0.620
2020/01/31 06:08:58.4	92.660	0.370	-0.550	0.580
2020/01/31 06:08:58.5	92.670	0.370	-0.540	0.550
2020/01/31 06:08:58.6	92.690	0.370	-0.530	0.520
2020/01/31 06:08:58.7	92.710	0.370	-0.510	0.490
2020/01/31 06:08:58.8	92.730	0.370	-0.490	0.460
2020/01/31 06:08:58.9	92.750	0.370	-0.470	0.430
2020/01/31 06:08:59.0	92.770	0.370	-0.450	0.400
2020/01/31 06:08:59.1	92.790	0.360	-0.420	0.380
2020/01/31 06:08:59.2	92.810	0.350	-0.380	0.360
2020/01/31 06:08:59.3	92.830	0.340	-0.350	0.340
2020/01/31 06:08:59.4	92.850	0.330	-0.310	0.320
2020/01/31 06:08:59.5	92.860	0.310	-0.270	0.310
2020/01/31 06:08:59.6	92.880	0.290	-0.220	0.300
2020/01/31 06:08:59.7	92.890	0.270	-0.180	0.290
2020/01/31 06:08:59.8	92.900	0.250	-0.130	0.290
2020/01/31 06:08:59.9	92.920	0.220	-0.080	0.300
2020/01/31 06:09:00.0	92.930	0.190	-0.030	0.300
2020/01/31 06:09:00.1	92.930	0.160	0.020	0.310
2020/01/31 06:09:00.2	92.930	0.130	0.080	0.320
2020/01/31 06:09:00.3	92.940	0.090	0.130	0.340
2020/01/31 06:09:00.4	92.940	0.050	0.190	0.360
2020/01/31 06:09:00.5	92.950	0.010	0.240	0.390
2020/01/31 06:09:00.6	92.950	-0.040	0.290	0.420
2020/01/31 06:09:00.7	92.950	-0.080	0.350	0.450
2020/01/31 06:09:00.8	92.950	-0.130	0.400	0.480
2020/01/31 06:09:00.9	92.950	-0.170	0.450	0.520
2020/01/31 06:09:01.0	92.950	-0.220	0.490	0.560
2020/01/31 06:09:01.1	92.950	-0.270	0.530	0.590
2020/01/31 06:09:01.2	92.960	-0.320	0.580	0.640
2020/01/31 06:09:01.3	92.960	-0.360	0.610	0.670
2020/01/31 06:09:01.4	92.960	-0.410	0.640	0.710
2020/01/31 06:09:01.5	92.960	-0.460	0.670	0.750
2020/01/31 06:09:01.6	92.970	-0.500	0.690	0.790
2020/01/31 06:09:01.7	92.970	-0.540	0.710	0.820
2020/01/31 06:09:01.8	92.980	-0.580	0.720	0.860
2020/01/31 06:09:01.9	92.980	-0.610	0.720	0.890
2020/01/31 06:09:02.0	92.990	-0.650	0.720	0.920
2020/01/31 06:09:02.1	92.990	-0.670	0.720	0.950
2020/01/31 06:09:02.2	93.000	-0.700	0.700	0.980
2020/01/31 06:09:02.3	93.010	-0.720	0.680	1.010
2020/01/31 06:09:02.4	93.010	-0.740	0.660	1.030
2020/01/31 06:09:02.5	93.020	-0.750	0.630	1.060
2020/01/31 06:09:02.6	93.020	-0.760	0.590	1.080
2020/01/31 06:09:02.7	93.030	-0.760	0.540	1.100
2020/01/31 06:09:02.8	93.040	-0.760	0.490	1.130
2020/01/31 06:09:02.9	93.040	-0.750	0.440	1.150
2020/01/31 06:09:03.0	93.040	-0.740	0.370	1.170
2020/01/31 06:09:03.1	93.040	-0.720	0.310	1.190
2020/01/31 06:09:03.2	93.050	-0.700	0.230	1.200
2020/01/31 06:09:03.3	93.050	-0.680	0.160	1.220
2020/01/31 06:09:03.4	93.050	-0.650	0.080	1.240
2020/01/31 06:09:03.5	93.050	-0.610	-0.010	1.250
2020/01/31 06:09:03.6	93.050	-0.580	-0.090	1.270
2020/01/31 06:09:03.7	93.040	-0.540	-0.180	1.290
2020/01/31 06:09:03.8	93.040	-0.490	-0.270	1.300
2020/01/31 06:09:03.9	93.040	-0.450	-0.360	1.310
2020/01/31 06:09:04.0	93.030	-0.400	-0.450	1.330
2020/01/31 06:09:04.1	93.030	-0.350	-0.540	1.340
2020/01/31 06:09:04.2	93.020	-0.300	-0.630	1.350
2020/01/31 06:09:04.3	93.010	-0.240	-0.710	1.370
2020/01/31 06:09:04.4	93.010	-0.190	-0.790	1.380
2020/01/31 06:09:04.5	93.000	-0.140	-0.870	1.390
2020/01/31 06:09:04.6	93.000	-0.090	-0.950	1.410
2020/01/31 06:09:04.7	92.990	-0.040	-1.020	1.420
2020/01/31 06:09:04.8	92.990	0.010	-1.080	1.430
2020/01/31 06:09:04.9	92.980	0.060	-1.140	1.440
2020/01/31 06:09:05.0	92.980	0.110	-1.190	1.450
2020/01/31 06:09:05.1	92.970	0.150	-1.230	1.470
2020/01/31 06:09:05.2	92.960	0.190	-1.270	1.470
2020/01/31 06:09:05.3	92.950	0.220	-1.290	1.480
2020/01/31 06:09:05.4	92.950	0.260	-1.310	1.490
2020/01/31 06:09:05.5	92.940	0.280	-1.320	1.500
2020/01/31 06:09:05.6	92.930	0.310	-1.320	1.510
2020/01/31 06:09:05.7	92.920	0.330	-1.310	1.510
2020/01/31 06:09:05.8	92.910	0.340	-1.290	1.510
2020/01/31 06:09:05.9	92.910	0.350	-1.260	1.510
2020/01/31 06:09:06.0	92.900	0.360	-1.230	1.510
2020/01/31 06:09:06.1	92.890	0.360	-1.190	1.500
2020/01/31 06:09:06.2	92.880	0.360	-1.130	1.490
2020/01/31 06:09:06.3	92.870	0.350	-1.080	1.480
2020/01/31 06:09:06.4	92.870	0.340	-1.010	1.460
2020/01/31 06:09:06.5	92.860	0.330	-0.950	1.440
2020/01/31 06:09:06.6	92.860	0.310	-0.870	1.410
2020/01/31 06:09:06.7	92.850	0.290	-0.800	1.380
2020/01/31 06:09:06.8	92.850	0.270	-0.720	1.350
2020/01/31 06:09:06.9	92.840	0.240	-0.630	1.320
2020/01/31 06:09:07.0	92.840	0.220	-0.550	1.280
2020/01/31 06:09:07.1	92.840	0.190	-0.460	1.230
2020/01/31 06:09:07.2	92.840	0.160	-0.370	1.190
2020/01/31 06:09:07.3	92.840	0.130	-0.280	1.140
2020/01/31 06:09:07.4	92.840	0.100	-0.190	1.090
2020/01/31 06:09:07.5	92.840	0.070	-0.100	1.040
2020/01/31 06:09:07.6	92.850	0.040	-0.020	0.980
2020/01/31 06:09:07.7	92.850	0.010	0.070	0.930
2020/01/31 06:09:07.8	92.850	-0.020	0.150	0.880
2020/01/31 06:09:07.9	92.860	-0.050	0.230	0.820
2020/01/31 06:09:08.0	92.860	-0.070	0.300	0.770
2020/01/31 06:09:08.1	92.870	-0.090	0.370	0.710
2020/01/31 06:09:08.2	92.880	-0.120	0.440	0.660
2020/01/31 06:09:08.3	92.880	-0.140	0.500	0.610
2020/01/31 06:09:08.4	92.890	-0.150	0.560	0.560
2020/01/31 06:09:08.5	92.890	-0.170	0.610	0.510
2020/01/31 06:09:08.6	92.890	-0.180	0.650	0.460
2020/01/31 06:09:08.7	92.890	-0.190	0.690	0.420
2020/01/31 06:09:08.8	92.890	-0.200	0.720	0.380
2020/01/31 06:09:08.9	92.890	-0.210	0.750	0.340
2020/01/31 06:09:09.0	92.890	-0.210	0.770	0.300
2020/01/31 06:09:09.1	92.890	-0.210	0.780	0.270
2020/01/31 06:09:09.2	92.890	-0.210	0.790	0.230
2020/01/31 06:09:09.3	92.890	-0.200	0.790	0.200
2020/01/31 06:09:09.4	92.880	-0.200	0.780	0.170
2020/01/31 06:09:09.5	92.880	-0.190	0.760	0.140
2020/01/31 06:09:09.6	92.880	-0.180	0.740	0.120
2020/01/31 06:09:09.7	92.880	-0.170	0.720	0.090
2020/01/31 06:09:09.8	92.870	-0.160	0.680	0.070
2020/01/31 06:09:09.9	92.870	-0.140	0.640	0.050
2020/01/31 06:09:10.0	92.870	-0.130	0.600	0.030
2020/01/31 06:09:10.1	92.860	-0.110	0.550	0.010
2020/01/31 06:09:10.2	92.860	-0.090	0.480	-0.010
2020/01/31 06:09:10.3	92.860	-0.080	0.420	-0.030
2020/01/31 06:09:10.4	92.850	-0.060	0.360	-0.040
2020/01/31 06:09:10.5	92.850	-0.040	0.290	-0.060
2020/01/31 06:09:10.6	92.850	-0.020	0.220	-0.080
2020/01/31 06:09:10.7	92.850	0.000	0.140	-0.100
2020/01/31 06:09:10.8	92.850	0.020	0.060	-0.120
2020/01/31 06:09:10.9	92.850	0.040	-0.020	-0.140
2020/01/31 06:09:11.0	92.860	0.070	-0.100	-0.160
2020/01/31 06:09:11.1	92.860	0.090	-0.180	-0.180
2020/01/31 06:09:11.2	92.870	0.110	-0.270	-0.210
2020/01/31 06:09:11.3	92.870	0.130	-0.350	-0.230
2020/01/31 06:09:11.4	92.880	0.150	-0.430	-0.250
2020/01/31 06:09:11.5	92.890	0.170	-0.510	-0.280
2020/01/31 06:09:11.6	92.910	0.190	-0.590	-0.300
2020/01/31 06:09:11.7	92.920	0.200	-0.660	-0.320
2020/01/31 06:09:11.8	92.930	0.220	-0.730	-0.340
2020/01/31 06:09:11.9	92.950	0.240	-0.800	-0.360
2020/01/31 06:09:12.0	92.960	0.260	-0.860	-0.380
2020/01/31 06:09:12.1	92.980	0.270	-0.910	-0.390
2020/01/31 06:09:12.2	93.000	0.290	-0.960	-0.410
2020/01/31 06:09:12.3	93.020	0.300	-1.010	-0.420
2020/01/31 06:09:12.4	93.040	0.320	-1.040	-0.430
2020/01/31 06:09:12.5	93.050	0.330	-1.070	-0.430
2020/01/31 06:09:12.6	93.070	0.340	-1.090	-0.430
2020/01/31 06:09:12.7	93.080	0.350	-1.100	-0.420
2020/01/31 06:09:12.8	93.100	0.360	-1.110	-0.420
2020/01/31 06:09:12.9	93.120	0.360	-1.100	-0.400
2020/01/31 06:09:13.0	93.130	0.370	-1.090	-0.380
2020/01/31 06:09:13.1	93.140	0.380	-1.070	-0.360
2020/01/31 06:09:13.2	93.150	0.380	-1.040	-0.330
2020/01/31 06:09:13.3	93.160	0.380	-1.000	-0.300
2020/01/31 06:09:13.4	93.170	0.390	-0.960	-0.270
2020/01/31 06:09:13.5	93.180	0.390	-0.910	-0.230
2020/01/31 06:09:13.6	93.180	0.390	-0.850	-0.190
2020/01/31 06:09:13.7	93.190	0.380	-0.790	-0.140
2020/01/31 06:09:13.8	93.190	0.380	-0.720	-0.090
2020/01/31 06:09:13.9	93.190	0.380	-0.650	-0.040
2020/01/31 06:09:14.0	93.190	0.370	-0.570	0.010
2020/01/31 06:09:14.1	93.190	0.360	-0.490	0.070
2020/01/31 06:09:14.2	93.190	0.360	-0.410	0.120
2020/01/31 06:09:14.3	93.190	0.350	-0.330	0.180
2020/01/31 06:09:14.4	93.190	0.340	-0.250	0.240
2020/01/31 06:09:14.5	93.190	0.330	-0.170	0.300
2020/01/31 06:09:14.6	93.190	0.320	-0.090	0.370
2020/01/31 06:09:14.7	93.190	0.300	-0.010	0.430
2020/01/31 06:09:14.8	93.190	0.290	0.070	0.490
2020/01/31 06:09:14.9	93.190	0.270	0.150	0.550
2020/01/31 06:09:15.0	93.180	0.260	0.220	0.620
2020/01/31 06:09:15.1	93.180	0.240	0.280	0.680
2020/01/31 06:09:15.2	93.190	0.220	0.350	0.750
2020/01/31 06:09:15.3	93.190	0.200	0.410	0.810
2020/01/31 06:09:15.4	93.190	0.180	0.460	0.880
2020/01/31 06:09:15.5	93.190	0.160	0.500	0.940
2020/01/31 06:09:15.6	93.190	0.140	0.540	1.010
2020/01/31 06:09:15.7	93.180	0.120	0.570	1.080
2020/01/31 06:09:15.8	93.180	0.100	0.600	1.150
2020/01/31 06:09:15.9	93.180	0.070	0.620	1.210
2020/01/31 06:09:16.0	93.170	0.050	0.630	1.280
2020/01/31 06:09:16.1	93.170	0.030	0.640	1.350
2020/01/31 06:09:16.2	93.170	0.000	0.640	1.420
2020/01/31 06:09:16.3	93.170	-0.020	0.630	1.490
2020/01/31 06:09:16.4	93.160	-0.050	0.620	1.560
2020/01/31 06:09:16.5	93.160	-0.070	0.600	1.630
2020/01/31 06:09:16.6	93.160	-0.100	0.580	1.700
2020/01/31 06:09:16.7	93.150	-0.120	0.550	1.760
2020/01/31 06:09:16.8	93.150	-0.150	0.520	1.820
2020/01/31 06:09:16.9	93.150	-0.170	0.490	1.880
2020/01/31 06:09:17.0	93.140	-0.200	0.450	1.940
2020/01/31 06:09:17.1	93.140	-0.220	0.410	1.990
2020/01/31 06:09:17.2	93.150	-0.250	0.370	2.040
2020/01/31 06:09:17.3	93.150	-0.270	0.330	2.090
2020/01/31 06:09:17.4	93.150	-0.300	0.290	2.130
2020/01/31 06:09:17.5	93.150	-0.320	0.250	2.170
2020/01/31 06:09:17.6	93.160	-0.350	0.210	2.200
2020/01/31 06:09:17.7	93.160	-0.380	0.170	2.230
2020/01/31 06:09:17.8	93.170	-0.400	0.130	2.260
2020/01/31 06:09:17.9	93.180	-0.430	0.090	2.280
2020/01/31 06:09:18.0	93.190	-0.460	0.050	2.300
2020/01/31 06:09:18.1	93.190	-0.480	0.020	2.310
2020/01/31 06:09:18.2	93.210	-0.510	-0.010	2.320
2020/01/31 06:09:18.3	93.220	-0.530	-0.040	2.320
2020/01/31 06:09:18.4	93.230	-0.550	-0.060	2.320
2020/01/31 06:09:18.5	93.240	-0.580	-0.090	2.320
2020/01/31 06:09:18.6	93.250	-0.600	-0.110	2.320
2020/01/31 06:09:18.7	93.250	-0.620	-0.130	2.310
2020/01/31 06:09:18.8	93.260	-0.640	-0.140	2.300
2020/01/31 06:09:18.9	93.270	-0.650	-0.160	2.280
2020/01/31 06:09:19.0	93.270	-0.670	-0.170	2.260
2020/01/31 06:09:19.1	93.280	-0.680	-0.180	2.240
2020/01/31 06:09:19.2	93.280	-0.690	-0.190	2.220
2020/01/31 06:09:19.3	93.290	-0.700	-0.200	2.190
2020/01/31 06:09:19.4	93.290	-0.710	-0.210	2.160
2020/01/31 06:09:19.5	93.290	-0.710	-0.220	2.130
2020/01/31 06:09:19.6	93.290	-0.710	-0.230	2.100
2020/01/31 06:09:19.7	93.290	-0.700	-0.230	2.060
2020/01/31 06:09:19.8	93.290	-0.700	-0.240	2.020
2020/01/31 06:09:19.9	93.280	-0.680	-0.250	1.980
2020/01/31 06:09:20.0	93.280	-0.670	-0.260	1.940
2020/01/31 06:09:20.1	93.280	-0.650	-0.280	1.890
2020/01/31 06:09:20.2	93.280	-0.630	-0.290	1.840
2020/01/31 06:09:20.3	93.270	-0.610	-0.300	1.800
2020/01/31 06:09:20.4	93.270	-0.580	-0.320	1.750
2020/01/31 06:09:20.5	93.270	-0.550	-0.340	1.700
2020/01/31 06:09:20.6	93.260	-0.510	-0.360	1.640
2020/01/31 06:09:20.7	93.260	-0.470	-0.390	1.590
2020/01/31 06:09:20.8	93.260	-0.430	-0.410	1.540
2020/01/31 06:09:20.9	93.260	-0.390	-0.440	1.480
2020/01/31 06:09:21.0	93.260	-0.340	-0.470	1.430
2020/01/31 06:09:21.1	93.260	-0.290	-0.500	1.370
2020/01/31 06:09:21.2	93.270	-0.240	-0.530	1.310
2020/01/31 06:09:21.3	93.270	-0.180	-0.570	1.260
2020/01/31 06:09:21.4	93.280	-0.130	-0.600	1.200
2020/01/31 06:09:21.5	93.280	-0.070	-0.630	1.140
2020/01/31 06:09:21.6	93.290	-0.010	-0.660	1.080
2020/01/31 06:09:21.7	93.290	0.050	-0.690	1.030
2020/01/31 06:09:21.8	93.300	0.100	-0.720	0.970
2020/01/31 06:09:21.9	93.310	0.160	-0.750	0.910
2020/01/31 06:09:22.0	93.320	0.220	-0.780	0.850
2020/01/31 06:09:22.1	93.330	0.270	-0.800	0.790
2020/01/31 06:09:22.2	93.340	0.320	-0.820	0.730
2020/01/31 06:09:22.3	93.350	0.370	-0.840	0.660
2020/01/31 06:09:22.4	93.360	0.420	-0.850	0.600
2020/01/31 06:09:22.5	93.370	0.460	-0.860	0.540
2020/01/31 06:09:22.6	93.380	0.500	-0.860	0.480
2020/01/31 06:09:22.7	93.390	0.540	-0.860	0.420
2020/01/31 06:09:22.8	93.400	0.570	-0.850	0.360
2020/01/31 06:09:22.9	93.410	0.600	-0.850	0.300
2020/01/31 06:09:23.0	93.410	0.630	-0.830	0.230
2020/01/31 06:09:23.1	93.420	0.650	-0.820	0.170
2020/01/31 06:09:23.2	93.420	0.660	-0.790	0.110
2020/01/31 06:09:23.3	93.420	0.670	-0.760	0.050
2020/01/31 06:09:23.4	93.420	0.680	-0.730	-0.010
2020/01/31 06:09:23.5	93.420	0.680	-0.700	-0.070
2020/01/31 06:09:23.6	93.420	0.680	-0.660	-0.140
2020/01/31 06:09:23.7	93.410	0.670	-0.620	-0.190
2020/01/31 06:09:23.8	93.410	0.660	-0.580	-0.250
2020/01/31 06:09:23.9	93.400	0.650	-0.530	-0.310
2020/01/31 06:09:24.0	93.390	0.630	-0.480	-0.360
2020/01/31 06:09:24.1	93.380	0.610	-0.430	-0.410
2020/01/31 06:09:24.2	93.370	0.580	-0.380	-0.460
2020/01/31 06:09:24.3	93.350	0.560	-0.320	-0.500
2020/01/31 06:09:24.4	93.340	0.530	-0.260	-0.540
2020/01/31 06:09:24.5	93.320	0.500	-0.210	-0.580
2020/01/31 06:09:24.6	93.310	0.460	-0.150	-0.610
2020/01/31 06:09:24.7	93.290	0.430	-0.090	-0.630
2020/01/31 06:09:24.8	93.270	0.390	-0.030	-0.660
2020/01/31 06:09:24.9	93.260	0.350	0.030	-0.680
2020/01/31 06:09:25.0	93.240	0.320	0.090	-0.690
2020/01/31 06:09:25.1	93.220	0.280	0.140	-0.710
2020/01/31 06:09:25.2	93.210	0.240	0.200	-0.710
2020/01/31 06:09:25.3	93.190	0.200	0.250	-0.710
2020/01/31 06:09:25.4	93.180	0.170	0.300	-0.720
2020/01/31 06:09:25.5	93.160	0.130	0.350	-0.710
2020/01/31 06:09:25.6	93.150	0.100	0.390	-0.710
2020/01/31 06:09:25.7	93.140	0.060	0.430	-0.700
2020/01/31 06:09:25.8	93.120	0.030	0.470	-0.690
2020/01/31 06:09:25.9	93.110	0.000	0.500	-0.680
2020/01/31 06:09:26.0	93.100	-0.030	0.520	-0.670
2020/01/31 06:09:26.1	93.100	-0.050	0.540	-0.650
2020/01/31 06:09:26.2	93.080	-0.070	0.560	-0.630
2020/01/31 06:09:26.3	93.080	-0.090	0.570	-0.610
2020/01/31 06:09:26.4	93.080	-0.110	0.580	-0.590
2020/01/31 06:09:26.5	93.080	-0.130	0.580	-0.570
2020/01/31 06:09:26.6	93.080	-0.140	0.570	-0.550
2020/01/31 06:09:26.7	93.080	-0.150	0.560	-0.530
2020/01/31 06:09:26.8	93.090	-0.160	0.540	-0.500
2020/01/31 06:09:26.9	93.100	-0.170	0.520	-0.480
2020/01/31 06:09:27.0	93.110	-0.170	0.500	-0.450
2020/01/31 06:09:27.1	93.120	-0.180	0.470	-0.420
2020/01/31 06:09:27.2	93.130	-0.180	0.430	-0.400
2020/01/31 06:09:27.3	93.140	-0.180	0.390	-0.370
2020/01/31 06:09:27.4	93.160	-0.180	0.350	-0.340
2020/01/31 06:09:27.5	93.180	-0.170	0.300	-0.310
2020/01/31 06:09:27.6	93.200	-0.170	0.250	-0.280
2020/01/31 06:09:27.7	93.220	-0.160	0.200	-0.240
2020/01/31 06:09:27.8	93.240	-0.160	0.150	-0.210
2020/01/31 06:09:27.9	93.260	-0.150	0.100	-0.180
2020/01/31 06:09:28.0	93.290	-0.150	0.050	-0.140
2020/01/31 06:09:28.1	93.320	-0.140	-0.000	-0.100
2020/01/31 06:09:28.2	93.340	-0.130	-0.060	-0.060
2020/01/31 06:09:28.3	93.370	-0.120	-0.110	-0.020
2020/01/31 06:09:28.4	93.400	-0.120	-0.160	0.030
2020/01/31 06:09:28.5	93.420	-0.110	-0.210	0.070
2020/01/31 06:09:28.6	93.450	-0.100	-0.250	0.120
2020/01/31 06:09:28.7	93.480	-0.100	-0.290	0.160
2020/01/31 06:09:28.8	93.500	-0.090	-0.330	0.220
2020/01/31 06:09:28.9	93.530	-0.080	-0.360	0.270
2020/01/31 06:09:29.0	93.550	-0.080	-0.400	0.320
2020/01/31 06:09:29.1	93.570	-0.080	-0.420	0.370
2020/01/31 06:09:29.2	93.590	-0.070	-0.440	0.430
2020/01/31 06:09:29.3	93.610	-0.070	-0.460	0.490
2020/01/31 06:09:29.4	93.630	-0.070	-0.480	0.550
2020/01/31 06:09:29.5	93.650	-0.070	-0.480	0.610
2020/01/31 06:09:29.6	93.660	-0.070	-0.490	0.670
2020/01/31 06:09:29.7	93.680	-0.070	-0.490	0.740
2020/01/31 06:09:29.8	93.690	-0.070	-0.490	0.800
2020/01/31 06:09:29.9	93.690	-0.070	-0.480	0.860
2020/01/31 06:09:30.0	93.700	-0.070	-0.470	0.930
2020/01/31 06:09:30.1	93.700	-0.080	-0.450	1.000
2020/01/31 06:09:30.2	93.710	-0.080	-0.430	1.060
2020/01/31 06:09:30.3	93.710	-0.080	-0.410	1.130
2020/01/31 06:09:30.4	93.700	-0.090	-0.390	1.200
2020/01/31 06:09:30.5	93.700	-0.090	-0.370	1.270
2020/01/31 06:09:30.6	93.690	-0.090	-0.340	1.340
2020/01/31 06:09:30.7	93.670	-0.100	-0.310	1.410
2020/01/31 06:09:30.8	93.660	-0.100	-0.280	1.480
2020/01/31 06:09:30.9	93.640	-0.110	-0.250	1.550
2020/01/31 06:09:31.0	93.620	-0.110	-0.220	1.620
2020/01/31 06:09:31.1	93.600	-0.110	-0.200	1.680
2020/01/31 06:09:31.2	93.580	-0.120	-0.160	1.750
2020/01/31 06:09:31.3	93.550	-0.120	-0.140	1.820
2020/01/31 06:09:31.4	93.530	-0.120	-0.110	1.880
2020/01/31 06:09:31.5	93.500	-0.120	-0.090	1.940
2020/01/31 06:09:31.6	93.480	-0.120	-0.070	2.000
2020/01/31 06:09:31.7	93.460	-0.120	-0.050	2.060
2020/01/31 06:09:31.8	93.430	-0.120	-0.030	2.110
2020/01/31 06:09:31.9	93.410	-0.110	-0.020	2.150
2020/01/31 06:09:32.0	93.390	-0.110	-0.010	2.200
2020/01/31 06:09:32.1	93.370	-0.100	-0.010	2.240
2020/01/31 06:09:32.2	93.360	-0.100	-0.010	2.270
2020/01/31 06:09:32.3	93.340	-0.090	-0.010	2.300
2020/01/31 06:09:32.4	93.330	-0.080	-0.020	2.320
2020/01/31 06:09:32.5	93.320	-0.070	-0.030	2.350
2020/01/31 06:09:32.6	93.310	-0.050	-0.040	2.360
2020/01/31 06:09:32.7	93.300	-0.040	-0.060	2.370
2020/01/31 06:09:32.8	93.290	-0.030	-0.080	2.380
2020/01/31 06:09:32.9	93.290	-0.010	-0.100	2.380
2020/01/31 06:09:33.0	93.280	0.010	-0.130	2.380
2020/01/31 06:09:33.1	93.280	0.020	-0.160	2.380
2020/01/31 06:09:33.2	93.280	0.040	-0.180	2.370
2020/01/31 06:09:33.3	93.290	0.060	-0.210	2.350
2020/01/31 06:09:33.4	93.290	0.080	-0.250	2.330
2020/01/31 06:09:33.5	93.290	0.100	-0.280	2.310
2020/01/31 06:09:33.6	93.300	0.110	-0.310	2.280
2020/01/31 06:09:33.7	93.300	0.130	-0.350	2.250
2020/01/31 06:09:33.8	93.310	0.150	-0.380	2.210
2020/01/31 06:09:33.9	93.320	0.170	-0.410	2.170
2020/01/31 06:09:34.0	93.320	0.180	-0.440	2.130
2020/01/31 06:09:34.1	93.330	0.200	-0.470	2.080
2020/01/31 06:09:34.2	93.350	0.210	-0.500	2.030
2020/01/31 06:09:34.3	93.360	0.220	-0.520	1.970
2020/01/31 06:09:34.4	93.370	0.240	-0.540	1.910
2020/01/31 06:09:34.5	93.380	0.240	-0.560	1.840
2020/01/31 06:09:34.6	93.390	0.250	-0.570	1.780
2020/01/31 06:09:34.7	93.400	0.260	-0.580	1.710
2020/01/31 06:09:34.8	93.410	0.260	-0.590	1.630
2020/01/31 06:09:34.9	93.420	0.270	-0.590	1.560
2020/01/31 06:09:35.0	93.430	0.270	-0.580	1.480
2020/01/31 06:09:35.1	93.450	0.270	-0.580	1.400
2020/01/31 06:09:35.2	93.460	0.270	-0.560	1.310
2020/01/31 06:09:35.3	93.470	0.260	-0.540	1.230
2020/01/31 06:09:35.4	93.490	0.260	-0.520	1.150
2020/01/31 06:09:35.5	93.500	0.250	-0.500	1.060
2020/01/31 06:09:35.6	93.510	0.240	-0.470	0.980
2020/01/31 06:09:35.7	93.520	0.230	-0.440	0.890
2020/01/31 06:09:35.8	93.540	0.220	-0.410	0.810
2020/01/31 06:09:35.9	93.550	0.210	-0.370	0.730
2020/01/31 06:09:36.0	93.560	0.190	-0.330	0.650
2020/01/31 06:09:36.1	93.580	0.180	-0.290	0.570
2020/01/31 06:09:36.2	93.580	0.160	-0.250	0.500
2020/01/31 06:09:36.3	93.590	0.150	-0.200	0.420
2020/01/31 06:09:36.4	93.600	0.130	-0.160	0.350
2020/01/31 06:09:36.5	93.610	0.120	-0.120	0.280
2020/01/31 06:09:36.6	93.620	0.100	-0.080	0.220
2020/01/31 06:09:36.7	93.630	0.080	-0.030	0.160
2020/01/31 06:09:36.8	93.630	0.060	0.010	0.100
2020/01/31 06:09:36.9	93.640	0.050	0.040	0.050
2020/01/31 06:09:37.0	93.650	0.030	0.080	0.000
2020/01/31 06:09:37.1	93.650	0.010	0.110	-0.040
2020/01/31 06:09:37.2	93.650	-0.000	0.150	-0.080
2020/01/31 06:09:37.3	93.650	-0.020	0.180	-0.120
2020/01/31 06:09:37.4	93.650	-0.030	0.200	-0.150
2020/01/31 06:09:37.5	93.650	-0.050	0.220	-0.180
2020/01/31 06:09:37.6	93.640	-0.060	0.240	-0.200
2020/01/31 06:09:37.7	93.640	-0.080	0.250	-0.220
2020/01/31 06:09:37.8	93.640	-0.090	0.260	-0.230
2020/01/31 06:09:37.9	93.630	-0.100	0.270	-0.240
2020/01/31 06:09:38.0	93.630	-0.120	0.270	-0.250
2020/01/31 06:09:38.1	93.620	-0.130	0.270	-0.250
2020/01/31 06:09:38.2	93.620	-0.140	0.260	-0.250
2020/01/31 06:09:38.3	93.610	-0.150	0.260	-0.250
2020/01/31 06:09:38.4	93.610	-0.160	0.250	-0.240
2020/01/31 06:09:38.5	93.600	-0.170	0.230	-0.240
2020/01/31 06:09:38.6	93.590	-0.180	0.220	-0.230
2020/01/31 06:09:38.7	93.580	-0.190	0.200	-0.220
2020/01/31 06:09:38.8	93.580	-0.200	0.180	-0.210
2020/01/31 06:09:38.9	93.570	-0.210	0.160	-0.200
2020/01/31 06:09:39.0	93.560	-0.220	0.140	-0.190
2020/01/31 06:09:39.1	93.550	-0.220	0.120	-0.170
2020/01/31 06:09:39.2	93.540	-0.230	0.090	-0.160
2020/01/31 06:09:39.3	93.540	-0.240	0.070	-0.140
2020/01/31 06:09:39.4	93.530	-0.250	0.040	-0.130
2020/01/31 06:09:39.5	93.520	-0.250	0.020	-0.110
2020/01/31 06:09:39.6	93.520	-0.260	-0.000	-0.100
2020/01/31 06:09:39.7	93.510	-0.270	-0.020	-0.080
2020/01/31 06:09:39.8	93.500	-0.270	-0.050	-0.060
2020/01/31 06:09:39.9	93.500	-0.280	-0.070	-0.040
2020/01/31 06:09:40.0	93.490	-0.290	-0.080	-0.030
2020/01/31 06:09:40.1	93.490	-0.290	-0.100	-0.010
2020/01/31 06:09:40.2	93.490	-0.300	-0.120	0.010
2020/01/31 06:09:40.3	93.480	-0.310	-0.130	0.030
2020/01/31 06:09:40.4	93.480	-0.310	-0.140	0.040
2020/01/31 06:09:40.5	93.480	-0.320	-0.150	0.060
2020/01/31 06:09:40.6	93.480	-0.320	-0.160	0.080
2020/01/31 06:09:40.7	93.480	-0.320	-0.160	0.100
2020/01/31 06:09:40.8	93.480	-0.330	-0.170	0.120
2020/01/31 06:09:40.9	93.480	-0.330	-0.170	0.140
2020/01/31 06:09:41.0	93.480	-0.330	-0.170	0.150
2020/01/31 06:09:41.1	93.490	-0.330	-0.180	0.170
2020/01/31 06:09:41.2	93.500	-0.330	-0.180	0.200
2020/01/31 06:09:41.3	93.510	-0.330	-0.180	0.220
2020/01/31 06:09:41.4	93.510	-0.330	-0.180	0.250
2020/01/31 06:09:41.5	93.520	-0.320	-0.180	0.270
2020/01/31 06:09:41.6	93.530	-0.320	-0.180	0.290
2020/01/31 06:09:41.7	93.540	-0.310	-0.180	0.320
2020/01/31 06:09:41.8	93.540	-0.300	-0.180	0.350
2020/01/31 06:09:41.9	93.550	-0.290	-0.180	0.370
2020/01/31 06:09:42.0	93.560	-0.280	-0.180	0.400
2020/01/31 06:09:42.1	93.570	-0.260	-0.190	0.430
2020/01/31 06:09:42.2	93.580	-0.240	-0.190	0.460
2020/01/31 06:09:42.3	93.590	-0.230	-0.200	0.490
2020/01/31 06:09:42.4	93.600	-0.210	-0.210	0.520
2020/01/31 06:09:42.5	93.610	-0.180	-0.220	0.540
2020/01/31 06:09:42.6	93.620	-0.160	-0.230	0.570
2020/01/31 06:09:42.7	93.630	-0.140	-0.240	0.600
2020/01/31 06:09:42.8	93.640	-0.110	-0.260	0.630
2020/01/31 06:09:42.9	93.650	-0.080	-0.270	0.650
2020/01/31 06:09:43.0	93.660	-0.050	-0.290	0.680
2020/01/31 06:09:43.1	93.670	-0.020	-0.300	0.700
2020/01/31 06:09:43.2	93.690	0.010	-0.320	0.720
2020/01/31 06:09:43.3	93.700	0.040	-0.340	0.750
2020/01/31 06:09:43.4	93.710	0.070	-0.360	0.770
2020/01/31 06:09:43.5	93.720	0.100	-0.380	0.790
2020/01/31 06:09:43.6	93.730	0.140	-0.400	0.800
2020/01/31 06:09:43.7	93.740	0.170	-0.420	0.820
2020/01/31 06:09:43.8	93.750	0.200	-0.440	0.840
2020/01/31 06:09:43.9	93.760	0.230	-0.450	0.860
2020/01/31 06:09:44.0	93.770	0.270	-0.470	0.870
2020/01/31 06:09:44.1	93.780	0.300	-0.490	0.890
2020/01/31 06:09:44.2	93.790	0.330	-0.500	0.900
2020/01/31 06:09:44.3	93.790	0.360	-0.520	0.910
2020/01/31 06:09:44.4	93.800	0.380	-0.530	0.930
2020/01/31 06:09:44.5	93.810	0.410	-0.540	0.940
2020/01/31 06:09:44.6	93.820	0.440	-0.540	0.950
2020/01/31 06:09:44.7	93.820	0.460	-0.550	0.960
2020/01/31 06:09:44.8	93.830	0.480	-0.550	0.980
2020/01/31 06:09:44.9	93.830	0.500	-0.550	0.990
2020/01/31 06:09:45.0	93.840	0.520	-0.550	1.000
2020/01/31 06:09:45.1	93.840	0.530	-0.540	1.010
2020/01/31 06:09:45.2	93.830	0.540	-0.530	1.020
2020/01/31 06:09:45.3	93.830	0.550	-0.520	1.030
2020/01/31 06:09:45.4	93.830	0.560	-0.510	1.040
2020/01/31 06:09:45.5	93.830	0.570	-0.500	1.060
2020/01/31 06:09:45.6	93.830	0.570	-0.490	1.070
2020/01/31 06:09:45.7	93.830	0.570	-0.470	1.080
2020/01/31 06:09:45.8	93.830	0.570	-0.460	1.090
2020/01/31 06:09:45.9	93.830	0.570	-0.440	1.100
2020/01/31 06:09:46.0	93.830	0.570	-0.420	1.120
2020/01/31 06:09:46.1	93.830	0.560	-0.400	1.130
2020/01/31 06:09:46.2	93.830	0.550	-0.380	1.150
2020/01/31 06:09:46.3	93.820	0.540	-0.350	1.160
2020/01/31 06:09:46.4	93.820	0.530	-0.330	1.180
2020/01/31 06:09:46.5	93.820	0.520	-0.310	1.200
2020/01/31 06:09:46.6	93.810	0.500	-0.280	1.210
2020/01/31 06:09:46.7	93.810	0.480	-0.260	1.230
2020/01/31 06:09:46.8	93.810	0.460	-0.230	1.250
2020/01/31 06:09:46.9	93.800	0.440	-0.200	1.270
2020/01/31 06:09:47.0	93.790	0.420	-0.180	1.300
2020/01/31 06:09:47.1	93.790	0.400	-0.150	1.320
2020/01/31 06:09:47.2	93.770	0.370	-0.120	1.340
2020/01/31 06:09:47.3	93.770	0.350	-0.080	1.360
2020/01/31 06:09:47.4	93.760	0.320	-0.050	1.380
2020/01/31 06:09:47.5	93.750	0.290	-0.020	1.400
2020/01/31 06:09:47.6	93.740	0.260	0.010	1.420
2020/01/31 06:09:47.7	93.720	0.230	0.050	1.440
2020/01/31 06:09:47.8	93.710	0.200	0.080	1.450
2020/01/31 06:09:47.9	93.700	0.170	0.110	1.460
2020/01/31 06:09:48.0	93.690	0.140	0.140	1.470
2020/01/31 06:09:48.1	93.680	0.100	0.180	1.470
2020/01/31 06:09:48.2	93.660	0.070	0.210	1.470
2020/01/31 06:09:48.3	93.650	0.040	0.240	1.470
2020/01/31 06:09:48.4	93.640	0.000	0.270	1.460
2020/01/31 06:09:48.5	93.640	-0.030	0.290	1.440
2020/01/31 06:09:48.6	93.630	-0.060	0.320	1.430
2020/01/31 06:09:48.7	93.630	-0.090	0.340	1.400
2020/01/31 06:09:48.8	93.620	-0.120	0.360	1.380
2020/01/31 06:09:48.9	93.620	-0.150	0.380	1.350
2020/01/31 06:09:49.0	93.620	-0.170	0.390	1.310
2020/01/31 06:09:49.1	93.620	-0.200	0.410	1.280
2020/01/31 06:09:49.2	93.620	-0.220	0.410	1.230
2020/01/31 06:09:49.3	93.620	-0.250	0.420	1.190
2020/01/31 06:09:49.4	93.630	-0.270	0.420	1.150
2020/01/31 06:09:49.5	93.630	-0.280	0.420	1.100
2020/01/31 06:09:49.6	93.640	-0.300	0.410	1.060
2020/01/31 06:09:49.7	93.650	-0.310	0.400	1.010
2020/01/31 06:09:49.8	93.660	-0.320	0.380	0.960
2020/01/31 06:09:49.9	93.670	-0.330	0.370	0.920
2020/01/31 06:09:50.0	93.680	-0.330	0.340	0.870
2020/01/31 06:09:50.1	93.690	-0.330	0.320	0.820
2020/01/31 06:09:50.2	93.710	-0.330	0.280	0.780
2020/01/31 06:09:50.3	93.720	-0.330	0.250	0.740
2020/01/31 06:09:50.4	93.740	-0.320	0.210	0.690
2020/01/31 06:09:50.5	93.760	-0.310	0.170	0.650
2020/01/31 06:09:50.6	93.770	-0.300	0.130	0.610
2020/01/31 06:09:50.7	93.790	-0.280	0.090	0.570
2020/01/31 06:09:50.8	93.810	-0.260	0.040	0.540
2020/01/31 06:09:50.9	93.830	-0.240	-0.010	0.500
2020/01/31 06:09:51.0	93.850	-0.220	-0.060	0.460
2020/01/31 06:09:51.1	93.880	-0.200	-0.110	0.430
2020/01/31 06:09:51.2	93.900	-0.180	-0.170	0.400
2020/01/31 06:09:51.3	93.930	-0.150	-0.220	0.370
2020/01/31 06:09:51.4	93.950	-0.130	-0.270	0.340
2020/01/31 06:09:51.5	93.980	-0.100	-0.320	0.310
2020/01/31 06:09:51.6	94.000	-0.070	-0.370	0.290
2020/01/31 06:09:51.7	94.020	-0.050	-0.420	0.270
2020/01/31 06:09:51.8	94.050	-0.020	-0.470	0.240
2020/01/31 06:09:51.9	94.070	0.000	-0.510	0.220
2020/01/31 06:09:52.0	94.090	0.030	-0.550	0.210
2020/01/31 06:09:52.1	94.110	0.050	-0.590	0.190
2020/01/31 06:09:52.2	94.130	0.070	-0.630	0.180
2020/01/31 06:09:52.3	94.140	0.090	-0.660	0.170
2020/01/31 06:09:52.4	94.160	0.110	-0.680	0.160
2020/01/31 06:09:52.5	94.170	0.130	-0.700	0.150
2020/01/31 06:09:52.6	94.180	0.140	-0.720	0.150
2020/01/31 06:09:52.7	94.190	0.150	-0.730	0.140
2020/01/31 06:09:52.8	94.190	0.160	-0.740	0.140
2020/01/31 06:09:52.9	94.200	0.160	-0.740	0.140
2020/01/31 06:09:53.0	94.200	0.170	-0.740	0.150
2020/01/31 06:09:53.1	94.200	0.170	-0.730	0.150
2020/01/31 06:09:53.2	94.200	0.160	-0.710	0.160
2020/01/31 06:09:53.3	94.190	0.160	-0.700	0.170
2020/01/31 06:09:53.4	94.190	0.150	-0.670	0.180
2020/01/31 06:09:53.5	94.180	0.140	-0.640	0.200
2020/01/31 06:09:53.6	94.170	0.130	-0.610	0.220
2020/01/31 06:09:53.7	94.150	0.110	-0.580	0.230
2020/01/31 06:09:53.8	94.140	0.090	-0.530	0.260
2020/01/31 06:09:53.9	94.120	0.070	-0.490	0.280
2020/01/31 06:09:54.0	94.100	0.050	-0.450	0.300
2020/01/31 06:09:54.1	94.090	0.030	-0.400	0.330
2020/01/31 06:09:54.2	94.080	0.000	-0.340	0.360
2020/01/31 06:09:54.3	94.060	-0.030	-0.290	0.390
2020/01/31 06:09:54.4	94.030	-0.050	-0.240	0.420
2020/01/31 06:09:54.5	94.010	-0.080	-0.190	0.450
2020/01/31 06:09:54.6	93.990	-0.110	-0.130	0.490
2020/01/31 06:09:54.7	93.960	-0.140	-0.080	0.520
2020/01/31 06:09:54.8	93.940	-0.170	-0.030	0.560
2020/01/31 06:09:54.9	93.910	-0.210	0.020	0.590
2020/01/31 06:09:55.0	93.890	-0.240	0.070	0.630
2020/01/31 06:09:55.1	93.870	-0.260	0.120	0.660
2020/01/31 06:09:55.2	93.840	-0.290	0.160	0.690
2020/01/31 06:09:55.3	93.810	-0.320	0.210	0.720
2020/01/31 06:09:55.4	93.790	-0.350	0.240	0.750
2020/01/31 06:09:55.5	93.770	-0.370	0.280	0.780
2020/01/31 06:09:55.6	93.760	-0.390	0.310	0.800
2020/01/31 06:09:55.7	93.740	-0.410	0.330	0.830
2020/01/31 06:09:55.8	93.720	-0.430	0.360	0.850
2020/01/31 06:09:55.9	93.710	-0.450	0.370	0.870
2020/01/31 06:09:56.0	93.700	-0.460	0.380	0.880
2020/01/31 06:09:56.1	93.690	-0.470	0.390	0.890
2020/01/31 06:09:56.2	93.680	-0.480	0.390	0.900
2020/01/31 06:09:56.3	93.680	-0.480	0.390	0.910
2020/01/31 06:09:56.4	93.670	-0.480	0.380	0.910
2020/01/31 06:09:56.5	93.670	-0.480	0.360	0.920
2020/01/31 06:09:56.6	93.670	-0.470	0.340	0.910
2020/01/31 06:09:56.7	93.670	-0.470	0.310	0.910
2020/01/31 06:09:56.8	93.670	-0.450	0.280	0.900
2020/01/31 06:09:56.9	93.680	-0.440	0.240	0.890
2020/01/31 06:09:57.0	93.680	-0.420	0.200	0.880
2020/01/31 06:09:57.1	93.690	-0.400	0.150	0.870
2020/01/31 06:09:57.2	93.690	-0.380	0.100	0.850
2020/01/31 06:09:57.3	93.700	-0.350	0.050	0.830
2020/01/31 06:09:57.4	93.710	-0.320	-0.010	0.820
2020/01/31 06:09:57.5	93.720	-0.290	-0.070	0.800
2020/01/31 06:09:57.6	93.740	-0.260	-0.130	0.780
2020/01/31 06:09:57.7	93.750	-0.230	-0.200	0.760
2020/01/31 06:09:57.8	93.760	-0.190	-0.260	0.740
2020/01/31 06:09:57.9	93.780	-0.160	-0.330	0.720
2020/01/31 06:09:58.0	93.800	-0.120	-0.390	0.700
2020/01/31 06:09:58.1	93.810	-0.090	-0.450	0.680
2020/01/31 06:09:58.2	93.830	-0.050	-0.510	0.660
2020/01/31 06:09:58.3	93.850	-0.020	-0.570	0.640
2020/01/31 06:09:58.4	93.870	0.020	-0.620	0.620
2020/01/31 06:09:58.5	93.890	0.050	-0.660	0.600
2020/01/31 06:09:58.6	93.920	0.080	-0.710	0.590
2020/01/31 06:09:58.7	93.940	0.110	-0.740	0.570
2020/01/31 06:09:58.8	93.960	0.140	-0.770	0.560
2020/01/31 06:09:58.9	93.990	0.160	-0.800	0.540
2020/01/31 06:09:59.0	94.010	0.180	-0.810	0.530
2020/01/31 06:09:59.1	94.040	0.200	-0.820	0.520
2020/01/31 06:09:59.2	94.070	0.220	-0.820	0.510
2020/01/31 06:09:59.3	94.100	0.230	-0.820	0.500
2020/01/31 06:09:59.4	94.130	0.240	-0.810	0.500
2020/01/31 06:09:59.5	94.150	0.250	-0.790	0.490
2020/01/31 06:09:59.6	94.180	0.250	-0.770	0.490
2020/01/31 06:09:59.7	94.210	0.260	-0.740	0.490
2020/01/31 06:09:59.8	94.230	0.250	-0.700	0.500
2020/01/31 06:09:59.9	94.260	0.250	-0.660	0.500
2020/01/31 06:10:00.0	94.280	0.240	-0.620	0.510
2020/01/31 06:10:00.1	94.300	0.240	-0.570	0.520
2020/01/31 06:10:00.2	94.320	0.230	-0.520	0.530
2020/01/31 06:10:00.3	94.340	0.210	-0.460	0.540
2020/01/31 06:10:00.4	94.360	0.200	-0.410	0.560
2020/01/31 06:10:00.5	94.380	0.190	-0.350	0.570
2020/01/31 06:10:00.6	94.400	0.170	-0.290	0.580
2020/01/31 06:10:00.7	94.410	0.150	-0.230	0.600
2020/01/31 06:10:00.8	94.420	0.140	-0.170	0.610
2020/01/31 06:10:00.9	94.440	0.120	-0.110	0.630
2020/01/31 06:10:01.0	94.450	0.110	-0.050	0.640
2020/01/31 06:10:01.1	94.450	0.090	0.010	0.660
2020/01/31 06:10:01.2	94.470	0.070	0.070	0.670
2020/01/31 06:10:01.3	94.470	0.060	0.120	0.690
2020/01/31 06:10:01.4	94.470	0.050	0.170	0.700
2020/01/31 06:10:01.5	94.480	0.030	0.220	0.710
2020/01/31 06:10:01.6	94.470	0.020	0.260	0.720
2020/01/31 06:10:01.7	94.470	0.020	0.300	0.730
2020/01/31 06:10:01.8	94.470	0.010	0.340	0.750
2020/01/31 06:10:01.9	94.460	0.000	0.370	0.760
2020/01/31 06:10:02.0	94.450	0.000	0.400	0.770
2020/01/31 06:10:02.1	94.440	0.000	0.420	0.780
2020/01/31 06:10:02.2	94.420	0.000	0.440	0.790
2020/01/31 06:10:02.3	94.400	0.010	0.460	0.810
2020/01/31 06:10:02.4	94.380	0.010	0.470	0.820
2020/01/31 06:10:02.5	94.360	0.020	0.470	0.840
2020/01/31 06:10:02.6	94.330	0.030	0.470	0.860
2020/01/31 06:10:02.7	94.310	0.040	0.470	0.880
2020/01/31 06:10:02.8	94.280	0.050	0.460	0.900
2020/01/31 06:10:02.9	94.240	0.060	0.450	0.930
2020/01/31 06:10:03.0	94.210	0.080	0.440	0.950
2020/01/31 06:10:03.1	94.170	0.100	0.420	0.980
2020/01/31 06:10:03.2	94.140	0.110	0.400	1.010
2020/01/31 06:10:03.3	94.100	0.130	0.380	1.040
2020/01/31 06:10:03.4	94.060	0.150	0.350	1.070
2020/01/31 06:10:03.5	94.020	0.170	0.310	1.100
2020/01/31 06:10:03.6	93.980	0.190	0.280	1.130
2020/01/31 06:10:03.7	93.940	0.210	0.240	1.160
2020/01/31 06:10:03.8	93.900	0.220	0.200	1.180
2020/01/31 06:10:03.9	93.860	0.240	0.150	1.210
2020/01/31 06:10:04.0	93.830	0.260	0.100	1.230
2020/01/31 06:10:04.1	93.800	0.280	0.050	1.240
2020/01/31 06:10:04.2	93.770	0.300	0.000	1.260
2020/01/31 06:10:04.3	93.740	0.320	-0.050	1.270
2020/01/31 06:10:04.4	93.720	0.330	-0.110	1.270
2020/01/31 06:10:04.5	93.700	0.350	-0.160	1.260
2020/01/31 06:10:04.6	93.680	0.360	-0.220	1.250
2020/01/31 06:10:04.7	93.670	0.380	-0.280	1.240
2020/01/31 06:10:04.8	93.670	0.390	-0.340	1.210
2020/01/31 06:10:04.9	93.670	0.400	-0.400	1.190
2020/01/31 06:10:05.0	93.670	0.410	-0.460	1.150
2020/01/31 06:10:05.1	93.680	0.420	-0.520	1.110
2020/01/31 06:10:05.2	93.690	0.430	-0.570	1.060
2020/01/31 06:10:05.3	93.710	0.440	-0.630	1.010
2020/01/31 06:10:05.4	93.720	0.450	-0.680	0.960
2020/01/31 06:10:05.5	93.740	0.450	-0.730	0.900
2020/01/31 06:10:05.6	93.770	0.460	-0.780	0.840
2020/01/31 06:10:05.7	93.790	0.460	-0.830	0.780
2020/01/31 06:10:05.8	93.820	0.460	-0.870	0.730
2020/01/31 06:10:05.9	93.840	0.460	-0.900	0.670
2020/01/31 06:10:06.0	93.870	0.460	-0.930	0.610
2020/01/31 06:10:06.1	93.900	0.460	-0.960	0.550
2020/01/31 06:10:06.2	93.920	0.460	-0.980	0.500
2020/01/31 06:10:06.3	93.950	0.450	-1.000	0.450
2020/01/31 06:10:06.4	93.980	0.450	-1.010	0.400
2020/01/31 06:10:06.5	94.000	0.440	-1.020	0.350
2020/01/31 06:10:06.6	94.030	0.430	-1.010	0.310
2020/01/31 06:10:06.7	94.050	0.420	-1.010	0.280
2020/01/31 06:10:06.8	94.080	0.400	-0.990	0.240
2020/01/31 06:10:06.9	94.100	0.390	-0.970	0.220
2020/01/31 06:10:07.0	94.120	0.370	-0.950	0.190
2020/01/31 06:10:07.1	94.130	0.350	-0.920	0.180
2020/01/31 06:10:07.2	94.150	0.330	-0.880	0.170
2020/01/31 06:10:07.3	94.170	0.310	-0.830	0.160
2020/01/31 06:10:07.4	94.180	0.290	-0.780	0.160
2020/01/31 06:10:07.5	94.200	0.260	-0.730	0.160
2020/01/31 06:10:07.6	94.210	0.230	-0.670	0.170
2020/01/31 06:10:07.7	94.220	0.200	-0.600	0.180
2020/01/31 06:10:07.8	94.230	0.170	-0.530	0.190
2020/01/31 06:10:07.9	94.240	0.140	-0.460	0.210
2020/01/31 06:10:08.0	94.260	0.110	-0.380	0.230
2020/01/31 06:10:08.1	94.270	0.070	-0.310	0.260
2020/01/31 06:10:08.2	94.280	0.030	-0.220	0.290
2020/01/31 06:10:08.3	94.290	-0.010	-0.140	0.320
2020/01/31 06:10:08.4	94.300	-0.040	-0.060	0.350
2020/01/31 06:10:08.5	94.310	-0.080	0.020	0.390
2020/01/31 06:10:08.6	94.320	-0.120	0.110	0.420
2020/01/31 06:10:08.7	94.330	-0.160	0.190	0.460
2020/01/31 06:10:08.8	94.340	-0.200	0.270	0.500
2020/01/31 06:10:08.9	94.350	-0.250	0.350	0.540
2020/01/31 06:10:09.0	94.360	-0.290	0.430	0.580
2020/01/31 06:10:09.1	94.380	-0.330	0.500	0.630
2020/01/31 06:10:09.2	94.390	-0.370	0.580	0.670
2020/01/31 06:10:09.3	94.400	-0.410	0.650	0.710
2020/01/31 06:10:09.4	94.410	-0.440	0.710	0.760
2020/01/31 06:10:09.5	94.420	-0.480	0.770	0.800
2020/01/31 06:10:09.6	94.430	-0.520	0.820	0.840
2020/01/31 06:10:09.7	94.440	-0.550	0.870	0.880
2020/01/31 06:10:09.8	94.440	-0.590	0.910	0.920
2020/01/31 06:10:09.9	94.450	-0.620	0.940	0.960
2020/01/31 06:10:10.0	94.460	-0.650	0.970	1.000
2020/01/31 06:10:10.1	94.460	-0.670	0.990	1.040
2020/01/31 06:10:10.2	94.460	-0.700	1.000	1.080
2020/01/31 06:10:10.3	94.460	-0.720	1.000	1.120
2020/01/31 06:10:10.4	94.460	-0.740	1.000	1.160
2020/01/31 06:10:10.5	94.460	-0.750	0.980	1.200
2020/01/31 06:10:10.6	94.460	-0.760	0.960	1.230
2020/01/31 06:10:10.7	94.450	-0.770	0.930	1.270
2020/01/31 06:10:10.8	94.440	-0.780	0.890	1.300
2020/01/31 06:10:10.9	94.430	-0.780	0.850	1.340
2020/01/31 06:10:11.0	94.430	-0.780	0.790	1.370
2020/01/31 06:10:11.1	94.410	-0.770	0.730	1.400
2020/01/31 06:10:11.2	94.410	-0.760	0.660	1.430
2020/01/31 06:10:11.3	94.400	-0.740	0.590	1.460
2020/01/31 06:10:11.4	94.380	-0.730	0.510	1.490
2020/01/31 06:10:11.5	94.370	-0.710	0.420	1.520
2020/01/31 06:10:11.6	94.360	-0.680	0.330	1.540
2020/01/31 06:10:11.7	94.350	-0.650	0.230	1.560
2020/01/31 06:10:11.8	94.330	-0.620	0.130	1.580
2020/01/31 06:10:11.9	94.320	-0.580	0.030	1.590
2020/01/31 06:10:12.0	94.310	-0.550	-0.070	1.610
2020/01/31 06:10:12.1	94.300	-0.510	-0.180	1.620
2020/01/31 06:10:12.2	94.290	-0.460	-0.280	1.620
2020/01/31 06:10:12.3	94.280	-0.420	-0.390	1.620
2020/01/31 06:10:12.4	94.280	-0.370	-0.490	1.620
2020/01/31 06:10:12.5	94.270	-0.320	-0.590	1.620
2020/01/31 06:10:12.6	94.270	-0.280	-0.690	1.610
2020/01/31 06:10:12.7	94.280	-0.230	-0.780	1.600
2020/01/31 06:10:12.8	94.280	-0.170	-0.870	1.590
2020/01/31 06:10:12.9	94.280	-0.120	-0.960	1.570
2020/01/31 06:10:13.0	94.290	-0.080	-1.040	1.550
2020/01/31 06:10:13.1	94.300	-0.030	-1.110	1.530
2020/01/31 06:10:13.2	94.310	0.020	-1.180	1.510
2020/01/31 06:10:13.3	94.320	0.070	-1.230	1.480
2020/01/31 06:10:13.4	94.330	0.110	-1.280	1.450
2020/01/31 06:10:13.5	94.350	0.160	-1.320	1.420
2020/01/31 06:10:13.6	94.360	0.200	-1.360	1.380
2020/01/31 06:10:13.7	94.380	0.230	-1.380	1.340
2020/01/31 06:10:13.8	94.400	0.270	-1.390	1.300
2020/01/31 06:10:13.9	94.410	0.300	-1.400	1.260
2020/01/31 06:10:14.0	94.430	0.330	-1.390	1.210
2020/01/31 06:10:14.1	94.450	0.350	-1.380	1.170
2020/01/31 06:10:14.2	94.460	0.370	-1.350	1.120
2020/01/31 06:10:14.3	94.470	0.390	-1.320	1.070
2020/01/31 06:10:14.4	94.490	0.400	-1.280	1.020
2020/01/31 06:10:14.5	94.500	0.410	-1.240	0.980
2020/01/31 06:10:14.6	94.510	0.420	-1.180	0.930
2020/01/31 06:10:14.7	94.520	0.420	-1.120	0.890
2020/01/31 06:10:14.8	94.530	0.420	-1.050	0.840
2020/01/31 06:10:14.9	94.540	0.410	-0.980	0.800
2020/01/31 06:10:15.0	94.540	0.400	-0.900	0.760
2020/01/31 06:10:15.1	94.540	0.390	-0.810	0.720
2020/01/31 06:10:15.2	94.550	0.380	-0.720	0.690
2020/01/31 06:10:15.3	94.550	0.360	-0.630	0.650
2020/01/31 06:10:15.4	94.550	0.340	-0.530	0.620
2020/01/31 06:10:15.5	94.540	0.320	-0.430	0.590
2020/01/31 06:10:15.6	94.530	0.300	-0.330	0.560
2020/01/31 06:10:15.7	94.520	0.270	-0.220	0.530
2020/01/31 06:10:15.8	94.510	0.250	-0.120	0.500
2020/01/31 06:10:15.9	94.500	0.220	-0.020	0.480
2020/01/31 06:10:16.0	94.480	0.190	0.080	0.450
2020/01/31 06:10:16.1	94.470	0.160	0.180	0.430
2020/01/31 06:10:16.2	94.460	0.130	0.280	0.400
2020/01/31 06:10:16.3	94.440	0.100	0.380	0.380
2020/01/31 06:10:16.4	94.420	0.070	0.470	0.360
2020/01/31 06:10:16.5	94.400	0.040	0.550	0.340
2020/01/31 06:10:16.6	94.380	0.010	0.630	0.310
2020/01/31 06:10:16.7	94.360	-0.010	0.710	0.290
2020/01/31 06:10:16.8	94.340	-0.040	0.780	0.270
2020/01/31 06:10:16.9	94.320	-0.060	0.840	0.240
2020/01/31 06:10:17.0	94.300	-0.090	0.890	0.220
2020/01/31 06:10:17.1	94.280	-0.110	0.940	0.190
2020/01/31 06:10:17.2	94.260	-0.130	0.980	0.160
2020/01/31 06:10:17.3	94.240	-0.140	1.010	0.130
2020/01/31 06:10:17.4	94.230	-0.160	1.030	0.100
2020/01/31 06:10:17.5	94.220	-0.170	1.040	0.070
2020/01/31 06:10:17.6	94.210	-0.180	1.040	0.040
2020/01/31 06:10:17.7	94.200	-0.180	1.030	0.010
2020/01/31 06:10:17.8	94.190	-0.180	1.020	-0.030
2020/01/31 06:10:17.9	94.190	-0.180	0.990	-0.060
2020/01/31 06:10:18.0	94.190	-0.180	0.950	-0.090
2020/01/31 06:10:18.1	94.190	-0.170	0.900	-0.130
2020/01/31 06:10:18.2	94.180	-0.160	0.840	-0.160
2020/01/31 06:10:18.3	94.190	-0.150	0.780	-0.200
2020/01/31 06:10:18.4	94.190	-0.140	0.710	-0.230
2020/01/31 06:10:18.5	94.200	-0.120	0.620	-0.270
2020/01/31 06:10:18.6	94.210	-0.100	0.530	-0.300
2020/01/31 06:10:18.7	94.220	-0.070	0.440	-0.330
2020/01/31 06:10:18.8	94.230	-0.050	0.340	-0.360
2020/01/31 06:10:18.9	94.240	-0.020	0.230	-0.390
2020/01/31 06:10:19.0	94.260	0.010	0.120	-0.410
2020/01/31 06:10:19.1	94.270	0.050	0.010	-0.440
2020/01/31 06:10:19.2	94.280	0.080	-0.110	-0.470
2020/01/31 06:10:19.3	94.300	0.120	-0.220	-0.490
2020/01/31 06:10:19.4	94.320	0.160	-0.330	-0.500
2020/01/31 06:10:19.5	94.330	0.190	-0.450	-0.520
2020/01/31 06:10:19.6	94.350	0.230	-0.560	-0.530
2020/01/31 06:10:19.7	94.370	0.270	-0.670	-0.540
2020/01/31 06:10:19.8	94.380	0.310	-0.770	-0.550
2020/01/31 06:10:19.9	94.400	0.350	-0.870	-0.550
2020/01/31 06:10:20.0	94.410	0.380	-0.960	-0.550
2020/01/31 06:10:20.1	94.430	0.420	-1.040	-0.550
2020/01/31 06:10:20.2	94.440	0.460	-1.120	-0.540
2020/01/31 06:10:20.3	94.450	0.490	-1.190	-0.530
2020/01/31 06:10:20.4	94.460	0.520	-1.250	-0.520
2020/01/31 06:10:20.5	94.470	0.550	-1.300	-0.500
2020/01/31 06:10:20.6	94.480	0.580	-1.340	-0.480
2020/01/31 06:10:20.7	94.490	0.600	-1.370	-0.450
2020/01/31 06:10:20.8	94.490	0.620	-1.400	-0.430
2020/01/31 06:10:20.9	94.500	0.640	-1.410	-0.390
2020/01/31 06:10:21.0	94.500	0.650	-1.410	-0.350
2020/01/31 06:10:21.1	94.500	0.670	-1.400	-0.310
2020/01/31 06:10:21.2	94.500	0.670	-1.390	-0.260
2020/01/31 06:10:21.3	94.500	0.680	-1.360	-0.210
2020/01/31 06:10:21.4	94.490	0.670	-1.320	-0.160
2020/01/31 06:10:21.5	94.490	0.670	-1.270	-0.100
2020/01/31 06:10:21.6	94.480	0.660	-1.220	-0.030
2020/01/31 06:10:21.7	94.470	0.650	-1.150	0.040
2020/01/31 06:10:21.8	94.460	0.630	-1.080	0.110
2020/01/31 06:10:21.9	94.440	0.610	-1.000	0.180
2020/01/31 06:10:22.0	94.430	0.590	-0.920	0.260
2020/01/31 06:10:22.1	94.420	0.560	-0.830	0.350
2020/01/31 06:10:22.2	94.410	0.530	-0.730	0.430
2020/01/31 06:10:22.3	94.390	0.490	-0.640	0.520
2020/01/31 06:10:22.4	94.380	0.450	-0.540	0.610
2020/01/31 06:10:22.5	94.360	0.410	-0.430	0.700
2020/01/31 06:10:22.6	94.340	0.370	-0.330	0.800
2020/01/31 06:10:22.7	94.330	0.320	-0.230	0.890
2020/01/31 06:10:22.8	94.310	0.280	-0.120	0.990
2020/01/31 06:10:22.9	94.290	0.230	-0.020	1.090
2020/01/31 06:10:23.0	94.280	0.180	0.080	1.190
2020/01/31 06:10:23.1	94.260	0.120	0.180	1.290
2020/01/31 06:10:23.2	94.240	0.070	0.270	1.380
2020/01/31 06:10:23.3	94.220	0.020	0.360	1.480
2020/01/31 06:10:23.4	94.210	-0.030	0.450	1.580
2020/01/31 06:10:23.5	94.190	-0.090	0.520	1.670
2020/01/31 06:10:23.6	94.180	-0.140	0.600	1.760
2020/01/31 06:10:23.7	94.170	-0.190	0.660	1.850
2020/01/31 06:10:23.8	94.160	-0.240	0.720	1.930
2020/01/31 06:10:23.9	94.150	-0.280	0.770	2.010
2020/01/31 06:10:24.0	94.150	-0.330	0.820	2.080
2020/01/31 06:10:24.1	94.140	-0.370	0.850	2.150
2020/01/31 06:10:24.2	94.140	-0.410	0.880	2.210
2020/01/31 06:10:24.3	94.140	-0.450	0.890	2.260
2020/01/31 06:10:24.4	94.140	-0.480	0.900	2.310
2020/01/31 06:10:24.5	94.140	-0.510	0.910	2.360
2020/01/31 06:10:24.6	94.150	-0.540	0.900	2.390
2020/01/31 06:10:24.7	94.160	-0.560	0.880	2.420
2020/01/31 06:10:24.8	94.170	-0.590	0.860	2.440
2020/01/31 06:10:24.9	94.180	-0.600	0.830	2.460
2020/01/31 06:10:25.0	94.190	-0.620	0.790	2.460
2020/01/31 06:10:25.1	94.210	-0.630	0.750	2.460
2020/01/31 06:10:25.2	94.230	-0.630	0.700	2.460
2020/01/31 06:10:25.3	94.250	-0.630	0.640	2.450
2020/01/31 06:10:25.4	94.270	-0.630	0.580	2.430
2020/01/31 06:10:25.5	94.290	-0.630	0.510	2.400
2020/01/31 06:10:25.6	94.320	-0.620	0.440	2.370
2020/01/31 06:10:25.7	94.350	-0.610	0.360	2.330
2020/01/31 06:10:25.8	94.380	-0.600	0.280	2.290
2020/01/31 06:10:25.9	94.410	-0.580	0.200	2.240
2020/01/31 06:10:26.0	94.440	-0.570	0.120	2.190
2020/01/31 06:10:26.1	94.470	-0.540	0.040	2.140
2020/01/31 06:10:26.2	94.490	-0.520	-0.040	2.070
2020/01/31 06:10:26.3	94.520	-0.500	-0.120	2.010
2020/01/31 06:10:26.4	94.550	-0.470	-0.200	1.950
2020/01/31 06:10:26.5	94.580	-0.440	-0.270	1.890
2020/01/31 06:10:26.6	94.610	-0.410	-0.350	1.830
2020/01/31 06:10:26.7	94.630	-0.380	-0.420	1.770
2020/01/31 06:10:26.8	94.650	-0.350	-0.480	1.720
2020/01/31 06:10:26.9	94.670	-0.320	-0.540	1.660
2020/01/31 06:10:27.0	94.690	-0.290	-0.590	1.600
2020/01/31 06:10:27.1	94.710	-0.250	-0.640	1.550
2020/01/31 06:10:27.2	94.730	-0.220	-0.680	1.500
2020/01/31 06:10:27.3	94.740	-0.190	-0.710	1.450
2020/01/31 06:10:27.4	94.750	-0.160	-0.740	1.400
2020/01/31 06:10:27.5	94.760	-0.130	-0.760	1.360
2020/01/31 06:10:27.6	94.770	-0.100	-0.780	1.320
2020/01/31 06:10:27.7	94.770	-0.070	-0.780	1.280
2020/01/31 06:10:27.8	94.770	-0.040	-0.780	1.250
2020/01/31 06:10:27.9	94.770	-0.020	-0.770	1.210
2020/01/31 06:10:28.0	94.760	0.010	-0.760	1.180
2020/01/31 06:10:28.1	94.760	0.030	-0.740	1.150
2020/01/31 06:10:28.2	94.740	0.050	-0.720	1.120
2020/01/31 06:10:28.3	94.730	0.070	-0.690	1.090
2020/01/31 06:10:28.4	94.720	0.080	-0.650	1.070
2020/01/31 06:10:28.5	94.700	0.100	-0.610	1.040
2020/01/31 06:10:28.6	94.690	0.110	-0.570	1.020
2020/01/31 06:10:28.7	94.670	0.120	-0.530	0.990
2020/01/31 06:10:28.8	94.660	0.120	-0.480	0.970
2020/01/31 06:10:28.9	94.640	0.130	-0.430	0.940
2020/01/31 06:10:29.0	94.620	0.130	-0.380	0.920
2020/01/31 06:10:29.1	94.600	0.130	-0.330	0.890
2020/01/31 06:10:29.2	94.580	0.130	-0.280	0.860
2020/01/31 06:10:29.3	94.560	0.130	-0.240	0.830
2020/01/31 06:10:29.4	94.540	0.130	-0.190	0.800
2020/01/31 06:10:29.5	94.520	0.120	-0.150	0.770
2020/01/31 06:10:29.6	94.500	0.120	-0.110	0.730
2020/01/31 06:10:29.7	94.480	0.110	-0.070	0.700
2020/01/31 06:10:29.8	94.460	0.100	-0.030	0.660
2020/01/31 06:10:29.9	94.430	0.090	0.000	0.630
2020/01/31 06:10:30.0	94.410	0.080	0.030	0.590
2020/01/31 06:10:30.1	94.390	0.070	0.050	0.560
2020/01/31 06:10:30.2	94.360	0.060	0.080	0.520
2020/01/31 06:10:30.3	94.330	0.050	0.090	0.480
2020/01/31 06:10:30.4	94.310	0.040	0.110	0.440
2020/01/31 06:10:30.5	94.290	0.020	0.120	0.410
2020/01/31 06:10:30.6	94.260	0.010	0.120	0.370
2020/01/31 06:10:30.7	94.240	-0.000	0.130	0.330
2020/01/31 06:10:30.8	94.220	-0.010	0.120	0.300
2020/01/31 06:10:30.9	94.200	-0.030	0.120	0.260
2020/01/31 06:10:31.0	94.180	-0.040	0.120	0.230
2020/01/31 06:10:31.1	94.160	-0.050	0.110	0.190
2020/01/31 06:10:31.2	94.140	-0.060	0.100	0.160
2020/01/31 06:10:31.3	94.130	-0.070	0.080	0.130
2020/01/31 06:10:31.4	94.110	-0.090	0.070	0.100
2020/01/31 06:10:31.5	94.100	-0.100	0.050	0.070
2020/01/31 06:10:31.6	94.090	-0.110	0.030	0.040
2020/01/31 06:10:31.7	94.080	-0.120	0.010	0.010
2020/01/31 06:10:31.8	94.070	-0.130	-0.010	-0.020
2020/01/31 06:10:31.9	94.060	-0.140	-0.030	-0.040
2020/01/31 06:10:32.0	94.050	-0.150	-0.050	-0.070
2020/01/31 06:10:32.1	94.050	-0.160	-0.080	-0.090
2020/01/31 06:10:32.2	94.040	-0.160	-0.100	-0.120
2020/01/31 06:10:32.3	94.040	-0.170	-0.120	-0.150
2020/01/31 06:10:32.4	94.040	-0.170	-0.150	-0.170
2020/01/31 06:10:32.5	94.040	-0.170	-0.170	-0.200
2020/01/31 06:10:32.6	94.050	-0.180	-0.200	-0.220
2020/01/31 06:10:32.7	94.060	-0.180	-0.220	-0.250
2020/01/31 06:10:32.8	94.060	-0.170	-0.250	-0.280
2020/01/31 06:10:32.9	94.070	-0.170	-0.280	-0.310
2020/01/31 06:10:33.0	94.090	-0.160	-0.300	-0.330
2020/01/31 06:10:33.1	94.100	-0.160	-0.330	-0.360
2020/01/31 06:10:33.2	94.120	-0.150	-0.360	-0.400
2020/01/31 06:10:33.3	94.130	-0.140	-0.380	-0.420
2020/01/31 06:10:33.4	94.150	-0.120	-0.410	-0.450
2020/01/31 06:10:33.5	94.160	-0.110	-0.440	-0.480
2020/01/31 06:10:33.6	94.180	-0.090	-0.460	-0.500
2020/01/31 06:10:33.7	94.190	-0.070	-0.490	-0.530
2020/01/31 06:10:33.8	94.210	-0.040	-0.510	-0.550
2020/01/31 06:10:33.9	94.220	-0.020	-0.530	-0.570
2020/01/31 06:10:34.0	94.240	0.010	-0.550	-0.580
2020/01/31 06:10:34.1	94.250	0.030	-0.570	-0.590
2020/01/31 06:10:34.2	94.260	0.060	-0.590	-0.600
2020/01/31 06:10:34.3	94.270	0.090	-0.600	-0.610
2020/01/31 06:10:34.4	94.280	0.130	-0.620	-0.610
2020/01/31 06:10:34.5	94.290	0.160	-0.630	-0.600
2020/01/31 06:10:34.6	94.300	0.190	-0.640	-0.600
2020/01/31 06:10:34.7	94.310	0.230	-0.640	-0.580
2020/01/31 06:10:34.8	94.320	0.260	-0.650	-0.570
2020/01/31 06:10:34.9	94.330	0.300	-0.650	-0.550
2020/01/31 06:10:35.0	94.340	0.330	-0.650	-0.530
2020/01/31 06:10:35.1	94.340	0.360	-0.650	-0.510
2020/01/31 06:10:35.2	94.360	0.400	-0.640	-0.480
2020/01/31 06:10:35.3	94.380	0.430	-0.630	-0.450
2020/01/31 06:10:35.4	94.390	0.460	-0.620	-0.420
2020/01/31 06:10:35.5	94.400	0.490	-0.600	-0.380
2020/01/31 06:10:35.6	94.420	0.510	-0.580	-0.340
2020/01/31 06:10:35.7	94.440	0.540	-0.560	-0.300
2020/01/31 06:10:35.8	94.460	0.560	-0.530	-0.250
2020/01/31 06:10:35.9	94.470	0.580	-0.500	-0.200
2020/01/31 06:10:36.0	94.490	0.590	-0.470	-0.150
2020/01/31 06:10:36.1	94.520	0.600	-0.430	-0.100
2020/01/31 06:10:36.2	94.540	0.610	-0.390	-0.040
2020/01/31 06:10:36.3	94.560	0.620	-0.350	0.020
2020/01/31 06:10:36.4	94.580	0.620	-0.300	0.090
2020/01/31 06:10:36.5	94.600	0.620	-0.260	0.160
2020/01/31 06:10:36.6	94.620	0.610	-0.210	0.230
2020/01/31 06:10:36.7	94.640	0.600	-0.150	0.310
2020/01/31 06:10:36.8	94.650	0.590	-0.100	0.390
2020/01/31 06:10:36.9	94.670	0.570	-0.050	0.470
2020/01/31 06:10:37.0	94.680	0.550	0.010	0.550
2020/01/31 06:10:37.1	94.690	0.520	0.070	0.640
2020/01/31 06:10:37.2	94.710	0.490	0.130	0.730
2020/01/31 06:10:37.3	94.710	0.460	0.190	0.810
2020/01/31 06:10:37.4	94.720	0.420	0.250	0.900
2020/01/31 06:10:37.5	94.720	0.390	0.310	0.990
2020/01/31 06:10:37.6	94.720	0.350	0.370	1.070
2020/01/31 06:10:37.7	94.720	0.300	0.430	1.160
2020/01/31 06:10:37.8	94.720	0.260	0.490	1.240
2020/01/31 06:10:37.9	94.710	0.210	0.540	1.320
2020/01/31 06:10:38.0	94.700	0.170	0.590	1.400
2020/01/31 06:10:38.1	94.690	0.120	0.640	1.470
2020/01/31 06:10:38.2	94.690	0.070	0.690	1.540
2020/01/31 06:10:38.3	94.670	0.020	0.730	1.600
2020/01/31 06:10:38.4	94.660	-0.030	0.760	1.670
2020/01/31 06:10:38.5	94.640	-0.080	0.800	1.720
2020/01/31 06:10:38.6	94.620	-0.120	0.820	1.780
2020/01/31 06:10:38.7	94.600	-0.170	0.840	1.830
2020/01/31 06:10:38.8	94.580	-0.210	0.850	1.870
2020/01/31 06:10:38.9	94.560	-0.250	0.860	1.910
2020/01/31 06:10:39.0	94.540	-0.290	0.850	1.940
2020/01/31 06:10:39.1	94.520	-0.330	0.840	1.970
2020/01/31 06:10:39.2	94.490	-0.360	0.830	1.990
2020/01/31 06:10:39.3	94.460	-0.390	0.800	2.000
2020/01/31 06:10:39.4	94.440	-0.410	0.770	2.020
2020/01/31 06:10:39.5	94.420	-0.430	0.720	2.030
2020/01/31 06:10:39.6	94.390	-0.450	0.670	2.040
2020/01/31 06:10:39.7	94.370	-0.460	0.610	2.040
2020/01/31 06:10:39.8	94.350	-0.470	0.550	2.040
2020/01/31 06:10:39.9	94.330	-0.470	0.470	2.030
2020/01/31 06:10:40.0	94.310	-0.470	0.390	2.030
2020/01/31 06:10:40.1	94.290	-0.470	0.310	2.020
2020/01/31 06:10:40.2	94.270	-0.460	0.210	2.010
2020/01/31 06:10:40.3	94.250	-0.440	0.110	1.990
2020/01/31 06:10:40.4	94.230	-0.420	0.010	1.970
2020/01/31 06:10:40.5	94.220	-0.400	-0.100	1.950
2020/01/31 06:10:40.6	94.210	-0.370	-0.200	1.930
2020/01/31 06:10:40.7	94.200	-0.340	-0.310	1.910
2020/01/31 06:10:40.8	94.190	-0.310	-0.420	1.880
2020/01/31 06:10:40.9	94.180	-0.270	-0.530	1.860
2020/01/31 06:10:41.0	94.170	-0.230	-0.640	1.830
2020/01/31 06:10:41.1	94.170	-0.190	-0.740	1.800
2020/01/31 06:10:41.2	94.160	-0.150	-0.840	1.760
2020/01/31 06:10:41.3	94.160	-0.110	-0.940	1.730
2020/01/31 06:10:41.4	94.160	-0.060	-1.030	1.700
2020/01/31 06:10:41.5	94.170	-0.020	-1.120	1.660
2020/01/31 06:10:41.6	94.170	0.020	-1.200	1.630
2020/01/31 06:10:41.7	94.180	0.070	-1.270	1.590
2020/01/31 06:10:41.8	94.190	0.110	-1.330	1.550
2020/01/31 06:10:41.9	94.200	0.140	-1.380	1.510
2020/01/31 06:10:42.0	94.210	0.180	-1.430	1.460
2020/01/31 06:10:42.1	94.230	0.210	-1.460	1.420
2020/01/31 06:10:42.2	94.240	0.250	-1.490	1.370
2020/01/31 06:10:42.3	94.260	0.270	-1.510	1.320
2020/01/31 06:10:42.4	94.280	0.300	-1.510	1.270
2020/01/31 06:10:42.5	94.300	0.320	-1.500	1.220
2020/01/31 06:10:42.6	94.320	0.330	-1.490	1.170
2020/01/31 06:10:42.7	94.340	0.340	-1.460	1.110
2020/01/31 06:10:42.8	94.370	0.350	-1.420	1.060
2020/01/31 06:10:42.9	94.390	0.350	-1.380	1.000
2020/01/31 06:10:43.0	94.410	0.350	-1.320	0.940
2020/01/31 06:10:43.1	94.440	0.340	-1.260	0.890
2020/01/31 06:10:43.2	94.460	0.330	-1.180	0.830
2020/01/31 06:10:43.3	94.480	0.310	-1.100	0.770
2020/01/31 06:10:43.4	94.500	0.290	-1.010	0.720
2020/01/31 06:10:43.5	94.520	0.260	-0.920	0.660
2020/01/31 06:10:43.6	94.540	0.230	-0.820	0.610
2020/01/31 06:10:43.7	94.550	0.200	-0.720	0.560
2020/01/31 06:10:43.8	94.570	0.160	-0.610	0.510
2020/01/31 06:10:43.9	94.580	0.120	-0.500	0.460
2020/01/31 06:10:44.0	94.590	0.080	-0.390	0.420
2020/01/31 06:10:44.1	94.600	0.030	-0.270	0.380
2020/01/31 06:10:44.2	94.610	-0.020	-0.150	0.340
2020/01/31 06:10:44.3	94.610	-0.070	-0.040	0.310
2020/01/31 06:10:44.4	94.620	-0.120	0.080	0.280
2020/01/31 06:10:44.5	94.620	-0.170	0.190	0.250
2020/01/31 06:10:44.6	94.620	-0.220	0.300	0.220
2020/01/31 06:10:44.7	94.620	-0.280	0.410	0.200
2020/01/31 06:10:44.8	94.620	-0.330	0.510	0.180
2020/01/31 06:10:44.9	94.610	-0.380	0.610	0.160
2020/01/31 06:10:45.0	94.600	-0.440	0.700	0.150
2020/01/31 06:10:45.1	94.600	-0.490	0.790	0.140
2020/01/31 06:10:45.2	94.580	-0.540	0.870	0.130
2020/01/31 06:10:45.3	94.570	-0.580	0.940	0.130
2020/01/31 06:10:45.4	94.560	-0.630	1.010	0.130
2020/01/31 06:10:45.5	94.550	-0.670	1.060	0.130
2020/01/31 06:10:45.6	94.530	-0.710	1.110	0.140
2020/01/31 06:10:45.7	94.520	-0.750	1.150	0.140
2020/01/31 06:10:45.8	94.500	-0.780	1.180	0.150
2020/01/31 06:10:45.9	94.490	-0.810	1.210	0.150
2020/01/31 06:10:46.0	94.470	-0.830	1.220	0.160
2020/01/31 06:10:46.1	94.460	-0.850	1.220	0.170
2020/01/31 06:10:46.2	94.450	-0.870	1.210	0.180
2020/01/31 06:10:46.3	94.430	-0.880	1.190	0.190
2020/01/31 06:10:46.4	94.420	-0.880	1.170	0.200
2020/01/31 06:10:46.5	94.410	-0.880	1.130	0.210
2020/01/31 06:10:46.6	94.400	-0.880	1.080	0.210
2020/01/31 06:10:46.7	94.390	-0.870	1.030	0.220
2020/01/31 06:10:46.8	94.380	-0.850	0.960	0.220
2020/01/31 06:10:46.9	94.370	-0.830	0.890	0.220
2020/01/31 06:10:47.0	94.360	-0.810	0.800	0.230
2020/01/31 06:10:47.1	94.360	-0.780	0.710	0.220
2020/01/31 06:10:47.2	94.350	-0.740	0.610	0.220
2020/01/31 06:10:47.3	94.340	-0.700	0.510	0.210
2020/01/31 06:10:47.4	94.340	-0.660	0.400	0.210
2020/01/31 06:10:47.5	94.350	-0.610	0.290	0.200
2020/01/31 06:10:47.6	94.350	-0.550	0.180	0.180
2020/01/31 06:10:47.7	94.360	-0.490	0.060	0.170
2020/01/31 06:10:47.8	94.370	-0.430	-0.060	0.150
2020/01/31 06:10:47.9	94.380	-0.370	-0.180	0.140
2020/01/31 06:10:48.0	94.390	-0.310	-0.300	0.120
2020/01/31 06:10:48.1	94.400	-0.240	-0.420	0.090
2020/01/31 06:10:48.2	94.410	-0.170	-0.530	0.070
2020/01/31 06:10:48.3	94.430	-0.100	-0.640	0.050
2020/01/31 06:10:48.4	94.450	-0.030	-0.750	0.020
2020/01/31 06:10:48.5	94.460	0.040	-0.850	0.000
2020/01/31 06:10:48.6	94.480	0.110	-0.950	-0.020
2020/01/31 06:10:48.7	94.500	0.180	-1.030	-0.040
2020/01/31 06:10:48.8	94.520	0.250	-1.110	-0.060
2020/01/31 06:10:48.9	94.540	0.320	-1.180	-0.080
2020/01/31 06:10:49.0	94.550	0.380	-1.240	-0.090
2020/01/31 06:10:49.1	94.570	0.450	-1.290	-0.100
2020/01/31 06:10:49.2	94.580	0.510	-1.330	-0.110
2020/01/31 06:10:49.3	94.590	0.560	-1.360	-0.110
2020/01/31 06:10:49.4	94.600	0.610	-1.380	-0.110
2020/01/31 06:10:49.5	94.610	0.660	-1.390	-0.110
2020/01/31 06:10:49.6	94.610	0.710	-1.390	-0.110
2020/01/31 06:10:49.7	94.610	0.740	-1.380	-0.100
2020/01/31 06:10:49.8	94.600	0.780	-1.360	-0.090
2020/01/31 06:10:49.9	94.590	0.810	-1.330	-0.070
2020/01/31 06:10:50.0	94.580	0.840	-1.290	-0.050
2020/01/31 06:10:50.1	94.570	0.860	-1.240	-0.030
2020/01/31 06:10:50.2	94.550	0.870	-1.170	-0.000
2020/01/31 06:10:50.3	94.540	0.880	-1.110	0.030
2020/01/31 06:10:50.4	94.510	0.890	-1.030	0.060
2020/01/31 06:10:50.5	94.490	0.890	-0.950	0.090
2020/01/31 06:10:50.6	94.470	0.880	-0.860	0.130
2020/01/31 06:10:50.7	94.440	0.870	-0.770	0.160
2020/01/31 06:10:50.8	94.420	0.860	-0.680	0.200
2020/01/31 06:10:50.9	94.390	0.840	-0.580	0.240
2020/01/31 06:10:51.0	94.360	0.810	-0.470	0.280
2020/01/31 06:10:51.1	94.340	0.780	-0.370	0.320
2020/01/31 06:10:51.2	94.310	0.750	-0.270	0.360
2020/01/31 06:10:51.3	94.280	0.720	-0.160	0.410
2020/01/31 06:10:51.4	94.250	0.680	-0.060	0.450
2020/01/31 06:10:51.5	94.230	0.640	0.040	0.490
2020/01/31 06:10:51.6	94.200	0.590	0.140	0.530
2020/01/31 06:10:51.7	94.180	0.550	0.230	0.570
2020/01/31 06:10:51.8	94.160	0.500	0.320	0.620
2020/01/31 06:10:51.9	94.140	0.450	0.400	0.660
2020/01/31 06:10:52.0	94.120	0.400	0.480	0.700
2020/01/31 06:10:52.1	94.100	0.350	0.550	0.740
2020/01/31 06:10:52.2	94.080	0.300	0.610	0.770
2020/01/31 06:10:52.3	94.070	0.250	0.660	0.810
2020/01/31 06:10:52.4	94.060	0.210	0.710	0.850
2020/01/31 06:10:52.5	94.050	0.160	0.740	0.880
2020/01/31 06:10:52.6	94.040	0.120	0.760	0.920
2020/01/31 06:10:52.7	94.040	0.080	0.780	0.950
2020/01/31 06:10:52.8	94.040	0.040	0.780	0.980
2020/01/31 06:10:52.9	94.040	0.000	0.780	1.010
2020/01/31 06:10:53.0	94.040	-0.030	0.760	1.040
2020/01/31 06:10:53.1	94.040	-0.050	0.730	1.070
2020/01/31 06:10:53.2	94.040	-0.080	0.700	1.090
2020/01/31 06:10:53.3	94.050	-0.100	0.660	1.120
2020/01/31 06:10:53.4	94.060	-0.110	0.600	1.140
2020/01/31 06:10:53.5	94.060	-0.130	0.540	1.160
2020/01/31 06:10:53.6	94.070	-0.130	0.470	1.190
2020/01/31 06:10:53.7	94.080	-0.140	0.390	1.210
2020/01/31 06:10:53.8	94.100	-0.130	0.310	1.220
2020/01/31 06:10:53.9	94.110	-0.130	0.220	1.240
2020/01/31 06:10:54.0	94.120	-0.120	0.130	1.260
2020/01/31 06:10:54.1	94.130	-0.110	0.040	1.270
2020/01/31 06:10:54.2	94.150	-0.100	-0.070	1.290
2020/01/31 06:10:54.3	94.160	-0.080	-0.170	1.300
2020/01/31 06:10:54.4	94.170	-0.060	-0.270	1.310
2020/01/31 06:10:54.5	94.190	-0.030	-0.360	1.320
2020/01/31 06:10:54.6	94.200	-0.010	-0.460	1.330
2020/01/31 06:10:54.7	94.220	0.020	-0.560	1.340
2020/01/31 06:10:54.8	94.230	0.040	-0.650	1.350
2020/01/31 06:10:54.9	94.250	0.070	-0.740	1.360
2020/01/31 06:10:55.0	94.260	0.100	-0.820	1.370
2020/01/31 06:10:55.1	94.280	0.120	-0.890	1.370
2020/01/31 06:10:55.2	94.290	0.150	-0.960	1.380
2020/01/31 06:10:55.3	94.300	0.180	-1.020	1.390
2020/01/31 06:10:55.4	94.320	0.200	-1.070	1.400
2020/01/31 06:10:55.5	94.330	0.220	-1.120	1.410
2020/01/31 06:10:55.6	94.340	0.240	-1.150	1.420
2020/01/31 06:10:55.7	94.350	0.260	-1.180	1.430
2020/01/31 06:10:55.8	94.360	0.270	-1.190	1.440
2020/01/31 06:10:55.9	94.370	0.280	-1.200	1.450
2020/01/31 06:10:56.0	94.370	0.290	-1.190	1.470
2020/01/31 06:10:56.1	94.380	0.290	-1.170	1.480
2020/01/31 06:10:56.2	94.380	0.290	-1.140	1.500
2020/01/31 06:10:56.3	94.390	0.290	-1.110	1.520
2020/01/31 06:10:56.4	94.390	0.280	-1.060	1.540
2020/01/31 06:10:56.5	94.390	0.260	-1.000	1.560
2020/01/31 06:10:56.6	94.390	0.250	-0.930	1.580
2020/01/31 06:10:56.7	94.380	0.230	-0.860	1.600
2020/01/31 06:10:56.8	94.380	0.200	-0.770	1.620
2020/01/31 06:10:56.9	94.370	0.170	-0.680	1.640
2020/01/31 06:10:57.0	94.370	0.140	-0.580	1.660
2020/01/31 06:10:57.1	94.360	0.110	-0.480	1.680
2020/01/31 06:10:57.2	94.360	0.070	-0.370	1.700
2020/01/31 06:10:57.3	94.350	0.030	-0.260	1.710
2020/01/31 06:10:57.4	94.340	-0.010	-0.150	1.730
2020/01/31 06:10:57.5	94.330	-0.060	-0.040	1.740
2020/01/31 06:10:57.6	94.320	-0.110	0.080	1.750
2020/01/31 06:10:57.7	94.320	-0.150	0.190	1.760
2020/01/31 06:10:57.8	94.310	-0.200	0.300	1.770
2020/01/31 06:10:57.9	94.300	-0.250	0.410	1.770
2020/01/31 06:10:58.0	94.290	-0.300	0.510	1.770
2020/01/31 06:10:58.1	94.280	-0.340	0.610	1.770
2020/01/31 06:10:58.2	94.280	-0.390	0.700	1.760
2020/01/31 06:10:58.3	94.270	-0.430	0.790	1.750
2020/01/31 06:10:58.4	94.270	-0.480	0.870	1.740
2020/01/31 06:10:58.5	94.260	-0.520	0.940	1.730
2020/01/31 06:10:58.6	94.260	-0.560	1.000	1.710
2020/01/31 06:10:58.7	94.250	-0.590	1.050	1.690
2020/01/31 06:10:58.8	94.250	-0.630	1.090	1.660
2020/01/31 06:10:58.9	94.240	-0.660	1.120	1.630
2020/01/31 06:10:59.0	94.240	-0.680	1.140	1.600
2020/01/31 06:10:59.1	94.240	-0.700	1.160	1.560
2020/01/31 06:10:59.2	94.240	-0.720	1.160	1.520
2020/01/31 06:10:59.3	94.240	-0.740	1.150	1.480
2020/01/31 06:10:59.4	94.240	-0.750	1.130	1.430
2020/01/31 06:10:59.5	94.240	-0.750	1.100	1.380
2020/01/31 06:10:59.6	94.240	-0.750	1.060	1.330
2020/01/31 06:10:59.7	94.250	-0.750	1.020	1.270
2020/01/31 06:10:59.8	94.250	-0.740	0.960	1.210
2020/01/31 06:10:59.9	94.260	-0.730	0.900	1.150
2020/01/31 06:11:00.0	94.260	-0.720	0.820	1.090
2020/01/31 06:11:00.1	94.270	-0.700	0.750	1.020
2020/01/31 06:11:00.2	94.270	-0.680	0.670	0.960
2020/01/31 06:11:00.3	94.280	-0.650	0.580	0.890
2020/01/31 06:11:00.4	94.290	-0.620	0.480	0.820
2020/01/31 06:11:00.5	94.300	-0.590	0.380	0.750
2020/01/31 06:11:00.6	94.310	-0.550	0.280	0.680
2020/01/31 06:11:00.7	94.320	-0.520	0.180	0.610
2020/01/31 06:11:00.8	94.320	-0.480	0.070	0.540
2020/01/31 06:11:00.9	94.330	-0.440	-0.040	0.470
2020/01/31 06:11:01.0	94.340	-0.390	-0.140	0.410
2020/01/31 06:11:01.1	94.340	-0.350	-0.250	0.340
2020/01/31 06:11:01.2	94.340	-0.310	-0.360	0.270
2020/01/31 06:11:01.3	94.350	-0.260	-0.460	0.210
2020/01/31 06:11:01.4	94.350	-0.220	-0.550	0.150
2020/01/31 06:11:01.5	94.350	-0.180	-0.650	0.090
2020/01/31 06:11:01.6	94.350	-0.130	-0.730	0.030
2020/01/31 06:11:01.7	94.350	-0.090	-0.820	-0.020
2020/01/31 06:11:01.8	94.350	-0.050	-0.890	-0.070
2020/01/31 06:11:01.9	94.350	-0.010	-0.960	-0.110
2020/01/31 06:11:02.0	94.340	0.030	-1.030	-0.150
2020/01/31 06:11:02.1	94.340	0.060	-1.080	-0.190
2020/01/31 06:11:02.2	94.330	0.100	-1.130	-0.230
2020/01/31 06:11:02.3	94.320	0.130	-1.170	-0.260
2020/01/31 06:11:02.4	94.310	0.160	-1.200	-0.290
2020/01/31 06:11:02.5	94.300	0.180	-1.220	-0.310
2020/01/31 06:11:02.6	94.290	0.210	-1.240	-0.330
2020/01/31 06:11:02.7	94.280	0.230	-1.250	-0.350
2020/01/31 06:11:02.8	94.270	0.250	-1.250	-0.370
2020/01/31 06:11:02.9	94.260	0.260	-1.240	-0.380
2020/01/31 06:11:03.0	94.250	0.280	-1.230	-0.380
2020/01/31 06:11:03.1	94.230	0.290	-1.200	-0.390
2020/01/31 06:11:03.2	94.230	0.300	-1.180	-0.390
2020/01/31 06:11:03.3	94.210	0.310	-1.150	-0.390
2020/01/31 06:11:03.4	94.200	0.310	-1.110	-0.380
2020/01/31 06:11:03.5	94.190	0.310	-1.060	-0.380
2020/01/31 06:11:03.6	94.180	0.320	-1.010	-0.370
2020/01/31 06:11:03.7	94.170	0.320	-0.960	-0.360
2020/01/31 06:11:03.8	94.160	0.310	-0.910	-0.350
2020/01/31 06:11:03.9	94.150	0.310	-0.850	-0.340
2020/01/31 06:11:04.0	94.140	0.310	-0.790	-0.330
2020/01/31 06:11:04.1	94.140	0.300	-0.730	-0.320
2020/01/31 06:11:04.2	94.130	0.300	-0.660	-0.310
2020/01/31 06:11:04.3	94.130	0.290	-0.590	-0.290
2020/01/31 06:11:04.4	94.130	0.280	-0.530	-0.280
2020/01/31 06:11:04.5	94.130	0.280	-0.460	-0.270
2020/01/31 06:11:04.6	94.130	0.270	-0.400	-0.250
2020/01/31 06:11:04.7	94.130	0.260	-0.340	-0.240
2020/01/31 06:11:04.8	94.130	0.250	-0.280	-0.220
2020/01/31 06:11:04.9	94.140	0.240	-0.220	-0.200
2020/01/31 06:11:05.0	94.140	0.230	-0.160	-0.180
2020/01/31 06:11:05.1	94.140	0.220	-0.110	-0.160
2020/01/31 06:11:05.2	94.150	0.210	-0.060	-0.140
2020/01/31 06:11:05.3	94.150	0.210	-0.010	-0.110
2020/01/31 06:11:05.4	94.150	0.200	0.040	-0.090
2020/01/31 06:11:05.5	94.160	0.190	0.080	-0.060
2020/01/31 06:11:05.6	94.160	0.180	0.120	-0.030
2020/01/31 06:11:05.7	94.160	0.170	0.160	-0.000
2020/01/31 06:11:05.8	94.160	0.160	0.190	0.030
2020/01/31 06:11:05.9	94.160	0.160	0.220	0.070
2020/01/31 06:11:06.0	94.160	0.150	0.250	0.100
2020/01/31 06:11:06.1	94.160	0.140	0.270	0.140
2020/01/31 06:11:06.2	94.160	0.130	0.290	0.180
2020/01/31 06:11:06.3	94.160	0.130	0.310	0.220
2020/01/31 06:11:06.4	94.160	0.120	0.320	0.250
2020/01/31 06:11:06.5	94.170	0.110	0.330	0.290
2020/01/31 06:11:06.6	94.170	0.110	0.340	0.330
2020/01/31 06:11:06.7	94.170	0.100	0.340	0.370
2020/01/31 06:11:06.8	94.180	0.100	0.340	0.400
2020/01/31 06:11:06.9	94.190	0.090	0.340	0.440
2020/01/31 06:11:07.0	94.190	0.090	0.330	0.470
2020/01/31 06:11:07.1	94.200	0.080	0.330	0.500
2020/01/31 06:11:07.2	94.210	0.080	0.310	0.530
2020/01/31 06:11:07.3	94.220	0.080	0.300	0.560
2020/01/31 06:11:07.4	94.240	0.070	0.290	0.590
2020/01/31 06:11:07.5	94.250	0.070	0.270	0.620
2020/01/31 06:11:07.6	94.270	0.070	0.260	0.650
2020/01/31 06:11:07.7	94.280	0.070	0.240	0.680
2020/01/31 06:11:07.8	94.300	0.070	0.220	0.700
2020/01/31 06:11:07.9	94.320	0.070	0.200	0.730
2020/01/31 06:11:08.0	94.340	0.070	0.170	0.760
2020/01/31 06:11:08.1	94.360	0.070	0.150	0.780
2020/01/31 06:11:08.2	94.380	0.070	0.130	0.810
2020/01/31 06:11:08.3	94.400	0.070	0.100	0.840
2020/01/31 06:11:08.4	94.420	0.070	0.080	0.860
2020/01/31 06:11:08.5	94.440	0.080	0.060	0.890
2020/01/31 06:11:08.6	94.460	0.080	0.030	0.920
2020/01/31 06:11:08.7	94.480	0.090	0.010	0.950
2020/01/31 06:11:08.8	94.500	0.090	-0.020	0.970
2020/01/31 06:11:08.9	94.520	0.100	-0.040	1.000
2020/01/31 06:11:09.0	94.530	0.110	-0.070	1.030
2020/01/31 06:11:09.1	94.550	0.120	-0.090	1.060
2020/01/31 06:11:09.2	94.570	0.130	-0.120	1.090
2020/01/31 06:11:09.3	94.580	0.140	-0.140	1.120
2020/01/31 06:11:09.4	94.600	0.150	-0.170	1.150
2020/01/31 06:11:09.5	94.610	0.170	-0.190	1.180
2020/01/31 06:11:09.6	94.620	0.180	-0.210	1.220
2020/01/31 06:11:09.7	94.620	0.190	-0.240	1.250
2020/01/31 06:11:09.8	94.630	0.210	-0.260	1.290
2020/01/31 06:11:09.9	94.640	0.220	-0.280	1.320
2020/01/31 06:11:10.0	94.640	0.230	-0.300	1.360
2020/01/31 06:11:10.1	94.640	0.250	-0.320	1.400
2020/01/31 06:11:10.2	94.640	0.260	-0.340	1.440
2020/01/31 06:11:10.3	94.640	0.280	-0.360	1.480
2020/01/31 06:11:10.4	94.640	0.290	-0.370	1.520
2020/01/31 06:11:10.5	94.630	0.300	-0.390	1.550
2020/01/31 06:11:10.6	94.630	0.310	-0.400	1.590
2020/01/31 06:11:10.7	94.620	0.320	-0.410	1.630
2020/01/31 06:11:10.8	94.610	0.330	-0.420	1.660
2020/01/31 06:11:10.9	94.600	0.330	-0.430	1.690
2020/01/31 06:11:11.0	94.590	0.340	-0.430	1.730
2020/01/31 06:11:11.1	94.580	0.340	-0.440	1.760
2020/01/31 06:11:11.2	94.560	0.340	-0.440	1.780
2020/01/31 06:11:11.3	94.550	0.340	-0.440	1.810
2020/01/31 06:11:11.4	94.540	0.330	-0.430	1.830
2020/01/31 06:11:11.5	94.520	0.320	-0.430	1.850
2020/01/31 06:11:11.6	94.510	0.320	-0.420	1.880
2020/01/31 06:11:11.7	94.500	0.300	-0.410	1.890
2020/01/31 06:11:11.8	94.480	0.290	-0.400	1.910
2020/01/31 06:11:11.9	94.470	0.270	-0.380	1.920
2020/01/31 06:11:12.0	94.460	0.260	-0.370	1.930
2020/01/31 06:11:12.1	94.450	0.230	-0.350	1.940
2020/01/31 06:11:12.2	94.440	0.210	-0.330	1.940
2020/01/31 06:11:12.3	94.430	0.190	-0.320	1.940
2020/01/31 06:11:12.4	94.420	0.160	-0.300	1.940
2020/01/31 06:11:12.5	94.410	0.130	-0.280	1.930
2020/01/31 06:11:12.6	94.410	0.100	-0.260	1.920
2020/01/31 06:11:12.7	94.400	0.070	-0.240	1.910
2020/01/31 06:11:12.8	94.400	0.040	-0.220	1.890
2020/01/31 06:11:12.9	94.390	0.010	-0.200	1.860
2020/01/31 06:11:13.0	94.390	-0.020	-0.180	1.840
2020/01/31 06:11:13.1	94.390	-0.060	-0.160	1.810
2020/01/31 06:11:13.2	94.390	-0.090	-0.140	1.770
2020/01/31 06:11:13.3	94.390	-0.130	-0.120	1.740
2020/01/31 06:11:13.4	94.400	-0.160	-0.100	1.700
2020/01/31 06:11:13.5	94.400	-0.190	-0.080	1.660
2020/01/31 06:11:13.6	94.410	-0.230	-0.070	1.610
2020/01/31 06:11:13.7	94.420	-0.260	-0.050	1.570
2020/01/31 06:11:13.8	94.430	-0.290	-0.040	1.520
2020/01/31 06:11:13.9	94.440	-0.320	-0.030	1.470
2020/01/31 06:11:14.0	94.450	-0.340	-0.020	1.420
2020/01/31 06:11:14.1	94.470	-0.370	-0.010	1.380
2020/01/31 06:11:14.2	94.480	-0.390	0.000	1.330
2020/01/31 06:11:14.3	94.490	-0.420	0.010	1.280
2020/01/31 06:11:14.4	94.510	-0.440	0.010	1.230
2020/01/31 06:11:14.5	94.520	-0.450	0.020	1.180
2020/01/31 06:11:14.6	94.540	-0.470	0.020	1.140
2020/01/31 06:11:14.7	94.550	-0.480	0.020	1.090
2020/01/31 06:11:14.8	94.560	-0.490	0.020	1.050
2020/01/31 06:11:14.9	94.580	-0.500	0.020	1.000
2020/01/31 06:11:15.0	94.590	-0.510	0.010	0.960
2020/01/31 06:11:15.1	94.600	-0.520	0.010	0.920
2020/01/31 06:11:15.2	94.620	-0.520	0.010	0.880
2020/01/31 06:11:15.3	94.630	-0.520	0.000	0.840
2020/01/31 06:11:15.4	94.640	-0.520	-0.000	0.810
2020/01/31 06:11:15.5	94.650	-0.520	-0.010	0.770
2020/01/31 06:11:15.6	94.660	-0.510	-0.010	0.740
2020/01/31 06:11:15.7	94.670	-0.510	-0.020	0.700
2020/01/31 06:11:15.8	94.680	-0.500	-0.020	0.670
2020/01/31 06:11:15.9	94.680	-0.490	-0.030	0.630
2020/01/31 06:11:16.0	94.690	-0.480	-0.030	0.600
2020/01/31 06:11:16.1	94.700	-0.470	-0.030	0.560
2020/01/31 06:11:16.2	94.700	-0.460	-0.030	0.530
2020/01/31 06:11:16.3	94.710	-0.440	-0.040	0.490
2020/01/31 06:11:16.4	94.720	-0.430	-0.040	0.450
2020/01/31 06:11:16.5	94.720	-0.410	-0.040	0.420
2020/01/31 06:11:16.6	94.730	-0.400	-0.040	0.380
2020/01/31 06:11:16.7	94.740	-0.380	-0.040	0.340
2020/01/31 06:11:16.8	94.750	-0.370	-0.040	0.300
2020/01/31 06:11:16.9	94.760	-0.350	-0.040	0.250
2020/01/31 06:11:17.0	94.770	-0.330	-0.040	0.210
2020/01/31 06:11:17.1	94.780	-0.320	-0.050	0.170
2020/01/31 06:11:17.2	94.790	-0.300	-0.050	0.120
2020/01/31 06:11:17.3	94.800	-0.280	-0.050	0.080
2020/01/31 06:11:17.4	94.810	-0.260	-0.060	0.040
2020/01/31 06:11:17.5	94.820	-0.240	-0.060	-0.010
2020/01/31 06:11:17.6	94.840	-0.220	-0.070	-0.050
2020/01/31 06:11:17.7	94.850	-0.200	-0.080	-0.090
2020/01/31 06:11:17.8	94.860	-0.180	-0.090	-0.130
2020/01/31 06:11:17.9	94.880	-0.160	-0.100	-0.170
2020/01/31 06:11:18.0	94.890	-0.140	-0.110	-0.200
2020/01/31 06:11:18.1	94.900	-0.120	-0.120	-0.230
2020/01/31 06:11:18.2	94.910	-0.100	-0.130	-0.260
2020/01/31 06:11:18.3	94.920	-0.080	-0.150	-0.290
2020/01/31 06:11:18.4	94.930	-0.060	-0.160	-0.310
2020/01/31 06:11:18.5	94.930	-0.030	-0.180	-0.330
2020/01/31 06:11:18.6	94.940	-0.010	-0.200	-0.340
2020/01/31 06:11:18.7	94.940	0.010	-0.210	-0.350
2020/01/31 06:11:18.8	94.940	0.040	-0.230	-0.360
2020/01/31 06:11:18.9	94.940	0.060	-0.250	-0.360
2020/01/31 06:11:19.0	94.940	0.090	-0.270	-0.360
2020/01/31 06:11:19.1	94.940	0.110	-0.290	-0.360
2020/01/31 06:11:19.2	94.940	0.130	-0.300	-0.350
2020/01/31 06:11:19.3	94.930	0.160	-0.320	-0.340
2020/01/31 06:11:19.4	94.930	0.180	-0.340	-0.330
2020/01/31 06:11:19.5	94.920	0.200	-0.350	-0.320
2020/01/31 06:11:19.6	94.920	0.220	-0.370	-0.300
2020/01/31 06:11:19.7	94.920	0.240	-0.390	-0.280
2020/01/31 06:11:19.8	94.910	0.260	-0.400	-0.270
2020/01/31 06:11:19.9	94.910	0.280	-0.410	-0.250
2020/01/31 06:11:20.0	94.900	0.300	-0.430	-0.230
2020/01/31 06:11:20.1	94.900	0.320	-0.440	-0.210
2020/01/31 06:11:20.2	94.900	0.340	-0.450	-0.190
2020/01/31 06:11:20.3	94.900	0.350	-0.450	-0.170
2020/01/31 06:11:20.4	94.900	0.370	-0.460	-0.150
2020/01/31 06:11:20.5	94.900	0.380	-0.470	-0.140
2020/01/31 06:11:20.6	94.900	0.390	-0.470	-0.120
2020/01/31 06:11:20.7	94.900	0.400	-0.470	-0.110
2020/01/31 06:11:20.8	94.910	0.410	-0.470	-0.090
2020/01/31 06:11:20.9	94.910	0.420	-0.470	-0.080
2020/01/31 06:11:21.0	94.920	0.430	-0.460	-0.070
2020/01/31 06:11:21.1	94.930	0.430	-0.460	-0.060
2020/01/31 06:11:21.2	94.940	0.430	-0.450	-0.050
2020/01/31 06:11:21.3	94.950	0.440	-0.440	-0.030
2020/01/31 06:11:21.4	94.960	0.440	-0.430	-0.020
2020/01/31 06:11:21.5	94.970	0.430	-0.420	-0.010
2020/01/31 06:11:21.6	94.980	0.430	-0.400	0.000
2020/01/31 06:11:21.7	94.990	0.430	-0.390	0.020
2020/01/31 06:11:21.8	95.000	0.420	-0.370	0.040
2020/01/31 06:11:21.9	95.020	0.410	-0.350	0.060
2020/01/31 06:11:22.0	95.030	0.400	-0.320	0.080
2020/01/31 06:11:22.1	95.040	0.390	-0.300	0.100
2020/01/31 06:11:22.2	95.050	0.380	-0.270	0.130
2020/01/31 06:11:22.3	95.060	0.360	-0.250	0.160
2020/01/31 06:11:22.4	95.070	0.350	-0.220	0.200
2020/01/31 06:11:22.5	95.080	0.330	-0.190	0.230
2020/01/31 06:11:22.6	95.090	0.310	-0.160	0.270
2020/01/31 06:11:22.7	95.100	0.290	-0.130	0.310
2020/01/31 06:11:22.8	95.100	0.260	-0.100	0.360
2020/01/31 06:11:22.9	95.110	0.240	-0.060	0.410
2020/01/31 06:11:23.0	95.120	0.210	-0.030	0.460
2020/01/31 06:11:23.1	95.120	0.190	0.000	0.520
2020/01/31 06:11:23.2	95.120	0.160	0.030	0.570
2020/01/31 06:11:23.3	95.120	0.130	0.060	0.630
2020/01/31 06:11:23.4	95.120	0.100	0.090	0.690
2020/01/31 06:11:23.5	95.120	0.070	0.120	0.760
2020/01/31 06:11:23.6	95.120	0.040	0.140	0.820
2020/01/31 06:11:23.7	95.120	0.010	0.170	0.890
2020/01/31 06:11:23.8	95.120	-0.020	0.190	0.960
2020/01/31 06:11:23.9	95.110	-0.050	0.200	1.020
2020/01/31 06:11:24.0	95.110	-0.080	0.220	1.090
2020/01/31 06:11:24.1	95.100	-0.110	0.230	1.160
2020/01/31 06:11:24.2	95.100	-0.140	0.230	1.230
2020/01/31 06:11:24.3	95.090	-0.160	0.230	1.300
2020/01/31 06:11:24.4	95.080	-0.190	0.230	1.370
2020/01/31 06:11:24.5	95.080	-0.210	0.230	1.430
2020/01/31 06:11:24.6	95.070	-0.230	0.220	1.490
2020/01/31 06:11:24.7	95.060	-0.250	0.210	1.560
2020/01/31 06:11:24.8	95.060	-0.270	0.190	1.610
2020/01/31 06:11:24.9	95.050	-0.290	0.170	1.670
2020/01/31 06:11:25.0	95.040	-0.300	0.150	1.720
2020/01/31 06:11:25.1	95.040	-0.310	0.120	1.780
2020/01/31 06:11:25.2	95.040	-0.320	0.090	1.820
2020/01/31 06:11:25.3	95.030	-0.330	0.060	1.870
2020/01/31 06:11:25.4	95.030	-0.330	0.030	1.910
2020/01/31 06:11:25.5	95.020	-0.340	-0.000	1.950
2020/01/31 06:11:25.6	95.020	-0.330	-0.040	1.990
2020/01/31 06:11:25.7	95.020	-0.330	-0.080	2.020
2020/01/31 06:11:25.8	95.020	-0.330	-0.110	2.050
2020/01/31 06:11:25.9	95.020	-0.320	-0.150	2.070
2020/01/31 06:11:26.0	95.020	-0.310	-0.190	2.090
2020/01/31 06:11:26.1	95.020	-0.300	-0.220	2.110
2020/01/31 06:11:26.2	95.030	-0.290	-0.260	2.110
2020/01/31 06:11:26.3	95.030	-0.270	-0.290	2.120
2020/01/31 06:11:26.4	95.040	-0.260	-0.320	2.130
2020/01/31 06:11:26.5	95.050	-0.240	-0.350	2.130
2020/01/31 06:11:26.6	95.050	-0.220	-0.370	2.120
2020/01/31 06:11:26.7	95.060	-0.200	-0.400	2.110
2020/01/31 06:11:26.8	95.070	-0.180	-0.420	2.100
2020/01/31 06:11:26.9	95.080	-0.160	-0.440	2.080
2020/01/31 06:11:27.0	95.100	-0.140	-0.450	2.060
2020/01/31 06:11:27.1	95.110	-0.120	-0.460	2.040
2020/01/31 06:11:27.2	95.130	-0.100	-0.470	2.020
2020/01/31 06:11:27.3	95.140	-0.080	-0.470	1.990
2020/01/31 06:11:27.4	95.160	-0.060	-0.470	1.950
2020/01/31 06:11:27.5	95.180	-0.040	-0.470	1.920
2020/01/31 06:11:27.6	95.200	-0.020	-0.460	1.880
2020/01/31 06:11:27.7	95.220	-0.010	-0.450	1.840
2020/01/31 06:11:27.8	95.240	0.010	-0.430	1.800
2020/01/31 06:11:27.9	95.260	0.030	-0.410	1.760
2020/01/31 06:11:28.0	95.280	0.040	-0.390	1.710
2020/01/31 06:11:28.1	95.300	0.050	-0.370	1.670
2020/01/31 06:11:28.2	95.320	0.060	-0.340	1.610
2020/01/31 06:11:28.3	95.340	0.070	-0.310	1.570
2020/01/31 06:11:28.4	95.360	0.080	-0.280	1.520
2020/01/31 06:11:28.5	95.380	0.090	-0.250	1.470
2020/01/31 06:11:28.6	95.410	0.090	-0.220	1.420
2020/01/31 06:11:28.7	95.430	0.100	-0.180	1.370
2020/01/31 06:11:28.8	95.450	0.100	-0.150	1.320
2020/01/31 06:11:28.9	95.460	0.100	-0.120	1.260
2020/01/31 06:11:29.0	95.480	0.100	-0.080	1.210
2020/01/31 06:11:29.1	95.500	0.100	-0.050	1.150
2020/01/31 06:11:29.2	95.510	0.100	-0.020	1.100
2020/01/31 06:11:29.3	95.520	0.090	0.010	1.050
2020/01/31 06:11:29.4	95.530	0.090	0.030	0.990
2020/01/31 06:11:29.5	95.540	0.090	0.060	0.930
2020/01/31 06:11:29.6	95.550	0.080	0.070	0.870
2020/01/31 06:11:29.7	95.550	0.080	0.090	0.810
2020/01/31 06:11:29.8	95.560	0.070	0.100	0.750
2020/01/31 06:11:29.9	95.560	0.060	0.110	0.690
2020/01/31 06:11:30.0	95.560	0.060	0.110	0.630
2020/01/31 06:11:30.1	95.560	0.050	0.110	0.570
2020/01/31 06:11:30.2	95.560	0.050	0.110	0.500
2020/01/31 06:11:30.3	95.560	0.040	0.100	0.440
2020/01/31 06:11:30.4	95.560	0.030	0.090	0.380
2020/01/31 06:11:30.5	95.550	0.030	0.080	0.320
2020/01/31 06:11:30.6	95.540	0.020	0.070	0.260
2020/01/31 06:11:30.7	95.530	0.020	0.050	0.200
2020/01/31 06:11:30.8	95.520	0.020	0.030	0.140
2020/01/31 06:11:30.9	95.510	0.010	0.010	0.090
2020/01/31 06:11:31.0	95.500	0.010	-0.010	0.030
2020/01/31 06:11:31.1	95.490	0.000	-0.040	-0.020
2020/01/31 06:11:31.2	95.460	0.000	-0.060	-0.060
2020/01/31 06:11:31.3	95.450	-0.000	-0.090	-0.110
2020/01/31 06:11:31.4	95.430	-0.000	-0.110	-0.150
2020/01/31 06:11:31.5	95.420	-0.010	-0.140	-0.180
2020/01/31 06:11:31.6	95.400	-0.010	-0.170	-0.220
2020/01/31 06:11:31.7	95.390	-0.010	-0.190	-0.240
2020/01/31 06:11:31.8	95.370	-0.010	-0.220	-0.270
2020/01/31 06:11:31.9	95.350	-0.010	-0.240	-0.290
2020/01/31 06:11:32.0	95.330	-0.010	-0.260	-0.300
2020/01/31 06:11:32.1	95.310	-0.020	-0.280	-0.310
2020/01/31 06:11:32.2	95.300	-0.020	-0.300	-0.320
2020/01/31 06:11:32.3	95.280	-0.020	-0.320	-0.320
2020/01/31 06:11:32.4	95.260	-0.020	-0.330	-0.320
2020/01/31 06:11:32.5	95.240	-0.020	-0.350	-0.320
2020/01/31 06:11:32.6	95.230	-0.020	-0.360	-0.310
2020/01/31 06:11:32.7	95.210	-0.020	-0.370	-0.300
2020/01/31 06:11:32.8	95.200	-0.020	-0.380	-0.290
2020/01/31 06:11:32.9	95.180	-0.030	-0.380	-0.270
2020/01/31 06:11:33.0	95.170	-0.030	-0.390	-0.260
2020/01/31 06:11:33.1	95.160	-0.030	-0.390	-0.240
2020/01/31 06:11:33.2	95.140	-0.030	-0.390	-0.220
2020/01/31 06:11:33.3	95.130	-0.030	-0.390	-0.200
2020/01/31 06:11:33.4	95.120	-0.040	-0.390	-0.180
2020/01/31 06:11:33.5	95.120	-0.040	-0.390	-0.160
2020/01/31 06:11:33.6	95.120	-0.040	-0.390	-0.150
2020/01/31 06:11:33.7	95.110	-0.040	-0.390	-0.130
2020/01/31 06:11:33.8	95.120	-0.040	-0.380	-0.120
2020/01/31 06:11:33.9	95.120	-0.040	-0.380	-0.100
2020/01/31 06:11:34.0	95.130	-0.040	-0.380	-0.090
2020/01/31 06:11:34.1	95.130	-0.030	-0.370	-0.080
2020/01/31 06:11:34.2	95.140	-0.030	-0.370	-0.070
2020/01/31 06:11:34.3	95.150	-0.020	-0.370	-0.070
2020/01/31 06:11:34.4	95.160	-0.020	-0.370	-0.060
2020/01/31 06:11:34.5	95.170	-0.010	-0.360	-0.050
2020/01/31 06:11:34.6	95.190	-0.010	-0.360	-0.050
2020/01/31 06:11:34.7	95.200	0.000	-0.360	-0.050
2020/01/31 06:11:34.8	95.220	0.010	-0.360	-0.040
2020/01/31 06:11:34.9	95.240	0.020	-0.350	-0.040
2020/01/31 06:11:35.0	95.250	0.030	-0.350	-0.030
2020/01/31 06:11:35.1	95.270	0.050	-0.350	-0.030
2020/01/31 06:11:35.2	95.280	0.060	-0.340	-0.020
2020/01/31 06:11:35.3	95.300	0.070	-0.340	-0.010
2020/01/31 06:11:35.4	95.320	0.080	-0.330	-0.000
2020/01/31 06:11:35.5	95.330	0.100	-0.320	0.010
2020/01/31 06:11:35.6	95.350	0.110	-0.310	0.020
2020/01/31 06:11:35.7	95.360	0.120	-0.300	0.040
2020/01/31 06:11:35.8	95.370	0.130	-0.290	0.060
2020/01/31 06:11:35.9	95.390	0.150	-0.280	0.080
2020/01/31 06:11:36.0	95.400	0.160	-0.260	0.100
2020/01/31 06:11:36.1	95.410	0.160	-0.240	0.130
2020/01/31 06:11:36.2	95.430	0.170	-0.220	0.160
2020/01/31 06:11:36.3	95.440	0.180	-0.200	0.190
2020/01/31 06:11:36.4	95.450	0.180	-0.180	0.220
2020/01/31 06:11:36.5	95.470	0.180	-0.150	0.260
2020/01/31 06:11:36.6	95.480	0.180	-0.130	0.300
2020/01/31 06:11:36.7	95.490	0.180	-0.100	0.340
2020/01/31 06:11:36.8	95.500	0.170	-0.070	0.380
2020/01/31 06:11:36.9	95.510	0.160	-0.040	0.430
2020/01/31 06:11:37.0	95.520	0.160	-0.010	0.480
2020/01/31 06:11:37.1	95.530	0.140	0.020	0.530
2020/01/31 06:11:37.2	95.540	0.130	0.050	0.580
2020/01/31 06:11:37.3	95.550	0.120	0.080	0.640
2020/01/31 06:11:37.4	95.560	0.100	0.110	0.690
2020/01/31 06:11:37.5	95.570	0.080	0.140	0.750
2020/01/31 06:11:37.6	95.570	0.060	0.170	0.810
2020/01/31 06:11:37.7	95.580	0.040	0.190	0.870
2020/01/31 06:11:37.8	95.580	0.020	0.220	0.930
2020/01/31 06:11:37.9	95.580	-0.000	0.240	0.990
2020/01/31 06:11:38.0	95.580	-0.030	0.260	1.050
2020/01/31 06:11:38.1	95.580	-0.050	0.270	1.110
2020/01/31 06:11:38.2	95.590	-0.070	0.290	1.180
2020/01/31 06:11:38.3	95.590	-0.100	0.300	1.240
2020/01/31 06:11:38.4	95.590	-0.120	0.300	1.290
2020/01/31 06:11:38.5	95.580	-0.140	0.310	1.350
2020/01/31 06:11:38.6	95.570	-0.160	0.310	1.410
2020/01/31 06:11:38.7	95.560	-0.180	0.300	1.460
2020/01/31 06:11:38.8	95.550	-0.200	0.300	1.510
2020/01/31 06:11:38.9	95.540	-0.220	0.290	1.560
2020/01/31 06:11:39.0	95.530	-0.240	0.270	1.610
2020/01/31 06:11:39.1	95.520	-0.260	0.260	1.650
2020/01/31 06:11:39.2	95.510	-0.270	0.240	1.690
2020/01/31 06:11:39.3	95.500	-0.280	0.220	1.730
2020/01/31 06:11:39.4	95.490	-0.290	0.200	1.770
2020/01/31 06:11:39.5	95.470	-0.300	0.180	1.800
2020/01/31 06:11:39.6	95.460	-0.310	0.150	1.830
2020/01/31 06:11:39.7	95.450	-0.310	0.130	1.850
2020/01/31 06:11:39.8	95.430	-0.320	0.100	1.880
2020/01/31 06:11:39.9	95.420	-0.320	0.080	1.900
2020/01/31 06:11:40.0	95.410	-0.320	0.050	1.910
2020/01/31 06:11:40.1	95.390	-0.320	0.030	1.930
2020/01/31 06:11:40.2	95.380	-0.320	-0.000	1.940
2020/01/31 06:11:40.3	95.370	-0.310	-0.030	1.950
2020/01/31 06:11:40.4	95.360	-0.310	-0.050	1.950
2020/01/31 06:11:40.5	95.340	-0.300	-0.080	1.960
2020/01/31 06:11:40.6	95.330	-0.290	-0.100	1.960
2020/01/31 06:11:40.7	95.320	-0.290	-0.120	1.960
2020/01/31 06:11:40.8	95.310	-0.280	-0.140	1.960
2020/01/31 06:11:40.9	95.300	-0.270	-0.160	1.960
2020/01/31 06:11:41.0	95.290	-0.250	-0.180	1.960
2020/01/31 06:11:41.1	95.280	-0.240	-0.200	1.950
2020/01/31 06:11:41.2	95.270	-0.230	-0.210	1.940
2020/01/31 06:11:41.3	95.260	-0.210	-0.230	1.930
2020/01/31 06:11:41.4	95.250	-0.200	-0.250	1.910
2020/01/31 06:11:41.5	95.250	-0.180	-0.260	1.900
2020/01/31 06:11:41.6	95.250	-0.170	-0.280	1.880
2020/01/31 06:11:41.7	95.250	-0.150	-0.290	1.860
2020/01/31 06:11:41.8	95.250	-0.140	-0.310	1.840
2020/01/31 06:11:41.9	95.250	-0.120	-0.330	1.810
2020/01/31 06:11:42.0	95.250	-0.100	-0.350	1.780
2020/01/31 06:11:42.1	95.260	-0.080	-0.360	1.750
2020/01/31 06:11:42.2	95.270	-0.060	-0.380	1.720
2020/01/31 06:11:42.3	95.280	-0.040	-0.400	1.690
2020/01/31 06:11:42.4	95.290	-0.020	-0.420	1.650
2020/01/31 06:11:42.5	95.300	0.000	-0.440	1.600
2020/01/31 06:11:42.6	95.320	0.030	-0.470	1.560
2020/01/31 06:11:42.7	95.330	0.050	-0.490	1.510
2020/01/31 06:11:42.8	95.350	0.070	-0.510	1.460
2020/01/31 06:11:42.9	95.360	0.100	-0.540	1.410
2020/01/31 06:11:43.0	95.380	0.120	-0.560	1.360
2020/01/31 06:11:43.1	95.400	0.150	-0.590	1.300
2020/01/31 06:11:43.2	95.410	0.170	-0.620	1.240
2020/01/31 06:11:43.3	95.420	0.200	-0.640	1.180
2020/01/31 06:11:43.4	95.440	0.220	-0.670	1.120
2020/01/31 06:11:43.5	95.460	0.250	-0.690	1.070
2020/01/31 06:11:43.6	95.470	0.270	-0.710	1.010
2020/01/31 06:11:43.7	95.490	0.290	-0.730	0.950
2020/01/31 06:11:43.8	95.500	0.310	-0.750	0.890
2020/01/31 06:11:43.9	95.510	0.340	-0.760	0.830
2020/01/31 06:11:44.0	95.520	0.350	-0.770	0.770
2020/01/31 06:11:44.1	95.530	0.370	-0.780	0.720
2020/01/31 06:11:44.2	95.540	0.390	-0.780	0.660
2020/01/31 06:11:44.3	95.540	0.400	-0.780	0.610
2020/01/31 06:11:44.4	95.550	0.410	-0.770	0.560
2020/01/31 06:11:44.5	95.550	0.420	-0.760	0.510
2020/01/31 06:11:44.6	95.550	0.430	-0.750	0.460
2020/01/31 06:11:44.7	95.550	0.430	-0.730	0.420
2020/01/31 06:11:44.8	95.550	0.440	-0.700	0.380
2020/01/31 06:11:44.9	95.540	0.430	-0.670	0.340
2020/01/31 06:11:45.0	95.540	0.430	-0.630	0.300
2020/01/31 06:11:45.1	95.530	0.420	-0.590	0.270
2020/01/31 06:11:45.2	95.530	0.410	-0.540	0.240
2020/01/31 06:11:45.3	95.520	0.390	-0.490	0.210
2020/01/31 06:11:45.4	95.500	0.380	-0.430	0.190
2020/01/31 06:11:45.5	95.490	0.360	-0.370	0.160
2020/01/31 06:11:45.6	95.470	0.330	-0.310	0.140
2020/01/31 06:11:45.7	95.460	0.300	-0.240	0.130
2020/01/31 06:11:45.8	95.440	0.280	-0.170	0.110
2020/01/31 06:11:45.9	95.420	0.240	-0.100	0.100
2020/01/31 06:11:46.0	95.400	0.210	-0.030	0.090
2020/01/31 06:11:46.1	95.390	0.170	0.050	0.080
2020/01/31 06:11:46.2	95.370	0.140	0.130	0.080
2020/01/31 06:11:46.3	95.350	0.100	0.200	0.070
2020/01/31 06:11:46.4	95.330	0.060	0.270	0.070
2020/01/31 06:11:46.5	95.310	0.010	0.340	0.070
2020/01/31 06:11:46.6	95.290	-0.030	0.410	0.070
2020/01/31 06:11:46.7	95.280	-0.070	0.470	0.070
2020/01/31 06:11:46.8	95.260	-0.110	0.530	0.070
2020/01/31 06:11:46.9	95.240	-0.150	0.580	0.080
2020/01/31 06:11:47.0	95.220	-0.190	0.630	0.080
2020/01/31 06:11:47.1	95.210	-0.230	0.670	0.090
2020/01/31 06:11:47.2	95.190	-0.260	0.710	0.090
2020/01/31 06:11:47.3	95.170	-0.300	0.740	0.100
2020/01/31 06:11:47.4	95.160	-0.330	0.760	0.110
2020/01/31 06:11:47.5	95.140	-0.350	0.770	0.120
2020/01/31 06:11:47.6	95.120	-0.380	0.780	0.130
2020/01/31 06:11:47.7	95.110	-0.400	0.770	0.140
2020/01/31 06:11:47.8	95.090	-0.410	0.760	0.150
2020/01/31 06:11:47.9	95.080	-0.420	0.730	0.160
2020/01/31 06:11:48.0	95.070	-0.430	0.700	0.170
2020/01/31 06:11:48.1	95.050	-0.430	0.660	0.180
2020/01/31 06:11:48.2	95.040	-0.430	0.610	0.190
2020/01/31 06:11:48.3	95.030	-0.420	0.560	0.200
2020/01/31 06:11:48.4	95.020	-0.410	0.490	0.210
2020/01/31 06:11:48.5	95.020	-0.400	0.420	0.220
2020/01/31 06:11:48.6	95.010	-0.380	0.340	0.230
2020/01/31 06:11:48.7	95.010	-0.350	0.260	0.230
2020/01/31 06:11:48.8	95.010	-0.330	0.180	0.240
2020/01/31 06:11:48.9	95.010	-0.290	0.090	0.240
2020/01/31 06:11:49.0	95.010	-0.260	-0.000	0.250
2020/01/31 06:11:49.1	95.010	-0.220	-0.100	0.250
2020/01/31 06:11:49.2	95.020	-0.180	-0.200	0.250
2020/01/31 06:11:49.3	95.020	-0.140	-0.290	0.250
2020/01/31 06:11:49.4	95.030	-0.090	-0.380	0.250
2020/01/31 06:11:49.5	95.040	-0.050	-0.470	0.260
2020/01/31 06:11:49.6	95.060	-0.000	-0.560	0.260
2020/01/31 06:11:49.7	95.070	0.040	-0.650	0.260
2020/01/31 06:11:49.8	95.080	0.090	-0.730	0.260
2020/01/31 06:11:49.9	95.100	0.140	-0.800	0.270
2020/01/31 06:11:50.0	95.120	0.180	-0.870	0.270
2020/01/31 06:11:50.1	95.130	0.220	-0.930	0.280
2020/01/31 06:11:50.2	95.150	0.270	-0.990	0.280
2020/01/31 06:11:50.3	95.160	0.300	-1.030	0.290
2020/01/31 06:11:50.4	95.180	0.340	-1.070	0.300
2020/01/31 06:11:50.5	95.200	0.370	-1.100	0.310
2020/01/31 06:11:50.6	95.210	0.400	-1.130	0.330
2020/01/31 06:11:50.7	95.230	0.430	-1.140	0.340
2020/01/31 06:11:50.8	95.250	0.450	-1.140	0.360
2020/01/31 06:11:50.9	95.260	0.470	-1.140	0.380
2020/01/31 06:11:51.0	95.270	0.480	-1.130	0.400
2020/01/31 06:11:51.1	95.280	0.490	-1.110	0.430
2020/01/31 06:11:51.2	95.280	0.490	-1.080	0.450
2020/01/31 06:11:51.3	95.290	0.490	-1.040	0.480
2020/01/31 06:11:51.4	95.300	0.490	-1.000	0.520
2020/01/31 06:11:51.5	95.310	0.480	-0.950	0.550
2020/01/31 06:11:51.6	95.310	0.460	-0.890	0.590
2020/01/31 06:11:51.7	95.310	0.440	-0.820	0.630
2020/01/31 06:11:51.8	95.310	0.420	-0.750	0.670
2020/01/31 06:11:51.9	95.310	0.390	-0.680	0.720
2020/01/31 06:11:52.0	95.310	0.360	-0.600	0.760
2020/01/31 06:11:52.1	95.310	0.330	-0.520	0.810
2020/01/31 06:11:52.2	95.300	0.290	-0.430	0.860
2020/01/31 06:11:52.3	95.290	0.250	-0.340	0.910
2020/01/31 06:11:52.4	95.290	0.200	-0.250	0.970
2020/01/31 06:11:52.5	95.280	0.160	-0.150	1.020
2020/01/31 06:11:52.6	95.270	0.110	-0.060	1.070
2020/01/31 06:11:52.7	95.260	0.060	0.040	1.120
2020/01/31 06:11:52.8	95.250	0.010	0.130	1.170
2020/01/31 06:11:52.9	95.250	-0.050	0.220	1.220
2020/01/31 06:11:53.0	95.240	-0.100	0.310	1.260
2020/01/31 06:11:53.1	95.230	-0.150	0.400	1.310
2020/01/31 06:11:53.2	95.230	-0.210	0.490	1.350
2020/01/31 06:11:53.3	95.220	-0.260	0.570	1.390
2020/01/31 06:11:53.4	95.220	-0.310	0.650	1.430
2020/01/31 06:11:53.5	95.210	-0.360	0.720	1.460
2020/01/31 06:11:53.6	95.200	-0.410	0.790	1.490
2020/01/31 06:11:53.7	95.200	-0.450	0.850	1.520
2020/01/31 06:11:53.8	95.190	-0.500	0.900	1.550
2020/01/31 06:11:53.9	95.190	-0.540	0.950	1.570
2020/01/31 06:11:54.0	95.180	-0.570	0.990	1.590
2020/01/31 06:11:54.1	95.170	-0.610	1.020	1.610
2020/01/31 06:11:54.2	95.170	-0.630	1.040	1.630
2020/01/31 06:11:54.3	95.170	-0.660	1.060	1.640
2020/01/31 06:11:54.4	95.160	-0.680	1.060	1.650
2020/01/31 06:11:54.5	95.150	-0.700	1.050	1.660
2020/01/31 06:11:54.6	95.140	-0.710	1.040	1.670
2020/01/31 06:11:54.7	95.140	-0.710	1.020	1.670
2020/01/31 06:11:54.8	95.130	-0.710	0.980	1.680
2020/01/31 06:11:54.9	95.120	-0.710	0.940	1.680
2020/01/31 06:11:55.0	95.110	-0.700	0.890	1.670
2020/01/31 06:11:55.1	95.100	-0.690	0.830	1.670
2020/01/31 06:11:55.2	95.100	-0.670	0.770	1.660
2020/01/31 06:11:55.3	95.090	-0.650	0.690	1.650
2020/01/31 06:11:55.4	95.080	-0.620	0.610	1.630
2020/01/31 06:11:55.5	95.080	-0.590	0.520	1.620
2020/01/31 06:11:55.6	95.070	-0.550	0.430	1.600
2020/01/31 06:11:55.7	95.070	-0.510	0.330	1.580
2020/01/31 06:11:55.8	95.060	-0.470	0.220	1.560
2020/01/31 06:11:55.9	95.060	-0.420	0.120	1.540
2020/01/31 06:11:56.0	95.060	-0.380	0.010	1.510
2020/01/31 06:11:56.1	95.060	-0.330	-0.110	1.480
2020/01/31 06:11:56.2	95.060	-0.270	-0.220	1.450
2020/01/31 06:11:56.3	95.060	-0.220	-0.340	1.410
2020/01/31 06:11:56.4	95.070	-0.160	-0.450	1.380
2020/01/31 06:11:56.5	95.070	-0.110	-0.560	1.340
2020/01/31 06:11:56.6	95.080	-0.050	-0.670	1.300
2020/01/31 06:11:56.7	95.080	0.010	-0.780	1.260
2020/01/31 06:11:56.8	95.090	0.070	-0.880	1.220
2020/01/31 06:11:56.9	95.090	0.120	-0.980	1.180
2020/01/31 06:11:57.0	95.100	0.180	-1.080	1.140
2020/01/31 06:11:57.1	95.100	0.230	-1.160	1.100
2020/01/31 06:11:57.2	95.100	0.280	-1.240	1.060
2020/01/31 06:11:57.3	95.110	0.330	-1.310	1.020
2020/01/31 06:11:57.4	95.110	0.370	-1.380	0.980
2020/01/31 06:11:57.5	95.110	0.420	-1.430	0.940
2020/01/31 06:11:57.6	95.110	0.460	-1.480	0.900
2020/01/31 06:11:57.7	95.110	0.490	-1.520	0.860
2020/01/31 06:11:57.8	95.100	0.530	-1.540	0.820
2020/01/31 06:11:57.9	95.100	0.560	-1.560	0.790
2020/01/31 06:11:58.0	95.100	0.580	-1.570	0.750
2020/01/31 06:11:58.1	95.090	0.600	-1.560	0.720
2020/01/31 06:11:58.2	95.080	0.620	-1.560	0.690
2020/01/31 06:11:58.3	95.080	0.630	-1.530	0.660
2020/01/31 06:11:58.4	95.070	0.630	-1.500	0.630
2020/01/31 06:11:58.5	95.060	0.640	-1.450	0.610
2020/01/31 06:11:58.6	95.060	0.630	-1.400	0.580
2020/01/31 06:11:58.7	95.050	0.630	-1.340	0.560
2020/01/31 06:11:58.8	95.040	0.610	-1.270	0.540
2020/01/31 06:11:58.9	95.030	0.600	-1.190	0.520
2020/01/31 06:11:59.0	95.020	0.580	-1.110	0.510
2020/01/31 06:11:59.1	95.020	0.560	-1.020	0.490
2020/01/31 06:11:59.2	95.000	0.530	-0.910	0.470
2020/01/31 06:11:59.3	95.000	0.500	-0.810	0.460
2020/01/31 06:11:59.4	94.990	0.470	-0.710	0.450
2020/01/31 06:11:59.5	94.980	0.430	-0.600	0.450
2020/01/31 06:11:59.6	94.970	0.390	-0.480	0.440
2020/01/31 06:11:59.7	94.960	0.350	-0.370	0.440
2020/01/31 06:11:59.8	94.950	0.300	-0.250	0.430
2020/01/31 06:11:59.9	94.940	0.260	-0.140	0.430
2020/01/31 06:12:00.0	94.930	0.210	-0.020	0.430
2020/01/31 06:12:00.1	94.920	0.160	0.090	0.430
2020/01/31 06:12:00.2	94.920	0.110	0.210	0.430
2020/01/31 06:12:00.3	94.910	0.060	0.320	0.430
2020/01/31 06:12:00.4	94.890	0.020	0.420	0.430
2020/01/31 06:12:00.5	94.880	-0.030	0.520	0.430
2020/01/31 06:12:00.6	94.870	-0.080	0.620	0.430
2020/01/31 06:12:00.7	94.860	-0.130	0.710	0.430
2020/01/31 06:12:00.8	94.840	-0.180	0.800	0.430
2020/01/31 06:12:00.9	94.830	-0.220	0.880	0.430
2020/01/31 06:12:01.0	94.810	-0.260	0.950	0.430
2020/01/31 06:12:01.1	94.800	-0.300	1.010	0.430
2020/01/31 06:12:01.2	94.780	-0.340	1.070	0.420
2020/01/31 06:12:01.3	94.770	-0.380	1.110	0.420
2020/01/31 06:12:01.4	94.750	-0.410	1.150	0.410
2020/01/31 06:12:01.5	94.730	-0.440	1.180	0.410
2020/01/31 06:12:01.6	94.720	-0.460	1.200	0.400
2020/01/31 06:12:01.7	94.700	-0.480	1.210	0.390
2020/01/31 06:12:01.8	94.680	-0.500	1.200	0.390
2020/01/31 06:12:01.9	94.660	-0.510	1.190	0.380
2020/01/31 06:12:02.0	94.650	-0.510	1.170	0.370
2020/01/31 06:12:02.1	94.630	-0.520	1.140	0.370
2020/01/31 06:12:02.2	94.620	-0.520	1.100	0.360
2020/01/31 06:12:02.3	94.600	-0.510	1.050	0.350
2020/01/31 06:12:02.4	94.590	-0.500	0.990	0.340
2020/01/31 06:12:02.5	94.580	-0.480	0.920	0.330
2020/01/31 06:12:02.6	94.570	-0.460	0.850	0.320
2020/01/31 06:12:02.7	94.570	-0.440	0.760	0.310
2020/01/31 06:12:02.8	94.560	-0.410	0.670	0.300
2020/01/31 06:12:02.9	94.560	-0.380	0.580	0.290
2020/01/31 06:12:03.0	94.560	-0.350	0.480	0.290
2020/01/31 06:12:03.1	94.560	-0.310	0.370	0.280
2020/01/31 06:12:03.2	94.560	-0.270	0.260	0.270
2020/01/31 06:12:03.3	94.570	-0.230	0.150	0.260
2020/01/31 06:12:03.4	94.580	-0.180	0.030	0.250
2020/01/31 06:12:03.5	94.590	-0.140	-0.080	0.250
2020/01/31 06:12:03.6	94.600	-0.090	-0.200	0.240
2020/01/31 06:12:03.7	94.610	-0.040	-0.310	0.230
2020/01/31 06:12:03.8	94.620	0.000	-0.430	0.230
2020/01/31 06:12:03.9	94.640	0.050	-0.540	0.230
2020/01/31 06:12:04.0	94.650	0.100	-0.640	0.230
2020/01/31 06:12:04.1	94.660	0.140	-0.750	0.230
2020/01/31 06:12:04.2	94.670	0.190	-0.850	0.230
2020/01/31 06:12:04.3	94.690	0.230	-0.940	0.230
2020/01/31 06:12:04.4	94.700	0.270	-1.030	0.240
2020/01/31 06:12:04.5	94.710	0.310	-1.110	0.250
2020/01/31 06:12:04.6	94.720	0.350	-1.180	0.260
2020/01/31 06:12:04.7	94.740	0.380	-1.240	0.270
2020/01/31 06:12:04.8	94.740	0.410	-1.300	0.280
2020/01/31 06:12:04.9	94.750	0.430	-1.340	0.300
2020/01/31 06:12:05.0	94.760	0.460	-1.380	0.310
2020/01/31 06:12:05.1	94.760	0.480	-1.400	0.330
2020/01/31 06:12:05.2	94.770	0.490	-1.420	0.350
2020/01/31 06:12:05.3	94.770	0.500	-1.420	0.380
2020/01/31 06:12:05.4	94.770	0.510	-1.420	0.400
2020/01/31 06:12:05.5	94.770	0.510	-1.400	0.420
2020/01/31 06:12:05.6	94.770	0.510	-1.380	0.450
2020/01/31 06:12:05.7	94.770	0.510	-1.350	0.480
2020/01/31 06:12:05.8	94.760	0.500	-1.300	0.510
2020/01/31 06:12:05.9	94.760	0.490	-1.250	0.550
2020/01/31 06:12:06.0	94.750	0.470	-1.190	0.580
2020/01/31 06:12:06.1	94.740	0.450	-1.130	0.620
2020/01/31 06:12:06.2	94.740	0.430	-1.050	0.660
2020/01/31 06:12:06.3	94.730	0.410	-0.970	0.690
2020/01/31 06:12:06.4	94.720	0.380	-0.890	0.730
2020/01/31 06:12:06.5	94.710	0.350	-0.790	0.780
2020/01/31 06:12:06.6	94.700	0.320	-0.700	0.820
2020/01/31 06:12:06.7	94.690	0.280	-0.600	0.860
2020/01/31 06:12:06.8	94.680	0.250	-0.490	0.900
2020/01/31 06:12:06.9	94.670	0.210	-0.390	0.940
2020/01/31 06:12:07.0	94.660	0.170	-0.280	0.990
2020/01/31 06:12:07.1	94.650	0.130	-0.170	1.030
2020/01/31 06:12:07.2	94.640	0.090	-0.060	1.070
2020/01/31 06:12:07.3	94.620	0.040	0.050	1.120
2020/01/31 06:12:07.4	94.610	0.000	0.150	1.160
2020/01/31 06:12:07.5	94.590	-0.040	0.260	1.210
2020/01/31 06:12:07.6	94.570	-0.080	0.360	1.250
2020/01/31 06:12:07.7	94.560	-0.120	0.460	1.290
2020/01/31 06:12:07.8	94.540	-0.160	0.550	1.330
2020/01/31 06:12:07.9	94.520	-0.200	0.640	1.380
2020/01/31 06:12:08.0	94.510	-0.240	0.720	1.420
2020/01/31 06:12:08.1	94.490	-0.270	0.800	1.450
2020/01/31 06:12:08.2	94.470	-0.300	0.870	1.490
2020/01/31 06:12:08.3	94.450	-0.340	0.940	1.530
2020/01/31 06:12:08.4	94.430	-0.360	0.990	1.560
2020/01/31 06:12:08.5	94.410	-0.390	1.030	1.590
2020/01/31 06:12:08.6	94.390	-0.410	1.070	1.620
2020/01/31 06:12:08.7	94.380	-0.430	1.090	1.640
2020/01/31 06:12:08.8	94.360	-0.450	1.110	1.670
2020/01/31 06:12:08.9	94.340	-0.460	1.110	1.690
2020/01/31 06:12:09.0	94.330	-0.470	1.100	1.710
2020/01/31 06:12:09.1	94.310	-0.470	1.080	1.720
2020/01/31 06:12:09.2	94.300	-0.470	1.050	1.730
2020/01/31 06:12:09.3	94.290	-0.460	1.000	1.740
2020/01/31 06:12:09.4	94.280	-0.460	0.950	1.740
2020/01/31 06:12:09.5	94.260	-0.440	0.880	1.750
2020/01/31 06:12:09.6	94.250	-0.430	0.800	1.750
2020/01/31 06:12:09.7	94.240	-0.410	0.720	1.740
2020/01/31 06:12:09.8	94.240	-0.380	0.620	1.730
2020/01/31 06:12:09.9	94.230	-0.350	0.520	1.720
2020/01/31 06:12:10.0	94.220	-0.320	0.410	1.710
2020/01/31 06:12:10.1	94.220	-0.290	0.290	1.690
2020/01/31 06:12:10.2	94.220	-0.250	0.160	1.660
2020/01/31 06:12:10.3	94.220	-0.210	0.040	1.630
2020/01/31 06:12:10.4	94.220	-0.170	-0.090	1.600
2020/01/31 06:12:10.5	94.230	-0.130	-0.230	1.570
2020/01/31 06:12:10.6	94.230	-0.080	-0.360	1.530
2020/01/31 06:12:10.7	94.240	-0.040	-0.490	1.490
2020/01/31 06:12:10.8	94.250	0.010	-0.620	1.450
2020/01/31 06:12:10.9	94.270	0.050	-0.750	1.400
2020/01/31 06:12:11.0	94.280	0.100	-0.870	1.360
2020/01/31 06:12:11.1	94.290	0.140	-0.980	1.310
2020/01/31 06:12:11.2	94.300	0.180	-1.090	1.260
2020/01/31 06:12:11.3	94.320	0.220	-1.190	1.210
2020/01/31 06:12:11.4	94.340	0.260	-1.290	1.170
2020/01/31 06:12:11.5	94.350	0.290	-1.370	1.120
2020/01/31 06:12:11.6	94.370	0.320	-1.430	1.080
2020/01/31 06:12:11.7	94.390	0.350	-1.490	1.040
2020/01/31 06:12:11.8	94.410	0.370	-1.530	1.000
2020/01/31 06:12:11.9	94.420	0.390	-1.560	0.960
2020/01/31 06:12:12.0	94.440	0.400	-1.580	0.930
2020/01/31 06:12:12.1	94.450	0.410	-1.580	0.900
2020/01/31 06:12:12.2	94.470	0.410	-1.570	0.870
2020/01/31 06:12:12.3	94.480	0.410	-1.540	0.840
2020/01/31 06:12:12.4	94.490	0.400	-1.500	0.820
2020/01/31 06:12:12.5	94.500	0.390	-1.440	0.800
2020/01/31 06:12:12.6	94.500	0.380	-1.370	0.780
2020/01/31 06:12:12.7	94.510	0.350	-1.290	0.770
2020/01/31 06:12:12.8	94.510	0.330	-1.200	0.760
2020/01/31 06:12:12.9	94.510	0.300	-1.100	0.750
2020/01/31 06:12:13.0	94.510	0.260	-0.980	0.740
2020/01/31 06:12:13.1	94.500	0.220	-0.860	0.740
2020/01/31 06:12:13.2	94.500	0.180	-0.720	0.750
2020/01/31 06:12:13.3	94.490	0.130	-0.590	0.750
2020/01/31 06:12:13.4	94.480	0.090	-0.450	0.750
2020/01/31 06:12:13.5	94.460	0.040	-0.300	0.760
2020/01/31 06:12:13.6	94.450	-0.010	-0.150	0.770
2020/01/31 06:12:13.7	94.430	-0.070	-0.010	0.780
2020/01/31 06:12:13.8	94.410	-0.120	0.140	0.790
2020/01/31 06:12:13.9	94.390	-0.170	0.280	0.800
2020/01/31 06:12:14.0	94.370	-0.230	0.420	0.810
2020/01/31 06:12:14.1	94.350	-0.280	0.560	0.820
2020/01/31 06:12:14.2	94.340	-0.330	0.700	0.830
2020/01/31 06:12:14.3	94.320	-0.380	0.820	0.840
2020/01/31 06:12:14.4	94.300	-0.430	0.930	0.840
2020/01/31 06:12:14.5	94.280	-0.470	1.040	0.850
2020/01/31 06:12:14.6	94.260	-0.520	1.130	0.850
2020/01/31 06:12:14.7	94.240	-0.550	1.220	0.850
2020/01/31 06:12:14.8	94.230	-0.590	1.290	0.850
2020/01/31 06:12:14.9	94.210	-0.620	1.350	0.850
2020/01/31 06:12:15.0	94.200	-0.640	1.390	0.840
2020/01/31 06:12:15.1	94.190	-0.660	1.430	0.830
2020/01/31 06:12:15.2	94.180	-0.680	1.440	0.810
2020/01/31 06:12:15.3	94.180	-0.690	1.450	0.800
2020/01/31 06:12:15.4	94.170	-0.690	1.440	0.780
2020/01/31 06:12:15.5	94.170	-0.690	1.410	0.750
2020/01/31 06:12:15.6	94.170	-0.680	1.370	0.730
2020/01/31 06:12:15.7	94.170	-0.670	1.320	0.700
2020/01/31 06:12:15.8	94.170	-0.650	1.250	0.670
2020/01/31 06:12:15.9	94.180	-0.620	1.170	0.640
2020/01/31 06:12:16.0	94.190	-0.590	1.080	0.610
2020/01/31 06:12:16.1	94.190	-0.560	0.980	0.580
2020/01/31 06:12:16.2	94.200	-0.520	0.860	0.540
2020/01/31 06:12:16.3	94.210	-0.480	0.740	0.500
2020/01/31 06:12:16.4	94.220	-0.430	0.610	0.470
2020/01/31 06:12:16.5	94.230	-0.380	0.480	0.440
2020/01/31 06:12:16.6	94.230	-0.320	0.330	0.410
2020/01/31 06:12:16.7	94.240	-0.270	0.190	0.380
2020/01/31 06:12:16.8	94.240	-0.210	0.040	0.350
2020/01/31 06:12:16.9	94.250	-0.150	-0.110	0.320
2020/01/31 06:12:17.0	94.250	-0.080	-0.260	0.300
2020/01/31 06:12:17.1	94.250	-0.020	-0.410	0.280
2020/01/31 06:12:17.2	94.240	0.040	-0.560	0.260
2020/01/31 06:12:17.3	94.240	0.110	-0.710	0.250
2020/01/31 06:12:17.4	94.230	0.170	-0.840	0.230
2020/01/31 06:12:17.5	94.220	0.230	-0.980	0.220
2020/01/31 06:12:17.6	94.210	0.290	-1.100	0.220
2020/01/31 06:12:17.7	94.200	0.350	-1.210	0.210
2020/01/31 06:12:17.8	94.190	0.400	-1.320	0.210
2020/01/31 06:12:17.9	94.170	0.450	-1.410	0.200
2020/01/31 06:12:18.0	94.150	0.500	-1.490	0.200
2020/01/31 06:12:18.1	94.140	0.540	-1.560	0.200
2020/01/31 06:12:18.2	94.120	0.580	-1.610	0.200
2020/01/31 06:12:18.3	94.100	0.620	-1.650	0.210
2020/01/31 06:12:18.4	94.080	0.650	-1.680	0.210
2020/01/31 06:12:18.5	94.060	0.670	-1.690	0.220
2020/01/31 06:12:18.6	94.040	0.690	-1.690	0.220
2020/01/31 06:12:18.7	94.020	0.710	-1.680	0.230
2020/01/31 06:12:18.8	94.010	0.720	-1.650	0.240
2020/01/31 06:12:18.9	93.990	0.730	-1.610	0.240
2020/01/31 06:12:19.0	93.970	0.730	-1.560	0.250
2020/01/31 06:12:19.1	93.960	0.720	-1.500	0.260
2020/01/31 06:12:19.2	93.950	0.710	-1.420	0.270
2020/01/31 06:12:19.3	93.940	0.700	-1.340	0.280
2020/01/31 06:12:19.4	93.930	0.680	-1.250	0.280
2020/01/31 06:12:19.5	93.920	0.660	-1.150	0.290
2020/01/31 06:12:19.6	93.920	0.640	-1.040	0.300
2020/01/31 06:12:19.7	93.910	0.610	-0.930	0.320
2020/01/31 06:12:19.8	93.910	0.580	-0.820	0.330
2020/01/31 06:12:19.9	93.910	0.540	-0.700	0.340
2020/01/31 06:12:20.0	93.910	0.510	-0.590	0.350
2020/01/31 06:12:20.1	93.910	0.470	-0.470	0.370
2020/01/31 06:12:20.2	93.920	0.430	-0.350	0.390
2020/01/31 06:12:20.3	93.920	0.390	-0.230	0.410
2020/01/31 06:12:20.4	93.930	0.350	-0.120	0.430
2020/01/31 06:12:20.5	93.940	0.310	-0.010	0.450
2020/01/31 06:12:20.6	93.950	0.270	0.090	0.480
2020/01/31 06:12:20.7	93.970	0.230	0.190	0.510
2020/01/31 06:12:20.8	93.980	0.190	0.280	0.540
2020/01/31 06:12:20.9	93.990	0.150	0.360	0.570
2020/01/31 06:12:21.0	94.010	0.110	0.440	0.610
2020/01/31 06:12:21.1	94.030	0.070	0.510	0.650
2020/01/31 06:12:21.2	94.040	0.040	0.560	0.690
2020/01/31 06:12:21.3	94.060	0.010	0.610	0.740
2020/01/31 06:12:21.4	94.070	-0.020	0.660	0.790
2020/01/31 06:12:21.5	94.090	-0.040	0.690	0.840
2020/01/31 06:12:21.6	94.110	-0.060	0.720	0.890
2020/01/31 06:12:21.7	94.120	-0.080	0.730	0.950
2020/01/31 06:12:21.8	94.140	-0.100	0.740	1.010
2020/01/31 06:12:21.9	94.150	-0.110	0.740	1.070
2020/01/31 06:12:22.0	94.170	-0.120	0.740	1.130
2020/01/31 06:12:22.1	94.180	-0.130	0.720	1.190
2020/01/31 06:12:22.2	94.190	-0.140	0.710	1.250
2020/01/31 06:12:22.3	94.200	-0.140	0.680	1.300
2020/01/31 06:12:22.4	94.210	-0.140	0.650	1.360
2020/01/31 06:12:22.5	94.220	-0.140	0.620	1.420
2020/01/31 06:12:22.6	94.230	-0.140	0.580	1.470
2020/01/31 06:12:22.7	94.240	-0.130	0.540	1.520
2020/01/31 06:12:22.8	94.240	-0.120	0.490	1.570
2020/01/31 06:12:22.9	94.240	-0.120	0.450	1.610
2020/01/31 06:12:23.0	94.250	-0.110	0.400	1.650
2020/01/31 06:12:23.1	94.250	-0.100	0.340	1.690
2020/01/31 06:12:23.2	94.240	-0.090	0.290	1.720
2020/01/31 06:12:23.3	94.240	-0.070	0.230	1.760
2020/01/31 06:12:23.4	94.230	-0.060	0.180	1.780
2020/01/31 06:12:23.5	94.230	-0.050	0.120	1.810
2020/01/31 06:12:23.6	94.220	-0.040	0.060	1.830
2020/01/31 06:12:23.7	94.210	-0.030	0.010	1.850
2020/01/31 06:12:23.8	94.200	-0.010	-0.050	1.860
2020/01/31 06:12:23.9	94.190	-0.000	-0.100	1.870
2020/01/31 06:12:24.0	94.180	0.010	-0.150	1.880
2020/01/31 06:12:24.1	94.170	0.020	-0.210	1.880
2020/01/31 06:12:24.2	94.150	0.030	-0.260	1.890
2020/01/31 06:12:24.3	94.140	0.030	-0.300	1.880
2020/01/31 06:12:24.4	94.130	0.040	-0.350	1.880
2020/01/31 06:12:24.5	94.120	0.050	-0.390	1.870
2020/01/31 06:12:24.6	94.110	0.050	-0.430	1.870
2020/01/31 06:12:24.7	94.100	0.060	-0.470	1.850
2020/01/31 06:12:24.8	94.080	0.060	-0.510	1.840
2020/01/31 06:12:24.9	94.070	0.060	-0.540	1.830
2020/01/31 06:12:25.0	94.060	0.060	-0.560	1.810
2020/01/31 06:12:25.1	94.050	0.060	-0.590	1.800
2020/01/31 06:12:25.2	94.040	0.060	-0.610	1.780
2020/01/31 06:12:25.3	94.030	0.060	-0.620	1.760
2020/01/31 06:12:25.4	94.030	0.060	-0.630	1.740
2020/01/31 06:12:25.5	94.020	0.060	-0.640	1.720
2020/01/31 06:12:25.6	94.010	0.060	-0.640	1.700
2020/01/31 06:12:25.7	94.010	0.060	-0.640	1.680
2020/01/31 06:12:25.8	94.000	0.060	-0.640	1.660
2020/01/31 06:12:25.9	94.000	0.050	-0.630	1.640
2020/01/31 06:12:26.0	94.000	0.050	-0.620	1.620
2020/01/31 06:12:26.1	94.000	0.050	-0.600	1.600
2020/01/31 06:12:26.2	94.000	0.050	-0.570	1.570
2020/01/31 06:12:26.3	94.000	0.050	-0.550	1.550
2020/01/31 06:12:26.4	94.000	0.040	-0.530	1.520
2020/01/31 06:12:26.5	94.010	0.040	-0.500	1.500
2020/01/31 06:12:26.6	94.010	0.040	-0.470	1.470
2020/01/31 06:12:26.7	94.020	0.040	-0.430	1.440
2020/01/31 06:12:26.8	94.030	0.030	-0.400	1.400
2020/01/31 06:12:26.9	94.040	0.030	-0.360	1.370
2020/01/31 06:12:27.0	94.060	0.030	-0.320	1.330
2020/01/31 06:12:27.1	94.070	0.030	-0.280	1.300
2020/01/31 06:12:27.2	94.090	0.020	-0.240	1.260
2020/01/31 06:12:27.3	94.100	0.020	-0.200	1.210
2020/01/31 06:12:27.4	94.120	0.010	-0.160	1.170
2020/01/31 06:12:27.5	94.140	0.000	-0.120	1.120
2020/01/31 06:12:27.6	94.150	-0.000	-0.080	1.080
2020/01/31 06:12:27.7	94.170	-0.010	-0.040	1.030
2020/01/31 06:12:27.8	94.190	-0.020	0.000	0.980
2020/01/31 06:12:27.9	94.200	-0.030	0.040	0.930
2020/01/31 06:12:28.0	94.220	-0.040	0.080	0.880
2020/01/31 06:12:28.1	94.230	-0.060	0.110	0.820
2020/01/31 06:12:28.2	94.240	-0.070	0.150	0.770
2020/01/31 06:12:28.3	94.250	-0.080	0.180	0.710
2020/01/31 06:12:28.4	94.260	-0.100	0.210	0.660
2020/01/31 06:12:28.5	94.270	-0.120	0.230	0.610
2020/01/31 06:12:28.6	94.270	-0.130	0.260	0.560
2020/01/31 06:12:28.7	94.270	-0.150	0.280	0.510
2020/01/31 06:12:28.8	94.280	-0.170	0.290	0.460
2020/01/31 06:12:28.9	94.280	-0.190	0.310	0.410
2020/01/31 06:12:29.0	94.270	-0.210	0.320	0.370
2020/01/31 06:12:29.1	94.270	-0.230	0.330	0.320
2020/01/31 06:12:29.2	94.260	-0.250	0.340	0.280
2020/01/31 06:12:29.3	94.260	-0.280	0.340	0.240
2020/01/31 06:12:29.4	94.250	-0.300	0.340	0.200
2020/01/31 06:12:29.5	94.240	-0.320	0.340	0.160
2020/01/31 06:12:29.6	94.230	-0.340	0.330	0.120
2020/01/31 06:12:29.7	94.230	-0.360	0.320	0.080
2020/01/31 06:12:29.8	94.220	-0.370	0.310	0.050
2020/01/31 06:12:29.9	94.210	-0.390	0.300	0.010
2020/01/31 06:12:30.0	94.200	-0.410	0.280	-0.020
2020/01/31 06:12:30.1	94.190	-0.420	0.260	-0.050
2020/01/31 06:12:30.2	94.190	-0.430	0.240	-0.080
2020/01/31 06:12:30.3	94.180	-0.440	0.210	-0.120
2020/01/31 06:12:30.4	94.180	-0.450	0.180	-0.150
2020/01/31 06:12:30.5	94.180	-0.460	0.160	-0.180
2020/01/31 06:12:30.6	94.180	-0.460	0.130	-0.200
2020/01/31 06:12:30.7	94.180	-0.460	0.090	-0.230
2020/01/31 06:12:30.8	94.180	-0.460	0.060	-0.260
2020/01/31 06:12:30.9	94.180	-0.450	0.020	-0.280
2020/01/31 06:12:31.0	94.180	-0.450	-0.010	-0.310
2020/01/31 06:12:31.1	94.190	-0.440	-0.050	-0.330
2020/01/31 06:12:31.2	94.190	-0.420	-0.090	-0.350
2020/01/31 06:12:31.3	94.200	-0.400	-0.120	-0.360
2020/01/31 06:12:31.4	94.210	-0.380	-0.160	-0.380
2020/01/31 06:12:31.5	94.210	-0.360	-0.200	-0.390
2020/01/31 06:12:31.6	94.220	-0.340	-0.240	-0.390
2020/01/31 06:12:31.7	94.230	-0.310	-0.270	-0.390
2020/01/31 06:12:31.8	94.230	-0.280	-0.310	-0.390
2020/01/31 06:12:31.9	94.240	-0.240	-0.350	-0.390
2020/01/31 06:12:32.0	94.240	-0.210	-0.380	-0.380
2020/01/31 06:12:32.1	94.250	-0.170	-0.420	-0.370
2020/01/31 06:12:32.2	94.250	-0.130	-0.450	-0.350
2020/01/31 06:12:32.3	94.250	-0.090	-0.480	-0.330
2020/01/31 06:12:32.4	94.250	-0.050	-0.510	-0.310
2020/01/31 06:12:32.5	94.260	-0.010	-0.540	-0.280
2020/01/31 06:12:32.6	94.260	0.030	-0.560	-0.250
2020/01/31 06:12:32.7	94.260	0.080	-0.590	-0.220
2020/01/31 06:12:32.8	94.250	0.120	-0.610	-0.180
2020/01/31 06:12:32.9	94.250	0.160	-0.630	-0.150
2020/01/31 06:12:33.0	94.250	0.200	-0.650	-0.110
2020/01/31 06:12:33.1	94.250	0.240	-0.670	-0.070
2020/01/31 06:12:33.2	94.250	0.280	-0.680	-0.030
2020/01/31 06:12:33.3	94.240	0.320	-0.700	0.020
2020/01/31 06:12:33.4	94.240	0.360	-0.710	0.060
2020/01/31 06:12:33.5	94.230	0.390	-0.710	0.100
2020/01/31 06:12:33.6	94.220	0.420	-0.720	0.150
2020/01/31 06:12:33.7	94.220	0.450	-0.730	0.190
2020/01/31 06:12:33.8	94.210	0.480	-0.730	0.240
2020/01/31 06:12:33.9	94.210	0.500	-0.730	0.280
2020/01/31 06:12:34.0	94.200	0.520	-0.730	0.320
2020/01/31 06:12:34.1	94.190	0.540	-0.730	0.360
2020/01/31 06:12:34.2	94.180	0.560	-0.730	0.400
2020/01/31 06:12:34.3	94.170	0.570	-0.720	0.440
2020/01/31 06:12:34.4	94.170	0.580	-0.710	0.480
2020/01/31 06:12:34.5	94.160	0.580	-0.700	0.520
2020/01/31 06:12:34.6	94.160	0.590	-0.690	0.550
2020/01/31 06:12:34.7	94.160	0.580	-0.680	0.590
2020/01/31 06:12:34.8	94.150	0.580	-0.670	0.620
2020/01/31 06:12:34.9	94.150	0.570	-0.650	0.660
2020/01/31 06:12:35.0	94.150	0.560	-0.640	0.690
2020/01/31 06:12:35.1	94.150	0.550	-0.620	0.720
2020/01/31 06:12:35.2	94.150	0.540	-0.590	0.760
2020/01/31 06:12:35.3	94.150	0.520	-0.570	0.790
2020/01/31 06:12:35.4	94.150	0.500	-0.550	0.830
2020/01/31 06:12:35.5	94.150	0.470	-0.520	0.860
2020/01/31 06:12:35.6	94.150	0.450	-0.500	0.900
2020/01/31 06:12:35.7	94.160	0.420	-0.470	0.940
2020/01/31 06:12:35.8	94.160	0.390	-0.430	0.980
2020/01/31 06:12:35.9	94.160	0.360	-0.400	1.020
2020/01/31 06:12:36.0	94.160	0.330	-0.360	1.060
2020/01/31 06:12:36.1	94.160	0.300	-0.320	1.110
2020/01/31 06:12:36.2	94.170	0.260	-0.280	1.150
2020/01/31 06:12:36.3	94.170	0.230	-0.240	1.200
2020/01/31 06:12:36.4	94.170	0.200	-0.190	1.240
2020/01/31 06:12:36.5	94.170	0.160	-0.140	1.280
2020/01/31 06:12:36.6	94.170	0.130	-0.090	1.330
2020/01/31 06:12:36.7	94.170	0.090	-0.040	1.370
2020/01/31 06:12:36.8	94.170	0.060	0.020	1.410
2020/01/31 06:12:36.9	94.170	0.020	0.080	1.450
2020/01/31 06:12:37.0	94.160	-0.010	0.130	1.480
2020/01/31 06:12:37.1	94.160	-0.040	0.190	1.520
2020/01/31 06:12:37.2	94.150	-0.070	0.250	1.550
2020/01/31 06:12:37.3	94.140	-0.100	0.310	1.570
2020/01/31 06:12:37.4	94.140	-0.130	0.360	1.600
2020/01/31 06:12:37.5	94.130	-0.160	0.420	1.620
2020/01/31 06:12:37.6	94.130	-0.180	0.470	1.640
2020/01/31 06:12:37.7	94.120	-0.200	0.530	1.650
2020/01/31 06:12:37.8	94.110	-0.220	0.580	1.660
2020/01/31 06:12:37.9	94.110	-0.240	0.620	1.660
2020/01/31 06:12:38.0	94.100	-0.250	0.670	1.660
2020/01/31 06:12:38.1	94.100	-0.270	0.710	1.660
2020/01/31 06:12:38.2	94.100	-0.280	0.750	1.650
2020/01/31 06:12:38.3	94.100	-0.290	0.770	1.640
2020/01/31 06:12:38.4	94.090	-0.290	0.800	1.620
2020/01/31 06:12:38.5	94.090	-0.290	0.820	1.600
2020/01/31 06:12:38.6	94.090	-0.290	0.830	1.580
2020/01/31 06:12:38.7	94.080	-0.290	0.840	1.550
2020/01/31 06:12:38.8	94.080	-0.280	0.840	1.520
2020/01/31 06:12:38.9	94.080	-0.280	0.830	1.480
2020/01/31 06:12:39.0	94.080	-0.270	0.820	1.440
2020/01/31 06:12:39.1	94.080	-0.250	0.790	1.400
2020/01/31 06:12:39.2	94.090	-0.240	0.760	1.360
2020/01/31 06:12:39.3	94.090	-0.220	0.730	1.310
2020/01/31 06:12:39.4	94.090	-0.200	0.680	1.260
2020/01/31 06:12:39.5	94.100	-0.180	0.630	1.220
2020/01/31 06:12:39.6	94.100	-0.160	0.580	1.170
2020/01/31 06:12:39.7	94.110	-0.130	0.520	1.120
2020/01/31 06:12:39.8	94.120	-0.110	0.450	1.070
2020/01/31 06:12:39.9	94.120	-0.080	0.370	1.020
2020/01/31 06:12:40.0	94.130	-0.050	0.290	0.970
2020/01/31 06:12:40.1	94.140	-0.020	0.210	0.920
2020/01/31 06:12:40.2	94.160	0.010	0.120	0.870
2020/01/31 06:12:40.3	94.170	0.040	0.030	0.820
2020/01/31 06:12:40.4	94.180	0.070	-0.060	0.770
2020/01/31 06:12:40.5	94.200	0.090	-0.160	0.720
2020/01/31 06:12:40.6	94.220	0.120	-0.260	0.680
2020/01/31 06:12:40.7	94.240	0.150	-0.350	0.640
2020/01/31 06:12:40.8	94.260	0.180	-0.450	0.600
2020/01/31 06:12:40.9	94.280	0.200	-0.550	0.560
2020/01/31 06:12:41.0	94.300	0.230	-0.640	0.520
2020/01/31 06:12:41.1	94.320	0.250	-0.730	0.480
2020/01/31 06:12:41.2	94.350	0.270	-0.820	0.450
2020/01/31 06:12:41.3	94.370	0.290	-0.910	0.420
2020/01/31 06:12:41.4	94.390	0.300	-0.990	0.390
2020/01/31 06:12:41.5	94.410	0.320	-1.060	0.360
2020/01/31 06:12:41.6	94.430	0.330	-1.130	0.340
2020/01/31 06:12:41.7	94.450	0.340	-1.190	0.320
2020/01/31 06:12:41.8	94.470	0.350	-1.250	0.300
2020/01/31 06:12:41.9	94.490	0.350	-1.290	0.280
2020/01/31 06:12:42.0	94.500	0.350	-1.330	0.270
2020/01/31 06:12:42.1	94.510	0.350	-1.360	0.260
2020/01/31 06:12:42.2	94.520	0.340	-1.390	0.250
2020/01/31 06:12:42.3	94.520	0.340	-1.400	0.250
2020/01/31 06:12:42.4	94.530	0.330	-1.400	0.250
2020/01/31 06:12:42.5	94.530	0.310	-1.400	0.250
2020/01/31 06:12:42.6	94.530	0.300	-1.380	0.250
2020/01/31 06:12:42.7	94.530	0.280	-1.350	0.260
2020/01/31 06:12:42.8	94.530	0.250	-1.320	0.270
2020/01/31 06:12:42.9	94.520	0.230	-1.270	0.290
2020/01/31 06:12:43.0	94.520	0.200	-1.220	0.300
2020/01/31 06:12:43.1	94.510	0.170	-1.150	0.320
2020/01/31 06:12:43.2	94.500	0.140	-1.070	0.340
2020/01/31 06:12:43.3	94.490	0.100	-0.990	0.360
2020/01/31 06:12:43.4	94.480	0.060	-0.900	0.390
2020/01/31 06:12:43.5	94.470	0.020	-0.800	0.410
2020/01/31 06:12:43.6	94.460	-0.020	-0.700	0.440
2020/01/31 06:12:43.7	94.450	-0.060	-0.590	0.470
2020/01/31 06:12:43.8	94.440	-0.110	-0.480	0.500
2020/01/31 06:12:43.9	94.420	-0.150	-0.360	0.530
2020/01/31 06:12:44.0	94.410	-0.200	-0.240	0.570
2020/01/31 06:12:44.1	94.400	-0.250	-0.120	0.600
2020/01/31 06:12:44.2	94.380	-0.290	0.000	0.640
2020/01/31 06:12:44.3	94.370	-0.340	0.120	0.670
2020/01/31 06:12:44.4	94.360	-0.390	0.240	0.710
2020/01/31 06:12:44.5	94.350	-0.430	0.360	0.740
2020/01/31 06:12:44.6	94.340	-0.470	0.470	0.770
2020/01/31 06:12:44.7	94.330	-0.520	0.570	0.810
2020/01/31 06:12:44.8	94.310	-0.560	0.670	0.850
2020/01/31 06:12:44.9	94.300	-0.590	0.760	0.880
2020/01/31 06:12:45.0	94.290	-0.630	0.850	0.920
2020/01/31 06:12:45.1	94.280	-0.660	0.920	0.950
2020/01/31 06:12:45.2	94.280	-0.680	0.990	0.990
2020/01/31 06:12:45.3	94.270	-0.710	1.040	1.020
2020/01/31 06:12:45.4	94.260	-0.730	1.090	1.050
2020/01/31 06:12:45.5	94.250	-0.740	1.120	1.080
2020/01/31 06:12:45.6	94.240	-0.750	1.150	1.120
2020/01/31 06:12:45.7	94.230	-0.760	1.160	1.150
2020/01/31 06:12:45.8	94.220	-0.760	1.160	1.170
2020/01/31 06:12:45.9	94.210	-0.760	1.150	1.200
2020/01/31 06:12:46.0	94.200	-0.750	1.130	1.220
2020/01/31 06:12:46.1	94.190	-0.740	1.100	1.240
2020/01/31 06:12:46.2	94.190	-0.720	1.060	1.260
2020/01/31 06:12:46.3	94.180	-0.700	1.010	1.270
2020/01/31 06:12:46.4	94.180	-0.680	0.950	1.280
2020/01/31 06:12:46.5	94.180	-0.650	0.890	1.280
2020/01/31 06:12:46.6	94.180	-0.610	0.810	1.280
2020/01/31 06:12:46.7	94.180	-0.580	0.730	1.280
2020/01/31 06:12:46.8	94.190	-0.540	0.650	1.270
2020/01/31 06:12:46.9	94.200	-0.490	0.560	1.250
2020/01/31 06:12:47.0	94.210	-0.450	0.470	1.230
2020/01/31 06:12:47.1	94.230	-0.400	0.370	1.210
2020/01/31 06:12:47.2	94.240	-0.350	0.280	1.180
2020/01/31 06:12:47.3	94.260	-0.300	0.180	1.150
2020/01/31 06:12:47.4	94.280	-0.250	0.080	1.110
2020/01/31 06:12:47.5	94.310	-0.190	-0.020	1.070
2020/01/31 06:12:47.6	94.330	-0.140	-0.120	1.020
2020/01/31 06:12:47.7	94.360	-0.080	-0.220	0.970
2020/01/31 06:12:47.8	94.390	-0.030	-0.310	0.920
2020/01/31 06:12:47.9	94.420	0.030	-0.410	0.870
2020/01/31 06:12:48.0	94.450	0.080	-0.500	0.820
2020/01/31 06:12:48.1	94.480	0.130	-0.580	0.760
2020/01/31 06:12:48.2	94.520	0.190	-0.670	0.710
2020/01/31 06:12:48.3	94.550	0.240	-0.740	0.660
2020/01/31 06:12:48.4	94.580	0.290	-0.820	0.610
2020/01/31 06:12:48.5	94.600	0.330	-0.880	0.560
2020/01/31 06:12:48.6	94.630	0.380	-0.950	0.510
2020/01/31 06:12:48.7	94.650	0.420	-1.010	0.470
2020/01/31 06:12:48.8	94.670	0.460	-1.060	0.430
2020/01/31 06:12:48.9	94.690	0.500	-1.100	0.390
2020/01/31 06:12:49.0	94.710	0.540	-1.150	0.360
2020/01/31 06:12:49.1	94.730	0.570	-1.180	0.330
2020/01/31 06:12:49.2	94.740	0.600	-1.210	0.300
2020/01/31 06:12:49.3	94.750	0.630	-1.230	0.280
2020/01/31 06:12:49.4	94.760	0.650	-1.250	0.260
2020/01/31 06:12:49.5	94.770	0.670	-1.260	0.240
2020/01/31 06:12:49.6	94.780	0.690	-1.260	0.230
2020/01/31 06:12:49.7	94.790	0.700	-1.260	0.210
2020/01/31 06:12:49.8	94.800	0.710	-1.250	0.210
2020/01/31 06:12:49.9	94.810	0.720	-1.230	0.200
2020/01/31 06:12:50.0	94.820	0.720	-1.200	0.200
2020/01/31 06:12:50.1	94.820	0.720	-1.170	0.200
2020/01/31 06:12:50.2	94.830	0.710	-1.130	0.200
2020/01/31 06:12:50.3	94.830	0.700	-1.090	0.200
2020/01/31 06:12:50.4	94.830	0.690	-1.040	0.210
2020/01/31 06:12:50.5	94.830	0.670	-0.980	0.220
2020/01/31 06:12:50.6	94.830	0.650	-0.920	0.240
2020/01/31 06:12:50.7	94.830	0.630	-0.850	0.250
2020/01/31 06:12:50.8	94.830	0.600	-0.770	0.280
2020/01/31 06:12:50.9	94.830	0.570	-0.690	0.300
2020/01/31 06:12:51.0	94.830	0.540	-0.610	0.330
2020/01/31 06:12:51.1	94.820	0.500	-0.520	0.350
2020/01/31 06:12:51.2	94.810	0.460	-0.420	0.390
2020/01/31 06:12:51.3	94.800	0.420	-0.330	0.430
2020/01/31 06:12:51.4	94.790	0.380	-0.240	0.460
2020/01/31 06:12:51.5	94.780	0.330	-0.140	0.500
2020/01/31 06:12:51.6	94.770	0.280	-0.040	0.540
2020/01/31 06:12:51.7	94.750	0.230	0.050	0.590
2020/01/31 06:12:51.8	94.740	0.180	0.150	0.630
2020/01/31 06:12:51.9	94.720	0.130	0.240	0.680
2020/01/31 06:12:52.0	94.700	0.080	0.330	0.720
2020/01/31 06:12:52.1	94.680	0.030	0.420	0.770
2020/01/31 06:12:52.2	94.660	-0.020	0.500	0.820
2020/01/31 06:12:52.3	94.630	-0.070	0.580	0.860
2020/01/31 06:12:52.4	94.610	-0.120	0.650	0.910
2020/01/31 06:12:52.5	94.580	-0.160	0.710	0.950
2020/01/31 06:12:52.6	94.560	-0.200	0.770	1.000
2020/01/31 06:12:52.7	94.530	-0.250	0.810	1.040
2020/01/31 06:12:52.8	94.500	-0.280	0.850	1.080
2020/01/31 06:12:52.9	94.470	-0.320	0.880	1.110
2020/01/31 06:12:53.0	94.450	-0.350	0.900	1.150
2020/01/31 06:12:53.1	94.420	-0.380	0.920	1.180
2020/01/31 06:12:53.2	94.390	-0.400	0.920	1.200
2020/01/31 06:12:53.3	94.370	-0.420	0.910	1.220
2020/01/31 06:12:53.4	94.350	-0.430	0.890	1.240
2020/01/31 06:12:53.5	94.320	-0.440	0.860	1.260
2020/01/31 06:12:53.6	94.300	-0.440	0.830	1.270
2020/01/31 06:12:53.7	94.280	-0.440	0.780	1.280
2020/01/31 06:12:53.8	94.270	-0.440	0.730	1.280
2020/01/31 06:12:53.9	94.250	-0.430	0.660	1.280
2020/01/31 06:12:54.0	94.240	-0.410	0.590	1.280
2020/01/31 06:12:54.1	94.230	-0.390	0.520	1.280
2020/01/31 06:12:54.2	94.220	-0.360	0.430	1.270
2020/01/31 06:12:54.3	94.210	-0.340	0.350	1.260
2020/01/31 06:12:54.4	94.210	-0.300	0.250	1.250
2020/01/31 06:12:54.5	94.210	-0.270	0.160	1.230
2020/01/31 06:12:54.6	94.220	-0.230	0.060	1.210
2020/01/31 06:12:54.7	94.220	-0.180	-0.040	1.190
2020/01/31 06:12:54.8	94.230	-0.140	-0.140	1.170
2020/01/31 06:12:54.9	94.240	-0.090	-0.240	1.150
2020/01/31 06:12:55.0	94.260	-0.040	-0.340	1.120
2020/01/31 06:12:55.1	94.280	0.010	-0.440	1.100
2020/01/31 06:12:55.2	94.290	0.060	-0.540	1.070
2020/01/31 06:12:55.3	94.320	0.110	-0.630	1.040
2020/01/31 06:12:55.4	94.340	0.160	-0.710	1.010
2020/01/31 06:12:55.5	94.370	0.210	-0.790	0.980
2020/01/31 06:12:55.6	94.410	0.250	-0.870	0.950
2020/01/31 06:12:55.7	94.440	0.300	-0.940	0.920
2020/01/31 06:12:55.8	94.480	0.340	-1.000	0.880
2020/01/31 06:12:55.9	94.520	0.380	-1.050	0.850
2020/01/31 06:12:56.0	94.550	0.410	-1.090	0.820
2020/01/31 06:12:56.1	94.590	0.440	-1.130	0.790
2020/01/31 06:12:56.2	94.630	0.470	-1.150	0.760
2020/01/31 06:12:56.3	94.660	0.490	-1.170	0.730
2020/01/31 06:12:56.4	94.700	0.510	-1.170	0.700
2020/01/31 06:12:56.5	94.740	0.520	-1.160	0.670
2020/01/31 06:12:56.6	94.780	0.520	-1.150	0.640
2020/01/31 06:12:56.7	94.810	0.520	-1.120	0.620
2020/01/31 06:12:56.8	94.850	0.510	-1.080	0.590
2020/01/31 06:12:56.9	94.880	0.500	-1.040	0.560
2020/01/31 06:12:57.0	94.910	0.480	-0.980	0.540
2020/01/31 06:12:57.1	94.940	0.450	-0.920	0.520
2020/01/31 06:12:57.2	94.970	0.420	-0.850	0.500
2020/01/31 06:12:57.3	94.990	0.380	-0.770	0.480
2020/01/31 06:12:57.4	95.020	0.340	-0.680	0.460
2020/01/31 06:12:57.5	95.040	0.290	-0.590	0.440
2020/01/31 06:12:57.6	95.050	0.240	-0.500	0.430
2020/01/31 06:12:57.7	95.070	0.190	-0.400	0.420
2020/01/31 06:12:57.8	95.080	0.130	-0.300	0.410
2020/01/31 06:12:57.9	95.090	0.070	-0.190	0.410
2020/01/31 06:12:58.0	95.100	0.010	-0.090	0.400
2020/01/31 06:12:58.1	95.100	-0.060	0.020	0.400
2020/01/31 06:12:58.2	95.110	-0.130	0.120	0.410
2020/01/31 06:12:58.3	95.110	-0.190	0.230	0.410
2020/01/31 06:12:58.4	95.100	-0.260	0.330	0.430
2020/01/31 06:12:58.5	95.100	-0.320	0.430	0.440
2020/01/31 06:12:58.6	95.090	-0.390	0.520	0.460
2020/01/31 06:12:58.7	95.070	-0.450	0.610	0.480
2020/01/31 06:12:58.8	95.060	-0.510	0.700	0.500
2020/01/31 06:12:58.9	95.040	-0.570	0.770	0.530
2020/01/31 06:12:59.0	95.020	-0.620	0.840	0.560
2020/01/31 06:12:59.1	95.000	-0.670	0.900	0.590
2020/01/31 06:12:59.2	94.980	-0.710	0.950	0.630
2020/01/31 06:12:59.3	94.950	-0.750	0.990	0.670
2020/01/31 06:12:59.4	94.920	-0.790	1.020	0.700
2020/01/31 06:12:59.5	94.900	-0.810	1.040	0.750
2020/01/31 06:12:59.6	94.870	-0.840	1.050	0.790
2020/01/31 06:12:59.7	94.840	-0.850	1.040	0.830
2020/01/31 06:12:59.8	94.800	-0.860	1.030	0.870
2020/01/31 06:12:59.9	94.770	-0.860	1.000	0.920
2020/01/31 06:13:00.0	94.740	-0.860	0.960	0.960
2020/01/31 06:13:00.1	94.710	-0.850	0.910	1.000
2020/01/31 06:13:00.2	94.680	-0.830	0.850	1.050
2020/01/31 06:13:00.3	94.650	-0.810	0.780	1.090
2020/01/31 06:13:00.4	94.620	-0.780	0.700	1.130
2020/01/31 06:13:00.5	94.590	-0.750	0.610	1.160
2020/01/31 06:13:00.6	94.560	-0.710	0.520	1.200
2020/01/31 06:13:00.7	94.540	-0.660	0.410	1.230
2020/01/31 06:13:00.8	94.510	-0.610	0.300	1.260
2020/01/31 06:13:00.9	94.490	-0.560	0.190	1.280
2020/01/31 06:13:01.0	94.470	-0.500	0.070	1.300
2020/01/31 06:13:01.1	94.450	-0.450	-0.050	1.320
2020/01/31 06:13:01.2	94.430	-0.390	-0.170	1.330
2020/01/31 06:13:01.3	94.410	-0.320	-0.290	1.340
2020/01/31 06:13:01.4	94.400	-0.260	-0.410	1.340
2020/01/31 06:13:01.5	94.390	-0.200	-0.520	1.350
2020/01/31 06:13:01.6	94.390	-0.140	-0.640	1.340
2020/01/31 06:13:01.7	94.380	-0.070	-0.740	1.340
2020/01/31 06:13:01.8	94.380	-0.010	-0.850	1.330
2020/01/31 06:13:01.9	94.390	0.040	-0.940	1.310
2020/01/31 06:13:02.0	94.390	0.100	-1.030	1.290
2020/01/31 06:13:02.1	94.400	0.150	-1.110	1.270
2020/01/31 06:13:02.2	94.410	0.200	-1.180	1.250
2020/01/31 06:13:02.3	94.420	0.250	-1.240	1.220
2020/01/31 06:13:02.4	94.430	0.290	-1.290	1.190
2020/01/31 06:13:02.5	94.450	0.330	-1.330	1.150
2020/01/31 06:13:02.6	94.460	0.360	-1.360	1.110
2020/01/31 06:13:02.7	94.480	0.390	-1.380	1.070
2020/01/31 06:13:02.8	94.500	0.420	-1.380	1.030
2020/01/31 06:13:02.9	94.520	0.440	-1.370	0.990
2020/01/31 06:13:03.0	94.540	0.450	-1.360	0.940
2020/01/31 06:13:03.1	94.560	0.460	-1.330	0.900
2020/01/31 06:13:03.2	94.580	0.470	-1.290	0.850
2020/01/31 06:13:03.3	94.600	0.470	-1.240	0.800
2020/01/31 06:13:03.4	94.620	0.470	-1.180	0.760
2020/01/31 06:13:03.5	94.640	0.460	-1.120	0.710
2020/01/31 06:13:03.6	94.670	0.450	-1.050	0.670
2020/01/31 06:13:03.7	94.690	0.440	-0.970	0.630
2020/01/31 06:13:03.8	94.700	0.420	-0.890	0.590
2020/01/31 06:13:03.9	94.720	0.400	-0.800	0.550
2020/01/31 06:13:04.0	94.740	0.380	-0.700	0.520
2020/01/31 06:13:04.1	94.760	0.360	-0.600	0.480
2020/01/31 06:13:04.2	94.770	0.340	-0.500	0.460
2020/01/31 06:13:04.3	94.780	0.310	-0.400	0.440
2020/01/31 06:13:04.4	94.790	0.280	-0.300	0.410
2020/01/31 06:13:04.5	94.800	0.260	-0.200	0.400
2020/01/31 06:13:04.6	94.810	0.230	-0.100	0.380
2020/01/31 06:13:04.7	94.820	0.200	0.000	0.370
2020/01/31 06:13:04.8	94.820	0.170	0.100	0.370
2020/01/31 06:13:04.9	94.830	0.150	0.190	0.360
2020/01/31 06:13:05.0	94.830	0.120	0.280	0.360
2020/01/31 06:13:05.1	94.830	0.090	0.360	0.360
2020/01/31 06:13:05.2	94.830	0.070	0.440	0.370
2020/01/31 06:13:05.3	94.830	0.050	0.520	0.380
2020/01/31 06:13:05.4	94.820	0.030	0.580	0.390
2020/01/31 06:13:05.5	94.820	0.010	0.640	0.400
2020/01/31 06:13:05.6	94.810	-0.010	0.690	0.410
2020/01/31 06:13:05.7	94.800	-0.030	0.740	0.420
2020/01/31 06:13:05.8	94.790	-0.040	0.770	0.440
2020/01/31 06:13:05.9	94.780	-0.050	0.800	0.450
2020/01/31 06:13:06.0	94.770	-0.060	0.820	0.470
2020/01/31 06:13:06.1	94.760	-0.070	0.840	0.480
2020/01/31 06:13:06.2	94.750	-0.080	0.840	0.490
2020/01/31 06:13:06.3	94.740	-0.080	0.840	0.510
2020/01/31 06:13:06.4	94.720	-0.090	0.820	0.520
2020/01/31 06:13:06.5	94.710	-0.090	0.800	0.540
2020/01/31 06:13:06.6	94.700	-0.090	0.780	0.550
2020/01/31 06:13:06.7	94.680	-0.090	0.740	0.560
2020/01/31 06:13:06.8	94.670	-0.080	0.700	0.580
2020/01/31 06:13:06.9	94.660	-0.080	0.650	0.580
2020/01/31 06:13:07.0	94.640	-0.070	0.590	0.590
2020/01/31 06:13:07.1	94.630	-0.060	0.530	0.600
2020/01/31 06:13:07.2	94.620	-0.060	0.460	0.600
2020/01/31 06:13:07.3	94.610	-0.050	0.390	0.610
2020/01/31 06:13:07.4	94.610	-0.030	0.310	0.610
2020/01/31 06:13:07.5	94.600	-0.020	0.230	0.610
2020/01/31 06:13:07.6	94.590	-0.010	0.140	0.610
2020/01/31 06:13:07.7	94.590	0.000	0.050	0.600
2020/01/31 06:13:07.8	94.590	0.020	-0.040	0.600
2020/01/31 06:13:07.9	94.590	0.030	-0.130	0.600
2020/01/31 06:13:08.0	94.590	0.050	-0.230	0.600
2020/01/31 06:13:08.1	94.590	0.070	-0.320	0.600
2020/01/31 06:13:08.2	94.580	0.080	-0.410	0.590
2020/01/31 06:13:08.3	94.590	0.100	-0.500	0.590
2020/01/31 06:13:08.4	94.590	0.120	-0.590	0.590
2020/01/31 06:13:08.5	94.590	0.140	-0.670	0.590
2020/01/31 06:13:08.6	94.600	0.150	-0.750	0.600
2020/01/31 06:13:08.7	94.600	0.170	-0.820	0.600
2020/01/31 06:13:08.8	94.610	0.190	-0.890	0.600
2020/01/31 06:13:08.9	94.610	0.210	-0.950	0.610
2020/01/31 06:13:09.0	94.620	0.220	-1.000	0.620
2020/01/31 06:13:09.1	94.620	0.240	-1.050	0.620
2020/01/31 06:13:09.2	94.630	0.250	-1.080	0.630
2020/01/31 06:13:09.3	94.630	0.270	-1.110	0.640
2020/01/31 06:13:09.4	94.640	0.280	-1.130	0.650
2020/01/31 06:13:09.5	94.650	0.300	-1.140	0.670
2020/01/31 06:13:09.6	94.650	0.310	-1.140	0.680
2020/01/31 06:13:09.7	94.660	0.320	-1.140	0.690
2020/01/31 06:13:09.8	94.670	0.330	-1.120	0.710
2020/01/31 06:13:09.9	94.680	0.330	-1.090	0.720
2020/01/31 06:13:10.0	94.680	0.340	-1.060	0.740
2020/01/31 06:13:10.1	94.690	0.340	-1.020	0.760
2020/01/31 06:13:10.2	94.680	0.340	-0.970	0.780
2020/01/31 06:13:10.3	94.690	0.340	-0.920	0.800
2020/01/31 06:13:10.4	94.690	0.340	-0.850	0.820
2020/01/31 06:13:10.5	94.690	0.340	-0.790	0.840
2020/01/31 06:13:10.6	94.690	0.330	-0.720	0.860
2020/01/31 06:13:10.7	94.690	0.320	-0.640	0.880
2020/01/31 06:13:10.8	94.690	0.310	-0.560	0.900
2020/01/31 06:13:10.9	94.690	0.300	-0.480	0.920
2020/01/31 06:13:11.0	94.680	0.290	-0.400	0.940
2020/01/31 06:13:11.1	94.680	0.280	-0.320	0.960
2020/01/31 06:13:11.2	94.680	0.260	-0.230	0.990
2020/01/31 06:13:11.3	94.670	0.240	-0.150	1.010
2020/01/31 06:13:11.4	94.670	0.230	-0.070	1.020
2020/01/31 06:13:11.5	94.670	0.210	0.000	1.040
2020/01/31 06:13:11.6	94.660	0.190	0.080	1.060
2020/01/31 06:13:11.7	94.660	0.160	0.140	1.070
2020/01/31 06:13:11.8	94.660	0.140	0.210	1.080
2020/01/31 06:13:11.9	94.660	0.120	0.270	1.090
2020/01/31 06:13:12.0	94.660	0.100	0.320	1.100
2020/01/31 06:13:12.1	94.660	0.070	0.370	1.100
2020/01/31 06:13:12.2	94.670	0.050	0.420	1.100
2020/01/31 06:13:12.3	94.670	0.030	0.450	1.100
2020/01/31 06:13:12.4	94.680	0.000	0.480	1.100
2020/01/31 06:13:12.5	94.680	-0.020	0.510	1.100
2020/01/31 06:13:12.6	94.690	-0.050	0.530	1.090
2020/01/31 06:13:12.7	94.690	-0.070	0.540	1.090
2020/01/31 06:13:12.8	94.700	-0.090	0.540	1.080
2020/01/31 06:13:12.9	94.710	-0.120	0.540	1.070
2020/01/31 06:13:13.0	94.710	-0.140	0.540	1.070
2020/01/31 06:13:13.1	94.720	-0.160	0.530	1.060
2020/01/31 06:13:13.2	94.730	-0.180	0.510	1.050
2020/01/31 06:13:13.3	94.740	-0.200	0.490	1.040
2020/01/31 06:13:13.4	94.740	-0.220	0.470	1.030
2020/01/31 06:13:13.5	94.750	-0.240	0.450	1.010
2020/01/31 06:13:13.6	94.760	-0.260	0.420	1.000
2020/01/31 06:13:13.7	94.760	-0.270	0.390	0.990
2020/01/31 06:13:13.8	94.770	-0.290	0.360	0.980
2020/01/31 06:13:13.9	94.770	-0.300	0.330	0.970
2020/01/31 06:13:14.0	94.780	-0.320	0.290	0.960
2020/01/31 06:13:14.1	94.780	-0.330	0.260	0.950
2020/01/31 06:13:14.2	94.780	-0.340	0.220	0.940
2020/01/31 06:13:14.3	94.790	-0.350	0.190	0.930
2020/01/31 06:13:14.4	94.790	-0.360	0.150	0.920
2020/01/31 06:13:14.5	94.790	-0.370	0.120	0.910
2020/01/31 06:13:14.6	94.790	-0.380	0.080	0.900
2020/01/31 06:13:14.7	94.800	-0.390	0.050	0.890
2020/01/31 06:13:14.8	94.800	-0.390	0.020	0.880
2020/01/31 06:13:14.9	94.800	-0.390	-0.020	0.870
2020/01/31 06:13:15.0	94.790	-0.400	-0.050	0.860
2020/01/31 06:13:15.1	94.790	-0.400	-0.080	0.850
2020/01/31 06:13:15.2	94.790	-0.390	-0.120	0.840
2020/01/31 06:13:15.3	94.780	-0.390	-0.150	0.840
2020/01/31 06:13:15.4	94.780	-0.390	-0.180	0.830
2020/01/31 06:13:15.5	94.770	-0.380	-0.210	0.830
2020/01/31 06:13:15.6	94.770	-0.370	-0.240	0.830
2020/01/31 06:13:15.7	94.760	-0.360	-0.270	0.830
2020/01/31 06:13:15.8	94.750	-0.350	-0.300	0.830
2020/01/31 06:13:15.9	94.750	-0.340	-0.330	0.830
2020/01/31 06:13:16.0	94.740	-0.320	-0.360	0.840
2020/01/31 06:13:16.1	94.730	-0.310	-0.380	0.840
2020/01/31 06:13:16.2	94.720	-0.290	-0.410	0.840
2020/01/31 06:13:16.3	94.710	-0.270	-0.430	0.840
2020/01/31 06:13:16.4	94.700	-0.250	-0.460	0.850
2020/01/31 06:13:16.5	94.700	-0.230	-0.480	0.850
2020/01/31 06:13:16.6	94.700	-0.200	-0.500	0.850
2020/01/31 06:13:16.7	94.700	-0.180	-0.520	0.850
2020/01/31 06:13:16.8	94.700	-0.150	-0.540	0.850
2020/01/31 06:13:16.9	94.700	-0.130	-0.550	0.850
2020/01/31 06:13:17.0	94.700	-0.100	-0.570	0.840
2020/01/31 06:13:17.1	94.710	-0.070	-0.580	0.840
2020/01/31 06:13:17.2	94.710	-0.050	-0.590	0.830
2020/01/31 06:13:17.3	94.710	-0.020	-0.600	0.830
2020/01/31 06:13:17.4	94.720	0.010	-0.600	0.820
2020/01/31 06:13:17.5	94.730	0.030	-0.610	0.810
2020/01/31 06:13:17.6	94.740	0.050	-0.610	0.800
2020/01/31 06:13:17.7	94.750	0.080	-0.600	0.790
2020/01/31 06:13:17.8	94.760	0.100	-0.590	0.770
2020/01/31 06:13:17.9	94.770	0.120	-0.580	0.760
2020/01/31 06:13:18.0	94.770	0.130	-0.570	0.750
2020/01/31 06:13:18.1	94.780	0.150	-0.550	0.740
2020/01/31 06:13:18.2	94.780	0.160	-0.530	0.730
2020/01/31 06:13:18.3	94.790	0.170	-0.500	0.710
2020/01/31 06:13:18.4	94.790	0.180	-0.470	0.700
2020/01/31 06:13:18.5	94.800	0.190	-0.440	0.690
2020/01/31 06:13:18.6	94.800	0.190	-0.410	0.670
2020/01/31 06:13:18.7	94.800	0.190	-0.380	0.660
2020/01/31 06:13:18.8	94.800	0.190	-0.340	0.650
2020/01/31 06:13:18.9	94.800	0.190	-0.300	0.640
2020/01/31 06:13:19.0	94.800	0.190	-0.260	0.620
2020/01/31 06:13:19.1	94.790	0.180	-0.220	0.610
2020/01/31 06:13:19.2	94.800	0.170	-0.170	0.600
2020/01/31 06:13:19.3	94.790	0.160	-0.130	0.580
2020/01/31 06:13:19.4	94.790	0.150	-0.090	0.570
2020/01/31 06:13:19.5	94.780	0.140	-0.060	0.560
2020/01/31 06:13:19.6	94.780	0.120	-0.020	0.540
2020/01/31 06:13:19.7	94.770	0.110	0.020	0.530
2020/01/31 06:13:19.8	94.770	0.090	0.050	0.510
2020/01/31 06:13:19.9	94.760	0.080	0.080	0.500
2020/01/31 06:13:20.0	94.760	0.060	0.110	0.480
2020/01/31 06:13:20.1	94.760	0.050	0.130	0.460
2020/01/31 06:13:20.2	94.760	0.030	0.150	0.440
2020/01/31 06:13:20.3	94.760	0.020	0.170	0.430
2020/01/31 06:13:20.4	94.760	0.010	0.180	0.410
2020/01/31 06:13:20.5	94.770	-0.000	0.190	0.390
2020/01/31 06:13:20.6	94.770	-0.010	0.190	0.370
2020/01/31 06:13:20.7	94.780	-0.020	0.190	0.350
2020/01/31 06:13:20.8	94.790	-0.030	0.180	0.320
2020/01/31 06:13:20.9	94.790	-0.030	0.170	0.310
2020/01/31 06:13:21.0	94.800	-0.030	0.150	0.290
2020/01/31 06:13:21.1	94.810	-0.030	0.130	0.270
2020/01/31 06:13:21.2	94.820	-0.030	0.100	0.250
2020/01/31 06:13:21.3	94.830	-0.020	0.070	0.230
2020/01/31 06:13:21.4	94.840	-0.010	0.040	0.220
2020/01/31 06:13:21.5	94.850	-0.000	0.010	0.210
2020/01/31 06:13:21.6	94.860	0.010	-0.030	0.200
2020/01/31 06:13:21.7	94.870	0.030	-0.070	0.190
2020/01/31 06:13:21.8	94.880	0.040	-0.110	0.180
2020/01/31 06:13:21.9	94.890	0.060	-0.160	0.180
2020/01/31 06:13:22.0	94.890	0.080	-0.200	0.180
2020/01/31 06:13:22.1	94.900	0.100	-0.240	0.180
2020/01/31 06:13:22.2	94.900	0.130	-0.280	0.180
2020/01/31 06:13:22.3	94.900	0.150	-0.320	0.190
2020/01/31 06:13:22.4	94.910	0.170	-0.360	0.200
2020/01/31 06:13:22.5	94.910	0.200	-0.400	0.210
2020/01/31 06:13:22.6	94.900	0.220	-0.430	0.220
2020/01/31 06:13:22.7	94.900	0.240	-0.460	0.230
2020/01/31 06:13:22.8	94.900	0.260	-0.490	0.250
2020/01/31 06:13:22.9	94.900	0.280	-0.510	0.270
2020/01/31 06:13:23.0	94.890	0.300	-0.530	0.290
2020/01/31 06:13:23.1	94.890	0.320	-0.540	0.310
2020/01/31 06:13:23.2	94.870	0.330	-0.550	0.330
2020/01/31 06:13:23.3	94.870	0.350	-0.550	0.350
2020/01/31 06:13:23.4	94.860	0.360	-0.550	0.380
2020/01/31 06:13:23.5	94.850	0.370	-0.540	0.400
2020/01/31 06:13:23.6	94.840	0.370	-0.530	0.430
2020/01/31 06:13:23.7	94.840	0.370	-0.510	0.450
2020/01/31 06:13:23.8	94.830	0.370	-0.490	0.480
2020/01/31 06:13:23.9	94.820	0.370	-0.470	0.500
2020/01/31 06:13:24.0	94.810	0.360	-0.440	0.530
2020/01/31 06:13:24.1	94.810	0.350	-0.400	0.550
2020/01/31 06:13:24.2	94.800	0.340	-0.360	0.580
2020/01/31 06:13:24.3	94.800	0.320	-0.320	0.600
2020/01/31 06:13:24.4	94.790	0.300	-0.280	0.630
2020/01/31 06:13:24.5	94.790	0.280	-0.240	0.650
2020/01/31 06:13:24.6	94.790	0.250	-0.190	0.670
2020/01/31 06:13:24.7	94.790	0.230	-0.140	0.690
2020/01/31 06:13:24.8	94.780	0.200	-0.100	0.710
2020/01/31 06:13:24.9	94.780	0.170	-0.050	0.720
2020/01/31 06:13:25.0	94.790	0.140	-0.010	0.740
2020/01/31 06:13:25.1	94.790	0.100	0.040	0.760
2020/01/31 06:13:25.2	94.790	0.070	0.080	0.770
2020/01/31 06:13:25.3	94.790	0.040	0.120	0.790
2020/01/31 06:13:25.4	94.790	0.000	0.160	0.800
2020/01/31 06:13:25.5	94.800	-0.030	0.190	0.820
2020/01/31 06:13:25.6	94.800	-0.070	0.230	0.840
2020/01/31 06:13:25.7	94.810	-0.100	0.260	0.850
2020/01/31 06:13:25.8	94.810	-0.140	0.280	0.870
2020/01/31 06:13:25.9	94.820	-0.170	0.310	0.880
2020/01/31 06:13:26.0	94.820	-0.200	0.330	0.900
2020/01/31 06:13:26.1	94.830	-0.220	0.340	0.910
2020/01/31 06:13:26.2	94.840	-0.250	0.360	0.930
2020/01/31 06:13:26.3	94.840	-0.270	0.360	0.950
2020/01/31 06:13:26.4	94.850	-0.290	0.370	0.960
2020/01/31 06:13:26.5	94.860	-0.310	0.370	0.980
2020/01/31 06:13:26.6	94.860	-0.330	0.370	1.000
2020/01/31 06:13:26.7	94.870	-0.340	0.360	1.010
2020/01/31 06:13:26.8	94.880	-0.350	0.350	1.030
2020/01/31 06:13:26.9	94.890	-0.360	0.340	1.040
2020/01/31 06:13:27.0	94.900	-0.360	0.320	1.060
2020/01/31 06:13:27.1	94.900	-0.370	0.310	1.070
2020/01/31 06:13:27.2	94.910	-0.360	0.280	1.090
2020/01/31 06:13:27.3	94.910	-0.360	0.260	1.100
2020/01/31 06:13:27.4	94.920	-0.350	0.230	1.120
2020/01/31 06:13:27.5	94.930	-0.340	0.210	1.130
2020/01/31 06:13:27.6	94.940	-0.330	0.170	1.140
2020/01/31 06:13:27.7	94.950	-0.320	0.140	1.150
2020/01/31 06:13:27.8	94.950	-0.300	0.110	1.160
2020/01/31 06:13:27.9	94.960	-0.280	0.070	1.170
2020/01/31 06:13:28.0	94.970	-0.270	0.040	1.170
2020/01/31 06:13:28.1	94.980	-0.240	-0.000	1.180
2020/01/31 06:13:28.2	94.990	-0.220	-0.040	1.180
2020/01/31 06:13:28.3	95.000	-0.200	-0.080	1.180
2020/01/31 06:13:28.4	95.010	-0.180	-0.120	1.180
2020/01/31 06:13:28.5	95.020	-0.150	-0.160	1.180
2020/01/31 06:13:28.6	95.030	-0.130	-0.200	1.180
2020/01/31 06:13:28.7	95.040	-0.110	-0.240	1.180
2020/01/31 06:13:28.8	95.050	-0.080	-0.280	1.170
2020/01/31 06:13:28.9	95.060	-0.060	-0.320	1.170
2020/01/31 06:13:29.0	95.070	-0.040	-0.350	1.160
2020/01/31 06:13:29.1	95.070	-0.020	-0.390	1.150
2020/01/31 06:13:29.2	95.070	0.010	-0.430	1.150
2020/01/31 06:13:29.3	95.080	0.030	-0.460	1.140
2020/01/31 06:13:29.4	95.080	0.050	-0.500	1.130
2020/01/31 06:13:29.5	95.080	0.060	-0.540	1.120
2020/01/31 06:13:29.6	95.080	0.080	-0.570	1.110
2020/01/31 06:13:29.7	95.080	0.100	-0.600	1.110
2020/01/31 06:13:29.8	95.070	0.110	-0.640	1.100
2020/01/31 06:13:29.9	95.070	0.130	-0.670	1.090
2020/01/31 06:13:30.0	95.060	0.140	-0.700	1.090
2020/01/31 06:13:30.1	95.060	0.150	-0.730	1.080
2020/01/31 06:13:30.2	95.050	0.160	-0.760	1.080
2020/01/31 06:13:30.3	95.040	0.170	-0.780	1.080
2020/01/31 06:13:30.4	95.040	0.180	-0.800	1.070
2020/01/31 06:13:30.5	95.030	0.190	-0.830	1.070
2020/01/31 06:13:30.6	95.020	0.200	-0.840	1.070
2020/01/31 06:13:30.7	95.010	0.200	-0.860	1.060
2020/01/31 06:13:30.8	95.000	0.210	-0.880	1.060
2020/01/31 06:13:30.9	94.990	0.210	-0.890	1.060
2020/01/31 06:13:31.0	94.990	0.220	-0.890	1.060
2020/01/31 06:13:31.1	94.990	0.220	-0.890	1.050
2020/01/31 06:13:31.2	94.990	0.220	-0.890	1.050
2020/01/31 06:13:31.3	94.990	0.220	-0.880	1.050
2020/01/31 06:13:31.4	94.990	0.220	-0.870	1.040
2020/01/31 06:13:31.5	95.000	0.220	-0.860	1.040
2020/01/31 06:13:31.6	95.000	0.210	-0.840	1.040
2020/01/31 06:13:31.7	95.010	0.210	-0.820	1.040
2020/01/31 06:13:31.8	95.020	0.210	-0.790	1.040
2020/01/31 06:13:31.9	95.030	0.200	-0.760	1.030
2020/01/31 06:13:32.0	95.040	0.190	-0.720	1.030
2020/01/31 06:13:32.1	95.040	0.180	-0.680	1.030
2020/01/31 06:13:32.2	95.060	0.170	-0.630	1.030
2020/01/31 06:13:32.3	95.070	0.160	-0.580	1.020
2020/01/31 06:13:32.4	95.080	0.150	-0.530	1.020
2020/01/31 06:13:32.5	95.080	0.140	-0.470	1.020
2020/01/31 06:13:32.6	95.090	0.120	-0.410	1.010
2020/01/31 06:13:32.7	95.100	0.110	-0.340	1.010
2020/01/31 06:13:32.8	95.100	0.090	-0.280	1.000
2020/01/31 06:13:32.9	95.100	0.070	-0.210	0.990
2020/01/31 06:13:33.0	95.110	0.050	-0.140	0.970
2020/01/31 06:13:33.1	95.110	0.030	-0.060	0.960
2020/01/31 06:13:33.2	95.100	0.010	0.010	0.940
2020/01/31 06:13:33.3	95.100	-0.020	0.090	0.920
2020/01/31 06:13:33.4	95.100	-0.040	0.160	0.900
2020/01/31 06:13:33.5	95.100	-0.070	0.240	0.870
2020/01/31 06:13:33.6	95.100	-0.090	0.310	0.840
2020/01/31 06:13:33.7	95.100	-0.120	0.380	0.810
2020/01/31 06:13:33.8	95.090	-0.150	0.450	0.770
2020/01/31 06:13:33.9	95.090	-0.170	0.520	0.740
2020/01/31 06:13:34.0	95.080	-0.200	0.590	0.700
2020/01/31 06:13:34.1	95.080	-0.220	0.650	0.660
2020/01/31 06:13:34.2	95.070	-0.250	0.700	0.610
2020/01/31 06:13:34.3	95.060	-0.280	0.760	0.570
2020/01/31 06:13:34.4	95.050	-0.300	0.800	0.530
2020/01/31 06:13:34.5	95.050	-0.320	0.850	0.490
2020/01/31 06:13:34.6	95.040	-0.340	0.880	0.440
2020/01/31 06:13:34.7	95.030	-0.360	0.910	0.400
2020/01/31 06:13:34.8	95.020	-0.380	0.930	0.360
2020/01/31 06:13:34.9	95.010	-0.400	0.950	0.320
2020/01/31 06:13:35.0	95.000	-0.410	0.960	0.280
2020/01/31 06:13:35.1	94.990	-0.420	0.960	0.240
2020/01/31 06:13:35.2	94.990	-0.430	0.950	0.210
2020/01/31 06:13:35.3	94.980	-0.440	0.940	0.170
2020/01/31 06:13:35.4	94.970	-0.440	0.910	0.130
2020/01/31 06:13:35.5	94.970	-0.440	0.880	0.100
2020/01/31 06:13:35.6	94.970	-0.440	0.840	0.070
2020/01/31 06:13:35.7	94.970	-0.430	0.800	0.040
2020/01/31 06:13:35.8	94.970	-0.420	0.740	0.010
2020/01/31 06:13:35.9	94.970	-0.410	0.680	-0.020
2020/01/31 06:13:36.0	94.980	-0.390	0.610	-0.050
2020/01/31 06:13:36.1	94.980	-0.370	0.530	-0.080
2020/01/31 06:13:36.2	95.000	-0.350	0.450	-0.110
2020/01/31 06:13:36.3	95.010	-0.330	0.360	-0.130
2020/01/31 06:13:36.4	95.020	-0.300	0.270	-0.150
2020/01/31 06:13:36.5	95.040	-0.270	0.170	-0.170
2020/01/31 06:13:36.6	95.060	-0.240	0.070	-0.190
2020/01/31 06:13:36.7	95.070	-0.210	-0.040	-0.210
2020/01/31 06:13:36.8	95.090	-0.180	-0.150	-0.230
2020/01/31 06:13:36.9	95.110	-0.140	-0.250	-0.240
2020/01/31 06:13:37.0	95.130	-0.110	-0.360	-0.250
2020/01/31 06:13:37.1	95.150	-0.070	-0.470	-0.260
2020/01/31 06:13:37.2	95.170	-0.040	-0.570	-0.270
2020/01/31 06:13:37.3	95.190	-0.000	-0.680	-0.270
2020/01/31 06:13:37.4	95.210	0.030	-0.770	-0.280
2020/01/31 06:13:37.5	95.230	0.060	-0.870	-0.280
2020/01/31 06:13:37.6	95.240	0.100	-0.950	-0.280
2020/01/31 06:13:37.7	95.260	0.130	-1.030	-0.280
2020/01/31 06:13:37.8	95.270	0.150	-1.100	-0.280
2020/01/31 06:13:37.9	95.280	0.180	-1.170	-0.270
2020/01/31 06:13:38.0	95.290	0.200	-1.220	-0.270
2020/01/31 06:13:38.1	95.300	0.220	-1.260	-0.260
2020/01/31 06:13:38.2	95.300	0.240	-1.300	-0.250
2020/01/31 06:13:38.3	95.310	0.250	-1.320	-0.240
2020/01/31 06:13:38.4	95.310	0.260	-1.330	-0.230
2020/01/31 06:13:38.5	95.310	0.270	-1.330	-0.210
2020/01/31 06:13:38.6	95.300	0.280	-1.320	-0.200
2020/01/31 06:13:38.7	95.300	0.280	-1.300	-0.180
2020/01/31 06:13:38.8	95.290	0.270	-1.270	-0.170
2020/01/31 06:13:38.9	95.290	0.270	-1.230	-0.150
2020/01/31 06:13:39.0	95.280	0.260	-1.170	-0.120
2020/01/31 06:13:39.1	95.270	0.250	-1.110	-0.100
2020/01/31 06:13:39.2	95.260	0.230	-1.030	-0.080
2020/01/31 06:13:39.3	95.240	0.210	-0.960	-0.050
2020/01/31 06:13:39.4	95.230	0.200	-0.870	-0.020
2020/01/31 06:13:39.5	95.210	0.170	-0.780	0.010
2020/01/31 06:13:39.6	95.190	0.150	-0.690	0.050
2020/01/31 06:13:39.7	95.170	0.130	-0.590	0.080
2020/01/31 06:13:39.8	95.150	0.110	-0.490	0.120
2020/01/31 06:13:39.9	95.140	0.080	-0.390	0.160
2020/01/31 06:13:40.0	95.120	0.060	-0.290	0.200
2020/01/31 06:13:40.1	95.100	0.030	-0.190	0.240
2020/01/31 06:13:40.2	95.080	0.010	-0.080	0.290
2020/01/31 06:13:40.3	95.060	-0.010	0.010	0.330
2020/01/31 06:13:40.4	95.040	-0.030	0.100	0.370
2020/01/31 06:13:40.5	95.030	-0.050	0.190	0.420
2020/01/31 06:13:40.6	95.010	-0.070	0.270	0.460
2020/01/31 06:13:40.7	94.990	-0.080	0.340	0.500
2020/01/31 06:13:40.8	94.980	-0.090	0.410	0.540
2020/01/31 06:13:40.9	94.960	-0.100	0.470	0.590
2020/01/31 06:13:41.0	94.950	-0.110	0.520	0.630
2020/01/31 06:13:41.1	94.940	-0.110	0.560	0.670
2020/01/31 06:13:41.2	94.920	-0.110	0.590	0.710
2020/01/31 06:13:41.3	94.910	-0.110	0.610	0.750
2020/01/31 06:13:41.4	94.900	-0.100	0.630	0.780
2020/01/31 06:13:41.5	94.900	-0.090	0.630	0.820
2020/01/31 06:13:41.6	94.890	-0.080	0.620	0.860
2020/01/31 06:13:41.7	94.880	-0.070	0.600	0.890
2020/01/31 06:13:41.8	94.880	-0.050	0.580	0.920
2020/01/31 06:13:41.9	94.870	-0.030	0.540	0.950
2020/01/31 06:13:42.0	94.870	-0.000	0.500	0.980
2020/01/31 06:13:42.1	94.870	0.020	0.450	1.010
2020/01/31 06:13:42.2	94.870	0.050	0.390	1.030
2020/01/31 06:13:42.3	94.870	0.080	0.320	1.050
2020/01/31 06:13:42.4	94.880	0.110	0.250	1.080
2020/01/31 06:13:42.5	94.880	0.140	0.180	1.090
2020/01/31 06:13:42.6	94.880	0.170	0.110	1.110
2020/01/31 06:13:42.7	94.890	0.200	0.030	1.120
2020/01/31 06:13:42.8	94.890	0.230	-0.050	1.130
2020/01/31 06:13:42.9	94.900	0.260	-0.130	1.140
2020/01/31 06:13:43.0	94.910	0.290	-0.210	1.150
2020/01/31 06:13:43.1	94.920	0.320	-0.290	1.160
2020/01/31 06:13:43.2	94.920	0.340	-0.370	1.160
2020/01/31 06:13:43.3	94.930	0.370	-0.440	1.170
2020/01/31 06:13:43.4	94.940	0.390	-0.510	1.170
2020/01/31 06:13:43.5	94.940	0.410	-0.570	1.170
2020/01/31 06:13:43.6	94.950	0.430	-0.630	1.170
2020/01/31 06:13:43.7	94.960	0.440	-0.680	1.170
2020/01/31 06:13:43.8	94.960	0.450	-0.730	1.180
2020/01/31 06:13:43.9	94.960	0.460	-0.760	1.180
2020/01/31 06:13:44.0	94.970	0.460	-0.790	1.180
2020/01/31 06:13:44.1	94.970	0.460	-0.820	1.180
2020/01/31 06:13:44.2	94.970	0.460	-0.830	1.180
2020/01/31 06:13:44.3	94.970	0.450	-0.830	1.180
2020/01/31 06:13:44.4	94.970	0.440	-0.830	1.180
2020/01/31 06:13:44.5	94.970	0.430	-0.820	1.180
2020/01/31 06:13:44.6	94.970	0.410	-0.800	1.180
2020/01/31 06:13:44.7	94.960	0.390	-0.770	1.190
2020/01/31 06:13:44.8	94.960	0.360	-0.730	1.190
2020/01/31 06:13:44.9	94.950	0.340	-0.690	1.190
2020/01/31 06:13:45.0	94.940	0.310	-0.640	1.200
2020/01/31 06:13:45.1	94.940	0.270	-0.580	1.210
2020/01/31 06:13:45.2	94.930	0.240	-0.520	1.210
2020/01/31 06:13:45.3	94.920	0.200	-0.460	1.220
2020/01/31 06:13:45.4	94.910	0.160	-0.390	1.230
2020/01/31 06:13:45.5	94.900	0.120	-0.320	1.250
2020/01/31 06:13:45.6	94.890	0.070	-0.240	1.260
2020/01/31 06:13:45.7	94.880	0.030	-0.170	1.270
2020/01/31 06:13:45.8	94.870	-0.020	-0.090	1.290
2020/01/31 06:13:45.9	94.860	-0.060	-0.010	1.300
2020/01/31 06:13:46.0	94.850	-0.110	0.070	1.320
2020/01/31 06:13:46.1	94.840	-0.160	0.140	1.340
2020/01/31 06:13:46.2	94.840	-0.200	0.220	1.350
2020/01/31 06:13:46.3	94.830	-0.250	0.290	1.370
2020/01/31 06:13:46.4	94.820	-0.290	0.350	1.380
2020/01/31 06:13:46.5	94.810	-0.330	0.410	1.400
2020/01/31 06:13:46.6	94.800	-0.370	0.470	1.410
2020/01/31 06:13:46.7	94.800	-0.410	0.520	1.430
2020/01/31 06:13:46.8	94.790	-0.450	0.560	1.440
2020/01/31 06:13:46.9	94.790	-0.490	0.600	1.450
2020/01/31 06:13:47.0	94.790	-0.520	0.630	1.460
2020/01/31 06:13:47.1	94.780	-0.550	0.660	1.460
2020/01/31 06:13:47.2	94.790	-0.570	0.670	1.470
2020/01/31 06:13:47.3	94.790	-0.600	0.680	1.480
2020/01/31 06:13:47.4	94.790	-0.610	0.680	1.480
2020/01/31 06:13:47.5	94.790	-0.630	0.680	1.480
2020/01/31 06:13:47.6	94.800	-0.640	0.660	1.470
2020/01/31 06:13:47.7	94.810	-0.650	0.640	1.470
2020/01/31 06:13:47.8	94.810	-0.660	0.610	1.470
2020/01/31 06:13:47.9	94.820	-0.660	0.570	1.460
2020/01/31 06:13:48.0	94.830	-0.650	0.530	1.450
2020/01/31 06:13:48.1	94.840	-0.650	0.480	1.430
2020/01/31 06:13:48.2	94.860	-0.640	0.430	1.420
2020/01/31 06:13:48.3	94.870	-0.620	0.370	1.400
2020/01/31 06:13:48.4	94.880	-0.610	0.300	1.380
2020/01/31 06:13:48.5	94.900	-0.590	0.230	1.360
2020/01/31 06:13:48.6	94.910	-0.560	0.150	1.330
2020/01/31 06:13:48.7	94.930	-0.540	0.070	1.310
2020/01/31 06:13:48.8	94.940	-0.510	-0.010	1.270
2020/01/31 06:13:48.9	94.960	-0.470	-0.090	1.240
2020/01/31 06:13:49.0	94.980	-0.440	-0.180	1.200
2020/01/31 06:13:49.1	94.990	-0.400	-0.270	1.170
2020/01/31 06:13:49.2	95.010	-0.360	-0.350	1.120
2020/01/31 06:13:49.3	95.030	-0.320	-0.440	1.080
2020/01/31 06:13:49.4	95.040	-0.280	-0.520	1.040
2020/01/31 06:13:49.5	95.060	-0.230	-0.610	0.990
2020/01/31 06:13:49.6	95.070	-0.190	-0.690	0.940
2020/01/31 06:13:49.7	95.090	-0.150	-0.760	0.900
2020/01/31 06:13:49.8	95.100	-0.100	-0.830	0.850
2020/01/31 06:13:49.9	95.110	-0.050	-0.890	0.800
2020/01/31 06:13:50.0	95.120	-0.010	-0.950	0.760
2020/01/31 06:13:50.1	95.120	0.040	-1.000	0.710
2020/01/31 06:13:50.2	95.130	0.080	-1.050	0.670
2020/01/31 06:13:50.3	95.130	0.120	-1.090	0.630
2020/01/31 06:13:50.4	95.140	0.160	-1.120	0.590
2020/01/31 06:13:50.5	95.140	0.200	-1.140	0.550
2020/01/31 06:13:50.6	95.130	0.240	-1.150	0.520
2020/01/31 06:13:50.7	95.130	0.280	-1.150	0.490
2020/01/31 06:13:50.8	95.130	0.310	-1.140	0.460
2020/01/31 06:13:50.9	95.120	0.340	-1.120	0.430
2020/01/31 06:13:51.0	95.120	0.370	-1.100	0.410
2020/01/31 06:13:51.1	95.110	0.390	-1.060	0.390
2020/01/31 06:13:51.2	95.100	0.410	-1.020	0.370
2020/01/31 06:13:51.3	95.090	0.420	-0.960	0.350
2020/01/31 06:13:51.4	95.080	0.440	-0.910	0.340
2020/01/31 06:13:51.5	95.070	0.450	-0.840	0.330
2020/01/31 06:13:51.6	95.060	0.450	-0.770	0.320
2020/01/31 06:13:51.7	95.040	0.450	-0.690	0.320
2020/01/31 06:13:51.8	95.030	0.450	-0.610	0.310
2020/01/31 06:13:51.9	95.010	0.440	-0.520	0.310
2020/01/31 06:13:52.0	95.000	0.440	-0.430	0.310
2020/01/31 06:13:52.1	94.980	0.420	-0.340	0.310
2020/01/31 06:13:52.2	94.950	0.410	-0.250	0.310
2020/01/31 06:13:52.3	94.930	0.390	-0.150	0.310
2020/01/31 06:13:52.4	94.910	0.370	-0.060	0.310
2020/01/31 06:13:52.5	94.890	0.340	0.030	0.320
2020/01/31 06:13:52.6	94.870	0.320	0.120	0.320
2020/01/31 06:13:52.7	94.840	0.290	0.200	0.320
2020/01/31 06:13:52.8	94.820	0.260	0.280	0.330
2020/01/31 06:13:52.9	94.800	0.230	0.350	0.330
2020/01/31 06:13:53.0	94.780	0.200	0.420	0.330
2020/01/31 06:13:53.1	94.760	0.170	0.480	0.330
2020/01/31 06:13:53.2	94.740	0.130	0.540	0.330
2020/01/31 06:13:53.3	94.730	0.100	0.590	0.320
2020/01/31 06:13:53.4	94.710	0.070	0.630	0.320
2020/01/31 06:13:53.5	94.690	0.040	0.660	0.320
2020/01/31 06:13:53.6	94.680	0.010	0.680	0.310
2020/01/31 06:13:53.7	94.660	-0.020	0.700	0.300
2020/01/31 06:13:53.8	94.650	-0.050	0.710	0.290
2020/01/31 06:13:53.9	94.640	-0.080	0.710	0.290
2020/01/31 06:13:54.0	94.630	-0.100	0.700	0.280
2020/01/31 06:13:54.1	94.630	-0.120	0.690	0.270
2020/01/31 06:13:54.2	94.620	-0.140	0.670	0.260
2020/01/31 06:13:54.3	94.620	-0.160	0.640	0.240
2020/01/31 06:13:54.4	94.620	-0.180	0.610	0.230
2020/01/31 06:13:54.5	94.620	-0.190	0.570	0.220
2020/01/31 06:13:54.6	94.620	-0.200	0.520	0.210
2020/01/31 06:13:54.7	94.630	-0.210	0.470	0.200
2020/01/31 06:13:54.8	94.630	-0.220	0.420	0.200
2020/01/31 06:13:54.9	94.640	-0.220	0.370	0.190
2020/01/31 06:13:55.0	94.650	-0.220	0.310	0.180
2020/01/31 06:13:55.1	94.660	-0.220	0.250	0.170
2020/01/31 06:13:55.2	94.680	-0.220	0.190	0.170
2020/01/31 06:13:55.3	94.690	-0.210	0.130	0.170
2020/01/31 06:13:55.4	94.710	-0.200	0.070	0.160
2020/01/31 06:13:55.5	94.720	-0.190	0.010	0.160
2020/01/31 06:13:55.6	94.740	-0.180	-0.050	0.160
2020/01/31 06:13:55.7	94.760	-0.170	-0.100	0.160
2020/01/31 06:13:55.8	94.780	-0.160	-0.160	0.150
2020/01/31 06:13:55.9	94.790	-0.140	-0.210	0.150
2020/01/31 06:13:56.0	94.810	-0.120	-0.260	0.150
2020/01/31 06:13:56.1	94.830	-0.110	-0.310	0.150
2020/01/31 06:13:56.2	94.860	-0.090	-0.360	0.150
2020/01/31 06:13:56.3	94.880	-0.070	-0.400	0.160
2020/01/31 06:13:56.4	94.900	-0.050	-0.440	0.160
2020/01/31 06:13:56.5	94.920	-0.040	-0.480	0.160
2020/01/31 06:13:56.6	94.940	-0.020	-0.520	0.170
2020/01/31 06:13:56.7	94.970	-0.000	-0.550	0.170
2020/01/31 06:13:56.8	94.990	0.020	-0.580	0.180
2020/01/31 06:13:56.9	95.010	0.030	-0.610	0.180
2020/01/31 06:13:57.0	95.030	0.050	-0.630	0.190
2020/01/31 06:13:57.1	95.050	0.070	-0.650	0.200
2020/01/31 06:13:57.2	95.070	0.080	-0.670	0.220
2020/01/31 06:13:57.3	95.090	0.100	-0.690	0.230
2020/01/31 06:13:57.4	95.110	0.110	-0.700	0.250
2020/01/31 06:13:57.5	95.130	0.120	-0.710	0.260
2020/01/31 06:13:57.6	95.140	0.140	-0.720	0.280
2020/01/31 06:13:57.7	95.160	0.150	-0.730	0.310
2020/01/31 06:13:57.8	95.180	0.160	-0.740	0.330
2020/01/31 06:13:57.9	95.190	0.170	-0.740	0.360
2020/01/31 06:13:58.0	95.210	0.180	-0.740	0.400
2020/01/31 06:13:58.1	95.220	0.190	-0.740	0.440
2020/01/31 06:13:58.2	95.230	0.200	-0.740	0.480
2020/01/31 06:13:58.3	95.240	0.200	-0.730	0.520
2020/01/31 06:13:58.4	95.250	0.210	-0.720	0.570
2020/01/31 06:13:58.5	95.260	0.220	-0.710	0.620
2020/01/31 06:13:58.6	95.260	0.220	-0.700	0.680
2020/01/31 06:13:58.7	95.260	0.220	-0.680	0.740
2020/01/31 06:13:58.8	95.270	0.230	-0.660	0.800
2020/01/31 06:13:58.9	95.270	0.230	-0.640	0.870
2020/01/31 06:13:59.0	95.270	0.230	-0.620	0.930
2020/01/31 06:13:59.1	95.260	0.230	-0.590	1.000
2020/01/31 06:13:59.2	95.260	0.230	-0.560	1.070
2020/01/31 06:13:59.3	95.260	0.230	-0.530	1.140
2020/01/31 06:13:59.4	95.250	0.220	-0.500	1.210
2020/01/31 06:13:59.5	95.250	0.220	-0.470	1.280
2020/01/31 06:13:59.6	95.240	0.210	-0.430	1.360
2020/01/31 06:13:59.7	95.230	0.210	-0.400	1.420
2020/01/31 06:13:59.8	95.220	0.200	-0.360	1.490
2020/01/31 06:13:59.9	95.210	0.190	-0.320	1.560
2020/01/31 06:14:00.0	95.200	0.180	-0.280	1.620
2020/01/31 06:14:00.1	95.200	0.180	-0.240	1.690
2020/01/31 06:14:00.2	95.180	0.170	-0.200	1.740
2020/01/31 06:14:00.3	95.170	0.160	-0.160	1.800
2020/01/31 06:14:00.4	95.160	0.140	-0.120	1.850
2020/01/31 06:14:00.5	95.150	0.130	-0.090	1.900
2020/01/31 06:14:00.6	95.140	0.120	-0.050	1.950
2020/01/31 06:14:00.7	95.120	0.110	-0.010	1.990
2020/01/31 06:14:00.8	95.110	0.100	0.020	2.020
2020/01/31 06:14:00.9	95.100	0.080	0.050	2.060
2020/01/31 06:14:01.0	95.090	0.070	0.080	2.090
2020/01/31 06:14:01.1	95.070	0.060	0.110	2.110
2020/01/31 06:14:01.2	95.060	0.040	0.140	2.130
2020/01/31 06:14:01.3	95.040	0.030	0.160	2.150
2020/01/31 06:14:01.4	95.030	0.010	0.180	2.170
2020/01/31 06:14:01.5	95.010	0.000	0.200	2.180
2020/01/31 06:14:01.6	95.000	-0.010	0.220	2.180
2020/01/31 06:14:01.7	94.980	-0.030	0.240	2.190
2020/01/31 06:14:01.8	94.960	-0.040	0.260	2.190
2020/01/31 06:14:01.9	94.940	-0.060	0.270	2.190
2020/01/31 06:14:02.0	94.920	-0.080	0.280	2.180
2020/01/31 06:14:02.1	94.900	-0.090	0.300	2.170
2020/01/31 06:14:02.2	94.880	-0.110	0.310	2.160
2020/01/31 06:14:02.3	94.860	-0.130	0.320	2.140
2020/01/31 06:14:02.4	94.840	-0.140	0.330	2.120
2020/01/31 06:14:02.5	94.820	-0.160	0.340	2.090
2020/01/31 06:14:02.6	94.800	-0.180	0.340	2.070
2020/01/31 06:14:02.7	94.790	-0.200	0.350	2.030
2020/01/31 06:14:02.8	94.770	-0.220	0.350	2.000
2020/01/31 06:14:02.9	94.750	-0.240	0.360	1.960
2020/01/31 06:14:03.0	94.740	-0.250	0.360	1.920
2020/01/31 06:14:03.1	94.720	-0.270	0.370	1.870
2020/01/31 06:14:03.2	94.710	-0.290	0.370	1.820
2020/01/31 06:14:03.3	94.700	-0.310	0.370	1.760
2020/01/31 06:14:03.4	94.690	-0.330	0.370	1.700
2020/01/31 06:14:03.5	94.690	-0.350	0.370	1.640
2020/01/31 06:14:03.6	94.680	-0.370	0.370	1.580
2020/01/31 06:14:03.7	94.680	-0.390	0.370	1.510
2020/01/31 06:14:03.8	94.680	-0.410	0.360	1.430
2020/01/31 06:14:03.9	94.690	-0.420	0.360	1.360
2020/01/31 06:14:04.0	94.690	-0.440	0.350	1.280
2020/01/31 06:14:04.1	94.700	-0.450	0.340	1.200
2020/01/31 06:14:04.2	94.710	-0.460	0.330	1.110
2020/01/31 06:14:04.3	94.720	-0.470	0.320	1.030
2020/01/31 06:14:04.4	94.740	-0.480	0.300	0.940
2020/01/31 06:14:04.5	94.750	-0.490	0.280	0.850
2020/01/31 06:14:04.6	94.770	-0.490	0.250	0.760
2020/01/31 06:14:04.7	94.790	-0.500	0.220	0.670
2020/01/31 06:14:04.8	94.810	-0.500	0.190	0.570
2020/01/31 06:14:04.9	94.830	-0.490	0.160	0.480
2020/01/31 06:14:05.0	94.850	-0.490	0.120	0.390
2020/01/31 06:14:05.1	94.870	-0.480	0.070	0.290
2020/01/31 06:14:05.2	94.900	-0.460	0.030	0.200
2020/01/31 06:14:05.3	94.920	-0.450	-0.030	0.110
2020/01/31 06:14:05.4	94.940	-0.430	-0.080	0.010
2020/01/31 06:14:05.5	94.960	-0.410	-0.140	-0.070
2020/01/31 06:14:05.6	94.990	-0.380	-0.200	-0.160
2020/01/31 06:14:05.7	95.010	-0.350	-0.260	-0.250
2020/01/31 06:14:05.8	95.030	-0.320	-0.320	-0.330
2020/01/31 06:14:05.9	95.050	-0.290	-0.390	-0.410
2020/01/31 06:14:06.0	95.070	-0.250	-0.460	-0.480
2020/01/31 06:14:06.1	95.090	-0.210	-0.530	-0.550
2020/01/31 06:14:06.2	95.110	-0.170	-0.600	-0.620
2020/01/31 06:14:06.3	95.130	-0.120	-0.670	-0.680
2020/01/31 06:14:06.4	95.150	-0.070	-0.750	-0.740
2020/01/31 06:14:06.5	95.160	-0.020	-0.820	-0.790
2020/01/31 06:14:06.6	95.180	0.030	-0.880	-0.840
2020/01/31 06:14:06.7	95.190	0.080	-0.950	-0.880
2020/01/31 06:14:06.8	95.200	0.130	-1.010	-0.920
2020/01/31 06:14:06.9	95.210	0.180	-1.070	-0.950
2020/01/31 06:14:07.0	95.220	0.230	-1.120	-0.980
2020/01/31 06:14:07.1	95.230	0.280	-1.170	-1.000
2020/01/31 06:14:07.2	95.240	0.330	-1.210	-1.010
2020/01/31 06:14:07.3	95.250	0.380	-1.240	-1.020
2020/01/31 06:14:07.4	95.250	0.420	-1.270	-1.020
2020/01/31 06:14:07.5	95.260	0.470	-1.290	-1.020
2020/01/31 06:14:07.6	95.270	0.510	-1.300	-1.020
2020/01/31 06:14:07.7	95.270	0.540	-1.300	-1.000
2020/01/31 06:14:07.8	95.280	0.570	-1.290	-0.990
2020/01/31 06:14:07.9	95.280	0.600	-1.270	-0.970
2020/01/31 06:14:08.0	95.280	0.620	-1.250	-0.940
2020/01/31 06:14:08.1	95.290	0.640	-1.210	-0.910
2020/01/31 06:14:08.2	95.290	0.660	-1.160	-0.870
2020/01/31 06:14:08.3	95.300	0.670	-1.110	-0.830
2020/01/31 06:14:08.4	95.300	0.670	-1.050	-0.780
2020/01/31 06:14:08.5	95.310	0.670	-0.980	-0.730
2020/01/31 06:14:08.6	95.320	0.660	-0.900	-0.680
2020/01/31 06:14:08.7	95.320	0.650	-0.820	-0.620
2020/01/31 06:14:08.8	95.330	0.630	-0.730	-0.550
2020/01/31 06:14:08.9	95.340	0.610	-0.640	-0.490
2020/01/31 06:14:09.0	95.350	0.590	-0.540	-0.420
2020/01/31 06:14:09.1	95.360	0.560	-0.440	-0.350
2020/01/31 06:14:09.2	95.380	0.520	-0.330	-0.270
2020/01/31 06:14:09.3	95.390	0.490	-0.230	-0.200
2020/01/31 06:14:09.4	95.390	0.450	-0.120	-0.120
2020/01/31 06:14:09.5	95.400	0.400	-0.010	-0.040
2020/01/31 06:14:09.6	95.410	0.360	0.090	0.040
2020/01/31 06:14:09.7	95.420	0.310	0.200	0.120
2020/01/31 06:14:09.8	95.430	0.270	0.300	0.210
2020/01/31 06:14:09.9	95.430	0.220	0.390	0.290
2020/01/31 06:14:10.0	95.440	0.170	0.480	0.380
2020/01/31 06:14:10.1	95.440	0.120	0.570	0.460
2020/01/31 06:14:10.2	95.440	0.070	0.650	0.550
2020/01/31 06:14:10.3	95.440	0.030	0.730	0.640
2020/01/31 06:14:10.4	95.440	-0.020	0.790	0.730
2020/01/31 06:14:10.5	95.430	-0.060	0.850	0.810
2020/01/31 06:14:10.6	95.430	-0.110	0.900	0.900
2020/01/31 06:14:10.7	95.420	-0.140	0.950	0.990
2020/01/31 06:14:10.8	95.410	-0.180	0.980	1.070
2020/01/31 06:14:10.9	95.400	-0.220	1.010	1.160
2020/01/31 06:14:11.0	95.390	-0.250	1.030	1.240
2020/01/31 06:14:11.1	95.380	-0.280	1.040	1.320
2020/01/31 06:14:11.2	95.370	-0.300	1.050	1.400
2020/01/31 06:14:11.3	95.350	-0.330	1.050	1.480
2020/01/31 06:14:11.4	95.330	-0.350	1.040	1.550
2020/01/31 06:14:11.5	95.310	-0.360	1.020	1.620
2020/01/31 06:14:11.6	95.290	-0.370	1.000	1.680
2020/01/31 06:14:11.7	95.270	-0.380	0.970	1.750
2020/01/31 06:14:11.8	95.250	-0.390	0.930	1.810
2020/01/31 06:14:11.9	95.230	-0.400	0.890	1.860
2020/01/31 06:14:12.0	95.210	-0.400	0.840	1.920
2020/01/31 06:14:12.1	95.190	-0.390	0.790	1.970
2020/01/31 06:14:12.2	95.160	-0.390	0.730	2.010
2020/01/31 06:14:12.3	95.140	-0.380	0.660	2.050
2020/01/31 06:14:12.4	95.120	-0.370	0.600	2.090
2020/01/31 06:14:12.5	95.100	-0.360	0.530	2.120
2020/01/31 06:14:12.6	95.070	-0.350	0.450	2.150
2020/01/31 06:14:12.7	95.060	-0.330	0.370	2.170
2020/01/31 06:14:12.8	95.040	-0.310	0.290	2.190
2020/01/31 06:14:12.9	95.020	-0.290	0.210	2.210
2020/01/31 06:14:13.0	95.010	-0.270	0.130	2.220
2020/01/31 06:14:13.1	94.990	-0.250	0.040	2.230
2020/01/31 06:14:13.2	94.980	-0.220	-0.050	2.230
2020/01/31 06:14:13.3	94.980	-0.200	-0.140	2.230
2020/01/31 06:14:13.4	94.970	-0.170	-0.220	2.220
2020/01/31 06:14:13.5	94.970	-0.150	-0.310	2.210
2020/01/31 06:14:13.6	94.970	-0.120	-0.400	2.200
2020/01/31 06:14:13.7	94.980	-0.100	-0.490	2.190
2020/01/31 06:14:13.8	94.980	-0.070	-0.570	2.170
2020/01/31 06:14:13.9	94.990	-0.040	-0.660	2.150
2020/01/31 06:14:14.0	95.010	-0.020	-0.740	2.120
2020/01/31 06:14:14.1	95.020	0.010	-0.820	2.100
2020/01/31 06:14:14.2	95.040	0.040	-0.890	2.070
2020/01/31 06:14:14.3	95.060	0.060	-0.970	2.040
2020/01/31 06:14:14.4	95.080	0.090	-1.030	2.000
2020/01/31 06:14:14.5	95.110	0.110	-1.100	1.970
2020/01/31 06:14:14.6	95.130	0.130	-1.150	1.930
2020/01/31 06:14:14.7	95.160	0.150	-1.210	1.890
2020/01/31 06:14:14.8	95.190	0.170	-1.250	1.850
2020/01/31 06:14:14.9	95.220	0.190	-1.290	1.800
2020/01/31 06:14:15.0	95.250	0.200	-1.330	1.750
2020/01/31 06:14:15.1	95.280	0.220	-1.350	1.700
2020/01/31 06:14:15.2	95.330	0.230	-1.370	1.650
2020/01/31 06:14:15.3	95.360	0.240	-1.380	1.600
2020/01/31 06:14:15.4	95.390	0.250	-1.380	1.540
2020/01/31 06:14:15.5	95.430	0.260	-1.380	1.490
2020/01/31 06:14:15.6	95.460	0.260	-1.370	1.430
2020/01/31 06:14:15.7	95.500	0.270	-1.340	1.370
2020/01/31 06:14:15.8	95.530	0.270	-1.320	1.310
2020/01/31 06:14:15.9	95.560	0.260	-1.280	1.250
2020/01/31 06:14:16.0	95.590	0.260	-1.230	1.190
2020/01/31 06:14:16.1	95.620	0.250	-1.180	1.130
2020/01/31 06:14:16.2	95.650	0.240	-1.120	1.070
2020/01/31 06:14:16.3	95.680	0.230	-1.050	1.010
2020/01/31 06:14:16.4	95.700	0.220	-0.980	0.950
2020/01/31 06:14:16.5	95.720	0.200	-0.900	0.900
2020/01/31 06:14:16.6	95.740	0.190	-0.810	0.840
2020/01/31 06:14:16.7	95.760	0.170	-0.720	0.790
2020/01/31 06:14:16.8	95.770	0.150	-0.630	0.740
2020/01/31 06:14:16.9	95.780	0.120	-0.530	0.700
2020/01/31 06:14:17.0	95.790	0.100	-0.430	0.650
2020/01/31 06:14:17.1	95.790	0.080	-0.320	0.610
2020/01/31 06:14:17.2	95.790	0.050	-0.220	0.580
2020/01/31 06:14:17.3	95.790	0.030	-0.120	0.540
2020/01/31 06:14:17.4	95.790	-0.000	-0.010	0.510
2020/01/31 06:14:17.5	95.780	-0.030	0.090	0.480
2020/01/31 06:14:17.6	95.770	-0.050	0.190	0.460
2020/01/31 06:14:17.7	95.760	-0.080	0.290	0.440
2020/01/31 06:14:17.8	95.740	-0.100	0.390	0.420
2020/01/31 06:14:17.9	95.730	-0.120	0.480	0.400
2020/01/31 06:14:18.0	95.710	-0.150	0.560	0.390
2020/01/31 06:14:18.1	95.690	-0.170	0.640	0.380
2020/01/31 06:14:18.2	95.670	-0.190	0.720	0.370
2020/01/31 06:14:18.3	95.650	-0.200	0.780	0.360
2020/01/31 06:14:18.4	95.620	-0.220	0.840	0.360
2020/01/31 06:14:18.5	95.600	-0.230	0.890	0.350
2020/01/31 06:14:18.6	95.580	-0.240	0.930	0.350
2020/01/31 06:14:18.7	95.550	-0.250	0.960	0.350
2020/01/31 06:14:18.8	95.530	-0.250	0.980	0.350
2020/01/31 06:14:18.9	95.500	-0.260	0.990	0.350
2020/01/31 06:14:19.0	95.480	-0.260	0.990	0.340
2020/01/31 06:14:19.1	95.450	-0.250	0.990	0.340
2020/01/31 06:14:19.2	95.420	-0.250	0.970	0.340
2020/01/31 06:14:19.3	95.400	-0.240	0.950	0.340
2020/01/31 06:14:19.4	95.380	-0.230	0.920	0.340
2020/01/31 06:14:19.5	95.350	-0.220	0.880	0.340
2020/01/31 06:14:19.6	95.330	-0.210	0.840	0.340
2020/01/31 06:14:19.7	95.310	-0.200	0.790	0.340
2020/01/31 06:14:19.8	95.290	-0.180	0.730	0.330
2020/01/31 06:14:19.9	95.270	-0.160	0.670	0.330
2020/01/31 06:14:20.0	95.250	-0.140	0.600	0.330
2020/01/31 06:14:20.1	95.230	-0.120	0.530	0.320
2020/01/31 06:14:20.2	95.210	-0.100	0.460	0.320
2020/01/31 06:14:20.3	95.190	-0.080	0.380	0.310
2020/01/31 06:14:20.4	95.180	-0.060	0.300	0.300
2020/01/31 06:14:20.5	95.160	-0.040	0.220	0.290
2020/01/31 06:14:20.6	95.150	-0.020	0.130	0.280
2020/01/31 06:14:20.7	95.140	0.010	0.050	0.260
2020/01/31 06:14:20.8	95.130	0.030	-0.040	0.250
2020/01/31 06:14:20.9	95.120	0.050	-0.120	0.230
2020/01/31 06:14:21.0	95.110	0.070	-0.210	0.210
2020/01/31 06:14:21.1	95.110	0.090	-0.290	0.180
2020/01/31 06:14:21.2	95.110	0.110	-0.370	0.160
2020/01/31 06:14:21.3	95.110	0.130	-0.450	0.130
2020/01/31 06:14:21.4	95.120	0.150	-0.530	0.100
2020/01/31 06:14:21.5	95.130	0.170	-0.610	0.070
2020/01/31 06:14:21.6	95.140	0.180	-0.690	0.050
2020/01/31 06:14:21.7	95.150	0.200	-0.760	0.020
2020/01/31 06:14:21.8	95.170	0.220	-0.830	-0.010
2020/01/31 06:14:21.9	95.190	0.230	-0.890	-0.050
2020/01/31 06:14:22.0	95.210	0.240	-0.960	-0.070
2020/01/31 06:14:22.1	95.240	0.260	-1.020	-0.100
2020/01/31 06:14:22.2	95.260	0.270	-1.070	-0.130
2020/01/31 06:14:22.3	95.290	0.280	-1.120	-0.160
2020/01/31 06:14:22.4	95.330	0.290	-1.160	-0.180
2020/01/31 06:14:22.5	95.360	0.290	-1.200	-0.200
2020/01/31 06:14:22.6	95.400	0.300	-1.230	-0.220
2020/01/31 06:14:22.7	95.440	0.310	-1.260	-0.240
2020/01/31 06:14:22.8	95.470	0.310	-1.280	-0.250
2020/01/31 06:14:22.9	95.510	0.310	-1.290	-0.260
2020/01/31 06:14:23.0	95.550	0.320	-1.290	-0.270
2020/01/31 06:14:23.1	95.590	0.320	-1.290	-0.270
2020/01/31 06:14:23.2	95.640	0.310	-1.270	-0.260
2020/01/31 06:14:23.3	95.680	0.310	-1.250	-0.250
2020/01/31 06:14:23.4	95.720	0.300	-1.220	-0.230
2020/01/31 06:14:23.5	95.750	0.300	-1.180	-0.210
2020/01/31 06:14:23.6	95.790	0.290	-1.130	-0.190
2020/01/31 06:14:23.7	95.820	0.280	-1.070	-0.150
2020/01/31 06:14:23.8	95.850	0.260	-1.000	-0.120
2020/01/31 06:14:23.9	95.880	0.240	-0.920	-0.070
2020/01/31 06:14:24.0	95.910	0.230	-0.830	-0.020
2020/01/31 06:14:24.1	95.930	0.200	-0.740	0.030
2020/01/31 06:14:24.2	95.950	0.180	-0.630	0.100
2020/01/31 06:14:24.3	95.960	0.150	-0.520	0.170
2020/01/31 06:14:24.4	95.980	0.130	-0.410	0.240
2020/01/31 06:14:24.5	95.980	0.090	-0.290	0.310
2020/01/31 06:14:24.6	95.990	0.060	-0.170	0.390
2020/01/31 06:14:24.7	95.990	0.030	-0.040	0.470
2020/01/31 06:14:24.8	95.990	-0.010	0.090	0.560
2020/01/31 06:14:24.9	95.980	-0.050	0.220	0.650
2020/01/31 06:14:25.0	95.970	-0.090	0.340	0.740
2020/01/31 06:14:25.1	95.950	-0.130	0.470	0.840
2020/01/31 06:14:25.2	95.940	-0.180	0.590	0.930
2020/01/31 06:14:25.3	95.920	-0.220	0.710	1.030
2020/01/31 06:14:25.4	95.900	-0.270	0.830	1.120
2020/01/31 06:14:25.5	95.880	-0.310	0.930	1.220
2020/01/31 06:14:25.6	95.850	-0.350	1.030	1.310
2020/01/31 06:14:25.7	95.830	-0.400	1.120	1.410
2020/01/31 06:14:25.8	95.800	-0.440	1.200	1.500
2020/01/31 06:14:25.9	95.770	-0.480	1.270	1.590
2020/01/31 06:14:26.0	95.740	-0.520	1.330	1.680
2020/01/31 06:14:26.1	95.700	-0.560	1.380	1.760
2020/01/31 06:14:26.2	95.670	-0.590	1.410	1.840
2020/01/31 06:14:26.3	95.630	-0.630	1.430	1.920
2020/01/31 06:14:26.4	95.600	-0.660	1.440	2.000
2020/01/31 06:14:26.5	95.560	-0.680	1.440	2.070
2020/01/31 06:14:26.6	95.530	-0.700	1.420	2.130
2020/01/31 06:14:26.7	95.490	-0.720	1.390	2.190
2020/01/31 06:14:26.8	95.460	-0.730	1.350	2.240
2020/01/31 06:14:26.9	95.420	-0.740	1.290	2.290
2020/01/31 06:14:27.0	95.390	-0.750	1.220	2.340
2020/01/31 06:14:27.1	95.360	-0.750	1.140	2.370
2020/01/31 06:14:27.2	95.330	-0.740	1.050	2.400
2020/01/31 06:14:27.3	95.300	-0.730	0.950	2.420
2020/01/31 06:14:27.4	95.270	-0.710	0.830	2.440
2020/01/31 06:14:27.5	95.240	-0.690	0.710	2.450
2020/01/31 06:14:27.6	95.220	-0.670	0.580	2.460
2020/01/31 06:14:27.7	95.190	-0.640	0.450	2.450
2020/01/31 06:14:27.8	95.170	-0.600	0.310	2.450
2020/01/31 06:14:27.9	95.150	-0.560	0.170	2.430
2020/01/31 06:14:28.0	95.130	-0.520	0.020	2.420
2020/01/31 06:14:28.1	95.120	-0.470	-0.130	2.390
2020/01/31 06:14:28.2	95.110	-0.420	-0.280	2.360
2020/01/31 06:14:28.3	95.100	-0.360	-0.430	2.330
2020/01/31 06:14:28.4	95.090	-0.300	-0.570	2.290
2020/01/31 06:14:28.5	95.080	-0.240	-0.710	2.240
2020/01/31 06:14:28.6	95.080	-0.180	-0.850	2.190
2020/01/31 06:14:28.7	95.070	-0.120	-0.980	2.140
2020/01/31 06:14:28.8	95.070	-0.050	-1.100	2.080
2020/01/31 06:14:28.9	95.080	0.010	-1.220	2.010
2020/01/31 06:14:29.0	95.080	0.070	-1.330	1.940
2020/01/31 06:14:29.1	95.090	0.140	-1.420	1.870
2020/01/31 06:14:29.2	95.100	0.200	-1.510	1.790
2020/01/31 06:14:29.3	95.120	0.260	-1.590	1.720
2020/01/31 06:14:29.4	95.130	0.320	-1.650	1.640
2020/01/31 06:14:29.5	95.150	0.380	-1.710	1.550
2020/01/31 06:14:29.6	95.170	0.430	-1.750	1.470
2020/01/31 06:14:29.7	95.200	0.480	-1.780	1.380
2020/01/31 06:14:29.8	95.220	0.530	-1.800	1.300
2020/01/31 06:14:29.9	95.250	0.570	-1.810	1.210
2020/01/31 06:14:30.0	95.280	0.610	-1.800	1.120
2020/01/31 06:14:30.1	95.310	0.650	-1.780	1.030
2020/01/31 06:14:30.2	95.330	0.680	-1.750	0.940
2020/01/31 06:14:30.3	95.370	0.700	-1.710	0.860
2020/01/31 06:14:30.4	95.400	0.720	-1.660	0.770
2020/01/31 06:14:30.5	95.430	0.740	-1.600	0.690
2020/01/31 06:14:30.6	95.460	0.750	-1.530	0.600
2020/01/31 06:14:30.7	95.490	0.760	-1.460	0.520
2020/01/31 06:14:30.8	95.510	0.760	-1.380	0.440
2020/01/31 06:14:30.9	95.540	0.760	-1.290	0.370
2020/01/31 06:14:31.0	95.570	0.760	-1.190	0.300
2020/01/31 06:14:31.1	95.590	0.750	-1.090	0.230
2020/01/31 06:14:31.2	95.610	0.740	-0.990	0.160
2020/01/31 06:14:31.3	95.620	0.720	-0.880	0.100
2020/01/31 06:14:31.4	95.640	0.710	-0.770	0.050
2020/01/31 06:14:31.5	95.660	0.690	-0.670	-0.000
2020/01/31 06:14:31.6	95.670	0.670	-0.560	-0.050
2020/01/31 06:14:31.7	95.680	0.640	-0.450	-0.090
2020/01/31 06:14:31.8	95.680	0.620	-0.350	-0.130
2020/01/31 06:14:31.9	95.690	0.590	-0.250	-0.160
2020/01/31 06:14:32.0	95.690	0.560	-0.150	-0.190
2020/01/31 06:14:32.1	95.690	0.530	-0.060	-0.210
2020/01/31 06:14:32.2	95.680	0.500	0.030	-0.230
2020/01/31 06:14:32.3	95.670	0.470	0.120	-0.240
2020/01/31 06:14:32.4	95.670	0.440	0.190	-0.250
2020/01/31 06:14:32.5	95.660	0.410	0.270	-0.250
2020/01/31 06:14:32.6	95.650	0.380	0.330	-0.250
2020/01/31 06:14:32.7	95.630	0.350	0.400	-0.250
2020/01/31 06:14:32.8	95.620	0.320	0.450	-0.240
2020/01/31 06:14:32.9	95.600	0.290	0.500	-0.230
2020/01/31 06:14:33.0	95.590	0.260	0.540	-0.210
2020/01/31 06:14:33.1	95.570	0.230	0.580	-0.200
2020/01/31 06:14:33.2	95.550	0.200	0.610	-0.170
2020/01/31 06:14:33.3	95.530	0.170	0.640	-0.150
2020/01/31 06:14:33.4	95.510	0.140	0.660	-0.120
2020/01/31 06:14:33.5	95.490	0.110	0.680	-0.090
2020/01/31 06:14:33.6	95.470	0.090	0.690	-0.050
2020/01/31 06:14:33.7	95.450	0.060	0.690	-0.020
2020/01/31 06:14:33.8	95.430	0.030	0.700	0.020
2020/01/31 06:14:33.9	95.410	0.010	0.690	0.060
2020/01/31 06:14:34.0	95.390	-0.020	0.690	0.100
2020/01/31 06:14:34.1	95.370	-0.050	0.680	0.140
2020/01/31 06:14:34.2	95.340	-0.070	0.670	0.180
2020/01/31 06:14:34.3	95.310	-0.100	0.650	0.230
2020/01/31 06:14:34.4	95.290	-0.120	0.640	0.270
2020/01/31 06:14:34.5	95.270	-0.150	0.620	0.320
2020/01/31 06:14:34.6	95.240	-0.170	0.600	0.370
2020/01/31 06:14:34.7	95.220	-0.200	0.580	0.410
2020/01/31 06:14:34.8	95.190	-0.220	0.560	0.460
2020/01/31 06:14:34.9	95.170	-0.240	0.540	0.510
2020/01/31 06:14:35.0	95.140	-0.270	0.520	0.550
2020/01/31 06:14:35.1	95.120	-0.290	0.500	0.600
2020/01/31 06:14:35.2	95.090	-0.310	0.470	0.650
2020/01/31 06:14:35.3	95.060	-0.330	0.450	0.690
2020/01/31 06:14:35.4	95.040	-0.360	0.430	0.730
2020/01/31 06:14:35.5	95.020	-0.380	0.410	0.770
2020/01/31 06:14:35.6	94.990	-0.400	0.380	0.810
2020/01/31 06:14:35.7	94.970	-0.420	0.360	0.850
2020/01/31 06:14:35.8	94.950	-0.430	0.340	0.880
2020/01/31 06:14:35.9	94.930	-0.450	0.320	0.910
2020/01/31 06:14:36.0	94.910	-0.470	0.290	0.940
2020/01/31 06:14:36.1	94.900	-0.480	0.270	0.970
2020/01/31 06:14:36.2	94.880	-0.500	0.250	0.990
2020/01/31 06:14:36.3	94.870	-0.510	0.230	1.020
2020/01/31 06:14:36.4	94.860	-0.520	0.210	1.040
2020/01/31 06:14:36.5	94.850	-0.530	0.180	1.050
2020/01/31 06:14:36.6	94.850	-0.540	0.160	1.070
2020/01/31 06:14:36.7	94.850	-0.540	0.140	1.080
2020/01/31 06:14:36.8	94.850	-0.550	0.120	1.090
2020/01/31 06:14:36.9	94.850	-0.550	0.090	1.090
2020/01/31 06:14:37.0	94.860	-0.550	0.070	1.100
2020/01/31 06:14:37.1	94.870	-0.540	0.040	1.090
2020/01/31 06:14:37.2	94.890	-0.540	0.020	1.090
2020/01/31 06:14:37.3	94.900	-0.530	-0.010	1.090
2020/01/31 06:14:37.4	94.920	-0.520	-0.040	1.080
2020/01/31 06:14:37.5	94.940	-0.510	-0.070	1.070
2020/01/31 06:14:37.6	94.960	-0.490	-0.100	1.060
2020/01/31 06:14:37.7	94.980	-0.470	-0.130	1.040
2020/01/31 06:14:37.8	95.000	-0.450	-0.170	1.030
2020/01/31 06:14:37.9	95.030	-0.430	-0.210	1.010
2020/01/31 06:14:38.0	95.060	-0.400	-0.250	0.990
2020/01/31 06:14:38.1	95.080	-0.370	-0.290	0.970
2020/01/31 06:14:38.2	95.110	-0.340	-0.330	0.950
2020/01/31 06:14:38.3	95.140	-0.310	-0.380	0.930
2020/01/31 06:14:38.4	95.170	-0.270	-0.430	0.910
2020/01/31 06:14:38.5	95.200	-0.240	-0.480	0.890
2020/01/31 06:14:38.6	95.230	-0.200	-0.530	0.870
2020/01/31 06:14:38.7	95.250	-0.160	-0.580	0.850
2020/01/31 06:14:38.8	95.280	-0.120	-0.630	0.840
2020/01/31 06:14:38.9	95.310	-0.080	-0.680	0.820
2020/01/31 06:14:39.0	95.330	-0.040	-0.730	0.800
2020/01/31 06:14:39.1	95.360	-0.000	-0.780	0.790
2020/01/31 06:14:39.2	95.380	0.040	-0.830	0.770
2020/01/31 06:14:39.3	95.400	0.070	-0.880	0.760
2020/01/31 06:14:39.4	95.420	0.110	-0.920	0.750
2020/01/31 06:14:39.5	95.440	0.150	-0.960	0.740
2020/01/31 06:14:39.6	95.460	0.180	-1.000	0.740
2020/01/31 06:14:39.7	95.480	0.220	-1.030	0.730
2020/01/31 06:14:39.8	95.490	0.250	-1.060	0.740
2020/01/31 06:14:39.9	95.500	0.280	-1.080	0.740
2020/01/31 06:14:40.0	95.520	0.300	-1.100	0.750
2020/01/31 06:14:40.1	95.520	0.330	-1.110	0.760
2020/01/31 06:14:40.2	95.530	0.350	-1.110	0.780
2020/01/31 06:14:40.3	95.540	0.360	-1.110	0.800
2020/01/31 06:14:40.4	95.540	0.380	-1.100	0.820
2020/01/31 06:14:40.5	95.530	0.390	-1.080	0.850
2020/01/31 06:14:40.6	95.530	0.400	-1.060	0.880
2020/01/31 06:14:40.7	95.520	0.400	-1.030	0.910
2020/01/31 06:14:40.8	95.510	0.400	-1.000	0.940
2020/01/31 06:14:40.9	95.500	0.400	-0.950	0.980
2020/01/31 06:14:41.0	95.490	0.390	-0.910	1.020
2020/01/31 06:14:41.1	95.470	0.390	-0.850	1.050
2020/01/31 06:14:41.2	95.460	0.370	-0.790	1.090
2020/01/31 06:14:41.3	95.440	0.360	-0.730	1.130
2020/01/31 06:14:41.4	95.420	0.340	-0.660	1.170
2020/01/31 06:14:41.5	95.400	0.320	-0.590	1.210
2020/01/31 06:14:41.6	95.370	0.300	-0.520	1.240
2020/01/31 06:14:41.7	95.350	0.280	-0.440	1.280
2020/01/31 06:14:41.8	95.320	0.250	-0.360	1.310
2020/01/31 06:14:41.9	95.290	0.220	-0.280	1.350
2020/01/31 06:14:42.0	95.270	0.190	-0.200	1.380
2020/01/31 06:14:42.1	95.240	0.160	-0.120	1.400
2020/01/31 06:14:42.2	95.210	0.130	-0.040	1.420
2020/01/31 06:14:42.3	95.180	0.100	0.040	1.450
2020/01/31 06:14:42.4	95.160	0.060	0.120	1.460
2020/01/31 06:14:42.5	95.130	0.030	0.200	1.480
2020/01/31 06:14:42.6	95.110	-0.000	0.270	1.490
2020/01/31 06:14:42.7	95.080	-0.040	0.340	1.500
2020/01/31 06:14:42.8	95.060	-0.070	0.400	1.510
2020/01/31 06:14:42.9	95.040	-0.100	0.470	1.510
2020/01/31 06:14:43.0	95.020	-0.130	0.520	1.510
2020/01/31 06:14:43.1	95.000	-0.160	0.580	1.510
2020/01/31 06:14:43.2	94.980	-0.180	0.630	1.500
2020/01/31 06:14:43.3	94.960	-0.210	0.670	1.490
2020/01/31 06:14:43.4	94.940	-0.230	0.710	1.480
2020/01/31 06:14:43.5	94.920	-0.250	0.740	1.470
2020/01/31 06:14:43.6	94.900	-0.270	0.760	1.450
2020/01/31 06:14:43.7	94.880	-0.280	0.780	1.430
2020/01/31 06:14:43.8	94.860	-0.290	0.790	1.410
2020/01/31 06:14:43.9	94.840	-0.300	0.800	1.390
2020/01/31 06:14:44.0	94.820	-0.310	0.800	1.370
2020/01/31 06:14:44.1	94.800	-0.310	0.790	1.340
2020/01/31 06:14:44.2	94.770	-0.310	0.780	1.310
2020/01/31 06:14:44.3	94.750	-0.310	0.760	1.280
2020/01/31 06:14:44.4	94.730	-0.300	0.730	1.250
2020/01/31 06:14:44.5	94.710	-0.290	0.700	1.220
2020/01/31 06:14:44.6	94.690	-0.280	0.670	1.180
2020/01/31 06:14:44.7	94.680	-0.270	0.630	1.140
2020/01/31 06:14:44.8	94.660	-0.250	0.580	1.100
2020/01/31 06:14:44.9	94.640	-0.230	0.530	1.060
2020/01/31 06:14:45.0	94.620	-0.210	0.480	1.020
2020/01/31 06:14:45.1	94.610	-0.190	0.420	0.970
2020/01/31 06:14:45.2	94.600	-0.170	0.370	0.920
2020/01/31 06:14:45.3	94.590	-0.140	0.300	0.870
2020/01/31 06:14:45.4	94.580	-0.120	0.240	0.820
2020/01/31 06:14:45.5	94.570	-0.090	0.170	0.770
2020/01/31 06:14:45.6	94.560	-0.060	0.100	0.720
2020/01/31 06:14:45.7	94.550	-0.030	0.040	0.660
2020/01/31 06:14:45.8	94.550	-0.000	-0.030	0.610
2020/01/31 06:14:45.9	94.550	0.030	-0.100	0.550
2020/01/31 06:14:46.0	94.550	0.060	-0.170	0.490
2020/01/31 06:14:46.1	94.550	0.090	-0.240	0.440
2020/01/31 06:14:46.2	94.560	0.120	-0.310	0.380
2020/01/31 06:14:46.3	94.560	0.140	-0.380	0.320
2020/01/31 06:14:46.4	94.570	0.170	-0.450	0.260
2020/01/31 06:14:46.5	94.580	0.200	-0.510	0.210
2020/01/31 06:14:46.6	94.580	0.220	-0.580	0.150
2020/01/31 06:14:46.7	94.600	0.250	-0.640	0.100
2020/01/31 06:14:46.8	94.610	0.270	-0.700	0.040
2020/01/31 06:14:46.9	94.620	0.290	-0.750	-0.010
2020/01/31 06:14:47.0	94.630	0.310	-0.810	-0.060
2020/01/31 06:14:47.1	94.650	0.330	-0.850	-0.110
2020/01/31 06:14:47.2	94.650	0.350	-0.900	-0.160
2020/01/31 06:14:47.3	94.670	0.370	-0.940	-0.200
2020/01/31 06:14:47.4	94.680	0.380	-0.980	-0.250
2020/01/31 06:14:47.5	94.700	0.400	-1.010	-0.290
2020/01/31 06:14:47.6	94.720	0.410	-1.040	-0.320
2020/01/31 06:14:47.7	94.730	0.420	-1.070	-0.360
2020/01/31 06:14:47.8	94.750	0.430	-1.080	-0.390
2020/01/31 06:14:47.9	94.770	0.440	-1.100	-0.420
2020/01/31 06:14:48.0	94.790	0.440	-1.100	-0.440
2020/01/31 06:14:48.1	94.810	0.450	-1.110	-0.460
2020/01/31 06:14:48.2	94.830	0.450	-1.100	-0.480
2020/01/31 06:14:48.3	94.850	0.450	-1.090	-0.490
2020/01/31 06:14:48.4	94.870	0.450	-1.070	-0.500
2020/01/31 06:14:48.5	94.890	0.450	-1.050	-0.510
2020/01/31 06:14:48.6	94.920	0.450	-1.020	-0.510
2020/01/31 06:14:48.7	94.940	0.440	-0.990	-0.510
2020/01/31 06:14:48.8	94.970	0.430	-0.950	-0.500
2020/01/31 06:14:48.9	94.990	0.420	-0.900	-0.480
2020/01/31 06:14:49.0	95.010	0.410	-0.860	-0.460
2020/01/31 06:14:49.1	95.040	0.400	-0.800	-0.440
2020/01/31 06:14:49.2	95.060	0.380	-0.740	-0.410
2020/01/31 06:14:49.3	95.090	0.360	-0.680	-0.370
2020/01/31 06:14:49.4	95.110	0.340	-0.610	-0.330
2020/01/31 06:14:49.5	95.130	0.320	-0.540	-0.290
2020/01/31 06:14:49.6	95.150	0.300	-0.470	-0.240
2020/01/31 06:14:49.7	95.160	0.270	-0.400	-0.180
2020/01/31 06:14:49.8	95.180	0.250	-0.320	-0.120
2020/01/31 06:14:49.9	95.190	0.220	-0.240	-0.060
2020/01/31 06:14:50.0	95.200	0.190	-0.160	0.010
2020/01/31 06:14:50.1	95.210	0.160	-0.080	0.090
2020/01/31 06:14:50.2	95.220	0.130	-0.000	0.170
2020/01/31 06:14:50.3	95.230	0.100	0.080	0.250
2020/01/31 06:14:50.4	95.230	0.060	0.160	0.340
2020/01/31 06:14:50.5	95.220	0.030	0.240	0.430
2020/01/31 06:14:50.6	95.220	-0.010	0.310	0.520
2020/01/31 06:14:50.7	95.210	-0.040	0.390	0.610
2020/01/31 06:14:50.8	95.200	-0.080	0.460	0.710
2020/01/31 06:14:50.9	95.190	-0.120	0.520	0.810
2020/01/31 06:14:51.0	95.170	-0.160	0.590	0.910
2020/01/31 06:14:51.1	95.160	-0.190	0.650	1.010
2020/01/31 06:14:51.2	95.140	-0.230	0.700	1.110
2020/01/31 06:14:51.3	95.120	-0.260	0.760	1.200
2020/01/31 06:14:51.4	95.090	-0.300	0.800	1.300
2020/01/31 06:14:51.5	95.070	-0.330	0.840	1.400
2020/01/31 06:14:51.6	95.040	-0.370	0.880	1.490
2020/01/31 06:14:51.7	95.010	-0.400	0.910	1.590
2020/01/31 06:14:51.8	94.980	-0.430	0.930	1.680
2020/01/31 06:14:51.9	94.940	-0.450	0.940	1.770
2020/01/31 06:14:52.0	94.910	-0.480	0.950	1.850
2020/01/31 06:14:52.1	94.870	-0.500	0.950	1.930
2020/01/31 06:14:52.2	94.840	-0.520	0.950	2.010
2020/01/31 06:14:52.3	94.810	-0.540	0.930	2.080
2020/01/31 06:14:52.4	94.770	-0.550	0.910	2.150
2020/01/31 06:14:52.5	94.740	-0.570	0.880	2.210
2020/01/31 06:14:52.6	94.710	-0.570	0.850	2.270
2020/01/31 06:14:52.7	94.680	-0.580	0.800	2.320
2020/01/31 06:14:52.8	94.640	-0.580	0.750	2.370
2020/01/31 06:14:52.9	94.610	-0.580	0.700	2.410
2020/01/31 06:14:53.0	94.590	-0.570	0.630	2.450
2020/01/31 06:14:53.1	94.560	-0.560	0.560	2.480
2020/01/31 06:14:53.2	94.540	-0.550	0.490	2.510
2020/01/31 06:14:53.3	94.510	-0.540	0.410	2.530
2020/01/31 06:14:53.4	94.490	-0.510	0.320	2.550
2020/01/31 06:14:53.5	94.470	-0.490	0.230	2.560
2020/01/31 06:14:53.6	94.450	-0.460	0.140	2.570
2020/01/31 06:14:53.7	94.440	-0.430	0.050	2.580
2020/01/31 06:14:53.8	94.420	-0.400	-0.050	2.580
2020/01/31 06:14:53.9	94.410	-0.360	-0.150	2.570
2020/01/31 06:14:54.0	94.390	-0.320	-0.250	2.560
2020/01/31 06:14:54.1	94.380	-0.280	-0.350	2.550
2020/01/31 06:14:54.2	94.370	-0.240	-0.440	2.540
2020/01/31 06:14:54.3	94.360	-0.190	-0.540	2.520
2020/01/31 06:14:54.4	94.360	-0.140	-0.640	2.490
2020/01/31 06:14:54.5	94.360	-0.090	-0.730	2.460
2020/01/31 06:14:54.6	94.360	-0.050	-0.820	2.430
2020/01/31 06:14:54.7	94.360	0.000	-0.900	2.390
2020/01/31 06:14:54.8	94.360	0.050	-0.980	2.350
2020/01/31 06:14:54.9	94.370	0.100	-1.060	2.310
2020/01/31 06:14:55.0	94.380	0.150	-1.120	2.260
2020/01/31 06:14:55.1	94.390	0.200	-1.190	2.200
2020/01/31 06:14:55.2	94.410	0.240	-1.250	2.140
2020/01/31 06:14:55.3	94.420	0.290	-1.290	2.080
2020/01/31 06:14:55.4	94.440	0.330	-1.330	2.010
2020/01/31 06:14:55.5	94.460	0.370	-1.360	1.950
2020/01/31 06:14:55.6	94.480	0.400	-1.390	1.870
2020/01/31 06:14:55.7	94.510	0.430	-1.400	1.800
2020/01/31 06:14:55.8	94.530	0.460	-1.410	1.720
2020/01/31 06:14:55.9	94.560	0.490	-1.410	1.640
2020/01/31 06:14:56.0	94.580	0.510	-1.400	1.560
2020/01/31 06:14:56.1	94.610	0.530	-1.380	1.480
2020/01/31 06:14:56.2	94.640	0.540	-1.350	1.400
2020/01/31 06:14:56.3	94.660	0.550	-1.310	1.310
2020/01/31 06:14:56.4	94.690	0.560	-1.270	1.220
2020/01/31 06:14:56.5	94.720	0.560	-1.220	1.140
2020/01/31 06:14:56.6	94.740	0.550	-1.160	1.050
2020/01/31 06:14:56.7	94.770	0.550	-1.100	0.970
2020/01/31 06:14:56.8	94.790	0.540	-1.030	0.880
2020/01/31 06:14:56.9	94.810	0.520	-0.960	0.800
2020/01/31 06:14:57.0	94.830	0.510	-0.880	0.720
2020/01/31 06:14:57.1	94.850	0.480	-0.800	0.640
2020/01/31 06:14:57.2	94.860	0.460	-0.710	0.560
2020/01/31 06:14:57.3	94.880	0.430	-0.620	0.480
2020/01/31 06:14:57.4	94.890	0.400	-0.530	0.410
2020/01/31 06:14:57.5	94.900	0.370	-0.440	0.340
2020/01/31 06:14:57.6	94.910	0.330	-0.350	0.270
2020/01/31 06:14:57.7	94.920	0.300	-0.250	0.210
2020/01/31 06:14:57.8	94.920	0.260	-0.160	0.150
2020/01/31 06:14:57.9	94.920	0.220	-0.070	0.100
2020/01/31 06:14:58.0	94.920	0.180	0.030	0.050
2020/01/31 06:14:58.1	94.920	0.140	0.120	-0.000
2020/01/31 06:14:58.2	94.920	0.090	0.210	-0.040
2020/01/31 06:14:58.3	94.910	0.050	0.290	-0.080
2020/01/31 06:14:58.4	94.910	0.010	0.380	-0.120
2020/01/31 06:14:58.5	94.900	-0.030	0.460	-0.150
2020/01/31 06:14:58.6	94.890	-0.080	0.540	-0.170
2020/01/31 06:14:58.7	94.880	-0.120	0.610	-0.190
2020/01/31 06:14:58.8	94.870	-0.160	0.680	-0.210
2020/01/31 06:14:58.9	94.860	-0.200	0.740	-0.220
2020/01/31 06:14:59.0	94.840	-0.240	0.810	-0.230
2020/01/31 06:14:59.1	94.830	-0.270	0.860	-0.230
2020/01/31 06:14:59.2	94.810	-0.310	0.910	-0.240
2020/01/31 06:14:59.3	94.790	-0.340	0.960	-0.230
2020/01/31 06:14:59.4	94.770	-0.380	1.000	-0.220
2020/01/31 06:14:59.5	94.750	-0.410	1.030	-0.210
2020/01/31 06:14:59.6	94.730	-0.430	1.060	-0.190
2020/01/31 06:14:59.7	94.710	-0.460	1.080	-0.170
2020/01/31 06:14:59.8	94.690	-0.480	1.100	-0.150
2020/01/31 06:14:59.9	94.670	-0.510	1.110	-0.120
2020/01/31 06:15:00.0	94.640	-0.520	1.110	-0.100
2020/01/31 06:15:00.1	94.620	-0.540	1.110	-0.070
2020/01/31 06:15:00.2	94.600	-0.560	1.100	-0.030
2020/01/31 06:15:00.3	94.570	-0.570	1.090	0.000
2020/01/31 06:15:00.4	94.550	-0.580	1.060	0.040
2020/01/31 06:15:00.5	94.520	-0.580	1.030	0.080
2020/01/31 06:15:00.6	94.500	-0.590	1.000	0.110
2020/01/31 06:15:00.7	94.470	-0.590	0.960	0.150
2020/01/31 06:15:00.8	94.450	-0.590	0.910	0.190
2020/01/31 06:15:00.9	94.430	-0.580	0.850	0.230
2020/01/31 06:15:01.0	94.400	-0.580	0.790	0.270
2020/01/31 06:15:01.1	94.380	-0.570	0.720	0.310
2020/01/31 06:15:01.2	94.360	-0.560	0.650	0.350
2020/01/31 06:15:01.3	94.340	-0.540	0.570	0.380
2020/01/31 06:15:01.4	94.330	-0.520	0.480	0.410
2020/01/31 06:15:01.5	94.310	-0.500	0.390	0.440
2020/01/31 06:15:01.6	94.300	-0.480	0.290	0.460
2020/01/31 06:15:01.7	94.290	-0.450	0.190	0.480
2020/01/31 06:15:01.8	94.280	-0.420	0.080	0.500
2020/01/31 06:15:01.9	94.280	-0.390	-0.030	0.520
2020/01/31 06:15:02.0	94.280	-0.350	-0.140	0.530
2020/01/31 06:15:02.1	94.280	-0.320	-0.260	0.540
2020/01/31 06:15:02.2	94.290	-0.280	-0.380	0.540
2020/01/31 06:15:02.3	94.300	-0.240	-0.500	0.540
2020/01/31 06:15:02.4	94.300	-0.190	-0.620	0.540
2020/01/31 06:15:02.5	94.320	-0.140	-0.740	0.540
2020/01/31 06:15:02.6	94.330	-0.100	-0.860	0.540
2020/01/31 06:15:02.7	94.350	-0.050	-0.970	0.530
2020/01/31 06:15:02.8	94.370	0.000	-1.090	0.530
2020/01/31 06:15:02.9	94.380	0.050	-1.200	0.520
2020/01/31 06:15:03.0	94.400	0.100	-1.300	0.520
2020/01/31 06:15:03.1	94.420	0.160	-1.400	0.520
2020/01/31 06:15:03.2	94.450	0.210	-1.490	0.520
2020/01/31 06:15:03.3	94.470	0.260	-1.570	0.520
2020/01/31 06:15:03.4	94.480	0.310	-1.650	0.520
2020/01/31 06:15:03.5	94.500	0.360	-1.710	0.530
2020/01/31 06:15:03.6	94.520	0.400	-1.760	0.540
2020/01/31 06:15:03.7	94.530	0.450	-1.810	0.550
2020/01/31 06:15:03.8	94.540	0.490	-1.840	0.570
2020/01/31 06:15:03.9	94.550	0.530	-1.850	0.590
2020/01/31 06:15:04.0	94.550	0.570	-1.860	0.620
2020/01/31 06:15:04.1	94.550	0.600	-1.850	0.650
2020/01/31 06:15:04.2	94.550	0.630	-1.830	0.680
2020/01/31 06:15:04.3	94.550	0.650	-1.790	0.710
2020/01/31 06:15:04.4	94.540	0.670	-1.750	0.750
2020/01/31 06:15:04.5	94.530	0.690	-1.690	0.790
2020/01/31 06:15:04.6	94.520	0.700	-1.620	0.830
2020/01/31 06:15:04.7	94.510	0.700	-1.530	0.870
2020/01/31 06:15:04.8	94.500	0.710	-1.440	0.920
2020/01/31 06:15:04.9	94.480	0.700	-1.340	0.960
2020/01/31 06:15:05.0	94.460	0.690	-1.220	1.010
2020/01/31 06:15:05.1	94.440	0.680	-1.100	1.050
2020/01/31 06:15:05.2	94.420	0.660	-0.970	1.090
2020/01/31 06:15:05.3	94.400	0.640	-0.830	1.140
2020/01/31 06:15:05.4	94.380	0.610	-0.690	1.180
2020/01/31 06:15:05.5	94.350	0.580	-0.550	1.230
2020/01/31 06:15:05.6	94.330	0.550	-0.400	1.270
2020/01/31 06:15:05.7	94.300	0.510	-0.250	1.310
2020/01/31 06:15:05.8	94.280	0.470	-0.100	1.350
2020/01/31 06:15:05.9	94.250	0.420	0.040	1.380
2020/01/31 06:15:06.0	94.230	0.380	0.190	1.420
2020/01/31 06:15:06.1	94.200	0.330	0.330	1.450
2020/01/31 06:15:06.2	94.190	0.280	0.470	1.480
2020/01/31 06:15:06.3	94.170	0.230	0.600	1.500
2020/01/31 06:15:06.4	94.140	0.180	0.720	1.530
2020/01/31 06:15:06.5	94.120	0.130	0.840	1.550
2020/01/31 06:15:06.6	94.100	0.080	0.950	1.570
2020/01/31 06:15:06.7	94.080	0.030	1.040	1.590
2020/01/31 06:15:06.8	94.050	-0.020	1.130	1.600
2020/01/31 06:15:06.9	94.030	-0.060	1.210	1.610
2020/01/31 06:15:07.0	94.010	-0.110	1.270	1.620
2020/01/31 06:15:07.1	93.990	-0.150	1.320	1.630
2020/01/31 06:15:07.2	93.970	-0.180	1.360	1.640
2020/01/31 06:15:07.3	93.950	-0.220	1.380	1.640
2020/01/31 06:15:07.4	93.930	-0.250	1.390	1.640
2020/01/31 06:15:07.5	93.910	-0.280	1.390	1.640
2020/01/31 06:15:07.6	93.890	-0.300	1.370	1.630
2020/01/31 06:15:07.7	93.880	-0.320	1.340	1.630
2020/01/31 06:15:07.8	93.860	-0.330	1.300	1.620
2020/01/31 06:15:07.9	93.840	-0.340	1.250	1.610
2020/01/31 06:15:08.0	93.830	-0.350	1.180	1.600
2020/01/31 06:15:08.1	93.820	-0.350	1.100	1.580
2020/01/31 06:15:08.2	93.800	-0.350	1.020	1.570
2020/01/31 06:15:08.3	93.790	-0.340	0.920	1.550
2020/01/31 06:15:08.4	93.780	-0.330	0.820	1.530
2020/01/31 06:15:08.5	93.770	-0.320	0.710	1.510
2020/01/31 06:15:08.6	93.760	-0.300	0.590	1.480
2020/01/31 06:15:08.7	93.750	-0.280	0.470	1.460
2020/01/31 06:15:08.8	93.740	-0.260	0.350	1.430
2020/01/31 06:15:08.9	93.740	-0.240	0.220	1.400
2020/01/31 06:15:09.0	93.740	-0.210	0.090	1.370
2020/01/31 06:15:09.1	93.740	-0.180	-0.030	1.330
2020/01/31 06:15:09.2	93.730	-0.150	-0.160	1.290
2020/01/31 06:15:09.3	93.730	-0.120	-0.280	1.250
2020/01/31 06:15:09.4	93.740	-0.080	-0.400	1.210
2020/01/31 06:15:09.5	93.750	-0.050	-0.510	1.170
2020/01/31 06:15:09.6	93.750	-0.020	-0.620	1.120
2020/01/31 06:15:09.7	93.760	0.010	-0.720	1.080
2020/01/31 06:15:09.8	93.770	0.050	-0.810	1.030
2020/01/31 06:15:09.9	93.790	0.080	-0.900	0.980
2020/01/31 06:15:10.0	93.800	0.110	-0.970	0.930
2020/01/31 06:15:10.1	93.820	0.130	-1.040	0.880
2020/01/31 06:15:10.2	93.830	0.160	-1.100	0.820
2020/01/31 06:15:10.3	93.850	0.180	-1.140	0.770
2020/01/31 06:15:10.4	93.860	0.210	-1.180	0.720
2020/01/31 06:15:10.5	93.880	0.230	-1.210	0.680
2020/01/31 06:15:10.6	93.900	0.240	-1.220	0.630
2020/01/31 06:15:10.7	93.920	0.260	-1.230	0.580
2020/01/31 06:15:10.8	93.930	0.270	-1.220	0.540
2020/01/31 06:15:10.9	93.950	0.280	-1.210	0.500
2020/01/31 06:15:11.0	93.970	0.280	-1.190	0.460
2020/01/31 06:15:11.1	93.980	0.290	-1.150	0.430
2020/01/31 06:15:11.2	94.000	0.290	-1.110	0.400
2020/01/31 06:15:11.3	94.010	0.280	-1.070	0.370
2020/01/31 06:15:11.4	94.030	0.280	-1.010	0.350
2020/01/31 06:15:11.5	94.040	0.270	-0.950	0.330
2020/01/31 06:15:11.6	94.050	0.260	-0.880	0.310
2020/01/31 06:15:11.7	94.060	0.250	-0.810	0.300
2020/01/31 06:15:11.8	94.070	0.230	-0.740	0.290
2020/01/31 06:15:11.9	94.070	0.220	-0.660	0.290
2020/01/31 06:15:12.0	94.080	0.200	-0.580	0.290
2020/01/31 06:15:12.1	94.080	0.180	-0.500	0.300
2020/01/31 06:15:12.2	94.090	0.160	-0.410	0.310
2020/01/31 06:15:12.3	94.090	0.130	-0.330	0.320
2020/01/31 06:15:12.4	94.090	0.110	-0.250	0.340
2020/01/31 06:15:12.5	94.090	0.090	-0.180	0.370
2020/01/31 06:15:12.6	94.080	0.060	-0.100	0.390
2020/01/31 06:15:12.7	94.080	0.040	-0.030	0.420
2020/01/31 06:15:12.8	94.070	0.010	0.040	0.460
2020/01/31 06:15:12.9	94.060	-0.010	0.100	0.500
2020/01/31 06:15:13.0	94.040	-0.040	0.160	0.540
2020/01/31 06:15:13.1	94.030	-0.060	0.220	0.580
2020/01/31 06:15:13.2	94.010	-0.090	0.270	0.630
2020/01/31 06:15:13.3	93.990	-0.110	0.310	0.680
2020/01/31 06:15:13.4	93.970	-0.130	0.350	0.730
2020/01/31 06:15:13.5	93.950	-0.150	0.380	0.780
2020/01/31 06:15:13.6	93.930	-0.180	0.410	0.840
2020/01/31 06:15:13.7	93.910	-0.200	0.430	0.890
2020/01/31 06:15:13.8	93.890	-0.220	0.450	0.950
2020/01/31 06:15:13.9	93.870	-0.240	0.460	1.000
2020/01/31 06:15:14.0	93.840	-0.250	0.470	1.060
2020/01/31 06:15:14.1	93.820	-0.270	0.470	1.110
2020/01/31 06:15:14.2	93.800	-0.290	0.470	1.160
2020/01/31 06:15:14.3	93.780	-0.300	0.460	1.210
2020/01/31 06:15:14.4	93.750	-0.320	0.450	1.250
2020/01/31 06:15:14.5	93.730	-0.330	0.440	1.300
2020/01/31 06:15:14.6	93.710	-0.350	0.420	1.340
2020/01/31 06:15:14.7	93.700	-0.360	0.410	1.370
2020/01/31 06:15:14.8	93.680	-0.370	0.390	1.400
2020/01/31 06:15:14.9	93.660	-0.390	0.360	1.430
2020/01/31 06:15:15.0	93.650	-0.400	0.340	1.460
2020/01/31 06:15:15.1	93.640	-0.410	0.320	1.480
2020/01/31 06:15:15.2	93.630	-0.420	0.290	1.490
2020/01/31 06:15:15.3	93.620	-0.430	0.270	1.500
2020/01/31 06:15:15.4	93.610	-0.440	0.240	1.510
2020/01/31 06:15:15.5	93.600	-0.450	0.220	1.510
2020/01/31 06:15:15.6	93.600	-0.460	0.200	1.510
2020/01/31 06:15:15.7	93.590	-0.470	0.170	1.510
2020/01/31 06:15:15.8	93.590	-0.480	0.150	1.500
2020/01/31 06:15:15.9	93.590	-0.480	0.130	1.490
2020/01/31 06:15:16.0	93.590	-0.490	0.110	1.480
2020/01/31 06:15:16.1	93.590	-0.500	0.090	1.460
2020/01/31 06:15:16.2	93.590	-0.500	0.070	1.450
2020/01/31 06:15:16.3	93.590	-0.500	0.050	1.430
2020/01/31 06:15:16.4	93.590	-0.510	0.030	1.410
2020/01/31 06:15:16.5	93.590	-0.510	0.020	1.390
2020/01/31 06:15:16.6	93.580	-0.510	-0.000	1.360
2020/01/31 06:15:16.7	93.590	-0.500	-0.020	1.340
2020/01/31 06:15:16.8	93.590	-0.500	-0.040	1.320
2020/01/31 06:15:16.9	93.590	-0.490	-0.060	1.290
2020/01/31 06:15:17.0	93.590	-0.480	-0.080	1.270
2020/01/31 06:15:17.1	93.590	-0.470	-0.100	1.250
2020/01/31 06:15:17.2	93.600	-0.460	-0.120	1.220
2020/01/31 06:15:17.3	93.600	-0.440	-0.140	1.200
2020/01/31 06:15:17.4	93.600	-0.420	-0.160	1.170
2020/01/31 06:15:17.5	93.600	-0.400	-0.190	1.150
2020/01/31 06:15:17.6	93.610	-0.380	-0.220	1.120
2020/01/31 06:15:17.7	93.610	-0.350	-0.250	1.100
2020/01/31 06:15:17.8	93.610	-0.320	-0.280	1.070
2020/01/31 06:15:17.9	93.620	-0.290	-0.310	1.050
2020/01/31 06:15:18.0	93.620	-0.260	-0.350	1.020
2020/01/31 06:15:18.1	93.620	-0.220	-0.390	1.000
2020/01/31 06:15:18.2	93.630	-0.180	-0.420	0.970
2020/01/31 06:15:18.3	93.640	-0.140	-0.460	0.940
2020/01/31 06:15:18.4	93.640	-0.090	-0.510	0.910
2020/01/31 06:15:18.5	93.650	-0.050	-0.550	0.880
2020/01/31 06:15:18.6	93.650	0.000	-0.590	0.850
2020/01/31 06:15:18.7	93.660	0.050	-0.640	0.820
2020/01/31 06:15:18.8	93.670	0.100	-0.680	0.780
2020/01/31 06:15:18.9	93.680	0.150	-0.730	0.750
2020/01/31 06:15:19.0	93.680	0.210	-0.770	0.710
2020/01/31 06:15:19.1	93.690	0.260	-0.820	0.670
2020/01/31 06:15:19.2	93.710	0.310	-0.860	0.640
2020/01/31 06:15:19.3	93.730	0.370	-0.900	0.600
2020/01/31 06:15:19.4	93.740	0.420	-0.940	0.560
2020/01/31 06:15:19.5	93.750	0.470	-0.980	0.520
2020/01/31 06:15:19.6	93.760	0.530	-1.010	0.480
2020/01/31 06:15:19.7	93.770	0.580	-1.040	0.440
2020/01/31 06:15:19.8	93.780	0.630	-1.060	0.400
2020/01/31 06:15:19.9	93.790	0.680	-1.080	0.360
2020/01/31 06:15:20.0	93.800	0.720	-1.090	0.330
2020/01/31 06:15:20.1	93.810	0.770	-1.100	0.300
2020/01/31 06:15:20.2	93.820	0.810	-1.100	0.260
2020/01/31 06:15:20.3	93.830	0.850	-1.100	0.230
2020/01/31 06:15:20.4	93.830	0.880	-1.090	0.210
2020/01/31 06:15:20.5	93.840	0.910	-1.080	0.190
2020/01/31 06:15:20.6	93.850	0.940	-1.060	0.170
2020/01/31 06:15:20.7	93.850	0.970	-1.030	0.160
2020/01/31 06:15:20.8	93.850	0.990	-1.000	0.150
2020/01/31 06:15:20.9	93.860	1.010	-0.960	0.140
2020/01/31 06:15:21.0	93.860	1.020	-0.920	0.140
2020/01/31 06:15:21.1	93.850	1.030	-0.870	0.140
2020/01/31 06:15:21.2	93.850	1.030	-0.820	0.140
2020/01/31 06:15:21.3	93.850	1.030	-0.760	0.150
2020/01/31 06:15:21.4	93.840	1.030	-0.690	0.160
2020/01/31 06:15:21.5	93.840	1.020	-0.620	0.170
2020/01/31 06:15:21.6	93.830	1.000	-0.550	0.190
2020/01/31 06:15:21.7	93.820	0.980	-0.470	0.210
2020/01/31 06:15:21.8	93.810	0.960	-0.390	0.240
2020/01/31 06:15:21.9	93.800	0.930	-0.310	0.260
2020/01/31 06:15:22.0	93.790	0.900	-0.220	0.290
2020/01/31 06:15:22.1	93.770	0.860	-0.140	0.320
2020/01/31 06:15:22.2	93.760	0.820	-0.050	0.350
2020/01/31 06:15:22.3	93.740	0.770	0.040	0.390
2020/01/31 06:15:22.4	93.730	0.720	0.130	0.420
2020/01/31 06:15:22.5	93.710	0.670	0.220	0.460
2020/01/31 06:15:22.6	93.700	0.610	0.310	0.500
2020/01/31 06:15:22.7	93.680	0.550	0.400	0.540
2020/01/31 06:15:22.8	93.670	0.490	0.490	0.570
2020/01/31 06:15:22.9	93.650	0.430	0.570	0.610
2020/01/31 06:15:23.0	93.640	0.360	0.650	0.650
2020/01/31 06:15:23.1	93.630	0.300	0.720	0.690
2020/01/31 06:15:23.2	93.610	0.230	0.800	0.730
2020/01/31 06:15:23.3	93.600	0.160	0.860	0.760
2020/01/31 06:15:23.4	93.590	0.090	0.920	0.800
2020/01/31 06:15:23.5	93.590	0.020	0.980	0.830
2020/01/31 06:15:23.6	93.580	-0.040	1.020	0.860
2020/01/31 06:15:23.7	93.580	-0.110	1.070	0.890
2020/01/31 06:15:23.8	93.570	-0.170	1.100	0.920
2020/01/31 06:15:23.9	93.570	-0.240	1.120	0.950
2020/01/31 06:15:24.0	93.570	-0.300	1.140	0.970
2020/01/31 06:15:24.1	93.570	-0.350	1.150	1.000
2020/01/31 06:15:24.2	93.570	-0.410	1.150	1.010
2020/01/31 06:15:24.3	93.580	-0.460	1.140	1.040
2020/01/31 06:15:24.4	93.580	-0.500	1.120	1.060
2020/01/31 06:15:24.5	93.580	-0.550	1.100	1.080
2020/01/31 06:15:24.6	93.590	-0.580	1.060	1.100
2020/01/31 06:15:24.7	93.590	-0.620	1.020	1.120
2020/01/31 06:15:24.8	93.600	-0.650	0.970	1.140
2020/01/31 06:15:24.9	93.610	-0.670	0.920	1.160
2020/01/31 06:15:25.0	93.610	-0.690	0.850	1.180
2020/01/31 06:15:25.1	93.620	-0.710	0.780	1.200
2020/01/31 06:15:25.2	93.620	-0.720	0.710	1.220
2020/01/31 06:15:25.3	93.620	-0.730	0.630	1.240
2020/01/31 06:15:25.4	93.630	-0.740	0.540	1.260
2020/01/31 06:15:25.5	93.630	-0.740	0.460	1.270
2020/01/31 06:15:25.6	93.640	-0.730	0.370	1.290
2020/01/31 06:15:25.7	93.640	-0.730	0.280	1.300
2020/01/31 06:15:25.8	93.650	-0.720	0.180	1.320
2020/01/31 06:15:25.9	93.650	-0.700	0.090	1.330
2020/01/31 06:15:26.0	93.650	-0.690	-0.010	1.350
2020/01/31 06:15:26.1	93.660	-0.670	-0.100	1.360
2020/01/31 06:15:26.2	93.670	-0.650	-0.190	1.360
2020/01/31 06:15:26.3	93.670	-0.630	-0.280	1.370
2020/01/31 06:15:26.4	93.680	-0.600	-0.370	1.380
2020/01/31 06:15:26.5	93.680	-0.580	-0.450	1.380
2020/01/31 06:15:26.6	93.690	-0.550	-0.540	1.390
2020/01/31 06:15:26.7	93.700	-0.520	-0.610	1.390
2020/01/31 06:15:26.8	93.710	-0.500	-0.690	1.390
2020/01/31 06:15:26.9	93.710	-0.470	-0.760	1.390
2020/01/31 06:15:27.0	93.720	-0.440	-0.820	1.380
2020/01/31 06:15:27.1	93.730	-0.410	-0.880	1.380
2020/01/31 06:15:27.2	93.750	-0.380	-0.940	1.370
2020/01/31 06:15:27.3	93.770	-0.350	-0.990	1.360
2020/01/31 06:15:27.4	93.780	-0.320	-1.030	1.350
2020/01/31 06:15:27.5	93.790	-0.290	-1.070	1.340
2020/01/31 06:15:27.6	93.810	-0.270	-1.100	1.320
2020/01/31 06:15:27.7	93.830	-0.240	-1.130	1.310
2020/01/31 06:15:27.8	93.850	-0.210	-1.150	1.290
2020/01/31 06:15:27.9	93.860	-0.190	-1.170	1.280
2020/01/31 06:15:28.0	93.880	-0.160	-1.180	1.260
2020/01/31 06:15:28.1	93.900	-0.140	-1.180	1.240
2020/01/31 06:15:28.2	93.920	-0.110	-1.180	1.230
2020/01/31 06:15:28.3	93.940	-0.090	-1.180	1.220
2020/01/31 06:15:28.4	93.960	-0.070	-1.160	1.200
2020/01/31 06:15:28.5	93.970	-0.050	-1.150	1.190
2020/01/31 06:15:28.6	93.990	-0.030	-1.120	1.190
2020/01/31 06:15:28.7	94.010	-0.020	-1.100	1.180
2020/01/31 06:15:28.8	94.020	-0.000	-1.070	1.180
2020/01/31 06:15:28.9	94.030	0.010	-1.030	1.180
2020/01/31 06:15:29.0	94.050	0.030	-0.990	1.180
2020/01/31 06:15:29.1	94.050	0.040	-0.940	1.190
2020/01/31 06:15:29.2	94.060	0.050	-0.890	1.200
2020/01/31 06:15:29.3	94.060	0.060	-0.840	1.210
2020/01/31 06:15:29.4	94.060	0.070	-0.790	1.220
2020/01/31 06:15:29.5	94.070	0.070	-0.730	1.240
2020/01/31 06:15:29.6	94.060	0.080	-0.670	1.250
2020/01/31 06:15:29.7	94.060	0.080	-0.600	1.270
2020/01/31 06:15:29.8	94.050	0.080	-0.540	1.290
2020/01/31 06:15:29.9	94.050	0.080	-0.470	1.310
2020/01/31 06:15:30.0	94.040	0.080	-0.400	1.330
2020/01/31 06:15:30.1	94.030	0.070	-0.330	1.340
2020/01/31 06:15:30.2	94.010	0.070	-0.260	1.360
2020/01/31 06:15:30.3	94.000	0.060	-0.180	1.380
2020/01/31 06:15:30.4	93.990	0.050	-0.110	1.390
2020/01/31 06:15:30.5	93.970	0.040	-0.040	1.400
2020/01/31 06:15:30.6	93.950	0.030	0.030	1.410
2020/01/31 06:15:30.7	93.940	0.020	0.100	1.410
2020/01/31 06:15:30.8	93.920	0.010	0.170	1.410
2020/01/31 06:15:30.9	93.900	-0.010	0.240	1.410
2020/01/31 06:15:31.0	93.880	-0.020	0.300	1.400
2020/01/31 06:15:31.1	93.860	-0.040	0.360	1.380
2020/01/31 06:15:31.2	93.840	-0.050	0.420	1.370
2020/01/31 06:15:31.3	93.820	-0.060	0.470	1.340
2020/01/31 06:15:31.4	93.800	-0.080	0.510	1.320
2020/01/31 06:15:31.5	93.780	-0.090	0.550	1.290
2020/01/31 06:15:31.6	93.760	-0.100	0.580	1.250
2020/01/31 06:15:31.7	93.740	-0.120	0.600	1.210
2020/01/31 06:15:31.8	93.720	-0.120	0.620	1.170
2020/01/31 06:15:31.9	93.700	-0.130	0.630	1.130
2020/01/31 06:15:32.0	93.680	-0.140	0.640	1.080
2020/01/31 06:15:32.1	93.660	-0.140	0.630	1.030
2020/01/31 06:15:32.2	93.640	-0.150	0.620	0.980
2020/01/31 06:15:32.3	93.620	-0.140	0.610	0.930
2020/01/31 06:15:32.4	93.600	-0.140	0.580	0.880
2020/01/31 06:15:32.5	93.580	-0.140	0.550	0.830
2020/01/31 06:15:32.6	93.560	-0.130	0.520	0.780
2020/01/31 06:15:32.7	93.540	-0.120	0.480	0.730
2020/01/31 06:15:32.8	93.520	-0.110	0.430	0.680
2020/01/31 06:15:32.9	93.510	-0.100	0.380	0.630
2020/01/31 06:15:33.0	93.490	-0.080	0.330	0.580
2020/01/31 06:15:33.1	93.470	-0.060	0.280	0.530
2020/01/31 06:15:33.2	93.460	-0.040	0.220	0.480
2020/01/31 06:15:33.3	93.450	-0.020	0.160	0.430
2020/01/31 06:15:33.4	93.440	0.000	0.100	0.380
2020/01/31 06:15:33.5	93.430	0.020	0.050	0.320
2020/01/31 06:15:33.6	93.420	0.050	-0.010	0.270
2020/01/31 06:15:33.7	93.420	0.070	-0.070	0.220
2020/01/31 06:15:33.8	93.420	0.100	-0.120	0.170
2020/01/31 06:15:33.9	93.420	0.120	-0.180	0.110
2020/01/31 06:15:34.0	93.420	0.140	-0.220	0.060
2020/01/31 06:15:34.1	93.430	0.170	-0.270	0.000
2020/01/31 06:15:34.2	93.430	0.190	-0.320	-0.060
2020/01/31 06:15:34.3	93.440	0.210	-0.350	-0.110
2020/01/31 06:15:34.4	93.450	0.240	-0.390	-0.160
2020/01/31 06:15:34.5	93.470	0.260	-0.410	-0.220
2020/01/31 06:15:34.6	93.480	0.280	-0.440	-0.270
2020/01/31 06:15:34.7	93.500	0.290	-0.460	-0.320
2020/01/31 06:15:34.8	93.510	0.310	-0.480	-0.370
2020/01/31 06:15:34.9	93.530	0.330	-0.490	-0.420
2020/01/31 06:15:35.0	93.550	0.340	-0.490	-0.470
2020/01/31 06:15:35.1	93.570	0.350	-0.500	-0.510
2020/01/31 06:15:35.2	93.580	0.360	-0.500	-0.550
2020/01/31 06:15:35.3	93.600	0.370	-0.500	-0.590
2020/01/31 06:15:35.4	93.620	0.380	-0.490	-0.620
2020/01/31 06:15:35.5	93.630	0.380	-0.480	-0.650
2020/01/31 06:15:35.6	93.650	0.390	-0.480	-0.680
2020/01/31 06:15:35.7	93.660	0.390	-0.470	-0.700
2020/01/31 06:15:35.8	93.680	0.390	-0.460	-0.710
2020/01/31 06:15:35.9	93.690	0.390	-0.450	-0.730
2020/01/31 06:15:36.0	93.700	0.390	-0.430	-0.730
2020/01/31 06:15:36.1	93.710	0.390	-0.420	-0.740
2020/01/31 06:15:36.2	93.710	0.390	-0.410	-0.730
2020/01/31 06:15:36.3	93.720	0.380	-0.400	-0.730
2020/01/31 06:15:36.4	93.720	0.380	-0.390	-0.720
2020/01/31 06:15:36.5	93.730	0.370	-0.380	-0.700
2020/01/31 06:15:36.6	93.730	0.370	-0.380	-0.680
2020/01/31 06:15:36.7	93.730	0.360	-0.370	-0.660
2020/01/31 06:15:36.8	93.730	0.360	-0.370	-0.630
2020/01/31 06:15:36.9	93.730	0.350	-0.360	-0.590
2020/01/31 06:15:37.0	93.730	0.350	-0.360	-0.560
2020/01/31 06:15:37.1	93.730	0.340	-0.360	-0.510
2020/01/31 06:15:37.2	93.720	0.340	-0.360	-0.470
2020/01/31 06:15:37.3	93.720	0.340	-0.360	-0.420
2020/01/31 06:15:37.4	93.710	0.330	-0.370	-0.370
2020/01/31 06:15:37.5	93.700	0.330	-0.370	-0.310
2020/01/31 06:15:37.6	93.690	0.320	-0.380	-0.250
2020/01/31 06:15:37.7	93.680	0.320	-0.390	-0.190
2020/01/31 06:15:37.8	93.670	0.310	-0.400	-0.130
2020/01/31 06:15:37.9	93.660	0.310	-0.410	-0.060
2020/01/31 06:15:38.0	93.650	0.310	-0.420	0.010
2020/01/31 06:15:38.1	93.640	0.300	-0.420	0.080
2020/01/31 06:15:38.2	93.620	0.300	-0.430	0.160
2020/01/31 06:15:38.3	93.610	0.290	-0.440	0.230
2020/01/31 06:15:38.4	93.600	0.290	-0.450	0.310
2020/01/31 06:15:38.5	93.580	0.280	-0.450	0.390
2020/01/31 06:15:38.6	93.570	0.280	-0.460	0.470
2020/01/31 06:15:38.7	93.550	0.270	-0.460	0.550
2020/01/31 06:15:38.8	93.540	0.260	-0.460	0.640
2020/01/31 06:15:38.9	93.530	0.250	-0.450	0.720
2020/01/31 06:15:39.0	93.510	0.240	-0.450	0.810
2020/01/31 06:15:39.1	93.500	0.220	-0.440	0.890
2020/01/31 06:15:39.2	93.490	0.210	-0.420	0.980
2020/01/31 06:15:39.3	93.480	0.190	-0.400	1.070
2020/01/31 06:15:39.4	93.460	0.170	-0.380	1.150
2020/01/31 06:15:39.5	93.450	0.150	-0.360	1.240
2020/01/31 06:15:39.6	93.440	0.130	-0.330	1.320
2020/01/31 06:15:39.7	93.430	0.110	-0.290	1.400
2020/01/31 06:15:39.8	93.420	0.080	-0.260	1.480
2020/01/31 06:15:39.9	93.410	0.060	-0.220	1.550
2020/01/31 06:15:40.0	93.410	0.030	-0.170	1.630
2020/01/31 06:15:40.1	93.400	-0.000	-0.130	1.690
2020/01/31 06:15:40.2	93.400	-0.040	-0.080	1.750
2020/01/31 06:15:40.3	93.390	-0.070	-0.020	1.820
2020/01/31 06:15:40.4	93.390	-0.100	0.030	1.880
2020/01/31 06:15:40.5	93.390	-0.140	0.080	1.930
2020/01/31 06:15:40.6	93.390	-0.170	0.140	1.980
2020/01/31 06:15:40.7	93.400	-0.210	0.190	2.030
2020/01/31 06:15:40.8	93.400	-0.240	0.250	2.080
2020/01/31 06:15:40.9	93.400	-0.280	0.300	2.110
2020/01/31 06:15:41.0	93.410	-0.310	0.350	2.150
2020/01/31 06:15:41.1	93.420	-0.350	0.400	2.180
2020/01/31 06:15:41.2	93.430	-0.380	0.450	2.210
2020/01/31 06:15:41.3	93.440	-0.410	0.500	2.230
2020/01/31 06:15:41.4	93.450	-0.440	0.540	2.250
2020/01/31 06:15:41.5	93.460	-0.470	0.580	2.260
2020/01/31 06:15:41.6	93.470	-0.500	0.610	2.270
2020/01/31 06:15:41.7	93.490	-0.520	0.640	2.270
2020/01/31 06:15:41.8	93.500	-0.540	0.660	2.270
2020/01/31 06:15:41.9	93.520	-0.560	0.670	2.260
2020/01/31 06:15:42.0	93.530	-0.570	0.680	2.250
2020/01/31 06:15:42.1	93.550	-0.580	0.680	2.240
2020/01/31 06:15:42.2	93.570	-0.590	0.680	2.210
2020/01/31 06:15:42.3	93.590	-0.590	0.670	2.190
2020/01/31 06:15:42.4	93.600	-0.590	0.650	2.170
2020/01/31 06:15:42.5	93.620	-0.580	0.630	2.140
2020/01/31 06:15:42.6	93.640	-0.580	0.600	2.110
2020/01/31 06:15:42.7	93.660	-0.560	0.560	2.070
2020/01/31 06:15:42.8	93.670	-0.550	0.510	2.040
2020/01/31 06:15:42.9	93.690	-0.530	0.460	2.000
2020/01/31 06:15:43.0	93.710	-0.510	0.410	1.960
2020/01/31 06:15:43.1	93.730	-0.480	0.350	1.920
2020/01/31 06:15:43.2	93.740	-0.450	0.280	1.870
2020/01/31 06:15:43.3	93.760	-0.420	0.210	1.830
2020/01/31 06:15:43.4	93.770	-0.390	0.140	1.780
2020/01/31 06:15:43.5	93.790	-0.350	0.070	1.740
2020/01/31 06:15:43.6	93.800	-0.310	-0.010	1.690
2020/01/31 06:15:43.7	93.820	-0.270	-0.080	1.650
2020/01/31 06:15:43.8	93.830	-0.230	-0.160	1.600
2020/01/31 06:15:43.9	93.840	-0.190	-0.240	1.550
2020/01/31 06:15:44.0	93.860	-0.150	-0.310	1.510
2020/01/31 06:15:44.1	93.870	-0.110	-0.390	1.470
2020/01/31 06:15:44.2	93.870	-0.070	-0.460	1.420
2020/01/31 06:15:44.3	93.870	-0.030	-0.530	1.380
2020/01/31 06:15:44.4	93.880	0.010	-0.590	1.340
2020/01/31 06:15:44.5	93.880	0.050	-0.650	1.300
2020/01/31 06:15:44.6	93.890	0.080	-0.710	1.270
2020/01/31 06:15:44.7	93.890	0.110	-0.760	1.230
2020/01/31 06:15:44.8	93.890	0.140	-0.810	1.200
2020/01/31 06:15:44.9	93.880	0.170	-0.850	1.170
2020/01/31 06:15:45.0	93.880	0.190	-0.890	1.130
2020/01/31 06:15:45.1	93.870	0.210	-0.910	1.100
2020/01/31 06:15:45.2	93.860	0.230	-0.940	1.070
2020/01/31 06:15:45.3	93.850	0.240	-0.950	1.040
2020/01/31 06:15:45.4	93.840	0.250	-0.960	1.020
2020/01/31 06:15:45.5	93.830	0.250	-0.960	0.990
2020/01/31 06:15:45.6	93.810	0.250	-0.960	0.960
2020/01/31 06:15:45.7	93.800	0.240	-0.940	0.930
2020/01/31 06:15:45.8	93.780	0.240	-0.930	0.900
2020/01/31 06:15:45.9	93.760	0.220	-0.900	0.880
2020/01/31 06:15:46.0	93.750	0.210	-0.870	0.850
2020/01/31 06:15:46.1	93.730	0.190	-0.830	0.820
2020/01/31 06:15:46.2	93.710	0.160	-0.790	0.790
2020/01/31 06:15:46.3	93.690	0.140	-0.750	0.760
2020/01/31 06:15:46.4	93.670	0.110	-0.700	0.720
2020/01/31 06:15:46.5	93.650	0.080	-0.650	0.690
2020/01/31 06:15:46.6	93.640	0.050	-0.590	0.660
2020/01/31 06:15:46.7	93.620	0.010	-0.530	0.630
2020/01/31 06:15:46.8	93.600	-0.020	-0.480	0.590
2020/01/31 06:15:46.9	93.580	-0.060	-0.420	0.560
2020/01/31 06:15:47.0	93.570	-0.090	-0.360	0.530
2020/01/31 06:15:47.1	93.550	-0.130	-0.300	0.500
2020/01/31 06:15:47.2	93.530	-0.160	-0.240	0.470
2020/01/31 06:15:47.3	93.520	-0.190	-0.190	0.430
2020/01/31 06:15:47.4	93.500	-0.220	-0.130	0.400
2020/01/31 06:15:47.5	93.490	-0.250	-0.080	0.370
2020/01/31 06:15:47.6	93.480	-0.280	-0.030	0.340
2020/01/31 06:15:47.7	93.470	-0.300	0.020	0.320
2020/01/31 06:15:47.8	93.460	-0.330	0.060	0.290
2020/01/31 06:15:47.9	93.450	-0.340	0.100	0.270
2020/01/31 06:15:48.0	93.440	-0.360	0.130	0.240
2020/01/31 06:15:48.1	93.440	-0.370	0.160	0.220
2020/01/31 06:15:48.2	93.430	-0.380	0.190	0.200
2020/01/31 06:15:48.3	93.430	-0.380	0.200	0.190
2020/01/31 06:15:48.4	93.420	-0.380	0.220	0.170
2020/01/31 06:15:48.5	93.420	-0.370	0.230	0.160
2020/01/31 06:15:48.6	93.420	-0.360	0.230	0.140
2020/01/31 06:15:48.7	93.420	-0.350	0.230	0.130
2020/01/31 06:15:48.8	93.420	-0.340	0.220	0.120
2020/01/31 06:15:48.9	93.410	-0.320	0.210	0.110
2020/01/31 06:15:49.0	93.410	-0.290	0.200	0.110
2020/01/31 06:15:49.1	93.410	-0.270	0.180	0.100
2020/01/31 06:15:49.2	93.400	-0.240	0.150	0.090
2020/01/31 06:15:49.3	93.400	-0.210	0.130	0.090
2020/01/31 06:15:49.4	93.400	-0.180	0.110	0.080
2020/01/31 06:15:49.5	93.400	-0.150	0.080	0.070
2020/01/31 06:15:49.6	93.400	-0.110	0.050	0.060
2020/01/31 06:15:49.7	93.400	-0.080	0.020	0.050
2020/01/31 06:15:49.8	93.400	-0.050	-0.010	0.040
2020/01/31 06:15:49.9	93.400	-0.010	-0.040	0.030
2020/01/31 06:15:50.0	93.400	0.020	-0.070	0.020
2020/01/31 06:15:50.1	93.410	0.050	-0.100	0.010
2020/01/31 06:15:50.2	93.400	0.080	-0.120	-0.010
2020/01/31 06:15:50.3	93.410	0.110	-0.150	-0.020
2020/01/31 06:15:50.4	93.410	0.140	-0.170	-0.040
2020/01/31 06:15:50.5	93.410	0.170	-0.190	-0.050
2020/01/31 06:15:50.6	93.410	0.190	-0.210	-0.070
2020/01/31 06:15:50.7	93.410	0.220	-0.230	-0.080
2020/01/31 06:15:50.8	93.410	0.240	-0.240	-0.090
2020/01/31 06:15:50.9	93.410	0.250	-0.250	-0.110
2020/01/31 06:15:51.0	93.400	0.270	-0.260	-0.120
2020/01/31 06:15:51.1	93.400	0.280	-0.260	-0.120
2020/01/31 06:15:51.2	93.400	0.290	-0.270	-0.130
2020/01/31 06:15:51.3	93.390	0.300	-0.270	-0.130
2020/01/31 06:15:51.4	93.390	0.310	-0.270	-0.140
2020/01/31 06:15:51.5	93.380	0.320	-0.260	-0.130
2020/01/31 06:15:51.6	93.370	0.320	-0.250	-0.130
2020/01/31 06:15:51.7	93.370	0.320	-0.240	-0.120
2020/01/31 06:15:51.8	93.360	0.320	-0.230	-0.110
2020/01/31 06:15:51.9	93.350	0.320	-0.220	-0.090
2020/01/31 06:15:52.0	93.350	0.310	-0.210	-0.080
2020/01/31 06:15:52.1	93.340	0.310	-0.190	-0.060
2020/01/31 06:15:52.2	93.330	0.310	-0.180	-0.030
2020/01/31 06:15:52.3	93.330	0.300	-0.160	-0.010
2020/01/31 06:15:52.4	93.320	0.300	-0.150	0.020
2020/01/31 06:15:52.5	93.320	0.290	-0.130	0.050
2020/01/31 06:15:52.6	93.320	0.290	-0.120	0.080
2020/01/31 06:15:52.7	93.320	0.280	-0.110	0.110
2020/01/31 06:15:52.8	93.320	0.280	-0.100	0.150
2020/01/31 06:15:52.9	93.320	0.270	-0.100	0.180
2020/01/31 06:15:53.0	93.320	0.270	-0.090	0.220
2020/01/31 06:15:53.1	93.320	0.270	-0.090	0.260
2020/01/31 06:15:53.2	93.330	0.270	-0.090	0.290
2020/01/31 06:15:53.3	93.340	0.270	-0.090	0.330
2020/01/31 06:15:53.4	93.350	0.270	-0.090	0.370
2020/01/31 06:15:53.5	93.360	0.270	-0.100	0.410
2020/01/31 06:15:53.6	93.370	0.270	-0.100	0.440
2020/01/31 06:15:53.7	93.380	0.270	-0.110	0.480
2020/01/31 06:15:53.8	93.400	0.280	-0.130	0.510
2020/01/31 06:15:53.9	93.420	0.280	-0.140	0.550
2020/01/31 06:15:54.0	93.430	0.290	-0.150	0.580
2020/01/31 06:15:54.1	93.460	0.290	-0.170	0.610
2020/01/31 06:15:54.2	93.490	0.300	-0.180	0.640
2020/01/31 06:15:54.3	93.510	0.310	-0.200	0.670
2020/01/31 06:15:54.4	93.540	0.310	-0.220	0.690
2020/01/31 06:15:54.5	93.560	0.320	-0.240	0.720
2020/01/31 06:15:54.6	93.590	0.320	-0.250	0.740
2020/01/31 06:15:54.7	93.620	0.330	-0.270	0.760
2020/01/31 06:15:54.8	93.650	0.330	-0.290	0.780
2020/01/31 06:15:54.9	93.690	0.340	-0.300	0.800
2020/01/31 06:15:55.0	93.720	0.340	-0.310	0.820
2020/01/31 06:15:55.1	93.750	0.340	-0.320	0.840
2020/01/31 06:15:55.2	93.780	0.340	-0.330	0.860
2020/01/31 06:15:55.3	93.810	0.340	-0.340	0.880
2020/01/31 06:15:55.4	93.840	0.340	-0.340	0.900
2020/01/31 06:15:55.5	93.870	0.340	-0.340	0.920
2020/01/31 06:15:55.6	93.890	0.330	-0.340	0.940
2020/01/31 06:15:55.7	93.920	0.330	-0.340	0.970
2020/01/31 06:15:55.8	93.940	0.320	-0.330	0.990
2020/01/31 06:15:55.9	93.960	0.310	-0.320	1.020
2020/01/31 06:15:56.0	93.970	0.300	-0.310	1.050
2020/01/31 06:15:56.1	93.990	0.290	-0.300	1.080
2020/01/31 06:15:56.2	94.000	0.270	-0.280	1.120
2020/01/31 06:15:56.3	94.000	0.250	-0.260	1.160
2020/01/31 06:15:56.4	94.000	0.230	-0.240	1.200
2020/01/31 06:15:56.5	94.000	0.210	-0.220	1.250
2020/01/31 06:15:56.6	94.000	0.190	-0.190	1.300
2020/01/31 06:15:56.7	93.990	0.170	-0.160	1.350
2020/01/31 06:15:56.8	93.980	0.140	-0.140	1.400
2020/01/31 06:15:56.9	93.960	0.120	-0.110	1.460
2020/01/31 06:15:57.0	93.950	0.090	-0.080	1.520
2020/01/31 06:15:57.1	93.920	0.060	-0.040	1.580
2020/01/31 06:15:57.2	93.900	0.030	-0.010	1.640
2020/01/31 06:15:57.3	93.870	0.000	0.020	1.710
2020/01/31 06:15:57.4	93.840	-0.030	0.050	1.780
2020/01/31 06:15:57.5	93.810	-0.060	0.090	1.850
2020/01/31 06:15:57.6	93.770	-0.090	0.120	1.910
2020/01/31 06:15:57.7	93.730	-0.120	0.140	1.980
2020/01/31 06:15:57.8	93.700	-0.150	0.170	2.050
2020/01/31 06:15:57.9	93.660	-0.180	0.200	2.120
2020/01/31 06:15:58.0	93.620	-0.210	0.220	2.180
2020/01/31 06:15:58.1	93.580	-0.240	0.240	2.240
2020/01/31 06:15:58.2	93.540	-0.270	0.260	2.300
2020/01/31 06:15:58.3	93.500	-0.300	0.270	2.360
2020/01/31 06:15:58.4	93.460	-0.330	0.280	2.400
2020/01/31 06:15:58.5	93.430	-0.350	0.290	2.450
2020/01/31 06:15:58.6	93.390	-0.380	0.300	2.490
2020/01/31 06:15:58.7	93.360	-0.400	0.300	2.530
2020/01/31 06:15:58.8	93.330	-0.420	0.290	2.550
2020/01/31 06:15:58.9	93.300	-0.440	0.290	2.580
2020/01/31 06:15:59.0	93.280	-0.460	0.270	2.590
2020/01/31 06:15:59.1	93.250	-0.480	0.260	2.600
2020/01/31 06:15:59.2	93.240	-0.490	0.230	2.610
2020/01/31 06:15:59.3	93.220	-0.500	0.210	2.600
2020/01/31 06:15:59.4	93.210	-0.510	0.180	2.600
2020/01/31 06:15:59.5	93.200	-0.520	0.150	2.580
2020/01/31 06:15:59.6	93.200	-0.530	0.110	2.560
2020/01/31 06:15:59.7	93.200	-0.530	0.070	2.530
2020/01/31 06:15:59.8	93.200	-0.530	0.020	2.500
2020/01/31 06:15:59.9	93.200	-0.530	-0.030	2.460
2020/01/31 06:16:00.0	93.210	-0.520	-0.080	2.420
2020/01/31 06:16:00.1	93.220	-0.520	-0.130	2.370
2020/01/31 06:16:00.2	93.240	-0.510	-0.180	2.320
2020/01/31 06:16:00.3	93.260	-0.500	-0.240	2.260
2020/01/31 06:16:00.4	93.270	-0.480	-0.290	2.200
2020/01/31 06:16:00.5	93.300	-0.470	-0.350	2.130
2020/01/31 06:16:00.6	93.320	-0.450	-0.410	2.060
2020/01/31 06:16:00.7	93.340	-0.440	-0.460	1.990
2020/01/31 06:16:00.8	93.360	-0.420	-0.520	1.920
2020/01/31 06:16:00.9	93.380	-0.400	-0.570	1.850
2020/01/31 06:16:01.0	93.410	-0.380	-0.620	1.770
2020/01/31 06:16:01.1	93.430	-0.360	-0.670	1.700
2020/01/31 06:16:01.2	93.450	-0.340	-0.710	1.620
2020/01/31 06:16:01.3	93.470	-0.310	-0.750	1.540
2020/01/31 06:16:01.4	93.490	-0.290	-0.780	1.460
2020/01/31 06:16:01.5	93.510	-0.270	-0.810	1.380
2020/01/31 06:16:01.6	93.530	-0.250	-0.840	1.300
2020/01/31 06:16:01.7	93.550	-0.230	-0.850	1.220
2020/01/31 06:16:01.8	93.560	-0.210	-0.860	1.140
2020/01/31 06:16:01.9	93.570	-0.190	-0.870	1.060
2020/01/31 06:16:02.0	93.590	-0.170	-0.870	0.980
2020/01/31 06:16:02.1	93.600	-0.160	-0.860	0.900
2020/01/31 06:16:02.2	93.610	-0.140	-0.830	0.820
2020/01/31 06:16:02.3	93.610	-0.130	-0.810	0.740
2020/01/31 06:16:02.4	93.620	-0.120	-0.780	0.660
2020/01/31 06:16:02.5	93.620	-0.110	-0.750	0.580
2020/01/31 06:16:02.6	93.630	-0.100	-0.710	0.500
2020/01/31 06:16:02.7	93.630	-0.090	-0.660	0.430
2020/01/31 06:16:02.8	93.630	-0.090	-0.610	0.350
2020/01/31 06:16:02.9	93.620	-0.080	-0.550	0.270
2020/01/31 06:16:03.0	93.620	-0.080	-0.490	0.200
2020/01/31 06:16:03.1	93.610	-0.080	-0.430	0.130
2020/01/31 06:16:03.2	93.600	-0.080	-0.360	0.060
2020/01/31 06:16:03.3	93.590	-0.090	-0.290	-0.000
2020/01/31 06:16:03.4	93.570	-0.090	-0.220	-0.060
2020/01/31 06:16:03.5	93.560	-0.090	-0.150	-0.120
2020/01/31 06:16:03.6	93.540	-0.100	-0.080	-0.180
2020/01/31 06:16:03.7	93.520	-0.100	-0.000	-0.230
2020/01/31 06:16:03.8	93.490	-0.110	0.070	-0.280
2020/01/31 06:16:03.9	93.460	-0.110	0.140	-0.320
2020/01/31 06:16:04.0	93.440	-0.120	0.210	-0.360
2020/01/31 06:16:04.1	93.410	-0.120	0.270	-0.390
2020/01/31 06:16:04.2	93.380	-0.130	0.330	-0.430
2020/01/31 06:16:04.3	93.350	-0.130	0.390	-0.450
2020/01/31 06:16:04.4	93.310	-0.130	0.440	-0.480
2020/01/31 06:16:04.5	93.280	-0.130	0.480	-0.490
2020/01/31 06:16:04.6	93.240	-0.130	0.510	-0.510
2020/01/31 06:16:04.7	93.210	-0.130	0.540	-0.520
2020/01/31 06:16:04.8	93.170	-0.130	0.560	-0.530
2020/01/31 06:16:04.9	93.130	-0.120	0.570	-0.540
2020/01/31 06:16:05.0	93.100	-0.110	0.570	-0.540
2020/01/31 06:16:05.1	93.060	-0.100	0.570	-0.540
2020/01/31 06:16:05.2	93.020	-0.090	0.550	-0.540
2020/01/31 06:16:05.3	92.990	-0.080	0.530	-0.540
2020/01/31 06:16:05.4	92.960	-0.060	0.500	-0.530
2020/01/31 06:16:05.5	92.930	-0.040	0.460	-0.530
2020/01/31 06:16:05.6	92.900	-0.020	0.410	-0.520
2020/01/31 06:16:05.7	92.880	0.000	0.360	-0.520
2020/01/31 06:16:05.8	92.860	0.030	0.290	-0.510
2020/01/31 06:16:05.9	92.840	0.060	0.230	-0.510
2020/01/31 06:16:06.0	92.830	0.090	0.150	-0.510
2020/01/31 06:16:06.1	92.820	0.120	0.070	-0.510
2020/01/31 06:16:06.2	92.820	0.150	-0.010	-0.510
2020/01/31 06:16:06.3	92.820	0.180	-0.090	-0.520
2020/01/31 06:16:06.4	92.820	0.220	-0.180	-0.520
2020/01/31 06:16:06.5	92.830	0.250	-0.260	-0.530
2020/01/31 06:16:06.6	92.840	0.280	-0.350	-0.540
2020/01/31 06:16:06.7	92.860	0.320	-0.430	-0.550
2020/01/31 06:16:06.8	92.880	0.350	-0.510	-0.560
2020/01/31 06:16:06.9	92.900	0.380	-0.590	-0.570
2020/01/31 06:16:07.0	92.930	0.420	-0.660	-0.580
2020/01/31 06:16:07.1	92.960	0.450	-0.730	-0.590
2020/01/31 06:16:07.2	92.990	0.470	-0.790	-0.600
2020/01/31 06:16:07.3	93.020	0.500	-0.840	-0.610
2020/01/31 06:16:07.4	93.060	0.520	-0.890	-0.620
2020/01/31 06:16:07.5	93.100	0.540	-0.920	-0.620
2020/01/31 06:16:07.6	93.140	0.560	-0.950	-0.630
2020/01/31 06:16:07.7	93.190	0.570	-0.970	-0.630
2020/01/31 06:16:07.8	93.230	0.590	-0.980	-0.620
2020/01/31 06:16:07.9	93.270	0.590	-0.980	-0.610
2020/01/31 06:16:08.0	93.320	0.600	-0.970	-0.600
2020/01/31 06:16:08.1	93.360	0.600	-0.950	-0.580
2020/01/31 06:16:08.2	93.400	0.600	-0.920	-0.560
2020/01/31 06:16:08.3	93.440	0.590	-0.880	-0.530
2020/01/31 06:16:08.4	93.480	0.580	-0.830	-0.490
2020/01/31 06:16:08.5	93.520	0.560	-0.780	-0.450
2020/01/31 06:16:08.6	93.550	0.550	-0.720	-0.410
2020/01/31 06:16:08.7	93.590	0.530	-0.650	-0.350
2020/01/31 06:16:08.8	93.620	0.500	-0.580	-0.290
2020/01/31 06:16:08.9	93.640	0.480	-0.500	-0.230
2020/01/31 06:16:09.0	93.670	0.450	-0.420	-0.160
2020/01/31 06:16:09.1	93.690	0.410	-0.340	-0.080
2020/01/31 06:16:09.2	93.710	0.380	-0.250	0.000
2020/01/31 06:16:09.3	93.720	0.340	-0.160	0.090
2020/01/31 06:16:09.4	93.730	0.310	-0.080	0.180
2020/01/31 06:16:09.5	93.740	0.270	0.010	0.280
2020/01/31 06:16:09.6	93.740	0.230	0.090	0.380
2020/01/31 06:16:09.7	93.740	0.190	0.170	0.490
2020/01/31 06:16:09.8	93.740	0.150	0.250	0.600
2020/01/31 06:16:09.9	93.730	0.110	0.320	0.710
2020/01/31 06:16:10.0	93.720	0.070	0.390	0.820
2020/01/31 06:16:10.1	93.710	0.030	0.450	0.930
2020/01/31 06:16:10.2	93.690	-0.010	0.510	1.050
2020/01/31 06:16:10.3	93.670	-0.050	0.560	1.170
2020/01/31 06:16:10.4	93.650	-0.090	0.610	1.290
2020/01/31 06:16:10.5	93.620	-0.120	0.650	1.400
2020/01/31 06:16:10.6	93.590	-0.150	0.680	1.520
2020/01/31 06:16:10.7	93.560	-0.190	0.700	1.640
2020/01/31 06:16:10.8	93.530	-0.210	0.720	1.750
2020/01/31 06:16:10.9	93.490	-0.240	0.730	1.870
2020/01/31 06:16:11.0	93.460	-0.270	0.740	1.980
2020/01/31 06:16:11.1	93.420	-0.290	0.740	2.090
2020/01/31 06:16:11.2	93.380	-0.310	0.730	2.200
2020/01/31 06:16:11.3	93.340	-0.330	0.710	2.300
2020/01/31 06:16:11.4	93.300	-0.340	0.690	2.400
2020/01/31 06:16:11.5	93.250	-0.350	0.660	2.500
2020/01/31 06:16:11.6	93.210	-0.360	0.630	2.590
2020/01/31 06:16:11.7	93.170	-0.370	0.590	2.670
2020/01/31 06:16:11.8	93.140	-0.370	0.540	2.760
2020/01/31 06:16:11.9	93.100	-0.370	0.490	2.830
2020/01/31 06:16:12.0	93.060	-0.370	0.440	2.900
2020/01/31 06:16:12.1	93.030	-0.370	0.390	2.970
2020/01/31 06:16:12.2	93.000	-0.360	0.330	3.020
2020/01/31 06:16:12.3	92.980	-0.360	0.260	3.070
2020/01/31 06:16:12.4	92.950	-0.350	0.200	3.110
2020/01/31 06:16:12.5	92.930	-0.340	0.130	3.150
2020/01/31 06:16:12.6	92.920	-0.320	0.060	3.180
2020/01/31 06:16:12.7	92.900	-0.310	-0.000	3.200
2020/01/31 06:16:12.8	92.900	-0.290	-0.070	3.210
2020/01/31 06:16:12.9	92.890	-0.280	-0.140	3.210
2020/01/31 06:16:13.0	92.890	-0.260	-0.210	3.210
2020/01/31 06:16:13.1	92.890	-0.240	-0.280	3.200
2020/01/31 06:16:13.2	92.900	-0.220	-0.350	3.170
2020/01/31 06:16:13.3	92.910	-0.200	-0.420	3.150
2020/01/31 06:16:13.4	92.930	-0.180	-0.490	3.110
2020/01/31 06:16:13.5	92.940	-0.150	-0.550	3.070
2020/01/31 06:16:13.6	92.960	-0.130	-0.610	3.020
2020/01/31 06:16:13.7	92.980	-0.110	-0.670	2.970
2020/01/31 06:16:13.8	93.010	-0.090	-0.720	2.900
2020/01/31 06:16:13.9	93.030	-0.070	-0.780	2.840
2020/01/31 06:16:14.0	93.060	-0.040	-0.820	2.770
2020/01/31 06:16:14.1	93.080	-0.020	-0.870	2.690
2020/01/31 06:16:14.2	93.110	-0.000	-0.910	2.620
2020/01/31 06:16:14.3	93.140	0.020	-0.940	2.530
2020/01/31 06:16:14.4	93.160	0.040	-0.970	2.450
2020/01/31 06:16:14.5	93.190	0.060	-1.000	2.360
2020/01/31 06:16:14.6	93.220	0.080	-1.020	2.270
2020/01/31 06:16:14.7	93.240	0.100	-1.040	2.180
2020/01/31 06:16:14.8	93.270	0.120	-1.050	2.090
2020/01/31 06:16:14.9	93.290	0.130	-1.050	2.000
2020/01/31 06:16:15.0	93.320	0.150	-1.050	1.910
2020/01/31 06:16:15.1	93.340	0.160	-1.040	1.810
2020/01/31 06:16:15.2	93.360	0.180	-1.030	1.710
2020/01/31 06:16:15.3	93.380	0.190	-1.010	1.620
2020/01/31 06:16:15.4	93.400	0.200	-0.990	1.520
2020/01/31 06:16:15.5	93.420	0.210	-0.960	1.430
2020/01/31 06:16:15.6	93.430	0.220	-0.930	1.330
2020/01/31 06:16:15.7	93.450	0.230	-0.890	1.240
2020/01/31 06:16:15.8	93.470	0.240	-0.850	1.150
2020/01/31 06:16:15.9	93.480	0.250	-0.810	1.060
2020/01/31 06:16:16.0	93.490	0.250	-0.760	0.970
2020/01/31 06:16:16.1	93.500	0.250	-0.710	0.880
2020/01/31 06:16:16.2	93.520	0.260	-0.650	0.800
2020/01/31 06:16:16.3	93.530	0.260	-0.600	0.710
2020/01/31 06:16:16.4	93.540	0.250	-0.540	0.630
2020/01/31 06:16:16.5	93.540	0.250	-0.470	0.560
2020/01/31 06:16:16.6	93.550	0.250	-0.410	0.480
2020/01/31 06:16:16.7	93.550	0.240	-0.350	0.410
2020/01/31 06:16:16.8	93.560	0.230	-0.290	0.350
2020/01/31 06:16:16.9	93.560	0.220	-0.220	0.290
2020/01/31 06:16:17.0	93.560	0.210	-0.160	0.230
2020/01/31 06:16:17.1	93.560	0.200	-0.100	0.180
2020/01/31 06:16:17.2	93.550	0.190	-0.040	0.120
2020/01/31 06:16:17.3	93.550	0.170	0.020	0.080
2020/01/31 06:16:17.4	93.540	0.150	0.080	0.030
2020/01/31 06:16:17.5	93.530	0.130	0.130	-0.010
2020/01/31 06:16:17.6	93.530	0.110	0.180	-0.040
2020/01/31 06:16:17.7	93.520	0.090	0.230	-0.070
2020/01/31 06:16:17.8	93.510	0.070	0.280	-0.100
2020/01/31 06:16:17.9	93.500	0.050	0.320	-0.130
2020/01/31 06:16:18.0	93.490	0.020	0.360	-0.150
2020/01/31 06:16:18.1	93.480	-0.010	0.390	-0.170
2020/01/31 06:16:18.2	93.460	-0.030	0.420	-0.180
2020/01/31 06:16:18.3	93.450	-0.060	0.440	-0.200
2020/01/31 06:16:18.4	93.440	-0.090	0.460	-0.210
2020/01/31 06:16:18.5	93.420	-0.120	0.480	-0.220
2020/01/31 06:16:18.6	93.410	-0.150	0.490	-0.230
2020/01/31 06:16:18.7	93.390	-0.180	0.500	-0.240
2020/01/31 06:16:18.8	93.370	-0.210	0.500	-0.250
2020/01/31 06:16:18.9	93.360	-0.240	0.500	-0.260
2020/01/31 06:16:19.0	93.340	-0.270	0.500	-0.260
2020/01/31 06:16:19.1	93.320	-0.290	0.490	-0.270
2020/01/31 06:16:19.2	93.300	-0.320	0.480	-0.270
2020/01/31 06:16:19.3	93.280	-0.350	0.460	-0.280
2020/01/31 06:16:19.4	93.260	-0.380	0.450	-0.280
2020/01/31 06:16:19.5	93.240	-0.400	0.430	-0.280
2020/01/31 06:16:19.6	93.230	-0.430	0.400	-0.290
2020/01/31 06:16:19.7	93.210	-0.450	0.380	-0.290
2020/01/31 06:16:19.8	93.200	-0.470	0.360	-0.290
2020/01/31 06:16:19.9	93.180	-0.490	0.330	-0.290
2020/01/31 06:16:20.0	93.170	-0.510	0.300	-0.290
2020/01/31 06:16:20.1	93.150	-0.520	0.270	-0.290
2020/01/31 06:16:20.2	93.140	-0.540	0.240	-0.290
2020/01/31 06:16:20.3	93.130	-0.550	0.220	-0.290
2020/01/31 06:16:20.4	93.120	-0.560	0.190	-0.290
2020/01/31 06:16:20.5	93.110	-0.570	0.160	-0.290
2020/01/31 06:16:20.6	93.100	-0.580	0.130	-0.290
2020/01/31 06:16:20.7	93.100	-0.590	0.110	-0.290
2020/01/31 06:16:20.8	93.090	-0.590	0.080	-0.280
2020/01/31 06:16:20.9	93.090	-0.590	0.050	-0.280
2020/01/31 06:16:21.0	93.090	-0.590	0.030	-0.270
2020/01/31 06:16:21.1	93.090	-0.590	0.000	-0.270
2020/01/31 06:16:21.2	93.090	-0.580	-0.020	-0.260
2020/01/31 06:16:21.3	93.100	-0.570	-0.040	-0.250
2020/01/31 06:16:21.4	93.100	-0.560	-0.070	-0.250
2020/01/31 06:16:21.5	93.110	-0.550	-0.090	-0.240
2020/01/31 06:16:21.6	93.120	-0.530	-0.120	-0.230
2020/01/31 06:16:21.7	93.140	-0.510	-0.140	-0.220
2020/01/31 06:16:21.8	93.150	-0.490	-0.170	-0.210
2020/01/31 06:16:21.9	93.170	-0.470	-0.200	-0.200
2020/01/31 06:16:22.0	93.180	-0.450	-0.220	-0.180
2020/01/31 06:16:22.1	93.200	-0.420	-0.250	-0.170
2020/01/31 06:16:22.2	93.230	-0.390	-0.280	-0.150
2020/01/31 06:16:22.3	93.250	-0.350	-0.310	-0.140
2020/01/31 06:16:22.4	93.270	-0.320	-0.340	-0.120
2020/01/31 06:16:22.5	93.290	-0.280	-0.370	-0.100
2020/01/31 06:16:22.6	93.320	-0.240	-0.400	-0.070
2020/01/31 06:16:22.7	93.340	-0.200	-0.440	-0.050
2020/01/31 06:16:22.8	93.370	-0.160	-0.470	-0.030
2020/01/31 06:16:22.9	93.390	-0.110	-0.510	0.000
2020/01/31 06:16:23.0	93.420	-0.070	-0.540	0.030
2020/01/31 06:16:23.1	93.440	-0.020	-0.570	0.070
2020/01/31 06:16:23.2	93.480	0.030	-0.610	0.100
2020/01/31 06:16:23.3	93.500	0.080	-0.640	0.140
2020/01/31 06:16:23.4	93.530	0.120	-0.670	0.180
2020/01/31 06:16:23.5	93.550	0.170	-0.700	0.220
2020/01/31 06:16:23.6	93.570	0.220	-0.720	0.270
2020/01/31 06:16:23.7	93.590	0.270	-0.750	0.320
2020/01/31 06:16:23.8	93.610	0.310	-0.770	0.370
2020/01/31 06:16:23.9	93.630	0.360	-0.790	0.420
2020/01/31 06:16:24.0	93.650	0.400	-0.800	0.470
2020/01/31 06:16:24.1	93.660	0.440	-0.820	0.530
2020/01/31 06:16:24.2	93.670	0.480	-0.820	0.590
2020/01/31 06:16:24.3	93.690	0.520	-0.820	0.650
2020/01/31 06:16:24.4	93.690	0.550	-0.820	0.710
2020/01/31 06:16:24.5	93.700	0.590	-0.820	0.780
2020/01/31 06:16:24.6	93.700	0.610	-0.810	0.840
2020/01/31 06:16:24.7	93.700	0.640	-0.790	0.910
2020/01/31 06:16:24.8	93.700	0.660	-0.770	0.970
2020/01/31 06:16:24.9	93.700	0.680	-0.750	1.040
2020/01/31 06:16:25.0	93.690	0.690	-0.720	1.110
2020/01/31 06:16:25.1	93.680	0.700	-0.690	1.180
2020/01/31 06:16:25.2	93.680	0.710	-0.650	1.240
2020/01/31 06:16:25.3	93.670	0.710	-0.610	1.310
2020/01/31 06:16:25.4	93.650	0.710	-0.560	1.380
2020/01/31 06:16:25.5	93.640	0.710	-0.510	1.440
2020/01/31 06:16:25.6	93.620	0.700	-0.460	1.510
2020/01/31 06:16:25.7	93.600	0.680	-0.400	1.570
2020/01/31 06:16:25.8	93.580	0.670	-0.340	1.630
2020/01/31 06:16:25.9	93.560	0.650	-0.270	1.680
2020/01/31 06:16:26.0	93.540	0.630	-0.210	1.740
2020/01/31 06:16:26.1	93.520	0.600	-0.140	1.790
2020/01/31 06:16:26.2	93.500	0.570	-0.070	1.840
2020/01/31 06:16:26.3	93.470	0.540	-0.000	1.890
2020/01/31 06:16:26.4	93.450	0.510	0.060	1.930
2020/01/31 06:16:26.5	93.430	0.480	0.130	1.970
2020/01/31 06:16:26.6	93.410	0.440	0.190	2.010
2020/01/31 06:16:26.7	93.390	0.410	0.260	2.040
2020/01/31 06:16:26.8	93.370	0.370	0.320	2.070
2020/01/31 06:16:26.9	93.360	0.330	0.370	2.090
2020/01/31 06:16:27.0	93.340	0.300	0.430	2.120
2020/01/31 06:16:27.1	93.320	0.260	0.480	2.130
2020/01/31 06:16:27.2	93.310	0.220	0.520	2.150
2020/01/31 06:16:27.3	93.290	0.190	0.560	2.160
2020/01/31 06:16:27.4	93.280	0.150	0.600	2.160
2020/01/31 06:16:27.5	93.270	0.120	0.630	2.160
2020/01/31 06:16:27.6	93.260	0.090	0.650	2.160
2020/01/31 06:16:27.7	93.240	0.060	0.660	2.150
2020/01/31 06:16:27.8	93.240	0.030	0.670	2.140
2020/01/31 06:16:27.9	93.230	0.000	0.670	2.120
2020/01/31 06:16:28.0	93.220	-0.020	0.670	2.100
2020/01/31 06:16:28.1	93.210	-0.040	0.660	2.070
2020/01/31 06:16:28.2	93.210	-0.050	0.640	2.040
2020/01/31 06:16:28.3	93.210	-0.070	0.610	2.010
2020/01/31 06:16:28.4	93.210	-0.080	0.580	1.970
2020/01/31 06:16:28.5	93.210	-0.090	0.540	1.920
2020/01/31 06:16:28.6	93.210	-0.100	0.490	1.870
2020/01/31 06:16:28.7	93.210	-0.100	0.440	1.820
2020/01/31 06:16:28.8	93.220	-0.100	0.380	1.760
2020/01/31 06:16:28.9	93.220	-0.100	0.320	1.710
2020/01/31 06:16:29.0	93.230	-0.100	0.250	1.640
2020/01/31 06:16:29.1	93.240	-0.090	0.190	1.580
2020/01/31 06:16:29.2	93.250	-0.080	0.110	1.510
2020/01/31 06:16:29.3	93.260	-0.080	0.040	1.440
2020/01/31 06:16:29.4	93.270	-0.070	-0.030	1.370
2020/01/31 06:16:29.5	93.290	-0.060	-0.110	1.290
2020/01/31 06:16:29.6	93.300	-0.050	-0.190	1.220
2020/01/31 06:16:29.7	93.310	-0.040	-0.260	1.150
2020/01/31 06:16:29.8	93.330	-0.030	-0.330	1.070
2020/01/31 06:16:29.9	93.350	-0.020	-0.400	1.000
2020/01/31 06:16:30.0	93.360	-0.010	-0.470	0.930
2020/01/31 06:16:30.1	93.380	0.000	-0.530	0.850
2020/01/31 06:16:30.2	93.390	0.010	-0.590	0.780
2020/01/31 06:16:30.3	93.400	0.010	-0.640	0.710
2020/01/31 06:16:30.4	93.420	0.020	-0.690	0.640
2020/01/31 06:16:30.5	93.430	0.020	-0.730	0.580
2020/01/31 06:16:30.6	93.440	0.020	-0.770	0.510
2020/01/31 06:16:30.7	93.450	0.020	-0.800	0.450
2020/01/31 06:16:30.8	93.470	0.020	-0.820	0.400
2020/01/31 06:16:30.9	93.470	0.020	-0.840	0.350
2020/01/31 06:16:31.0	93.480	0.010	-0.850	0.300
2020/01/31 06:16:31.1	93.490	-0.000	-0.860	0.260
2020/01/31 06:16:31.2	93.500	-0.010	-0.850	0.220
2020/01/31 06:16:31.3	93.500	-0.020	-0.850	0.190
2020/01/31 06:16:31.4	93.510	-0.040	-0.830	0.160
2020/01/31 06:16:31.5	93.510	-0.060	-0.810	0.130
2020/01/31 06:16:31.6	93.510	-0.070	-0.790	0.110
2020/01/31 06:16:31.7	93.510	-0.090	-0.760	0.100
2020/01/31 06:16:31.8	93.510	-0.120	-0.720	0.090
2020/01/31 06:16:31.9	93.510	-0.140	-0.680	0.080
2020/01/31 06:16:32.0	93.510	-0.160	-0.640	0.080
2020/01/31 06:16:32.1	93.510	-0.190	-0.600	0.080
2020/01/31 06:16:32.2	93.510	-0.210	-0.550	0.090
2020/01/31 06:16:32.3	93.510	-0.240	-0.490	0.100
2020/01/31 06:16:32.4	93.510	-0.260	-0.440	0.110
2020/01/31 06:16:32.5	93.500	-0.290	-0.390	0.130
2020/01/31 06:16:32.6	93.500	-0.310	-0.330	0.150
2020/01/31 06:16:32.7	93.500	-0.340	-0.280	0.170
2020/01/31 06:16:32.8	93.490	-0.360	-0.230	0.200
2020/01/31 06:16:32.9	93.490	-0.380	-0.170	0.220
2020/01/31 06:16:33.0	93.490	-0.400	-0.130	0.250
2020/01/31 06:16:33.1	93.480	-0.420	-0.080	0.280
2020/01/31 06:16:33.2	93.490	-0.440	-0.030	0.320
2020/01/31 06:16:33.3	93.480	-0.450	0.010	0.350
2020/01/31 06:16:33.4	93.480	-0.460	0.050	0.380
2020/01/31 06:16:33.5	93.470	-0.470	0.080	0.420
2020/01/31 06:16:33.6	93.470	-0.480	0.110	0.450
2020/01/31 06:16:33.7	93.470	-0.480	0.130	0.480
2020/01/31 06:16:33.8	93.460	-0.480	0.150	0.510
2020/01/31 06:16:33.9	93.460	-0.480	0.160	0.550
2020/01/31 06:16:34.0	93.460	-0.470	0.170	0.580
2020/01/31 06:16:34.1	93.450	-0.460	0.180	0.610
2020/01/31 06:16:34.2	93.450	-0.450	0.180	0.630
2020/01/31 06:16:34.3	93.450	-0.430	0.170	0.660
2020/01/31 06:16:34.4	93.450	-0.410	0.160	0.690
2020/01/31 06:16:34.5	93.440	-0.390	0.150	0.720
2020/01/31 06:16:34.6	93.440	-0.370	0.130	0.750
2020/01/31 06:16:34.7	93.440	-0.340	0.110	0.770
2020/01/31 06:16:34.8	93.440	-0.310	0.090	0.790
2020/01/31 06:16:34.9	93.440	-0.280	0.060	0.820
2020/01/31 06:16:35.0	93.440	-0.250	0.030	0.840
2020/01/31 06:16:35.1	93.440	-0.220	0.000	0.850
2020/01/31 06:16:35.2	93.440	-0.190	-0.030	0.880
2020/01/31 06:16:35.3	93.440	-0.150	-0.060	0.890
2020/01/31 06:16:35.4	93.450	-0.120	-0.090	0.910
2020/01/31 06:16:35.5	93.450	-0.090	-0.120	0.920
2020/01/31 06:16:35.6	93.450	-0.050	-0.150	0.930
2020/01/31 06:16:35.7	93.460	-0.020	-0.180	0.940
2020/01/31 06:16:35.8	93.460	0.010	-0.210	0.940
2020/01/31 06:16:35.9	93.470	0.040	-0.230	0.950
2020/01/31 06:16:36.0	93.480	0.070	-0.260	0.960
2020/01/31 06:16:36.1	93.480	0.090	-0.280	0.960
2020/01/31 06:16:36.2	93.490	0.120	-0.290	0.960
2020/01/31 06:16:36.3	93.490	0.140	-0.310	0.960
2020/01/31 06:16:36.4	93.500	0.160	-0.320	0.960
2020/01/31 06:16:36.5	93.500	0.170	-0.320	0.960
2020/01/31 06:16:36.6	93.510	0.190	-0.320	0.960
2020/01/31 06:16:36.7	93.510	0.200	-0.320	0.960
2020/01/31 06:16:36.8	93.510	0.210	-0.320	0.950
2020/01/31 06:16:36.9	93.520	0.220	-0.310	0.950
2020/01/31 06:16:37.0	93.520	0.220	-0.300	0.940
2020/01/31 06:16:37.1	93.520	0.220	-0.280	0.940
2020/01/31 06:16:37.2	93.520	0.220	-0.270	0.920
2020/01/31 06:16:37.3	93.520	0.220	-0.250	0.920
2020/01/31 06:16:37.4	93.520	0.210	-0.220	0.900
2020/01/31 06:16:37.5	93.530	0.210	-0.200	0.890
2020/01/31 06:16:37.6	93.530	0.200	-0.170	0.880
2020/01/31 06:16:37.7	93.520	0.190	-0.150	0.860
2020/01/31 06:16:37.8	93.520	0.180	-0.120	0.840
2020/01/31 06:16:37.9	93.520	0.170	-0.090	0.830
2020/01/31 06:16:38.0	93.520	0.160	-0.060	0.810
2020/01/31 06:16:38.1	93.520	0.140	-0.030	0.780
2020/01/31 06:16:38.2	93.520	0.130	0.000	0.760
2020/01/31 06:16:38.3	93.520	0.120	0.030	0.740
2020/01/31 06:16:38.4	93.520	0.110	0.060	0.710
2020/01/31 06:16:38.5	93.530	0.100	0.090	0.690
2020/01/31 06:16:38.6	93.530	0.080	0.110	0.660
2020/01/31 06:16:38.7	93.530	0.070	0.130	0.640
2020/01/31 06:16:38.8	93.530	0.060	0.150	0.610
2020/01/31 06:16:38.9	93.540	0.050	0.170	0.580
2020/01/31 06:16:39.0	93.540	0.050	0.180	0.560
2020/01/31 06:16:39.1	93.550	0.040	0.200	0.530
2020/01/31 06:16:39.2	93.550	0.030	0.200	0.510
2020/01/31 06:16:39.3	93.560	0.030	0.210	0.490
2020/01/31 06:16:39.4	93.570	0.020	0.210	0.470
2020/01/31 06:16:39.5	93.580	0.020	0.210	0.450
2020/01/31 06:16:39.6	93.580	0.020	0.200	0.430
2020/01/31 06:16:39.7	93.590	0.020	0.190	0.420
2020/01/31 06:16:39.8	93.600	0.020	0.180	0.410
2020/01/31 06:16:39.9	93.610	0.020	0.170	0.400
2020/01/31 06:16:40.0	93.620	0.020	0.150	0.400
2020/01/31 06:16:40.1	93.630	0.020	0.130	0.390
2020/01/31 06:16:40.2	93.640	0.030	0.110	0.400
2020/01/31 06:16:40.3	93.650	0.030	0.080	0.400
2020/01/31 06:16:40.4	93.670	0.040	0.050	0.410
2020/01/31 06:16:40.5	93.680	0.040	0.020	0.410
2020/01/31 06:16:40.6	93.690	0.050	-0.010	0.430
2020/01/31 06:16:40.7	93.700	0.050	-0.050	0.440
2020/01/31 06:16:40.8	93.710	0.060	-0.080	0.450
2020/01/31 06:16:40.9	93.720	0.060	-0.120	0.470
2020/01/31 06:16:41.0	93.730	0.070	-0.160	0.490
2020/01/31 06:16:41.1	93.740	0.070	-0.190	0.510
2020/01/31 06:16:41.2	93.750	0.080	-0.230	0.540
2020/01/31 06:16:41.3	93.760	0.080	-0.270	0.560
2020/01/31 06:16:41.4	93.760	0.080	-0.300	0.590
2020/01/31 06:16:41.5	93.770	0.080	-0.330	0.610
2020/01/31 06:16:41.6	93.770	0.080	-0.360	0.640
2020/01/31 06:16:41.7	93.770	0.080	-0.390	0.670
2020/01/31 06:16:41.8	93.780	0.080	-0.420	0.690
2020/01/31 06:16:41.9	93.780	0.070	-0.440	0.720
2020/01/31 06:16:42.0	93.780	0.070	-0.470	0.750
2020/01/31 06:16:42.1	93.780	0.060	-0.480	0.770
2020/01/31 06:16:42.2	93.780	0.050	-0.500	0.800
2020/01/31 06:16:42.3	93.770	0.040	-0.510	0.830
2020/01/31 06:16:42.4	93.770	0.030	-0.520	0.850
2020/01/31 06:16:42.5	93.770	0.020	-0.520	0.870
2020/01/31 06:16:42.6	93.760	0.010	-0.530	0.900
2020/01/31 06:16:42.7	93.760	-0.000	-0.530	0.920
2020/01/31 06:16:42.8	93.750	-0.010	-0.520	0.940
2020/01/31 06:16:42.9	93.750	-0.030	-0.520	0.960
2020/01/31 06:16:43.0	93.740	-0.040	-0.510	0.970
2020/01/31 06:16:43.1	93.730	-0.050	-0.500	0.990
2020/01/31 06:16:43.2	93.720	-0.060	-0.480	1.000
2020/01/31 06:16:43.3	93.720	-0.070	-0.460	1.010
2020/01/31 06:16:43.4	93.720	-0.080	-0.450	1.020
2020/01/31 06:16:43.5	93.710	-0.090	-0.430	1.030
2020/01/31 06:16:43.6	93.710	-0.100	-0.410	1.040
2020/01/31 06:16:43.7	93.710	-0.110	-0.390	1.040
2020/01/31 06:16:43.8	93.710	-0.110	-0.370	1.050
2020/01/31 06:16:43.9	93.700	-0.110	-0.340	1.050
2020/01/31 06:16:44.0	93.700	-0.110	-0.320	1.060
2020/01/31 06:16:44.1	93.700	-0.110	-0.300	1.060
2020/01/31 06:16:44.2	93.700	-0.110	-0.280	1.060
2020/01/31 06:16:44.3	93.700	-0.100	-0.260	1.070
2020/01/31 06:16:44.4	93.690	-0.090	-0.250	1.080
2020/01/31 06:16:44.5	93.690	-0.080	-0.230	1.080
2020/01/31 06:16:44.6	93.690	-0.070	-0.210	1.090
2020/01/31 06:16:44.7	93.680	-0.050	-0.200	1.100
2020/01/31 06:16:44.8	93.680	-0.030	-0.190	1.100
2020/01/31 06:16:44.9	93.670	-0.010	-0.180	1.110
2020/01/31 06:16:45.0	93.670	0.010	-0.170	1.120
2020/01/31 06:16:45.1	93.660	0.030	-0.170	1.130
2020/01/31 06:16:45.2	93.660	0.060	-0.160	1.150
2020/01/31 06:16:45.3	93.650	0.080	-0.160	1.160
2020/01/31 06:16:45.4	93.640	0.110	-0.160	1.170
2020/01/31 06:16:45.5	93.630	0.140	-0.170	1.180
2020/01/31 06:16:45.6	93.620	0.170	-0.170	1.190
2020/01/31 06:16:45.7	93.610	0.200	-0.180	1.200
2020/01/31 06:16:45.8	93.600	0.230	-0.190	1.210
2020/01/31 06:16:45.9	93.590	0.260	-0.200	1.220
2020/01/31 06:16:46.0	93.580	0.290	-0.220	1.220
2020/01/31 06:16:46.1	93.570	0.320	-0.230	1.230
2020/01/31 06:16:46.2	93.570	0.350	-0.250	1.230
2020/01/31 06:16:46.3	93.560	0.380	-0.270	1.230
2020/01/31 06:16:46.4	93.550	0.400	-0.290	1.230
2020/01/31 06:16:46.5	93.550	0.430	-0.310	1.220
2020/01/31 06:16:46.6	93.540	0.450	-0.330	1.210
2020/01/31 06:16:46.7	93.540	0.470	-0.350	1.200
2020/01/31 06:16:46.8	93.540	0.490	-0.360	1.190
2020/01/31 06:16:46.9	93.540	0.510	-0.380	1.170
2020/01/31 06:16:47.0	93.540	0.520	-0.400	1.150
2020/01/31 06:16:47.1	93.540	0.530	-0.410	1.130
2020/01/31 06:16:47.2	93.540	0.540	-0.420	1.100
2020/01/31 06:16:47.3	93.550	0.540	-0.430	1.080
2020/01/31 06:16:47.4	93.550	0.540	-0.440	1.050
2020/01/31 06:16:47.5	93.560	0.540	-0.450	1.030
2020/01/31 06:16:47.6	93.570	0.530	-0.450	1.000
2020/01/31 06:16:47.7	93.580	0.520	-0.450	0.970
2020/01/31 06:16:47.8	93.590	0.510	-0.440	0.940
2020/01/31 06:16:47.9	93.600	0.490	-0.430	0.910
2020/01/31 06:16:48.0	93.620	0.470	-0.410	0.880
2020/01/31 06:16:48.1	93.630	0.450	-0.390	0.850
2020/01/31 06:16:48.2	93.650	0.420	-0.370	0.830
2020/01/31 06:16:48.3	93.660	0.390	-0.340	0.800
2020/01/31 06:16:48.4	93.680	0.350	-0.310	0.770
2020/01/31 06:16:48.5	93.690	0.310	-0.270	0.740
2020/01/31 06:16:48.6	93.710	0.270	-0.230	0.720
2020/01/31 06:16:48.7	93.720	0.230	-0.180	0.690
2020/01/31 06:16:48.8	93.740	0.180	-0.130	0.670
2020/01/31 06:16:48.9	93.760	0.130	-0.080	0.650
2020/01/31 06:16:49.0	93.770	0.090	-0.030	0.630
2020/01/31 06:16:49.1	93.790	0.030	0.030	0.610
2020/01/31 06:16:49.2	93.800	-0.020	0.080	0.590
2020/01/31 06:16:49.3	93.820	-0.070	0.140	0.570
2020/01/31 06:16:49.4	93.840	-0.120	0.200	0.560
2020/01/31 06:16:49.5	93.850	-0.170	0.250	0.540
2020/01/31 06:16:49.6	93.870	-0.230	0.310	0.530
2020/01/31 06:16:49.7	93.890	-0.280	0.370	0.520
2020/01/31 06:16:49.8	93.900	-0.330	0.420	0.510
2020/01/31 06:16:49.9	93.920	-0.380	0.470	0.500
2020/01/31 06:16:50.0	93.930	-0.420	0.520	0.500
2020/01/31 06:16:50.1	93.940	-0.470	0.560	0.490
2020/01/31 06:16:50.2	93.960	-0.510	0.610	0.490
2020/01/31 06:16:50.3	93.970	-0.550	0.650	0.490
2020/01/31 06:16:50.4	93.980	-0.590	0.680	0.480
2020/01/31 06:16:50.5	93.990	-0.620	0.700	0.480
2020/01/31 06:16:50.6	94.000	-0.650	0.730	0.490
2020/01/31 06:16:50.7	94.010	-0.680	0.740	0.490
2020/01/31 06:16:50.8	94.030	-0.700	0.750	0.490
2020/01/31 06:16:50.9	94.040	-0.720	0.750	0.490
2020/01/31 06:16:51.0	94.050	-0.740	0.750	0.500
2020/01/31 06:16:51.1	94.050	-0.750	0.740	0.500
2020/01/31 06:16:51.2	94.060	-0.760	0.730	0.510
2020/01/31 06:16:51.3	94.070	-0.760	0.710	0.520
2020/01/31 06:16:51.4	94.080	-0.760	0.680	0.520
2020/01/31 06:16:51.5	94.080	-0.760	0.650	0.530
2020/01/31 06:16:51.6	94.090	-0.750	0.610	0.540
2020/01/31 06:16:51.7	94.090	-0.740	0.560	0.550
2020/01/31 06:16:51.8	94.090	-0.720	0.510	0.570
2020/01/31 06:16:51.9	94.090	-0.700	0.460	0.580
2020/01/31 06:16:52.0	94.090	-0.680	0.400	0.590
2020/01/31 06:16:52.1	94.090	-0.660	0.340	0.610
2020/01/31 06:16:52.2	94.100	-0.630	0.270	0.620
2020/01/31 06:16:52.3	94.100	-0.600	0.200	0.640
2020/01/31 06:16:52.4	94.090	-0.570	0.130	0.650
2020/01/31 06:16:52.5	94.090	-0.540	0.060	0.670
2020/01/31 06:16:52.6	94.090	-0.510	-0.020	0.690
2020/01/31 06:16:52.7	94.090	-0.480	-0.100	0.700
2020/01/31 06:16:52.8	94.090	-0.440	-0.170	0.720
2020/01/31 06:16:52.9	94.080	-0.410	-0.250	0.740
2020/01/31 06:16:53.0	94.080	-0.370	-0.330	0.750
2020/01/31 06:16:53.1	94.080	-0.330	-0.410	0.770
2020/01/31 06:16:53.2	94.080	-0.300	-0.480	0.790
2020/01/31 06:16:53.3	94.070	-0.260	-0.560	0.800
2020/01/31 06:16:53.4	94.070	-0.230	-0.630	0.820
2020/01/31 06:16:53.5	94.070	-0.200	-0.700	0.840
2020/01/31 06:16:53.6	94.060	-0.160	-0.760	0.850
2020/01/31 06:16:53.7	94.060	-0.130	-0.820	0.870
2020/01/31 06:16:53.8	94.050	-0.100	-0.880	0.890
2020/01/31 06:16:53.9	94.050	-0.070	-0.940	0.900
2020/01/31 06:16:54.0	94.040	-0.040	-0.990	0.920
2020/01/31 06:16:54.1	94.040	-0.010	-1.030	0.940
2020/01/31 06:16:54.2	94.030	0.020	-1.070	0.960
2020/01/31 06:16:54.3	94.030	0.050	-1.110	0.980
2020/01/31 06:16:54.4	94.020	0.070	-1.140	0.990
2020/01/31 06:16:54.5	94.010	0.100	-1.160	1.010
2020/01/31 06:16:54.6	94.000	0.120	-1.180	1.030
2020/01/31 06:16:54.7	93.990	0.150	-1.200	1.050
2020/01/31 06:16:54.8	93.980	0.170	-1.210	1.070
2020/01/31 06:16:54.9	93.970	0.190	-1.210	1.100
2020/01/31 06:16:55.0	93.960	0.210	-1.210	1.110
2020/01/31 06:16:55.1	93.950	0.230	-1.200	1.130
2020/01/31 06:16:55.2	93.940	0.250	-1.180	1.160
2020/01/31 06:16:55.3	93.930	0.270	-1.170	1.170
2020/01/31 06:16:55.4	93.910	0.290	-1.140	1.190
2020/01/31 06:16:55.5	93.900	0.310	-1.110	1.210
2020/01/31 06:16:55.6	93.880	0.320	-1.080	1.220
2020/01/31 06:16:55.7	93.860	0.340	-1.040	1.230
2020/01/31 06:16:55.8	93.850	0.350	-1.000	1.240
2020/01/31 06:16:55.9	93.830	0.370	-0.950	1.250
2020/01/31 06:16:56.0	93.820	0.380	-0.900	1.250
2020/01/31 06:16:56.1	93.800	0.390	-0.850	1.250
2020/01/31 06:16:56.2	93.790	0.400	-0.780	1.260
2020/01/31 06:16:56.3	93.780	0.410	-0.720	1.250
2020/01/31 06:16:56.4	93.770	0.420	-0.660	1.250
2020/01/31 06:16:56.5	93.760	0.420	-0.590	1.240
2020/01/31 06:16:56.6	93.750	0.420	-0.510	1.230
2020/01/31 06:16:56.7	93.740	0.430	-0.440	1.220
2020/01/31 06:16:56.8	93.730	0.430	-0.360	1.200
2020/01/31 06:16:56.9	93.730	0.430	-0.280	1.180
2020/01/31 06:16:57.0	93.720	0.420	-0.200	1.160
2020/01/31 06:16:57.1	93.720	0.420	-0.120	1.140
2020/01/31 06:16:57.2	93.720	0.410	-0.040	1.110
2020/01/31 06:16:57.3	93.720	0.400	0.040	1.090
2020/01/31 06:16:57.4	93.720	0.390	0.120	1.060
2020/01/31 06:16:57.5	93.720	0.380	0.200	1.030
2020/01/31 06:16:57.6	93.720	0.370	0.270	1.000
2020/01/31 06:16:57.7	93.730	0.360	0.350	0.960
2020/01/31 06:16:57.8	93.730	0.340	0.420	0.930
2020/01/31 06:16:57.9	93.740	0.330	0.490	0.900
2020/01/31 06:16:58.0	93.750	0.310	0.550	0.860
2020/01/31 06:16:58.1	93.760	0.290	0.610	0.830
2020/01/31 06:16:58.2	93.770	0.270	0.660	0.790
2020/01/31 06:16:58.3	93.790	0.250	0.710	0.750
2020/01/31 06:16:58.4	93.810	0.240	0.750	0.710
2020/01/31 06:16:58.5	93.820	0.220	0.780	0.680
2020/01/31 06:16:58.6	93.840	0.200	0.810	0.640
2020/01/31 06:16:58.7	93.860	0.180	0.830	0.590
2020/01/31 06:16:58.8	93.880	0.160	0.840	0.550
2020/01/31 06:16:58.9	93.900	0.140	0.850	0.510
2020/01/31 06:16:59.0	93.930	0.130	0.840	0.470
2020/01/31 06:16:59.1	93.950	0.110	0.830	0.430
2020/01/31 06:16:59.2	93.970	0.090	0.810	0.390
2020/01/31 06:16:59.3	93.990	0.080	0.780	0.350
2020/01/31 06:16:59.4	94.010	0.070	0.750	0.320
2020/01/31 06:16:59.5	94.030	0.060	0.700	0.280
2020/01/31 06:16:59.6	94.050	0.050	0.660	0.250
2020/01/31 06:16:59.7	94.070	0.040	0.600	0.220
2020/01/31 06:16:59.8	94.080	0.040	0.540	0.190
2020/01/31 06:16:59.9	94.090	0.030	0.470	0.170
2020/01/31 06:17:00.0	94.100	0.030	0.400	0.150
2020/01/31 06:17:00.1	94.110	0.030	0.330	0.130
2020/01/31 06:17:00.2	94.110	0.030	0.250	0.110
2020/01/31 06:17:00.3	94.110	0.030	0.170	0.100
2020/01/31 06:17:00.4	94.110	0.030	0.090	0.090
2020/01/31 06:17:00.5	94.110	0.040	0.000	0.090
2020/01/31 06:17:00.6	94.100	0.040	-0.080	0.090
2020/01/31 06:17:00.7	94.100	0.050	-0.170	0.100
2020/01/31 06:17:00.8	94.080	0.060	-0.250	0.100
2020/01/31 06:17:00.9	94.070	0.070	-0.340	0.110
2020/01/31 06:17:01.0	94.060	0.080	-0.420	0.130
2020/01/31 06:17:01.1	94.040	0.090	-0.490	0.140
2020/01/31 06:17:01.2	94.030	0.100	-0.570	0.160
2020/01/31 06:17:01.3	94.010	0.100	-0.640	0.180
2020/01/31 06:17:01.4	93.990	0.110	-0.700	0.200
2020/01/31 06:17:01.5	93.970	0.120	-0.760	0.230
2020/01/31 06:17:01.6	93.950	0.130	-0.820	0.250
2020/01/31 06:17:01.7	93.930	0.130	-0.870	0.280
2020/01/31 06:17:01.8	93.920	0.140	-0.910	0.300
2020/01/31 06:17:01.9	93.900	0.140	-0.940	0.330
2020/01/31 06:17:02.0	93.890	0.140	-0.960	0.360
2020/01/31 06:17:02.1	93.880	0.140	-0.980	0.390
2020/01/31 06:17:02.2	93.880	0.140	-0.990	0.410
2020/01/31 06:17:02.3	93.870	0.140	-0.990	0.440
2020/01/31 06:17:02.4	93.860	0.140	-0.980	0.480
2020/01/31 06:17:02.5	93.860	0.130	-0.970	0.510
2020/01/31 06:17:02.6	93.850	0.120	-0.950	0.540
2020/01/31 06:17:02.7	93.850	0.110	-0.920	0.580
2020/01/31 06:17:02.8	93.850	0.100	-0.880	0.610
2020/01/31 06:17:02.9	93.860	0.080	-0.840	0.640
2020/01/31 06:17:03.0	93.860	0.070	-0.780	0.680
2020/01/31 06:17:03.1	93.870	0.050	-0.730	0.720
2020/01/31 06:17:03.2	93.880	0.030	-0.660	0.760
2020/01/31 06:17:03.3	93.880	0.010	-0.600	0.790
2020/01/31 06:17:03.4	93.890	-0.010	-0.530	0.830
2020/01/31 06:17:03.5	93.900	-0.030	-0.450	0.870
2020/01/31 06:17:03.6	93.910	-0.060	-0.370	0.910
2020/01/31 06:17:03.7	93.920	-0.080	-0.290	0.950
2020/01/31 06:17:03.8	93.930	-0.110	-0.220	0.990
2020/01/31 06:17:03.9	93.940	-0.130	-0.130	1.020
2020/01/31 06:17:04.0	93.950	-0.160	-0.050	1.060
2020/01/31 06:17:04.1	93.970	-0.180	0.020	1.100
2020/01/31 06:17:04.2	93.980	-0.210	0.100	1.140
2020/01/31 06:17:04.3	93.990	-0.230	0.170	1.170
2020/01/31 06:17:04.4	94.000	-0.260	0.240	1.210
2020/01/31 06:17:04.5	94.010	-0.280	0.310	1.250
2020/01/31 06:17:04.6	94.020	-0.300	0.370	1.280
2020/01/31 06:17:04.7	94.030	-0.320	0.420	1.320
2020/01/31 06:17:04.8	94.040	-0.340	0.470	1.350
2020/01/31 06:17:04.9	94.050	-0.360	0.510	1.380
2020/01/31 06:17:05.0	94.060	-0.380	0.540	1.410
2020/01/31 06:17:05.1	94.080	-0.390	0.570	1.440
2020/01/31 06:17:05.2	94.090	-0.400	0.600	1.470
2020/01/31 06:17:05.3	94.100	-0.410	0.610	1.490
2020/01/31 06:17:05.4	94.110	-0.420	0.610	1.520
2020/01/31 06:17:05.5	94.120	-0.420	0.610	1.540
2020/01/31 06:17:05.6	94.130	-0.420	0.600	1.550
2020/01/31 06:17:05.7	94.140	-0.420	0.580	1.570
2020/01/31 06:17:05.8	94.150	-0.420	0.550	1.580
2020/01/31 06:17:05.9	94.160	-0.420	0.520	1.600
2020/01/31 06:17:06.0	94.160	-0.410	0.480	1.610
2020/01/31 06:17:06.1	94.170	-0.400	0.440	1.610
2020/01/31 06:17:06.2	94.180	-0.390	0.390	1.620
2020/01/31 06:17:06.3	94.180	-0.370	0.330	1.620
2020/01/31 06:17:06.4	94.190	-0.360	0.270	1.620
2020/01/31 06:17:06.5	94.190	-0.340	0.210	1.630
2020/01/31 06:17:06.6	94.200	-0.320	0.150	1.630
2020/01/31 06:17:06.7	94.200	-0.310	0.080	1.620
2020/01/31 06:17:06.8	94.200	-0.280	0.010	1.620
2020/01/31 06:17:06.9	94.200	-0.260	-0.060	1.620
2020/01/31 06:17:07.0	94.200	-0.240	-0.130	1.610
2020/01/31 06:17:07.1	94.200	-0.220	-0.200	1.610
2020/01/31 06:17:07.2	94.200	-0.200	-0.260	1.600
2020/01/31 06:17:07.3	94.200	-0.180	-0.330	1.590
2020/01/31 06:17:07.4	94.190	-0.150	-0.390	1.580
2020/01/31 06:17:07.5	94.190	-0.130	-0.450	1.560
2020/01/31 06:17:07.6	94.190	-0.110	-0.510	1.550
2020/01/31 06:17:07.7	94.190	-0.090	-0.560	1.540
2020/01/31 06:17:07.8	94.180	-0.070	-0.610	1.520
2020/01/31 06:17:07.9	94.180	-0.050	-0.660	1.500
2020/01/31 06:17:08.0	94.180	-0.040	-0.700	1.480
2020/01/31 06:17:08.1	94.170	-0.020	-0.730	1.460
2020/01/31 06:17:08.2	94.170	-0.010	-0.760	1.440
2020/01/31 06:17:08.3	94.170	0.010	-0.780	1.420
2020/01/31 06:17:08.4	94.170	0.020	-0.800	1.390
2020/01/31 06:17:08.5	94.170	0.030	-0.810	1.370
2020/01/31 06:17:08.6	94.170	0.040	-0.810	1.340
2020/01/31 06:17:08.7	94.170	0.050	-0.810	1.320
2020/01/31 06:17:08.8	94.170	0.050	-0.810	1.290
2020/01/31 06:17:08.9	94.170	0.060	-0.800	1.270
2020/01/31 06:17:09.0	94.170	0.060	-0.780	1.240
2020/01/31 06:17:09.1	94.180	0.070	-0.760	1.220
2020/01/31 06:17:09.2	94.180	0.070	-0.740	1.190
2020/01/31 06:17:09.3	94.180	0.070	-0.710	1.170
2020/01/31 06:17:09.4	94.180	0.070	-0.670	1.150
2020/01/31 06:17:09.5	94.180	0.070	-0.640	1.130
2020/01/31 06:17:09.6	94.170	0.070	-0.590	1.100
2020/01/31 06:17:09.7	94.170	0.070	-0.550	1.080
2020/01/31 06:17:09.8	94.170	0.070	-0.510	1.060
2020/01/31 06:17:09.9	94.160	0.070	-0.460	1.040
2020/01/31 06:17:10.0	94.150	0.070	-0.410	1.020
2020/01/31 06:17:10.1	94.140	0.070	-0.360	1.000
2020/01/31 06:17:10.2	94.140	0.070	-0.310	0.980
2020/01/31 06:17:10.3	94.120	0.070	-0.270	0.960
2020/01/31 06:17:10.4	94.110	0.060	-0.220	0.940
2020/01/31 06:17:10.5	94.100	0.060	-0.170	0.910
2020/01/31 06:17:10.6	94.090	0.060	-0.130	0.890
2020/01/31 06:17:10.7	94.070	0.060	-0.090	0.860
2020/01/31 06:17:10.8	94.060	0.070	-0.050	0.830
2020/01/31 06:17:10.9	94.050	0.070	-0.020	0.800
2020/01/31 06:17:11.0	94.030	0.070	0.020	0.770
2020/01/31 06:17:11.1	94.020	0.070	0.050	0.730
2020/01/31 06:17:11.2	94.000	0.070	0.070	0.700
2020/01/31 06:17:11.3	93.980	0.080	0.100	0.670
2020/01/31 06:17:11.4	93.970	0.080	0.120	0.630
2020/01/31 06:17:11.5	93.950	0.080	0.140	0.590
2020/01/31 06:17:11.6	93.940	0.090	0.150	0.550
2020/01/31 06:17:11.7	93.920	0.090	0.160	0.510
2020/01/31 06:17:11.8	93.910	0.090	0.170	0.470
2020/01/31 06:17:11.9	93.890	0.100	0.180	0.430
2020/01/31 06:17:12.0	93.880	0.100	0.180	0.390
2020/01/31 06:17:12.1	93.860	0.100	0.180	0.350
2020/01/31 06:17:12.2	93.850	0.100	0.180	0.310
2020/01/31 06:17:12.3	93.840	0.100	0.180	0.270
2020/01/31 06:17:12.4	93.830	0.100	0.170	0.230
2020/01/31 06:17:12.5	93.810	0.100	0.160	0.190
2020/01/31 06:17:12.6	93.800	0.100	0.150	0.160
2020/01/31 06:17:12.7	93.790	0.100	0.140	0.120
2020/01/31 06:17:12.8	93.780	0.100	0.130	0.090
2020/01/31 06:17:12.9	93.770	0.100	0.120	0.060
2020/01/31 06:17:13.0	93.770	0.090	0.100	0.030
2020/01/31 06:17:13.1	93.760	0.090	0.090	0.000
2020/01/31 06:17:13.2	93.750	0.080	0.070	-0.020
2020/01/31 06:17:13.3	93.750	0.070	0.050	-0.040
2020/01/31 06:17:13.4	93.750	0.070	0.040	-0.070
2020/01/31 06:17:13.5	93.750	0.060	0.020	-0.080
2020/01/31 06:17:13.6	93.750	0.050	0.000	-0.100
2020/01/31 06:17:13.7	93.750	0.040	-0.020	-0.120
2020/01/31 06:17:13.8	93.760	0.030	-0.030	-0.130
2020/01/31 06:17:13.9	93.760	0.030	-0.050	-0.140
2020/01/31 06:17:14.0	93.770	0.020	-0.060	-0.160
2020/01/31 06:17:14.1	93.780	0.010	-0.080	-0.160
2020/01/31 06:17:14.2	93.800	-0.000	-0.100	-0.170
2020/01/31 06:17:14.3	93.810	-0.010	-0.110	-0.180
2020/01/31 06:17:14.4	93.820	-0.020	-0.120	-0.180
2020/01/31 06:17:14.5	93.840	-0.020	-0.140	-0.190
2020/01/31 06:17:14.6	93.860	-0.030	-0.150	-0.190
2020/01/31 06:17:14.7	93.880	-0.030	-0.170	-0.190
2020/01/31 06:17:14.8	93.900	-0.030	-0.180	-0.190
2020/01/31 06:17:14.9	93.920	-0.030	-0.190	-0.190
2020/01/31 06:17:15.0	93.940	-0.030	-0.210	-0.180
2020/01/31 06:17:15.1	93.970	-0.030	-0.220	-0.180
2020/01/31 06:17:15.2	93.990	-0.020	-0.230	-0.170
2020/01/31 06:17:15.3	94.020	-0.020	-0.250	-0.170
2020/01/31 06:17:15.4	94.050	-0.010	-0.260	-0.160
2020/01/31 06:17:15.5	94.080	0.000	-0.280	-0.160
2020/01/31 06:17:15.6	94.110	0.020	-0.300	-0.150
2020/01/31 06:17:15.7	94.140	0.030	-0.310	-0.140
2020/01/31 06:17:15.8	94.170	0.050	-0.330	-0.130
2020/01/31 06:17:15.9	94.190	0.060	-0.340	-0.110
2020/01/31 06:17:16.0	94.220	0.080	-0.360	-0.100
2020/01/31 06:17:16.1	94.250	0.110	-0.380	-0.080
2020/01/31 06:17:16.2	94.270	0.130	-0.390	-0.050
2020/01/31 06:17:16.3	94.300	0.150	-0.410	-0.030
2020/01/31 06:17:16.4	94.320	0.170	-0.420	0.000
2020/01/31 06:17:16.5	94.330	0.200	-0.430	0.040
2020/01/31 06:17:16.6	94.350	0.220	-0.440	0.070
2020/01/31 06:17:16.7	94.360	0.250	-0.450	0.120
2020/01/31 06:17:16.8	94.360	0.270	-0.460	0.160
2020/01/31 06:17:16.9	94.370	0.290	-0.470	0.220
2020/01/31 06:17:17.0	94.370	0.310	-0.470	0.270
2020/01/31 06:17:17.1	94.370	0.330	-0.470	0.330
2020/01/31 06:17:17.2	94.360	0.350	-0.470	0.400
2020/01/31 06:17:17.3	94.350	0.370	-0.460	0.470
2020/01/31 06:17:17.4	94.330	0.380	-0.450	0.540
2020/01/31 06:17:17.5	94.320	0.390	-0.440	0.610
2020/01/31 06:17:17.6	94.300	0.400	-0.420	0.690
2020/01/31 06:17:17.7	94.280	0.400	-0.390	0.770
2020/01/31 06:17:17.8	94.250	0.410	-0.370	0.850
2020/01/31 06:17:17.9	94.220	0.400	-0.340	0.930
2020/01/31 06:17:18.0	94.190	0.400	-0.310	1.020
2020/01/31 06:17:18.1	94.160	0.390	-0.270	1.100
2020/01/31 06:17:18.2	94.130	0.380	-0.230	1.190
2020/01/31 06:17:18.3	94.100	0.360	-0.190	1.280
2020/01/31 06:17:18.4	94.060	0.340	-0.150	1.360
2020/01/31 06:17:18.5	94.020	0.320	-0.100	1.440
2020/01/31 06:17:18.6	93.990	0.290	-0.060	1.530
2020/01/31 06:17:18.7	93.950	0.260	-0.010	1.600
2020/01/31 06:17:18.8	93.910	0.230	0.030	1.680
2020/01/31 06:17:18.9	93.880	0.200	0.070	1.750
2020/01/31 06:17:19.0	93.840	0.160	0.120	1.820
2020/01/31 06:17:19.1	93.810	0.130	0.160	1.890
2020/01/31 06:17:19.2	93.770	0.090	0.200	1.950
2020/01/31 06:17:19.3	93.740	0.050	0.230	2.000
2020/01/31 06:17:19.4	93.710	0.010	0.270	2.050
2020/01/31 06:17:19.5	93.690	-0.030	0.290	2.100
2020/01/31 06:17:19.6	93.660	-0.070	0.320	2.130
2020/01/31 06:17:19.7	93.640	-0.110	0.340	2.170
2020/01/31 06:17:19.8	93.620	-0.150	0.350	2.190
2020/01/31 06:17:19.9	93.600	-0.190	0.360	2.210
2020/01/31 06:17:20.0	93.590	-0.220	0.360	2.230
2020/01/31 06:17:20.1	93.580	-0.260	0.350	2.240
2020/01/31 06:17:20.2	93.580	-0.290	0.350	2.240
2020/01/31 06:17:20.3	93.580	-0.310	0.330	2.240
2020/01/31 06:17:20.4	93.580	-0.340	0.310	2.230
2020/01/31 06:17:20.5	93.580	-0.360	0.280	2.220
2020/01/31 06:17:20.6	93.590	-0.380	0.250	2.200
2020/01/31 06:17:20.7	93.600	-0.390	0.220	2.180
2020/01/31 06:17:20.8	93.610	-0.400	0.170	2.150
2020/01/31 06:17:20.9	93.630	-0.410	0.130	2.120
2020/01/31 06:17:21.0	93.650	-0.410	0.080	2.090
2020/01/31 06:17:21.1	93.680	-0.410	0.030	2.050
2020/01/31 06:17:21.2	93.710	-0.400	-0.030	2.010
2020/01/31 06:17:21.3	93.730	-0.400	-0.080	1.970
2020/01/31 06:17:21.4	93.760	-0.390	-0.140	1.930
2020/01/31 06:17:21.5	93.790	-0.370	-0.190	1.880
2020/01/31 06:17:21.6	93.820	-0.360	-0.250	1.840
2020/01/31 06:17:21.7	93.850	-0.340	-0.310	1.790
2020/01/31 06:17:21.8	93.870	-0.320	-0.360	1.750
2020/01/31 06:17:21.9	93.900	-0.290	-0.420	1.700
2020/01/31 06:17:22.0	93.920	-0.270	-0.470	1.660
2020/01/31 06:17:22.1	93.940	-0.240	-0.510	1.620
2020/01/31 06:17:22.2	93.960	-0.220	-0.560	1.580
2020/01/31 06:17:22.3	93.970	-0.190	-0.600	1.550
2020/01/31 06:17:22.4	93.980	-0.160	-0.630	1.510
2020/01/31 06:17:22.5	93.990	-0.140	-0.660	1.480
2020/01/31 06:17:22.6	94.000	-0.110	-0.690	1.440
2020/01/31 06:17:22.7	93.990	-0.090	-0.700	1.410
2020/01/31 06:17:22.8	93.990	-0.060	-0.720	1.380
2020/01/31 06:17:22.9	93.980	-0.040	-0.730	1.350
2020/01/31 06:17:23.0	93.970	-0.020	-0.730	1.320
2020/01/31 06:17:23.1	93.960	-0.000	-0.720	1.290
2020/01/31 06:17:23.2	93.950	0.010	-0.720	1.250
2020/01/31 06:17:23.3	93.930	0.020	-0.700	1.220
2020/01/31 06:17:23.4	93.910	0.030	-0.680	1.190
2020/01/31 06:17:23.5	93.890	0.040	-0.650	1.170
2020/01/31 06:17:23.6	93.860	0.040	-0.620	1.140
2020/01/31 06:17:23.7	93.840	0.040	-0.580	1.110
2020/01/31 06:17:23.8	93.810	0.040	-0.540	1.080
2020/01/31 06:17:23.9	93.780	0.040	-0.500	1.050
2020/01/31 06:17:24.0	93.760	0.030	-0.450	1.020
2020/01/31 06:17:24.1	93.730	0.020	-0.400	0.990
2020/01/31 06:17:24.2	93.690	0.010	-0.340	0.970
2020/01/31 06:17:24.3	93.670	-0.010	-0.280	0.940
2020/01/31 06:17:24.4	93.640	-0.030	-0.230	0.910
2020/01/31 06:17:24.5	93.610	-0.040	-0.170	0.880
2020/01/31 06:17:24.6	93.580	-0.060	-0.120	0.860
2020/01/31 06:17:24.7	93.560	-0.080	-0.060	0.830
2020/01/31 06:17:24.8	93.530	-0.100	-0.010	0.800
2020/01/31 06:17:24.9	93.500	-0.120	0.040	0.770
2020/01/31 06:17:25.0	93.480	-0.140	0.080	0.750
2020/01/31 06:17:25.1	93.460	-0.160	0.130	0.720
2020/01/31 06:17:25.2	93.430	-0.180	0.170	0.690
2020/01/31 06:17:25.3	93.410	-0.200	0.200	0.660
2020/01/31 06:17:25.4	93.380	-0.210	0.230	0.640
2020/01/31 06:17:25.5	93.360	-0.230	0.260	0.610
2020/01/31 06:17:25.6	93.350	-0.240	0.270	0.590
2020/01/31 06:17:25.7	93.330	-0.250	0.290	0.570
2020/01/31 06:17:25.8	93.320	-0.250	0.290	0.540
2020/01/31 06:17:25.9	93.300	-0.260	0.290	0.520
2020/01/31 06:17:26.0	93.290	-0.260	0.290	0.490
2020/01/31 06:17:26.1	93.290	-0.260	0.270	0.460
2020/01/31 06:17:26.2	93.280	-0.250	0.250	0.440
2020/01/31 06:17:26.3	93.280	-0.240	0.230	0.410
2020/01/31 06:17:26.4	93.280	-0.230	0.200	0.380
2020/01/31 06:17:26.5	93.280	-0.220	0.170	0.350
2020/01/31 06:17:26.6	93.290	-0.200	0.130	0.310
2020/01/31 06:17:26.7	93.300	-0.190	0.090	0.280
2020/01/31 06:17:26.8	93.310	-0.170	0.050	0.240
2020/01/31 06:17:26.9	93.330	-0.150	0.010	0.200
2020/01/31 06:17:27.0	93.350	-0.120	-0.040	0.160
2020/01/31 06:17:27.1	93.370	-0.100	-0.090	0.120
2020/01/31 06:17:27.2	93.390	-0.080	-0.130	0.070
2020/01/31 06:17:27.3	93.410	-0.050	-0.180	0.030
2020/01/31 06:17:27.4	93.440	-0.030	-0.230	-0.010
2020/01/31 06:17:27.5	93.470	-0.000	-0.270	-0.050
2020/01/31 06:17:27.6	93.500	0.020	-0.310	-0.090
2020/01/31 06:17:27.7	93.520	0.040	-0.350	-0.130
2020/01/31 06:17:27.8	93.550	0.070	-0.380	-0.170
2020/01/31 06:17:27.9	93.580	0.090	-0.410	-0.200
2020/01/31 06:17:28.0	93.610	0.100	-0.430	-0.240
2020/01/31 06:17:28.1	93.630	0.120	-0.450	-0.270
2020/01/31 06:17:28.2	93.660	0.140	-0.460	-0.290
2020/01/31 06:17:28.3	93.680	0.150	-0.470	-0.310
2020/01/31 06:17:28.4	93.700	0.160	-0.480	-0.330
2020/01/31 06:17:28.5	93.720	0.170	-0.470	-0.340
2020/01/31 06:17:28.6	93.730	0.170	-0.470	-0.350
2020/01/31 06:17:28.7	93.740	0.180	-0.450	-0.360
2020/01/31 06:17:28.8	93.750	0.180	-0.430	-0.360
2020/01/31 06:17:28.9	93.750	0.180	-0.410	-0.360
2020/01/31 06:17:29.0	93.750	0.170	-0.380	-0.350
2020/01/31 06:17:29.1	93.750	0.160	-0.350	-0.340
2020/01/31 06:17:29.2	93.750	0.150	-0.310	-0.320
2020/01/31 06:17:29.3	93.740	0.140	-0.280	-0.300
2020/01/31 06:17:29.4	93.720	0.130	-0.230	-0.270
2020/01/31 06:17:29.5	93.710	0.110	-0.190	-0.240
2020/01/31 06:17:29.6	93.690	0.100	-0.150	-0.210
2020/01/31 06:17:29.7	93.660	0.080	-0.100	-0.170
2020/01/31 06:17:29.8	93.640	0.060	-0.050	-0.130
2020/01/31 06:17:29.9	93.610	0.040	-0.010	-0.080
2020/01/31 06:17:30.0	93.580	0.020	0.040	-0.030
2020/01/31 06:17:30.1	93.540	-0.000	0.090	0.020
2020/01/31 06:17:30.2	93.510	-0.020	0.130	0.080
2020/01/31 06:17:30.3	93.470	-0.040	0.170	0.140
2020/01/31 06:17:30.4	93.430	-0.060	0.200	0.200
2020/01/31 06:17:30.5	93.390	-0.070	0.240	0.260
2020/01/31 06:17:30.6	93.350	-0.090	0.260	0.320
2020/01/31 06:17:30.7	93.310	-0.100	0.290	0.390
2020/01/31 06:17:30.8	93.270	-0.110	0.310	0.450
2020/01/31 06:17:30.9	93.230	-0.120	0.320	0.520
2020/01/31 06:17:31.0	93.190	-0.130	0.320	0.580
2020/01/31 06:17:31.1	93.150	-0.130	0.320	0.650
2020/01/31 06:17:31.2	93.120	-0.130	0.320	0.720
2020/01/31 06:17:31.3	93.090	-0.120	0.310	0.780
2020/01/31 06:17:31.4	93.050	-0.120	0.290	0.840
2020/01/31 06:17:31.5	93.020	-0.110	0.260	0.900
2020/01/31 06:17:31.6	92.990	-0.090	0.230	0.960
2020/01/31 06:17:31.7	92.970	-0.080	0.190	1.010
2020/01/31 06:17:31.8	92.950	-0.060	0.150	1.060
2020/01/31 06:17:31.9	92.930	-0.030	0.100	1.110
2020/01/31 06:17:32.0	92.910	-0.010	0.050	1.150
2020/01/31 06:17:32.1	92.900	0.020	-0.010	1.190
2020/01/31 06:17:32.2	92.880	0.050	-0.070	1.230
2020/01/31 06:17:32.3	92.880	0.080	-0.130	1.260
2020/01/31 06:17:32.4	92.880	0.110	-0.190	1.290
2020/01/31 06:17:32.5	92.880	0.140	-0.260	1.320
2020/01/31 06:17:32.6	92.880	0.180	-0.330	1.340
2020/01/31 06:17:32.7	92.890	0.210	-0.400	1.360
2020/01/31 06:17:32.8	92.900	0.250	-0.470	1.370
2020/01/31 06:17:32.9	92.910	0.280	-0.530	1.380
2020/01/31 06:17:33.0	92.920	0.310	-0.600	1.390
2020/01/31 06:17:33.1	92.940	0.340	-0.660	1.400
2020/01/31 06:17:33.2	92.960	0.370	-0.720	1.400
2020/01/31 06:17:33.3	92.980	0.400	-0.770	1.400
2020/01/31 06:17:33.4	93.000	0.430	-0.820	1.400
2020/01/31 06:17:33.5	93.020	0.450	-0.860	1.400
2020/01/31 06:17:33.6	93.050	0.470	-0.900	1.390
2020/01/31 06:17:33.7	93.070	0.490	-0.930	1.380
2020/01/31 06:17:33.8	93.100	0.500	-0.950	1.370
2020/01/31 06:17:33.9	93.130	0.510	-0.960	1.360
2020/01/31 06:17:34.0	93.160	0.520	-0.970	1.340
2020/01/31 06:17:34.1	93.180	0.520	-0.970	1.330
2020/01/31 06:17:34.2	93.210	0.520	-0.960	1.310
2020/01/31 06:17:34.3	93.240	0.520	-0.950	1.300
2020/01/31 06:17:34.4	93.260	0.520	-0.930	1.280
2020/01/31 06:17:34.5	93.290	0.510	-0.900	1.260
2020/01/31 06:17:34.6	93.310	0.490	-0.860	1.240
2020/01/31 06:17:34.7	93.330	0.480	-0.810	1.230
2020/01/31 06:17:34.8	93.350	0.460	-0.760	1.210
2020/01/31 06:17:34.9	93.370	0.430	-0.710	1.190
2020/01/31 06:17:35.0	93.380	0.410	-0.650	1.180
2020/01/31 06:17:35.1	93.390	0.380	-0.580	1.160
2020/01/31 06:17:35.2	93.400	0.350	-0.510	1.150
2020/01/31 06:17:35.3	93.410	0.320	-0.430	1.140
2020/01/31 06:17:35.4	93.420	0.290	-0.360	1.140
2020/01/31 06:17:35.5	93.420	0.250	-0.280	1.130
2020/01/31 06:17:35.6	93.420	0.220	-0.200	1.120
2020/01/31 06:17:35.7	93.420	0.180	-0.120	1.120
2020/01/31 06:17:35.8	93.420	0.150	-0.040	1.120
2020/01/31 06:17:35.9	93.410	0.110	0.040	1.130
2020/01/31 06:17:36.0	93.400	0.070	0.110	1.130
2020/01/31 06:17:36.1	93.390	0.040	0.190	1.140
2020/01/31 06:17:36.2	93.370	0.000	0.260	1.150
2020/01/31 06:17:36.3	93.350	-0.040	0.330	1.160
2020/01/31 06:17:36.4	93.330	-0.070	0.390	1.170
2020/01/31 06:17:36.5	93.310	-0.100	0.450	1.190
2020/01/31 06:17:36.6	93.290	-0.130	0.500	1.210
2020/01/31 06:17:36.7	93.260	-0.160	0.550	1.230
2020/01/31 06:17:36.8	93.240	-0.190	0.590	1.250
2020/01/31 06:17:36.9	93.210	-0.220	0.620	1.270
2020/01/31 06:17:37.0	93.180	-0.240	0.650	1.300
2020/01/31 06:17:37.1	93.150	-0.270	0.670	1.320
2020/01/31 06:17:37.2	93.120	-0.290	0.680	1.350
2020/01/31 06:17:37.3	93.090	-0.300	0.690	1.380
2020/01/31 06:17:37.4	93.050	-0.320	0.680	1.400
2020/01/31 06:17:37.5	93.020	-0.330	0.670	1.420
2020/01/31 06:17:37.6	92.990	-0.340	0.660	1.450
2020/01/31 06:17:37.7	92.950	-0.350	0.630	1.470
2020/01/31 06:17:37.8	92.920	-0.360	0.600	1.490
2020/01/31 06:17:37.9	92.890	-0.360	0.560	1.510
2020/01/31 06:17:38.0	92.860	-0.360	0.520	1.520
2020/01/31 06:17:38.1	92.830	-0.360	0.470	1.530
2020/01/31 06:17:38.2	92.810	-0.360	0.420	1.540
2020/01/31 06:17:38.3	92.780	-0.360	0.360	1.540
2020/01/31 06:17:38.4	92.760	-0.350	0.300	1.540
2020/01/31 06:17:38.5	92.740	-0.350	0.240	1.540
2020/01/31 06:17:38.6	92.730	-0.340	0.170	1.530
2020/01/31 06:17:38.7	92.720	-0.330	0.110	1.510
2020/01/31 06:17:38.8	92.710	-0.320	0.040	1.490
2020/01/31 06:17:38.9	92.710	-0.310	-0.030	1.470
2020/01/31 06:17:39.0	92.710	-0.300	-0.090	1.440
2020/01/31 06:17:39.1	92.710	-0.290	-0.160	1.410
2020/01/31 06:17:39.2	92.710	-0.280	-0.220	1.370
2020/01/31 06:17:39.3	92.720	-0.270	-0.280	1.330
2020/01/31 06:17:39.4	92.730	-0.260	-0.330	1.290
2020/01/31 06:17:39.5	92.740	-0.250	-0.380	1.240
2020/01/31 06:17:39.6	92.760	-0.230	-0.430	1.190
2020/01/31 06:17:39.7	92.770	-0.220	-0.470	1.140
2020/01/31 06:17:39.8	92.790	-0.220	-0.510	1.090
2020/01/31 06:17:39.9	92.810	-0.210	-0.530	1.030
2020/01/31 06:17:40.0	92.830	-0.200	-0.560	0.980
2020/01/31 06:17:40.1	92.840	-0.190	-0.580	0.920
2020/01/31 06:17:40.2	92.870	-0.180	-0.590	0.860
2020/01/31 06:17:40.3	92.880	-0.170	-0.600	0.810
2020/01/31 06:17:40.4	92.900	-0.170	-0.600	0.750
2020/01/31 06:17:40.5	92.910	-0.160	-0.600	0.700
2020/01/31 06:17:40.6	92.930	-0.150	-0.590	0.640
2020/01/31 06:17:40.7	92.940	-0.150	-0.590	0.590
2020/01/31 06:17:40.8	92.950	-0.140	-0.570	0.540
2020/01/31 06:17:40.9	92.970	-0.130	-0.560	0.490
2020/01/31 06:17:41.0	92.980	-0.130	-0.540	0.440
2020/01/31 06:17:41.1	92.980	-0.120	-0.520	0.400
2020/01/31 06:17:41.2	93.000	-0.110	-0.500	0.360
2020/01/31 06:17:41.3	93.000	-0.110	-0.480	0.320
2020/01/31 06:17:41.4	93.010	-0.100	-0.450	0.280
2020/01/31 06:17:41.5	93.010	-0.090	-0.430	0.250
2020/01/31 06:17:41.6	93.020	-0.090	-0.400	0.210
2020/01/31 06:17:41.7	93.020	-0.080	-0.380	0.180
2020/01/31 06:17:41.8	93.020	-0.080	-0.360	0.160
2020/01/31 06:17:41.9	93.020	-0.070	-0.330	0.130
2020/01/31 06:17:42.0	93.020	-0.070	-0.310	0.110
2020/01/31 06:17:42.1	93.020	-0.060	-0.280	0.090
2020/01/31 06:17:42.2	93.010	-0.060	-0.260	0.070
2020/01/31 06:17:42.3	93.010	-0.050	-0.240	0.060
2020/01/31 06:17:42.4	93.010	-0.050	-0.220	0.050
2020/01/31 06:17:42.5	93.000	-0.040	-0.210	0.040
2020/01/31 06:17:42.6	92.990	-0.040	-0.190	0.040
2020/01/31 06:17:42.7	92.990	-0.040	-0.180	0.040
2020/01/31 06:17:42.8	92.980	-0.040	-0.170	0.040
2020/01/31 06:17:42.9	92.970	-0.040	-0.160	0.050
2020/01/31 06:17:43.0	92.960	-0.040	-0.150	0.050
2020/01/31 06:17:43.1	92.950	-0.040	-0.150	0.060
2020/01/31 06:17:43.2	92.940	-0.040	-0.140	0.080
2020/01/31 06:17:43.3	92.930	-0.040	-0.140	0.100
2020/01/31 06:17:43.4	92.920	-0.040	-0.140	0.120
2020/01/31 06:17:43.5	92.900	-0.050	-0.140	0.140
2020/01/31 06:17:43.6	92.890	-0.050	-0.140	0.160
2020/01/31 06:17:43.7	92.880	-0.050	-0.150	0.190
2020/01/31 06:17:43.8	92.870	-0.060	-0.150	0.210
2020/01/31 06:17:43.9	92.860	-0.060	-0.160	0.240
2020/01/31 06:17:44.0	92.850	-0.060	-0.170	0.270
2020/01/31 06:17:44.1	92.840	-0.070	-0.180	0.300
2020/01/31 06:17:44.2	92.830	-0.070	-0.180	0.340
2020/01/31 06:17:44.3	92.820	-0.070	-0.190	0.370
2020/01/31 06:17:44.4	92.820	-0.080	-0.200	0.400
2020/01/31 06:17:44.5	92.810	-0.080	-0.210	0.430
2020/01/31 06:17:44.6	92.810	-0.080	-0.220	0.460
2020/01/31 06:17:44.7	92.810	-0.080	-0.230	0.490
2020/01/31 06:17:44.8	92.810	-0.080	-0.230	0.510
2020/01/31 06:17:44.9	92.810	-0.080	-0.240	0.540
2020/01/31 06:17:45.0	92.820	-0.070	-0.250	0.570
2020/01/31 06:17:45.1	92.820	-0.070	-0.250	0.590
2020/01/31 06:17:45.2	92.830	-0.070	-0.260	0.610
2020/01/31 06:17:45.3	92.840	-0.060	-0.260	0.640
2020/01/31 06:17:45.4	92.850	-0.050	-0.270	0.660
2020/01/31 06:17:45.5	92.860	-0.040	-0.270	0.670
2020/01/31 06:17:45.6	92.870	-0.030	-0.270	0.690
2020/01/31 06:17:45.7	92.890	-0.020	-0.270	0.710
2020/01/31 06:17:45.8	92.900	-0.010	-0.260	0.720
2020/01/31 06:17:45.9	92.910	0.010	-0.260	0.730
2020/01/31 06:17:46.0	92.930	0.020	-0.260	0.750
2020/01/31 06:17:46.1	92.940	0.040	-0.250	0.760
2020/01/31 06:17:46.2	92.960	0.060	-0.240	0.770
2020/01/31 06:17:46.3	92.970	0.080	-0.230	0.790
2020/01/31 06:17:46.4	92.980	0.100	-0.220	0.800
2020/01/31 06:17:46.5	92.990	0.120	-0.200	0.810
2020/01/31 06:17:46.6	93.000	0.130	-0.190	0.830
2020/01/31 06:17:46.7	93.000	0.150	-0.180	0.840
2020/01/31 06:17:46.8	93.010	0.170	-0.160	0.850
2020/01/31 06:17:46.9	93.010	0.190	-0.140	0.870
2020/01/31 06:17:47.0	93.010	0.210	-0.130	0.880
2020/01/31 06:17:47.1	93.010	0.230	-0.110	0.900
2020/01/31 06:17:47.2	93.000	0.240	-0.090	0.920
2020/01/31 06:17:47.3	93.000	0.260	-0.070	0.940
2020/01/31 06:17:47.4	93.000	0.270	-0.050	0.950
2020/01/31 06:17:47.5	92.990	0.280	-0.030	0.970
2020/01/31 06:17:47.6	92.980	0.290	-0.010	0.990
2020/01/31 06:17:47.7	92.980	0.300	0.010	1.000
2020/01/31 06:17:47.8	92.970	0.300	0.030	1.020
2020/01/31 06:17:47.9	92.960	0.300	0.050	1.040
2020/01/31 06:17:48.0	92.950	0.300	0.070	1.050
2020/01/31 06:17:48.1	92.950	0.300	0.090	1.060
2020/01/31 06:17:48.2	92.940	0.300	0.110	1.080
2020/01/31 06:17:48.3	92.930	0.290	0.130	1.090
2020/01/31 06:17:48.4	92.930	0.280	0.150	1.110
2020/01/31 06:17:48.5	92.920	0.270	0.160	1.120
2020/01/31 06:17:48.6	92.910	0.250	0.180	1.130
2020/01/31 06:17:48.7	92.910	0.240	0.190	1.140
2020/01/31 06:17:48.8	92.900	0.220	0.200	1.150
2020/01/31 06:17:48.9	92.900	0.200	0.210	1.160
2020/01/31 06:17:49.0	92.900	0.180	0.220	1.170
2020/01/31 06:17:49.1	92.890	0.160	0.220	1.180
2020/01/31 06:17:49.2	92.890	0.130	0.230	1.190
2020/01/31 06:17:49.3	92.890	0.110	0.230	1.200
2020/01/31 06:17:49.4	92.890	0.090	0.230	1.200
2020/01/31 06:17:49.5	92.890	0.070	0.220	1.210
2020/01/31 06:17:49.6	92.890	0.040	0.210	1.220
2020/01/31 06:17:49.7	92.890	0.020	0.200	1.220
2020/01/31 06:17:49.8	92.890	0.000	0.190	1.230
2020/01/31 06:17:49.9	92.890	-0.020	0.170	1.230
2020/01/31 06:17:50.0	92.900	-0.030	0.150	1.230
2020/01/31 06:17:50.1	92.900	-0.050	0.130	1.230
2020/01/31 06:17:50.2	92.890	-0.070	0.100	1.230
2020/01/31 06:17:50.3	92.900	-0.080	0.080	1.220
2020/01/31 06:17:50.4	92.900	-0.090	0.050	1.220
2020/01/31 06:17:50.5	92.910	-0.100	0.020	1.210
2020/01/31 06:17:50.6	92.920	-0.100	-0.010	1.210
2020/01/31 06:17:50.7	92.920	-0.110	-0.050	1.200
2020/01/31 06:17:50.8	92.930	-0.110	-0.080	1.190
2020/01/31 06:17:50.9	92.940	-0.110	-0.120	1.170
2020/01/31 06:17:51.0	92.950	-0.100	-0.160	1.160
2020/01/31 06:17:51.1	92.950	-0.100	-0.190	1.150
2020/01/31 06:17:51.2	92.970	-0.090	-0.230	1.130
2020/01/31 06:17:51.3	92.970	-0.080	-0.270	1.120
2020/01/31 06:17:51.4	92.980	-0.070	-0.310	1.100
2020/01/31 06:17:51.5	92.990	-0.060	-0.350	1.090
2020/01/31 06:17:51.6	92.990	-0.040	-0.390	1.070
2020/01/31 06:17:51.7	93.000	-0.020	-0.420	1.060
2020/01/31 06:17:51.8	93.000	-0.010	-0.460	1.040
2020/01/31 06:17:51.9	93.010	0.010	-0.500	1.020
2020/01/31 06:17:52.0	93.010	0.030	-0.530	1.010
2020/01/31 06:17:52.1	93.010	0.060	-0.570	0.990
2020/01/31 06:17:52.2	93.010	0.080	-0.600	0.980
2020/01/31 06:17:52.3	93.010	0.100	-0.630	0.960
2020/01/31 06:17:52.4	93.010	0.120	-0.660	0.950
2020/01/31 06:17:52.5	93.010	0.140	-0.690	0.930
2020/01/31 06:17:52.6	93.020	0.160	-0.720	0.920
2020/01/31 06:17:52.7	93.020	0.180	-0.740	0.910
2020/01/31 06:17:52.8	93.020	0.200	-0.760	0.900
2020/01/31 06:17:52.9	93.020	0.220	-0.780	0.890
2020/01/31 06:17:53.0	93.020	0.240	-0.790	0.880
2020/01/31 06:17:53.1	93.020	0.250	-0.800	0.870
2020/01/31 06:17:53.2	93.010	0.260	-0.810	0.870
2020/01/31 06:17:53.3	93.010	0.270	-0.820	0.870
2020/01/31 06:17:53.4	93.020	0.280	-0.820	0.870
2020/01/31 06:17:53.5	93.020	0.290	-0.810	0.870
2020/01/31 06:17:53.6	93.020	0.290	-0.810	0.870
2020/01/31 06:17:53.7	93.020	0.290	-0.800	0.880
2020/01/31 06:17:53.8	93.020	0.290	-0.780	0.880
2020/01/31 06:17:53.9	93.020	0.290	-0.760	0.890
2020/01/31 06:17:54.0	93.020	0.280	-0.740	0.900
2020/01/31 06:17:54.1	93.030	0.270	-0.710	0.910
2020/01/31 06:17:54.2	93.020	0.260	-0.680	0.930
2020/01/31 06:17:54.3	93.030	0.240	-0.640	0.940
2020/01/31 06:17:54.4	93.030	0.230	-0.600	0.950
2020/01/31 06:17:54.5	93.030	0.200	-0.560	0.970
2020/01/31 06:17:54.6	93.040	0.180	-0.510	0.980
2020/01/31 06:17:54.7	93.040	0.150	-0.460	1.000
2020/01/31 06:17:54.8	93.040	0.120	-0.410	1.010
2020/01/31 06:17:54.9	93.050	0.090	-0.350	1.020
2020/01/31 06:17:55.0	93.050	0.060	-0.290	1.030
2020/01/31 06:17:55.1	93.060	0.020	-0.230	1.040
2020/01/31 06:17:55.2	93.070	-0.020	-0.170	1.060
2020/01/31 06:17:55.3	93.080	-0.060	-0.110	1.060
2020/01/31 06:17:55.4	93.090	-0.100	-0.040	1.070
2020/01/31 06:17:55.5	93.090	-0.140	0.020	1.080
2020/01/31 06:17:55.6	93.100	-0.180	0.080	1.080
2020/01/31 06:17:55.7	93.110	-0.220	0.140	1.080
2020/01/31 06:17:55.8	93.120	-0.260	0.200	1.080
2020/01/31 06:17:55.9	93.140	-0.300	0.260	1.080
2020/01/31 06:17:56.0	93.150	-0.340	0.320	1.080
2020/01/31 06:17:56.1	93.160	-0.380	0.370	1.070
2020/01/31 06:17:56.2	93.180	-0.420	0.420	1.070
2020/01/31 06:17:56.3	93.190	-0.450	0.460	1.060
2020/01/31 06:17:56.4	93.200	-0.480	0.500	1.050
2020/01/31 06:17:56.5	93.210	-0.510	0.540	1.040
2020/01/31 06:17:56.6	93.220	-0.540	0.570	1.030
2020/01/31 06:17:56.7	93.230	-0.560	0.590	1.020
2020/01/31 06:17:56.8	93.240	-0.580	0.610	1.010
2020/01/31 06:17:56.9	93.250	-0.600	0.620	0.990
2020/01/31 06:17:57.0	93.260	-0.610	0.630	0.980
2020/01/31 06:17:57.1	93.270	-0.620	0.630	0.970
2020/01/31 06:17:57.2	93.270	-0.620	0.630	0.950
2020/01/31 06:17:57.3	93.270	-0.620	0.620	0.940
2020/01/31 06:17:57.4	93.270	-0.620	0.600	0.930
2020/01/31 06:17:57.5	93.280	-0.610	0.580	0.920
2020/01/31 06:17:57.6	93.270	-0.600	0.560	0.920
2020/01/31 06:17:57.7	93.270	-0.580	0.530	0.910
2020/01/31 06:17:57.8	93.260	-0.560	0.490	0.910
2020/01/31 06:17:57.9	93.250	-0.540	0.450	0.910
2020/01/31 06:17:58.0	93.240	-0.510	0.410	0.910
2020/01/31 06:17:58.1	93.230	-0.480	0.360	0.910
2020/01/31 06:17:58.2	93.220	-0.450	0.310	0.910
2020/01/31 06:17:58.3	93.200	-0.420	0.260	0.920
2020/01/31 06:17:58.4	93.190	-0.390	0.210	0.920
2020/01/31 06:17:58.5	93.170	-0.350	0.150	0.930
2020/01/31 06:17:58.6	93.150	-0.310	0.100	0.930
2020/01/31 06:17:58.7	93.130	-0.280	0.040	0.940
2020/01/31 06:17:58.8	93.110	-0.240	-0.010	0.940
2020/01/31 06:17:58.9	93.090	-0.200	-0.070	0.950
2020/01/31 06:17:59.0	93.070	-0.170	-0.120	0.950
2020/01/31 06:17:59.1	93.060	-0.130	-0.170	0.950
2020/01/31 06:17:59.2	93.040	-0.090	-0.220	0.950
2020/01/31 06:17:59.3	93.020	-0.060	-0.270	0.950
2020/01/31 06:17:59.4	93.000	-0.030	-0.320	0.940
2020/01/31 06:17:59.5	92.990	0.010	-0.360	0.940
2020/01/31 06:17:59.6	92.980	0.030	-0.400	0.930
2020/01/31 06:17:59.7	92.970	0.060	-0.440	0.910
2020/01/31 06:17:59.8	92.960	0.090	-0.480	0.900
2020/01/31 06:17:59.9	92.950	0.110	-0.510	0.880
2020/01/31 06:18:00.0	92.950	0.130	-0.540	0.860
2020/01/31 06:18:00.1	92.940	0.140	-0.560	0.830
2020/01/31 06:18:00.2	92.950	0.160	-0.590	0.810
2020/01/31 06:18:00.3	92.950	0.170	-0.610	0.780
2020/01/31 06:18:00.4	92.950	0.180	-0.620	0.750
2020/01/31 06:18:00.5	92.960	0.190	-0.630	0.710
2020/01/31 06:18:00.6	92.970	0.190	-0.640	0.670
2020/01/31 06:18:00.7	92.990	0.200	-0.650	0.630
2020/01/31 06:18:00.8	93.000	0.200	-0.650	0.590
2020/01/31 06:18:00.9	93.020	0.200	-0.650	0.550
2020/01/31 06:18:01.0	93.040	0.190	-0.650	0.510
2020/01/31 06:18:01.1	93.060	0.190	-0.650	0.460
2020/01/31 06:18:01.2	93.090	0.190	-0.640	0.420
2020/01/31 06:18:01.3	93.120	0.180	-0.630	0.370
2020/01/31 06:18:01.4	93.150	0.180	-0.620	0.330
2020/01/31 06:18:01.5	93.180	0.180	-0.610	0.290
2020/01/31 06:18:01.6	93.210	0.170	-0.590	0.240
2020/01/31 06:18:01.7	93.240	0.170	-0.580	0.210
2020/01/31 06:18:01.8	93.280	0.160	-0.560	0.170
2020/01/31 06:18:01.9	93.310	0.160	-0.550	0.130
2020/01/31 06:18:02.0	93.350	0.160	-0.530	0.100
2020/01/31 06:18:02.1	93.390	0.160	-0.510	0.070
2020/01/31 06:18:02.2	93.430	0.160	-0.490	0.050
2020/01/31 06:18:02.3	93.460	0.170	-0.470	0.030
2020/01/31 06:18:02.4	93.500	0.170	-0.450	0.020
2020/01/31 06:18:02.5	93.530	0.180	-0.430	0.010
2020/01/31 06:18:02.6	93.570	0.180	-0.410	-0.000
2020/01/31 06:18:02.7	93.600	0.190	-0.390	-0.000
2020/01/31 06:18:02.8	93.630	0.200	-0.370	-0.000
2020/01/31 06:18:02.9	93.660	0.210	-0.360	0.000
2020/01/31 06:18:03.0	93.690	0.230	-0.330	0.010
2020/01/31 06:18:03.1	93.720	0.240	-0.310	0.020
2020/01/31 06:18:03.2	93.740	0.250	-0.290	0.040
2020/01/31 06:18:03.3	93.760	0.260	-0.270	0.050
2020/01/31 06:18:03.4	93.780	0.270	-0.250	0.070
2020/01/31 06:18:03.5	93.800	0.280	-0.230	0.090
2020/01/31 06:18:03.6	93.820	0.290	-0.210	0.120
2020/01/31 06:18:03.7	93.830	0.300	-0.180	0.140
2020/01/31 06:18:03.8	93.840	0.310	-0.160	0.170
2020/01/31 06:18:03.9	93.850	0.310	-0.130	0.190
2020/01/31 06:18:04.0	93.850	0.320	-0.100	0.220
2020/01/31 06:18:04.1	93.860	0.320	-0.080	0.250
2020/01/31 06:18:04.2	93.850	0.320	-0.050	0.290
2020/01/31 06:18:04.3	93.840	0.320	-0.020	0.330
2020/01/31 06:18:04.4	93.830	0.310	0.010	0.360
2020/01/31 06:18:04.5	93.820	0.300	0.040	0.400
2020/01/31 06:18:04.6	93.810	0.290	0.070	0.440
2020/01/31 06:18:04.7	93.790	0.270	0.100	0.480
2020/01/31 06:18:04.8	93.760	0.260	0.130	0.530
2020/01/31 06:18:04.9	93.740	0.240	0.150	0.580
2020/01/31 06:18:05.0	93.710	0.220	0.180	0.630
2020/01/31 06:18:05.1	93.670	0.190	0.210	0.680
2020/01/31 06:18:05.2	93.640	0.160	0.240	0.730
2020/01/31 06:18:05.3	93.610	0.130	0.270	0.790
2020/01/31 06:18:05.4	93.570	0.100	0.290	0.840
2020/01/31 06:18:05.5	93.530	0.070	0.310	0.900
2020/01/31 06:18:05.6	93.490	0.040	0.330	0.960
2020/01/31 06:18:05.7	93.450	0.000	0.340	1.020
2020/01/31 06:18:05.8	93.410	-0.030	0.360	1.080
2020/01/31 06:18:05.9	93.370	-0.070	0.370	1.140
2020/01/31 06:18:06.0	93.330	-0.100	0.370	1.200
2020/01/31 06:18:06.1	93.300	-0.130	0.380	1.260
2020/01/31 06:18:06.2	93.260	-0.170	0.370	1.310
2020/01/31 06:18:06.3	93.230	-0.200	0.370	1.360
2020/01/31 06:18:06.4	93.200	-0.230	0.360	1.410
2020/01/31 06:18:06.5	93.170	-0.260	0.350	1.460
2020/01/31 06:18:06.6	93.140	-0.280	0.330	1.500
2020/01/31 06:18:06.7	93.120	-0.300	0.310	1.540
2020/01/31 06:18:06.8	93.100	-0.330	0.290	1.580
2020/01/31 06:18:06.9	93.090	-0.340	0.270	1.610
2020/01/31 06:18:07.0	93.070	-0.360	0.240	1.630
2020/01/31 06:18:07.1	93.060	-0.370	0.200	1.650
2020/01/31 06:18:07.2	93.060	-0.380	0.170	1.670
2020/01/31 06:18:07.3	93.050	-0.380	0.130	1.680
2020/01/31 06:18:07.4	93.050	-0.380	0.090	1.690
2020/01/31 06:18:07.5	93.060	-0.380	0.040	1.690
2020/01/31 06:18:07.6	93.060	-0.380	-0.000	1.690
2020/01/31 06:18:07.7	93.070	-0.370	-0.050	1.690
2020/01/31 06:18:07.8	93.090	-0.360	-0.090	1.680
2020/01/31 06:18:07.9	93.100	-0.340	-0.140	1.660
2020/01/31 06:18:08.0	93.120	-0.320	-0.190	1.650
2020/01/31 06:18:08.1	93.140	-0.310	-0.240	1.630
2020/01/31 06:18:08.2	93.160	-0.280	-0.290	1.600
2020/01/31 06:18:08.3	93.180	-0.260	-0.340	1.580
2020/01/31 06:18:08.4	93.200	-0.230	-0.390	1.550
2020/01/31 06:18:08.5	93.230	-0.200	-0.440	1.520
2020/01/31 06:18:08.6	93.260	-0.170	-0.480	1.490
2020/01/31 06:18:08.7	93.280	-0.140	-0.530	1.450
2020/01/31 06:18:08.8	93.310	-0.110	-0.570	1.420
2020/01/31 06:18:08.9	93.330	-0.080	-0.620	1.380
2020/01/31 06:18:09.0	93.360	-0.040	-0.660	1.350
2020/01/31 06:18:09.1	93.390	-0.010	-0.690	1.310
2020/01/31 06:18:09.2	93.410	0.020	-0.730	1.270
2020/01/31 06:18:09.3	93.440	0.050	-0.760	1.230
2020/01/31 06:18:09.4	93.460	0.090	-0.790	1.200
2020/01/31 06:18:09.5	93.480	0.120	-0.820	1.160
2020/01/31 06:18:09.6	93.500	0.150	-0.840	1.120
2020/01/31 06:18:09.7	93.520	0.180	-0.850	1.080
2020/01/31 06:18:09.8	93.540	0.200	-0.870	1.050
2020/01/31 06:18:09.9	93.560	0.230	-0.870	1.010
2020/01/31 06:18:10.0	93.570	0.250	-0.880	0.980
2020/01/31 06:18:10.1	93.590	0.270	-0.880	0.950
2020/01/31 06:18:10.2	93.600	0.290	-0.870	0.920
2020/01/31 06:18:10.3	93.600	0.300	-0.860	0.890
2020/01/31 06:18:10.4	93.610	0.310	-0.850	0.870
2020/01/31 06:18:10.5	93.620	0.320	-0.830	0.840
2020/01/31 06:18:10.6	93.620	0.330	-0.810	0.820
2020/01/31 06:18:10.7	93.620	0.330	-0.790	0.800
2020/01/31 06:18:10.8	93.620	0.340	-0.760	0.780
2020/01/31 06:18:10.9	93.620	0.330	-0.720	0.760
2020/01/31 06:18:11.0	93.610	0.330	-0.690	0.750
2020/01/31 06:18:11.1	93.610	0.330	-0.650	0.730
2020/01/31 06:18:11.2	93.610	0.320	-0.600	0.720
2020/01/31 06:18:11.3	93.600	0.310	-0.560	0.710
2020/01/31 06:18:11.4	93.590	0.290	-0.510	0.710
2020/01/31 06:18:11.5	93.580	0.280	-0.460	0.700
2020/01/31 06:18:11.6	93.570	0.260	-0.410	0.700
2020/01/31 06:18:11.7	93.560	0.250	-0.350	0.700
2020/01/31 06:18:11.8	93.550	0.230	-0.300	0.700
2020/01/31 06:18:11.9	93.540	0.210	-0.240	0.700
2020/01/31 06:18:12.0	93.530	0.190	-0.190	0.710
2020/01/31 06:18:12.1	93.520	0.160	-0.130	0.710
2020/01/31 06:18:12.2	93.510	0.140	-0.070	0.720
2020/01/31 06:18:12.3	93.500	0.120	-0.020	0.720
2020/01/31 06:18:12.4	93.490	0.090	0.040	0.730
2020/01/31 06:18:12.5	93.480	0.070	0.090	0.740
2020/01/31 06:18:12.6	93.470	0.040	0.150	0.740
2020/01/31 06:18:12.7	93.460	0.020	0.200	0.750
2020/01/31 06:18:12.8	93.450	-0.010	0.250	0.750
2020/01/31 06:18:12.9	93.440	-0.030	0.290	0.760
2020/01/31 06:18:13.0	93.430	-0.060	0.340	0.760
2020/01/31 06:18:13.1	93.420	-0.080	0.380	0.770
2020/01/31 06:18:13.2	93.410	-0.110	0.410	0.780
2020/01/31 06:18:13.3	93.400	-0.130	0.440	0.780
2020/01/31 06:18:13.4	93.400	-0.150	0.470	0.780
2020/01/31 06:18:13.5	93.390	-0.180	0.500	0.780
2020/01/31 06:18:13.6	93.380	-0.200	0.520	0.780
2020/01/31 06:18:13.7	93.370	-0.220	0.540	0.780
2020/01/31 06:18:13.8	93.360	-0.240	0.560	0.780
2020/01/31 06:18:13.9	93.340	-0.260	0.570	0.780
2020/01/31 06:18:14.0	93.330	-0.270	0.570	0.780
2020/01/31 06:18:14.1	93.320	-0.290	0.570	0.770
2020/01/31 06:18:14.2	93.310	-0.300	0.570	0.760
2020/01/31 06:18:14.3	93.300	-0.320	0.560	0.750
2020/01/31 06:18:14.4	93.290	-0.330	0.550	0.750
2020/01/31 06:18:14.5	93.280	-0.340	0.540	0.740
2020/01/31 06:18:14.6	93.260	-0.350	0.520	0.720
2020/01/31 06:18:14.7	93.250	-0.360	0.500	0.710
2020/01/31 06:18:14.8	93.240	-0.370	0.480	0.700
2020/01/31 06:18:14.9	93.230	-0.370	0.450	0.680
2020/01/31 06:18:15.0	93.220	-0.370	0.420	0.670
2020/01/31 06:18:15.1	93.200	-0.370	0.390	0.650
2020/01/31 06:18:15.2	93.190	-0.370	0.360	0.630
2020/01/31 06:18:15.3	93.180	-0.370	0.330	0.620
2020/01/31 06:18:15.4	93.170	-0.370	0.290	0.600
2020/01/31 06:18:15.5	93.160	-0.360	0.250	0.580
2020/01/31 06:18:15.6	93.160	-0.360	0.220	0.560
2020/01/31 06:18:15.7	93.150	-0.350	0.180	0.540
2020/01/31 06:18:15.8	93.150	-0.340	0.140	0.520
2020/01/31 06:18:15.9	93.140	-0.330	0.100	0.500
2020/01/31 06:18:16.0	93.140	-0.310	0.050	0.480
2020/01/31 06:18:16.1	93.140	-0.300	0.010	0.460
2020/01/31 06:18:16.2	93.130	-0.280	-0.030	0.450
2020/01/31 06:18:16.3	93.140	-0.260	-0.070	0.430
2020/01/31 06:18:16.4	93.140	-0.240	-0.120	0.410
2020/01/31 06:18:16.5	93.140	-0.220	-0.160	0.390
2020/01/31 06:18:16.6	93.150	-0.200	-0.210	0.370
2020/01/31 06:18:16.7	93.150	-0.170	-0.250	0.360
2020/01/31 06:18:16.8	93.160	-0.150	-0.300	0.340
2020/01/31 06:18:16.9	93.170	-0.120	-0.340	0.330
2020/01/31 06:18:17.0	93.180	-0.100	-0.390	0.310
2020/01/31 06:18:17.1	93.190	-0.070	-0.430	0.300
2020/01/31 06:18:17.2	93.200	-0.040	-0.480	0.290
2020/01/31 06:18:17.3	93.210	-0.010	-0.520	0.280
2020/01/31 06:18:17.4	93.230	0.020	-0.560	0.270
2020/01/31 06:18:17.5	93.240	0.050	-0.610	0.270
2020/01/31 06:18:17.6	93.260	0.070	-0.650	0.260
2020/01/31 06:18:17.7	93.280	0.100	-0.690	0.260
2020/01/31 06:18:17.8	93.300	0.130	-0.720	0.260
2020/01/31 06:18:17.9	93.320	0.160	-0.760	0.260
2020/01/31 06:18:18.0	93.340	0.180	-0.790	0.270
2020/01/31 06:18:18.1	93.360	0.210	-0.830	0.270
2020/01/31 06:18:18.2	93.380	0.230	-0.850	0.280
2020/01/31 06:18:18.3	93.400	0.250	-0.880	0.290
2020/01/31 06:18:18.4	93.420	0.270	-0.900	0.300
2020/01/31 06:18:18.5	93.440	0.290	-0.920	0.310
2020/01/31 06:18:18.6	93.450	0.310	-0.930	0.320
2020/01/31 06:18:18.7	93.470	0.330	-0.940	0.340
2020/01/31 06:18:18.8	93.490	0.340	-0.940	0.360
2020/01/31 06:18:18.9	93.500	0.350	-0.940	0.380
2020/01/31 06:18:19.0	93.510	0.360	-0.930	0.400
2020/01/31 06:18:19.1	93.520	0.370	-0.920	0.420
2020/01/31 06:18:19.2	93.530	0.380	-0.910	0.450
2020/01/31 06:18:19.3	93.530	0.380	-0.880	0.480
2020/01/31 06:18:19.4	93.540	0.380	-0.850	0.510
2020/01/31 06:18:19.5	93.540	0.380	-0.820	0.540
2020/01/31 06:18:19.6	93.540	0.380	-0.780	0.570
2020/01/31 06:18:19.7	93.530	0.370	-0.740	0.610
2020/01/31 06:18:19.8	93.530	0.360	-0.690	0.650
2020/01/31 06:18:19.9	93.520	0.350	-0.640	0.690
2020/01/31 06:18:20.0	93.510	0.340	-0.580	0.730
2020/01/31 06:18:20.1	93.500	0.320	-0.530	0.780
2020/01/31 06:18:20.2	93.480	0.310	-0.460	0.830
2020/01/31 06:18:20.3	93.470	0.290	-0.390	0.870
2020/01/31 06:18:20.4	93.450	0.270	-0.320	0.920
2020/01/31 06:18:20.5	93.430	0.240	-0.260	0.970
2020/01/31 06:18:20.6	93.420	0.220	-0.190	1.020
2020/01/31 06:18:20.7	93.400	0.190	-0.120	1.070
2020/01/31 06:18:20.8	93.380	0.170	-0.050	1.120
2020/01/31 06:18:20.9	93.360	0.140	0.020	1.160
2020/01/31 06:18:21.0	93.330	0.110	0.090	1.210
2020/01/31 06:18:21.1	93.310	0.080	0.160	1.260
2020/01/31 06:18:21.2	93.290	0.050	0.220	1.300
2020/01/31 06:18:21.3	93.270	0.020	0.280	1.350
2020/01/31 06:18:21.4	93.250	-0.010	0.330	1.390
2020/01/31 06:18:21.5	93.230	-0.040	0.390	1.430
2020/01/31 06:18:21.6	93.210	-0.070	0.430	1.460
2020/01/31 06:18:21.7	93.190	-0.100	0.480	1.500
2020/01/31 06:18:21.8	93.170	-0.130	0.520	1.520
2020/01/31 06:18:21.9	93.160	-0.150	0.550	1.550
2020/01/31 06:18:22.0	93.150	-0.180	0.570	1.570
2020/01/31 06:18:22.1	93.140	-0.200	0.600	1.590
2020/01/31 06:18:22.2	93.130	-0.220	0.610	1.600
2020/01/31 06:18:22.3	93.120	-0.240	0.620	1.610
2020/01/31 06:18:22.4	93.120	-0.260	0.620	1.620
2020/01/31 06:18:22.5	93.110	-0.280	0.620	1.620
2020/01/31 06:18:22.6	93.110	-0.290	0.610	1.610
2020/01/31 06:18:22.7	93.110	-0.300	0.590	1.610
2020/01/31 06:18:22.8	93.120	-0.310	0.570	1.590
2020/01/31 06:18:22.9	93.120	-0.320	0.540	1.580
2020/01/31 06:18:23.0	93.120	-0.320	0.510	1.570
2020/01/31 06:18:23.1	93.130	-0.320	0.470	1.550
2020/01/31 06:18:23.2	93.140	-0.320	0.440	1.530
2020/01/31 06:18:23.3	93.150	-0.320	0.390	1.510
2020/01/31 06:18:23.4	93.150	-0.310	0.340	1.480
2020/01/31 06:18:23.5	93.160	-0.310	0.290	1.460
2020/01/31 06:18:23.6	93.170	-0.300	0.240	1.430
2020/01/31 06:18:23.7	93.170	-0.280	0.190	1.410
2020/01/31 06:18:23.8	93.180	-0.270	0.140	1.380
2020/01/31 06:18:23.9	93.180	-0.260	0.080	1.360
2020/01/31 06:18:24.0	93.190	-0.240	0.030	1.330
2020/01/31 06:18:24.1	93.190	-0.220	-0.020	1.310
2020/01/31 06:18:24.2	93.190	-0.210	-0.070	1.280
2020/01/31 06:18:24.3	93.200	-0.190	-0.120	1.250
2020/01/31 06:18:24.4	93.200	-0.170	-0.170	1.220
2020/01/31 06:18:24.5	93.200	-0.150	-0.210	1.200
2020/01/31 06:18:24.6	93.200	-0.130	-0.250	1.170
2020/01/31 06:18:24.7	93.200	-0.110	-0.290	1.140
2020/01/31 06:18:24.8	93.190	-0.100	-0.320	1.110
2020/01/31 06:18:24.9	93.190	-0.080	-0.350	1.080
2020/01/31 06:18:25.0	93.190	-0.060	-0.380	1.050
2020/01/31 06:18:25.1	93.180	-0.040	-0.410	1.020
2020/01/31 06:18:25.2	93.180	-0.030	-0.430	0.990
2020/01/31 06:18:25.3	93.180	-0.010	-0.440	0.950
2020/01/31 06:18:25.4	93.170	-0.000	-0.460	0.920
2020/01/31 06:18:25.5	93.170	0.010	-0.470	0.890
2020/01/31 06:18:25.6	93.160	0.020	-0.480	0.850
2020/01/31 06:18:25.7	93.150	0.030	-0.480	0.820
2020/01/31 06:18:25.8	93.140	0.040	-0.490	0.790
2020/01/31 06:18:25.9	93.130	0.050	-0.490	0.750
2020/01/31 06:18:26.0	93.120	0.060	-0.490	0.720
2020/01/31 06:18:26.1	93.110	0.070	-0.490	0.690
2020/01/31 06:18:26.2	93.100	0.080	-0.490	0.660
2020/01/31 06:18:26.3	93.090	0.080	-0.480	0.630
2020/01/31 06:18:26.4	93.070	0.090	-0.480	0.600
2020/01/31 06:18:26.5	93.060	0.090	-0.480	0.570
2020/01/31 06:18:26.6	93.050	0.100	-0.470	0.540
2020/01/31 06:18:26.7	93.040	0.110	-0.470	0.510
2020/01/31 06:18:26.8	93.040	0.110	-0.460	0.490
2020/01/31 06:18:26.9	93.030	0.120	-0.460	0.470
2020/01/31 06:18:27.0	93.020	0.120	-0.460	0.440
2020/01/31 06:18:27.1	93.020	0.130	-0.460	0.420
2020/01/31 06:18:27.2	93.020	0.140	-0.460	0.400
2020/01/31 06:18:27.3	93.020	0.150	-0.460	0.380
2020/01/31 06:18:27.4	93.020	0.160	-0.460	0.360
2020/01/31 06:18:27.5	93.020	0.170	-0.460	0.350
2020/01/31 06:18:27.6	93.020	0.180	-0.460	0.330
2020/01/31 06:18:27.7	93.030	0.190	-0.470	0.320
2020/01/31 06:18:27.8	93.040	0.200	-0.470	0.310
2020/01/31 06:18:27.9	93.040	0.210	-0.480	0.300
2020/01/31 06:18:28.0	93.060	0.230	-0.490	0.290
2020/01/31 06:18:28.1	93.070	0.240	-0.490	0.280
2020/01/31 06:18:28.2	93.090	0.260	-0.500	0.270
2020/01/31 06:18:28.3	93.100	0.270	-0.510	0.260
2020/01/31 06:18:28.4	93.120	0.290	-0.510	0.260
2020/01/31 06:18:28.5	93.140	0.310	-0.520	0.250
2020/01/31 06:18:28.6	93.160	0.320	-0.520	0.240
2020/01/31 06:18:28.7	93.190	0.340	-0.530	0.240
2020/01/31 06:18:28.8	93.210	0.350	-0.530	0.230
2020/01/31 06:18:28.9	93.230	0.370	-0.530	0.230
2020/01/31 06:18:29.0	93.260	0.380	-0.520	0.220
2020/01/31 06:18:29.1	93.290	0.390	-0.520	0.220
2020/01/31 06:18:29.2	93.310	0.400	-0.510	0.210
2020/01/31 06:18:29.3	93.340	0.410	-0.500	0.210
2020/01/31 06:18:29.4	93.370	0.410	-0.490	0.210
2020/01/31 06:18:29.5	93.390	0.420	-0.470	0.200
2020/01/31 06:18:29.6	93.410	0.420	-0.450	0.200
2020/01/31 06:18:29.7	93.440	0.420	-0.430	0.200
2020/01/31 06:18:29.8	93.460	0.410	-0.400	0.210
2020/01/31 06:18:29.9	93.480	0.410	-0.370	0.210
2020/01/31 06:18:30.0	93.490	0.400	-0.340	0.220
2020/01/31 06:18:30.1	93.510	0.390	-0.300	0.230
2020/01/31 06:18:30.2	93.520	0.370	-0.260	0.240
2020/01/31 06:18:30.3	93.530	0.350	-0.220	0.250
2020/01/31 06:18:30.4	93.540	0.330	-0.180	0.270
2020/01/31 06:18:30.5	93.540	0.300	-0.140	0.280
2020/01/31 06:18:30.6	93.540	0.280	-0.090	0.300
2020/01/31 06:18:30.7	93.540	0.250	-0.040	0.330
2020/01/31 06:18:30.8	93.540	0.210	0.000	0.350
2020/01/31 06:18:30.9	93.530	0.180	0.050	0.380
2020/01/31 06:18:31.0	93.520	0.140	0.100	0.410
2020/01/31 06:18:31.1	93.500	0.100	0.150	0.450
2020/01/31 06:18:31.2	93.480	0.060	0.200	0.490
2020/01/31 06:18:31.3	93.470	0.020	0.240	0.520
2020/01/31 06:18:31.4	93.440	-0.020	0.290	0.570
2020/01/31 06:18:31.5	93.420	-0.060	0.330	0.610
2020/01/31 06:18:31.6	93.390	-0.110	0.370	0.660
2020/01/31 06:18:31.7	93.360	-0.150	0.400	0.700
2020/01/31 06:18:31.8	93.330	-0.190	0.440	0.750
2020/01/31 06:18:31.9	93.300	-0.230	0.470	0.800
2020/01/31 06:18:32.0	93.270	-0.270	0.490	0.860
2020/01/31 06:18:32.1	93.240	-0.310	0.510	0.910
2020/01/31 06:18:32.2	93.200	-0.350	0.530	0.960
2020/01/31 06:18:32.3	93.170	-0.380	0.540	1.010
2020/01/31 06:18:32.4	93.130	-0.420	0.550	1.060
2020/01/31 06:18:32.5	93.100	-0.450	0.550	1.110
2020/01/31 06:18:32.6	93.070	-0.480	0.550	1.160
2020/01/31 06:18:32.7	93.030	-0.500	0.540	1.210
2020/01/31 06:18:32.8	93.000	-0.520	0.520	1.250
2020/01/31 06:18:32.9	92.970	-0.540	0.500	1.290
2020/01/31 06:18:33.0	92.950	-0.560	0.480	1.330
2020/01/31 06:18:33.1	92.920	-0.570	0.450	1.370
2020/01/31 06:18:33.2	92.900	-0.580	0.420	1.400
2020/01/31 06:18:33.3	92.870	-0.590	0.390	1.430
2020/01/31 06:18:33.4	92.860	-0.590	0.350	1.460
2020/01/31 06:18:33.5	92.840	-0.590	0.310	1.480
2020/01/31 06:18:33.6	92.830	-0.590	0.270	1.500
2020/01/31 06:18:33.7	92.820	-0.590	0.230	1.510
2020/01/31 06:18:33.8	92.810	-0.580	0.180	1.520
2020/01/31 06:18:33.9	92.810	-0.570	0.140	1.530
2020/01/31 06:18:34.0	92.810	-0.560	0.090	1.530
2020/01/31 06:18:34.1	92.810	-0.540	0.050	1.530
2020/01/31 06:18:34.2	92.830	-0.530	0.000	1.530
2020/01/31 06:18:34.3	92.840	-0.510	-0.040	1.520
2020/01/31 06:18:34.4	92.850	-0.490	-0.090	1.510
2020/01/31 06:18:34.5	92.870	-0.460	-0.130	1.500
2020/01/31 06:18:34.6	92.890	-0.440	-0.180	1.480
2020/01/31 06:18:34.7	92.910	-0.420	-0.220	1.460
2020/01/31 06:18:34.8	92.930	-0.390	-0.260	1.440
2020/01/31 06:18:34.9	92.960	-0.370	-0.290	1.410
2020/01/31 06:18:35.0	92.990	-0.340	-0.330	1.390
2020/01/31 06:18:35.1	93.010	-0.310	-0.360	1.360
2020/01/31 06:18:35.2	93.040	-0.280	-0.400	1.330
2020/01/31 06:18:35.3	93.070	-0.250	-0.430	1.300
2020/01/31 06:18:35.4	93.100	-0.230	-0.460	1.260
2020/01/31 06:18:35.5	93.130	-0.200	-0.480	1.230
2020/01/31 06:18:35.6	93.160	-0.170	-0.510	1.190
2020/01/31 06:18:35.7	93.190	-0.140	-0.530	1.150
2020/01/31 06:18:35.8	93.230	-0.110	-0.550	1.110
2020/01/31 06:18:35.9	93.260	-0.090	-0.560	1.070
2020/01/31 06:18:36.0	93.280	-0.060	-0.580	1.030
2020/01/31 06:18:36.1	93.310	-0.030	-0.590	0.990
2020/01/31 06:18:36.2	93.340	-0.010	-0.600	0.950
2020/01/31 06:18:36.3	93.370	0.020	-0.610	0.900
2020/01/31 06:18:36.4	93.400	0.040	-0.620	0.860
2020/01/31 06:18:36.5	93.420	0.070	-0.620	0.820
2020/01/31 06:18:36.6	93.440	0.090	-0.630	0.770
2020/01/31 06:18:36.7	93.470	0.110	-0.630	0.730
2020/01/31 06:18:36.8	93.490	0.140	-0.630	0.680
2020/01/31 06:18:36.9	93.510	0.160	-0.630	0.640
2020/01/31 06:18:37.0	93.520	0.180	-0.630	0.600
2020/01/31 06:18:37.1	93.540	0.200	-0.630	0.560
2020/01/31 06:18:37.2	93.560	0.220	-0.630	0.520
2020/01/31 06:18:37.3	93.570	0.240	-0.620	0.480
2020/01/31 06:18:37.4	93.580	0.250	-0.610	0.450
2020/01/31 06:18:37.5	93.580	0.270	-0.610	0.420
2020/01/31 06:18:37.6	93.590	0.290	-0.600	0.400
2020/01/31 06:18:37.7	93.590	0.300	-0.580	0.370
2020/01/31 06:18:37.8	93.590	0.320	-0.570	0.360
2020/01/31 06:18:37.9	93.590	0.330	-0.560	0.340
2020/01/31 06:18:38.0	93.580	0.340	-0.540	0.330
2020/01/31 06:18:38.1	93.580	0.350	-0.520	0.330
2020/01/31 06:18:38.2	93.570	0.360	-0.500	0.330
2020/01/31 06:18:38.3	93.560	0.370	-0.480	0.340
2020/01/31 06:18:38.4	93.540	0.380	-0.450	0.340
2020/01/31 06:18:38.5	93.530	0.380	-0.430	0.360
2020/01/31 06:18:38.6	93.510	0.380	-0.400	0.380
2020/01/31 06:18:38.7	93.490	0.380	-0.370	0.400
2020/01/31 06:18:38.8	93.470	0.380	-0.340	0.420
2020/01/31 06:18:38.9	93.440	0.380	-0.310	0.450
2020/01/31 06:18:39.0	93.420	0.380	-0.270	0.480
2020/01/31 06:18:39.1	93.390	0.370	-0.230	0.520
2020/01/31 06:18:39.2	93.350	0.360	-0.200	0.560
2020/01/31 06:18:39.3	93.320	0.350	-0.160	0.600
2020/01/31 06:18:39.4	93.290	0.340	-0.110	0.650
2020/01/31 06:18:39.5	93.250	0.320	-0.070	0.690
2020/01/31 06:18:39.6	93.220	0.310	-0.030	0.740
2020/01/31 06:18:39.7	93.180	0.290	0.020	0.780
2020/01/31 06:18:39.8	93.140	0.270	0.060	0.830
2020/01/31 06:18:39.9	93.100	0.250	0.110	0.870
2020/01/31 06:18:40.0	93.060	0.230	0.150	0.910
2020/01/31 06:18:40.1	93.020	0.200	0.190	0.950
2020/01/31 06:18:40.2	92.990	0.180	0.240	0.990
2020/01/31 06:18:40.3	92.950	0.160	0.280	1.020
2020/01/31 06:18:40.4	92.920	0.130	0.310	1.050
2020/01/31 06:18:40.5	92.880	0.110	0.350	1.080
2020/01/31 06:18:40.6	92.850	0.080	0.380	1.100
2020/01/31 06:18:40.7	92.810	0.060	0.400	1.120
2020/01/31 06:18:40.8	92.790	0.030	0.420	1.130
2020/01/31 06:18:40.9	92.760	0.010	0.440	1.140
2020/01/31 06:18:41.0	92.740	-0.010	0.450	1.140
2020/01/31 06:18:41.1	92.720	-0.030	0.450	1.140
2020/01/31 06:18:41.2	92.700	-0.050	0.450	1.130
2020/01/31 06:18:41.3	92.690	-0.060	0.440	1.110
2020/01/31 06:18:41.4	92.680	-0.080	0.430	1.090
2020/01/31 06:18:41.5	92.680	-0.090	0.410	1.060
2020/01/31 06:18:41.6	92.670	-0.090	0.380	1.020
2020/01/31 06:18:41.7	92.680	-0.090	0.340	0.990
2020/01/31 06:18:41.8	92.680	-0.090	0.300	0.940
2020/01/31 06:18:41.9	92.690	-0.090	0.260	0.890
2020/01/31 06:18:42.0	92.700	-0.080	0.210	0.840
2020/01/31 06:18:42.1	92.720	-0.070	0.150	0.790
2020/01/31 06:18:42.2	92.740	-0.060	0.090	0.730
2020/01/31 06:18:42.3	92.760	-0.050	0.020	0.680
2020/01/31 06:18:42.4	92.780	-0.030	-0.040	0.620
2020/01/31 06:18:42.5	92.810	-0.000	-0.120	0.570
2020/01/31 06:18:42.6	92.830	0.020	-0.190	0.510
2020/01/31 06:18:42.7	92.860	0.050	-0.260	0.460
2020/01/31 06:18:42.8	92.880	0.080	-0.340	0.410
2020/01/31 06:18:42.9	92.910	0.110	-0.410	0.360
2020/01/31 06:18:43.0	92.940	0.140	-0.480	0.320
2020/01/31 06:18:43.1	92.960	0.170	-0.560	0.280
2020/01/31 06:18:43.2	92.990	0.200	-0.630	0.250
2020/01/31 06:18:43.3	93.010	0.240	-0.690	0.220
2020/01/31 06:18:43.4	93.030	0.270	-0.750	0.190
2020/01/31 06:18:43.5	93.060	0.300	-0.810	0.170
2020/01/31 06:18:43.6	93.080	0.330	-0.860	0.150
2020/01/31 06:18:43.7	93.100	0.360	-0.910	0.130
2020/01/31 06:18:43.8	93.110	0.390	-0.950	0.120
2020/01/31 06:18:43.9	93.130	0.410	-0.980	0.120
2020/01/31 06:18:44.0	93.140	0.430	-1.010	0.120
2020/01/31 06:18:44.1	93.160	0.450	-1.030	0.120
2020/01/31 06:18:44.2	93.170	0.470	-1.040	0.120
2020/01/31 06:18:44.3	93.180	0.480	-1.050	0.130
2020/01/31 06:18:44.4	93.180	0.480	-1.050	0.150
2020/01/31 06:18:44.5	93.190	0.490	-1.050	0.160
2020/01/31 06:18:44.6	93.190	0.490	-1.030	0.180
2020/01/31 06:18:44.7	93.190	0.480	-1.010	0.200
2020/01/31 06:18:44.8	93.200	0.480	-0.990	0.220
2020/01/31 06:18:44.9	93.200	0.460	-0.950	0.250
2020/01/31 06:18:45.0	93.200	0.450	-0.920	0.270
2020/01/31 06:18:45.1	93.190	0.420	-0.870	0.300
2020/01/31 06:18:45.2	93.190	0.400	-0.820	0.330
2020/01/31 06:18:45.3	93.190	0.370	-0.760	0.360
2020/01/31 06:18:45.4	93.180	0.340	-0.700	0.390
2020/01/31 06:18:45.5	93.180	0.300	-0.630	0.430
2020/01/31 06:18:45.6	93.180	0.260	-0.560	0.460
2020/01/31 06:18:45.7	93.170	0.220	-0.490	0.500
2020/01/31 06:18:45.8	93.170	0.170	-0.410	0.540
2020/01/31 06:18:45.9	93.160	0.120	-0.330	0.580
2020/01/31 06:18:46.0	93.150	0.070	-0.240	0.630
2020/01/31 06:18:46.1	93.140	0.010	-0.150	0.670
2020/01/31 06:18:46.2	93.130	-0.040	-0.060	0.720
2020/01/31 06:18:46.3	93.120	-0.100	0.030	0.770
2020/01/31 06:18:46.4	93.110	-0.160	0.120	0.810
2020/01/31 06:18:46.5	93.100	-0.220	0.210	0.860
2020/01/31 06:18:46.6	93.090	-0.280	0.310	0.910
2020/01/31 06:18:46.7	93.080	-0.340	0.400	0.960
2020/01/31 06:18:46.8	93.060	-0.400	0.490	1.020
2020/01/31 06:18:46.9	93.050	-0.450	0.580	1.070
2020/01/31 06:18:47.0	93.040	-0.510	0.660	1.120
2020/01/31 06:18:47.1	93.030	-0.570	0.750	1.170
2020/01/31 06:18:47.2	93.020	-0.620	0.830	1.230
2020/01/31 06:18:47.3	93.010	-0.670	0.900	1.280
2020/01/31 06:18:47.4	93.000	-0.720	0.970	1.330
2020/01/31 06:18:47.5	93.000	-0.760	1.040	1.370
2020/01/31 06:18:47.6	92.990	-0.810	1.100	1.420
2020/01/31 06:18:47.7	92.980	-0.840	1.150	1.460
2020/01/31 06:18:47.8	92.980	-0.880	1.200	1.500
2020/01/31 06:18:47.9	92.970	-0.900	1.240	1.540
2020/01/31 06:18:48.0	92.970	-0.930	1.260	1.580
2020/01/31 06:18:48.1	92.970	-0.950	1.290	1.610
2020/01/31 06:18:48.2	92.970	-0.960	1.300	1.640
2020/01/31 06:18:48.3	92.970	-0.970	1.300	1.670
2020/01/31 06:18:48.4	92.980	-0.970	1.290	1.690
2020/01/31 06:18:48.5	92.980	-0.970	1.270	1.710
2020/01/31 06:18:48.6	92.990	-0.960	1.240	1.720
2020/01/31 06:18:48.7	93.000	-0.950	1.200	1.730
2020/01/31 06:18:48.8	93.010	-0.930	1.150	1.740
2020/01/31 06:18:48.9	93.020	-0.910	1.090	1.750
2020/01/31 06:18:49.0	93.030	-0.880	1.020	1.750
2020/01/31 06:18:49.1	93.040	-0.850	0.940	1.740
2020/01/31 06:18:49.2	93.050	-0.810	0.850	1.740
2020/01/31 06:18:49.3	93.070	-0.770	0.750	1.730
2020/01/31 06:18:49.4	93.080	-0.720	0.640	1.720
2020/01/31 06:18:49.5	93.100	-0.670	0.530	1.700
2020/01/31 06:18:49.6	93.110	-0.620	0.410	1.680
2020/01/31 06:18:49.7	93.130	-0.560	0.280	1.660
2020/01/31 06:18:49.8	93.140	-0.500	0.150	1.640
2020/01/31 06:18:49.9	93.160	-0.440	0.020	1.620
2020/01/31 06:18:50.0	93.170	-0.380	-0.110	1.590
2020/01/31 06:18:50.1	93.190	-0.320	-0.250	1.560
2020/01/31 06:18:50.2	93.210	-0.250	-0.390	1.530
2020/01/31 06:18:50.3	93.220	-0.190	-0.520	1.500
2020/01/31 06:18:50.4	93.230	-0.130	-0.660	1.470
2020/01/31 06:18:50.5	93.240	-0.060	-0.790	1.430
2020/01/31 06:18:50.6	93.250	-0.000	-0.920	1.400
2020/01/31 06:18:50.7	93.250	0.060	-1.040	1.370
2020/01/31 06:18:50.8	93.260	0.120	-1.150	1.330
2020/01/31 06:18:50.9	93.260	0.180	-1.260	1.300
2020/01/31 06:18:51.0	93.270	0.230	-1.360	1.270
2020/01/31 06:18:51.1	93.270	0.280	-1.450	1.230
2020/01/31 06:18:51.2	93.270	0.330	-1.530	1.200
2020/01/31 06:18:51.3	93.270	0.380	-1.600	1.170
2020/01/31 06:18:51.4	93.270	0.420	-1.660	1.140
2020/01/31 06:18:51.5	93.270	0.460	-1.710	1.100
2020/01/31 06:18:51.6	93.260	0.500	-1.740	1.070
2020/01/31 06:18:51.7	93.260	0.530	-1.760	1.050
2020/01/31 06:18:51.8	93.250	0.560	-1.770	1.020
2020/01/31 06:18:51.9	93.240	0.580	-1.770	0.990
2020/01/31 06:18:52.0	93.240	0.600	-1.760	0.960
2020/01/31 06:18:52.1	93.230	0.620	-1.730	0.940
2020/01/31 06:18:52.2	93.220	0.630	-1.690	0.920
2020/01/31 06:18:52.3	93.210	0.640	-1.650	0.890
2020/01/31 06:18:52.4	93.190	0.650	-1.590	0.870
2020/01/31 06:18:52.5	93.180	0.650	-1.520	0.850
2020/01/31 06:18:52.6	93.170	0.650	-1.450	0.830
2020/01/31 06:18:52.7	93.160	0.650	-1.370	0.810
2020/01/31 06:18:52.8	93.150	0.650	-1.280	0.800
2020/01/31 06:18:52.9	93.140	0.640	-1.190	0.780
2020/01/31 06:18:53.0	93.130	0.630	-1.090	0.760
2020/01/31 06:18:53.1	93.110	0.620	-0.990	0.750
2020/01/31 06:18:53.2	93.100	0.610	-0.890	0.730
2020/01/31 06:18:53.3	93.090	0.600	-0.790	0.710
2020/01/31 06:18:53.4	93.080	0.590	-0.690	0.700
2020/01/31 06:18:53.5	93.070	0.570	-0.580	0.680
2020/01/31 06:18:53.6	93.060	0.560	-0.490	0.670
2020/01/31 06:18:53.7	93.050	0.540	-0.390	0.650
2020/01/31 06:18:53.8	93.040	0.530	-0.300	0.640
2020/01/31 06:18:53.9	93.030	0.510	-0.210	0.620
2020/01/31 06:18:54.0	93.020	0.500	-0.120	0.610
2020/01/31 06:18:54.1	93.010	0.490	-0.050	0.590
2020/01/31 06:18:54.2	93.000	0.470	0.030	0.580
2020/01/31 06:18:54.3	92.990	0.460	0.100	0.560
2020/01/31 06:18:54.4	92.980	0.450	0.160	0.550
2020/01/31 06:18:54.5	92.970	0.440	0.220	0.530
2020/01/31 06:18:54.6	92.960	0.430	0.270	0.510
2020/01/31 06:18:54.7	92.950	0.420	0.310	0.490
2020/01/31 06:18:54.8	92.940	0.410	0.350	0.470
2020/01/31 06:18:54.9	92.930	0.400	0.380	0.450
2020/01/31 06:18:55.0	92.910	0.390	0.410	0.420
2020/01/31 06:18:55.1	92.900	0.380	0.430	0.400
2020/01/31 06:18:55.2	92.890	0.370	0.450	0.370
2020/01/31 06:18:55.3	92.870	0.360	0.470	0.350
2020/01/31 06:18:55.4	92.860	0.350	0.480	0.320
2020/01/31 06:18:55.5	92.850	0.340	0.490	0.300
2020/01/31 06:18:55.6	92.840	0.320	0.490	0.270
2020/01/31 06:18:55.7	92.830	0.310	0.500	0.240
2020/01/31 06:18:55.8	92.820	0.300	0.500	0.220
2020/01/31 06:18:55.9	92.810	0.280	0.500	0.190
2020/01/31 06:18:56.0	92.800	0.260	0.500	0.160
2020/01/31 06:18:56.1	92.800	0.240	0.500	0.130
2020/01/31 06:18:56.2	92.800	0.220	0.500	0.100
2020/01/31 06:18:56.3	92.800	0.200	0.500	0.080
2020/01/31 06:18:56.4	92.790	0.170	0.490	0.050
2020/01/31 06:18:56.5	92.790	0.150	0.490	0.030
2020/01/31 06:18:56.6	92.800	0.120	0.490	0.000
2020/01/31 06:18:56.7	92.800	0.090	0.480	-0.020
2020/01/31 06:18:56.8	92.800	0.060	0.480	-0.040
2020/01/31 06:18:56.9	92.810	0.030	0.480	-0.060
2020/01/31 06:18:57.0	92.820	-0.010	0.480	-0.070
2020/01/31 06:18:57.1	92.830	-0.040	0.470	-0.090
2020/01/31 06:18:57.2	92.840	-0.080	0.470	-0.090
2020/01/31 06:18:57.3	92.850	-0.120	0.460	-0.100
2020/01/31 06:18:57.4	92.870	-0.150	0.460	-0.110
2020/01/31 06:18:57.5	92.890	-0.190	0.450	-0.110
2020/01/31 06:18:57.6	92.910	-0.230	0.450	-0.110
2020/01/31 06:18:57.7	92.930	-0.260	0.440	-0.110
2020/01/31 06:18:57.8	92.950	-0.300	0.430	-0.110
2020/01/31 06:18:57.9	92.970	-0.330	0.420	-0.100
2020/01/31 06:18:58.0	93.000	-0.360	0.410	-0.090
2020/01/31 06:18:58.1	93.030	-0.390	0.390	-0.080
2020/01/31 06:18:58.2	93.060	-0.420	0.380	-0.060
2020/01/31 06:18:58.3	93.090	-0.440	0.360	-0.050
2020/01/31 06:18:58.4	93.120	-0.470	0.340	-0.030
2020/01/31 06:18:58.5	93.150	-0.490	0.310	-0.000
2020/01/31 06:18:58.6	93.180	-0.500	0.280	0.020
2020/01/31 06:18:58.7	93.210	-0.520	0.250	0.050
2020/01/31 06:18:58.8	93.240	-0.520	0.220	0.080
2020/01/31 06:18:58.9	93.280	-0.530	0.180	0.110
2020/01/31 06:18:59.0	93.310	-0.530	0.140	0.140
2020/01/31 06:18:59.1	93.330	-0.530	0.100	0.180
2020/01/31 06:18:59.2	93.360	-0.530	0.050	0.220
2020/01/31 06:18:59.3	93.390	-0.520	0.000	0.270
2020/01/31 06:18:59.4	93.420	-0.500	-0.050	0.310
2020/01/31 06:18:59.5	93.440	-0.490	-0.100	0.350
2020/01/31 06:18:59.6	93.460	-0.470	-0.160	0.400
2020/01/31 06:18:59.7	93.480	-0.440	-0.220	0.450
2020/01/31 06:18:59.8	93.500	-0.420	-0.280	0.500
2020/01/31 06:18:59.9	93.520	-0.390	-0.340	0.550
2020/01/31 06:19:00.0	93.540	-0.360	-0.400	0.600
2020/01/31 06:19:00.1	93.560	-0.320	-0.460	0.650
2020/01/31 06:19:00.2	93.570	-0.290	-0.530	0.700
2020/01/31 06:19:00.3	93.580	-0.250	-0.590	0.760
2020/01/31 06:19:00.4	93.590	-0.210	-0.650	0.810
2020/01/31 06:19:00.5	93.600	-0.170	-0.710	0.860
2020/01/31 06:19:00.6	93.610	-0.130	-0.770	0.920
2020/01/31 06:19:00.7	93.620	-0.090	-0.820	0.970
2020/01/31 06:19:00.8	93.630	-0.050	-0.880	1.020
2020/01/31 06:19:00.9	93.640	-0.010	-0.920	1.080
2020/01/31 06:19:01.0	93.640	0.030	-0.970	1.130
2020/01/31 06:19:01.1	93.640	0.060	-1.010	1.190
2020/01/31 06:19:01.2	93.640	0.100	-1.050	1.250
2020/01/31 06:19:01.3	93.640	0.130	-1.080	1.310
2020/01/31 06:19:01.4	93.640	0.160	-1.100	1.360
2020/01/31 06:19:01.5	93.640	0.190	-1.120	1.420
2020/01/31 06:19:01.6	93.630	0.220	-1.130	1.480
2020/01/31 06:19:01.7	93.630	0.240	-1.140	1.540
2020/01/31 06:19:01.8	93.620	0.260	-1.140	1.590
2020/01/31 06:19:01.9	93.610	0.280	-1.140	1.650
2020/01/31 06:19:02.0	93.600	0.290	-1.120	1.710
2020/01/31 06:19:02.1	93.590	0.300	-1.100	1.770
2020/01/31 06:19:02.2	93.570	0.310	-1.080	1.820
2020/01/31 06:19:02.3	93.560	0.310	-1.040	1.880
2020/01/31 06:19:02.4	93.550	0.310	-1.000	1.930
2020/01/31 06:19:02.5	93.530	0.300	-0.960	1.980
2020/01/31 06:19:02.6	93.510	0.300	-0.900	2.030
2020/01/31 06:19:02.7	93.500	0.290	-0.840	2.070
2020/01/31 06:19:02.8	93.480	0.270	-0.780	2.120
2020/01/31 06:19:02.9	93.460	0.250	-0.710	2.160
2020/01/31 06:19:03.0	93.440	0.230	-0.630	2.200
2020/01/31 06:19:03.1	93.430	0.210	-0.550	2.230
2020/01/31 06:19:03.2	93.400	0.180	-0.470	2.260
2020/01/31 06:19:03.3	93.390	0.160	-0.380	2.290
2020/01/31 06:19:03.4	93.370	0.120	-0.290	2.310
2020/01/31 06:19:03.5	93.350	0.090	-0.200	2.330
2020/01/31 06:19:03.6	93.340	0.060	-0.100	2.340
2020/01/31 06:19:03.7	93.320	0.020	-0.010	2.350
2020/01/31 06:19:03.8	93.310	-0.020	0.090	2.360
2020/01/31 06:19:03.9	93.300	-0.050	0.180	2.360
2020/01/31 06:19:04.0	93.280	-0.090	0.280	2.350
2020/01/31 06:19:04.1	93.270	-0.130	0.370	2.340
2020/01/31 06:19:04.2	93.270	-0.170	0.470	2.330
2020/01/31 06:19:04.3	93.260	-0.210	0.550	2.310
2020/01/31 06:19:04.4	93.250	-0.250	0.640	2.290
2020/01/31 06:19:04.5	93.240	-0.290	0.720	2.260
2020/01/31 06:19:04.6	93.240	-0.330	0.790	2.220
2020/01/31 06:19:04.7	93.240	-0.370	0.860	2.180
2020/01/31 06:19:04.8	93.230	-0.410	0.930	2.130
2020/01/31 06:19:04.9	93.230	-0.450	0.980	2.070
2020/01/31 06:19:05.0	93.230	-0.480	1.030	2.010
2020/01/31 06:19:05.1	93.240	-0.510	1.080	1.950
2020/01/31 06:19:05.2	93.240	-0.540	1.110	1.880
2020/01/31 06:19:05.3	93.240	-0.570	1.140	1.800
2020/01/31 06:19:05.4	93.250	-0.600	1.160	1.720
2020/01/31 06:19:05.5	93.250	-0.620	1.170	1.640
2020/01/31 06:19:05.6	93.260	-0.640	1.170	1.550
2020/01/31 06:19:05.7	93.270	-0.650	1.160	1.450
2020/01/31 06:19:05.8	93.280	-0.660	1.150	1.360
2020/01/31 06:19:05.9	93.300	-0.670	1.120	1.260
2020/01/31 06:19:06.0	93.310	-0.680	1.090	1.150
2020/01/31 06:19:06.1	93.320	-0.680	1.040	1.050
2020/01/31 06:19:06.2	93.330	-0.670	0.990	0.940
2020/01/31 06:19:06.3	93.350	-0.660	0.930	0.840
2020/01/31 06:19:06.4	93.370	-0.650	0.860	0.730
2020/01/31 06:19:06.5	93.380	-0.630	0.780	0.620
2020/01/31 06:19:06.6	93.400	-0.610	0.690	0.510
2020/01/31 06:19:06.7	93.410	-0.580	0.600	0.410
2020/01/31 06:19:06.8	93.430	-0.550	0.490	0.300
2020/01/31 06:19:06.9	93.450	-0.510	0.380	0.200
2020/01/31 06:19:07.0	93.460	-0.470	0.270	0.100
2020/01/31 06:19:07.1	93.480	-0.430	0.150	0.000
2020/01/31 06:19:07.2	93.490	-0.380	0.020	-0.090
2020/01/31 06:19:07.3	93.510	-0.330	-0.110	-0.180
2020/01/31 06:19:07.4	93.520	-0.270	-0.250	-0.270
2020/01/31 06:19:07.5	93.530	-0.210	-0.380	-0.350
2020/01/31 06:19:07.6	93.540	-0.140	-0.520	-0.430
2020/01/31 06:19:07.7	93.550	-0.080	-0.650	-0.500
2020/01/31 06:19:07.8	93.560	-0.010	-0.790	-0.570
2020/01/31 06:19:07.9	93.570	0.060	-0.930	-0.640
2020/01/31 06:19:08.0	93.570	0.130	-1.060	-0.700
2020/01/31 06:19:08.1	93.580	0.200	-1.180	-0.760
2020/01/31 06:19:08.2	93.580	0.280	-1.310	-0.810
2020/01/31 06:19:08.3	93.590	0.350	-1.420	-0.860
2020/01/31 06:19:08.4	93.590	0.420	-1.530	-0.900
2020/01/31 06:19:08.5	93.590	0.490	-1.630	-0.940
2020/01/31 06:19:08.6	93.600	0.560	-1.720	-0.980
2020/01/31 06:19:08.7	93.600	0.620	-1.800	-1.020
2020/01/31 06:19:08.8	93.610	0.680	-1.870	-1.050
2020/01/31 06:19:08.9	93.610	0.740	-1.930	-1.080
2020/01/31 06:19:09.0	93.620	0.800	-1.970	-1.100
2020/01/31 06:19:09.1	93.620	0.840	-2.000	-1.120
2020/01/31 06:19:09.2	93.620	0.890	-2.010	-1.130
2020/01/31 06:19:09.3	93.630	0.920	-2.010	-1.140
2020/01/31 06:19:09.4	93.630	0.950	-1.990	-1.140
2020/01/31 06:19:09.5	93.640	0.980	-1.960	-1.140
2020/01/31 06:19:09.6	93.650	1.000	-1.910	-1.140
2020/01/31 06:19:09.7	93.650	1.010	-1.850	-1.120
2020/01/31 06:19:09.8	93.660	1.010	-1.770	-1.110
2020/01/31 06:19:09.9	93.660	1.010	-1.680	-1.080
2020/01/31 06:19:10.0	93.670	1.000	-1.580	-1.050
2020/01/31 06:19:10.1	93.670	0.980	-1.470	-1.020
2020/01/31 06:19:10.2	93.670	0.960	-1.340	-0.970
2020/01/31 06:19:10.3	93.670	0.930	-1.200	-0.930
2020/01/31 06:19:10.4	93.670	0.900	-1.060	-0.870
2020/01/31 06:19:10.5	93.670	0.850	-0.910	-0.810
2020/01/31 06:19:10.6	93.670	0.810	-0.750	-0.750
2020/01/31 06:19:10.7	93.670	0.760	-0.590	-0.680
2020/01/31 06:19:10.8	93.670	0.700	-0.430	-0.610
2020/01/31 06:19:10.9	93.660	0.640	-0.260	-0.530
2020/01/31 06:19:11.0	93.650	0.580	-0.100	-0.440
2020/01/31 06:19:11.1	93.650	0.510	0.070	-0.350
2020/01/31 06:19:11.2	93.640	0.440	0.240	-0.260
2020/01/31 06:19:11.3	93.630	0.370	0.400	-0.160
2020/01/31 06:19:11.4	93.620	0.300	0.550	-0.060
2020/01/31 06:19:11.5	93.610	0.230	0.700	0.050
2020/01/31 06:19:11.6	93.600	0.160	0.840	0.150
2020/01/31 06:19:11.7	93.590	0.090	0.970	0.260
2020/01/31 06:19:11.8	93.580	0.020	1.090	0.360
2020/01/31 06:19:11.9	93.580	-0.040	1.200	0.470
2020/01/31 06:19:12.0	93.570	-0.100	1.290	0.570
2020/01/31 06:19:12.1	93.570	-0.160	1.380	0.680
2020/01/31 06:19:12.2	93.570	-0.220	1.450	0.780
2020/01/31 06:19:12.3	93.570	-0.270	1.500	0.880
2020/01/31 06:19:12.4	93.580	-0.320	1.540	0.970
2020/01/31 06:19:12.5	93.580	-0.360	1.560	1.060
2020/01/31 06:19:12.6	93.590	-0.390	1.570	1.150
2020/01/31 06:19:12.7	93.600	-0.420	1.570	1.230
2020/01/31 06:19:12.8	93.610	-0.450	1.540	1.300
2020/01/31 06:19:12.9	93.630	-0.460	1.510	1.370
2020/01/31 06:19:13.0	93.650	-0.480	1.460	1.440
2020/01/31 06:19:13.1	93.670	-0.480	1.390	1.500
2020/01/31 06:19:13.2	93.690	-0.480	1.320	1.560
2020/01/31 06:19:13.3	93.710	-0.480	1.230	1.610
2020/01/31 06:19:13.4	93.730	-0.470	1.130	1.660
2020/01/31 06:19:13.5	93.760	-0.450	1.020	1.710
2020/01/31 06:19:13.6	93.780	-0.440	0.910	1.760
2020/01/31 06:19:13.7	93.800	-0.410	0.780	1.800
2020/01/31 06:19:13.8	93.820	-0.390	0.660	1.850
2020/01/31 06:19:13.9	93.840	-0.360	0.530	1.890
2020/01/31 06:19:14.0	93.860	-0.320	0.390	1.930
2020/01/31 06:19:14.1	93.870	-0.290	0.260	1.970
2020/01/31 06:19:14.2	93.890	-0.250	0.120	2.010
2020/01/31 06:19:14.3	93.900	-0.220	-0.010	2.060
2020/01/31 06:19:14.4	93.910	-0.180	-0.140	2.100
2020/01/31 06:19:14.5	93.910	-0.140	-0.260	2.140
2020/01/31 06:19:14.6	93.920	-0.110	-0.380	2.180
2020/01/31 06:19:14.7	93.920	-0.070	-0.490	2.220
2020/01/31 06:19:14.8	93.920	-0.030	-0.600	2.260
2020/01/31 06:19:14.9	93.910	-0.000	-0.690	2.290
2020/01/31 06:19:15.0	93.910	0.030	-0.780	2.330
2020/01/31 06:19:15.1	93.910	0.060	-0.860	2.370
2020/01/31 06:19:15.2	93.900	0.080	-0.920	2.400
2020/01/31 06:19:15.3	93.890	0.110	-0.980	2.430
2020/01/31 06:19:15.4	93.880	0.130	-1.020	2.460
2020/01/31 06:19:15.5	93.880	0.140	-1.050	2.490
2020/01/31 06:19:15.6	93.870	0.150	-1.070	2.520
2020/01/31 06:19:15.7	93.860	0.160	-1.080	2.540
2020/01/31 06:19:15.8	93.850	0.170	-1.080	2.570
2020/01/31 06:19:15.9	93.840	0.170	-1.070	2.590
2020/01/31 06:19:16.0	93.830	0.160	-1.040	2.600
2020/01/31 06:19:16.1	93.830	0.160	-1.010	2.620
2020/01/31 06:19:16.2	93.820	0.150	-0.970	2.630
2020/01/31 06:19:16.3	93.810	0.130	-0.920	2.630
2020/01/31 06:19:16.4	93.810	0.120	-0.860	2.640
2020/01/31 06:19:16.5	93.810	0.100	-0.800	2.640
2020/01/31 06:19:16.6	93.810	0.080	-0.740	2.640
2020/01/31 06:19:16.7	93.810	0.050	-0.670	2.630
2020/01/31 06:19:16.8	93.820	0.030	-0.590	2.610
2020/01/31 06:19:16.9	93.820	0.000	-0.520	2.600
2020/01/31 06:19:17.0	93.830	-0.020	-0.440	2.580
2020/01/31 06:19:17.1	93.840	-0.050	-0.370	2.550
2020/01/31 06:19:17.2	93.850	-0.080	-0.290	2.520
2020/01/31 06:19:17.3	93.870	-0.100	-0.220	2.480
2020/01/31 06:19:17.4	93.890	-0.130	-0.160	2.440
2020/01/31 06:19:17.5	93.910	-0.160	-0.090	2.400
2020/01/31 06:19:17.6	93.930	-0.180	-0.040	2.350
2020/01/31 06:19:17.7	93.950	-0.200	0.020	2.290
2020/01/31 06:19:17.8	93.980	-0.220	0.060	2.230
2020/01/31 06:19:17.9	94.010	-0.240	0.100	2.170
2020/01/31 06:19:18.0	94.030	-0.260	0.140	2.100
2020/01/31 06:19:18.1	94.060	-0.270	0.170	2.030
2020/01/31 06:19:18.2	94.090	-0.280	0.190	1.950
2020/01/31 06:19:18.3	94.120	-0.290	0.200	1.880
2020/01/31 06:19:18.4	94.150	-0.300	0.210	1.800
2020/01/31 06:19:18.5	94.170	-0.300	0.210	1.720
2020/01/31 06:19:18.6	94.200	-0.310	0.210	1.640
2020/01/31 06:19:18.7	94.220	-0.310	0.200	1.560
2020/01/31 06:19:18.8	94.240	-0.300	0.180	1.480
2020/01/31 06:19:18.9	94.260	-0.300	0.170	1.400
2020/01/31 06:19:19.0	94.270	-0.290	0.140	1.320
2020/01/31 06:19:19.1	94.280	-0.280	0.110	1.240
2020/01/31 06:19:19.2	94.290	-0.270	0.080	1.160
2020/01/31 06:19:19.3	94.290	-0.260	0.050	1.080
2020/01/31 06:19:19.4	94.300	-0.250	0.010	0.990
2020/01/31 06:19:19.5	94.290	-0.230	-0.030	0.920
2020/01/31 06:19:19.6	94.290	-0.220	-0.070	0.840
2020/01/31 06:19:19.7	94.280	-0.200	-0.110	0.760
2020/01/31 06:19:19.8	94.270	-0.190	-0.140	0.680
2020/01/31 06:19:19.9	94.260	-0.170	-0.180	0.610
2020/01/31 06:19:20.0	94.240	-0.160	-0.220	0.540
2020/01/31 06:19:20.1	94.220	-0.140	-0.250	0.460
2020/01/31 06:19:20.2	94.200	-0.130	-0.280	0.390
2020/01/31 06:19:20.3	94.180	-0.120	-0.310	0.320
2020/01/31 06:19:20.4	94.150	-0.100	-0.340	0.250
2020/01/31 06:19:20.5	94.130	-0.090	-0.360	0.190
2020/01/31 06:19:20.6	94.100	-0.080	-0.380	0.130
2020/01/31 06:19:20.7	94.080	-0.070	-0.400	0.060
2020/01/31 06:19:20.8	94.050	-0.070	-0.410	0.010
2020/01/31 06:19:20.9	94.030	-0.060	-0.420	-0.050
2020/01/31 06:19:21.0	94.000	-0.050	-0.430	-0.100
2020/01/31 06:19:21.1	93.980	-0.050	-0.430	-0.150
2020/01/31 06:19:21.2	93.950	-0.050	-0.430	-0.200
2020/01/31 06:19:21.3	93.930	-0.050	-0.420	-0.250
2020/01/31 06:19:21.4	93.910	-0.040	-0.420	-0.290
2020/01/31 06:19:21.5	93.890	-0.040	-0.410	-0.330
2020/01/31 06:19:21.6	93.870	-0.050	-0.390	-0.370
2020/01/31 06:19:21.7	93.850	-0.050	-0.380	-0.400
2020/01/31 06:19:21.8	93.830	-0.050	-0.360	-0.430
2020/01/31 06:19:21.9	93.820	-0.050	-0.340	-0.460
2020/01/31 06:19:22.0	93.810	-0.050	-0.320	-0.490
2020/01/31 06:19:22.1	93.790	-0.060	-0.300	-0.510
2020/01/31 06:19:22.2	93.780	-0.060	-0.280	-0.530
2020/01/31 06:19:22.3	93.780	-0.060	-0.260	-0.550
2020/01/31 06:19:22.4	93.770	-0.060	-0.240	-0.570
2020/01/31 06:19:22.5	93.760	-0.060	-0.220	-0.580
2020/01/31 06:19:22.6	93.760	-0.060	-0.200	-0.590
2020/01/31 06:19:22.7	93.760	-0.060	-0.180	-0.600
2020/01/31 06:19:22.8	93.760	-0.060	-0.170	-0.610
2020/01/31 06:19:22.9	93.760	-0.050	-0.160	-0.610
2020/01/31 06:19:23.0	93.760	-0.050	-0.150	-0.620
2020/01/31 06:19:23.1	93.760	-0.040	-0.140	-0.620
2020/01/31 06:19:23.2	93.750	-0.030	-0.140	-0.610
2020/01/31 06:19:23.3	93.750	-0.020	-0.130	-0.600
2020/01/31 06:19:23.4	93.750	-0.010	-0.130	-0.590
2020/01/31 06:19:23.5	93.750	0.000	-0.140	-0.580
2020/01/31 06:19:23.6	93.750	0.020	-0.140	-0.570
2020/01/31 06:19:23.7	93.750	0.040	-0.150	-0.550
2020/01/31 06:19:23.8	93.750	0.050	-0.160	-0.530
2020/01/31 06:19:23.9	93.740	0.070	-0.170	-0.510
2020/01/31 06:19:24.0	93.740	0.090	-0.180	-0.490
2020/01/31 06:19:24.1	93.730	0.120	-0.200	-0.460
2020/01/31 06:19:24.2	93.730	0.140	-0.210	-0.440
2020/01/31 06:19:24.3	93.730	0.160	-0.230	-0.410
2020/01/31 06:19:24.4	93.720	0.180	-0.250	-0.380
2020/01/31 06:19:24.5	93.710	0.210	-0.260	-0.350
2020/01/31 06:19:24.6	93.710	0.230	-0.280	-0.320
2020/01/31 06:19:24.7	93.700	0.250	-0.290	-0.290
2020/01/31 06:19:24.8	93.700	0.270	-0.310	-0.260
2020/01/31 06:19:24.9	93.690	0.300	-0.320	-0.230
2020/01/31 06:19:25.0	93.690	0.320	-0.330	-0.210
2020/01/31 06:19:25.1	93.680	0.330	-0.340	-0.180
2020/01/31 06:19:25.2	93.680	0.350	-0.350	-0.160
2020/01/31 06:19:25.3	93.680	0.370	-0.360	-0.130
2020/01/31 06:19:25.4	93.680	0.380	-0.360	-0.120
2020/01/31 06:19:25.5	93.690	0.390	-0.360	-0.100
2020/01/31 06:19:25.6	93.690	0.400	-0.360	-0.080
2020/01/31 06:19:25.7	93.700	0.410	-0.350	-0.070
2020/01/31 06:19:25.8	93.710	0.410	-0.340	-0.050
2020/01/31 06:19:25.9	93.720	0.410	-0.330	-0.040
2020/01/31 06:19:26.0	93.730	0.410	-0.320	-0.030
2020/01/31 06:19:26.1	93.750	0.410	-0.300	-0.020
2020/01/31 06:19:26.2	93.770	0.400	-0.270	-0.010
2020/01/31 06:19:26.3	93.790	0.400	-0.250	0.010
2020/01/31 06:19:26.4	93.810	0.390	-0.220	0.020
2020/01/31 06:19:26.5	93.830	0.380	-0.190	0.040
2020/01/31 06:19:26.6	93.850	0.360	-0.150	0.060
2020/01/31 06:19:26.7	93.870	0.350	-0.120	0.080
2020/01/31 06:19:26.8	93.890	0.330	-0.080	0.100
2020/01/31 06:19:26.9	93.910	0.310	-0.040	0.130
2020/01/31 06:19:27.0	93.940	0.290	0.000	0.170
2020/01/31 06:19:27.1	93.960	0.270	0.050	0.200
2020/01/31 06:19:27.2	93.980	0.240	0.090	0.250
2020/01/31 06:19:27.3	94.000	0.220	0.130	0.290
2020/01/31 06:19:27.4	94.020	0.190	0.180	0.340
2020/01/31 06:19:27.5	94.030	0.170	0.220	0.390
2020/01/31 06:19:27.6	94.050	0.150	0.260	0.450
2020/01/31 06:19:27.7	94.070	0.120	0.300	0.510
2020/01/31 06:19:27.8	94.080	0.100	0.340	0.570
2020/01/31 06:19:27.9	94.100	0.070	0.380	0.630
2020/01/31 06:19:28.0	94.110	0.050	0.410	0.700
2020/01/31 06:19:28.1	94.120	0.030	0.440	0.760
2020/01/31 06:19:28.2	94.140	0.010	0.460	0.830
2020/01/31 06:19:28.3	94.150	-0.010	0.480	0.900
2020/01/31 06:19:28.4	94.160	-0.020	0.500	0.960
2020/01/31 06:19:28.5	94.170	-0.040	0.510	1.030
2020/01/31 06:19:28.6	94.180	-0.050	0.510	1.100
2020/01/31 06:19:28.7	94.190	-0.060	0.510	1.160
2020/01/31 06:19:28.8	94.190	-0.070	0.500	1.230
2020/01/31 06:19:28.9	94.200	-0.080	0.490	1.290
2020/01/31 06:19:29.0	94.200	-0.080	0.470	1.350
2020/01/31 06:19:29.1	94.210	-0.080	0.450	1.420
2020/01/31 06:19:29.2	94.210	-0.080	0.420	1.480
2020/01/31 06:19:29.3	94.210	-0.070	0.380	1.540
2020/01/31 06:19:29.4	94.210	-0.070	0.340	1.600
2020/01/31 06:19:29.5	94.200	-0.060	0.290	1.650
2020/01/31 06:19:29.6	94.200	-0.050	0.240	1.710
2020/01/31 06:19:29.7	94.190	-0.040	0.180	1.760
2020/01/31 06:19:29.8	94.180	-0.020	0.120	1.820
2020/01/31 06:19:29.9	94.170	-0.000	0.060	1.870
2020/01/31 06:19:30.0	94.150	0.010	-0.010	1.930
2020/01/31 06:19:30.1	94.140	0.030	-0.080	1.980
2020/01/31 06:19:30.2	94.120	0.050	-0.160	2.030
2020/01/31 06:19:30.3	94.100	0.080	-0.230	2.080
2020/01/31 06:19:30.4	94.080	0.100	-0.310	2.130
2020/01/31 06:19:30.5	94.050	0.120	-0.380	2.180
2020/01/31 06:19:30.6	94.030	0.140	-0.460	2.230
2020/01/31 06:19:30.7	94.000	0.160	-0.530	2.280
2020/01/31 06:19:30.8	93.980	0.180	-0.610	2.330
2020/01/31 06:19:30.9	93.950	0.200	-0.680	2.380
2020/01/31 06:19:31.0	93.920	0.220	-0.740	2.420
2020/01/31 06:19:31.1	93.890	0.240	-0.800	2.470
2020/01/31 06:19:31.2	93.860	0.250	-0.860	2.510
2020/01/31 06:19:31.3	93.840	0.270	-0.920	2.550
2020/01/31 06:19:31.4	93.810	0.280	-0.960	2.590
2020/01/31 06:19:31.5	93.780	0.280	-1.000	2.630
2020/01/31 06:19:31.6	93.760	0.290	-1.030	2.660
2020/01/31 06:19:31.7	93.730	0.290	-1.050	2.690
2020/01/31 06:19:31.8	93.710	0.280	-1.070	2.720
2020/01/31 06:19:31.9	93.680	0.270	-1.080	2.750
2020/01/31 06:19:32.0	93.660	0.260	-1.080	2.780
2020/01/31 06:19:32.1	93.640	0.250	-1.060	2.800
2020/01/31 06:19:32.2	93.620	0.230	-1.040	2.810
2020/01/31 06:19:32.3	93.600	0.210	-1.020	2.820
2020/01/31 06:19:32.4	93.580	0.180	-0.980	2.830
2020/01/31 06:19:32.5	93.560	0.150	-0.940	2.830
2020/01/31 06:19:32.6	93.550	0.120	-0.890	2.830
2020/01/31 06:19:32.7	93.530	0.090	-0.830	2.830
2020/01/31 06:19:32.8	93.520	0.050	-0.760	2.810
2020/01/31 06:19:32.9	93.510	0.010	-0.690	2.800
2020/01/31 06:19:33.0	93.500	-0.040	-0.610	2.770
2020/01/31 06:19:33.1	93.490	-0.080	-0.530	2.740
2020/01/31 06:19:33.2	93.480	-0.130	-0.440	2.700
2020/01/31 06:19:33.3	93.480	-0.170	-0.360	2.660
2020/01/31 06:19:33.4	93.480	-0.220	-0.270	2.610
2020/01/31 06:19:33.5	93.480	-0.270	-0.180	2.550
2020/01/31 06:19:33.6	93.480	-0.320	-0.080	2.480
2020/01/31 06:19:33.7	93.480	-0.370	0.000	2.420
2020/01/31 06:19:33.8	93.490	-0.420	0.090	2.340
2020/01/31 06:19:33.9	93.490	-0.460	0.180	2.260
2020/01/31 06:19:34.0	93.500	-0.510	0.260	2.170
2020/01/31 06:19:34.1	93.510	-0.550	0.330	2.080
2020/01/31 06:19:34.2	93.530	-0.590	0.400	1.980
2020/01/31 06:19:34.3	93.540	-0.620	0.470	1.880
2020/01/31 06:19:34.4	93.550	-0.650	0.520	1.780
2020/01/31 06:19:34.5	93.570	-0.680	0.580	1.670
2020/01/31 06:19:34.6	93.580	-0.710	0.620	1.560
2020/01/31 06:19:34.7	93.600	-0.730	0.650	1.440
2020/01/31 06:19:34.8	93.620	-0.740	0.680	1.330
2020/01/31 06:19:34.9	93.640	-0.760	0.700	1.210
2020/01/31 06:19:35.0	93.660	-0.760	0.700	1.090
2020/01/31 06:19:35.1	93.680	-0.760	0.710	0.970
2020/01/31 06:19:35.2	93.700	-0.760	0.700	0.840
2020/01/31 06:19:35.3	93.720	-0.750	0.680	0.720
2020/01/31 06:19:35.4	93.740	-0.740	0.650	0.600
2020/01/31 06:19:35.5	93.760	-0.720	0.620	0.480
2020/01/31 06:19:35.6	93.780	-0.700	0.580	0.360
2020/01/31 06:19:35.7	93.800	-0.670	0.530	0.240
2020/01/31 06:19:35.8	93.820	-0.640	0.480	0.130
2020/01/31 06:19:35.9	93.840	-0.610	0.410	0.010
2020/01/31 06:19:36.0	93.860	-0.570	0.350	-0.100
2020/01/31 06:19:36.1	93.870	-0.520	0.280	-0.210
2020/01/31 06:19:36.2	93.900	-0.480	0.200	-0.310
2020/01/31 06:19:36.3	93.910	-0.430	0.120	-0.420
2020/01/31 06:19:36.4	93.930	-0.380	0.040	-0.510
2020/01/31 06:19:36.5	93.940	-0.320	-0.040	-0.610
2020/01/31 06:19:36.6	93.950	-0.270	-0.120	-0.700
2020/01/31 06:19:36.7	93.960	-0.210	-0.210	-0.790
2020/01/31 06:19:36.8	93.970	-0.160	-0.290	-0.870
2020/01/31 06:19:36.9	93.980	-0.100	-0.370	-0.940
2020/01/31 06:19:37.0	93.990	-0.040	-0.450	-1.010
2020/01/31 06:19:37.1	93.990	0.010	-0.530	-1.080
2020/01/31 06:19:37.2	94.010	0.070	-0.600	-1.140
2020/01/31 06:19:37.3	94.010	0.120	-0.660	-1.190
2020/01/31 06:19:37.4	94.010	0.170	-0.730	-1.240
2020/01/31 06:19:37.5	94.010	0.220	-0.780	-1.280
2020/01/31 06:19:37.6	94.010	0.270	-0.830	-1.320
2020/01/31 06:19:37.7	94.010	0.310	-0.870	-1.350
2020/01/31 06:19:37.8	94.010	0.350	-0.910	-1.370
2020/01/31 06:19:37.9	94.000	0.380	-0.930	-1.390
2020/01/31 06:19:38.0	94.000	0.410	-0.950	-1.400
2020/01/31 06:19:38.1	93.990	0.430	-0.960	-1.410
2020/01/31 06:19:38.2	93.980	0.450	-0.960	-1.410
2020/01/31 06:19:38.3	93.970	0.470	-0.950	-1.400
2020/01/31 06:19:38.4	93.960	0.480	-0.930	-1.390
2020/01/31 06:19:38.5	93.950	0.480	-0.900	-1.370
2020/01/31 06:19:38.6	93.930	0.480	-0.870	-1.350
2020/01/31 06:19:38.7	93.910	0.480	-0.830	-1.320
2020/01/31 06:19:38.8	93.890	0.470	-0.780	-1.290
2020/01/31 06:19:38.9	93.880	0.460	-0.720	-1.250
2020/01/31 06:19:39.0	93.850	0.440	-0.660	-1.210
2020/01/31 06:19:39.1	93.830	0.420	-0.590	-1.160
2020/01/31 06:19:39.2	93.810	0.390	-0.520	-1.110
2020/01/31 06:19:39.3	93.790	0.360	-0.440	-1.050
2020/01/31 06:19:39.4	93.770	0.330	-0.360	-1.000
2020/01/31 06:19:39.5	93.750	0.290	-0.280	-0.940
2020/01/31 06:19:39.6	93.720	0.260	-0.200	-0.880
2020/01/31 06:19:39.7	93.700	0.220	-0.110	-0.810
2020/01/31 06:19:39.8	93.680	0.180	-0.030	-0.750
2020/01/31 06:19:39.9	93.650	0.140	0.050	-0.680
2020/01/31 06:19:40.0	93.630	0.100	0.130	-0.620
2020/01/31 06:19:40.1	93.610	0.060	0.210	-0.550
2020/01/31 06:19:40.2	93.590	0.020	0.290	-0.480
2020/01/31 06:19:40.3	93.570	-0.020	0.360	-0.410
2020/01/31 06:19:40.4	93.560	-0.050	0.430	-0.340
2020/01/31 06:19:40.5	93.540	-0.090	0.490	-0.270
2020/01/31 06:19:40.6	93.530	-0.120	0.550	-0.210
2020/01/31 06:19:40.7	93.520	-0.150	0.590	-0.140
2020/01/31 06:19:40.8	93.510	-0.170	0.630	-0.070
2020/01/31 06:19:40.9	93.500	-0.190	0.670	-0.000
2020/01/31 06:19:41.0	93.490	-0.210	0.690	0.070
2020/01/31 06:19:41.1	93.490	-0.220	0.710	0.130
2020/01/31 06:19:41.2	93.490	-0.230	0.710	0.200
2020/01/31 06:19:41.3	93.480	-0.240	0.710	0.260
2020/01/31 06:19:41.4	93.480	-0.240	0.700	0.330
2020/01/31 06:19:41.5	93.480	-0.230	0.680	0.390
2020/01/31 06:19:41.6	93.490	-0.230	0.650	0.460
2020/01/31 06:19:41.7	93.490	-0.210	0.620	0.520
2020/01/31 06:19:41.8	93.490	-0.200	0.570	0.580
2020/01/31 06:19:41.9	93.500	-0.170	0.520	0.640
2020/01/31 06:19:42.0	93.510	-0.150	0.460	0.700
2020/01/31 06:19:42.1	93.510	-0.120	0.390	0.760
2020/01/31 06:19:42.2	93.520	-0.090	0.310	0.820
2020/01/31 06:19:42.3	93.530	-0.060	0.230	0.880
2020/01/31 06:19:42.4	93.540	-0.020	0.150	0.930
2020/01/31 06:19:42.5	93.550	0.020	0.060	0.990
2020/01/31 06:19:42.6	93.560	0.060	-0.040	1.040
2020/01/31 06:19:42.7	93.570	0.110	-0.130	1.090
2020/01/31 06:19:42.8	93.590	0.150	-0.230	1.150
2020/01/31 06:19:42.9	93.600	0.190	-0.320	1.200
2020/01/31 06:19:43.0	93.620	0.240	-0.420	1.250
2020/01/31 06:19:43.1	93.630	0.280	-0.520	1.290
2020/01/31 06:19:43.2	93.640	0.330	-0.610	1.340
2020/01/31 06:19:43.3	93.660	0.370	-0.700	1.390
2020/01/31 06:19:43.4	93.670	0.410	-0.790	1.440
2020/01/31 06:19:43.5	93.690	0.450	-0.870	1.490
2020/01/31 06:19:43.6	93.700	0.490	-0.950	1.530
2020/01/31 06:19:43.7	93.710	0.520	-1.020	1.580
2020/01/31 06:19:43.8	93.730	0.550	-1.080	1.620
2020/01/31 06:19:43.9	93.740	0.580	-1.140	1.670
2020/01/31 06:19:44.0	93.750	0.610	-1.190	1.720
2020/01/31 06:19:44.1	93.760	0.630	-1.230	1.760
2020/01/31 06:19:44.2	93.770	0.640	-1.260	1.810
2020/01/31 06:19:44.3	93.780	0.660	-1.280	1.860
2020/01/31 06:19:44.4	93.780	0.660	-1.280	1.900
2020/01/31 06:19:44.5	93.790	0.670	-1.280	1.950
2020/01/31 06:19:44.6	93.790	0.670	-1.270	1.990
2020/01/31 06:19:44.7	93.790	0.660	-1.240	2.040
2020/01/31 06:19:44.8	93.790	0.650	-1.210	2.080
2020/01/31 06:19:44.9	93.800	0.640	-1.160	2.120
2020/01/31 06:19:45.0	93.790	0.620	-1.100	2.160
2020/01/31 06:19:45.1	93.790	0.590	-1.040	2.200
2020/01/31 06:19:45.2	93.780	0.570	-0.960	2.240
2020/01/31 06:19:45.3	93.780	0.530	-0.870	2.280
2020/01/31 06:19:45.4	93.770	0.500	-0.780	2.320
2020/01/31 06:19:45.5	93.760	0.460	-0.680	2.350
2020/01/31 06:19:45.6	93.750	0.420	-0.570	2.380
2020/01/31 06:19:45.7	93.740	0.370	-0.460	2.410
2020/01/31 06:19:45.8	93.730	0.320	-0.340	2.440
2020/01/31 06:19:45.9	93.720	0.270	-0.220	2.460
2020/01/31 06:19:46.0	93.700	0.220	-0.100	2.490
2020/01/31 06:19:46.1	93.680	0.160	0.030	2.510
2020/01/31 06:19:46.2	93.660	0.110	0.150	2.520
2020/01/31 06:19:46.3	93.640	0.060	0.270	2.530
2020/01/31 06:19:46.4	93.620	0.000	0.390	2.540
2020/01/31 06:19:46.5	93.600	-0.050	0.500	2.550
2020/01/31 06:19:46.6	93.580	-0.110	0.610	2.550
2020/01/31 06:19:46.7	93.560	-0.160	0.710	2.550
2020/01/31 06:19:46.8	93.540	-0.210	0.800	2.540
2020/01/31 06:19:46.9	93.520	-0.260	0.880	2.520
2020/01/31 06:19:47.0	93.500	-0.300	0.960	2.510
2020/01/31 06:19:47.1	93.490	-0.340	1.020	2.480
2020/01/31 06:19:47.2	93.460	-0.380	1.070	2.460
2020/01/31 06:19:47.3	93.450	-0.420	1.110	2.420
2020/01/31 06:19:47.4	93.430	-0.450	1.140	2.390
2020/01/31 06:19:47.5	93.420	-0.480	1.160	2.340
2020/01/31 06:19:47.6	93.410	-0.500	1.160	2.300
2020/01/31 06:19:47.7	93.400	-0.520	1.150	2.250
2020/01/31 06:19:47.8	93.390	-0.530	1.130	2.200
2020/01/31 06:19:47.9	93.380	-0.540	1.100	2.140
2020/01/31 06:19:48.0	93.370	-0.550	1.060	2.080
2020/01/31 06:19:48.1	93.360	-0.550	1.000	2.010
2020/01/31 06:19:48.2	93.350	-0.550	0.940	1.940
2020/01/31 06:19:48.3	93.340	-0.550	0.870	1.870
2020/01/31 06:19:48.4	93.340	-0.540	0.790	1.790
2020/01/31 06:19:48.5	93.340	-0.530	0.700	1.720
2020/01/31 06:19:48.6	93.340	-0.510	0.600	1.640
2020/01/31 06:19:48.7	93.340	-0.490	0.500	1.560
2020/01/31 06:19:48.8	93.340	-0.470	0.390	1.470
2020/01/31 06:19:48.9	93.340	-0.450	0.290	1.390
2020/01/31 06:19:49.0	93.350	-0.430	0.180	1.300
2020/01/31 06:19:49.1	93.350	-0.410	0.060	1.210
2020/01/31 06:19:49.2	93.360	-0.380	-0.050	1.120
2020/01/31 06:19:49.3	93.370	-0.350	-0.160	1.030
2020/01/31 06:19:49.4	93.370	-0.330	-0.270	0.930
2020/01/31 06:19:49.5	93.380	-0.300	-0.380	0.840
2020/01/31 06:19:49.6	93.390	-0.280	-0.480	0.740
2020/01/31 06:19:49.7	93.400	-0.250	-0.570	0.640
2020/01/31 06:19:49.8	93.400	-0.230	-0.660	0.550
2020/01/31 06:19:49.9	93.410	-0.200	-0.740	0.450
2020/01/31 06:19:50.0	93.430	-0.180	-0.820	0.360
2020/01/31 06:19:50.1	93.440	-0.160	-0.880	0.260
2020/01/31 06:19:50.2	93.450	-0.140	-0.940	0.160
2020/01/31 06:19:50.3	93.460	-0.130	-0.990	0.070
2020/01/31 06:19:50.4	93.470	-0.110	-1.030	-0.010
2020/01/31 06:19:50.5	93.490	-0.100	-1.060	-0.100
2020/01/31 06:19:50.6	93.500	-0.090	-1.080	-0.180
2020/01/31 06:19:50.7	93.510	-0.080	-1.100	-0.260
2020/01/31 06:19:50.8	93.520	-0.080	-1.100	-0.330
2020/01/31 06:19:50.9	93.540	-0.070	-1.100	-0.400
2020/01/31 06:19:51.0	93.550	-0.070	-1.090	-0.460
2020/01/31 06:19:51.1	93.560	-0.070	-1.070	-0.520
2020/01/31 06:19:51.2	93.560	-0.070	-1.040	-0.560
2020/01/31 06:19:51.3	93.570	-0.080	-1.010	-0.610
2020/01/31 06:19:51.4	93.570	-0.080	-0.970	-0.650
2020/01/31 06:19:51.5	93.580	-0.090	-0.930	-0.680
2020/01/31 06:19:51.6	93.580	-0.100	-0.880	-0.700
2020/01/31 06:19:51.7	93.580	-0.110	-0.830	-0.720
2020/01/31 06:19:51.8	93.570	-0.110	-0.770	-0.730
2020/01/31 06:19:51.9	93.560	-0.130	-0.720	-0.740
2020/01/31 06:19:52.0	93.560	-0.140	-0.660	-0.740
2020/01/31 06:19:52.1	93.550	-0.150	-0.600	-0.730
2020/01/31 06:19:52.2	93.540	-0.160	-0.530	-0.710
2020/01/31 06:19:52.3	93.520	-0.170	-0.470	-0.690
2020/01/31 06:19:52.4	93.510	-0.180	-0.410	-0.670
2020/01/31 06:19:52.5	93.490	-0.190	-0.350	-0.640
2020/01/31 06:19:52.6	93.470	-0.200	-0.290	-0.610
2020/01/31 06:19:52.7	93.450	-0.210	-0.240	-0.570
2020/01/31 06:19:52.8	93.430	-0.220	-0.180	-0.540
2020/01/31 06:19:52.9	93.410	-0.220	-0.130	-0.500
2020/01/31 06:19:53.0	93.380	-0.230	-0.080	-0.450
2020/01/31 06:19:53.1	93.360	-0.230	-0.030	-0.410
2020/01/31 06:19:53.2	93.340	-0.240	0.010	-0.370
2020/01/31 06:19:53.3	93.320	-0.240	0.050	-0.320
2020/01/31 06:19:53.4	93.300	-0.240	0.080	-0.280
2020/01/31 06:19:53.5	93.280	-0.240	0.110	-0.230
2020/01/31 06:19:53.6	93.250	-0.240	0.140	-0.190
2020/01/31 06:19:53.7	93.230	-0.240	0.160	-0.150
2020/01/31 06:19:53.8	93.220	-0.230	0.180	-0.100
2020/01/31 06:19:53.9	93.200	-0.230	0.200	-0.060
2020/01/31 06:19:54.0	93.180	-0.220	0.210	-0.020
2020/01/31 06:19:54.1	93.160	-0.210	0.220	0.020
2020/01/31 06:19:54.2	93.150	-0.200	0.220	0.060
2020/01/31 06:19:54.3	93.140	-0.190	0.220	0.100
2020/01/31 06:19:54.4	93.130	-0.170	0.210	0.140
2020/01/31 06:19:54.5	93.120	-0.160	0.200	0.180
2020/01/31 06:19:54.6	93.110	-0.140	0.190	0.210
2020/01/31 06:19:54.7	93.100	-0.120	0.180	0.240
2020/01/31 06:19:54.8	93.090	-0.100	0.160	0.280
2020/01/31 06:19:54.9	93.090	-0.080	0.140	0.310
2020/01/31 06:19:55.0	93.080	-0.060	0.120	0.340
2020/01/31 06:19:55.1	93.080	-0.030	0.090	0.370
2020/01/31 06:19:55.2	93.090	-0.010	0.070	0.400
2020/01/31 06:19:55.3	93.090	0.020	0.040	0.430
2020/01/31 06:19:55.4	93.090	0.050	0.010	0.460
2020/01/31 06:19:55.5	93.100	0.080	-0.020	0.490
2020/01/31 06:19:55.6	93.100	0.110	-0.050	0.520
2020/01/31 06:19:55.7	93.110	0.140	-0.080	0.540
2020/01/31 06:19:55.8	93.120	0.170	-0.110	0.570
2020/01/31 06:19:55.9	93.130	0.200	-0.140	0.590
2020/01/31 06:19:56.0	93.140	0.230	-0.170	0.620
2020/01/31 06:19:56.1	93.150	0.270	-0.200	0.640
2020/01/31 06:19:56.2	93.170	0.300	-0.220	0.670
2020/01/31 06:19:56.3	93.180	0.330	-0.250	0.690
2020/01/31 06:19:56.4	93.200	0.360	-0.270	0.720
2020/01/31 06:19:56.5	93.210	0.390	-0.290	0.740
2020/01/31 06:19:56.6	93.230	0.420	-0.310	0.760
2020/01/31 06:19:56.7	93.240	0.450	-0.320	0.790
2020/01/31 06:19:56.8	93.250	0.470	-0.340	0.810
2020/01/31 06:19:56.9	93.260	0.490	-0.350	0.830
2020/01/31 06:19:57.0	93.280	0.520	-0.350	0.850
2020/01/31 06:19:57.1	93.290	0.540	-0.360	0.880
2020/01/31 06:19:57.2	93.290	0.550	-0.350	0.900
2020/01/31 06:19:57.3	93.300	0.570	-0.350	0.920
2020/01/31 06:19:57.4	93.310	0.580	-0.350	0.950
2020/01/31 06:19:57.5	93.320	0.590	-0.340	0.970
2020/01/31 06:19:57.6	93.330	0.600	-0.330	1.000
2020/01/31 06:19:57.7	93.330	0.610	-0.320	1.020
2020/01/31 06:19:57.8	93.340	0.610	-0.300	1.040
2020/01/31 06:19:57.9	93.340	0.610	-0.290	1.070
2020/01/31 06:19:58.0	93.350	0.610	-0.270	1.090
2020/01/31 06:19:58.1	93.350	0.610	-0.250	1.120
2020/01/31 06:19:58.2	93.350	0.600	-0.240	1.140
2020/01/31 06:19:58.3	93.360	0.590	-0.220	1.160
2020/01/31 06:19:58.4	93.360	0.580	-0.200	1.190
2020/01/31 06:19:58.5	93.360	0.570	-0.180	1.210
2020/01/31 06:19:58.6	93.360	0.560	-0.160	1.230
2020/01/31 06:19:58.7	93.360	0.540	-0.140	1.240
2020/01/31 06:19:58.8	93.370	0.520	-0.120	1.260
2020/01/31 06:19:58.9	93.370	0.510	-0.100	1.280
2020/01/31 06:19:59.0	93.370	0.490	-0.080	1.290
2020/01/31 06:19:59.1	93.370	0.470	-0.070	1.310
2020/01/31 06:19:59.2	93.360	0.450	-0.050	1.320
2020/01/31 06:19:59.3	93.360	0.430	-0.040	1.340
2020/01/31 06:19:59.4	93.360	0.400	-0.020	1.350
2020/01/31 06:19:59.5	93.360	0.380	-0.010	1.360
2020/01/31 06:19:59.6	93.350	0.360	-0.000	1.370
2020/01/31 06:19:59.7	93.350	0.340	0.010	1.380
2020/01/31 06:19:59.8	93.340	0.310	0.010	1.390
2020/01/31 06:19:59.9	93.340	0.290	0.020	1.400
2020/01/31 06:20:00.0	93.330	0.270	0.020	1.410
2020/01/31 06:20:00.1	93.320	0.240	0.020	1.420
2020/01/31 06:20:00.2	93.320	0.220	0.020	1.440
2020/01/31 06:20:00.3	93.320	0.200	0.020	1.450
2020/01/31 06:20:00.4	93.310	0.180	0.020	1.460
2020/01/31 06:20:00.5	93.300	0.160	0.020	1.470
2020/01/31 06:20:00.6	93.290	0.130	0.010	1.480
2020/01/31 06:20:00.7	93.290	0.110	0.010	1.490
2020/01/31 06:20:00.8	93.280	0.090	-0.000	1.500
2020/01/31 06:20:00.9	93.270	0.070	-0.010	1.510
2020/01/31 06:20:01.0	93.270	0.050	-0.020	1.520
2020/01/31 06:20:01.1	93.260	0.030	-0.030	1.530
2020/01/31 06:20:01.2	93.250	0.010	-0.040	1.540
2020/01/31 06:20:01.3	93.250	-0.010	-0.050	1.550
2020/01/31 06:20:01.4	93.250	-0.030	-0.060	1.550
2020/01/31 06:20:01.5	93.250	-0.050	-0.080	1.560
2020/01/31 06:20:01.6	93.240	-0.070	-0.090	1.560
2020/01/31 06:20:01.7	93.240	-0.090	-0.100	1.570
2020/01/31 06:20:01.8	93.240	-0.110	-0.120	1.570
2020/01/31 06:20:01.9	93.240	-0.130	-0.130	1.580
2020/01/31 06:20:02.0	93.230	-0.150	-0.140	1.580
2020/01/31 06:20:02.1	93.230	-0.170	-0.160	1.580
2020/01/31 06:20:02.2	93.220	-0.190	-0.170	1.590
2020/01/31 06:20:02.3	93.210	-0.210	-0.180	1.590
2020/01/31 06:20:02.4	93.210	-0.230	-0.190	1.590
2020/01/31 06:20:02.5	93.200	-0.250	-0.200	1.600
2020/01/31 06:20:02.6	93.190	-0.270	-0.210	1.600
2020/01/31 06:20:02.7	93.180	-0.290	-0.220	1.600
2020/01/31 06:20:02.8	93.170	-0.310	-0.220	1.600
2020/01/31 06:20:02.9	93.150	-0.330	-0.230	1.600
2020/01/31 06:20:03.0	93.140	-0.360	-0.230	1.600
2020/01/31 06:20:03.1	93.130	-0.380	-0.230	1.600
2020/01/31 06:20:03.2	93.120	-0.400	-0.230	1.590
2020/01/31 06:20:03.3	93.100	-0.420	-0.230	1.580
2020/01/31 06:20:03.4	93.090	-0.440	-0.230	1.570
2020/01/31 06:20:03.5	93.080	-0.450	-0.230	1.560
2020/01/31 06:20:03.6	93.060	-0.470	-0.220	1.550
2020/01/31 06:20:03.7	93.050	-0.490	-0.220	1.530
2020/01/31 06:20:03.8	93.040	-0.510	-0.210	1.520
2020/01/31 06:20:03.9	93.030	-0.520	-0.210	1.490
2020/01/31 06:20:04.0	93.030	-0.540	-0.200	1.470
2020/01/31 06:20:04.1	93.030	-0.550	-0.190	1.440
2020/01/31 06:20:04.2	93.020	-0.560	-0.180	1.420
2020/01/31 06:20:04.3	93.020	-0.570	-0.170	1.380
2020/01/31 06:20:04.4	93.030	-0.580	-0.160	1.350
2020/01/31 06:20:04.5	93.030	-0.590	-0.150	1.320
2020/01/31 06:20:04.6	93.040	-0.590	-0.140	1.280
2020/01/31 06:20:04.7	93.050	-0.590	-0.130	1.240
2020/01/31 06:20:04.8	93.060	-0.590	-0.120	1.200
2020/01/31 06:20:04.9	93.080	-0.590	-0.110	1.170
2020/01/31 06:20:05.0	93.100	-0.580	-0.100	1.130
2020/01/31 06:20:05.1	93.120	-0.580	-0.100	1.080
2020/01/31 06:20:05.2	93.140	-0.570	-0.090	1.040
2020/01/31 06:20:05.3	93.160	-0.550	-0.080	1.000
2020/01/31 06:20:05.4	93.180	-0.540	-0.080	0.960
2020/01/31 06:20:05.5	93.200	-0.520	-0.080	0.920
2020/01/31 06:20:05.6	93.230	-0.500	-0.080	0.890
2020/01/31 06:20:05.7	93.250	-0.470	-0.080	0.850
2020/01/31 06:20:05.8	93.270	-0.450	-0.080	0.810
2020/01/31 06:20:05.9	93.300	-0.420	-0.090	0.780
2020/01/31 06:20:06.0	93.320	-0.390	-0.100	0.740
2020/01/31 06:20:06.1	93.340	-0.350	-0.100	0.710
2020/01/31 06:20:06.2	93.350	-0.320	-0.120	0.680
2020/01/31 06:20:06.3	93.370	-0.280	-0.140	0.660
2020/01/31 06:20:06.4	93.390	-0.240	-0.150	0.630
2020/01/31 06:20:06.5	93.400	-0.200	-0.170	0.600
2020/01/31 06:20:06.6	93.410	-0.160	-0.190	0.580
2020/01/31 06:20:06.7	93.420	-0.120	-0.200	0.550
2020/01/31 06:20:06.8	93.430	-0.080	-0.230	0.530
2020/01/31 06:20:06.9	93.440	-0.040	-0.250	0.510
2020/01/31 06:20:07.0	93.440	0.000	-0.270	0.490
2020/01/31 06:20:07.1	93.440	0.050	-0.290	0.470
2020/01/31 06:20:07.2	93.430	0.080	-0.310	0.440
2020/01/31 06:20:07.3	93.430	0.120	-0.330	0.420
2020/01/31 06:20:07.4	93.420	0.160	-0.350	0.400
2020/01/31 06:20:07.5	93.420	0.190	-0.360	0.380
2020/01/31 06:20:07.6	93.410	0.230	-0.380	0.360
2020/01/31 06:20:07.7	93.400	0.260	-0.390	0.340
2020/01/31 06:20:07.8	93.390	0.280	-0.410	0.320
2020/01/31 06:20:07.9	93.370	0.310	-0.410	0.300
2020/01/31 06:20:08.0	93.360	0.330	-0.420	0.280
2020/01/31 06:20:08.1	93.340	0.350	-0.420	0.270
2020/01/31 06:20:08.2	93.320	0.360	-0.430	0.250
2020/01/31 06:20:08.3	93.300	0.370	-0.420	0.230
2020/01/31 06:20:08.4	93.290	0.380	-0.420	0.220
2020/01/31 06:20:08.5	93.270	0.380	-0.410	0.200
2020/01/31 06:20:08.6	93.250	0.390	-0.400	0.190
2020/01/31 06:20:08.7	93.230	0.380	-0.380	0.180
2020/01/31 06:20:08.8	93.210	0.380	-0.370	0.170
2020/01/31 06:20:08.9	93.200	0.370	-0.350	0.160
2020/01/31 06:20:09.0	93.180	0.360	-0.330	0.150
2020/01/31 06:20:09.1	93.170	0.350	-0.310	0.140
2020/01/31 06:20:09.2	93.150	0.340	-0.280	0.130
2020/01/31 06:20:09.3	93.140	0.320	-0.250	0.120
2020/01/31 06:20:09.4	93.130	0.300	-0.230	0.120
2020/01/31 06:20:09.5	93.130	0.280	-0.200	0.110
2020/01/31 06:20:09.6	93.120	0.260	-0.180	0.110
2020/01/31 06:20:09.7	93.120	0.240	-0.150	0.100
2020/01/31 06:20:09.8	93.120	0.210	-0.130	0.100
2020/01/31 06:20:09.9	93.120	0.190	-0.100	0.100
2020/01/31 06:20:10.0	93.120	0.170	-0.080	0.100
2020/01/31 06:20:10.1	93.130	0.150	-0.050	0.100
2020/01/31 06:20:10.2	93.140	0.120	-0.030	0.100
2020/01/31 06:20:10.3	93.150	0.100	-0.010	0.100
2020/01/31 06:20:10.4	93.160	0.080	0.010	0.100
2020/01/31 06:20:10.5	93.170	0.060	0.030	0.110
2020/01/31 06:20:10.6	93.190	0.040	0.050	0.110
2020/01/31 06:20:10.7	93.200	0.020	0.060	0.120
2020/01/31 06:20:10.8	93.210	0.010	0.080	0.130
2020/01/31 06:20:10.9	93.230	-0.000	0.090	0.140
2020/01/31 06:20:11.0	93.240	-0.020	0.100	0.150
2020/01/31 06:20:11.1	93.260	-0.030	0.110	0.160
2020/01/31 06:20:11.2	93.280	-0.040	0.110	0.180
2020/01/31 06:20:11.3	93.290	-0.040	0.120	0.200
2020/01/31 06:20:11.4	93.310	-0.050	0.120	0.220
2020/01/31 06:20:11.5	93.320	-0.050	0.120	0.240
2020/01/31 06:20:11.6	93.330	-0.050	0.120	0.260
2020/01/31 06:20:11.7	93.340	-0.050	0.120	0.280
2020/01/31 06:20:11.8	93.350	-0.050	0.120	0.300
2020/01/31 06:20:11.9	93.360	-0.040	0.110	0.330
2020/01/31 06:20:12.0	93.370	-0.040	0.110	0.350
2020/01/31 06:20:12.1	93.380	-0.030	0.100	0.380
2020/01/31 06:20:12.2	93.390	-0.020	0.090	0.400
2020/01/31 06:20:12.3	93.400	-0.010	0.080	0.430
2020/01/31 06:20:12.4	93.400	0.000	0.060	0.450
2020/01/31 06:20:12.5	93.410	0.010	0.050	0.480
2020/01/31 06:20:12.6	93.410	0.020	0.030	0.500
2020/01/31 06:20:12.7	93.420	0.040	0.020	0.530
2020/01/31 06:20:12.8	93.420	0.050	-0.000	0.550
2020/01/31 06:20:12.9	93.420	0.060	-0.020	0.580
2020/01/31 06:20:13.0	93.420	0.080	-0.050	0.610
2020/01/31 06:20:13.1	93.420	0.090	-0.070	0.630
2020/01/31 06:20:13.2	93.410	0.100	-0.090	0.660
2020/01/31 06:20:13.3	93.400	0.120	-0.120	0.690
2020/01/31 06:20:13.4	93.400	0.130	-0.140	0.720
2020/01/31 06:20:13.5	93.390	0.140	-0.170	0.760
2020/01/31 06:20:13.6	93.380	0.150	-0.200	0.790
2020/01/31 06:20:13.7	93.360	0.170	-0.230	0.830
2020/01/31 06:20:13.8	93.350	0.180	-0.250	0.870
2020/01/31 06:20:13.9	93.330	0.190	-0.280	0.910
2020/01/31 06:20:14.0	93.310	0.200	-0.310	0.950
2020/01/31 06:20:14.1	93.290	0.210	-0.330	0.990
2020/01/31 06:20:14.2	93.270	0.220	-0.360	1.040
2020/01/31 06:20:14.3	93.250	0.230	-0.380	1.080
2020/01/31 06:20:14.4	93.230	0.240	-0.410	1.130
2020/01/31 06:20:14.5	93.200	0.240	-0.430	1.180
2020/01/31 06:20:14.6	93.180	0.250	-0.460	1.230
2020/01/31 06:20:14.7	93.150	0.260	-0.480	1.270
2020/01/31 06:20:14.8	93.120	0.260	-0.500	1.320
2020/01/31 06:20:14.9	93.100	0.270	-0.520	1.370
2020/01/31 06:20:15.0	93.070	0.270	-0.540	1.410
2020/01/31 06:20:15.1	93.050	0.280	-0.550	1.450
2020/01/31 06:20:15.2	93.020	0.280	-0.570	1.490
2020/01/31 06:20:15.3	93.000	0.290	-0.580	1.530
2020/01/31 06:20:15.4	92.980	0.290	-0.590	1.560
2020/01/31 06:20:15.5	92.970	0.290	-0.590	1.600
2020/01/31 06:20:15.6	92.950	0.290	-0.600	1.620
2020/01/31 06:20:15.7	92.940	0.300	-0.600	1.650
2020/01/31 06:20:15.8	92.930	0.300	-0.600	1.670
2020/01/31 06:20:15.9	92.920	0.300	-0.590	1.680
2020/01/31 06:20:16.0	92.910	0.290	-0.590	1.700
2020/01/31 06:20:16.1	92.900	0.290	-0.580	1.710
2020/01/31 06:20:16.2	92.900	0.290	-0.570	1.710
2020/01/31 06:20:16.3	92.900	0.290	-0.550	1.720
2020/01/31 06:20:16.4	92.900	0.280	-0.540	1.710
2020/01/31 06:20:16.5	92.910	0.270	-0.520	1.710
2020/01/31 06:20:16.6	92.910	0.270	-0.500	1.700
2020/01/31 06:20:16.7	92.920	0.260	-0.470	1.690
2020/01/31 06:20:16.8	92.930	0.250	-0.450	1.680
2020/01/31 06:20:16.9	92.940	0.240	-0.420	1.660
2020/01/31 06:20:17.0	92.960	0.230	-0.390	1.640
2020/01/31 06:20:17.1	92.970	0.220	-0.350	1.620
2020/01/31 06:20:17.2	93.000	0.200	-0.320	1.600
2020/01/31 06:20:17.3	93.010	0.180	-0.280	1.570
2020/01/31 06:20:17.4	93.040	0.170	-0.240	1.540
2020/01/31 06:20:17.5	93.060	0.150	-0.200	1.510
2020/01/31 06:20:17.6	93.090	0.130	-0.160	1.480
2020/01/31 06:20:17.7	93.110	0.110	-0.120	1.440
2020/01/31 06:20:17.8	93.140	0.090	-0.080	1.400
2020/01/31 06:20:17.9	93.180	0.060	-0.040	1.360
2020/01/31 06:20:18.0	93.210	0.040	0.010	1.320
2020/01/31 06:20:18.1	93.240	0.010	0.050	1.280
2020/01/31 06:20:18.2	93.270	-0.010	0.090	1.240
2020/01/31 06:20:18.3	93.310	-0.040	0.140	1.200
2020/01/31 06:20:18.4	93.350	-0.070	0.180	1.150
2020/01/31 06:20:18.5	93.380	-0.100	0.210	1.110
2020/01/31 06:20:18.6	93.420	-0.130	0.250	1.060
2020/01/31 06:20:18.7	93.460	-0.160	0.290	1.020
2020/01/31 06:20:18.8	93.490	-0.190	0.320	0.980
2020/01/31 06:20:18.9	93.520	-0.220	0.350	0.940
2020/01/31 06:20:19.0	93.550	-0.250	0.380	0.890
2020/01/31 06:20:19.1	93.580	-0.280	0.410	0.860
2020/01/31 06:20:19.2	93.620	-0.310	0.430	0.820
2020/01/31 06:20:19.3	93.640	-0.340	0.450	0.790
2020/01/31 06:20:19.4	93.660	-0.370	0.470	0.750
2020/01/31 06:20:19.5	93.680	-0.400	0.480	0.730
2020/01/31 06:20:19.6	93.700	-0.420	0.490	0.700
2020/01/31 06:20:19.7	93.710	-0.450	0.500	0.680
2020/01/31 06:20:19.8	93.720	-0.470	0.500	0.660
2020/01/31 06:20:19.9	93.730	-0.490	0.500	0.650
2020/01/31 06:20:20.0	93.730	-0.520	0.490	0.640
2020/01/31 06:20:20.1	93.730	-0.540	0.480	0.630
2020/01/31 06:20:20.2	93.730	-0.550	0.470	0.630
2020/01/31 06:20:20.3	93.720	-0.570	0.460	0.630
2020/01/31 06:20:20.4	93.710	-0.580	0.440	0.630
2020/01/31 06:20:20.5	93.700	-0.600	0.410	0.640
2020/01/31 06:20:20.6	93.680	-0.610	0.390	0.650
2020/01/31 06:20:20.7	93.660	-0.620	0.360	0.660
2020/01/31 06:20:20.8	93.650	-0.620	0.330	0.680
2020/01/31 06:20:20.9	93.620	-0.630	0.300	0.700
2020/01/31 06:20:21.0	93.600	-0.630	0.260	0.720
2020/01/31 06:20:21.1	93.580	-0.630	0.220	0.740
2020/01/31 06:20:21.2	93.560	-0.630	0.180	0.760
2020/01/31 06:20:21.3	93.540	-0.620	0.140	0.780
2020/01/31 06:20:21.4	93.510	-0.620	0.090	0.810
2020/01/31 06:20:21.5	93.490	-0.610	0.050	0.840
2020/01/31 06:20:21.6	93.460	-0.600	0.000	0.860
2020/01/31 06:20:21.7	93.430	-0.590	-0.050	0.890
2020/01/31 06:20:21.8	93.410	-0.580	-0.090	0.910
2020/01/31 06:20:21.9	93.390	-0.570	-0.140	0.940
2020/01/31 06:20:22.0	93.360	-0.550	-0.190	0.960
2020/01/31 06:20:22.1	93.340	-0.530	-0.240	0.980
2020/01/31 06:20:22.2	93.320	-0.510	-0.280	1.000
2020/01/31 06:20:22.3	93.290	-0.490	-0.330	1.020
2020/01/31 06:20:22.4	93.270	-0.470	-0.370	1.030
2020/01/31 06:20:22.5	93.250	-0.450	-0.410	1.040
2020/01/31 06:20:22.6	93.230	-0.430	-0.450	1.060
2020/01/31 06:20:22.7	93.210	-0.400	-0.490	1.060
2020/01/31 06:20:22.8	93.190	-0.380	-0.520	1.070
2020/01/31 06:20:22.9	93.170	-0.350	-0.560	1.070
2020/01/31 06:20:23.0	93.150	-0.320	-0.590	1.070
2020/01/31 06:20:23.1	93.130	-0.290	-0.610	1.070
2020/01/31 06:20:23.2	93.120	-0.260	-0.640	1.060
2020/01/31 06:20:23.3	93.100	-0.230	-0.660	1.050
2020/01/31 06:20:23.4	93.080	-0.200	-0.670	1.040
2020/01/31 06:20:23.5	93.070	-0.170	-0.690	1.020
2020/01/31 06:20:23.6	93.060	-0.140	-0.700	1.010
2020/01/31 06:20:23.7	93.040	-0.110	-0.710	0.990
2020/01/31 06:20:23.8	93.030	-0.080	-0.710	0.960
2020/01/31 06:20:23.9	93.020	-0.050	-0.710	0.940
2020/01/31 06:20:24.0	93.010	-0.010	-0.710	0.910
2020/01/31 06:20:24.1	93.000	0.020	-0.710	0.890
2020/01/31 06:20:24.2	92.990	0.050	-0.710	0.850
2020/01/31 06:20:24.3	92.990	0.080	-0.700	0.820
2020/01/31 06:20:24.4	92.980	0.110	-0.690	0.790
2020/01/31 06:20:24.5	92.980	0.140	-0.680	0.750
2020/01/31 06:20:24.6	92.980	0.170	-0.680	0.720
2020/01/31 06:20:24.7	92.970	0.200	-0.670	0.680
2020/01/31 06:20:24.8	92.970	0.230	-0.660	0.640
2020/01/31 06:20:24.9	92.970	0.260	-0.640	0.610
2020/01/31 06:20:25.0	92.970	0.290	-0.630	0.570
2020/01/31 06:20:25.1	92.970	0.320	-0.620	0.530
2020/01/31 06:20:25.2	92.970	0.340	-0.610	0.500
2020/01/31 06:20:25.3	92.970	0.370	-0.600	0.460
2020/01/31 06:20:25.4	92.980	0.390	-0.590	0.420
2020/01/31 06:20:25.5	92.980	0.420	-0.580	0.380
2020/01/31 06:20:25.6	92.980	0.440	-0.570	0.350
2020/01/31 06:20:25.7	92.980	0.460	-0.560	0.310
2020/01/31 06:20:25.8	92.980	0.480	-0.550	0.280
2020/01/31 06:20:25.9	92.980	0.500	-0.540	0.240
2020/01/31 06:20:26.0	92.980	0.520	-0.530	0.210
2020/01/31 06:20:26.1	92.980	0.540	-0.520	0.180
2020/01/31 06:20:26.2	92.980	0.550	-0.510	0.140
2020/01/31 06:20:26.3	92.980	0.570	-0.490	0.110
2020/01/31 06:20:26.4	92.980	0.580	-0.480	0.090
2020/01/31 06:20:26.5	92.970	0.590	-0.460	0.060
2020/01/31 06:20:26.6	92.970	0.590	-0.440	0.040
2020/01/31 06:20:26.7	92.970	0.600	-0.420	0.010
2020/01/31 06:20:26.8	92.970	0.600	-0.400	-0.010
2020/01/31 06:20:26.9	92.970	0.610	-0.370	-0.020
2020/01/31 06:20:27.0	92.960	0.610	-0.350	-0.040
2020/01/31 06:20:27.1	92.960	0.600	-0.320	-0.050
2020/01/31 06:20:27.2	92.960	0.600	-0.280	-0.060
2020/01/31 06:20:27.3	92.960	0.590	-0.250	-0.060
2020/01/31 06:20:27.4	92.950	0.580	-0.210	-0.070
2020/01/31 06:20:27.5	92.950	0.570	-0.160	-0.070
2020/01/31 06:20:27.6	92.940	0.550	-0.120	-0.070
2020/01/31 06:20:27.7	92.940	0.540	-0.070	-0.060
2020/01/31 06:20:27.8	92.930	0.520	-0.020	-0.060
2020/01/31 06:20:27.9	92.930	0.500	0.030	-0.050
2020/01/31 06:20:28.0	92.920	0.470	0.080	-0.040
2020/01/31 06:20:28.1	92.920	0.450	0.130	-0.020
2020/01/31 06:20:28.2	92.920	0.420	0.190	-0.000
2020/01/31 06:20:28.3	92.910	0.390	0.240	0.020
2020/01/31 06:20:28.4	92.910	0.360	0.290	0.040
2020/01/31 06:20:28.5	92.900	0.330	0.340	0.070
2020/01/31 06:20:28.6	92.900	0.300	0.390	0.100
2020/01/31 06:20:28.7	92.900	0.260	0.440	0.130
2020/01/31 06:20:28.8	92.900	0.230	0.490	0.160
2020/01/31 06:20:28.9	92.890	0.200	0.530	0.190
2020/01/31 06:20:29.0	92.890	0.160	0.570	0.230
2020/01/31 06:20:29.1	92.890	0.130	0.600	0.260
2020/01/31 06:20:29.2	92.890	0.090	0.630	0.300
2020/01/31 06:20:29.3	92.890	0.060	0.650	0.350
2020/01/31 06:20:29.4	92.900	0.030	0.670	0.390
2020/01/31 06:20:29.5	92.900	-0.000	0.690	0.430
2020/01/31 06:20:29.6	92.900	-0.030	0.690	0.480
2020/01/31 06:20:29.7	92.900	-0.060	0.690	0.520
2020/01/31 06:20:29.8	92.900	-0.080	0.680	0.570
2020/01/31 06:20:29.9	92.910	-0.100	0.670	0.610
2020/01/31 06:20:30.0	92.910	-0.120	0.650	0.660
2020/01/31 06:20:30.1	92.920	-0.140	0.620	0.710
2020/01/31 06:20:30.2	92.930	-0.160	0.580	0.760
2020/01/31 06:20:30.3	92.940	-0.170	0.540	0.800
2020/01/31 06:20:30.4	92.940	-0.180	0.490	0.850
2020/01/31 06:20:30.5	92.950	-0.190	0.440	0.890
2020/01/31 06:20:30.6	92.970	-0.190	0.380	0.940
2020/01/31 06:20:30.7	92.980	-0.190	0.310	0.980
2020/01/31 06:20:30.8	92.990	-0.190	0.240	1.030
2020/01/31 06:20:30.9	93.000	-0.190	0.170	1.070
2020/01/31 06:20:31.0	93.020	-0.190	0.090	1.110
2020/01/31 06:20:31.1	93.030	-0.180	0.010	1.150
2020/01/31 06:20:31.2	93.040	-0.170	-0.070	1.190
2020/01/31 06:20:31.3	93.060	-0.160	-0.150	1.230
2020/01/31 06:20:31.4	93.070	-0.150	-0.230	1.270
2020/01/31 06:20:31.5	93.090	-0.140	-0.310	1.310
2020/01/31 06:20:31.6	93.100	-0.130	-0.390	1.350
2020/01/31 06:20:31.7	93.110	-0.120	-0.460	1.390
2020/01/31 06:20:31.8	93.120	-0.110	-0.530	1.420
2020/01/31 06:20:31.9	93.130	-0.100	-0.600	1.460
2020/01/31 06:20:32.0	93.130	-0.080	-0.660	1.500
2020/01/31 06:20:32.1	93.140	-0.070	-0.720	1.540
2020/01/31 06:20:32.2	93.140	-0.060	-0.770	1.570
2020/01/31 06:20:32.3	93.140	-0.060	-0.810	1.610
2020/01/31 06:20:32.4	93.140	-0.050	-0.850	1.650
2020/01/31 06:20:32.5	93.140	-0.040	-0.880	1.690
2020/01/31 06:20:32.6	93.130	-0.040	-0.900	1.720
2020/01/31 06:20:32.7	93.130	-0.040	-0.920	1.760
2020/01/31 06:20:32.8	93.120	-0.040	-0.920	1.800
2020/01/31 06:20:32.9	93.110	-0.040	-0.920	1.840
2020/01/31 06:20:33.0	93.100	-0.040	-0.910	1.880
2020/01/31 06:20:33.1	93.080	-0.050	-0.900	1.920
2020/01/31 06:20:33.2	93.060	-0.060	-0.880	1.970
2020/01/31 06:20:33.3	93.050	-0.070	-0.850	2.010
2020/01/31 06:20:33.4	93.030	-0.080	-0.810	2.050
2020/01/31 06:20:33.5	93.010	-0.090	-0.770	2.090
2020/01/31 06:20:33.6	92.990	-0.110	-0.730	2.130
2020/01/31 06:20:33.7	92.970	-0.120	-0.680	2.170
2020/01/31 06:20:33.8	92.950	-0.140	-0.620	2.200
2020/01/31 06:20:33.9	92.920	-0.160	-0.570	2.240
2020/01/31 06:20:34.0	92.900	-0.180	-0.510	2.270
2020/01/31 06:20:34.1	92.880	-0.200	-0.440	2.300
2020/01/31 06:20:34.2	92.850	-0.220	-0.380	2.320
2020/01/31 06:20:34.3	92.830	-0.240	-0.320	2.340
2020/01/31 06:20:34.4	92.810	-0.260	-0.260	2.360
2020/01/31 06:20:34.5	92.790	-0.280	-0.190	2.370
2020/01/31 06:20:34.6	92.770	-0.300	-0.130	2.380
2020/01/31 06:20:34.7	92.750	-0.320	-0.080	2.380
2020/01/31 06:20:34.8	92.730	-0.340	-0.020	2.380
2020/01/31 06:20:34.9	92.710	-0.360	0.030	2.370
2020/01/31 06:20:35.0	92.700	-0.370	0.080	2.360
2020/01/31 06:20:35.1	92.680	-0.390	0.130	2.340
2020/01/31 06:20:35.2	92.660	-0.400	0.180	2.310
2020/01/31 06:20:35.3	92.650	-0.410	0.210	2.280
2020/01/31 06:20:35.4	92.640	-0.420	0.240	2.250
2020/01/31 06:20:35.5	92.630	-0.430	0.270	2.210
2020/01/31 06:20:35.6	92.620	-0.440	0.290	2.160
2020/01/31 06:20:35.7	92.610	-0.440	0.310	2.110
2020/01/31 06:20:35.8	92.600	-0.440	0.320	2.060
2020/01/31 06:20:35.9	92.590	-0.440	0.330	2.000
2020/01/31 06:20:36.0	92.590	-0.430	0.320	1.940
2020/01/31 06:20:36.1	92.580	-0.430	0.320	1.870
2020/01/31 06:20:36.2	92.580	-0.420	0.310	1.800
2020/01/31 06:20:36.3	92.580	-0.410	0.290	1.730
2020/01/31 06:20:36.4	92.580	-0.390	0.270	1.660
2020/01/31 06:20:36.5	92.570	-0.370	0.240	1.590
2020/01/31 06:20:36.6	92.570	-0.360	0.210	1.510
2020/01/31 06:20:36.7	92.570	-0.330	0.170	1.430
2020/01/31 06:20:36.8	92.570	-0.310	0.130	1.360
2020/01/31 06:20:36.9	92.560	-0.280	0.090	1.280
2020/01/31 06:20:37.0	92.560	-0.260	0.040	1.200
2020/01/31 06:20:37.1	92.560	-0.230	-0.010	1.130
2020/01/31 06:20:37.2	92.560	-0.200	-0.060	1.040
2020/01/31 06:20:37.3	92.550	-0.160	-0.110	0.970
2020/01/31 06:20:37.4	92.550	-0.130	-0.160	0.890
2020/01/31 06:20:37.5	92.540	-0.100	-0.220	0.820
2020/01/31 06:20:37.6	92.540	-0.070	-0.270	0.740
2020/01/31 06:20:37.7	92.530	-0.030	-0.330	0.670
2020/01/31 06:20:37.8	92.530	0.000	-0.380	0.590
2020/01/31 06:20:37.9	92.520	0.030	-0.430	0.520
2020/01/31 06:20:38.0	92.520	0.070	-0.480	0.450
2020/01/31 06:20:38.1	92.510	0.100	-0.520	0.380
2020/01/31 06:20:38.2	92.510	0.130	-0.560	0.310
2020/01/31 06:20:38.3	92.500	0.150	-0.600	0.240
2020/01/31 06:20:38.4	92.500	0.180	-0.630	0.170
2020/01/31 06:20:38.5	92.500	0.200	-0.660	0.100
2020/01/31 06:20:38.6	92.490	0.220	-0.680	0.040
2020/01/31 06:20:38.7	92.490	0.240	-0.700	-0.020
2020/01/31 06:20:38.8	92.490	0.260	-0.710	-0.080
2020/01/31 06:20:38.9	92.490	0.270	-0.710	-0.140
2020/01/31 06:20:39.0	92.490	0.290	-0.710	-0.200
2020/01/31 06:20:39.1	92.490	0.300	-0.700	-0.250
2020/01/31 06:20:39.2	92.500	0.300	-0.680	-0.300
2020/01/31 06:20:39.3	92.500	0.310	-0.660	-0.350
2020/01/31 06:20:39.4	92.500	0.310	-0.640	-0.400
2020/01/31 06:20:39.5	92.500	0.300	-0.610	-0.440
2020/01/31 06:20:39.6	92.510	0.300	-0.570	-0.480
2020/01/31 06:20:39.7	92.510	0.300	-0.530	-0.520
2020/01/31 06:20:39.8	92.510	0.290	-0.480	-0.550
2020/01/31 06:20:39.9	92.510	0.280	-0.430	-0.590
2020/01/31 06:20:40.0	92.510	0.270	-0.380	-0.610
2020/01/31 06:20:40.1	92.510	0.250	-0.330	-0.640
2020/01/31 06:20:40.2	92.510	0.240	-0.270	-0.660
2020/01/31 06:20:40.3	92.510	0.220	-0.210	-0.680
2020/01/31 06:20:40.4	92.500	0.210	-0.150	-0.700
2020/01/31 06:20:40.5	92.500	0.190	-0.090	-0.710
2020/01/31 06:20:40.6	92.500	0.170	-0.030	-0.720
2020/01/31 06:20:40.7	92.500	0.160	0.030	-0.730
2020/01/31 06:20:40.8	92.490	0.140	0.090	-0.730
2020/01/31 06:20:40.9	92.490	0.120	0.140	-0.730
2020/01/31 06:20:41.0	92.480	0.110	0.200	-0.730
2020/01/31 06:20:41.1	92.480	0.090	0.250	-0.730
2020/01/31 06:20:41.2	92.480	0.070	0.300	-0.720
2020/01/31 06:20:41.3	92.470	0.060	0.350	-0.720
2020/01/31 06:20:41.4	92.470	0.040	0.390	-0.710
2020/01/31 06:20:41.5	92.460	0.030	0.430	-0.690
2020/01/31 06:20:41.6	92.460	0.020	0.460	-0.680
2020/01/31 06:20:41.7	92.460	0.000	0.490	-0.660
2020/01/31 06:20:41.8	92.450	-0.010	0.520	-0.640
2020/01/31 06:20:41.9	92.450	-0.020	0.540	-0.620
2020/01/31 06:20:42.0	92.450	-0.020	0.560	-0.600
2020/01/31 06:20:42.1	92.450	-0.030	0.570	-0.580
2020/01/31 06:20:42.2	92.460	-0.040	0.570	-0.550
2020/01/31 06:20:42.3	92.460	-0.040	0.570	-0.520
2020/01/31 06:20:42.4	92.460	-0.050	0.570	-0.490
2020/01/31 06:20:42.5	92.460	-0.050	0.560	-0.460
2020/01/31 06:20:42.6	92.460	-0.050	0.540	-0.420
2020/01/31 06:20:42.7	92.470	-0.050	0.520	-0.380
2020/01/31 06:20:42.8	92.470	-0.050	0.500	-0.340
2020/01/31 06:20:42.9	92.480	-0.050	0.470	-0.290
2020/01/31 06:20:43.0	92.480	-0.050	0.430	-0.250
2020/01/31 06:20:43.1	92.490	-0.040	0.390	-0.200
2020/01/31 06:20:43.2	92.490	-0.040	0.340	-0.140
2020/01/31 06:20:43.3	92.500	-0.030	0.290	-0.080
2020/01/31 06:20:43.4	92.500	-0.020	0.240	-0.020
2020/01/31 06:20:43.5	92.500	-0.020	0.190	0.040
2020/01/31 06:20:43.6	92.510	-0.010	0.130	0.110
2020/01/31 06:20:43.7	92.510	0.000	0.070	0.170
2020/01/31 06:20:43.8	92.510	0.010	0.000	0.240
2020/01/31 06:20:43.9	92.510	0.020	-0.060	0.320
2020/01/31 06:20:44.0	92.510	0.040	-0.130	0.390
2020/01/31 06:20:44.1	92.510	0.050	-0.190	0.460
2020/01/31 06:20:44.2	92.510	0.060	-0.250	0.540
2020/01/31 06:20:44.3	92.510	0.070	-0.320	0.620
2020/01/31 06:20:44.4	92.510	0.090	-0.380	0.690
2020/01/31 06:20:44.5	92.510	0.100	-0.450	0.770
2020/01/31 06:20:44.6	92.510	0.110	-0.510	0.840
2020/01/31 06:20:44.7	92.520	0.130	-0.570	0.920
2020/01/31 06:20:44.8	92.520	0.140	-0.620	0.990
2020/01/31 06:20:44.9	92.520	0.150	-0.680	1.070
2020/01/31 06:20:45.0	92.520	0.170	-0.730	1.140
2020/01/31 06:20:45.1	92.520	0.180	-0.780	1.210
2020/01/31 06:20:45.2	92.530	0.190	-0.830	1.280
2020/01/31 06:20:45.3	92.530	0.200	-0.870	1.350
2020/01/31 06:20:45.4	92.540	0.210	-0.910	1.420
2020/01/31 06:20:45.5	92.540	0.220	-0.940	1.480
2020/01/31 06:20:45.6	92.550	0.230	-0.970	1.550
2020/01/31 06:20:45.7	92.560	0.240	-1.000	1.610
2020/01/31 06:20:45.8	92.560	0.250	-1.020	1.670
2020/01/31 06:20:45.9	92.570	0.260	-1.030	1.730
2020/01/31 06:20:46.0	92.580	0.260	-1.040	1.800
2020/01/31 06:20:46.1	92.580	0.270	-1.050	1.860
2020/01/31 06:20:46.2	92.580	0.270	-1.040	1.920
2020/01/31 06:20:46.3	92.590	0.270	-1.040	1.980
2020/01/31 06:20:46.4	92.590	0.270	-1.030	2.050
2020/01/31 06:20:46.5	92.590	0.270	-1.010	2.110
2020/01/31 06:20:46.6	92.590	0.260	-0.980	2.180
2020/01/31 06:20:46.7	92.590	0.260	-0.960	2.240
2020/01/31 06:20:46.8	92.580	0.250	-0.920	2.300
2020/01/31 06:20:46.9	92.580	0.240	-0.880	2.370
2020/01/31 06:20:47.0	92.570	0.230	-0.840	2.430
2020/01/31 06:20:47.1	92.560	0.220	-0.790	2.490
2020/01/31 06:20:47.2	92.540	0.200	-0.730	2.560
2020/01/31 06:20:47.3	92.520	0.190	-0.680	2.610
2020/01/31 06:20:47.4	92.510	0.170	-0.620	2.670
2020/01/31 06:20:47.5	92.500	0.150	-0.550	2.720
2020/01/31 06:20:47.6	92.480	0.130	-0.490	2.780
2020/01/31 06:20:47.7	92.460	0.110	-0.420	2.820
2020/01/31 06:20:47.8	92.450	0.090	-0.350	2.870
2020/01/31 06:20:47.9	92.430	0.060	-0.270	2.900
2020/01/31 06:20:48.0	92.410	0.040	-0.200	2.940
2020/01/31 06:20:48.1	92.390	0.010	-0.130	2.970
2020/01/31 06:20:48.2	92.350	-0.010	-0.050	2.990
2020/01/31 06:20:48.3	92.330	-0.040	0.020	3.010
2020/01/31 06:20:48.4	92.310	-0.070	0.090	3.020
2020/01/31 06:20:48.5	92.290	-0.090	0.160	3.020
2020/01/31 06:20:48.6	92.280	-0.120	0.220	3.020
2020/01/31 06:20:48.7	92.260	-0.150	0.290	3.000
2020/01/31 06:20:48.8	92.240	-0.170	0.350	2.980
2020/01/31 06:20:48.9	92.230	-0.200	0.400	2.950
2020/01/31 06:20:49.0	92.220	-0.220	0.450	2.920
2020/01/31 06:20:49.1	92.210	-0.250	0.500	2.870
2020/01/31 06:20:49.2	92.200	-0.270	0.550	2.820
2020/01/31 06:20:49.3	92.190	-0.290	0.580	2.760
2020/01/31 06:20:49.4	92.180	-0.310	0.610	2.700
2020/01/31 06:20:49.5	92.180	-0.330	0.640	2.620
2020/01/31 06:20:49.6	92.170	-0.350	0.660	2.540
2020/01/31 06:20:49.7	92.170	-0.360	0.670	2.450
2020/01/31 06:20:49.8	92.170	-0.380	0.680	2.360
2020/01/31 06:20:49.9	92.160	-0.390	0.680	2.260
2020/01/31 06:20:50.0	92.160	-0.400	0.670	2.160
2020/01/31 06:20:50.1	92.160	-0.400	0.660	2.060
2020/01/31 06:20:50.2	92.160	-0.410	0.650	1.950
2020/01/31 06:20:50.3	92.150	-0.410	0.630	1.840
2020/01/31 06:20:50.4	92.150	-0.420	0.600	1.720
2020/01/31 06:20:50.5	92.140	-0.410	0.570	1.610
2020/01/31 06:20:50.6	92.140	-0.410	0.540	1.490
2020/01/31 06:20:50.7	92.130	-0.410	0.500	1.380
2020/01/31 06:20:50.8	92.120	-0.400	0.460	1.260
2020/01/31 06:20:50.9	92.110	-0.390	0.420	1.140
2020/01/31 06:20:51.0	92.100	-0.380	0.370	1.030
2020/01/31 06:20:51.1	92.100	-0.370	0.320	0.910
2020/01/31 06:20:51.2	92.090	-0.350	0.270	0.790
2020/01/31 06:20:51.3	92.090	-0.330	0.220	0.680
2020/01/31 06:20:51.4	92.080	-0.310	0.160	0.560
2020/01/31 06:20:51.5	92.070	-0.290	0.110	0.450
2020/01/31 06:20:51.6	92.070	-0.270	0.050	0.340
2020/01/31 06:20:51.7	92.060	-0.250	-0.000	0.220
2020/01/31 06:20:51.8	92.060	-0.220	-0.060	0.110
2020/01/31 06:20:51.9	92.060	-0.200	-0.110	-0.000
2020/01/31 06:20:52.0	92.060	-0.170	-0.170	-0.120
2020/01/31 06:20:52.1	92.060	-0.140	-0.220	-0.230
2020/01/31 06:20:52.2	92.070	-0.110	-0.270	-0.340
2020/01/31 06:20:52.3	92.070	-0.090	-0.320	-0.450
2020/01/31 06:20:52.4	92.080	-0.060	-0.370	-0.560
2020/01/31 06:20:52.5	92.090	-0.030	-0.420	-0.660
2020/01/31 06:20:52.6	92.100	0.000	-0.470	-0.770
2020/01/31 06:20:52.7	92.100	0.030	-0.510	-0.870
2020/01/31 06:20:52.8	92.120	0.060	-0.550	-0.980
2020/01/31 06:20:52.9	92.130	0.090	-0.590	-1.070
2020/01/31 06:20:53.0	92.140	0.110	-0.630	-1.170
2020/01/31 06:20:53.1	92.150	0.140	-0.660	-1.260
2020/01/31 06:20:53.2	92.170	0.160	-0.690	-1.340
2020/01/31 06:20:53.3	92.180	0.180	-0.720	-1.420
2020/01/31 06:20:53.4	92.190	0.210	-0.740	-1.500
2020/01/31 06:20:53.5	92.200	0.220	-0.750	-1.560
2020/01/31 06:20:53.6	92.210	0.240	-0.770	-1.620
2020/01/31 06:20:53.7	92.220	0.250	-0.770	-1.680
2020/01/31 06:20:53.8	92.230	0.260	-0.780	-1.720
2020/01/31 06:20:53.9	92.240	0.270	-0.780	-1.760
2020/01/31 06:20:54.0	92.240	0.280	-0.770	-1.790
2020/01/31 06:20:54.1	92.250	0.280	-0.760	-1.810
2020/01/31 06:20:54.2	92.250	0.280	-0.740	-1.830
2020/01/31 06:20:54.3	92.250	0.280	-0.720	-1.830
2020/01/31 06:20:54.4	92.250	0.280	-0.700	-1.830
2020/01/31 06:20:54.5	92.260	0.270	-0.680	-1.820
2020/01/31 06:20:54.6	92.250	0.260	-0.650	-1.800
2020/01/31 06:20:54.7	92.250	0.250	-0.610	-1.780
2020/01/31 06:20:54.8	92.250	0.240	-0.580	-1.750
2020/01/31 06:20:54.9	92.250	0.220	-0.540	-1.710
2020/01/31 06:20:55.0	92.250	0.210	-0.500	-1.670
2020/01/31 06:20:55.1	92.250	0.190	-0.460	-1.620
2020/01/31 06:20:55.2	92.250	0.170	-0.420	-1.560
2020/01/31 06:20:55.3	92.250	0.140	-0.370	-1.500
2020/01/31 06:20:55.4	92.250	0.120	-0.330	-1.430
2020/01/31 06:20:55.5	92.250	0.100	-0.280	-1.360
2020/01/31 06:20:55.6	92.250	0.070	-0.230	-1.290
2020/01/31 06:20:55.7	92.260	0.050	-0.190	-1.210
2020/01/31 06:20:55.8	92.260	0.020	-0.140	-1.130
2020/01/31 06:20:55.9	92.270	-0.000	-0.100	-1.040
2020/01/31 06:20:56.0	92.280	-0.020	-0.060	-0.960
2020/01/31 06:20:56.1	92.280	-0.050	-0.020	-0.870
2020/01/31 06:20:56.2	92.290	-0.070	0.030	-0.780
2020/01/31 06:20:56.3	92.300	-0.100	0.060	-0.680
2020/01/31 06:20:56.4	92.300	-0.120	0.100	-0.590
2020/01/31 06:20:56.5	92.310	-0.140	0.130	-0.490
2020/01/31 06:20:56.6	92.320	-0.160	0.150	-0.390
2020/01/31 06:20:56.7	92.330	-0.170	0.180	-0.290
2020/01/31 06:20:56.8	92.330	-0.190	0.200	-0.180
2020/01/31 06:20:56.9	92.340	-0.200	0.220	-0.080
2020/01/31 06:20:57.0	92.340	-0.210	0.230	0.030
2020/01/31 06:20:57.1	92.340	-0.220	0.240	0.140
2020/01/31 06:20:57.2	92.340	-0.230	0.250	0.250
2020/01/31 06:20:57.3	92.340	-0.230	0.250	0.360
2020/01/31 06:20:57.4	92.340	-0.240	0.250	0.470
2020/01/31 06:20:57.5	92.330	-0.230	0.250	0.590
2020/01/31 06:20:57.6	92.330	-0.230	0.240	0.700
2020/01/31 06:20:57.7	92.320	-0.220	0.230	0.820
2020/01/31 06:20:57.8	92.310	-0.220	0.220	0.940
2020/01/31 06:20:57.9	92.300	-0.200	0.200	1.060
2020/01/31 06:20:58.0	92.290	-0.190	0.180	1.170
2020/01/31 06:20:58.1	92.280	-0.170	0.160	1.290
2020/01/31 06:20:58.2	92.260	-0.160	0.140	1.410
2020/01/31 06:20:58.3	92.240	-0.140	0.110	1.520
2020/01/31 06:20:58.4	92.230	-0.120	0.080	1.640
2020/01/31 06:20:58.5	92.220	-0.090	0.050	1.750
2020/01/31 06:20:58.6	92.200	-0.070	0.020	1.860
2020/01/31 06:20:58.7	92.190	-0.040	-0.020	1.970
2020/01/31 06:20:58.8	92.170	-0.020	-0.050	2.080
2020/01/31 06:20:58.9	92.160	0.010	-0.090	2.190
2020/01/31 06:20:59.0	92.140	0.030	-0.130	2.290
2020/01/31 06:20:59.1	92.130	0.060	-0.160	2.390
2020/01/31 06:20:59.2	92.110	0.080	-0.200	2.490
2020/01/31 06:20:59.3	92.100	0.110	-0.240	2.580
2020/01/31 06:20:59.4	92.090	0.130	-0.270	2.670
2020/01/31 06:20:59.5	92.080	0.150	-0.300	2.750
2020/01/31 06:20:59.6	92.070	0.170	-0.330	2.830
2020/01/31 06:20:59.7	92.060	0.190	-0.360	2.910
2020/01/31 06:20:59.8	92.050	0.200	-0.380	2.970
2020/01/31 06:20:59.9	92.040	0.220	-0.400	3.040
2020/01/31 06:21:00.0	92.040	0.230	-0.420	3.100
2020/01/31 06:21:00.1	92.030	0.230	-0.430	3.150
2020/01/31 06:21:00.2	92.030	0.240	-0.440	3.200
2020/01/31 06:21:00.3	92.030	0.240	-0.450	3.240
2020/01/31 06:21:00.4	92.030	0.240	-0.450	3.280
2020/01/31 06:21:00.5	92.030	0.240	-0.450	3.310
2020/01/31 06:21:00.6	92.030	0.230	-0.440	3.330
2020/01/31 06:21:00.7	92.040	0.220	-0.430	3.350
2020/01/31 06:21:00.8	92.040	0.210	-0.420	3.360
2020/01/31 06:21:00.9	92.050	0.200	-0.400	3.360
2020/01/31 06:21:01.0	92.060	0.180	-0.380	3.360
2020/01/31 06:21:01.1	92.070	0.170	-0.360	3.350
2020/01/31 06:21:01.2	92.070	0.150	-0.340	3.330
2020/01/31 06:21:01.3	92.080	0.130	-0.320	3.310
2020/01/31 06:21:01.4	92.090	0.120	-0.300	3.280
2020/01/31 06:21:01.5	92.100	0.100	-0.270	3.250
2020/01/31 06:21:01.6	92.110	0.080	-0.250	3.210
2020/01/31 06:21:01.7	92.120	0.070	-0.230	3.170
2020/01/31 06:21:01.8	92.140	0.050	-0.210	3.110
2020/01/31 06:21:01.9	92.150	0.040	-0.190	3.060
2020/01/31 06:21:02.0	92.160	0.030	-0.170	3.000
2020/01/31 06:21:02.1	92.170	0.020	-0.150	2.930
2020/01/31 06:21:02.2	92.180	0.010	-0.130	2.860
2020/01/31 06:21:02.3	92.190	0.000	-0.120	2.790
2020/01/31 06:21:02.4	92.200	0.000	-0.110	2.710
2020/01/31 06:21:02.5	92.210	0.000	-0.100	2.630
2020/01/31 06:21:02.6	92.220	0.000	-0.100	2.540
2020/01/31 06:21:02.7	92.230	0.010	-0.090	2.450
2020/01/31 06:21:02.8	92.230	0.020	-0.090	2.360
2020/01/31 06:21:02.9	92.240	0.030	-0.090	2.270
2020/01/31 06:21:03.0	92.250	0.040	-0.100	2.170
2020/01/31 06:21:03.1	92.250	0.060	-0.100	2.070
2020/01/31 06:21:03.2	92.250	0.070	-0.110	1.970
2020/01/31 06:21:03.3	92.250	0.090	-0.120	1.870
2020/01/31 06:21:03.4	92.250	0.110	-0.130	1.760
2020/01/31 06:21:03.5	92.250	0.140	-0.140	1.660
2020/01/31 06:21:03.6	92.250	0.160	-0.150	1.550
2020/01/31 06:21:03.7	92.250	0.180	-0.160	1.440
2020/01/31 06:21:03.8	92.250	0.200	-0.170	1.330
2020/01/31 06:21:03.9	92.240	0.230	-0.180	1.220
2020/01/31 06:21:04.0	92.240	0.250	-0.190	1.110
2020/01/31 06:21:04.1	92.230	0.270	-0.200	1.000
2020/01/31 06:21:04.2	92.220	0.300	-0.210	0.900
2020/01/31 06:21:04.3	92.210	0.320	-0.220	0.790
2020/01/31 06:21:04.4	92.200	0.330	-0.230	0.680
2020/01/31 06:21:04.5	92.190	0.350	-0.230	0.580
2020/01/31 06:21:04.6	92.180	0.360	-0.240	0.470
2020/01/31 06:21:04.7	92.160	0.380	-0.240	0.370
2020/01/31 06:21:04.8	92.150	0.390	-0.250	0.260
2020/01/31 06:21:04.9	92.130	0.390	-0.250	0.160
2020/01/31 06:21:05.0	92.110	0.390	-0.250	0.060
2020/01/31 06:21:05.1	92.100	0.390	-0.250	-0.040
2020/01/31 06:21:05.2	92.090	0.390	-0.240	-0.130
2020/01/31 06:21:05.3	92.080	0.380	-0.240	-0.230
2020/01/31 06:21:05.4	92.070	0.370	-0.230	-0.320
2020/01/31 06:21:05.5	92.050	0.350	-0.220	-0.400
2020/01/31 06:21:05.6	92.040	0.340	-0.210	-0.490
2020/01/31 06:21:05.7	92.030	0.310	-0.200	-0.560
2020/01/31 06:21:05.8	92.020	0.290	-0.190	-0.640
2020/01/31 06:21:05.9	92.010	0.260	-0.170	-0.710
2020/01/31 06:21:06.0	92.010	0.230	-0.160	-0.780
2020/01/31 06:21:06.1	92.000	0.190	-0.140	-0.840
2020/01/31 06:21:06.2	92.000	0.160	-0.120	-0.900
2020/01/31 06:21:06.3	92.000	0.120	-0.100	-0.950
2020/01/31 06:21:06.4	92.000	0.070	-0.080	-1.000
2020/01/31 06:21:06.5	92.010	0.030	-0.060	-1.040
2020/01/31 06:21:06.6	92.010	-0.020	-0.040	-1.070
2020/01/31 06:21:06.7	92.020	-0.060	-0.010	-1.100
2020/01/31 06:21:06.8	92.030	-0.110	0.010	-1.130
2020/01/31 06:21:06.9	92.040	-0.160	0.030	-1.150
2020/01/31 06:21:07.0	92.050	-0.210	0.050	-1.160
2020/01/31 06:21:07.1	92.060	-0.260	0.080	-1.170
2020/01/31 06:21:07.2	92.080	-0.310	0.100	-1.170
2020/01/31 06:21:07.3	92.100	-0.350	0.120	-1.170
2020/01/31 06:21:07.4	92.120	-0.400	0.140	-1.170
2020/01/31 06:21:07.5	92.140	-0.440	0.160	-1.160
2020/01/31 06:21:07.6	92.160	-0.480	0.170	-1.150
2020/01/31 06:21:07.7	92.180	-0.520	0.190	-1.130
2020/01/31 06:21:07.8	92.200	-0.560	0.200	-1.110
2020/01/31 06:21:07.9	92.230	-0.600	0.220	-1.090
2020/01/31 06:21:08.0	92.250	-0.630	0.230	-1.060
2020/01/31 06:21:08.1	92.270	-0.650	0.230	-1.030
2020/01/31 06:21:08.2	92.300	-0.680	0.240	-1.000
2020/01/31 06:21:08.3	92.320	-0.700	0.240	-0.960
2020/01/31 06:21:08.4	92.350	-0.710	0.240	-0.920
2020/01/31 06:21:08.5	92.370	-0.730	0.230	-0.880
2020/01/31 06:21:08.6	92.400	-0.730	0.230	-0.830
2020/01/31 06:21:08.7	92.420	-0.740	0.220	-0.780
2020/01/31 06:21:08.8	92.440	-0.740	0.210	-0.730
2020/01/31 06:21:08.9	92.460	-0.730	0.190	-0.680
2020/01/31 06:21:09.0	92.480	-0.720	0.170	-0.620
2020/01/31 06:21:09.1	92.490	-0.710	0.150	-0.560
2020/01/31 06:21:09.2	92.510	-0.690	0.120	-0.490
2020/01/31 06:21:09.3	92.520	-0.670	0.090	-0.420
2020/01/31 06:21:09.4	92.530	-0.640	0.060	-0.350
2020/01/31 06:21:09.5	92.540	-0.610	0.020	-0.270
2020/01/31 06:21:09.6	92.550	-0.580	-0.020	-0.200
2020/01/31 06:21:09.7	92.550	-0.540	-0.060	-0.110
2020/01/31 06:21:09.8	92.560	-0.510	-0.100	-0.030
2020/01/31 06:21:09.9	92.560	-0.460	-0.150	0.060
2020/01/31 06:21:10.0	92.560	-0.420	-0.200	0.140
2020/01/31 06:21:10.1	92.560	-0.370	-0.250	0.230
2020/01/31 06:21:10.2	92.550	-0.320	-0.310	0.330
2020/01/31 06:21:10.3	92.550	-0.270	-0.360	0.430
2020/01/31 06:21:10.4	92.540	-0.220	-0.410	0.520
2020/01/31 06:21:10.5	92.540	-0.170	-0.470	0.620
2020/01/31 06:21:10.6	92.530	-0.120	-0.520	0.720
2020/01/31 06:21:10.7	92.520	-0.060	-0.580	0.820
2020/01/31 06:21:10.8	92.510	-0.010	-0.630	0.920
2020/01/31 06:21:10.9	92.500	0.040	-0.680	1.020
2020/01/31 06:21:11.0	92.490	0.100	-0.730	1.120
2020/01/31 06:21:11.1	92.480	0.150	-0.770	1.210
2020/01/31 06:21:11.2	92.480	0.200	-0.810	1.310
2020/01/31 06:21:11.3	92.460	0.250	-0.850	1.410
2020/01/31 06:21:11.4	92.450	0.290	-0.880	1.510
2020/01/31 06:21:11.5	92.440	0.340	-0.910	1.600
2020/01/31 06:21:11.6	92.430	0.380	-0.930	1.700
2020/01/31 06:21:11.7	92.410	0.420	-0.950	1.790
2020/01/31 06:21:11.8	92.400	0.460	-0.950	1.880
2020/01/31 06:21:11.9	92.380	0.490	-0.950	1.970
2020/01/31 06:21:12.0	92.360	0.520	-0.950	2.050
2020/01/31 06:21:12.1	92.340	0.540	-0.940	2.130
2020/01/31 06:21:12.2	92.310	0.570	-0.920	2.210
2020/01/31 06:21:12.3	92.290	0.580	-0.890	2.280
2020/01/31 06:21:12.4	92.270	0.600	-0.850	2.350
2020/01/31 06:21:12.5	92.240	0.610	-0.810	2.420
2020/01/31 06:21:12.6	92.220	0.610	-0.760	2.480
2020/01/31 06:21:12.7	92.190	0.620	-0.710	2.530
2020/01/31 06:21:12.8	92.170	0.610	-0.640	2.570
2020/01/31 06:21:12.9	92.140	0.610	-0.580	2.610
2020/01/31 06:21:13.0	92.120	0.600	-0.510	2.650
2020/01/31 06:21:13.1	92.090	0.580	-0.430	2.670
2020/01/31 06:21:13.2	92.060	0.570	-0.350	2.690
2020/01/31 06:21:13.3	92.040	0.550	-0.270	2.700
2020/01/31 06:21:13.4	92.010	0.520	-0.190	2.710
2020/01/31 06:21:13.5	91.990	0.500	-0.100	2.700
2020/01/31 06:21:13.6	91.970	0.470	-0.020	2.690
2020/01/31 06:21:13.7	91.960	0.440	0.060	2.670
2020/01/31 06:21:13.8	91.940	0.410	0.140	2.640
2020/01/31 06:21:13.9	91.930	0.370	0.220	2.610
2020/01/31 06:21:14.0	91.920	0.340	0.290	2.560
2020/01/31 06:21:14.1	91.910	0.300	0.360	2.510
2020/01/31 06:21:14.2	91.900	0.270	0.420	2.450
2020/01/31 06:21:14.3	91.900	0.230	0.470	2.390
2020/01/31 06:21:14.4	91.890	0.190	0.520	2.310
2020/01/31 06:21:14.5	91.890	0.160	0.570	2.240
2020/01/31 06:21:14.6	91.900	0.120	0.600	2.150
2020/01/31 06:21:14.7	91.900	0.090	0.630	2.070
2020/01/31 06:21:14.8	91.910	0.060	0.650	1.980
2020/01/31 06:21:14.9	91.920	0.030	0.660	1.880
2020/01/31 06:21:15.0	91.930	-0.000	0.670	1.780
2020/01/31 06:21:15.1	91.950	-0.030	0.660	1.680
2020/01/31 06:21:15.2	91.970	-0.050	0.650	1.580
2020/01/31 06:21:15.3	91.990	-0.080	0.630	1.480
2020/01/31 06:21:15.4	92.010	-0.100	0.610	1.370
2020/01/31 06:21:15.5	92.030	-0.110	0.570	1.270
2020/01/31 06:21:15.6	92.050	-0.130	0.530	1.160
2020/01/31 06:21:15.7	92.080	-0.140	0.480	1.050
2020/01/31 06:21:15.8	92.100	-0.150	0.420	0.950
2020/01/31 06:21:15.9	92.130	-0.160	0.360	0.850
2020/01/31 06:21:16.0	92.150	-0.160	0.300	0.750
2020/01/31 06:21:16.1	92.170	-0.170	0.230	0.650
2020/01/31 06:21:16.2	92.200	-0.170	0.160	0.550
2020/01/31 06:21:16.3	92.230	-0.160	0.080	0.460
2020/01/31 06:21:16.4	92.250	-0.160	0.000	0.370
2020/01/31 06:21:16.5	92.270	-0.150	-0.070	0.280
2020/01/31 06:21:16.6	92.290	-0.150	-0.150	0.200
2020/01/31 06:21:16.7	92.300	-0.140	-0.230	0.120
2020/01/31 06:21:16.8	92.320	-0.130	-0.310	0.050
2020/01/31 06:21:16.9	92.330	-0.120	-0.380	-0.020
2020/01/31 06:21:17.0	92.340	-0.110	-0.460	-0.080
2020/01/31 06:21:17.1	92.350	-0.100	-0.520	-0.140
2020/01/31 06:21:17.2	92.360	-0.090	-0.590	-0.190
2020/01/31 06:21:17.3	92.370	-0.080	-0.650	-0.240
2020/01/31 06:21:17.4	92.380	-0.070	-0.700	-0.290
2020/01/31 06:21:17.5	92.380	-0.060	-0.750	-0.330
2020/01/31 06:21:17.6	92.390	-0.050	-0.790	-0.370
2020/01/31 06:21:17.7	92.390	-0.050	-0.820	-0.400
2020/01/31 06:21:17.8	92.400	-0.040	-0.850	-0.430
2020/01/31 06:21:17.9	92.400	-0.040	-0.870	-0.450
2020/01/31 06:21:18.0	92.400	-0.030	-0.880	-0.470
2020/01/31 06:21:18.1	92.400	-0.030	-0.880	-0.490
2020/01/31 06:21:18.2	92.400	-0.030	-0.870	-0.500
2020/01/31 06:21:18.3	92.400	-0.030	-0.860	-0.500
2020/01/31 06:21:18.4	92.400	-0.040	-0.840	-0.500
2020/01/31 06:21:18.5	92.400	-0.040	-0.810	-0.500
2020/01/31 06:21:18.6	92.400	-0.050	-0.770	-0.490
2020/01/31 06:21:18.7	92.400	-0.060	-0.730	-0.480
2020/01/31 06:21:18.8	92.400	-0.070	-0.680	-0.470
2020/01/31 06:21:18.9	92.390	-0.080	-0.620	-0.440
2020/01/31 06:21:19.0	92.390	-0.090	-0.560	-0.420
2020/01/31 06:21:19.1	92.380	-0.110	-0.490	-0.390
2020/01/31 06:21:19.2	92.380	-0.120	-0.420	-0.360
2020/01/31 06:21:19.3	92.370	-0.140	-0.350	-0.320
2020/01/31 06:21:19.4	92.370	-0.150	-0.270	-0.280
2020/01/31 06:21:19.5	92.360	-0.170	-0.190	-0.240
2020/01/31 06:21:19.6	92.350	-0.190	-0.110	-0.200
2020/01/31 06:21:19.7	92.340	-0.200	-0.030	-0.150
2020/01/31 06:21:19.8	92.330	-0.220	0.050	-0.100
2020/01/31 06:21:19.9	92.320	-0.240	0.130	-0.050
2020/01/31 06:21:20.0	92.310	-0.260	0.200	0.010
2020/01/31 06:21:20.1	92.300	-0.280	0.280	0.070
2020/01/31 06:21:20.2	92.300	-0.290	0.350	0.130
2020/01/31 06:21:20.3	92.290	-0.310	0.420	0.190
2020/01/31 06:21:20.4	92.280	-0.320	0.480	0.250
2020/01/31 06:21:20.5	92.260	-0.340	0.540	0.310
2020/01/31 06:21:20.6	92.250	-0.350	0.590	0.370
2020/01/31 06:21:20.7	92.240	-0.360	0.640	0.430
2020/01/31 06:21:20.8	92.230	-0.370	0.680	0.490
2020/01/31 06:21:20.9	92.210	-0.380	0.710	0.550
2020/01/31 06:21:21.0	92.200	-0.380	0.740	0.610
2020/01/31 06:21:21.1	92.190	-0.390	0.760	0.670
2020/01/31 06:21:21.2	92.170	-0.390	0.770	0.730
2020/01/31 06:21:21.3	92.150	-0.390	0.770	0.780
2020/01/31 06:21:21.4	92.140	-0.380	0.770	0.840
2020/01/31 06:21:21.5	92.130	-0.380	0.750	0.890
2020/01/31 06:21:21.6	92.120	-0.370	0.730	0.930
2020/01/31 06:21:21.7	92.110	-0.350	0.700	0.980
2020/01/31 06:21:21.8	92.090	-0.340	0.650	1.020
2020/01/31 06:21:21.9	92.080	-0.320	0.610	1.060
2020/01/31 06:21:22.0	92.070	-0.300	0.550	1.090
2020/01/31 06:21:22.1	92.070	-0.270	0.480	1.120
2020/01/31 06:21:22.2	92.060	-0.240	0.410	1.140
2020/01/31 06:21:22.3	92.050	-0.210	0.330	1.160
2020/01/31 06:21:22.4	92.040	-0.180	0.240	1.180
2020/01/31 06:21:22.5	92.040	-0.140	0.150	1.190
2020/01/31 06:21:22.6	92.030	-0.100	0.050	1.200
2020/01/31 06:21:22.7	92.030	-0.050	-0.060	1.200
2020/01/31 06:21:22.8	92.020	-0.010	-0.160	1.200
2020/01/31 06:21:22.9	92.020	0.040	-0.270	1.200
2020/01/31 06:21:23.0	92.010	0.090	-0.380	1.190
2020/01/31 06:21:23.1	92.010	0.140	-0.490	1.190
2020/01/31 06:21:23.2	92.010	0.190	-0.610	1.170
2020/01/31 06:21:23.3	92.000	0.250	-0.720	1.160
2020/01/31 06:21:23.4	92.000	0.300	-0.820	1.150
2020/01/31 06:21:23.5	92.000	0.350	-0.920	1.130
2020/01/31 06:21:23.6	91.990	0.410	-1.020	1.120
2020/01/31 06:21:23.7	91.990	0.460	-1.110	1.100
2020/01/31 06:21:23.8	91.990	0.510	-1.200	1.090
2020/01/31 06:21:23.9	91.980	0.560	-1.270	1.070
2020/01/31 06:21:24.0	91.980	0.600	-1.340	1.060
2020/01/31 06:21:24.1	91.980	0.650	-1.400	1.050
2020/01/31 06:21:24.2	91.970	0.690	-1.450	1.030
2020/01/31 06:21:24.3	91.960	0.720	-1.480	1.020
2020/01/31 06:21:24.4	91.960	0.750	-1.510	1.010
2020/01/31 06:21:24.5	91.960	0.780	-1.520	1.000
2020/01/31 06:21:24.6	91.960	0.800	-1.530	1.000
2020/01/31 06:21:24.7	91.950	0.820	-1.520	0.990
2020/01/31 06:21:24.8	91.950	0.830	-1.500	0.990
2020/01/31 06:21:24.9	91.950	0.840	-1.470	0.990
2020/01/31 06:21:25.0	91.950	0.840	-1.420	0.990
2020/01/31 06:21:25.1	91.950	0.830	-1.370	0.990
2020/01/31 06:21:25.2	91.960	0.820	-1.300	0.990
2020/01/31 06:21:25.3	91.960	0.800	-1.230	1.000
2020/01/31 06:21:25.4	91.960	0.780	-1.150	1.010
2020/01/31 06:21:25.5	91.960	0.750	-1.050	1.020
2020/01/31 06:21:25.6	91.970	0.720	-0.960	1.030
2020/01/31 06:21:25.7	91.970	0.680	-0.850	1.040
2020/01/31 06:21:25.8	91.980	0.640	-0.740	1.050
2020/01/31 06:21:25.9	91.990	0.590	-0.620	1.070
2020/01/31 06:21:26.0	92.000	0.530	-0.500	1.080
2020/01/31 06:21:26.1	92.010	0.480	-0.380	1.100
2020/01/31 06:21:26.2	92.020	0.420	-0.260	1.120
2020/01/31 06:21:26.3	92.030	0.360	-0.130	1.140
2020/01/31 06:21:26.4	92.040	0.290	-0.010	1.160
2020/01/31 06:21:26.5	92.050	0.220	0.110	1.180
2020/01/31 06:21:26.6	92.060	0.160	0.230	1.200
2020/01/31 06:21:26.7	92.080	0.090	0.340	1.220
2020/01/31 06:21:26.8	92.090	0.020	0.450	1.230
2020/01/31 06:21:26.9	92.100	-0.050	0.550	1.250
2020/01/31 06:21:27.0	92.110	-0.120	0.650	1.270
2020/01/31 06:21:27.1	92.120	-0.180	0.740	1.290
2020/01/31 06:21:27.2	92.130	-0.250	0.830	1.310
2020/01/31 06:21:27.3	92.140	-0.310	0.900	1.330
2020/01/31 06:21:27.4	92.150	-0.370	0.970	1.340
2020/01/31 06:21:27.5	92.160	-0.430	1.020	1.350
2020/01/31 06:21:27.6	92.170	-0.480	1.070	1.370
2020/01/31 06:21:27.7	92.180	-0.530	1.100	1.370
2020/01/31 06:21:27.8	92.180	-0.580	1.130	1.380
2020/01/31 06:21:27.9	92.190	-0.620	1.150	1.390
2020/01/31 06:21:28.0	92.200	-0.650	1.150	1.390
2020/01/31 06:21:28.1	92.210	-0.690	1.150	1.390
2020/01/31 06:21:28.2	92.220	-0.720	1.140	1.380
2020/01/31 06:21:28.3	92.220	-0.740	1.120	1.380
2020/01/31 06:21:28.4	92.230	-0.760	1.090	1.370
2020/01/31 06:21:28.5	92.240	-0.770	1.050	1.360
2020/01/31 06:21:28.6	92.250	-0.780	1.010	1.340
2020/01/31 06:21:28.7	92.260	-0.790	0.960	1.330
2020/01/31 06:21:28.8	92.270	-0.790	0.900	1.310
2020/01/31 06:21:28.9	92.280	-0.790	0.840	1.300
2020/01/31 06:21:29.0	92.290	-0.790	0.770	1.280
2020/01/31 06:21:29.1	92.300	-0.780	0.710	1.260
2020/01/31 06:21:29.2	92.300	-0.770	0.630	1.240
2020/01/31 06:21:29.3	92.310	-0.750	0.560	1.230
2020/01/31 06:21:29.4	92.320	-0.740	0.480	1.210
2020/01/31 06:21:29.5	92.320	-0.720	0.410	1.200
2020/01/31 06:21:29.6	92.320	-0.700	0.330	1.180
2020/01/31 06:21:29.7	92.330	-0.670	0.250	1.170
2020/01/31 06:21:29.8	92.330	-0.650	0.180	1.160
2020/01/31 06:21:29.9	92.330	-0.630	0.100	1.160
2020/01/31 06:21:30.0	92.320	-0.600	0.030	1.150
2020/01/31 06:21:30.1	92.320	-0.570	-0.040	1.150
2020/01/31 06:21:30.2	92.310	-0.540	-0.110	1.150
2020/01/31 06:21:30.3	92.310	-0.510	-0.170	1.150
2020/01/31 06:21:30.4	92.300	-0.490	-0.240	1.150
2020/01/31 06:21:30.5	92.290	-0.460	-0.300	1.150
2020/01/31 06:21:30.6	92.280	-0.430	-0.360	1.150
2020/01/31 06:21:30.7	92.260	-0.400	-0.410	1.150
2020/01/31 06:21:30.8	92.250	-0.360	-0.470	1.160
2020/01/31 06:21:30.9	92.230	-0.330	-0.520	1.160
2020/01/31 06:21:31.0	92.220	-0.300	-0.560	1.170
2020/01/31 06:21:31.1	92.200	-0.270	-0.610	1.170
2020/01/31 06:21:31.2	92.170	-0.240	-0.650	1.170
2020/01/31 06:21:31.3	92.150	-0.210	-0.690	1.170
2020/01/31 06:21:31.4	92.130	-0.170	-0.730	1.170
2020/01/31 06:21:31.5	92.110	-0.140	-0.760	1.170
2020/01/31 06:21:31.6	92.090	-0.110	-0.800	1.170
2020/01/31 06:21:31.7	92.070	-0.070	-0.830	1.160
2020/01/31 06:21:31.8	92.050	-0.040	-0.860	1.150
2020/01/31 06:21:31.9	92.030	-0.000	-0.880	1.140
2020/01/31 06:21:32.0	92.010	0.030	-0.910	1.130
2020/01/31 06:21:32.1	91.990	0.070	-0.930	1.120
2020/01/31 06:21:32.2	91.970	0.110	-0.950	1.100
2020/01/31 06:21:32.3	91.950	0.140	-0.970	1.080
2020/01/31 06:21:32.4	91.930	0.180	-0.980	1.060
2020/01/31 06:21:32.5	91.910	0.220	-1.000	1.030
2020/01/31 06:21:32.6	91.900	0.250	-1.010	1.000
2020/01/31 06:21:32.7	91.890	0.290	-1.020	0.970
2020/01/31 06:21:32.8	91.880	0.330	-1.020	0.940
2020/01/31 06:21:32.9	91.870	0.360	-1.030	0.900
2020/01/31 06:21:33.0	91.860	0.400	-1.030	0.860
2020/01/31 06:21:33.1	91.860	0.430	-1.030	0.820
2020/01/31 06:21:33.2	91.850	0.460	-1.020	0.780
2020/01/31 06:21:33.3	91.860	0.490	-1.010	0.740
2020/01/31 06:21:33.4	91.860	0.520	-1.000	0.690
2020/01/31 06:21:33.5	91.870	0.550	-0.980	0.650
2020/01/31 06:21:33.6	91.880	0.570	-0.960	0.600
2020/01/31 06:21:33.7	91.890	0.590	-0.940	0.560
2020/01/31 06:21:33.8	91.900	0.620	-0.910	0.510
2020/01/31 06:21:33.9	91.920	0.630	-0.880	0.470
2020/01/31 06:21:34.0	91.940	0.650	-0.840	0.420
2020/01/31 06:21:34.1	91.950	0.660	-0.800	0.380
2020/01/31 06:21:34.2	91.970	0.670	-0.750	0.340
2020/01/31 06:21:34.3	91.990	0.670	-0.700	0.300
2020/01/31 06:21:34.4	92.010	0.680	-0.650	0.270
2020/01/31 06:21:34.5	92.030	0.670	-0.590	0.230
2020/01/31 06:21:34.6	92.050	0.670	-0.540	0.200
2020/01/31 06:21:34.7	92.070	0.660	-0.470	0.170
2020/01/31 06:21:34.8	92.090	0.650	-0.410	0.150
2020/01/31 06:21:34.9	92.100	0.630	-0.350	0.130
2020/01/31 06:21:35.0	92.120	0.620	-0.280	0.110
2020/01/31 06:21:35.1	92.130	0.600	-0.210	0.090
2020/01/31 06:21:35.2	92.140	0.570	-0.140	0.080
2020/01/31 06:21:35.3	92.140	0.540	-0.080	0.070
2020/01/31 06:21:35.4	92.150	0.510	-0.010	0.060
2020/01/31 06:21:35.5	92.150	0.480	0.060	0.060
2020/01/31 06:21:35.6	92.150	0.440	0.120	0.060
2020/01/31 06:21:35.7	92.150	0.410	0.190	0.060
2020/01/31 06:21:35.8	92.150	0.370	0.250	0.060
2020/01/31 06:21:35.9	92.150	0.320	0.310	0.060
2020/01/31 06:21:36.0	92.140	0.280	0.360	0.070
2020/01/31 06:21:36.1	92.130	0.240	0.410	0.080
2020/01/31 06:21:36.2	92.120	0.190	0.470	0.100
2020/01/31 06:21:36.3	92.110	0.150	0.510	0.110
2020/01/31 06:21:36.4	92.100	0.100	0.550	0.130
2020/01/31 06:21:36.5	92.080	0.060	0.590	0.140
2020/01/31 06:21:36.6	92.070	0.010	0.620	0.160
2020/01/31 06:21:36.7	92.050	-0.030	0.650	0.180
2020/01/31 06:21:36.8	92.030	-0.070	0.670	0.200
2020/01/31 06:21:36.9	92.010	-0.110	0.690	0.230
2020/01/31 06:21:37.0	91.990	-0.150	0.700	0.250
2020/01/31 06:21:37.1	91.970	-0.190	0.710	0.280
2020/01/31 06:21:37.2	91.950	-0.220	0.710	0.300
2020/01/31 06:21:37.3	91.930	-0.260	0.720	0.320
2020/01/31 06:21:37.4	91.910	-0.290	0.710	0.350
2020/01/31 06:21:37.5	91.890	-0.310	0.710	0.380
2020/01/31 06:21:37.6	91.870	-0.340	0.700	0.400
2020/01/31 06:21:37.7	91.850	-0.360	0.680	0.430
2020/01/31 06:21:37.8	91.830	-0.380	0.670	0.450
2020/01/31 06:21:37.9	91.820	-0.390	0.640	0.480
2020/01/31 06:21:38.0	91.800	-0.410	0.620	0.500
2020/01/31 06:21:38.1	91.790	-0.410	0.590	0.520
2020/01/31 06:21:38.2	91.770	-0.420	0.560	0.550
2020/01/31 06:21:38.3	91.760	-0.420	0.520	0.560
2020/01/31 06:21:38.4	91.750	-0.420	0.480	0.580
2020/01/31 06:21:38.5	91.740	-0.420	0.430	0.600
2020/01/31 06:21:38.6	91.740	-0.410	0.390	0.620
2020/01/31 06:21:38.7	91.740	-0.400	0.340	0.630
2020/01/31 06:21:38.8	91.740	-0.390	0.280	0.640
2020/01/31 06:21:38.9	91.740	-0.370	0.230	0.650
2020/01/31 06:21:39.0	91.740	-0.350	0.170	0.660
2020/01/31 06:21:39.1	91.750	-0.330	0.110	0.670
2020/01/31 06:21:39.2	91.770	-0.300	0.050	0.680
2020/01/31 06:21:39.3	91.780	-0.280	-0.010	0.680
2020/01/31 06:21:39.4	91.790	-0.250	-0.080	0.690
2020/01/31 06:21:39.5	91.810	-0.220	-0.150	0.690
2020/01/31 06:21:39.6	91.820	-0.180	-0.210	0.700
2020/01/31 06:21:39.7	91.840	-0.150	-0.280	0.710
2020/01/31 06:21:39.8	91.860	-0.120	-0.350	0.710
2020/01/31 06:21:39.9	91.880	-0.080	-0.410	0.720
2020/01/31 06:21:40.0	91.900	-0.050	-0.480	0.730
2020/01/31 06:21:40.1	91.920	-0.010	-0.540	0.730
2020/01/31 06:21:40.2	91.940	0.030	-0.600	0.740
2020/01/31 06:21:40.3	91.960	0.060	-0.660	0.750
2020/01/31 06:21:40.4	91.980	0.090	-0.710	0.760
2020/01/31 06:21:40.5	92.000	0.130	-0.760	0.780
2020/01/31 06:21:40.6	92.020	0.160	-0.800	0.790
2020/01/31 06:21:40.7	92.040	0.190	-0.840	0.800
2020/01/31 06:21:40.8	92.060	0.210	-0.870	0.820
2020/01/31 06:21:40.9	92.080	0.230	-0.890	0.830
2020/01/31 06:21:41.0	92.100	0.250	-0.910	0.850
2020/01/31 06:21:41.1	92.120	0.270	-0.920	0.860
2020/01/31 06:21:41.2	92.130	0.280	-0.930	0.880
2020/01/31 06:21:41.3	92.150	0.290	-0.920	0.890
2020/01/31 06:21:41.4	92.160	0.300	-0.910	0.910
2020/01/31 06:21:41.5	92.180	0.300	-0.890	0.930
2020/01/31 06:21:41.6	92.190	0.290	-0.870	0.960
2020/01/31 06:21:41.7	92.200	0.280	-0.830	0.980
2020/01/31 06:21:41.8	92.210	0.270	-0.790	1.000
2020/01/31 06:21:41.9	92.220	0.250	-0.750	1.030
2020/01/31 06:21:42.0	92.220	0.230	-0.700	1.050
2020/01/31 06:21:42.1	92.230	0.200	-0.640	1.080
2020/01/31 06:21:42.2	92.230	0.170	-0.580	1.110
2020/01/31 06:21:42.3	92.230	0.140	-0.510	1.140
2020/01/31 06:21:42.4	92.220	0.100	-0.440	1.170
2020/01/31 06:21:42.5	92.220	0.070	-0.370	1.200
2020/01/31 06:21:42.6	92.210	0.020	-0.300	1.230
2020/01/31 06:21:42.7	92.200	-0.020	-0.230	1.270
2020/01/31 06:21:42.8	92.190	-0.060	-0.160	1.300
2020/01/31 06:21:42.9	92.180	-0.110	-0.090	1.340
2020/01/31 06:21:43.0	92.160	-0.160	-0.020	1.370
2020/01/31 06:21:43.1	92.150	-0.200	0.040	1.400
2020/01/31 06:21:43.2	92.130	-0.250	0.100	1.430
2020/01/31 06:21:43.3	92.110	-0.290	0.160	1.470
2020/01/31 06:21:43.4	92.090	-0.340	0.210	1.500
2020/01/31 06:21:43.5	92.080	-0.380	0.250	1.530
2020/01/31 06:21:43.6	92.050	-0.420	0.290	1.560
2020/01/31 06:21:43.7	92.040	-0.450	0.330	1.590
2020/01/31 06:21:43.8	92.010	-0.480	0.360	1.620
2020/01/31 06:21:43.9	91.990	-0.510	0.380	1.640
2020/01/31 06:21:44.0	91.970	-0.540	0.390	1.670
2020/01/31 06:21:44.1	91.950	-0.560	0.400	1.690
2020/01/31 06:21:44.2	91.940	-0.580	0.400	1.720
2020/01/31 06:21:44.3	91.910	-0.590	0.400	1.740
2020/01/31 06:21:44.4	91.890	-0.600	0.380	1.750
2020/01/31 06:21:44.5	91.870	-0.600	0.370	1.770
2020/01/31 06:21:44.6	91.850	-0.600	0.340	1.780
2020/01/31 06:21:44.7	91.830	-0.600	0.310	1.790
2020/01/31 06:21:44.8	91.810	-0.590	0.280	1.800
2020/01/31 06:21:44.9	91.790	-0.580	0.240	1.810
2020/01/31 06:21:45.0	91.770	-0.560	0.200	1.810
2020/01/31 06:21:45.1	91.750	-0.540	0.150	1.810
2020/01/31 06:21:45.2	91.730	-0.520	0.100	1.800
2020/01/31 06:21:45.3	91.720	-0.490	0.050	1.800
2020/01/31 06:21:45.4	91.700	-0.460	-0.010	1.790
2020/01/31 06:21:45.5	91.690	-0.430	-0.060	1.770
2020/01/31 06:21:45.6	91.680	-0.390	-0.120	1.750
2020/01/31 06:21:45.7	91.660	-0.350	-0.180	1.730
2020/01/31 06:21:45.8	91.660	-0.310	-0.240	1.710
2020/01/31 06:21:45.9	91.650	-0.270	-0.300	1.680
2020/01/31 06:21:46.0	91.640	-0.220	-0.360	1.650
2020/01/31 06:21:46.1	91.640	-0.180	-0.420	1.610
2020/01/31 06:21:46.2	91.630	-0.130	-0.490	1.570
2020/01/31 06:21:46.3	91.630	-0.080	-0.540	1.530
2020/01/31 06:21:46.4	91.630	-0.030	-0.600	1.480
2020/01/31 06:21:46.5	91.630	0.010	-0.650	1.430
2020/01/31 06:21:46.6	91.630	0.060	-0.700	1.380
2020/01/31 06:21:46.7	91.630	0.110	-0.750	1.330
2020/01/31 06:21:46.8	91.630	0.160	-0.790	1.270
2020/01/31 06:21:46.9	91.630	0.200	-0.830	1.210
2020/01/31 06:21:47.0	91.630	0.250	-0.860	1.150
2020/01/31 06:21:47.1	91.640	0.290	-0.890	1.090
2020/01/31 06:21:47.2	91.640	0.340	-0.910	1.020
2020/01/31 06:21:47.3	91.640	0.380	-0.930	0.960
2020/01/31 06:21:47.4	91.640	0.420	-0.940	0.890
2020/01/31 06:21:47.5	91.640	0.450	-0.950	0.830
2020/01/31 06:21:47.6	91.640	0.490	-0.950	0.760
2020/01/31 06:21:47.7	91.640	0.520	-0.940	0.690
2020/01/31 06:21:47.8	91.640	0.550	-0.920	0.630
2020/01/31 06:21:47.9	91.640	0.570	-0.900	0.560
2020/01/31 06:21:48.0	91.640	0.590	-0.870	0.490
2020/01/31 06:21:48.1	91.640	0.610	-0.830	0.430
2020/01/31 06:21:48.2	91.640	0.620	-0.790	0.370
2020/01/31 06:21:48.3	91.630	0.640	-0.740	0.310
2020/01/31 06:21:48.4	91.630	0.640	-0.690	0.250
2020/01/31 06:21:48.5	91.620	0.650	-0.630	0.190
2020/01/31 06:21:48.6	91.620	0.650	-0.560	0.130
2020/01/31 06:21:48.7	91.610	0.640	-0.490	0.070
2020/01/31 06:21:48.8	91.610	0.630	-0.410	0.020
2020/01/31 06:21:48.9	91.600	0.620	-0.330	-0.030
2020/01/31 06:21:49.0	91.590	0.600	-0.250	-0.080
2020/01/31 06:21:49.1	91.580	0.590	-0.170	-0.130
2020/01/31 06:21:49.2	91.580	0.560	-0.080	-0.170
2020/01/31 06:21:49.3	91.570	0.540	0.010	-0.220
2020/01/31 06:21:49.4	91.560	0.510	0.100	-0.260
2020/01/31 06:21:49.5	91.550	0.480	0.190	-0.300
2020/01/31 06:21:49.6	91.550	0.440	0.270	-0.340
2020/01/31 06:21:49.7	91.540	0.410	0.350	-0.370
2020/01/31 06:21:49.8	91.540	0.370	0.430	-0.410
2020/01/31 06:21:49.9	91.540	0.330	0.510	-0.440
2020/01/31 06:21:50.0	91.540	0.290	0.580	-0.460
2020/01/31 06:21:50.1	91.540	0.250	0.650	-0.490
2020/01/31 06:21:50.2	91.540	0.210	0.710	-0.510
2020/01/31 06:21:50.3	91.540	0.160	0.760	-0.530
2020/01/31 06:21:50.4	91.540	0.120	0.810	-0.550
2020/01/31 06:21:50.5	91.550	0.080	0.840	-0.560
2020/01/31 06:21:50.6	91.560	0.040	0.870	-0.570
2020/01/31 06:21:50.7	91.560	0.000	0.900	-0.570
2020/01/31 06:21:50.8	91.570	-0.040	0.910	-0.570
2020/01/31 06:21:50.9	91.580	-0.070	0.910	-0.570
2020/01/31 06:21:51.0	91.590	-0.110	0.910	-0.560
2020/01/31 06:21:51.1	91.600	-0.140	0.900	-0.550
2020/01/31 06:21:51.2	91.620	-0.170	0.870	-0.530
2020/01/31 06:21:51.3	91.630	-0.190	0.850	-0.500
2020/01/31 06:21:51.4	91.640	-0.220	0.810	-0.480
2020/01/31 06:21:51.5	91.660	-0.240	0.760	-0.450
2020/01/31 06:21:51.6	91.670	-0.260	0.710	-0.410
2020/01/31 06:21:51.7	91.680	-0.270	0.650	-0.370
2020/01/31 06:21:51.8	91.690	-0.290	0.580	-0.330
2020/01/31 06:21:51.9	91.700	-0.290	0.510	-0.280
2020/01/31 06:21:52.0	91.700	-0.300	0.440	-0.230
2020/01/31 06:21:52.1	91.710	-0.310	0.360	-0.170
2020/01/31 06:21:52.2	91.720	-0.310	0.280	-0.110
2020/01/31 06:21:52.3	91.730	-0.310	0.190	-0.050
2020/01/31 06:21:52.4	91.730	-0.300	0.100	0.010
2020/01/31 06:21:52.5	91.730	-0.300	0.020	0.080
2020/01/31 06:21:52.6	91.730	-0.290	-0.070	0.140
2020/01/31 06:21:52.7	91.730	-0.280	-0.160	0.210
2020/01/31 06:21:52.8	91.730	-0.270	-0.240	0.280
2020/01/31 06:21:52.9	91.720	-0.260	-0.320	0.350
2020/01/31 06:21:53.0	91.720	-0.250	-0.400	0.420
2020/01/31 06:21:53.1	91.710	-0.230	-0.480	0.490
2020/01/31 06:21:53.2	91.700	-0.220	-0.550	0.560
2020/01/31 06:21:53.3	91.690	-0.200	-0.610	0.630
2020/01/31 06:21:53.4	91.680	-0.190	-0.680	0.690
2020/01/31 06:21:53.5	91.670	-0.170	-0.730	0.760
2020/01/31 06:21:53.6	91.660	-0.160	-0.780	0.820
2020/01/31 06:21:53.7	91.660	-0.140	-0.820	0.880
2020/01/31 06:21:53.8	91.650	-0.120	-0.860	0.940
2020/01/31 06:21:53.9	91.640	-0.110	-0.890	1.000
2020/01/31 06:21:54.0	91.630	-0.090	-0.920	1.060
2020/01/31 06:21:54.1	91.630	-0.070	-0.940	1.110
2020/01/31 06:21:54.2	91.620	-0.060	-0.950	1.170
2020/01/31 06:21:54.3	91.610	-0.040	-0.960	1.220
2020/01/31 06:21:54.4	91.610	-0.020	-0.960	1.280
2020/01/31 06:21:54.5	91.610	-0.010	-0.960	1.330
2020/01/31 06:21:54.6	91.610	0.010	-0.950	1.390
2020/01/31 06:21:54.7	91.610	0.020	-0.940	1.440
2020/01/31 06:21:54.8	91.610	0.040	-0.920	1.500
2020/01/31 06:21:54.9	91.620	0.050	-0.900	1.560
2020/01/31 06:21:55.0	91.620	0.060	-0.880	1.620
2020/01/31 06:21:55.1	91.620	0.080	-0.850	1.680
2020/01/31 06:21:55.2	91.620	0.090	-0.820	1.740
2020/01/31 06:21:55.3	91.620	0.100	-0.790	1.800
2020/01/31 06:21:55.4	91.620	0.110	-0.750	1.870
2020/01/31 06:21:55.5	91.620	0.120	-0.710	1.930
2020/01/31 06:21:55.6	91.620	0.130	-0.670	1.990
2020/01/31 06:21:55.7	91.620	0.140	-0.630	2.060
2020/01/31 06:21:55.8	91.610	0.150	-0.590	2.120
2020/01/31 06:21:55.9	91.610	0.160	-0.540	2.180
2020/01/31 06:21:56.0	91.600	0.160	-0.500	2.240
2020/01/31 06:21:56.1	91.590	0.170	-0.450	2.300
2020/01/31 06:21:56.2	91.580	0.170	-0.400	2.350
2020/01/31 06:21:56.3	91.570	0.180	-0.350	2.400
2020/01/31 06:21:56.4	91.560	0.180	-0.310	2.450
2020/01/31 06:21:56.5	91.550	0.180	-0.260	2.490
2020/01/31 06:21:56.6	91.540	0.180	-0.220	2.530
2020/01/31 06:21:56.7	91.530	0.170	-0.170	2.560
2020/01/31 06:21:56.8	91.520	0.170	-0.130	2.590
2020/01/31 06:21:56.9	91.510	0.170	-0.090	2.610
2020/01/31 06:21:57.0	91.500	0.160	-0.050	2.620
2020/01/31 06:21:57.1	91.490	0.150	-0.010	2.630
2020/01/31 06:21:57.2	91.470	0.140	0.030	2.630
2020/01/31 06:21:57.3	91.460	0.140	0.060	2.620
2020/01/31 06:21:57.4	91.450	0.130	0.100	2.610
2020/01/31 06:21:57.5	91.440	0.110	0.130	2.590
2020/01/31 06:21:57.6	91.430	0.100	0.150	2.560
2020/01/31 06:21:57.7	91.420	0.090	0.180	2.520
2020/01/31 06:21:57.8	91.410	0.070	0.200	2.480
2020/01/31 06:21:57.9	91.390	0.060	0.220	2.430
2020/01/31 06:21:58.0	91.380	0.050	0.240	2.370
2020/01/31 06:21:58.1	91.370	0.030	0.250	2.310
2020/01/31 06:21:58.2	91.360	0.010	0.270	2.240
2020/01/31 06:21:58.3	91.340	-0.000	0.280	2.170
2020/01/31 06:21:58.4	91.330	-0.020	0.280	2.090
2020/01/31 06:21:58.5	91.320	-0.030	0.280	2.010
2020/01/31 06:21:58.6	91.300	-0.050	0.280	1.930
2020/01/31 06:21:58.7	91.290	-0.060	0.280	1.840
2020/01/31 06:21:58.8	91.280	-0.080	0.270	1.750
2020/01/31 06:21:58.9	91.260	-0.090	0.260	1.650
2020/01/31 06:21:59.0	91.250	-0.110	0.250	1.560
2020/01/31 06:21:59.1	91.240	-0.120	0.240	1.460
2020/01/31 06:21:59.2	91.220	-0.130	0.220	1.370
2020/01/31 06:21:59.3	91.210	-0.150	0.210	1.270
2020/01/31 06:21:59.4	91.200	-0.160	0.190	1.170
2020/01/31 06:21:59.5	91.190	-0.170	0.170	1.080
2020/01/31 06:21:59.6	91.180	-0.170	0.150	0.990
2020/01/31 06:21:59.7	91.170	-0.180	0.130	0.900
2020/01/31 06:21:59.8	91.160	-0.190	0.100	0.810
2020/01/31 06:21:59.9	91.150	-0.190	0.080	0.720
2020/01/31 06:22:00.0	91.150	-0.190	0.050	0.630
2020/01/31 06:22:00.1	91.140	-0.200	0.020	0.550
2020/01/31 06:22:00.2	91.140	-0.200	-0.000	0.470
2020/01/31 06:22:00.3	91.130	-0.200	-0.030	0.390
2020/01/31 06:22:00.4	91.130	-0.190	-0.060	0.310
2020/01/31 06:22:00.5	91.130	-0.190	-0.090	0.230
2020/01/31 06:22:00.6	91.130	-0.190	-0.120	0.160
2020/01/31 06:22:00.7	91.140	-0.180	-0.150	0.080
2020/01/31 06:22:00.8	91.140	-0.180	-0.180	0.010
2020/01/31 06:22:00.9	91.150	-0.170	-0.210	-0.060
2020/01/31 06:22:01.0	91.160	-0.160	-0.240	-0.130
2020/01/31 06:22:01.1	91.170	-0.150	-0.270	-0.190
2020/01/31 06:22:01.2	91.180	-0.140	-0.300	-0.260
2020/01/31 06:22:01.3	91.190	-0.130	-0.320	-0.320
2020/01/31 06:22:01.4	91.210	-0.120	-0.350	-0.390
2020/01/31 06:22:01.5	91.230	-0.110	-0.380	-0.450
2020/01/31 06:22:01.6	91.250	-0.100	-0.410	-0.510
2020/01/31 06:22:01.7	91.270	-0.090	-0.430	-0.570
2020/01/31 06:22:01.8	91.290	-0.080	-0.450	-0.630
2020/01/31 06:22:01.9	91.310	-0.070	-0.470	-0.680
2020/01/31 06:22:02.0	91.330	-0.060	-0.490	-0.730
2020/01/31 06:22:02.1	91.350	-0.050	-0.510	-0.790
2020/01/31 06:22:02.2	91.370	-0.040	-0.520	-0.840
2020/01/31 06:22:02.3	91.390	-0.030	-0.530	-0.880
2020/01/31 06:22:02.4	91.410	-0.030	-0.530	-0.920
2020/01/31 06:22:02.5	91.420	-0.020	-0.530	-0.960
2020/01/31 06:22:02.6	91.440	-0.020	-0.530	-1.000
2020/01/31 06:22:02.7	91.450	-0.020	-0.530	-1.030
2020/01/31 06:22:02.8	91.460	-0.020	-0.520	-1.060
2020/01/31 06:22:02.9	91.470	-0.020	-0.510	-1.090
2020/01/31 06:22:03.0	91.480	-0.030	-0.490	-1.110
2020/01/31 06:22:03.1	91.490	-0.030	-0.470	-1.130
2020/01/31 06:22:03.2	91.500	-0.040	-0.450	-1.130
2020/01/31 06:22:03.3	91.500	-0.040	-0.420	-1.140
2020/01/31 06:22:03.4	91.500	-0.050	-0.390	-1.140
2020/01/31 06:22:03.5	91.500	-0.060	-0.360	-1.130
2020/01/31 06:22:03.6	91.500	-0.070	-0.330	-1.120
2020/01/31 06:22:03.7	91.500	-0.080	-0.290	-1.100
2020/01/31 06:22:03.8	91.490	-0.090	-0.250	-1.080
2020/01/31 06:22:03.9	91.480	-0.100	-0.210	-1.050
2020/01/31 06:22:04.0	91.480	-0.110	-0.170	-1.020
2020/01/31 06:22:04.1	91.470	-0.120	-0.120	-0.980
2020/01/31 06:22:04.2	91.460	-0.130	-0.080	-0.930
2020/01/31 06:22:04.3	91.450	-0.130	-0.030	-0.880
2020/01/31 06:22:04.4	91.440	-0.140	0.010	-0.830
2020/01/31 06:22:04.5	91.420	-0.150	0.050	-0.770
2020/01/31 06:22:04.6	91.410	-0.150	0.100	-0.700
2020/01/31 06:22:04.7	91.400	-0.150	0.130	-0.630
2020/01/31 06:22:04.8	91.390	-0.160	0.170	-0.560
2020/01/31 06:22:04.9	91.380	-0.160	0.200	-0.480
2020/01/31 06:22:05.0	91.370	-0.150	0.240	-0.400
2020/01/31 06:22:05.1	91.360	-0.150	0.260	-0.320
2020/01/31 06:22:05.2	91.350	-0.140	0.280	-0.230
2020/01/31 06:22:05.3	91.340	-0.140	0.300	-0.140
2020/01/31 06:22:05.4	91.330	-0.130	0.320	-0.050
2020/01/31 06:22:05.5	91.320	-0.110	0.330	0.040
2020/01/31 06:22:05.6	91.310	-0.100	0.330	0.140
2020/01/31 06:22:05.7	91.310	-0.080	0.330	0.230
2020/01/31 06:22:05.8	91.300	-0.060	0.320	0.320
2020/01/31 06:22:05.9	91.300	-0.050	0.310	0.410
2020/01/31 06:22:06.0	91.290	-0.020	0.300	0.500
2020/01/31 06:22:06.1	91.290	-0.000	0.280	0.580
2020/01/31 06:22:06.2	91.290	0.020	0.250	0.670
2020/01/31 06:22:06.3	91.290	0.050	0.220	0.750
2020/01/31 06:22:06.4	91.300	0.070	0.180	0.830
2020/01/31 06:22:06.5	91.300	0.100	0.140	0.900
2020/01/31 06:22:06.6	91.310	0.120	0.100	0.970
2020/01/31 06:22:06.7	91.320	0.150	0.060	1.040
2020/01/31 06:22:06.8	91.330	0.180	0.010	1.110
2020/01/31 06:22:06.9	91.340	0.200	-0.040	1.170
2020/01/31 06:22:07.0	91.350	0.230	-0.100	1.220
2020/01/31 06:22:07.1	91.370	0.250	-0.150	1.270
2020/01/31 06:22:07.2	91.380	0.270	-0.200	1.330
2020/01/31 06:22:07.3	91.390	0.290	-0.260	1.370
2020/01/31 06:22:07.4	91.410	0.320	-0.320	1.420
2020/01/31 06:22:07.5	91.420	0.330	-0.370	1.460
2020/01/31 06:22:07.6	91.430	0.350	-0.420	1.500
2020/01/31 06:22:07.7	91.440	0.370	-0.480	1.530
2020/01/31 06:22:07.8	91.450	0.380	-0.520	1.570
2020/01/31 06:22:07.9	91.460	0.400	-0.570	1.600
2020/01/31 06:22:08.0	91.470	0.410	-0.610	1.630
2020/01/31 06:22:08.1	91.470	0.410	-0.650	1.670
2020/01/31 06:22:08.2	91.470	0.420	-0.690	1.700
2020/01/31 06:22:08.3	91.470	0.430	-0.720	1.730
2020/01/31 06:22:08.4	91.470	0.430	-0.750	1.760
2020/01/31 06:22:08.5	91.460	0.430	-0.770	1.790
2020/01/31 06:22:08.6	91.460	0.430	-0.780	1.830
2020/01/31 06:22:08.7	91.450	0.430	-0.790	1.860
2020/01/31 06:22:08.8	91.440	0.420	-0.790	1.890
2020/01/31 06:22:08.9	91.430	0.420	-0.790	1.920
2020/01/31 06:22:09.0	91.410	0.410	-0.780	1.950
2020/01/31 06:22:09.1	91.400	0.400	-0.770	1.990
2020/01/31 06:22:09.2	91.390	0.390	-0.740	2.020
2020/01/31 06:22:09.3	91.370	0.380	-0.720	2.050
2020/01/31 06:22:09.4	91.360	0.370	-0.690	2.070
2020/01/31 06:22:09.5	91.340	0.350	-0.660	2.100
2020/01/31 06:22:09.6	91.330	0.340	-0.620	2.130
2020/01/31 06:22:09.7	91.310	0.320	-0.580	2.150
2020/01/31 06:22:09.8	91.300	0.310	-0.540	2.170
2020/01/31 06:22:09.9	91.290	0.290	-0.500	2.180
2020/01/31 06:22:10.0	91.280	0.280	-0.450	2.200
2020/01/31 06:22:10.1	91.270	0.260	-0.400	2.200
2020/01/31 06:22:10.2	91.250	0.240	-0.350	2.210
2020/01/31 06:22:10.3	91.250	0.220	-0.310	2.210
2020/01/31 06:22:10.4	91.240	0.210	-0.260	2.200
2020/01/31 06:22:10.5	91.240	0.190	-0.220	2.200
2020/01/31 06:22:10.6	91.240	0.170	-0.170	2.190
2020/01/31 06:22:10.7	91.240	0.160	-0.130	2.170
2020/01/31 06:22:10.8	91.240	0.140	-0.090	2.150
2020/01/31 06:22:10.9	91.240	0.130	-0.050	2.120
2020/01/31 06:22:11.0	91.250	0.110	-0.020	2.100
2020/01/31 06:22:11.1	91.250	0.100	0.010	2.060
2020/01/31 06:22:11.2	91.260	0.080	0.040	2.030
2020/01/31 06:22:11.3	91.270	0.070	0.070	1.990
2020/01/31 06:22:11.4	91.280	0.050	0.090	1.940
2020/01/31 06:22:11.5	91.290	0.040	0.120	1.900
2020/01/31 06:22:11.6	91.300	0.030	0.130	1.850
2020/01/31 06:22:11.7	91.310	0.010	0.150	1.790
2020/01/31 06:22:11.8	91.320	-0.010	0.160	1.740
2020/01/31 06:22:11.9	91.330	-0.020	0.180	1.680
2020/01/31 06:22:12.0	91.340	-0.040	0.190	1.630
2020/01/31 06:22:12.1	91.350	-0.060	0.200	1.570
2020/01/31 06:22:12.2	91.350	-0.080	0.210	1.510
2020/01/31 06:22:12.3	91.360	-0.100	0.220	1.460
2020/01/31 06:22:12.4	91.360	-0.120	0.230	1.400
2020/01/31 06:22:12.5	91.370	-0.140	0.240	1.350
2020/01/31 06:22:12.6	91.370	-0.160	0.250	1.300
2020/01/31 06:22:12.7	91.380	-0.180	0.260	1.250
2020/01/31 06:22:12.8	91.380	-0.210	0.270	1.200
2020/01/31 06:22:12.9	91.380	-0.230	0.270	1.160
2020/01/31 06:22:13.0	91.380	-0.260	0.280	1.110
2020/01/31 06:22:13.1	91.380	-0.290	0.290	1.070
2020/01/31 06:22:13.2	91.390	-0.320	0.300	1.040
2020/01/31 06:22:13.3	91.390	-0.340	0.300	1.010
2020/01/31 06:22:13.4	91.390	-0.370	0.310	0.970
2020/01/31 06:22:13.5	91.380	-0.400	0.310	0.940
2020/01/31 06:22:13.6	91.380	-0.420	0.310	0.900
2020/01/31 06:22:13.7	91.380	-0.450	0.320	0.870
2020/01/31 06:22:13.8	91.380	-0.470	0.310	0.840
2020/01/31 06:22:13.9	91.380	-0.500	0.310	0.800
2020/01/31 06:22:14.0	91.380	-0.520	0.310	0.770
2020/01/31 06:22:14.1	91.380	-0.540	0.300	0.740
2020/01/31 06:22:14.2	91.370	-0.560	0.290	0.690
2020/01/31 06:22:14.3	91.370	-0.570	0.280	0.650
2020/01/31 06:22:14.4	91.370	-0.590	0.260	0.610
2020/01/31 06:22:14.5	91.370	-0.600	0.240	0.570
2020/01/31 06:22:14.6	91.370	-0.610	0.230	0.530
2020/01/31 06:22:14.7	91.380	-0.610	0.200	0.480
2020/01/31 06:22:14.8	91.380	-0.610	0.180	0.440
2020/01/31 06:22:14.9	91.380	-0.610	0.150	0.390
2020/01/31 06:22:15.0	91.380	-0.610	0.120	0.340
2020/01/31 06:22:15.1	91.380	-0.600	0.090	0.290
2020/01/31 06:22:15.2	91.370	-0.590	0.060	0.230
2020/01/31 06:22:15.3	91.370	-0.580	0.020	0.180
2020/01/31 06:22:15.4	91.370	-0.560	-0.020	0.130
2020/01/31 06:22:15.5	91.370	-0.540	-0.060	0.070
2020/01/31 06:22:15.6	91.370	-0.520	-0.100	0.020
2020/01/31 06:22:15.7	91.370	-0.490	-0.140	-0.040
2020/01/31 06:22:15.8	91.370	-0.460	-0.190	-0.090
2020/01/31 06:22:15.9	91.360	-0.430	-0.230	-0.140
2020/01/31 06:22:16.0	91.360	-0.400	-0.270	-0.190
2020/01/31 06:22:16.1	91.360	-0.360	-0.320	-0.240
2020/01/31 06:22:16.2	91.360	-0.330	-0.370	-0.280
2020/01/31 06:22:16.3	91.350	-0.290	-0.410	-0.320
2020/01/31 06:22:16.4	91.350	-0.250	-0.450	-0.360
2020/01/31 06:22:16.5	91.350	-0.200	-0.500	-0.390
2020/01/31 06:22:16.6	91.340	-0.160	-0.540	-0.420
2020/01/31 06:22:16.7	91.340	-0.120	-0.580	-0.450
2020/01/31 06:22:16.8	91.340	-0.080	-0.610	-0.470
2020/01/31 06:22:16.9	91.330	-0.030	-0.650	-0.480
2020/01/31 06:22:17.0	91.330	0.010	-0.680	-0.500
2020/01/31 06:22:17.1	91.330	0.050	-0.710	-0.500
2020/01/31 06:22:17.2	91.330	0.090	-0.740	-0.510
2020/01/31 06:22:17.3	91.330	0.130	-0.760	-0.510
2020/01/31 06:22:17.4	91.330	0.170	-0.780	-0.500
2020/01/31 06:22:17.5	91.330	0.200	-0.800	-0.500
2020/01/31 06:22:17.6	91.330	0.240	-0.810	-0.490
2020/01/31 06:22:17.7	91.330	0.270	-0.820	-0.470
2020/01/31 06:22:17.8	91.330	0.300	-0.820	-0.460
2020/01/31 06:22:17.9	91.330	0.330	-0.820	-0.440
2020/01/31 06:22:18.0	91.340	0.350	-0.820	-0.430
2020/01/31 06:22:18.1	91.340	0.370	-0.810	-0.410
2020/01/31 06:22:18.2	91.360	0.390	-0.800	-0.390
2020/01/31 06:22:18.3	91.360	0.410	-0.790	-0.370
2020/01/31 06:22:18.4	91.370	0.420	-0.770	-0.350
2020/01/31 06:22:18.5	91.380	0.430	-0.750	-0.340
2020/01/31 06:22:18.6	91.390	0.440	-0.720	-0.320
2020/01/31 06:22:18.7	91.410	0.450	-0.690	-0.310
2020/01/31 06:22:18.8	91.420	0.450	-0.660	-0.290
2020/01/31 06:22:18.9	91.430	0.450	-0.630	-0.280
2020/01/31 06:22:19.0	91.440	0.450	-0.590	-0.270
2020/01/31 06:22:19.1	91.460	0.450	-0.560	-0.260
2020/01/31 06:22:19.2	91.470	0.450	-0.510	-0.250
2020/01/31 06:22:19.3	91.480	0.440	-0.470	-0.240
2020/01/31 06:22:19.4	91.490	0.440	-0.430	-0.230
2020/01/31 06:22:19.5	91.510	0.430	-0.390	-0.220
2020/01/31 06:22:19.6	91.520	0.420	-0.350	-0.210
2020/01/31 06:22:19.7	91.530	0.410	-0.300	-0.190
2020/01/31 06:22:19.8	91.540	0.400	-0.260	-0.170
2020/01/31 06:22:19.9	91.550	0.390	-0.220	-0.150
2020/01/31 06:22:20.0	91.560	0.370	-0.180	-0.130
2020/01/31 06:22:20.1	91.560	0.360	-0.140	-0.100
2020/01/31 06:22:20.2	91.560	0.350	-0.100	-0.070
2020/01/31 06:22:20.3	91.570	0.330	-0.060	-0.040
2020/01/31 06:22:20.4	91.570	0.320	-0.030	-0.000
2020/01/31 06:22:20.5	91.580	0.300	0.010	0.040
2020/01/31 06:22:20.6	91.580	0.290	0.040	0.080
2020/01/31 06:22:20.7	91.580	0.270	0.070	0.130
2020/01/31 06:22:20.8	91.580	0.260	0.100	0.180
2020/01/31 06:22:20.9	91.580	0.240	0.130	0.240
2020/01/31 06:22:21.0	91.590	0.230	0.150	0.300
2020/01/31 06:22:21.1	91.590	0.210	0.170	0.360
2020/01/31 06:22:21.2	91.580	0.190	0.190	0.430
2020/01/31 06:22:21.3	91.590	0.170	0.210	0.500
2020/01/31 06:22:21.4	91.590	0.160	0.230	0.570
2020/01/31 06:22:21.5	91.590	0.140	0.240	0.650
2020/01/31 06:22:21.6	91.590	0.120	0.250	0.720
2020/01/31 06:22:21.7	91.590	0.100	0.260	0.800
2020/01/31 06:22:21.8	91.590	0.080	0.270	0.880
2020/01/31 06:22:21.9	91.590	0.060	0.270	0.960
2020/01/31 06:22:22.0	91.600	0.040	0.280	1.040
2020/01/31 06:22:22.1	91.600	0.020	0.280	1.120
2020/01/31 06:22:22.2	91.600	-0.000	0.280	1.210
2020/01/31 06:22:22.3	91.600	-0.030	0.290	1.290
2020/01/31 06:22:22.4	91.600	-0.050	0.290	1.370
2020/01/31 06:22:22.5	91.600	-0.080	0.300	1.450
2020/01/31 06:22:22.6	91.600	-0.100	0.300	1.530
2020/01/31 06:22:22.7	91.600	-0.130	0.300	1.610
2020/01/31 06:22:22.8	91.600	-0.160	0.310	1.690
2020/01/31 06:22:22.9	91.590	-0.180	0.310	1.760
2020/01/31 06:22:23.0	91.580	-0.210	0.320	1.830
2020/01/31 06:22:23.1	91.580	-0.240	0.330	1.900
2020/01/31 06:22:23.2	91.570	-0.270	0.340	1.960
2020/01/31 06:22:23.3	91.560	-0.290	0.340	2.020
2020/01/31 06:22:23.4	91.540	-0.320	0.350	2.070
2020/01/31 06:22:23.5	91.530	-0.350	0.350	2.110
2020/01/31 06:22:23.6	91.510	-0.370	0.350	2.160
2020/01/31 06:22:23.7	91.500	-0.390	0.360	2.190
2020/01/31 06:22:23.8	91.480	-0.410	0.360	2.220
2020/01/31 06:22:23.9	91.460	-0.430	0.350	2.250
2020/01/31 06:22:24.0	91.440	-0.450	0.350	2.270
2020/01/31 06:22:24.1	91.410	-0.460	0.340	2.290
2020/01/31 06:22:24.2	91.390	-0.470	0.330	2.300
2020/01/31 06:22:24.3	91.360	-0.480	0.310	2.300
2020/01/31 06:22:24.4	91.340	-0.480	0.290	2.300
2020/01/31 06:22:24.5	91.310	-0.480	0.270	2.290
2020/01/31 06:22:24.6	91.290	-0.480	0.240	2.280
2020/01/31 06:22:24.7	91.260	-0.470	0.210	2.260
2020/01/31 06:22:24.8	91.240	-0.460	0.170	2.240
2020/01/31 06:22:24.9	91.220	-0.440	0.120	2.210
2020/01/31 06:22:25.0	91.200	-0.420	0.070	2.170
2020/01/31 06:22:25.1	91.180	-0.390	0.020	2.130
2020/01/31 06:22:25.2	91.170	-0.370	-0.040	2.090
2020/01/31 06:22:25.3	91.160	-0.330	-0.110	2.040
2020/01/31 06:22:25.4	91.150	-0.300	-0.170	1.980
2020/01/31 06:22:25.5	91.140	-0.260	-0.240	1.930
2020/01/31 06:22:25.6	91.140	-0.210	-0.320	1.860
2020/01/31 06:22:25.7	91.140	-0.170	-0.390	1.800
2020/01/31 06:22:25.8	91.140	-0.120	-0.470	1.730
2020/01/31 06:22:25.9	91.150	-0.070	-0.550	1.660
2020/01/31 06:22:26.0	91.160	-0.020	-0.620	1.590
2020/01/31 06:22:26.1	91.170	0.030	-0.700	1.510
2020/01/31 06:22:26.2	91.180	0.090	-0.780	1.430
2020/01/31 06:22:26.3	91.200	0.140	-0.850	1.350
2020/01/31 06:22:26.4	91.220	0.190	-0.920	1.270
2020/01/31 06:22:26.5	91.250	0.250	-0.980	1.190
2020/01/31 06:22:26.6	91.270	0.300	-1.040	1.100
2020/01/31 06:22:26.7	91.300	0.350	-1.100	1.020
2020/01/31 06:22:26.8	91.330	0.400	-1.150	0.930
2020/01/31 06:22:26.9	91.360	0.440	-1.190	0.850
2020/01/31 06:22:27.0	91.390	0.480	-1.220	0.760
2020/01/31 06:22:27.1	91.430	0.520	-1.250	0.670
2020/01/31 06:22:27.2	91.460	0.560	-1.270	0.590
2020/01/31 06:22:27.3	91.490	0.590	-1.280	0.500
2020/01/31 06:22:27.4	91.520	0.620	-1.280	0.420
2020/01/31 06:22:27.5	91.550	0.640	-1.270	0.330
2020/01/31 06:22:27.6	91.580	0.660	-1.260	0.250
2020/01/31 06:22:27.7	91.610	0.670	-1.230	0.170
2020/01/31 06:22:27.8	91.640	0.680	-1.200	0.100
2020/01/31 06:22:27.9	91.660	0.690	-1.150	0.020
2020/01/31 06:22:28.0	91.680	0.690	-1.100	-0.050
2020/01/31 06:22:28.1	91.700	0.680	-1.050	-0.110
2020/01/31 06:22:28.2	91.710	0.670	-0.980	-0.180
2020/01/31 06:22:28.3	91.720	0.660	-0.910	-0.240
2020/01/31 06:22:28.4	91.730	0.640	-0.830	-0.300
2020/01/31 06:22:28.5	91.730	0.620	-0.750	-0.350
2020/01/31 06:22:28.6	91.740	0.600	-0.660	-0.400
2020/01/31 06:22:28.7	91.730	0.570	-0.570	-0.440
2020/01/31 06:22:28.8	91.730	0.540	-0.470	-0.480
2020/01/31 06:22:28.9	91.720	0.500	-0.370	-0.510
2020/01/31 06:22:29.0	91.710	0.460	-0.270	-0.540
2020/01/31 06:22:29.1	91.700	0.430	-0.170	-0.570
2020/01/31 06:22:29.2	91.690	0.380	-0.070	-0.590
2020/01/31 06:22:29.3	91.670	0.340	0.030	-0.600
2020/01/31 06:22:29.4	91.650	0.290	0.130	-0.620
2020/01/31 06:22:29.5	91.630	0.250	0.230	-0.620
2020/01/31 06:22:29.6	91.610	0.200	0.320	-0.630
2020/01/31 06:22:29.7	91.590	0.150	0.410	-0.620
2020/01/31 06:22:29.8	91.570	0.100	0.500	-0.620
2020/01/31 06:22:29.9	91.540	0.050	0.580	-0.610
2020/01/31 06:22:30.0	91.520	0.000	0.650	-0.600
2020/01/31 06:22:30.1	91.500	-0.040	0.720	-0.580
2020/01/31 06:22:30.2	91.480	-0.090	0.780	-0.560
2020/01/31 06:22:30.3	91.450	-0.140	0.840	-0.530
2020/01/31 06:22:30.4	91.430	-0.180	0.880	-0.510
2020/01/31 06:22:30.5	91.400	-0.230	0.930	-0.470
2020/01/31 06:22:30.6	91.380	-0.270	0.960	-0.440
2020/01/31 06:22:30.7	91.360	-0.310	0.980	-0.400
2020/01/31 06:22:30.8	91.340	-0.350	1.000	-0.360
2020/01/31 06:22:30.9	91.320	-0.380	1.010	-0.310
2020/01/31 06:22:31.0	91.300	-0.420	1.010	-0.260
2020/01/31 06:22:31.1	91.290	-0.450	1.000	-0.210
2020/01/31 06:22:31.2	91.280	-0.480	0.990	-0.160
2020/01/31 06:22:31.3	91.270	-0.500	0.960	-0.110
2020/01/31 06:22:31.4	91.260	-0.530	0.930	-0.050
2020/01/31 06:22:31.5	91.250	-0.550	0.900	0.010
2020/01/31 06:22:31.6	91.240	-0.570	0.860	0.070
2020/01/31 06:22:31.7	91.240	-0.580	0.810	0.130
2020/01/31 06:22:31.8	91.240	-0.600	0.750	0.190
2020/01/31 06:22:31.9	91.240	-0.610	0.700	0.250
2020/01/31 06:22:32.0	91.250	-0.620	0.630	0.310
2020/01/31 06:22:32.1	91.250	-0.620	0.570	0.370
2020/01/31 06:22:32.2	91.270	-0.630	0.490	0.430
2020/01/31 06:22:32.3	91.280	-0.630	0.420	0.490
2020/01/31 06:22:32.4	91.300	-0.630	0.340	0.550
2020/01/31 06:22:32.5	91.320	-0.630	0.270	0.600
2020/01/31 06:22:32.6	91.330	-0.620	0.190	0.660
2020/01/31 06:22:32.7	91.360	-0.610	0.110	0.710
2020/01/31 06:22:32.8	91.380	-0.600	0.020	0.760
2020/01/31 06:22:32.9	91.400	-0.590	-0.060	0.810
2020/01/31 06:22:33.0	91.430	-0.580	-0.140	0.860
2020/01/31 06:22:33.1	91.460	-0.570	-0.220	0.900
2020/01/31 06:22:33.2	91.480	-0.550	-0.300	0.940
2020/01/31 06:22:33.3	91.510	-0.530	-0.380	0.980
2020/01/31 06:22:33.4	91.540	-0.510	-0.450	1.010
2020/01/31 06:22:33.5	91.570	-0.490	-0.530	1.050
2020/01/31 06:22:33.6	91.590	-0.470	-0.590	1.080
2020/01/31 06:22:33.7	91.620	-0.450	-0.660	1.110
2020/01/31 06:22:33.8	91.650	-0.430	-0.720	1.130
2020/01/31 06:22:33.9	91.670	-0.400	-0.780	1.160
2020/01/31 06:22:34.0	91.700	-0.380	-0.830	1.180
2020/01/31 06:22:34.1	91.720	-0.350	-0.880	1.200
2020/01/31 06:22:34.2	91.750	-0.320	-0.920	1.220
2020/01/31 06:22:34.3	91.770	-0.290	-0.960	1.240
2020/01/31 06:22:34.4	91.780	-0.270	-0.990	1.260
2020/01/31 06:22:34.5	91.800	-0.240	-1.020	1.280
2020/01/31 06:22:34.6	91.820	-0.210	-1.040	1.300
2020/01/31 06:22:34.7	91.830	-0.180	-1.050	1.320
2020/01/31 06:22:34.8	91.840	-0.150	-1.060	1.340
2020/01/31 06:22:34.9	91.850	-0.120	-1.060	1.360
2020/01/31 06:22:35.0	91.850	-0.090	-1.050	1.380
2020/01/31 06:22:35.1	91.850	-0.060	-1.040	1.410
2020/01/31 06:22:35.2	91.850	-0.030	-1.020	1.430
2020/01/31 06:22:35.3	91.850	0.000	-1.000	1.460
2020/01/31 06:22:35.4	91.850	0.030	-0.970	1.490
2020/01/31 06:22:35.5	91.840	0.060	-0.940	1.520
2020/01/31 06:22:35.6	91.830	0.080	-0.900	1.550
2020/01/31 06:22:35.7	91.820	0.110	-0.860	1.590
2020/01/31 06:22:35.8	91.810	0.130	-0.810	1.620
2020/01/31 06:22:35.9	91.800	0.160	-0.760	1.660
2020/01/31 06:22:36.0	91.780	0.180	-0.710	1.690
2020/01/31 06:22:36.1	91.760	0.200	-0.650	1.730
2020/01/31 06:22:36.2	91.750	0.220	-0.590	1.770
2020/01/31 06:22:36.3	91.730	0.240	-0.520	1.810
2020/01/31 06:22:36.4	91.710	0.250	-0.460	1.840
2020/01/31 06:22:36.5	91.690	0.260	-0.390	1.880
2020/01/31 06:22:36.6	91.680	0.270	-0.330	1.910
2020/01/31 06:22:36.7	91.660	0.280	-0.260	1.940
2020/01/31 06:22:36.8	91.640	0.290	-0.190	1.970
2020/01/31 06:22:36.9	91.630	0.290	-0.130	1.990
2020/01/31 06:22:37.0	91.610	0.300	-0.070	2.010
2020/01/31 06:22:37.1	91.600	0.300	-0.010	2.030
2020/01/31 06:22:37.2	91.580	0.300	0.050	2.040
2020/01/31 06:22:37.3	91.570	0.300	0.110	2.050
2020/01/31 06:22:37.4	91.570	0.290	0.160	2.050
2020/01/31 06:22:37.5	91.560	0.290	0.210	2.050
2020/01/31 06:22:37.6	91.550	0.280	0.250	2.040
2020/01/31 06:22:37.7	91.550	0.270	0.290	2.020
2020/01/31 06:22:37.8	91.550	0.260	0.330	2.000
2020/01/31 06:22:37.9	91.550	0.260	0.360	1.980
2020/01/31 06:22:38.0	91.550	0.250	0.380	1.940
2020/01/31 06:22:38.1	91.550	0.230	0.410	1.910
2020/01/31 06:22:38.2	91.550	0.220	0.420	1.860
2020/01/31 06:22:38.3	91.550	0.210	0.430	1.810
2020/01/31 06:22:38.4	91.550	0.200	0.440	1.760
2020/01/31 06:22:38.5	91.560	0.190	0.440	1.700
2020/01/31 06:22:38.6	91.560	0.180	0.440	1.630
2020/01/31 06:22:38.7	91.570	0.180	0.430	1.560
2020/01/31 06:22:38.8	91.570	0.170	0.410	1.490
2020/01/31 06:22:38.9	91.580	0.160	0.400	1.410
2020/01/31 06:22:39.0	91.580	0.160	0.370	1.330
2020/01/31 06:22:39.1	91.590	0.150	0.350	1.250
2020/01/31 06:22:39.2	91.590	0.150	0.320	1.160
2020/01/31 06:22:39.3	91.590	0.150	0.290	1.080
2020/01/31 06:22:39.4	91.600	0.150	0.250	0.990
2020/01/31 06:22:39.5	91.600	0.150	0.210	0.900
2020/01/31 06:22:39.6	91.610	0.160	0.160	0.810
2020/01/31 06:22:39.7	91.610	0.170	0.120	0.730
2020/01/31 06:22:39.8	91.610	0.170	0.070	0.640
2020/01/31 06:22:39.9	91.610	0.180	0.020	0.550
2020/01/31 06:22:40.0	91.620	0.200	-0.030	0.470
2020/01/31 06:22:40.1	91.620	0.210	-0.080	0.390
2020/01/31 06:22:40.2	91.630	0.220	-0.140	0.310
2020/01/31 06:22:40.3	91.630	0.240	-0.190	0.230
2020/01/31 06:22:40.4	91.630	0.260	-0.240	0.150
2020/01/31 06:22:40.5	91.630	0.280	-0.300	0.070
2020/01/31 06:22:40.6	91.630	0.290	-0.350	-0.000
2020/01/31 06:22:40.7	91.640	0.310	-0.400	-0.080
2020/01/31 06:22:40.8	91.640	0.330	-0.450	-0.150
2020/01/31 06:22:40.9	91.640	0.350	-0.500	-0.220
2020/01/31 06:22:41.0	91.650	0.370	-0.550	-0.280
2020/01/31 06:22:41.1	91.650	0.390	-0.590	-0.350
2020/01/31 06:22:41.2	91.650	0.410	-0.630	-0.410
2020/01/31 06:22:41.3	91.660	0.420	-0.670	-0.470
2020/01/31 06:22:41.4	91.670	0.440	-0.710	-0.530
2020/01/31 06:22:41.5	91.680	0.450	-0.740	-0.580
2020/01/31 06:22:41.6	91.690	0.460	-0.770	-0.630
2020/01/31 06:22:41.7	91.710	0.470	-0.800	-0.680
2020/01/31 06:22:41.8	91.720	0.470	-0.820	-0.720
2020/01/31 06:22:41.9	91.740	0.480	-0.840	-0.760
2020/01/31 06:22:42.0	91.760	0.480	-0.850	-0.800
2020/01/31 06:22:42.1	91.780	0.480	-0.860	-0.830
2020/01/31 06:22:42.2	91.790	0.480	-0.860	-0.850
2020/01/31 06:22:42.3	91.820	0.470	-0.860	-0.880
2020/01/31 06:22:42.4	91.840	0.460	-0.860	-0.900
2020/01/31 06:22:42.5	91.860	0.450	-0.850	-0.910
2020/01/31 06:22:42.6	91.890	0.430	-0.840	-0.920
2020/01/31 06:22:42.7	91.920	0.410	-0.820	-0.930
2020/01/31 06:22:42.8	91.950	0.390	-0.800	-0.930
2020/01/31 06:22:42.9	91.980	0.370	-0.770	-0.920
2020/01/31 06:22:43.0	92.010	0.340	-0.740	-0.920
2020/01/31 06:22:43.1	92.040	0.320	-0.710	-0.900
2020/01/31 06:22:43.2	92.080	0.290	-0.670	-0.880
2020/01/31 06:22:43.3	92.110	0.250	-0.620	-0.860
2020/01/31 06:22:43.4	92.140	0.220	-0.570	-0.830
2020/01/31 06:22:43.5	92.170	0.180	-0.520	-0.800
2020/01/31 06:22:43.6	92.200	0.150	-0.460	-0.760
2020/01/31 06:22:43.7	92.230	0.110	-0.400	-0.720
2020/01/31 06:22:43.8	92.260	0.070	-0.330	-0.670
2020/01/31 06:22:43.9	92.290	0.030	-0.260	-0.620
2020/01/31 06:22:44.0	92.310	-0.010	-0.190	-0.560
2020/01/31 06:22:44.1	92.340	-0.060	-0.110	-0.500
2020/01/31 06:22:44.2	92.360	-0.100	-0.030	-0.430
2020/01/31 06:22:44.3	92.380	-0.140	0.050	-0.360
2020/01/31 06:22:44.4	92.400	-0.180	0.130	-0.280
2020/01/31 06:22:44.5	92.420	-0.220	0.210	-0.210
2020/01/31 06:22:44.6	92.430	-0.270	0.290	-0.120
2020/01/31 06:22:44.7	92.440	-0.310	0.370	-0.040
2020/01/31 06:22:44.8	92.450	-0.350	0.450	0.050
2020/01/31 06:22:44.9	92.450	-0.390	0.530	0.130
2020/01/31 06:22:45.0	92.460	-0.420	0.600	0.220
2020/01/31 06:22:45.1	92.460	-0.460	0.670	0.310
2020/01/31 06:22:45.2	92.460	-0.490	0.740	0.410
2020/01/31 06:22:45.3	92.460	-0.530	0.800	0.500
2020/01/31 06:22:45.4	92.460	-0.560	0.860	0.590
2020/01/31 06:22:45.5	92.450	-0.590	0.910	0.680
2020/01/31 06:22:45.6	92.450	-0.610	0.960	0.770
2020/01/31 06:22:45.7	92.440	-0.640	0.990	0.860
2020/01/31 06:22:45.8	92.440	-0.660	1.020	0.940
2020/01/31 06:22:45.9	92.430	-0.680	1.040	1.020
2020/01/31 06:22:46.0	92.420	-0.690	1.060	1.100
2020/01/31 06:22:46.1	92.420	-0.700	1.060	1.180
2020/01/31 06:22:46.2	92.410	-0.710	1.060	1.260
2020/01/31 06:22:46.3	92.400	-0.720	1.050	1.330
2020/01/31 06:22:46.4	92.400	-0.720	1.030	1.390
2020/01/31 06:22:46.5	92.400	-0.720	1.000	1.460
2020/01/31 06:22:46.6	92.400	-0.720	0.960	1.520
2020/01/31 06:22:46.7	92.400	-0.720	0.920	1.570
2020/01/31 06:22:46.8	92.400	-0.710	0.870	1.620
2020/01/31 06:22:46.9	92.400	-0.690	0.810	1.670
2020/01/31 06:22:47.0	92.400	-0.680	0.740	1.720
2020/01/31 06:22:47.1	92.410	-0.660	0.670	1.760
2020/01/31 06:22:47.2	92.410	-0.640	0.590	1.800
2020/01/31 06:22:47.3	92.420	-0.610	0.500	1.830
2020/01/31 06:22:47.4	92.430	-0.590	0.410	1.860
2020/01/31 06:22:47.5	92.440	-0.560	0.320	1.890
2020/01/31 06:22:47.6	92.450	-0.520	0.220	1.920
2020/01/31 06:22:47.7	92.460	-0.490	0.120	1.940
2020/01/31 06:22:47.8	92.480	-0.450	0.010	1.960
2020/01/31 06:22:47.9	92.490	-0.410	-0.090	1.980
2020/01/31 06:22:48.0	92.500	-0.370	-0.200	2.000
2020/01/31 06:22:48.1	92.520	-0.330	-0.310	2.010
2020/01/31 06:22:48.2	92.530	-0.280	-0.420	2.020
2020/01/31 06:22:48.3	92.550	-0.240	-0.520	2.030
2020/01/31 06:22:48.4	92.560	-0.190	-0.630	2.040
2020/01/31 06:22:48.5	92.580	-0.140	-0.730	2.050
2020/01/31 06:22:48.6	92.600	-0.100	-0.820	2.050
2020/01/31 06:22:48.7	92.610	-0.050	-0.920	2.050
2020/01/31 06:22:48.8	92.630	-0.000	-1.000	2.050
2020/01/31 06:22:48.9	92.640	0.050	-1.080	2.050
2020/01/31 06:22:49.0	92.660	0.090	-1.160	2.040
2020/01/31 06:22:49.1	92.670	0.140	-1.220	2.030
2020/01/31 06:22:49.2	92.680	0.180	-1.280	2.020
2020/01/31 06:22:49.3	92.700	0.220	-1.330	2.010
2020/01/31 06:22:49.4	92.710	0.260	-1.380	1.990
2020/01/31 06:22:49.5	92.720	0.300	-1.410	1.980
2020/01/31 06:22:49.6	92.730	0.340	-1.430	1.960
2020/01/31 06:22:49.7	92.750	0.370	-1.450	1.940
2020/01/31 06:22:49.8	92.760	0.400	-1.450	1.910
2020/01/31 06:22:49.9	92.770	0.420	-1.450	1.890
2020/01/31 06:22:50.0	92.770	0.440	-1.430	1.860
2020/01/31 06:22:50.1	92.780	0.460	-1.410	1.830
2020/01/31 06:22:50.2	92.790	0.470	-1.380	1.800
2020/01/31 06:22:50.3	92.790	0.480	-1.330	1.770
2020/01/31 06:22:50.4	92.800	0.490	-1.280	1.730
2020/01/31 06:22:50.5	92.800	0.490	-1.230	1.700
2020/01/31 06:22:50.6	92.800	0.480	-1.160	1.660
2020/01/31 06:22:50.7	92.800	0.480	-1.090	1.630
2020/01/31 06:22:50.8	92.800	0.470	-1.020	1.590
2020/01/31 06:22:50.9	92.800	0.450	-0.940	1.550
2020/01/31 06:22:51.0	92.800	0.430	-0.850	1.520
2020/01/31 06:22:51.1	92.800	0.410	-0.760	1.480
2020/01/31 06:22:51.2	92.790	0.390	-0.670	1.440
2020/01/31 06:22:51.3	92.790	0.360	-0.580	1.390
2020/01/31 06:22:51.4	92.780	0.330	-0.490	1.350
2020/01/31 06:22:51.5	92.780	0.300	-0.390	1.300
2020/01/31 06:22:51.6	92.780	0.260	-0.300	1.260
2020/01/31 06:22:51.7	92.770	0.230	-0.210	1.210
2020/01/31 06:22:51.8	92.770	0.190	-0.120	1.150
2020/01/31 06:22:51.9	92.770	0.160	-0.040	1.100
2020/01/31 06:22:52.0	92.760	0.120	0.040	1.040
2020/01/31 06:22:52.1	92.760	0.080	0.120	0.980
2020/01/31 06:22:52.2	92.760	0.050	0.200	0.920
2020/01/31 06:22:52.3	92.760	0.010	0.260	0.860
2020/01/31 06:22:52.4	92.760	-0.020	0.330	0.800
2020/01/31 06:22:52.5	92.760	-0.050	0.380	0.730
2020/01/31 06:22:52.6	92.760	-0.080	0.430	0.660
2020/01/31 06:22:52.7	92.760	-0.110	0.470	0.590
2020/01/31 06:22:52.8	92.770	-0.130	0.510	0.520
2020/01/31 06:22:52.9	92.770	-0.150	0.540	0.450
2020/01/31 06:22:53.0	92.770	-0.170	0.560	0.380
2020/01/31 06:22:53.1	92.780	-0.190	0.580	0.310
2020/01/31 06:22:53.2	92.790	-0.200	0.590	0.240
2020/01/31 06:22:53.3	92.790	-0.210	0.590	0.170
2020/01/31 06:22:53.4	92.800	-0.220	0.580	0.100
2020/01/31 06:22:53.5	92.810	-0.220	0.570	0.030
2020/01/31 06:22:53.6	92.830	-0.220	0.550	-0.040
2020/01/31 06:22:53.7	92.840	-0.220	0.530	-0.100
2020/01/31 06:22:53.8	92.850	-0.210	0.500	-0.160
2020/01/31 06:22:53.9	92.860	-0.200	0.470	-0.220
2020/01/31 06:22:54.0	92.880	-0.190	0.430	-0.280
2020/01/31 06:22:54.1	92.900	-0.170	0.390	-0.330
2020/01/31 06:22:54.2	92.910	-0.160	0.350	-0.390
2020/01/31 06:22:54.3	92.930	-0.140	0.300	-0.440
2020/01/31 06:22:54.4	92.950	-0.120	0.250	-0.480
2020/01/31 06:22:54.5	92.970	-0.100	0.200	-0.530
2020/01/31 06:22:54.6	92.990	-0.080	0.150	-0.570
2020/01/31 06:22:54.7	93.010	-0.060	0.100	-0.610
2020/01/31 06:22:54.8	93.030	-0.040	0.050	-0.640
2020/01/31 06:22:54.9	93.060	-0.020	-0.000	-0.680
2020/01/31 06:22:55.0	93.080	0.000	-0.050	-0.710
2020/01/31 06:22:55.1	93.100	0.020	-0.100	-0.740
2020/01/31 06:22:55.2	93.130	0.040	-0.140	-0.760
2020/01/31 06:22:55.3	93.150	0.060	-0.190	-0.780
2020/01/31 06:22:55.4	93.180	0.070	-0.230	-0.800
2020/01/31 06:22:55.5	93.200	0.090	-0.260	-0.820
2020/01/31 06:22:55.6	93.230	0.100	-0.290	-0.830
2020/01/31 06:22:55.7	93.250	0.110	-0.320	-0.840
2020/01/31 06:22:55.8	93.280	0.120	-0.340	-0.850
2020/01/31 06:22:55.9	93.300	0.120	-0.360	-0.850
2020/01/31 06:22:56.0	93.320	0.130	-0.380	-0.850
2020/01/31 06:22:56.1	93.340	0.130	-0.390	-0.840
2020/01/31 06:22:56.2	93.360	0.130	-0.400	-0.830
2020/01/31 06:22:56.3	93.380	0.120	-0.400	-0.820
2020/01/31 06:22:56.4	93.390	0.120	-0.400	-0.800
2020/01/31 06:22:56.5	93.410	0.110	-0.390	-0.770
2020/01/31 06:22:56.6	93.420	0.110	-0.380	-0.750
2020/01/31 06:22:56.7	93.430	0.100	-0.370	-0.710
2020/01/31 06:22:56.8	93.440	0.090	-0.360	-0.680
2020/01/31 06:22:56.9	93.440	0.080	-0.340	-0.640
2020/01/31 06:22:57.0	93.450	0.060	-0.320	-0.590
2020/01/31 06:22:57.1	93.450	0.050	-0.300	-0.540
2020/01/31 06:22:57.2	93.450	0.040	-0.280	-0.490
2020/01/31 06:22:57.3	93.440	0.020	-0.250	-0.430
2020/01/31 06:22:57.4	93.440	0.010	-0.220	-0.380
2020/01/31 06:22:57.5	93.440	-0.000	-0.190	-0.320
2020/01/31 06:22:57.6	93.430	-0.010	-0.160	-0.260
2020/01/31 06:22:57.7	93.420	-0.030	-0.130	-0.190
2020/01/31 06:22:57.8	93.410	-0.040	-0.100	-0.130
2020/01/31 06:22:57.9	93.400	-0.050	-0.080	-0.060
2020/01/31 06:22:58.0	93.390	-0.060	-0.050	0.000
2020/01/31 06:22:58.1	93.370	-0.070	-0.020	0.070
2020/01/31 06:22:58.2	93.370	-0.070	0.000	0.140
2020/01/31 06:22:58.3	93.350	-0.080	0.020	0.210
2020/01/31 06:22:58.4	93.340	-0.080	0.040	0.280
2020/01/31 06:22:58.5	93.320	-0.090	0.060	0.340
2020/01/31 06:22:58.6	93.310	-0.090	0.070	0.410
2020/01/31 06:22:58.7	93.300	-0.090	0.080	0.470
2020/01/31 06:22:58.8	93.280	-0.080	0.090	0.530
2020/01/31 06:22:58.9	93.270	-0.080	0.090	0.600
2020/01/31 06:22:59.0	93.260	-0.070	0.090	0.660
2020/01/31 06:22:59.1	93.250	-0.060	0.090	0.710
2020/01/31 06:22:59.2	93.240	-0.050	0.080	0.770
2020/01/31 06:22:59.3	93.230	-0.030	0.070	0.830
2020/01/31 06:22:59.4	93.220	-0.020	0.060	0.880
2020/01/31 06:22:59.5	93.220	-0.000	0.040	0.930
2020/01/31 06:22:59.6	93.220	0.020	0.020	0.970
2020/01/31 06:22:59.7	93.220	0.040	-0.000	1.020
2020/01/31 06:22:59.8	93.220	0.060	-0.030	1.060
2020/01/31 06:22:59.9	93.230	0.080	-0.060	1.100
2020/01/31 06:23:00.0	93.240	0.100	-0.080	1.140
2020/01/31 06:23:00.1	93.250	0.130	-0.110	1.180
2020/01/31 06:23:00.2	93.260	0.160	-0.150	1.210
2020/01/31 06:23:00.3	93.270	0.180	-0.180	1.240
2020/01/31 06:23:00.4	93.290	0.210	-0.210	1.270
2020/01/31 06:23:00.5	93.310	0.230	-0.250	1.290
2020/01/31 06:23:00.6	93.330	0.260	-0.280	1.320
2020/01/31 06:23:00.7	93.350	0.290	-0.310	1.340
2020/01/31 06:23:00.8	93.380	0.310	-0.350	1.360
2020/01/31 06:23:00.9	93.410	0.330	-0.380	1.380
2020/01/31 06:23:01.0	93.440	0.360	-0.410	1.390
2020/01/31 06:23:01.1	93.470	0.380	-0.440	1.400
2020/01/31 06:23:01.2	93.500	0.390	-0.460	1.420
2020/01/31 06:23:01.3	93.540	0.410	-0.490	1.420
2020/01/31 06:23:01.4	93.570	0.420	-0.510	1.430
2020/01/31 06:23:01.5	93.610	0.440	-0.530	1.430
2020/01/31 06:23:01.6	93.650	0.440	-0.540	1.430
2020/01/31 06:23:01.7	93.690	0.450	-0.560	1.420
2020/01/31 06:23:01.8	93.720	0.450	-0.570	1.420
2020/01/31 06:23:01.9	93.760	0.450	-0.570	1.410
2020/01/31 06:23:02.0	93.800	0.450	-0.580	1.410
2020/01/31 06:23:02.1	93.830	0.440	-0.580	1.400
2020/01/31 06:23:02.2	93.860	0.430	-0.570	1.390
2020/01/31 06:23:02.3	93.890	0.410	-0.560	1.390
2020/01/31 06:23:02.4	93.920	0.390	-0.550	1.380
2020/01/31 06:23:02.5	93.950	0.370	-0.530	1.380
2020/01/31 06:23:02.6	93.970	0.350	-0.510	1.380
2020/01/31 06:23:02.7	93.990	0.320	-0.490	1.370
2020/01/31 06:23:02.8	94.000	0.290	-0.460	1.370
2020/01/31 06:23:02.9	94.010	0.250	-0.430	1.380
2020/01/31 06:23:03.0	94.020	0.220	-0.390	1.380
2020/01/31 06:23:03.1	94.030	0.180	-0.360	1.380
2020/01/31 06:23:03.2	94.020	0.140	-0.310	1.390
2020/01/31 06:23:03.3	94.020	0.100	-0.270	1.400
2020/01/31 06:23:03.4	94.010	0.050	-0.230	1.410
2020/01/31 06:23:03.5	94.000	0.010	-0.190	1.420
2020/01/31 06:23:03.6	93.980	-0.040	-0.140	1.430
2020/01/31 06:23:03.7	93.960	-0.080	-0.100	1.450
2020/01/31 06:23:03.8	93.940	-0.130	-0.050	1.460
2020/01/31 06:23:03.9	93.920	-0.170	-0.010	1.480
2020/01/31 06:23:04.0	93.900	-0.220	0.040	1.500
2020/01/31 06:23:04.1	93.870	-0.260	0.080	1.520
2020/01/31 06:23:04.2	93.850	-0.300	0.120	1.540
2020/01/31 06:23:04.3	93.820	-0.350	0.150	1.550
2020/01/31 06:23:04.4	93.790	-0.390	0.190	1.570
2020/01/31 06:23:04.5	93.760	-0.420	0.220	1.580
2020/01/31 06:23:04.6	93.740	-0.460	0.240	1.600
2020/01/31 06:23:04.7	93.710	-0.490	0.270	1.610
2020/01/31 06:23:04.8	93.680	-0.520	0.280	1.620
2020/01/31 06:23:04.9	93.660	-0.540	0.300	1.630
2020/01/31 06:23:05.0	93.630	-0.560	0.310	1.630
2020/01/31 06:23:05.1	93.610	-0.580	0.310	1.640
2020/01/31 06:23:05.2	93.580	-0.590	0.310	1.630
2020/01/31 06:23:05.3	93.570	-0.600	0.300	1.630
2020/01/31 06:23:05.4	93.550	-0.610	0.290	1.620
2020/01/31 06:23:05.5	93.540	-0.610	0.270	1.610
2020/01/31 06:23:05.6	93.530	-0.610	0.250	1.600
2020/01/31 06:23:05.7	93.520	-0.600	0.220	1.580
2020/01/31 06:23:05.8	93.520	-0.590	0.190	1.550
2020/01/31 06:23:05.9	93.520	-0.580	0.150	1.530
2020/01/31 06:23:06.0	93.520	-0.560	0.110	1.500
2020/01/31 06:23:06.1	93.530	-0.540	0.070	1.460
2020/01/31 06:23:06.2	93.540	-0.520	0.030	1.420
2020/01/31 06:23:06.3	93.550	-0.500	-0.020	1.380
2020/01/31 06:23:06.4	93.560	-0.470	-0.070	1.330
2020/01/31 06:23:06.5	93.580	-0.440	-0.120	1.280
2020/01/31 06:23:06.6	93.600	-0.410	-0.170	1.220
2020/01/31 06:23:06.7	93.620	-0.370	-0.220	1.160
2020/01/31 06:23:06.8	93.640	-0.340	-0.260	1.100
2020/01/31 06:23:06.9	93.670	-0.310	-0.310	1.040
2020/01/31 06:23:07.0	93.690	-0.270	-0.350	0.970
2020/01/31 06:23:07.1	93.720	-0.240	-0.400	0.900
2020/01/31 06:23:07.2	93.760	-0.210	-0.430	0.820
2020/01/31 06:23:07.3	93.790	-0.170	-0.460	0.750
2020/01/31 06:23:07.4	93.820	-0.140	-0.490	0.670
2020/01/31 06:23:07.5	93.860	-0.110	-0.520	0.600
2020/01/31 06:23:07.6	93.900	-0.080	-0.530	0.520
2020/01/31 06:23:07.7	93.930	-0.060	-0.550	0.440
2020/01/31 06:23:07.8	93.970	-0.030	-0.550	0.370
2020/01/31 06:23:07.9	94.010	-0.010	-0.560	0.290
2020/01/31 06:23:08.0	94.040	0.010	-0.550	0.220
2020/01/31 06:23:08.1	94.080	0.020	-0.540	0.150
2020/01/31 06:23:08.2	94.110	0.040	-0.520	0.080
2020/01/31 06:23:08.3	94.140	0.050	-0.500	0.020
2020/01/31 06:23:08.4	94.170	0.060	-0.470	-0.040
2020/01/31 06:23:08.5	94.200	0.060	-0.440	-0.100
2020/01/31 06:23:08.6	94.220	0.060	-0.400	-0.160
2020/01/31 06:23:08.7	94.240	0.070	-0.360	-0.210
2020/01/31 06:23:08.8	94.260	0.060	-0.310	-0.260
2020/01/31 06:23:08.9	94.270	0.060	-0.260	-0.300
2020/01/31 06:23:09.0	94.280	0.060	-0.210	-0.340
2020/01/31 06:23:09.1	94.290	0.050	-0.160	-0.370
2020/01/31 06:23:09.2	94.280	0.040	-0.100	-0.400
2020/01/31 06:23:09.3	94.280	0.030	-0.050	-0.420
2020/01/31 06:23:09.4	94.270	0.020	0.000	-0.440
2020/01/31 06:23:09.5	94.260	0.020	0.060	-0.460
2020/01/31 06:23:09.6	94.250	0.010	0.110	-0.470
2020/01/31 06:23:09.7	94.240	-0.000	0.160	-0.480
2020/01/31 06:23:09.8	94.220	-0.010	0.200	-0.490
2020/01/31 06:23:09.9	94.200	-0.020	0.240	-0.500
2020/01/31 06:23:10.0	94.170	-0.030	0.280	-0.500
2020/01/31 06:23:10.1	94.150	-0.030	0.320	-0.500
2020/01/31 06:23:10.2	94.120	-0.040	0.350	-0.490
2020/01/31 06:23:10.3	94.100	-0.040	0.370	-0.490
2020/01/31 06:23:10.4	94.070	-0.040	0.390	-0.490
2020/01/31 06:23:10.5	94.040	-0.040	0.400	-0.480
2020/01/31 06:23:10.6	94.010	-0.040	0.410	-0.470
2020/01/31 06:23:10.7	93.980	-0.040	0.400	-0.470
2020/01/31 06:23:10.8	93.960	-0.030	0.400	-0.460
2020/01/31 06:23:10.9	93.930	-0.030	0.390	-0.450
2020/01/31 06:23:11.0	93.910	-0.020	0.370	-0.440
2020/01/31 06:23:11.1	93.880	-0.010	0.340	-0.430
2020/01/31 06:23:11.2	93.860	0.000	0.310	-0.420
2020/01/31 06:23:11.3	93.840	0.020	0.270	-0.410
2020/01/31 06:23:11.4	93.820	0.030	0.230	-0.400
2020/01/31 06:23:11.5	93.810	0.050	0.190	-0.390
2020/01/31 06:23:11.6	93.800	0.070	0.140	-0.370
2020/01/31 06:23:11.7	93.790	0.090	0.080	-0.360
2020/01/31 06:23:11.8	93.780	0.110	0.030	-0.340
2020/01/31 06:23:11.9	93.780	0.130	-0.030	-0.320
2020/01/31 06:23:12.0	93.770	0.150	-0.100	-0.300
2020/01/31 06:23:12.1	93.770	0.170	-0.160	-0.280
2020/01/31 06:23:12.2	93.780	0.190	-0.230	-0.260
2020/01/31 06:23:12.3	93.780	0.210	-0.300	-0.230
2020/01/31 06:23:12.4	93.790	0.240	-0.370	-0.210
2020/01/31 06:23:12.5	93.800	0.260	-0.430	-0.180
2020/01/31 06:23:12.6	93.810	0.280	-0.500	-0.150
2020/01/31 06:23:12.7	93.820	0.300	-0.560	-0.120
2020/01/31 06:23:12.8	93.840	0.320	-0.630	-0.090
2020/01/31 06:23:12.9	93.850	0.340	-0.690	-0.050
2020/01/31 06:23:13.0	93.870	0.350	-0.750	-0.020
2020/01/31 06:23:13.1	93.880	0.370	-0.810	0.020
2020/01/31 06:23:13.2	93.910	0.380	-0.860	0.060
2020/01/31 06:23:13.3	93.920	0.390	-0.910	0.100
2020/01/31 06:23:13.4	93.940	0.400	-0.950	0.140
2020/01/31 06:23:13.5	93.960	0.410	-0.990	0.180
2020/01/31 06:23:13.6	93.980	0.420	-1.020	0.220
2020/01/31 06:23:13.7	94.000	0.430	-1.050	0.270
2020/01/31 06:23:13.8	94.010	0.430	-1.080	0.310
2020/01/31 06:23:13.9	94.030	0.430	-1.090	0.360
2020/01/31 06:23:14.0	94.050	0.430	-1.110	0.400
2020/01/31 06:23:14.1	94.060	0.430	-1.110	0.450
2020/01/31 06:23:14.2	94.080	0.430	-1.110	0.500
2020/01/31 06:23:14.3	94.100	0.420	-1.100	0.540
2020/01/31 06:23:14.4	94.110	0.420	-1.090	0.590
2020/01/31 06:23:14.5	94.130	0.410	-1.070	0.630
2020/01/31 06:23:14.6	94.140	0.400	-1.040	0.670
2020/01/31 06:23:14.7	94.150	0.390	-1.000	0.710
2020/01/31 06:23:14.8	94.170	0.380	-0.960	0.760
2020/01/31 06:23:14.9	94.180	0.370	-0.910	0.800
2020/01/31 06:23:15.0	94.190	0.350	-0.860	0.840
2020/01/31 06:23:15.1	94.210	0.340	-0.790	0.880
2020/01/31 06:23:15.2	94.210	0.320	-0.730	0.910
2020/01/31 06:23:15.3	94.230	0.300	-0.650	0.950
2020/01/31 06:23:15.4	94.240	0.280	-0.580	0.990
2020/01/31 06:23:15.5	94.250	0.260	-0.490	1.020
2020/01/31 06:23:15.6	94.270	0.240	-0.410	1.060
2020/01/31 06:23:15.7	94.280	0.220	-0.310	1.090
2020/01/31 06:23:15.8	94.300	0.200	-0.220	1.130
2020/01/31 06:23:15.9	94.310	0.170	-0.120	1.160
2020/01/31 06:23:16.0	94.320	0.150	-0.030	1.200
2020/01/31 06:23:16.1	94.340	0.120	0.070	1.230
2020/01/31 06:23:16.2	94.350	0.100	0.170	1.270
2020/01/31 06:23:16.3	94.360	0.070	0.270	1.300
2020/01/31 06:23:16.4	94.370	0.040	0.370	1.340
2020/01/31 06:23:16.5	94.390	0.020	0.460	1.370
2020/01/31 06:23:16.6	94.400	-0.010	0.550	1.410
2020/01/31 06:23:16.7	94.410	-0.040	0.640	1.450
2020/01/31 06:23:16.8	94.420	-0.060	0.720	1.490
2020/01/31 06:23:16.9	94.430	-0.090	0.800	1.530
2020/01/31 06:23:17.0	94.440	-0.110	0.870	1.580
2020/01/31 06:23:17.1	94.450	-0.140	0.930	1.620
2020/01/31 06:23:17.2	94.460	-0.160	0.990	1.670
2020/01/31 06:23:17.3	94.470	-0.180	1.040	1.710
2020/01/31 06:23:17.4	94.470	-0.210	1.080	1.750
2020/01/31 06:23:17.5	94.470	-0.230	1.110	1.800
2020/01/31 06:23:17.6	94.480	-0.250	1.120	1.840
2020/01/31 06:23:17.7	94.480	-0.270	1.130	1.880
2020/01/31 06:23:17.8	94.480	-0.280	1.130	1.920
2020/01/31 06:23:17.9	94.480	-0.300	1.120	1.960
2020/01/31 06:23:18.0	94.480	-0.310	1.100	1.990
2020/01/31 06:23:18.1	94.490	-0.330	1.070	2.030
2020/01/31 06:23:18.2	94.480	-0.340	1.030	2.050
2020/01/31 06:23:18.3	94.480	-0.350	0.990	2.080
2020/01/31 06:23:18.4	94.480	-0.350	0.930	2.100
2020/01/31 06:23:18.5	94.480	-0.360	0.870	2.120
2020/01/31 06:23:18.6	94.480	-0.360	0.800	2.130
2020/01/31 06:23:18.7	94.480	-0.370	0.720	2.140
2020/01/31 06:23:18.8	94.480	-0.370	0.640	2.150
2020/01/31 06:23:18.9	94.480	-0.370	0.550	2.150
2020/01/31 06:23:19.0	94.480	-0.360	0.460	2.140
2020/01/31 06:23:19.1	94.480	-0.360	0.370	2.130
2020/01/31 06:23:19.2	94.460	-0.360	0.270	2.110
2020/01/31 06:23:19.3	94.460	-0.350	0.170	2.090
2020/01/31 06:23:19.4	94.460	-0.340	0.070	2.060
2020/01/31 06:23:19.5	94.460	-0.330	-0.030	2.030
2020/01/31 06:23:19.6	94.470	-0.320	-0.120	1.990
2020/01/31 06:23:19.7	94.470	-0.310	-0.220	1.960
2020/01/31 06:23:19.8	94.470	-0.300	-0.320	1.910
2020/01/31 06:23:19.9	94.470	-0.280	-0.410	1.870
2020/01/31 06:23:20.0	94.470	-0.270	-0.500	1.820
2020/01/31 06:23:20.1	94.470	-0.250	-0.580	1.770
2020/01/31 06:23:20.2	94.460	-0.240	-0.660	1.710
2020/01/31 06:23:20.3	94.460	-0.220	-0.740	1.660
2020/01/31 06:23:20.4	94.470	-0.200	-0.810	1.610
2020/01/31 06:23:20.5	94.470	-0.180	-0.880	1.550
2020/01/31 06:23:20.6	94.470	-0.160	-0.930	1.500
2020/01/31 06:23:20.7	94.470	-0.140	-0.990	1.440
2020/01/31 06:23:20.8	94.470	-0.120	-1.040	1.390
2020/01/31 06:23:20.9	94.470	-0.100	-1.080	1.330
2020/01/31 06:23:21.0	94.470	-0.080	-1.110	1.280
2020/01/31 06:23:21.1	94.480	-0.050	-1.140	1.230
2020/01/31 06:23:21.2	94.490	-0.030	-1.160	1.180
2020/01/31 06:23:21.3	94.490	-0.000	-1.180	1.130
2020/01/31 06:23:21.4	94.490	0.020	-1.190	1.080
2020/01/31 06:23:21.5	94.490	0.050	-1.200	1.030
2020/01/31 06:23:21.6	94.490	0.070	-1.200	0.980
2020/01/31 06:23:21.7	94.490	0.100	-1.200	0.940
2020/01/31 06:23:21.8	94.490	0.120	-1.190	0.890
2020/01/31 06:23:21.9	94.500	0.150	-1.170	0.850
2020/01/31 06:23:22.0	94.500	0.170	-1.160	0.810
2020/01/31 06:23:22.1	94.500	0.200	-1.130	0.770
2020/01/31 06:23:22.2	94.510	0.220	-1.110	0.720
2020/01/31 06:23:22.3	94.510	0.240	-1.080	0.680
2020/01/31 06:23:22.4	94.510	0.270	-1.040	0.640
2020/01/31 06:23:22.5	94.510	0.290	-1.000	0.600
2020/01/31 06:23:22.6	94.520	0.310	-0.960	0.570
2020/01/31 06:23:22.7	94.520	0.320	-0.920	0.530
2020/01/31 06:23:22.8	94.530	0.340	-0.870	0.490
2020/01/31 06:23:22.9	94.530	0.350	-0.810	0.450
2020/01/31 06:23:23.0	94.530	0.360	-0.760	0.420
2020/01/31 06:23:23.1	94.540	0.370	-0.700	0.380
2020/01/31 06:23:23.2	94.550	0.370	-0.640	0.340
2020/01/31 06:23:23.3	94.550	0.370	-0.580	0.310
2020/01/31 06:23:23.4	94.560	0.370	-0.520	0.270
2020/01/31 06:23:23.5	94.560	0.370	-0.450	0.240
2020/01/31 06:23:23.6	94.570	0.360	-0.380	0.200
2020/01/31 06:23:23.7	94.580	0.350	-0.310	0.170
2020/01/31 06:23:23.8	94.590	0.330	-0.240	0.140
2020/01/31 06:23:23.9	94.590	0.310	-0.170	0.100
2020/01/31 06:23:24.0	94.600	0.290	-0.100	0.070
2020/01/31 06:23:24.1	94.610	0.270	-0.030	0.040
2020/01/31 06:23:24.2	94.620	0.240	0.050	0.010
2020/01/31 06:23:24.3	94.630	0.210	0.120	-0.020
2020/01/31 06:23:24.4	94.630	0.180	0.190	-0.040
2020/01/31 06:23:24.5	94.640	0.150	0.250	-0.070
2020/01/31 06:23:24.6	94.650	0.120	0.320	-0.090
2020/01/31 06:23:24.7	94.650	0.080	0.380	-0.110
2020/01/31 06:23:24.8	94.660	0.040	0.440	-0.130
2020/01/31 06:23:24.9	94.660	0.010	0.500	-0.150
2020/01/31 06:23:25.0	94.660	-0.030	0.550	-0.160
2020/01/31 06:23:25.1	94.670	-0.070	0.610	-0.180
2020/01/31 06:23:25.2	94.670	-0.110	0.660	-0.190
2020/01/31 06:23:25.3	94.670	-0.150	0.700	-0.200
2020/01/31 06:23:25.4	94.680	-0.180	0.730	-0.200
2020/01/31 06:23:25.5	94.680	-0.220	0.770	-0.210
2020/01/31 06:23:25.6	94.680	-0.250	0.790	-0.210
2020/01/31 06:23:25.7	94.680	-0.280	0.810	-0.220
2020/01/31 06:23:25.8	94.680	-0.310	0.820	-0.220
2020/01/31 06:23:25.9	94.690	-0.330	0.830	-0.220
2020/01/31 06:23:26.0	94.690	-0.360	0.830	-0.220
2020/01/31 06:23:26.1	94.690	-0.380	0.820	-0.220
2020/01/31 06:23:26.2	94.700	-0.390	0.800	-0.220
2020/01/31 06:23:26.3	94.710	-0.410	0.780	-0.220
2020/01/31 06:23:26.4	94.710	-0.420	0.750	-0.220
2020/01/31 06:23:26.5	94.720	-0.420	0.710	-0.210
2020/01/31 06:23:26.6	94.730	-0.430	0.670	-0.210
2020/01/31 06:23:26.7	94.740	-0.420	0.620	-0.210
2020/01/31 06:23:26.8	94.750	-0.420	0.560	-0.210
2020/01/31 06:23:26.9	94.760	-0.410	0.500	-0.200
2020/01/31 06:23:27.0	94.770	-0.400	0.430	-0.200
2020/01/31 06:23:27.1	94.790	-0.380	0.360	-0.200
2020/01/31 06:23:27.2	94.800	-0.370	0.280	-0.190
2020/01/31 06:23:27.3	94.820	-0.350	0.200	-0.180
2020/01/31 06:23:27.4	94.830	-0.320	0.120	-0.180
2020/01/31 06:23:27.5	94.850	-0.300	0.040	-0.170
2020/01/31 06:23:27.6	94.870	-0.270	-0.050	-0.160
2020/01/31 06:23:27.7	94.890	-0.240	-0.130	-0.150
2020/01/31 06:23:27.8	94.910	-0.210	-0.210	-0.140
2020/01/31 06:23:27.9	94.930	-0.180	-0.290	-0.120
2020/01/31 06:23:28.0	94.950	-0.150	-0.370	-0.110
2020/01/31 06:23:28.1	94.960	-0.120	-0.450	-0.090
2020/01/31 06:23:28.2	94.990	-0.090	-0.520	-0.060
2020/01/31 06:23:28.3	95.010	-0.060	-0.590	-0.040
2020/01/31 06:23:28.4	95.030	-0.030	-0.650	-0.010
2020/01/31 06:23:28.5	95.040	0.000	-0.710	0.020
2020/01/31 06:23:28.6	95.060	0.030	-0.760	0.050
2020/01/31 06:23:28.7	95.080	0.060	-0.810	0.080
2020/01/31 06:23:28.8	95.090	0.080	-0.850	0.120
2020/01/31 06:23:28.9	95.100	0.100	-0.890	0.160
2020/01/31 06:23:29.0	95.110	0.130	-0.910	0.200
2020/01/31 06:23:29.1	95.120	0.140	-0.940	0.250
2020/01/31 06:23:29.2	95.140	0.160	-0.950	0.300
2020/01/31 06:23:29.3	95.140	0.180	-0.960	0.350
2020/01/31 06:23:29.4	95.140	0.190	-0.970	0.400
2020/01/31 06:23:29.5	95.140	0.200	-0.960	0.450
2020/01/31 06:23:29.6	95.140	0.210	-0.960	0.510
2020/01/31 06:23:29.7	95.130	0.210	-0.940	0.560
2020/01/31 06:23:29.8	95.130	0.220	-0.920	0.620
2020/01/31 06:23:29.9	95.120	0.220	-0.900	0.670
2020/01/31 06:23:30.0	95.100	0.220	-0.870	0.730
2020/01/31 06:23:30.1	95.090	0.210	-0.830	0.780
2020/01/31 06:23:30.2	95.070	0.210	-0.790	0.840
2020/01/31 06:23:30.3	95.050	0.200	-0.750	0.890
2020/01/31 06:23:30.4	95.030	0.200	-0.700	0.940
2020/01/31 06:23:30.5	95.010	0.190	-0.650	0.990
2020/01/31 06:23:30.6	94.990	0.180	-0.600	1.040
2020/01/31 06:23:30.7	94.970	0.170	-0.550	1.080
2020/01/31 06:23:30.8	94.950	0.150	-0.490	1.120
2020/01/31 06:23:30.9	94.930	0.140	-0.430	1.160
2020/01/31 06:23:31.0	94.910	0.130	-0.370	1.200
2020/01/31 06:23:31.1	94.890	0.110	-0.310	1.230
2020/01/31 06:23:31.2	94.860	0.100	-0.250	1.260
2020/01/31 06:23:31.3	94.840	0.090	-0.190	1.290
2020/01/31 06:23:31.4	94.820	0.070	-0.140	1.320
2020/01/31 06:23:31.5	94.810	0.060	-0.080	1.340
2020/01/31 06:23:31.6	94.790	0.050	-0.020	1.370
2020/01/31 06:23:31.7	94.770	0.030	0.030	1.390
2020/01/31 06:23:31.8	94.760	0.020	0.080	1.410
2020/01/31 06:23:31.9	94.740	0.010	0.130	1.430
2020/01/31 06:23:32.0	94.730	0.000	0.170	1.440
2020/01/31 06:23:32.1	94.710	-0.010	0.220	1.460
2020/01/31 06:23:32.2	94.690	-0.020	0.260	1.480
2020/01/31 06:23:32.3	94.680	-0.020	0.290	1.490
2020/01/31 06:23:32.4	94.670	-0.030	0.320	1.500
2020/01/31 06:23:32.5	94.660	-0.030	0.350	1.510
2020/01/31 06:23:32.6	94.650	-0.030	0.370	1.520
2020/01/31 06:23:32.7	94.640	-0.030	0.380	1.530
2020/01/31 06:23:32.8	94.630	-0.030	0.400	1.540
2020/01/31 06:23:32.9	94.630	-0.030	0.400	1.540
2020/01/31 06:23:33.0	94.620	-0.020	0.400	1.550
2020/01/31 06:23:33.1	94.620	-0.010	0.400	1.550
2020/01/31 06:23:33.2	94.620	-0.010	0.390	1.540
2020/01/31 06:23:33.3	94.620	0.000	0.370	1.540
2020/01/31 06:23:33.4	94.630	0.010	0.350	1.530
2020/01/31 06:23:33.5	94.630	0.030	0.330	1.520
2020/01/31 06:23:33.6	94.640	0.040	0.300	1.500
2020/01/31 06:23:33.7	94.650	0.050	0.260	1.480
2020/01/31 06:23:33.8	94.660	0.070	0.220	1.460
2020/01/31 06:23:33.9	94.680	0.090	0.180	1.430
2020/01/31 06:23:34.0	94.690	0.100	0.140	1.400
2020/01/31 06:23:34.1	94.710	0.120	0.090	1.370
2020/01/31 06:23:34.2	94.730	0.140	0.040	1.330
2020/01/31 06:23:34.3	94.750	0.150	-0.010	1.290
2020/01/31 06:23:34.4	94.780	0.170	-0.060	1.240
2020/01/31 06:23:34.5	94.800	0.180	-0.120	1.190
2020/01/31 06:23:34.6	94.830	0.200	-0.170	1.150
2020/01/31 06:23:34.7	94.860	0.210	-0.220	1.090
2020/01/31 06:23:34.8	94.890	0.230	-0.280	1.040
2020/01/31 06:23:34.9	94.920	0.240	-0.330	0.990
2020/01/31 06:23:35.0	94.940	0.250	-0.380	0.930
2020/01/31 06:23:35.1	94.970	0.250	-0.420	0.880
2020/01/31 06:23:35.2	94.990	0.260	-0.470	0.820
2020/01/31 06:23:35.3	95.020	0.260	-0.510	0.770
2020/01/31 06:23:35.4	95.050	0.270	-0.540	0.710
2020/01/31 06:23:35.5	95.070	0.270	-0.570	0.660
2020/01/31 06:23:35.6	95.100	0.260	-0.600	0.610
2020/01/31 06:23:35.7	95.120	0.260	-0.620	0.570
2020/01/31 06:23:35.8	95.140	0.250	-0.640	0.520
2020/01/31 06:23:35.9	95.150	0.240	-0.650	0.490
2020/01/31 06:23:36.0	95.170	0.230	-0.660	0.450
2020/01/31 06:23:36.1	95.180	0.210	-0.660	0.420
2020/01/31 06:23:36.2	95.190	0.200	-0.660	0.390
2020/01/31 06:23:36.3	95.200	0.180	-0.650	0.370
2020/01/31 06:23:36.4	95.210	0.160	-0.640	0.350
2020/01/31 06:23:36.5	95.210	0.140	-0.620	0.340
2020/01/31 06:23:36.6	95.210	0.110	-0.590	0.320
2020/01/31 06:23:36.7	95.210	0.090	-0.560	0.320
2020/01/31 06:23:36.8	95.200	0.060	-0.530	0.320
2020/01/31 06:23:36.9	95.190	0.030	-0.490	0.320
2020/01/31 06:23:37.0	95.180	-0.000	-0.450	0.330
2020/01/31 06:23:37.1	95.170	-0.030	-0.410	0.340
2020/01/31 06:23:37.2	95.160	-0.070	-0.360	0.360
2020/01/31 06:23:37.3	95.140	-0.100	-0.310	0.380
2020/01/31 06:23:37.4	95.120	-0.130	-0.250	0.410
2020/01/31 06:23:37.5	95.100	-0.160	-0.200	0.430
2020/01/31 06:23:37.6	95.080	-0.200	-0.140	0.460
2020/01/31 06:23:37.7	95.060	-0.230	-0.090	0.490
2020/01/31 06:23:37.8	95.040	-0.260	-0.030	0.530
2020/01/31 06:23:37.9	95.010	-0.290	0.030	0.560
2020/01/31 06:23:38.0	94.990	-0.320	0.080	0.600
2020/01/31 06:23:38.1	94.960	-0.350	0.130	0.640
2020/01/31 06:23:38.2	94.940	-0.370	0.190	0.670
2020/01/31 06:23:38.3	94.920	-0.400	0.230	0.710
2020/01/31 06:23:38.4	94.890	-0.420	0.280	0.740
2020/01/31 06:23:38.5	94.870	-0.440	0.320	0.780
2020/01/31 06:23:38.6	94.850	-0.460	0.360	0.810
2020/01/31 06:23:38.7	94.820	-0.470	0.390	0.840
2020/01/31 06:23:38.8	94.800	-0.480	0.420	0.870
2020/01/31 06:23:38.9	94.780	-0.490	0.440	0.890
2020/01/31 06:23:39.0	94.760	-0.490	0.460	0.920
2020/01/31 06:23:39.1	94.740	-0.500	0.470	0.930
2020/01/31 06:23:39.2	94.720	-0.490	0.480	0.950
2020/01/31 06:23:39.3	94.700	-0.490	0.480	0.960
2020/01/31 06:23:39.4	94.690	-0.480	0.470	0.970
2020/01/31 06:23:39.5	94.670	-0.470	0.470	0.980
2020/01/31 06:23:39.6	94.650	-0.460	0.450	0.980
2020/01/31 06:23:39.7	94.640	-0.440	0.430	0.980
2020/01/31 06:23:39.8	94.630	-0.420	0.400	0.970
2020/01/31 06:23:39.9	94.610	-0.390	0.370	0.960
2020/01/31 06:23:40.0	94.600	-0.360	0.340	0.950
2020/01/31 06:23:40.1	94.590	-0.340	0.300	0.940
2020/01/31 06:23:40.2	94.580	-0.300	0.250	0.920
2020/01/31 06:23:40.3	94.560	-0.270	0.200	0.900
2020/01/31 06:23:40.4	94.550	-0.230	0.150	0.880
2020/01/31 06:23:40.5	94.540	-0.190	0.090	0.860
2020/01/31 06:23:40.6	94.530	-0.150	0.030	0.830
2020/01/31 06:23:40.7	94.520	-0.110	-0.030	0.800
2020/01/31 06:23:40.8	94.520	-0.070	-0.090	0.770
2020/01/31 06:23:40.9	94.510	-0.020	-0.150	0.740
2020/01/31 06:23:41.0	94.510	0.020	-0.210	0.710
2020/01/31 06:23:41.1	94.500	0.060	-0.270	0.680
2020/01/31 06:23:41.2	94.500	0.110	-0.330	0.640
2020/01/31 06:23:41.3	94.500	0.150	-0.390	0.610
2020/01/31 06:23:41.4	94.510	0.190	-0.440	0.570
2020/01/31 06:23:41.5	94.510	0.230	-0.500	0.540
2020/01/31 06:23:41.6	94.520	0.270	-0.550	0.500
2020/01/31 06:23:41.7	94.530	0.310	-0.600	0.460
2020/01/31 06:23:41.8	94.550	0.340	-0.640	0.420
2020/01/31 06:23:41.9	94.560	0.370	-0.690	0.390
2020/01/31 06:23:42.0	94.580	0.410	-0.720	0.350
2020/01/31 06:23:42.1	94.600	0.430	-0.760	0.320
2020/01/31 06:23:42.2	94.630	0.460	-0.790	0.280
2020/01/31 06:23:42.3	94.650	0.480	-0.810	0.250
2020/01/31 06:23:42.4	94.680	0.500	-0.830	0.220
2020/01/31 06:23:42.5	94.700	0.520	-0.840	0.190
2020/01/31 06:23:42.6	94.730	0.530	-0.850	0.170
2020/01/31 06:23:42.7	94.760	0.550	-0.860	0.140
2020/01/31 06:23:42.8	94.780	0.550	-0.860	0.120
2020/01/31 06:23:42.9	94.810	0.560	-0.850	0.100
2020/01/31 06:23:43.0	94.840	0.560	-0.850	0.080
2020/01/31 06:23:43.1	94.870	0.560	-0.830	0.060
2020/01/31 06:23:43.2	94.900	0.560	-0.820	0.060
2020/01/31 06:23:43.3	94.930	0.550	-0.800	0.050
2020/01/31 06:23:43.4	94.960	0.540	-0.770	0.040
2020/01/31 06:23:43.5	94.990	0.530	-0.740	0.040
2020/01/31 06:23:43.6	95.020	0.510	-0.710	0.040
2020/01/31 06:23:43.7	95.050	0.500	-0.680	0.040
2020/01/31 06:23:43.8	95.070	0.480	-0.640	0.040
2020/01/31 06:23:43.9	95.100	0.450	-0.600	0.050
2020/01/31 06:23:44.0	95.120	0.430	-0.560	0.070
2020/01/31 06:23:44.1	95.140	0.410	-0.510	0.080
2020/01/31 06:23:44.2	95.170	0.380	-0.460	0.100
2020/01/31 06:23:44.3	95.190	0.350	-0.410	0.130
2020/01/31 06:23:44.4	95.200	0.320	-0.350	0.150
2020/01/31 06:23:44.5	95.220	0.280	-0.300	0.190
2020/01/31 06:23:44.6	95.230	0.250	-0.240	0.220
2020/01/31 06:23:44.7	95.230	0.210	-0.180	0.260
2020/01/31 06:23:44.8	95.240	0.180	-0.120	0.300
2020/01/31 06:23:44.9	95.240	0.140	-0.060	0.340
2020/01/31 06:23:45.0	95.240	0.100	0.000	0.390
2020/01/31 06:23:45.1	95.240	0.050	0.070	0.440
2020/01/31 06:23:45.2	95.230	0.010	0.130	0.490
2020/01/31 06:23:45.3	95.230	-0.030	0.190	0.550
2020/01/31 06:23:45.4	95.220	-0.080	0.250	0.610
2020/01/31 06:23:45.5	95.210	-0.120	0.310	0.670
2020/01/31 06:23:45.6	95.190	-0.170	0.370	0.730
2020/01/31 06:23:45.7	95.180	-0.210	0.430	0.800
2020/01/31 06:23:45.8	95.160	-0.260	0.480	0.870
2020/01/31 06:23:45.9	95.140	-0.300	0.530	0.940
2020/01/31 06:23:46.0	95.120	-0.350	0.580	1.020
2020/01/31 06:23:46.1	95.100	-0.390	0.630	1.090
2020/01/31 06:23:46.2	95.070	-0.440	0.670	1.170
2020/01/31 06:23:46.3	95.050	-0.480	0.700	1.250
2020/01/31 06:23:46.4	95.020	-0.520	0.730	1.320
2020/01/31 06:23:46.5	95.000	-0.560	0.760	1.400
2020/01/31 06:23:46.6	94.970	-0.600	0.780	1.470
2020/01/31 06:23:46.7	94.940	-0.640	0.790	1.540
2020/01/31 06:23:46.8	94.910	-0.670	0.790	1.610
2020/01/31 06:23:46.9	94.880	-0.700	0.790	1.680
2020/01/31 06:23:47.0	94.850	-0.720	0.790	1.740
2020/01/31 06:23:47.1	94.820	-0.750	0.770	1.800
2020/01/31 06:23:47.2	94.790	-0.770	0.750	1.850
2020/01/31 06:23:47.3	94.770	-0.780	0.720	1.900
2020/01/31 06:23:47.4	94.740	-0.790	0.680	1.950
2020/01/31 06:23:47.5	94.710	-0.800	0.640	1.990
2020/01/31 06:23:47.6	94.690	-0.800	0.590	2.020
2020/01/31 06:23:47.7	94.670	-0.800	0.530	2.050
2020/01/31 06:23:47.8	94.650	-0.790	0.470	2.070
2020/01/31 06:23:47.9	94.630	-0.780	0.400	2.080
2020/01/31 06:23:48.0	94.610	-0.760	0.320	2.090
2020/01/31 06:23:48.1	94.600	-0.740	0.240	2.100
2020/01/31 06:23:48.2	94.590	-0.710	0.150	2.100
2020/01/31 06:23:48.3	94.580	-0.680	0.050	2.090
2020/01/31 06:23:48.4	94.570	-0.640	-0.040	2.080
2020/01/31 06:23:48.5	94.560	-0.600	-0.140	2.070
2020/01/31 06:23:48.6	94.560	-0.550	-0.240	2.050
2020/01/31 06:23:48.7	94.560	-0.500	-0.350	2.030
2020/01/31 06:23:48.8	94.560	-0.450	-0.450	2.000
2020/01/31 06:23:48.9	94.570	-0.390	-0.560	1.970
2020/01/31 06:23:49.0	94.570	-0.330	-0.660	1.940
2020/01/31 06:23:49.1	94.580	-0.270	-0.760	1.910
2020/01/31 06:23:49.2	94.580	-0.200	-0.860	1.870
2020/01/31 06:23:49.3	94.580	-0.140	-0.960	1.840
2020/01/31 06:23:49.4	94.590	-0.070	-1.050	1.800
2020/01/31 06:23:49.5	94.600	-0.000	-1.130	1.760
2020/01/31 06:23:49.6	94.610	0.060	-1.200	1.720
2020/01/31 06:23:49.7	94.610	0.130	-1.270	1.680
2020/01/31 06:23:49.8	94.620	0.190	-1.330	1.630
2020/01/31 06:23:49.9	94.630	0.260	-1.380	1.590
2020/01/31 06:23:50.0	94.630	0.320	-1.420	1.540
2020/01/31 06:23:50.1	94.640	0.380	-1.450	1.490
2020/01/31 06:23:50.2	94.640	0.430	-1.470	1.450
2020/01/31 06:23:50.3	94.640	0.490	-1.470	1.400
2020/01/31 06:23:50.4	94.640	0.530	-1.470	1.340
2020/01/31 06:23:50.5	94.650	0.580	-1.450	1.290
2020/01/31 06:23:50.6	94.650	0.610	-1.430	1.230
2020/01/31 06:23:50.7	94.650	0.650	-1.390	1.180
2020/01/31 06:23:50.8	94.650	0.680	-1.340	1.120
2020/01/31 06:23:50.9	94.650	0.700	-1.280	1.050
2020/01/31 06:23:51.0	94.650	0.720	-1.210	0.990
2020/01/31 06:23:51.1	94.650	0.730	-1.130	0.930
2020/01/31 06:23:51.2	94.660	0.740	-1.040	0.860
2020/01/31 06:23:51.3	94.660	0.740	-0.940	0.800
2020/01/31 06:23:51.4	94.650	0.740	-0.840	0.730
2020/01/31 06:23:51.5	94.650	0.730	-0.730	0.660
2020/01/31 06:23:51.6	94.650	0.710	-0.620	0.590
2020/01/31 06:23:51.7	94.650	0.700	-0.500	0.530
2020/01/31 06:23:51.8	94.650	0.670	-0.380	0.460
2020/01/31 06:23:51.9	94.650	0.650	-0.260	0.390
2020/01/31 06:23:52.0	94.650	0.620	-0.150	0.330
2020/01/31 06:23:52.1	94.650	0.590	-0.030	0.260
2020/01/31 06:23:52.2	94.660	0.560	0.090	0.200
2020/01/31 06:23:52.3	94.650	0.520	0.190	0.140
2020/01/31 06:23:52.4	94.650	0.480	0.300	0.080
2020/01/31 06:23:52.5	94.650	0.450	0.400	0.020
2020/01/31 06:23:52.6	94.650	0.410	0.490	-0.030
2020/01/31 06:23:52.7	94.640	0.370	0.570	-0.090
2020/01/31 06:23:52.8	94.640	0.330	0.650	-0.140
2020/01/31 06:23:52.9	94.630	0.290	0.710	-0.180
2020/01/31 06:23:53.0	94.630	0.250	0.770	-0.220
2020/01/31 06:23:53.1	94.620	0.220	0.820	-0.260
2020/01/31 06:23:53.2	94.610	0.180	0.860	-0.300
2020/01/31 06:23:53.3	94.600	0.150	0.890	-0.340
2020/01/31 06:23:53.4	94.600	0.120	0.910	-0.370
2020/01/31 06:23:53.5	94.590	0.090	0.920	-0.400
2020/01/31 06:23:53.6	94.580	0.060	0.920	-0.420
2020/01/31 06:23:53.7	94.570	0.040	0.910	-0.440
2020/01/31 06:23:53.8	94.570	0.020	0.890	-0.460
2020/01/31 06:23:53.9	94.560	-0.000	0.870	-0.480
2020/01/31 06:23:54.0	94.550	-0.020	0.830	-0.500
2020/01/31 06:23:54.1	94.540	-0.040	0.790	-0.510
2020/01/31 06:23:54.2	94.540	-0.050	0.750	-0.510
2020/01/31 06:23:54.3	94.530	-0.060	0.690	-0.520
2020/01/31 06:23:54.4	94.520	-0.070	0.640	-0.520
2020/01/31 06:23:54.5	94.520	-0.080	0.570	-0.520
2020/01/31 06:23:54.6	94.510	-0.080	0.510	-0.510
2020/01/31 06:23:54.7	94.500	-0.090	0.440	-0.500
2020/01/31 06:23:54.8	94.490	-0.090	0.370	-0.480
2020/01/31 06:23:54.9	94.480	-0.090	0.300	-0.470
2020/01/31 06:23:55.0	94.470	-0.090	0.220	-0.440
2020/01/31 06:23:55.1	94.460	-0.090	0.150	-0.420
2020/01/31 06:23:55.2	94.460	-0.080	0.080	-0.380
2020/01/31 06:23:55.3	94.450	-0.080	0.000	-0.350
2020/01/31 06:23:55.4	94.440	-0.070	-0.070	-0.310
2020/01/31 06:23:55.5	94.430	-0.070	-0.130	-0.270
2020/01/31 06:23:55.6	94.420	-0.060	-0.200	-0.230
2020/01/31 06:23:55.7	94.410	-0.050	-0.260	-0.190
2020/01/31 06:23:55.8	94.400	-0.050	-0.320	-0.140
2020/01/31 06:23:55.9	94.390	-0.040	-0.380	-0.090
2020/01/31 06:23:56.0	94.380	-0.030	-0.430	-0.040
2020/01/31 06:23:56.1	94.380	-0.030	-0.480	0.010
2020/01/31 06:23:56.2	94.370	-0.020	-0.520	0.060
2020/01/31 06:23:56.3	94.370	-0.020	-0.560	0.110
2020/01/31 06:23:56.4	94.360	-0.010	-0.600	0.160
2020/01/31 06:23:56.5	94.360	-0.010	-0.630	0.210
2020/01/31 06:23:56.6	94.370	-0.010	-0.650	0.260
2020/01/31 06:23:56.7	94.370	-0.010	-0.670	0.310
2020/01/31 06:23:56.8	94.380	-0.010	-0.690	0.360
2020/01/31 06:23:56.9	94.380	-0.020	-0.700	0.410
2020/01/31 06:23:57.0	94.390	-0.020	-0.700	0.460
2020/01/31 06:23:57.1	94.400	-0.030	-0.700	0.510
2020/01/31 06:23:57.2	94.410	-0.040	-0.700	0.560
2020/01/31 06:23:57.3	94.420	-0.040	-0.690	0.600
2020/01/31 06:23:57.4	94.430	-0.060	-0.680	0.650
2020/01/31 06:23:57.5	94.440	-0.070	-0.660	0.690
2020/01/31 06:23:57.6	94.450	-0.080	-0.640	0.740
2020/01/31 06:23:57.7	94.450	-0.090	-0.610	0.780
2020/01/31 06:23:57.8	94.460	-0.110	-0.580	0.820
2020/01/31 06:23:57.9	94.460	-0.120	-0.550	0.860
2020/01/31 06:23:58.0	94.470	-0.140	-0.520	0.910
2020/01/31 06:23:58.1	94.470	-0.150	-0.480	0.950
2020/01/31 06:23:58.2	94.480	-0.170	-0.440	1.000
2020/01/31 06:23:58.3	94.480	-0.180	-0.400	1.040
2020/01/31 06:23:58.4	94.470	-0.200	-0.360	1.080
2020/01/31 06:23:58.5	94.470	-0.210	-0.310	1.130
2020/01/31 06:23:58.6	94.460	-0.230	-0.270	1.180
2020/01/31 06:23:58.7	94.450	-0.240	-0.220	1.220
2020/01/31 06:23:58.8	94.440	-0.250	-0.180	1.270
2020/01/31 06:23:58.9	94.430	-0.260	-0.140	1.320
2020/01/31 06:23:59.0	94.410	-0.270	-0.100	1.370
2020/01/31 06:23:59.1	94.400	-0.270	-0.060	1.420
2020/01/31 06:23:59.2	94.370	-0.280	-0.030	1.470
2020/01/31 06:23:59.3	94.350	-0.280	0.000	1.520
2020/01/31 06:23:59.4	94.330	-0.280	0.030	1.560
2020/01/31 06:23:59.5	94.320	-0.280	0.060	1.610
2020/01/31 06:23:59.6	94.300	-0.280	0.080	1.660
2020/01/31 06:23:59.7	94.290	-0.270	0.100	1.700
2020/01/31 06:23:59.8	94.270	-0.260	0.110	1.750
2020/01/31 06:23:59.9	94.250	-0.250	0.120	1.790
2020/01/31 06:24:00.0	94.240	-0.240	0.120	1.830
2020/01/31 06:24:00.1	94.230	-0.230	0.120	1.860
2020/01/31 06:24:00.2	94.210	-0.210	0.120	1.900
2020/01/31 06:24:00.3	94.200	-0.200	0.110	1.940
2020/01/31 06:24:00.4	94.190	-0.180	0.090	1.960
2020/01/31 06:24:00.5	94.180	-0.160	0.070	1.990
2020/01/31 06:24:00.6	94.180	-0.140	0.040	2.010
2020/01/31 06:24:00.7	94.170	-0.120	0.010	2.030
2020/01/31 06:24:00.8	94.170	-0.090	-0.020	2.050
2020/01/31 06:24:00.9	94.170	-0.070	-0.060	2.060
2020/01/31 06:24:01.0	94.170	-0.050	-0.090	2.060
2020/01/31 06:24:01.1	94.170	-0.030	-0.130	2.070
2020/01/31 06:24:01.2	94.170	-0.000	-0.170	2.070
2020/01/31 06:24:01.3	94.180	0.020	-0.210	2.060
2020/01/31 06:24:01.4	94.180	0.040	-0.260	2.060
2020/01/31 06:24:01.5	94.190	0.060	-0.300	2.050
2020/01/31 06:24:01.6	94.200	0.080	-0.340	2.030
2020/01/31 06:24:01.7	94.210	0.090	-0.380	2.010
2020/01/31 06:24:01.8	94.220	0.110	-0.410	1.990
2020/01/31 06:24:01.9	94.230	0.120	-0.440	1.970
2020/01/31 06:24:02.0	94.240	0.130	-0.470	1.940
2020/01/31 06:24:02.1	94.250	0.140	-0.500	1.910
2020/01/31 06:24:02.2	94.250	0.140	-0.520	1.870
2020/01/31 06:24:02.3	94.260	0.150	-0.540	1.840
2020/01/31 06:24:02.4	94.270	0.150	-0.550	1.800
2020/01/31 06:24:02.5	94.270	0.150	-0.550	1.760
2020/01/31 06:24:02.6	94.280	0.140	-0.550	1.720
2020/01/31 06:24:02.7	94.280	0.130	-0.550	1.680
2020/01/31 06:24:02.8	94.290	0.130	-0.540	1.630
2020/01/31 06:24:02.9	94.290	0.110	-0.520	1.590
2020/01/31 06:24:03.0	94.290	0.100	-0.510	1.540
2020/01/31 06:24:03.1	94.280	0.080	-0.480	1.490
2020/01/31 06:24:03.2	94.270	0.070	-0.450	1.440
2020/01/31 06:24:03.3	94.260	0.050	-0.420	1.400
2020/01/31 06:24:03.4	94.260	0.020	-0.380	1.350
2020/01/31 06:24:03.5	94.250	0.000	-0.340	1.300
2020/01/31 06:24:03.6	94.230	-0.020	-0.290	1.250
2020/01/31 06:24:03.7	94.220	-0.050	-0.240	1.200
2020/01/31 06:24:03.8	94.200	-0.070	-0.190	1.150
2020/01/31 06:24:03.9	94.190	-0.100	-0.140	1.100
2020/01/31 06:24:04.0	94.170	-0.130	-0.090	1.050
2020/01/31 06:24:04.1	94.150	-0.160	-0.030	1.000
2020/01/31 06:24:04.2	94.120	-0.180	0.030	0.950
2020/01/31 06:24:04.3	94.100	-0.210	0.090	0.900
2020/01/31 06:24:04.4	94.080	-0.240	0.140	0.850
2020/01/31 06:24:04.5	94.050	-0.260	0.200	0.800
2020/01/31 06:24:04.6	94.030	-0.290	0.250	0.750
2020/01/31 06:24:04.7	94.000	-0.310	0.300	0.700
2020/01/31 06:24:04.8	93.970	-0.330	0.350	0.650
2020/01/31 06:24:04.9	93.940	-0.350	0.390	0.610
2020/01/31 06:24:05.0	93.910	-0.370	0.430	0.560
2020/01/31 06:24:05.1	93.890	-0.380	0.470	0.510
2020/01/31 06:24:05.2	93.870	-0.400	0.490	0.460
2020/01/31 06:24:05.3	93.840	-0.410	0.520	0.420
2020/01/31 06:24:05.4	93.810	-0.410	0.530	0.370
2020/01/31 06:24:05.5	93.790	-0.420	0.550	0.320
2020/01/31 06:24:05.6	93.760	-0.420	0.550	0.270
2020/01/31 06:24:05.7	93.740	-0.410	0.550	0.230
2020/01/31 06:24:05.8	93.710	-0.400	0.540	0.180
2020/01/31 06:24:05.9	93.690	-0.390	0.520	0.140
2020/01/31 06:24:06.0	93.670	-0.380	0.490	0.100
2020/01/31 06:24:06.1	93.650	-0.360	0.460	0.050
2020/01/31 06:24:06.2	93.630	-0.330	0.420	0.010
2020/01/31 06:24:06.3	93.620	-0.310	0.380	-0.020
2020/01/31 06:24:06.4	93.600	-0.280	0.320	-0.060
2020/01/31 06:24:06.5	93.590	-0.240	0.270	-0.100
2020/01/31 06:24:06.6	93.570	-0.200	0.200	-0.130
2020/01/31 06:24:06.7	93.560	-0.160	0.130	-0.160
2020/01/31 06:24:06.8	93.550	-0.120	0.060	-0.190
2020/01/31 06:24:06.9	93.550	-0.070	-0.010	-0.220
2020/01/31 06:24:07.0	93.540	-0.020	-0.090	-0.250
2020/01/31 06:24:07.1	93.540	0.030	-0.170	-0.280
2020/01/31 06:24:07.2	93.530	0.080	-0.260	-0.300
2020/01/31 06:24:07.3	93.540	0.130	-0.340	-0.330
2020/01/31 06:24:07.4	93.540	0.190	-0.420	-0.350
2020/01/31 06:24:07.5	93.550	0.240	-0.490	-0.380
2020/01/31 06:24:07.6	93.560	0.290	-0.570	-0.400
2020/01/31 06:24:07.7	93.570	0.350	-0.640	-0.430
2020/01/31 06:24:07.8	93.590	0.400	-0.710	-0.450
2020/01/31 06:24:07.9	93.600	0.450	-0.780	-0.480
2020/01/31 06:24:08.0	93.620	0.490	-0.840	-0.500
2020/01/31 06:24:08.1	93.640	0.540	-0.890	-0.520
2020/01/31 06:24:08.2	93.660	0.580	-0.930	-0.540
2020/01/31 06:24:08.3	93.680	0.620	-0.980	-0.560
2020/01/31 06:24:08.4	93.700	0.650	-1.010	-0.580
2020/01/31 06:24:08.5	93.730	0.680	-1.040	-0.600
2020/01/31 06:24:08.6	93.750	0.710	-1.070	-0.610
2020/01/31 06:24:08.7	93.770	0.740	-1.080	-0.630
2020/01/31 06:24:08.8	93.780	0.760	-1.090	-0.640
2020/01/31 06:24:08.9	93.800	0.770	-1.090	-0.650
2020/01/31 06:24:09.0	93.820	0.780	-1.080	-0.650
2020/01/31 06:24:09.1	93.830	0.790	-1.070	-0.650
2020/01/31 06:24:09.2	93.840	0.790	-1.050	-0.650
2020/01/31 06:24:09.3	93.850	0.790	-1.030	-0.640
2020/01/31 06:24:09.4	93.860	0.790	-0.990	-0.620
2020/01/31 06:24:09.5	93.860	0.780	-0.950	-0.600
2020/01/31 06:24:09.6	93.860	0.760	-0.910	-0.570
2020/01/31 06:24:09.7	93.850	0.750	-0.860	-0.540
2020/01/31 06:24:09.8	93.840	0.730	-0.800	-0.490
2020/01/31 06:24:09.9	93.830	0.700	-0.740	-0.440
2020/01/31 06:24:10.0	93.820	0.680	-0.680	-0.390
2020/01/31 06:24:10.1	93.800	0.650	-0.610	-0.330
2020/01/31 06:24:10.2	93.790	0.620	-0.540	-0.260
2020/01/31 06:24:10.3	93.770	0.580	-0.470	-0.190
2020/01/31 06:24:10.4	93.740	0.550	-0.400	-0.110
2020/01/31 06:24:10.5	93.720	0.510	-0.320	-0.030
2020/01/31 06:24:10.6	93.690	0.470	-0.250	0.060
2020/01/31 06:24:10.7	93.670	0.430	-0.170	0.150
2020/01/31 06:24:10.8	93.640	0.390	-0.100	0.240
2020/01/31 06:24:10.9	93.610	0.350	-0.020	0.330
2020/01/31 06:24:11.0	93.580	0.300	0.050	0.430
2020/01/31 06:24:11.1	93.550	0.260	0.130	0.520
2020/01/31 06:24:11.2	93.530	0.210	0.190	0.620
2020/01/31 06:24:11.3	93.500	0.170	0.260	0.720
2020/01/31 06:24:11.4	93.480	0.120	0.330	0.820
2020/01/31 06:24:11.5	93.460	0.070	0.390	0.910
2020/01/31 06:24:11.6	93.440	0.030	0.450	1.000
2020/01/31 06:24:11.7	93.420	-0.020	0.500	1.100
2020/01/31 06:24:11.8	93.400	-0.070	0.560	1.180
2020/01/31 06:24:11.9	93.390	-0.110	0.600	1.270
2020/01/31 06:24:12.0	93.380	-0.160	0.640	1.350
2020/01/31 06:24:12.1	93.380	-0.200	0.680	1.430
2020/01/31 06:24:12.2	93.390	-0.240	0.720	1.510
2020/01/31 06:24:12.3	93.390	-0.280	0.740	1.590
2020/01/31 06:24:12.4	93.390	-0.320	0.760	1.660
2020/01/31 06:24:12.5	93.390	-0.360	0.780	1.720
2020/01/31 06:24:12.6	93.400	-0.400	0.790	1.780
2020/01/31 06:24:12.7	93.410	-0.430	0.790	1.840
2020/01/31 06:24:12.8	93.420	-0.470	0.780	1.890
2020/01/31 06:24:12.9	93.430	-0.500	0.770	1.940
2020/01/31 06:24:13.0	93.440	-0.530	0.760	1.990
2020/01/31 06:24:13.1	93.460	-0.550	0.730	2.030
2020/01/31 06:24:13.2	93.470	-0.580	0.700	2.070
2020/01/31 06:24:13.3	93.480	-0.600	0.670	2.110
2020/01/31 06:24:13.4	93.500	-0.610	0.630	2.140
2020/01/31 06:24:13.5	93.520	-0.630	0.590	2.170
2020/01/31 06:24:13.6	93.530	-0.640	0.540	2.190
2020/01/31 06:24:13.7	93.550	-0.640	0.490	2.220
2020/01/31 06:24:13.8	93.570	-0.650	0.440	2.240
2020/01/31 06:24:13.9	93.580	-0.650	0.380	2.250
2020/01/31 06:24:14.0	93.600	-0.650	0.320	2.270
2020/01/31 06:24:14.1	93.620	-0.640	0.250	2.280
2020/01/31 06:24:14.2	93.640	-0.630	0.190	2.290
2020/01/31 06:24:14.3	93.650	-0.620	0.120	2.300
2020/01/31 06:24:14.4	93.670	-0.600	0.060	2.300
2020/01/31 06:24:14.5	93.680	-0.580	-0.010	2.310
2020/01/31 06:24:14.6	93.690	-0.560	-0.080	2.300
2020/01/31 06:24:14.7	93.710	-0.540	-0.150	2.300
2020/01/31 06:24:14.8	93.720	-0.510	-0.220	2.300
2020/01/31 06:24:14.9	93.730	-0.480	-0.280	2.290
2020/01/31 06:24:15.0	93.740	-0.450	-0.350	2.280
2020/01/31 06:24:15.1	93.750	-0.420	-0.410	2.270
2020/01/31 06:24:15.2	93.760	-0.380	-0.470	2.260
2020/01/31 06:24:15.3	93.770	-0.350	-0.530	2.240
2020/01/31 06:24:15.4	93.780	-0.310	-0.580	2.230
2020/01/31 06:24:15.5	93.780	-0.280	-0.630	2.220
2020/01/31 06:24:15.6	93.790	-0.240	-0.680	2.200
2020/01/31 06:24:15.7	93.790	-0.200	-0.720	2.190
2020/01/31 06:24:15.8	93.790	-0.160	-0.760	2.180
2020/01/31 06:24:15.9	93.790	-0.130	-0.790	2.160
2020/01/31 06:24:16.0	93.790	-0.090	-0.820	2.150
2020/01/31 06:24:16.1	93.800	-0.050	-0.840	2.130
2020/01/31 06:24:16.2	93.780	-0.020	-0.860	2.110
2020/01/31 06:24:16.3	93.780	0.010	-0.880	2.100
2020/01/31 06:24:16.4	93.770	0.050	-0.890	2.080
2020/01/31 06:24:16.5	93.770	0.080	-0.890	2.060
2020/01/31 06:24:16.6	93.770	0.110	-0.890	2.040
2020/01/31 06:24:16.7	93.770	0.130	-0.890	2.010
2020/01/31 06:24:16.8	93.770	0.160	-0.880	1.990
2020/01/31 06:24:16.9	93.770	0.180	-0.860	1.960
2020/01/31 06:24:17.0	93.760	0.200	-0.850	1.930
2020/01/31 06:24:17.1	93.760	0.220	-0.820	1.900
2020/01/31 06:24:17.2	93.760	0.240	-0.790	1.870
2020/01/31 06:24:17.3	93.760	0.250	-0.770	1.840
2020/01/31 06:24:17.4	93.750	0.260	-0.730	1.800
2020/01/31 06:24:17.5	93.750	0.270	-0.700	1.760
2020/01/31 06:24:17.6	93.750	0.270	-0.660	1.720
2020/01/31 06:24:17.7	93.750	0.280	-0.620	1.680
2020/01/31 06:24:17.8	93.750	0.280	-0.570	1.630
2020/01/31 06:24:17.9	93.750	0.270	-0.530	1.580
2020/01/31 06:24:18.0	93.740	0.270	-0.480	1.530
2020/01/31 06:24:18.1	93.740	0.260	-0.430	1.480
2020/01/31 06:24:18.2	93.740	0.250	-0.370	1.430
2020/01/31 06:24:18.3	93.730	0.240	-0.320	1.380
2020/01/31 06:24:18.4	93.730	0.230	-0.270	1.320
2020/01/31 06:24:18.5	93.720	0.220	-0.210	1.260
2020/01/31 06:24:18.6	93.710	0.200	-0.160	1.210
2020/01/31 06:24:18.7	93.700	0.180	-0.100	1.150
2020/01/31 06:24:18.8	93.700	0.160	-0.050	1.090
2020/01/31 06:24:18.9	93.690	0.140	0.000	1.030
2020/01/31 06:24:19.0	93.680	0.120	0.050	0.970
2020/01/31 06:24:19.1	93.660	0.100	0.100	0.900
2020/01/31 06:24:19.2	93.650	0.080	0.150	0.840
2020/01/31 06:24:19.3	93.640	0.060	0.190	0.780
2020/01/31 06:24:19.4	93.620	0.040	0.240	0.720
2020/01/31 06:24:19.5	93.610	0.020	0.270	0.650
2020/01/31 06:24:19.6	93.590	0.000	0.300	0.590
2020/01/31 06:24:19.7	93.580	-0.020	0.330	0.530
2020/01/31 06:24:19.8	93.560	-0.030	0.350	0.470
2020/01/31 06:24:19.9	93.550	-0.050	0.370	0.400
2020/01/31 06:24:20.0	93.530	-0.060	0.380	0.340
2020/01/31 06:24:20.1	93.520	-0.070	0.390	0.280
2020/01/31 06:24:20.2	93.510	-0.080	0.390	0.220
2020/01/31 06:24:20.3	93.490	-0.090	0.380	0.160
2020/01/31 06:24:20.4	93.480	-0.090	0.370	0.100
2020/01/31 06:24:20.5	93.460	-0.100	0.350	0.040
2020/01/31 06:24:20.6	93.450	-0.100	0.330	-0.020
2020/01/31 06:24:20.7	93.440	-0.100	0.300	-0.080
2020/01/31 06:24:20.8	93.430	-0.090	0.270	-0.140
2020/01/31 06:24:20.9	93.420	-0.090	0.230	-0.200
2020/01/31 06:24:21.0	93.410	-0.080	0.180	-0.260
2020/01/31 06:24:21.1	93.400	-0.070	0.140	-0.320
2020/01/31 06:24:21.2	93.400	-0.060	0.090	-0.380
2020/01/31 06:24:21.3	93.400	-0.050	0.040	-0.430
2020/01/31 06:24:21.4	93.390	-0.040	-0.020	-0.490
2020/01/31 06:24:21.5	93.390	-0.030	-0.070	-0.540
2020/01/31 06:24:21.6	93.390	-0.020	-0.130	-0.590
2020/01/31 06:24:21.7	93.390	-0.010	-0.190	-0.640
2020/01/31 06:24:21.8	93.400	0.010	-0.240	-0.690
2020/01/31 06:24:21.9	93.400	0.020	-0.300	-0.730
2020/01/31 06:24:22.0	93.410	0.030	-0.350	-0.770
2020/01/31 06:24:22.1	93.410	0.040	-0.400	-0.810
2020/01/31 06:24:22.2	93.430	0.050	-0.450	-0.840
2020/01/31 06:24:22.3	93.440	0.060	-0.490	-0.870
2020/01/31 06:24:22.4	93.450	0.060	-0.530	-0.900
2020/01/31 06:24:22.5	93.460	0.070	-0.570	-0.920
2020/01/31 06:24:22.6	93.480	0.070	-0.600	-0.940
2020/01/31 06:24:22.7	93.490	0.070	-0.620	-0.950
2020/01/31 06:24:22.8	93.510	0.070	-0.640	-0.950
2020/01/31 06:24:22.9	93.520	0.070	-0.650	-0.950
2020/01/31 06:24:23.0	93.540	0.070	-0.660	-0.940
2020/01/31 06:24:23.1	93.560	0.070	-0.660	-0.930
2020/01/31 06:24:23.2	93.590	0.060	-0.650	-0.910
2020/01/31 06:24:23.3	93.610	0.050	-0.640	-0.890
2020/01/31 06:24:23.4	93.630	0.040	-0.620	-0.860
2020/01/31 06:24:23.5	93.650	0.030	-0.600	-0.830
2020/01/31 06:24:23.6	93.670	0.020	-0.570	-0.790
2020/01/31 06:24:23.7	93.700	0.000	-0.540	-0.750
2020/01/31 06:24:23.8	93.720	-0.010	-0.510	-0.700
2020/01/31 06:24:23.9	93.750	-0.030	-0.470	-0.650
2020/01/31 06:24:24.0	93.770	-0.040	-0.430	-0.600
2020/01/31 06:24:24.1	93.790	-0.060	-0.390	-0.540
2020/01/31 06:24:24.2	93.830	-0.080	-0.340	-0.480
2020/01/31 06:24:24.3	93.850	-0.100	-0.290	-0.410
2020/01/31 06:24:24.4	93.870	-0.120	-0.250	-0.350
2020/01/31 06:24:24.5	93.900	-0.140	-0.200	-0.280
2020/01/31 06:24:24.6	93.920	-0.160	-0.150	-0.210
2020/01/31 06:24:24.7	93.940	-0.180	-0.110	-0.140
2020/01/31 06:24:24.8	93.960	-0.200	-0.070	-0.070
2020/01/31 06:24:24.9	93.970	-0.210	-0.020	0.010
2020/01/31 06:24:25.0	93.990	-0.230	0.020	0.090
2020/01/31 06:24:25.1	94.000	-0.240	0.050	0.160
2020/01/31 06:24:25.2	94.020	-0.260	0.090	0.240
2020/01/31 06:24:25.3	94.030	-0.270	0.120	0.320
2020/01/31 06:24:25.4	94.040	-0.280	0.150	0.400
2020/01/31 06:24:25.5	94.050	-0.290	0.170	0.480
2020/01/31 06:24:25.6	94.050	-0.300	0.190	0.560
2020/01/31 06:24:25.7	94.060	-0.300	0.210	0.640
2020/01/31 06:24:25.8	94.060	-0.300	0.220	0.730
2020/01/31 06:24:25.9	94.060	-0.300	0.240	0.810
2020/01/31 06:24:26.0	94.050	-0.300	0.240	0.890
2020/01/31 06:24:26.1	94.050	-0.300	0.250	0.980
2020/01/31 06:24:26.2	94.040	-0.290	0.250	1.060
2020/01/31 06:24:26.3	94.030	-0.280	0.250	1.150
2020/01/31 06:24:26.4	94.020	-0.280	0.240	1.230
2020/01/31 06:24:26.5	94.010	-0.260	0.240	1.310
2020/01/31 06:24:26.6	94.000	-0.250	0.230	1.390
2020/01/31 06:24:26.7	93.990	-0.240	0.220	1.470
2020/01/31 06:24:26.8	93.980	-0.220	0.210	1.550
2020/01/31 06:24:26.9	93.970	-0.200	0.190	1.630
2020/01/31 06:24:27.0	93.960	-0.190	0.180	1.710
2020/01/31 06:24:27.1	93.950	-0.170	0.160	1.780
2020/01/31 06:24:27.2	93.930	-0.150	0.140	1.850
2020/01/31 06:24:27.3	93.920	-0.120	0.120	1.910
2020/01/31 06:24:27.4	93.910	-0.100	0.090	1.980
2020/01/31 06:24:27.5	93.910	-0.080	0.070	2.040
2020/01/31 06:24:27.6	93.900	-0.050	0.040	2.090
2020/01/31 06:24:27.7	93.900	-0.030	0.020	2.140
2020/01/31 06:24:27.8	93.890	0.000	-0.010	2.180
2020/01/31 06:24:27.9	93.890	0.030	-0.040	2.220
2020/01/31 06:24:28.0	93.890	0.060	-0.070	2.250
2020/01/31 06:24:28.1	93.890	0.090	-0.100	2.280
2020/01/31 06:24:28.2	93.900	0.120	-0.130	2.300
2020/01/31 06:24:28.3	93.910	0.150	-0.170	2.320
2020/01/31 06:24:28.4	93.910	0.180	-0.200	2.330
2020/01/31 06:24:28.5	93.920	0.210	-0.240	2.330
2020/01/31 06:24:28.6	93.930	0.240	-0.270	2.330
2020/01/31 06:24:28.7	93.930	0.270	-0.310	2.320
2020/01/31 06:24:28.8	93.940	0.300	-0.340	2.310
2020/01/31 06:24:28.9	93.950	0.340	-0.370	2.300
2020/01/31 06:24:29.0	93.960	0.370	-0.410	2.280
2020/01/31 06:24:29.1	93.970	0.400	-0.440	2.250
2020/01/31 06:24:29.2	93.980	0.430	-0.470	2.230
2020/01/31 06:24:29.3	93.980	0.460	-0.500	2.200
2020/01/31 06:24:29.4	93.990	0.490	-0.520	2.170
2020/01/31 06:24:29.5	94.000	0.520	-0.540	2.130
2020/01/31 06:24:29.6	94.010	0.540	-0.560	2.090
2020/01/31 06:24:29.7	94.010	0.570	-0.580	2.050
2020/01/31 06:24:29.8	94.020	0.590	-0.590	2.000
2020/01/31 06:24:29.9	94.030	0.610	-0.600	1.950
2020/01/31 06:24:30.0	94.030	0.630	-0.610	1.910
2020/01/31 06:24:30.1	94.040	0.650	-0.610	1.850
2020/01/31 06:24:30.2	94.040	0.660	-0.600	1.800
2020/01/31 06:24:30.3	94.050	0.680	-0.600	1.740
2020/01/31 06:24:30.4	94.060	0.690	-0.580	1.690
2020/01/31 06:24:30.5	94.060	0.690	-0.570	1.630
2020/01/31 06:24:30.6	94.070	0.700	-0.550	1.570
2020/01/31 06:24:30.7	94.080	0.700	-0.530	1.520
2020/01/31 06:24:30.8	94.080	0.690	-0.500	1.460
2020/01/31 06:24:30.9	94.090	0.690	-0.470	1.400
2020/01/31 06:24:31.0	94.100	0.680	-0.440	1.340
2020/01/31 06:24:31.1	94.100	0.660	-0.400	1.280
2020/01/31 06:24:31.2	94.100	0.650	-0.370	1.220
2020/01/31 06:24:31.3	94.110	0.630	-0.330	1.150
2020/01/31 06:24:31.4	94.110	0.610	-0.290	1.090
2020/01/31 06:24:31.5	94.120	0.580	-0.250	1.030
2020/01/31 06:24:31.6	94.120	0.550	-0.210	0.980
2020/01/31 06:24:31.7	94.120	0.520	-0.170	0.920
2020/01/31 06:24:31.8	94.130	0.480	-0.130	0.860
2020/01/31 06:24:31.9	94.130	0.440	-0.090	0.810
2020/01/31 06:24:32.0	94.130	0.400	-0.050	0.750
2020/01/31 06:24:32.1	94.120	0.360	-0.010	0.700
2020/01/31 06:24:32.2	94.130	0.320	0.030	0.650
2020/01/31 06:24:32.3	94.120	0.270	0.060	0.600
2020/01/31 06:24:32.4	94.120	0.220	0.100	0.550
2020/01/31 06:24:32.5	94.110	0.170	0.130	0.510
2020/01/31 06:24:32.6	94.100	0.120	0.150	0.470
2020/01/31 06:24:32.7	94.090	0.070	0.180	0.430
2020/01/31 06:24:32.8	94.080	0.020	0.200	0.390
2020/01/31 06:24:32.9	94.070	-0.040	0.220	0.360
2020/01/31 06:24:33.0	94.060	-0.090	0.230	0.330
2020/01/31 06:24:33.1	94.040	-0.140	0.240	0.300
2020/01/31 06:24:33.2	94.020	-0.190	0.250	0.270
2020/01/31 06:24:33.3	94.000	-0.240	0.250	0.250
2020/01/31 06:24:33.4	93.990	-0.290	0.250	0.230
2020/01/31 06:24:33.5	93.980	-0.340	0.250	0.210
2020/01/31 06:24:33.6	93.960	-0.390	0.240	0.190
2020/01/31 06:24:33.7	93.950	-0.430	0.230	0.180
2020/01/31 06:24:33.8	93.940	-0.470	0.210	0.170
2020/01/31 06:24:33.9	93.930	-0.510	0.190	0.160
2020/01/31 06:24:34.0	93.910	-0.540	0.170	0.150
2020/01/31 06:24:34.1	93.900	-0.580	0.140	0.150
2020/01/31 06:24:34.2	93.900	-0.610	0.110	0.140
2020/01/31 06:24:34.3	93.900	-0.630	0.080	0.140
2020/01/31 06:24:34.4	93.890	-0.660	0.050	0.140
2020/01/31 06:24:34.5	93.890	-0.680	0.010	0.140
2020/01/31 06:24:34.6	93.880	-0.690	-0.020	0.150
2020/01/31 06:24:34.7	93.880	-0.710	-0.060	0.150
2020/01/31 06:24:34.8	93.880	-0.720	-0.100	0.160
2020/01/31 06:24:34.9	93.880	-0.720	-0.140	0.170
2020/01/31 06:24:35.0	93.890	-0.730	-0.180	0.170
2020/01/31 06:24:35.1	93.890	-0.730	-0.210	0.180
2020/01/31 06:24:35.2	93.900	-0.730	-0.250	0.190
2020/01/31 06:24:35.3	93.910	-0.730	-0.290	0.200
2020/01/31 06:24:35.4	93.920	-0.720	-0.320	0.200
2020/01/31 06:24:35.5	93.940	-0.710	-0.350	0.210
2020/01/31 06:24:35.6	93.950	-0.710	-0.380	0.220
2020/01/31 06:24:35.7	93.960	-0.690	-0.410	0.220
2020/01/31 06:24:35.8	93.980	-0.680	-0.430	0.230
2020/01/31 06:24:35.9	94.000	-0.670	-0.450	0.240
2020/01/31 06:24:36.0	94.020	-0.660	-0.460	0.250
2020/01/31 06:24:36.1	94.030	-0.650	-0.470	0.260
2020/01/31 06:24:36.2	94.050	-0.630	-0.480	0.270
2020/01/31 06:24:36.3	94.070	-0.620	-0.490	0.280
2020/01/31 06:24:36.4	94.090	-0.610	-0.490	0.290
2020/01/31 06:24:36.5	94.110	-0.590	-0.480	0.300
2020/01/31 06:24:36.6	94.130	-0.580	-0.480	0.320
2020/01/31 06:24:36.7	94.150	-0.570	-0.460	0.330
2020/01/31 06:24:36.8	94.170	-0.560	-0.450	0.350
2020/01/31 06:24:36.9	94.190	-0.550	-0.430	0.360
2020/01/31 06:24:37.0	94.210	-0.540	-0.410	0.380
2020/01/31 06:24:37.1	94.220	-0.530	-0.380	0.400
2020/01/31 06:24:37.2	94.240	-0.530	-0.360	0.430
2020/01/31 06:24:37.3	94.250	-0.520	-0.320	0.450
2020/01/31 06:24:37.4	94.260	-0.510	-0.290	0.480
2020/01/31 06:24:37.5	94.270	-0.510	-0.260	0.500
2020/01/31 06:24:37.6	94.280	-0.500	-0.220	0.530
2020/01/31 06:24:37.7	94.290	-0.490	-0.180	0.560
2020/01/31 06:24:37.8	94.290	-0.490	-0.140	0.590
2020/01/31 06:24:37.9	94.300	-0.480	-0.100	0.620
2020/01/31 06:24:38.0	94.300	-0.480	-0.060	0.650
2020/01/31 06:24:38.1	94.300	-0.470	-0.020	0.680
2020/01/31 06:24:38.2	94.300	-0.460	0.020	0.720
2020/01/31 06:24:38.3	94.290	-0.450	0.060	0.750
2020/01/31 06:24:38.4	94.280	-0.440	0.100	0.780
2020/01/31 06:24:38.5	94.280	-0.420	0.130	0.810
2020/01/31 06:24:38.6	94.270	-0.410	0.160	0.840
2020/01/31 06:24:38.7	94.250	-0.390	0.190	0.870
2020/01/31 06:24:38.8	94.240	-0.370	0.210	0.890
2020/01/31 06:24:38.9	94.230	-0.350	0.240	0.920
2020/01/31 06:24:39.0	94.210	-0.330	0.250	0.940
2020/01/31 06:24:39.1	94.200	-0.300	0.260	0.960
2020/01/31 06:24:39.2	94.190	-0.270	0.270	0.990
2020/01/31 06:24:39.3	94.170	-0.230	0.270	1.010
2020/01/31 06:24:39.4	94.150	-0.200	0.270	1.020
2020/01/31 06:24:39.5	94.130	-0.160	0.260	1.030
2020/01/31 06:24:39.6	94.120	-0.120	0.240	1.040
2020/01/31 06:24:39.7	94.100	-0.080	0.220	1.050
2020/01/31 06:24:39.8	94.080	-0.030	0.200	1.060
2020/01/31 06:24:39.9	94.060	0.020	0.170	1.070
2020/01/31 06:24:40.0	94.050	0.070	0.130	1.070
2020/01/31 06:24:40.1	94.030	0.120	0.090	1.070
2020/01/31 06:24:40.2	94.010	0.170	0.050	1.060
2020/01/31 06:24:40.3	93.990	0.230	0.010	1.060
2020/01/31 06:24:40.4	93.980	0.280	-0.040	1.060
2020/01/31 06:24:40.5	93.960	0.340	-0.100	1.050
2020/01/31 06:24:40.6	93.950	0.390	-0.150	1.050
2020/01/31 06:24:40.7	93.940	0.450	-0.210	1.040
2020/01/31 06:24:40.8	93.930	0.500	-0.270	1.030
2020/01/31 06:24:40.9	93.920	0.550	-0.330	1.010
2020/01/31 06:24:41.0	93.910	0.610	-0.390	1.000
2020/01/31 06:24:41.1	93.900	0.660	-0.450	0.990
2020/01/31 06:24:41.2	93.900	0.710	-0.510	0.970
2020/01/31 06:24:41.3	93.890	0.750	-0.570	0.960
2020/01/31 06:24:41.4	93.890	0.800	-0.620	0.940
2020/01/31 06:24:41.5	93.880	0.840	-0.670	0.910
2020/01/31 06:24:41.6	93.880	0.870	-0.720	0.890
2020/01/31 06:24:41.7	93.880	0.910	-0.770	0.870
2020/01/31 06:24:41.8	93.880	0.940	-0.810	0.840
2020/01/31 06:24:41.9	93.880	0.960	-0.840	0.810
2020/01/31 06:24:42.0	93.880	0.980	-0.870	0.780
2020/01/31 06:24:42.1	93.880	1.000	-0.890	0.740
2020/01/31 06:24:42.2	93.890	1.010	-0.900	0.710
2020/01/31 06:24:42.3	93.890	1.020	-0.910	0.670
2020/01/31 06:24:42.4	93.900	1.020	-0.920	0.630
2020/01/31 06:24:42.5	93.910	1.020	-0.910	0.600
2020/01/31 06:24:42.6	93.910	1.010	-0.900	0.560
2020/01/31 06:24:42.7	93.920	1.000	-0.880	0.520
2020/01/31 06:24:42.8	93.940	0.990	-0.860	0.480
2020/01/31 06:24:42.9	93.950	0.970	-0.820	0.450
2020/01/31 06:24:43.0	93.960	0.950	-0.780	0.410
2020/01/31 06:24:43.1	93.970	0.920	-0.740	0.370
2020/01/31 06:24:43.2	93.990	0.890	-0.690	0.340
2020/01/31 06:24:43.3	94.010	0.850	-0.630	0.310
2020/01/31 06:24:43.4	94.030	0.820	-0.560	0.280
2020/01/31 06:24:43.5	94.040	0.780	-0.490	0.250
2020/01/31 06:24:43.6	94.060	0.730	-0.420	0.230
2020/01/31 06:24:43.7	94.070	0.690	-0.350	0.200
2020/01/31 06:24:43.8	94.090	0.640	-0.270	0.180
2020/01/31 06:24:43.9	94.100	0.590	-0.190	0.170
2020/01/31 06:24:44.0	94.120	0.540	-0.110	0.160
2020/01/31 06:24:44.1	94.130	0.490	-0.030	0.150
2020/01/31 06:24:44.2	94.140	0.440	0.050	0.140
2020/01/31 06:24:44.3	94.150	0.390	0.130	0.140
2020/01/31 06:24:44.4	94.160	0.330	0.210	0.150
2020/01/31 06:24:44.5	94.160	0.280	0.280	0.160
2020/01/31 06:24:44.6	94.170	0.230	0.350	0.170
2020/01/31 06:24:44.7	94.170	0.180	0.420	0.190
2020/01/31 06:24:44.8	94.170	0.130	0.480	0.210
2020/01/31 06:24:44.9	94.170	0.090	0.530	0.230
2020/01/31 06:24:45.0	94.170	0.040	0.580	0.260
2020/01/31 06:24:45.1	94.170	-0.000	0.630	0.300
2020/01/31 06:24:45.2	94.170	-0.040	0.670	0.340
2020/01/31 06:24:45.3	94.160	-0.080	0.690	0.370
2020/01/31 06:24:45.4	94.150	-0.120	0.720	0.420
2020/01/31 06:24:45.5	94.150	-0.160	0.730	0.460
2020/01/31 06:24:45.6	94.140	-0.190	0.740	0.500
2020/01/31 06:24:45.7	94.130	-0.220	0.730	0.550
2020/01/31 06:24:45.8	94.120	-0.250	0.730	0.600
2020/01/31 06:24:45.9	94.100	-0.270	0.710	0.650
2020/01/31 06:24:46.0	94.090	-0.300	0.690	0.710
2020/01/31 06:24:46.1	94.080	-0.320	0.660	0.760
2020/01/31 06:24:46.2	94.070	-0.340	0.620	0.820
2020/01/31 06:24:46.3	94.050	-0.350	0.580	0.870
2020/01/31 06:24:46.4	94.040	-0.370	0.530	0.930
2020/01/31 06:24:46.5	94.020	-0.380	0.480	0.980
2020/01/31 06:24:46.6	94.000	-0.390	0.430	1.040
2020/01/31 06:24:46.7	93.980	-0.410	0.370	1.090
2020/01/31 06:24:46.8	93.960	-0.410	0.310	1.140
2020/01/31 06:24:46.9	93.940	-0.420	0.250	1.190
2020/01/31 06:24:47.0	93.930	-0.430	0.190	1.240
2020/01/31 06:24:47.1	93.910	-0.430	0.120	1.290
2020/01/31 06:24:47.2	93.890	-0.440	0.060	1.330
2020/01/31 06:24:47.3	93.870	-0.440	-0.000	1.380
2020/01/31 06:24:47.4	93.860	-0.440	-0.060	1.420
2020/01/31 06:24:47.5	93.840	-0.450	-0.130	1.450
2020/01/31 06:24:47.6	93.830	-0.450	-0.190	1.490
2020/01/31 06:24:47.7	93.820	-0.440	-0.250	1.520
2020/01/31 06:24:47.8	93.800	-0.440	-0.310	1.550
2020/01/31 06:24:47.9	93.800	-0.440	-0.360	1.580
2020/01/31 06:24:48.0	93.790	-0.440	-0.410	1.600
2020/01/31 06:24:48.1	93.780	-0.430	-0.460	1.630
2020/01/31 06:24:48.2	93.770	-0.420	-0.510	1.640
2020/01/31 06:24:48.3	93.770	-0.420	-0.550	1.660
2020/01/31 06:24:48.4	93.770	-0.410	-0.590	1.680
2020/01/31 06:24:48.5	93.780	-0.400	-0.620	1.690
2020/01/31 06:24:48.6	93.780	-0.390	-0.660	1.700
2020/01/31 06:24:48.7	93.790	-0.380	-0.690	1.710
2020/01/31 06:24:48.8	93.790	-0.360	-0.710	1.720
2020/01/31 06:24:48.9	93.800	-0.350	-0.740	1.730
2020/01/31 06:24:49.0	93.820	-0.330	-0.750	1.730
2020/01/31 06:24:49.1	93.830	-0.320	-0.770	1.730
2020/01/31 06:24:49.2	93.840	-0.300	-0.780	1.730
2020/01/31 06:24:49.3	93.850	-0.280	-0.790	1.730
2020/01/31 06:24:49.4	93.870	-0.260	-0.800	1.720
2020/01/31 06:24:49.5	93.890	-0.250	-0.800	1.710
2020/01/31 06:24:49.6	93.920	-0.230	-0.800	1.700
2020/01/31 06:24:49.7	93.940	-0.210	-0.800	1.690
2020/01/31 06:24:49.8	93.970	-0.190	-0.800	1.670
2020/01/31 06:24:49.9	93.990	-0.170	-0.790	1.650
2020/01/31 06:24:50.0	94.020	-0.150	-0.780	1.630
2020/01/31 06:24:50.1	94.050	-0.130	-0.760	1.610
2020/01/31 06:24:50.2	94.080	-0.110	-0.740	1.580
2020/01/31 06:24:50.3	94.110	-0.100	-0.720	1.560
2020/01/31 06:24:50.4	94.150	-0.080	-0.690	1.530
2020/01/31 06:24:50.5	94.180	-0.070	-0.660	1.500
2020/01/31 06:24:50.6	94.210	-0.060	-0.630	1.460
2020/01/31 06:24:50.7	94.240	-0.050	-0.590	1.430
2020/01/31 06:24:50.8	94.270	-0.040	-0.560	1.400
2020/01/31 06:24:50.9	94.290	-0.030	-0.510	1.360
2020/01/31 06:24:51.0	94.320	-0.030	-0.470	1.330
2020/01/31 06:24:51.1	94.340	-0.030	-0.420	1.300
2020/01/31 06:24:51.2	94.360	-0.030	-0.360	1.270
2020/01/31 06:24:51.3	94.380	-0.030	-0.310	1.240
2020/01/31 06:24:51.4	94.390	-0.040	-0.250	1.210
2020/01/31 06:24:51.5	94.400	-0.050	-0.190	1.180
2020/01/31 06:24:51.6	94.410	-0.060	-0.130	1.150
2020/01/31 06:24:51.7	94.410	-0.080	-0.060	1.120
2020/01/31 06:24:51.8	94.410	-0.090	0.000	1.090
2020/01/31 06:24:51.9	94.410	-0.110	0.070	1.060
2020/01/31 06:24:52.0	94.400	-0.130	0.130	1.040
2020/01/31 06:24:52.1	94.400	-0.160	0.200	1.010
2020/01/31 06:24:52.2	94.380	-0.180	0.270	0.990
2020/01/31 06:24:52.3	94.360	-0.210	0.330	0.960
2020/01/31 06:24:52.4	94.340	-0.230	0.390	0.940
2020/01/31 06:24:52.5	94.320	-0.260	0.450	0.920
2020/01/31 06:24:52.6	94.290	-0.290	0.510	0.900
2020/01/31 06:24:52.7	94.260	-0.320	0.560	0.880
2020/01/31 06:24:52.8	94.220	-0.340	0.610	0.860
2020/01/31 06:24:52.9	94.190	-0.370	0.650	0.850
2020/01/31 06:24:53.0	94.150	-0.390	0.690	0.830
2020/01/31 06:24:53.1	94.110	-0.410	0.720	0.810
2020/01/31 06:24:53.2	94.070	-0.430	0.740	0.800
2020/01/31 06:24:53.3	94.020	-0.450	0.760	0.780
2020/01/31 06:24:53.4	93.980	-0.470	0.760	0.760
2020/01/31 06:24:53.5	93.930	-0.480	0.770	0.750
2020/01/31 06:24:53.6	93.880	-0.490	0.760	0.730
2020/01/31 06:24:53.7	93.830	-0.490	0.740	0.710
2020/01/31 06:24:53.8	93.780	-0.490	0.720	0.690
2020/01/31 06:24:53.9	93.720	-0.490	0.680	0.670
2020/01/31 06:24:54.0	93.670	-0.490	0.640	0.650
2020/01/31 06:24:54.1	93.630	-0.470	0.590	0.630
2020/01/31 06:24:54.2	93.580	-0.460	0.540	0.610
2020/01/31 06:24:54.3	93.540	-0.440	0.480	0.580
2020/01/31 06:24:54.4	93.490	-0.420	0.410	0.560
2020/01/31 06:24:54.5	93.450	-0.390	0.330	0.530
2020/01/31 06:24:54.6	93.410	-0.360	0.250	0.500
2020/01/31 06:24:54.7	93.370	-0.320	0.160	0.470
2020/01/31 06:24:54.8	93.340	-0.280	0.070	0.440
2020/01/31 06:24:54.9	93.300	-0.240	-0.020	0.410
2020/01/31 06:24:55.0	93.270	-0.190	-0.120	0.370
2020/01/31 06:24:55.1	93.250	-0.140	-0.220	0.330
2020/01/31 06:24:55.2	93.210	-0.090	-0.320	0.290
2020/01/31 06:24:55.3	93.190	-0.030	-0.420	0.250
2020/01/31 06:24:55.4	93.170	0.020	-0.520	0.210
2020/01/31 06:24:55.5	93.160	0.080	-0.610	0.160
2020/01/31 06:24:55.6	93.140	0.140	-0.710	0.120
2020/01/31 06:24:55.7	93.130	0.200	-0.800	0.070
2020/01/31 06:24:55.8	93.130	0.260	-0.880	0.020
2020/01/31 06:24:55.9	93.120	0.320	-0.960	-0.030
2020/01/31 06:24:56.0	93.120	0.380	-1.040	-0.080
2020/01/31 06:24:56.1	93.120	0.440	-1.110	-0.140
2020/01/31 06:24:56.2	93.120	0.490	-1.170	-0.200
2020/01/31 06:24:56.3	93.130	0.550	-1.230	-0.250
2020/01/31 06:24:56.4	93.140	0.600	-1.280	-0.310
2020/01/31 06:24:56.5	93.150	0.650	-1.320	-0.370
2020/01/31 06:24:56.6	93.160	0.700	-1.350	-0.430
2020/01/31 06:24:56.7	93.180	0.740	-1.380	-0.490
2020/01/31 06:24:56.8	93.200	0.780	-1.400	-0.550
2020/01/31 06:24:56.9	93.220	0.820	-1.410	-0.610
2020/01/31 06:24:57.0	93.240	0.850	-1.410	-0.670
2020/01/31 06:24:57.1	93.260	0.880	-1.400	-0.720
2020/01/31 06:24:57.2	93.290	0.900	-1.380	-0.770
2020/01/31 06:24:57.3	93.310	0.920	-1.360	-0.820
2020/01/31 06:24:57.4	93.330	0.940	-1.330	-0.870
2020/01/31 06:24:57.5	93.360	0.950	-1.290	-0.920
2020/01/31 06:24:57.6	93.380	0.960	-1.240	-0.950
2020/01/31 06:24:57.7	93.400	0.960	-1.190	-0.990
2020/01/31 06:24:57.8	93.420	0.960	-1.130	-1.020
2020/01/31 06:24:57.9	93.450	0.950	-1.060	-1.040
2020/01/31 06:24:58.0	93.470	0.940	-0.990	-1.060
2020/01/31 06:24:58.1	93.480	0.930	-0.910	-1.070
2020/01/31 06:24:58.2	93.510	0.910	-0.830	-1.070
2020/01/31 06:24:58.3	93.520	0.890	-0.750	-1.070
2020/01/31 06:24:58.4	93.540	0.870	-0.660	-1.060
2020/01/31 06:24:58.5	93.550	0.840	-0.570	-1.040
2020/01/31 06:24:58.6	93.560	0.820	-0.480	-1.010
2020/01/31 06:24:58.7	93.570	0.790	-0.380	-0.980
2020/01/31 06:24:58.8	93.580	0.750	-0.290	-0.940
2020/01/31 06:24:58.9	93.590	0.720	-0.190	-0.890
2020/01/31 06:24:59.0	93.600	0.680	-0.100	-0.840
2020/01/31 06:24:59.1	93.600	0.640	-0.000	-0.770
2020/01/31 06:24:59.2	93.620	0.600	0.090	-0.700
2020/01/31 06:24:59.3	93.620	0.560	0.180	-0.620
2020/01/31 06:24:59.4	93.620	0.520	0.270	-0.530
2020/01/31 06:24:59.5	93.620	0.480	0.360	-0.440
2020/01/31 06:24:59.6	93.610	0.430	0.450	-0.350
2020/01/31 06:24:59.7	93.610	0.390	0.540	-0.250
2020/01/31 06:24:59.8	93.600	0.340	0.620	-0.140
2020/01/31 06:24:59.9	93.590	0.290	0.700	-0.030
2020/01/31 06:25:00.0	93.580	0.250	0.780	0.080
2020/01/31 06:25:00.1	93.570	0.200	0.850	0.200
2020/01/31 06:25:00.2	93.570	0.150	0.910	0.330
2020/01/31 06:25:00.3	93.560	0.100	0.970	0.450
2020/01/31 06:25:00.4	93.540	0.050	1.030	0.580
2020/01/31 06:25:00.5	93.530	0.000	1.080	0.710
2020/01/31 06:25:00.6	93.520	-0.050	1.130	0.840
2020/01/31 06:25:00.7	93.510	-0.090	1.160	0.970
2020/01/31 06:25:00.8	93.500	-0.140	1.200	1.100
2020/01/31 06:25:00.9	93.490	-0.190	1.220	1.230
2020/01/31 06:25:01.0	93.470	-0.240	1.240	1.350
2020/01/31 06:25:01.1	93.460	-0.290	1.240	1.480
2020/01/31 06:25:01.2	93.450	-0.330	1.250	1.610
2020/01/31 06:25:01.3	93.440	-0.380	1.240	1.730
2020/01/31 06:25:01.4	93.430	-0.420	1.220	1.850
2020/01/31 06:25:01.5	93.420	-0.470	1.200	1.970
2020/01/31 06:25:01.6	93.420	-0.510	1.160	2.090
2020/01/31 06:25:01.7	93.410	-0.550	1.120	2.200
2020/01/31 06:25:01.8	93.400	-0.580	1.070	2.310
2020/01/31 06:25:01.9	93.390	-0.620	1.020	2.410
2020/01/31 06:25:02.0	93.380	-0.650	0.950	2.520
2020/01/31 06:25:02.1	93.380	-0.680	0.880	2.610
2020/01/31 06:25:02.2	93.370	-0.700	0.800	2.710
2020/01/31 06:25:02.3	93.360	-0.720	0.710	2.800
2020/01/31 06:25:02.4	93.340	-0.740	0.620	2.890
2020/01/31 06:25:02.5	93.330	-0.760	0.520	2.970
2020/01/31 06:25:02.6	93.320	-0.770	0.420	3.050
2020/01/31 06:25:02.7	93.310	-0.780	0.320	3.130
2020/01/31 06:25:02.8	93.290	-0.780	0.210	3.200
2020/01/31 06:25:02.9	93.280	-0.780	0.090	3.270
2020/01/31 06:25:03.0	93.260	-0.780	-0.020	3.330
2020/01/31 06:25:03.1	93.240	-0.770	-0.130	3.390
2020/01/31 06:25:03.2	93.210	-0.760	-0.250	3.440
2020/01/31 06:25:03.3	93.190	-0.740	-0.360	3.500
2020/01/31 06:25:03.4	93.170	-0.730	-0.470	3.540
2020/01/31 06:25:03.5	93.150	-0.700	-0.580	3.590
2020/01/31 06:25:03.6	93.130	-0.680	-0.690	3.620
2020/01/31 06:25:03.7	93.110	-0.650	-0.780	3.650
2020/01/31 06:25:03.8	93.100	-0.620	-0.880	3.680
2020/01/31 06:25:03.9	93.080	-0.590	-0.960	3.700
2020/01/31 06:25:04.0	93.060	-0.560	-1.040	3.710
2020/01/31 06:25:04.1	93.050	-0.520	-1.110	3.720
2020/01/31 06:25:04.2	93.020	-0.490	-1.180	3.720
2020/01/31 06:25:04.3	93.010	-0.450	-1.230	3.710
2020/01/31 06:25:04.4	93.000	-0.410	-1.270	3.700
2020/01/31 06:25:04.5	92.990	-0.370	-1.310	3.680
2020/01/31 06:25:04.6	92.980	-0.330	-1.340	3.650
2020/01/31 06:25:04.7	92.980	-0.290	-1.350	3.620
2020/01/31 06:25:04.8	92.970	-0.250	-1.360	3.570
2020/01/31 06:25:04.9	92.970	-0.220	-1.360	3.530
2020/01/31 06:25:05.0	92.970	-0.180	-1.350	3.470
2020/01/31 06:25:05.1	92.970	-0.140	-1.340	3.410
2020/01/31 06:25:05.2	92.960	-0.110	-1.310	3.340
2020/01/31 06:25:05.3	92.960	-0.070	-1.280	3.270
2020/01/31 06:25:05.4	92.970	-0.040	-1.240	3.200
2020/01/31 06:25:05.5	92.970	-0.010	-1.200	3.120
2020/01/31 06:25:05.6	92.970	0.020	-1.150	3.030
2020/01/31 06:25:05.7	92.980	0.050	-1.100	2.940
2020/01/31 06:25:05.8	92.980	0.080	-1.040	2.850
2020/01/31 06:25:05.9	92.990	0.100	-0.980	2.750
2020/01/31 06:25:06.0	92.990	0.130	-0.920	2.650
2020/01/31 06:25:06.1	93.000	0.150	-0.860	2.550
2020/01/31 06:25:06.2	93.010	0.170	-0.790	2.450
2020/01/31 06:25:06.3	93.010	0.190	-0.720	2.340
2020/01/31 06:25:06.4	93.020	0.210	-0.660	2.230
2020/01/31 06:25:06.5	93.020	0.220	-0.590	2.120
2020/01/31 06:25:06.6	93.020	0.240	-0.530	2.010
2020/01/31 06:25:06.7	93.020	0.250	-0.470	1.900
2020/01/31 06:25:06.8	93.020	0.260	-0.410	1.790
2020/01/31 06:25:06.9	93.020	0.270	-0.360	1.670
2020/01/31 06:25:07.0	93.010	0.290	-0.300	1.560
2020/01/31 06:25:07.1	93.010	0.300	-0.260	1.450
2020/01/31 06:25:07.2	93.020	0.310	-0.210	1.340
2020/01/31 06:25:07.3	93.010	0.320	-0.170	1.230
2020/01/31 06:25:07.4	93.000	0.330	-0.140	1.120
2020/01/31 06:25:07.5	92.980	0.340	-0.100	1.020
2020/01/31 06:25:07.6	92.970	0.340	-0.080	0.910
2020/01/31 06:25:07.7	92.950	0.350	-0.050	0.810
2020/01/31 06:25:07.8	92.930	0.360	-0.040	0.710
2020/01/31 06:25:07.9	92.920	0.370	-0.020	0.610
2020/01/31 06:25:08.0	92.900	0.380	-0.010	0.510
2020/01/31 06:25:08.1	92.880	0.390	-0.000	0.410
2020/01/31 06:25:08.2	92.860	0.400	-0.000	0.310
2020/01/31 06:25:08.3	92.840	0.410	0.000	0.220
2020/01/31 06:25:08.4	92.820	0.420	0.000	0.120
2020/01/31 06:25:08.5	92.790	0.430	-0.000	0.030
2020/01/31 06:25:08.6	92.770	0.430	-0.000	-0.060
2020/01/31 06:25:08.7	92.750	0.440	-0.010	-0.160
2020/01/31 06:25:08.8	92.720	0.440	-0.010	-0.250
2020/01/31 06:25:08.9	92.700	0.450	-0.020	-0.340
2020/01/31 06:25:09.0	92.680	0.450	-0.020	-0.420
2020/01/31 06:25:09.1	92.660	0.450	-0.030	-0.510
2020/01/31 06:25:09.2	92.650	0.450	-0.030	-0.600
2020/01/31 06:25:09.3	92.630	0.450	-0.030	-0.680
2020/01/31 06:25:09.4	92.620	0.450	-0.040	-0.770
2020/01/31 06:25:09.5	92.600	0.440	-0.040	-0.850
2020/01/31 06:25:09.6	92.590	0.430	-0.030	-0.930
2020/01/31 06:25:09.7	92.570	0.420	-0.030	-1.010
2020/01/31 06:25:09.8	92.560	0.410	-0.030	-1.080
2020/01/31 06:25:09.9	92.560	0.400	-0.020	-1.150
2020/01/31 06:25:10.0	92.550	0.380	-0.010	-1.220
2020/01/31 06:25:10.1	92.540	0.360	-0.000	-1.290
2020/01/31 06:25:10.2	92.560	0.340	0.010	-1.350
2020/01/31 06:25:10.3	92.560	0.310	0.030	-1.410
2020/01/31 06:25:10.4	92.560	0.280	0.040	-1.460
2020/01/31 06:25:10.5	92.560	0.250	0.060	-1.510
2020/01/31 06:25:10.6	92.570	0.220	0.080	-1.560
2020/01/31 06:25:10.7	92.570	0.190	0.100	-1.600
2020/01/31 06:25:10.8	92.580	0.150	0.120	-1.630
2020/01/31 06:25:10.9	92.590	0.120	0.130	-1.660
2020/01/31 06:25:11.0	92.600	0.080	0.150	-1.690
2020/01/31 06:25:11.1	92.610	0.040	0.170	-1.700
2020/01/31 06:25:11.2	92.630	-0.000	0.190	-1.720
2020/01/31 06:25:11.3	92.640	-0.040	0.210	-1.720
2020/01/31 06:25:11.4	92.650	-0.080	0.230	-1.720
2020/01/31 06:25:11.5	92.660	-0.130	0.250	-1.710
2020/01/31 06:25:11.6	92.670	-0.170	0.270	-1.700
2020/01/31 06:25:11.7	92.680	-0.210	0.280	-1.680
2020/01/31 06:25:11.8	92.690	-0.250	0.300	-1.660
2020/01/31 06:25:11.9	92.700	-0.290	0.310	-1.620
2020/01/31 06:25:12.0	92.710	-0.330	0.320	-1.590
2020/01/31 06:25:12.1	92.720	-0.370	0.330	-1.540
2020/01/31 06:25:12.2	92.720	-0.410	0.340	-1.490
2020/01/31 06:25:12.3	92.730	-0.440	0.350	-1.440
2020/01/31 06:25:12.4	92.740	-0.480	0.360	-1.380
2020/01/31 06:25:12.5	92.740	-0.510	0.360	-1.310
2020/01/31 06:25:12.6	92.750	-0.540	0.370	-1.240
2020/01/31 06:25:12.7	92.750	-0.560	0.370	-1.170
2020/01/31 06:25:12.8	92.750	-0.590	0.370	-1.090
2020/01/31 06:25:12.9	92.760	-0.610	0.370	-1.010
2020/01/31 06:25:13.0	92.760	-0.630	0.360	-0.920
2020/01/31 06:25:13.1	92.770	-0.640	0.350	-0.840
2020/01/31 06:25:13.2	92.780	-0.650	0.340	-0.740
2020/01/31 06:25:13.3	92.790	-0.660	0.330	-0.650
2020/01/31 06:25:13.4	92.790	-0.660	0.320	-0.550
2020/01/31 06:25:13.5	92.800	-0.660	0.300	-0.450
2020/01/31 06:25:13.6	92.800	-0.650	0.280	-0.350
2020/01/31 06:25:13.7	92.810	-0.650	0.250	-0.250
2020/01/31 06:25:13.8	92.820	-0.630	0.230	-0.150
2020/01/31 06:25:13.9	92.830	-0.620	0.200	-0.050
2020/01/31 06:25:14.0	92.840	-0.590	0.160	0.060
2020/01/31 06:25:14.1	92.850	-0.570	0.120	0.170
2020/01/31 06:25:14.2	92.860	-0.540	0.080	0.280
2020/01/31 06:25:14.3	92.870	-0.510	0.040	0.390
2020/01/31 06:25:14.4	92.880	-0.480	-0.010	0.500
2020/01/31 06:25:14.5	92.890	-0.440	-0.060	0.610
2020/01/31 06:25:14.6	92.890	-0.400	-0.110	0.720
2020/01/31 06:25:14.7	92.900	-0.350	-0.170	0.840
2020/01/31 06:25:14.8	92.910	-0.310	-0.230	0.950
2020/01/31 06:25:14.9	92.920	-0.260	-0.280	1.070
2020/01/31 06:25:15.0	92.920	-0.210	-0.340	1.190
2020/01/31 06:25:15.1	92.920	-0.160	-0.400	1.310
2020/01/31 06:25:15.2	92.930	-0.110	-0.470	1.430
2020/01/31 06:25:15.3	92.930	-0.060	-0.530	1.550
2020/01/31 06:25:15.4	92.930	-0.010	-0.590	1.670
2020/01/31 06:25:15.5	92.930	0.040	-0.650	1.790
2020/01/31 06:25:15.6	92.920	0.090	-0.710	1.910
2020/01/31 06:25:15.7	92.920	0.130	-0.760	2.030
2020/01/31 06:25:15.8	92.910	0.180	-0.820	2.150
2020/01/31 06:25:15.9	92.910	0.220	-0.870	2.260
2020/01/31 06:25:16.0	92.900	0.270	-0.920	2.370
2020/01/31 06:25:16.1	92.890	0.300	-0.960	2.480
2020/01/31 06:25:16.2	92.880	0.340	-1.000	2.580
2020/01/31 06:25:16.3	92.870	0.370	-1.030	2.680
2020/01/31 06:25:16.4	92.860	0.400	-1.060	2.770
2020/01/31 06:25:16.5	92.850	0.430	-1.090	2.860
2020/01/31 06:25:16.6	92.840	0.450	-1.100	2.940
2020/01/31 06:25:16.7	92.830	0.470	-1.110	3.010
2020/01/31 06:25:16.8	92.820	0.490	-1.120	3.080
2020/01/31 06:25:16.9	92.810	0.500	-1.110	3.130
2020/01/31 06:25:17.0	92.800	0.510	-1.100	3.180
2020/01/31 06:25:17.1	92.790	0.520	-1.090	3.230
2020/01/31 06:25:17.2	92.770	0.520	-1.060	3.260
2020/01/31 06:25:17.3	92.760	0.520	-1.030	3.280
2020/01/31 06:25:17.4	92.750	0.520	-0.990	3.300
2020/01/31 06:25:17.5	92.750	0.510	-0.940	3.310
2020/01/31 06:25:17.6	92.740	0.510	-0.890	3.310
2020/01/31 06:25:17.7	92.740	0.500	-0.820	3.300
2020/01/31 06:25:17.8	92.740	0.490	-0.760	3.290
2020/01/31 06:25:17.9	92.730	0.470	-0.680	3.270
2020/01/31 06:25:18.0	92.730	0.460	-0.610	3.250
2020/01/31 06:25:18.1	92.730	0.440	-0.520	3.210
2020/01/31 06:25:18.2	92.720	0.420	-0.430	3.180
2020/01/31 06:25:18.3	92.720	0.410	-0.340	3.140
2020/01/31 06:25:18.4	92.710	0.390	-0.250	3.090
2020/01/31 06:25:18.5	92.710	0.370	-0.160	3.040
2020/01/31 06:25:18.6	92.710	0.350	-0.070	2.980
2020/01/31 06:25:18.7	92.700	0.330	0.030	2.930
2020/01/31 06:25:18.8	92.700	0.310	0.120	2.870
2020/01/31 06:25:18.9	92.690	0.300	0.210	2.800
2020/01/31 06:25:19.0	92.680	0.280	0.290	2.730
2020/01/31 06:25:19.1	92.670	0.260	0.370	2.660
2020/01/31 06:25:19.2	92.670	0.250	0.440	2.590
2020/01/31 06:25:19.3	92.660	0.230	0.510	2.510
2020/01/31 06:25:19.4	92.650	0.220	0.570	2.430
2020/01/31 06:25:19.5	92.640	0.210	0.620	2.350
2020/01/31 06:25:19.6	92.630	0.200	0.660	2.270
2020/01/31 06:25:19.7	92.610	0.190	0.690	2.180
2020/01/31 06:25:19.8	92.600	0.180	0.710	2.090
2020/01/31 06:25:19.9	92.590	0.180	0.730	2.000
2020/01/31 06:25:20.0	92.580	0.170	0.730	1.900
2020/01/31 06:25:20.1	92.580	0.170	0.720	1.800
2020/01/31 06:25:20.2	92.580	0.160	0.710	1.690
2020/01/31 06:25:20.3	92.570	0.160	0.680	1.590
2020/01/31 06:25:20.4	92.570	0.160	0.650	1.480
2020/01/31 06:25:20.5	92.570	0.160	0.600	1.360
2020/01/31 06:25:20.6	92.570	0.160	0.550	1.250
2020/01/31 06:25:20.7	92.570	0.160	0.500	1.130
2020/01/31 06:25:20.8	92.570	0.160	0.430	1.000
2020/01/31 06:25:20.9	92.580	0.150	0.370	0.880
2020/01/31 06:25:21.0	92.590	0.150	0.290	0.750
2020/01/31 06:25:21.1	92.600	0.150	0.220	0.630
2020/01/31 06:25:21.2	92.620	0.150	0.140	0.500
2020/01/31 06:25:21.3	92.630	0.140	0.070	0.380
2020/01/31 06:25:21.4	92.640	0.130	-0.010	0.250
2020/01/31 06:25:21.5	92.660	0.130	-0.090	0.130
2020/01/31 06:25:21.6	92.670	0.120	-0.170	0.020
2020/01/31 06:25:21.7	92.680	0.110	-0.240	-0.090
2020/01/31 06:25:21.8	92.690	0.090	-0.310	-0.200
2020/01/31 06:25:21.9	92.700	0.080	-0.380	-0.310
2020/01/31 06:25:22.0	92.710	0.060	-0.440	-0.400
2020/01/31 06:25:22.1	92.710	0.040	-0.490	-0.490
2020/01/31 06:25:22.2	92.720	0.020	-0.540	-0.580
2020/01/31 06:25:22.3	92.730	0.000	-0.580	-0.660
2020/01/31 06:25:22.4	92.730	-0.020	-0.620	-0.730
2020/01/31 06:25:22.5	92.730	-0.050	-0.640	-0.800
2020/01/31 06:25:22.6	92.720	-0.080	-0.660	-0.850
2020/01/31 06:25:22.7	92.720	-0.100	-0.680	-0.900
2020/01/31 06:25:22.8	92.710	-0.130	-0.680	-0.940
2020/01/31 06:25:22.9	92.700	-0.160	-0.680	-0.980
2020/01/31 06:25:23.0	92.690	-0.190	-0.670	-1.010
2020/01/31 06:25:23.1	92.680	-0.230	-0.650	-1.030
2020/01/31 06:25:23.2	92.670	-0.260	-0.620	-1.040
2020/01/31 06:25:23.3	92.650	-0.290	-0.590	-1.050
2020/01/31 06:25:23.4	92.640	-0.320	-0.560	-1.050
2020/01/31 06:25:23.5	92.620	-0.360	-0.520	-1.050
2020/01/31 06:25:23.6	92.600	-0.390	-0.470	-1.040
2020/01/31 06:25:23.7	92.590	-0.420	-0.420	-1.030
2020/01/31 06:25:23.8	92.570	-0.450	-0.370	-1.010
2020/01/31 06:25:23.9	92.550	-0.480	-0.320	-0.990
2020/01/31 06:25:24.0	92.530	-0.510	-0.260	-0.970
2020/01/31 06:25:24.1	92.510	-0.540	-0.210	-0.940
2020/01/31 06:25:24.2	92.500	-0.560	-0.150	-0.910
2020/01/31 06:25:24.3	92.480	-0.590	-0.100	-0.880
2020/01/31 06:25:24.4	92.460	-0.610	-0.040	-0.840
2020/01/31 06:25:24.5	92.440	-0.630	0.010	-0.800
2020/01/31 06:25:24.6	92.420	-0.640	0.060	-0.760
2020/01/31 06:25:24.7	92.400	-0.660	0.100	-0.720
2020/01/31 06:25:24.8	92.380	-0.670	0.150	-0.680
2020/01/31 06:25:24.9	92.360	-0.680	0.180	-0.640
2020/01/31 06:25:25.0	92.350	-0.680	0.220	-0.600
2020/01/31 06:25:25.1	92.330	-0.690	0.240	-0.550
2020/01/31 06:25:25.2	92.320	-0.690	0.260	-0.510
2020/01/31 06:25:25.3	92.310	-0.680	0.280	-0.460
2020/01/31 06:25:25.4	92.300	-0.680	0.290	-0.420
2020/01/31 06:25:25.5	92.290	-0.670	0.290	-0.380
2020/01/31 06:25:25.6	92.290	-0.660	0.290	-0.340
2020/01/31 06:25:25.7	92.280	-0.640	0.270	-0.300
2020/01/31 06:25:25.8	92.280	-0.620	0.260	-0.260
2020/01/31 06:25:25.9	92.280	-0.600	0.230	-0.220
2020/01/31 06:25:26.0	92.280	-0.580	0.200	-0.180
2020/01/31 06:25:26.1	92.290	-0.550	0.160	-0.140
2020/01/31 06:25:26.2	92.290	-0.520	0.120	-0.100
2020/01/31 06:25:26.3	92.300	-0.490	0.070	-0.060
2020/01/31 06:25:26.4	92.310	-0.450	0.020	-0.030
2020/01/31 06:25:26.5	92.320	-0.410	-0.040	0.010
2020/01/31 06:25:26.6	92.340	-0.370	-0.100	0.050
2020/01/31 06:25:26.7	92.360	-0.330	-0.170	0.090
2020/01/31 06:25:26.8	92.380	-0.290	-0.230	0.120
2020/01/31 06:25:26.9	92.400	-0.240	-0.300	0.160
2020/01/31 06:25:27.0	92.420	-0.190	-0.370	0.200
2020/01/31 06:25:27.1	92.440	-0.150	-0.440	0.240
2020/01/31 06:25:27.2	92.470	-0.100	-0.500	0.280
2020/01/31 06:25:27.3	92.500	-0.050	-0.570	0.320
2020/01/31 06:25:27.4	92.520	0.000	-0.630	0.360
2020/01/31 06:25:27.5	92.550	0.050	-0.690	0.400
2020/01/31 06:25:27.6	92.570	0.100	-0.740	0.440
2020/01/31 06:25:27.7	92.600	0.150	-0.790	0.490
2020/01/31 06:25:27.8	92.620	0.200	-0.830	0.530
2020/01/31 06:25:27.9	92.650	0.250	-0.870	0.570
2020/01/31 06:25:28.0	92.670	0.290	-0.900	0.620
2020/01/31 06:25:28.1	92.690	0.330	-0.920	0.660
2020/01/31 06:25:28.2	92.710	0.380	-0.930	0.710
2020/01/31 06:25:28.3	92.730	0.410	-0.930	0.750
2020/01/31 06:25:28.4	92.750	0.450	-0.930	0.790
2020/01/31 06:25:28.5	92.760	0.480	-0.910	0.840
2020/01/31 06:25:28.6	92.770	0.510	-0.890	0.880
2020/01/31 06:25:28.7	92.780	0.530	-0.850	0.920
2020/01/31 06:25:28.8	92.780	0.550	-0.810	0.960
2020/01/31 06:25:28.9	92.790	0.570	-0.760	1.000
2020/01/31 06:25:29.0	92.790	0.580	-0.700	1.040
2020/01/31 06:25:29.1	92.780	0.590	-0.630	1.080
2020/01/31 06:25:29.2	92.780	0.590	-0.550	1.120
2020/01/31 06:25:29.3	92.770	0.590	-0.470	1.150
2020/01/31 06:25:29.4	92.760	0.580	-0.380	1.190
2020/01/31 06:25:29.5	92.750	0.570	-0.290	1.220
2020/01/31 06:25:29.6	92.740	0.560	-0.190	1.250
2020/01/31 06:25:29.7	92.720	0.540	-0.090	1.290
2020/01/31 06:25:29.8	92.710	0.520	0.010	1.320
2020/01/31 06:25:29.9	92.690	0.500	0.120	1.340
2020/01/31 06:25:30.0	92.670	0.470	0.220	1.370
2020/01/31 06:25:30.1	92.660	0.440	0.320	1.400
2020/01/31 06:25:30.2	92.620	0.410	0.420	1.430
2020/01/31 06:25:30.3	92.610	0.380	0.520	1.450
2020/01/31 06:25:30.4	92.590	0.340	0.610	1.470
2020/01/31 06:25:30.5	92.570	0.300	0.700	1.490
2020/01/31 06:25:30.6	92.550	0.270	0.780	1.510
2020/01/31 06:25:30.7	92.530	0.230	0.850	1.530
2020/01/31 06:25:30.8	92.520	0.190	0.910	1.540
2020/01/31 06:25:30.9	92.500	0.150	0.960	1.560
2020/01/31 06:25:31.0	92.480	0.120	1.010	1.570
2020/01/31 06:25:31.1	92.470	0.080	1.040	1.580
2020/01/31 06:25:31.2	92.440	0.050	1.060	1.600
2020/01/31 06:25:31.3	92.430	0.020	1.070	1.610
2020/01/31 06:25:31.4	92.410	-0.010	1.070	1.620
2020/01/31 06:25:31.5	92.400	-0.040	1.060	1.630
2020/01/31 06:25:31.6	92.380	-0.060	1.030	1.640
2020/01/31 06:25:31.7	92.370	-0.080	0.990	1.650
2020/01/31 06:25:31.8	92.360	-0.090	0.950	1.650
2020/01/31 06:25:31.9	92.350	-0.100	0.890	1.660
2020/01/31 06:25:32.0	92.340	-0.110	0.820	1.660
2020/01/31 06:25:32.1	92.330	-0.110	0.740	1.670
2020/01/31 06:25:32.2	92.310	-0.110	0.640	1.670
2020/01/31 06:25:32.3	92.300	-0.110	0.550	1.670
2020/01/31 06:25:32.4	92.290	-0.100	0.440	1.670
2020/01/31 06:25:32.5	92.290	-0.090	0.330	1.670
2020/01/31 06:25:32.6	92.280	-0.070	0.210	1.660
2020/01/31 06:25:32.7	92.270	-0.050	0.080	1.650
2020/01/31 06:25:32.8	92.270	-0.030	-0.050	1.640
2020/01/31 06:25:32.9	92.270	-0.010	-0.180	1.630
2020/01/31 06:25:33.0	92.260	0.020	-0.310	1.610
2020/01/31 06:25:33.1	92.260	0.050	-0.440	1.590
2020/01/31 06:25:33.2	92.260	0.080	-0.570	1.570
2020/01/31 06:25:33.3	92.250	0.110	-0.700	1.550
2020/01/31 06:25:33.4	92.250	0.140	-0.830	1.530
2020/01/31 06:25:33.5	92.250	0.180	-0.950	1.500
2020/01/31 06:25:33.6	92.250	0.210	-1.070	1.470
2020/01/31 06:25:33.7	92.250	0.240	-1.180	1.450
2020/01/31 06:25:33.8	92.250	0.270	-1.280	1.420
2020/01/31 06:25:33.9	92.250	0.290	-1.370	1.390
2020/01/31 06:25:34.0	92.240	0.320	-1.450	1.360
2020/01/31 06:25:34.1	92.240	0.340	-1.520	1.320
2020/01/31 06:25:34.2	92.230	0.360	-1.580	1.290
2020/01/31 06:25:34.3	92.220	0.380	-1.620	1.260
2020/01/31 06:25:34.4	92.220	0.390	-1.660	1.230
2020/01/31 06:25:34.5	92.210	0.400	-1.670	1.190
2020/01/31 06:25:34.6	92.210	0.400	-1.680	1.160
2020/01/31 06:25:34.7	92.200	0.400	-1.670	1.140
2020/01/31 06:25:34.8	92.200	0.400	-1.650	1.110
2020/01/31 06:25:34.9	92.190	0.390	-1.620	1.080
2020/01/31 06:25:35.0	92.180	0.380	-1.570	1.050
2020/01/31 06:25:35.1	92.170	0.370	-1.510	1.030
2020/01/31 06:25:35.2	92.170	0.350	-1.440	1.010
2020/01/31 06:25:35.3	92.160	0.320	-1.360	0.990
2020/01/31 06:25:35.4	92.150	0.300	-1.270	0.970
2020/01/31 06:25:35.5	92.140	0.270	-1.170	0.950
2020/01/31 06:25:35.6	92.130	0.230	-1.070	0.930
2020/01/31 06:25:35.7	92.120	0.200	-0.950	0.910
2020/01/31 06:25:35.8	92.110	0.160	-0.830	0.900
2020/01/31 06:25:35.9	92.100	0.120	-0.710	0.880
2020/01/31 06:25:36.0	92.080	0.070	-0.580	0.870
2020/01/31 06:25:36.1	92.070	0.030	-0.450	0.850
2020/01/31 06:25:36.2	92.070	-0.010	-0.320	0.840
2020/01/31 06:25:36.3	92.060	-0.060	-0.190	0.830
2020/01/31 06:25:36.4	92.050	-0.100	-0.060	0.820
2020/01/31 06:25:36.5	92.030	-0.150	0.070	0.800
2020/01/31 06:25:36.6	92.020	-0.190	0.190	0.790
2020/01/31 06:25:36.7	92.020	-0.240	0.310	0.770
2020/01/31 06:25:36.8	92.010	-0.280	0.430	0.760
2020/01/31 06:25:36.9	92.000	-0.320	0.530	0.740
2020/01/31 06:25:37.0	91.990	-0.350	0.630	0.730
2020/01/31 06:25:37.1	91.990	-0.390	0.730	0.710
2020/01/31 06:25:37.2	91.980	-0.420	0.810	0.690
2020/01/31 06:25:37.3	91.970	-0.450	0.890	0.680
2020/01/31 06:25:37.4	91.970	-0.480	0.950	0.660
2020/01/31 06:25:37.5	91.970	-0.500	1.010	0.640
2020/01/31 06:25:37.6	91.970	-0.520	1.050	0.620
2020/01/31 06:25:37.7	91.970	-0.530	1.090	0.600
2020/01/31 06:25:37.8	91.970	-0.550	1.120	0.570
2020/01/31 06:25:37.9	91.970	-0.560	1.140	0.550
2020/01/31 06:25:38.0	91.970	-0.560	1.150	0.530
2020/01/31 06:25:38.1	91.970	-0.570	1.150	0.510
2020/01/31 06:25:38.2	91.970	-0.570	1.140	0.490
2020/01/31 06:25:38.3	91.970	-0.570	1.130	0.470
2020/01/31 06:25:38.4	91.970	-0.560	1.100	0.450
2020/01/31 06:25:38.5	91.970	-0.550	1.070	0.430
2020/01/31 06:25:38.6	91.970	-0.540	1.040	0.410
2020/01/31 06:25:38.7	91.980	-0.530	0.990	0.390
2020/01/31 06:25:38.8	91.980	-0.510	0.940	0.370
2020/01/31 06:25:38.9	91.980	-0.500	0.880	0.350
2020/01/31 06:25:39.0	91.980	-0.480	0.820	0.340
2020/01/31 06:25:39.1	91.980	-0.460	0.760	0.320
2020/01/31 06:25:39.2	91.990	-0.440	0.680	0.310
2020/01/31 06:25:39.3	91.980	-0.410	0.600	0.290
2020/01/31 06:25:39.4	91.980	-0.390	0.520	0.280
2020/01/31 06:25:39.5	91.980	-0.370	0.440	0.260
2020/01/31 06:25:39.6	91.980	-0.340	0.360	0.250
2020/01/31 06:25:39.7	91.980	-0.310	0.270	0.240
2020/01/31 06:25:39.8	91.980	-0.280	0.180	0.230
2020/01/31 06:25:39.9	91.980	-0.260	0.090	0.220
2020/01/31 06:25:40.0	91.970	-0.230	-0.000	0.210
2020/01/31 06:25:40.1	91.970	-0.200	-0.090	0.200
2020/01/31 06:25:40.2	91.970	-0.170	-0.180	0.190
2020/01/31 06:25:40.3	91.970	-0.140	-0.270	0.180
2020/01/31 06:25:40.4	91.970	-0.110	-0.360	0.170
2020/01/31 06:25:40.5	91.970	-0.080	-0.450	0.160
2020/01/31 06:25:40.6	91.970	-0.040	-0.540	0.150
2020/01/31 06:25:40.7	91.970	-0.010	-0.620	0.140
2020/01/31 06:25:40.8	91.970	0.020	-0.700	0.130
2020/01/31 06:25:40.9	91.970	0.050	-0.780	0.120
2020/01/31 06:25:41.0	91.970	0.080	-0.850	0.110
2020/01/31 06:25:41.1	91.970	0.110	-0.920	0.110
2020/01/31 06:25:41.2	91.990	0.140	-0.990	0.100
2020/01/31 06:25:41.3	91.990	0.170	-1.050	0.090
2020/01/31 06:25:41.4	91.990	0.200	-1.100	0.090
2020/01/31 06:25:41.5	91.990	0.230	-1.150	0.090
2020/01/31 06:25:41.6	92.000	0.260	-1.190	0.090
2020/01/31 06:25:41.7	92.000	0.290	-1.220	0.090
2020/01/31 06:25:41.8	92.000	0.320	-1.250	0.100
2020/01/31 06:25:41.9	92.000	0.340	-1.270	0.100
2020/01/31 06:25:42.0	92.000	0.370	-1.290	0.120
2020/01/31 06:25:42.1	92.000	0.390	-1.290	0.130
2020/01/31 06:25:42.2	92.010	0.410	-1.290	0.150
2020/01/31 06:25:42.3	92.010	0.430	-1.280	0.170
2020/01/31 06:25:42.4	92.010	0.450	-1.270	0.200
2020/01/31 06:25:42.5	92.010	0.460	-1.250	0.230
2020/01/31 06:25:42.6	92.010	0.480	-1.220	0.260
2020/01/31 06:25:42.7	92.010	0.490	-1.180	0.300
2020/01/31 06:25:42.8	92.010	0.490	-1.140	0.330
2020/01/31 06:25:42.9	92.020	0.500	-1.090	0.380
2020/01/31 06:25:43.0	92.020	0.500	-1.040	0.420
2020/01/31 06:25:43.1	92.020	0.500	-0.980	0.470
2020/01/31 06:25:43.2	92.020	0.500	-0.920	0.520
2020/01/31 06:25:43.3	92.030	0.490	-0.860	0.570
2020/01/31 06:25:43.4	92.030	0.480	-0.790	0.620
2020/01/31 06:25:43.5	92.040	0.470	-0.710	0.670
2020/01/31 06:25:43.6	92.050	0.450	-0.640	0.720
2020/01/31 06:25:43.7	92.050	0.430	-0.560	0.770
2020/01/31 06:25:43.8	92.060	0.410	-0.480	0.830
2020/01/31 06:25:43.9	92.070	0.380	-0.390	0.880
2020/01/31 06:25:44.0	92.080	0.360	-0.310	0.930
2020/01/31 06:25:44.1	92.090	0.330	-0.230	0.990
2020/01/31 06:25:44.2	92.090	0.290	-0.140	1.040
2020/01/31 06:25:44.3	92.100	0.260	-0.060	1.090
2020/01/31 06:25:44.4	92.100	0.220	0.030	1.140
2020/01/31 06:25:44.5	92.110	0.180	0.110	1.190
2020/01/31 06:25:44.6	92.110	0.140	0.190	1.240
2020/01/31 06:25:44.7	92.110	0.100	0.270	1.290
2020/01/31 06:25:44.8	92.110	0.060	0.340	1.340
2020/01/31 06:25:44.9	92.110	0.020	0.410	1.390
2020/01/31 06:25:45.0	92.110	-0.030	0.490	1.430
2020/01/31 06:25:45.1	92.100	-0.070	0.550	1.480
2020/01/31 06:25:45.2	92.080	-0.110	0.620	1.520
2020/01/31 06:25:45.3	92.070	-0.160	0.670	1.560
2020/01/31 06:25:45.4	92.060	-0.200	0.730	1.600
2020/01/31 06:25:45.5	92.050	-0.250	0.780	1.640
2020/01/31 06:25:45.6	92.030	-0.290	0.820	1.670
2020/01/31 06:25:45.7	92.010	-0.330	0.870	1.700
2020/01/31 06:25:45.8	92.000	-0.370	0.900	1.730
2020/01/31 06:25:45.9	91.980	-0.410	0.930	1.760
2020/01/31 06:25:46.0	91.960	-0.440	0.960	1.790
2020/01/31 06:25:46.1	91.940	-0.480	0.980	1.810
2020/01/31 06:25:46.2	91.930	-0.510	0.990	1.820
2020/01/31 06:25:46.3	91.910	-0.540	1.000	1.830
2020/01/31 06:25:46.4	91.890	-0.570	1.000	1.840
2020/01/31 06:25:46.5	91.870	-0.590	0.990	1.850
2020/01/31 06:25:46.6	91.850	-0.610	0.980	1.850
2020/01/31 06:25:46.7	91.830	-0.630	0.970	1.850
2020/01/31 06:25:46.8	91.820	-0.640	0.940	1.840
2020/01/31 06:25:46.9	91.800	-0.650	0.910	1.830
2020/01/31 06:25:47.0	91.790	-0.660	0.870	1.810
2020/01/31 06:25:47.1	91.770	-0.660	0.830	1.790
2020/01/31 06:25:47.2	91.760	-0.660	0.780	1.770
2020/01/31 06:25:47.3	91.750	-0.650	0.730	1.750
2020/01/31 06:25:47.4	91.740	-0.640	0.670	1.720
2020/01/31 06:25:47.5	91.740	-0.630	0.600	1.690
2020/01/31 06:25:47.6	91.730	-0.610	0.530	1.650
2020/01/31 06:25:47.7	91.730	-0.590	0.450	1.610
2020/01/31 06:25:47.8	91.730	-0.560	0.370	1.570
2020/01/31 06:25:47.9	91.730	-0.530	0.280	1.530
2020/01/31 06:25:48.0	91.730	-0.500	0.190	1.490
2020/01/31 06:25:48.1	91.740	-0.470	0.100	1.440
2020/01/31 06:25:48.2	91.740	-0.430	-0.000	1.400
2020/01/31 06:25:48.3	91.750	-0.390	-0.100	1.350
2020/01/31 06:25:48.4	91.760	-0.350	-0.200	1.300
2020/01/31 06:25:48.5	91.770	-0.300	-0.300	1.250
2020/01/31 06:25:48.6	91.790	-0.250	-0.400	1.200
2020/01/31 06:25:48.7	91.800	-0.200	-0.500	1.150
2020/01/31 06:25:48.8	91.820	-0.150	-0.600	1.090
2020/01/31 06:25:48.9	91.840	-0.100	-0.700	1.040
2020/01/31 06:25:49.0	91.860	-0.050	-0.790	0.990
2020/01/31 06:25:49.1	91.870	0.000	-0.880	0.930
2020/01/31 06:25:49.2	91.900	0.060	-0.970	0.880
2020/01/31 06:25:49.3	91.920	0.110	-1.050	0.820
2020/01/31 06:25:49.4	91.940	0.160	-1.130	0.770
2020/01/31 06:25:49.5	91.950	0.210	-1.200	0.710
2020/01/31 06:25:49.6	91.970	0.260	-1.260	0.660
2020/01/31 06:25:49.7	91.980	0.310	-1.320	0.610
2020/01/31 06:25:49.8	92.000	0.350	-1.370	0.550
2020/01/31 06:25:49.9	92.010	0.400	-1.410	0.500
2020/01/31 06:25:50.0	92.020	0.440	-1.440	0.450
2020/01/31 06:25:50.1	92.030	0.480	-1.460	0.400
2020/01/31 06:25:50.2	92.050	0.510	-1.470	0.350
2020/01/31 06:25:50.3	92.050	0.550	-1.480	0.300
2020/01/31 06:25:50.4	92.060	0.580	-1.480	0.250
2020/01/31 06:25:50.5	92.060	0.610	-1.470	0.200
2020/01/31 06:25:50.6	92.060	0.630	-1.450	0.150
2020/01/31 06:25:50.7	92.060	0.650	-1.420	0.110
2020/01/31 06:25:50.8	92.060	0.670	-1.390	0.060
2020/01/31 06:25:50.9	92.060	0.690	-1.350	0.020
2020/01/31 06:25:51.0	92.050	0.700	-1.300	-0.020
2020/01/31 06:25:51.1	92.050	0.710	-1.250	-0.060
2020/01/31 06:25:51.2	92.050	0.720	-1.190	-0.100
2020/01/31 06:25:51.3	92.050	0.720	-1.130	-0.130
2020/01/31 06:25:51.4	92.040	0.720	-1.060	-0.170
2020/01/31 06:25:51.5	92.040	0.720	-0.980	-0.200
2020/01/31 06:25:51.6	92.030	0.720	-0.900	-0.220
2020/01/31 06:25:51.7	92.030	0.710	-0.820	-0.250
2020/01/31 06:25:51.8	92.020	0.700	-0.740	-0.270
2020/01/31 06:25:51.9	92.010	0.690	-0.650	-0.290
2020/01/31 06:25:52.0	92.000	0.680	-0.570	-0.300
2020/01/31 06:25:52.1	92.000	0.660	-0.480	-0.310
2020/01/31 06:25:52.2	92.000	0.650	-0.390	-0.310
2020/01/31 06:25:52.3	91.990	0.630	-0.300	-0.320
2020/01/31 06:25:52.4	91.980	0.610	-0.210	-0.310
2020/01/31 06:25:52.5	91.970	0.590	-0.130	-0.300
2020/01/31 06:25:52.6	91.960	0.560	-0.040	-0.290
2020/01/31 06:25:52.7	91.950	0.540	0.040	-0.270
2020/01/31 06:25:52.8	91.940	0.510	0.120	-0.250
2020/01/31 06:25:52.9	91.930	0.490	0.200	-0.230
2020/01/31 06:25:53.0	91.910	0.460	0.270	-0.200
2020/01/31 06:25:53.1	91.900	0.430	0.340	-0.160
2020/01/31 06:25:53.2	91.890	0.400	0.400	-0.120
2020/01/31 06:25:53.3	91.880	0.370	0.460	-0.080
2020/01/31 06:25:53.4	91.860	0.340	0.520	-0.040
2020/01/31 06:25:53.5	91.850	0.310	0.570	0.010
2020/01/31 06:25:53.6	91.840	0.280	0.610	0.060
2020/01/31 06:25:53.7	91.830	0.240	0.660	0.120
2020/01/31 06:25:53.8	91.820	0.210	0.690	0.170
2020/01/31 06:25:53.9	91.820	0.170	0.720	0.230
2020/01/31 06:25:54.0	91.810	0.140	0.750	0.280
2020/01/31 06:25:54.1	91.800	0.110	0.770	0.340
2020/01/31 06:25:54.2	91.800	0.070	0.790	0.400
2020/01/31 06:25:54.3	91.800	0.040	0.800	0.460
2020/01/31 06:25:54.4	91.800	0.000	0.810	0.510
2020/01/31 06:25:54.5	91.800	-0.030	0.810	0.570
2020/01/31 06:25:54.6	91.800	-0.070	0.810	0.620
2020/01/31 06:25:54.7	91.800	-0.100	0.800	0.670
2020/01/31 06:25:54.8	91.810	-0.140	0.780	0.720
2020/01/31 06:25:54.9	91.810	-0.170	0.770	0.770
2020/01/31 06:25:55.0	91.820	-0.200	0.750	0.820
2020/01/31 06:25:55.1	91.830	-0.230	0.720	0.870
2020/01/31 06:25:55.2	91.830	-0.260	0.690	0.910
2020/01/31 06:25:55.3	91.840	-0.290	0.660	0.950
2020/01/31 06:25:55.4	91.850	-0.320	0.620	0.990
2020/01/31 06:25:55.5	91.860	-0.350	0.580	1.030
2020/01/31 06:25:55.6	91.880	-0.380	0.540	1.060
2020/01/31 06:25:55.7	91.890	-0.400	0.500	1.090
2020/01/31 06:25:55.8	91.900	-0.420	0.450	1.130
2020/01/31 06:25:55.9	91.920	-0.440	0.400	1.160
2020/01/31 06:25:56.0	91.940	-0.460	0.350	1.180
2020/01/31 06:25:56.1	91.950	-0.480	0.300	1.210
2020/01/31 06:25:56.2	91.980	-0.500	0.240	1.240
2020/01/31 06:25:56.3	91.990	-0.510	0.190	1.260
2020/01/31 06:25:56.4	92.010	-0.530	0.140	1.290
2020/01/31 06:25:56.5	92.030	-0.540	0.080	1.310
2020/01/31 06:25:56.6	92.050	-0.550	0.030	1.340
2020/01/31 06:25:56.7	92.070	-0.550	-0.020	1.360
2020/01/31 06:25:56.8	92.080	-0.560	-0.080	1.390
2020/01/31 06:25:56.9	92.100	-0.560	-0.130	1.410
2020/01/31 06:25:57.0	92.120	-0.560	-0.180	1.430
2020/01/31 06:25:57.1	92.130	-0.560	-0.220	1.460
2020/01/31 06:25:57.2	92.140	-0.560	-0.270	1.480
2020/01/31 06:25:57.3	92.160	-0.550	-0.320	1.500
2020/01/31 06:25:57.4	92.170	-0.550	-0.360	1.530
2020/01/31 06:25:57.5	92.180	-0.540	-0.400	1.550
2020/01/31 06:25:57.6	92.190	-0.530	-0.440	1.570
2020/01/31 06:25:57.7	92.210	-0.510	-0.480	1.590
2020/01/31 06:25:57.8	92.220	-0.500	-0.510	1.610
2020/01/31 06:25:57.9	92.230	-0.480	-0.540	1.630
2020/01/31 06:25:58.0	92.240	-0.470	-0.570	1.650
2020/01/31 06:25:58.1	92.250	-0.450	-0.600	1.670
2020/01/31 06:25:58.2	92.250	-0.430	-0.620	1.690
2020/01/31 06:25:58.3	92.260	-0.410	-0.650	1.700
2020/01/31 06:25:58.4	92.270	-0.380	-0.670	1.720
2020/01/31 06:25:58.5	92.280	-0.360	-0.680	1.730
2020/01/31 06:25:58.6	92.290	-0.330	-0.700	1.730
2020/01/31 06:25:58.7	92.300	-0.310	-0.710	1.740
2020/01/31 06:25:58.8	92.300	-0.280	-0.720	1.740
2020/01/31 06:25:58.9	92.310	-0.260	-0.720	1.740
2020/01/31 06:25:59.0	92.310	-0.230	-0.720	1.740
2020/01/31 06:25:59.1	92.320	-0.200	-0.720	1.740
2020/01/31 06:25:59.2	92.330	-0.180	-0.720	1.740
2020/01/31 06:25:59.3	92.330	-0.150	-0.710	1.740
2020/01/31 06:25:59.4	92.330	-0.120	-0.700	1.730
2020/01/31 06:25:59.5	92.330	-0.100	-0.680	1.720
2020/01/31 06:25:59.6	92.330	-0.080	-0.660	1.720
2020/01/31 06:25:59.7	92.330	-0.050	-0.640	1.710
2020/01/31 06:25:59.8	92.320	-0.030	-0.620	1.700
2020/01/31 06:25:59.9	92.320	-0.010	-0.590	1.690
2020/01/31 06:26:00.0	92.310	0.010	-0.560	1.670
2020/01/31 06:26:00.1	92.300	0.030	-0.520	1.660
2020/01/31 06:26:00.2	92.290	0.040	-0.490	1.640
2020/01/31 06:26:00.3	92.280	0.060	-0.450	1.630
2020/01/31 06:26:00.4	92.260	0.070	-0.410	1.610
2020/01/31 06:26:00.5	92.250	0.080	-0.370	1.590
2020/01/31 06:26:00.6	92.230	0.090	-0.330	1.570
2020/01/31 06:26:00.7	92.220	0.100	-0.290	1.560
2020/01/31 06:26:00.8	92.200	0.110	-0.250	1.540
2020/01/31 06:26:00.9	92.180	0.110	-0.210	1.520
2020/01/31 06:26:01.0	92.160	0.120	-0.170	1.490
2020/01/31 06:26:01.1	92.140	0.120	-0.130	1.470
2020/01/31 06:26:01.2	92.110	0.120	-0.090	1.450
2020/01/31 06:26:01.3	92.090	0.120	-0.060	1.420
2020/01/31 06:26:01.4	92.070	0.120	-0.020	1.390
2020/01/31 06:26:01.5	92.050	0.120	0.010	1.360
2020/01/31 06:26:01.6	92.040	0.120	0.040	1.330
2020/01/31 06:26:01.7	92.020	0.120	0.060	1.300
2020/01/31 06:26:01.8	92.000	0.120	0.080	1.270
2020/01/31 06:26:01.9	91.990	0.120	0.100	1.230
2020/01/31 06:26:02.0	91.980	0.120	0.110	1.200
2020/01/31 06:26:02.1	91.960	0.120	0.120	1.160
2020/01/31 06:26:02.2	91.940	0.120	0.120	1.110
2020/01/31 06:26:02.3	91.930	0.120	0.120	1.070
2020/01/31 06:26:02.4	91.920	0.120	0.120	1.030
2020/01/31 06:26:02.5	91.920	0.130	0.110	0.980
2020/01/31 06:26:02.6	91.910	0.130	0.100	0.930
2020/01/31 06:26:02.7	91.900	0.130	0.080	0.880
2020/01/31 06:26:02.8	91.900	0.130	0.060	0.830
2020/01/31 06:26:02.9	91.900	0.140	0.030	0.770
2020/01/31 06:26:03.0	91.900	0.140	0.010	0.710
2020/01/31 06:26:03.1	91.900	0.150	-0.020	0.650
2020/01/31 06:26:03.2	91.900	0.150	-0.060	0.590
2020/01/31 06:26:03.3	91.900	0.160	-0.090	0.530
2020/01/31 06:26:03.4	91.910	0.160	-0.130	0.460
2020/01/31 06:26:03.5	91.920	0.170	-0.160	0.400
2020/01/31 06:26:03.6	91.920	0.170	-0.200	0.330
2020/01/31 06:26:03.7	91.930	0.180	-0.230	0.270
2020/01/31 06:26:03.8	91.940	0.180	-0.270	0.200
2020/01/31 06:26:03.9	91.960	0.190	-0.300	0.140
2020/01/31 06:26:04.0	91.970	0.190	-0.330	0.080
2020/01/31 06:26:04.1	91.980	0.200	-0.360	0.010
2020/01/31 06:26:04.2	91.990	0.200	-0.390	-0.050
2020/01/31 06:26:04.3	92.000	0.200	-0.410	-0.100
2020/01/31 06:26:04.4	92.020	0.200	-0.430	-0.160
2020/01/31 06:26:04.5	92.030	0.200	-0.450	-0.210
2020/01/31 06:26:04.6	92.040	0.200	-0.460	-0.260
2020/01/31 06:26:04.7	92.050	0.200	-0.470	-0.310
2020/01/31 06:26:04.8	92.060	0.190	-0.470	-0.350
2020/01/31 06:26:04.9	92.070	0.190	-0.480	-0.390
2020/01/31 06:26:05.0	92.080	0.190	-0.470	-0.430
2020/01/31 06:26:05.1	92.080	0.180	-0.470	-0.460
2020/01/31 06:26:05.2	92.090	0.170	-0.460	-0.490
2020/01/31 06:26:05.3	92.100	0.160	-0.440	-0.510
2020/01/31 06:26:05.4	92.100	0.160	-0.430	-0.530
2020/01/31 06:26:05.5	92.110	0.150	-0.410	-0.550
2020/01/31 06:26:05.6	92.120	0.140	-0.380	-0.560
2020/01/31 06:26:05.7	92.120	0.130	-0.360	-0.560
2020/01/31 06:26:05.8	92.130	0.120	-0.330	-0.570
2020/01/31 06:26:05.9	92.130	0.110	-0.300	-0.570
2020/01/31 06:26:06.0	92.140	0.100	-0.260	-0.560
2020/01/31 06:26:06.1	92.140	0.090	-0.230	-0.550
2020/01/31 06:26:06.2	92.140	0.080	-0.190	-0.540
2020/01/31 06:26:06.3	92.150	0.070	-0.160	-0.520
2020/01/31 06:26:06.4	92.150	0.060	-0.120	-0.500
2020/01/31 06:26:06.5	92.160	0.050	-0.080	-0.480
2020/01/31 06:26:06.6	92.160	0.040	-0.050	-0.450
2020/01/31 06:26:06.7	92.170	0.030	-0.010	-0.420
2020/01/31 06:26:06.8	92.180	0.030	0.020	-0.390
2020/01/31 06:26:06.9	92.180	0.020	0.060	-0.360
2020/01/31 06:26:07.0	92.190	0.010	0.090	-0.330
2020/01/31 06:26:07.1	92.200	0.010	0.120	-0.290
2020/01/31 06:26:07.2	92.220	0.010	0.140	-0.260
2020/01/31 06:26:07.3	92.230	0.010	0.160	-0.220
2020/01/31 06:26:07.4	92.240	0.000	0.180	-0.180
2020/01/31 06:26:07.5	92.260	0.000	0.200	-0.140
2020/01/31 06:26:07.6	92.270	0.010	0.220	-0.100
2020/01/31 06:26:07.7	92.290	0.010	0.230	-0.060
2020/01/31 06:26:07.8	92.300	0.010	0.240	-0.020
2020/01/31 06:26:07.9	92.320	0.010	0.240	0.030
2020/01/31 06:26:08.0	92.340	0.020	0.240	0.070
2020/01/31 06:26:08.1	92.350	0.030	0.240	0.120
2020/01/31 06:26:08.2	92.380	0.030	0.230	0.170
2020/01/31 06:26:08.3	92.400	0.040	0.220	0.220
2020/01/31 06:26:08.4	92.410	0.050	0.210	0.270
2020/01/31 06:26:08.5	92.430	0.060	0.190	0.320
2020/01/31 06:26:08.6	92.440	0.070	0.170	0.370
2020/01/31 06:26:08.7	92.450	0.080	0.150	0.420
2020/01/31 06:26:08.8	92.460	0.090	0.130	0.470
2020/01/31 06:26:08.9	92.470	0.100	0.100	0.530
2020/01/31 06:26:09.0	92.480	0.110	0.080	0.580
2020/01/31 06:26:09.1	92.490	0.120	0.050	0.630
2020/01/31 06:26:09.2	92.500	0.130	0.020	0.690
2020/01/31 06:26:09.3	92.510	0.140	-0.010	0.740
2020/01/31 06:26:09.4	92.510	0.150	-0.040	0.790
2020/01/31 06:26:09.5	92.510	0.150	-0.060	0.850
2020/01/31 06:26:09.6	92.520	0.160	-0.090	0.900
2020/01/31 06:26:09.7	92.520	0.170	-0.110	0.960
2020/01/31 06:26:09.8	92.520	0.170	-0.140	1.010
2020/01/31 06:26:09.9	92.520	0.170	-0.160	1.060
2020/01/31 06:26:10.0	92.510	0.170	-0.180	1.110
2020/01/31 06:26:10.1	92.510	0.170	-0.200	1.170
2020/01/31 06:26:10.2	92.510	0.170	-0.210	1.220
2020/01/31 06:26:10.3	92.500	0.170	-0.220	1.270
2020/01/31 06:26:10.4	92.490	0.160	-0.230	1.320
2020/01/31 06:26:10.5	92.490	0.150	-0.240	1.380
2020/01/31 06:26:10.6	92.480	0.150	-0.250	1.430
2020/01/31 06:26:10.7	92.470	0.140	-0.260	1.480
2020/01/31 06:26:10.8	92.460	0.130	-0.260	1.530
2020/01/31 06:26:10.9	92.450	0.110	-0.270	1.580
2020/01/31 06:26:11.0	92.430	0.100	-0.270	1.630
2020/01/31 06:26:11.1	92.420	0.090	-0.270	1.670
2020/01/31 06:26:11.2	92.400	0.070	-0.280	1.720
2020/01/31 06:26:11.3	92.390	0.050	-0.280	1.760
2020/01/31 06:26:11.4	92.380	0.040	-0.290	1.810
2020/01/31 06:26:11.5	92.370	0.020	-0.290	1.850
2020/01/31 06:26:11.6	92.350	0.000	-0.290	1.890
2020/01/31 06:26:11.7	92.340	-0.010	-0.290	1.920
2020/01/31 06:26:11.8	92.330	-0.030	-0.300	1.960
2020/01/31 06:26:11.9	92.320	-0.050	-0.300	1.990
2020/01/31 06:26:12.0	92.310	-0.070	-0.300	2.020
2020/01/31 06:26:12.1	92.290	-0.080	-0.310	2.050
2020/01/31 06:26:12.2	92.280	-0.100	-0.310	2.070
2020/01/31 06:26:12.3	92.260	-0.110	-0.320	2.090
2020/01/31 06:26:12.4	92.250	-0.130	-0.320	2.110
2020/01/31 06:26:12.5	92.240	-0.140	-0.330	2.130
2020/01/31 06:26:12.6	92.230	-0.150	-0.340	2.140
2020/01/31 06:26:12.7	92.220	-0.170	-0.350	2.150
2020/01/31 06:26:12.8	92.220	-0.180	-0.350	2.150
2020/01/31 06:26:12.9	92.210	-0.190	-0.360	2.150
2020/01/31 06:26:13.0	92.200	-0.190	-0.370	2.150
2020/01/31 06:26:13.1	92.200	-0.200	-0.380	2.140
2020/01/31 06:26:13.2	92.190	-0.200	-0.390	2.130
2020/01/31 06:26:13.3	92.190	-0.210	-0.400	2.120
2020/01/31 06:26:13.4	92.180	-0.210	-0.410	2.100
2020/01/31 06:26:13.5	92.180	-0.210	-0.420	2.080
2020/01/31 06:26:13.6	92.180	-0.210	-0.420	2.050
2020/01/31 06:26:13.7	92.180	-0.210	-0.430	2.020
2020/01/31 06:26:13.8	92.190	-0.200	-0.430	1.990
2020/01/31 06:26:13.9	92.190	-0.200	-0.440	1.950
2020/01/31 06:26:14.0	92.200	-0.190	-0.440	1.910
2020/01/31 06:26:14.1	92.200	-0.190	-0.440	1.870
2020/01/31 06:26:14.2	92.210	-0.180	-0.430	1.820
2020/01/31 06:26:14.3	92.220	-0.170	-0.430	1.770
2020/01/31 06:26:14.4	92.240	-0.170	-0.420	1.720
2020/01/31 06:26:14.5	92.250	-0.160	-0.410	1.660
2020/01/31 06:26:14.6	92.260	-0.150	-0.390	1.600
2020/01/31 06:26:14.7	92.280	-0.140	-0.380	1.540
2020/01/31 06:26:14.8	92.300	-0.140	-0.360	1.480
2020/01/31 06:26:14.9	92.320	-0.130	-0.340	1.420
2020/01/31 06:26:15.0	92.340	-0.120	-0.310	1.350
2020/01/31 06:26:15.1	92.360	-0.110	-0.290	1.290
2020/01/31 06:26:15.2	92.380	-0.110	-0.260	1.220
2020/01/31 06:26:15.3	92.410	-0.100	-0.230	1.150
2020/01/31 06:26:15.4	92.440	-0.100	-0.190	1.090
2020/01/31 06:26:15.5	92.470	-0.100	-0.160	1.020
2020/01/31 06:26:15.6	92.500	-0.090	-0.130	0.950
2020/01/31 06:26:15.7	92.530	-0.090	-0.090	0.890
2020/01/31 06:26:15.8	92.560	-0.090	-0.060	0.820
2020/01/31 06:26:15.9	92.590	-0.090	-0.030	0.760
2020/01/31 06:26:16.0	92.620	-0.090	0.010	0.700
2020/01/31 06:26:16.1	92.650	-0.090	0.040	0.640
2020/01/31 06:26:16.2	92.680	-0.100	0.070	0.580
2020/01/31 06:26:16.3	92.710	-0.100	0.100	0.530
2020/01/31 06:26:16.4	92.740	-0.100	0.130	0.480
2020/01/31 06:26:16.5	92.770	-0.110	0.150	0.430
2020/01/31 06:26:16.6	92.800	-0.110	0.170	0.390
2020/01/31 06:26:16.7	92.820	-0.120	0.190	0.350
2020/01/31 06:26:16.8	92.840	-0.130	0.210	0.320
2020/01/31 06:26:16.9	92.860	-0.130	0.220	0.290
2020/01/31 06:26:17.0	92.870	-0.140	0.230	0.260
2020/01/31 06:26:17.1	92.890	-0.150	0.240	0.240
2020/01/31 06:26:17.2	92.910	-0.150	0.240	0.220
2020/01/31 06:26:17.3	92.920	-0.160	0.240	0.210
2020/01/31 06:26:17.4	92.920	-0.170	0.240	0.200
2020/01/31 06:26:17.5	92.910	-0.180	0.240	0.190
2020/01/31 06:26:17.6	92.910	-0.190	0.240	0.190
2020/01/31 06:26:17.7	92.900	-0.200	0.230	0.180
2020/01/31 06:26:17.8	92.890	-0.210	0.230	0.180
2020/01/31 06:26:17.9	92.870	-0.220	0.220	0.180
2020/01/31 06:26:18.0	92.850	-0.230	0.210	0.180
2020/01/31 06:26:18.1	92.830	-0.240	0.200	0.180
2020/01/31 06:26:18.2	92.810	-0.250	0.190	0.180
2020/01/31 06:26:18.3	92.790	-0.260	0.180	0.180
2020/01/31 06:26:18.4	92.760	-0.270	0.170	0.180
2020/01/31 06:26:18.5	92.730	-0.280	0.160	0.180
2020/01/31 06:26:18.6	92.700	-0.280	0.150	0.180
2020/01/31 06:26:18.7	92.660	-0.290	0.130	0.180
2020/01/31 06:26:18.8	92.630	-0.300	0.120	0.180
2020/01/31 06:26:18.9	92.590	-0.310	0.110	0.180
2020/01/31 06:26:19.0	92.550	-0.310	0.090	0.180
2020/01/31 06:26:19.1	92.520	-0.320	0.080	0.170
2020/01/31 06:26:19.2	92.480	-0.320	0.060	0.160
2020/01/31 06:26:19.3	92.440	-0.320	0.040	0.160
2020/01/31 06:26:19.4	92.410	-0.320	0.020	0.150
2020/01/31 06:26:19.5	92.370	-0.320	-0.000	0.140
2020/01/31 06:26:19.6	92.340	-0.310	-0.020	0.130
2020/01/31 06:26:19.7	92.300	-0.300	-0.050	0.120
2020/01/31 06:26:19.8	92.270	-0.290	-0.080	0.110
2020/01/31 06:26:19.9	92.240	-0.280	-0.100	0.100
2020/01/31 06:26:20.0	92.220	-0.270	-0.140	0.090
2020/01/31 06:26:20.1	92.190	-0.250	-0.170	0.080
2020/01/31 06:26:20.2	92.180	-0.230	-0.200	0.070
2020/01/31 06:26:20.3	92.160	-0.210	-0.240	0.050
2020/01/31 06:26:20.4	92.140	-0.180	-0.280	0.040
2020/01/31 06:26:20.5	92.130	-0.160	-0.320	0.020
2020/01/31 06:26:20.6	92.120	-0.130	-0.360	0.010
2020/01/31 06:26:20.7	92.110	-0.090	-0.400	-0.010
2020/01/31 06:26:20.8	92.110	-0.060	-0.440	-0.020
2020/01/31 06:26:20.9	92.110	-0.020	-0.490	-0.040
2020/01/31 06:26:21.0	92.110	0.010	-0.530	-0.060
2020/01/31 06:26:21.1	92.120	0.050	-0.570	-0.070
2020/01/31 06:26:21.2	92.130	0.090	-0.610	-0.090
2020/01/31 06:26:21.3	92.150	0.130	-0.650	-0.110
2020/01/31 06:26:21.4	92.160	0.170	-0.690	-0.120
2020/01/31 06:26:21.5	92.180	0.210	-0.730	-0.140
2020/01/31 06:26:21.6	92.210	0.260	-0.760	-0.150
2020/01/31 06:26:21.7	92.230	0.300	-0.790	-0.160
2020/01/31 06:26:21.8	92.260	0.340	-0.810	-0.170
2020/01/31 06:26:21.9	92.280	0.380	-0.830	-0.180
2020/01/31 06:26:22.0	92.310	0.420	-0.850	-0.190
2020/01/31 06:26:22.1	92.340	0.450	-0.860	-0.190
2020/01/31 06:26:22.2	92.360	0.490	-0.860	-0.190
2020/01/31 06:26:22.3	92.390	0.520	-0.860	-0.190
2020/01/31 06:26:22.4	92.420	0.550	-0.860	-0.180
2020/01/31 06:26:22.5	92.450	0.580	-0.850	-0.170
2020/01/31 06:26:22.6	92.480	0.610	-0.830	-0.160
2020/01/31 06:26:22.7	92.510	0.630	-0.810	-0.150
2020/01/31 06:26:22.8	92.530	0.650	-0.780	-0.130
2020/01/31 06:26:22.9	92.560	0.670	-0.750	-0.120
2020/01/31 06:26:23.0	92.580	0.680	-0.720	-0.100
2020/01/31 06:26:23.1	92.600	0.690	-0.680	-0.070
2020/01/31 06:26:23.2	92.620	0.700	-0.640	-0.050
2020/01/31 06:26:23.3	92.630	0.700	-0.590	-0.020
2020/01/31 06:26:23.4	92.650	0.700	-0.540	0.000
2020/01/31 06:26:23.5	92.660	0.700	-0.490	0.030
2020/01/31 06:26:23.6	92.680	0.690	-0.430	0.060
2020/01/31 06:26:23.7	92.690	0.680	-0.370	0.090
2020/01/31 06:26:23.8	92.700	0.660	-0.320	0.120
2020/01/31 06:26:23.9	92.710	0.640	-0.260	0.150
2020/01/31 06:26:24.0	92.710	0.620	-0.200	0.180
2020/01/31 06:26:24.1	92.720	0.600	-0.140	0.220
2020/01/31 06:26:24.2	92.730	0.570	-0.080	0.260
2020/01/31 06:26:24.3	92.730	0.540	-0.030	0.300
2020/01/31 06:26:24.4	92.730	0.510	0.030	0.330
2020/01/31 06:26:24.5	92.730	0.470	0.080	0.370
2020/01/31 06:26:24.6	92.730	0.440	0.130	0.420
2020/01/31 06:26:24.7	92.720	0.400	0.180	0.460
2020/01/31 06:26:24.8	92.720	0.360	0.220	0.510
2020/01/31 06:26:24.9	92.710	0.320	0.260	0.560
2020/01/31 06:26:25.0	92.700	0.280	0.300	0.610
2020/01/31 06:26:25.1	92.690	0.230	0.340	0.660
2020/01/31 06:26:25.2	92.660	0.190	0.370	0.720
2020/01/31 06:26:25.3	92.650	0.150	0.390	0.780
2020/01/31 06:26:25.4	92.630	0.100	0.420	0.840
2020/01/31 06:26:25.5	92.620	0.060	0.430	0.910
2020/01/31 06:26:25.6	92.600	0.020	0.450	0.970
2020/01/31 06:26:25.7	92.570	-0.020	0.460	1.040
2020/01/31 06:26:25.8	92.550	-0.060	0.470	1.110
2020/01/31 06:26:25.9	92.530	-0.100	0.470	1.180
2020/01/31 06:26:26.0	92.510	-0.130	0.470	1.250
2020/01/31 06:26:26.1	92.480	-0.170	0.460	1.320
2020/01/31 06:26:26.2	92.450	-0.200	0.450	1.390
2020/01/31 06:26:26.3	92.430	-0.230	0.440	1.470
2020/01/31 06:26:26.4	92.400	-0.260	0.420	1.530
2020/01/31 06:26:26.5	92.380	-0.290	0.400	1.600
2020/01/31 06:26:26.6	92.350	-0.310	0.380	1.660
2020/01/31 06:26:26.7	92.330	-0.340	0.360	1.720
2020/01/31 06:26:26.8	92.310	-0.350	0.330	1.780
2020/01/31 06:26:26.9	92.290	-0.370	0.300	1.830
2020/01/31 06:26:27.0	92.270	-0.390	0.270	1.880
2020/01/31 06:26:27.1	92.250	-0.400	0.240	1.930
2020/01/31 06:26:27.2	92.230	-0.410	0.210	1.970
2020/01/31 06:26:27.3	92.220	-0.410	0.180	2.000
2020/01/31 06:26:27.4	92.200	-0.420	0.140	2.030
2020/01/31 06:26:27.5	92.190	-0.420	0.110	2.050
2020/01/31 06:26:27.6	92.180	-0.420	0.070	2.070
2020/01/31 06:26:27.7	92.180	-0.420	0.030	2.080
2020/01/31 06:26:27.8	92.170	-0.410	-0.000	2.090
2020/01/31 06:26:27.9	92.170	-0.400	-0.040	2.090
2020/01/31 06:26:28.0	92.160	-0.400	-0.070	2.090
2020/01/31 06:26:28.1	92.160	-0.390	-0.110	2.090
2020/01/31 06:26:28.2	92.150	-0.370	-0.140	2.070
2020/01/31 06:26:28.3	92.150	-0.360	-0.170	2.060
2020/01/31 06:26:28.4	92.160	-0.350	-0.200	2.040
2020/01/31 06:26:28.5	92.160	-0.330	-0.230	2.020
2020/01/31 06:26:28.6	92.160	-0.310	-0.260	2.000
2020/01/31 06:26:28.7	92.170	-0.300	-0.290	1.970
2020/01/31 06:26:28.8	92.170	-0.280	-0.310	1.940
2020/01/31 06:26:28.9	92.180	-0.260	-0.340	1.910
2020/01/31 06:26:29.0	92.190	-0.240	-0.360	1.870
2020/01/31 06:26:29.1	92.190	-0.220	-0.380	1.830
2020/01/31 06:26:29.2	92.210	-0.200	-0.400	1.790
2020/01/31 06:26:29.3	92.220	-0.180	-0.420	1.750
2020/01/31 06:26:29.4	92.230	-0.160	-0.430	1.710
2020/01/31 06:26:29.5	92.240	-0.140	-0.450	1.660
2020/01/31 06:26:29.6	92.260	-0.120	-0.460	1.610
2020/01/31 06:26:29.7	92.270	-0.100	-0.470	1.560
2020/01/31 06:26:29.8	92.280	-0.080	-0.480	1.510
2020/01/31 06:26:29.9	92.300	-0.070	-0.480	1.460
2020/01/31 06:26:30.0	92.320	-0.050	-0.490	1.410
2020/01/31 06:26:30.1	92.330	-0.030	-0.490	1.360
2020/01/31 06:26:30.2	92.350	-0.020	-0.490	1.300
2020/01/31 06:26:30.3	92.370	-0.010	-0.490	1.250
2020/01/31 06:26:30.4	92.390	0.010	-0.490	1.200
2020/01/31 06:26:30.5	92.400	0.020	-0.490	1.150
2020/01/31 06:26:30.6	92.420	0.030	-0.490	1.100
2020/01/31 06:26:30.7	92.440	0.030	-0.480	1.050
2020/01/31 06:26:30.8	92.460	0.040	-0.480	1.000
2020/01/31 06:26:30.9	92.470	0.050	-0.470	0.960
2020/01/31 06:26:31.0	92.490	0.050	-0.460	0.910
2020/01/31 06:26:31.1	92.500	0.050	-0.450	0.870
2020/01/31 06:26:31.2	92.520	0.060	-0.440	0.830
2020/01/31 06:26:31.3	92.530	0.060	-0.430	0.790
2020/01/31 06:26:31.4	92.540	0.060	-0.410	0.760
2020/01/31 06:26:31.5	92.550	0.060	-0.400	0.720
2020/01/31 06:26:31.6	92.560	0.050	-0.380	0.690
2020/01/31 06:26:31.7	92.560	0.050	-0.370	0.660
2020/01/31 06:26:31.8	92.570	0.050	-0.350	0.630
2020/01/31 06:26:31.9	92.570	0.040	-0.330	0.600
2020/01/31 06:26:32.0	92.570	0.040	-0.310	0.570
2020/01/31 06:26:32.1	92.570	0.040	-0.280	0.550
2020/01/31 06:26:32.2	92.570	0.030	-0.260	0.520
2020/01/31 06:26:32.3	92.570	0.020	-0.240	0.500
2020/01/31 06:26:32.4	92.570	0.020	-0.210	0.480
2020/01/31 06:26:32.5	92.560	0.010	-0.190	0.460
2020/01/31 06:26:32.6	92.550	0.010	-0.170	0.440
2020/01/31 06:26:32.7	92.550	0.000	-0.140	0.420
2020/01/31 06:26:32.8	92.540	-0.000	-0.120	0.400
2020/01/31 06:26:32.9	92.530	-0.010	-0.100	0.390
2020/01/31 06:26:33.0	92.520	-0.010	-0.080	0.370
2020/01/31 06:26:33.1	92.510	-0.010	-0.050	0.360
2020/01/31 06:26:33.2	92.500	-0.020	-0.040	0.340
2020/01/31 06:26:33.3	92.480	-0.020	-0.020	0.330
2020/01/31 06:26:33.4	92.470	-0.020	0.000	0.320
2020/01/31 06:26:33.5	92.450	-0.030	0.020	0.310
2020/01/31 06:26:33.6	92.440	-0.030	0.030	0.300
2020/01/31 06:26:33.7	92.420	-0.030	0.050	0.290
2020/01/31 06:26:33.8	92.410	-0.030	0.060	0.280
2020/01/31 06:26:33.9	92.390	-0.030	0.070	0.280
2020/01/31 06:26:34.0	92.380	-0.030	0.080	0.270
2020/01/31 06:26:34.1	92.360	-0.030	0.080	0.260
2020/01/31 06:26:34.2	92.340	-0.030	0.090	0.260
2020/01/31 06:26:34.3	92.330	-0.020	0.090	0.250
2020/01/31 06:26:34.4	92.310	-0.020	0.090	0.250
2020/01/31 06:26:34.5	92.300	-0.020	0.090	0.250
2020/01/31 06:26:34.6	92.290	-0.020	0.080	0.250
2020/01/31 06:26:34.7	92.270	-0.020	0.070	0.250
2020/01/31 06:26:34.8	92.260	-0.010	0.060	0.260
2020/01/31 06:26:34.9	92.240	-0.010	0.040	0.260
2020/01/31 06:26:35.0	92.230	-0.010	0.030	0.270
2020/01/31 06:26:35.1	92.210	-0.010	0.010	0.270
2020/01/31 06:26:35.2	92.190	-0.010	-0.020	0.290
2020/01/31 06:26:35.3	92.170	-0.010	-0.040	0.300
2020/01/31 06:26:35.4	92.160	-0.010	-0.070	0.310
2020/01/31 06:26:35.5	92.140	-0.010	-0.100	0.320
2020/01/31 06:26:35.6	92.120	-0.010	-0.130	0.330
2020/01/31 06:26:35.7	92.100	-0.010	-0.160	0.340
2020/01/31 06:26:35.8	92.090	-0.010	-0.190	0.350
2020/01/31 06:26:35.9	92.070	-0.010	-0.230	0.350
2020/01/31 06:26:36.0	92.060	-0.020	-0.260	0.360
2020/01/31 06:26:36.1	92.040	-0.020	-0.300	0.370
2020/01/31 06:26:36.2	92.050	-0.020	-0.330	0.370
2020/01/31 06:26:36.3	92.040	-0.030	-0.360	0.370
2020/01/31 06:26:36.4	92.040	-0.030	-0.390	0.370
2020/01/31 06:26:36.5	92.030	-0.040	-0.420	0.370
2020/01/31 06:26:36.6	92.030	-0.040	-0.450	0.370
2020/01/31 06:26:36.7	92.030	-0.050	-0.480	0.370
2020/01/31 06:26:36.8	92.030	-0.060	-0.500	0.360
2020/01/31 06:26:36.9	92.040	-0.060	-0.520	0.360
2020/01/31 06:26:37.0	92.050	-0.070	-0.540	0.350
2020/01/31 06:26:37.1	92.060	-0.070	-0.550	0.340
2020/01/31 06:26:37.2	92.060	-0.080	-0.550	0.330
2020/01/31 06:26:37.3	92.080	-0.080	-0.560	0.320
2020/01/31 06:26:37.4	92.100	-0.090	-0.560	0.310
2020/01/31 06:26:37.5	92.110	-0.090	-0.550	0.300
2020/01/31 06:26:37.6	92.130	-0.090	-0.550	0.290
2020/01/31 06:26:37.7	92.150	-0.100	-0.530	0.290
2020/01/31 06:26:37.8	92.180	-0.100	-0.520	0.280
2020/01/31 06:26:37.9	92.200	-0.100	-0.490	0.270
2020/01/31 06:26:38.0	92.230	-0.100	-0.470	0.270
2020/01/31 06:26:38.1	92.250	-0.090	-0.440	0.260
2020/01/31 06:26:38.2	92.290	-0.090	-0.410	0.260
2020/01/31 06:26:38.3	92.310	-0.090	-0.370	0.260
2020/01/31 06:26:38.4	92.330	-0.080	-0.330	0.270
2020/01/31 06:26:38.5	92.360	-0.080	-0.290	0.270
2020/01/31 06:26:38.6	92.380	-0.070	-0.250	0.280
2020/01/31 06:26:38.7	92.410	-0.060	-0.200	0.290
2020/01/31 06:26:38.8	92.430	-0.050	-0.160	0.300
2020/01/31 06:26:38.9	92.450	-0.040	-0.110	0.320
2020/01/31 06:26:39.0	92.460	-0.030	-0.060	0.340
2020/01/31 06:26:39.1	92.480	-0.020	-0.010	0.360
2020/01/31 06:26:39.2	92.490	-0.010	0.040	0.380
2020/01/31 06:26:39.3	92.500	-0.000	0.090	0.410
2020/01/31 06:26:39.4	92.510	0.010	0.130	0.440
2020/01/31 06:26:39.5	92.520	0.020	0.180	0.470
2020/01/31 06:26:39.6	92.520	0.030	0.220	0.510
2020/01/31 06:26:39.7	92.530	0.040	0.260	0.550
2020/01/31 06:26:39.8	92.530	0.050	0.300	0.590
2020/01/31 06:26:39.9	92.530	0.060	0.330	0.630
2020/01/31 06:26:40.0	92.530	0.070	0.360	0.680
2020/01/31 06:26:40.1	92.530	0.080	0.390	0.720
2020/01/31 06:26:40.2	92.520	0.080	0.410	0.770
2020/01/31 06:26:40.3	92.520	0.090	0.420	0.820
2020/01/31 06:26:40.4	92.520	0.100	0.430	0.870
2020/01/31 06:26:40.5	92.510	0.100	0.440	0.920
2020/01/31 06:26:40.6	92.510	0.110	0.440	0.970
2020/01/31 06:26:40.7	92.510	0.110	0.440	1.020
2020/01/31 06:26:40.8	92.510	0.120	0.430	1.060
2020/01/31 06:26:40.9	92.510	0.120	0.410	1.110
2020/01/31 06:26:41.0	92.500	0.130	0.390	1.150
2020/01/31 06:26:41.1	92.510	0.130	0.370	1.190
2020/01/31 06:26:41.2	92.510	0.130	0.340	1.230
2020/01/31 06:26:41.3	92.510	0.140	0.300	1.260
2020/01/31 06:26:41.4	92.520	0.140	0.260	1.290
2020/01/31 06:26:41.5	92.520	0.150	0.210	1.320
2020/01/31 06:26:41.6	92.520	0.150	0.160	1.350
2020/01/31 06:26:41.7	92.530	0.150	0.110	1.370
2020/01/31 06:26:41.8	92.540	0.160	0.050	1.390
2020/01/31 06:26:41.9	92.540	0.170	-0.010	1.410
2020/01/31 06:26:42.0	92.550	0.170	-0.070	1.430
2020/01/31 06:26:42.1	92.550	0.180	-0.140	1.440
2020/01/31 06:26:42.2	92.560	0.190	-0.210	1.460
2020/01/31 06:26:42.3	92.560	0.190	-0.280	1.470
2020/01/31 06:26:42.4	92.570	0.200	-0.350	1.480
2020/01/31 06:26:42.5	92.570	0.210	-0.410	1.490
2020/01/31 06:26:42.6	92.580	0.220	-0.480	1.500
2020/01/31 06:26:42.7	92.580	0.230	-0.540	1.500
2020/01/31 06:26:42.8	92.580	0.240	-0.600	1.510
2020/01/31 06:26:42.9	92.590	0.250	-0.660	1.520
2020/01/31 06:26:43.0	92.590	0.260	-0.720	1.520
2020/01/31 06:26:43.1	92.590	0.280	-0.770	1.530
2020/01/31 06:26:43.2	92.590	0.290	-0.810	1.530
2020/01/31 06:26:43.3	92.590	0.300	-0.850	1.530
2020/01/31 06:26:43.4	92.580	0.310	-0.890	1.540
2020/01/31 06:26:43.5	92.580	0.320	-0.910	1.540
2020/01/31 06:26:43.6	92.570	0.330	-0.940	1.540
2020/01/31 06:26:43.7	92.570	0.340	-0.950	1.550
2020/01/31 06:26:43.8	92.560	0.340	-0.960	1.550
2020/01/31 06:26:43.9	92.550	0.350	-0.960	1.550
2020/01/31 06:26:44.0	92.540	0.350	-0.950	1.550
2020/01/31 06:26:44.1	92.530	0.360	-0.940	1.550
2020/01/31 06:26:44.2	92.510	0.360	-0.910	1.560
2020/01/31 06:26:44.3	92.500	0.350	-0.880	1.550
2020/01/31 06:26:44.4	92.490	0.350	-0.850	1.550
2020/01/31 06:26:44.5	92.470	0.340	-0.800	1.540
2020/01/31 06:26:44.6	92.460	0.330	-0.750	1.530
2020/01/31 06:26:44.7	92.450	0.320	-0.700	1.520
2020/01/31 06:26:44.8	92.440	0.300	-0.640	1.510
2020/01/31 06:26:44.9	92.430	0.280	-0.570	1.490
2020/01/31 06:26:45.0	92.420	0.260	-0.500	1.470
2020/01/31 06:26:45.1	92.410	0.230	-0.420	1.450
2020/01/31 06:26:45.2	92.400	0.200	-0.340	1.420
2020/01/31 06:26:45.3	92.400	0.170	-0.260	1.390
2020/01/31 06:26:45.4	92.390	0.140	-0.170	1.360
2020/01/31 06:26:45.5	92.390	0.100	-0.090	1.330
2020/01/31 06:26:45.6	92.390	0.060	-0.000	1.300
2020/01/31 06:26:45.7	92.400	0.020	0.080	1.260
2020/01/31 06:26:45.8	92.400	-0.020	0.160	1.220
2020/01/31 06:26:45.9	92.410	-0.060	0.240	1.180
2020/01/31 06:26:46.0	92.410	-0.100	0.320	1.130
2020/01/31 06:26:46.1	92.420	-0.150	0.390	1.090
2020/01/31 06:26:46.2	92.420	-0.190	0.460	1.040
2020/01/31 06:26:46.3	92.430	-0.240	0.530	1.000
2020/01/31 06:26:46.4	92.440	-0.280	0.580	0.950
2020/01/31 06:26:46.5	92.460	-0.320	0.630	0.910
2020/01/31 06:26:46.6	92.470	-0.360	0.680	0.860
2020/01/31 06:26:46.7	92.480	-0.400	0.710	0.820
2020/01/31 06:26:46.8	92.490	-0.430	0.740	0.770
2020/01/31 06:26:46.9	92.510	-0.470	0.760	0.730
2020/01/31 06:26:47.0	92.520	-0.500	0.770	0.690
2020/01/31 06:26:47.1	92.530	-0.520	0.770	0.650
2020/01/31 06:26:47.2	92.540	-0.550	0.760	0.610
2020/01/31 06:26:47.3	92.550	-0.560	0.750	0.580
2020/01/31 06:26:47.4	92.560	-0.580	0.720	0.540
2020/01/31 06:26:47.5	92.570	-0.590	0.690	0.510
2020/01/31 06:26:47.6	92.580	-0.600	0.650	0.480
2020/01/31 06:26:47.7	92.580	-0.600	0.610	0.440
2020/01/31 06:26:47.8	92.590	-0.600	0.560	0.420
2020/01/31 06:26:47.9	92.590	-0.600	0.500	0.390
2020/01/31 06:26:48.0	92.600	-0.590	0.430	0.360
2020/01/31 06:26:48.1	92.600	-0.570	0.360	0.340
2020/01/31 06:26:48.2	92.610	-0.550	0.290	0.310
2020/01/31 06:26:48.3	92.610	-0.530	0.210	0.290
2020/01/31 06:26:48.4	92.620	-0.510	0.130	0.270
2020/01/31 06:26:48.5	92.620	-0.480	0.040	0.250
2020/01/31 06:26:48.6	92.620	-0.450	-0.040	0.230
2020/01/31 06:26:48.7	92.620	-0.420	-0.130	0.210
2020/01/31 06:26:48.8	92.620	-0.380	-0.220	0.190
2020/01/31 06:26:48.9	92.630	-0.340	-0.310	0.180
2020/01/31 06:26:49.0	92.630	-0.300	-0.400	0.160
2020/01/31 06:26:49.1	92.630	-0.260	-0.480	0.150
2020/01/31 06:26:49.2	92.640	-0.220	-0.570	0.140
2020/01/31 06:26:49.3	92.640	-0.180	-0.650	0.140
2020/01/31 06:26:49.4	92.640	-0.140	-0.720	0.130
2020/01/31 06:26:49.5	92.630	-0.100	-0.800	0.120
2020/01/31 06:26:49.6	92.630	-0.070	-0.860	0.120
2020/01/31 06:26:49.7	92.630	-0.030	-0.920	0.120
2020/01/31 06:26:49.8	92.620	0.010	-0.980	0.110
2020/01/31 06:26:49.9	92.620	0.040	-1.030	0.110
2020/01/31 06:26:50.0	92.620	0.070	-1.070	0.110
2020/01/31 06:26:50.1	92.610	0.100	-1.100	0.120
2020/01/31 06:26:50.2	92.620	0.120	-1.120	0.120
2020/01/31 06:26:50.3	92.620	0.140	-1.140	0.120
2020/01/31 06:26:50.4	92.610	0.160	-1.140	0.130
2020/01/31 06:26:50.5	92.610	0.170	-1.140	0.130
2020/01/31 06:26:50.6	92.610	0.180	-1.130	0.140
2020/01/31 06:26:50.7	92.600	0.190	-1.100	0.150
2020/01/31 06:26:50.8	92.600	0.190	-1.070	0.160
2020/01/31 06:26:50.9	92.600	0.190	-1.040	0.170
2020/01/31 06:26:51.0	92.590	0.190	-0.990	0.180
2020/01/31 06:26:51.1	92.590	0.180	-0.930	0.200
2020/01/31 06:26:51.2	92.600	0.170	-0.870	0.220
2020/01/31 06:26:51.3	92.600	0.160	-0.800	0.230
2020/01/31 06:26:51.4	92.600	0.140	-0.720	0.250
2020/01/31 06:26:51.5	92.590	0.120	-0.640	0.270
2020/01/31 06:26:51.6	92.590	0.100	-0.550	0.290
2020/01/31 06:26:51.7	92.580	0.080	-0.460	0.310
2020/01/31 06:26:51.8	92.580	0.050	-0.370	0.340
2020/01/31 06:26:51.9	92.570	0.020	-0.270	0.360
2020/01/31 06:26:52.0	92.570	-0.010	-0.180	0.380
2020/01/31 06:26:52.1	92.560	-0.030	-0.080	0.410
2020/01/31 06:26:52.2	92.550	-0.060	0.020	0.430
2020/01/31 06:26:52.3	92.550	-0.090	0.110	0.460
2020/01/31 06:26:52.4	92.540	-0.120	0.200	0.480
2020/01/31 06:26:52.5	92.540	-0.150	0.280	0.510
2020/01/31 06:26:52.6	92.530	-0.170	0.360	0.530
2020/01/31 06:26:52.7	92.530	-0.200	0.430	0.560
2020/01/31 06:26:52.8	92.520	-0.220	0.500	0.580
2020/01/31 06:26:52.9	92.520	-0.240	0.560	0.600
2020/01/31 06:26:53.0	92.520	-0.260	0.610	0.620
2020/01/31 06:26:53.1	92.510	-0.270	0.650	0.640
2020/01/31 06:26:53.2	92.500	-0.280	0.680	0.660
2020/01/31 06:26:53.3	92.500	-0.290	0.700	0.680
2020/01/31 06:26:53.4	92.500	-0.290	0.710	0.690
2020/01/31 06:26:53.5	92.500	-0.290	0.720	0.710
2020/01/31 06:26:53.6	92.500	-0.280	0.710	0.720
2020/01/31 06:26:53.7	92.500	-0.270	0.690	0.730
2020/01/31 06:26:53.8	92.500	-0.260	0.670	0.730
2020/01/31 06:26:53.9	92.500	-0.240	0.630	0.740
2020/01/31 06:26:54.0	92.510	-0.220	0.590	0.740
2020/01/31 06:26:54.1	92.510	-0.190	0.540	0.740
2020/01/31 06:26:54.2	92.520	-0.170	0.470	0.740
2020/01/31 06:26:54.3	92.520	-0.140	0.410	0.730
2020/01/31 06:26:54.4	92.530	-0.100	0.340	0.730
2020/01/31 06:26:54.5	92.540	-0.070	0.270	0.720
2020/01/31 06:26:54.6	92.540	-0.030	0.190	0.710
2020/01/31 06:26:54.7	92.550	0.010	0.110	0.700
2020/01/31 06:26:54.8	92.560	0.050	0.030	0.690
2020/01/31 06:26:54.9	92.560	0.090	-0.050	0.680
2020/01/31 06:26:55.0	92.570	0.130	-0.140	0.670
2020/01/31 06:26:55.1	92.580	0.170	-0.220	0.660
2020/01/31 06:26:55.2	92.590	0.210	-0.290	0.660
2020/01/31 06:26:55.3	92.600	0.240	-0.370	0.650
2020/01/31 06:26:55.4	92.600	0.280	-0.440	0.640
2020/01/31 06:26:55.5	92.610	0.310	-0.510	0.640
2020/01/31 06:26:55.6	92.610	0.350	-0.570	0.630
2020/01/31 06:26:55.7	92.620	0.380	-0.630	0.630
2020/01/31 06:26:55.8	92.620	0.400	-0.680	0.630
2020/01/31 06:26:55.9	92.630	0.430	-0.720	0.640
2020/01/31 06:26:56.0	92.630	0.450	-0.760	0.640
2020/01/31 06:26:56.1	92.640	0.470	-0.790	0.650
2020/01/31 06:26:56.2	92.650	0.480	-0.810	0.660
2020/01/31 06:26:56.3	92.650	0.490	-0.830	0.670
2020/01/31 06:26:56.4	92.660	0.500	-0.840	0.680
2020/01/31 06:26:56.5	92.660	0.510	-0.840	0.690
2020/01/31 06:26:56.6	92.660	0.510	-0.830	0.710
2020/01/31 06:26:56.7	92.670	0.500	-0.820	0.720
2020/01/31 06:26:56.8	92.670	0.500	-0.800	0.730
2020/01/31 06:26:56.9	92.670	0.490	-0.770	0.750
2020/01/31 06:26:57.0	92.680	0.470	-0.740	0.760
2020/01/31 06:26:57.1	92.690	0.460	-0.700	0.780
2020/01/31 06:26:57.2	92.680	0.440	-0.660	0.780
2020/01/31 06:26:57.3	92.690	0.410	-0.610	0.800
2020/01/31 06:26:57.4	92.700	0.390	-0.560	0.810
2020/01/31 06:26:57.5	92.700	0.360	-0.500	0.830
2020/01/31 06:26:57.6	92.710	0.340	-0.440	0.840
2020/01/31 06:26:57.7	92.720	0.310	-0.380	0.850
2020/01/31 06:26:57.8	92.730	0.270	-0.320	0.860
2020/01/31 06:26:57.9	92.740	0.240	-0.260	0.870
2020/01/31 06:26:58.0	92.750	0.210	-0.190	0.880
2020/01/31 06:26:58.1	92.760	0.180	-0.130	0.890
2020/01/31 06:26:58.2	92.770	0.140	-0.070	0.910
2020/01/31 06:26:58.3	92.780	0.110	-0.010	0.920
2020/01/31 06:26:58.4	92.790	0.070	0.050	0.920
2020/01/31 06:26:58.5	92.790	0.040	0.100	0.930
2020/01/31 06:26:58.6	92.800	0.010	0.160	0.940
2020/01/31 06:26:58.7	92.800	-0.030	0.200	0.950
2020/01/31 06:26:58.8	92.800	-0.060	0.250	0.970
2020/01/31 06:26:58.9	92.800	-0.090	0.290	0.980
2020/01/31 06:26:59.0	92.800	-0.110	0.320	0.990
2020/01/31 06:26:59.1	92.790	-0.140	0.350	1.010
2020/01/31 06:26:59.2	92.780	-0.170	0.380	1.020
2020/01/31 06:26:59.3	92.770	-0.190	0.400	1.040
2020/01/31 06:26:59.4	92.760	-0.210	0.410	1.060
2020/01/31 06:26:59.5	92.740	-0.230	0.420	1.080
2020/01/31 06:26:59.6	92.720	-0.250	0.430	1.100
2020/01/31 06:26:59.7	92.700	-0.260	0.430	1.120
2020/01/31 06:26:59.8	92.670	-0.280	0.430	1.140
2020/01/31 06:26:59.9	92.650	-0.290	0.420	1.160
2020/01/31 06:27:00.0	92.620	-0.300	0.400	1.180
2020/01/31 06:27:00.1	92.590	-0.310	0.390	1.200
2020/01/31 06:27:00.2	92.560	-0.310	0.370	1.220
2020/01/31 06:27:00.3	92.530	-0.320	0.340	1.240
2020/01/31 06:27:00.4	92.500	-0.320	0.310	1.260
2020/01/31 06:27:00.5	92.470	-0.320	0.280	1.270
2020/01/31 06:27:00.6	92.450	-0.320	0.240	1.280
2020/01/31 06:27:00.7	92.420	-0.320	0.200	1.290
2020/01/31 06:27:00.8	92.390	-0.310	0.160	1.300
2020/01/31 06:27:00.9	92.370	-0.310	0.110	1.300
2020/01/31 06:27:01.0	92.340	-0.300	0.060	1.300
2020/01/31 06:27:01.1	92.330	-0.290	0.020	1.300
2020/01/31 06:27:01.2	92.300	-0.280	-0.040	1.280
2020/01/31 06:27:01.3	92.290	-0.270	-0.090	1.270
2020/01/31 06:27:01.4	92.280	-0.260	-0.140	1.260
2020/01/31 06:27:01.5	92.270	-0.250	-0.190	1.240
2020/01/31 06:27:01.6	92.260	-0.230	-0.240	1.220
2020/01/31 06:27:01.7	92.260	-0.220	-0.290	1.200
2020/01/31 06:27:01.8	92.260	-0.200	-0.340	1.170
2020/01/31 06:27:01.9	92.270	-0.180	-0.390	1.140
2020/01/31 06:27:02.0	92.270	-0.160	-0.440	1.110
2020/01/31 06:27:02.1	92.280	-0.140	-0.480	1.080
2020/01/31 06:27:02.2	92.300	-0.120	-0.530	1.040
2020/01/31 06:27:02.3	92.310	-0.100	-0.570	1.010
2020/01/31 06:27:02.4	92.330	-0.080	-0.600	0.970
2020/01/31 06:27:02.5	92.350	-0.060	-0.640	0.940
2020/01/31 06:27:02.6	92.360	-0.040	-0.660	0.900
2020/01/31 06:27:02.7	92.380	-0.020	-0.690	0.860
2020/01/31 06:27:02.8	92.400	-0.000	-0.710	0.830
2020/01/31 06:27:02.9	92.420	0.020	-0.720	0.790
2020/01/31 06:27:03.0	92.440	0.040	-0.730	0.760
2020/01/31 06:27:03.1	92.450	0.050	-0.740	0.730
2020/01/31 06:27:03.2	92.480	0.070	-0.730	0.700
2020/01/31 06:27:03.3	92.490	0.080	-0.730	0.680
2020/01/31 06:27:03.4	92.510	0.100	-0.720	0.650
2020/01/31 06:27:03.5	92.520	0.110	-0.700	0.630
2020/01/31 06:27:03.6	92.530	0.120	-0.680	0.600
2020/01/31 06:27:03.7	92.540	0.130	-0.660	0.580
2020/01/31 06:27:03.8	92.540	0.140	-0.630	0.570
2020/01/31 06:27:03.9	92.550	0.140	-0.600	0.550
2020/01/31 06:27:04.0	92.560	0.150	-0.560	0.530
2020/01/31 06:27:04.1	92.560	0.150	-0.520	0.510
2020/01/31 06:27:04.2	92.570	0.150	-0.480	0.500
2020/01/31 06:27:04.3	92.570	0.140	-0.430	0.490
2020/01/31 06:27:04.4	92.570	0.140	-0.380	0.470
2020/01/31 06:27:04.5	92.570	0.130	-0.330	0.460
2020/01/31 06:27:04.6	92.560	0.120	-0.270	0.450
2020/01/31 06:27:04.7	92.560	0.110	-0.220	0.440
2020/01/31 06:27:04.8	92.560	0.100	-0.170	0.420
2020/01/31 06:27:04.9	92.550	0.080	-0.110	0.410
2020/01/31 06:27:05.0	92.550	0.070	-0.060	0.400
2020/01/31 06:27:05.1	92.540	0.050	-0.000	0.390
2020/01/31 06:27:05.2	92.540	0.030	0.050	0.380
2020/01/31 06:27:05.3	92.530	0.010	0.100	0.370
2020/01/31 06:27:05.4	92.530	-0.010	0.150	0.360
2020/01/31 06:27:05.5	92.520	-0.030	0.190	0.350
2020/01/31 06:27:05.6	92.520	-0.050	0.230	0.340
2020/01/31 06:27:05.7	92.510	-0.070	0.270	0.320
2020/01/31 06:27:05.8	92.500	-0.090	0.300	0.310
2020/01/31 06:27:05.9	92.500	-0.110	0.320	0.300
2020/01/31 06:27:06.0	92.490	-0.130	0.340	0.290
2020/01/31 06:27:06.1	92.480	-0.150	0.360	0.280
2020/01/31 06:27:06.2	92.480	-0.170	0.370	0.260
2020/01/31 06:27:06.3	92.470	-0.180	0.370	0.250
2020/01/31 06:27:06.4	92.470	-0.200	0.370	0.240
2020/01/31 06:27:06.5	92.460	-0.210	0.360	0.230
2020/01/31 06:27:06.6	92.460	-0.220	0.350	0.220
2020/01/31 06:27:06.7	92.460	-0.220	0.330	0.210
2020/01/31 06:27:06.8	92.460	-0.230	0.310	0.200
2020/01/31 06:27:06.9	92.450	-0.230	0.280	0.190
2020/01/31 06:27:07.0	92.450	-0.230	0.250	0.180
2020/01/31 06:27:07.1	92.450	-0.220	0.210	0.180
2020/01/31 06:27:07.2	92.460	-0.220	0.170	0.180
2020/01/31 06:27:07.3	92.460	-0.210	0.130	0.170
2020/01/31 06:27:07.4	92.460	-0.200	0.080	0.170
2020/01/31 06:27:07.5	92.470	-0.180	0.030	0.180
2020/01/31 06:27:07.6	92.470	-0.170	-0.020	0.180
2020/01/31 06:27:07.7	92.470	-0.150	-0.070	0.190
2020/01/31 06:27:07.8	92.470	-0.130	-0.120	0.200
2020/01/31 06:27:07.9	92.470	-0.110	-0.170	0.210
2020/01/31 06:27:08.0	92.470	-0.090	-0.210	0.220
2020/01/31 06:27:08.1	92.460	-0.070	-0.260	0.240
2020/01/31 06:27:08.2	92.470	-0.040	-0.310	0.260
2020/01/31 06:27:08.3	92.470	-0.020	-0.350	0.280
2020/01/31 06:27:08.4	92.460	0.010	-0.390	0.300
2020/01/31 06:27:08.5	92.460	0.030	-0.420	0.320
2020/01/31 06:27:08.6	92.460	0.060	-0.450	0.350
2020/01/31 06:27:08.7	92.450	0.080	-0.480	0.380
2020/01/31 06:27:08.8	92.440	0.100	-0.500	0.400
2020/01/31 06:27:08.9	92.440	0.120	-0.520	0.430
2020/01/31 06:27:09.0	92.430	0.140	-0.530	0.460
2020/01/31 06:27:09.1	92.420	0.160	-0.540	0.490
2020/01/31 06:27:09.2	92.410	0.170	-0.540	0.520
2020/01/31 06:27:09.3	92.400	0.180	-0.540	0.550
2020/01/31 06:27:09.4	92.390	0.190	-0.530	0.580
2020/01/31 06:27:09.5	92.380	0.200	-0.520	0.610
2020/01/31 06:27:09.6	92.370	0.200	-0.510	0.630
2020/01/31 06:27:09.7	92.360	0.210	-0.490	0.660
2020/01/31 06:27:09.8	92.350	0.210	-0.470	0.680
2020/01/31 06:27:09.9	92.340	0.200	-0.450	0.710
2020/01/31 06:27:10.0	92.330	0.200	-0.420	0.730
2020/01/31 06:27:10.1	92.330	0.190	-0.390	0.750
2020/01/31 06:27:10.2	92.300	0.180	-0.360	0.780
2020/01/31 06:27:10.3	92.300	0.170	-0.330	0.800
2020/01/31 06:27:10.4	92.290	0.160	-0.290	0.810
2020/01/31 06:27:10.5	92.280	0.150	-0.260	0.830
2020/01/31 06:27:10.6	92.280	0.130	-0.230	0.840
2020/01/31 06:27:10.7	92.270	0.110	-0.200	0.850
2020/01/31 06:27:10.8	92.270	0.100	-0.170	0.860
2020/01/31 06:27:10.9	92.270	0.080	-0.150	0.870
2020/01/31 06:27:11.0	92.260	0.060	-0.120	0.880
2020/01/31 06:27:11.1	92.260	0.050	-0.100	0.880
2020/01/31 06:27:11.2	92.260	0.030	-0.080	0.880
2020/01/31 06:27:11.3	92.260	0.020	-0.060	0.880
2020/01/31 06:27:11.4	92.270	0.010	-0.050	0.880
2020/01/31 06:27:11.5	92.270	-0.010	-0.040	0.880
2020/01/31 06:27:11.6	92.270	-0.010	-0.030	0.880
2020/01/31 06:27:11.7	92.280	-0.020	-0.030	0.870
2020/01/31 06:27:11.8	92.280	-0.030	-0.030	0.870
2020/01/31 06:27:11.9	92.290	-0.030	-0.030	0.860
2020/01/31 06:27:12.0	92.290	-0.030	-0.040	0.850
2020/01/31 06:27:12.1	92.290	-0.030	-0.050	0.850
2020/01/31 06:27:12.2	92.300	-0.030	-0.060	0.850
2020/01/31 06:27:12.3	92.300	-0.020	-0.070	0.840
2020/01/31 06:27:12.4	92.300	-0.010	-0.080	0.840
2020/01/31 06:27:12.5	92.300	-0.000	-0.100	0.830
2020/01/31 06:27:12.6	92.300	0.010	-0.120	0.830
2020/01/31 06:27:12.7	92.300	0.020	-0.130	0.830
2020/01/31 06:27:12.8	92.290	0.040	-0.150	0.830
2020/01/31 06:27:12.9	92.290	0.050	-0.160	0.840
2020/01/31 06:27:13.0	92.280	0.070	-0.170	0.840
2020/01/31 06:27:13.1	92.270	0.080	-0.190	0.850
2020/01/31 06:27:13.2	92.250	0.100	-0.200	0.860
2020/01/31 06:27:13.3	92.240	0.110	-0.200	0.870
2020/01/31 06:27:13.4	92.230	0.130	-0.210	0.880
2020/01/31 06:27:13.5	92.210	0.140	-0.210	0.890
2020/01/31 06:27:13.6	92.200	0.150	-0.210	0.900
2020/01/31 06:27:13.7	92.190	0.170	-0.210	0.920
2020/01/31 06:27:13.8	92.170	0.170	-0.200	0.930
2020/01/31 06:27:13.9	92.160	0.180	-0.190	0.940
2020/01/31 06:27:14.0	92.150	0.190	-0.180	0.960
2020/01/31 06:27:14.1	92.130	0.190	-0.170	0.970
2020/01/31 06:27:14.2	92.110	0.190	-0.150	0.980
2020/01/31 06:27:14.3	92.100	0.190	-0.130	0.990
2020/01/31 06:27:14.4	92.090	0.180	-0.110	1.000
2020/01/31 06:27:14.5	92.080	0.180	-0.090	1.010
2020/01/31 06:27:14.6	92.080	0.170	-0.070	1.010
2020/01/31 06:27:14.7	92.070	0.160	-0.050	1.020
2020/01/31 06:27:14.8	92.070	0.150	-0.030	1.020
2020/01/31 06:27:14.9	92.070	0.130	-0.010	1.020
2020/01/31 06:27:15.0	92.070	0.110	0.010	1.020
2020/01/31 06:27:15.1	92.070	0.090	0.030	1.020
2020/01/31 06:27:15.2	92.070	0.070	0.040	1.010
2020/01/31 06:27:15.3	92.080	0.050	0.060	1.010
2020/01/31 06:27:15.4	92.090	0.030	0.070	0.990
2020/01/31 06:27:15.5	92.100	0.010	0.080	0.980
2020/01/31 06:27:15.6	92.110	-0.010	0.090	0.970
2020/01/31 06:27:15.7	92.120	-0.040	0.090	0.950
2020/01/31 06:27:15.8	92.140	-0.060	0.090	0.930
2020/01/31 06:27:15.9	92.160	-0.080	0.080	0.910
2020/01/31 06:27:16.0	92.180	-0.100	0.080	0.890
2020/01/31 06:27:16.1	92.200	-0.120	0.060	0.870
2020/01/31 06:27:16.2	92.210	-0.140	0.050	0.840
2020/01/31 06:27:16.3	92.230	-0.160	0.030	0.820
2020/01/31 06:27:16.4	92.250	-0.170	0.010	0.790
2020/01/31 06:27:16.5	92.270	-0.190	-0.010	0.770
2020/01/31 06:27:16.6	92.290	-0.200	-0.040	0.740
2020/01/31 06:27:16.7	92.310	-0.210	-0.070	0.720
2020/01/31 06:27:16.8	92.330	-0.220	-0.100	0.700
2020/01/31 06:27:16.9	92.350	-0.220	-0.140	0.680
2020/01/31 06:27:17.0	92.360	-0.220	-0.170	0.660
2020/01/31 06:27:17.1	92.380	-0.220	-0.210	0.640
2020/01/31 06:27:17.2	92.380	-0.220	-0.250	0.620
2020/01/31 06:27:17.3	92.400	-0.220	-0.290	0.610
2020/01/31 06:27:17.4	92.400	-0.210	-0.330	0.600
2020/01/31 06:27:17.5	92.410	-0.200	-0.360	0.590
2020/01/31 06:27:17.6	92.410	-0.190	-0.400	0.590
2020/01/31 06:27:17.7	92.420	-0.180	-0.430	0.580
2020/01/31 06:27:17.8	92.420	-0.170	-0.460	0.580
2020/01/31 06:27:17.9	92.410	-0.160	-0.490	0.590
2020/01/31 06:27:18.0	92.410	-0.150	-0.510	0.600
2020/01/31 06:27:18.1	92.400	-0.130	-0.530	0.610
2020/01/31 06:27:18.2	92.390	-0.120	-0.550	0.620
2020/01/31 06:27:18.3	92.380	-0.100	-0.560	0.640
2020/01/31 06:27:18.4	92.370	-0.090	-0.570	0.660
2020/01/31 06:27:18.5	92.360	-0.070	-0.580	0.680
2020/01/31 06:27:18.6	92.350	-0.060	-0.580	0.700
2020/01/31 06:27:18.7	92.330	-0.040	-0.570	0.730
2020/01/31 06:27:18.8	92.320	-0.030	-0.560	0.760
2020/01/31 06:27:18.9	92.300	-0.020	-0.550	0.790
2020/01/31 06:27:19.0	92.290	-0.010	-0.540	0.820
2020/01/31 06:27:19.1	92.270	0.000	-0.520	0.850
2020/01/31 06:27:19.2	92.250	0.010	-0.490	0.880
2020/01/31 06:27:19.3	92.230	0.020	-0.460	0.910
2020/01/31 06:27:19.4	92.220	0.020	-0.430	0.940
2020/01/31 06:27:19.5	92.210	0.030	-0.400	0.970
2020/01/31 06:27:19.6	92.200	0.030	-0.370	1.000
2020/01/31 06:27:19.7	92.180	0.030	-0.330	1.030
2020/01/31 06:27:19.8	92.170	0.040	-0.290	1.050
2020/01/31 06:27:19.9	92.170	0.040	-0.250	1.070
2020/01/31 06:27:20.0	92.160	0.040	-0.210	1.090
2020/01/31 06:27:20.1	92.150	0.030	-0.160	1.100
2020/01/31 06:27:20.2	92.150	0.030	-0.120	1.110
2020/01/31 06:27:20.3	92.140	0.030	-0.080	1.120
2020/01/31 06:27:20.4	92.140	0.020	-0.030	1.120
2020/01/31 06:27:20.5	92.140	0.020	0.010	1.120
2020/01/31 06:27:20.6	92.140	0.010	0.050	1.120
2020/01/31 06:27:20.7	92.140	0.010	0.090	1.110
2020/01/31 06:27:20.8	92.130	0.000	0.130	1.100
2020/01/31 06:27:20.9	92.130	-0.010	0.170	1.090
2020/01/31 06:27:21.0	92.130	-0.010	0.210	1.070
2020/01/31 06:27:21.1	92.140	-0.020	0.240	1.050
2020/01/31 06:27:21.2	92.130	-0.020	0.270	1.030
2020/01/31 06:27:21.3	92.130	-0.030	0.300	1.000
2020/01/31 06:27:21.4	92.130	-0.040	0.330	0.970
2020/01/31 06:27:21.5	92.130	-0.040	0.350	0.950
2020/01/31 06:27:21.6	92.130	-0.050	0.370	0.910
2020/01/31 06:27:21.7	92.130	-0.050	0.380	0.880
2020/01/31 06:27:21.8	92.130	-0.050	0.390	0.850
2020/01/31 06:27:21.9	92.140	-0.060	0.400	0.820
2020/01/31 06:27:22.0	92.140	-0.060	0.400	0.780
2020/01/31 06:27:22.1	92.140	-0.060	0.400	0.750
2020/01/31 06:27:22.2	92.130	-0.060	0.390	0.710
2020/01/31 06:27:22.3	92.140	-0.060	0.380	0.680
2020/01/31 06:27:22.4	92.140	-0.060	0.360	0.650
2020/01/31 06:27:22.5	92.140	-0.050	0.340	0.610
2020/01/31 06:27:22.6	92.140	-0.050	0.320	0.580
2020/01/31 06:27:22.7	92.150	-0.040	0.290	0.550
2020/01/31 06:27:22.8	92.150	-0.040	0.260	0.520
2020/01/31 06:27:22.9	92.150	-0.030	0.220	0.490
2020/01/31 06:27:23.0	92.160	-0.020	0.180	0.460
2020/01/31 06:27:23.1	92.160	-0.010	0.140	0.440
2020/01/31 06:27:23.2	92.170	-0.010	0.100	0.410
2020/01/31 06:27:23.3	92.170	0.000	0.050	0.390
2020/01/31 06:27:23.4	92.170	0.010	0.010	0.370
2020/01/31 06:27:23.5	92.170	0.020	-0.040	0.350
2020/01/31 06:27:23.6	92.180	0.030	-0.090	0.330
2020/01/31 06:27:23.7	92.180	0.040	-0.140	0.320
2020/01/31 06:27:23.8	92.180	0.050	-0.190	0.310
2020/01/31 06:27:23.9	92.180	0.060	-0.240	0.290
2020/01/31 06:27:24.0	92.180	0.070	-0.290	0.280
2020/01/31 06:27:24.1	92.180	0.080	-0.330	0.280
2020/01/31 06:27:24.2	92.170	0.090	-0.380	0.270
2020/01/31 06:27:24.3	92.170	0.090	-0.420	0.260
2020/01/31 06:27:24.4	92.170	0.100	-0.460	0.260
2020/01/31 06:27:24.5	92.170	0.110	-0.500	0.250
2020/01/31 06:27:24.6	92.160	0.110	-0.530	0.250
2020/01/31 06:27:24.7	92.160	0.110	-0.560	0.250
2020/01/31 06:27:24.8	92.160	0.120	-0.590	0.240
2020/01/31 06:27:24.9	92.160	0.120	-0.620	0.240
2020/01/31 06:27:25.0	92.150	0.120	-0.640	0.240
2020/01/31 06:27:25.1	92.150	0.120	-0.660	0.240
2020/01/31 06:27:25.2	92.150	0.120	-0.680	0.240
2020/01/31 06:27:25.3	92.150	0.120	-0.690	0.240
2020/01/31 06:27:25.4	92.140	0.110	-0.700	0.240
2020/01/31 06:27:25.5	92.140	0.110	-0.700	0.240
2020/01/31 06:27:25.6	92.140	0.110	-0.710	0.240
2020/01/31 06:27:25.7	92.130	0.100	-0.710	0.240
2020/01/31 06:27:25.8	92.130	0.100	-0.710	0.240
2020/01/31 06:27:25.9	92.130	0.100	-0.700	0.240
2020/01/31 06:27:26.0	92.120	0.090	-0.700	0.250
2020/01/31 06:27:26.1	92.120	0.090	-0.690	0.250
2020/01/31 06:27:26.2	92.130	0.090	-0.670	0.260
2020/01/31 06:27:26.3	92.130	0.090	-0.660	0.270
2020/01/31 06:27:26.4	92.130	0.080	-0.640	0.280
2020/01/31 06:27:26.5	92.130	0.080	-0.630	0.280
2020/01/31 06:27:26.6	92.130	0.080	-0.610	0.290
2020/01/31 06:27:26.7	92.130	0.080	-0.590	0.310
2020/01/31 06:27:26.8	92.130	0.090	-0.570	0.320
2020/01/31 06:27:26.9	92.140	0.090	-0.550	0.330
2020/01/31 06:27:27.0	92.140	0.090	-0.530	0.350
2020/01/31 06:27:27.1	92.140	0.100	-0.510	0.360
2020/01/31 06:27:27.2	92.150	0.110	-0.490	0.380
2020/01/31 06:27:27.3	92.160	0.110	-0.470	0.400
2020/01/31 06:27:27.4	92.170	0.120	-0.450	0.420
2020/01/31 06:27:27.5	92.180	0.130	-0.430	0.440
2020/01/31 06:27:27.6	92.180	0.140	-0.410	0.460
2020/01/31 06:27:27.7	92.190	0.160	-0.390	0.480
2020/01/31 06:27:27.8	92.200	0.170	-0.370	0.510
2020/01/31 06:27:27.9	92.210	0.180	-0.350	0.530
2020/01/31 06:27:28.0	92.220	0.190	-0.330	0.550
2020/01/31 06:27:28.1	92.230	0.200	-0.310	0.580
2020/01/31 06:27:28.2	92.250	0.220	-0.290	0.600
2020/01/31 06:27:28.3	92.260	0.230	-0.270	0.630
2020/01/31 06:27:28.4	92.270	0.240	-0.250	0.650
2020/01/31 06:27:28.5	92.290	0.250	-0.220	0.670
2020/01/31 06:27:28.6	92.300	0.260	-0.200	0.700
2020/01/31 06:27:28.7	92.310	0.260	-0.180	0.720
2020/01/31 06:27:28.8	92.320	0.270	-0.150	0.740
2020/01/31 06:27:28.9	92.340	0.270	-0.130	0.760
2020/01/31 06:27:29.0	92.350	0.270	-0.100	0.780
2020/01/31 06:27:29.1	92.370	0.270	-0.070	0.800
2020/01/31 06:27:29.2	92.370	0.270	-0.050	0.820
2020/01/31 06:27:29.3	92.390	0.260	-0.020	0.840
2020/01/31 06:27:29.4	92.400	0.250	0.010	0.860
2020/01/31 06:27:29.5	92.420	0.240	0.040	0.880
2020/01/31 06:27:29.6	92.430	0.230	0.080	0.900
2020/01/31 06:27:29.7	92.450	0.210	0.110	0.920
2020/01/31 06:27:29.8	92.460	0.190	0.140	0.940
2020/01/31 06:27:29.9	92.480	0.170	0.170	0.970
2020/01/31 06:27:30.0	92.490	0.150	0.200	0.990
2020/01/31 06:27:30.1	92.500	0.120	0.240	1.010
2020/01/31 06:27:30.2	92.500	0.100	0.270	1.030
2020/01/31 06:27:30.3	92.510	0.070	0.300	1.060
2020/01/31 06:27:30.4	92.520	0.040	0.330	1.080
2020/01/31 06:27:30.5	92.530	0.000	0.350	1.100
2020/01/31 06:27:30.6	92.530	-0.030	0.380	1.130
2020/01/31 06:27:30.7	92.530	-0.060	0.400	1.150
2020/01/31 06:27:30.8	92.540	-0.100	0.420	1.180
2020/01/31 06:27:30.9	92.530	-0.130	0.440	1.210
2020/01/31 06:27:31.0	92.530	-0.170	0.460	1.230
2020/01/31 06:27:31.1	92.520	-0.200	0.470	1.260
2020/01/31 06:27:31.2	92.510	-0.240	0.490	1.280
2020/01/31 06:27:31.3	92.500	-0.270	0.500	1.310
2020/01/31 06:27:31.4	92.490	-0.300	0.510	1.330
2020/01/31 06:27:31.5	92.470	-0.330	0.510	1.350
2020/01/31 06:27:31.6	92.460	-0.360	0.510	1.370
2020/01/31 06:27:31.7	92.440	-0.390	0.520	1.380
2020/01/31 06:27:31.8	92.420	-0.420	0.510	1.400
2020/01/31 06:27:31.9	92.400	-0.440	0.510	1.410
2020/01/31 06:27:32.0	92.380	-0.470	0.500	1.420
2020/01/31 06:27:32.1	92.360	-0.490	0.490	1.430
2020/01/31 06:27:32.2	92.340	-0.510	0.470	1.440
2020/01/31 06:27:32.3	92.310	-0.520	0.450	1.440
2020/01/31 06:27:32.4	92.290	-0.540	0.430	1.440
2020/01/31 06:27:32.5	92.260	-0.550	0.410	1.440
2020/01/31 06:27:32.6	92.240	-0.560	0.380	1.440
2020/01/31 06:27:32.7	92.210	-0.560	0.350	1.440
2020/01/31 06:27:32.8	92.190	-0.570	0.320	1.430
2020/01/31 06:27:32.9	92.170	-0.570	0.280	1.430
2020/01/31 06:27:33.0	92.140	-0.560	0.250	1.410
2020/01/31 06:27:33.1	92.120	-0.560	0.200	1.400
2020/01/31 06:27:33.2	92.100	-0.550	0.160	1.390
2020/01/31 06:27:33.3	92.080	-0.540	0.120	1.370
2020/01/31 06:27:33.4	92.070	-0.530	0.070	1.350
2020/01/31 06:27:33.5	92.050	-0.520	0.010	1.330
2020/01/31 06:27:33.6	92.040	-0.500	-0.040	1.310
2020/01/31 06:27:33.7	92.030	-0.480	-0.100	1.280
2020/01/31 06:27:33.8	92.020	-0.460	-0.160	1.250
2020/01/31 06:27:33.9	92.020	-0.430	-0.220	1.220
2020/01/31 06:27:34.0	92.020	-0.410	-0.280	1.190
2020/01/31 06:27:34.1	92.020	-0.380	-0.340	1.160
2020/01/31 06:27:34.2	92.030	-0.350	-0.410	1.130
2020/01/31 06:27:34.3	92.040	-0.320	-0.470	1.090
2020/01/31 06:27:34.4	92.050	-0.290	-0.540	1.060
2020/01/31 06:27:34.5	92.060	-0.260	-0.600	1.020
2020/01/31 06:27:34.6	92.070	-0.220	-0.660	0.980
2020/01/31 06:27:34.7	92.090	-0.190	-0.720	0.940
2020/01/31 06:27:34.8	92.110	-0.150	-0.780	0.900
2020/01/31 06:27:34.9	92.130	-0.120	-0.830	0.850
2020/01/31 06:27:35.0	92.150	-0.080	-0.880	0.810
2020/01/31 06:27:35.1	92.170	-0.040	-0.930	0.770
2020/01/31 06:27:35.2	92.190	-0.010	-0.960	0.720
2020/01/31 06:27:35.3	92.210	0.030	-1.000	0.680
2020/01/31 06:27:35.4	92.240	0.060	-1.030	0.630
2020/01/31 06:27:35.5	92.260	0.090	-1.050	0.580
2020/01/31 06:27:35.6	92.280	0.120	-1.070	0.530
2020/01/31 06:27:35.7	92.300	0.150	-1.080	0.490
2020/01/31 06:27:35.8	92.330	0.180	-1.090	0.440
2020/01/31 06:27:35.9	92.350	0.210	-1.090	0.390
2020/01/31 06:27:36.0	92.360	0.230	-1.080	0.340
2020/01/31 06:27:36.1	92.380	0.250	-1.060	0.300
2020/01/31 06:27:36.2	92.410	0.270	-1.040	0.260
2020/01/31 06:27:36.3	92.420	0.290	-1.010	0.210
2020/01/31 06:27:36.4	92.430	0.310	-0.980	0.170
2020/01/31 06:27:36.5	92.440	0.320	-0.940	0.130
2020/01/31 06:27:36.6	92.450	0.330	-0.890	0.090
2020/01/31 06:27:36.7	92.450	0.340	-0.840	0.050
2020/01/31 06:27:36.8	92.460	0.350	-0.790	0.010
2020/01/31 06:27:36.9	92.460	0.350	-0.730	-0.030
2020/01/31 06:27:37.0	92.450	0.360	-0.670	-0.060
2020/01/31 06:27:37.1	92.450	0.360	-0.600	-0.090
2020/01/31 06:27:37.2	92.470	0.360	-0.530	-0.120
2020/01/31 06:27:37.3	92.460	0.360	-0.460	-0.150
2020/01/31 06:27:37.4	92.460	0.350	-0.390	-0.170
2020/01/31 06:27:37.5	92.450	0.350	-0.320	-0.190
2020/01/31 06:27:37.6	92.440	0.340	-0.260	-0.210
2020/01/31 06:27:37.7	92.430	0.340	-0.190	-0.230
2020/01/31 06:27:37.8	92.420	0.330	-0.120	-0.240
2020/01/31 06:27:37.9	92.410	0.320	-0.060	-0.250
2020/01/31 06:27:38.0	92.390	0.310	0.010	-0.260
2020/01/31 06:27:38.1	92.380	0.300	0.060	-0.260
2020/01/31 06:27:38.2	92.360	0.300	0.120	-0.260
2020/01/31 06:27:38.3	92.350	0.290	0.170	-0.260
2020/01/31 06:27:38.4	92.340	0.280	0.220	-0.250
2020/01/31 06:27:38.5	92.320	0.270	0.260	-0.240
2020/01/31 06:27:38.6	92.310	0.260	0.290	-0.230
2020/01/31 06:27:38.7	92.300	0.260	0.320	-0.210
2020/01/31 06:27:38.8	92.290	0.250	0.350	-0.200
2020/01/31 06:27:38.9	92.280	0.240	0.370	-0.180
2020/01/31 06:27:39.0	92.270	0.240	0.380	-0.160
2020/01/31 06:27:39.1	92.260	0.240	0.390	-0.130
2020/01/31 06:27:39.2	92.250	0.230	0.400	-0.110
2020/01/31 06:27:39.3	92.240	0.230	0.390	-0.080
2020/01/31 06:27:39.4	92.230	0.230	0.390	-0.060
2020/01/31 06:27:39.5	92.230	0.220	0.380	-0.030
2020/01/31 06:27:39.6	92.220	0.220	0.370	0.000
2020/01/31 06:27:39.7	92.220	0.220	0.350	0.030
2020/01/31 06:27:39.8	92.210	0.220	0.330	0.070
2020/01/31 06:27:39.9	92.210	0.210	0.300	0.100
2020/01/31 06:27:40.0	92.210	0.210	0.280	0.130
2020/01/31 06:27:40.1	92.210	0.210	0.250	0.170
2020/01/31 06:27:40.2	92.200	0.200	0.220	0.200
2020/01/31 06:27:40.3	92.200	0.200	0.180	0.240
2020/01/31 06:27:40.4	92.200	0.190	0.150	0.280
2020/01/31 06:27:40.5	92.200	0.190	0.120	0.310
2020/01/31 06:27:40.6	92.200	0.180	0.080	0.350
2020/01/31 06:27:40.7	92.190	0.180	0.040	0.390
2020/01/31 06:27:40.8	92.190	0.170	0.010	0.430
2020/01/31 06:27:40.9	92.190	0.160	-0.030	0.470
2020/01/31 06:27:41.0	92.190	0.150	-0.070	0.510
2020/01/31 06:27:41.1	92.180	0.140	-0.100	0.550
2020/01/31 06:27:41.2	92.180	0.130	-0.140	0.590
2020/01/31 06:27:41.3	92.170	0.120	-0.180	0.630
2020/01/31 06:27:41.4	92.170	0.110	-0.210	0.670
2020/01/31 06:27:41.5	92.160	0.100	-0.250	0.710
2020/01/31 06:27:41.6	92.150	0.090	-0.280	0.750
2020/01/31 06:27:41.7	92.150	0.080	-0.310	0.790
2020/01/31 06:27:41.8	92.140	0.070	-0.340	0.830
2020/01/31 06:27:41.9	92.130	0.050	-0.370	0.860
2020/01/31 06:27:42.0	92.120	0.040	-0.400	0.900
2020/01/31 06:27:42.1	92.110	0.030	-0.420	0.930
2020/01/31 06:27:42.2	92.110	0.020	-0.450	0.970
2020/01/31 06:27:42.3	92.100	0.010	-0.460	1.000
2020/01/31 06:27:42.4	92.090	-0.000	-0.480	1.030
2020/01/31 06:27:42.5	92.090	-0.010	-0.490	1.070
2020/01/31 06:27:42.6	92.080	-0.030	-0.500	1.100
2020/01/31 06:27:42.7	92.080	-0.040	-0.510	1.130
2020/01/31 06:27:42.8	92.070	-0.050	-0.520	1.150
2020/01/31 06:27:42.9	92.070	-0.050	-0.520	1.180
2020/01/31 06:27:43.0	92.070	-0.060	-0.510	1.210
2020/01/31 06:27:43.1	92.070	-0.070	-0.510	1.230
2020/01/31 06:27:43.2	92.050	-0.080	-0.490	1.260
2020/01/31 06:27:43.3	92.050	-0.090	-0.480	1.290
2020/01/31 06:27:43.4	92.060	-0.090	-0.460	1.310
2020/01/31 06:27:43.5	92.060	-0.100	-0.440	1.330
2020/01/31 06:27:43.6	92.060	-0.100	-0.420	1.350
2020/01/31 06:27:43.7	92.070	-0.110	-0.390	1.370
2020/01/31 06:27:43.8	92.070	-0.110	-0.360	1.390
2020/01/31 06:27:43.9	92.080	-0.120	-0.330	1.410
2020/01/31 06:27:44.0	92.090	-0.120	-0.290	1.430
2020/01/31 06:27:44.1	92.090	-0.120	-0.260	1.450
2020/01/31 06:27:44.2	92.090	-0.130	-0.220	1.470
2020/01/31 06:27:44.3	92.100	-0.130	-0.180	1.480
2020/01/31 06:27:44.4	92.110	-0.140	-0.130	1.500
2020/01/31 06:27:44.5	92.110	-0.140	-0.090	1.520
2020/01/31 06:27:44.6	92.110	-0.150	-0.050	1.530
2020/01/31 06:27:44.7	92.120	-0.150	0.000	1.550
2020/01/31 06:27:44.8	92.120	-0.160	0.050	1.560
2020/01/31 06:27:44.9	92.130	-0.160	0.090	1.570
2020/01/31 06:27:45.0	92.130	-0.170	0.140	1.580
2020/01/31 06:27:45.1	92.140	-0.180	0.180	1.580
2020/01/31 06:27:45.2	92.130	-0.190	0.230	1.590
2020/01/31 06:27:45.3	92.140	-0.200	0.270	1.590
2020/01/31 06:27:45.4	92.140	-0.210	0.310	1.590
2020/01/31 06:27:45.5	92.150	-0.220	0.350	1.590
2020/01/31 06:27:45.6	92.160	-0.230	0.380	1.580
2020/01/31 06:27:45.7	92.160	-0.250	0.420	1.580
2020/01/31 06:27:45.8	92.170	-0.260	0.450	1.570
2020/01/31 06:27:45.9	92.180	-0.280	0.470	1.550
2020/01/31 06:27:46.0	92.180	-0.290	0.500	1.540
2020/01/31 06:27:46.1	92.190	-0.310	0.520	1.530
2020/01/31 06:27:46.2	92.190	-0.330	0.540	1.510
2020/01/31 06:27:46.3	92.190	-0.350	0.550	1.490
2020/01/31 06:27:46.4	92.200	-0.360	0.560	1.470
2020/01/31 06:27:46.5	92.210	-0.380	0.570	1.450
2020/01/31 06:27:46.6	92.220	-0.400	0.570	1.430
2020/01/31 06:27:46.7	92.220	-0.410	0.560	1.410
2020/01/31 06:27:46.8	92.230	-0.430	0.560	1.390
2020/01/31 06:27:46.9	92.240	-0.440	0.540	1.360
2020/01/31 06:27:47.0	92.250	-0.450	0.530	1.330
2020/01/31 06:27:47.1	92.260	-0.460	0.500	1.310
2020/01/31 06:27:47.2	92.290	-0.470	0.480	1.280
2020/01/31 06:27:47.3	92.300	-0.480	0.440	1.250
2020/01/31 06:27:47.4	92.310	-0.480	0.400	1.210
2020/01/31 06:27:47.5	92.330	-0.490	0.360	1.180
2020/01/31 06:27:47.6	92.340	-0.490	0.310	1.140
2020/01/31 06:27:47.7	92.360	-0.480	0.260	1.100
2020/01/31 06:27:47.8	92.380	-0.480	0.200	1.060
2020/01/31 06:27:47.9	92.390	-0.470	0.140	1.020
2020/01/31 06:27:48.0	92.410	-0.460	0.080	0.970
2020/01/31 06:27:48.1	92.430	-0.440	0.010	0.930
2020/01/31 06:27:48.2	92.440	-0.420	-0.070	0.890
2020/01/31 06:27:48.3	92.460	-0.400	-0.150	0.850
2020/01/31 06:27:48.4	92.470	-0.380	-0.230	0.810
2020/01/31 06:27:48.5	92.480	-0.350	-0.310	0.770
2020/01/31 06:27:48.6	92.490	-0.320	-0.390	0.730
2020/01/31 06:27:48.7	92.500	-0.290	-0.480	0.700
2020/01/31 06:27:48.8	92.500	-0.250	-0.560	0.660
2020/01/31 06:27:48.9	92.510	-0.220	-0.650	0.630
2020/01/31 06:27:49.0	92.510	-0.180	-0.730	0.610
2020/01/31 06:27:49.1	92.510	-0.140	-0.810	0.580
2020/01/31 06:27:49.2	92.510	-0.090	-0.890	0.560
2020/01/31 06:27:49.3	92.500	-0.050	-0.960	0.550
2020/01/31 06:27:49.4	92.490	-0.010	-1.030	0.530
2020/01/31 06:27:49.5	92.470	0.040	-1.100	0.520
2020/01/31 06:27:49.6	92.460	0.080	-1.150	0.510
2020/01/31 06:27:49.7	92.440	0.120	-1.200	0.510
2020/01/31 06:27:49.8	92.420	0.160	-1.250	0.500
2020/01/31 06:27:49.9	92.400	0.200	-1.280	0.500
2020/01/31 06:27:50.0	92.370	0.240	-1.310	0.500
2020/01/31 06:27:50.1	92.350	0.280	-1.330	0.500
2020/01/31 06:27:50.2	92.330	0.310	-1.340	0.500
2020/01/31 06:27:50.3	92.300	0.340	-1.340	0.500
2020/01/31 06:27:50.4	92.280	0.370	-1.340	0.510
2020/01/31 06:27:50.5	92.250	0.400	-1.320	0.510
2020/01/31 06:27:50.6	92.220	0.420	-1.290	0.520
2020/01/31 06:27:50.7	92.200	0.440	-1.260	0.530
2020/01/31 06:27:50.8	92.170	0.460	-1.220	0.540
2020/01/31 06:27:50.9	92.140	0.470	-1.170	0.540
2020/01/31 06:27:51.0	92.120	0.480	-1.120	0.550
2020/01/31 06:27:51.1	92.090	0.490	-1.060	0.560
2020/01/31 06:27:51.2	92.070	0.490	-0.990	0.570
2020/01/31 06:27:51.3	92.050	0.490	-0.920	0.580
2020/01/31 06:27:51.4	92.030	0.490	-0.840	0.590
2020/01/31 06:27:51.5	92.010	0.480	-0.760	0.590
2020/01/31 06:27:51.6	91.990	0.470	-0.680	0.600
2020/01/31 06:27:51.7	91.970	0.460	-0.600	0.600
2020/01/31 06:27:51.8	91.960	0.450	-0.520	0.600
2020/01/31 06:27:51.9	91.940	0.430	-0.440	0.600
2020/01/31 06:27:52.0	91.930	0.420	-0.350	0.600
2020/01/31 06:27:52.1	91.920	0.400	-0.270	0.600
2020/01/31 06:27:52.2	91.920	0.380	-0.190	0.600
2020/01/31 06:27:52.3	91.920	0.360	-0.120	0.590
2020/01/31 06:27:52.4	91.910	0.350	-0.040	0.580
2020/01/31 06:27:52.5	91.910	0.330	0.030	0.580
2020/01/31 06:27:52.6	91.910	0.310	0.090	0.560
2020/01/31 06:27:52.7	91.920	0.290	0.150	0.550
2020/01/31 06:27:52.8	91.920	0.270	0.210	0.540
2020/01/31 06:27:52.9	91.930	0.250	0.260	0.520
2020/01/31 06:27:53.0	91.930	0.230	0.310	0.510
2020/01/31 06:27:53.1	91.940	0.220	0.350	0.490
2020/01/31 06:27:53.2	91.960	0.200	0.390	0.480
2020/01/31 06:27:53.3	91.970	0.190	0.420	0.460
2020/01/31 06:27:53.4	91.980	0.170	0.440	0.440
2020/01/31 06:27:53.5	91.990	0.160	0.470	0.420
2020/01/31 06:27:53.6	92.010	0.150	0.480	0.400
2020/01/31 06:27:53.7	92.020	0.140	0.490	0.380
2020/01/31 06:27:53.8	92.030	0.140	0.500	0.360
2020/01/31 06:27:53.9	92.050	0.130	0.510	0.350
2020/01/31 06:27:54.0	92.060	0.130	0.500	0.330
2020/01/31 06:27:54.1	92.070	0.120	0.500	0.310
2020/01/31 06:27:54.2	92.080	0.120	0.490	0.290
2020/01/31 06:27:54.3	92.090	0.120	0.480	0.280
2020/01/31 06:27:54.4	92.100	0.120	0.470	0.260
2020/01/31 06:27:54.5	92.110	0.130	0.450	0.250
2020/01/31 06:27:54.6	92.120	0.130	0.430	0.240
2020/01/31 06:27:54.7	92.130	0.130	0.410	0.220
2020/01/31 06:27:54.8	92.140	0.140	0.390	0.210
2020/01/31 06:27:54.9	92.150	0.140	0.360	0.190
2020/01/31 06:27:55.0	92.150	0.150	0.330	0.180
2020/01/31 06:27:55.1	92.160	0.160	0.300	0.160
2020/01/31 06:27:55.2	92.160	0.160	0.270	0.140
2020/01/31 06:27:55.3	92.160	0.170	0.240	0.130
2020/01/31 06:27:55.4	92.180	0.170	0.210	0.110
2020/01/31 06:27:55.5	92.190	0.180	0.180	0.090
2020/01/31 06:27:55.6	92.200	0.180	0.150	0.070
2020/01/31 06:27:55.7	92.210	0.180	0.120	0.060
2020/01/31 06:27:55.8	92.230	0.180	0.090	0.040
2020/01/31 06:27:55.9	92.240	0.180	0.060	0.020
2020/01/31 06:27:56.0	92.260	0.180	0.030	0.010
2020/01/31 06:27:56.1	92.280	0.180	0.010	-0.000
2020/01/31 06:27:56.2	92.310	0.180	-0.020	-0.010
2020/01/31 06:27:56.3	92.330	0.170	-0.040	-0.020
2020/01/31 06:27:56.4	92.350	0.160	-0.060	-0.020
2020/01/31 06:27:56.5	92.370	0.150	-0.080	-0.020
2020/01/31 06:27:56.6	92.400	0.140	-0.100	-0.020
2020/01/31 06:27:56.7	92.420	0.130	-0.110	-0.020
2020/01/31 06:27:56.8	92.440	0.120	-0.130	-0.010
2020/01/31 06:27:56.9	92.460	0.100	-0.140	0.000
2020/01/31 06:27:57.0	92.490	0.080	-0.140	0.020
2020/01/31 06:27:57.1	92.510	0.070	-0.150	0.040
2020/01/31 06:27:57.2	92.530	0.050	-0.150	0.060
2020/01/31 06:27:57.3	92.550	0.020	-0.150	0.090
2020/01/31 06:27:57.4	92.570	0.000	-0.150	0.130
2020/01/31 06:27:57.5	92.600	-0.020	-0.140	0.160
2020/01/31 06:27:57.6	92.620	-0.050	-0.130	0.210
2020/01/31 06:27:57.7	92.640	-0.070	-0.120	0.250
2020/01/31 06:27:57.8	92.660	-0.100	-0.110	0.300
2020/01/31 06:27:57.9	92.680	-0.130	-0.100	0.360
2020/01/31 06:27:58.0	92.700	-0.150	-0.080	0.410
2020/01/31 06:27:58.1	92.720	-0.180	-0.070	0.470
2020/01/31 06:27:58.2	92.720	-0.210	-0.050	0.530
2020/01/31 06:27:58.3	92.740	-0.240	-0.040	0.600
2020/01/31 06:27:58.4	92.750	-0.270	-0.020	0.660
2020/01/31 06:27:58.5	92.760	-0.290	-0.010	0.730
2020/01/31 06:27:58.6	92.770	-0.320	0.010	0.800
2020/01/31 06:27:58.7	92.770	-0.340	0.020	0.870
2020/01/31 06:27:58.8	92.780	-0.370	0.030	0.940
2020/01/31 06:27:58.9	92.780	-0.390	0.040	1.010
2020/01/31 06:27:59.0	92.780	-0.410	0.050	1.080
2020/01/31 06:27:59.1	92.780	-0.430	0.050	1.150
2020/01/31 06:27:59.2	92.760	-0.450	0.050	1.210
2020/01/31 06:27:59.3	92.750	-0.470	0.050	1.280
2020/01/31 06:27:59.4	92.740	-0.480	0.040	1.350
2020/01/31 06:27:59.5	92.730	-0.490	0.030	1.420
2020/01/31 06:27:59.6	92.710	-0.500	0.020	1.490
2020/01/31 06:27:59.7	92.690	-0.510	0.000	1.550
2020/01/31 06:27:59.8	92.680	-0.510	-0.010	1.610
2020/01/31 06:27:59.9	92.660	-0.520	-0.040	1.670
2020/01/31 06:28:00.0	92.640	-0.520	-0.060	1.730
2020/01/31 06:28:00.1	92.620	-0.520	-0.090	1.790
2020/01/31 06:28:00.2	92.590	-0.510	-0.120	1.840
2020/01/31 06:28:00.3	92.570	-0.510	-0.150	1.890
2020/01/31 06:28:00.4	92.550	-0.500	-0.190	1.940
2020/01/31 06:28:00.5	92.530	-0.490	-0.220	1.980
2020/01/31 06:28:00.6	92.520	-0.470	-0.260	2.020
2020/01/31 06:28:00.7	92.500	-0.460	-0.300	2.060
2020/01/31 06:28:00.8	92.480	-0.440	-0.350	2.090
2020/01/31 06:28:00.9	92.460	-0.420	-0.390	2.130
2020/01/31 06:28:01.0	92.450	-0.400	-0.430	2.160
2020/01/31 06:28:01.1	92.440	-0.380	-0.480	2.190
2020/01/31 06:28:01.2	92.420	-0.360	-0.520	2.210
2020/01/31 06:28:01.3	92.410	-0.330	-0.560	2.240
2020/01/31 06:28:01.4	92.400	-0.300	-0.610	2.260
2020/01/31 06:28:01.5	92.390	-0.280	-0.650	2.270
2020/01/31 06:28:01.6	92.390	-0.250	-0.690	2.290
2020/01/31 06:28:01.7	92.380	-0.220	-0.730	2.300
2020/01/31 06:28:01.8	92.380	-0.190	-0.760	2.310
2020/01/31 06:28:01.9	92.370	-0.150	-0.800	2.320
2020/01/31 06:28:02.0	92.370	-0.120	-0.830	2.320
2020/01/31 06:28:02.1	92.370	-0.090	-0.860	2.320
2020/01/31 06:28:02.2	92.360	-0.050	-0.880	2.320
2020/01/31 06:28:02.3	92.370	-0.020	-0.910	2.310
2020/01/31 06:28:02.4	92.370	0.010	-0.930	2.300
2020/01/31 06:28:02.5	92.380	0.050	-0.940	2.280
2020/01/31 06:28:02.6	92.390	0.080	-0.950	2.260
2020/01/31 06:28:02.7	92.400	0.110	-0.960	2.230
2020/01/31 06:28:02.8	92.410	0.150	-0.970	2.200
2020/01/31 06:28:02.9	92.420	0.180	-0.960	2.160
2020/01/31 06:28:03.0	92.430	0.200	-0.960	2.120
2020/01/31 06:28:03.1	92.440	0.230	-0.950	2.080
2020/01/31 06:28:03.2	92.450	0.260	-0.930	2.030
2020/01/31 06:28:03.3	92.460	0.280	-0.910	1.970
2020/01/31 06:28:03.4	92.470	0.310	-0.880	1.910
2020/01/31 06:28:03.5	92.490	0.330	-0.850	1.850
2020/01/31 06:28:03.6	92.500	0.340	-0.810	1.780
2020/01/31 06:28:03.7	92.510	0.360	-0.770	1.700
2020/01/31 06:28:03.8	92.520	0.370	-0.720	1.620
2020/01/31 06:28:03.9	92.530	0.380	-0.670	1.540
2020/01/31 06:28:04.0	92.550	0.390	-0.610	1.460
2020/01/31 06:28:04.1	92.560	0.390	-0.550	1.370
2020/01/31 06:28:04.2	92.580	0.400	-0.470	1.280
2020/01/31 06:28:04.3	92.590	0.390	-0.400	1.180
2020/01/31 06:28:04.4	92.600	0.390	-0.330	1.090
2020/01/31 06:28:04.5	92.610	0.390	-0.250	0.990
2020/01/31 06:28:04.6	92.620	0.380	-0.180	0.890
2020/01/31 06:28:04.7	92.630	0.370	-0.100	0.790
2020/01/31 06:28:04.8	92.640	0.350	-0.010	0.690
2020/01/31 06:28:04.9	92.650	0.340	0.070	0.590
2020/01/31 06:28:05.0	92.660	0.320	0.150	0.490
2020/01/31 06:28:05.1	92.670	0.300	0.230	0.390
2020/01/31 06:28:05.2	92.680	0.280	0.310	0.290
2020/01/31 06:28:05.3	92.690	0.250	0.380	0.200
2020/01/31 06:28:05.4	92.700	0.230	0.460	0.110
2020/01/31 06:28:05.5	92.710	0.200	0.520	0.020
2020/01/31 06:28:05.6	92.720	0.180	0.590	-0.070
2020/01/31 06:28:05.7	92.730	0.150	0.650	-0.150
2020/01/31 06:28:05.8	92.730	0.130	0.710	-0.230
2020/01/31 06:28:05.9	92.740	0.100	0.750	-0.310
2020/01/31 06:28:06.0	92.740	0.070	0.800	-0.380
2020/01/31 06:28:06.1	92.740	0.040	0.830	-0.440
2020/01/31 06:28:06.2	92.740	0.020	0.860	-0.510
2020/01/31 06:28:06.3	92.740	-0.010	0.890	-0.560
2020/01/31 06:28:06.4	92.730	-0.030	0.900	-0.620
2020/01/31 06:28:06.5	92.730	-0.050	0.910	-0.660
2020/01/31 06:28:06.6	92.720	-0.080	0.910	-0.710
2020/01/31 06:28:06.7	92.710	-0.100	0.900	-0.750
2020/01/31 06:28:06.8	92.700	-0.110	0.880	-0.780
2020/01/31 06:28:06.9	92.690	-0.130	0.860	-0.820
2020/01/31 06:28:07.0	92.680	-0.150	0.830	-0.850
2020/01/31 06:28:07.1	92.670	-0.160	0.790	-0.870
2020/01/31 06:28:07.2	92.670	-0.170	0.750	-0.890
2020/01/31 06:28:07.3	92.650	-0.180	0.700	-0.910
2020/01/31 06:28:07.4	92.640	-0.190	0.640	-0.930
2020/01/31 06:28:07.5	92.620	-0.190	0.580	-0.950
2020/01/31 06:28:07.6	92.600	-0.200	0.520	-0.960
2020/01/31 06:28:07.7	92.590	-0.200	0.450	-0.970
2020/01/31 06:28:07.8	92.570	-0.200	0.380	-0.980
2020/01/31 06:28:07.9	92.560	-0.190	0.300	-0.980
2020/01/31 06:28:08.0	92.540	-0.190	0.220	-0.990
2020/01/31 06:28:08.1	92.530	-0.180	0.140	-0.990
2020/01/31 06:28:08.2	92.530	-0.170	0.060	-0.990
2020/01/31 06:28:08.3	92.510	-0.160	-0.020	-0.980
2020/01/31 06:28:08.4	92.500	-0.140	-0.110	-0.980
2020/01/31 06:28:08.5	92.490	-0.130	-0.190	-0.970
2020/01/31 06:28:08.6	92.480	-0.110	-0.270	-0.960
2020/01/31 06:28:08.7	92.470	-0.090	-0.350	-0.950
2020/01/31 06:28:08.8	92.460	-0.070	-0.430	-0.930
2020/01/31 06:28:08.9	92.460	-0.040	-0.500	-0.910
2020/01/31 06:28:09.0	92.460	-0.020	-0.580	-0.890
2020/01/31 06:28:09.1	92.450	0.010	-0.650	-0.870
2020/01/31 06:28:09.2	92.470	0.030	-0.720	-0.850
2020/01/31 06:28:09.3	92.470	0.060	-0.780	-0.820
2020/01/31 06:28:09.4	92.470	0.090	-0.840	-0.790
2020/01/31 06:28:09.5	92.480	0.120	-0.900	-0.760
2020/01/31 06:28:09.6	92.480	0.140	-0.950	-0.730
2020/01/31 06:28:09.7	92.490	0.170	-1.000	-0.700
2020/01/31 06:28:09.8	92.500	0.200	-1.040	-0.660
2020/01/31 06:28:09.9	92.510	0.230	-1.080	-0.630
2020/01/31 06:28:10.0	92.530	0.260	-1.110	-0.590
2020/01/31 06:28:10.1	92.540	0.280	-1.130	-0.550
2020/01/31 06:28:10.2	92.560	0.310	-1.160	-0.500
2020/01/31 06:28:10.3	92.580	0.330	-1.170	-0.460
2020/01/31 06:28:10.4	92.590	0.350	-1.180	-0.410
2020/01/31 06:28:10.5	92.610	0.370	-1.180	-0.360
2020/01/31 06:28:10.6	92.630	0.390	-1.170	-0.320
2020/01/31 06:28:10.7	92.650	0.400	-1.160	-0.260
2020/01/31 06:28:10.8	92.670	0.410	-1.140	-0.210
2020/01/31 06:28:10.9	92.690	0.420	-1.120	-0.150
2020/01/31 06:28:11.0	92.710	0.430	-1.080	-0.100
2020/01/31 06:28:11.1	92.730	0.430	-1.040	-0.040
2020/01/31 06:28:11.2	92.740	0.430	-1.000	0.020
2020/01/31 06:28:11.3	92.750	0.420	-0.940	0.090
2020/01/31 06:28:11.4	92.770	0.410	-0.880	0.160
2020/01/31 06:28:11.5	92.790	0.400	-0.820	0.230
2020/01/31 06:28:11.6	92.810	0.380	-0.750	0.300
2020/01/31 06:28:11.7	92.820	0.370	-0.680	0.380
2020/01/31 06:28:11.8	92.840	0.340	-0.600	0.450
2020/01/31 06:28:11.9	92.850	0.320	-0.520	0.540
2020/01/31 06:28:12.0	92.860	0.290	-0.430	0.620
2020/01/31 06:28:12.1	92.870	0.260	-0.350	0.700
2020/01/31 06:28:12.2	92.870	0.230	-0.260	0.790
2020/01/31 06:28:12.3	92.880	0.190	-0.180	0.880
2020/01/31 06:28:12.4	92.890	0.160	-0.090	0.960
2020/01/31 06:28:12.5	92.900	0.120	-0.010	1.050
2020/01/31 06:28:12.6	92.900	0.080	0.070	1.140
2020/01/31 06:28:12.7	92.910	0.040	0.150	1.240
2020/01/31 06:28:12.8	92.910	0.000	0.230	1.330
2020/01/31 06:28:12.9	92.920	-0.040	0.300	1.410
2020/01/31 06:28:13.0	92.920	-0.080	0.360	1.500
2020/01/31 06:28:13.1	92.920	-0.110	0.430	1.590
2020/01/31 06:28:13.2	92.910	-0.150	0.480	1.670
2020/01/31 06:28:13.3	92.910	-0.180	0.530	1.760
2020/01/31 06:28:13.4	92.910	-0.220	0.580	1.840
2020/01/31 06:28:13.5	92.910	-0.250	0.610	1.920
2020/01/31 06:28:13.6	92.920	-0.270	0.640	1.990
2020/01/31 06:28:13.7	92.920	-0.300	0.660	2.060
2020/01/31 06:28:13.8	92.920	-0.320	0.680	2.130
2020/01/31 06:28:13.9	92.930	-0.340	0.690	2.190
2020/01/31 06:28:14.0	92.930	-0.350	0.690	2.250
2020/01/31 06:28:14.1	92.940	-0.370	0.680	2.300
2020/01/31 06:28:14.2	92.930	-0.380	0.660	2.350
2020/01/31 06:28:14.3	92.940	-0.380	0.640	2.400
2020/01/31 06:28:14.4	92.950	-0.380	0.620	2.440
2020/01/31 06:28:14.5	92.950	-0.380	0.580	2.480
2020/01/31 06:28:14.6	92.960	-0.380	0.540	2.520
2020/01/31 06:28:14.7	92.970	-0.370	0.500	2.550
2020/01/31 06:28:14.8	92.970	-0.370	0.450	2.580
2020/01/31 06:28:14.9	92.980	-0.350	0.400	2.610
2020/01/31 06:28:15.0	92.990	-0.340	0.340	2.630
2020/01/31 06:28:15.1	92.990	-0.320	0.290	2.650
2020/01/31 06:28:15.2	92.990	-0.310	0.230	2.670
2020/01/31 06:28:15.3	93.000	-0.290	0.160	2.690
2020/01/31 06:28:15.4	93.000	-0.270	0.100	2.700
2020/01/31 06:28:15.5	93.000	-0.250	0.040	2.710
2020/01/31 06:28:15.6	93.000	-0.230	-0.020	2.720
2020/01/31 06:28:15.7	93.000	-0.210	-0.070	2.720
2020/01/31 06:28:15.8	93.000	-0.190	-0.130	2.720
2020/01/31 06:28:15.9	92.990	-0.170	-0.180	2.720
2020/01/31 06:28:16.0	92.990	-0.150	-0.230	2.710
2020/01/31 06:28:16.1	92.980	-0.130	-0.270	2.700
2020/01/31 06:28:16.2	92.970	-0.110	-0.310	2.680
2020/01/31 06:28:16.3	92.960	-0.100	-0.350	2.660
2020/01/31 06:28:16.4	92.950	-0.090	-0.380	2.630
2020/01/31 06:28:16.5	92.930	-0.080	-0.400	2.600
2020/01/31 06:28:16.6	92.920	-0.070	-0.420	2.560
2020/01/31 06:28:16.7	92.900	-0.060	-0.430	2.520
2020/01/31 06:28:16.8	92.880	-0.060	-0.440	2.470
2020/01/31 06:28:16.9	92.870	-0.060	-0.440	2.420
2020/01/31 06:28:17.0	92.850	-0.060	-0.430	2.360
2020/01/31 06:28:17.1	92.830	-0.060	-0.420	2.300
2020/01/31 06:28:17.2	92.790	-0.070	-0.400	2.230
2020/01/31 06:28:17.3	92.770	-0.080	-0.380	2.160
2020/01/31 06:28:17.4	92.750	-0.090	-0.350	2.090
2020/01/31 06:28:17.5	92.720	-0.100	-0.320	2.010
2020/01/31 06:28:17.6	92.700	-0.110	-0.280	1.930
2020/01/31 06:28:17.7	92.680	-0.130	-0.240	1.850
2020/01/31 06:28:17.8	92.650	-0.150	-0.200	1.760
2020/01/31 06:28:17.9	92.630	-0.160	-0.160	1.670
2020/01/31 06:28:18.0	92.600	-0.180	-0.120	1.580
2020/01/31 06:28:18.1	92.580	-0.200	-0.080	1.490
2020/01/31 06:28:18.2	92.540	-0.220	-0.030	1.390
2020/01/31 06:28:18.3	92.510	-0.240	0.010	1.300
2020/01/31 06:28:18.4	92.490	-0.250	0.050	1.200
2020/01/31 06:28:18.5	92.470	-0.270	0.090	1.100
2020/01/31 06:28:18.6	92.450	-0.290	0.120	1.000
2020/01/31 06:28:18.7	92.430	-0.300	0.150	0.900
2020/01/31 06:28:18.8	92.410	-0.310	0.170	0.800
2020/01/31 06:28:18.9	92.390	-0.320	0.190	0.690
2020/01/31 06:28:19.0	92.380	-0.330	0.200	0.590
2020/01/31 06:28:19.1	92.360	-0.340	0.200	0.490
2020/01/31 06:28:19.2	92.370	-0.340	0.200	0.380
2020/01/31 06:28:19.3	92.360	-0.340	0.190	0.280
2020/01/31 06:28:19.4	92.350	-0.340	0.180	0.170
2020/01/31 06:28:19.5	92.350	-0.330	0.160	0.070
2020/01/31 06:28:19.6	92.340	-0.320	0.130	-0.040
2020/01/31 06:28:19.7	92.340	-0.310	0.090	-0.140
2020/01/31 06:28:19.8	92.340	-0.290	0.050	-0.240
2020/01/31 06:28:19.9	92.340	-0.270	0.000	-0.350
2020/01/31 06:28:20.0	92.340	-0.250	-0.050	-0.450
2020/01/31 06:28:20.1	92.340	-0.230	-0.110	-0.550
2020/01/31 06:28:20.2	92.360	-0.200	-0.180	-0.640
2020/01/31 06:28:20.3	92.370	-0.160	-0.250	-0.740
2020/01/31 06:28:20.4	92.370	-0.130	-0.320	-0.840
2020/01/31 06:28:20.5	92.380	-0.090	-0.400	-0.930
2020/01/31 06:28:20.6	92.390	-0.050	-0.470	-1.020
2020/01/31 06:28:20.7	92.410	-0.010	-0.550	-1.110
2020/01/31 06:28:20.8	92.420	0.030	-0.630	-1.200
2020/01/31 06:28:20.9	92.430	0.070	-0.710	-1.280
2020/01/31 06:28:21.0	92.450	0.120	-0.790	-1.360
2020/01/31 06:28:21.1	92.460	0.170	-0.870	-1.440
2020/01/31 06:28:21.2	92.490	0.210	-0.940	-1.520
2020/01/31 06:28:21.3	92.510	0.260	-1.010	-1.590
2020/01/31 06:28:21.4	92.530	0.300	-1.080	-1.650
2020/01/31 06:28:21.5	92.540	0.350	-1.140	-1.720
2020/01/31 06:28:21.6	92.560	0.390	-1.190	-1.770
2020/01/31 06:28:21.7	92.580	0.430	-1.240	-1.830
2020/01/31 06:28:21.8	92.600	0.470	-1.280	-1.870
2020/01/31 06:28:21.9	92.620	0.510	-1.310	-1.910
2020/01/31 06:28:22.0	92.630	0.550	-1.330	-1.950
2020/01/31 06:28:22.1	92.650	0.580	-1.340	-1.980
2020/01/31 06:28:22.2	92.680	0.610	-1.350	-1.990
2020/01/31 06:28:22.3	92.690	0.640	-1.350	-2.000
2020/01/31 06:28:22.4	92.700	0.660	-1.340	-2.000
2020/01/31 06:28:22.5	92.710	0.680	-1.310	-2.000
2020/01/31 06:28:22.6	92.720	0.700	-1.280	-1.980
2020/01/31 06:28:22.7	92.730	0.710	-1.240	-1.960
2020/01/31 06:28:22.8	92.740	0.720	-1.180	-1.920
2020/01/31 06:28:22.9	92.740	0.720	-1.120	-1.870
2020/01/31 06:28:23.0	92.740	0.720	-1.050	-1.820
2020/01/31 06:28:23.1	92.740	0.720	-0.970	-1.760
2020/01/31 06:28:23.2	92.770	0.710	-0.880	-1.680
2020/01/31 06:28:23.3	92.760	0.700	-0.790	-1.600
2020/01/31 06:28:23.4	92.760	0.680	-0.690	-1.510
2020/01/31 06:28:23.5	92.750	0.650	-0.580	-1.410
2020/01/31 06:28:23.6	92.740	0.630	-0.470	-1.300
2020/01/31 06:28:23.7	92.730	0.590	-0.360	-1.190
2020/01/31 06:28:23.8	92.720	0.560	-0.240	-1.070
2020/01/31 06:28:23.9	92.710	0.520	-0.120	-0.950
2020/01/31 06:28:24.0	92.700	0.480	0.000	-0.820
2020/01/31 06:28:24.1	92.690	0.430	0.130	-0.690
2020/01/31 06:28:24.2	92.670	0.380	0.250	-0.540
2020/01/31 06:28:24.3	92.660	0.330	0.370	-0.400
2020/01/31 06:28:24.4	92.650	0.270	0.480	-0.260
2020/01/31 06:28:24.5	92.630	0.220	0.590	-0.120
2020/01/31 06:28:24.6	92.620	0.160	0.700	0.030
2020/01/31 06:28:24.7	92.610	0.100	0.800	0.180
2020/01/31 06:28:24.8	92.600	0.040	0.890	0.320
2020/01/31 06:28:24.9	92.590	-0.020	0.980	0.470
2020/01/31 06:28:25.0	92.580	-0.080	1.060	0.610
2020/01/31 06:28:25.1	92.570	-0.140	1.130	0.750
2020/01/31 06:28:25.2	92.540	-0.190	1.190	0.890
2020/01/31 06:28:25.3	92.530	-0.250	1.240	1.030
2020/01/31 06:28:25.4	92.520	-0.300	1.290	1.160
2020/01/31 06:28:25.5	92.510	-0.350	1.320	1.290
2020/01/31 06:28:25.6	92.500	-0.400	1.340	1.420
2020/01/31 06:28:25.7	92.490	-0.450	1.360	1.540
2020/01/31 06:28:25.8	92.480	-0.490	1.360	1.660
2020/01/31 06:28:25.9	92.470	-0.530	1.350	1.770
2020/01/31 06:28:26.0	92.470	-0.560	1.340	1.880
2020/01/31 06:28:26.1	92.460	-0.590	1.310	1.980
2020/01/31 06:28:26.2	92.440	-0.610	1.280	2.080
2020/01/31 06:28:26.3	92.440	-0.630	1.240	2.170
2020/01/31 06:28:26.4	92.430	-0.640	1.190	2.260
2020/01/31 06:28:26.5	92.420	-0.650	1.130	2.340
2020/01/31 06:28:26.6	92.410	-0.660	1.060	2.410
2020/01/31 06:28:26.7	92.410	-0.660	0.990	2.480
2020/01/31 06:28:26.8	92.400	-0.650	0.910	2.550
2020/01/31 06:28:26.9	92.400	-0.640	0.820	2.610
2020/01/31 06:28:27.0	92.400	-0.620	0.730	2.660
2020/01/31 06:28:27.1	92.400	-0.600	0.630	2.710
2020/01/31 06:28:27.2	92.390	-0.570	0.530	2.750
2020/01/31 06:28:27.3	92.400	-0.540	0.420	2.790
2020/01/31 06:28:27.4	92.400	-0.510	0.310	2.820
2020/01/31 06:28:27.5	92.400	-0.470	0.200	2.850
2020/01/31 06:28:27.6	92.410	-0.430	0.090	2.870
2020/01/31 06:28:27.7	92.420	-0.380	-0.020	2.890
2020/01/31 06:28:27.8	92.430	-0.330	-0.130	2.900
2020/01/31 06:28:27.9	92.440	-0.280	-0.240	2.910
2020/01/31 06:28:28.0	92.450	-0.230	-0.350	2.920
2020/01/31 06:28:28.1	92.460	-0.180	-0.460	2.920
2020/01/31 06:28:28.2	92.470	-0.130	-0.570	2.920
2020/01/31 06:28:28.3	92.480	-0.070	-0.670	2.910
2020/01/31 06:28:28.4	92.500	-0.020	-0.770	2.900
2020/01/31 06:28:28.5	92.520	0.030	-0.860	2.890
2020/01/31 06:28:28.6	92.530	0.090	-0.950	2.880
2020/01/31 06:28:28.7	92.550	0.140	-1.030	2.860
2020/01/31 06:28:28.8	92.570	0.190	-1.100	2.830
2020/01/31 06:28:28.9	92.590	0.230	-1.170	2.810
2020/01/31 06:28:29.0	92.610	0.280	-1.230	2.780
2020/01/31 06:28:29.1	92.630	0.320	-1.290	2.740
2020/01/31 06:28:29.2	92.640	0.360	-1.340	2.710
2020/01/31 06:28:29.3	92.660	0.400	-1.370	2.670
2020/01/31 06:28:29.4	92.670	0.430	-1.400	2.630
2020/01/31 06:28:29.5	92.690	0.460	-1.430	2.580
2020/01/31 06:28:29.6	92.700	0.490	-1.440	2.540
2020/01/31 06:28:29.7	92.710	0.510	-1.450	2.490
2020/01/31 06:28:29.8	92.720	0.530	-1.440	2.440
2020/01/31 06:28:29.9	92.730	0.540	-1.430	2.390
2020/01/31 06:28:30.0	92.740	0.550	-1.410	2.340
2020/01/31 06:28:30.1	92.740	0.560	-1.380	2.290
2020/01/31 06:28:30.2	92.740	0.560	-1.350	2.230
2020/01/31 06:28:30.3	92.740	0.560	-1.310	2.180
2020/01/31 06:28:30.4	92.740	0.560	-1.260	2.130
2020/01/31 06:28:30.5	92.740	0.550	-1.200	2.080
2020/01/31 06:28:30.6	92.730	0.540	-1.140	2.030
2020/01/31 06:28:30.7	92.720	0.520	-1.070	1.980
2020/01/31 06:28:30.8	92.710	0.500	-0.990	1.930
2020/01/31 06:28:30.9	92.690	0.480	-0.920	1.880
2020/01/31 06:28:31.0	92.680	0.450	-0.830	1.830
2020/01/31 06:28:31.1	92.660	0.430	-0.750	1.790
2020/01/31 06:28:31.2	92.640	0.400	-0.660	1.740
2020/01/31 06:28:31.3	92.620	0.360	-0.570	1.690
2020/01/31 06:28:31.4	92.600	0.330	-0.480	1.650
2020/01/31 06:28:31.5	92.570	0.290	-0.390	1.600
2020/01/31 06:28:31.6	92.550	0.250	-0.290	1.560
2020/01/31 06:28:31.7	92.520	0.210	-0.200	1.510
2020/01/31 06:28:31.8	92.500	0.170	-0.110	1.460
2020/01/31 06:28:31.9	92.470	0.130	-0.030	1.410
2020/01/31 06:28:32.0	92.440	0.090	0.060	1.360
2020/01/31 06:28:32.1	92.420	0.050	0.140	1.310
2020/01/31 06:28:32.2	92.390	0.000	0.220	1.260
2020/01/31 06:28:32.3	92.360	-0.040	0.290	1.200
2020/01/31 06:28:32.4	92.340	-0.080	0.360	1.150
2020/01/31 06:28:32.5	92.320	-0.120	0.420	1.080
2020/01/31 06:28:32.6	92.300	-0.160	0.480	1.020
2020/01/31 06:28:32.7	92.280	-0.200	0.530	0.950
2020/01/31 06:28:32.8	92.260	-0.240	0.570	0.880
2020/01/31 06:28:32.9	92.250	-0.270	0.610	0.810
2020/01/31 06:28:33.0	92.230	-0.310	0.650	0.740
2020/01/31 06:28:33.1	92.220	-0.340	0.670	0.660
2020/01/31 06:28:33.2	92.220	-0.370	0.690	0.580
2020/01/31 06:28:33.3	92.210	-0.400	0.710	0.500
2020/01/31 06:28:33.4	92.210	-0.420	0.720	0.420
2020/01/31 06:28:33.5	92.210	-0.440	0.720	0.330
2020/01/31 06:28:33.6	92.210	-0.460	0.710	0.250
2020/01/31 06:28:33.7	92.210	-0.480	0.700	0.160
2020/01/31 06:28:33.8	92.210	-0.490	0.690	0.080
2020/01/31 06:28:33.9	92.220	-0.500	0.660	-0.010
2020/01/31 06:28:34.0	92.220	-0.510	0.640	-0.090
2020/01/31 06:28:34.1	92.230	-0.510	0.610	-0.180
2020/01/31 06:28:34.2	92.250	-0.520	0.560	-0.260
2020/01/31 06:28:34.3	92.260	-0.520	0.520	-0.340
2020/01/31 06:28:34.4	92.280	-0.510	0.480	-0.420
2020/01/31 06:28:34.5	92.290	-0.510	0.440	-0.490
2020/01/31 06:28:34.6	92.310	-0.500	0.390	-0.570
2020/01/31 06:28:34.7	92.330	-0.490	0.330	-0.640
2020/01/31 06:28:34.8	92.340	-0.480	0.280	-0.710
2020/01/31 06:28:34.9	92.360	-0.460	0.230	-0.770
2020/01/31 06:28:35.0	92.380	-0.450	0.180	-0.840
2020/01/31 06:28:35.1	92.400	-0.430	0.120	-0.890
2020/01/31 06:28:35.2	92.420	-0.410	0.070	-0.950
2020/01/31 06:28:35.3	92.440	-0.390	0.020	-1.000
2020/01/31 06:28:35.4	92.450	-0.370	-0.030	-1.040
2020/01/31 06:28:35.5	92.470	-0.350	-0.080	-1.080
2020/01/31 06:28:35.6	92.480	-0.330	-0.130	-1.120
2020/01/31 06:28:35.7	92.490	-0.300	-0.180	-1.150
2020/01/31 06:28:35.8	92.500	-0.280	-0.220	-1.180
2020/01/31 06:28:35.9	92.500	-0.260	-0.270	-1.200
2020/01/31 06:28:36.0	92.500	-0.230	-0.310	-1.220
2020/01/31 06:28:36.1	92.510	-0.210	-0.340	-1.230
2020/01/31 06:28:36.2	92.510	-0.190	-0.380	-1.240
2020/01/31 06:28:36.3	92.500	-0.170	-0.420	-1.240
2020/01/31 06:28:36.4	92.500	-0.140	-0.450	-1.240
2020/01/31 06:28:36.5	92.490	-0.120	-0.470	-1.230
2020/01/31 06:28:36.6	92.480	-0.100	-0.500	-1.220
2020/01/31 06:28:36.7	92.470	-0.080	-0.520	-1.210
2020/01/31 06:28:36.8	92.450	-0.060	-0.540	-1.190
2020/01/31 06:28:36.9	92.440	-0.040	-0.560	-1.160
2020/01/31 06:28:37.0	92.420	-0.020	-0.570	-1.140
2020/01/31 06:28:37.1	92.410	-0.000	-0.580	-1.110
2020/01/31 06:28:37.2	92.390	0.020	-0.590	-1.070
2020/01/31 06:28:37.3	92.380	0.030	-0.600	-1.040
2020/01/31 06:28:37.4	92.360	0.050	-0.610	-0.990
2020/01/31 06:28:37.5	92.340	0.070	-0.620	-0.950
2020/01/31 06:28:37.6	92.320	0.080	-0.620	-0.910
2020/01/31 06:28:37.7	92.310	0.100	-0.630	-0.860
2020/01/31 06:28:37.8	92.290	0.120	-0.630	-0.810
2020/01/31 06:28:37.9	92.280	0.130	-0.630	-0.750
2020/01/31 06:28:38.0	92.270	0.150	-0.630	-0.700
2020/01/31 06:28:38.1	92.260	0.160	-0.630	-0.640
2020/01/31 06:28:38.2	92.260	0.180	-0.630	-0.580
2020/01/31 06:28:38.3	92.260	0.200	-0.630	-0.520
2020/01/31 06:28:38.4	92.250	0.210	-0.630	-0.460
2020/01/31 06:28:38.5	92.250	0.230	-0.630	-0.390
2020/01/31 06:28:38.6	92.260	0.250	-0.630	-0.330
2020/01/31 06:28:38.7	92.260	0.260	-0.630	-0.260
2020/01/31 06:28:38.8	92.270	0.280	-0.620	-0.190
2020/01/31 06:28:38.9	92.280	0.290	-0.620	-0.120
2020/01/31 06:28:39.0	92.290	0.310	-0.610	-0.050
2020/01/31 06:28:39.1	92.310	0.330	-0.600	0.020
2020/01/31 06:28:39.2	92.330	0.350	-0.600	0.090
2020/01/31 06:28:39.3	92.350	0.360	-0.590	0.170
2020/01/31 06:28:39.4	92.370	0.380	-0.580	0.240
2020/01/31 06:28:39.5	92.390	0.390	-0.560	0.320
2020/01/31 06:28:39.6	92.410	0.410	-0.550	0.390
2020/01/31 06:28:39.7	92.430	0.420	-0.530	0.470
2020/01/31 06:28:39.8	92.450	0.440	-0.510	0.540
2020/01/31 06:28:39.9	92.470	0.450	-0.490	0.620
2020/01/31 06:28:40.0	92.490	0.460	-0.460	0.700
2020/01/31 06:28:40.1	92.510	0.480	-0.440	0.770
2020/01/31 06:28:40.2	92.520	0.480	-0.410	0.850
2020/01/31 06:28:40.3	92.530	0.490	-0.380	0.930
2020/01/31 06:28:40.4	92.550	0.500	-0.340	1.000
2020/01/31 06:28:40.5	92.560	0.500	-0.310	1.080
2020/01/31 06:28:40.6	92.570	0.510	-0.270	1.150
2020/01/31 06:28:40.7	92.580	0.510	-0.240	1.220
2020/01/31 06:28:40.8	92.590	0.500	-0.200	1.290
2020/01/31 06:28:40.9	92.600	0.500	-0.150	1.360
2020/01/31 06:28:41.0	92.610	0.490	-0.110	1.420
2020/01/31 06:28:41.1	92.610	0.480	-0.070	1.480
2020/01/31 06:28:41.2	92.610	0.470	-0.020	1.550
2020/01/31 06:28:41.3	92.610	0.460	0.030	1.600
2020/01/31 06:28:41.4	92.610	0.440	0.070	1.660
2020/01/31 06:28:41.5	92.610	0.420	0.120	1.710
2020/01/31 06:28:41.6	92.610	0.400	0.160	1.760
2020/01/31 06:28:41.7	92.600	0.380	0.210	1.800
2020/01/31 06:28:41.8	92.600	0.350	0.250	1.840
2020/01/31 06:28:41.9	92.590	0.320	0.300	1.880
2020/01/31 06:28:42.0	92.580	0.290	0.340	1.920
2020/01/31 06:28:42.1	92.570	0.260	0.380	1.960
2020/01/31 06:28:42.2	92.560	0.230	0.420	1.990
2020/01/31 06:28:42.3	92.550	0.190	0.450	2.020
2020/01/31 06:28:42.4	92.530	0.160	0.480	2.050
2020/01/31 06:28:42.5	92.520	0.120	0.510	2.080
2020/01/31 06:28:42.6	92.510	0.090	0.530	2.100
2020/01/31 06:28:42.7	92.490	0.050	0.550	2.130
2020/01/31 06:28:42.8	92.470	0.020	0.570	2.150
2020/01/31 06:28:42.9	92.460	-0.020	0.580	2.170
2020/01/31 06:28:43.0	92.440	-0.060	0.590	2.190
2020/01/31 06:28:43.1	92.420	-0.090	0.590	2.210
2020/01/31 06:28:43.2	92.400	-0.130	0.590	2.230
2020/01/31 06:28:43.3	92.380	-0.160	0.580	2.250
2020/01/31 06:28:43.4	92.360	-0.190	0.570	2.260
2020/01/31 06:28:43.5	92.350	-0.220	0.550	2.270
2020/01/31 06:28:43.6	92.330	-0.250	0.530	2.280
2020/01/31 06:28:43.7	92.310	-0.280	0.510	2.290
2020/01/31 06:28:43.8	92.290	-0.300	0.480	2.290
2020/01/31 06:28:43.9	92.280	-0.320	0.450	2.300
2020/01/31 06:28:44.0	92.260	-0.340	0.410	2.300
2020/01/31 06:28:44.1	92.250	-0.360	0.370	2.290
2020/01/31 06:28:44.2	92.230	-0.380	0.340	2.280
2020/01/31 06:28:44.3	92.220	-0.390	0.290	2.270
2020/01/31 06:28:44.4	92.210	-0.400	0.240	2.250
2020/01/31 06:28:44.5	92.200	-0.410	0.200	2.240
2020/01/31 06:28:44.6	92.200	-0.410	0.150	2.220
2020/01/31 06:28:44.7	92.190	-0.410	0.090	2.190
2020/01/31 06:28:44.8	92.190	-0.410	0.040	2.160
2020/01/31 06:28:44.9	92.190	-0.410	-0.010	2.130
2020/01/31 06:28:45.0	92.180	-0.410	-0.060	2.090
2020/01/31 06:28:45.1	92.180	-0.400	-0.110	2.050
2020/01/31 06:28:45.2	92.170	-0.390	-0.170	2.010
2020/01/31 06:28:45.3	92.180	-0.380	-0.220	1.960
2020/01/31 06:28:45.4	92.180	-0.370	-0.270	1.910
2020/01/31 06:28:45.5	92.180	-0.360	-0.310	1.860
2020/01/31 06:28:45.6	92.190	-0.340	-0.360	1.810
2020/01/31 06:28:45.7	92.190	-0.330	-0.400	1.750
2020/01/31 06:28:45.8	92.190	-0.310	-0.440	1.690
2020/01/31 06:28:45.9	92.200	-0.290	-0.480	1.630
2020/01/31 06:28:46.0	92.200	-0.270	-0.510	1.570
2020/01/31 06:28:46.1	92.210	-0.250	-0.550	1.500
2020/01/31 06:28:46.2	92.210	-0.230	-0.570	1.440
2020/01/31 06:28:46.3	92.210	-0.210	-0.600	1.370
2020/01/31 06:28:46.4	92.220	-0.190	-0.630	1.300
2020/01/31 06:28:46.5	92.220	-0.170	-0.650	1.220
2020/01/31 06:28:46.6	92.230	-0.150	-0.670	1.150
2020/01/31 06:28:46.7	92.240	-0.140	-0.690	1.080
2020/01/31 06:28:46.8	92.240	-0.120	-0.710	1.000
2020/01/31 06:28:46.9	92.250	-0.100	-0.720	0.930
2020/01/31 06:28:47.0	92.260	-0.080	-0.740	0.860
2020/01/31 06:28:47.1	92.270	-0.060	-0.750	0.780
2020/01/31 06:28:47.2	92.290	-0.040	-0.760	0.710
2020/01/31 06:28:47.3	92.300	-0.020	-0.760	0.640
2020/01/31 06:28:47.4	92.320	-0.010	-0.770	0.570
2020/01/31 06:28:47.5	92.330	0.010	-0.770	0.500
2020/01/31 06:28:47.6	92.340	0.030	-0.770	0.430
2020/01/31 06:28:47.7	92.360	0.040	-0.770	0.360
2020/01/31 06:28:47.8	92.380	0.060	-0.770	0.300
2020/01/31 06:28:47.9	92.390	0.070	-0.770	0.240
2020/01/31 06:28:48.0	92.410	0.080	-0.760	0.180
2020/01/31 06:28:48.1	92.430	0.090	-0.760	0.120
2020/01/31 06:28:48.2	92.460	0.100	-0.750	0.070
2020/01/31 06:28:48.3	92.480	0.110	-0.730	0.020
2020/01/31 06:28:48.4	92.500	0.120	-0.720	-0.030
2020/01/31 06:28:48.5	92.520	0.130	-0.700	-0.080
2020/01/31 06:28:48.6	92.540	0.130	-0.680	-0.120
2020/01/31 06:28:48.7	92.560	0.140	-0.660	-0.150
2020/01/31 06:28:48.8	92.570	0.140	-0.630	-0.180
2020/01/31 06:28:48.9	92.590	0.140	-0.600	-0.210
2020/01/31 06:28:49.0	92.600	0.140	-0.570	-0.230
2020/01/31 06:28:49.1	92.620	0.130	-0.530	-0.250
2020/01/31 06:28:49.2	92.620	0.130	-0.490	-0.270
2020/01/31 06:28:49.3	92.630	0.120	-0.440	-0.280
2020/01/31 06:28:49.4	92.630	0.110	-0.390	-0.280
2020/01/31 06:28:49.5	92.630	0.100	-0.340	-0.290
2020/01/31 06:28:49.6	92.630	0.090	-0.280	-0.280
2020/01/31 06:28:49.7	92.630	0.070	-0.220	-0.280
2020/01/31 06:28:49.8	92.620	0.060	-0.160	-0.270
2020/01/31 06:28:49.9	92.610	0.040	-0.100	-0.260
2020/01/31 06:28:50.0	92.600	0.020	-0.030	-0.240
2020/01/31 06:28:50.1	92.580	-0.000	0.030	-0.230
2020/01/31 06:28:50.2	92.560	-0.020	0.100	-0.210
2020/01/31 06:28:50.3	92.540	-0.050	0.160	-0.190
2020/01/31 06:28:50.4	92.520	-0.070	0.230	-0.160
2020/01/31 06:28:50.5	92.490	-0.090	0.290	-0.140
2020/01/31 06:28:50.6	92.470	-0.120	0.350	-0.110
2020/01/31 06:28:50.7	92.440	-0.140	0.410	-0.090
2020/01/31 06:28:50.8	92.420	-0.170	0.460	-0.060
2020/01/31 06:28:50.9	92.390	-0.190	0.510	-0.040
2020/01/31 06:28:51.0	92.360	-0.210	0.550	-0.010
2020/01/31 06:28:51.1	92.330	-0.230	0.590	0.020
2020/01/31 06:28:51.2	92.310	-0.250	0.620	0.050
2020/01/31 06:28:51.3	92.280	-0.260	0.650	0.080
2020/01/31 06:28:51.4	92.250	-0.280	0.670	0.110
2020/01/31 06:28:51.5	92.220	-0.290	0.680	0.140
2020/01/31 06:28:51.6	92.190	-0.300	0.680	0.170
2020/01/31 06:28:51.7	92.160	-0.300	0.670	0.200
2020/01/31 06:28:51.8	92.130	-0.300	0.660	0.230
2020/01/31 06:28:51.9	92.100	-0.300	0.630	0.260
2020/01/31 06:28:52.0	92.070	-0.290	0.600	0.290
2020/01/31 06:28:52.1	92.040	-0.280	0.550	0.320
2020/01/31 06:28:52.2	92.020	-0.270	0.500	0.350
2020/01/31 06:28:52.3	92.000	-0.250	0.440	0.380
2020/01/31 06:28:52.4	91.970	-0.220	0.370	0.410
2020/01/31 06:28:52.5	91.950	-0.200	0.300	0.440
2020/01/31 06:28:52.6	91.930	-0.170	0.220	0.460
2020/01/31 06:28:52.7	91.920	-0.140	0.130	0.490
2020/01/31 06:28:52.8	91.900	-0.100	0.040	0.510
2020/01/31 06:28:52.9	91.900	-0.060	-0.060	0.520
2020/01/31 06:28:53.0	91.890	-0.020	-0.160	0.540
2020/01/31 06:28:53.1	91.890	0.020	-0.260	0.550
2020/01/31 06:28:53.2	91.880	0.060	-0.370	0.550
2020/01/31 06:28:53.3	91.890	0.100	-0.470	0.560
2020/01/31 06:28:53.4	91.900	0.150	-0.570	0.560
2020/01/31 06:28:53.5	91.920	0.190	-0.670	0.560
2020/01/31 06:28:53.6	91.940	0.230	-0.760	0.560
2020/01/31 06:28:53.7	91.960	0.270	-0.840	0.550
2020/01/31 06:28:53.8	91.980	0.310	-0.920	0.550
2020/01/31 06:28:53.9	92.010	0.340	-1.000	0.540
2020/01/31 06:28:54.0	92.040	0.370	-1.060	0.540
2020/01/31 06:28:54.1	92.060	0.400	-1.110	0.530
2020/01/31 06:28:54.2	92.100	0.430	-1.150	0.520
2020/01/31 06:28:54.3	92.130	0.450	-1.180	0.510
2020/01/31 06:28:54.4	92.160	0.460	-1.200	0.510
2020/01/31 06:28:54.5	92.200	0.470	-1.210	0.500
2020/01/31 06:28:54.6	92.230	0.480	-1.210	0.490
2020/01/31 06:28:54.7	92.260	0.480	-1.190	0.480
2020/01/31 06:28:54.8	92.290	0.470	-1.170	0.470
2020/01/31 06:28:54.9	92.320	0.470	-1.130	0.470
2020/01/31 06:28:55.0	92.360	0.450	-1.080	0.460
2020/01/31 06:28:55.1	92.390	0.430	-1.020	0.460
2020/01/31 06:28:55.2	92.420	0.410	-0.950	0.460
2020/01/31 06:28:55.3	92.450	0.390	-0.870	0.460
2020/01/31 06:28:55.4	92.470	0.360	-0.780	0.460
2020/01/31 06:28:55.5	92.500	0.320	-0.680	0.470
2020/01/31 06:28:55.6	92.530	0.290	-0.580	0.470
2020/01/31 06:28:55.7	92.550	0.250	-0.470	0.480
2020/01/31 06:28:55.8	92.580	0.210	-0.360	0.500
2020/01/31 06:28:55.9	92.600	0.170	-0.250	0.510
2020/01/31 06:28:56.0	92.620	0.130	-0.130	0.530
2020/01/31 06:28:56.1	92.640	0.090	-0.010	0.550
2020/01/31 06:28:56.2	92.650	0.040	0.100	0.580
2020/01/31 06:28:56.3	92.670	0.000	0.220	0.600
2020/01/31 06:28:56.4	92.680	-0.040	0.330	0.630
2020/01/31 06:28:56.5	92.690	-0.080	0.430	0.660
2020/01/31 06:28:56.6	92.700	-0.110	0.530	0.700
2020/01/31 06:28:56.7	92.710	-0.150	0.620	0.730
2020/01/31 06:28:56.8	92.710	-0.180	0.710	0.770
2020/01/31 06:28:56.9	92.710	-0.210	0.780	0.810
2020/01/31 06:28:57.0	92.710	-0.230	0.850	0.850
2020/01/31 06:28:57.1	92.700	-0.250	0.900	0.900
2020/01/31 06:28:57.2	92.700	-0.270	0.950	0.940
2020/01/31 06:28:57.3	92.690	-0.280	0.990	0.980
2020/01/31 06:28:57.4	92.670	-0.290	1.010	1.020
2020/01/31 06:28:57.5	92.660	-0.290	1.020	1.070
2020/01/31 06:28:57.6	92.650	-0.290	1.020	1.100
2020/01/31 06:28:57.7	92.630	-0.280	1.010	1.140
2020/01/31 06:28:57.8	92.610	-0.280	0.990	1.180
2020/01/31 06:28:57.9	92.590	-0.260	0.960	1.210
2020/01/31 06:28:58.0	92.570	-0.250	0.910	1.240
2020/01/31 06:28:58.1	92.550	-0.230	0.860	1.270
2020/01/31 06:28:58.2	92.520	-0.210	0.800	1.300
2020/01/31 06:28:58.3	92.500	-0.180	0.730	1.320
2020/01/31 06:28:58.4	92.480	-0.160	0.660	1.340
2020/01/31 06:28:58.5	92.460	-0.130	0.580	1.360
2020/01/31 06:28:58.6	92.440	-0.100	0.490	1.380
2020/01/31 06:28:58.7	92.420	-0.070	0.400	1.390
2020/01/31 06:28:58.8	92.410	-0.040	0.310	1.400
2020/01/31 06:28:58.9	92.390	-0.010	0.220	1.410
2020/01/31 06:28:59.0	92.370	0.020	0.120	1.420
2020/01/31 06:28:59.1	92.360	0.060	0.020	1.430
2020/01/31 06:28:59.2	92.340	0.090	-0.070	1.440
2020/01/31 06:28:59.3	92.330	0.110	-0.170	1.450
2020/01/31 06:28:59.4	92.320	0.140	-0.260	1.460
2020/01/31 06:28:59.5	92.300	0.170	-0.350	1.470
2020/01/31 06:28:59.6	92.300	0.190	-0.430	1.470
2020/01/31 06:28:59.7	92.290	0.210	-0.520	1.480
2020/01/31 06:28:59.8	92.280	0.230	-0.590	1.490
2020/01/31 06:28:59.9	92.280	0.250	-0.660	1.490
2020/01/31 06:29:00.0	92.270	0.260	-0.730	1.500
2020/01/31 06:29:00.1	92.270	0.270	-0.790	1.500
2020/01/31 06:29:00.2	92.270	0.280	-0.850	1.510
2020/01/31 06:29:00.3	92.270	0.290	-0.890	1.520
2020/01/31 06:29:00.4	92.270	0.290	-0.930	1.520
2020/01/31 06:29:00.5	92.280	0.290	-0.970	1.520
2020/01/31 06:29:00.6	92.280	0.290	-0.990	1.510
2020/01/31 06:29:00.7	92.290	0.280	-1.010	1.510
2020/01/31 06:29:00.8	92.300	0.270	-1.030	1.500
2020/01/31 06:29:00.9	92.310	0.260	-1.030	1.490
2020/01/31 06:29:01.0	92.310	0.250	-1.030	1.470
2020/01/31 06:29:01.1	92.320	0.240	-1.020	1.450
2020/01/31 06:29:01.2	92.320	0.220	-1.010	1.430
2020/01/31 06:29:01.3	92.330	0.200	-0.990	1.410
2020/01/31 06:29:01.4	92.350	0.180	-0.960	1.380
2020/01/31 06:29:01.5	92.360	0.160	-0.930	1.350
2020/01/31 06:29:01.6	92.370	0.140	-0.890	1.310
2020/01/31 06:29:01.7	92.380	0.120	-0.850	1.270
2020/01/31 06:29:01.8	92.390	0.090	-0.810	1.230
2020/01/31 06:29:01.9	92.400	0.070	-0.760	1.190
2020/01/31 06:29:02.0	92.410	0.050	-0.700	1.150
2020/01/31 06:29:02.1	92.430	0.030	-0.650	1.100
2020/01/31 06:29:02.2	92.430	0.000	-0.590	1.060
2020/01/31 06:29:02.3	92.440	-0.020	-0.530	1.010
2020/01/31 06:29:02.4	92.450	-0.040	-0.460	0.960
2020/01/31 06:29:02.5	92.460	-0.060	-0.400	0.910
2020/01/31 06:29:02.6	92.470	-0.080	-0.340	0.860
2020/01/31 06:29:02.7	92.480	-0.100	-0.270	0.810
2020/01/31 06:29:02.8	92.490	-0.110	-0.210	0.760
2020/01/31 06:29:02.9	92.500	-0.130	-0.150	0.720
2020/01/31 06:29:03.0	92.500	-0.140	-0.090	0.670
2020/01/31 06:29:03.1	92.510	-0.150	-0.040	0.630
2020/01/31 06:29:03.2	92.530	-0.160	0.020	0.580
2020/01/31 06:29:03.3	92.530	-0.170	0.070	0.540
2020/01/31 06:29:03.4	92.540	-0.180	0.110	0.510
2020/01/31 06:29:03.5	92.540	-0.180	0.150	0.470
2020/01/31 06:29:03.6	92.550	-0.190	0.190	0.440
2020/01/31 06:29:03.7	92.550	-0.190	0.220	0.410
2020/01/31 06:29:03.8	92.560	-0.190	0.240	0.380
2020/01/31 06:29:03.9	92.560	-0.190	0.260	0.350
2020/01/31 06:29:04.0	92.570	-0.180	0.270	0.330
2020/01/31 06:29:04.1	92.580	-0.180	0.280	0.310
2020/01/31 06:29:04.2	92.580	-0.170	0.290	0.300
2020/01/31 06:29:04.3	92.590	-0.160	0.280	0.280
2020/01/31 06:29:04.4	92.600	-0.150	0.270	0.270
2020/01/31 06:29:04.5	92.600	-0.140	0.250	0.260
2020/01/31 06:29:04.6	92.610	-0.130	0.230	0.250
2020/01/31 06:29:04.7	92.620	-0.120	0.200	0.250
2020/01/31 06:29:04.8	92.630	-0.110	0.170	0.240
2020/01/31 06:29:04.9	92.640	-0.100	0.140	0.240
2020/01/31 06:29:05.0	92.650	-0.080	0.100	0.240
2020/01/31 06:29:05.1	92.660	-0.070	0.060	0.250
2020/01/31 06:29:05.2	92.660	-0.060	0.010	0.250
2020/01/31 06:29:05.3	92.670	-0.040	-0.030	0.260
2020/01/31 06:29:05.4	92.680	-0.030	-0.080	0.270
2020/01/31 06:29:05.5	92.690	-0.020	-0.130	0.280
2020/01/31 06:29:05.6	92.690	-0.010	-0.170	0.290
2020/01/31 06:29:05.7	92.700	-0.000	-0.220	0.300
2020/01/31 06:29:05.8	92.710	0.010	-0.260	0.310
2020/01/31 06:29:05.9	92.710	0.010	-0.300	0.320
2020/01/31 06:29:06.0	92.720	0.020	-0.340	0.340
2020/01/31 06:29:06.1	92.720	0.020	-0.370	0.350
2020/01/31 06:29:06.2	92.740	0.020	-0.390	0.360
2020/01/31 06:29:06.3	92.740	0.020	-0.410	0.380
2020/01/31 06:29:06.4	92.740	0.020	-0.430	0.390
2020/01/31 06:29:06.5	92.750	0.010	-0.430	0.400
2020/01/31 06:29:06.6	92.750	0.010	-0.440	0.410
2020/01/31 06:29:06.7	92.750	-0.000	-0.430	0.420
2020/01/31 06:29:06.8	92.750	-0.010	-0.420	0.440
2020/01/31 06:29:06.9	92.740	-0.030	-0.400	0.450
2020/01/31 06:29:07.0	92.740	-0.040	-0.370	0.460
2020/01/31 06:29:07.1	92.740	-0.060	-0.340	0.470
2020/01/31 06:29:07.2	92.730	-0.080	-0.300	0.480
2020/01/31 06:29:07.3	92.730	-0.100	-0.260	0.490
2020/01/31 06:29:07.4	92.720	-0.120	-0.210	0.510
2020/01/31 06:29:07.5	92.710	-0.140	-0.160	0.520
2020/01/31 06:29:07.6	92.710	-0.170	-0.100	0.530
2020/01/31 06:29:07.7	92.700	-0.190	-0.040	0.540
2020/01/31 06:29:07.8	92.690	-0.220	0.020	0.550
2020/01/31 06:29:07.9	92.690	-0.240	0.080	0.560
2020/01/31 06:29:08.0	92.680	-0.270	0.140	0.570
2020/01/31 06:29:08.1	92.670	-0.300	0.200	0.580
2020/01/31 06:29:08.2	92.660	-0.320	0.270	0.590
2020/01/31 06:29:08.3	92.650	-0.340	0.320	0.600
2020/01/31 06:29:08.4	92.640	-0.370	0.380	0.610
2020/01/31 06:29:08.5	92.640	-0.390	0.430	0.620
2020/01/31 06:29:08.6	92.630	-0.400	0.470	0.620
2020/01/31 06:29:08.7	92.620	-0.420	0.510	0.630
2020/01/31 06:29:08.8	92.620	-0.430	0.540	0.640
2020/01/31 06:29:08.9	92.610	-0.440	0.570	0.650
2020/01/31 06:29:09.0	92.600	-0.450	0.590	0.660
2020/01/31 06:29:09.1	92.600	-0.450	0.600	0.680
2020/01/31 06:29:09.2	92.590	-0.450	0.600	0.690
2020/01/31 06:29:09.3	92.590	-0.450	0.590	0.700
2020/01/31 06:29:09.4	92.580	-0.440	0.570	0.710
2020/01/31 06:29:09.5	92.580	-0.430	0.540	0.720
2020/01/31 06:29:09.6	92.570	-0.410	0.510	0.730
2020/01/31 06:29:09.7	92.570	-0.390	0.460	0.740
2020/01/31 06:29:09.8	92.560	-0.370	0.400	0.750
2020/01/31 06:29:09.9	92.560	-0.340	0.340	0.750
2020/01/31 06:29:10.0	92.560	-0.310	0.270	0.760
2020/01/31 06:29:10.1	92.560	-0.280	0.190	0.760
2020/01/31 06:29:10.2	92.560	-0.240	0.110	0.770
2020/01/31 06:29:10.3	92.560	-0.200	0.020	0.770
2020/01/31 06:29:10.4	92.570	-0.150	-0.070	0.760
2020/01/31 06:29:10.5	92.580	-0.110	-0.170	0.760
2020/01/31 06:29:10.6	92.580	-0.060	-0.270	0.750
2020/01/31 06:29:10.7	92.590	-0.010	-0.370	0.740
2020/01/31 06:29:10.8	92.600	0.040	-0.480	0.730
2020/01/31 06:29:10.9	92.610	0.090	-0.580	0.710
2020/01/31 06:29:11.0	92.630	0.150	-0.680	0.700
2020/01/31 06:29:11.1	92.640	0.200	-0.770	0.680
2020/01/31 06:29:11.2	92.660	0.250	-0.870	0.660
2020/01/31 06:29:11.3	92.680	0.300	-0.960	0.640
2020/01/31 06:29:11.4	92.690	0.350	-1.040	0.610
2020/01/31 06:29:11.5	92.710	0.400	-1.110	0.590
2020/01/31 06:29:11.6	92.730	0.440	-1.180	0.560
2020/01/31 06:29:11.7	92.740	0.490	-1.230	0.530
2020/01/31 06:29:11.8	92.760	0.520	-1.280	0.510
2020/01/31 06:29:11.9	92.770	0.560	-1.320	0.480
2020/01/31 06:29:12.0	92.790	0.590	-1.350	0.460
2020/01/31 06:29:12.1	92.800	0.620	-1.370	0.440
2020/01/31 06:29:12.2	92.820	0.650	-1.380	0.420
2020/01/31 06:29:12.3	92.830	0.670	-1.380	0.400
2020/01/31 06:29:12.4	92.840	0.690	-1.360	0.380
2020/01/31 06:29:12.5	92.850	0.700	-1.340	0.370
2020/01/31 06:29:12.6	92.860	0.710	-1.300	0.360
2020/01/31 06:29:12.7	92.870	0.710	-1.260	0.360
2020/01/31 06:29:12.8	92.880	0.710	-1.200	0.360
2020/01/31 06:29:12.9	92.890	0.710	-1.140	0.360
2020/01/31 06:29:13.0	92.890	0.700	-1.070	0.370
2020/01/31 06:29:13.1	92.900	0.690	-0.990	0.380
2020/01/31 06:29:13.2	92.900	0.680	-0.890	0.400
2020/01/31 06:29:13.3	92.900	0.660	-0.800	0.420
2020/01/31 06:29:13.4	92.900	0.630	-0.700	0.450
2020/01/31 06:29:13.5	92.900	0.610	-0.600	0.480
2020/01/31 06:29:13.6	92.910	0.580	-0.500	0.510
2020/01/31 06:29:13.7	92.910	0.550	-0.390	0.550
2020/01/31 06:29:13.8	92.910	0.520	-0.280	0.590
2020/01/31 06:29:13.9	92.910	0.490	-0.170	0.630
2020/01/31 06:29:14.0	92.910	0.450	-0.060	0.670
2020/01/31 06:29:14.1	92.910	0.420	0.050	0.720
2020/01/31 06:29:14.2	92.900	0.380	0.150	0.760
2020/01/31 06:29:14.3	92.900	0.350	0.250	0.810
2020/01/31 06:29:14.4	92.900	0.310	0.350	0.860
2020/01/31 06:29:14.5	92.890	0.280	0.440	0.900
2020/01/31 06:29:14.6	92.890	0.240	0.520	0.950
2020/01/31 06:29:14.7	92.890	0.210	0.600	0.990
2020/01/31 06:29:14.8	92.890	0.180	0.670	1.030
2020/01/31 06:29:14.9	92.890	0.150	0.730	1.070
2020/01/31 06:29:15.0	92.890	0.120	0.780	1.110
2020/01/31 06:29:15.1	92.880	0.090	0.830	1.150
2020/01/31 06:29:15.2	92.880	0.070	0.870	1.180
2020/01/31 06:29:15.3	92.880	0.040	0.900	1.210
2020/01/31 06:29:15.4	92.880	0.020	0.910	1.240
2020/01/31 06:29:15.5	92.870	0.000	0.930	1.260
2020/01/31 06:29:15.6	92.860	-0.020	0.930	1.280
2020/01/31 06:29:15.7	92.860	-0.030	0.920	1.300
2020/01/31 06:29:15.8	92.850	-0.050	0.910	1.310
2020/01/31 06:29:15.9	92.840	-0.060	0.890	1.320
2020/01/31 06:29:16.0	92.830	-0.070	0.860	1.320
2020/01/31 06:29:16.1	92.820	-0.080	0.830	1.330
2020/01/31 06:29:16.2	92.820	-0.090	0.790	1.330
2020/01/31 06:29:16.3	92.810	-0.100	0.750	1.330
2020/01/31 06:29:16.4	92.800	-0.110	0.700	1.320
2020/01/31 06:29:16.5	92.790	-0.120	0.650	1.320
2020/01/31 06:29:16.6	92.770	-0.130	0.590	1.310
2020/01/31 06:29:16.7	92.760	-0.140	0.540	1.300
2020/01/31 06:29:16.8	92.750	-0.140	0.480	1.300
2020/01/31 06:29:16.9	92.740	-0.150	0.420	1.290
2020/01/31 06:29:17.0	92.730	-0.160	0.350	1.280
2020/01/31 06:29:17.1	92.710	-0.160	0.290	1.270
2020/01/31 06:29:17.2	92.700	-0.170	0.230	1.260
2020/01/31 06:29:17.3	92.690	-0.180	0.160	1.250
2020/01/31 06:29:17.4	92.680	-0.180	0.100	1.240
2020/01/31 06:29:17.5	92.670	-0.190	0.040	1.230
2020/01/31 06:29:17.6	92.670	-0.200	-0.020	1.220
2020/01/31 06:29:17.7	92.660	-0.210	-0.080	1.220
2020/01/31 06:29:17.8	92.660	-0.210	-0.130	1.210
2020/01/31 06:29:17.9	92.660	-0.220	-0.190	1.200
2020/01/31 06:29:18.0	92.660	-0.230	-0.240	1.190
2020/01/31 06:29:18.1	92.660	-0.230	-0.290	1.180
2020/01/31 06:29:18.2	92.670	-0.240	-0.340	1.180
2020/01/31 06:29:18.3	92.680	-0.240	-0.380	1.170
2020/01/31 06:29:18.4	92.690	-0.250	-0.430	1.160
2020/01/31 06:29:18.5	92.700	-0.250	-0.470	1.150
2020/01/31 06:29:18.6	92.710	-0.260	-0.500	1.130
2020/01/31 06:29:18.7	92.730	-0.260	-0.540	1.120
2020/01/31 06:29:18.8	92.750	-0.270	-0.570	1.110
2020/01/31 06:29:18.9	92.760	-0.270	-0.600	1.090
2020/01/31 06:29:19.0	92.790	-0.270	-0.630	1.070
2020/01/31 06:29:19.1	92.810	-0.270	-0.650	1.050
2020/01/31 06:29:19.2	92.830	-0.270	-0.680	1.030
2020/01/31 06:29:19.3	92.850	-0.270	-0.700	1.010
2020/01/31 06:29:19.4	92.880	-0.270	-0.710	0.990
2020/01/31 06:29:19.5	92.910	-0.270	-0.730	0.960
2020/01/31 06:29:19.6	92.940	-0.260	-0.740	0.940
2020/01/31 06:29:19.7	92.970	-0.260	-0.750	0.910
2020/01/31 06:29:19.8	93.000	-0.260	-0.760	0.880
2020/01/31 06:29:19.9	93.030	-0.250	-0.770	0.850
2020/01/31 06:29:20.0	93.060	-0.250	-0.770	0.820
2020/01/31 06:29:20.1	93.090	-0.240	-0.770	0.790
2020/01/31 06:29:20.2	93.130	-0.240	-0.770	0.760
2020/01/31 06:29:20.3	93.160	-0.230	-0.760	0.730
2020/01/31 06:29:20.4	93.190	-0.230	-0.760	0.700
2020/01/31 06:29:20.5	93.220	-0.220	-0.740	0.660
2020/01/31 06:29:20.6	93.250	-0.210	-0.730	0.630
2020/01/31 06:29:20.7	93.270	-0.210	-0.710	0.600
2020/01/31 06:29:20.8	93.300	-0.200	-0.690	0.580
2020/01/31 06:29:20.9	93.320	-0.200	-0.670	0.550
2020/01/31 06:29:21.0	93.340	-0.190	-0.640	0.520
2020/01/31 06:29:21.1	93.360	-0.190	-0.620	0.500
2020/01/31 06:29:21.2	93.380	-0.180	-0.590	0.490
2020/01/31 06:29:21.3	93.390	-0.180	-0.560	0.470
2020/01/31 06:29:21.4	93.400	-0.170	-0.520	0.460
2020/01/31 06:29:21.5	93.400	-0.170	-0.480	0.460
2020/01/31 06:29:21.6	93.410	-0.170	-0.450	0.450
2020/01/31 06:29:21.7	93.400	-0.160	-0.410	0.450
2020/01/31 06:29:21.8	93.400	-0.160	-0.370	0.460
2020/01/31 06:29:21.9	93.390	-0.160	-0.330	0.470
2020/01/31 06:29:22.0	93.380	-0.160	-0.290	0.490
2020/01/31 06:29:22.1	93.360	-0.150	-0.250	0.510
2020/01/31 06:29:22.2	93.340	-0.150	-0.200	0.530
2020/01/31 06:29:22.3	93.320	-0.150	-0.160	0.560
2020/01/31 06:29:22.4	93.300	-0.140	-0.120	0.590
2020/01/31 06:29:22.5	93.270	-0.140	-0.090	0.620
2020/01/31 06:29:22.6	93.240	-0.140	-0.050	0.660
2020/01/31 06:29:22.7	93.210	-0.130	-0.020	0.700
2020/01/31 06:29:22.8	93.180	-0.130	0.010	0.740
2020/01/31 06:29:22.9	93.140	-0.130	0.040	0.780
2020/01/31 06:29:23.0	93.110	-0.120	0.060	0.830
2020/01/31 06:29:23.1	93.080	-0.120	0.090	0.870
2020/01/31 06:29:23.2	93.050	-0.110	0.100	0.920
2020/01/31 06:29:23.3	93.010	-0.110	0.120	0.960
2020/01/31 06:29:23.4	92.980	-0.100	0.140	1.000
2020/01/31 06:29:23.5	92.950	-0.090	0.150	1.030
2020/01/31 06:29:23.6	92.920	-0.090	0.160	1.070
2020/01/31 06:29:23.7	92.890	-0.080	0.170	1.100
2020/01/31 06:29:23.8	92.870	-0.070	0.170	1.130
2020/01/31 06:29:23.9	92.840	-0.060	0.170	1.150
2020/01/31 06:29:24.0	92.820	-0.050	0.170	1.170
2020/01/31 06:29:24.1	92.800	-0.040	0.170	1.190
2020/01/31 06:29:24.2	92.770	-0.030	0.160	1.200
2020/01/31 06:29:24.3	92.760	-0.020	0.150	1.200
2020/01/31 06:29:24.4	92.750	-0.010	0.140	1.200
2020/01/31 06:29:24.5	92.740	0.000	0.130	1.200
2020/01/31 06:29:24.6	92.730	0.010	0.120	1.190
2020/01/31 06:29:24.7	92.730	0.030	0.100	1.170
2020/01/31 06:29:24.8	92.730	0.040	0.080	1.140
2020/01/31 06:29:24.9	92.740	0.050	0.060	1.120
2020/01/31 06:29:25.0	92.740	0.060	0.040	1.080
2020/01/31 06:29:25.1	92.750	0.080	0.020	1.040
2020/01/31 06:29:25.2	92.750	0.090	-0.000	0.990
2020/01/31 06:29:25.3	92.760	0.110	-0.030	0.940
2020/01/31 06:29:25.4	92.780	0.120	-0.050	0.890
2020/01/31 06:29:25.5	92.800	0.130	-0.070	0.830
2020/01/31 06:29:25.6	92.810	0.150	-0.100	0.770
2020/01/31 06:29:25.7	92.830	0.160	-0.120	0.700
2020/01/31 06:29:25.8	92.860	0.170	-0.140	0.630
2020/01/31 06:29:25.9	92.880	0.180	-0.170	0.560
2020/01/31 06:29:26.0	92.900	0.200	-0.190	0.490
2020/01/31 06:29:26.1	92.920	0.210	-0.210	0.420
2020/01/31 06:29:26.2	92.940	0.220	-0.230	0.350
2020/01/31 06:29:26.3	92.970	0.230	-0.240	0.280
2020/01/31 06:29:26.4	92.990	0.240	-0.260	0.210
2020/01/31 06:29:26.5	93.010	0.250	-0.270	0.140
2020/01/31 06:29:26.6	93.040	0.260	-0.280	0.070
2020/01/31 06:29:26.7	93.060	0.270	-0.280	0.010
2020/01/31 06:29:26.8	93.080	0.270	-0.290	-0.050
2020/01/31 06:29:26.9	93.090	0.280	-0.290	-0.100
2020/01/31 06:29:27.0	93.110	0.290	-0.290	-0.150
2020/01/31 06:29:27.1	93.130	0.290	-0.290	-0.190
2020/01/31 06:29:27.2	93.150	0.290	-0.280	-0.230
2020/01/31 06:29:27.3	93.160	0.300	-0.270	-0.260
2020/01/31 06:29:27.4	93.170	0.300	-0.260	-0.290
2020/01/31 06:29:27.5	93.180	0.300	-0.250	-0.310
2020/01/31 06:29:27.6	93.180	0.300	-0.240	-0.330
2020/01/31 06:29:27.7	93.190	0.290	-0.220	-0.340
2020/01/31 06:29:27.8	93.190	0.290	-0.210	-0.340
2020/01/31 06:29:27.9	93.190	0.290	-0.190	-0.340
2020/01/31 06:29:28.0	93.190	0.280	-0.180	-0.330
2020/01/31 06:29:28.1	93.180	0.280	-0.170	-0.320
2020/01/31 06:29:28.2	93.170	0.280	-0.150	-0.300
2020/01/31 06:29:28.3	93.160	0.270	-0.140	-0.270
2020/01/31 06:29:28.4	93.150	0.260	-0.130	-0.240
2020/01/31 06:29:28.5	93.140	0.260	-0.120	-0.210
2020/01/31 06:29:28.6	93.130	0.250	-0.110	-0.180
2020/01/31 06:29:28.7	93.120	0.250	-0.110	-0.140
2020/01/31 06:29:28.8	93.110	0.240	-0.100	-0.100
2020/01/31 06:29:28.9	93.100	0.240	-0.100	-0.050
2020/01/31 06:29:29.0	93.080	0.230	-0.100	-0.010
2020/01/31 06:29:29.1	93.070	0.230	-0.100	0.040
2020/01/31 06:29:29.2	93.050	0.230	-0.110	0.080
2020/01/31 06:29:29.3	93.040	0.220	-0.120	0.130
2020/01/31 06:29:29.4	93.020	0.220	-0.130	0.180
2020/01/31 06:29:29.5	93.000	0.220	-0.140	0.230
2020/01/31 06:29:29.6	92.990	0.220	-0.160	0.280
2020/01/31 06:29:29.7	92.970	0.220	-0.170	0.320
2020/01/31 06:29:29.8	92.950	0.220	-0.190	0.370
2020/01/31 06:29:29.9	92.940	0.220	-0.210	0.410
2020/01/31 06:29:30.0	92.920	0.220	-0.230	0.460
2020/01/31 06:29:30.1	92.910	0.220	-0.250	0.500
2020/01/31 06:29:30.2	92.890	0.220	-0.270	0.550
2020/01/31 06:29:30.3	92.880	0.220	-0.290	0.590
2020/01/31 06:29:30.4	92.860	0.220	-0.310	0.630
2020/01/31 06:29:30.5	92.850	0.220	-0.330	0.670
2020/01/31 06:29:30.6	92.850	0.220	-0.340	0.710
2020/01/31 06:29:30.7	92.840	0.210	-0.360	0.750
2020/01/31 06:29:30.8	92.830	0.210	-0.360	0.790
2020/01/31 06:29:30.9	92.830	0.200	-0.370	0.820
2020/01/31 06:29:31.0	92.830	0.190	-0.370	0.860
2020/01/31 06:29:31.1	92.830	0.190	-0.380	0.900
2020/01/31 06:29:31.2	92.830	0.170	-0.370	0.930
2020/01/31 06:29:31.3	92.840	0.160	-0.360	0.970
2020/01/31 06:29:31.4	92.850	0.150	-0.350	1.000
2020/01/31 06:29:31.5	92.860	0.130	-0.340	1.040
2020/01/31 06:29:31.6	92.870	0.110	-0.320	1.070
2020/01/31 06:29:31.7	92.880	0.090	-0.300	1.110
2020/01/31 06:29:31.8	92.900	0.070	-0.280	1.140
2020/01/31 06:29:31.9	92.920	0.050	-0.250	1.170
2020/01/31 06:29:32.0	92.940	0.020	-0.230	1.210
2020/01/31 06:29:32.1	92.960	-0.000	-0.200	1.240
2020/01/31 06:29:32.2	92.970	-0.030	-0.170	1.270
2020/01/31 06:29:32.3	93.000	-0.060	-0.140	1.300
2020/01/31 06:29:32.4	93.030	-0.090	-0.110	1.320
2020/01/31 06:29:32.5	93.050	-0.110	-0.070	1.350
2020/01/31 06:29:32.6	93.080	-0.140	-0.040	1.370
2020/01/31 06:29:32.7	93.110	-0.170	-0.010	1.400
2020/01/31 06:29:32.8	93.140	-0.200	0.020	1.420
2020/01/31 06:29:32.9	93.170	-0.230	0.050	1.450
2020/01/31 06:29:33.0	93.200	-0.250	0.080	1.470
2020/01/31 06:29:33.1	93.230	-0.280	0.110	1.490
2020/01/31 06:29:33.2	93.260	-0.310	0.130	1.510
2020/01/31 06:29:33.3	93.280	-0.330	0.160	1.530
2020/01/31 06:29:33.4	93.310	-0.350	0.180	1.550
2020/01/31 06:29:33.5	93.330	-0.370	0.200	1.570
2020/01/31 06:29:33.6	93.350	-0.390	0.220	1.590
2020/01/31 06:29:33.7	93.370	-0.410	0.230	1.610
2020/01/31 06:29:33.8	93.390	-0.430	0.250	1.630
2020/01/31 06:29:33.9	93.410	-0.440	0.260	1.640
2020/01/31 06:29:34.0	93.420	-0.450	0.270	1.660
2020/01/31 06:29:34.1	93.440	-0.460	0.270	1.680
2020/01/31 06:29:34.2	93.440	-0.470	0.280	1.690
2020/01/31 06:29:34.3	93.450	-0.480	0.280	1.710
2020/01/31 06:29:34.4	93.450	-0.480	0.280	1.720
2020/01/31 06:29:34.5	93.460	-0.480	0.270	1.730
2020/01/31 06:29:34.6	93.460	-0.480	0.260	1.740
2020/01/31 06:29:34.7	93.460	-0.480	0.250	1.750
2020/01/31 06:29:34.8	93.460	-0.470	0.240	1.760
2020/01/31 06:29:34.9	93.460	-0.470	0.220	1.760
2020/01/31 06:29:35.0	93.450	-0.460	0.200	1.770
2020/01/31 06:29:35.1	93.450	-0.440	0.170	1.770
2020/01/31 06:29:35.2	93.440	-0.430	0.140	1.780
2020/01/31 06:29:35.3	93.430	-0.420	0.110	1.780
2020/01/31 06:29:35.4	93.420	-0.400	0.080	1.770
2020/01/31 06:29:35.5	93.410	-0.380	0.050	1.770
2020/01/31 06:29:35.6	93.390	-0.360	0.010	1.770
2020/01/31 06:29:35.7	93.380	-0.340	-0.030	1.760
2020/01/31 06:29:35.8	93.360	-0.320	-0.070	1.760
2020/01/31 06:29:35.9	93.350	-0.290	-0.110	1.750
2020/01/31 06:29:36.0	93.330	-0.270	-0.150	1.740
2020/01/31 06:29:36.1	93.310	-0.240	-0.190	1.730
2020/01/31 06:29:36.2	93.290	-0.220	-0.230	1.720
2020/01/31 06:29:36.3	93.270	-0.190	-0.280	1.700
2020/01/31 06:29:36.4	93.250	-0.160	-0.320	1.690
2020/01/31 06:29:36.5	93.230	-0.140	-0.370	1.680
2020/01/31 06:29:36.6	93.210	-0.110	-0.410	1.660
2020/01/31 06:29:36.7	93.190	-0.080	-0.450	1.650
2020/01/31 06:29:36.8	93.170	-0.060	-0.490	1.630
2020/01/31 06:29:36.9	93.140	-0.030	-0.530	1.610
2020/01/31 06:29:37.0	93.120	-0.010	-0.570	1.600
2020/01/31 06:29:37.1	93.100	0.010	-0.600	1.580
2020/01/31 06:29:37.2	93.080	0.030	-0.630	1.560
2020/01/31 06:29:37.3	93.060	0.050	-0.660	1.540
2020/01/31 06:29:37.4	93.030	0.070	-0.680	1.520
2020/01/31 06:29:37.5	93.010	0.090	-0.700	1.490
2020/01/31 06:29:37.6	92.980	0.100	-0.710	1.460
2020/01/31 06:29:37.7	92.960	0.110	-0.720	1.430
2020/01/31 06:29:37.8	92.930	0.120	-0.730	1.400
2020/01/31 06:29:37.9	92.910	0.130	-0.730	1.370
2020/01/31 06:29:38.0	92.890	0.140	-0.730	1.330
2020/01/31 06:29:38.1	92.870	0.140	-0.720	1.290
2020/01/31 06:29:38.2	92.850	0.150	-0.710	1.250
2020/01/31 06:29:38.3	92.830	0.150	-0.700	1.200
2020/01/31 06:29:38.4	92.810	0.150	-0.680	1.150
2020/01/31 06:29:38.5	92.800	0.150	-0.660	1.100
2020/01/31 06:29:38.6	92.780	0.150	-0.630	1.040
2020/01/31 06:29:38.7	92.770	0.140	-0.610	0.980
2020/01/31 06:29:38.8	92.770	0.140	-0.580	0.920
2020/01/31 06:29:38.9	92.760	0.130	-0.550	0.850
2020/01/31 06:29:39.0	92.760	0.130	-0.520	0.780
2020/01/31 06:29:39.1	92.760	0.120	-0.490	0.710
2020/01/31 06:29:39.2	92.760	0.110	-0.460	0.640
2020/01/31 06:29:39.3	92.770	0.110	-0.430	0.560
2020/01/31 06:29:39.4	92.780	0.100	-0.400	0.480
2020/01/31 06:29:39.5	92.780	0.090	-0.360	0.400
2020/01/31 06:29:39.6	92.790	0.080	-0.330	0.320
2020/01/31 06:29:39.7	92.810	0.080	-0.300	0.240
2020/01/31 06:29:39.8	92.820	0.070	-0.280	0.160
2020/01/31 06:29:39.9	92.840	0.070	-0.250	0.080
2020/01/31 06:29:40.0	92.850	0.060	-0.220	0.000
2020/01/31 06:29:40.1	92.870	0.060	-0.200	-0.080
2020/01/31 06:29:40.2	92.890	0.050	-0.180	-0.150
2020/01/31 06:29:40.3	92.910	0.050	-0.160	-0.220
2020/01/31 06:29:40.4	92.930	0.050	-0.140	-0.290
2020/01/31 06:29:40.5	92.950	0.050	-0.120	-0.360
2020/01/31 06:29:40.6	92.970	0.050	-0.100	-0.420
2020/01/31 06:29:40.7	92.990	0.050	-0.080	-0.480
2020/01/31 06:29:40.8	93.010	0.050	-0.060	-0.530
2020/01/31 06:29:40.9	93.030	0.050	-0.050	-0.580
2020/01/31 06:29:41.0	93.050	0.050	-0.040	-0.630
2020/01/31 06:29:41.1	93.070	0.060	-0.020	-0.670
2020/01/31 06:29:41.2	93.090	0.060	-0.010	-0.710
2020/01/31 06:29:41.3	93.110	0.060	0.010	-0.740
2020/01/31 06:29:41.4	93.120	0.060	0.020	-0.770
2020/01/31 06:29:41.5	93.140	0.070	0.030	-0.800
2020/01/31 06:29:41.6	93.150	0.070	0.040	-0.820
2020/01/31 06:29:41.7	93.170	0.070	0.050	-0.840
2020/01/31 06:29:41.8	93.180	0.070	0.060	-0.850
2020/01/31 06:29:41.9	93.190	0.070	0.070	-0.860
2020/01/31 06:29:42.0	93.200	0.070	0.070	-0.860
2020/01/31 06:29:42.1	93.210	0.070	0.080	-0.860
2020/01/31 06:29:42.2	93.230	0.080	0.090	-0.850
2020/01/31 06:29:42.3	93.230	0.080	0.090	-0.840
2020/01/31 06:29:42.4	93.230	0.070	0.100	-0.820
2020/01/31 06:29:42.5	93.230	0.070	0.100	-0.800
2020/01/31 06:29:42.6	93.230	0.070	0.100	-0.780
2020/01/31 06:29:42.7	93.230	0.070	0.100	-0.750
2020/01/31 06:29:42.8	93.220	0.070	0.100	-0.720
2020/01/31 06:29:42.9	93.220	0.070	0.100	-0.680
2020/01/31 06:29:43.0	93.210	0.070	0.090	-0.650
2020/01/31 06:29:43.1	93.210	0.060	0.090	-0.600
2020/01/31 06:29:43.2	93.210	0.060	0.080	-0.550
2020/01/31 06:29:43.3	93.200	0.060	0.070	-0.510
2020/01/31 06:29:43.4	93.200	0.060	0.060	-0.460
2020/01/31 06:29:43.5	93.190	0.050	0.050	-0.400
2020/01/31 06:29:43.6	93.190	0.050	0.040	-0.350
2020/01/31 06:29:43.7	93.180	0.050	0.030	-0.290
2020/01/31 06:29:43.8	93.180	0.050	0.010	-0.230
2020/01/31 06:29:43.9	93.170	0.050	-0.000	-0.170
2020/01/31 06:29:44.0	93.170	0.040	-0.020	-0.100
2020/01/31 06:29:44.1	93.170	0.040	-0.030	-0.040
2020/01/31 06:29:44.2	93.160	0.040	-0.050	0.030
2020/01/31 06:29:44.3	93.160	0.040	-0.060	0.090
2020/01/31 06:29:44.4	93.160	0.040	-0.080	0.170
2020/01/31 06:29:44.5	93.160	0.040	-0.090	0.240
2020/01/31 06:29:44.6	93.160	0.040	-0.110	0.310
2020/01/31 06:29:44.7	93.160	0.050	-0.120	0.390
2020/01/31 06:29:44.8	93.150	0.050	-0.130	0.460
2020/01/31 06:29:44.9	93.150	0.050	-0.140	0.540
2020/01/31 06:29:45.0	93.150	0.050	-0.140	0.620
2020/01/31 06:29:45.1	93.150	0.050	-0.150	0.690
2020/01/31 06:29:45.2	93.140	0.050	-0.150	0.780
2020/01/31 06:29:45.3	93.140	0.050	-0.150	0.850
2020/01/31 06:29:45.4	93.130	0.050	-0.150	0.930
2020/01/31 06:29:45.5	93.130	0.050	-0.150	1.000
2020/01/31 06:29:45.6	93.130	0.050	-0.140	1.080
2020/01/31 06:29:45.7	93.120	0.050	-0.130	1.150
2020/01/31 06:29:45.8	93.120	0.050	-0.120	1.220
2020/01/31 06:29:45.9	93.120	0.050	-0.100	1.280
2020/01/31 06:29:46.0	93.110	0.050	-0.090	1.350
2020/01/31 06:29:46.1	93.110	0.040	-0.070	1.410
2020/01/31 06:29:46.2	93.100	0.040	-0.050	1.460
2020/01/31 06:29:46.3	93.100	0.040	-0.030	1.510
2020/01/31 06:29:46.4	93.090	0.030	-0.010	1.560
2020/01/31 06:29:46.5	93.090	0.030	0.010	1.610
2020/01/31 06:29:46.6	93.080	0.020	0.030	1.650
2020/01/31 06:29:46.7	93.080	0.020	0.050	1.690
2020/01/31 06:29:46.8	93.070	0.010	0.070	1.720
2020/01/31 06:29:46.9	93.070	0.000	0.090	1.750
2020/01/31 06:29:47.0	93.060	-0.000	0.100	1.780
2020/01/31 06:29:47.1	93.050	-0.010	0.120	1.810
2020/01/31 06:29:47.2	93.030	-0.020	0.140	1.830
2020/01/31 06:29:47.3	93.020	-0.020	0.150	1.850
2020/01/31 06:29:47.4	93.010	-0.030	0.160	1.860
2020/01/31 06:29:47.5	93.000	-0.040	0.160	1.870
2020/01/31 06:29:47.6	92.990	-0.040	0.170	1.880
2020/01/31 06:29:47.7	92.980	-0.050	0.170	1.890
2020/01/31 06:29:47.8	92.970	-0.050	0.160	1.890
2020/01/31 06:29:47.9	92.960	-0.050	0.150	1.890
2020/01/31 06:29:48.0	92.950	-0.060	0.140	1.880
2020/01/31 06:29:48.1	92.950	-0.060	0.130	1.870
2020/01/31 06:29:48.2	92.930	-0.060	0.110	1.850
2020/01/31 06:29:48.3	92.930	-0.060	0.080	1.840
2020/01/31 06:29:48.4	92.920	-0.050	0.050	1.820
2020/01/31 06:29:48.5	92.920	-0.050	0.020	1.790
2020/01/31 06:29:48.6	92.920	-0.040	-0.020	1.770
2020/01/31 06:29:48.7	92.930	-0.040	-0.060	1.740
2020/01/31 06:29:48.8	92.930	-0.030	-0.110	1.710
2020/01/31 06:29:48.9	92.940	-0.020	-0.150	1.680
2020/01/31 06:29:49.0	92.940	-0.000	-0.210	1.640
2020/01/31 06:29:49.1	92.950	0.010	-0.260	1.610
2020/01/31 06:29:49.2	92.960	0.020	-0.320	1.570
2020/01/31 06:29:49.3	92.970	0.040	-0.380	1.540
2020/01/31 06:29:49.4	92.980	0.060	-0.440	1.510
2020/01/31 06:29:49.5	92.990	0.070	-0.500	1.470
2020/01/31 06:29:49.6	93.000	0.090	-0.560	1.440
2020/01/31 06:29:49.7	93.010	0.110	-0.620	1.410
2020/01/31 06:29:49.8	93.020	0.130	-0.670	1.380
2020/01/31 06:29:49.9	93.030	0.140	-0.730	1.350
2020/01/31 06:29:50.0	93.040	0.160	-0.780	1.330
2020/01/31 06:29:50.1	93.040	0.180	-0.830	1.300
2020/01/31 06:29:50.2	93.050	0.190	-0.880	1.280
2020/01/31 06:29:50.3	93.060	0.210	-0.920	1.260
2020/01/31 06:29:50.4	93.060	0.220	-0.950	1.240
2020/01/31 06:29:50.5	93.060	0.230	-0.980	1.220
2020/01/31 06:29:50.6	93.060	0.240	-1.010	1.200
2020/01/31 06:29:50.7	93.060	0.250	-1.020	1.170
2020/01/31 06:29:50.8	93.060	0.250	-1.030	1.150
2020/01/31 06:29:50.9	93.060	0.250	-1.040	1.130
2020/01/31 06:29:51.0	93.060	0.250	-1.030	1.100
2020/01/31 06:29:51.1	93.060	0.240	-1.020	1.080
2020/01/31 06:29:51.2	93.050	0.240	-1.000	1.060
2020/01/31 06:29:51.3	93.040	0.230	-0.970	1.030
2020/01/31 06:29:51.4	93.040	0.210	-0.930	1.010
2020/01/31 06:29:51.5	93.030	0.200	-0.890	0.980
2020/01/31 06:29:51.6	93.020	0.180	-0.840	0.960
2020/01/31 06:29:51.7	93.010	0.160	-0.790	0.930
2020/01/31 06:29:51.8	93.000	0.130	-0.730	0.900
2020/01/31 06:29:51.9	92.990	0.100	-0.660	0.880
2020/01/31 06:29:52.0	92.970	0.070	-0.590	0.850
2020/01/31 06:29:52.1	92.960	0.040	-0.510	0.830
2020/01/31 06:29:52.2	92.950	0.010	-0.430	0.800
2020/01/31 06:29:52.3	92.940	-0.020	-0.350	0.780
2020/01/31 06:29:52.4	92.920	-0.060	-0.270	0.760
2020/01/31 06:29:52.5	92.910	-0.100	-0.190	0.740
2020/01/31 06:29:52.6	92.890	-0.140	-0.100	0.720
2020/01/31 06:29:52.7	92.880	-0.170	-0.020	0.700
2020/01/31 06:29:52.8	92.860	-0.210	0.070	0.680
2020/01/31 06:29:52.9	92.840	-0.250	0.150	0.670
2020/01/31 06:29:53.0	92.820	-0.290	0.230	0.650
2020/01/31 06:29:53.1	92.800	-0.330	0.310	0.640
2020/01/31 06:29:53.2	92.780	-0.370	0.390	0.630
2020/01/31 06:29:53.3	92.760	-0.400	0.460	0.630
2020/01/31 06:29:53.4	92.740	-0.440	0.520	0.620
2020/01/31 06:29:53.5	92.720	-0.470	0.580	0.610
2020/01/31 06:29:53.6	92.690	-0.500	0.630	0.610
2020/01/31 06:29:53.7	92.670	-0.530	0.680	0.600
2020/01/31 06:29:53.8	92.650	-0.560	0.720	0.600
2020/01/31 06:29:53.9	92.630	-0.590	0.750	0.600
2020/01/31 06:29:54.0	92.610	-0.610	0.770	0.600
2020/01/31 06:29:54.1	92.590	-0.630	0.790	0.590
2020/01/31 06:29:54.2	92.570	-0.650	0.800	0.590
2020/01/31 06:29:54.3	92.560	-0.660	0.800	0.590
2020/01/31 06:29:54.4	92.540	-0.670	0.790	0.580
2020/01/31 06:29:54.5	92.530	-0.680	0.780	0.580
2020/01/31 06:29:54.6	92.520	-0.680	0.750	0.570
2020/01/31 06:29:54.7	92.510	-0.680	0.720	0.560
2020/01/31 06:29:54.8	92.510	-0.670	0.680	0.550
2020/01/31 06:29:54.9	92.500	-0.670	0.640	0.530
2020/01/31 06:29:55.0	92.500	-0.650	0.580	0.520
2020/01/31 06:29:55.1	92.500	-0.640	0.520	0.500
2020/01/31 06:29:55.2	92.510	-0.620	0.460	0.480
2020/01/31 06:29:55.3	92.510	-0.600	0.380	0.460
2020/01/31 06:29:55.4	92.520	-0.570	0.310	0.440
2020/01/31 06:29:55.5	92.520	-0.540	0.230	0.410
2020/01/31 06:29:55.6	92.530	-0.510	0.140	0.380
2020/01/31 06:29:55.7	92.540	-0.470	0.060	0.350
2020/01/31 06:29:55.8	92.550	-0.440	-0.030	0.320
2020/01/31 06:29:55.9	92.560	-0.400	-0.120	0.290
2020/01/31 06:29:56.0	92.570	-0.350	-0.200	0.260
2020/01/31 06:29:56.1	92.580	-0.310	-0.290	0.220
2020/01/31 06:29:56.2	92.600	-0.270	-0.380	0.190
2020/01/31 06:29:56.3	92.610	-0.220	-0.460	0.150
2020/01/31 06:29:56.4	92.620	-0.180	-0.530	0.120
2020/01/31 06:29:56.5	92.630	-0.130	-0.600	0.080
2020/01/31 06:29:56.6	92.640	-0.090	-0.670	0.050
2020/01/31 06:29:56.7	92.640	-0.040	-0.730	0.020
2020/01/31 06:29:56.8	92.650	0.000	-0.780	-0.010
2020/01/31 06:29:56.9	92.660	0.040	-0.820	-0.040
2020/01/31 06:29:57.0	92.660	0.090	-0.860	-0.070
2020/01/31 06:29:57.1	92.670	0.130	-0.890	-0.090
2020/01/31 06:29:57.2	92.670	0.160	-0.900	-0.110
2020/01/31 06:29:57.3	92.670	0.200	-0.920	-0.130
2020/01/31 06:29:57.4	92.680	0.230	-0.920	-0.150
2020/01/31 06:29:57.5	92.680	0.260	-0.920	-0.160
2020/01/31 06:29:57.6	92.690	0.290	-0.900	-0.170
2020/01/31 06:29:57.7	92.690	0.320	-0.880	-0.170
2020/01/31 06:29:57.8	92.690	0.340	-0.860	-0.180
2020/01/31 06:29:57.9	92.690	0.360	-0.830	-0.180
2020/01/31 06:29:58.0	92.700	0.380	-0.790	-0.170
2020/01/31 06:29:58.1	92.700	0.390	-0.750	-0.160
2020/01/31 06:29:58.2	92.700	0.410	-0.700	-0.150
2020/01/31 06:29:58.3	92.700	0.420	-0.650	-0.140
2020/01/31 06:29:58.4	92.700	0.430	-0.600	-0.120
2020/01/31 06:29:58.5	92.710	0.430	-0.540	-0.110
2020/01/31 06:29:58.6	92.710	0.440	-0.480	-0.090
2020/01/31 06:29:58.7	92.710	0.440	-0.430	-0.060
2020/01/31 06:29:58.8	92.720	0.440	-0.370	-0.040
2020/01/31 06:29:58.9	92.720	0.440	-0.310	-0.010
2020/01/31 06:29:59.0	92.720	0.440	-0.250	0.020
2020/01/31 06:29:59.1	92.720	0.440	-0.200	0.060
2020/01/31 06:29:59.2	92.720	0.440	-0.140	0.090
2020/01/31 06:29:59.3	92.720	0.430	-0.090	0.130
2020/01/31 06:29:59.4	92.720	0.430	-0.040	0.170
2020/01/31 06:29:59.5	92.720	0.420	0.000	0.210
2020/01/31 06:29:59.6	92.720	0.420	0.040	0.250
2020/01/31 06:29:59.7	92.720	0.410	0.080	0.300
2020/01/31 06:29:59.8	92.720	0.400	0.110	0.350
2020/01/31 06:29:59.9	92.720	0.400	0.140	0.400
2020/01/31 06:30:00.0	92.710	0.390	0.160	0.450
2020/01/31 06:30:00.1	92.710	0.380	0.180	0.500
2020/01/31 06:30:00.2	92.710	0.370	0.200	0.550
2020/01/31 06:30:00.3	92.700	0.360	0.220	0.600
2020/01/31 06:30:00.4	92.690	0.350	0.230	0.660
2020/01/31 06:30:00.5	92.680	0.350	0.230	0.710
2020/01/31 06:30:00.6	92.660	0.340	0.230	0.760
2020/01/31 06:30:00.7	92.650	0.320	0.230	0.820
2020/01/31 06:30:00.8	92.630	0.310	0.230	0.870
2020/01/31 06:30:00.9	92.620	0.300	0.230	0.920
2020/01/31 06:30:01.0	92.600	0.290	0.220	0.970
2020/01/31 06:30:01.1	92.580	0.280	0.210	1.020
2020/01/31 06:30:01.2	92.550	0.270	0.190	1.070
2020/01/31 06:30:01.3	92.540	0.250	0.180	1.120
2020/01/31 06:30:01.4	92.520	0.240	0.160	1.160
2020/01/31 06:30:01.5	92.500	0.230	0.150	1.200
2020/01/31 06:30:01.6	92.480	0.210	0.130	1.240
2020/01/31 06:30:01.7	92.460	0.200	0.110	1.280
2020/01/31 06:30:01.8	92.440	0.180	0.090	1.320
2020/01/31 06:30:01.9	92.420	0.170	0.070	1.350
2020/01/31 06:30:02.0	92.410	0.150	0.040	1.380
2020/01/31 06:30:02.1	92.390	0.130	0.020	1.410
2020/01/31 06:30:02.2	92.380	0.120	-0.000	1.440
2020/01/31 06:30:02.3	92.370	0.100	-0.030	1.460
2020/01/31 06:30:02.4	92.360	0.090	-0.050	1.490
2020/01/31 06:30:02.5	92.340	0.070	-0.080	1.510
2020/01/31 06:30:02.6	92.330	0.060	-0.100	1.530
2020/01/31 06:30:02.7	92.330	0.050	-0.130	1.540
2020/01/31 06:30:02.8	92.320	0.030	-0.150	1.560
2020/01/31 06:30:02.9	92.310	0.020	-0.180	1.570
2020/01/31 06:30:03.0	92.300	0.010	-0.200	1.590
2020/01/31 06:30:03.1	92.300	-0.010	-0.230	1.600
2020/01/31 06:30:03.2	92.290	-0.020	-0.250	1.610
2020/01/31 06:30:03.3	92.290	-0.030	-0.270	1.620
2020/01/31 06:30:03.4	92.280	-0.040	-0.290	1.630
2020/01/31 06:30:03.5	92.270	-0.050	-0.310	1.630
2020/01/31 06:30:03.6	92.270	-0.050	-0.330	1.640
2020/01/31 06:30:03.7	92.260	-0.060	-0.350	1.640
2020/01/31 06:30:03.8	92.260	-0.070	-0.360	1.640
2020/01/31 06:30:03.9	92.250	-0.080	-0.380	1.640
2020/01/31 06:30:04.0	92.250	-0.080	-0.390	1.640
2020/01/31 06:30:04.1	92.240	-0.090	-0.390	1.640
2020/01/31 06:30:04.2	92.240	-0.100	-0.400	1.630
2020/01/31 06:30:04.3	92.230	-0.100	-0.400	1.630
2020/01/31 06:30:04.4	92.230	-0.110	-0.400	1.630
2020/01/31 06:30:04.5	92.220	-0.110	-0.400	1.620
2020/01/31 06:30:04.6	92.220	-0.120	-0.390	1.610
2020/01/31 06:30:04.7	92.210	-0.120	-0.380	1.610
2020/01/31 06:30:04.8	92.210	-0.130	-0.370	1.600
2020/01/31 06:30:04.9	92.210	-0.130	-0.360	1.590
2020/01/31 06:30:05.0	92.210	-0.140	-0.340	1.580
2020/01/31 06:30:05.1	92.210	-0.140	-0.320	1.570
2020/01/31 06:30:05.2	92.210	-0.150	-0.300	1.550
2020/01/31 06:30:05.3	92.210	-0.160	-0.280	1.540
2020/01/31 06:30:05.4	92.220	-0.160	-0.260	1.530
2020/01/31 06:30:05.5	92.220	-0.170	-0.230	1.510
2020/01/31 06:30:05.6	92.220	-0.170	-0.210	1.490
2020/01/31 06:30:05.7	92.230	-0.180	-0.180	1.470
2020/01/31 06:30:05.8	92.230	-0.190	-0.160	1.450
2020/01/31 06:30:05.9	92.240	-0.190	-0.140	1.430
2020/01/31 06:30:06.0	92.250	-0.200	-0.110	1.410
2020/01/31 06:30:06.1	92.260	-0.200	-0.090	1.380
2020/01/31 06:30:06.2	92.260	-0.210	-0.070	1.350
2020/01/31 06:30:06.3	92.270	-0.210	-0.050	1.330
2020/01/31 06:30:06.4	92.290	-0.220	-0.040	1.300
2020/01/31 06:30:06.5	92.300	-0.220	-0.030	1.260
2020/01/31 06:30:06.6	92.310	-0.220	-0.020	1.230
2020/01/31 06:30:06.7	92.320	-0.220	-0.010	1.200
2020/01/31 06:30:06.8	92.330	-0.220	-0.010	1.160
2020/01/31 06:30:06.9	92.350	-0.220	-0.010	1.130
2020/01/31 06:30:07.0	92.360	-0.220	-0.020	1.090
2020/01/31 06:30:07.1	92.370	-0.210	-0.020	1.060
2020/01/31 06:30:07.2	92.380	-0.210	-0.030	1.030
2020/01/31 06:30:07.3	92.390	-0.200	-0.050	0.990
2020/01/31 06:30:07.4	92.400	-0.190	-0.070	0.960
2020/01/31 06:30:07.5	92.400	-0.180	-0.090	0.920
2020/01/31 06:30:07.6	92.410	-0.170	-0.110	0.890
2020/01/31 06:30:07.7	92.410	-0.160	-0.130	0.860
2020/01/31 06:30:07.8	92.410	-0.150	-0.160	0.830
2020/01/31 06:30:07.9	92.410	-0.140	-0.190	0.800
2020/01/31 06:30:08.0	92.410	-0.120	-0.220	0.770
2020/01/31 06:30:08.1	92.410	-0.110	-0.240	0.750
2020/01/31 06:30:08.2	92.380	-0.090	-0.270	0.730
2020/01/31 06:30:08.3	92.380	-0.080	-0.300	0.710
2020/01/31 06:30:08.4	92.360	-0.070	-0.320	0.690
2020/01/31 06:30:08.5	92.350	-0.050	-0.340	0.670
2020/01/31 06:30:08.6	92.340	-0.040	-0.360	0.660
2020/01/31 06:30:08.7	92.320	-0.030	-0.380	0.640
2020/01/31 06:30:08.8	92.300	-0.020	-0.390	0.630
2020/01/31 06:30:08.9	92.280	-0.010	-0.400	0.620
2020/01/31 06:30:09.0	92.260	-0.010	-0.400	0.610
2020/01/31 06:30:09.1	92.240	-0.000	-0.400	0.600
2020/01/31 06:30:09.2	92.220	-0.000	-0.400	0.590
2020/01/31 06:30:09.3	92.190	-0.000	-0.390	0.590
2020/01/31 06:30:09.4	92.170	-0.000	-0.370	0.580
2020/01/31 06:30:09.5	92.150	-0.010	-0.360	0.580
2020/01/31 06:30:09.6	92.120	-0.010	-0.340	0.570
2020/01/31 06:30:09.7	92.100	-0.020	-0.310	0.570
2020/01/31 06:30:09.8	92.080	-0.030	-0.290	0.560
2020/01/31 06:30:09.9	92.050	-0.040	-0.260	0.550
2020/01/31 06:30:10.0	92.030	-0.050	-0.230	0.550
2020/01/31 06:30:10.1	92.020	-0.070	-0.200	0.540
2020/01/31 06:30:10.2	92.000	-0.080	-0.160	0.530
2020/01/31 06:30:10.3	91.990	-0.090	-0.120	0.520
2020/01/31 06:30:10.4	91.980	-0.110	-0.090	0.510
2020/01/31 06:30:10.5	91.970	-0.120	-0.060	0.490
2020/01/31 06:30:10.6	91.960	-0.140	-0.030	0.480
2020/01/31 06:30:10.7	91.950	-0.150	-0.000	0.460
2020/01/31 06:30:10.8	91.950	-0.170	0.020	0.440
2020/01/31 06:30:10.9	91.950	-0.180	0.050	0.420
2020/01/31 06:30:11.0	91.950	-0.190	0.070	0.400
2020/01/31 06:30:11.1	91.950	-0.200	0.080	0.380
2020/01/31 06:30:11.2	91.960	-0.200	0.090	0.360
2020/01/31 06:30:11.3	91.970	-0.210	0.100	0.330
2020/01/31 06:30:11.4	91.970	-0.210	0.110	0.310
2020/01/31 06:30:11.5	91.980	-0.210	0.110	0.280
2020/01/31 06:30:11.6	91.990	-0.210	0.110	0.260
2020/01/31 06:30:11.7	92.010	-0.200	0.110	0.240
2020/01/31 06:30:11.8	92.020	-0.200	0.100	0.220
2020/01/31 06:30:11.9	92.030	-0.190	0.090	0.200
2020/01/31 06:30:12.0	92.040	-0.180	0.080	0.180
2020/01/31 06:30:12.1	92.050	-0.160	0.060	0.170
2020/01/31 06:30:12.2	92.060	-0.150	0.050	0.150
2020/01/31 06:30:12.3	92.070	-0.130	0.030	0.140
2020/01/31 06:30:12.4	92.070	-0.120	0.010	0.130
2020/01/31 06:30:12.5	92.080	-0.100	-0.010	0.120
2020/01/31 06:30:12.6	92.080	-0.080	-0.030	0.120
2020/01/31 06:30:12.7	92.080	-0.050	-0.050	0.110
2020/01/31 06:30:12.8	92.080	-0.030	-0.070	0.110
2020/01/31 06:30:12.9	92.080	-0.010	-0.100	0.110
2020/01/31 06:30:13.0	92.080	0.010	-0.120	0.110
2020/01/31 06:30:13.1	92.080	0.030	-0.140	0.110
2020/01/31 06:30:13.2	92.080	0.050	-0.150	0.110
2020/01/31 06:30:13.3	92.070	0.070	-0.170	0.120
2020/01/31 06:30:13.4	92.060	0.090	-0.180	0.120
2020/01/31 06:30:13.5	92.050	0.110	-0.200	0.130
2020/01/31 06:30:13.6	92.050	0.120	-0.210	0.130
2020/01/31 06:30:13.7	92.040	0.140	-0.220	0.140
2020/01/31 06:30:13.8	92.030	0.150	-0.220	0.150
2020/01/31 06:30:13.9	92.020	0.160	-0.220	0.160
2020/01/31 06:30:14.0	92.010	0.170	-0.230	0.170
2020/01/31 06:30:14.1	92.000	0.180	-0.230	0.180
2020/01/31 06:30:14.2	92.000	0.180	-0.220	0.190
2020/01/31 06:30:14.3	91.990	0.180	-0.210	0.210
2020/01/31 06:30:14.4	91.980	0.190	-0.210	0.220
2020/01/31 06:30:14.5	91.970	0.190	-0.200	0.230
2020/01/31 06:30:14.6	91.960	0.180	-0.200	0.250
2020/01/31 06:30:14.7	91.950	0.180	-0.190	0.270
2020/01/31 06:30:14.8	91.950	0.180	-0.190	0.280
2020/01/31 06:30:14.9	91.940	0.170	-0.180	0.300
2020/01/31 06:30:15.0	91.930	0.160	-0.180	0.320
2020/01/31 06:30:15.1	91.930	0.160	-0.180	0.340
2020/01/31 06:30:15.2	91.930	0.150	-0.180	0.370
2020/01/31 06:30:15.3	91.920	0.140	-0.180	0.390
2020/01/31 06:30:15.4	91.920	0.140	-0.190	0.420
2020/01/31 06:30:15.5	91.920	0.130	-0.190	0.440
2020/01/31 06:30:15.6	91.920	0.120	-0.210	0.470
2020/01/31 06:30:15.7	91.920	0.120	-0.220	0.500
2020/01/31 06:30:15.8	91.920	0.110	-0.230	0.520
2020/01/31 06:30:15.9	91.920	0.110	-0.250	0.550
2020/01/31 06:30:16.0	91.930	0.110	-0.270	0.590
2020/01/31 06:30:16.1	91.930	0.100	-0.290	0.620
2020/01/31 06:30:16.2	91.940	0.100	-0.320	0.650
2020/01/31 06:30:16.3	91.950	0.100	-0.340	0.680
2020/01/31 06:30:16.4	91.960	0.100	-0.360	0.720
2020/01/31 06:30:16.5	91.970	0.100	-0.380	0.750
2020/01/31 06:30:16.6	91.970	0.100	-0.410	0.780
2020/01/31 06:30:16.7	91.980	0.110	-0.430	0.820
2020/01/31 06:30:16.8	91.990	0.110	-0.450	0.850
2020/01/31 06:30:16.9	92.000	0.110	-0.470	0.890
2020/01/31 06:30:17.0	92.010	0.110	-0.490	0.930
2020/01/31 06:30:17.1	92.010	0.120	-0.500	0.960
2020/01/31 06:30:17.2	92.020	0.120	-0.510	1.000
2020/01/31 06:30:17.3	92.030	0.130	-0.520	1.040
2020/01/31 06:30:17.4	92.030	0.130	-0.520	1.080
2020/01/31 06:30:17.5	92.030	0.130	-0.520	1.120
2020/01/31 06:30:17.6	92.030	0.130	-0.520	1.150
2020/01/31 06:30:17.7	92.020	0.130	-0.510	1.190
2020/01/31 06:30:17.8	92.020	0.130	-0.500	1.230
2020/01/31 06:30:17.9	92.010	0.130	-0.480	1.270
2020/01/31 06:30:18.0	92.000	0.130	-0.450	1.300
2020/01/31 06:30:18.1	91.990	0.130	-0.430	1.340
2020/01/31 06:30:18.2	91.980	0.130	-0.400	1.380
2020/01/31 06:30:18.3	91.970	0.120	-0.360	1.410
2020/01/31 06:30:18.4	91.950	0.110	-0.320	1.440
2020/01/31 06:30:18.5	91.930	0.110	-0.280	1.480
2020/01/31 06:30:18.6	91.910	0.100	-0.230	1.510
2020/01/31 06:30:18.7	91.890	0.090	-0.180	1.540
2020/01/31 06:30:18.8	91.870	0.070	-0.130	1.560
2020/01/31 06:30:18.9	91.850	0.060	-0.080	1.590
2020/01/31 06:30:19.0	91.820	0.050	-0.030	1.610
2020/01/31 06:30:19.1	91.800	0.030	0.020	1.630
2020/01/31 06:30:19.2	91.770	0.020	0.070	1.650
2020/01/31 06:30:19.3	91.750	0.000	0.120	1.670
2020/01/31 06:30:19.4	91.730	-0.010	0.170	1.690
2020/01/31 06:30:19.5	91.710	-0.030	0.210	1.700
2020/01/31 06:30:19.6	91.690	-0.040	0.250	1.710
2020/01/31 06:30:19.7	91.670	-0.060	0.290	1.710
2020/01/31 06:30:19.8	91.650	-0.070	0.320	1.720
2020/01/31 06:30:19.9	91.640	-0.090	0.350	1.720
2020/01/31 06:30:20.0	91.620	-0.100	0.370	1.710
2020/01/31 06:30:20.1	91.610	-0.110	0.390	1.710
2020/01/31 06:30:20.2	91.610	-0.120	0.400	1.700
2020/01/31 06:30:20.3	91.600	-0.130	0.410	1.680
2020/01/31 06:30:20.4	91.600	-0.130	0.410	1.670
2020/01/31 06:30:20.5	91.600	-0.140	0.400	1.650
2020/01/31 06:30:20.6	91.600	-0.140	0.390	1.620
2020/01/31 06:30:20.7	91.600	-0.140	0.370	1.600
2020/01/31 06:30:20.8	91.600	-0.140	0.350	1.570
2020/01/31 06:30:20.9	91.610	-0.130	0.320	1.530
2020/01/31 06:30:21.0	91.610	-0.130	0.280	1.500
2020/01/31 06:30:21.1	91.620	-0.120	0.240	1.460
2020/01/31 06:30:21.2	91.630	-0.110	0.200	1.430
2020/01/31 06:30:21.3	91.640	-0.090	0.150	1.390
2020/01/31 06:30:21.4	91.650	-0.080	0.100	1.340
2020/01/31 06:30:21.5	91.670	-0.060	0.040	1.300
2020/01/31 06:30:21.6	91.680	-0.040	-0.020	1.250
2020/01/31 06:30:21.7	91.690	-0.020	-0.080	1.210
2020/01/31 06:30:21.8	91.710	0.000	-0.140	1.160
2020/01/31 06:30:21.9	91.720	0.030	-0.210	1.110
2020/01/31 06:30:22.0	91.740	0.050	-0.270	1.060
2020/01/31 06:30:22.1	91.760	0.070	-0.340	1.010
2020/01/31 06:30:22.2	91.770	0.100	-0.400	0.960
2020/01/31 06:30:22.3	91.780	0.120	-0.460	0.910
2020/01/31 06:30:22.4	91.790	0.150	-0.520	0.860
2020/01/31 06:30:22.5	91.810	0.170	-0.570	0.810
2020/01/31 06:30:22.6	91.820	0.190	-0.620	0.760
2020/01/31 06:30:22.7	91.830	0.210	-0.660	0.710
2020/01/31 06:30:22.8	91.840	0.230	-0.700	0.670
2020/01/31 06:30:22.9	91.850	0.250	-0.730	0.620
2020/01/31 06:30:23.0	91.860	0.260	-0.750	0.580
2020/01/31 06:30:23.1	91.860	0.270	-0.770	0.540
2020/01/31 06:30:23.2	91.860	0.280	-0.770	0.500
2020/01/31 06:30:23.3	91.870	0.280	-0.770	0.460
2020/01/31 06:30:23.4	91.870	0.280	-0.760	0.430
2020/01/31 06:30:23.5	91.860	0.280	-0.750	0.400
2020/01/31 06:30:23.6	91.860	0.270	-0.720	0.380
2020/01/31 06:30:23.7	91.850	0.260	-0.690	0.350
2020/01/31 06:30:23.8	91.850	0.250	-0.650	0.330
2020/01/31 06:30:23.9	91.840	0.230	-0.610	0.320
2020/01/31 06:30:24.0	91.820	0.210	-0.560	0.300
2020/01/31 06:30:24.1	91.810	0.180	-0.510	0.290
2020/01/31 06:30:24.2	91.800	0.160	-0.450	0.290
2020/01/31 06:30:24.3	91.780	0.120	-0.380	0.280
2020/01/31 06:30:24.4	91.760	0.090	-0.320	0.280
2020/01/31 06:30:24.5	91.740	0.050	-0.250	0.280
2020/01/31 06:30:24.6	91.720	0.020	-0.180	0.290
2020/01/31 06:30:24.7	91.700	-0.020	-0.110	0.290
2020/01/31 06:30:24.8	91.680	-0.070	-0.050	0.300
2020/01/31 06:30:24.9	91.660	-0.110	0.020	0.310
2020/01/31 06:30:25.0	91.640	-0.150	0.080	0.330
2020/01/31 06:30:25.1	91.610	-0.190	0.140	0.340
2020/01/31 06:30:25.2	91.600	-0.240	0.210	0.360
2020/01/31 06:30:25.3	91.570	-0.280	0.260	0.380
2020/01/31 06:30:25.4	91.550	-0.320	0.310	0.400
2020/01/31 06:30:25.5	91.540	-0.360	0.350	0.410
2020/01/31 06:30:25.6	91.520	-0.390	0.380	0.430
2020/01/31 06:30:25.7	91.500	-0.430	0.410	0.450
2020/01/31 06:30:25.8	91.490	-0.460	0.430	0.470
2020/01/31 06:30:25.9	91.480	-0.490	0.450	0.480
2020/01/31 06:30:26.0	91.470	-0.510	0.450	0.500
2020/01/31 06:30:26.1	91.460	-0.530	0.450	0.510
2020/01/31 06:30:26.2	91.460	-0.550	0.440	0.520
2020/01/31 06:30:26.3	91.460	-0.560	0.430	0.530
2020/01/31 06:30:26.4	91.460	-0.580	0.410	0.540
2020/01/31 06:30:26.5	91.460	-0.580	0.380	0.550
2020/01/31 06:30:26.6	91.470	-0.580	0.350	0.550
2020/01/31 06:30:26.7	91.470	-0.580	0.310	0.550
2020/01/31 06:30:26.8	91.480	-0.580	0.270	0.550
2020/01/31 06:30:26.9	91.500	-0.570	0.230	0.550
2020/01/31 06:30:27.0	91.510	-0.560	0.180	0.550
2020/01/31 06:30:27.1	91.530	-0.540	0.130	0.550
2020/01/31 06:30:27.2	91.550	-0.520	0.070	0.550
2020/01/31 06:30:27.3	91.570	-0.500	0.020	0.540
2020/01/31 06:30:27.4	91.590	-0.480	-0.030	0.530
2020/01/31 06:30:27.5	91.610	-0.450	-0.090	0.530
2020/01/31 06:30:27.6	91.630	-0.420	-0.140	0.520
2020/01/31 06:30:27.7	91.650	-0.400	-0.190	0.520
2020/01/31 06:30:27.8	91.670	-0.360	-0.240	0.510
2020/01/31 06:30:27.9	91.690	-0.330	-0.290	0.510
2020/01/31 06:30:28.0	91.710	-0.300	-0.330	0.510
2020/01/31 06:30:28.1	91.720	-0.270	-0.370	0.510
2020/01/31 06:30:28.2	91.730	-0.230	-0.410	0.510
2020/01/31 06:30:28.3	91.750	-0.200	-0.440	0.510
2020/01/31 06:30:28.4	91.760	-0.170	-0.470	0.520
2020/01/31 06:30:28.5	91.760	-0.140	-0.490	0.530
2020/01/31 06:30:28.6	91.770	-0.110	-0.510	0.540
2020/01/31 06:30:28.7	91.770	-0.080	-0.520	0.560
2020/01/31 06:30:28.8	91.770	-0.050	-0.520	0.580
2020/01/31 06:30:28.9	91.760	-0.020	-0.520	0.600
2020/01/31 06:30:29.0	91.760	0.010	-0.520	0.620
2020/01/31 06:30:29.1	91.750	0.030	-0.510	0.640
2020/01/31 06:30:29.2	91.740	0.050	-0.500	0.680
2020/01/31 06:30:29.3	91.720	0.070	-0.480	0.700
2020/01/31 06:30:29.4	91.700	0.090	-0.460	0.730
2020/01/31 06:30:29.5	91.680	0.110	-0.440	0.770
2020/01/31 06:30:29.6	91.660	0.130	-0.420	0.800
2020/01/31 06:30:29.7	91.640	0.140	-0.400	0.830
2020/01/31 06:30:29.8	91.620	0.150	-0.370	0.870
2020/01/31 06:30:29.9	91.600	0.160	-0.340	0.900
2020/01/31 06:30:30.0	91.570	0.170	-0.320	0.930
2020/01/31 06:30:30.1	91.550	0.180	-0.290	0.960
2020/01/31 06:30:30.2	91.530	0.190	-0.260	0.990
2020/01/31 06:30:30.3	91.510	0.190	-0.240	1.020
2020/01/31 06:30:30.4	91.490	0.190	-0.220	1.050
2020/01/31 06:30:30.5	91.470	0.200	-0.190	1.070
2020/01/31 06:30:30.6	91.460	0.200	-0.180	1.090
2020/01/31 06:30:30.7	91.440	0.200	-0.160	1.110
2020/01/31 06:30:30.8	91.430	0.200	-0.140	1.120
2020/01/31 06:30:30.9	91.410	0.200	-0.130	1.140
2020/01/31 06:30:31.0	91.400	0.200	-0.130	1.150
2020/01/31 06:30:31.1	91.400	0.200	-0.120	1.150
2020/01/31 06:30:31.2	91.400	0.200	-0.120	1.160
2020/01/31 06:30:31.3	91.390	0.200	-0.120	1.160
2020/01/31 06:30:31.4	91.390	0.200	-0.130	1.150
2020/01/31 06:30:31.5	91.390	0.200	-0.140	1.150
2020/01/31 06:30:31.6	91.400	0.200	-0.150	1.140
2020/01/31 06:30:31.7	91.400	0.210	-0.170	1.120
2020/01/31 06:30:31.8	91.410	0.210	-0.190	1.110
2020/01/31 06:30:31.9	91.420	0.210	-0.210	1.090
2020/01/31 06:30:32.0	91.420	0.220	-0.230	1.070
2020/01/31 06:30:32.1	91.440	0.220	-0.260	1.040
2020/01/31 06:30:32.2	91.450	0.230	-0.290	1.020
2020/01/31 06:30:32.3	91.470	0.240	-0.320	0.990
2020/01/31 06:30:32.4	91.480	0.250	-0.350	0.970
2020/01/31 06:30:32.5	91.490	0.260	-0.380	0.940
2020/01/31 06:30:32.6	91.510	0.270	-0.400	0.910
2020/01/31 06:30:32.7	91.520	0.280	-0.430	0.880
2020/01/31 06:30:32.8	91.540	0.290	-0.460	0.860
2020/01/31 06:30:32.9	91.550	0.300	-0.480	0.830
2020/01/31 06:30:33.0	91.560	0.320	-0.500	0.810
2020/01/31 06:30:33.1	91.570	0.330	-0.510	0.790
2020/01/31 06:30:33.2	91.590	0.340	-0.530	0.770
2020/01/31 06:30:33.3	91.590	0.350	-0.540	0.750
2020/01/31 06:30:33.4	91.600	0.370	-0.540	0.730
2020/01/31 06:30:33.5	91.610	0.380	-0.540	0.720
2020/01/31 06:30:33.6	91.610	0.390	-0.540	0.710
2020/01/31 06:30:33.7	91.610	0.390	-0.530	0.700
2020/01/31 06:30:33.8	91.610	0.400	-0.510	0.700
2020/01/31 06:30:33.9	91.610	0.410	-0.490	0.690
2020/01/31 06:30:34.0	91.610	0.410	-0.470	0.690
2020/01/31 06:30:34.1	91.600	0.410	-0.440	0.690
2020/01/31 06:30:34.2	91.590	0.410	-0.410	0.700
2020/01/31 06:30:34.3	91.580	0.410	-0.380	0.700
2020/01/31 06:30:34.4	91.570	0.410	-0.340	0.710
2020/01/31 06:30:34.5	91.560	0.400	-0.300	0.710
2020/01/31 06:30:34.6	91.550	0.390	-0.260	0.720
2020/01/31 06:30:34.7	91.540	0.380	-0.220	0.730
2020/01/31 06:30:34.8	91.530	0.370	-0.170	0.740
2020/01/31 06:30:34.9	91.510	0.350	-0.120	0.750
2020/01/31 06:30:35.0	91.500	0.330	-0.080	0.760
2020/01/31 06:30:35.1	91.480	0.310	-0.030	0.770
2020/01/31 06:30:35.2	91.460	0.290	0.010	0.770
2020/01/31 06:30:35.3	91.440	0.260	0.060	0.780
2020/01/31 06:30:35.4	91.430	0.240	0.100	0.790
2020/01/31 06:30:35.5	91.420	0.210	0.130	0.790
2020/01/31 06:30:35.6	91.400	0.180	0.170	0.800
2020/01/31 06:30:35.7	91.390	0.150	0.200	0.800
2020/01/31 06:30:35.8	91.380	0.120	0.230	0.800
2020/01/31 06:30:35.9	91.370	0.090	0.260	0.810
2020/01/31 06:30:36.0	91.360	0.050	0.280	0.810
2020/01/31 06:30:36.1	91.350	0.020	0.290	0.810
2020/01/31 06:30:36.2	91.340	-0.010	0.310	0.810
2020/01/31 06:30:36.3	91.330	-0.050	0.320	0.810
2020/01/31 06:30:36.4	91.320	-0.080	0.320	0.810
2020/01/31 06:30:36.5	91.320	-0.110	0.320	0.810
2020/01/31 06:30:36.6	91.310	-0.140	0.320	0.800
2020/01/31 06:30:36.7	91.310	-0.170	0.310	0.800
2020/01/31 06:30:36.8	91.310	-0.200	0.300	0.800
2020/01/31 06:30:36.9	91.300	-0.220	0.290	0.810
2020/01/31 06:30:37.0	91.300	-0.250	0.270	0.810
2020/01/31 06:30:37.1	91.300	-0.270	0.250	0.810
2020/01/31 06:30:37.2	91.300	-0.300	0.230	0.820
2020/01/31 06:30:37.3	91.300	-0.320	0.210	0.820
2020/01/31 06:30:37.4	91.300	-0.340	0.180	0.830
2020/01/31 06:30:37.5	91.310	-0.350	0.160	0.830
2020/01/31 06:30:37.6	91.310	-0.370	0.140	0.840
2020/01/31 06:30:37.7	91.320	-0.380	0.110	0.850
2020/01/31 06:30:37.8	91.320	-0.390	0.090	0.860
2020/01/31 06:30:37.9	91.330	-0.400	0.060	0.870
2020/01/31 06:30:38.0	91.340	-0.410	0.040	0.880
2020/01/31 06:30:38.1	91.350	-0.420	0.010	0.880
2020/01/31 06:30:38.2	91.360	-0.430	-0.010	0.890
2020/01/31 06:30:38.3	91.370	-0.430	-0.030	0.900
2020/01/31 06:30:38.4	91.380	-0.430	-0.050	0.910
2020/01/31 06:30:38.5	91.400	-0.440	-0.070	0.910
2020/01/31 06:30:38.6	91.410	-0.440	-0.090	0.920
2020/01/31 06:30:38.7	91.430	-0.440	-0.110	0.920
2020/01/31 06:30:38.8	91.450	-0.440	-0.130	0.930
2020/01/31 06:30:38.9	91.460	-0.440	-0.140	0.930
2020/01/31 06:30:39.0	91.480	-0.430	-0.160	0.930
2020/01/31 06:30:39.1	91.500	-0.430	-0.170	0.930
2020/01/31 06:30:39.2	91.520	-0.430	-0.180	0.930
2020/01/31 06:30:39.3	91.540	-0.430	-0.180	0.930
2020/01/31 06:30:39.4	91.560	-0.420	-0.190	0.920
2020/01/31 06:30:39.5	91.580	-0.420	-0.190	0.920
2020/01/31 06:30:39.6	91.610	-0.410	-0.190	0.910
2020/01/31 06:30:39.7	91.630	-0.410	-0.190	0.910
2020/01/31 06:30:39.8	91.650	-0.400	-0.190	0.900
2020/01/31 06:30:39.9	91.670	-0.390	-0.190	0.890
2020/01/31 06:30:40.0	91.680	-0.390	-0.180	0.890
2020/01/31 06:30:40.1	91.700	-0.380	-0.180	0.880
2020/01/31 06:30:40.2	91.710	-0.370	-0.170	0.870
2020/01/31 06:30:40.3	91.730	-0.370	-0.160	0.870
2020/01/31 06:30:40.4	91.740	-0.360	-0.150	0.860
2020/01/31 06:30:40.5	91.750	-0.350	-0.140	0.850
2020/01/31 06:30:40.6	91.770	-0.340	-0.140	0.850
2020/01/31 06:30:40.7	91.780	-0.330	-0.130	0.840
2020/01/31 06:30:40.8	91.790	-0.320	-0.120	0.830
2020/01/31 06:30:40.9	91.790	-0.310	-0.110	0.830
2020/01/31 06:30:41.0	91.800	-0.290	-0.110	0.830
2020/01/31 06:30:41.1	91.800	-0.280	-0.100	0.820
2020/01/31 06:30:41.2	91.810	-0.260	-0.090	0.820
2020/01/31 06:30:41.3	91.810	-0.250	-0.090	0.820
2020/01/31 06:30:41.4	91.810	-0.230	-0.090	0.820
2020/01/31 06:30:41.5	91.810	-0.210	-0.090	0.820
2020/01/31 06:30:41.6	91.810	-0.190	-0.090	0.810
2020/01/31 06:30:41.7	91.810	-0.170	-0.100	0.810
2020/01/31 06:30:41.8	91.800	-0.140	-0.110	0.820
2020/01/31 06:30:41.9	91.790	-0.120	-0.110	0.820
2020/01/31 06:30:42.0	91.780	-0.090	-0.130	0.820
2020/01/31 06:30:42.1	91.770	-0.070	-0.140	0.820
2020/01/31 06:30:42.2	91.750	-0.040	-0.160	0.830
2020/01/31 06:30:42.3	91.730	-0.010	-0.180	0.830
2020/01/31 06:30:42.4	91.720	0.020	-0.200	0.840
2020/01/31 06:30:42.5	91.700	0.050	-0.220	0.840
2020/01/31 06:30:42.6	91.690	0.090	-0.250	0.840
2020/01/31 06:30:42.7	91.670	0.120	-0.280	0.850
2020/01/31 06:30:42.8	91.650	0.150	-0.310	0.850
2020/01/31 06:30:42.9	91.630	0.190	-0.340	0.850
2020/01/31 06:30:43.0	91.620	0.220	-0.370	0.850
2020/01/31 06:30:43.1	91.600	0.260	-0.400	0.850
2020/01/31 06:30:43.2	91.590	0.300	-0.430	0.850
2020/01/31 06:30:43.3	91.570	0.330	-0.470	0.840
2020/01/31 06:30:43.4	91.560	0.360	-0.510	0.840
2020/01/31 06:30:43.5	91.550	0.400	-0.540	0.820
2020/01/31 06:30:43.6	91.540	0.430	-0.580	0.810
2020/01/31 06:30:43.7	91.540	0.460	-0.610	0.800
2020/01/31 06:30:43.8	91.540	0.500	-0.650	0.780
2020/01/31 06:30:43.9	91.540	0.520	-0.680	0.760
2020/01/31 06:30:44.0	91.540	0.550	-0.710	0.740
2020/01/31 06:30:44.1	91.540	0.580	-0.740	0.720
2020/01/31 06:30:44.2	91.560	0.600	-0.760	0.700
2020/01/31 06:30:44.3	91.560	0.630	-0.790	0.680
2020/01/31 06:30:44.4	91.570	0.640	-0.800	0.650
2020/01/31 06:30:44.5	91.580	0.660	-0.820	0.630
2020/01/31 06:30:44.6	91.590	0.680	-0.830	0.610
2020/01/31 06:30:44.7	91.590	0.690	-0.830	0.590
2020/01/31 06:30:44.8	91.600	0.700	-0.830	0.570
2020/01/31 06:30:44.9	91.600	0.700	-0.830	0.560
2020/01/31 06:30:45.0	91.610	0.700	-0.810	0.540
2020/01/31 06:30:45.1	91.610	0.700	-0.800	0.530
2020/01/31 06:30:45.2	91.620	0.690	-0.770	0.520
2020/01/31 06:30:45.3	91.620	0.690	-0.740	0.510
2020/01/31 06:30:45.4	91.620	0.670	-0.710	0.500
2020/01/31 06:30:45.5	91.610	0.660	-0.670	0.500
2020/01/31 06:30:45.6	91.610	0.630	-0.620	0.490
2020/01/31 06:30:45.7	91.600	0.610	-0.570	0.490
2020/01/31 06:30:45.8	91.590	0.580	-0.510	0.490
2020/01/31 06:30:45.9	91.580	0.550	-0.440	0.480
2020/01/31 06:30:46.0	91.570	0.510	-0.380	0.480
2020/01/31 06:30:46.1	91.560	0.470	-0.310	0.480
2020/01/31 06:30:46.2	91.550	0.430	-0.230	0.480
2020/01/31 06:30:46.3	91.540	0.390	-0.150	0.480
2020/01/31 06:30:46.4	91.530	0.340	-0.070	0.480
2020/01/31 06:30:46.5	91.510	0.290	0.010	0.480
2020/01/31 06:30:46.6	91.500	0.240	0.090	0.480
2020/01/31 06:30:46.7	91.490	0.180	0.170	0.470
2020/01/31 06:30:46.8	91.470	0.130	0.250	0.470
2020/01/31 06:30:46.9	91.460	0.070	0.330	0.470
2020/01/31 06:30:47.0	91.450	0.010	0.400	0.470
2020/01/31 06:30:47.1	91.440	-0.040	0.470	0.460
2020/01/31 06:30:47.2	91.430	-0.100	0.540	0.460
2020/01/31 06:30:47.3	91.420	-0.150	0.600	0.450
2020/01/31 06:30:47.4	91.410	-0.210	0.660	0.450
2020/01/31 06:30:47.5	91.410	-0.260	0.710	0.440
2020/01/31 06:30:47.6	91.410	-0.310	0.750	0.430
2020/01/31 06:30:47.7	91.410	-0.360	0.780	0.420
2020/01/31 06:30:47.8	91.410	-0.400	0.800	0.410
2020/01/31 06:30:47.9	91.410	-0.440	0.810	0.400
2020/01/31 06:30:48.0	91.410	-0.470	0.810	0.390
2020/01/31 06:30:48.1	91.420	-0.500	0.810	0.380
2020/01/31 06:30:48.2	91.430	-0.520	0.790	0.360
2020/01/31 06:30:48.3	91.440	-0.540	0.760	0.350
2020/01/31 06:30:48.4	91.450	-0.560	0.720	0.350
2020/01/31 06:30:48.5	91.470	-0.560	0.670	0.340
2020/01/31 06:30:48.6	91.480	-0.570	0.620	0.330
2020/01/31 06:30:48.7	91.500	-0.560	0.550	0.330
2020/01/31 06:30:48.8	91.520	-0.550	0.480	0.320
2020/01/31 06:30:48.9	91.530	-0.540	0.410	0.320
2020/01/31 06:30:49.0	91.560	-0.520	0.320	0.320
2020/01/31 06:30:49.1	91.580	-0.500	0.240	0.320
2020/01/31 06:30:49.2	91.600	-0.480	0.150	0.340
2020/01/31 06:30:49.3	91.620	-0.450	0.060	0.340
2020/01/31 06:30:49.4	91.640	-0.420	-0.030	0.360
2020/01/31 06:30:49.5	91.660	-0.380	-0.120	0.370
2020/01/31 06:30:49.6	91.680	-0.350	-0.210	0.390
2020/01/31 06:30:49.7	91.690	-0.310	-0.290	0.420
2020/01/31 06:30:49.8	91.700	-0.280	-0.370	0.440
2020/01/31 06:30:49.9	91.720	-0.240	-0.440	0.470
2020/01/31 06:30:50.0	91.720	-0.210	-0.510	0.500
2020/01/31 06:30:50.1	91.730	-0.170	-0.570	0.530
2020/01/31 06:30:50.2	91.740	-0.140	-0.620	0.570
2020/01/31 06:30:50.3	91.740	-0.120	-0.660	0.600
2020/01/31 06:30:50.4	91.740	-0.090	-0.690	0.640
2020/01/31 06:30:50.5	91.740	-0.070	-0.720	0.670
2020/01/31 06:30:50.6	91.740	-0.050	-0.730	0.700
2020/01/31 06:30:50.7	91.730	-0.040	-0.730	0.730
2020/01/31 06:30:50.8	91.720	-0.030	-0.730	0.760
2020/01/31 06:30:50.9	91.710	-0.030	-0.720	0.790
2020/01/31 06:30:51.0	91.700	-0.030	-0.700	0.810
2020/01/31 06:30:51.1	91.690	-0.030	-0.670	0.830
2020/01/31 06:30:51.2	91.670	-0.040	-0.630	0.850
2020/01/31 06:30:51.3	91.650	-0.050	-0.590	0.870
2020/01/31 06:30:51.4	91.640	-0.060	-0.540	0.880
2020/01/31 06:30:51.5	91.620	-0.080	-0.480	0.900
2020/01/31 06:30:51.6	91.600	-0.100	-0.420	0.900
2020/01/31 06:30:51.7	91.580	-0.130	-0.360	0.910
2020/01/31 06:30:51.8	91.570	-0.150	-0.300	0.920
2020/01/31 06:30:51.9	91.550	-0.180	-0.230	0.920
2020/01/31 06:30:52.0	91.530	-0.210	-0.160	0.920
2020/01/31 06:30:52.1	91.510	-0.240	-0.090	0.910
2020/01/31 06:30:52.2	91.500	-0.270	-0.020	0.910
2020/01/31 06:30:52.3	91.480	-0.300	0.040	0.900
2020/01/31 06:30:52.4	91.470	-0.330	0.100	0.900
2020/01/31 06:30:52.5	91.450	-0.350	0.160	0.890
2020/01/31 06:30:52.6	91.440	-0.380	0.210	0.880
2020/01/31 06:30:52.7	91.420	-0.400	0.260	0.870
2020/01/31 06:30:52.8	91.410	-0.420	0.300	0.860
2020/01/31 06:30:52.9	91.390	-0.430	0.330	0.850
2020/01/31 06:30:53.0	91.380	-0.440	0.360	0.830
2020/01/31 06:30:53.1	91.370	-0.450	0.380	0.820
2020/01/31 06:30:53.2	91.370	-0.450	0.390	0.820
2020/01/31 06:30:53.3	91.360	-0.450	0.390	0.810
2020/01/31 06:30:53.4	91.350	-0.440	0.380	0.800
2020/01/31 06:30:53.5	91.340	-0.430	0.360	0.800
2020/01/31 06:30:53.6	91.330	-0.410	0.330	0.800
2020/01/31 06:30:53.7	91.320	-0.390	0.300	0.800
2020/01/31 06:30:53.8	91.310	-0.360	0.260	0.800
2020/01/31 06:30:53.9	91.310	-0.320	0.210	0.800
2020/01/31 06:30:54.0	91.300	-0.290	0.150	0.810
2020/01/31 06:30:54.1	91.290	-0.240	0.080	0.810
2020/01/31 06:30:54.2	91.290	-0.200	0.010	0.820
2020/01/31 06:30:54.3	91.290	-0.140	-0.070	0.820
2020/01/31 06:30:54.4	91.280	-0.090	-0.150	0.830
2020/01/31 06:30:54.5	91.280	-0.030	-0.230	0.830
2020/01/31 06:30:54.6	91.280	0.020	-0.320	0.830
2020/01/31 06:30:54.7	91.280	0.080	-0.410	0.830
2020/01/31 06:30:54.8	91.280	0.150	-0.500	0.830
2020/01/31 06:30:54.9	91.290	0.210	-0.580	0.820
2020/01/31 06:30:55.0	91.290	0.270	-0.670	0.820
2020/01/31 06:30:55.1	91.300	0.330	-0.750	0.810
2020/01/31 06:30:55.2	91.310	0.390	-0.830	0.800
2020/01/31 06:30:55.3	91.310	0.450	-0.900	0.780
2020/01/31 06:30:55.4	91.320	0.500	-0.970	0.770
2020/01/31 06:30:55.5	91.330	0.560	-1.030	0.750
2020/01/31 06:30:55.6	91.340	0.600	-1.090	0.730
2020/01/31 06:30:55.7	91.350	0.650	-1.140	0.710
2020/01/31 06:30:55.8	91.360	0.690	-1.180	0.690
2020/01/31 06:30:55.9	91.370	0.730	-1.200	0.670
2020/01/31 06:30:56.0	91.380	0.760	-1.220	0.650
2020/01/31 06:30:56.1	91.390	0.780	-1.230	0.620
2020/01/31 06:30:56.2	91.400	0.800	-1.240	0.600
2020/01/31 06:30:56.3	91.410	0.820	-1.230	0.580
2020/01/31 06:30:56.4	91.420	0.830	-1.210	0.560
2020/01/31 06:30:56.5	91.430	0.830	-1.180	0.540
2020/01/31 06:30:56.6	91.430	0.830	-1.140	0.520
2020/01/31 06:30:56.7	91.440	0.820	-1.090	0.510
2020/01/31 06:30:56.8	91.440	0.810	-1.030	0.490
2020/01/31 06:30:56.9	91.440	0.800	-0.970	0.480
2020/01/31 06:30:57.0	91.440	0.780	-0.900	0.480
2020/01/31 06:30:57.1	91.440	0.750	-0.820	0.470
2020/01/31 06:30:57.2	91.440	0.720	-0.730	0.470
2020/01/31 06:30:57.3	91.440	0.690	-0.630	0.470
2020/01/31 06:30:57.4	91.430	0.650	-0.540	0.480
2020/01/31 06:30:57.5	91.430	0.610	-0.440	0.480
2020/01/31 06:30:57.6	91.420	0.560	-0.330	0.490
2020/01/31 06:30:57.7	91.420	0.520	-0.230	0.510
2020/01/31 06:30:57.8	91.410	0.470	-0.120	0.520
2020/01/31 06:30:57.9	91.400	0.420	-0.010	0.540
2020/01/31 06:30:58.0	91.400	0.370	0.100	0.550
2020/01/31 06:30:58.1	91.390	0.310	0.200	0.570
2020/01/31 06:30:58.2	91.380	0.260	0.310	0.600
2020/01/31 06:30:58.3	91.380	0.210	0.410	0.620
2020/01/31 06:30:58.4	91.370	0.150	0.510	0.640
2020/01/31 06:30:58.5	91.360	0.100	0.610	0.670
2020/01/31 06:30:58.6	91.350	0.040	0.690	0.690
2020/01/31 06:30:58.7	91.350	-0.010	0.780	0.720
2020/01/31 06:30:58.8	91.340	-0.060	0.860	0.750
2020/01/31 06:30:58.9	91.330	-0.110	0.930	0.770
2020/01/31 06:30:59.0	91.320	-0.160	0.990	0.800
2020/01/31 06:30:59.1	91.310	-0.210	1.050	0.830
2020/01/31 06:30:59.2	91.310	-0.260	1.100	0.860
2020/01/31 06:30:59.3	91.300	-0.300	1.140	0.890
2020/01/31 06:30:59.4	91.290	-0.340	1.170	0.910
2020/01/31 06:30:59.5	91.280	-0.380	1.190	0.940
2020/01/31 06:30:59.6	91.270	-0.420	1.210	0.970
2020/01/31 06:30:59.7	91.250	-0.450	1.210	1.000
2020/01/31 06:30:59.8	91.240	-0.480	1.210	1.020
2020/01/31 06:30:59.9	91.230	-0.510	1.200	1.040
2020/01/31 06:31:00.0	91.220	-0.530	1.170	1.070
2020/01/31 06:31:00.1	91.210	-0.550	1.150	1.090
2020/01/31 06:31:00.2	91.190	-0.570	1.110	1.110
2020/01/31 06:31:00.3	91.180	-0.580	1.060	1.130
2020/01/31 06:31:00.4	91.170	-0.600	1.010	1.140
2020/01/31 06:31:00.5	91.160	-0.600	0.950	1.160
2020/01/31 06:31:00.6	91.150	-0.610	0.880	1.170
2020/01/31 06:31:00.7	91.140	-0.610	0.810	1.180
2020/01/31 06:31:00.8	91.130	-0.610	0.730	1.190
2020/01/31 06:31:00.9	91.130	-0.600	0.640	1.200
2020/01/31 06:31:01.0	91.120	-0.600	0.550	1.200
2020/01/31 06:31:01.1	91.120	-0.590	0.460	1.210
2020/01/31 06:31:01.2	91.130	-0.570	0.360	1.210
2020/01/31 06:31:01.3	91.130	-0.560	0.260	1.210
2020/01/31 06:31:01.4	91.130	-0.540	0.150	1.200
2020/01/31 06:31:01.5	91.140	-0.520	0.040	1.200
2020/01/31 06:31:01.6	91.140	-0.500	-0.060	1.190
2020/01/31 06:31:01.7	91.150	-0.470	-0.170	1.180
2020/01/31 06:31:01.8	91.170	-0.450	-0.280	1.160
2020/01/31 06:31:01.9	91.180	-0.420	-0.390	1.150
2020/01/31 06:31:02.0	91.200	-0.390	-0.490	1.130
2020/01/31 06:31:02.1	91.220	-0.360	-0.600	1.110
2020/01/31 06:31:02.2	91.230	-0.330	-0.700	1.090
2020/01/31 06:31:02.3	91.250	-0.290	-0.800	1.070
2020/01/31 06:31:02.4	91.270	-0.260	-0.900	1.050
2020/01/31 06:31:02.5	91.300	-0.220	-0.990	1.020
2020/01/31 06:31:02.6	91.330	-0.180	-1.070	1.000
2020/01/31 06:31:02.7	91.350	-0.150	-1.150	0.970
2020/01/31 06:31:02.8	91.380	-0.110	-1.220	0.950
2020/01/31 06:31:02.9	91.410	-0.070	-1.290	0.920
2020/01/31 06:31:03.0	91.440	-0.030	-1.350	0.900
2020/01/31 06:31:03.1	91.470	0.000	-1.400	0.880
2020/01/31 06:31:03.2	91.480	0.040	-1.440	0.850
2020/01/31 06:31:03.3	91.510	0.080	-1.470	0.830
2020/01/31 06:31:03.4	91.540	0.110	-1.490	0.820
2020/01/31 06:31:03.5	91.560	0.140	-1.510	0.800
2020/01/31 06:31:03.6	91.580	0.180	-1.510	0.790
2020/01/31 06:31:03.7	91.610	0.210	-1.500	0.780
2020/01/31 06:31:03.8	91.620	0.230	-1.480	0.780
2020/01/31 06:31:03.9	91.640	0.260	-1.460	0.770
2020/01/31 06:31:04.0	91.650	0.280	-1.420	0.780
2020/01/31 06:31:04.1	91.670	0.300	-1.380	0.780
2020/01/31 06:31:04.2	91.670	0.320	-1.320	0.790
2020/01/31 06:31:04.3	91.680	0.330	-1.260	0.800
2020/01/31 06:31:04.4	91.680	0.350	-1.180	0.820
2020/01/31 06:31:04.5	91.680	0.350	-1.110	0.830
2020/01/31 06:31:04.6	91.680	0.360	-1.020	0.850
2020/01/31 06:31:04.7	91.680	0.360	-0.930	0.870
2020/01/31 06:31:04.8	91.670	0.360	-0.840	0.890
2020/01/31 06:31:04.9	91.670	0.360	-0.740	0.910
2020/01/31 06:31:05.0	91.660	0.350	-0.640	0.930
2020/01/31 06:31:05.1	91.650	0.340	-0.530	0.960
2020/01/31 06:31:05.2	91.630	0.330	-0.420	0.980
2020/01/31 06:31:05.3	91.620	0.320	-0.320	1.000
2020/01/31 06:31:05.4	91.600	0.300	-0.210	1.030
2020/01/31 06:31:05.5	91.590	0.280	-0.110	1.050
2020/01/31 06:31:05.6	91.570	0.260	-0.010	1.070
2020/01/31 06:31:05.7	91.550	0.240	0.090	1.090
2020/01/31 06:31:05.8	91.530	0.220	0.180	1.110
2020/01/31 06:31:05.9	91.510	0.200	0.270	1.130
2020/01/31 06:31:06.0	91.490	0.170	0.350	1.140
2020/01/31 06:31:06.1	91.470	0.150	0.430	1.150
2020/01/31 06:31:06.2	91.450	0.130	0.500	1.160
2020/01/31 06:31:06.3	91.430	0.100	0.560	1.160
2020/01/31 06:31:06.4	91.410	0.080	0.610	1.160
2020/01/31 06:31:06.5	91.400	0.050	0.660	1.160
2020/01/31 06:31:06.6	91.380	0.030	0.690	1.150
2020/01/31 06:31:06.7	91.360	0.010	0.720	1.140
2020/01/31 06:31:06.8	91.350	-0.010	0.740	1.120
2020/01/31 06:31:06.9	91.340	-0.020	0.750	1.100
2020/01/31 06:31:07.0	91.330	-0.040	0.750	1.080
2020/01/31 06:31:07.1	91.320	-0.050	0.750	1.050
2020/01/31 06:31:07.2	91.310	-0.060	0.730	1.020
2020/01/31 06:31:07.3	91.300	-0.070	0.710	0.990
2020/01/31 06:31:07.4	91.300	-0.070	0.680	0.950
2020/01/31 06:31:07.5	91.300	-0.080	0.640	0.910
2020/01/31 06:31:07.6	91.300	-0.080	0.600	0.870
2020/01/31 06:31:07.7	91.300	-0.080	0.550	0.820
2020/01/31 06:31:07.8	91.310	-0.070	0.490	0.770
2020/01/31 06:31:07.9	91.320	-0.060	0.430	0.720
2020/01/31 06:31:08.0	91.320	-0.060	0.370	0.670
2020/01/31 06:31:08.1	91.330	-0.050	0.300	0.620
2020/01/31 06:31:08.2	91.360	-0.030	0.230	0.560
2020/01/31 06:31:08.3	91.370	-0.020	0.160	0.510
2020/01/31 06:31:08.4	91.380	-0.000	0.090	0.460
2020/01/31 06:31:08.5	91.400	0.010	0.020	0.400
2020/01/31 06:31:08.6	91.420	0.030	-0.050	0.350
2020/01/31 06:31:08.7	91.430	0.050	-0.120	0.300
2020/01/31 06:31:08.8	91.450	0.060	-0.190	0.250
2020/01/31 06:31:08.9	91.470	0.080	-0.260	0.210
2020/01/31 06:31:09.0	91.480	0.100	-0.320	0.160
2020/01/31 06:31:09.1	91.500	0.120	-0.380	0.120
2020/01/31 06:31:09.2	91.520	0.130	-0.440	0.080
2020/01/31 06:31:09.3	91.530	0.150	-0.490	0.050
2020/01/31 06:31:09.4	91.550	0.160	-0.540	0.010
2020/01/31 06:31:09.5	91.560	0.180	-0.580	-0.020
2020/01/31 06:31:09.6	91.570	0.190	-0.610	-0.040
2020/01/31 06:31:09.7	91.580	0.200	-0.640	-0.070
2020/01/31 06:31:09.8	91.590	0.210	-0.670	-0.090
2020/01/31 06:31:09.9	91.590	0.210	-0.680	-0.110
2020/01/31 06:31:10.0	91.600	0.220	-0.700	-0.130
2020/01/31 06:31:10.1	91.610	0.220	-0.700	-0.140
2020/01/31 06:31:10.2	91.610	0.220	-0.700	-0.150
2020/01/31 06:31:10.3	91.610	0.220	-0.690	-0.160
2020/01/31 06:31:10.4	91.620	0.220	-0.680	-0.170
2020/01/31 06:31:10.5	91.620	0.210	-0.660	-0.180
2020/01/31 06:31:10.6	91.620	0.200	-0.640	-0.180
2020/01/31 06:31:10.7	91.620	0.190	-0.620	-0.180
2020/01/31 06:31:10.8	91.630	0.180	-0.590	-0.170
2020/01/31 06:31:10.9	91.630	0.160	-0.550	-0.170
2020/01/31 06:31:11.0	91.630	0.150	-0.510	-0.160
2020/01/31 06:31:11.1	91.640	0.130	-0.470	-0.150
2020/01/31 06:31:11.2	91.640	0.110	-0.430	-0.130
2020/01/31 06:31:11.3	91.640	0.090	-0.390	-0.120
2020/01/31 06:31:11.4	91.650	0.070	-0.340	-0.100
2020/01/31 06:31:11.5	91.660	0.050	-0.290	-0.080
2020/01/31 06:31:11.6	91.670	0.030	-0.250	-0.060
2020/01/31 06:31:11.7	91.680	0.010	-0.200	-0.040
2020/01/31 06:31:11.8	91.690	-0.010	-0.150	-0.010
2020/01/31 06:31:11.9	91.700	-0.040	-0.110	0.010
2020/01/31 06:31:12.0	91.710	-0.060	-0.060	0.040
2020/01/31 06:31:12.1	91.730	-0.080	-0.020	0.070
2020/01/31 06:31:12.2	91.750	-0.100	0.020	0.110
2020/01/31 06:31:12.3	91.760	-0.110	0.050	0.140
2020/01/31 06:31:12.4	91.780	-0.130	0.090	0.170
2020/01/31 06:31:12.5	91.790	-0.150	0.120	0.210
2020/01/31 06:31:12.6	91.810	-0.160	0.140	0.250
2020/01/31 06:31:12.7	91.830	-0.170	0.170	0.290
2020/01/31 06:31:12.8	91.840	-0.190	0.190	0.330
2020/01/31 06:31:12.9	91.860	-0.200	0.200	0.380
2020/01/31 06:31:13.0	91.870	-0.200	0.210	0.420
2020/01/31 06:31:13.1	91.890	-0.210	0.220	0.470
2020/01/31 06:31:13.2	91.900	-0.210	0.220	0.520
2020/01/31 06:31:13.3	91.910	-0.220	0.220	0.570
2020/01/31 06:31:13.4	91.920	-0.220	0.220	0.620
2020/01/31 06:31:13.5	91.930	-0.220	0.210	0.670
2020/01/31 06:31:13.6	91.940	-0.210	0.200	0.720
2020/01/31 06:31:13.7	91.950	-0.210	0.190	0.770
2020/01/31 06:31:13.8	91.950	-0.210	0.170	0.820
2020/01/31 06:31:13.9	91.960	-0.200	0.150	0.870
2020/01/31 06:31:14.0	91.960	-0.190	0.130	0.920
2020/01/31 06:31:14.1	91.970	-0.190	0.110	0.970
2020/01/31 06:31:14.2	91.960	-0.180	0.090	1.020
2020/01/31 06:31:14.3	91.960	-0.170	0.070	1.070
2020/01/31 06:31:14.4	91.970	-0.160	0.050	1.120
2020/01/31 06:31:14.5	91.970	-0.150	0.020	1.160
2020/01/31 06:31:14.6	91.970	-0.140	0.000	1.210
2020/01/31 06:31:14.7	91.970	-0.130	-0.020	1.260
2020/01/31 06:31:14.8	91.970	-0.120	-0.040	1.300
2020/01/31 06:31:14.9	91.970	-0.110	-0.060	1.340
2020/01/31 06:31:15.0	91.970	-0.100	-0.070	1.390
2020/01/31 06:31:15.1	91.960	-0.090	-0.090	1.430
2020/01/31 06:31:15.2	91.970	-0.090	-0.100	1.470
2020/01/31 06:31:15.3	91.970	-0.080	-0.110	1.510
2020/01/31 06:31:15.4	91.970	-0.070	-0.120	1.550
2020/01/31 06:31:15.5	91.970	-0.060	-0.130	1.580
2020/01/31 06:31:15.6	91.970	-0.060	-0.140	1.620
2020/01/31 06:31:15.7	91.960	-0.050	-0.140	1.650
2020/01/31 06:31:15.8	91.960	-0.040	-0.140	1.680
2020/01/31 06:31:15.9	91.960	-0.040	-0.140	1.710
2020/01/31 06:31:16.0	91.960	-0.040	-0.140	1.740
2020/01/31 06:31:16.1	91.960	-0.030	-0.140	1.770
2020/01/31 06:31:16.2	91.940	-0.030	-0.130	1.790
2020/01/31 06:31:16.3	91.940	-0.030	-0.130	1.810
2020/01/31 06:31:16.4	91.940	-0.020	-0.120	1.840
2020/01/31 06:31:16.5	91.940	-0.020	-0.110	1.860
2020/01/31 06:31:16.6	91.940	-0.020	-0.110	1.870
2020/01/31 06:31:16.7	91.930	-0.020	-0.100	1.890
2020/01/31 06:31:16.8	91.930	-0.020	-0.100	1.900
2020/01/31 06:31:16.9	91.930	-0.020	-0.090	1.910
2020/01/31 06:31:17.0	91.930	-0.020	-0.090	1.920
2020/01/31 06:31:17.1	91.930	-0.010	-0.090	1.920
2020/01/31 06:31:17.2	91.930	-0.010	-0.080	1.920
2020/01/31 06:31:17.3	91.930	-0.010	-0.080	1.920
2020/01/31 06:31:17.4	91.930	-0.010	-0.080	1.920
2020/01/31 06:31:17.5	91.930	-0.000	-0.090	1.910
2020/01/31 06:31:17.6	91.930	-0.000	-0.090	1.890
2020/01/31 06:31:17.7	91.940	0.000	-0.100	1.870
2020/01/31 06:31:17.8	91.940	0.010	-0.110	1.850
2020/01/31 06:31:17.9	91.950	0.020	-0.130	1.820
2020/01/31 06:31:18.0	91.960	0.020	-0.140	1.790
2020/01/31 06:31:18.1	91.970	0.030	-0.160	1.760
2020/01/31 06:31:18.2	91.980	0.040	-0.180	1.720
2020/01/31 06:31:18.3	91.990	0.050	-0.210	1.670
2020/01/31 06:31:18.4	92.000	0.060	-0.230	1.630
2020/01/31 06:31:18.5	92.020	0.070	-0.260	1.570
2020/01/31 06:31:18.6	92.040	0.090	-0.300	1.520
2020/01/31 06:31:18.7	92.060	0.100	-0.330	1.460
2020/01/31 06:31:18.8	92.080	0.120	-0.360	1.400
2020/01/31 06:31:18.9	92.100	0.130	-0.400	1.330
2020/01/31 06:31:19.0	92.120	0.150	-0.440	1.260
2020/01/31 06:31:19.1	92.140	0.170	-0.480	1.200
2020/01/31 06:31:19.2	92.160	0.180	-0.520	1.120
2020/01/31 06:31:19.3	92.190	0.200	-0.560	1.050
2020/01/31 06:31:19.4	92.210	0.220	-0.600	0.980
2020/01/31 06:31:19.5	92.230	0.240	-0.640	0.910
2020/01/31 06:31:19.6	92.260	0.260	-0.680	0.840
2020/01/31 06:31:19.7	92.280	0.280	-0.720	0.770
2020/01/31 06:31:19.8	92.300	0.300	-0.750	0.700
2020/01/31 06:31:19.9	92.320	0.310	-0.780	0.640
2020/01/31 06:31:20.0	92.340	0.330	-0.810	0.570
2020/01/31 06:31:20.1	92.360	0.350	-0.830	0.510
2020/01/31 06:31:20.2	92.390	0.360	-0.850	0.460
2020/01/31 06:31:20.3	92.410	0.380	-0.860	0.400
2020/01/31 06:31:20.4	92.420	0.390	-0.870	0.350
2020/01/31 06:31:20.5	92.430	0.400	-0.870	0.310
2020/01/31 06:31:20.6	92.450	0.410	-0.870	0.260
2020/01/31 06:31:20.7	92.460	0.410	-0.860	0.230
2020/01/31 06:31:20.8	92.460	0.420	-0.840	0.190
2020/01/31 06:31:20.9	92.470	0.420	-0.820	0.160
2020/01/31 06:31:21.0	92.470	0.410	-0.790	0.130
2020/01/31 06:31:21.1	92.470	0.410	-0.750	0.110
2020/01/31 06:31:21.2	92.470	0.400	-0.700	0.090
2020/01/31 06:31:21.3	92.470	0.390	-0.650	0.080
2020/01/31 06:31:21.4	92.460	0.380	-0.600	0.060
2020/01/31 06:31:21.5	92.450	0.360	-0.540	0.050
2020/01/31 06:31:21.6	92.440	0.340	-0.480	0.040
2020/01/31 06:31:21.7	92.430	0.320	-0.410	0.040
2020/01/31 06:31:21.8	92.420	0.300	-0.350	0.040
2020/01/31 06:31:21.9	92.410	0.270	-0.280	0.040
2020/01/31 06:31:22.0	92.390	0.240	-0.200	0.040
2020/01/31 06:31:22.1	92.370	0.210	-0.130	0.040
2020/01/31 06:31:22.2	92.350	0.180	-0.060	0.040
2020/01/31 06:31:22.3	92.330	0.150	0.020	0.050
2020/01/31 06:31:22.4	92.310	0.110	0.090	0.060
2020/01/31 06:31:22.5	92.290	0.080	0.160	0.070
2020/01/31 06:31:22.6	92.280	0.040	0.220	0.090
2020/01/31 06:31:22.7	92.260	0.000	0.290	0.100
2020/01/31 06:31:22.8	92.240	-0.030	0.340	0.110
2020/01/31 06:31:22.9	92.230	-0.070	0.400	0.130
2020/01/31 06:31:23.0	92.220	-0.100	0.440	0.150
2020/01/31 06:31:23.1	92.210	-0.140	0.490	0.160
2020/01/31 06:31:23.2	92.190	-0.170	0.530	0.190
2020/01/31 06:31:23.3	92.180	-0.200	0.550	0.200
2020/01/31 06:31:23.4	92.170	-0.220	0.580	0.220
2020/01/31 06:31:23.5	92.170	-0.250	0.590	0.240
2020/01/31 06:31:23.6	92.160	-0.270	0.600	0.250
2020/01/31 06:31:23.7	92.160	-0.290	0.590	0.270
2020/01/31 06:31:23.8	92.160	-0.310	0.590	0.280
2020/01/31 06:31:23.9	92.170	-0.320	0.570	0.300
2020/01/31 06:31:24.0	92.170	-0.330	0.550	0.310
2020/01/31 06:31:24.1	92.180	-0.330	0.520	0.310
2020/01/31 06:31:24.2	92.190	-0.340	0.490	0.320
2020/01/31 06:31:24.3	92.200	-0.330	0.450	0.320
2020/01/31 06:31:24.4	92.220	-0.330	0.410	0.320
2020/01/31 06:31:24.5	92.240	-0.320	0.370	0.320
2020/01/31 06:31:24.6	92.260	-0.320	0.320	0.320
2020/01/31 06:31:24.7	92.290	-0.300	0.270	0.310
2020/01/31 06:31:24.8	92.320	-0.290	0.220	0.300
2020/01/31 06:31:24.9	92.350	-0.270	0.170	0.290
2020/01/31 06:31:25.0	92.380	-0.260	0.120	0.270
2020/01/31 06:31:25.1	92.420	-0.240	0.080	0.260
2020/01/31 06:31:25.2	92.450	-0.220	0.030	0.250
2020/01/31 06:31:25.3	92.480	-0.200	-0.010	0.240
2020/01/31 06:31:25.4	92.520	-0.180	-0.050	0.220
2020/01/31 06:31:25.5	92.560	-0.160	-0.090	0.210
2020/01/31 06:31:25.6	92.600	-0.140	-0.120	0.200
2020/01/31 06:31:25.7	92.630	-0.120	-0.140	0.190
2020/01/31 06:31:25.8	92.670	-0.100	-0.160	0.190
2020/01/31 06:31:25.9	92.700	-0.090	-0.180	0.190
2020/01/31 06:31:26.0	92.730	-0.070	-0.190	0.190
2020/01/31 06:31:26.1	92.760	-0.050	-0.200	0.190
2020/01/31 06:31:26.2	92.800	-0.040	-0.210	0.200
2020/01/31 06:31:26.3	92.820	-0.030	-0.210	0.210
2020/01/31 06:31:26.4	92.840	-0.020	-0.210	0.230
2020/01/31 06:31:26.5	92.850	-0.010	-0.200	0.250
2020/01/31 06:31:26.6	92.870	0.000	-0.200	0.270
2020/01/31 06:31:26.7	92.870	0.010	-0.190	0.300
2020/01/31 06:31:26.8	92.880	0.010	-0.180	0.330
2020/01/31 06:31:26.9	92.880	0.020	-0.170	0.370
2020/01/31 06:31:27.0	92.880	0.020	-0.160	0.400
2020/01/31 06:31:27.1	92.880	0.020	-0.150	0.440
2020/01/31 06:31:27.2	92.870	0.020	-0.130	0.490
2020/01/31 06:31:27.3	92.870	0.020	-0.120	0.540
2020/01/31 06:31:27.4	92.860	0.010	-0.120	0.580
2020/01/31 06:31:27.5	92.850	0.010	-0.110	0.630
2020/01/31 06:31:27.6	92.840	0.000	-0.110	0.670
2020/01/31 06:31:27.7	92.830	-0.000	-0.100	0.720
2020/01/31 06:31:27.8	92.810	-0.010	-0.110	0.770
2020/01/31 06:31:27.9	92.800	-0.010	-0.110	0.810
2020/01/31 06:31:28.0	92.790	-0.020	-0.120	0.850
2020/01/31 06:31:28.1	92.780	-0.020	-0.130	0.900
2020/01/31 06:31:28.2	92.780	-0.030	-0.140	0.940
2020/01/31 06:31:28.3	92.770	-0.030	-0.150	0.970
2020/01/31 06:31:28.4	92.760	-0.040	-0.170	1.010
2020/01/31 06:31:28.5	92.750	-0.040	-0.190	1.040
2020/01/31 06:31:28.6	92.750	-0.040	-0.210	1.070
2020/01/31 06:31:28.7	92.740	-0.040	-0.240	1.090
2020/01/31 06:31:28.8	92.740	-0.040	-0.260	1.120
2020/01/31 06:31:28.9	92.730	-0.040	-0.290	1.140
2020/01/31 06:31:29.0	92.730	-0.030	-0.320	1.160
2020/01/31 06:31:29.1	92.730	-0.030	-0.350	1.180
2020/01/31 06:31:29.2	92.750	-0.020	-0.390	1.190
2020/01/31 06:31:29.3	92.740	-0.010	-0.420	1.210
2020/01/31 06:31:29.4	92.740	-0.010	-0.450	1.220
2020/01/31 06:31:29.5	92.740	0.010	-0.480	1.230
2020/01/31 06:31:29.6	92.740	0.020	-0.500	1.250
2020/01/31 06:31:29.7	92.740	0.030	-0.530	1.260
2020/01/31 06:31:29.8	92.740	0.040	-0.550	1.270
2020/01/31 06:31:29.9	92.740	0.060	-0.570	1.280
2020/01/31 06:31:30.0	92.740	0.070	-0.590	1.290
2020/01/31 06:31:30.1	92.740	0.090	-0.600	1.300
2020/01/31 06:31:30.2	92.740	0.100	-0.600	1.320
2020/01/31 06:31:30.3	92.740	0.110	-0.600	1.330
2020/01/31 06:31:30.4	92.740	0.130	-0.600	1.340
2020/01/31 06:31:30.5	92.740	0.140	-0.600	1.350
2020/01/31 06:31:30.6	92.740	0.150	-0.580	1.350
2020/01/31 06:31:30.7	92.750	0.160	-0.570	1.360
2020/01/31 06:31:30.8	92.750	0.170	-0.550	1.370
2020/01/31 06:31:30.9	92.750	0.180	-0.520	1.370
2020/01/31 06:31:31.0	92.760	0.190	-0.500	1.370
2020/01/31 06:31:31.1	92.770	0.190	-0.460	1.370
2020/01/31 06:31:31.2	92.770	0.200	-0.430	1.380
2020/01/31 06:31:31.3	92.770	0.200	-0.390	1.370
2020/01/31 06:31:31.4	92.780	0.200	-0.350	1.370
2020/01/31 06:31:31.5	92.790	0.190	-0.310	1.370
2020/01/31 06:31:31.6	92.800	0.190	-0.270	1.360
2020/01/31 06:31:31.7	92.810	0.180	-0.230	1.350
2020/01/31 06:31:31.8	92.820	0.170	-0.190	1.340
2020/01/31 06:31:31.9	92.830	0.160	-0.140	1.330
2020/01/31 06:31:32.0	92.840	0.150	-0.100	1.320
2020/01/31 06:31:32.1	92.840	0.140	-0.070	1.300
2020/01/31 06:31:32.2	92.850	0.130	-0.030	1.290
2020/01/31 06:31:32.3	92.860	0.110	0.010	1.270
2020/01/31 06:31:32.4	92.860	0.100	0.040	1.250
2020/01/31 06:31:32.5	92.870	0.080	0.060	1.230
2020/01/31 06:31:32.6	92.880	0.060	0.090	1.210
2020/01/31 06:31:32.7	92.880	0.040	0.110	1.190
2020/01/31 06:31:32.8	92.890	0.030	0.120	1.160
2020/01/31 06:31:32.9	92.900	0.010	0.130	1.140
2020/01/31 06:31:33.0	92.900	-0.000	0.140	1.110
2020/01/31 06:31:33.1	92.910	-0.020	0.140	1.080
2020/01/31 06:31:33.2	92.930	-0.030	0.130	1.050
2020/01/31 06:31:33.3	92.930	-0.050	0.130	1.020
2020/01/31 06:31:33.4	92.940	-0.060	0.110	0.990
2020/01/31 06:31:33.5	92.950	-0.070	0.100	0.960
2020/01/31 06:31:33.6	92.950	-0.080	0.080	0.930
2020/01/31 06:31:33.7	92.960	-0.090	0.050	0.900
2020/01/31 06:31:33.8	92.970	-0.090	0.030	0.860
2020/01/31 06:31:33.9	92.970	-0.090	-0.000	0.830
2020/01/31 06:31:34.0	92.980	-0.090	-0.040	0.800
2020/01/31 06:31:34.1	92.990	-0.090	-0.070	0.770
2020/01/31 06:31:34.2	93.000	-0.090	-0.110	0.740
2020/01/31 06:31:34.3	93.000	-0.090	-0.150	0.720
2020/01/31 06:31:34.4	93.010	-0.080	-0.190	0.690
2020/01/31 06:31:34.5	93.020	-0.070	-0.220	0.660
2020/01/31 06:31:34.6	93.020	-0.060	-0.260	0.640
2020/01/31 06:31:34.7	93.030	-0.050	-0.300	0.620
2020/01/31 06:31:34.8	93.040	-0.030	-0.340	0.590
2020/01/31 06:31:34.9	93.040	-0.020	-0.370	0.580
2020/01/31 06:31:35.0	93.040	-0.000	-0.400	0.560
2020/01/31 06:31:35.1	93.050	0.020	-0.430	0.540
2020/01/31 06:31:35.2	93.060	0.030	-0.460	0.530
2020/01/31 06:31:35.3	93.060	0.050	-0.480	0.520
2020/01/31 06:31:35.4	93.060	0.070	-0.500	0.510
2020/01/31 06:31:35.5	93.060	0.080	-0.510	0.500
2020/01/31 06:31:35.6	93.050	0.100	-0.520	0.500
2020/01/31 06:31:35.7	93.050	0.110	-0.530	0.490
2020/01/31 06:31:35.8	93.050	0.130	-0.530	0.490
2020/01/31 06:31:35.9	93.040	0.140	-0.520	0.480
2020/01/31 06:31:36.0	93.030	0.150	-0.510	0.480
2020/01/31 06:31:36.1	93.030	0.160	-0.500	0.480
2020/01/31 06:31:36.2	93.020	0.160	-0.480	0.470
2020/01/31 06:31:36.3	93.020	0.160	-0.450	0.470
2020/01/31 06:31:36.4	93.010	0.160	-0.420	0.470
2020/01/31 06:31:36.5	93.000	0.160	-0.390	0.460
2020/01/31 06:31:36.6	92.990	0.150	-0.350	0.460
2020/01/31 06:31:36.7	92.980	0.140	-0.300	0.460
2020/01/31 06:31:36.8	92.970	0.130	-0.260	0.450
2020/01/31 06:31:36.9	92.960	0.120	-0.200	0.450
2020/01/31 06:31:37.0	92.950	0.100	-0.150	0.440
2020/01/31 06:31:37.1	92.940	0.080	-0.090	0.440
2020/01/31 06:31:37.2	92.950	0.060	-0.030	0.440
2020/01/31 06:31:37.3	92.940	0.030	0.030	0.430
2020/01/31 06:31:37.4	92.940	0.000	0.090	0.420
2020/01/31 06:31:37.5	92.930	-0.030	0.150	0.420
2020/01/31 06:31:37.6	92.930	-0.060	0.210	0.410
2020/01/31 06:31:37.7	92.940	-0.090	0.270	0.410
2020/01/31 06:31:37.8	92.940	-0.120	0.320	0.400
2020/01/31 06:31:37.9	92.940	-0.160	0.380	0.400
2020/01/31 06:31:38.0	92.950	-0.190	0.430	0.390
2020/01/31 06:31:38.1	92.960	-0.230	0.480	0.380
2020/01/31 06:31:38.2	92.980	-0.260	0.530	0.380
2020/01/31 06:31:38.3	92.990	-0.290	0.570	0.370
2020/01/31 06:31:38.4	93.010	-0.330	0.600	0.360
2020/01/31 06:31:38.5	93.020	-0.360	0.630	0.350
2020/01/31 06:31:38.6	93.040	-0.380	0.660	0.350
2020/01/31 06:31:38.7	93.060	-0.410	0.680	0.340
2020/01/31 06:31:38.8	93.090	-0.430	0.690	0.330
2020/01/31 06:31:38.9	93.110	-0.450	0.690	0.320
2020/01/31 06:31:39.0	93.130	-0.470	0.690	0.310
2020/01/31 06:31:39.1	93.160	-0.480	0.680	0.300
2020/01/31 06:31:39.2	93.180	-0.490	0.670	0.290
2020/01/31 06:31:39.3	93.210	-0.500	0.650	0.290
2020/01/31 06:31:39.4	93.240	-0.500	0.610	0.280
2020/01/31 06:31:39.5	93.270	-0.500	0.570	0.270
2020/01/31 06:31:39.6	93.290	-0.490	0.530	0.260
2020/01/31 06:31:39.7	93.320	-0.480	0.470	0.250
2020/01/31 06:31:39.8	93.350	-0.460	0.410	0.250
2020/01/31 06:31:39.9	93.370	-0.440	0.340	0.240
2020/01/31 06:31:40.0	93.400	-0.420	0.270	0.240
2020/01/31 06:31:40.1	93.420	-0.390	0.190	0.240
2020/01/31 06:31:40.2	93.440	-0.350	0.100	0.250
2020/01/31 06:31:40.3	93.460	-0.310	0.010	0.250
2020/01/31 06:31:40.4	93.480	-0.270	-0.090	0.260
2020/01/31 06:31:40.5	93.490	-0.230	-0.190	0.280
2020/01/31 06:31:40.6	93.500	-0.180	-0.290	0.300
2020/01/31 06:31:40.7	93.510	-0.130	-0.390	0.320
2020/01/31 06:31:40.8	93.510	-0.080	-0.500	0.340
2020/01/31 06:31:40.9	93.510	-0.020	-0.600	0.370
2020/01/31 06:31:41.0	93.510	0.030	-0.700	0.400
2020/01/31 06:31:41.1	93.500	0.090	-0.800	0.430
2020/01/31 06:31:41.2	93.500	0.140	-0.900	0.470
2020/01/31 06:31:41.3	93.490	0.200	-0.990	0.510
2020/01/31 06:31:41.4	93.480	0.250	-1.080	0.540
2020/01/31 06:31:41.5	93.470	0.300	-1.160	0.580
2020/01/31 06:31:41.6	93.450	0.360	-1.230	0.620
2020/01/31 06:31:41.7	93.430	0.400	-1.300	0.660
2020/01/31 06:31:41.8	93.420	0.450	-1.360	0.710
2020/01/31 06:31:41.9	93.400	0.490	-1.410	0.750
2020/01/31 06:31:42.0	93.380	0.530	-1.440	0.790
2020/01/31 06:31:42.1	93.360	0.570	-1.470	0.830
2020/01/31 06:31:42.2	93.360	0.600	-1.490	0.870
2020/01/31 06:31:42.3	93.340	0.630	-1.490	0.910
2020/01/31 06:31:42.4	93.320	0.650	-1.480	0.960
2020/01/31 06:31:42.5	93.300	0.670	-1.470	1.000
2020/01/31 06:31:42.6	93.290	0.680	-1.440	1.040
2020/01/31 06:31:42.7	93.270	0.690	-1.400	1.080
2020/01/31 06:31:42.8	93.260	0.690	-1.340	1.130
2020/01/31 06:31:42.9	93.240	0.690	-1.280	1.170
2020/01/31 06:31:43.0	93.230	0.690	-1.210	1.210
2020/01/31 06:31:43.1	93.220	0.670	-1.130	1.250
2020/01/31 06:31:43.2	93.210	0.660	-1.030	1.290
2020/01/31 06:31:43.3	93.200	0.630	-0.930	1.330
2020/01/31 06:31:43.4	93.190	0.610	-0.830	1.370
2020/01/31 06:31:43.5	93.190	0.580	-0.710	1.410
2020/01/31 06:31:43.6	93.180	0.550	-0.590	1.450
2020/01/31 06:31:43.7	93.170	0.510	-0.470	1.490
2020/01/31 06:31:43.8	93.170	0.470	-0.340	1.530
2020/01/31 06:31:43.9	93.160	0.420	-0.210	1.560
2020/01/31 06:31:44.0	93.160	0.380	-0.080	1.600
2020/01/31 06:31:44.1	93.160	0.330	0.050	1.630
2020/01/31 06:31:44.2	93.160	0.280	0.180	1.660
2020/01/31 06:31:44.3	93.160	0.220	0.310	1.690
2020/01/31 06:31:44.4	93.160	0.170	0.430	1.720
2020/01/31 06:31:44.5	93.160	0.120	0.550	1.740
2020/01/31 06:31:44.6	93.160	0.060	0.670	1.760
2020/01/31 06:31:44.7	93.160	0.010	0.780	1.770
2020/01/31 06:31:44.8	93.170	-0.040	0.880	1.780
2020/01/31 06:31:44.9	93.170	-0.100	0.970	1.790
2020/01/31 06:31:45.0	93.180	-0.150	1.060	1.790
2020/01/31 06:31:45.1	93.180	-0.200	1.130	1.780
2020/01/31 06:31:45.2	93.200	-0.240	1.190	1.780
2020/01/31 06:31:45.3	93.210	-0.290	1.250	1.760
2020/01/31 06:31:45.4	93.220	-0.330	1.290	1.740
2020/01/31 06:31:45.5	93.230	-0.370	1.310	1.710
2020/01/31 06:31:45.6	93.240	-0.400	1.330	1.680
2020/01/31 06:31:45.7	93.250	-0.430	1.330	1.650
2020/01/31 06:31:45.8	93.270	-0.460	1.320	1.610
2020/01/31 06:31:45.9	93.280	-0.480	1.300	1.560
2020/01/31 06:31:46.0	93.290	-0.500	1.260	1.510
2020/01/31 06:31:46.1	93.310	-0.520	1.210	1.460
2020/01/31 06:31:46.2	93.330	-0.530	1.150	1.400
2020/01/31 06:31:46.3	93.340	-0.530	1.080	1.340
2020/01/31 06:31:46.4	93.360	-0.530	1.000	1.270
2020/01/31 06:31:46.5	93.380	-0.530	0.910	1.200
2020/01/31 06:31:46.6	93.400	-0.520	0.800	1.130
2020/01/31 06:31:46.7	93.420	-0.500	0.690	1.050
2020/01/31 06:31:46.8	93.440	-0.490	0.580	0.980
2020/01/31 06:31:46.9	93.460	-0.460	0.450	0.900
2020/01/31 06:31:47.0	93.490	-0.440	0.330	0.820
2020/01/31 06:31:47.1	93.510	-0.410	0.190	0.740
2020/01/31 06:31:47.2	93.530	-0.380	0.060	0.660
2020/01/31 06:31:47.3	93.560	-0.340	-0.080	0.590
2020/01/31 06:31:47.4	93.580	-0.300	-0.220	0.520
2020/01/31 06:31:47.5	93.600	-0.260	-0.360	0.450
2020/01/31 06:31:47.6	93.630	-0.220	-0.490	0.380
2020/01/31 06:31:47.7	93.650	-0.180	-0.630	0.320
2020/01/31 06:31:47.8	93.670	-0.130	-0.760	0.270
2020/01/31 06:31:47.9	93.690	-0.090	-0.880	0.220
2020/01/31 06:31:48.0	93.710	-0.040	-1.000	0.170
2020/01/31 06:31:48.1	93.720	0.000	-1.110	0.130
2020/01/31 06:31:48.2	93.730	0.040	-1.220	0.100
2020/01/31 06:31:48.3	93.740	0.090	-1.310	0.070
2020/01/31 06:31:48.4	93.750	0.130	-1.400	0.050
2020/01/31 06:31:48.5	93.750	0.170	-1.480	0.030
2020/01/31 06:31:48.6	93.760	0.200	-1.540	0.020
2020/01/31 06:31:48.7	93.760	0.240	-1.590	0.010
2020/01/31 06:31:48.8	93.760	0.270	-1.630	0.010
2020/01/31 06:31:48.9	93.760	0.290	-1.660	0.010
2020/01/31 06:31:49.0	93.760	0.320	-1.680	0.020
2020/01/31 06:31:49.1	93.760	0.340	-1.690	0.020
2020/01/31 06:31:49.2	93.760	0.350	-1.670	0.040
2020/01/31 06:31:49.3	93.750	0.360	-1.650	0.050
2020/01/31 06:31:49.4	93.740	0.370	-1.620	0.070
2020/01/31 06:31:49.5	93.740	0.370	-1.580	0.080
2020/01/31 06:31:49.6	93.730	0.370	-1.520	0.100
2020/01/31 06:31:49.7	93.720	0.360	-1.460	0.130
2020/01/31 06:31:49.8	93.710	0.350	-1.380	0.150
2020/01/31 06:31:49.9	93.700	0.340	-1.290	0.180
2020/01/31 06:31:50.0	93.690	0.320	-1.200	0.200
2020/01/31 06:31:50.1	93.670	0.290	-1.100	0.230
2020/01/31 06:31:50.2	93.660	0.270	-0.980	0.260
2020/01/31 06:31:50.3	93.640	0.230	-0.870	0.290
2020/01/31 06:31:50.4	93.620	0.200	-0.750	0.320
2020/01/31 06:31:50.5	93.610	0.160	-0.620	0.350
2020/01/31 06:31:50.6	93.590	0.120	-0.490	0.380
2020/01/31 06:31:50.7	93.570	0.080	-0.360	0.410
2020/01/31 06:31:50.8	93.540	0.040	-0.230	0.440
2020/01/31 06:31:50.9	93.520	-0.010	-0.090	0.470
2020/01/31 06:31:51.0	93.500	-0.060	0.040	0.500
2020/01/31 06:31:51.1	93.470	-0.110	0.170	0.530
2020/01/31 06:31:51.2	93.440	-0.160	0.310	0.560
2020/01/31 06:31:51.3	93.420	-0.200	0.430	0.580
2020/01/31 06:31:51.4	93.390	-0.250	0.550	0.610
2020/01/31 06:31:51.5	93.360	-0.300	0.670	0.640
2020/01/31 06:31:51.6	93.330	-0.350	0.780	0.660
2020/01/31 06:31:51.7	93.300	-0.390	0.890	0.690
2020/01/31 06:31:51.8	93.280	-0.440	0.980	0.710
2020/01/31 06:31:51.9	93.250	-0.480	1.070	0.730
2020/01/31 06:31:52.0	93.220	-0.520	1.160	0.750
2020/01/31 06:31:52.1	93.190	-0.550	1.230	0.760
2020/01/31 06:31:52.2	93.170	-0.590	1.290	0.780
2020/01/31 06:31:52.3	93.150	-0.620	1.340	0.790
2020/01/31 06:31:52.4	93.130	-0.640	1.390	0.800
2020/01/31 06:31:52.5	93.100	-0.670	1.420	0.810
2020/01/31 06:31:52.6	93.090	-0.680	1.440	0.820
2020/01/31 06:31:52.7	93.070	-0.700	1.450	0.820
2020/01/31 06:31:52.8	93.060	-0.710	1.440	0.820
2020/01/31 06:31:52.9	93.040	-0.710	1.430	0.810
2020/01/31 06:31:53.0	93.040	-0.710	1.410	0.810
2020/01/31 06:31:53.1	93.030	-0.710	1.370	0.800
2020/01/31 06:31:53.2	93.030	-0.700	1.320	0.790
2020/01/31 06:31:53.3	93.030	-0.680	1.270	0.770
2020/01/31 06:31:53.4	93.030	-0.670	1.200	0.750
2020/01/31 06:31:53.5	93.040	-0.640	1.120	0.730
2020/01/31 06:31:53.6	93.040	-0.620	1.030	0.710
2020/01/31 06:31:53.7	93.050	-0.580	0.940	0.680
2020/01/31 06:31:53.8	93.060	-0.550	0.830	0.650
2020/01/31 06:31:53.9	93.080	-0.510	0.720	0.620
2020/01/31 06:31:54.0	93.090	-0.470	0.600	0.580
2020/01/31 06:31:54.1	93.110	-0.420	0.470	0.550
2020/01/31 06:31:54.2	93.120	-0.370	0.340	0.510
2020/01/31 06:31:54.3	93.140	-0.320	0.200	0.470
2020/01/31 06:31:54.4	93.170	-0.260	0.060	0.430
2020/01/31 06:31:54.5	93.190	-0.200	-0.080	0.390
2020/01/31 06:31:54.6	93.210	-0.150	-0.230	0.350
2020/01/31 06:31:54.7	93.240	-0.080	-0.370	0.310
2020/01/31 06:31:54.8	93.260	-0.020	-0.520	0.270
2020/01/31 06:31:54.9	93.290	0.040	-0.660	0.220
2020/01/31 06:31:55.0	93.320	0.100	-0.800	0.180
2020/01/31 06:31:55.1	93.350	0.170	-0.940	0.140
2020/01/31 06:31:55.2	93.370	0.230	-1.070	0.100
2020/01/31 06:31:55.3	93.400	0.290	-1.200	0.060
2020/01/31 06:31:55.4	93.430	0.350	-1.320	0.030
2020/01/31 06:31:55.5	93.450	0.410	-1.430	-0.010
2020/01/31 06:31:55.6	93.480	0.470	-1.540	-0.040
2020/01/31 06:31:55.7	93.510	0.520	-1.630	-0.060
2020/01/31 06:31:55.8	93.530	0.580	-1.720	-0.090
2020/01/31 06:31:55.9	93.550	0.630	-1.800	-0.110
2020/01/31 06:31:56.0	93.580	0.680	-1.860	-0.120
2020/01/31 06:31:56.1	93.600	0.720	-1.910	-0.130
2020/01/31 06:31:56.2	93.610	0.760	-1.950	-0.140
2020/01/31 06:31:56.3	93.630	0.800	-1.980	-0.140
2020/01/31 06:31:56.4	93.650	0.830	-1.990	-0.130
2020/01/31 06:31:56.5	93.660	0.860	-2.000	-0.120
2020/01/31 06:31:56.6	93.670	0.890	-1.980	-0.110
2020/01/31 06:31:56.7	93.680	0.910	-1.960	-0.080
2020/01/31 06:31:56.8	93.690	0.930	-1.920	-0.050
2020/01/31 06:31:56.9	93.690	0.940	-1.870	-0.020
2020/01/31 06:31:57.0	93.700	0.940	-1.800	0.020
2020/01/31 06:31:57.1	93.700	0.940	-1.720	0.070
2020/01/31 06:31:57.2	93.690	0.940	-1.630	0.120
2020/01/31 06:31:57.3	93.690	0.930	-1.530	0.180
2020/01/31 06:31:57.4	93.680	0.920	-1.420	0.240
2020/01/31 06:31:57.5	93.670	0.900	-1.310	0.310
2020/01/31 06:31:57.6	93.650	0.880	-1.180	0.380
2020/01/31 06:31:57.7	93.630	0.850	-1.040	0.460
2020/01/31 06:31:57.8	93.610	0.820	-0.900	0.540
2020/01/31 06:31:57.9	93.590	0.790	-0.760	0.620
2020/01/31 06:31:58.0	93.560	0.750	-0.610	0.710
2020/01/31 06:31:58.1	93.540	0.700	-0.460	0.790
2020/01/31 06:31:58.2	93.510	0.660	-0.300	0.880
2020/01/31 06:31:58.3	93.480	0.610	-0.150	0.970
2020/01/31 06:31:58.4	93.440	0.550	0.000	1.060
2020/01/31 06:31:58.5	93.410	0.500	0.150	1.150
2020/01/31 06:31:58.6	93.370	0.440	0.300	1.240
2020/01/31 06:31:58.7	93.330	0.380	0.440	1.330
2020/01/31 06:31:58.8	93.290	0.330	0.570	1.410
2020/01/31 06:31:58.9	93.260	0.260	0.700	1.490
2020/01/31 06:31:59.0	93.220	0.200	0.820	1.570
2020/01/31 06:31:59.1	93.180	0.140	0.930	1.640
2020/01/31 06:31:59.2	93.150	0.080	1.040	1.720
2020/01/31 06:31:59.3	93.110	0.020	1.130	1.780
2020/01/31 06:31:59.4	93.080	-0.040	1.210	1.840
2020/01/31 06:31:59.5	93.040	-0.100	1.280	1.890
2020/01/31 06:31:59.6	93.010	-0.150	1.340	1.940
2020/01/31 06:31:59.7	92.980	-0.210	1.390	1.980
2020/01/31 06:31:59.8	92.960	-0.260	1.430	2.020
2020/01/31 06:31:59.9	92.930	-0.310	1.450	2.050
2020/01/31 06:32:00.0	92.910	-0.360	1.470	2.070
2020/01/31 06:32:00.1	92.890	-0.400	1.470	2.080
2020/01/31 06:32:00.2	92.870	-0.440	1.460	2.090
2020/01/31 06:32:00.3	92.860	-0.480	1.450	2.100
2020/01/31 06:32:00.4	92.840	-0.510	1.420	2.090
2020/01/31 06:32:00.5	92.830	-0.540	1.380	2.090
2020/01/31 06:32:00.6	92.830	-0.570	1.330	2.070
2020/01/31 06:32:00.7	92.820	-0.590	1.280	2.050
2020/01/31 06:32:00.8	92.820	-0.610	1.210	2.030
2020/01/31 06:32:00.9	92.820	-0.620	1.140	2.000
2020/01/31 06:32:01.0	92.820	-0.630	1.060	1.970
2020/01/31 06:32:01.1	92.820	-0.630	0.980	1.930
2020/01/31 06:32:01.2	92.830	-0.630	0.890	1.890
2020/01/31 06:32:01.3	92.830	-0.630	0.800	1.850
2020/01/31 06:32:01.4	92.840	-0.620	0.700	1.800
2020/01/31 06:32:01.5	92.850	-0.610	0.600	1.750
2020/01/31 06:32:01.6	92.860	-0.600	0.500	1.700
2020/01/31 06:32:01.7	92.870	-0.580	0.390	1.640
2020/01/31 06:32:01.8	92.890	-0.560	0.290	1.580
2020/01/31 06:32:01.9	92.900	-0.540	0.180	1.520
2020/01/31 06:32:02.0	92.920	-0.520	0.070	1.460
2020/01/31 06:32:02.1	92.930	-0.490	-0.030	1.400
2020/01/31 06:32:02.2	92.950	-0.460	-0.140	1.340
2020/01/31 06:32:02.3	92.970	-0.430	-0.240	1.270
2020/01/31 06:32:02.4	92.990	-0.400	-0.340	1.210
2020/01/31 06:32:02.5	93.010	-0.360	-0.430	1.140
2020/01/31 06:32:02.6	93.030	-0.330	-0.520	1.080
2020/01/31 06:32:02.7	93.050	-0.290	-0.600	1.020
2020/01/31 06:32:02.8	93.070	-0.260	-0.680	0.960
2020/01/31 06:32:02.9	93.090	-0.230	-0.750	0.900
2020/01/31 06:32:03.0	93.110	-0.190	-0.820	0.840
2020/01/31 06:32:03.1	93.130	-0.160	-0.880	0.790
2020/01/31 06:32:03.2	93.140	-0.130	-0.930	0.730
2020/01/31 06:32:03.3	93.150	-0.100	-0.980	0.690
2020/01/31 06:32:03.4	93.170	-0.070	-1.020	0.640
2020/01/31 06:32:03.5	93.180	-0.050	-1.050	0.600
2020/01/31 06:32:03.6	93.190	-0.020	-1.080	0.560
2020/01/31 06:32:03.7	93.200	-0.000	-1.090	0.530
2020/01/31 06:32:03.8	93.200	0.020	-1.100	0.500
2020/01/31 06:32:03.9	93.210	0.030	-1.110	0.470
2020/01/31 06:32:04.0	93.210	0.040	-1.100	0.450
2020/01/31 06:32:04.1	93.210	0.060	-1.090	0.420
2020/01/31 06:32:04.2	93.210	0.060	-1.070	0.410
2020/01/31 06:32:04.3	93.210	0.070	-1.050	0.390
2020/01/31 06:32:04.4	93.210	0.070	-1.020	0.380
2020/01/31 06:32:04.5	93.210	0.070	-0.990	0.370
2020/01/31 06:32:04.6	93.210	0.070	-0.950	0.360
2020/01/31 06:32:04.7	93.210	0.070	-0.910	0.350
2020/01/31 06:32:04.8	93.210	0.060	-0.870	0.340
2020/01/31 06:32:04.9	93.210	0.050	-0.820	0.330
2020/01/31 06:32:05.0	93.210	0.040	-0.780	0.330
2020/01/31 06:32:05.1	93.210	0.030	-0.730	0.320
2020/01/31 06:32:05.2	93.200	0.020	-0.670	0.320
2020/01/31 06:32:05.3	93.200	0.010	-0.620	0.320
2020/01/31 06:32:05.4	93.200	0.000	-0.570	0.320
2020/01/31 06:32:05.5	93.200	-0.010	-0.520	0.320
2020/01/31 06:32:05.6	93.200	-0.020	-0.480	0.320
2020/01/31 06:32:05.7	93.200	-0.030	-0.430	0.320
2020/01/31 06:32:05.8	93.200	-0.040	-0.390	0.330
2020/01/31 06:32:05.9	93.200	-0.050	-0.350	0.340
2020/01/31 06:32:06.0	93.200	-0.050	-0.310	0.350
2020/01/31 06:32:06.1	93.200	-0.060	-0.280	0.360
2020/01/31 06:32:06.2	93.190	-0.060	-0.240	0.370
2020/01/31 06:32:06.3	93.180	-0.060	-0.210	0.380
2020/01/31 06:32:06.4	93.180	-0.060	-0.190	0.400
2020/01/31 06:32:06.5	93.170	-0.060	-0.170	0.420
2020/01/31 06:32:06.6	93.160	-0.050	-0.160	0.440
2020/01/31 06:32:06.7	93.150	-0.040	-0.150	0.470
2020/01/31 06:32:06.8	93.140	-0.030	-0.140	0.490
2020/01/31 06:32:06.9	93.130	-0.020	-0.140	0.520
2020/01/31 06:32:07.0	93.120	-0.000	-0.130	0.540
2020/01/31 06:32:07.1	93.100	0.010	-0.140	0.570
2020/01/31 06:32:07.2	93.090	0.030	-0.140	0.600
2020/01/31 06:32:07.3	93.070	0.050	-0.150	0.630
2020/01/31 06:32:07.4	93.060	0.070	-0.160	0.660
2020/01/31 06:32:07.5	93.040	0.090	-0.170	0.690
2020/01/31 06:32:07.6	93.030	0.110	-0.180	0.720
2020/01/31 06:32:07.7	93.010	0.130	-0.190	0.750
2020/01/31 06:32:07.8	93.000	0.140	-0.190	0.770
2020/01/31 06:32:07.9	92.980	0.160	-0.200	0.800
2020/01/31 06:32:08.0	92.970	0.180	-0.210	0.820
2020/01/31 06:32:08.1	92.960	0.190	-0.210	0.850
2020/01/31 06:32:08.2	92.940	0.200	-0.210	0.870
2020/01/31 06:32:08.3	92.930	0.210	-0.210	0.890
2020/01/31 06:32:08.4	92.910	0.220	-0.210	0.920
2020/01/31 06:32:08.5	92.900	0.230	-0.200	0.940
2020/01/31 06:32:08.6	92.880	0.230	-0.190	0.950
2020/01/31 06:32:08.7	92.860	0.230	-0.180	0.970
2020/01/31 06:32:08.8	92.850	0.230	-0.160	0.990
2020/01/31 06:32:08.9	92.830	0.220	-0.140	1.010
2020/01/31 06:32:09.0	92.810	0.220	-0.120	1.020
2020/01/31 06:32:09.1	92.790	0.210	-0.100	1.040
2020/01/31 06:32:09.2	92.770	0.190	-0.070	1.050
2020/01/31 06:32:09.3	92.740	0.180	-0.040	1.060
2020/01/31 06:32:09.4	92.720	0.160	-0.010	1.070
2020/01/31 06:32:09.5	92.700	0.140	0.020	1.080
2020/01/31 06:32:09.6	92.670	0.130	0.050	1.090
2020/01/31 06:32:09.7	92.640	0.110	0.080	1.090
2020/01/31 06:32:09.8	92.620	0.090	0.110	1.100
2020/01/31 06:32:09.9	92.590	0.060	0.140	1.100
2020/01/31 06:32:10.0	92.560	0.040	0.170	1.100
2020/01/31 06:32:10.1	92.540	0.020	0.190	1.100
2020/01/31 06:32:10.2	92.510	0.000	0.220	1.100
2020/01/31 06:32:10.3	92.490	-0.020	0.240	1.090
2020/01/31 06:32:10.4	92.470	-0.030	0.260	1.080
2020/01/31 06:32:10.5	92.440	-0.050	0.280	1.060
2020/01/31 06:32:10.6	92.420	-0.060	0.300	1.040
2020/01/31 06:32:10.7	92.410	-0.080	0.310	1.020
2020/01/31 06:32:10.8	92.390	-0.090	0.320	1.000
2020/01/31 06:32:10.9	92.380	-0.100	0.320	0.970
2020/01/31 06:32:11.0	92.370	-0.100	0.330	0.940
2020/01/31 06:32:11.1	92.360	-0.110	0.320	0.910
2020/01/31 06:32:11.2	92.350	-0.110	0.320	0.870
2020/01/31 06:32:11.3	92.350	-0.110	0.310	0.830
2020/01/31 06:32:11.4	92.350	-0.110	0.300	0.790
2020/01/31 06:32:11.5	92.360	-0.100	0.280	0.750
2020/01/31 06:32:11.6	92.370	-0.090	0.260	0.700
2020/01/31 06:32:11.7	92.380	-0.080	0.240	0.660
2020/01/31 06:32:11.8	92.390	-0.070	0.220	0.610
2020/01/31 06:32:11.9	92.410	-0.060	0.190	0.560
2020/01/31 06:32:12.0	92.430	-0.050	0.160	0.520
2020/01/31 06:32:12.1	92.450	-0.030	0.130	0.470
2020/01/31 06:32:12.2	92.470	-0.010	0.090	0.430
2020/01/31 06:32:12.3	92.500	0.010	0.050	0.380
2020/01/31 06:32:12.4	92.520	0.020	0.010	0.340
2020/01/31 06:32:12.5	92.550	0.040	-0.030	0.290
2020/01/31 06:32:12.6	92.580	0.060	-0.070	0.250
2020/01/31 06:32:12.7	92.610	0.090	-0.110	0.210
2020/01/31 06:32:12.8	92.640	0.110	-0.150	0.170
2020/01/31 06:32:12.9	92.670	0.130	-0.190	0.130
2020/01/31 06:32:13.0	92.710	0.150	-0.240	0.100
2020/01/31 06:32:13.1	92.740	0.170	-0.280	0.060
2020/01/31 06:32:13.2	92.770	0.190	-0.320	0.030
2020/01/31 06:32:13.3	92.800	0.200	-0.360	0.010
2020/01/31 06:32:13.4	92.830	0.220	-0.400	-0.020
2020/01/31 06:32:13.5	92.860	0.240	-0.430	-0.040
2020/01/31 06:32:13.6	92.890	0.250	-0.460	-0.060
2020/01/31 06:32:13.7	92.910	0.260	-0.490	-0.070
2020/01/31 06:32:13.8	92.940	0.280	-0.520	-0.080
2020/01/31 06:32:13.9	92.960	0.290	-0.540	-0.090
2020/01/31 06:32:14.0	92.980	0.290	-0.560	-0.090
2020/01/31 06:32:14.1	93.000	0.300	-0.580	-0.090
2020/01/31 06:32:14.2	93.000	0.300	-0.590	-0.080
2020/01/31 06:32:14.3	93.010	0.300	-0.590	-0.080
2020/01/31 06:32:14.4	93.020	0.300	-0.600	-0.070
2020/01/31 06:32:14.5	93.020	0.300	-0.590	-0.060
2020/01/31 06:32:14.6	93.020	0.290	-0.580	-0.040
2020/01/31 06:32:14.7	93.020	0.290	-0.570	-0.020
2020/01/31 06:32:14.8	93.020	0.280	-0.550	0.000
2020/01/31 06:32:14.9	93.010	0.260	-0.530	0.030
2020/01/31 06:32:15.0	93.000	0.250	-0.510	0.060
2020/01/31 06:32:15.1	92.990	0.240	-0.470	0.090
2020/01/31 06:32:15.2	92.980	0.220	-0.440	0.130
2020/01/31 06:32:15.3	92.960	0.200	-0.400	0.170
2020/01/31 06:32:15.4	92.940	0.180	-0.360	0.210
2020/01/31 06:32:15.5	92.910	0.160	-0.310	0.260
2020/01/31 06:32:15.6	92.890	0.140	-0.270	0.310
2020/01/31 06:32:15.7	92.860	0.120	-0.220	0.360
2020/01/31 06:32:15.8	92.830	0.090	-0.170	0.420
2020/01/31 06:32:15.9	92.800	0.070	-0.120	0.480
2020/01/31 06:32:16.0	92.760	0.050	-0.070	0.540
2020/01/31 06:32:16.1	92.730	0.020	-0.020	0.600
2020/01/31 06:32:16.2	92.700	-0.000	0.020	0.660
2020/01/31 06:32:16.3	92.660	-0.020	0.070	0.730
2020/01/31 06:32:16.4	92.620	-0.050	0.110	0.800
2020/01/31 06:32:16.5	92.590	-0.070	0.150	0.870
2020/01/31 06:32:16.6	92.550	-0.090	0.180	0.930
2020/01/31 06:32:16.7	92.510	-0.110	0.210	1.000
2020/01/31 06:32:16.8	92.470	-0.130	0.240	1.070
2020/01/31 06:32:16.9	92.440	-0.150	0.260	1.130
2020/01/31 06:32:17.0	92.400	-0.160	0.280	1.200
2020/01/31 06:32:17.1	92.370	-0.180	0.290	1.260
2020/01/31 06:32:17.2	92.330	-0.190	0.300	1.320
2020/01/31 06:32:17.3	92.300	-0.200	0.300	1.380
2020/01/31 06:32:17.4	92.280	-0.210	0.290	1.430
2020/01/31 06:32:17.5	92.250	-0.220	0.280	1.470
2020/01/31 06:32:17.6	92.230	-0.230	0.260	1.520
2020/01/31 06:32:17.7	92.210	-0.230	0.240	1.550
2020/01/31 06:32:17.8	92.200	-0.230	0.220	1.590
2020/01/31 06:32:17.9	92.190	-0.240	0.190	1.610
2020/01/31 06:32:18.0	92.180	-0.240	0.150	1.630
2020/01/31 06:32:18.1	92.180	-0.230	0.110	1.650
2020/01/31 06:32:18.2	92.180	-0.230	0.070	1.660
2020/01/31 06:32:18.3	92.190	-0.230	0.030	1.660
2020/01/31 06:32:18.4	92.190	-0.220	-0.020	1.660
2020/01/31 06:32:18.5	92.200	-0.210	-0.070	1.660
2020/01/31 06:32:18.6	92.210	-0.200	-0.120	1.650
2020/01/31 06:32:18.7	92.230	-0.200	-0.160	1.640
2020/01/31 06:32:18.8	92.250	-0.180	-0.210	1.620
2020/01/31 06:32:18.9	92.260	-0.170	-0.260	1.600
2020/01/31 06:32:19.0	92.280	-0.160	-0.310	1.580
2020/01/31 06:32:19.1	92.300	-0.150	-0.360	1.560
2020/01/31 06:32:19.2	92.320	-0.140	-0.400	1.540
2020/01/31 06:32:19.3	92.340	-0.120	-0.440	1.520
2020/01/31 06:32:19.4	92.350	-0.110	-0.480	1.490
2020/01/31 06:32:19.5	92.370	-0.090	-0.510	1.470
2020/01/31 06:32:19.6	92.380	-0.080	-0.540	1.450
2020/01/31 06:32:19.7	92.400	-0.060	-0.570	1.430
2020/01/31 06:32:19.8	92.410	-0.050	-0.600	1.410
2020/01/31 06:32:19.9	92.410	-0.040	-0.620	1.390
2020/01/31 06:32:20.0	92.420	-0.020	-0.630	1.380
2020/01/31 06:32:20.1	92.420	-0.010	-0.650	1.360
2020/01/31 06:32:20.2	92.420	0.000	-0.660	1.350
2020/01/31 06:32:20.3	92.420	0.020	-0.660	1.350
2020/01/31 06:32:20.4	92.410	0.030	-0.660	1.340
2020/01/31 06:32:20.5	92.400	0.040	-0.660	1.330
2020/01/31 06:32:20.6	92.390	0.050	-0.660	1.330
2020/01/31 06:32:20.7	92.370	0.060	-0.650	1.330
2020/01/31 06:32:20.8	92.360	0.070	-0.640	1.320
2020/01/31 06:32:20.9	92.340	0.080	-0.630	1.320
2020/01/31 06:32:21.0	92.320	0.080	-0.610	1.320
2020/01/31 06:32:21.1	92.300	0.090	-0.600	1.310
2020/01/31 06:32:21.2	92.270	0.100	-0.570	1.310
2020/01/31 06:32:21.3	92.250	0.100	-0.550	1.310
2020/01/31 06:32:21.4	92.220	0.100	-0.530	1.300
2020/01/31 06:32:21.5	92.200	0.110	-0.510	1.290
2020/01/31 06:32:21.6	92.170	0.110	-0.490	1.280
2020/01/31 06:32:21.7	92.140	0.110	-0.460	1.270
2020/01/31 06:32:21.8	92.120	0.110	-0.440	1.260
2020/01/31 06:32:21.9	92.090	0.110	-0.420	1.240
2020/01/31 06:32:22.0	92.070	0.110	-0.390	1.220
2020/01/31 06:32:22.1	92.040	0.110	-0.370	1.200
2020/01/31 06:32:22.2	92.020	0.100	-0.340	1.180
2020/01/31 06:32:22.3	92.000	0.100	-0.320	1.150
2020/01/31 06:32:22.4	91.980	0.100	-0.290	1.120
2020/01/31 06:32:22.5	91.960	0.090	-0.270	1.090
2020/01/31 06:32:22.6	91.940	0.080	-0.240	1.050
2020/01/31 06:32:22.7	91.930	0.080	-0.210	1.010
2020/01/31 06:32:22.8	91.920	0.070	-0.190	0.980
2020/01/31 06:32:22.9	91.910	0.060	-0.160	0.940
2020/01/31 06:32:23.0	91.900	0.060	-0.140	0.900
2020/01/31 06:32:23.1	91.890	0.050	-0.110	0.850
2020/01/31 06:32:23.2	91.880	0.040	-0.080	0.810
2020/01/31 06:32:23.3	91.870	0.030	-0.050	0.770
2020/01/31 06:32:23.4	91.870	0.020	-0.020	0.730
2020/01/31 06:32:23.5	91.870	0.010	0.010	0.690
2020/01/31 06:32:23.6	91.870	-0.000	0.040	0.650
2020/01/31 06:32:23.7	91.880	-0.010	0.070	0.610
2020/01/31 06:32:23.8	91.880	-0.020	0.100	0.570
2020/01/31 06:32:23.9	91.890	-0.030	0.130	0.540
2020/01/31 06:32:24.0	91.900	-0.050	0.160	0.500
2020/01/31 06:32:24.1	91.910	-0.060	0.190	0.470
2020/01/31 06:32:24.2	91.920	-0.070	0.220	0.440
2020/01/31 06:32:24.3	91.940	-0.080	0.250	0.410
2020/01/31 06:32:24.4	91.950	-0.090	0.280	0.380
2020/01/31 06:32:24.5	91.960	-0.100	0.310	0.350
2020/01/31 06:32:24.6	91.970	-0.120	0.330	0.320
2020/01/31 06:32:24.7	91.990	-0.130	0.350	0.300
2020/01/31 06:32:24.8	92.000	-0.140	0.370	0.270
2020/01/31 06:32:24.9	92.020	-0.150	0.390	0.250
2020/01/31 06:32:25.0	92.030	-0.160	0.410	0.220
2020/01/31 06:32:25.1	92.050	-0.160	0.420	0.200
2020/01/31 06:32:25.2	92.050	-0.170	0.430	0.170
2020/01/31 06:32:25.3	92.070	-0.180	0.430	0.150
2020/01/31 06:32:25.4	92.080	-0.180	0.430	0.120
2020/01/31 06:32:25.5	92.100	-0.190	0.430	0.100
2020/01/31 06:32:25.6	92.120	-0.190	0.420	0.070
2020/01/31 06:32:25.7	92.130	-0.190	0.410	0.040
2020/01/31 06:32:25.8	92.150	-0.190	0.400	0.010
2020/01/31 06:32:25.9	92.160	-0.190	0.380	-0.010
2020/01/31 06:32:26.0	92.180	-0.190	0.360	-0.040
2020/01/31 06:32:26.1	92.190	-0.190	0.340	-0.070
2020/01/31 06:32:26.2	92.210	-0.180	0.310	-0.090
2020/01/31 06:32:26.3	92.220	-0.180	0.290	-0.110
2020/01/31 06:32:26.4	92.230	-0.170	0.260	-0.130
2020/01/31 06:32:26.5	92.240	-0.170	0.220	-0.150
2020/01/31 06:32:26.6	92.250	-0.160	0.190	-0.170
2020/01/31 06:32:26.7	92.260	-0.150	0.150	-0.180
2020/01/31 06:32:26.8	92.260	-0.150	0.110	-0.190
2020/01/31 06:32:26.9	92.270	-0.140	0.070	-0.190
2020/01/31 06:32:27.0	92.270	-0.130	0.040	-0.190
2020/01/31 06:32:27.1	92.270	-0.120	-0.000	-0.190
2020/01/31 06:32:27.2	92.270	-0.110	-0.050	-0.180
2020/01/31 06:32:27.3	92.260	-0.100	-0.090	-0.170
2020/01/31 06:32:27.4	92.260	-0.090	-0.130	-0.150
2020/01/31 06:32:27.5	92.250	-0.080	-0.170	-0.130
2020/01/31 06:32:27.6	92.240	-0.070	-0.210	-0.110
2020/01/31 06:32:27.7	92.230	-0.070	-0.250	-0.080
2020/01/31 06:32:27.8	92.220	-0.060	-0.290	-0.050
2020/01/31 06:32:27.9	92.210	-0.050	-0.330	-0.010
2020/01/31 06:32:28.0	92.190	-0.040	-0.370	0.030
2020/01/31 06:32:28.1	92.180	-0.030	-0.410	0.070
2020/01/31 06:32:28.2	92.150	-0.020	-0.450	0.120
2020/01/31 06:32:28.3	92.140	-0.010	-0.480	0.170
2020/01/31 06:32:28.4	92.120	0.000	-0.520	0.220
2020/01/31 06:32:28.5	92.100	0.010	-0.550	0.280
2020/01/31 06:32:28.6	92.080	0.030	-0.580	0.330
2020/01/31 06:32:28.7	92.060	0.040	-0.610	0.390
2020/01/31 06:32:28.8	92.050	0.050	-0.640	0.450
2020/01/31 06:32:28.9	92.030	0.060	-0.670	0.510
2020/01/31 06:32:29.0	92.010	0.070	-0.700	0.570
2020/01/31 06:32:29.1	91.990	0.080	-0.720	0.630
2020/01/31 06:32:29.2	91.990	0.100	-0.740	0.690
2020/01/31 06:32:29.3	91.970	0.110	-0.760	0.750
2020/01/31 06:32:29.4	91.960	0.120	-0.780	0.810
2020/01/31 06:32:29.5	91.940	0.130	-0.790	0.870
2020/01/31 06:32:29.6	91.930	0.150	-0.800	0.920
2020/01/31 06:32:29.7	91.920	0.160	-0.800	0.980
2020/01/31 06:32:29.8	91.900	0.180	-0.810	1.030
2020/01/31 06:32:29.9	91.890	0.190	-0.810	1.090
2020/01/31 06:32:30.0	91.880	0.200	-0.800	1.140
2020/01/31 06:32:30.1	91.870	0.220	-0.790	1.190
2020/01/31 06:32:30.2	91.870	0.230	-0.780	1.240
2020/01/31 06:32:30.3	91.860	0.240	-0.760	1.280
2020/01/31 06:32:30.4	91.850	0.260	-0.740	1.330
2020/01/31 06:32:30.5	91.840	0.270	-0.720	1.370
2020/01/31 06:32:30.6	91.830	0.280	-0.690	1.400
2020/01/31 06:32:30.7	91.820	0.290	-0.660	1.440
2020/01/31 06:32:30.8	91.810	0.300	-0.620	1.470
2020/01/31 06:32:30.9	91.800	0.300	-0.590	1.490
2020/01/31 06:32:31.0	91.790	0.310	-0.540	1.510
2020/01/31 06:32:31.1	91.780	0.310	-0.500	1.530
2020/01/31 06:32:31.2	91.780	0.320	-0.450	1.550
2020/01/31 06:32:31.3	91.780	0.320	-0.410	1.560
2020/01/31 06:32:31.4	91.770	0.320	-0.360	1.570
2020/01/31 06:32:31.5	91.770	0.320	-0.310	1.570
2020/01/31 06:32:31.6	91.760	0.310	-0.260	1.570
2020/01/31 06:32:31.7	91.760	0.310	-0.210	1.560
2020/01/31 06:32:31.8	91.750	0.300	-0.160	1.550
2020/01/31 06:32:31.9	91.750	0.290	-0.110	1.540
2020/01/31 06:32:32.0	91.750	0.280	-0.060	1.520
2020/01/31 06:32:32.1	91.750	0.270	-0.010	1.500
2020/01/31 06:32:32.2	91.760	0.260	0.030	1.480
2020/01/31 06:32:32.3	91.760	0.250	0.080	1.450
2020/01/31 06:32:32.4	91.760	0.230	0.120	1.420
2020/01/31 06:32:32.5	91.760	0.220	0.160	1.390
2020/01/31 06:32:32.6	91.760	0.200	0.190	1.360
2020/01/31 06:32:32.7	91.760	0.180	0.230	1.320
2020/01/31 06:32:32.8	91.760	0.160	0.260	1.290
2020/01/31 06:32:32.9	91.770	0.140	0.290	1.250
2020/01/31 06:32:33.0	91.770	0.130	0.310	1.210
2020/01/31 06:32:33.1	91.780	0.110	0.340	1.170
2020/01/31 06:32:33.2	91.790	0.090	0.360	1.140
2020/01/31 06:32:33.3	91.800	0.070	0.370	1.100
2020/01/31 06:32:33.4	91.810	0.050	0.380	1.060
2020/01/31 06:32:33.5	91.810	0.030	0.390	1.020
2020/01/31 06:32:33.6	91.830	0.010	0.390	0.990
2020/01/31 06:32:33.7	91.840	-0.000	0.390	0.950
2020/01/31 06:32:33.8	91.850	-0.020	0.390	0.920
2020/01/31 06:32:33.9	91.870	-0.030	0.380	0.880
2020/01/31 06:32:34.0	91.880	-0.050	0.370	0.850
2020/01/31 06:32:34.1	91.900	-0.060	0.350	0.810
2020/01/31 06:32:34.2	91.910	-0.070	0.330	0.780
2020/01/31 06:32:34.3	91.930	-0.080	0.300	0.750
2020/01/31 06:32:34.4	91.940	-0.090	0.270	0.720
2020/01/31 06:32:34.5	91.960	-0.090	0.240	0.690
2020/01/31 06:32:34.6	91.980	-0.090	0.200	0.660
2020/01/31 06:32:34.7	91.990	-0.100	0.160	0.640
2020/01/31 06:32:34.8	92.010	-0.100	0.120	0.610
2020/01/31 06:32:34.9	92.020	-0.100	0.070	0.590
2020/01/31 06:32:35.0	92.030	-0.090	0.030	0.570
2020/01/31 06:32:35.1	92.050	-0.090	-0.020	0.550
2020/01/31 06:32:35.2	92.040	-0.080	-0.070	0.530
2020/01/31 06:32:35.3	92.050	-0.080	-0.120	0.520
2020/01/31 06:32:35.4	92.060	-0.070	-0.160	0.510
2020/01/31 06:32:35.5	92.060	-0.060	-0.210	0.490
2020/01/31 06:32:35.6	92.070	-0.050	-0.250	0.480
2020/01/31 06:32:35.7	92.070	-0.040	-0.290	0.480
2020/01/31 06:32:35.8	92.070	-0.040	-0.330	0.470
2020/01/31 06:32:35.9	92.060	-0.030	-0.370	0.470
2020/01/31 06:32:36.0	92.060	-0.020	-0.400	0.470
2020/01/31 06:32:36.1	92.050	-0.010	-0.430	0.470
2020/01/31 06:32:36.2	92.020	-0.000	-0.450	0.480
2020/01/31 06:32:36.3	92.010	0.000	-0.480	0.480
2020/01/31 06:32:36.4	91.990	0.010	-0.490	0.490
2020/01/31 06:32:36.5	91.970	0.010	-0.500	0.500
2020/01/31 06:32:36.6	91.950	0.020	-0.510	0.510
2020/01/31 06:32:36.7	91.930	0.020	-0.520	0.530
2020/01/31 06:32:36.8	91.900	0.010	-0.520	0.540
2020/01/31 06:32:36.9	91.880	0.010	-0.510	0.550
2020/01/31 06:32:37.0	91.850	0.010	-0.510	0.570
2020/01/31 06:32:37.1	91.820	0.000	-0.500	0.590
2020/01/31 06:32:37.2	91.790	-0.010	-0.480	0.610
2020/01/31 06:32:37.3	91.760	-0.020	-0.470	0.620
2020/01/31 06:32:37.4	91.730	-0.030	-0.450	0.640
2020/01/31 06:32:37.5	91.700	-0.040	-0.430	0.660
2020/01/31 06:32:37.6	91.670	-0.060	-0.410	0.680
2020/01/31 06:32:37.7	91.640	-0.080	-0.390	0.700
2020/01/31 06:32:37.8	91.610	-0.090	-0.360	0.710
2020/01/31 06:32:37.9	91.590	-0.110	-0.340	0.730
2020/01/31 06:32:38.0	91.570	-0.130	-0.320	0.740
2020/01/31 06:32:38.1	91.550	-0.150	-0.300	0.760
2020/01/31 06:32:38.2	91.530	-0.170	-0.270	0.780
2020/01/31 06:32:38.3	91.510	-0.190	-0.250	0.790
2020/01/31 06:32:38.4	91.500	-0.210	-0.230	0.800
2020/01/31 06:32:38.5	91.500	-0.230	-0.210	0.810
2020/01/31 06:32:38.6	91.490	-0.250	-0.190	0.810
2020/01/31 06:32:38.7	91.490	-0.270	-0.180	0.820
2020/01/31 06:32:38.8	91.490	-0.280	-0.170	0.820
2020/01/31 06:32:38.9	91.500	-0.300	-0.150	0.820
2020/01/31 06:32:39.0	91.510	-0.310	-0.140	0.820
2020/01/31 06:32:39.1	91.530	-0.330	-0.130	0.820
2020/01/31 06:32:39.2	91.550	-0.340	-0.120	0.810
2020/01/31 06:32:39.3	91.570	-0.350	-0.120	0.810
2020/01/31 06:32:39.4	91.600	-0.350	-0.110	0.800
2020/01/31 06:32:39.5	91.620	-0.360	-0.110	0.790
2020/01/31 06:32:39.6	91.650	-0.370	-0.100	0.780
2020/01/31 06:32:39.7	91.680	-0.370	-0.100	0.770
2020/01/31 06:32:39.8	91.710	-0.370	-0.090	0.760
2020/01/31 06:32:39.9	91.740	-0.370	-0.090	0.750
2020/01/31 06:32:40.0	91.770	-0.370	-0.090	0.740
2020/01/31 06:32:40.1	91.800	-0.370	-0.080	0.730
2020/01/31 06:32:40.2	91.840	-0.370	-0.080	0.720
2020/01/31 06:32:40.3	91.870	-0.360	-0.070	0.710
2020/01/31 06:32:40.4	91.900	-0.360	-0.070	0.690
2020/01/31 06:32:40.5	91.920	-0.350	-0.060	0.680
2020/01/31 06:32:40.6	91.950	-0.340	-0.050	0.670
2020/01/31 06:32:40.7	91.970	-0.340	-0.040	0.660
2020/01/31 06:32:40.8	91.990	-0.330	-0.020	0.650
2020/01/31 06:32:40.9	92.010	-0.320	-0.010	0.640
2020/01/31 06:32:41.0	92.030	-0.320	0.010	0.640
2020/01/31 06:32:41.1	92.050	-0.310	0.020	0.630
2020/01/31 06:32:41.2	92.060	-0.310	0.040	0.620
2020/01/31 06:32:41.3	92.070	-0.300	0.060	0.620
2020/01/31 06:32:41.4	92.080	-0.300	0.090	0.620
2020/01/31 06:32:41.5	92.080	-0.290	0.110	0.620
2020/01/31 06:32:41.6	92.080	-0.290	0.140	0.610
2020/01/31 06:32:41.7	92.090	-0.280	0.160	0.620
2020/01/31 06:32:41.8	92.080	-0.280	0.190	0.620
2020/01/31 06:32:41.9	92.080	-0.280	0.210	0.620
2020/01/31 06:32:42.0	92.070	-0.280	0.240	0.620
2020/01/31 06:32:42.1	92.060	-0.280	0.260	0.630
2020/01/31 06:32:42.2	92.050	-0.270	0.300	0.640
2020/01/31 06:32:42.3	92.040	-0.270	0.320	0.650
2020/01/31 06:32:42.4	92.020	-0.270	0.340	0.660
2020/01/31 06:32:42.5	92.000	-0.270	0.350	0.660
2020/01/31 06:32:42.6	91.990	-0.260	0.370	0.670
2020/01/31 06:32:42.7	91.960	-0.260	0.380	0.680
2020/01/31 06:32:42.8	91.940	-0.250	0.390	0.690
2020/01/31 06:32:42.9	91.920	-0.250	0.390	0.710
2020/01/31 06:32:43.0	91.890	-0.240	0.380	0.720
2020/01/31 06:32:43.1	91.870	-0.230	0.370	0.730
2020/01/31 06:32:43.2	91.840	-0.220	0.360	0.740
2020/01/31 06:32:43.3	91.810	-0.210	0.340	0.750
2020/01/31 06:32:43.4	91.780	-0.190	0.310	0.760
2020/01/31 06:32:43.5	91.750	-0.170	0.280	0.770
2020/01/31 06:32:43.6	91.720	-0.150	0.240	0.780
2020/01/31 06:32:43.7	91.700	-0.130	0.190	0.790
2020/01/31 06:32:43.8	91.670	-0.110	0.140	0.800
2020/01/31 06:32:43.9	91.640	-0.080	0.090	0.810
2020/01/31 06:32:44.0	91.610	-0.050	0.020	0.820
2020/01/31 06:32:44.1	91.590	-0.020	-0.040	0.820
2020/01/31 06:32:44.2	91.570	0.020	-0.120	0.830
2020/01/31 06:32:44.3	91.540	0.050	-0.190	0.830
2020/01/31 06:32:44.4	91.520	0.090	-0.270	0.830
2020/01/31 06:32:44.5	91.510	0.130	-0.350	0.830
2020/01/31 06:32:44.6	91.490	0.180	-0.440	0.820
2020/01/31 06:32:44.7	91.480	0.220	-0.520	0.820
2020/01/31 06:32:44.8	91.460	0.260	-0.610	0.810
2020/01/31 06:32:44.9	91.450	0.310	-0.700	0.800
2020/01/31 06:32:45.0	91.440	0.360	-0.780	0.790
2020/01/31 06:32:45.1	91.430	0.400	-0.860	0.780
2020/01/31 06:32:45.2	91.420	0.450	-0.950	0.770
2020/01/31 06:32:45.3	91.410	0.490	-1.020	0.760
2020/01/31 06:32:45.4	91.410	0.540	-1.100	0.750
2020/01/31 06:32:45.5	91.400	0.580	-1.170	0.730
2020/01/31 06:32:45.6	91.400	0.620	-1.230	0.710
2020/01/31 06:32:45.7	91.390	0.660	-1.280	0.690
2020/01/31 06:32:45.8	91.390	0.700	-1.330	0.670
2020/01/31 06:32:45.9	91.380	0.730	-1.370	0.650
2020/01/31 06:32:46.0	91.380	0.760	-1.410	0.630
2020/01/31 06:32:46.1	91.380	0.790	-1.430	0.600
2020/01/31 06:32:46.2	91.390	0.810	-1.440	0.580
2020/01/31 06:32:46.3	91.390	0.830	-1.450	0.550
2020/01/31 06:32:46.4	91.390	0.850	-1.440	0.520
2020/01/31 06:32:46.5	91.400	0.860	-1.420	0.490
2020/01/31 06:32:46.6	91.400	0.870	-1.400	0.460
2020/01/31 06:32:46.7	91.410	0.880	-1.360	0.430
2020/01/31 06:32:46.8	91.410	0.880	-1.320	0.400
2020/01/31 06:32:46.9	91.420	0.870	-1.260	0.370
2020/01/31 06:32:47.0	91.430	0.870	-1.190	0.350
2020/01/31 06:32:47.1	91.440	0.850	-1.120	0.320
2020/01/31 06:32:47.2	91.460	0.840	-1.040	0.290
2020/01/31 06:32:47.3	91.470	0.820	-0.940	0.270
2020/01/31 06:32:47.4	91.490	0.790	-0.850	0.250
2020/01/31 06:32:47.5	91.500	0.760	-0.740	0.230
2020/01/31 06:32:47.6	91.510	0.730	-0.630	0.210
2020/01/31 06:32:47.7	91.530	0.690	-0.520	0.200
2020/01/31 06:32:47.8	91.540	0.650	-0.400	0.190
2020/01/31 06:32:47.9	91.550	0.610	-0.280	0.180
2020/01/31 06:32:48.0	91.570	0.560	-0.160	0.170
2020/01/31 06:32:48.1	91.580	0.520	-0.030	0.170
2020/01/31 06:32:48.2	91.590	0.470	0.100	0.180
2020/01/31 06:32:48.3	91.600	0.410	0.220	0.190
2020/01/31 06:32:48.4	91.610	0.360	0.340	0.200
2020/01/31 06:32:48.5	91.610	0.300	0.450	0.210
2020/01/31 06:32:48.6	91.620	0.250	0.570	0.230
2020/01/31 06:32:48.7	91.620	0.190	0.670	0.260
2020/01/31 06:32:48.8	91.620	0.130	0.770	0.280
2020/01/31 06:32:48.9	91.620	0.080	0.860	0.310
2020/01/31 06:32:49.0	91.620	0.020	0.950	0.350
2020/01/31 06:32:49.1	91.610	-0.030	1.030	0.380
2020/01/31 06:32:49.2	91.610	-0.090	1.090	0.430
2020/01/31 06:32:49.3	91.610	-0.140	1.150	0.470
2020/01/31 06:32:49.4	91.600	-0.190	1.200	0.510
2020/01/31 06:32:49.5	91.590	-0.240	1.230	0.560
2020/01/31 06:32:49.6	91.590	-0.280	1.250	0.610
2020/01/31 06:32:49.7	91.580	-0.320	1.270	0.660
2020/01/31 06:32:49.8	91.570	-0.360	1.270	0.710
2020/01/31 06:32:49.9	91.560	-0.390	1.260	0.760
2020/01/31 06:32:50.0	91.550	-0.420	1.240	0.810
2020/01/31 06:32:50.1	91.540	-0.450	1.210	0.850
2020/01/31 06:32:50.2	91.540	-0.470	1.160	0.910
2020/01/31 06:32:50.3	91.530	-0.490	1.110	0.950
2020/01/31 06:32:50.4	91.530	-0.500	1.050	0.990
2020/01/31 06:32:50.5	91.520	-0.520	0.980	1.040
2020/01/31 06:32:50.6	91.520	-0.520	0.900	1.080
2020/01/31 06:32:50.7	91.510	-0.530	0.820	1.110
2020/01/31 06:32:50.8	91.510	-0.530	0.730	1.150
2020/01/31 06:32:50.9	91.510	-0.520	0.630	1.180
2020/01/31 06:32:51.0	91.510	-0.520	0.540	1.220
2020/01/31 06:32:51.1	91.500	-0.510	0.430	1.250
2020/01/31 06:32:51.2	91.500	-0.490	0.330	1.270
2020/01/31 06:32:51.3	91.500	-0.480	0.220	1.300
2020/01/31 06:32:51.4	91.500	-0.470	0.120	1.330
2020/01/31 06:32:51.5	91.500	-0.450	0.020	1.350
2020/01/31 06:32:51.6	91.500	-0.430	-0.080	1.370
2020/01/31 06:32:51.7	91.510	-0.410	-0.180	1.390
2020/01/31 06:32:51.8	91.510	-0.390	-0.280	1.410
2020/01/31 06:32:51.9	91.510	-0.370	-0.370	1.430
2020/01/31 06:32:52.0	91.510	-0.350	-0.450	1.440
2020/01/31 06:32:52.1	91.520	-0.340	-0.530	1.450
2020/01/31 06:32:52.2	91.530	-0.320	-0.610	1.470
2020/01/31 06:32:52.3	91.530	-0.300	-0.670	1.480
2020/01/31 06:32:52.4	91.540	-0.290	-0.730	1.490
2020/01/31 06:32:52.5	91.540	-0.270	-0.780	1.490
2020/01/31 06:32:52.6	91.550	-0.260	-0.830	1.500
2020/01/31 06:32:52.7	91.560	-0.250	-0.860	1.500
2020/01/31 06:32:52.8	91.570	-0.240	-0.890	1.500
2020/01/31 06:32:52.9	91.580	-0.240	-0.910	1.500
2020/01/31 06:32:53.0	91.580	-0.230	-0.920	1.490
2020/01/31 06:32:53.1	91.590	-0.230	-0.930	1.480
2020/01/31 06:32:53.2	91.600	-0.230	-0.930	1.470
2020/01/31 06:32:53.3	91.610	-0.230	-0.920	1.460
2020/01/31 06:32:53.4	91.620	-0.230	-0.900	1.450
2020/01/31 06:32:53.5	91.630	-0.230	-0.880	1.430
2020/01/31 06:32:53.6	91.640	-0.240	-0.850	1.410
2020/01/31 06:32:53.7	91.650	-0.240	-0.820	1.390
2020/01/31 06:32:53.8	91.650	-0.250	-0.780	1.380
2020/01/31 06:32:53.9	91.660	-0.260	-0.740	1.360
2020/01/31 06:32:54.0	91.660	-0.270	-0.690	1.340
2020/01/31 06:32:54.1	91.670	-0.270	-0.640	1.310
2020/01/31 06:32:54.2	91.670	-0.280	-0.590	1.300
2020/01/31 06:32:54.3	91.670	-0.290	-0.540	1.280
2020/01/31 06:32:54.4	91.660	-0.300	-0.490	1.260
2020/01/31 06:32:54.5	91.660	-0.300	-0.430	1.240
2020/01/31 06:32:54.6	91.650	-0.310	-0.380	1.220
2020/01/31 06:32:54.7	91.650	-0.310	-0.330	1.200
2020/01/31 06:32:54.8	91.640	-0.310	-0.280	1.180
2020/01/31 06:32:54.9	91.630	-0.310	-0.230	1.170
2020/01/31 06:32:55.0	91.620	-0.310	-0.180	1.150
2020/01/31 06:32:55.1	91.620	-0.310	-0.140	1.140
2020/01/31 06:32:55.2	91.610	-0.310	-0.100	1.120
2020/01/31 06:32:55.3	91.600	-0.300	-0.060	1.110
2020/01/31 06:32:55.4	91.590	-0.290	-0.030	1.100
2020/01/31 06:32:55.5	91.580	-0.290	-0.000	1.080
2020/01/31 06:32:55.6	91.570	-0.270	0.020	1.070
2020/01/31 06:32:55.7	91.560	-0.260	0.040	1.060
2020/01/31 06:32:55.8	91.550	-0.250	0.050	1.040
2020/01/31 06:32:55.9	91.540	-0.230	0.060	1.030
2020/01/31 06:32:56.0	91.530	-0.210	0.070	1.010
2020/01/31 06:32:56.1	91.520	-0.190	0.070	1.000
2020/01/31 06:32:56.2	91.510	-0.170	0.070	0.980
2020/01/31 06:32:56.3	91.510	-0.150	0.060	0.960
2020/01/31 06:32:56.4	91.500	-0.130	0.040	0.950
2020/01/31 06:32:56.5	91.490	-0.110	0.030	0.930
2020/01/31 06:32:56.6	91.490	-0.080	0.010	0.910
2020/01/31 06:32:56.7	91.480	-0.060	-0.010	0.890
2020/01/31 06:32:56.8	91.480	-0.030	-0.040	0.870
2020/01/31 06:32:56.9	91.470	-0.010	-0.070	0.850
2020/01/31 06:32:57.0	91.470	0.020	-0.090	0.830
2020/01/31 06:32:57.1	91.460	0.040	-0.120	0.810
2020/01/31 06:32:57.2	91.450	0.060	-0.160	0.780
2020/01/31 06:32:57.3	91.440	0.090	-0.190	0.760
2020/01/31 06:32:57.4	91.430	0.110	-0.220	0.740
2020/01/31 06:32:57.5	91.420	0.130	-0.250	0.710
2020/01/31 06:32:57.6	91.410	0.150	-0.280	0.690
2020/01/31 06:32:57.7	91.400	0.160	-0.310	0.670
2020/01/31 06:32:57.8	91.380	0.180	-0.330	0.640
2020/01/31 06:32:57.9	91.370	0.200	-0.360	0.610
2020/01/31 06:32:58.0	91.350	0.210	-0.380	0.590
2020/01/31 06:32:58.1	91.340	0.220	-0.400	0.560
2020/01/31 06:32:58.2	91.320	0.230	-0.410	0.530
2020/01/31 06:32:58.3	91.300	0.240	-0.430	0.510
2020/01/31 06:32:58.4	91.280	0.240	-0.440	0.480
2020/01/31 06:32:58.5	91.260	0.240	-0.450	0.450
2020/01/31 06:32:58.6	91.250	0.250	-0.450	0.430
2020/01/31 06:32:58.7	91.220	0.250	-0.450	0.400
2020/01/31 06:32:58.8	91.200	0.250	-0.450	0.370
2020/01/31 06:32:58.9	91.180	0.240	-0.450	0.350
2020/01/31 06:32:59.0	91.160	0.240	-0.440	0.330
2020/01/31 06:32:59.1	91.140	0.230	-0.430	0.300
2020/01/31 06:32:59.2	91.130	0.230	-0.420	0.280
2020/01/31 06:32:59.3	91.110	0.220	-0.410	0.260
2020/01/31 06:32:59.4	91.090	0.210	-0.390	0.240
2020/01/31 06:32:59.5	91.070	0.200	-0.370	0.220
2020/01/31 06:32:59.6	91.060	0.200	-0.350	0.200
2020/01/31 06:32:59.7	91.040	0.190	-0.330	0.180
2020/01/31 06:32:59.8	91.030	0.180	-0.300	0.160
2020/01/31 06:32:59.9	91.010	0.170	-0.280	0.140
2020/01/31 06:33:00.0	91.000	0.160	-0.250	0.120
2020/01/31 06:33:00.1	90.990	0.150	-0.220	0.110
2020/01/31 06:33:00.2	90.990	0.150	-0.200	0.090
2020/01/31 06:33:00.3	90.980	0.140	-0.170	0.070
2020/01/31 06:33:00.4	90.970	0.130	-0.140	0.060
2020/01/31 06:33:00.5	90.970	0.130	-0.120	0.040
2020/01/31 06:33:00.6	90.960	0.120	-0.090	0.030
2020/01/31 06:33:00.7	90.960	0.120	-0.070	0.010
2020/01/31 06:33:00.8	90.950	0.120	-0.050	-0.000
2020/01/31 06:33:00.9	90.950	0.120	-0.030	-0.020
2020/01/31 06:33:01.0	90.950	0.120	-0.010	-0.030
2020/01/31 06:33:01.1	90.950	0.120	0.010	-0.040
2020/01/31 06:33:01.2	90.950	0.120	0.020	-0.050
2020/01/31 06:33:01.3	90.950	0.130	0.040	-0.060
2020/01/31 06:33:01.4	90.960	0.130	0.050	-0.070
2020/01/31 06:33:01.5	90.960	0.140	0.050	-0.080
2020/01/31 06:33:01.6	90.970	0.140	0.060	-0.090
2020/01/31 06:33:01.7	90.970	0.150	0.060	-0.100
2020/01/31 06:33:01.8	90.980	0.160	0.060	-0.110
2020/01/31 06:33:01.9	90.990	0.160	0.060	-0.110
2020/01/31 06:33:02.0	91.000	0.170	0.060	-0.120
2020/01/31 06:33:02.1	91.020	0.180	0.060	-0.130
2020/01/31 06:33:02.2	91.030	0.190	0.050	-0.130
2020/01/31 06:33:02.3	91.050	0.200	0.040	-0.140
2020/01/31 06:33:02.4	91.060	0.200	0.030	-0.140
2020/01/31 06:33:02.5	91.080	0.210	0.020	-0.140
2020/01/31 06:33:02.6	91.100	0.220	0.010	-0.140
2020/01/31 06:33:02.7	91.110	0.220	0.000	-0.140
2020/01/31 06:33:02.8	91.130	0.230	-0.010	-0.130
2020/01/31 06:33:02.9	91.150	0.230	-0.020	-0.130
2020/01/31 06:33:03.0	91.170	0.230	-0.030	-0.120
2020/01/31 06:33:03.1	91.180	0.240	-0.040	-0.100
2020/01/31 06:33:03.2	91.200	0.240	-0.050	-0.090
2020/01/31 06:33:03.3	91.210	0.240	-0.060	-0.070
2020/01/31 06:33:03.4	91.230	0.230	-0.080	-0.050
2020/01/31 06:33:03.5	91.240	0.230	-0.090	-0.020
2020/01/31 06:33:03.6	91.240	0.230	-0.100	0.010
2020/01/31 06:33:03.7	91.250	0.220	-0.110	0.040
2020/01/31 06:33:03.8	91.260	0.210	-0.110	0.080
2020/01/31 06:33:03.9	91.260	0.200	-0.120	0.110
2020/01/31 06:33:04.0	91.260	0.190	-0.130	0.160
2020/01/31 06:33:04.1	91.260	0.180	-0.130	0.200
2020/01/31 06:33:04.2	91.260	0.170	-0.140	0.250
2020/01/31 06:33:04.3	91.260	0.160	-0.140	0.300
2020/01/31 06:33:04.4	91.250	0.140	-0.140	0.360
2020/01/31 06:33:04.5	91.250	0.130	-0.140	0.420
2020/01/31 06:33:04.6	91.240	0.110	-0.130	0.480
2020/01/31 06:33:04.7	91.230	0.090	-0.130	0.540
2020/01/31 06:33:04.8	91.220	0.070	-0.120	0.610
2020/01/31 06:33:04.9	91.210	0.050	-0.110	0.670
2020/01/31 06:33:05.0	91.200	0.030	-0.100	0.740
2020/01/31 06:33:05.1	91.190	0.010	-0.090	0.810
2020/01/31 06:33:05.2	91.170	-0.010	-0.070	0.880
2020/01/31 06:33:05.3	91.160	-0.030	-0.060	0.950
2020/01/31 06:33:05.4	91.150	-0.050	-0.040	1.030
2020/01/31 06:33:05.5	91.130	-0.070	-0.030	1.100
2020/01/31 06:33:05.6	91.120	-0.100	-0.020	1.170
2020/01/31 06:33:05.7	91.110	-0.120	-0.000	1.240
2020/01/31 06:33:05.8	91.090	-0.140	0.010	1.310
2020/01/31 06:33:05.9	91.080	-0.160	0.020	1.380
2020/01/31 06:33:06.0	91.060	-0.170	0.040	1.440
2020/01/31 06:33:06.1	91.050	-0.190	0.040	1.500
2020/01/31 06:33:06.2	91.040	-0.210	0.060	1.570
2020/01/31 06:33:06.3	91.020	-0.220	0.060	1.620
2020/01/31 06:33:06.4	91.010	-0.230	0.060	1.680
2020/01/31 06:33:06.5	91.000	-0.250	0.060	1.730
2020/01/31 06:33:06.6	90.990	-0.260	0.060	1.780
2020/01/31 06:33:06.7	90.980	-0.260	0.060	1.820
2020/01/31 06:33:06.8	90.970	-0.270	0.050	1.860
2020/01/31 06:33:06.9	90.960	-0.280	0.030	1.890
2020/01/31 06:33:07.0	90.950	-0.280	0.020	1.920
2020/01/31 06:33:07.1	90.950	-0.280	0.000	1.950
2020/01/31 06:33:07.2	90.960	-0.280	-0.020	1.970
2020/01/31 06:33:07.3	90.950	-0.270	-0.050	1.980
2020/01/31 06:33:07.4	90.950	-0.270	-0.070	2.000
2020/01/31 06:33:07.5	90.950	-0.260	-0.100	2.010
2020/01/31 06:33:07.6	90.960	-0.260	-0.130	2.010
2020/01/31 06:33:07.7	90.960	-0.250	-0.170	2.010
2020/01/31 06:33:07.8	90.970	-0.230	-0.200	2.010
2020/01/31 06:33:07.9	90.970	-0.220	-0.240	2.000
2020/01/31 06:33:08.0	90.980	-0.210	-0.270	1.990
2020/01/31 06:33:08.1	90.990	-0.190	-0.310	1.980
2020/01/31 06:33:08.2	91.010	-0.180	-0.350	1.970
2020/01/31 06:33:08.3	91.030	-0.160	-0.380	1.950
2020/01/31 06:33:08.4	91.040	-0.140	-0.420	1.930
2020/01/31 06:33:08.5	91.050	-0.130	-0.450	1.910
2020/01/31 06:33:08.6	91.060	-0.110	-0.480	1.890
2020/01/31 06:33:08.7	91.080	-0.090	-0.510	1.860
2020/01/31 06:33:08.8	91.090	-0.070	-0.540	1.840
2020/01/31 06:33:08.9	91.100	-0.060	-0.560	1.810
2020/01/31 06:33:09.0	91.110	-0.040	-0.590	1.790
2020/01/31 06:33:09.1	91.120	-0.020	-0.610	1.760
2020/01/31 06:33:09.2	91.130	-0.010	-0.620	1.730
2020/01/31 06:33:09.3	91.140	0.000	-0.630	1.700
2020/01/31 06:33:09.4	91.140	0.020	-0.640	1.670
2020/01/31 06:33:09.5	91.140	0.030	-0.650	1.650
2020/01/31 06:33:09.6	91.140	0.040	-0.650	1.620
2020/01/31 06:33:09.7	91.140	0.050	-0.650	1.590
2020/01/31 06:33:09.8	91.140	0.060	-0.650	1.570
2020/01/31 06:33:09.9	91.130	0.070	-0.640	1.540
2020/01/31 06:33:10.0	91.120	0.070	-0.630	1.510
2020/01/31 06:33:10.1	91.110	0.080	-0.610	1.480
2020/01/31 06:33:10.2	91.120	0.080	-0.590	1.460
2020/01/31 06:33:10.3	91.100	0.080	-0.570	1.430
2020/01/31 06:33:10.4	91.090	0.080	-0.550	1.400
2020/01/31 06:33:10.5	91.080	0.080	-0.520	1.360
2020/01/31 06:33:10.6	91.060	0.080	-0.490	1.330
2020/01/31 06:33:10.7	91.050	0.080	-0.460	1.300
2020/01/31 06:33:10.8	91.030	0.070	-0.420	1.270
2020/01/31 06:33:10.9	91.020	0.070	-0.390	1.230
2020/01/31 06:33:11.0	91.000	0.060	-0.350	1.200
2020/01/31 06:33:11.1	90.990	0.060	-0.320	1.160
2020/01/31 06:33:11.2	90.970	0.050	-0.280	1.120
2020/01/31 06:33:11.3	90.960	0.040	-0.240	1.090
2020/01/31 06:33:11.4	90.940	0.030	-0.200	1.050
2020/01/31 06:33:11.5	90.930	0.030	-0.170	1.010
2020/01/31 06:33:11.6	90.920	0.020	-0.130	0.970
2020/01/31 06:33:11.7	90.900	0.010	-0.090	0.940
2020/01/31 06:33:11.8	90.890	0.000	-0.060	0.900
2020/01/31 06:33:11.9	90.880	-0.010	-0.020	0.860
2020/01/31 06:33:12.0	90.870	-0.020	0.010	0.820
2020/01/31 06:33:12.1	90.860	-0.020	0.040	0.780
2020/01/31 06:33:12.2	90.840	-0.030	0.070	0.740
2020/01/31 06:33:12.3	90.830	-0.040	0.100	0.700
2020/01/31 06:33:12.4	90.820	-0.050	0.120	0.660
2020/01/31 06:33:12.5	90.810	-0.050	0.150	0.620
2020/01/31 06:33:12.6	90.800	-0.060	0.170	0.580
2020/01/31 06:33:12.7	90.800	-0.060	0.180	0.540
2020/01/31 06:33:12.8	90.790	-0.070	0.200	0.500
2020/01/31 06:33:12.9	90.780	-0.070	0.210	0.460
2020/01/31 06:33:13.0	90.770	-0.080	0.220	0.420
2020/01/31 06:33:13.1	90.770	-0.080	0.230	0.370
2020/01/31 06:33:13.2	90.760	-0.090	0.240	0.330
2020/01/31 06:33:13.3	90.750	-0.090	0.240	0.290
2020/01/31 06:33:13.4	90.750	-0.100	0.240	0.250
2020/01/31 06:33:13.5	90.750	-0.100	0.240	0.200
2020/01/31 06:33:13.6	90.740	-0.100	0.240	0.160
2020/01/31 06:33:13.7	90.740	-0.100	0.240	0.120
2020/01/31 06:33:13.8	90.740	-0.110	0.230	0.070
2020/01/31 06:33:13.9	90.750	-0.110	0.220	0.030
2020/01/31 06:33:14.0	90.750	-0.110	0.210	-0.020
2020/01/31 06:33:14.1	90.750	-0.110	0.200	-0.060
2020/01/31 06:33:14.2	90.750	-0.110	0.190	-0.100
2020/01/31 06:33:14.3	90.750	-0.110	0.170	-0.140
2020/01/31 06:33:14.4	90.760	-0.110	0.150	-0.180
2020/01/31 06:33:14.5	90.760	-0.100	0.130	-0.220
2020/01/31 06:33:14.6	90.770	-0.100	0.110	-0.260
2020/01/31 06:33:14.7	90.770	-0.100	0.090	-0.300
2020/01/31 06:33:14.8	90.780	-0.100	0.070	-0.340
2020/01/31 06:33:14.9	90.780	-0.090	0.040	-0.370
2020/01/31 06:33:15.0	90.780	-0.090	0.020	-0.400
2020/01/31 06:33:15.1	90.790	-0.080	-0.010	-0.430
2020/01/31 06:33:15.2	90.780	-0.080	-0.040	-0.460
2020/01/31 06:33:15.3	90.790	-0.070	-0.060	-0.490
2020/01/31 06:33:15.4	90.790	-0.060	-0.080	-0.510
2020/01/31 06:33:15.5	90.790	-0.050	-0.110	-0.530
2020/01/31 06:33:15.6	90.790	-0.050	-0.130	-0.550
2020/01/31 06:33:15.7	90.790	-0.040	-0.150	-0.570
2020/01/31 06:33:15.8	90.790	-0.030	-0.170	-0.580
2020/01/31 06:33:15.9	90.800	-0.020	-0.190	-0.590
2020/01/31 06:33:16.0	90.800	-0.020	-0.210	-0.600
2020/01/31 06:33:16.1	90.800	-0.010	-0.220	-0.610
2020/01/31 06:33:16.2	90.800	0.000	-0.240	-0.610
2020/01/31 06:33:16.3	90.800	0.010	-0.250	-0.610
2020/01/31 06:33:16.4	90.810	0.020	-0.260	-0.610
2020/01/31 06:33:16.5	90.810	0.020	-0.260	-0.600
2020/01/31 06:33:16.6	90.820	0.030	-0.270	-0.590
2020/01/31 06:33:16.7	90.830	0.030	-0.280	-0.580
2020/01/31 06:33:16.8	90.830	0.040	-0.280	-0.570
2020/01/31 06:33:16.9	90.840	0.040	-0.280	-0.550
2020/01/31 06:33:17.0	90.850	0.050	-0.290	-0.530
2020/01/31 06:33:17.1	90.860	0.050	-0.290	-0.510
2020/01/31 06:33:17.2	90.880	0.050	-0.290	-0.480
2020/01/31 06:33:17.3	90.890	0.060	-0.290	-0.450
2020/01/31 06:33:17.4	90.900	0.060	-0.290	-0.420
2020/01/31 06:33:17.5	90.910	0.060	-0.290	-0.390
2020/01/31 06:33:17.6	90.930	0.060	-0.290	-0.350
2020/01/31 06:33:17.7	90.940	0.060	-0.290	-0.310
2020/01/31 06:33:17.8	90.960	0.060	-0.290	-0.270
2020/01/31 06:33:17.9	90.980	0.060	-0.290	-0.230
2020/01/31 06:33:18.0	90.990	0.050	-0.300	-0.180
2020/01/31 06:33:18.1	91.010	0.050	-0.300	-0.130
2020/01/31 06:33:18.2	91.030	0.050	-0.300	-0.080
2020/01/31 06:33:18.3	91.050	0.050	-0.310	-0.020
2020/01/31 06:33:18.4	91.070	0.050	-0.320	0.030
2020/01/31 06:33:18.5	91.090	0.040	-0.330	0.090
2020/01/31 06:33:18.6	91.100	0.040	-0.340	0.160
2020/01/31 06:33:18.7	91.120	0.040	-0.350	0.220
2020/01/31 06:33:18.8	91.140	0.040	-0.360	0.290
2020/01/31 06:33:18.9	91.150	0.040	-0.370	0.370
2020/01/31 06:33:19.0	91.160	0.030	-0.380	0.440
2020/01/31 06:33:19.1	91.170	0.030	-0.390	0.520
2020/01/31 06:33:19.2	91.190	0.030	-0.400	0.610
2020/01/31 06:33:19.3	91.200	0.030	-0.420	0.690
2020/01/31 06:33:19.4	91.200	0.030	-0.430	0.780
2020/01/31 06:33:19.5	91.200	0.030	-0.430	0.860
2020/01/31 06:33:19.6	91.200	0.030	-0.440	0.950
2020/01/31 06:33:19.7	91.200	0.030	-0.450	1.040
2020/01/31 06:33:19.8	91.200	0.030	-0.450	1.130
2020/01/31 06:33:19.9	91.190	0.030	-0.460	1.210
2020/01/31 06:33:20.0	91.180	0.030	-0.460	1.300
2020/01/31 06:33:20.1	91.170	0.030	-0.460	1.380
2020/01/31 06:33:20.2	91.170	0.030	-0.450	1.470
2020/01/31 06:33:20.3	91.150	0.030	-0.440	1.550
2020/01/31 06:33:20.4	91.140	0.030	-0.430	1.630
2020/01/31 06:33:20.5	91.120	0.030	-0.420	1.700
2020/01/31 06:33:20.6	91.110	0.020	-0.410	1.770
2020/01/31 06:33:20.7	91.090	0.020	-0.390	1.850
2020/01/31 06:33:20.8	91.070	0.020	-0.370	1.910
2020/01/31 06:33:20.9	91.050	0.020	-0.350	1.980
2020/01/31 06:33:21.0	91.030	0.020	-0.320	2.040
2020/01/31 06:33:21.1	91.010	0.020	-0.300	2.100
2020/01/31 06:33:21.2	91.000	0.020	-0.260	2.150
2020/01/31 06:33:21.3	90.980	0.020	-0.230	2.200
2020/01/31 06:33:21.4	90.950	0.010	-0.200	2.250
2020/01/31 06:33:21.5	90.930	0.010	-0.170	2.290
2020/01/31 06:33:21.6	90.910	0.010	-0.140	2.330
2020/01/31 06:33:21.7	90.890	0.010	-0.100	2.370
2020/01/31 06:33:21.8	90.870	0.010	-0.070	2.400
2020/01/31 06:33:21.9	90.850	0.000	-0.030	2.420
2020/01/31 06:33:22.0	90.830	0.000	-0.000	2.450
2020/01/31 06:33:22.1	90.810	0.000	0.030	2.460
2020/01/31 06:33:22.2	90.800	-0.000	0.060	2.480
2020/01/31 06:33:22.3	90.790	-0.000	0.090	2.490
2020/01/31 06:33:22.4	90.770	-0.000	0.110	2.500
2020/01/31 06:33:22.5	90.750	-0.000	0.140	2.500
2020/01/31 06:33:22.6	90.740	-0.000	0.160	2.500
2020/01/31 06:33:22.7	90.730	0.000	0.170	2.490
2020/01/31 06:33:22.8	90.720	0.000	0.190	2.480
2020/01/31 06:33:22.9	90.710	0.010	0.200	2.460
2020/01/31 06:33:23.0	90.700	0.010	0.200	2.440
2020/01/31 06:33:23.1	90.690	0.020	0.200	2.410
2020/01/31 06:33:23.2	90.700	0.020	0.200	2.380
2020/01/31 06:33:23.3	90.700	0.030	0.200	2.350
2020/01/31 06:33:23.4	90.700	0.040	0.190	2.310
2020/01/31 06:33:23.5	90.690	0.050	0.180	2.260
2020/01/31 06:33:23.6	90.700	0.060	0.160	2.210
2020/01/31 06:33:23.7	90.700	0.070	0.140	2.150
2020/01/31 06:33:23.8	90.700	0.080	0.120	2.090
2020/01/31 06:33:23.9	90.710	0.090	0.090	2.030
2020/01/31 06:33:24.0	90.720	0.100	0.070	1.960
2020/01/31 06:33:24.1	90.720	0.100	0.040	1.880
2020/01/31 06:33:24.2	90.750	0.110	0.010	1.800
2020/01/31 06:33:24.3	90.760	0.120	-0.010	1.720
2020/01/31 06:33:24.4	90.770	0.130	-0.040	1.630
2020/01/31 06:33:24.5	90.790	0.140	-0.070	1.540
2020/01/31 06:33:24.6	90.800	0.140	-0.100	1.450
2020/01/31 06:33:24.7	90.820	0.140	-0.120	1.350
2020/01/31 06:33:24.8	90.840	0.150	-0.150	1.260
2020/01/31 06:33:24.9	90.860	0.150	-0.170	1.160
2020/01/31 06:33:25.0	90.870	0.150	-0.190	1.070
2020/01/31 06:33:25.1	90.890	0.140	-0.200	0.970
2020/01/31 06:33:25.2	90.900	0.140	-0.220	0.880
2020/01/31 06:33:25.3	90.920	0.130	-0.230	0.780
2020/01/31 06:33:25.4	90.930	0.130	-0.240	0.690
2020/01/31 06:33:25.5	90.950	0.120	-0.250	0.610
2020/01/31 06:33:25.6	90.960	0.110	-0.250	0.520
2020/01/31 06:33:25.7	90.970	0.100	-0.260	0.440
2020/01/31 06:33:25.8	90.980	0.080	-0.260	0.360
2020/01/31 06:33:25.9	90.990	0.070	-0.260	0.290
2020/01/31 06:33:26.0	91.000	0.050	-0.250	0.210
2020/01/31 06:33:26.1	91.000	0.040	-0.250	0.150
2020/01/31 06:33:26.2	91.000	0.020	-0.240	0.080
2020/01/31 06:33:26.3	91.000	0.010	-0.230	0.020
2020/01/31 06:33:26.4	91.000	-0.010	-0.230	-0.030
2020/01/31 06:33:26.5	91.010	-0.030	-0.220	-0.090
2020/01/31 06:33:26.6	91.010	-0.040	-0.210	-0.140
2020/01/31 06:33:26.7	91.010	-0.060	-0.210	-0.190
2020/01/31 06:33:26.8	91.010	-0.070	-0.200	-0.230
2020/01/31 06:33:26.9	91.000	-0.090	-0.200	-0.270
2020/01/31 06:33:27.0	91.000	-0.100	-0.190	-0.310
2020/01/31 06:33:27.1	91.000	-0.110	-0.190	-0.350
2020/01/31 06:33:27.2	91.000	-0.120	-0.190	-0.390
2020/01/31 06:33:27.3	91.000	-0.130	-0.190	-0.420
2020/01/31 06:33:27.4	91.000	-0.140	-0.190	-0.450
2020/01/31 06:33:27.5	91.000	-0.140	-0.190	-0.480
2020/01/31 06:33:27.6	91.000	-0.150	-0.190	-0.510
2020/01/31 06:33:27.7	91.000	-0.150	-0.200	-0.540
2020/01/31 06:33:27.8	91.000	-0.150	-0.200	-0.560
2020/01/31 06:33:27.9	91.000	-0.160	-0.200	-0.580
2020/01/31 06:33:28.0	91.000	-0.160	-0.210	-0.600
2020/01/31 06:33:28.1	91.010	-0.150	-0.210	-0.620
2020/01/31 06:33:28.2	91.000	-0.150	-0.220	-0.630
2020/01/31 06:33:28.3	91.000	-0.150	-0.220	-0.640
2020/01/31 06:33:28.4	91.000	-0.140	-0.220	-0.650
2020/01/31 06:33:28.5	91.010	-0.140	-0.230	-0.660
2020/01/31 06:33:28.6	91.010	-0.140	-0.230	-0.660
2020/01/31 06:33:28.7	91.010	-0.130	-0.230	-0.660
2020/01/31 06:33:28.8	91.010	-0.120	-0.230	-0.650
2020/01/31 06:33:28.9	91.010	-0.120	-0.230	-0.640
2020/01/31 06:33:29.0	91.010	-0.110	-0.230	-0.630
2020/01/31 06:33:29.1	91.010	-0.110	-0.230	-0.610
2020/01/31 06:33:29.2	91.010	-0.100	-0.220	-0.590
2020/01/31 06:33:29.3	91.010	-0.100	-0.220	-0.560
2020/01/31 06:33:29.4	91.000	-0.090	-0.220	-0.540
2020/01/31 06:33:29.5	91.000	-0.090	-0.210	-0.510
2020/01/31 06:33:29.6	90.990	-0.080	-0.210	-0.480
2020/01/31 06:33:29.7	90.990	-0.080	-0.200	-0.440
2020/01/31 06:33:29.8	90.980	-0.070	-0.190	-0.400
2020/01/31 06:33:29.9	90.970	-0.070	-0.190	-0.370
2020/01/31 06:33:30.0	90.970	-0.070	-0.180	-0.320
2020/01/31 06:33:30.1	90.960	-0.060	-0.180	-0.280
2020/01/31 06:33:30.2	90.950	-0.060	-0.170	-0.230
2020/01/31 06:33:30.3	90.940	-0.060	-0.170	-0.190
2020/01/31 06:33:30.4	90.940	-0.060	-0.160	-0.140
2020/01/31 06:33:30.5	90.930	-0.060	-0.160	-0.090
2020/01/31 06:33:30.6	90.920	-0.050	-0.160	-0.040
2020/01/31 06:33:30.7	90.920	-0.050	-0.160	0.000
2020/01/31 06:33:30.8	90.920	-0.050	-0.150	0.050
2020/01/31 06:33:30.9	90.910	-0.050	-0.160	0.100
2020/01/31 06:33:31.0	90.910	-0.050	-0.160	0.160
2020/01/31 06:33:31.1	90.910	-0.050	-0.160	0.210
2020/01/31 06:33:31.2	90.910	-0.040	-0.160	0.260
2020/01/31 06:33:31.3	90.910	-0.040	-0.160	0.310
2020/01/31 06:33:31.4	90.920	-0.040	-0.160	0.360
2020/01/31 06:33:31.5	90.920	-0.040	-0.170	0.420
2020/01/31 06:33:31.6	90.930	-0.040	-0.170	0.470
2020/01/31 06:33:31.7	90.930	-0.040	-0.170	0.520
2020/01/31 06:33:31.8	90.940	-0.030	-0.170	0.580
2020/01/31 06:33:31.9	90.950	-0.030	-0.170	0.630
2020/01/31 06:33:32.0	90.960	-0.030	-0.180	0.690
2020/01/31 06:33:32.1	90.970	-0.030	-0.180	0.740
2020/01/31 06:33:32.2	90.970	-0.030	-0.170	0.800
2020/01/31 06:33:32.3	90.980	-0.030	-0.170	0.860
2020/01/31 06:33:32.4	90.990	-0.030	-0.170	0.910
2020/01/31 06:33:32.5	91.000	-0.030	-0.170	0.970
2020/01/31 06:33:32.6	91.010	-0.040	-0.170	1.020
2020/01/31 06:33:32.7	91.020	-0.040	-0.170	1.080
2020/01/31 06:33:32.8	91.020	-0.040	-0.170	1.140
2020/01/31 06:33:32.9	91.030	-0.040	-0.170	1.190
2020/01/31 06:33:33.0	91.030	-0.050	-0.170	1.250
2020/01/31 06:33:33.1	91.040	-0.050	-0.170	1.300
2020/01/31 06:33:33.2	91.050	-0.050	-0.170	1.360
2020/01/31 06:33:33.3	91.050	-0.060	-0.180	1.410
2020/01/31 06:33:33.4	91.050	-0.060	-0.180	1.460
2020/01/31 06:33:33.5	91.050	-0.070	-0.180	1.510
2020/01/31 06:33:33.6	91.050	-0.080	-0.190	1.550
2020/01/31 06:33:33.7	91.050	-0.080	-0.190	1.600
2020/01/31 06:33:33.8	91.050	-0.090	-0.190	1.640
2020/01/31 06:33:33.9	91.040	-0.100	-0.200	1.680
2020/01/31 06:33:34.0	91.040	-0.100	-0.200	1.710
2020/01/31 06:33:34.1	91.040	-0.110	-0.200	1.750
2020/01/31 06:33:34.2	91.040	-0.120	-0.210	1.780
2020/01/31 06:33:34.3	91.030	-0.130	-0.210	1.810
2020/01/31 06:33:34.4	91.030	-0.140	-0.210	1.830
2020/01/31 06:33:34.5	91.020	-0.140	-0.210	1.860
2020/01/31 06:33:34.6	91.020	-0.150	-0.210	1.880
2020/01/31 06:33:34.7	91.010	-0.160	-0.210	1.900
2020/01/31 06:33:34.8	91.010	-0.170	-0.210	1.910
2020/01/31 06:33:34.9	91.000	-0.180	-0.210	1.930
2020/01/31 06:33:35.0	91.000	-0.190	-0.200	1.940
2020/01/31 06:33:35.1	90.990	-0.190	-0.200	1.950
2020/01/31 06:33:35.2	90.990	-0.200	-0.190	1.960
2020/01/31 06:33:35.3	90.980	-0.210	-0.180	1.970
2020/01/31 06:33:35.4	90.970	-0.220	-0.170	1.980
2020/01/31 06:33:35.5	90.960	-0.220	-0.160	1.980
2020/01/31 06:33:35.6	90.950	-0.230	-0.150	1.980
2020/01/31 06:33:35.7	90.930	-0.230	-0.140	1.980
2020/01/31 06:33:35.8	90.920	-0.230	-0.120	1.980
2020/01/31 06:33:35.9	90.910	-0.240	-0.110	1.970
2020/01/31 06:33:36.0	90.900	-0.240	-0.100	1.970
2020/01/31 06:33:36.1	90.890	-0.240	-0.080	1.960
2020/01/31 06:33:36.2	90.880	-0.240	-0.060	1.940
2020/01/31 06:33:36.3	90.870	-0.240	-0.050	1.930
2020/01/31 06:33:36.4	90.860	-0.230	-0.040	1.910
2020/01/31 06:33:36.5	90.850	-0.230	-0.020	1.880
2020/01/31 06:33:36.6	90.840	-0.220	-0.010	1.850
2020/01/31 06:33:36.7	90.840	-0.210	0.000	1.810
2020/01/31 06:33:36.8	90.840	-0.200	0.010	1.770
2020/01/31 06:33:36.9	90.830	-0.190	0.020	1.730
2020/01/31 06:33:37.0	90.840	-0.180	0.030	1.680
2020/01/31 06:33:37.1	90.840	-0.160	0.030	1.630
2020/01/31 06:33:37.2	90.850	-0.140	0.030	1.570
2020/01/31 06:33:37.3	90.860	-0.120	0.030	1.500
2020/01/31 06:33:37.4	90.860	-0.100	0.030	1.440
2020/01/31 06:33:37.5	90.870	-0.080	0.020	1.370
2020/01/31 06:33:37.6	90.880	-0.060	0.010	1.300
2020/01/31 06:33:37.7	90.890	-0.030	0.000	1.220
2020/01/31 06:33:37.8	90.910	0.000	-0.010	1.150
2020/01/31 06:33:37.9	90.920	0.030	-0.030	1.070
2020/01/31 06:33:38.0	90.930	0.060	-0.040	1.000
2020/01/31 06:33:38.1	90.950	0.090	-0.060	0.920
2020/01/31 06:33:38.2	90.950	0.130	-0.080	0.840
2020/01/31 06:33:38.3	90.960	0.160	-0.110	0.770
2020/01/31 06:33:38.4	90.980	0.200	-0.130	0.690
2020/01/31 06:33:38.5	90.990	0.230	-0.160	0.620
2020/01/31 06:33:38.6	91.000	0.270	-0.180	0.550
2020/01/31 06:33:38.7	91.020	0.300	-0.210	0.480
2020/01/31 06:33:38.8	91.030	0.330	-0.240	0.410
2020/01/31 06:33:38.9	91.040	0.370	-0.260	0.350
2020/01/31 06:33:39.0	91.050	0.400	-0.290	0.280
2020/01/31 06:33:39.1	91.060	0.430	-0.310	0.220
2020/01/31 06:33:39.2	91.060	0.460	-0.340	0.160
2020/01/31 06:33:39.3	91.070	0.480	-0.360	0.100
2020/01/31 06:33:39.4	91.080	0.500	-0.380	0.050
2020/01/31 06:33:39.5	91.090	0.530	-0.400	-0.000
2020/01/31 06:33:39.6	91.100	0.540	-0.420	-0.050
2020/01/31 06:33:39.7	91.100	0.560	-0.430	-0.100
2020/01/31 06:33:39.8	91.110	0.570	-0.440	-0.150
2020/01/31 06:33:39.9	91.120	0.580	-0.450	-0.190
2020/01/31 06:33:40.0	91.120	0.580	-0.450	-0.230
2020/01/31 06:33:40.1	91.130	0.590	-0.450	-0.270
2020/01/31 06:33:40.2	91.130	0.580	-0.450	-0.310
2020/01/31 06:33:40.3	91.130	0.580	-0.450	-0.350
2020/01/31 06:33:40.4	91.130	0.570	-0.440	-0.380
2020/01/31 06:33:40.5	91.130	0.560	-0.430	-0.410
2020/01/31 06:33:40.6	91.120	0.540	-0.420	-0.440
2020/01/31 06:33:40.7	91.120	0.530	-0.400	-0.460
2020/01/31 06:33:40.8	91.110	0.500	-0.380	-0.480
2020/01/31 06:33:40.9	91.100	0.480	-0.360	-0.500
2020/01/31 06:33:41.0	91.100	0.450	-0.340	-0.510
2020/01/31 06:33:41.1	91.080	0.420	-0.310	-0.520
2020/01/31 06:33:41.2	91.080	0.390	-0.270	-0.520
2020/01/31 06:33:41.3	91.060	0.360	-0.250	-0.520
2020/01/31 06:33:41.4	91.050	0.330	-0.220	-0.520
2020/01/31 06:33:41.5	91.030	0.290	-0.180	-0.520
2020/01/31 06:33:41.6	91.020	0.260	-0.150	-0.510
2020/01/31 06:33:41.7	91.000	0.220	-0.120	-0.500
2020/01/31 06:33:41.8	90.980	0.190	-0.090	-0.480
2020/01/31 06:33:41.9	90.970	0.150	-0.060	-0.470
2020/01/31 06:33:42.0	90.950	0.120	-0.030	-0.440
2020/01/31 06:33:42.1	90.930	0.080	-0.010	-0.420
2020/01/31 06:33:42.2	90.910	0.050	0.020	-0.390
2020/01/31 06:33:42.3	90.890	0.010	0.040	-0.360
2020/01/31 06:33:42.4	90.870	-0.020	0.060	-0.320
2020/01/31 06:33:42.5	90.850	-0.050	0.080	-0.280
2020/01/31 06:33:42.6	90.830	-0.070	0.100	-0.240
2020/01/31 06:33:42.7	90.810	-0.100	0.110	-0.190
2020/01/31 06:33:42.8	90.790	-0.120	0.120	-0.140
2020/01/31 06:33:42.9	90.780	-0.140	0.120	-0.090
2020/01/31 06:33:43.0	90.760	-0.160	0.130	-0.040
2020/01/31 06:33:43.1	90.740	-0.180	0.120	0.010
2020/01/31 06:33:43.2	90.720	-0.190	0.120	0.070
2020/01/31 06:33:43.3	90.700	-0.200	0.110	0.130
2020/01/31 06:33:43.4	90.690	-0.210	0.100	0.190
2020/01/31 06:33:43.5	90.670	-0.220	0.080	0.250
2020/01/31 06:33:43.6	90.660	-0.230	0.060	0.300
2020/01/31 06:33:43.7	90.650	-0.230	0.040	0.360
2020/01/31 06:33:43.8	90.640	-0.230	0.010	0.420
2020/01/31 06:33:43.9	90.640	-0.230	-0.010	0.470
2020/01/31 06:33:44.0	90.640	-0.230	-0.040	0.530
2020/01/31 06:33:44.1	90.630	-0.230	-0.080	0.580
2020/01/31 06:33:44.2	90.640	-0.220	-0.110	0.630
2020/01/31 06:33:44.3	90.640	-0.220	-0.150	0.680
2020/01/31 06:33:44.4	90.650	-0.210	-0.180	0.730
2020/01/31 06:33:44.5	90.660	-0.200	-0.220	0.770
2020/01/31 06:33:44.6	90.670	-0.200	-0.260	0.810
2020/01/31 06:33:44.7	90.680	-0.190	-0.290	0.850
2020/01/31 06:33:44.8	90.690	-0.180	-0.330	0.890
2020/01/31 06:33:44.9	90.710	-0.180	-0.360	0.920
2020/01/31 06:33:45.0	90.720	-0.170	-0.390	0.950
2020/01/31 06:33:45.1	90.740	-0.170	-0.420	0.980
2020/01/31 06:33:45.2	90.780	-0.160	-0.440	1.010
2020/01/31 06:33:45.3	90.800	-0.160	-0.470	1.040
2020/01/31 06:33:45.4	90.820	-0.160	-0.490	1.070
2020/01/31 06:33:45.5	90.850	-0.160	-0.500	1.090
2020/01/31 06:33:45.6	90.870	-0.160	-0.510	1.110
2020/01/31 06:33:45.7	90.900	-0.160	-0.520	1.130
2020/01/31 06:33:45.8	90.920	-0.160	-0.520	1.150
2020/01/31 06:33:45.9	90.950	-0.170	-0.510	1.170
2020/01/31 06:33:46.0	90.970	-0.170	-0.510	1.200
2020/01/31 06:33:46.1	91.000	-0.180	-0.490	1.220
2020/01/31 06:33:46.2	91.030	-0.190	-0.480	1.240
2020/01/31 06:33:46.3	91.050	-0.200	-0.450	1.260
2020/01/31 06:33:46.4	91.070	-0.210	-0.420	1.280
2020/01/31 06:33:46.5	91.090	-0.220	-0.390	1.310
2020/01/31 06:33:46.6	91.100	-0.230	-0.350	1.330
2020/01/31 06:33:46.7	91.120	-0.240	-0.310	1.360
2020/01/31 06:33:46.8	91.130	-0.260	-0.270	1.380
2020/01/31 06:33:46.9	91.140	-0.270	-0.220	1.410
2020/01/31 06:33:47.0	91.150	-0.290	-0.160	1.440
2020/01/31 06:33:47.1	91.160	-0.300	-0.110	1.470
2020/01/31 06:33:47.2	91.170	-0.320	-0.050	1.490
2020/01/31 06:33:47.3	91.180	-0.330	0.000	1.520
2020/01/31 06:33:47.4	91.180	-0.340	0.060	1.540
2020/01/31 06:33:47.5	91.180	-0.360	0.120	1.570
2020/01/31 06:33:47.6	91.180	-0.370	0.170	1.600
2020/01/31 06:33:47.7	91.180	-0.380	0.230	1.620
2020/01/31 06:33:47.8	91.180	-0.390	0.280	1.640
2020/01/31 06:33:47.9	91.180	-0.400	0.330	1.660
2020/01/31 06:33:48.0	91.170	-0.400	0.380	1.680
2020/01/31 06:33:48.1	91.170	-0.410	0.420	1.700
2020/01/31 06:33:48.2	91.170	-0.410	0.460	1.720
2020/01/31 06:33:48.3	91.170	-0.410	0.490	1.730
2020/01/31 06:33:48.4	91.160	-0.410	0.520	1.740
2020/01/31 06:33:48.5	91.150	-0.410	0.540	1.750
2020/01/31 06:33:48.6	91.150	-0.400	0.560	1.760
2020/01/31 06:33:48.7	91.140	-0.400	0.570	1.760
2020/01/31 06:33:48.8	91.130	-0.390	0.570	1.760
2020/01/31 06:33:48.9	91.120	-0.380	0.560	1.760
2020/01/31 06:33:49.0	91.110	-0.360	0.550	1.750
2020/01/31 06:33:49.1	91.110	-0.350	0.530	1.740
2020/01/31 06:33:49.2	91.100	-0.330	0.510	1.730
2020/01/31 06:33:49.3	91.090	-0.310	0.480	1.710
2020/01/31 06:33:49.4	91.080	-0.290	0.440	1.690
2020/01/31 06:33:49.5	91.080	-0.270	0.390	1.670
2020/01/31 06:33:49.6	91.070	-0.240	0.340	1.640
2020/01/31 06:33:49.7	91.070	-0.220	0.290	1.610
2020/01/31 06:33:49.8	91.070	-0.190	0.230	1.570
2020/01/31 06:33:49.9	91.060	-0.160	0.160	1.540
2020/01/31 06:33:50.0	91.060	-0.140	0.090	1.500
2020/01/31 06:33:50.1	91.060	-0.110	0.020	1.460
2020/01/31 06:33:50.2	91.040	-0.080	-0.050	1.410
2020/01/31 06:33:50.3	91.040	-0.050	-0.130	1.360
2020/01/31 06:33:50.4	91.040	-0.020	-0.210	1.320
2020/01/31 06:33:50.5	91.040	0.010	-0.290	1.270
2020/01/31 06:33:50.6	91.030	0.040	-0.360	1.210
2020/01/31 06:33:50.7	91.030	0.070	-0.440	1.160
2020/01/31 06:33:50.8	91.030	0.100	-0.520	1.110
2020/01/31 06:33:50.9	91.020	0.120	-0.590	1.060
2020/01/31 06:33:51.0	91.020	0.150	-0.660	1.000
2020/01/31 06:33:51.1	91.010	0.170	-0.730	0.950
2020/01/31 06:33:51.2	91.000	0.200	-0.790	0.890
2020/01/31 06:33:51.3	91.000	0.220	-0.850	0.840
2020/01/31 06:33:51.4	90.990	0.240	-0.900	0.780
2020/01/31 06:33:51.5	90.980	0.260	-0.950	0.730
2020/01/31 06:33:51.6	90.970	0.280	-0.980	0.680
2020/01/31 06:33:51.7	90.970	0.290	-1.020	0.630
2020/01/31 06:33:51.8	90.960	0.300	-1.040	0.580
2020/01/31 06:33:51.9	90.950	0.320	-1.050	0.530
2020/01/31 06:33:52.0	90.940	0.320	-1.060	0.480
2020/01/31 06:33:52.1	90.930	0.330	-1.060	0.430
2020/01/31 06:33:52.2	90.920	0.340	-1.050	0.390
2020/01/31 06:33:52.3	90.910	0.340	-1.040	0.340
2020/01/31 06:33:52.4	90.900	0.340	-1.020	0.300
2020/01/31 06:33:52.5	90.890	0.340	-0.990	0.260
2020/01/31 06:33:52.6	90.880	0.330	-0.950	0.210
2020/01/31 06:33:52.7	90.880	0.330	-0.910	0.180
2020/01/31 06:33:52.8	90.870	0.320	-0.860	0.140
2020/01/31 06:33:52.9	90.860	0.310	-0.810	0.100
2020/01/31 06:33:53.0	90.850	0.310	-0.760	0.070
2020/01/31 06:33:53.1	90.840	0.290	-0.700	0.040
2020/01/31 06:33:53.2	90.840	0.280	-0.640	0.000
2020/01/31 06:33:53.3	90.830	0.270	-0.580	-0.030
2020/01/31 06:33:53.4	90.820	0.260	-0.510	-0.050
2020/01/31 06:33:53.5	90.810	0.240	-0.450	-0.080
2020/01/31 06:33:53.6	90.800	0.230	-0.390	-0.100
2020/01/31 06:33:53.7	90.790	0.210	-0.320	-0.120
2020/01/31 06:33:53.8	90.780	0.200	-0.260	-0.140
2020/01/31 06:33:53.9	90.780	0.180	-0.210	-0.160
2020/01/31 06:33:54.0	90.770	0.160	-0.150	-0.180
2020/01/31 06:33:54.1	90.760	0.150	-0.100	-0.190
2020/01/31 06:33:54.2	90.760	0.140	-0.040	-0.200
2020/01/31 06:33:54.3	90.750	0.120	0.000	-0.210
2020/01/31 06:33:54.4	90.740	0.110	0.040	-0.210
2020/01/31 06:33:54.5	90.730	0.100	0.080	-0.220
2020/01/31 06:33:54.6	90.730	0.090	0.120	-0.220
2020/01/31 06:33:54.7	90.720	0.080	0.140	-0.220
2020/01/31 06:33:54.8	90.720	0.070	0.170	-0.220
2020/01/31 06:33:54.9	90.710	0.060	0.190	-0.210
2020/01/31 06:33:55.0	90.710	0.050	0.210	-0.210
2020/01/31 06:33:55.1	90.710	0.050	0.220	-0.200
2020/01/31 06:33:55.2	90.700	0.040	0.230	-0.200
2020/01/31 06:33:55.3	90.700	0.040	0.240	-0.190
2020/01/31 06:33:55.4	90.700	0.040	0.240	-0.180
2020/01/31 06:33:55.5	90.710	0.040	0.250	-0.170
2020/01/31 06:33:55.6	90.720	0.040	0.240	-0.160
2020/01/31 06:33:55.7	90.730	0.040	0.240	-0.150
2020/01/31 06:33:55.8	90.740	0.040	0.240	-0.130
2020/01/31 06:33:55.9	90.750	0.050	0.230	-0.120
2020/01/31 06:33:56.0	90.770	0.050	0.220	-0.110
2020/01/31 06:33:56.1	90.790	0.060	0.210	-0.100
2020/01/31 06:33:56.2	90.820	0.060	0.200	-0.080
2020/01/31 06:33:56.3	90.840	0.070	0.190	-0.060
2020/01/31 06:33:56.4	90.870	0.080	0.170	-0.050
2020/01/31 06:33:56.5	90.890	0.090	0.160	-0.030
2020/01/31 06:33:56.6	90.920	0.100	0.140	-0.010
2020/01/31 06:33:56.7	90.950	0.110	0.130	0.000
2020/01/31 06:33:56.8	90.980	0.120	0.110	0.030
2020/01/31 06:33:56.9	91.010	0.130	0.090	0.050
2020/01/31 06:33:57.0	91.030	0.140	0.080	0.070
2020/01/31 06:33:57.1	91.060	0.150	0.060	0.100
2020/01/31 06:33:57.2	91.090	0.160	0.040	0.130
2020/01/31 06:33:57.3	91.110	0.160	0.020	0.170
2020/01/31 06:33:57.4	91.130	0.170	0.010	0.200
2020/01/31 06:33:57.5	91.150	0.180	-0.010	0.240
2020/01/31 06:33:57.6	91.170	0.190	-0.030	0.280
2020/01/31 06:33:57.7	91.180	0.190	-0.050	0.320
2020/01/31 06:33:57.8	91.190	0.200	-0.060	0.360
2020/01/31 06:33:57.9	91.200	0.200	-0.080	0.410
2020/01/31 06:33:58.0	91.210	0.210	-0.100	0.460
2020/01/31 06:33:58.1	91.210	0.210	-0.110	0.510
2020/01/31 06:33:58.2	91.210	0.210	-0.130	0.560
2020/01/31 06:33:58.3	91.210	0.210	-0.140	0.610
2020/01/31 06:33:58.4	91.210	0.210	-0.160	0.660
2020/01/31 06:33:58.5	91.200	0.200	-0.170	0.710
2020/01/31 06:33:58.6	91.190	0.190	-0.180	0.760
2020/01/31 06:33:58.7	91.190	0.190	-0.190	0.820
2020/01/31 06:33:58.8	91.170	0.180	-0.200	0.870
2020/01/31 06:33:58.9	91.160	0.160	-0.200	0.920
2020/01/31 06:33:59.0	91.150	0.150	-0.210	0.970
2020/01/31 06:33:59.1	91.130	0.130	-0.210	1.020
2020/01/31 06:33:59.2	91.120	0.120	-0.210	1.060
2020/01/31 06:33:59.3	91.100	0.100	-0.210	1.110
2020/01/31 06:33:59.4	91.090	0.080	-0.210	1.160
2020/01/31 06:33:59.5	91.070	0.060	-0.200	1.200
2020/01/31 06:33:59.6	91.060	0.030	-0.200	1.240
2020/01/31 06:33:59.7	91.040	0.010	-0.190	1.280
2020/01/31 06:33:59.8	91.020	-0.020	-0.190	1.320
2020/01/31 06:33:59.9	91.010	-0.040	-0.180	1.350
2020/01/31 06:34:00.0	91.000	-0.070	-0.170	1.390
2020/01/31 06:34:00.1	90.980	-0.090	-0.160	1.420
2020/01/31 06:34:00.2	90.980	-0.110	-0.150	1.450
2020/01/31 06:34:00.3	90.970	-0.140	-0.140	1.480
2020/01/31 06:34:00.4	90.960	-0.160	-0.130	1.500
2020/01/31 06:34:00.5	90.950	-0.180	-0.120	1.530
2020/01/31 06:34:00.6	90.950	-0.200	-0.110	1.550
2020/01/31 06:34:00.7	90.940	-0.220	-0.110	1.570
2020/01/31 06:34:00.8	90.940	-0.240	-0.100	1.600
2020/01/31 06:34:00.9	90.930	-0.250	-0.100	1.620
2020/01/31 06:34:01.0	90.930	-0.270	-0.090	1.640
2020/01/31 06:34:01.1	90.930	-0.280	-0.090	1.660
2020/01/31 06:34:01.2	90.930	-0.280	-0.090	1.680
2020/01/31 06:34:01.3	90.920	-0.290	-0.090	1.700
2020/01/31 06:34:01.4	90.920	-0.290	-0.090	1.710
2020/01/31 06:34:01.5	90.920	-0.290	-0.100	1.730
2020/01/31 06:34:01.6	90.920	-0.290	-0.100	1.750
2020/01/31 06:34:01.7	90.910	-0.280	-0.110	1.760
2020/01/31 06:34:01.8	90.910	-0.270	-0.120	1.770
2020/01/31 06:34:01.9	90.910	-0.260	-0.130	1.780
2020/01/31 06:34:02.0	90.910	-0.250	-0.150	1.790
2020/01/31 06:34:02.1	90.910	-0.230	-0.160	1.790
2020/01/31 06:34:02.2	90.910	-0.220	-0.180	1.800
2020/01/31 06:34:02.3	90.910	-0.200	-0.200	1.790
2020/01/31 06:34:02.4	90.910	-0.180	-0.210	1.790
2020/01/31 06:34:02.5	90.920	-0.160	-0.230	1.780
2020/01/31 06:34:02.6	90.920	-0.140	-0.250	1.770
2020/01/31 06:34:02.7	90.930	-0.110	-0.270	1.750
2020/01/31 06:34:02.8	90.930	-0.090	-0.290	1.730
2020/01/31 06:34:02.9	90.940	-0.070	-0.300	1.700
2020/01/31 06:34:03.0	90.950	-0.050	-0.320	1.670
2020/01/31 06:34:03.1	90.960	-0.030	-0.330	1.640
2020/01/31 06:34:03.2	90.970	-0.000	-0.350	1.600
2020/01/31 06:34:03.3	90.980	0.020	-0.360	1.560
2020/01/31 06:34:03.4	91.000	0.030	-0.370	1.520
2020/01/31 06:34:03.5	91.010	0.050	-0.380	1.470
2020/01/31 06:34:03.6	91.030	0.070	-0.380	1.430
2020/01/31 06:34:03.7	91.050	0.080	-0.390	1.380
2020/01/31 06:34:03.8	91.070	0.090	-0.390	1.330
2020/01/31 06:34:03.9	91.090	0.100	-0.390	1.280
2020/01/31 06:34:04.0	91.110	0.110	-0.390	1.230
2020/01/31 06:34:04.1	91.130	0.120	-0.380	1.180
2020/01/31 06:34:04.2	91.130	0.120	-0.380	1.130
2020/01/31 06:34:04.3	91.150	0.130	-0.370	1.080
2020/01/31 06:34:04.4	91.170	0.120	-0.360	1.030
2020/01/31 06:34:04.5	91.180	0.120	-0.350	0.990
2020/01/31 06:34:04.6	91.200	0.120	-0.330	0.950
2020/01/31 06:34:04.7	91.210	0.110	-0.320	0.910
2020/01/31 06:34:04.8	91.220	0.100	-0.300	0.870
2020/01/31 06:34:04.9	91.230	0.090	-0.280	0.830
2020/01/31 06:34:05.0	91.240	0.080	-0.260	0.800
2020/01/31 06:34:05.1	91.250	0.060	-0.240	0.770
2020/01/31 06:34:05.2	91.250	0.050	-0.210	0.740
2020/01/31 06:34:05.3	91.260	0.030	-0.190	0.720
2020/01/31 06:34:05.4	91.260	0.010	-0.170	0.690
2020/01/31 06:34:05.5	91.260	-0.010	-0.140	0.670
2020/01/31 06:34:05.6	91.250	-0.030	-0.120	0.660
2020/01/31 06:34:05.7	91.250	-0.050	-0.100	0.640
2020/01/31 06:34:05.8	91.250	-0.070	-0.070	0.620
2020/01/31 06:34:05.9	91.240	-0.100	-0.050	0.610
2020/01/31 06:34:06.0	91.230	-0.120	-0.020	0.600
2020/01/31 06:34:06.1	91.220	-0.150	0.000	0.590
2020/01/31 06:34:06.2	91.210	-0.170	0.030	0.580
2020/01/31 06:34:06.3	91.190	-0.200	0.050	0.570
2020/01/31 06:34:06.4	91.180	-0.220	0.070	0.560
2020/01/31 06:34:06.5	91.170	-0.250	0.090	0.540
2020/01/31 06:34:06.6	91.150	-0.270	0.120	0.530
2020/01/31 06:34:06.7	91.130	-0.300	0.140	0.520
2020/01/31 06:34:06.8	91.120	-0.320	0.160	0.510
2020/01/31 06:34:06.9	91.100	-0.340	0.170	0.500
2020/01/31 06:34:07.0	91.080	-0.360	0.190	0.480
2020/01/31 06:34:07.1	91.060	-0.380	0.200	0.470
2020/01/31 06:34:07.2	91.040	-0.400	0.220	0.450
2020/01/31 06:34:07.3	91.020	-0.420	0.230	0.430
2020/01/31 06:34:07.4	91.000	-0.440	0.240	0.410
2020/01/31 06:34:07.5	90.990	-0.450	0.250	0.390
2020/01/31 06:34:07.6	90.970	-0.460	0.250	0.370
2020/01/31 06:34:07.7	90.950	-0.470	0.250	0.340
2020/01/31 06:34:07.8	90.940	-0.480	0.250	0.320
2020/01/31 06:34:07.9	90.930	-0.490	0.240	0.290
2020/01/31 06:34:08.0	90.910	-0.490	0.240	0.270
2020/01/31 06:34:08.1	90.900	-0.490	0.220	0.240
2020/01/31 06:34:08.2	90.890	-0.490	0.210	0.210
2020/01/31 06:34:08.3	90.880	-0.490	0.190	0.180
2020/01/31 06:34:08.4	90.870	-0.480	0.170	0.150
2020/01/31 06:34:08.5	90.870	-0.470	0.140	0.120
2020/01/31 06:34:08.6	90.870	-0.460	0.110	0.090
2020/01/31 06:34:08.7	90.870	-0.440	0.080	0.060
2020/01/31 06:34:08.8	90.870	-0.420	0.050	0.030
2020/01/31 06:34:08.9	90.870	-0.400	0.010	0.000
2020/01/31 06:34:09.0	90.880	-0.380	-0.030	-0.030
2020/01/31 06:34:09.1	90.880	-0.350	-0.080	-0.050
2020/01/31 06:34:09.2	90.890	-0.320	-0.120	-0.080
2020/01/31 06:34:09.3	90.890	-0.290	-0.170	-0.110
2020/01/31 06:34:09.4	90.900	-0.250	-0.220	-0.130
2020/01/31 06:34:09.5	90.910	-0.220	-0.280	-0.150
2020/01/31 06:34:09.6	90.930	-0.180	-0.330	-0.170
2020/01/31 06:34:09.7	90.940	-0.140	-0.380	-0.190
2020/01/31 06:34:09.8	90.950	-0.090	-0.440	-0.210
2020/01/31 06:34:09.9	90.970	-0.050	-0.500	-0.220
2020/01/31 06:34:10.0	90.980	-0.010	-0.550	-0.230
2020/01/31 06:34:10.1	91.000	0.040	-0.600	-0.240
2020/01/31 06:34:10.2	91.010	0.090	-0.660	-0.240
2020/01/31 06:34:10.3	91.020	0.130	-0.710	-0.250
2020/01/31 06:34:10.4	91.030	0.180	-0.760	-0.240
2020/01/31 06:34:10.5	91.040	0.220	-0.800	-0.240
2020/01/31 06:34:10.6	91.050	0.270	-0.840	-0.230
2020/01/31 06:34:10.7	91.060	0.310	-0.880	-0.220
2020/01/31 06:34:10.8	91.060	0.350	-0.910	-0.210
2020/01/31 06:34:10.9	91.070	0.400	-0.940	-0.190
2020/01/31 06:34:11.0	91.070	0.440	-0.970	-0.170
2020/01/31 06:34:11.1	91.070	0.470	-0.980	-0.150
2020/01/31 06:34:11.2	91.070	0.510	-0.990	-0.120
2020/01/31 06:34:11.3	91.070	0.540	-1.000	-0.090
2020/01/31 06:34:11.4	91.070	0.570	-1.000	-0.060
2020/01/31 06:34:11.5	91.060	0.600	-1.000	-0.020
2020/01/31 06:34:11.6	91.050	0.620	-0.990	0.010
2020/01/31 06:34:11.7	91.050	0.640	-0.980	0.050
2020/01/31 06:34:11.8	91.040	0.660	-0.960	0.090
2020/01/31 06:34:11.9	91.030	0.670	-0.930	0.130
2020/01/31 06:34:12.0	91.020	0.690	-0.900	0.170
2020/01/31 06:34:12.1	91.010	0.690	-0.860	0.200
2020/01/31 06:34:12.2	91.000	0.700	-0.820	0.250
2020/01/31 06:34:12.3	90.990	0.700	-0.770	0.290
2020/01/31 06:34:12.4	90.980	0.690	-0.710	0.320
2020/01/31 06:34:12.5	90.970	0.690	-0.650	0.360
2020/01/31 06:34:12.6	90.960	0.680	-0.590	0.400
2020/01/31 06:34:12.7	90.950	0.670	-0.520	0.440
2020/01/31 06:34:12.8	90.940	0.650	-0.460	0.480
2020/01/31 06:34:12.9	90.930	0.630	-0.380	0.520
2020/01/31 06:34:13.0	90.920	0.610	-0.310	0.550
2020/01/31 06:34:13.1	90.910	0.590	-0.230	0.590
2020/01/31 06:34:13.2	90.910	0.570	-0.150	0.630
2020/01/31 06:34:13.3	90.900	0.540	-0.070	0.670
2020/01/31 06:34:13.4	90.890	0.510	0.010	0.700
2020/01/31 06:34:13.5	90.890	0.480	0.090	0.740
2020/01/31 06:34:13.6	90.880	0.450	0.170	0.770
2020/01/31 06:34:13.7	90.870	0.420	0.240	0.800
2020/01/31 06:34:13.8	90.860	0.390	0.310	0.840
2020/01/31 06:34:13.9	90.860	0.350	0.380	0.870
2020/01/31 06:34:14.0	90.850	0.320	0.450	0.900
2020/01/31 06:34:14.1	90.840	0.290	0.510	0.930
2020/01/31 06:34:14.2	90.840	0.260	0.560	0.960
2020/01/31 06:34:14.3	90.830	0.230	0.610	0.990
2020/01/31 06:34:14.4	90.830	0.200	0.660	1.010
2020/01/31 06:34:14.5	90.820	0.170	0.690	1.040
2020/01/31 06:34:14.6	90.810	0.140	0.720	1.060
2020/01/31 06:34:14.7	90.810	0.120	0.750	1.090
2020/01/31 06:34:14.8	90.800	0.090	0.760	1.110
2020/01/31 06:34:14.9	90.800	0.070	0.770	1.130
2020/01/31 06:34:15.0	90.790	0.050	0.770	1.140
2020/01/31 06:34:15.1	90.790	0.040	0.770	1.160
2020/01/31 06:34:15.2	90.800	0.020	0.750	1.170
2020/01/31 06:34:15.3	90.800	0.010	0.730	1.180
2020/01/31 06:34:15.4	90.790	0.000	0.700	1.190
2020/01/31 06:34:15.5	90.800	-0.010	0.670	1.200
2020/01/31 06:34:15.6	90.800	-0.010	0.630	1.200
2020/01/31 06:34:15.7	90.800	-0.020	0.580	1.210
2020/01/31 06:34:15.8	90.800	-0.020	0.530	1.210
2020/01/31 06:34:15.9	90.810	-0.020	0.480	1.200
2020/01/31 06:34:16.0	90.810	-0.020	0.420	1.200
2020/01/31 06:34:16.1	90.820	-0.010	0.360	1.190
2020/01/31 06:34:16.2	90.830	-0.010	0.290	1.180
2020/01/31 06:34:16.3	90.840	-0.010	0.220	1.170
2020/01/31 06:34:16.4	90.850	-0.000	0.160	1.160
2020/01/31 06:34:16.5	90.860	0.000	0.090	1.140
2020/01/31 06:34:16.6	90.880	0.010	0.030	1.120
2020/01/31 06:34:16.7	90.900	0.010	-0.040	1.100
2020/01/31 06:34:16.8	90.920	0.020	-0.100	1.080
2020/01/31 06:34:16.9	90.940	0.020	-0.160	1.060
2020/01/31 06:34:17.0	90.960	0.020	-0.210	1.040
2020/01/31 06:34:17.1	90.980	0.020	-0.260	1.020
2020/01/31 06:34:17.2	90.990	0.020	-0.320	1.000
2020/01/31 06:34:17.3	91.010	0.020	-0.360	0.980
2020/01/31 06:34:17.4	91.040	0.020	-0.400	0.960
2020/01/31 06:34:17.5	91.060	0.010	-0.430	0.950
2020/01/31 06:34:17.6	91.080	0.010	-0.460	0.930
2020/01/31 06:34:17.7	91.100	-0.000	-0.480	0.920
2020/01/31 06:34:17.8	91.120	-0.010	-0.500	0.910
2020/01/31 06:34:17.9	91.140	-0.030	-0.510	0.900
2020/01/31 06:34:18.0	91.160	-0.040	-0.520	0.900
2020/01/31 06:34:18.1	91.170	-0.060	-0.520	0.900
2020/01/31 06:34:18.2	91.190	-0.070	-0.510	0.900
2020/01/31 06:34:18.3	91.210	-0.090	-0.510	0.900
2020/01/31 06:34:18.4	91.220	-0.110	-0.500	0.910
2020/01/31 06:34:18.5	91.230	-0.130	-0.490	0.920
2020/01/31 06:34:18.6	91.230	-0.160	-0.470	0.930
2020/01/31 06:34:18.7	91.240	-0.180	-0.450	0.950
2020/01/31 06:34:18.8	91.240	-0.200	-0.430	0.960
2020/01/31 06:34:18.9	91.250	-0.230	-0.410	0.980
2020/01/31 06:34:19.0	91.250	-0.250	-0.390	1.000
2020/01/31 06:34:19.1	91.250	-0.270	-0.370	1.020
2020/01/31 06:34:19.2	91.240	-0.300	-0.350	1.040
2020/01/31 06:34:19.3	91.240	-0.320	-0.330	1.060
2020/01/31 06:34:19.4	91.240	-0.340	-0.310	1.070
2020/01/31 06:34:19.5	91.240	-0.360	-0.290	1.090
2020/01/31 06:34:19.6	91.240	-0.380	-0.270	1.110
2020/01/31 06:34:19.7	91.230	-0.390	-0.260	1.120
2020/01/31 06:34:19.8	91.230	-0.410	-0.250	1.140
2020/01/31 06:34:19.9	91.230	-0.420	-0.240	1.150
2020/01/31 06:34:20.0	91.220	-0.430	-0.230	1.170
2020/01/31 06:34:20.1	91.220	-0.430	-0.230	1.180
2020/01/31 06:34:20.2	91.220	-0.440	-0.220	1.190
2020/01/31 06:34:20.3	91.210	-0.440	-0.220	1.200
2020/01/31 06:34:20.4	91.210	-0.440	-0.220	1.210
2020/01/31 06:34:20.5	91.200	-0.440	-0.220	1.220
2020/01/31 06:34:20.6	91.190	-0.440	-0.220	1.230
2020/01/31 06:34:20.7	91.180	-0.430	-0.220	1.230
2020/01/31 06:34:20.8	91.170	-0.420	-0.230	1.240
2020/01/31 06:34:20.9	91.160	-0.410	-0.230	1.250
2020/01/31 06:34:21.0	91.150	-0.400	-0.230	1.250
2020/01/31 06:34:21.1	91.140	-0.390	-0.230	1.260
2020/01/31 06:34:21.2	91.130	-0.380	-0.240	1.270
2020/01/31 06:34:21.3	91.110	-0.370	-0.230	1.270
2020/01/31 06:34:21.4	91.100	-0.350	-0.230	1.280
2020/01/31 06:34:21.5	91.080	-0.340	-0.230	1.280
2020/01/31 06:34:21.6	91.070	-0.330	-0.220	1.290
2020/01/31 06:34:21.7	91.050	-0.320	-0.220	1.290
2020/01/31 06:34:21.8	91.030	-0.300	-0.210	1.290
2020/01/31 06:34:21.9	91.020	-0.290	-0.200	1.300
2020/01/31 06:34:22.0	91.000	-0.280	-0.190	1.300
2020/01/31 06:34:22.1	90.980	-0.270	-0.180	1.300
2020/01/31 06:34:22.2	90.970	-0.260	-0.160	1.300
2020/01/31 06:34:22.3	90.950	-0.250	-0.150	1.290
2020/01/31 06:34:22.4	90.930	-0.250	-0.130	1.280
2020/01/31 06:34:22.5	90.910	-0.240	-0.120	1.270
2020/01/31 06:34:22.6	90.900	-0.240	-0.100	1.260
2020/01/31 06:34:22.7	90.880	-0.230	-0.090	1.250
2020/01/31 06:34:22.8	90.860	-0.230	-0.080	1.230
2020/01/31 06:34:22.9	90.850	-0.230	-0.070	1.210
2020/01/31 06:34:23.0	90.830	-0.230	-0.060	1.190
2020/01/31 06:34:23.1	90.820	-0.230	-0.050	1.160
2020/01/31 06:34:23.2	90.810	-0.230	-0.040	1.140
2020/01/31 06:34:23.3	90.790	-0.230	-0.040	1.110
2020/01/31 06:34:23.4	90.780	-0.230	-0.030	1.070
2020/01/31 06:34:23.5	90.770	-0.230	-0.030	1.040
2020/01/31 06:34:23.6	90.760	-0.220	-0.040	1.000
2020/01/31 06:34:23.7	90.750	-0.220	-0.040	0.960
2020/01/31 06:34:23.8	90.740	-0.220	-0.050	0.920
2020/01/31 06:34:23.9	90.740	-0.220	-0.060	0.870
2020/01/31 06:34:24.0	90.730	-0.210	-0.070	0.830
2020/01/31 06:34:24.1	90.730	-0.210	-0.090	0.780
2020/01/31 06:34:24.2	90.720	-0.200	-0.110	0.730
2020/01/31 06:34:24.3	90.720	-0.190	-0.130	0.680
2020/01/31 06:34:24.4	90.720	-0.180	-0.150	0.640
2020/01/31 06:34:24.5	90.720	-0.170	-0.170	0.590
2020/01/31 06:34:24.6	90.730	-0.160	-0.200	0.540
2020/01/31 06:34:24.7	90.730	-0.140	-0.220	0.490
2020/01/31 06:34:24.8	90.740	-0.120	-0.250	0.440
2020/01/31 06:34:24.9	90.750	-0.100	-0.280	0.390
2020/01/31 06:34:25.0	90.760	-0.080	-0.310	0.340
2020/01/31 06:34:25.1	90.770	-0.060	-0.330	0.290
2020/01/31 06:34:25.2	90.770	-0.030	-0.370	0.250
2020/01/31 06:34:25.3	90.780	-0.010	-0.390	0.200
2020/01/31 06:34:25.4	90.790	0.020	-0.420	0.150
2020/01/31 06:34:25.5	90.800	0.050	-0.440	0.110
2020/01/31 06:34:25.6	90.820	0.070	-0.460	0.070
2020/01/31 06:34:25.7	90.830	0.100	-0.480	0.020
2020/01/31 06:34:25.8	90.840	0.130	-0.500	-0.020
2020/01/31 06:34:25.9	90.860	0.160	-0.520	-0.060
2020/01/31 06:34:26.0	90.870	0.190	-0.530	-0.100
2020/01/31 06:34:26.1	90.890	0.230	-0.540	-0.140
2020/01/31 06:34:26.2	90.900	0.260	-0.550	-0.180
2020/01/31 06:34:26.3	90.910	0.280	-0.550	-0.220
2020/01/31 06:34:26.4	90.920	0.310	-0.560	-0.250
2020/01/31 06:34:26.5	90.930	0.340	-0.560	-0.290
2020/01/31 06:34:26.6	90.940	0.370	-0.560	-0.320
2020/01/31 06:34:26.7	90.950	0.390	-0.550	-0.350
2020/01/31 06:34:26.8	90.960	0.420	-0.540	-0.390
2020/01/31 06:34:26.9	90.970	0.440	-0.530	-0.420
2020/01/31 06:34:27.0	90.980	0.460	-0.520	-0.440
2020/01/31 06:34:27.1	90.990	0.480	-0.500	-0.470
2020/01/31 06:34:27.2	90.990	0.500	-0.490	-0.490
2020/01/31 06:34:27.3	91.000	0.510	-0.460	-0.510
2020/01/31 06:34:27.4	91.000	0.530	-0.440	-0.530
2020/01/31 06:34:27.5	91.000	0.540	-0.410	-0.550
2020/01/31 06:34:27.6	91.000	0.550	-0.380	-0.560
2020/01/31 06:34:27.7	91.000	0.550	-0.350	-0.570
2020/01/31 06:34:27.8	90.990	0.560	-0.320	-0.570
2020/01/31 06:34:27.9	90.990	0.560	-0.290	-0.580
2020/01/31 06:34:28.0	90.980	0.560	-0.250	-0.570
2020/01/31 06:34:28.1	90.970	0.560	-0.210	-0.570
2020/01/31 06:34:28.2	90.970	0.550	-0.170	-0.550
2020/01/31 06:34:28.3	90.960	0.550	-0.130	-0.540
2020/01/31 06:34:28.4	90.950	0.540	-0.100	-0.520
2020/01/31 06:34:28.5	90.930	0.530	-0.060	-0.490
2020/01/31 06:34:28.6	90.920	0.520	-0.020	-0.470
2020/01/31 06:34:28.7	90.900	0.510	0.020	-0.430
2020/01/31 06:34:28.8	90.880	0.500	0.060	-0.400
2020/01/31 06:34:28.9	90.870	0.480	0.100	-0.350
2020/01/31 06:34:29.0	90.850	0.470	0.130	-0.310
2020/01/31 06:34:29.1	90.830	0.460	0.170	-0.260
2020/01/31 06:34:29.2	90.810	0.440	0.200	-0.210
2020/01/31 06:34:29.3	90.790	0.430	0.240	-0.150
2020/01/31 06:34:29.4	90.770	0.410	0.260	-0.100
2020/01/31 06:34:29.5	90.750	0.400	0.290	-0.040
2020/01/31 06:34:29.6	90.730	0.380	0.310	0.020
2020/01/31 06:34:29.7	90.720	0.370	0.330	0.070
2020/01/31 06:34:29.8	90.700	0.350	0.350	0.130
2020/01/31 06:34:29.9	90.680	0.340	0.370	0.190
2020/01/31 06:34:30.0	90.670	0.320	0.370	0.250
2020/01/31 06:34:30.1	90.660	0.310	0.380	0.300
2020/01/31 06:34:30.2	90.640	0.300	0.380	0.360
2020/01/31 06:34:30.3	90.630	0.290	0.380	0.410
2020/01/31 06:34:30.4	90.620	0.280	0.370	0.460
2020/01/31 06:34:30.5	90.620	0.270	0.360	0.500
2020/01/31 06:34:30.6	90.620	0.260	0.340	0.550
2020/01/31 06:34:30.7	90.620	0.250	0.320	0.590
2020/01/31 06:34:30.8	90.620	0.240	0.290	0.630
2020/01/31 06:34:30.9	90.630	0.240	0.270	0.660
2020/01/31 06:34:31.0	90.630	0.230	0.240	0.700
2020/01/31 06:34:31.1	90.640	0.220	0.200	0.730
2020/01/31 06:34:31.2	90.670	0.220	0.170	0.760
2020/01/31 06:34:31.3	90.680	0.210	0.130	0.790
2020/01/31 06:34:31.4	90.690	0.200	0.090	0.810
2020/01/31 06:34:31.5	90.710	0.200	0.040	0.840
2020/01/31 06:34:31.6	90.720	0.190	0.000	0.860
2020/01/31 06:34:31.7	90.740	0.190	-0.040	0.890
2020/01/31 06:34:31.8	90.760	0.180	-0.080	0.910
2020/01/31 06:34:31.9	90.770	0.170	-0.130	0.930
2020/01/31 06:34:32.0	90.790	0.170	-0.170	0.960
2020/01/31 06:34:32.1	90.810	0.160	-0.210	0.980
2020/01/31 06:34:32.2	90.840	0.150	-0.250	1.010
2020/01/31 06:34:32.3	90.860	0.140	-0.290	1.030
2020/01/31 06:34:32.4	90.870	0.130	-0.320	1.060
2020/01/31 06:34:32.5	90.890	0.120	-0.350	1.090
2020/01/31 06:34:32.6	90.910	0.110	-0.380	1.110
2020/01/31 06:34:32.7	90.920	0.100	-0.410	1.150
2020/01/31 06:34:32.8	90.940	0.090	-0.430	1.180
2020/01/31 06:34:32.9	90.950	0.070	-0.450	1.210
2020/01/31 06:34:33.0	90.970	0.060	-0.470	1.250
2020/01/31 06:34:33.1	90.980	0.040	-0.480	1.280
2020/01/31 06:34:33.2	90.990	0.030	-0.490	1.320
2020/01/31 06:34:33.3	91.000	0.010	-0.490	1.360
2020/01/31 06:34:33.4	91.010	-0.000	-0.490	1.400
2020/01/31 06:34:33.5	91.020	-0.020	-0.490	1.450
2020/01/31 06:34:33.6	91.030	-0.030	-0.490	1.490
2020/01/31 06:34:33.7	91.030	-0.050	-0.480	1.540
2020/01/31 06:34:33.8	91.040	-0.070	-0.470	1.580
2020/01/31 06:34:33.9	91.050	-0.090	-0.450	1.630
2020/01/31 06:34:34.0	91.050	-0.110	-0.440	1.680
2020/01/31 06:34:34.1	91.050	-0.130	-0.420	1.720
2020/01/31 06:34:34.2	91.050	-0.150	-0.390	1.770
2020/01/31 06:34:34.3	91.050	-0.170	-0.370	1.820
2020/01/31 06:34:34.4	91.050	-0.200	-0.340	1.860
2020/01/31 06:34:34.5	91.050	-0.220	-0.310	1.910
2020/01/31 06:34:34.6	91.040	-0.240	-0.280	1.960
2020/01/31 06:34:34.7	91.040	-0.270	-0.250	2.000
2020/01/31 06:34:34.8	91.030	-0.290	-0.220	2.040
2020/01/31 06:34:34.9	91.030	-0.320	-0.190	2.080
2020/01/31 06:34:35.0	91.020	-0.350	-0.160	2.120
2020/01/31 06:34:35.1	91.010	-0.370	-0.120	2.160
2020/01/31 06:34:35.2	91.010	-0.400	-0.090	2.190
2020/01/31 06:34:35.3	91.000	-0.430	-0.060	2.230
2020/01/31 06:34:35.4	90.990	-0.450	-0.030	2.250
2020/01/31 06:34:35.5	90.970	-0.480	-0.010	2.280
2020/01/31 06:34:35.6	90.960	-0.500	0.020	2.310
2020/01/31 06:34:35.7	90.950	-0.530	0.040	2.330
2020/01/31 06:34:35.8	90.930	-0.550	0.070	2.340
2020/01/31 06:34:35.9	90.920	-0.580	0.080	2.360
2020/01/31 06:34:36.0	90.900	-0.600	0.100	2.370
2020/01/31 06:34:36.1	90.890	-0.620	0.120	2.370
2020/01/31 06:34:36.2	90.880	-0.640	0.130	2.370
2020/01/31 06:34:36.3	90.860	-0.660	0.140	2.370
2020/01/31 06:34:36.4	90.850	-0.680	0.140	2.370
2020/01/31 06:34:36.5	90.830	-0.690	0.150	2.360
2020/01/31 06:34:36.6	90.820	-0.710	0.150	2.340
2020/01/31 06:34:36.7	90.810	-0.720	0.150	2.320
2020/01/31 06:34:36.8	90.800	-0.720	0.140	2.300
2020/01/31 06:34:36.9	90.790	-0.730	0.140	2.270
2020/01/31 06:34:37.0	90.790	-0.730	0.130	2.230
2020/01/31 06:34:37.1	90.780	-0.730	0.120	2.190
2020/01/31 06:34:37.2	90.790	-0.730	0.100	2.150
2020/01/31 06:34:37.3	90.790	-0.730	0.090	2.100
2020/01/31 06:34:37.4	90.790	-0.720	0.070	2.040
2020/01/31 06:34:37.5	90.790	-0.710	0.050	1.980
2020/01/31 06:34:37.6	90.790	-0.690	0.020	1.910
2020/01/31 06:34:37.7	90.790	-0.680	-0.000	1.840
2020/01/31 06:34:37.8	90.800	-0.650	-0.030	1.770
2020/01/31 06:34:37.9	90.810	-0.630	-0.060	1.690
2020/01/31 06:34:38.0	90.810	-0.610	-0.090	1.610
2020/01/31 06:34:38.1	90.820	-0.580	-0.120	1.520
2020/01/31 06:34:38.2	90.820	-0.550	-0.160	1.440
2020/01/31 06:34:38.3	90.830	-0.510	-0.190	1.350
2020/01/31 06:34:38.4	90.840	-0.480	-0.230	1.250
2020/01/31 06:34:38.5	90.850	-0.440	-0.260	1.160
2020/01/31 06:34:38.6	90.860	-0.400	-0.300	1.070
2020/01/31 06:34:38.7	90.870	-0.360	-0.330	0.970
2020/01/31 06:34:38.8	90.870	-0.320	-0.370	0.880
2020/01/31 06:34:38.9	90.880	-0.270	-0.400	0.780
2020/01/31 06:34:39.0	90.890	-0.230	-0.440	0.690
2020/01/31 06:34:39.1	90.890	-0.180	-0.470	0.600
2020/01/31 06:34:39.2	90.900	-0.140	-0.500	0.500
2020/01/31 06:34:39.3	90.900	-0.100	-0.520	0.410
2020/01/31 06:34:39.4	90.900	-0.050	-0.550	0.330
2020/01/31 06:34:39.5	90.890	-0.010	-0.570	0.240
2020/01/31 06:34:39.6	90.890	0.030	-0.580	0.160
2020/01/31 06:34:39.7	90.880	0.070	-0.600	0.080
2020/01/31 06:34:39.8	90.880	0.110	-0.610	-0.000
2020/01/31 06:34:39.9	90.870	0.150	-0.610	-0.080
2020/01/31 06:34:40.0	90.850	0.180	-0.620	-0.150
2020/01/31 06:34:40.1	90.840	0.210	-0.620	-0.220
2020/01/31 06:34:40.2	90.820	0.240	-0.610	-0.290
2020/01/31 06:34:40.3	90.800	0.270	-0.600	-0.360
2020/01/31 06:34:40.4	90.790	0.290	-0.590	-0.420
2020/01/31 06:34:40.5	90.770	0.320	-0.580	-0.480
2020/01/31 06:34:40.6	90.750	0.340	-0.560	-0.540
2020/01/31 06:34:40.7	90.730	0.350	-0.540	-0.600
2020/01/31 06:34:40.8	90.720	0.370	-0.510	-0.650
2020/01/31 06:34:40.9	90.700	0.380	-0.490	-0.700
2020/01/31 06:34:41.0	90.680	0.390	-0.460	-0.750
2020/01/31 06:34:41.1	90.670	0.390	-0.440	-0.800
2020/01/31 06:34:41.2	90.650	0.400	-0.410	-0.850
2020/01/31 06:34:41.3	90.640	0.400	-0.380	-0.890
2020/01/31 06:34:41.4	90.630	0.400	-0.350	-0.930
2020/01/31 06:34:41.5	90.630	0.410	-0.330	-0.970
2020/01/31 06:34:41.6	90.620	0.400	-0.300	-1.000
2020/01/31 06:34:41.7	90.620	0.400	-0.280	-1.040
2020/01/31 06:34:41.8	90.620	0.400	-0.250	-1.070
2020/01/31 06:34:41.9	90.620	0.400	-0.230	-1.090
2020/01/31 06:34:42.0	90.620	0.390	-0.220	-1.120
2020/01/31 06:34:42.1	90.630	0.390	-0.200	-1.130
2020/01/31 06:34:42.2	90.640	0.390	-0.180	-1.140
2020/01/31 06:34:42.3	90.640	0.390	-0.170	-1.160
2020/01/31 06:34:42.4	90.650	0.380	-0.160	-1.160
2020/01/31 06:34:42.5	90.670	0.380	-0.150	-1.170
2020/01/31 06:34:42.6	90.680	0.380	-0.150	-1.160
2020/01/31 06:34:42.7	90.690	0.380	-0.140	-1.160
2020/01/31 06:34:42.8	90.700	0.380	-0.140	-1.150
2020/01/31 06:34:42.9	90.720	0.390	-0.140	-1.130
2020/01/31 06:34:43.0	90.730	0.390	-0.140	-1.120
2020/01/31 06:34:43.1	90.750	0.390	-0.140	-1.090
2020/01/31 06:34:43.2	90.750	0.400	-0.140	-1.070
2020/01/31 06:34:43.3	90.770	0.400	-0.140	-1.040
2020/01/31 06:34:43.4	90.790	0.410	-0.140	-1.000
2020/01/31 06:34:43.5	90.800	0.410	-0.140	-0.960
2020/01/31 06:34:43.6	90.810	0.420	-0.140	-0.920
2020/01/31 06:34:43.7	90.830	0.420	-0.140	-0.880
2020/01/31 06:34:43.8	90.840	0.430	-0.140	-0.830
2020/01/31 06:34:43.9	90.850	0.430	-0.130	-0.780
2020/01/31 06:34:44.0	90.870	0.440	-0.130	-0.730
2020/01/31 06:34:44.1	90.880	0.440	-0.120	-0.680
2020/01/31 06:34:44.2	90.880	0.440	-0.120	-0.620
2020/01/31 06:34:44.3	90.890	0.440	-0.110	-0.560
2020/01/31 06:34:44.4	90.900	0.440	-0.090	-0.500
2020/01/31 06:34:44.5	90.900	0.440	-0.080	-0.430
2020/01/31 06:34:44.6	90.900	0.440	-0.070	-0.370
2020/01/31 06:34:44.7	90.900	0.430	-0.050	-0.300
2020/01/31 06:34:44.8	90.900	0.430	-0.030	-0.240
2020/01/31 06:34:44.9	90.900	0.420	-0.010	-0.170
2020/01/31 06:34:45.0	90.900	0.410	0.010	-0.100
2020/01/31 06:34:45.1	90.890	0.400	0.040	-0.030
2020/01/31 06:34:45.2	90.880	0.380	0.060	0.050
2020/01/31 06:34:45.3	90.870	0.370	0.090	0.120
2020/01/31 06:34:45.4	90.860	0.350	0.120	0.190
2020/01/31 06:34:45.5	90.850	0.330	0.140	0.270
2020/01/31 06:34:45.6	90.840	0.310	0.170	0.340
2020/01/31 06:34:45.7	90.830	0.290	0.200	0.410
2020/01/31 06:34:45.8	90.810	0.260	0.220	0.490
2020/01/31 06:34:45.9	90.800	0.240	0.250	0.560
2020/01/31 06:34:46.0	90.780	0.210	0.270	0.640
2020/01/31 06:34:46.1	90.770	0.180	0.300	0.710
2020/01/31 06:34:46.2	90.760	0.150	0.320	0.790
2020/01/31 06:34:46.3	90.750	0.120	0.340	0.860
2020/01/31 06:34:46.4	90.730	0.100	0.360	0.940
2020/01/31 06:34:46.5	90.720	0.070	0.370	1.010
2020/01/31 06:34:46.6	90.710	0.040	0.380	1.080
2020/01/31 06:34:46.7	90.700	0.010	0.390	1.160
2020/01/31 06:34:46.8	90.690	-0.010	0.390	1.230
2020/01/31 06:34:46.9	90.690	-0.040	0.390	1.300
2020/01/31 06:34:47.0	90.680	-0.060	0.380	1.370
2020/01/31 06:34:47.1	90.680	-0.090	0.370	1.440
2020/01/31 06:34:47.2	90.680	-0.110	0.360	1.510
2020/01/31 06:34:47.3	90.680	-0.120	0.340	1.570
2020/01/31 06:34:47.4	90.690	-0.140	0.320	1.640
2020/01/31 06:34:47.5	90.700	-0.150	0.290	1.700
2020/01/31 06:34:47.6	90.700	-0.160	0.250	1.760
2020/01/31 06:34:47.7	90.720	-0.170	0.210	1.820
2020/01/31 06:34:47.8	90.730	-0.180	0.170	1.870
2020/01/31 06:34:47.9	90.740	-0.180	0.120	1.920
2020/01/31 06:34:48.0	90.760	-0.180	0.070	1.970
2020/01/31 06:34:48.1	90.780	-0.170	0.010	2.010
2020/01/31 06:34:48.2	90.800	-0.170	-0.050	2.050
2020/01/31 06:34:48.3	90.820	-0.160	-0.110	2.090
2020/01/31 06:34:48.4	90.840	-0.150	-0.180	2.120
2020/01/31 06:34:48.5	90.870	-0.140	-0.240	2.160
2020/01/31 06:34:48.6	90.890	-0.120	-0.310	2.180
2020/01/31 06:34:48.7	90.910	-0.110	-0.380	2.210
2020/01/31 06:34:48.8	90.940	-0.090	-0.450	2.230
2020/01/31 06:34:48.9	90.960	-0.070	-0.510	2.250
2020/01/31 06:34:49.0	90.980	-0.050	-0.580	2.270
2020/01/31 06:34:49.1	91.000	-0.030	-0.640	2.290
2020/01/31 06:34:49.2	91.020	-0.010	-0.700	2.300
2020/01/31 06:34:49.3	91.040	0.010	-0.750	2.310
2020/01/31 06:34:49.4	91.060	0.020	-0.810	2.320
2020/01/31 06:34:49.5	91.080	0.040	-0.850	2.330
2020/01/31 06:34:49.6	91.090	0.060	-0.890	2.340
2020/01/31 06:34:49.7	91.110	0.070	-0.930	2.340
2020/01/31 06:34:49.8	91.120	0.080	-0.950	2.350
2020/01/31 06:34:49.9	91.140	0.090	-0.980	2.350
2020/01/31 06:34:50.0	91.150	0.100	-0.990	2.350
2020/01/31 06:34:50.1	91.160	0.100	-1.000	2.350
2020/01/31 06:34:50.2	91.180	0.100	-1.000	2.350
2020/01/31 06:34:50.3	91.190	0.090	-0.990	2.350
2020/01/31 06:34:50.4	91.190	0.090	-0.980	2.340
2020/01/31 06:34:50.5	91.200	0.080	-0.960	2.340
2020/01/31 06:34:50.6	91.200	0.060	-0.930	2.340
2020/01/31 06:34:50.7	91.210	0.040	-0.890	2.330
2020/01/31 06:34:50.8	91.210	0.020	-0.850	2.330
2020/01/31 06:34:50.9	91.210	-0.000	-0.800	2.320
2020/01/31 06:34:51.0	91.200	-0.030	-0.750	2.320
2020/01/31 06:34:51.1	91.200	-0.060	-0.690	2.310
2020/01/31 06:34:51.2	91.200	-0.100	-0.620	2.300
2020/01/31 06:34:51.3	91.190	-0.130	-0.550	2.290
2020/01/31 06:34:51.4	91.180	-0.170	-0.480	2.280
2020/01/31 06:34:51.5	91.170	-0.210	-0.400	2.270
2020/01/31 06:34:51.6	91.150	-0.260	-0.320	2.260
2020/01/31 06:34:51.7	91.130	-0.300	-0.240	2.250
2020/01/31 06:34:51.8	91.120	-0.350	-0.160	2.230
2020/01/31 06:34:51.9	91.100	-0.390	-0.070	2.220
2020/01/31 06:34:52.0	91.070	-0.440	0.010	2.200
2020/01/31 06:34:52.1	91.050	-0.480	0.090	2.170
2020/01/31 06:34:52.2	91.030	-0.530	0.170	2.150
2020/01/31 06:34:52.3	91.000	-0.570	0.250	2.120
2020/01/31 06:34:52.4	90.980	-0.620	0.330	2.090
2020/01/31 06:34:52.5	90.950	-0.660	0.400	2.050
2020/01/31 06:34:52.6	90.920	-0.690	0.460	2.010
2020/01/31 06:34:52.7	90.900	-0.730	0.530	1.970
2020/01/31 06:34:52.8	90.870	-0.760	0.580	1.920
2020/01/31 06:34:52.9	90.850	-0.790	0.630	1.870
2020/01/31 06:34:53.0	90.820	-0.810	0.680	1.810
2020/01/31 06:34:53.1	90.800	-0.830	0.710	1.750
2020/01/31 06:34:53.2	90.790	-0.850	0.740	1.680
2020/01/31 06:34:53.3	90.770	-0.860	0.760	1.610
2020/01/31 06:34:53.4	90.750	-0.870	0.770	1.530
2020/01/31 06:34:53.5	90.730	-0.870	0.770	1.450
2020/01/31 06:34:53.6	90.720	-0.860	0.760	1.370
2020/01/31 06:34:53.7	90.710	-0.850	0.750	1.280
2020/01/31 06:34:53.8	90.700	-0.840	0.720	1.180
2020/01/31 06:34:53.9	90.690	-0.820	0.690	1.080
2020/01/31 06:34:54.0	90.690	-0.790	0.650	0.980
2020/01/31 06:34:54.1	90.690	-0.760	0.600	0.870
2020/01/31 06:34:54.2	90.670	-0.720	0.540	0.760
2020/01/31 06:34:54.3	90.670	-0.680	0.480	0.650
2020/01/31 06:34:54.4	90.670	-0.640	0.410	0.540
2020/01/31 06:34:54.5	90.680	-0.590	0.340	0.420
2020/01/31 06:34:54.6	90.690	-0.540	0.260	0.300
2020/01/31 06:34:54.7	90.690	-0.480	0.180	0.190
2020/01/31 06:34:54.8	90.700	-0.430	0.090	0.070
2020/01/31 06:34:54.9	90.710	-0.370	0.000	-0.050
2020/01/31 06:34:55.0	90.730	-0.300	-0.080	-0.170
2020/01/31 06:34:55.1	90.740	-0.240	-0.170	-0.290
2020/01/31 06:34:55.2	90.740	-0.180	-0.260	-0.400
2020/01/31 06:34:55.3	90.760	-0.110	-0.340	-0.510
2020/01/31 06:34:55.4	90.770	-0.050	-0.430	-0.630
2020/01/31 06:34:55.5	90.790	0.010	-0.510	-0.730
2020/01/31 06:34:55.6	90.800	0.070	-0.580	-0.830
2020/01/31 06:34:55.7	90.820	0.130	-0.650	-0.930
2020/01/31 06:34:55.8	90.830	0.190	-0.720	-1.030
2020/01/31 06:34:55.9	90.840	0.240	-0.780	-1.120
2020/01/31 06:34:56.0	90.860	0.300	-0.830	-1.210
2020/01/31 06:34:56.1	90.870	0.340	-0.870	-1.290
2020/01/31 06:34:56.2	90.890	0.390	-0.910	-1.360
2020/01/31 06:34:56.3	90.900	0.430	-0.940	-1.430
2020/01/31 06:34:56.4	90.910	0.460	-0.960	-1.500
2020/01/31 06:34:56.5	90.920	0.490	-0.980	-1.560
2020/01/31 06:34:56.6	90.920	0.520	-0.980	-1.620
2020/01/31 06:34:56.7	90.930	0.540	-0.980	-1.670
2020/01/31 06:34:56.8	90.930	0.560	-0.970	-1.710
2020/01/31 06:34:56.9	90.940	0.570	-0.950	-1.750
2020/01/31 06:34:57.0	90.940	0.580	-0.920	-1.790
2020/01/31 06:34:57.1	90.940	0.580	-0.880	-1.820
2020/01/31 06:34:57.2	90.940	0.580	-0.840	-1.840
2020/01/31 06:34:57.3	90.940	0.570	-0.790	-1.860
2020/01/31 06:34:57.4	90.930	0.560	-0.740	-1.870
2020/01/31 06:34:57.5	90.930	0.550	-0.680	-1.880
2020/01/31 06:34:57.6	90.920	0.530	-0.620	-1.890
2020/01/31 06:34:57.7	90.910	0.510	-0.560	-1.880
2020/01/31 06:34:57.8	90.910	0.490	-0.490	-1.880
2020/01/31 06:34:57.9	90.900	0.470	-0.420	-1.860
2020/01/31 06:34:58.0	90.890	0.440	-0.360	-1.840
2020/01/31 06:34:58.1	90.880	0.410	-0.290	-1.820
2020/01/31 06:34:58.2	90.860	0.380	-0.220	-1.780
2020/01/31 06:34:58.3	90.840	0.350	-0.160	-1.750
2020/01/31 06:34:58.4	90.830	0.320	-0.100	-1.710
2020/01/31 06:34:58.5	90.810	0.300	-0.040	-1.660
2020/01/31 06:34:58.6	90.800	0.270	0.010	-1.610
2020/01/31 06:34:58.7	90.780	0.240	0.060	-1.550
2020/01/31 06:34:58.8	90.770	0.220	0.100	-1.490
2020/01/31 06:34:58.9	90.750	0.190	0.140	-1.420
2020/01/31 06:34:59.0	90.730	0.170	0.170	-1.350
2020/01/31 06:34:59.1	90.720	0.160	0.200	-1.270
2020/01/31 06:34:59.2	90.690	0.140	0.220	-1.190
2020/01/31 06:34:59.3	90.670	0.130	0.240	-1.110
2020/01/31 06:34:59.4	90.660	0.120	0.240	-1.020
2020/01/31 06:34:59.5	90.650	0.110	0.250	-0.930
2020/01/31 06:34:59.6	90.630	0.110	0.240	-0.840
2020/01/31 06:34:59.7	90.620	0.110	0.230	-0.740
2020/01/31 06:34:59.8	90.620	0.110	0.220	-0.640
2020/01/31 06:34:59.9	90.610	0.120	0.200	-0.540
2020/01/31 06:35:00.0	90.600	0.120	0.180	-0.440
2020/01/31 06:35:00.1	90.600	0.130	0.150	-0.330
2020/01/31 06:35:00.2	90.600	0.150	0.120	-0.220
2020/01/31 06:35:00.3	90.600	0.160	0.090	-0.120
2020/01/31 06:35:00.4	90.600	0.180	0.050	-0.010
2020/01/31 06:35:00.5	90.600	0.200	0.010	0.110
2020/01/31 06:35:00.6	90.600	0.210	-0.030	0.220
2020/01/31 06:35:00.7	90.600	0.230	-0.070	0.330
2020/01/31 06:35:00.8	90.610	0.260	-0.110	0.440
2020/01/31 06:35:00.9	90.610	0.280	-0.150	0.550
2020/01/31 06:35:01.0	90.620	0.300	-0.190	0.670
2020/01/31 06:35:01.1	90.620	0.320	-0.230	0.780
2020/01/31 06:35:01.2	90.630	0.340	-0.270	0.900
2020/01/31 06:35:01.3	90.640	0.360	-0.310	1.000
2020/01/31 06:35:01.4	90.650	0.380	-0.340	1.110
2020/01/31 06:35:01.5	90.660	0.390	-0.380	1.210
2020/01/31 06:35:01.6	90.670	0.410	-0.410	1.310
2020/01/31 06:35:01.7	90.680	0.420	-0.430	1.410
2020/01/31 06:35:01.8	90.680	0.430	-0.460	1.510
2020/01/31 06:35:01.9	90.690	0.440	-0.480	1.600
2020/01/31 06:35:02.0	90.700	0.450	-0.490	1.690
2020/01/31 06:35:02.1	90.710	0.450	-0.510	1.770
2020/01/31 06:35:02.2	90.720	0.460	-0.510	1.840
2020/01/31 06:35:02.3	90.730	0.460	-0.520	1.920
2020/01/31 06:35:02.4	90.740	0.450	-0.520	1.990
2020/01/31 06:35:02.5	90.750	0.450	-0.510	2.060
2020/01/31 06:35:02.6	90.760	0.440	-0.500	2.130
2020/01/31 06:35:02.7	90.770	0.430	-0.490	2.190
2020/01/31 06:35:02.8	90.780	0.420	-0.470	2.250
2020/01/31 06:35:02.9	90.780	0.400	-0.440	2.310
2020/01/31 06:35:03.0	90.790	0.390	-0.420	2.370
2020/01/31 06:35:03.1	90.790	0.360	-0.380	2.420
2020/01/31 06:35:03.2	90.810	0.340	-0.350	2.480
2020/01/31 06:35:03.3	90.820	0.320	-0.310	2.530
2020/01/31 06:35:03.4	90.820	0.290	-0.260	2.570
2020/01/31 06:35:03.5	90.820	0.260	-0.220	2.620
2020/01/31 06:35:03.6	90.820	0.230	-0.170	2.660
2020/01/31 06:35:03.7	90.820	0.200	-0.120	2.700
2020/01/31 06:35:03.8	90.820	0.170	-0.070	2.740
2020/01/31 06:35:03.9	90.820	0.130	-0.020	2.780
2020/01/31 06:35:04.0	90.820	0.100	0.040	2.810
2020/01/31 06:35:04.1	90.820	0.060	0.090	2.840
2020/01/31 06:35:04.2	90.830	0.030	0.150	2.870
2020/01/31 06:35:04.3	90.830	-0.010	0.200	2.890
2020/01/31 06:35:04.4	90.830	-0.040	0.240	2.920
2020/01/31 06:35:04.5	90.830	-0.080	0.290	2.930
2020/01/31 06:35:04.6	90.830	-0.120	0.330	2.950
2020/01/31 06:35:04.7	90.830	-0.150	0.370	2.960
2020/01/31 06:35:04.8	90.830	-0.180	0.410	2.970
2020/01/31 06:35:04.9	90.830	-0.210	0.440	2.970
2020/01/31 06:35:05.0	90.830	-0.250	0.470	2.970
2020/01/31 06:35:05.1	90.830	-0.270	0.490	2.960
2020/01/31 06:35:05.2	90.840	-0.300	0.500	2.950
2020/01/31 06:35:05.3	90.840	-0.330	0.510	2.940
2020/01/31 06:35:05.4	90.840	-0.350	0.520	2.920
2020/01/31 06:35:05.5	90.840	-0.370	0.510	2.890
2020/01/31 06:35:05.6	90.840	-0.390	0.510	2.860
2020/01/31 06:35:05.7	90.850	-0.400	0.490	2.830
2020/01/31 06:35:05.8	90.850	-0.420	0.470	2.790
2020/01/31 06:35:05.9	90.860	-0.430	0.450	2.740
2020/01/31 06:35:06.0	90.860	-0.440	0.420	2.690
2020/01/31 06:35:06.1	90.870	-0.440	0.390	2.630
2020/01/31 06:35:06.2	90.890	-0.450	0.350	2.570
2020/01/31 06:35:06.3	90.890	-0.450	0.300	2.500
2020/01/31 06:35:06.4	90.900	-0.450	0.260	2.430
2020/01/31 06:35:06.5	90.910	-0.450	0.210	2.360
2020/01/31 06:35:06.6	90.920	-0.440	0.160	2.280
2020/01/31 06:35:06.7	90.930	-0.440	0.100	2.190
2020/01/31 06:35:06.8	90.950	-0.430	0.050	2.110
2020/01/31 06:35:06.9	90.960	-0.420	-0.010	2.020
2020/01/31 06:35:07.0	90.970	-0.410	-0.070	1.930
2020/01/31 06:35:07.1	90.990	-0.400	-0.130	1.840
2020/01/31 06:35:07.2	91.010	-0.390	-0.190	1.740
2020/01/31 06:35:07.3	91.020	-0.380	-0.240	1.650
2020/01/31 06:35:07.4	91.040	-0.370	-0.300	1.550
2020/01/31 06:35:07.5	91.050	-0.350	-0.350	1.460
2020/01/31 06:35:07.6	91.070	-0.340	-0.400	1.370
2020/01/31 06:35:07.7	91.080	-0.330	-0.450	1.270
2020/01/31 06:35:07.8	91.100	-0.310	-0.500	1.180
2020/01/31 06:35:07.9	91.110	-0.300	-0.540	1.090
2020/01/31 06:35:08.0	91.120	-0.290	-0.580	1.010
2020/01/31 06:35:08.1	91.130	-0.280	-0.610	0.920
2020/01/31 06:35:08.2	91.110	-0.270	-0.650	0.830
2020/01/31 06:35:08.3	91.120	-0.260	-0.670	0.750
2020/01/31 06:35:08.4	91.120	-0.250	-0.700	0.670
2020/01/31 06:35:08.5	91.130	-0.240	-0.710	0.590
2020/01/31 06:35:08.6	91.130	-0.240	-0.730	0.520
2020/01/31 06:35:08.7	91.130	-0.230	-0.740	0.440
2020/01/31 06:35:08.8	91.120	-0.230	-0.740	0.370
2020/01/31 06:35:08.9	91.120	-0.230	-0.750	0.300
2020/01/31 06:35:09.0	91.110	-0.220	-0.740	0.230
2020/01/31 06:35:09.1	91.100	-0.220	-0.730	0.160
2020/01/31 06:35:09.2	91.080	-0.220	-0.720	0.100
2020/01/31 06:35:09.3	91.070	-0.220	-0.700	0.030
2020/01/31 06:35:09.4	91.050	-0.230	-0.690	-0.030
2020/01/31 06:35:09.5	91.040	-0.230	-0.660	-0.080
2020/01/31 06:35:09.6	91.020	-0.230	-0.640	-0.140
2020/01/31 06:35:09.7	91.010	-0.230	-0.610	-0.190
2020/01/31 06:35:09.8	90.990	-0.240	-0.580	-0.240
2020/01/31 06:35:09.9	90.970	-0.240	-0.550	-0.290
2020/01/31 06:35:10.0	90.950	-0.240	-0.510	-0.340
2020/01/31 06:35:10.1	90.930	-0.250	-0.480	-0.380
2020/01/31 06:35:10.2	90.900	-0.250	-0.440	-0.420
2020/01/31 06:35:10.3	90.880	-0.250	-0.400	-0.460
2020/01/31 06:35:10.4	90.860	-0.250	-0.370	-0.500
2020/01/31 06:35:10.5	90.830	-0.250	-0.330	-0.530
2020/01/31 06:35:10.6	90.810	-0.250	-0.300	-0.560
2020/01/31 06:35:10.7	90.790	-0.250	-0.260	-0.590
2020/01/31 06:35:10.8	90.770	-0.250	-0.230	-0.620
2020/01/31 06:35:10.9	90.750	-0.240	-0.200	-0.640
2020/01/31 06:35:11.0	90.730	-0.240	-0.170	-0.670
2020/01/31 06:35:11.1	90.720	-0.230	-0.140	-0.690
2020/01/31 06:35:11.2	90.690	-0.220	-0.110	-0.710
2020/01/31 06:35:11.3	90.670	-0.210	-0.090	-0.720
2020/01/31 06:35:11.4	90.660	-0.200	-0.070	-0.740
2020/01/31 06:35:11.5	90.640	-0.180	-0.050	-0.750
2020/01/31 06:35:11.6	90.630	-0.170	-0.030	-0.760
2020/01/31 06:35:11.7	90.610	-0.150	-0.020	-0.770
2020/01/31 06:35:11.8	90.600	-0.130	-0.010	-0.780
2020/01/31 06:35:11.9	90.590	-0.110	-0.000	-0.790
2020/01/31 06:35:12.0	90.580	-0.090	0.010	-0.790
2020/01/31 06:35:12.1	90.570	-0.070	0.010	-0.800
2020/01/31 06:35:12.2	90.560	-0.040	0.010	-0.800
2020/01/31 06:35:12.3	90.550	-0.020	0.010	-0.800
2020/01/31 06:35:12.4	90.550	0.000	0.010	-0.800
2020/01/31 06:35:12.5	90.540	0.030	0.010	-0.800
2020/01/31 06:35:12.6	90.540	0.050	-0.000	-0.800
2020/01/31 06:35:12.7	90.540	0.080	-0.010	-0.800
2020/01/31 06:35:12.8	90.540	0.100	-0.020	-0.800
2020/01/31 06:35:12.9	90.540	0.130	-0.030	-0.790
2020/01/31 06:35:13.0	90.550	0.150	-0.040	-0.790
2020/01/31 06:35:13.1	90.550	0.170	-0.050	-0.790
2020/01/31 06:35:13.2	90.570	0.190	-0.060	-0.780
2020/01/31 06:35:13.3	90.580	0.210	-0.070	-0.780
2020/01/31 06:35:13.4	90.590	0.230	-0.090	-0.780
2020/01/31 06:35:13.5	90.600	0.240	-0.090	-0.780
2020/01/31 06:35:13.6	90.620	0.260	-0.100	-0.770
2020/01/31 06:35:13.7	90.630	0.270	-0.110	-0.770
2020/01/31 06:35:13.8	90.650	0.280	-0.120	-0.760
2020/01/31 06:35:13.9	90.670	0.290	-0.120	-0.760
2020/01/31 06:35:14.0	90.700	0.300	-0.120	-0.750
2020/01/31 06:35:14.1	90.720	0.300	-0.120	-0.740
2020/01/31 06:35:14.2	90.750	0.300	-0.120	-0.730
2020/01/31 06:35:14.3	90.780	0.300	-0.110	-0.720
2020/01/31 06:35:14.4	90.810	0.300	-0.100	-0.710
2020/01/31 06:35:14.5	90.840	0.290	-0.100	-0.690
2020/01/31 06:35:14.6	90.870	0.290	-0.080	-0.670
2020/01/31 06:35:14.7	90.910	0.280	-0.070	-0.650
2020/01/31 06:35:14.8	90.950	0.270	-0.050	-0.630
2020/01/31 06:35:14.9	90.990	0.250	-0.030	-0.600
2020/01/31 06:35:15.0	91.030	0.240	-0.010	-0.570
2020/01/31 06:35:15.1	91.070	0.230	0.010	-0.540
2020/01/31 06:35:15.2	91.100	0.210	0.030	-0.500
2020/01/31 06:35:15.3	91.140	0.190	0.060	-0.460
2020/01/31 06:35:15.4	91.180	0.180	0.080	-0.410
2020/01/31 06:35:15.5	91.210	0.160	0.100	-0.360
2020/01/31 06:35:15.6	91.250	0.140	0.120	-0.300
2020/01/31 06:35:15.7	91.280	0.130	0.150	-0.240
2020/01/31 06:35:15.8	91.310	0.110	0.170	-0.180
2020/01/31 06:35:15.9	91.340	0.090	0.190	-0.110
2020/01/31 06:35:16.0	91.370	0.080	0.200	-0.030
2020/01/31 06:35:16.1	91.390	0.060	0.220	0.040
2020/01/31 06:35:16.2	91.410	0.050	0.230	0.130
2020/01/31 06:35:16.3	91.430	0.040	0.240	0.210
2020/01/31 06:35:16.4	91.440	0.030	0.240	0.300
2020/01/31 06:35:16.5	91.450	0.020	0.240	0.400
2020/01/31 06:35:16.6	91.460	0.020	0.230	0.490
2020/01/31 06:35:16.7	91.460	0.020	0.220	0.590
2020/01/31 06:35:16.8	91.460	0.020	0.210	0.690
2020/01/31 06:35:16.9	91.460	0.020	0.190	0.790
2020/01/31 06:35:17.0	91.460	0.030	0.160	0.890
2020/01/31 06:35:17.1	91.450	0.040	0.120	0.990
2020/01/31 06:35:17.2	91.450	0.050	0.090	1.090
2020/01/31 06:35:17.3	91.440	0.070	0.040	1.190
2020/01/31 06:35:17.4	91.430	0.090	-0.010	1.290
2020/01/31 06:35:17.5	91.410	0.110	-0.070	1.390
2020/01/31 06:35:17.6	91.400	0.140	-0.140	1.490
2020/01/31 06:35:17.7	91.390	0.170	-0.210	1.580
2020/01/31 06:35:17.8	91.380	0.200	-0.280	1.670
2020/01/31 06:35:17.9	91.370	0.230	-0.360	1.750
2020/01/31 06:35:18.0	91.360	0.270	-0.440	1.830
2020/01/31 06:35:18.1	91.350	0.310	-0.520	1.910
2020/01/31 06:35:18.2	91.350	0.350	-0.610	1.990
2020/01/31 06:35:18.3	91.340	0.400	-0.700	2.060
2020/01/31 06:35:18.4	91.330	0.440	-0.780	2.140
2020/01/31 06:35:18.5	91.320	0.490	-0.870	2.200
2020/01/31 06:35:18.6	91.310	0.530	-0.950	2.270
2020/01/31 06:35:18.7	91.300	0.580	-1.030	2.330
2020/01/31 06:35:18.8	91.280	0.620	-1.100	2.390
2020/01/31 06:35:18.9	91.270	0.660	-1.170	2.450
2020/01/31 06:35:19.0	91.260	0.700	-1.230	2.510
2020/01/31 06:35:19.1	91.240	0.740	-1.280	2.570
2020/01/31 06:35:19.2	91.250	0.780	-1.330	2.620
2020/01/31 06:35:19.3	91.240	0.810	-1.360	2.680
2020/01/31 06:35:19.4	91.220	0.840	-1.390	2.730
2020/01/31 06:35:19.5	91.200	0.870	-1.400	2.770
2020/01/31 06:35:19.6	91.180	0.880	-1.400	2.820
2020/01/31 06:35:19.7	91.160	0.900	-1.390	2.860
2020/01/31 06:35:19.8	91.140	0.910	-1.370	2.900
2020/01/31 06:35:19.9	91.120	0.910	-1.330	2.930
2020/01/31 06:35:20.0	91.100	0.910	-1.280	2.950
2020/01/31 06:35:20.1	91.080	0.900	-1.220	2.980
2020/01/31 06:35:20.2	91.060	0.880	-1.140	2.990
2020/01/31 06:35:20.3	91.040	0.860	-1.060	3.000
2020/01/31 06:35:20.4	91.020	0.830	-0.960	3.010
2020/01/31 06:35:20.5	91.000	0.800	-0.860	3.010
2020/01/31 06:35:20.6	90.980	0.760	-0.740	3.000
2020/01/31 06:35:20.7	90.970	0.710	-0.620	2.980
2020/01/31 06:35:20.8	90.950	0.660	-0.490	2.960
2020/01/31 06:35:20.9	90.940	0.600	-0.350	2.930
2020/01/31 06:35:21.0	90.920	0.530	-0.210	2.890
2020/01/31 06:35:21.1	90.910	0.470	-0.070	2.840
2020/01/31 06:35:21.2	90.920	0.390	0.090	2.780
2020/01/31 06:35:21.3	90.920	0.320	0.230	2.720
2020/01/31 06:35:21.4	90.910	0.240	0.380	2.650
2020/01/31 06:35:21.5	90.900	0.160	0.520	2.580
2020/01/31 06:35:21.6	90.900	0.080	0.660	2.500
2020/01/31 06:35:21.7	90.900	-0.010	0.800	2.410
2020/01/31 06:35:21.8	90.900	-0.090	0.920	2.320
2020/01/31 06:35:21.9	90.900	-0.180	1.040	2.220
2020/01/31 06:35:22.0	90.900	-0.260	1.150	2.110
2020/01/31 06:35:22.1	90.910	-0.340	1.250	2.000
2020/01/31 06:35:22.2	90.910	-0.420	1.340	1.880
2020/01/31 06:35:22.3	90.920	-0.500	1.420	1.760
2020/01/31 06:35:22.4	90.920	-0.570	1.480	1.640
2020/01/31 06:35:22.5	90.930	-0.640	1.530	1.510
2020/01/31 06:35:22.6	90.940	-0.710	1.570	1.380
2020/01/31 06:35:22.7	90.950	-0.770	1.600	1.250
2020/01/31 06:35:22.8	90.960	-0.830	1.610	1.110
2020/01/31 06:35:22.9	90.980	-0.880	1.600	0.970
2020/01/31 06:35:23.0	90.990	-0.920	1.590	0.840
2020/01/31 06:35:23.1	91.010	-0.960	1.560	0.700
2020/01/31 06:35:23.2	91.010	-1.000	1.510	0.560
2020/01/31 06:35:23.3	91.030	-1.030	1.460	0.420
2020/01/31 06:35:23.4	91.050	-1.050	1.390	0.280
2020/01/31 06:35:23.5	91.070	-1.070	1.320	0.140
2020/01/31 06:35:23.6	91.090	-1.080	1.230	0.010
2020/01/31 06:35:23.7	91.110	-1.080	1.130	-0.120
2020/01/31 06:35:23.8	91.130	-1.090	1.030	-0.250
2020/01/31 06:35:23.9	91.150	-1.080	0.920	-0.380
2020/01/31 06:35:24.0	91.170	-1.070	0.800	-0.500
2020/01/31 06:35:24.1	91.200	-1.060	0.680	-0.620
2020/01/31 06:35:24.2	91.210	-1.040	0.550	-0.740
2020/01/31 06:35:24.3	91.230	-1.020	0.420	-0.840
2020/01/31 06:35:24.4	91.260	-1.000	0.290	-0.950
2020/01/31 06:35:24.5	91.290	-0.970	0.150	-1.040
2020/01/31 06:35:24.6	91.310	-0.940	0.020	-1.130
2020/01/31 06:35:24.7	91.340	-0.910	-0.120	-1.220
2020/01/31 06:35:24.8	91.370	-0.870	-0.250	-1.290
2020/01/31 06:35:24.9	91.390	-0.830	-0.380	-1.360
2020/01/31 06:35:25.0	91.420	-0.800	-0.510	-1.420
2020/01/31 06:35:25.1	91.450	-0.760	-0.630	-1.480
2020/01/31 06:35:25.2	91.450	-0.710	-0.750	-1.530
2020/01/31 06:35:25.3	91.480	-0.670	-0.870	-1.570
2020/01/31 06:35:25.4	91.500	-0.630	-0.970	-1.610
2020/01/31 06:35:25.5	91.520	-0.590	-1.070	-1.630
2020/01/31 06:35:25.6	91.550	-0.550	-1.170	-1.650
2020/01/31 06:35:25.7	91.570	-0.510	-1.250	-1.670
2020/01/31 06:35:25.8	91.580	-0.470	-1.330	-1.670
2020/01/31 06:35:25.9	91.600	-0.430	-1.400	-1.670
2020/01/31 06:35:26.0	91.620	-0.390	-1.460	-1.670
2020/01/31 06:35:26.1	91.630	-0.350	-1.510	-1.660
2020/01/31 06:35:26.2	91.640	-0.310	-1.550	-1.640
2020/01/31 06:35:26.3	91.650	-0.270	-1.580	-1.620
2020/01/31 06:35:26.4	91.670	-0.240	-1.600	-1.590
2020/01/31 06:35:26.5	91.670	-0.210	-1.620	-1.560
2020/01/31 06:35:26.6	91.680	-0.180	-1.620	-1.520
2020/01/31 06:35:26.7	91.690	-0.150	-1.610	-1.480
2020/01/31 06:35:26.8	91.690	-0.120	-1.600	-1.430
2020/01/31 06:35:26.9	91.700	-0.090	-1.580	-1.380
2020/01/31 06:35:27.0	91.700	-0.060	-1.550	-1.330
2020/01/31 06:35:27.1	91.700	-0.040	-1.510	-1.270
2020/01/31 06:35:27.2	91.690	-0.020	-1.460	-1.200
2020/01/31 06:35:27.3	91.690	0.000	-1.410	-1.140
2020/01/31 06:35:27.4	91.690	0.020	-1.350	-1.070
2020/01/31 06:35:27.5	91.680	0.040	-1.290	-0.990
2020/01/31 06:35:27.6	91.670	0.060	-1.220	-0.920
2020/01/31 06:35:27.7	91.660	0.070	-1.140	-0.840
2020/01/31 06:35:27.8	91.650	0.090	-1.070	-0.750
2020/01/31 06:35:27.9	91.630	0.100	-0.980	-0.670
2020/01/31 06:35:28.0	91.620	0.120	-0.900	-0.580
2020/01/31 06:35:28.1	91.600	0.130	-0.810	-0.500
2020/01/31 06:35:28.2	91.570	0.140	-0.730	-0.400
2020/01/31 06:35:28.3	91.550	0.150	-0.640	-0.310
2020/01/31 06:35:28.4	91.520	0.160	-0.540	-0.220
2020/01/31 06:35:28.5	91.500	0.160	-0.450	-0.140
2020/01/31 06:35:28.6	91.470	0.170	-0.360	-0.050
2020/01/31 06:35:28.7	91.440	0.180	-0.270	0.040
2020/01/31 06:35:28.8	91.410	0.190	-0.180	0.130
2020/01/31 06:35:28.9	91.380	0.190	-0.090	0.210
2020/01/31 06:35:29.0	91.350	0.200	-0.000	0.290
2020/01/31 06:35:29.1	91.320	0.210	0.080	0.370
2020/01/31 06:35:29.2	91.290	0.210	0.170	0.460
2020/01/31 06:35:29.3	91.250	0.220	0.240	0.530
2020/01/31 06:35:29.4	91.220	0.230	0.320	0.610
2020/01/31 06:35:29.5	91.190	0.240	0.390	0.680
2020/01/31 06:35:29.6	91.150	0.240	0.460	0.750
2020/01/31 06:35:29.7	91.120	0.250	0.520	0.810
2020/01/31 06:35:29.8	91.080	0.260	0.570	0.880
2020/01/31 06:35:29.9	91.050	0.270	0.620	0.940
2020/01/31 06:35:30.0	91.020	0.280	0.670	0.990
2020/01/31 06:35:30.1	90.990	0.290	0.710	1.050
2020/01/31 06:35:30.2	90.970	0.300	0.740	1.100
2020/01/31 06:35:30.3	90.940	0.310	0.770	1.140
2020/01/31 06:35:30.4	90.910	0.320	0.790	1.180
2020/01/31 06:35:30.5	90.890	0.330	0.800	1.210
2020/01/31 06:35:30.6	90.870	0.350	0.800	1.240
2020/01/31 06:35:30.7	90.850	0.360	0.800	1.270
2020/01/31 06:35:30.8	90.830	0.370	0.790	1.280
2020/01/31 06:35:30.9	90.820	0.390	0.780	1.300
2020/01/31 06:35:31.0	90.810	0.400	0.760	1.300
2020/01/31 06:35:31.1	90.810	0.420	0.730	1.310
2020/01/31 06:35:31.2	90.810	0.430	0.690	1.300
2020/01/31 06:35:31.3	90.810	0.450	0.650	1.290
2020/01/31 06:35:31.4	90.820	0.460	0.600	1.280
2020/01/31 06:35:31.5	90.830	0.480	0.550	1.260
2020/01/31 06:35:31.6	90.840	0.490	0.500	1.240
2020/01/31 06:35:31.7	90.860	0.510	0.440	1.210
2020/01/31 06:35:31.8	90.880	0.530	0.370	1.170
2020/01/31 06:35:31.9	90.900	0.550	0.300	1.140
2020/01/31 06:35:32.0	90.930	0.560	0.230	1.100
2020/01/31 06:35:32.1	90.960	0.580	0.160	1.050
2020/01/31 06:35:32.2	90.980	0.600	0.080	1.000
2020/01/31 06:35:32.3	91.010	0.610	0.010	0.960
2020/01/31 06:35:32.4	91.050	0.630	-0.060	0.910
2020/01/31 06:35:32.5	91.080	0.650	-0.140	0.860
2020/01/31 06:35:32.6	91.110	0.660	-0.210	0.810
2020/01/31 06:35:32.7	91.150	0.680	-0.290	0.760
2020/01/31 06:35:32.8	91.180	0.690	-0.360	0.710
2020/01/31 06:35:32.9	91.210	0.700	-0.420	0.670
2020/01/31 06:35:33.0	91.250	0.710	-0.490	0.620
2020/01/31 06:35:33.1	91.280	0.720	-0.550	0.580
2020/01/31 06:35:33.2	91.300	0.720	-0.610	0.540
2020/01/31 06:35:33.3	91.330	0.730	-0.660	0.500
2020/01/31 06:35:33.4	91.360	0.730	-0.710	0.470
2020/01/31 06:35:33.5	91.390	0.730	-0.750	0.440
2020/01/31 06:35:33.6	91.410	0.720	-0.780	0.420
2020/01/31 06:35:33.7	91.440	0.710	-0.810	0.400
2020/01/31 06:35:33.8	91.460	0.700	-0.830	0.390
2020/01/31 06:35:33.9	91.480	0.680	-0.840	0.380
2020/01/31 06:35:34.0	91.490	0.670	-0.850	0.380
2020/01/31 06:35:34.1	91.500	0.640	-0.850	0.380
2020/01/31 06:35:34.2	91.510	0.620	-0.840	0.390
2020/01/31 06:35:34.3	91.520	0.590	-0.830	0.400
2020/01/31 06:35:34.4	91.530	0.550	-0.810	0.420
2020/01/31 06:35:34.5	91.530	0.520	-0.790	0.450
2020/01/31 06:35:34.6	91.530	0.470	-0.760	0.480
2020/01/31 06:35:34.7	91.530	0.430	-0.730	0.510
2020/01/31 06:35:34.8	91.520	0.380	-0.690	0.550
2020/01/31 06:35:34.9	91.520	0.330	-0.650	0.590
2020/01/31 06:35:35.0	91.510	0.280	-0.600	0.640
2020/01/31 06:35:35.1	91.500	0.230	-0.560	0.690
2020/01/31 06:35:35.2	91.490	0.170	-0.500	0.740
2020/01/31 06:35:35.3	91.480	0.110	-0.450	0.800
2020/01/31 06:35:35.4	91.470	0.050	-0.400	0.850
2020/01/31 06:35:35.5	91.460	-0.010	-0.350	0.910
2020/01/31 06:35:35.6	91.450	-0.070	-0.300	0.970
2020/01/31 06:35:35.7	91.450	-0.130	-0.250	1.030
2020/01/31 06:35:35.8	91.440	-0.190	-0.200	1.090
2020/01/31 06:35:35.9	91.430	-0.250	-0.150	1.150
2020/01/31 06:35:36.0	91.420	-0.300	-0.100	1.200
2020/01/31 06:35:36.1	91.420	-0.360	-0.060	1.260
2020/01/31 06:35:36.2	91.420	-0.410	-0.010	1.320
2020/01/31 06:35:36.3	91.410	-0.460	0.030	1.380
2020/01/31 06:35:36.4	91.410	-0.510	0.060	1.430
2020/01/31 06:35:36.5	91.400	-0.560	0.100	1.490
2020/01/31 06:35:36.6	91.400	-0.600	0.130	1.540
2020/01/31 06:35:36.7	91.400	-0.640	0.160	1.600
2020/01/31 06:35:36.8	91.390	-0.670	0.190	1.650
2020/01/31 06:35:36.9	91.390	-0.700	0.210	1.700
2020/01/31 06:35:37.0	91.390	-0.730	0.230	1.750
2020/01/31 06:35:37.1	91.380	-0.760	0.250	1.800
2020/01/31 06:35:37.2	91.390	-0.780	0.270	1.840
2020/01/31 06:35:37.3	91.390	-0.790	0.280	1.890
2020/01/31 06:35:37.4	91.390	-0.800	0.290	1.930
2020/01/31 06:35:37.5	91.390	-0.810	0.300	1.970
2020/01/31 06:35:37.6	91.380	-0.820	0.300	2.000
2020/01/31 06:35:37.7	91.380	-0.820	0.310	2.030
2020/01/31 06:35:37.8	91.380	-0.820	0.310	2.060
2020/01/31 06:35:37.9	91.380	-0.810	0.300	2.090
2020/01/31 06:35:38.0	91.380	-0.800	0.300	2.110
2020/01/31 06:35:38.1	91.380	-0.790	0.290	2.130
2020/01/31 06:35:38.2	91.390	-0.780	0.280	2.140
2020/01/31 06:35:38.3	91.390	-0.760	0.260	2.150
2020/01/31 06:35:38.4	91.400	-0.740	0.250	2.150
2020/01/31 06:35:38.5	91.400	-0.720	0.230	2.150
2020/01/31 06:35:38.6	91.400	-0.700	0.210	2.140
2020/01/31 06:35:38.7	91.410	-0.670	0.190	2.130
2020/01/31 06:35:38.8	91.410	-0.640	0.170	2.110
2020/01/31 06:35:38.9	91.420	-0.620	0.140	2.090
2020/01/31 06:35:39.0	91.430	-0.590	0.120	2.060
2020/01/31 06:35:39.1	91.430	-0.550	0.090	2.030
2020/01/31 06:35:39.2	91.450	-0.520	0.070	1.990
2020/01/31 06:35:39.3	91.460	-0.490	0.040	1.950
2020/01/31 06:35:39.4	91.470	-0.460	0.010	1.900
2020/01/31 06:35:39.5	91.480	-0.420	-0.010	1.850
2020/01/31 06:35:39.6	91.490	-0.390	-0.040	1.800
2020/01/31 06:35:39.7	91.510	-0.350	-0.070	1.740
2020/01/31 06:35:39.8	91.520	-0.320	-0.100	1.680
2020/01/31 06:35:39.9	91.530	-0.280	-0.130	1.620
2020/01/31 06:35:40.0	91.540	-0.250	-0.150	1.560
2020/01/31 06:35:40.1	91.560	-0.210	-0.180	1.490
2020/01/31 06:35:40.2	91.570	-0.180	-0.210	1.420
2020/01/31 06:35:40.3	91.590	-0.140	-0.230	1.350
2020/01/31 06:35:40.4	91.600	-0.110	-0.250	1.280
2020/01/31 06:35:40.5	91.610	-0.080	-0.270	1.210
2020/01/31 06:35:40.6	91.620	-0.050	-0.290	1.130
2020/01/31 06:35:40.7	91.630	-0.020	-0.310	1.060
2020/01/31 06:35:40.8	91.650	0.010	-0.330	0.990
2020/01/31 06:35:40.9	91.660	0.040	-0.350	0.910
2020/01/31 06:35:41.0	91.670	0.070	-0.370	0.840
2020/01/31 06:35:41.1	91.670	0.100	-0.380	0.770
2020/01/31 06:35:41.2	91.670	0.120	-0.390	0.690
2020/01/31 06:35:41.3	91.680	0.150	-0.410	0.620
2020/01/31 06:35:41.4	91.690	0.170	-0.420	0.540
2020/01/31 06:35:41.5	91.690	0.190	-0.430	0.470
2020/01/31 06:35:41.6	91.690	0.210	-0.430	0.400
2020/01/31 06:35:41.7	91.700	0.230	-0.440	0.330
2020/01/31 06:35:41.8	91.700	0.240	-0.440	0.260
2020/01/31 06:35:41.9	91.700	0.250	-0.450	0.190
2020/01/31 06:35:42.0	91.690	0.270	-0.450	0.120
2020/01/31 06:35:42.1	91.690	0.270	-0.440	0.060
2020/01/31 06:35:42.2	91.670	0.280	-0.440	-0.010
2020/01/31 06:35:42.3	91.670	0.290	-0.440	-0.070
2020/01/31 06:35:42.4	91.660	0.290	-0.430	-0.130
2020/01/31 06:35:42.5	91.650	0.290	-0.430	-0.190
2020/01/31 06:35:42.6	91.640	0.290	-0.420	-0.250
2020/01/31 06:35:42.7	91.630	0.290	-0.410	-0.310
2020/01/31 06:35:42.8	91.610	0.280	-0.400	-0.360
2020/01/31 06:35:42.9	91.600	0.280	-0.390	-0.410
2020/01/31 06:35:43.0	91.580	0.270	-0.380	-0.460
2020/01/31 06:35:43.1	91.570	0.260	-0.360	-0.510
2020/01/31 06:35:43.2	91.530	0.250	-0.350	-0.550
2020/01/31 06:35:43.3	91.510	0.240	-0.340	-0.600
2020/01/31 06:35:43.4	91.500	0.240	-0.330	-0.640
2020/01/31 06:35:43.5	91.480	0.230	-0.310	-0.670
2020/01/31 06:35:43.6	91.460	0.220	-0.300	-0.710
2020/01/31 06:35:43.7	91.440	0.210	-0.290	-0.740
2020/01/31 06:35:43.8	91.430	0.200	-0.280	-0.770
2020/01/31 06:35:43.9	91.410	0.190	-0.270	-0.800
2020/01/31 06:35:44.0	91.400	0.180	-0.260	-0.820
2020/01/31 06:35:44.1	91.390	0.180	-0.250	-0.840
2020/01/31 06:35:44.2	91.370	0.170	-0.230	-0.870
2020/01/31 06:35:44.3	91.360	0.170	-0.220	-0.880
2020/01/31 06:35:44.4	91.360	0.170	-0.210	-0.900
2020/01/31 06:35:44.5	91.350	0.160	-0.200	-0.910
2020/01/31 06:35:44.6	91.350	0.160	-0.190	-0.930
2020/01/31 06:35:44.7	91.360	0.160	-0.190	-0.940
2020/01/31 06:35:44.8	91.360	0.160	-0.180	-0.940
2020/01/31 06:35:44.9	91.370	0.170	-0.170	-0.950
2020/01/31 06:35:45.0	91.380	0.170	-0.160	-0.950
2020/01/31 06:35:45.1	91.400	0.170	-0.150	-0.950
2020/01/31 06:35:45.2	91.410	0.180	-0.150	-0.950
2020/01/31 06:35:45.3	91.430	0.180	-0.140	-0.950
2020/01/31 06:35:45.4	91.450	0.180	-0.130	-0.940
2020/01/31 06:35:45.5	91.470	0.190	-0.120	-0.930
2020/01/31 06:35:45.6	91.500	0.190	-0.120	-0.920
2020/01/31 06:35:45.7	91.520	0.200	-0.110	-0.900
2020/01/31 06:35:45.8	91.540	0.200	-0.110	-0.880
2020/01/31 06:35:45.9	91.570	0.200	-0.100	-0.860
2020/01/31 06:35:46.0	91.590	0.210	-0.100	-0.830
2020/01/31 06:35:46.1	91.620	0.210	-0.090	-0.800
2020/01/31 06:35:46.2	91.640	0.210	-0.090	-0.760
2020/01/31 06:35:46.3	91.660	0.210	-0.090	-0.730
2020/01/31 06:35:46.4	91.690	0.210	-0.080	-0.680
2020/01/31 06:35:46.5	91.710	0.200	-0.080	-0.640
2020/01/31 06:35:46.6	91.720	0.200	-0.080	-0.590
2020/01/31 06:35:46.7	91.740	0.190	-0.080	-0.530
2020/01/31 06:35:46.8	91.760	0.190	-0.080	-0.480
2020/01/31 06:35:46.9	91.770	0.180	-0.090	-0.410
2020/01/31 06:35:47.0	91.780	0.170	-0.090	-0.350
2020/01/31 06:35:47.1	91.790	0.160	-0.090	-0.280
2020/01/31 06:35:47.2	91.800	0.150	-0.100	-0.200
2020/01/31 06:35:47.3	91.800	0.140	-0.100	-0.130
2020/01/31 06:35:47.4	91.810	0.130	-0.100	-0.050
2020/01/31 06:35:47.5	91.810	0.110	-0.110	0.030
2020/01/31 06:35:47.6	91.800	0.100	-0.110	0.120
2020/01/31 06:35:47.7	91.800	0.080	-0.120	0.210
2020/01/31 06:35:47.8	91.790	0.070	-0.120	0.300
2020/01/31 06:35:47.9	91.790	0.050	-0.130	0.390
2020/01/31 06:35:48.0	91.780	0.040	-0.130	0.480
2020/01/31 06:35:48.1	91.770	0.030	-0.140	0.580
2020/01/31 06:35:48.2	91.770	0.010	-0.140	0.680
2020/01/31 06:35:48.3	91.760	-0.000	-0.140	0.780
2020/01/31 06:35:48.4	91.750	-0.020	-0.150	0.880
2020/01/31 06:35:48.5	91.730	-0.030	-0.150	0.970
2020/01/31 06:35:48.6	91.710	-0.040	-0.150	1.070
2020/01/31 06:35:48.7	91.700	-0.050	-0.150	1.170
2020/01/31 06:35:48.8	91.680	-0.060	-0.150	1.270
2020/01/31 06:35:48.9	91.670	-0.070	-0.150	1.360
2020/01/31 06:35:49.0	91.650	-0.070	-0.150	1.450
2020/01/31 06:35:49.1	91.630	-0.080	-0.140	1.540
2020/01/31 06:35:49.2	91.630	-0.080	-0.140	1.630
2020/01/31 06:35:49.3	91.620	-0.080	-0.140	1.720
2020/01/31 06:35:49.4	91.600	-0.090	-0.140	1.800
2020/01/31 06:35:49.5	91.580	-0.080	-0.130	1.880
2020/01/31 06:35:49.6	91.570	-0.080	-0.130	1.960
2020/01/31 06:35:49.7	91.550	-0.080	-0.120	2.030
2020/01/31 06:35:49.8	91.540	-0.070	-0.120	2.100
2020/01/31 06:35:49.9	91.530	-0.060	-0.120	2.160
2020/01/31 06:35:50.0	91.520	-0.050	-0.110	2.220
2020/01/31 06:35:50.1	91.510	-0.040	-0.110	2.270
2020/01/31 06:35:50.2	91.520	-0.030	-0.100	2.320
2020/01/31 06:35:50.3	91.520	-0.010	-0.100	2.360
2020/01/31 06:35:50.4	91.510	0.000	-0.100	2.390
2020/01/31 06:35:50.5	91.510	0.020	-0.100	2.420
2020/01/31 06:35:50.6	91.520	0.040	-0.100	2.440
2020/01/31 06:35:50.7	91.520	0.060	-0.110	2.450
2020/01/31 06:35:50.8	91.530	0.080	-0.110	2.460
2020/01/31 06:35:50.9	91.540	0.100	-0.120	2.460
2020/01/31 06:35:51.0	91.550	0.120	-0.120	2.460
2020/01/31 06:35:51.1	91.560	0.140	-0.130	2.450
2020/01/31 06:35:51.2	91.600	0.170	-0.150	2.430
2020/01/31 06:35:51.3	91.620	0.190	-0.160	2.410
2020/01/31 06:35:51.4	91.630	0.210	-0.170	2.380
2020/01/31 06:35:51.5	91.650	0.230	-0.190	2.350
2020/01/31 06:35:51.6	91.670	0.250	-0.200	2.310
2020/01/31 06:35:51.7	91.690	0.280	-0.220	2.270
2020/01/31 06:35:51.8	91.710	0.300	-0.240	2.220
2020/01/31 06:35:51.9	91.740	0.320	-0.260	2.180
2020/01/31 06:35:52.0	91.760	0.330	-0.280	2.120
2020/01/31 06:35:52.1	91.780	0.350	-0.290	2.070
2020/01/31 06:35:52.2	91.820	0.360	-0.310	2.020
2020/01/31 06:35:52.3	91.840	0.380	-0.320	1.960
2020/01/31 06:35:52.4	91.870	0.390	-0.340	1.900
2020/01/31 06:35:52.5	91.890	0.390	-0.350	1.840
2020/01/31 06:35:52.6	91.910	0.400	-0.360	1.780
2020/01/31 06:35:52.7	91.930	0.400	-0.370	1.720
2020/01/31 06:35:52.8	91.950	0.400	-0.370	1.660
2020/01/31 06:35:52.9	91.970	0.400	-0.370	1.600
2020/01/31 06:35:53.0	91.990	0.390	-0.370	1.540
2020/01/31 06:35:53.1	92.000	0.380	-0.370	1.480
2020/01/31 06:35:53.2	92.020	0.370	-0.360	1.420
2020/01/31 06:35:53.3	92.030	0.360	-0.350	1.370
2020/01/31 06:35:53.4	92.040	0.340	-0.340	1.310
2020/01/31 06:35:53.5	92.050	0.320	-0.320	1.260
2020/01/31 06:35:53.6	92.050	0.290	-0.300	1.200
2020/01/31 06:35:53.7	92.060	0.270	-0.280	1.150
2020/01/31 06:35:53.8	92.060	0.240	-0.260	1.100
2020/01/31 06:35:53.9	92.060	0.200	-0.230	1.050
2020/01/31 06:35:54.0	92.050	0.170	-0.200	1.000
2020/01/31 06:35:54.1	92.050	0.130	-0.180	0.950
2020/01/31 06:35:54.2	92.020	0.090	-0.140	0.900
2020/01/31 06:35:54.3	92.010	0.050	-0.110	0.850
2020/01/31 06:35:54.4	92.000	0.010	-0.080	0.800
2020/01/31 06:35:54.5	91.990	-0.030	-0.040	0.750
2020/01/31 06:35:54.6	91.980	-0.080	-0.000	0.710
2020/01/31 06:35:54.7	91.960	-0.120	0.030	0.660
2020/01/31 06:35:54.8	91.950	-0.170	0.070	0.620
2020/01/31 06:35:54.9	91.930	-0.210	0.110	0.570
2020/01/31 06:35:55.0	91.920	-0.260	0.140	0.530
2020/01/31 06:35:55.1	91.900	-0.300	0.180	0.480
2020/01/31 06:35:55.2	91.860	-0.350	0.220	0.440
2020/01/31 06:35:55.3	91.850	-0.390	0.250	0.390
2020/01/31 06:35:55.4	91.830	-0.430	0.280	0.350
2020/01/31 06:35:55.5	91.810	-0.470	0.310	0.310
2020/01/31 06:35:55.6	91.800	-0.510	0.330	0.260
2020/01/31 06:35:55.7	91.780	-0.550	0.360	0.220
2020/01/31 06:35:55.8	91.770	-0.580	0.380	0.170
2020/01/31 06:35:55.9	91.760	-0.610	0.390	0.130
2020/01/31 06:35:56.0	91.750	-0.640	0.400	0.090
2020/01/31 06:35:56.1	91.740	-0.660	0.410	0.040
2020/01/31 06:35:56.2	91.720	-0.690	0.400	-0.010
2020/01/31 06:35:56.3	91.710	-0.700	0.400	-0.050
2020/01/31 06:35:56.4	91.710	-0.720	0.390	-0.090
2020/01/31 06:35:56.5	91.710	-0.730	0.370	-0.130
2020/01/31 06:35:56.6	91.700	-0.740	0.350	-0.170
2020/01/31 06:35:56.7	91.700	-0.740	0.330	-0.210
2020/01/31 06:35:56.8	91.700	-0.740	0.300	-0.240
2020/01/31 06:35:56.9	91.700	-0.730	0.260	-0.280
2020/01/31 06:35:57.0	91.700	-0.730	0.220	-0.310
2020/01/31 06:35:57.1	91.710	-0.710	0.180	-0.330
2020/01/31 06:35:57.2	91.690	-0.700	0.130	-0.350
2020/01/31 06:35:57.3	91.700	-0.670	0.080	-0.380
2020/01/31 06:35:57.4	91.700	-0.650	0.020	-0.400
2020/01/31 06:35:57.5	91.700	-0.620	-0.030	-0.410
2020/01/31 06:35:57.6	91.700	-0.590	-0.090	-0.420
2020/01/31 06:35:57.7	91.710	-0.560	-0.150	-0.430
2020/01/31 06:35:57.8	91.710	-0.530	-0.210	-0.440
2020/01/31 06:35:57.9	91.710	-0.490	-0.280	-0.450
2020/01/31 06:35:58.0	91.710	-0.450	-0.340	-0.450
2020/01/31 06:35:58.1	91.720	-0.410	-0.390	-0.450
2020/01/31 06:35:58.2	91.700	-0.370	-0.450	-0.450
2020/01/31 06:35:58.3	91.700	-0.320	-0.510	-0.440
2020/01/31 06:35:58.4	91.700	-0.280	-0.560	-0.440
2020/01/31 06:35:58.5	91.700	-0.240	-0.610	-0.430
2020/01/31 06:35:58.6	91.700	-0.200	-0.650	-0.420
2020/01/31 06:35:58.7	91.700	-0.150	-0.690	-0.400
2020/01/31 06:35:58.8	91.700	-0.110	-0.730	-0.390
2020/01/31 06:35:58.9	91.690	-0.070	-0.760	-0.370
2020/01/31 06:35:59.0	91.690	-0.030	-0.780	-0.360
2020/01/31 06:35:59.1	91.680	0.000	-0.800	-0.340
2020/01/31 06:35:59.2	91.670	0.040	-0.820	-0.310
2020/01/31 06:35:59.3	91.660	0.080	-0.830	-0.290
2020/01/31 06:35:59.4	91.650	0.110	-0.830	-0.270
2020/01/31 06:35:59.5	91.640	0.140	-0.840	-0.250
2020/01/31 06:35:59.6	91.630	0.170	-0.830	-0.220
2020/01/31 06:35:59.7	91.620	0.190	-0.820	-0.200
2020/01/31 06:35:59.8	91.600	0.220	-0.810	-0.180
2020/01/31 06:35:59.9	91.590	0.240	-0.790	-0.150
2020/01/31 06:36:00.0	91.570	0.260	-0.770	-0.120
2020/01/31 06:36:00.1	91.560	0.270	-0.740	-0.100
2020/01/31 06:36:00.2	91.540	0.290	-0.710	-0.070
2020/01/31 06:36:00.3	91.530	0.300	-0.680	-0.040
2020/01/31 06:36:00.4	91.510	0.310	-0.640	-0.010
2020/01/31 06:36:00.5	91.490	0.320	-0.610	0.020
2020/01/31 06:36:00.6	91.480	0.320	-0.570	0.040
2020/01/31 06:36:00.7	91.460	0.330	-0.520	0.070
2020/01/31 06:36:00.8	91.440	0.330	-0.480	0.100
2020/01/31 06:36:00.9	91.430	0.330	-0.430	0.130
2020/01/31 06:36:01.0	91.420	0.330	-0.380	0.160
2020/01/31 06:36:01.1	91.400	0.330	-0.330	0.190
2020/01/31 06:36:01.2	91.380	0.320	-0.280	0.230
2020/01/31 06:36:01.3	91.370	0.320	-0.230	0.260
2020/01/31 06:36:01.4	91.360	0.310	-0.180	0.290
2020/01/31 06:36:01.5	91.350	0.310	-0.140	0.320
2020/01/31 06:36:01.6	91.350	0.300	-0.090	0.350
2020/01/31 06:36:01.7	91.340	0.290	-0.050	0.370
2020/01/31 06:36:01.8	91.340	0.280	-0.000	0.400
2020/01/31 06:36:01.9	91.330	0.280	0.030	0.430
2020/01/31 06:36:02.0	91.330	0.270	0.070	0.460
2020/01/31 06:36:02.1	91.330	0.260	0.100	0.490
2020/01/31 06:36:02.2	91.330	0.260	0.140	0.510
2020/01/31 06:36:02.3	91.330	0.250	0.160	0.540
2020/01/31 06:36:02.4	91.330	0.250	0.190	0.570
2020/01/31 06:36:02.5	91.340	0.240	0.200	0.590
2020/01/31 06:36:02.6	91.340	0.240	0.220	0.620
2020/01/31 06:36:02.7	91.350	0.240	0.230	0.640
2020/01/31 06:36:02.8	91.350	0.240	0.230	0.660
2020/01/31 06:36:02.9	91.360	0.240	0.240	0.680
2020/01/31 06:36:03.0	91.370	0.240	0.230	0.700
2020/01/31 06:36:03.1	91.370	0.240	0.230	0.720
2020/01/31 06:36:03.2	91.380	0.240	0.210	0.750
2020/01/31 06:36:03.3	91.390	0.250	0.200	0.760
2020/01/31 06:36:03.4	91.400	0.250	0.180	0.780
2020/01/31 06:36:03.5	91.420	0.260	0.160	0.800
2020/01/31 06:36:03.6	91.430	0.260	0.140	0.810
2020/01/31 06:36:03.7	91.440	0.270	0.110	0.830
2020/01/31 06:36:03.8	91.460	0.270	0.090	0.840
2020/01/31 06:36:03.9	91.470	0.280	0.060	0.860
2020/01/31 06:36:04.0	91.490	0.280	0.030	0.870
2020/01/31 06:36:04.1	91.510	0.290	-0.000	0.880
2020/01/31 06:36:04.2	91.550	0.290	-0.040	0.890
2020/01/31 06:36:04.3	91.570	0.300	-0.070	0.910
2020/01/31 06:36:04.4	91.590	0.300	-0.100	0.920
2020/01/31 06:36:04.5	91.610	0.300	-0.130	0.930
2020/01/31 06:36:04.6	91.630	0.300	-0.160	0.950
2020/01/31 06:36:04.7	91.650	0.300	-0.190	0.970
2020/01/31 06:36:04.8	91.670	0.300	-0.220	0.980
2020/01/31 06:36:04.9	91.690	0.300	-0.240	1.000
2020/01/31 06:36:05.0	91.710	0.300	-0.270	1.020
2020/01/31 06:36:05.1	91.730	0.290	-0.290	1.040
2020/01/31 06:36:05.2	91.770	0.280	-0.310	1.070
2020/01/31 06:36:05.3	91.780	0.270	-0.320	1.100
2020/01/31 06:36:05.4	91.800	0.260	-0.340	1.120
2020/01/31 06:36:05.5	91.810	0.250	-0.350	1.150
2020/01/31 06:36:05.6	91.820	0.240	-0.360	1.180
2020/01/31 06:36:05.7	91.830	0.220	-0.370	1.210
2020/01/31 06:36:05.8	91.830	0.200	-0.370	1.250
2020/01/31 06:36:05.9	91.830	0.190	-0.370	1.280
2020/01/31 06:36:06.0	91.830	0.170	-0.370	1.320
2020/01/31 06:36:06.1	91.830	0.150	-0.370	1.360
2020/01/31 06:36:06.2	91.820	0.120	-0.360	1.400
2020/01/31 06:36:06.3	91.810	0.100	-0.350	1.440
2020/01/31 06:36:06.4	91.800	0.080	-0.330	1.480
2020/01/31 06:36:06.5	91.790	0.060	-0.320	1.530
2020/01/31 06:36:06.6	91.770	0.030	-0.300	1.570
2020/01/31 06:36:06.7	91.750	0.010	-0.290	1.610
2020/01/31 06:36:06.8	91.730	-0.020	-0.260	1.650
2020/01/31 06:36:06.9	91.710	-0.040	-0.240	1.690
2020/01/31 06:36:07.0	91.690	-0.070	-0.220	1.730
2020/01/31 06:36:07.1	91.660	-0.100	-0.190	1.770
2020/01/31 06:36:07.2	91.650	-0.120	-0.160	1.800
2020/01/31 06:36:07.3	91.620	-0.150	-0.130	1.840
2020/01/31 06:36:07.4	91.590	-0.170	-0.100	1.880
2020/01/31 06:36:07.5	91.570	-0.200	-0.070	1.910
2020/01/31 06:36:07.6	91.540	-0.220	-0.040	1.940
2020/01/31 06:36:07.7	91.510	-0.250	-0.010	1.980
2020/01/31 06:36:07.8	91.480	-0.270	0.020	2.010
2020/01/31 06:36:07.9	91.440	-0.300	0.050	2.040
2020/01/31 06:36:08.0	91.410	-0.320	0.080	2.060
2020/01/31 06:36:08.1	91.380	-0.340	0.110	2.090
2020/01/31 06:36:08.2	91.360	-0.360	0.130	2.100
2020/01/31 06:36:08.3	91.330	-0.380	0.150	2.120
2020/01/31 06:36:08.4	91.300	-0.400	0.170	2.140
2020/01/31 06:36:08.5	91.270	-0.410	0.190	2.150
2020/01/31 06:36:08.6	91.250	-0.430	0.210	2.150
2020/01/31 06:36:08.7	91.220	-0.440	0.220	2.150
2020/01/31 06:36:08.8	91.200	-0.450	0.220	2.150
2020/01/31 06:36:08.9	91.180	-0.460	0.220	2.140
2020/01/31 06:36:09.0	91.160	-0.470	0.220	2.130
2020/01/31 06:36:09.1	91.140	-0.470	0.210	2.110
2020/01/31 06:36:09.2	91.130	-0.470	0.200	2.090
2020/01/31 06:36:09.3	91.110	-0.470	0.180	2.060
2020/01/31 06:36:09.4	91.100	-0.470	0.160	2.020
2020/01/31 06:36:09.5	91.100	-0.460	0.140	1.980
2020/01/31 06:36:09.6	91.090	-0.450	0.110	1.930
2020/01/31 06:36:09.7	91.090	-0.440	0.070	1.870
2020/01/31 06:36:09.8	91.090	-0.420	0.040	1.810
2020/01/31 06:36:09.9	91.100	-0.410	-0.000	1.740
2020/01/31 06:36:10.0	91.100	-0.390	-0.050	1.670
2020/01/31 06:36:10.1	91.110	-0.360	-0.090	1.590
2020/01/31 06:36:10.2	91.120	-0.340	-0.140	1.510
2020/01/31 06:36:10.3	91.140	-0.310	-0.190	1.420
2020/01/31 06:36:10.4	91.160	-0.280	-0.240	1.330
2020/01/31 06:36:10.5	91.190	-0.250	-0.290	1.230
2020/01/31 06:36:10.6	91.210	-0.220	-0.340	1.130
2020/01/31 06:36:10.7	91.240	-0.180	-0.390	1.030
2020/01/31 06:36:10.8	91.270	-0.150	-0.440	0.920
2020/01/31 06:36:10.9	91.310	-0.110	-0.480	0.810
2020/01/31 06:36:11.0	91.340	-0.070	-0.520	0.710
2020/01/31 06:36:11.1	91.380	-0.040	-0.560	0.600
2020/01/31 06:36:11.2	91.410	0.000	-0.600	0.490
2020/01/31 06:36:11.3	91.450	0.040	-0.630	0.390
2020/01/31 06:36:11.4	91.490	0.070	-0.660	0.280
2020/01/31 06:36:11.5	91.530	0.100	-0.680	0.180
2020/01/31 06:36:11.6	91.570	0.130	-0.690	0.080
2020/01/31 06:36:11.7	91.610	0.160	-0.700	-0.010
2020/01/31 06:36:11.8	91.650	0.190	-0.700	-0.100
2020/01/31 06:36:11.9	91.690	0.210	-0.690	-0.190
2020/01/31 06:36:12.0	91.720	0.230	-0.680	-0.280
2020/01/31 06:36:12.1	91.750	0.240	-0.660	-0.350
2020/01/31 06:36:12.2	91.780	0.250	-0.630	-0.430
2020/01/31 06:36:12.3	91.800	0.260	-0.600	-0.500
2020/01/31 06:36:12.4	91.830	0.260	-0.560	-0.560
2020/01/31 06:36:12.5	91.850	0.260	-0.510	-0.620
2020/01/31 06:36:12.6	91.870	0.250	-0.460	-0.680
2020/01/31 06:36:12.7	91.880	0.240	-0.400	-0.730
2020/01/31 06:36:12.8	91.900	0.220	-0.340	-0.770
2020/01/31 06:36:12.9	91.900	0.210	-0.270	-0.810
2020/01/31 06:36:13.0	91.910	0.180	-0.200	-0.850
2020/01/31 06:36:13.1	91.920	0.150	-0.130	-0.870
2020/01/31 06:36:13.2	91.910	0.120	-0.050	-0.890
2020/01/31 06:36:13.3	91.910	0.090	0.030	-0.910
2020/01/31 06:36:13.4	91.910	0.050	0.110	-0.930
2020/01/31 06:36:13.5	91.900	0.010	0.180	-0.940
2020/01/31 06:36:13.6	91.900	-0.030	0.260	-0.940
2020/01/31 06:36:13.7	91.890	-0.070	0.330	-0.940
2020/01/31 06:36:13.8	91.870	-0.110	0.400	-0.930
2020/01/31 06:36:13.9	91.860	-0.160	0.470	-0.920
2020/01/31 06:36:14.0	91.840	-0.200	0.530	-0.900
2020/01/31 06:36:14.1	91.820	-0.240	0.590	-0.880
2020/01/31 06:36:14.2	91.800	-0.280	0.640	-0.860
2020/01/31 06:36:14.3	91.780	-0.320	0.680	-0.830
2020/01/31 06:36:14.4	91.750	-0.360	0.710	-0.790
2020/01/31 06:36:14.5	91.730	-0.390	0.740	-0.750
2020/01/31 06:36:14.6	91.700	-0.420	0.750	-0.700
2020/01/31 06:36:14.7	91.680	-0.450	0.760	-0.660
2020/01/31 06:36:14.8	91.650	-0.470	0.760	-0.600
2020/01/31 06:36:14.9	91.620	-0.490	0.740	-0.550
2020/01/31 06:36:15.0	91.590	-0.500	0.720	-0.490
2020/01/31 06:36:15.1	91.570	-0.510	0.680	-0.430
2020/01/31 06:36:15.2	91.540	-0.510	0.640	-0.370
2020/01/31 06:36:15.3	91.510	-0.510	0.580	-0.300
2020/01/31 06:36:15.4	91.480	-0.500	0.520	-0.240
2020/01/31 06:36:15.5	91.460	-0.480	0.440	-0.170
2020/01/31 06:36:15.6	91.430	-0.460	0.360	-0.110
2020/01/31 06:36:15.7	91.410	-0.430	0.270	-0.040
2020/01/31 06:36:15.8	91.380	-0.400	0.180	0.030
2020/01/31 06:36:15.9	91.360	-0.370	0.070	0.090
2020/01/31 06:36:16.0	91.330	-0.330	-0.040	0.160
2020/01/31 06:36:16.1	91.310	-0.280	-0.150	0.220
2020/01/31 06:36:16.2	91.290	-0.240	-0.260	0.290
2020/01/31 06:36:16.3	91.270	-0.190	-0.380	0.350
2020/01/31 06:36:16.4	91.250	-0.130	-0.500	0.410
2020/01/31 06:36:16.5	91.240	-0.080	-0.610	0.470
2020/01/31 06:36:16.6	91.220	-0.020	-0.730	0.520
2020/01/31 06:36:16.7	91.210	0.030	-0.840	0.580
2020/01/31 06:36:16.8	91.200	0.090	-0.940	0.630
2020/01/31 06:36:16.9	91.190	0.150	-1.040	0.680
2020/01/31 06:36:17.0	91.180	0.200	-1.140	0.730
2020/01/31 06:36:17.1	91.170	0.260	-1.230	0.770
2020/01/31 06:36:17.2	91.170	0.310	-1.310	0.820
2020/01/31 06:36:17.3	91.170	0.360	-1.380	0.860
2020/01/31 06:36:17.4	91.170	0.410	-1.440	0.900
2020/01/31 06:36:17.5	91.160	0.450	-1.490	0.940
2020/01/31 06:36:17.6	91.160	0.490	-1.530	0.970
2020/01/31 06:36:17.7	91.160	0.530	-1.560	1.010
2020/01/31 06:36:17.8	91.170	0.560	-1.570	1.040
2020/01/31 06:36:17.9	91.170	0.590	-1.580	1.070
2020/01/31 06:36:18.0	91.170	0.610	-1.570	1.100
2020/01/31 06:36:18.1	91.180	0.630	-1.560	1.130
2020/01/31 06:36:18.2	91.190	0.640	-1.520	1.150
2020/01/31 06:36:18.3	91.200	0.650	-1.480	1.170
2020/01/31 06:36:18.4	91.210	0.660	-1.430	1.200
2020/01/31 06:36:18.5	91.210	0.660	-1.370	1.220
2020/01/31 06:36:18.6	91.220	0.660	-1.290	1.240
2020/01/31 06:36:18.7	91.230	0.650	-1.210	1.260
2020/01/31 06:36:18.8	91.240	0.640	-1.120	1.280
2020/01/31 06:36:18.9	91.250	0.630	-1.030	1.300
2020/01/31 06:36:19.0	91.260	0.610	-0.920	1.310
2020/01/31 06:36:19.1	91.280	0.590	-0.810	1.330
2020/01/31 06:36:19.2	91.280	0.560	-0.700	1.350
2020/01/31 06:36:19.3	91.300	0.540	-0.580	1.360
2020/01/31 06:36:19.4	91.310	0.510	-0.460	1.370
2020/01/31 06:36:19.5	91.320	0.480	-0.340	1.380
2020/01/31 06:36:19.6	91.330	0.450	-0.220	1.390
2020/01/31 06:36:19.7	91.350	0.410	-0.100	1.400
2020/01/31 06:36:19.8	91.360	0.380	0.020	1.400
2020/01/31 06:36:19.9	91.370	0.350	0.140	1.410
2020/01/31 06:36:20.0	91.380	0.310	0.250	1.410
2020/01/31 06:36:20.1	91.400	0.280	0.360	1.410
2020/01/31 06:36:20.2	91.410	0.240	0.470	1.410
2020/01/31 06:36:20.3	91.420	0.210	0.570	1.410
2020/01/31 06:36:20.4	91.430	0.180	0.660	1.410
2020/01/31 06:36:20.5	91.450	0.140	0.750	1.410
2020/01/31 06:36:20.6	91.460	0.110	0.820	1.400
2020/01/31 06:36:20.7	91.470	0.080	0.890	1.400
2020/01/31 06:36:20.8	91.480	0.050	0.950	1.390
2020/01/31 06:36:20.9	91.480	0.020	1.000	1.390
2020/01/31 06:36:21.0	91.490	-0.010	1.050	1.380
2020/01/31 06:36:21.1	91.500	-0.030	1.080	1.370
2020/01/31 06:36:21.2	91.510	-0.060	1.100	1.360
2020/01/31 06:36:21.3	91.510	-0.080	1.120	1.350
2020/01/31 06:36:21.4	91.510	-0.110	1.130	1.340
2020/01/31 06:36:21.5	91.510	-0.130	1.120	1.340
2020/01/31 06:36:21.6	91.510	-0.150	1.110	1.330
2020/01/31 06:36:21.7	91.510	-0.170	1.090	1.310
2020/01/31 06:36:21.8	91.510	-0.190	1.060	1.300
2020/01/31 06:36:21.9	91.510	-0.200	1.030	1.290
2020/01/31 06:36:22.0	91.510	-0.220	0.990	1.280
2020/01/31 06:36:22.1	91.500	-0.230	0.930	1.270
2020/01/31 06:36:22.2	91.500	-0.250	0.880	1.250
2020/01/31 06:36:22.3	91.490	-0.260	0.810	1.240
2020/01/31 06:36:22.4	91.490	-0.270	0.740	1.230
2020/01/31 06:36:22.5	91.480	-0.280	0.670	1.210
2020/01/31 06:36:22.6	91.480	-0.290	0.580	1.190
2020/01/31 06:36:22.7	91.470	-0.290	0.500	1.180
2020/01/31 06:36:22.8	91.460	-0.300	0.410	1.160
2020/01/31 06:36:22.9	91.450	-0.300	0.320	1.140
2020/01/31 06:36:23.0	91.450	-0.310	0.220	1.120
2020/01/31 06:36:23.1	91.440	-0.310	0.130	1.100
2020/01/31 06:36:23.2	91.430	-0.310	0.030	1.080
2020/01/31 06:36:23.3	91.420	-0.310	-0.070	1.060
2020/01/31 06:36:23.4	91.420	-0.300	-0.160	1.040
2020/01/31 06:36:23.5	91.410	-0.300	-0.260	1.020
2020/01/31 06:36:23.6	91.410	-0.300	-0.350	0.990
2020/01/31 06:36:23.7	91.400	-0.290	-0.440	0.970
2020/01/31 06:36:23.8	91.400	-0.280	-0.520	0.940
2020/01/31 06:36:23.9	91.390	-0.270	-0.600	0.920
2020/01/31 06:36:24.0	91.390	-0.260	-0.680	0.890
2020/01/31 06:36:24.1	91.390	-0.250	-0.750	0.870
2020/01/31 06:36:24.2	91.390	-0.240	-0.820	0.850
2020/01/31 06:36:24.3	91.390	-0.230	-0.880	0.820
2020/01/31 06:36:24.4	91.390	-0.210	-0.930	0.800
2020/01/31 06:36:24.5	91.390	-0.200	-0.970	0.780
2020/01/31 06:36:24.6	91.390	-0.180	-1.010	0.760
2020/01/31 06:36:24.7	91.400	-0.170	-1.040	0.730
2020/01/31 06:36:24.8	91.400	-0.160	-1.050	0.720
2020/01/31 06:36:24.9	91.400	-0.150	-1.060	0.700
2020/01/31 06:36:25.0	91.400	-0.130	-1.060	0.680
2020/01/31 06:36:25.1	91.410	-0.120	-1.050	0.660
2020/01/31 06:36:25.2	91.410	-0.110	-1.040	0.650
2020/01/31 06:36:25.3	91.410	-0.110	-1.010	0.630
2020/01/31 06:36:25.4	91.420	-0.100	-0.970	0.620
2020/01/31 06:36:25.5	91.420	-0.100	-0.930	0.610
2020/01/31 06:36:25.6	91.420	-0.100	-0.880	0.590
2020/01/31 06:36:25.7	91.430	-0.100	-0.820	0.580
2020/01/31 06:36:25.8	91.430	-0.100	-0.760	0.570
2020/01/31 06:36:25.9	91.430	-0.100	-0.690	0.560
2020/01/31 06:36:26.0	91.440	-0.110	-0.610	0.550
2020/01/31 06:36:26.1	91.450	-0.120	-0.530	0.530
2020/01/31 06:36:26.2	91.450	-0.130	-0.450	0.520
2020/01/31 06:36:26.3	91.460	-0.140	-0.360	0.510
2020/01/31 06:36:26.4	91.470	-0.160	-0.280	0.500
2020/01/31 06:36:26.5	91.480	-0.180	-0.190	0.490
2020/01/31 06:36:26.6	91.490	-0.190	-0.110	0.470
2020/01/31 06:36:26.7	91.500	-0.210	-0.020	0.460
2020/01/31 06:36:26.8	91.510	-0.230	0.050	0.440
2020/01/31 06:36:26.9	91.520	-0.250	0.130	0.430
2020/01/31 06:36:27.0	91.530	-0.270	0.200	0.410
2020/01/31 06:36:27.1	91.540	-0.290	0.270	0.400
2020/01/31 06:36:27.2	91.550	-0.310	0.330	0.380
2020/01/31 06:36:27.3	91.560	-0.330	0.380	0.360
2020/01/31 06:36:27.4	91.570	-0.340	0.430	0.350
2020/01/31 06:36:27.5	91.590	-0.360	0.470	0.330
2020/01/31 06:36:27.6	91.600	-0.370	0.500	0.310
2020/01/31 06:36:27.7	91.610	-0.380	0.520	0.300
2020/01/31 06:36:27.8	91.620	-0.390	0.530	0.280
2020/01/31 06:36:27.9	91.630	-0.390	0.540	0.270
2020/01/31 06:36:28.0	91.640	-0.390	0.530	0.250
2020/01/31 06:36:28.1	91.650	-0.390	0.520	0.240
2020/01/31 06:36:28.2	91.650	-0.380	0.500	0.230
2020/01/31 06:36:28.3	91.650	-0.370	0.470	0.210
2020/01/31 06:36:28.4	91.660	-0.360	0.440	0.200
2020/01/31 06:36:28.5	91.660	-0.340	0.390	0.190
2020/01/31 06:36:28.6	91.660	-0.320	0.340	0.180
2020/01/31 06:36:28.7	91.660	-0.300	0.290	0.170
2020/01/31 06:36:28.8	91.660	-0.270	0.230	0.170
2020/01/31 06:36:28.9	91.660	-0.240	0.170	0.160
2020/01/31 06:36:29.0	91.660	-0.200	0.110	0.160
2020/01/31 06:36:29.1	91.660	-0.170	0.040	0.150
2020/01/31 06:36:29.2	91.660	-0.130	-0.030	0.150
2020/01/31 06:36:29.3	91.650	-0.090	-0.100	0.150
2020/01/31 06:36:29.4	91.650	-0.050	-0.170	0.150
2020/01/31 06:36:29.5	91.640	-0.010	-0.240	0.160
2020/01/31 06:36:29.6	91.630	0.040	-0.310	0.160
2020/01/31 06:36:29.7	91.620	0.080	-0.370	0.170
2020/01/31 06:36:29.8	91.610	0.120	-0.440	0.180
2020/01/31 06:36:29.9	91.600	0.160	-0.500	0.190
2020/01/31 06:36:30.0	91.590	0.210	-0.550	0.210
2020/01/31 06:36:30.1	91.570	0.250	-0.610	0.230
2020/01/31 06:36:30.2	91.560	0.290	-0.660	0.250
2020/01/31 06:36:30.3	91.550	0.320	-0.700	0.270
2020/01/31 06:36:30.4	91.530	0.360	-0.740	0.290
2020/01/31 06:36:30.5	91.520	0.390	-0.780	0.310
2020/01/31 06:36:30.6	91.510	0.420	-0.810	0.330
2020/01/31 06:36:30.7	91.500	0.450	-0.830	0.360
2020/01/31 06:36:30.8	91.480	0.470	-0.850	0.380
2020/01/31 06:36:30.9	91.470	0.500	-0.870	0.400
2020/01/31 06:36:31.0	91.470	0.510	-0.880	0.430
2020/01/31 06:36:31.1	91.460	0.530	-0.880	0.450
2020/01/31 06:36:31.2	91.450	0.540	-0.880	0.470
2020/01/31 06:36:31.3	91.440	0.550	-0.880	0.500
2020/01/31 06:36:31.4	91.440	0.560	-0.870	0.520
2020/01/31 06:36:31.5	91.440	0.560	-0.850	0.530
2020/01/31 06:36:31.6	91.440	0.560	-0.830	0.550
2020/01/31 06:36:31.7	91.450	0.560	-0.810	0.570
2020/01/31 06:36:31.8	91.450	0.550	-0.790	0.580
2020/01/31 06:36:31.9	91.450	0.550	-0.760	0.590
2020/01/31 06:36:32.0	91.460	0.540	-0.720	0.610
2020/01/31 06:36:32.1	91.470	0.530	-0.690	0.620
2020/01/31 06:36:32.2	91.480	0.510	-0.650	0.630
2020/01/31 06:36:32.3	91.490	0.500	-0.610	0.640
2020/01/31 06:36:32.4	91.500	0.480	-0.560	0.650
2020/01/31 06:36:32.5	91.520	0.470	-0.520	0.650
2020/01/31 06:36:32.6	91.530	0.450	-0.470	0.660
2020/01/31 06:36:32.7	91.540	0.430	-0.430	0.660
2020/01/31 06:36:32.8	91.560	0.410	-0.380	0.670
2020/01/31 06:36:32.9	91.570	0.390	-0.330	0.670
2020/01/31 06:36:33.0	91.590	0.370	-0.280	0.680
2020/01/31 06:36:33.1	91.600	0.360	-0.230	0.680
2020/01/31 06:36:33.2	91.620	0.340	-0.180	0.680
2020/01/31 06:36:33.3	91.640	0.320	-0.130	0.680
2020/01/31 06:36:33.4	91.650	0.300	-0.080	0.680
2020/01/31 06:36:33.5	91.670	0.280	-0.030	0.690
2020/01/31 06:36:33.6	91.680	0.260	0.010	0.690
2020/01/31 06:36:33.7	91.700	0.250	0.060	0.690
2020/01/31 06:36:33.8	91.720	0.230	0.100	0.680
2020/01/31 06:36:33.9	91.730	0.210	0.150	0.680
2020/01/31 06:36:34.0	91.740	0.200	0.190	0.680
2020/01/31 06:36:34.1	91.760	0.180	0.230	0.680
2020/01/31 06:36:34.2	91.780	0.170	0.270	0.680
2020/01/31 06:36:34.3	91.790	0.150	0.300	0.670
2020/01/31 06:36:34.4	91.810	0.140	0.330	0.670
2020/01/31 06:36:34.5	91.820	0.130	0.360	0.660
2020/01/31 06:36:34.6	91.830	0.110	0.380	0.660
2020/01/31 06:36:34.7	91.840	0.100	0.400	0.650
2020/01/31 06:36:34.8	91.860	0.080	0.420	0.650
2020/01/31 06:36:34.9	91.870	0.070	0.440	0.640
2020/01/31 06:36:35.0	91.880	0.050	0.450	0.640
2020/01/31 06:36:35.1	91.890	0.040	0.450	0.630
2020/01/31 06:36:35.2	91.900	0.020	0.450	0.620
2020/01/31 06:36:35.3	91.910	0.010	0.450	0.620
2020/01/31 06:36:35.4	91.920	-0.010	0.450	0.620
2020/01/31 06:36:35.5	91.940	-0.020	0.440	0.620
2020/01/31 06:36:35.6	91.950	-0.040	0.440	0.610
2020/01/31 06:36:35.7	91.960	-0.060	0.420	0.610
2020/01/31 06:36:35.8	91.970	-0.080	0.410	0.620
2020/01/31 06:36:35.9	91.980	-0.100	0.390	0.620
2020/01/31 06:36:36.0	92.000	-0.120	0.370	0.630
2020/01/31 06:36:36.1	92.010	-0.140	0.350	0.630
2020/01/31 06:36:36.2	92.020	-0.160	0.330	0.650
2020/01/31 06:36:36.3	92.030	-0.180	0.310	0.660
2020/01/31 06:36:36.4	92.040	-0.200	0.280	0.670
2020/01/31 06:36:36.5	92.050	-0.220	0.250	0.690
2020/01/31 06:36:36.6	92.060	-0.240	0.230	0.710
2020/01/31 06:36:36.7	92.060	-0.260	0.200	0.730
2020/01/31 06:36:36.8	92.070	-0.290	0.170	0.760
2020/01/31 06:36:36.9	92.070	-0.310	0.140	0.790
2020/01/31 06:36:37.0	92.070	-0.330	0.110	0.820
2020/01/31 06:36:37.1	92.070	-0.350	0.080	0.850
2020/01/31 06:36:37.2	92.070	-0.370	0.050	0.890
2020/01/31 06:36:37.3	92.060	-0.380	0.020	0.930
2020/01/31 06:36:37.4	92.060	-0.400	-0.010	0.970
2020/01/31 06:36:37.5	92.050	-0.420	-0.040	1.010
2020/01/31 06:36:37.6	92.040	-0.430	-0.070	1.050
2020/01/31 06:36:37.7	92.030	-0.450	-0.090	1.100
2020/01/31 06:36:37.8	92.020	-0.460	-0.120	1.140
2020/01/31 06:36:37.9	92.010	-0.470	-0.140	1.190
2020/01/31 06:36:38.0	91.990	-0.480	-0.170	1.230
2020/01/31 06:36:38.1	91.980	-0.490	-0.190	1.270
2020/01/31 06:36:38.2	91.990	-0.500	-0.210	1.320
2020/01/31 06:36:38.3	91.980	-0.510	-0.230	1.350
2020/01/31 06:36:38.4	91.970	-0.510	-0.260	1.390
2020/01/31 06:36:38.5	91.960	-0.510	-0.280	1.420
2020/01/31 06:36:38.6	91.960	-0.510	-0.300	1.450
2020/01/31 06:36:38.7	91.950	-0.510	-0.320	1.480
2020/01/31 06:36:38.8	91.950	-0.510	-0.340	1.500
2020/01/31 06:36:38.9	91.950	-0.510	-0.360	1.520
2020/01/31 06:36:39.0	91.950	-0.500	-0.370	1.530
2020/01/31 06:36:39.1	91.950	-0.490	-0.390	1.540
2020/01/31 06:36:39.2	91.970	-0.480	-0.410	1.550
2020/01/31 06:36:39.3	91.970	-0.470	-0.430	1.550
2020/01/31 06:36:39.4	91.980	-0.460	-0.450	1.550
2020/01/31 06:36:39.5	92.000	-0.440	-0.470	1.540
2020/01/31 06:36:39.6	92.010	-0.420	-0.490	1.530
2020/01/31 06:36:39.7	92.030	-0.410	-0.510	1.510
2020/01/31 06:36:39.8	92.040	-0.390	-0.530	1.490
2020/01/31 06:36:39.9	92.060	-0.370	-0.550	1.470
2020/01/31 06:36:40.0	92.080	-0.340	-0.570	1.450
2020/01/31 06:36:40.1	92.100	-0.320	-0.580	1.420
2020/01/31 06:36:40.2	92.140	-0.300	-0.600	1.390
2020/01/31 06:36:40.3	92.160	-0.270	-0.610	1.360
2020/01/31 06:36:40.4	92.180	-0.250	-0.620	1.330
2020/01/31 06:36:40.5	92.200	-0.220	-0.630	1.290
2020/01/31 06:36:40.6	92.210	-0.200	-0.640	1.260
2020/01/31 06:36:40.7	92.230	-0.170	-0.640	1.220
2020/01/31 06:36:40.8	92.250	-0.140	-0.650	1.190
2020/01/31 06:36:40.9	92.260	-0.120	-0.650	1.150
2020/01/31 06:36:41.0	92.270	-0.090	-0.640	1.120
2020/01/31 06:36:41.1	92.280	-0.060	-0.630	1.080
2020/01/31 06:36:41.2	92.290	-0.040	-0.620	1.050
2020/01/31 06:36:41.3	92.290	-0.010	-0.610	1.010
2020/01/31 06:36:41.4	92.300	0.020	-0.590	0.980
2020/01/31 06:36:41.5	92.300	0.040	-0.570	0.940
2020/01/31 06:36:41.6	92.300	0.070	-0.550	0.910
2020/01/31 06:36:41.7	92.300	0.090	-0.530	0.870
2020/01/31 06:36:41.8	92.300	0.110	-0.500	0.840
2020/01/31 06:36:41.9	92.300	0.140	-0.470	0.800
2020/01/31 06:36:42.0	92.300	0.160	-0.440	0.770
2020/01/31 06:36:42.1	92.290	0.180	-0.400	0.730
2020/01/31 06:36:42.2	92.290	0.200	-0.370	0.700
2020/01/31 06:36:42.3	92.280	0.220	-0.330	0.660
2020/01/31 06:36:42.4	92.280	0.240	-0.300	0.620
2020/01/31 06:36:42.5	92.280	0.260	-0.260	0.590
2020/01/31 06:36:42.6	92.270	0.280	-0.220	0.550
2020/01/31 06:36:42.7	92.270	0.290	-0.180	0.510
2020/01/31 06:36:42.8	92.270	0.310	-0.150	0.470
2020/01/31 06:36:42.9	92.260	0.330	-0.110	0.440
2020/01/31 06:36:43.0	92.260	0.340	-0.080	0.400
2020/01/31 06:36:43.1	92.260	0.350	-0.050	0.360
2020/01/31 06:36:43.2	92.240	0.370	-0.010	0.320
2020/01/31 06:36:43.3	92.250	0.380	0.020	0.280
2020/01/31 06:36:43.4	92.250	0.390	0.040	0.250
2020/01/31 06:36:43.5	92.250	0.400	0.060	0.210
2020/01/31 06:36:43.6	92.250	0.420	0.080	0.170
2020/01/31 06:36:43.7	92.250	0.430	0.090	0.130
2020/01/31 06:36:43.8	92.260	0.440	0.100	0.100
2020/01/31 06:36:43.9	92.260	0.440	0.110	0.060
2020/01/31 06:36:44.0	92.260	0.450	0.110	0.030
2020/01/31 06:36:44.1	92.270	0.460	0.110	-0.000
2020/01/31 06:36:44.2	92.270	0.470	0.110	-0.030
2020/01/31 06:36:44.3	92.280	0.470	0.100	-0.070
2020/01/31 06:36:44.4	92.280	0.470	0.090	-0.090
2020/01/31 06:36:44.5	92.280	0.480	0.070	-0.120
2020/01/31 06:36:44.6	92.280	0.480	0.060	-0.140
2020/01/31 06:36:44.7	92.280	0.480	0.040	-0.170
2020/01/31 06:36:44.8	92.280	0.480	0.020	-0.190
2020/01/31 06:36:44.9	92.280	0.480	-0.000	-0.200
2020/01/31 06:36:45.0	92.270	0.470	-0.020	-0.220
2020/01/31 06:36:45.1	92.270	0.470	-0.050	-0.230
2020/01/31 06:36:45.2	92.270	0.460	-0.070	-0.240
2020/01/31 06:36:45.3	92.260	0.450	-0.090	-0.250
2020/01/31 06:36:45.4	92.250	0.440	-0.110	-0.260
2020/01/31 06:36:45.5	92.240	0.430	-0.130	-0.260
2020/01/31 06:36:45.6	92.230	0.410	-0.150	-0.260
2020/01/31 06:36:45.7	92.220	0.400	-0.170	-0.260
2020/01/31 06:36:45.8	92.200	0.380	-0.180	-0.260
2020/01/31 06:36:45.9	92.190	0.360	-0.190	-0.250
2020/01/31 06:36:46.0	92.180	0.330	-0.200	-0.250
2020/01/31 06:36:46.1	92.160	0.310	-0.210	-0.230
2020/01/31 06:36:46.2	92.160	0.280	-0.210	-0.220
2020/01/31 06:36:46.3	92.140	0.260	-0.220	-0.210
2020/01/31 06:36:46.4	92.130	0.230	-0.210	-0.190
2020/01/31 06:36:46.5	92.110	0.200	-0.210	-0.170
2020/01/31 06:36:46.6	92.100	0.170	-0.200	-0.140
2020/01/31 06:36:46.7	92.090	0.130	-0.190	-0.120
2020/01/31 06:36:46.8	92.080	0.100	-0.170	-0.090
2020/01/31 06:36:46.9	92.070	0.060	-0.160	-0.070
2020/01/31 06:36:47.0	92.060	0.030	-0.140	-0.040
2020/01/31 06:36:47.1	92.060	-0.000	-0.120	-0.010
2020/01/31 06:36:47.2	92.050	-0.040	-0.100	0.020
2020/01/31 06:36:47.3	92.040	-0.070	-0.080	0.050
2020/01/31 06:36:47.4	92.040	-0.110	-0.050	0.080
2020/01/31 06:36:47.5	92.050	-0.140	-0.030	0.110
2020/01/31 06:36:47.6	92.050	-0.180	-0.010	0.140
2020/01/31 06:36:47.7	92.060	-0.210	0.010	0.170
2020/01/31 06:36:47.8	92.070	-0.240	0.030	0.200
2020/01/31 06:36:47.9	92.080	-0.270	0.050	0.230
2020/01/31 06:36:48.0	92.090	-0.290	0.070	0.250
2020/01/31 06:36:48.1	92.110	-0.320	0.080	0.280
2020/01/31 06:36:48.2	92.120	-0.340	0.100	0.310
2020/01/31 06:36:48.3	92.140	-0.360	0.110	0.330
2020/01/31 06:36:48.4	92.170	-0.380	0.120	0.360
2020/01/31 06:36:48.5	92.190	-0.400	0.130	0.390
2020/01/31 06:36:48.6	92.210	-0.410	0.130	0.410
2020/01/31 06:36:48.7	92.240	-0.420	0.130	0.440
2020/01/31 06:36:48.8	92.270	-0.430	0.130	0.460
2020/01/31 06:36:48.9	92.290	-0.430	0.120	0.490
2020/01/31 06:36:49.0	92.320	-0.440	0.110	0.520
2020/01/31 06:36:49.1	92.350	-0.440	0.100	0.540
2020/01/31 06:36:49.2	92.380	-0.440	0.080	0.580
2020/01/31 06:36:49.3	92.410	-0.430	0.070	0.600
2020/01/31 06:36:49.4	92.430	-0.430	0.050	0.630
2020/01/31 06:36:49.5	92.460	-0.420	0.030	0.660
2020/01/31 06:36:49.6	92.490	-0.410	0.000	0.700
2020/01/31 06:36:49.7	92.510	-0.400	-0.020	0.730
2020/01/31 06:36:49.8	92.530	-0.390	-0.050	0.760
2020/01/31 06:36:49.9	92.560	-0.370	-0.080	0.800
2020/01/31 06:36:50.0	92.580	-0.360	-0.100	0.840
2020/01/31 06:36:50.1	92.600	-0.340	-0.130	0.870
2020/01/31 06:36:50.2	92.620	-0.320	-0.150	0.910
2020/01/31 06:36:50.3	92.630	-0.310	-0.180	0.950
2020/01/31 06:36:50.4	92.650	-0.290	-0.210	0.990
2020/01/31 06:36:50.5	92.660	-0.270	-0.230	1.030
2020/01/31 06:36:50.6	92.670	-0.250	-0.250	1.070
2020/01/31 06:36:50.7	92.680	-0.230	-0.280	1.120
2020/01/31 06:36:50.8	92.680	-0.220	-0.290	1.160
2020/01/31 06:36:50.9	92.690	-0.200	-0.310	1.200
2020/01/31 06:36:51.0	92.690	-0.180	-0.330	1.250
2020/01/31 06:36:51.1	92.690	-0.170	-0.340	1.290
2020/01/31 06:36:51.2	92.700	-0.150	-0.350	1.340
2020/01/31 06:36:51.3	92.700	-0.140	-0.360	1.380
2020/01/31 06:36:51.4	92.690	-0.120	-0.360	1.420
2020/01/31 06:36:51.5	92.690	-0.110	-0.370	1.470
2020/01/31 06:36:51.6	92.680	-0.100	-0.370	1.510
2020/01/31 06:36:51.7	92.670	-0.090	-0.360	1.550
2020/01/31 06:36:51.8	92.670	-0.080	-0.360	1.590
2020/01/31 06:36:51.9	92.660	-0.070	-0.360	1.630
2020/01/31 06:36:52.0	92.640	-0.060	-0.350	1.670
2020/01/31 06:36:52.1	92.630	-0.050	-0.340	1.710
2020/01/31 06:36:52.2	92.630	-0.040	-0.330	1.740
2020/01/31 06:36:52.3	92.610	-0.040	-0.320	1.780
2020/01/31 06:36:52.4	92.600	-0.030	-0.310	1.810
2020/01/31 06:36:52.5	92.590	-0.030	-0.300	1.840
2020/01/31 06:36:52.6	92.570	-0.020	-0.300	1.860
2020/01/31 06:36:52.7	92.560	-0.020	-0.290	1.890
2020/01/31 06:36:52.8	92.550	-0.020	-0.280	1.910
2020/01/31 06:36:52.9	92.530	-0.010	-0.270	1.930
2020/01/31 06:36:53.0	92.520	-0.010	-0.260	1.950
2020/01/31 06:36:53.1	92.500	-0.010	-0.260	1.960
2020/01/31 06:36:53.2	92.500	-0.000	-0.250	1.980
2020/01/31 06:36:53.3	92.480	-0.000	-0.250	1.980
2020/01/31 06:36:53.4	92.470	-0.000	-0.240	1.990
2020/01/31 06:36:53.5	92.460	0.000	-0.240	1.990
2020/01/31 06:36:53.6	92.440	0.000	-0.240	1.990
2020/01/31 06:36:53.7	92.430	0.010	-0.240	1.980
2020/01/31 06:36:53.8	92.420	0.010	-0.240	1.970
2020/01/31 06:36:53.9	92.410	0.020	-0.250	1.960
2020/01/31 06:36:54.0	92.390	0.020	-0.250	1.950
2020/01/31 06:36:54.1	92.380	0.020	-0.260	1.930
2020/01/31 06:36:54.2	92.370	0.030	-0.260	1.900
2020/01/31 06:36:54.3	92.360	0.040	-0.270	1.870
2020/01/31 06:36:54.4	92.350	0.040	-0.280	1.840
2020/01/31 06:36:54.5	92.340	0.050	-0.290	1.810
2020/01/31 06:36:54.6	92.330	0.060	-0.300	1.770
2020/01/31 06:36:54.7	92.310	0.070	-0.310	1.730
2020/01/31 06:36:54.8	92.300	0.080	-0.320	1.690
2020/01/31 06:36:54.9	92.300	0.090	-0.330	1.640
2020/01/31 06:36:55.0	92.290	0.100	-0.340	1.590
2020/01/31 06:36:55.1	92.280	0.110	-0.350	1.540
2020/01/31 06:36:55.2	92.260	0.130	-0.360	1.480
2020/01/31 06:36:55.3	92.250	0.140	-0.370	1.420
2020/01/31 06:36:55.4	92.240	0.150	-0.380	1.360
2020/01/31 06:36:55.5	92.230	0.170	-0.390	1.300
2020/01/31 06:36:55.6	92.230	0.180	-0.390	1.240
2020/01/31 06:36:55.7	92.220	0.200	-0.400	1.170
2020/01/31 06:36:55.8	92.210	0.210	-0.400	1.100
2020/01/31 06:36:55.9	92.210	0.230	-0.400	1.030
2020/01/31 06:36:56.0	92.200	0.240	-0.400	0.960
2020/01/31 06:36:56.1	92.200	0.250	-0.400	0.890
2020/01/31 06:36:56.2	92.200	0.270	-0.400	0.820
2020/01/31 06:36:56.3	92.200	0.280	-0.400	0.750
2020/01/31 06:36:56.4	92.200	0.290	-0.390	0.680
2020/01/31 06:36:56.5	92.200	0.300	-0.380	0.610
2020/01/31 06:36:56.6	92.200	0.310	-0.370	0.540
2020/01/31 06:36:56.7	92.200	0.310	-0.360	0.470
2020/01/31 06:36:56.8	92.200	0.320	-0.340	0.400
2020/01/31 06:36:56.9	92.200	0.320	-0.320	0.330
2020/01/31 06:36:57.0	92.210	0.320	-0.300	0.260
2020/01/31 06:36:57.1	92.210	0.320	-0.280	0.200
2020/01/31 06:36:57.2	92.220	0.320	-0.250	0.130
2020/01/31 06:36:57.3	92.220	0.320	-0.220	0.060
2020/01/31 06:36:57.4	92.220	0.310	-0.200	0.000
2020/01/31 06:36:57.5	92.230	0.300	-0.170	-0.060
2020/01/31 06:36:57.6	92.230	0.290	-0.130	-0.110
2020/01/31 06:36:57.7	92.230	0.280	-0.100	-0.170
2020/01/31 06:36:57.8	92.230	0.260	-0.070	-0.220
2020/01/31 06:36:57.9	92.230	0.250	-0.030	-0.280
2020/01/31 06:36:58.0	92.230	0.230	0.010	-0.320
2020/01/31 06:36:58.1	92.230	0.210	0.040	-0.370
2020/01/31 06:36:58.2	92.220	0.190	0.080	-0.420
2020/01/31 06:36:58.3	92.220	0.170	0.120	-0.460
2020/01/31 06:36:58.4	92.210	0.150	0.150	-0.500
2020/01/31 06:36:58.5	92.210	0.120	0.180	-0.540
2020/01/31 06:36:58.6	92.210	0.100	0.210	-0.580
2020/01/31 06:36:58.7	92.200	0.080	0.240	-0.610
2020/01/31 06:36:58.8	92.200	0.050	0.270	-0.640
2020/01/31 06:36:58.9	92.200	0.030	0.300	-0.670
2020/01/31 06:36:59.0	92.190	0.010	0.320	-0.700
2020/01/31 06:36:59.1	92.190	-0.020	0.330	-0.730
2020/01/31 06:36:59.2	92.170	-0.040	0.350	-0.750
2020/01/31 06:36:59.3	92.170	-0.060	0.360	-0.780
2020/01/31 06:36:59.4	92.170	-0.080	0.360	-0.800
2020/01/31 06:36:59.5	92.170	-0.100	0.370	-0.810
2020/01/31 06:36:59.6	92.170	-0.110	0.360	-0.830
2020/01/31 06:36:59.7	92.180	-0.120	0.360	-0.840
2020/01/31 06:36:59.8	92.180	-0.140	0.340	-0.860
2020/01/31 06:36:59.9	92.190	-0.150	0.330	-0.870
2020/01/31 06:37:00.0	92.190	-0.150	0.310	-0.870
2020/01/31 06:37:00.1	92.200	-0.160	0.290	-0.880
2020/01/31 06:37:00.2	92.200	-0.160	0.260	-0.880
2020/01/31 06:37:00.3	92.210	-0.160	0.240	-0.870
2020/01/31 06:37:00.4	92.220	-0.160	0.210	-0.870
2020/01/31 06:37:00.5	92.230	-0.160	0.180	-0.860
2020/01/31 06:37:00.6	92.240	-0.160	0.140	-0.840
2020/01/31 06:37:00.7	92.260	-0.160	0.110	-0.820
2020/01/31 06:37:00.8	92.270	-0.160	0.080	-0.800
2020/01/31 06:37:00.9	92.280	-0.150	0.040	-0.770
2020/01/31 06:37:01.0	92.290	-0.150	0.010	-0.740
2020/01/31 06:37:01.1	92.300	-0.140	-0.020	-0.710
2020/01/31 06:37:01.2	92.300	-0.140	-0.060	-0.660
2020/01/31 06:37:01.3	92.310	-0.130	-0.090	-0.620
2020/01/31 06:37:01.4	92.320	-0.130	-0.120	-0.570
2020/01/31 06:37:01.5	92.330	-0.120	-0.150	-0.520
2020/01/31 06:37:01.6	92.330	-0.120	-0.180	-0.460
2020/01/31 06:37:01.7	92.330	-0.110	-0.200	-0.400
2020/01/31 06:37:01.8	92.340	-0.110	-0.230	-0.340
2020/01/31 06:37:01.9	92.340	-0.110	-0.260	-0.280
2020/01/31 06:37:02.0	92.340	-0.100	-0.280	-0.210
2020/01/31 06:37:02.1	92.330	-0.100	-0.300	-0.140
2020/01/31 06:37:02.2	92.350	-0.100	-0.330	-0.070
2020/01/31 06:37:02.3	92.340	-0.100	-0.350	0.010
2020/01/31 06:37:02.4	92.340	-0.100	-0.370	0.080
2020/01/31 06:37:02.5	92.330	-0.100	-0.400	0.150
2020/01/31 06:37:02.6	92.330	-0.100	-0.420	0.230
2020/01/31 06:37:02.7	92.320	-0.100	-0.440	0.300
2020/01/31 06:37:02.8	92.320	-0.100	-0.460	0.380
2020/01/31 06:37:02.9	92.320	-0.100	-0.480	0.450
2020/01/31 06:37:03.0	92.310	-0.100	-0.500	0.520
2020/01/31 06:37:03.1	92.310	-0.100	-0.520	0.600
2020/01/31 06:37:03.2	92.320	-0.100	-0.530	0.680
2020/01/31 06:37:03.3	92.310	-0.100	-0.540	0.750
2020/01/31 06:37:03.4	92.310	-0.100	-0.560	0.820
2020/01/31 06:37:03.5	92.310	-0.100	-0.570	0.890
2020/01/31 06:37:03.6	92.310	-0.090	-0.580	0.970
2020/01/31 06:37:03.7	92.300	-0.090	-0.590	1.040
2020/01/31 06:37:03.8	92.300	-0.080	-0.590	1.110
2020/01/31 06:37:03.9	92.290	-0.080	-0.590	1.190
2020/01/31 06:37:04.0	92.290	-0.070	-0.590	1.260
2020/01/31 06:37:04.1	92.280	-0.070	-0.590	1.340
2020/01/31 06:37:04.2	92.290	-0.060	-0.580	1.410
2020/01/31 06:37:04.3	92.280	-0.050	-0.570	1.490
2020/01/31 06:37:04.4	92.270	-0.050	-0.550	1.570
2020/01/31 06:37:04.5	92.260	-0.040	-0.530	1.640
2020/01/31 06:37:04.6	92.250	-0.030	-0.510	1.720
2020/01/31 06:37:04.7	92.240	-0.020	-0.490	1.790
2020/01/31 06:37:04.8	92.230	-0.020	-0.460	1.860
2020/01/31 06:37:04.9	92.220	-0.010	-0.430	1.930
2020/01/31 06:37:05.0	92.210	-0.000	-0.400	2.000
2020/01/31 06:37:05.1	92.200	0.000	-0.360	2.070
2020/01/31 06:37:05.2	92.200	0.010	-0.320	2.140
2020/01/31 06:37:05.3	92.190	0.010	-0.290	2.210
2020/01/31 06:37:05.4	92.170	0.020	-0.250	2.270
2020/01/31 06:37:05.5	92.160	0.020	-0.210	2.330
2020/01/31 06:37:05.6	92.150	0.020	-0.170	2.380
2020/01/31 06:37:05.7	92.140	0.030	-0.130	2.430
2020/01/31 06:37:05.8	92.130	0.030	-0.100	2.480
2020/01/31 06:37:05.9	92.120	0.030	-0.060	2.520
2020/01/31 06:37:06.0	92.100	0.030	-0.030	2.560
2020/01/31 06:37:06.1	92.090	0.020	0.000	2.590
2020/01/31 06:37:06.2	92.090	0.020	0.030	2.610
2020/01/31 06:37:06.3	92.080	0.020	0.060	2.630
2020/01/31 06:37:06.4	92.070	0.010	0.080	2.650
2020/01/31 06:37:06.5	92.070	0.010	0.100	2.660
2020/01/31 06:37:06.6	92.060	-0.000	0.110	2.660
2020/01/31 06:37:06.7	92.050	-0.010	0.130	2.650
2020/01/31 06:37:06.8	92.050	-0.020	0.140	2.640
2020/01/31 06:37:06.9	92.050	-0.030	0.140	2.620
2020/01/31 06:37:07.0	92.040	-0.040	0.140	2.600
2020/01/31 06:37:07.1	92.040	-0.050	0.140	2.570
2020/01/31 06:37:07.2	92.050	-0.060	0.140	2.530
2020/01/31 06:37:07.3	92.050	-0.070	0.130	2.490
2020/01/31 06:37:07.4	92.060	-0.080	0.120	2.440
2020/01/31 06:37:07.5	92.060	-0.090	0.110	2.390
2020/01/31 06:37:07.6	92.070	-0.100	0.090	2.330
2020/01/31 06:37:07.7	92.070	-0.110	0.080	2.260
2020/01/31 06:37:07.8	92.080	-0.110	0.060	2.190
2020/01/31 06:37:07.9	92.090	-0.120	0.040	2.120
2020/01/31 06:37:08.0	92.100	-0.130	0.010	2.050
2020/01/31 06:37:08.1	92.110	-0.140	-0.010	1.970
2020/01/31 06:37:08.2	92.120	-0.140	-0.040	1.880
2020/01/31 06:37:08.3	92.130	-0.150	-0.060	1.800
2020/01/31 06:37:08.4	92.140	-0.150	-0.080	1.720
2020/01/31 06:37:08.5	92.140	-0.150	-0.110	1.630
2020/01/31 06:37:08.6	92.150	-0.150	-0.130	1.550
2020/01/31 06:37:08.7	92.150	-0.150	-0.150	1.460
2020/01/31 06:37:08.8	92.160	-0.150	-0.180	1.370
2020/01/31 06:37:08.9	92.160	-0.140	-0.200	1.280
2020/01/31 06:37:09.0	92.160	-0.140	-0.220	1.200
2020/01/31 06:37:09.1	92.160	-0.130	-0.240	1.110
2020/01/31 06:37:09.2	92.150	-0.120	-0.250	1.030
2020/01/31 06:37:09.3	92.150	-0.110	-0.270	0.940
2020/01/31 06:37:09.4	92.150	-0.100	-0.290	0.860
2020/01/31 06:37:09.5	92.150	-0.080	-0.300	0.780
2020/01/31 06:37:09.6	92.150	-0.070	-0.310	0.700
2020/01/31 06:37:09.7	92.140	-0.050	-0.330	0.620
2020/01/31 06:37:09.8	92.140	-0.030	-0.340	0.540
2020/01/31 06:37:09.9	92.130	-0.020	-0.350	0.460
2020/01/31 06:37:10.0	92.130	0.000	-0.360	0.390
2020/01/31 06:37:10.1	92.130	0.020	-0.360	0.320
2020/01/31 06:37:10.2	92.120	0.040	-0.370	0.240
2020/01/31 06:37:10.3	92.120	0.060	-0.380	0.170
2020/01/31 06:37:10.4	92.120	0.080	-0.380	0.100
2020/01/31 06:37:10.5	92.110	0.100	-0.380	0.040
2020/01/31 06:37:10.6	92.110	0.120	-0.380	-0.030
2020/01/31 06:37:10.7	92.110	0.140	-0.390	-0.100
2020/01/31 06:37:10.8	92.110	0.160	-0.390	-0.160
2020/01/31 06:37:10.9	92.110	0.170	-0.380	-0.220
2020/01/31 06:37:11.0	92.110	0.190	-0.380	-0.280
2020/01/31 06:37:11.1	92.110	0.210	-0.380	-0.340
2020/01/31 06:37:11.2	92.100	0.220	-0.380	-0.400
2020/01/31 06:37:11.3	92.100	0.230	-0.370	-0.450
2020/01/31 06:37:11.4	92.100	0.240	-0.370	-0.510
2020/01/31 06:37:11.5	92.100	0.250	-0.360	-0.560
2020/01/31 06:37:11.6	92.110	0.260	-0.350	-0.610
2020/01/31 06:37:11.7	92.110	0.270	-0.350	-0.660
2020/01/31 06:37:11.8	92.110	0.270	-0.340	-0.710
2020/01/31 06:37:11.9	92.120	0.280	-0.330	-0.750
2020/01/31 06:37:12.0	92.120	0.280	-0.320	-0.790
2020/01/31 06:37:12.1	92.120	0.280	-0.310	-0.830
2020/01/31 06:37:12.2	92.120	0.280	-0.290	-0.860
2020/01/31 06:37:12.3	92.120	0.280	-0.280	-0.900
2020/01/31 06:37:12.4	92.120	0.270	-0.260	-0.930
2020/01/31 06:37:12.5	92.120	0.270	-0.240	-0.950
2020/01/31 06:37:12.6	92.120	0.260	-0.220	-0.970
2020/01/31 06:37:12.7	92.120	0.250	-0.200	-0.990
2020/01/31 06:37:12.8	92.120	0.250	-0.180	-1.000
2020/01/31 06:37:12.9	92.120	0.240	-0.150	-1.010
2020/01/31 06:37:13.0	92.120	0.220	-0.130	-1.020
2020/01/31 06:37:13.1	92.120	0.210	-0.100	-1.020
2020/01/31 06:37:13.2	92.110	0.200	-0.070	-1.020
2020/01/31 06:37:13.3	92.110	0.180	-0.030	-1.010
2020/01/31 06:37:13.4	92.110	0.170	0.000	-1.000
2020/01/31 06:37:13.5	92.110	0.150	0.040	-0.990
2020/01/31 06:37:13.6	92.110	0.140	0.070	-0.970
2020/01/31 06:37:13.7	92.110	0.120	0.110	-0.950
2020/01/31 06:37:13.8	92.110	0.100	0.140	-0.920
2020/01/31 06:37:13.9	92.110	0.080	0.180	-0.900
2020/01/31 06:37:14.0	92.110	0.060	0.210	-0.860
2020/01/31 06:37:14.1	92.110	0.050	0.240	-0.830
2020/01/31 06:37:14.2	92.100	0.030	0.270	-0.790
2020/01/31 06:37:14.3	92.100	0.010	0.300	-0.750
2020/01/31 06:37:14.4	92.100	-0.010	0.320	-0.710
2020/01/31 06:37:14.5	92.100	-0.030	0.340	-0.670
2020/01/31 06:37:14.6	92.110	-0.040	0.360	-0.620
2020/01/31 06:37:14.7	92.110	-0.060	0.370	-0.570
2020/01/31 06:37:14.8	92.120	-0.080	0.380	-0.520
2020/01/31 06:37:14.9	92.120	-0.090	0.380	-0.470
2020/01/31 06:37:15.0	92.130	-0.100	0.380	-0.420
2020/01/31 06:37:15.1	92.130	-0.120	0.370	-0.370
2020/01/31 06:37:15.2	92.140	-0.130	0.360	-0.310
2020/01/31 06:37:15.3	92.150	-0.140	0.350	-0.260
2020/01/31 06:37:15.4	92.160	-0.150	0.330	-0.200
2020/01/31 06:37:15.5	92.160	-0.150	0.300	-0.140
2020/01/31 06:37:15.6	92.170	-0.160	0.270	-0.090
2020/01/31 06:37:15.7	92.180	-0.160	0.230	-0.030
2020/01/31 06:37:15.8	92.190	-0.170	0.200	0.040
2020/01/31 06:37:15.9	92.200	-0.170	0.150	0.100
2020/01/31 06:37:16.0	92.210	-0.170	0.110	0.160
2020/01/31 06:37:16.1	92.220	-0.170	0.060	0.230
2020/01/31 06:37:16.2	92.240	-0.170	0.010	0.300
2020/01/31 06:37:16.3	92.250	-0.170	-0.040	0.370
2020/01/31 06:37:16.4	92.260	-0.170	-0.090	0.440
2020/01/31 06:37:16.5	92.270	-0.160	-0.150	0.510
2020/01/31 06:37:16.6	92.270	-0.160	-0.200	0.580
2020/01/31 06:37:16.7	92.280	-0.150	-0.250	0.650
2020/01/31 06:37:16.8	92.290	-0.150	-0.300	0.730
2020/01/31 06:37:16.9	92.290	-0.140	-0.360	0.800
2020/01/31 06:37:17.0	92.300	-0.140	-0.400	0.880
2020/01/31 06:37:17.1	92.300	-0.130	-0.450	0.950
2020/01/31 06:37:17.2	92.320	-0.120	-0.500	1.030
2020/01/31 06:37:17.3	92.320	-0.110	-0.540	1.100
2020/01/31 06:37:17.4	92.320	-0.100	-0.570	1.180
2020/01/31 06:37:17.5	92.330	-0.090	-0.610	1.250
2020/01/31 06:37:17.6	92.330	-0.080	-0.640	1.330
2020/01/31 06:37:17.7	92.330	-0.080	-0.670	1.400
2020/01/31 06:37:17.8	92.330	-0.070	-0.690	1.470
2020/01/31 06:37:17.9	92.330	-0.060	-0.710	1.540
2020/01/31 06:37:18.0	92.330	-0.050	-0.730	1.610
2020/01/31 06:37:18.1	92.330	-0.040	-0.740	1.680
2020/01/31 06:37:18.2	92.350	-0.030	-0.750	1.750
2020/01/31 06:37:18.3	92.350	-0.020	-0.760	1.810
2020/01/31 06:37:18.4	92.350	-0.010	-0.760	1.880
2020/01/31 06:37:18.5	92.350	-0.000	-0.760	1.930
2020/01/31 06:37:18.6	92.350	0.010	-0.750	1.990
2020/01/31 06:37:18.7	92.350	0.020	-0.750	2.050
2020/01/31 06:37:18.8	92.350	0.020	-0.740	2.100
2020/01/31 06:37:18.9	92.350	0.030	-0.720	2.150
2020/01/31 06:37:19.0	92.350	0.040	-0.710	2.200
2020/01/31 06:37:19.1	92.350	0.040	-0.690	2.240
2020/01/31 06:37:19.2	92.370	0.050	-0.660	2.280
2020/01/31 06:37:19.3	92.370	0.050	-0.640	2.320
2020/01/31 06:37:19.4	92.380	0.050	-0.610	2.360
2020/01/31 06:37:19.5	92.380	0.060	-0.590	2.390
2020/01/31 06:37:19.6	92.390	0.060	-0.560	2.420
2020/01/31 06:37:19.7	92.390	0.060	-0.520	2.450
2020/01/31 06:37:19.8	92.400	0.060	-0.490	2.470
2020/01/31 06:37:19.9	92.410	0.050	-0.460	2.500
2020/01/31 06:37:20.0	92.410	0.050	-0.420	2.520
2020/01/31 06:37:20.1	92.420	0.050	-0.380	2.540
2020/01/31 06:37:20.2	92.420	0.040	-0.340	2.550
2020/01/31 06:37:20.3	92.430	0.030	-0.300	2.560
2020/01/31 06:37:20.4	92.430	0.020	-0.260	2.570
2020/01/31 06:37:20.5	92.430	0.010	-0.220	2.580
2020/01/31 06:37:20.6	92.430	0.000	-0.170	2.580
2020/01/31 06:37:20.7	92.430	-0.010	-0.130	2.580
2020/01/31 06:37:20.8	92.430	-0.020	-0.090	2.580
2020/01/31 06:37:20.9	92.430	-0.030	-0.050	2.570
2020/01/31 06:37:21.0	92.430	-0.050	-0.010	2.550
2020/01/31 06:37:21.1	92.420	-0.060	0.030	2.530
2020/01/31 06:37:21.2	92.430	-0.080	0.070	2.510
2020/01/31 06:37:21.3	92.420	-0.090	0.110	2.480
2020/01/31 06:37:21.4	92.420	-0.110	0.140	2.450
2020/01/31 06:37:21.5	92.410	-0.130	0.180	2.410
2020/01/31 06:37:21.6	92.410	-0.140	0.210	2.360
2020/01/31 06:37:21.7	92.400	-0.160	0.250	2.310
2020/01/31 06:37:21.8	92.390	-0.170	0.280	2.250
2020/01/31 06:37:21.9	92.390	-0.190	0.300	2.190
2020/01/31 06:37:22.0	92.380	-0.200	0.330	2.120
2020/01/31 06:37:22.1	92.380	-0.220	0.350	2.040
2020/01/31 06:37:22.2	92.370	-0.230	0.380	1.950
2020/01/31 06:37:22.3	92.370	-0.240	0.400	1.870
2020/01/31 06:37:22.4	92.360	-0.250	0.410	1.770
2020/01/31 06:37:22.5	92.360	-0.250	0.420	1.680
2020/01/31 06:37:22.6	92.350	-0.260	0.430	1.580
2020/01/31 06:37:22.7	92.350	-0.260	0.430	1.480
2020/01/31 06:37:22.8	92.340	-0.260	0.430	1.370
2020/01/31 06:37:22.9	92.340	-0.260	0.430	1.260
2020/01/31 06:37:23.0	92.330	-0.260	0.420	1.160
2020/01/31 06:37:23.1	92.320	-0.260	0.410	1.050
2020/01/31 06:37:23.2	92.310	-0.250	0.390	0.930
2020/01/31 06:37:23.3	92.300	-0.240	0.370	0.820
2020/01/31 06:37:23.4	92.290	-0.230	0.340	0.710
2020/01/31 06:37:23.5	92.280	-0.210	0.310	0.610
2020/01/31 06:37:23.6	92.270	-0.190	0.280	0.500
2020/01/31 06:37:23.7	92.250	-0.170	0.240	0.400
2020/01/31 06:37:23.8	92.240	-0.150	0.200	0.290
2020/01/31 06:37:23.9	92.230	-0.130	0.150	0.200
2020/01/31 06:37:24.0	92.220	-0.100	0.100	0.100
2020/01/31 06:37:24.1	92.200	-0.070	0.050	0.010
2020/01/31 06:37:24.2	92.180	-0.040	-0.000	-0.090
2020/01/31 06:37:24.3	92.160	-0.010	-0.060	-0.170
2020/01/31 06:37:24.4	92.150	0.020	-0.120	-0.260
2020/01/31 06:37:24.5	92.140	0.060	-0.180	-0.340
2020/01/31 06:37:24.6	92.130	0.090	-0.240	-0.420
2020/01/31 06:37:24.7	92.110	0.130	-0.310	-0.490
2020/01/31 06:37:24.8	92.100	0.160	-0.370	-0.570
2020/01/31 06:37:24.9	92.090	0.200	-0.430	-0.640
2020/01/31 06:37:25.0	92.090	0.230	-0.490	-0.710
2020/01/31 06:37:25.1	92.080	0.270	-0.550	-0.770
2020/01/31 06:37:25.2	92.070	0.300	-0.610	-0.840
2020/01/31 06:37:25.3	92.060	0.340	-0.660	-0.900
2020/01/31 06:37:25.4	92.060	0.370	-0.720	-0.960
2020/01/31 06:37:25.5	92.060	0.400	-0.760	-1.020
2020/01/31 06:37:25.6	92.060	0.420	-0.810	-1.080
2020/01/31 06:37:25.7	92.060	0.450	-0.850	-1.140
2020/01/31 06:37:25.8	92.070	0.470	-0.880	-1.190
2020/01/31 06:37:25.9	92.080	0.490	-0.910	-1.250
2020/01/31 06:37:26.0	92.080	0.500	-0.930	-1.300
2020/01/31 06:37:26.1	92.090	0.510	-0.940	-1.350
2020/01/31 06:37:26.2	92.090	0.520	-0.950	-1.400
2020/01/31 06:37:26.3	92.110	0.520	-0.950	-1.440
2020/01/31 06:37:26.4	92.120	0.520	-0.940	-1.480
2020/01/31 06:37:26.5	92.130	0.520	-0.930	-1.520
2020/01/31 06:37:26.6	92.150	0.510	-0.910	-1.550
2020/01/31 06:37:26.7	92.160	0.500	-0.870	-1.570
2020/01/31 06:37:26.8	92.180	0.480	-0.840	-1.590
2020/01/31 06:37:26.9	92.190	0.460	-0.790	-1.610
2020/01/31 06:37:27.0	92.210	0.440	-0.740	-1.610
2020/01/31 06:37:27.1	92.220	0.410	-0.680	-1.610
2020/01/31 06:37:27.2	92.240	0.380	-0.610	-1.610
2020/01/31 06:37:27.3	92.260	0.340	-0.530	-1.600
2020/01/31 06:37:27.4	92.270	0.300	-0.460	-1.570
2020/01/31 06:37:27.5	92.280	0.260	-0.380	-1.540
2020/01/31 06:37:27.6	92.300	0.210	-0.290	-1.510
2020/01/31 06:37:27.7	92.310	0.170	-0.200	-1.460
2020/01/31 06:37:27.8	92.320	0.120	-0.110	-1.410
2020/01/31 06:37:27.9	92.320	0.070	-0.020	-1.340
2020/01/31 06:37:28.0	92.330	0.020	0.070	-1.280
2020/01/31 06:37:28.1	92.330	-0.030	0.160	-1.200
2020/01/31 06:37:28.2	92.340	-0.090	0.250	-1.110
2020/01/31 06:37:28.3	92.350	-0.140	0.330	-1.020
2020/01/31 06:37:28.4	92.350	-0.190	0.410	-0.920
2020/01/31 06:37:28.5	92.350	-0.240	0.490	-0.820
2020/01/31 06:37:28.6	92.350	-0.290	0.550	-0.720
2020/01/31 06:37:28.7	92.350	-0.330	0.620	-0.610
2020/01/31 06:37:28.8	92.350	-0.380	0.670	-0.500
2020/01/31 06:37:28.9	92.350	-0.420	0.720	-0.380
2020/01/31 06:37:29.0	92.350	-0.460	0.760	-0.270
2020/01/31 06:37:29.1	92.350	-0.500	0.790	-0.150
2020/01/31 06:37:29.2	92.360	-0.530	0.820	-0.040
2020/01/31 06:37:29.3	92.360	-0.560	0.830	0.080
2020/01/31 06:37:29.4	92.360	-0.590	0.840	0.200
2020/01/31 06:37:29.5	92.360	-0.610	0.840	0.310
2020/01/31 06:37:29.6	92.360	-0.630	0.820	0.420
2020/01/31 06:37:29.7	92.370	-0.640	0.800	0.530
2020/01/31 06:37:29.8	92.370	-0.650	0.770	0.640
2020/01/31 06:37:29.9	92.370	-0.650	0.730	0.740
2020/01/31 06:37:30.0	92.380	-0.650	0.690	0.850
2020/01/31 06:37:30.1	92.380	-0.650	0.640	0.950
2020/01/31 06:37:30.2	92.400	-0.640	0.570	1.050
2020/01/31 06:37:30.3	92.410	-0.630	0.510	1.140
2020/01/31 06:37:30.4	92.410	-0.610	0.440	1.230
2020/01/31 06:37:30.5	92.420	-0.590	0.370	1.320
2020/01/31 06:37:30.6	92.430	-0.560	0.290	1.410
2020/01/31 06:37:30.7	92.440	-0.540	0.210	1.490
2020/01/31 06:37:30.8	92.440	-0.500	0.130	1.570
2020/01/31 06:37:30.9	92.450	-0.470	0.040	1.650
2020/01/31 06:37:31.0	92.460	-0.430	-0.040	1.730
2020/01/31 06:37:31.1	92.470	-0.390	-0.130	1.800
2020/01/31 06:37:31.2	92.480	-0.350	-0.210	1.880
2020/01/31 06:37:31.3	92.490	-0.310	-0.300	1.950
2020/01/31 06:37:31.4	92.500	-0.260	-0.380	2.020
2020/01/31 06:37:31.5	92.500	-0.210	-0.460	2.090
2020/01/31 06:37:31.6	92.500	-0.170	-0.540	2.160
2020/01/31 06:37:31.7	92.500	-0.120	-0.610	2.220
2020/01/31 06:37:31.8	92.500	-0.070	-0.680	2.290
2020/01/31 06:37:31.9	92.500	-0.020	-0.750	2.360
2020/01/31 06:37:32.0	92.500	0.030	-0.810	2.420
2020/01/31 06:37:32.1	92.490	0.080	-0.860	2.480
2020/01/31 06:37:32.2	92.490	0.120	-0.920	2.540
2020/01/31 06:37:32.3	92.480	0.170	-0.960	2.600
2020/01/31 06:37:32.4	92.470	0.210	-1.000	2.660
2020/01/31 06:37:32.5	92.450	0.250	-1.040	2.710
2020/01/31 06:37:32.6	92.440	0.290	-1.060	2.760
2020/01/31 06:37:32.7	92.420	0.330	-1.080	2.800
2020/01/31 06:37:32.8	92.410	0.360	-1.100	2.840
2020/01/31 06:37:32.9	92.390	0.390	-1.100	2.880
2020/01/31 06:37:33.0	92.380	0.420	-1.100	2.910
2020/01/31 06:37:33.1	92.360	0.450	-1.100	2.930
2020/01/31 06:37:33.2	92.350	0.470	-1.080	2.950
2020/01/31 06:37:33.3	92.340	0.490	-1.070	2.960
2020/01/31 06:37:33.4	92.320	0.500	-1.040	2.960
2020/01/31 06:37:33.5	92.310	0.510	-1.010	2.960
2020/01/31 06:37:33.6	92.300	0.520	-0.970	2.950
2020/01/31 06:37:33.7	92.290	0.520	-0.930	2.930
2020/01/31 06:37:33.8	92.280	0.520	-0.880	2.910
2020/01/31 06:37:33.9	92.270	0.520	-0.830	2.880
2020/01/31 06:37:34.0	92.260	0.520	-0.770	2.840
2020/01/31 06:37:34.1	92.260	0.510	-0.710	2.790
2020/01/31 06:37:34.2	92.260	0.500	-0.640	2.740
2020/01/31 06:37:34.3	92.250	0.480	-0.570	2.680
2020/01/31 06:37:34.4	92.250	0.470	-0.500	2.620
2020/01/31 06:37:34.5	92.250	0.450	-0.430	2.550
2020/01/31 06:37:34.6	92.250	0.430	-0.350	2.480
2020/01/31 06:37:34.7	92.240	0.410	-0.280	2.410
2020/01/31 06:37:34.8	92.240	0.380	-0.210	2.330
2020/01/31 06:37:34.9	92.240	0.360	-0.130	2.250
2020/01/31 06:37:35.0	92.240	0.330	-0.060	2.160
2020/01/31 06:37:35.1	92.230	0.300	0.010	2.080
2020/01/31 06:37:35.2	92.230	0.280	0.090	1.990
2020/01/31 06:37:35.3	92.220	0.250	0.150	1.900
2020/01/31 06:37:35.4	92.220	0.220	0.220	1.810
2020/01/31 06:37:35.5	92.210	0.190	0.270	1.720
2020/01/31 06:37:35.6	92.210	0.170	0.330	1.630
2020/01/31 06:37:35.7	92.200	0.140	0.380	1.540
2020/01/31 06:37:35.8	92.200	0.110	0.420	1.450
2020/01/31 06:37:35.9	92.190	0.090	0.460	1.360
2020/01/31 06:37:36.0	92.180	0.060	0.490	1.270
2020/01/31 06:37:36.1	92.180	0.040	0.520	1.180
2020/01/31 06:37:36.2	92.160	0.010	0.540	1.090
2020/01/31 06:37:36.3	92.160	-0.010	0.560	0.990
2020/01/31 06:37:36.4	92.160	-0.030	0.560	0.900
2020/01/31 06:37:36.5	92.160	-0.050	0.560	0.810
2020/01/31 06:37:36.6	92.160	-0.070	0.560	0.710
2020/01/31 06:37:36.7	92.160	-0.090	0.540	0.620
2020/01/31 06:37:36.8	92.170	-0.110	0.530	0.530
2020/01/31 06:37:36.9	92.170	-0.120	0.500	0.430
2020/01/31 06:37:37.0	92.180	-0.140	0.470	0.340
2020/01/31 06:37:37.1	92.180	-0.150	0.440	0.250
2020/01/31 06:37:37.2	92.180	-0.160	0.400	0.150
2020/01/31 06:37:37.3	92.190	-0.180	0.360	0.060
2020/01/31 06:37:37.4	92.200	-0.190	0.320	-0.030
2020/01/31 06:37:37.5	92.210	-0.200	0.270	-0.120
2020/01/31 06:37:37.6	92.220	-0.210	0.220	-0.200
2020/01/31 06:37:37.7	92.230	-0.220	0.170	-0.290
2020/01/31 06:37:37.8	92.240	-0.230	0.120	-0.370
2020/01/31 06:37:37.9	92.250	-0.240	0.070	-0.450
2020/01/31 06:37:38.0	92.260	-0.250	0.020	-0.530
2020/01/31 06:37:38.1	92.260	-0.260	-0.030	-0.610
2020/01/31 06:37:38.2	92.270	-0.260	-0.080	-0.680
2020/01/31 06:37:38.3	92.280	-0.270	-0.120	-0.750
2020/01/31 06:37:38.4	92.290	-0.280	-0.170	-0.820
2020/01/31 06:37:38.5	92.290	-0.290	-0.210	-0.880
2020/01/31 06:37:38.6	92.300	-0.300	-0.240	-0.950
2020/01/31 06:37:38.7	92.300	-0.300	-0.280	-1.000
2020/01/31 06:37:38.8	92.300	-0.310	-0.310	-1.060
2020/01/31 06:37:38.9	92.300	-0.320	-0.330	-1.100
2020/01/31 06:37:39.0	92.300	-0.330	-0.350	-1.150
2020/01/31 06:37:39.1	92.300	-0.340	-0.370	-1.180
2020/01/31 06:37:39.2	92.280	-0.340	-0.380	-1.210
2020/01/31 06:37:39.3	92.280	-0.350	-0.380	-1.240
2020/01/31 06:37:39.4	92.270	-0.360	-0.390	-1.260
2020/01/31 06:37:39.5	92.260	-0.360	-0.380	-1.270
2020/01/31 06:37:39.6	92.250	-0.370	-0.380	-1.280
2020/01/31 06:37:39.7	92.230	-0.370	-0.370	-1.290
2020/01/31 06:37:39.8	92.220	-0.380	-0.350	-1.280
2020/01/31 06:37:39.9	92.200	-0.380	-0.340	-1.270
2020/01/31 06:37:40.0	92.180	-0.380	-0.320	-1.260
2020/01/31 06:37:40.1	92.160	-0.380	-0.300	-1.240
2020/01/31 06:37:40.2	92.140	-0.380	-0.270	-1.210
2020/01/31 06:37:40.3	92.120	-0.380	-0.240	-1.170
2020/01/31 06:37:40.4	92.090	-0.380	-0.220	-1.140
2020/01/31 06:37:40.5	92.070	-0.380	-0.190	-1.100
2020/01/31 06:37:40.6	92.050	-0.370	-0.170	-1.060
2020/01/31 06:37:40.7	92.020	-0.360	-0.150	-1.010
2020/01/31 06:37:40.8	92.000	-0.350	-0.120	-0.960
2020/01/31 06:37:40.9	91.970	-0.340	-0.100	-0.910
2020/01/31 06:37:41.0	91.950	-0.320	-0.090	-0.850
2020/01/31 06:37:41.1	91.930	-0.310	-0.070	-0.800
2020/01/31 06:37:41.2	91.890	-0.290	-0.060	-0.740
2020/01/31 06:37:41.3	91.870	-0.260	-0.060	-0.680
2020/01/31 06:37:41.4	91.850	-0.240	-0.060	-0.620
2020/01/31 06:37:41.5	91.840	-0.210	-0.060	-0.560
2020/01/31 06:37:41.6	91.820	-0.180	-0.070	-0.500
2020/01/31 06:37:41.7	91.810	-0.150	-0.080	-0.450
2020/01/31 06:37:41.8	91.810	-0.120	-0.100	-0.390
2020/01/31 06:37:41.9	91.800	-0.080	-0.130	-0.330
2020/01/31 06:37:42.0	91.800	-0.050	-0.150	-0.280
2020/01/31 06:37:42.1	91.800	-0.010	-0.190	-0.230
2020/01/31 06:37:42.2	91.810	0.030	-0.220	-0.170
2020/01/31 06:37:42.3	91.820	0.070	-0.260	-0.120
2020/01/31 06:37:42.4	91.830	0.110	-0.310	-0.080
2020/01/31 06:37:42.5	91.840	0.160	-0.350	-0.040
2020/01/31 06:37:42.6	91.860	0.200	-0.400	0.010
2020/01/31 06:37:42.7	91.880	0.250	-0.450	0.050
2020/01/31 06:37:42.8	91.910	0.290	-0.500	0.080
2020/01/31 06:37:42.9	91.930	0.330	-0.560	0.120
2020/01/31 06:37:43.0	91.960	0.370	-0.610	0.160
2020/01/31 06:37:43.1	91.990	0.410	-0.660	0.190
2020/01/31 06:37:43.2	92.010	0.450	-0.710	0.230
2020/01/31 06:37:43.3	92.040	0.490	-0.760	0.260
2020/01/31 06:37:43.4	92.070	0.530	-0.800	0.300
2020/01/31 06:37:43.5	92.100	0.560	-0.840	0.330
2020/01/31 06:37:43.6	92.130	0.590	-0.880	0.370
2020/01/31 06:37:43.7	92.160	0.620	-0.900	0.400
2020/01/31 06:37:43.8	92.190	0.650	-0.930	0.440
2020/01/31 06:37:43.9	92.220	0.670	-0.940	0.480
2020/01/31 06:37:44.0	92.250	0.680	-0.950	0.530
2020/01/31 06:37:44.1	92.270	0.700	-0.950	0.570
2020/01/31 06:37:44.2	92.300	0.710	-0.940	0.620
2020/01/31 06:37:44.3	92.320	0.720	-0.920	0.670
2020/01/31 06:37:44.4	92.330	0.720	-0.890	0.720
2020/01/31 06:37:44.5	92.350	0.720	-0.860	0.770
2020/01/31 06:37:44.6	92.350	0.710	-0.810	0.820
2020/01/31 06:37:44.7	92.360	0.700	-0.760	0.880
2020/01/31 06:37:44.8	92.360	0.690	-0.700	0.940
2020/01/31 06:37:44.9	92.360	0.670	-0.630	0.990
2020/01/31 06:37:45.0	92.350	0.640	-0.550	1.060
2020/01/31 06:37:45.1	92.340	0.620	-0.460	1.120
2020/01/31 06:37:45.2	92.350	0.590	-0.370	1.180
2020/01/31 06:37:45.3	92.330	0.560	-0.280	1.240
2020/01/31 06:37:45.4	92.320	0.520	-0.180	1.310
2020/01/31 06:37:45.5	92.300	0.480	-0.080	1.370
2020/01/31 06:37:45.6	92.280	0.440	0.030	1.430
2020/01/31 06:37:45.7	92.250	0.390	0.130	1.490
2020/01/31 06:37:45.8	92.230	0.350	0.230	1.540
2020/01/31 06:37:45.9	92.200	0.300	0.330	1.600
2020/01/31 06:37:46.0	92.180	0.250	0.430	1.650
2020/01/31 06:37:46.1	92.150	0.200	0.530	1.710
2020/01/31 06:37:46.2	92.140	0.150	0.620	1.760
2020/01/31 06:37:46.3	92.120	0.100	0.710	1.800
2020/01/31 06:37:46.4	92.090	0.050	0.780	1.850
2020/01/31 06:37:46.5	92.070	0.000	0.850	1.890
2020/01/31 06:37:46.6	92.040	-0.050	0.910	1.930
2020/01/31 06:37:46.7	92.020	-0.090	0.970	1.960
2020/01/31 06:37:46.8	91.990	-0.140	1.010	2.000
2020/01/31 06:37:46.9	91.970	-0.180	1.040	2.020
2020/01/31 06:37:47.0	91.950	-0.220	1.070	2.050
2020/01/31 06:37:47.1	91.930	-0.260	1.080	2.070
2020/01/31 06:37:47.2	91.920	-0.300	1.080	2.100
2020/01/31 06:37:47.3	91.900	-0.340	1.080	2.110
2020/01/31 06:37:47.4	91.890	-0.370	1.060	2.120
2020/01/31 06:37:47.5	91.870	-0.400	1.040	2.130
2020/01/31 06:37:47.6	91.860	-0.430	1.000	2.140
2020/01/31 06:37:47.7	91.850	-0.450	0.960	2.140
2020/01/31 06:37:47.8	91.840	-0.480	0.910	2.130
2020/01/31 06:37:47.9	91.830	-0.500	0.860	2.120
2020/01/31 06:37:48.0	91.820	-0.520	0.790	2.110
2020/01/31 06:37:48.1	91.820	-0.530	0.720	2.100
2020/01/31 06:37:48.2	91.830	-0.550	0.650	2.080
2020/01/31 06:37:48.3	91.820	-0.560	0.570	2.050
2020/01/31 06:37:48.4	91.820	-0.570	0.480	2.030
2020/01/31 06:37:48.5	91.820	-0.570	0.400	2.000
2020/01/31 06:37:48.6	91.820	-0.580	0.310	1.960
2020/01/31 06:37:48.7	91.830	-0.580	0.220	1.930
2020/01/31 06:37:48.8	91.830	-0.580	0.130	1.890
2020/01/31 06:37:48.9	91.830	-0.580	0.040	1.850
2020/01/31 06:37:49.0	91.830	-0.570	-0.050	1.810
2020/01/31 06:37:49.1	91.840	-0.570	-0.150	1.760
2020/01/31 06:37:49.2	91.840	-0.560	-0.240	1.710
2020/01/31 06:37:49.3	91.840	-0.550	-0.320	1.660
2020/01/31 06:37:49.4	91.850	-0.540	-0.410	1.610
2020/01/31 06:37:49.5	91.850	-0.530	-0.490	1.560
2020/01/31 06:37:49.6	91.850	-0.520	-0.570	1.500
2020/01/31 06:37:49.7	91.850	-0.500	-0.640	1.450
2020/01/31 06:37:49.8	91.850	-0.490	-0.710	1.390
2020/01/31 06:37:49.9	91.860	-0.470	-0.770	1.330
2020/01/31 06:37:50.0	91.860	-0.450	-0.840	1.270
2020/01/31 06:37:50.1	91.860	-0.440	-0.890	1.210
2020/01/31 06:37:50.2	91.840	-0.420	-0.940	1.150
2020/01/31 06:37:50.3	91.840	-0.400	-0.990	1.090
2020/01/31 06:37:50.4	91.840	-0.370	-1.030	1.030
2020/01/31 06:37:50.5	91.840	-0.350	-1.060	0.970
2020/01/31 06:37:50.6	91.840	-0.330	-1.090	0.910
2020/01/31 06:37:50.7	91.840	-0.300	-1.110	0.850
2020/01/31 06:37:50.8	91.830	-0.280	-1.120	0.790
2020/01/31 06:37:50.9	91.830	-0.250	-1.140	0.740
2020/01/31 06:37:51.0	91.830	-0.220	-1.140	0.680
2020/01/31 06:37:51.1	91.830	-0.190	-1.140	0.630
2020/01/31 06:37:51.2	91.820	-0.160	-1.130	0.570
2020/01/31 06:37:51.3	91.810	-0.130	-1.120	0.520
2020/01/31 06:37:51.4	91.810	-0.100	-1.110	0.470
2020/01/31 06:37:51.5	91.810	-0.070	-1.090	0.420
2020/01/31 06:37:51.6	91.800	-0.040	-1.070	0.370
2020/01/31 06:37:51.7	91.800	-0.010	-1.040	0.330
2020/01/31 06:37:51.8	91.790	0.020	-1.010	0.290
2020/01/31 06:37:51.9	91.790	0.050	-0.980	0.250
2020/01/31 06:37:52.0	91.780	0.080	-0.940	0.210
2020/01/31 06:37:52.1	91.770	0.110	-0.900	0.170
2020/01/31 06:37:52.2	91.740	0.140	-0.860	0.150
2020/01/31 06:37:52.3	91.730	0.170	-0.810	0.110
2020/01/31 06:37:52.4	91.720	0.200	-0.760	0.080
2020/01/31 06:37:52.5	91.710	0.220	-0.710	0.050
2020/01/31 06:37:52.6	91.700	0.250	-0.660	0.030
2020/01/31 06:37:52.7	91.690	0.270	-0.610	0.000
2020/01/31 06:37:52.8	91.670	0.290	-0.550	-0.020
2020/01/31 06:37:52.9	91.660	0.310	-0.490	-0.040
2020/01/31 06:37:53.0	91.650	0.330	-0.440	-0.060
2020/01/31 06:37:53.1	91.630	0.340	-0.380	-0.080
2020/01/31 06:37:53.2	91.610	0.350	-0.320	-0.100
2020/01/31 06:37:53.3	91.590	0.360	-0.260	-0.110
2020/01/31 06:37:53.4	91.570	0.370	-0.200	-0.130
2020/01/31 06:37:53.5	91.560	0.380	-0.150	-0.140
2020/01/31 06:37:53.6	91.550	0.380	-0.100	-0.160
2020/01/31 06:37:53.7	91.530	0.380	-0.040	-0.170
2020/01/31 06:37:53.8	91.520	0.380	0.000	-0.180
2020/01/31 06:37:53.9	91.510	0.380	0.050	-0.190
2020/01/31 06:37:54.0	91.490	0.370	0.090	-0.210
2020/01/31 06:37:54.1	91.490	0.370	0.130	-0.220
2020/01/31 06:37:54.2	91.470	0.360	0.170	-0.230
2020/01/31 06:37:54.3	91.470	0.350	0.200	-0.240
2020/01/31 06:37:54.4	91.460	0.340	0.230	-0.260
2020/01/31 06:37:54.5	91.460	0.330	0.250	-0.270
2020/01/31 06:37:54.6	91.460	0.310	0.270	-0.280
2020/01/31 06:37:54.7	91.460	0.300	0.280	-0.300
2020/01/31 06:37:54.8	91.470	0.290	0.290	-0.310
2020/01/31 06:37:54.9	91.470	0.280	0.300	-0.320
2020/01/31 06:37:55.0	91.480	0.260	0.300	-0.340
2020/01/31 06:37:55.1	91.490	0.250	0.300	-0.350
2020/01/31 06:37:55.2	91.500	0.240	0.300	-0.360
2020/01/31 06:37:55.3	91.510	0.230	0.290	-0.360
2020/01/31 06:37:55.4	91.520	0.220	0.280	-0.370
2020/01/31 06:37:55.5	91.530	0.210	0.270	-0.370
2020/01/31 06:37:55.6	91.540	0.200	0.250	-0.370
2020/01/31 06:37:55.7	91.550	0.200	0.230	-0.360
2020/01/31 06:37:55.8	91.570	0.190	0.210	-0.350
2020/01/31 06:37:55.9	91.580	0.190	0.180	-0.340
2020/01/31 06:37:56.0	91.590	0.180	0.160	-0.330
2020/01/31 06:37:56.1	91.600	0.180	0.130	-0.310
2020/01/31 06:37:56.2	91.600	0.180	0.100	-0.280
2020/01/31 06:37:56.3	91.610	0.170	0.080	-0.250
2020/01/31 06:37:56.4	91.620	0.170	0.050	-0.230
2020/01/31 06:37:56.5	91.630	0.170	0.030	-0.200
2020/01/31 06:37:56.6	91.640	0.170	0.010	-0.170
2020/01/31 06:37:56.7	91.650	0.170	-0.020	-0.140
2020/01/31 06:37:56.8	91.670	0.170	-0.030	-0.100
2020/01/31 06:37:56.9	91.680	0.160	-0.050	-0.060
2020/01/31 06:37:57.0	91.690	0.160	-0.060	-0.030
2020/01/31 06:37:57.1	91.700	0.160	-0.070	0.010
2020/01/31 06:37:57.2	91.730	0.150	-0.080	0.050
2020/01/31 06:37:57.3	91.740	0.140	-0.090	0.100
2020/01/31 06:37:57.4	91.750	0.130	-0.090	0.140
2020/01/31 06:37:57.5	91.770	0.120	-0.090	0.190
2020/01/31 06:37:57.6	91.780	0.110	-0.080	0.230
2020/01/31 06:37:57.7	91.790	0.100	-0.080	0.280
2020/01/31 06:37:57.8	91.800	0.090	-0.070	0.330
2020/01/31 06:37:57.9	91.810	0.070	-0.060	0.380
2020/01/31 06:37:58.0	91.820	0.050	-0.040	0.440
2020/01/31 06:37:58.1	91.820	0.030	-0.030	0.490
2020/01/31 06:37:58.2	91.820	0.010	-0.010	0.550
2020/01/31 06:37:58.3	91.820	-0.010	0.010	0.600
2020/01/31 06:37:58.4	91.830	-0.030	0.030	0.660
2020/01/31 06:37:58.5	91.820	-0.050	0.050	0.710
2020/01/31 06:37:58.6	91.820	-0.070	0.070	0.770
2020/01/31 06:37:58.7	91.820	-0.100	0.090	0.820
2020/01/31 06:37:58.8	91.810	-0.120	0.110	0.870
2020/01/31 06:37:58.9	91.800	-0.140	0.120	0.930
2020/01/31 06:37:59.0	91.790	-0.160	0.140	0.980
2020/01/31 06:37:59.1	91.780	-0.180	0.160	1.030
2020/01/31 06:37:59.2	91.780	-0.200	0.180	1.080
2020/01/31 06:37:59.3	91.760	-0.220	0.190	1.130
2020/01/31 06:37:59.4	91.740	-0.240	0.200	1.180
2020/01/31 06:37:59.5	91.730	-0.250	0.210	1.230
2020/01/31 06:37:59.6	91.710	-0.270	0.220	1.280
2020/01/31 06:37:59.7	91.690	-0.280	0.220	1.320
2020/01/31 06:37:59.8	91.660	-0.290	0.220	1.370
2020/01/31 06:37:59.9	91.640	-0.290	0.210	1.410
2020/01/31 06:38:00.0	91.620	-0.300	0.210	1.450
2020/01/31 06:38:00.1	91.590	-0.300	0.190	1.490
2020/01/31 06:38:00.2	91.580	-0.300	0.170	1.530
2020/01/31 06:38:00.3	91.560	-0.290	0.150	1.570
2020/01/31 06:38:00.4	91.530	-0.290	0.130	1.600
2020/01/31 06:38:00.5	91.510	-0.280	0.100	1.630
2020/01/31 06:38:00.6	91.490	-0.270	0.070	1.650
2020/01/31 06:38:00.7	91.460	-0.260	0.040	1.680
2020/01/31 06:38:00.8	91.440	-0.240	-0.000	1.700
2020/01/31 06:38:00.9	91.420	-0.220	-0.040	1.710
2020/01/31 06:38:01.0	91.410	-0.200	-0.090	1.720
2020/01/31 06:38:01.1	91.390	-0.180	-0.140	1.730
2020/01/31 06:38:01.2	91.380	-0.160	-0.190	1.730
2020/01/31 06:38:01.3	91.370	-0.140	-0.240	1.730
2020/01/31 06:38:01.4	91.370	-0.110	-0.290	1.720
2020/01/31 06:38:01.5	91.360	-0.090	-0.350	1.710
2020/01/31 06:38:01.6	91.360	-0.060	-0.400	1.700
2020/01/31 06:38:01.7	91.370	-0.040	-0.450	1.680
2020/01/31 06:38:01.8	91.380	-0.010	-0.510	1.660
2020/01/31 06:38:01.9	91.390	0.020	-0.560	1.630
2020/01/31 06:38:02.0	91.400	0.040	-0.610	1.610
2020/01/31 06:38:02.1	91.420	0.070	-0.660	1.580
2020/01/31 06:38:02.2	91.440	0.090	-0.710	1.550
2020/01/31 06:38:02.3	91.460	0.120	-0.760	1.510
2020/01/31 06:38:02.4	91.480	0.140	-0.800	1.480
2020/01/31 06:38:02.5	91.510	0.160	-0.840	1.450
2020/01/31 06:38:02.6	91.530	0.180	-0.870	1.410
2020/01/31 06:38:02.7	91.560	0.200	-0.900	1.380
2020/01/31 06:38:02.8	91.590	0.220	-0.920	1.340
2020/01/31 06:38:02.9	91.620	0.230	-0.940	1.300
2020/01/31 06:38:03.0	91.650	0.250	-0.950	1.270
2020/01/31 06:38:03.1	91.680	0.260	-0.960	1.230
2020/01/31 06:38:03.2	91.710	0.270	-0.960	1.190
2020/01/31 06:38:03.3	91.740	0.280	-0.960	1.160
2020/01/31 06:38:03.4	91.770	0.290	-0.950	1.120
2020/01/31 06:38:03.5	91.800	0.290	-0.940	1.080
2020/01/31 06:38:03.6	91.830	0.290	-0.920	1.050
2020/01/31 06:38:03.7	91.860	0.300	-0.890	1.010
2020/01/31 06:38:03.8	91.890	0.300	-0.860	0.970
2020/01/31 06:38:03.9	91.910	0.290	-0.830	0.940
2020/01/31 06:38:04.0	91.940	0.290	-0.790	0.900
2020/01/31 06:38:04.1	91.970	0.290	-0.750	0.860
2020/01/31 06:38:04.2	92.000	0.280	-0.700	0.830
2020/01/31 06:38:04.3	92.030	0.280	-0.650	0.790
2020/01/31 06:38:04.4	92.050	0.270	-0.590	0.750
2020/01/31 06:38:04.5	92.070	0.260	-0.540	0.720
2020/01/31 06:38:04.6	92.090	0.250	-0.480	0.680
2020/01/31 06:38:04.7	92.110	0.240	-0.410	0.640
2020/01/31 06:38:04.8	92.130	0.230	-0.350	0.610
2020/01/31 06:38:04.9	92.150	0.220	-0.290	0.570
2020/01/31 06:38:05.0	92.170	0.200	-0.220	0.540
2020/01/31 06:38:05.1	92.180	0.190	-0.160	0.510
2020/01/31 06:38:05.2	92.200	0.170	-0.090	0.480
2020/01/31 06:38:05.3	92.210	0.160	-0.030	0.460
2020/01/31 06:38:05.4	92.210	0.140	0.030	0.430
2020/01/31 06:38:05.5	92.220	0.120	0.090	0.410
2020/01/31 06:38:05.6	92.220	0.100	0.150	0.390
2020/01/31 06:38:05.7	92.220	0.080	0.210	0.380
2020/01/31 06:38:05.8	92.210	0.060	0.260	0.370
2020/01/31 06:38:05.9	92.210	0.040	0.310	0.360
2020/01/31 06:38:06.0	92.200	0.020	0.360	0.360
2020/01/31 06:38:06.1	92.180	-0.000	0.400	0.350
2020/01/31 06:38:06.2	92.170	-0.030	0.450	0.360
2020/01/31 06:38:06.3	92.150	-0.050	0.480	0.360
2020/01/31 06:38:06.4	92.130	-0.070	0.510	0.360
2020/01/31 06:38:06.5	92.110	-0.100	0.540	0.370
2020/01/31 06:38:06.6	92.080	-0.120	0.560	0.380
2020/01/31 06:38:06.7	92.060	-0.150	0.580	0.390
2020/01/31 06:38:06.8	92.040	-0.170	0.590	0.400
2020/01/31 06:38:06.9	92.010	-0.200	0.590	0.410
2020/01/31 06:38:07.0	91.980	-0.220	0.600	0.420
2020/01/31 06:38:07.1	91.960	-0.240	0.590	0.440
2020/01/31 06:38:07.2	91.940	-0.270	0.580	0.450
2020/01/31 06:38:07.3	91.920	-0.290	0.570	0.460
2020/01/31 06:38:07.4	91.900	-0.310	0.550	0.470
2020/01/31 06:38:07.5	91.880	-0.330	0.530	0.480
2020/01/31 06:38:07.6	91.860	-0.350	0.500	0.490
2020/01/31 06:38:07.7	91.840	-0.370	0.480	0.500
2020/01/31 06:38:07.8	91.830	-0.390	0.440	0.510
2020/01/31 06:38:07.9	91.820	-0.400	0.410	0.510
2020/01/31 06:38:08.0	91.810	-0.410	0.370	0.520
2020/01/31 06:38:08.1	91.800	-0.430	0.330	0.520
2020/01/31 06:38:08.2	91.790	-0.430	0.280	0.520
2020/01/31 06:38:08.3	91.780	-0.440	0.240	0.520
2020/01/31 06:38:08.4	91.780	-0.450	0.190	0.520
2020/01/31 06:38:08.5	91.770	-0.450	0.140	0.520
2020/01/31 06:38:08.6	91.770	-0.450	0.100	0.520
2020/01/31 06:38:08.7	91.770	-0.450	0.050	0.520
2020/01/31 06:38:08.8	91.770	-0.450	-0.000	0.510
2020/01/31 06:38:08.9	91.770	-0.440	-0.050	0.510
2020/01/31 06:38:09.0	91.770	-0.430	-0.100	0.500
2020/01/31 06:38:09.1	91.760	-0.420	-0.150	0.490
2020/01/31 06:38:09.2	91.760	-0.410	-0.200	0.490
2020/01/31 06:38:09.3	91.760	-0.400	-0.240	0.480
2020/01/31 06:38:09.4	91.760	-0.380	-0.280	0.470
2020/01/31 06:38:09.5	91.760	-0.360	-0.320	0.460
2020/01/31 06:38:09.6	91.760	-0.340	-0.360	0.450
2020/01/31 06:38:09.7	91.760	-0.320	-0.400	0.440
2020/01/31 06:38:09.8	91.760	-0.290	-0.430	0.420
2020/01/31 06:38:09.9	91.760	-0.270	-0.470	0.410
2020/01/31 06:38:10.0	91.770	-0.240	-0.500	0.390
2020/01/31 06:38:10.1	91.770	-0.220	-0.520	0.370
2020/01/31 06:38:10.2	91.780	-0.190	-0.550	0.360
2020/01/31 06:38:10.3	91.790	-0.160	-0.570	0.340
2020/01/31 06:38:10.4	91.800	-0.130	-0.590	0.320
2020/01/31 06:38:10.5	91.810	-0.100	-0.600	0.290
2020/01/31 06:38:10.6	91.820	-0.070	-0.620	0.270
2020/01/31 06:38:10.7	91.840	-0.040	-0.630	0.250
2020/01/31 06:38:10.8	91.850	-0.010	-0.640	0.230
2020/01/31 06:38:10.9	91.870	0.030	-0.650	0.200
2020/01/31 06:38:11.0	91.890	0.060	-0.660	0.180
2020/01/31 06:38:11.1	91.910	0.090	-0.660	0.160
2020/01/31 06:38:11.2	91.920	0.120	-0.660	0.140
2020/01/31 06:38:11.3	91.950	0.150	-0.670	0.120
2020/01/31 06:38:11.4	91.970	0.180	-0.670	0.100
2020/01/31 06:38:11.5	91.990	0.210	-0.670	0.080
2020/01/31 06:38:11.6	92.020	0.230	-0.670	0.060
2020/01/31 06:38:11.7	92.050	0.260	-0.670	0.050
2020/01/31 06:38:11.8	92.070	0.290	-0.660	0.030
2020/01/31 06:38:11.9	92.100	0.310	-0.660	0.020
2020/01/31 06:38:12.0	92.130	0.330	-0.650	0.010
2020/01/31 06:38:12.1	92.160	0.350	-0.650	0.010
2020/01/31 06:38:12.2	92.190	0.370	-0.640	0.010
2020/01/31 06:38:12.3	92.220	0.390	-0.630	0.010
2020/01/31 06:38:12.4	92.250	0.410	-0.620	0.010
2020/01/31 06:38:12.5	92.280	0.420	-0.600	0.010
2020/01/31 06:38:12.6	92.300	0.430	-0.590	0.020
2020/01/31 06:38:12.7	92.330	0.440	-0.570	0.030
2020/01/31 06:38:12.8	92.350	0.440	-0.550	0.050
2020/01/31 06:38:12.9	92.370	0.450	-0.530	0.070
2020/01/31 06:38:13.0	92.390	0.450	-0.510	0.090
2020/01/31 06:38:13.1	92.410	0.450	-0.480	0.110
2020/01/31 06:38:13.2	92.430	0.440	-0.450	0.140
2020/01/31 06:38:13.3	92.440	0.440	-0.410	0.180
2020/01/31 06:38:13.4	92.450	0.430	-0.370	0.210
2020/01/31 06:38:13.5	92.460	0.420	-0.330	0.250
2020/01/31 06:38:13.6	92.470	0.400	-0.290	0.290
2020/01/31 06:38:13.7	92.480	0.380	-0.240	0.330
2020/01/31 06:38:13.8	92.480	0.360	-0.190	0.370
2020/01/31 06:38:13.9	92.490	0.340	-0.130	0.410
2020/01/31 06:38:14.0	92.490	0.310	-0.080	0.460
2020/01/31 06:38:14.1	92.480	0.290	-0.020	0.510
2020/01/31 06:38:14.2	92.490	0.260	0.050	0.550
2020/01/31 06:38:14.3	92.480	0.220	0.110	0.600
2020/01/31 06:38:14.4	92.480	0.190	0.170	0.650
2020/01/31 06:38:14.5	92.470	0.160	0.240	0.690
2020/01/31 06:38:14.6	92.460	0.120	0.300	0.740
2020/01/31 06:38:14.7	92.440	0.090	0.360	0.780
2020/01/31 06:38:14.8	92.430	0.050	0.420	0.830
2020/01/31 06:38:14.9	92.410	0.020	0.480	0.870
2020/01/31 06:38:15.0	92.390	-0.020	0.540	0.920
2020/01/31 06:38:15.1	92.370	-0.050	0.590	0.960
2020/01/31 06:38:15.2	92.350	-0.080	0.630	1.000
2020/01/31 06:38:15.3	92.330	-0.120	0.670	1.040
2020/01/31 06:38:15.4	92.300	-0.140	0.700	1.080
2020/01/31 06:38:15.5	92.280	-0.170	0.730	1.110
2020/01/31 06:38:15.6	92.250	-0.190	0.750	1.150
2020/01/31 06:38:15.7	92.230	-0.210	0.760	1.180
2020/01/31 06:38:15.8	92.200	-0.230	0.760	1.210
2020/01/31 06:38:15.9	92.170	-0.240	0.760	1.240
2020/01/31 06:38:16.0	92.150	-0.250	0.740	1.260
2020/01/31 06:38:16.1	92.120	-0.260	0.720	1.290
2020/01/31 06:38:16.2	92.100	-0.260	0.690	1.310
2020/01/31 06:38:16.3	92.080	-0.250	0.650	1.330
2020/01/31 06:38:16.4	92.050	-0.250	0.600	1.340
2020/01/31 06:38:16.5	92.030	-0.230	0.550	1.350
2020/01/31 06:38:16.6	92.010	-0.220	0.480	1.360
2020/01/31 06:38:16.7	92.000	-0.200	0.410	1.370
2020/01/31 06:38:16.8	91.980	-0.180	0.330	1.370
2020/01/31 06:38:16.9	91.970	-0.150	0.250	1.370
2020/01/31 06:38:17.0	91.960	-0.120	0.160	1.360
2020/01/31 06:38:17.1	91.950	-0.090	0.070	1.360
2020/01/31 06:38:17.2	91.940	-0.060	-0.040	1.350
2020/01/31 06:38:17.3	91.940	-0.020	-0.140	1.340
2020/01/31 06:38:17.4	91.940	0.020	-0.240	1.320
2020/01/31 06:38:17.5	91.940	0.050	-0.340	1.300
2020/01/31 06:38:17.6	91.950	0.090	-0.450	1.280
2020/01/31 06:38:17.7	91.950	0.130	-0.550	1.260
2020/01/31 06:38:17.8	91.960	0.170	-0.650	1.240
2020/01/31 06:38:17.9	91.970	0.210	-0.750	1.210
2020/01/31 06:38:18.0	91.990	0.250	-0.840	1.180
2020/01/31 06:38:18.1	92.000	0.290	-0.930	1.150
2020/01/31 06:38:18.2	92.010	0.320	-1.010	1.120
2020/01/31 06:38:18.3	92.030	0.350	-1.080	1.090
2020/01/31 06:38:18.4	92.050	0.380	-1.150	1.050
2020/01/31 06:38:18.5	92.070	0.410	-1.210	1.020
2020/01/31 06:38:18.6	92.100	0.430	-1.250	0.980
2020/01/31 06:38:18.7	92.120	0.440	-1.290	0.940
2020/01/31 06:38:18.8	92.140	0.460	-1.320	0.900
2020/01/31 06:38:18.9	92.160	0.470	-1.330	0.860
2020/01/31 06:38:19.0	92.190	0.470	-1.340	0.820
2020/01/31 06:38:19.1	92.210	0.470	-1.330	0.780
2020/01/31 06:38:19.2	92.230	0.460	-1.310	0.740
2020/01/31 06:38:19.3	92.250	0.450	-1.280	0.700
2020/01/31 06:38:19.4	92.270	0.430	-1.240	0.660
2020/01/31 06:38:19.5	92.290	0.410	-1.190	0.620
2020/01/31 06:38:19.6	92.310	0.380	-1.120	0.580
2020/01/31 06:38:19.7	92.330	0.350	-1.050	0.540
2020/01/31 06:38:19.8	92.340	0.320	-0.960	0.510
2020/01/31 06:38:19.9	92.360	0.280	-0.870	0.480
2020/01/31 06:38:20.0	92.370	0.240	-0.770	0.450
2020/01/31 06:38:20.1	92.380	0.190	-0.660	0.430
2020/01/31 06:38:20.2	92.390	0.140	-0.540	0.400
2020/01/31 06:38:20.3	92.400	0.090	-0.420	0.390
2020/01/31 06:38:20.4	92.410	0.030	-0.300	0.370
2020/01/31 06:38:20.5	92.410	-0.020	-0.170	0.360
2020/01/31 06:38:20.6	92.420	-0.080	-0.050	0.350
2020/01/31 06:38:20.7	92.420	-0.140	0.080	0.340
2020/01/31 06:38:20.8	92.430	-0.200	0.210	0.340
2020/01/31 06:38:20.9	92.430	-0.250	0.330	0.340
2020/01/31 06:38:21.0	92.430	-0.310	0.450	0.340
2020/01/31 06:38:21.1	92.430	-0.370	0.560	0.340
2020/01/31 06:38:21.2	92.440	-0.420	0.670	0.350
2020/01/31 06:38:21.3	92.440	-0.470	0.770	0.350
2020/01/31 06:38:21.4	92.440	-0.520	0.860	0.360
2020/01/31 06:38:21.5	92.440	-0.570	0.940	0.370
2020/01/31 06:38:21.6	92.440	-0.610	1.020	0.380
2020/01/31 06:38:21.7	92.430	-0.650	1.080	0.390
2020/01/31 06:38:21.8	92.430	-0.680	1.130	0.400
2020/01/31 06:38:21.9	92.430	-0.710	1.160	0.410
2020/01/31 06:38:22.0	92.420	-0.740	1.190	0.420
2020/01/31 06:38:22.1	92.420	-0.760	1.200	0.430
2020/01/31 06:38:22.2	92.420	-0.770	1.200	0.440
2020/01/31 06:38:22.3	92.420	-0.780	1.180	0.450
2020/01/31 06:38:22.4	92.410	-0.790	1.160	0.460
2020/01/31 06:38:22.5	92.410	-0.780	1.120	0.470
2020/01/31 06:38:22.6	92.400	-0.780	1.060	0.480
2020/01/31 06:38:22.7	92.390	-0.770	1.000	0.490
2020/01/31 06:38:22.8	92.390	-0.750	0.930	0.500
2020/01/31 06:38:22.9	92.380	-0.730	0.840	0.520
2020/01/31 06:38:23.0	92.380	-0.700	0.750	0.530
2020/01/31 06:38:23.1	92.370	-0.670	0.640	0.540
2020/01/31 06:38:23.2	92.370	-0.630	0.530	0.550
2020/01/31 06:38:23.3	92.360	-0.590	0.410	0.560
2020/01/31 06:38:23.4	92.350	-0.540	0.290	0.580
2020/01/31 06:38:23.5	92.350	-0.490	0.160	0.590
2020/01/31 06:38:23.6	92.340	-0.440	0.030	0.600
2020/01/31 06:38:23.7	92.330	-0.390	-0.110	0.620
2020/01/31 06:38:23.8	92.330	-0.330	-0.240	0.640
2020/01/31 06:38:23.9	92.320	-0.270	-0.380	0.650
2020/01/31 06:38:24.0	92.310	-0.210	-0.510	0.670
2020/01/31 06:38:24.1	92.300	-0.150	-0.640	0.690
2020/01/31 06:38:24.2	92.300	-0.090	-0.770	0.700
2020/01/31 06:38:24.3	92.290	-0.030	-0.890	0.720
2020/01/31 06:38:24.4	92.280	0.020	-1.000	0.730
2020/01/31 06:38:24.5	92.270	0.080	-1.100	0.750
2020/01/31 06:38:24.6	92.270	0.140	-1.200	0.760
2020/01/31 06:38:24.7	92.260	0.190	-1.280	0.770
2020/01/31 06:38:24.8	92.260	0.240	-1.350	0.780
2020/01/31 06:38:24.9	92.260	0.290	-1.420	0.790
2020/01/31 06:38:25.0	92.260	0.330	-1.460	0.800
2020/01/31 06:38:25.1	92.260	0.370	-1.500	0.810
2020/01/31 06:38:25.2	92.260	0.400	-1.520	0.820
2020/01/31 06:38:25.3	92.260	0.430	-1.530	0.820
2020/01/31 06:38:25.4	92.270	0.460	-1.520	0.830
2020/01/31 06:38:25.5	92.270	0.480	-1.500	0.830
2020/01/31 06:38:25.6	92.270	0.490	-1.470	0.840
2020/01/31 06:38:25.7	92.280	0.500	-1.420	0.840
2020/01/31 06:38:25.8	92.280	0.510	-1.360	0.850
2020/01/31 06:38:25.9	92.280	0.510	-1.290	0.850
2020/01/31 06:38:26.0	92.290	0.500	-1.210	0.850
2020/01/31 06:38:26.1	92.290	0.490	-1.120	0.860
2020/01/31 06:38:26.2	92.290	0.480	-1.010	0.860
2020/01/31 06:38:26.3	92.290	0.460	-0.900	0.860
2020/01/31 06:38:26.4	92.300	0.440	-0.790	0.870
2020/01/31 06:38:26.5	92.300	0.420	-0.670	0.870
2020/01/31 06:38:26.6	92.300	0.390	-0.550	0.870
2020/01/31 06:38:26.7	92.300	0.360	-0.430	0.880
2020/01/31 06:38:26.8	92.300	0.330	-0.310	0.880
2020/01/31 06:38:26.9	92.310	0.300	-0.190	0.880
2020/01/31 06:38:27.0	92.310	0.270	-0.070	0.880
2020/01/31 06:38:27.1	92.310	0.230	0.040	0.880
2020/01/31 06:38:27.2	92.300	0.200	0.160	0.890
2020/01/31 06:38:27.3	92.300	0.170	0.260	0.890
2020/01/31 06:38:27.4	92.300	0.140	0.360	0.880
2020/01/31 06:38:27.5	92.310	0.110	0.450	0.880
2020/01/31 06:38:27.6	92.310	0.080	0.530	0.870
2020/01/31 06:38:27.7	92.310	0.050	0.600	0.860
2020/01/31 06:38:27.8	92.320	0.030	0.660	0.850
2020/01/31 06:38:27.9	92.320	0.010	0.710	0.840
2020/01/31 06:38:28.0	92.330	-0.010	0.750	0.820
2020/01/31 06:38:28.1	92.340	-0.030	0.780	0.800
2020/01/31 06:38:28.2	92.350	-0.040	0.800	0.780
2020/01/31 06:38:28.3	92.360	-0.050	0.810	0.760
2020/01/31 06:38:28.4	92.380	-0.050	0.810	0.730
2020/01/31 06:38:28.5	92.390	-0.060	0.800	0.710
2020/01/31 06:38:28.6	92.400	-0.050	0.780	0.680
2020/01/31 06:38:28.7	92.420	-0.050	0.750	0.660
2020/01/31 06:38:28.8	92.430	-0.040	0.710	0.630
2020/01/31 06:38:28.9	92.450	-0.030	0.670	0.600
2020/01/31 06:38:29.0	92.470	-0.020	0.620	0.570
2020/01/31 06:38:29.1	92.490	-0.010	0.560	0.550
2020/01/31 06:38:29.2	92.510	0.010	0.500	0.520
2020/01/31 06:38:29.3	92.530	0.020	0.440	0.490
2020/01/31 06:38:29.4	92.550	0.040	0.370	0.470
2020/01/31 06:38:29.5	92.570	0.060	0.300	0.440
2020/01/31 06:38:29.6	92.590	0.080	0.230	0.420
2020/01/31 06:38:29.7	92.610	0.100	0.160	0.390
2020/01/31 06:38:29.8	92.630	0.110	0.090	0.370
2020/01/31 06:38:29.9	92.650	0.130	0.030	0.350
2020/01/31 06:38:30.0	92.670	0.150	-0.040	0.330
2020/01/31 06:38:30.1	92.690	0.160	-0.110	0.310
2020/01/31 06:38:30.2	92.710	0.180	-0.170	0.290
2020/01/31 06:38:30.3	92.720	0.190	-0.230	0.280
2020/01/31 06:38:30.4	92.740	0.200	-0.280	0.260
2020/01/31 06:38:30.5	92.750	0.210	-0.340	0.250
2020/01/31 06:38:30.6	92.760	0.220	-0.380	0.240
2020/01/31 06:38:30.7	92.770	0.220	-0.430	0.230
2020/01/31 06:38:30.8	92.780	0.220	-0.460	0.230
2020/01/31 06:38:30.9	92.780	0.220	-0.500	0.230
2020/01/31 06:38:31.0	92.780	0.220	-0.530	0.230
2020/01/31 06:38:31.1	92.780	0.220	-0.550	0.240
2020/01/31 06:38:31.2	92.780	0.210	-0.570	0.250
2020/01/31 06:38:31.3	92.780	0.210	-0.580	0.260
2020/01/31 06:38:31.4	92.770	0.200	-0.590	0.280
2020/01/31 06:38:31.5	92.770	0.190	-0.600	0.300
2020/01/31 06:38:31.6	92.760	0.170	-0.600	0.320
2020/01/31 06:38:31.7	92.750	0.160	-0.600	0.350
2020/01/31 06:38:31.8	92.740	0.140	-0.590	0.380
2020/01/31 06:38:31.9	92.720	0.130	-0.590	0.410
2020/01/31 06:38:32.0	92.710	0.110	-0.570	0.450
2020/01/31 06:38:32.1	92.700	0.090	-0.560	0.480
2020/01/31 06:38:32.2	92.690	0.070	-0.540	0.530
2020/01/31 06:38:32.3	92.680	0.060	-0.530	0.570
2020/01/31 06:38:32.4	92.670	0.040	-0.510	0.610
2020/01/31 06:38:32.5	92.660	0.020	-0.480	0.650
2020/01/31 06:38:32.6	92.650	-0.000	-0.460	0.700
2020/01/31 06:38:32.7	92.640	-0.020	-0.440	0.740
2020/01/31 06:38:32.8	92.630	-0.040	-0.420	0.780
2020/01/31 06:38:32.9	92.630	-0.050	-0.390	0.830
2020/01/31 06:38:33.0	92.620	-0.070	-0.370	0.870
2020/01/31 06:38:33.1	92.620	-0.080	-0.340	0.910
2020/01/31 06:38:33.2	92.610	-0.100	-0.320	0.950
2020/01/31 06:38:33.3	92.610	-0.110	-0.290	0.990
2020/01/31 06:38:33.4	92.610	-0.120	-0.270	1.020
2020/01/31 06:38:33.5	92.620	-0.130	-0.250	1.060
2020/01/31 06:38:33.6	92.620	-0.140	-0.230	1.090
2020/01/31 06:38:33.7	92.620	-0.150	-0.210	1.120
2020/01/31 06:38:33.8	92.630	-0.160	-0.190	1.150
2020/01/31 06:38:33.9	92.630	-0.160	-0.170	1.180
2020/01/31 06:38:34.0	92.640	-0.170	-0.150	1.210
2020/01/31 06:38:34.1	92.650	-0.170	-0.130	1.230
2020/01/31 06:38:34.2	92.650	-0.170	-0.110	1.250
2020/01/31 06:38:34.3	92.660	-0.170	-0.090	1.270
2020/01/31 06:38:34.4	92.670	-0.170	-0.080	1.290
2020/01/31 06:38:34.5	92.670	-0.170	-0.060	1.300
2020/01/31 06:38:34.6	92.680	-0.170	-0.050	1.310
2020/01/31 06:38:34.7	92.680	-0.160	-0.030	1.320
2020/01/31 06:38:34.8	92.690	-0.160	-0.020	1.330
2020/01/31 06:38:34.9	92.690	-0.160	-0.010	1.330
2020/01/31 06:38:35.0	92.700	-0.150	0.000	1.340
2020/01/31 06:38:35.1	92.700	-0.150	0.010	1.340
2020/01/31 06:38:35.2	92.700	-0.140	0.030	1.340
2020/01/31 06:38:35.3	92.700	-0.130	0.030	1.330
2020/01/31 06:38:35.4	92.710	-0.130	0.040	1.330
2020/01/31 06:38:35.5	92.710	-0.120	0.050	1.320
2020/01/31 06:38:35.6	92.710	-0.120	0.050	1.310
2020/01/31 06:38:35.7	92.710	-0.110	0.060	1.290
2020/01/31 06:38:35.8	92.720	-0.100	0.060	1.280
2020/01/31 06:38:35.9	92.720	-0.100	0.060	1.260
2020/01/31 06:38:36.0	92.730	-0.090	0.060	1.240
2020/01/31 06:38:36.1	92.730	-0.080	0.060	1.220
2020/01/31 06:38:36.2	92.730	-0.080	0.050	1.200
2020/01/31 06:38:36.3	92.740	-0.070	0.050	1.170
2020/01/31 06:38:36.4	92.750	-0.060	0.040	1.140
2020/01/31 06:38:36.5	92.760	-0.060	0.030	1.110
2020/01/31 06:38:36.6	92.770	-0.050	0.020	1.080
2020/01/31 06:38:36.7	92.780	-0.040	0.010	1.050
2020/01/31 06:38:36.8	92.790	-0.030	-0.000	1.010
2020/01/31 06:38:36.9	92.800	-0.020	-0.020	0.980
2020/01/31 06:38:37.0	92.820	-0.010	-0.030	0.940
2020/01/31 06:38:37.1	92.830	-0.000	-0.050	0.900
2020/01/31 06:38:37.2	92.850	0.010	-0.070	0.860
2020/01/31 06:38:37.3	92.860	0.020	-0.090	0.820
2020/01/31 06:38:37.4	92.880	0.030	-0.110	0.780
2020/01/31 06:38:37.5	92.900	0.040	-0.140	0.740
2020/01/31 06:38:37.6	92.920	0.050	-0.160	0.700
2020/01/31 06:38:37.7	92.940	0.060	-0.180	0.660
2020/01/31 06:38:37.8	92.960	0.070	-0.200	0.630
2020/01/31 06:38:37.9	92.990	0.080	-0.220	0.590
2020/01/31 06:38:38.0	93.010	0.090	-0.240	0.550
2020/01/31 06:38:38.1	93.030	0.110	-0.260	0.520
2020/01/31 06:38:38.2	93.050	0.110	-0.280	0.480
2020/01/31 06:38:38.3	93.070	0.120	-0.290	0.450
2020/01/31 06:38:38.4	93.090	0.130	-0.300	0.420
2020/01/31 06:38:38.5	93.100	0.140	-0.310	0.390
2020/01/31 06:38:38.6	93.120	0.140	-0.320	0.370
2020/01/31 06:38:38.7	93.130	0.150	-0.320	0.340
2020/01/31 06:38:38.8	93.140	0.150	-0.320	0.320
2020/01/31 06:38:38.9	93.150	0.150	-0.320	0.300
2020/01/31 06:38:39.0	93.160	0.150	-0.310	0.290
2020/01/31 06:38:39.1	93.160	0.150	-0.300	0.270
2020/01/31 06:38:39.2	93.160	0.150	-0.290	0.260
2020/01/31 06:38:39.3	93.150	0.140	-0.280	0.250
2020/01/31 06:38:39.4	93.150	0.140	-0.260	0.250
2020/01/31 06:38:39.5	93.140	0.130	-0.240	0.240
2020/01/31 06:38:39.6	93.140	0.120	-0.220	0.240
2020/01/31 06:38:39.7	93.130	0.110	-0.200	0.240
2020/01/31 06:38:39.8	93.110	0.100	-0.180	0.230
2020/01/31 06:38:39.9	93.100	0.080	-0.160	0.240
2020/01/31 06:38:40.0	93.080	0.070	-0.140	0.240
2020/01/31 06:38:40.1	93.070	0.050	-0.120	0.240
2020/01/31 06:38:40.2	93.050	0.040	-0.100	0.240
2020/01/31 06:38:40.3	93.030	0.020	-0.080	0.240
2020/01/31 06:38:40.4	93.010	0.000	-0.060	0.250
2020/01/31 06:38:40.5	92.990	-0.020	-0.050	0.250
2020/01/31 06:38:40.6	92.980	-0.040	-0.040	0.260
2020/01/31 06:38:40.7	92.960	-0.050	-0.030	0.260
2020/01/31 06:38:40.8	92.940	-0.070	-0.020	0.260
2020/01/31 06:38:40.9	92.920	-0.090	-0.020	0.270
2020/01/31 06:38:41.0	92.910	-0.110	-0.010	0.270
2020/01/31 06:38:41.1	92.900	-0.130	-0.020	0.270
2020/01/31 06:38:41.2	92.880	-0.140	-0.020	0.280
2020/01/31 06:38:41.3	92.870	-0.160	-0.030	0.290
2020/01/31 06:38:41.4	92.860	-0.170	-0.040	0.290
2020/01/31 06:38:41.5	92.850	-0.180	-0.060	0.300
2020/01/31 06:38:41.6	92.840	-0.200	-0.080	0.310
2020/01/31 06:38:41.7	92.840	-0.210	-0.100	0.320
2020/01/31 06:38:41.8	92.830	-0.210	-0.120	0.330
2020/01/31 06:38:41.9	92.830	-0.220	-0.140	0.350
2020/01/31 06:38:42.0	92.830	-0.230	-0.170	0.360
2020/01/31 06:38:42.1	92.820	-0.230	-0.190	0.380
2020/01/31 06:38:42.2	92.830	-0.230	-0.220	0.410
2020/01/31 06:38:42.3	92.830	-0.230	-0.250	0.430
2020/01/31 06:38:42.4	92.830	-0.230	-0.280	0.460
2020/01/31 06:38:42.5	92.830	-0.230	-0.300	0.480
2020/01/31 06:38:42.6	92.830	-0.220	-0.330	0.510
2020/01/31 06:38:42.7	92.830	-0.220	-0.350	0.550
2020/01/31 06:38:42.8	92.830	-0.210	-0.370	0.580
2020/01/31 06:38:42.9	92.840	-0.200	-0.390	0.610
2020/01/31 06:38:43.0	92.840	-0.190	-0.410	0.640
2020/01/31 06:38:43.1	92.840	-0.180	-0.430	0.680
2020/01/31 06:38:43.2	92.840	-0.160	-0.440	0.710
2020/01/31 06:38:43.3	92.840	-0.150	-0.450	0.750
2020/01/31 06:38:43.4	92.840	-0.130	-0.460	0.770
2020/01/31 06:38:43.5	92.850	-0.120	-0.460	0.800
2020/01/31 06:38:43.6	92.850	-0.100	-0.460	0.820
2020/01/31 06:38:43.7	92.850	-0.090	-0.460	0.840
2020/01/31 06:38:43.8	92.850	-0.070	-0.460	0.860
2020/01/31 06:38:43.9	92.860	-0.050	-0.450	0.870
2020/01/31 06:38:44.0	92.860	-0.040	-0.440	0.880
2020/01/31 06:38:44.1	92.870	-0.020	-0.420	0.890
2020/01/31 06:38:44.2	92.870	-0.010	-0.400	0.890
2020/01/31 06:38:44.3	92.880	0.010	-0.390	0.880
2020/01/31 06:38:44.4	92.890	0.030	-0.370	0.870
2020/01/31 06:38:44.5	92.900	0.040	-0.350	0.860
2020/01/31 06:38:44.6	92.910	0.060	-0.320	0.850
2020/01/31 06:38:44.7	92.930	0.070	-0.300	0.830
2020/01/31 06:38:44.8	92.940	0.090	-0.270	0.800
2020/01/31 06:38:44.9	92.960	0.100	-0.240	0.780
2020/01/31 06:38:45.0	92.970	0.110	-0.220	0.750
2020/01/31 06:38:45.1	92.990	0.120	-0.190	0.730
2020/01/31 06:38:45.2	93.010	0.130	-0.160	0.700
2020/01/31 06:38:45.3	93.030	0.140	-0.130	0.670
2020/01/31 06:38:45.4	93.050	0.150	-0.100	0.640
2020/01/31 06:38:45.5	93.060	0.160	-0.070	0.610
2020/01/31 06:38:45.6	93.080	0.170	-0.040	0.590
2020/01/31 06:38:45.7	93.100	0.180	-0.010	0.560
2020/01/31 06:38:45.8	93.110	0.180	0.010	0.540
2020/01/31 06:38:45.9	93.130	0.190	0.040	0.520
2020/01/31 06:38:46.0	93.140	0.190	0.060	0.500
2020/01/31 06:38:46.1	93.150	0.200	0.090	0.490
2020/01/31 06:38:46.2	93.160	0.200	0.110	0.480
2020/01/31 06:38:46.3	93.170	0.210	0.120	0.470
2020/01/31 06:38:46.4	93.180	0.210	0.140	0.470
2020/01/31 06:38:46.5	93.180	0.210	0.150	0.470
2020/01/31 06:38:46.6	93.190	0.210	0.160	0.470
2020/01/31 06:38:46.7	93.190	0.210	0.160	0.480
2020/01/31 06:38:46.8	93.200	0.220	0.170	0.480
2020/01/31 06:38:46.9	93.200	0.220	0.170	0.490
2020/01/31 06:38:47.0	93.200	0.220	0.160	0.510
2020/01/31 06:38:47.1	93.200	0.220	0.160	0.520
2020/01/31 06:38:47.2	93.200	0.220	0.150	0.540
2020/01/31 06:38:47.3	93.200	0.210	0.140	0.550
2020/01/31 06:38:47.4	93.200	0.210	0.120	0.570
2020/01/31 06:38:47.5	93.200	0.210	0.100	0.590
2020/01/31 06:38:47.6	93.200	0.210	0.080	0.600
2020/01/31 06:38:47.7	93.200	0.210	0.060	0.620
2020/01/31 06:38:47.8	93.200	0.200	0.040	0.640
2020/01/31 06:38:47.9	93.200	0.200	0.010	0.650
2020/01/31 06:38:48.0	93.200	0.190	-0.010	0.670
2020/01/31 06:38:48.1	93.190	0.190	-0.040	0.690
2020/01/31 06:38:48.2	93.190	0.180	-0.060	0.700
2020/01/31 06:38:48.3	93.190	0.170	-0.090	0.720
2020/01/31 06:38:48.4	93.180	0.160	-0.120	0.740
2020/01/31 06:38:48.5	93.170	0.150	-0.140	0.750
2020/01/31 06:38:48.6	93.170	0.140	-0.160	0.760
2020/01/31 06:38:48.7	93.160	0.130	-0.190	0.780
2020/01/31 06:38:48.8	93.150	0.120	-0.210	0.790
2020/01/31 06:38:48.9	93.140	0.100	-0.230	0.800
2020/01/31 06:38:49.0	93.130	0.080	-0.250	0.820
2020/01/31 06:38:49.1	93.110	0.060	-0.260	0.830
2020/01/31 06:38:49.2	93.120	0.040	-0.270	0.840
2020/01/31 06:38:49.3	93.100	0.020	-0.280	0.850
2020/01/31 06:38:49.4	93.090	0.000	-0.290	0.870
2020/01/31 06:38:49.5	93.080	-0.020	-0.290	0.880
2020/01/31 06:38:49.6	93.070	-0.050	-0.300	0.890
2020/01/31 06:38:49.7	93.060	-0.070	-0.300	0.910
2020/01/31 06:38:49.8	93.040	-0.100	-0.290	0.920
2020/01/31 06:38:49.9	93.030	-0.130	-0.290	0.940
2020/01/31 06:38:50.0	93.020	-0.160	-0.280	0.960
2020/01/31 06:38:50.1	93.010	-0.180	-0.270	0.980
2020/01/31 06:38:50.2	92.990	-0.210	-0.250	1.000
2020/01/31 06:38:50.3	92.980	-0.240	-0.240	1.020
2020/01/31 06:38:50.4	92.970	-0.270	-0.220	1.040
2020/01/31 06:38:50.5	92.960	-0.290	-0.210	1.060
2020/01/31 06:38:50.6	92.940	-0.320	-0.190	1.080
2020/01/31 06:38:50.7	92.930	-0.340	-0.170	1.110
2020/01/31 06:38:50.8	92.930	-0.370	-0.150	1.130
2020/01/31 06:38:50.9	92.920	-0.390	-0.140	1.150
2020/01/31 06:38:51.0	92.910	-0.410	-0.120	1.180
2020/01/31 06:38:51.1	92.900	-0.420	-0.100	1.200
2020/01/31 06:38:51.2	92.890	-0.440	-0.080	1.220
2020/01/31 06:38:51.3	92.880	-0.450	-0.070	1.240
2020/01/31 06:38:51.4	92.880	-0.450	-0.060	1.250
2020/01/31 06:38:51.5	92.870	-0.460	-0.060	1.270
2020/01/31 06:38:51.6	92.870	-0.450	-0.060	1.280
2020/01/31 06:38:51.7	92.870	-0.450	-0.060	1.290
2020/01/31 06:38:51.8	92.870	-0.440	-0.060	1.300
2020/01/31 06:38:51.9	92.880	-0.430	-0.070	1.300
2020/01/31 06:38:52.0	92.880	-0.410	-0.090	1.300
2020/01/31 06:38:52.1	92.880	-0.390	-0.100	1.300
2020/01/31 06:38:52.2	92.890	-0.360	-0.120	1.290
2020/01/31 06:38:52.3	92.900	-0.330	-0.150	1.280
2020/01/31 06:38:52.4	92.910	-0.300	-0.180	1.270
2020/01/31 06:38:52.5	92.920	-0.260	-0.210	1.250
2020/01/31 06:38:52.6	92.930	-0.220	-0.240	1.230
2020/01/31 06:38:52.7	92.940	-0.180	-0.280	1.210
2020/01/31 06:38:52.8	92.960	-0.140	-0.310	1.180
2020/01/31 06:38:52.9	92.970	-0.090	-0.350	1.160
2020/01/31 06:38:53.0	92.990	-0.040	-0.390	1.130
2020/01/31 06:38:53.1	93.010	0.000	-0.420	1.100
2020/01/31 06:38:53.2	93.020	0.050	-0.460	1.070
2020/01/31 06:38:53.3	93.030	0.100	-0.490	1.040
2020/01/31 06:38:53.4	93.050	0.150	-0.520	1.010
2020/01/31 06:38:53.5	93.060	0.200	-0.550	0.980
2020/01/31 06:38:53.6	93.080	0.240	-0.570	0.950
2020/01/31 06:38:53.7	93.090	0.280	-0.590	0.920
2020/01/31 06:38:53.8	93.100	0.320	-0.600	0.900
2020/01/31 06:38:53.9	93.110	0.360	-0.610	0.870
2020/01/31 06:38:54.0	93.120	0.390	-0.610	0.850
2020/01/31 06:38:54.1	93.130	0.420	-0.610	0.830
2020/01/31 06:38:54.2	93.130	0.440	-0.600	0.810
2020/01/31 06:38:54.3	93.130	0.460	-0.580	0.790
2020/01/31 06:38:54.4	93.130	0.480	-0.560	0.770
2020/01/31 06:38:54.5	93.130	0.480	-0.540	0.750
2020/01/31 06:38:54.6	93.120	0.490	-0.510	0.730
2020/01/31 06:38:54.7	93.120	0.490	-0.470	0.710
2020/01/31 06:38:54.8	93.110	0.480	-0.430	0.700
2020/01/31 06:38:54.9	93.090	0.470	-0.390	0.680
2020/01/31 06:38:55.0	93.080	0.450	-0.340	0.670
2020/01/31 06:38:55.1	93.070	0.430	-0.290	0.650
2020/01/31 06:38:55.2	93.050	0.410	-0.230	0.630
2020/01/31 06:38:55.3	93.030	0.380	-0.170	0.620
2020/01/31 06:38:55.4	93.010	0.340	-0.110	0.600
2020/01/31 06:38:55.5	92.990	0.300	-0.050	0.570
2020/01/31 06:38:55.6	92.970	0.260	0.010	0.550
2020/01/31 06:38:55.7	92.950	0.220	0.070	0.530
2020/01/31 06:38:55.8	92.920	0.170	0.120	0.500
2020/01/31 06:38:55.9	92.900	0.130	0.180	0.480
2020/01/31 06:38:56.0	92.880	0.080	0.230	0.450
2020/01/31 06:38:56.1	92.860	0.030	0.280	0.420
2020/01/31 06:38:56.2	92.850	-0.020	0.340	0.390
2020/01/31 06:38:56.3	92.830	-0.060	0.380	0.370
2020/01/31 06:38:56.4	92.810	-0.110	0.420	0.340
2020/01/31 06:38:56.5	92.790	-0.150	0.450	0.300
2020/01/31 06:38:56.6	92.770	-0.200	0.480	0.270
2020/01/31 06:38:56.7	92.760	-0.230	0.500	0.240
2020/01/31 06:38:56.8	92.740	-0.270	0.520	0.210
2020/01/31 06:38:56.9	92.730	-0.300	0.520	0.180
2020/01/31 06:38:57.0	92.720	-0.330	0.520	0.150
2020/01/31 06:38:57.1	92.710	-0.350	0.520	0.130
2020/01/31 06:38:57.2	92.710	-0.360	0.500	0.100
2020/01/31 06:38:57.3	92.700	-0.380	0.480	0.080
2020/01/31 06:38:57.4	92.690	-0.380	0.450	0.060
2020/01/31 06:38:57.5	92.690	-0.380	0.420	0.040
2020/01/31 06:38:57.6	92.690	-0.380	0.380	0.020
2020/01/31 06:38:57.7	92.680	-0.370	0.330	0.000
2020/01/31 06:38:57.8	92.680	-0.360	0.270	-0.010
2020/01/31 06:38:57.9	92.680	-0.340	0.210	-0.020
2020/01/31 06:38:58.0	92.680	-0.320	0.150	-0.030
2020/01/31 06:38:58.1	92.680	-0.290	0.080	-0.030
2020/01/31 06:38:58.2	92.690	-0.260	0.010	-0.030
2020/01/31 06:38:58.3	92.690	-0.220	-0.070	-0.030
2020/01/31 06:38:58.4	92.690	-0.190	-0.140	-0.030
2020/01/31 06:38:58.5	92.700	-0.150	-0.220	-0.020
2020/01/31 06:38:58.6	92.700	-0.100	-0.300	-0.010
2020/01/31 06:38:58.7	92.700	-0.060	-0.380	-0.000
2020/01/31 06:38:58.8	92.700	-0.020	-0.460	0.010
2020/01/31 06:38:58.9	92.710	0.030	-0.530	0.030
2020/01/31 06:38:59.0	92.710	0.070	-0.600	0.040
2020/01/31 06:38:59.1	92.710	0.110	-0.670	0.060
2020/01/31 06:38:59.2	92.720	0.150	-0.740	0.070
2020/01/31 06:38:59.3	92.720	0.190	-0.790	0.090
2020/01/31 06:38:59.4	92.720	0.230	-0.840	0.110
2020/01/31 06:38:59.5	92.720	0.260	-0.890	0.130
2020/01/31 06:38:59.6	92.720	0.290	-0.930	0.150
2020/01/31 06:38:59.7	92.720	0.320	-0.960	0.170
2020/01/31 06:38:59.8	92.720	0.340	-0.980	0.190
2020/01/31 06:38:59.9	92.710	0.360	-0.990	0.210
2020/01/31 06:39:00.0	92.710	0.370	-1.000	0.230
2020/01/31 06:39:00.1	92.700	0.380	-0.990	0.250
2020/01/31 06:39:00.2	92.700	0.390	-0.980	0.280
2020/01/31 06:39:00.3	92.690	0.390	-0.960	0.310
2020/01/31 06:39:00.4	92.690	0.380	-0.940	0.330
2020/01/31 06:39:00.5	92.680	0.370	-0.900	0.360
2020/01/31 06:39:00.6	92.670	0.360	-0.860	0.380
2020/01/31 06:39:00.7	92.670	0.340	-0.820	0.410
2020/01/31 06:39:00.8	92.660	0.320	-0.760	0.430
2020/01/31 06:39:00.9	92.660	0.300	-0.710	0.460
2020/01/31 06:39:01.0	92.650	0.270	-0.640	0.490
2020/01/31 06:39:01.1	92.640	0.240	-0.580	0.520
2020/01/31 06:39:01.2	92.640	0.210	-0.500	0.540
2020/01/31 06:39:01.3	92.630	0.170	-0.430	0.570
2020/01/31 06:39:01.4	92.630	0.140	-0.350	0.600
2020/01/31 06:39:01.5	92.620	0.100	-0.280	0.630
2020/01/31 06:39:01.6	92.620	0.060	-0.200	0.660
2020/01/31 06:39:01.7	92.620	0.020	-0.130	0.690
2020/01/31 06:39:01.8	92.610	-0.020	-0.050	0.730
2020/01/31 06:39:01.9	92.610	-0.060	0.020	0.760
2020/01/31 06:39:02.0	92.610	-0.090	0.100	0.790
2020/01/31 06:39:02.1	92.610	-0.130	0.170	0.820
2020/01/31 06:39:02.2	92.600	-0.160	0.230	0.860
2020/01/31 06:39:02.3	92.600	-0.200	0.300	0.890
2020/01/31 06:39:02.4	92.600	-0.230	0.360	0.930
2020/01/31 06:39:02.5	92.590	-0.260	0.420	0.970
2020/01/31 06:39:02.6	92.590	-0.290	0.470	1.000
2020/01/31 06:39:02.7	92.580	-0.310	0.520	1.040
2020/01/31 06:39:02.8	92.580	-0.330	0.560	1.080
2020/01/31 06:39:02.9	92.570	-0.360	0.600	1.120
2020/01/31 06:39:03.0	92.570	-0.370	0.640	1.150
2020/01/31 06:39:03.1	92.560	-0.390	0.670	1.190
2020/01/31 06:39:03.2	92.550	-0.400	0.700	1.230
2020/01/31 06:39:03.3	92.540	-0.410	0.710	1.270
2020/01/31 06:39:03.4	92.530	-0.420	0.730	1.300
2020/01/31 06:39:03.5	92.530	-0.420	0.730	1.340
2020/01/31 06:39:03.6	92.520	-0.430	0.730	1.370
2020/01/31 06:39:03.7	92.510	-0.430	0.730	1.400
2020/01/31 06:39:03.8	92.500	-0.430	0.720	1.430
2020/01/31 06:39:03.9	92.500	-0.430	0.700	1.460
2020/01/31 06:39:04.0	92.490	-0.420	0.680	1.480
2020/01/31 06:39:04.1	92.490	-0.420	0.650	1.500
2020/01/31 06:39:04.2	92.480	-0.410	0.610	1.520
2020/01/31 06:39:04.3	92.480	-0.400	0.570	1.530
2020/01/31 06:39:04.4	92.480	-0.390	0.530	1.530
2020/01/31 06:39:04.5	92.480	-0.380	0.480	1.540
2020/01/31 06:39:04.6	92.480	-0.370	0.420	1.530
2020/01/31 06:39:04.7	92.490	-0.350	0.360	1.530
2020/01/31 06:39:04.8	92.490	-0.340	0.300	1.520
2020/01/31 06:39:04.9	92.500	-0.320	0.230	1.500
2020/01/31 06:39:05.0	92.500	-0.310	0.160	1.480
2020/01/31 06:39:05.1	92.510	-0.290	0.090	1.450
2020/01/31 06:39:05.2	92.520	-0.270	0.010	1.420
2020/01/31 06:39:05.3	92.540	-0.260	-0.060	1.390
2020/01/31 06:39:05.4	92.550	-0.240	-0.140	1.360
2020/01/31 06:39:05.5	92.560	-0.220	-0.220	1.320
2020/01/31 06:39:05.6	92.580	-0.210	-0.290	1.280
2020/01/31 06:39:05.7	92.590	-0.190	-0.360	1.240
2020/01/31 06:39:05.8	92.610	-0.170	-0.440	1.200
2020/01/31 06:39:05.9	92.620	-0.150	-0.510	1.160
2020/01/31 06:39:06.0	92.640	-0.140	-0.570	1.120
2020/01/31 06:39:06.1	92.650	-0.120	-0.640	1.090
2020/01/31 06:39:06.2	92.680	-0.100	-0.700	1.050
2020/01/31 06:39:06.3	92.690	-0.080	-0.750	1.020
2020/01/31 06:39:06.4	92.690	-0.060	-0.800	0.990
2020/01/31 06:39:06.5	92.700	-0.050	-0.850	0.970
2020/01/31 06:39:06.6	92.700	-0.030	-0.890	0.940
2020/01/31 06:39:06.7	92.700	-0.010	-0.920	0.920
2020/01/31 06:39:06.8	92.700	0.010	-0.950	0.910
2020/01/31 06:39:06.9	92.700	0.030	-0.970	0.900
2020/01/31 06:39:07.0	92.690	0.050	-0.990	0.890
2020/01/31 06:39:07.1	92.690	0.070	-1.000	0.880
2020/01/31 06:39:07.2	92.680	0.080	-1.000	0.880
2020/01/31 06:39:07.3	92.670	0.100	-1.000	0.880
2020/01/31 06:39:07.4	92.660	0.120	-1.000	0.880
2020/01/31 06:39:07.5	92.650	0.140	-0.980	0.890
2020/01/31 06:39:07.6	92.630	0.160	-0.970	0.890
2020/01/31 06:39:07.7	92.620	0.170	-0.940	0.900
2020/01/31 06:39:07.8	92.610	0.190	-0.920	0.900
2020/01/31 06:39:07.9	92.600	0.200	-0.890	0.910
2020/01/31 06:39:08.0	92.590	0.220	-0.850	0.910
2020/01/31 06:39:08.1	92.570	0.230	-0.810	0.920
2020/01/31 06:39:08.2	92.560	0.250	-0.760	0.930
2020/01/31 06:39:08.3	92.550	0.260	-0.720	0.930
2020/01/31 06:39:08.4	92.540	0.270	-0.670	0.940
2020/01/31 06:39:08.5	92.530	0.280	-0.620	0.940
2020/01/31 06:39:08.6	92.520	0.290	-0.560	0.940
2020/01/31 06:39:08.7	92.500	0.290	-0.510	0.950
2020/01/31 06:39:08.8	92.490	0.300	-0.450	0.950
2020/01/31 06:39:08.9	92.480	0.300	-0.400	0.950
2020/01/31 06:39:09.0	92.470	0.300	-0.340	0.950
2020/01/31 06:39:09.1	92.460	0.300	-0.280	0.950
2020/01/31 06:39:09.2	92.430	0.300	-0.220	0.940
2020/01/31 06:39:09.3	92.420	0.300	-0.160	0.940
2020/01/31 06:39:09.4	92.410	0.290	-0.100	0.940
2020/01/31 06:39:09.5	92.390	0.290	-0.040	0.930
2020/01/31 06:39:09.6	92.380	0.280	0.010	0.920
2020/01/31 06:39:09.7	92.370	0.270	0.060	0.920
2020/01/31 06:39:09.8	92.350	0.260	0.120	0.910
2020/01/31 06:39:09.9	92.340	0.250	0.160	0.890
2020/01/31 06:39:10.0	92.320	0.240	0.210	0.880
2020/01/31 06:39:10.1	92.310	0.220	0.250	0.860
2020/01/31 06:39:10.2	92.300	0.210	0.290	0.850
2020/01/31 06:39:10.3	92.290	0.190	0.330	0.830
2020/01/31 06:39:10.4	92.270	0.180	0.360	0.800
2020/01/31 06:39:10.5	92.260	0.160	0.380	0.780
2020/01/31 06:39:10.6	92.250	0.150	0.410	0.750
2020/01/31 06:39:10.7	92.230	0.130	0.420	0.720
2020/01/31 06:39:10.8	92.220	0.120	0.440	0.680
2020/01/31 06:39:10.9	92.210	0.100	0.450	0.650
2020/01/31 06:39:11.0	92.190	0.090	0.450	0.610
2020/01/31 06:39:11.1	92.180	0.080	0.450	0.570
2020/01/31 06:39:11.2	92.180	0.060	0.450	0.530
2020/01/31 06:39:11.3	92.170	0.050	0.440	0.480
2020/01/31 06:39:11.4	92.160	0.040	0.430	0.440
2020/01/31 06:39:11.5	92.150	0.030	0.410	0.390
2020/01/31 06:39:11.6	92.140	0.020	0.390	0.350
2020/01/31 06:39:11.7	92.140	0.020	0.370	0.300
2020/01/31 06:39:11.8	92.130	0.010	0.340	0.250
2020/01/31 06:39:11.9	92.130	0.010	0.310	0.200
2020/01/31 06:39:12.0	92.130	0.000	0.270	0.150
2020/01/31 06:39:12.1	92.130	0.000	0.230	0.110
2020/01/31 06:39:12.2	92.120	0.000	0.190	0.060
2020/01/31 06:39:12.3	92.120	0.010	0.140	0.010
2020/01/31 06:39:12.4	92.130	0.010	0.100	-0.030
2020/01/31 06:39:12.5	92.130	0.020	0.050	-0.070
2020/01/31 06:39:12.6	92.140	0.020	-0.000	-0.110
2020/01/31 06:39:12.7	92.140	0.030	-0.060	-0.150
2020/01/31 06:39:12.8	92.150	0.040	-0.110	-0.190
2020/01/31 06:39:12.9	92.160	0.050	-0.170	-0.220
2020/01/31 06:39:13.0	92.170	0.060	-0.220	-0.250
2020/01/31 06:39:13.1	92.180	0.070	-0.280	-0.280
2020/01/31 06:39:13.2	92.200	0.080	-0.330	-0.300
2020/01/31 06:39:13.3	92.210	0.090	-0.390	-0.320
2020/01/31 06:39:13.4	92.220	0.100	-0.440	-0.340
2020/01/31 06:39:13.5	92.240	0.110	-0.490	-0.350
2020/01/31 06:39:13.6	92.250	0.120	-0.530	-0.360
2020/01/31 06:39:13.7	92.270	0.130	-0.570	-0.370
2020/01/31 06:39:13.8	92.290	0.140	-0.610	-0.380
2020/01/31 06:39:13.9	92.310	0.150	-0.650	-0.380
2020/01/31 06:39:14.0	92.330	0.150	-0.680	-0.380
2020/01/31 06:39:14.1	92.350	0.150	-0.710	-0.380
2020/01/31 06:39:14.2	92.370	0.150	-0.720	-0.370
2020/01/31 06:39:14.3	92.390	0.150	-0.740	-0.360
2020/01/31 06:39:14.4	92.410	0.150	-0.750	-0.350
2020/01/31 06:39:14.5	92.440	0.140	-0.760	-0.340
2020/01/31 06:39:14.6	92.460	0.130	-0.750	-0.330
2020/01/31 06:39:14.7	92.480	0.120	-0.750	-0.310
2020/01/31 06:39:14.8	92.510	0.110	-0.730	-0.290
2020/01/31 06:39:14.9	92.530	0.090	-0.720	-0.270
2020/01/31 06:39:15.0	92.560	0.070	-0.690	-0.250
2020/01/31 06:39:15.1	92.580	0.050	-0.660	-0.230
2020/01/31 06:39:15.2	92.600	0.030	-0.630	-0.200
2020/01/31 06:39:15.3	92.630	0.010	-0.590	-0.170
2020/01/31 06:39:15.4	92.650	-0.020	-0.550	-0.140
2020/01/31 06:39:15.5	92.680	-0.050	-0.500	-0.100
2020/01/31 06:39:15.6	92.700	-0.070	-0.440	-0.070
2020/01/31 06:39:15.7	92.720	-0.100	-0.390	-0.030
2020/01/31 06:39:15.8	92.750	-0.130	-0.330	0.020
2020/01/31 06:39:15.9	92.770	-0.160	-0.270	0.070
2020/01/31 06:39:16.0	92.790	-0.190	-0.200	0.120
2020/01/31 06:39:16.1	92.800	-0.220	-0.140	0.170
2020/01/31 06:39:16.2	92.810	-0.250	-0.070	0.230
2020/01/31 06:39:16.3	92.830	-0.280	0.000	0.300
2020/01/31 06:39:16.4	92.840	-0.310	0.060	0.360
2020/01/31 06:39:16.5	92.850	-0.340	0.130	0.430
2020/01/31 06:39:16.6	92.860	-0.360	0.190	0.500
2020/01/31 06:39:16.7	92.860	-0.380	0.250	0.580
2020/01/31 06:39:16.8	92.860	-0.400	0.300	0.660
2020/01/31 06:39:16.9	92.870	-0.420	0.350	0.740
2020/01/31 06:39:17.0	92.860	-0.440	0.400	0.820
2020/01/31 06:39:17.1	92.860	-0.450	0.440	0.900
2020/01/31 06:39:17.2	92.860	-0.460	0.480	0.990
2020/01/31 06:39:17.3	92.860	-0.470	0.500	1.070
2020/01/31 06:39:17.4	92.850	-0.480	0.530	1.160
2020/01/31 06:39:17.5	92.840	-0.480	0.540	1.240
2020/01/31 06:39:17.6	92.840	-0.480	0.550	1.320
2020/01/31 06:39:17.7	92.830	-0.470	0.560	1.410
2020/01/31 06:39:17.8	92.820	-0.460	0.550	1.490
2020/01/31 06:39:17.9	92.810	-0.450	0.540	1.570
2020/01/31 06:39:18.0	92.800	-0.440	0.520	1.640
2020/01/31 06:39:18.1	92.790	-0.420	0.490	1.720
2020/01/31 06:39:18.2	92.790	-0.410	0.460	1.790
2020/01/31 06:39:18.3	92.780	-0.380	0.420	1.860
2020/01/31 06:39:18.4	92.770	-0.360	0.380	1.930
2020/01/31 06:39:18.5	92.760	-0.340	0.330	1.990
2020/01/31 06:39:18.6	92.750	-0.310	0.270	2.050
2020/01/31 06:39:18.7	92.740	-0.280	0.220	2.110
2020/01/31 06:39:18.8	92.730	-0.250	0.150	2.160
2020/01/31 06:39:18.9	92.720	-0.220	0.090	2.210
2020/01/31 06:39:19.0	92.710	-0.190	0.020	2.260
2020/01/31 06:39:19.1	92.700	-0.150	-0.050	2.300
2020/01/31 06:39:19.2	92.680	-0.120	-0.120	2.340
2020/01/31 06:39:19.3	92.670	-0.090	-0.190	2.380
2020/01/31 06:39:19.4	92.650	-0.060	-0.260	2.410
2020/01/31 06:39:19.5	92.630	-0.030	-0.320	2.440
2020/01/31 06:39:19.6	92.610	0.000	-0.390	2.460
2020/01/31 06:39:19.7	92.590	0.030	-0.450	2.480
2020/01/31 06:39:19.8	92.570	0.060	-0.510	2.500
2020/01/31 06:39:19.9	92.550	0.090	-0.570	2.510
2020/01/31 06:39:20.0	92.520	0.120	-0.620	2.520
2020/01/31 06:39:20.1	92.500	0.140	-0.670	2.520
2020/01/31 06:39:20.2	92.490	0.160	-0.710	2.510
2020/01/31 06:39:20.3	92.460	0.180	-0.750	2.510
2020/01/31 06:39:20.4	92.440	0.200	-0.780	2.490
2020/01/31 06:39:20.5	92.410	0.220	-0.800	2.470
2020/01/31 06:39:20.6	92.380	0.230	-0.820	2.450
2020/01/31 06:39:20.7	92.360	0.240	-0.830	2.410
2020/01/31 06:39:20.8	92.330	0.250	-0.830	2.380
2020/01/31 06:39:20.9	92.310	0.260	-0.820	2.330
2020/01/31 06:39:21.0	92.290	0.270	-0.810	2.280
2020/01/31 06:39:21.1	92.270	0.270	-0.800	2.230
2020/01/31 06:39:21.2	92.260	0.270	-0.770	2.170
2020/01/31 06:39:21.3	92.240	0.270	-0.750	2.100
2020/01/31 06:39:21.4	92.230	0.270	-0.710	2.030
2020/01/31 06:39:21.5	92.220	0.270	-0.680	1.950
2020/01/31 06:39:21.6	92.220	0.260	-0.640	1.870
2020/01/31 06:39:21.7	92.220	0.260	-0.590	1.790
2020/01/31 06:39:21.8	92.220	0.250	-0.550	1.700
2020/01/31 06:39:21.9	92.220	0.240	-0.500	1.600
2020/01/31 06:39:22.0	92.230	0.240	-0.450	1.500
2020/01/31 06:39:22.1	92.240	0.230	-0.400	1.400
2020/01/31 06:39:22.2	92.250	0.220	-0.350	1.290
2020/01/31 06:39:22.3	92.270	0.210	-0.300	1.190
2020/01/31 06:39:22.4	92.290	0.200	-0.250	1.080
2020/01/31 06:39:22.5	92.310	0.190	-0.200	0.970
2020/01/31 06:39:22.6	92.330	0.180	-0.160	0.850
2020/01/31 06:39:22.7	92.350	0.170	-0.110	0.740
2020/01/31 06:39:22.8	92.380	0.160	-0.070	0.630
2020/01/31 06:39:22.9	92.410	0.150	-0.030	0.520
2020/01/31 06:39:23.0	92.430	0.140	0.000	0.400
2020/01/31 06:39:23.1	92.460	0.130	0.030	0.290
2020/01/31 06:39:23.2	92.490	0.130	0.060	0.180
2020/01/31 06:39:23.3	92.520	0.120	0.090	0.070
2020/01/31 06:39:23.4	92.540	0.110	0.110	-0.030
2020/01/31 06:39:23.5	92.570	0.110	0.130	-0.140
2020/01/31 06:39:23.6	92.600	0.100	0.150	-0.240
2020/01/31 06:39:23.7	92.620	0.100	0.160	-0.330
2020/01/31 06:39:23.8	92.650	0.090	0.170	-0.420
2020/01/31 06:39:23.9	92.670	0.090	0.170	-0.510
2020/01/31 06:39:24.0	92.690	0.090	0.180	-0.600
2020/01/31 06:39:24.1	92.710	0.090	0.180	-0.680
2020/01/31 06:39:24.2	92.720	0.090	0.170	-0.750
2020/01/31 06:39:24.3	92.740	0.090	0.170	-0.820
2020/01/31 06:39:24.4	92.750	0.080	0.160	-0.880
2020/01/31 06:39:24.5	92.760	0.080	0.150	-0.940
2020/01/31 06:39:24.6	92.780	0.080	0.140	-0.990
2020/01/31 06:39:24.7	92.780	0.080	0.120	-1.040
2020/01/31 06:39:24.8	92.790	0.080	0.110	-1.080
2020/01/31 06:39:24.9	92.790	0.080	0.090	-1.110
2020/01/31 06:39:25.0	92.790	0.080	0.080	-1.140
2020/01/31 06:39:25.1	92.790	0.080	0.060	-1.170
2020/01/31 06:39:25.2	92.790	0.080	0.040	-1.180
2020/01/31 06:39:25.3	92.790	0.070	0.030	-1.190
2020/01/31 06:39:25.4	92.780	0.070	0.010	-1.200
2020/01/31 06:39:25.5	92.780	0.070	-0.010	-1.200
2020/01/31 06:39:25.6	92.770	0.060	-0.020	-1.200
2020/01/31 06:39:25.7	92.760	0.050	-0.040	-1.190
2020/01/31 06:39:25.8	92.750	0.050	-0.050	-1.180
2020/01/31 06:39:25.9	92.740	0.040	-0.070	-1.160
2020/01/31 06:39:26.0	92.730	0.030	-0.080	-1.130
2020/01/31 06:39:26.1	92.720	0.020	-0.090	-1.110
2020/01/31 06:39:26.2	92.700	0.010	-0.100	-1.070
2020/01/31 06:39:26.3	92.690	-0.000	-0.110	-1.040
2020/01/31 06:39:26.4	92.680	-0.020	-0.120	-1.000
2020/01/31 06:39:26.5	92.670	-0.030	-0.130	-0.950
2020/01/31 06:39:26.6	92.660	-0.040	-0.140	-0.900
2020/01/31 06:39:26.7	92.650	-0.060	-0.140	-0.850
2020/01/31 06:39:26.8	92.640	-0.070	-0.150	-0.790
2020/01/31 06:39:26.9	92.630	-0.080	-0.150	-0.730
2020/01/31 06:39:27.0	92.620	-0.100	-0.150	-0.670
2020/01/31 06:39:27.1	92.610	-0.110	-0.160	-0.600
2020/01/31 06:39:27.2	92.610	-0.130	-0.160	-0.530
2020/01/31 06:39:27.3	92.600	-0.140	-0.160	-0.460
2020/01/31 06:39:27.4	92.590	-0.150	-0.160	-0.390
2020/01/31 06:39:27.5	92.590	-0.160	-0.160	-0.310
2020/01/31 06:39:27.6	92.580	-0.180	-0.160	-0.230
2020/01/31 06:39:27.7	92.580	-0.190	-0.160	-0.150
2020/01/31 06:39:27.8	92.570	-0.200	-0.150	-0.070
2020/01/31 06:39:27.9	92.570	-0.200	-0.150	0.010
2020/01/31 06:39:28.0	92.560	-0.210	-0.150	0.090
2020/01/31 06:39:28.1	92.560	-0.210	-0.150	0.180
2020/01/31 06:39:28.2	92.560	-0.220	-0.150	0.260
2020/01/31 06:39:28.3	92.560	-0.220	-0.160	0.350
2020/01/31 06:39:28.4	92.550	-0.220	-0.160	0.430
2020/01/31 06:39:28.5	92.540	-0.210	-0.160	0.520
2020/01/31 06:39:28.6	92.540	-0.210	-0.170	0.600
2020/01/31 06:39:28.7	92.530	-0.200	-0.180	0.680
2020/01/31 06:39:28.8	92.530	-0.190	-0.190	0.760
2020/01/31 06:39:28.9	92.520	-0.180	-0.200	0.840
2020/01/31 06:39:29.0	92.520	-0.170	-0.210	0.920
2020/01/31 06:39:29.1	92.510	-0.150	-0.230	0.990
2020/01/31 06:39:29.2	92.510	-0.140	-0.240	1.070
2020/01/31 06:39:29.3	92.510	-0.120	-0.260	1.130
2020/01/31 06:39:29.4	92.510	-0.100	-0.280	1.200
2020/01/31 06:39:29.5	92.510	-0.080	-0.300	1.260
2020/01/31 06:39:29.6	92.500	-0.060	-0.320	1.320
2020/01/31 06:39:29.7	92.500	-0.030	-0.340	1.380
2020/01/31 06:39:29.8	92.500	-0.010	-0.360	1.440
2020/01/31 06:39:29.9	92.500	0.020	-0.380	1.490
2020/01/31 06:39:30.0	92.500	0.040	-0.410	1.540
2020/01/31 06:39:30.1	92.500	0.070	-0.420	1.590
2020/01/31 06:39:30.2	92.510	0.090	-0.440	1.640
2020/01/31 06:39:30.3	92.510	0.120	-0.460	1.680
2020/01/31 06:39:30.4	92.510	0.140	-0.470	1.720
2020/01/31 06:39:30.5	92.510	0.160	-0.490	1.760
2020/01/31 06:39:30.6	92.510	0.180	-0.500	1.800
2020/01/31 06:39:30.7	92.520	0.200	-0.500	1.830
2020/01/31 06:39:30.8	92.520	0.220	-0.510	1.870
2020/01/31 06:39:30.9	92.520	0.240	-0.510	1.900
2020/01/31 06:39:31.0	92.520	0.260	-0.510	1.930
2020/01/31 06:39:31.1	92.520	0.270	-0.500	1.960
2020/01/31 06:39:31.2	92.520	0.280	-0.490	1.990
2020/01/31 06:39:31.3	92.520	0.290	-0.480	2.010
2020/01/31 06:39:31.4	92.520	0.300	-0.460	2.030
2020/01/31 06:39:31.5	92.520	0.300	-0.440	2.050
2020/01/31 06:39:31.6	92.520	0.300	-0.420	2.070
2020/01/31 06:39:31.7	92.510	0.300	-0.390	2.090
2020/01/31 06:39:31.8	92.510	0.300	-0.360	2.100
2020/01/31 06:39:31.9	92.500	0.290	-0.330	2.110
2020/01/31 06:39:32.0	92.500	0.280	-0.300	2.120
2020/01/31 06:39:32.1	92.490	0.270	-0.260	2.130
2020/01/31 06:39:32.2	92.490	0.260	-0.220	2.130
2020/01/31 06:39:32.3	92.480	0.240	-0.180	2.130
2020/01/31 06:39:32.4	92.470	0.230	-0.140	2.130
2020/01/31 06:39:32.5	92.460	0.210	-0.100	2.130
2020/01/31 06:39:32.6	92.450	0.190	-0.060	2.120
2020/01/31 06:39:32.7	92.430	0.170	-0.020	2.110
2020/01/31 06:39:32.8	92.420	0.140	0.020	2.100
2020/01/31 06:39:32.9	92.410	0.120	0.060	2.080
2020/01/31 06:39:33.0	92.400	0.090	0.090	2.060
2020/01/31 06:39:33.1	92.390	0.070	0.130	2.030
2020/01/31 06:39:33.2	92.380	0.040	0.160	2.000
2020/01/31 06:39:33.3	92.370	0.010	0.190	1.970
2020/01/31 06:39:33.4	92.360	-0.010	0.220	1.940
2020/01/31 06:39:33.5	92.360	-0.040	0.240	1.900
2020/01/31 06:39:33.6	92.350	-0.070	0.260	1.850
2020/01/31 06:39:33.7	92.340	-0.090	0.270	1.810
2020/01/31 06:39:33.8	92.340	-0.110	0.280	1.760
2020/01/31 06:39:33.9	92.340	-0.140	0.290	1.710
2020/01/31 06:39:34.0	92.330	-0.160	0.290	1.660
2020/01/31 06:39:34.1	92.330	-0.180	0.290	1.600
2020/01/31 06:39:34.2	92.320	-0.190	0.280	1.540
2020/01/31 06:39:34.3	92.320	-0.210	0.270	1.480
2020/01/31 06:39:34.4	92.320	-0.220	0.260	1.420
2020/01/31 06:39:34.5	92.320	-0.230	0.240	1.360
2020/01/31 06:39:34.6	92.320	-0.240	0.210	1.300
2020/01/31 06:39:34.7	92.320	-0.240	0.180	1.240
2020/01/31 06:39:34.8	92.320	-0.240	0.150	1.180
2020/01/31 06:39:34.9	92.330	-0.240	0.110	1.120
2020/01/31 06:39:35.0	92.330	-0.240	0.070	1.060
2020/01/31 06:39:35.1	92.330	-0.230	0.030	1.000
2020/01/31 06:39:35.2	92.330	-0.220	-0.020	0.930
2020/01/31 06:39:35.3	92.330	-0.210	-0.070	0.870
2020/01/31 06:39:35.4	92.330	-0.200	-0.120	0.810
2020/01/31 06:39:35.5	92.340	-0.180	-0.180	0.750
2020/01/31 06:39:35.6	92.340	-0.160	-0.230	0.690
2020/01/31 06:39:35.7	92.350	-0.140	-0.280	0.630
2020/01/31 06:39:35.8	92.360	-0.120	-0.340	0.560
2020/01/31 06:39:35.9	92.370	-0.100	-0.390	0.500
2020/01/31 06:39:36.0	92.380	-0.070	-0.440	0.440
2020/01/31 06:39:36.1	92.390	-0.050	-0.490	0.380
2020/01/31 06:39:36.2	92.400	-0.020	-0.540	0.310
2020/01/31 06:39:36.3	92.410	0.000	-0.580	0.260
2020/01/31 06:39:36.4	92.430	0.030	-0.630	0.200
2020/01/31 06:39:36.5	92.440	0.050	-0.660	0.140
2020/01/31 06:39:36.6	92.460	0.080	-0.690	0.080
2020/01/31 06:39:36.7	92.470	0.100	-0.720	0.030
2020/01/31 06:39:36.8	92.480	0.120	-0.740	-0.020
2020/01/31 06:39:36.9	92.490	0.140	-0.760	-0.060
2020/01/31 06:39:37.0	92.500	0.150	-0.770	-0.110
2020/01/31 06:39:37.1	92.510	0.170	-0.770	-0.150
2020/01/31 06:39:37.2	92.500	0.180	-0.760	-0.190
2020/01/31 06:39:37.3	92.500	0.190	-0.750	-0.220
2020/01/31 06:39:37.4	92.500	0.190	-0.730	-0.260
2020/01/31 06:39:37.5	92.500	0.190	-0.710	-0.280
2020/01/31 06:39:37.6	92.500	0.190	-0.670	-0.310
2020/01/31 06:39:37.7	92.490	0.180	-0.630	-0.330
2020/01/31 06:39:37.8	92.480	0.170	-0.580	-0.350
2020/01/31 06:39:37.9	92.470	0.160	-0.530	-0.360
2020/01/31 06:39:38.0	92.450	0.140	-0.470	-0.370
2020/01/31 06:39:38.1	92.430	0.130	-0.410	-0.380
2020/01/31 06:39:38.2	92.400	0.100	-0.330	-0.380
2020/01/31 06:39:38.3	92.380	0.080	-0.260	-0.380
2020/01/31 06:39:38.4	92.360	0.050	-0.180	-0.370
2020/01/31 06:39:38.5	92.330	0.020	-0.100	-0.360
2020/01/31 06:39:38.6	92.300	-0.010	-0.020	-0.350
2020/01/31 06:39:38.7	92.270	-0.050	0.070	-0.340
2020/01/31 06:39:38.8	92.240	-0.090	0.150	-0.320
2020/01/31 06:39:38.9	92.210	-0.120	0.240	-0.300
2020/01/31 06:39:39.0	92.180	-0.160	0.320	-0.280
2020/01/31 06:39:39.1	92.150	-0.200	0.400	-0.260
2020/01/31 06:39:39.2	92.120	-0.240	0.480	-0.230
2020/01/31 06:39:39.3	92.090	-0.280	0.560	-0.210
2020/01/31 06:39:39.4	92.060	-0.320	0.630	-0.180
2020/01/31 06:39:39.5	92.030	-0.350	0.690	-0.160
2020/01/31 06:39:39.6	92.000	-0.390	0.750	-0.130
2020/01/31 06:39:39.7	91.980	-0.420	0.800	-0.110
2020/01/31 06:39:39.8	91.960	-0.450	0.840	-0.090
2020/01/31 06:39:39.9	91.930	-0.480	0.880	-0.060
2020/01/31 06:39:40.0	91.910	-0.500	0.900	-0.040
2020/01/31 06:39:40.1	91.900	-0.520	0.910	-0.020
2020/01/31 06:39:40.2	91.890	-0.540	0.920	0.000
2020/01/31 06:39:40.3	91.880	-0.550	0.920	0.020
2020/01/31 06:39:40.4	91.870	-0.560	0.900	0.040
2020/01/31 06:39:40.5	91.860	-0.560	0.870	0.060
2020/01/31 06:39:40.6	91.860	-0.560	0.840	0.080
2020/01/31 06:39:40.7	91.860	-0.550	0.790	0.090
2020/01/31 06:39:40.8	91.860	-0.540	0.730	0.110
2020/01/31 06:39:40.9	91.860	-0.520	0.670	0.130
2020/01/31 06:39:41.0	91.860	-0.500	0.600	0.150
2020/01/31 06:39:41.1	91.860	-0.470	0.520	0.170
2020/01/31 06:39:41.2	91.870	-0.440	0.430	0.180
2020/01/31 06:39:41.3	91.880	-0.410	0.340	0.200
2020/01/31 06:39:41.4	91.880	-0.370	0.240	0.220
2020/01/31 06:39:41.5	91.900	-0.330	0.140	0.240
2020/01/31 06:39:41.6	91.910	-0.290	0.040	0.260
2020/01/31 06:39:41.7	91.920	-0.240	-0.070	0.270
2020/01/31 06:39:41.8	91.930	-0.190	-0.180	0.290
2020/01/31 06:39:41.9	91.950	-0.150	-0.280	0.310
2020/01/31 06:39:42.0	91.960	-0.100	-0.390	0.330
2020/01/31 06:39:42.1	91.970	-0.050	-0.490	0.350
2020/01/31 06:39:42.2	91.990	0.000	-0.590	0.380
2020/01/31 06:39:42.3	92.000	0.050	-0.690	0.400
2020/01/31 06:39:42.4	92.010	0.100	-0.780	0.420
2020/01/31 06:39:42.5	92.020	0.150	-0.860	0.450
2020/01/31 06:39:42.6	92.030	0.200	-0.940	0.470
2020/01/31 06:39:42.7	92.030	0.240	-1.010	0.500
2020/01/31 06:39:42.8	92.030	0.280	-1.070	0.530
2020/01/31 06:39:42.9	92.040	0.320	-1.130	0.560
2020/01/31 06:39:43.0	92.040	0.360	-1.180	0.580
2020/01/31 06:39:43.1	92.030	0.390	-1.220	0.610
2020/01/31 06:39:43.2	92.020	0.420	-1.250	0.650
2020/01/31 06:39:43.3	92.010	0.450	-1.270	0.680
2020/01/31 06:39:43.4	92.000	0.480	-1.280	0.710
2020/01/31 06:39:43.5	91.990	0.500	-1.290	0.740
2020/01/31 06:39:43.6	91.980	0.520	-1.280	0.770
2020/01/31 06:39:43.7	91.960	0.530	-1.270	0.810
2020/01/31 06:39:43.8	91.940	0.540	-1.250	0.840
2020/01/31 06:39:43.9	91.920	0.550	-1.230	0.880
2020/01/31 06:39:44.0	91.900	0.560	-1.190	0.920
2020/01/31 06:39:44.1	91.880	0.560	-1.150	0.960
2020/01/31 06:39:44.2	91.850	0.560	-1.100	1.000
2020/01/31 06:39:44.3	91.830	0.560	-1.050	1.030
2020/01/31 06:39:44.4	91.800	0.560	-0.990	1.070
2020/01/31 06:39:44.5	91.780	0.560	-0.930	1.110
2020/01/31 06:39:44.6	91.750	0.550	-0.870	1.150
2020/01/31 06:39:44.7	91.730	0.540	-0.810	1.190
2020/01/31 06:39:44.8	91.700	0.530	-0.740	1.230
2020/01/31 06:39:44.9	91.680	0.520	-0.670	1.270
2020/01/31 06:39:45.0	91.660	0.510	-0.610	1.310
2020/01/31 06:39:45.1	91.640	0.500	-0.540	1.350
2020/01/31 06:39:45.2	91.610	0.490	-0.470	1.380
2020/01/31 06:39:45.3	91.590	0.470	-0.400	1.420
2020/01/31 06:39:45.4	91.570	0.460	-0.340	1.450
2020/01/31 06:39:45.5	91.550	0.450	-0.270	1.490
2020/01/31 06:39:45.6	91.540	0.430	-0.210	1.520
2020/01/31 06:39:45.7	91.530	0.420	-0.150	1.550
2020/01/31 06:39:45.8	91.510	0.410	-0.100	1.580
2020/01/31 06:39:45.9	91.500	0.390	-0.050	1.600
2020/01/31 06:39:46.0	91.490	0.380	0.000	1.630
2020/01/31 06:39:46.1	91.490	0.360	0.050	1.650
2020/01/31 06:39:46.2	91.480	0.350	0.100	1.680
2020/01/31 06:39:46.3	91.470	0.340	0.140	1.700
2020/01/31 06:39:46.4	91.470	0.320	0.180	1.710
2020/01/31 06:39:46.5	91.470	0.310	0.210	1.720
2020/01/31 06:39:46.6	91.470	0.290	0.240	1.730
2020/01/31 06:39:46.7	91.470	0.280	0.270	1.740
2020/01/31 06:39:46.8	91.460	0.260	0.290	1.740
2020/01/31 06:39:46.9	91.460	0.240	0.310	1.730
2020/01/31 06:39:47.0	91.460	0.230	0.330	1.730
2020/01/31 06:39:47.1	91.470	0.210	0.350	1.720
2020/01/31 06:39:47.2	91.470	0.190	0.360	1.700
2020/01/31 06:39:47.3	91.470	0.170	0.370	1.690
2020/01/31 06:39:47.4	91.470	0.160	0.370	1.670
2020/01/31 06:39:47.5	91.470	0.140	0.370	1.640
2020/01/31 06:39:47.6	91.470	0.120	0.380	1.620
2020/01/31 06:39:47.7	91.480	0.100	0.370	1.590
2020/01/31 06:39:47.8	91.480	0.070	0.370	1.560
2020/01/31 06:39:47.9	91.480	0.050	0.370	1.520
2020/01/31 06:39:48.0	91.490	0.030	0.360	1.490
2020/01/31 06:39:48.1	91.490	0.010	0.360	1.450
2020/01/31 06:39:48.2	91.490	-0.020	0.350	1.410
2020/01/31 06:39:48.3	91.500	-0.040	0.340	1.370
2020/01/31 06:39:48.4	91.500	-0.070	0.330	1.330
2020/01/31 06:39:48.5	91.500	-0.090	0.320	1.290
2020/01/31 06:39:48.6	91.510	-0.120	0.320	1.250
2020/01/31 06:39:48.7	91.510	-0.140	0.310	1.210
2020/01/31 06:39:48.8	91.510	-0.170	0.300	1.170
2020/01/31 06:39:48.9	91.510	-0.200	0.300	1.130
2020/01/31 06:39:49.0	91.510	-0.220	0.290	1.100
2020/01/31 06:39:49.1	91.510	-0.250	0.280	1.060
2020/01/31 06:39:49.2	91.520	-0.280	0.270	1.030
2020/01/31 06:39:49.3	91.510	-0.300	0.270	1.000
2020/01/31 06:39:49.4	91.510	-0.330	0.260	0.970
2020/01/31 06:39:49.5	91.510	-0.350	0.250	0.940
2020/01/31 06:39:49.6	91.500	-0.380	0.230	0.920
2020/01/31 06:39:49.7	91.500	-0.400	0.220	0.900
2020/01/31 06:39:49.8	91.490	-0.420	0.210	0.880
2020/01/31 06:39:49.9	91.480	-0.440	0.190	0.860
2020/01/31 06:39:50.0	91.470	-0.460	0.170	0.850
2020/01/31 06:39:50.1	91.460	-0.480	0.150	0.830
2020/01/31 06:39:50.2	91.450	-0.490	0.130	0.820
2020/01/31 06:39:50.3	91.440	-0.510	0.100	0.810
2020/01/31 06:39:50.4	91.430	-0.520	0.080	0.800
2020/01/31 06:39:50.5	91.420	-0.530	0.050	0.790
2020/01/31 06:39:50.6	91.410	-0.540	0.010	0.780
2020/01/31 06:39:50.7	91.400	-0.540	-0.020	0.780
2020/01/31 06:39:50.8	91.390	-0.550	-0.060	0.770
2020/01/31 06:39:50.9	91.380	-0.550	-0.100	0.760
2020/01/31 06:39:51.0	91.370	-0.540	-0.140	0.750
2020/01/31 06:39:51.1	91.360	-0.540	-0.190	0.750
2020/01/31 06:39:51.2	91.350	-0.530	-0.230	0.740
2020/01/31 06:39:51.3	91.340	-0.530	-0.280	0.730
2020/01/31 06:39:51.4	91.330	-0.520	-0.320	0.720
2020/01/31 06:39:51.5	91.320	-0.500	-0.370	0.710
2020/01/31 06:39:51.6	91.310	-0.490	-0.410	0.700
2020/01/31 06:39:51.7	91.300	-0.470	-0.460	0.690
2020/01/31 06:39:51.8	91.290	-0.450	-0.500	0.680
2020/01/31 06:39:51.9	91.280	-0.440	-0.540	0.670
2020/01/31 06:39:52.0	91.270	-0.420	-0.580	0.660
2020/01/31 06:39:52.1	91.260	-0.400	-0.610	0.650
2020/01/31 06:39:52.2	91.250	-0.370	-0.640	0.640
2020/01/31 06:39:52.3	91.240	-0.350	-0.670	0.630
2020/01/31 06:39:52.4	91.230	-0.330	-0.690	0.620
2020/01/31 06:39:52.5	91.220	-0.310	-0.710	0.610
2020/01/31 06:39:52.6	91.210	-0.290	-0.720	0.600
2020/01/31 06:39:52.7	91.200	-0.270	-0.730	0.590
2020/01/31 06:39:52.8	91.200	-0.250	-0.730	0.580
2020/01/31 06:39:52.9	91.190	-0.230	-0.730	0.570
2020/01/31 06:39:53.0	91.180	-0.210	-0.720	0.560
2020/01/31 06:39:53.1	91.180	-0.190	-0.700	0.550
2020/01/31 06:39:53.2	91.180	-0.170	-0.680	0.540
2020/01/31 06:39:53.3	91.180	-0.160	-0.650	0.530
2020/01/31 06:39:53.4	91.180	-0.150	-0.620	0.520
2020/01/31 06:39:53.5	91.180	-0.140	-0.590	0.510
2020/01/31 06:39:53.6	91.190	-0.130	-0.550	0.500
2020/01/31 06:39:53.7	91.190	-0.120	-0.510	0.480
2020/01/31 06:39:53.8	91.200	-0.110	-0.460	0.470
2020/01/31 06:39:53.9	91.210	-0.110	-0.410	0.450
2020/01/31 06:39:54.0	91.220	-0.100	-0.360	0.440
2020/01/31 06:39:54.1	91.230	-0.100	-0.310	0.420
2020/01/31 06:39:54.2	91.240	-0.100	-0.250	0.410
2020/01/31 06:39:54.3	91.260	-0.100	-0.200	0.390
2020/01/31 06:39:54.4	91.270	-0.100	-0.140	0.370
2020/01/31 06:39:54.5	91.290	-0.100	-0.080	0.360
2020/01/31 06:39:54.6	91.310	-0.110	-0.030	0.340
2020/01/31 06:39:54.7	91.330	-0.110	0.030	0.320
2020/01/31 06:39:54.8	91.340	-0.110	0.080	0.310
2020/01/31 06:39:54.9	91.360	-0.120	0.130	0.290
2020/01/31 06:39:55.0	91.380	-0.120	0.180	0.280
2020/01/31 06:39:55.1	91.390	-0.130	0.220	0.270
2020/01/31 06:39:55.2	91.410	-0.130	0.270	0.250
2020/01/31 06:39:55.3	91.420	-0.130	0.310	0.240
2020/01/31 06:39:55.4	91.430	-0.130	0.340	0.230
2020/01/31 06:39:55.5	91.440	-0.130	0.370	0.220
2020/01/31 06:39:55.6	91.450	-0.130	0.390	0.220
2020/01/31 06:39:55.7	91.460	-0.120	0.410	0.210
2020/01/31 06:39:55.8	91.460	-0.120	0.420	0.210
2020/01/31 06:39:55.9	91.460	-0.110	0.430	0.210
2020/01/31 06:39:56.0	91.460	-0.090	0.430	0.210
2020/01/31 06:39:56.1	91.460	-0.080	0.430	0.220
2020/01/31 06:39:56.2	91.470	-0.060	0.410	0.230
2020/01/31 06:39:56.3	91.460	-0.040	0.390	0.240
2020/01/31 06:39:56.4	91.450	-0.020	0.370	0.250
2020/01/31 06:39:56.5	91.440	0.010	0.330	0.260
2020/01/31 06:39:56.6	91.430	0.030	0.290	0.270
2020/01/31 06:39:56.7	91.420	0.070	0.250	0.280
2020/01/31 06:39:56.8	91.400	0.100	0.190	0.300
2020/01/31 06:39:56.9	91.390	0.140	0.130	0.310
2020/01/31 06:39:57.0	91.370	0.180	0.070	0.330
2020/01/31 06:39:57.1	91.360	0.220	0.000	0.340
2020/01/31 06:39:57.2	91.340	0.270	-0.070	0.360
2020/01/31 06:39:57.3	91.330	0.320	-0.150	0.370
2020/01/31 06:39:57.4	91.320	0.370	-0.230	0.380
2020/01/31 06:39:57.5	91.300	0.420	-0.310	0.400
2020/01/31 06:39:57.6	91.290	0.470	-0.390	0.410
2020/01/31 06:39:57.7	91.280	0.520	-0.470	0.420
2020/01/31 06:39:57.8	91.270	0.580	-0.550	0.440
2020/01/31 06:39:57.9	91.260	0.630	-0.630	0.450
2020/01/31 06:39:58.0	91.250	0.680	-0.710	0.460
2020/01/31 06:39:58.1	91.240	0.730	-0.780	0.480
2020/01/31 06:39:58.2	91.230	0.780	-0.860	0.490
2020/01/31 06:39:58.3	91.220	0.820	-0.920	0.510
2020/01/31 06:39:58.4	91.210	0.870	-0.980	0.520
2020/01/31 06:39:58.5	91.200	0.910	-1.030	0.540
2020/01/31 06:39:58.6	91.190	0.940	-1.070	0.550
2020/01/31 06:39:58.7	91.180	0.970	-1.110	0.570
2020/01/31 06:39:58.8	91.180	1.000	-1.140	0.580
2020/01/31 06:39:58.9	91.170	1.030	-1.160	0.600
2020/01/31 06:39:59.0	91.160	1.040	-1.170	0.620
2020/01/31 06:39:59.1	91.150	1.060	-1.170	0.640
2020/01/31 06:39:59.2	91.150	1.070	-1.160	0.650
2020/01/31 06:39:59.3	91.140	1.070	-1.140	0.670
2020/01/31 06:39:59.4	91.140	1.060	-1.110	0.690
2020/01/31 06:39:59.5	91.140	1.060	-1.080	0.700
2020/01/31 06:39:59.6	91.130	1.040	-1.040	0.720
2020/01/31 06:39:59.7	91.130	1.020	-0.980	0.730
2020/01/31 06:39:59.8	91.130	1.000	-0.930	0.750
2020/01/31 06:39:59.9	91.130	0.970	-0.860	0.760
2020/01/31 06:40:00.0	91.140	0.930	-0.790	0.770
2020/01/31 06:40:00.1	91.140	0.890	-0.710	0.790
2020/01/31 06:40:00.2	91.140	0.850	-0.630	0.800
2020/01/31 06:40:00.3	91.150	0.800	-0.540	0.810
2020/01/31 06:40:00.4	91.150	0.740	-0.450	0.820
2020/01/31 06:40:00.5	91.160	0.690	-0.360	0.820
2020/01/31 06:40:00.6	91.170	0.630	-0.260	0.830
2020/01/31 06:40:00.7	91.190	0.560	-0.170	0.830
2020/01/31 06:40:00.8	91.200	0.500	-0.070	0.840
2020/01/31 06:40:00.9	91.210	0.430	0.030	0.840
2020/01/31 06:40:01.0	91.230	0.360	0.120	0.850
2020/01/31 06:40:01.1	91.240	0.280	0.220	0.850
2020/01/31 06:40:01.2	91.250	0.210	0.310	0.850
2020/01/31 06:40:01.3	91.260	0.140	0.400	0.860
2020/01/31 06:40:01.4	91.280	0.060	0.490	0.860
2020/01/31 06:40:01.5	91.300	-0.010	0.570	0.870
2020/01/31 06:40:01.6	91.320	-0.080	0.650	0.880
2020/01/31 06:40:01.7	91.330	-0.160	0.720	0.890
2020/01/31 06:40:01.8	91.350	-0.230	0.780	0.890
2020/01/31 06:40:01.9	91.370	-0.300	0.840	0.910
2020/01/31 06:40:02.0	91.380	-0.370	0.900	0.920
2020/01/31 06:40:02.1	91.400	-0.430	0.940	0.930
2020/01/31 06:40:02.2	91.410	-0.490	0.980	0.950
2020/01/31 06:40:02.3	91.430	-0.550	1.010	0.960
2020/01/31 06:40:02.4	91.440	-0.610	1.040	0.980
2020/01/31 06:40:02.5	91.450	-0.670	1.060	1.000
2020/01/31 06:40:02.6	91.460	-0.720	1.070	1.020
2020/01/31 06:40:02.7	91.470	-0.770	1.070	1.040
2020/01/31 06:40:02.8	91.480	-0.810	1.070	1.060
2020/01/31 06:40:02.9	91.490	-0.850	1.060	1.090
2020/01/31 06:40:03.0	91.490	-0.890	1.040	1.110
2020/01/31 06:40:03.1	91.500	-0.920	1.020	1.130
2020/01/31 06:40:03.2	91.510	-0.950	0.990	1.160
2020/01/31 06:40:03.3	91.510	-0.970	0.950	1.190
2020/01/31 06:40:03.4	91.520	-0.990	0.910	1.210
2020/01/31 06:40:03.5	91.520	-1.000	0.860	1.240
2020/01/31 06:40:03.6	91.520	-1.010	0.800	1.260
2020/01/31 06:40:03.7	91.520	-1.020	0.740	1.280
2020/01/31 06:40:03.8	91.520	-1.020	0.670	1.300
2020/01/31 06:40:03.9	91.520	-1.020	0.600	1.330
2020/01/31 06:40:04.0	91.520	-1.010	0.520	1.350
2020/01/31 06:40:04.1	91.520	-1.000	0.440	1.360
2020/01/31 06:40:04.2	91.520	-0.990	0.360	1.380
2020/01/31 06:40:04.3	91.520	-0.970	0.270	1.400
2020/01/31 06:40:04.4	91.530	-0.950	0.180	1.410
2020/01/31 06:40:04.5	91.530	-0.920	0.090	1.420
2020/01/31 06:40:04.6	91.530	-0.890	0.000	1.440
2020/01/31 06:40:04.7	91.530	-0.860	-0.090	1.450
2020/01/31 06:40:04.8	91.540	-0.820	-0.190	1.460
2020/01/31 06:40:04.9	91.540	-0.780	-0.280	1.470
2020/01/31 06:40:05.0	91.550	-0.740	-0.380	1.470
2020/01/31 06:40:05.1	91.550	-0.700	-0.470	1.480
2020/01/31 06:40:05.2	91.560	-0.660	-0.560	1.490
2020/01/31 06:40:05.3	91.570	-0.610	-0.650	1.490
2020/01/31 06:40:05.4	91.570	-0.560	-0.740	1.500
2020/01/31 06:40:05.5	91.580	-0.510	-0.830	1.500
2020/01/31 06:40:05.6	91.590	-0.460	-0.910	1.500
2020/01/31 06:40:05.7	91.590	-0.410	-0.980	1.500
2020/01/31 06:40:05.8	91.600	-0.360	-1.060	1.500
2020/01/31 06:40:05.9	91.610	-0.310	-1.120	1.500
2020/01/31 06:40:06.0	91.610	-0.260	-1.190	1.500
2020/01/31 06:40:06.1	91.620	-0.210	-1.240	1.500
2020/01/31 06:40:06.2	91.630	-0.160	-1.300	1.500
2020/01/31 06:40:06.3	91.640	-0.120	-1.340	1.500
2020/01/31 06:40:06.4	91.640	-0.070	-1.370	1.490
2020/01/31 06:40:06.5	91.650	-0.030	-1.400	1.490
2020/01/31 06:40:06.6	91.650	0.010	-1.420	1.480
2020/01/31 06:40:06.7	91.650	0.050	-1.440	1.480
2020/01/31 06:40:06.8	91.650	0.090	-1.440	1.470
2020/01/31 06:40:06.9	91.650	0.120	-1.440	1.460
2020/01/31 06:40:07.0	91.650	0.150	-1.430	1.460
2020/01/31 06:40:07.1	91.640	0.180	-1.410	1.450
2020/01/31 06:40:07.2	91.650	0.210	-1.380	1.440
2020/01/31 06:40:07.3	91.640	0.230	-1.340	1.430
2020/01/31 06:40:07.4	91.630	0.250	-1.300	1.420
2020/01/31 06:40:07.5	91.620	0.260	-1.250	1.420
2020/01/31 06:40:07.6	91.620	0.280	-1.190	1.410
2020/01/31 06:40:07.7	91.610	0.290	-1.130	1.390
2020/01/31 06:40:07.8	91.600	0.290	-1.060	1.380
2020/01/31 06:40:07.9	91.590	0.300	-0.990	1.370
2020/01/31 06:40:08.0	91.570	0.300	-0.910	1.350
2020/01/31 06:40:08.1	91.560	0.300	-0.820	1.340
2020/01/31 06:40:08.2	91.550	0.300	-0.730	1.320
2020/01/31 06:40:08.3	91.540	0.300	-0.640	1.300
2020/01/31 06:40:08.4	91.520	0.290	-0.550	1.280
2020/01/31 06:40:08.5	91.510	0.290	-0.450	1.260
2020/01/31 06:40:08.6	91.500	0.280	-0.360	1.230
2020/01/31 06:40:08.7	91.480	0.270	-0.260	1.200
2020/01/31 06:40:08.8	91.470	0.260	-0.170	1.170
2020/01/31 06:40:08.9	91.450	0.250	-0.070	1.140
2020/01/31 06:40:09.0	91.440	0.240	0.020	1.100
2020/01/31 06:40:09.1	91.430	0.230	0.110	1.060
2020/01/31 06:40:09.2	91.410	0.220	0.200	1.010
2020/01/31 06:40:09.3	91.390	0.210	0.280	0.970
2020/01/31 06:40:09.4	91.380	0.200	0.360	0.920
2020/01/31 06:40:09.5	91.370	0.190	0.440	0.860
2020/01/31 06:40:09.6	91.360	0.180	0.500	0.810
2020/01/31 06:40:09.7	91.350	0.180	0.560	0.740
2020/01/31 06:40:09.8	91.340	0.170	0.620	0.680
2020/01/31 06:40:09.9	91.330	0.170	0.670	0.610
2020/01/31 06:40:10.0	91.320	0.170	0.710	0.530
2020/01/31 06:40:10.1	91.320	0.170	0.740	0.460
2020/01/31 06:40:10.2	91.310	0.170	0.770	0.380
2020/01/31 06:40:10.3	91.310	0.170	0.790	0.300
2020/01/31 06:40:10.4	91.300	0.170	0.800	0.210
2020/01/31 06:40:10.5	91.300	0.170	0.810	0.130
2020/01/31 06:40:10.6	91.300	0.180	0.810	0.040
2020/01/31 06:40:10.7	91.310	0.190	0.800	-0.050
2020/01/31 06:40:10.8	91.310	0.190	0.790	-0.140
2020/01/31 06:40:10.9	91.310	0.200	0.770	-0.230
2020/01/31 06:40:11.0	91.310	0.210	0.740	-0.310
2020/01/31 06:40:11.1	91.320	0.220	0.710	-0.400
2020/01/31 06:40:11.2	91.330	0.230	0.680	-0.480
2020/01/31 06:40:11.3	91.330	0.250	0.640	-0.560
2020/01/31 06:40:11.4	91.330	0.260	0.590	-0.630
2020/01/31 06:40:11.5	91.340	0.270	0.550	-0.700
2020/01/31 06:40:11.6	91.340	0.280	0.500	-0.770
2020/01/31 06:40:11.7	91.340	0.300	0.440	-0.830
2020/01/31 06:40:11.8	91.340	0.310	0.390	-0.880
2020/01/31 06:40:11.9	91.340	0.320	0.330	-0.930
2020/01/31 06:40:12.0	91.340	0.330	0.270	-0.970
2020/01/31 06:40:12.1	91.340	0.340	0.210	-1.010
2020/01/31 06:40:12.2	91.350	0.360	0.140	-1.040
2020/01/31 06:40:12.3	91.350	0.370	0.080	-1.070
2020/01/31 06:40:12.4	91.350	0.370	0.020	-1.090
2020/01/31 06:40:12.5	91.340	0.380	-0.040	-1.110
2020/01/31 06:40:12.6	91.340	0.390	-0.110	-1.120
2020/01/31 06:40:12.7	91.340	0.400	-0.170	-1.130
2020/01/31 06:40:12.8	91.340	0.400	-0.230	-1.140
2020/01/31 06:40:12.9	91.340	0.410	-0.290	-1.140
2020/01/31 06:40:13.0	91.340	0.410	-0.340	-1.130
2020/01/31 06:40:13.1	91.340	0.410	-0.400	-1.120
2020/01/31 06:40:13.2	91.340	0.410	-0.450	-1.110
2020/01/31 06:40:13.3	91.350	0.410	-0.500	-1.100
2020/01/31 06:40:13.4	91.350	0.400	-0.550	-1.080
2020/01/31 06:40:13.5	91.360	0.400	-0.590	-1.060
2020/01/31 06:40:13.6	91.370	0.390	-0.630	-1.040
2020/01/31 06:40:13.7	91.380	0.380	-0.660	-1.020
2020/01/31 06:40:13.8	91.400	0.370	-0.690	-0.990
2020/01/31 06:40:13.9	91.420	0.360	-0.720	-0.960
2020/01/31 06:40:14.0	91.430	0.350	-0.750	-0.920
2020/01/31 06:40:14.1	91.450	0.330	-0.770	-0.890
2020/01/31 06:40:14.2	91.460	0.320	-0.780	-0.850
2020/01/31 06:40:14.3	91.490	0.300	-0.790	-0.800
2020/01/31 06:40:14.4	91.510	0.280	-0.800	-0.760
2020/01/31 06:40:14.5	91.530	0.260	-0.810	-0.710
2020/01/31 06:40:14.6	91.560	0.240	-0.800	-0.650
2020/01/31 06:40:14.7	91.580	0.220	-0.800	-0.600
2020/01/31 06:40:14.8	91.600	0.190	-0.790	-0.530
2020/01/31 06:40:14.9	91.630	0.170	-0.780	-0.470
2020/01/31 06:40:15.0	91.650	0.140	-0.760	-0.400
2020/01/31 06:40:15.1	91.670	0.120	-0.730	-0.320
2020/01/31 06:40:15.2	91.680	0.090	-0.710	-0.240
2020/01/31 06:40:15.3	91.700	0.060	-0.670	-0.160
2020/01/31 06:40:15.4	91.720	0.030	-0.640	-0.080
2020/01/31 06:40:15.5	91.730	-0.000	-0.600	0.010
2020/01/31 06:40:15.6	91.750	-0.040	-0.560	0.100
2020/01/31 06:40:15.7	91.760	-0.070	-0.520	0.190
2020/01/31 06:40:15.8	91.780	-0.100	-0.470	0.290
2020/01/31 06:40:15.9	91.790	-0.140	-0.420	0.390
2020/01/31 06:40:16.0	91.800	-0.170	-0.360	0.490
2020/01/31 06:40:16.1	91.800	-0.200	-0.310	0.590
2020/01/31 06:40:16.2	91.810	-0.240	-0.250	0.700
2020/01/31 06:40:16.3	91.810	-0.270	-0.190	0.800
2020/01/31 06:40:16.4	91.810	-0.300	-0.140	0.910
2020/01/31 06:40:16.5	91.810	-0.330	-0.080	1.010
2020/01/31 06:40:16.6	91.810	-0.370	-0.030	1.120
2020/01/31 06:40:16.7	91.810	-0.390	0.030	1.230
2020/01/31 06:40:16.8	91.810	-0.420	0.080	1.340
2020/01/31 06:40:16.9	91.800	-0.450	0.130	1.450
2020/01/31 06:40:17.0	91.790	-0.470	0.180	1.560
2020/01/31 06:40:17.1	91.790	-0.500	0.230	1.670
2020/01/31 06:40:17.2	91.780	-0.510	0.270	1.770
2020/01/31 06:40:17.3	91.780	-0.530	0.310	1.880
2020/01/31 06:40:17.4	91.770	-0.550	0.350	1.980
2020/01/31 06:40:17.5	91.760	-0.560	0.380	2.080
2020/01/31 06:40:17.6	91.750	-0.560	0.400	2.180
2020/01/31 06:40:17.7	91.740	-0.570	0.420	2.270
2020/01/31 06:40:17.8	91.730	-0.570	0.440	2.370
2020/01/31 06:40:17.9	91.720	-0.570	0.450	2.450
2020/01/31 06:40:18.0	91.710	-0.560	0.450	2.540
2020/01/31 06:40:18.1	91.700	-0.550	0.440	2.620
2020/01/31 06:40:18.2	91.690	-0.540	0.430	2.690
2020/01/31 06:40:18.3	91.680	-0.520	0.420	2.760
2020/01/31 06:40:18.4	91.680	-0.500	0.400	2.830
2020/01/31 06:40:18.5	91.670	-0.480	0.370	2.890
2020/01/31 06:40:18.6	91.660	-0.450	0.340	2.950
2020/01/31 06:40:18.7	91.650	-0.420	0.300	3.000
2020/01/31 06:40:18.8	91.650	-0.390	0.260	3.050
2020/01/31 06:40:18.9	91.640	-0.360	0.210	3.090
2020/01/31 06:40:19.0	91.630	-0.320	0.160	3.130
2020/01/31 06:40:19.1	91.630	-0.280	0.100	3.160
2020/01/31 06:40:19.2	91.630	-0.240	0.040	3.190
2020/01/31 06:40:19.3	91.620	-0.200	-0.020	3.210
2020/01/31 06:40:19.4	91.610	-0.160	-0.080	3.230
2020/01/31 06:40:19.5	91.600	-0.120	-0.150	3.250
2020/01/31 06:40:19.6	91.590	-0.080	-0.220	3.250
2020/01/31 06:40:19.7	91.580	-0.040	-0.280	3.260
2020/01/31 06:40:19.8	91.570	0.000	-0.350	3.260
2020/01/31 06:40:19.9	91.560	0.040	-0.410	3.250
2020/01/31 06:40:20.0	91.550	0.080	-0.480	3.240
2020/01/31 06:40:20.1	91.540	0.120	-0.540	3.220
2020/01/31 06:40:20.2	91.540	0.150	-0.600	3.200
2020/01/31 06:40:20.3	91.530	0.190	-0.650	3.170
2020/01/31 06:40:20.4	91.520	0.220	-0.700	3.140
2020/01/31 06:40:20.5	91.520	0.240	-0.750	3.090
2020/01/31 06:40:20.6	91.510	0.270	-0.780	3.040
2020/01/31 06:40:20.7	91.510	0.290	-0.810	2.990
2020/01/31 06:40:20.8	91.500	0.300	-0.840	2.930
2020/01/31 06:40:20.9	91.500	0.320	-0.850	2.860
2020/01/31 06:40:21.0	91.500	0.320	-0.860	2.790
2020/01/31 06:40:21.1	91.500	0.330	-0.860	2.710
2020/01/31 06:40:21.2	91.500	0.330	-0.850	2.620
2020/01/31 06:40:21.3	91.500	0.330	-0.840	2.530
2020/01/31 06:40:21.4	91.510	0.320	-0.820	2.430
2020/01/31 06:40:21.5	91.510	0.310	-0.790	2.330
2020/01/31 06:40:21.6	91.510	0.300	-0.750	2.230
2020/01/31 06:40:21.7	91.520	0.280	-0.700	2.120
2020/01/31 06:40:21.8	91.520	0.260	-0.650	2.010
2020/01/31 06:40:21.9	91.530	0.240	-0.590	1.900
2020/01/31 06:40:22.0	91.540	0.210	-0.530	1.780
2020/01/31 06:40:22.1	91.540	0.180	-0.460	1.670
2020/01/31 06:40:22.2	91.540	0.160	-0.390	1.550
2020/01/31 06:40:22.3	91.550	0.130	-0.310	1.430
2020/01/31 06:40:22.4	91.550	0.090	-0.230	1.310
2020/01/31 06:40:22.5	91.550	0.060	-0.150	1.180
2020/01/31 06:40:22.6	91.560	0.030	-0.070	1.060
2020/01/31 06:40:22.7	91.560	-0.000	0.010	0.940
2020/01/31 06:40:22.8	91.560	-0.030	0.090	0.820
2020/01/31 06:40:22.9	91.560	-0.060	0.170	0.710
2020/01/31 06:40:23.0	91.560	-0.090	0.250	0.590
2020/01/31 06:40:23.1	91.560	-0.120	0.320	0.470
2020/01/31 06:40:23.2	91.560	-0.140	0.390	0.360
2020/01/31 06:40:23.3	91.560	-0.170	0.460	0.250
2020/01/31 06:40:23.4	91.560	-0.190	0.510	0.140
2020/01/31 06:40:23.5	91.560	-0.200	0.560	0.030
2020/01/31 06:40:23.6	91.560	-0.220	0.600	-0.080
2020/01/31 06:40:23.7	91.560	-0.230	0.640	-0.180
2020/01/31 06:40:23.8	91.560	-0.240	0.670	-0.280
2020/01/31 06:40:23.9	91.560	-0.250	0.690	-0.380
2020/01/31 06:40:24.0	91.560	-0.250	0.700	-0.470
2020/01/31 06:40:24.1	91.560	-0.250	0.700	-0.570
2020/01/31 06:40:24.2	91.580	-0.250	0.690	-0.660
2020/01/31 06:40:24.3	91.580	-0.240	0.670	-0.750
2020/01/31 06:40:24.4	91.580	-0.230	0.650	-0.830
2020/01/31 06:40:24.5	91.590	-0.220	0.620	-0.910
2020/01/31 06:40:24.6	91.600	-0.210	0.580	-0.990
2020/01/31 06:40:24.7	91.600	-0.190	0.530	-1.070
2020/01/31 06:40:24.8	91.610	-0.170	0.480	-1.150
2020/01/31 06:40:24.9	91.620	-0.150	0.420	-1.220
2020/01/31 06:40:25.0	91.630	-0.130	0.360	-1.290
2020/01/31 06:40:25.1	91.640	-0.110	0.290	-1.350
2020/01/31 06:40:25.2	91.670	-0.080	0.220	-1.410
2020/01/31 06:40:25.3	91.680	-0.050	0.140	-1.470
2020/01/31 06:40:25.4	91.690	-0.030	0.050	-1.530
2020/01/31 06:40:25.5	91.700	-0.000	-0.030	-1.580
2020/01/31 06:40:25.6	91.710	0.030	-0.120	-1.630
2020/01/31 06:40:25.7	91.730	0.050	-0.200	-1.670
2020/01/31 06:40:25.8	91.740	0.080	-0.290	-1.710
2020/01/31 06:40:25.9	91.750	0.110	-0.380	-1.750
2020/01/31 06:40:26.0	91.760	0.130	-0.470	-1.780
2020/01/31 06:40:26.1	91.770	0.160	-0.560	-1.800
2020/01/31 06:40:26.2	91.760	0.180	-0.640	-1.810
2020/01/31 06:40:26.3	91.770	0.200	-0.720	-1.820
2020/01/31 06:40:26.4	91.770	0.230	-0.800	-1.830
2020/01/31 06:40:26.5	91.780	0.250	-0.870	-1.820
2020/01/31 06:40:26.6	91.780	0.260	-0.940	-1.810
2020/01/31 06:40:26.7	91.780	0.280	-1.000	-1.800
2020/01/31 06:40:26.8	91.790	0.300	-1.060	-1.770
2020/01/31 06:40:26.9	91.780	0.310	-1.110	-1.740
2020/01/31 06:40:27.0	91.780	0.320	-1.150	-1.700
2020/01/31 06:40:27.1	91.780	0.330	-1.180	-1.650
2020/01/31 06:40:27.2	91.780	0.340	-1.210	-1.600
2020/01/31 06:40:27.3	91.770	0.350	-1.230	-1.530
2020/01/31 06:40:27.4	91.770	0.350	-1.240	-1.460
2020/01/31 06:40:27.5	91.760	0.350	-1.240	-1.390
2020/01/31 06:40:27.6	91.750	0.350	-1.230	-1.310
2020/01/31 06:40:27.7	91.740	0.350	-1.210	-1.220
2020/01/31 06:40:27.8	91.730	0.350	-1.180	-1.120
2020/01/31 06:40:27.9	91.710	0.340	-1.150	-1.020
2020/01/31 06:40:28.0	91.700	0.340	-1.100	-0.910
2020/01/31 06:40:28.1	91.680	0.330	-1.050	-0.800
2020/01/31 06:40:28.2	91.670	0.320	-0.990	-0.680
2020/01/31 06:40:28.3	91.650	0.310	-0.920	-0.560
2020/01/31 06:40:28.4	91.630	0.290	-0.850	-0.440
2020/01/31 06:40:28.5	91.610	0.280	-0.770	-0.310
2020/01/31 06:40:28.6	91.590	0.260	-0.680	-0.180
2020/01/31 06:40:28.7	91.570	0.240	-0.590	-0.050
2020/01/31 06:40:28.8	91.550	0.230	-0.500	0.080
2020/01/31 06:40:28.9	91.530	0.210	-0.400	0.210
2020/01/31 06:40:29.0	91.500	0.190	-0.300	0.340
2020/01/31 06:40:29.1	91.480	0.160	-0.200	0.470
2020/01/31 06:40:29.2	91.460	0.140	-0.090	0.600
2020/01/31 06:40:29.3	91.440	0.120	0.010	0.730
2020/01/31 06:40:29.4	91.420	0.100	0.100	0.850
2020/01/31 06:40:29.5	91.400	0.070	0.200	0.980
2020/01/31 06:40:29.6	91.380	0.050	0.290	1.090
2020/01/31 06:40:29.7	91.370	0.030	0.380	1.210
2020/01/31 06:40:29.8	91.350	0.000	0.470	1.320
2020/01/31 06:40:29.9	91.330	-0.020	0.550	1.420
2020/01/31 06:40:30.0	91.320	-0.040	0.620	1.520
2020/01/31 06:40:30.1	91.310	-0.060	0.690	1.620
2020/01/31 06:40:30.2	91.310	-0.090	0.750	1.710
2020/01/31 06:40:30.3	91.300	-0.110	0.800	1.790
2020/01/31 06:40:30.4	91.290	-0.130	0.840	1.870
2020/01/31 06:40:30.5	91.280	-0.140	0.880	1.940
2020/01/31 06:40:30.6	91.280	-0.160	0.910	2.010
2020/01/31 06:40:30.7	91.280	-0.180	0.920	2.070
2020/01/31 06:40:30.8	91.280	-0.190	0.930	2.130
2020/01/31 06:40:30.9	91.280	-0.200	0.940	2.170
2020/01/31 06:40:31.0	91.280	-0.210	0.930	2.220
2020/01/31 06:40:31.1	91.290	-0.220	0.910	2.250
2020/01/31 06:40:31.2	91.300	-0.230	0.890	2.290
2020/01/31 06:40:31.3	91.320	-0.230	0.850	2.310
2020/01/31 06:40:31.4	91.330	-0.230	0.810	2.330
2020/01/31 06:40:31.5	91.350	-0.230	0.770	2.350
2020/01/31 06:40:31.6	91.370	-0.230	0.710	2.360
2020/01/31 06:40:31.7	91.400	-0.230	0.650	2.360
2020/01/31 06:40:31.8	91.420	-0.220	0.580	2.360
2020/01/31 06:40:31.9	91.450	-0.210	0.510	2.360
2020/01/31 06:40:32.0	91.480	-0.200	0.430	2.350
2020/01/31 06:40:32.1	91.510	-0.190	0.350	2.340
2020/01/31 06:40:32.2	91.520	-0.170	0.270	2.320
2020/01/31 06:40:32.3	91.560	-0.160	0.180	2.300
2020/01/31 06:40:32.4	91.590	-0.140	0.090	2.280
2020/01/31 06:40:32.5	91.630	-0.120	-0.010	2.250
2020/01/31 06:40:32.6	91.660	-0.100	-0.100	2.230
2020/01/31 06:40:32.7	91.690	-0.070	-0.190	2.200
2020/01/31 06:40:32.8	91.730	-0.050	-0.280	2.170
2020/01/31 06:40:32.9	91.760	-0.020	-0.380	2.140
2020/01/31 06:40:33.0	91.800	0.010	-0.460	2.110
2020/01/31 06:40:33.1	91.830	0.030	-0.550	2.080
2020/01/31 06:40:33.2	91.850	0.060	-0.630	2.050
2020/01/31 06:40:33.3	91.880	0.090	-0.710	2.010
2020/01/31 06:40:33.4	91.910	0.120	-0.780	1.980
2020/01/31 06:40:33.5	91.940	0.150	-0.850	1.950
2020/01/31 06:40:33.6	91.960	0.170	-0.910	1.930
2020/01/31 06:40:33.7	91.980	0.200	-0.960	1.900
2020/01/31 06:40:33.8	92.000	0.220	-1.010	1.870
2020/01/31 06:40:33.9	92.020	0.250	-1.050	1.850
2020/01/31 06:40:34.0	92.040	0.260	-1.080	1.830
2020/01/31 06:40:34.1	92.050	0.280	-1.100	1.810
2020/01/31 06:40:34.2	92.060	0.300	-1.110	1.790
2020/01/31 06:40:34.3	92.060	0.310	-1.120	1.780
2020/01/31 06:40:34.4	92.070	0.320	-1.110	1.760
2020/01/31 06:40:34.5	92.070	0.320	-1.100	1.750
2020/01/31 06:40:34.6	92.070	0.320	-1.080	1.740
2020/01/31 06:40:34.7	92.070	0.320	-1.050	1.730
2020/01/31 06:40:34.8	92.060	0.310	-1.020	1.720
2020/01/31 06:40:34.9	92.050	0.300	-0.980	1.710
2020/01/31 06:40:35.0	92.040	0.280	-0.920	1.700
2020/01/31 06:40:35.1	92.030	0.260	-0.870	1.690
2020/01/31 06:40:35.2	92.010	0.240	-0.800	1.690
2020/01/31 06:40:35.3	91.990	0.220	-0.730	1.680
2020/01/31 06:40:35.4	91.970	0.190	-0.660	1.670
2020/01/31 06:40:35.5	91.950	0.160	-0.580	1.660
2020/01/31 06:40:35.6	91.920	0.120	-0.500	1.650
2020/01/31 06:40:35.7	91.900	0.080	-0.420	1.640
2020/01/31 06:40:35.8	91.870	0.050	-0.340	1.630
2020/01/31 06:40:35.9	91.840	0.000	-0.250	1.610
2020/01/31 06:40:36.0	91.810	-0.040	-0.170	1.600
2020/01/31 06:40:36.1	91.780	-0.080	-0.080	1.580
2020/01/31 06:40:36.2	91.750	-0.120	0.010	1.560
2020/01/31 06:40:36.3	91.720	-0.170	0.090	1.530
2020/01/31 06:40:36.4	91.690	-0.210	0.170	1.510
2020/01/31 06:40:36.5	91.660	-0.250	0.240	1.480
2020/01/31 06:40:36.6	91.630	-0.300	0.320	1.450
2020/01/31 06:40:36.7	91.590	-0.340	0.380	1.420
2020/01/31 06:40:36.8	91.560	-0.370	0.450	1.380
2020/01/31 06:40:36.9	91.530	-0.410	0.510	1.340
2020/01/31 06:40:37.0	91.510	-0.440	0.560	1.300
2020/01/31 06:40:37.1	91.480	-0.470	0.600	1.260
2020/01/31 06:40:37.2	91.440	-0.500	0.650	1.210
2020/01/31 06:40:37.3	91.420	-0.530	0.680	1.160
2020/01/31 06:40:37.4	91.390	-0.550	0.700	1.110
2020/01/31 06:40:37.5	91.370	-0.560	0.720	1.060
2020/01/31 06:40:37.6	91.350	-0.570	0.730	1.000
2020/01/31 06:40:37.7	91.340	-0.580	0.730	0.940
2020/01/31 06:40:37.8	91.320	-0.580	0.720	0.890
2020/01/31 06:40:37.9	91.300	-0.580	0.700	0.820
2020/01/31 06:40:38.0	91.290	-0.570	0.680	0.760
2020/01/31 06:40:38.1	91.280	-0.560	0.650	0.700
2020/01/31 06:40:38.2	91.280	-0.540	0.610	0.630
2020/01/31 06:40:38.3	91.270	-0.520	0.560	0.560
2020/01/31 06:40:38.4	91.260	-0.500	0.510	0.490
2020/01/31 06:40:38.5	91.260	-0.470	0.450	0.420
2020/01/31 06:40:38.6	91.260	-0.440	0.380	0.350
2020/01/31 06:40:38.7	91.260	-0.400	0.310	0.270
2020/01/31 06:40:38.8	91.260	-0.360	0.230	0.190
2020/01/31 06:40:38.9	91.270	-0.320	0.150	0.120
2020/01/31 06:40:39.0	91.270	-0.270	0.070	0.040
2020/01/31 06:40:39.1	91.280	-0.220	-0.020	-0.050
2020/01/31 06:40:39.2	91.290	-0.170	-0.110	-0.120
2020/01/31 06:40:39.3	91.300	-0.120	-0.200	-0.210
2020/01/31 06:40:39.4	91.310	-0.070	-0.290	-0.290
2020/01/31 06:40:39.5	91.320	-0.020	-0.370	-0.370
2020/01/31 06:40:39.6	91.340	0.030	-0.460	-0.460
2020/01/31 06:40:39.7	91.350	0.080	-0.540	-0.540
2020/01/31 06:40:39.8	91.360	0.130	-0.620	-0.620
2020/01/31 06:40:39.9	91.380	0.170	-0.690	-0.700
2020/01/31 06:40:40.0	91.390	0.220	-0.760	-0.780
2020/01/31 06:40:40.1	91.410	0.260	-0.830	-0.860
2020/01/31 06:40:40.2	91.420	0.300	-0.890	-0.940
2020/01/31 06:40:40.3	91.440	0.340	-0.940	-1.010
2020/01/31 06:40:40.4	91.460	0.380	-0.980	-1.080
2020/01/31 06:40:40.5	91.470	0.410	-1.020	-1.140
2020/01/31 06:40:40.6	91.490	0.430	-1.050	-1.200
2020/01/31 06:40:40.7	91.510	0.460	-1.070	-1.250
2020/01/31 06:40:40.8	91.530	0.480	-1.090	-1.300
2020/01/31 06:40:40.9	91.550	0.490	-1.100	-1.340
2020/01/31 06:40:41.0	91.570	0.500	-1.100	-1.380
2020/01/31 06:40:41.1	91.580	0.510	-1.090	-1.410
2020/01/31 06:40:41.2	91.610	0.520	-1.070	-1.430
2020/01/31 06:40:41.3	91.630	0.520	-1.050	-1.440
2020/01/31 06:40:41.4	91.650	0.510	-1.020	-1.440
2020/01/31 06:40:41.5	91.660	0.510	-0.990	-1.440
2020/01/31 06:40:41.6	91.680	0.490	-0.940	-1.430
2020/01/31 06:40:41.7	91.690	0.480	-0.900	-1.410
2020/01/31 06:40:41.8	91.710	0.470	-0.840	-1.380
2020/01/31 06:40:41.9	91.720	0.450	-0.790	-1.350
2020/01/31 06:40:42.0	91.740	0.430	-0.720	-1.310
2020/01/31 06:40:42.1	91.750	0.400	-0.660	-1.260
2020/01/31 06:40:42.2	91.770	0.380	-0.590	-1.200
2020/01/31 06:40:42.3	91.790	0.350	-0.510	-1.130
2020/01/31 06:40:42.4	91.800	0.320	-0.440	-1.060
2020/01/31 06:40:42.5	91.810	0.290	-0.360	-0.990
2020/01/31 06:40:42.6	91.820	0.260	-0.280	-0.910
2020/01/31 06:40:42.7	91.830	0.230	-0.210	-0.820
2020/01/31 06:40:42.8	91.830	0.200	-0.130	-0.730
2020/01/31 06:40:42.9	91.840	0.170	-0.050	-0.640
2020/01/31 06:40:43.0	91.840	0.140	0.030	-0.540
2020/01/31 06:40:43.1	91.840	0.100	0.110	-0.440
2020/01/31 06:40:43.2	91.850	0.070	0.180	-0.330
2020/01/31 06:40:43.3	91.850	0.040	0.260	-0.220
2020/01/31 06:40:43.4	91.840	0.010	0.330	-0.110
2020/01/31 06:40:43.5	91.840	-0.020	0.390	0.000
2020/01/31 06:40:43.6	91.830	-0.050	0.450	0.120
2020/01/31 06:40:43.7	91.820	-0.080	0.510	0.230
2020/01/31 06:40:43.8	91.810	-0.110	0.570	0.340
2020/01/31 06:40:43.9	91.800	-0.130	0.620	0.460
2020/01/31 06:40:44.0	91.790	-0.160	0.660	0.570
2020/01/31 06:40:44.1	91.770	-0.180	0.700	0.680
2020/01/31 06:40:44.2	91.750	-0.210	0.730	0.800
2020/01/31 06:40:44.3	91.740	-0.230	0.760	0.910
2020/01/31 06:40:44.4	91.720	-0.250	0.780	1.020
2020/01/31 06:40:44.5	91.700	-0.270	0.790	1.120
2020/01/31 06:40:44.6	91.680	-0.280	0.800	1.220
2020/01/31 06:40:44.7	91.670	-0.300	0.800	1.320
2020/01/31 06:40:44.8	91.650	-0.310	0.790	1.420
2020/01/31 06:40:44.9	91.630	-0.320	0.780	1.510
2020/01/31 06:40:45.0	91.610	-0.330	0.760	1.600
2020/01/31 06:40:45.1	91.600	-0.340	0.730	1.690
2020/01/31 06:40:45.2	91.580	-0.340	0.700	1.770
2020/01/31 06:40:45.3	91.560	-0.340	0.660	1.840
2020/01/31 06:40:45.4	91.550	-0.340	0.620	1.910
2020/01/31 06:40:45.5	91.540	-0.340	0.570	1.980
2020/01/31 06:40:45.6	91.530	-0.330	0.520	2.050
2020/01/31 06:40:45.7	91.520	-0.330	0.460	2.100
2020/01/31 06:40:45.8	91.520	-0.320	0.400	2.160
2020/01/31 06:40:45.9	91.510	-0.300	0.340	2.210
2020/01/31 06:40:46.0	91.510	-0.290	0.270	2.250
2020/01/31 06:40:46.1	91.510	-0.270	0.190	2.290
2020/01/31 06:40:46.2	91.520	-0.250	0.120	2.320
2020/01/31 06:40:46.3	91.520	-0.230	0.040	2.350
2020/01/31 06:40:46.4	91.530	-0.210	-0.040	2.380
2020/01/31 06:40:46.5	91.530	-0.180	-0.120	2.400
2020/01/31 06:40:46.6	91.540	-0.150	-0.200	2.420
2020/01/31 06:40:46.7	91.550	-0.120	-0.280	2.430
2020/01/31 06:40:46.8	91.560	-0.090	-0.360	2.440
2020/01/31 06:40:46.9	91.580	-0.060	-0.440	2.450
2020/01/31 06:40:47.0	91.590	-0.030	-0.510	2.450
2020/01/31 06:40:47.1	91.600	0.010	-0.590	2.450
2020/01/31 06:40:47.2	91.630	0.040	-0.660	2.450
2020/01/31 06:40:47.3	91.640	0.080	-0.730	2.440
2020/01/31 06:40:47.4	91.650	0.110	-0.800	2.430
2020/01/31 06:40:47.5	91.670	0.150	-0.860	2.420
2020/01/31 06:40:47.6	91.680	0.180	-0.910	2.410
2020/01/31 06:40:47.7	91.690	0.220	-0.960	2.390
2020/01/31 06:40:47.8	91.710	0.250	-1.010	2.380
2020/01/31 06:40:47.9	91.720	0.280	-1.050	2.360
2020/01/31 06:40:48.0	91.730	0.310	-1.080	2.340
2020/01/31 06:40:48.1	91.740	0.340	-1.110	2.310
2020/01/31 06:40:48.2	91.750	0.360	-1.130	2.290
2020/01/31 06:40:48.3	91.760	0.380	-1.140	2.260
2020/01/31 06:40:48.4	91.770	0.400	-1.150	2.240
2020/01/31 06:40:48.5	91.780	0.420	-1.140	2.210
2020/01/31 06:40:48.6	91.780	0.440	-1.130	2.180
2020/01/31 06:40:48.7	91.790	0.450	-1.120	2.140
2020/01/31 06:40:48.8	91.790	0.460	-1.100	2.110
2020/01/31 06:40:48.9	91.800	0.460	-1.070	2.080
2020/01/31 06:40:49.0	91.800	0.460	-1.030	2.040
2020/01/31 06:40:49.1	91.800	0.460	-0.990	2.010
2020/01/31 06:40:49.2	91.780	0.450	-0.940	1.970
2020/01/31 06:40:49.3	91.770	0.440	-0.880	1.940
2020/01/31 06:40:49.4	91.770	0.430	-0.830	1.900
2020/01/31 06:40:49.5	91.760	0.420	-0.760	1.870
2020/01/31 06:40:49.6	91.750	0.400	-0.690	1.830
2020/01/31 06:40:49.7	91.740	0.380	-0.620	1.800
2020/01/31 06:40:49.8	91.730	0.350	-0.550	1.760
2020/01/31 06:40:49.9	91.720	0.320	-0.470	1.720
2020/01/31 06:40:50.0	91.700	0.290	-0.400	1.680
2020/01/31 06:40:50.1	91.680	0.260	-0.320	1.650
2020/01/31 06:40:50.2	91.660	0.230	-0.230	1.600
2020/01/31 06:40:50.3	91.640	0.190	-0.150	1.560
2020/01/31 06:40:50.4	91.620	0.160	-0.070	1.520
2020/01/31 06:40:50.5	91.600	0.120	0.010	1.470
2020/01/31 06:40:50.6	91.580	0.080	0.080	1.430
2020/01/31 06:40:50.7	91.560	0.040	0.150	1.380
2020/01/31 06:40:50.8	91.530	0.000	0.220	1.320
2020/01/31 06:40:50.9	91.510	-0.040	0.290	1.270
2020/01/31 06:40:51.0	91.490	-0.070	0.360	1.210
2020/01/31 06:40:51.1	91.470	-0.110	0.410	1.150
2020/01/31 06:40:51.2	91.450	-0.150	0.470	1.090
2020/01/31 06:40:51.3	91.430	-0.180	0.520	1.020
2020/01/31 06:40:51.4	91.410	-0.220	0.560	0.950
2020/01/31 06:40:51.5	91.380	-0.250	0.600	0.880
2020/01/31 06:40:51.6	91.360	-0.280	0.640	0.810
2020/01/31 06:40:51.7	91.350	-0.310	0.670	0.740
2020/01/31 06:40:51.8	91.330	-0.330	0.690	0.670
2020/01/31 06:40:51.9	91.310	-0.350	0.710	0.600
2020/01/31 06:40:52.0	91.290	-0.370	0.720	0.520
2020/01/31 06:40:52.1	91.280	-0.390	0.730	0.450
2020/01/31 06:40:52.2	91.270	-0.410	0.740	0.370
2020/01/31 06:40:52.3	91.250	-0.420	0.730	0.300
2020/01/31 06:40:52.4	91.240	-0.430	0.730	0.230
2020/01/31 06:40:52.5	91.220	-0.440	0.710	0.150
2020/01/31 06:40:52.6	91.210	-0.440	0.690	0.080
2020/01/31 06:40:52.7	91.190	-0.450	0.660	0.010
2020/01/31 06:40:52.8	91.180	-0.450	0.630	-0.060
2020/01/31 06:40:52.9	91.170	-0.440	0.590	-0.130
2020/01/31 06:40:53.0	91.160	-0.440	0.550	-0.200
2020/01/31 06:40:53.1	91.150	-0.430	0.500	-0.260
2020/01/31 06:40:53.2	91.140	-0.420	0.450	-0.330
2020/01/31 06:40:53.3	91.130	-0.400	0.390	-0.390
2020/01/31 06:40:53.4	91.120	-0.390	0.330	-0.450
2020/01/31 06:40:53.5	91.120	-0.370	0.260	-0.510
2020/01/31 06:40:53.6	91.110	-0.350	0.190	-0.570
2020/01/31 06:40:53.7	91.110	-0.330	0.120	-0.630
2020/01/31 06:40:53.8	91.110	-0.300	0.050	-0.680
2020/01/31 06:40:53.9	91.110	-0.280	-0.030	-0.730
2020/01/31 06:40:54.0	91.110	-0.250	-0.110	-0.780
2020/01/31 06:40:54.1	91.110	-0.230	-0.190	-0.830
2020/01/31 06:40:54.2	91.120	-0.200	-0.270	-0.870
2020/01/31 06:40:54.3	91.120	-0.170	-0.360	-0.910
2020/01/31 06:40:54.4	91.130	-0.140	-0.440	-0.950
2020/01/31 06:40:54.5	91.140	-0.110	-0.520	-0.980
2020/01/31 06:40:54.6	91.150	-0.080	-0.600	-1.020
2020/01/31 06:40:54.7	91.160	-0.050	-0.670	-1.050
2020/01/31 06:40:54.8	91.180	-0.020	-0.750	-1.070
2020/01/31 06:40:54.9	91.190	0.010	-0.820	-1.100
2020/01/31 06:40:55.0	91.210	0.030	-0.880	-1.120
2020/01/31 06:40:55.1	91.230	0.060	-0.940	-1.140
2020/01/31 06:40:55.2	91.240	0.080	-1.000	-1.150
2020/01/31 06:40:55.3	91.260	0.110	-1.040	-1.160
2020/01/31 06:40:55.4	91.280	0.130	-1.090	-1.160
2020/01/31 06:40:55.5	91.310	0.150	-1.120	-1.170
2020/01/31 06:40:55.6	91.330	0.170	-1.140	-1.160
2020/01/31 06:40:55.7	91.350	0.180	-1.160	-1.160
2020/01/31 06:40:55.8	91.380	0.190	-1.170	-1.150
2020/01/31 06:40:55.9	91.400	0.200	-1.170	-1.130
2020/01/31 06:40:56.0	91.420	0.210	-1.160	-1.110
2020/01/31 06:40:56.1	91.440	0.220	-1.140	-1.090
2020/01/31 06:40:56.2	91.470	0.220	-1.110	-1.050
2020/01/31 06:40:56.3	91.480	0.220	-1.070	-1.020
2020/01/31 06:40:56.4	91.500	0.220	-1.030	-0.980
2020/01/31 06:40:56.5	91.520	0.210	-0.980	-0.940
2020/01/31 06:40:56.6	91.530	0.210	-0.920	-0.890
2020/01/31 06:40:56.7	91.540	0.200	-0.850	-0.830
2020/01/31 06:40:56.8	91.550	0.190	-0.770	-0.780
2020/01/31 06:40:56.9	91.560	0.170	-0.700	-0.710
2020/01/31 06:40:57.0	91.560	0.160	-0.610	-0.650
2020/01/31 06:40:57.1	91.570	0.140	-0.520	-0.580
2020/01/31 06:40:57.2	91.570	0.120	-0.430	-0.500
2020/01/31 06:40:57.3	91.570	0.100	-0.330	-0.420
2020/01/31 06:40:57.4	91.570	0.080	-0.240	-0.340
2020/01/31 06:40:57.5	91.560	0.050	-0.140	-0.250
2020/01/31 06:40:57.6	91.560	0.030	-0.050	-0.160
2020/01/31 06:40:57.7	91.550	0.010	0.050	-0.060
2020/01/31 06:40:57.8	91.540	-0.020	0.140	0.030
2020/01/31 06:40:57.9	91.530	-0.040	0.230	0.130
2020/01/31 06:40:58.0	91.520	-0.070	0.320	0.240
2020/01/31 06:40:58.1	91.500	-0.090	0.400	0.340
2020/01/31 06:40:58.2	91.500	-0.120	0.490	0.450
2020/01/31 06:40:58.3	91.480	-0.140	0.560	0.560
2020/01/31 06:40:58.4	91.470	-0.160	0.620	0.670
2020/01/31 06:40:58.5	91.450	-0.190	0.680	0.780
2020/01/31 06:40:58.6	91.440	-0.210	0.740	0.890
2020/01/31 06:40:58.7	91.420	-0.220	0.780	1.000
2020/01/31 06:40:58.8	91.400	-0.240	0.810	1.110
2020/01/31 06:40:58.9	91.390	-0.250	0.840	1.220
2020/01/31 06:40:59.0	91.370	-0.270	0.860	1.330
2020/01/31 06:40:59.1	91.350	-0.280	0.870	1.430
2020/01/31 06:40:59.2	91.330	-0.280	0.870	1.540
2020/01/31 06:40:59.3	91.310	-0.290	0.860	1.640
2020/01/31 06:40:59.4	91.300	-0.290	0.840	1.740
2020/01/31 06:40:59.5	91.280	-0.290	0.820	1.830
2020/01/31 06:40:59.6	91.270	-0.280	0.780	1.920
2020/01/31 06:40:59.7	91.250	-0.280	0.740	2.000
2020/01/31 06:40:59.8	91.240	-0.270	0.690	2.090
2020/01/31 06:40:59.9	91.220	-0.260	0.630	2.160
2020/01/31 06:41:00.0	91.210	-0.240	0.560	2.240
2020/01/31 06:41:00.1	91.200	-0.220	0.490	2.300
2020/01/31 06:41:00.2	91.180	-0.200	0.410	2.360
2020/01/31 06:41:00.3	91.160	-0.180	0.330	2.420
2020/01/31 06:41:00.4	91.150	-0.160	0.240	2.470
2020/01/31 06:41:00.5	91.130	-0.130	0.160	2.520
2020/01/31 06:41:00.6	91.120	-0.100	0.070	2.560
2020/01/31 06:41:00.7	91.100	-0.070	-0.020	2.590
2020/01/31 06:41:00.8	91.080	-0.040	-0.120	2.620
2020/01/31 06:41:00.9	91.070	-0.000	-0.210	2.640
2020/01/31 06:41:01.0	91.050	0.030	-0.300	2.660
2020/01/31 06:41:01.1	91.030	0.070	-0.380	2.670
2020/01/31 06:41:01.2	91.020	0.100	-0.470	2.680
2020/01/31 06:41:01.3	91.000	0.140	-0.550	2.680
2020/01/31 06:41:01.4	90.980	0.170	-0.630	2.680
2020/01/31 06:41:01.5	90.970	0.210	-0.700	2.670
2020/01/31 06:41:01.6	90.950	0.250	-0.760	2.650
2020/01/31 06:41:01.7	90.940	0.280	-0.820	2.640
2020/01/31 06:41:01.8	90.930	0.320	-0.870	2.620
2020/01/31 06:41:01.9	90.910	0.350	-0.910	2.590
2020/01/31 06:41:02.0	90.900	0.380	-0.950	2.560
2020/01/31 06:41:02.1	90.890	0.410	-0.980	2.530
2020/01/31 06:41:02.2	90.880	0.430	-1.000	2.500
2020/01/31 06:41:02.3	90.870	0.460	-1.010	2.460
2020/01/31 06:41:02.4	90.860	0.480	-1.010	2.430
2020/01/31 06:41:02.5	90.860	0.500	-1.010	2.390
2020/01/31 06:41:02.6	90.850	0.520	-1.000	2.340
2020/01/31 06:41:02.7	90.850	0.530	-0.980	2.300
2020/01/31 06:41:02.8	90.850	0.540	-0.960	2.250
2020/01/31 06:41:02.9	90.840	0.550	-0.930	2.200
2020/01/31 06:41:03.0	90.850	0.550	-0.890	2.150
2020/01/31 06:41:03.1	90.850	0.550	-0.850	2.100
2020/01/31 06:41:03.2	90.850	0.550	-0.790	2.050
2020/01/31 06:41:03.3	90.850	0.550	-0.740	1.990
2020/01/31 06:41:03.4	90.860	0.540	-0.690	1.930
2020/01/31 06:41:03.5	90.860	0.520	-0.620	1.870
2020/01/31 06:41:03.6	90.870	0.510	-0.560	1.810
2020/01/31 06:41:03.7	90.880	0.490	-0.500	1.740
2020/01/31 06:41:03.8	90.880	0.470	-0.430	1.680
2020/01/31 06:41:03.9	90.890	0.450	-0.360	1.610
2020/01/31 06:41:04.0	90.900	0.420	-0.300	1.530
2020/01/31 06:41:04.1	90.910	0.390	-0.230	1.460
2020/01/31 06:41:04.2	90.930	0.360	-0.160	1.380
2020/01/31 06:41:04.3	90.940	0.330	-0.100	1.300
2020/01/31 06:41:04.4	90.960	0.300	-0.040	1.210
2020/01/31 06:41:04.5	90.970	0.260	0.010	1.130
2020/01/31 06:41:04.6	90.990	0.230	0.060	1.040
2020/01/31 06:41:04.7	91.000	0.200	0.110	0.960
2020/01/31 06:41:04.8	91.020	0.160	0.150	0.870
2020/01/31 06:41:04.9	91.040	0.130	0.180	0.780
2020/01/31 06:41:05.0	91.060	0.100	0.220	0.690
2020/01/31 06:41:05.1	91.070	0.070	0.240	0.610
2020/01/31 06:41:05.2	91.080	0.040	0.260	0.520
2020/01/31 06:41:05.3	91.100	0.010	0.270	0.430
2020/01/31 06:41:05.4	91.120	-0.020	0.280	0.350
2020/01/31 06:41:05.5	91.130	-0.050	0.290	0.270
2020/01/31 06:41:05.6	91.150	-0.070	0.290	0.200
2020/01/31 06:41:05.7	91.160	-0.090	0.280	0.120
2020/01/31 06:41:05.8	91.170	-0.110	0.270	0.050
2020/01/31 06:41:05.9	91.180	-0.120	0.260	-0.010
2020/01/31 06:41:06.0	91.190	-0.140	0.240	-0.080
2020/01/31 06:41:06.1	91.200	-0.150	0.220	-0.130
2020/01/31 06:41:06.2	91.220	-0.160	0.190	-0.180
2020/01/31 06:41:06.3	91.230	-0.170	0.160	-0.230
2020/01/31 06:41:06.4	91.230	-0.170	0.130	-0.280
2020/01/31 06:41:06.5	91.230	-0.180	0.100	-0.320
2020/01/31 06:41:06.6	91.230	-0.180	0.060	-0.350
2020/01/31 06:41:06.7	91.220	-0.180	0.020	-0.380
2020/01/31 06:41:06.8	91.220	-0.180	-0.010	-0.410
2020/01/31 06:41:06.9	91.210	-0.180	-0.050	-0.430
2020/01/31 06:41:07.0	91.200	-0.180	-0.090	-0.450
2020/01/31 06:41:07.1	91.190	-0.180	-0.130	-0.460
2020/01/31 06:41:07.2	91.170	-0.170	-0.170	-0.470
2020/01/31 06:41:07.3	91.150	-0.170	-0.200	-0.480
2020/01/31 06:41:07.4	91.140	-0.170	-0.240	-0.480
2020/01/31 06:41:07.5	91.120	-0.170	-0.270	-0.490
2020/01/31 06:41:07.6	91.110	-0.160	-0.310	-0.480
2020/01/31 06:41:07.7	91.090	-0.160	-0.330	-0.480
2020/01/31 06:41:07.8	91.070	-0.160	-0.360	-0.470
2020/01/31 06:41:07.9	91.050	-0.160	-0.380	-0.460
2020/01/31 06:41:08.0	91.040	-0.160	-0.400	-0.450
2020/01/31 06:41:08.1	91.020	-0.160	-0.420	-0.440
2020/01/31 06:41:08.2	91.000	-0.170	-0.430	-0.420
2020/01/31 06:41:08.3	90.990	-0.170	-0.430	-0.400
2020/01/31 06:41:08.4	90.970	-0.180	-0.440	-0.380
2020/01/31 06:41:08.5	90.960	-0.180	-0.430	-0.360
2020/01/31 06:41:08.6	90.950	-0.190	-0.430	-0.330
2020/01/31 06:41:08.7	90.940	-0.200	-0.420	-0.300
2020/01/31 06:41:08.8	90.920	-0.210	-0.400	-0.270
2020/01/31 06:41:08.9	90.920	-0.220	-0.380	-0.240
2020/01/31 06:41:09.0	90.910	-0.230	-0.360	-0.210
2020/01/31 06:41:09.1	90.900	-0.250	-0.330	-0.170
2020/01/31 06:41:09.2	90.900	-0.260	-0.300	-0.130
2020/01/31 06:41:09.3	90.890	-0.270	-0.270	-0.090
2020/01/31 06:41:09.4	90.890	-0.290	-0.230	-0.050
2020/01/31 06:41:09.5	90.890	-0.300	-0.190	-0.000
2020/01/31 06:41:09.6	90.890	-0.320	-0.160	0.040
2020/01/31 06:41:09.7	90.890	-0.330	-0.110	0.090
2020/01/31 06:41:09.8	90.890	-0.340	-0.070	0.130
2020/01/31 06:41:09.9	90.890	-0.350	-0.030	0.180
2020/01/31 06:41:10.0	90.890	-0.360	0.010	0.220
2020/01/31 06:41:10.1	90.900	-0.370	0.050	0.270
2020/01/31 06:41:10.2	90.910	-0.380	0.090	0.320
2020/01/31 06:41:10.3	90.910	-0.390	0.120	0.360
2020/01/31 06:41:10.4	90.920	-0.390	0.160	0.400
2020/01/31 06:41:10.5	90.930	-0.390	0.180	0.440
2020/01/31 06:41:10.6	90.930	-0.390	0.210	0.480
2020/01/31 06:41:10.7	90.940	-0.390	0.230	0.520
2020/01/31 06:41:10.8	90.950	-0.390	0.240	0.560
2020/01/31 06:41:10.9	90.960	-0.380	0.250	0.590
2020/01/31 06:41:11.0	90.970	-0.370	0.260	0.620
2020/01/31 06:41:11.1	90.980	-0.350	0.260	0.650
2020/01/31 06:41:11.2	90.990	-0.340	0.250	0.680
2020/01/31 06:41:11.3	91.000	-0.320	0.240	0.710
2020/01/31 06:41:11.4	91.010	-0.300	0.230	0.740
2020/01/31 06:41:11.5	91.020	-0.270	0.200	0.760
2020/01/31 06:41:11.6	91.040	-0.250	0.180	0.780
2020/01/31 06:41:11.7	91.050	-0.220	0.150	0.800
2020/01/31 06:41:11.8	91.060	-0.190	0.110	0.820
2020/01/31 06:41:11.9	91.070	-0.150	0.070	0.840
2020/01/31 06:41:12.0	91.080	-0.120	0.030	0.860
2020/01/31 06:41:12.1	91.090	-0.080	-0.020	0.880
2020/01/31 06:41:12.2	91.090	-0.050	-0.070	0.890
2020/01/31 06:41:12.3	91.100	-0.010	-0.110	0.910
2020/01/31 06:41:12.4	91.110	0.030	-0.160	0.930
2020/01/31 06:41:12.5	91.110	0.060	-0.210	0.950
2020/01/31 06:41:12.6	91.120	0.100	-0.260	0.960
2020/01/31 06:41:12.7	91.120	0.140	-0.310	0.980
2020/01/31 06:41:12.8	91.120	0.170	-0.360	1.000
2020/01/31 06:41:12.9	91.120	0.210	-0.400	1.020
2020/01/31 06:41:13.0	91.120	0.240	-0.440	1.030
2020/01/31 06:41:13.1	91.120	0.270	-0.480	1.050
2020/01/31 06:41:13.2	91.140	0.300	-0.520	1.070
2020/01/31 06:41:13.3	91.130	0.320	-0.550	1.090
2020/01/31 06:41:13.4	91.130	0.340	-0.570	1.110
2020/01/31 06:41:13.5	91.130	0.360	-0.590	1.130
2020/01/31 06:41:13.6	91.130	0.380	-0.610	1.150
2020/01/31 06:41:13.7	91.140	0.390	-0.620	1.170
2020/01/31 06:41:13.8	91.140	0.400	-0.620	1.190
2020/01/31 06:41:13.9	91.140	0.410	-0.620	1.200
2020/01/31 06:41:14.0	91.140	0.410	-0.620	1.220
2020/01/31 06:41:14.1	91.140	0.410	-0.610	1.240
2020/01/31 06:41:14.2	91.140	0.410	-0.590	1.260
2020/01/31 06:41:14.3	91.140	0.400	-0.580	1.270
2020/01/31 06:41:14.4	91.140	0.390	-0.550	1.290
2020/01/31 06:41:14.5	91.140	0.380	-0.520	1.310
2020/01/31 06:41:14.6	91.140	0.360	-0.490	1.330
2020/01/31 06:41:14.7	91.140	0.340	-0.450	1.350
2020/01/31 06:41:14.8	91.130	0.320	-0.420	1.360
2020/01/31 06:41:14.9	91.130	0.300	-0.370	1.380
2020/01/31 06:41:15.0	91.130	0.280	-0.330	1.400
2020/01/31 06:41:15.1	91.120	0.250	-0.280	1.410
2020/01/31 06:41:15.2	91.110	0.220	-0.230	1.420
2020/01/31 06:41:15.3	91.100	0.190	-0.180	1.440
2020/01/31 06:41:15.4	91.090	0.160	-0.130	1.450
2020/01/31 06:41:15.5	91.080	0.130	-0.080	1.460
2020/01/31 06:41:15.6	91.070	0.100	-0.030	1.460
2020/01/31 06:41:15.7	91.060	0.060	0.030	1.470
2020/01/31 06:41:15.8	91.050	0.030	0.080	1.470
2020/01/31 06:41:15.9	91.040	-0.000	0.130	1.470
2020/01/31 06:41:16.0	91.030	-0.030	0.170	1.460
2020/01/31 06:41:16.1	91.020	-0.060	0.220	1.450
2020/01/31 06:41:16.2	91.000	-0.090	0.260	1.440
2020/01/31 06:41:16.3	91.000	-0.120	0.300	1.430
2020/01/31 06:41:16.4	90.990	-0.150	0.340	1.410
2020/01/31 06:41:16.5	90.980	-0.180	0.370	1.390
2020/01/31 06:41:16.6	90.970	-0.200	0.400	1.370
2020/01/31 06:41:16.7	90.970	-0.220	0.420	1.340
2020/01/31 06:41:16.8	90.960	-0.240	0.440	1.310
2020/01/31 06:41:16.9	90.950	-0.260	0.450	1.280
2020/01/31 06:41:17.0	90.950	-0.270	0.460	1.250
2020/01/31 06:41:17.1	90.940	-0.290	0.460	1.220
2020/01/31 06:41:17.2	90.950	-0.300	0.460	1.180
2020/01/31 06:41:17.3	90.950	-0.300	0.450	1.150
2020/01/31 06:41:17.4	90.940	-0.300	0.430	1.110
2020/01/31 06:41:17.5	90.940	-0.300	0.400	1.070
2020/01/31 06:41:17.6	90.940	-0.300	0.370	1.020
2020/01/31 06:41:17.7	90.940	-0.290	0.330	0.980
2020/01/31 06:41:17.8	90.940	-0.280	0.290	0.940
2020/01/31 06:41:17.9	90.930	-0.270	0.240	0.900
2020/01/31 06:41:18.0	90.930	-0.250	0.180	0.850
2020/01/31 06:41:18.1	90.930	-0.220	0.110	0.810
2020/01/31 06:41:18.2	90.930	-0.200	0.040	0.770
2020/01/31 06:41:18.3	90.930	-0.170	-0.030	0.730
2020/01/31 06:41:18.4	90.930	-0.140	-0.110	0.690
2020/01/31 06:41:18.5	90.920	-0.100	-0.200	0.650
2020/01/31 06:41:18.6	90.920	-0.060	-0.280	0.610
2020/01/31 06:41:18.7	90.920	-0.020	-0.370	0.570
2020/01/31 06:41:18.8	90.920	0.020	-0.460	0.540
2020/01/31 06:41:18.9	90.920	0.070	-0.550	0.500
2020/01/31 06:41:19.0	90.920	0.120	-0.650	0.470
2020/01/31 06:41:19.1	90.920	0.170	-0.740	0.430
2020/01/31 06:41:19.2	90.920	0.220	-0.820	0.400
2020/01/31 06:41:19.3	90.920	0.270	-0.910	0.370
2020/01/31 06:41:19.4	90.920	0.320	-0.990	0.340
2020/01/31 06:41:19.5	90.920	0.370	-1.060	0.310
2020/01/31 06:41:19.6	90.930	0.420	-1.130	0.280
2020/01/31 06:41:19.7	90.930	0.460	-1.190	0.250
2020/01/31 06:41:19.8	90.940	0.510	-1.240	0.220
2020/01/31 06:41:19.9	90.950	0.550	-1.290	0.200
2020/01/31 06:41:20.0	90.950	0.590	-1.320	0.180
2020/01/31 06:41:20.1	90.960	0.630	-1.350	0.150
2020/01/31 06:41:20.2	90.960	0.660	-1.360	0.140
2020/01/31 06:41:20.3	90.970	0.690	-1.360	0.120
2020/01/31 06:41:20.4	90.980	0.720	-1.350	0.100
2020/01/31 06:41:20.5	90.990	0.740	-1.320	0.090
2020/01/31 06:41:20.6	91.000	0.750	-1.290	0.080
2020/01/31 06:41:20.7	91.010	0.760	-1.240	0.070
2020/01/31 06:41:20.8	91.020	0.760	-1.180	0.060
2020/01/31 06:41:20.9	91.020	0.760	-1.110	0.060
2020/01/31 06:41:21.0	91.030	0.750	-1.030	0.060
2020/01/31 06:41:21.1	91.040	0.730	-0.930	0.050
2020/01/31 06:41:21.2	91.040	0.710	-0.830	0.060
2020/01/31 06:41:21.3	91.050	0.680	-0.710	0.060
2020/01/31 06:41:21.4	91.050	0.650	-0.590	0.060
2020/01/31 06:41:21.5	91.050	0.610	-0.470	0.070
2020/01/31 06:41:21.6	91.050	0.560	-0.340	0.070
2020/01/31 06:41:21.7	91.050	0.510	-0.200	0.080
2020/01/31 06:41:21.8	91.050	0.450	-0.060	0.090
2020/01/31 06:41:21.9	91.050	0.390	0.080	0.100
2020/01/31 06:41:22.0	91.050	0.330	0.220	0.110
2020/01/31 06:41:22.1	91.050	0.260	0.360	0.120
2020/01/31 06:41:22.2	91.040	0.190	0.490	0.130
2020/01/31 06:41:22.3	91.040	0.120	0.630	0.140
2020/01/31 06:41:22.4	91.030	0.040	0.750	0.150
2020/01/31 06:41:22.5	91.030	-0.030	0.880	0.170
2020/01/31 06:41:22.6	91.020	-0.110	0.990	0.180
2020/01/31 06:41:22.7	91.010	-0.190	1.090	0.190
2020/01/31 06:41:22.8	91.010	-0.260	1.190	0.200
2020/01/31 06:41:22.9	91.000	-0.340	1.280	0.220
2020/01/31 06:41:23.0	90.990	-0.410	1.350	0.230
2020/01/31 06:41:23.1	90.990	-0.480	1.410	0.240
2020/01/31 06:41:23.2	90.980	-0.550	1.460	0.250
2020/01/31 06:41:23.3	90.970	-0.610	1.490	0.270
2020/01/31 06:41:23.4	90.970	-0.670	1.510	0.280
2020/01/31 06:41:23.5	90.960	-0.730	1.520	0.300
2020/01/31 06:41:23.6	90.960	-0.780	1.520	0.310
2020/01/31 06:41:23.7	90.950	-0.820	1.500	0.320
2020/01/31 06:41:23.8	90.950	-0.860	1.460	0.340
2020/01/31 06:41:23.9	90.950	-0.890	1.410	0.350
2020/01/31 06:41:24.0	90.940	-0.920	1.350	0.370
2020/01/31 06:41:24.1	90.940	-0.940	1.280	0.390
2020/01/31 06:41:24.2	90.940	-0.950	1.190	0.400
2020/01/31 06:41:24.3	90.950	-0.960	1.100	0.420
2020/01/31 06:41:24.4	90.950	-0.960	0.990	0.440
2020/01/31 06:41:24.5	90.950	-0.950	0.880	0.450
2020/01/31 06:41:24.6	90.960	-0.940	0.750	0.470
2020/01/31 06:41:24.7	90.960	-0.920	0.620	0.490
2020/01/31 06:41:24.8	90.970	-0.900	0.490	0.510
2020/01/31 06:41:24.9	90.980	-0.870	0.350	0.530
2020/01/31 06:41:25.0	90.990	-0.840	0.200	0.550
2020/01/31 06:41:25.1	91.000	-0.800	0.060	0.580
2020/01/31 06:41:25.2	91.010	-0.760	-0.090	0.610
2020/01/31 06:41:25.3	91.020	-0.720	-0.240	0.630
2020/01/31 06:41:25.4	91.020	-0.670	-0.390	0.660
2020/01/31 06:41:25.5	91.030	-0.620	-0.530	0.690
2020/01/31 06:41:25.6	91.040	-0.570	-0.670	0.720
2020/01/31 06:41:25.7	91.040	-0.520	-0.800	0.750
2020/01/31 06:41:25.8	91.050	-0.460	-0.930	0.780
2020/01/31 06:41:25.9	91.050	-0.410	-1.050	0.820
2020/01/31 06:41:26.0	91.060	-0.360	-1.170	0.850
2020/01/31 06:41:26.1	91.060	-0.310	-1.270	0.880
2020/01/31 06:41:26.2	91.050	-0.250	-1.370	0.920
2020/01/31 06:41:26.3	91.050	-0.210	-1.460	0.960
2020/01/31 06:41:26.4	91.050	-0.160	-1.530	0.990
2020/01/31 06:41:26.5	91.040	-0.110	-1.590	1.020
2020/01/31 06:41:26.6	91.040	-0.070	-1.640	1.060
2020/01/31 06:41:26.7	91.030	-0.030	-1.680	1.090
2020/01/31 06:41:26.8	91.020	0.010	-1.700	1.120
2020/01/31 06:41:26.9	91.010	0.040	-1.710	1.150
2020/01/31 06:41:27.0	91.000	0.070	-1.710	1.180
2020/01/31 06:41:27.1	90.990	0.100	-1.700	1.200
2020/01/31 06:41:27.2	90.980	0.120	-1.670	1.230
2020/01/31 06:41:27.3	90.970	0.150	-1.630	1.250
2020/01/31 06:41:27.4	90.950	0.160	-1.580	1.270
2020/01/31 06:41:27.5	90.930	0.180	-1.520	1.290
2020/01/31 06:41:27.6	90.920	0.190	-1.450	1.310
2020/01/31 06:41:27.7	90.900	0.200	-1.380	1.330
2020/01/31 06:41:27.8	90.880	0.200	-1.290	1.350
2020/01/31 06:41:27.9	90.860	0.210	-1.190	1.360
2020/01/31 06:41:28.0	90.830	0.210	-1.090	1.380
2020/01/31 06:41:28.1	90.810	0.210	-0.980	1.390
2020/01/31 06:41:28.2	90.790	0.210	-0.870	1.400
2020/01/31 06:41:28.3	90.760	0.210	-0.760	1.410
2020/01/31 06:41:28.4	90.740	0.200	-0.640	1.420
2020/01/31 06:41:28.5	90.720	0.200	-0.520	1.430
2020/01/31 06:41:28.6	90.700	0.190	-0.410	1.440
2020/01/31 06:41:28.7	90.680	0.190	-0.290	1.440
2020/01/31 06:41:28.8	90.660	0.180	-0.180	1.440
2020/01/31 06:41:28.9	90.640	0.180	-0.080	1.440
2020/01/31 06:41:29.0	90.620	0.180	0.030	1.430
2020/01/31 06:41:29.1	90.610	0.170	0.120	1.420
2020/01/31 06:41:29.2	90.590	0.170	0.220	1.410
2020/01/31 06:41:29.3	90.580	0.170	0.300	1.400
2020/01/31 06:41:29.4	90.570	0.170	0.380	1.380
2020/01/31 06:41:29.5	90.560	0.180	0.440	1.350
2020/01/31 06:41:29.6	90.550	0.180	0.500	1.330
2020/01/31 06:41:29.7	90.550	0.180	0.550	1.300
2020/01/31 06:41:29.8	90.540	0.190	0.580	1.270
2020/01/31 06:41:29.9	90.540	0.200	0.610	1.230
2020/01/31 06:41:30.0	90.540	0.210	0.630	1.190
2020/01/31 06:41:30.1	90.540	0.220	0.640	1.150
2020/01/31 06:41:30.2	90.540	0.230	0.640	1.100
2020/01/31 06:41:30.3	90.540	0.250	0.630	1.050
2020/01/31 06:41:30.4	90.540	0.260	0.620	1.000
2020/01/31 06:41:30.5	90.540	0.280	0.590	0.950
2020/01/31 06:41:30.6	90.540	0.300	0.560	0.900
2020/01/31 06:41:30.7	90.550	0.320	0.520	0.840
2020/01/31 06:41:30.8	90.550	0.340	0.480	0.780
2020/01/31 06:41:30.9	90.550	0.360	0.430	0.720
2020/01/31 06:41:31.0	90.560	0.380	0.370	0.660
2020/01/31 06:41:31.1	90.560	0.400	0.310	0.600
2020/01/31 06:41:31.2	90.570	0.420	0.250	0.530
2020/01/31 06:41:31.3	90.580	0.440	0.190	0.470
2020/01/31 06:41:31.4	90.580	0.460	0.120	0.400
2020/01/31 06:41:31.5	90.590	0.480	0.060	0.340
2020/01/31 06:41:31.6	90.600	0.490	-0.010	0.270
2020/01/31 06:41:31.7	90.600	0.510	-0.070	0.200
2020/01/31 06:41:31.8	90.610	0.530	-0.130	0.140
2020/01/31 06:41:31.9	90.620	0.540	-0.190	0.080
2020/01/31 06:41:32.0	90.620	0.550	-0.250	0.010
2020/01/31 06:41:32.1	90.630	0.560	-0.300	-0.050
2020/01/31 06:41:32.2	90.640	0.570	-0.350	-0.100
2020/01/31 06:41:32.3	90.650	0.570	-0.390	-0.160
2020/01/31 06:41:32.4	90.660	0.580	-0.430	-0.210
2020/01/31 06:41:32.5	90.660	0.570	-0.460	-0.260
2020/01/31 06:41:32.6	90.670	0.570	-0.480	-0.310
2020/01/31 06:41:32.7	90.680	0.560	-0.500	-0.350
2020/01/31 06:41:32.8	90.690	0.550	-0.510	-0.390
2020/01/31 06:41:32.9	90.700	0.540	-0.520	-0.430
2020/01/31 06:41:33.0	90.710	0.520	-0.510	-0.460
2020/01/31 06:41:33.1	90.710	0.500	-0.500	-0.480
2020/01/31 06:41:33.2	90.740	0.470	-0.490	-0.500
2020/01/31 06:41:33.3	90.750	0.450	-0.470	-0.520
2020/01/31 06:41:33.4	90.750	0.410	-0.440	-0.530
2020/01/31 06:41:33.5	90.760	0.380	-0.400	-0.540
2020/01/31 06:41:33.6	90.770	0.340	-0.370	-0.540
2020/01/31 06:41:33.7	90.780	0.300	-0.320	-0.540
2020/01/31 06:41:33.8	90.790	0.250	-0.270	-0.530
2020/01/31 06:41:33.9	90.800	0.210	-0.220	-0.520
2020/01/31 06:41:34.0	90.800	0.160	-0.170	-0.500
2020/01/31 06:41:34.1	90.810	0.110	-0.110	-0.480
2020/01/31 06:41:34.2	90.820	0.060	-0.050	-0.450
2020/01/31 06:41:34.3	90.830	0.000	0.010	-0.420
2020/01/31 06:41:34.4	90.830	-0.050	0.070	-0.380
2020/01/31 06:41:34.5	90.840	-0.110	0.130	-0.340
2020/01/31 06:41:34.6	90.840	-0.160	0.190	-0.290
2020/01/31 06:41:34.7	90.840	-0.210	0.250	-0.240
2020/01/31 06:41:34.8	90.840	-0.270	0.310	-0.180
2020/01/31 06:41:34.9	90.840	-0.320	0.360	-0.130
2020/01/31 06:41:35.0	90.840	-0.370	0.410	-0.060
2020/01/31 06:41:35.1	90.840	-0.420	0.460	0.000
2020/01/31 06:41:35.2	90.840	-0.460	0.510	0.070
2020/01/31 06:41:35.3	90.840	-0.500	0.540	0.140
2020/01/31 06:41:35.4	90.830	-0.540	0.580	0.210
2020/01/31 06:41:35.5	90.830	-0.580	0.600	0.280
2020/01/31 06:41:35.6	90.820	-0.610	0.620	0.350
2020/01/31 06:41:35.7	90.810	-0.640	0.630	0.420
2020/01/31 06:41:35.8	90.810	-0.660	0.640	0.490
2020/01/31 06:41:35.9	90.800	-0.670	0.630	0.570
2020/01/31 06:41:36.0	90.790	-0.690	0.620	0.640
2020/01/31 06:41:36.1	90.780	-0.690	0.600	0.700
2020/01/31 06:41:36.2	90.780	-0.700	0.580	0.770
2020/01/31 06:41:36.3	90.780	-0.690	0.540	0.840
2020/01/31 06:41:36.4	90.770	-0.680	0.500	0.900
2020/01/31 06:41:36.5	90.770	-0.670	0.450	0.970
2020/01/31 06:41:36.6	90.760	-0.650	0.390	1.030
2020/01/31 06:41:36.7	90.760	-0.630	0.330	1.090
2020/01/31 06:41:36.8	90.760	-0.600	0.260	1.150
2020/01/31 06:41:36.9	90.760	-0.570	0.180	1.200
2020/01/31 06:41:37.0	90.760	-0.530	0.100	1.260
2020/01/31 06:41:37.1	90.750	-0.500	0.020	1.320
2020/01/31 06:41:37.2	90.760	-0.450	-0.070	1.370
2020/01/31 06:41:37.3	90.760	-0.410	-0.160	1.430
2020/01/31 06:41:37.4	90.760	-0.360	-0.250	1.480
2020/01/31 06:41:37.5	90.760	-0.320	-0.340	1.530
2020/01/31 06:41:37.6	90.760	-0.270	-0.440	1.580
2020/01/31 06:41:37.7	90.760	-0.220	-0.530	1.630
2020/01/31 06:41:37.8	90.760	-0.170	-0.620	1.680
2020/01/31 06:41:37.9	90.760	-0.120	-0.700	1.730
2020/01/31 06:41:38.0	90.760	-0.070	-0.780	1.780
2020/01/31 06:41:38.1	90.750	-0.030	-0.860	1.820
2020/01/31 06:41:38.2	90.740	0.020	-0.930	1.870
2020/01/31 06:41:38.3	90.740	0.060	-1.000	1.910
2020/01/31 06:41:38.4	90.740	0.090	-1.060	1.940
2020/01/31 06:41:38.5	90.730	0.130	-1.110	1.980
2020/01/31 06:41:38.6	90.730	0.160	-1.150	2.010
2020/01/31 06:41:38.7	90.720	0.190	-1.190	2.040
2020/01/31 06:41:38.8	90.720	0.210	-1.220	2.060
2020/01/31 06:41:38.9	90.710	0.230	-1.230	2.080
2020/01/31 06:41:39.0	90.710	0.240	-1.240	2.090
2020/01/31 06:41:39.1	90.700	0.250	-1.240	2.100
2020/01/31 06:41:39.2	90.690	0.260	-1.230	2.100
2020/01/31 06:41:39.3	90.690	0.260	-1.210	2.100
2020/01/31 06:41:39.4	90.680	0.260	-1.190	2.100
2020/01/31 06:41:39.5	90.680	0.250	-1.150	2.080
2020/01/31 06:41:39.6	90.670	0.240	-1.110	2.070
2020/01/31 06:41:39.7	90.670	0.230	-1.060	2.050
2020/01/31 06:41:39.8	90.670	0.210	-1.000	2.030
2020/01/31 06:41:39.9	90.660	0.190	-0.930	2.000
2020/01/31 06:41:40.0	90.660	0.170	-0.860	1.960
2020/01/31 06:41:40.1	90.660	0.140	-0.780	1.930
2020/01/31 06:41:40.2	90.650	0.110	-0.690	1.890
2020/01/31 06:41:40.3	90.650	0.080	-0.600	1.840
2020/01/31 06:41:40.4	90.650	0.050	-0.510	1.800
2020/01/31 06:41:40.5	90.650	0.020	-0.410	1.750
2020/01/31 06:41:40.6	90.650	-0.010	-0.320	1.700
2020/01/31 06:41:40.7	90.650	-0.040	-0.220	1.640
2020/01/31 06:41:40.8	90.650	-0.070	-0.120	1.590
2020/01/31 06:41:40.9	90.650	-0.100	-0.020	1.530
2020/01/31 06:41:41.0	90.650	-0.130	0.070	1.470
2020/01/31 06:41:41.1	90.650	-0.160	0.160	1.420
2020/01/31 06:41:41.2	90.650	-0.180	0.250	1.360
2020/01/31 06:41:41.3	90.650	-0.200	0.330	1.300
2020/01/31 06:41:41.4	90.650	-0.220	0.410	1.240
2020/01/31 06:41:41.5	90.660	-0.240	0.480	1.180
2020/01/31 06:41:41.6	90.660	-0.250	0.540	1.120
2020/01/31 06:41:41.7	90.660	-0.260	0.590	1.070
2020/01/31 06:41:41.8	90.660	-0.270	0.630	1.010
2020/01/31 06:41:41.9	90.660	-0.270	0.670	0.950
2020/01/31 06:41:42.0	90.660	-0.270	0.690	0.900
2020/01/31 06:41:42.1	90.660	-0.260	0.710	0.840
2020/01/31 06:41:42.2	90.660	-0.250	0.710	0.790
2020/01/31 06:41:42.3	90.650	-0.240	0.710	0.740
2020/01/31 06:41:42.4	90.650	-0.230	0.690	0.690
2020/01/31 06:41:42.5	90.650	-0.210	0.670	0.630
2020/01/31 06:41:42.6	90.640	-0.190	0.640	0.580
2020/01/31 06:41:42.7	90.640	-0.160	0.600	0.530
2020/01/31 06:41:42.8	90.630	-0.140	0.550	0.480
2020/01/31 06:41:42.9	90.630	-0.110	0.500	0.430
2020/01/31 06:41:43.0	90.620	-0.080	0.440	0.380
2020/01/31 06:41:43.1	90.610	-0.050	0.370	0.330
2020/01/31 06:41:43.2	90.610	-0.010	0.300	0.280
2020/01/31 06:41:43.3	90.600	0.020	0.230	0.230
2020/01/31 06:41:43.4	90.590	0.050	0.150	0.180
2020/01/31 06:41:43.5	90.590	0.080	0.070	0.130
2020/01/31 06:41:43.6	90.580	0.120	-0.000	0.080
2020/01/31 06:41:43.7	90.570	0.150	-0.080	0.030
2020/01/31 06:41:43.8	90.570	0.180	-0.160	-0.020
2020/01/31 06:41:43.9	90.560	0.210	-0.240	-0.070
2020/01/31 06:41:44.0	90.560	0.240	-0.310	-0.120
2020/01/31 06:41:44.1	90.550	0.270	-0.380	-0.160
2020/01/31 06:41:44.2	90.550	0.290	-0.450	-0.210
2020/01/31 06:41:44.3	90.550	0.310	-0.510	-0.260
2020/01/31 06:41:44.4	90.540	0.330	-0.570	-0.300
2020/01/31 06:41:44.5	90.540	0.350	-0.620	-0.350
2020/01/31 06:41:44.6	90.540	0.370	-0.660	-0.390
2020/01/31 06:41:44.7	90.540	0.380	-0.700	-0.430
2020/01/31 06:41:44.8	90.550	0.390	-0.740	-0.470
2020/01/31 06:41:44.9	90.550	0.400	-0.760	-0.500
2020/01/31 06:41:45.0	90.550	0.400	-0.780	-0.540
2020/01/31 06:41:45.1	90.560	0.410	-0.800	-0.570
2020/01/31 06:41:45.2	90.550	0.410	-0.800	-0.600
2020/01/31 06:41:45.3	90.560	0.400	-0.800	-0.620
2020/01/31 06:41:45.4	90.570	0.400	-0.800	-0.640
2020/01/31 06:41:45.5	90.570	0.390	-0.780	-0.650
2020/01/31 06:41:45.6	90.580	0.380	-0.770	-0.670
2020/01/31 06:41:45.7	90.590	0.370	-0.740	-0.670
2020/01/31 06:41:45.8	90.600	0.360	-0.710	-0.680
2020/01/31 06:41:45.9	90.610	0.340	-0.680	-0.670
2020/01/31 06:41:46.0	90.620	0.320	-0.640	-0.670
2020/01/31 06:41:46.1	90.620	0.300	-0.590	-0.660
2020/01/31 06:41:46.2	90.640	0.280	-0.540	-0.640
2020/01/31 06:41:46.3	90.640	0.260	-0.490	-0.620
2020/01/31 06:41:46.4	90.650	0.240	-0.440	-0.600
2020/01/31 06:41:46.5	90.660	0.210	-0.380	-0.580
2020/01/31 06:41:46.6	90.660	0.190	-0.330	-0.550
2020/01/31 06:41:46.7	90.670	0.160	-0.270	-0.520
2020/01/31 06:41:46.8	90.670	0.140	-0.210	-0.480
2020/01/31 06:41:46.9	90.670	0.110	-0.150	-0.450
2020/01/31 06:41:47.0	90.670	0.090	-0.090	-0.410
2020/01/31 06:41:47.1	90.680	0.060	-0.030	-0.360
2020/01/31 06:41:47.2	90.680	0.040	0.020	-0.320
2020/01/31 06:41:47.3	90.680	0.020	0.080	-0.270
2020/01/31 06:41:47.4	90.680	-0.010	0.130	-0.230
2020/01/31 06:41:47.5	90.680	-0.030	0.180	-0.180
2020/01/31 06:41:47.6	90.680	-0.050	0.220	-0.130
2020/01/31 06:41:47.7	90.680	-0.070	0.260	-0.080
2020/01/31 06:41:47.8	90.680	-0.090	0.300	-0.030
2020/01/31 06:41:47.9	90.670	-0.100	0.340	0.030
2020/01/31 06:41:48.0	90.670	-0.120	0.370	0.080
2020/01/31 06:41:48.1	90.660	-0.130	0.390	0.130
2020/01/31 06:41:48.2	90.660	-0.150	0.410	0.190
2020/01/31 06:41:48.3	90.650	-0.160	0.430	0.250
2020/01/31 06:41:48.4	90.650	-0.170	0.440	0.300
2020/01/31 06:41:48.5	90.640	-0.180	0.440	0.360
2020/01/31 06:41:48.6	90.640	-0.180	0.440	0.410
2020/01/31 06:41:48.7	90.640	-0.190	0.440	0.470
2020/01/31 06:41:48.8	90.630	-0.190	0.430	0.530
2020/01/31 06:41:48.9	90.630	-0.200	0.420	0.590
2020/01/31 06:41:49.0	90.630	-0.200	0.400	0.650
2020/01/31 06:41:49.1	90.630	-0.200	0.380	0.700
2020/01/31 06:41:49.2	90.620	-0.200	0.360	0.760
2020/01/31 06:41:49.3	90.620	-0.200	0.330	0.820
2020/01/31 06:41:49.4	90.620	-0.200	0.300	0.880
2020/01/31 06:41:49.5	90.610	-0.190	0.270	0.950
2020/01/31 06:41:49.6	90.610	-0.190	0.240	1.010
2020/01/31 06:41:49.7	90.610	-0.180	0.200	1.070
2020/01/31 06:41:49.8	90.600	-0.180	0.160	1.140
2020/01/31 06:41:49.9	90.600	-0.170	0.130	1.200
2020/01/31 06:41:50.0	90.600	-0.170	0.090	1.260
2020/01/31 06:41:50.1	90.590	-0.160	0.050	1.320
2020/01/31 06:41:50.2	90.590	-0.160	0.010	1.390
2020/01/31 06:41:50.3	90.590	-0.150	-0.030	1.440
2020/01/31 06:41:50.4	90.590	-0.140	-0.070	1.500
2020/01/31 06:41:50.5	90.590	-0.130	-0.100	1.560
2020/01/31 06:41:50.6	90.600	-0.130	-0.140	1.610
2020/01/31 06:41:50.7	90.600	-0.120	-0.170	1.660
2020/01/31 06:41:50.8	90.600	-0.110	-0.210	1.700
2020/01/31 06:41:50.9	90.610	-0.110	-0.240	1.750
2020/01/31 06:41:51.0	90.620	-0.100	-0.260	1.790
2020/01/31 06:41:51.1	90.620	-0.090	-0.290	1.820
2020/01/31 06:41:51.2	90.640	-0.090	-0.320	1.850
2020/01/31 06:41:51.3	90.650	-0.080	-0.340	1.880
2020/01/31 06:41:51.4	90.660	-0.070	-0.360	1.910
2020/01/31 06:41:51.5	90.670	-0.070	-0.380	1.930
2020/01/31 06:41:51.6	90.680	-0.060	-0.400	1.960
2020/01/31 06:41:51.7	90.690	-0.050	-0.410	1.970
2020/01/31 06:41:51.8	90.710	-0.050	-0.420	1.990
2020/01/31 06:41:51.9	90.720	-0.040	-0.430	2.000
2020/01/31 06:41:52.0	90.740	-0.040	-0.440	2.010
2020/01/31 06:41:52.1	90.750	-0.030	-0.440	2.010
2020/01/31 06:41:52.2	90.770	-0.030	-0.440	2.020
2020/01/31 06:41:52.3	90.780	-0.020	-0.440	2.020
2020/01/31 06:41:52.4	90.800	-0.020	-0.440	2.020
2020/01/31 06:41:52.5	90.810	-0.020	-0.440	2.020
2020/01/31 06:41:52.6	90.820	-0.010	-0.440	2.010
2020/01/31 06:41:52.7	90.840	-0.010	-0.440	2.000
2020/01/31 06:41:52.8	90.850	-0.000	-0.440	1.990
2020/01/31 06:41:52.9	90.860	0.000	-0.440	1.980
2020/01/31 06:41:53.0	90.870	0.000	-0.440	1.970
2020/01/31 06:41:53.1	90.890	0.010	-0.430	1.960
2020/01/31 06:41:53.2	90.890	0.010	-0.430	1.930
2020/01/31 06:41:53.3	90.900	0.020	-0.430	1.920
2020/01/31 06:41:53.4	90.910	0.020	-0.430	1.900
2020/01/31 06:41:53.5	90.920	0.030	-0.430	1.880
2020/01/31 06:41:53.6	90.920	0.030	-0.430	1.860
2020/01/31 06:41:53.7	90.930	0.040	-0.430	1.840
2020/01/31 06:41:53.8	90.930	0.040	-0.430	1.820
2020/01/31 06:41:53.9	90.940	0.050	-0.440	1.800
2020/01/31 06:41:54.0	90.940	0.050	-0.440	1.770
2020/01/31 06:41:54.1	90.950	0.060	-0.440	1.750
2020/01/31 06:41:54.2	90.950	0.060	-0.430	1.720
2020/01/31 06:41:54.3	90.950	0.070	-0.430	1.700
2020/01/31 06:41:54.4	90.950	0.070	-0.430	1.670
2020/01/31 06:41:54.5	90.950	0.080	-0.430	1.640
2020/01/31 06:41:54.6	90.950	0.080	-0.420	1.610
2020/01/31 06:41:54.7	90.950	0.090	-0.420	1.580
2020/01/31 06:41:54.8	90.950	0.090	-0.410	1.550
2020/01/31 06:41:54.9	90.950	0.090	-0.400	1.520
2020/01/31 06:41:55.0	90.950	0.100	-0.380	1.480
2020/01/31 06:41:55.1	90.950	0.100	-0.370	1.450
2020/01/31 06:41:55.2	90.950	0.100	-0.350	1.410
2020/01/31 06:41:55.3	90.940	0.100	-0.330	1.370
2020/01/31 06:41:55.4	90.940	0.100	-0.310	1.330
2020/01/31 06:41:55.5	90.940	0.090	-0.280	1.290
2020/01/31 06:41:55.6	90.930	0.090	-0.250	1.250
2020/01/31 06:41:55.7	90.930	0.080	-0.220	1.200
2020/01/31 06:41:55.8	90.920	0.080	-0.180	1.160
2020/01/31 06:41:55.9	90.920	0.070	-0.150	1.110
2020/01/31 06:41:56.0	90.910	0.060	-0.110	1.060
2020/01/31 06:41:56.1	90.900	0.050	-0.070	1.010
2020/01/31 06:41:56.2	90.890	0.040	-0.020	0.960
2020/01/31 06:41:56.3	90.880	0.020	0.020	0.910
2020/01/31 06:41:56.4	90.870	0.010	0.060	0.850
2020/01/31 06:41:56.5	90.860	-0.000	0.100	0.800
2020/01/31 06:41:56.6	90.840	-0.020	0.140	0.750
2020/01/31 06:41:56.7	90.830	-0.030	0.180	0.690
2020/01/31 06:41:56.8	90.820	-0.050	0.220	0.640
2020/01/31 06:41:56.9	90.800	-0.070	0.250	0.580
2020/01/31 06:41:57.0	90.780	-0.080	0.280	0.530
2020/01/31 06:41:57.1	90.770	-0.100	0.310	0.480
2020/01/31 06:41:57.2	90.750	-0.110	0.330	0.420
2020/01/31 06:41:57.3	90.740	-0.120	0.350	0.370
2020/01/31 06:41:57.4	90.720	-0.140	0.360	0.320
2020/01/31 06:41:57.5	90.700	-0.150	0.370	0.270
2020/01/31 06:41:57.6	90.680	-0.160	0.370	0.220
2020/01/31 06:41:57.7	90.660	-0.160	0.370	0.170
2020/01/31 06:41:57.8	90.640	-0.170	0.350	0.130
2020/01/31 06:41:57.9	90.620	-0.170	0.340	0.080
2020/01/31 06:41:58.0	90.600	-0.170	0.310	0.040
2020/01/31 06:41:58.1	90.590	-0.170	0.280	-0.010
2020/01/31 06:41:58.2	90.570	-0.170	0.240	-0.050
2020/01/31 06:41:58.3	90.560	-0.160	0.200	-0.090
2020/01/31 06:41:58.4	90.550	-0.150	0.150	-0.140
2020/01/31 06:41:58.5	90.530	-0.140	0.090	-0.180
2020/01/31 06:41:58.6	90.520	-0.130	0.030	-0.230
2020/01/31 06:41:58.7	90.520	-0.110	-0.040	-0.270
2020/01/31 06:41:58.8	90.510	-0.090	-0.100	-0.310
2020/01/31 06:41:58.9	90.510	-0.070	-0.180	-0.360
2020/01/31 06:41:59.0	90.500	-0.050	-0.250	-0.400
2020/01/31 06:41:59.1	90.510	-0.020	-0.330	-0.450
2020/01/31 06:41:59.2	90.510	0.000	-0.400	-0.490
2020/01/31 06:41:59.3	90.520	0.030	-0.480	-0.540
2020/01/31 06:41:59.4	90.530	0.060	-0.550	-0.580
2020/01/31 06:41:59.5	90.540	0.090	-0.620	-0.630
2020/01/31 06:41:59.6	90.560	0.120	-0.690	-0.670
2020/01/31 06:41:59.7	90.570	0.150	-0.760	-0.710
2020/01/31 06:41:59.8	90.590	0.180	-0.820	-0.750
2020/01/31 06:41:59.9	90.610	0.200	-0.880	-0.790
2020/01/31 06:42:00.0	90.640	0.230	-0.930	-0.830
2020/01/31 06:42:00.1	90.660	0.260	-0.970	-0.860
2020/01/31 06:42:00.2	90.690	0.280	-1.010	-0.890
2020/01/31 06:42:00.3	90.720	0.310	-1.030	-0.920
2020/01/31 06:42:00.4	90.750	0.330	-1.050	-0.940
2020/01/31 06:42:00.5	90.770	0.350	-1.070	-0.950
2020/01/31 06:42:00.6	90.800	0.360	-1.070	-0.960
2020/01/31 06:42:00.7	90.840	0.380	-1.060	-0.970
2020/01/31 06:42:00.8	90.870	0.390	-1.050	-0.970
2020/01/31 06:42:00.9	90.900	0.400	-1.030	-0.960
2020/01/31 06:42:01.0	90.920	0.400	-1.000	-0.950
2020/01/31 06:42:01.1	90.950	0.400	-0.960	-0.930
2020/01/31 06:42:01.2	90.980	0.400	-0.910	-0.890
2020/01/31 06:42:01.3	91.010	0.400	-0.850	-0.860
2020/01/31 06:42:01.4	91.030	0.390	-0.790	-0.820
2020/01/31 06:42:01.5	91.050	0.380	-0.720	-0.770
2020/01/31 06:42:01.6	91.070	0.360	-0.650	-0.720
2020/01/31 06:42:01.7	91.090	0.340	-0.570	-0.670
2020/01/31 06:42:01.8	91.110	0.320	-0.480	-0.600
2020/01/31 06:42:01.9	91.130	0.300	-0.390	-0.540
2020/01/31 06:42:02.0	91.140	0.270	-0.300	-0.460
2020/01/31 06:42:02.1	91.160	0.240	-0.200	-0.390
2020/01/31 06:42:02.2	91.170	0.210	-0.110	-0.310
2020/01/31 06:42:02.3	91.180	0.170	-0.010	-0.220
2020/01/31 06:42:02.4	91.190	0.140	0.090	-0.140
2020/01/31 06:42:02.5	91.200	0.100	0.190	-0.050
2020/01/31 06:42:02.6	91.200	0.060	0.280	0.040
2020/01/31 06:42:02.7	91.210	0.020	0.380	0.130
2020/01/31 06:42:02.8	91.210	-0.020	0.470	0.220
2020/01/31 06:42:02.9	91.210	-0.070	0.560	0.310
2020/01/31 06:42:03.0	91.220	-0.110	0.650	0.410
2020/01/31 06:42:03.1	91.220	-0.150	0.730	0.500
2020/01/31 06:42:03.2	91.210	-0.190	0.810	0.590
2020/01/31 06:42:03.3	91.210	-0.240	0.880	0.680
2020/01/31 06:42:03.4	91.200	-0.280	0.940	0.770
2020/01/31 06:42:03.5	91.200	-0.320	1.000	0.860
2020/01/31 06:42:03.6	91.190	-0.360	1.050	0.950
2020/01/31 06:42:03.7	91.190	-0.390	1.090	1.030
2020/01/31 06:42:03.8	91.180	-0.430	1.130	1.110
2020/01/31 06:42:03.9	91.170	-0.460	1.160	1.190
2020/01/31 06:42:04.0	91.160	-0.490	1.180	1.270
2020/01/31 06:42:04.1	91.150	-0.520	1.190	1.350
2020/01/31 06:42:04.2	91.140	-0.540	1.190	1.420
2020/01/31 06:42:04.3	91.130	-0.560	1.180	1.490
2020/01/31 06:42:04.4	91.110	-0.580	1.170	1.560
2020/01/31 06:42:04.5	91.100	-0.600	1.140	1.620
2020/01/31 06:42:04.6	91.090	-0.610	1.110	1.680
2020/01/31 06:42:04.7	91.080	-0.620	1.070	1.740
2020/01/31 06:42:04.8	91.060	-0.620	1.020	1.790
2020/01/31 06:42:04.9	91.050	-0.620	0.960	1.840
2020/01/31 06:42:05.0	91.040	-0.610	0.890	1.890
2020/01/31 06:42:05.1	91.030	-0.610	0.820	1.930
2020/01/31 06:42:05.2	91.020	-0.590	0.740	1.970
2020/01/31 06:42:05.3	91.010	-0.580	0.650	2.010
2020/01/31 06:42:05.4	91.000	-0.560	0.550	2.040
2020/01/31 06:42:05.5	91.000	-0.530	0.450	2.070
2020/01/31 06:42:05.6	90.990	-0.500	0.350	2.090
2020/01/31 06:42:05.7	90.990	-0.470	0.230	2.110
2020/01/31 06:42:05.8	90.980	-0.440	0.120	2.130
2020/01/31 06:42:05.9	90.980	-0.400	-0.000	2.140
2020/01/31 06:42:06.0	90.980	-0.360	-0.120	2.160
2020/01/31 06:42:06.1	90.980	-0.310	-0.250	2.160
2020/01/31 06:42:06.2	90.990	-0.270	-0.380	2.170
2020/01/31 06:42:06.3	90.990	-0.220	-0.500	2.170
2020/01/31 06:42:06.4	90.990	-0.170	-0.630	2.180
2020/01/31 06:42:06.5	91.000	-0.120	-0.760	2.170
2020/01/31 06:42:06.6	91.000	-0.060	-0.880	2.170
2020/01/31 06:42:06.7	91.000	-0.010	-1.000	2.170
2020/01/31 06:42:06.8	91.010	0.050	-1.120	2.160
2020/01/31 06:42:06.9	91.010	0.100	-1.230	2.150
2020/01/31 06:42:07.0	91.020	0.160	-1.340	2.140
2020/01/31 06:42:07.1	91.020	0.210	-1.440	2.120
2020/01/31 06:42:07.2	91.030	0.270	-1.540	2.110
2020/01/31 06:42:07.3	91.030	0.320	-1.620	2.090
2020/01/31 06:42:07.4	91.040	0.370	-1.700	2.070
2020/01/31 06:42:07.5	91.040	0.420	-1.770	2.050
2020/01/31 06:42:07.6	91.040	0.470	-1.830	2.030
2020/01/31 06:42:07.7	91.050	0.520	-1.880	2.000
2020/01/31 06:42:07.8	91.050	0.560	-1.910	1.970
2020/01/31 06:42:07.9	91.060	0.600	-1.940	1.940
2020/01/31 06:42:08.0	91.060	0.630	-1.950	1.910
2020/01/31 06:42:08.1	91.060	0.660	-1.950	1.870
2020/01/31 06:42:08.2	91.070	0.690	-1.930	1.840
2020/01/31 06:42:08.3	91.070	0.710	-1.900	1.800
2020/01/31 06:42:08.4	91.080	0.730	-1.860	1.760
2020/01/31 06:42:08.5	91.080	0.750	-1.810	1.710
2020/01/31 06:42:08.6	91.090	0.760	-1.740	1.670
2020/01/31 06:42:08.7	91.100	0.760	-1.660	1.620
2020/01/31 06:42:08.8	91.110	0.760	-1.580	1.570
2020/01/31 06:42:08.9	91.120	0.760	-1.480	1.520
2020/01/31 06:42:09.0	91.130	0.750	-1.370	1.470
2020/01/31 06:42:09.1	91.140	0.730	-1.250	1.420
2020/01/31 06:42:09.2	91.140	0.710	-1.120	1.360
2020/01/31 06:42:09.3	91.160	0.690	-0.980	1.310
2020/01/31 06:42:09.4	91.170	0.670	-0.840	1.250
2020/01/31 06:42:09.5	91.180	0.640	-0.700	1.200
2020/01/31 06:42:09.6	91.190	0.600	-0.550	1.140
2020/01/31 06:42:09.7	91.200	0.560	-0.400	1.080
2020/01/31 06:42:09.8	91.210	0.520	-0.250	1.030
2020/01/31 06:42:09.9	91.220	0.480	-0.100	0.970
2020/01/31 06:42:10.0	91.230	0.430	0.050	0.920
2020/01/31 06:42:10.1	91.230	0.380	0.200	0.860
2020/01/31 06:42:10.2	91.240	0.330	0.350	0.810
2020/01/31 06:42:10.3	91.240	0.280	0.490	0.760
2020/01/31 06:42:10.4	91.240	0.230	0.630	0.720
2020/01/31 06:42:10.5	91.240	0.170	0.760	0.670
2020/01/31 06:42:10.6	91.230	0.120	0.880	0.630
2020/01/31 06:42:10.7	91.230	0.060	0.990	0.590
2020/01/31 06:42:10.8	91.220	0.010	1.100	0.560
2020/01/31 06:42:10.9	91.200	-0.050	1.190	0.530
2020/01/31 06:42:11.0	91.190	-0.100	1.270	0.500
2020/01/31 06:42:11.1	91.170	-0.150	1.350	0.470
2020/01/31 06:42:11.2	91.160	-0.200	1.410	0.440
2020/01/31 06:42:11.3	91.140	-0.250	1.460	0.420
2020/01/31 06:42:11.4	91.120	-0.290	1.490	0.390
2020/01/31 06:42:11.5	91.090	-0.330	1.520	0.370
2020/01/31 06:42:11.6	91.070	-0.370	1.530	0.350
2020/01/31 06:42:11.7	91.050	-0.410	1.530	0.330
2020/01/31 06:42:11.8	91.020	-0.440	1.520	0.310
2020/01/31 06:42:11.9	91.000	-0.470	1.500	0.290
2020/01/31 06:42:12.0	90.980	-0.490	1.460	0.270
2020/01/31 06:42:12.1	90.950	-0.510	1.410	0.250
2020/01/31 06:42:12.2	90.940	-0.520	1.350	0.220
2020/01/31 06:42:12.3	90.930	-0.530	1.280	0.200
2020/01/31 06:42:12.4	90.910	-0.540	1.200	0.170
2020/01/31 06:42:12.5	90.890	-0.540	1.110	0.140
2020/01/31 06:42:12.6	90.880	-0.540	1.010	0.100
2020/01/31 06:42:12.7	90.870	-0.530	0.900	0.070
2020/01/31 06:42:12.8	90.860	-0.520	0.790	0.030
2020/01/31 06:42:12.9	90.850	-0.500	0.670	-0.010
2020/01/31 06:42:13.0	90.850	-0.480	0.540	-0.050
2020/01/31 06:42:13.1	90.850	-0.460	0.410	-0.100
2020/01/31 06:42:13.2	90.850	-0.430	0.270	-0.140
2020/01/31 06:42:13.3	90.850	-0.410	0.140	-0.190
2020/01/31 06:42:13.4	90.860	-0.380	0.000	-0.230
2020/01/31 06:42:13.5	90.870	-0.340	-0.130	-0.280
2020/01/31 06:42:13.6	90.880	-0.310	-0.270	-0.320
2020/01/31 06:42:13.7	90.890	-0.280	-0.400	-0.370
2020/01/31 06:42:13.8	90.900	-0.240	-0.530	-0.410
2020/01/31 06:42:13.9	90.910	-0.200	-0.650	-0.450
2020/01/31 06:42:14.0	90.930	-0.170	-0.760	-0.480
2020/01/31 06:42:14.1	90.940	-0.140	-0.870	-0.510
2020/01/31 06:42:14.2	90.950	-0.100	-0.970	-0.540
2020/01/31 06:42:14.3	90.960	-0.070	-1.060	-0.560
2020/01/31 06:42:14.4	90.970	-0.040	-1.140	-0.580
2020/01/31 06:42:14.5	90.980	-0.020	-1.210	-0.600
2020/01/31 06:42:14.6	90.980	0.010	-1.270	-0.610
2020/01/31 06:42:14.7	90.990	0.030	-1.310	-0.620
2020/01/31 06:42:14.8	91.000	0.050	-1.340	-0.620
2020/01/31 06:42:14.9	91.000	0.060	-1.360	-0.630
2020/01/31 06:42:15.0	91.000	0.070	-1.370	-0.620
2020/01/31 06:42:15.1	91.010	0.080	-1.360	-0.610
2020/01/31 06:42:15.2	91.000	0.080	-1.340	-0.590
2020/01/31 06:42:15.3	91.000	0.080	-1.310	-0.580
2020/01/31 06:42:15.4	91.000	0.070	-1.270	-0.560
2020/01/31 06:42:15.5	91.000	0.060	-1.220	-0.530
2020/01/31 06:42:15.6	90.990	0.050	-1.160	-0.510
2020/01/31 06:42:15.7	90.990	0.040	-1.090	-0.470
2020/01/31 06:42:15.8	90.990	0.020	-1.010	-0.440
2020/01/31 06:42:15.9	90.980	0.000	-0.930	-0.400
2020/01/31 06:42:16.0	90.980	-0.020	-0.840	-0.360
2020/01/31 06:42:16.1	90.970	-0.040	-0.750	-0.310
2020/01/31 06:42:16.2	90.970	-0.060	-0.640	-0.270
2020/01/31 06:42:16.3	90.960	-0.090	-0.540	-0.220
2020/01/31 06:42:16.4	90.950	-0.110	-0.440	-0.160
2020/01/31 06:42:16.5	90.950	-0.130	-0.340	-0.110
2020/01/31 06:42:16.6	90.940	-0.160	-0.250	-0.050
2020/01/31 06:42:16.7	90.940	-0.180	-0.150	0.000
2020/01/31 06:42:16.8	90.930	-0.200	-0.060	0.060
2020/01/31 06:42:16.9	90.930	-0.220	0.030	0.120
2020/01/31 06:42:17.0	90.930	-0.240	0.110	0.180
2020/01/31 06:42:17.1	90.920	-0.250	0.190	0.240
2020/01/31 06:42:17.2	90.940	-0.270	0.260	0.300
2020/01/31 06:42:17.3	90.940	-0.280	0.320	0.360
2020/01/31 06:42:17.4	90.940	-0.280	0.370	0.410
2020/01/31 06:42:17.5	90.940	-0.280	0.410	0.470
2020/01/31 06:42:17.6	90.950	-0.280	0.450	0.520
2020/01/31 06:42:17.7	90.960	-0.280	0.470	0.580
2020/01/31 06:42:17.8	90.960	-0.270	0.490	0.630
2020/01/31 06:42:17.9	90.980	-0.260	0.500	0.670
2020/01/31 06:42:18.0	90.990	-0.240	0.500	0.720
2020/01/31 06:42:18.1	91.000	-0.230	0.490	0.770
2020/01/31 06:42:18.2	91.010	-0.200	0.470	0.810
2020/01/31 06:42:18.3	91.030	-0.180	0.440	0.860
2020/01/31 06:42:18.4	91.040	-0.150	0.410	0.900
2020/01/31 06:42:18.5	91.060	-0.120	0.370	0.940
2020/01/31 06:42:18.6	91.070	-0.090	0.320	0.990
2020/01/31 06:42:18.7	91.090	-0.060	0.270	1.030
2020/01/31 06:42:18.8	91.100	-0.020	0.210	1.070
2020/01/31 06:42:18.9	91.120	0.010	0.160	1.120
2020/01/31 06:42:19.0	91.130	0.050	0.090	1.160
2020/01/31 06:42:19.1	91.140	0.080	0.030	1.210
2020/01/31 06:42:19.2	91.150	0.120	-0.040	1.260
2020/01/31 06:42:19.3	91.150	0.160	-0.100	1.310
2020/01/31 06:42:19.4	91.160	0.190	-0.170	1.360
2020/01/31 06:42:19.5	91.170	0.230	-0.230	1.410
2020/01/31 06:42:19.6	91.170	0.260	-0.290	1.460
2020/01/31 06:42:19.7	91.170	0.290	-0.350	1.510
2020/01/31 06:42:19.8	91.170	0.320	-0.410	1.560
2020/01/31 06:42:19.9	91.160	0.340	-0.460	1.610
2020/01/31 06:42:20.0	91.160	0.370	-0.510	1.660
2020/01/31 06:42:20.1	91.150	0.390	-0.550	1.710
2020/01/31 06:42:20.2	91.140	0.400	-0.580	1.770
2020/01/31 06:42:20.3	91.130	0.420	-0.610	1.810
2020/01/31 06:42:20.4	91.120	0.430	-0.640	1.860
2020/01/31 06:42:20.5	91.100	0.440	-0.660	1.910
2020/01/31 06:42:20.6	91.080	0.440	-0.670	1.950
2020/01/31 06:42:20.7	91.060	0.440	-0.680	1.990
2020/01/31 06:42:20.8	91.040	0.440	-0.680	2.020
2020/01/31 06:42:20.9	91.020	0.430	-0.670	2.050
2020/01/31 06:42:21.0	91.000	0.420	-0.660	2.080
2020/01/31 06:42:21.1	90.980	0.410	-0.640	2.110
2020/01/31 06:42:21.2	90.960	0.390	-0.610	2.130
2020/01/31 06:42:21.3	90.940	0.370	-0.580	2.140
2020/01/31 06:42:21.4	90.910	0.350	-0.550	2.150
2020/01/31 06:42:21.5	90.890	0.330	-0.510	2.160
2020/01/31 06:42:21.6	90.870	0.300	-0.460	2.170
2020/01/31 06:42:21.7	90.850	0.270	-0.420	2.170
2020/01/31 06:42:21.8	90.830	0.240	-0.370	2.160
2020/01/31 06:42:21.9	90.820	0.210	-0.310	2.150
2020/01/31 06:42:22.0	90.800	0.180	-0.260	2.140
2020/01/31 06:42:22.1	90.780	0.150	-0.200	2.130
2020/01/31 06:42:22.2	90.760	0.120	-0.140	2.110
2020/01/31 06:42:22.3	90.750	0.080	-0.090	2.090
2020/01/31 06:42:22.4	90.730	0.050	-0.030	2.060
2020/01/31 06:42:22.5	90.710	0.020	0.020	2.030
2020/01/31 06:42:22.6	90.700	-0.010	0.070	2.000
2020/01/31 06:42:22.7	90.680	-0.030	0.120	1.970
2020/01/31 06:42:22.8	90.670	-0.060	0.160	1.940
2020/01/31 06:42:22.9	90.650	-0.080	0.200	1.900
2020/01/31 06:42:23.0	90.640	-0.100	0.230	1.860
2020/01/31 06:42:23.1	90.620	-0.120	0.260	1.820
2020/01/31 06:42:23.2	90.600	-0.130	0.280	1.770
2020/01/31 06:42:23.3	90.590	-0.140	0.300	1.720
2020/01/31 06:42:23.4	90.580	-0.150	0.310	1.680
2020/01/31 06:42:23.5	90.560	-0.150	0.320	1.620
2020/01/31 06:42:23.6	90.550	-0.150	0.320	1.570
2020/01/31 06:42:23.7	90.540	-0.150	0.310	1.520
2020/01/31 06:42:23.8	90.530	-0.150	0.300	1.460
2020/01/31 06:42:23.9	90.520	-0.140	0.280	1.400
2020/01/31 06:42:24.0	90.510	-0.130	0.260	1.340
2020/01/31 06:42:24.1	90.500	-0.110	0.230	1.270
2020/01/31 06:42:24.2	90.500	-0.090	0.190	1.210
2020/01/31 06:42:24.3	90.490	-0.070	0.160	1.140
2020/01/31 06:42:24.4	90.490	-0.050	0.110	1.070
2020/01/31 06:42:24.5	90.490	-0.030	0.070	1.000
2020/01/31 06:42:24.6	90.490	-0.000	0.020	0.930
2020/01/31 06:42:24.7	90.490	0.020	-0.030	0.860
2020/01/31 06:42:24.8	90.500	0.050	-0.080	0.780
2020/01/31 06:42:24.9	90.500	0.070	-0.130	0.700
2020/01/31 06:42:25.0	90.510	0.100	-0.180	0.630
2020/01/31 06:42:25.1	90.520	0.130	-0.230	0.550
2020/01/31 06:42:25.2	90.540	0.150	-0.290	0.470
2020/01/31 06:42:25.3	90.560	0.180	-0.330	0.390
2020/01/31 06:42:25.4	90.570	0.200	-0.380	0.310
2020/01/31 06:42:25.5	90.590	0.220	-0.420	0.230
2020/01/31 06:42:25.6	90.610	0.240	-0.460	0.160
2020/01/31 06:42:25.7	90.630	0.250	-0.490	0.080
2020/01/31 06:42:25.8	90.650	0.270	-0.520	0.010
2020/01/31 06:42:25.9	90.680	0.280	-0.540	-0.070
2020/01/31 06:42:26.0	90.700	0.280	-0.550	-0.140
2020/01/31 06:42:26.1	90.720	0.280	-0.570	-0.210
2020/01/31 06:42:26.2	90.740	0.280	-0.570	-0.270
2020/01/31 06:42:26.3	90.760	0.280	-0.570	-0.330
2020/01/31 06:42:26.4	90.780	0.270	-0.560	-0.390
2020/01/31 06:42:26.5	90.790	0.260	-0.540	-0.450
2020/01/31 06:42:26.6	90.810	0.240	-0.520	-0.500
2020/01/31 06:42:26.7	90.820	0.220	-0.500	-0.540
2020/01/31 06:42:26.8	90.830	0.200	-0.470	-0.590
2020/01/31 06:42:26.9	90.840	0.170	-0.430	-0.620
2020/01/31 06:42:27.0	90.840	0.140	-0.390	-0.660
2020/01/31 06:42:27.1	90.840	0.110	-0.350	-0.680
2020/01/31 06:42:27.2	90.850	0.070	-0.300	-0.700
2020/01/31 06:42:27.3	90.850	0.040	-0.250	-0.720
2020/01/31 06:42:27.4	90.840	-0.000	-0.200	-0.730
2020/01/31 06:42:27.5	90.840	-0.040	-0.150	-0.740
2020/01/31 06:42:27.6	90.830	-0.080	-0.090	-0.740
2020/01/31 06:42:27.7	90.820	-0.130	-0.040	-0.730
2020/01/31 06:42:27.8	90.810	-0.170	0.010	-0.730
2020/01/31 06:42:27.9	90.800	-0.210	0.060	-0.710
2020/01/31 06:42:28.0	90.790	-0.250	0.110	-0.700
2020/01/31 06:42:28.1	90.770	-0.290	0.150	-0.670
2020/01/31 06:42:28.2	90.760	-0.330	0.190	-0.640
2020/01/31 06:42:28.3	90.750	-0.370	0.230	-0.610
2020/01/31 06:42:28.4	90.730	-0.410	0.260	-0.580
2020/01/31 06:42:28.5	90.720	-0.440	0.290	-0.540
2020/01/31 06:42:28.6	90.710	-0.470	0.310	-0.500
2020/01/31 06:42:28.7	90.700	-0.490	0.330	-0.450
2020/01/31 06:42:28.8	90.690	-0.520	0.340	-0.410
2020/01/31 06:42:28.9	90.680	-0.540	0.340	-0.360
2020/01/31 06:42:29.0	90.670	-0.550	0.350	-0.310
2020/01/31 06:42:29.1	90.670	-0.560	0.340	-0.250
2020/01/31 06:42:29.2	90.660	-0.570	0.340	-0.190
2020/01/31 06:42:29.3	90.660	-0.570	0.320	-0.140
2020/01/31 06:42:29.4	90.660	-0.570	0.300	-0.090
2020/01/31 06:42:29.5	90.660	-0.570	0.280	-0.030
2020/01/31 06:42:29.6	90.670	-0.560	0.250	0.020
2020/01/31 06:42:29.7	90.670	-0.550	0.220	0.080
2020/01/31 06:42:29.8	90.680	-0.530	0.180	0.130
2020/01/31 06:42:29.9	90.690	-0.520	0.140	0.180
2020/01/31 06:42:30.0	90.700	-0.490	0.100	0.230
2020/01/31 06:42:30.1	90.720	-0.470	0.050	0.280
2020/01/31 06:42:30.2	90.740	-0.440	0.010	0.340
2020/01/31 06:42:30.3	90.760	-0.410	-0.040	0.380
2020/01/31 06:42:30.4	90.770	-0.380	-0.090	0.430
2020/01/31 06:42:30.5	90.790	-0.350	-0.140	0.480
2020/01/31 06:42:30.6	90.810	-0.320	-0.190	0.530
2020/01/31 06:42:30.7	90.830	-0.280	-0.240	0.580
2020/01/31 06:42:30.8	90.840	-0.250	-0.290	0.620
2020/01/31 06:42:30.9	90.860	-0.210	-0.330	0.670
2020/01/31 06:42:31.0	90.870	-0.180	-0.370	0.720
2020/01/31 06:42:31.1	90.890	-0.140	-0.410	0.770
2020/01/31 06:42:31.2	90.900	-0.110	-0.450	0.820
2020/01/31 06:42:31.3	90.910	-0.070	-0.490	0.870
2020/01/31 06:42:31.4	90.920	-0.040	-0.520	0.910
2020/01/31 06:42:31.5	90.930	-0.010	-0.540	0.960
2020/01/31 06:42:31.6	90.940	0.020	-0.570	1.010
2020/01/31 06:42:31.7	90.940	0.050	-0.580	1.060
2020/01/31 06:42:31.8	90.950	0.080	-0.600	1.100
2020/01/31 06:42:31.9	90.950	0.100	-0.610	1.150
2020/01/31 06:42:32.0	90.950	0.120	-0.610	1.200
2020/01/31 06:42:32.1	90.950	0.140	-0.610	1.250
2020/01/31 06:42:32.2	90.950	0.160	-0.610	1.300
2020/01/31 06:42:32.3	90.950	0.170	-0.600	1.340
2020/01/31 06:42:32.4	90.950	0.190	-0.580	1.390
2020/01/31 06:42:32.5	90.940	0.200	-0.570	1.440
2020/01/31 06:42:32.6	90.940	0.200	-0.550	1.480
2020/01/31 06:42:32.7	90.930	0.210	-0.520	1.530
2020/01/31 06:42:32.8	90.920	0.210	-0.500	1.570
2020/01/31 06:42:32.9	90.920	0.210	-0.470	1.620
2020/01/31 06:42:33.0	90.910	0.210	-0.440	1.660
2020/01/31 06:42:33.1	90.900	0.210	-0.410	1.700
2020/01/31 06:42:33.2	90.890	0.210	-0.380	1.740
2020/01/31 06:42:33.3	90.880	0.200	-0.350	1.780
2020/01/31 06:42:33.4	90.870	0.200	-0.320	1.810
2020/01/31 06:42:33.5	90.860	0.190	-0.290	1.840
2020/01/31 06:42:33.6	90.850	0.180	-0.260	1.870
2020/01/31 06:42:33.7	90.840	0.180	-0.230	1.900
2020/01/31 06:42:33.8	90.830	0.170	-0.210	1.920
2020/01/31 06:42:33.9	90.830	0.160	-0.190	1.940
2020/01/31 06:42:34.0	90.820	0.160	-0.160	1.960
2020/01/31 06:42:34.1	90.810	0.150	-0.150	1.970
2020/01/31 06:42:34.2	90.790	0.150	-0.130	1.980
2020/01/31 06:42:34.3	90.790	0.140	-0.120	1.980
2020/01/31 06:42:34.4	90.780	0.140	-0.110	1.980
2020/01/31 06:42:34.5	90.770	0.140	-0.110	1.980
2020/01/31 06:42:34.6	90.770	0.140	-0.100	1.970
2020/01/31 06:42:34.7	90.760	0.140	-0.100	1.960
2020/01/31 06:42:34.8	90.760	0.140	-0.100	1.950
2020/01/31 06:42:34.9	90.750	0.150	-0.110	1.930
2020/01/31 06:42:35.0	90.750	0.150	-0.110	1.910
2020/01/31 06:42:35.1	90.750	0.160	-0.120	1.880
2020/01/31 06:42:35.2	90.740	0.160	-0.120	1.850
2020/01/31 06:42:35.3	90.740	0.170	-0.130	1.820
2020/01/31 06:42:35.4	90.740	0.180	-0.140	1.790
2020/01/31 06:42:35.5	90.730	0.190	-0.150	1.750
2020/01/31 06:42:35.6	90.730	0.190	-0.150	1.710
2020/01/31 06:42:35.7	90.730	0.200	-0.160	1.670
2020/01/31 06:42:35.8	90.730	0.210	-0.160	1.630
2020/01/31 06:42:35.9	90.720	0.220	-0.170	1.580
2020/01/31 06:42:36.0	90.720	0.220	-0.170	1.540
2020/01/31 06:42:36.1	90.720	0.230	-0.170	1.490
2020/01/31 06:42:36.2	90.730	0.230	-0.170	1.440
2020/01/31 06:42:36.3	90.730	0.230	-0.160	1.380
2020/01/31 06:42:36.4	90.730	0.230	-0.150	1.330
2020/01/31 06:42:36.5	90.720	0.230	-0.140	1.270
2020/01/31 06:42:36.6	90.720	0.230	-0.130	1.210
2020/01/31 06:42:36.7	90.720	0.230	-0.120	1.150
2020/01/31 06:42:36.8	90.720	0.220	-0.100	1.090
2020/01/31 06:42:36.9	90.720	0.220	-0.080	1.030
2020/01/31 06:42:37.0	90.720	0.210	-0.060	0.960
2020/01/31 06:42:37.1	90.720	0.200	-0.040	0.900
2020/01/31 06:42:37.2	90.730	0.180	-0.020	0.830
2020/01/31 06:42:37.3	90.730	0.170	0.010	0.770
2020/01/31 06:42:37.4	90.730	0.150	0.030	0.700
2020/01/31 06:42:37.5	90.730	0.140	0.060	0.640
2020/01/31 06:42:37.6	90.730	0.120	0.080	0.570
2020/01/31 06:42:37.7	90.730	0.100	0.100	0.500
2020/01/31 06:42:37.8	90.740	0.080	0.130	0.440
2020/01/31 06:42:37.9	90.740	0.060	0.150	0.370
2020/01/31 06:42:38.0	90.740	0.030	0.170	0.310
2020/01/31 06:42:38.1	90.740	0.010	0.180	0.250
2020/01/31 06:42:38.2	90.750	-0.010	0.200	0.180
2020/01/31 06:42:38.3	90.750	-0.030	0.210	0.130
2020/01/31 06:42:38.4	90.750	-0.050	0.220	0.070
2020/01/31 06:42:38.5	90.760	-0.070	0.230	0.020
2020/01/31 06:42:38.6	90.760	-0.090	0.230	-0.030
2020/01/31 06:42:38.7	90.760	-0.110	0.230	-0.080
2020/01/31 06:42:38.8	90.770	-0.130	0.230	-0.130
2020/01/31 06:42:38.9	90.770	-0.150	0.220	-0.170
2020/01/31 06:42:39.0	90.770	-0.160	0.210	-0.210
2020/01/31 06:42:39.1	90.780	-0.170	0.200	-0.250
2020/01/31 06:42:39.2	90.780	-0.180	0.180	-0.280
2020/01/31 06:42:39.3	90.790	-0.190	0.160	-0.310
2020/01/31 06:42:39.4	90.790	-0.200	0.130	-0.340
2020/01/31 06:42:39.5	90.800	-0.200	0.100	-0.370
2020/01/31 06:42:39.6	90.800	-0.200	0.070	-0.390
2020/01/31 06:42:39.7	90.810	-0.200	0.030	-0.410
2020/01/31 06:42:39.8	90.810	-0.200	-0.010	-0.430
2020/01/31 06:42:39.9	90.820	-0.190	-0.050	-0.450
2020/01/31 06:42:40.0	90.830	-0.180	-0.090	-0.460
2020/01/31 06:42:40.1	90.830	-0.170	-0.140	-0.470
2020/01/31 06:42:40.2	90.830	-0.150	-0.190	-0.480
2020/01/31 06:42:40.3	90.840	-0.140	-0.240	-0.480
2020/01/31 06:42:40.4	90.840	-0.120	-0.290	-0.480
2020/01/31 06:42:40.5	90.850	-0.100	-0.350	-0.480
2020/01/31 06:42:40.6	90.850	-0.080	-0.400	-0.470
2020/01/31 06:42:40.7	90.860	-0.050	-0.450	-0.460
2020/01/31 06:42:40.8	90.860	-0.030	-0.500	-0.450
2020/01/31 06:42:40.9	90.870	-0.010	-0.550	-0.440
2020/01/31 06:42:41.0	90.870	0.020	-0.590	-0.420
2020/01/31 06:42:41.1	90.880	0.050	-0.640	-0.410
2020/01/31 06:42:41.2	90.880	0.070	-0.680	-0.380
2020/01/31 06:42:41.3	90.880	0.100	-0.710	-0.360
2020/01/31 06:42:41.4	90.890	0.120	-0.750	-0.340
2020/01/31 06:42:41.5	90.890	0.140	-0.770	-0.310
2020/01/31 06:42:41.6	90.900	0.170	-0.800	-0.280
2020/01/31 06:42:41.7	90.910	0.190	-0.820	-0.250
2020/01/31 06:42:41.8	90.910	0.200	-0.830	-0.220
2020/01/31 06:42:41.9	90.920	0.220	-0.840	-0.180
2020/01/31 06:42:42.0	90.930	0.230	-0.840	-0.150
2020/01/31 06:42:42.1	90.940	0.250	-0.830	-0.110
2020/01/31 06:42:42.2	90.950	0.260	-0.820	-0.060
2020/01/31 06:42:42.3	90.960	0.260	-0.800	-0.020
2020/01/31 06:42:42.4	90.960	0.260	-0.780	0.030
2020/01/31 06:42:42.5	90.970	0.260	-0.750	0.070
2020/01/31 06:42:42.6	90.970	0.260	-0.720	0.120
2020/01/31 06:42:42.7	90.980	0.250	-0.680	0.170
2020/01/31 06:42:42.8	90.980	0.240	-0.630	0.230
2020/01/31 06:42:42.9	90.990	0.230	-0.580	0.280
2020/01/31 06:42:43.0	90.990	0.220	-0.530	0.340
2020/01/31 06:42:43.1	91.000	0.200	-0.470	0.390
2020/01/31 06:42:43.2	90.990	0.180	-0.410	0.450
2020/01/31 06:42:43.3	91.000	0.150	-0.350	0.510
2020/01/31 06:42:43.4	91.000	0.130	-0.280	0.570
2020/01/31 06:42:43.5	91.000	0.100	-0.220	0.630
2020/01/31 06:42:43.6	91.000	0.070	-0.150	0.690
2020/01/31 06:42:43.7	91.000	0.040	-0.080	0.750
2020/01/31 06:42:43.8	91.000	0.000	-0.010	0.820
2020/01/31 06:42:43.9	91.000	-0.030	0.060	0.880
2020/01/31 06:42:44.0	90.990	-0.070	0.120	0.940
2020/01/31 06:42:44.1	90.990	-0.100	0.190	1.000
2020/01/31 06:42:44.2	90.990	-0.140	0.260	1.050
2020/01/31 06:42:44.3	90.990	-0.170	0.320	1.110
2020/01/31 06:42:44.4	90.990	-0.210	0.370	1.160
2020/01/31 06:42:44.5	91.000	-0.240	0.420	1.220
2020/01/31 06:42:44.6	91.000	-0.270	0.470	1.270
2020/01/31 06:42:44.7	91.000	-0.310	0.510	1.320
2020/01/31 06:42:44.8	91.010	-0.330	0.550	1.360
2020/01/31 06:42:44.9	91.020	-0.360	0.580	1.400
2020/01/31 06:42:45.0	91.030	-0.390	0.600	1.450
2020/01/31 06:42:45.1	91.040	-0.410	0.620	1.480
2020/01/31 06:42:45.2	91.050	-0.430	0.620	1.520
2020/01/31 06:42:45.3	91.060	-0.440	0.630	1.560
2020/01/31 06:42:45.4	91.070	-0.450	0.620	1.590
2020/01/31 06:42:45.5	91.090	-0.460	0.610	1.610
2020/01/31 06:42:45.6	91.100	-0.470	0.590	1.640
2020/01/31 06:42:45.7	91.120	-0.470	0.560	1.660
2020/01/31 06:42:45.8	91.140	-0.460	0.520	1.670
2020/01/31 06:42:45.9	91.150	-0.460	0.480	1.690
2020/01/31 06:42:46.0	91.170	-0.450	0.430	1.700
2020/01/31 06:42:46.1	91.190	-0.430	0.380	1.710
2020/01/31 06:42:46.2	91.200	-0.420	0.320	1.720
2020/01/31 06:42:46.3	91.210	-0.400	0.260	1.730
2020/01/31 06:42:46.4	91.230	-0.370	0.190	1.730
2020/01/31 06:42:46.5	91.250	-0.350	0.120	1.730
2020/01/31 06:42:46.6	91.260	-0.320	0.050	1.730
2020/01/31 06:42:46.7	91.270	-0.290	-0.020	1.730
2020/01/31 06:42:46.8	91.280	-0.260	-0.100	1.720
2020/01/31 06:42:46.9	91.290	-0.230	-0.170	1.720
2020/01/31 06:42:47.0	91.290	-0.190	-0.250	1.710
2020/01/31 06:42:47.1	91.290	-0.160	-0.320	1.700
2020/01/31 06:42:47.2	91.290	-0.120	-0.390	1.690
2020/01/31 06:42:47.3	91.290	-0.080	-0.460	1.690
2020/01/31 06:42:47.4	91.290	-0.050	-0.520	1.680
2020/01/31 06:42:47.5	91.280	-0.010	-0.580	1.670
2020/01/31 06:42:47.6	91.270	0.030	-0.640	1.660
2020/01/31 06:42:47.7	91.260	0.060	-0.690	1.650
2020/01/31 06:42:47.8	91.240	0.090	-0.730	1.640
2020/01/31 06:42:47.9	91.230	0.120	-0.770	1.630
2020/01/31 06:42:48.0	91.210	0.150	-0.800	1.610
2020/01/31 06:42:48.1	91.200	0.180	-0.820	1.600
2020/01/31 06:42:48.2	91.190	0.210	-0.840	1.590
2020/01/31 06:42:48.3	91.170	0.230	-0.850	1.570
2020/01/31 06:42:48.4	91.150	0.250	-0.850	1.560
2020/01/31 06:42:48.5	91.140	0.270	-0.840	1.540
2020/01/31 06:42:48.6	91.120	0.290	-0.830	1.530
2020/01/31 06:42:48.7	91.100	0.300	-0.800	1.510
2020/01/31 06:42:48.8	91.080	0.310	-0.780	1.490
2020/01/31 06:42:48.9	91.070	0.320	-0.740	1.470
2020/01/31 06:42:49.0	91.050	0.320	-0.700	1.450
2020/01/31 06:42:49.1	91.040	0.320	-0.650	1.430
2020/01/31 06:42:49.2	91.030	0.320	-0.600	1.400
2020/01/31 06:42:49.3	91.020	0.320	-0.540	1.380
2020/01/31 06:42:49.4	91.010	0.310	-0.480	1.350
2020/01/31 06:42:49.5	91.000	0.300	-0.420	1.320
2020/01/31 06:42:49.6	90.990	0.290	-0.360	1.290
2020/01/31 06:42:49.7	90.980	0.280	-0.290	1.260
2020/01/31 06:42:49.8	90.980	0.260	-0.230	1.230
2020/01/31 06:42:49.9	90.970	0.240	-0.160	1.190
2020/01/31 06:42:50.0	90.970	0.220	-0.100	1.150
2020/01/31 06:42:50.1	90.970	0.200	-0.030	1.110
2020/01/31 06:42:50.2	90.970	0.180	0.030	1.070
2020/01/31 06:42:50.3	90.980	0.160	0.090	1.020
2020/01/31 06:42:50.4	90.980	0.130	0.150	0.980
2020/01/31 06:42:50.5	90.990	0.110	0.200	0.930
2020/01/31 06:42:50.6	91.000	0.090	0.250	0.870
2020/01/31 06:42:50.7	91.010	0.060	0.290	0.820
2020/01/31 06:42:50.8	91.020	0.040	0.330	0.760
2020/01/31 06:42:50.9	91.030	0.020	0.370	0.700
2020/01/31 06:42:51.0	91.050	-0.010	0.390	0.640
2020/01/31 06:42:51.1	91.060	-0.030	0.420	0.580
2020/01/31 06:42:51.2	91.070	-0.050	0.430	0.510
2020/01/31 06:42:51.3	91.090	-0.060	0.440	0.440
2020/01/31 06:42:51.4	91.110	-0.080	0.450	0.380
2020/01/31 06:42:51.5	91.130	-0.090	0.450	0.310
2020/01/31 06:42:51.6	91.150	-0.100	0.440	0.240
2020/01/31 06:42:51.7	91.170	-0.110	0.430	0.170
2020/01/31 06:42:51.8	91.190	-0.120	0.410	0.100
2020/01/31 06:42:51.9	91.210	-0.130	0.380	0.040
2020/01/31 06:42:52.0	91.230	-0.130	0.350	-0.030
2020/01/31 06:42:52.1	91.250	-0.130	0.320	-0.090
2020/01/31 06:42:52.2	91.270	-0.130	0.290	-0.150
2020/01/31 06:42:52.3	91.280	-0.120	0.250	-0.210
2020/01/31 06:42:52.4	91.300	-0.110	0.200	-0.260
2020/01/31 06:42:52.5	91.320	-0.100	0.160	-0.310
2020/01/31 06:42:52.6	91.330	-0.090	0.110	-0.360
2020/01/31 06:42:52.7	91.340	-0.080	0.060	-0.410
2020/01/31 06:42:52.8	91.350	-0.060	0.010	-0.450
2020/01/31 06:42:52.9	91.360	-0.040	-0.040	-0.490
2020/01/31 06:42:53.0	91.370	-0.020	-0.090	-0.530
2020/01/31 06:42:53.1	91.380	-0.000	-0.150	-0.560
2020/01/31 06:42:53.2	91.390	0.020	-0.200	-0.590
2020/01/31 06:42:53.3	91.400	0.040	-0.250	-0.620
2020/01/31 06:42:53.4	91.400	0.060	-0.300	-0.650
2020/01/31 06:42:53.5	91.410	0.090	-0.350	-0.670
2020/01/31 06:42:53.6	91.410	0.110	-0.400	-0.680
2020/01/31 06:42:53.7	91.410	0.130	-0.450	-0.700
2020/01/31 06:42:53.8	91.410	0.160	-0.490	-0.710
2020/01/31 06:42:53.9	91.410	0.180	-0.530	-0.720
2020/01/31 06:42:54.0	91.410	0.200	-0.580	-0.720
2020/01/31 06:42:54.1	91.410	0.220	-0.610	-0.720
2020/01/31 06:42:54.2	91.410	0.240	-0.650	-0.720
2020/01/31 06:42:54.3	91.410	0.260	-0.680	-0.710
2020/01/31 06:42:54.4	91.400	0.280	-0.710	-0.700
2020/01/31 06:42:54.5	91.400	0.290	-0.740	-0.690
2020/01/31 06:42:54.6	91.400	0.310	-0.760	-0.670
2020/01/31 06:42:54.7	91.390	0.320	-0.780	-0.650
2020/01/31 06:42:54.8	91.390	0.330	-0.800	-0.620
2020/01/31 06:42:54.9	91.380	0.340	-0.810	-0.600
2020/01/31 06:42:55.0	91.380	0.350	-0.820	-0.560
2020/01/31 06:42:55.1	91.370	0.350	-0.830	-0.530
2020/01/31 06:42:55.2	91.370	0.350	-0.820	-0.490
2020/01/31 06:42:55.3	91.370	0.350	-0.820	-0.450
2020/01/31 06:42:55.4	91.360	0.350	-0.820	-0.400
2020/01/31 06:42:55.5	91.360	0.350	-0.810	-0.350
2020/01/31 06:42:55.6	91.350	0.340	-0.790	-0.300
2020/01/31 06:42:55.7	91.350	0.340	-0.770	-0.250
2020/01/31 06:42:55.8	91.350	0.330	-0.750	-0.190
2020/01/31 06:42:55.9	91.340	0.320	-0.730	-0.130
2020/01/31 06:42:56.0	91.340	0.310	-0.700	-0.070
2020/01/31 06:42:56.1	91.340	0.290	-0.670	-0.000
2020/01/31 06:42:56.2	91.340	0.280	-0.640	0.060
2020/01/31 06:42:56.3	91.340	0.260	-0.610	0.130
2020/01/31 06:42:56.4	91.350	0.240	-0.570	0.200
2020/01/31 06:42:56.5	91.350	0.220	-0.530	0.280
2020/01/31 06:42:56.6	91.360	0.200	-0.490	0.350
2020/01/31 06:42:56.7	91.360	0.180	-0.440	0.430
2020/01/31 06:42:56.8	91.370	0.160	-0.400	0.500
2020/01/31 06:42:56.9	91.380	0.140	-0.350	0.580
2020/01/31 06:42:57.0	91.380	0.120	-0.300	0.660
2020/01/31 06:42:57.1	91.390	0.090	-0.250	0.740
2020/01/31 06:42:57.2	91.400	0.070	-0.200	0.820
2020/01/31 06:42:57.3	91.410	0.040	-0.150	0.900
2020/01/31 06:42:57.4	91.420	0.010	-0.100	0.980
2020/01/31 06:42:57.5	91.430	-0.010	-0.050	1.060
2020/01/31 06:42:57.6	91.440	-0.040	0.000	1.130
2020/01/31 06:42:57.7	91.440	-0.070	0.060	1.210
2020/01/31 06:42:57.8	91.450	-0.100	0.110	1.280
2020/01/31 06:42:57.9	91.460	-0.130	0.160	1.350
2020/01/31 06:42:58.0	91.470	-0.150	0.210	1.420
2020/01/31 06:42:58.1	91.480	-0.180	0.250	1.480
2020/01/31 06:42:58.2	91.480	-0.210	0.300	1.550
2020/01/31 06:42:58.3	91.490	-0.240	0.350	1.600
2020/01/31 06:42:58.4	91.500	-0.270	0.390	1.660
2020/01/31 06:42:58.5	91.500	-0.300	0.430	1.710
2020/01/31 06:42:58.6	91.510	-0.330	0.470	1.760
2020/01/31 06:42:58.7	91.520	-0.360	0.510	1.810
2020/01/31 06:42:58.8	91.530	-0.390	0.550	1.850
2020/01/31 06:42:58.9	91.530	-0.420	0.580	1.890
2020/01/31 06:42:59.0	91.540	-0.450	0.610	1.930
2020/01/31 06:42:59.1	91.540	-0.480	0.640	1.960
2020/01/31 06:42:59.2	91.540	-0.500	0.660	1.990
2020/01/31 06:42:59.3	91.540	-0.530	0.680	2.020
2020/01/31 06:42:59.4	91.550	-0.550	0.690	2.050
2020/01/31 06:42:59.5	91.550	-0.570	0.700	2.070
2020/01/31 06:42:59.6	91.550	-0.590	0.710	2.090
2020/01/31 06:42:59.7	91.550	-0.610	0.710	2.110
2020/01/31 06:42:59.8	91.550	-0.630	0.710	2.120
2020/01/31 06:42:59.9	91.540	-0.640	0.700	2.130
2020/01/31 06:43:00.0	91.540	-0.650	0.690	2.140
2020/01/31 06:43:00.1	91.540	-0.660	0.670	2.140
2020/01/31 06:43:00.2	91.530	-0.670	0.650	2.140
2020/01/31 06:43:00.3	91.530	-0.670	0.620	2.140
2020/01/31 06:43:00.4	91.520	-0.670	0.580	2.140
2020/01/31 06:43:00.5	91.520	-0.670	0.540	2.130
2020/01/31 06:43:00.6	91.510	-0.660	0.500	2.120
2020/01/31 06:43:00.7	91.510	-0.650	0.450	2.100
2020/01/31 06:43:00.8	91.500	-0.630	0.390	2.080
2020/01/31 06:43:00.9	91.500	-0.620	0.340	2.060
2020/01/31 06:43:01.0	91.490	-0.600	0.270	2.030
2020/01/31 06:43:01.1	91.490	-0.570	0.210	2.000
2020/01/31 06:43:01.2	91.480	-0.540	0.140	1.970
2020/01/31 06:43:01.3	91.480	-0.510	0.060	1.930
2020/01/31 06:43:01.4	91.480	-0.480	-0.010	1.890
2020/01/31 06:43:01.5	91.480	-0.440	-0.080	1.850
2020/01/31 06:43:01.6	91.480	-0.410	-0.160	1.800
2020/01/31 06:43:01.7	91.480	-0.370	-0.240	1.750
2020/01/31 06:43:01.8	91.480	-0.320	-0.310	1.690
2020/01/31 06:43:01.9	91.480	-0.280	-0.390	1.630
2020/01/31 06:43:02.0	91.490	-0.240	-0.460	1.570
2020/01/31 06:43:02.1	91.500	-0.190	-0.530	1.500
2020/01/31 06:43:02.2	91.500	-0.150	-0.600	1.440
2020/01/31 06:43:02.3	91.510	-0.100	-0.670	1.360
2020/01/31 06:43:02.4	91.520	-0.050	-0.730	1.290
2020/01/31 06:43:02.5	91.540	-0.010	-0.790	1.220
2020/01/31 06:43:02.6	91.550	0.040	-0.840	1.140
2020/01/31 06:43:02.7	91.570	0.080	-0.890	1.060
2020/01/31 06:43:02.8	91.580	0.120	-0.930	0.980
2020/01/31 06:43:02.9	91.600	0.160	-0.970	0.900
2020/01/31 06:43:03.0	91.610	0.200	-1.000	0.820
2020/01/31 06:43:03.1	91.630	0.240	-1.030	0.740
2020/01/31 06:43:03.2	91.650	0.270	-1.050	0.650
2020/01/31 06:43:03.3	91.660	0.300	-1.060	0.580
2020/01/31 06:43:03.4	91.680	0.330	-1.070	0.500
2020/01/31 06:43:03.5	91.690	0.360	-1.070	0.420
2020/01/31 06:43:03.6	91.710	0.380	-1.060	0.350
2020/01/31 06:43:03.7	91.720	0.400	-1.050	0.270
2020/01/31 06:43:03.8	91.730	0.420	-1.040	0.200
2020/01/31 06:43:03.9	91.740	0.430	-1.020	0.130
2020/01/31 06:43:04.0	91.750	0.440	-0.990	0.070
2020/01/31 06:43:04.1	91.760	0.450	-0.960	0.000
2020/01/31 06:43:04.2	91.780	0.460	-0.920	-0.060
2020/01/31 06:43:04.3	91.780	0.460	-0.880	-0.110
2020/01/31 06:43:04.4	91.780	0.460	-0.830	-0.170
2020/01/31 06:43:04.5	91.790	0.460	-0.780	-0.220
2020/01/31 06:43:04.6	91.790	0.450	-0.730	-0.270
2020/01/31 06:43:04.7	91.780	0.450	-0.670	-0.310
2020/01/31 06:43:04.8	91.780	0.440	-0.610	-0.350
2020/01/31 06:43:04.9	91.770	0.430	-0.550	-0.390
2020/01/31 06:43:05.0	91.770	0.410	-0.490	-0.430
2020/01/31 06:43:05.1	91.760	0.400	-0.430	-0.460
2020/01/31 06:43:05.2	91.760	0.390	-0.370	-0.480
2020/01/31 06:43:05.3	91.740	0.370	-0.300	-0.500
2020/01/31 06:43:05.4	91.730	0.350	-0.240	-0.520
2020/01/31 06:43:05.5	91.710	0.330	-0.180	-0.540
2020/01/31 06:43:05.6	91.700	0.320	-0.110	-0.550
2020/01/31 06:43:05.7	91.680	0.300	-0.050	-0.560
2020/01/31 06:43:05.8	91.660	0.280	0.000	-0.570
2020/01/31 06:43:05.9	91.640	0.260	0.060	-0.570
2020/01/31 06:43:06.0	91.620	0.240	0.110	-0.570
2020/01/31 06:43:06.1	91.600	0.220	0.160	-0.570
2020/01/31 06:43:06.2	91.580	0.200	0.200	-0.570
2020/01/31 06:43:06.3	91.560	0.180	0.240	-0.570
2020/01/31 06:43:06.4	91.540	0.160	0.280	-0.560
2020/01/31 06:43:06.5	91.520	0.140	0.310	-0.550
2020/01/31 06:43:06.6	91.490	0.130	0.340	-0.540
2020/01/31 06:43:06.7	91.480	0.110	0.360	-0.520
2020/01/31 06:43:06.8	91.460	0.090	0.380	-0.510
2020/01/31 06:43:06.9	91.440	0.080	0.400	-0.490
2020/01/31 06:43:07.0	91.420	0.060	0.410	-0.470
2020/01/31 06:43:07.1	91.410	0.050	0.410	-0.450
2020/01/31 06:43:07.2	91.400	0.030	0.420	-0.420
2020/01/31 06:43:07.3	91.390	0.020	0.410	-0.400
2020/01/31 06:43:07.4	91.380	0.010	0.410	-0.380
2020/01/31 06:43:07.5	91.370	-0.000	0.400	-0.350
2020/01/31 06:43:07.6	91.360	-0.010	0.380	-0.330
2020/01/31 06:43:07.7	91.360	-0.020	0.370	-0.300
2020/01/31 06:43:07.8	91.350	-0.030	0.350	-0.280
2020/01/31 06:43:07.9	91.350	-0.040	0.320	-0.250
2020/01/31 06:43:08.0	91.360	-0.050	0.300	-0.230
2020/01/31 06:43:08.1	91.360	-0.060	0.270	-0.200
2020/01/31 06:43:08.2	91.360	-0.070	0.240	-0.180
2020/01/31 06:43:08.3	91.370	-0.070	0.210	-0.160
2020/01/31 06:43:08.4	91.380	-0.080	0.180	-0.130
2020/01/31 06:43:08.5	91.390	-0.080	0.140	-0.110
2020/01/31 06:43:08.6	91.400	-0.080	0.110	-0.090
2020/01/31 06:43:08.7	91.420	-0.090	0.080	-0.070
2020/01/31 06:43:08.8	91.430	-0.090	0.040	-0.050
2020/01/31 06:43:08.9	91.450	-0.090	0.010	-0.020
2020/01/31 06:43:09.0	91.470	-0.090	-0.030	-0.000
2020/01/31 06:43:09.1	91.490	-0.090	-0.060	0.020
2020/01/31 06:43:09.2	91.500	-0.080	-0.090	0.050
2020/01/31 06:43:09.3	91.520	-0.080	-0.120	0.070
2020/01/31 06:43:09.4	91.540	-0.070	-0.150	0.100
2020/01/31 06:43:09.5	91.560	-0.070	-0.180	0.120
2020/01/31 06:43:09.6	91.570	-0.060	-0.200	0.150
2020/01/31 06:43:09.7	91.590	-0.050	-0.230	0.180
2020/01/31 06:43:09.8	91.610	-0.040	-0.250	0.210
2020/01/31 06:43:09.9	91.620	-0.030	-0.270	0.250
2020/01/31 06:43:10.0	91.630	-0.020	-0.290	0.280
2020/01/31 06:43:10.1	91.650	-0.010	-0.310	0.320
2020/01/31 06:43:10.2	91.650	0.010	-0.320	0.360
2020/01/31 06:43:10.3	91.660	0.020	-0.330	0.400
2020/01/31 06:43:10.4	91.670	0.040	-0.340	0.450
2020/01/31 06:43:10.5	91.680	0.050	-0.350	0.490
2020/01/31 06:43:10.6	91.680	0.070	-0.350	0.530
2020/01/31 06:43:10.7	91.680	0.080	-0.350	0.580
2020/01/31 06:43:10.8	91.680	0.100	-0.350	0.630
2020/01/31 06:43:10.9	91.680	0.110	-0.350	0.670
2020/01/31 06:43:11.0	91.680	0.120	-0.350	0.720
2020/01/31 06:43:11.1	91.680	0.140	-0.340	0.770
2020/01/31 06:43:11.2	91.680	0.150	-0.330	0.820
2020/01/31 06:43:11.3	91.680	0.160	-0.320	0.870
2020/01/31 06:43:11.4	91.670	0.170	-0.310	0.920
2020/01/31 06:43:11.5	91.660	0.180	-0.300	0.970
2020/01/31 06:43:11.6	91.660	0.190	-0.290	1.010
2020/01/31 06:43:11.7	91.650	0.190	-0.270	1.060
2020/01/31 06:43:11.8	91.640	0.200	-0.260	1.110
2020/01/31 06:43:11.9	91.630	0.200	-0.250	1.160
2020/01/31 06:43:12.0	91.630	0.200	-0.230	1.210
2020/01/31 06:43:12.1	91.620	0.190	-0.220	1.260
2020/01/31 06:43:12.2	91.600	0.190	-0.210	1.300
2020/01/31 06:43:12.3	91.600	0.180	-0.200	1.350
2020/01/31 06:43:12.4	91.590	0.180	-0.190	1.390
2020/01/31 06:43:12.5	91.590	0.170	-0.180	1.440
2020/01/31 06:43:12.6	91.580	0.150	-0.180	1.480
2020/01/31 06:43:12.7	91.580	0.140	-0.180	1.520
2020/01/31 06:43:12.8	91.580	0.130	-0.180	1.560
2020/01/31 06:43:12.9	91.580	0.110	-0.180	1.600
2020/01/31 06:43:13.0	91.580	0.100	-0.190	1.640
2020/01/31 06:43:13.1	91.580	0.080	-0.200	1.680
2020/01/31 06:43:13.2	91.580	0.070	-0.210	1.710
2020/01/31 06:43:13.3	91.590	0.050	-0.220	1.740
2020/01/31 06:43:13.4	91.590	0.030	-0.240	1.770
2020/01/31 06:43:13.5	91.600	0.020	-0.250	1.800
2020/01/31 06:43:13.6	91.600	0.000	-0.270	1.830
2020/01/31 06:43:13.7	91.610	-0.020	-0.300	1.850
2020/01/31 06:43:13.8	91.610	-0.030	-0.320	1.880
2020/01/31 06:43:13.9	91.620	-0.040	-0.340	1.900
2020/01/31 06:43:14.0	91.620	-0.060	-0.370	1.920
2020/01/31 06:43:14.1	91.630	-0.070	-0.390	1.930
2020/01/31 06:43:14.2	91.630	-0.080	-0.420	1.950
2020/01/31 06:43:14.3	91.640	-0.090	-0.440	1.960
2020/01/31 06:43:14.4	91.640	-0.100	-0.470	1.970
2020/01/31 06:43:14.5	91.640	-0.100	-0.490	1.980
2020/01/31 06:43:14.6	91.640	-0.110	-0.510	1.980
2020/01/31 06:43:14.7	91.640	-0.120	-0.520	1.990
2020/01/31 06:43:14.8	91.640	-0.120	-0.540	1.990
2020/01/31 06:43:14.9	91.640	-0.120	-0.550	1.990
2020/01/31 06:43:15.0	91.630	-0.130	-0.550	1.980
2020/01/31 06:43:15.1	91.620	-0.130	-0.560	1.970
2020/01/31 06:43:15.2	91.620	-0.130	-0.560	1.970
2020/01/31 06:43:15.3	91.610	-0.130	-0.550	1.950
2020/01/31 06:43:15.4	91.600	-0.130	-0.540	1.940
2020/01/31 06:43:15.5	91.590	-0.130	-0.520	1.920
2020/01/31 06:43:15.6	91.570	-0.130	-0.500	1.900
2020/01/31 06:43:15.7	91.560	-0.140	-0.470	1.880
2020/01/31 06:43:15.8	91.540	-0.140	-0.430	1.850
2020/01/31 06:43:15.9	91.530	-0.140	-0.390	1.820
2020/01/31 06:43:16.0	91.510	-0.150	-0.350	1.790
2020/01/31 06:43:16.1	91.490	-0.150	-0.300	1.750
2020/01/31 06:43:16.2	91.470	-0.160	-0.250	1.720
2020/01/31 06:43:16.3	91.450	-0.170	-0.190	1.680
2020/01/31 06:43:16.4	91.430	-0.180	-0.130	1.640
2020/01/31 06:43:16.5	91.410	-0.190	-0.070	1.600
2020/01/31 06:43:16.6	91.390	-0.200	-0.000	1.550
2020/01/31 06:43:16.7	91.360	-0.210	0.060	1.510
2020/01/31 06:43:16.8	91.340	-0.230	0.130	1.460
2020/01/31 06:43:16.9	91.310	-0.240	0.200	1.420
2020/01/31 06:43:17.0	91.290	-0.260	0.270	1.370
2020/01/31 06:43:17.1	91.260	-0.270	0.330	1.320
2020/01/31 06:43:17.2	91.230	-0.290	0.390	1.270
2020/01/31 06:43:17.3	91.210	-0.300	0.450	1.220
2020/01/31 06:43:17.4	91.180	-0.320	0.510	1.170
2020/01/31 06:43:17.5	91.160	-0.330	0.560	1.120
2020/01/31 06:43:17.6	91.130	-0.350	0.610	1.070
2020/01/31 06:43:17.7	91.110	-0.360	0.640	1.010
2020/01/31 06:43:17.8	91.090	-0.380	0.680	0.960
2020/01/31 06:43:17.9	91.060	-0.390	0.700	0.910
2020/01/31 06:43:18.0	91.040	-0.400	0.720	0.850
2020/01/31 06:43:18.1	91.020	-0.400	0.730	0.800
2020/01/31 06:43:18.2	91.010	-0.410	0.730	0.740
2020/01/31 06:43:18.3	90.990	-0.410	0.720	0.690
2020/01/31 06:43:18.4	90.980	-0.410	0.710	0.630
2020/01/31 06:43:18.5	90.970	-0.400	0.680	0.570
2020/01/31 06:43:18.6	90.960	-0.400	0.650	0.510
2020/01/31 06:43:18.7	90.950	-0.390	0.610	0.450
2020/01/31 06:43:18.8	90.950	-0.370	0.560	0.380
2020/01/31 06:43:18.9	90.950	-0.360	0.500	0.310
2020/01/31 06:43:19.0	90.950	-0.340	0.440	0.240
2020/01/31 06:43:19.1	90.960	-0.320	0.370	0.170
2020/01/31 06:43:19.2	90.970	-0.290	0.290	0.100
2020/01/31 06:43:19.3	90.980	-0.270	0.210	0.030
2020/01/31 06:43:19.4	90.990	-0.240	0.130	-0.050
2020/01/31 06:43:19.5	91.010	-0.210	0.040	-0.130
2020/01/31 06:43:19.6	91.030	-0.170	-0.050	-0.210
2020/01/31 06:43:19.7	91.050	-0.140	-0.140	-0.290
2020/01/31 06:43:19.8	91.080	-0.100	-0.220	-0.370
2020/01/31 06:43:19.9	91.100	-0.060	-0.310	-0.450
2020/01/31 06:43:20.0	91.130	-0.030	-0.400	-0.530
2020/01/31 06:43:20.1	91.150	0.010	-0.480	-0.610
2020/01/31 06:43:20.2	91.190	0.050	-0.570	-0.680
2020/01/31 06:43:20.3	91.210	0.090	-0.640	-0.760
2020/01/31 06:43:20.4	91.240	0.120	-0.710	-0.830
2020/01/31 06:43:20.5	91.270	0.160	-0.780	-0.900
2020/01/31 06:43:20.6	91.300	0.190	-0.840	-0.970
2020/01/31 06:43:20.7	91.330	0.220	-0.890	-1.030
2020/01/31 06:43:20.8	91.360	0.250	-0.930	-1.090
2020/01/31 06:43:20.9	91.390	0.270	-0.970	-1.150
2020/01/31 06:43:21.0	91.410	0.300	-1.000	-1.200
2020/01/31 06:43:21.1	91.440	0.320	-1.020	-1.240
2020/01/31 06:43:21.2	91.450	0.330	-1.030	-1.280
2020/01/31 06:43:21.3	91.480	0.340	-1.040	-1.310
2020/01/31 06:43:21.4	91.490	0.350	-1.030	-1.340
2020/01/31 06:43:21.5	91.510	0.360	-1.020	-1.360
2020/01/31 06:43:21.6	91.520	0.360	-1.000	-1.370
2020/01/31 06:43:21.7	91.530	0.360	-0.980	-1.370
2020/01/31 06:43:21.8	91.540	0.360	-0.940	-1.370
2020/01/31 06:43:21.9	91.550	0.350	-0.900	-1.350
2020/01/31 06:43:22.0	91.550	0.340	-0.860	-1.330
2020/01/31 06:43:22.1	91.550	0.320	-0.810	-1.300
2020/01/31 06:43:22.2	91.540	0.310	-0.750	-1.260
2020/01/31 06:43:22.3	91.530	0.290	-0.690	-1.210
2020/01/31 06:43:22.4	91.520	0.270	-0.630	-1.160
2020/01/31 06:43:22.5	91.500	0.250	-0.570	-1.100
2020/01/31 06:43:22.6	91.490	0.220	-0.500	-1.030
2020/01/31 06:43:22.7	91.470	0.200	-0.430	-0.950
2020/01/31 06:43:22.8	91.450	0.170	-0.360	-0.860
2020/01/31 06:43:22.9	91.420	0.140	-0.300	-0.770
2020/01/31 06:43:23.0	91.400	0.120	-0.230	-0.680
2020/01/31 06:43:23.1	91.370	0.090	-0.160	-0.580
2020/01/31 06:43:23.2	91.350	0.060	-0.100	-0.470
2020/01/31 06:43:23.3	91.320	0.040	-0.030	-0.360
2020/01/31 06:43:23.4	91.290	0.010	0.030	-0.240
2020/01/31 06:43:23.5	91.250	-0.010	0.080	-0.130
2020/01/31 06:43:23.6	91.220	-0.030	0.130	-0.010
2020/01/31 06:43:23.7	91.190	-0.050	0.180	0.110
2020/01/31 06:43:23.8	91.160	-0.070	0.220	0.230
2020/01/31 06:43:23.9	91.130	-0.090	0.260	0.350
2020/01/31 06:43:24.0	91.100	-0.110	0.300	0.470
2020/01/31 06:43:24.1	91.060	-0.120	0.330	0.600
2020/01/31 06:43:24.2	91.030	-0.130	0.350	0.720
2020/01/31 06:43:24.3	91.000	-0.140	0.370	0.830
2020/01/31 06:43:24.4	90.970	-0.150	0.390	0.950
2020/01/31 06:43:24.5	90.940	-0.150	0.400	1.060
2020/01/31 06:43:24.6	90.910	-0.150	0.400	1.170
2020/01/31 06:43:24.7	90.890	-0.160	0.400	1.280
2020/01/31 06:43:24.8	90.860	-0.150	0.400	1.380
2020/01/31 06:43:24.9	90.840	-0.150	0.390	1.480
2020/01/31 06:43:25.0	90.820	-0.140	0.370	1.570
2020/01/31 06:43:25.1	90.800	-0.140	0.360	1.660
2020/01/31 06:43:25.2	90.780	-0.130	0.330	1.750
2020/01/31 06:43:25.3	90.770	-0.120	0.310	1.820
2020/01/31 06:43:25.4	90.750	-0.100	0.280	1.890
2020/01/31 06:43:25.5	90.740	-0.090	0.250	1.960
2020/01/31 06:43:25.6	90.730	-0.070	0.210	2.020
2020/01/31 06:43:25.7	90.720	-0.060	0.170	2.080
2020/01/31 06:43:25.8	90.710	-0.040	0.130	2.130
2020/01/31 06:43:25.9	90.710	-0.020	0.090	2.170
2020/01/31 06:43:26.0	90.700	0.000	0.050	2.210
2020/01/31 06:43:26.1	90.700	0.020	0.000	2.250
2020/01/31 06:43:26.2	90.690	0.050	-0.050	2.280
2020/01/31 06:43:26.3	90.690	0.070	-0.090	2.310
2020/01/31 06:43:26.4	90.690	0.090	-0.140	2.340
2020/01/31 06:43:26.5	90.690	0.110	-0.190	2.360
2020/01/31 06:43:26.6	90.690	0.140	-0.240	2.380
2020/01/31 06:43:26.7	90.690	0.160	-0.290	2.400
2020/01/31 06:43:26.8	90.690	0.180	-0.340	2.410
2020/01/31 06:43:26.9	90.700	0.210	-0.390	2.430
2020/01/31 06:43:27.0	90.700	0.230	-0.440	2.440
2020/01/31 06:43:27.1	90.700	0.250	-0.480	2.440
2020/01/31 06:43:27.2	90.710	0.270	-0.530	2.450
2020/01/31 06:43:27.3	90.710	0.290	-0.570	2.450
2020/01/31 06:43:27.4	90.710	0.310	-0.600	2.450
2020/01/31 06:43:27.5	90.710	0.330	-0.630	2.450
2020/01/31 06:43:27.6	90.710	0.340	-0.660	2.440
2020/01/31 06:43:27.7	90.710	0.360	-0.690	2.440
2020/01/31 06:43:27.8	90.710	0.370	-0.710	2.430
2020/01/31 06:43:27.9	90.710	0.380	-0.720	2.410
2020/01/31 06:43:28.0	90.710	0.390	-0.730	2.400
2020/01/31 06:43:28.1	90.710	0.400	-0.740	2.380
2020/01/31 06:43:28.2	90.700	0.400	-0.740	2.350
2020/01/31 06:43:28.3	90.700	0.410	-0.740	2.330
2020/01/31 06:43:28.4	90.700	0.410	-0.730	2.300
2020/01/31 06:43:28.5	90.700	0.410	-0.710	2.270
2020/01/31 06:43:28.6	90.700	0.400	-0.690	2.230
2020/01/31 06:43:28.7	90.700	0.400	-0.670	2.200
2020/01/31 06:43:28.8	90.700	0.390	-0.640	2.160
2020/01/31 06:43:28.9	90.700	0.380	-0.610	2.110
2020/01/31 06:43:29.0	90.700	0.370	-0.570	2.070
2020/01/31 06:43:29.1	90.700	0.360	-0.530	2.020
2020/01/31 06:43:29.2	90.700	0.340	-0.490	1.960
2020/01/31 06:43:29.3	90.700	0.330	-0.440	1.910
2020/01/31 06:43:29.4	90.700	0.310	-0.390	1.850
2020/01/31 06:43:29.5	90.700	0.290	-0.340	1.790
2020/01/31 06:43:29.6	90.710	0.270	-0.290	1.730
2020/01/31 06:43:29.7	90.710	0.250	-0.240	1.670
2020/01/31 06:43:29.8	90.720	0.230	-0.180	1.600
2020/01/31 06:43:29.9	90.720	0.210	-0.130	1.530
2020/01/31 06:43:30.0	90.730	0.190	-0.070	1.460
2020/01/31 06:43:30.1	90.730	0.160	-0.020	1.390
2020/01/31 06:43:30.2	90.740	0.140	0.040	1.320
2020/01/31 06:43:30.3	90.740	0.120	0.090	1.250
2020/01/31 06:43:30.4	90.750	0.090	0.140	1.170
2020/01/31 06:43:30.5	90.760	0.070	0.180	1.100
2020/01/31 06:43:30.6	90.770	0.050	0.230	1.020
2020/01/31 06:43:30.7	90.780	0.020	0.260	0.950
2020/01/31 06:43:30.8	90.790	0.000	0.300	0.870
2020/01/31 06:43:30.9	90.810	-0.020	0.330	0.800
2020/01/31 06:43:31.0	90.820	-0.040	0.350	0.720
2020/01/31 06:43:31.1	90.840	-0.060	0.370	0.640
2020/01/31 06:43:31.2	90.850	-0.080	0.380	0.570
2020/01/31 06:43:31.3	90.860	-0.100	0.390	0.500
2020/01/31 06:43:31.4	90.880	-0.110	0.390	0.420
2020/01/31 06:43:31.5	90.890	-0.120	0.380	0.350
2020/01/31 06:43:31.6	90.910	-0.140	0.370	0.280
2020/01/31 06:43:31.7	90.920	-0.150	0.360	0.210
2020/01/31 06:43:31.8	90.940	-0.160	0.340	0.140
2020/01/31 06:43:31.9	90.950	-0.170	0.310	0.070
2020/01/31 06:43:32.0	90.960	-0.170	0.280	0.010
2020/01/31 06:43:32.1	90.980	-0.180	0.250	-0.050
2020/01/31 06:43:32.2	91.000	-0.190	0.220	-0.100
2020/01/31 06:43:32.3	91.000	-0.190	0.180	-0.160
2020/01/31 06:43:32.4	91.010	-0.190	0.140	-0.200
2020/01/31 06:43:32.5	91.010	-0.190	0.090	-0.250
2020/01/31 06:43:32.6	91.010	-0.190	0.050	-0.290
2020/01/31 06:43:32.7	91.010	-0.200	0.010	-0.330
2020/01/31 06:43:32.8	91.000	-0.200	-0.040	-0.360
2020/01/31 06:43:32.9	90.990	-0.200	-0.080	-0.390
2020/01/31 06:43:33.0	90.980	-0.200	-0.120	-0.410
2020/01/31 06:43:33.1	90.970	-0.200	-0.160	-0.430
2020/01/31 06:43:33.2	90.960	-0.200	-0.190	-0.450
2020/01/31 06:43:33.3	90.940	-0.200	-0.220	-0.460
2020/01/31 06:43:33.4	90.920	-0.210	-0.250	-0.470
2020/01/31 06:43:33.5	90.900	-0.210	-0.270	-0.480
2020/01/31 06:43:33.6	90.880	-0.220	-0.290	-0.480
2020/01/31 06:43:33.7	90.860	-0.220	-0.300	-0.480
2020/01/31 06:43:33.8	90.840	-0.230	-0.310	-0.470
2020/01/31 06:43:33.9	90.820	-0.240	-0.320	-0.470
2020/01/31 06:43:34.0	90.800	-0.250	-0.320	-0.460
2020/01/31 06:43:34.1	90.780	-0.270	-0.310	-0.450
2020/01/31 06:43:34.2	90.750	-0.280	-0.300	-0.430
2020/01/31 06:43:34.3	90.730	-0.300	-0.290	-0.420
2020/01/31 06:43:34.4	90.720	-0.320	-0.270	-0.400
2020/01/31 06:43:34.5	90.700	-0.340	-0.250	-0.380
2020/01/31 06:43:34.6	90.680	-0.360	-0.230	-0.350
2020/01/31 06:43:34.7	90.670	-0.380	-0.200	-0.330
2020/01/31 06:43:34.8	90.650	-0.410	-0.170	-0.300
2020/01/31 06:43:34.9	90.640	-0.430	-0.140	-0.280
2020/01/31 06:43:35.0	90.630	-0.450	-0.110	-0.250
2020/01/31 06:43:35.1	90.620	-0.480	-0.080	-0.210
2020/01/31 06:43:35.2	90.600	-0.500	-0.050	-0.180
2020/01/31 06:43:35.3	90.590	-0.530	-0.020	-0.140
2020/01/31 06:43:35.4	90.590	-0.550	0.010	-0.110
2020/01/31 06:43:35.5	90.580	-0.570	0.030	-0.070
2020/01/31 06:43:35.6	90.570	-0.590	0.060	-0.030
2020/01/31 06:43:35.7	90.570	-0.610	0.080	0.010
2020/01/31 06:43:35.8	90.570	-0.630	0.100	0.050
2020/01/31 06:43:35.9	90.560	-0.650	0.110	0.100
2020/01/31 06:43:36.0	90.560	-0.660	0.120	0.140
2020/01/31 06:43:36.1	90.560	-0.670	0.120	0.180
2020/01/31 06:43:36.2	90.570	-0.680	0.120	0.230
2020/01/31 06:43:36.3	90.570	-0.680	0.120	0.280
2020/01/31 06:43:36.4	90.570	-0.680	0.100	0.320
2020/01/31 06:43:36.5	90.570	-0.680	0.090	0.360
2020/01/31 06:43:36.6	90.580	-0.670	0.070	0.410
2020/01/31 06:43:36.7	90.580	-0.660	0.040	0.450
2020/01/31 06:43:36.8	90.580	-0.640	0.010	0.490
2020/01/31 06:43:36.9	90.590	-0.620	-0.030	0.530
2020/01/31 06:43:37.0	90.600	-0.600	-0.070	0.570
2020/01/31 06:43:37.1	90.600	-0.570	-0.110	0.610
2020/01/31 06:43:37.2	90.610	-0.540	-0.160	0.640
2020/01/31 06:43:37.3	90.610	-0.500	-0.200	0.680
2020/01/31 06:43:37.4	90.620	-0.460	-0.260	0.710
2020/01/31 06:43:37.5	90.630	-0.420	-0.310	0.740
2020/01/31 06:43:37.6	90.640	-0.370	-0.360	0.770
2020/01/31 06:43:37.7	90.640	-0.330	-0.420	0.800
2020/01/31 06:43:37.8	90.650	-0.270	-0.470	0.820
2020/01/31 06:43:37.9	90.660	-0.220	-0.520	0.850
2020/01/31 06:43:38.0	90.660	-0.170	-0.570	0.880
2020/01/31 06:43:38.1	90.670	-0.110	-0.620	0.900
2020/01/31 06:43:38.2	90.670	-0.050	-0.670	0.920
2020/01/31 06:43:38.3	90.680	0.010	-0.710	0.950
2020/01/31 06:43:38.4	90.680	0.070	-0.750	0.970
2020/01/31 06:43:38.5	90.680	0.130	-0.790	0.990
2020/01/31 06:43:38.6	90.690	0.190	-0.820	1.010
2020/01/31 06:43:38.7	90.690	0.240	-0.850	1.030
2020/01/31 06:43:38.8	90.690	0.300	-0.870	1.050
2020/01/31 06:43:38.9	90.690	0.350	-0.880	1.070
2020/01/31 06:43:39.0	90.680	0.410	-0.890	1.090
2020/01/31 06:43:39.1	90.680	0.460	-0.900	1.100
2020/01/31 06:43:39.2	90.680	0.500	-0.890	1.120
2020/01/31 06:43:39.3	90.670	0.550	-0.890	1.140
2020/01/31 06:43:39.4	90.670	0.590	-0.870	1.150
2020/01/31 06:43:39.5	90.660	0.620	-0.860	1.160
2020/01/31 06:43:39.6	90.650	0.650	-0.830	1.170
2020/01/31 06:43:39.7	90.640	0.680	-0.800	1.180
2020/01/31 06:43:39.8	90.630	0.710	-0.770	1.180
2020/01/31 06:43:39.9	90.620	0.730	-0.720	1.190
2020/01/31 06:43:40.0	90.610	0.740	-0.680	1.190
2020/01/31 06:43:40.1	90.600	0.750	-0.630	1.180
2020/01/31 06:43:40.2	90.590	0.760	-0.570	1.180
2020/01/31 06:43:40.3	90.570	0.760	-0.520	1.170
2020/01/31 06:43:40.4	90.560	0.760	-0.460	1.170
2020/01/31 06:43:40.5	90.550	0.750	-0.390	1.160
2020/01/31 06:43:40.6	90.530	0.740	-0.330	1.150
2020/01/31 06:43:40.7	90.520	0.730	-0.270	1.140
2020/01/31 06:43:40.8	90.500	0.710	-0.200	1.130
2020/01/31 06:43:40.9	90.490	0.690	-0.130	1.120
2020/01/31 06:43:41.0	90.470	0.670	-0.070	1.100
2020/01/31 06:43:41.1	90.450	0.650	-0.000	1.090
2020/01/31 06:43:41.2	90.440	0.620	0.060	1.080
2020/01/31 06:43:41.3	90.420	0.590	0.120	1.070
2020/01/31 06:43:41.4	90.400	0.550	0.180	1.060
2020/01/31 06:43:41.5	90.380	0.520	0.230	1.060
2020/01/31 06:43:41.6	90.360	0.490	0.280	1.050
2020/01/31 06:43:41.7	90.340	0.450	0.330	1.040
2020/01/31 06:43:41.8	90.320	0.410	0.370	1.040
2020/01/31 06:43:41.9	90.300	0.380	0.410	1.030
2020/01/31 06:43:42.0	90.280	0.340	0.440	1.030
2020/01/31 06:43:42.1	90.260	0.300	0.470	1.020
2020/01/31 06:43:42.2	90.250	0.260	0.500	1.020
2020/01/31 06:43:42.3	90.230	0.230	0.510	1.010
2020/01/31 06:43:42.4	90.210	0.190	0.520	1.010
2020/01/31 06:43:42.5	90.200	0.160	0.530	1.000
2020/01/31 06:43:42.6	90.190	0.130	0.530	0.990
2020/01/31 06:43:42.7	90.180	0.090	0.520	0.980
2020/01/31 06:43:42.8	90.170	0.060	0.510	0.970
2020/01/31 06:43:42.9	90.160	0.030	0.490	0.960
2020/01/31 06:43:43.0	90.160	0.010	0.470	0.940
2020/01/31 06:43:43.1	90.160	-0.020	0.450	0.920
2020/01/31 06:43:43.2	90.160	-0.040	0.410	0.900
2020/01/31 06:43:43.3	90.160	-0.070	0.380	0.880
2020/01/31 06:43:43.4	90.170	-0.090	0.340	0.860
2020/01/31 06:43:43.5	90.170	-0.110	0.300	0.830
2020/01/31 06:43:43.6	90.190	-0.120	0.260	0.800
2020/01/31 06:43:43.7	90.200	-0.140	0.210	0.770
2020/01/31 06:43:43.8	90.210	-0.150	0.160	0.740
2020/01/31 06:43:43.9	90.230	-0.160	0.120	0.700
2020/01/31 06:43:44.0	90.250	-0.170	0.070	0.670
2020/01/31 06:43:44.1	90.270	-0.180	0.020	0.630
2020/01/31 06:43:44.2	90.280	-0.180	-0.020	0.600
2020/01/31 06:43:44.3	90.310	-0.190	-0.060	0.560
2020/01/31 06:43:44.4	90.330	-0.190	-0.110	0.530
2020/01/31 06:43:44.5	90.350	-0.190	-0.150	0.490
2020/01/31 06:43:44.6	90.370	-0.190	-0.190	0.460
2020/01/31 06:43:44.7	90.390	-0.190	-0.220	0.430
2020/01/31 06:43:44.8	90.420	-0.190	-0.250	0.390
2020/01/31 06:43:44.9	90.440	-0.190	-0.280	0.370
2020/01/31 06:43:45.0	90.460	-0.190	-0.310	0.340
2020/01/31 06:43:45.1	90.480	-0.190	-0.330	0.320
2020/01/31 06:43:45.2	90.490	-0.180	-0.350	0.300
2020/01/31 06:43:45.3	90.510	-0.180	-0.370	0.280
2020/01/31 06:43:45.4	90.530	-0.170	-0.380	0.260
2020/01/31 06:43:45.5	90.550	-0.170	-0.390	0.250
2020/01/31 06:43:45.6	90.560	-0.160	-0.400	0.240
2020/01/31 06:43:45.7	90.580	-0.160	-0.410	0.230
2020/01/31 06:43:45.8	90.590	-0.150	-0.410	0.230
2020/01/31 06:43:45.9	90.600	-0.150	-0.410	0.230
2020/01/31 06:43:46.0	90.620	-0.140	-0.410	0.230
2020/01/31 06:43:46.1	90.630	-0.140	-0.410	0.240
2020/01/31 06:43:46.2	90.630	-0.130	-0.410	0.240
2020/01/31 06:43:46.3	90.640	-0.120	-0.410	0.260
2020/01/31 06:43:46.4	90.660	-0.120	-0.410	0.270
2020/01/31 06:43:46.5	90.670	-0.110	-0.400	0.280
2020/01/31 06:43:46.6	90.670	-0.100	-0.400	0.300
2020/01/31 06:43:46.7	90.680	-0.090	-0.400	0.320
2020/01/31 06:43:46.8	90.690	-0.080	-0.400	0.340
2020/01/31 06:43:46.9	90.700	-0.080	-0.400	0.370
2020/01/31 06:43:47.0	90.700	-0.070	-0.400	0.390
2020/01/31 06:43:47.1	90.710	-0.060	-0.400	0.420
2020/01/31 06:43:47.2	90.720	-0.050	-0.410	0.450
2020/01/31 06:43:47.3	90.720	-0.040	-0.410	0.480
2020/01/31 06:43:47.4	90.720	-0.030	-0.410	0.510
2020/01/31 06:43:47.5	90.720	-0.010	-0.420	0.550
2020/01/31 06:43:47.6	90.710	-0.000	-0.420	0.580
2020/01/31 06:43:47.7	90.710	0.010	-0.430	0.620
2020/01/31 06:43:47.8	90.700	0.020	-0.430	0.660
2020/01/31 06:43:47.9	90.690	0.030	-0.430	0.700
2020/01/31 06:43:48.0	90.670	0.040	-0.440	0.740
2020/01/31 06:43:48.1	90.660	0.050	-0.440	0.780
2020/01/31 06:43:48.2	90.630	0.060	-0.440	0.820
2020/01/31 06:43:48.3	90.610	0.070	-0.430	0.860
2020/01/31 06:43:48.4	90.590	0.070	-0.420	0.910
2020/01/31 06:43:48.5	90.570	0.080	-0.410	0.950
2020/01/31 06:43:48.6	90.540	0.080	-0.400	0.990
2020/01/31 06:43:48.7	90.510	0.080	-0.380	1.030
2020/01/31 06:43:48.8	90.480	0.080	-0.360	1.060
2020/01/31 06:43:48.9	90.450	0.080	-0.340	1.100
2020/01/31 06:43:49.0	90.420	0.070	-0.310	1.130
2020/01/31 06:43:49.1	90.390	0.070	-0.270	1.160
2020/01/31 06:43:49.2	90.360	0.060	-0.240	1.200
2020/01/31 06:43:49.3	90.330	0.040	-0.200	1.220
2020/01/31 06:43:49.4	90.300	0.030	-0.150	1.240
2020/01/31 06:43:49.5	90.270	0.010	-0.110	1.270
2020/01/31 06:43:49.6	90.240	-0.010	-0.060	1.280
2020/01/31 06:43:49.7	90.210	-0.030	-0.010	1.300
2020/01/31 06:43:49.8	90.180	-0.050	0.040	1.310
2020/01/31 06:43:49.9	90.150	-0.070	0.090	1.320
2020/01/31 06:43:50.0	90.130	-0.100	0.140	1.320
2020/01/31 06:43:50.1	90.100	-0.120	0.190	1.320
2020/01/31 06:43:50.2	90.080	-0.150	0.240	1.320
2020/01/31 06:43:50.3	90.060	-0.180	0.290	1.310
2020/01/31 06:43:50.4	90.040	-0.200	0.330	1.310
2020/01/31 06:43:50.5	90.030	-0.230	0.370	1.290
2020/01/31 06:43:50.6	90.010	-0.260	0.410	1.280
2020/01/31 06:43:50.7	90.000	-0.280	0.440	1.260
2020/01/31 06:43:50.8	89.990	-0.300	0.460	1.230
2020/01/31 06:43:50.9	89.980	-0.320	0.480	1.210
2020/01/31 06:43:51.0	89.970	-0.340	0.490	1.180
2020/01/31 06:43:51.1	89.960	-0.360	0.490	1.150
2020/01/31 06:43:51.2	89.960	-0.370	0.480	1.110
2020/01/31 06:43:51.3	89.960	-0.380	0.470	1.070
2020/01/31 06:43:51.4	89.960	-0.380	0.450	1.030
2020/01/31 06:43:51.5	89.960	-0.390	0.420	0.990
2020/01/31 06:43:51.6	89.970	-0.380	0.380	0.940
2020/01/31 06:43:51.7	89.970	-0.380	0.340	0.900
2020/01/31 06:43:51.8	89.980	-0.370	0.290	0.850
2020/01/31 06:43:51.9	89.990	-0.350	0.230	0.800
2020/01/31 06:43:52.0	90.010	-0.330	0.170	0.740
2020/01/31 06:43:52.1	90.020	-0.310	0.100	0.690
2020/01/31 06:43:52.2	90.040	-0.280	0.030	0.640
2020/01/31 06:43:52.3	90.050	-0.250	-0.050	0.580
2020/01/31 06:43:52.4	90.070	-0.220	-0.130	0.530
2020/01/31 06:43:52.5	90.090	-0.180	-0.210	0.470
2020/01/31 06:43:52.6	90.110	-0.150	-0.290	0.410
2020/01/31 06:43:52.7	90.140	-0.110	-0.370	0.360
2020/01/31 06:43:52.8	90.160	-0.060	-0.450	0.300
2020/01/31 06:43:52.9	90.180	-0.020	-0.520	0.250
2020/01/31 06:43:53.0	90.210	0.020	-0.600	0.200
2020/01/31 06:43:53.1	90.240	0.070	-0.670	0.150
2020/01/31 06:43:53.2	90.260	0.110	-0.730	0.100
2020/01/31 06:43:53.3	90.290	0.150	-0.790	0.050
2020/01/31 06:43:53.4	90.310	0.190	-0.840	0.000
2020/01/31 06:43:53.5	90.340	0.230	-0.880	-0.040
2020/01/31 06:43:53.6	90.370	0.270	-0.920	-0.080
2020/01/31 06:43:53.7	90.390	0.310	-0.950	-0.120
2020/01/31 06:43:53.8	90.420	0.340	-0.970	-0.160
2020/01/31 06:43:53.9	90.440	0.370	-0.980	-0.190
2020/01/31 06:43:54.0	90.460	0.390	-0.980	-0.220
2020/01/31 06:43:54.1	90.490	0.410	-0.970	-0.240
2020/01/31 06:43:54.2	90.510	0.430	-0.960	-0.260
2020/01/31 06:43:54.3	90.520	0.450	-0.940	-0.280
2020/01/31 06:43:54.4	90.540	0.450	-0.910	-0.290
2020/01/31 06:43:54.5	90.560	0.460	-0.870	-0.300
2020/01/31 06:43:54.6	90.570	0.460	-0.820	-0.310
2020/01/31 06:43:54.7	90.580	0.460	-0.770	-0.310
2020/01/31 06:43:54.8	90.590	0.450	-0.710	-0.310
2020/01/31 06:43:54.9	90.600	0.440	-0.650	-0.300
2020/01/31 06:43:55.0	90.600	0.420	-0.580	-0.290
2020/01/31 06:43:55.1	90.600	0.400	-0.510	-0.270
2020/01/31 06:43:55.2	90.600	0.380	-0.430	-0.250
2020/01/31 06:43:55.3	90.600	0.350	-0.350	-0.230
2020/01/31 06:43:55.4	90.600	0.320	-0.270	-0.200
2020/01/31 06:43:55.5	90.590	0.290	-0.190	-0.170
2020/01/31 06:43:55.6	90.580	0.250	-0.110	-0.140
2020/01/31 06:43:55.7	90.570	0.220	-0.030	-0.110
2020/01/31 06:43:55.8	90.550	0.180	0.040	-0.070
2020/01/31 06:43:55.9	90.540	0.130	0.120	-0.030
2020/01/31 06:43:56.0	90.520	0.090	0.190	0.020
2020/01/31 06:43:56.1	90.500	0.050	0.260	0.060
2020/01/31 06:43:56.2	90.480	0.010	0.330	0.110
2020/01/31 06:43:56.3	90.450	-0.040	0.390	0.160
2020/01/31 06:43:56.4	90.430	-0.080	0.450	0.210
2020/01/31 06:43:56.5	90.400	-0.120	0.500	0.260
2020/01/31 06:43:56.6	90.370	-0.160	0.540	0.310
2020/01/31 06:43:56.7	90.350	-0.200	0.580	0.360
2020/01/31 06:43:56.8	90.320	-0.240	0.610	0.410
2020/01/31 06:43:56.9	90.290	-0.270	0.640	0.460
2020/01/31 06:43:57.0	90.250	-0.300	0.660	0.510
2020/01/31 06:43:57.1	90.220	-0.330	0.670	0.550
2020/01/31 06:43:57.2	90.190	-0.360	0.680	0.600
2020/01/31 06:43:57.3	90.160	-0.380	0.680	0.640
2020/01/31 06:43:57.4	90.120	-0.400	0.670	0.690
2020/01/31 06:43:57.5	90.090	-0.420	0.660	0.730
2020/01/31 06:43:57.6	90.060	-0.430	0.640	0.770
2020/01/31 06:43:57.7	90.020	-0.440	0.610	0.810
2020/01/31 06:43:57.8	89.990	-0.450	0.580	0.840
2020/01/31 06:43:57.9	89.960	-0.450	0.540	0.870
2020/01/31 06:43:58.0	89.930	-0.450	0.500	0.900
2020/01/31 06:43:58.1	89.900	-0.450	0.450	0.930
2020/01/31 06:43:58.2	89.870	-0.440	0.400	0.960
2020/01/31 06:43:58.3	89.840	-0.430	0.340	0.990
2020/01/31 06:43:58.4	89.820	-0.410	0.290	1.010
2020/01/31 06:43:58.5	89.790	-0.390	0.220	1.030
2020/01/31 06:43:58.6	89.770	-0.370	0.160	1.050
2020/01/31 06:43:58.7	89.750	-0.350	0.090	1.060
2020/01/31 06:43:58.8	89.740	-0.320	0.020	1.080
2020/01/31 06:43:58.9	89.720	-0.300	-0.050	1.090
2020/01/31 06:43:59.0	89.710	-0.270	-0.130	1.100
2020/01/31 06:43:59.1	89.700	-0.230	-0.200	1.110
2020/01/31 06:43:59.2	89.700	-0.200	-0.280	1.110
2020/01/31 06:43:59.3	89.690	-0.170	-0.360	1.120
2020/01/31 06:43:59.4	89.700	-0.130	-0.430	1.120
2020/01/31 06:43:59.5	89.700	-0.090	-0.510	1.120
2020/01/31 06:43:59.6	89.700	-0.060	-0.580	1.120
2020/01/31 06:43:59.7	89.710	-0.020	-0.650	1.110
2020/01/31 06:43:59.8	89.730	0.020	-0.720	1.110
2020/01/31 06:43:59.9	89.740	0.060	-0.790	1.100
2020/01/31 06:44:00.0	89.760	0.100	-0.860	1.090
2020/01/31 06:44:00.1	89.770	0.130	-0.920	1.090
2020/01/31 06:44:00.2	89.790	0.170	-0.980	1.080
2020/01/31 06:44:00.3	89.810	0.210	-1.030	1.070
2020/01/31 06:44:00.4	89.830	0.240	-1.080	1.060
2020/01/31 06:44:00.5	89.850	0.270	-1.120	1.040
2020/01/31 06:44:00.6	89.870	0.300	-1.160	1.030
2020/01/31 06:44:00.7	89.900	0.330	-1.190	1.020
2020/01/31 06:44:00.8	89.920	0.360	-1.210	1.010
2020/01/31 06:44:00.9	89.940	0.380	-1.230	0.990
2020/01/31 06:44:01.0	89.960	0.400	-1.240	0.980
2020/01/31 06:44:01.1	89.980	0.420	-1.240	0.960
2020/01/31 06:44:01.2	90.000	0.440	-1.230	0.950
2020/01/31 06:44:01.3	90.020	0.450	-1.220	0.930
2020/01/31 06:44:01.4	90.040	0.460	-1.190	0.920
2020/01/31 06:44:01.5	90.060	0.470	-1.160	0.900
2020/01/31 06:44:01.6	90.080	0.470	-1.120	0.880
2020/01/31 06:44:01.7	90.090	0.470	-1.070	0.870
2020/01/31 06:44:01.8	90.110	0.470	-1.020	0.850
2020/01/31 06:44:01.9	90.130	0.460	-0.950	0.830
2020/01/31 06:44:02.0	90.140	0.450	-0.880	0.810
2020/01/31 06:44:02.1	90.150	0.440	-0.810	0.800
2020/01/31 06:44:02.2	90.170	0.430	-0.720	0.780
2020/01/31 06:44:02.3	90.180	0.410	-0.630	0.760
2020/01/31 06:44:02.4	90.190	0.390	-0.540	0.750
2020/01/31 06:44:02.5	90.190	0.370	-0.450	0.730
2020/01/31 06:44:02.6	90.200	0.350	-0.340	0.720
2020/01/31 06:44:02.7	90.200	0.320	-0.240	0.700
2020/01/31 06:44:02.8	90.200	0.290	-0.140	0.690
2020/01/31 06:44:02.9	90.200	0.270	-0.030	0.680
2020/01/31 06:44:03.0	90.200	0.240	0.070	0.660
2020/01/31 06:44:03.1	90.200	0.210	0.180	0.650
2020/01/31 06:44:03.2	90.180	0.170	0.290	0.640
2020/01/31 06:44:03.3	90.170	0.140	0.390	0.640
2020/01/31 06:44:03.4	90.160	0.110	0.490	0.630
2020/01/31 06:44:03.5	90.150	0.080	0.580	0.630
2020/01/31 06:44:03.6	90.130	0.050	0.670	0.620
2020/01/31 06:44:03.7	90.110	0.020	0.760	0.620
2020/01/31 06:44:03.8	90.090	-0.010	0.840	0.620
2020/01/31 06:44:03.9	90.070	-0.040	0.910	0.620
2020/01/31 06:44:04.0	90.050	-0.070	0.980	0.620
2020/01/31 06:44:04.1	90.020	-0.100	1.030	0.620
2020/01/31 06:44:04.2	90.000	-0.120	1.080	0.630
2020/01/31 06:44:04.3	89.980	-0.150	1.130	0.630
2020/01/31 06:44:04.4	89.950	-0.170	1.160	0.630
2020/01/31 06:44:04.5	89.920	-0.190	1.180	0.640
2020/01/31 06:44:04.6	89.900	-0.210	1.190	0.640
2020/01/31 06:44:04.7	89.870	-0.230	1.200	0.640
2020/01/31 06:44:04.8	89.850	-0.240	1.190	0.640
2020/01/31 06:44:04.9	89.820	-0.250	1.170	0.630
2020/01/31 06:44:05.0	89.800	-0.260	1.140	0.630
2020/01/31 06:44:05.1	89.780	-0.270	1.110	0.630
2020/01/31 06:44:05.2	89.760	-0.280	1.060	0.620
2020/01/31 06:44:05.3	89.740	-0.280	1.000	0.610
2020/01/31 06:44:05.4	89.720	-0.280	0.940	0.600
2020/01/31 06:44:05.5	89.710	-0.280	0.860	0.590
2020/01/31 06:44:05.6	89.700	-0.280	0.780	0.580
2020/01/31 06:44:05.7	89.690	-0.270	0.690	0.560
2020/01/31 06:44:05.8	89.680	-0.260	0.590	0.540
2020/01/31 06:44:05.9	89.670	-0.250	0.490	0.520
2020/01/31 06:44:06.0	89.670	-0.240	0.380	0.500
2020/01/31 06:44:06.1	89.670	-0.230	0.270	0.470
2020/01/31 06:44:06.2	89.680	-0.210	0.150	0.440
2020/01/31 06:44:06.3	89.680	-0.190	0.030	0.420
2020/01/31 06:44:06.4	89.680	-0.180	-0.090	0.390
2020/01/31 06:44:06.5	89.690	-0.160	-0.210	0.360
2020/01/31 06:44:06.6	89.690	-0.140	-0.330	0.340
2020/01/31 06:44:06.7	89.700	-0.120	-0.450	0.310
2020/01/31 06:44:06.8	89.700	-0.090	-0.570	0.290
2020/01/31 06:44:06.9	89.710	-0.070	-0.680	0.260
2020/01/31 06:44:07.0	89.710	-0.050	-0.790	0.240
2020/01/31 06:44:07.1	89.720	-0.030	-0.890	0.220
2020/01/31 06:44:07.2	89.700	-0.010	-0.990	0.200
2020/01/31 06:44:07.3	89.700	0.010	-1.080	0.180
2020/01/31 06:44:07.4	89.700	0.030	-1.170	0.170
2020/01/31 06:44:07.5	89.700	0.050	-1.240	0.150
2020/01/31 06:44:07.6	89.700	0.070	-1.310	0.140
2020/01/31 06:44:07.7	89.700	0.080	-1.360	0.130
2020/01/31 06:44:07.8	89.700	0.100	-1.410	0.120
2020/01/31 06:44:07.9	89.690	0.110	-1.450	0.110
2020/01/31 06:44:08.0	89.690	0.120	-1.470	0.110
2020/01/31 06:44:08.1	89.690	0.130	-1.490	0.110
2020/01/31 06:44:08.2	89.670	0.140	-1.500	0.110
2020/01/31 06:44:08.3	89.660	0.150	-1.490	0.110
2020/01/31 06:44:08.4	89.660	0.160	-1.480	0.110
2020/01/31 06:44:08.5	89.650	0.160	-1.460	0.120
2020/01/31 06:44:08.6	89.650	0.160	-1.420	0.130
2020/01/31 06:44:08.7	89.650	0.160	-1.380	0.140
2020/01/31 06:44:08.8	89.650	0.160	-1.330	0.150
2020/01/31 06:44:08.9	89.650	0.160	-1.280	0.170
2020/01/31 06:44:09.0	89.650	0.160	-1.210	0.190
2020/01/31 06:44:09.1	89.650	0.150	-1.140	0.210
2020/01/31 06:44:09.2	89.650	0.140	-1.060	0.230
2020/01/31 06:44:09.3	89.650	0.140	-0.980	0.260
2020/01/31 06:44:09.4	89.660	0.130	-0.900	0.290
2020/01/31 06:44:09.5	89.660	0.120	-0.810	0.320
2020/01/31 06:44:09.6	89.670	0.110	-0.720	0.350
2020/01/31 06:44:09.7	89.670	0.100	-0.620	0.390
2020/01/31 06:44:09.8	89.680	0.080	-0.530	0.430
2020/01/31 06:44:09.9	89.680	0.070	-0.430	0.470
2020/01/31 06:44:10.0	89.690	0.060	-0.330	0.510
2020/01/31 06:44:10.1	89.700	0.040	-0.240	0.560
2020/01/31 06:44:10.2	89.710	0.020	-0.140	0.600
2020/01/31 06:44:10.3	89.720	0.010	-0.040	0.650
2020/01/31 06:44:10.4	89.720	-0.010	0.050	0.700
2020/01/31 06:44:10.5	89.730	-0.030	0.150	0.740
2020/01/31 06:44:10.6	89.730	-0.050	0.240	0.790
2020/01/31 06:44:10.7	89.730	-0.070	0.320	0.840
2020/01/31 06:44:10.8	89.730	-0.090	0.410	0.880
2020/01/31 06:44:10.9	89.730	-0.110	0.490	0.930
2020/01/31 06:44:11.0	89.730	-0.130	0.570	0.970
2020/01/31 06:44:11.1	89.730	-0.150	0.640	1.010
2020/01/31 06:44:11.2	89.730	-0.170	0.700	1.040
2020/01/31 06:44:11.3	89.730	-0.190	0.760	1.080
2020/01/31 06:44:11.4	89.720	-0.210	0.820	1.100
2020/01/31 06:44:11.5	89.720	-0.230	0.870	1.130
2020/01/31 06:44:11.6	89.710	-0.250	0.910	1.150
2020/01/31 06:44:11.7	89.700	-0.260	0.940	1.160
2020/01/31 06:44:11.8	89.700	-0.280	0.970	1.170
2020/01/31 06:44:11.9	89.690	-0.290	0.990	1.180
2020/01/31 06:44:12.0	89.680	-0.300	1.000	1.180
2020/01/31 06:44:12.1	89.680	-0.310	1.000	1.180
2020/01/31 06:44:12.2	89.670	-0.320	1.000	1.170
2020/01/31 06:44:12.3	89.660	-0.330	0.980	1.160
2020/01/31 06:44:12.4	89.660	-0.330	0.970	1.150
2020/01/31 06:44:12.5	89.650	-0.330	0.940	1.130
2020/01/31 06:44:12.6	89.640	-0.330	0.900	1.110
2020/01/31 06:44:12.7	89.630	-0.330	0.860	1.090
2020/01/31 06:44:12.8	89.620	-0.320	0.810	1.070
2020/01/31 06:44:12.9	89.610	-0.310	0.750	1.050
2020/01/31 06:44:13.0	89.600	-0.300	0.690	1.020
2020/01/31 06:44:13.1	89.590	-0.280	0.620	0.990
2020/01/31 06:44:13.2	89.590	-0.260	0.540	0.970
2020/01/31 06:44:13.3	89.580	-0.240	0.460	0.950
2020/01/31 06:44:13.4	89.580	-0.210	0.370	0.920
2020/01/31 06:44:13.5	89.570	-0.190	0.270	0.890
2020/01/31 06:44:13.6	89.560	-0.160	0.180	0.860
2020/01/31 06:44:13.7	89.550	-0.120	0.080	0.840
2020/01/31 06:44:13.8	89.550	-0.090	-0.030	0.810
2020/01/31 06:44:13.9	89.540	-0.050	-0.130	0.790
2020/01/31 06:44:14.0	89.530	-0.020	-0.240	0.770
2020/01/31 06:44:14.1	89.520	0.020	-0.340	0.740
2020/01/31 06:44:14.2	89.510	0.060	-0.450	0.720
2020/01/31 06:44:14.3	89.510	0.100	-0.560	0.700
2020/01/31 06:44:14.4	89.500	0.140	-0.660	0.680
2020/01/31 06:44:14.5	89.490	0.180	-0.760	0.670
2020/01/31 06:44:14.6	89.490	0.220	-0.850	0.650
2020/01/31 06:44:14.7	89.480	0.260	-0.940	0.640
2020/01/31 06:44:14.8	89.470	0.300	-1.020	0.620
2020/01/31 06:44:14.9	89.470	0.330	-1.100	0.610
2020/01/31 06:44:15.0	89.460	0.360	-1.160	0.600
2020/01/31 06:44:15.1	89.460	0.390	-1.230	0.580
2020/01/31 06:44:15.2	89.450	0.420	-1.280	0.570
2020/01/31 06:44:15.3	89.450	0.440	-1.320	0.560
2020/01/31 06:44:15.4	89.450	0.460	-1.350	0.540
2020/01/31 06:44:15.5	89.450	0.480	-1.380	0.530
2020/01/31 06:44:15.6	89.450	0.490	-1.390	0.510
2020/01/31 06:44:15.7	89.450	0.490	-1.390	0.490
2020/01/31 06:44:15.8	89.450	0.500	-1.390	0.480
2020/01/31 06:44:15.9	89.450	0.500	-1.370	0.460
2020/01/31 06:44:16.0	89.460	0.490	-1.350	0.440
2020/01/31 06:44:16.1	89.460	0.480	-1.310	0.420
2020/01/31 06:44:16.2	89.460	0.470	-1.270	0.400
2020/01/31 06:44:16.3	89.460	0.450	-1.210	0.390
2020/01/31 06:44:16.4	89.470	0.430	-1.150	0.370
2020/01/31 06:44:16.5	89.480	0.400	-1.080	0.350
2020/01/31 06:44:16.6	89.480	0.380	-1.010	0.340
2020/01/31 06:44:16.7	89.490	0.340	-0.920	0.320
2020/01/31 06:44:16.8	89.500	0.310	-0.840	0.310
2020/01/31 06:44:16.9	89.510	0.280	-0.740	0.300
2020/01/31 06:44:17.0	89.510	0.240	-0.650	0.290
2020/01/31 06:44:17.1	89.520	0.200	-0.550	0.280
2020/01/31 06:44:17.2	89.530	0.160	-0.430	0.270
2020/01/31 06:44:17.3	89.530	0.120	-0.330	0.260
2020/01/31 06:44:17.4	89.540	0.070	-0.220	0.260
2020/01/31 06:44:17.5	89.540	0.030	-0.120	0.260
2020/01/31 06:44:17.6	89.550	-0.010	-0.010	0.260
2020/01/31 06:44:17.7	89.550	-0.050	0.090	0.270
2020/01/31 06:44:17.8	89.550	-0.090	0.190	0.270
2020/01/31 06:44:17.9	89.560	-0.130	0.290	0.280
2020/01/31 06:44:18.0	89.560	-0.170	0.390	0.290
2020/01/31 06:44:18.1	89.550	-0.210	0.480	0.310
2020/01/31 06:44:18.2	89.560	-0.240	0.570	0.330
2020/01/31 06:44:18.3	89.560	-0.270	0.650	0.340
2020/01/31 06:44:18.4	89.550	-0.300	0.720	0.360
2020/01/31 06:44:18.5	89.550	-0.330	0.790	0.380
2020/01/31 06:44:18.6	89.550	-0.360	0.850	0.400
2020/01/31 06:44:18.7	89.540	-0.380	0.900	0.420
2020/01/31 06:44:18.8	89.540	-0.400	0.950	0.440
2020/01/31 06:44:18.9	89.530	-0.420	0.990	0.460
2020/01/31 06:44:19.0	89.520	-0.430	1.010	0.480
2020/01/31 06:44:19.1	89.520	-0.440	1.030	0.500
2020/01/31 06:44:19.2	89.530	-0.450	1.050	0.530
2020/01/31 06:44:19.3	89.520	-0.450	1.050	0.550
2020/01/31 06:44:19.4	89.520	-0.450	1.040	0.560
2020/01/31 06:44:19.5	89.510	-0.450	1.020	0.580
2020/01/31 06:44:19.6	89.510	-0.440	0.990	0.600
2020/01/31 06:44:19.7	89.510	-0.430	0.950	0.620
2020/01/31 06:44:19.8	89.500	-0.410	0.900	0.630
2020/01/31 06:44:19.9	89.500	-0.400	0.850	0.640
2020/01/31 06:44:20.0	89.500	-0.370	0.790	0.650
2020/01/31 06:44:20.1	89.500	-0.350	0.710	0.660
2020/01/31 06:44:20.2	89.500	-0.320	0.630	0.670
2020/01/31 06:44:20.3	89.500	-0.290	0.550	0.680
2020/01/31 06:44:20.4	89.500	-0.260	0.450	0.690
2020/01/31 06:44:20.5	89.500	-0.220	0.360	0.690
2020/01/31 06:44:20.6	89.500	-0.190	0.260	0.700
2020/01/31 06:44:20.7	89.490	-0.150	0.150	0.700
2020/01/31 06:44:20.8	89.490	-0.100	0.040	0.700
2020/01/31 06:44:20.9	89.480	-0.060	-0.070	0.700
2020/01/31 06:44:21.0	89.480	-0.010	-0.180	0.700
2020/01/31 06:44:21.1	89.470	0.030	-0.290	0.700
2020/01/31 06:44:21.2	89.460	0.080	-0.400	0.700
2020/01/31 06:44:21.3	89.450	0.120	-0.510	0.700
2020/01/31 06:44:21.4	89.440	0.170	-0.620	0.700
2020/01/31 06:44:21.5	89.430	0.220	-0.720	0.700
2020/01/31 06:44:21.6	89.420	0.260	-0.810	0.700
2020/01/31 06:44:21.7	89.410	0.310	-0.900	0.690
2020/01/31 06:44:21.8	89.390	0.350	-0.980	0.690
2020/01/31 06:44:21.9	89.380	0.390	-1.060	0.690
2020/01/31 06:44:22.0	89.370	0.430	-1.130	0.680
2020/01/31 06:44:22.1	89.360	0.470	-1.180	0.680
2020/01/31 06:44:22.2	89.350	0.500	-1.230	0.680
2020/01/31 06:44:22.3	89.340	0.530	-1.270	0.680
2020/01/31 06:44:22.4	89.340	0.560	-1.300	0.670
2020/01/31 06:44:22.5	89.330	0.580	-1.320	0.670
2020/01/31 06:44:22.6	89.330	0.600	-1.330	0.670
2020/01/31 06:44:22.7	89.320	0.620	-1.330	0.660
2020/01/31 06:44:22.8	89.320	0.630	-1.320	0.660
2020/01/31 06:44:22.9	89.320	0.640	-1.290	0.660
2020/01/31 06:44:23.0	89.320	0.640	-1.260	0.660
2020/01/31 06:44:23.1	89.320	0.640	-1.220	0.670
2020/01/31 06:44:23.2	89.320	0.640	-1.170	0.670
2020/01/31 06:44:23.3	89.330	0.630	-1.120	0.680
2020/01/31 06:44:23.4	89.330	0.620	-1.050	0.680
2020/01/31 06:44:23.5	89.340	0.610	-0.980	0.690
2020/01/31 06:44:23.6	89.340	0.590	-0.910	0.700
2020/01/31 06:44:23.7	89.350	0.560	-0.830	0.710
2020/01/31 06:44:23.8	89.360	0.540	-0.740	0.730
2020/01/31 06:44:23.9	89.370	0.510	-0.650	0.740
2020/01/31 06:44:24.0	89.380	0.480	-0.560	0.750
2020/01/31 06:44:24.1	89.390	0.440	-0.470	0.770
2020/01/31 06:44:24.2	89.400	0.400	-0.370	0.780
2020/01/31 06:44:24.3	89.420	0.370	-0.280	0.790
2020/01/31 06:44:24.4	89.430	0.320	-0.190	0.810
2020/01/31 06:44:24.5	89.450	0.280	-0.100	0.820
2020/01/31 06:44:24.6	89.460	0.240	-0.010	0.830
2020/01/31 06:44:24.7	89.480	0.190	0.080	0.840
2020/01/31 06:44:24.8	89.500	0.150	0.160	0.840
2020/01/31 06:44:24.9	89.520	0.110	0.230	0.850
2020/01/31 06:44:25.0	89.540	0.060	0.310	0.850
2020/01/31 06:44:25.1	89.560	0.020	0.370	0.850
2020/01/31 06:44:25.2	89.570	-0.020	0.430	0.850
2020/01/31 06:44:25.3	89.600	-0.070	0.480	0.840
2020/01/31 06:44:25.4	89.620	-0.110	0.530	0.840
2020/01/31 06:44:25.5	89.640	-0.140	0.570	0.830
2020/01/31 06:44:25.6	89.670	-0.180	0.600	0.820
2020/01/31 06:44:25.7	89.690	-0.210	0.630	0.820
2020/01/31 06:44:25.8	89.710	-0.240	0.650	0.810
2020/01/31 06:44:25.9	89.740	-0.270	0.660	0.800
2020/01/31 06:44:26.0	89.760	-0.300	0.670	0.790
2020/01/31 06:44:26.1	89.780	-0.320	0.670	0.780
2020/01/31 06:44:26.2	89.810	-0.340	0.660	0.780
2020/01/31 06:44:26.3	89.830	-0.360	0.650	0.770
2020/01/31 06:44:26.4	89.850	-0.380	0.640	0.770
2020/01/31 06:44:26.5	89.860	-0.390	0.610	0.770
2020/01/31 06:44:26.6	89.880	-0.400	0.590	0.770
2020/01/31 06:44:26.7	89.890	-0.410	0.560	0.780
2020/01/31 06:44:26.8	89.900	-0.410	0.520	0.790
2020/01/31 06:44:26.9	89.910	-0.420	0.490	0.800
2020/01/31 06:44:27.0	89.910	-0.420	0.450	0.810
2020/01/31 06:44:27.1	89.910	-0.420	0.410	0.820
2020/01/31 06:44:27.2	89.910	-0.410	0.360	0.840
2020/01/31 06:44:27.3	89.910	-0.410	0.310	0.860
2020/01/31 06:44:27.4	89.910	-0.410	0.270	0.880
2020/01/31 06:44:27.5	89.900	-0.400	0.220	0.900
2020/01/31 06:44:27.6	89.900	-0.390	0.180	0.930
2020/01/31 06:44:27.7	89.900	-0.390	0.130	0.950
2020/01/31 06:44:27.8	89.890	-0.380	0.090	0.970
2020/01/31 06:44:27.9	89.890	-0.370	0.040	0.990
2020/01/31 06:44:28.0	89.880	-0.370	0.000	1.020
2020/01/31 06:44:28.1	89.870	-0.360	-0.040	1.040
2020/01/31 06:44:28.2	89.860	-0.350	-0.080	1.060
2020/01/31 06:44:28.3	89.850	-0.350	-0.110	1.080
2020/01/31 06:44:28.4	89.850	-0.340	-0.150	1.100
2020/01/31 06:44:28.5	89.840	-0.340	-0.180	1.120
2020/01/31 06:44:28.6	89.830	-0.330	-0.210	1.130
2020/01/31 06:44:28.7	89.830	-0.330	-0.240	1.150
2020/01/31 06:44:28.8	89.820	-0.320	-0.260	1.160
2020/01/31 06:44:28.9	89.820	-0.320	-0.290	1.170
2020/01/31 06:44:29.0	89.810	-0.320	-0.310	1.180
2020/01/31 06:44:29.1	89.810	-0.310	-0.330	1.190
2020/01/31 06:44:29.2	89.800	-0.310	-0.350	1.200
2020/01/31 06:44:29.3	89.800	-0.310	-0.360	1.200
2020/01/31 06:44:29.4	89.800	-0.310	-0.370	1.200
2020/01/31 06:44:29.5	89.790	-0.310	-0.380	1.200
2020/01/31 06:44:29.6	89.790	-0.310	-0.390	1.190
2020/01/31 06:44:29.7	89.790	-0.300	-0.400	1.190
2020/01/31 06:44:29.8	89.790	-0.300	-0.410	1.180
2020/01/31 06:44:29.9	89.790	-0.300	-0.410	1.170
2020/01/31 06:44:30.0	89.790	-0.290	-0.420	1.150
2020/01/31 06:44:30.1	89.790	-0.290	-0.420	1.140
2020/01/31 06:44:30.2	89.790	-0.280	-0.420	1.120
2020/01/31 06:44:30.3	89.790	-0.280	-0.420	1.100
2020/01/31 06:44:30.4	89.780	-0.270	-0.420	1.090
2020/01/31 06:44:30.5	89.780	-0.260	-0.410	1.070
2020/01/31 06:44:30.6	89.780	-0.250	-0.410	1.050
2020/01/31 06:44:30.7	89.770	-0.240	-0.410	1.030
2020/01/31 06:44:30.8	89.760	-0.230	-0.400	1.000
2020/01/31 06:44:30.9	89.750	-0.210	-0.400	0.980
2020/01/31 06:44:31.0	89.740	-0.200	-0.390	0.960
2020/01/31 06:44:31.1	89.730	-0.180	-0.380	0.940
2020/01/31 06:44:31.2	89.710	-0.170	-0.370	0.920
2020/01/31 06:44:31.3	89.700	-0.150	-0.360	0.890
2020/01/31 06:44:31.4	89.680	-0.130	-0.350	0.860
2020/01/31 06:44:31.5	89.670	-0.120	-0.340	0.840
2020/01/31 06:44:31.6	89.650	-0.100	-0.330	0.810
2020/01/31 06:44:31.7	89.630	-0.080	-0.310	0.780
2020/01/31 06:44:31.8	89.620	-0.060	-0.300	0.750
2020/01/31 06:44:31.9	89.600	-0.040	-0.280	0.720
2020/01/31 06:44:32.0	89.580	-0.020	-0.270	0.690
2020/01/31 06:44:32.1	89.570	-0.000	-0.250	0.650
2020/01/31 06:44:32.2	89.550	0.010	-0.240	0.620
2020/01/31 06:44:32.3	89.540	0.030	-0.220	0.580
2020/01/31 06:44:32.4	89.520	0.050	-0.210	0.540
2020/01/31 06:44:32.5	89.510	0.070	-0.190	0.500
2020/01/31 06:44:32.6	89.500	0.090	-0.180	0.460
2020/01/31 06:44:32.7	89.490	0.100	-0.160	0.420
2020/01/31 06:44:32.8	89.480	0.120	-0.150	0.370
2020/01/31 06:44:32.9	89.470	0.140	-0.140	0.320
2020/01/31 06:44:33.0	89.470	0.150	-0.130	0.270
2020/01/31 06:44:33.1	89.470	0.170	-0.130	0.220
2020/01/31 06:44:33.2	89.480	0.190	-0.120	0.170
2020/01/31 06:44:33.3	89.480	0.200	-0.120	0.120
2020/01/31 06:44:33.4	89.480	0.220	-0.120	0.060
2020/01/31 06:44:33.5	89.490	0.230	-0.120	0.010
2020/01/31 06:44:33.6	89.500	0.250	-0.130	-0.050
2020/01/31 06:44:33.7	89.510	0.260	-0.130	-0.110
2020/01/31 06:44:33.8	89.520	0.280	-0.140	-0.160
2020/01/31 06:44:33.9	89.530	0.300	-0.160	-0.220
2020/01/31 06:44:34.0	89.550	0.310	-0.170	-0.270
2020/01/31 06:44:34.1	89.560	0.330	-0.190	-0.330
2020/01/31 06:44:34.2	89.580	0.350	-0.210	-0.380
2020/01/31 06:44:34.3	89.600	0.370	-0.230	-0.440
2020/01/31 06:44:34.4	89.620	0.390	-0.260	-0.490
2020/01/31 06:44:34.5	89.650	0.410	-0.280	-0.540
2020/01/31 06:44:34.6	89.670	0.430	-0.310	-0.590
2020/01/31 06:44:34.7	89.690	0.450	-0.350	-0.640
2020/01/31 06:44:34.8	89.720	0.470	-0.380	-0.690
2020/01/31 06:44:34.9	89.740	0.490	-0.420	-0.730
2020/01/31 06:44:35.0	89.760	0.510	-0.450	-0.770
2020/01/31 06:44:35.1	89.790	0.540	-0.490	-0.810
2020/01/31 06:44:35.2	89.820	0.560	-0.530	-0.850
2020/01/31 06:44:35.3	89.840	0.580	-0.570	-0.880
2020/01/31 06:44:35.4	89.870	0.610	-0.600	-0.910
2020/01/31 06:44:35.5	89.890	0.630	-0.640	-0.930
2020/01/31 06:44:35.6	89.920	0.650	-0.670	-0.950
2020/01/31 06:44:35.7	89.940	0.670	-0.710	-0.960
2020/01/31 06:44:35.8	89.960	0.690	-0.740	-0.960
2020/01/31 06:44:35.9	89.980	0.710	-0.760	-0.960
2020/01/31 06:44:36.0	90.000	0.720	-0.790	-0.960
2020/01/31 06:44:36.1	90.020	0.740	-0.810	-0.950
2020/01/31 06:44:36.2	90.030	0.750	-0.820	-0.920
2020/01/31 06:44:36.3	90.050	0.760	-0.830	-0.900
2020/01/31 06:44:36.4	90.060	0.760	-0.840	-0.870
2020/01/31 06:44:36.5	90.070	0.760	-0.830	-0.830
2020/01/31 06:44:36.6	90.080	0.760	-0.830	-0.790
2020/01/31 06:44:36.7	90.080	0.760	-0.820	-0.740
2020/01/31 06:44:36.8	90.080	0.750	-0.800	-0.680
2020/01/31 06:44:36.9	90.080	0.740	-0.770	-0.620
2020/01/31 06:44:37.0	90.080	0.720	-0.740	-0.560
2020/01/31 06:44:37.1	90.080	0.700	-0.700	-0.490
2020/01/31 06:44:37.2	90.070	0.680	-0.660	-0.410
2020/01/31 06:44:37.3	90.070	0.650	-0.610	-0.340
2020/01/31 06:44:37.4	90.060	0.620	-0.560	-0.260
2020/01/31 06:44:37.5	90.050	0.580	-0.500	-0.180
2020/01/31 06:44:37.6	90.040	0.540	-0.430	-0.090
2020/01/31 06:44:37.7	90.030	0.500	-0.360	-0.010
2020/01/31 06:44:37.8	90.020	0.450	-0.290	0.080
2020/01/31 06:44:37.9	90.000	0.400	-0.210	0.170
2020/01/31 06:44:38.0	89.990	0.350	-0.130	0.260
2020/01/31 06:44:38.1	89.980	0.290	-0.040	0.340
2020/01/31 06:44:38.2	89.970	0.240	0.050	0.430
2020/01/31 06:44:38.3	89.950	0.180	0.140	0.520
2020/01/31 06:44:38.4	89.940	0.120	0.230	0.600
2020/01/31 06:44:38.5	89.930	0.050	0.320	0.680
2020/01/31 06:44:38.6	89.910	-0.010	0.410	0.770
2020/01/31 06:44:38.7	89.900	-0.070	0.500	0.850
2020/01/31 06:44:38.8	89.890	-0.140	0.590	0.930
2020/01/31 06:44:38.9	89.880	-0.200	0.670	1.000
2020/01/31 06:44:39.0	89.860	-0.260	0.760	1.080
2020/01/31 06:44:39.1	89.850	-0.330	0.840	1.150
2020/01/31 06:44:39.2	89.850	-0.390	0.910	1.230
2020/01/31 06:44:39.3	89.840	-0.450	0.980	1.300
2020/01/31 06:44:39.4	89.830	-0.500	1.050	1.360
2020/01/31 06:44:39.5	89.830	-0.560	1.110	1.430
2020/01/31 06:44:39.6	89.820	-0.610	1.160	1.490
2020/01/31 06:44:39.7	89.810	-0.660	1.210	1.550
2020/01/31 06:44:39.8	89.810	-0.710	1.250	1.610
2020/01/31 06:44:39.9	89.800	-0.750	1.280	1.670
2020/01/31 06:44:40.0	89.790	-0.790	1.300	1.720
2020/01/31 06:44:40.1	89.790	-0.820	1.310	1.770
2020/01/31 06:44:40.2	89.790	-0.850	1.310	1.830
2020/01/31 06:44:40.3	89.780	-0.870	1.310	1.870
2020/01/31 06:44:40.4	89.780	-0.890	1.290	1.910
2020/01/31 06:44:40.5	89.780	-0.910	1.270	1.950
2020/01/31 06:44:40.6	89.780	-0.920	1.230	1.990
2020/01/31 06:44:40.7	89.780	-0.930	1.190	2.020
2020/01/31 06:44:40.8	89.780	-0.930	1.130	2.050
2020/01/31 06:44:40.9	89.780	-0.930	1.070	2.080
2020/01/31 06:44:41.0	89.790	-0.920	0.990	2.100
2020/01/31 06:44:41.1	89.790	-0.900	0.910	2.120
2020/01/31 06:44:41.2	89.800	-0.890	0.830	2.130
2020/01/31 06:44:41.3	89.810	-0.870	0.730	2.140
2020/01/31 06:44:41.4	89.820	-0.840	0.630	2.140
2020/01/31 06:44:41.5	89.830	-0.810	0.520	2.140
2020/01/31 06:44:41.6	89.840	-0.780	0.400	2.140
2020/01/31 06:44:41.7	89.850	-0.750	0.280	2.130
2020/01/31 06:44:41.8	89.870	-0.710	0.160	2.120
2020/01/31 06:44:41.9	89.880	-0.670	0.040	2.110
2020/01/31 06:44:42.0	89.900	-0.630	-0.090	2.090
2020/01/31 06:44:42.1	89.920	-0.580	-0.220	2.070
2020/01/31 06:44:42.2	89.940	-0.540	-0.350	2.040
2020/01/31 06:44:42.3	89.960	-0.500	-0.480	2.020
2020/01/31 06:44:42.4	89.980	-0.450	-0.600	1.980
2020/01/31 06:44:42.5	90.000	-0.400	-0.730	1.950
2020/01/31 06:44:42.6	90.020	-0.360	-0.840	1.920
2020/01/31 06:44:42.7	90.040	-0.310	-0.960	1.880
2020/01/31 06:44:42.8	90.060	-0.270	-1.070	1.840
2020/01/31 06:44:42.9	90.090	-0.230	-1.170	1.810
2020/01/31 06:44:43.0	90.110	-0.180	-1.270	1.770
2020/01/31 06:44:43.1	90.130	-0.150	-1.350	1.730
2020/01/31 06:44:43.2	90.140	-0.110	-1.440	1.690
2020/01/31 06:44:43.3	90.160	-0.070	-1.510	1.650
2020/01/31 06:44:43.4	90.170	-0.040	-1.570	1.610
2020/01/31 06:44:43.5	90.190	-0.010	-1.620	1.570
2020/01/31 06:44:43.6	90.200	0.020	-1.660	1.530
2020/01/31 06:44:43.7	90.210	0.040	-1.690	1.490
2020/01/31 06:44:43.8	90.220	0.070	-1.710	1.450
2020/01/31 06:44:43.9	90.230	0.080	-1.720	1.410
2020/01/31 06:44:44.0	90.230	0.100	-1.710	1.380
2020/01/31 06:44:44.1	90.230	0.110	-1.700	1.340
2020/01/31 06:44:44.2	90.220	0.120	-1.670	1.300
2020/01/31 06:44:44.3	90.220	0.130	-1.640	1.270
2020/01/31 06:44:44.4	90.210	0.130	-1.590	1.230
2020/01/31 06:44:44.5	90.210	0.140	-1.530	1.190
2020/01/31 06:44:44.6	90.200	0.140	-1.470	1.150
2020/01/31 06:44:44.7	90.190	0.130	-1.390	1.120
2020/01/31 06:44:44.8	90.180	0.130	-1.310	1.080
2020/01/31 06:44:44.9	90.170	0.120	-1.220	1.040
2020/01/31 06:44:45.0	90.160	0.110	-1.120	1.000
2020/01/31 06:44:45.1	90.140	0.100	-1.020	0.970
2020/01/31 06:44:45.2	90.130	0.080	-0.900	0.930
2020/01/31 06:44:45.3	90.110	0.070	-0.790	0.890
2020/01/31 06:44:45.4	90.100	0.050	-0.670	0.860
2020/01/31 06:44:45.5	90.080	0.040	-0.550	0.820
2020/01/31 06:44:45.6	90.060	0.020	-0.440	0.790
2020/01/31 06:44:45.7	90.040	0.000	-0.320	0.750
2020/01/31 06:44:45.8	90.020	-0.010	-0.200	0.710
2020/01/31 06:44:45.9	90.000	-0.030	-0.080	0.680
2020/01/31 06:44:46.0	89.980	-0.040	0.030	0.640
2020/01/31 06:44:46.1	89.960	-0.060	0.140	0.600
2020/01/31 06:44:46.2	89.950	-0.070	0.250	0.570
2020/01/31 06:44:46.3	89.930	-0.080	0.350	0.530
2020/01/31 06:44:46.4	89.910	-0.090	0.440	0.480
2020/01/31 06:44:46.5	89.890	-0.100	0.520	0.440
2020/01/31 06:44:46.6	89.880	-0.110	0.590	0.400
2020/01/31 06:44:46.7	89.860	-0.110	0.660	0.350
2020/01/31 06:44:46.8	89.850	-0.110	0.710	0.300
2020/01/31 06:44:46.9	89.840	-0.110	0.760	0.250
2020/01/31 06:44:47.0	89.830	-0.110	0.790	0.200
2020/01/31 06:44:47.1	89.820	-0.100	0.820	0.150
2020/01/31 06:44:47.2	89.810	-0.090	0.830	0.100
2020/01/31 06:44:47.3	89.810	-0.080	0.830	0.040
2020/01/31 06:44:47.4	89.800	-0.060	0.830	-0.020
2020/01/31 06:44:47.5	89.790	-0.040	0.810	-0.070
2020/01/31 06:44:47.6	89.790	-0.020	0.780	-0.130
2020/01/31 06:44:47.7	89.790	0.010	0.750	-0.190
2020/01/31 06:44:47.8	89.780	0.040	0.700	-0.250
2020/01/31 06:44:47.9	89.780	0.070	0.650	-0.310
2020/01/31 06:44:48.0	89.780	0.100	0.590	-0.370
2020/01/31 06:44:48.1	89.780	0.140	0.520	-0.430
2020/01/31 06:44:48.2	89.790	0.170	0.450	-0.490
2020/01/31 06:44:48.3	89.790	0.210	0.370	-0.540
2020/01/31 06:44:48.4	89.790	0.250	0.290	-0.600
2020/01/31 06:44:48.5	89.790	0.290	0.210	-0.650
2020/01/31 06:44:48.6	89.800	0.330	0.120	-0.710
2020/01/31 06:44:48.7	89.800	0.370	0.030	-0.760
2020/01/31 06:44:48.8	89.800	0.410	-0.050	-0.810
2020/01/31 06:44:48.9	89.810	0.450	-0.140	-0.860
2020/01/31 06:44:49.0	89.820	0.490	-0.220	-0.900
2020/01/31 06:44:49.1	89.820	0.520	-0.300	-0.940
2020/01/31 06:44:49.2	89.830	0.560	-0.380	-0.980
2020/01/31 06:44:49.3	89.830	0.590	-0.450	-1.010
2020/01/31 06:44:49.4	89.840	0.620	-0.520	-1.040
2020/01/31 06:44:49.5	89.840	0.640	-0.580	-1.070
2020/01/31 06:44:49.6	89.850	0.670	-0.640	-1.090
2020/01/31 06:44:49.7	89.850	0.690	-0.680	-1.110
2020/01/31 06:44:49.8	89.850	0.710	-0.720	-1.130
2020/01/31 06:44:49.9	89.860	0.720	-0.760	-1.140
2020/01/31 06:44:50.0	89.860	0.730	-0.780	-1.150
2020/01/31 06:44:50.1	89.860	0.730	-0.800	-1.150
2020/01/31 06:44:50.2	89.850	0.740	-0.800	-1.150
2020/01/31 06:44:50.3	89.850	0.730	-0.800	-1.140
2020/01/31 06:44:50.4	89.850	0.730	-0.800	-1.130
2020/01/31 06:44:50.5	89.850	0.720	-0.780	-1.120
2020/01/31 06:44:50.6	89.850	0.700	-0.760	-1.100
2020/01/31 06:44:50.7	89.850	0.690	-0.730	-1.080
2020/01/31 06:44:50.8	89.850	0.660	-0.690	-1.050
2020/01/31 06:44:50.9	89.850	0.640	-0.650	-1.020
2020/01/31 06:44:51.0	89.850	0.610	-0.600	-0.990
2020/01/31 06:44:51.1	89.850	0.580	-0.550	-0.950
2020/01/31 06:44:51.2	89.850	0.550	-0.500	-0.910
2020/01/31 06:44:51.3	89.850	0.510	-0.440	-0.860
2020/01/31 06:44:51.4	89.850	0.470	-0.380	-0.820
2020/01/31 06:44:51.5	89.850	0.430	-0.320	-0.760
2020/01/31 06:44:51.6	89.860	0.390	-0.260	-0.710
2020/01/31 06:44:51.7	89.860	0.340	-0.200	-0.650
2020/01/31 06:44:51.8	89.870	0.300	-0.140	-0.590
2020/01/31 06:44:51.9	89.870	0.250	-0.080	-0.530
2020/01/31 06:44:52.0	89.880	0.210	-0.020	-0.470
2020/01/31 06:44:52.1	89.890	0.160	0.030	-0.400
2020/01/31 06:44:52.2	89.900	0.120	0.080	-0.330
2020/01/31 06:44:52.3	89.910	0.070	0.130	-0.260
2020/01/31 06:44:52.4	89.920	0.030	0.170	-0.190
2020/01/31 06:44:52.5	89.940	-0.010	0.210	-0.110
2020/01/31 06:44:52.6	89.950	-0.060	0.240	-0.040
2020/01/31 06:44:52.7	89.960	-0.100	0.270	0.040
2020/01/31 06:44:52.8	89.980	-0.130	0.290	0.120
2020/01/31 06:44:52.9	89.990	-0.170	0.310	0.200
2020/01/31 06:44:53.0	90.010	-0.200	0.330	0.280
2020/01/31 06:44:53.1	90.020	-0.240	0.340	0.370
2020/01/31 06:44:53.2	90.050	-0.270	0.350	0.460
2020/01/31 06:44:53.3	90.060	-0.290	0.360	0.550
2020/01/31 06:44:53.4	90.080	-0.320	0.360	0.630
2020/01/31 06:44:53.5	90.090	-0.340	0.360	0.730
2020/01/31 06:44:53.6	90.100	-0.360	0.350	0.820
2020/01/31 06:44:53.7	90.110	-0.380	0.340	0.910
2020/01/31 06:44:53.8	90.110	-0.400	0.330	1.010
2020/01/31 06:44:53.9	90.120	-0.410	0.320	1.110
2020/01/31 06:44:54.0	90.120	-0.420	0.310	1.210
2020/01/31 06:44:54.1	90.120	-0.430	0.290	1.310
2020/01/31 06:44:54.2	90.120	-0.440	0.270	1.410
2020/01/31 06:44:54.3	90.120	-0.440	0.260	1.510
2020/01/31 06:44:54.4	90.120	-0.450	0.240	1.610
2020/01/31 06:44:54.5	90.110	-0.450	0.220	1.710
2020/01/31 06:44:54.6	90.110	-0.450	0.200	1.800
2020/01/31 06:44:54.7	90.100	-0.450	0.170	1.900
2020/01/31 06:44:54.8	90.090	-0.450	0.150	1.990
2020/01/31 06:44:54.9	90.080	-0.440	0.130	2.090
2020/01/31 06:44:55.0	90.070	-0.440	0.100	2.170
2020/01/31 06:44:55.1	90.050	-0.430	0.080	2.260
2020/01/31 06:44:55.2	90.040	-0.420	0.050	2.340
2020/01/31 06:44:55.3	90.020	-0.420	0.030	2.420
2020/01/31 06:44:55.4	90.010	-0.410	0.000	2.490
2020/01/31 06:44:55.5	89.990	-0.400	-0.020	2.560
2020/01/31 06:44:55.6	89.980	-0.390	-0.050	2.620
2020/01/31 06:44:55.7	89.960	-0.380	-0.080	2.680
2020/01/31 06:44:55.8	89.950	-0.370	-0.100	2.730
2020/01/31 06:44:55.9	89.930	-0.350	-0.130	2.770
2020/01/31 06:44:56.0	89.920	-0.340	-0.160	2.810
2020/01/31 06:44:56.1	89.900	-0.330	-0.190	2.840
2020/01/31 06:44:56.2	89.890	-0.320	-0.220	2.870
2020/01/31 06:44:56.3	89.880	-0.300	-0.240	2.890
2020/01/31 06:44:56.4	89.870	-0.290	-0.270	2.900
2020/01/31 06:44:56.5	89.860	-0.270	-0.300	2.910
2020/01/31 06:44:56.6	89.850	-0.260	-0.320	2.910
2020/01/31 06:44:56.7	89.840	-0.240	-0.350	2.900
2020/01/31 06:44:56.8	89.830	-0.230	-0.370	2.890
2020/01/31 06:44:56.9	89.830	-0.210	-0.400	2.880
2020/01/31 06:44:57.0	89.820	-0.200	-0.420	2.860
2020/01/31 06:44:57.1	89.820	-0.180	-0.440	2.830
2020/01/31 06:44:57.2	89.810	-0.170	-0.460	2.800
2020/01/31 06:44:57.3	89.810	-0.150	-0.480	2.760
2020/01/31 06:44:57.4	89.810	-0.130	-0.490	2.720
2020/01/31 06:44:57.5	89.820	-0.120	-0.500	2.670
2020/01/31 06:44:57.6	89.820	-0.100	-0.510	2.620
2020/01/31 06:44:57.7	89.830	-0.090	-0.520	2.560
2020/01/31 06:44:57.8	89.840	-0.070	-0.520	2.510
2020/01/31 06:44:57.9	89.850	-0.060	-0.520	2.440
2020/01/31 06:44:58.0	89.860	-0.040	-0.520	2.380
2020/01/31 06:44:58.1	89.870	-0.030	-0.510	2.310
2020/01/31 06:44:58.2	89.890	-0.020	-0.500	2.230
2020/01/31 06:44:58.3	89.910	-0.010	-0.490	2.160
2020/01/31 06:44:58.4	89.920	0.000	-0.480	2.080
2020/01/31 06:44:58.5	89.940	0.010	-0.460	2.000
2020/01/31 06:44:58.6	89.950	0.020	-0.440	1.920
2020/01/31 06:44:58.7	89.970	0.030	-0.420	1.840
2020/01/31 06:44:58.8	89.990	0.040	-0.400	1.750
2020/01/31 06:44:58.9	90.010	0.050	-0.380	1.660
2020/01/31 06:44:59.0	90.020	0.050	-0.360	1.570
2020/01/31 06:44:59.1	90.040	0.060	-0.340	1.480
2020/01/31 06:44:59.2	90.060	0.060	-0.310	1.390
2020/01/31 06:44:59.3	90.070	0.070	-0.290	1.300
2020/01/31 06:44:59.4	90.080	0.070	-0.270	1.210
2020/01/31 06:44:59.5	90.100	0.070	-0.260	1.110
2020/01/31 06:44:59.6	90.110	0.080	-0.240	1.010
2020/01/31 06:44:59.7	90.120	0.080	-0.230	0.920
2020/01/31 06:44:59.8	90.130	0.080	-0.220	0.820
2020/01/31 06:44:59.9	90.140	0.080	-0.210	0.720
2020/01/31 06:45:00.0	90.140	0.090	-0.210	0.620
2020/01/31 06:45:00.1	90.150	0.090	-0.210	0.520
2020/01/31 06:45:00.2	90.150	0.100	-0.210	0.420
2020/01/31 06:45:00.3	90.150	0.100	-0.220	0.320
2020/01/31 06:45:00.4	90.150	0.110	-0.230	0.220
2020/01/31 06:45:00.5	90.160	0.120	-0.240	0.120
2020/01/31 06:45:00.6	90.160	0.120	-0.250	0.020
2020/01/31 06:45:00.7	90.160	0.130	-0.270	-0.070
2020/01/31 06:45:00.8	90.160	0.140	-0.290	-0.170
2020/01/31 06:45:00.9	90.160	0.150	-0.300	-0.260
2020/01/31 06:45:01.0	90.150	0.160	-0.330	-0.350
2020/01/31 06:45:01.1	90.150	0.180	-0.350	-0.440
2020/01/31 06:45:01.2	90.140	0.190	-0.360	-0.530
2020/01/31 06:45:01.3	90.140	0.200	-0.390	-0.610
2020/01/31 06:45:01.4	90.130	0.210	-0.410	-0.690
2020/01/31 06:45:01.5	90.130	0.220	-0.420	-0.760
2020/01/31 06:45:01.6	90.120	0.240	-0.440	-0.840
2020/01/31 06:45:01.7	90.120	0.250	-0.450	-0.900
2020/01/31 06:45:01.8	90.110	0.260	-0.460	-0.970
2020/01/31 06:45:01.9	90.100	0.270	-0.470	-1.020
2020/01/31 06:45:02.0	90.090	0.270	-0.480	-1.070
2020/01/31 06:45:02.1	90.090	0.280	-0.480	-1.120
2020/01/31 06:45:02.2	90.080	0.290	-0.470	-1.160
2020/01/31 06:45:02.3	90.070	0.290	-0.460	-1.200
2020/01/31 06:45:02.4	90.060	0.290	-0.450	-1.230
2020/01/31 06:45:02.5	90.050	0.290	-0.440	-1.250
2020/01/31 06:45:02.6	90.040	0.280	-0.420	-1.270
2020/01/31 06:45:02.7	90.030	0.270	-0.390	-1.280
2020/01/31 06:45:02.8	90.020	0.260	-0.360	-1.290
2020/01/31 06:45:02.9	90.010	0.250	-0.330	-1.290
2020/01/31 06:45:03.0	90.000	0.240	-0.300	-1.290
2020/01/31 06:45:03.1	89.990	0.220	-0.260	-1.280
2020/01/31 06:45:03.2	89.970	0.200	-0.220	-1.270
2020/01/31 06:45:03.3	89.960	0.170	-0.170	-1.250
2020/01/31 06:45:03.4	89.950	0.150	-0.130	-1.230
2020/01/31 06:45:03.5	89.940	0.120	-0.080	-1.200
2020/01/31 06:45:03.6	89.930	0.090	-0.030	-1.170
2020/01/31 06:45:03.7	89.920	0.060	0.020	-1.140
2020/01/31 06:45:03.8	89.920	0.030	0.070	-1.110
2020/01/31 06:45:03.9	89.910	0.000	0.120	-1.070
2020/01/31 06:45:04.0	89.910	-0.030	0.170	-1.030
2020/01/31 06:45:04.1	89.910	-0.060	0.220	-0.980
2020/01/31 06:45:04.2	89.900	-0.090	0.260	-0.930
2020/01/31 06:45:04.3	89.900	-0.120	0.300	-0.890
2020/01/31 06:45:04.4	89.900	-0.150	0.340	-0.840
2020/01/31 06:45:04.5	89.900	-0.180	0.380	-0.790
2020/01/31 06:45:04.6	89.910	-0.210	0.410	-0.740
2020/01/31 06:45:04.7	89.910	-0.230	0.440	-0.690
2020/01/31 06:45:04.8	89.920	-0.250	0.460	-0.640
2020/01/31 06:45:04.9	89.930	-0.270	0.480	-0.600
2020/01/31 06:45:05.0	89.940	-0.290	0.500	-0.550
2020/01/31 06:45:05.1	89.950	-0.300	0.510	-0.500
2020/01/31 06:45:05.2	89.950	-0.310	0.510	-0.450
2020/01/31 06:45:05.3	89.970	-0.320	0.510	-0.400
2020/01/31 06:45:05.4	89.980	-0.320	0.500	-0.360
2020/01/31 06:45:05.5	89.990	-0.320	0.490	-0.310
2020/01/31 06:45:05.6	90.000	-0.310	0.480	-0.260
2020/01/31 06:45:05.7	90.010	-0.310	0.460	-0.220
2020/01/31 06:45:05.8	90.020	-0.300	0.440	-0.170
2020/01/31 06:45:05.9	90.030	-0.280	0.410	-0.120
2020/01/31 06:45:06.0	90.040	-0.270	0.380	-0.080
2020/01/31 06:45:06.1	90.050	-0.250	0.350	-0.030
2020/01/31 06:45:06.2	90.070	-0.230	0.310	0.020
2020/01/31 06:45:06.3	90.070	-0.200	0.280	0.070
2020/01/31 06:45:06.4	90.070	-0.170	0.240	0.120
2020/01/31 06:45:06.5	90.070	-0.150	0.200	0.170
2020/01/31 06:45:06.6	90.070	-0.120	0.150	0.220
2020/01/31 06:45:06.7	90.060	-0.090	0.110	0.280
2020/01/31 06:45:06.8	90.050	-0.060	0.070	0.330
2020/01/31 06:45:06.9	90.050	-0.020	0.020	0.390
2020/01/31 06:45:07.0	90.030	0.010	-0.020	0.440
2020/01/31 06:45:07.1	90.020	0.040	-0.060	0.500
2020/01/31 06:45:07.2	90.010	0.070	-0.100	0.560
2020/01/31 06:45:07.3	89.990	0.100	-0.140	0.620
2020/01/31 06:45:07.4	89.980	0.130	-0.180	0.680
2020/01/31 06:45:07.5	89.960	0.160	-0.220	0.740
2020/01/31 06:45:07.6	89.940	0.190	-0.250	0.800
2020/01/31 06:45:07.7	89.920	0.210	-0.280	0.860
2020/01/31 06:45:07.8	89.900	0.240	-0.310	0.930
2020/01/31 06:45:07.9	89.880	0.260	-0.340	0.980
2020/01/31 06:45:08.0	89.870	0.280	-0.370	1.040
2020/01/31 06:45:08.1	89.850	0.290	-0.390	1.100
2020/01/31 06:45:08.2	89.840	0.310	-0.410	1.160
2020/01/31 06:45:08.3	89.830	0.320	-0.430	1.210
2020/01/31 06:45:08.4	89.820	0.330	-0.460	1.270
2020/01/31 06:45:08.5	89.820	0.340	-0.470	1.320
2020/01/31 06:45:08.6	89.820	0.350	-0.490	1.370
2020/01/31 06:45:08.7	89.820	0.350	-0.510	1.410
2020/01/31 06:45:08.8	89.820	0.350	-0.520	1.460
2020/01/31 06:45:08.9	89.830	0.350	-0.530	1.500
2020/01/31 06:45:09.0	89.840	0.340	-0.550	1.540
2020/01/31 06:45:09.1	89.850	0.340	-0.560	1.570
2020/01/31 06:45:09.2	89.850	0.330	-0.570	1.610
2020/01/31 06:45:09.3	89.870	0.320	-0.570	1.640
2020/01/31 06:45:09.4	89.900	0.310	-0.580	1.670
2020/01/31 06:45:09.5	89.920	0.300	-0.590	1.690
2020/01/31 06:45:09.6	89.950	0.280	-0.590	1.720
2020/01/31 06:45:09.7	89.990	0.270	-0.600	1.740
2020/01/31 06:45:09.8	90.020	0.260	-0.600	1.760
2020/01/31 06:45:09.9	90.060	0.240	-0.600	1.770
2020/01/31 06:45:10.0	90.090	0.220	-0.600	1.790
2020/01/31 06:45:10.1	90.130	0.210	-0.600	1.800
2020/01/31 06:45:10.2	90.170	0.190	-0.600	1.810
2020/01/31 06:45:10.3	90.210	0.180	-0.600	1.820
2020/01/31 06:45:10.4	90.260	0.170	-0.600	1.830
2020/01/31 06:45:10.5	90.300	0.150	-0.590	1.840
2020/01/31 06:45:10.6	90.340	0.140	-0.590	1.840
2020/01/31 06:45:10.7	90.380	0.130	-0.580	1.850
2020/01/31 06:45:10.8	90.430	0.110	-0.570	1.850
2020/01/31 06:45:10.9	90.470	0.100	-0.560	1.860
2020/01/31 06:45:11.0	90.510	0.090	-0.540	1.860
2020/01/31 06:45:11.1	90.540	0.080	-0.530	1.860
2020/01/31 06:45:11.2	90.570	0.070	-0.510	1.870
2020/01/31 06:45:11.3	90.610	0.070	-0.490	1.870
2020/01/31 06:45:11.4	90.640	0.060	-0.470	1.870
2020/01/31 06:45:11.5	90.670	0.050	-0.450	1.880
2020/01/31 06:45:11.6	90.690	0.040	-0.430	1.880
2020/01/31 06:45:11.7	90.720	0.040	-0.400	1.880
2020/01/31 06:45:11.8	90.740	0.030	-0.380	1.880
2020/01/31 06:45:11.9	90.750	0.020	-0.350	1.880
2020/01/31 06:45:12.0	90.770	0.010	-0.320	1.880
2020/01/31 06:45:12.1	90.770	0.000	-0.290	1.880
2020/01/31 06:45:12.2	90.790	-0.000	-0.260	1.880
2020/01/31 06:45:12.3	90.790	-0.010	-0.220	1.880
2020/01/31 06:45:12.4	90.790	-0.020	-0.190	1.880
2020/01/31 06:45:12.5	90.780	-0.030	-0.160	1.870
2020/01/31 06:45:12.6	90.770	-0.040	-0.130	1.870
2020/01/31 06:45:12.7	90.760	-0.050	-0.100	1.860
2020/01/31 06:45:12.8	90.740	-0.060	-0.060	1.860
2020/01/31 06:45:12.9	90.720	-0.080	-0.030	1.850
2020/01/31 06:45:13.0	90.700	-0.090	-0.000	1.840
2020/01/31 06:45:13.1	90.670	-0.100	0.020	1.830
2020/01/31 06:45:13.2	90.660	-0.120	0.050	1.820
2020/01/31 06:45:13.3	90.630	-0.130	0.070	1.810
2020/01/31 06:45:13.4	90.600	-0.140	0.100	1.790
2020/01/31 06:45:13.5	90.570	-0.160	0.120	1.780
2020/01/31 06:45:13.6	90.540	-0.170	0.140	1.760
2020/01/31 06:45:13.7	90.500	-0.190	0.160	1.750
2020/01/31 06:45:13.8	90.470	-0.200	0.180	1.730
2020/01/31 06:45:13.9	90.430	-0.210	0.190	1.710
2020/01/31 06:45:14.0	90.400	-0.230	0.200	1.690
2020/01/31 06:45:14.1	90.360	-0.240	0.210	1.670
2020/01/31 06:45:14.2	90.320	-0.250	0.230	1.650
2020/01/31 06:45:14.3	90.280	-0.260	0.230	1.620
2020/01/31 06:45:14.4	90.250	-0.270	0.240	1.600
2020/01/31 06:45:14.5	90.210	-0.280	0.240	1.570
2020/01/31 06:45:14.6	90.180	-0.290	0.240	1.540
2020/01/31 06:45:14.7	90.150	-0.290	0.240	1.510
2020/01/31 06:45:14.8	90.110	-0.290	0.240	1.480
2020/01/31 06:45:14.9	90.080	-0.300	0.240	1.440
2020/01/31 06:45:15.0	90.060	-0.300	0.230	1.400
2020/01/31 06:45:15.1	90.030	-0.300	0.220	1.360
2020/01/31 06:45:15.2	90.010	-0.290	0.210	1.310
2020/01/31 06:45:15.3	89.990	-0.290	0.200	1.260
2020/01/31 06:45:15.4	89.970	-0.280	0.190	1.200
2020/01/31 06:45:15.5	89.950	-0.270	0.170	1.140
2020/01/31 06:45:15.6	89.940	-0.260	0.160	1.080
2020/01/31 06:45:15.7	89.930	-0.250	0.140	1.010
2020/01/31 06:45:15.8	89.920	-0.240	0.120	0.940
2020/01/31 06:45:15.9	89.920	-0.230	0.100	0.860
2020/01/31 06:45:16.0	89.920	-0.210	0.070	0.770
2020/01/31 06:45:16.1	89.920	-0.200	0.050	0.690
2020/01/31 06:45:16.2	89.930	-0.180	0.020	0.590
2020/01/31 06:45:16.3	89.940	-0.160	-0.010	0.490
2020/01/31 06:45:16.4	89.960	-0.140	-0.040	0.390
2020/01/31 06:45:16.5	89.980	-0.120	-0.070	0.280
2020/01/31 06:45:16.6	90.000	-0.100	-0.100	0.170
2020/01/31 06:45:16.7	90.030	-0.080	-0.130	0.060
2020/01/31 06:45:16.8	90.060	-0.060	-0.170	-0.060
2020/01/31 06:45:16.9	90.090	-0.040	-0.200	-0.180
2020/01/31 06:45:17.0	90.130	-0.020	-0.230	-0.300
2020/01/31 06:45:17.1	90.160	-0.000	-0.270	-0.420
2020/01/31 06:45:17.2	90.200	0.020	-0.300	-0.540
2020/01/31 06:45:17.3	90.230	0.040	-0.330	-0.660
2020/01/31 06:45:17.4	90.270	0.060	-0.370	-0.780
2020/01/31 06:45:17.5	90.310	0.070	-0.400	-0.890
2020/01/31 06:45:17.6	90.350	0.090	-0.430	-1.000
2020/01/31 06:45:17.7	90.390	0.110	-0.450	-1.110
2020/01/31 06:45:17.8	90.430	0.120	-0.480	-1.210
2020/01/31 06:45:17.9	90.470	0.140	-0.500	-1.310
2020/01/31 06:45:18.0	90.500	0.150	-0.530	-1.400
2020/01/31 06:45:18.1	90.540	0.160	-0.540	-1.490
2020/01/31 06:45:18.2	90.580	0.170	-0.560	-1.570
2020/01/31 06:45:18.3	90.610	0.180	-0.570	-1.640
2020/01/31 06:45:18.4	90.640	0.190	-0.580	-1.710
2020/01/31 06:45:18.5	90.670	0.190	-0.580	-1.770
2020/01/31 06:45:18.6	90.700	0.200	-0.580	-1.820
2020/01/31 06:45:18.7	90.730	0.200	-0.570	-1.870
2020/01/31 06:45:18.8	90.750	0.190	-0.560	-1.900
2020/01/31 06:45:18.9	90.770	0.190	-0.550	-1.940
2020/01/31 06:45:19.0	90.790	0.180	-0.530	-1.960
2020/01/31 06:45:19.1	90.810	0.170	-0.510	-1.970
2020/01/31 06:45:19.2	90.810	0.150	-0.480	-1.980
2020/01/31 06:45:19.3	90.830	0.140	-0.450	-1.970
2020/01/31 06:45:19.4	90.840	0.120	-0.410	-1.960
2020/01/31 06:45:19.5	90.850	0.100	-0.370	-1.950
2020/01/31 06:45:19.6	90.850	0.070	-0.320	-1.920
2020/01/31 06:45:19.7	90.850	0.050	-0.280	-1.890
2020/01/31 06:45:19.8	90.850	0.020	-0.230	-1.850
2020/01/31 06:45:19.9	90.850	-0.010	-0.180	-1.800
2020/01/31 06:45:20.0	90.840	-0.040	-0.120	-1.740
2020/01/31 06:45:20.1	90.830	-0.070	-0.070	-1.680
2020/01/31 06:45:20.2	90.820	-0.110	-0.010	-1.610
2020/01/31 06:45:20.3	90.810	-0.140	0.050	-1.530
2020/01/31 06:45:20.4	90.790	-0.170	0.100	-1.450
2020/01/31 06:45:20.5	90.770	-0.210	0.160	-1.360
2020/01/31 06:45:20.6	90.750	-0.240	0.210	-1.270
2020/01/31 06:45:20.7	90.730	-0.270	0.260	-1.170
2020/01/31 06:45:20.8	90.700	-0.300	0.310	-1.070
2020/01/31 06:45:20.9	90.680	-0.330	0.360	-0.960
2020/01/31 06:45:21.0	90.650	-0.360	0.410	-0.850
2020/01/31 06:45:21.1	90.620	-0.390	0.450	-0.740
2020/01/31 06:45:21.2	90.590	-0.410	0.480	-0.620
2020/01/31 06:45:21.3	90.560	-0.430	0.520	-0.500
2020/01/31 06:45:21.4	90.530	-0.450	0.540	-0.380
2020/01/31 06:45:21.5	90.500	-0.460	0.560	-0.260
2020/01/31 06:45:21.6	90.460	-0.470	0.580	-0.130
2020/01/31 06:45:21.7	90.430	-0.480	0.590	-0.010
2020/01/31 06:45:21.8	90.400	-0.480	0.590	0.120
2020/01/31 06:45:21.9	90.370	-0.480	0.590	0.240
2020/01/31 06:45:22.0	90.340	-0.470	0.580	0.370
2020/01/31 06:45:22.1	90.320	-0.460	0.560	0.490
2020/01/31 06:45:22.2	90.300	-0.450	0.540	0.610
2020/01/31 06:45:22.3	90.270	-0.430	0.510	0.730
2020/01/31 06:45:22.4	90.250	-0.410	0.470	0.850
2020/01/31 06:45:22.5	90.230	-0.380	0.430	0.960
2020/01/31 06:45:22.6	90.210	-0.350	0.380	1.070
2020/01/31 06:45:22.7	90.200	-0.320	0.330	1.180
2020/01/31 06:45:22.8	90.190	-0.280	0.270	1.280
2020/01/31 06:45:22.9	90.190	-0.250	0.200	1.380
2020/01/31 06:45:23.0	90.180	-0.200	0.130	1.470
2020/01/31 06:45:23.1	90.190	-0.160	0.060	1.550
2020/01/31 06:45:23.2	90.200	-0.110	-0.020	1.640
2020/01/31 06:45:23.3	90.210	-0.060	-0.100	1.720
2020/01/31 06:45:23.4	90.220	-0.010	-0.190	1.790
2020/01/31 06:45:23.5	90.240	0.040	-0.270	1.850
2020/01/31 06:45:23.6	90.260	0.090	-0.360	1.910
2020/01/31 06:45:23.7	90.290	0.140	-0.450	1.960
2020/01/31 06:45:23.8	90.320	0.190	-0.540	2.010
2020/01/31 06:45:23.9	90.350	0.240	-0.620	2.060
2020/01/31 06:45:24.0	90.380	0.300	-0.710	2.100
2020/01/31 06:45:24.1	90.420	0.350	-0.790	2.130
2020/01/31 06:45:24.2	90.450	0.390	-0.870	2.160
2020/01/31 06:45:24.3	90.480	0.440	-0.940	2.190
2020/01/31 06:45:24.4	90.520	0.480	-1.010	2.210
2020/01/31 06:45:24.5	90.560	0.530	-1.070	2.230
2020/01/31 06:45:24.6	90.600	0.570	-1.120	2.250
2020/01/31 06:45:24.7	90.630	0.600	-1.170	2.270
2020/01/31 06:45:24.8	90.670	0.640	-1.210	2.280
2020/01/31 06:45:24.9	90.700	0.660	-1.250	2.290
2020/01/31 06:45:25.0	90.730	0.690	-1.270	2.290
2020/01/31 06:45:25.1	90.760	0.710	-1.290	2.300
2020/01/31 06:45:25.2	90.780	0.730	-1.300	2.300
2020/01/31 06:45:25.3	90.810	0.740	-1.300	2.300
2020/01/31 06:45:25.4	90.830	0.750	-1.290	2.290
2020/01/31 06:45:25.5	90.840	0.760	-1.270	2.290
2020/01/31 06:45:25.6	90.860	0.760	-1.250	2.280
2020/01/31 06:45:25.7	90.870	0.760	-1.220	2.260
2020/01/31 06:45:25.8	90.880	0.750	-1.180	2.250
2020/01/31 06:45:25.9	90.890	0.740	-1.130	2.230
2020/01/31 06:45:26.0	90.900	0.720	-1.080	2.220
2020/01/31 06:45:26.1	90.900	0.700	-1.020	2.190
2020/01/31 06:45:26.2	90.910	0.680	-0.940	2.170
2020/01/31 06:45:26.3	90.910	0.650	-0.870	2.150
2020/01/31 06:45:26.4	90.910	0.620	-0.800	2.120
2020/01/31 06:45:26.5	90.910	0.590	-0.720	2.090
2020/01/31 06:45:26.6	90.900	0.550	-0.630	2.060
2020/01/31 06:45:26.7	90.900	0.510	-0.550	2.030
2020/01/31 06:45:26.8	90.890	0.470	-0.460	2.000
2020/01/31 06:45:26.9	90.880	0.430	-0.370	1.960
2020/01/31 06:45:27.0	90.870	0.380	-0.280	1.930
2020/01/31 06:45:27.1	90.850	0.330	-0.180	1.900
2020/01/31 06:45:27.2	90.840	0.290	-0.090	1.860
2020/01/31 06:45:27.3	90.830	0.240	0.010	1.830
2020/01/31 06:45:27.4	90.810	0.190	0.100	1.800
2020/01/31 06:45:27.5	90.780	0.140	0.190	1.770
2020/01/31 06:45:27.6	90.760	0.090	0.270	1.750
2020/01/31 06:45:27.7	90.730	0.040	0.360	1.720
2020/01/31 06:45:27.8	90.700	-0.010	0.440	1.700
2020/01/31 06:45:27.9	90.660	-0.060	0.510	1.680
2020/01/31 06:45:28.0	90.630	-0.110	0.590	1.660
2020/01/31 06:45:28.1	90.590	-0.150	0.650	1.640
2020/01/31 06:45:28.2	90.550	-0.200	0.710	1.620
2020/01/31 06:45:28.3	90.510	-0.240	0.770	1.600
2020/01/31 06:45:28.4	90.470	-0.280	0.820	1.580
2020/01/31 06:45:28.5	90.430	-0.320	0.860	1.570
2020/01/31 06:45:28.6	90.380	-0.360	0.890	1.550
2020/01/31 06:45:28.7	90.340	-0.390	0.920	1.520
2020/01/31 06:45:28.8	90.300	-0.420	0.940	1.500
2020/01/31 06:45:28.9	90.260	-0.450	0.950	1.470
2020/01/31 06:45:29.0	90.220	-0.470	0.950	1.440
2020/01/31 06:45:29.1	90.180	-0.490	0.950	1.410
2020/01/31 06:45:29.2	90.160	-0.510	0.940	1.370
2020/01/31 06:45:29.3	90.120	-0.530	0.910	1.320
2020/01/31 06:45:29.4	90.100	-0.540	0.890	1.270
2020/01/31 06:45:29.5	90.070	-0.550	0.850	1.220
2020/01/31 06:45:29.6	90.060	-0.560	0.800	1.150
2020/01/31 06:45:29.7	90.040	-0.560	0.750	1.080
2020/01/31 06:45:29.8	90.030	-0.560	0.690	1.010
2020/01/31 06:45:29.9	90.030	-0.560	0.630	0.930
2020/01/31 06:45:30.0	90.020	-0.560	0.560	0.840
2020/01/31 06:45:30.1	90.030	-0.550	0.490	0.750
2020/01/31 06:45:30.2	90.030	-0.540	0.410	0.640
2020/01/31 06:45:30.3	90.040	-0.530	0.320	0.540
2020/01/31 06:45:30.4	90.060	-0.520	0.240	0.440
2020/01/31 06:45:30.5	90.080	-0.500	0.150	0.330
2020/01/31 06:45:30.6	90.110	-0.480	0.070	0.220
2020/01/31 06:45:30.7	90.140	-0.460	-0.020	0.110
2020/01/31 06:45:30.8	90.170	-0.440	-0.110	-0.010
2020/01/31 06:45:30.9	90.200	-0.420	-0.200	-0.120
2020/01/31 06:45:31.0	90.240	-0.400	-0.280	-0.230
2020/01/31 06:45:31.1	90.280	-0.380	-0.370	-0.340
2020/01/31 06:45:31.2	90.320	-0.350	-0.450	-0.450
2020/01/31 06:45:31.3	90.360	-0.330	-0.530	-0.560
2020/01/31 06:45:31.4	90.400	-0.300	-0.600	-0.660
2020/01/31 06:45:31.5	90.450	-0.280	-0.670	-0.760
2020/01/31 06:45:31.6	90.490	-0.250	-0.730	-0.860
2020/01/31 06:45:31.7	90.540	-0.230	-0.790	-0.950
2020/01/31 06:45:31.8	90.580	-0.200	-0.840	-1.030
2020/01/31 06:45:31.9	90.620	-0.180	-0.880	-1.110
2020/01/31 06:45:32.0	90.660	-0.160	-0.920	-1.190
2020/01/31 06:45:32.1	90.700	-0.130	-0.950	-1.250
2020/01/31 06:45:32.2	90.730	-0.110	-0.970	-1.310
2020/01/31 06:45:32.3	90.770	-0.090	-0.980	-1.360
2020/01/31 06:45:32.4	90.800	-0.080	-0.990	-1.400
2020/01/31 06:45:32.5	90.830	-0.060	-0.990	-1.440
2020/01/31 06:45:32.6	90.860	-0.040	-0.980	-1.470
2020/01/31 06:45:32.7	90.880	-0.030	-0.960	-1.490
2020/01/31 06:45:32.8	90.910	-0.020	-0.940	-1.510
2020/01/31 06:45:32.9	90.920	-0.010	-0.910	-1.520
2020/01/31 06:45:33.0	90.940	-0.000	-0.870	-1.520
2020/01/31 06:45:33.1	90.950	-0.000	-0.820	-1.510
2020/01/31 06:45:33.2	90.950	0.000	-0.770	-1.500
2020/01/31 06:45:33.3	90.960	0.000	-0.710	-1.480
2020/01/31 06:45:33.4	90.960	0.000	-0.650	-1.460
2020/01/31 06:45:33.5	90.960	-0.000	-0.580	-1.430
2020/01/31 06:45:33.6	90.950	-0.010	-0.510	-1.390
2020/01/31 06:45:33.7	90.940	-0.020	-0.430	-1.350
2020/01/31 06:45:33.8	90.930	-0.020	-0.360	-1.310
2020/01/31 06:45:33.9	90.920	-0.040	-0.280	-1.260
2020/01/31 06:45:34.0	90.900	-0.050	-0.200	-1.200
2020/01/31 06:45:34.1	90.880	-0.060	-0.120	-1.140
2020/01/31 06:45:34.2	90.850	-0.080	-0.040	-1.080
2020/01/31 06:45:34.3	90.820	-0.090	0.040	-1.010
2020/01/31 06:45:34.4	90.800	-0.110	0.120	-0.940
2020/01/31 06:45:34.5	90.770	-0.120	0.200	-0.870
2020/01/31 06:45:34.6	90.740	-0.140	0.270	-0.800
2020/01/31 06:45:34.7	90.710	-0.160	0.340	-0.720
2020/01/31 06:45:34.8	90.680	-0.170	0.400	-0.640
2020/01/31 06:45:34.9	90.650	-0.190	0.460	-0.560
2020/01/31 06:45:35.0	90.620	-0.200	0.520	-0.480
2020/01/31 06:45:35.1	90.590	-0.220	0.560	-0.390
2020/01/31 06:45:35.2	90.560	-0.230	0.600	-0.300
2020/01/31 06:45:35.3	90.530	-0.240	0.640	-0.220
2020/01/31 06:45:35.4	90.500	-0.250	0.660	-0.130
2020/01/31 06:45:35.5	90.470	-0.250	0.680	-0.040
2020/01/31 06:45:35.6	90.440	-0.260	0.680	0.050
2020/01/31 06:45:35.7	90.410	-0.260	0.680	0.130
2020/01/31 06:45:35.8	90.380	-0.260	0.670	0.220
2020/01/31 06:45:35.9	90.350	-0.250	0.660	0.300
2020/01/31 06:45:36.0	90.330	-0.240	0.630	0.390
2020/01/31 06:45:36.1	90.300	-0.230	0.590	0.470
2020/01/31 06:45:36.2	90.280	-0.220	0.550	0.560
2020/01/31 06:45:36.3	90.250	-0.200	0.500	0.640
2020/01/31 06:45:36.4	90.230	-0.190	0.440	0.720
2020/01/31 06:45:36.5	90.210	-0.160	0.380	0.800
2020/01/31 06:45:36.6	90.180	-0.140	0.310	0.880
2020/01/31 06:45:36.7	90.160	-0.110	0.230	0.950
2020/01/31 06:45:36.8	90.140	-0.080	0.150	1.020
2020/01/31 06:45:36.9	90.120	-0.050	0.070	1.090
2020/01/31 06:45:37.0	90.110	-0.020	-0.020	1.160
2020/01/31 06:45:37.1	90.090	0.010	-0.100	1.220
2020/01/31 06:45:37.2	90.080	0.050	-0.190	1.280
2020/01/31 06:45:37.3	90.060	0.090	-0.280	1.340
2020/01/31 06:45:37.4	90.050	0.120	-0.370	1.390
2020/01/31 06:45:37.5	90.040	0.160	-0.460	1.440
2020/01/31 06:45:37.6	90.040	0.200	-0.540	1.480
2020/01/31 06:45:37.7	90.030	0.230	-0.620	1.520
2020/01/31 06:45:37.8	90.030	0.270	-0.700	1.560
2020/01/31 06:45:37.9	90.030	0.310	-0.770	1.590
2020/01/31 06:45:38.0	90.030	0.340	-0.840	1.630
2020/01/31 06:45:38.1	90.030	0.370	-0.900	1.650
2020/01/31 06:45:38.2	90.030	0.400	-0.960	1.680
2020/01/31 06:45:38.3	90.040	0.430	-1.000	1.700
2020/01/31 06:45:38.4	90.050	0.460	-1.050	1.720
2020/01/31 06:45:38.5	90.060	0.480	-1.080	1.740
2020/01/31 06:45:38.6	90.070	0.510	-1.110	1.750
2020/01/31 06:45:38.7	90.090	0.530	-1.130	1.760
2020/01/31 06:45:38.8	90.100	0.540	-1.140	1.770
2020/01/31 06:45:38.9	90.120	0.560	-1.150	1.780
2020/01/31 06:45:39.0	90.140	0.570	-1.150	1.790
2020/01/31 06:45:39.1	90.150	0.570	-1.140	1.800
2020/01/31 06:45:39.2	90.170	0.580	-1.120	1.800
2020/01/31 06:45:39.3	90.200	0.580	-1.100	1.800
2020/01/31 06:45:39.4	90.220	0.580	-1.070	1.800
2020/01/31 06:45:39.5	90.240	0.580	-1.040	1.800
2020/01/31 06:45:39.6	90.260	0.570	-1.000	1.800
2020/01/31 06:45:39.7	90.280	0.560	-0.960	1.790
2020/01/31 06:45:39.8	90.310	0.550	-0.910	1.790
2020/01/31 06:45:39.9	90.330	0.540	-0.860	1.780
2020/01/31 06:45:40.0	90.350	0.520	-0.800	1.770
2020/01/31 06:45:40.1	90.370	0.500	-0.750	1.760
2020/01/31 06:45:40.2	90.390	0.480	-0.680	1.750
2020/01/31 06:45:40.3	90.410	0.460	-0.620	1.740
2020/01/31 06:45:40.4	90.440	0.440	-0.560	1.730
2020/01/31 06:45:40.5	90.460	0.410	-0.490	1.720
2020/01/31 06:45:40.6	90.470	0.390	-0.420	1.710
2020/01/31 06:45:40.7	90.490	0.360	-0.360	1.700
2020/01/31 06:45:40.8	90.510	0.340	-0.290	1.680
2020/01/31 06:45:40.9	90.520	0.310	-0.220	1.670
2020/01/31 06:45:41.0	90.540	0.290	-0.160	1.660
2020/01/31 06:45:41.1	90.550	0.260	-0.090	1.640
2020/01/31 06:45:41.2	90.560	0.230	-0.020	1.630
2020/01/31 06:45:41.3	90.560	0.210	0.040	1.620
2020/01/31 06:45:41.4	90.570	0.180	0.100	1.610
2020/01/31 06:45:41.5	90.570	0.160	0.160	1.590
2020/01/31 06:45:41.6	90.580	0.130	0.210	1.580
2020/01/31 06:45:41.7	90.570	0.110	0.270	1.560
2020/01/31 06:45:41.8	90.570	0.080	0.320	1.550
2020/01/31 06:45:41.9	90.570	0.060	0.370	1.530
2020/01/31 06:45:42.0	90.560	0.040	0.410	1.510
2020/01/31 06:45:42.1	90.550	0.020	0.460	1.490
2020/01/31 06:45:42.2	90.560	-0.000	0.500	1.470
2020/01/31 06:45:42.3	90.540	-0.020	0.530	1.450
2020/01/31 06:45:42.4	90.530	-0.040	0.570	1.420
2020/01/31 06:45:42.5	90.510	-0.060	0.600	1.400
2020/01/31 06:45:42.6	90.500	-0.080	0.630	1.370
2020/01/31 06:45:42.7	90.480	-0.100	0.650	1.340
2020/01/31 06:45:42.8	90.460	-0.120	0.680	1.310
2020/01/31 06:45:42.9	90.440	-0.140	0.700	1.270
2020/01/31 06:45:43.0	90.410	-0.150	0.710	1.240
2020/01/31 06:45:43.1	90.390	-0.170	0.730	1.200
2020/01/31 06:45:43.2	90.370	-0.190	0.740	1.160
2020/01/31 06:45:43.3	90.340	-0.200	0.750	1.120
2020/01/31 06:45:43.4	90.310	-0.220	0.750	1.080
2020/01/31 06:45:43.5	90.290	-0.240	0.750	1.030
2020/01/31 06:45:43.6	90.260	-0.250	0.750	0.980
2020/01/31 06:45:43.7	90.230	-0.270	0.740	0.940
2020/01/31 06:45:43.8	90.200	-0.280	0.730	0.890
2020/01/31 06:45:43.9	90.170	-0.300	0.710	0.840
2020/01/31 06:45:44.0	90.140	-0.310	0.690	0.790
2020/01/31 06:45:44.1	90.110	-0.320	0.660	0.730
2020/01/31 06:45:44.2	90.080	-0.340	0.630	0.680
2020/01/31 06:45:44.3	90.050	-0.350	0.600	0.620
2020/01/31 06:45:44.4	90.020	-0.360	0.560	0.570
2020/01/31 06:45:44.5	90.000	-0.370	0.510	0.520
2020/01/31 06:45:44.6	89.970	-0.380	0.460	0.460
2020/01/31 06:45:44.7	89.950	-0.380	0.410	0.410
2020/01/31 06:45:44.8	89.930	-0.390	0.360	0.350
2020/01/31 06:45:44.9	89.910	-0.390	0.290	0.300
2020/01/31 06:45:45.0	89.890	-0.390	0.230	0.250
2020/01/31 06:45:45.1	89.880	-0.400	0.160	0.190
2020/01/31 06:45:45.2	89.880	-0.390	0.090	0.140
2020/01/31 06:45:45.3	89.870	-0.390	0.020	0.090
2020/01/31 06:45:45.4	89.860	-0.390	-0.060	0.030
2020/01/31 06:45:45.5	89.860	-0.380	-0.130	-0.020
2020/01/31 06:45:45.6	89.860	-0.380	-0.210	-0.070
2020/01/31 06:45:45.7	89.860	-0.370	-0.290	-0.120
2020/01/31 06:45:45.8	89.860	-0.360	-0.370	-0.170
2020/01/31 06:45:45.9	89.860	-0.340	-0.450	-0.220
2020/01/31 06:45:46.0	89.870	-0.330	-0.520	-0.270
2020/01/31 06:45:46.1	89.880	-0.310	-0.600	-0.320
2020/01/31 06:45:46.2	89.890	-0.300	-0.680	-0.370
2020/01/31 06:45:46.3	89.910	-0.280	-0.750	-0.420
2020/01/31 06:45:46.4	89.920	-0.260	-0.820	-0.460
2020/01/31 06:45:46.5	89.930	-0.240	-0.890	-0.510
2020/01/31 06:45:46.6	89.950	-0.220	-0.950	-0.550
2020/01/31 06:45:46.7	89.960	-0.200	-1.010	-0.590
2020/01/31 06:45:46.8	89.980	-0.170	-1.060	-0.640
2020/01/31 06:45:46.9	90.000	-0.150	-1.110	-0.680
2020/01/31 06:45:47.0	90.010	-0.130	-1.150	-0.710
2020/01/31 06:45:47.1	90.030	-0.100	-1.180	-0.750
2020/01/31 06:45:47.2	90.030	-0.080	-1.210	-0.780
2020/01/31 06:45:47.3	90.050	-0.050	-1.230	-0.820
2020/01/31 06:45:47.4	90.060	-0.030	-1.250	-0.850
2020/01/31 06:45:47.5	90.080	-0.000	-1.260	-0.870
2020/01/31 06:45:47.6	90.100	0.020	-1.260	-0.900
2020/01/31 06:45:47.7	90.110	0.050	-1.260	-0.920
2020/01/31 06:45:47.8	90.120	0.070	-1.250	-0.930
2020/01/31 06:45:47.9	90.130	0.090	-1.230	-0.950
2020/01/31 06:45:48.0	90.140	0.120	-1.200	-0.960
2020/01/31 06:45:48.1	90.150	0.140	-1.170	-0.960
2020/01/31 06:45:48.2	90.160	0.150	-1.130	-0.960
2020/01/31 06:45:48.3	90.170	0.170	-1.080	-0.960
2020/01/31 06:45:48.4	90.170	0.190	-1.030	-0.960
2020/01/31 06:45:48.5	90.180	0.200	-0.970	-0.940
2020/01/31 06:45:48.6	90.180	0.210	-0.910	-0.930
2020/01/31 06:45:48.7	90.190	0.220	-0.840	-0.910
2020/01/31 06:45:48.8	90.190	0.230	-0.770	-0.890
2020/01/31 06:45:48.9	90.190	0.230	-0.690	-0.860
2020/01/31 06:45:49.0	90.200	0.240	-0.610	-0.830
2020/01/31 06:45:49.1	90.200	0.240	-0.530	-0.790
2020/01/31 06:45:49.2	90.200	0.240	-0.440	-0.750
2020/01/31 06:45:49.3	90.200	0.230	-0.350	-0.710
2020/01/31 06:45:49.4	90.210	0.230	-0.270	-0.660
2020/01/31 06:45:49.5	90.210	0.220	-0.180	-0.610
2020/01/31 06:45:49.6	90.210	0.210	-0.100	-0.550
2020/01/31 06:45:49.7	90.220	0.200	-0.010	-0.490
2020/01/31 06:45:49.8	90.220	0.190	0.070	-0.430
2020/01/31 06:45:49.9	90.220	0.180	0.140	-0.370
2020/01/31 06:45:50.0	90.230	0.160	0.220	-0.300
2020/01/31 06:45:50.1	90.230	0.150	0.290	-0.220
2020/01/31 06:45:50.2	90.240	0.130	0.350	-0.140
2020/01/31 06:45:50.3	90.240	0.120	0.410	-0.060
2020/01/31 06:45:50.4	90.240	0.100	0.470	0.020
2020/01/31 06:45:50.5	90.240	0.080	0.520	0.110
2020/01/31 06:45:50.6	90.250	0.060	0.570	0.200
2020/01/31 06:45:50.7	90.250	0.050	0.610	0.290
2020/01/31 06:45:50.8	90.250	0.030	0.640	0.380
2020/01/31 06:45:50.9	90.250	0.010	0.670	0.480
2020/01/31 06:45:51.0	90.250	-0.010	0.690	0.580
2020/01/31 06:45:51.1	90.250	-0.030	0.700	0.680
2020/01/31 06:45:51.2	90.250	-0.040	0.720	0.780
2020/01/31 06:45:51.3	90.250	-0.060	0.720	0.890
2020/01/31 06:45:51.4	90.250	-0.080	0.720	0.990
2020/01/31 06:45:51.5	90.240	-0.090	0.710	1.080
2020/01/31 06:45:51.6	90.240	-0.110	0.690	1.180
2020/01/31 06:45:51.7	90.240	-0.120	0.680	1.280
2020/01/31 06:45:51.8	90.230	-0.140	0.650	1.370
2020/01/31 06:45:51.9	90.230	-0.150	0.630	1.460
2020/01/31 06:45:52.0	90.230	-0.160	0.600	1.550
2020/01/31 06:45:52.1	90.220	-0.180	0.560	1.630
2020/01/31 06:45:52.2	90.230	-0.190	0.520	1.710
2020/01/31 06:45:52.3	90.230	-0.200	0.480	1.780
2020/01/31 06:45:52.4	90.230	-0.210	0.440	1.850
2020/01/31 06:45:52.5	90.230	-0.220	0.400	1.920
2020/01/31 06:45:52.6	90.230	-0.230	0.360	1.980
2020/01/31 06:45:52.7	90.230	-0.240	0.320	2.030
2020/01/31 06:45:52.8	90.230	-0.250	0.270	2.080
2020/01/31 06:45:52.9	90.230	-0.260	0.230	2.120
2020/01/31 06:45:53.0	90.230	-0.270	0.180	2.160
2020/01/31 06:45:53.1	90.230	-0.280	0.140	2.190
2020/01/31 06:45:53.2	90.230	-0.280	0.100	2.220
2020/01/31 06:45:53.3	90.230	-0.290	0.060	2.250
2020/01/31 06:45:53.4	90.230	-0.290	0.020	2.270
2020/01/31 06:45:53.5	90.230	-0.300	-0.020	2.280
2020/01/31 06:45:53.6	90.230	-0.300	-0.050	2.300
2020/01/31 06:45:53.7	90.230	-0.300	-0.090	2.300
2020/01/31 06:45:53.8	90.220	-0.300	-0.120	2.310
2020/01/31 06:45:53.9	90.220	-0.300	-0.150	2.310
2020/01/31 06:45:54.0	90.220	-0.300	-0.180	2.310
2020/01/31 06:45:54.1	90.210	-0.300	-0.200	2.310
2020/01/31 06:45:54.2	90.200	-0.290	-0.230	2.300
2020/01/31 06:45:54.3	90.190	-0.290	-0.250	2.300
2020/01/31 06:45:54.4	90.180	-0.280	-0.270	2.290
2020/01/31 06:45:54.5	90.170	-0.270	-0.290	2.270
2020/01/31 06:45:54.6	90.160	-0.260	-0.300	2.260
2020/01/31 06:45:54.7	90.150	-0.250	-0.320	2.240
2020/01/31 06:45:54.8	90.130	-0.240	-0.330	2.220
2020/01/31 06:45:54.9	90.120	-0.220	-0.340	2.200
2020/01/31 06:45:55.0	90.100	-0.200	-0.360	2.180
2020/01/31 06:45:55.1	90.080	-0.190	-0.370	2.150
2020/01/31 06:45:55.2	90.060	-0.160	-0.370	2.130
2020/01/31 06:45:55.3	90.040	-0.140	-0.380	2.090
2020/01/31 06:45:55.4	90.020	-0.120	-0.390	2.060
2020/01/31 06:45:55.5	90.000	-0.100	-0.410	2.020
2020/01/31 06:45:55.6	89.980	-0.070	-0.420	1.980
2020/01/31 06:45:55.7	89.950	-0.040	-0.430	1.930
2020/01/31 06:45:55.8	89.930	-0.020	-0.440	1.880
2020/01/31 06:45:55.9	89.910	0.010	-0.450	1.830
2020/01/31 06:45:56.0	89.890	0.040	-0.460	1.770
2020/01/31 06:45:56.1	89.870	0.070	-0.470	1.710
2020/01/31 06:45:56.2	89.860	0.110	-0.490	1.650
2020/01/31 06:45:56.3	89.840	0.140	-0.500	1.580
2020/01/31 06:45:56.4	89.820	0.170	-0.520	1.510
2020/01/31 06:45:56.5	89.810	0.200	-0.530	1.430
2020/01/31 06:45:56.6	89.790	0.230	-0.550	1.350
2020/01/31 06:45:56.7	89.780	0.260	-0.560	1.270
2020/01/31 06:45:56.8	89.760	0.300	-0.580	1.190
2020/01/31 06:45:56.9	89.750	0.330	-0.600	1.100
2020/01/31 06:45:57.0	89.740	0.360	-0.610	1.020
2020/01/31 06:45:57.1	89.730	0.390	-0.630	0.930
2020/01/31 06:45:57.2	89.720	0.420	-0.640	0.830
2020/01/31 06:45:57.3	89.710	0.440	-0.660	0.740
2020/01/31 06:45:57.4	89.710	0.470	-0.670	0.640
2020/01/31 06:45:57.5	89.710	0.500	-0.680	0.550
2020/01/31 06:45:57.6	89.710	0.520	-0.700	0.450
2020/01/31 06:45:57.7	89.710	0.540	-0.700	0.360
2020/01/31 06:45:57.8	89.710	0.560	-0.710	0.260
2020/01/31 06:45:57.9	89.720	0.580	-0.720	0.160
2020/01/31 06:45:58.0	89.730	0.600	-0.720	0.070
2020/01/31 06:45:58.1	89.740	0.610	-0.720	-0.020
2020/01/31 06:45:58.2	89.740	0.620	-0.720	-0.110
2020/01/31 06:45:58.3	89.750	0.640	-0.710	-0.210
2020/01/31 06:45:58.4	89.770	0.640	-0.710	-0.290
2020/01/31 06:45:58.5	89.780	0.650	-0.700	-0.380
2020/01/31 06:45:58.6	89.800	0.650	-0.690	-0.460
2020/01/31 06:45:58.7	89.820	0.660	-0.670	-0.540
2020/01/31 06:45:58.8	89.830	0.650	-0.650	-0.610
2020/01/31 06:45:58.9	89.850	0.650	-0.630	-0.680
2020/01/31 06:45:59.0	89.870	0.650	-0.610	-0.750
2020/01/31 06:45:59.1	89.890	0.640	-0.590	-0.820
2020/01/31 06:45:59.2	89.900	0.630	-0.560	-0.870
2020/01/31 06:45:59.3	89.920	0.620	-0.530	-0.930
2020/01/31 06:45:59.4	89.940	0.600	-0.500	-0.980
2020/01/31 06:45:59.5	89.950	0.590	-0.470	-1.020
2020/01/31 06:45:59.6	89.970	0.570	-0.430	-1.070
2020/01/31 06:45:59.7	89.990	0.550	-0.400	-1.100
2020/01/31 06:45:59.8	90.000	0.530	-0.360	-1.130
2020/01/31 06:45:59.9	90.020	0.510	-0.320	-1.160
2020/01/31 06:46:00.0	90.030	0.480	-0.280	-1.180
2020/01/31 06:46:00.1	90.050	0.460	-0.250	-1.200
2020/01/31 06:46:00.2	90.060	0.430	-0.210	-1.220
2020/01/31 06:46:00.3	90.070	0.400	-0.170	-1.230
2020/01/31 06:46:00.4	90.080	0.370	-0.130	-1.230
2020/01/31 06:46:00.5	90.090	0.340	-0.090	-1.230
2020/01/31 06:46:00.6	90.100	0.310	-0.050	-1.230
2020/01/31 06:46:00.7	90.110	0.280	-0.010	-1.220
2020/01/31 06:46:00.8	90.120	0.240	0.020	-1.200
2020/01/31 06:46:00.9	90.130	0.210	0.060	-1.180
2020/01/31 06:46:01.0	90.130	0.180	0.100	-1.160
2020/01/31 06:46:01.1	90.140	0.140	0.130	-1.130
2020/01/31 06:46:01.2	90.150	0.110	0.170	-1.090
2020/01/31 06:46:01.3	90.150	0.080	0.200	-1.060
2020/01/31 06:46:01.4	90.150	0.040	0.240	-1.010
2020/01/31 06:46:01.5	90.160	0.010	0.270	-0.970
2020/01/31 06:46:01.6	90.160	-0.030	0.300	-0.920
2020/01/31 06:46:01.7	90.160	-0.060	0.330	-0.870
2020/01/31 06:46:01.8	90.160	-0.100	0.360	-0.810
2020/01/31 06:46:01.9	90.160	-0.130	0.390	-0.750
2020/01/31 06:46:02.0	90.160	-0.170	0.410	-0.680
2020/01/31 06:46:02.1	90.160	-0.200	0.440	-0.610
2020/01/31 06:46:02.2	90.170	-0.230	0.460	-0.540
2020/01/31 06:46:02.3	90.170	-0.270	0.480	-0.470
2020/01/31 06:46:02.4	90.170	-0.300	0.500	-0.390
2020/01/31 06:46:02.5	90.170	-0.330	0.510	-0.310
2020/01/31 06:46:02.6	90.170	-0.360	0.530	-0.230
2020/01/31 06:46:02.7	90.170	-0.390	0.540	-0.150
2020/01/31 06:46:02.8	90.170	-0.420	0.550	-0.060
2020/01/31 06:46:02.9	90.170	-0.450	0.560	0.030
2020/01/31 06:46:03.0	90.170	-0.480	0.570	0.120
2020/01/31 06:46:03.1	90.170	-0.510	0.570	0.210
2020/01/31 06:46:03.2	90.180	-0.530	0.570	0.300
2020/01/31 06:46:03.3	90.180	-0.560	0.580	0.390
2020/01/31 06:46:03.4	90.180	-0.580	0.570	0.490
2020/01/31 06:46:03.5	90.180	-0.600	0.570	0.580
2020/01/31 06:46:03.6	90.180	-0.620	0.560	0.680
2020/01/31 06:46:03.7	90.180	-0.640	0.560	0.770
2020/01/31 06:46:03.8	90.180	-0.660	0.540	0.870
2020/01/31 06:46:03.9	90.170	-0.680	0.530	0.960
2020/01/31 06:46:04.0	90.170	-0.690	0.510	1.060
2020/01/31 06:46:04.1	90.170	-0.700	0.490	1.150
2020/01/31 06:46:04.2	90.170	-0.710	0.470	1.250
2020/01/31 06:46:04.3	90.170	-0.720	0.450	1.340
2020/01/31 06:46:04.4	90.160	-0.720	0.420	1.430
2020/01/31 06:46:04.5	90.160	-0.720	0.390	1.520
2020/01/31 06:46:04.6	90.150	-0.720	0.350	1.600
2020/01/31 06:46:04.7	90.140	-0.720	0.320	1.690
2020/01/31 06:46:04.8	90.130	-0.710	0.280	1.770
2020/01/31 06:46:04.9	90.120	-0.710	0.240	1.840
2020/01/31 06:46:05.0	90.110	-0.700	0.190	1.920
2020/01/31 06:46:05.1	90.100	-0.680	0.150	1.990
2020/01/31 06:46:05.2	90.090	-0.670	0.100	2.050
2020/01/31 06:46:05.3	90.080	-0.650	0.050	2.110
2020/01/31 06:46:05.4	90.070	-0.630	-0.000	2.170
2020/01/31 06:46:05.5	90.060	-0.610	-0.050	2.220
2020/01/31 06:46:05.6	90.050	-0.590	-0.110	2.260
2020/01/31 06:46:05.7	90.040	-0.570	-0.160	2.300
2020/01/31 06:46:05.8	90.030	-0.540	-0.210	2.340
2020/01/31 06:46:05.9	90.020	-0.520	-0.260	2.370
2020/01/31 06:46:06.0	90.020	-0.490	-0.310	2.390
2020/01/31 06:46:06.1	90.010	-0.460	-0.370	2.410
2020/01/31 06:46:06.2	90.010	-0.430	-0.410	2.420
2020/01/31 06:46:06.3	90.000	-0.400	-0.460	2.430
2020/01/31 06:46:06.4	90.000	-0.370	-0.510	2.430
2020/01/31 06:46:06.5	90.000	-0.340	-0.550	2.430
2020/01/31 06:46:06.6	90.000	-0.310	-0.600	2.420
2020/01/31 06:46:06.7	90.000	-0.270	-0.630	2.410
2020/01/31 06:46:06.8	90.000	-0.240	-0.670	2.390
2020/01/31 06:46:06.9	90.010	-0.210	-0.710	2.370
2020/01/31 06:46:07.0	90.010	-0.180	-0.740	2.350
2020/01/31 06:46:07.1	90.020	-0.150	-0.770	2.330
2020/01/31 06:46:07.2	90.030	-0.120	-0.800	2.300
2020/01/31 06:46:07.3	90.040	-0.090	-0.820	2.260
2020/01/31 06:46:07.4	90.040	-0.060	-0.840	2.230
2020/01/31 06:46:07.5	90.050	-0.030	-0.850	2.190
2020/01/31 06:46:07.6	90.060	0.000	-0.860	2.150
2020/01/31 06:46:07.7	90.080	0.030	-0.870	2.110
2020/01/31 06:46:07.8	90.090	0.060	-0.880	2.060
2020/01/31 06:46:07.9	90.100	0.080	-0.880	2.020
2020/01/31 06:46:08.0	90.110	0.110	-0.880	1.970
2020/01/31 06:46:08.1	90.130	0.130	-0.880	1.920
2020/01/31 06:46:08.2	90.140	0.160	-0.870	1.870
2020/01/31 06:46:08.3	90.150	0.180	-0.860	1.810
2020/01/31 06:46:08.4	90.170	0.210	-0.850	1.760
2020/01/31 06:46:08.5	90.180	0.230	-0.830	1.700
2020/01/31 06:46:08.6	90.190	0.250	-0.820	1.640
2020/01/31 06:46:08.7	90.210	0.270	-0.800	1.580
2020/01/31 06:46:08.8	90.220	0.290	-0.780	1.520
2020/01/31 06:46:08.9	90.230	0.310	-0.760	1.460
2020/01/31 06:46:09.0	90.240	0.330	-0.740	1.390
2020/01/31 06:46:09.1	90.250	0.350	-0.710	1.320
2020/01/31 06:46:09.2	90.260	0.370	-0.680	1.260
2020/01/31 06:46:09.3	90.270	0.390	-0.650	1.190
2020/01/31 06:46:09.4	90.270	0.410	-0.630	1.120
2020/01/31 06:46:09.5	90.280	0.420	-0.600	1.050
2020/01/31 06:46:09.6	90.280	0.440	-0.570	0.980
2020/01/31 06:46:09.7	90.280	0.450	-0.540	0.910
2020/01/31 06:46:09.8	90.280	0.470	-0.510	0.840
2020/01/31 06:46:09.9	90.280	0.480	-0.480	0.770
2020/01/31 06:46:10.0	90.280	0.490	-0.450	0.700
2020/01/31 06:46:10.1	90.280	0.500	-0.410	0.620
2020/01/31 06:46:10.2	90.270	0.510	-0.380	0.550
2020/01/31 06:46:10.3	90.270	0.520	-0.350	0.480
2020/01/31 06:46:10.4	90.260	0.520	-0.310	0.420
2020/01/31 06:46:10.5	90.250	0.520	-0.280	0.350
2020/01/31 06:46:10.6	90.240	0.530	-0.240	0.280
2020/01/31 06:46:10.7	90.220	0.530	-0.200	0.220
2020/01/31 06:46:10.8	90.210	0.520	-0.170	0.160
2020/01/31 06:46:10.9	90.190	0.520	-0.130	0.090
2020/01/31 06:46:11.0	90.180	0.510	-0.090	0.030
2020/01/31 06:46:11.1	90.160	0.500	-0.050	-0.020
2020/01/31 06:46:11.2	90.150	0.490	-0.010	-0.080
2020/01/31 06:46:11.3	90.130	0.480	0.030	-0.130
2020/01/31 06:46:11.4	90.110	0.460	0.070	-0.180
2020/01/31 06:46:11.5	90.100	0.450	0.100	-0.230
2020/01/31 06:46:11.6	90.080	0.430	0.140	-0.270
2020/01/31 06:46:11.7	90.060	0.410	0.170	-0.320
2020/01/31 06:46:11.8	90.040	0.380	0.200	-0.360
2020/01/31 06:46:11.9	90.020	0.360	0.230	-0.400
2020/01/31 06:46:12.0	90.000	0.330	0.260	-0.440
2020/01/31 06:46:12.1	89.980	0.310	0.290	-0.480
2020/01/31 06:46:12.2	89.970	0.280	0.310	-0.510
2020/01/31 06:46:12.3	89.960	0.250	0.330	-0.550
2020/01/31 06:46:12.4	89.940	0.220	0.350	-0.580
2020/01/31 06:46:12.5	89.930	0.190	0.370	-0.610
2020/01/31 06:46:12.6	89.920	0.160	0.380	-0.640
2020/01/31 06:46:12.7	89.910	0.130	0.390	-0.670
2020/01/31 06:46:12.8	89.900	0.100	0.400	-0.690
2020/01/31 06:46:12.9	89.890	0.070	0.400	-0.720
2020/01/31 06:46:13.0	89.880	0.040	0.400	-0.750
2020/01/31 06:46:13.1	89.880	0.010	0.400	-0.770
2020/01/31 06:46:13.2	89.870	-0.020	0.390	-0.790
2020/01/31 06:46:13.3	89.870	-0.040	0.380	-0.810
2020/01/31 06:46:13.4	89.880	-0.070	0.370	-0.840
2020/01/31 06:46:13.5	89.880	-0.090	0.350	-0.860
2020/01/31 06:46:13.6	89.890	-0.120	0.330	-0.880
2020/01/31 06:46:13.7	89.890	-0.140	0.310	-0.900
2020/01/31 06:46:13.8	89.900	-0.150	0.290	-0.920
2020/01/31 06:46:13.9	89.910	-0.170	0.260	-0.930
2020/01/31 06:46:14.0	89.920	-0.180	0.230	-0.950
2020/01/31 06:46:14.1	89.940	-0.200	0.200	-0.960
2020/01/31 06:46:14.2	89.950	-0.210	0.160	-0.970
2020/01/31 06:46:14.3	89.960	-0.210	0.130	-0.980
2020/01/31 06:46:14.4	89.980	-0.220	0.090	-0.990
2020/01/31 06:46:14.5	89.990	-0.220	0.050	-0.990
2020/01/31 06:46:14.6	90.010	-0.220	0.020	-0.990
2020/01/31 06:46:14.7	90.030	-0.220	-0.020	-0.990
2020/01/31 06:46:14.8	90.040	-0.220	-0.060	-0.980
2020/01/31 06:46:14.9	90.060	-0.220	-0.100	-0.970
2020/01/31 06:46:15.0	90.080	-0.210	-0.140	-0.950
2020/01/31 06:46:15.1	90.090	-0.200	-0.180	-0.930
2020/01/31 06:46:15.2	90.110	-0.200	-0.220	-0.910
2020/01/31 06:46:15.3	90.120	-0.190	-0.250	-0.880
2020/01/31 06:46:15.4	90.140	-0.170	-0.280	-0.850
2020/01/31 06:46:15.5	90.160	-0.160	-0.320	-0.820
2020/01/31 06:46:15.6	90.170	-0.150	-0.350	-0.780
2020/01/31 06:46:15.7	90.190	-0.140	-0.370	-0.740
2020/01/31 06:46:15.8	90.210	-0.120	-0.400	-0.690
2020/01/31 06:46:15.9	90.230	-0.110	-0.420	-0.640
2020/01/31 06:46:16.0	90.240	-0.090	-0.440	-0.590
2020/01/31 06:46:16.1	90.260	-0.080	-0.460	-0.530
2020/01/31 06:46:16.2	90.270	-0.070	-0.470	-0.470
2020/01/31 06:46:16.3	90.280	-0.050	-0.490	-0.400
2020/01/31 06:46:16.4	90.300	-0.040	-0.500	-0.340
2020/01/31 06:46:16.5	90.320	-0.030	-0.500	-0.270
2020/01/31 06:46:16.6	90.330	-0.010	-0.510	-0.200
2020/01/31 06:46:16.7	90.350	-0.000	-0.510	-0.120
2020/01/31 06:46:16.8	90.360	0.010	-0.510	-0.050
2020/01/31 06:46:16.9	90.380	0.020	-0.500	0.030
2020/01/31 06:46:17.0	90.390	0.020	-0.500	0.110
2020/01/31 06:46:17.1	90.400	0.030	-0.490	0.200
2020/01/31 06:46:17.2	90.420	0.040	-0.480	0.280
2020/01/31 06:46:17.3	90.430	0.040	-0.470	0.370
2020/01/31 06:46:17.4	90.440	0.040	-0.460	0.460
2020/01/31 06:46:17.5	90.440	0.040	-0.440	0.550
2020/01/31 06:46:17.6	90.450	0.040	-0.420	0.640
2020/01/31 06:46:17.7	90.450	0.040	-0.400	0.730
2020/01/31 06:46:17.8	90.450	0.040	-0.380	0.820
2020/01/31 06:46:17.9	90.450	0.040	-0.360	0.910
2020/01/31 06:46:18.0	90.450	0.030	-0.340	1.010
2020/01/31 06:46:18.1	90.450	0.020	-0.310	1.100
2020/01/31 06:46:18.2	90.450	0.020	-0.290	1.200
2020/01/31 06:46:18.3	90.450	0.010	-0.260	1.290
2020/01/31 06:46:18.4	90.440	-0.000	-0.230	1.380
2020/01/31 06:46:18.5	90.430	-0.010	-0.210	1.470
2020/01/31 06:46:18.6	90.420	-0.030	-0.180	1.570
2020/01/31 06:46:18.7	90.410	-0.040	-0.150	1.660
2020/01/31 06:46:18.8	90.390	-0.050	-0.130	1.750
2020/01/31 06:46:18.9	90.380	-0.070	-0.100	1.830
2020/01/31 06:46:19.0	90.370	-0.080	-0.070	1.920
2020/01/31 06:46:19.1	90.350	-0.090	-0.050	2.000
2020/01/31 06:46:19.2	90.330	-0.110	-0.020	2.080
2020/01/31 06:46:19.3	90.320	-0.120	0.000	2.160
2020/01/31 06:46:19.4	90.300	-0.140	0.030	2.240
2020/01/31 06:46:19.5	90.280	-0.150	0.050	2.310
2020/01/31 06:46:19.6	90.260	-0.160	0.070	2.380
2020/01/31 06:46:19.7	90.250	-0.180	0.090	2.440
2020/01/31 06:46:19.8	90.230	-0.190	0.100	2.500
2020/01/31 06:46:19.9	90.210	-0.200	0.120	2.550
2020/01/31 06:46:20.0	90.190	-0.210	0.130	2.600
2020/01/31 06:46:20.1	90.180	-0.220	0.140	2.640
2020/01/31 06:46:20.2	90.160	-0.220	0.150	2.670
2020/01/31 06:46:20.3	90.150	-0.230	0.150	2.700
2020/01/31 06:46:20.4	90.130	-0.230	0.150	2.730
2020/01/31 06:46:20.5	90.120	-0.230	0.150	2.740
2020/01/31 06:46:20.6	90.110	-0.230	0.140	2.750
2020/01/31 06:46:20.7	90.100	-0.230	0.130	2.750
2020/01/31 06:46:20.8	90.100	-0.230	0.120	2.740
2020/01/31 06:46:20.9	90.090	-0.220	0.100	2.730
2020/01/31 06:46:21.0	90.090	-0.210	0.080	2.710
2020/01/31 06:46:21.1	90.080	-0.200	0.060	2.680
2020/01/31 06:46:21.2	90.090	-0.190	0.040	2.640
2020/01/31 06:46:21.3	90.090	-0.180	0.010	2.600
2020/01/31 06:46:21.4	90.090	-0.170	-0.010	2.560
2020/01/31 06:46:21.5	90.090	-0.150	-0.040	2.510
2020/01/31 06:46:21.6	90.100	-0.130	-0.070	2.450
2020/01/31 06:46:21.7	90.100	-0.120	-0.100	2.390
2020/01/31 06:46:21.8	90.110	-0.100	-0.140	2.330
2020/01/31 06:46:21.9	90.120	-0.080	-0.170	2.260
2020/01/31 06:46:22.0	90.120	-0.060	-0.200	2.190
2020/01/31 06:46:22.1	90.130	-0.040	-0.230	2.110
2020/01/31 06:46:22.2	90.140	-0.010	-0.260	2.040
2020/01/31 06:46:22.3	90.140	0.010	-0.290	1.960
2020/01/31 06:46:22.4	90.150	0.030	-0.320	1.880
2020/01/31 06:46:22.5	90.150	0.050	-0.340	1.790
2020/01/31 06:46:22.6	90.160	0.070	-0.360	1.710
2020/01/31 06:46:22.7	90.160	0.090	-0.380	1.620
2020/01/31 06:46:22.8	90.160	0.110	-0.400	1.540
2020/01/31 06:46:22.9	90.160	0.120	-0.410	1.450
2020/01/31 06:46:23.0	90.160	0.140	-0.420	1.360
2020/01/31 06:46:23.1	90.160	0.150	-0.430	1.270
2020/01/31 06:46:23.2	90.170	0.160	-0.430	1.170
2020/01/31 06:46:23.3	90.170	0.170	-0.430	1.080
2020/01/31 06:46:23.4	90.170	0.180	-0.420	0.990
2020/01/31 06:46:23.5	90.160	0.190	-0.410	0.890
2020/01/31 06:46:23.6	90.160	0.190	-0.400	0.800
2020/01/31 06:46:23.7	90.160	0.200	-0.390	0.700
2020/01/31 06:46:23.8	90.160	0.200	-0.370	0.600
2020/01/31 06:46:23.9	90.160	0.190	-0.350	0.510
2020/01/31 06:46:24.0	90.160	0.190	-0.330	0.410
2020/01/31 06:46:24.1	90.160	0.190	-0.300	0.310
2020/01/31 06:46:24.2	90.150	0.180	-0.270	0.210
2020/01/31 06:46:24.3	90.150	0.170	-0.250	0.120
2020/01/31 06:46:24.4	90.150	0.160	-0.220	0.020
2020/01/31 06:46:24.5	90.150	0.150	-0.190	-0.070
2020/01/31 06:46:24.6	90.150	0.130	-0.160	-0.160
2020/01/31 06:46:24.7	90.150	0.120	-0.130	-0.250
2020/01/31 06:46:24.8	90.140	0.100	-0.100	-0.340
2020/01/31 06:46:24.9	90.140	0.090	-0.070	-0.420
2020/01/31 06:46:25.0	90.140	0.070	-0.050	-0.500
2020/01/31 06:46:25.1	90.140	0.050	-0.030	-0.580
2020/01/31 06:46:25.2	90.130	0.040	-0.000	-0.650
2020/01/31 06:46:25.3	90.130	0.020	0.020	-0.720
2020/01/31 06:46:25.4	90.130	0.000	0.030	-0.790
2020/01/31 06:46:25.5	90.120	-0.010	0.040	-0.850
2020/01/31 06:46:25.6	90.120	-0.030	0.050	-0.910
2020/01/31 06:46:25.7	90.120	-0.040	0.050	-0.960
2020/01/31 06:46:25.8	90.110	-0.050	0.050	-1.010
2020/01/31 06:46:25.9	90.110	-0.060	0.040	-1.060
2020/01/31 06:46:26.0	90.110	-0.070	0.030	-1.100
2020/01/31 06:46:26.1	90.110	-0.080	0.020	-1.130
2020/01/31 06:46:26.2	90.090	-0.090	-0.000	-1.160
2020/01/31 06:46:26.3	90.090	-0.100	-0.020	-1.190
2020/01/31 06:46:26.4	90.090	-0.100	-0.040	-1.220
2020/01/31 06:46:26.5	90.090	-0.110	-0.070	-1.230
2020/01/31 06:46:26.6	90.090	-0.110	-0.090	-1.250
2020/01/31 06:46:26.7	90.100	-0.110	-0.120	-1.260
2020/01/31 06:46:26.8	90.100	-0.110	-0.150	-1.270
2020/01/31 06:46:26.9	90.100	-0.110	-0.180	-1.270
2020/01/31 06:46:27.0	90.100	-0.110	-0.210	-1.270
2020/01/31 06:46:27.1	90.110	-0.100	-0.240	-1.260
2020/01/31 06:46:27.2	90.110	-0.100	-0.260	-1.250
2020/01/31 06:46:27.3	90.110	-0.100	-0.290	-1.240
2020/01/31 06:46:27.4	90.120	-0.090	-0.310	-1.220
2020/01/31 06:46:27.5	90.120	-0.090	-0.330	-1.200
2020/01/31 06:46:27.6	90.120	-0.080	-0.350	-1.180
2020/01/31 06:46:27.7	90.130	-0.070	-0.360	-1.150
2020/01/31 06:46:27.8	90.130	-0.070	-0.370	-1.120
2020/01/31 06:46:27.9	90.130	-0.060	-0.380	-1.080
2020/01/31 06:46:28.0	90.130	-0.060	-0.380	-1.050
2020/01/31 06:46:28.1	90.130	-0.050	-0.380	-1.010
2020/01/31 06:46:28.2	90.140	-0.050	-0.380	-0.960
2020/01/31 06:46:28.3	90.140	-0.040	-0.370	-0.910
2020/01/31 06:46:28.4	90.140	-0.040	-0.360	-0.860
2020/01/31 06:46:28.5	90.140	-0.030	-0.350	-0.810
2020/01/31 06:46:28.6	90.130	-0.030	-0.330	-0.760
2020/01/31 06:46:28.7	90.130	-0.020	-0.320	-0.700
2020/01/31 06:46:28.8	90.130	-0.020	-0.300	-0.650
2020/01/31 06:46:28.9	90.130	-0.020	-0.280	-0.590
2020/01/31 06:46:29.0	90.130	-0.010	-0.250	-0.530
2020/01/31 06:46:29.1	90.130	-0.010	-0.230	-0.470
2020/01/31 06:46:29.2	90.140	-0.010	-0.210	-0.410
2020/01/31 06:46:29.3	90.140	-0.010	-0.180	-0.340
2020/01/31 06:46:29.4	90.140	-0.000	-0.160	-0.280
2020/01/31 06:46:29.5	90.140	0.000	-0.130	-0.220
2020/01/31 06:46:29.6	90.140	0.000	-0.110	-0.160
2020/01/31 06:46:29.7	90.140	0.010	-0.090	-0.090
2020/01/31 06:46:29.8	90.140	0.010	-0.070	-0.030
2020/01/31 06:46:29.9	90.140	0.010	-0.050	0.030
2020/01/31 06:46:30.0	90.140	0.020	-0.040	0.100
2020/01/31 06:46:30.1	90.140	0.020	-0.020	0.170
2020/01/31 06:46:30.2	90.150	0.030	-0.010	0.230
2020/01/31 06:46:30.3	90.150	0.030	0.000	0.300
2020/01/31 06:46:30.4	90.150	0.040	0.010	0.370
2020/01/31 06:46:30.5	90.150	0.040	0.020	0.430
2020/01/31 06:46:30.6	90.150	0.050	0.020	0.500
2020/01/31 06:46:30.7	90.140	0.060	0.020	0.570
2020/01/31 06:46:30.8	90.140	0.060	0.020	0.640
2020/01/31 06:46:30.9	90.130	0.070	0.020	0.710
2020/01/31 06:46:31.0	90.130	0.080	0.020	0.780
2020/01/31 06:46:31.1	90.120	0.090	0.010	0.850
2020/01/31 06:46:31.2	90.110	0.100	-0.000	0.920
2020/01/31 06:46:31.3	90.100	0.100	-0.010	0.980
2020/01/31 06:46:31.4	90.100	0.110	-0.020	1.050
2020/01/31 06:46:31.5	90.090	0.120	-0.030	1.110
2020/01/31 06:46:31.6	90.080	0.130	-0.040	1.170
2020/01/31 06:46:31.7	90.070	0.140	-0.060	1.230
2020/01/31 06:46:31.8	90.060	0.150	-0.070	1.290
2020/01/31 06:46:31.9	90.060	0.150	-0.080	1.340
2020/01/31 06:46:32.0	90.050	0.160	-0.090	1.400
2020/01/31 06:46:32.1	90.040	0.170	-0.110	1.450
2020/01/31 06:46:32.2	90.030	0.170	-0.120	1.490
2020/01/31 06:46:32.3	90.030	0.180	-0.130	1.540
2020/01/31 06:46:32.4	90.020	0.180	-0.140	1.580
2020/01/31 06:46:32.5	90.010	0.190	-0.150	1.620
2020/01/31 06:46:32.6	90.010	0.190	-0.160	1.650
2020/01/31 06:46:32.7	90.000	0.200	-0.170	1.690
2020/01/31 06:46:32.8	89.990	0.200	-0.180	1.720
2020/01/31 06:46:32.9	89.990	0.200	-0.180	1.750
2020/01/31 06:46:33.0	89.980	0.200	-0.190	1.770
2020/01/31 06:46:33.1	89.980	0.200	-0.190	1.800
2020/01/31 06:46:33.2	89.980	0.200	-0.190	1.820
2020/01/31 06:46:33.3	89.980	0.190	-0.190	1.840
2020/01/31 06:46:33.4	89.980	0.190	-0.190	1.850
2020/01/31 06:46:33.5	89.970	0.180	-0.190	1.870
2020/01/31 06:46:33.6	89.970	0.170	-0.190	1.880
2020/01/31 06:46:33.7	89.970	0.170	-0.180	1.890
2020/01/31 06:46:33.8	89.960	0.160	-0.180	1.900
2020/01/31 06:46:33.9	89.960	0.150	-0.170	1.900
2020/01/31 06:46:34.0	89.950	0.140	-0.170	1.910
2020/01/31 06:46:34.1	89.950	0.120	-0.160	1.910
2020/01/31 06:46:34.2	89.950	0.110	-0.150	1.910
2020/01/31 06:46:34.3	89.950	0.100	-0.150	1.910
2020/01/31 06:46:34.4	89.940	0.080	-0.140	1.910
2020/01/31 06:46:34.5	89.940	0.070	-0.140	1.900
2020/01/31 06:46:34.6	89.940	0.050	-0.130	1.890
2020/01/31 06:46:34.7	89.940	0.040	-0.130	1.880
2020/01/31 06:46:34.8	89.940	0.020	-0.130	1.870
2020/01/31 06:46:34.9	89.940	0.000	-0.120	1.860
2020/01/31 06:46:35.0	89.940	-0.010	-0.120	1.840
2020/01/31 06:46:35.1	89.940	-0.030	-0.130	1.820
2020/01/31 06:46:35.2	89.940	-0.050	-0.130	1.790
2020/01/31 06:46:35.3	89.940	-0.060	-0.130	1.770
2020/01/31 06:46:35.4	89.950	-0.080	-0.140	1.740
2020/01/31 06:46:35.5	89.950	-0.090	-0.150	1.710
2020/01/31 06:46:35.6	89.960	-0.100	-0.160	1.670
2020/01/31 06:46:35.7	89.980	-0.110	-0.170	1.630
2020/01/31 06:46:35.8	89.990	-0.130	-0.180	1.590
2020/01/31 06:46:35.9	90.000	-0.140	-0.190	1.540
2020/01/31 06:46:36.0	90.020	-0.140	-0.200	1.490
2020/01/31 06:46:36.1	90.040	-0.150	-0.210	1.440
2020/01/31 06:46:36.2	90.050	-0.160	-0.230	1.380
2020/01/31 06:46:36.3	90.070	-0.160	-0.240	1.320
2020/01/31 06:46:36.4	90.090	-0.170	-0.260	1.260
2020/01/31 06:46:36.5	90.120	-0.170	-0.270	1.200
2020/01/31 06:46:36.6	90.140	-0.170	-0.290	1.130
2020/01/31 06:46:36.7	90.170	-0.170	-0.300	1.070
2020/01/31 06:46:36.8	90.190	-0.170	-0.320	1.000
2020/01/31 06:46:36.9	90.220	-0.170	-0.330	0.930
2020/01/31 06:46:37.0	90.250	-0.170	-0.340	0.860
2020/01/31 06:46:37.1	90.270	-0.170	-0.350	0.800
2020/01/31 06:46:37.2	90.310	-0.160	-0.360	0.730
2020/01/31 06:46:37.3	90.330	-0.160	-0.370	0.670
2020/01/31 06:46:37.4	90.350	-0.150	-0.380	0.600
2020/01/31 06:46:37.5	90.370	-0.150	-0.380	0.540
2020/01/31 06:46:37.6	90.390	-0.140	-0.390	0.480
2020/01/31 06:46:37.7	90.410	-0.140	-0.390	0.430
2020/01/31 06:46:37.8	90.430	-0.140	-0.380	0.380
2020/01/31 06:46:37.9	90.440	-0.130	-0.380	0.330
2020/01/31 06:46:38.0	90.450	-0.130	-0.370	0.280
2020/01/31 06:46:38.1	90.460	-0.130	-0.360	0.230
2020/01/31 06:46:38.2	90.470	-0.120	-0.350	0.190
2020/01/31 06:46:38.3	90.480	-0.120	-0.340	0.160
2020/01/31 06:46:38.4	90.480	-0.120	-0.320	0.120
2020/01/31 06:46:38.5	90.480	-0.120	-0.310	0.080
2020/01/31 06:46:38.6	90.480	-0.120	-0.290	0.050
2020/01/31 06:46:38.7	90.480	-0.130	-0.260	0.020
2020/01/31 06:46:38.8	90.480	-0.130	-0.240	-0.000
2020/01/31 06:46:38.9	90.470	-0.140	-0.220	-0.030
2020/01/31 06:46:39.0	90.460	-0.140	-0.190	-0.050
2020/01/31 06:46:39.1	90.450	-0.150	-0.160	-0.080
2020/01/31 06:46:39.2	90.430	-0.150	-0.130	-0.100
2020/01/31 06:46:39.3	90.420	-0.160	-0.100	-0.120
2020/01/31 06:46:39.4	90.410	-0.170	-0.080	-0.140
2020/01/31 06:46:39.5	90.400	-0.180	-0.050	-0.160
2020/01/31 06:46:39.6	90.390	-0.180	-0.020	-0.180
2020/01/31 06:46:39.7	90.380	-0.190	0.000	-0.200
2020/01/31 06:46:39.8	90.370	-0.200	0.030	-0.210
2020/01/31 06:46:39.9	90.350	-0.210	0.050	-0.230
2020/01/31 06:46:40.0	90.340	-0.210	0.070	-0.250
2020/01/31 06:46:40.1	90.330	-0.220	0.090	-0.270
2020/01/31 06:46:40.2	90.330	-0.230	0.110	-0.290
2020/01/31 06:46:40.3	90.320	-0.230	0.130	-0.320
2020/01/31 06:46:40.4	90.320	-0.240	0.140	-0.340
2020/01/31 06:46:40.5	90.310	-0.240	0.160	-0.360
2020/01/31 06:46:40.6	90.300	-0.240	0.170	-0.390
2020/01/31 06:46:40.7	90.300	-0.240	0.180	-0.420
2020/01/31 06:46:40.8	90.300	-0.240	0.180	-0.440
2020/01/31 06:46:40.9	90.300	-0.230	0.190	-0.470
2020/01/31 06:46:41.0	90.290	-0.230	0.190	-0.500
2020/01/31 06:46:41.1	90.300	-0.220	0.190	-0.530
2020/01/31 06:46:41.2	90.280	-0.210	0.190	-0.560
2020/01/31 06:46:41.3	90.280	-0.200	0.180	-0.590
2020/01/31 06:46:41.4	90.290	-0.180	0.170	-0.610
2020/01/31 06:46:41.5	90.290	-0.170	0.160	-0.640
2020/01/31 06:46:41.6	90.300	-0.150	0.150	-0.660
2020/01/31 06:46:41.7	90.310	-0.130	0.140	-0.690
2020/01/31 06:46:41.8	90.320	-0.110	0.120	-0.710
2020/01/31 06:46:41.9	90.320	-0.090	0.100	-0.730
2020/01/31 06:46:42.0	90.330	-0.070	0.080	-0.750
2020/01/31 06:46:42.1	90.340	-0.040	0.060	-0.760
2020/01/31 06:46:42.2	90.350	-0.020	0.030	-0.770
2020/01/31 06:46:42.3	90.360	0.010	0.000	-0.780
2020/01/31 06:46:42.4	90.370	0.030	-0.020	-0.790
2020/01/31 06:46:42.5	90.380	0.060	-0.050	-0.790
2020/01/31 06:46:42.6	90.390	0.090	-0.080	-0.790
2020/01/31 06:46:42.7	90.400	0.110	-0.120	-0.780
2020/01/31 06:46:42.8	90.410	0.140	-0.150	-0.770
2020/01/31 06:46:42.9	90.420	0.160	-0.180	-0.760
2020/01/31 06:46:43.0	90.430	0.190	-0.220	-0.750
2020/01/31 06:46:43.1	90.440	0.210	-0.250	-0.730
2020/01/31 06:46:43.2	90.450	0.230	-0.280	-0.710
2020/01/31 06:46:43.3	90.450	0.250	-0.310	-0.680
2020/01/31 06:46:43.4	90.460	0.270	-0.340	-0.660
2020/01/31 06:46:43.5	90.470	0.290	-0.370	-0.620
2020/01/31 06:46:43.6	90.480	0.300	-0.400	-0.590
2020/01/31 06:46:43.7	90.490	0.320	-0.420	-0.550
2020/01/31 06:46:43.8	90.490	0.330	-0.440	-0.520
2020/01/31 06:46:43.9	90.500	0.340	-0.460	-0.470
2020/01/31 06:46:44.0	90.500	0.340	-0.480	-0.430
2020/01/31 06:46:44.1	90.510	0.340	-0.490	-0.380
2020/01/31 06:46:44.2	90.510	0.340	-0.500	-0.330
2020/01/31 06:46:44.3	90.510	0.340	-0.510	-0.280
2020/01/31 06:46:44.4	90.510	0.340	-0.510	-0.230
2020/01/31 06:46:44.5	90.520	0.330	-0.510	-0.180
2020/01/31 06:46:44.6	90.520	0.320	-0.500	-0.120
2020/01/31 06:46:44.7	90.520	0.310	-0.500	-0.060
2020/01/31 06:46:44.8	90.520	0.290	-0.480	-0.010
2020/01/31 06:46:44.9	90.510	0.280	-0.470	0.050
2020/01/31 06:46:45.0	90.510	0.260	-0.450	0.120
2020/01/31 06:46:45.1	90.510	0.230	-0.420	0.180
2020/01/31 06:46:45.2	90.500	0.210	-0.390	0.240
2020/01/31 06:46:45.3	90.500	0.190	-0.360	0.310
2020/01/31 06:46:45.4	90.500	0.160	-0.330	0.370
2020/01/31 06:46:45.5	90.490	0.130	-0.300	0.440
2020/01/31 06:46:45.6	90.490	0.100	-0.260	0.500
2020/01/31 06:46:45.7	90.490	0.070	-0.230	0.570
2020/01/31 06:46:45.8	90.490	0.040	-0.190	0.640
2020/01/31 06:46:45.9	90.480	0.010	-0.150	0.700
2020/01/31 06:46:46.0	90.480	-0.020	-0.120	0.770
2020/01/31 06:46:46.1	90.480	-0.050	-0.080	0.830
2020/01/31 06:46:46.2	90.480	-0.080	-0.050	0.900
2020/01/31 06:46:46.3	90.480	-0.110	-0.020	0.960
2020/01/31 06:46:46.4	90.480	-0.140	0.010	1.020
2020/01/31 06:46:46.5	90.480	-0.160	0.040	1.080
2020/01/31 06:46:46.6	90.480	-0.190	0.070	1.140
2020/01/31 06:46:46.7	90.490	-0.210	0.090	1.200
2020/01/31 06:46:46.8	90.490	-0.230	0.100	1.260
2020/01/31 06:46:46.9	90.500	-0.250	0.120	1.310
2020/01/31 06:46:47.0	90.500	-0.270	0.130	1.360
2020/01/31 06:46:47.1	90.510	-0.280	0.130	1.410
2020/01/31 06:46:47.2	90.520	-0.300	0.130	1.460
2020/01/31 06:46:47.3	90.530	-0.310	0.130	1.500
2020/01/31 06:46:47.4	90.530	-0.310	0.120	1.550
2020/01/31 06:46:47.5	90.540	-0.320	0.110	1.580
2020/01/31 06:46:47.6	90.550	-0.320	0.090	1.620
2020/01/31 06:46:47.7	90.560	-0.320	0.070	1.650
2020/01/31 06:46:47.8	90.570	-0.310	0.050	1.680
2020/01/31 06:46:47.9	90.580	-0.310	0.020	1.710
2020/01/31 06:46:48.0	90.590	-0.300	-0.000	1.740
2020/01/31 06:46:48.1	90.590	-0.280	-0.040	1.760
2020/01/31 06:46:48.2	90.610	-0.270	-0.070	1.780
2020/01/31 06:46:48.3	90.620	-0.250	-0.110	1.790
2020/01/31 06:46:48.4	90.630	-0.230	-0.140	1.810
2020/01/31 06:46:48.5	90.640	-0.210	-0.180	1.820
2020/01/31 06:46:48.6	90.640	-0.190	-0.210	1.830
2020/01/31 06:46:48.7	90.650	-0.170	-0.250	1.840
2020/01/31 06:46:48.8	90.660	-0.140	-0.280	1.840
2020/01/31 06:46:48.9	90.670	-0.120	-0.320	1.840
2020/01/31 06:46:49.0	90.670	-0.090	-0.350	1.840
2020/01/31 06:46:49.1	90.680	-0.060	-0.380	1.840
2020/01/31 06:46:49.2	90.680	-0.040	-0.400	1.830
2020/01/31 06:46:49.3	90.690	-0.010	-0.430	1.820
2020/01/31 06:46:49.4	90.690	0.020	-0.450	1.810
2020/01/31 06:46:49.5	90.690	0.040	-0.460	1.790
2020/01/31 06:46:49.6	90.700	0.070	-0.470	1.780
2020/01/31 06:46:49.7	90.700	0.090	-0.480	1.760
2020/01/31 06:46:49.8	90.700	0.110	-0.480	1.730
2020/01/31 06:46:49.9	90.700	0.140	-0.480	1.710
2020/01/31 06:46:50.0	90.700	0.160	-0.480	1.680
2020/01/31 06:46:50.1	90.700	0.170	-0.470	1.650
2020/01/31 06:46:50.2	90.700	0.190	-0.450	1.620
2020/01/31 06:46:50.3	90.700	0.210	-0.430	1.580
2020/01/31 06:46:50.4	90.700	0.220	-0.410	1.550
2020/01/31 06:46:50.5	90.700	0.230	-0.390	1.510
2020/01/31 06:46:50.6	90.700	0.240	-0.360	1.470
2020/01/31 06:46:50.7	90.700	0.250	-0.330	1.430
2020/01/31 06:46:50.8	90.700	0.250	-0.300	1.380
2020/01/31 06:46:50.9	90.690	0.260	-0.270	1.340
2020/01/31 06:46:51.0	90.690	0.260	-0.230	1.290
2020/01/31 06:46:51.1	90.690	0.260	-0.200	1.240
2020/01/31 06:46:51.2	90.690	0.260	-0.160	1.200
2020/01/31 06:46:51.3	90.690	0.250	-0.120	1.150
2020/01/31 06:46:51.4	90.690	0.250	-0.080	1.100
2020/01/31 06:46:51.5	90.690	0.240	-0.040	1.050
2020/01/31 06:46:51.6	90.680	0.230	-0.010	0.990
2020/01/31 06:46:51.7	90.680	0.230	0.020	0.940
2020/01/31 06:46:51.8	90.680	0.220	0.060	0.890
2020/01/31 06:46:51.9	90.670	0.210	0.090	0.840
2020/01/31 06:46:52.0	90.670	0.200	0.110	0.780
2020/01/31 06:46:52.1	90.670	0.190	0.140	0.730
2020/01/31 06:46:52.2	90.660	0.180	0.160	0.680
2020/01/31 06:46:52.3	90.660	0.170	0.170	0.620
2020/01/31 06:46:52.4	90.650	0.160	0.180	0.570
2020/01/31 06:46:52.5	90.650	0.150	0.190	0.520
2020/01/31 06:46:52.6	90.640	0.140	0.190	0.460
2020/01/31 06:46:52.7	90.640	0.130	0.190	0.410
2020/01/31 06:46:52.8	90.630	0.130	0.180	0.360
2020/01/31 06:46:52.9	90.630	0.120	0.170	0.310
2020/01/31 06:46:53.0	90.620	0.120	0.150	0.260
2020/01/31 06:46:53.1	90.610	0.120	0.130	0.210
2020/01/31 06:46:53.2	90.610	0.110	0.100	0.160
2020/01/31 06:46:53.3	90.600	0.110	0.070	0.120
2020/01/31 06:46:53.4	90.590	0.110	0.040	0.070
2020/01/31 06:46:53.5	90.580	0.120	0.000	0.020
2020/01/31 06:46:53.6	90.580	0.120	-0.040	-0.020
2020/01/31 06:46:53.7	90.570	0.120	-0.080	-0.060
2020/01/31 06:46:53.8	90.560	0.120	-0.120	-0.110
2020/01/31 06:46:53.9	90.550	0.130	-0.170	-0.150
2020/01/31 06:46:54.0	90.550	0.130	-0.210	-0.190
2020/01/31 06:46:54.1	90.540	0.130	-0.250	-0.230
2020/01/31 06:46:54.2	90.530	0.140	-0.300	-0.270
2020/01/31 06:46:54.3	90.520	0.140	-0.340	-0.300
2020/01/31 06:46:54.4	90.520	0.140	-0.380	-0.340
2020/01/31 06:46:54.5	90.510	0.140	-0.410	-0.370
2020/01/31 06:46:54.6	90.510	0.140	-0.440	-0.410
2020/01/31 06:46:54.7	90.500	0.130	-0.470	-0.440
2020/01/31 06:46:54.8	90.500	0.130	-0.490	-0.470
2020/01/31 06:46:54.9	90.500	0.120	-0.510	-0.500
2020/01/31 06:46:55.0	90.500	0.120	-0.530	-0.530
2020/01/31 06:46:55.1	90.500	0.110	-0.540	-0.550
2020/01/31 06:46:55.2	90.510	0.090	-0.540	-0.580
2020/01/31 06:46:55.3	90.510	0.080	-0.540	-0.600
2020/01/31 06:46:55.4	90.510	0.060	-0.540	-0.620
2020/01/31 06:46:55.5	90.520	0.040	-0.530	-0.640
2020/01/31 06:46:55.6	90.520	0.020	-0.520	-0.650
2020/01/31 06:46:55.7	90.530	0.000	-0.500	-0.660
2020/01/31 06:46:55.8	90.540	-0.020	-0.470	-0.670
2020/01/31 06:46:55.9	90.550	-0.050	-0.450	-0.680
2020/01/31 06:46:56.0	90.560	-0.080	-0.420	-0.680
2020/01/31 06:46:56.1	90.570	-0.100	-0.380	-0.680
2020/01/31 06:46:56.2	90.560	-0.130	-0.350	-0.680
2020/01/31 06:46:56.3	90.570	-0.160	-0.310	-0.680
2020/01/31 06:46:56.4	90.580	-0.200	-0.260	-0.670
2020/01/31 06:46:56.5	90.590	-0.230	-0.220	-0.650
2020/01/31 06:46:56.6	90.610	-0.260	-0.170	-0.640
2020/01/31 06:46:56.7	90.620	-0.290	-0.120	-0.610
2020/01/31 06:46:56.8	90.630	-0.330	-0.070	-0.590
2020/01/31 06:46:56.9	90.630	-0.360	-0.020	-0.560
2020/01/31 06:46:57.0	90.640	-0.390	0.030	-0.530
2020/01/31 06:46:57.1	90.650	-0.420	0.080	-0.490
2020/01/31 06:46:57.2	90.680	-0.450	0.130	-0.450
2020/01/31 06:46:57.3	90.680	-0.480	0.180	-0.410
2020/01/31 06:46:57.4	90.690	-0.510	0.230	-0.360
2020/01/31 06:46:57.5	90.700	-0.530	0.280	-0.310
2020/01/31 06:46:57.6	90.700	-0.550	0.330	-0.260
2020/01/31 06:46:57.7	90.710	-0.580	0.370	-0.210
2020/01/31 06:46:57.8	90.710	-0.590	0.410	-0.150
2020/01/31 06:46:57.9	90.710	-0.610	0.450	-0.100
2020/01/31 06:46:58.0	90.720	-0.620	0.480	-0.040
2020/01/31 06:46:58.1	90.720	-0.630	0.510	0.020
2020/01/31 06:46:58.2	90.730	-0.640	0.530	0.090
2020/01/31 06:46:58.3	90.730	-0.650	0.550	0.150
2020/01/31 06:46:58.4	90.730	-0.650	0.570	0.220
2020/01/31 06:46:58.5	90.730	-0.640	0.580	0.280
2020/01/31 06:46:58.6	90.730	-0.640	0.580	0.340
2020/01/31 06:46:58.7	90.740	-0.630	0.570	0.400
2020/01/31 06:46:58.8	90.740	-0.620	0.560	0.460
2020/01/31 06:46:58.9	90.740	-0.600	0.550	0.520
2020/01/31 06:46:59.0	90.740	-0.590	0.530	0.580
2020/01/31 06:46:59.1	90.750	-0.560	0.500	0.640
2020/01/31 06:46:59.2	90.760	-0.540	0.460	0.690
2020/01/31 06:46:59.3	90.760	-0.510	0.420	0.750
2020/01/31 06:46:59.4	90.770	-0.480	0.370	0.800
2020/01/31 06:46:59.5	90.770	-0.450	0.320	0.850
2020/01/31 06:46:59.6	90.780	-0.420	0.270	0.900
2020/01/31 06:46:59.7	90.780	-0.380	0.210	0.940
2020/01/31 06:46:59.8	90.790	-0.340	0.140	0.990
2020/01/31 06:46:59.9	90.800	-0.300	0.070	1.030
2020/01/31 06:47:00.0	90.800	-0.260	0.000	1.070
2020/01/31 06:47:00.1	90.800	-0.210	-0.070	1.110
2020/01/31 06:47:00.2	90.810	-0.170	-0.140	1.150
2020/01/31 06:47:00.3	90.810	-0.120	-0.220	1.190
2020/01/31 06:47:00.4	90.810	-0.080	-0.290	1.220
2020/01/31 06:47:00.5	90.820	-0.030	-0.370	1.260
2020/01/31 06:47:00.6	90.820	0.020	-0.440	1.290
2020/01/31 06:47:00.7	90.810	0.060	-0.510	1.330
2020/01/31 06:47:00.8	90.810	0.110	-0.580	1.360
2020/01/31 06:47:00.9	90.810	0.150	-0.650	1.400
2020/01/31 06:47:01.0	90.800	0.200	-0.710	1.430
2020/01/31 06:47:01.1	90.800	0.240	-0.770	1.470
2020/01/31 06:47:01.2	90.770	0.280	-0.820	1.500
2020/01/31 06:47:01.3	90.770	0.330	-0.870	1.530
2020/01/31 06:47:01.4	90.760	0.360	-0.920	1.560
2020/01/31 06:47:01.5	90.750	0.400	-0.960	1.590
2020/01/31 06:47:01.6	90.730	0.440	-0.990	1.620
2020/01/31 06:47:01.7	90.720	0.470	-1.020	1.650
2020/01/31 06:47:01.8	90.710	0.500	-1.050	1.670
2020/01/31 06:47:01.9	90.700	0.530	-1.070	1.700
2020/01/31 06:47:02.0	90.680	0.560	-1.080	1.720
2020/01/31 06:47:02.1	90.670	0.590	-1.090	1.740
2020/01/31 06:47:02.2	90.650	0.610	-1.090	1.760
2020/01/31 06:47:02.3	90.640	0.630	-1.090	1.770
2020/01/31 06:47:02.4	90.630	0.650	-1.080	1.780
2020/01/31 06:47:02.5	90.620	0.660	-1.070	1.790
2020/01/31 06:47:02.6	90.610	0.680	-1.050	1.800
2020/01/31 06:47:02.7	90.600	0.690	-1.030	1.800
2020/01/31 06:47:02.8	90.590	0.700	-1.000	1.800
2020/01/31 06:47:02.9	90.580	0.700	-0.970	1.800
2020/01/31 06:47:03.0	90.570	0.710	-0.940	1.790
2020/01/31 06:47:03.1	90.570	0.710	-0.900	1.780
2020/01/31 06:47:03.2	90.560	0.710	-0.850	1.770
2020/01/31 06:47:03.3	90.550	0.700	-0.810	1.750
2020/01/31 06:47:03.4	90.550	0.700	-0.760	1.730
2020/01/31 06:47:03.5	90.550	0.690	-0.710	1.710
2020/01/31 06:47:03.6	90.550	0.680	-0.660	1.690
2020/01/31 06:47:03.7	90.540	0.670	-0.600	1.660
2020/01/31 06:47:03.8	90.540	0.660	-0.550	1.630
2020/01/31 06:47:03.9	90.540	0.640	-0.490	1.600
2020/01/31 06:47:04.0	90.540	0.620	-0.430	1.570
2020/01/31 06:47:04.1	90.540	0.600	-0.370	1.530
2020/01/31 06:47:04.2	90.530	0.580	-0.310	1.500
2020/01/31 06:47:04.3	90.530	0.560	-0.250	1.460
2020/01/31 06:47:04.4	90.530	0.540	-0.190	1.420
2020/01/31 06:47:04.5	90.530	0.510	-0.120	1.380
2020/01/31 06:47:04.6	90.520	0.480	-0.070	1.330
2020/01/31 06:47:04.7	90.520	0.460	-0.010	1.290
2020/01/31 06:47:04.8	90.520	0.430	0.050	1.240
2020/01/31 06:47:04.9	90.510	0.400	0.110	1.190
2020/01/31 06:47:05.0	90.510	0.370	0.160	1.140
2020/01/31 06:47:05.1	90.510	0.340	0.220	1.090
2020/01/31 06:47:05.2	90.520	0.310	0.270	1.040
2020/01/31 06:47:05.3	90.510	0.280	0.320	0.980
2020/01/31 06:47:05.4	90.510	0.240	0.360	0.930
2020/01/31 06:47:05.5	90.500	0.210	0.410	0.870
2020/01/31 06:47:05.6	90.500	0.180	0.450	0.810
2020/01/31 06:47:05.7	90.490	0.150	0.490	0.750
2020/01/31 06:47:05.8	90.480	0.120	0.520	0.680
2020/01/31 06:47:05.9	90.480	0.090	0.560	0.620
2020/01/31 06:47:06.0	90.470	0.060	0.590	0.560
2020/01/31 06:47:06.1	90.460	0.030	0.610	0.490
2020/01/31 06:47:06.2	90.450	0.000	0.640	0.430
2020/01/31 06:47:06.3	90.440	-0.020	0.650	0.360
2020/01/31 06:47:06.4	90.430	-0.050	0.670	0.300
2020/01/31 06:47:06.5	90.430	-0.070	0.680	0.230
2020/01/31 06:47:06.6	90.420	-0.100	0.680	0.170
2020/01/31 06:47:06.7	90.410	-0.120	0.680	0.110
2020/01/31 06:47:06.8	90.400	-0.140	0.680	0.050
2020/01/31 06:47:06.9	90.390	-0.160	0.670	-0.010
2020/01/31 06:47:07.0	90.380	-0.170	0.660	-0.070
2020/01/31 06:47:07.1	90.370	-0.190	0.640	-0.130
2020/01/31 06:47:07.2	90.360	-0.200	0.610	-0.190
2020/01/31 06:47:07.3	90.350	-0.210	0.580	-0.240
2020/01/31 06:47:07.4	90.340	-0.220	0.550	-0.300
2020/01/31 06:47:07.5	90.330	-0.230	0.510	-0.350
2020/01/31 06:47:07.6	90.320	-0.240	0.470	-0.400
2020/01/31 06:47:07.7	90.320	-0.240	0.430	-0.450
2020/01/31 06:47:07.8	90.310	-0.250	0.380	-0.490
2020/01/31 06:47:07.9	90.310	-0.250	0.320	-0.530
2020/01/31 06:47:08.0	90.310	-0.250	0.270	-0.570
2020/01/31 06:47:08.1	90.310	-0.250	0.210	-0.610
2020/01/31 06:47:08.2	90.310	-0.250	0.150	-0.650
2020/01/31 06:47:08.3	90.310	-0.250	0.090	-0.680
2020/01/31 06:47:08.4	90.320	-0.240	0.030	-0.710
2020/01/31 06:47:08.5	90.330	-0.240	-0.040	-0.730
2020/01/31 06:47:08.6	90.330	-0.240	-0.100	-0.760
2020/01/31 06:47:08.7	90.350	-0.230	-0.160	-0.780
2020/01/31 06:47:08.8	90.360	-0.230	-0.220	-0.800
2020/01/31 06:47:08.9	90.370	-0.230	-0.270	-0.820
2020/01/31 06:47:09.0	90.390	-0.230	-0.330	-0.830
2020/01/31 06:47:09.1	90.400	-0.220	-0.380	-0.840
2020/01/31 06:47:09.2	90.410	-0.220	-0.430	-0.840
2020/01/31 06:47:09.3	90.430	-0.220	-0.470	-0.850
2020/01/31 06:47:09.4	90.440	-0.220	-0.510	-0.850
2020/01/31 06:47:09.5	90.460	-0.220	-0.550	-0.850
2020/01/31 06:47:09.6	90.480	-0.230	-0.570	-0.840
2020/01/31 06:47:09.7	90.500	-0.230	-0.600	-0.840
2020/01/31 06:47:09.8	90.510	-0.240	-0.620	-0.820
2020/01/31 06:47:09.9	90.530	-0.240	-0.630	-0.810
2020/01/31 06:47:10.0	90.540	-0.250	-0.640	-0.790
2020/01/31 06:47:10.1	90.550	-0.260	-0.640	-0.770
2020/01/31 06:47:10.2	90.560	-0.270	-0.640	-0.750
2020/01/31 06:47:10.3	90.570	-0.280	-0.630	-0.720
2020/01/31 06:47:10.4	90.580	-0.290	-0.620	-0.690
2020/01/31 06:47:10.5	90.580	-0.300	-0.600	-0.660
2020/01/31 06:47:10.6	90.590	-0.310	-0.580	-0.620
2020/01/31 06:47:10.7	90.590	-0.330	-0.560	-0.580
2020/01/31 06:47:10.8	90.590	-0.340	-0.530	-0.540
2020/01/31 06:47:10.9	90.590	-0.350	-0.500	-0.500
2020/01/31 06:47:11.0	90.580	-0.370	-0.460	-0.450
2020/01/31 06:47:11.1	90.570	-0.380	-0.420	-0.400
2020/01/31 06:47:11.2	90.570	-0.400	-0.390	-0.350
2020/01/31 06:47:11.3	90.560	-0.410	-0.340	-0.290
2020/01/31 06:47:11.4	90.550	-0.420	-0.300	-0.230
2020/01/31 06:47:11.5	90.530	-0.430	-0.260	-0.170
2020/01/31 06:47:11.6	90.520	-0.440	-0.220	-0.110
2020/01/31 06:47:11.7	90.500	-0.450	-0.180	-0.050
2020/01/31 06:47:11.8	90.480	-0.460	-0.140	0.020
2020/01/31 06:47:11.9	90.450	-0.460	-0.100	0.090
2020/01/31 06:47:12.0	90.430	-0.470	-0.060	0.160
2020/01/31 06:47:12.1	90.400	-0.470	-0.030	0.240
2020/01/31 06:47:12.2	90.380	-0.470	0.000	0.310
2020/01/31 06:47:12.3	90.350	-0.460	0.030	0.390
2020/01/31 06:47:12.4	90.310	-0.460	0.050	0.470
2020/01/31 06:47:12.5	90.280	-0.450	0.070	0.550
2020/01/31 06:47:12.6	90.240	-0.440	0.090	0.630
2020/01/31 06:47:12.7	90.210	-0.430	0.100	0.710
2020/01/31 06:47:12.8	90.170	-0.410	0.100	0.790
2020/01/31 06:47:12.9	90.130	-0.400	0.100	0.870
2020/01/31 06:47:13.0	90.100	-0.380	0.100	0.950
2020/01/31 06:47:13.1	90.060	-0.360	0.090	1.020
2020/01/31 06:47:13.2	90.030	-0.330	0.080	1.100
2020/01/31 06:47:13.3	90.000	-0.310	0.060	1.180
2020/01/31 06:47:13.4	89.970	-0.280	0.030	1.250
2020/01/31 06:47:13.5	89.930	-0.250	0.010	1.320
2020/01/31 06:47:13.6	89.900	-0.220	-0.020	1.380
2020/01/31 06:47:13.7	89.870	-0.190	-0.060	1.450
2020/01/31 06:47:13.8	89.850	-0.160	-0.090	1.500
2020/01/31 06:47:13.9	89.820	-0.130	-0.130	1.560
2020/01/31 06:47:14.0	89.800	-0.100	-0.180	1.610
2020/01/31 06:47:14.1	89.780	-0.060	-0.220	1.660
2020/01/31 06:47:14.2	89.770	-0.030	-0.260	1.700
2020/01/31 06:47:14.3	89.750	0.010	-0.310	1.730
2020/01/31 06:47:14.4	89.740	0.040	-0.350	1.770
2020/01/31 06:47:14.5	89.730	0.070	-0.400	1.800
2020/01/31 06:47:14.6	89.720	0.110	-0.440	1.830
2020/01/31 06:47:14.7	89.710	0.140	-0.480	1.850
2020/01/31 06:47:14.8	89.710	0.170	-0.520	1.870
2020/01/31 06:47:14.9	89.700	0.200	-0.560	1.880
2020/01/31 06:47:15.0	89.700	0.230	-0.600	1.890
2020/01/31 06:47:15.1	89.700	0.260	-0.630	1.900
2020/01/31 06:47:15.2	89.710	0.290	-0.660	1.900
2020/01/31 06:47:15.3	89.710	0.310	-0.690	1.900
2020/01/31 06:47:15.4	89.720	0.340	-0.710	1.890
2020/01/31 06:47:15.5	89.730	0.360	-0.730	1.870
2020/01/31 06:47:15.6	89.730	0.380	-0.740	1.860
2020/01/31 06:47:15.7	89.740	0.400	-0.750	1.830
2020/01/31 06:47:15.8	89.750	0.420	-0.760	1.810
2020/01/31 06:47:15.9	89.760	0.430	-0.760	1.780
2020/01/31 06:47:16.0	89.770	0.450	-0.750	1.740
2020/01/31 06:47:16.1	89.790	0.460	-0.750	1.700
2020/01/31 06:47:16.2	89.780	0.470	-0.730	1.650
2020/01/31 06:47:16.3	89.790	0.480	-0.720	1.600
2020/01/31 06:47:16.4	89.810	0.490	-0.690	1.550
2020/01/31 06:47:16.5	89.820	0.500	-0.670	1.500
2020/01/31 06:47:16.6	89.840	0.500	-0.640	1.440
2020/01/31 06:47:16.7	89.850	0.500	-0.600	1.390
2020/01/31 06:47:16.8	89.860	0.500	-0.570	1.330
2020/01/31 06:47:16.9	89.870	0.500	-0.520	1.270
2020/01/31 06:47:17.0	89.890	0.500	-0.480	1.210
2020/01/31 06:47:17.1	89.900	0.500	-0.430	1.150
2020/01/31 06:47:17.2	89.910	0.490	-0.370	1.090
2020/01/31 06:47:17.3	89.920	0.480	-0.320	1.040
2020/01/31 06:47:17.4	89.930	0.480	-0.260	0.980
2020/01/31 06:47:17.5	89.930	0.460	-0.200	0.920
2020/01/31 06:47:17.6	89.940	0.450	-0.140	0.860
2020/01/31 06:47:17.7	89.940	0.440	-0.080	0.810
2020/01/31 06:47:17.8	89.940	0.420	-0.010	0.750
2020/01/31 06:47:17.9	89.940	0.410	0.050	0.700
2020/01/31 06:47:18.0	89.940	0.390	0.110	0.650
2020/01/31 06:47:18.1	89.940	0.370	0.180	0.600
2020/01/31 06:47:18.2	89.930	0.350	0.240	0.550
2020/01/31 06:47:18.3	89.920	0.330	0.290	0.510
2020/01/31 06:47:18.4	89.920	0.310	0.350	0.470
2020/01/31 06:47:18.5	89.910	0.290	0.400	0.430
2020/01/31 06:47:18.6	89.900	0.260	0.450	0.390
2020/01/31 06:47:18.7	89.890	0.240	0.500	0.360
2020/01/31 06:47:18.8	89.880	0.220	0.540	0.330
2020/01/31 06:47:18.9	89.870	0.200	0.570	0.300
2020/01/31 06:47:19.0	89.860	0.170	0.600	0.270
2020/01/31 06:47:19.1	89.840	0.150	0.620	0.250
2020/01/31 06:47:19.2	89.840	0.130	0.640	0.230
2020/01/31 06:47:19.3	89.820	0.110	0.650	0.210
2020/01/31 06:47:19.4	89.810	0.090	0.660	0.190
2020/01/31 06:47:19.5	89.800	0.070	0.660	0.170
2020/01/31 06:47:19.6	89.790	0.050	0.650	0.160
2020/01/31 06:47:19.7	89.770	0.030	0.640	0.150
2020/01/31 06:47:19.8	89.760	0.010	0.620	0.140
2020/01/31 06:47:19.9	89.750	-0.000	0.590	0.130
2020/01/31 06:47:20.0	89.740	-0.020	0.550	0.120
2020/01/31 06:47:20.1	89.720	-0.030	0.520	0.120
2020/01/31 06:47:20.2	89.710	-0.040	0.470	0.120
2020/01/31 06:47:20.3	89.700	-0.050	0.420	0.110
2020/01/31 06:47:20.4	89.690	-0.060	0.370	0.110
2020/01/31 06:47:20.5	89.680	-0.070	0.310	0.110
2020/01/31 06:47:20.6	89.670	-0.080	0.250	0.110
2020/01/31 06:47:20.7	89.660	-0.080	0.190	0.120
2020/01/31 06:47:20.8	89.650	-0.080	0.130	0.120
2020/01/31 06:47:20.9	89.650	-0.090	0.060	0.130
2020/01/31 06:47:21.0	89.640	-0.090	-0.000	0.130
2020/01/31 06:47:21.1	89.630	-0.090	-0.060	0.140
2020/01/31 06:47:21.2	89.630	-0.090	-0.130	0.150
2020/01/31 06:47:21.3	89.630	-0.090	-0.190	0.160
2020/01/31 06:47:21.4	89.620	-0.090	-0.240	0.160
2020/01/31 06:47:21.5	89.610	-0.090	-0.300	0.170
2020/01/31 06:47:21.6	89.610	-0.090	-0.350	0.180
2020/01/31 06:47:21.7	89.600	-0.090	-0.400	0.190
2020/01/31 06:47:21.8	89.600	-0.090	-0.440	0.200
2020/01/31 06:47:21.9	89.590	-0.090	-0.480	0.210
2020/01/31 06:47:22.0	89.590	-0.090	-0.510	0.220
2020/01/31 06:47:22.1	89.580	-0.090	-0.530	0.230
2020/01/31 06:47:22.2	89.560	-0.090	-0.560	0.240
2020/01/31 06:47:22.3	89.560	-0.090	-0.570	0.240
2020/01/31 06:47:22.4	89.550	-0.100	-0.580	0.250
2020/01/31 06:47:22.5	89.550	-0.100	-0.580	0.260
2020/01/31 06:47:22.6	89.540	-0.110	-0.580	0.270
2020/01/31 06:47:22.7	89.540	-0.110	-0.580	0.270
2020/01/31 06:47:22.8	89.540	-0.120	-0.560	0.280
2020/01/31 06:47:22.9	89.530	-0.130	-0.550	0.280
2020/01/31 06:47:23.0	89.530	-0.140	-0.530	0.280
2020/01/31 06:47:23.1	89.530	-0.150	-0.500	0.290
2020/01/31 06:47:23.2	89.530	-0.150	-0.480	0.290
2020/01/31 06:47:23.3	89.530	-0.160	-0.450	0.290
2020/01/31 06:47:23.4	89.530	-0.170	-0.420	0.290
2020/01/31 06:47:23.5	89.530	-0.180	-0.390	0.290
2020/01/31 06:47:23.6	89.530	-0.190	-0.350	0.290
2020/01/31 06:47:23.7	89.540	-0.200	-0.320	0.290
2020/01/31 06:47:23.8	89.540	-0.210	-0.290	0.290
2020/01/31 06:47:23.9	89.540	-0.210	-0.260	0.290
2020/01/31 06:47:24.0	89.550	-0.220	-0.230	0.290
2020/01/31 06:47:24.1	89.550	-0.220	-0.200	0.290
2020/01/31 06:47:24.2	89.560	-0.220	-0.170	0.290
2020/01/31 06:47:24.3	89.570	-0.230	-0.150	0.290
2020/01/31 06:47:24.4	89.580	-0.220	-0.130	0.290
2020/01/31 06:47:24.5	89.580	-0.220	-0.120	0.290
2020/01/31 06:47:24.6	89.590	-0.220	-0.100	0.300
2020/01/31 06:47:24.7	89.600	-0.210	-0.100	0.310
2020/01/31 06:47:24.8	89.620	-0.200	-0.090	0.310
2020/01/31 06:47:24.9	89.630	-0.190	-0.090	0.320
2020/01/31 06:47:25.0	89.640	-0.180	-0.100	0.330
2020/01/31 06:47:25.1	89.660	-0.170	-0.110	0.350
2020/01/31 06:47:25.2	89.670	-0.150	-0.120	0.360
2020/01/31 06:47:25.3	89.690	-0.140	-0.140	0.380
2020/01/31 06:47:25.4	89.710	-0.120	-0.160	0.400
2020/01/31 06:47:25.5	89.730	-0.100	-0.180	0.420
2020/01/31 06:47:25.6	89.750	-0.080	-0.210	0.440
2020/01/31 06:47:25.7	89.780	-0.050	-0.240	0.460
2020/01/31 06:47:25.8	89.800	-0.030	-0.270	0.480
2020/01/31 06:47:25.9	89.830	-0.010	-0.310	0.510
2020/01/31 06:47:26.0	89.850	0.020	-0.340	0.540
2020/01/31 06:47:26.1	89.880	0.040	-0.380	0.570
2020/01/31 06:47:26.2	89.900	0.060	-0.410	0.600
2020/01/31 06:47:26.3	89.930	0.090	-0.450	0.640
2020/01/31 06:47:26.4	89.960	0.110	-0.490	0.670
2020/01/31 06:47:26.5	89.990	0.130	-0.520	0.710
2020/01/31 06:47:26.6	90.010	0.150	-0.550	0.750
2020/01/31 06:47:26.7	90.040	0.170	-0.580	0.790
2020/01/31 06:47:26.8	90.060	0.190	-0.610	0.830
2020/01/31 06:47:26.9	90.080	0.200	-0.630	0.870
2020/01/31 06:47:27.0	90.100	0.220	-0.650	0.920
2020/01/31 06:47:27.1	90.120	0.230	-0.670	0.960
2020/01/31 06:47:27.2	90.130	0.240	-0.680	1.010
2020/01/31 06:47:27.3	90.140	0.250	-0.690	1.060
2020/01/31 06:47:27.4	90.150	0.250	-0.690	1.100
2020/01/31 06:47:27.5	90.150	0.250	-0.680	1.150
2020/01/31 06:47:27.6	90.150	0.250	-0.670	1.200
2020/01/31 06:47:27.7	90.150	0.250	-0.660	1.250
2020/01/31 06:47:27.8	90.140	0.240	-0.640	1.290
2020/01/31 06:47:27.9	90.130	0.240	-0.610	1.340
2020/01/31 06:47:28.0	90.120	0.230	-0.580	1.380
2020/01/31 06:47:28.1	90.100	0.210	-0.550	1.430
2020/01/31 06:47:28.2	90.090	0.200	-0.500	1.470
2020/01/31 06:47:28.3	90.070	0.180	-0.460	1.510
2020/01/31 06:47:28.4	90.050	0.160	-0.410	1.540
2020/01/31 06:47:28.5	90.020	0.140	-0.350	1.580
2020/01/31 06:47:28.6	90.000	0.120	-0.300	1.610
2020/01/31 06:47:28.7	89.970	0.090	-0.230	1.640
2020/01/31 06:47:28.8	89.950	0.070	-0.170	1.670
2020/01/31 06:47:28.9	89.920	0.040	-0.110	1.690
2020/01/31 06:47:29.0	89.900	0.010	-0.040	1.710
2020/01/31 06:47:29.1	89.870	-0.010	0.030	1.720
2020/01/31 06:47:29.2	89.850	-0.040	0.100	1.730
2020/01/31 06:47:29.3	89.820	-0.070	0.170	1.740
2020/01/31 06:47:29.4	89.800	-0.100	0.230	1.750
2020/01/31 06:47:29.5	89.780	-0.130	0.300	1.740
2020/01/31 06:47:29.6	89.760	-0.160	0.370	1.740
2020/01/31 06:47:29.7	89.740	-0.180	0.430	1.730
2020/01/31 06:47:29.8	89.720	-0.210	0.490	1.720
2020/01/31 06:47:29.9	89.710	-0.240	0.540	1.700
2020/01/31 06:47:30.0	89.690	-0.260	0.590	1.680
2020/01/31 06:47:30.1	89.680	-0.280	0.640	1.650
2020/01/31 06:47:30.2	89.680	-0.300	0.680	1.620
2020/01/31 06:47:30.3	89.670	-0.320	0.720	1.590
2020/01/31 06:47:30.4	89.660	-0.330	0.740	1.550
2020/01/31 06:47:30.5	89.650	-0.340	0.760	1.520
2020/01/31 06:47:30.6	89.650	-0.350	0.770	1.470
2020/01/31 06:47:30.7	89.650	-0.360	0.780	1.430
2020/01/31 06:47:30.8	89.650	-0.360	0.780	1.380
2020/01/31 06:47:30.9	89.650	-0.360	0.770	1.330
2020/01/31 06:47:31.0	89.650	-0.360	0.750	1.290
2020/01/31 06:47:31.1	89.650	-0.350	0.720	1.230
2020/01/31 06:47:31.2	89.670	-0.340	0.690	1.180
2020/01/31 06:47:31.3	89.670	-0.330	0.650	1.130
2020/01/31 06:47:31.4	89.680	-0.320	0.600	1.070
2020/01/31 06:47:31.5	89.690	-0.300	0.550	1.010
2020/01/31 06:47:31.6	89.700	-0.280	0.490	0.960
2020/01/31 06:47:31.7	89.710	-0.260	0.420	0.900
2020/01/31 06:47:31.8	89.720	-0.230	0.350	0.840
2020/01/31 06:47:31.9	89.740	-0.200	0.280	0.780
2020/01/31 06:47:32.0	89.760	-0.180	0.200	0.720
2020/01/31 06:47:32.1	89.770	-0.150	0.120	0.650
2020/01/31 06:47:32.2	89.790	-0.120	0.040	0.590
2020/01/31 06:47:32.3	89.810	-0.090	-0.040	0.520
2020/01/31 06:47:32.4	89.830	-0.060	-0.120	0.460
2020/01/31 06:47:32.5	89.850	-0.020	-0.200	0.390
2020/01/31 06:47:32.6	89.880	0.010	-0.280	0.320
2020/01/31 06:47:32.7	89.910	0.040	-0.360	0.260
2020/01/31 06:47:32.8	89.940	0.070	-0.430	0.190
2020/01/31 06:47:32.9	89.960	0.090	-0.510	0.120
2020/01/31 06:47:33.0	89.990	0.120	-0.570	0.050
2020/01/31 06:47:33.1	90.020	0.150	-0.630	-0.010
2020/01/31 06:47:33.2	90.060	0.170	-0.690	-0.080
2020/01/31 06:47:33.3	90.090	0.190	-0.740	-0.150
2020/01/31 06:47:33.4	90.120	0.210	-0.790	-0.210
2020/01/31 06:47:33.5	90.150	0.230	-0.820	-0.270
2020/01/31 06:47:33.6	90.180	0.240	-0.860	-0.340
2020/01/31 06:47:33.7	90.200	0.250	-0.880	-0.390
2020/01/31 06:47:33.8	90.230	0.260	-0.900	-0.450
2020/01/31 06:47:33.9	90.260	0.270	-0.910	-0.500
2020/01/31 06:47:34.0	90.280	0.270	-0.910	-0.560
2020/01/31 06:47:34.1	90.310	0.270	-0.900	-0.600
2020/01/31 06:47:34.2	90.330	0.270	-0.890	-0.640
2020/01/31 06:47:34.3	90.350	0.260	-0.880	-0.680
2020/01/31 06:47:34.4	90.370	0.260	-0.850	-0.710
2020/01/31 06:47:34.5	90.380	0.240	-0.820	-0.740
2020/01/31 06:47:34.6	90.400	0.230	-0.780	-0.760
2020/01/31 06:47:34.7	90.410	0.220	-0.740	-0.770
2020/01/31 06:47:34.8	90.420	0.200	-0.690	-0.780
2020/01/31 06:47:34.9	90.430	0.180	-0.640	-0.780
2020/01/31 06:47:35.0	90.440	0.160	-0.580	-0.770
2020/01/31 06:47:35.1	90.450	0.140	-0.520	-0.760
2020/01/31 06:47:35.2	90.450	0.120	-0.450	-0.740
2020/01/31 06:47:35.3	90.450	0.090	-0.390	-0.710
2020/01/31 06:47:35.4	90.450	0.070	-0.330	-0.670
2020/01/31 06:47:35.5	90.450	0.050	-0.260	-0.630
2020/01/31 06:47:35.6	90.450	0.020	-0.200	-0.580
2020/01/31 06:47:35.7	90.440	-0.000	-0.130	-0.530
2020/01/31 06:47:35.8	90.440	-0.030	-0.070	-0.470
2020/01/31 06:47:35.9	90.440	-0.050	-0.010	-0.400
2020/01/31 06:47:36.0	90.430	-0.070	0.040	-0.330
2020/01/31 06:47:36.1	90.420	-0.090	0.100	-0.250
2020/01/31 06:47:36.2	90.410	-0.110	0.140	-0.170
2020/01/31 06:47:36.3	90.400	-0.130	0.180	-0.090
2020/01/31 06:47:36.4	90.390	-0.140	0.220	0.000
2020/01/31 06:47:36.5	90.380	-0.160	0.260	0.090
2020/01/31 06:47:36.6	90.370	-0.170	0.280	0.180
2020/01/31 06:47:36.7	90.360	-0.180	0.300	0.280
2020/01/31 06:47:36.8	90.350	-0.180	0.320	0.370
2020/01/31 06:47:36.9	90.340	-0.190	0.330	0.460
2020/01/31 06:47:37.0	90.320	-0.190	0.330	0.550
2020/01/31 06:47:37.1	90.310	-0.190	0.320	0.650
2020/01/31 06:47:37.2	90.300	-0.190	0.310	0.740
2020/01/31 06:47:37.3	90.290	-0.190	0.300	0.830
2020/01/31 06:47:37.4	90.280	-0.180	0.280	0.910
2020/01/31 06:47:37.5	90.270	-0.170	0.250	1.000
2020/01/31 06:47:37.6	90.250	-0.160	0.220	1.080
2020/01/31 06:47:37.7	90.240	-0.150	0.180	1.150
2020/01/31 06:47:37.8	90.230	-0.140	0.140	1.220
2020/01/31 06:47:37.9	90.220	-0.120	0.090	1.290
2020/01/31 06:47:38.0	90.220	-0.110	0.050	1.360
2020/01/31 06:47:38.1	90.210	-0.090	-0.010	1.420
2020/01/31 06:47:38.2	90.200	-0.070	-0.060	1.480
2020/01/31 06:47:38.3	90.190	-0.050	-0.110	1.530
2020/01/31 06:47:38.4	90.190	-0.030	-0.170	1.580
2020/01/31 06:47:38.5	90.180	-0.000	-0.220	1.630
2020/01/31 06:47:38.6	90.180	0.020	-0.280	1.670
2020/01/31 06:47:38.7	90.170	0.040	-0.340	1.700
2020/01/31 06:47:38.8	90.170	0.070	-0.390	1.730
2020/01/31 06:47:38.9	90.170	0.090	-0.450	1.760
2020/01/31 06:47:39.0	90.170	0.120	-0.500	1.780
2020/01/31 06:47:39.1	90.170	0.140	-0.550	1.800
2020/01/31 06:47:39.2	90.170	0.170	-0.600	1.810
2020/01/31 06:47:39.3	90.180	0.190	-0.640	1.820
2020/01/31 06:47:39.4	90.180	0.210	-0.680	1.830
2020/01/31 06:47:39.5	90.190	0.240	-0.720	1.830
2020/01/31 06:47:39.6	90.190	0.260	-0.750	1.820
2020/01/31 06:47:39.7	90.200	0.290	-0.780	1.820
2020/01/31 06:47:39.8	90.210	0.310	-0.800	1.810
2020/01/31 06:47:39.9	90.220	0.330	-0.820	1.790
2020/01/31 06:47:40.0	90.230	0.350	-0.840	1.780
2020/01/31 06:47:40.1	90.240	0.380	-0.850	1.760
2020/01/31 06:47:40.2	90.260	0.400	-0.850	1.730
2020/01/31 06:47:40.3	90.280	0.420	-0.860	1.710
2020/01/31 06:47:40.4	90.290	0.440	-0.850	1.680
2020/01/31 06:47:40.5	90.300	0.450	-0.850	1.650
2020/01/31 06:47:40.6	90.310	0.470	-0.840	1.620
2020/01/31 06:47:40.7	90.320	0.480	-0.820	1.590
2020/01/31 06:47:40.8	90.330	0.500	-0.810	1.560
2020/01/31 06:47:40.9	90.340	0.510	-0.780	1.530
2020/01/31 06:47:41.0	90.350	0.520	-0.760	1.490
2020/01/31 06:47:41.1	90.360	0.530	-0.730	1.460
2020/01/31 06:47:41.2	90.360	0.540	-0.690	1.430
2020/01/31 06:47:41.3	90.370	0.540	-0.660	1.390
2020/01/31 06:47:41.4	90.370	0.540	-0.620	1.360
2020/01/31 06:47:41.5	90.380	0.540	-0.570	1.330
2020/01/31 06:47:41.6	90.380	0.530	-0.520	1.290
2020/01/31 06:47:41.7	90.390	0.530	-0.470	1.260
2020/01/31 06:47:41.8	90.390	0.520	-0.420	1.230
2020/01/31 06:47:41.9	90.400	0.500	-0.360	1.190
2020/01/31 06:47:42.0	90.400	0.490	-0.310	1.160
2020/01/31 06:47:42.1	90.400	0.470	-0.250	1.130
2020/01/31 06:47:42.2	90.410	0.450	-0.180	1.100
2020/01/31 06:47:42.3	90.410	0.420	-0.120	1.070
2020/01/31 06:47:42.4	90.420	0.390	-0.060	1.040
2020/01/31 06:47:42.5	90.420	0.360	0.010	1.010
2020/01/31 06:47:42.6	90.430	0.330	0.070	0.980
2020/01/31 06:47:42.7	90.430	0.290	0.140	0.950
2020/01/31 06:47:42.8	90.440	0.250	0.200	0.920
2020/01/31 06:47:42.9	90.450	0.210	0.270	0.890
2020/01/31 06:47:43.0	90.450	0.170	0.330	0.870
2020/01/31 06:47:43.1	90.460	0.130	0.390	0.840
2020/01/31 06:47:43.2	90.470	0.080	0.450	0.820
2020/01/31 06:47:43.3	90.480	0.040	0.500	0.800
2020/01/31 06:47:43.4	90.490	-0.010	0.560	0.770
2020/01/31 06:47:43.5	90.500	-0.060	0.610	0.750
2020/01/31 06:47:43.6	90.510	-0.100	0.660	0.730
2020/01/31 06:47:43.7	90.530	-0.150	0.700	0.710
2020/01/31 06:47:43.8	90.540	-0.200	0.740	0.690
2020/01/31 06:47:43.9	90.550	-0.250	0.780	0.670
2020/01/31 06:47:44.0	90.570	-0.290	0.810	0.650
2020/01/31 06:47:44.1	90.580	-0.340	0.840	0.630
2020/01/31 06:47:44.2	90.600	-0.380	0.870	0.610
2020/01/31 06:47:44.3	90.610	-0.420	0.890	0.590
2020/01/31 06:47:44.4	90.630	-0.460	0.910	0.570
2020/01/31 06:47:44.5	90.640	-0.500	0.920	0.550
2020/01/31 06:47:44.6	90.660	-0.540	0.920	0.530
2020/01/31 06:47:44.7	90.670	-0.570	0.930	0.510
2020/01/31 06:47:44.8	90.690	-0.600	0.920	0.490
2020/01/31 06:47:44.9	90.700	-0.630	0.920	0.470
2020/01/31 06:47:45.0	90.720	-0.660	0.900	0.450
2020/01/31 06:47:45.1	90.730	-0.690	0.890	0.430
2020/01/31 06:47:45.2	90.740	-0.710	0.870	0.410
2020/01/31 06:47:45.3	90.760	-0.730	0.840	0.390
2020/01/31 06:47:45.4	90.770	-0.740	0.810	0.370
2020/01/31 06:47:45.5	90.780	-0.760	0.770	0.350
2020/01/31 06:47:45.6	90.800	-0.770	0.730	0.330
2020/01/31 06:47:45.7	90.810	-0.780	0.680	0.310
2020/01/31 06:47:45.8	90.820	-0.780	0.630	0.280
2020/01/31 06:47:45.9	90.830	-0.780	0.580	0.260
2020/01/31 06:47:46.0	90.840	-0.780	0.520	0.240
2020/01/31 06:47:46.1	90.850	-0.780	0.460	0.210
2020/01/31 06:47:46.2	90.870	-0.770	0.390	0.190
2020/01/31 06:47:46.3	90.880	-0.760	0.320	0.160
2020/01/31 06:47:46.4	90.890	-0.750	0.250	0.140
2020/01/31 06:47:46.5	90.900	-0.740	0.170	0.110
2020/01/31 06:47:46.6	90.920	-0.720	0.090	0.090
2020/01/31 06:47:46.7	90.930	-0.700	0.010	0.060
2020/01/31 06:47:46.8	90.940	-0.680	-0.070	0.040
2020/01/31 06:47:46.9	90.960	-0.650	-0.160	0.010
2020/01/31 06:47:47.0	90.970	-0.620	-0.240	-0.010
2020/01/31 06:47:47.1	90.980	-0.590	-0.330	-0.030
2020/01/31 06:47:47.2	91.000	-0.560	-0.420	-0.060
2020/01/31 06:47:47.3	91.010	-0.520	-0.500	-0.080
2020/01/31 06:47:47.4	91.030	-0.490	-0.590	-0.090
2020/01/31 06:47:47.5	91.040	-0.450	-0.670	-0.110
2020/01/31 06:47:47.6	91.050	-0.410	-0.750	-0.120
2020/01/31 06:47:47.7	91.070	-0.370	-0.840	-0.130
2020/01/31 06:47:47.8	91.080	-0.320	-0.910	-0.130
2020/01/31 06:47:47.9	91.090	-0.280	-0.990	-0.130
2020/01/31 06:47:48.0	91.090	-0.230	-1.060	-0.130
2020/01/31 06:47:48.1	91.100	-0.180	-1.130	-0.120
2020/01/31 06:47:48.2	91.100	-0.130	-1.200	-0.110
2020/01/31 06:47:48.3	91.100	-0.080	-1.260	-0.100
2020/01/31 06:47:48.4	91.100	-0.030	-1.320	-0.080
2020/01/31 06:47:48.5	91.100	0.020	-1.370	-0.060
2020/01/31 06:47:48.6	91.100	0.070	-1.410	-0.040
2020/01/31 06:47:48.7	91.090	0.120	-1.450	-0.010
2020/01/31 06:47:48.8	91.090	0.170	-1.480	0.020
2020/01/31 06:47:48.9	91.080	0.210	-1.510	0.050
2020/01/31 06:47:49.0	91.070	0.260	-1.530	0.090
2020/01/31 06:47:49.1	91.070	0.310	-1.540	0.120
2020/01/31 06:47:49.2	91.050	0.350	-1.550	0.160
2020/01/31 06:47:49.3	91.040	0.390	-1.540	0.200
2020/01/31 06:47:49.4	91.030	0.430	-1.530	0.240
2020/01/31 06:47:49.5	91.010	0.470	-1.520	0.290
2020/01/31 06:47:49.6	91.000	0.500	-1.490	0.330
2020/01/31 06:47:49.7	90.990	0.530	-1.460	0.370
2020/01/31 06:47:49.8	90.980	0.560	-1.420	0.410
2020/01/31 06:47:49.9	90.960	0.580	-1.370	0.450
2020/01/31 06:47:50.0	90.950	0.610	-1.320	0.500
2020/01/31 06:47:50.1	90.940	0.620	-1.260	0.540
2020/01/31 06:47:50.2	90.920	0.640	-1.190	0.580
2020/01/31 06:47:50.3	90.900	0.650	-1.120	0.620
2020/01/31 06:47:50.4	90.890	0.650	-1.040	0.660
2020/01/31 06:47:50.5	90.880	0.650	-0.950	0.700
2020/01/31 06:47:50.6	90.870	0.650	-0.860	0.740
2020/01/31 06:47:50.7	90.860	0.650	-0.770	0.770
2020/01/31 06:47:50.8	90.860	0.640	-0.670	0.810
2020/01/31 06:47:50.9	90.850	0.620	-0.560	0.840
2020/01/31 06:47:51.0	90.840	0.610	-0.460	0.870
2020/01/31 06:47:51.1	90.840	0.590	-0.350	0.890
2020/01/31 06:47:51.2	90.840	0.570	-0.240	0.920
2020/01/31 06:47:51.3	90.840	0.540	-0.140	0.940
2020/01/31 06:47:51.4	90.840	0.510	-0.030	0.960
2020/01/31 06:47:51.5	90.840	0.480	0.080	0.970
2020/01/31 06:47:51.6	90.840	0.450	0.180	0.980
2020/01/31 06:47:51.7	90.850	0.410	0.290	0.990
2020/01/31 06:47:51.8	90.850	0.370	0.390	0.990
2020/01/31 06:47:51.9	90.860	0.340	0.480	0.990
2020/01/31 06:47:52.0	90.870	0.300	0.570	0.990
2020/01/31 06:47:52.1	90.880	0.260	0.660	0.980
2020/01/31 06:47:52.2	90.890	0.220	0.740	0.970
2020/01/31 06:47:52.3	90.900	0.180	0.820	0.960
2020/01/31 06:47:52.4	90.920	0.140	0.880	0.940
2020/01/31 06:47:52.5	90.930	0.100	0.950	0.920
2020/01/31 06:47:52.6	90.950	0.060	1.000	0.900
2020/01/31 06:47:52.7	90.970	0.020	1.050	0.880
2020/01/31 06:47:52.8	90.980	-0.020	1.090	0.860
2020/01/31 06:47:52.9	91.000	-0.050	1.120	0.830
2020/01/31 06:47:53.0	91.020	-0.090	1.140	0.800
2020/01/31 06:47:53.1	91.040	-0.120	1.160	0.770
2020/01/31 06:47:53.2	91.060	-0.150	1.170	0.740
2020/01/31 06:47:53.3	91.080	-0.170	1.160	0.710
2020/01/31 06:47:53.4	91.100	-0.200	1.160	0.680
2020/01/31 06:47:53.5	91.120	-0.220	1.140	0.640
2020/01/31 06:47:53.6	91.140	-0.240	1.120	0.610
2020/01/31 06:47:53.7	91.170	-0.250	1.090	0.580
2020/01/31 06:47:53.8	91.190	-0.270	1.050	0.540
2020/01/31 06:47:53.9	91.210	-0.280	1.000	0.510
2020/01/31 06:47:54.0	91.230	-0.290	0.950	0.480
2020/01/31 06:47:54.1	91.250	-0.290	0.900	0.450
2020/01/31 06:47:54.2	91.270	-0.290	0.830	0.420
2020/01/31 06:47:54.3	91.290	-0.290	0.770	0.390
2020/01/31 06:47:54.4	91.310	-0.290	0.700	0.360
2020/01/31 06:47:54.5	91.330	-0.290	0.620	0.340
2020/01/31 06:47:54.6	91.340	-0.280	0.540	0.310
2020/01/31 06:47:54.7	91.360	-0.270	0.460	0.290
2020/01/31 06:47:54.8	91.380	-0.260	0.370	0.270
2020/01/31 06:47:54.9	91.400	-0.240	0.290	0.250
2020/01/31 06:47:55.0	91.410	-0.230	0.200	0.230
2020/01/31 06:47:55.1	91.430	-0.210	0.110	0.210
2020/01/31 06:47:55.2	91.450	-0.200	0.020	0.190
2020/01/31 06:47:55.3	91.470	-0.180	-0.060	0.180
2020/01/31 06:47:55.4	91.480	-0.160	-0.150	0.160
2020/01/31 06:47:55.5	91.500	-0.140	-0.230	0.150
2020/01/31 06:47:55.6	91.510	-0.120	-0.310	0.130
2020/01/31 06:47:55.7	91.530	-0.110	-0.390	0.120
2020/01/31 06:47:55.8	91.540	-0.090	-0.470	0.110
2020/01/31 06:47:55.9	91.550	-0.070	-0.540	0.100
2020/01/31 06:47:56.0	91.570	-0.060	-0.610	0.090
2020/01/31 06:47:56.1	91.580	-0.040	-0.670	0.080
2020/01/31 06:47:56.2	91.600	-0.030	-0.730	0.070
2020/01/31 06:47:56.3	91.610	-0.010	-0.780	0.060
2020/01/31 06:47:56.4	91.620	-0.000	-0.830	0.060
2020/01/31 06:47:56.5	91.630	0.010	-0.880	0.050
2020/01/31 06:47:56.6	91.650	0.020	-0.910	0.050
2020/01/31 06:47:56.7	91.660	0.030	-0.950	0.050
2020/01/31 06:47:56.8	91.670	0.040	-0.970	0.050
2020/01/31 06:47:56.9	91.680	0.040	-1.000	0.050
2020/01/31 06:47:57.0	91.690	0.050	-1.010	0.050
2020/01/31 06:47:57.1	91.690	0.050	-1.020	0.060
2020/01/31 06:47:57.2	91.710	0.050	-1.030	0.070
2020/01/31 06:47:57.3	91.710	0.060	-1.030	0.080
2020/01/31 06:47:57.4	91.720	0.060	-1.030	0.100
2020/01/31 06:47:57.5	91.720	0.060	-1.030	0.120
2020/01/31 06:47:57.6	91.720	0.060	-1.020	0.140
2020/01/31 06:47:57.7	91.720	0.060	-1.010	0.160
2020/01/31 06:47:57.8	91.720	0.060	-0.990	0.190
2020/01/31 06:47:57.9	91.720	0.070	-0.970	0.220
2020/01/31 06:47:58.0	91.710	0.070	-0.950	0.250
2020/01/31 06:47:58.1	91.710	0.070	-0.930	0.280
2020/01/31 06:47:58.2	91.710	0.070	-0.900	0.320
2020/01/31 06:47:58.3	91.710	0.070	-0.870	0.360
2020/01/31 06:47:58.4	91.700	0.070	-0.840	0.390
2020/01/31 06:47:58.5	91.690	0.070	-0.800	0.430
2020/01/31 06:47:58.6	91.690	0.070	-0.760	0.470
2020/01/31 06:47:58.7	91.680	0.070	-0.720	0.510
2020/01/31 06:47:58.8	91.670	0.070	-0.680	0.550
2020/01/31 06:47:58.9	91.660	0.070	-0.630	0.590
2020/01/31 06:47:59.0	91.650	0.070	-0.580	0.630
2020/01/31 06:47:59.1	91.640	0.060	-0.530	0.670
2020/01/31 06:47:59.2	91.640	0.060	-0.480	0.700
2020/01/31 06:47:59.3	91.630	0.060	-0.420	0.740
2020/01/31 06:47:59.4	91.620	0.060	-0.370	0.770
2020/01/31 06:47:59.5	91.610	0.050	-0.310	0.800
2020/01/31 06:47:59.6	91.600	0.050	-0.250	0.830
2020/01/31 06:47:59.7	91.590	0.050	-0.200	0.860
2020/01/31 06:47:59.8	91.580	0.040	-0.140	0.880
2020/01/31 06:47:59.9	91.560	0.040	-0.080	0.910
2020/01/31 06:48:00.0	91.550	0.030	-0.020	0.930
2020/01/31 06:48:00.1	91.540	0.020	0.030	0.940
2020/01/31 06:48:00.2	91.520	0.020	0.080	0.960
2020/01/31 06:48:00.3	91.510	0.010	0.140	0.970
2020/01/31 06:48:00.4	91.500	-0.000	0.190	0.980
2020/01/31 06:48:00.5	91.490	-0.010	0.240	0.990
2020/01/31 06:48:00.6	91.470	-0.020	0.290	0.990
2020/01/31 06:48:00.7	91.460	-0.030	0.340	0.990
2020/01/31 06:48:00.8	91.450	-0.040	0.380	0.990
2020/01/31 06:48:00.9	91.440	-0.050	0.420	0.990
2020/01/31 06:48:01.0	91.430	-0.060	0.450	0.990
2020/01/31 06:48:01.1	91.420	-0.070	0.490	0.980
2020/01/31 06:48:01.2	91.420	-0.080	0.520	0.980
2020/01/31 06:48:01.3	91.410	-0.090	0.540	0.960
2020/01/31 06:48:01.4	91.410	-0.100	0.560	0.950
2020/01/31 06:48:01.5	91.400	-0.100	0.570	0.930
2020/01/31 06:48:01.6	91.390	-0.110	0.580	0.910
2020/01/31 06:48:01.7	91.390	-0.120	0.580	0.890
2020/01/31 06:48:01.8	91.390	-0.130	0.580	0.870
2020/01/31 06:48:01.9	91.390	-0.130	0.570	0.840
2020/01/31 06:48:02.0	91.390	-0.140	0.560	0.810
2020/01/31 06:48:02.1	91.390	-0.140	0.540	0.780
2020/01/31 06:48:02.2	91.400	-0.140	0.510	0.750
2020/01/31 06:48:02.3	91.410	-0.140	0.480	0.710
2020/01/31 06:48:02.4	91.420	-0.140	0.440	0.670
2020/01/31 06:48:02.5	91.430	-0.140	0.400	0.640
2020/01/31 06:48:02.6	91.450	-0.140	0.360	0.590
2020/01/31 06:48:02.7	91.470	-0.130	0.310	0.550
2020/01/31 06:48:02.8	91.490	-0.130	0.250	0.510
2020/01/31 06:48:02.9	91.510	-0.120	0.190	0.460
2020/01/31 06:48:03.0	91.530	-0.110	0.130	0.420
2020/01/31 06:48:03.1	91.550	-0.100	0.070	0.370
2020/01/31 06:48:03.2	91.580	-0.090	-0.010	0.320
2020/01/31 06:48:03.3	91.600	-0.070	-0.070	0.270
2020/01/31 06:48:03.4	91.630	-0.060	-0.140	0.230
2020/01/31 06:48:03.5	91.660	-0.040	-0.210	0.180
2020/01/31 06:48:03.6	91.690	-0.030	-0.280	0.130
2020/01/31 06:48:03.7	91.710	-0.010	-0.350	0.090
2020/01/31 06:48:03.8	91.740	0.010	-0.420	0.050
2020/01/31 06:48:03.9	91.760	0.020	-0.480	0.000
2020/01/31 06:48:04.0	91.780	0.040	-0.540	-0.030
2020/01/31 06:48:04.1	91.810	0.060	-0.600	-0.070
2020/01/31 06:48:04.2	91.820	0.080	-0.640	-0.100
2020/01/31 06:48:04.3	91.830	0.090	-0.690	-0.140
2020/01/31 06:48:04.4	91.850	0.110	-0.730	-0.160
2020/01/31 06:48:04.5	91.860	0.120	-0.760	-0.190
2020/01/31 06:48:04.6	91.880	0.140	-0.790	-0.210
2020/01/31 06:48:04.7	91.880	0.150	-0.810	-0.240
2020/01/31 06:48:04.8	91.890	0.160	-0.830	-0.250
2020/01/31 06:48:04.9	91.900	0.180	-0.840	-0.270
2020/01/31 06:48:05.0	91.900	0.180	-0.840	-0.280
2020/01/31 06:48:05.1	91.900	0.190	-0.830	-0.290
2020/01/31 06:48:05.2	91.910	0.200	-0.820	-0.290
2020/01/31 06:48:05.3	91.910	0.200	-0.800	-0.290
2020/01/31 06:48:05.4	91.910	0.210	-0.770	-0.290
2020/01/31 06:48:05.5	91.910	0.210	-0.740	-0.290
2020/01/31 06:48:05.6	91.900	0.210	-0.700	-0.280
2020/01/31 06:48:05.7	91.900	0.210	-0.660	-0.270
2020/01/31 06:48:05.8	91.890	0.200	-0.610	-0.260
2020/01/31 06:48:05.9	91.890	0.200	-0.560	-0.240
2020/01/31 06:48:06.0	91.880	0.190	-0.510	-0.230
2020/01/31 06:48:06.1	91.870	0.190	-0.460	-0.210
2020/01/31 06:48:06.2	91.860	0.180	-0.390	-0.180
2020/01/31 06:48:06.3	91.850	0.170	-0.340	-0.160
2020/01/31 06:48:06.4	91.850	0.160	-0.280	-0.140
2020/01/31 06:48:06.5	91.840	0.140	-0.220	-0.110
2020/01/31 06:48:06.6	91.840	0.130	-0.170	-0.090
2020/01/31 06:48:06.7	91.830	0.120	-0.110	-0.060
2020/01/31 06:48:06.8	91.830	0.100	-0.060	-0.030
2020/01/31 06:48:06.9	91.820	0.090	-0.010	-0.000
2020/01/31 06:48:07.0	91.820	0.070	0.040	0.030
2020/01/31 06:48:07.1	91.820	0.060	0.080	0.060
2020/01/31 06:48:07.2	91.810	0.040	0.120	0.090
2020/01/31 06:48:07.3	91.810	0.030	0.150	0.120
2020/01/31 06:48:07.4	91.810	0.010	0.180	0.150
2020/01/31 06:48:07.5	91.810	-0.010	0.210	0.180
2020/01/31 06:48:07.6	91.810	-0.030	0.230	0.220
2020/01/31 06:48:07.7	91.800	-0.040	0.250	0.250
2020/01/31 06:48:07.8	91.800	-0.060	0.260	0.280
2020/01/31 06:48:07.9	91.800	-0.080	0.270	0.320
2020/01/31 06:48:08.0	91.800	-0.090	0.280	0.350
2020/01/31 06:48:08.1	91.800	-0.110	0.280	0.390
2020/01/31 06:48:08.2	91.800	-0.130	0.280	0.420
2020/01/31 06:48:08.3	91.790	-0.140	0.280	0.460
2020/01/31 06:48:08.4	91.790	-0.160	0.270	0.490
2020/01/31 06:48:08.5	91.790	-0.170	0.260	0.530
2020/01/31 06:48:08.6	91.790	-0.190	0.250	0.560
2020/01/31 06:48:08.7	91.780	-0.200	0.240	0.600
2020/01/31 06:48:08.8	91.780	-0.220	0.220	0.630
2020/01/31 06:48:08.9	91.780	-0.230	0.210	0.670
2020/01/31 06:48:09.0	91.770	-0.250	0.190	0.700
2020/01/31 06:48:09.1	91.770	-0.260	0.180	0.740
2020/01/31 06:48:09.2	91.760	-0.280	0.160	0.770
2020/01/31 06:48:09.3	91.750	-0.290	0.150	0.800
2020/01/31 06:48:09.4	91.740	-0.300	0.130	0.840
2020/01/31 06:48:09.5	91.730	-0.310	0.110	0.870
2020/01/31 06:48:09.6	91.720	-0.320	0.090	0.900
2020/01/31 06:48:09.7	91.710	-0.330	0.080	0.940
2020/01/31 06:48:09.8	91.690	-0.340	0.060	0.970
2020/01/31 06:48:09.9	91.680	-0.350	0.040	1.000
2020/01/31 06:48:10.0	91.660	-0.360	0.030	1.030
2020/01/31 06:48:10.1	91.640	-0.360	0.010	1.060
2020/01/31 06:48:10.2	91.630	-0.370	-0.000	1.100
2020/01/31 06:48:10.3	91.610	-0.370	-0.020	1.130
2020/01/31 06:48:10.4	91.590	-0.370	-0.030	1.150
2020/01/31 06:48:10.5	91.570	-0.370	-0.050	1.180
2020/01/31 06:48:10.6	91.540	-0.370	-0.060	1.210
2020/01/31 06:48:10.7	91.520	-0.370	-0.080	1.230
2020/01/31 06:48:10.8	91.500	-0.360	-0.090	1.250
2020/01/31 06:48:10.9	91.480	-0.360	-0.110	1.270
2020/01/31 06:48:11.0	91.460	-0.350	-0.120	1.290
2020/01/31 06:48:11.1	91.450	-0.340	-0.130	1.300
2020/01/31 06:48:11.2	91.430	-0.330	-0.150	1.310
2020/01/31 06:48:11.3	91.420	-0.320	-0.160	1.320
2020/01/31 06:48:11.4	91.410	-0.310	-0.180	1.320
2020/01/31 06:48:11.5	91.400	-0.290	-0.190	1.310
2020/01/31 06:48:11.6	91.390	-0.280	-0.200	1.310
2020/01/31 06:48:11.7	91.390	-0.260	-0.220	1.300
2020/01/31 06:48:11.8	91.390	-0.240	-0.230	1.280
2020/01/31 06:48:11.9	91.390	-0.220	-0.240	1.260
2020/01/31 06:48:12.0	91.390	-0.200	-0.250	1.240
2020/01/31 06:48:12.1	91.400	-0.170	-0.270	1.210
2020/01/31 06:48:12.2	91.400	-0.150	-0.280	1.170
2020/01/31 06:48:12.3	91.420	-0.120	-0.290	1.140
2020/01/31 06:48:12.4	91.430	-0.090	-0.300	1.090
2020/01/31 06:48:12.5	91.440	-0.060	-0.320	1.050
2020/01/31 06:48:12.6	91.460	-0.030	-0.330	1.000
2020/01/31 06:48:12.7	91.480	-0.000	-0.340	0.950
2020/01/31 06:48:12.8	91.490	0.030	-0.360	0.890
2020/01/31 06:48:12.9	91.510	0.060	-0.370	0.840
2020/01/31 06:48:13.0	91.530	0.090	-0.390	0.780
2020/01/31 06:48:13.1	91.550	0.130	-0.400	0.720
2020/01/31 06:48:13.2	91.580	0.160	-0.420	0.660
2020/01/31 06:48:13.3	91.590	0.200	-0.430	0.600
2020/01/31 06:48:13.4	91.610	0.240	-0.450	0.540
2020/01/31 06:48:13.5	91.630	0.270	-0.470	0.480
2020/01/31 06:48:13.6	91.640	0.310	-0.480	0.420
2020/01/31 06:48:13.7	91.660	0.340	-0.500	0.370
2020/01/31 06:48:13.8	91.670	0.380	-0.520	0.320
2020/01/31 06:48:13.9	91.680	0.410	-0.540	0.270
2020/01/31 06:48:14.0	91.680	0.440	-0.550	0.220
2020/01/31 06:48:14.1	91.690	0.470	-0.570	0.170
2020/01/31 06:48:14.2	91.690	0.500	-0.580	0.130
2020/01/31 06:48:14.3	91.700	0.530	-0.590	0.090
2020/01/31 06:48:14.4	91.700	0.560	-0.600	0.060
2020/01/31 06:48:14.5	91.690	0.580	-0.610	0.030
2020/01/31 06:48:14.6	91.690	0.600	-0.610	-0.000
2020/01/31 06:48:14.7	91.690	0.620	-0.620	-0.030
2020/01/31 06:48:14.8	91.680	0.640	-0.620	-0.050
2020/01/31 06:48:14.9	91.680	0.650	-0.620	-0.070
2020/01/31 06:48:15.0	91.670	0.660	-0.610	-0.090
2020/01/31 06:48:15.1	91.660	0.660	-0.600	-0.100
2020/01/31 06:48:15.2	91.650	0.670	-0.600	-0.120
2020/01/31 06:48:15.3	91.640	0.670	-0.580	-0.130
2020/01/31 06:48:15.4	91.630	0.660	-0.570	-0.130
2020/01/31 06:48:15.5	91.620	0.650	-0.550	-0.130
2020/01/31 06:48:15.6	91.610	0.640	-0.520	-0.130
2020/01/31 06:48:15.7	91.600	0.630	-0.500	-0.130
2020/01/31 06:48:15.8	91.600	0.610	-0.470	-0.120
2020/01/31 06:48:15.9	91.590	0.590	-0.440	-0.120
2020/01/31 06:48:16.0	91.580	0.570	-0.400	-0.100
2020/01/31 06:48:16.1	91.570	0.540	-0.370	-0.090
2020/01/31 06:48:16.2	91.560	0.510	-0.320	-0.070
2020/01/31 06:48:16.3	91.550	0.480	-0.280	-0.060
2020/01/31 06:48:16.4	91.550	0.450	-0.240	-0.040
2020/01/31 06:48:16.5	91.540	0.410	-0.200	-0.020
2020/01/31 06:48:16.6	91.540	0.380	-0.160	0.010
2020/01/31 06:48:16.7	91.530	0.340	-0.110	0.030
2020/01/31 06:48:16.8	91.530	0.300	-0.070	0.050
2020/01/31 06:48:16.9	91.520	0.260	-0.020	0.080
2020/01/31 06:48:17.0	91.520	0.220	0.020	0.110
2020/01/31 06:48:17.1	91.520	0.180	0.060	0.130
2020/01/31 06:48:17.2	91.500	0.140	0.100	0.160
2020/01/31 06:48:17.3	91.500	0.100	0.140	0.190
2020/01/31 06:48:17.4	91.500	0.060	0.180	0.210
2020/01/31 06:48:17.5	91.500	0.020	0.220	0.240
2020/01/31 06:48:17.6	91.500	-0.020	0.250	0.260
2020/01/31 06:48:17.7	91.500	-0.060	0.280	0.290
2020/01/31 06:48:17.8	91.500	-0.090	0.310	0.310
2020/01/31 06:48:17.9	91.500	-0.130	0.340	0.330
2020/01/31 06:48:18.0	91.500	-0.160	0.360	0.360
2020/01/31 06:48:18.1	91.500	-0.190	0.380	0.380
2020/01/31 06:48:18.2	91.510	-0.220	0.400	0.400
2020/01/31 06:48:18.3	91.510	-0.240	0.420	0.410
2020/01/31 06:48:18.4	91.520	-0.270	0.430	0.430
2020/01/31 06:48:18.5	91.520	-0.290	0.440	0.450
2020/01/31 06:48:18.6	91.520	-0.310	0.440	0.460
2020/01/31 06:48:18.7	91.520	-0.320	0.440	0.480
2020/01/31 06:48:18.8	91.530	-0.330	0.440	0.490
2020/01/31 06:48:18.9	91.530	-0.340	0.430	0.510
2020/01/31 06:48:19.0	91.540	-0.350	0.420	0.520
2020/01/31 06:48:19.1	91.540	-0.350	0.410	0.530
2020/01/31 06:48:19.2	91.550	-0.360	0.390	0.540
2020/01/31 06:48:19.3	91.560	-0.350	0.370	0.550
2020/01/31 06:48:19.4	91.560	-0.350	0.350	0.560
2020/01/31 06:48:19.5	91.570	-0.340	0.320	0.570
2020/01/31 06:48:19.6	91.580	-0.330	0.290	0.580
2020/01/31 06:48:19.7	91.590	-0.320	0.260	0.600
2020/01/31 06:48:19.8	91.600	-0.310	0.220	0.610
2020/01/31 06:48:19.9	91.610	-0.290	0.180	0.620
2020/01/31 06:48:20.0	91.620	-0.270	0.140	0.630
2020/01/31 06:48:20.1	91.630	-0.260	0.100	0.650
2020/01/31 06:48:20.2	91.650	-0.230	0.050	0.660
2020/01/31 06:48:20.3	91.660	-0.210	-0.000	0.680
2020/01/31 06:48:20.4	91.670	-0.190	-0.050	0.700
2020/01/31 06:48:20.5	91.680	-0.170	-0.100	0.720
2020/01/31 06:48:20.6	91.690	-0.140	-0.150	0.750
2020/01/31 06:48:20.7	91.700	-0.120	-0.200	0.770
2020/01/31 06:48:20.8	91.700	-0.100	-0.260	0.800
2020/01/31 06:48:20.9	91.710	-0.080	-0.300	0.830
2020/01/31 06:48:21.0	91.720	-0.060	-0.350	0.860
2020/01/31 06:48:21.1	91.720	-0.040	-0.400	0.890
2020/01/31 06:48:21.2	91.720	-0.020	-0.440	0.930
2020/01/31 06:48:21.3	91.720	-0.000	-0.480	0.970
2020/01/31 06:48:21.4	91.720	0.010	-0.520	1.000
2020/01/31 06:48:21.5	91.710	0.020	-0.550	1.040
2020/01/31 06:48:21.6	91.710	0.030	-0.580	1.080
2020/01/31 06:48:21.7	91.700	0.040	-0.600	1.120
2020/01/31 06:48:21.8	91.690	0.040	-0.620	1.160
2020/01/31 06:48:21.9	91.680	0.040	-0.630	1.190
2020/01/31 06:48:22.0	91.670	0.040	-0.640	1.230
2020/01/31 06:48:22.1	91.660	0.030	-0.640	1.260
2020/01/31 06:48:22.2	91.650	0.020	-0.630	1.300
2020/01/31 06:48:22.3	91.640	0.010	-0.620	1.330
2020/01/31 06:48:22.4	91.620	-0.010	-0.610	1.350
2020/01/31 06:48:22.5	91.600	-0.030	-0.580	1.380
2020/01/31 06:48:22.6	91.590	-0.050	-0.560	1.400
2020/01/31 06:48:22.7	91.570	-0.070	-0.530	1.420
2020/01/31 06:48:22.8	91.550	-0.100	-0.500	1.430
2020/01/31 06:48:22.9	91.530	-0.130	-0.460	1.440
2020/01/31 06:48:23.0	91.510	-0.150	-0.420	1.450
2020/01/31 06:48:23.1	91.490	-0.190	-0.370	1.450
2020/01/31 06:48:23.2	91.470	-0.220	-0.320	1.440
2020/01/31 06:48:23.3	91.460	-0.250	-0.280	1.440
2020/01/31 06:48:23.4	91.440	-0.280	-0.230	1.430
2020/01/31 06:48:23.5	91.420	-0.310	-0.170	1.410
2020/01/31 06:48:23.6	91.410	-0.350	-0.120	1.400
2020/01/31 06:48:23.7	91.390	-0.380	-0.070	1.370
2020/01/31 06:48:23.8	91.370	-0.410	-0.020	1.350
2020/01/31 06:48:23.9	91.360	-0.440	0.030	1.320
2020/01/31 06:48:24.0	91.350	-0.460	0.080	1.290
2020/01/31 06:48:24.1	91.330	-0.490	0.120	1.250
2020/01/31 06:48:24.2	91.330	-0.510	0.170	1.210
2020/01/31 06:48:24.3	91.320	-0.530	0.200	1.170
2020/01/31 06:48:24.4	91.310	-0.540	0.240	1.130
2020/01/31 06:48:24.5	91.310	-0.550	0.270	1.080
2020/01/31 06:48:24.6	91.300	-0.560	0.300	1.040
2020/01/31 06:48:24.7	91.290	-0.560	0.320	0.980
2020/01/31 06:48:24.8	91.290	-0.560	0.330	0.930
2020/01/31 06:48:24.9	91.290	-0.560	0.340	0.880
2020/01/31 06:48:25.0	91.290	-0.550	0.350	0.820
2020/01/31 06:48:25.1	91.300	-0.530	0.350	0.770
2020/01/31 06:48:25.2	91.310	-0.510	0.340	0.710
2020/01/31 06:48:25.3	91.320	-0.490	0.320	0.650
2020/01/31 06:48:25.4	91.330	-0.460	0.300	0.590
2020/01/31 06:48:25.5	91.340	-0.430	0.280	0.530
2020/01/31 06:48:25.6	91.350	-0.390	0.250	0.460
2020/01/31 06:48:25.7	91.370	-0.350	0.210	0.400
2020/01/31 06:48:25.8	91.380	-0.310	0.170	0.340
2020/01/31 06:48:25.9	91.400	-0.260	0.130	0.280
2020/01/31 06:48:26.0	91.420	-0.210	0.080	0.210
2020/01/31 06:48:26.1	91.450	-0.160	0.030	0.150
2020/01/31 06:48:26.2	91.460	-0.100	-0.030	0.090
2020/01/31 06:48:26.3	91.480	-0.040	-0.090	0.030
2020/01/31 06:48:26.4	91.510	0.010	-0.150	-0.030
2020/01/31 06:48:26.5	91.530	0.070	-0.210	-0.090
2020/01/31 06:48:26.6	91.560	0.130	-0.270	-0.140
2020/01/31 06:48:26.7	91.580	0.190	-0.340	-0.200
2020/01/31 06:48:26.8	91.600	0.250	-0.400	-0.250
2020/01/31 06:48:26.9	91.620	0.300	-0.460	-0.300
2020/01/31 06:48:27.0	91.650	0.360	-0.520	-0.350
2020/01/31 06:48:27.1	91.660	0.410	-0.580	-0.390
2020/01/31 06:48:27.2	91.670	0.460	-0.630	-0.440
2020/01/31 06:48:27.3	91.680	0.510	-0.680	-0.470
2020/01/31 06:48:27.4	91.700	0.550	-0.720	-0.510
2020/01/31 06:48:27.5	91.700	0.590	-0.770	-0.540
2020/01/31 06:48:27.6	91.710	0.630	-0.800	-0.570
2020/01/31 06:48:27.7	91.720	0.660	-0.830	-0.600
2020/01/31 06:48:27.8	91.720	0.680	-0.850	-0.620
2020/01/31 06:48:27.9	91.720	0.710	-0.870	-0.640
2020/01/31 06:48:28.0	91.720	0.720	-0.880	-0.660
2020/01/31 06:48:28.1	91.710	0.730	-0.890	-0.670
2020/01/31 06:48:28.2	91.710	0.740	-0.880	-0.680
2020/01/31 06:48:28.3	91.700	0.740	-0.870	-0.680
2020/01/31 06:48:28.4	91.690	0.740	-0.860	-0.690
2020/01/31 06:48:28.5	91.670	0.730	-0.840	-0.690
2020/01/31 06:48:28.6	91.660	0.710	-0.810	-0.680
2020/01/31 06:48:28.7	91.640	0.700	-0.780	-0.670
2020/01/31 06:48:28.8	91.620	0.670	-0.740	-0.660
2020/01/31 06:48:28.9	91.600	0.650	-0.700	-0.640
2020/01/31 06:48:29.0	91.580	0.620	-0.650	-0.620
2020/01/31 06:48:29.1	91.560	0.580	-0.600	-0.600
2020/01/31 06:48:29.2	91.540	0.550	-0.550	-0.570
2020/01/31 06:48:29.3	91.520	0.510	-0.490	-0.540
2020/01/31 06:48:29.4	91.500	0.460	-0.430	-0.500
2020/01/31 06:48:29.5	91.480	0.420	-0.370	-0.460
2020/01/31 06:48:29.6	91.450	0.380	-0.310	-0.410
2020/01/31 06:48:29.7	91.430	0.330	-0.250	-0.360
2020/01/31 06:48:29.8	91.400	0.280	-0.190	-0.310
2020/01/31 06:48:29.9	91.380	0.240	-0.130	-0.260
2020/01/31 06:48:30.0	91.350	0.190	-0.070	-0.200
2020/01/31 06:48:30.1	91.330	0.140	-0.010	-0.140
2020/01/31 06:48:30.2	91.310	0.100	0.040	-0.070
2020/01/31 06:48:30.3	91.280	0.050	0.100	0.000
2020/01/31 06:48:30.4	91.260	0.010	0.140	0.070
2020/01/31 06:48:30.5	91.230	-0.030	0.190	0.140
2020/01/31 06:48:30.6	91.210	-0.060	0.230	0.220
2020/01/31 06:48:30.7	91.180	-0.100	0.270	0.290
2020/01/31 06:48:30.8	91.160	-0.130	0.300	0.370
2020/01/31 06:48:30.9	91.130	-0.150	0.330	0.440
2020/01/31 06:48:31.0	91.110	-0.180	0.350	0.520
2020/01/31 06:48:31.1	91.080	-0.200	0.370	0.590
2020/01/31 06:48:31.2	91.070	-0.220	0.380	0.670
2020/01/31 06:48:31.3	91.040	-0.230	0.390	0.740
2020/01/31 06:48:31.4	91.020	-0.240	0.400	0.810
2020/01/31 06:48:31.5	91.000	-0.240	0.400	0.880
2020/01/31 06:48:31.6	90.980	-0.250	0.390	0.950
2020/01/31 06:48:31.7	90.970	-0.250	0.380	1.010
2020/01/31 06:48:31.8	90.950	-0.240	0.370	1.070
2020/01/31 06:48:31.9	90.940	-0.230	0.350	1.130
2020/01/31 06:48:32.0	90.930	-0.220	0.330	1.190
2020/01/31 06:48:32.1	90.920	-0.210	0.300	1.240
2020/01/31 06:48:32.2	90.920	-0.190	0.270	1.290
2020/01/31 06:48:32.3	90.910	-0.180	0.240	1.330
2020/01/31 06:48:32.4	90.910	-0.150	0.200	1.370
2020/01/31 06:48:32.5	90.920	-0.130	0.160	1.400
2020/01/31 06:48:32.6	90.920	-0.110	0.110	1.430
2020/01/31 06:48:32.7	90.930	-0.080	0.070	1.450
2020/01/31 06:48:32.8	90.940	-0.060	0.020	1.470
2020/01/31 06:48:32.9	90.950	-0.030	-0.030	1.490
2020/01/31 06:48:33.0	90.960	-0.000	-0.080	1.500
2020/01/31 06:48:33.1	90.970	0.020	-0.130	1.510
2020/01/31 06:48:33.2	90.990	0.050	-0.180	1.510
2020/01/31 06:48:33.3	91.000	0.070	-0.230	1.510
2020/01/31 06:48:33.4	91.020	0.100	-0.270	1.510
2020/01/31 06:48:33.5	91.040	0.120	-0.320	1.500
2020/01/31 06:48:33.6	91.050	0.150	-0.360	1.490
2020/01/31 06:48:33.7	91.070	0.170	-0.400	1.480
2020/01/31 06:48:33.8	91.090	0.180	-0.440	1.470
2020/01/31 06:48:33.9	91.110	0.200	-0.470	1.460
2020/01/31 06:48:34.0	91.130	0.210	-0.490	1.440
2020/01/31 06:48:34.1	91.140	0.230	-0.520	1.430
2020/01/31 06:48:34.2	91.160	0.230	-0.530	1.410
2020/01/31 06:48:34.3	91.180	0.240	-0.540	1.390
2020/01/31 06:48:34.4	91.200	0.240	-0.540	1.380
2020/01/31 06:48:34.5	91.210	0.240	-0.540	1.360
2020/01/31 06:48:34.6	91.230	0.240	-0.530	1.340
2020/01/31 06:48:34.7	91.240	0.230	-0.510	1.320
2020/01/31 06:48:34.8	91.260	0.220	-0.490	1.310
2020/01/31 06:48:34.9	91.270	0.200	-0.460	1.290
2020/01/31 06:48:35.0	91.290	0.190	-0.420	1.270
2020/01/31 06:48:35.1	91.300	0.170	-0.380	1.260
2020/01/31 06:48:35.2	91.320	0.150	-0.340	1.240
2020/01/31 06:48:35.3	91.330	0.120	-0.290	1.230
2020/01/31 06:48:35.4	91.340	0.100	-0.230	1.220
2020/01/31 06:48:35.5	91.360	0.070	-0.180	1.200
2020/01/31 06:48:35.6	91.370	0.040	-0.120	1.190
2020/01/31 06:48:35.7	91.380	0.000	-0.060	1.180
2020/01/31 06:48:35.8	91.390	-0.030	0.000	1.170
2020/01/31 06:48:35.9	91.400	-0.060	0.060	1.160
2020/01/31 06:48:36.0	91.410	-0.100	0.120	1.150
2020/01/31 06:48:36.1	91.420	-0.130	0.180	1.140
2020/01/31 06:48:36.2	91.420	-0.170	0.240	1.130
2020/01/31 06:48:36.3	91.430	-0.200	0.290	1.130
2020/01/31 06:48:36.4	91.430	-0.230	0.340	1.120
2020/01/31 06:48:36.5	91.440	-0.270	0.380	1.120
2020/01/31 06:48:36.6	91.440	-0.300	0.420	1.110
2020/01/31 06:48:36.7	91.440	-0.320	0.460	1.110
2020/01/31 06:48:36.8	91.440	-0.350	0.480	1.110
2020/01/31 06:48:36.9	91.440	-0.370	0.500	1.100
2020/01/31 06:48:37.0	91.430	-0.400	0.520	1.100
2020/01/31 06:48:37.1	91.430	-0.410	0.530	1.090
2020/01/31 06:48:37.2	91.410	-0.430	0.530	1.090
2020/01/31 06:48:37.3	91.410	-0.440	0.520	1.080
2020/01/31 06:48:37.4	91.400	-0.450	0.510	1.070
2020/01/31 06:48:37.5	91.380	-0.460	0.490	1.070
2020/01/31 06:48:37.6	91.370	-0.460	0.460	1.060
2020/01/31 06:48:37.7	91.360	-0.460	0.430	1.050
2020/01/31 06:48:37.8	91.340	-0.460	0.390	1.030
2020/01/31 06:48:37.9	91.320	-0.450	0.350	1.020
2020/01/31 06:48:38.0	91.310	-0.440	0.300	1.010
2020/01/31 06:48:38.1	91.290	-0.430	0.240	0.990
2020/01/31 06:48:38.2	91.270	-0.410	0.190	0.970
2020/01/31 06:48:38.3	91.250	-0.390	0.120	0.950
2020/01/31 06:48:38.4	91.230	-0.370	0.060	0.930
2020/01/31 06:48:38.5	91.210	-0.350	-0.010	0.910
2020/01/31 06:48:38.6	91.190	-0.320	-0.080	0.890
2020/01/31 06:48:38.7	91.170	-0.290	-0.150	0.860
2020/01/31 06:48:38.8	91.150	-0.260	-0.230	0.840
2020/01/31 06:48:38.9	91.130	-0.230	-0.300	0.810
2020/01/31 06:48:39.0	91.110	-0.190	-0.370	0.780
2020/01/31 06:48:39.1	91.090	-0.160	-0.450	0.750
2020/01/31 06:48:39.2	91.080	-0.120	-0.520	0.720
2020/01/31 06:48:39.3	91.070	-0.080	-0.590	0.690
2020/01/31 06:48:39.4	91.050	-0.050	-0.660	0.660
2020/01/31 06:48:39.5	91.040	-0.010	-0.720	0.630
2020/01/31 06:48:39.6	91.030	0.030	-0.780	0.590
2020/01/31 06:48:39.7	91.010	0.070	-0.840	0.560
2020/01/31 06:48:39.8	91.010	0.100	-0.890	0.530
2020/01/31 06:48:39.9	91.000	0.140	-0.940	0.500
2020/01/31 06:48:40.0	90.990	0.170	-0.980	0.460
2020/01/31 06:48:40.1	90.980	0.200	-1.020	0.430
2020/01/31 06:48:40.2	90.980	0.230	-1.050	0.400
2020/01/31 06:48:40.3	90.970	0.260	-1.070	0.380
2020/01/31 06:48:40.4	90.970	0.280	-1.090	0.350
2020/01/31 06:48:40.5	90.960	0.300	-1.100	0.320
2020/01/31 06:48:40.6	90.960	0.320	-1.100	0.300
2020/01/31 06:48:40.7	90.950	0.340	-1.100	0.280
2020/01/31 06:48:40.8	90.940	0.350	-1.090	0.260
2020/01/31 06:48:40.9	90.940	0.360	-1.070	0.240
2020/01/31 06:48:41.0	90.930	0.360	-1.040	0.220
2020/01/31 06:48:41.1	90.930	0.360	-1.010	0.200
2020/01/31 06:48:41.2	90.900	0.360	-0.970	0.180
2020/01/31 06:48:41.3	90.900	0.360	-0.920	0.160
2020/01/31 06:48:41.4	90.890	0.350	-0.870	0.150
2020/01/31 06:48:41.5	90.880	0.340	-0.810	0.130
2020/01/31 06:48:41.6	90.870	0.330	-0.750	0.110
2020/01/31 06:48:41.7	90.870	0.310	-0.680	0.100
2020/01/31 06:48:41.8	90.860	0.290	-0.610	0.080
2020/01/31 06:48:41.9	90.850	0.270	-0.540	0.060
2020/01/31 06:48:42.0	90.840	0.250	-0.460	0.050
2020/01/31 06:48:42.1	90.840	0.220	-0.380	0.030
2020/01/31 06:48:42.2	90.830	0.190	-0.290	0.010
2020/01/31 06:48:42.3	90.820	0.160	-0.210	-0.010
2020/01/31 06:48:42.4	90.820	0.140	-0.120	-0.020
2020/01/31 06:48:42.5	90.810	0.110	-0.040	-0.040
2020/01/31 06:48:42.6	90.810	0.080	0.050	-0.060
2020/01/31 06:48:42.7	90.800	0.040	0.130	-0.080
2020/01/31 06:48:42.8	90.800	0.010	0.210	-0.090
2020/01/31 06:48:42.9	90.800	-0.010	0.290	-0.110
2020/01/31 06:48:43.0	90.800	-0.040	0.370	-0.130
2020/01/31 06:48:43.1	90.800	-0.070	0.440	-0.150
2020/01/31 06:48:43.2	90.790	-0.100	0.500	-0.160
2020/01/31 06:48:43.3	90.800	-0.120	0.570	-0.180
2020/01/31 06:48:43.4	90.800	-0.140	0.620	-0.190
2020/01/31 06:48:43.5	90.810	-0.160	0.670	-0.210
2020/01/31 06:48:43.6	90.820	-0.180	0.710	-0.230
2020/01/31 06:48:43.7	90.830	-0.200	0.750	-0.240
2020/01/31 06:48:43.8	90.840	-0.210	0.780	-0.260
2020/01/31 06:48:43.9	90.850	-0.220	0.800	-0.270
2020/01/31 06:48:44.0	90.870	-0.230	0.810	-0.290
2020/01/31 06:48:44.1	90.890	-0.230	0.810	-0.300
2020/01/31 06:48:44.2	90.900	-0.230	0.810	-0.320
2020/01/31 06:48:44.3	90.920	-0.230	0.800	-0.330
2020/01/31 06:48:44.4	90.940	-0.220	0.780	-0.340
2020/01/31 06:48:44.5	90.960	-0.210	0.750	-0.340
2020/01/31 06:48:44.6	90.990	-0.200	0.710	-0.350
2020/01/31 06:48:44.7	91.010	-0.180	0.670	-0.350
2020/01/31 06:48:44.8	91.030	-0.170	0.620	-0.350
2020/01/31 06:48:44.9	91.050	-0.150	0.560	-0.340
2020/01/31 06:48:45.0	91.070	-0.120	0.500	-0.340
2020/01/31 06:48:45.1	91.090	-0.100	0.430	-0.320
2020/01/31 06:48:45.2	91.100	-0.070	0.350	-0.300
2020/01/31 06:48:45.3	91.110	-0.040	0.270	-0.280
2020/01/31 06:48:45.4	91.120	-0.010	0.190	-0.260
2020/01/31 06:48:45.5	91.130	0.020	0.100	-0.230
2020/01/31 06:48:45.6	91.140	0.060	0.010	-0.190
2020/01/31 06:48:45.7	91.150	0.090	-0.080	-0.160
2020/01/31 06:48:45.8	91.150	0.130	-0.180	-0.110
2020/01/31 06:48:45.9	91.150	0.160	-0.270	-0.070
2020/01/31 06:48:46.0	91.150	0.190	-0.370	-0.020
2020/01/31 06:48:46.1	91.150	0.230	-0.460	0.040
2020/01/31 06:48:46.2	91.160	0.260	-0.550	0.100
2020/01/31 06:48:46.3	91.160	0.290	-0.640	0.160
2020/01/31 06:48:46.4	91.150	0.320	-0.720	0.220
2020/01/31 06:48:46.5	91.140	0.350	-0.800	0.280
2020/01/31 06:48:46.6	91.130	0.370	-0.880	0.350
2020/01/31 06:48:46.7	91.120	0.400	-0.940	0.420
2020/01/31 06:48:46.8	91.110	0.410	-1.010	0.480
2020/01/31 06:48:46.9	91.100	0.430	-1.060	0.550
2020/01/31 06:48:47.0	91.080	0.440	-1.100	0.620
2020/01/31 06:48:47.1	91.070	0.450	-1.140	0.700
2020/01/31 06:48:47.2	91.060	0.460	-1.170	0.770
2020/01/31 06:48:47.3	91.040	0.460	-1.190	0.840
2020/01/31 06:48:47.4	91.030	0.460	-1.200	0.910
2020/01/31 06:48:47.5	91.010	0.460	-1.200	0.980
2020/01/31 06:48:47.6	90.990	0.450	-1.190	1.060
2020/01/31 06:48:47.7	90.970	0.430	-1.170	1.130
2020/01/31 06:48:47.8	90.950	0.420	-1.140	1.200
2020/01/31 06:48:47.9	90.930	0.400	-1.110	1.270
2020/01/31 06:48:48.0	90.900	0.380	-1.070	1.340
2020/01/31 06:48:48.1	90.880	0.350	-1.010	1.400
2020/01/31 06:48:48.2	90.860	0.320	-0.950	1.470
2020/01/31 06:48:48.3	90.830	0.290	-0.890	1.530
2020/01/31 06:48:48.4	90.800	0.260	-0.820	1.590
2020/01/31 06:48:48.5	90.780	0.230	-0.740	1.650
2020/01/31 06:48:48.6	90.750	0.190	-0.660	1.710
2020/01/31 06:48:48.7	90.720	0.150	-0.570	1.760
2020/01/31 06:48:48.8	90.690	0.110	-0.480	1.810
2020/01/31 06:48:48.9	90.660	0.070	-0.390	1.860
2020/01/31 06:48:49.0	90.630	0.030	-0.290	1.900
2020/01/31 06:48:49.1	90.600	-0.010	-0.190	1.940
2020/01/31 06:48:49.2	90.570	-0.050	-0.100	1.980
2020/01/31 06:48:49.3	90.540	-0.090	0.000	2.010
2020/01/31 06:48:49.4	90.510	-0.130	0.100	2.040
2020/01/31 06:48:49.5	90.480	-0.170	0.190	2.070
2020/01/31 06:48:49.6	90.450	-0.200	0.280	2.090
2020/01/31 06:48:49.7	90.430	-0.240	0.370	2.100
2020/01/31 06:48:49.8	90.400	-0.270	0.450	2.120
2020/01/31 06:48:49.9	90.380	-0.300	0.530	2.130
2020/01/31 06:48:50.0	90.350	-0.330	0.610	2.130
2020/01/31 06:48:50.1	90.330	-0.360	0.680	2.130
2020/01/31 06:48:50.2	90.310	-0.380	0.750	2.130
2020/01/31 06:48:50.3	90.290	-0.400	0.800	2.120
2020/01/31 06:48:50.4	90.280	-0.420	0.850	2.110
2020/01/31 06:48:50.5	90.270	-0.440	0.900	2.090
2020/01/31 06:48:50.6	90.260	-0.450	0.930	2.060
2020/01/31 06:48:50.7	90.250	-0.460	0.960	2.040
2020/01/31 06:48:50.8	90.240	-0.460	0.980	2.000
2020/01/31 06:48:50.9	90.240	-0.460	0.990	1.970
2020/01/31 06:48:51.0	90.240	-0.460	0.990	1.920
2020/01/31 06:48:51.1	90.250	-0.460	0.980	1.870
2020/01/31 06:48:51.2	90.250	-0.450	0.970	1.820
2020/01/31 06:48:51.3	90.260	-0.450	0.950	1.760
2020/01/31 06:48:51.4	90.270	-0.430	0.920	1.700
2020/01/31 06:48:51.5	90.290	-0.420	0.880	1.630
2020/01/31 06:48:51.6	90.310	-0.400	0.840	1.560
2020/01/31 06:48:51.7	90.330	-0.390	0.790	1.480
2020/01/31 06:48:51.8	90.350	-0.370	0.730	1.400
2020/01/31 06:48:51.9	90.370	-0.340	0.670	1.320
2020/01/31 06:48:52.0	90.400	-0.320	0.600	1.230
2020/01/31 06:48:52.1	90.420	-0.300	0.530	1.140
2020/01/31 06:48:52.2	90.440	-0.270	0.450	1.040
2020/01/31 06:48:52.3	90.470	-0.240	0.370	0.940
2020/01/31 06:48:52.4	90.500	-0.210	0.280	0.840
2020/01/31 06:48:52.5	90.530	-0.190	0.200	0.740
2020/01/31 06:48:52.6	90.560	-0.160	0.110	0.640
2020/01/31 06:48:52.7	90.590	-0.130	0.020	0.530
2020/01/31 06:48:52.8	90.620	-0.100	-0.080	0.430
2020/01/31 06:48:52.9	90.640	-0.070	-0.170	0.330
2020/01/31 06:48:53.0	90.670	-0.040	-0.260	0.220
2020/01/31 06:48:53.1	90.700	-0.010	-0.350	0.120
2020/01/31 06:48:53.2	90.720	0.020	-0.440	0.020
2020/01/31 06:48:53.3	90.740	0.040	-0.520	-0.080
2020/01/31 06:48:53.4	90.770	0.070	-0.600	-0.170
2020/01/31 06:48:53.5	90.790	0.090	-0.680	-0.260
2020/01/31 06:48:53.6	90.810	0.120	-0.760	-0.340
2020/01/31 06:48:53.7	90.830	0.140	-0.820	-0.420
2020/01/31 06:48:53.8	90.850	0.160	-0.890	-0.490
2020/01/31 06:48:53.9	90.860	0.180	-0.940	-0.560
2020/01/31 06:48:54.0	90.870	0.190	-0.990	-0.620
2020/01/31 06:48:54.1	90.890	0.210	-1.040	-0.670
2020/01/31 06:48:54.2	90.900	0.220	-1.080	-0.710
2020/01/31 06:48:54.3	90.910	0.240	-1.110	-0.740
2020/01/31 06:48:54.4	90.910	0.250	-1.130	-0.770
2020/01/31 06:48:54.5	90.910	0.260	-1.150	-0.790
2020/01/31 06:48:54.6	90.900	0.260	-1.160	-0.800
2020/01/31 06:48:54.7	90.900	0.270	-1.170	-0.810
2020/01/31 06:48:54.8	90.890	0.270	-1.160	-0.810
2020/01/31 06:48:54.9	90.880	0.270	-1.150	-0.790
2020/01/31 06:48:55.0	90.860	0.270	-1.140	-0.780
2020/01/31 06:48:55.1	90.840	0.270	-1.120	-0.750
2020/01/31 06:48:55.2	90.820	0.270	-1.090	-0.720
2020/01/31 06:48:55.3	90.800	0.260	-1.060	-0.690
2020/01/31 06:48:55.4	90.770	0.260	-1.020	-0.650
2020/01/31 06:48:55.5	90.740	0.250	-0.980	-0.600
2020/01/31 06:48:55.6	90.710	0.240	-0.940	-0.550
2020/01/31 06:48:55.7	90.680	0.230	-0.890	-0.500
2020/01/31 06:48:55.8	90.650	0.220	-0.840	-0.440
2020/01/31 06:48:55.9	90.620	0.210	-0.780	-0.390
2020/01/31 06:48:56.0	90.580	0.200	-0.730	-0.330
2020/01/31 06:48:56.1	90.550	0.180	-0.670	-0.260
2020/01/31 06:48:56.2	90.510	0.170	-0.610	-0.200
2020/01/31 06:48:56.3	90.470	0.150	-0.540	-0.140
2020/01/31 06:48:56.4	90.430	0.140	-0.480	-0.080
2020/01/31 06:48:56.5	90.400	0.120	-0.410	-0.010
2020/01/31 06:48:56.6	90.360	0.100	-0.350	0.050
2020/01/31 06:48:56.7	90.330	0.090	-0.280	0.110
2020/01/31 06:48:56.8	90.290	0.070	-0.220	0.170
2020/01/31 06:48:56.9	90.260	0.050	-0.150	0.230
2020/01/31 06:48:57.0	90.220	0.030	-0.090	0.280
2020/01/31 06:48:57.1	90.190	0.020	-0.030	0.330
2020/01/31 06:48:57.2	90.160	-0.000	0.040	0.380
2020/01/31 06:48:57.3	90.140	-0.020	0.100	0.430
2020/01/31 06:48:57.4	90.110	-0.030	0.150	0.470
2020/01/31 06:48:57.5	90.090	-0.050	0.210	0.510
2020/01/31 06:48:57.6	90.070	-0.060	0.260	0.550
2020/01/31 06:48:57.7	90.050	-0.080	0.300	0.580
2020/01/31 06:48:57.8	90.030	-0.090	0.350	0.610
2020/01/31 06:48:57.9	90.020	-0.100	0.390	0.640
2020/01/31 06:48:58.0	90.010	-0.110	0.420	0.660
2020/01/31 06:48:58.1	90.000	-0.120	0.450	0.680
2020/01/31 06:48:58.2	90.010	-0.130	0.480	0.700
2020/01/31 06:48:58.3	90.000	-0.140	0.500	0.710
2020/01/31 06:48:58.4	90.000	-0.150	0.520	0.720
2020/01/31 06:48:58.5	90.010	-0.150	0.530	0.730
2020/01/31 06:48:58.6	90.010	-0.150	0.540	0.740
2020/01/31 06:48:58.7	90.020	-0.160	0.540	0.740
2020/01/31 06:48:58.8	90.020	-0.160	0.530	0.740
2020/01/31 06:48:58.9	90.030	-0.160	0.520	0.750
2020/01/31 06:48:59.0	90.040	-0.150	0.510	0.750
2020/01/31 06:48:59.1	90.060	-0.150	0.490	0.750
2020/01/31 06:48:59.2	90.070	-0.140	0.470	0.750
2020/01/31 06:48:59.3	90.090	-0.140	0.440	0.750
2020/01/31 06:48:59.4	90.100	-0.130	0.400	0.750
2020/01/31 06:48:59.5	90.120	-0.120	0.370	0.740
2020/01/31 06:48:59.6	90.140	-0.110	0.330	0.740
2020/01/31 06:48:59.7	90.160	-0.100	0.290	0.740
2020/01/31 06:48:59.8	90.180	-0.090	0.240	0.740
2020/01/31 06:48:59.9	90.200	-0.080	0.190	0.740
2020/01/31 06:49:00.0	90.220	-0.070	0.140	0.740
2020/01/31 06:49:00.1	90.240	-0.050	0.090	0.740
2020/01/31 06:49:00.2	90.270	-0.040	0.030	0.740
2020/01/31 06:49:00.3	90.290	-0.030	-0.020	0.750
2020/01/31 06:49:00.4	90.310	-0.010	-0.070	0.750
2020/01/31 06:49:00.5	90.320	0.000	-0.130	0.750
2020/01/31 06:49:00.6	90.340	0.010	-0.180	0.760
2020/01/31 06:49:00.7	90.360	0.030	-0.230	0.760
2020/01/31 06:49:00.8	90.380	0.040	-0.290	0.770
2020/01/31 06:49:00.9	90.390	0.050	-0.330	0.770
2020/01/31 06:49:01.0	90.410	0.070	-0.380	0.780
2020/01/31 06:49:01.1	90.420	0.080	-0.430	0.780
2020/01/31 06:49:01.2	90.430	0.090	-0.470	0.790
2020/01/31 06:49:01.3	90.450	0.100	-0.510	0.790
2020/01/31 06:49:01.4	90.460	0.110	-0.550	0.800
2020/01/31 06:49:01.5	90.470	0.120	-0.580	0.800
2020/01/31 06:49:01.6	90.480	0.130	-0.610	0.800
2020/01/31 06:49:01.7	90.490	0.140	-0.630	0.810
2020/01/31 06:49:01.8	90.500	0.140	-0.660	0.810
2020/01/31 06:49:01.9	90.510	0.150	-0.670	0.810
2020/01/31 06:49:02.0	90.520	0.150	-0.690	0.820
2020/01/31 06:49:02.1	90.520	0.160	-0.690	0.820
2020/01/31 06:49:02.2	90.540	0.160	-0.700	0.820
2020/01/31 06:49:02.3	90.540	0.160	-0.700	0.820
2020/01/31 06:49:02.4	90.550	0.160	-0.690	0.820
2020/01/31 06:49:02.5	90.550	0.160	-0.680	0.810
2020/01/31 06:49:02.6	90.560	0.160	-0.660	0.810
2020/01/31 06:49:02.7	90.560	0.150	-0.640	0.810
2020/01/31 06:49:02.8	90.560	0.150	-0.620	0.810
2020/01/31 06:49:02.9	90.570	0.140	-0.590	0.810
2020/01/31 06:49:03.0	90.570	0.140	-0.560	0.810
2020/01/31 06:49:03.1	90.560	0.130	-0.520	0.810
2020/01/31 06:49:03.2	90.550	0.120	-0.480	0.820
2020/01/31 06:49:03.3	90.550	0.110	-0.440	0.820
2020/01/31 06:49:03.4	90.540	0.100	-0.390	0.820
2020/01/31 06:49:03.5	90.540	0.080	-0.340	0.830
2020/01/31 06:49:03.6	90.530	0.070	-0.290	0.830
2020/01/31 06:49:03.7	90.520	0.060	-0.240	0.840
2020/01/31 06:49:03.8	90.520	0.040	-0.180	0.850
2020/01/31 06:49:03.9	90.510	0.030	-0.130	0.860
2020/01/31 06:49:04.0	90.500	0.010	-0.070	0.870
2020/01/31 06:49:04.1	90.480	-0.000	-0.020	0.880
2020/01/31 06:49:04.2	90.470	-0.020	0.040	0.890
2020/01/31 06:49:04.3	90.460	-0.040	0.100	0.900
2020/01/31 06:49:04.4	90.440	-0.050	0.150	0.920
2020/01/31 06:49:04.5	90.430	-0.070	0.200	0.930
2020/01/31 06:49:04.6	90.420	-0.090	0.250	0.950
2020/01/31 06:49:04.7	90.410	-0.100	0.290	0.960
2020/01/31 06:49:04.8	90.390	-0.120	0.330	0.980
2020/01/31 06:49:04.9	90.380	-0.140	0.370	0.990
2020/01/31 06:49:05.0	90.370	-0.150	0.400	1.010
2020/01/31 06:49:05.1	90.360	-0.170	0.430	1.020
2020/01/31 06:49:05.2	90.370	-0.180	0.460	1.030
2020/01/31 06:49:05.3	90.360	-0.200	0.480	1.050
2020/01/31 06:49:05.4	90.350	-0.210	0.490	1.060
2020/01/31 06:49:05.5	90.340	-0.220	0.500	1.060
2020/01/31 06:49:05.6	90.330	-0.230	0.500	1.070
2020/01/31 06:49:05.7	90.330	-0.240	0.500	1.070
2020/01/31 06:49:05.8	90.320	-0.250	0.490	1.080
2020/01/31 06:49:05.9	90.320	-0.250	0.480	1.070
2020/01/31 06:49:06.0	90.320	-0.260	0.460	1.070
2020/01/31 06:49:06.1	90.320	-0.260	0.430	1.060
2020/01/31 06:49:06.2	90.310	-0.260	0.400	1.050
2020/01/31 06:49:06.3	90.310	-0.270	0.360	1.040
2020/01/31 06:49:06.4	90.320	-0.260	0.320	1.020
2020/01/31 06:49:06.5	90.320	-0.260	0.270	1.000
2020/01/31 06:49:06.6	90.330	-0.260	0.220	0.980
2020/01/31 06:49:06.7	90.330	-0.250	0.160	0.950
2020/01/31 06:49:06.8	90.340	-0.240	0.110	0.920
2020/01/31 06:49:06.9	90.350	-0.230	0.040	0.890
2020/01/31 06:49:07.0	90.360	-0.220	-0.020	0.860
2020/01/31 06:49:07.1	90.370	-0.210	-0.090	0.820
2020/01/31 06:49:07.2	90.380	-0.200	-0.150	0.790
2020/01/31 06:49:07.3	90.400	-0.190	-0.220	0.750
2020/01/31 06:49:07.4	90.410	-0.170	-0.290	0.710
2020/01/31 06:49:07.5	90.430	-0.160	-0.360	0.670
2020/01/31 06:49:07.6	90.440	-0.140	-0.420	0.630
2020/01/31 06:49:07.7	90.460	-0.120	-0.490	0.590
2020/01/31 06:49:07.8	90.480	-0.100	-0.550	0.550
2020/01/31 06:49:07.9	90.500	-0.090	-0.610	0.500
2020/01/31 06:49:08.0	90.520	-0.070	-0.660	0.470
2020/01/31 06:49:08.1	90.550	-0.050	-0.710	0.430
2020/01/31 06:49:08.2	90.560	-0.030	-0.750	0.390
2020/01/31 06:49:08.3	90.590	-0.020	-0.790	0.350
2020/01/31 06:49:08.4	90.610	0.000	-0.820	0.320
2020/01/31 06:49:08.5	90.640	0.020	-0.850	0.280
2020/01/31 06:49:08.6	90.670	0.030	-0.870	0.250
2020/01/31 06:49:08.7	90.700	0.050	-0.880	0.220
2020/01/31 06:49:08.8	90.730	0.060	-0.890	0.190
2020/01/31 06:49:08.9	90.760	0.070	-0.890	0.160
2020/01/31 06:49:09.0	90.790	0.090	-0.880	0.140
2020/01/31 06:49:09.1	90.820	0.100	-0.860	0.120
2020/01/31 06:49:09.2	90.850	0.100	-0.830	0.100
2020/01/31 06:49:09.3	90.890	0.110	-0.810	0.080
2020/01/31 06:49:09.4	90.920	0.120	-0.770	0.070
2020/01/31 06:49:09.5	90.940	0.120	-0.730	0.050
2020/01/31 06:49:09.6	90.970	0.120	-0.680	0.050
2020/01/31 06:49:09.7	91.000	0.120	-0.630	0.040
2020/01/31 06:49:09.8	91.030	0.120	-0.570	0.040
2020/01/31 06:49:09.9	91.050	0.120	-0.510	0.040
2020/01/31 06:49:10.0	91.070	0.110	-0.450	0.040
2020/01/31 06:49:10.1	91.090	0.110	-0.380	0.050
2020/01/31 06:49:10.2	91.110	0.100	-0.310	0.060
2020/01/31 06:49:10.3	91.120	0.090	-0.240	0.080
2020/01/31 06:49:10.4	91.120	0.080	-0.170	0.090
2020/01/31 06:49:10.5	91.130	0.070	-0.100	0.110
2020/01/31 06:49:10.6	91.130	0.060	-0.030	0.130
2020/01/31 06:49:10.7	91.120	0.050	0.040	0.160
2020/01/31 06:49:10.8	91.120	0.030	0.110	0.190
2020/01/31 06:49:10.9	91.110	0.020	0.170	0.220
2020/01/31 06:49:11.0	91.090	0.010	0.230	0.250
2020/01/31 06:49:11.1	91.070	-0.000	0.280	0.290
2020/01/31 06:49:11.2	91.050	-0.010	0.330	0.330
2020/01/31 06:49:11.3	91.020	-0.020	0.370	0.370
2020/01/31 06:49:11.4	90.990	-0.030	0.410	0.410
2020/01/31 06:49:11.5	90.960	-0.040	0.440	0.460
2020/01/31 06:49:11.6	90.920	-0.040	0.460	0.500
2020/01/31 06:49:11.7	90.890	-0.050	0.470	0.550
2020/01/31 06:49:11.8	90.840	-0.050	0.480	0.600
2020/01/31 06:49:11.9	90.800	-0.050	0.480	0.650
2020/01/31 06:49:12.0	90.760	-0.050	0.470	0.690
2020/01/31 06:49:12.1	90.720	-0.040	0.450	0.740
2020/01/31 06:49:12.2	90.680	-0.030	0.430	0.780
2020/01/31 06:49:12.3	90.640	-0.030	0.390	0.830
2020/01/31 06:49:12.4	90.600	-0.010	0.360	0.870
2020/01/31 06:49:12.5	90.550	-0.000	0.310	0.910
2020/01/31 06:49:12.6	90.520	0.010	0.260	0.940
2020/01/31 06:49:12.7	90.480	0.030	0.210	0.970
2020/01/31 06:49:12.8	90.440	0.050	0.150	1.000
2020/01/31 06:49:12.9	90.410	0.060	0.090	1.030
2020/01/31 06:49:13.0	90.380	0.080	0.020	1.050
2020/01/31 06:49:13.1	90.360	0.100	-0.040	1.070
2020/01/31 06:49:13.2	90.330	0.130	-0.110	1.080
2020/01/31 06:49:13.3	90.310	0.150	-0.180	1.090
2020/01/31 06:49:13.4	90.290	0.170	-0.250	1.100
2020/01/31 06:49:13.5	90.280	0.190	-0.320	1.100
2020/01/31 06:49:13.6	90.260	0.210	-0.390	1.090
2020/01/31 06:49:13.7	90.260	0.230	-0.450	1.080
2020/01/31 06:49:13.8	90.250	0.250	-0.510	1.070
2020/01/31 06:49:13.9	90.250	0.260	-0.560	1.050
2020/01/31 06:49:14.0	90.250	0.280	-0.620	1.030
2020/01/31 06:49:14.1	90.250	0.290	-0.660	1.010
2020/01/31 06:49:14.2	90.270	0.310	-0.710	0.980
2020/01/31 06:49:14.3	90.270	0.320	-0.740	0.950
2020/01/31 06:49:14.4	90.280	0.320	-0.770	0.910
2020/01/31 06:49:14.5	90.290	0.330	-0.800	0.880
2020/01/31 06:49:14.6	90.300	0.330	-0.810	0.840
2020/01/31 06:49:14.7	90.310	0.330	-0.820	0.790
2020/01/31 06:49:14.8	90.320	0.330	-0.820	0.750
2020/01/31 06:49:14.9	90.340	0.330	-0.820	0.700
2020/01/31 06:49:15.0	90.360	0.320	-0.810	0.660
2020/01/31 06:49:15.1	90.370	0.310	-0.790	0.610
2020/01/31 06:49:15.2	90.390	0.300	-0.760	0.560
2020/01/31 06:49:15.3	90.410	0.280	-0.730	0.510
2020/01/31 06:49:15.4	90.430	0.270	-0.700	0.460
2020/01/31 06:49:15.5	90.450	0.250	-0.650	0.410
2020/01/31 06:49:15.6	90.480	0.230	-0.610	0.360
2020/01/31 06:49:15.7	90.500	0.210	-0.550	0.310
2020/01/31 06:49:15.8	90.530	0.190	-0.500	0.260
2020/01/31 06:49:15.9	90.560	0.160	-0.440	0.220
2020/01/31 06:49:16.0	90.590	0.140	-0.370	0.170
2020/01/31 06:49:16.1	90.620	0.110	-0.310	0.130
2020/01/31 06:49:16.2	90.650	0.080	-0.240	0.090
2020/01/31 06:49:16.3	90.680	0.060	-0.170	0.050
2020/01/31 06:49:16.4	90.720	0.030	-0.100	0.010
2020/01/31 06:49:16.5	90.750	0.000	-0.020	-0.020
2020/01/31 06:49:16.6	90.780	-0.030	0.050	-0.050
2020/01/31 06:49:16.7	90.810	-0.050	0.120	-0.080
2020/01/31 06:49:16.8	90.850	-0.080	0.190	-0.100
2020/01/31 06:49:16.9	90.880	-0.100	0.250	-0.120
2020/01/31 06:49:17.0	90.910	-0.130	0.320	-0.140
2020/01/31 06:49:17.1	90.930	-0.150	0.380	-0.150
2020/01/31 06:49:17.2	90.950	-0.170	0.440	-0.160
2020/01/31 06:49:17.3	90.980	-0.190	0.490	-0.160
2020/01/31 06:49:17.4	91.000	-0.210	0.540	-0.160
2020/01/31 06:49:17.5	91.020	-0.230	0.580	-0.150
2020/01/31 06:49:17.6	91.040	-0.250	0.610	-0.140
2020/01/31 06:49:17.7	91.050	-0.260	0.640	-0.130
2020/01/31 06:49:17.8	91.060	-0.270	0.670	-0.110
2020/01/31 06:49:17.9	91.070	-0.280	0.680	-0.090
2020/01/31 06:49:18.0	91.080	-0.290	0.690	-0.060
2020/01/31 06:49:18.1	91.080	-0.290	0.690	-0.030
2020/01/31 06:49:18.2	91.080	-0.290	0.690	0.010
2020/01/31 06:49:18.3	91.080	-0.300	0.670	0.040
2020/01/31 06:49:18.4	91.080	-0.290	0.650	0.080
2020/01/31 06:49:18.5	91.070	-0.290	0.620	0.120
2020/01/31 06:49:18.6	91.070	-0.290	0.590	0.160
2020/01/31 06:49:18.7	91.060	-0.280	0.550	0.210
2020/01/31 06:49:18.8	91.050	-0.270	0.500	0.250
2020/01/31 06:49:18.9	91.040	-0.260	0.440	0.290
2020/01/31 06:49:19.0	91.030	-0.250	0.380	0.340
2020/01/31 06:49:19.1	91.020	-0.230	0.320	0.380
2020/01/31 06:49:19.2	91.010	-0.220	0.240	0.430
2020/01/31 06:49:19.3	91.010	-0.200	0.170	0.470
2020/01/31 06:49:19.4	91.000	-0.180	0.090	0.510
2020/01/31 06:49:19.5	90.990	-0.160	0.010	0.550
2020/01/31 06:49:19.6	90.990	-0.140	-0.080	0.590
2020/01/31 06:49:19.7	90.980	-0.120	-0.160	0.630
2020/01/31 06:49:19.8	90.980	-0.090	-0.250	0.670
2020/01/31 06:49:19.9	90.980	-0.070	-0.330	0.700
2020/01/31 06:49:20.0	90.980	-0.050	-0.420	0.740
2020/01/31 06:49:20.1	90.980	-0.020	-0.500	0.780
2020/01/31 06:49:20.2	90.980	-0.000	-0.580	0.810
2020/01/31 06:49:20.3	90.980	0.020	-0.660	0.840
2020/01/31 06:49:20.4	90.990	0.040	-0.740	0.880
2020/01/31 06:49:20.5	90.990	0.070	-0.810	0.910
2020/01/31 06:49:20.6	90.990	0.090	-0.870	0.940
2020/01/31 06:49:20.7	91.000	0.110	-0.930	0.970
2020/01/31 06:49:20.8	91.000	0.130	-0.980	1.000
2020/01/31 06:49:20.9	91.010	0.140	-1.030	1.030
2020/01/31 06:49:21.0	91.010	0.160	-1.060	1.060
2020/01/31 06:49:21.1	91.020	0.170	-1.090	1.090
2020/01/31 06:49:21.2	91.020	0.180	-1.120	1.110
2020/01/31 06:49:21.3	91.030	0.190	-1.130	1.140
2020/01/31 06:49:21.4	91.030	0.190	-1.130	1.160
2020/01/31 06:49:21.5	91.040	0.200	-1.130	1.180
2020/01/31 06:49:21.6	91.050	0.200	-1.110	1.200
2020/01/31 06:49:21.7	91.050	0.200	-1.090	1.220
2020/01/31 06:49:21.8	91.060	0.190	-1.060	1.240
2020/01/31 06:49:21.9	91.060	0.180	-1.020	1.250
2020/01/31 06:49:22.0	91.070	0.170	-0.970	1.270
2020/01/31 06:49:22.1	91.070	0.150	-0.910	1.280
2020/01/31 06:49:22.2	91.080	0.140	-0.840	1.280
2020/01/31 06:49:22.3	91.080	0.120	-0.770	1.290
2020/01/31 06:49:22.4	91.080	0.100	-0.700	1.300
2020/01/31 06:49:22.5	91.080	0.070	-0.620	1.300
2020/01/31 06:49:22.6	91.080	0.040	-0.530	1.310
2020/01/31 06:49:22.7	91.070	0.010	-0.440	1.310
2020/01/31 06:49:22.8	91.070	-0.020	-0.350	1.310
2020/01/31 06:49:22.9	91.060	-0.050	-0.250	1.310
2020/01/31 06:49:23.0	91.050	-0.080	-0.160	1.300
2020/01/31 06:49:23.1	91.040	-0.110	-0.060	1.300
2020/01/31 06:49:23.2	91.040	-0.150	0.030	1.290
2020/01/31 06:49:23.3	91.030	-0.180	0.130	1.280
2020/01/31 06:49:23.4	91.010	-0.220	0.220	1.260
2020/01/31 06:49:23.5	91.000	-0.250	0.300	1.250
2020/01/31 06:49:23.6	90.980	-0.290	0.390	1.230
2020/01/31 06:49:23.7	90.960	-0.320	0.460	1.210
2020/01/31 06:49:23.8	90.950	-0.350	0.540	1.190
2020/01/31 06:49:23.9	90.930	-0.380	0.600	1.160
2020/01/31 06:49:24.0	90.910	-0.400	0.660	1.130
2020/01/31 06:49:24.1	90.890	-0.430	0.720	1.100
2020/01/31 06:49:24.2	90.860	-0.450	0.760	1.060
2020/01/31 06:49:24.3	90.840	-0.470	0.800	1.020
2020/01/31 06:49:24.4	90.830	-0.490	0.830	0.980
2020/01/31 06:49:24.5	90.810	-0.500	0.860	0.940
2020/01/31 06:49:24.6	90.790	-0.510	0.870	0.900
2020/01/31 06:49:24.7	90.770	-0.520	0.880	0.850
2020/01/31 06:49:24.8	90.760	-0.530	0.880	0.800
2020/01/31 06:49:24.9	90.740	-0.530	0.870	0.750
2020/01/31 06:49:25.0	90.730	-0.520	0.850	0.700
2020/01/31 06:49:25.1	90.710	-0.520	0.830	0.650
2020/01/31 06:49:25.2	90.710	-0.510	0.800	0.600
2020/01/31 06:49:25.3	90.700	-0.500	0.760	0.540
2020/01/31 06:49:25.4	90.690	-0.480	0.720	0.490
2020/01/31 06:49:25.5	90.680	-0.470	0.670	0.430
2020/01/31 06:49:25.6	90.670	-0.440	0.610	0.380
2020/01/31 06:49:25.7	90.670	-0.420	0.560	0.320
2020/01/31 06:49:25.8	90.670	-0.400	0.490	0.260
2020/01/31 06:49:25.9	90.660	-0.370	0.430	0.210
2020/01/31 06:49:26.0	90.660	-0.340	0.360	0.150
2020/01/31 06:49:26.1	90.670	-0.310	0.290	0.090
2020/01/31 06:49:26.2	90.660	-0.280	0.210	0.030
2020/01/31 06:49:26.3	90.670	-0.240	0.140	-0.020
2020/01/31 06:49:26.4	90.670	-0.210	0.060	-0.080
2020/01/31 06:49:26.5	90.680	-0.170	-0.020	-0.140
2020/01/31 06:49:26.6	90.700	-0.140	-0.090	-0.200
2020/01/31 06:49:26.7	90.710	-0.100	-0.170	-0.250
2020/01/31 06:49:26.8	90.730	-0.070	-0.250	-0.310
2020/01/31 06:49:26.9	90.740	-0.030	-0.320	-0.370
2020/01/31 06:49:27.0	90.760	0.010	-0.390	-0.420
2020/01/31 06:49:27.1	90.780	0.040	-0.460	-0.480
2020/01/31 06:49:27.2	90.800	0.080	-0.530	-0.530
2020/01/31 06:49:27.3	90.820	0.110	-0.600	-0.580
2020/01/31 06:49:27.4	90.840	0.140	-0.660	-0.630
2020/01/31 06:49:27.5	90.870	0.170	-0.720	-0.680
2020/01/31 06:49:27.6	90.890	0.200	-0.770	-0.720
2020/01/31 06:49:27.7	90.910	0.230	-0.830	-0.770
2020/01/31 06:49:27.8	90.930	0.260	-0.870	-0.810
2020/01/31 06:49:27.9	90.960	0.280	-0.920	-0.850
2020/01/31 06:49:28.0	90.980	0.310	-0.960	-0.880
2020/01/31 06:49:28.1	91.000	0.330	-0.990	-0.910
2020/01/31 06:49:28.2	91.020	0.350	-1.020	-0.940
2020/01/31 06:49:28.3	91.040	0.370	-1.050	-0.970
2020/01/31 06:49:28.4	91.060	0.390	-1.070	-0.990
2020/01/31 06:49:28.5	91.070	0.410	-1.090	-1.010
2020/01/31 06:49:28.6	91.090	0.420	-1.100	-1.020
2020/01/31 06:49:28.7	91.110	0.440	-1.110	-1.040
2020/01/31 06:49:28.8	91.120	0.450	-1.110	-1.040
2020/01/31 06:49:28.9	91.130	0.460	-1.110	-1.050
2020/01/31 06:49:29.0	91.140	0.470	-1.100	-1.050
2020/01/31 06:49:29.1	91.150	0.480	-1.080	-1.050
2020/01/31 06:49:29.2	91.160	0.490	-1.070	-1.040
2020/01/31 06:49:29.3	91.170	0.500	-1.050	-1.030
2020/01/31 06:49:29.4	91.170	0.500	-1.020	-1.010
2020/01/31 06:49:29.5	91.180	0.510	-0.990	-0.990
2020/01/31 06:49:29.6	91.180	0.510	-0.950	-0.970
2020/01/31 06:49:29.7	91.180	0.520	-0.910	-0.940
2020/01/31 06:49:29.8	91.170	0.520	-0.870	-0.910
2020/01/31 06:49:29.9	91.170	0.520	-0.830	-0.870
2020/01/31 06:49:30.0	91.160	0.520	-0.780	-0.830
2020/01/31 06:49:30.1	91.150	0.520	-0.730	-0.790
2020/01/31 06:49:30.2	91.140	0.520	-0.680	-0.740
2020/01/31 06:49:30.3	91.120	0.520	-0.620	-0.690
2020/01/31 06:49:30.4	91.100	0.510	-0.570	-0.640
2020/01/31 06:49:30.5	91.080	0.510	-0.510	-0.580
2020/01/31 06:49:30.6	91.060	0.510	-0.450	-0.520
2020/01/31 06:49:30.7	91.040	0.500	-0.400	-0.460
2020/01/31 06:49:30.8	91.010	0.500	-0.340	-0.400
2020/01/31 06:49:30.9	90.990	0.490	-0.290	-0.330
2020/01/31 06:49:31.0	90.960	0.480	-0.230	-0.270
2020/01/31 06:49:31.1	90.940	0.470	-0.180	-0.200
2020/01/31 06:49:31.2	90.910	0.470	-0.130	-0.130
2020/01/31 06:49:31.3	90.880	0.460	-0.080	-0.060
2020/01/31 06:49:31.4	90.860	0.450	-0.040	0.010
2020/01/31 06:49:31.5	90.830	0.440	0.010	0.080
2020/01/31 06:49:31.6	90.810	0.430	0.040	0.140
2020/01/31 06:49:31.7	90.790	0.420	0.080	0.210
2020/01/31 06:49:31.8	90.770	0.410	0.110	0.280
2020/01/31 06:49:31.9	90.750	0.400	0.140	0.340
2020/01/31 06:49:32.0	90.730	0.390	0.170	0.410
2020/01/31 06:49:32.1	90.720	0.380	0.190	0.470
2020/01/31 06:49:32.2	90.700	0.370	0.210	0.540
2020/01/31 06:49:32.3	90.690	0.350	0.230	0.600
2020/01/31 06:49:32.4	90.680	0.340	0.240	0.660
2020/01/31 06:49:32.5	90.680	0.330	0.250	0.730
2020/01/31 06:49:32.6	90.680	0.310	0.270	0.790
2020/01/31 06:49:32.7	90.680	0.300	0.280	0.840
2020/01/31 06:49:32.8	90.680	0.280	0.280	0.900
2020/01/31 06:49:32.9	90.690	0.270	0.290	0.960
2020/01/31 06:49:33.0	90.700	0.250	0.300	1.020
2020/01/31 06:49:33.1	90.710	0.230	0.300	1.070
2020/01/31 06:49:33.2	90.740	0.210	0.310	1.130
2020/01/31 06:49:33.3	90.760	0.190	0.320	1.180
2020/01/31 06:49:33.4	90.780	0.170	0.330	1.230
2020/01/31 06:49:33.5	90.800	0.140	0.340	1.280
2020/01/31 06:49:33.6	90.820	0.110	0.350	1.330
2020/01/31 06:49:33.7	90.840	0.090	0.360	1.370
2020/01/31 06:49:33.8	90.870	0.060	0.370	1.420
2020/01/31 06:49:33.9	90.900	0.020	0.390	1.460
2020/01/31 06:49:34.0	90.920	-0.010	0.410	1.500
2020/01/31 06:49:34.1	90.950	-0.040	0.420	1.540
2020/01/31 06:49:34.2	90.970	-0.080	0.440	1.570
2020/01/31 06:49:34.3	91.000	-0.120	0.460	1.600
2020/01/31 06:49:34.4	91.020	-0.160	0.480	1.630
2020/01/31 06:49:34.5	91.050	-0.200	0.500	1.660
2020/01/31 06:49:34.6	91.070	-0.240	0.520	1.680
2020/01/31 06:49:34.7	91.100	-0.280	0.540	1.700
2020/01/31 06:49:34.8	91.120	-0.320	0.560	1.720
2020/01/31 06:49:34.9	91.140	-0.370	0.570	1.730
2020/01/31 06:49:35.0	91.160	-0.410	0.590	1.740
2020/01/31 06:49:35.1	91.180	-0.450	0.600	1.740
2020/01/31 06:49:35.2	91.200	-0.490	0.620	1.740
2020/01/31 06:49:35.3	91.210	-0.540	0.620	1.740
2020/01/31 06:49:35.4	91.230	-0.580	0.630	1.730
2020/01/31 06:49:35.5	91.240	-0.620	0.640	1.720
2020/01/31 06:49:35.6	91.250	-0.650	0.640	1.710
2020/01/31 06:49:35.7	91.260	-0.690	0.630	1.690
2020/01/31 06:49:35.8	91.270	-0.720	0.630	1.670
2020/01/31 06:49:35.9	91.270	-0.750	0.620	1.650
2020/01/31 06:49:36.0	91.280	-0.780	0.610	1.620
2020/01/31 06:49:36.1	91.290	-0.810	0.590	1.590
2020/01/31 06:49:36.2	91.310	-0.830	0.570	1.560
2020/01/31 06:49:36.3	91.310	-0.850	0.550	1.530
2020/01/31 06:49:36.4	91.320	-0.860	0.520	1.490
2020/01/31 06:49:36.5	91.320	-0.880	0.490	1.450
2020/01/31 06:49:36.6	91.320	-0.890	0.450	1.410
2020/01/31 06:49:36.7	91.330	-0.890	0.410	1.380
2020/01/31 06:49:36.8	91.330	-0.890	0.370	1.340
2020/01/31 06:49:36.9	91.340	-0.890	0.320	1.300
2020/01/31 06:49:37.0	91.340	-0.880	0.260	1.260
2020/01/31 06:49:37.1	91.340	-0.870	0.210	1.220
2020/01/31 06:49:37.2	91.350	-0.850	0.150	1.180
2020/01/31 06:49:37.3	91.350	-0.830	0.080	1.140
2020/01/31 06:49:37.4	91.360	-0.810	0.020	1.100
2020/01/31 06:49:37.5	91.360	-0.780	-0.050	1.070
2020/01/31 06:49:37.6	91.360	-0.750	-0.130	1.030
2020/01/31 06:49:37.7	91.360	-0.710	-0.200	1.000
2020/01/31 06:49:37.8	91.360	-0.670	-0.280	0.970
2020/01/31 06:49:37.9	91.360	-0.630	-0.360	0.940
2020/01/31 06:49:38.0	91.360	-0.590	-0.440	0.910
2020/01/31 06:49:38.1	91.360	-0.540	-0.530	0.880
2020/01/31 06:49:38.2	91.350	-0.490	-0.620	0.860
2020/01/31 06:49:38.3	91.350	-0.440	-0.700	0.830
2020/01/31 06:49:38.4	91.350	-0.380	-0.790	0.810
2020/01/31 06:49:38.5	91.350	-0.330	-0.870	0.790
2020/01/31 06:49:38.6	91.340	-0.270	-0.960	0.760
2020/01/31 06:49:38.7	91.340	-0.210	-1.040	0.740
2020/01/31 06:49:38.8	91.330	-0.160	-1.120	0.720
2020/01/31 06:49:38.9	91.330	-0.100	-1.200	0.700
2020/01/31 06:49:39.0	91.320	-0.040	-1.270	0.680
2020/01/31 06:49:39.1	91.320	0.020	-1.340	0.660
2020/01/31 06:49:39.2	91.310	0.070	-1.410	0.640
2020/01/31 06:49:39.3	91.310	0.130	-1.470	0.620
2020/01/31 06:49:39.4	91.300	0.180	-1.520	0.590
2020/01/31 06:49:39.5	91.300	0.230	-1.570	0.570
2020/01/31 06:49:39.6	91.300	0.280	-1.610	0.540
2020/01/31 06:49:39.7	91.300	0.330	-1.640	0.510
2020/01/31 06:49:39.8	91.300	0.370	-1.670	0.480
2020/01/31 06:49:39.9	91.290	0.410	-1.690	0.450
2020/01/31 06:49:40.0	91.300	0.450	-1.690	0.420
2020/01/31 06:49:40.1	91.300	0.480	-1.690	0.380
2020/01/31 06:49:40.2	91.290	0.510	-1.680	0.340
2020/01/31 06:49:40.3	91.290	0.540	-1.650	0.300
2020/01/31 06:49:40.4	91.300	0.560	-1.620	0.260
2020/01/31 06:49:40.5	91.300	0.580	-1.580	0.220
2020/01/31 06:49:40.6	91.310	0.590	-1.530	0.180
2020/01/31 06:49:40.7	91.310	0.600	-1.480	0.140
2020/01/31 06:49:40.8	91.310	0.610	-1.410	0.090
2020/01/31 06:49:40.9	91.320	0.610	-1.330	0.050
2020/01/31 06:49:41.0	91.320	0.610	-1.250	0.010
2020/01/31 06:49:41.1	91.330	0.600	-1.160	-0.040
2020/01/31 06:49:41.2	91.330	0.590	-1.060	-0.080
2020/01/31 06:49:41.3	91.340	0.580	-0.960	-0.120
2020/01/31 06:49:41.4	91.340	0.560	-0.850	-0.160
2020/01/31 06:49:41.5	91.340	0.540	-0.730	-0.200
2020/01/31 06:49:41.6	91.340	0.520	-0.610	-0.240
2020/01/31 06:49:41.7	91.340	0.490	-0.490	-0.280
2020/01/31 06:49:41.8	91.340	0.460	-0.360	-0.310
2020/01/31 06:49:41.9	91.340	0.430	-0.240	-0.350
2020/01/31 06:49:42.0	91.330	0.400	-0.110	-0.380
2020/01/31 06:49:42.1	91.320	0.370	0.020	-0.400
2020/01/31 06:49:42.2	91.310	0.330	0.150	-0.430
2020/01/31 06:49:42.3	91.300	0.300	0.270	-0.460
2020/01/31 06:49:42.4	91.290	0.260	0.400	-0.480
2020/01/31 06:49:42.5	91.280	0.220	0.520	-0.500
2020/01/31 06:49:42.6	91.270	0.190	0.630	-0.520
2020/01/31 06:49:42.7	91.250	0.150	0.740	-0.530
2020/01/31 06:49:42.8	91.240	0.120	0.840	-0.550
2020/01/31 06:49:42.9	91.220	0.080	0.940	-0.560
2020/01/31 06:49:43.0	91.210	0.050	1.030	-0.570
2020/01/31 06:49:43.1	91.190	0.010	1.110	-0.580
2020/01/31 06:49:43.2	91.170	-0.020	1.180	-0.580
2020/01/31 06:49:43.3	91.150	-0.050	1.240	-0.590
2020/01/31 06:49:43.4	91.130	-0.070	1.300	-0.590
2020/01/31 06:49:43.5	91.110	-0.100	1.340	-0.590
2020/01/31 06:49:43.6	91.090	-0.120	1.380	-0.590
2020/01/31 06:49:43.7	91.070	-0.140	1.400	-0.580
2020/01/31 06:49:43.8	91.050	-0.160	1.420	-0.580
2020/01/31 06:49:43.9	91.030	-0.180	1.420	-0.570
2020/01/31 06:49:44.0	91.010	-0.190	1.420	-0.560
2020/01/31 06:49:44.1	90.990	-0.210	1.400	-0.550
2020/01/31 06:49:44.2	90.960	-0.220	1.380	-0.540
2020/01/31 06:49:44.3	90.940	-0.220	1.350	-0.530
2020/01/31 06:49:44.4	90.930	-0.230	1.310	-0.520
2020/01/31 06:49:44.5	90.910	-0.230	1.260	-0.510
2020/01/31 06:49:44.6	90.900	-0.240	1.200	-0.500
2020/01/31 06:49:44.7	90.880	-0.230	1.140	-0.480
2020/01/31 06:49:44.8	90.870	-0.230	1.070	-0.470
2020/01/31 06:49:44.9	90.860	-0.230	0.990	-0.460
2020/01/31 06:49:45.0	90.860	-0.220	0.910	-0.450
2020/01/31 06:49:45.1	90.860	-0.210	0.820	-0.440
2020/01/31 06:49:45.2	90.860	-0.200	0.720	-0.430
2020/01/31 06:49:45.3	90.860	-0.190	0.620	-0.420
2020/01/31 06:49:45.4	90.870	-0.180	0.520	-0.410
2020/01/31 06:49:45.5	90.880	-0.160	0.420	-0.400
2020/01/31 06:49:45.6	90.890	-0.150	0.320	-0.400
2020/01/31 06:49:45.7	90.900	-0.130	0.210	-0.390
2020/01/31 06:49:45.8	90.920	-0.110	0.100	-0.390
2020/01/31 06:49:45.9	90.940	-0.090	-0.010	-0.380
2020/01/31 06:49:46.0	90.970	-0.070	-0.120	-0.380
2020/01/31 06:49:46.1	90.990	-0.040	-0.230	-0.370
2020/01/31 06:49:46.2	91.020	-0.020	-0.340	-0.370
2020/01/31 06:49:46.3	91.050	0.010	-0.440	-0.360
2020/01/31 06:49:46.4	91.090	0.030	-0.550	-0.360
2020/01/31 06:49:46.5	91.120	0.060	-0.650	-0.350
2020/01/31 06:49:46.6	91.160	0.090	-0.750	-0.350
2020/01/31 06:49:46.7	91.200	0.120	-0.840	-0.340
2020/01/31 06:49:46.8	91.250	0.140	-0.930	-0.330
2020/01/31 06:49:46.9	91.290	0.170	-1.020	-0.320
2020/01/31 06:49:47.0	91.330	0.200	-1.100	-0.310
2020/01/31 06:49:47.1	91.380	0.230	-1.170	-0.290
2020/01/31 06:49:47.2	91.430	0.260	-1.240	-0.270
2020/01/31 06:49:47.3	91.470	0.280	-1.300	-0.250
2020/01/31 06:49:47.4	91.520	0.310	-1.350	-0.230
2020/01/31 06:49:47.5	91.560	0.330	-1.390	-0.200
2020/01/31 06:49:47.6	91.600	0.360	-1.420	-0.160
2020/01/31 06:49:47.7	91.640	0.380	-1.450	-0.120
2020/01/31 06:49:47.8	91.670	0.400	-1.470	-0.080
2020/01/31 06:49:47.9	91.710	0.420	-1.470	-0.030
2020/01/31 06:49:48.0	91.740	0.430	-1.470	0.020
2020/01/31 06:49:48.1	91.770	0.450	-1.460	0.080
2020/01/31 06:49:48.2	91.800	0.460	-1.440	0.150
2020/01/31 06:49:48.3	91.830	0.470	-1.410	0.210
2020/01/31 06:49:48.4	91.850	0.470	-1.380	0.280
2020/01/31 06:49:48.5	91.860	0.480	-1.330	0.360
2020/01/31 06:49:48.6	91.870	0.480	-1.280	0.440
2020/01/31 06:49:48.7	91.890	0.470	-1.220	0.520
2020/01/31 06:49:48.8	91.890	0.470	-1.160	0.600
2020/01/31 06:49:48.9	91.900	0.460	-1.080	0.690
2020/01/31 06:49:49.0	91.900	0.450	-1.010	0.780
2020/01/31 06:49:49.1	91.900	0.440	-0.930	0.880
2020/01/31 06:49:49.2	91.900	0.420	-0.840	0.970
2020/01/31 06:49:49.3	91.890	0.400	-0.750	1.070
2020/01/31 06:49:49.4	91.880	0.380	-0.660	1.170
2020/01/31 06:49:49.5	91.870	0.360	-0.570	1.270
2020/01/31 06:49:49.6	91.860	0.330	-0.480	1.370
2020/01/31 06:49:49.7	91.840	0.300	-0.390	1.460
2020/01/31 06:49:49.8	91.820	0.270	-0.300	1.560
2020/01/31 06:49:49.9	91.800	0.240	-0.210	1.660
2020/01/31 06:49:50.0	91.780	0.210	-0.120	1.750
2020/01/31 06:49:50.1	91.760	0.180	-0.030	1.840
2020/01/31 06:49:50.2	91.740	0.140	0.060	1.930
2020/01/31 06:49:50.3	91.720	0.110	0.140	2.010
2020/01/31 06:49:50.4	91.690	0.070	0.220	2.090
2020/01/31 06:49:50.5	91.660	0.030	0.290	2.170
2020/01/31 06:49:50.6	91.630	-0.000	0.360	2.240
2020/01/31 06:49:50.7	91.600	-0.040	0.420	2.310
2020/01/31 06:49:50.8	91.570	-0.080	0.480	2.370
2020/01/31 06:49:50.9	91.540	-0.110	0.530	2.420
2020/01/31 06:49:51.0	91.510	-0.150	0.580	2.470
2020/01/31 06:49:51.1	91.470	-0.180	0.620	2.510
2020/01/31 06:49:51.2	91.440	-0.220	0.650	2.550
2020/01/31 06:49:51.3	91.410	-0.250	0.680	2.580
2020/01/31 06:49:51.4	91.380	-0.280	0.710	2.600
2020/01/31 06:49:51.5	91.350	-0.310	0.720	2.610
2020/01/31 06:49:51.6	91.320	-0.340	0.740	2.620
2020/01/31 06:49:51.7	91.290	-0.360	0.740	2.630
2020/01/31 06:49:51.8	91.260	-0.390	0.740	2.620
2020/01/31 06:49:51.9	91.230	-0.410	0.730	2.610
2020/01/31 06:49:52.0	91.200	-0.420	0.720	2.600
2020/01/31 06:49:52.1	91.180	-0.440	0.700	2.580
2020/01/31 06:49:52.2	91.150	-0.450	0.680	2.550
2020/01/31 06:49:52.3	91.130	-0.460	0.650	2.510
2020/01/31 06:49:52.4	91.110	-0.470	0.620	2.470
2020/01/31 06:49:52.5	91.090	-0.480	0.580	2.430
2020/01/31 06:49:52.6	91.070	-0.480	0.540	2.380
2020/01/31 06:49:52.7	91.050	-0.480	0.500	2.320
2020/01/31 06:49:52.8	91.040	-0.480	0.450	2.260
2020/01/31 06:49:52.9	91.030	-0.480	0.400	2.200
2020/01/31 06:49:53.0	91.020	-0.470	0.350	2.130
2020/01/31 06:49:53.1	91.020	-0.460	0.300	2.050
2020/01/31 06:49:53.2	91.020	-0.450	0.240	1.970
2020/01/31 06:49:53.3	91.020	-0.440	0.190	1.880
2020/01/31 06:49:53.4	91.020	-0.430	0.130	1.800
2020/01/31 06:49:53.5	91.030	-0.410	0.070	1.710
2020/01/31 06:49:53.6	91.040	-0.400	0.010	1.610
2020/01/31 06:49:53.7	91.050	-0.380	-0.040	1.520
2020/01/31 06:49:53.8	91.070	-0.370	-0.100	1.420
2020/01/31 06:49:53.9	91.080	-0.350	-0.150	1.320
2020/01/31 06:49:54.0	91.100	-0.330	-0.200	1.220
2020/01/31 06:49:54.1	91.120	-0.310	-0.250	1.110
2020/01/31 06:49:54.2	91.130	-0.290	-0.300	1.010
2020/01/31 06:49:54.3	91.160	-0.280	-0.340	0.900
2020/01/31 06:49:54.4	91.180	-0.260	-0.380	0.800
2020/01/31 06:49:54.5	91.210	-0.240	-0.420	0.700
2020/01/31 06:49:54.6	91.230	-0.220	-0.450	0.600
2020/01/31 06:49:54.7	91.260	-0.210	-0.480	0.490
2020/01/31 06:49:54.8	91.280	-0.190	-0.510	0.400
2020/01/31 06:49:54.9	91.310	-0.170	-0.530	0.300
2020/01/31 06:49:55.0	91.330	-0.160	-0.550	0.200
2020/01/31 06:49:55.1	91.350	-0.140	-0.560	0.110
2020/01/31 06:49:55.2	91.370	-0.130	-0.570	0.010
2020/01/31 06:49:55.3	91.390	-0.110	-0.580	-0.070
2020/01/31 06:49:55.4	91.410	-0.100	-0.580	-0.160
2020/01/31 06:49:55.5	91.420	-0.090	-0.580	-0.250
2020/01/31 06:49:55.6	91.440	-0.080	-0.580	-0.330
2020/01/31 06:49:55.7	91.450	-0.060	-0.580	-0.410
2020/01/31 06:49:55.8	91.460	-0.050	-0.570	-0.480
2020/01/31 06:49:55.9	91.470	-0.040	-0.560	-0.560
2020/01/31 06:49:56.0	91.480	-0.030	-0.550	-0.630
2020/01/31 06:49:56.1	91.490	-0.020	-0.540	-0.700
2020/01/31 06:49:56.2	91.490	-0.010	-0.520	-0.760
2020/01/31 06:49:56.3	91.490	0.000	-0.510	-0.820
2020/01/31 06:49:56.4	91.490	0.010	-0.490	-0.880
2020/01/31 06:49:56.5	91.490	0.020	-0.470	-0.940
2020/01/31 06:49:56.6	91.490	0.030	-0.460	-0.990
2020/01/31 06:49:56.7	91.490	0.040	-0.440	-1.040
2020/01/31 06:49:56.8	91.480	0.050	-0.420	-1.080
2020/01/31 06:49:56.9	91.470	0.060	-0.410	-1.130
2020/01/31 06:49:57.0	91.470	0.070	-0.390	-1.160
2020/01/31 06:49:57.1	91.460	0.080	-0.380	-1.190
2020/01/31 06:49:57.2	91.450	0.080	-0.360	-1.220
2020/01/31 06:49:57.3	91.430	0.090	-0.340	-1.240
2020/01/31 06:49:57.4	91.420	0.100	-0.330	-1.260
2020/01/31 06:49:57.5	91.410	0.110	-0.310	-1.270
2020/01/31 06:49:57.6	91.390	0.120	-0.290	-1.270
2020/01/31 06:49:57.7	91.380	0.120	-0.280	-1.270
2020/01/31 06:49:57.8	91.360	0.130	-0.270	-1.270
2020/01/31 06:49:57.9	91.350	0.140	-0.250	-1.250
2020/01/31 06:49:58.0	91.330	0.140	-0.240	-1.240
2020/01/31 06:49:58.1	91.310	0.150	-0.230	-1.210
2020/01/31 06:49:58.2	91.290	0.150	-0.210	-1.180
2020/01/31 06:49:58.3	91.270	0.150	-0.200	-1.150
2020/01/31 06:49:58.4	91.260	0.160	-0.190	-1.110
2020/01/31 06:49:58.5	91.250	0.160	-0.170	-1.070
2020/01/31 06:49:58.6	91.230	0.160	-0.160	-1.020
2020/01/31 06:49:58.7	91.220	0.160	-0.150	-0.970
2020/01/31 06:49:58.8	91.210	0.160	-0.130	-0.920
2020/01/31 06:49:58.9	91.210	0.160	-0.120	-0.860
2020/01/31 06:49:59.0	91.200	0.160	-0.110	-0.810
2020/01/31 06:49:59.1	91.190	0.150	-0.090	-0.750
2020/01/31 06:49:59.2	91.190	0.150	-0.080	-0.680
2020/01/31 06:49:59.3	91.190	0.150	-0.060	-0.620
2020/01/31 06:49:59.4	91.190	0.140	-0.050	-0.560
2020/01/31 06:49:59.5	91.190	0.140	-0.040	-0.490
2020/01/31 06:49:59.6	91.190	0.130	-0.030	-0.430
2020/01/31 06:49:59.7	91.200	0.120	-0.020	-0.370
2020/01/31 06:49:59.8	91.210	0.120	-0.010	-0.300
2020/01/31 06:49:59.9	91.220	0.110	-0.000	-0.240
2020/01/31 06:50:00.0	91.230	0.100	0.000	-0.170
2020/01/31 06:50:00.1	91.240	0.090	0.010	-0.110
2020/01/31 06:50:00.2	91.240	0.090	0.010	-0.040
2020/01/31 06:50:00.3	91.260	0.080	0.010	0.020
2020/01/31 06:50:00.4	91.270	0.070	0.010	0.080
2020/01/31 06:50:00.5	91.290	0.070	0.000	0.140
2020/01/31 06:50:00.6	91.300	0.060	-0.000	0.210
2020/01/31 06:50:00.7	91.320	0.060	-0.010	0.270
2020/01/31 06:50:00.8	91.330	0.050	-0.020	0.330
2020/01/31 06:50:00.9	91.340	0.050	-0.030	0.390
2020/01/31 06:50:01.0	91.360	0.050	-0.040	0.450
2020/01/31 06:50:01.1	91.370	0.050	-0.050	0.520
2020/01/31 06:50:01.2	91.370	0.050	-0.060	0.580
2020/01/31 06:50:01.3	91.380	0.050	-0.070	0.640
2020/01/31 06:50:01.4	91.390	0.050	-0.080	0.710
2020/01/31 06:50:01.5	91.400	0.050	-0.090	0.770
2020/01/31 06:50:01.6	91.400	0.050	-0.100	0.830
2020/01/31 06:50:01.7	91.400	0.050	-0.120	0.900
2020/01/31 06:50:01.8	91.400	0.060	-0.130	0.960
2020/01/31 06:50:01.9	91.400	0.060	-0.140	1.030
2020/01/31 06:50:02.0	91.400	0.070	-0.150	1.090
2020/01/31 06:50:02.1	91.390	0.070	-0.160	1.160
2020/01/31 06:50:02.2	91.400	0.080	-0.160	1.230
2020/01/31 06:50:02.3	91.390	0.090	-0.170	1.290
2020/01/31 06:50:02.4	91.380	0.090	-0.180	1.360
2020/01/31 06:50:02.5	91.360	0.100	-0.180	1.430
2020/01/31 06:50:02.6	91.350	0.110	-0.190	1.490
2020/01/31 06:50:02.7	91.340	0.120	-0.190	1.560
2020/01/31 06:50:02.8	91.320	0.120	-0.190	1.620
2020/01/31 06:50:02.9	91.300	0.130	-0.200	1.680
2020/01/31 06:50:03.0	91.290	0.140	-0.200	1.740
2020/01/31 06:50:03.1	91.270	0.150	-0.200	1.800
2020/01/31 06:50:03.2	91.270	0.160	-0.200	1.860
2020/01/31 06:50:03.3	91.260	0.160	-0.210	1.910
2020/01/31 06:50:03.4	91.240	0.170	-0.210	1.960
2020/01/31 06:50:03.5	91.230	0.180	-0.210	2.010
2020/01/31 06:50:03.6	91.220	0.190	-0.210	2.050
2020/01/31 06:50:03.7	91.220	0.190	-0.210	2.090
2020/01/31 06:50:03.8	91.210	0.200	-0.210	2.120
2020/01/31 06:50:03.9	91.210	0.210	-0.220	2.150
2020/01/31 06:50:04.0	91.210	0.220	-0.220	2.180
2020/01/31 06:50:04.1	91.210	0.220	-0.220	2.200
2020/01/31 06:50:04.2	91.220	0.230	-0.220	2.220
2020/01/31 06:50:04.3	91.220	0.230	-0.230	2.230
2020/01/31 06:50:04.4	91.230	0.240	-0.230	2.240
2020/01/31 06:50:04.5	91.240	0.240	-0.240	2.250
2020/01/31 06:50:04.6	91.250	0.240	-0.240	2.250
2020/01/31 06:50:04.7	91.260	0.240	-0.250	2.250
2020/01/31 06:50:04.8	91.270	0.240	-0.250	2.250
2020/01/31 06:50:04.9	91.280	0.250	-0.260	2.240
2020/01/31 06:50:05.0	91.300	0.240	-0.260	2.230
2020/01/31 06:50:05.1	91.310	0.240	-0.260	2.220
2020/01/31 06:50:05.2	91.320	0.240	-0.260	2.210
2020/01/31 06:50:05.3	91.340	0.240	-0.270	2.200
2020/01/31 06:50:05.4	91.350	0.230	-0.270	2.180
2020/01/31 06:50:05.5	91.360	0.220	-0.270	2.170
2020/01/31 06:50:05.6	91.370	0.220	-0.270	2.150
2020/01/31 06:50:05.7	91.380	0.210	-0.270	2.130
2020/01/31 06:50:05.8	91.390	0.200	-0.270	2.100
2020/01/31 06:50:05.9	91.390	0.190	-0.270	2.080
2020/01/31 06:50:06.0	91.400	0.170	-0.260	2.050
2020/01/31 06:50:06.1	91.400	0.160	-0.260	2.030
2020/01/31 06:50:06.2	91.410	0.140	-0.250	1.990
2020/01/31 06:50:06.3	91.410	0.130	-0.240	1.960
2020/01/31 06:50:06.4	91.410	0.110	-0.230	1.920
2020/01/31 06:50:06.5	91.410	0.090	-0.210	1.880
2020/01/31 06:50:06.6	91.410	0.070	-0.200	1.840
2020/01/31 06:50:06.7	91.410	0.050	-0.180	1.800
2020/01/31 06:50:06.8	91.400	0.020	-0.160	1.750
2020/01/31 06:50:06.9	91.400	0.000	-0.140	1.700
2020/01/31 06:50:07.0	91.400	-0.020	-0.120	1.640
2020/01/31 06:50:07.1	91.390	-0.050	-0.090	1.580
2020/01/31 06:50:07.2	91.400	-0.070	-0.070	1.520
2020/01/31 06:50:07.3	91.400	-0.100	-0.040	1.460
2020/01/31 06:50:07.4	91.390	-0.120	-0.020	1.390
2020/01/31 06:50:07.5	91.390	-0.150	0.010	1.320
2020/01/31 06:50:07.6	91.380	-0.170	0.030	1.240
2020/01/31 06:50:07.7	91.380	-0.200	0.060	1.170
2020/01/31 06:50:07.8	91.380	-0.220	0.080	1.090
2020/01/31 06:50:07.9	91.370	-0.240	0.100	1.010
2020/01/31 06:50:08.0	91.370	-0.270	0.120	0.920
2020/01/31 06:50:08.1	91.370	-0.290	0.140	0.840
2020/01/31 06:50:08.2	91.360	-0.310	0.160	0.750
2020/01/31 06:50:08.3	91.370	-0.330	0.170	0.660
2020/01/31 06:50:08.4	91.370	-0.350	0.180	0.570
2020/01/31 06:50:08.5	91.370	-0.360	0.190	0.480
2020/01/31 06:50:08.6	91.380	-0.370	0.190	0.390
2020/01/31 06:50:08.7	91.390	-0.390	0.200	0.290
2020/01/31 06:50:08.8	91.390	-0.400	0.190	0.200
2020/01/31 06:50:08.9	91.400	-0.400	0.190	0.110
2020/01/31 06:50:09.0	91.420	-0.410	0.180	0.020
2020/01/31 06:50:09.1	91.430	-0.410	0.170	-0.070
2020/01/31 06:50:09.2	91.440	-0.410	0.150	-0.150
2020/01/31 06:50:09.3	91.450	-0.410	0.130	-0.240
2020/01/31 06:50:09.4	91.470	-0.400	0.110	-0.320
2020/01/31 06:50:09.5	91.490	-0.400	0.080	-0.400
2020/01/31 06:50:09.6	91.510	-0.390	0.060	-0.470
2020/01/31 06:50:09.7	91.530	-0.380	0.030	-0.540
2020/01/31 06:50:09.8	91.550	-0.360	-0.000	-0.610
2020/01/31 06:50:09.9	91.580	-0.350	-0.040	-0.670
2020/01/31 06:50:10.0	91.600	-0.330	-0.070	-0.730
2020/01/31 06:50:10.1	91.630	-0.320	-0.100	-0.780
2020/01/31 06:50:10.2	91.650	-0.300	-0.140	-0.830
2020/01/31 06:50:10.3	91.670	-0.280	-0.170	-0.870
2020/01/31 06:50:10.4	91.700	-0.250	-0.210	-0.900
2020/01/31 06:50:10.5	91.720	-0.230	-0.240	-0.930
2020/01/31 06:50:10.6	91.750	-0.210	-0.280	-0.950
2020/01/31 06:50:10.7	91.770	-0.190	-0.310	-0.970
2020/01/31 06:50:10.8	91.790	-0.160	-0.340	-0.970
2020/01/31 06:50:10.9	91.810	-0.140	-0.370	-0.980
2020/01/31 06:50:11.0	91.830	-0.120	-0.390	-0.970
2020/01/31 06:50:11.1	91.850	-0.100	-0.420	-0.960
2020/01/31 06:50:11.2	91.840	-0.080	-0.440	-0.950
2020/01/31 06:50:11.3	91.850	-0.060	-0.460	-0.930
2020/01/31 06:50:11.4	91.860	-0.040	-0.470	-0.900
2020/01/31 06:50:11.5	91.870	-0.020	-0.490	-0.880
2020/01/31 06:50:11.6	91.880	-0.010	-0.490	-0.850
2020/01/31 06:50:11.7	91.880	0.010	-0.500	-0.810
2020/01/31 06:50:11.8	91.890	0.020	-0.500	-0.780
2020/01/31 06:50:11.9	91.890	0.030	-0.500	-0.740
2020/01/31 06:50:12.0	91.890	0.040	-0.500	-0.690
2020/01/31 06:50:12.1	91.880	0.050	-0.490	-0.650
2020/01/31 06:50:12.2	91.880	0.060	-0.480	-0.610
2020/01/31 06:50:12.3	91.870	0.060	-0.470	-0.560
2020/01/31 06:50:12.4	91.870	0.060	-0.460	-0.510
2020/01/31 06:50:12.5	91.860	0.070	-0.440	-0.470
2020/01/31 06:50:12.6	91.850	0.070	-0.420	-0.420
2020/01/31 06:50:12.7	91.840	0.060	-0.410	-0.370
2020/01/31 06:50:12.8	91.820	0.060	-0.390	-0.320
2020/01/31 06:50:12.9	91.810	0.060	-0.370	-0.280
2020/01/31 06:50:13.0	91.800	0.050	-0.350	-0.230
2020/01/31 06:50:13.1	91.780	0.050	-0.330	-0.190
2020/01/31 06:50:13.2	91.760	0.040	-0.300	-0.140
2020/01/31 06:50:13.3	91.740	0.030	-0.280	-0.090
2020/01/31 06:50:13.4	91.730	0.030	-0.260	-0.040
2020/01/31 06:50:13.5	91.710	0.020	-0.240	0.000
2020/01/31 06:50:13.6	91.700	0.010	-0.220	0.050
2020/01/31 06:50:13.7	91.680	0.000	-0.200	0.100
2020/01/31 06:50:13.8	91.670	-0.010	-0.180	0.140
2020/01/31 06:50:13.9	91.650	-0.020	-0.160	0.190
2020/01/31 06:50:14.0	91.640	-0.020	-0.140	0.240
2020/01/31 06:50:14.1	91.630	-0.030	-0.130	0.290
2020/01/31 06:50:14.2	91.620	-0.040	-0.110	0.330
2020/01/31 06:50:14.3	91.610	-0.050	-0.090	0.380
2020/01/31 06:50:14.4	91.590	-0.050	-0.080	0.430
2020/01/31 06:50:14.5	91.580	-0.050	-0.060	0.480
2020/01/31 06:50:14.6	91.570	-0.060	-0.040	0.540
2020/01/31 06:50:14.7	91.560	-0.060	-0.030	0.590
2020/01/31 06:50:14.8	91.550	-0.060	-0.020	0.640
2020/01/31 06:50:14.9	91.540	-0.060	-0.000	0.690
2020/01/31 06:50:15.0	91.520	-0.060	0.010	0.750
2020/01/31 06:50:15.1	91.510	-0.060	0.020	0.800
2020/01/31 06:50:15.2	91.520	-0.050	0.030	0.860
2020/01/31 06:50:15.3	91.510	-0.050	0.040	0.910
2020/01/31 06:50:15.4	91.500	-0.040	0.050	0.970
2020/01/31 06:50:15.5	91.490	-0.030	0.060	1.020
2020/01/31 06:50:15.6	91.480	-0.020	0.060	1.080
2020/01/31 06:50:15.7	91.470	-0.010	0.070	1.130
2020/01/31 06:50:15.8	91.470	-0.000	0.080	1.180
2020/01/31 06:50:15.9	91.460	0.010	0.080	1.230
2020/01/31 06:50:16.0	91.450	0.030	0.080	1.280
2020/01/31 06:50:16.1	91.450	0.040	0.080	1.330
2020/01/31 06:50:16.2	91.440	0.050	0.080	1.380
2020/01/31 06:50:16.3	91.440	0.070	0.080	1.420
2020/01/31 06:50:16.4	91.430	0.080	0.070	1.460
2020/01/31 06:50:16.5	91.430	0.100	0.060	1.500
2020/01/31 06:50:16.6	91.430	0.110	0.060	1.530
2020/01/31 06:50:16.7	91.440	0.130	0.040	1.560
2020/01/31 06:50:16.8	91.440	0.140	0.030	1.590
2020/01/31 06:50:16.9	91.440	0.160	0.020	1.610
2020/01/31 06:50:17.0	91.450	0.170	-0.000	1.630
2020/01/31 06:50:17.1	91.460	0.190	-0.020	1.640
2020/01/31 06:50:17.2	91.490	0.200	-0.040	1.650
2020/01/31 06:50:17.3	91.500	0.210	-0.060	1.660
2020/01/31 06:50:17.4	91.510	0.220	-0.080	1.660
2020/01/31 06:50:17.5	91.530	0.230	-0.110	1.660
2020/01/31 06:50:17.6	91.550	0.240	-0.130	1.650
2020/01/31 06:50:17.7	91.560	0.250	-0.160	1.640
2020/01/31 06:50:17.8	91.590	0.250	-0.180	1.630
2020/01/31 06:50:17.9	91.610	0.260	-0.210	1.610
2020/01/31 06:50:18.0	91.630	0.260	-0.230	1.590
2020/01/31 06:50:18.1	91.650	0.260	-0.260	1.570
2020/01/31 06:50:18.2	91.680	0.260	-0.290	1.540
2020/01/31 06:50:18.3	91.700	0.260	-0.310	1.510
2020/01/31 06:50:18.4	91.730	0.260	-0.340	1.480
2020/01/31 06:50:18.5	91.750	0.260	-0.360	1.450
2020/01/31 06:50:18.6	91.770	0.260	-0.380	1.410
2020/01/31 06:50:18.7	91.800	0.250	-0.400	1.380
2020/01/31 06:50:18.8	91.820	0.240	-0.420	1.340
2020/01/31 06:50:18.9	91.840	0.240	-0.440	1.300
2020/01/31 06:50:19.0	91.860	0.230	-0.450	1.260
2020/01/31 06:50:19.1	91.880	0.220	-0.470	1.230
2020/01/31 06:50:19.2	91.910	0.210	-0.470	1.190
2020/01/31 06:50:19.3	91.930	0.200	-0.480	1.150
2020/01/31 06:50:19.4	91.950	0.190	-0.490	1.110
2020/01/31 06:50:19.5	91.970	0.180	-0.490	1.080
2020/01/31 06:50:19.6	91.980	0.170	-0.490	1.040
2020/01/31 06:50:19.7	92.000	0.160	-0.490	1.000
2020/01/31 06:50:19.8	92.020	0.150	-0.480	0.970
2020/01/31 06:50:19.9	92.030	0.140	-0.470	0.940
2020/01/31 06:50:20.0	92.050	0.120	-0.460	0.910
2020/01/31 06:50:20.1	92.060	0.110	-0.440	0.880
2020/01/31 06:50:20.2	92.070	0.100	-0.420	0.850
2020/01/31 06:50:20.3	92.090	0.090	-0.400	0.830
2020/01/31 06:50:20.4	92.100	0.080	-0.380	0.800
2020/01/31 06:50:20.5	92.110	0.070	-0.350	0.790
2020/01/31 06:50:20.6	92.120	0.050	-0.330	0.770
2020/01/31 06:50:20.7	92.130	0.040	-0.300	0.760
2020/01/31 06:50:20.8	92.140	0.030	-0.270	0.750
2020/01/31 06:50:20.9	92.150	0.020	-0.230	0.750
2020/01/31 06:50:21.0	92.150	0.010	-0.200	0.740
2020/01/31 06:50:21.1	92.160	0.000	-0.160	0.740
2020/01/31 06:50:21.2	92.160	-0.010	-0.130	0.750
2020/01/31 06:50:21.3	92.170	-0.020	-0.090	0.750
2020/01/31 06:50:21.4	92.170	-0.030	-0.050	0.760
2020/01/31 06:50:21.5	92.180	-0.040	-0.010	0.770
2020/01/31 06:50:21.6	92.180	-0.050	0.020	0.790
2020/01/31 06:50:21.7	92.180	-0.060	0.060	0.800
2020/01/31 06:50:21.8	92.180	-0.070	0.100	0.820
2020/01/31 06:50:21.9	92.180	-0.080	0.130	0.840
2020/01/31 06:50:22.0	92.180	-0.090	0.170	0.860
2020/01/31 06:50:22.1	92.180	-0.100	0.200	0.880
2020/01/31 06:50:22.2	92.180	-0.110	0.230	0.900
2020/01/31 06:50:22.3	92.180	-0.120	0.260	0.920
2020/01/31 06:50:22.4	92.180	-0.130	0.280	0.930
2020/01/31 06:50:22.5	92.170	-0.140	0.300	0.950
2020/01/31 06:50:22.6	92.170	-0.150	0.320	0.970
2020/01/31 06:50:22.7	92.170	-0.160	0.340	0.980
2020/01/31 06:50:22.8	92.160	-0.170	0.350	0.990
2020/01/31 06:50:22.9	92.160	-0.180	0.360	1.000
2020/01/31 06:50:23.0	92.160	-0.190	0.360	1.000
2020/01/31 06:50:23.1	92.150	-0.200	0.370	1.010
2020/01/31 06:50:23.2	92.140	-0.210	0.360	1.010
2020/01/31 06:50:23.3	92.140	-0.220	0.350	1.000
2020/01/31 06:50:23.4	92.130	-0.230	0.340	1.000
2020/01/31 06:50:23.5	92.130	-0.230	0.330	0.990
2020/01/31 06:50:23.6	92.120	-0.240	0.310	0.970
2020/01/31 06:50:23.7	92.120	-0.240	0.280	0.960
2020/01/31 06:50:23.8	92.110	-0.250	0.250	0.940
2020/01/31 06:50:23.9	92.110	-0.250	0.220	0.920
2020/01/31 06:50:24.0	92.100	-0.250	0.180	0.900
2020/01/31 06:50:24.1	92.100	-0.250	0.140	0.870
2020/01/31 06:50:24.2	92.090	-0.250	0.090	0.850
2020/01/31 06:50:24.3	92.090	-0.240	0.050	0.820
2020/01/31 06:50:24.4	92.080	-0.240	-0.000	0.790
2020/01/31 06:50:24.5	92.080	-0.230	-0.050	0.760
2020/01/31 06:50:24.6	92.080	-0.220	-0.110	0.730
2020/01/31 06:50:24.7	92.080	-0.210	-0.160	0.700
2020/01/31 06:50:24.8	92.080	-0.200	-0.220	0.670
2020/01/31 06:50:24.9	92.080	-0.190	-0.280	0.640
2020/01/31 06:50:25.0	92.080	-0.170	-0.330	0.600
2020/01/31 06:50:25.1	92.080	-0.160	-0.390	0.570
2020/01/31 06:50:25.2	92.080	-0.140	-0.450	0.540
2020/01/31 06:50:25.3	92.090	-0.120	-0.500	0.510
2020/01/31 06:50:25.4	92.090	-0.100	-0.550	0.490
2020/01/31 06:50:25.5	92.090	-0.080	-0.600	0.460
2020/01/31 06:50:25.6	92.100	-0.060	-0.650	0.430
2020/01/31 06:50:25.7	92.100	-0.040	-0.690	0.410
2020/01/31 06:50:25.8	92.100	-0.020	-0.730	0.390
2020/01/31 06:50:25.9	92.110	0.010	-0.770	0.370
2020/01/31 06:50:26.0	92.110	0.030	-0.800	0.350
2020/01/31 06:50:26.1	92.110	0.050	-0.820	0.330
2020/01/31 06:50:26.2	92.110	0.070	-0.840	0.320
2020/01/31 06:50:26.3	92.110	0.090	-0.860	0.310
2020/01/31 06:50:26.4	92.110	0.110	-0.870	0.290
2020/01/31 06:50:26.5	92.110	0.130	-0.870	0.290
2020/01/31 06:50:26.6	92.110	0.150	-0.870	0.280
2020/01/31 06:50:26.7	92.110	0.160	-0.860	0.280
2020/01/31 06:50:26.8	92.100	0.180	-0.850	0.270
2020/01/31 06:50:26.9	92.100	0.190	-0.830	0.270
2020/01/31 06:50:27.0	92.090	0.200	-0.800	0.280
2020/01/31 06:50:27.1	92.090	0.210	-0.770	0.280
2020/01/31 06:50:27.2	92.070	0.210	-0.730	0.280
2020/01/31 06:50:27.3	92.070	0.220	-0.690	0.290
2020/01/31 06:50:27.4	92.060	0.220	-0.640	0.290
2020/01/31 06:50:27.5	92.050	0.220	-0.590	0.300
2020/01/31 06:50:27.6	92.050	0.210	-0.540	0.310
2020/01/31 06:50:27.7	92.040	0.210	-0.480	0.320
2020/01/31 06:50:27.8	92.030	0.200	-0.420	0.330
2020/01/31 06:50:27.9	92.030	0.190	-0.360	0.340
2020/01/31 06:50:28.0	92.020	0.180	-0.300	0.350
2020/01/31 06:50:28.1	92.020	0.160	-0.240	0.360
2020/01/31 06:50:28.2	92.010	0.140	-0.180	0.370
2020/01/31 06:50:28.3	92.010	0.130	-0.110	0.380
2020/01/31 06:50:28.4	92.010	0.100	-0.050	0.390
2020/01/31 06:50:28.5	92.010	0.080	0.010	0.390
2020/01/31 06:50:28.6	92.010	0.060	0.060	0.400
2020/01/31 06:50:28.7	92.010	0.040	0.120	0.400
2020/01/31 06:50:28.8	92.010	0.010	0.170	0.410
2020/01/31 06:50:28.9	92.020	-0.020	0.220	0.410
2020/01/31 06:50:29.0	92.030	-0.040	0.260	0.410
2020/01/31 06:50:29.1	92.040	-0.070	0.310	0.410
2020/01/31 06:50:29.2	92.050	-0.090	0.340	0.410
2020/01/31 06:50:29.3	92.060	-0.120	0.380	0.410
2020/01/31 06:50:29.4	92.080	-0.150	0.410	0.410
2020/01/31 06:50:29.5	92.100	-0.170	0.430	0.400
2020/01/31 06:50:29.6	92.120	-0.190	0.450	0.400
2020/01/31 06:50:29.7	92.140	-0.220	0.470	0.390
2020/01/31 06:50:29.8	92.170	-0.240	0.480	0.380
2020/01/31 06:50:29.9	92.190	-0.250	0.490	0.380
2020/01/31 06:50:30.0	92.220	-0.270	0.500	0.370
2020/01/31 06:50:30.1	92.250	-0.290	0.490	0.370
2020/01/31 06:50:30.2	92.280	-0.300	0.490	0.370
2020/01/31 06:50:30.3	92.310	-0.310	0.490	0.360
2020/01/31 06:50:30.4	92.340	-0.320	0.470	0.360
2020/01/31 06:50:30.5	92.360	-0.320	0.460	0.370
2020/01/31 06:50:30.6	92.390	-0.330	0.440	0.370
2020/01/31 06:50:30.7	92.420	-0.330	0.420	0.380
2020/01/31 06:50:30.8	92.440	-0.320	0.390	0.380
2020/01/31 06:50:30.9	92.460	-0.320	0.370	0.400
2020/01/31 06:50:31.0	92.480	-0.310	0.340	0.410
2020/01/31 06:50:31.1	92.500	-0.310	0.300	0.430
2020/01/31 06:50:31.2	92.520	-0.300	0.270	0.450
2020/01/31 06:50:31.3	92.530	-0.280	0.230	0.470
2020/01/31 06:50:31.4	92.540	-0.270	0.190	0.490
2020/01/31 06:50:31.5	92.540	-0.250	0.160	0.520
2020/01/31 06:50:31.6	92.550	-0.240	0.120	0.550
2020/01/31 06:50:31.7	92.550	-0.220	0.080	0.590
2020/01/31 06:50:31.8	92.540	-0.200	0.040	0.620
2020/01/31 06:50:31.9	92.540	-0.180	-0.000	0.660
2020/01/31 06:50:32.0	92.530	-0.160	-0.040	0.690
2020/01/31 06:50:32.1	92.520	-0.140	-0.080	0.730
2020/01/31 06:50:32.2	92.500	-0.120	-0.120	0.770
2020/01/31 06:50:32.3	92.490	-0.100	-0.150	0.810
2020/01/31 06:50:32.4	92.470	-0.080	-0.190	0.850
2020/01/31 06:50:32.5	92.450	-0.060	-0.230	0.890
2020/01/31 06:50:32.6	92.430	-0.040	-0.260	0.930
2020/01/31 06:50:32.7	92.410	-0.030	-0.290	0.970
2020/01/31 06:50:32.8	92.400	-0.010	-0.320	1.000
2020/01/31 06:50:32.9	92.380	0.010	-0.360	1.040
2020/01/31 06:50:33.0	92.360	0.030	-0.380	1.070
2020/01/31 06:50:33.1	92.340	0.040	-0.410	1.090
2020/01/31 06:50:33.2	92.320	0.060	-0.440	1.120
2020/01/31 06:50:33.3	92.300	0.070	-0.460	1.140
2020/01/31 06:50:33.4	92.290	0.080	-0.490	1.160
2020/01/31 06:50:33.5	92.270	0.100	-0.510	1.170
2020/01/31 06:50:33.6	92.260	0.110	-0.530	1.190
2020/01/31 06:50:33.7	92.250	0.120	-0.540	1.190
2020/01/31 06:50:33.8	92.240	0.130	-0.560	1.200
2020/01/31 06:50:33.9	92.230	0.140	-0.580	1.200
2020/01/31 06:50:34.0	92.220	0.150	-0.590	1.200
2020/01/31 06:50:34.1	92.220	0.160	-0.600	1.200
2020/01/31 06:50:34.2	92.210	0.170	-0.610	1.190
2020/01/31 06:50:34.3	92.200	0.180	-0.620	1.180
2020/01/31 06:50:34.4	92.200	0.190	-0.620	1.160
2020/01/31 06:50:34.5	92.200	0.200	-0.630	1.150
2020/01/31 06:50:34.6	92.200	0.210	-0.630	1.130
2020/01/31 06:50:34.7	92.210	0.220	-0.640	1.110
2020/01/31 06:50:34.8	92.210	0.230	-0.640	1.090
2020/01/31 06:50:34.9	92.220	0.240	-0.640	1.060
2020/01/31 06:50:35.0	92.220	0.250	-0.630	1.030
2020/01/31 06:50:35.1	92.230	0.260	-0.630	1.000
2020/01/31 06:50:35.2	92.240	0.270	-0.630	0.970
2020/01/31 06:50:35.3	92.250	0.290	-0.620	0.940
2020/01/31 06:50:35.4	92.260	0.300	-0.610	0.910
2020/01/31 06:50:35.5	92.280	0.310	-0.600	0.870
2020/01/31 06:50:35.6	92.290	0.320	-0.590	0.840
2020/01/31 06:50:35.7	92.300	0.330	-0.580	0.800
2020/01/31 06:50:35.8	92.320	0.340	-0.560	0.760
2020/01/31 06:50:35.9	92.330	0.350	-0.550	0.730
2020/01/31 06:50:36.0	92.340	0.360	-0.530	0.700
2020/01/31 06:50:36.1	92.360	0.370	-0.510	0.660
2020/01/31 06:50:36.2	92.360	0.370	-0.490	0.630
2020/01/31 06:50:36.3	92.370	0.380	-0.460	0.600
2020/01/31 06:50:36.4	92.380	0.380	-0.440	0.570
2020/01/31 06:50:36.5	92.390	0.390	-0.410	0.550
2020/01/31 06:50:36.6	92.400	0.390	-0.380	0.530
2020/01/31 06:50:36.7	92.400	0.390	-0.360	0.510
2020/01/31 06:50:36.8	92.410	0.380	-0.320	0.490
2020/01/31 06:50:36.9	92.410	0.380	-0.290	0.480
2020/01/31 06:50:37.0	92.410	0.370	-0.260	0.470
2020/01/31 06:50:37.1	92.400	0.360	-0.220	0.460
2020/01/31 06:50:37.2	92.400	0.350	-0.190	0.450
2020/01/31 06:50:37.3	92.390	0.340	-0.150	0.450
2020/01/31 06:50:37.4	92.390	0.320	-0.120	0.450
2020/01/31 06:50:37.5	92.380	0.300	-0.080	0.450
2020/01/31 06:50:37.6	92.370	0.280	-0.040	0.460
2020/01/31 06:50:37.7	92.360	0.260	-0.000	0.460
2020/01/31 06:50:37.8	92.350	0.230	0.030	0.470
2020/01/31 06:50:37.9	92.340	0.210	0.070	0.480
2020/01/31 06:50:38.0	92.330	0.180	0.100	0.490
2020/01/31 06:50:38.1	92.320	0.150	0.140	0.500
2020/01/31 06:50:38.2	92.290	0.120	0.170	0.520
2020/01/31 06:50:38.3	92.280	0.090	0.200	0.530
2020/01/31 06:50:38.4	92.270	0.060	0.230	0.550
2020/01/31 06:50:38.5	92.260	0.030	0.250	0.560
2020/01/31 06:50:38.6	92.250	-0.010	0.270	0.580
2020/01/31 06:50:38.7	92.240	-0.040	0.290	0.590
2020/01/31 06:50:38.8	92.230	-0.070	0.310	0.610
2020/01/31 06:50:38.9	92.230	-0.100	0.320	0.620
2020/01/31 06:50:39.0	92.220	-0.130	0.330	0.640
2020/01/31 06:50:39.1	92.210	-0.160	0.340	0.650
2020/01/31 06:50:39.2	92.210	-0.190	0.350	0.660
2020/01/31 06:50:39.3	92.210	-0.220	0.350	0.670
2020/01/31 06:50:39.4	92.210	-0.250	0.350	0.670
2020/01/31 06:50:39.5	92.210	-0.270	0.350	0.680
2020/01/31 06:50:39.6	92.210	-0.290	0.340	0.680
2020/01/31 06:50:39.7	92.220	-0.310	0.330	0.680
2020/01/31 06:50:39.8	92.220	-0.330	0.320	0.680
2020/01/31 06:50:39.9	92.230	-0.350	0.310	0.680
2020/01/31 06:50:40.0	92.240	-0.360	0.290	0.680
2020/01/31 06:50:40.1	92.250	-0.370	0.280	0.670
2020/01/31 06:50:40.2	92.260	-0.380	0.260	0.660
2020/01/31 06:50:40.3	92.270	-0.390	0.240	0.650
2020/01/31 06:50:40.4	92.290	-0.400	0.220	0.640
2020/01/31 06:50:40.5	92.300	-0.400	0.190	0.630
2020/01/31 06:50:40.6	92.320	-0.400	0.170	0.620
2020/01/31 06:50:40.7	92.330	-0.400	0.150	0.610
2020/01/31 06:50:40.8	92.350	-0.400	0.120	0.600
2020/01/31 06:50:40.9	92.370	-0.390	0.100	0.590
2020/01/31 06:50:41.0	92.390	-0.390	0.070	0.580
2020/01/31 06:50:41.1	92.400	-0.380	0.040	0.580
2020/01/31 06:50:41.2	92.420	-0.370	0.020	0.570
2020/01/31 06:50:41.3	92.440	-0.360	-0.010	0.560
2020/01/31 06:50:41.4	92.460	-0.350	-0.030	0.560
2020/01/31 06:50:41.5	92.470	-0.340	-0.060	0.550
2020/01/31 06:50:41.6	92.490	-0.330	-0.080	0.550
2020/01/31 06:50:41.7	92.510	-0.320	-0.110	0.550
2020/01/31 06:50:41.8	92.520	-0.300	-0.130	0.550
2020/01/31 06:50:41.9	92.540	-0.290	-0.160	0.550
2020/01/31 06:50:42.0	92.550	-0.280	-0.180	0.550
2020/01/31 06:50:42.1	92.560	-0.270	-0.200	0.550
2020/01/31 06:50:42.2	92.580	-0.250	-0.220	0.550
2020/01/31 06:50:42.3	92.590	-0.240	-0.230	0.550
2020/01/31 06:50:42.4	92.600	-0.230	-0.250	0.560
2020/01/31 06:50:42.5	92.610	-0.220	-0.260	0.560
2020/01/31 06:50:42.6	92.620	-0.210	-0.270	0.570
2020/01/31 06:50:42.7	92.620	-0.200	-0.280	0.570
2020/01/31 06:50:42.8	92.630	-0.200	-0.290	0.580
2020/01/31 06:50:42.9	92.640	-0.190	-0.300	0.580
2020/01/31 06:50:43.0	92.640	-0.180	-0.300	0.590
2020/01/31 06:50:43.1	92.640	-0.180	-0.300	0.590
2020/01/31 06:50:43.2	92.650	-0.180	-0.300	0.600
2020/01/31 06:50:43.3	92.650	-0.170	-0.300	0.600
2020/01/31 06:50:43.4	92.650	-0.170	-0.300	0.610
2020/01/31 06:50:43.5	92.640	-0.170	-0.300	0.610
2020/01/31 06:50:43.6	92.640	-0.170	-0.290	0.620
2020/01/31 06:50:43.7	92.630	-0.170	-0.290	0.630
2020/01/31 06:50:43.8	92.620	-0.170	-0.280	0.640
2020/01/31 06:50:43.9	92.610	-0.180	-0.280	0.640
2020/01/31 06:50:44.0	92.590	-0.180	-0.270	0.650
2020/01/31 06:50:44.1	92.570	-0.180	-0.270	0.660
2020/01/31 06:50:44.2	92.560	-0.180	-0.260	0.670
2020/01/31 06:50:44.3	92.540	-0.180	-0.260	0.680
2020/01/31 06:50:44.4	92.510	-0.180	-0.250	0.700
2020/01/31 06:50:44.5	92.490	-0.180	-0.250	0.710
2020/01/31 06:50:44.6	92.460	-0.180	-0.240	0.730
2020/01/31 06:50:44.7	92.430	-0.180	-0.240	0.740
2020/01/31 06:50:44.8	92.410	-0.180	-0.240	0.760
2020/01/31 06:50:44.9	92.370	-0.180	-0.240	0.780
2020/01/31 06:50:45.0	92.340	-0.170	-0.240	0.800
2020/01/31 06:50:45.1	92.310	-0.160	-0.250	0.820
2020/01/31 06:50:45.2	92.280	-0.160	-0.250	0.830
2020/01/31 06:50:45.3	92.250	-0.150	-0.260	0.850
2020/01/31 06:50:45.4	92.220	-0.140	-0.270	0.870
2020/01/31 06:50:45.5	92.190	-0.120	-0.280	0.880
2020/01/31 06:50:45.6	92.170	-0.110	-0.290	0.900
2020/01/31 06:50:45.7	92.140	-0.090	-0.300	0.910
2020/01/31 06:50:45.8	92.120	-0.080	-0.310	0.920
2020/01/31 06:50:45.9	92.100	-0.060	-0.330	0.930
2020/01/31 06:50:46.0	92.080	-0.040	-0.340	0.940
2020/01/31 06:50:46.1	92.070	-0.020	-0.360	0.950
2020/01/31 06:50:46.2	92.050	0.010	-0.380	0.960
2020/01/31 06:50:46.3	92.040	0.030	-0.400	0.960
2020/01/31 06:50:46.4	92.040	0.050	-0.420	0.960
2020/01/31 06:50:46.5	92.030	0.080	-0.440	0.960
2020/01/31 06:50:46.6	92.030	0.100	-0.460	0.960
2020/01/31 06:50:46.7	92.030	0.130	-0.480	0.950
2020/01/31 06:50:46.8	92.040	0.150	-0.500	0.940
2020/01/31 06:50:46.9	92.050	0.180	-0.520	0.940
2020/01/31 06:50:47.0	92.060	0.200	-0.540	0.920
2020/01/31 06:50:47.1	92.070	0.230	-0.550	0.910
2020/01/31 06:50:47.2	92.070	0.250	-0.570	0.900
2020/01/31 06:50:47.3	92.090	0.270	-0.580	0.880
2020/01/31 06:50:47.4	92.110	0.290	-0.590	0.860
2020/01/31 06:50:47.5	92.130	0.310	-0.590	0.840
2020/01/31 06:50:47.6	92.150	0.330	-0.600	0.820
2020/01/31 06:50:47.7	92.180	0.350	-0.600	0.800
2020/01/31 06:50:47.8	92.200	0.360	-0.590	0.770
2020/01/31 06:50:47.9	92.220	0.370	-0.580	0.750
2020/01/31 06:50:48.0	92.250	0.380	-0.570	0.720
2020/01/31 06:50:48.1	92.280	0.390	-0.560	0.690
2020/01/31 06:50:48.2	92.300	0.390	-0.540	0.670
2020/01/31 06:50:48.3	92.320	0.390	-0.520	0.640
2020/01/31 06:50:48.4	92.340	0.390	-0.490	0.610
2020/01/31 06:50:48.5	92.370	0.390	-0.460	0.580
2020/01/31 06:50:48.6	92.390	0.380	-0.430	0.550
2020/01/31 06:50:48.7	92.410	0.370	-0.400	0.520
2020/01/31 06:50:48.8	92.430	0.360	-0.360	0.500
2020/01/31 06:50:48.9	92.450	0.350	-0.320	0.470
2020/01/31 06:50:49.0	92.460	0.330	-0.270	0.450
2020/01/31 06:50:49.1	92.480	0.320	-0.230	0.420
2020/01/31 06:50:49.2	92.490	0.300	-0.180	0.400
2020/01/31 06:50:49.3	92.500	0.280	-0.130	0.370
2020/01/31 06:50:49.4	92.510	0.260	-0.080	0.350
2020/01/31 06:50:49.5	92.510	0.230	-0.030	0.330
2020/01/31 06:50:49.6	92.520	0.210	0.020	0.320
2020/01/31 06:50:49.7	92.520	0.190	0.070	0.300
2020/01/31 06:50:49.8	92.520	0.160	0.120	0.290
2020/01/31 06:50:49.9	92.520	0.140	0.170	0.280
2020/01/31 06:50:50.0	92.510	0.110	0.210	0.270
2020/01/31 06:50:50.1	92.510	0.090	0.260	0.270
2020/01/31 06:50:50.2	92.500	0.060	0.300	0.270
2020/01/31 06:50:50.3	92.490	0.040	0.340	0.270
2020/01/31 06:50:50.4	92.490	0.020	0.370	0.270
2020/01/31 06:50:50.5	92.480	-0.000	0.410	0.270
2020/01/31 06:50:50.6	92.460	-0.020	0.440	0.270
2020/01/31 06:50:50.7	92.450	-0.040	0.460	0.280
2020/01/31 06:50:50.8	92.440	-0.060	0.490	0.290
2020/01/31 06:50:50.9	92.420	-0.070	0.500	0.300
2020/01/31 06:50:51.0	92.410	-0.090	0.520	0.310
2020/01/31 06:50:51.1	92.390	-0.100	0.530	0.330
2020/01/31 06:50:51.2	92.370	-0.110	0.540	0.340
2020/01/31 06:50:51.3	92.350	-0.120	0.540	0.360
2020/01/31 06:50:51.4	92.340	-0.130	0.530	0.370
2020/01/31 06:50:51.5	92.320	-0.140	0.530	0.390
2020/01/31 06:50:51.6	92.300	-0.140	0.520	0.410
2020/01/31 06:50:51.7	92.280	-0.150	0.500	0.430
2020/01/31 06:50:51.8	92.260	-0.150	0.480	0.450
2020/01/31 06:50:51.9	92.240	-0.160	0.460	0.480
2020/01/31 06:50:52.0	92.220	-0.160	0.440	0.500
2020/01/31 06:50:52.1	92.210	-0.160	0.410	0.520
2020/01/31 06:50:52.2	92.190	-0.160	0.380	0.540
2020/01/31 06:50:52.3	92.180	-0.160	0.340	0.570
2020/01/31 06:50:52.4	92.160	-0.160	0.310	0.590
2020/01/31 06:50:52.5	92.150	-0.160	0.270	0.610
2020/01/31 06:50:52.6	92.130	-0.150	0.220	0.630
2020/01/31 06:50:52.7	92.120	-0.150	0.180	0.660
2020/01/31 06:50:52.8	92.110	-0.150	0.130	0.680
2020/01/31 06:50:52.9	92.100	-0.150	0.090	0.700
2020/01/31 06:50:53.0	92.090	-0.140	0.040	0.720
2020/01/31 06:50:53.1	92.080	-0.140	-0.010	0.740
2020/01/31 06:50:53.2	92.080	-0.130	-0.060	0.770
2020/01/31 06:50:53.3	92.080	-0.130	-0.100	0.790
2020/01/31 06:50:53.4	92.070	-0.120	-0.150	0.800
2020/01/31 06:50:53.5	92.070	-0.110	-0.200	0.820
2020/01/31 06:50:53.6	92.060	-0.110	-0.240	0.840
2020/01/31 06:50:53.7	92.060	-0.100	-0.290	0.850
2020/01/31 06:50:53.8	92.060	-0.090	-0.330	0.860
2020/01/31 06:50:53.9	92.060	-0.090	-0.370	0.870
2020/01/31 06:50:54.0	92.060	-0.080	-0.420	0.880
2020/01/31 06:50:54.1	92.070	-0.070	-0.460	0.890
2020/01/31 06:50:54.2	92.060	-0.060	-0.490	0.890
2020/01/31 06:50:54.3	92.070	-0.050	-0.530	0.900
2020/01/31 06:50:54.4	92.070	-0.040	-0.560	0.900
2020/01/31 06:50:54.5	92.080	-0.020	-0.590	0.900
2020/01/31 06:50:54.6	92.090	-0.010	-0.620	0.900
2020/01/31 06:50:54.7	92.100	0.000	-0.650	0.890
2020/01/31 06:50:54.8	92.110	0.010	-0.670	0.890
2020/01/31 06:50:54.9	92.120	0.030	-0.690	0.880
2020/01/31 06:50:55.0	92.140	0.040	-0.710	0.870
2020/01/31 06:50:55.1	92.150	0.060	-0.720	0.860
2020/01/31 06:50:55.2	92.160	0.070	-0.730	0.860
2020/01/31 06:50:55.3	92.180	0.080	-0.740	0.850
2020/01/31 06:50:55.4	92.200	0.100	-0.750	0.840
2020/01/31 06:50:55.5	92.210	0.110	-0.750	0.830
2020/01/31 06:50:55.6	92.230	0.130	-0.750	0.810
2020/01/31 06:50:55.7	92.240	0.140	-0.750	0.800
2020/01/31 06:50:55.8	92.260	0.150	-0.740	0.790
2020/01/31 06:50:55.9	92.280	0.160	-0.730	0.790
2020/01/31 06:50:56.0	92.290	0.180	-0.720	0.780
2020/01/31 06:50:56.1	92.310	0.190	-0.700	0.770
2020/01/31 06:50:56.2	92.320	0.200	-0.680	0.760
2020/01/31 06:50:56.3	92.330	0.200	-0.660	0.760
2020/01/31 06:50:56.4	92.340	0.210	-0.640	0.760
2020/01/31 06:50:56.5	92.360	0.220	-0.610	0.750
2020/01/31 06:50:56.6	92.370	0.220	-0.580	0.750
2020/01/31 06:50:56.7	92.380	0.220	-0.550	0.750
2020/01/31 06:50:56.8	92.390	0.230	-0.520	0.750
2020/01/31 06:50:56.9	92.390	0.230	-0.480	0.760
2020/01/31 06:50:57.0	92.400	0.220	-0.450	0.760
2020/01/31 06:50:57.1	92.410	0.220	-0.410	0.760
2020/01/31 06:50:57.2	92.420	0.220	-0.370	0.770
2020/01/31 06:50:57.3	92.420	0.210	-0.330	0.780
2020/01/31 06:50:57.4	92.420	0.200	-0.290	0.790
2020/01/31 06:50:57.5	92.430	0.190	-0.250	0.790
2020/01/31 06:50:57.6	92.430	0.180	-0.200	0.800
2020/01/31 06:50:57.7	92.430	0.170	-0.160	0.810
2020/01/31 06:50:57.8	92.430	0.150	-0.120	0.820
2020/01/31 06:50:57.9	92.430	0.140	-0.080	0.830
2020/01/31 06:50:58.0	92.420	0.120	-0.040	0.830
2020/01/31 06:50:58.1	92.420	0.110	0.000	0.840
2020/01/31 06:50:58.2	92.400	0.090	0.040	0.850
2020/01/31 06:50:58.3	92.400	0.070	0.080	0.860
2020/01/31 06:50:58.4	92.390	0.050	0.110	0.860
2020/01/31 06:50:58.5	92.390	0.030	0.150	0.870
2020/01/31 06:50:58.6	92.380	0.010	0.180	0.870
2020/01/31 06:50:58.7	92.370	-0.010	0.210	0.880
2020/01/31 06:50:58.8	92.360	-0.030	0.230	0.880
2020/01/31 06:50:58.9	92.350	-0.050	0.260	0.880
2020/01/31 06:50:59.0	92.340	-0.070	0.270	0.880
2020/01/31 06:50:59.1	92.340	-0.080	0.290	0.880
2020/01/31 06:50:59.2	92.330	-0.100	0.300	0.880
2020/01/31 06:50:59.3	92.330	-0.120	0.310	0.880
2020/01/31 06:50:59.4	92.320	-0.140	0.320	0.870
2020/01/31 06:50:59.5	92.320	-0.150	0.320	0.870
2020/01/31 06:50:59.6	92.310	-0.170	0.320	0.860
2020/01/31 06:50:59.7	92.310	-0.180	0.320	0.850
2020/01/31 06:50:59.8	92.310	-0.190	0.310	0.840
2020/01/31 06:50:59.9	92.310	-0.210	0.300	0.830
2020/01/31 06:51:00.0	92.310	-0.220	0.290	0.830
2020/01/31 06:51:00.1	92.310	-0.230	0.280	0.820
2020/01/31 06:51:00.2	92.300	-0.230	0.260	0.810
2020/01/31 06:51:00.3	92.300	-0.240	0.240	0.800
2020/01/31 06:51:00.4	92.310	-0.250	0.230	0.790
2020/01/31 06:51:00.5	92.310	-0.250	0.210	0.780
2020/01/31 06:51:00.6	92.310	-0.260	0.190	0.770
2020/01/31 06:51:00.7	92.320	-0.260	0.160	0.770
2020/01/31 06:51:00.8	92.320	-0.260	0.140	0.760
2020/01/31 06:51:00.9	92.330	-0.270	0.120	0.760
2020/01/31 06:51:01.0	92.330	-0.270	0.100	0.760
2020/01/31 06:51:01.1	92.330	-0.270	0.080	0.760
2020/01/31 06:51:01.2	92.340	-0.270	0.060	0.760
2020/01/31 06:51:01.3	92.340	-0.270	0.040	0.760
2020/01/31 06:51:01.4	92.350	-0.270	0.020	0.760
2020/01/31 06:51:01.5	92.350	-0.270	0.010	0.760
2020/01/31 06:51:01.6	92.360	-0.260	-0.010	0.770
2020/01/31 06:51:01.7	92.370	-0.260	-0.030	0.770
2020/01/31 06:51:01.8	92.370	-0.260	-0.040	0.780
2020/01/31 06:51:01.9	92.380	-0.260	-0.050	0.780
2020/01/31 06:51:02.0	92.380	-0.260	-0.060	0.780
2020/01/31 06:51:02.1	92.390	-0.260	-0.070	0.790
2020/01/31 06:51:02.2	92.400	-0.260	-0.090	0.790
2020/01/31 06:51:02.3	92.400	-0.250	-0.090	0.800
2020/01/31 06:51:02.4	92.410	-0.250	-0.100	0.800
2020/01/31 06:51:02.5	92.420	-0.250	-0.110	0.800
2020/01/31 06:51:02.6	92.420	-0.250	-0.110	0.800
2020/01/31 06:51:02.7	92.430	-0.250	-0.120	0.800
2020/01/31 06:51:02.8	92.440	-0.250	-0.120	0.800
2020/01/31 06:51:02.9	92.440	-0.250	-0.130	0.810
2020/01/31 06:51:03.0	92.450	-0.260	-0.130	0.810
2020/01/31 06:51:03.1	92.460	-0.260	-0.140	0.800
2020/01/31 06:51:03.2	92.460	-0.260	-0.140	0.810
2020/01/31 06:51:03.3	92.470	-0.250	-0.150	0.800
2020/01/31 06:51:03.4	92.470	-0.250	-0.160	0.800
2020/01/31 06:51:03.5	92.470	-0.250	-0.170	0.800
2020/01/31 06:51:03.6	92.480	-0.250	-0.180	0.800
2020/01/31 06:51:03.7	92.480	-0.250	-0.190	0.790
2020/01/31 06:51:03.8	92.480	-0.240	-0.210	0.790
2020/01/31 06:51:03.9	92.480	-0.230	-0.230	0.790
2020/01/31 06:51:04.0	92.480	-0.230	-0.250	0.780
2020/01/31 06:51:04.1	92.480	-0.220	-0.270	0.780
2020/01/31 06:51:04.2	92.470	-0.200	-0.290	0.770
2020/01/31 06:51:04.3	92.470	-0.190	-0.320	0.770
2020/01/31 06:51:04.4	92.460	-0.170	-0.350	0.760
2020/01/31 06:51:04.5	92.450	-0.150	-0.380	0.760
2020/01/31 06:51:04.6	92.450	-0.130	-0.420	0.750
2020/01/31 06:51:04.7	92.440	-0.110	-0.460	0.750
2020/01/31 06:51:04.8	92.430	-0.090	-0.490	0.740
2020/01/31 06:51:04.9	92.420	-0.060	-0.530	0.730
2020/01/31 06:51:05.0	92.410	-0.030	-0.570	0.720
2020/01/31 06:51:05.1	92.400	0.000	-0.610	0.710
2020/01/31 06:51:05.2	92.400	0.040	-0.650	0.700
2020/01/31 06:51:05.3	92.390	0.070	-0.690	0.690
2020/01/31 06:51:05.4	92.380	0.110	-0.730	0.680
2020/01/31 06:51:05.5	92.370	0.150	-0.760	0.670
2020/01/31 06:51:05.6	92.370	0.190	-0.790	0.650
2020/01/31 06:51:05.7	92.360	0.230	-0.820	0.640
2020/01/31 06:51:05.8	92.350	0.260	-0.850	0.630
2020/01/31 06:51:05.9	92.350	0.300	-0.870	0.620
2020/01/31 06:51:06.0	92.340	0.340	-0.880	0.610
2020/01/31 06:51:06.1	92.330	0.380	-0.890	0.600
2020/01/31 06:51:06.2	92.330	0.420	-0.890	0.590
2020/01/31 06:51:06.3	92.320	0.450	-0.890	0.590
2020/01/31 06:51:06.4	92.310	0.490	-0.880	0.580
2020/01/31 06:51:06.5	92.310	0.520	-0.870	0.570
2020/01/31 06:51:06.6	92.300	0.540	-0.850	0.570
2020/01/31 06:51:06.7	92.290	0.570	-0.820	0.560
2020/01/31 06:51:06.8	92.280	0.590	-0.780	0.560
2020/01/31 06:51:06.9	92.270	0.610	-0.740	0.550
2020/01/31 06:51:07.0	92.260	0.620	-0.690	0.550
2020/01/31 06:51:07.1	92.250	0.630	-0.640	0.550
2020/01/31 06:51:07.2	92.250	0.640	-0.580	0.550
2020/01/31 06:51:07.3	92.240	0.640	-0.520	0.550
2020/01/31 06:51:07.4	92.230	0.640	-0.450	0.540
2020/01/31 06:51:07.5	92.210	0.630	-0.380	0.540
2020/01/31 06:51:07.6	92.200	0.620	-0.300	0.540
2020/01/31 06:51:07.7	92.190	0.610	-0.230	0.540
2020/01/31 06:51:07.8	92.180	0.590	-0.150	0.540
2020/01/31 06:51:07.9	92.160	0.570	-0.070	0.530
2020/01/31 06:51:08.0	92.150	0.540	0.010	0.530
2020/01/31 06:51:08.1	92.140	0.520	0.090	0.520
2020/01/31 06:51:08.2	92.130	0.480	0.160	0.520
2020/01/31 06:51:08.3	92.120	0.450	0.240	0.510
2020/01/31 06:51:08.4	92.110	0.410	0.310	0.500
2020/01/31 06:51:08.5	92.110	0.370	0.380	0.490
2020/01/31 06:51:08.6	92.100	0.330	0.440	0.480
2020/01/31 06:51:08.7	92.100	0.290	0.500	0.460
2020/01/31 06:51:08.8	92.090	0.250	0.550	0.440
2020/01/31 06:51:08.9	92.090	0.210	0.600	0.430
2020/01/31 06:51:09.0	92.100	0.160	0.640	0.400
2020/01/31 06:51:09.1	92.100	0.120	0.680	0.380
2020/01/31 06:51:09.2	92.100	0.080	0.700	0.360
2020/01/31 06:51:09.3	92.110	0.040	0.730	0.330
2020/01/31 06:51:09.4	92.120	0.000	0.740	0.300
2020/01/31 06:51:09.5	92.140	-0.040	0.740	0.270
2020/01/31 06:51:09.6	92.150	-0.070	0.740	0.240
2020/01/31 06:51:09.7	92.170	-0.100	0.730	0.200
2020/01/31 06:51:09.8	92.190	-0.130	0.710	0.170
2020/01/31 06:51:09.9	92.210	-0.160	0.690	0.130
2020/01/31 06:51:10.0	92.240	-0.180	0.660	0.100
2020/01/31 06:51:10.1	92.270	-0.200	0.620	0.060
2020/01/31 06:51:10.2	92.290	-0.220	0.580	0.020
2020/01/31 06:51:10.3	92.320	-0.230	0.530	-0.020
2020/01/31 06:51:10.4	92.350	-0.240	0.470	-0.050
2020/01/31 06:51:10.5	92.380	-0.250	0.410	-0.080
2020/01/31 06:51:10.6	92.410	-0.250	0.350	-0.120
2020/01/31 06:51:10.7	92.440	-0.250	0.290	-0.140
2020/01/31 06:51:10.8	92.470	-0.250	0.220	-0.170
2020/01/31 06:51:10.9	92.500	-0.250	0.150	-0.190
2020/01/31 06:51:11.0	92.530	-0.240	0.080	-0.200
2020/01/31 06:51:11.1	92.560	-0.230	0.010	-0.210
2020/01/31 06:51:11.2	92.580	-0.220	-0.060	-0.220
2020/01/31 06:51:11.3	92.610	-0.210	-0.120	-0.220
2020/01/31 06:51:11.4	92.630	-0.200	-0.180	-0.210
2020/01/31 06:51:11.5	92.650	-0.180	-0.240	-0.200
2020/01/31 06:51:11.6	92.670	-0.170	-0.300	-0.180
2020/01/31 06:51:11.7	92.690	-0.160	-0.350	-0.160
2020/01/31 06:51:11.8	92.700	-0.150	-0.390	-0.130
2020/01/31 06:51:11.9	92.710	-0.140	-0.430	-0.090
2020/01/31 06:51:12.0	92.720	-0.130	-0.470	-0.050
2020/01/31 06:51:12.1	92.730	-0.120	-0.500	-0.000
2020/01/31 06:51:12.2	92.740	-0.110	-0.530	0.050
2020/01/31 06:51:12.3	92.740	-0.110	-0.540	0.110
2020/01/31 06:51:12.4	92.740	-0.100	-0.560	0.170
2020/01/31 06:51:12.5	92.740	-0.100	-0.570	0.230
2020/01/31 06:51:12.6	92.740	-0.110	-0.570	0.300
2020/01/31 06:51:12.7	92.730	-0.110	-0.570	0.380
2020/01/31 06:51:12.8	92.730	-0.120	-0.560	0.450
2020/01/31 06:51:12.9	92.720	-0.120	-0.550	0.530
2020/01/31 06:51:13.0	92.710	-0.140	-0.540	0.610
2020/01/31 06:51:13.1	92.700	-0.150	-0.520	0.690
2020/01/31 06:51:13.2	92.690	-0.160	-0.490	0.780
2020/01/31 06:51:13.3	92.670	-0.180	-0.470	0.870
2020/01/31 06:51:13.4	92.660	-0.200	-0.450	0.950
2020/01/31 06:51:13.5	92.640	-0.220	-0.420	1.040
2020/01/31 06:51:13.6	92.630	-0.240	-0.390	1.120
2020/01/31 06:51:13.7	92.610	-0.260	-0.360	1.210
2020/01/31 06:51:13.8	92.590	-0.280	-0.330	1.290
2020/01/31 06:51:13.9	92.570	-0.300	-0.310	1.370
2020/01/31 06:51:14.0	92.550	-0.320	-0.280	1.450
2020/01/31 06:51:14.1	92.530	-0.340	-0.250	1.530
2020/01/31 06:51:14.2	92.500	-0.360	-0.230	1.600
2020/01/31 06:51:14.3	92.480	-0.370	-0.210	1.670
2020/01/31 06:51:14.4	92.460	-0.390	-0.190	1.740
2020/01/31 06:51:14.5	92.430	-0.400	-0.170	1.800
2020/01/31 06:51:14.6	92.410	-0.410	-0.160	1.850
2020/01/31 06:51:14.7	92.390	-0.420	-0.150	1.900
2020/01/31 06:51:14.8	92.370	-0.420	-0.140	1.950
2020/01/31 06:51:14.9	92.350	-0.420	-0.130	1.980
2020/01/31 06:51:15.0	92.340	-0.420	-0.130	2.020
2020/01/31 06:51:15.1	92.320	-0.420	-0.130	2.040
2020/01/31 06:51:15.2	92.300	-0.410	-0.130	2.060
2020/01/31 06:51:15.3	92.280	-0.400	-0.140	2.070
2020/01/31 06:51:15.4	92.270	-0.380	-0.150	2.070
2020/01/31 06:51:15.5	92.260	-0.360	-0.150	2.070
2020/01/31 06:51:15.6	92.250	-0.340	-0.170	2.070
2020/01/31 06:51:15.7	92.240	-0.320	-0.180	2.060
2020/01/31 06:51:15.8	92.240	-0.290	-0.190	2.040
2020/01/31 06:51:15.9	92.230	-0.260	-0.200	2.020
2020/01/31 06:51:16.0	92.230	-0.220	-0.210	2.000
2020/01/31 06:51:16.1	92.220	-0.190	-0.230	1.970
2020/01/31 06:51:16.2	92.220	-0.150	-0.230	1.940
2020/01/31 06:51:16.3	92.220	-0.120	-0.240	1.910
2020/01/31 06:51:16.4	92.220	-0.080	-0.250	1.870
2020/01/31 06:51:16.5	92.220	-0.040	-0.260	1.830
2020/01/31 06:51:16.6	92.220	0.000	-0.260	1.790
2020/01/31 06:51:16.7	92.230	0.040	-0.260	1.740
2020/01/31 06:51:16.8	92.230	0.080	-0.260	1.690
2020/01/31 06:51:16.9	92.230	0.120	-0.260	1.640
2020/01/31 06:51:17.0	92.240	0.150	-0.250	1.590
2020/01/31 06:51:17.1	92.240	0.190	-0.240	1.540
2020/01/31 06:51:17.2	92.250	0.220	-0.230	1.480
2020/01/31 06:51:17.3	92.250	0.250	-0.220	1.420
2020/01/31 06:51:17.4	92.260	0.280	-0.200	1.360
2020/01/31 06:51:17.5	92.270	0.310	-0.190	1.300
2020/01/31 06:51:17.6	92.280	0.330	-0.170	1.230
2020/01/31 06:51:17.7	92.290	0.350	-0.150	1.170
2020/01/31 06:51:17.8	92.300	0.360	-0.120	1.100
2020/01/31 06:51:17.9	92.310	0.380	-0.100	1.030
2020/01/31 06:51:18.0	92.320	0.390	-0.080	0.950
2020/01/31 06:51:18.1	92.330	0.400	-0.060	0.880
2020/01/31 06:51:18.2	92.340	0.400	-0.040	0.800
2020/01/31 06:51:18.3	92.360	0.400	-0.020	0.720
2020/01/31 06:51:18.4	92.370	0.400	-0.000	0.640
2020/01/31 06:51:18.5	92.380	0.400	0.010	0.560
2020/01/31 06:51:18.6	92.400	0.390	0.030	0.480
2020/01/31 06:51:18.7	92.410	0.380	0.040	0.400
2020/01/31 06:51:18.8	92.420	0.370	0.050	0.320
2020/01/31 06:51:18.9	92.430	0.360	0.050	0.240
2020/01/31 06:51:19.0	92.450	0.350	0.050	0.150
2020/01/31 06:51:19.1	92.460	0.340	0.050	0.070
2020/01/31 06:51:19.2	92.470	0.320	0.040	-0.010
2020/01/31 06:51:19.3	92.480	0.310	0.030	-0.090
2020/01/31 06:51:19.4	92.490	0.290	0.010	-0.170
2020/01/31 06:51:19.5	92.500	0.280	-0.000	-0.240
2020/01/31 06:51:19.6	92.510	0.270	-0.030	-0.320
2020/01/31 06:51:19.7	92.520	0.250	-0.060	-0.390
2020/01/31 06:51:19.8	92.530	0.240	-0.090	-0.450
2020/01/31 06:51:19.9	92.540	0.230	-0.120	-0.510
2020/01/31 06:51:20.0	92.540	0.220	-0.160	-0.570
2020/01/31 06:51:20.1	92.550	0.210	-0.200	-0.620
2020/01/31 06:51:20.2	92.550	0.200	-0.240	-0.670
2020/01/31 06:51:20.3	92.550	0.190	-0.290	-0.710
2020/01/31 06:51:20.4	92.550	0.190	-0.330	-0.750
2020/01/31 06:51:20.5	92.550	0.180	-0.380	-0.780
2020/01/31 06:51:20.6	92.550	0.180	-0.420	-0.810
2020/01/31 06:51:20.7	92.550	0.180	-0.460	-0.830
2020/01/31 06:51:20.8	92.550	0.180	-0.500	-0.840
2020/01/31 06:51:20.9	92.550	0.170	-0.540	-0.850
2020/01/31 06:51:21.0	92.540	0.170	-0.580	-0.850
2020/01/31 06:51:21.1	92.540	0.170	-0.610	-0.850
2020/01/31 06:51:21.2	92.520	0.170	-0.640	-0.840
2020/01/31 06:51:21.3	92.510	0.170	-0.670	-0.820
2020/01/31 06:51:21.4	92.500	0.170	-0.680	-0.800
2020/01/31 06:51:21.5	92.490	0.170	-0.700	-0.770
2020/01/31 06:51:21.6	92.480	0.170	-0.710	-0.740
2020/01/31 06:51:21.7	92.470	0.160	-0.710	-0.700
2020/01/31 06:51:21.8	92.450	0.160	-0.700	-0.660
2020/01/31 06:51:21.9	92.440	0.150	-0.690	-0.610
2020/01/31 06:51:22.0	92.430	0.150	-0.680	-0.560
2020/01/31 06:51:22.1	92.410	0.140	-0.660	-0.500
2020/01/31 06:51:22.2	92.410	0.130	-0.630	-0.440
2020/01/31 06:51:22.3	92.390	0.120	-0.590	-0.380
2020/01/31 06:51:22.4	92.380	0.100	-0.560	-0.320
2020/01/31 06:51:22.5	92.370	0.090	-0.520	-0.250
2020/01/31 06:51:22.6	92.360	0.070	-0.470	-0.180
2020/01/31 06:51:22.7	92.350	0.050	-0.420	-0.120
2020/01/31 06:51:22.8	92.340	0.030	-0.370	-0.050
2020/01/31 06:51:22.9	92.340	0.010	-0.310	0.020
2020/01/31 06:51:23.0	92.330	-0.010	-0.260	0.090
2020/01/31 06:51:23.1	92.330	-0.040	-0.200	0.160
2020/01/31 06:51:23.2	92.320	-0.060	-0.140	0.230
2020/01/31 06:51:23.3	92.320	-0.080	-0.080	0.290
2020/01/31 06:51:23.4	92.320	-0.110	-0.030	0.360
2020/01/31 06:51:23.5	92.320	-0.130	0.030	0.420
2020/01/31 06:51:23.6	92.330	-0.160	0.090	0.480
2020/01/31 06:51:23.7	92.330	-0.180	0.140	0.540
2020/01/31 06:51:23.8	92.340	-0.200	0.190	0.600
2020/01/31 06:51:23.9	92.340	-0.230	0.240	0.660
2020/01/31 06:51:24.0	92.350	-0.250	0.280	0.710
2020/01/31 06:51:24.1	92.360	-0.270	0.320	0.760
2020/01/31 06:51:24.2	92.370	-0.290	0.360	0.810
2020/01/31 06:51:24.3	92.380	-0.310	0.390	0.860
2020/01/31 06:51:24.4	92.390	-0.320	0.430	0.900
2020/01/31 06:51:24.5	92.400	-0.340	0.450	0.950
2020/01/31 06:51:24.6	92.410	-0.350	0.480	0.990
2020/01/31 06:51:24.7	92.430	-0.360	0.500	1.020
2020/01/31 06:51:24.8	92.440	-0.370	0.510	1.060
2020/01/31 06:51:24.9	92.450	-0.380	0.530	1.090
2020/01/31 06:51:25.0	92.460	-0.380	0.540	1.120
2020/01/31 06:51:25.1	92.470	-0.380	0.540	1.150
2020/01/31 06:51:25.2	92.500	-0.390	0.550	1.180
2020/01/31 06:51:25.3	92.510	-0.390	0.550	1.200
2020/01/31 06:51:25.4	92.520	-0.380	0.540	1.230
2020/01/31 06:51:25.5	92.540	-0.380	0.540	1.250
2020/01/31 06:51:25.6	92.550	-0.370	0.530	1.260
2020/01/31 06:51:25.7	92.570	-0.370	0.520	1.280
2020/01/31 06:51:25.8	92.580	-0.360	0.510	1.290
2020/01/31 06:51:25.9	92.600	-0.350	0.490	1.300
2020/01/31 06:51:26.0	92.610	-0.340	0.480	1.310
2020/01/31 06:51:26.1	92.630	-0.330	0.460	1.320
2020/01/31 06:51:26.2	92.650	-0.310	0.430	1.320
2020/01/31 06:51:26.3	92.660	-0.300	0.410	1.330
2020/01/31 06:51:26.4	92.680	-0.280	0.380	1.330
2020/01/31 06:51:26.5	92.700	-0.260	0.350	1.330
2020/01/31 06:51:26.6	92.720	-0.250	0.310	1.330
2020/01/31 06:51:26.7	92.730	-0.230	0.280	1.330
2020/01/31 06:51:26.8	92.750	-0.210	0.240	1.320
2020/01/31 06:51:26.9	92.770	-0.190	0.200	1.320
2020/01/31 06:51:27.0	92.790	-0.160	0.160	1.310
2020/01/31 06:51:27.1	92.800	-0.140	0.110	1.310
2020/01/31 06:51:27.2	92.820	-0.120	0.060	1.300
2020/01/31 06:51:27.3	92.840	-0.090	0.010	1.290
2020/01/31 06:51:27.4	92.860	-0.070	-0.040	1.290
2020/01/31 06:51:27.5	92.870	-0.040	-0.090	1.280
2020/01/31 06:51:27.6	92.890	-0.020	-0.150	1.270
2020/01/31 06:51:27.7	92.900	0.010	-0.200	1.260
2020/01/31 06:51:27.8	92.920	0.040	-0.260	1.250
2020/01/31 06:51:27.9	92.930	0.070	-0.320	1.240
2020/01/31 06:51:28.0	92.940	0.100	-0.380	1.220
2020/01/31 06:51:28.1	92.960	0.120	-0.440	1.210
2020/01/31 06:51:28.2	92.970	0.150	-0.500	1.200
2020/01/31 06:51:28.3	92.990	0.180	-0.560	1.180
2020/01/31 06:51:28.4	93.000	0.210	-0.620	1.170
2020/01/31 06:51:28.5	93.010	0.240	-0.680	1.150
2020/01/31 06:51:28.6	93.020	0.270	-0.740	1.140
2020/01/31 06:51:28.7	93.030	0.300	-0.790	1.120
2020/01/31 06:51:28.8	93.040	0.330	-0.850	1.100
2020/01/31 06:51:28.9	93.050	0.360	-0.900	1.090
2020/01/31 06:51:29.0	93.060	0.380	-0.950	1.070
2020/01/31 06:51:29.1	93.070	0.410	-0.990	1.050
2020/01/31 06:51:29.2	93.090	0.440	-1.040	1.040
2020/01/31 06:51:29.3	93.100	0.460	-1.080	1.020
2020/01/31 06:51:29.4	93.100	0.480	-1.110	1.010
2020/01/31 06:51:29.5	93.110	0.500	-1.140	0.990
2020/01/31 06:51:29.6	93.110	0.520	-1.160	0.980
2020/01/31 06:51:29.7	93.110	0.530	-1.180	0.980
2020/01/31 06:51:29.8	93.110	0.540	-1.190	0.970
2020/01/31 06:51:29.9	93.110	0.550	-1.200	0.970
2020/01/31 06:51:30.0	93.110	0.560	-1.190	0.960
2020/01/31 06:51:30.1	93.100	0.560	-1.190	0.960
2020/01/31 06:51:30.2	93.100	0.560	-1.170	0.970
2020/01/31 06:51:30.3	93.090	0.560	-1.150	0.970
2020/01/31 06:51:30.4	93.080	0.550	-1.120	0.980
2020/01/31 06:51:30.5	93.060	0.550	-1.090	0.980
2020/01/31 06:51:30.6	93.040	0.530	-1.050	0.990
2020/01/31 06:51:30.7	93.020	0.520	-1.010	1.000
2020/01/31 06:51:30.8	93.000	0.500	-0.950	1.010
2020/01/31 06:51:30.9	92.980	0.480	-0.900	1.020
2020/01/31 06:51:31.0	92.960	0.450	-0.830	1.030
2020/01/31 06:51:31.1	92.930	0.420	-0.770	1.040
2020/01/31 06:51:31.2	92.910	0.390	-0.690	1.050
2020/01/31 06:51:31.3	92.880	0.360	-0.620	1.060
2020/01/31 06:51:31.4	92.860	0.320	-0.530	1.070
2020/01/31 06:51:31.5	92.830	0.280	-0.450	1.080
2020/01/31 06:51:31.6	92.800	0.240	-0.360	1.080
2020/01/31 06:51:31.7	92.780	0.190	-0.270	1.090
2020/01/31 06:51:31.8	92.750	0.140	-0.180	1.090
2020/01/31 06:51:31.9	92.720	0.100	-0.080	1.090
2020/01/31 06:51:32.0	92.690	0.050	0.020	1.090
2020/01/31 06:51:32.1	92.670	-0.000	0.110	1.090
2020/01/31 06:51:32.2	92.660	-0.060	0.210	1.090
2020/01/31 06:51:32.3	92.630	-0.110	0.310	1.080
2020/01/31 06:51:32.4	92.610	-0.160	0.400	1.070
2020/01/31 06:51:32.5	92.590	-0.210	0.490	1.060
2020/01/31 06:51:32.6	92.570	-0.260	0.580	1.050
2020/01/31 06:51:32.7	92.550	-0.310	0.670	1.030
2020/01/31 06:51:32.8	92.540	-0.360	0.750	1.010
2020/01/31 06:51:32.9	92.530	-0.410	0.830	0.990
2020/01/31 06:51:33.0	92.520	-0.450	0.900	0.960
2020/01/31 06:51:33.1	92.510	-0.500	0.970	0.930
2020/01/31 06:51:33.2	92.500	-0.540	1.030	0.900
2020/01/31 06:51:33.3	92.500	-0.580	1.090	0.870
2020/01/31 06:51:33.4	92.500	-0.610	1.130	0.830
2020/01/31 06:51:33.5	92.500	-0.640	1.170	0.790
2020/01/31 06:51:33.6	92.500	-0.670	1.210	0.750
2020/01/31 06:51:33.7	92.510	-0.690	1.230	0.710
2020/01/31 06:51:33.8	92.510	-0.710	1.240	0.670
2020/01/31 06:51:33.9	92.520	-0.730	1.250	0.620
2020/01/31 06:51:34.0	92.530	-0.740	1.240	0.570
2020/01/31 06:51:34.1	92.550	-0.750	1.230	0.520
2020/01/31 06:51:34.2	92.550	-0.750	1.210	0.470
2020/01/31 06:51:34.3	92.570	-0.750	1.180	0.410
2020/01/31 06:51:34.4	92.590	-0.750	1.130	0.360
2020/01/31 06:51:34.5	92.610	-0.740	1.080	0.300
2020/01/31 06:51:34.6	92.630	-0.720	1.020	0.240
2020/01/31 06:51:34.7	92.660	-0.700	0.950	0.180
2020/01/31 06:51:34.8	92.690	-0.680	0.870	0.120
2020/01/31 06:51:34.9	92.720	-0.660	0.790	0.060
2020/01/31 06:51:35.0	92.750	-0.630	0.700	-0.000
2020/01/31 06:51:35.1	92.790	-0.590	0.600	-0.070
2020/01/31 06:51:35.2	92.820	-0.560	0.490	-0.130
2020/01/31 06:51:35.3	92.850	-0.520	0.380	-0.190
2020/01/31 06:51:35.4	92.890	-0.480	0.270	-0.260
2020/01/31 06:51:35.5	92.940	-0.430	0.160	-0.320
2020/01/31 06:51:35.6	92.980	-0.390	0.040	-0.380
2020/01/31 06:51:35.7	93.020	-0.340	-0.080	-0.440
2020/01/31 06:51:35.8	93.060	-0.290	-0.200	-0.500
2020/01/31 06:51:35.9	93.100	-0.250	-0.320	-0.560
2020/01/31 06:51:36.0	93.140	-0.200	-0.430	-0.610
2020/01/31 06:51:36.1	93.180	-0.150	-0.550	-0.660
2020/01/31 06:51:36.2	93.220	-0.100	-0.660	-0.710
2020/01/31 06:51:36.3	93.260	-0.050	-0.770	-0.760
2020/01/31 06:51:36.4	93.290	0.000	-0.870	-0.790
2020/01/31 06:51:36.5	93.320	0.050	-0.960	-0.830
2020/01/31 06:51:36.6	93.350	0.090	-1.050	-0.860
2020/01/31 06:51:36.7	93.380	0.140	-1.130	-0.880
2020/01/31 06:51:36.8	93.400	0.180	-1.210	-0.900
2020/01/31 06:51:36.9	93.420	0.220	-1.270	-0.910
2020/01/31 06:51:37.0	93.440	0.260	-1.330	-0.910
2020/01/31 06:51:37.1	93.450	0.290	-1.380	-0.910
2020/01/31 06:51:37.2	93.470	0.320	-1.420	-0.900
2020/01/31 06:51:37.3	93.470	0.350	-1.450	-0.880
2020/01/31 06:51:37.4	93.470	0.380	-1.470	-0.860
2020/01/31 06:51:37.5	93.470	0.410	-1.490	-0.830
2020/01/31 06:51:37.6	93.470	0.430	-1.490	-0.790
2020/01/31 06:51:37.7	93.460	0.450	-1.480	-0.750
2020/01/31 06:51:37.8	93.450	0.460	-1.470	-0.700
2020/01/31 06:51:37.9	93.440	0.480	-1.440	-0.640
2020/01/31 06:51:38.0	93.420	0.490	-1.410	-0.570
2020/01/31 06:51:38.1	93.400	0.490	-1.370	-0.500
2020/01/31 06:51:38.2	93.380	0.500	-1.320	-0.420
2020/01/31 06:51:38.3	93.350	0.500	-1.270	-0.340
2020/01/31 06:51:38.4	93.330	0.500	-1.210	-0.250
2020/01/31 06:51:38.5	93.290	0.500	-1.150	-0.160
2020/01/31 06:51:38.6	93.260	0.500	-1.090	-0.070
2020/01/31 06:51:38.7	93.230	0.490	-1.020	0.030
2020/01/31 06:51:38.8	93.190	0.490	-0.940	0.140
2020/01/31 06:51:38.9	93.150	0.480	-0.870	0.240
2020/01/31 06:51:39.0	93.110	0.470	-0.790	0.350
2020/01/31 06:51:39.1	93.070	0.460	-0.720	0.460
2020/01/31 06:51:39.2	93.040	0.440	-0.640	0.570
2020/01/31 06:51:39.3	92.990	0.430	-0.570	0.690
2020/01/31 06:51:39.4	92.950	0.420	-0.490	0.800
2020/01/31 06:51:39.5	92.900	0.400	-0.420	0.910
2020/01/31 06:51:39.6	92.850	0.390	-0.350	1.020
2020/01/31 06:51:39.7	92.810	0.370	-0.280	1.130
2020/01/31 06:51:39.8	92.760	0.350	-0.220	1.240
2020/01/31 06:51:39.9	92.720	0.340	-0.150	1.340
2020/01/31 06:51:40.0	92.670	0.320	-0.100	1.440
2020/01/31 06:51:40.1	92.630	0.300	-0.040	1.530
2020/01/31 06:51:40.2	92.590	0.290	0.010	1.620
2020/01/31 06:51:40.3	92.560	0.270	0.060	1.710
2020/01/31 06:51:40.4	92.530	0.250	0.110	1.790
2020/01/31 06:51:40.5	92.500	0.240	0.150	1.860
2020/01/31 06:51:40.6	92.470	0.220	0.190	1.920
2020/01/31 06:51:40.7	92.450	0.200	0.230	1.980
2020/01/31 06:51:40.8	92.430	0.180	0.260	2.030
2020/01/31 06:51:40.9	92.420	0.160	0.290	2.070
2020/01/31 06:51:41.0	92.410	0.150	0.320	2.110
2020/01/31 06:51:41.1	92.410	0.130	0.350	2.130
2020/01/31 06:51:41.2	92.400	0.110	0.380	2.150
2020/01/31 06:51:41.3	92.410	0.090	0.400	2.160
2020/01/31 06:51:41.4	92.410	0.070	0.420	2.170
2020/01/31 06:51:41.5	92.420	0.050	0.440	2.160
2020/01/31 06:51:41.6	92.440	0.030	0.460	2.150
2020/01/31 06:51:41.7	92.460	0.010	0.470	2.140
2020/01/31 06:51:41.8	92.480	-0.010	0.490	2.110
2020/01/31 06:51:41.9	92.500	-0.020	0.500	2.080
2020/01/31 06:51:42.0	92.530	-0.040	0.510	2.050
2020/01/31 06:51:42.1	92.560	-0.060	0.520	2.010
2020/01/31 06:51:42.2	92.600	-0.080	0.530	1.960
2020/01/31 06:51:42.3	92.630	-0.100	0.540	1.910
2020/01/31 06:51:42.4	92.660	-0.120	0.550	1.860
2020/01/31 06:51:42.5	92.700	-0.140	0.560	1.800
2020/01/31 06:51:42.6	92.730	-0.160	0.570	1.740
2020/01/31 06:51:42.7	92.770	-0.180	0.570	1.680
2020/01/31 06:51:42.8	92.810	-0.200	0.570	1.610
2020/01/31 06:51:42.9	92.840	-0.210	0.580	1.540
2020/01/31 06:51:43.0	92.880	-0.230	0.580	1.470
2020/01/31 06:51:43.1	92.910	-0.240	0.570	1.410
2020/01/31 06:51:43.2	92.930	-0.260	0.570	1.340
2020/01/31 06:51:43.3	92.960	-0.270	0.560	1.270
2020/01/31 06:51:43.4	92.990	-0.280	0.550	1.200
2020/01/31 06:51:43.5	93.010	-0.280	0.540	1.140
2020/01/31 06:51:43.6	93.040	-0.290	0.520	1.070
2020/01/31 06:51:43.7	93.060	-0.300	0.500	1.010
2020/01/31 06:51:43.8	93.070	-0.300	0.480	0.950
2020/01/31 06:51:43.9	93.090	-0.300	0.450	0.890
2020/01/31 06:51:44.0	93.100	-0.300	0.420	0.830
2020/01/31 06:51:44.1	93.110	-0.290	0.390	0.780
2020/01/31 06:51:44.2	93.120	-0.290	0.350	0.720
2020/01/31 06:51:44.3	93.130	-0.280	0.310	0.670
2020/01/31 06:51:44.4	93.130	-0.270	0.270	0.610
2020/01/31 06:51:44.5	93.140	-0.250	0.220	0.560
2020/01/31 06:51:44.6	93.140	-0.240	0.170	0.510
2020/01/31 06:51:44.7	93.140	-0.220	0.120	0.460
2020/01/31 06:51:44.8	93.150	-0.210	0.060	0.410
2020/01/31 06:51:44.9	93.150	-0.190	0.000	0.360
2020/01/31 06:51:45.0	93.150	-0.170	-0.060	0.320
2020/01/31 06:51:45.1	93.150	-0.150	-0.120	0.270
2020/01/31 06:51:45.2	93.150	-0.120	-0.180	0.220
2020/01/31 06:51:45.3	93.150	-0.100	-0.250	0.180
2020/01/31 06:51:45.4	93.150	-0.070	-0.310	0.130
2020/01/31 06:51:45.5	93.150	-0.050	-0.370	0.090
2020/01/31 06:51:45.6	93.150	-0.020	-0.440	0.050
2020/01/31 06:51:45.7	93.150	0.000	-0.500	0.020
2020/01/31 06:51:45.8	93.150	0.030	-0.560	-0.020
2020/01/31 06:51:45.9	93.150	0.050	-0.610	-0.050
2020/01/31 06:51:46.0	93.140	0.070	-0.670	-0.080
2020/01/31 06:51:46.1	93.140	0.100	-0.720	-0.110
2020/01/31 06:51:46.2	93.140	0.120	-0.770	-0.130
2020/01/31 06:51:46.3	93.140	0.140	-0.810	-0.150
2020/01/31 06:51:46.4	93.130	0.160	-0.850	-0.170
2020/01/31 06:51:46.5	93.130	0.170	-0.880	-0.180
2020/01/31 06:51:46.6	93.120	0.190	-0.900	-0.190
2020/01/31 06:51:46.7	93.120	0.200	-0.930	-0.200
2020/01/31 06:51:46.8	93.110	0.210	-0.940	-0.200
2020/01/31 06:51:46.9	93.100	0.220	-0.950	-0.200
2020/01/31 06:51:47.0	93.100	0.220	-0.960	-0.190
2020/01/31 06:51:47.1	93.090	0.220	-0.960	-0.180
2020/01/31 06:51:47.2	93.080	0.220	-0.950	-0.170
2020/01/31 06:51:47.3	93.070	0.220	-0.940	-0.160
2020/01/31 06:51:47.4	93.050	0.220	-0.930	-0.140
2020/01/31 06:51:47.5	93.040	0.210	-0.900	-0.120
2020/01/31 06:51:47.6	93.030	0.200	-0.880	-0.100
2020/01/31 06:51:47.7	93.010	0.190	-0.850	-0.070
2020/01/31 06:51:47.8	93.000	0.170	-0.810	-0.050
2020/01/31 06:51:47.9	92.990	0.160	-0.770	-0.020
2020/01/31 06:51:48.0	92.970	0.140	-0.730	0.010
2020/01/31 06:51:48.1	92.950	0.120	-0.690	0.040
2020/01/31 06:51:48.2	92.940	0.100	-0.630	0.070
2020/01/31 06:51:48.3	92.930	0.080	-0.580	0.100
2020/01/31 06:51:48.4	92.910	0.060	-0.530	0.130
2020/01/31 06:51:48.5	92.890	0.030	-0.470	0.160
2020/01/31 06:51:48.6	92.880	0.010	-0.420	0.180
2020/01/31 06:51:48.7	92.860	-0.010	-0.360	0.210
2020/01/31 06:51:48.8	92.850	-0.040	-0.300	0.230
2020/01/31 06:51:48.9	92.840	-0.060	-0.250	0.250
2020/01/31 06:51:49.0	92.830	-0.090	-0.190	0.270
2020/01/31 06:51:49.1	92.810	-0.110	-0.140	0.290
2020/01/31 06:51:49.2	92.800	-0.130	-0.080	0.300
2020/01/31 06:51:49.3	92.790	-0.150	-0.030	0.320
2020/01/31 06:51:49.4	92.780	-0.170	0.020	0.330
2020/01/31 06:51:49.5	92.780	-0.180	0.060	0.340
2020/01/31 06:51:49.6	92.770	-0.200	0.110	0.340
2020/01/31 06:51:49.7	92.760	-0.210	0.150	0.350
2020/01/31 06:51:49.8	92.760	-0.220	0.180	0.360
2020/01/31 06:51:49.9	92.750	-0.230	0.220	0.360
2020/01/31 06:51:50.0	92.750	-0.240	0.240	0.360
2020/01/31 06:51:50.1	92.750	-0.240	0.270	0.370
2020/01/31 06:51:50.2	92.740	-0.240	0.290	0.370
2020/01/31 06:51:50.3	92.740	-0.240	0.300	0.370
2020/01/31 06:51:50.4	92.740	-0.240	0.310	0.380
2020/01/31 06:51:50.5	92.740	-0.230	0.310	0.380
2020/01/31 06:51:50.6	92.740	-0.220	0.310	0.390
2020/01/31 06:51:50.7	92.740	-0.210	0.300	0.400
2020/01/31 06:51:50.8	92.740	-0.200	0.290	0.400
2020/01/31 06:51:50.9	92.740	-0.190	0.270	0.410
2020/01/31 06:51:51.0	92.740	-0.170	0.250	0.430
2020/01/31 06:51:51.1	92.740	-0.150	0.230	0.440
2020/01/31 06:51:51.2	92.740	-0.130	0.200	0.450
2020/01/31 06:51:51.3	92.750	-0.110	0.160	0.470
2020/01/31 06:51:51.4	92.750	-0.090	0.130	0.480
2020/01/31 06:51:51.5	92.760	-0.070	0.090	0.500
2020/01/31 06:51:51.6	92.760	-0.050	0.050	0.520
2020/01/31 06:51:51.7	92.770	-0.030	0.010	0.540
2020/01/31 06:51:51.8	92.780	-0.010	-0.030	0.560
2020/01/31 06:51:51.9	92.790	0.010	-0.070	0.580
2020/01/31 06:51:52.0	92.810	0.020	-0.100	0.600
2020/01/31 06:51:52.1	92.820	0.040	-0.140	0.620
2020/01/31 06:51:52.2	92.840	0.050	-0.170	0.640
2020/01/31 06:51:52.3	92.860	0.060	-0.200	0.660
2020/01/31 06:51:52.4	92.880	0.070	-0.230	0.680
2020/01/31 06:51:52.5	92.900	0.080	-0.260	0.700
2020/01/31 06:51:52.6	92.920	0.080	-0.280	0.720
2020/01/31 06:51:52.7	92.940	0.080	-0.290	0.740
2020/01/31 06:51:52.8	92.960	0.080	-0.310	0.760
2020/01/31 06:51:52.9	92.980	0.080	-0.310	0.770
2020/01/31 06:51:53.0	93.000	0.070	-0.320	0.790
2020/01/31 06:51:53.1	93.010	0.070	-0.310	0.800
2020/01/31 06:51:53.2	93.030	0.060	-0.310	0.810
2020/01/31 06:51:53.3	93.050	0.040	-0.300	0.830
2020/01/31 06:51:53.4	93.060	0.030	-0.280	0.840
2020/01/31 06:51:53.5	93.070	0.010	-0.260	0.850
2020/01/31 06:51:53.6	93.080	-0.000	-0.240	0.870
2020/01/31 06:51:53.7	93.090	-0.020	-0.210	0.880
2020/01/31 06:51:53.8	93.090	-0.040	-0.180	0.890
2020/01/31 06:51:53.9	93.090	-0.060	-0.150	0.900
2020/01/31 06:51:54.0	93.090	-0.080	-0.120	0.920
2020/01/31 06:51:54.1	93.080	-0.100	-0.090	0.930
2020/01/31 06:51:54.2	93.080	-0.110	-0.050	0.950
2020/01/31 06:51:54.3	93.070	-0.130	-0.020	0.960
2020/01/31 06:51:54.4	93.050	-0.150	0.020	0.980
2020/01/31 06:51:54.5	93.030	-0.160	0.050	0.990
2020/01/31 06:51:54.6	93.010	-0.180	0.080	1.010
2020/01/31 06:51:54.7	92.980	-0.190	0.110	1.020
2020/01/31 06:51:54.8	92.960	-0.200	0.140	1.040
2020/01/31 06:51:54.9	92.930	-0.200	0.160	1.050
2020/01/31 06:51:55.0	92.900	-0.210	0.190	1.060
2020/01/31 06:51:55.1	92.870	-0.210	0.200	1.070
2020/01/31 06:51:55.2	92.830	-0.210	0.220	1.080
2020/01/31 06:51:55.3	92.800	-0.210	0.220	1.090
2020/01/31 06:51:55.4	92.760	-0.200	0.230	1.100
2020/01/31 06:51:55.5	92.730	-0.200	0.230	1.100
2020/01/31 06:51:55.6	92.700	-0.180	0.220	1.100
2020/01/31 06:51:55.7	92.670	-0.170	0.210	1.100
2020/01/31 06:51:55.8	92.640	-0.150	0.200	1.090
2020/01/31 06:51:55.9	92.620	-0.130	0.180	1.090
2020/01/31 06:51:56.0	92.590	-0.110	0.150	1.080
2020/01/31 06:51:56.1	92.570	-0.090	0.120	1.070
2020/01/31 06:51:56.2	92.560	-0.060	0.090	1.050
2020/01/31 06:51:56.3	92.550	-0.040	0.050	1.030
2020/01/31 06:51:56.4	92.530	-0.010	0.010	1.010
2020/01/31 06:51:56.5	92.530	0.030	-0.040	0.990
2020/01/31 06:51:56.6	92.520	0.060	-0.080	0.960
2020/01/31 06:51:56.7	92.510	0.090	-0.130	0.940
2020/01/31 06:51:56.8	92.520	0.130	-0.190	0.910
2020/01/31 06:51:56.9	92.520	0.160	-0.240	0.880
2020/01/31 06:51:57.0	92.520	0.200	-0.300	0.850
2020/01/31 06:51:57.1	92.530	0.230	-0.350	0.810
2020/01/31 06:51:57.2	92.540	0.260	-0.410	0.780
2020/01/31 06:51:57.3	92.550	0.300	-0.460	0.740
2020/01/31 06:51:57.4	92.570	0.330	-0.510	0.710
2020/01/31 06:51:57.5	92.580	0.360	-0.570	0.670
2020/01/31 06:51:57.6	92.600	0.390	-0.610	0.640
2020/01/31 06:51:57.7	92.620	0.420	-0.660	0.600
2020/01/31 06:51:57.8	92.640	0.450	-0.700	0.560
2020/01/31 06:51:57.9	92.660	0.480	-0.740	0.520
2020/01/31 06:51:58.0	92.680	0.500	-0.770	0.490
2020/01/31 06:51:58.1	92.700	0.520	-0.800	0.450
2020/01/31 06:51:58.2	92.720	0.540	-0.820	0.410
2020/01/31 06:51:58.3	92.740	0.550	-0.840	0.370
2020/01/31 06:51:58.4	92.760	0.570	-0.860	0.340
2020/01/31 06:51:58.5	92.790	0.580	-0.860	0.300
2020/01/31 06:51:58.6	92.810	0.580	-0.870	0.270
2020/01/31 06:51:58.7	92.830	0.590	-0.860	0.230
2020/01/31 06:51:58.8	92.850	0.590	-0.850	0.200
2020/01/31 06:51:58.9	92.870	0.580	-0.840	0.170
2020/01/31 06:51:59.0	92.890	0.580	-0.820	0.150
2020/01/31 06:51:59.1	92.910	0.570	-0.790	0.120
2020/01/31 06:51:59.2	92.920	0.560	-0.760	0.100
2020/01/31 06:51:59.3	92.940	0.540	-0.730	0.080
2020/01/31 06:51:59.4	92.950	0.520	-0.690	0.060
2020/01/31 06:51:59.5	92.960	0.500	-0.640	0.040
2020/01/31 06:51:59.6	92.960	0.480	-0.590	0.030
2020/01/31 06:51:59.7	92.970	0.450	-0.540	0.020
2020/01/31 06:51:59.8	92.970	0.430	-0.480	0.010
2020/01/31 06:51:59.9	92.970	0.390	-0.420	0.010
2020/01/31 06:52:00.0	92.960	0.360	-0.360	0.010
2020/01/31 06:52:00.1	92.960	0.330	-0.300	0.010
2020/01/31 06:52:00.2	92.940	0.290	-0.230	0.010
2020/01/31 06:52:00.3	92.930	0.250	-0.160	0.010
2020/01/31 06:52:00.4	92.920	0.210	-0.090	0.020
2020/01/31 06:52:00.5	92.910	0.170	-0.020	0.030
2020/01/31 06:52:00.6	92.890	0.130	0.040	0.040
2020/01/31 06:52:00.7	92.870	0.090	0.110	0.050
2020/01/31 06:52:00.8	92.850	0.050	0.170	0.070
2020/01/31 06:52:00.9	92.830	0.000	0.240	0.090
2020/01/31 06:52:01.0	92.810	-0.040	0.300	0.110
2020/01/31 06:52:01.1	92.790	-0.090	0.360	0.130
2020/01/31 06:52:01.2	92.770	-0.130	0.410	0.150
2020/01/31 06:52:01.3	92.750	-0.170	0.460	0.180
2020/01/31 06:52:01.4	92.720	-0.220	0.510	0.200
2020/01/31 06:52:01.5	92.700	-0.260	0.550	0.230
2020/01/31 06:52:01.6	92.680	-0.300	0.590	0.260
2020/01/31 06:52:01.7	92.660	-0.340	0.630	0.290
2020/01/31 06:52:01.8	92.640	-0.380	0.660	0.320
2020/01/31 06:52:01.9	92.620	-0.410	0.680	0.350
2020/01/31 06:52:02.0	92.600	-0.450	0.700	0.390
2020/01/31 06:52:02.1	92.590	-0.480	0.710	0.420
2020/01/31 06:52:02.2	92.560	-0.510	0.720	0.450
2020/01/31 06:52:02.3	92.550	-0.540	0.720	0.490
2020/01/31 06:52:02.4	92.530	-0.570	0.710	0.530
2020/01/31 06:52:02.5	92.510	-0.590	0.700	0.570
2020/01/31 06:52:02.6	92.500	-0.610	0.690	0.600
2020/01/31 06:52:02.7	92.490	-0.630	0.660	0.640
2020/01/31 06:52:02.8	92.480	-0.650	0.640	0.680
2020/01/31 06:52:02.9	92.470	-0.660	0.600	0.720
2020/01/31 06:52:03.0	92.450	-0.670	0.570	0.750
2020/01/31 06:52:03.1	92.450	-0.670	0.520	0.790
2020/01/31 06:52:03.2	92.430	-0.680	0.470	0.830
2020/01/31 06:52:03.3	92.430	-0.680	0.420	0.860
2020/01/31 06:52:03.4	92.420	-0.670	0.360	0.890
2020/01/31 06:52:03.5	92.420	-0.660	0.310	0.920
2020/01/31 06:52:03.6	92.410	-0.650	0.240	0.950
2020/01/31 06:52:03.7	92.410	-0.640	0.180	0.970
2020/01/31 06:52:03.8	92.410	-0.620	0.110	1.000
2020/01/31 06:52:03.9	92.410	-0.600	0.040	1.020
2020/01/31 06:52:04.0	92.410	-0.580	-0.030	1.030
2020/01/31 06:52:04.1	92.420	-0.550	-0.100	1.050
2020/01/31 06:52:04.2	92.420	-0.520	-0.170	1.060
2020/01/31 06:52:04.3	92.430	-0.490	-0.240	1.070
2020/01/31 06:52:04.4	92.430	-0.460	-0.310	1.070
2020/01/31 06:52:04.5	92.440	-0.420	-0.380	1.080
2020/01/31 06:52:04.6	92.450	-0.380	-0.450	1.080
2020/01/31 06:52:04.7	92.460	-0.340	-0.520	1.080
2020/01/31 06:52:04.8	92.460	-0.300	-0.580	1.070
2020/01/31 06:52:04.9	92.470	-0.260	-0.640	1.070
2020/01/31 06:52:05.0	92.480	-0.220	-0.700	1.060
2020/01/31 06:52:05.1	92.500	-0.170	-0.750	1.050
2020/01/31 06:52:05.2	92.510	-0.130	-0.800	1.040
2020/01/31 06:52:05.3	92.520	-0.080	-0.840	1.030
2020/01/31 06:52:05.4	92.530	-0.040	-0.880	1.020
2020/01/31 06:52:05.5	92.540	0.000	-0.910	1.000
2020/01/31 06:52:05.6	92.560	0.040	-0.930	0.990
2020/01/31 06:52:05.7	92.570	0.080	-0.950	0.980
2020/01/31 06:52:05.8	92.580	0.120	-0.970	0.970
2020/01/31 06:52:05.9	92.590	0.160	-0.980	0.960
2020/01/31 06:52:06.0	92.600	0.200	-0.980	0.940
2020/01/31 06:52:06.1	92.610	0.230	-0.970	0.930
2020/01/31 06:52:06.2	92.630	0.260	-0.960	0.930
2020/01/31 06:52:06.3	92.640	0.290	-0.950	0.920
2020/01/31 06:52:06.4	92.650	0.310	-0.920	0.910
2020/01/31 06:52:06.5	92.650	0.330	-0.890	0.910
2020/01/31 06:52:06.6	92.660	0.350	-0.860	0.910
2020/01/31 06:52:06.7	92.670	0.370	-0.820	0.910
2020/01/31 06:52:06.8	92.670	0.380	-0.780	0.910
2020/01/31 06:52:06.9	92.680	0.390	-0.730	0.910
2020/01/31 06:52:07.0	92.680	0.400	-0.680	0.910
2020/01/31 06:52:07.1	92.690	0.400	-0.630	0.920
2020/01/31 06:52:07.2	92.690	0.400	-0.570	0.930
2020/01/31 06:52:07.3	92.690	0.400	-0.510	0.930
2020/01/31 06:52:07.4	92.690	0.400	-0.450	0.940
2020/01/31 06:52:07.5	92.700	0.390	-0.390	0.950
2020/01/31 06:52:07.6	92.700	0.380	-0.330	0.960
2020/01/31 06:52:07.7	92.700	0.370	-0.270	0.960
2020/01/31 06:52:07.8	92.700	0.350	-0.210	0.970
2020/01/31 06:52:07.9	92.700	0.340	-0.150	0.980
2020/01/31 06:52:08.0	92.710	0.320	-0.100	0.980
2020/01/31 06:52:08.1	92.710	0.300	-0.040	0.980
2020/01/31 06:52:08.2	92.700	0.280	0.010	0.980
2020/01/31 06:52:08.3	92.710	0.250	0.060	0.980
2020/01/31 06:52:08.4	92.710	0.230	0.110	0.980
2020/01/31 06:52:08.5	92.710	0.200	0.160	0.970
2020/01/31 06:52:08.6	92.710	0.180	0.200	0.970
2020/01/31 06:52:08.7	92.710	0.150	0.240	0.960
2020/01/31 06:52:08.8	92.710	0.120	0.270	0.940
2020/01/31 06:52:08.9	92.710	0.100	0.300	0.930
2020/01/31 06:52:09.0	92.710	0.070	0.330	0.910
2020/01/31 06:52:09.1	92.700	0.040	0.350	0.900
2020/01/31 06:52:09.2	92.690	0.020	0.360	0.870
2020/01/31 06:52:09.3	92.680	-0.010	0.380	0.850
2020/01/31 06:52:09.4	92.680	-0.030	0.390	0.830
2020/01/31 06:52:09.5	92.670	-0.060	0.390	0.810
2020/01/31 06:52:09.6	92.650	-0.080	0.390	0.790
2020/01/31 06:52:09.7	92.640	-0.100	0.390	0.770
2020/01/31 06:52:09.8	92.620	-0.120	0.390	0.750
2020/01/31 06:52:09.9	92.610	-0.130	0.380	0.730
2020/01/31 06:52:10.0	92.590	-0.150	0.360	0.710
2020/01/31 06:52:10.1	92.560	-0.160	0.350	0.690
2020/01/31 06:52:10.2	92.530	-0.180	0.330	0.670
2020/01/31 06:52:10.3	92.510	-0.190	0.310	0.650
2020/01/31 06:52:10.4	92.480	-0.200	0.290	0.640
2020/01/31 06:52:10.5	92.460	-0.200	0.270	0.620
2020/01/31 06:52:10.6	92.430	-0.210	0.240	0.610
2020/01/31 06:52:10.7	92.400	-0.210	0.210	0.590
2020/01/31 06:52:10.8	92.370	-0.210	0.180	0.580
2020/01/31 06:52:10.9	92.350	-0.210	0.150	0.570
2020/01/31 06:52:11.0	92.320	-0.200	0.120	0.560
2020/01/31 06:52:11.1	92.290	-0.200	0.090	0.540
2020/01/31 06:52:11.2	92.260	-0.190	0.050	0.530
2020/01/31 06:52:11.3	92.230	-0.180	0.020	0.520
2020/01/31 06:52:11.4	92.210	-0.170	-0.020	0.510
2020/01/31 06:52:11.5	92.180	-0.160	-0.050	0.500
2020/01/31 06:52:11.6	92.160	-0.150	-0.090	0.490
2020/01/31 06:52:11.7	92.140	-0.130	-0.120	0.480
2020/01/31 06:52:11.8	92.120	-0.120	-0.160	0.470
2020/01/31 06:52:11.9	92.100	-0.100	-0.190	0.460
2020/01/31 06:52:12.0	92.080	-0.090	-0.230	0.450
2020/01/31 06:52:12.1	92.070	-0.070	-0.260	0.440
2020/01/31 06:52:12.2	92.050	-0.050	-0.290	0.430
2020/01/31 06:52:12.3	92.040	-0.030	-0.330	0.420
2020/01/31 06:52:12.4	92.030	-0.010	-0.360	0.410
2020/01/31 06:52:12.5	92.020	0.010	-0.390	0.400
2020/01/31 06:52:12.6	92.010	0.030	-0.430	0.380
2020/01/31 06:52:12.7	92.000	0.050	-0.460	0.370
2020/01/31 06:52:12.8	92.000	0.070	-0.490	0.360
2020/01/31 06:52:12.9	91.990	0.100	-0.510	0.350
2020/01/31 06:52:13.0	91.990	0.120	-0.540	0.340
2020/01/31 06:52:13.1	91.990	0.140	-0.570	0.330
2020/01/31 06:52:13.2	91.980	0.150	-0.590	0.310
2020/01/31 06:52:13.3	91.980	0.170	-0.610	0.300
2020/01/31 06:52:13.4	91.990	0.190	-0.630	0.290
2020/01/31 06:52:13.5	91.990	0.210	-0.640	0.270
2020/01/31 06:52:13.6	92.000	0.220	-0.660	0.260
2020/01/31 06:52:13.7	92.000	0.230	-0.670	0.250
2020/01/31 06:52:13.8	92.010	0.250	-0.670	0.230
2020/01/31 06:52:13.9	92.020	0.260	-0.670	0.220
2020/01/31 06:52:14.0	92.030	0.270	-0.670	0.200
2020/01/31 06:52:14.1	92.050	0.270	-0.670	0.190
2020/01/31 06:52:14.2	92.060	0.280	-0.660	0.180
2020/01/31 06:52:14.3	92.070	0.290	-0.650	0.160
2020/01/31 06:52:14.4	92.090	0.290	-0.630	0.150
2020/01/31 06:52:14.5	92.100	0.290	-0.610	0.140
2020/01/31 06:52:14.6	92.120	0.290	-0.590	0.130
2020/01/31 06:52:14.7	92.140	0.280	-0.560	0.120
2020/01/31 06:52:14.8	92.150	0.280	-0.530	0.110
2020/01/31 06:52:14.9	92.170	0.270	-0.500	0.100
2020/01/31 06:52:15.0	92.190	0.260	-0.460	0.100
2020/01/31 06:52:15.1	92.200	0.250	-0.420	0.100
2020/01/31 06:52:15.2	92.230	0.240	-0.370	0.090
2020/01/31 06:52:15.3	92.240	0.220	-0.330	0.090
2020/01/31 06:52:15.4	92.260	0.210	-0.280	0.090
2020/01/31 06:52:15.5	92.270	0.190	-0.230	0.100
2020/01/31 06:52:15.6	92.280	0.170	-0.180	0.100
2020/01/31 06:52:15.7	92.290	0.150	-0.130	0.110
2020/01/31 06:52:15.8	92.300	0.130	-0.080	0.120
2020/01/31 06:52:15.9	92.310	0.110	-0.020	0.130
2020/01/31 06:52:16.0	92.320	0.090	0.030	0.140
2020/01/31 06:52:16.1	92.330	0.070	0.080	0.150
2020/01/31 06:52:16.2	92.330	0.040	0.130	0.170
2020/01/31 06:52:16.3	92.340	0.020	0.180	0.190
2020/01/31 06:52:16.4	92.340	-0.000	0.230	0.210
2020/01/31 06:52:16.5	92.340	-0.020	0.280	0.230
2020/01/31 06:52:16.6	92.340	-0.050	0.320	0.250
2020/01/31 06:52:16.7	92.340	-0.070	0.360	0.280
2020/01/31 06:52:16.8	92.330	-0.090	0.400	0.310
2020/01/31 06:52:16.9	92.330	-0.110	0.430	0.330
2020/01/31 06:52:17.0	92.320	-0.130	0.460	0.360
2020/01/31 06:52:17.1	92.310	-0.150	0.490	0.400
2020/01/31 06:52:17.2	92.310	-0.160	0.520	0.430
2020/01/31 06:52:17.3	92.300	-0.180	0.530	0.460
2020/01/31 06:52:17.4	92.290	-0.190	0.550	0.500
2020/01/31 06:52:17.5	92.270	-0.200	0.560	0.540
2020/01/31 06:52:17.6	92.260	-0.210	0.560	0.570
2020/01/31 06:52:17.7	92.250	-0.220	0.560	0.610
2020/01/31 06:52:17.8	92.230	-0.230	0.550	0.650
2020/01/31 06:52:17.9	92.220	-0.230	0.540	0.690
2020/01/31 06:52:18.0	92.200	-0.240	0.530	0.730
2020/01/31 06:52:18.1	92.190	-0.240	0.500	0.770
2020/01/31 06:52:18.2	92.170	-0.230	0.480	0.810
2020/01/31 06:52:18.3	92.150	-0.230	0.450	0.850
2020/01/31 06:52:18.4	92.140	-0.220	0.410	0.890
2020/01/31 06:52:18.5	92.120	-0.220	0.370	0.920
2020/01/31 06:52:18.6	92.100	-0.210	0.320	0.960
2020/01/31 06:52:18.7	92.090	-0.200	0.270	1.000
2020/01/31 06:52:18.8	92.070	-0.180	0.220	1.040
2020/01/31 06:52:18.9	92.060	-0.170	0.160	1.070
2020/01/31 06:52:19.0	92.040	-0.150	0.100	1.100
2020/01/31 06:52:19.1	92.030	-0.140	0.040	1.140
2020/01/31 06:52:19.2	92.020	-0.120	-0.030	1.170
2020/01/31 06:52:19.3	92.010	-0.100	-0.100	1.200
2020/01/31 06:52:19.4	92.000	-0.080	-0.170	1.230
2020/01/31 06:52:19.5	91.990	-0.050	-0.240	1.250
2020/01/31 06:52:19.6	91.980	-0.030	-0.320	1.270
2020/01/31 06:52:19.7	91.970	-0.010	-0.390	1.290
2020/01/31 06:52:19.8	91.960	0.010	-0.460	1.310
2020/01/31 06:52:19.9	91.960	0.040	-0.530	1.330
2020/01/31 06:52:20.0	91.960	0.060	-0.590	1.340
2020/01/31 06:52:20.1	91.960	0.080	-0.660	1.350
2020/01/31 06:52:20.2	91.960	0.100	-0.720	1.360
2020/01/31 06:52:20.3	91.960	0.130	-0.770	1.370
2020/01/31 06:52:20.4	91.960	0.150	-0.830	1.380
2020/01/31 06:52:20.5	91.960	0.170	-0.880	1.380
2020/01/31 06:52:20.6	91.970	0.190	-0.920	1.390
2020/01/31 06:52:20.7	91.970	0.200	-0.960	1.390
2020/01/31 06:52:20.8	91.980	0.220	-0.990	1.390
2020/01/31 06:52:20.9	91.980	0.240	-1.010	1.400
2020/01/31 06:52:21.0	91.990	0.250	-1.030	1.400
2020/01/31 06:52:21.1	91.990	0.260	-1.040	1.400
2020/01/31 06:52:21.2	91.990	0.270	-1.050	1.400
2020/01/31 06:52:21.3	92.000	0.280	-1.050	1.400
2020/01/31 06:52:21.4	92.000	0.290	-1.040	1.410
2020/01/31 06:52:21.5	92.000	0.290	-1.030	1.410
2020/01/31 06:52:21.6	92.000	0.290	-1.000	1.410
2020/01/31 06:52:21.7	92.010	0.290	-0.980	1.410
2020/01/31 06:52:21.8	92.010	0.290	-0.940	1.410
2020/01/31 06:52:21.9	92.010	0.290	-0.900	1.420
2020/01/31 06:52:22.0	92.000	0.280	-0.860	1.420
2020/01/31 06:52:22.1	92.000	0.270	-0.810	1.420
2020/01/31 06:52:22.2	92.000	0.260	-0.750	1.420
2020/01/31 06:52:22.3	91.990	0.250	-0.690	1.420
2020/01/31 06:52:22.4	91.990	0.240	-0.630	1.420
2020/01/31 06:52:22.5	91.990	0.220	-0.560	1.420
2020/01/31 06:52:22.6	91.980	0.200	-0.490	1.420
2020/01/31 06:52:22.7	91.970	0.180	-0.420	1.420
2020/01/31 06:52:22.8	91.970	0.160	-0.350	1.420
2020/01/31 06:52:22.9	91.960	0.140	-0.280	1.420
2020/01/31 06:52:23.0	91.950	0.110	-0.210	1.420
2020/01/31 06:52:23.1	91.950	0.090	-0.140	1.410
2020/01/31 06:52:23.2	91.940	0.060	-0.070	1.410
2020/01/31 06:52:23.3	91.930	0.030	0.000	1.400
2020/01/31 06:52:23.4	91.920	0.000	0.070	1.390
2020/01/31 06:52:23.5	91.910	-0.030	0.130	1.380
2020/01/31 06:52:23.6	91.900	-0.060	0.200	1.370
2020/01/31 06:52:23.7	91.890	-0.090	0.250	1.360
2020/01/31 06:52:23.8	91.880	-0.120	0.310	1.340
2020/01/31 06:52:23.9	91.870	-0.150	0.350	1.330
2020/01/31 06:52:24.0	91.860	-0.170	0.400	1.310
2020/01/31 06:52:24.1	91.850	-0.200	0.440	1.290
2020/01/31 06:52:24.2	91.850	-0.230	0.470	1.260
2020/01/31 06:52:24.3	91.840	-0.260	0.500	1.240
2020/01/31 06:52:24.4	91.830	-0.290	0.520	1.210
2020/01/31 06:52:24.5	91.810	-0.310	0.540	1.180
2020/01/31 06:52:24.6	91.800	-0.330	0.560	1.150
2020/01/31 06:52:24.7	91.790	-0.350	0.570	1.110
2020/01/31 06:52:24.8	91.780	-0.370	0.570	1.070
2020/01/31 06:52:24.9	91.770	-0.390	0.570	1.040
2020/01/31 06:52:25.0	91.760	-0.410	0.560	1.000
2020/01/31 06:52:25.1	91.750	-0.420	0.560	0.950
2020/01/31 06:52:25.2	91.740	-0.430	0.540	0.910
2020/01/31 06:52:25.3	91.730	-0.440	0.530	0.860
2020/01/31 06:52:25.4	91.720	-0.450	0.510	0.820
2020/01/31 06:52:25.5	91.720	-0.450	0.490	0.770
2020/01/31 06:52:25.6	91.710	-0.460	0.460	0.720
2020/01/31 06:52:25.7	91.710	-0.460	0.440	0.670
2020/01/31 06:52:25.8	91.700	-0.450	0.410	0.620
2020/01/31 06:52:25.9	91.700	-0.450	0.380	0.560
2020/01/31 06:52:26.0	91.700	-0.440	0.350	0.510
2020/01/31 06:52:26.1	91.700	-0.430	0.320	0.460
2020/01/31 06:52:26.2	91.700	-0.420	0.280	0.400
2020/01/31 06:52:26.3	91.700	-0.410	0.250	0.340
2020/01/31 06:52:26.4	91.710	-0.390	0.220	0.290
2020/01/31 06:52:26.5	91.710	-0.380	0.190	0.230
2020/01/31 06:52:26.6	91.720	-0.360	0.150	0.170
2020/01/31 06:52:26.7	91.730	-0.340	0.120	0.120
2020/01/31 06:52:26.8	91.740	-0.320	0.090	0.060
2020/01/31 06:52:26.9	91.750	-0.300	0.060	0.010
2020/01/31 06:52:27.0	91.760	-0.270	0.030	-0.050
2020/01/31 06:52:27.1	91.770	-0.250	-0.000	-0.100
2020/01/31 06:52:27.2	91.770	-0.230	-0.030	-0.150
2020/01/31 06:52:27.3	91.780	-0.200	-0.060	-0.200
2020/01/31 06:52:27.4	91.790	-0.170	-0.090	-0.250
2020/01/31 06:52:27.5	91.800	-0.150	-0.120	-0.300
2020/01/31 06:52:27.6	91.810	-0.120	-0.150	-0.340
2020/01/31 06:52:27.7	91.810	-0.100	-0.180	-0.380
2020/01/31 06:52:27.8	91.820	-0.070	-0.200	-0.420
2020/01/31 06:52:27.9	91.820	-0.050	-0.230	-0.450
2020/01/31 06:52:28.0	91.830	-0.020	-0.260	-0.480
2020/01/31 06:52:28.1	91.830	0.000	-0.280	-0.500
2020/01/31 06:52:28.2	91.830	0.030	-0.310	-0.530
2020/01/31 06:52:28.3	91.830	0.050	-0.330	-0.540
2020/01/31 06:52:28.4	91.820	0.070	-0.360	-0.560
2020/01/31 06:52:28.5	91.820	0.100	-0.380	-0.570
2020/01/31 06:52:28.6	91.820	0.120	-0.400	-0.580
2020/01/31 06:52:28.7	91.810	0.140	-0.430	-0.580
2020/01/31 06:52:28.8	91.810	0.160	-0.450	-0.580
2020/01/31 06:52:28.9	91.800	0.170	-0.470	-0.580
2020/01/31 06:52:29.0	91.800	0.190	-0.490	-0.570
2020/01/31 06:52:29.1	91.790	0.210	-0.510	-0.560
2020/01/31 06:52:29.2	91.770	0.220	-0.530	-0.550
2020/01/31 06:52:29.3	91.760	0.240	-0.550	-0.540
2020/01/31 06:52:29.4	91.760	0.250	-0.570	-0.520
2020/01/31 06:52:29.5	91.750	0.260	-0.580	-0.510
2020/01/31 06:52:29.6	91.750	0.270	-0.600	-0.490
2020/01/31 06:52:29.7	91.740	0.280	-0.610	-0.470
2020/01/31 06:52:29.8	91.730	0.290	-0.620	-0.450
2020/01/31 06:52:29.9	91.730	0.300	-0.630	-0.420
2020/01/31 06:52:30.0	91.720	0.310	-0.640	-0.400
2020/01/31 06:52:30.1	91.720	0.320	-0.650	-0.370
2020/01/31 06:52:30.2	91.710	0.320	-0.660	-0.340
2020/01/31 06:52:30.3	91.710	0.330	-0.660	-0.310
2020/01/31 06:52:30.4	91.700	0.340	-0.660	-0.280
2020/01/31 06:52:30.5	91.690	0.340	-0.660	-0.240
2020/01/31 06:52:30.6	91.690	0.340	-0.660	-0.200
2020/01/31 06:52:30.7	91.680	0.350	-0.650	-0.160
2020/01/31 06:52:30.8	91.670	0.350	-0.640	-0.120
2020/01/31 06:52:30.9	91.660	0.360	-0.630	-0.080
2020/01/31 06:52:31.0	91.650	0.360	-0.620	-0.040
2020/01/31 06:52:31.1	91.640	0.360	-0.610	0.010
2020/01/31 06:52:31.2	91.630	0.360	-0.590	0.050
2020/01/31 06:52:31.3	91.620	0.360	-0.580	0.100
2020/01/31 06:52:31.4	91.610	0.360	-0.550	0.140
2020/01/31 06:52:31.5	91.610	0.360	-0.530	0.190
2020/01/31 06:52:31.6	91.600	0.360	-0.500	0.240
2020/01/31 06:52:31.7	91.590	0.360	-0.480	0.280
2020/01/31 06:52:31.8	91.590	0.360	-0.450	0.330
2020/01/31 06:52:31.9	91.580	0.350	-0.420	0.380
2020/01/31 06:52:32.0	91.580	0.350	-0.390	0.430
2020/01/31 06:52:32.1	91.570	0.340	-0.350	0.480
2020/01/31 06:52:32.2	91.580	0.340	-0.310	0.530
2020/01/31 06:52:32.3	91.580	0.330	-0.280	0.580
2020/01/31 06:52:32.4	91.580	0.320	-0.250	0.630
2020/01/31 06:52:32.5	91.580	0.310	-0.210	0.680
2020/01/31 06:52:32.6	91.580	0.300	-0.180	0.730
2020/01/31 06:52:32.7	91.590	0.290	-0.140	0.780
2020/01/31 06:52:32.8	91.590	0.280	-0.110	0.830
2020/01/31 06:52:32.9	91.600	0.260	-0.080	0.880
2020/01/31 06:52:33.0	91.610	0.250	-0.050	0.930
2020/01/31 06:52:33.1	91.610	0.240	-0.020	0.980
2020/01/31 06:52:33.2	91.630	0.220	0.010	1.030
2020/01/31 06:52:33.3	91.640	0.210	0.030	1.080
2020/01/31 06:52:33.4	91.650	0.190	0.050	1.130
2020/01/31 06:52:33.5	91.670	0.170	0.070	1.180
2020/01/31 06:52:33.6	91.680	0.160	0.090	1.230
2020/01/31 06:52:33.7	91.700	0.140	0.100	1.280
2020/01/31 06:52:33.8	91.710	0.120	0.110	1.320
2020/01/31 06:52:33.9	91.730	0.110	0.120	1.370
2020/01/31 06:52:34.0	91.740	0.090	0.130	1.410
2020/01/31 06:52:34.1	91.760	0.080	0.130	1.460
2020/01/31 06:52:34.2	91.780	0.060	0.140	1.500
2020/01/31 06:52:34.3	91.790	0.050	0.130	1.540
2020/01/31 06:52:34.4	91.800	0.030	0.130	1.580
2020/01/31 06:52:34.5	91.820	0.020	0.120	1.620
2020/01/31 06:52:34.6	91.830	0.010	0.110	1.660
2020/01/31 06:52:34.7	91.830	0.000	0.100	1.690
2020/01/31 06:52:34.8	91.840	-0.010	0.090	1.730
2020/01/31 06:52:34.9	91.840	-0.020	0.080	1.760
2020/01/31 06:52:35.0	91.840	-0.030	0.060	1.790
2020/01/31 06:52:35.1	91.840	-0.030	0.050	1.820
2020/01/31 06:52:35.2	91.850	-0.040	0.030	1.840
2020/01/31 06:52:35.3	91.840	-0.040	0.010	1.870
2020/01/31 06:52:35.4	91.830	-0.050	-0.000	1.890
2020/01/31 06:52:35.5	91.820	-0.050	-0.020	1.910
2020/01/31 06:52:35.6	91.800	-0.050	-0.030	1.930
2020/01/31 06:52:35.7	91.790	-0.050	-0.050	1.950
2020/01/31 06:52:35.8	91.770	-0.050	-0.060	1.960
2020/01/31 06:52:35.9	91.750	-0.050	-0.070	1.970
2020/01/31 06:52:36.0	91.730	-0.050	-0.080	1.980
2020/01/31 06:52:36.1	91.710	-0.060	-0.090	1.990
2020/01/31 06:52:36.2	91.680	-0.060	-0.100	2.000
2020/01/31 06:52:36.3	91.660	-0.060	-0.100	2.000
2020/01/31 06:52:36.4	91.630	-0.060	-0.100	2.000
2020/01/31 06:52:36.5	91.610	-0.060	-0.100	2.000
2020/01/31 06:52:36.6	91.590	-0.070	-0.090	2.000
2020/01/31 06:52:36.7	91.560	-0.070	-0.090	2.000
2020/01/31 06:52:36.8	91.540	-0.080	-0.080	1.990
2020/01/31 06:52:36.9	91.510	-0.080	-0.070	1.980
2020/01/31 06:52:37.0	91.490	-0.090	-0.050	1.970
2020/01/31 06:52:37.1	91.470	-0.100	-0.040	1.960
2020/01/31 06:52:37.2	91.430	-0.110	-0.020	1.950
2020/01/31 06:52:37.3	91.410	-0.120	-0.000	1.930
2020/01/31 06:52:37.4	91.390	-0.130	0.020	1.910
2020/01/31 06:52:37.5	91.370	-0.150	0.040	1.890
2020/01/31 06:52:37.6	91.350	-0.160	0.060	1.870
2020/01/31 06:52:37.7	91.330	-0.180	0.070	1.850
2020/01/31 06:52:37.8	91.310	-0.190	0.090	1.820
2020/01/31 06:52:37.9	91.290	-0.210	0.110	1.790
2020/01/31 06:52:38.0	91.280	-0.230	0.130	1.760
2020/01/31 06:52:38.1	91.260	-0.250	0.140	1.720
2020/01/31 06:52:38.2	91.250	-0.260	0.160	1.680
2020/01/31 06:52:38.3	91.240	-0.280	0.170	1.630
2020/01/31 06:52:38.4	91.230	-0.300	0.180	1.590
2020/01/31 06:52:38.5	91.230	-0.320	0.180	1.530
2020/01/31 06:52:38.6	91.220	-0.330	0.190	1.480
2020/01/31 06:52:38.7	91.220	-0.350	0.190	1.420
2020/01/31 06:52:38.8	91.220	-0.360	0.180	1.350
2020/01/31 06:52:38.9	91.230	-0.380	0.180	1.280
2020/01/31 06:52:39.0	91.230	-0.390	0.170	1.210
2020/01/31 06:52:39.1	91.240	-0.400	0.160	1.130
2020/01/31 06:52:39.2	91.250	-0.410	0.140	1.050
2020/01/31 06:52:39.3	91.260	-0.410	0.130	0.960
2020/01/31 06:52:39.4	91.270	-0.420	0.110	0.880
2020/01/31 06:52:39.5	91.290	-0.420	0.090	0.790
2020/01/31 06:52:39.6	91.310	-0.420	0.060	0.690
2020/01/31 06:52:39.7	91.330	-0.420	0.030	0.600
2020/01/31 06:52:39.8	91.350	-0.420	0.000	0.510
2020/01/31 06:52:39.9	91.380	-0.410	-0.030	0.410
2020/01/31 06:52:40.0	91.400	-0.400	-0.060	0.310
2020/01/31 06:52:40.1	91.430	-0.390	-0.100	0.210
2020/01/31 06:52:40.2	91.460	-0.380	-0.130	0.110
2020/01/31 06:52:40.3	91.490	-0.370	-0.170	0.020
2020/01/31 06:52:40.4	91.520	-0.350	-0.210	-0.080
2020/01/31 06:52:40.5	91.550	-0.330	-0.250	-0.170
2020/01/31 06:52:40.6	91.580	-0.310	-0.290	-0.260
2020/01/31 06:52:40.7	91.610	-0.290	-0.330	-0.350
2020/01/31 06:52:40.8	91.640	-0.270	-0.380	-0.440
2020/01/31 06:52:40.9	91.680	-0.250	-0.420	-0.520
2020/01/31 06:52:41.0	91.710	-0.220	-0.460	-0.600
2020/01/31 06:52:41.1	91.740	-0.200	-0.500	-0.670
2020/01/31 06:52:41.2	91.770	-0.170	-0.540	-0.730
2020/01/31 06:52:41.3	91.790	-0.150	-0.570	-0.800
2020/01/31 06:52:41.4	91.820	-0.120	-0.610	-0.850
2020/01/31 06:52:41.5	91.840	-0.100	-0.640	-0.900
2020/01/31 06:52:41.6	91.860	-0.070	-0.670	-0.940
2020/01/31 06:52:41.7	91.880	-0.050	-0.700	-0.970
2020/01/31 06:52:41.8	91.900	-0.020	-0.730	-1.000
2020/01/31 06:52:41.9	91.910	0.000	-0.750	-1.020
2020/01/31 06:52:42.0	91.920	0.020	-0.770	-1.040
2020/01/31 06:52:42.1	91.930	0.040	-0.780	-1.040
2020/01/31 06:52:42.2	91.930	0.060	-0.790	-1.040
2020/01/31 06:52:42.3	91.930	0.080	-0.790	-1.030
2020/01/31 06:52:42.4	91.930	0.090	-0.790	-1.020
2020/01/31 06:52:42.5	91.920	0.110	-0.780	-0.990
2020/01/31 06:52:42.6	91.920	0.120	-0.770	-0.970
2020/01/31 06:52:42.7	91.910	0.130	-0.750	-0.930
2020/01/31 06:52:42.8	91.900	0.140	-0.730	-0.890
2020/01/31 06:52:42.9	91.880	0.140	-0.710	-0.850
2020/01/31 06:52:43.0	91.860	0.140	-0.670	-0.800
2020/01/31 06:52:43.1	91.850	0.150	-0.640	-0.750
2020/01/31 06:52:43.2	91.820	0.150	-0.590	-0.690
2020/01/31 06:52:43.3	91.800	0.140	-0.550	-0.630
2020/01/31 06:52:43.4	91.770	0.140	-0.500	-0.560
2020/01/31 06:52:43.5	91.750	0.130	-0.450	-0.500
2020/01/31 06:52:43.6	91.720	0.120	-0.390	-0.430
2020/01/31 06:52:43.7	91.690	0.120	-0.330	-0.360
2020/01/31 06:52:43.8	91.660	0.110	-0.270	-0.290
2020/01/31 06:52:43.9	91.630	0.100	-0.210	-0.220
2020/01/31 06:52:44.0	91.600	0.080	-0.140	-0.150
2020/01/31 06:52:44.1	91.570	0.070	-0.080	-0.070
2020/01/31 06:52:44.2	91.530	0.060	-0.010	-0.000
2020/01/31 06:52:44.3	91.500	0.050	0.050	0.070
2020/01/31 06:52:44.4	91.470	0.040	0.110	0.130
2020/01/31 06:52:44.5	91.440	0.020	0.170	0.200
2020/01/31 06:52:44.6	91.410	0.010	0.230	0.270
2020/01/31 06:52:44.7	91.370	0.000	0.280	0.330
2020/01/31 06:52:44.8	91.340	-0.010	0.330	0.390
2020/01/31 06:52:44.9	91.310	-0.020	0.370	0.450
2020/01/31 06:52:45.0	91.280	-0.020	0.410	0.510
2020/01/31 06:52:45.1	91.250	-0.030	0.450	0.570
2020/01/31 06:52:45.2	91.220	-0.030	0.480	0.620
2020/01/31 06:52:45.3	91.190	-0.030	0.500	0.670
2020/01/31 06:52:45.4	91.160	-0.030	0.520	0.720
2020/01/31 06:52:45.5	91.130	-0.030	0.530	0.770
2020/01/31 06:52:45.6	91.100	-0.030	0.540	0.820
2020/01/31 06:52:45.7	91.070	-0.030	0.530	0.860
2020/01/31 06:52:45.8	91.040	-0.020	0.530	0.900
2020/01/31 06:52:45.9	91.010	-0.010	0.510	0.950
2020/01/31 06:52:46.0	90.990	-0.000	0.490	0.990
2020/01/31 06:52:46.1	90.960	0.010	0.470	1.030
2020/01/31 06:52:46.2	90.930	0.020	0.430	1.070
2020/01/31 06:52:46.3	90.910	0.040	0.400	1.100
2020/01/31 06:52:46.4	90.880	0.050	0.350	1.140
2020/01/31 06:52:46.5	90.860	0.070	0.310	1.170
2020/01/31 06:52:46.6	90.840	0.080	0.250	1.210
2020/01/31 06:52:46.7	90.820	0.100	0.200	1.240
2020/01/31 06:52:46.8	90.800	0.120	0.140	1.270
2020/01/31 06:52:46.9	90.790	0.140	0.080	1.300
2020/01/31 06:52:47.0	90.770	0.160	0.010	1.330
2020/01/31 06:52:47.1	90.760	0.180	-0.050	1.360
2020/01/31 06:52:47.2	90.750	0.200	-0.120	1.380
2020/01/31 06:52:47.3	90.750	0.210	-0.190	1.400
2020/01/31 06:52:47.4	90.740	0.230	-0.260	1.420
2020/01/31 06:52:47.5	90.740	0.250	-0.330	1.440
2020/01/31 06:52:47.6	90.740	0.270	-0.390	1.460
2020/01/31 06:52:47.7	90.740	0.280	-0.450	1.470
2020/01/31 06:52:47.8	90.750	0.300	-0.510	1.480
2020/01/31 06:52:47.9	90.760	0.310	-0.570	1.490
2020/01/31 06:52:48.0	90.760	0.330	-0.630	1.500
2020/01/31 06:52:48.1	90.780	0.340	-0.680	1.500
2020/01/31 06:52:48.2	90.790	0.350	-0.730	1.500
2020/01/31 06:52:48.3	90.810	0.360	-0.770	1.500
2020/01/31 06:52:48.4	90.820	0.370	-0.800	1.490
2020/01/31 06:52:48.5	90.840	0.370	-0.830	1.490
2020/01/31 06:52:48.6	90.850	0.380	-0.850	1.470
2020/01/31 06:52:48.7	90.870	0.380	-0.870	1.460
2020/01/31 06:52:48.8	90.880	0.380	-0.880	1.440
2020/01/31 06:52:48.9	90.900	0.380	-0.890	1.430
2020/01/31 06:52:49.0	90.910	0.380	-0.890	1.410
2020/01/31 06:52:49.1	90.930	0.370	-0.880	1.380
2020/01/31 06:52:49.2	90.940	0.370	-0.870	1.360
2020/01/31 06:52:49.3	90.950	0.360	-0.850	1.330
2020/01/31 06:52:49.4	90.960	0.350	-0.830	1.300
2020/01/31 06:52:49.5	90.980	0.340	-0.800	1.280
2020/01/31 06:52:49.6	90.990	0.330	-0.770	1.250
2020/01/31 06:52:49.7	91.000	0.320	-0.730	1.220
2020/01/31 06:52:49.8	91.010	0.300	-0.690	1.190
2020/01/31 06:52:49.9	91.020	0.290	-0.640	1.160
2020/01/31 06:52:50.0	91.020	0.270	-0.590	1.130
2020/01/31 06:52:50.1	91.030	0.250	-0.540	1.100
2020/01/31 06:52:50.2	91.040	0.240	-0.480	1.070
2020/01/31 06:52:50.3	91.050	0.220	-0.430	1.040
2020/01/31 06:52:50.4	91.050	0.200	-0.370	1.010
2020/01/31 06:52:50.5	91.060	0.180	-0.320	0.980
2020/01/31 06:52:50.6	91.060	0.160	-0.260	0.950
2020/01/31 06:52:50.7	91.070	0.140	-0.200	0.930
2020/01/31 06:52:50.8	91.070	0.120	-0.140	0.900
2020/01/31 06:52:50.9	91.080	0.100	-0.090	0.880
2020/01/31 06:52:51.0	91.080	0.070	-0.030	0.860
2020/01/31 06:52:51.1	91.080	0.050	0.020	0.840
2020/01/31 06:52:51.2	91.080	0.030	0.070	0.830
2020/01/31 06:52:51.3	91.080	0.010	0.120	0.810
2020/01/31 06:52:51.4	91.080	-0.020	0.170	0.800
2020/01/31 06:52:51.5	91.080	-0.040	0.210	0.790
2020/01/31 06:52:51.6	91.080	-0.060	0.250	0.790
2020/01/31 06:52:51.7	91.080	-0.090	0.290	0.780
2020/01/31 06:52:51.8	91.070	-0.110	0.320	0.780
2020/01/31 06:52:51.9	91.070	-0.130	0.360	0.790
2020/01/31 06:52:52.0	91.060	-0.160	0.390	0.790
2020/01/31 06:52:52.1	91.060	-0.180	0.410	0.800
2020/01/31 06:52:52.2	91.050	-0.200	0.430	0.810
2020/01/31 06:52:52.3	91.040	-0.220	0.450	0.820
2020/01/31 06:52:52.4	91.040	-0.250	0.470	0.840
2020/01/31 06:52:52.5	91.030	-0.270	0.480	0.860
2020/01/31 06:52:52.6	91.020	-0.290	0.490	0.880
2020/01/31 06:52:52.7	91.000	-0.310	0.490	0.900
2020/01/31 06:52:52.8	90.990	-0.330	0.490	0.920
2020/01/31 06:52:52.9	90.980	-0.340	0.490	0.940
2020/01/31 06:52:53.0	90.970	-0.360	0.490	0.960
2020/01/31 06:52:53.1	90.950	-0.380	0.480	0.980
2020/01/31 06:52:53.2	90.940	-0.390	0.470	1.000
2020/01/31 06:52:53.3	90.930	-0.400	0.450	1.010
2020/01/31 06:52:53.4	90.910	-0.420	0.430	1.030
2020/01/31 06:52:53.5	90.900	-0.430	0.410	1.040
2020/01/31 06:52:53.6	90.880	-0.430	0.390	1.050
2020/01/31 06:52:53.7	90.870	-0.440	0.360	1.060
2020/01/31 06:52:53.8	90.860	-0.440	0.330	1.070
2020/01/31 06:52:53.9	90.840	-0.440	0.300	1.070
2020/01/31 06:52:54.0	90.830	-0.440	0.260	1.070
2020/01/31 06:52:54.1	90.820	-0.440	0.220	1.060
2020/01/31 06:52:54.2	90.810	-0.440	0.180	1.050
2020/01/31 06:52:54.3	90.800	-0.430	0.140	1.040
2020/01/31 06:52:54.4	90.790	-0.420	0.100	1.020
2020/01/31 06:52:54.5	90.780	-0.410	0.050	1.000
2020/01/31 06:52:54.6	90.770	-0.390	0.010	0.970
2020/01/31 06:52:54.7	90.770	-0.380	-0.040	0.940
2020/01/31 06:52:54.8	90.760	-0.360	-0.080	0.900
2020/01/31 06:52:54.9	90.760	-0.340	-0.130	0.870
2020/01/31 06:52:55.0	90.750	-0.320	-0.170	0.830
2020/01/31 06:52:55.1	90.750	-0.300	-0.210	0.780
2020/01/31 06:52:55.2	90.740	-0.270	-0.260	0.740
2020/01/31 06:52:55.3	90.740	-0.250	-0.300	0.690
2020/01/31 06:52:55.4	90.740	-0.230	-0.330	0.640
2020/01/31 06:52:55.5	90.740	-0.200	-0.370	0.590
2020/01/31 06:52:55.6	90.740	-0.170	-0.400	0.540
2020/01/31 06:52:55.7	90.730	-0.150	-0.430	0.500
2020/01/31 06:52:55.8	90.730	-0.120	-0.460	0.450
2020/01/31 06:52:55.9	90.730	-0.090	-0.490	0.400
2020/01/31 06:52:56.0	90.730	-0.070	-0.510	0.350
2020/01/31 06:52:56.1	90.720	-0.040	-0.530	0.310
2020/01/31 06:52:56.2	90.720	-0.020	-0.540	0.270
2020/01/31 06:52:56.3	90.720	0.000	-0.560	0.230
2020/01/31 06:52:56.4	90.710	0.030	-0.570	0.200
2020/01/31 06:52:56.5	90.700	0.050	-0.580	0.160
2020/01/31 06:52:56.6	90.690	0.070	-0.590	0.130
2020/01/31 06:52:56.7	90.680	0.090	-0.590	0.110
2020/01/31 06:52:56.8	90.670	0.100	-0.590	0.090
2020/01/31 06:52:56.9	90.650	0.120	-0.590	0.070
2020/01/31 06:52:57.0	90.640	0.130	-0.590	0.060
2020/01/31 06:52:57.1	90.620	0.140	-0.580	0.050
2020/01/31 06:52:57.2	90.600	0.150	-0.580	0.040
2020/01/31 06:52:57.3	90.580	0.160	-0.570	0.040
2020/01/31 06:52:57.4	90.570	0.160	-0.560	0.040
2020/01/31 06:52:57.5	90.550	0.170	-0.550	0.040
2020/01/31 06:52:57.6	90.530	0.170	-0.540	0.040
2020/01/31 06:52:57.7	90.510	0.170	-0.520	0.050
2020/01/31 06:52:57.8	90.500	0.170	-0.510	0.060
2020/01/31 06:52:57.9	90.480	0.170	-0.490	0.070
2020/01/31 06:52:58.0	90.460	0.170	-0.480	0.090
2020/01/31 06:52:58.1	90.440	0.170	-0.460	0.100
2020/01/31 06:52:58.2	90.430	0.160	-0.450	0.120
2020/01/31 06:52:58.3	90.410	0.160	-0.430	0.130
2020/01/31 06:52:58.4	90.400	0.150	-0.420	0.150
2020/01/31 06:52:58.5	90.390	0.140	-0.400	0.170
2020/01/31 06:52:58.6	90.380	0.140	-0.390	0.180
2020/01/31 06:52:58.7	90.380	0.130	-0.380	0.200
2020/01/31 06:52:58.8	90.370	0.120	-0.360	0.210
2020/01/31 06:52:58.9	90.370	0.110	-0.350	0.220
2020/01/31 06:52:59.0	90.370	0.100	-0.340	0.230
2020/01/31 06:52:59.1	90.370	0.100	-0.330	0.240
2020/01/31 06:52:59.2	90.370	0.090	-0.310	0.250
2020/01/31 06:52:59.3	90.380	0.080	-0.300	0.260
2020/01/31 06:52:59.4	90.380	0.070	-0.290	0.270
2020/01/31 06:52:59.5	90.390	0.060	-0.270	0.270
2020/01/31 06:52:59.6	90.400	0.050	-0.260	0.270
2020/01/31 06:52:59.7	90.410	0.040	-0.240	0.280
2020/01/31 06:52:59.8	90.420	0.030	-0.230	0.280
2020/01/31 06:52:59.9	90.430	0.020	-0.210	0.280
2020/01/31 06:53:00.0	90.450	0.010	-0.190	0.270
2020/01/31 06:53:00.1	90.460	-0.000	-0.180	0.270
2020/01/31 06:53:00.2	90.470	-0.020	-0.160	0.270
2020/01/31 06:53:00.3	90.480	-0.030	-0.130	0.270
2020/01/31 06:53:00.4	90.500	-0.040	-0.110	0.260
2020/01/31 06:53:00.5	90.510	-0.050	-0.090	0.260
2020/01/31 06:53:00.6	90.520	-0.070	-0.060	0.260
2020/01/31 06:53:00.7	90.530	-0.080	-0.040	0.250
2020/01/31 06:53:00.8	90.540	-0.090	-0.010	0.250
2020/01/31 06:53:00.9	90.550	-0.110	0.010	0.250
2020/01/31 06:53:01.0	90.560	-0.120	0.040	0.250
2020/01/31 06:53:01.1	90.570	-0.140	0.070	0.250
2020/01/31 06:53:01.2	90.580	-0.150	0.100	0.250
2020/01/31 06:53:01.3	90.590	-0.170	0.120	0.250
2020/01/31 06:53:01.4	90.590	-0.180	0.150	0.260
2020/01/31 06:53:01.5	90.600	-0.190	0.170	0.260
2020/01/31 06:53:01.6	90.600	-0.200	0.200	0.270
2020/01/31 06:53:01.7	90.600	-0.220	0.220	0.280
2020/01/31 06:53:01.8	90.600	-0.230	0.240	0.290
2020/01/31 06:53:01.9	90.590	-0.240	0.250	0.300
2020/01/31 06:53:02.0	90.590	-0.240	0.270	0.310
2020/01/31 06:53:02.1	90.590	-0.250	0.280	0.330
2020/01/31 06:53:02.2	90.570	-0.250	0.290	0.340
2020/01/31 06:53:02.3	90.570	-0.260	0.300	0.360
2020/01/31 06:53:02.4	90.560	-0.260	0.300	0.380
2020/01/31 06:53:02.5	90.550	-0.250	0.300	0.400
2020/01/31 06:53:02.6	90.540	-0.250	0.300	0.420
2020/01/31 06:53:02.7	90.540	-0.240	0.290	0.450
2020/01/31 06:53:02.8	90.530	-0.230	0.280	0.470
2020/01/31 06:53:02.9	90.520	-0.220	0.260	0.490
2020/01/31 06:53:03.0	90.520	-0.210	0.250	0.510
2020/01/31 06:53:03.1	90.510	-0.190	0.230	0.530
2020/01/31 06:53:03.2	90.510	-0.180	0.200	0.560
2020/01/31 06:53:03.3	90.500	-0.150	0.170	0.580
2020/01/31 06:53:03.4	90.500	-0.130	0.140	0.600
2020/01/31 06:53:03.5	90.490	-0.110	0.110	0.610
2020/01/31 06:53:03.6	90.490	-0.080	0.080	0.630
2020/01/31 06:53:03.7	90.490	-0.050	0.040	0.650
2020/01/31 06:53:03.8	90.490	-0.020	0.000	0.670
2020/01/31 06:53:03.9	90.490	0.010	-0.040	0.680
2020/01/31 06:53:04.0	90.490	0.050	-0.080	0.700
2020/01/31 06:53:04.1	90.490	0.080	-0.120	0.710
2020/01/31 06:53:04.2	90.490	0.110	-0.160	0.730
2020/01/31 06:53:04.3	90.490	0.150	-0.210	0.740
2020/01/31 06:53:04.4	90.490	0.180	-0.250	0.760
2020/01/31 06:53:04.5	90.490	0.220	-0.290	0.770
2020/01/31 06:53:04.6	90.500	0.250	-0.330	0.790
2020/01/31 06:53:04.7	90.490	0.290	-0.360	0.800
2020/01/31 06:53:04.8	90.490	0.320	-0.400	0.820
2020/01/31 06:53:04.9	90.490	0.350	-0.430	0.830
2020/01/31 06:53:05.0	90.490	0.380	-0.460	0.850
2020/01/31 06:53:05.1	90.490	0.410	-0.490	0.860
2020/01/31 06:53:05.2	90.480	0.430	-0.520	0.870
2020/01/31 06:53:05.3	90.470	0.460	-0.540	0.890
2020/01/31 06:53:05.4	90.470	0.480	-0.570	0.900
2020/01/31 06:53:05.5	90.460	0.500	-0.580	0.920
2020/01/31 06:53:05.6	90.450	0.510	-0.600	0.930
2020/01/31 06:53:05.7	90.440	0.530	-0.610	0.940
2020/01/31 06:53:05.8	90.440	0.540	-0.610	0.950
2020/01/31 06:53:05.9	90.430	0.540	-0.620	0.960
2020/01/31 06:53:06.0	90.420	0.550	-0.620	0.960
2020/01/31 06:53:06.1	90.410	0.550	-0.610	0.970
2020/01/31 06:53:06.2	90.400	0.540	-0.610	0.970
2020/01/31 06:53:06.3	90.390	0.540	-0.600	0.970
2020/01/31 06:53:06.4	90.380	0.530	-0.580	0.970
2020/01/31 06:53:06.5	90.370	0.510	-0.570	0.960
2020/01/31 06:53:06.6	90.370	0.500	-0.550	0.960
2020/01/31 06:53:06.7	90.360	0.480	-0.530	0.950
2020/01/31 06:53:06.8	90.350	0.460	-0.500	0.940
2020/01/31 06:53:06.9	90.350	0.440	-0.470	0.930
2020/01/31 06:53:07.0	90.340	0.410	-0.440	0.920
2020/01/31 06:53:07.1	90.340	0.380	-0.410	0.900
2020/01/31 06:53:07.2	90.330	0.360	-0.380	0.880
2020/01/31 06:53:07.3	90.330	0.330	-0.340	0.870
2020/01/31 06:53:07.4	90.320	0.290	-0.310	0.850
2020/01/31 06:53:07.5	90.320	0.260	-0.270	0.830
2020/01/31 06:53:07.6	90.320	0.230	-0.240	0.810
2020/01/31 06:53:07.7	90.320	0.190	-0.200	0.800
2020/01/31 06:53:07.8	90.310	0.160	-0.160	0.780
2020/01/31 06:53:07.9	90.310	0.130	-0.130	0.760
2020/01/31 06:53:08.0	90.310	0.090	-0.090	0.740
2020/01/31 06:53:08.1	90.310	0.060	-0.060	0.730
2020/01/31 06:53:08.2	90.310	0.030	-0.020	0.710
2020/01/31 06:53:08.3	90.310	-0.010	0.010	0.700
2020/01/31 06:53:08.4	90.300	-0.040	0.040	0.680
2020/01/31 06:53:08.5	90.300	-0.070	0.070	0.670
2020/01/31 06:53:08.6	90.300	-0.090	0.090	0.660
2020/01/31 06:53:08.7	90.300	-0.120	0.110	0.650
2020/01/31 06:53:08.8	90.290	-0.140	0.130	0.640
2020/01/31 06:53:08.9	90.290	-0.170	0.150	0.630
2020/01/31 06:53:09.0	90.290	-0.190	0.160	0.620
2020/01/31 06:53:09.1	90.280	-0.200	0.180	0.610
2020/01/31 06:53:09.2	90.280	-0.220	0.180	0.600
2020/01/31 06:53:09.3	90.280	-0.240	0.190	0.590
2020/01/31 06:53:09.4	90.280	-0.250	0.190	0.580
2020/01/31 06:53:09.5	90.280	-0.260	0.190	0.570
2020/01/31 06:53:09.6	90.280	-0.270	0.180	0.560
2020/01/31 06:53:09.7	90.280	-0.280	0.180	0.550
2020/01/31 06:53:09.8	90.290	-0.280	0.170	0.540
2020/01/31 06:53:09.9	90.290	-0.290	0.160	0.520
2020/01/31 06:53:10.0	90.300	-0.290	0.140	0.510
2020/01/31 06:53:10.1	90.310	-0.290	0.130	0.490
2020/01/31 06:53:10.2	90.320	-0.290	0.110	0.480
2020/01/31 06:53:10.3	90.330	-0.290	0.090	0.460
2020/01/31 06:53:10.4	90.340	-0.290	0.070	0.440
2020/01/31 06:53:10.5	90.360	-0.280	0.050	0.430
2020/01/31 06:53:10.6	90.370	-0.280	0.030	0.410
2020/01/31 06:53:10.7	90.390	-0.280	0.000	0.390
2020/01/31 06:53:10.8	90.410	-0.270	-0.020	0.370
2020/01/31 06:53:10.9	90.430	-0.270	-0.040	0.350
2020/01/31 06:53:11.0	90.450	-0.270	-0.060	0.320
2020/01/31 06:53:11.1	90.480	-0.260	-0.090	0.300
2020/01/31 06:53:11.2	90.510	-0.260	-0.110	0.280
2020/01/31 06:53:11.3	90.530	-0.250	-0.130	0.260
2020/01/31 06:53:11.4	90.560	-0.250	-0.150	0.250
2020/01/31 06:53:11.5	90.580	-0.240	-0.160	0.230
2020/01/31 06:53:11.6	90.610	-0.240	-0.180	0.220
2020/01/31 06:53:11.7	90.630	-0.230	-0.200	0.210
2020/01/31 06:53:11.8	90.650	-0.230	-0.210	0.200
2020/01/31 06:53:11.9	90.680	-0.220	-0.220	0.200
2020/01/31 06:53:12.0	90.700	-0.220	-0.230	0.200
2020/01/31 06:53:12.1	90.710	-0.220	-0.240	0.200
2020/01/31 06:53:12.2	90.730	-0.210	-0.240	0.210
2020/01/31 06:53:12.3	90.740	-0.210	-0.250	0.220
2020/01/31 06:53:12.4	90.760	-0.200	-0.250	0.230
2020/01/31 06:53:12.5	90.770	-0.200	-0.250	0.250
2020/01/31 06:53:12.6	90.770	-0.200	-0.250	0.270
2020/01/31 06:53:12.7	90.780	-0.190	-0.240	0.300
2020/01/31 06:53:12.8	90.780	-0.190	-0.240	0.330
2020/01/31 06:53:12.9	90.780	-0.190	-0.230	0.360
2020/01/31 06:53:13.0	90.780	-0.180	-0.230	0.400
2020/01/31 06:53:13.1	90.770	-0.180	-0.220	0.440
2020/01/31 06:53:13.2	90.760	-0.170	-0.210	0.480
2020/01/31 06:53:13.3	90.750	-0.170	-0.200	0.530
2020/01/31 06:53:13.4	90.740	-0.160	-0.190	0.570
2020/01/31 06:53:13.5	90.720	-0.160	-0.180	0.620
2020/01/31 06:53:13.6	90.710	-0.150	-0.170	0.670
2020/01/31 06:53:13.7	90.690	-0.150	-0.160	0.720
2020/01/31 06:53:13.8	90.670	-0.140	-0.160	0.770
2020/01/31 06:53:13.9	90.650	-0.140	-0.150	0.820
2020/01/31 06:53:14.0	90.630	-0.130	-0.140	0.870
2020/01/31 06:53:14.1	90.600	-0.120	-0.130	0.920
2020/01/31 06:53:14.2	90.580	-0.120	-0.130	0.970
2020/01/31 06:53:14.3	90.550	-0.110	-0.120	1.020
2020/01/31 06:53:14.4	90.530	-0.100	-0.120	1.060
2020/01/31 06:53:14.5	90.500	-0.100	-0.120	1.100
2020/01/31 06:53:14.6	90.480	-0.090	-0.120	1.140
2020/01/31 06:53:14.7	90.460	-0.080	-0.110	1.170
2020/01/31 06:53:14.8	90.430	-0.070	-0.110	1.200
2020/01/31 06:53:14.9	90.410	-0.070	-0.110	1.220
2020/01/31 06:53:15.0	90.390	-0.060	-0.120	1.240
2020/01/31 06:53:15.1	90.360	-0.050	-0.120	1.260
2020/01/31 06:53:15.2	90.340	-0.040	-0.120	1.270
2020/01/31 06:53:15.3	90.320	-0.040	-0.120	1.280
2020/01/31 06:53:15.4	90.300	-0.030	-0.130	1.280
2020/01/31 06:53:15.5	90.280	-0.020	-0.130	1.270
2020/01/31 06:53:15.6	90.260	-0.010	-0.140	1.270
2020/01/31 06:53:15.7	90.240	-0.000	-0.150	1.260
2020/01/31 06:53:15.8	90.230	0.010	-0.150	1.240
2020/01/31 06:53:15.9	90.210	0.010	-0.160	1.220
2020/01/31 06:53:16.0	90.200	0.020	-0.170	1.200
2020/01/31 06:53:16.1	90.190	0.030	-0.180	1.180
2020/01/31 06:53:16.2	90.170	0.040	-0.180	1.150
2020/01/31 06:53:16.3	90.160	0.050	-0.190	1.120
2020/01/31 06:53:16.4	90.150	0.060	-0.200	1.090
2020/01/31 06:53:16.5	90.140	0.070	-0.210	1.050
2020/01/31 06:53:16.6	90.130	0.080	-0.210	1.020
2020/01/31 06:53:16.7	90.130	0.090	-0.220	0.980
2020/01/31 06:53:16.8	90.120	0.100	-0.220	0.950
2020/01/31 06:53:16.9	90.120	0.110	-0.230	0.910
2020/01/31 06:53:17.0	90.120	0.120	-0.230	0.870
2020/01/31 06:53:17.1	90.110	0.130	-0.240	0.830
2020/01/31 06:53:17.2	90.110	0.140	-0.250	0.790
2020/01/31 06:53:17.3	90.110	0.160	-0.250	0.750
2020/01/31 06:53:17.4	90.120	0.170	-0.250	0.710
2020/01/31 06:53:17.5	90.120	0.180	-0.250	0.670
2020/01/31 06:53:17.6	90.120	0.190	-0.260	0.630
2020/01/31 06:53:17.7	90.130	0.200	-0.260	0.590
2020/01/31 06:53:17.8	90.130	0.210	-0.260	0.550
2020/01/31 06:53:17.9	90.130	0.220	-0.270	0.510
2020/01/31 06:53:18.0	90.140	0.220	-0.270	0.470
2020/01/31 06:53:18.1	90.140	0.230	-0.270	0.430
2020/01/31 06:53:18.2	90.150	0.240	-0.270	0.400
2020/01/31 06:53:18.3	90.160	0.250	-0.280	0.360
2020/01/31 06:53:18.4	90.160	0.260	-0.280	0.330
2020/01/31 06:53:18.5	90.160	0.260	-0.290	0.290
2020/01/31 06:53:18.6	90.170	0.270	-0.290	0.260
2020/01/31 06:53:18.7	90.170	0.280	-0.300	0.230
2020/01/31 06:53:18.8	90.170	0.280	-0.310	0.200
2020/01/31 06:53:18.9	90.180	0.290	-0.310	0.170
2020/01/31 06:53:19.0	90.180	0.290	-0.320	0.150
2020/01/31 06:53:19.1	90.180	0.300	-0.320	0.120
2020/01/31 06:53:19.2	90.170	0.300	-0.330	0.100
2020/01/31 06:53:19.3	90.170	0.310	-0.330	0.080
2020/01/31 06:53:19.4	90.170	0.310	-0.340	0.060
2020/01/31 06:53:19.5	90.180	0.310	-0.340	0.050
2020/01/31 06:53:19.6	90.170	0.310	-0.340	0.030
2020/01/31 06:53:19.7	90.170	0.310	-0.340	0.020
2020/01/31 06:53:19.8	90.170	0.310	-0.340	0.010
2020/01/31 06:53:19.9	90.170	0.310	-0.340	0.010
2020/01/31 06:53:20.0	90.170	0.310	-0.340	0.010
2020/01/31 06:53:20.1	90.170	0.300	-0.330	0.010
2020/01/31 06:53:20.2	90.170	0.300	-0.330	0.010
2020/01/31 06:53:20.3	90.170	0.300	-0.320	0.020
2020/01/31 06:53:20.4	90.160	0.290	-0.310	0.030
2020/01/31 06:53:20.5	90.160	0.290	-0.290	0.040
2020/01/31 06:53:20.6	90.150	0.280	-0.280	0.050
2020/01/31 06:53:20.7	90.150	0.280	-0.270	0.070
2020/01/31 06:53:20.8	90.140	0.270	-0.250	0.090
2020/01/31 06:53:20.9	90.130	0.260	-0.230	0.110
2020/01/31 06:53:21.0	90.130	0.250	-0.210	0.140
2020/01/31 06:53:21.1	90.120	0.250	-0.190	0.170
2020/01/31 06:53:21.2	90.110	0.240	-0.170	0.200
2020/01/31 06:53:21.3	90.100	0.230	-0.150	0.230
2020/01/31 06:53:21.4	90.090	0.220	-0.130	0.260
2020/01/31 06:53:21.5	90.070	0.200	-0.110	0.290
2020/01/31 06:53:21.6	90.060	0.190	-0.090	0.330
2020/01/31 06:53:21.7	90.050	0.180	-0.070	0.370
2020/01/31 06:53:21.8	90.030	0.160	-0.050	0.400
2020/01/31 06:53:21.9	90.020	0.150	-0.030	0.440
2020/01/31 06:53:22.0	90.000	0.130	-0.020	0.480
2020/01/31 06:53:22.1	89.990	0.120	-0.000	0.520
2020/01/31 06:53:22.2	89.980	0.100	0.020	0.560
2020/01/31 06:53:22.3	89.970	0.080	0.030	0.600
2020/01/31 06:53:22.4	89.950	0.060	0.040	0.640
2020/01/31 06:53:22.5	89.940	0.050	0.050	0.680
2020/01/31 06:53:22.6	89.920	0.030	0.060	0.720
2020/01/31 06:53:22.7	89.910	0.010	0.070	0.750
2020/01/31 06:53:22.8	89.890	-0.010	0.080	0.790
2020/01/31 06:53:22.9	89.880	-0.030	0.080	0.820
2020/01/31 06:53:23.0	89.870	-0.050	0.090	0.850
2020/01/31 06:53:23.1	89.860	-0.080	0.090	0.880
2020/01/31 06:53:23.2	89.850	-0.100	0.090	0.910
2020/01/31 06:53:23.3	89.840	-0.120	0.090	0.930
2020/01/31 06:53:23.4	89.840	-0.140	0.090	0.950
2020/01/31 06:53:23.5	89.830	-0.160	0.100	0.970
2020/01/31 06:53:23.6	89.830	-0.180	0.100	0.990
2020/01/31 06:53:23.7	89.830	-0.200	0.100	1.000
2020/01/31 06:53:23.8	89.840	-0.210	0.090	1.020
2020/01/31 06:53:23.9	89.840	-0.230	0.090	1.030
2020/01/31 06:53:24.0	89.840	-0.250	0.090	1.030
2020/01/31 06:53:24.1	89.850	-0.270	0.090	1.040
2020/01/31 06:53:24.2	89.870	-0.280	0.090	1.040
2020/01/31 06:53:24.3	89.880	-0.300	0.090	1.040
2020/01/31 06:53:24.4	89.890	-0.310	0.090	1.030
2020/01/31 06:53:24.5	89.900	-0.320	0.090	1.030
2020/01/31 06:53:24.6	89.910	-0.330	0.090	1.020
2020/01/31 06:53:24.7	89.930	-0.340	0.090	1.010
2020/01/31 06:53:24.8	89.940	-0.350	0.080	0.990
2020/01/31 06:53:24.9	89.960	-0.350	0.080	0.980
2020/01/31 06:53:25.0	89.970	-0.360	0.070	0.960
2020/01/31 06:53:25.1	89.990	-0.360	0.070	0.940
2020/01/31 06:53:25.2	90.000	-0.360	0.060	0.920
2020/01/31 06:53:25.3	90.020	-0.360	0.050	0.900
2020/01/31 06:53:25.4	90.030	-0.350	0.040	0.880
2020/01/31 06:53:25.5	90.050	-0.350	0.030	0.860
2020/01/31 06:53:25.6	90.060	-0.340	0.020	0.840
2020/01/31 06:53:25.7	90.070	-0.330	0.010	0.810
2020/01/31 06:53:25.8	90.080	-0.320	-0.000	0.790
2020/01/31 06:53:25.9	90.090	-0.310	-0.020	0.770
2020/01/31 06:53:26.0	90.100	-0.300	-0.030	0.740
2020/01/31 06:53:26.1	90.100	-0.290	-0.050	0.720
2020/01/31 06:53:26.2	90.110	-0.280	-0.060	0.700
2020/01/31 06:53:26.3	90.110	-0.260	-0.080	0.680
2020/01/31 06:53:26.4	90.120	-0.240	-0.100	0.660
2020/01/31 06:53:26.5	90.110	-0.230	-0.120	0.650
2020/01/31 06:53:26.6	90.110	-0.210	-0.140	0.630
2020/01/31 06:53:26.7	90.110	-0.200	-0.150	0.620
2020/01/31 06:53:26.8	90.100	-0.180	-0.170	0.610
2020/01/31 06:53:26.9	90.090	-0.160	-0.190	0.600
2020/01/31 06:53:27.0	90.080	-0.150	-0.210	0.590
2020/01/31 06:53:27.1	90.070	-0.130	-0.230	0.590
2020/01/31 06:53:27.2	90.060	-0.110	-0.250	0.580
2020/01/31 06:53:27.3	90.050	-0.100	-0.270	0.580
2020/01/31 06:53:27.4	90.030	-0.080	-0.290	0.590
2020/01/31 06:53:27.5	90.010	-0.070	-0.300	0.590
2020/01/31 06:53:27.6	89.990	-0.050	-0.320	0.600
2020/01/31 06:53:27.7	89.970	-0.040	-0.340	0.600
2020/01/31 06:53:27.8	89.940	-0.020	-0.360	0.610
2020/01/31 06:53:27.9	89.920	-0.010	-0.370	0.620
2020/01/31 06:53:28.0	89.900	0.000	-0.390	0.630
2020/01/31 06:53:28.1	89.870	0.010	-0.410	0.640
2020/01/31 06:53:28.2	89.850	0.020	-0.420	0.650
2020/01/31 06:53:28.3	89.830	0.030	-0.440	0.670
2020/01/31 06:53:28.4	89.810	0.040	-0.460	0.680
2020/01/31 06:53:28.5	89.790	0.050	-0.470	0.690
2020/01/31 06:53:28.6	89.770	0.060	-0.490	0.700
2020/01/31 06:53:28.7	89.750	0.070	-0.500	0.710
2020/01/31 06:53:28.8	89.740	0.080	-0.520	0.720
2020/01/31 06:53:28.9	89.720	0.090	-0.540	0.730
2020/01/31 06:53:29.0	89.710	0.090	-0.550	0.730
2020/01/31 06:53:29.1	89.700	0.100	-0.560	0.740
2020/01/31 06:53:29.2	89.690	0.110	-0.580	0.740
2020/01/31 06:53:29.3	89.680	0.110	-0.590	0.750
2020/01/31 06:53:29.4	89.680	0.120	-0.600	0.750
2020/01/31 06:53:29.5	89.670	0.120	-0.610	0.750
2020/01/31 06:53:29.6	89.670	0.130	-0.620	0.750
2020/01/31 06:53:29.7	89.670	0.130	-0.630	0.740
2020/01/31 06:53:29.8	89.670	0.130	-0.640	0.740
2020/01/31 06:53:29.9	89.670	0.130	-0.640	0.730
2020/01/31 06:53:30.0	89.670	0.130	-0.640	0.730
2020/01/31 06:53:30.1	89.680	0.130	-0.640	0.720
2020/01/31 06:53:30.2	89.680	0.130	-0.630	0.710
2020/01/31 06:53:30.3	89.690	0.130	-0.630	0.700
2020/01/31 06:53:30.4	89.690	0.130	-0.620	0.690
2020/01/31 06:53:30.5	89.700	0.130	-0.600	0.670
2020/01/31 06:53:30.6	89.700	0.120	-0.590	0.660
2020/01/31 06:53:30.7	89.710	0.120	-0.570	0.640
2020/01/31 06:53:30.8	89.720	0.110	-0.550	0.630
2020/01/31 06:53:30.9	89.720	0.100	-0.520	0.610
2020/01/31 06:53:31.0	89.730	0.090	-0.490	0.590
2020/01/31 06:53:31.1	89.730	0.080	-0.460	0.570
2020/01/31 06:53:31.2	89.740	0.070	-0.430	0.550
2020/01/31 06:53:31.3	89.740	0.060	-0.390	0.530
2020/01/31 06:53:31.4	89.750	0.050	-0.340	0.500
2020/01/31 06:53:31.5	89.760	0.030	-0.300	0.480
2020/01/31 06:53:31.6	89.760	0.020	-0.250	0.450
2020/01/31 06:53:31.7	89.770	0.000	-0.200	0.430
2020/01/31 06:53:31.8	89.780	-0.010	-0.140	0.400
2020/01/31 06:53:31.9	89.790	-0.030	-0.090	0.380
2020/01/31 06:53:32.0	89.800	-0.050	-0.030	0.350
2020/01/31 06:53:32.1	89.810	-0.070	0.030	0.320
2020/01/31 06:53:32.2	89.810	-0.090	0.100	0.300
2020/01/31 06:53:32.3	89.820	-0.100	0.160	0.270
2020/01/31 06:53:32.4	89.830	-0.120	0.220	0.250
2020/01/31 06:53:32.5	89.840	-0.140	0.280	0.220
2020/01/31 06:53:32.6	89.850	-0.160	0.350	0.200
2020/01/31 06:53:32.7	89.860	-0.180	0.410	0.170
2020/01/31 06:53:32.8	89.870	-0.200	0.460	0.150
2020/01/31 06:53:32.9	89.870	-0.210	0.520	0.130
2020/01/31 06:53:33.0	89.880	-0.230	0.570	0.110
2020/01/31 06:53:33.1	89.890	-0.240	0.620	0.090
2020/01/31 06:53:33.2	89.900	-0.260	0.670	0.080
2020/01/31 06:53:33.3	89.900	-0.270	0.710	0.060
2020/01/31 06:53:33.4	89.910	-0.280	0.740	0.050
2020/01/31 06:53:33.5	89.910	-0.290	0.780	0.030
2020/01/31 06:53:33.6	89.920	-0.300	0.800	0.020
2020/01/31 06:53:33.7	89.920	-0.300	0.820	0.010
2020/01/31 06:53:33.8	89.920	-0.300	0.830	0.000
2020/01/31 06:53:33.9	89.920	-0.300	0.830	-0.000
2020/01/31 06:53:34.0	89.930	-0.300	0.830	-0.010
2020/01/31 06:53:34.1	89.930	-0.300	0.820	-0.020
2020/01/31 06:53:34.2	89.930	-0.290	0.800	-0.020
2020/01/31 06:53:34.3	89.930	-0.280	0.780	-0.030
2020/01/31 06:53:34.4	89.930	-0.270	0.750	-0.030
2020/01/31 06:53:34.5	89.930	-0.260	0.710	-0.040
2020/01/31 06:53:34.6	89.930	-0.250	0.660	-0.040
2020/01/31 06:53:34.7	89.930	-0.230	0.610	-0.050
2020/01/31 06:53:34.8	89.930	-0.210	0.560	-0.050
2020/01/31 06:53:34.9	89.930	-0.190	0.490	-0.060
2020/01/31 06:53:35.0	89.930	-0.170	0.420	-0.060
2020/01/31 06:53:35.1	89.930	-0.140	0.350	-0.070
2020/01/31 06:53:35.2	89.940	-0.120	0.270	-0.070
2020/01/31 06:53:35.3	89.950	-0.090	0.190	-0.070
2020/01/31 06:53:35.4	89.950	-0.060	0.110	-0.080
2020/01/31 06:53:35.5	89.950	-0.040	0.020	-0.080
2020/01/31 06:53:35.6	89.960	-0.000	-0.070	-0.080
2020/01/31 06:53:35.7	89.960	0.030	-0.160	-0.090
2020/01/31 06:53:35.8	89.970	0.060	-0.250	-0.090
2020/01/31 06:53:35.9	89.980	0.090	-0.340	-0.090
2020/01/31 06:53:36.0	89.990	0.120	-0.430	-0.090
2020/01/31 06:53:36.1	89.990	0.150	-0.520	-0.080
2020/01/31 06:53:36.2	90.000	0.190	-0.610	-0.080
2020/01/31 06:53:36.3	90.010	0.220	-0.700	-0.070
2020/01/31 06:53:36.4	90.020	0.250	-0.780	-0.060
2020/01/31 06:53:36.5	90.030	0.280	-0.860	-0.050
2020/01/31 06:53:36.6	90.040	0.310	-0.940	-0.040
2020/01/31 06:53:36.7	90.050	0.340	-1.010	-0.030
2020/01/31 06:53:36.8	90.070	0.370	-1.070	-0.010
2020/01/31 06:53:36.9	90.080	0.390	-1.130	0.010
2020/01/31 06:53:37.0	90.090	0.420	-1.190	0.030
2020/01/31 06:53:37.1	90.100	0.440	-1.230	0.050
2020/01/31 06:53:37.2	90.110	0.460	-1.270	0.080
2020/01/31 06:53:37.3	90.120	0.480	-1.300	0.110
2020/01/31 06:53:37.4	90.130	0.500	-1.330	0.150
2020/01/31 06:53:37.5	90.140	0.510	-1.340	0.190
2020/01/31 06:53:37.6	90.140	0.520	-1.350	0.230
2020/01/31 06:53:37.7	90.140	0.530	-1.350	0.270
2020/01/31 06:53:37.8	90.140	0.540	-1.340	0.320
2020/01/31 06:53:37.9	90.140	0.540	-1.330	0.360
2020/01/31 06:53:38.0	90.140	0.540	-1.300	0.410
2020/01/31 06:53:38.1	90.130	0.540	-1.270	0.470
2020/01/31 06:53:38.2	90.130	0.530	-1.230	0.520
2020/01/31 06:53:38.3	90.120	0.520	-1.180	0.570
2020/01/31 06:53:38.4	90.110	0.510	-1.130	0.630
2020/01/31 06:53:38.5	90.100	0.490	-1.060	0.680
2020/01/31 06:53:38.6	90.090	0.480	-0.990	0.740
2020/01/31 06:53:38.7	90.080	0.450	-0.920	0.790
2020/01/31 06:53:38.8	90.070	0.430	-0.840	0.850
2020/01/31 06:53:38.9	90.060	0.400	-0.750	0.900
2020/01/31 06:53:39.0	90.050	0.370	-0.660	0.950
2020/01/31 06:53:39.1	90.030	0.340	-0.570	1.000
2020/01/31 06:53:39.2	90.020	0.310	-0.470	1.050
2020/01/31 06:53:39.3	90.010	0.270	-0.370	1.100
2020/01/31 06:53:39.4	90.000	0.240	-0.280	1.140
2020/01/31 06:53:39.5	89.990	0.200	-0.180	1.190
2020/01/31 06:53:39.6	89.980	0.160	-0.080	1.230
2020/01/31 06:53:39.7	89.960	0.120	0.010	1.270
2020/01/31 06:53:39.8	89.950	0.080	0.110	1.300
2020/01/31 06:53:39.9	89.940	0.040	0.200	1.330
2020/01/31 06:53:40.0	89.930	-0.000	0.280	1.360
2020/01/31 06:53:40.1	89.920	-0.050	0.360	1.390
2020/01/31 06:53:40.2	89.920	-0.090	0.440	1.410
2020/01/31 06:53:40.3	89.910	-0.130	0.510	1.440
2020/01/31 06:53:40.4	89.900	-0.160	0.580	1.460
2020/01/31 06:53:40.5	89.890	-0.200	0.640	1.480
2020/01/31 06:53:40.6	89.890	-0.240	0.690	1.490
2020/01/31 06:53:40.7	89.880	-0.270	0.730	1.510
2020/01/31 06:53:40.8	89.870	-0.300	0.770	1.520
2020/01/31 06:53:40.9	89.870	-0.330	0.800	1.530
2020/01/31 06:53:41.0	89.860	-0.360	0.820	1.540
2020/01/31 06:53:41.1	89.860	-0.380	0.840	1.550
2020/01/31 06:53:41.2	89.860	-0.400	0.850	1.560
2020/01/31 06:53:41.3	89.860	-0.420	0.850	1.570
2020/01/31 06:53:41.4	89.860	-0.430	0.840	1.570
2020/01/31 06:53:41.5	89.860	-0.440	0.830	1.570
2020/01/31 06:53:41.6	89.850	-0.450	0.810	1.570
2020/01/31 06:53:41.7	89.850	-0.460	0.780	1.570
2020/01/31 06:53:41.8	89.860	-0.460	0.740	1.570
2020/01/31 06:53:41.9	89.860	-0.460	0.710	1.560
2020/01/31 06:53:42.0	89.860	-0.460	0.660	1.550
2020/01/31 06:53:42.1	89.860	-0.450	0.610	1.540
2020/01/31 06:53:42.2	89.870	-0.440	0.560	1.530
2020/01/31 06:53:42.3	89.870	-0.430	0.500	1.520
2020/01/31 06:53:42.4	89.880	-0.420	0.440	1.500
2020/01/31 06:53:42.5	89.890	-0.400	0.370	1.490
2020/01/31 06:53:42.6	89.900	-0.380	0.310	1.470
2020/01/31 06:53:42.7	89.910	-0.370	0.240	1.450
2020/01/31 06:53:42.8	89.920	-0.350	0.170	1.430
2020/01/31 06:53:42.9	89.930	-0.330	0.100	1.400
2020/01/31 06:53:43.0	89.950	-0.300	0.030	1.380
2020/01/31 06:53:43.1	89.960	-0.280	-0.040	1.350
2020/01/31 06:53:43.2	89.980	-0.260	-0.110	1.320
2020/01/31 06:53:43.3	89.990	-0.230	-0.170	1.290
2020/01/31 06:53:43.4	90.010	-0.210	-0.240	1.260
2020/01/31 06:53:43.5	90.030	-0.190	-0.290	1.230
2020/01/31 06:53:43.6	90.050	-0.170	-0.350	1.200
2020/01/31 06:53:43.7	90.070	-0.140	-0.400	1.170
2020/01/31 06:53:43.8	90.080	-0.120	-0.450	1.130
2020/01/31 06:53:43.9	90.100	-0.100	-0.490	1.100
2020/01/31 06:53:44.0	90.120	-0.080	-0.530	1.060
2020/01/31 06:53:44.1	90.140	-0.070	-0.560	1.020
2020/01/31 06:53:44.2	90.170	-0.050	-0.580	0.980
2020/01/31 06:53:44.3	90.180	-0.040	-0.600	0.940
2020/01/31 06:53:44.4	90.200	-0.020	-0.620	0.900
2020/01/31 06:53:44.5	90.220	-0.010	-0.620	0.860
2020/01/31 06:53:44.6	90.230	-0.000	-0.630	0.830
2020/01/31 06:53:44.7	90.250	0.000	-0.620	0.790
2020/01/31 06:53:44.8	90.260	0.010	-0.610	0.750
2020/01/31 06:53:44.9	90.270	0.010	-0.600	0.710
2020/01/31 06:53:45.0	90.280	0.020	-0.580	0.670
2020/01/31 06:53:45.1	90.290	0.020	-0.560	0.630
2020/01/31 06:53:45.2	90.300	0.020	-0.530	0.600
2020/01/31 06:53:45.3	90.300	0.010	-0.500	0.560
2020/01/31 06:53:45.4	90.310	0.010	-0.460	0.520
2020/01/31 06:53:45.5	90.310	0.000	-0.430	0.490
2020/01/31 06:53:45.6	90.300	-0.000	-0.390	0.460
2020/01/31 06:53:45.7	90.300	-0.010	-0.350	0.430
2020/01/31 06:53:45.8	90.300	-0.020	-0.310	0.400
2020/01/31 06:53:45.9	90.290	-0.030	-0.270	0.370
2020/01/31 06:53:46.0	90.280	-0.030	-0.230	0.350
2020/01/31 06:53:46.1	90.270	-0.040	-0.190	0.320
2020/01/31 06:53:46.2	90.250	-0.050	-0.150	0.300
2020/01/31 06:53:46.3	90.240	-0.060	-0.110	0.270
2020/01/31 06:53:46.4	90.220	-0.070	-0.080	0.260
2020/01/31 06:53:46.5	90.200	-0.080	-0.050	0.240
2020/01/31 06:53:46.6	90.180	-0.080	-0.030	0.220
2020/01/31 06:53:46.7	90.160	-0.090	-0.010	0.210
2020/01/31 06:53:46.8	90.140	-0.090	0.010	0.200
2020/01/31 06:53:46.9	90.120	-0.090	0.020	0.180
2020/01/31 06:53:47.0	90.100	-0.090	0.030	0.170
2020/01/31 06:53:47.1	90.080	-0.090	0.030	0.170
2020/01/31 06:53:47.2	90.050	-0.090	0.020	0.160
2020/01/31 06:53:47.3	90.030	-0.080	0.010	0.150
2020/01/31 06:53:47.4	90.010	-0.070	-0.000	0.150
2020/01/31 06:53:47.5	89.990	-0.060	-0.020	0.140
2020/01/31 06:53:47.6	89.970	-0.050	-0.050	0.140
2020/01/31 06:53:47.7	89.940	-0.040	-0.080	0.130
2020/01/31 06:53:47.8	89.920	-0.020	-0.110	0.130
2020/01/31 06:53:47.9	89.900	-0.000	-0.140	0.130
2020/01/31 06:53:48.0	89.880	0.010	-0.180	0.130
2020/01/31 06:53:48.1	89.860	0.030	-0.220	0.130
2020/01/31 06:53:48.2	89.850	0.050	-0.260	0.130
2020/01/31 06:53:48.3	89.830	0.070	-0.300	0.130
2020/01/31 06:53:48.4	89.810	0.100	-0.350	0.130
2020/01/31 06:53:48.5	89.800	0.120	-0.390	0.120
2020/01/31 06:53:48.6	89.780	0.140	-0.430	0.130
2020/01/31 06:53:48.7	89.760	0.160	-0.470	0.130
2020/01/31 06:53:48.8	89.750	0.180	-0.500	0.130
2020/01/31 06:53:48.9	89.730	0.200	-0.530	0.130
2020/01/31 06:53:49.0	89.720	0.220	-0.560	0.130
2020/01/31 06:53:49.1	89.710	0.230	-0.590	0.130
2020/01/31 06:53:49.2	89.700	0.250	-0.610	0.130
2020/01/31 06:53:49.3	89.690	0.260	-0.630	0.130
2020/01/31 06:53:49.4	89.680	0.270	-0.640	0.140
2020/01/31 06:53:49.5	89.670	0.280	-0.640	0.140
2020/01/31 06:53:49.6	89.660	0.290	-0.650	0.140
2020/01/31 06:53:49.7	89.660	0.290	-0.640	0.140
2020/01/31 06:53:49.8	89.650	0.290	-0.630	0.150
2020/01/31 06:53:49.9	89.650	0.290	-0.620	0.150
2020/01/31 06:53:50.0	89.640	0.280	-0.600	0.150
2020/01/31 06:53:50.1	89.640	0.270	-0.580	0.150
2020/01/31 06:53:50.2	89.650	0.260	-0.550	0.150
2020/01/31 06:53:50.3	89.650	0.250	-0.520	0.160
2020/01/31 06:53:50.4	89.660	0.240	-0.480	0.160
2020/01/31 06:53:50.5	89.660	0.220	-0.440	0.160
2020/01/31 06:53:50.6	89.670	0.200	-0.400	0.160
2020/01/31 06:53:50.7	89.680	0.180	-0.360	0.160
2020/01/31 06:53:50.8	89.690	0.160	-0.310	0.160
2020/01/31 06:53:50.9	89.700	0.130	-0.270	0.160
2020/01/31 06:53:51.0	89.710	0.110	-0.220	0.150
2020/01/31 06:53:51.1	89.720	0.080	-0.170	0.150
2020/01/31 06:53:51.2	89.730	0.060	-0.120	0.150
2020/01/31 06:53:51.3	89.750	0.030	-0.080	0.150
2020/01/31 06:53:51.4	89.770	0.000	-0.030	0.150
2020/01/31 06:53:51.5	89.790	-0.020	0.020	0.150
2020/01/31 06:53:51.6	89.810	-0.040	0.070	0.150
2020/01/31 06:53:51.7	89.830	-0.070	0.110	0.150
2020/01/31 06:53:51.8	89.860	-0.090	0.150	0.150
2020/01/31 06:53:51.9	89.880	-0.110	0.200	0.150
2020/01/31 06:53:52.0	89.910	-0.130	0.240	0.150
2020/01/31 06:53:52.1	89.930	-0.150	0.270	0.150
2020/01/31 06:53:52.2	89.940	-0.170	0.310	0.160
2020/01/31 06:53:52.3	89.970	-0.180	0.340	0.160
2020/01/31 06:53:52.4	89.990	-0.190	0.370	0.170
2020/01/31 06:53:52.5	90.020	-0.200	0.400	0.180
2020/01/31 06:53:52.6	90.040	-0.210	0.420	0.190
2020/01/31 06:53:52.7	90.060	-0.210	0.440	0.200
2020/01/31 06:53:52.8	90.090	-0.220	0.450	0.210
2020/01/31 06:53:52.9	90.110	-0.220	0.460	0.220
2020/01/31 06:53:53.0	90.120	-0.220	0.470	0.240
2020/01/31 06:53:53.1	90.140	-0.210	0.470	0.260
2020/01/31 06:53:53.2	90.160	-0.210	0.470	0.280
2020/01/31 06:53:53.3	90.170	-0.200	0.470	0.300
2020/01/31 06:53:53.4	90.180	-0.190	0.460	0.330
2020/01/31 06:53:53.5	90.190	-0.180	0.450	0.350
2020/01/31 06:53:53.6	90.200	-0.170	0.430	0.380
2020/01/31 06:53:53.7	90.200	-0.150	0.410	0.410
2020/01/31 06:53:53.8	90.200	-0.140	0.380	0.440
2020/01/31 06:53:53.9	90.200	-0.120	0.360	0.480
2020/01/31 06:53:54.0	90.190	-0.110	0.330	0.510
2020/01/31 06:53:54.1	90.190	-0.090	0.290	0.540
2020/01/31 06:53:54.2	90.180	-0.070	0.260	0.580
2020/01/31 06:53:54.3	90.170	-0.050	0.220	0.620
2020/01/31 06:53:54.4	90.160	-0.030	0.170	0.650
2020/01/31 06:53:54.5	90.140	-0.010	0.130	0.690
2020/01/31 06:53:54.6	90.130	0.010	0.080	0.720
2020/01/31 06:53:54.7	90.110	0.030	0.040	0.760
2020/01/31 06:53:54.8	90.100	0.060	-0.010	0.790
2020/01/31 06:53:54.9	90.080	0.080	-0.060	0.830
2020/01/31 06:53:55.0	90.070	0.100	-0.110	0.860
2020/01/31 06:53:55.1	90.060	0.120	-0.170	0.890
2020/01/31 06:53:55.2	90.050	0.140	-0.210	0.920
2020/01/31 06:53:55.3	90.030	0.160	-0.270	0.950
2020/01/31 06:53:55.4	90.020	0.180	-0.320	0.980
2020/01/31 06:53:55.5	90.010	0.200	-0.370	1.000
2020/01/31 06:53:55.6	90.000	0.210	-0.420	1.030
2020/01/31 06:53:55.7	90.000	0.230	-0.470	1.050
2020/01/31 06:53:55.8	89.990	0.250	-0.520	1.070
2020/01/31 06:53:55.9	89.990	0.260	-0.570	1.090
2020/01/31 06:53:56.0	89.990	0.280	-0.620	1.100
2020/01/31 06:53:56.1	89.990	0.300	-0.660	1.120
2020/01/31 06:53:56.2	90.000	0.310	-0.700	1.130
2020/01/31 06:53:56.3	90.010	0.320	-0.740	1.140
2020/01/31 06:53:56.4	90.020	0.330	-0.780	1.150
2020/01/31 06:53:56.5	90.020	0.340	-0.810	1.160
2020/01/31 06:53:56.6	90.030	0.350	-0.830	1.170
2020/01/31 06:53:56.7	90.040	0.360	-0.860	1.170
2020/01/31 06:53:56.8	90.060	0.370	-0.880	1.180
2020/01/31 06:53:56.9	90.070	0.380	-0.890	1.180
2020/01/31 06:53:57.0	90.080	0.380	-0.900	1.180
2020/01/31 06:53:57.1	90.090	0.390	-0.910	1.180
2020/01/31 06:53:57.2	90.120	0.390	-0.910	1.180
2020/01/31 06:53:57.3	90.130	0.390	-0.900	1.180
2020/01/31 06:53:57.4	90.140	0.390	-0.900	1.180
2020/01/31 06:53:57.5	90.150	0.380	-0.880	1.180
2020/01/31 06:53:57.6	90.170	0.380	-0.860	1.180
2020/01/31 06:53:57.7	90.180	0.370	-0.840	1.180
2020/01/31 06:53:57.8	90.190	0.360	-0.810	1.170
2020/01/31 06:53:57.9	90.190	0.350	-0.780	1.170
2020/01/31 06:53:58.0	90.200	0.340	-0.740	1.170
2020/01/31 06:53:58.1	90.210	0.330	-0.700	1.170
2020/01/31 06:53:58.2	90.210	0.310	-0.650	1.160
2020/01/31 06:53:58.3	90.220	0.290	-0.600	1.160
2020/01/31 06:53:58.4	90.220	0.270	-0.540	1.160
2020/01/31 06:53:58.5	90.220	0.250	-0.490	1.160
2020/01/31 06:53:58.6	90.230	0.220	-0.430	1.150
2020/01/31 06:53:58.7	90.230	0.200	-0.360	1.150
2020/01/31 06:53:58.8	90.230	0.170	-0.300	1.150
2020/01/31 06:53:58.9	90.230	0.140	-0.230	1.140
2020/01/31 06:53:59.0	90.230	0.110	-0.160	1.140
2020/01/31 06:53:59.1	90.240	0.070	-0.090	1.130
2020/01/31 06:53:59.2	90.230	0.040	-0.020	1.130
2020/01/31 06:53:59.3	90.230	0.000	0.050	1.120
2020/01/31 06:53:59.4	90.230	-0.030	0.120	1.120
2020/01/31 06:53:59.5	90.240	-0.070	0.190	1.110
2020/01/31 06:53:59.6	90.240	-0.110	0.260	1.100
2020/01/31 06:53:59.7	90.240	-0.150	0.330	1.090
2020/01/31 06:53:59.8	90.240	-0.190	0.390	1.090
2020/01/31 06:53:59.9	90.250	-0.230	0.450	1.080
2020/01/31 06:54:00.0	90.250	-0.260	0.500	1.060
2020/01/31 06:54:00.1	90.260	-0.300	0.560	1.050
2020/01/31 06:54:00.2	90.250	-0.340	0.610	1.040
2020/01/31 06:54:00.3	90.250	-0.370	0.650	1.020
2020/01/31 06:54:00.4	90.260	-0.400	0.680	1.010
2020/01/31 06:54:00.5	90.270	-0.440	0.710	0.990
2020/01/31 06:54:00.6	90.270	-0.460	0.740	0.970
2020/01/31 06:54:00.7	90.280	-0.490	0.760	0.950
2020/01/31 06:54:00.8	90.290	-0.520	0.770	0.930
2020/01/31 06:54:00.9	90.300	-0.540	0.770	0.900
2020/01/31 06:54:01.0	90.310	-0.560	0.770	0.880
2020/01/31 06:54:01.1	90.320	-0.570	0.770	0.850
2020/01/31 06:54:01.2	90.340	-0.580	0.750	0.830
2020/01/31 06:54:01.3	90.350	-0.590	0.730	0.800
2020/01/31 06:54:01.4	90.360	-0.600	0.710	0.770
2020/01/31 06:54:01.5	90.370	-0.600	0.680	0.740
2020/01/31 06:54:01.6	90.380	-0.600	0.640	0.710
2020/01/31 06:54:01.7	90.390	-0.600	0.600	0.680
2020/01/31 06:54:01.8	90.400	-0.590	0.550	0.650
2020/01/31 06:54:01.9	90.410	-0.580	0.500	0.620
2020/01/31 06:54:02.0	90.420	-0.560	0.450	0.580
2020/01/31 06:54:02.1	90.430	-0.540	0.390	0.550
2020/01/31 06:54:02.2	90.430	-0.520	0.330	0.520
2020/01/31 06:54:02.3	90.440	-0.500	0.260	0.490
2020/01/31 06:54:02.4	90.440	-0.470	0.190	0.460
2020/01/31 06:54:02.5	90.440	-0.440	0.130	0.430
2020/01/31 06:54:02.6	90.440	-0.410	0.060	0.400
2020/01/31 06:54:02.7	90.440	-0.380	-0.010	0.370
2020/01/31 06:54:02.8	90.440	-0.350	-0.090	0.350
2020/01/31 06:54:02.9	90.430	-0.310	-0.160	0.320
2020/01/31 06:54:03.0	90.430	-0.270	-0.230	0.300
2020/01/31 06:54:03.1	90.420	-0.230	-0.300	0.270
2020/01/31 06:54:03.2	90.400	-0.190	-0.360	0.250
2020/01/31 06:54:03.3	90.390	-0.160	-0.430	0.230
2020/01/31 06:54:03.4	90.380	-0.120	-0.490	0.210
2020/01/31 06:54:03.5	90.370	-0.080	-0.550	0.190
2020/01/31 06:54:03.6	90.360	-0.040	-0.610	0.170
2020/01/31 06:54:03.7	90.350	-0.000	-0.660	0.150
2020/01/31 06:54:03.8	90.340	0.040	-0.710	0.140
2020/01/31 06:54:03.9	90.330	0.070	-0.760	0.120
2020/01/31 06:54:04.0	90.320	0.100	-0.800	0.110
2020/01/31 06:54:04.1	90.310	0.140	-0.840	0.090
2020/01/31 06:54:04.2	90.300	0.170	-0.870	0.080
2020/01/31 06:54:04.3	90.290	0.200	-0.900	0.070
2020/01/31 06:54:04.4	90.280	0.220	-0.920	0.060
2020/01/31 06:54:04.5	90.280	0.250	-0.940	0.050
2020/01/31 06:54:04.6	90.280	0.270	-0.950	0.030
2020/01/31 06:54:04.7	90.280	0.290	-0.960	0.020
2020/01/31 06:54:04.8	90.280	0.310	-0.960	0.010
2020/01/31 06:54:04.9	90.280	0.320	-0.960	0.000
2020/01/31 06:54:05.0	90.280	0.330	-0.950	-0.010
2020/01/31 06:54:05.1	90.290	0.340	-0.930	-0.020
2020/01/31 06:54:05.2	90.300	0.350	-0.920	-0.020
2020/01/31 06:54:05.3	90.310	0.360	-0.890	-0.030
2020/01/31 06:54:05.4	90.320	0.360	-0.870	-0.040
2020/01/31 06:54:05.5	90.330	0.360	-0.840	-0.050
2020/01/31 06:54:05.6	90.350	0.360	-0.810	-0.060
2020/01/31 06:54:05.7	90.370	0.350	-0.770	-0.070
2020/01/31 06:54:05.8	90.380	0.350	-0.730	-0.070
2020/01/31 06:54:05.9	90.400	0.340	-0.690	-0.080
2020/01/31 06:54:06.0	90.420	0.330	-0.640	-0.090
2020/01/31 06:54:06.1	90.440	0.320	-0.600	-0.090
2020/01/31 06:54:06.2	90.470	0.310	-0.550	-0.100
2020/01/31 06:54:06.3	90.490	0.300	-0.500	-0.100
2020/01/31 06:54:06.4	90.510	0.290	-0.460	-0.100
2020/01/31 06:54:06.5	90.530	0.270	-0.410	-0.100
2020/01/31 06:54:06.6	90.560	0.260	-0.360	-0.100
2020/01/31 06:54:06.7	90.580	0.240	-0.310	-0.100
2020/01/31 06:54:06.8	90.600	0.230	-0.260	-0.090
2020/01/31 06:54:06.9	90.620	0.210	-0.220	-0.090
2020/01/31 06:54:07.0	90.640	0.200	-0.170	-0.080
2020/01/31 06:54:07.1	90.660	0.180	-0.130	-0.070
2020/01/31 06:54:07.2	90.690	0.170	-0.090	-0.050
2020/01/31 06:54:07.3	90.710	0.150	-0.050	-0.040
2020/01/31 06:54:07.4	90.730	0.140	-0.010	-0.020
2020/01/31 06:54:07.5	90.740	0.120	0.020	-0.000
2020/01/31 06:54:07.6	90.760	0.110	0.060	0.020
2020/01/31 06:54:07.7	90.770	0.090	0.090	0.050
2020/01/31 06:54:07.8	90.780	0.080	0.110	0.070
2020/01/31 06:54:07.9	90.790	0.070	0.140	0.110
2020/01/31 06:54:08.0	90.800	0.050	0.160	0.140
2020/01/31 06:54:08.1	90.800	0.040	0.190	0.180
2020/01/31 06:54:08.2	90.800	0.030	0.210	0.220
2020/01/31 06:54:08.3	90.800	0.020	0.220	0.260
2020/01/31 06:54:08.4	90.800	0.010	0.240	0.310
2020/01/31 06:54:08.5	90.790	-0.000	0.250	0.360
2020/01/31 06:54:08.6	90.790	-0.010	0.260	0.410
2020/01/31 06:54:08.7	90.780	-0.020	0.270	0.470
2020/01/31 06:54:08.8	90.770	-0.030	0.280	0.520
2020/01/31 06:54:08.9	90.760	-0.030	0.290	0.580
2020/01/31 06:54:09.0	90.750	-0.040	0.290	0.650
2020/01/31 06:54:09.1	90.740	-0.050	0.290	0.710
2020/01/31 06:54:09.2	90.730	-0.050	0.290	0.780
2020/01/31 06:54:09.3	90.710	-0.060	0.290	0.850
2020/01/31 06:54:09.4	90.700	-0.060	0.290	0.920
2020/01/31 06:54:09.5	90.680	-0.070	0.280	0.990
2020/01/31 06:54:09.6	90.670	-0.070	0.280	1.060
2020/01/31 06:54:09.7	90.650	-0.070	0.270	1.130
2020/01/31 06:54:09.8	90.640	-0.070	0.260	1.200
2020/01/31 06:54:09.9	90.620	-0.080	0.250	1.270
2020/01/31 06:54:10.0	90.610	-0.080	0.240	1.340
2020/01/31 06:54:10.1	90.590	-0.080	0.230	1.410
2020/01/31 06:54:10.2	90.580	-0.080	0.210	1.470
2020/01/31 06:54:10.3	90.570	-0.080	0.200	1.540
2020/01/31 06:54:10.4	90.560	-0.080	0.180	1.590
2020/01/31 06:54:10.5	90.550	-0.080	0.160	1.650
2020/01/31 06:54:10.6	90.530	-0.080	0.140	1.700
2020/01/31 06:54:10.7	90.520	-0.070	0.120	1.750
2020/01/31 06:54:10.8	90.510	-0.070	0.100	1.800
2020/01/31 06:54:10.9	90.500	-0.070	0.080	1.840
2020/01/31 06:54:11.0	90.490	-0.070	0.060	1.880
2020/01/31 06:54:11.1	90.480	-0.060	0.040	1.920
2020/01/31 06:54:11.2	90.480	-0.060	0.010	1.950
2020/01/31 06:54:11.3	90.480	-0.050	-0.010	1.980
2020/01/31 06:54:11.4	90.470	-0.050	-0.030	2.000
2020/01/31 06:54:11.5	90.460	-0.040	-0.060	2.020
2020/01/31 06:54:11.6	90.450	-0.030	-0.080	2.040
2020/01/31 06:54:11.7	90.440	-0.030	-0.110	2.050
2020/01/31 06:54:11.8	90.440	-0.020	-0.130	2.060
2020/01/31 06:54:11.9	90.430	-0.010	-0.160	2.060
2020/01/31 06:54:12.0	90.420	0.000	-0.180	2.070
2020/01/31 06:54:12.1	90.420	0.010	-0.210	2.070
2020/01/31 06:54:12.2	90.410	0.020	-0.240	2.060
2020/01/31 06:54:12.3	90.400	0.040	-0.260	2.060
2020/01/31 06:54:12.4	90.390	0.050	-0.290	2.050
2020/01/31 06:54:12.5	90.390	0.060	-0.310	2.040
2020/01/31 06:54:12.6	90.380	0.070	-0.340	2.020
2020/01/31 06:54:12.7	90.370	0.090	-0.360	2.010
2020/01/31 06:54:12.8	90.370	0.100	-0.390	1.990
2020/01/31 06:54:12.9	90.360	0.110	-0.410	1.970
2020/01/31 06:54:13.0	90.350	0.130	-0.430	1.950
2020/01/31 06:54:13.1	90.340	0.140	-0.450	1.920
2020/01/31 06:54:13.2	90.340	0.150	-0.470	1.890
2020/01/31 06:54:13.3	90.330	0.160	-0.480	1.860
2020/01/31 06:54:13.4	90.320	0.170	-0.500	1.830
2020/01/31 06:54:13.5	90.320	0.180	-0.510	1.790
2020/01/31 06:54:13.6	90.310	0.190	-0.530	1.750
2020/01/31 06:54:13.7	90.310	0.200	-0.540	1.710
2020/01/31 06:54:13.8	90.310	0.200	-0.540	1.660
2020/01/31 06:54:13.9	90.310	0.210	-0.550	1.610
2020/01/31 06:54:14.0	90.310	0.210	-0.560	1.560
2020/01/31 06:54:14.1	90.310	0.210	-0.560	1.510
2020/01/31 06:54:14.2	90.320	0.210	-0.560	1.450
2020/01/31 06:54:14.3	90.320	0.210	-0.560	1.380
2020/01/31 06:54:14.4	90.330	0.210	-0.560	1.320
2020/01/31 06:54:14.5	90.340	0.210	-0.550	1.250
2020/01/31 06:54:14.6	90.340	0.200	-0.550	1.180
2020/01/31 06:54:14.7	90.350	0.200	-0.540	1.110
2020/01/31 06:54:14.8	90.370	0.190	-0.530	1.040
2020/01/31 06:54:14.9	90.380	0.180	-0.510	0.960
2020/01/31 06:54:15.0	90.390	0.170	-0.500	0.890
2020/01/31 06:54:15.1	90.410	0.160	-0.480	0.810
2020/01/31 06:54:15.2	90.420	0.150	-0.460	0.730
2020/01/31 06:54:15.3	90.440	0.130	-0.440	0.650
2020/01/31 06:54:15.4	90.460	0.120	-0.420	0.570
2020/01/31 06:54:15.5	90.470	0.100	-0.400	0.500
2020/01/31 06:54:15.6	90.490	0.090	-0.370	0.420
2020/01/31 06:54:15.7	90.510	0.070	-0.340	0.350
2020/01/31 06:54:15.8	90.530	0.060	-0.310	0.280
2020/01/31 06:54:15.9	90.550	0.040	-0.280	0.210
2020/01/31 06:54:16.0	90.560	0.030	-0.240	0.150
2020/01/31 06:54:16.1	90.580	0.010	-0.210	0.080
2020/01/31 06:54:16.2	90.600	-0.010	-0.170	0.030
2020/01/31 06:54:16.3	90.610	-0.020	-0.130	-0.030
2020/01/31 06:54:16.4	90.620	-0.040	-0.090	-0.080
2020/01/31 06:54:16.5	90.630	-0.050	-0.050	-0.120
2020/01/31 06:54:16.6	90.640	-0.070	-0.010	-0.170
2020/01/31 06:54:16.7	90.650	-0.080	0.020	-0.200
2020/01/31 06:54:16.8	90.650	-0.100	0.060	-0.240
2020/01/31 06:54:16.9	90.650	-0.110	0.100	-0.270
2020/01/31 06:54:17.0	90.650	-0.130	0.140	-0.290
2020/01/31 06:54:17.1	90.650	-0.140	0.170	-0.310
2020/01/31 06:54:17.2	90.640	-0.160	0.210	-0.330
2020/01/31 06:54:17.3	90.630	-0.170	0.240	-0.340
2020/01/31 06:54:17.4	90.630	-0.180	0.280	-0.350
2020/01/31 06:54:17.5	90.620	-0.190	0.300	-0.360
2020/01/31 06:54:17.6	90.610	-0.200	0.330	-0.370
2020/01/31 06:54:17.7	90.600	-0.210	0.350	-0.370
2020/01/31 06:54:17.8	90.590	-0.220	0.370	-0.370
2020/01/31 06:54:17.9	90.580	-0.230	0.390	-0.360
2020/01/31 06:54:18.0	90.570	-0.240	0.400	-0.360
2020/01/31 06:54:18.1	90.560	-0.250	0.410	-0.350
2020/01/31 06:54:18.2	90.550	-0.260	0.410	-0.340
2020/01/31 06:54:18.3	90.530	-0.260	0.410	-0.330
2020/01/31 06:54:18.4	90.520	-0.270	0.410	-0.320
2020/01/31 06:54:18.5	90.510	-0.270	0.400	-0.310
2020/01/31 06:54:18.6	90.490	-0.280	0.390	-0.300
2020/01/31 06:54:18.7	90.480	-0.280	0.370	-0.280
2020/01/31 06:54:18.8	90.470	-0.280	0.350	-0.270
2020/01/31 06:54:18.9	90.450	-0.280	0.320	-0.250
2020/01/31 06:54:19.0	90.430	-0.280	0.290	-0.230
2020/01/31 06:54:19.1	90.420	-0.270	0.250	-0.210
2020/01/31 06:54:19.2	90.410	-0.270	0.210	-0.200
2020/01/31 06:54:19.3	90.400	-0.260	0.170	-0.180
2020/01/31 06:54:19.4	90.380	-0.250	0.120	-0.160
2020/01/31 06:54:19.5	90.370	-0.240	0.070	-0.140
2020/01/31 06:54:19.6	90.350	-0.230	0.020	-0.120
2020/01/31 06:54:19.7	90.330	-0.220	-0.030	-0.090
2020/01/31 06:54:19.8	90.320	-0.210	-0.090	-0.070
2020/01/31 06:54:19.9	90.300	-0.190	-0.150	-0.050
2020/01/31 06:54:20.0	90.290	-0.170	-0.210	-0.030
2020/01/31 06:54:20.1	90.280	-0.160	-0.270	-0.020
2020/01/31 06:54:20.2	90.250	-0.140	-0.330	0.000
2020/01/31 06:54:20.3	90.240	-0.120	-0.390	0.020
2020/01/31 06:54:20.4	90.230	-0.100	-0.450	0.040
2020/01/31 06:54:20.5	90.220	-0.080	-0.510	0.060
2020/01/31 06:54:20.6	90.210	-0.060	-0.560	0.070
2020/01/31 06:54:20.7	90.210	-0.030	-0.610	0.090
2020/01/31 06:54:20.8	90.200	-0.010	-0.660	0.100
2020/01/31 06:54:20.9	90.190	0.010	-0.710	0.110
2020/01/31 06:54:21.0	90.190	0.030	-0.750	0.130
2020/01/31 06:54:21.1	90.190	0.050	-0.790	0.140
2020/01/31 06:54:21.2	90.170	0.070	-0.820	0.150
2020/01/31 06:54:21.3	90.170	0.090	-0.850	0.160
2020/01/31 06:54:21.4	90.170	0.110	-0.870	0.180
2020/01/31 06:54:21.5	90.170	0.130	-0.880	0.190
2020/01/31 06:54:21.6	90.170	0.140	-0.890	0.210
2020/01/31 06:54:21.7	90.170	0.160	-0.890	0.220
2020/01/31 06:54:21.8	90.170	0.170	-0.890	0.240
2020/01/31 06:54:21.9	90.180	0.180	-0.880	0.260
2020/01/31 06:54:22.0	90.180	0.190	-0.860	0.280
2020/01/31 06:54:22.1	90.190	0.190	-0.840	0.300
2020/01/31 06:54:22.2	90.200	0.190	-0.800	0.320
2020/01/31 06:54:22.3	90.210	0.200	-0.770	0.340
2020/01/31 06:54:22.4	90.210	0.190	-0.730	0.360
2020/01/31 06:54:22.5	90.220	0.190	-0.680	0.380
2020/01/31 06:54:22.6	90.230	0.180	-0.630	0.400
2020/01/31 06:54:22.7	90.240	0.180	-0.570	0.420
2020/01/31 06:54:22.8	90.250	0.170	-0.510	0.440
2020/01/31 06:54:22.9	90.260	0.150	-0.440	0.470
2020/01/31 06:54:23.0	90.270	0.140	-0.380	0.490
2020/01/31 06:54:23.1	90.280	0.130	-0.310	0.510
2020/01/31 06:54:23.2	90.300	0.110	-0.230	0.530
2020/01/31 06:54:23.3	90.310	0.090	-0.160	0.550
2020/01/31 06:54:23.4	90.320	0.070	-0.090	0.570
2020/01/31 06:54:23.5	90.330	0.050	-0.020	0.590
2020/01/31 06:54:23.6	90.330	0.030	0.050	0.610
2020/01/31 06:54:23.7	90.340	0.010	0.120	0.630
2020/01/31 06:54:23.8	90.350	-0.010	0.190	0.650
2020/01/31 06:54:23.9	90.350	-0.030	0.250	0.670
2020/01/31 06:54:24.0	90.350	-0.050	0.310	0.690
2020/01/31 06:54:24.1	90.350	-0.070	0.360	0.710
2020/01/31 06:54:24.2	90.350	-0.090	0.410	0.720
2020/01/31 06:54:24.3	90.340	-0.110	0.460	0.740
2020/01/31 06:54:24.4	90.340	-0.130	0.500	0.760
2020/01/31 06:54:24.5	90.330	-0.140	0.530	0.770
2020/01/31 06:54:24.6	90.320	-0.150	0.560	0.780
2020/01/31 06:54:24.7	90.310	-0.170	0.580	0.800
2020/01/31 06:54:24.8	90.300	-0.170	0.590	0.810
2020/01/31 06:54:24.9	90.280	-0.180	0.600	0.810
2020/01/31 06:54:25.0	90.270	-0.190	0.600	0.820
2020/01/31 06:54:25.1	90.260	-0.190	0.590	0.820
2020/01/31 06:54:25.2	90.240	-0.190	0.580	0.820
2020/01/31 06:54:25.3	90.230	-0.190	0.560	0.820
2020/01/31 06:54:25.4	90.220	-0.180	0.540	0.820
2020/01/31 06:54:25.5	90.210	-0.170	0.510	0.810
2020/01/31 06:54:25.6	90.200	-0.170	0.470	0.800
2020/01/31 06:54:25.7	90.200	-0.150	0.430	0.780
2020/01/31 06:54:25.8	90.190	-0.140	0.380	0.770
2020/01/31 06:54:25.9	90.190	-0.130	0.330	0.750
2020/01/31 06:54:26.0	90.190	-0.110	0.270	0.730
2020/01/31 06:54:26.1	90.190	-0.090	0.220	0.710
2020/01/31 06:54:26.2	90.190	-0.070	0.160	0.690
2020/01/31 06:54:26.3	90.190	-0.050	0.090	0.670
2020/01/31 06:54:26.4	90.200	-0.030	0.030	0.650
2020/01/31 06:54:26.5	90.210	-0.000	-0.040	0.630
2020/01/31 06:54:26.6	90.210	0.020	-0.100	0.610
2020/01/31 06:54:26.7	90.220	0.040	-0.170	0.590
2020/01/31 06:54:26.8	90.230	0.070	-0.230	0.580
2020/01/31 06:54:26.9	90.240	0.090	-0.290	0.570
2020/01/31 06:54:27.0	90.250	0.120	-0.350	0.560
2020/01/31 06:54:27.1	90.260	0.140	-0.410	0.550
2020/01/31 06:54:27.2	90.270	0.160	-0.460	0.550
2020/01/31 06:54:27.3	90.270	0.190	-0.510	0.550
2020/01/31 06:54:27.4	90.280	0.210	-0.550	0.550
2020/01/31 06:54:27.5	90.290	0.230	-0.590	0.560
2020/01/31 06:54:27.6	90.290	0.240	-0.620	0.570
2020/01/31 06:54:27.7	90.290	0.260	-0.650	0.580
2020/01/31 06:54:27.8	90.290	0.270	-0.670	0.590
2020/01/31 06:54:27.9	90.290	0.280	-0.690	0.610
2020/01/31 06:54:28.0	90.290	0.290	-0.700	0.630
2020/01/31 06:54:28.1	90.290	0.300	-0.700	0.650
2020/01/31 06:54:28.2	90.280	0.300	-0.700	0.670
2020/01/31 06:54:28.3	90.270	0.300	-0.690	0.690
2020/01/31 06:54:28.4	90.260	0.300	-0.680	0.720
2020/01/31 06:54:28.5	90.250	0.300	-0.660	0.740
2020/01/31 06:54:28.6	90.240	0.290	-0.640	0.760
2020/01/31 06:54:28.7	90.230	0.290	-0.610	0.780
2020/01/31 06:54:28.8	90.210	0.280	-0.590	0.800
2020/01/31 06:54:28.9	90.200	0.260	-0.550	0.820
2020/01/31 06:54:29.0	90.180	0.250	-0.520	0.830
2020/01/31 06:54:29.1	90.170	0.230	-0.480	0.850
2020/01/31 06:54:29.2	90.140	0.220	-0.440	0.860
2020/01/31 06:54:29.3	90.130	0.200	-0.410	0.870
2020/01/31 06:54:29.4	90.110	0.180	-0.370	0.870
2020/01/31 06:54:29.5	90.090	0.160	-0.330	0.880
2020/01/31 06:54:29.6	90.070	0.140	-0.300	0.880
2020/01/31 06:54:29.7	90.050	0.120	-0.260	0.870
2020/01/31 06:54:29.8	90.030	0.100	-0.230	0.860
2020/01/31 06:54:29.9	90.010	0.080	-0.200	0.860
2020/01/31 06:54:30.0	89.990	0.060	-0.180	0.840
2020/01/31 06:54:30.1	89.980	0.040	-0.150	0.830
2020/01/31 06:54:30.2	89.960	0.020	-0.140	0.810
2020/01/31 06:54:30.3	89.940	0.010	-0.120	0.790
2020/01/31 06:54:30.4	89.930	-0.010	-0.110	0.760
2020/01/31 06:54:30.5	89.920	-0.020	-0.100	0.740
2020/01/31 06:54:30.6	89.910	-0.030	-0.090	0.710
2020/01/31 06:54:30.7	89.900	-0.040	-0.090	0.680
2020/01/31 06:54:30.8	89.890	-0.050	-0.090	0.650
2020/01/31 06:54:30.9	89.880	-0.060	-0.100	0.630
2020/01/31 06:54:31.0	89.880	-0.060	-0.100	0.600
2020/01/31 06:54:31.1	89.870	-0.070	-0.110	0.570
2020/01/31 06:54:31.2	89.870	-0.070	-0.120	0.540
2020/01/31 06:54:31.3	89.870	-0.070	-0.140	0.520
2020/01/31 06:54:31.4	89.860	-0.070	-0.150	0.500
2020/01/31 06:54:31.5	89.860	-0.060	-0.160	0.470
2020/01/31 06:54:31.6	89.860	-0.060	-0.180	0.460
2020/01/31 06:54:31.7	89.850	-0.050	-0.190	0.440
2020/01/31 06:54:31.8	89.850	-0.050	-0.200	0.430
2020/01/31 06:54:31.9	89.840	-0.040	-0.210	0.410
2020/01/31 06:54:32.0	89.840	-0.040	-0.220	0.410
2020/01/31 06:54:32.1	89.830	-0.030	-0.230	0.400
2020/01/31 06:54:32.2	89.840	-0.020	-0.240	0.400
2020/01/31 06:54:32.3	89.830	-0.020	-0.240	0.400
2020/01/31 06:54:32.4	89.820	-0.010	-0.240	0.400
2020/01/31 06:54:32.5	89.810	-0.010	-0.230	0.400
2020/01/31 06:54:32.6	89.800	-0.000	-0.230	0.410
2020/01/31 06:54:32.7	89.790	-0.000	-0.220	0.410
2020/01/31 06:54:32.8	89.780	0.000	-0.200	0.420
2020/01/31 06:54:32.9	89.770	0.000	-0.190	0.430
2020/01/31 06:54:33.0	89.750	0.000	-0.170	0.440
2020/01/31 06:54:33.1	89.740	-0.000	-0.150	0.450
2020/01/31 06:54:33.2	89.730	-0.010	-0.120	0.450
2020/01/31 06:54:33.3	89.720	-0.010	-0.090	0.460
2020/01/31 06:54:33.4	89.710	-0.020	-0.060	0.470
2020/01/31 06:54:33.5	89.700	-0.020	-0.030	0.480
2020/01/31 06:54:33.6	89.690	-0.030	0.000	0.480
2020/01/31 06:54:33.7	89.680	-0.040	0.030	0.490
2020/01/31 06:54:33.8	89.670	-0.060	0.070	0.490
2020/01/31 06:54:33.9	89.670	-0.070	0.100	0.490
2020/01/31 06:54:34.0	89.660	-0.080	0.130	0.500
2020/01/31 06:54:34.1	89.660	-0.100	0.160	0.490
2020/01/31 06:54:34.2	89.660	-0.110	0.190	0.490
2020/01/31 06:54:34.3	89.650	-0.130	0.220	0.490
2020/01/31 06:54:34.4	89.650	-0.140	0.240	0.480
2020/01/31 06:54:34.5	89.660	-0.160	0.270	0.480
2020/01/31 06:54:34.6	89.660	-0.170	0.290	0.470
2020/01/31 06:54:34.7	89.660	-0.190	0.300	0.470
2020/01/31 06:54:34.8	89.660	-0.200	0.320	0.460
2020/01/31 06:54:34.9	89.670	-0.220	0.330	0.450
2020/01/31 06:54:35.0	89.670	-0.230	0.340	0.440
2020/01/31 06:54:35.1	89.680	-0.240	0.340	0.430
2020/01/31 06:54:35.2	89.670	-0.250	0.340	0.420
2020/01/31 06:54:35.3	89.680	-0.270	0.340	0.420
2020/01/31 06:54:35.4	89.680	-0.280	0.330	0.410
2020/01/31 06:54:35.5	89.680	-0.280	0.320	0.400
2020/01/31 06:54:35.6	89.680	-0.290	0.310	0.400
2020/01/31 06:54:35.7	89.680	-0.300	0.290	0.390
2020/01/31 06:54:35.8	89.680	-0.300	0.270	0.390
2020/01/31 06:54:35.9	89.680	-0.310	0.250	0.390
2020/01/31 06:54:36.0	89.670	-0.310	0.230	0.390
2020/01/31 06:54:36.1	89.670	-0.310	0.200	0.390
2020/01/31 06:54:36.2	89.670	-0.310	0.170	0.390
2020/01/31 06:54:36.3	89.660	-0.310	0.140	0.400
2020/01/31 06:54:36.4	89.650	-0.310	0.110	0.400
2020/01/31 06:54:36.5	89.630	-0.300	0.080	0.410
2020/01/31 06:54:36.6	89.620	-0.300	0.040	0.430
2020/01/31 06:54:36.7	89.610	-0.290	0.000	0.440
2020/01/31 06:54:36.8	89.590	-0.280	-0.030	0.450
2020/01/31 06:54:36.9	89.570	-0.270	-0.070	0.470
2020/01/31 06:54:37.0	89.550	-0.260	-0.110	0.490
2020/01/31 06:54:37.1	89.530	-0.250	-0.140	0.510
2020/01/31 06:54:37.2	89.500	-0.240	-0.180	0.540
2020/01/31 06:54:37.3	89.480	-0.230	-0.220	0.560
2020/01/31 06:54:37.4	89.450	-0.220	-0.250	0.580
2020/01/31 06:54:37.5	89.430	-0.200	-0.290	0.610
2020/01/31 06:54:37.6	89.410	-0.190	-0.320	0.640
2020/01/31 06:54:37.7	89.380	-0.170	-0.360	0.660
2020/01/31 06:54:37.8	89.350	-0.160	-0.390	0.690
2020/01/31 06:54:37.9	89.330	-0.140	-0.420	0.720
2020/01/31 06:54:38.0	89.300	-0.120	-0.440	0.750
2020/01/31 06:54:38.1	89.270	-0.110	-0.470	0.780
2020/01/31 06:54:38.2	89.250	-0.090	-0.490	0.800
2020/01/31 06:54:38.3	89.230	-0.070	-0.510	0.830
2020/01/31 06:54:38.4	89.200	-0.050	-0.530	0.860
2020/01/31 06:54:38.5	89.170	-0.040	-0.550	0.880
2020/01/31 06:54:38.6	89.140	-0.020	-0.570	0.900
2020/01/31 06:54:38.7	89.110	0.000	-0.580	0.930
2020/01/31 06:54:38.8	89.080	0.020	-0.590	0.950
2020/01/31 06:54:38.9	89.050	0.040	-0.600	0.960
2020/01/31 06:54:39.0	89.030	0.060	-0.610	0.980
2020/01/31 06:54:39.1	89.000	0.080	-0.620	0.990
2020/01/31 06:54:39.2	88.990	0.100	-0.630	1.000
2020/01/31 06:54:39.3	88.960	0.120	-0.630	1.010
2020/01/31 06:54:39.4	88.940	0.140	-0.640	1.010
2020/01/31 06:54:39.5	88.920	0.160	-0.640	1.010
2020/01/31 06:54:39.6	88.900	0.180	-0.650	1.010
2020/01/31 06:54:39.7	88.890	0.200	-0.650	1.000
2020/01/31 06:54:39.8	88.870	0.220	-0.650	0.990
2020/01/31 06:54:39.9	88.860	0.240	-0.650	0.970
2020/01/31 06:54:40.0	88.850	0.260	-0.660	0.950
2020/01/31 06:54:40.1	88.850	0.280	-0.660	0.930
2020/01/31 06:54:40.2	88.850	0.300	-0.660	0.900
2020/01/31 06:54:40.3	88.850	0.320	-0.660	0.880
2020/01/31 06:54:40.4	88.850	0.340	-0.660	0.840
2020/01/31 06:54:40.5	88.860	0.360	-0.650	0.810
2020/01/31 06:54:40.6	88.860	0.370	-0.650	0.770
2020/01/31 06:54:40.7	88.870	0.390	-0.640	0.740
2020/01/31 06:54:40.8	88.880	0.400	-0.640	0.700
2020/01/31 06:54:40.9	88.900	0.420	-0.630	0.660
2020/01/31 06:54:41.0	88.910	0.430	-0.620	0.610
2020/01/31 06:54:41.1	88.930	0.440	-0.600	0.570
2020/01/31 06:54:41.2	88.940	0.450	-0.590	0.530
2020/01/31 06:54:41.3	88.950	0.460	-0.570	0.490
2020/01/31 06:54:41.4	88.970	0.460	-0.550	0.450
2020/01/31 06:54:41.5	88.990	0.470	-0.530	0.420
2020/01/31 06:54:41.6	89.000	0.470	-0.500	0.380
2020/01/31 06:54:41.7	89.020	0.470	-0.470	0.350
2020/01/31 06:54:41.8	89.030	0.470	-0.440	0.320
2020/01/31 06:54:41.9	89.050	0.460	-0.410	0.290
2020/01/31 06:54:42.0	89.060	0.460	-0.370	0.270
2020/01/31 06:54:42.1	89.060	0.450	-0.330	0.250
2020/01/31 06:54:42.2	89.070	0.440	-0.290	0.230
2020/01/31 06:54:42.3	89.080	0.420	-0.250	0.210
2020/01/31 06:54:42.4	89.080	0.410	-0.200	0.200
2020/01/31 06:54:42.5	89.080	0.390	-0.150	0.190
2020/01/31 06:54:42.6	89.080	0.370	-0.100	0.180
2020/01/31 06:54:42.7	89.070	0.350	-0.050	0.170
2020/01/31 06:54:42.8	89.060	0.330	0.000	0.170
2020/01/31 06:54:42.9	89.050	0.300	0.060	0.170
2020/01/31 06:54:43.0	89.040	0.270	0.110	0.170
2020/01/31 06:54:43.1	89.030	0.240	0.170	0.170
2020/01/31 06:54:43.2	89.020	0.210	0.220	0.170
2020/01/31 06:54:43.3	89.000	0.180	0.280	0.180
2020/01/31 06:54:43.4	88.980	0.150	0.330	0.180
2020/01/31 06:54:43.5	88.950	0.110	0.390	0.190
2020/01/31 06:54:43.6	88.930	0.080	0.440	0.200
2020/01/31 06:54:43.7	88.900	0.040	0.490	0.200
2020/01/31 06:54:43.8	88.870	0.010	0.540	0.210
2020/01/31 06:54:43.9	88.840	-0.030	0.590	0.220
2020/01/31 06:54:44.0	88.810	-0.070	0.630	0.230
2020/01/31 06:54:44.1	88.780	-0.100	0.670	0.240
2020/01/31 06:54:44.2	88.740	-0.140	0.710	0.250
2020/01/31 06:54:44.3	88.710	-0.170	0.750	0.260
2020/01/31 06:54:44.4	88.670	-0.210	0.780	0.270
2020/01/31 06:54:44.5	88.630	-0.240	0.800	0.290
2020/01/31 06:54:44.6	88.590	-0.270	0.820	0.300
2020/01/31 06:54:44.7	88.550	-0.300	0.840	0.310
2020/01/31 06:54:44.8	88.510	-0.330	0.850	0.330
2020/01/31 06:54:44.9	88.470	-0.360	0.860	0.340
2020/01/31 06:54:45.0	88.430	-0.380	0.860	0.350
2020/01/31 06:54:45.1	88.390	-0.400	0.850	0.370
2020/01/31 06:54:45.2	88.350	-0.420	0.840	0.380
2020/01/31 06:54:45.3	88.310	-0.440	0.820	0.390
2020/01/31 06:54:45.4	88.280	-0.450	0.800	0.400
2020/01/31 06:54:45.5	88.240	-0.460	0.770	0.410
2020/01/31 06:54:45.6	88.210	-0.470	0.730	0.420
2020/01/31 06:54:45.7	88.180	-0.480	0.690	0.430
2020/01/31 06:54:45.8	88.160	-0.480	0.640	0.430
2020/01/31 06:54:45.9	88.130	-0.480	0.580	0.430
2020/01/31 06:54:46.0	88.110	-0.480	0.520	0.430
2020/01/31 06:54:46.1	88.090	-0.470	0.450	0.420
2020/01/31 06:54:46.2	88.080	-0.460	0.370	0.410
2020/01/31 06:54:46.3	88.070	-0.450	0.290	0.400
2020/01/31 06:54:46.4	88.070	-0.430	0.210	0.390
2020/01/31 06:54:46.5	88.070	-0.410	0.120	0.370
2020/01/31 06:54:46.6	88.070	-0.390	0.030	0.350
2020/01/31 06:54:46.7	88.070	-0.370	-0.070	0.330
2020/01/31 06:54:46.8	88.080	-0.350	-0.170	0.310
2020/01/31 06:54:46.9	88.090	-0.320	-0.260	0.280
2020/01/31 06:54:47.0	88.110	-0.290	-0.360	0.250
2020/01/31 06:54:47.1	88.120	-0.260	-0.460	0.230
2020/01/31 06:54:47.2	88.140	-0.230	-0.560	0.200
2020/01/31 06:54:47.3	88.160	-0.200	-0.660	0.170
2020/01/31 06:54:47.4	88.190	-0.160	-0.750	0.140
2020/01/31 06:54:47.5	88.210	-0.130	-0.840	0.120
2020/01/31 06:54:47.6	88.240	-0.100	-0.930	0.090
2020/01/31 06:54:47.7	88.270	-0.060	-1.010	0.070
2020/01/31 06:54:47.8	88.290	-0.030	-1.080	0.050
2020/01/31 06:54:47.9	88.320	0.000	-1.150	0.030
2020/01/31 06:54:48.0	88.350	0.030	-1.220	0.010
2020/01/31 06:54:48.1	88.380	0.060	-1.270	0.000
2020/01/31 06:54:48.2	88.400	0.090	-1.330	-0.010
2020/01/31 06:54:48.3	88.430	0.120	-1.370	-0.020
2020/01/31 06:54:48.4	88.450	0.140	-1.400	-0.020
2020/01/31 06:54:48.5	88.480	0.160	-1.420	-0.030
2020/01/31 06:54:48.6	88.500	0.180	-1.440	-0.030
2020/01/31 06:54:48.7	88.530	0.200	-1.450	-0.020
2020/01/31 06:54:48.8	88.550	0.210	-1.440	-0.020
2020/01/31 06:54:48.9	88.570	0.230	-1.430	-0.010
2020/01/31 06:54:49.0	88.590	0.230	-1.410	-0.000
2020/01/31 06:54:49.1	88.610	0.240	-1.380	0.000
2020/01/31 06:54:49.2	88.630	0.240	-1.340	0.010
2020/01/31 06:54:49.3	88.640	0.240	-1.300	0.030
2020/01/31 06:54:49.4	88.660	0.240	-1.250	0.040
2020/01/31 06:54:49.5	88.670	0.240	-1.190	0.060
2020/01/31 06:54:49.6	88.690	0.230	-1.120	0.070
2020/01/31 06:54:49.7	88.700	0.220	-1.050	0.090
2020/01/31 06:54:49.8	88.710	0.200	-0.970	0.110
2020/01/31 06:54:49.9	88.710	0.190	-0.890	0.130
2020/01/31 06:54:50.0	88.720	0.170	-0.800	0.150
2020/01/31 06:54:50.1	88.720	0.150	-0.710	0.170
2020/01/31 06:54:50.2	88.720	0.130	-0.610	0.190
2020/01/31 06:54:50.3	88.720	0.110	-0.520	0.220
2020/01/31 06:54:50.4	88.710	0.090	-0.410	0.250
2020/01/31 06:54:50.5	88.700	0.070	-0.310	0.270
2020/01/31 06:54:50.6	88.700	0.040	-0.210	0.310
2020/01/31 06:54:50.7	88.680	0.020	-0.100	0.340
2020/01/31 06:54:50.8	88.670	-0.010	-0.000	0.380
2020/01/31 06:54:50.9	88.650	-0.030	0.100	0.420
2020/01/31 06:54:51.0	88.630	-0.060	0.200	0.460
2020/01/31 06:54:51.1	88.600	-0.080	0.300	0.500
2020/01/31 06:54:51.2	88.580	-0.100	0.390	0.550
2020/01/31 06:54:51.3	88.550	-0.130	0.480	0.600
2020/01/31 06:54:51.4	88.520	-0.150	0.560	0.650
2020/01/31 06:54:51.5	88.480	-0.170	0.640	0.710
2020/01/31 06:54:51.6	88.440	-0.180	0.710	0.770
2020/01/31 06:54:51.7	88.400	-0.200	0.780	0.830
2020/01/31 06:54:51.8	88.350	-0.220	0.830	0.890
2020/01/31 06:54:51.9	88.300	-0.230	0.880	0.950
2020/01/31 06:54:52.0	88.260	-0.240	0.930	1.010
2020/01/31 06:54:52.1	88.210	-0.250	0.960	1.070
2020/01/31 06:54:52.2	88.150	-0.250	0.990	1.140
2020/01/31 06:54:52.3	88.100	-0.260	1.010	1.200
2020/01/31 06:54:52.4	88.050	-0.260	1.020	1.260
2020/01/31 06:54:52.5	88.000	-0.260	1.020	1.320
2020/01/31 06:54:52.6	87.950	-0.250	1.010	1.380
2020/01/31 06:54:52.7	87.910	-0.250	0.990	1.430
2020/01/31 06:54:52.8	87.860	-0.240	0.970	1.480
2020/01/31 06:54:52.9	87.820	-0.230	0.940	1.520
2020/01/31 06:54:53.0	87.780	-0.210	0.890	1.570
2020/01/31 06:54:53.1	87.740	-0.200	0.850	1.600
2020/01/31 06:54:53.2	87.720	-0.180	0.790	1.630
2020/01/31 06:54:53.3	87.700	-0.160	0.730	1.660
2020/01/31 06:54:53.4	87.670	-0.140	0.670	1.680
2020/01/31 06:54:53.5	87.650	-0.120	0.590	1.690
2020/01/31 06:54:53.6	87.640	-0.090	0.510	1.700
2020/01/31 06:54:53.7	87.630	-0.060	0.430	1.700
2020/01/31 06:54:53.8	87.620	-0.040	0.350	1.690
2020/01/31 06:54:53.9	87.620	-0.010	0.260	1.670
2020/01/31 06:54:54.0	87.630	0.020	0.170	1.660
2020/01/31 06:54:54.1	87.640	0.050	0.080	1.630
2020/01/31 06:54:54.2	87.660	0.080	-0.020	1.590
2020/01/31 06:54:54.3	87.680	0.110	-0.110	1.550
2020/01/31 06:54:54.4	87.700	0.150	-0.200	1.510
2020/01/31 06:54:54.5	87.730	0.180	-0.290	1.460
2020/01/31 06:54:54.6	87.760	0.210	-0.380	1.400
2020/01/31 06:54:54.7	87.790	0.240	-0.470	1.340
2020/01/31 06:54:54.8	87.830	0.270	-0.550	1.280
2020/01/31 06:54:54.9	87.870	0.300	-0.620	1.200
2020/01/31 06:54:55.0	87.920	0.320	-0.700	1.130
2020/01/31 06:54:55.1	87.960	0.350	-0.760	1.050
2020/01/31 06:54:55.2	88.020	0.370	-0.820	0.970
2020/01/31 06:54:55.3	88.070	0.400	-0.870	0.890
2020/01/31 06:54:55.4	88.120	0.420	-0.920	0.810
2020/01/31 06:54:55.5	88.170	0.440	-0.960	0.730
2020/01/31 06:54:55.6	88.220	0.450	-0.990	0.650
2020/01/31 06:54:55.7	88.260	0.470	-1.020	0.570
2020/01/31 06:54:55.8	88.310	0.480	-1.030	0.490
2020/01/31 06:54:55.9	88.360	0.490	-1.040	0.420
2020/01/31 06:54:56.0	88.400	0.500	-1.040	0.350
2020/01/31 06:54:56.1	88.450	0.510	-1.040	0.280
2020/01/31 06:54:56.2	88.470	0.510	-1.030	0.220
2020/01/31 06:54:56.3	88.510	0.510	-1.010	0.160
2020/01/31 06:54:56.4	88.540	0.510	-0.980	0.110
2020/01/31 06:54:56.5	88.570	0.500	-0.950	0.060
2020/01/31 06:54:56.6	88.600	0.490	-0.910	0.020
2020/01/31 06:54:56.7	88.620	0.480	-0.860	-0.010
2020/01/31 06:54:56.8	88.640	0.470	-0.820	-0.030
2020/01/31 06:54:56.9	88.660	0.450	-0.760	-0.050
2020/01/31 06:54:57.0	88.660	0.440	-0.710	-0.060
2020/01/31 06:54:57.1	88.670	0.410	-0.650	-0.060
2020/01/31 06:54:57.2	88.670	0.390	-0.580	-0.060
2020/01/31 06:54:57.3	88.670	0.370	-0.510	-0.050
2020/01/31 06:54:57.4	88.660	0.340	-0.450	-0.030
2020/01/31 06:54:57.5	88.640	0.310	-0.380	-0.000
2020/01/31 06:54:57.6	88.630	0.280	-0.310	0.030
2020/01/31 06:54:57.7	88.610	0.240	-0.250	0.070
2020/01/31 06:54:57.8	88.580	0.210	-0.180	0.110
2020/01/31 06:54:57.9	88.550	0.170	-0.110	0.160
2020/01/31 06:54:58.0	88.520	0.130	-0.050	0.220
2020/01/31 06:54:58.1	88.480	0.090	0.010	0.280
2020/01/31 06:54:58.2	88.440	0.050	0.070	0.340
2020/01/31 06:54:58.3	88.400	0.010	0.130	0.410
2020/01/31 06:54:58.4	88.360	-0.030	0.180	0.480
2020/01/31 06:54:58.5	88.310	-0.070	0.230	0.550
2020/01/31 06:54:58.6	88.270	-0.110	0.280	0.620
2020/01/31 06:54:58.7	88.220	-0.150	0.320	0.700
2020/01/31 06:54:58.8	88.180	-0.190	0.360	0.780
2020/01/31 06:54:58.9	88.130	-0.230	0.390	0.850
2020/01/31 06:54:59.0	88.090	-0.260	0.420	0.930
2020/01/31 06:54:59.1	88.040	-0.300	0.440	1.000
2020/01/31 06:54:59.2	88.000	-0.330	0.460	1.080
2020/01/31 06:54:59.3	87.960	-0.360	0.470	1.150
2020/01/31 06:54:59.4	87.920	-0.390	0.480	1.220
2020/01/31 06:54:59.5	87.880	-0.420	0.480	1.280
2020/01/31 06:54:59.6	87.850	-0.450	0.470	1.340
2020/01/31 06:54:59.7	87.810	-0.470	0.460	1.400
2020/01/31 06:54:59.8	87.780	-0.490	0.440	1.460
2020/01/31 06:54:59.9	87.750	-0.510	0.420	1.510
2020/01/31 06:55:00.0	87.730	-0.520	0.390	1.560
2020/01/31 06:55:00.1	87.710	-0.530	0.360	1.600
2020/01/31 06:55:00.2	87.690	-0.540	0.320	1.630
2020/01/31 06:55:00.3	87.670	-0.540	0.280	1.670
2020/01/31 06:55:00.4	87.660	-0.550	0.240	1.690
2020/01/31 06:55:00.5	87.650	-0.540	0.200	1.720
2020/01/31 06:55:00.6	87.640	-0.540	0.150	1.730
2020/01/31 06:55:00.7	87.630	-0.530	0.100	1.750
2020/01/31 06:55:00.8	87.630	-0.520	0.050	1.750
2020/01/31 06:55:00.9	87.630	-0.510	-0.010	1.760
2020/01/31 06:55:01.0	87.630	-0.500	-0.060	1.760
2020/01/31 06:55:01.1	87.640	-0.480	-0.110	1.750
2020/01/31 06:55:01.2	87.650	-0.460	-0.170	1.740
2020/01/31 06:55:01.3	87.660	-0.440	-0.220	1.730
2020/01/31 06:55:01.4	87.670	-0.420	-0.270	1.710
2020/01/31 06:55:01.5	87.690	-0.390	-0.320	1.690
2020/01/31 06:55:01.6	87.710	-0.360	-0.370	1.660
2020/01/31 06:55:01.7	87.730	-0.340	-0.420	1.640
2020/01/31 06:55:01.8	87.750	-0.310	-0.460	1.600
2020/01/31 06:55:01.9	87.780	-0.270	-0.500	1.570
2020/01/31 06:55:02.0	87.800	-0.240	-0.540	1.540
2020/01/31 06:55:02.1	87.830	-0.210	-0.580	1.500
2020/01/31 06:55:02.2	87.870	-0.180	-0.610	1.450
2020/01/31 06:55:02.3	87.900	-0.140	-0.640	1.410
2020/01/31 06:55:02.4	87.920	-0.110	-0.670	1.370
2020/01/31 06:55:02.5	87.950	-0.070	-0.690	1.330
2020/01/31 06:55:02.6	87.980	-0.040	-0.710	1.280
2020/01/31 06:55:02.7	88.010	-0.000	-0.720	1.240
2020/01/31 06:55:02.8	88.040	0.030	-0.730	1.190
2020/01/31 06:55:02.9	88.070	0.070	-0.740	1.140
2020/01/31 06:55:03.0	88.100	0.100	-0.740	1.100
2020/01/31 06:55:03.1	88.130	0.140	-0.740	1.050
2020/01/31 06:55:03.2	88.160	0.170	-0.730	1.000
2020/01/31 06:55:03.3	88.180	0.200	-0.730	0.960
2020/01/31 06:55:03.4	88.210	0.230	-0.710	0.910
2020/01/31 06:55:03.5	88.230	0.260	-0.700	0.870
2020/01/31 06:55:03.6	88.250	0.290	-0.680	0.830
2020/01/31 06:55:03.7	88.270	0.320	-0.650	0.790
2020/01/31 06:55:03.8	88.290	0.340	-0.620	0.750
2020/01/31 06:55:03.9	88.310	0.360	-0.590	0.710
2020/01/31 06:55:04.0	88.320	0.380	-0.560	0.680
2020/01/31 06:55:04.1	88.330	0.400	-0.520	0.650
2020/01/31 06:55:04.2	88.340	0.410	-0.470	0.620
2020/01/31 06:55:04.3	88.350	0.430	-0.430	0.590
2020/01/31 06:55:04.4	88.350	0.440	-0.380	0.570
2020/01/31 06:55:04.5	88.350	0.440	-0.340	0.550
2020/01/31 06:55:04.6	88.350	0.450	-0.280	0.530
2020/01/31 06:55:04.7	88.350	0.450	-0.230	0.520
2020/01/31 06:55:04.8	88.340	0.440	-0.180	0.510
2020/01/31 06:55:04.9	88.330	0.440	-0.120	0.510
2020/01/31 06:55:05.0	88.320	0.430	-0.060	0.510
2020/01/31 06:55:05.1	88.300	0.410	-0.000	0.510
2020/01/31 06:55:05.2	88.290	0.400	0.060	0.510
2020/01/31 06:55:05.3	88.270	0.380	0.120	0.520
2020/01/31 06:55:05.4	88.250	0.360	0.180	0.530
2020/01/31 06:55:05.5	88.230	0.330	0.230	0.540
2020/01/31 06:55:05.6	88.200	0.300	0.290	0.550
2020/01/31 06:55:05.7	88.180	0.270	0.350	0.560
2020/01/31 06:55:05.8	88.150	0.240	0.400	0.570
2020/01/31 06:55:05.9	88.120	0.210	0.450	0.590
2020/01/31 06:55:06.0	88.090	0.170	0.500	0.600
2020/01/31 06:55:06.1	88.060	0.140	0.540	0.620
2020/01/31 06:55:06.2	88.030	0.100	0.580	0.630
2020/01/31 06:55:06.3	88.000	0.060	0.610	0.640
2020/01/31 06:55:06.4	87.970	0.020	0.640	0.650
2020/01/31 06:55:06.5	87.940	-0.020	0.660	0.660
2020/01/31 06:55:06.6	87.910	-0.060	0.680	0.670
2020/01/31 06:55:06.7	87.880	-0.090	0.690	0.680
2020/01/31 06:55:06.8	87.850	-0.130	0.700	0.680
2020/01/31 06:55:06.9	87.820	-0.170	0.700	0.680
2020/01/31 06:55:07.0	87.790	-0.200	0.690	0.680
2020/01/31 06:55:07.1	87.770	-0.230	0.670	0.670
2020/01/31 06:55:07.2	87.750	-0.260	0.650	0.660
2020/01/31 06:55:07.3	87.730	-0.280	0.620	0.650
2020/01/31 06:55:07.4	87.710	-0.310	0.580	0.640
2020/01/31 06:55:07.5	87.690	-0.330	0.530	0.620
2020/01/31 06:55:07.6	87.670	-0.340	0.480	0.600
2020/01/31 06:55:07.7	87.650	-0.360	0.430	0.570
2020/01/31 06:55:07.8	87.630	-0.370	0.360	0.550
2020/01/31 06:55:07.9	87.620	-0.370	0.300	0.520
2020/01/31 06:55:08.0	87.610	-0.370	0.220	0.490
2020/01/31 06:55:08.1	87.600	-0.370	0.150	0.460
2020/01/31 06:55:08.2	87.590	-0.370	0.060	0.420
2020/01/31 06:55:08.3	87.580	-0.360	-0.020	0.390
2020/01/31 06:55:08.4	87.570	-0.340	-0.110	0.350
2020/01/31 06:55:08.5	87.570	-0.330	-0.190	0.310
2020/01/31 06:55:08.6	87.570	-0.310	-0.280	0.270
2020/01/31 06:55:08.7	87.560	-0.290	-0.370	0.230
2020/01/31 06:55:08.8	87.570	-0.260	-0.450	0.200
2020/01/31 06:55:08.9	87.570	-0.230	-0.540	0.160
2020/01/31 06:55:09.0	87.570	-0.200	-0.620	0.120
2020/01/31 06:55:09.1	87.580	-0.170	-0.700	0.080
2020/01/31 06:55:09.2	87.600	-0.140	-0.780	0.040
2020/01/31 06:55:09.3	87.610	-0.100	-0.850	0.010
2020/01/31 06:55:09.4	87.620	-0.060	-0.910	-0.030
2020/01/31 06:55:09.5	87.640	-0.030	-0.970	-0.060
2020/01/31 06:55:09.6	87.650	0.010	-1.030	-0.090
2020/01/31 06:55:09.7	87.670	0.050	-1.070	-0.130
2020/01/31 06:55:09.8	87.690	0.080	-1.110	-0.160
2020/01/31 06:55:09.9	87.710	0.120	-1.140	-0.180
2020/01/31 06:55:10.0	87.730	0.150	-1.160	-0.210
2020/01/31 06:55:10.1	87.750	0.180	-1.180	-0.230
2020/01/31 06:55:10.2	87.770	0.210	-1.190	-0.250
2020/01/31 06:55:10.3	87.800	0.240	-1.180	-0.260
2020/01/31 06:55:10.4	87.820	0.270	-1.180	-0.280
2020/01/31 06:55:10.5	87.840	0.290	-1.160	-0.290
2020/01/31 06:55:10.6	87.860	0.310	-1.130	-0.290
2020/01/31 06:55:10.7	87.880	0.330	-1.100	-0.290
2020/01/31 06:55:10.8	87.900	0.340	-1.060	-0.290
2020/01/31 06:55:10.9	87.920	0.350	-1.010	-0.280
2020/01/31 06:55:11.0	87.940	0.360	-0.950	-0.270
2020/01/31 06:55:11.1	87.950	0.370	-0.890	-0.260
2020/01/31 06:55:11.2	87.970	0.370	-0.820	-0.240
2020/01/31 06:55:11.3	87.980	0.360	-0.750	-0.220
2020/01/31 06:55:11.4	87.990	0.360	-0.680	-0.190
2020/01/31 06:55:11.5	88.000	0.350	-0.600	-0.170
2020/01/31 06:55:11.6	88.010	0.330	-0.510	-0.140
2020/01/31 06:55:11.7	88.020	0.320	-0.430	-0.100
2020/01/31 06:55:11.8	88.020	0.300	-0.340	-0.070
2020/01/31 06:55:11.9	88.030	0.270	-0.260	-0.030
2020/01/31 06:55:12.0	88.040	0.250	-0.170	0.000
2020/01/31 06:55:12.1	88.040	0.220	-0.080	0.040
2020/01/31 06:55:12.2	88.040	0.190	0.000	0.080
2020/01/31 06:55:12.3	88.050	0.160	0.080	0.120
2020/01/31 06:55:12.4	88.050	0.130	0.160	0.160
2020/01/31 06:55:12.5	88.060	0.100	0.240	0.200
2020/01/31 06:55:12.6	88.070	0.070	0.300	0.240
2020/01/31 06:55:12.7	88.070	0.030	0.370	0.280
2020/01/31 06:55:12.8	88.080	0.000	0.430	0.320
2020/01/31 06:55:12.9	88.090	-0.030	0.480	0.350
2020/01/31 06:55:13.0	88.100	-0.060	0.530	0.390
2020/01/31 06:55:13.1	88.100	-0.090	0.560	0.430
2020/01/31 06:55:13.2	88.100	-0.120	0.590	0.460
2020/01/31 06:55:13.3	88.110	-0.150	0.620	0.500
2020/01/31 06:55:13.4	88.120	-0.180	0.640	0.530
2020/01/31 06:55:13.5	88.130	-0.200	0.650	0.570
2020/01/31 06:55:13.6	88.140	-0.220	0.650	0.600
2020/01/31 06:55:13.7	88.150	-0.240	0.650	0.630
2020/01/31 06:55:13.8	88.160	-0.260	0.640	0.670
2020/01/31 06:55:13.9	88.160	-0.270	0.620	0.700
2020/01/31 06:55:14.0	88.170	-0.290	0.600	0.740
2020/01/31 06:55:14.1	88.170	-0.300	0.570	0.770
2020/01/31 06:55:14.2	88.170	-0.300	0.540	0.800
2020/01/31 06:55:14.3	88.180	-0.310	0.500	0.840
2020/01/31 06:55:14.4	88.180	-0.310	0.460	0.880
2020/01/31 06:55:14.5	88.180	-0.310	0.420	0.910
2020/01/31 06:55:14.6	88.180	-0.310	0.370	0.950
2020/01/31 06:55:14.7	88.180	-0.310	0.320	0.990
2020/01/31 06:55:14.8	88.170	-0.300	0.270	1.030
2020/01/31 06:55:14.9	88.170	-0.290	0.220	1.060
2020/01/31 06:55:15.0	88.170	-0.280	0.170	1.100
2020/01/31 06:55:15.1	88.160	-0.270	0.120	1.140
2020/01/31 06:55:15.2	88.160	-0.260	0.060	1.170
2020/01/31 06:55:15.3	88.150	-0.250	0.010	1.210
2020/01/31 06:55:15.4	88.140	-0.240	-0.030	1.240
2020/01/31 06:55:15.5	88.130	-0.230	-0.080	1.270
2020/01/31 06:55:15.6	88.120	-0.210	-0.120	1.300
2020/01/31 06:55:15.7	88.110	-0.200	-0.160	1.330
2020/01/31 06:55:15.8	88.100	-0.190	-0.200	1.350
2020/01/31 06:55:15.9	88.090	-0.170	-0.230	1.370
2020/01/31 06:55:16.0	88.080	-0.160	-0.260	1.400
2020/01/31 06:55:16.1	88.070	-0.150	-0.290	1.410
2020/01/31 06:55:16.2	88.060	-0.140	-0.310	1.430
2020/01/31 06:55:16.3	88.050	-0.120	-0.330	1.440
2020/01/31 06:55:16.4	88.040	-0.110	-0.350	1.450
2020/01/31 06:55:16.5	88.030	-0.100	-0.360	1.460
2020/01/31 06:55:16.6	88.020	-0.090	-0.370	1.470
2020/01/31 06:55:16.7	88.010	-0.080	-0.380	1.470
2020/01/31 06:55:16.8	88.000	-0.070	-0.390	1.470
2020/01/31 06:55:16.9	87.990	-0.060	-0.390	1.470
2020/01/31 06:55:17.0	87.980	-0.050	-0.390	1.470
2020/01/31 06:55:17.1	87.980	-0.040	-0.400	1.460
2020/01/31 06:55:17.2	87.970	-0.030	-0.400	1.440
2020/01/31 06:55:17.3	87.970	-0.020	-0.400	1.430
2020/01/31 06:55:17.4	87.960	-0.010	-0.400	1.420
2020/01/31 06:55:17.5	87.960	0.000	-0.390	1.400
2020/01/31 06:55:17.6	87.960	0.010	-0.390	1.380
2020/01/31 06:55:17.7	87.970	0.020	-0.390	1.360
2020/01/31 06:55:17.8	87.970	0.040	-0.390	1.330
2020/01/31 06:55:17.9	87.980	0.050	-0.390	1.310
2020/01/31 06:55:18.0	87.980	0.060	-0.390	1.280
2020/01/31 06:55:18.1	87.990	0.070	-0.390	1.250
2020/01/31 06:55:18.2	88.000	0.090	-0.390	1.210
2020/01/31 06:55:18.3	88.020	0.100	-0.400	1.180
2020/01/31 06:55:18.4	88.030	0.110	-0.400	1.140
2020/01/31 06:55:18.5	88.050	0.130	-0.400	1.100
2020/01/31 06:55:18.6	88.070	0.140	-0.410	1.060
2020/01/31 06:55:18.7	88.090	0.160	-0.410	1.020
2020/01/31 06:55:18.8	88.110	0.170	-0.420	0.970
2020/01/31 06:55:18.9	88.130	0.190	-0.420	0.930
2020/01/31 06:55:19.0	88.160	0.200	-0.430	0.880
2020/01/31 06:55:19.1	88.190	0.210	-0.430	0.830
2020/01/31 06:55:19.2	88.210	0.230	-0.440	0.780
2020/01/31 06:55:19.3	88.230	0.240	-0.440	0.740
2020/01/31 06:55:19.4	88.260	0.260	-0.440	0.690
2020/01/31 06:55:19.5	88.290	0.270	-0.440	0.640
2020/01/31 06:55:19.6	88.330	0.280	-0.440	0.590
2020/01/31 06:55:19.7	88.360	0.290	-0.430	0.540
2020/01/31 06:55:19.8	88.390	0.300	-0.430	0.490
2020/01/31 06:55:19.9	88.420	0.310	-0.420	0.440
2020/01/31 06:55:20.0	88.450	0.310	-0.410	0.400
2020/01/31 06:55:20.1	88.480	0.320	-0.390	0.360
2020/01/31 06:55:20.2	88.510	0.320	-0.370	0.310
2020/01/31 06:55:20.3	88.530	0.320	-0.350	0.270
2020/01/31 06:55:20.4	88.560	0.320	-0.330	0.230
2020/01/31 06:55:20.5	88.580	0.310	-0.300	0.200
2020/01/31 06:55:20.6	88.610	0.310	-0.280	0.160
2020/01/31 06:55:20.7	88.630	0.300	-0.240	0.130
2020/01/31 06:55:20.8	88.640	0.290	-0.210	0.110
2020/01/31 06:55:20.9	88.660	0.270	-0.180	0.080
2020/01/31 06:55:21.0	88.670	0.250	-0.140	0.060
2020/01/31 06:55:21.1	88.680	0.240	-0.100	0.040
2020/01/31 06:55:21.2	88.690	0.210	-0.060	0.030
2020/01/31 06:55:21.3	88.700	0.190	-0.020	0.020
2020/01/31 06:55:21.4	88.700	0.160	0.020	0.010
2020/01/31 06:55:21.5	88.700	0.140	0.070	0.010
2020/01/31 06:55:21.6	88.700	0.110	0.110	0.010
2020/01/31 06:55:21.7	88.700	0.080	0.150	0.010
2020/01/31 06:55:21.8	88.690	0.040	0.190	0.020
2020/01/31 06:55:21.9	88.680	0.010	0.220	0.030
2020/01/31 06:55:22.0	88.670	-0.020	0.260	0.050
2020/01/31 06:55:22.1	88.660	-0.060	0.290	0.070
2020/01/31 06:55:22.2	88.660	-0.090	0.330	0.090
2020/01/31 06:55:22.3	88.640	-0.130	0.350	0.120
2020/01/31 06:55:22.4	88.620	-0.160	0.380	0.150
2020/01/31 06:55:22.5	88.600	-0.190	0.400	0.180
2020/01/31 06:55:22.6	88.580	-0.230	0.420	0.220
2020/01/31 06:55:22.7	88.560	-0.260	0.430	0.250
2020/01/31 06:55:22.8	88.540	-0.290	0.440	0.290
2020/01/31 06:55:22.9	88.520	-0.320	0.450	0.330
2020/01/31 06:55:23.0	88.510	-0.340	0.450	0.370
2020/01/31 06:55:23.1	88.490	-0.360	0.440	0.410
2020/01/31 06:55:23.2	88.470	-0.380	0.430	0.460
2020/01/31 06:55:23.3	88.460	-0.400	0.420	0.500
2020/01/31 06:55:23.4	88.450	-0.420	0.400	0.540
2020/01/31 06:55:23.5	88.430	-0.430	0.380	0.580
2020/01/31 06:55:23.6	88.430	-0.440	0.350	0.610
2020/01/31 06:55:23.7	88.420	-0.440	0.310	0.650
2020/01/31 06:55:23.8	88.410	-0.440	0.280	0.680
2020/01/31 06:55:23.9	88.410	-0.440	0.230	0.720
2020/01/31 06:55:24.0	88.410	-0.440	0.190	0.750
2020/01/31 06:55:24.1	88.410	-0.430	0.140	0.770
2020/01/31 06:55:24.2	88.410	-0.410	0.080	0.800
2020/01/31 06:55:24.3	88.420	-0.400	0.030	0.820
2020/01/31 06:55:24.4	88.420	-0.380	-0.030	0.840
2020/01/31 06:55:24.5	88.430	-0.360	-0.090	0.860
2020/01/31 06:55:24.6	88.440	-0.340	-0.160	0.880
2020/01/31 06:55:24.7	88.450	-0.310	-0.220	0.900
2020/01/31 06:55:24.8	88.450	-0.280	-0.290	0.910
2020/01/31 06:55:24.9	88.470	-0.250	-0.350	0.920
2020/01/31 06:55:25.0	88.480	-0.220	-0.420	0.920
2020/01/31 06:55:25.1	88.490	-0.180	-0.490	0.930
2020/01/31 06:55:25.2	88.500	-0.140	-0.560	0.930
2020/01/31 06:55:25.3	88.510	-0.100	-0.620	0.930
2020/01/31 06:55:25.4	88.530	-0.070	-0.690	0.920
2020/01/31 06:55:25.5	88.540	-0.030	-0.750	0.920
2020/01/31 06:55:25.6	88.550	0.010	-0.810	0.910
2020/01/31 06:55:25.7	88.570	0.060	-0.860	0.900
2020/01/31 06:55:25.8	88.580	0.100	-0.910	0.890
2020/01/31 06:55:25.9	88.600	0.140	-0.950	0.880
2020/01/31 06:55:26.0	88.610	0.170	-0.990	0.860
2020/01/31 06:55:26.1	88.620	0.210	-1.030	0.850
2020/01/31 06:55:26.2	88.640	0.250	-1.050	0.830
2020/01/31 06:55:26.3	88.650	0.280	-1.070	0.820
2020/01/31 06:55:26.4	88.660	0.310	-1.080	0.800
2020/01/31 06:55:26.5	88.680	0.340	-1.090	0.790
2020/01/31 06:55:26.6	88.690	0.370	-1.080	0.770
2020/01/31 06:55:26.7	88.700	0.400	-1.070	0.760
2020/01/31 06:55:26.8	88.700	0.420	-1.050	0.750
2020/01/31 06:55:26.9	88.710	0.440	-1.020	0.740
2020/01/31 06:55:27.0	88.720	0.450	-0.980	0.740
2020/01/31 06:55:27.1	88.720	0.460	-0.940	0.740
2020/01/31 06:55:27.2	88.720	0.470	-0.890	0.740
2020/01/31 06:55:27.3	88.720	0.480	-0.830	0.740
2020/01/31 06:55:27.4	88.720	0.480	-0.760	0.740
2020/01/31 06:55:27.5	88.720	0.470	-0.680	0.750
2020/01/31 06:55:27.6	88.720	0.470	-0.600	0.760
2020/01/31 06:55:27.7	88.710	0.460	-0.520	0.770
2020/01/31 06:55:27.8	88.700	0.440	-0.430	0.790
2020/01/31 06:55:27.9	88.690	0.420	-0.340	0.810
2020/01/31 06:55:28.0	88.680	0.400	-0.240	0.820
2020/01/31 06:55:28.1	88.670	0.380	-0.140	0.850
2020/01/31 06:55:28.2	88.640	0.360	-0.040	0.870
2020/01/31 06:55:28.3	88.630	0.330	0.050	0.890
2020/01/31 06:55:28.4	88.610	0.300	0.150	0.920
2020/01/31 06:55:28.5	88.590	0.270	0.240	0.940
2020/01/31 06:55:28.6	88.570	0.230	0.330	0.970
2020/01/31 06:55:28.7	88.550	0.200	0.410	1.000
2020/01/31 06:55:28.8	88.530	0.170	0.490	1.020
2020/01/31 06:55:28.9	88.510	0.130	0.570	1.050
2020/01/31 06:55:29.0	88.490	0.100	0.630	1.080
2020/01/31 06:55:29.1	88.460	0.060	0.690	1.100
2020/01/31 06:55:29.2	88.440	0.030	0.740	1.120
2020/01/31 06:55:29.3	88.420	-0.000	0.780	1.140
2020/01/31 06:55:29.4	88.400	-0.030	0.820	1.160
2020/01/31 06:55:29.5	88.380	-0.060	0.840	1.180
2020/01/31 06:55:29.6	88.360	-0.090	0.850	1.190
2020/01/31 06:55:29.7	88.350	-0.110	0.850	1.200
2020/01/31 06:55:29.8	88.330	-0.130	0.850	1.210
2020/01/31 06:55:29.9	88.320	-0.150	0.830	1.220
2020/01/31 06:55:30.0	88.310	-0.170	0.810	1.220
2020/01/31 06:55:30.1	88.310	-0.180	0.770	1.220
2020/01/31 06:55:30.2	88.290	-0.190	0.730	1.220
2020/01/31 06:55:30.3	88.290	-0.200	0.680	1.210
2020/01/31 06:55:30.4	88.290	-0.200	0.620	1.200
2020/01/31 06:55:30.5	88.290	-0.200	0.560	1.190
2020/01/31 06:55:30.6	88.290	-0.200	0.490	1.180
2020/01/31 06:55:30.7	88.300	-0.200	0.410	1.160
2020/01/31 06:55:30.8	88.300	-0.190	0.330	1.140
2020/01/31 06:55:30.9	88.310	-0.180	0.250	1.120
2020/01/31 06:55:31.0	88.320	-0.170	0.170	1.100
2020/01/31 06:55:31.1	88.330	-0.150	0.080	1.070
2020/01/31 06:55:31.2	88.340	-0.140	-0.010	1.040
2020/01/31 06:55:31.3	88.350	-0.120	-0.100	1.020
2020/01/31 06:55:31.4	88.370	-0.100	-0.180	0.980
2020/01/31 06:55:31.5	88.380	-0.080	-0.270	0.950
2020/01/31 06:55:31.6	88.400	-0.060	-0.350	0.920
2020/01/31 06:55:31.7	88.410	-0.040	-0.430	0.890
2020/01/31 06:55:31.8	88.430	-0.020	-0.500	0.850
2020/01/31 06:55:31.9	88.450	0.000	-0.570	0.810
2020/01/31 06:55:32.0	88.470	0.020	-0.630	0.780
2020/01/31 06:55:32.1	88.480	0.040	-0.690	0.740
2020/01/31 06:55:32.2	88.510	0.050	-0.740	0.710
2020/01/31 06:55:32.3	88.530	0.070	-0.780	0.670
2020/01/31 06:55:32.4	88.550	0.080	-0.810	0.630
2020/01/31 06:55:32.5	88.560	0.090	-0.840	0.600
2020/01/31 06:55:32.6	88.580	0.100	-0.860	0.560
2020/01/31 06:55:32.7	88.590	0.110	-0.880	0.530
2020/01/31 06:55:32.8	88.600	0.110	-0.880	0.500
2020/01/31 06:55:32.9	88.610	0.120	-0.880	0.470
2020/01/31 06:55:33.0	88.630	0.110	-0.870	0.440
2020/01/31 06:55:33.1	88.630	0.110	-0.860	0.410
2020/01/31 06:55:33.2	88.640	0.100	-0.830	0.390
2020/01/31 06:55:33.3	88.650	0.090	-0.800	0.370
2020/01/31 06:55:33.4	88.650	0.080	-0.770	0.350
2020/01/31 06:55:33.5	88.650	0.060	-0.730	0.330
2020/01/31 06:55:33.6	88.650	0.050	-0.680	0.320
2020/01/31 06:55:33.7	88.650	0.030	-0.630	0.310
2020/01/31 06:55:33.8	88.640	0.010	-0.580	0.300
2020/01/31 06:55:33.9	88.640	-0.020	-0.520	0.290
2020/01/31 06:55:34.0	88.630	-0.040	-0.460	0.290
2020/01/31 06:55:34.1	88.620	-0.070	-0.400	0.290
2020/01/31 06:55:34.2	88.610	-0.100	-0.330	0.300
2020/01/31 06:55:34.3	88.600	-0.130	-0.270	0.300
2020/01/31 06:55:34.4	88.580	-0.160	-0.200	0.310
2020/01/31 06:55:34.5	88.560	-0.190	-0.140	0.320
2020/01/31 06:55:34.6	88.540	-0.220	-0.070	0.340
2020/01/31 06:55:34.7	88.520	-0.240	-0.010	0.350
2020/01/31 06:55:34.8	88.500	-0.270	0.050	0.370
2020/01/31 06:55:34.9	88.480	-0.300	0.110	0.390
2020/01/31 06:55:35.0	88.460	-0.320	0.160	0.410
2020/01/31 06:55:35.1	88.440	-0.350	0.210	0.420
2020/01/31 06:55:35.2	88.420	-0.370	0.260	0.440
2020/01/31 06:55:35.3	88.400	-0.390	0.310	0.460
2020/01/31 06:55:35.4	88.370	-0.410	0.350	0.480
2020/01/31 06:55:35.5	88.350	-0.420	0.380	0.490
2020/01/31 06:55:35.6	88.330	-0.430	0.410	0.510
2020/01/31 06:55:35.7	88.310	-0.440	0.430	0.520
2020/01/31 06:55:35.8	88.290	-0.450	0.450	0.540
2020/01/31 06:55:35.9	88.270	-0.450	0.460	0.550
2020/01/31 06:55:36.0	88.260	-0.450	0.460	0.550
2020/01/31 06:55:36.1	88.240	-0.440	0.460	0.560
2020/01/31 06:55:36.2	88.220	-0.430	0.450	0.570
2020/01/31 06:55:36.3	88.210	-0.420	0.440	0.570
2020/01/31 06:55:36.4	88.200	-0.410	0.420	0.570
2020/01/31 06:55:36.5	88.190	-0.390	0.390	0.560
2020/01/31 06:55:36.6	88.190	-0.370	0.360	0.560
2020/01/31 06:55:36.7	88.180	-0.350	0.320	0.550
2020/01/31 06:55:36.8	88.180	-0.320	0.280	0.540
2020/01/31 06:55:36.9	88.180	-0.290	0.240	0.530
2020/01/31 06:55:37.0	88.180	-0.260	0.190	0.520
2020/01/31 06:55:37.1	88.180	-0.230	0.140	0.500
2020/01/31 06:55:37.2	88.180	-0.200	0.090	0.480
2020/01/31 06:55:37.3	88.180	-0.160	0.040	0.470
2020/01/31 06:55:37.4	88.190	-0.120	-0.020	0.450
2020/01/31 06:55:37.5	88.190	-0.090	-0.070	0.430
2020/01/31 06:55:37.6	88.200	-0.050	-0.130	0.410
2020/01/31 06:55:37.7	88.210	-0.010	-0.180	0.400
2020/01/31 06:55:37.8	88.210	0.030	-0.240	0.380
2020/01/31 06:55:37.9	88.220	0.070	-0.290	0.360
2020/01/31 06:55:38.0	88.230	0.100	-0.350	0.340
2020/01/31 06:55:38.1	88.240	0.140	-0.400	0.320
2020/01/31 06:55:38.2	88.250	0.180	-0.450	0.300
2020/01/31 06:55:38.3	88.260	0.210	-0.490	0.290
2020/01/31 06:55:38.4	88.260	0.240	-0.530	0.270
2020/01/31 06:55:38.5	88.270	0.280	-0.570	0.260
2020/01/31 06:55:38.6	88.280	0.300	-0.600	0.240
2020/01/31 06:55:38.7	88.280	0.330	-0.630	0.230
2020/01/31 06:55:38.8	88.290	0.360	-0.660	0.210
2020/01/31 06:55:38.9	88.300	0.380	-0.680	0.200
2020/01/31 06:55:39.0	88.300	0.400	-0.700	0.190
2020/01/31 06:55:39.1	88.310	0.420	-0.710	0.170
2020/01/31 06:55:39.2	88.320	0.430	-0.720	0.160
2020/01/31 06:55:39.3	88.320	0.450	-0.720	0.150
2020/01/31 06:55:39.4	88.330	0.460	-0.720	0.140
2020/01/31 06:55:39.5	88.340	0.460	-0.720	0.130
2020/01/31 06:55:39.6	88.340	0.470	-0.710	0.120
2020/01/31 06:55:39.7	88.350	0.470	-0.700	0.110
2020/01/31 06:55:39.8	88.350	0.470	-0.690	0.090
2020/01/31 06:55:39.9	88.360	0.460	-0.680	0.080
2020/01/31 06:55:40.0	88.360	0.460	-0.660	0.070
2020/01/31 06:55:40.1	88.360	0.450	-0.640	0.060
2020/01/31 06:55:40.2	88.370	0.440	-0.610	0.050
2020/01/31 06:55:40.3	88.370	0.430	-0.590	0.040
2020/01/31 06:55:40.4	88.380	0.410	-0.560	0.040
2020/01/31 06:55:40.5	88.380	0.390	-0.540	0.030
2020/01/31 06:55:40.6	88.380	0.380	-0.510	0.020
2020/01/31 06:55:40.7	88.380	0.360	-0.480	0.020
2020/01/31 06:55:40.8	88.380	0.330	-0.440	0.010
2020/01/31 06:55:40.9	88.370	0.310	-0.410	0.010
2020/01/31 06:55:41.0	88.370	0.290	-0.380	0.010
2020/01/31 06:55:41.1	88.370	0.260	-0.340	0.010
2020/01/31 06:55:41.2	88.360	0.230	-0.310	0.020
2020/01/31 06:55:41.3	88.350	0.210	-0.270	0.020
2020/01/31 06:55:41.4	88.350	0.180	-0.240	0.030
2020/01/31 06:55:41.5	88.340	0.150	-0.200	0.030
2020/01/31 06:55:41.6	88.330	0.120	-0.170	0.040
2020/01/31 06:55:41.7	88.320	0.090	-0.130	0.060
2020/01/31 06:55:41.8	88.310	0.060	-0.100	0.070
2020/01/31 06:55:41.9	88.290	0.030	-0.060	0.080
2020/01/31 06:55:42.0	88.280	-0.000	-0.030	0.100
2020/01/31 06:55:42.1	88.270	-0.030	0.010	0.120
2020/01/31 06:55:42.2	88.250	-0.060	0.040	0.140
2020/01/31 06:55:42.3	88.240	-0.090	0.070	0.160
2020/01/31 06:55:42.4	88.220	-0.120	0.100	0.190
2020/01/31 06:55:42.5	88.210	-0.140	0.140	0.210
2020/01/31 06:55:42.6	88.190	-0.170	0.170	0.240
2020/01/31 06:55:42.7	88.180	-0.200	0.190	0.270
2020/01/31 06:55:42.8	88.170	-0.220	0.220	0.300
2020/01/31 06:55:42.9	88.160	-0.240	0.250	0.330
2020/01/31 06:55:43.0	88.140	-0.260	0.270	0.360
2020/01/31 06:55:43.1	88.130	-0.280	0.290	0.390
2020/01/31 06:55:43.2	88.120	-0.300	0.320	0.420
2020/01/31 06:55:43.3	88.110	-0.320	0.330	0.450
2020/01/31 06:55:43.4	88.100	-0.330	0.350	0.480
2020/01/31 06:55:43.5	88.090	-0.340	0.360	0.510
2020/01/31 06:55:43.6	88.090	-0.350	0.370	0.540
2020/01/31 06:55:43.7	88.080	-0.360	0.380	0.570
2020/01/31 06:55:43.8	88.080	-0.370	0.390	0.600
2020/01/31 06:55:43.9	88.080	-0.370	0.390	0.630
2020/01/31 06:55:44.0	88.070	-0.370	0.400	0.660
2020/01/31 06:55:44.1	88.070	-0.370	0.390	0.690
2020/01/31 06:55:44.2	88.070	-0.370	0.390	0.710
2020/01/31 06:55:44.3	88.070	-0.360	0.380	0.740
2020/01/31 06:55:44.4	88.070	-0.350	0.370	0.760
2020/01/31 06:55:44.5	88.080	-0.340	0.360	0.780
2020/01/31 06:55:44.6	88.080	-0.330	0.350	0.800
2020/01/31 06:55:44.7	88.080	-0.320	0.330	0.820
2020/01/31 06:55:44.8	88.090	-0.300	0.310	0.830
2020/01/31 06:55:44.9	88.090	-0.290	0.280	0.850
2020/01/31 06:55:45.0	88.100	-0.270	0.250	0.860
2020/01/31 06:55:45.1	88.110	-0.250	0.220	0.860
2020/01/31 06:55:45.2	88.120	-0.220	0.190	0.870
2020/01/31 06:55:45.3	88.120	-0.200	0.150	0.870
2020/01/31 06:55:45.4	88.140	-0.180	0.110	0.870
2020/01/31 06:55:45.5	88.150	-0.150	0.070	0.870
2020/01/31 06:55:45.6	88.160	-0.120	0.020	0.860
2020/01/31 06:55:45.7	88.170	-0.090	-0.020	0.850
2020/01/31 06:55:45.8	88.190	-0.060	-0.070	0.840
2020/01/31 06:55:45.9	88.200	-0.030	-0.120	0.820
2020/01/31 06:55:46.0	88.220	-0.000	-0.170	0.810
2020/01/31 06:55:46.1	88.240	0.030	-0.230	0.790
2020/01/31 06:55:46.2	88.250	0.060	-0.280	0.760
2020/01/31 06:55:46.3	88.270	0.090	-0.340	0.740
2020/01/31 06:55:46.4	88.290	0.110	-0.390	0.710
2020/01/31 06:55:46.5	88.320	0.140	-0.440	0.690
2020/01/31 06:55:46.6	88.340	0.170	-0.490	0.660
2020/01/31 06:55:46.7	88.370	0.200	-0.540	0.640
2020/01/31 06:55:46.8	88.390	0.220	-0.590	0.610
2020/01/31 06:55:46.9	88.420	0.250	-0.630	0.590
2020/01/31 06:55:47.0	88.450	0.270	-0.670	0.570
2020/01/31 06:55:47.1	88.470	0.290	-0.710	0.550
2020/01/31 06:55:47.2	88.500	0.310	-0.740	0.530
2020/01/31 06:55:47.3	88.530	0.330	-0.770	0.510
2020/01/31 06:55:47.4	88.550	0.340	-0.800	0.500
2020/01/31 06:55:47.5	88.570	0.350	-0.820	0.490
2020/01/31 06:55:47.6	88.590	0.360	-0.840	0.480
2020/01/31 06:55:47.7	88.610	0.370	-0.850	0.470
2020/01/31 06:55:47.8	88.630	0.380	-0.850	0.470
2020/01/31 06:55:47.9	88.650	0.380	-0.860	0.470
2020/01/31 06:55:48.0	88.660	0.380	-0.850	0.470
2020/01/31 06:55:48.1	88.670	0.380	-0.840	0.480
2020/01/31 06:55:48.2	88.690	0.370	-0.830	0.490
2020/01/31 06:55:48.3	88.700	0.360	-0.810	0.500
2020/01/31 06:55:48.4	88.710	0.350	-0.780	0.510
2020/01/31 06:55:48.5	88.720	0.340	-0.750	0.530
2020/01/31 06:55:48.6	88.730	0.320	-0.720	0.550
2020/01/31 06:55:48.7	88.730	0.300	-0.680	0.560
2020/01/31 06:55:48.8	88.740	0.280	-0.630	0.590
2020/01/31 06:55:48.9	88.740	0.260	-0.590	0.610
2020/01/31 06:55:49.0	88.740	0.230	-0.530	0.630
2020/01/31 06:55:49.1	88.740	0.210	-0.470	0.660
2020/01/31 06:55:49.2	88.740	0.180	-0.410	0.680
2020/01/31 06:55:49.3	88.730	0.150	-0.350	0.710
2020/01/31 06:55:49.4	88.730	0.120	-0.280	0.740
2020/01/31 06:55:49.5	88.720	0.080	-0.220	0.760
2020/01/31 06:55:49.6	88.710	0.050	-0.150	0.790
2020/01/31 06:55:49.7	88.700	0.010	-0.070	0.820
2020/01/31 06:55:49.8	88.680	-0.020	-0.000	0.850
2020/01/31 06:55:49.9	88.670	-0.060	0.070	0.880
2020/01/31 06:55:50.0	88.650	-0.090	0.140	0.910
2020/01/31 06:55:50.1	88.630	-0.130	0.210	0.940
2020/01/31 06:55:50.2	88.600	-0.170	0.290	0.970
2020/01/31 06:55:50.3	88.580	-0.210	0.350	1.000
2020/01/31 06:55:50.4	88.560	-0.240	0.420	1.020
2020/01/31 06:55:50.5	88.530	-0.280	0.480	1.050
2020/01/31 06:55:50.6	88.510	-0.310	0.540	1.080
2020/01/31 06:55:50.7	88.480	-0.350	0.600	1.110
2020/01/31 06:55:50.8	88.450	-0.380	0.650	1.130
2020/01/31 06:55:50.9	88.420	-0.420	0.700	1.160
2020/01/31 06:55:51.0	88.390	-0.450	0.740	1.180
2020/01/31 06:55:51.1	88.360	-0.480	0.780	1.200
2020/01/31 06:55:51.2	88.340	-0.500	0.810	1.220
2020/01/31 06:55:51.3	88.310	-0.530	0.830	1.230
2020/01/31 06:55:51.4	88.280	-0.550	0.850	1.240
2020/01/31 06:55:51.5	88.250	-0.580	0.860	1.250
2020/01/31 06:55:51.6	88.220	-0.600	0.860	1.260
2020/01/31 06:55:51.7	88.190	-0.610	0.860	1.260
2020/01/31 06:55:51.8	88.160	-0.630	0.850	1.260
2020/01/31 06:55:51.9	88.130	-0.640	0.830	1.260
2020/01/31 06:55:52.0	88.100	-0.640	0.800	1.260
2020/01/31 06:55:52.1	88.080	-0.650	0.770	1.250
2020/01/31 06:55:52.2	88.060	-0.650	0.720	1.230
2020/01/31 06:55:52.3	88.040	-0.640	0.680	1.220
2020/01/31 06:55:52.4	88.020	-0.630	0.620	1.200
2020/01/31 06:55:52.5	88.000	-0.620	0.560	1.180
2020/01/31 06:55:52.6	87.980	-0.610	0.490	1.160
2020/01/31 06:55:52.7	87.960	-0.580	0.410	1.140
2020/01/31 06:55:52.8	87.950	-0.560	0.330	1.110
2020/01/31 06:55:52.9	87.940	-0.530	0.250	1.080
2020/01/31 06:55:53.0	87.930	-0.500	0.160	1.050
2020/01/31 06:55:53.1	87.920	-0.460	0.060	1.010
2020/01/31 06:55:53.2	87.920	-0.420	-0.040	0.970
2020/01/31 06:55:53.3	87.920	-0.380	-0.140	0.930
2020/01/31 06:55:53.4	87.920	-0.330	-0.240	0.880
2020/01/31 06:55:53.5	87.920	-0.280	-0.340	0.830
2020/01/31 06:55:53.6	87.930	-0.220	-0.450	0.780
2020/01/31 06:55:53.7	87.940	-0.160	-0.550	0.720
2020/01/31 06:55:53.8	87.960	-0.100	-0.660	0.660
2020/01/31 06:55:53.9	87.980	-0.040	-0.760	0.590
2020/01/31 06:55:54.0	87.990	0.020	-0.860	0.530
2020/01/31 06:55:54.1	88.020	0.090	-0.960	0.460
2020/01/31 06:55:54.2	88.040	0.150	-1.060	0.380
2020/01/31 06:55:54.3	88.070	0.220	-1.150	0.310
2020/01/31 06:55:54.4	88.100	0.290	-1.240	0.230
2020/01/31 06:55:54.5	88.140	0.350	-1.320	0.150
2020/01/31 06:55:54.6	88.170	0.420	-1.390	0.070
2020/01/31 06:55:54.7	88.210	0.480	-1.460	-0.010
2020/01/31 06:55:54.8	88.250	0.540	-1.520	-0.090
2020/01/31 06:55:54.9	88.290	0.600	-1.570	-0.170
2020/01/31 06:55:55.0	88.340	0.660	-1.610	-0.240
2020/01/31 06:55:55.1	88.380	0.710	-1.640	-0.320
2020/01/31 06:55:55.2	88.430	0.760	-1.660	-0.390
2020/01/31 06:55:55.3	88.470	0.800	-1.670	-0.460
2020/01/31 06:55:55.4	88.510	0.840	-1.670	-0.530
2020/01/31 06:55:55.5	88.560	0.870	-1.660	-0.590
2020/01/31 06:55:55.6	88.600	0.900	-1.640	-0.650
2020/01/31 06:55:55.7	88.640	0.920	-1.610	-0.700
2020/01/31 06:55:55.8	88.670	0.940	-1.560	-0.750
2020/01/31 06:55:55.9	88.710	0.950	-1.500	-0.790
2020/01/31 06:55:56.0	88.740	0.950	-1.440	-0.820
2020/01/31 06:55:56.1	88.770	0.950	-1.360	-0.850
2020/01/31 06:55:56.2	88.790	0.940	-1.270	-0.870
2020/01/31 06:55:56.3	88.810	0.920	-1.170	-0.880
2020/01/31 06:55:56.4	88.830	0.890	-1.060	-0.880
2020/01/31 06:55:56.5	88.840	0.860	-0.940	-0.870
2020/01/31 06:55:56.6	88.850	0.820	-0.820	-0.860
2020/01/31 06:55:56.7	88.860	0.780	-0.690	-0.830
2020/01/31 06:55:56.8	88.860	0.730	-0.550	-0.800
2020/01/31 06:55:56.9	88.850	0.680	-0.410	-0.770
2020/01/31 06:55:57.0	88.840	0.620	-0.260	-0.720
2020/01/31 06:55:57.1	88.830	0.550	-0.110	-0.670
2020/01/31 06:55:57.2	88.810	0.480	0.040	-0.610
2020/01/31 06:55:57.3	88.790	0.410	0.200	-0.540
2020/01/31 06:55:57.4	88.760	0.330	0.350	-0.470
2020/01/31 06:55:57.5	88.730	0.260	0.500	-0.390
2020/01/31 06:55:57.6	88.700	0.180	0.650	-0.310
2020/01/31 06:55:57.7	88.660	0.090	0.790	-0.220
2020/01/31 06:55:57.8	88.620	0.010	0.930	-0.130
2020/01/31 06:55:57.9	88.580	-0.070	1.070	-0.040
2020/01/31 06:55:58.0	88.540	-0.160	1.200	0.050
2020/01/31 06:55:58.1	88.490	-0.240	1.320	0.150
2020/01/31 06:55:58.2	88.440	-0.320	1.430	0.250
2020/01/31 06:55:58.3	88.390	-0.400	1.530	0.340
2020/01/31 06:55:58.4	88.340	-0.470	1.630	0.440
2020/01/31 06:55:58.5	88.290	-0.540	1.710	0.540
2020/01/31 06:55:58.6	88.250	-0.610	1.770	0.630
2020/01/31 06:55:58.7	88.200	-0.670	1.830	0.720
2020/01/31 06:55:58.8	88.160	-0.730	1.860	0.810
2020/01/31 06:55:58.9	88.110	-0.790	1.890	0.890
2020/01/31 06:55:59.0	88.070	-0.830	1.900	0.970
2020/01/31 06:55:59.1	88.030	-0.870	1.890	1.050
2020/01/31 06:55:59.2	88.000	-0.910	1.870	1.120
2020/01/31 06:55:59.3	87.960	-0.930	1.830	1.190
2020/01/31 06:55:59.4	87.930	-0.950	1.780	1.250
2020/01/31 06:55:59.5	87.900	-0.970	1.710	1.300
2020/01/31 06:55:59.6	87.870	-0.970	1.620	1.350
2020/01/31 06:55:59.7	87.850	-0.970	1.520	1.390
2020/01/31 06:55:59.8	87.820	-0.960	1.410	1.430
2020/01/31 06:55:59.9	87.810	-0.950	1.290	1.460
2020/01/31 06:56:00.0	87.790	-0.920	1.150	1.490
2020/01/31 06:56:00.1	87.780	-0.900	1.000	1.510
2020/01/31 06:56:00.2	87.760	-0.860	0.840	1.520
2020/01/31 06:56:00.3	87.760	-0.820	0.670	1.530
2020/01/31 06:56:00.4	87.760	-0.770	0.500	1.540
2020/01/31 06:56:00.5	87.760	-0.720	0.320	1.530
2020/01/31 06:56:00.6	87.760	-0.670	0.140	1.530
2020/01/31 06:56:00.7	87.770	-0.610	-0.050	1.520
2020/01/31 06:56:00.8	87.780	-0.540	-0.230	1.510
2020/01/31 06:56:00.9	87.790	-0.480	-0.420	1.490
2020/01/31 06:56:01.0	87.810	-0.410	-0.600	1.470
2020/01/31 06:56:01.1	87.820	-0.330	-0.780	1.450
2020/01/31 06:56:01.2	87.850	-0.260	-0.970	1.420
2020/01/31 06:56:01.3	87.870	-0.190	-1.140	1.400
2020/01/31 06:56:01.4	87.890	-0.110	-1.300	1.370
2020/01/31 06:56:01.5	87.910	-0.040	-1.450	1.340
2020/01/31 06:56:01.6	87.940	0.040	-1.590	1.310
2020/01/31 06:56:01.7	87.960	0.110	-1.720	1.290
2020/01/31 06:56:01.8	87.980	0.180	-1.840	1.260
2020/01/31 06:56:01.9	88.000	0.250	-1.940	1.240
2020/01/31 06:56:02.0	88.020	0.320	-2.030	1.210
2020/01/31 06:56:02.1	88.030	0.380	-2.110	1.190
2020/01/31 06:56:02.2	88.060	0.440	-2.160	1.170
2020/01/31 06:56:02.3	88.080	0.500	-2.200	1.150
2020/01/31 06:56:02.4	88.090	0.550	-2.230	1.130
2020/01/31 06:56:02.5	88.100	0.600	-2.240	1.120
2020/01/31 06:56:02.6	88.110	0.640	-2.230	1.100
2020/01/31 06:56:02.7	88.120	0.680	-2.200	1.090
2020/01/31 06:56:02.8	88.120	0.710	-2.160	1.080
2020/01/31 06:56:02.9	88.130	0.740	-2.110	1.060
2020/01/31 06:56:03.0	88.130	0.760	-2.040	1.050
2020/01/31 06:56:03.1	88.130	0.780	-1.950	1.050
2020/01/31 06:56:03.2	88.130	0.790	-1.860	1.040
2020/01/31 06:56:03.3	88.130	0.790	-1.750	1.030
2020/01/31 06:56:03.4	88.130	0.790	-1.630	1.020
2020/01/31 06:56:03.5	88.120	0.790	-1.500	1.010
2020/01/31 06:56:03.6	88.110	0.780	-1.360	1.000
2020/01/31 06:56:03.7	88.110	0.760	-1.220	1.000
2020/01/31 06:56:03.8	88.100	0.740	-1.060	0.990
2020/01/31 06:56:03.9	88.090	0.720	-0.910	0.980
2020/01/31 06:56:04.0	88.080	0.690	-0.750	0.970
2020/01/31 06:56:04.1	88.080	0.650	-0.590	0.960
2020/01/31 06:56:04.2	88.060	0.610	-0.430	0.950
2020/01/31 06:56:04.3	88.050	0.570	-0.270	0.940
2020/01/31 06:56:04.4	88.040	0.530	-0.110	0.920
2020/01/31 06:56:04.5	88.030	0.480	0.040	0.910
2020/01/31 06:56:04.6	88.020	0.430	0.190	0.900
2020/01/31 06:56:04.7	88.000	0.380	0.330	0.880
2020/01/31 06:56:04.8	87.990	0.330	0.470	0.870
2020/01/31 06:56:04.9	87.970	0.280	0.600	0.850
2020/01/31 06:56:05.0	87.960	0.230	0.720	0.840
2020/01/31 06:56:05.1	87.940	0.170	0.830	0.820
2020/01/31 06:56:05.2	87.920	0.120	0.930	0.800
2020/01/31 06:56:05.3	87.910	0.070	1.020	0.780
2020/01/31 06:56:05.4	87.890	0.020	1.100	0.760
2020/01/31 06:56:05.5	87.870	-0.030	1.170	0.750
2020/01/31 06:56:05.6	87.850	-0.070	1.220	0.730
2020/01/31 06:56:05.7	87.830	-0.120	1.270	0.710
2020/01/31 06:56:05.8	87.810	-0.160	1.300	0.700
2020/01/31 06:56:05.9	87.790	-0.200	1.320	0.680
2020/01/31 06:56:06.0	87.770	-0.240	1.330	0.660
2020/01/31 06:56:06.1	87.760	-0.270	1.330	0.640
2020/01/31 06:56:06.2	87.740	-0.300	1.320	0.630
2020/01/31 06:56:06.3	87.730	-0.330	1.290	0.610
2020/01/31 06:56:06.4	87.710	-0.350	1.260	0.590
2020/01/31 06:56:06.5	87.700	-0.370	1.210	0.570
2020/01/31 06:56:06.6	87.690	-0.380	1.160	0.550
2020/01/31 06:56:06.7	87.680	-0.400	1.100	0.540
2020/01/31 06:56:06.8	87.670	-0.410	1.030	0.520
2020/01/31 06:56:06.9	87.660	-0.410	0.960	0.500
2020/01/31 06:56:07.0	87.650	-0.420	0.880	0.480
2020/01/31 06:56:07.1	87.640	-0.420	0.790	0.470
2020/01/31 06:56:07.2	87.640	-0.420	0.700	0.450
2020/01/31 06:56:07.3	87.630	-0.410	0.610	0.440
2020/01/31 06:56:07.4	87.630	-0.400	0.510	0.420
2020/01/31 06:56:07.5	87.620	-0.390	0.420	0.410
2020/01/31 06:56:07.6	87.620	-0.380	0.320	0.400
2020/01/31 06:56:07.7	87.620	-0.370	0.230	0.390
2020/01/31 06:56:07.8	87.620	-0.360	0.140	0.380
2020/01/31 06:56:07.9	87.620	-0.340	0.050	0.380
2020/01/31 06:56:08.0	87.620	-0.320	-0.040	0.370
2020/01/31 06:56:08.1	87.620	-0.310	-0.130	0.370
2020/01/31 06:56:08.2	87.610	-0.290	-0.210	0.360
2020/01/31 06:56:08.3	87.610	-0.270	-0.290	0.350
2020/01/31 06:56:08.4	87.610	-0.250	-0.360	0.350
2020/01/31 06:56:08.5	87.620	-0.230	-0.430	0.350
2020/01/31 06:56:08.6	87.620	-0.210	-0.490	0.350
2020/01/31 06:56:08.7	87.620	-0.200	-0.540	0.340
2020/01/31 06:56:08.8	87.630	-0.180	-0.590	0.340
2020/01/31 06:56:08.9	87.630	-0.160	-0.640	0.340
2020/01/31 06:56:09.0	87.640	-0.140	-0.670	0.340
2020/01/31 06:56:09.1	87.640	-0.130	-0.700	0.330
2020/01/31 06:56:09.2	87.650	-0.110	-0.730	0.330
2020/01/31 06:56:09.3	87.650	-0.100	-0.750	0.330
2020/01/31 06:56:09.4	87.650	-0.080	-0.760	0.320
2020/01/31 06:56:09.5	87.660	-0.070	-0.770	0.320
2020/01/31 06:56:09.6	87.660	-0.050	-0.770	0.320
2020/01/31 06:56:09.7	87.660	-0.040	-0.770	0.310
2020/01/31 06:56:09.8	87.660	-0.030	-0.770	0.310
2020/01/31 06:56:09.9	87.660	-0.020	-0.760	0.300
2020/01/31 06:56:10.0	87.660	-0.010	-0.750	0.300
2020/01/31 06:56:10.1	87.660	0.000	-0.740	0.300
2020/01/31 06:56:10.2	87.660	0.010	-0.720	0.290
2020/01/31 06:56:10.3	87.660	0.020	-0.700	0.290
2020/01/31 06:56:10.4	87.650	0.030	-0.690	0.280
2020/01/31 06:56:10.5	87.650	0.040	-0.670	0.280
2020/01/31 06:56:10.6	87.650	0.060	-0.650	0.270
2020/01/31 06:56:10.7	87.640	0.070	-0.620	0.270
2020/01/31 06:56:10.8	87.640	0.080	-0.600	0.270
2020/01/31 06:56:10.9	87.630	0.090	-0.580	0.260
2020/01/31 06:56:11.0	87.630	0.100	-0.560	0.260
2020/01/31 06:56:11.1	87.630	0.110	-0.540	0.260
2020/01/31 06:56:11.2	87.610	0.120	-0.530	0.260
2020/01/31 06:56:11.3	87.610	0.140	-0.510	0.260
2020/01/31 06:56:11.4	87.600	0.150	-0.490	0.270
2020/01/31 06:56:11.5	87.600	0.160	-0.480	0.270
2020/01/31 06:56:11.6	87.600	0.180	-0.460	0.270
2020/01/31 06:56:11.7	87.600	0.190	-0.450	0.280
2020/01/31 06:56:11.8	87.600	0.210	-0.440	0.290
2020/01/31 06:56:11.9	87.600	0.220	-0.430	0.300
2020/01/31 06:56:12.0	87.600	0.230	-0.420	0.310
2020/01/31 06:56:12.1	87.600	0.250	-0.410	0.320
2020/01/31 06:56:12.2	87.590	0.260	-0.400	0.330
2020/01/31 06:56:12.3	87.590	0.280	-0.390	0.350
2020/01/31 06:56:12.4	87.600	0.290	-0.390	0.360
2020/01/31 06:56:12.5	87.600	0.300	-0.380	0.380
2020/01/31 06:56:12.6	87.600	0.320	-0.370	0.400
2020/01/31 06:56:12.7	87.600	0.330	-0.370	0.410
2020/01/31 06:56:12.8	87.610	0.340	-0.360	0.430
2020/01/31 06:56:12.9	87.610	0.350	-0.350	0.450
2020/01/31 06:56:13.0	87.620	0.360	-0.340	0.480
2020/01/31 06:56:13.1	87.630	0.370	-0.330	0.500
2020/01/31 06:56:13.2	87.650	0.370	-0.330	0.520
2020/01/31 06:56:13.3	87.660	0.380	-0.310	0.540
2020/01/31 06:56:13.4	87.660	0.380	-0.300	0.560
2020/01/31 06:56:13.5	87.670	0.390	-0.290	0.590
2020/01/31 06:56:13.6	87.680	0.390	-0.270	0.610
2020/01/31 06:56:13.7	87.680	0.390	-0.260	0.630
2020/01/31 06:56:13.8	87.690	0.380	-0.240	0.660
2020/01/31 06:56:13.9	87.690	0.380	-0.220	0.680
2020/01/31 06:56:14.0	87.690	0.380	-0.200	0.710
2020/01/31 06:56:14.1	87.700	0.370	-0.180	0.740
2020/01/31 06:56:14.2	87.700	0.360	-0.160	0.770
2020/01/31 06:56:14.3	87.700	0.350	-0.140	0.790
2020/01/31 06:56:14.4	87.700	0.340	-0.110	0.820
2020/01/31 06:56:14.5	87.690	0.330	-0.090	0.850
2020/01/31 06:56:14.6	87.690	0.310	-0.060	0.880
2020/01/31 06:56:14.7	87.690	0.300	-0.040	0.900
2020/01/31 06:56:14.8	87.680	0.280	-0.010	0.930
2020/01/31 06:56:14.9	87.680	0.260	0.020	0.960
2020/01/31 06:56:15.0	87.670	0.240	0.050	0.990
2020/01/31 06:56:15.1	87.670	0.220	0.080	1.020
2020/01/31 06:56:15.2	87.650	0.190	0.110	1.040
2020/01/31 06:56:15.3	87.650	0.170	0.140	1.070
2020/01/31 06:56:15.4	87.640	0.140	0.170	1.090
2020/01/31 06:56:15.5	87.640	0.120	0.190	1.120
2020/01/31 06:56:15.6	87.630	0.090	0.220	1.140
2020/01/31 06:56:15.7	87.630	0.060	0.250	1.170
2020/01/31 06:56:15.8	87.620	0.030	0.280	1.190
2020/01/31 06:56:15.9	87.620	-0.000	0.300	1.210
2020/01/31 06:56:16.0	87.620	-0.030	0.330	1.230
2020/01/31 06:56:16.1	87.610	-0.060	0.350	1.250
2020/01/31 06:56:16.2	87.620	-0.100	0.370	1.270
2020/01/31 06:56:16.3	87.620	-0.130	0.390	1.280
2020/01/31 06:56:16.4	87.620	-0.160	0.410	1.300
2020/01/31 06:56:16.5	87.620	-0.190	0.430	1.310
2020/01/31 06:56:16.6	87.620	-0.220	0.440	1.330
2020/01/31 06:56:16.7	87.630	-0.250	0.450	1.340
2020/01/31 06:56:16.8	87.630	-0.280	0.460	1.350
2020/01/31 06:56:16.9	87.630	-0.310	0.460	1.350
2020/01/31 06:56:17.0	87.640	-0.340	0.470	1.360
2020/01/31 06:56:17.1	87.640	-0.360	0.470	1.360
2020/01/31 06:56:17.2	87.650	-0.390	0.460	1.370
2020/01/31 06:56:17.3	87.650	-0.410	0.450	1.370
2020/01/31 06:56:17.4	87.660	-0.430	0.440	1.370
2020/01/31 06:56:17.5	87.670	-0.450	0.430	1.360
2020/01/31 06:56:17.6	87.680	-0.470	0.410	1.360
2020/01/31 06:56:17.7	87.680	-0.480	0.390	1.360
2020/01/31 06:56:17.8	87.690	-0.490	0.370	1.350
2020/01/31 06:56:17.9	87.700	-0.500	0.350	1.340
2020/01/31 06:56:18.0	87.710	-0.510	0.320	1.330
2020/01/31 06:56:18.1	87.720	-0.520	0.290	1.320
2020/01/31 06:56:18.2	87.720	-0.520	0.250	1.310
2020/01/31 06:56:18.3	87.730	-0.520	0.220	1.300
2020/01/31 06:56:18.4	87.740	-0.510	0.180	1.280
2020/01/31 06:56:18.5	87.750	-0.510	0.140	1.270
2020/01/31 06:56:18.6	87.760	-0.500	0.100	1.250
2020/01/31 06:56:18.7	87.760	-0.490	0.060	1.240
2020/01/31 06:56:18.8	87.770	-0.470	0.020	1.220
2020/01/31 06:56:18.9	87.780	-0.460	-0.030	1.200
2020/01/31 06:56:19.0	87.790	-0.440	-0.080	1.180
2020/01/31 06:56:19.1	87.790	-0.420	-0.120	1.160
2020/01/31 06:56:19.2	87.800	-0.390	-0.170	1.130
2020/01/31 06:56:19.3	87.810	-0.370	-0.220	1.110
2020/01/31 06:56:19.4	87.820	-0.340	-0.270	1.090
2020/01/31 06:56:19.5	87.820	-0.310	-0.310	1.060
2020/01/31 06:56:19.6	87.830	-0.280	-0.360	1.030
2020/01/31 06:56:19.7	87.830	-0.240	-0.400	1.000
2020/01/31 06:56:19.8	87.840	-0.210	-0.450	0.970
2020/01/31 06:56:19.9	87.840	-0.170	-0.490	0.940
2020/01/31 06:56:20.0	87.850	-0.140	-0.530	0.910
2020/01/31 06:56:20.1	87.860	-0.100	-0.570	0.870
2020/01/31 06:56:20.2	87.860	-0.060	-0.620	0.830
2020/01/31 06:56:20.3	87.870	-0.020	-0.650	0.790
2020/01/31 06:56:20.4	87.880	0.010	-0.690	0.750
2020/01/31 06:56:20.5	87.890	0.050	-0.720	0.710
2020/01/31 06:56:20.6	87.900	0.090	-0.750	0.670
2020/01/31 06:56:20.7	87.910	0.130	-0.780	0.630
2020/01/31 06:56:20.8	87.920	0.170	-0.810	0.590
2020/01/31 06:56:20.9	87.930	0.200	-0.830	0.540
2020/01/31 06:56:21.0	87.940	0.240	-0.850	0.500
2020/01/31 06:56:21.1	87.950	0.270	-0.870	0.460
2020/01/31 06:56:21.2	87.950	0.310	-0.890	0.410
2020/01/31 06:56:21.3	87.960	0.340	-0.900	0.370
2020/01/31 06:56:21.4	87.970	0.370	-0.910	0.330
2020/01/31 06:56:21.5	87.980	0.400	-0.910	0.290
2020/01/31 06:56:21.6	88.000	0.420	-0.910	0.260
2020/01/31 06:56:21.7	88.000	0.450	-0.910	0.220
2020/01/31 06:56:21.8	88.010	0.470	-0.900	0.190
2020/01/31 06:56:21.9	88.020	0.490	-0.890	0.170
2020/01/31 06:56:22.0	88.030	0.510	-0.880	0.140
2020/01/31 06:56:22.1	88.030	0.530	-0.870	0.120
2020/01/31 06:56:22.2	88.040	0.540	-0.850	0.100
2020/01/31 06:56:22.3	88.040	0.560	-0.820	0.090
2020/01/31 06:56:22.4	88.050	0.570	-0.800	0.080
2020/01/31 06:56:22.5	88.050	0.570	-0.770	0.070
2020/01/31 06:56:22.6	88.050	0.580	-0.740	0.060
2020/01/31 06:56:22.7	88.050	0.580	-0.710	0.060
2020/01/31 06:56:22.8	88.040	0.580	-0.670	0.070
2020/01/31 06:56:22.9	88.040	0.580	-0.640	0.070
2020/01/31 06:56:23.0	88.040	0.570	-0.600	0.080
2020/01/31 06:56:23.1	88.030	0.570	-0.560	0.090
2020/01/31 06:56:23.2	88.030	0.560	-0.520	0.100
2020/01/31 06:56:23.3	88.030	0.550	-0.470	0.120
2020/01/31 06:56:23.4	88.020	0.540	-0.430	0.130
2020/01/31 06:56:23.5	88.020	0.520	-0.390	0.150
2020/01/31 06:56:23.6	88.010	0.500	-0.340	0.170
2020/01/31 06:56:23.7	88.010	0.480	-0.290	0.200
2020/01/31 06:56:23.8	88.000	0.460	-0.250	0.220
2020/01/31 06:56:23.9	88.000	0.440	-0.200	0.240
2020/01/31 06:56:24.0	87.990	0.420	-0.150	0.270
2020/01/31 06:56:24.1	87.990	0.390	-0.110	0.290
2020/01/31 06:56:24.2	87.980	0.360	-0.060	0.320
2020/01/31 06:56:24.3	87.980	0.340	-0.010	0.340
2020/01/31 06:56:24.4	87.980	0.310	0.040	0.360
2020/01/31 06:56:24.5	87.980	0.280	0.090	0.390
2020/01/31 06:56:24.6	87.980	0.240	0.130	0.410
2020/01/31 06:56:24.7	87.980	0.210	0.180	0.430
2020/01/31 06:56:24.8	87.980	0.180	0.230	0.460
2020/01/31 06:56:24.9	87.980	0.140	0.270	0.480
2020/01/31 06:56:25.0	87.980	0.110	0.320	0.500
2020/01/31 06:56:25.1	87.980	0.070	0.360	0.520
2020/01/31 06:56:25.2	87.990	0.040	0.410	0.540
2020/01/31 06:56:25.3	87.990	0.000	0.450	0.550
2020/01/31 06:56:25.4	88.000	-0.040	0.490	0.570
2020/01/31 06:56:25.5	88.010	-0.070	0.530	0.590
2020/01/31 06:56:25.6	88.020	-0.110	0.570	0.600
2020/01/31 06:56:25.7	88.030	-0.140	0.610	0.610
2020/01/31 06:56:25.8	88.040	-0.180	0.640	0.630
2020/01/31 06:56:25.9	88.050	-0.210	0.670	0.640
2020/01/31 06:56:26.0	88.060	-0.250	0.700	0.650
2020/01/31 06:56:26.1	88.070	-0.280	0.730	0.670
2020/01/31 06:56:26.2	88.080	-0.310	0.750	0.680
2020/01/31 06:56:26.3	88.100	-0.340	0.770	0.690
2020/01/31 06:56:26.4	88.110	-0.370	0.790	0.700
2020/01/31 06:56:26.5	88.130	-0.390	0.800	0.720
2020/01/31 06:56:26.6	88.140	-0.420	0.800	0.730
2020/01/31 06:56:26.7	88.160	-0.440	0.810	0.740
2020/01/31 06:56:26.8	88.180	-0.460	0.800	0.750
2020/01/31 06:56:26.9	88.190	-0.480	0.790	0.760
2020/01/31 06:56:27.0	88.210	-0.490	0.780	0.780
2020/01/31 06:56:27.1	88.230	-0.510	0.760	0.790
2020/01/31 06:56:27.2	88.240	-0.520	0.730	0.800
2020/01/31 06:56:27.3	88.260	-0.520	0.700	0.800
2020/01/31 06:56:27.4	88.280	-0.530	0.660	0.810
2020/01/31 06:56:27.5	88.300	-0.530	0.610	0.820
2020/01/31 06:56:27.6	88.320	-0.520	0.570	0.820
2020/01/31 06:56:27.7	88.340	-0.520	0.510	0.820
2020/01/31 06:56:27.8	88.370	-0.510	0.450	0.820
2020/01/31 06:56:27.9	88.390	-0.500	0.380	0.820
2020/01/31 06:56:28.0	88.410	-0.490	0.310	0.820
2020/01/31 06:56:28.1	88.440	-0.470	0.240	0.820
2020/01/31 06:56:28.2	88.460	-0.450	0.160	0.810
2020/01/31 06:56:28.3	88.490	-0.430	0.080	0.810
2020/01/31 06:56:28.4	88.510	-0.410	0.000	0.800
2020/01/31 06:56:28.5	88.540	-0.380	-0.080	0.790
2020/01/31 06:56:28.6	88.560	-0.360	-0.160	0.780
2020/01/31 06:56:28.7	88.580	-0.330	-0.240	0.770
2020/01/31 06:56:28.8	88.610	-0.300	-0.330	0.760
2020/01/31 06:56:28.9	88.630	-0.270	-0.410	0.760
2020/01/31 06:56:29.0	88.650	-0.240	-0.490	0.750
2020/01/31 06:56:29.1	88.670	-0.210	-0.560	0.740
2020/01/31 06:56:29.2	88.690	-0.170	-0.640	0.740
2020/01/31 06:56:29.3	88.700	-0.140	-0.710	0.730
2020/01/31 06:56:29.4	88.720	-0.110	-0.770	0.730
2020/01/31 06:56:29.5	88.730	-0.080	-0.830	0.730
2020/01/31 06:56:29.6	88.750	-0.050	-0.880	0.730
2020/01/31 06:56:29.7	88.760	-0.020	-0.930	0.740
2020/01/31 06:56:29.8	88.770	0.000	-0.970	0.740
2020/01/31 06:56:29.9	88.770	0.030	-1.010	0.750
2020/01/31 06:56:30.0	88.780	0.060	-1.040	0.760
2020/01/31 06:56:30.1	88.780	0.080	-1.060	0.770
2020/01/31 06:56:30.2	88.790	0.100	-1.070	0.780
2020/01/31 06:56:30.3	88.790	0.120	-1.080	0.800
2020/01/31 06:56:30.4	88.790	0.140	-1.080	0.810
2020/01/31 06:56:30.5	88.790	0.150	-1.080	0.830
2020/01/31 06:56:30.6	88.780	0.170	-1.070	0.850
2020/01/31 06:56:30.7	88.780	0.180	-1.050	0.870
2020/01/31 06:56:30.8	88.770	0.190	-1.030	0.890
2020/01/31 06:56:30.9	88.760	0.200	-1.000	0.910
2020/01/31 06:56:31.0	88.750	0.210	-0.970	0.930
2020/01/31 06:56:31.1	88.740	0.210	-0.930	0.960
2020/01/31 06:56:31.2	88.740	0.220	-0.890	0.980
2020/01/31 06:56:31.3	88.730	0.220	-0.850	1.000
2020/01/31 06:56:31.4	88.720	0.220	-0.800	1.020
2020/01/31 06:56:31.5	88.710	0.220	-0.750	1.040
2020/01/31 06:56:31.6	88.700	0.220	-0.700	1.060
2020/01/31 06:56:31.7	88.690	0.220	-0.640	1.070
2020/01/31 06:56:31.8	88.690	0.220	-0.590	1.080
2020/01/31 06:56:31.9	88.680	0.220	-0.530	1.100
2020/01/31 06:56:32.0	88.680	0.210	-0.480	1.100
2020/01/31 06:56:32.1	88.680	0.210	-0.430	1.110
2020/01/31 06:56:32.2	88.680	0.200	-0.370	1.110
2020/01/31 06:56:32.3	88.690	0.200	-0.320	1.110
2020/01/31 06:56:32.4	88.690	0.190	-0.270	1.100
2020/01/31 06:56:32.5	88.700	0.190	-0.220	1.100
2020/01/31 06:56:32.6	88.720	0.180	-0.170	1.090
2020/01/31 06:56:32.7	88.730	0.180	-0.130	1.070
2020/01/31 06:56:32.8	88.750	0.170	-0.090	1.060
2020/01/31 06:56:32.9	88.770	0.170	-0.050	1.040
2020/01/31 06:56:33.0	88.790	0.160	-0.020	1.020
2020/01/31 06:56:33.1	88.810	0.160	0.010	0.990
2020/01/31 06:56:33.2	88.830	0.150	0.040	0.970
2020/01/31 06:56:33.3	88.860	0.150	0.060	0.940
2020/01/31 06:56:33.4	88.880	0.150	0.080	0.910
2020/01/31 06:56:33.5	88.910	0.140	0.090	0.880
2020/01/31 06:56:33.6	88.940	0.140	0.100	0.850
2020/01/31 06:56:33.7	88.960	0.140	0.110	0.820
2020/01/31 06:56:33.8	88.990	0.140	0.120	0.790
2020/01/31 06:56:33.9	89.020	0.140	0.120	0.760
2020/01/31 06:56:34.0	89.040	0.140	0.110	0.740
2020/01/31 06:56:34.1	89.070	0.140	0.110	0.710
2020/01/31 06:56:34.2	89.100	0.140	0.100	0.680
2020/01/31 06:56:34.3	89.120	0.140	0.090	0.650
2020/01/31 06:56:34.4	89.140	0.150	0.080	0.630
2020/01/31 06:56:34.5	89.160	0.150	0.070	0.610
2020/01/31 06:56:34.6	89.180	0.150	0.060	0.590
2020/01/31 06:56:34.7	89.190	0.150	0.040	0.570
2020/01/31 06:56:34.8	89.200	0.150	0.030	0.560
2020/01/31 06:56:34.9	89.210	0.160	0.020	0.550
2020/01/31 06:56:35.0	89.220	0.160	0.000	0.530
2020/01/31 06:56:35.1	89.220	0.160	-0.010	0.520
2020/01/31 06:56:35.2	89.220	0.160	-0.020	0.520
2020/01/31 06:56:35.3	89.220	0.150	-0.030	0.510
2020/01/31 06:56:35.4	89.220	0.150	-0.030	0.510
2020/01/31 06:56:35.5	89.210	0.150	-0.030	0.500
2020/01/31 06:56:35.6	89.210	0.140	-0.030	0.500
2020/01/31 06:56:35.7	89.200	0.130	-0.030	0.500
2020/01/31 06:56:35.8	89.190	0.120	-0.030	0.490
2020/01/31 06:56:35.9	89.180	0.110	-0.020	0.490
2020/01/31 06:56:36.0	89.170	0.100	-0.010	0.490
2020/01/31 06:56:36.1	89.150	0.080	0.000	0.490
2020/01/31 06:56:36.2	89.130	0.070	0.010	0.480
2020/01/31 06:56:36.3	89.120	0.050	0.030	0.480
2020/01/31 06:56:36.4	89.100	0.030	0.050	0.480
2020/01/31 06:56:36.5	89.090	0.010	0.070	0.470
2020/01/31 06:56:36.6	89.070	-0.010	0.090	0.470
2020/01/31 06:56:36.7	89.060	-0.040	0.110	0.460
2020/01/31 06:56:36.8	89.040	-0.060	0.140	0.460
2020/01/31 06:56:36.9	89.030	-0.090	0.160	0.450
2020/01/31 06:56:37.0	89.010	-0.110	0.180	0.440
2020/01/31 06:56:37.1	89.000	-0.140	0.210	0.430
2020/01/31 06:56:37.2	88.980	-0.170	0.230	0.420
2020/01/31 06:56:37.3	88.970	-0.190	0.250	0.400
2020/01/31 06:56:37.4	88.970	-0.220	0.270	0.380
2020/01/31 06:56:37.5	88.960	-0.240	0.280	0.370
2020/01/31 06:56:37.6	88.960	-0.260	0.290	0.350
2020/01/31 06:56:37.7	88.960	-0.280	0.300	0.330
2020/01/31 06:56:37.8	88.970	-0.300	0.310	0.300
2020/01/31 06:56:37.9	88.970	-0.320	0.310	0.280
2020/01/31 06:56:38.0	88.980	-0.340	0.310	0.250
2020/01/31 06:56:38.1	88.990	-0.350	0.300	0.230
2020/01/31 06:56:38.2	89.000	-0.360	0.290	0.200
2020/01/31 06:56:38.3	89.020	-0.360	0.280	0.170
2020/01/31 06:56:38.4	89.040	-0.370	0.260	0.140
2020/01/31 06:56:38.5	89.060	-0.370	0.240	0.110
2020/01/31 06:56:38.6	89.090	-0.360	0.210	0.080
2020/01/31 06:56:38.7	89.110	-0.360	0.180	0.050
2020/01/31 06:56:38.8	89.140	-0.350	0.140	0.020
2020/01/31 06:56:38.9	89.180	-0.330	0.110	-0.010
2020/01/31 06:56:39.0	89.210	-0.320	0.060	-0.040
2020/01/31 06:56:39.1	89.240	-0.300	0.020	-0.070
2020/01/31 06:56:39.2	89.270	-0.270	-0.030	-0.090
2020/01/31 06:56:39.3	89.310	-0.250	-0.080	-0.120
2020/01/31 06:56:39.4	89.350	-0.220	-0.130	-0.140
2020/01/31 06:56:39.5	89.390	-0.190	-0.180	-0.160
2020/01/31 06:56:39.6	89.430	-0.160	-0.230	-0.180
2020/01/31 06:56:39.7	89.470	-0.130	-0.290	-0.200
2020/01/31 06:56:39.8	89.510	-0.100	-0.340	-0.210
2020/01/31 06:56:39.9	89.550	-0.070	-0.390	-0.220
2020/01/31 06:56:40.0	89.590	-0.030	-0.440	-0.230
2020/01/31 06:56:40.1	89.630	-0.000	-0.490	-0.240
2020/01/31 06:56:40.2	89.660	0.030	-0.530	-0.240
2020/01/31 06:56:40.3	89.700	0.060	-0.580	-0.240
2020/01/31 06:56:40.4	89.740	0.100	-0.620	-0.230
2020/01/31 06:56:40.5	89.780	0.120	-0.650	-0.230
2020/01/31 06:56:40.6	89.810	0.150	-0.690	-0.220
2020/01/31 06:56:40.7	89.840	0.180	-0.720	-0.210
2020/01/31 06:56:40.8	89.880	0.200	-0.740	-0.190
2020/01/31 06:56:40.9	89.910	0.230	-0.760	-0.180
2020/01/31 06:56:41.0	89.930	0.250	-0.780	-0.150
2020/01/31 06:56:41.1	89.960	0.260	-0.790	-0.130
2020/01/31 06:56:41.2	89.990	0.280	-0.800	-0.100
2020/01/31 06:56:41.3	90.000	0.290	-0.800	-0.070
2020/01/31 06:56:41.4	90.020	0.300	-0.800	-0.040
2020/01/31 06:56:41.5	90.040	0.300	-0.790	-0.000
2020/01/31 06:56:41.6	90.050	0.300	-0.780	0.040
2020/01/31 06:56:41.7	90.060	0.300	-0.770	0.080
2020/01/31 06:56:41.8	90.060	0.300	-0.740	0.130
2020/01/31 06:56:41.9	90.060	0.290	-0.720	0.170
2020/01/31 06:56:42.0	90.060	0.290	-0.690	0.220
2020/01/31 06:56:42.1	90.060	0.270	-0.650	0.280
2020/01/31 06:56:42.2	90.050	0.260	-0.620	0.330
2020/01/31 06:56:42.3	90.030	0.240	-0.580	0.390
2020/01/31 06:56:42.4	90.020	0.220	-0.530	0.440
2020/01/31 06:56:42.5	90.000	0.200	-0.480	0.500
2020/01/31 06:56:42.6	89.990	0.180	-0.430	0.560
2020/01/31 06:56:42.7	89.960	0.150	-0.380	0.610
2020/01/31 06:56:42.8	89.940	0.130	-0.320	0.670
2020/01/31 06:56:42.9	89.910	0.100	-0.260	0.730
2020/01/31 06:56:43.0	89.890	0.070	-0.200	0.780
2020/01/31 06:56:43.1	89.860	0.040	-0.150	0.840
2020/01/31 06:56:43.2	89.830	0.010	-0.080	0.900
2020/01/31 06:56:43.3	89.800	-0.020	-0.030	0.950
2020/01/31 06:56:43.4	89.760	-0.050	0.030	1.000
2020/01/31 06:56:43.5	89.730	-0.080	0.090	1.050
2020/01/31 06:56:43.6	89.700	-0.100	0.140	1.100
2020/01/31 06:56:43.7	89.660	-0.130	0.190	1.150
2020/01/31 06:56:43.8	89.630	-0.150	0.240	1.190
2020/01/31 06:56:43.9	89.600	-0.180	0.280	1.230
2020/01/31 06:56:44.0	89.570	-0.200	0.320	1.270
2020/01/31 06:56:44.1	89.540	-0.220	0.350	1.300
2020/01/31 06:56:44.2	89.520	-0.240	0.380	1.330
2020/01/31 06:56:44.3	89.490	-0.250	0.400	1.360
2020/01/31 06:56:44.4	89.470	-0.260	0.420	1.380
2020/01/31 06:56:44.5	89.450	-0.270	0.430	1.400
2020/01/31 06:56:44.6	89.430	-0.270	0.430	1.420
2020/01/31 06:56:44.7	89.420	-0.270	0.430	1.430
2020/01/31 06:56:44.8	89.400	-0.270	0.420	1.440
2020/01/31 06:56:44.9	89.390	-0.270	0.400	1.450
2020/01/31 06:56:45.0	89.390	-0.260	0.380	1.450
2020/01/31 06:56:45.1	89.390	-0.250	0.350	1.450
2020/01/31 06:56:45.2	89.400	-0.230	0.320	1.440
2020/01/31 06:56:45.3	89.400	-0.210	0.280	1.430
2020/01/31 06:56:45.4	89.410	-0.190	0.240	1.420
2020/01/31 06:56:45.5	89.420	-0.170	0.190	1.400
2020/01/31 06:56:45.6	89.430	-0.150	0.130	1.380
2020/01/31 06:56:45.7	89.440	-0.120	0.080	1.360
2020/01/31 06:56:45.8	89.460	-0.090	0.020	1.340
2020/01/31 06:56:45.9	89.480	-0.060	-0.040	1.310
2020/01/31 06:56:46.0	89.500	-0.030	-0.100	1.280
2020/01/31 06:56:46.1	89.520	-0.000	-0.170	1.250
2020/01/31 06:56:46.2	89.540	0.030	-0.230	1.210
2020/01/31 06:56:46.3	89.570	0.060	-0.290	1.180
2020/01/31 06:56:46.4	89.590	0.090	-0.350	1.140
2020/01/31 06:56:46.5	89.620	0.120	-0.410	1.100
2020/01/31 06:56:46.6	89.640	0.150	-0.460	1.060
2020/01/31 06:56:46.7	89.670	0.180	-0.510	1.020
2020/01/31 06:56:46.8	89.690	0.200	-0.550	0.980
2020/01/31 06:56:46.9	89.710	0.220	-0.590	0.940
2020/01/31 06:56:47.0	89.740	0.240	-0.630	0.900
2020/01/31 06:56:47.1	89.760	0.260	-0.650	0.860
2020/01/31 06:56:47.2	89.780	0.280	-0.680	0.820
2020/01/31 06:56:47.3	89.800	0.290	-0.690	0.780
2020/01/31 06:56:47.4	89.820	0.300	-0.700	0.750
2020/01/31 06:56:47.5	89.830	0.300	-0.700	0.710
2020/01/31 06:56:47.6	89.840	0.300	-0.690	0.670
2020/01/31 06:56:47.7	89.850	0.300	-0.670	0.640
2020/01/31 06:56:47.8	89.860	0.300	-0.650	0.600
2020/01/31 06:56:47.9	89.870	0.290	-0.620	0.570
2020/01/31 06:56:48.0	89.870	0.280	-0.590	0.540
2020/01/31 06:56:48.1	89.870	0.260	-0.540	0.500
2020/01/31 06:56:48.2	89.880	0.240	-0.500	0.480
2020/01/31 06:56:48.3	89.880	0.220	-0.440	0.440
2020/01/31 06:56:48.4	89.870	0.190	-0.380	0.410
2020/01/31 06:56:48.5	89.870	0.170	-0.320	0.390
2020/01/31 06:56:48.6	89.860	0.140	-0.250	0.360
2020/01/31 06:56:48.7	89.850	0.110	-0.180	0.330
2020/01/31 06:56:48.8	89.850	0.070	-0.110	0.300
2020/01/31 06:56:48.9	89.840	0.040	-0.040	0.280
2020/01/31 06:56:49.0	89.830	-0.000	0.030	0.250
2020/01/31 06:56:49.1	89.820	-0.040	0.110	0.220
2020/01/31 06:56:49.2	89.810	-0.080	0.180	0.190
2020/01/31 06:56:49.3	89.800	-0.110	0.250	0.170
2020/01/31 06:56:49.4	89.800	-0.150	0.320	0.150
2020/01/31 06:56:49.5	89.790	-0.190	0.380	0.130
2020/01/31 06:56:49.6	89.780	-0.220	0.440	0.110
2020/01/31 06:56:49.7	89.780	-0.260	0.490	0.090
2020/01/31 06:56:49.8	89.780	-0.290	0.540	0.070
2020/01/31 06:56:49.9	89.780	-0.320	0.580	0.050
2020/01/31 06:56:50.0	89.770	-0.350	0.620	0.040
2020/01/31 06:56:50.1	89.770	-0.380	0.640	0.020
2020/01/31 06:56:50.2	89.780	-0.400	0.660	0.010
2020/01/31 06:56:50.3	89.780	-0.420	0.670	0.000
2020/01/31 06:56:50.4	89.780	-0.440	0.670	-0.010
2020/01/31 06:56:50.5	89.790	-0.450	0.670	-0.010
2020/01/31 06:56:50.6	89.790	-0.470	0.650	-0.020
2020/01/31 06:56:50.7	89.800	-0.470	0.630	-0.020
2020/01/31 06:56:50.8	89.810	-0.480	0.600	-0.020
2020/01/31 06:56:50.9	89.810	-0.480	0.560	-0.020
2020/01/31 06:56:51.0	89.820	-0.470	0.520	-0.020
2020/01/31 06:56:51.1	89.830	-0.460	0.460	-0.020
2020/01/31 06:56:51.2	89.840	-0.450	0.400	-0.020
2020/01/31 06:56:51.3	89.850	-0.440	0.340	-0.010
2020/01/31 06:56:51.4	89.860	-0.420	0.260	-0.010
2020/01/31 06:56:51.5	89.880	-0.390	0.180	-0.000
2020/01/31 06:56:51.6	89.890	-0.370	0.100	0.000
2020/01/31 06:56:51.7	89.910	-0.340	0.020	0.010
2020/01/31 06:56:51.8	89.930	-0.310	-0.070	0.020
2020/01/31 06:56:51.9	89.940	-0.270	-0.170	0.020
2020/01/31 06:56:52.0	89.960	-0.240	-0.260	0.030
2020/01/31 06:56:52.1	89.980	-0.200	-0.350	0.040
2020/01/31 06:56:52.2	90.000	-0.160	-0.450	0.050
2020/01/31 06:56:52.3	90.020	-0.120	-0.540	0.060
2020/01/31 06:56:52.4	90.040	-0.080	-0.630	0.070
2020/01/31 06:56:52.5	90.060	-0.030	-0.720	0.080
2020/01/31 06:56:52.6	90.090	0.010	-0.810	0.090
2020/01/31 06:56:52.7	90.110	0.050	-0.890	0.100
2020/01/31 06:56:52.8	90.130	0.100	-0.960	0.120
2020/01/31 06:56:52.9	90.150	0.140	-1.040	0.130
2020/01/31 06:56:53.0	90.170	0.180	-1.100	0.140
2020/01/31 06:56:53.1	90.190	0.220	-1.160	0.160
2020/01/31 06:56:53.2	90.200	0.260	-1.210	0.180
2020/01/31 06:56:53.3	90.220	0.290	-1.260	0.200
2020/01/31 06:56:53.4	90.230	0.330	-1.290	0.210
2020/01/31 06:56:53.5	90.240	0.360	-1.320	0.230
2020/01/31 06:56:53.6	90.250	0.390	-1.340	0.250
2020/01/31 06:56:53.7	90.260	0.410	-1.350	0.270
2020/01/31 06:56:53.8	90.270	0.440	-1.350	0.290
2020/01/31 06:56:53.9	90.270	0.460	-1.340	0.320
2020/01/31 06:56:54.0	90.270	0.480	-1.320	0.340
2020/01/31 06:56:54.1	90.270	0.490	-1.290	0.360
2020/01/31 06:56:54.2	90.270	0.500	-1.260	0.380
2020/01/31 06:56:54.3	90.260	0.510	-1.210	0.410
2020/01/31 06:56:54.4	90.250	0.510	-1.160	0.430
2020/01/31 06:56:54.5	90.240	0.510	-1.090	0.460
2020/01/31 06:56:54.6	90.230	0.510	-1.020	0.490
2020/01/31 06:56:54.7	90.210	0.500	-0.950	0.510
2020/01/31 06:56:54.8	90.190	0.490	-0.860	0.540
2020/01/31 06:56:54.9	90.170	0.480	-0.770	0.570
2020/01/31 06:56:55.0	90.150	0.470	-0.670	0.600
2020/01/31 06:56:55.1	90.130	0.450	-0.570	0.640
2020/01/31 06:56:55.2	90.100	0.430	-0.460	0.670
2020/01/31 06:56:55.3	90.070	0.410	-0.360	0.700
2020/01/31 06:56:55.4	90.040	0.380	-0.240	0.730
2020/01/31 06:56:55.5	90.010	0.350	-0.130	0.770
2020/01/31 06:56:55.6	89.980	0.320	-0.020	0.800
2020/01/31 06:56:55.7	89.940	0.290	0.090	0.830
2020/01/31 06:56:55.8	89.910	0.260	0.200	0.860
2020/01/31 06:56:55.9	89.870	0.220	0.310	0.890
2020/01/31 06:56:56.0	89.840	0.190	0.420	0.920
2020/01/31 06:56:56.1	89.800	0.150	0.520	0.950
2020/01/31 06:56:56.2	89.760	0.110	0.620	0.980
2020/01/31 06:56:56.3	89.730	0.080	0.710	1.000
2020/01/31 06:56:56.4	89.700	0.040	0.800	1.020
2020/01/31 06:56:56.5	89.670	-0.000	0.880	1.040
2020/01/31 06:56:56.6	89.640	-0.040	0.950	1.060
2020/01/31 06:56:56.7	89.610	-0.080	1.010	1.070
2020/01/31 06:56:56.8	89.590	-0.110	1.070	1.090
2020/01/31 06:56:56.9	89.570	-0.150	1.110	1.090
2020/01/31 06:56:57.0	89.550	-0.180	1.150	1.100
2020/01/31 06:56:57.1	89.530	-0.220	1.180	1.100
2020/01/31 06:56:57.2	89.520	-0.250	1.200	1.100
2020/01/31 06:56:57.3	89.500	-0.270	1.200	1.100
2020/01/31 06:56:57.4	89.490	-0.300	1.200	1.090
2020/01/31 06:56:57.5	89.480	-0.320	1.180	1.080
2020/01/31 06:56:57.6	89.480	-0.350	1.160	1.070
2020/01/31 06:56:57.7	89.480	-0.360	1.130	1.050
2020/01/31 06:56:57.8	89.470	-0.380	1.080	1.030
2020/01/31 06:56:57.9	89.480	-0.390	1.030	1.010
2020/01/31 06:56:58.0	89.480	-0.400	0.970	0.980
2020/01/31 06:56:58.1	89.490	-0.400	0.900	0.950
2020/01/31 06:56:58.2	89.510	-0.400	0.820	0.920
2020/01/31 06:56:58.3	89.520	-0.400	0.730	0.890
2020/01/31 06:56:58.4	89.540	-0.390	0.640	0.850
2020/01/31 06:56:58.5	89.560	-0.390	0.540	0.800
2020/01/31 06:56:58.6	89.580	-0.370	0.430	0.760
2020/01/31 06:56:58.7	89.600	-0.360	0.330	0.710
2020/01/31 06:56:58.8	89.630	-0.340	0.210	0.660
2020/01/31 06:56:58.9	89.660	-0.320	0.100	0.610
2020/01/31 06:56:59.0	89.690	-0.290	-0.020	0.550
2020/01/31 06:56:59.1	89.720	-0.270	-0.130	0.500
2020/01/31 06:56:59.2	89.760	-0.240	-0.250	0.440
2020/01/31 06:56:59.3	89.800	-0.210	-0.360	0.390
2020/01/31 06:56:59.4	89.840	-0.180	-0.480	0.330
2020/01/31 06:56:59.5	89.880	-0.140	-0.580	0.280
2020/01/31 06:56:59.6	89.920	-0.110	-0.690	0.230
2020/01/31 06:56:59.7	89.960	-0.080	-0.790	0.190
2020/01/31 06:56:59.8	90.010	-0.050	-0.880	0.140
2020/01/31 06:56:59.9	90.050	-0.010	-0.970	0.100
2020/01/31 06:57:00.0	90.090	0.020	-1.050	0.070
2020/01/31 06:57:00.1	90.130	0.050	-1.120	0.030
2020/01/31 06:57:00.2	90.170	0.070	-1.180	0.010
2020/01/31 06:57:00.3	90.210	0.100	-1.230	-0.020
2020/01/31 06:57:00.4	90.250	0.120	-1.280	-0.040
2020/01/31 06:57:00.5	90.290	0.140	-1.310	-0.050
2020/01/31 06:57:00.6	90.320	0.160	-1.340	-0.060
2020/01/31 06:57:00.7	90.350	0.180	-1.350	-0.060
2020/01/31 06:57:00.8	90.380	0.190	-1.350	-0.060
2020/01/31 06:57:00.9	90.410	0.200	-1.350	-0.050
2020/01/31 06:57:01.0	90.430	0.200	-1.330	-0.040
2020/01/31 06:57:01.1	90.450	0.210	-1.310	-0.020
2020/01/31 06:57:01.2	90.470	0.200	-1.270	-0.000
2020/01/31 06:57:01.3	90.490	0.200	-1.230	0.020
2020/01/31 06:57:01.4	90.500	0.190	-1.180	0.050
2020/01/31 06:57:01.5	90.500	0.180	-1.120	0.080
2020/01/31 06:57:01.6	90.510	0.170	-1.050	0.110
2020/01/31 06:57:01.7	90.510	0.150	-0.970	0.150
2020/01/31 06:57:01.8	90.500	0.130	-0.890	0.180
2020/01/31 06:57:01.9	90.500	0.110	-0.810	0.220
2020/01/31 06:57:02.0	90.490	0.090	-0.720	0.260
2020/01/31 06:57:02.1	90.480	0.060	-0.630	0.310
2020/01/31 06:57:02.2	90.460	0.040	-0.530	0.340
2020/01/31 06:57:02.3	90.440	0.010	-0.430	0.390
2020/01/31 06:57:02.4	90.420	-0.020	-0.330	0.430
2020/01/31 06:57:02.5	90.400	-0.050	-0.230	0.470
2020/01/31 06:57:02.6	90.380	-0.080	-0.130	0.510
2020/01/31 06:57:02.7	90.360	-0.110	-0.030	0.550
2020/01/31 06:57:02.8	90.340	-0.130	0.070	0.590
2020/01/31 06:57:02.9	90.320	-0.160	0.160	0.630
2020/01/31 06:57:03.0	90.290	-0.190	0.250	0.660
2020/01/31 06:57:03.1	90.270	-0.210	0.340	0.700
2020/01/31 06:57:03.2	90.240	-0.240	0.420	0.730
2020/01/31 06:57:03.3	90.220	-0.260	0.500	0.760
2020/01/31 06:57:03.4	90.200	-0.280	0.560	0.790
2020/01/31 06:57:03.5	90.170	-0.290	0.620	0.810
2020/01/31 06:57:03.6	90.150	-0.310	0.680	0.840
2020/01/31 06:57:03.7	90.130	-0.320	0.720	0.860
2020/01/31 06:57:03.8	90.110	-0.330	0.760	0.880
2020/01/31 06:57:03.9	90.090	-0.330	0.780	0.890
2020/01/31 06:57:04.0	90.070	-0.340	0.800	0.910
2020/01/31 06:57:04.1	90.060	-0.340	0.810	0.920
2020/01/31 06:57:04.2	90.040	-0.330	0.810	0.930
2020/01/31 06:57:04.3	90.030	-0.330	0.800	0.940
2020/01/31 06:57:04.4	90.020	-0.320	0.780	0.950
2020/01/31 06:57:04.5	90.010	-0.310	0.760	0.960
2020/01/31 06:57:04.6	90.000	-0.290	0.720	0.960
2020/01/31 06:57:04.7	89.990	-0.270	0.680	0.970
2020/01/31 06:57:04.8	89.980	-0.260	0.630	0.980
2020/01/31 06:57:04.9	89.980	-0.230	0.580	0.980
2020/01/31 06:57:05.0	89.970	-0.210	0.520	0.990
2020/01/31 06:57:05.1	89.960	-0.190	0.450	1.000
2020/01/31 06:57:05.2	89.940	-0.160	0.380	1.000
2020/01/31 06:57:05.3	89.940	-0.130	0.300	1.010
2020/01/31 06:57:05.4	89.930	-0.110	0.230	1.020
2020/01/31 06:57:05.5	89.920	-0.080	0.150	1.030
2020/01/31 06:57:05.6	89.910	-0.050	0.070	1.040
2020/01/31 06:57:05.7	89.900	-0.020	-0.010	1.050
2020/01/31 06:57:05.8	89.890	0.010	-0.090	1.060
2020/01/31 06:57:05.9	89.880	0.040	-0.170	1.070
2020/01/31 06:57:06.0	89.870	0.070	-0.240	1.080
2020/01/31 06:57:06.1	89.860	0.090	-0.320	1.090
2020/01/31 06:57:06.2	89.850	0.120	-0.390	1.100
2020/01/31 06:57:06.3	89.830	0.140	-0.460	1.100
2020/01/31 06:57:06.4	89.820	0.160	-0.520	1.110
2020/01/31 06:57:06.5	89.810	0.190	-0.580	1.110
2020/01/31 06:57:06.6	89.800	0.200	-0.630	1.110
2020/01/31 06:57:06.7	89.790	0.220	-0.680	1.110
2020/01/31 06:57:06.8	89.780	0.240	-0.720	1.110
2020/01/31 06:57:06.9	89.760	0.250	-0.760	1.100
2020/01/31 06:57:07.0	89.760	0.260	-0.790	1.080
2020/01/31 06:57:07.1	89.750	0.270	-0.810	1.070
2020/01/31 06:57:07.2	89.750	0.270	-0.830	1.050
2020/01/31 06:57:07.3	89.740	0.280	-0.840	1.020
2020/01/31 06:57:07.4	89.740	0.280	-0.850	1.000
2020/01/31 06:57:07.5	89.730	0.280	-0.850	0.970
2020/01/31 06:57:07.6	89.730	0.280	-0.850	0.930
2020/01/31 06:57:07.7	89.730	0.270	-0.840	0.900
2020/01/31 06:57:07.8	89.730	0.270	-0.820	0.860
2020/01/31 06:57:07.9	89.740	0.260	-0.800	0.820
2020/01/31 06:57:08.0	89.740	0.250	-0.770	0.770
2020/01/31 06:57:08.1	89.740	0.240	-0.750	0.730
2020/01/31 06:57:08.2	89.760	0.230	-0.710	0.680
2020/01/31 06:57:08.3	89.760	0.220	-0.680	0.630
2020/01/31 06:57:08.4	89.770	0.200	-0.640	0.590
2020/01/31 06:57:08.5	89.780	0.190	-0.600	0.540
2020/01/31 06:57:08.6	89.800	0.180	-0.550	0.490
2020/01/31 06:57:08.7	89.810	0.160	-0.510	0.450
2020/01/31 06:57:08.8	89.820	0.150	-0.470	0.400
2020/01/31 06:57:08.9	89.840	0.140	-0.420	0.360
2020/01/31 06:57:09.0	89.850	0.120	-0.380	0.320
2020/01/31 06:57:09.1	89.870	0.110	-0.340	0.280
2020/01/31 06:57:09.2	89.880	0.100	-0.300	0.240
2020/01/31 06:57:09.3	89.900	0.090	-0.260	0.200
2020/01/31 06:57:09.4	89.920	0.080	-0.220	0.170
2020/01/31 06:57:09.5	89.940	0.070	-0.190	0.140
2020/01/31 06:57:09.6	89.960	0.060	-0.150	0.110
2020/01/31 06:57:09.7	89.990	0.050	-0.130	0.080
2020/01/31 06:57:09.8	90.010	0.050	-0.100	0.060
2020/01/31 06:57:09.9	90.040	0.040	-0.080	0.040
2020/01/31 06:57:10.0	90.070	0.040	-0.060	0.020
2020/01/31 06:57:10.1	90.090	0.040	-0.050	0.010
2020/01/31 06:57:10.2	90.110	0.040	-0.040	-0.010
2020/01/31 06:57:10.3	90.140	0.040	-0.030	-0.020
2020/01/31 06:57:10.4	90.170	0.040	-0.030	-0.030
2020/01/31 06:57:10.5	90.190	0.050	-0.030	-0.030
2020/01/31 06:57:10.6	90.220	0.050	-0.030	-0.030
2020/01/31 06:57:10.7	90.240	0.060	-0.030	-0.030
2020/01/31 06:57:10.8	90.270	0.070	-0.040	-0.020
2020/01/31 06:57:10.9	90.290	0.080	-0.050	-0.020
2020/01/31 06:57:11.0	90.320	0.090	-0.060	-0.010
2020/01/31 06:57:11.1	90.340	0.100	-0.070	0.000
2020/01/31 06:57:11.2	90.370	0.110	-0.080	0.020
2020/01/31 06:57:11.3	90.380	0.120	-0.090	0.030
2020/01/31 06:57:11.4	90.400	0.130	-0.100	0.050
2020/01/31 06:57:11.5	90.420	0.140	-0.110	0.070
2020/01/31 06:57:11.6	90.430	0.150	-0.110	0.090
2020/01/31 06:57:11.7	90.440	0.150	-0.120	0.110
2020/01/31 06:57:11.8	90.460	0.160	-0.120	0.130
2020/01/31 06:57:11.9	90.460	0.170	-0.110	0.160
2020/01/31 06:57:12.0	90.470	0.180	-0.110	0.180
2020/01/31 06:57:12.1	90.480	0.180	-0.100	0.210
2020/01/31 06:57:12.2	90.480	0.180	-0.080	0.240
2020/01/31 06:57:12.3	90.480	0.180	-0.070	0.270
2020/01/31 06:57:12.4	90.480	0.180	-0.050	0.300
2020/01/31 06:57:12.5	90.470	0.180	-0.020	0.330
2020/01/31 06:57:12.6	90.460	0.170	0.000	0.370
2020/01/31 06:57:12.7	90.450	0.170	0.040	0.400
2020/01/31 06:57:12.8	90.440	0.160	0.070	0.440
2020/01/31 06:57:12.9	90.430	0.150	0.110	0.480
2020/01/31 06:57:13.0	90.410	0.130	0.150	0.520
2020/01/31 06:57:13.1	90.390	0.120	0.190	0.550
2020/01/31 06:57:13.2	90.380	0.100	0.230	0.590
2020/01/31 06:57:13.3	90.360	0.080	0.270	0.630
2020/01/31 06:57:13.4	90.330	0.050	0.320	0.670
2020/01/31 06:57:13.5	90.300	0.030	0.360	0.700
2020/01/31 06:57:13.6	90.280	0.000	0.400	0.740
2020/01/31 06:57:13.7	90.250	-0.020	0.440	0.780
2020/01/31 06:57:13.8	90.220	-0.050	0.480	0.810
2020/01/31 06:57:13.9	90.190	-0.080	0.510	0.840
2020/01/31 06:57:14.0	90.160	-0.110	0.540	0.870
2020/01/31 06:57:14.1	90.130	-0.140	0.570	0.900
2020/01/31 06:57:14.2	90.110	-0.170	0.590	0.930
2020/01/31 06:57:14.3	90.080	-0.190	0.600	0.950
2020/01/31 06:57:14.4	90.050	-0.220	0.620	0.980
2020/01/31 06:57:14.5	90.030	-0.250	0.620	1.000
2020/01/31 06:57:14.6	90.010	-0.270	0.620	1.020
2020/01/31 06:57:14.7	89.990	-0.300	0.610	1.030
2020/01/31 06:57:14.8	89.970	-0.320	0.590	1.050
2020/01/31 06:57:14.9	89.960	-0.340	0.570	1.060
2020/01/31 06:57:15.0	89.950	-0.360	0.540	1.070
2020/01/31 06:57:15.1	89.940	-0.370	0.510	1.070
2020/01/31 06:57:15.2	89.930	-0.380	0.460	1.070
2020/01/31 06:57:15.3	89.930	-0.390	0.410	1.080
2020/01/31 06:57:15.4	89.930	-0.390	0.350	1.080
2020/01/31 06:57:15.5	89.940	-0.390	0.290	1.080
2020/01/31 06:57:15.6	89.940	-0.390	0.220	1.070
2020/01/31 06:57:15.7	89.960	-0.380	0.140	1.070
2020/01/31 06:57:15.8	89.970	-0.380	0.060	1.060
2020/01/31 06:57:15.9	89.990	-0.360	-0.020	1.050
2020/01/31 06:57:16.0	90.010	-0.350	-0.110	1.040
2020/01/31 06:57:16.1	90.030	-0.330	-0.200	1.030
2020/01/31 06:57:16.2	90.060	-0.300	-0.300	1.010
2020/01/31 06:57:16.3	90.090	-0.280	-0.400	1.000
2020/01/31 06:57:16.4	90.120	-0.250	-0.500	0.980
2020/01/31 06:57:16.5	90.150	-0.220	-0.600	0.970
2020/01/31 06:57:16.6	90.180	-0.190	-0.690	0.950
2020/01/31 06:57:16.7	90.220	-0.160	-0.790	0.930
2020/01/31 06:57:16.8	90.250	-0.120	-0.880	0.920
2020/01/31 06:57:16.9	90.290	-0.090	-0.970	0.900
2020/01/31 06:57:17.0	90.330	-0.050	-1.060	0.880
2020/01/31 06:57:17.1	90.370	-0.020	-1.140	0.870
2020/01/31 06:57:17.2	90.400	0.020	-1.210	0.850
2020/01/31 06:57:17.3	90.440	0.050	-1.280	0.840
2020/01/31 06:57:17.4	90.480	0.090	-1.340	0.820
2020/01/31 06:57:17.5	90.510	0.120	-1.390	0.810
2020/01/31 06:57:17.6	90.550	0.150	-1.430	0.800
2020/01/31 06:57:17.7	90.580	0.170	-1.460	0.790
2020/01/31 06:57:17.8	90.610	0.200	-1.480	0.780
2020/01/31 06:57:17.9	90.640	0.220	-1.490	0.770
2020/01/31 06:57:18.0	90.670	0.240	-1.490	0.770
2020/01/31 06:57:18.1	90.690	0.250	-1.480	0.770
2020/01/31 06:57:18.2	90.730	0.260	-1.450	0.760
2020/01/31 06:57:18.3	90.750	0.270	-1.420	0.760
2020/01/31 06:57:18.4	90.760	0.270	-1.370	0.760
2020/01/31 06:57:18.5	90.780	0.270	-1.320	0.770
2020/01/31 06:57:18.6	90.790	0.270	-1.250	0.770
2020/01/31 06:57:18.7	90.790	0.260	-1.180	0.780
2020/01/31 06:57:18.8	90.800	0.250	-1.100	0.780
2020/01/31 06:57:18.9	90.800	0.230	-1.010	0.790
2020/01/31 06:57:19.0	90.800	0.210	-0.910	0.800
2020/01/31 06:57:19.1	90.790	0.190	-0.810	0.810
2020/01/31 06:57:19.2	90.790	0.170	-0.700	0.820
2020/01/31 06:57:19.3	90.780	0.150	-0.590	0.840
2020/01/31 06:57:19.4	90.760	0.120	-0.470	0.850
2020/01/31 06:57:19.5	90.750	0.090	-0.350	0.860
2020/01/31 06:57:19.6	90.730	0.060	-0.230	0.880
2020/01/31 06:57:19.7	90.710	0.030	-0.120	0.890
2020/01/31 06:57:19.8	90.680	-0.000	0.000	0.900
2020/01/31 06:57:19.9	90.660	-0.040	0.120	0.910
2020/01/31 06:57:20.0	90.630	-0.070	0.230	0.920
2020/01/31 06:57:20.1	90.600	-0.100	0.340	0.930
2020/01/31 06:57:20.2	90.570	-0.130	0.450	0.940
2020/01/31 06:57:20.3	90.540	-0.160	0.550	0.950
2020/01/31 06:57:20.4	90.510	-0.190	0.640	0.950
2020/01/31 06:57:20.5	90.480	-0.210	0.730	0.950
2020/01/31 06:57:20.6	90.450	-0.240	0.810	0.950
2020/01/31 06:57:20.7	90.420	-0.260	0.890	0.950
2020/01/31 06:57:20.8	90.380	-0.280	0.950	0.950
2020/01/31 06:57:20.9	90.350	-0.300	1.010	0.940
2020/01/31 06:57:21.0	90.330	-0.320	1.060	0.930
2020/01/31 06:57:21.1	90.300	-0.330	1.100	0.920
2020/01/31 06:57:21.2	90.270	-0.340	1.130	0.900
2020/01/31 06:57:21.3	90.240	-0.350	1.150	0.880
2020/01/31 06:57:21.4	90.220	-0.360	1.160	0.860
2020/01/31 06:57:21.5	90.200	-0.360	1.160	0.840
2020/01/31 06:57:21.6	90.180	-0.360	1.150	0.810
2020/01/31 06:57:21.7	90.160	-0.360	1.130	0.780
2020/01/31 06:57:21.8	90.150	-0.360	1.100	0.750
2020/01/31 06:57:21.9	90.140	-0.350	1.070	0.710
2020/01/31 06:57:22.0	90.130	-0.340	1.020	0.680
2020/01/31 06:57:22.1	90.120	-0.330	0.970	0.630
2020/01/31 06:57:22.2	90.120	-0.310	0.910	0.590
2020/01/31 06:57:22.3	90.120	-0.300	0.840	0.540
2020/01/31 06:57:22.4	90.120	-0.280	0.770	0.490
2020/01/31 06:57:22.5	90.120	-0.260	0.690	0.440
2020/01/31 06:57:22.6	90.130	-0.240	0.610	0.390
2020/01/31 06:57:22.7	90.140	-0.210	0.530	0.330
2020/01/31 06:57:22.8	90.150	-0.190	0.440	0.270
2020/01/31 06:57:22.9	90.170	-0.160	0.350	0.210
2020/01/31 06:57:23.0	90.180	-0.130	0.250	0.150
2020/01/31 06:57:23.1	90.200	-0.110	0.160	0.090
2020/01/31 06:57:23.2	90.210	-0.080	0.060	0.030
2020/01/31 06:57:23.3	90.240	-0.050	-0.030	-0.040
2020/01/31 06:57:23.4	90.260	-0.020	-0.120	-0.100
2020/01/31 06:57:23.5	90.290	0.010	-0.210	-0.160
2020/01/31 06:57:23.6	90.310	0.040	-0.300	-0.220
2020/01/31 06:57:23.7	90.340	0.070	-0.390	-0.280
2020/01/31 06:57:23.8	90.360	0.100	-0.480	-0.330
2020/01/31 06:57:23.9	90.390	0.130	-0.560	-0.390
2020/01/31 06:57:24.0	90.420	0.160	-0.640	-0.440
2020/01/31 06:57:24.1	90.440	0.190	-0.710	-0.490
2020/01/31 06:57:24.2	90.470	0.220	-0.780	-0.530
2020/01/31 06:57:24.3	90.490	0.250	-0.850	-0.570
2020/01/31 06:57:24.4	90.510	0.270	-0.910	-0.610
2020/01/31 06:57:24.5	90.530	0.300	-0.960	-0.640
2020/01/31 06:57:24.6	90.550	0.320	-1.010	-0.670
2020/01/31 06:57:24.7	90.570	0.340	-1.050	-0.690
2020/01/31 06:57:24.8	90.580	0.370	-1.090	-0.710
2020/01/31 06:57:24.9	90.600	0.390	-1.120	-0.720
2020/01/31 06:57:25.0	90.610	0.410	-1.140	-0.730
2020/01/31 06:57:25.1	90.620	0.420	-1.160	-0.740
2020/01/31 06:57:25.2	90.630	0.440	-1.180	-0.740
2020/01/31 06:57:25.3	90.630	0.450	-1.180	-0.730
2020/01/31 06:57:25.4	90.640	0.460	-1.180	-0.720
2020/01/31 06:57:25.5	90.640	0.470	-1.180	-0.710
2020/01/31 06:57:25.6	90.650	0.480	-1.170	-0.700
2020/01/31 06:57:25.7	90.650	0.490	-1.150	-0.680
2020/01/31 06:57:25.8	90.650	0.490	-1.130	-0.650
2020/01/31 06:57:25.9	90.650	0.490	-1.100	-0.620
2020/01/31 06:57:26.0	90.660	0.490	-1.070	-0.590
2020/01/31 06:57:26.1	90.660	0.480	-1.030	-0.550
2020/01/31 06:57:26.2	90.660	0.480	-0.980	-0.510
2020/01/31 06:57:26.3	90.660	0.470	-0.940	-0.470
2020/01/31 06:57:26.4	90.660	0.460	-0.890	-0.420
2020/01/31 06:57:26.5	90.670	0.450	-0.840	-0.360
2020/01/31 06:57:26.6	90.670	0.430	-0.780	-0.300
2020/01/31 06:57:26.7	90.670	0.420	-0.730	-0.240
2020/01/31 06:57:26.8	90.670	0.400	-0.670	-0.180
2020/01/31 06:57:26.9	90.670	0.380	-0.610	-0.110
2020/01/31 06:57:27.0	90.680	0.360	-0.550	-0.030
2020/01/31 06:57:27.1	90.680	0.330	-0.490	0.040
2020/01/31 06:57:27.2	90.680	0.310	-0.420	0.120
2020/01/31 06:57:27.3	90.680	0.280	-0.360	0.200
2020/01/31 06:57:27.4	90.680	0.250	-0.300	0.290
2020/01/31 06:57:27.5	90.680	0.220	-0.240	0.370
2020/01/31 06:57:27.6	90.680	0.190	-0.180	0.460
2020/01/31 06:57:27.7	90.680	0.160	-0.120	0.550
2020/01/31 06:57:27.8	90.680	0.130	-0.060	0.640
2020/01/31 06:57:27.9	90.680	0.100	-0.010	0.730
2020/01/31 06:57:28.0	90.670	0.070	0.040	0.820
2020/01/31 06:57:28.1	90.670	0.030	0.100	0.910
2020/01/31 06:57:28.2	90.670	-0.000	0.150	0.990
2020/01/31 06:57:28.3	90.670	-0.040	0.190	1.080
2020/01/31 06:57:28.4	90.670	-0.070	0.240	1.160
2020/01/31 06:57:28.5	90.670	-0.110	0.280	1.240
2020/01/31 06:57:28.6	90.670	-0.140	0.320	1.320
2020/01/31 06:57:28.7	90.670	-0.170	0.360	1.390
2020/01/31 06:57:28.8	90.670	-0.210	0.390	1.470
2020/01/31 06:57:28.9	90.680	-0.240	0.420	1.540
2020/01/31 06:57:29.0	90.680	-0.270	0.450	1.600
2020/01/31 06:57:29.1	90.690	-0.310	0.480	1.670
2020/01/31 06:57:29.2	90.690	-0.340	0.500	1.720
2020/01/31 06:57:29.3	90.700	-0.370	0.520	1.780
2020/01/31 06:57:29.4	90.700	-0.390	0.540	1.830
2020/01/31 06:57:29.5	90.710	-0.420	0.550	1.880
2020/01/31 06:57:29.6	90.720	-0.450	0.570	1.930
2020/01/31 06:57:29.7	90.730	-0.470	0.580	1.970
2020/01/31 06:57:29.8	90.750	-0.490	0.580	2.010
2020/01/31 06:57:29.9	90.760	-0.510	0.590	2.040
2020/01/31 06:57:30.0	90.770	-0.530	0.590	2.070
2020/01/31 06:57:30.1	90.780	-0.550	0.590	2.100
2020/01/31 06:57:30.2	90.810	-0.570	0.590	2.120
2020/01/31 06:57:30.3	90.820	-0.580	0.580	2.140
2020/01/31 06:57:30.4	90.840	-0.590	0.570	2.150
2020/01/31 06:57:30.5	90.850	-0.600	0.560	2.160
2020/01/31 06:57:30.6	90.860	-0.610	0.550	2.160
2020/01/31 06:57:30.7	90.880	-0.610	0.530	2.160
2020/01/31 06:57:30.8	90.890	-0.610	0.510	2.160
2020/01/31 06:57:30.9	90.910	-0.610	0.490	2.150
2020/01/31 06:57:31.0	90.920	-0.610	0.470	2.140
2020/01/31 06:57:31.1	90.930	-0.610	0.440	2.130
2020/01/31 06:57:31.2	90.950	-0.600	0.410	2.110
2020/01/31 06:57:31.3	90.970	-0.590	0.380	2.090
2020/01/31 06:57:31.4	90.980	-0.580	0.350	2.060
2020/01/31 06:57:31.5	90.990	-0.560	0.320	2.030
2020/01/31 06:57:31.6	91.010	-0.540	0.290	2.000
2020/01/31 06:57:31.7	91.020	-0.530	0.250	1.960
2020/01/31 06:57:31.8	91.030	-0.500	0.210	1.930
2020/01/31 06:57:31.9	91.040	-0.480	0.170	1.890
2020/01/31 06:57:32.0	91.050	-0.450	0.140	1.840
2020/01/31 06:57:32.1	91.060	-0.420	0.100	1.800
2020/01/31 06:57:32.2	91.070	-0.390	0.050	1.740
2020/01/31 06:57:32.3	91.080	-0.360	0.010	1.690
2020/01/31 06:57:32.4	91.090	-0.330	-0.030	1.640
2020/01/31 06:57:32.5	91.100	-0.290	-0.070	1.580
2020/01/31 06:57:32.6	91.100	-0.250	-0.120	1.520
2020/01/31 06:57:32.7	91.110	-0.210	-0.160	1.470
2020/01/31 06:57:32.8	91.120	-0.170	-0.210	1.410
2020/01/31 06:57:32.9	91.120	-0.130	-0.250	1.350
2020/01/31 06:57:33.0	91.130	-0.080	-0.300	1.280
2020/01/31 06:57:33.1	91.140	-0.040	-0.340	1.220
2020/01/31 06:57:33.2	91.150	0.010	-0.390	1.150
2020/01/31 06:57:33.3	91.150	0.060	-0.430	1.090
2020/01/31 06:57:33.4	91.160	0.110	-0.480	1.030
2020/01/31 06:57:33.5	91.160	0.150	-0.520	0.960
2020/01/31 06:57:33.6	91.170	0.200	-0.570	0.900
2020/01/31 06:57:33.7	91.180	0.250	-0.620	0.830
2020/01/31 06:57:33.8	91.180	0.300	-0.660	0.770
2020/01/31 06:57:33.9	91.190	0.340	-0.710	0.700
2020/01/31 06:57:34.0	91.190	0.390	-0.750	0.640
2020/01/31 06:57:34.1	91.200	0.430	-0.790	0.580
2020/01/31 06:57:34.2	91.210	0.480	-0.840	0.510
2020/01/31 06:57:34.3	91.210	0.520	-0.880	0.450
2020/01/31 06:57:34.4	91.220	0.560	-0.920	0.400
2020/01/31 06:57:34.5	91.220	0.600	-0.960	0.340
2020/01/31 06:57:34.6	91.220	0.630	-1.000	0.290
2020/01/31 06:57:34.7	91.220	0.670	-1.030	0.240
2020/01/31 06:57:34.8	91.220	0.690	-1.060	0.200
2020/01/31 06:57:34.9	91.220	0.720	-1.090	0.160
2020/01/31 06:57:35.0	91.220	0.740	-1.110	0.120
2020/01/31 06:57:35.1	91.220	0.760	-1.130	0.090
2020/01/31 06:57:35.2	91.220	0.780	-1.150	0.050
2020/01/31 06:57:35.3	91.210	0.790	-1.160	0.030
2020/01/31 06:57:35.4	91.210	0.800	-1.160	0.000
2020/01/31 06:57:35.5	91.200	0.800	-1.160	-0.020
2020/01/31 06:57:35.6	91.190	0.800	-1.160	-0.040
2020/01/31 06:57:35.7	91.180	0.800	-1.150	-0.060
2020/01/31 06:57:35.8	91.170	0.790	-1.130	-0.070
2020/01/31 06:57:35.9	91.170	0.780	-1.110	-0.080
2020/01/31 06:57:36.0	91.160	0.760	-1.070	-0.100
2020/01/31 06:57:36.1	91.150	0.730	-1.040	-0.110
2020/01/31 06:57:36.2	91.130	0.710	-0.990	-0.120
2020/01/31 06:57:36.3	91.130	0.680	-0.940	-0.130
2020/01/31 06:57:36.4	91.120	0.640	-0.890	-0.140
2020/01/31 06:57:36.5	91.110	0.610	-0.820	-0.150
2020/01/31 06:57:36.6	91.110	0.570	-0.760	-0.160
2020/01/31 06:57:36.7	91.110	0.520	-0.680	-0.160
2020/01/31 06:57:36.8	91.100	0.480	-0.610	-0.170
2020/01/31 06:57:36.9	91.100	0.430	-0.520	-0.180
2020/01/31 06:57:37.0	91.100	0.380	-0.440	-0.190
2020/01/31 06:57:37.1	91.100	0.320	-0.350	-0.200
2020/01/31 06:57:37.2	91.100	0.270	-0.260	-0.210
2020/01/31 06:57:37.3	91.100	0.220	-0.160	-0.220
2020/01/31 06:57:37.4	91.110	0.160	-0.070	-0.230
2020/01/31 06:57:37.5	91.110	0.100	0.030	-0.240
2020/01/31 06:57:37.6	91.120	0.050	0.130	-0.250
2020/01/31 06:57:37.7	91.120	-0.000	0.220	-0.260
2020/01/31 06:57:37.8	91.130	-0.060	0.320	-0.260
2020/01/31 06:57:37.9	91.140	-0.110	0.410	-0.270
2020/01/31 06:57:38.0	91.150	-0.160	0.500	-0.270
2020/01/31 06:57:38.1	91.150	-0.210	0.590	-0.280
2020/01/31 06:57:38.2	91.160	-0.260	0.670	-0.280
2020/01/31 06:57:38.3	91.170	-0.300	0.750	-0.280
2020/01/31 06:57:38.4	91.180	-0.340	0.820	-0.280
2020/01/31 06:57:38.5	91.190	-0.380	0.890	-0.280
2020/01/31 06:57:38.6	91.200	-0.420	0.950	-0.270
2020/01/31 06:57:38.7	91.210	-0.450	1.010	-0.270
2020/01/31 06:57:38.8	91.220	-0.480	1.060	-0.260
2020/01/31 06:57:38.9	91.230	-0.510	1.100	-0.250
2020/01/31 06:57:39.0	91.250	-0.530	1.130	-0.230
2020/01/31 06:57:39.1	91.260	-0.550	1.160	-0.220
2020/01/31 06:57:39.2	91.270	-0.560	1.180	-0.200
2020/01/31 06:57:39.3	91.290	-0.580	1.190	-0.180
2020/01/31 06:57:39.4	91.300	-0.590	1.190	-0.160
2020/01/31 06:57:39.5	91.320	-0.590	1.180	-0.140
2020/01/31 06:57:39.6	91.340	-0.600	1.170	-0.120
2020/01/31 06:57:39.7	91.350	-0.600	1.150	-0.090
2020/01/31 06:57:39.8	91.370	-0.590	1.120	-0.060
2020/01/31 06:57:39.9	91.390	-0.590	1.080	-0.030
2020/01/31 06:57:40.0	91.410	-0.580	1.040	0.010
2020/01/31 06:57:40.1	91.430	-0.560	0.990	0.050
2020/01/31 06:57:40.2	91.440	-0.550	0.930	0.090
2020/01/31 06:57:40.3	91.460	-0.530	0.870	0.130
2020/01/31 06:57:40.4	91.480	-0.520	0.800	0.180
2020/01/31 06:57:40.5	91.490	-0.500	0.730	0.230
2020/01/31 06:57:40.6	91.510	-0.470	0.650	0.280
2020/01/31 06:57:40.7	91.530	-0.450	0.570	0.330
2020/01/31 06:57:40.8	91.540	-0.420	0.480	0.390
2020/01/31 06:57:40.9	91.560	-0.400	0.390	0.450
2020/01/31 06:57:41.0	91.570	-0.370	0.300	0.500
2020/01/31 06:57:41.1	91.580	-0.340	0.210	0.570
2020/01/31 06:57:41.2	91.610	-0.310	0.110	0.630
2020/01/31 06:57:41.3	91.620	-0.280	0.010	0.690
2020/01/31 06:57:41.4	91.630	-0.250	-0.090	0.760
2020/01/31 06:57:41.5	91.640	-0.220	-0.190	0.820
2020/01/31 06:57:41.6	91.650	-0.190	-0.280	0.880
2020/01/31 06:57:41.7	91.660	-0.160	-0.380	0.940
2020/01/31 06:57:41.8	91.670	-0.130	-0.480	1.010
2020/01/31 06:57:41.9	91.680	-0.090	-0.580	1.070
2020/01/31 06:57:42.0	91.690	-0.060	-0.670	1.130
2020/01/31 06:57:42.1	91.690	-0.030	-0.760	1.190
2020/01/31 06:57:42.2	91.710	-0.000	-0.840	1.240
2020/01/31 06:57:42.3	91.720	0.030	-0.930	1.300
2020/01/31 06:57:42.4	91.720	0.050	-1.000	1.350
2020/01/31 06:57:42.5	91.730	0.080	-1.080	1.410
2020/01/31 06:57:42.6	91.730	0.110	-1.140	1.460
2020/01/31 06:57:42.7	91.730	0.130	-1.200	1.510
2020/01/31 06:57:42.8	91.730	0.160	-1.260	1.550
2020/01/31 06:57:42.9	91.730	0.180	-1.310	1.600
2020/01/31 06:57:43.0	91.730	0.200	-1.350	1.640
2020/01/31 06:57:43.1	91.730	0.220	-1.380	1.680
2020/01/31 06:57:43.2	91.730	0.240	-1.410	1.720
2020/01/31 06:57:43.3	91.730	0.250	-1.420	1.760
2020/01/31 06:57:43.4	91.730	0.270	-1.430	1.790
2020/01/31 06:57:43.5	91.720	0.280	-1.430	1.830
2020/01/31 06:57:43.6	91.720	0.290	-1.430	1.860
2020/01/31 06:57:43.7	91.710	0.290	-1.410	1.890
2020/01/31 06:57:43.8	91.710	0.300	-1.390	1.920
2020/01/31 06:57:43.9	91.700	0.300	-1.350	1.940
2020/01/31 06:57:44.0	91.700	0.310	-1.310	1.970
2020/01/31 06:57:44.1	91.690	0.300	-1.260	1.990
2020/01/31 06:57:44.2	91.680	0.300	-1.200	2.000
2020/01/31 06:57:44.3	91.680	0.300	-1.140	2.020
2020/01/31 06:57:44.4	91.670	0.290	-1.070	2.040
2020/01/31 06:57:44.5	91.660	0.280	-1.000	2.050
2020/01/31 06:57:44.6	91.650	0.270	-0.920	2.060
2020/01/31 06:57:44.7	91.640	0.260	-0.840	2.070
2020/01/31 06:57:44.8	91.620	0.250	-0.750	2.080
2020/01/31 06:57:44.9	91.610	0.230	-0.660	2.080
2020/01/31 06:57:45.0	91.600	0.220	-0.570	2.080
2020/01/31 06:57:45.1	91.580	0.200	-0.480	2.080
2020/01/31 06:57:45.2	91.560	0.190	-0.380	2.070
2020/01/31 06:57:45.3	91.550	0.170	-0.290	2.070
2020/01/31 06:57:45.4	91.530	0.150	-0.190	2.060
2020/01/31 06:57:45.5	91.510	0.130	-0.100	2.050
2020/01/31 06:57:45.6	91.490	0.110	-0.010	2.040
2020/01/31 06:57:45.7	91.470	0.100	0.070	2.020
2020/01/31 06:57:45.8	91.450	0.080	0.150	2.000
2020/01/31 06:57:45.9	91.430	0.060	0.230	1.980
2020/01/31 06:57:46.0	91.410	0.040	0.300	1.960
2020/01/31 06:57:46.1	91.390	0.030	0.360	1.930
2020/01/31 06:57:46.2	91.370	0.010	0.420	1.890
2020/01/31 06:57:46.3	91.350	-0.000	0.470	1.850
2020/01/31 06:57:46.4	91.340	-0.010	0.520	1.810
2020/01/31 06:57:46.5	91.320	-0.030	0.560	1.760
2020/01/31 06:57:46.6	91.310	-0.040	0.590	1.710
2020/01/31 06:57:46.7	91.290	-0.040	0.610	1.650
2020/01/31 06:57:46.8	91.290	-0.050	0.620	1.590
2020/01/31 06:57:46.9	91.280	-0.060	0.630	1.530
2020/01/31 06:57:47.0	91.270	-0.060	0.630	1.460
2020/01/31 06:57:47.1	91.270	-0.060	0.630	1.390
2020/01/31 06:57:47.2	91.280	-0.070	0.610	1.300
2020/01/31 06:57:47.3	91.280	-0.070	0.590	1.220
2020/01/31 06:57:47.4	91.290	-0.070	0.570	1.130
2020/01/31 06:57:47.5	91.300	-0.060	0.540	1.040
2020/01/31 06:57:47.6	91.310	-0.060	0.510	0.950
2020/01/31 06:57:47.7	91.330	-0.060	0.470	0.850
2020/01/31 06:57:47.8	91.350	-0.050	0.430	0.750
2020/01/31 06:57:47.9	91.370	-0.050	0.380	0.650
2020/01/31 06:57:48.0	91.400	-0.040	0.340	0.550
2020/01/31 06:57:48.1	91.430	-0.030	0.290	0.440
2020/01/31 06:57:48.2	91.460	-0.030	0.240	0.330
2020/01/31 06:57:48.3	91.490	-0.020	0.190	0.220
2020/01/31 06:57:48.4	91.520	-0.010	0.140	0.120
2020/01/31 06:57:48.5	91.560	-0.000	0.090	0.010
2020/01/31 06:57:48.6	91.600	0.000	0.040	-0.090
2020/01/31 06:57:48.7	91.630	0.010	-0.010	-0.200
2020/01/31 06:57:48.8	91.670	0.010	-0.060	-0.300
2020/01/31 06:57:48.9	91.710	0.020	-0.100	-0.400
2020/01/31 06:57:49.0	91.740	0.020	-0.150	-0.490
2020/01/31 06:57:49.1	91.780	0.030	-0.190	-0.590
2020/01/31 06:57:49.2	91.810	0.030	-0.230	-0.680
2020/01/31 06:57:49.3	91.850	0.030	-0.260	-0.760
2020/01/31 06:57:49.4	91.880	0.030	-0.290	-0.840
2020/01/31 06:57:49.5	91.910	0.030	-0.320	-0.920
2020/01/31 06:57:49.6	91.930	0.030	-0.340	-0.980
2020/01/31 06:57:49.7	91.960	0.030	-0.360	-1.050
2020/01/31 06:57:49.8	91.980	0.020	-0.370	-1.110
2020/01/31 06:57:49.9	92.000	0.020	-0.380	-1.160
2020/01/31 06:57:50.0	92.020	0.010	-0.380	-1.200
2020/01/31 06:57:50.1	92.030	0.010	-0.380	-1.240
2020/01/31 06:57:50.2	92.050	-0.000	-0.380	-1.270
2020/01/31 06:57:50.3	92.060	-0.010	-0.370	-1.300
2020/01/31 06:57:50.4	92.070	-0.020	-0.350	-1.320
2020/01/31 06:57:50.5	92.070	-0.030	-0.340	-1.330
2020/01/31 06:57:50.6	92.070	-0.040	-0.320	-1.330
2020/01/31 06:57:50.7	92.070	-0.050	-0.290	-1.330
2020/01/31 06:57:50.8	92.070	-0.070	-0.270	-1.330
2020/01/31 06:57:50.9	92.060	-0.080	-0.240	-1.320
2020/01/31 06:57:51.0	92.060	-0.090	-0.210	-1.300
2020/01/31 06:57:51.1	92.050	-0.100	-0.180	-1.270
2020/01/31 06:57:51.2	92.040	-0.120	-0.150	-1.250
2020/01/31 06:57:51.3	92.030	-0.130	-0.120	-1.220
2020/01/31 06:57:51.4	92.020	-0.140	-0.090	-1.180
2020/01/31 06:57:51.5	92.010	-0.150	-0.060	-1.140
2020/01/31 06:57:51.6	92.000	-0.160	-0.030	-1.100
2020/01/31 06:57:51.7	91.990	-0.170	0.000	-1.050
2020/01/31 06:57:51.8	91.980	-0.180	0.030	-1.000
2020/01/31 06:57:51.9	91.970	-0.190	0.050	-0.950
2020/01/31 06:57:52.0	91.960	-0.190	0.070	-0.890
2020/01/31 06:57:52.1	91.950	-0.200	0.090	-0.840
2020/01/31 06:57:52.2	91.930	-0.200	0.100	-0.780
2020/01/31 06:57:52.3	91.920	-0.200	0.110	-0.720
2020/01/31 06:57:52.4	91.910	-0.200	0.120	-0.660
2020/01/31 06:57:52.5	91.900	-0.200	0.120	-0.600
2020/01/31 06:57:52.6	91.880	-0.190	0.120	-0.530
2020/01/31 06:57:52.7	91.870	-0.190	0.120	-0.470
2020/01/31 06:57:52.8	91.860	-0.180	0.110	-0.400
2020/01/31 06:57:52.9	91.850	-0.170	0.090	-0.340
2020/01/31 06:57:53.0	91.830	-0.160	0.070	-0.270
2020/01/31 06:57:53.1	91.820	-0.140	0.050	-0.210
2020/01/31 06:57:53.2	91.810	-0.130	0.030	-0.140
2020/01/31 06:57:53.3	91.790	-0.110	-0.000	-0.080
2020/01/31 06:57:53.4	91.780	-0.100	-0.040	-0.010
2020/01/31 06:57:53.5	91.770	-0.080	-0.080	0.050
2020/01/31 06:57:53.6	91.750	-0.060	-0.120	0.120
2020/01/31 06:57:53.7	91.740	-0.040	-0.160	0.180
2020/01/31 06:57:53.8	91.720	-0.020	-0.200	0.240
2020/01/31 06:57:53.9	91.710	0.010	-0.250	0.300
2020/01/31 06:57:54.0	91.700	0.030	-0.290	0.360
2020/01/31 06:57:54.1	91.690	0.050	-0.340	0.420
2020/01/31 06:57:54.2	91.680	0.080	-0.390	0.480
2020/01/31 06:57:54.3	91.670	0.100	-0.440	0.540
2020/01/31 06:57:54.4	91.660	0.120	-0.490	0.590
2020/01/31 06:57:54.5	91.650	0.150	-0.530	0.650
2020/01/31 06:57:54.6	91.640	0.170	-0.580	0.700
2020/01/31 06:57:54.7	91.640	0.190	-0.620	0.750
2020/01/31 06:57:54.8	91.630	0.210	-0.660	0.810
2020/01/31 06:57:54.9	91.630	0.230	-0.690	0.860
2020/01/31 06:57:55.0	91.620	0.250	-0.720	0.900
2020/01/31 06:57:55.1	91.620	0.270	-0.750	0.950
2020/01/31 06:57:55.2	91.620	0.290	-0.770	1.000
2020/01/31 06:57:55.3	91.620	0.300	-0.790	1.040
2020/01/31 06:57:55.4	91.620	0.310	-0.810	1.080
2020/01/31 06:57:55.5	91.630	0.320	-0.820	1.120
2020/01/31 06:57:55.6	91.630	0.330	-0.820	1.160
2020/01/31 06:57:55.7	91.640	0.340	-0.820	1.190
2020/01/31 06:57:55.8	91.650	0.350	-0.810	1.230
2020/01/31 06:57:55.9	91.660	0.350	-0.800	1.260
2020/01/31 06:57:56.0	91.670	0.350	-0.780	1.290
2020/01/31 06:57:56.1	91.680	0.350	-0.760	1.310
2020/01/31 06:57:56.2	91.690	0.340	-0.730	1.340
2020/01/31 06:57:56.3	91.700	0.340	-0.700	1.360
2020/01/31 06:57:56.4	91.720	0.330	-0.660	1.380
2020/01/31 06:57:56.5	91.730	0.320	-0.620	1.400
2020/01/31 06:57:56.6	91.750	0.310	-0.570	1.420
2020/01/31 06:57:56.7	91.760	0.300	-0.530	1.430
2020/01/31 06:57:56.8	91.780	0.280	-0.480	1.450
2020/01/31 06:57:56.9	91.800	0.270	-0.430	1.460
2020/01/31 06:57:57.0	91.810	0.250	-0.370	1.470
2020/01/31 06:57:57.1	91.830	0.230	-0.320	1.480
2020/01/31 06:57:57.2	91.850	0.210	-0.260	1.480
2020/01/31 06:57:57.3	91.870	0.190	-0.210	1.490
2020/01/31 06:57:57.4	91.880	0.170	-0.160	1.490
2020/01/31 06:57:57.5	91.900	0.150	-0.100	1.490
2020/01/31 06:57:57.6	91.920	0.130	-0.050	1.490
2020/01/31 06:57:57.7	91.940	0.110	-0.000	1.490
2020/01/31 06:57:57.8	91.960	0.080	0.050	1.490
2020/01/31 06:57:57.9	91.980	0.060	0.090	1.490
2020/01/31 06:57:58.0	92.000	0.040	0.140	1.480
2020/01/31 06:57:58.1	92.020	0.020	0.180	1.480
2020/01/31 06:57:58.2	92.040	-0.000	0.220	1.470
2020/01/31 06:57:58.3	92.060	-0.020	0.250	1.460
2020/01/31 06:57:58.4	92.090	-0.040	0.280	1.450
2020/01/31 06:57:58.5	92.110	-0.060	0.310	1.440
2020/01/31 06:57:58.6	92.140	-0.080	0.340	1.430
2020/01/31 06:57:58.7	92.160	-0.100	0.360	1.410
2020/01/31 06:57:58.8	92.190	-0.110	0.380	1.400
2020/01/31 06:57:58.9	92.210	-0.130	0.400	1.390
2020/01/31 06:57:59.0	92.240	-0.140	0.410	1.380
2020/01/31 06:57:59.1	92.260	-0.150	0.420	1.360
2020/01/31 06:57:59.2	92.290	-0.160	0.430	1.350
2020/01/31 06:57:59.3	92.310	-0.180	0.440	1.340
2020/01/31 06:57:59.4	92.340	-0.180	0.440	1.330
2020/01/31 06:57:59.5	92.360	-0.190	0.440	1.320
2020/01/31 06:57:59.6	92.380	-0.200	0.440	1.310
2020/01/31 06:57:59.7	92.400	-0.210	0.430	1.300
2020/01/31 06:57:59.8	92.420	-0.210	0.420	1.290
2020/01/31 06:57:59.9	92.440	-0.220	0.410	1.290
2020/01/31 06:58:00.0	92.460	-0.220	0.400	1.280
2020/01/31 06:58:00.1	92.470	-0.230	0.390	1.280
2020/01/31 06:58:00.2	92.480	-0.230	0.360	1.270
2020/01/31 06:58:00.3	92.490	-0.240	0.350	1.260
2020/01/31 06:58:00.4	92.500	-0.240	0.320	1.260
2020/01/31 06:58:00.5	92.510	-0.240	0.300	1.260
2020/01/31 06:58:00.6	92.520	-0.240	0.280	1.250
2020/01/31 06:58:00.7	92.530	-0.250	0.250	1.250
2020/01/31 06:58:00.8	92.540	-0.250	0.220	1.240
2020/01/31 06:58:00.9	92.540	-0.250	0.200	1.230
2020/01/31 06:58:01.0	92.550	-0.250	0.170	1.230
2020/01/31 06:58:01.1	92.550	-0.260	0.140	1.220
2020/01/31 06:58:01.2	92.550	-0.260	0.110	1.210
2020/01/31 06:58:01.3	92.550	-0.260	0.080	1.200
2020/01/31 06:58:01.4	92.550	-0.270	0.050	1.190
2020/01/31 06:58:01.5	92.550	-0.270	0.020	1.180
2020/01/31 06:58:01.6	92.550	-0.270	-0.010	1.160
2020/01/31 06:58:01.7	92.550	-0.280	-0.040	1.150
2020/01/31 06:58:01.8	92.540	-0.280	-0.070	1.140
2020/01/31 06:58:01.9	92.540	-0.290	-0.090	1.120
2020/01/31 06:58:02.0	92.530	-0.290	-0.120	1.100
2020/01/31 06:58:02.1	92.520	-0.290	-0.140	1.080
2020/01/31 06:58:02.2	92.520	-0.300	-0.160	1.060
2020/01/31 06:58:02.3	92.510	-0.300	-0.180	1.030
2020/01/31 06:58:02.4	92.490	-0.310	-0.200	1.010
2020/01/31 06:58:02.5	92.480	-0.310	-0.220	0.990
2020/01/31 06:58:02.6	92.470	-0.310	-0.230	0.960
2020/01/31 06:58:02.7	92.450	-0.320	-0.250	0.930
2020/01/31 06:58:02.8	92.440	-0.320	-0.260	0.910
2020/01/31 06:58:02.9	92.420	-0.320	-0.270	0.880
2020/01/31 06:58:03.0	92.400	-0.320	-0.280	0.850
2020/01/31 06:58:03.1	92.380	-0.320	-0.290	0.820
2020/01/31 06:58:03.2	92.350	-0.330	-0.290	0.790
2020/01/31 06:58:03.3	92.330	-0.320	-0.300	0.760
2020/01/31 06:58:03.4	92.300	-0.320	-0.300	0.740
2020/01/31 06:58:03.5	92.280	-0.320	-0.300	0.710
2020/01/31 06:58:03.6	92.250	-0.320	-0.300	0.680
2020/01/31 06:58:03.7	92.220	-0.310	-0.300	0.650
2020/01/31 06:58:03.8	92.190	-0.310	-0.290	0.630
2020/01/31 06:58:03.9	92.160	-0.300	-0.290	0.600
2020/01/31 06:58:04.0	92.130	-0.290	-0.290	0.570
2020/01/31 06:58:04.1	92.100	-0.280	-0.290	0.550
2020/01/31 06:58:04.2	92.080	-0.270	-0.280	0.520
2020/01/31 06:58:04.3	92.040	-0.260	-0.280	0.500
2020/01/31 06:58:04.4	92.010	-0.250	-0.270	0.470
2020/01/31 06:58:04.5	91.980	-0.230	-0.270	0.450
2020/01/31 06:58:04.6	91.940	-0.210	-0.280	0.430
2020/01/31 06:58:04.7	91.910	-0.200	-0.280	0.400
2020/01/31 06:58:04.8	91.880	-0.180	-0.280	0.380
2020/01/31 06:58:04.9	91.850	-0.160	-0.290	0.350
2020/01/31 06:58:05.0	91.820	-0.130	-0.300	0.330
2020/01/31 06:58:05.1	91.790	-0.110	-0.310	0.300
2020/01/31 06:58:05.2	91.770	-0.080	-0.330	0.270
2020/01/31 06:58:05.3	91.750	-0.060	-0.340	0.240
2020/01/31 06:58:05.4	91.730	-0.030	-0.360	0.210
2020/01/31 06:58:05.5	91.710	0.000	-0.380	0.180
2020/01/31 06:58:05.6	91.700	0.030	-0.410	0.150
2020/01/31 06:58:05.7	91.690	0.060	-0.440	0.110
2020/01/31 06:58:05.8	91.690	0.100	-0.470	0.070
2020/01/31 06:58:05.9	91.690	0.130	-0.500	0.020
2020/01/31 06:58:06.0	91.700	0.160	-0.530	-0.020
2020/01/31 06:58:06.1	91.710	0.200	-0.560	-0.070
2020/01/31 06:58:06.2	91.720	0.240	-0.600	-0.120
2020/01/31 06:58:06.3	91.730	0.270	-0.630	-0.170
2020/01/31 06:58:06.4	91.760	0.310	-0.660	-0.220
2020/01/31 06:58:06.5	91.780	0.350	-0.700	-0.280
2020/01/31 06:58:06.6	91.810	0.380	-0.730	-0.330
2020/01/31 06:58:06.7	91.840	0.420	-0.760	-0.390
2020/01/31 06:58:06.8	91.870	0.450	-0.790	-0.440
2020/01/31 06:58:06.9	91.910	0.490	-0.820	-0.500
2020/01/31 06:58:07.0	91.950	0.520	-0.840	-0.550
2020/01/31 06:58:07.1	91.980	0.560	-0.860	-0.600
2020/01/31 06:58:07.2	92.020	0.590	-0.880	-0.650
2020/01/31 06:58:07.3	92.060	0.620	-0.890	-0.690
2020/01/31 06:58:07.4	92.100	0.640	-0.900	-0.730
2020/01/31 06:58:07.5	92.140	0.670	-0.900	-0.760
2020/01/31 06:58:07.6	92.170	0.690	-0.900	-0.780
2020/01/31 06:58:07.7	92.210	0.720	-0.890	-0.810
2020/01/31 06:58:07.8	92.240	0.730	-0.870	-0.820
2020/01/31 06:58:07.9	92.270	0.750	-0.860	-0.830
2020/01/31 06:58:08.0	92.290	0.760	-0.830	-0.830
2020/01/31 06:58:08.1	92.320	0.770	-0.800	-0.830
2020/01/31 06:58:08.2	92.350	0.780	-0.760	-0.810
2020/01/31 06:58:08.3	92.370	0.790	-0.730	-0.790
2020/01/31 06:58:08.4	92.380	0.790	-0.680	-0.760
2020/01/31 06:58:08.5	92.390	0.780	-0.640	-0.730
2020/01/31 06:58:08.6	92.400	0.780	-0.590	-0.690
2020/01/31 06:58:08.7	92.400	0.770	-0.530	-0.640
2020/01/31 06:58:08.8	92.400	0.750	-0.480	-0.590
2020/01/31 06:58:08.9	92.400	0.740	-0.420	-0.530
2020/01/31 06:58:09.0	92.400	0.720	-0.360	-0.460
2020/01/31 06:58:09.1	92.390	0.690	-0.290	-0.390
2020/01/31 06:58:09.2	92.380	0.670	-0.230	-0.320
2020/01/31 06:58:09.3	92.360	0.640	-0.170	-0.240
2020/01/31 06:58:09.4	92.350	0.600	-0.100	-0.150
2020/01/31 06:58:09.5	92.330	0.570	-0.030	-0.060
2020/01/31 06:58:09.6	92.310	0.530	0.030	0.030
2020/01/31 06:58:09.7	92.290	0.490	0.100	0.120
2020/01/31 06:58:09.8	92.260	0.450	0.160	0.220
2020/01/31 06:58:09.9	92.240	0.400	0.220	0.320
2020/01/31 06:58:10.0	92.210	0.350	0.290	0.420
2020/01/31 06:58:10.1	92.180	0.310	0.350	0.510
2020/01/31 06:58:10.2	92.160	0.260	0.410	0.610
2020/01/31 06:58:10.3	92.140	0.200	0.460	0.710
2020/01/31 06:58:10.4	92.110	0.150	0.510	0.810
2020/01/31 06:58:10.5	92.080	0.100	0.560	0.900
2020/01/31 06:58:10.6	92.060	0.050	0.610	0.990
2020/01/31 06:58:10.7	92.030	-0.010	0.650	1.080
2020/01/31 06:58:10.8	92.010	-0.060	0.690	1.160
2020/01/31 06:58:10.9	91.990	-0.110	0.730	1.240
2020/01/31 06:58:11.0	91.970	-0.170	0.770	1.320
2020/01/31 06:58:11.1	91.950	-0.220	0.800	1.390
2020/01/31 06:58:11.2	91.920	-0.270	0.820	1.460
2020/01/31 06:58:11.3	91.900	-0.320	0.850	1.530
2020/01/31 06:58:11.4	91.890	-0.370	0.870	1.590
2020/01/31 06:58:11.5	91.880	-0.410	0.880	1.640
2020/01/31 06:58:11.6	91.870	-0.460	0.900	1.700
2020/01/31 06:58:11.7	91.860	-0.500	0.910	1.740
2020/01/31 06:58:11.8	91.850	-0.540	0.910	1.790
2020/01/31 06:58:11.9	91.840	-0.580	0.920	1.830
2020/01/31 06:58:12.0	91.840	-0.610	0.910	1.870
2020/01/31 06:58:12.1	91.830	-0.640	0.910	1.910
2020/01/31 06:58:12.2	91.820	-0.670	0.900	1.940
2020/01/31 06:58:12.3	91.820	-0.700	0.880	1.970
2020/01/31 06:58:12.4	91.820	-0.720	0.870	2.000
2020/01/31 06:58:12.5	91.820	-0.740	0.840	2.020
2020/01/31 06:58:12.6	91.820	-0.760	0.820	2.050
2020/01/31 06:58:12.7	91.820	-0.770	0.780	2.070
2020/01/31 06:58:12.8	91.820	-0.780	0.750	2.080
2020/01/31 06:58:12.9	91.830	-0.790	0.700	2.100
2020/01/31 06:58:13.0	91.830	-0.790	0.660	2.110
2020/01/31 06:58:13.1	91.840	-0.790	0.610	2.120
2020/01/31 06:58:13.2	91.840	-0.780	0.550	2.130
2020/01/31 06:58:13.3	91.840	-0.770	0.490	2.140
2020/01/31 06:58:13.4	91.850	-0.760	0.430	2.140
2020/01/31 06:58:13.5	91.860	-0.750	0.360	2.140
2020/01/31 06:58:13.6	91.870	-0.730	0.290	2.130
2020/01/31 06:58:13.7	91.890	-0.710	0.220	2.130
2020/01/31 06:58:13.8	91.900	-0.690	0.140	2.120
2020/01/31 06:58:13.9	91.920	-0.660	0.060	2.100
2020/01/31 06:58:14.0	91.930	-0.630	-0.020	2.090
2020/01/31 06:58:14.1	91.950	-0.600	-0.100	2.060
2020/01/31 06:58:14.2	91.970	-0.570	-0.190	2.040
2020/01/31 06:58:14.3	91.990	-0.540	-0.270	2.010
2020/01/31 06:58:14.4	92.010	-0.500	-0.350	1.980
2020/01/31 06:58:14.5	92.040	-0.470	-0.430	1.940
2020/01/31 06:58:14.6	92.060	-0.440	-0.510	1.910
2020/01/31 06:58:14.7	92.080	-0.400	-0.580	1.870
2020/01/31 06:58:14.8	92.100	-0.360	-0.660	1.820
2020/01/31 06:58:14.9	92.120	-0.330	-0.720	1.780
2020/01/31 06:58:15.0	92.140	-0.300	-0.790	1.730
2020/01/31 06:58:15.1	92.160	-0.260	-0.850	1.680
2020/01/31 06:58:15.2	92.190	-0.230	-0.910	1.630
2020/01/31 06:58:15.3	92.200	-0.200	-0.960	1.580
2020/01/31 06:58:15.4	92.220	-0.170	-1.000	1.530
2020/01/31 06:58:15.5	92.240	-0.140	-1.040	1.480
2020/01/31 06:58:15.6	92.250	-0.110	-1.070	1.420
2020/01/31 06:58:15.7	92.260	-0.080	-1.100	1.370
2020/01/31 06:58:15.8	92.260	-0.060	-1.120	1.320
2020/01/31 06:58:15.9	92.270	-0.030	-1.130	1.270
2020/01/31 06:58:16.0	92.270	-0.010	-1.140	1.220
2020/01/31 06:58:16.1	92.270	0.010	-1.140	1.170
2020/01/31 06:58:16.2	92.280	0.030	-1.140	1.120
2020/01/31 06:58:16.3	92.270	0.050	-1.130	1.070
2020/01/31 06:58:16.4	92.270	0.060	-1.110	1.030
2020/01/31 06:58:16.5	92.260	0.080	-1.090	0.990
2020/01/31 06:58:16.6	92.250	0.090	-1.070	0.950
2020/01/31 06:58:16.7	92.240	0.100	-1.040	0.910
2020/01/31 06:58:16.8	92.230	0.120	-1.010	0.870
2020/01/31 06:58:16.9	92.210	0.130	-0.980	0.830
2020/01/31 06:58:17.0	92.190	0.140	-0.940	0.800
2020/01/31 06:58:17.1	92.180	0.150	-0.900	0.760
2020/01/31 06:58:17.2	92.170	0.160	-0.850	0.730
2020/01/31 06:58:17.3	92.150	0.170	-0.810	0.690
2020/01/31 06:58:17.4	92.130	0.170	-0.760	0.660
2020/01/31 06:58:17.5	92.100	0.180	-0.720	0.630
2020/01/31 06:58:17.6	92.080	0.190	-0.670	0.600
2020/01/31 06:58:17.7	92.060	0.200	-0.630	0.570
2020/01/31 06:58:17.8	92.040	0.200	-0.590	0.540
2020/01/31 06:58:17.9	92.010	0.210	-0.540	0.500
2020/01/31 06:58:18.0	91.990	0.220	-0.500	0.470
2020/01/31 06:58:18.1	91.960	0.220	-0.460	0.440
2020/01/31 06:58:18.2	91.930	0.230	-0.420	0.410
2020/01/31 06:58:18.3	91.910	0.230	-0.380	0.380
2020/01/31 06:58:18.4	91.880	0.240	-0.350	0.340
2020/01/31 06:58:18.5	91.860	0.250	-0.310	0.310
2020/01/31 06:58:18.6	91.830	0.250	-0.280	0.280
2020/01/31 06:58:18.7	91.810	0.260	-0.250	0.240
2020/01/31 06:58:18.8	91.790	0.260	-0.230	0.210
2020/01/31 06:58:18.9	91.770	0.260	-0.200	0.170
2020/01/31 06:58:19.0	91.750	0.270	-0.180	0.130
2020/01/31 06:58:19.1	91.740	0.270	-0.150	0.090
2020/01/31 06:58:19.2	91.730	0.270	-0.130	0.050
2020/01/31 06:58:19.3	91.720	0.280	-0.120	0.010
2020/01/31 06:58:19.4	91.710	0.280	-0.100	-0.030
2020/01/31 06:58:19.5	91.700	0.280	-0.080	-0.080
2020/01/31 06:58:19.6	91.700	0.280	-0.060	-0.120
2020/01/31 06:58:19.7	91.700	0.280	-0.050	-0.170
2020/01/31 06:58:19.8	91.700	0.270	-0.030	-0.220
2020/01/31 06:58:19.9	91.710	0.270	-0.020	-0.260
2020/01/31 06:58:20.0	91.720	0.270	-0.010	-0.310
2020/01/31 06:58:20.1	91.730	0.260	0.010	-0.360
2020/01/31 06:58:20.2	91.730	0.260	0.020	-0.410
2020/01/31 06:58:20.3	91.750	0.250	0.040	-0.460
2020/01/31 06:58:20.4	91.770	0.250	0.050	-0.510
2020/01/31 06:58:20.5	91.790	0.240	0.060	-0.560
2020/01/31 06:58:20.6	91.810	0.230	0.080	-0.610
2020/01/31 06:58:20.7	91.830	0.220	0.090	-0.660
2020/01/31 06:58:20.8	91.860	0.210	0.110	-0.710
2020/01/31 06:58:20.9	91.890	0.200	0.120	-0.750
2020/01/31 06:58:21.0	91.910	0.190	0.130	-0.790
2020/01/31 06:58:21.1	91.940	0.180	0.150	-0.840
2020/01/31 06:58:21.2	91.970	0.170	0.160	-0.880
2020/01/31 06:58:21.3	92.000	0.160	0.170	-0.910
2020/01/31 06:58:21.4	92.030	0.150	0.180	-0.940
2020/01/31 06:58:21.5	92.060	0.140	0.190	-0.970
2020/01/31 06:58:21.6	92.090	0.130	0.200	-1.000
2020/01/31 06:58:21.7	92.110	0.120	0.210	-1.020
2020/01/31 06:58:21.8	92.140	0.110	0.220	-1.030
2020/01/31 06:58:21.9	92.170	0.100	0.230	-1.050
2020/01/31 06:58:22.0	92.190	0.090	0.240	-1.060
2020/01/31 06:58:22.1	92.220	0.090	0.240	-1.060
2020/01/31 06:58:22.2	92.240	0.080	0.240	-1.060
2020/01/31 06:58:22.3	92.260	0.080	0.250	-1.050
2020/01/31 06:58:22.4	92.290	0.070	0.250	-1.050
2020/01/31 06:58:22.5	92.310	0.070	0.250	-1.030
2020/01/31 06:58:22.6	92.330	0.070	0.240	-1.020
2020/01/31 06:58:22.7	92.350	0.070	0.240	-0.990
2020/01/31 06:58:22.8	92.370	0.070	0.230	-0.970
2020/01/31 06:58:22.9	92.390	0.080	0.220	-0.940
2020/01/31 06:58:23.0	92.410	0.080	0.210	-0.900
2020/01/31 06:58:23.1	92.420	0.080	0.200	-0.860
2020/01/31 06:58:23.2	92.430	0.090	0.190	-0.810
2020/01/31 06:58:23.3	92.440	0.100	0.170	-0.760
2020/01/31 06:58:23.4	92.450	0.100	0.160	-0.710
2020/01/31 06:58:23.5	92.460	0.110	0.150	-0.650
2020/01/31 06:58:23.6	92.470	0.110	0.130	-0.580
2020/01/31 06:58:23.7	92.480	0.120	0.110	-0.510
2020/01/31 06:58:23.8	92.480	0.130	0.100	-0.440
2020/01/31 06:58:23.9	92.480	0.130	0.080	-0.360
2020/01/31 06:58:24.0	92.480	0.140	0.060	-0.280
2020/01/31 06:58:24.1	92.480	0.150	0.050	-0.200
2020/01/31 06:58:24.2	92.470	0.150	0.030	-0.110
2020/01/31 06:58:24.3	92.460	0.150	0.010	-0.020
2020/01/31 06:58:24.4	92.450	0.160	-0.010	0.080
2020/01/31 06:58:24.5	92.440	0.160	-0.030	0.170
2020/01/31 06:58:24.6	92.430	0.160	-0.050	0.270
2020/01/31 06:58:24.7	92.420	0.160	-0.070	0.370
2020/01/31 06:58:24.8	92.410	0.160	-0.090	0.470
2020/01/31 06:58:24.9	92.400	0.150	-0.110	0.580
2020/01/31 06:58:25.0	92.390	0.150	-0.130	0.680
2020/01/31 06:58:25.1	92.380	0.140	-0.150	0.780
2020/01/31 06:58:25.2	92.370	0.140	-0.170	0.890
2020/01/31 06:58:25.3	92.370	0.130	-0.190	0.990
2020/01/31 06:58:25.4	92.360	0.120	-0.220	1.090
2020/01/31 06:58:25.5	92.350	0.110	-0.240	1.190
2020/01/31 06:58:25.6	92.350	0.100	-0.260	1.290
2020/01/31 06:58:25.7	92.350	0.080	-0.290	1.380
2020/01/31 06:58:25.8	92.350	0.070	-0.310	1.480
2020/01/31 06:58:25.9	92.360	0.050	-0.340	1.570
2020/01/31 06:58:26.0	92.360	0.040	-0.360	1.660
2020/01/31 06:58:26.1	92.370	0.020	-0.390	1.740
2020/01/31 06:58:26.2	92.390	0.000	-0.420	1.820
2020/01/31 06:58:26.3	92.400	-0.010	-0.440	1.900
2020/01/31 06:58:26.4	92.420	-0.030	-0.470	1.980
2020/01/31 06:58:26.5	92.430	-0.050	-0.490	2.050
2020/01/31 06:58:26.6	92.450	-0.070	-0.510	2.120
2020/01/31 06:58:26.7	92.480	-0.090	-0.530	2.190
2020/01/31 06:58:26.8	92.500	-0.110	-0.550	2.260
2020/01/31 06:58:26.9	92.520	-0.130	-0.570	2.320
2020/01/31 06:58:27.0	92.550	-0.140	-0.580	2.380
2020/01/31 06:58:27.1	92.570	-0.160	-0.590	2.430
2020/01/31 06:58:27.2	92.600	-0.180	-0.600	2.480
2020/01/31 06:58:27.3	92.630	-0.200	-0.600	2.530
2020/01/31 06:58:27.4	92.660	-0.220	-0.610	2.570
2020/01/31 06:58:27.5	92.690	-0.230	-0.610	2.610
2020/01/31 06:58:27.6	92.720	-0.250	-0.600	2.650
2020/01/31 06:58:27.7	92.750	-0.260	-0.590	2.680
2020/01/31 06:58:27.8	92.780	-0.280	-0.580	2.710
2020/01/31 06:58:27.9	92.810	-0.290	-0.560	2.730
2020/01/31 06:58:28.0	92.840	-0.300	-0.540	2.750
2020/01/31 06:58:28.1	92.870	-0.310	-0.510	2.770
2020/01/31 06:58:28.2	92.910	-0.320	-0.480	2.780
2020/01/31 06:58:28.3	92.940	-0.330	-0.450	2.790
2020/01/31 06:58:28.4	92.970	-0.340	-0.400	2.790
2020/01/31 06:58:28.5	93.000	-0.350	-0.360	2.790
2020/01/31 06:58:28.6	93.030	-0.360	-0.310	2.790
2020/01/31 06:58:28.7	93.060	-0.370	-0.260	2.790
2020/01/31 06:58:28.8	93.080	-0.370	-0.200	2.780
2020/01/31 06:58:28.9	93.110	-0.380	-0.140	2.770
2020/01/31 06:58:29.0	93.130	-0.390	-0.080	2.750
2020/01/31 06:58:29.1	93.150	-0.390	-0.020	2.730
2020/01/31 06:58:29.2	93.180	-0.400	0.050	2.710
2020/01/31 06:58:29.3	93.200	-0.400	0.110	2.690
2020/01/31 06:58:29.4	93.210	-0.410	0.170	2.670
2020/01/31 06:58:29.5	93.220	-0.410	0.240	2.640
2020/01/31 06:58:29.6	93.230	-0.420	0.300	2.610
2020/01/31 06:58:29.7	93.240	-0.420	0.360	2.580
2020/01/31 06:58:29.8	93.240	-0.430	0.410	2.550
2020/01/31 06:58:29.9	93.240	-0.430	0.470	2.520
2020/01/31 06:58:30.0	93.240	-0.430	0.510	2.490
2020/01/31 06:58:30.1	93.230	-0.430	0.560	2.450
2020/01/31 06:58:30.2	93.220	-0.440	0.600	2.410
2020/01/31 06:58:30.3	93.210	-0.440	0.630	2.370
2020/01/31 06:58:30.4	93.200	-0.440	0.650	2.330
2020/01/31 06:58:30.5	93.190	-0.440	0.670	2.300
2020/01/31 06:58:30.6	93.170	-0.440	0.690	2.250
2020/01/31 06:58:30.7	93.150	-0.440	0.690	2.210
2020/01/31 06:58:30.8	93.130	-0.430	0.690	2.170
2020/01/31 06:58:30.9	93.110	-0.430	0.680	2.130
2020/01/31 06:58:31.0	93.090	-0.430	0.670	2.080
2020/01/31 06:58:31.1	93.070	-0.420	0.640	2.030
2020/01/31 06:58:31.2	93.050	-0.410	0.610	1.980
2020/01/31 06:58:31.3	93.020	-0.400	0.570	1.930
2020/01/31 06:58:31.4	93.000	-0.390	0.530	1.880
2020/01/31 06:58:31.5	92.980	-0.380	0.470	1.820
2020/01/31 06:58:31.6	92.960	-0.370	0.420	1.760
2020/01/31 06:58:31.7	92.940	-0.360	0.350	1.700
2020/01/31 06:58:31.8	92.920	-0.340	0.290	1.640
2020/01/31 06:58:31.9	92.900	-0.320	0.210	1.580
2020/01/31 06:58:32.0	92.880	-0.300	0.130	1.510
2020/01/31 06:58:32.1	92.870	-0.280	0.050	1.440
2020/01/31 06:58:32.2	92.840	-0.260	-0.030	1.360
2020/01/31 06:58:32.3	92.830	-0.230	-0.120	1.290
2020/01/31 06:58:32.4	92.810	-0.210	-0.210	1.210
2020/01/31 06:58:32.5	92.800	-0.180	-0.300	1.130
2020/01/31 06:58:32.6	92.790	-0.150	-0.390	1.050
2020/01/31 06:58:32.7	92.770	-0.110	-0.480	0.960
2020/01/31 06:58:32.8	92.760	-0.080	-0.580	0.880
2020/01/31 06:58:32.9	92.750	-0.050	-0.670	0.790
2020/01/31 06:58:33.0	92.740	-0.010	-0.750	0.700
2020/01/31 06:58:33.1	92.730	0.030	-0.840	0.610
2020/01/31 06:58:33.2	92.710	0.070	-0.920	0.510
2020/01/31 06:58:33.3	92.700	0.110	-1.000	0.420
2020/01/31 06:58:33.4	92.700	0.150	-1.070	0.320
2020/01/31 06:58:33.5	92.690	0.190	-1.140	0.230
2020/01/31 06:58:33.6	92.690	0.230	-1.200	0.130
2020/01/31 06:58:33.7	92.690	0.270	-1.260	0.040
2020/01/31 06:58:33.8	92.690	0.320	-1.310	-0.060
2020/01/31 06:58:33.9	92.690	0.360	-1.350	-0.150
2020/01/31 06:58:34.0	92.690	0.400	-1.380	-0.250
2020/01/31 06:58:34.1	92.700	0.450	-1.410	-0.340
2020/01/31 06:58:34.2	92.710	0.490	-1.430	-0.430
2020/01/31 06:58:34.3	92.720	0.530	-1.440	-0.510
2020/01/31 06:58:34.4	92.730	0.570	-1.440	-0.600
2020/01/31 06:58:34.5	92.740	0.610	-1.440	-0.680
2020/01/31 06:58:34.6	92.750	0.650	-1.420	-0.760
2020/01/31 06:58:34.7	92.770	0.690	-1.400	-0.830
2020/01/31 06:58:34.8	92.790	0.720	-1.380	-0.900
2020/01/31 06:58:34.9	92.810	0.750	-1.340	-0.970
2020/01/31 06:58:35.0	92.830	0.790	-1.300	-1.030
2020/01/31 06:58:35.1	92.850	0.810	-1.250	-1.090
2020/01/31 06:58:35.2	92.870	0.840	-1.200	-1.140
2020/01/31 06:58:35.3	92.900	0.860	-1.140	-1.190
2020/01/31 06:58:35.4	92.930	0.880	-1.070	-1.230
2020/01/31 06:58:35.5	92.950	0.900	-1.000	-1.260
2020/01/31 06:58:35.6	92.980	0.920	-0.930	-1.290
2020/01/31 06:58:35.7	93.010	0.930	-0.860	-1.320
2020/01/31 06:58:35.8	93.040	0.930	-0.780	-1.340
2020/01/31 06:58:35.9	93.070	0.940	-0.690	-1.350
2020/01/31 06:58:36.0	93.100	0.940	-0.610	-1.360
2020/01/31 06:58:36.1	93.130	0.930	-0.530	-1.360
2020/01/31 06:58:36.2	93.170	0.930	-0.440	-1.350
2020/01/31 06:58:36.3	93.200	0.920	-0.350	-1.340
2020/01/31 06:58:36.4	93.220	0.900	-0.260	-1.320
2020/01/31 06:58:36.5	93.250	0.880	-0.170	-1.300
2020/01/31 06:58:36.6	93.270	0.860	-0.090	-1.270
2020/01/31 06:58:36.7	93.290	0.830	0.000	-1.230
2020/01/31 06:58:36.8	93.310	0.800	0.090	-1.190
2020/01/31 06:58:36.9	93.330	0.770	0.170	-1.140
2020/01/31 06:58:37.0	93.350	0.730	0.260	-1.090
2020/01/31 06:58:37.1	93.360	0.680	0.340	-1.030
2020/01/31 06:58:37.2	93.370	0.640	0.420	-0.970
2020/01/31 06:58:37.3	93.380	0.590	0.500	-0.900
2020/01/31 06:58:37.4	93.380	0.530	0.580	-0.820
2020/01/31 06:58:37.5	93.390	0.480	0.660	-0.740
2020/01/31 06:58:37.6	93.390	0.420	0.730	-0.660
2020/01/31 06:58:37.7	93.380	0.360	0.800	-0.570
2020/01/31 06:58:37.8	93.380	0.290	0.870	-0.480
2020/01/31 06:58:37.9	93.370	0.230	0.940	-0.380
2020/01/31 06:58:38.0	93.360	0.160	1.000	-0.290
2020/01/31 06:58:38.1	93.350	0.090	1.060	-0.180
2020/01/31 06:58:38.2	93.340	0.020	1.110	-0.070
2020/01/31 06:58:38.3	93.320	-0.060	1.170	0.040
2020/01/31 06:58:38.4	93.310	-0.130	1.210	0.150
2020/01/31 06:58:38.5	93.280	-0.200	1.250	0.260
2020/01/31 06:58:38.6	93.260	-0.270	1.290	0.380
2020/01/31 06:58:38.7	93.240	-0.340	1.320	0.500
2020/01/31 06:58:38.8	93.210	-0.410	1.350	0.610
2020/01/31 06:58:38.9	93.180	-0.480	1.370	0.730
2020/01/31 06:58:39.0	93.160	-0.540	1.380	0.850
2020/01/31 06:58:39.1	93.130	-0.600	1.390	0.970
2020/01/31 06:58:39.2	93.100	-0.660	1.380	1.090
2020/01/31 06:58:39.3	93.070	-0.720	1.380	1.210
2020/01/31 06:58:39.4	93.040	-0.770	1.360	1.320
2020/01/31 06:58:39.5	93.010	-0.820	1.330	1.430
2020/01/31 06:58:39.6	92.990	-0.860	1.300	1.540
2020/01/31 06:58:39.7	92.960	-0.900	1.260	1.650
2020/01/31 06:58:39.8	92.930	-0.930	1.210	1.750
2020/01/31 06:58:39.9	92.910	-0.960	1.150	1.850
2020/01/31 06:58:40.0	92.890	-0.990	1.080	1.950
2020/01/31 06:58:40.1	92.870	-1.000	1.000	2.040
2020/01/31 06:58:40.2	92.850	-1.010	0.920	2.120
2020/01/31 06:58:40.3	92.830	-1.020	0.830	2.200
2020/01/31 06:58:40.4	92.820	-1.020	0.720	2.280
2020/01/31 06:58:40.5	92.810	-1.010	0.620	2.350
2020/01/31 06:58:40.6	92.790	-1.000	0.500	2.420
2020/01/31 06:58:40.7	92.790	-0.980	0.380	2.480
2020/01/31 06:58:40.8	92.780	-0.960	0.260	2.540
2020/01/31 06:58:40.9	92.770	-0.930	0.130	2.600
2020/01/31 06:58:41.0	92.770	-0.900	-0.010	2.650
2020/01/31 06:58:41.1	92.770	-0.860	-0.140	2.690
2020/01/31 06:58:41.2	92.770	-0.810	-0.290	2.730
2020/01/31 06:58:41.3	92.770	-0.770	-0.430	2.770
2020/01/31 06:58:41.4	92.780	-0.710	-0.570	2.810
2020/01/31 06:58:41.5	92.790	-0.660	-0.700	2.840
2020/01/31 06:58:41.6	92.800	-0.600	-0.840	2.860
2020/01/31 06:58:41.7	92.810	-0.540	-0.970	2.890
2020/01/31 06:58:41.8	92.820	-0.480	-1.090	2.910
2020/01/31 06:58:41.9	92.830	-0.410	-1.210	2.930
2020/01/31 06:58:42.0	92.840	-0.350	-1.330	2.950
2020/01/31 06:58:42.1	92.860	-0.280	-1.430	2.960
2020/01/31 06:58:42.2	92.870	-0.220	-1.540	2.970
2020/01/31 06:58:42.3	92.890	-0.150	-1.630	2.980
2020/01/31 06:58:42.4	92.900	-0.090	-1.710	2.990
2020/01/31 06:58:42.5	92.910	-0.030	-1.780	2.990
2020/01/31 06:58:42.6	92.930	0.030	-1.840	3.000
2020/01/31 06:58:42.7	92.940	0.090	-1.890	3.000
2020/01/31 06:58:42.8	92.960	0.150	-1.930	2.990
2020/01/31 06:58:42.9	92.970	0.200	-1.950	2.990
2020/01/31 06:58:43.0	92.980	0.250	-1.970	2.980
2020/01/31 06:58:43.1	92.990	0.290	-1.970	2.980
2020/01/31 06:58:43.2	93.000	0.330	-1.960	2.960
2020/01/31 06:58:43.3	93.010	0.370	-1.940	2.950
2020/01/31 06:58:43.4	93.010	0.400	-1.910	2.930
2020/01/31 06:58:43.5	93.020	0.430	-1.870	2.910
2020/01/31 06:58:43.6	93.030	0.460	-1.820	2.880
2020/01/31 06:58:43.7	93.030	0.480	-1.760	2.850
2020/01/31 06:58:43.8	93.040	0.490	-1.690	2.820
2020/01/31 06:58:43.9	93.040	0.500	-1.610	2.780
2020/01/31 06:58:44.0	93.050	0.510	-1.520	2.740
2020/01/31 06:58:44.1	93.050	0.510	-1.430	2.690
2020/01/31 06:58:44.2	93.060	0.510	-1.320	2.640
2020/01/31 06:58:44.3	93.060	0.510	-1.220	2.590
2020/01/31 06:58:44.4	93.060	0.500	-1.100	2.530
2020/01/31 06:58:44.5	93.060	0.490	-0.990	2.460
2020/01/31 06:58:44.6	93.060	0.470	-0.870	2.390
2020/01/31 06:58:44.7	93.060	0.450	-0.750	2.320
2020/01/31 06:58:44.8	93.060	0.430	-0.620	2.250
2020/01/31 06:58:44.9	93.060	0.410	-0.490	2.170
2020/01/31 06:58:45.0	93.060	0.380	-0.370	2.080
2020/01/31 06:58:45.1	93.050	0.360	-0.240	2.000
2020/01/31 06:58:45.2	93.040	0.330	-0.120	1.900
2020/01/31 06:58:45.3	93.040	0.290	0.010	1.810
2020/01/31 06:58:45.4	93.030	0.260	0.130	1.710
2020/01/31 06:58:45.5	93.030	0.230	0.250	1.620
2020/01/31 06:58:45.6	93.020	0.190	0.360	1.520
2020/01/31 06:58:45.7	93.010	0.160	0.470	1.410
2020/01/31 06:58:45.8	93.000	0.120	0.580	1.310
2020/01/31 06:58:45.9	92.990	0.090	0.680	1.210
2020/01/31 06:58:46.0	92.980	0.050	0.770	1.110
2020/01/31 06:58:46.1	92.970	0.020	0.860	1.000
2020/01/31 06:58:46.2	92.950	-0.020	0.940	0.900
2020/01/31 06:58:46.3	92.940	-0.050	1.010	0.790
2020/01/31 06:58:46.4	92.920	-0.080	1.080	0.690
2020/01/31 06:58:46.5	92.910	-0.120	1.130	0.590
2020/01/31 06:58:46.6	92.890	-0.150	1.180	0.490
2020/01/31 06:58:46.7	92.870	-0.170	1.220	0.390
2020/01/31 06:58:46.8	92.850	-0.200	1.250	0.290
2020/01/31 06:58:46.9	92.830	-0.230	1.270	0.200
2020/01/31 06:58:47.0	92.810	-0.250	1.290	0.110
2020/01/31 06:58:47.1	92.790	-0.270	1.290	0.010
2020/01/31 06:58:47.2	92.770	-0.290	1.290	-0.080
2020/01/31 06:58:47.3	92.740	-0.310	1.280	-0.160
2020/01/31 06:58:47.4	92.720	-0.320	1.260	-0.250
2020/01/31 06:58:47.5	92.700	-0.340	1.230	-0.330
2020/01/31 06:58:47.6	92.670	-0.350	1.190	-0.420
2020/01/31 06:58:47.7	92.650	-0.350	1.150	-0.500
2020/01/31 06:58:47.8	92.630	-0.360	1.100	-0.580
2020/01/31 06:58:47.9	92.610	-0.360	1.040	-0.660
2020/01/31 06:58:48.0	92.590	-0.360	0.970	-0.730
2020/01/31 06:58:48.1	92.570	-0.360	0.900	-0.810
2020/01/31 06:58:48.2	92.560	-0.360	0.830	-0.880
2020/01/31 06:58:48.3	92.540	-0.350	0.750	-0.950
2020/01/31 06:58:48.4	92.530	-0.350	0.660	-1.020
2020/01/31 06:58:48.5	92.520	-0.340	0.570	-1.090
2020/01/31 06:58:48.6	92.520	-0.330	0.480	-1.150
2020/01/31 06:58:48.7	92.510	-0.310	0.380	-1.220
2020/01/31 06:58:48.8	92.510	-0.300	0.280	-1.280
2020/01/31 06:58:48.9	92.510	-0.280	0.180	-1.330
2020/01/31 06:58:49.0	92.520	-0.270	0.080	-1.390
2020/01/31 06:58:49.1	92.520	-0.250	-0.020	-1.440
2020/01/31 06:58:49.2	92.530	-0.230	-0.120	-1.490
2020/01/31 06:58:49.3	92.540	-0.210	-0.220	-1.530
2020/01/31 06:58:49.4	92.550	-0.190	-0.320	-1.570
2020/01/31 06:58:49.5	92.570	-0.170	-0.420	-1.610
2020/01/31 06:58:49.6	92.580	-0.140	-0.510	-1.650
2020/01/31 06:58:49.7	92.600	-0.120	-0.610	-1.670
2020/01/31 06:58:49.8	92.610	-0.100	-0.690	-1.700
2020/01/31 06:58:49.9	92.630	-0.080	-0.780	-1.720
2020/01/31 06:58:50.0	92.650	-0.050	-0.860	-1.740
2020/01/31 06:58:50.1	92.670	-0.030	-0.930	-1.750
2020/01/31 06:58:50.2	92.690	-0.010	-1.000	-1.750
2020/01/31 06:58:50.3	92.710	0.020	-1.060	-1.750
2020/01/31 06:58:50.4	92.720	0.040	-1.120	-1.750
2020/01/31 06:58:50.5	92.740	0.060	-1.170	-1.740
2020/01/31 06:58:50.6	92.760	0.080	-1.220	-1.730
2020/01/31 06:58:50.7	92.770	0.100	-1.250	-1.710
2020/01/31 06:58:50.8	92.780	0.120	-1.290	-1.680
2020/01/31 06:58:50.9	92.800	0.140	-1.310	-1.650
2020/01/31 06:58:51.0	92.810	0.160	-1.330	-1.610
2020/01/31 06:58:51.1	92.810	0.180	-1.330	-1.570
2020/01/31 06:58:51.2	92.820	0.200	-1.330	-1.520
2020/01/31 06:58:51.3	92.830	0.210	-1.330	-1.470
2020/01/31 06:58:51.4	92.830	0.230	-1.310	-1.420
2020/01/31 06:58:51.5	92.830	0.240	-1.290	-1.360
2020/01/31 06:58:51.6	92.840	0.250	-1.260	-1.290
2020/01/31 06:58:51.7	92.840	0.270	-1.230	-1.220
2020/01/31 06:58:51.8	92.840	0.280	-1.180	-1.150
2020/01/31 06:58:51.9	92.840	0.280	-1.130	-1.070
2020/01/31 06:58:52.0	92.840	0.290	-1.080	-0.980
2020/01/31 06:58:52.1	92.830	0.300	-1.020	-0.900
2020/01/31 06:58:52.2	92.820	0.300	-0.950	-0.810
2020/01/31 06:58:52.3	92.810	0.310	-0.880	-0.710
2020/01/31 06:58:52.4	92.800	0.310	-0.800	-0.610
2020/01/31 06:58:52.5	92.800	0.310	-0.730	-0.510
2020/01/31 06:58:52.6	92.790	0.310	-0.650	-0.410
2020/01/31 06:58:52.7	92.780	0.310	-0.570	-0.300
2020/01/31 06:58:52.8	92.770	0.310	-0.490	-0.200
2020/01/31 06:58:52.9	92.760	0.310	-0.410	-0.090
2020/01/31 06:58:53.0	92.750	0.310	-0.320	0.030
2020/01/31 06:58:53.1	92.740	0.310	-0.250	0.140
2020/01/31 06:58:53.2	92.730	0.310	-0.170	0.260
2020/01/31 06:58:53.3	92.710	0.300	-0.090	0.370
2020/01/31 06:58:53.4	92.700	0.300	-0.020	0.490
2020/01/31 06:58:53.5	92.680	0.300	0.050	0.600
2020/01/31 06:58:53.6	92.670	0.300	0.110	0.720
2020/01/31 06:58:53.7	92.650	0.290	0.170	0.830
2020/01/31 06:58:53.8	92.640	0.290	0.220	0.940
2020/01/31 06:58:53.9	92.620	0.290	0.270	1.060
2020/01/31 06:58:54.0	92.600	0.290	0.320	1.170
2020/01/31 06:58:54.1	92.590	0.280	0.350	1.280
2020/01/31 06:58:54.2	92.570	0.280	0.390	1.380
2020/01/31 06:58:54.3	92.550	0.280	0.410	1.480
2020/01/31 06:58:54.4	92.530	0.280	0.440	1.590
2020/01/31 06:58:54.5	92.520	0.270	0.450	1.690
2020/01/31 06:58:54.6	92.510	0.270	0.470	1.780
2020/01/31 06:58:54.7	92.500	0.270	0.470	1.880
2020/01/31 06:58:54.8	92.480	0.270	0.480	1.970
2020/01/31 06:58:54.9	92.470	0.260	0.480	2.050
2020/01/31 06:58:55.0	92.470	0.260	0.470	2.140
2020/01/31 06:58:55.1	92.460	0.250	0.470	2.220
2020/01/31 06:58:55.2	92.450	0.250	0.460	2.300
2020/01/31 06:58:55.3	92.440	0.240	0.440	2.370
2020/01/31 06:58:55.4	92.440	0.240	0.430	2.440
2020/01/31 06:58:55.5	92.440	0.230	0.410	2.500
2020/01/31 06:58:55.6	92.440	0.220	0.390	2.570
2020/01/31 06:58:55.7	92.440	0.210	0.370	2.620
2020/01/31 06:58:55.8	92.440	0.200	0.350	2.680
2020/01/31 06:58:55.9	92.440	0.190	0.330	2.730
2020/01/31 06:58:56.0	92.450	0.170	0.310	2.770
2020/01/31 06:58:56.1	92.460	0.160	0.290	2.810
2020/01/31 06:58:56.2	92.450	0.140	0.270	2.850
2020/01/31 06:58:56.3	92.460	0.120	0.250	2.880
2020/01/31 06:58:56.4	92.480	0.100	0.230	2.910
2020/01/31 06:58:56.5	92.490	0.080	0.210	2.940
2020/01/31 06:58:56.6	92.500	0.060	0.200	2.960
2020/01/31 06:58:56.7	92.520	0.040	0.180	2.970
2020/01/31 06:58:56.8	92.530	0.020	0.160	2.990
2020/01/31 06:58:56.9	92.550	-0.010	0.150	2.990
2020/01/31 06:58:57.0	92.570	-0.030	0.140	3.000
2020/01/31 06:58:57.1	92.580	-0.060	0.120	3.000
2020/01/31 06:58:57.2	92.600	-0.080	0.100	2.990
2020/01/31 06:58:57.3	92.620	-0.110	0.090	2.990
2020/01/31 06:58:57.4	92.640	-0.130	0.080	2.980
2020/01/31 06:58:57.5	92.650	-0.160	0.060	2.970
2020/01/31 06:58:57.6	92.670	-0.180	0.050	2.960
2020/01/31 06:58:57.7	92.680	-0.200	0.030	2.940
2020/01/31 06:58:57.8	92.690	-0.230	0.020	2.920
2020/01/31 06:58:57.9	92.700	-0.250	-0.000	2.910
2020/01/31 06:58:58.0	92.710	-0.270	-0.020	2.890
2020/01/31 06:58:58.1	92.720	-0.280	-0.040	2.870
2020/01/31 06:58:58.2	92.730	-0.300	-0.060	2.850
2020/01/31 06:58:58.3	92.730	-0.310	-0.080	2.830
2020/01/31 06:58:58.4	92.730	-0.320	-0.110	2.800
2020/01/31 06:58:58.5	92.720	-0.330	-0.140	2.780
2020/01/31 06:58:58.6	92.720	-0.340	-0.170	2.760
2020/01/31 06:58:58.7	92.710	-0.350	-0.200	2.730
2020/01/31 06:58:58.8	92.700	-0.350	-0.230	2.710
2020/01/31 06:58:58.9	92.690	-0.350	-0.260	2.680
2020/01/31 06:58:59.0	92.680	-0.340	-0.300	2.650
2020/01/31 06:58:59.1	92.670	-0.340	-0.330	2.620
2020/01/31 06:58:59.2	92.640	-0.330	-0.370	2.590
2020/01/31 06:58:59.3	92.630	-0.320	-0.410	2.560
2020/01/31 06:58:59.4	92.610	-0.310	-0.440	2.520
2020/01/31 06:58:59.5	92.600	-0.300	-0.480	2.480
2020/01/31 06:58:59.6	92.580	-0.280	-0.510	2.450
2020/01/31 06:58:59.7	92.570	-0.270	-0.550	2.400
2020/01/31 06:58:59.8	92.550	-0.250	-0.580	2.360
2020/01/31 06:58:59.9	92.540	-0.230	-0.610	2.320
2020/01/31 06:59:00.0	92.530	-0.210	-0.640	2.270
2020/01/31 06:59:00.1	92.510	-0.190	-0.660	2.220
2020/01/31 06:59:00.2	92.510	-0.170	-0.680	2.160
2020/01/31 06:59:00.3	92.500	-0.150	-0.700	2.110
2020/01/31 06:59:00.4	92.490	-0.140	-0.720	2.050
2020/01/31 06:59:00.5	92.480	-0.120	-0.730	1.990
2020/01/31 06:59:00.6	92.470	-0.100	-0.740	1.930
2020/01/31 06:59:00.7	92.460	-0.090	-0.750	1.860
2020/01/31 06:59:00.8	92.460	-0.080	-0.750	1.790
2020/01/31 06:59:00.9	92.450	-0.060	-0.740	1.720
2020/01/31 06:59:01.0	92.450	-0.050	-0.740	1.650
2020/01/31 06:59:01.1	92.440	-0.050	-0.720	1.580
2020/01/31 06:59:01.2	92.430	-0.040	-0.710	1.500
2020/01/31 06:59:01.3	92.430	-0.040	-0.690	1.420
2020/01/31 06:59:01.4	92.430	-0.030	-0.670	1.340
2020/01/31 06:59:01.5	92.430	-0.030	-0.640	1.260
2020/01/31 06:59:01.6	92.420	-0.040	-0.610	1.170
2020/01/31 06:59:01.7	92.420	-0.040	-0.580	1.090
2020/01/31 06:59:01.8	92.420	-0.040	-0.540	1.000
2020/01/31 06:59:01.9	92.420	-0.050	-0.510	0.920
2020/01/31 06:59:02.0	92.420	-0.060	-0.470	0.830
2020/01/31 06:59:02.1	92.410	-0.070	-0.420	0.740
2020/01/31 06:59:02.2	92.410	-0.080	-0.380	0.650
2020/01/31 06:59:02.3	92.410	-0.090	-0.340	0.560
2020/01/31 06:59:02.4	92.410	-0.100	-0.290	0.480
2020/01/31 06:59:02.5	92.400	-0.110	-0.240	0.390
2020/01/31 06:59:02.6	92.400	-0.130	-0.190	0.310
2020/01/31 06:59:02.7	92.390	-0.140	-0.150	0.220
2020/01/31 06:59:02.8	92.380	-0.150	-0.100	0.140
2020/01/31 06:59:02.9	92.380	-0.160	-0.050	0.060
2020/01/31 06:59:03.0	92.370	-0.170	-0.010	-0.020
2020/01/31 06:59:03.1	92.360	-0.180	0.040	-0.090
2020/01/31 06:59:03.2	92.350	-0.190	0.090	-0.170
2020/01/31 06:59:03.3	92.340	-0.200	0.130	-0.240
2020/01/31 06:59:03.4	92.330	-0.210	0.170	-0.310
2020/01/31 06:59:03.5	92.320	-0.210	0.200	-0.370
2020/01/31 06:59:03.6	92.300	-0.220	0.240	-0.440
2020/01/31 06:59:03.7	92.280	-0.220	0.270	-0.500
2020/01/31 06:59:03.8	92.260	-0.220	0.300	-0.550
2020/01/31 06:59:03.9	92.240	-0.220	0.320	-0.610
2020/01/31 06:59:04.0	92.220	-0.220	0.340	-0.660
2020/01/31 06:59:04.1	92.200	-0.210	0.360	-0.700
2020/01/31 06:59:04.2	92.180	-0.210	0.370	-0.750
2020/01/31 06:59:04.3	92.160	-0.200	0.380	-0.790
2020/01/31 06:59:04.4	92.130	-0.190	0.390	-0.830
2020/01/31 06:59:04.5	92.110	-0.180	0.390	-0.870
2020/01/31 06:59:04.6	92.090	-0.170	0.400	-0.910
2020/01/31 06:59:04.7	92.070	-0.160	0.390	-0.940
2020/01/31 06:59:04.8	92.050	-0.140	0.390	-0.980
2020/01/31 06:59:04.9	92.030	-0.130	0.380	-1.010
2020/01/31 06:59:05.0	92.010	-0.110	0.370	-1.030
2020/01/31 06:59:05.1	91.990	-0.090	0.350	-1.060
2020/01/31 06:59:05.2	91.980	-0.070	0.330	-1.090
2020/01/31 06:59:05.3	91.960	-0.060	0.310	-1.110
2020/01/31 06:59:05.4	91.950	-0.040	0.290	-1.130
2020/01/31 06:59:05.5	91.940	-0.020	0.260	-1.150
2020/01/31 06:59:05.6	91.930	0.000	0.230	-1.170
2020/01/31 06:59:05.7	91.920	0.030	0.200	-1.180
2020/01/31 06:59:05.8	91.920	0.050	0.170	-1.200
2020/01/31 06:59:05.9	91.910	0.070	0.130	-1.210
2020/01/31 06:59:06.0	91.910	0.090	0.090	-1.210
2020/01/31 06:59:06.1	91.910	0.110	0.050	-1.220
2020/01/31 06:59:06.2	91.910	0.130	0.010	-1.220
2020/01/31 06:59:06.3	91.910	0.150	-0.030	-1.210
2020/01/31 06:59:06.4	91.910	0.170	-0.070	-1.210
2020/01/31 06:59:06.5	91.910	0.180	-0.120	-1.200
2020/01/31 06:59:06.6	91.910	0.200	-0.160	-1.180
2020/01/31 06:59:06.7	91.920	0.220	-0.210	-1.160
2020/01/31 06:59:06.8	91.920	0.230	-0.250	-1.140
2020/01/31 06:59:06.9	91.920	0.250	-0.300	-1.110
2020/01/31 06:59:07.0	91.930	0.260	-0.340	-1.080
2020/01/31 06:59:07.1	91.930	0.280	-0.390	-1.040
2020/01/31 06:59:07.2	91.930	0.290	-0.430	-1.000
2020/01/31 06:59:07.3	91.940	0.300	-0.470	-0.950
2020/01/31 06:59:07.4	91.940	0.310	-0.510	-0.900
2020/01/31 06:59:07.5	91.940	0.320	-0.550	-0.840
2020/01/31 06:59:07.6	91.940	0.330	-0.590	-0.780
2020/01/31 06:59:07.7	91.940	0.330	-0.620	-0.710
2020/01/31 06:59:07.8	91.940	0.340	-0.650	-0.640
2020/01/31 06:59:07.9	91.950	0.340	-0.670	-0.570
2020/01/31 06:59:08.0	91.940	0.340	-0.690	-0.490
2020/01/31 06:59:08.1	91.950	0.350	-0.710	-0.410
2020/01/31 06:59:08.2	91.940	0.340	-0.720	-0.330
2020/01/31 06:59:08.3	91.940	0.340	-0.730	-0.250
2020/01/31 06:59:08.4	91.940	0.340	-0.730	-0.160
2020/01/31 06:59:08.5	91.940	0.330	-0.730	-0.070
2020/01/31 06:59:08.6	91.930	0.330	-0.720	0.010
2020/01/31 06:59:08.7	91.930	0.320	-0.710	0.100
2020/01/31 06:59:08.8	91.930	0.310	-0.690	0.190
2020/01/31 06:59:08.9	91.930	0.300	-0.670	0.270
2020/01/31 06:59:09.0	91.930	0.290	-0.640	0.360
2020/01/31 06:59:09.1	91.930	0.270	-0.610	0.440
2020/01/31 06:59:09.2	91.930	0.260	-0.580	0.520
2020/01/31 06:59:09.3	91.940	0.240	-0.540	0.600
2020/01/31 06:59:09.4	91.940	0.230	-0.500	0.680
2020/01/31 06:59:09.5	91.940	0.210	-0.450	0.750
2020/01/31 06:59:09.6	91.940	0.190	-0.400	0.830
2020/01/31 06:59:09.7	91.950	0.170	-0.360	0.900
2020/01/31 06:59:09.8	91.950	0.150	-0.300	0.960
2020/01/31 06:59:09.9	91.950	0.130	-0.250	1.030
2020/01/31 06:59:10.0	91.960	0.120	-0.200	1.100
2020/01/31 06:59:10.1	91.960	0.100	-0.150	1.160
2020/01/31 06:59:10.2	91.960	0.080	-0.090	1.220
2020/01/31 06:59:10.3	91.970	0.060	-0.040	1.280
2020/01/31 06:59:10.4	91.970	0.040	0.010	1.330
2020/01/31 06:59:10.5	91.970	0.020	0.060	1.390
2020/01/31 06:59:10.6	91.980	0.010	0.100	1.450
2020/01/31 06:59:10.7	91.980	-0.010	0.140	1.500
2020/01/31 06:59:10.8	91.980	-0.020	0.180	1.560
2020/01/31 06:59:10.9	91.980	-0.030	0.220	1.610
2020/01/31 06:59:11.0	91.990	-0.040	0.250	1.670
2020/01/31 06:59:11.1	91.990	-0.050	0.280	1.720
2020/01/31 06:59:11.2	91.990	-0.060	0.310	1.780
2020/01/31 06:59:11.3	91.990	-0.070	0.330	1.830
2020/01/31 06:59:11.4	91.990	-0.070	0.340	1.890
2020/01/31 06:59:11.5	91.990	-0.070	0.350	1.940
2020/01/31 06:59:11.6	91.990	-0.070	0.360	2.000
2020/01/31 06:59:11.7	91.990	-0.070	0.360	2.050
2020/01/31 06:59:11.8	91.980	-0.060	0.350	2.100
2020/01/31 06:59:11.9	91.980	-0.060	0.340	2.150
2020/01/31 06:59:12.0	91.980	-0.050	0.320	2.200
2020/01/31 06:59:12.1	91.980	-0.040	0.300	2.260
2020/01/31 06:59:12.2	91.980	-0.020	0.280	2.300
2020/01/31 06:59:12.3	91.980	-0.010	0.250	2.350
2020/01/31 06:59:12.4	91.980	0.010	0.210	2.400
2020/01/31 06:59:12.5	91.980	0.030	0.180	2.440
2020/01/31 06:59:12.6	91.980	0.040	0.130	2.480
2020/01/31 06:59:12.7	91.980	0.060	0.090	2.520
2020/01/31 06:59:12.8	91.980	0.080	0.050	2.560
2020/01/31 06:59:12.9	91.980	0.100	0.000	2.590
2020/01/31 06:59:13.0	91.980	0.120	-0.050	2.630
2020/01/31 06:59:13.1	91.980	0.140	-0.100	2.650
2020/01/31 06:59:13.2	91.970	0.160	-0.150	2.680
2020/01/31 06:59:13.3	91.970	0.180	-0.190	2.700
2020/01/31 06:59:13.4	91.980	0.190	-0.240	2.710
2020/01/31 06:59:13.5	91.980	0.210	-0.290	2.730
2020/01/31 06:59:13.6	91.980	0.220	-0.330	2.740
2020/01/31 06:59:13.7	91.980	0.230	-0.370	2.740
2020/01/31 06:59:13.8	91.990	0.240	-0.410	2.740
2020/01/31 06:59:13.9	91.990	0.250	-0.440	2.740
2020/01/31 06:59:14.0	91.990	0.250	-0.480	2.730
2020/01/31 06:59:14.1	92.000	0.250	-0.500	2.720
2020/01/31 06:59:14.2	92.000	0.250	-0.530	2.700
2020/01/31 06:59:14.3	92.000	0.250	-0.550	2.680
2020/01/31 06:59:14.4	92.000	0.240	-0.560	2.650
2020/01/31 06:59:14.5	92.000	0.230	-0.570	2.620
2020/01/31 06:59:14.6	92.010	0.220	-0.580	2.590
2020/01/31 06:59:14.7	92.010	0.210	-0.580	2.550
2020/01/31 06:59:14.8	92.010	0.190	-0.570	2.500
2020/01/31 06:59:14.9	92.010	0.170	-0.560	2.450
2020/01/31 06:59:15.0	92.010	0.150	-0.550	2.400
2020/01/31 06:59:15.1	92.010	0.120	-0.530	2.340
2020/01/31 06:59:15.2	92.010	0.100	-0.510	2.280
2020/01/31 06:59:15.3	92.010	0.070	-0.480	2.210
2020/01/31 06:59:15.4	92.010	0.040	-0.450	2.140
2020/01/31 06:59:15.5	92.010	0.010	-0.420	2.070
2020/01/31 06:59:15.6	92.010	-0.030	-0.380	1.990
2020/01/31 06:59:15.7	92.020	-0.060	-0.340	1.910
2020/01/31 06:59:15.8	92.020	-0.100	-0.300	1.820
2020/01/31 06:59:15.9	92.020	-0.130	-0.260	1.740
2020/01/31 06:59:16.0	92.030	-0.170	-0.210	1.650
2020/01/31 06:59:16.1	92.030	-0.200	-0.160	1.560
2020/01/31 06:59:16.2	92.050	-0.240	-0.120	1.470
2020/01/31 06:59:16.3	92.050	-0.270	-0.070	1.380
2020/01/31 06:59:16.4	92.060	-0.310	-0.020	1.290
2020/01/31 06:59:16.5	92.070	-0.340	0.030	1.190
2020/01/31 06:59:16.6	92.080	-0.370	0.070	1.100
2020/01/31 06:59:16.7	92.090	-0.400	0.120	1.010
2020/01/31 06:59:16.8	92.100	-0.430	0.170	0.920
2020/01/31 06:59:16.9	92.110	-0.450	0.210	0.820
2020/01/31 06:59:17.0	92.120	-0.480	0.250	0.730
2020/01/31 06:59:17.1	92.140	-0.500	0.280	0.650
2020/01/31 06:59:17.2	92.150	-0.520	0.310	0.560
2020/01/31 06:59:17.3	92.170	-0.540	0.340	0.470
2020/01/31 06:59:17.4	92.190	-0.550	0.360	0.390
2020/01/31 06:59:17.5	92.200	-0.570	0.380	0.310
2020/01/31 06:59:17.6	92.220	-0.580	0.400	0.230
2020/01/31 06:59:17.7	92.240	-0.580	0.410	0.150
2020/01/31 06:59:17.8	92.260	-0.590	0.410	0.070
2020/01/31 06:59:17.9	92.280	-0.590	0.410	0.000
2020/01/31 06:59:18.0	92.300	-0.590	0.410	-0.070
2020/01/31 06:59:18.1	92.320	-0.590	0.400	-0.140
2020/01/31 06:59:18.2	92.350	-0.580	0.390	-0.200
2020/01/31 06:59:18.3	92.370	-0.570	0.370	-0.260
2020/01/31 06:59:18.4	92.390	-0.560	0.340	-0.320
2020/01/31 06:59:18.5	92.410	-0.550	0.320	-0.380
2020/01/31 06:59:18.6	92.430	-0.530	0.290	-0.430
2020/01/31 06:59:18.7	92.460	-0.510	0.250	-0.480
2020/01/31 06:59:18.8	92.480	-0.500	0.210	-0.530
2020/01/31 06:59:18.9	92.500	-0.480	0.170	-0.570
2020/01/31 06:59:19.0	92.510	-0.450	0.130	-0.610
2020/01/31 06:59:19.1	92.530	-0.430	0.080	-0.650
2020/01/31 06:59:19.2	92.540	-0.400	0.030	-0.680
2020/01/31 06:59:19.3	92.560	-0.380	-0.010	-0.700
2020/01/31 06:59:19.4	92.570	-0.350	-0.060	-0.730
2020/01/31 06:59:19.5	92.580	-0.320	-0.110	-0.750
2020/01/31 06:59:19.6	92.580	-0.300	-0.160	-0.760
2020/01/31 06:59:19.7	92.590	-0.270	-0.210	-0.770
2020/01/31 06:59:19.8	92.590	-0.240	-0.250	-0.780
2020/01/31 06:59:19.9	92.590	-0.210	-0.300	-0.790
2020/01/31 06:59:20.0	92.590	-0.180	-0.340	-0.790
2020/01/31 06:59:20.1	92.580	-0.150	-0.380	-0.780
2020/01/31 06:59:20.2	92.580	-0.120	-0.430	-0.770
2020/01/31 06:59:20.3	92.570	-0.090	-0.460	-0.760
2020/01/31 06:59:20.4	92.560	-0.060	-0.490	-0.740
2020/01/31 06:59:20.5	92.550	-0.040	-0.520	-0.730
2020/01/31 06:59:20.6	92.530	-0.010	-0.550	-0.700
2020/01/31 06:59:20.7	92.510	0.020	-0.580	-0.680
2020/01/31 06:59:20.8	92.490	0.050	-0.600	-0.650
2020/01/31 06:59:20.9	92.470	0.070	-0.620	-0.620
2020/01/31 06:59:21.0	92.450	0.100	-0.630	-0.580
2020/01/31 06:59:21.1	92.420	0.120	-0.650	-0.540
2020/01/31 06:59:21.2	92.380	0.140	-0.660	-0.510
2020/01/31 06:59:21.3	92.360	0.160	-0.660	-0.460
2020/01/31 06:59:21.4	92.330	0.190	-0.670	-0.420
2020/01/31 06:59:21.5	92.310	0.210	-0.680	-0.380
2020/01/31 06:59:21.6	92.280	0.220	-0.680	-0.330
2020/01/31 06:59:21.7	92.260	0.240	-0.680	-0.280
2020/01/31 06:59:21.8	92.230	0.260	-0.680	-0.240
2020/01/31 06:59:21.9	92.210	0.280	-0.680	-0.190
2020/01/31 06:59:22.0	92.190	0.290	-0.680	-0.130
2020/01/31 06:59:22.1	92.170	0.310	-0.680	-0.080
2020/01/31 06:59:22.2	92.150	0.330	-0.670	-0.030
2020/01/31 06:59:22.3	92.140	0.340	-0.670	0.030
2020/01/31 06:59:22.4	92.120	0.350	-0.660	0.080
2020/01/31 06:59:22.5	92.100	0.370	-0.660	0.140
2020/01/31 06:59:22.6	92.090	0.380	-0.650	0.190
2020/01/31 06:59:22.7	92.080	0.390	-0.640	0.240
2020/01/31 06:59:22.8	92.070	0.400	-0.630	0.300
2020/01/31 06:59:22.9	92.070	0.420	-0.620	0.350
2020/01/31 06:59:23.0	92.060	0.430	-0.610	0.410
2020/01/31 06:59:23.1	92.060	0.440	-0.600	0.460
2020/01/31 06:59:23.2	92.060	0.450	-0.590	0.510
2020/01/31 06:59:23.3	92.070	0.460	-0.570	0.570
2020/01/31 06:59:23.4	92.070	0.460	-0.560	0.620
2020/01/31 06:59:23.5	92.080	0.470	-0.540	0.670
2020/01/31 06:59:23.6	92.100	0.480	-0.520	0.710
2020/01/31 06:59:23.7	92.110	0.490	-0.500	0.760
2020/01/31 06:59:23.8	92.130	0.490	-0.470	0.810
2020/01/31 06:59:23.9	92.150	0.500	-0.450	0.850
2020/01/31 06:59:24.0	92.170	0.510	-0.420	0.900
2020/01/31 06:59:24.1	92.190	0.510	-0.390	0.940
2020/01/31 06:59:24.2	92.210	0.510	-0.360	0.990
2020/01/31 06:59:24.3	92.240	0.520	-0.320	1.030
2020/01/31 06:59:24.4	92.270	0.520	-0.290	1.060
2020/01/31 06:59:24.5	92.290	0.520	-0.250	1.100
2020/01/31 06:59:24.6	92.320	0.520	-0.210	1.130
2020/01/31 06:59:24.7	92.350	0.520	-0.170	1.170
2020/01/31 06:59:24.8	92.380	0.520	-0.130	1.200
2020/01/31 06:59:24.9	92.410	0.510	-0.090	1.230
2020/01/31 06:59:25.0	92.440	0.510	-0.050	1.260
2020/01/31 06:59:25.1	92.470	0.500	-0.010	1.280
2020/01/31 06:59:25.2	92.500	0.490	0.040	1.310
2020/01/31 06:59:25.3	92.530	0.480	0.080	1.330
2020/01/31 06:59:25.4	92.560	0.470	0.130	1.350
2020/01/31 06:59:25.5	92.590	0.450	0.170	1.370
2020/01/31 06:59:25.6	92.610	0.440	0.220	1.390
2020/01/31 06:59:25.7	92.640	0.420	0.260	1.410
2020/01/31 06:59:25.8	92.660	0.400	0.300	1.430
2020/01/31 06:59:25.9	92.690	0.380	0.350	1.450
2020/01/31 06:59:26.0	92.710	0.360	0.390	1.470
2020/01/31 06:59:26.1	92.730	0.330	0.430	1.480
2020/01/31 06:59:26.2	92.760	0.300	0.470	1.500
2020/01/31 06:59:26.3	92.770	0.270	0.510	1.520
2020/01/31 06:59:26.4	92.790	0.240	0.550	1.540
2020/01/31 06:59:26.5	92.800	0.210	0.580	1.560
2020/01/31 06:59:26.6	92.810	0.180	0.620	1.590
2020/01/31 06:59:26.7	92.820	0.140	0.650	1.610
2020/01/31 06:59:26.8	92.820	0.110	0.670	1.640
2020/01/31 06:59:26.9	92.830	0.070	0.700	1.670
2020/01/31 06:59:27.0	92.830	0.040	0.720	1.690
2020/01/31 06:59:27.1	92.830	-0.000	0.730	1.730
2020/01/31 06:59:27.2	92.830	-0.040	0.740	1.760
2020/01/31 06:59:27.3	92.820	-0.080	0.750	1.790
2020/01/31 06:59:27.4	92.810	-0.110	0.750	1.830
2020/01/31 06:59:27.5	92.800	-0.150	0.750	1.870
2020/01/31 06:59:27.6	92.790	-0.190	0.740	1.910
2020/01/31 06:59:27.7	92.780	-0.220	0.730	1.950
2020/01/31 06:59:27.8	92.770	-0.250	0.710	1.990
2020/01/31 06:59:27.9	92.760	-0.280	0.690	2.030
2020/01/31 06:59:28.0	92.740	-0.320	0.660	2.070
2020/01/31 06:59:28.1	92.730	-0.340	0.620	2.120
2020/01/31 06:59:28.2	92.710	-0.370	0.580	2.160
2020/01/31 06:59:28.3	92.690	-0.390	0.530	2.200
2020/01/31 06:59:28.4	92.680	-0.420	0.480	2.230
2020/01/31 06:59:28.5	92.660	-0.430	0.430	2.270
2020/01/31 06:59:28.6	92.640	-0.450	0.370	2.310
2020/01/31 06:59:28.7	92.630	-0.470	0.300	2.340
2020/01/31 06:59:28.8	92.610	-0.480	0.240	2.380
2020/01/31 06:59:28.9	92.600	-0.480	0.160	2.410
2020/01/31 06:59:29.0	92.580	-0.490	0.090	2.430
2020/01/31 06:59:29.1	92.560	-0.490	0.010	2.460
2020/01/31 06:59:29.2	92.550	-0.490	-0.060	2.480
2020/01/31 06:59:29.3	92.540	-0.490	-0.140	2.490
2020/01/31 06:59:29.4	92.520	-0.480	-0.230	2.500
2020/01/31 06:59:29.5	92.510	-0.470	-0.310	2.510
2020/01/31 06:59:29.6	92.500	-0.460	-0.390	2.520
2020/01/31 06:59:29.7	92.480	-0.450	-0.470	2.520
2020/01/31 06:59:29.8	92.470	-0.430	-0.550	2.510
2020/01/31 06:59:29.9	92.460	-0.410	-0.630	2.500
2020/01/31 06:59:30.0	92.450	-0.390	-0.700	2.490
2020/01/31 06:59:30.1	92.450	-0.370	-0.780	2.470
2020/01/31 06:59:30.2	92.440	-0.350	-0.850	2.440
2020/01/31 06:59:30.3	92.430	-0.320	-0.920	2.410
2020/01/31 06:59:30.4	92.420	-0.290	-0.980	2.380
2020/01/31 06:59:30.5	92.420	-0.260	-1.030	2.340
2020/01/31 06:59:30.6	92.420	-0.230	-1.090	2.300
2020/01/31 06:59:30.7	92.420	-0.200	-1.130	2.260
2020/01/31 06:59:30.8	92.420	-0.170	-1.170	2.210
2020/01/31 06:59:30.9	92.420	-0.140	-1.200	2.160
2020/01/31 06:59:31.0	92.420	-0.110	-1.230	2.110
2020/01/31 06:59:31.1	92.420	-0.080	-1.250	2.050
2020/01/31 06:59:31.2	92.420	-0.050	-1.260	1.990
2020/01/31 06:59:31.3	92.420	-0.020	-1.270	1.930
2020/01/31 06:59:31.4	92.420	0.000	-1.270	1.870
2020/01/31 06:59:31.5	92.420	0.030	-1.260	1.800
2020/01/31 06:59:31.6	92.430	0.060	-1.240	1.740
2020/01/31 06:59:31.7	92.430	0.080	-1.220	1.670
2020/01/31 06:59:31.8	92.430	0.100	-1.200	1.600
2020/01/31 06:59:31.9	92.430	0.120	-1.160	1.530
2020/01/31 06:59:32.0	92.420	0.140	-1.120	1.460
2020/01/31 06:59:32.1	92.420	0.160	-1.080	1.390
2020/01/31 06:59:32.2	92.420	0.170	-1.030	1.310
2020/01/31 06:59:32.3	92.410	0.180	-0.970	1.240
2020/01/31 06:59:32.4	92.410	0.190	-0.910	1.170
2020/01/31 06:59:32.5	92.400	0.200	-0.850	1.100
2020/01/31 06:59:32.6	92.390	0.210	-0.780	1.030
2020/01/31 06:59:32.7	92.380	0.210	-0.720	0.960
2020/01/31 06:59:32.8	92.370	0.210	-0.650	0.890
2020/01/31 06:59:32.9	92.360	0.210	-0.570	0.820
2020/01/31 06:59:33.0	92.350	0.210	-0.500	0.750
2020/01/31 06:59:33.1	92.340	0.210	-0.420	0.690
2020/01/31 06:59:33.2	92.320	0.200	-0.350	0.620
2020/01/31 06:59:33.3	92.310	0.190	-0.270	0.550
2020/01/31 06:59:33.4	92.290	0.180	-0.200	0.490
2020/01/31 06:59:33.5	92.280	0.160	-0.120	0.420
2020/01/31 06:59:33.6	92.260	0.150	-0.050	0.360
2020/01/31 06:59:33.7	92.250	0.130	0.020	0.300
2020/01/31 06:59:33.8	92.240	0.120	0.090	0.240
2020/01/31 06:59:33.9	92.220	0.100	0.160	0.180
2020/01/31 06:59:34.0	92.210	0.070	0.220	0.120
2020/01/31 06:59:34.1	92.200	0.050	0.280	0.050
2020/01/31 06:59:34.2	92.180	0.030	0.340	-0.010
2020/01/31 06:59:34.3	92.170	0.010	0.390	-0.070
2020/01/31 06:59:34.4	92.170	-0.020	0.440	-0.120
2020/01/31 06:59:34.5	92.160	-0.050	0.490	-0.180
2020/01/31 06:59:34.6	92.150	-0.070	0.540	-0.240
2020/01/31 06:59:34.7	92.150	-0.100	0.580	-0.300
2020/01/31 06:59:34.8	92.150	-0.120	0.610	-0.350
2020/01/31 06:59:34.9	92.150	-0.150	0.640	-0.410
2020/01/31 06:59:35.0	92.150	-0.170	0.670	-0.470
2020/01/31 06:59:35.1	92.160	-0.200	0.690	-0.520
2020/01/31 06:59:35.2	92.170	-0.220	0.710	-0.570
2020/01/31 06:59:35.3	92.180	-0.250	0.720	-0.620
2020/01/31 06:59:35.4	92.190	-0.270	0.730	-0.670
2020/01/31 06:59:35.5	92.200	-0.290	0.730	-0.720
2020/01/31 06:59:35.6	92.220	-0.310	0.730	-0.770
2020/01/31 06:59:35.7	92.240	-0.330	0.720	-0.810
2020/01/31 06:59:35.8	92.250	-0.340	0.710	-0.850
2020/01/31 06:59:35.9	92.270	-0.360	0.700	-0.890
2020/01/31 06:59:36.0	92.300	-0.370	0.670	-0.920
2020/01/31 06:59:36.1	92.320	-0.380	0.650	-0.960
2020/01/31 06:59:36.2	92.340	-0.380	0.620	-0.980
2020/01/31 06:59:36.3	92.360	-0.390	0.590	-1.010
2020/01/31 06:59:36.4	92.390	-0.390	0.550	-1.030
2020/01/31 06:59:36.5	92.420	-0.390	0.510	-1.050
2020/01/31 06:59:36.6	92.440	-0.380	0.460	-1.060
2020/01/31 06:59:36.7	92.470	-0.370	0.420	-1.070
2020/01/31 06:59:36.8	92.500	-0.360	0.370	-1.070
2020/01/31 06:59:36.9	92.530	-0.350	0.320	-1.070
2020/01/31 06:59:37.0	92.550	-0.340	0.260	-1.060
2020/01/31 06:59:37.1	92.580	-0.320	0.200	-1.050
2020/01/31 06:59:37.2	92.600	-0.300	0.150	-1.030
2020/01/31 06:59:37.3	92.620	-0.270	0.090	-1.010
2020/01/31 06:59:37.4	92.650	-0.250	0.030	-0.990
2020/01/31 06:59:37.5	92.670	-0.220	-0.030	-0.960
2020/01/31 06:59:37.6	92.700	-0.190	-0.090	-0.920
2020/01/31 06:59:37.7	92.720	-0.160	-0.150	-0.890
2020/01/31 06:59:37.8	92.740	-0.130	-0.210	-0.850
2020/01/31 06:59:37.9	92.760	-0.090	-0.270	-0.800
2020/01/31 06:59:38.0	92.770	-0.060	-0.320	-0.750
2020/01/31 06:59:38.1	92.790	-0.020	-0.380	-0.700
2020/01/31 06:59:38.2	92.790	0.020	-0.430	-0.640
2020/01/31 06:59:38.3	92.810	0.050	-0.480	-0.580
2020/01/31 06:59:38.4	92.820	0.090	-0.530	-0.520
2020/01/31 06:59:38.5	92.830	0.130	-0.580	-0.450
2020/01/31 06:59:38.6	92.830	0.170	-0.620	-0.380
2020/01/31 06:59:38.7	92.840	0.210	-0.660	-0.310
2020/01/31 06:59:38.8	92.840	0.250	-0.690	-0.230
2020/01/31 06:59:38.9	92.840	0.280	-0.730	-0.150
2020/01/31 06:59:39.0	92.840	0.320	-0.760	-0.070
2020/01/31 06:59:39.1	92.830	0.350	-0.780	0.010
2020/01/31 06:59:39.2	92.830	0.380	-0.810	0.100
2020/01/31 06:59:39.3	92.820	0.410	-0.820	0.190
2020/01/31 06:59:39.4	92.810	0.440	-0.840	0.290
2020/01/31 06:59:39.5	92.790	0.470	-0.850	0.380
2020/01/31 06:59:39.6	92.780	0.490	-0.860	0.480
2020/01/31 06:59:39.7	92.760	0.510	-0.860	0.580
2020/01/31 06:59:39.8	92.730	0.530	-0.860	0.680
2020/01/31 06:59:39.9	92.710	0.550	-0.850	0.780
2020/01/31 06:59:40.0	92.690	0.560	-0.840	0.880
2020/01/31 06:59:40.1	92.660	0.570	-0.830	0.990
2020/01/31 06:59:40.2	92.630	0.570	-0.820	1.090
2020/01/31 06:59:40.3	92.610	0.570	-0.800	1.200
2020/01/31 06:59:40.4	92.580	0.570	-0.770	1.300
2020/01/31 06:59:40.5	92.550	0.570	-0.740	1.410
2020/01/31 06:59:40.6	92.530	0.560	-0.710	1.510
2020/01/31 06:59:40.7	92.500	0.550	-0.670	1.610
2020/01/31 06:59:40.8	92.480	0.530	-0.640	1.710
2020/01/31 06:59:40.9	92.460	0.510	-0.600	1.810
2020/01/31 06:59:41.0	92.440	0.490	-0.550	1.900
2020/01/31 06:59:41.1	92.420	0.460	-0.500	1.990
2020/01/31 06:59:41.2	92.400	0.440	-0.450	2.080
2020/01/31 06:59:41.3	92.390	0.410	-0.410	2.160
2020/01/31 06:59:41.4	92.380	0.380	-0.350	2.240
2020/01/31 06:59:41.5	92.370	0.340	-0.300	2.310
2020/01/31 06:59:41.6	92.370	0.310	-0.250	2.380
2020/01/31 06:59:41.7	92.370	0.270	-0.200	2.440
2020/01/31 06:59:41.8	92.370	0.230	-0.150	2.500
2020/01/31 06:59:41.9	92.380	0.190	-0.090	2.550
2020/01/31 06:59:42.0	92.390	0.150	-0.040	2.590
2020/01/31 06:59:42.1	92.400	0.120	0.010	2.630
2020/01/31 06:59:42.2	92.410	0.080	0.060	2.650
2020/01/31 06:59:42.3	92.430	0.040	0.110	2.670
2020/01/31 06:59:42.4	92.450	0.000	0.150	2.690
2020/01/31 06:59:42.5	92.470	-0.040	0.200	2.700
2020/01/31 06:59:42.6	92.490	-0.070	0.240	2.700
2020/01/31 06:59:42.7	92.510	-0.100	0.270	2.700
2020/01/31 06:59:42.8	92.530	-0.140	0.310	2.690
2020/01/31 06:59:42.9	92.560	-0.160	0.340	2.670
2020/01/31 06:59:43.0	92.580	-0.190	0.370	2.650
2020/01/31 06:59:43.1	92.610	-0.220	0.400	2.630
2020/01/31 06:59:43.2	92.640	-0.240	0.420	2.600
2020/01/31 06:59:43.3	92.660	-0.260	0.440	2.570
2020/01/31 06:59:43.4	92.690	-0.280	0.450	2.540
2020/01/31 06:59:43.5	92.710	-0.290	0.460	2.500
2020/01/31 06:59:43.6	92.740	-0.300	0.470	2.460
2020/01/31 06:59:43.7	92.760	-0.310	0.470	2.410
2020/01/31 06:59:43.8	92.780	-0.320	0.470	2.370
2020/01/31 06:59:43.9	92.800	-0.320	0.470	2.320
2020/01/31 06:59:44.0	92.820	-0.320	0.460	2.270
2020/01/31 06:59:44.1	92.840	-0.320	0.440	2.220
2020/01/31 06:59:44.2	92.860	-0.310	0.420	2.160
2020/01/31 06:59:44.3	92.880	-0.300	0.400	2.100
2020/01/31 06:59:44.4	92.890	-0.290	0.380	2.040
2020/01/31 06:59:44.5	92.910	-0.280	0.350	1.980
2020/01/31 06:59:44.6	92.930	-0.270	0.310	1.920
2020/01/31 06:59:44.7	92.940	-0.250	0.280	1.850
2020/01/31 06:59:44.8	92.960	-0.240	0.240	1.790
2020/01/31 06:59:44.9	92.980	-0.220	0.190	1.720
2020/01/31 06:59:45.0	92.990	-0.200	0.150	1.650
2020/01/31 06:59:45.1	93.010	-0.180	0.100	1.580
2020/01/31 06:59:45.2	93.020	-0.160	0.050	1.500
2020/01/31 06:59:45.3	93.030	-0.140	-0.000	1.430
2020/01/31 06:59:45.4	93.050	-0.120	-0.060	1.350
2020/01/31 06:59:45.5	93.070	-0.100	-0.110	1.270
2020/01/31 06:59:45.6	93.080	-0.080	-0.170	1.190
2020/01/31 06:59:45.7	93.100	-0.060	-0.220	1.120
2020/01/31 06:59:45.8	93.120	-0.040	-0.280	1.040
2020/01/31 06:59:45.9	93.130	-0.020	-0.340	0.960
2020/01/31 06:59:46.0	93.150	-0.010	-0.390	0.880
2020/01/31 06:59:46.1	93.170	0.010	-0.440	0.800
2020/01/31 06:59:46.2	93.190	0.020	-0.500	0.710
2020/01/31 06:59:46.3	93.210	0.030	-0.540	0.630
2020/01/31 06:59:46.4	93.230	0.040	-0.590	0.560
2020/01/31 06:59:46.5	93.260	0.050	-0.630	0.480
2020/01/31 06:59:46.6	93.280	0.060	-0.670	0.410
2020/01/31 06:59:46.7	93.300	0.070	-0.700	0.340
2020/01/31 06:59:46.8	93.320	0.070	-0.730	0.270
2020/01/31 06:59:46.9	93.340	0.070	-0.760	0.210
2020/01/31 06:59:47.0	93.370	0.070	-0.780	0.140
2020/01/31 06:59:47.1	93.390	0.070	-0.790	0.090
2020/01/31 06:59:47.2	93.400	0.070	-0.800	0.030
2020/01/31 06:59:47.3	93.420	0.060	-0.810	-0.010
2020/01/31 06:59:47.4	93.440	0.060	-0.810	-0.050
2020/01/31 06:59:47.5	93.460	0.050	-0.800	-0.090
2020/01/31 06:59:47.6	93.480	0.040	-0.790	-0.120
2020/01/31 06:59:47.7	93.490	0.030	-0.780	-0.150
2020/01/31 06:59:47.8	93.510	0.020	-0.760	-0.170
2020/01/31 06:59:47.9	93.520	0.010	-0.740	-0.180
2020/01/31 06:59:48.0	93.530	-0.000	-0.710	-0.190
2020/01/31 06:59:48.1	93.540	-0.010	-0.680	-0.200
2020/01/31 06:59:48.2	93.540	-0.030	-0.650	-0.190
2020/01/31 06:59:48.3	93.550	-0.040	-0.610	-0.190
2020/01/31 06:59:48.4	93.550	-0.060	-0.570	-0.180
2020/01/31 06:59:48.5	93.560	-0.070	-0.520	-0.160
2020/01/31 06:59:48.6	93.560	-0.080	-0.480	-0.150
2020/01/31 06:59:48.7	93.550	-0.100	-0.430	-0.120
2020/01/31 06:59:48.8	93.550	-0.110	-0.380	-0.100
2020/01/31 06:59:48.9	93.550	-0.130	-0.330	-0.070
2020/01/31 06:59:49.0	93.540	-0.140	-0.280	-0.040
2020/01/31 06:59:49.1	93.540	-0.160	-0.220	-0.010
2020/01/31 06:59:49.2	93.540	-0.170	-0.170	0.020
2020/01/31 06:59:49.3	93.530	-0.180	-0.110	0.050
2020/01/31 06:59:49.4	93.520	-0.200	-0.060	0.090
2020/01/31 06:59:49.5	93.510	-0.210	-0.000	0.120
2020/01/31 06:59:49.6	93.510	-0.220	0.050	0.160
2020/01/31 06:59:49.7	93.500	-0.240	0.100	0.190
2020/01/31 06:59:49.8	93.490	-0.250	0.160	0.230
2020/01/31 06:59:49.9	93.480	-0.260	0.210	0.260
2020/01/31 06:59:50.0	93.470	-0.270	0.260	0.290
2020/01/31 06:59:50.1	93.470	-0.280	0.300	0.330
2020/01/31 06:59:50.2	93.450	-0.290	0.350	0.360
2020/01/31 06:59:50.3	93.450	-0.290	0.390	0.390
2020/01/31 06:59:50.4	93.440	-0.300	0.430	0.420
2020/01/31 06:59:50.5	93.430	-0.310	0.460	0.450
2020/01/31 06:59:50.6	93.430	-0.310	0.490	0.470
2020/01/31 06:59:50.7	93.420	-0.320	0.520	0.500
2020/01/31 06:59:50.8	93.420	-0.320	0.540	0.520
2020/01/31 06:59:50.9	93.410	-0.330	0.560	0.540
2020/01/31 06:59:51.0	93.410	-0.330	0.580	0.560
2020/01/31 06:59:51.1	93.400	-0.330	0.590	0.580
2020/01/31 06:59:51.2	93.410	-0.330	0.590	0.600
2020/01/31 06:59:51.3	93.410	-0.330	0.590	0.620
2020/01/31 06:59:51.4	93.400	-0.320	0.590	0.630
2020/01/31 06:59:51.5	93.400	-0.320	0.580	0.640
2020/01/31 06:59:51.6	93.390	-0.310	0.560	0.660
2020/01/31 06:59:51.7	93.390	-0.300	0.540	0.670
2020/01/31 06:59:51.8	93.390	-0.290	0.520	0.680
2020/01/31 06:59:51.9	93.390	-0.280	0.490	0.690
2020/01/31 06:59:52.0	93.380	-0.270	0.460	0.700
2020/01/31 06:59:52.1	93.380	-0.250	0.420	0.710
2020/01/31 06:59:52.2	93.380	-0.230	0.370	0.720
2020/01/31 06:59:52.3	93.380	-0.210	0.320	0.730
2020/01/31 06:59:52.4	93.370	-0.190	0.270	0.740
2020/01/31 06:59:52.5	93.370	-0.170	0.210	0.750
2020/01/31 06:59:52.6	93.370	-0.140	0.150	0.770
2020/01/31 06:59:52.7	93.370	-0.120	0.080	0.780
2020/01/31 06:59:52.8	93.370	-0.090	0.020	0.790
2020/01/31 06:59:52.9	93.370	-0.060	-0.050	0.800
2020/01/31 06:59:53.0	93.380	-0.020	-0.130	0.810
2020/01/31 06:59:53.1	93.380	0.010	-0.200	0.820
2020/01/31 06:59:53.2	93.380	0.050	-0.270	0.820
2020/01/31 06:59:53.3	93.390	0.080	-0.350	0.830
2020/01/31 06:59:53.4	93.400	0.120	-0.430	0.840
2020/01/31 06:59:53.5	93.410	0.150	-0.500	0.850
2020/01/31 06:59:53.6	93.420	0.190	-0.580	0.860
2020/01/31 06:59:53.7	93.430	0.230	-0.650	0.870
2020/01/31 06:59:53.8	93.450	0.270	-0.720	0.880
2020/01/31 06:59:53.9	93.460	0.300	-0.790	0.900
2020/01/31 06:59:54.0	93.470	0.340	-0.860	0.910
2020/01/31 06:59:54.1	93.490	0.370	-0.920	0.920
2020/01/31 06:59:54.2	93.490	0.410	-0.970	0.940
2020/01/31 06:59:54.3	93.510	0.440	-1.020	0.960
2020/01/31 06:59:54.4	93.520	0.470	-1.070	0.980
2020/01/31 06:59:54.5	93.540	0.490	-1.100	1.000
2020/01/31 06:59:54.6	93.550	0.520	-1.130	1.020
2020/01/31 06:59:54.7	93.560	0.540	-1.150	1.040
2020/01/31 06:59:54.8	93.570	0.560	-1.170	1.070
2020/01/31 06:59:54.9	93.580	0.570	-1.180	1.100
2020/01/31 06:59:55.0	93.590	0.580	-1.170	1.120
2020/01/31 06:59:55.1	93.600	0.590	-1.160	1.150
2020/01/31 06:59:55.2	93.590	0.590	-1.150	1.180
2020/01/31 06:59:55.3	93.600	0.600	-1.120	1.210
2020/01/31 06:59:55.4	93.600	0.590	-1.090	1.240
2020/01/31 06:59:55.5	93.590	0.590	-1.050	1.280
2020/01/31 06:59:55.6	93.590	0.580	-1.000	1.310
2020/01/31 06:59:55.7	93.590	0.560	-0.950	1.340
2020/01/31 06:59:55.8	93.580	0.540	-0.890	1.380
2020/01/31 06:59:55.9	93.570	0.520	-0.820	1.410
2020/01/31 06:59:56.0	93.560	0.500	-0.750	1.440
2020/01/31 06:59:56.1	93.550	0.470	-0.670	1.470
2020/01/31 06:59:56.2	93.530	0.440	-0.590	1.500
2020/01/31 06:59:56.3	93.520	0.410	-0.500	1.530
2020/01/31 06:59:56.4	93.510	0.370	-0.420	1.550
2020/01/31 06:59:56.5	93.490	0.340	-0.330	1.570
2020/01/31 06:59:56.6	93.480	0.300	-0.240	1.590
2020/01/31 06:59:56.7	93.460	0.260	-0.150	1.610
2020/01/31 06:59:56.8	93.450	0.210	-0.060	1.620
2020/01/31 06:59:56.9	93.430	0.170	0.020	1.640
2020/01/31 06:59:57.0	93.420	0.130	0.110	1.640
2020/01/31 06:59:57.1	93.400	0.080	0.190	1.650
2020/01/31 06:59:57.2	93.400	0.040	0.270	1.650
2020/01/31 06:59:57.3	93.380	-0.010	0.350	1.650
2020/01/31 06:59:57.4	93.370	-0.050	0.420	1.650
2020/01/31 06:59:57.5	93.350	-0.090	0.490	1.640
2020/01/31 06:59:57.6	93.340	-0.130	0.550	1.630
2020/01/31 06:59:57.7	93.320	-0.170	0.610	1.620
2020/01/31 06:59:57.8	93.310	-0.210	0.660	1.610
2020/01/31 06:59:57.9	93.290	-0.240	0.710	1.600
2020/01/31 06:59:58.0	93.280	-0.270	0.750	1.590
2020/01/31 06:59:58.1	93.260	-0.300	0.780	1.570
2020/01/31 06:59:58.2	93.250	-0.330	0.810	1.560
2020/01/31 06:59:58.3	93.230	-0.360	0.830	1.540
2020/01/31 06:59:58.4	93.220	-0.380	0.840	1.530
2020/01/31 06:59:58.5	93.200	-0.390	0.850	1.510
2020/01/31 06:59:58.6	93.180	-0.410	0.850	1.490
2020/01/31 06:59:58.7	93.170	-0.420	0.840	1.480
2020/01/31 06:59:58.8	93.150	-0.420	0.830	1.460
2020/01/31 06:59:58.9	93.130	-0.430	0.810	1.440
2020/01/31 06:59:59.0	93.110	-0.430	0.780	1.420
2020/01/31 06:59:59.1	93.100	-0.420	0.750	1.400
2020/01/31 06:59:59.2	93.080	-0.420	0.710	1.380
2020/01/31 06:59:59.3	93.070	-0.410	0.670	1.350
2020/01/31 06:59:59.4	93.060	-0.390	0.620	1.330
2020/01/31 06:59:59.5	93.040	-0.380	0.560	1.310
2020/01/31 06:59:59.6	93.030	-0.360	0.500	1.280
2020/01/31 06:59:59.7	93.020	-0.340	0.440	1.250
2020/01/31 06:59:59.8	93.020	-0.310	0.380	1.220
2020/01/31 06:59:59.9	93.010	-0.280	0.310	1.180
2020/01/31 07:00:00.0	93.010	-0.260	0.240	1.140
2020/01/31 07:00:00.1	93.000	-0.230	0.160	1.100
2020/01/31 07:00:00.2	93.000	-0.190	0.080	1.060
2020/01/31 07:00:00.3	93.000	-0.160	0.010	1.010
2020/01/31 07:00:00.4	93.010	-0.130	-0.070	0.960
2020/01/31 07:00:00.5	93.010	-0.100	-0.140	0.910
2020/01/31 07:00:00.6	93.020	-0.060	-0.210	0.860
2020/01/31 07:00:00.7	93.030	-0.030	-0.290	0.810
2020/01/31 07:00:00.8	93.040	0.010	-0.360	0.750
2020/01/31 07:00:00.9	93.050	0.040	-0.430	0.690
2020/01/31 07:00:01.0	93.060	0.070	-0.490	0.630
2020/01/31 07:00:01.1	93.080	0.100	-0.550	0.570
2020/01/31 07:00:01.2	93.080	0.130	-0.620	0.500
2020/01/31 07:00:01.3	93.100	0.160	-0.670	0.440
2020/01/31 07:00:01.4	93.120	0.180	-0.730	0.380
2020/01/31 07:00:01.5	93.130	0.210	-0.770	0.310
2020/01/31 07:00:01.6	93.150	0.230	-0.820	0.250
2020/01/31 07:00:01.7	93.160	0.240	-0.860	0.190
2020/01/31 07:00:01.8	93.180	0.260	-0.890	0.130
2020/01/31 07:00:01.9	93.190	0.270	-0.920	0.070
2020/01/31 07:00:02.0	93.210	0.280	-0.940	0.020
2020/01/31 07:00:02.1	93.220	0.290	-0.960	-0.030
2020/01/31 07:00:02.2	93.230	0.300	-0.970	-0.090
2020/01/31 07:00:02.3	93.240	0.300	-0.980	-0.130
2020/01/31 07:00:02.4	93.240	0.300	-0.980	-0.170
2020/01/31 07:00:02.5	93.250	0.300	-0.970	-0.200
2020/01/31 07:00:02.6	93.250	0.290	-0.960	-0.230
2020/01/31 07:00:02.7	93.260	0.280	-0.950	-0.250
2020/01/31 07:00:02.8	93.260	0.270	-0.930	-0.270
2020/01/31 07:00:02.9	93.250	0.260	-0.900	-0.280
2020/01/31 07:00:03.0	93.250	0.240	-0.870	-0.290
2020/01/31 07:00:03.1	93.240	0.220	-0.840	-0.290
2020/01/31 07:00:03.2	93.230	0.200	-0.800	-0.280
2020/01/31 07:00:03.3	93.220	0.180	-0.750	-0.260
2020/01/31 07:00:03.4	93.210	0.160	-0.700	-0.240
2020/01/31 07:00:03.5	93.190	0.130	-0.650	-0.220
2020/01/31 07:00:03.6	93.180	0.110	-0.600	-0.190
2020/01/31 07:00:03.7	93.160	0.080	-0.540	-0.160
2020/01/31 07:00:03.8	93.150	0.050	-0.480	-0.120
2020/01/31 07:00:03.9	93.130	0.020	-0.410	-0.080
2020/01/31 07:00:04.0	93.110	-0.010	-0.350	-0.040
2020/01/31 07:00:04.1	93.100	-0.040	-0.290	0.010
2020/01/31 07:00:04.2	93.070	-0.070	-0.220	0.060
2020/01/31 07:00:04.3	93.060	-0.100	-0.150	0.110
2020/01/31 07:00:04.4	93.040	-0.130	-0.090	0.160
2020/01/31 07:00:04.5	93.030	-0.150	-0.030	0.210
2020/01/31 07:00:04.6	93.020	-0.180	0.040	0.260
2020/01/31 07:00:04.7	93.000	-0.210	0.090	0.320
2020/01/31 07:00:04.8	92.990	-0.230	0.150	0.370
2020/01/31 07:00:04.9	92.980	-0.260	0.210	0.420
2020/01/31 07:00:05.0	92.970	-0.280	0.260	0.470
2020/01/31 07:00:05.1	92.970	-0.300	0.310	0.520
2020/01/31 07:00:05.2	92.950	-0.320	0.350	0.560
2020/01/31 07:00:05.3	92.950	-0.330	0.390	0.610
2020/01/31 07:00:05.4	92.940	-0.350	0.430	0.650
2020/01/31 07:00:05.5	92.940	-0.360	0.460	0.700
2020/01/31 07:00:05.6	92.930	-0.370	0.480	0.740
2020/01/31 07:00:05.7	92.930	-0.380	0.500	0.780
2020/01/31 07:00:05.8	92.920	-0.380	0.520	0.820
2020/01/31 07:00:05.9	92.920	-0.390	0.530	0.850
2020/01/31 07:00:06.0	92.910	-0.390	0.540	0.890
2020/01/31 07:00:06.1	92.910	-0.380	0.540	0.930
2020/01/31 07:00:06.2	92.910	-0.380	0.530	0.960
2020/01/31 07:00:06.3	92.900	-0.380	0.530	1.000
2020/01/31 07:00:06.4	92.890	-0.370	0.510	1.030
2020/01/31 07:00:06.5	92.880	-0.360	0.500	1.060
2020/01/31 07:00:06.6	92.870	-0.350	0.480	1.090
2020/01/31 07:00:06.7	92.860	-0.340	0.450	1.120
2020/01/31 07:00:06.8	92.850	-0.320	0.430	1.150
2020/01/31 07:00:06.9	92.830	-0.310	0.390	1.180
2020/01/31 07:00:07.0	92.820	-0.290	0.360	1.200
2020/01/31 07:00:07.1	92.800	-0.270	0.320	1.230
2020/01/31 07:00:07.2	92.790	-0.260	0.280	1.260
2020/01/31 07:00:07.3	92.770	-0.240	0.240	1.280
2020/01/31 07:00:07.4	92.760	-0.220	0.200	1.310
2020/01/31 07:00:07.5	92.740	-0.190	0.160	1.330
2020/01/31 07:00:07.6	92.720	-0.170	0.110	1.350
2020/01/31 07:00:07.7	92.710	-0.150	0.070	1.370
2020/01/31 07:00:07.8	92.690	-0.130	0.020	1.390
2020/01/31 07:00:07.9	92.680	-0.110	-0.030	1.410
2020/01/31 07:00:08.0	92.660	-0.080	-0.070	1.430
2020/01/31 07:00:08.1	92.650	-0.060	-0.120	1.440
2020/01/31 07:00:08.2	92.630	-0.040	-0.170	1.450
2020/01/31 07:00:08.3	92.610	-0.020	-0.220	1.470
2020/01/31 07:00:08.4	92.600	0.000	-0.260	1.480
2020/01/31 07:00:08.5	92.590	0.030	-0.310	1.490
2020/01/31 07:00:08.6	92.570	0.050	-0.350	1.500
2020/01/31 07:00:08.7	92.560	0.070	-0.390	1.500
2020/01/31 07:00:08.8	92.550	0.090	-0.430	1.510
2020/01/31 07:00:08.9	92.540	0.110	-0.460	1.510
2020/01/31 07:00:09.0	92.530	0.130	-0.500	1.510
2020/01/31 07:00:09.1	92.530	0.140	-0.530	1.510
2020/01/31 07:00:09.2	92.520	0.160	-0.560	1.500
2020/01/31 07:00:09.3	92.510	0.180	-0.590	1.500
2020/01/31 07:00:09.4	92.500	0.190	-0.610	1.490
2020/01/31 07:00:09.5	92.500	0.210	-0.640	1.480
2020/01/31 07:00:09.6	92.490	0.220	-0.660	1.470
2020/01/31 07:00:09.7	92.490	0.230	-0.670	1.450
2020/01/31 07:00:09.8	92.490	0.250	-0.690	1.440
2020/01/31 07:00:09.9	92.490	0.260	-0.700	1.420
2020/01/31 07:00:10.0	92.490	0.270	-0.710	1.400
2020/01/31 07:00:10.1	92.490	0.280	-0.710	1.370
2020/01/31 07:00:10.2	92.500	0.280	-0.720	1.340
2020/01/31 07:00:10.3	92.500	0.290	-0.720	1.320
2020/01/31 07:00:10.4	92.510	0.300	-0.720	1.290
2020/01/31 07:00:10.5	92.520	0.300	-0.710	1.260
2020/01/31 07:00:10.6	92.530	0.310	-0.700	1.220
2020/01/31 07:00:10.7	92.540	0.310	-0.690	1.190
2020/01/31 07:00:10.8	92.550	0.320	-0.680	1.150
2020/01/31 07:00:10.9	92.570	0.320	-0.660	1.120
2020/01/31 07:00:11.0	92.590	0.320	-0.640	1.080
2020/01/31 07:00:11.1	92.600	0.320	-0.620	1.040
2020/01/31 07:00:11.2	92.620	0.320	-0.590	1.000
2020/01/31 07:00:11.3	92.630	0.320	-0.570	0.960
2020/01/31 07:00:11.4	92.650	0.320	-0.540	0.920
2020/01/31 07:00:11.5	92.670	0.320	-0.510	0.890
2020/01/31 07:00:11.6	92.690	0.310	-0.480	0.850
2020/01/31 07:00:11.7	92.710	0.310	-0.450	0.820
2020/01/31 07:00:11.8	92.720	0.300	-0.420	0.780
2020/01/31 07:00:11.9	92.740	0.300	-0.390	0.750
2020/01/31 07:00:12.0	92.750	0.290	-0.350	0.720
2020/01/31 07:00:12.1	92.770	0.290	-0.320	0.690
2020/01/31 07:00:12.2	92.780	0.280	-0.290	0.660
2020/01/31 07:00:12.3	92.790	0.270	-0.260	0.640
2020/01/31 07:00:12.4	92.800	0.260	-0.230	0.610
2020/01/31 07:00:12.5	92.810	0.250	-0.200	0.590
2020/01/31 07:00:12.6	92.810	0.240	-0.170	0.570
2020/01/31 07:00:12.7	92.810	0.230	-0.140	0.550
2020/01/31 07:00:12.8	92.810	0.220	-0.110	0.530
2020/01/31 07:00:12.9	92.810	0.210	-0.080	0.510
2020/01/31 07:00:13.0	92.810	0.200	-0.060	0.490
2020/01/31 07:00:13.1	92.800	0.180	-0.030	0.480
2020/01/31 07:00:13.2	92.790	0.170	-0.010	0.460
2020/01/31 07:00:13.3	92.790	0.160	0.010	0.450
2020/01/31 07:00:13.4	92.780	0.140	0.030	0.430
2020/01/31 07:00:13.5	92.770	0.130	0.050	0.420
2020/01/31 07:00:13.6	92.760	0.120	0.060	0.410
2020/01/31 07:00:13.7	92.740	0.100	0.080	0.400
2020/01/31 07:00:13.8	92.730	0.090	0.090	0.390
2020/01/31 07:00:13.9	92.710	0.070	0.110	0.380
2020/01/31 07:00:14.0	92.700	0.060	0.120	0.380
2020/01/31 07:00:14.1	92.680	0.040	0.130	0.370
2020/01/31 07:00:14.2	92.650	0.020	0.140	0.370
2020/01/31 07:00:14.3	92.640	0.010	0.160	0.370
2020/01/31 07:00:14.4	92.620	-0.010	0.170	0.370
2020/01/31 07:00:14.5	92.600	-0.020	0.180	0.370
2020/01/31 07:00:14.6	92.580	-0.040	0.190	0.370
2020/01/31 07:00:14.7	92.560	-0.050	0.200	0.380
2020/01/31 07:00:14.8	92.540	-0.070	0.200	0.380
2020/01/31 07:00:14.9	92.520	-0.080	0.210	0.390
2020/01/31 07:00:15.0	92.500	-0.100	0.220	0.400
2020/01/31 07:00:15.1	92.480	-0.110	0.230	0.410
2020/01/31 07:00:15.2	92.460	-0.130	0.240	0.420
2020/01/31 07:00:15.3	92.430	-0.140	0.240	0.440
2020/01/31 07:00:15.4	92.410	-0.150	0.250	0.450
2020/01/31 07:00:15.5	92.390	-0.160	0.260	0.460
2020/01/31 07:00:15.6	92.370	-0.180	0.260	0.480
2020/01/31 07:00:15.7	92.350	-0.190	0.260	0.490
2020/01/31 07:00:15.8	92.330	-0.200	0.270	0.510
2020/01/31 07:00:15.9	92.310	-0.210	0.270	0.530
2020/01/31 07:00:16.0	92.290	-0.220	0.270	0.540
2020/01/31 07:00:16.1	92.280	-0.230	0.270	0.560
2020/01/31 07:00:16.2	92.260	-0.230	0.260	0.570
2020/01/31 07:00:16.3	92.250	-0.240	0.260	0.580
2020/01/31 07:00:16.4	92.240	-0.250	0.250	0.590
2020/01/31 07:00:16.5	92.230	-0.250	0.250	0.600
2020/01/31 07:00:16.6	92.220	-0.260	0.240	0.610
2020/01/31 07:00:16.7	92.220	-0.260	0.230	0.620
2020/01/31 07:00:16.8	92.220	-0.270	0.210	0.620
2020/01/31 07:00:16.9	92.220	-0.270	0.200	0.620
2020/01/31 07:00:17.0	92.220	-0.270	0.180	0.620
2020/01/31 07:00:17.1	92.230	-0.270	0.160	0.620
2020/01/31 07:00:17.2	92.230	-0.270	0.150	0.620
2020/01/31 07:00:17.3	92.250	-0.270	0.120	0.610
2020/01/31 07:00:17.4	92.260	-0.260	0.100	0.600
2020/01/31 07:00:17.5	92.280	-0.260	0.070	0.590
2020/01/31 07:00:17.6	92.300	-0.260	0.040	0.580
2020/01/31 07:00:17.7	92.320	-0.250	0.010	0.560
2020/01/31 07:00:17.8	92.350	-0.240	-0.020	0.550
2020/01/31 07:00:17.9	92.370	-0.240	-0.050	0.530
2020/01/31 07:00:18.0	92.400	-0.230	-0.090	0.510
2020/01/31 07:00:18.1	92.430	-0.220	-0.120	0.500
2020/01/31 07:00:18.2	92.470	-0.210	-0.170	0.480
2020/01/31 07:00:18.3	92.500	-0.190	-0.200	0.460
2020/01/31 07:00:18.4	92.530	-0.180	-0.240	0.440
2020/01/31 07:00:18.5	92.560	-0.170	-0.280	0.420
2020/01/31 07:00:18.6	92.590	-0.150	-0.310	0.410
2020/01/31 07:00:18.7	92.620	-0.140	-0.350	0.390
2020/01/31 07:00:18.8	92.650	-0.120	-0.380	0.380
2020/01/31 07:00:18.9	92.680	-0.100	-0.410	0.370
2020/01/31 07:00:19.0	92.700	-0.090	-0.440	0.360
2020/01/31 07:00:19.1	92.720	-0.070	-0.470	0.350
2020/01/31 07:00:19.2	92.750	-0.050	-0.490	0.350
2020/01/31 07:00:19.3	92.770	-0.030	-0.510	0.350
2020/01/31 07:00:19.4	92.790	-0.020	-0.530	0.360
2020/01/31 07:00:19.5	92.810	0.000	-0.550	0.370
2020/01/31 07:00:19.6	92.820	0.020	-0.560	0.380
2020/01/31 07:00:19.7	92.830	0.040	-0.580	0.400
2020/01/31 07:00:19.8	92.840	0.060	-0.590	0.420
2020/01/31 07:00:19.9	92.840	0.080	-0.590	0.440
2020/01/31 07:00:20.0	92.840	0.090	-0.600	0.470
2020/01/31 07:00:20.1	92.840	0.110	-0.600	0.500
2020/01/31 07:00:20.2	92.850	0.130	-0.610	0.540
2020/01/31 07:00:20.3	92.850	0.140	-0.610	0.580
2020/01/31 07:00:20.4	92.840	0.160	-0.610	0.620
2020/01/31 07:00:20.5	92.840	0.170	-0.600	0.660
2020/01/31 07:00:20.6	92.830	0.190	-0.590	0.710
2020/01/31 07:00:20.7	92.820	0.200	-0.580	0.760
2020/01/31 07:00:20.8	92.820	0.220	-0.580	0.820
2020/01/31 07:00:20.9	92.810	0.230	-0.570	0.880
2020/01/31 07:00:21.0	92.800	0.240	-0.560	0.930
2020/01/31 07:00:21.1	92.790	0.250	-0.550	0.990
2020/01/31 07:00:21.2	92.790	0.260	-0.530	1.060
2020/01/31 07:00:21.3	92.780	0.270	-0.520	1.120
2020/01/31 07:00:21.4	92.770	0.280	-0.510	1.180
2020/01/31 07:00:21.5	92.760	0.280	-0.500	1.250
2020/01/31 07:00:21.6	92.750	0.290	-0.490	1.310
2020/01/31 07:00:21.7	92.740	0.290	-0.490	1.370
2020/01/31 07:00:21.8	92.730	0.300	-0.480	1.430
2020/01/31 07:00:21.9	92.720	0.300	-0.470	1.500
2020/01/31 07:00:22.0	92.710	0.300	-0.460	1.560
2020/01/31 07:00:22.1	92.700	0.300	-0.440	1.610
2020/01/31 07:00:22.2	92.690	0.290	-0.430	1.670
2020/01/31 07:00:22.3	92.690	0.290	-0.420	1.730
2020/01/31 07:00:22.4	92.680	0.280	-0.410	1.780
2020/01/31 07:00:22.5	92.670	0.280	-0.390	1.830
2020/01/31 07:00:22.6	92.660	0.270	-0.370	1.870
2020/01/31 07:00:22.7	92.650	0.250	-0.350	1.920
2020/01/31 07:00:22.8	92.650	0.240	-0.330	1.960
2020/01/31 07:00:22.9	92.640	0.230	-0.300	1.990
2020/01/31 07:00:23.0	92.630	0.210	-0.270	2.020
2020/01/31 07:00:23.1	92.620	0.190	-0.240	2.050
2020/01/31 07:00:23.2	92.610	0.170	-0.210	2.070
2020/01/31 07:00:23.3	92.600	0.150	-0.180	2.090
2020/01/31 07:00:23.4	92.590	0.130	-0.140	2.110
2020/01/31 07:00:23.5	92.590	0.100	-0.100	2.120
2020/01/31 07:00:23.6	92.580	0.080	-0.060	2.120
2020/01/31 07:00:23.7	92.570	0.050	-0.010	2.130
2020/01/31 07:00:23.8	92.560	0.030	0.030	2.120
2020/01/31 07:00:23.9	92.550	0.000	0.070	2.120
2020/01/31 07:00:24.0	92.540	-0.030	0.120	2.110
2020/01/31 07:00:24.1	92.530	-0.050	0.160	2.090
2020/01/31 07:00:24.2	92.520	-0.080	0.210	2.070
2020/01/31 07:00:24.3	92.510	-0.110	0.250	2.050
2020/01/31 07:00:24.4	92.500	-0.140	0.290	2.030
2020/01/31 07:00:24.5	92.490	-0.160	0.330	2.000
2020/01/31 07:00:24.6	92.480	-0.190	0.370	1.980
2020/01/31 07:00:24.7	92.470	-0.210	0.400	1.950
2020/01/31 07:00:24.8	92.460	-0.230	0.430	1.910
2020/01/31 07:00:24.9	92.450	-0.250	0.460	1.880
2020/01/31 07:00:25.0	92.430	-0.270	0.480	1.840
2020/01/31 07:00:25.1	92.420	-0.290	0.500	1.810
2020/01/31 07:00:25.2	92.400	-0.300	0.510	1.770
2020/01/31 07:00:25.3	92.390	-0.310	0.520	1.720
2020/01/31 07:00:25.4	92.380	-0.320	0.520	1.680
2020/01/31 07:00:25.5	92.370	-0.330	0.520	1.640
2020/01/31 07:00:25.6	92.350	-0.340	0.510	1.600
2020/01/31 07:00:25.7	92.340	-0.340	0.500	1.550
2020/01/31 07:00:25.8	92.330	-0.340	0.480	1.510
2020/01/31 07:00:25.9	92.310	-0.340	0.450	1.460
2020/01/31 07:00:26.0	92.300	-0.330	0.420	1.410
2020/01/31 07:00:26.1	92.290	-0.330	0.380	1.360
2020/01/31 07:00:26.2	92.270	-0.320	0.340	1.310
2020/01/31 07:00:26.3	92.260	-0.310	0.300	1.260
2020/01/31 07:00:26.4	92.240	-0.290	0.250	1.210
2020/01/31 07:00:26.5	92.230	-0.280	0.200	1.150
2020/01/31 07:00:26.6	92.220	-0.260	0.140	1.100
2020/01/31 07:00:26.7	92.200	-0.240	0.090	1.050
2020/01/31 07:00:26.8	92.190	-0.220	0.030	0.990
2020/01/31 07:00:26.9	92.170	-0.200	-0.030	0.940
2020/01/31 07:00:27.0	92.160	-0.180	-0.090	0.880
2020/01/31 07:00:27.1	92.150	-0.160	-0.150	0.830
2020/01/31 07:00:27.2	92.120	-0.140	-0.210	0.770
2020/01/31 07:00:27.3	92.110	-0.110	-0.270	0.710
2020/01/31 07:00:27.4	92.090	-0.090	-0.320	0.650
2020/01/31 07:00:27.5	92.080	-0.070	-0.380	0.600
2020/01/31 07:00:27.6	92.070	-0.050	-0.430	0.540
2020/01/31 07:00:27.7	92.060	-0.030	-0.480	0.490
2020/01/31 07:00:27.8	92.050	-0.010	-0.520	0.430
2020/01/31 07:00:27.9	92.040	0.010	-0.560	0.380
2020/01/31 07:00:28.0	92.030	0.030	-0.600	0.320
2020/01/31 07:00:28.1	92.020	0.050	-0.630	0.270
2020/01/31 07:00:28.2	92.020	0.060	-0.660	0.220
2020/01/31 07:00:28.3	92.010	0.080	-0.680	0.170
2020/01/31 07:00:28.4	92.000	0.090	-0.700	0.120
2020/01/31 07:00:28.5	92.000	0.100	-0.720	0.070
2020/01/31 07:00:28.6	92.000	0.110	-0.730	0.020
2020/01/31 07:00:28.7	92.000	0.120	-0.740	-0.030
2020/01/31 07:00:28.8	92.000	0.130	-0.740	-0.070
2020/01/31 07:00:28.9	92.000	0.140	-0.730	-0.120
2020/01/31 07:00:29.0	92.010	0.140	-0.730	-0.160
2020/01/31 07:00:29.1	92.010	0.150	-0.720	-0.200
2020/01/31 07:00:29.2	92.010	0.150	-0.700	-0.240
2020/01/31 07:00:29.3	92.020	0.150	-0.690	-0.270
2020/01/31 07:00:29.4	92.040	0.150	-0.670	-0.310
2020/01/31 07:00:29.5	92.050	0.150	-0.650	-0.340
2020/01/31 07:00:29.6	92.070	0.150	-0.620	-0.370
2020/01/31 07:00:29.7	92.080	0.160	-0.600	-0.400
2020/01/31 07:00:29.8	92.100	0.160	-0.570	-0.420
2020/01/31 07:00:29.9	92.120	0.160	-0.540	-0.440
2020/01/31 07:00:30.0	92.150	0.160	-0.520	-0.460
2020/01/31 07:00:30.1	92.170	0.160	-0.490	-0.480
2020/01/31 07:00:30.2	92.210	0.160	-0.460	-0.490
2020/01/31 07:00:30.3	92.230	0.160	-0.430	-0.500
2020/01/31 07:00:30.4	92.260	0.160	-0.410	-0.510
2020/01/31 07:00:30.5	92.290	0.160	-0.380	-0.510
2020/01/31 07:00:30.6	92.310	0.170	-0.360	-0.510
2020/01/31 07:00:30.7	92.340	0.170	-0.340	-0.510
2020/01/31 07:00:30.8	92.360	0.180	-0.320	-0.500
2020/01/31 07:00:30.9	92.390	0.180	-0.300	-0.490
2020/01/31 07:00:31.0	92.410	0.190	-0.280	-0.470
2020/01/31 07:00:31.1	92.430	0.190	-0.260	-0.440
2020/01/31 07:00:31.2	92.450	0.200	-0.250	-0.410
2020/01/31 07:00:31.3	92.460	0.200	-0.230	-0.370
2020/01/31 07:00:31.4	92.470	0.210	-0.220	-0.330
2020/01/31 07:00:31.5	92.480	0.210	-0.200	-0.290
2020/01/31 07:00:31.6	92.480	0.220	-0.190	-0.230
2020/01/31 07:00:31.7	92.480	0.220	-0.170	-0.180
2020/01/31 07:00:31.8	92.480	0.220	-0.160	-0.120
2020/01/31 07:00:31.9	92.470	0.220	-0.140	-0.050
2020/01/31 07:00:32.0	92.460	0.220	-0.120	0.020
2020/01/31 07:00:32.1	92.450	0.220	-0.100	0.090
2020/01/31 07:00:32.2	92.430	0.220	-0.080	0.170
2020/01/31 07:00:32.3	92.410	0.210	-0.050	0.250
2020/01/31 07:00:32.4	92.390	0.200	-0.020	0.330
2020/01/31 07:00:32.5	92.360	0.190	0.000	0.410
2020/01/31 07:00:32.6	92.330	0.170	0.040	0.490
2020/01/31 07:00:32.7	92.300	0.160	0.070	0.570
2020/01/31 07:00:32.8	92.270	0.140	0.110	0.650
2020/01/31 07:00:32.9	92.230	0.110	0.150	0.730
2020/01/31 07:00:33.0	92.200	0.090	0.190	0.810
2020/01/31 07:00:33.1	92.160	0.060	0.230	0.890
2020/01/31 07:00:33.2	92.120	0.030	0.280	0.970
2020/01/31 07:00:33.3	92.080	0.000	0.320	1.040
2020/01/31 07:00:33.4	92.040	-0.030	0.370	1.120
2020/01/31 07:00:33.5	92.000	-0.060	0.420	1.190
2020/01/31 07:00:33.6	91.950	-0.100	0.460	1.260
2020/01/31 07:00:33.7	91.910	-0.140	0.510	1.320
2020/01/31 07:00:33.8	91.870	-0.170	0.550	1.390
2020/01/31 07:00:33.9	91.830	-0.210	0.590	1.450
2020/01/31 07:00:34.0	91.790	-0.250	0.630	1.500
2020/01/31 07:00:34.1	91.750	-0.290	0.660	1.560
2020/01/31 07:00:34.2	91.710	-0.320	0.700	1.610
2020/01/31 07:00:34.3	91.680	-0.360	0.720	1.660
2020/01/31 07:00:34.4	91.640	-0.390	0.740	1.710
2020/01/31 07:00:34.5	91.600	-0.420	0.760	1.750
2020/01/31 07:00:34.6	91.570	-0.450	0.770	1.790
2020/01/31 07:00:34.7	91.540	-0.470	0.770	1.830
2020/01/31 07:00:34.8	91.510	-0.490	0.760	1.860
2020/01/31 07:00:34.9	91.490	-0.510	0.750	1.890
2020/01/31 07:00:35.0	91.470	-0.530	0.730	1.920
2020/01/31 07:00:35.1	91.450	-0.540	0.700	1.940
2020/01/31 07:00:35.2	91.430	-0.540	0.660	1.960
2020/01/31 07:00:35.3	91.420	-0.540	0.610	1.980
2020/01/31 07:00:35.4	91.400	-0.540	0.560	1.990
2020/01/31 07:00:35.5	91.400	-0.530	0.500	2.000
2020/01/31 07:00:35.6	91.390	-0.510	0.430	2.000
2020/01/31 07:00:35.7	91.390	-0.490	0.350	2.000
2020/01/31 07:00:35.8	91.400	-0.470	0.270	2.000
2020/01/31 07:00:35.9	91.400	-0.440	0.180	2.000
2020/01/31 07:00:36.0	91.410	-0.400	0.080	1.990
2020/01/31 07:00:36.1	91.430	-0.360	-0.020	1.980
2020/01/31 07:00:36.2	91.430	-0.320	-0.130	1.960
2020/01/31 07:00:36.3	91.450	-0.270	-0.230	1.940
2020/01/31 07:00:36.4	91.470	-0.220	-0.350	1.920
2020/01/31 07:00:36.5	91.500	-0.170	-0.460	1.890
2020/01/31 07:00:36.6	91.530	-0.120	-0.570	1.860
2020/01/31 07:00:36.7	91.560	-0.060	-0.680	1.830
2020/01/31 07:00:36.8	91.590	-0.000	-0.790	1.800
2020/01/31 07:00:36.9	91.620	0.060	-0.900	1.760
2020/01/31 07:00:37.0	91.660	0.120	-1.000	1.720
2020/01/31 07:00:37.1	91.690	0.170	-1.100	1.690
2020/01/31 07:00:37.2	91.730	0.230	-1.190	1.650
2020/01/31 07:00:37.3	91.760	0.290	-1.270	1.610
2020/01/31 07:00:37.4	91.800	0.340	-1.350	1.560
2020/01/31 07:00:37.5	91.830	0.390	-1.410	1.520
2020/01/31 07:00:37.6	91.860	0.440	-1.470	1.480
2020/01/31 07:00:37.7	91.890	0.490	-1.520	1.430
2020/01/31 07:00:37.8	91.920	0.530	-1.550	1.390
2020/01/31 07:00:37.9	91.950	0.570	-1.580	1.350
2020/01/31 07:00:38.0	91.970	0.600	-1.590	1.310
2020/01/31 07:00:38.1	91.990	0.620	-1.590	1.270
2020/01/31 07:00:38.2	92.010	0.650	-1.580	1.230
2020/01/31 07:00:38.3	92.020	0.660	-1.560	1.190
2020/01/31 07:00:38.4	92.030	0.680	-1.520	1.160
2020/01/31 07:00:38.5	92.040	0.680	-1.480	1.120
2020/01/31 07:00:38.6	92.050	0.680	-1.420	1.090
2020/01/31 07:00:38.7	92.050	0.680	-1.350	1.060
2020/01/31 07:00:38.8	92.050	0.660	-1.280	1.040
2020/01/31 07:00:38.9	92.040	0.650	-1.190	1.010
2020/01/31 07:00:39.0	92.030	0.630	-1.100	0.990
2020/01/31 07:00:39.1	92.020	0.600	-1.000	0.970
2020/01/31 07:00:39.2	92.010	0.570	-0.890	0.950
2020/01/31 07:00:39.3	91.990	0.530	-0.770	0.940
2020/01/31 07:00:39.4	91.970	0.490	-0.650	0.920
2020/01/31 07:00:39.5	91.950	0.450	-0.530	0.910
2020/01/31 07:00:39.6	91.920	0.400	-0.400	0.900
2020/01/31 07:00:39.7	91.900	0.350	-0.280	0.890
2020/01/31 07:00:39.8	91.870	0.290	-0.150	0.880
2020/01/31 07:00:39.9	91.840	0.240	-0.020	0.880
2020/01/31 07:00:40.0	91.810	0.180	0.100	0.870
2020/01/31 07:00:40.1	91.770	0.120	0.220	0.870
2020/01/31 07:00:40.2	91.740	0.060	0.340	0.860
2020/01/31 07:00:40.3	91.710	0.010	0.460	0.850
2020/01/31 07:00:40.4	91.680	-0.050	0.570	0.840
2020/01/31 07:00:40.5	91.650	-0.110	0.670	0.840
2020/01/31 07:00:40.6	91.620	-0.170	0.770	0.830
2020/01/31 07:00:40.7	91.590	-0.220	0.860	0.820
2020/01/31 07:00:40.8	91.560	-0.270	0.940	0.810
2020/01/31 07:00:40.9	91.540	-0.320	1.010	0.800
2020/01/31 07:00:41.0	91.510	-0.370	1.070	0.790
2020/01/31 07:00:41.1	91.490	-0.410	1.120	0.780
2020/01/31 07:00:41.2	91.470	-0.450	1.170	0.760
2020/01/31 07:00:41.3	91.450	-0.480	1.200	0.750
2020/01/31 07:00:41.4	91.440	-0.510	1.220	0.730
2020/01/31 07:00:41.5	91.430	-0.540	1.230	0.710
2020/01/31 07:00:41.6	91.420	-0.560	1.230	0.690
2020/01/31 07:00:41.7	91.410	-0.580	1.220	0.670
2020/01/31 07:00:41.8	91.410	-0.600	1.200	0.650
2020/01/31 07:00:41.9	91.410	-0.610	1.170	0.620
2020/01/31 07:00:42.0	91.410	-0.610	1.140	0.600
2020/01/31 07:00:42.1	91.410	-0.610	1.090	0.580
2020/01/31 07:00:42.2	91.430	-0.610	1.030	0.550
2020/01/31 07:00:42.3	91.440	-0.600	0.970	0.520
2020/01/31 07:00:42.4	91.450	-0.590	0.910	0.490
2020/01/31 07:00:42.5	91.470	-0.580	0.830	0.460
2020/01/31 07:00:42.6	91.480	-0.560	0.750	0.430
2020/01/31 07:00:42.7	91.500	-0.540	0.670	0.400
2020/01/31 07:00:42.8	91.520	-0.520	0.580	0.370
2020/01/31 07:00:42.9	91.540	-0.490	0.490	0.340
2020/01/31 07:00:43.0	91.570	-0.460	0.400	0.310
2020/01/31 07:00:43.1	91.590	-0.430	0.300	0.280
2020/01/31 07:00:43.2	91.620	-0.400	0.200	0.240
2020/01/31 07:00:43.3	91.650	-0.370	0.110	0.210
2020/01/31 07:00:43.4	91.680	-0.330	0.010	0.180
2020/01/31 07:00:43.5	91.710	-0.300	-0.090	0.150
2020/01/31 07:00:43.6	91.740	-0.260	-0.180	0.120
2020/01/31 07:00:43.7	91.770	-0.230	-0.280	0.090
2020/01/31 07:00:43.8	91.800	-0.190	-0.370	0.060
2020/01/31 07:00:43.9	91.830	-0.160	-0.460	0.030
2020/01/31 07:00:44.0	91.850	-0.120	-0.540	-0.000
2020/01/31 07:00:44.1	91.880	-0.090	-0.620	-0.030
2020/01/31 07:00:44.2	91.910	-0.060	-0.700	-0.050
2020/01/31 07:00:44.3	91.940	-0.030	-0.770	-0.080
2020/01/31 07:00:44.4	91.960	0.000	-0.830	-0.100
2020/01/31 07:00:44.5	91.980	0.030	-0.890	-0.120
2020/01/31 07:00:44.6	92.000	0.060	-0.950	-0.130
2020/01/31 07:00:44.7	92.020	0.090	-1.000	-0.140
2020/01/31 07:00:44.8	92.040	0.110	-1.040	-0.150
2020/01/31 07:00:44.9	92.050	0.130	-1.070	-0.160
2020/01/31 07:00:45.0	92.070	0.160	-1.100	-0.160
2020/01/31 07:00:45.1	92.070	0.180	-1.130	-0.160
2020/01/31 07:00:45.2	92.080	0.190	-1.140	-0.150
2020/01/31 07:00:45.3	92.080	0.210	-1.150	-0.140
2020/01/31 07:00:45.4	92.080	0.220	-1.150	-0.130
2020/01/31 07:00:45.5	92.080	0.240	-1.150	-0.110
2020/01/31 07:00:45.6	92.070	0.250	-1.140	-0.080
2020/01/31 07:00:45.7	92.070	0.260	-1.130	-0.060
2020/01/31 07:00:45.8	92.050	0.260	-1.110	-0.030
2020/01/31 07:00:45.9	92.040	0.270	-1.080	0.010
2020/01/31 07:00:46.0	92.030	0.270	-1.050	0.050
2020/01/31 07:00:46.1	92.010	0.280	-1.020	0.090
2020/01/31 07:00:46.2	91.990	0.280	-0.980	0.130
2020/01/31 07:00:46.3	91.970	0.280	-0.940	0.180
2020/01/31 07:00:46.4	91.950	0.280	-0.890	0.230
2020/01/31 07:00:46.5	91.930	0.280	-0.850	0.290
2020/01/31 07:00:46.6	91.910	0.270	-0.800	0.350
2020/01/31 07:00:46.7	91.880	0.270	-0.740	0.400
2020/01/31 07:00:46.8	91.860	0.270	-0.690	0.460
2020/01/31 07:00:46.9	91.840	0.260	-0.640	0.530
2020/01/31 07:00:47.0	91.810	0.250	-0.580	0.590
2020/01/31 07:00:47.1	91.790	0.250	-0.530	0.650
2020/01/31 07:00:47.2	91.770	0.240	-0.480	0.720
2020/01/31 07:00:47.3	91.750	0.230	-0.420	0.780
2020/01/31 07:00:47.4	91.730	0.220	-0.370	0.850
2020/01/31 07:00:47.5	91.710	0.210	-0.320	0.910
2020/01/31 07:00:47.6	91.700	0.200	-0.270	0.970
2020/01/31 07:00:47.7	91.680	0.200	-0.220	1.040
2020/01/31 07:00:47.8	91.670	0.190	-0.180	1.100
2020/01/31 07:00:47.9	91.660	0.180	-0.140	1.170
2020/01/31 07:00:48.0	91.660	0.170	-0.100	1.230
2020/01/31 07:00:48.1	91.650	0.160	-0.060	1.290
2020/01/31 07:00:48.2	91.630	0.150	-0.020	1.350
2020/01/31 07:00:48.3	91.630	0.140	0.010	1.410
2020/01/31 07:00:48.4	91.630	0.130	0.040	1.460
2020/01/31 07:00:48.5	91.630	0.130	0.070	1.520
2020/01/31 07:00:48.6	91.630	0.120	0.090	1.570
2020/01/31 07:00:48.7	91.640	0.110	0.110	1.630
2020/01/31 07:00:48.8	91.640	0.110	0.130	1.680
2020/01/31 07:00:48.9	91.650	0.100	0.140	1.730
2020/01/31 07:00:49.0	91.660	0.100	0.150	1.780
2020/01/31 07:00:49.1	91.660	0.090	0.170	1.820
2020/01/31 07:00:49.2	91.680	0.090	0.170	1.860
2020/01/31 07:00:49.3	91.690	0.080	0.180	1.900
2020/01/31 07:00:49.4	91.700	0.080	0.180	1.940
2020/01/31 07:00:49.5	91.720	0.080	0.180	1.970
2020/01/31 07:00:49.6	91.730	0.070	0.180	2.010
2020/01/31 07:00:49.7	91.750	0.070	0.190	2.030
2020/01/31 07:00:49.8	91.770	0.070	0.180	2.060
2020/01/31 07:00:49.9	91.780	0.070	0.180	2.080
2020/01/31 07:00:50.0	91.800	0.060	0.180	2.090
2020/01/31 07:00:50.1	91.830	0.060	0.180	2.110
2020/01/31 07:00:50.2	91.850	0.060	0.180	2.110
2020/01/31 07:00:50.3	91.870	0.060	0.180	2.120
2020/01/31 07:00:50.4	91.890	0.050	0.180	2.120
2020/01/31 07:00:50.5	91.920	0.050	0.180	2.120
2020/01/31 07:00:50.6	91.940	0.050	0.180	2.120
2020/01/31 07:00:50.7	91.960	0.040	0.180	2.110
2020/01/31 07:00:50.8	91.980	0.040	0.180	2.100
2020/01/31 07:00:50.9	92.000	0.030	0.190	2.090
2020/01/31 07:00:51.0	92.020	0.030	0.190	2.070
2020/01/31 07:00:51.1	92.040	0.020	0.200	2.050
2020/01/31 07:00:51.2	92.060	0.010	0.210	2.030
2020/01/31 07:00:51.3	92.070	0.010	0.220	2.010
2020/01/31 07:00:51.4	92.090	-0.000	0.230	1.990
2020/01/31 07:00:51.5	92.100	-0.010	0.240	1.960
2020/01/31 07:00:51.6	92.120	-0.020	0.250	1.930
2020/01/31 07:00:51.7	92.130	-0.030	0.270	1.900
2020/01/31 07:00:51.8	92.140	-0.040	0.280	1.860
2020/01/31 07:00:51.9	92.150	-0.050	0.300	1.830
2020/01/31 07:00:52.0	92.160	-0.060	0.310	1.790
2020/01/31 07:00:52.1	92.160	-0.080	0.320	1.750
2020/01/31 07:00:52.2	92.170	-0.090	0.340	1.710
2020/01/31 07:00:52.3	92.180	-0.100	0.350	1.670
2020/01/31 07:00:52.4	92.180	-0.110	0.360	1.630
2020/01/31 07:00:52.5	92.180	-0.120	0.370	1.590
2020/01/31 07:00:52.6	92.180	-0.130	0.380	1.550
2020/01/31 07:00:52.7	92.180	-0.140	0.390	1.510
2020/01/31 07:00:52.8	92.180	-0.150	0.390	1.470
2020/01/31 07:00:52.9	92.180	-0.160	0.390	1.430
2020/01/31 07:00:53.0	92.180	-0.170	0.390	1.380
2020/01/31 07:00:53.1	92.170	-0.180	0.380	1.350
2020/01/31 07:00:53.2	92.180	-0.190	0.360	1.300
2020/01/31 07:00:53.3	92.170	-0.190	0.350	1.270
2020/01/31 07:00:53.4	92.160	-0.200	0.330	1.230
2020/01/31 07:00:53.5	92.150	-0.200	0.310	1.200
2020/01/31 07:00:53.6	92.140	-0.200	0.280	1.160
2020/01/31 07:00:53.7	92.130	-0.200	0.250	1.130
2020/01/31 07:00:53.8	92.120	-0.200	0.210	1.100
2020/01/31 07:00:53.9	92.100	-0.190	0.170	1.070
2020/01/31 07:00:54.0	92.090	-0.190	0.120	1.040
2020/01/31 07:00:54.1	92.080	-0.180	0.070	1.010
2020/01/31 07:00:54.2	92.060	-0.170	0.020	0.990
2020/01/31 07:00:54.3	92.040	-0.160	-0.040	0.960
2020/01/31 07:00:54.4	92.030	-0.140	-0.100	0.930
2020/01/31 07:00:54.5	92.010	-0.130	-0.160	0.910
2020/01/31 07:00:54.6	92.000	-0.110	-0.220	0.880
2020/01/31 07:00:54.7	91.980	-0.100	-0.290	0.860
2020/01/31 07:00:54.8	91.970	-0.080	-0.360	0.840
2020/01/31 07:00:54.9	91.950	-0.060	-0.430	0.810
2020/01/31 07:00:55.0	91.940	-0.040	-0.500	0.790
2020/01/31 07:00:55.1	91.930	-0.010	-0.570	0.760
2020/01/31 07:00:55.2	91.910	0.010	-0.630	0.740
2020/01/31 07:00:55.3	91.900	0.030	-0.700	0.710
2020/01/31 07:00:55.4	91.900	0.050	-0.760	0.690
2020/01/31 07:00:55.5	91.890	0.080	-0.830	0.670
2020/01/31 07:00:55.6	91.890	0.100	-0.890	0.640
2020/01/31 07:00:55.7	91.880	0.120	-0.940	0.620
2020/01/31 07:00:55.8	91.880	0.140	-0.990	0.590
2020/01/31 07:00:55.9	91.880	0.160	-1.040	0.570
2020/01/31 07:00:56.0	91.890	0.180	-1.080	0.550
2020/01/31 07:00:56.1	91.890	0.200	-1.110	0.530
2020/01/31 07:00:56.2	91.900	0.210	-1.140	0.510
2020/01/31 07:00:56.3	91.900	0.230	-1.160	0.490
2020/01/31 07:00:56.4	91.900	0.240	-1.170	0.470
2020/01/31 07:00:56.5	91.910	0.250	-1.180	0.460
2020/01/31 07:00:56.6	91.910	0.250	-1.180	0.450
2020/01/31 07:00:56.7	91.920	0.260	-1.170	0.440
2020/01/31 07:00:56.8	91.920	0.260	-1.150	0.430
2020/01/31 07:00:56.9	91.920	0.260	-1.120	0.430
2020/01/31 07:00:57.0	91.920	0.250	-1.090	0.430
2020/01/31 07:00:57.1	91.920	0.240	-1.040	0.430
2020/01/31 07:00:57.2	91.920	0.230	-0.990	0.440
2020/01/31 07:00:57.3	91.910	0.220	-0.940	0.450
2020/01/31 07:00:57.4	91.910	0.200	-0.870	0.460
2020/01/31 07:00:57.5	91.910	0.180	-0.800	0.470
2020/01/31 07:00:57.6	91.900	0.160	-0.730	0.480
2020/01/31 07:00:57.7	91.890	0.140	-0.650	0.500
2020/01/31 07:00:57.8	91.890	0.110	-0.570	0.520
2020/01/31 07:00:57.9	91.880	0.080	-0.490	0.540
2020/01/31 07:00:58.0	91.870	0.060	-0.400	0.560
2020/01/31 07:00:58.1	91.860	0.020	-0.320	0.580
2020/01/31 07:00:58.2	91.850	-0.010	-0.230	0.610
2020/01/31 07:00:58.3	91.840	-0.040	-0.140	0.630
2020/01/31 07:00:58.4	91.830	-0.070	-0.050	0.660
2020/01/31 07:00:58.5	91.820	-0.110	0.030	0.680
2020/01/31 07:00:58.6	91.810	-0.140	0.110	0.700
2020/01/31 07:00:58.7	91.800	-0.170	0.190	0.730
2020/01/31 07:00:58.8	91.800	-0.200	0.270	0.750
2020/01/31 07:00:58.9	91.790	-0.230	0.340	0.770
2020/01/31 07:00:59.0	91.790	-0.260	0.400	0.790
2020/01/31 07:00:59.1	91.780	-0.290	0.460	0.810
2020/01/31 07:00:59.2	91.790	-0.310	0.510	0.830
2020/01/31 07:00:59.3	91.780	-0.330	0.560	0.840
2020/01/31 07:00:59.4	91.780	-0.350	0.590	0.860
2020/01/31 07:00:59.5	91.780	-0.370	0.630	0.870
2020/01/31 07:00:59.6	91.780	-0.380	0.650	0.880
2020/01/31 07:00:59.7	91.780	-0.390	0.660	0.890
2020/01/31 07:00:59.8	91.790	-0.390	0.670	0.900
2020/01/31 07:00:59.9	91.790	-0.400	0.670	0.900
2020/01/31 07:01:00.0	91.790	-0.400	0.670	0.910
2020/01/31 07:01:00.1	91.800	-0.390	0.650	0.910
2020/01/31 07:01:00.2	91.800	-0.390	0.630	0.920
2020/01/31 07:01:00.3	91.800	-0.370	0.610	0.920
2020/01/31 07:01:00.4	91.810	-0.360	0.570	0.920
2020/01/31 07:01:00.5	91.810	-0.340	0.530	0.920
2020/01/31 07:01:00.6	91.820	-0.320	0.480	0.920
2020/01/31 07:01:00.7	91.820	-0.300	0.430	0.930
2020/01/31 07:01:00.8	91.820	-0.270	0.380	0.930
2020/01/31 07:01:00.9	91.830	-0.250	0.320	0.930
2020/01/31 07:01:01.0	91.830	-0.220	0.260	0.930
2020/01/31 07:01:01.1	91.830	-0.190	0.200	0.930
2020/01/31 07:01:01.2	91.820	-0.150	0.130	0.940
2020/01/31 07:01:01.3	91.830	-0.120	0.060	0.940
2020/01/31 07:01:01.4	91.830	-0.090	-0.000	0.940
2020/01/31 07:01:01.5	91.820	-0.050	-0.060	0.950
2020/01/31 07:01:01.6	91.820	-0.020	-0.120	0.950
2020/01/31 07:01:01.7	91.820	0.020	-0.180	0.960
2020/01/31 07:01:01.8	91.810	0.050	-0.240	0.960
2020/01/31 07:01:01.9	91.810	0.080	-0.290	0.970
2020/01/31 07:01:02.0	91.800	0.120	-0.340	0.980
2020/01/31 07:01:02.1	91.800	0.140	-0.380	0.980
2020/01/31 07:01:02.2	91.780	0.170	-0.420	0.980
2020/01/31 07:01:02.3	91.770	0.200	-0.450	0.990
2020/01/31 07:01:02.4	91.760	0.220	-0.480	0.990
2020/01/31 07:01:02.5	91.750	0.240	-0.500	1.000
2020/01/31 07:01:02.6	91.730	0.260	-0.520	1.000
2020/01/31 07:01:02.7	91.720	0.270	-0.530	1.000
2020/01/31 07:01:02.8	91.710	0.280	-0.540	1.000
2020/01/31 07:01:02.9	91.690	0.290	-0.540	1.000
2020/01/31 07:01:03.0	91.680	0.300	-0.530	1.000
2020/01/31 07:01:03.1	91.660	0.300	-0.520	1.000
2020/01/31 07:01:03.2	91.650	0.300	-0.500	1.000
2020/01/31 07:01:03.3	91.630	0.290	-0.490	0.990
2020/01/31 07:01:03.4	91.620	0.290	-0.460	0.980
2020/01/31 07:01:03.5	91.610	0.280	-0.440	0.970
2020/01/31 07:01:03.6	91.600	0.270	-0.410	0.960
2020/01/31 07:01:03.7	91.590	0.250	-0.370	0.950
2020/01/31 07:01:03.8	91.590	0.240	-0.340	0.940
2020/01/31 07:01:03.9	91.580	0.220	-0.300	0.920
2020/01/31 07:01:04.0	91.580	0.200	-0.270	0.900
2020/01/31 07:01:04.1	91.570	0.180	-0.230	0.880
2020/01/31 07:01:04.2	91.580	0.160	-0.200	0.860
2020/01/31 07:01:04.3	91.580	0.140	-0.160	0.840
2020/01/31 07:01:04.4	91.580	0.120	-0.130	0.820
2020/01/31 07:01:04.5	91.580	0.090	-0.090	0.800
2020/01/31 07:01:04.6	91.590	0.070	-0.060	0.780
2020/01/31 07:01:04.7	91.590	0.050	-0.030	0.770
2020/01/31 07:01:04.8	91.600	0.030	-0.010	0.750
2020/01/31 07:01:04.9	91.600	0.010	0.010	0.730
2020/01/31 07:01:05.0	91.610	-0.000	0.030	0.710
2020/01/31 07:01:05.1	91.610	-0.020	0.050	0.700
2020/01/31 07:01:05.2	91.620	-0.030	0.060	0.680
2020/01/31 07:01:05.3	91.620	-0.040	0.070	0.670
2020/01/31 07:01:05.4	91.630	-0.050	0.080	0.660
2020/01/31 07:01:05.5	91.640	-0.060	0.080	0.650
2020/01/31 07:01:05.6	91.640	-0.070	0.070	0.650
2020/01/31 07:01:05.7	91.650	-0.070	0.070	0.650
2020/01/31 07:01:05.8	91.650	-0.070	0.060	0.640
2020/01/31 07:01:05.9	91.660	-0.070	0.050	0.640
2020/01/31 07:01:06.0	91.660	-0.070	0.040	0.650
2020/01/31 07:01:06.1	91.670	-0.070	0.020	0.650
2020/01/31 07:01:06.2	91.670	-0.060	0.000	0.660
2020/01/31 07:01:06.3	91.670	-0.050	-0.020	0.670
2020/01/31 07:01:06.4	91.680	-0.040	-0.040	0.680
2020/01/31 07:01:06.5	91.680	-0.040	-0.060	0.690
2020/01/31 07:01:06.6	91.690	-0.020	-0.080	0.700
2020/01/31 07:01:06.7	91.690	-0.010	-0.100	0.720
2020/01/31 07:01:06.8	91.700	-0.000	-0.130	0.730
2020/01/31 07:01:06.9	91.700	0.010	-0.150	0.750
2020/01/31 07:01:07.0	91.710	0.020	-0.180	0.760
2020/01/31 07:01:07.1	91.710	0.040	-0.200	0.780
2020/01/31 07:01:07.2	91.720	0.050	-0.230	0.800
2020/01/31 07:01:07.3	91.730	0.060	-0.250	0.810
2020/01/31 07:01:07.4	91.730	0.070	-0.280	0.830
2020/01/31 07:01:07.5	91.730	0.080	-0.300	0.850
2020/01/31 07:01:07.6	91.740	0.090	-0.330	0.870
2020/01/31 07:01:07.7	91.750	0.100	-0.350	0.880
2020/01/31 07:01:07.8	91.750	0.110	-0.370	0.900
2020/01/31 07:01:07.9	91.760	0.110	-0.400	0.910
2020/01/31 07:01:08.0	91.760	0.120	-0.420	0.930
2020/01/31 07:01:08.1	91.770	0.120	-0.440	0.940
2020/01/31 07:01:08.2	91.770	0.130	-0.460	0.960
2020/01/31 07:01:08.3	91.780	0.130	-0.470	0.970
2020/01/31 07:01:08.4	91.790	0.130	-0.490	0.990
2020/01/31 07:01:08.5	91.800	0.130	-0.500	1.000
2020/01/31 07:01:08.6	91.810	0.120	-0.520	1.020
2020/01/31 07:01:08.7	91.820	0.120	-0.530	1.030
2020/01/31 07:01:08.8	91.820	0.120	-0.530	1.040
2020/01/31 07:01:08.9	91.830	0.110	-0.540	1.060
2020/01/31 07:01:09.0	91.840	0.100	-0.540	1.070
2020/01/31 07:01:09.1	91.850	0.090	-0.540	1.090
2020/01/31 07:01:09.2	91.850	0.080	-0.540	1.100
2020/01/31 07:01:09.3	91.850	0.070	-0.530	1.110
2020/01/31 07:01:09.4	91.860	0.060	-0.520	1.130
2020/01/31 07:01:09.5	91.860	0.050	-0.510	1.140
2020/01/31 07:01:09.6	91.870	0.040	-0.490	1.160
2020/01/31 07:01:09.7	91.870	0.030	-0.470	1.170
2020/01/31 07:01:09.8	91.880	0.020	-0.450	1.190
2020/01/31 07:01:09.9	91.880	0.010	-0.420	1.200
2020/01/31 07:01:10.0	91.880	-0.000	-0.390	1.210
2020/01/31 07:01:10.1	91.880	-0.010	-0.350	1.230
2020/01/31 07:01:10.2	91.880	-0.020	-0.320	1.250
2020/01/31 07:01:10.3	91.870	-0.030	-0.280	1.260
2020/01/31 07:01:10.4	91.870	-0.040	-0.230	1.270
2020/01/31 07:01:10.5	91.860	-0.050	-0.190	1.280
2020/01/31 07:01:10.6	91.850	-0.060	-0.140	1.300
2020/01/31 07:01:10.7	91.840	-0.070	-0.090	1.310
2020/01/31 07:01:10.8	91.830	-0.080	-0.040	1.320
2020/01/31 07:01:10.9	91.820	-0.090	0.010	1.330
2020/01/31 07:01:11.0	91.810	-0.090	0.060	1.330
2020/01/31 07:01:11.1	91.790	-0.100	0.120	1.340
2020/01/31 07:01:11.2	91.780	-0.110	0.170	1.350
2020/01/31 07:01:11.3	91.760	-0.110	0.220	1.350
2020/01/31 07:01:11.4	91.750	-0.120	0.270	1.350
2020/01/31 07:01:11.5	91.730	-0.120	0.320	1.350
2020/01/31 07:01:11.6	91.710	-0.130	0.370	1.350
2020/01/31 07:01:11.7	91.690	-0.140	0.420	1.350
2020/01/31 07:01:11.8	91.670	-0.140	0.460	1.350
2020/01/31 07:01:11.9	91.650	-0.140	0.500	1.340
2020/01/31 07:01:12.0	91.630	-0.150	0.540	1.330
2020/01/31 07:01:12.1	91.610	-0.150	0.570	1.320
2020/01/31 07:01:12.2	91.600	-0.160	0.600	1.300
2020/01/31 07:01:12.3	91.590	-0.160	0.620	1.280
2020/01/31 07:01:12.4	91.570	-0.160	0.640	1.260
2020/01/31 07:01:12.5	91.560	-0.170	0.650	1.240
2020/01/31 07:01:12.6	91.540	-0.170	0.650	1.210
2020/01/31 07:01:12.7	91.530	-0.170	0.650	1.190
2020/01/31 07:01:12.8	91.520	-0.170	0.650	1.150
2020/01/31 07:01:12.9	91.510	-0.170	0.630	1.120
2020/01/31 07:01:13.0	91.500	-0.170	0.610	1.080
2020/01/31 07:01:13.1	91.500	-0.170	0.590	1.040
2020/01/31 07:01:13.2	91.500	-0.170	0.550	1.000
2020/01/31 07:01:13.3	91.500	-0.170	0.510	0.960
2020/01/31 07:01:13.4	91.500	-0.160	0.470	0.910
2020/01/31 07:01:13.5	91.500	-0.160	0.420	0.860
2020/01/31 07:01:13.6	91.510	-0.150	0.360	0.810
2020/01/31 07:01:13.7	91.520	-0.140	0.300	0.760
2020/01/31 07:01:13.8	91.530	-0.130	0.230	0.710
2020/01/31 07:01:13.9	91.550	-0.120	0.160	0.660
2020/01/31 07:01:14.0	91.560	-0.110	0.080	0.600
2020/01/31 07:01:14.1	91.580	-0.100	0.010	0.550
2020/01/31 07:01:14.2	91.600	-0.080	-0.080	0.490
2020/01/31 07:01:14.3	91.630	-0.070	-0.160	0.440
2020/01/31 07:01:14.4	91.650	-0.050	-0.250	0.390
2020/01/31 07:01:14.5	91.680	-0.040	-0.340	0.330
2020/01/31 07:01:14.6	91.710	-0.020	-0.420	0.280
2020/01/31 07:01:14.7	91.740	-0.000	-0.510	0.240
2020/01/31 07:01:14.8	91.760	0.020	-0.590	0.190
2020/01/31 07:01:14.9	91.790	0.040	-0.680	0.150
2020/01/31 07:01:15.0	91.820	0.060	-0.760	0.110
2020/01/31 07:01:15.1	91.850	0.070	-0.830	0.070
2020/01/31 07:01:15.2	91.870	0.090	-0.900	0.040
2020/01/31 07:01:15.3	91.900	0.110	-0.970	0.010
2020/01/31 07:01:15.4	91.920	0.130	-1.030	-0.010
2020/01/31 07:01:15.5	91.950	0.140	-1.080	-0.030
2020/01/31 07:01:15.6	91.970	0.160	-1.120	-0.040
2020/01/31 07:01:15.7	91.980	0.170	-1.160	-0.050
2020/01/31 07:01:15.8	91.990	0.180	-1.190	-0.060
2020/01/31 07:01:15.9	92.000	0.190	-1.210	-0.050
2020/01/31 07:01:16.0	92.010	0.200	-1.230	-0.050
2020/01/31 07:01:16.1	92.010	0.200	-1.230	-0.040
2020/01/31 07:01:16.2	92.010	0.210	-1.230	-0.020
2020/01/31 07:01:16.3	92.010	0.210	-1.210	0.000
2020/01/31 07:01:16.4	92.000	0.210	-1.190	0.030
2020/01/31 07:01:16.5	91.990	0.200	-1.160	0.060
2020/01/31 07:01:16.6	91.980	0.200	-1.120	0.090
2020/01/31 07:01:16.7	91.960	0.190	-1.070	0.130
2020/01/31 07:01:16.8	91.940	0.180	-1.020	0.170
2020/01/31 07:01:16.9	91.920	0.170	-0.950	0.220
2020/01/31 07:01:17.0	91.890	0.150	-0.890	0.260
2020/01/31 07:01:17.1	91.860	0.140	-0.810	0.320
2020/01/31 07:01:17.2	91.830	0.120	-0.730	0.370
2020/01/31 07:01:17.3	91.790	0.100	-0.640	0.420
2020/01/31 07:01:17.4	91.760	0.080	-0.550	0.480
2020/01/31 07:01:17.5	91.720	0.060	-0.460	0.540
2020/01/31 07:01:17.6	91.690	0.030	-0.370	0.600
2020/01/31 07:01:17.7	91.650	0.010	-0.270	0.660
2020/01/31 07:01:17.8	91.610	-0.020	-0.180	0.710
2020/01/31 07:01:17.9	91.570	-0.040	-0.080	0.770
2020/01/31 07:01:18.0	91.530	-0.070	0.010	0.830
2020/01/31 07:01:18.1	91.490	-0.090	0.100	0.890
2020/01/31 07:01:18.2	91.470	-0.120	0.190	0.940
2020/01/31 07:01:18.3	91.430	-0.140	0.270	0.990
2020/01/31 07:01:18.4	91.390	-0.160	0.350	1.040
2020/01/31 07:01:18.5	91.360	-0.180	0.420	1.090
2020/01/31 07:01:18.6	91.330	-0.200	0.480	1.130
2020/01/31 07:01:18.7	91.300	-0.220	0.540	1.180
2020/01/31 07:01:18.8	91.270	-0.230	0.590	1.210
2020/01/31 07:01:18.9	91.240	-0.250	0.630	1.250
2020/01/31 07:01:19.0	91.220	-0.260	0.660	1.280
2020/01/31 07:01:19.1	91.200	-0.260	0.680	1.310
2020/01/31 07:01:19.2	91.190	-0.270	0.690	1.330
2020/01/31 07:01:19.3	91.170	-0.270	0.690	1.350
2020/01/31 07:01:19.4	91.160	-0.260	0.690	1.370
2020/01/31 07:01:19.5	91.150	-0.260	0.670	1.380
2020/01/31 07:01:19.6	91.140	-0.250	0.650	1.380
2020/01/31 07:01:19.7	91.140	-0.240	0.620	1.390
2020/01/31 07:01:19.8	91.140	-0.230	0.580	1.390
2020/01/31 07:01:19.9	91.140	-0.210	0.530	1.380
2020/01/31 07:01:20.0	91.150	-0.190	0.480	1.380
2020/01/31 07:01:20.1	91.160	-0.170	0.430	1.370
2020/01/31 07:01:20.2	91.170	-0.150	0.360	1.350
2020/01/31 07:01:20.3	91.190	-0.130	0.290	1.340
2020/01/31 07:01:20.4	91.200	-0.100	0.230	1.320
2020/01/31 07:01:20.5	91.220	-0.080	0.150	1.300
2020/01/31 07:01:20.6	91.240	-0.050	0.080	1.280
2020/01/31 07:01:20.7	91.270	-0.030	0.010	1.250
2020/01/31 07:01:20.8	91.290	-0.000	-0.060	1.230
2020/01/31 07:01:20.9	91.320	0.030	-0.130	1.200
2020/01/31 07:01:21.0	91.340	0.050	-0.200	1.170
2020/01/31 07:01:21.1	91.370	0.070	-0.260	1.140
2020/01/31 07:01:21.2	91.410	0.100	-0.330	1.120
2020/01/31 07:01:21.3	91.440	0.120	-0.380	1.090
2020/01/31 07:01:21.4	91.470	0.140	-0.430	1.050
2020/01/31 07:01:21.5	91.490	0.160	-0.480	1.020
2020/01/31 07:01:21.6	91.520	0.170	-0.520	0.990
2020/01/31 07:01:21.7	91.540	0.190	-0.550	0.960
2020/01/31 07:01:21.8	91.570	0.200	-0.570	0.920
2020/01/31 07:01:21.9	91.590	0.210	-0.590	0.890
2020/01/31 07:01:22.0	91.610	0.220	-0.610	0.860
2020/01/31 07:01:22.1	91.630	0.220	-0.610	0.830
2020/01/31 07:01:22.2	91.630	0.220	-0.610	0.800
2020/01/31 07:01:22.3	91.650	0.220	-0.610	0.770
2020/01/31 07:01:22.4	91.660	0.220	-0.600	0.750
2020/01/31 07:01:22.5	91.660	0.220	-0.580	0.720
2020/01/31 07:01:22.6	91.670	0.210	-0.560	0.700
2020/01/31 07:01:22.7	91.670	0.200	-0.530	0.680
2020/01/31 07:01:22.8	91.670	0.190	-0.500	0.660
2020/01/31 07:01:22.9	91.660	0.180	-0.460	0.640
2020/01/31 07:01:23.0	91.660	0.160	-0.420	0.620
2020/01/31 07:01:23.1	91.640	0.150	-0.380	0.610
2020/01/31 07:01:23.2	91.630	0.130	-0.330	0.600
2020/01/31 07:01:23.3	91.610	0.120	-0.280	0.590
2020/01/31 07:01:23.4	91.590	0.100	-0.230	0.580
2020/01/31 07:01:23.5	91.570	0.080	-0.190	0.570
2020/01/31 07:01:23.6	91.550	0.060	-0.140	0.570
2020/01/31 07:01:23.7	91.520	0.040	-0.090	0.570
2020/01/31 07:01:23.8	91.500	0.020	-0.040	0.560
2020/01/31 07:01:23.9	91.470	0.000	0.010	0.560
2020/01/31 07:01:24.0	91.440	-0.020	0.050	0.570
2020/01/31 07:01:24.1	91.410	-0.030	0.090	0.570
2020/01/31 07:01:24.2	91.380	-0.050	0.130	0.570
2020/01/31 07:01:24.3	91.350	-0.070	0.170	0.580
2020/01/31 07:01:24.4	91.320	-0.080	0.200	0.590
2020/01/31 07:01:24.5	91.280	-0.090	0.220	0.590
2020/01/31 07:01:24.6	91.250	-0.100	0.240	0.600
2020/01/31 07:01:24.7	91.220	-0.110	0.260	0.610
2020/01/31 07:01:24.8	91.190	-0.120	0.270	0.620
2020/01/31 07:01:24.9	91.160	-0.120	0.280	0.640
2020/01/31 07:01:25.0	91.140	-0.130	0.280	0.650
2020/01/31 07:01:25.1	91.110	-0.130	0.270	0.660
2020/01/31 07:01:25.2	91.090	-0.120	0.260	0.670
2020/01/31 07:01:25.3	91.060	-0.120	0.240	0.680
2020/01/31 07:01:25.4	91.040	-0.110	0.220	0.690
2020/01/31 07:01:25.5	91.030	-0.100	0.190	0.700
2020/01/31 07:01:25.6	91.010	-0.090	0.160	0.710
2020/01/31 07:01:25.7	91.000	-0.080	0.120	0.720
2020/01/31 07:01:25.8	90.990	-0.060	0.080	0.730
2020/01/31 07:01:25.9	90.980	-0.050	0.030	0.740
2020/01/31 07:01:26.0	90.970	-0.030	-0.020	0.750
2020/01/31 07:01:26.1	90.960	-0.010	-0.070	0.750
2020/01/31 07:01:26.2	90.950	0.010	-0.120	0.760
2020/01/31 07:01:26.3	90.950	0.030	-0.170	0.760
2020/01/31 07:01:26.4	90.940	0.050	-0.220	0.770
2020/01/31 07:01:26.5	90.940	0.070	-0.280	0.770
2020/01/31 07:01:26.6	90.940	0.090	-0.320	0.770
2020/01/31 07:01:26.7	90.940	0.110	-0.370	0.780
2020/01/31 07:01:26.8	90.950	0.120	-0.410	0.780
2020/01/31 07:01:26.9	90.950	0.140	-0.450	0.780
2020/01/31 07:01:27.0	90.950	0.150	-0.490	0.780
2020/01/31 07:01:27.1	90.950	0.170	-0.520	0.770
2020/01/31 07:01:27.2	90.960	0.180	-0.550	0.770
2020/01/31 07:01:27.3	90.970	0.180	-0.570	0.770
2020/01/31 07:01:27.4	90.970	0.190	-0.580	0.760
2020/01/31 07:01:27.5	90.970	0.190	-0.590	0.750
2020/01/31 07:01:27.6	90.980	0.190	-0.600	0.750
2020/01/31 07:01:27.7	90.980	0.180	-0.590	0.740
2020/01/31 07:01:27.8	90.980	0.180	-0.580	0.720
2020/01/31 07:01:27.9	90.980	0.170	-0.570	0.710
2020/01/31 07:01:28.0	90.980	0.160	-0.550	0.700
2020/01/31 07:01:28.1	90.990	0.140	-0.530	0.680
2020/01/31 07:01:28.2	90.990	0.120	-0.490	0.660
2020/01/31 07:01:28.3	90.990	0.110	-0.460	0.640
2020/01/31 07:01:28.4	90.990	0.080	-0.430	0.620
2020/01/31 07:01:28.5	90.990	0.060	-0.390	0.600
2020/01/31 07:01:28.6	90.990	0.040	-0.340	0.580
2020/01/31 07:01:28.7	90.990	0.010	-0.300	0.560
2020/01/31 07:01:28.8	90.980	-0.020	-0.260	0.540
2020/01/31 07:01:28.9	90.980	-0.050	-0.210	0.520
2020/01/31 07:01:29.0	90.980	-0.070	-0.170	0.500
2020/01/31 07:01:29.1	90.980	-0.100	-0.130	0.480
2020/01/31 07:01:29.2	90.970	-0.130	-0.090	0.470
2020/01/31 07:01:29.3	90.970	-0.160	-0.050	0.450
2020/01/31 07:01:29.4	90.970	-0.180	-0.020	0.430
2020/01/31 07:01:29.5	90.970	-0.210	0.020	0.410
2020/01/31 07:01:29.6	90.960	-0.230	0.040	0.400
2020/01/31 07:01:29.7	90.960	-0.250	0.070	0.380
2020/01/31 07:01:29.8	90.960	-0.270	0.090	0.370
2020/01/31 07:01:29.9	90.960	-0.280	0.100	0.360
2020/01/31 07:01:30.0	90.960	-0.290	0.110	0.350
2020/01/31 07:01:30.1	90.960	-0.300	0.110	0.340
2020/01/31 07:01:30.2	90.960	-0.310	0.120	0.330
2020/01/31 07:01:30.3	90.960	-0.310	0.110	0.330
2020/01/31 07:01:30.4	90.960	-0.310	0.110	0.330
2020/01/31 07:01:30.5	90.970	-0.310	0.090	0.330
2020/01/31 07:01:30.6	90.970	-0.310	0.080	0.330
2020/01/31 07:01:30.7	90.970	-0.300	0.060	0.340
2020/01/31 07:01:30.8	90.970	-0.290	0.040	0.350
2020/01/31 07:01:30.9	90.980	-0.270	0.020	0.360
2020/01/31 07:01:31.0	90.980	-0.260	-0.000	0.370
2020/01/31 07:01:31.1	90.980	-0.240	-0.030	0.380
2020/01/31 07:01:31.2	90.980	-0.220	-0.050	0.400
2020/01/31 07:01:31.3	90.990	-0.200	-0.080	0.420
2020/01/31 07:01:31.4	90.990	-0.170	-0.100	0.440
2020/01/31 07:01:31.5	90.990	-0.150	-0.130	0.460
2020/01/31 07:01:31.6	90.990	-0.120	-0.150	0.480
2020/01/31 07:01:31.7	90.990	-0.100	-0.170	0.500
2020/01/31 07:01:31.8	90.990	-0.070	-0.190	0.520
2020/01/31 07:01:31.9	90.990	-0.050	-0.210	0.540
2020/01/31 07:01:32.0	90.990	-0.020	-0.230	0.560
2020/01/31 07:01:32.1	90.990	0.000	-0.250	0.580
2020/01/31 07:01:32.2	91.000	0.020	-0.260	0.600
2020/01/31 07:01:32.3	91.000	0.050	-0.270	0.620
2020/01/31 07:01:32.4	91.000	0.070	-0.280	0.640
2020/01/31 07:01:32.5	91.000	0.090	-0.280	0.660
2020/01/31 07:01:32.6	90.990	0.100	-0.290	0.680
2020/01/31 07:01:32.7	90.990	0.120	-0.290	0.690
2020/01/31 07:01:32.8	90.990	0.140	-0.290	0.710
2020/01/31 07:01:32.9	90.980	0.150	-0.280	0.720
2020/01/31 07:01:33.0	90.970	0.160	-0.280	0.740
2020/01/31 07:01:33.1	90.970	0.170	-0.270	0.750
2020/01/31 07:01:33.2	90.960	0.170	-0.260	0.770
2020/01/31 07:01:33.3	90.950	0.180	-0.250	0.780
2020/01/31 07:01:33.4	90.940	0.180	-0.240	0.790
2020/01/31 07:01:33.5	90.930	0.180	-0.220	0.800
2020/01/31 07:01:33.6	90.920	0.180	-0.210	0.810
2020/01/31 07:01:33.7	90.910	0.180	-0.190	0.830
2020/01/31 07:01:33.8	90.900	0.180	-0.170	0.840
2020/01/31 07:01:33.9	90.880	0.180	-0.160	0.850
2020/01/31 07:01:34.0	90.870	0.170	-0.140	0.860
2020/01/31 07:01:34.1	90.860	0.160	-0.120	0.860
2020/01/31 07:01:34.2	90.840	0.160	-0.100	0.870
2020/01/31 07:01:34.3	90.830	0.150	-0.080	0.880
2020/01/31 07:01:34.4	90.810	0.140	-0.060	0.890
2020/01/31 07:01:34.5	90.800	0.140	-0.050	0.890
2020/01/31 07:01:34.6	90.790	0.130	-0.030	0.900
2020/01/31 07:01:34.7	90.770	0.120	-0.020	0.900
2020/01/31 07:01:34.8	90.760	0.110	-0.000	0.910
2020/01/31 07:01:34.9	90.740	0.110	0.010	0.910
2020/01/31 07:01:35.0	90.730	0.100	0.020	0.910
2020/01/31 07:01:35.1	90.710	0.090	0.030	0.920
2020/01/31 07:01:35.2	90.700	0.090	0.030	0.920
2020/01/31 07:01:35.3	90.680	0.080	0.030	0.920
2020/01/31 07:01:35.4	90.670	0.080	0.040	0.920
2020/01/31 07:01:35.5	90.660	0.070	0.030	0.930
2020/01/31 07:01:35.6	90.640	0.070	0.030	0.930
2020/01/31 07:01:35.7	90.630	0.070	0.020	0.930
2020/01/31 07:01:35.8	90.620	0.070	0.010	0.930
2020/01/31 07:01:35.9	90.610	0.070	-0.010	0.920
2020/01/31 07:01:36.0	90.600	0.070	-0.020	0.920
2020/01/31 07:01:36.1	90.590	0.070	-0.040	0.920
2020/01/31 07:01:36.2	90.590	0.070	-0.060	0.920
2020/01/31 07:01:36.3	90.580	0.070	-0.090	0.920
2020/01/31 07:01:36.4	90.570	0.070	-0.110	0.910
2020/01/31 07:01:36.5	90.570	0.080	-0.140	0.910
2020/01/31 07:01:36.6	90.570	0.080	-0.160	0.900
2020/01/31 07:01:36.7	90.570	0.080	-0.190	0.900
2020/01/31 07:01:36.8	90.570	0.090	-0.220	0.890
2020/01/31 07:01:36.9	90.570	0.090	-0.250	0.880
2020/01/31 07:01:37.0	90.580	0.090	-0.280	0.880
2020/01/31 07:01:37.1	90.580	0.100	-0.310	0.870
2020/01/31 07:01:37.2	90.600	0.100	-0.330	0.860
2020/01/31 07:01:37.3	90.610	0.100	-0.360	0.850
2020/01/31 07:01:37.4	90.620	0.110	-0.380	0.840
2020/01/31 07:01:37.5	90.630	0.110	-0.410	0.830
2020/01/31 07:01:37.6	90.650	0.110	-0.430	0.820
2020/01/31 07:01:37.7	90.660	0.110	-0.440	0.800
2020/01/31 07:01:37.8	90.680	0.110	-0.460	0.790
2020/01/31 07:01:37.9	90.700	0.110	-0.470	0.780
2020/01/31 07:01:38.0	90.720	0.110	-0.480	0.770
2020/01/31 07:01:38.1	90.740	0.110	-0.480	0.760
2020/01/31 07:01:38.2	90.770	0.100	-0.490	0.740
2020/01/31 07:01:38.3	90.790	0.090	-0.480	0.730
2020/01/31 07:01:38.4	90.810	0.090	-0.480	0.720
2020/01/31 07:01:38.5	90.820	0.080	-0.470	0.720
2020/01/31 07:01:38.6	90.840	0.070	-0.460	0.710
2020/01/31 07:01:38.7	90.860	0.060	-0.440	0.710
2020/01/31 07:01:38.8	90.870	0.050	-0.430	0.700
2020/01/31 07:01:38.9	90.880	0.030	-0.400	0.700
2020/01/31 07:01:39.0	90.890	0.020	-0.380	0.710
2020/01/31 07:01:39.1	90.890	0.000	-0.350	0.710
2020/01/31 07:01:39.2	90.890	-0.020	-0.310	0.720
2020/01/31 07:01:39.3	90.890	-0.040	-0.280	0.730
2020/01/31 07:01:39.4	90.890	-0.050	-0.240	0.750
2020/01/31 07:01:39.5	90.880	-0.070	-0.200	0.760
2020/01/31 07:01:39.6	90.880	-0.090	-0.160	0.780
2020/01/31 07:01:39.7	90.870	-0.120	-0.110	0.800
2020/01/31 07:01:39.8	90.860	-0.140	-0.060	0.830
2020/01/31 07:01:39.9	90.850	-0.160	-0.020	0.850
2020/01/31 07:01:40.0	90.830	-0.180	0.030	0.880
2020/01/31 07:01:40.1	90.820	-0.200	0.080	0.910
2020/01/31 07:01:40.2	90.790	-0.220	0.130	0.940
2020/01/31 07:01:40.3	90.780	-0.240	0.170	0.980
2020/01/31 07:01:40.4	90.760	-0.260	0.220	1.010
2020/01/31 07:01:40.5	90.740	-0.280	0.260	1.050
2020/01/31 07:01:40.6	90.730	-0.290	0.300	1.080
2020/01/31 07:01:40.7	90.710	-0.310	0.340	1.120
2020/01/31 07:01:40.8	90.690	-0.320	0.370	1.150
2020/01/31 07:01:40.9	90.680	-0.330	0.400	1.190
2020/01/31 07:01:41.0	90.660	-0.340	0.430	1.220
2020/01/31 07:01:41.1	90.640	-0.350	0.450	1.250
2020/01/31 07:01:41.2	90.630	-0.360	0.470	1.280
2020/01/31 07:01:41.3	90.620	-0.360	0.480	1.310
2020/01/31 07:01:41.4	90.600	-0.360	0.480	1.340
2020/01/31 07:01:41.5	90.590	-0.350	0.480	1.360
2020/01/31 07:01:41.6	90.580	-0.350	0.480	1.380
2020/01/31 07:01:41.7	90.570	-0.340	0.470	1.400
2020/01/31 07:01:41.8	90.560	-0.330	0.450	1.410
2020/01/31 07:01:41.9	90.550	-0.310	0.420	1.420
2020/01/31 07:01:42.0	90.540	-0.290	0.390	1.430
2020/01/31 07:01:42.1	90.540	-0.270	0.360	1.440
2020/01/31 07:01:42.2	90.530	-0.250	0.320	1.440
2020/01/31 07:01:42.3	90.520	-0.220	0.270	1.440
2020/01/31 07:01:42.4	90.520	-0.190	0.220	1.440
2020/01/31 07:01:42.5	90.510	-0.160	0.170	1.430
2020/01/31 07:01:42.6	90.510	-0.130	0.110	1.420
2020/01/31 07:01:42.7	90.510	-0.100	0.050	1.410
2020/01/31 07:01:42.8	90.510	-0.060	-0.020	1.400
2020/01/31 07:01:42.9	90.510	-0.020	-0.080	1.390
2020/01/31 07:01:43.0	90.500	0.020	-0.150	1.370
2020/01/31 07:01:43.1	90.500	0.060	-0.220	1.350
2020/01/31 07:01:43.2	90.510	0.100	-0.290	1.330
2020/01/31 07:01:43.3	90.510	0.140	-0.350	1.310
2020/01/31 07:01:43.4	90.510	0.170	-0.420	1.290
2020/01/31 07:01:43.5	90.510	0.210	-0.490	1.270
2020/01/31 07:01:43.6	90.510	0.250	-0.550	1.250
2020/01/31 07:01:43.7	90.510	0.290	-0.620	1.230
2020/01/31 07:01:43.8	90.510	0.320	-0.680	1.210
2020/01/31 07:01:43.9	90.510	0.350	-0.730	1.180
2020/01/31 07:01:44.0	90.510	0.380	-0.780	1.160
2020/01/31 07:01:44.1	90.510	0.410	-0.830	1.140
2020/01/31 07:01:44.2	90.510	0.440	-0.880	1.110
2020/01/31 07:01:44.3	90.520	0.460	-0.910	1.090
2020/01/31 07:01:44.4	90.520	0.480	-0.940	1.070
2020/01/31 07:01:44.5	90.520	0.500	-0.970	1.050
2020/01/31 07:01:44.6	90.520	0.510	-0.990	1.020
2020/01/31 07:01:44.7	90.520	0.520	-1.000	1.000
2020/01/31 07:01:44.8	90.520	0.530	-1.000	0.980
2020/01/31 07:01:44.9	90.520	0.530	-1.000	0.960
2020/01/31 07:01:45.0	90.520	0.540	-0.990	0.940
2020/01/31 07:01:45.1	90.520	0.530	-0.980	0.920
2020/01/31 07:01:45.2	90.530	0.530	-0.950	0.900
2020/01/31 07:01:45.3	90.530	0.520	-0.920	0.880
2020/01/31 07:01:45.4	90.520	0.510	-0.890	0.860
2020/01/31 07:01:45.5	90.520	0.490	-0.850	0.850
2020/01/31 07:01:45.6	90.520	0.480	-0.800	0.830
2020/01/31 07:01:45.7	90.510	0.460	-0.750	0.820
2020/01/31 07:01:45.8	90.510	0.440	-0.690	0.810
2020/01/31 07:01:45.9	90.500	0.410	-0.630	0.800
2020/01/31 07:01:46.0	90.500	0.390	-0.560	0.790
2020/01/31 07:01:46.1	90.490	0.360	-0.490	0.780
2020/01/31 07:01:46.2	90.470	0.330	-0.420	0.780
2020/01/31 07:01:46.3	90.460	0.300	-0.340	0.770
2020/01/31 07:01:46.4	90.450	0.260	-0.270	0.770
2020/01/31 07:01:46.5	90.430	0.230	-0.190	0.770
2020/01/31 07:01:46.6	90.420	0.190	-0.110	0.770
2020/01/31 07:01:46.7	90.400	0.160	-0.030	0.780
2020/01/31 07:01:46.8	90.390	0.120	0.040	0.780
2020/01/31 07:01:46.9	90.370	0.090	0.120	0.790
2020/01/31 07:01:47.0	90.350	0.050	0.190	0.790
2020/01/31 07:01:47.1	90.340	0.010	0.260	0.800
2020/01/31 07:01:47.2	90.300	-0.020	0.320	0.810
2020/01/31 07:01:47.3	90.290	-0.060	0.380	0.820
2020/01/31 07:01:47.4	90.270	-0.090	0.440	0.830
2020/01/31 07:01:47.5	90.250	-0.130	0.490	0.830
2020/01/31 07:01:47.6	90.240	-0.160	0.540	0.840
2020/01/31 07:01:47.7	90.220	-0.190	0.580	0.850
2020/01/31 07:01:47.8	90.210	-0.220	0.610	0.860
2020/01/31 07:01:47.9	90.200	-0.250	0.640	0.860
2020/01/31 07:01:48.0	90.180	-0.270	0.660	0.870
2020/01/31 07:01:48.1	90.170	-0.300	0.680	0.870
2020/01/31 07:01:48.2	90.170	-0.320	0.690	0.880
2020/01/31 07:01:48.3	90.170	-0.340	0.690	0.880
2020/01/31 07:01:48.4	90.160	-0.350	0.690	0.880
2020/01/31 07:01:48.5	90.160	-0.370	0.680	0.880
2020/01/31 07:01:48.6	90.160	-0.380	0.660	0.880
2020/01/31 07:01:48.7	90.160	-0.390	0.640	0.880
2020/01/31 07:01:48.8	90.160	-0.390	0.610	0.880
2020/01/31 07:01:48.9	90.160	-0.400	0.580	0.870
2020/01/31 07:01:49.0	90.170	-0.400	0.540	0.870
2020/01/31 07:01:49.1	90.170	-0.400	0.500	0.870
2020/01/31 07:01:49.2	90.190	-0.390	0.450	0.860
2020/01/31 07:01:49.3	90.200	-0.390	0.390	0.860
2020/01/31 07:01:49.4	90.210	-0.380	0.340	0.860
2020/01/31 07:01:49.5	90.220	-0.370	0.280	0.850
2020/01/31 07:01:49.6	90.230	-0.360	0.220	0.850
2020/01/31 07:01:49.7	90.250	-0.350	0.150	0.840
2020/01/31 07:01:49.8	90.260	-0.330	0.080	0.840
2020/01/31 07:01:49.9	90.280	-0.320	0.020	0.840
2020/01/31 07:01:50.0	90.300	-0.300	-0.050	0.840
2020/01/31 07:01:50.1	90.310	-0.280	-0.120	0.830
2020/01/31 07:01:50.2	90.330	-0.260	-0.190	0.830
2020/01/31 07:01:50.3	90.340	-0.240	-0.250	0.830
2020/01/31 07:01:50.4	90.360	-0.220	-0.320	0.820
2020/01/31 07:01:50.5	90.380	-0.210	-0.380	0.820
2020/01/31 07:01:50.6	90.400	-0.190	-0.440	0.820
2020/01/31 07:01:50.7	90.410	-0.170	-0.500	0.810
2020/01/31 07:01:50.8	90.430	-0.150	-0.550	0.810
2020/01/31 07:01:50.9	90.450	-0.130	-0.600	0.800
2020/01/31 07:01:51.0	90.460	-0.120	-0.650	0.790
2020/01/31 07:01:51.1	90.480	-0.100	-0.690	0.790
2020/01/31 07:01:51.2	90.500	-0.090	-0.730	0.780
2020/01/31 07:01:51.3	90.510	-0.070	-0.760	0.780
2020/01/31 07:01:51.4	90.530	-0.060	-0.790	0.770
2020/01/31 07:01:51.5	90.540	-0.050	-0.810	0.760
2020/01/31 07:01:51.6	90.550	-0.040	-0.820	0.760
2020/01/31 07:01:51.7	90.560	-0.030	-0.830	0.750
2020/01/31 07:01:51.8	90.560	-0.020	-0.830	0.750
2020/01/31 07:01:51.9	90.570	-0.010	-0.820	0.740
2020/01/31 07:01:52.0	90.570	-0.010	-0.810	0.740
2020/01/31 07:01:52.1	90.570	-0.010	-0.800	0.740
2020/01/31 07:01:52.2	90.570	-0.000	-0.780	0.740
2020/01/31 07:01:52.3	90.570	0.000	-0.750	0.740
2020/01/31 07:01:52.4	90.570	0.000	-0.720	0.750
2020/01/31 07:01:52.5	90.560	0.000	-0.680	0.760
2020/01/31 07:01:52.6	90.550	0.000	-0.640	0.760
2020/01/31 07:01:52.7	90.540	0.000	-0.590	0.770
2020/01/31 07:01:52.8	90.530	0.000	-0.550	0.790
2020/01/31 07:01:52.9	90.520	0.000	-0.500	0.800
2020/01/31 07:01:53.0	90.500	-0.000	-0.440	0.820
2020/01/31 07:01:53.1	90.490	-0.000	-0.390	0.840
2020/01/31 07:01:53.2	90.470	-0.000	-0.330	0.860
2020/01/31 07:01:53.3	90.450	-0.000	-0.280	0.880
2020/01/31 07:01:53.4	90.430	-0.000	-0.230	0.900
2020/01/31 07:01:53.5	90.410	-0.000	-0.180	0.920
2020/01/31 07:01:53.6	90.400	-0.000	-0.130	0.950
2020/01/31 07:01:53.7	90.380	-0.000	-0.080	0.970
2020/01/31 07:01:53.8	90.360	0.000	-0.040	1.000
2020/01/31 07:01:53.9	90.340	0.000	0.000	1.030
2020/01/31 07:01:54.0	90.320	0.010	0.040	1.050
2020/01/31 07:01:54.1	90.300	0.010	0.070	1.080
2020/01/31 07:01:54.2	90.280	0.020	0.100	1.110
2020/01/31 07:01:54.3	90.270	0.020	0.120	1.140
2020/01/31 07:01:54.4	90.250	0.030	0.140	1.170
2020/01/31 07:01:54.5	90.230	0.040	0.160	1.190
2020/01/31 07:01:54.6	90.220	0.050	0.160	1.220
2020/01/31 07:01:54.7	90.210	0.050	0.170	1.250
2020/01/31 07:01:54.8	90.190	0.060	0.170	1.270
2020/01/31 07:01:54.9	90.180	0.070	0.160	1.300
2020/01/31 07:01:55.0	90.170	0.080	0.150	1.320
2020/01/31 07:01:55.1	90.170	0.090	0.140	1.340
2020/01/31 07:01:55.2	90.150	0.100	0.120	1.360
2020/01/31 07:01:55.3	90.150	0.110	0.100	1.370
2020/01/31 07:01:55.4	90.150	0.120	0.080	1.380
2020/01/31 07:01:55.5	90.150	0.130	0.050	1.390
2020/01/31 07:01:55.6	90.150	0.140	0.020	1.390
2020/01/31 07:01:55.7	90.150	0.150	-0.000	1.380
2020/01/31 07:01:55.8	90.150	0.160	-0.030	1.380
2020/01/31 07:01:55.9	90.160	0.160	-0.060	1.360
2020/01/31 07:01:56.0	90.170	0.170	-0.090	1.340
2020/01/31 07:01:56.1	90.180	0.170	-0.120	1.320
2020/01/31 07:01:56.2	90.200	0.180	-0.150	1.290
2020/01/31 07:01:56.3	90.210	0.180	-0.180	1.260
2020/01/31 07:01:56.4	90.230	0.180	-0.210	1.220
2020/01/31 07:01:56.5	90.250	0.180	-0.230	1.180
2020/01/31 07:01:56.6	90.270	0.180	-0.250	1.130
2020/01/31 07:01:56.7	90.290	0.180	-0.270	1.080
2020/01/31 07:01:56.8	90.310	0.180	-0.290	1.030
2020/01/31 07:01:56.9	90.330	0.170	-0.300	0.980
2020/01/31 07:01:57.0	90.350	0.170	-0.310	0.920
2020/01/31 07:01:57.1	90.380	0.160	-0.320	0.870
2020/01/31 07:01:57.2	90.400	0.150	-0.320	0.810
2020/01/31 07:01:57.3	90.420	0.140	-0.320	0.750
2020/01/31 07:01:57.4	90.440	0.140	-0.320	0.690
2020/01/31 07:01:57.5	90.460	0.130	-0.310	0.640
2020/01/31 07:01:57.6	90.490	0.120	-0.300	0.580
2020/01/31 07:01:57.7	90.510	0.110	-0.280	0.530
2020/01/31 07:01:57.8	90.530	0.090	-0.260	0.480
2020/01/31 07:01:57.9	90.540	0.080	-0.240	0.430
2020/01/31 07:01:58.0	90.560	0.070	-0.220	0.380
2020/01/31 07:01:58.1	90.580	0.060	-0.190	0.340
2020/01/31 07:01:58.2	90.590	0.050	-0.170	0.300
2020/01/31 07:01:58.3	90.600	0.040	-0.140	0.260
2020/01/31 07:01:58.4	90.610	0.020	-0.100	0.230
2020/01/31 07:01:58.5	90.620	0.010	-0.070	0.200
2020/01/31 07:01:58.6	90.630	0.000	-0.040	0.180
2020/01/31 07:01:58.7	90.640	-0.010	-0.010	0.160
2020/01/31 07:01:58.8	90.650	-0.020	0.030	0.140
2020/01/31 07:01:58.9	90.650	-0.030	0.060	0.130
2020/01/31 07:01:59.0	90.660	-0.040	0.090	0.120
2020/01/31 07:01:59.1	90.660	-0.050	0.120	0.120
2020/01/31 07:01:59.2	90.660	-0.060	0.150	0.120
2020/01/31 07:01:59.3	90.660	-0.060	0.170	0.120
2020/01/31 07:01:59.4	90.660	-0.070	0.190	0.120
2020/01/31 07:01:59.5	90.670	-0.080	0.210	0.130
2020/01/31 07:01:59.6	90.670	-0.080	0.230	0.140
2020/01/31 07:01:59.7	90.670	-0.080	0.240	0.150
2020/01/31 07:01:59.8	90.670	-0.090	0.250	0.160
2020/01/31 07:01:59.9	90.670	-0.090	0.250	0.180
2020/01/31 07:02:00.0	90.670	-0.090	0.250	0.200
2020/01/31 07:02:00.1	90.670	-0.090	0.240	0.210
2020/01/31 07:02:00.2	90.660	-0.080	0.230	0.230
2020/01/31 07:02:00.3	90.670	-0.080	0.210	0.250
2020/01/31 07:02:00.4	90.670	-0.080	0.190	0.270
2020/01/31 07:02:00.5	90.670	-0.070	0.170	0.290
2020/01/31 07:02:00.6	90.670	-0.070	0.140	0.310
2020/01/31 07:02:00.7	90.680	-0.060	0.110	0.330
2020/01/31 07:02:00.8	90.680	-0.060	0.080	0.360
2020/01/31 07:02:00.9	90.690	-0.050	0.040	0.380
2020/01/31 07:02:01.0	90.690	-0.040	-0.000	0.400
2020/01/31 07:02:01.1	90.690	-0.030	-0.040	0.420
2020/01/31 07:02:01.2	90.710	-0.020	-0.080	0.450
2020/01/31 07:02:01.3	90.710	-0.010	-0.120	0.470
2020/01/31 07:02:01.4	90.720	-0.010	-0.170	0.490
2020/01/31 07:02:01.5	90.720	0.000	-0.210	0.510
2020/01/31 07:02:01.6	90.720	0.010	-0.260	0.540
2020/01/31 07:02:01.7	90.730	0.020	-0.300	0.560
2020/01/31 07:02:01.8	90.730	0.030	-0.340	0.580
2020/01/31 07:02:01.9	90.730	0.040	-0.370	0.600
2020/01/31 07:02:02.0	90.730	0.050	-0.410	0.630
2020/01/31 07:02:02.1	90.740	0.060	-0.440	0.650
2020/01/31 07:02:02.2	90.730	0.060	-0.470	0.670
2020/01/31 07:02:02.3	90.730	0.070	-0.490	0.700
2020/01/31 07:02:02.4	90.730	0.080	-0.510	0.720
2020/01/31 07:02:02.5	90.730	0.080	-0.530	0.750
2020/01/31 07:02:02.6	90.730	0.090	-0.540	0.780
2020/01/31 07:02:02.7	90.720	0.090	-0.540	0.800
2020/01/31 07:02:02.8	90.720	0.100	-0.540	0.830
2020/01/31 07:02:02.9	90.720	0.100	-0.540	0.860
2020/01/31 07:02:03.0	90.710	0.100	-0.530	0.890
2020/01/31 07:02:03.1	90.710	0.100	-0.520	0.920
2020/01/31 07:02:03.2	90.710	0.100	-0.510	0.940
2020/01/31 07:02:03.3	90.710	0.090	-0.490	0.970
2020/01/31 07:02:03.4	90.700	0.090	-0.460	1.000
2020/01/31 07:02:03.5	90.700	0.090	-0.440	1.030
2020/01/31 07:02:03.6	90.700	0.080	-0.410	1.050
2020/01/31 07:02:03.7	90.690	0.080	-0.380	1.080
2020/01/31 07:02:03.8	90.690	0.070	-0.350	1.110
2020/01/31 07:02:03.9	90.690	0.060	-0.310	1.130
2020/01/31 07:02:04.0	90.690	0.050	-0.280	1.160
2020/01/31 07:02:04.1	90.680	0.040	-0.240	1.180
2020/01/31 07:02:04.2	90.690	0.030	-0.210	1.200
2020/01/31 07:02:04.3	90.690	0.020	-0.180	1.230
2020/01/31 07:02:04.4	90.690	0.010	-0.140	1.250
2020/01/31 07:02:04.5	90.690	-0.010	-0.110	1.270
2020/01/31 07:02:04.6	90.690	-0.020	-0.080	1.290
2020/01/31 07:02:04.7	90.700	-0.030	-0.050	1.320
2020/01/31 07:02:04.8	90.700	-0.040	-0.030	1.340
2020/01/31 07:02:04.9	90.700	-0.060	-0.010	1.360
2020/01/31 07:02:05.0	90.710	-0.070	0.010	1.370
2020/01/31 07:02:05.1	90.710	-0.080	0.020	1.390
2020/01/31 07:02:05.2	90.730	-0.090	0.030	1.410
2020/01/31 07:02:05.3	90.740	-0.100	0.030	1.430
2020/01/31 07:02:05.4	90.750	-0.110	0.040	1.440
2020/01/31 07:02:05.5	90.760	-0.120	0.030	1.460
2020/01/31 07:02:05.6	90.770	-0.130	0.020	1.470
2020/01/31 07:02:05.7	90.770	-0.140	0.010	1.490
2020/01/31 07:02:05.8	90.780	-0.150	-0.000	1.500
2020/01/31 07:02:05.9	90.790	-0.150	-0.020	1.510
2020/01/31 07:02:06.0	90.800	-0.160	-0.040	1.520
2020/01/31 07:02:06.1	90.810	-0.160	-0.070	1.520
2020/01/31 07:02:06.2	90.830	-0.170	-0.100	1.530
2020/01/31 07:02:06.3	90.840	-0.170	-0.130	1.530
2020/01/31 07:02:06.4	90.850	-0.170	-0.160	1.540
2020/01/31 07:02:06.5	90.860	-0.170	-0.200	1.540
2020/01/31 07:02:06.6	90.870	-0.170	-0.230	1.530
2020/01/31 07:02:06.7	90.880	-0.170	-0.260	1.530
2020/01/31 07:02:06.8	90.890	-0.170	-0.300	1.520
2020/01/31 07:02:06.9	90.900	-0.170	-0.330	1.520
2020/01/31 07:02:07.0	90.900	-0.160	-0.360	1.510
2020/01/31 07:02:07.1	90.910	-0.160	-0.390	1.500
2020/01/31 07:02:07.2	90.920	-0.160	-0.420	1.480
2020/01/31 07:02:07.3	90.920	-0.160	-0.450	1.470
2020/01/31 07:02:07.4	90.930	-0.150	-0.470	1.460
2020/01/31 07:02:07.5	90.930	-0.150	-0.490	1.440
2020/01/31 07:02:07.6	90.940	-0.150	-0.500	1.430
2020/01/31 07:02:07.7	90.950	-0.140	-0.510	1.410
2020/01/31 07:02:07.8	90.950	-0.140	-0.510	1.400
2020/01/31 07:02:07.9	90.950	-0.140	-0.510	1.390
2020/01/31 07:02:08.0	90.960	-0.130	-0.510	1.370
2020/01/31 07:02:08.1	90.960	-0.130	-0.500	1.360
2020/01/31 07:02:08.2	90.960	-0.130	-0.480	1.350
2020/01/31 07:02:08.3	90.970	-0.130	-0.460	1.340
2020/01/31 07:02:08.4	90.970	-0.130	-0.440	1.330
2020/01/31 07:02:08.5	90.970	-0.130	-0.410	1.320
2020/01/31 07:02:08.6	90.980	-0.140	-0.370	1.310
2020/01/31 07:02:08.7	90.980	-0.140	-0.340	1.300
2020/01/31 07:02:08.8	90.990	-0.140	-0.300	1.290
2020/01/31 07:02:08.9	90.990	-0.140	-0.260	1.280
2020/01/31 07:02:09.0	91.000	-0.150	-0.210	1.270
2020/01/31 07:02:09.1	91.010	-0.150	-0.170	1.260
2020/01/31 07:02:09.2	91.010	-0.160	-0.120	1.250
2020/01/31 07:02:09.3	91.010	-0.160	-0.070	1.240
2020/01/31 07:02:09.4	91.020	-0.170	-0.020	1.230
2020/01/31 07:02:09.5	91.030	-0.170	0.020	1.220
2020/01/31 07:02:09.6	91.040	-0.170	0.070	1.200
2020/01/31 07:02:09.7	91.050	-0.180	0.120	1.190
2020/01/31 07:02:09.8	91.070	-0.180	0.160	1.170
2020/01/31 07:02:09.9	91.080	-0.180	0.200	1.160
2020/01/31 07:02:10.0	91.090	-0.180	0.240	1.140
2020/01/31 07:02:10.1	91.110	-0.180	0.280	1.120
2020/01/31 07:02:10.2	91.110	-0.180	0.310	1.090
2020/01/31 07:02:10.3	91.130	-0.180	0.340	1.070
2020/01/31 07:02:10.4	91.140	-0.180	0.360	1.040
2020/01/31 07:02:10.5	91.160	-0.170	0.380	1.010
2020/01/31 07:02:10.6	91.170	-0.170	0.390	0.980
2020/01/31 07:02:10.7	91.190	-0.160	0.400	0.940
2020/01/31 07:02:10.8	91.210	-0.150	0.400	0.900
2020/01/31 07:02:10.9	91.220	-0.140	0.400	0.860
2020/01/31 07:02:11.0	91.240	-0.120	0.390	0.820
2020/01/31 07:02:11.1	91.250	-0.110	0.380	0.780
2020/01/31 07:02:11.2	91.270	-0.090	0.370	0.740
2020/01/31 07:02:11.3	91.290	-0.080	0.350	0.690
2020/01/31 07:02:11.4	91.300	-0.060	0.320	0.650
2020/01/31 07:02:11.5	91.320	-0.040	0.290	0.600
2020/01/31 07:02:11.6	91.330	-0.020	0.260	0.550
2020/01/31 07:02:11.7	91.340	0.000	0.230	0.510
2020/01/31 07:02:11.8	91.350	0.030	0.190	0.460
2020/01/31 07:02:11.9	91.360	0.050	0.150	0.420
2020/01/31 07:02:12.0	91.370	0.070	0.110	0.370
2020/01/31 07:02:12.1	91.380	0.090	0.070	0.330
2020/01/31 07:02:12.2	91.380	0.120	0.030	0.290
2020/01/31 07:02:12.3	91.390	0.140	-0.010	0.250
2020/01/31 07:02:12.4	91.390	0.160	-0.060	0.210
2020/01/31 07:02:12.5	91.390	0.190	-0.100	0.180
2020/01/31 07:02:12.6	91.390	0.210	-0.140	0.150
2020/01/31 07:02:12.7	91.390	0.230	-0.170	0.120
2020/01/31 07:02:12.8	91.380	0.250	-0.210	0.090
2020/01/31 07:02:12.9	91.380	0.270	-0.240	0.060
2020/01/31 07:02:13.0	91.370	0.290	-0.270	0.040
2020/01/31 07:02:13.1	91.360	0.310	-0.300	0.020
2020/01/31 07:02:13.2	91.350	0.320	-0.330	0.010
2020/01/31 07:02:13.3	91.340	0.340	-0.360	-0.000
2020/01/31 07:02:13.4	91.330	0.350	-0.380	-0.020
2020/01/31 07:02:13.5	91.310	0.360	-0.400	-0.020
2020/01/31 07:02:13.6	91.300	0.370	-0.410	-0.030
2020/01/31 07:02:13.7	91.280	0.380	-0.430	-0.030
2020/01/31 07:02:13.8	91.270	0.390	-0.440	-0.030
2020/01/31 07:02:13.9	91.250	0.390	-0.440	-0.030
2020/01/31 07:02:14.0	91.240	0.390	-0.450	-0.030
2020/01/31 07:02:14.1	91.220	0.400	-0.450	-0.030
2020/01/31 07:02:14.2	91.210	0.400	-0.460	-0.020
2020/01/31 07:02:14.3	91.190	0.400	-0.460	-0.010
2020/01/31 07:02:14.4	91.180	0.390	-0.460	-0.000
2020/01/31 07:02:14.5	91.170	0.390	-0.450	0.010
2020/01/31 07:02:14.6	91.160	0.390	-0.450	0.020
2020/01/31 07:02:14.7	91.150	0.380	-0.450	0.030
2020/01/31 07:02:14.8	91.150	0.370	-0.440	0.040
2020/01/31 07:02:14.9	91.140	0.360	-0.430	0.060
2020/01/31 07:02:15.0	91.140	0.360	-0.420	0.070
2020/01/31 07:02:15.1	91.140	0.350	-0.420	0.080
2020/01/31 07:02:15.2	91.140	0.330	-0.400	0.090
2020/01/31 07:02:15.3	91.140	0.320	-0.390	0.110
2020/01/31 07:02:15.4	91.150	0.310	-0.380	0.120
2020/01/31 07:02:15.5	91.160	0.300	-0.370	0.130
2020/01/31 07:02:15.6	91.170	0.280	-0.360	0.140
2020/01/31 07:02:15.7	91.180	0.270	-0.350	0.150
2020/01/31 07:02:15.8	91.200	0.250	-0.340	0.160
2020/01/31 07:02:15.9	91.210	0.240	-0.330	0.170
2020/01/31 07:02:16.0	91.230	0.220	-0.310	0.180
2020/01/31 07:02:16.1	91.250	0.200	-0.300	0.190
2020/01/31 07:02:16.2	91.280	0.180	-0.290	0.200
2020/01/31 07:02:16.3	91.300	0.170	-0.270	0.210
2020/01/31 07:02:16.4	91.320	0.150	-0.260	0.220
2020/01/31 07:02:16.5	91.340	0.130	-0.240	0.220
2020/01/31 07:02:16.6	91.370	0.110	-0.230	0.240
2020/01/31 07:02:16.7	91.390	0.090	-0.210	0.250
2020/01/31 07:02:16.8	91.410	0.080	-0.200	0.260
2020/01/31 07:02:16.9	91.430	0.060	-0.180	0.270
2020/01/31 07:02:17.0	91.450	0.040	-0.160	0.280
2020/01/31 07:02:17.1	91.470	0.020	-0.150	0.300
2020/01/31 07:02:17.2	91.490	0.000	-0.130	0.320
2020/01/31 07:02:17.3	91.510	-0.010	-0.120	0.330
2020/01/31 07:02:17.4	91.530	-0.030	-0.100	0.350
2020/01/31 07:02:17.5	91.550	-0.050	-0.080	0.370
2020/01/31 07:02:17.6	91.560	-0.060	-0.070	0.390
2020/01/31 07:02:17.7	91.580	-0.080	-0.050	0.410
2020/01/31 07:02:17.8	91.590	-0.090	-0.040	0.440
2020/01/31 07:02:17.9	91.600	-0.110	-0.030	0.460
2020/01/31 07:02:18.0	91.610	-0.120	-0.010	0.490
2020/01/31 07:02:18.1	91.620	-0.130	-0.000	0.520
2020/01/31 07:02:18.2	91.620	-0.150	0.010	0.550
2020/01/31 07:02:18.3	91.630	-0.160	0.010	0.580
2020/01/31 07:02:18.4	91.640	-0.170	0.020	0.620
2020/01/31 07:02:18.5	91.640	-0.180	0.030	0.650
2020/01/31 07:02:18.6	91.640	-0.180	0.030	0.690
2020/01/31 07:02:18.7	91.650	-0.190	0.030	0.730
2020/01/31 07:02:18.8	91.650	-0.200	0.030	0.760
2020/01/31 07:02:18.9	91.650	-0.200	0.030	0.800
2020/01/31 07:02:19.0	91.650	-0.210	0.020	0.840
2020/01/31 07:02:19.1	91.650	-0.210	0.020	0.890
2020/01/31 07:02:19.2	91.660	-0.210	0.010	0.930
2020/01/31 07:02:19.3	91.660	-0.210	-0.000	0.970
2020/01/31 07:02:19.4	91.660	-0.210	-0.010	1.010
2020/01/31 07:02:19.5	91.660	-0.210	-0.030	1.050
2020/01/31 07:02:19.6	91.660	-0.210	-0.050	1.100
2020/01/31 07:02:19.7	91.660	-0.200	-0.070	1.140
2020/01/31 07:02:19.8	91.670	-0.200	-0.090	1.180
2020/01/31 07:02:19.9	91.670	-0.200	-0.110	1.220
2020/01/31 07:02:20.0	91.680	-0.190	-0.130	1.260
2020/01/31 07:02:20.1	91.680	-0.180	-0.160	1.300
2020/01/31 07:02:20.2	91.680	-0.180	-0.180	1.340
2020/01/31 07:02:20.3	91.690	-0.170	-0.210	1.380
2020/01/31 07:02:20.4	91.700	-0.160	-0.230	1.420
2020/01/31 07:02:20.5	91.710	-0.160	-0.260	1.450
2020/01/31 07:02:20.6	91.720	-0.150	-0.280	1.490
2020/01/31 07:02:20.7	91.730	-0.140	-0.300	1.520
2020/01/31 07:02:20.8	91.740	-0.140	-0.320	1.550
2020/01/31 07:02:20.9	91.750	-0.130	-0.340	1.580
2020/01/31 07:02:21.0	91.760	-0.130	-0.350	1.610
2020/01/31 07:02:21.1	91.770	-0.120	-0.370	1.640
2020/01/31 07:02:21.2	91.780	-0.120	-0.380	1.660
2020/01/31 07:02:21.3	91.790	-0.120	-0.390	1.690
2020/01/31 07:02:21.4	91.800	-0.110	-0.390	1.700
2020/01/31 07:02:21.5	91.810	-0.110	-0.390	1.720
2020/01/31 07:02:21.6	91.830	-0.110	-0.390	1.730
2020/01/31 07:02:21.7	91.840	-0.110	-0.390	1.740
2020/01/31 07:02:21.8	91.850	-0.120	-0.380	1.750
2020/01/31 07:02:21.9	91.860	-0.120	-0.360	1.750
2020/01/31 07:02:22.0	91.870	-0.120	-0.350	1.750
2020/01/31 07:02:22.1	91.890	-0.130	-0.330	1.740
2020/01/31 07:02:22.2	91.910	-0.140	-0.300	1.740
2020/01/31 07:02:22.3	91.910	-0.150	-0.280	1.730
2020/01/31 07:02:22.4	91.920	-0.160	-0.250	1.710
2020/01/31 07:02:22.5	91.930	-0.170	-0.220	1.700
2020/01/31 07:02:22.6	91.940	-0.180	-0.180	1.680
2020/01/31 07:02:22.7	91.940	-0.190	-0.150	1.660
2020/01/31 07:02:22.8	91.950	-0.200	-0.110	1.630
2020/01/31 07:02:22.9	91.950	-0.220	-0.070	1.610
2020/01/31 07:02:23.0	91.950	-0.230	-0.030	1.580
2020/01/31 07:02:23.1	91.950	-0.250	0.010	1.550
2020/01/31 07:02:23.2	91.940	-0.270	0.050	1.520
2020/01/31 07:02:23.3	91.930	-0.280	0.090	1.490
2020/01/31 07:02:23.4	91.930	-0.300	0.130	1.450
2020/01/31 07:02:23.5	91.920	-0.320	0.170	1.420
2020/01/31 07:02:23.6	91.910	-0.340	0.210	1.380
2020/01/31 07:02:23.7	91.890	-0.360	0.250	1.350
2020/01/31 07:02:23.8	91.880	-0.370	0.290	1.310
2020/01/31 07:02:23.9	91.860	-0.390	0.320	1.270
2020/01/31 07:02:24.0	91.850	-0.410	0.350	1.240
2020/01/31 07:02:24.1	91.830	-0.420	0.380	1.200
2020/01/31 07:02:24.2	91.800	-0.440	0.410	1.160
2020/01/31 07:02:24.3	91.780	-0.450	0.440	1.120
2020/01/31 07:02:24.4	91.760	-0.460	0.460	1.080
2020/01/31 07:02:24.5	91.750	-0.470	0.470	1.040
2020/01/31 07:02:24.6	91.730	-0.480	0.490	1.000
2020/01/31 07:02:24.7	91.710	-0.490	0.500	0.960
2020/01/31 07:02:24.8	91.690	-0.500	0.500	0.920
2020/01/31 07:02:24.9	91.680	-0.500	0.500	0.870
2020/01/31 07:02:25.0	91.660	-0.500	0.490	0.830
2020/01/31 07:02:25.1	91.650	-0.500	0.480	0.780
2020/01/31 07:02:25.2	91.640	-0.490	0.470	0.730
2020/01/31 07:02:25.3	91.630	-0.480	0.450	0.680
2020/01/31 07:02:25.4	91.620	-0.470	0.420	0.630
2020/01/31 07:02:25.5	91.620	-0.460	0.390	0.580
2020/01/31 07:02:25.6	91.620	-0.440	0.360	0.530
2020/01/31 07:02:25.7	91.620	-0.420	0.320	0.470
2020/01/31 07:02:25.8	91.620	-0.400	0.270	0.420
2020/01/31 07:02:25.9	91.620	-0.370	0.220	0.360
2020/01/31 07:02:26.0	91.630	-0.340	0.170	0.300
2020/01/31 07:02:26.1	91.640	-0.310	0.110	0.240
2020/01/31 07:02:26.2	91.650	-0.270	0.050	0.190
2020/01/31 07:02:26.3	91.660	-0.240	-0.010	0.130
2020/01/31 07:02:26.4	91.680	-0.200	-0.080	0.070
2020/01/31 07:02:26.5	91.690	-0.160	-0.150	0.010
2020/01/31 07:02:26.6	91.710	-0.110	-0.220	-0.050
2020/01/31 07:02:26.7	91.720	-0.070	-0.290	-0.110
2020/01/31 07:02:26.8	91.740	-0.020	-0.360	-0.170
2020/01/31 07:02:26.9	91.760	0.020	-0.430	-0.230
2020/01/31 07:02:27.0	91.780	0.070	-0.500	-0.280
2020/01/31 07:02:27.1	91.800	0.120	-0.560	-0.340
2020/01/31 07:02:27.2	91.800	0.170	-0.630	-0.390
2020/01/31 07:02:27.3	91.820	0.220	-0.700	-0.440
2020/01/31 07:02:27.4	91.830	0.270	-0.760	-0.490
2020/01/31 07:02:27.5	91.850	0.320	-0.820	-0.530
2020/01/31 07:02:27.6	91.860	0.370	-0.880	-0.580
2020/01/31 07:02:27.7	91.870	0.420	-0.930	-0.620
2020/01/31 07:02:27.8	91.880	0.470	-0.980	-0.650
2020/01/31 07:02:27.9	91.890	0.510	-1.020	-0.690
2020/01/31 07:02:28.0	91.900	0.560	-1.060	-0.720
2020/01/31 07:02:28.1	91.900	0.600	-1.090	-0.740
2020/01/31 07:02:28.2	91.910	0.640	-1.120	-0.760
2020/01/31 07:02:28.3	91.910	0.680	-1.140	-0.780
2020/01/31 07:02:28.4	91.910	0.720	-1.160	-0.800
2020/01/31 07:02:28.5	91.910	0.750	-1.170	-0.810
2020/01/31 07:02:28.6	91.900	0.780	-1.180	-0.810
2020/01/31 07:02:28.7	91.890	0.810	-1.170	-0.810
2020/01/31 07:02:28.8	91.880	0.840	-1.170	-0.810
2020/01/31 07:02:28.9	91.870	0.860	-1.160	-0.800
2020/01/31 07:02:29.0	91.850	0.880	-1.140	-0.780
2020/01/31 07:02:29.1	91.830	0.900	-1.110	-0.760
2020/01/31 07:02:29.2	91.820	0.910	-1.090	-0.740
2020/01/31 07:02:29.3	91.800	0.920	-1.060	-0.710
2020/01/31 07:02:29.4	91.780	0.930	-1.020	-0.680
2020/01/31 07:02:29.5	91.760	0.930	-0.970	-0.640
2020/01/31 07:02:29.6	91.730	0.930	-0.930	-0.600
2020/01/31 07:02:29.7	91.710	0.930	-0.880	-0.560
2020/01/31 07:02:29.8	91.680	0.920	-0.820	-0.510
2020/01/31 07:02:29.9	91.660	0.910	-0.770	-0.460
2020/01/31 07:02:30.0	91.630	0.900	-0.710	-0.400
2020/01/31 07:02:30.1	91.600	0.880	-0.640	-0.350
2020/01/31 07:02:30.2	91.590	0.860	-0.580	-0.290
2020/01/31 07:02:30.3	91.570	0.840	-0.510	-0.220
2020/01/31 07:02:30.4	91.540	0.820	-0.440	-0.160
2020/01/31 07:02:30.5	91.520	0.790	-0.380	-0.090
2020/01/31 07:02:30.6	91.500	0.760	-0.310	-0.020
2020/01/31 07:02:30.7	91.480	0.730	-0.240	0.060
2020/01/31 07:02:30.8	91.460	0.700	-0.170	0.130
2020/01/31 07:02:30.9	91.450	0.660	-0.100	0.210
2020/01/31 07:02:31.0	91.430	0.630	-0.030	0.290
2020/01/31 07:02:31.1	91.420	0.590	0.040	0.370
2020/01/31 07:02:31.2	91.410	0.550	0.110	0.450
2020/01/31 07:02:31.3	91.400	0.510	0.170	0.530
2020/01/31 07:02:31.4	91.390	0.470	0.240	0.610
2020/01/31 07:02:31.5	91.380	0.430	0.310	0.700
2020/01/31 07:02:31.6	91.370	0.390	0.370	0.780
2020/01/31 07:02:31.7	91.360	0.340	0.430	0.860
2020/01/31 07:02:31.8	91.360	0.300	0.490	0.940
2020/01/31 07:02:31.9	91.350	0.260	0.540	1.020
2020/01/31 07:02:32.0	91.350	0.210	0.600	1.100
2020/01/31 07:02:32.1	91.340	0.170	0.650	1.180
2020/01/31 07:02:32.2	91.340	0.120	0.700	1.250
2020/01/31 07:02:32.3	91.340	0.070	0.740	1.330
2020/01/31 07:02:32.4	91.340	0.030	0.780	1.400
2020/01/31 07:02:32.5	91.340	-0.020	0.820	1.460
2020/01/31 07:02:32.6	91.350	-0.060	0.850	1.520
2020/01/31 07:02:32.7	91.350	-0.100	0.880	1.580
2020/01/31 07:02:32.8	91.360	-0.150	0.910	1.640
2020/01/31 07:02:32.9	91.370	-0.190	0.920	1.690
2020/01/31 07:02:33.0	91.370	-0.230	0.940	1.740
2020/01/31 07:02:33.1	91.380	-0.280	0.950	1.780
2020/01/31 07:02:33.2	91.400	-0.320	0.950	1.820
2020/01/31 07:02:33.3	91.410	-0.350	0.950	1.860
2020/01/31 07:02:33.4	91.420	-0.390	0.950	1.900
2020/01/31 07:02:33.5	91.440	-0.430	0.930	1.930
2020/01/31 07:02:33.6	91.450	-0.460	0.920	1.960
2020/01/31 07:02:33.7	91.470	-0.490	0.900	1.990
2020/01/31 07:02:33.8	91.490	-0.530	0.870	2.010
2020/01/31 07:02:33.9	91.510	-0.550	0.840	2.030
2020/01/31 07:02:34.0	91.520	-0.580	0.810	2.050
2020/01/31 07:02:34.1	91.540	-0.600	0.770	2.070
2020/01/31 07:02:34.2	91.560	-0.630	0.720	2.090
2020/01/31 07:02:34.3	91.580	-0.650	0.670	2.110
2020/01/31 07:02:34.4	91.590	-0.660	0.620	2.130
2020/01/31 07:02:34.5	91.610	-0.680	0.570	2.140
2020/01/31 07:02:34.6	91.620	-0.690	0.510	2.160
2020/01/31 07:02:34.7	91.630	-0.700	0.450	2.170
2020/01/31 07:02:34.8	91.640	-0.700	0.380	2.180
2020/01/31 07:02:34.9	91.650	-0.710	0.310	2.200
2020/01/31 07:02:35.0	91.660	-0.710	0.250	2.210
2020/01/31 07:02:35.1	91.670	-0.710	0.170	2.220
2020/01/31 07:02:35.2	91.670	-0.710	0.100	2.230
2020/01/31 07:02:35.3	91.680	-0.700	0.030	2.240
2020/01/31 07:02:35.4	91.680	-0.700	-0.040	2.250
2020/01/31 07:02:35.5	91.680	-0.690	-0.120	2.260
2020/01/31 07:02:35.6	91.670	-0.680	-0.190	2.270
2020/01/31 07:02:35.7	91.670	-0.660	-0.260	2.280
2020/01/31 07:02:35.8	91.660	-0.650	-0.340	2.290
2020/01/31 07:02:35.9	91.660	-0.630	-0.410	2.290
2020/01/31 07:02:36.0	91.650	-0.610	-0.470	2.290
2020/01/31 07:02:36.1	91.640	-0.600	-0.540	2.300
2020/01/31 07:02:36.2	91.630	-0.580	-0.610	2.290
2020/01/31 07:02:36.3	91.620	-0.560	-0.670	2.290
2020/01/31 07:02:36.4	91.600	-0.530	-0.720	2.290
2020/01/31 07:02:36.5	91.590	-0.510	-0.770	2.280
2020/01/31 07:02:36.6	91.580	-0.490	-0.820	2.280
2020/01/31 07:02:36.7	91.560	-0.460	-0.860	2.270
2020/01/31 07:02:36.8	91.550	-0.440	-0.900	2.260
2020/01/31 07:02:36.9	91.530	-0.420	-0.930	2.240
2020/01/31 07:02:37.0	91.520	-0.390	-0.960	2.230
2020/01/31 07:02:37.1	91.500	-0.370	-0.990	2.220
2020/01/31 07:02:37.2	91.480	-0.340	-1.000	2.200
2020/01/31 07:02:37.3	91.460	-0.320	-1.020	2.180
2020/01/31 07:02:37.4	91.440	-0.290	-1.020	2.160
2020/01/31 07:02:37.5	91.420	-0.270	-1.030	2.140
2020/01/31 07:02:37.6	91.400	-0.240	-1.030	2.120
2020/01/31 07:02:37.7	91.380	-0.220	-1.020	2.100
2020/01/31 07:02:37.8	91.360	-0.190	-1.010	2.080
2020/01/31 07:02:37.9	91.340	-0.170	-1.000	2.050
2020/01/31 07:02:38.0	91.310	-0.150	-0.980	2.020
2020/01/31 07:02:38.1	91.290	-0.120	-0.960	2.000
2020/01/31 07:02:38.2	91.270	-0.100	-0.940	1.970
2020/01/31 07:02:38.3	91.240	-0.080	-0.920	1.930
2020/01/31 07:02:38.4	91.220	-0.050	-0.890	1.900
2020/01/31 07:02:38.5	91.190	-0.030	-0.870	1.870
2020/01/31 07:02:38.6	91.170	-0.010	-0.840	1.830
2020/01/31 07:02:38.7	91.150	0.010	-0.800	1.790
2020/01/31 07:02:38.8	91.120	0.030	-0.770	1.750
2020/01/31 07:02:38.9	91.100	0.060	-0.740	1.710
2020/01/31 07:02:39.0	91.080	0.080	-0.710	1.660
2020/01/31 07:02:39.1	91.060	0.100	-0.670	1.610
2020/01/31 07:02:39.2	91.030	0.110	-0.640	1.560
2020/01/31 07:02:39.3	91.010	0.130	-0.600	1.510
2020/01/31 07:02:39.4	90.990	0.150	-0.570	1.450
2020/01/31 07:02:39.5	90.970	0.170	-0.530	1.390
2020/01/31 07:02:39.6	90.960	0.180	-0.500	1.330
2020/01/31 07:02:39.7	90.940	0.200	-0.460	1.270
2020/01/31 07:02:39.8	90.930	0.210	-0.430	1.200
2020/01/31 07:02:39.9	90.910	0.220	-0.400	1.130
2020/01/31 07:02:40.0	90.900	0.230	-0.360	1.050
2020/01/31 07:02:40.1	90.890	0.240	-0.330	0.980
2020/01/31 07:02:40.2	90.880	0.250	-0.290	0.900
2020/01/31 07:02:40.3	90.870	0.260	-0.260	0.820
2020/01/31 07:02:40.4	90.860	0.270	-0.230	0.730
2020/01/31 07:02:40.5	90.850	0.270	-0.190	0.640
2020/01/31 07:02:40.6	90.850	0.280	-0.160	0.550
2020/01/31 07:02:40.7	90.840	0.280	-0.130	0.460
2020/01/31 07:02:40.8	90.840	0.280	-0.100	0.370
2020/01/31 07:02:40.9	90.840	0.280	-0.070	0.270
2020/01/31 07:02:41.0	90.840	0.280	-0.040	0.180
2020/01/31 07:02:41.1	90.840	0.280	-0.010	0.080
2020/01/31 07:02:41.2	90.830	0.270	0.010	-0.020
2020/01/31 07:02:41.3	90.830	0.270	0.040	-0.120
2020/01/31 07:02:41.4	90.830	0.270	0.070	-0.220
2020/01/31 07:02:41.5	90.840	0.260	0.090	-0.320
2020/01/31 07:02:41.6	90.840	0.250	0.110	-0.420
2020/01/31 07:02:41.7	90.840	0.250	0.140	-0.520
2020/01/31 07:02:41.8	90.840	0.240	0.160	-0.610
2020/01/31 07:02:41.9	90.850	0.230	0.180	-0.710
2020/01/31 07:02:42.0	90.850	0.220	0.200	-0.800
2020/01/31 07:02:42.1	90.850	0.210	0.220	-0.890
2020/01/31 07:02:42.2	90.850	0.210	0.230	-0.970
2020/01/31 07:02:42.3	90.850	0.200	0.250	-1.050
2020/01/31 07:02:42.4	90.850	0.190	0.270	-1.130
2020/01/31 07:02:42.5	90.850	0.180	0.280	-1.200
2020/01/31 07:02:42.6	90.840	0.170	0.290	-1.270
2020/01/31 07:02:42.7	90.840	0.160	0.300	-1.330
2020/01/31 07:02:42.8	90.830	0.150	0.310	-1.390
2020/01/31 07:02:42.9	90.820	0.150	0.320	-1.440
2020/01/31 07:02:43.0	90.810	0.140	0.320	-1.480
2020/01/31 07:02:43.1	90.800	0.130	0.330	-1.530
2020/01/31 07:02:43.2	90.790	0.130	0.320	-1.560
2020/01/31 07:02:43.3	90.780	0.120	0.320	-1.590
2020/01/31 07:02:43.4	90.760	0.120	0.320	-1.610
2020/01/31 07:02:43.5	90.750	0.110	0.310	-1.630
2020/01/31 07:02:43.6	90.740	0.110	0.310	-1.640
2020/01/31 07:02:43.7	90.720	0.110	0.300	-1.640
2020/01/31 07:02:43.8	90.710	0.110	0.280	-1.640
2020/01/31 07:02:43.9	90.700	0.110	0.270	-1.640
2020/01/31 07:02:44.0	90.680	0.110	0.250	-1.620
2020/01/31 07:02:44.1	90.670	0.110	0.230	-1.610
2020/01/31 07:02:44.2	90.660	0.110	0.200	-1.590
2020/01/31 07:02:44.3	90.650	0.110	0.180	-1.560
2020/01/31 07:02:44.4	90.640	0.120	0.150	-1.530
2020/01/31 07:02:44.5	90.630	0.120	0.120	-1.490
2020/01/31 07:02:44.6	90.630	0.130	0.090	-1.450
2020/01/31 07:02:44.7	90.630	0.140	0.060	-1.410
2020/01/31 07:02:44.8	90.630	0.140	0.030	-1.360
2020/01/31 07:02:44.9	90.630	0.150	-0.010	-1.310
2020/01/31 07:02:45.0	90.630	0.160	-0.040	-1.250
2020/01/31 07:02:45.1	90.630	0.170	-0.080	-1.200
2020/01/31 07:02:45.2	90.640	0.180	-0.110	-1.130
2020/01/31 07:02:45.3	90.650	0.190	-0.150	-1.070
2020/01/31 07:02:45.4	90.660	0.190	-0.180	-1.000
2020/01/31 07:02:45.5	90.670	0.200	-0.210	-0.930
2020/01/31 07:02:45.6	90.680	0.210	-0.250	-0.860
2020/01/31 07:02:45.7	90.690	0.220	-0.280	-0.780
2020/01/31 07:02:45.8	90.700	0.230	-0.300	-0.700
2020/01/31 07:02:45.9	90.710	0.230	-0.330	-0.620
2020/01/31 07:02:46.0	90.720	0.240	-0.350	-0.540
2020/01/31 07:02:46.1	90.740	0.250	-0.380	-0.450
2020/01/31 07:02:46.2	90.760	0.250	-0.400	-0.360
2020/01/31 07:02:46.3	90.770	0.250	-0.410	-0.270
2020/01/31 07:02:46.4	90.780	0.260	-0.430	-0.180
2020/01/31 07:02:46.5	90.790	0.260	-0.440	-0.090
2020/01/31 07:02:46.6	90.800	0.260	-0.450	0.000
2020/01/31 07:02:46.7	90.810	0.260	-0.450	0.100
2020/01/31 07:02:46.8	90.810	0.250	-0.450	0.190
2020/01/31 07:02:46.9	90.820	0.250	-0.460	0.290
2020/01/31 07:02:47.0	90.830	0.240	-0.450	0.390
2020/01/31 07:02:47.1	90.830	0.240	-0.450	0.490
2020/01/31 07:02:47.2	90.840	0.230	-0.450	0.590
2020/01/31 07:02:47.3	90.840	0.220	-0.440	0.680
2020/01/31 07:02:47.4	90.850	0.210	-0.430	0.780
2020/01/31 07:02:47.5	90.850	0.200	-0.420	0.880
2020/01/31 07:02:47.6	90.850	0.190	-0.410	0.980
2020/01/31 07:02:47.7	90.850	0.170	-0.390	1.080
2020/01/31 07:02:47.8	90.850	0.160	-0.380	1.180
2020/01/31 07:02:47.9	90.840	0.140	-0.370	1.280
2020/01/31 07:02:48.0	90.840	0.120	-0.350	1.380
2020/01/31 07:02:48.1	90.840	0.110	-0.340	1.480
2020/01/31 07:02:48.2	90.840	0.090	-0.320	1.580
2020/01/31 07:02:48.3	90.830	0.070	-0.310	1.680
2020/01/31 07:02:48.4	90.830	0.050	-0.290	1.780
2020/01/31 07:02:48.5	90.820	0.030	-0.280	1.870
2020/01/31 07:02:48.6	90.820	0.020	-0.260	1.970
2020/01/31 07:02:48.7	90.810	-0.000	-0.250	2.060
2020/01/31 07:02:48.8	90.810	-0.020	-0.230	2.160
2020/01/31 07:02:48.9	90.800	-0.040	-0.220	2.250
2020/01/31 07:02:49.0	90.790	-0.060	-0.210	2.340
2020/01/31 07:02:49.1	90.790	-0.080	-0.190	2.420
2020/01/31 07:02:49.2	90.780	-0.100	-0.180	2.510
2020/01/31 07:02:49.3	90.770	-0.110	-0.170	2.590
2020/01/31 07:02:49.4	90.760	-0.130	-0.160	2.660
2020/01/31 07:02:49.5	90.750	-0.150	-0.150	2.730
2020/01/31 07:02:49.6	90.750	-0.160	-0.140	2.800
2020/01/31 07:02:49.7	90.740	-0.180	-0.130	2.860
2020/01/31 07:02:49.8	90.730	-0.190	-0.120	2.920
2020/01/31 07:02:49.9	90.730	-0.200	-0.110	2.970
2020/01/31 07:02:50.0	90.720	-0.220	-0.100	3.020
2020/01/31 07:02:50.1	90.710	-0.230	-0.090	3.060
2020/01/31 07:02:50.2	90.690	-0.240	-0.080	3.100
2020/01/31 07:02:50.3	90.680	-0.250	-0.070	3.130
2020/01/31 07:02:50.4	90.670	-0.260	-0.060	3.160
2020/01/31 07:02:50.5	90.660	-0.270	-0.050	3.180
2020/01/31 07:02:50.6	90.650	-0.280	-0.040	3.210
2020/01/31 07:02:50.7	90.640	-0.290	-0.030	3.220
2020/01/31 07:02:50.8	90.630	-0.290	-0.010	3.230
2020/01/31 07:02:50.9	90.620	-0.300	-0.000	3.240
2020/01/31 07:02:51.0	90.600	-0.300	0.010	3.250
2020/01/31 07:02:51.1	90.590	-0.310	0.030	3.250
2020/01/31 07:02:51.2	90.580	-0.310	0.040	3.240
2020/01/31 07:02:51.3	90.570	-0.320	0.060	3.230
2020/01/31 07:02:51.4	90.560	-0.320	0.080	3.220
2020/01/31 07:02:51.5	90.540	-0.320	0.090	3.200
2020/01/31 07:02:51.6	90.530	-0.320	0.110	3.180
2020/01/31 07:02:51.7	90.510	-0.320	0.130	3.160
2020/01/31 07:02:51.8	90.500	-0.320	0.150	3.130
2020/01/31 07:02:51.9	90.490	-0.320	0.160	3.100
2020/01/31 07:02:52.0	90.480	-0.320	0.180	3.060
2020/01/31 07:02:52.1	90.470	-0.320	0.200	3.020
2020/01/31 07:02:52.2	90.460	-0.320	0.220	2.970
2020/01/31 07:02:52.3	90.450	-0.320	0.230	2.920
2020/01/31 07:02:52.4	90.450	-0.320	0.250	2.870
2020/01/31 07:02:52.5	90.440	-0.310	0.260	2.810
2020/01/31 07:02:52.6	90.440	-0.310	0.270	2.740
2020/01/31 07:02:52.7	90.440	-0.300	0.280	2.680
2020/01/31 07:02:52.8	90.430	-0.300	0.280	2.600
2020/01/31 07:02:52.9	90.430	-0.290	0.280	2.520
2020/01/31 07:02:53.0	90.440	-0.290	0.280	2.440
2020/01/31 07:02:53.1	90.440	-0.280	0.280	2.360
2020/01/31 07:02:53.2	90.450	-0.270	0.260	2.260
2020/01/31 07:02:53.3	90.450	-0.260	0.250	2.170
2020/01/31 07:02:53.4	90.460	-0.250	0.230	2.070
2020/01/31 07:02:53.5	90.470	-0.240	0.210	1.970
2020/01/31 07:02:53.6	90.470	-0.230	0.180	1.860
2020/01/31 07:02:53.7	90.480	-0.210	0.150	1.750
2020/01/31 07:02:53.8	90.490	-0.200	0.110	1.640
2020/01/31 07:02:53.9	90.500	-0.180	0.070	1.520
2020/01/31 07:02:54.0	90.510	-0.160	0.030	1.400
2020/01/31 07:02:54.1	90.520	-0.140	-0.020	1.280
2020/01/31 07:02:54.2	90.530	-0.120	-0.070	1.150
2020/01/31 07:02:54.3	90.540	-0.100	-0.130	1.030
2020/01/31 07:02:54.4	90.550	-0.080	-0.190	0.910
2020/01/31 07:02:54.5	90.560	-0.050	-0.250	0.780
2020/01/31 07:02:54.6	90.570	-0.030	-0.310	0.650
2020/01/31 07:02:54.7	90.580	-0.000	-0.380	0.530
2020/01/31 07:02:54.8	90.590	0.030	-0.440	0.400
2020/01/31 07:02:54.9	90.590	0.050	-0.510	0.280
2020/01/31 07:02:55.0	90.600	0.080	-0.570	0.160
2020/01/31 07:02:55.1	90.600	0.110	-0.640	0.040
2020/01/31 07:02:55.2	90.600	0.140	-0.700	-0.070
2020/01/31 07:02:55.3	90.600	0.170	-0.760	-0.190
2020/01/31 07:02:55.4	90.600	0.200	-0.820	-0.290
2020/01/31 07:02:55.5	90.600	0.220	-0.870	-0.400
2020/01/31 07:02:55.6	90.600	0.250	-0.910	-0.500
2020/01/31 07:02:55.7	90.600	0.280	-0.950	-0.590
2020/01/31 07:02:55.8	90.590	0.300	-0.990	-0.680
2020/01/31 07:02:55.9	90.590	0.320	-1.010	-0.760
2020/01/31 07:02:56.0	90.580	0.340	-1.040	-0.840
2020/01/31 07:02:56.1	90.580	0.360	-1.050	-0.910
2020/01/31 07:02:56.2	90.580	0.370	-1.050	-0.980
2020/01/31 07:02:56.3	90.570	0.390	-1.050	-1.040
2020/01/31 07:02:56.4	90.560	0.390	-1.040	-1.090
2020/01/31 07:02:56.5	90.560	0.400	-1.020	-1.140
2020/01/31 07:02:56.6	90.550	0.400	-0.990	-1.180
2020/01/31 07:02:56.7	90.540	0.400	-0.960	-1.210
2020/01/31 07:02:56.8	90.530	0.400	-0.920	-1.240
2020/01/31 07:02:56.9	90.520	0.390	-0.870	-1.260
2020/01/31 07:02:57.0	90.520	0.390	-0.820	-1.280
2020/01/31 07:02:57.1	90.510	0.370	-0.760	-1.290
2020/01/31 07:02:57.2	90.500	0.360	-0.700	-1.290
2020/01/31 07:02:57.3	90.490	0.340	-0.630	-1.290
2020/01/31 07:02:57.4	90.480	0.320	-0.550	-1.280
2020/01/31 07:02:57.5	90.470	0.300	-0.480	-1.260
2020/01/31 07:02:57.6	90.460	0.270	-0.400	-1.240
2020/01/31 07:02:57.7	90.450	0.240	-0.320	-1.220
2020/01/31 07:02:57.8	90.450	0.220	-0.240	-1.190
2020/01/31 07:02:57.9	90.440	0.190	-0.160	-1.150
2020/01/31 07:02:58.0	90.430	0.160	-0.080	-1.110
2020/01/31 07:02:58.1	90.420	0.130	-0.000	-1.070
2020/01/31 07:02:58.2	90.410	0.100	0.080	-1.020
2020/01/31 07:02:58.3	90.400	0.070	0.150	-0.970
2020/01/31 07:02:58.4	90.390	0.040	0.220	-0.910
2020/01/31 07:02:58.5	90.380	0.010	0.290	-0.850
2020/01/31 07:02:58.6	90.380	-0.020	0.350	-0.790
2020/01/31 07:02:58.7	90.370	-0.050	0.400	-0.730
2020/01/31 07:02:58.8	90.360	-0.070	0.450	-0.660
2020/01/31 07:02:58.9	90.360	-0.100	0.490	-0.590
2020/01/31 07:02:59.0	90.350	-0.120	0.530	-0.520
2020/01/31 07:02:59.1	90.350	-0.140	0.560	-0.440
2020/01/31 07:02:59.2	90.340	-0.150	0.580	-0.370
2020/01/31 07:02:59.3	90.330	-0.170	0.600	-0.290
2020/01/31 07:02:59.4	90.330	-0.180	0.610	-0.210
2020/01/31 07:02:59.5	90.330	-0.190	0.610	-0.120
2020/01/31 07:02:59.6	90.320	-0.190	0.610	-0.040
2020/01/31 07:02:59.7	90.320	-0.200	0.600	0.050
2020/01/31 07:02:59.8	90.310	-0.200	0.590	0.130
2020/01/31 07:02:59.9	90.310	-0.200	0.570	0.220
2020/01/31 07:03:00.0	90.300	-0.200	0.550	0.310
2020/01/31 07:03:00.1	90.300	-0.190	0.520	0.400
2020/01/31 07:03:00.2	90.290	-0.180	0.490	0.500
2020/01/31 07:03:00.3	90.290	-0.180	0.450	0.590
2020/01/31 07:03:00.4	90.280	-0.170	0.410	0.680
2020/01/31 07:03:00.5	90.280	-0.150	0.370	0.770
2020/01/31 07:03:00.6	90.280	-0.140	0.330	0.860
2020/01/31 07:03:00.7	90.270	-0.130	0.280	0.960
2020/01/31 07:03:00.8	90.270	-0.120	0.230	1.050
2020/01/31 07:03:00.9	90.270	-0.100	0.190	1.140
2020/01/31 07:03:01.0	90.260	-0.090	0.140	1.220
2020/01/31 07:03:01.1	90.260	-0.070	0.090	1.310
2020/01/31 07:03:01.2	90.260	-0.060	0.040	1.400
2020/01/31 07:03:01.3	90.260	-0.050	-0.010	1.480
2020/01/31 07:03:01.4	90.260	-0.030	-0.050	1.560
2020/01/31 07:03:01.5	90.260	-0.020	-0.100	1.640
2020/01/31 07:03:01.6	90.260	-0.010	-0.140	1.710
2020/01/31 07:03:01.7	90.260	0.000	-0.180	1.790
2020/01/31 07:03:01.8	90.260	0.010	-0.220	1.850
2020/01/31 07:03:01.9	90.270	0.020	-0.250	1.920
2020/01/31 07:03:02.0	90.270	0.030	-0.280	1.980
2020/01/31 07:03:02.1	90.270	0.040	-0.310	2.040
2020/01/31 07:03:02.2	90.290	0.050	-0.340	2.090
2020/01/31 07:03:02.3	90.300	0.050	-0.360	2.140
2020/01/31 07:03:02.4	90.300	0.060	-0.380	2.190
2020/01/31 07:03:02.5	90.310	0.060	-0.390	2.230
2020/01/31 07:03:02.6	90.320	0.070	-0.410	2.270
2020/01/31 07:03:02.7	90.330	0.070	-0.420	2.300
2020/01/31 07:03:02.8	90.330	0.070	-0.420	2.330
2020/01/31 07:03:02.9	90.340	0.070	-0.430	2.360
2020/01/31 07:03:03.0	90.350	0.080	-0.430	2.390
2020/01/31 07:03:03.1	90.360	0.080	-0.430	2.410
2020/01/31 07:03:03.2	90.370	0.080	-0.430	2.440
2020/01/31 07:03:03.3	90.390	0.080	-0.420	2.450
2020/01/31 07:03:03.4	90.400	0.090	-0.420	2.470
2020/01/31 07:03:03.5	90.410	0.090	-0.410	2.480
2020/01/31 07:03:03.6	90.420	0.090	-0.410	2.500
2020/01/31 07:03:03.7	90.430	0.090	-0.400	2.510
2020/01/31 07:03:03.8	90.440	0.100	-0.390	2.520
2020/01/31 07:03:03.9	90.450	0.100	-0.380	2.530
2020/01/31 07:03:04.0	90.460	0.100	-0.370	2.540
2020/01/31 07:03:04.1	90.470	0.110	-0.360	2.540
2020/01/31 07:03:04.2	90.500	0.110	-0.350	2.550
2020/01/31 07:03:04.3	90.510	0.110	-0.340	2.560
2020/01/31 07:03:04.4	90.520	0.120	-0.330	2.560
2020/01/31 07:03:04.5	90.530	0.120	-0.320	2.570
2020/01/31 07:03:04.6	90.540	0.120	-0.320	2.570
2020/01/31 07:03:04.7	90.550	0.130	-0.310	2.570
2020/01/31 07:03:04.8	90.560	0.130	-0.300	2.570
2020/01/31 07:03:04.9	90.570	0.130	-0.290	2.570
2020/01/31 07:03:05.0	90.570	0.140	-0.290	2.570
2020/01/31 07:03:05.1	90.580	0.140	-0.280	2.570
2020/01/31 07:03:05.2	90.580	0.140	-0.280	2.570
2020/01/31 07:03:05.3	90.580	0.140	-0.270	2.560
2020/01/31 07:03:05.4	90.580	0.140	-0.270	2.560
2020/01/31 07:03:05.5	90.580	0.140	-0.260	2.550
2020/01/31 07:03:05.6	90.580	0.130	-0.260	2.540
2020/01/31 07:03:05.7	90.580	0.130	-0.250	2.530
2020/01/31 07:03:05.8	90.570	0.130	-0.250	2.510
2020/01/31 07:03:05.9	90.560	0.120	-0.240	2.490
2020/01/31 07:03:06.0	90.560	0.110	-0.240	2.470
2020/01/31 07:03:06.1	90.550	0.110	-0.230	2.440
2020/01/31 07:03:06.2	90.540	0.100	-0.220	2.410
2020/01/31 07:03:06.3	90.530	0.090	-0.220	2.370
2020/01/31 07:03:06.4	90.520	0.080	-0.210	2.330
2020/01/31 07:03:06.5	90.500	0.070	-0.200	2.290
2020/01/31 07:03:06.6	90.490	0.050	-0.200	2.240
2020/01/31 07:03:06.7	90.470	0.040	-0.190	2.180
2020/01/31 07:03:06.8	90.450	0.030	-0.180	2.120
2020/01/31 07:03:06.9	90.440	0.010	-0.180	2.050
2020/01/31 07:03:07.0	90.420	-0.000	-0.170	1.980
2020/01/31 07:03:07.1	90.410	-0.020	-0.160	1.910
2020/01/31 07:03:07.2	90.400	-0.030	-0.150	1.820
2020/01/31 07:03:07.3	90.380	-0.050	-0.140	1.740
2020/01/31 07:03:07.4	90.370	-0.060	-0.130	1.650
2020/01/31 07:03:07.5	90.360	-0.080	-0.120	1.550
2020/01/31 07:03:07.6	90.350	-0.090	-0.110	1.450
2020/01/31 07:03:07.7	90.340	-0.110	-0.100	1.350
2020/01/31 07:03:07.8	90.330	-0.120	-0.090	1.250
2020/01/31 07:03:07.9	90.320	-0.130	-0.080	1.140
2020/01/31 07:03:08.0	90.310	-0.140	-0.070	1.030
2020/01/31 07:03:08.1	90.300	-0.150	-0.060	0.920
2020/01/31 07:03:08.2	90.290	-0.160	-0.050	0.810
2020/01/31 07:03:08.3	90.290	-0.170	-0.040	0.700
2020/01/31 07:03:08.4	90.290	-0.170	-0.040	0.590
2020/01/31 07:03:08.5	90.290	-0.180	-0.030	0.480
2020/01/31 07:03:08.6	90.290	-0.180	-0.020	0.370
2020/01/31 07:03:08.7	90.290	-0.180	-0.020	0.270
2020/01/31 07:03:08.8	90.290	-0.180	-0.020	0.160
2020/01/31 07:03:08.9	90.300	-0.180	-0.010	0.060
2020/01/31 07:03:09.0	90.310	-0.180	-0.010	-0.040
2020/01/31 07:03:09.1	90.310	-0.180	-0.010	-0.140
2020/01/31 07:03:09.2	90.310	-0.170	-0.020	-0.230
2020/01/31 07:03:09.3	90.330	-0.170	-0.020	-0.330
2020/01/31 07:03:09.4	90.340	-0.160	-0.020	-0.420
2020/01/31 07:03:09.5	90.350	-0.160	-0.030	-0.500
2020/01/31 07:03:09.6	90.370	-0.150	-0.040	-0.580
2020/01/31 07:03:09.7	90.380	-0.140	-0.050	-0.660
2020/01/31 07:03:09.8	90.400	-0.130	-0.060	-0.730
2020/01/31 07:03:09.9	90.420	-0.120	-0.070	-0.800
2020/01/31 07:03:10.0	90.440	-0.110	-0.080	-0.870
2020/01/31 07:03:10.1	90.460	-0.100	-0.090	-0.930
2020/01/31 07:03:10.2	90.470	-0.090	-0.110	-0.980
2020/01/31 07:03:10.3	90.490	-0.080	-0.120	-1.030
2020/01/31 07:03:10.4	90.510	-0.070	-0.130	-1.080
2020/01/31 07:03:10.5	90.530	-0.060	-0.140	-1.120
2020/01/31 07:03:10.6	90.540	-0.060	-0.150	-1.150
2020/01/31 07:03:10.7	90.560	-0.050	-0.170	-1.190
2020/01/31 07:03:10.8	90.580	-0.040	-0.180	-1.210
2020/01/31 07:03:10.9	90.590	-0.030	-0.180	-1.240
2020/01/31 07:03:11.0	90.600	-0.030	-0.190	-1.260
2020/01/31 07:03:11.1	90.620	-0.020	-0.200	-1.270
2020/01/31 07:03:11.2	90.630	-0.020	-0.200	-1.280
2020/01/31 07:03:11.3	90.640	-0.020	-0.210	-1.290
2020/01/31 07:03:11.4	90.650	-0.020	-0.210	-1.290
2020/01/31 07:03:11.5	90.660	-0.010	-0.210	-1.290
2020/01/31 07:03:11.6	90.660	-0.020	-0.210	-1.280
2020/01/31 07:03:11.7	90.670	-0.020	-0.200	-1.270
2020/01/31 07:03:11.8	90.670	-0.020	-0.200	-1.260
2020/01/31 07:03:11.9	90.670	-0.020	-0.190	-1.240
2020/01/31 07:03:12.0	90.670	-0.030	-0.180	-1.220
2020/01/31 07:03:12.1	90.670	-0.030	-0.180	-1.200
2020/01/31 07:03:12.2	90.660	-0.040	-0.170	-1.170
2020/01/31 07:03:12.3	90.660	-0.050	-0.160	-1.140
2020/01/31 07:03:12.4	90.650	-0.050	-0.140	-1.110
2020/01/31 07:03:12.5	90.650	-0.060	-0.130	-1.070
2020/01/31 07:03:12.6	90.640	-0.070	-0.120	-1.020
2020/01/31 07:03:12.7	90.630	-0.080	-0.110	-0.980
2020/01/31 07:03:12.8	90.620	-0.090	-0.090	-0.920
2020/01/31 07:03:12.9	90.610	-0.100	-0.080	-0.870
2020/01/31 07:03:13.0	90.600	-0.100	-0.070	-0.810
2020/01/31 07:03:13.1	90.590	-0.110	-0.060	-0.740
2020/01/31 07:03:13.2	90.570	-0.120	-0.050	-0.670
2020/01/31 07:03:13.3	90.560	-0.130	-0.040	-0.600
2020/01/31 07:03:13.4	90.550	-0.140	-0.030	-0.520
2020/01/31 07:03:13.5	90.540	-0.150	-0.020	-0.450
2020/01/31 07:03:13.6	90.520	-0.150	-0.020	-0.370
2020/01/31 07:03:13.7	90.510	-0.160	-0.020	-0.280
2020/01/31 07:03:13.8	90.510	-0.160	-0.020	-0.200
2020/01/31 07:03:13.9	90.500	-0.170	-0.020	-0.110
2020/01/31 07:03:14.0	90.490	-0.170	-0.020	-0.020
2020/01/31 07:03:14.1	90.480	-0.170	-0.030	0.070
2020/01/31 07:03:14.2	90.480	-0.170	-0.040	0.170
2020/01/31 07:03:14.3	90.480	-0.170	-0.050	0.260
2020/01/31 07:03:14.4	90.480	-0.160	-0.060	0.350
2020/01/31 07:03:14.5	90.480	-0.160	-0.080	0.450
2020/01/31 07:03:14.6	90.480	-0.150	-0.090	0.540
2020/01/31 07:03:14.7	90.490	-0.140	-0.110	0.630
2020/01/31 07:03:14.8	90.490	-0.130	-0.130	0.730
2020/01/31 07:03:14.9	90.500	-0.120	-0.160	0.820
2020/01/31 07:03:15.0	90.510	-0.110	-0.180	0.910
2020/01/31 07:03:15.1	90.520	-0.090	-0.210	1.000
2020/01/31 07:03:15.2	90.540	-0.080	-0.230	1.090
2020/01/31 07:03:15.3	90.550	-0.060	-0.260	1.170
2020/01/31 07:03:15.4	90.570	-0.040	-0.290	1.250
2020/01/31 07:03:15.5	90.590	-0.030	-0.320	1.330
2020/01/31 07:03:15.6	90.610	-0.010	-0.340	1.410
2020/01/31 07:03:15.7	90.630	0.020	-0.370	1.490
2020/01/31 07:03:15.8	90.660	0.040	-0.400	1.560
2020/01/31 07:03:15.9	90.680	0.060	-0.420	1.630
2020/01/31 07:03:16.0	90.710	0.080	-0.450	1.700
2020/01/31 07:03:16.1	90.740	0.100	-0.470	1.760
2020/01/31 07:03:16.2	90.780	0.120	-0.490	1.830
2020/01/31 07:03:16.3	90.800	0.140	-0.510	1.880
2020/01/31 07:03:16.4	90.830	0.160	-0.520	1.940
2020/01/31 07:03:16.5	90.860	0.180	-0.530	1.990
2020/01/31 07:03:16.6	90.890	0.200	-0.540	2.040
2020/01/31 07:03:16.7	90.920	0.220	-0.540	2.090
2020/01/31 07:03:16.8	90.950	0.230	-0.540	2.140
2020/01/31 07:03:16.9	90.980	0.250	-0.540	2.180
2020/01/31 07:03:17.0	91.010	0.260	-0.530	2.210
2020/01/31 07:03:17.1	91.040	0.270	-0.520	2.250
2020/01/31 07:03:17.2	91.070	0.280	-0.500	2.280
2020/01/31 07:03:17.3	91.100	0.290	-0.480	2.300
2020/01/31 07:03:17.4	91.130	0.290	-0.460	2.330
2020/01/31 07:03:17.5	91.160	0.300	-0.440	2.350
2020/01/31 07:03:17.6	91.190	0.300	-0.410	2.360
2020/01/31 07:03:17.7	91.210	0.300	-0.380	2.380
2020/01/31 07:03:17.8	91.240	0.300	-0.350	2.390
2020/01/31 07:03:17.9	91.260	0.290	-0.310	2.400
2020/01/31 07:03:18.0	91.290	0.290	-0.270	2.410
2020/01/31 07:03:18.1	91.310	0.280	-0.230	2.410
2020/01/31 07:03:18.2	91.330	0.270	-0.200	2.410
2020/01/31 07:03:18.3	91.350	0.260	-0.150	2.410
2020/01/31 07:03:18.4	91.360	0.250	-0.110	2.410
2020/01/31 07:03:18.5	91.380	0.230	-0.070	2.400
2020/01/31 07:03:18.6	91.390	0.220	-0.020	2.400
2020/01/31 07:03:18.7	91.400	0.200	0.020	2.390
2020/01/31 07:03:18.8	91.400	0.190	0.060	2.380
2020/01/31 07:03:18.9	91.410	0.170	0.100	2.370
2020/01/31 07:03:19.0	91.410	0.150	0.140	2.360
2020/01/31 07:03:19.1	91.410	0.130	0.180	2.350
2020/01/31 07:03:19.2	91.400	0.110	0.220	2.340
2020/01/31 07:03:19.3	91.390	0.090	0.260	2.330
2020/01/31 07:03:19.4	91.380	0.080	0.290	2.310
2020/01/31 07:03:19.5	91.370	0.060	0.320	2.300
2020/01/31 07:03:19.6	91.360	0.040	0.350	2.280
2020/01/31 07:03:19.7	91.350	0.020	0.370	2.260
2020/01/31 07:03:19.8	91.340	0.000	0.390	2.240
2020/01/31 07:03:19.9	91.320	-0.010	0.410	2.220
2020/01/31 07:03:20.0	91.310	-0.030	0.420	2.200
2020/01/31 07:03:20.1	91.290	-0.040	0.430	2.170
2020/01/31 07:03:20.2	91.290	-0.060	0.440	2.140
2020/01/31 07:03:20.3	91.270	-0.070	0.440	2.110
2020/01/31 07:03:20.4	91.250	-0.080	0.440	2.080
2020/01/31 07:03:20.5	91.230	-0.090	0.430	2.040
2020/01/31 07:03:20.6	91.220	-0.100	0.430	2.000
2020/01/31 07:03:20.7	91.200	-0.110	0.420	1.960
2020/01/31 07:03:20.8	91.180	-0.110	0.400	1.910
2020/01/31 07:03:20.9	91.170	-0.120	0.380	1.860
2020/01/31 07:03:21.0	91.150	-0.120	0.360	1.810
2020/01/31 07:03:21.1	91.140	-0.120	0.330	1.750
2020/01/31 07:03:21.2	91.130	-0.130	0.300	1.690
2020/01/31 07:03:21.3	91.120	-0.130	0.270	1.630
2020/01/31 07:03:21.4	91.110	-0.130	0.240	1.560
2020/01/31 07:03:21.5	91.100	-0.130	0.200	1.490
2020/01/31 07:03:21.6	91.100	-0.120	0.160	1.420
2020/01/31 07:03:21.7	91.090	-0.120	0.120	1.340
2020/01/31 07:03:21.8	91.090	-0.120	0.070	1.260
2020/01/31 07:03:21.9	91.090	-0.110	0.030	1.180
2020/01/31 07:03:22.0	91.090	-0.110	-0.020	1.100
2020/01/31 07:03:22.1	91.100	-0.100	-0.070	1.020
2020/01/31 07:03:22.2	91.090	-0.090	-0.120	0.930
2020/01/31 07:03:22.3	91.100	-0.090	-0.170	0.850
2020/01/31 07:03:22.4	91.100	-0.080	-0.220	0.770
2020/01/31 07:03:22.5	91.110	-0.070	-0.270	0.690
2020/01/31 07:03:22.6	91.120	-0.070	-0.320	0.620
2020/01/31 07:03:22.7	91.130	-0.060	-0.370	0.540
2020/01/31 07:03:22.8	91.140	-0.050	-0.410	0.470
2020/01/31 07:03:22.9	91.150	-0.050	-0.460	0.400
2020/01/31 07:03:23.0	91.160	-0.040	-0.500	0.330
2020/01/31 07:03:23.1	91.170	-0.030	-0.540	0.260
2020/01/31 07:03:23.2	91.170	-0.030	-0.580	0.200
2020/01/31 07:03:23.3	91.190	-0.020	-0.620	0.140
2020/01/31 07:03:23.4	91.200	-0.010	-0.650	0.090
2020/01/31 07:03:23.5	91.210	-0.010	-0.680	0.030
2020/01/31 07:03:23.6	91.220	-0.000	-0.710	-0.020
2020/01/31 07:03:23.7	91.230	-0.000	-0.730	-0.060
2020/01/31 07:03:23.8	91.240	0.000	-0.750	-0.110
2020/01/31 07:03:23.9	91.260	0.010	-0.760	-0.150
2020/01/31 07:03:24.0	91.270	0.010	-0.780	-0.190
2020/01/31 07:03:24.1	91.280	0.010	-0.780	-0.230
2020/01/31 07:03:24.2	91.290	0.010	-0.790	-0.260
2020/01/31 07:03:24.3	91.300	0.010	-0.790	-0.300
2020/01/31 07:03:24.4	91.310	0.010	-0.790	-0.330
2020/01/31 07:03:24.5	91.320	0.010	-0.780	-0.360
2020/01/31 07:03:24.6	91.340	0.010	-0.770	-0.390
2020/01/31 07:03:24.7	91.350	0.010	-0.760	-0.410
2020/01/31 07:03:24.8	91.360	0.010	-0.740	-0.440
2020/01/31 07:03:24.9	91.370	0.010	-0.720	-0.460
2020/01/31 07:03:25.0	91.380	0.010	-0.690	-0.490
2020/01/31 07:03:25.1	91.390	0.000	-0.670	-0.510
2020/01/31 07:03:25.2	91.400	0.000	-0.640	-0.520
2020/01/31 07:03:25.3	91.420	0.000	-0.610	-0.540
2020/01/31 07:03:25.4	91.430	-0.000	-0.570	-0.550
2020/01/31 07:03:25.5	91.440	-0.000	-0.540	-0.570
2020/01/31 07:03:25.6	91.450	-0.000	-0.500	-0.580
2020/01/31 07:03:25.7	91.460	-0.010	-0.470	-0.580
2020/01/31 07:03:25.8	91.460	-0.010	-0.430	-0.590
2020/01/31 07:03:25.9	91.470	-0.010	-0.390	-0.590
2020/01/31 07:03:26.0	91.480	-0.010	-0.350	-0.590
2020/01/31 07:03:26.1	91.490	-0.010	-0.320	-0.580
2020/01/31 07:03:26.2	91.480	-0.010	-0.280	-0.570
2020/01/31 07:03:26.3	91.490	-0.010	-0.250	-0.560
2020/01/31 07:03:26.4	91.500	-0.010	-0.210	-0.540
2020/01/31 07:03:26.5	91.500	-0.010	-0.180	-0.520
2020/01/31 07:03:26.6	91.500	-0.010	-0.140	-0.490
2020/01/31 07:03:26.7	91.510	-0.010	-0.110	-0.460
2020/01/31 07:03:26.8	91.510	-0.010	-0.080	-0.420
2020/01/31 07:03:26.9	91.510	-0.000	-0.050	-0.380
2020/01/31 07:03:27.0	91.510	-0.000	-0.030	-0.340
2020/01/31 07:03:27.1	91.510	-0.000	0.000	-0.290
2020/01/31 07:03:27.2	91.500	-0.000	0.030	-0.230
2020/01/31 07:03:27.3	91.490	-0.000	0.050	-0.180
2020/01/31 07:03:27.4	91.490	-0.010	0.070	-0.120
2020/01/31 07:03:27.5	91.490	-0.010	0.090	-0.060
2020/01/31 07:03:27.6	91.480	-0.010	0.110	0.010
2020/01/31 07:03:27.7	91.480	-0.010	0.130	0.070
2020/01/31 07:03:27.8	91.480	-0.020	0.150	0.140
2020/01/31 07:03:27.9	91.470	-0.020	0.170	0.210
2020/01/31 07:03:28.0	91.470	-0.030	0.190	0.280
2020/01/31 07:03:28.1	91.460	-0.030	0.200	0.350
2020/01/31 07:03:28.2	91.460	-0.040	0.220	0.410
2020/01/31 07:03:28.3	91.460	-0.040	0.230	0.480
2020/01/31 07:03:28.4	91.450	-0.050	0.250	0.550
2020/01/31 07:03:28.5	91.450	-0.060	0.260	0.620
2020/01/31 07:03:28.6	91.450	-0.070	0.280	0.680
2020/01/31 07:03:28.7	91.440	-0.080	0.290	0.750
2020/01/31 07:03:28.8	91.440	-0.080	0.310	0.810
2020/01/31 07:03:28.9	91.430	-0.090	0.320	0.880
2020/01/31 07:03:29.0	91.430	-0.100	0.330	0.940
2020/01/31 07:03:29.1	91.420	-0.110	0.340	1.000
2020/01/31 07:03:29.2	91.420	-0.120	0.350	1.060
2020/01/31 07:03:29.3	91.410	-0.130	0.360	1.120
2020/01/31 07:03:29.4	91.400	-0.140	0.370	1.180
2020/01/31 07:03:29.5	91.390	-0.140	0.370	1.240
2020/01/31 07:03:29.6	91.380	-0.150	0.370	1.300
2020/01/31 07:03:29.7	91.370	-0.150	0.370	1.350
2020/01/31 07:03:29.8	91.360	-0.160	0.370	1.410
2020/01/31 07:03:29.9	91.340	-0.160	0.370	1.460
2020/01/31 07:03:30.0	91.330	-0.160	0.360	1.520
2020/01/31 07:03:30.1	91.310	-0.160	0.340	1.570
2020/01/31 07:03:30.2	91.300	-0.160	0.330	1.620
2020/01/31 07:03:30.3	91.280	-0.150	0.310	1.670
2020/01/31 07:03:30.4	91.260	-0.150	0.280	1.720
2020/01/31 07:03:30.5	91.250	-0.140	0.260	1.760
2020/01/31 07:03:30.6	91.230	-0.130	0.220	1.800
2020/01/31 07:03:30.7	91.220	-0.120	0.190	1.840
2020/01/31 07:03:30.8	91.200	-0.100	0.150	1.880
2020/01/31 07:03:30.9	91.190	-0.090	0.110	1.910
2020/01/31 07:03:31.0	91.180	-0.070	0.060	1.940
2020/01/31 07:03:31.1	91.170	-0.060	0.020	1.970
2020/01/31 07:03:31.2	91.190	-0.040	-0.040	2.000
2020/01/31 07:03:31.3	91.180	-0.010	-0.090	2.020
2020/01/31 07:03:31.4	91.180	0.010	-0.150	2.040
2020/01/31 07:03:31.5	91.180	0.030	-0.200	2.060
2020/01/31 07:03:31.6	91.180	0.050	-0.260	2.080
2020/01/31 07:03:31.7	91.180	0.080	-0.320	2.090
2020/01/31 07:03:31.8	91.180	0.100	-0.370	2.100
2020/01/31 07:03:31.9	91.180	0.130	-0.430	2.100
2020/01/31 07:03:32.0	91.190	0.150	-0.480	2.110
2020/01/31 07:03:32.1	91.200	0.170	-0.530	2.110
2020/01/31 07:03:32.2	91.220	0.200	-0.580	2.100
2020/01/31 07:03:32.3	91.230	0.220	-0.630	2.100
2020/01/31 07:03:32.4	91.240	0.240	-0.670	2.100
2020/01/31 07:03:32.5	91.260	0.260	-0.710	2.090
2020/01/31 07:03:32.6	91.270	0.270	-0.740	2.080
2020/01/31 07:03:32.7	91.280	0.290	-0.770	2.060
2020/01/31 07:03:32.8	91.300	0.300	-0.790	2.050
2020/01/31 07:03:32.9	91.310	0.310	-0.810	2.030
2020/01/31 07:03:33.0	91.320	0.320	-0.820	2.010
2020/01/31 07:03:33.1	91.340	0.320	-0.830	1.990
2020/01/31 07:03:33.2	91.340	0.320	-0.840	1.960
2020/01/31 07:03:33.3	91.350	0.320	-0.830	1.940
2020/01/31 07:03:33.4	91.360	0.320	-0.820	1.910
2020/01/31 07:03:33.5	91.370	0.310	-0.810	1.880
2020/01/31 07:03:33.6	91.380	0.300	-0.780	1.840
2020/01/31 07:03:33.7	91.390	0.290	-0.760	1.810
2020/01/31 07:03:33.8	91.400	0.280	-0.730	1.770
2020/01/31 07:03:33.9	91.410	0.260	-0.690	1.730
2020/01/31 07:03:34.0	91.410	0.240	-0.650	1.680
2020/01/31 07:03:34.1	91.420	0.220	-0.610	1.640
2020/01/31 07:03:34.2	91.430	0.190	-0.560	1.590
2020/01/31 07:03:34.3	91.430	0.170	-0.510	1.540
2020/01/31 07:03:34.4	91.430	0.140	-0.460	1.490
2020/01/31 07:03:34.5	91.420	0.110	-0.410	1.440
2020/01/31 07:03:34.6	91.420	0.080	-0.360	1.390
2020/01/31 07:03:34.7	91.420	0.050	-0.300	1.330
2020/01/31 07:03:34.8	91.410	0.020	-0.250	1.280
2020/01/31 07:03:34.9	91.400	-0.010	-0.190	1.230
2020/01/31 07:03:35.0	91.400	-0.040	-0.140	1.170
2020/01/31 07:03:35.1	91.390	-0.070	-0.090	1.120
2020/01/31 07:03:35.2	91.360	-0.090	-0.040	1.060
2020/01/31 07:03:35.3	91.350	-0.120	0.010	1.010
2020/01/31 07:03:35.4	91.350	-0.150	0.050	0.960
2020/01/31 07:03:35.5	91.340	-0.170	0.100	0.910
2020/01/31 07:03:35.6	91.330	-0.190	0.130	0.860
2020/01/31 07:03:35.7	91.320	-0.210	0.170	0.800
2020/01/31 07:03:35.8	91.310	-0.230	0.200	0.750
2020/01/31 07:03:35.9	91.310	-0.250	0.220	0.700
2020/01/31 07:03:36.0	91.300	-0.260	0.240	0.650
2020/01/31 07:03:36.1	91.300	-0.270	0.260	0.600
2020/01/31 07:03:36.2	91.280	-0.280	0.270	0.550
2020/01/31 07:03:36.3	91.280	-0.280	0.270	0.500
2020/01/31 07:03:36.4	91.280	-0.290	0.280	0.460
2020/01/31 07:03:36.5	91.290	-0.290	0.270	0.410
2020/01/31 07:03:36.6	91.290	-0.280	0.270	0.360
2020/01/31 07:03:36.7	91.290	-0.280	0.260	0.310
2020/01/31 07:03:36.8	91.300	-0.270	0.240	0.270
2020/01/31 07:03:36.9	91.300	-0.260	0.230	0.220
2020/01/31 07:03:37.0	91.310	-0.250	0.210	0.180
2020/01/31 07:03:37.1	91.320	-0.240	0.190	0.130
2020/01/31 07:03:37.2	91.320	-0.230	0.160	0.090
2020/01/31 07:03:37.3	91.330	-0.210	0.140	0.050
2020/01/31 07:03:37.4	91.330	-0.200	0.110	0.010
2020/01/31 07:03:37.5	91.340	-0.180	0.090	-0.020
2020/01/31 07:03:37.6	91.350	-0.170	0.060	-0.060
2020/01/31 07:03:37.7	91.350	-0.150	0.040	-0.090
2020/01/31 07:03:37.8	91.360	-0.140	0.020	-0.120
2020/01/31 07:03:37.9	91.360	-0.120	-0.010	-0.150
2020/01/31 07:03:38.0	91.360	-0.110	-0.030	-0.180
2020/01/31 07:03:38.1	91.360	-0.090	-0.050	-0.210
2020/01/31 07:03:38.2	91.360	-0.080	-0.070	-0.230
2020/01/31 07:03:38.3	91.360	-0.070	-0.090	-0.250
2020/01/31 07:03:38.4	91.360	-0.060	-0.100	-0.270
2020/01/31 07:03:38.5	91.350	-0.050	-0.110	-0.280
2020/01/31 07:03:38.6	91.350	-0.040	-0.120	-0.300
2020/01/31 07:03:38.7	91.340	-0.040	-0.130	-0.310
2020/01/31 07:03:38.8	91.330	-0.030	-0.130	-0.320
2020/01/31 07:03:38.9	91.320	-0.030	-0.130	-0.330
2020/01/31 07:03:39.0	91.310	-0.030	-0.130	-0.340
2020/01/31 07:03:39.1	91.290	-0.030	-0.130	-0.350
2020/01/31 07:03:39.2	91.280	-0.030	-0.120	-0.350
2020/01/31 07:03:39.3	91.260	-0.030	-0.120	-0.350
2020/01/31 07:03:39.4	91.250	-0.040	-0.110	-0.350
2020/01/31 07:03:39.5	91.230	-0.040	-0.100	-0.350
2020/01/31 07:03:39.6	91.200	-0.050	-0.090	-0.340
2020/01/31 07:03:39.7	91.180	-0.060	-0.080	-0.340
2020/01/31 07:03:39.8	91.160	-0.070	-0.070	-0.330
2020/01/31 07:03:39.9	91.130	-0.080	-0.060	-0.320
2020/01/31 07:03:40.0	91.110	-0.090	-0.050	-0.310
2020/01/31 07:03:40.1	91.080	-0.100	-0.040	-0.290
2020/01/31 07:03:40.2	91.060	-0.110	-0.030	-0.280
2020/01/31 07:03:40.3	91.030	-0.110	-0.020	-0.260
2020/01/31 07:03:40.4	91.010	-0.120	-0.020	-0.250
2020/01/31 07:03:40.5	90.980	-0.130	-0.010	-0.230
2020/01/31 07:03:40.6	90.960	-0.140	-0.010	-0.210
2020/01/31 07:03:40.7	90.930	-0.140	-0.020	-0.200
2020/01/31 07:03:40.8	90.910	-0.150	-0.020	-0.180
2020/01/31 07:03:40.9	90.890	-0.150	-0.030	-0.160
2020/01/31 07:03:41.0	90.870	-0.150	-0.040	-0.140
2020/01/31 07:03:41.1	90.850	-0.150	-0.060	-0.130
2020/01/31 07:03:41.2	90.850	-0.140	-0.080	-0.110
2020/01/31 07:03:41.3	90.840	-0.140	-0.100	-0.100
2020/01/31 07:03:41.4	90.820	-0.130	-0.120	-0.090
2020/01/31 07:03:41.5	90.820	-0.120	-0.150	-0.080
2020/01/31 07:03:41.6	90.810	-0.110	-0.190	-0.070
2020/01/31 07:03:41.7	90.810	-0.090	-0.220	-0.060
2020/01/31 07:03:41.8	90.820	-0.070	-0.260	-0.050
2020/01/31 07:03:41.9	90.820	-0.050	-0.300	-0.040
2020/01/31 07:03:42.0	90.830	-0.030	-0.350	-0.030
2020/01/31 07:03:42.1	90.850	-0.010	-0.390	-0.030
2020/01/31 07:03:42.2	90.870	0.020	-0.440	-0.020
2020/01/31 07:03:42.3	90.890	0.040	-0.480	-0.020
2020/01/31 07:03:42.4	90.910	0.070	-0.530	-0.010
2020/01/31 07:03:42.5	90.940	0.100	-0.570	-0.010
2020/01/31 07:03:42.6	90.970	0.130	-0.610	-0.000
2020/01/31 07:03:42.7	91.000	0.160	-0.650	0.010
2020/01/31 07:03:42.8	91.040	0.190	-0.690	0.020
2020/01/31 07:03:42.9	91.070	0.220	-0.720	0.030
2020/01/31 07:03:43.0	91.110	0.250	-0.750	0.040
2020/01/31 07:03:43.1	91.150	0.280	-0.780	0.060
2020/01/31 07:03:43.2	91.190	0.310	-0.800	0.080
2020/01/31 07:03:43.3	91.230	0.340	-0.820	0.110
2020/01/31 07:03:43.4	91.270	0.360	-0.830	0.140
2020/01/31 07:03:43.5	91.300	0.390	-0.840	0.170
2020/01/31 07:03:43.6	91.340	0.410	-0.840	0.200
2020/01/31 07:03:43.7	91.370	0.430	-0.840	0.240
2020/01/31 07:03:43.8	91.400	0.440	-0.830	0.280
2020/01/31 07:03:43.9	91.430	0.450	-0.810	0.330
2020/01/31 07:03:44.0	91.450	0.460	-0.790	0.380
2020/01/31 07:03:44.1	91.470	0.470	-0.770	0.440
2020/01/31 07:03:44.2	91.480	0.470	-0.730	0.500
2020/01/31 07:03:44.3	91.490	0.470	-0.700	0.560
2020/01/31 07:03:44.4	91.490	0.470	-0.650	0.630
2020/01/31 07:03:44.5	91.500	0.460	-0.610	0.700
2020/01/31 07:03:44.6	91.500	0.450	-0.560	0.770
2020/01/31 07:03:44.7	91.490	0.440	-0.500	0.840
2020/01/31 07:03:44.8	91.480	0.420	-0.440	0.920
2020/01/31 07:03:44.9	91.470	0.400	-0.380	0.990
2020/01/31 07:03:45.0	91.460	0.380	-0.310	1.060
2020/01/31 07:03:45.1	91.440	0.350	-0.240	1.140
2020/01/31 07:03:45.2	91.410	0.320	-0.170	1.210
2020/01/31 07:03:45.3	91.380	0.290	-0.100	1.280
2020/01/31 07:03:45.4	91.360	0.250	-0.020	1.350
2020/01/31 07:03:45.5	91.330	0.210	0.050	1.410
2020/01/31 07:03:45.6	91.300	0.170	0.130	1.480
2020/01/31 07:03:45.7	91.270	0.130	0.200	1.540
2020/01/31 07:03:45.8	91.240	0.090	0.270	1.590
2020/01/31 07:03:45.9	91.210	0.050	0.340	1.650
2020/01/31 07:03:46.0	91.170	0.000	0.410	1.700
2020/01/31 07:03:46.1	91.140	-0.050	0.480	1.740
2020/01/31 07:03:46.2	91.110	-0.090	0.540	1.790
2020/01/31 07:03:46.3	91.080	-0.140	0.600	1.830
2020/01/31 07:03:46.4	91.050	-0.180	0.660	1.860
2020/01/31 07:03:46.5	91.020	-0.220	0.710	1.890
2020/01/31 07:03:46.6	91.000	-0.270	0.760	1.920
2020/01/31 07:03:46.7	90.970	-0.310	0.800	1.950
2020/01/31 07:03:46.8	90.950	-0.350	0.830	1.970
2020/01/31 07:03:46.9	90.930	-0.390	0.860	1.980
2020/01/31 07:03:47.0	90.910	-0.420	0.890	2.000
2020/01/31 07:03:47.1	90.890	-0.450	0.900	2.010
2020/01/31 07:03:47.2	90.880	-0.480	0.910	2.020
2020/01/31 07:03:47.3	90.860	-0.510	0.920	2.020
2020/01/31 07:03:47.4	90.850	-0.530	0.910	2.030
2020/01/31 07:03:47.5	90.840	-0.550	0.900	2.030
2020/01/31 07:03:47.6	90.840	-0.570	0.880	2.030
2020/01/31 07:03:47.7	90.830	-0.580	0.850	2.030
2020/01/31 07:03:47.8	90.830	-0.590	0.820	2.020
2020/01/31 07:03:47.9	90.830	-0.600	0.780	2.010
2020/01/31 07:03:48.0	90.830	-0.600	0.730	2.010
2020/01/31 07:03:48.1	90.830	-0.590	0.680	2.000
2020/01/31 07:03:48.2	90.840	-0.590	0.610	1.980
2020/01/31 07:03:48.3	90.840	-0.580	0.540	1.970
2020/01/31 07:03:48.4	90.850	-0.560	0.470	1.950
2020/01/31 07:03:48.5	90.850	-0.540	0.390	1.930
2020/01/31 07:03:48.6	90.860	-0.520	0.310	1.910
2020/01/31 07:03:48.7	90.870	-0.490	0.220	1.890
2020/01/31 07:03:48.8	90.890	-0.460	0.130	1.870
2020/01/31 07:03:48.9	90.900	-0.430	0.030	1.840
2020/01/31 07:03:49.0	90.920	-0.400	-0.070	1.810
2020/01/31 07:03:49.1	90.930	-0.360	-0.170	1.780
2020/01/31 07:03:49.2	90.960	-0.320	-0.270	1.740
2020/01/31 07:03:49.3	90.970	-0.270	-0.370	1.700
2020/01/31 07:03:49.4	90.990	-0.230	-0.470	1.660
2020/01/31 07:03:49.5	91.010	-0.180	-0.570	1.620
2020/01/31 07:03:49.6	91.030	-0.140	-0.670	1.580
2020/01/31 07:03:49.7	91.050	-0.090	-0.770	1.530
2020/01/31 07:03:49.8	91.070	-0.040	-0.860	1.490
2020/01/31 07:03:49.9	91.080	0.010	-0.950	1.440
2020/01/31 07:03:50.0	91.100	0.060	-1.040	1.390
2020/01/31 07:03:50.1	91.120	0.100	-1.120	1.340
2020/01/31 07:03:50.2	91.140	0.150	-1.190	1.290
2020/01/31 07:03:50.3	91.150	0.190	-1.260	1.230
2020/01/31 07:03:50.4	91.170	0.240	-1.310	1.180
2020/01/31 07:03:50.5	91.180	0.280	-1.360	1.130
2020/01/31 07:03:50.6	91.190	0.320	-1.400	1.080
2020/01/31 07:03:50.7	91.200	0.350	-1.430	1.030
2020/01/31 07:03:50.8	91.210	0.380	-1.460	0.980
2020/01/31 07:03:50.9	91.220	0.410	-1.470	0.930
2020/01/31 07:03:51.0	91.230	0.440	-1.470	0.880
2020/01/31 07:03:51.1	91.230	0.460	-1.460	0.830
2020/01/31 07:03:51.2	91.240	0.470	-1.430	0.790
2020/01/31 07:03:51.3	91.240	0.490	-1.400	0.750
2020/01/31 07:03:51.4	91.240	0.500	-1.360	0.710
2020/01/31 07:03:51.5	91.240	0.500	-1.310	0.670
2020/01/31 07:03:51.6	91.240	0.500	-1.250	0.630
2020/01/31 07:03:51.7	91.230	0.500	-1.180	0.600
2020/01/31 07:03:51.8	91.220	0.490	-1.090	0.570
2020/01/31 07:03:51.9	91.210	0.480	-1.010	0.540
2020/01/31 07:03:52.0	91.200	0.460	-0.910	0.520
2020/01/31 07:03:52.1	91.180	0.440	-0.810	0.500
2020/01/31 07:03:52.2	91.160	0.420	-0.690	0.480
2020/01/31 07:03:52.3	91.140	0.390	-0.580	0.470
2020/01/31 07:03:52.4	91.120	0.360	-0.460	0.460
2020/01/31 07:03:52.5	91.100	0.330	-0.340	0.450
2020/01/31 07:03:52.6	91.080	0.290	-0.220	0.440
2020/01/31 07:03:52.7	91.060	0.250	-0.090	0.440
2020/01/31 07:03:52.8	91.030	0.210	0.030	0.440
2020/01/31 07:03:52.9	91.010	0.170	0.160	0.450
2020/01/31 07:03:53.0	90.980	0.130	0.280	0.450
2020/01/31 07:03:53.1	90.960	0.080	0.400	0.460
2020/01/31 07:03:53.2	90.920	0.040	0.520	0.460
2020/01/31 07:03:53.3	90.890	-0.010	0.630	0.470
2020/01/31 07:03:53.4	90.870	-0.060	0.730	0.490
2020/01/31 07:03:53.5	90.840	-0.100	0.830	0.500
2020/01/31 07:03:53.6	90.820	-0.150	0.920	0.510
2020/01/31 07:03:53.7	90.790	-0.190	1.000	0.530
2020/01/31 07:03:53.8	90.770	-0.230	1.070	0.540
2020/01/31 07:03:53.9	90.750	-0.270	1.130	0.560
2020/01/31 07:03:54.0	90.730	-0.310	1.190	0.570
2020/01/31 07:03:54.1	90.710	-0.340	1.230	0.590
2020/01/31 07:03:54.2	90.700	-0.370	1.250	0.600
2020/01/31 07:03:54.3	90.690	-0.400	1.270	0.610
2020/01/31 07:03:54.4	90.670	-0.420	1.280	0.620
2020/01/31 07:03:54.5	90.660	-0.440	1.270	0.630
2020/01/31 07:03:54.6	90.660	-0.460	1.250	0.640
2020/01/31 07:03:54.7	90.650	-0.470	1.220	0.640
2020/01/31 07:03:54.8	90.650	-0.480	1.180	0.640
2020/01/31 07:03:54.9	90.640	-0.490	1.120	0.640
2020/01/31 07:03:55.0	90.650	-0.490	1.060	0.640
2020/01/31 07:03:55.1	90.650	-0.480	0.980	0.640
2020/01/31 07:03:55.2	90.660	-0.470	0.900	0.630
2020/01/31 07:03:55.3	90.670	-0.460	0.800	0.630
2020/01/31 07:03:55.4	90.680	-0.440	0.700	0.620
2020/01/31 07:03:55.5	90.700	-0.420	0.590	0.610
2020/01/31 07:03:55.6	90.710	-0.400	0.480	0.600
2020/01/31 07:03:55.7	90.730	-0.370	0.360	0.580
2020/01/31 07:03:55.8	90.740	-0.340	0.230	0.570
2020/01/31 07:03:55.9	90.760	-0.310	0.110	0.560
2020/01/31 07:03:56.0	90.780	-0.270	-0.020	0.550
2020/01/31 07:03:56.1	90.800	-0.230	-0.150	0.540
2020/01/31 07:03:56.2	90.810	-0.190	-0.290	0.520
2020/01/31 07:03:56.3	90.830	-0.140	-0.410	0.510
2020/01/31 07:03:56.4	90.840	-0.100	-0.540	0.500
2020/01/31 07:03:56.5	90.860	-0.050	-0.660	0.500
2020/01/31 07:03:56.6	90.880	-0.000	-0.770	0.490
2020/01/31 07:03:56.7	90.890	0.040	-0.890	0.490
2020/01/31 07:03:56.8	90.910	0.090	-0.990	0.490
2020/01/31 07:03:56.9	90.920	0.140	-1.090	0.490
2020/01/31 07:03:57.0	90.930	0.180	-1.180	0.500
2020/01/31 07:03:57.1	90.940	0.230	-1.260	0.500
2020/01/31 07:03:57.2	90.960	0.270	-1.330	0.510
2020/01/31 07:03:57.3	90.960	0.310	-1.390	0.530
2020/01/31 07:03:57.4	90.970	0.350	-1.440	0.540
2020/01/31 07:03:57.5	90.970	0.390	-1.480	0.560
2020/01/31 07:03:57.6	90.970	0.420	-1.510	0.580
2020/01/31 07:03:57.7	90.960	0.460	-1.530	0.600
2020/01/31 07:03:57.8	90.960	0.480	-1.530	0.620
2020/01/31 07:03:57.9	90.950	0.510	-1.530	0.650
2020/01/31 07:03:58.0	90.940	0.530	-1.510	0.680
2020/01/31 07:03:58.1	90.930	0.550	-1.490	0.710
2020/01/31 07:03:58.2	90.930	0.560	-1.450	0.740
2020/01/31 07:03:58.3	90.920	0.570	-1.410	0.780
2020/01/31 07:03:58.4	90.900	0.580	-1.350	0.820
2020/01/31 07:03:58.5	90.880	0.580	-1.290	0.860
2020/01/31 07:03:58.6	90.870	0.580	-1.220	0.900
2020/01/31 07:03:58.7	90.850	0.570	-1.140	0.950
2020/01/31 07:03:58.8	90.830	0.560	-1.050	1.000
2020/01/31 07:03:58.9	90.800	0.550	-0.960	1.050
2020/01/31 07:03:59.0	90.780	0.530	-0.860	1.100
2020/01/31 07:03:59.1	90.760	0.510	-0.760	1.150
2020/01/31 07:03:59.2	90.740	0.490	-0.660	1.210
2020/01/31 07:03:59.3	90.720	0.470	-0.550	1.260
2020/01/31 07:03:59.4	90.700	0.440	-0.450	1.320
2020/01/31 07:03:59.5	90.670	0.410	-0.340	1.380
2020/01/31 07:03:59.6	90.650	0.380	-0.240	1.440
2020/01/31 07:03:59.7	90.630	0.350	-0.130	1.490
2020/01/31 07:03:59.8	90.600	0.310	-0.030	1.550
2020/01/31 07:03:59.9	90.580	0.280	0.070	1.610
2020/01/31 07:04:00.0	90.560	0.250	0.160	1.660
2020/01/31 07:04:00.1	90.550	0.210	0.250	1.710
2020/01/31 07:04:00.2	90.550	0.180	0.330	1.760
2020/01/31 07:04:00.3	90.530	0.140	0.410	1.810
2020/01/31 07:04:00.4	90.520	0.110	0.480	1.850
2020/01/31 07:04:00.5	90.510	0.080	0.550	1.890
2020/01/31 07:04:00.6	90.510	0.050	0.610	1.920
2020/01/31 07:04:00.7	90.500	0.020	0.660	1.950
2020/01/31 07:04:00.8	90.500	-0.010	0.700	1.980
2020/01/31 07:04:00.9	90.510	-0.040	0.730	2.000
2020/01/31 07:04:01.0	90.510	-0.060	0.760	2.020
2020/01/31 07:04:01.1	90.520	-0.090	0.780	2.040
2020/01/31 07:04:01.2	90.530	-0.110	0.800	2.040
2020/01/31 07:04:01.3	90.540	-0.130	0.800	2.050
2020/01/31 07:04:01.4	90.550	-0.150	0.800	2.050
2020/01/31 07:04:01.5	90.570	-0.160	0.790	2.050
2020/01/31 07:04:01.6	90.580	-0.180	0.780	2.040
2020/01/31 07:04:01.7	90.600	-0.190	0.750	2.030
2020/01/31 07:04:01.8	90.620	-0.200	0.730	2.010
2020/01/31 07:04:01.9	90.640	-0.210	0.700	1.990
2020/01/31 07:04:02.0	90.660	-0.210	0.660	1.970
2020/01/31 07:04:02.1	90.680	-0.220	0.620	1.940
2020/01/31 07:04:02.2	90.700	-0.220	0.570	1.900
2020/01/31 07:04:02.3	90.730	-0.230	0.530	1.870
2020/01/31 07:04:02.4	90.750	-0.230	0.480	1.830
2020/01/31 07:04:02.5	90.770	-0.230	0.420	1.790
2020/01/31 07:04:02.6	90.790	-0.220	0.370	1.750
2020/01/31 07:04:02.7	90.810	-0.220	0.320	1.710
2020/01/31 07:04:02.8	90.830	-0.220	0.260	1.660
2020/01/31 07:04:02.9	90.850	-0.220	0.200	1.610
2020/01/31 07:04:03.0	90.870	-0.210	0.150	1.560
2020/01/31 07:04:03.1	90.890	-0.210	0.090	1.500
2020/01/31 07:04:03.2	90.910	-0.200	0.040	1.440
2020/01/31 07:04:03.3	90.920	-0.190	-0.010	1.390
2020/01/31 07:04:03.4	90.940	-0.190	-0.060	1.330
2020/01/31 07:04:03.5	90.960	-0.180	-0.110	1.270
2020/01/31 07:04:03.6	90.970	-0.170	-0.160	1.200
2020/01/31 07:04:03.7	90.990	-0.170	-0.200	1.140
2020/01/31 07:04:03.8	91.000	-0.160	-0.240	1.080
2020/01/31 07:04:03.9	91.010	-0.150	-0.280	1.010
2020/01/31 07:04:04.0	91.030	-0.150	-0.310	0.950
2020/01/31 07:04:04.1	91.040	-0.140	-0.340	0.890
2020/01/31 07:04:04.2	91.040	-0.130	-0.370	0.830
2020/01/31 07:04:04.3	91.040	-0.130	-0.400	0.770
2020/01/31 07:04:04.4	91.050	-0.120	-0.420	0.710
2020/01/31 07:04:04.5	91.060	-0.110	-0.440	0.660
2020/01/31 07:04:04.6	91.060	-0.110	-0.450	0.610
2020/01/31 07:04:04.7	91.070	-0.100	-0.460	0.560
2020/01/31 07:04:04.8	91.070	-0.100	-0.470	0.510
2020/01/31 07:04:04.9	91.070	-0.090	-0.480	0.470
2020/01/31 07:04:05.0	91.070	-0.090	-0.480	0.430
2020/01/31 07:04:05.1	91.070	-0.080	-0.490	0.390
2020/01/31 07:04:05.2	91.070	-0.080	-0.490	0.350
2020/01/31 07:04:05.3	91.070	-0.070	-0.490	0.320
2020/01/31 07:04:05.4	91.070	-0.070	-0.480	0.300
2020/01/31 07:04:05.5	91.060	-0.070	-0.480	0.270
2020/01/31 07:04:05.6	91.060	-0.060	-0.480	0.250
2020/01/31 07:04:05.7	91.060	-0.060	-0.470	0.240
2020/01/31 07:04:05.8	91.060	-0.060	-0.470	0.230
2020/01/31 07:04:05.9	91.050	-0.050	-0.470	0.220
2020/01/31 07:04:06.0	91.050	-0.050	-0.460	0.220
2020/01/31 07:04:06.1	91.050	-0.050	-0.460	0.220
2020/01/31 07:04:06.2	91.040	-0.050	-0.460	0.220
2020/01/31 07:04:06.3	91.040	-0.040	-0.450	0.230
2020/01/31 07:04:06.4	91.040	-0.040	-0.450	0.230
2020/01/31 07:04:06.5	91.040	-0.040	-0.450	0.250
2020/01/31 07:04:06.6	91.040	-0.040	-0.450	0.260
2020/01/31 07:04:06.7	91.030	-0.030	-0.450	0.270
2020/01/31 07:04:06.8	91.040	-0.030	-0.440	0.290
2020/01/31 07:04:06.9	91.040	-0.030	-0.440	0.310
2020/01/31 07:04:07.0	91.040	-0.030	-0.440	0.320
2020/01/31 07:04:07.1	91.040	-0.030	-0.440	0.340
2020/01/31 07:04:07.2	91.040	-0.020	-0.430	0.360
2020/01/31 07:04:07.3	91.040	-0.020	-0.430	0.380
2020/01/31 07:04:07.4	91.050	-0.020	-0.420	0.390
2020/01/31 07:04:07.5	91.050	-0.020	-0.420	0.410
2020/01/31 07:04:07.6	91.060	-0.020	-0.410	0.420
2020/01/31 07:04:07.7	91.060	-0.010	-0.410	0.440
2020/01/31 07:04:07.8	91.070	-0.010	-0.400	0.450
2020/01/31 07:04:07.9	91.080	-0.010	-0.390	0.460
2020/01/31 07:04:08.0	91.090	-0.010	-0.370	0.470
2020/01/31 07:04:08.1	91.100	-0.010	-0.360	0.480
2020/01/31 07:04:08.2	91.100	-0.010	-0.350	0.480
2020/01/31 07:04:08.3	91.110	-0.010	-0.330	0.490
2020/01/31 07:04:08.4	91.120	-0.010	-0.320	0.490
2020/01/31 07:04:08.5	91.130	-0.010	-0.300	0.500
2020/01/31 07:04:08.6	91.140	-0.010	-0.280	0.500
2020/01/31 07:04:08.7	91.150	-0.010	-0.260	0.500
2020/01/31 07:04:08.8	91.160	-0.010	-0.230	0.500
2020/01/31 07:04:08.9	91.180	-0.010	-0.210	0.500
2020/01/31 07:04:09.0	91.190	-0.010	-0.190	0.500
2020/01/31 07:04:09.1	91.200	-0.010	-0.160	0.500
2020/01/31 07:04:09.2	91.220	-0.010	-0.140	0.500
2020/01/31 07:04:09.3	91.230	-0.010	-0.110	0.500
2020/01/31 07:04:09.4	91.250	-0.010	-0.080	0.500
2020/01/31 07:04:09.5	91.260	-0.000	-0.050	0.490
2020/01/31 07:04:09.6	91.280	-0.000	-0.030	0.490
2020/01/31 07:04:09.7	91.290	-0.000	0.000	0.490
2020/01/31 07:04:09.8	91.310	-0.000	0.030	0.480
2020/01/31 07:04:09.9	91.320	0.000	0.050	0.480
2020/01/31 07:04:10.0	91.340	0.000	0.080	0.480
2020/01/31 07:04:10.1	91.360	0.000	0.100	0.480
2020/01/31 07:04:10.2	91.380	0.010	0.130	0.470
2020/01/31 07:04:10.3	91.400	0.010	0.150	0.470
2020/01/31 07:04:10.4	91.410	0.010	0.170	0.470
2020/01/31 07:04:10.5	91.430	0.020	0.190	0.470
2020/01/31 07:04:10.6	91.450	0.020	0.200	0.470
2020/01/31 07:04:10.7	91.470	0.030	0.220	0.470
2020/01/31 07:04:10.8	91.490	0.030	0.230	0.470
2020/01/31 07:04:10.9	91.500	0.040	0.240	0.480
2020/01/31 07:04:11.0	91.520	0.040	0.250	0.480
2020/01/31 07:04:11.1	91.540	0.050	0.250	0.490
2020/01/31 07:04:11.2	91.540	0.050	0.250	0.490
2020/01/31 07:04:11.3	91.550	0.060	0.250	0.500
2020/01/31 07:04:11.4	91.570	0.070	0.250	0.510
2020/01/31 07:04:11.5	91.580	0.070	0.240	0.520
2020/01/31 07:04:11.6	91.590	0.080	0.230	0.540
2020/01/31 07:04:11.7	91.610	0.080	0.220	0.550
2020/01/31 07:04:11.8	91.620	0.090	0.200	0.570
2020/01/31 07:04:11.9	91.630	0.090	0.180	0.590
2020/01/31 07:04:12.0	91.640	0.100	0.160	0.610
2020/01/31 07:04:12.1	91.650	0.110	0.140	0.630
2020/01/31 07:04:12.2	91.640	0.110	0.110	0.650
2020/01/31 07:04:12.3	91.650	0.120	0.090	0.670
2020/01/31 07:04:12.4	91.660	0.120	0.060	0.690
2020/01/31 07:04:12.5	91.660	0.130	0.030	0.720
2020/01/31 07:04:12.6	91.660	0.130	-0.000	0.740
2020/01/31 07:04:12.7	91.670	0.130	-0.040	0.770
2020/01/31 07:04:12.8	91.670	0.140	-0.070	0.790
2020/01/31 07:04:12.9	91.670	0.140	-0.100	0.810
2020/01/31 07:04:13.0	91.680	0.140	-0.140	0.840
2020/01/31 07:04:13.1	91.680	0.150	-0.170	0.860
2020/01/31 07:04:13.2	91.680	0.150	-0.210	0.880
2020/01/31 07:04:13.3	91.680	0.150	-0.240	0.900
2020/01/31 07:04:13.4	91.690	0.150	-0.270	0.920
2020/01/31 07:04:13.5	91.690	0.150	-0.300	0.940
2020/01/31 07:04:13.6	91.690	0.150	-0.330	0.960
2020/01/31 07:04:13.7	91.690	0.150	-0.350	0.980
2020/01/31 07:04:13.8	91.700	0.150	-0.370	1.000
2020/01/31 07:04:13.9	91.700	0.150	-0.390	1.020
2020/01/31 07:04:14.0	91.700	0.150	-0.410	1.040
2020/01/31 07:04:14.1	91.710	0.140	-0.420	1.060
2020/01/31 07:04:14.2	91.720	0.140	-0.430	1.080
2020/01/31 07:04:14.3	91.730	0.130	-0.430	1.100
2020/01/31 07:04:14.4	91.730	0.130	-0.440	1.120
2020/01/31 07:04:14.5	91.740	0.120	-0.440	1.140
2020/01/31 07:04:14.6	91.750	0.120	-0.430	1.160
2020/01/31 07:04:14.7	91.760	0.110	-0.430	1.180
2020/01/31 07:04:14.8	91.760	0.100	-0.420	1.200
2020/01/31 07:04:14.9	91.770	0.100	-0.410	1.220
2020/01/31 07:04:15.0	91.780	0.090	-0.390	1.240
2020/01/31 07:04:15.1	91.790	0.080	-0.380	1.260
2020/01/31 07:04:15.2	91.810	0.070	-0.360	1.290
2020/01/31 07:04:15.3	91.820	0.070	-0.340	1.310
2020/01/31 07:04:15.4	91.820	0.060	-0.320	1.330
2020/01/31 07:04:15.5	91.830	0.050	-0.300	1.350
2020/01/31 07:04:15.6	91.840	0.050	-0.290	1.370
2020/01/31 07:04:15.7	91.850	0.040	-0.270	1.390
2020/01/31 07:04:15.8	91.860	0.030	-0.250	1.410
2020/01/31 07:04:15.9	91.860	0.030	-0.230	1.430
2020/01/31 07:04:16.0	91.870	0.030	-0.220	1.450
2020/01/31 07:04:16.1	91.880	0.020	-0.210	1.460
2020/01/31 07:04:16.2	91.890	0.020	-0.200	1.480
2020/01/31 07:04:16.3	91.890	0.020	-0.190	1.490
2020/01/31 07:04:16.4	91.900	0.020	-0.180	1.500
2020/01/31 07:04:16.5	91.900	0.020	-0.180	1.510
2020/01/31 07:04:16.6	91.910	0.030	-0.180	1.520
2020/01/31 07:04:16.7	91.910	0.030	-0.180	1.530
2020/01/31 07:04:16.8	91.920	0.040	-0.190	1.530
2020/01/31 07:04:16.9	91.920	0.040	-0.200	1.540
2020/01/31 07:04:17.0	91.930	0.050	-0.210	1.540
2020/01/31 07:04:17.1	91.930	0.060	-0.220	1.540
2020/01/31 07:04:17.2	91.940	0.070	-0.230	1.540
2020/01/31 07:04:17.3	91.940	0.080	-0.250	1.540
2020/01/31 07:04:17.4	91.950	0.090	-0.260	1.530
2020/01/31 07:04:17.5	91.960	0.100	-0.280	1.530
2020/01/31 07:04:17.6	91.960	0.120	-0.300	1.520
2020/01/31 07:04:17.7	91.970	0.130	-0.320	1.520
2020/01/31 07:04:17.8	91.980	0.140	-0.340	1.510
2020/01/31 07:04:17.9	91.990	0.150	-0.350	1.500
2020/01/31 07:04:18.0	92.000	0.170	-0.370	1.490
2020/01/31 07:04:18.1	92.010	0.180	-0.380	1.480
2020/01/31 07:04:18.2	92.020	0.190	-0.390	1.470
2020/01/31 07:04:18.3	92.040	0.200	-0.400	1.460
2020/01/31 07:04:18.4	92.050	0.210	-0.410	1.440
2020/01/31 07:04:18.5	92.070	0.210	-0.420	1.430
2020/01/31 07:04:18.6	92.090	0.220	-0.420	1.420
2020/01/31 07:04:18.7	92.100	0.220	-0.420	1.400
2020/01/31 07:04:18.8	92.120	0.220	-0.420	1.390
2020/01/31 07:04:18.9	92.140	0.220	-0.410	1.370
2020/01/31 07:04:19.0	92.160	0.220	-0.400	1.360
2020/01/31 07:04:19.1	92.180	0.210	-0.380	1.340
2020/01/31 07:04:19.2	92.210	0.200	-0.370	1.320
2020/01/31 07:04:19.3	92.230	0.190	-0.340	1.310
2020/01/31 07:04:19.4	92.250	0.180	-0.310	1.290
2020/01/31 07:04:19.5	92.270	0.160	-0.280	1.270
2020/01/31 07:04:19.6	92.290	0.140	-0.240	1.250
2020/01/31 07:04:19.7	92.310	0.120	-0.210	1.240
2020/01/31 07:04:19.8	92.330	0.090	-0.160	1.220
2020/01/31 07:04:19.9	92.350	0.070	-0.120	1.200
2020/01/31 07:04:20.0	92.370	0.040	-0.070	1.180
2020/01/31 07:04:20.1	92.390	0.010	-0.020	1.160
2020/01/31 07:04:20.2	92.400	-0.030	0.030	1.140
2020/01/31 07:04:20.3	92.410	-0.060	0.080	1.120
2020/01/31 07:04:20.4	92.430	-0.100	0.130	1.100
2020/01/31 07:04:20.5	92.440	-0.130	0.180	1.080
2020/01/31 07:04:20.6	92.460	-0.170	0.230	1.060
2020/01/31 07:04:20.7	92.470	-0.210	0.280	1.040
2020/01/31 07:04:20.8	92.480	-0.250	0.320	1.020
2020/01/31 07:04:20.9	92.490	-0.290	0.370	1.000
2020/01/31 07:04:21.0	92.490	-0.320	0.410	0.980
2020/01/31 07:04:21.1	92.500	-0.360	0.450	0.960
2020/01/31 07:04:21.2	92.510	-0.400	0.480	0.940
2020/01/31 07:04:21.3	92.510	-0.430	0.520	0.920
2020/01/31 07:04:21.4	92.520	-0.470	0.540	0.900
2020/01/31 07:04:21.5	92.520	-0.500	0.570	0.880
2020/01/31 07:04:21.6	92.520	-0.530	0.590	0.860
2020/01/31 07:04:21.7	92.520	-0.550	0.600	0.840
2020/01/31 07:04:21.8	92.520	-0.580	0.610	0.820
2020/01/31 07:04:21.9	92.520	-0.600	0.620	0.810
2020/01/31 07:04:22.0	92.520	-0.620	0.620	0.790
2020/01/31 07:04:22.1	92.520	-0.640	0.620	0.770
2020/01/31 07:04:22.2	92.520	-0.650	0.610	0.760
2020/01/31 07:04:22.3	92.520	-0.660	0.600	0.740
2020/01/31 07:04:22.4	92.520	-0.670	0.590	0.730
2020/01/31 07:04:22.5	92.510	-0.670	0.570	0.720
2020/01/31 07:04:22.6	92.510	-0.670	0.540	0.710
2020/01/31 07:04:22.7	92.510	-0.670	0.510	0.700
2020/01/31 07:04:22.8	92.500	-0.660	0.480	0.700
2020/01/31 07:04:22.9	92.500	-0.660	0.440	0.700
2020/01/31 07:04:23.0	92.490	-0.640	0.400	0.690
2020/01/31 07:04:23.1	92.490	-0.630	0.360	0.690
2020/01/31 07:04:23.2	92.480	-0.610	0.310	0.700
2020/01/31 07:04:23.3	92.480	-0.590	0.260	0.700
2020/01/31 07:04:23.4	92.470	-0.570	0.210	0.710
2020/01/31 07:04:23.5	92.460	-0.540	0.150	0.720
2020/01/31 07:04:23.6	92.450	-0.520	0.090	0.730
2020/01/31 07:04:23.7	92.440	-0.480	0.030	0.740
2020/01/31 07:04:23.8	92.430	-0.450	-0.030	0.750
2020/01/31 07:04:23.9	92.420	-0.420	-0.090	0.760
2020/01/31 07:04:24.0	92.410	-0.380	-0.160	0.780
2020/01/31 07:04:24.1	92.400	-0.340	-0.230	0.790
2020/01/31 07:04:24.2	92.380	-0.300	-0.300	0.810
2020/01/31 07:04:24.3	92.370	-0.260	-0.370	0.820
2020/01/31 07:04:24.4	92.360	-0.220	-0.440	0.840
2020/01/31 07:04:24.5	92.350	-0.170	-0.510	0.850
2020/01/31 07:04:24.6	92.330	-0.130	-0.580	0.870
2020/01/31 07:04:24.7	92.320	-0.090	-0.640	0.880
2020/01/31 07:04:24.8	92.310	-0.040	-0.710	0.900
2020/01/31 07:04:24.9	92.300	0.000	-0.770	0.910
2020/01/31 07:04:25.0	92.290	0.050	-0.830	0.920
2020/01/31 07:04:25.1	92.280	0.090	-0.890	0.940
2020/01/31 07:04:25.2	92.270	0.140	-0.950	0.950
2020/01/31 07:04:25.3	92.260	0.180	-1.000	0.960
2020/01/31 07:04:25.4	92.250	0.220	-1.040	0.960
2020/01/31 07:04:25.5	92.230	0.260	-1.090	0.970
2020/01/31 07:04:25.6	92.220	0.300	-1.120	0.980
2020/01/31 07:04:25.7	92.210	0.340	-1.150	0.980
2020/01/31 07:04:25.8	92.200	0.370	-1.180	0.980
2020/01/31 07:04:25.9	92.190	0.410	-1.200	0.980
2020/01/31 07:04:26.0	92.180	0.440	-1.210	0.980
2020/01/31 07:04:26.1	92.160	0.470	-1.220	0.970
2020/01/31 07:04:26.2	92.160	0.500	-1.220	0.970
2020/01/31 07:04:26.3	92.140	0.520	-1.220	0.960
2020/01/31 07:04:26.4	92.130	0.550	-1.200	0.950
2020/01/31 07:04:26.5	92.120	0.570	-1.190	0.940
2020/01/31 07:04:26.6	92.110	0.580	-1.160	0.930
2020/01/31 07:04:26.7	92.100	0.600	-1.130	0.920
2020/01/31 07:04:26.8	92.090	0.610	-1.100	0.900
2020/01/31 07:04:26.9	92.090	0.620	-1.060	0.890
2020/01/31 07:04:27.0	92.080	0.630	-1.010	0.870
2020/01/31 07:04:27.1	92.070	0.640	-0.960	0.860
2020/01/31 07:04:27.2	92.070	0.640	-0.900	0.840
2020/01/31 07:04:27.3	92.070	0.640	-0.840	0.820
2020/01/31 07:04:27.4	92.060	0.640	-0.780	0.800
2020/01/31 07:04:27.5	92.060	0.640	-0.720	0.780
2020/01/31 07:04:27.6	92.050	0.640	-0.650	0.760
2020/01/31 07:04:27.7	92.050	0.630	-0.580	0.750
2020/01/31 07:04:27.8	92.050	0.620	-0.510	0.730
2020/01/31 07:04:27.9	92.050	0.620	-0.440	0.710
2020/01/31 07:04:28.0	92.040	0.600	-0.380	0.690
2020/01/31 07:04:28.1	92.040	0.590	-0.310	0.670
2020/01/31 07:04:28.2	92.050	0.580	-0.240	0.650
2020/01/31 07:04:28.3	92.050	0.570	-0.170	0.640
2020/01/31 07:04:28.4	92.050	0.550	-0.110	0.620
2020/01/31 07:04:28.5	92.060	0.530	-0.050	0.610
2020/01/31 07:04:28.6	92.060	0.520	0.020	0.590
2020/01/31 07:04:28.7	92.060	0.500	0.070	0.580
2020/01/31 07:04:28.8	92.070	0.480	0.130	0.570
2020/01/31 07:04:28.9	92.080	0.460	0.180	0.550
2020/01/31 07:04:29.0	92.080	0.440	0.230	0.540
2020/01/31 07:04:29.1	92.090	0.420	0.280	0.530
2020/01/31 07:04:29.2	92.090	0.400	0.330	0.520
2020/01/31 07:04:29.3	92.090	0.380	0.370	0.510
2020/01/31 07:04:29.4	92.100	0.350	0.400	0.510
2020/01/31 07:04:29.5	92.110	0.330	0.440	0.500
2020/01/31 07:04:29.6	92.120	0.310	0.470	0.500
2020/01/31 07:04:29.7	92.130	0.280	0.490	0.500
2020/01/31 07:04:29.8	92.140	0.260	0.520	0.500
2020/01/31 07:04:29.9	92.150	0.230	0.540	0.500
2020/01/31 07:04:30.0	92.150	0.210	0.560	0.510
2020/01/31 07:04:30.1	92.160	0.180	0.570	0.510
2020/01/31 07:04:30.2	92.170	0.150	0.580	0.520
2020/01/31 07:04:30.3	92.170	0.120	0.590	0.530
2020/01/31 07:04:30.4	92.180	0.090	0.600	0.540
2020/01/31 07:04:30.5	92.180	0.060	0.600	0.560
2020/01/31 07:04:30.6	92.190	0.030	0.600	0.580
2020/01/31 07:04:30.7	92.190	0.000	0.610	0.590
2020/01/31 07:04:30.8	92.190	-0.030	0.600	0.610
2020/01/31 07:04:30.9	92.200	-0.060	0.600	0.640
2020/01/31 07:04:31.0	92.200	-0.100	0.600	0.660
2020/01/31 07:04:31.1	92.200	-0.130	0.590	0.690
2020/01/31 07:04:31.2	92.190	-0.160	0.590	0.710
2020/01/31 07:04:31.3	92.200	-0.200	0.580	0.740
2020/01/31 07:04:31.4	92.200	-0.230	0.570	0.770
2020/01/31 07:04:31.5	92.210	-0.260	0.550	0.800
2020/01/31 07:04:31.6	92.210	-0.300	0.540	0.830
2020/01/31 07:04:31.7	92.220	-0.330	0.520	0.860
2020/01/31 07:04:31.8	92.220	-0.360	0.500	0.900
2020/01/31 07:04:31.9	92.230	-0.390	0.480	0.930
2020/01/31 07:04:32.0	92.240	-0.420	0.460	0.970
2020/01/31 07:04:32.1	92.250	-0.450	0.430	1.010
2020/01/31 07:04:32.2	92.250	-0.480	0.400	1.040
2020/01/31 07:04:32.3	92.270	-0.510	0.370	1.080
2020/01/31 07:04:32.4	92.280	-0.530	0.340	1.120
2020/01/31 07:04:32.5	92.290	-0.560	0.310	1.160
2020/01/31 07:04:32.6	92.300	-0.580	0.270	1.190
2020/01/31 07:04:32.7	92.310	-0.600	0.240	1.230
2020/01/31 07:04:32.8	92.320	-0.610	0.200	1.270
2020/01/31 07:04:32.9	92.330	-0.630	0.160	1.310
2020/01/31 07:04:33.0	92.340	-0.640	0.120	1.350
2020/01/31 07:04:33.1	92.350	-0.650	0.080	1.390
2020/01/31 07:04:33.2	92.360	-0.660	0.040	1.430
2020/01/31 07:04:33.3	92.370	-0.670	-0.000	1.470
2020/01/31 07:04:33.4	92.380	-0.670	-0.050	1.510
2020/01/31 07:04:33.5	92.380	-0.670	-0.090	1.550
2020/01/31 07:04:33.6	92.390	-0.670	-0.140	1.590
2020/01/31 07:04:33.7	92.390	-0.670	-0.190	1.630
2020/01/31 07:04:33.8	92.390	-0.660	-0.230	1.670
2020/01/31 07:04:33.9	92.390	-0.650	-0.280	1.700
2020/01/31 07:04:34.0	92.390	-0.640	-0.320	1.740
2020/01/31 07:04:34.1	92.380	-0.630	-0.370	1.770
2020/01/31 07:04:34.2	92.380	-0.610	-0.420	1.800
2020/01/31 07:04:34.3	92.370	-0.590	-0.460	1.830
2020/01/31 07:04:34.4	92.360	-0.570	-0.510	1.860
2020/01/31 07:04:34.5	92.350	-0.550	-0.550	1.890
2020/01/31 07:04:34.6	92.340	-0.530	-0.590	1.920
2020/01/31 07:04:34.7	92.330	-0.500	-0.630	1.940
2020/01/31 07:04:34.8	92.320	-0.470	-0.670	1.960
2020/01/31 07:04:34.9	92.300	-0.440	-0.700	1.980
2020/01/31 07:04:35.0	92.290	-0.410	-0.740	2.000
2020/01/31 07:04:35.1	92.270	-0.380	-0.770	2.020
2020/01/31 07:04:35.2	92.250	-0.340	-0.790	2.030
2020/01/31 07:04:35.3	92.230	-0.310	-0.820	2.040
2020/01/31 07:04:35.4	92.210	-0.270	-0.840	2.050
2020/01/31 07:04:35.5	92.190	-0.230	-0.860	2.060
2020/01/31 07:04:35.6	92.170	-0.190	-0.880	2.060
2020/01/31 07:04:35.7	92.150	-0.160	-0.900	2.060
2020/01/31 07:04:35.8	92.130	-0.120	-0.910	2.060
2020/01/31 07:04:35.9	92.110	-0.080	-0.920	2.060
2020/01/31 07:04:36.0	92.090	-0.040	-0.930	2.050
2020/01/31 07:04:36.1	92.070	-0.000	-0.930	2.040
2020/01/31 07:04:36.2	92.050	0.040	-0.940	2.020
2020/01/31 07:04:36.3	92.030	0.080	-0.940	2.010
2020/01/31 07:04:36.4	92.010	0.110	-0.930	1.990
2020/01/31 07:04:36.5	92.000	0.150	-0.920	1.970
2020/01/31 07:04:36.6	91.980	0.180	-0.910	1.940
2020/01/31 07:04:36.7	91.970	0.220	-0.890	1.920
2020/01/31 07:04:36.8	91.960	0.250	-0.870	1.880
2020/01/31 07:04:36.9	91.950	0.280	-0.850	1.850
2020/01/31 07:04:37.0	91.940	0.310	-0.830	1.810
2020/01/31 07:04:37.1	91.940	0.330	-0.800	1.770
2020/01/31 07:04:37.2	91.940	0.360	-0.760	1.730
2020/01/31 07:04:37.3	91.940	0.380	-0.730	1.690
2020/01/31 07:04:37.4	91.940	0.400	-0.690	1.640
2020/01/31 07:04:37.5	91.940	0.410	-0.640	1.590
2020/01/31 07:04:37.6	91.940	0.430	-0.600	1.530
2020/01/31 07:04:37.7	91.950	0.440	-0.550	1.480
2020/01/31 07:04:37.8	91.960	0.450	-0.500	1.420
2020/01/31 07:04:37.9	91.970	0.450	-0.450	1.360
2020/01/31 07:04:38.0	91.980	0.450	-0.390	1.300
2020/01/31 07:04:38.1	91.990	0.450	-0.340	1.240
2020/01/31 07:04:38.2	92.010	0.450	-0.280	1.170
2020/01/31 07:04:38.3	92.030	0.440	-0.220	1.100
2020/01/31 07:04:38.4	92.040	0.430	-0.160	1.030
2020/01/31 07:04:38.5	92.060	0.420	-0.100	0.970
2020/01/31 07:04:38.6	92.070	0.400	-0.040	0.900
2020/01/31 07:04:38.7	92.090	0.390	0.030	0.830
2020/01/31 07:04:38.8	92.100	0.370	0.090	0.760
2020/01/31 07:04:38.9	92.120	0.350	0.150	0.690
2020/01/31 07:04:39.0	92.130	0.320	0.210	0.630
2020/01/31 07:04:39.1	92.140	0.300	0.260	0.560
2020/01/31 07:04:39.2	92.160	0.270	0.320	0.490
2020/01/31 07:04:39.3	92.170	0.250	0.380	0.420
2020/01/31 07:04:39.4	92.180	0.220	0.420	0.350
2020/01/31 07:04:39.5	92.180	0.190	0.470	0.290
2020/01/31 07:04:39.6	92.180	0.170	0.510	0.220
2020/01/31 07:04:39.7	92.190	0.140	0.550	0.160
2020/01/31 07:04:39.8	92.190	0.110	0.580	0.100
2020/01/31 07:04:39.9	92.180	0.090	0.610	0.040
2020/01/31 07:04:40.0	92.180	0.060	0.630	-0.020
2020/01/31 07:04:40.1	92.170	0.040	0.650	-0.080
2020/01/31 07:04:40.2	92.160	0.010	0.660	-0.130
2020/01/31 07:04:40.3	92.150	-0.010	0.670	-0.180
2020/01/31 07:04:40.4	92.140	-0.030	0.670	-0.230
2020/01/31 07:04:40.5	92.130	-0.050	0.670	-0.280
2020/01/31 07:04:40.6	92.120	-0.070	0.660	-0.330
2020/01/31 07:04:40.7	92.100	-0.080	0.650	-0.370
2020/01/31 07:04:40.8	92.090	-0.100	0.640	-0.410
2020/01/31 07:04:40.9	92.080	-0.110	0.620	-0.450
2020/01/31 07:04:41.0	92.060	-0.120	0.590	-0.480
2020/01/31 07:04:41.1	92.050	-0.130	0.570	-0.510
2020/01/31 07:04:41.2	92.040	-0.140	0.530	-0.550
2020/01/31 07:04:41.3	92.030	-0.150	0.500	-0.570
2020/01/31 07:04:41.4	92.020	-0.150	0.460	-0.600
2020/01/31 07:04:41.5	92.000	-0.160	0.420	-0.610
2020/01/31 07:04:41.6	91.990	-0.160	0.380	-0.630
2020/01/31 07:04:41.7	91.990	-0.160	0.330	-0.640
2020/01/31 07:04:41.8	91.980	-0.160	0.290	-0.650
2020/01/31 07:04:41.9	91.970	-0.160	0.240	-0.650
2020/01/31 07:04:42.0	91.970	-0.150	0.190	-0.660
2020/01/31 07:04:42.1	91.960	-0.150	0.140	-0.650
2020/01/31 07:04:42.2	91.960	-0.140	0.080	-0.650
2020/01/31 07:04:42.3	91.960	-0.140	0.030	-0.640
2020/01/31 07:04:42.4	91.960	-0.130	-0.030	-0.630
2020/01/31 07:04:42.5	91.970	-0.120	-0.080	-0.610
2020/01/31 07:04:42.6	91.970	-0.110	-0.130	-0.600
2020/01/31 07:04:42.7	91.980	-0.100	-0.180	-0.570
2020/01/31 07:04:42.8	91.990	-0.100	-0.230	-0.550
2020/01/31 07:04:42.9	92.000	-0.090	-0.280	-0.520
2020/01/31 07:04:43.0	92.020	-0.080	-0.330	-0.490
2020/01/31 07:04:43.1	92.030	-0.070	-0.380	-0.460
2020/01/31 07:04:43.2	92.050	-0.060	-0.420	-0.420
2020/01/31 07:04:43.3	92.070	-0.050	-0.470	-0.380
2020/01/31 07:04:43.4	92.080	-0.040	-0.510	-0.340
2020/01/31 07:04:43.5	92.100	-0.030	-0.550	-0.290
2020/01/31 07:04:43.6	92.120	-0.020	-0.590	-0.250
2020/01/31 07:04:43.7	92.140	-0.010	-0.630	-0.190
2020/01/31 07:04:43.8	92.150	-0.010	-0.670	-0.140
2020/01/31 07:04:43.9	92.170	0.000	-0.700	-0.090
2020/01/31 07:04:44.0	92.190	0.010	-0.730	-0.030
2020/01/31 07:04:44.1	92.210	0.010	-0.760	0.030
2020/01/31 07:04:44.2	92.230	0.020	-0.780	0.090
2020/01/31 07:04:44.3	92.240	0.020	-0.810	0.150
2020/01/31 07:04:44.4	92.260	0.030	-0.830	0.220
2020/01/31 07:04:44.5	92.270	0.030	-0.840	0.280
2020/01/31 07:04:44.6	92.280	0.030	-0.850	0.350
2020/01/31 07:04:44.7	92.290	0.040	-0.860	0.420
2020/01/31 07:04:44.8	92.300	0.040	-0.870	0.490
2020/01/31 07:04:44.9	92.300	0.040	-0.870	0.560
2020/01/31 07:04:45.0	92.310	0.040	-0.870	0.630
2020/01/31 07:04:45.1	92.310	0.040	-0.860	0.700
2020/01/31 07:04:45.2	92.320	0.040	-0.850	0.770
2020/01/31 07:04:45.3	92.320	0.040	-0.840	0.840
2020/01/31 07:04:45.4	92.320	0.040	-0.830	0.910
2020/01/31 07:04:45.5	92.320	0.040	-0.810	0.980
2020/01/31 07:04:45.6	92.320	0.040	-0.790	1.050
2020/01/31 07:04:45.7	92.320	0.040	-0.760	1.120
2020/01/31 07:04:45.8	92.320	0.030	-0.740	1.190
2020/01/31 07:04:45.9	92.320	0.030	-0.710	1.260
2020/01/31 07:04:46.0	92.320	0.030	-0.680	1.330
2020/01/31 07:04:46.1	92.310	0.030	-0.640	1.400
2020/01/31 07:04:46.2	92.310	0.020	-0.610	1.460
2020/01/31 07:04:46.3	92.300	0.020	-0.570	1.530
2020/01/31 07:04:46.4	92.300	0.020	-0.530	1.590
2020/01/31 07:04:46.5	92.300	0.010	-0.490	1.650
2020/01/31 07:04:46.6	92.290	0.010	-0.450	1.700
2020/01/31 07:04:46.7	92.290	0.010	-0.410	1.760
2020/01/31 07:04:46.8	92.280	0.010	-0.360	1.820
2020/01/31 07:04:46.9	92.280	0.000	-0.320	1.870
2020/01/31 07:04:47.0	92.280	0.000	-0.280	1.920
2020/01/31 07:04:47.1	92.270	0.000	-0.230	1.970
2020/01/31 07:04:47.2	92.270	0.000	-0.190	2.010
2020/01/31 07:04:47.3	92.270	0.000	-0.140	2.060
2020/01/31 07:04:47.4	92.270	0.000	-0.100	2.110
2020/01/31 07:04:47.5	92.260	0.000	-0.060	2.150
2020/01/31 07:04:47.6	92.260	0.010	-0.010	2.190
2020/01/31 07:04:47.7	92.260	0.010	0.030	2.230
2020/01/31 07:04:47.8	92.260	0.010	0.070	2.270
2020/01/31 07:04:47.9	92.260	0.010	0.110	2.300
2020/01/31 07:04:48.0	92.260	0.020	0.140	2.340
2020/01/31 07:04:48.1	92.270	0.020	0.180	2.370
2020/01/31 07:04:48.2	92.280	0.030	0.210	2.400
2020/01/31 07:04:48.3	92.290	0.030	0.240	2.430
2020/01/31 07:04:48.4	92.290	0.040	0.270	2.450
2020/01/31 07:04:48.5	92.290	0.050	0.300	2.480
2020/01/31 07:04:48.6	92.290	0.050	0.330	2.500
2020/01/31 07:04:48.7	92.300	0.060	0.350	2.520
2020/01/31 07:04:48.8	92.300	0.070	0.370	2.530
2020/01/31 07:04:48.9	92.310	0.070	0.390	2.550
2020/01/31 07:04:49.0	92.310	0.080	0.400	2.560
2020/01/31 07:04:49.1	92.310	0.080	0.410	2.560
2020/01/31 07:04:49.2	92.320	0.090	0.420	2.570
2020/01/31 07:04:49.3	92.320	0.090	0.430	2.570
2020/01/31 07:04:49.4	92.330	0.100	0.440	2.560
2020/01/31 07:04:49.5	92.330	0.100	0.440	2.560
2020/01/31 07:04:49.6	92.330	0.100	0.440	2.540
2020/01/31 07:04:49.7	92.340	0.100	0.430	2.530
2020/01/31 07:04:49.8	92.340	0.100	0.430	2.510
2020/01/31 07:04:49.9	92.340	0.100	0.420	2.480
2020/01/31 07:04:50.0	92.350	0.100	0.410	2.460
2020/01/31 07:04:50.1	92.350	0.100	0.400	2.420
2020/01/31 07:04:50.2	92.360	0.090	0.380	2.380
2020/01/31 07:04:50.3	92.360	0.090	0.370	2.340
2020/01/31 07:04:50.4	92.370	0.080	0.350	2.290
2020/01/31 07:04:50.5	92.370	0.070	0.330	2.240
2020/01/31 07:04:50.6	92.370	0.060	0.310	2.190
2020/01/31 07:04:50.7	92.370	0.050	0.290	2.130
2020/01/31 07:04:50.8	92.370	0.040	0.270	2.070
2020/01/31 07:04:50.9	92.370	0.020	0.250	2.000
2020/01/31 07:04:51.0	92.370	0.010	0.230	1.930
2020/01/31 07:04:51.1	92.370	-0.010	0.210	1.860
2020/01/31 07:04:51.2	92.370	-0.020	0.190	1.790
2020/01/31 07:04:51.3	92.370	-0.040	0.170	1.710
2020/01/31 07:04:51.4	92.360	-0.060	0.150	1.640
2020/01/31 07:04:51.5	92.360	-0.070	0.130	1.560
2020/01/31 07:04:51.6	92.350	-0.090	0.110	1.490
2020/01/31 07:04:51.7	92.340	-0.110	0.080	1.410
2020/01/31 07:04:51.8	92.330	-0.130	0.060	1.340
2020/01/31 07:04:51.9	92.320	-0.140	0.040	1.260
2020/01/31 07:04:52.0	92.310	-0.160	0.020	1.180
2020/01/31 07:04:52.1	92.300	-0.180	-0.010	1.110
2020/01/31 07:04:52.2	92.280	-0.190	-0.030	1.040
2020/01/31 07:04:52.3	92.270	-0.200	-0.050	0.970
2020/01/31 07:04:52.4	92.250	-0.220	-0.080	0.900
2020/01/31 07:04:52.5	92.230	-0.230	-0.110	0.830
2020/01/31 07:04:52.6	92.210	-0.240	-0.140	0.760
2020/01/31 07:04:52.7	92.190	-0.250	-0.170	0.700
2020/01/31 07:04:52.8	92.170	-0.250	-0.200	0.640
2020/01/31 07:04:52.9	92.140	-0.260	-0.230	0.580
2020/01/31 07:04:53.0	92.120	-0.260	-0.260	0.530
2020/01/31 07:04:53.1	92.100	-0.260	-0.300	0.470
2020/01/31 07:04:53.2	92.060	-0.260	-0.340	0.420
2020/01/31 07:04:53.3	92.040	-0.260	-0.370	0.360
2020/01/31 07:04:53.4	92.020	-0.260	-0.410	0.310
2020/01/31 07:04:53.5	92.000	-0.250	-0.440	0.260
2020/01/31 07:04:53.6	91.980	-0.250	-0.480	0.220
2020/01/31 07:04:53.7	91.960	-0.240	-0.520	0.170
2020/01/31 07:04:53.8	91.940	-0.230	-0.550	0.120
2020/01/31 07:04:53.9	91.930	-0.220	-0.580	0.080
2020/01/31 07:04:54.0	91.910	-0.210	-0.620	0.030
2020/01/31 07:04:54.1	91.900	-0.190	-0.650	-0.010
2020/01/31 07:04:54.2	91.880	-0.180	-0.680	-0.060
2020/01/31 07:04:54.3	91.870	-0.160	-0.710	-0.100
2020/01/31 07:04:54.4	91.860	-0.150	-0.740	-0.140
2020/01/31 07:04:54.5	91.860	-0.130	-0.760	-0.180
2020/01/31 07:04:54.6	91.860	-0.110	-0.780	-0.220
2020/01/31 07:04:54.7	91.860	-0.090	-0.800	-0.260
2020/01/31 07:04:54.8	91.870	-0.070	-0.810	-0.300
2020/01/31 07:04:54.9	91.870	-0.060	-0.820	-0.340
2020/01/31 07:04:55.0	91.880	-0.040	-0.830	-0.370
2020/01/31 07:04:55.1	91.890	-0.020	-0.830	-0.400
2020/01/31 07:04:55.2	91.910	-0.000	-0.830	-0.440
2020/01/31 07:04:55.3	91.920	0.020	-0.830	-0.470
2020/01/31 07:04:55.4	91.940	0.030	-0.820	-0.490
2020/01/31 07:04:55.5	91.950	0.050	-0.800	-0.520
2020/01/31 07:04:55.6	91.970	0.070	-0.790	-0.540
2020/01/31 07:04:55.7	91.990	0.080	-0.770	-0.560
2020/01/31 07:04:55.8	92.010	0.090	-0.740	-0.570
2020/01/31 07:04:55.9	92.040	0.110	-0.720	-0.580
2020/01/31 07:04:56.0	92.060	0.120	-0.690	-0.590
2020/01/31 07:04:56.1	92.080	0.130	-0.650	-0.590
2020/01/31 07:04:56.2	92.110	0.140	-0.620	-0.590
2020/01/31 07:04:56.3	92.140	0.150	-0.580	-0.590
2020/01/31 07:04:56.4	92.160	0.160	-0.540	-0.580
2020/01/31 07:04:56.5	92.190	0.170	-0.500	-0.560
2020/01/31 07:04:56.6	92.220	0.180	-0.460	-0.540
2020/01/31 07:04:56.7	92.240	0.180	-0.420	-0.520
2020/01/31 07:04:56.8	92.270	0.190	-0.380	-0.490
2020/01/31 07:04:56.9	92.300	0.200	-0.340	-0.460
2020/01/31 07:04:57.0	92.330	0.200	-0.300	-0.420
2020/01/31 07:04:57.1	92.350	0.200	-0.260	-0.370
2020/01/31 07:04:57.2	92.370	0.210	-0.220	-0.330
2020/01/31 07:04:57.3	92.390	0.210	-0.180	-0.280
2020/01/31 07:04:57.4	92.420	0.210	-0.140	-0.220
2020/01/31 07:04:57.5	92.440	0.220	-0.100	-0.160
2020/01/31 07:04:57.6	92.460	0.220	-0.070	-0.100
2020/01/31 07:04:57.7	92.480	0.220	-0.030	-0.030
2020/01/31 07:04:57.8	92.500	0.220	0.000	0.040
2020/01/31 07:04:57.9	92.520	0.220	0.040	0.110
2020/01/31 07:04:58.0	92.530	0.210	0.070	0.190
2020/01/31 07:04:58.1	92.540	0.210	0.100	0.270
2020/01/31 07:04:58.2	92.540	0.210	0.130	0.350
2020/01/31 07:04:58.3	92.540	0.210	0.160	0.430
2020/01/31 07:04:58.4	92.550	0.200	0.190	0.520
2020/01/31 07:04:58.5	92.550	0.200	0.220	0.610
2020/01/31 07:04:58.6	92.550	0.190	0.250	0.700
2020/01/31 07:04:58.7	92.540	0.180	0.280	0.790
2020/01/31 07:04:58.8	92.530	0.170	0.300	0.890
2020/01/31 07:04:58.9	92.520	0.160	0.330	0.980
2020/01/31 07:04:59.0	92.510	0.150	0.350	1.080
2020/01/31 07:04:59.1	92.500	0.140	0.370	1.170
2020/01/31 07:04:59.2	92.480	0.130	0.390	1.260
2020/01/31 07:04:59.3	92.460	0.110	0.410	1.360
2020/01/31 07:04:59.4	92.440	0.100	0.430	1.450
2020/01/31 07:04:59.5	92.420	0.080	0.450	1.540
2020/01/31 07:04:59.6	92.390	0.070	0.460	1.630
2020/01/31 07:04:59.7	92.360	0.050	0.470	1.710
2020/01/31 07:04:59.8	92.340	0.030	0.480	1.800
2020/01/31 07:04:59.9	92.310	0.010	0.490	1.880
2020/01/31 07:05:00.0	92.280	-0.000	0.500	1.960
2020/01/31 07:05:00.1	92.240	-0.020	0.500	2.030
2020/01/31 07:05:00.2	92.220	-0.040	0.500	2.110
2020/01/31 07:05:00.3	92.180	-0.060	0.490	2.180
2020/01/31 07:05:00.4	92.150	-0.080	0.490	2.250
2020/01/31 07:05:00.5	92.120	-0.090	0.480	2.310
2020/01/31 07:05:00.6	92.090	-0.110	0.460	2.370
2020/01/31 07:05:00.7	92.050	-0.130	0.440	2.430
2020/01/31 07:05:00.8	92.020	-0.140	0.420	2.480
2020/01/31 07:05:00.9	91.990	-0.150	0.390	2.530
2020/01/31 07:05:01.0	91.960	-0.170	0.360	2.580
2020/01/31 07:05:01.1	91.930	-0.180	0.330	2.620
2020/01/31 07:05:01.2	91.910	-0.190	0.290	2.660
2020/01/31 07:05:01.3	91.890	-0.190	0.250	2.690
2020/01/31 07:05:01.4	91.870	-0.200	0.200	2.730
2020/01/31 07:05:01.5	91.840	-0.200	0.150	2.750
2020/01/31 07:05:01.6	91.820	-0.200	0.100	2.770
2020/01/31 07:05:01.7	91.810	-0.200	0.040	2.790
2020/01/31 07:05:01.8	91.790	-0.200	-0.020	2.800
2020/01/31 07:05:01.9	91.780	-0.200	-0.080	2.810
2020/01/31 07:05:02.0	91.770	-0.190	-0.140	2.820
2020/01/31 07:05:02.1	91.760	-0.180	-0.210	2.820
2020/01/31 07:05:02.2	91.750	-0.170	-0.280	2.810
2020/01/31 07:05:02.3	91.750	-0.160	-0.340	2.790
2020/01/31 07:05:02.4	91.750	-0.140	-0.410	2.780
2020/01/31 07:05:02.5	91.740	-0.130	-0.480	2.760
2020/01/31 07:05:02.6	91.750	-0.110	-0.550	2.730
2020/01/31 07:05:02.7	91.750	-0.090	-0.610	2.700
2020/01/31 07:05:02.8	91.750	-0.070	-0.670	2.670
2020/01/31 07:05:02.9	91.760	-0.050	-0.730	2.630
2020/01/31 07:05:03.0	91.770	-0.030	-0.790	2.580
2020/01/31 07:05:03.1	91.780	-0.000	-0.840	2.540
2020/01/31 07:05:03.2	91.780	0.020	-0.880	2.480
2020/01/31 07:05:03.3	91.790	0.040	-0.930	2.430
2020/01/31 07:05:03.4	91.810	0.070	-0.960	2.370
2020/01/31 07:05:03.5	91.820	0.090	-0.990	2.300
2020/01/31 07:05:03.6	91.840	0.110	-1.010	2.240
2020/01/31 07:05:03.7	91.860	0.130	-1.030	2.170
2020/01/31 07:05:03.8	91.870	0.150	-1.040	2.100
2020/01/31 07:05:03.9	91.890	0.170	-1.040	2.030
2020/01/31 07:05:04.0	91.910	0.190	-1.030	1.950
2020/01/31 07:05:04.1	91.930	0.200	-1.020	1.880
2020/01/31 07:05:04.2	91.950	0.220	-1.000	1.800
2020/01/31 07:05:04.3	91.970	0.230	-0.970	1.720
2020/01/31 07:05:04.4	91.990	0.240	-0.930	1.640
2020/01/31 07:05:04.5	92.010	0.240	-0.890	1.560
2020/01/31 07:05:04.6	92.030	0.250	-0.840	1.490
2020/01/31 07:05:04.7	92.050	0.250	-0.780	1.410
2020/01/31 07:05:04.8	92.070	0.250	-0.720	1.330
2020/01/31 07:05:04.9	92.090	0.250	-0.650	1.260
2020/01/31 07:05:05.0	92.100	0.240	-0.580	1.190
2020/01/31 07:05:05.1	92.120	0.230	-0.500	1.120
2020/01/31 07:05:05.2	92.120	0.220	-0.420	1.050
2020/01/31 07:05:05.3	92.130	0.210	-0.340	0.980
2020/01/31 07:05:05.4	92.140	0.190	-0.260	0.920
2020/01/31 07:05:05.5	92.150	0.180	-0.180	0.860
2020/01/31 07:05:05.6	92.160	0.160	-0.090	0.800
2020/01/31 07:05:05.7	92.170	0.140	-0.010	0.740
2020/01/31 07:05:05.8	92.170	0.110	0.070	0.690
2020/01/31 07:05:05.9	92.180	0.090	0.150	0.640
2020/01/31 07:05:06.0	92.180	0.060	0.220	0.600
2020/01/31 07:05:06.1	92.180	0.040	0.290	0.550
2020/01/31 07:05:06.2	92.180	0.010	0.360	0.510
2020/01/31 07:05:06.3	92.170	-0.020	0.420	0.470
2020/01/31 07:05:06.4	92.170	-0.040	0.470	0.430
2020/01/31 07:05:06.5	92.160	-0.070	0.520	0.400
2020/01/31 07:05:06.6	92.160	-0.090	0.560	0.370
2020/01/31 07:05:06.7	92.150	-0.120	0.590	0.340
2020/01/31 07:05:06.8	92.140	-0.140	0.610	0.310
2020/01/31 07:05:06.9	92.130	-0.160	0.630	0.290
2020/01/31 07:05:07.0	92.120	-0.180	0.630	0.270
2020/01/31 07:05:07.1	92.110	-0.200	0.630	0.250
2020/01/31 07:05:07.2	92.090	-0.210	0.620	0.230
2020/01/31 07:05:07.3	92.080	-0.220	0.600	0.210
2020/01/31 07:05:07.4	92.070	-0.230	0.580	0.200
2020/01/31 07:05:07.5	92.060	-0.240	0.550	0.190
2020/01/31 07:05:07.6	92.060	-0.250	0.510	0.180
2020/01/31 07:05:07.7	92.050	-0.250	0.470	0.170
2020/01/31 07:05:07.8	92.040	-0.250	0.420	0.160
2020/01/31 07:05:07.9	92.030	-0.250	0.370	0.160
2020/01/31 07:05:08.0	92.030	-0.240	0.310	0.150
2020/01/31 07:05:08.1	92.020	-0.230	0.250	0.150
2020/01/31 07:05:08.2	92.020	-0.220	0.180	0.150
2020/01/31 07:05:08.3	92.020	-0.210	0.120	0.150
2020/01/31 07:05:08.4	92.010	-0.200	0.050	0.150
2020/01/31 07:05:08.5	92.010	-0.180	-0.020	0.160
2020/01/31 07:05:08.6	92.010	-0.170	-0.080	0.160
2020/01/31 07:05:08.7	92.000	-0.150	-0.150	0.170
2020/01/31 07:05:08.8	92.000	-0.130	-0.210	0.180
2020/01/31 07:05:08.9	91.990	-0.110	-0.270	0.200
2020/01/31 07:05:09.0	91.990	-0.100	-0.330	0.210
2020/01/31 07:05:09.1	91.980	-0.080	-0.380	0.230
2020/01/31 07:05:09.2	91.960	-0.060	-0.440	0.250
2020/01/31 07:05:09.3	91.960	-0.050	-0.480	0.270
2020/01/31 07:05:09.4	91.950	-0.030	-0.520	0.290
2020/01/31 07:05:09.5	91.940	-0.020	-0.550	0.320
2020/01/31 07:05:09.6	91.930	-0.000	-0.570	0.340
2020/01/31 07:05:09.7	91.920	0.010	-0.590	0.370
2020/01/31 07:05:09.8	91.910	0.010	-0.610	0.400
2020/01/31 07:05:09.9	91.900	0.020	-0.620	0.430
2020/01/31 07:05:10.0	91.890	0.030	-0.620	0.460
2020/01/31 07:05:10.1	91.870	0.030	-0.610	0.490
2020/01/31 07:05:10.2	91.870	0.030	-0.600	0.520
2020/01/31 07:05:10.3	91.860	0.030	-0.590	0.550
2020/01/31 07:05:10.4	91.840	0.030	-0.570	0.580
2020/01/31 07:05:10.5	91.830	0.020	-0.540	0.610
2020/01/31 07:05:10.6	91.820	0.010	-0.520	0.640
2020/01/31 07:05:10.7	91.800	0.000	-0.490	0.670
2020/01/31 07:05:10.8	91.790	-0.010	-0.450	0.700
2020/01/31 07:05:10.9	91.780	-0.020	-0.410	0.730
2020/01/31 07:05:11.0	91.760	-0.030	-0.370	0.760
2020/01/31 07:05:11.1	91.750	-0.040	-0.330	0.790
2020/01/31 07:05:11.2	91.730	-0.060	-0.290	0.820
2020/01/31 07:05:11.3	91.720	-0.070	-0.250	0.840
2020/01/31 07:05:11.4	91.710	-0.090	-0.210	0.870
2020/01/31 07:05:11.5	91.690	-0.100	-0.170	0.900
2020/01/31 07:05:11.6	91.680	-0.110	-0.130	0.920
2020/01/31 07:05:11.7	91.670	-0.130	-0.100	0.950
2020/01/31 07:05:11.8	91.650	-0.140	-0.060	0.970
2020/01/31 07:05:11.9	91.640	-0.150	-0.030	0.990
2020/01/31 07:05:12.0	91.630	-0.160	0.000	1.020
2020/01/31 07:05:12.1	91.620	-0.170	0.030	1.040
2020/01/31 07:05:12.2	91.600	-0.170	0.050	1.060
2020/01/31 07:05:12.3	91.590	-0.180	0.070	1.080
2020/01/31 07:05:12.4	91.580	-0.180	0.080	1.100
2020/01/31 07:05:12.5	91.570	-0.170	0.090	1.120
2020/01/31 07:05:12.6	91.550	-0.170	0.100	1.150
2020/01/31 07:05:12.7	91.540	-0.160	0.100	1.170
2020/01/31 07:05:12.8	91.530	-0.160	0.100	1.190
2020/01/31 07:05:12.9	91.520	-0.140	0.090	1.210
2020/01/31 07:05:13.0	91.500	-0.130	0.080	1.230
2020/01/31 07:05:13.1	91.490	-0.110	0.070	1.250
2020/01/31 07:05:13.2	91.480	-0.100	0.050	1.260
2020/01/31 07:05:13.3	91.470	-0.070	0.030	1.280
2020/01/31 07:05:13.4	91.460	-0.050	0.010	1.300
2020/01/31 07:05:13.5	91.450	-0.030	-0.020	1.320
2020/01/31 07:05:13.6	91.440	-0.000	-0.040	1.330
2020/01/31 07:05:13.7	91.430	0.030	-0.070	1.350
2020/01/31 07:05:13.8	91.420	0.050	-0.100	1.360
2020/01/31 07:05:13.9	91.420	0.080	-0.130	1.380
2020/01/31 07:05:14.0	91.410	0.110	-0.160	1.390
2020/01/31 07:05:14.1	91.410	0.140	-0.200	1.400
2020/01/31 07:05:14.2	91.410	0.170	-0.230	1.410
2020/01/31 07:05:14.3	91.410	0.200	-0.260	1.420
2020/01/31 07:05:14.4	91.410	0.230	-0.290	1.430
2020/01/31 07:05:14.5	91.410	0.260	-0.320	1.430
2020/01/31 07:05:14.6	91.420	0.280	-0.350	1.440
2020/01/31 07:05:14.7	91.420	0.310	-0.370	1.440
2020/01/31 07:05:14.8	91.430	0.330	-0.400	1.440
2020/01/31 07:05:14.9	91.430	0.350	-0.420	1.440
2020/01/31 07:05:15.0	91.440	0.370	-0.440	1.440
2020/01/31 07:05:15.1	91.450	0.390	-0.460	1.440
2020/01/31 07:05:15.2	91.460	0.400	-0.470	1.430
2020/01/31 07:05:15.3	91.470	0.420	-0.480	1.430
2020/01/31 07:05:15.4	91.480	0.430	-0.490	1.430
2020/01/31 07:05:15.5	91.490	0.430	-0.500	1.430
2020/01/31 07:05:15.6	91.500	0.440	-0.490	1.430
2020/01/31 07:05:15.7	91.510	0.440	-0.490	1.420
2020/01/31 07:05:15.8	91.520	0.440	-0.480	1.420
2020/01/31 07:05:15.9	91.530	0.430	-0.470	1.420
2020/01/31 07:05:16.0	91.540	0.430	-0.460	1.420
2020/01/31 07:05:16.1	91.550	0.420	-0.440	1.420
2020/01/31 07:05:16.2	91.560	0.410	-0.410	1.420
2020/01/31 07:05:16.3	91.570	0.390	-0.380	1.430
2020/01/31 07:05:16.4	91.570	0.380	-0.360	1.430
2020/01/31 07:05:16.5	91.570	0.360	-0.330	1.440
2020/01/31 07:05:16.6	91.580	0.340	-0.290	1.440
2020/01/31 07:05:16.7	91.580	0.320	-0.260	1.450
2020/01/31 07:05:16.8	91.580	0.300	-0.220	1.460
2020/01/31 07:05:16.9	91.580	0.280	-0.180	1.470
2020/01/31 07:05:17.0	91.570	0.250	-0.140	1.480
2020/01/31 07:05:17.1	91.570	0.230	-0.110	1.490
2020/01/31 07:05:17.2	91.560	0.200	-0.070	1.500
2020/01/31 07:05:17.3	91.550	0.180	-0.030	1.510
2020/01/31 07:05:17.4	91.540	0.150	0.010	1.520
2020/01/31 07:05:17.5	91.530	0.120	0.050	1.530
2020/01/31 07:05:17.6	91.520	0.100	0.080	1.540
2020/01/31 07:05:17.7	91.510	0.070	0.110	1.540
2020/01/31 07:05:17.8	91.500	0.050	0.140	1.550
2020/01/31 07:05:17.9	91.480	0.020	0.170	1.560
2020/01/31 07:05:18.0	91.470	-0.000	0.190	1.560
2020/01/31 07:05:18.1	91.450	-0.020	0.210	1.560
2020/01/31 07:05:18.2	91.420	-0.050	0.230	1.560
2020/01/31 07:05:18.3	91.410	-0.070	0.240	1.560
2020/01/31 07:05:18.4	91.390	-0.090	0.250	1.550
2020/01/31 07:05:18.5	91.370	-0.100	0.260	1.550
2020/01/31 07:05:18.6	91.350	-0.120	0.260	1.540
2020/01/31 07:05:18.7	91.340	-0.140	0.250	1.530
2020/01/31 07:05:18.8	91.320	-0.150	0.250	1.520
2020/01/31 07:05:18.9	91.300	-0.170	0.230	1.500
2020/01/31 07:05:19.0	91.280	-0.180	0.220	1.490
2020/01/31 07:05:19.1	91.270	-0.190	0.200	1.470
2020/01/31 07:05:19.2	91.250	-0.200	0.180	1.460
2020/01/31 07:05:19.3	91.230	-0.210	0.160	1.440
2020/01/31 07:05:19.4	91.210	-0.220	0.130	1.420
2020/01/31 07:05:19.5	91.200	-0.230	0.100	1.400
2020/01/31 07:05:19.6	91.180	-0.230	0.060	1.390
2020/01/31 07:05:19.7	91.170	-0.230	0.030	1.370
2020/01/31 07:05:19.8	91.150	-0.240	-0.000	1.350
2020/01/31 07:05:19.9	91.140	-0.240	-0.040	1.330
2020/01/31 07:05:20.0	91.130	-0.240	-0.080	1.320
2020/01/31 07:05:20.1	91.110	-0.240	-0.110	1.300
2020/01/31 07:05:20.2	91.100	-0.240	-0.150	1.290
2020/01/31 07:05:20.3	91.090	-0.240	-0.180	1.280
2020/01/31 07:05:20.4	91.080	-0.240	-0.210	1.270
2020/01/31 07:05:20.5	91.070	-0.240	-0.240	1.260
2020/01/31 07:05:20.6	91.060	-0.240	-0.270	1.260
2020/01/31 07:05:20.7	91.050	-0.240	-0.300	1.250
2020/01/31 07:05:20.8	91.040	-0.230	-0.320	1.250
2020/01/31 07:05:20.9	91.030	-0.230	-0.340	1.250
2020/01/31 07:05:21.0	91.020	-0.230	-0.360	1.250
2020/01/31 07:05:21.1	91.010	-0.230	-0.370	1.240
2020/01/31 07:05:21.2	91.000	-0.230	-0.380	1.240
2020/01/31 07:05:21.3	90.990	-0.230	-0.390	1.240
2020/01/31 07:05:21.4	90.980	-0.230	-0.390	1.240
2020/01/31 07:05:21.5	90.980	-0.230	-0.390	1.230
2020/01/31 07:05:21.6	90.970	-0.230	-0.390	1.230
2020/01/31 07:05:21.7	90.960	-0.230	-0.390	1.230
2020/01/31 07:05:21.8	90.960	-0.230	-0.380	1.220
2020/01/31 07:05:21.9	90.950	-0.230	-0.380	1.210
2020/01/31 07:05:22.0	90.950	-0.230	-0.370	1.200
2020/01/31 07:05:22.1	90.950	-0.230	-0.360	1.180
2020/01/31 07:05:22.2	90.950	-0.230	-0.340	1.160
2020/01/31 07:05:22.3	90.950	-0.230	-0.330	1.140
2020/01/31 07:05:22.4	90.950	-0.230	-0.310	1.120
2020/01/31 07:05:22.5	90.950	-0.230	-0.300	1.090
2020/01/31 07:05:22.6	90.950	-0.230	-0.280	1.060
2020/01/31 07:05:22.7	90.960	-0.230	-0.270	1.030
2020/01/31 07:05:22.8	90.960	-0.230	-0.250	0.990
2020/01/31 07:05:22.9	90.970	-0.220	-0.240	0.950
2020/01/31 07:05:23.0	90.980	-0.220	-0.230	0.910
2020/01/31 07:05:23.1	90.990	-0.210	-0.210	0.870
2020/01/31 07:05:23.2	91.000	-0.200	-0.200	0.820
2020/01/31 07:05:23.3	91.010	-0.190	-0.180	0.780
2020/01/31 07:05:23.4	91.020	-0.180	-0.170	0.730
2020/01/31 07:05:23.5	91.040	-0.170	-0.170	0.690
2020/01/31 07:05:23.6	91.050	-0.160	-0.160	0.640
2020/01/31 07:05:23.7	91.060	-0.140	-0.150	0.590
2020/01/31 07:05:23.8	91.070	-0.130	-0.150	0.550
2020/01/31 07:05:23.9	91.090	-0.110	-0.140	0.510
2020/01/31 07:05:24.0	91.100	-0.090	-0.140	0.470
2020/01/31 07:05:24.1	91.110	-0.070	-0.140	0.430
2020/01/31 07:05:24.2	91.120	-0.040	-0.140	0.390
2020/01/31 07:05:24.3	91.130	-0.020	-0.140	0.360
2020/01/31 07:05:24.4	91.140	0.000	-0.140	0.330
2020/01/31 07:05:24.5	91.160	0.030	-0.150	0.310
2020/01/31 07:05:24.6	91.170	0.050	-0.150	0.290
2020/01/31 07:05:24.7	91.180	0.080	-0.150	0.270
2020/01/31 07:05:24.8	91.190	0.110	-0.160	0.250
2020/01/31 07:05:24.9	91.200	0.130	-0.160	0.240
2020/01/31 07:05:25.0	91.210	0.160	-0.170	0.230
2020/01/31 07:05:25.1	91.210	0.190	-0.170	0.230
2020/01/31 07:05:25.2	91.230	0.210	-0.170	0.230
2020/01/31 07:05:25.3	91.230	0.230	-0.180	0.230
2020/01/31 07:05:25.4	91.240	0.260	-0.180	0.230
2020/01/31 07:05:25.5	91.250	0.280	-0.180	0.240
2020/01/31 07:05:25.6	91.250	0.300	-0.180	0.250
2020/01/31 07:05:25.7	91.260	0.310	-0.180	0.270
2020/01/31 07:05:25.8	91.260	0.330	-0.180	0.290
2020/01/31 07:05:25.9	91.260	0.340	-0.180	0.310
2020/01/31 07:05:26.0	91.260	0.350	-0.170	0.330
2020/01/31 07:05:26.1	91.260	0.360	-0.170	0.350
2020/01/31 07:05:26.2	91.260	0.370	-0.160	0.380
2020/01/31 07:05:26.3	91.260	0.370	-0.160	0.410
2020/01/31 07:05:26.4	91.250	0.370	-0.150	0.440
2020/01/31 07:05:26.5	91.240	0.370	-0.140	0.470
2020/01/31 07:05:26.6	91.230	0.360	-0.120	0.510
2020/01/31 07:05:26.7	91.220	0.350	-0.110	0.550
2020/01/31 07:05:26.8	91.210	0.340	-0.090	0.580
2020/01/31 07:05:26.9	91.190	0.330	-0.080	0.620
2020/01/31 07:05:27.0	91.170	0.310	-0.060	0.670
2020/01/31 07:05:27.1	91.150	0.290	-0.050	0.710
2020/01/31 07:05:27.2	91.130	0.270	-0.030	0.750
2020/01/31 07:05:27.3	91.110	0.250	-0.010	0.790
2020/01/31 07:05:27.4	91.080	0.220	0.010	0.830
2020/01/31 07:05:27.5	91.050	0.190	0.030	0.870
2020/01/31 07:05:27.6	91.020	0.160	0.040	0.920
2020/01/31 07:05:27.7	90.990	0.130	0.060	0.960
2020/01/31 07:05:27.8	90.960	0.100	0.080	1.000
2020/01/31 07:05:27.9	90.920	0.060	0.090	1.040
2020/01/31 07:05:28.0	90.880	0.030	0.110	1.080
2020/01/31 07:05:28.1	90.850	-0.010	0.120	1.120
2020/01/31 07:05:28.2	90.820	-0.040	0.130	1.150
2020/01/31 07:05:28.3	90.780	-0.080	0.140	1.190
2020/01/31 07:05:28.4	90.740	-0.120	0.150	1.220
2020/01/31 07:05:28.5	90.700	-0.150	0.150	1.250
2020/01/31 07:05:28.6	90.660	-0.190	0.160	1.280
2020/01/31 07:05:28.7	90.620	-0.220	0.160	1.310
2020/01/31 07:05:28.8	90.590	-0.250	0.160	1.340
2020/01/31 07:05:28.9	90.550	-0.280	0.160	1.360
2020/01/31 07:05:29.0	90.520	-0.310	0.150	1.380
2020/01/31 07:05:29.1	90.480	-0.340	0.140	1.400
2020/01/31 07:05:29.2	90.460	-0.370	0.130	1.420
2020/01/31 07:05:29.3	90.430	-0.390	0.120	1.440
2020/01/31 07:05:29.4	90.400	-0.410	0.110	1.450
2020/01/31 07:05:29.5	90.370	-0.430	0.090	1.470
2020/01/31 07:05:29.6	90.350	-0.440	0.070	1.480
2020/01/31 07:05:29.7	90.330	-0.460	0.050	1.490
2020/01/31 07:05:29.8	90.320	-0.470	0.030	1.500
2020/01/31 07:05:29.9	90.300	-0.470	0.000	1.510
2020/01/31 07:05:30.0	90.290	-0.480	-0.030	1.520
2020/01/31 07:05:30.1	90.280	-0.480	-0.050	1.530
2020/01/31 07:05:30.2	90.290	-0.470	-0.080	1.530
2020/01/31 07:05:30.3	90.280	-0.470	-0.110	1.540
2020/01/31 07:05:30.4	90.290	-0.460	-0.140	1.540
2020/01/31 07:05:30.5	90.290	-0.450	-0.180	1.540
2020/01/31 07:05:30.6	90.300	-0.440	-0.210	1.540
2020/01/31 07:05:30.7	90.310	-0.420	-0.250	1.540
2020/01/31 07:05:30.8	90.330	-0.400	-0.280	1.540
2020/01/31 07:05:30.9	90.340	-0.380	-0.320	1.530
2020/01/31 07:05:31.0	90.360	-0.350	-0.350	1.530
2020/01/31 07:05:31.1	90.380	-0.330	-0.390	1.520
2020/01/31 07:05:31.2	90.400	-0.300	-0.420	1.510
2020/01/31 07:05:31.3	90.430	-0.270	-0.460	1.500
2020/01/31 07:05:31.4	90.450	-0.240	-0.490	1.490
2020/01/31 07:05:31.5	90.480	-0.210	-0.520	1.470
2020/01/31 07:05:31.6	90.510	-0.170	-0.560	1.460
2020/01/31 07:05:31.7	90.540	-0.140	-0.590	1.440
2020/01/31 07:05:31.8	90.570	-0.100	-0.620	1.420
2020/01/31 07:05:31.9	90.600	-0.060	-0.640	1.390
2020/01/31 07:05:32.0	90.630	-0.030	-0.670	1.370
2020/01/31 07:05:32.1	90.650	0.010	-0.690	1.340
2020/01/31 07:05:32.2	90.690	0.050	-0.710	1.310
2020/01/31 07:05:32.3	90.720	0.090	-0.730	1.290
2020/01/31 07:05:32.4	90.750	0.130	-0.750	1.260
2020/01/31 07:05:32.5	90.770	0.170	-0.770	1.220
2020/01/31 07:05:32.6	90.800	0.200	-0.780	1.190
2020/01/31 07:05:32.7	90.820	0.240	-0.790	1.160
2020/01/31 07:05:32.8	90.840	0.270	-0.800	1.120
2020/01/31 07:05:32.9	90.870	0.310	-0.800	1.090
2020/01/31 07:05:33.0	90.890	0.340	-0.800	1.050
2020/01/31 07:05:33.1	90.910	0.370	-0.800	1.020
2020/01/31 07:05:33.2	90.920	0.400	-0.800	0.980
2020/01/31 07:05:33.3	90.940	0.430	-0.790	0.950
2020/01/31 07:05:33.4	90.950	0.460	-0.780	0.910
2020/01/31 07:05:33.5	90.960	0.480	-0.760	0.880
2020/01/31 07:05:33.6	90.970	0.500	-0.740	0.850
2020/01/31 07:05:33.7	90.980	0.520	-0.710	0.820
2020/01/31 07:05:33.8	90.990	0.530	-0.690	0.800
2020/01/31 07:05:33.9	90.990	0.550	-0.650	0.770
2020/01/31 07:05:34.0	90.990	0.560	-0.620	0.750
2020/01/31 07:05:34.1	90.990	0.560	-0.580	0.730
2020/01/31 07:05:34.2	91.000	0.570	-0.530	0.710
2020/01/31 07:05:34.3	90.990	0.570	-0.480	0.700
2020/01/31 07:05:34.4	90.980	0.570	-0.440	0.690
2020/01/31 07:05:34.5	90.970	0.560	-0.380	0.680
2020/01/31 07:05:34.6	90.950	0.560	-0.330	0.680
2020/01/31 07:05:34.7	90.930	0.540	-0.270	0.670
2020/01/31 07:05:34.8	90.910	0.530	-0.210	0.680
2020/01/31 07:05:34.9	90.890	0.520	-0.150	0.680
2020/01/31 07:05:35.0	90.860	0.500	-0.080	0.690
2020/01/31 07:05:35.1	90.840	0.480	-0.020	0.700
2020/01/31 07:05:35.2	90.800	0.450	0.050	0.710
2020/01/31 07:05:35.3	90.770	0.430	0.120	0.730
2020/01/31 07:05:35.4	90.730	0.400	0.180	0.750
2020/01/31 07:05:35.5	90.690	0.370	0.250	0.770
2020/01/31 07:05:35.6	90.650	0.340	0.320	0.800
2020/01/31 07:05:35.7	90.610	0.300	0.380	0.820
2020/01/31 07:05:35.8	90.570	0.270	0.450	0.850
2020/01/31 07:05:35.9	90.530	0.230	0.510	0.880
2020/01/31 07:05:36.0	90.490	0.200	0.570	0.910
2020/01/31 07:05:36.1	90.440	0.160	0.630	0.930
2020/01/31 07:05:36.2	90.400	0.120	0.680	0.960
2020/01/31 07:05:36.3	90.360	0.080	0.730	0.990
2020/01/31 07:05:36.4	90.320	0.040	0.780	1.010
2020/01/31 07:05:36.5	90.280	0.000	0.820	1.040
2020/01/31 07:05:36.6	90.240	-0.040	0.850	1.060
2020/01/31 07:05:36.7	90.200	-0.080	0.880	1.070
2020/01/31 07:05:36.8	90.160	-0.110	0.900	1.090
2020/01/31 07:05:36.9	90.130	-0.150	0.920	1.100
2020/01/31 07:05:37.0	90.100	-0.190	0.930	1.110
2020/01/31 07:05:37.1	90.070	-0.220	0.930	1.120
2020/01/31 07:05:37.2	90.070	-0.260	0.930	1.120
2020/01/31 07:05:37.3	90.050	-0.290	0.920	1.110
2020/01/31 07:05:37.4	90.030	-0.320	0.900	1.110
2020/01/31 07:05:37.5	90.020	-0.350	0.870	1.100
2020/01/31 07:05:37.6	90.000	-0.370	0.840	1.080
2020/01/31 07:05:37.7	90.000	-0.400	0.800	1.060
2020/01/31 07:05:37.8	90.000	-0.420	0.750	1.040
2020/01/31 07:05:37.9	90.000	-0.440	0.690	1.020
2020/01/31 07:05:38.0	90.000	-0.450	0.630	0.990
2020/01/31 07:05:38.1	90.010	-0.460	0.560	0.950
2020/01/31 07:05:38.2	90.030	-0.470	0.490	0.920
2020/01/31 07:05:38.3	90.050	-0.480	0.410	0.880
2020/01/31 07:05:38.4	90.060	-0.490	0.330	0.840
2020/01/31 07:05:38.5	90.090	-0.490	0.240	0.800
2020/01/31 07:05:38.6	90.110	-0.490	0.150	0.750
2020/01/31 07:05:38.7	90.140	-0.480	0.060	0.710
2020/01/31 07:05:38.8	90.160	-0.480	-0.030	0.660
2020/01/31 07:05:38.9	90.190	-0.470	-0.120	0.620
2020/01/31 07:05:39.0	90.220	-0.460	-0.220	0.570
2020/01/31 07:05:39.1	90.260	-0.450	-0.310	0.520
2020/01/31 07:05:39.2	90.280	-0.430	-0.400	0.480
2020/01/31 07:05:39.3	90.310	-0.420	-0.480	0.430
2020/01/31 07:05:39.4	90.350	-0.400	-0.570	0.390
2020/01/31 07:05:39.5	90.380	-0.380	-0.650	0.360
2020/01/31 07:05:39.6	90.410	-0.350	-0.720	0.320
2020/01/31 07:05:39.7	90.440	-0.330	-0.790	0.290
2020/01/31 07:05:39.8	90.470	-0.310	-0.860	0.270
2020/01/31 07:05:39.9	90.490	-0.280	-0.910	0.240
2020/01/31 07:05:40.0	90.520	-0.260	-0.970	0.230
2020/01/31 07:05:40.1	90.540	-0.230	-1.010	0.210
2020/01/31 07:05:40.2	90.560	-0.200	-1.050	0.210
2020/01/31 07:05:40.3	90.570	-0.180	-1.080	0.200
2020/01/31 07:05:40.4	90.590	-0.150	-1.100	0.210
2020/01/31 07:05:40.5	90.600	-0.120	-1.120	0.210
2020/01/31 07:05:40.6	90.610	-0.100	-1.130	0.220
2020/01/31 07:05:40.7	90.620	-0.070	-1.130	0.240
2020/01/31 07:05:40.8	90.620	-0.050	-1.130	0.260
2020/01/31 07:05:40.9	90.620	-0.030	-1.120	0.290
2020/01/31 07:05:41.0	90.620	-0.000	-1.100	0.320
2020/01/31 07:05:41.1	90.610	0.020	-1.080	0.360
2020/01/31 07:05:41.2	90.600	0.040	-1.050	0.400
2020/01/31 07:05:41.3	90.590	0.050	-1.010	0.440
2020/01/31 07:05:41.4	90.580	0.070	-0.970	0.490
2020/01/31 07:05:41.5	90.560	0.080	-0.930	0.540
2020/01/31 07:05:41.6	90.540	0.100	-0.880	0.590
2020/01/31 07:05:41.7	90.530	0.110	-0.830	0.640
2020/01/31 07:05:41.8	90.510	0.110	-0.780	0.700
2020/01/31 07:05:41.9	90.480	0.120	-0.720	0.750
2020/01/31 07:05:42.0	90.460	0.120	-0.660	0.810
2020/01/31 07:05:42.1	90.440	0.120	-0.600	0.860
2020/01/31 07:05:42.2	90.410	0.120	-0.540	0.920
2020/01/31 07:05:42.3	90.380	0.120	-0.480	0.980
2020/01/31 07:05:42.4	90.350	0.110	-0.420	1.030
2020/01/31 07:05:42.5	90.330	0.110	-0.360	1.080
2020/01/31 07:05:42.6	90.300	0.100	-0.290	1.140
2020/01/31 07:05:42.7	90.280	0.090	-0.230	1.190
2020/01/31 07:05:42.8	90.250	0.070	-0.170	1.230
2020/01/31 07:05:42.9	90.230	0.060	-0.120	1.280
2020/01/31 07:05:43.0	90.200	0.040	-0.060	1.320
2020/01/31 07:05:43.1	90.180	0.020	-0.000	1.360
2020/01/31 07:05:43.2	90.160	0.000	0.050	1.400
2020/01/31 07:05:43.3	90.140	-0.020	0.100	1.440
2020/01/31 07:05:43.4	90.120	-0.040	0.150	1.470
2020/01/31 07:05:43.5	90.100	-0.060	0.200	1.500
2020/01/31 07:05:43.6	90.090	-0.080	0.240	1.520
2020/01/31 07:05:43.7	90.070	-0.110	0.280	1.540
2020/01/31 07:05:43.8	90.060	-0.130	0.320	1.560
2020/01/31 07:05:43.9	90.050	-0.150	0.350	1.580
2020/01/31 07:05:44.0	90.040	-0.170	0.390	1.590
2020/01/31 07:05:44.1	90.030	-0.190	0.410	1.600
2020/01/31 07:05:44.2	90.030	-0.210	0.430	1.610
2020/01/31 07:05:44.3	90.030	-0.230	0.450	1.610
2020/01/31 07:05:44.4	90.020	-0.240	0.470	1.610
2020/01/31 07:05:44.5	90.020	-0.250	0.480	1.610
2020/01/31 07:05:44.6	90.020	-0.270	0.490	1.600
2020/01/31 07:05:44.7	90.020	-0.270	0.490	1.590
2020/01/31 07:05:44.8	90.020	-0.280	0.490	1.580
2020/01/31 07:05:44.9	90.020	-0.280	0.480	1.570
2020/01/31 07:05:45.0	90.030	-0.280	0.470	1.550
2020/01/31 07:05:45.1	90.030	-0.280	0.450	1.530
2020/01/31 07:05:45.2	90.040	-0.270	0.430	1.510
2020/01/31 07:05:45.3	90.050	-0.260	0.410	1.480
2020/01/31 07:05:45.4	90.060	-0.240	0.380	1.450
2020/01/31 07:05:45.5	90.070	-0.230	0.340	1.420
2020/01/31 07:05:45.6	90.080	-0.200	0.300	1.390
2020/01/31 07:05:45.7	90.090	-0.180	0.250	1.350
2020/01/31 07:05:45.8	90.100	-0.150	0.200	1.310
2020/01/31 07:05:45.9	90.110	-0.120	0.150	1.270
2020/01/31 07:05:46.0	90.120	-0.090	0.100	1.230
2020/01/31 07:05:46.1	90.130	-0.050	0.040	1.190
2020/01/31 07:05:46.2				
2020/01/31 07:05:46.3	90.140	-0.020	-0.020	1.140
2020/01/31 07:05:46.4	90.160	0.070	-0.140	1.050
2020/01/31 07:05:46.5	90.170	0.110	-0.200	1.000
2020/01/31 07:05:46.6	90.180	0.150	-0.260	0.950
2020/01/31 07:05:46.7	90.190	0.200	-0.320	0.910
2020/01/31 07:05:46.8	90.190	0.240	-0.370	0.860
2020/01/31 07:05:46.9	90.200	0.290	-0.430	0.810
2020/01/31 07:05:47.0	90.200	0.330	-0.480	0.770
2020/01/31 07:05:47.1	90.210	0.370	-0.530	0.720
2020/01/31 07:05:47.2	90.210	0.410	-0.580	0.680
2020/01/31 07:05:47.3	90.210	0.450	-0.620	0.640
2020/01/31 07:05:47.4	90.210	0.490	-0.660	0.600
2020/01/31 07:05:47.5	90.210	0.530	-0.690	0.560
2020/01/31 07:05:47.6	90.200	0.560	-0.720	0.530
2020/01/31 07:05:47.7	90.200	0.590	-0.740	0.500
2020/01/31 07:05:47.8	90.190	0.610	-0.750	0.470
2020/01/31 07:05:47.9	90.180	0.640	-0.760	0.440
2020/01/31 07:05:48.0	90.170	0.660	-0.760	0.420
2020/01/31 07:05:48.1	90.160	0.670	-0.760	0.400
2020/01/31 07:05:48.2	90.140	0.680	-0.760	0.370
2020/01/31 07:05:48.3	90.120	0.690	-0.740	0.360
2020/01/31 07:05:48.4	90.110	0.690	-0.720	0.350
2020/01/31 07:05:48.5	90.090	0.690	-0.700	0.340
2020/01/31 07:05:48.6	90.070	0.680	-0.670	0.330
2020/01/31 07:05:48.7	90.050	0.670	-0.630	0.320
2020/01/31 07:05:48.8	90.030	0.660	-0.590	0.320
2020/01/31 07:05:48.9	90.010	0.640	-0.550	0.330
2020/01/31 07:05:49.0	89.990	0.620	-0.500	0.330
2020/01/31 07:05:49.1	89.970	0.590	-0.450	0.340
2020/01/31 07:05:49.2	89.950	0.560	-0.400	0.350
2020/01/31 07:05:49.3	89.930	0.530	-0.350	0.360
2020/01/31 07:05:49.4	89.910	0.500	-0.290	0.370
2020/01/31 07:05:49.5	89.890	0.460	-0.240	0.390
2020/01/31 07:05:49.6	89.870	0.420	-0.180	0.410
2020/01/31 07:05:49.7	89.850	0.380	-0.130	0.420
2020/01/31 07:05:49.8	89.830	0.330	-0.070	0.440
2020/01/31 07:05:49.9	89.810	0.290	-0.020	0.460
2020/01/31 07:05:50.0	89.800	0.240	0.030	0.480
2020/01/31 07:05:50.1	89.780	0.190	0.080	0.500
2020/01/31 07:05:50.2	89.760	0.150	0.130	0.510
2020/01/31 07:05:50.3	89.740	0.100	0.170	0.530
2020/01/31 07:05:50.4	89.730	0.060	0.210	0.550
2020/01/31 07:05:50.5	89.720	0.010	0.240	0.570
2020/01/31 07:05:50.6	89.710	-0.030	0.270	0.580
2020/01/31 07:05:50.7	89.700	-0.070	0.300	0.590
2020/01/31 07:05:50.8	89.690	-0.120	0.320	0.610
2020/01/31 07:05:50.9	89.680	-0.150	0.340	0.620
2020/01/31 07:05:51.0	89.670	-0.190	0.350	0.620
2020/01/31 07:05:51.1	89.670	-0.220	0.360	0.630
2020/01/31 07:05:51.2	89.680	-0.250	0.360	0.640
2020/01/31 07:05:51.3	89.680	-0.280	0.360	0.640
2020/01/31 07:05:51.4	89.680	-0.310	0.350	0.640
2020/01/31 07:05:51.5	89.680	-0.330	0.340	0.630
2020/01/31 07:05:51.6	89.690	-0.350	0.330	0.630
2020/01/31 07:05:51.7	89.700	-0.370	0.310	0.630
2020/01/31 07:05:51.8	89.700	-0.380	0.290	0.620
2020/01/31 07:05:51.9	89.710	-0.390	0.260	0.610
2020/01/31 07:05:52.0	89.730	-0.400	0.240	0.600
2020/01/31 07:05:52.1	89.740	-0.400	0.210	0.590
2020/01/31 07:05:52.2	89.750	-0.400	0.170	0.580
2020/01/31 07:05:52.3	89.770	-0.400	0.130	0.560
2020/01/31 07:05:52.4	89.790	-0.400	0.100	0.550
2020/01/31 07:05:52.5				
2020/01/31 07:05:52.6	89.810	-0.390	0.060	0.540
2020/01/31 07:05:52.7	89.860	-0.380	-0.010	0.510
2020/01/31 07:05:52.8	89.880	-0.360	-0.040	0.500
2020/01/31 07:05:52.9	89.900	-0.350	-0.080	0.490
2020/01/31 07:05:53.0	89.930	-0.340	-0.110	0.490
2020/01/31 07:05:53.1	89.950	-0.330	-0.150	0.480
2020/01/31 07:05:53.2	89.970	-0.310	-0.180	0.470
2020/01/31 07:05:53.3	89.990	-0.300	-0.210	0.470
2020/01/31 07:05:53.4	90.010	-0.280	-0.230	0.480
2020/01/31 07:05:53.5	90.030	-0.270	-0.260	0.480
2020/01/31 07:05:53.6	90.050	-0.250	-0.280	0.490
2020/01/31 07:05:53.7	90.060	-0.240	-0.300	0.500
2020/01/31 07:05:53.8	90.080	-0.220	-0.320	0.520
2020/01/31 07:05:53.9	90.090	-0.210	-0.330	0.530
2020/01/31 07:05:54.0	90.100	-0.200	-0.350	0.550
2020/01/31 07:05:54.1	90.110	-0.190	-0.350	0.580
2020/01/31 07:05:54.2	90.110	-0.180	-0.360	0.610
2020/01/31 07:05:54.3	90.110	-0.170	-0.370	0.640
2020/01/31 07:05:54.4	90.110	-0.160	-0.370	0.670
2020/01/31 07:05:54.5	90.110	-0.160	-0.370	0.710
2020/01/31 07:05:54.6				
2020/01/31 07:05:54.7	90.100	-0.150	-0.360	0.740
2020/01/31 07:05:54.8	90.080	-0.150	-0.350	0.830
2020/01/31 07:05:54.9	90.070	-0.150	-0.340	0.870
2020/01/31 07:05:55.0	90.050	-0.150	-0.320	0.910
2020/01/31 07:05:55.1	90.040	-0.150	-0.310	0.960
2020/01/31 07:05:55.2	90.020	-0.160	-0.290	1.010
2020/01/31 07:05:55.3	90.000	-0.160	-0.270	1.050
2020/01/31 07:05:55.4	89.970	-0.170	-0.260	1.100
2020/01/31 07:05:55.5	89.950	-0.170	-0.240	1.150
2020/01/31 07:05:55.6	89.920	-0.180	-0.220	1.200
2020/01/31 07:05:55.7	89.890	-0.190	-0.190	1.240
2020/01/31 07:05:55.8	89.860	-0.200	-0.170	1.290
2020/01/31 07:05:55.9	89.830	-0.210	-0.150	1.340
2020/01/31 07:05:56.0	89.800	-0.220	-0.130	1.380
2020/01/31 07:05:56.1	89.760	-0.230	-0.110	1.430
2020/01/31 07:05:56.2	89.740	-0.230	-0.090	1.470
2020/01/31 07:05:56.3	89.700	-0.240	-0.070	1.510
2020/01/31 07:05:56.4	89.670	-0.250	-0.060	1.550
2020/01/31 07:05:56.5	89.640	-0.260	-0.040	1.580
2020/01/31 07:05:56.6	89.610	-0.260	-0.030	1.610
2020/01/31 07:05:56.7				
2020/01/31 07:05:56.8	89.580	-0.260	-0.020	1.640
2020/01/31 07:05:56.9	89.530	-0.270	0.000	1.680
2020/01/31 07:05:57.0	89.510	-0.270	0.010	1.700
2020/01/31 07:05:57.1	89.480	-0.260	0.010	1.710
2020/01/31 07:05:57.2	89.460	-0.260	0.010	1.710
2020/01/31 07:05:57.3	89.440	-0.250	0.010	1.710
2020/01/31 07:05:57.4	89.430	-0.240	0.000	1.710
2020/01/31 07:05:57.5	89.420	-0.230	-0.000	1.700
2020/01/31 07:05:57.6	89.410	-0.210	-0.010	1.690
2020/01/31 07:05:57.7	89.400	-0.200	-0.020	1.670
2020/01/31 07:05:57.8	89.400	-0.180	-0.040	1.640
2020/01/31 07:05:57.9	89.400	-0.160	-0.050	1.610
2020/01/31 07:05:58.0	89.400	-0.140	-0.070	1.580
2020/01/31 07:05:58.1	89.400	-0.110	-0.090	1.540
2020/01/31 07:05:58.2	89.400	-0.080	-0.110	1.490
2020/01/31 07:05:58.3	89.410	-0.060	-0.130	1.440
2020/01/31 07:05:58.4	89.420	-0.030	-0.150	1.390
2020/01/31 07:05:58.5	89.430	0.000	-0.180	1.330
2020/01/31 07:05:58.6	89.440	0.040	-0.210	1.270
2020/01/31 07:05:58.7	89.460	0.070	-0.230	1.210
2020/01/31 07:05:58.8				
2020/01/31 07:05:58.9	89.470	0.100	-0.260	1.150
2020/01/31 07:05:59.0	89.500	0.170	-0.320	1.010
2020/01/31 07:05:59.1	89.520	0.210	-0.350	0.940
2020/01/31 07:05:59.2	89.540	0.240	-0.380	0.870
2020/01/31 07:05:59.3	89.550	0.280	-0.410	0.800
2020/01/31 07:05:59.4	89.570	0.310	-0.440	0.730
2020/01/31 07:05:59.5	89.580	0.340	-0.470	0.650
2020/01/31 07:05:59.6	89.600	0.370	-0.490	0.580
2020/01/31 07:05:59.7	89.610	0.400	-0.520	0.510
2020/01/31 07:05:59.8	89.630	0.430	-0.540	0.440
2020/01/31 07:05:59.9	89.640	0.450	-0.560	0.380
2020/01/31 07:06:00.0	89.650	0.470	-0.580	0.310
2020/01/31 07:06:00.1	89.660	0.490	-0.600	0.250
2020/01/31 07:06:00.2	89.670	0.510	-0.610	0.190
2020/01/31 07:06:00.3	89.680	0.530	-0.620	0.130
2020/01/31 07:06:00.4	89.690	0.540	-0.630	0.080
2020/01/31 07:06:00.5	89.690	0.550	-0.630	0.030
2020/01/31 07:06:00.6	89.700	0.550	-0.630	-0.020
2020/01/31 07:06:00.7	89.700	0.560	-0.620	-0.060
2020/01/31 07:06:00.8	89.700	0.550	-0.610	-0.100
2020/01/31 07:06:00.9				
2020/01/31 07:06:01.0	89.700	0.550	-0.600	-0.130
2020/01/31 07:06:01.1	89.690	0.530	-0.560	-0.180
2020/01/31 07:06:01.2	89.670	0.520	-0.540	-0.190
2020/01/31 07:06:01.3	89.660	0.510	-0.510	-0.200
2020/01/31 07:06:01.4	89.640	0.490	-0.470	-0.210
2020/01/31 07:06:01.5	89.630	0.470	-0.430	-0.210
2020/01/31 07:06:01.6	89.610	0.440	-0.380	-0.210
2020/01/31 07:06:01.7	89.590	0.420	-0.340	-0.200
2020/01/31 07:06:01.8	89.560	0.390	-0.290	-0.190
2020/01/31 07:06:01.9	89.540	0.360	-0.230	-0.180
2020/01/31 07:06:02.0	89.510	0.330	-0.170	-0.160
2020/01/31 07:06:02.1	89.480	0.300	-0.120	-0.130
2020/01/31 07:06:02.2	89.440	0.270	-0.050	-0.110
2020/01/31 07:06:02.3	89.410	0.230	0.010	-0.080
2020/01/31 07:06:02.4	89.380	0.200	0.070	-0.050
2020/01/31 07:06:02.5	89.350	0.160	0.140	-0.020
2020/01/31 07:06:02.6	89.310	0.130	0.200	0.010
2020/01/31 07:06:02.7	89.280	0.090	0.260	0.050
2020/01/31 07:06:02.8	89.250	0.060	0.320	0.090
2020/01/31 07:06:02.9	89.210	0.020	0.380	0.120
2020/01/31 07:06:03.0				
2020/01/31 07:06:03.1	89.180	-0.010	0.430	0.160
2020/01/31 07:06:03.2	89.120	-0.070	0.530	0.230
2020/01/31 07:06:03.3	89.100	-0.100	0.570	0.260
2020/01/31 07:06:03.4	89.070	-0.130	0.610	0.290
2020/01/31 07:06:03.5	89.050	-0.160	0.640	0.320
2020/01/31 07:06:03.6	89.020	-0.180	0.660	0.350
2020/01/31 07:06:03.7	89.000	-0.210	0.680	0.380
2020/01/31 07:06:03.8	88.990	-0.230	0.690	0.400
2020/01/31 07:06:03.9	88.970	-0.250	0.700	0.420
2020/01/31 07:06:04.0	88.960	-0.260	0.690	0.440
2020/01/31 07:06:04.1	88.940	-0.280	0.680	0.460
2020/01/31 07:06:04.2	88.940	-0.290	0.660	0.470
2020/01/31 07:06:04.3	88.930	-0.300	0.630	0.480
2020/01/31 07:06:04.4	88.930	-0.300	0.600	0.500
2020/01/31 07:06:04.5	88.930	-0.310	0.560	0.510
2020/01/31 07:06:04.6	88.930	-0.310	0.520	0.520
2020/01/31 07:06:04.7	88.930	-0.300	0.470	0.520
2020/01/31 07:06:04.8	88.930	-0.300	0.410	0.530
2020/01/31 07:06:04.9	88.940	-0.290	0.350	0.540
2020/01/31 07:06:05.0	88.940	-0.280	0.280	0.540
2020/01/31 07:06:05.1				
2020/01/31 07:06:05.2	88.950	-0.270	0.210	0.550
2020/01/31 07:06:05.3	88.960	-0.240	0.060	0.560
2020/01/31 07:06:05.4	88.970	-0.230	-0.010	0.560
2020/01/31 07:06:05.5	88.980	-0.210	-0.090	0.570
2020/01/31 07:06:05.6	89.000	-0.190	-0.170	0.580
2020/01/31 07:06:05.7	89.010	-0.170	-0.250	0.590
2020/01/31 07:06:05.8	89.020	-0.140	-0.330	0.610
2020/01/31 07:06:05.9	89.040	-0.120	-0.410	0.620
2020/01/31 07:06:06.0	89.050	-0.100	-0.480	0.630
2020/01/31 07:06:06.1	89.060	-0.070	-0.560	0.650
2020/01/31 07:06:06.2	89.070	-0.050	-0.630	0.670
2020/01/31 07:06:06.3	89.090	-0.030	-0.700	0.690
2020/01/31 07:06:06.4	89.100	-0.000	-0.760	0.710
2020/01/31 07:06:06.5	89.110	0.020	-0.820	0.730
2020/01/31 07:06:06.6	89.120	0.040	-0.870	0.760
2020/01/31 07:06:06.7	89.130	0.060	-0.920	0.780
2020/01/31 07:06:06.8	89.140	0.080	-0.960	0.800
2020/01/31 07:06:06.9	89.150	0.100	-1.000	0.830
2020/01/31 07:06:07.0	89.150	0.110	-1.030	0.860
2020/01/31 07:06:07.1	89.160	0.120	-1.050	0.880
2020/01/31 07:06:07.2				
2020/01/31 07:06:07.3	89.160	0.140	-1.070	0.910
2020/01/31 07:06:07.4	89.170	0.150	-1.080	0.960
2020/01/31 07:06:07.5	89.180	0.150	-1.080	0.990
2020/01/31 07:06:07.6	89.180	0.160	-1.070	1.020
2020/01/31 07:06:07.7	89.180	0.150	-1.050	1.050
2020/01/31 07:06:07.8	89.180	0.150	-1.020	1.080
2020/01/31 07:06:07.9	89.180	0.150	-0.990	1.110
2020/01/31 07:06:08.0	89.170	0.140	-0.940	1.140
2020/01/31 07:06:08.1	89.170	0.130	-0.900	1.170
2020/01/31 07:06:08.2	89.170	0.120	-0.840	1.200
2020/01/31 07:06:08.3	89.160	0.100	-0.780	1.230
2020/01/31 07:06:08.4	89.160	0.090	-0.710	1.260
2020/01/31 07:06:08.5	89.150	0.070	-0.640	1.290
2020/01/31 07:06:08.6	89.130	0.050	-0.570	1.320
2020/01/31 07:06:08.7	89.120	0.030	-0.490	1.350
2020/01/31 07:06:08.8	89.100	0.010	-0.410	1.380
2020/01/31 07:06:08.9	89.090	-0.010	-0.320	1.410
2020/01/31 07:06:09.0	89.070	-0.030	-0.240	1.440
2020/01/31 07:06:09.1	89.050	-0.040	-0.150	1.470
2020/01/31 07:06:09.2	89.020	-0.060	-0.060	1.500
2020/01/31 07:06:09.3				
2020/01/31 07:06:09.4	89.000	-0.080	0.020	1.530
2020/01/31 07:06:09.5	88.960	-0.120	0.180	1.590
2020/01/31 07:06:09.6	88.940	-0.130	0.260	1.610
2020/01/31 07:06:09.7	88.920	-0.150	0.330	1.640
2020/01/31 07:06:09.8	88.900	-0.160	0.400	1.660
2020/01/31 07:06:09.9	88.880	-0.170	0.460	1.680
2020/01/31 07:06:10.0	88.860	-0.170	0.510	1.700
2020/01/31 07:06:10.1	88.840	-0.180	0.560	1.720
2020/01/31 07:06:10.2	88.830	-0.180	0.600	1.730
2020/01/31 07:06:10.3	88.820	-0.180	0.630	1.740
2020/01/31 07:06:10.4	88.800	-0.180	0.650	1.750
2020/01/31 07:06:10.5	88.790	-0.180	0.660	1.750
2020/01/31 07:06:10.6	88.770	-0.170	0.660	1.750
2020/01/31 07:06:10.7	88.760	-0.160	0.660	1.750
2020/01/31 07:06:10.8	88.750	-0.150	0.650	1.740
2020/01/31 07:06:10.9	88.740	-0.130	0.630	1.730
2020/01/31 07:06:11.0	88.730	-0.120	0.600	1.710
2020/01/31 07:06:11.1	88.730	-0.100	0.570	1.690
2020/01/31 07:06:11.2	88.740	-0.080	0.530	1.670
2020/01/31 07:06:11.3	88.740	-0.060	0.480	1.650
2020/01/31 07:06:11.4				
2020/01/31 07:06:11.5	88.730	-0.030	0.420	1.620
2020/01/31 07:06:11.6	88.730	0.010	0.310	1.550
2020/01/31 07:06:11.7	88.730	0.040	0.240	1.510
2020/01/31 07:06:11.8	88.730	0.060	0.170	1.480
2020/01/31 07:06:11.9	88.730	0.090	0.110	1.430
2020/01/31 07:06:12.0	88.730	0.110	0.040	1.390
2020/01/31 07:06:12.1	88.740	0.140	-0.030	1.350
2020/01/31 07:06:12.2	88.740	0.160	-0.100	1.300
2020/01/31 07:06:12.3	88.740	0.180	-0.170	1.250
2020/01/31 07:06:12.4	88.740	0.200	-0.240	1.200
2020/01/31 07:06:12.5	88.740	0.220	-0.300	1.150
2020/01/31 07:06:12.6	88.740	0.230	-0.360	1.090
2020/01/31 07:06:12.7	88.750	0.250	-0.410	1.040
2020/01/31 07:06:12.8	88.750	0.260	-0.460	0.990
2020/01/31 07:06:12.9	88.750	0.270	-0.510	0.930
2020/01/31 07:06:13.0	88.750	0.280	-0.550	0.870
2020/01/31 07:06:13.1	88.750	0.280	-0.580	0.810
2020/01/31 07:06:13.2	88.740	0.280	-0.610	0.750
2020/01/31 07:06:13.3	88.740	0.280	-0.630	0.690
2020/01/31 07:06:13.4	88.740	0.280	-0.650	0.630
2020/01/31 07:06:13.5				
2020/01/31 07:06:13.6	88.750	0.270	-0.660	0.570
2020/01/31 07:06:13.7	88.750	0.260	-0.660	0.460
2020/01/31 07:06:13.8	88.750	0.240	-0.650	0.400
2020/01/31 07:06:13.9	88.750	0.230	-0.640	0.350
2020/01/31 07:06:14.0	88.750	0.220	-0.620	0.290
2020/01/31 07:06:14.1	88.750	0.200	-0.600	0.240
2020/01/31 07:06:14.2	88.730	0.180	-0.560	0.190
2020/01/31 07:06:14.3	88.730	0.160	-0.530	0.140
2020/01/31 07:06:14.4	88.720	0.140	-0.490	0.100
2020/01/31 07:06:14.5	88.720	0.120	-0.450	0.060
2020/01/31 07:06:14.6	88.720	0.100	-0.410	0.020
2020/01/31 07:06:14.7	88.710	0.070	-0.360	-0.020
2020/01/31 07:06:14.8	88.710	0.050	-0.310	-0.050
2020/01/31 07:06:14.9	88.700	0.030	-0.260	-0.080
2020/01/31 07:06:15.0	88.690	0.010	-0.210	-0.100
2020/01/31 07:06:15.1	88.680	-0.020	-0.160	-0.120
2020/01/31 07:06:15.2	88.680	-0.040	-0.110	-0.140
2020/01/31 07:06:15.3	88.670	-0.060	-0.060	-0.150
2020/01/31 07:06:15.4	88.660	-0.080	-0.010	-0.160
2020/01/31 07:06:15.5	88.650	-0.100	0.040	-0.170
2020/01/31 07:06:15.6				
2020/01/31 07:06:15.7	88.630	-0.120	0.080	-0.170
2020/01/31 07:06:15.8	88.610	-0.160	0.160	-0.160
2020/01/31 07:06:15.9	88.590	-0.170	0.200	-0.150
2020/01/31 07:06:16.0	88.580	-0.190	0.230	-0.140
2020/01/31 07:06:16.1	88.570	-0.200	0.260	-0.130
2020/01/31 07:06:16.2	88.550	-0.210	0.290	-0.110
2020/01/31 07:06:16.3	88.540	-0.230	0.310	-0.090
2020/01/31 07:06:16.4	88.530	-0.240	0.320	-0.070
2020/01/31 07:06:16.5	88.520	-0.240	0.330	-0.050
2020/01/31 07:06:16.6	88.510	-0.250	0.330	-0.030
2020/01/31 07:06:16.7	88.500	-0.260	0.330	-0.010
2020/01/31 07:06:16.8	88.490	-0.260	0.330	0.020
2020/01/31 07:06:16.9	88.480	-0.260	0.320	0.040
2020/01/31 07:06:17.0	88.480	-0.270	0.310	0.070
2020/01/31 07:06:17.1	88.470	-0.270	0.290	0.100
2020/01/31 07:06:17.2	88.480	-0.270	0.270	0.120
2020/01/31 07:06:17.3	88.480	-0.260	0.240	0.150
2020/01/31 07:06:17.4	88.480	-0.260	0.220	0.180
2020/01/31 07:06:17.5	88.480	-0.250	0.180	0.200
2020/01/31 07:06:17.6	88.480	-0.250	0.150	0.230
2020/01/31 07:06:17.7				
2020/01/31 07:06:17.8	88.490	-0.240	0.110	0.260
2020/01/31 07:06:17.9	88.500	-0.220	0.030	0.320
2020/01/31 07:06:18.0	88.510	-0.210	-0.010	0.350
2020/01/31 07:06:18.1	88.520	-0.200	-0.050	0.370
2020/01/31 07:06:18.2	88.530	-0.180	-0.100	0.400
2020/01/31 07:06:18.3	88.540	-0.170	-0.150	0.430
2020/01/31 07:06:18.4	88.550	-0.150	-0.190	0.460
2020/01/31 07:06:18.5	88.560	-0.130	-0.240	0.500
2020/01/31 07:06:18.6	88.570	-0.120	-0.290	0.530
2020/01/31 07:06:18.7	88.590	-0.100	-0.330	0.560
2020/01/31 07:06:18.8	88.600	-0.080	-0.380	0.600
2020/01/31 07:06:18.9	88.610	-0.060	-0.420	0.630
2020/01/31 07:06:19.0	88.620	-0.040	-0.460	0.670
2020/01/31 07:06:19.1	88.630	-0.010	-0.510	0.700
2020/01/31 07:06:19.2	88.630	0.010	-0.540	0.740
2020/01/31 07:06:19.3	88.640	0.030	-0.580	0.780
2020/01/31 07:06:19.4	88.640	0.060	-0.610	0.820
2020/01/31 07:06:19.5	88.650	0.080	-0.650	0.860
2020/01/31 07:06:19.6	88.650	0.100	-0.680	0.900
2020/01/31 07:06:19.7	88.650	0.120	-0.700	0.950
2020/01/31 07:06:19.8				
2020/01/31 07:06:19.9	88.650	0.150	-0.720	0.990
2020/01/31 07:06:20.0	88.640	0.190	-0.760	1.080
2020/01/31 07:06:20.1	88.630	0.210	-0.770	1.120
2020/01/31 07:06:20.2	88.620	0.230	-0.770	1.170
2020/01/31 07:06:20.3	88.610	0.250	-0.770	1.210
2020/01/31 07:06:20.4	88.600	0.270	-0.770	1.260
2020/01/31 07:06:20.5	88.590	0.280	-0.760	1.300
2020/01/31 07:06:20.6	88.580	0.300	-0.750	1.340
2020/01/31 07:06:20.7	88.560	0.310	-0.740	1.380
2020/01/31 07:06:20.8	88.550	0.320	-0.720	1.420
2020/01/31 07:06:20.9	88.540	0.330	-0.700	1.450
2020/01/31 07:06:21.0	88.520	0.340	-0.670	1.490
2020/01/31 07:06:21.1	88.500	0.350	-0.640	1.520
2020/01/31 07:06:21.2	88.490	0.360	-0.600	1.550
2020/01/31 07:06:21.3	88.470	0.360	-0.570	1.580
2020/01/31 07:06:21.4	88.450	0.360	-0.530	1.610
2020/01/31 07:06:21.5	88.440	0.360	-0.500	1.640
2020/01/31 07:06:21.6	88.420	0.360	-0.460	1.660
2020/01/31 07:06:21.7	88.400	0.360	-0.410	1.690
2020/01/31 07:06:21.8	88.390	0.350	-0.370	1.710
2020/01/31 07:06:21.9				
2020/01/31 07:06:22.0	88.370	0.350	-0.330	1.730
2020/01/31 07:06:22.1	88.340	0.330	-0.250	1.770
2020/01/31 07:06:22.2	88.330	0.320	-0.200	1.790
2020/01/31 07:06:22.3	88.320	0.310	-0.160	1.800
2020/01/31 07:06:22.4	88.310	0.300	-0.120	1.820
2020/01/31 07:06:22.5	88.300	0.290	-0.090	1.830
2020/01/31 07:06:22.6	88.290	0.270	-0.050	1.840
2020/01/31 07:06:22.7	88.280	0.260	-0.010	1.850
2020/01/31 07:06:22.8	88.270	0.240	0.020	1.860
2020/01/31 07:06:22.9	88.260	0.230	0.060	1.860
2020/01/31 07:06:23.0	88.260	0.210	0.090	1.870
2020/01/31 07:06:23.1	88.250	0.190	0.120	1.870
2020/01/31 07:06:23.2	88.260	0.170	0.150	1.870
2020/01/31 07:06:23.3	88.250	0.150	0.180	1.870
2020/01/31 07:06:23.4	88.250	0.130	0.200	1.870
2020/01/31 07:06:23.5	88.250	0.110	0.230	1.860
2020/01/31 07:06:23.6	88.250	0.090	0.250	1.850
2020/01/31 07:06:23.7	88.250	0.070	0.270	1.840
2020/01/31 07:06:23.8	88.250	0.050	0.290	1.830
2020/01/31 07:06:23.9	88.260	0.030	0.310	1.810
2020/01/31 07:06:24.0				
2020/01/31 07:06:24.1	88.260	0.010	0.330	1.780
2020/01/31 07:06:24.2	88.270	-0.030	0.360	1.730
2020/01/31 07:06:24.3	88.280	-0.050	0.370	1.690
2020/01/31 07:06:24.4	88.290	-0.070	0.380	1.660
2020/01/31 07:06:24.5	88.300	-0.080	0.390	1.620
2020/01/31 07:06:24.6	88.310	-0.100	0.400	1.570
2020/01/31 07:06:24.7	88.320	-0.120	0.400	1.520
2020/01/31 07:06:24.8	88.330	-0.130	0.410	1.470
2020/01/31 07:06:24.9	88.340	-0.150	0.410	1.420
2020/01/31 07:06:25.0	88.360	-0.160	0.410	1.360
2020/01/31 07:06:25.1	88.370	-0.180	0.410	1.310
2020/01/31 07:06:25.2				
2020/01/31 07:06:25.3	88.380	-0.190	0.400	1.240
2020/01/31 07:06:25.4	88.400	-0.210	0.380	1.120
2020/01/31 07:06:25.5	88.410	-0.220	0.370	1.050
2020/01/31 07:06:25.6	88.420	-0.230	0.350	0.990
2020/01/31 07:06:25.7	88.430	-0.240	0.330	0.920
2020/01/31 07:06:25.8	88.440	-0.240	0.310	0.860
2020/01/31 07:06:25.9	88.450	-0.250	0.280	0.790
2020/01/31 07:06:26.0	88.450	-0.250	0.260	0.730
2020/01/31 07:06:26.1				
2020/01/31 07:06:26.2	88.460	-0.250	0.220	0.670
2020/01/31 07:06:26.3	88.460	-0.250	0.150	0.550
2020/01/31 07:06:26.4	88.460	-0.250	0.110	0.490
2020/01/31 07:06:26.5	88.460	-0.240	0.070	0.430
2020/01/31 07:06:26.6	88.460	-0.240	0.030	0.380
2020/01/31 07:06:26.7	88.450	-0.230	-0.020	0.330
2020/01/31 07:06:26.8	88.450	-0.220	-0.070	0.280
2020/01/31 07:06:26.9	88.450	-0.210	-0.120	0.230
2020/01/31 07:06:27.0	88.440	-0.200	-0.170	0.190
2020/01/31 07:06:27.1	88.430	-0.190	-0.220	0.140
2020/01/31 07:06:27.2	88.430	-0.170	-0.270	0.100
2020/01/31 07:06:27.3	88.430	-0.160	-0.330	0.060
2020/01/31 07:06:27.4	88.420	-0.140	-0.380	0.030
2020/01/31 07:06:27.5	88.410	-0.130	-0.430	-0.010
2020/01/31 07:06:27.6	88.410	-0.110	-0.480	-0.040
2020/01/31 07:06:27.7	88.400	-0.090	-0.520	-0.070
2020/01/31 07:06:27.8	88.390	-0.070	-0.570	-0.090
2020/01/31 07:06:27.9	88.390	-0.050	-0.610	-0.110
2020/01/31 07:06:28.0	88.380	-0.040	-0.650	-0.130
2020/01/31 07:06:28.1	88.380	-0.020	-0.690	-0.150
2020/01/31 07:06:28.2				
2020/01/31 07:06:28.3	88.350	0.000	-0.720	-0.170
2020/01/31 07:06:28.4	88.350	0.040	-0.770	-0.180
2020/01/31 07:06:28.5	88.350	0.060	-0.790	-0.190
2020/01/31 07:06:28.6	88.350	0.080	-0.810	-0.190
2020/01/31 07:06:28.7	88.350	0.090	-0.820	-0.190
2020/01/31 07:06:28.8	88.350	0.110	-0.820	-0.180
2020/01/31 07:06:28.9	88.350	0.120	-0.820	-0.180
2020/01/31 07:06:29.0	88.360	0.140	-0.810	-0.170
2020/01/31 07:06:29.1	88.360	0.150	-0.800	-0.150
2020/01/31 07:06:29.2				
2020/01/31 07:06:29.3	88.360	0.160	-0.780	-0.140
2020/01/31 07:06:29.4	88.370	0.180	-0.730	-0.100
2020/01/31 07:06:29.5	88.370	0.190	-0.700	-0.070
2020/01/31 07:06:29.6	88.380	0.190	-0.660	-0.040
2020/01/31 07:06:29.7	88.380	0.190	-0.620	-0.010
2020/01/31 07:06:29.8	88.390	0.200	-0.580	0.020
2020/01/31 07:06:29.9	88.400	0.200	-0.530	0.060
2020/01/31 07:06:30.0	88.400	0.190	-0.490	0.090
2020/01/31 07:06:30.1	88.410	0.190	-0.430	0.130
2020/01/31 07:06:30.2				
2020/01/31 07:06:30.3	88.410	0.180	-0.380	0.180
2020/01/31 07:06:30.4	88.420	0.180	-0.330	0.220
2020/01/31 07:06:30.5	88.430	0.160	-0.220	0.300
2020/01/31 07:06:30.6	88.430	0.150	-0.170	0.350
2020/01/31 07:06:30.7	88.430	0.130	-0.110	0.390
2020/01/31 07:06:30.8	88.440	0.120	-0.060	0.430
2020/01/31 07:06:30.9	88.440	0.100	-0.010	0.480
2020/01/31 07:06:31.0	88.440	0.080	0.040	0.520
2020/01/31 07:06:31.1	88.450	0.060	0.080	0.560
2020/01/31 07:06:31.2	88.450	0.040	0.140	0.600
2020/01/31 07:06:31.3	88.450	0.020	0.180	0.640
2020/01/31 07:06:31.4	88.450	-0.010	0.220	0.680
2020/01/31 07:06:31.5	88.450	-0.030	0.250	0.710
2020/01/31 07:06:31.6	88.450	-0.060	0.280	0.750
2020/01/31 07:06:31.7	88.450	-0.080	0.310	0.780
2020/01/31 07:06:31.8	88.450	-0.110	0.340	0.810
2020/01/31 07:06:31.9	88.450	-0.130	0.360	0.850
2020/01/31 07:06:32.0				
2020/01/31 07:06:32.1	88.450	-0.160	0.390	0.880
2020/01/31 07:06:32.2	88.440	-0.190	0.400	0.910
2020/01/31 07:06:32.3				
2020/01/31 07:06:32.4	88.440	-0.240	0.420	0.970
2020/01/31 07:06:32.5	88.440	-0.260	0.430	1.000
2020/01/31 07:06:32.6	88.430	-0.310	0.440	1.060
2020/01/31 07:06:32.7	88.420	-0.330	0.440	1.080
2020/01/31 07:06:32.8	88.420	-0.350	0.430	1.110
2020/01/31 07:06:32.9				
2020/01/31 07:06:33.0	88.410	-0.370	0.420	1.140
2020/01/31 07:06:33.1				
2020/01/31 07:06:33.2	88.400	-0.400	0.400	1.190
2020/01/31 07:06:33.3	88.390	-0.420	0.370	1.240
2020/01/31 07:06:33.4	88.380	-0.430	0.340	1.270
2020/01/31 07:06:33.5	88.380	-0.430	0.320	1.290
2020/01/31 07:06:33.6				
2020/01/31 07:06:33.7	88.370	-0.430	0.290	1.320
2020/01/31 07:06:33.8	88.360	-0.420	0.230	1.360
2020/01/31 07:06:33.9	88.350	-0.420	0.190	1.390
2020/01/31 07:06:34.0	88.340	-0.410	0.150	1.410
2020/01/31 07:06:34.1	88.340	-0.390	0.110	1.420
2020/01/31 07:06:34.2	88.350	-0.380	0.070	1.440
2020/01/31 07:06:34.3	88.340	-0.360	0.020	1.460
2020/01/31 07:06:34.4	88.340	-0.330	-0.030	1.470
2020/01/31 07:06:34.5				
2020/01/31 07:06:34.6	88.340	-0.310	-0.080	1.480
2020/01/31 07:06:34.7				
2020/01/31 07:06:34.8	88.340	-0.240	-0.190	1.490
2020/01/31 07:06:34.9	88.350	-0.170	-0.300	1.500
2020/01/31 07:06:35.0	88.360	-0.130	-0.360	1.490
2020/01/31 07:06:35.1	88.370	-0.090	-0.410	1.490
2020/01/31 07:06:35.2				
2020/01/31 07:06:35.3	88.360	-0.050	-0.480	1.480
2020/01/31 07:06:35.4	88.390	0.040	-0.590	1.460
2020/01/31 07:06:35.5	88.400	0.090	-0.650	1.440
2020/01/31 07:06:35.6				
2020/01/31 07:06:35.7	88.420	0.140	-0.700	1.430
2020/01/31 07:06:35.8	88.430	0.180	-0.750	1.410
2020/01/31 07:06:35.9	88.460	0.280	-0.840	1.370
2020/01/31 07:06:36.0	88.480	0.330	-0.880	1.340
2020/01/31 07:06:36.1	88.500	0.370	-0.910	1.320
2020/01/31 07:06:36.2	88.510	0.420	-0.940	1.290
2020/01/31 07:06:36.3	88.530	0.460	-0.970	1.270
2020/01/31 07:06:36.4	88.550	0.500	-0.990	1.240
2020/01/31 07:06:36.5	88.570	0.540	-1.000	1.210
2020/01/31 07:06:36.6				
2020/01/31 07:06:36.7	88.580	0.580	-1.010	1.180
2020/01/31 07:06:36.8	88.620	0.640	-1.010	1.130
2020/01/31 07:06:36.9	88.630	0.670	-1.000	1.100
2020/01/31 07:06:37.0	88.650	0.690	-0.980	1.080
2020/01/31 07:06:37.1	88.660	0.710	-0.950	1.050
2020/01/31 07:06:37.2				
2020/01/31 07:06:37.3	88.670	0.730	-0.920	1.030
2020/01/31 07:06:37.4				
2020/01/31 07:06:37.5	88.690	0.750	-0.840	0.980
2020/01/31 07:06:37.6	88.720	0.750	-0.740	0.930
2020/01/31 07:06:37.7	88.730	0.740	-0.680	0.910
2020/01/31 07:06:37.8	88.740	0.740	-0.620	0.890
2020/01/31 07:06:37.9	88.750	0.720	-0.550	0.870
2020/01/31 07:06:38.0	88.750	0.700	-0.480	0.860
2020/01/31 07:06:38.1	88.760	0.680	-0.410	0.840
2020/01/31 07:06:38.2				
2020/01/31 07:06:38.3	88.770	0.660	-0.330	0.820
2020/01/31 07:06:38.4	88.780	0.590	-0.170	0.800
2020/01/31 07:06:38.5	88.780	0.560	-0.090	0.790
2020/01/31 07:06:38.6	88.780	0.520	-0.010	0.780
2020/01/31 07:06:38.7				
2020/01/31 07:06:38.8	88.780	0.480	0.070	0.770
2020/01/31 07:06:38.9	88.780	0.390	0.220	0.770
2020/01/31 07:06:39.0	88.770	0.340	0.290	0.770
2020/01/31 07:06:39.1	88.770	0.290	0.370	0.770
2020/01/31 07:06:39.2				
2020/01/31 07:06:39.3	88.760	0.240	0.430	0.770
2020/01/31 07:06:39.4	88.740	0.130	0.550	0.780
2020/01/31 07:06:39.5	88.730	0.080	0.610	0.790
2020/01/31 07:06:39.6	88.720	0.030	0.650	0.800
2020/01/31 07:06:39.7	88.700	-0.020	0.690	0.820
2020/01/31 07:06:39.8	88.690	-0.070	0.730	0.830
2020/01/31 07:06:39.9	88.670	-0.120	0.760	0.840
2020/01/31 07:06:40.0	88.650	-0.170	0.780	0.850
2020/01/31 07:06:40.1	88.630	-0.220	0.790	0.870
2020/01/31 07:06:40.2				
2020/01/31 07:06:40.3	88.610	-0.260	0.800	0.880
2020/01/31 07:06:40.4	88.570	-0.340	0.780	0.910
2020/01/31 07:06:40.5				
2020/01/31 07:06:40.6	88.550	-0.380	0.770	0.920
2020/01/31 07:06:40.7	88.530	-0.410	0.740	0.930
2020/01/31 07:06:40.8				
2020/01/31 07:06:40.9	88.490	-0.470	0.680	0.960
2020/01/31 07:06:41.0	88.450	-0.520	0.590	0.970
2020/01/31 07:06:41.1	88.430	-0.540	0.530	0.980
2020/01/31 07:06:41.2				
2020/01/31 07:06:41.3	88.420	-0.550	0.470	0.980
2020/01/31 07:06:41.4	88.410	-0.560	0.410	0.980
2020/01/31 07:06:41.5	88.390	-0.570	0.340	0.980
2020/01/31 07:06:41.6	88.370	-0.580	0.200	0.980
2020/01/31 07:06:41.7	88.360	-0.580	0.130	0.980
2020/01/31 07:06:41.8	88.360	-0.580	0.060	0.970
2020/01/31 07:06:41.9	88.350	-0.570	-0.020	0.960
2020/01/31 07:06:42.0				
2020/01/31 07:06:42.1	88.350	-0.560	-0.090	0.950
2020/01/31 07:06:42.2	88.350	-0.550	-0.160	0.930
2020/01/31 07:06:42.3				
2020/01/31 07:06:42.4	88.350	-0.530	-0.300	0.900
2020/01/31 07:06:42.5	88.350	-0.510	-0.360	0.890
2020/01/31 07:06:42.6	88.360	-0.500	-0.420	0.870
2020/01/31 07:06:42.7	88.370	-0.460	-0.530	0.830
2020/01/31 07:06:42.8	88.380	-0.430	-0.570	0.800
2020/01/31 07:06:42.9				
2020/01/31 07:06:43.0	88.390	-0.410	-0.620	0.780
2020/01/31 07:06:43.1	88.410	-0.370	-0.690	0.740
2020/01/31 07:06:43.2	88.420	-0.340	-0.710	0.710
2020/01/31 07:06:43.3	88.430	-0.320	-0.730	0.690
2020/01/31 07:06:43.4				
2020/01/31 07:06:43.5	88.450	-0.290	-0.750	0.670
2020/01/31 07:06:43.6	88.460	-0.260	-0.760	0.640
2020/01/31 07:06:43.7	88.490	-0.210	-0.770	0.600
2020/01/31 07:06:43.8	88.510	-0.190	-0.760	0.580
2020/01/31 07:06:43.9	88.530	-0.160	-0.750	0.550
2020/01/31 07:06:44.0	88.540	-0.140	-0.740	0.530
2020/01/31 07:06:44.1	88.560	-0.110	-0.720	0.510
2020/01/31 07:06:44.2				
2020/01/31 07:06:44.3	88.560	-0.090	-0.700	0.490
2020/01/31 07:06:44.4	88.580	-0.060	-0.680	0.470
2020/01/31 07:06:44.5	88.620	-0.010	-0.620	0.440
2020/01/31 07:06:44.6	88.630	0.010	-0.580	0.420
2020/01/31 07:06:44.7	88.650	0.030	-0.550	0.410
2020/01/31 07:06:44.8	88.660	0.050	-0.510	0.390
2020/01/31 07:06:44.9	88.680	0.070	-0.470	0.380
2020/01/31 07:06:45.0				
2020/01/31 07:06:45.1	88.690	0.090	-0.430	0.370
2020/01/31 07:06:45.2	88.710	0.110	-0.390	0.360
2020/01/31 07:06:45.3	88.720	0.130	-0.350	0.350
2020/01/31 07:06:45.4	88.740	0.160	-0.270	0.340
2020/01/31 07:06:45.5	88.760	0.170	-0.230	0.330
2020/01/31 07:06:45.6	88.760	0.190	-0.190	0.330
2020/01/31 07:06:45.7	88.770	0.200	-0.150	0.330
2020/01/31 07:06:45.8	88.780	0.210	-0.120	0.330
2020/01/31 07:06:45.9	88.790	0.220	-0.080	0.340
2020/01/31 07:06:46.0	88.790	0.230	-0.050	0.340
2020/01/31 07:06:46.1	88.790	0.240	-0.020	0.350
2020/01/31 07:06:46.2				
2020/01/31 07:06:46.3	88.790	0.250	0.010	0.350
2020/01/31 07:06:46.4	88.790	0.260	0.060	0.370
2020/01/31 07:06:46.5	88.790	0.260	0.090	0.390
2020/01/31 07:06:46.6	88.790	0.260	0.110	0.400
2020/01/31 07:06:46.7	88.790	0.260	0.130	0.420
2020/01/31 07:06:46.8	88.780	0.260	0.140	0.440
2020/01/31 07:06:46.9	88.780	0.260	0.160	0.460
2020/01/31 07:06:47.0	88.770	0.250	0.170	0.490
2020/01/31 07:06:47.1				
2020/01/31 07:06:47.2	88.760	0.250	0.180	0.510
2020/01/31 07:06:47.3	88.740	0.230	0.200	0.560
2020/01/31 07:06:47.4	88.730	0.230	0.200	0.590
2020/01/31 07:06:47.5	88.720	0.220	0.200	0.620
2020/01/31 07:06:47.6				
2020/01/31 07:06:47.7	88.710	0.200	0.200	0.650
2020/01/31 07:06:47.8	88.700	0.190	0.190	0.680
2020/01/31 07:06:47.9	88.680	0.180	0.180	0.710
2020/01/31 07:06:48.0	88.660	0.150	0.160	0.770
2020/01/31 07:06:48.1				
2020/01/31 07:06:48.2	88.650	0.130	0.140	0.790
2020/01/31 07:06:48.3	88.620	0.100	0.100	0.850
2020/01/31 07:06:48.4	88.610	0.080	0.080	0.870
2020/01/31 07:06:48.5	88.590	0.060	0.050	0.900
2020/01/31 07:06:48.6	88.580	0.040	0.030	0.920
2020/01/31 07:06:48.7				
2020/01/31 07:06:48.8	88.570	0.030	0.000	0.940
2020/01/31 07:06:48.9	88.560	0.010	-0.020	0.970
2020/01/31 07:06:49.0	88.550	-0.010	-0.050	0.990
2020/01/31 07:06:49.1	88.540	-0.030	-0.080	1.010
2020/01/31 07:06:49.2	88.530	-0.050	-0.100	1.030
2020/01/31 07:06:49.3	88.530	-0.070	-0.130	1.050
2020/01/31 07:06:49.4	88.510	-0.110	-0.180	1.090
2020/01/31 07:06:49.5				
2020/01/31 07:06:49.6	88.510	-0.130	-0.210	1.110
2020/01/31 07:06:49.7	88.500	-0.150	-0.230	1.130
2020/01/31 07:06:49.8	88.480	-0.180	-0.270	1.170
2020/01/31 07:06:49.9	88.480	-0.200	-0.280	1.190
2020/01/31 07:06:50.0	88.470	-0.210	-0.300	1.210
2020/01/31 07:06:50.1	88.470	-0.230	-0.310	1.230
2020/01/31 07:06:50.2	88.460	-0.240	-0.320	1.250
2020/01/31 07:06:50.3				
2020/01/31 07:06:50.4	88.460	-0.250	-0.330	1.270
2020/01/31 07:06:50.5				
2020/01/31 07:06:50.6	88.460	-0.280	-0.340	1.310
2020/01/31 07:06:50.7	88.460	-0.290	-0.340	1.330
2020/01/31 07:06:50.8				
2020/01/31 07:06:50.9	88.450	-0.300	-0.340	1.370
2020/01/31 07:06:51.0	88.450	-0.300	-0.330	1.410
2020/01/31 07:06:51.1	88.460	-0.310	-0.330	1.420
2020/01/31 07:06:51.2	88.460	-0.300	-0.320	1.440
2020/01/31 07:06:51.3				
2020/01/31 07:06:51.4	88.460	-0.300	-0.320	1.460
2020/01/31 07:06:51.5	88.470	-0.290	-0.310	1.470
2020/01/31 07:06:51.6	88.470	-0.290	-0.310	1.480
2020/01/31 07:06:51.7	88.470	-0.280	-0.310	1.500
2020/01/31 07:06:51.8	88.480	-0.250	-0.300	1.520
2020/01/31 07:06:51.9	88.490	-0.240	-0.300	1.520
2020/01/31 07:06:52.0	88.500	-0.220	-0.290	1.530
2020/01/31 07:06:52.1	88.500	-0.200	-0.290	1.530
2020/01/31 07:06:52.2				
2020/01/31 07:06:52.3	88.510	-0.180	-0.290	1.530
2020/01/31 07:06:52.4	88.530	-0.130	-0.290	1.530
2020/01/31 07:06:52.5				
2020/01/31 07:06:52.6	88.540	-0.100	-0.290	1.520
2020/01/31 07:06:52.7	88.560	-0.050	-0.300	1.510
2020/01/31 07:06:52.8	88.580	-0.020	-0.300	1.500
2020/01/31 07:06:52.9	88.590	0.010	-0.300	1.480
2020/01/31 07:06:53.0	88.610	0.040	-0.300	1.470
2020/01/31 07:06:53.1	88.620	0.070	-0.300	1.450
2020/01/31 07:06:53.2				
2020/01/31 07:06:53.3	88.640	0.100	-0.300	1.430
2020/01/31 07:06:53.4				
2020/01/31 07:06:53.5	88.660	0.150	-0.300	1.390
2020/01/31 07:06:53.6	88.680	0.180	-0.300	1.360
2020/01/31 07:06:53.7	88.690	0.210	-0.300	1.340
2020/01/31 07:06:53.8	88.710	0.260	-0.290	1.280
2020/01/31 07:06:53.9	88.710	0.280	-0.290	1.250
2020/01/31 07:06:54.0	88.720	0.300	-0.280	1.210
2020/01/31 07:06:54.1	88.720	0.320	-0.270	1.180
2020/01/31 07:06:54.2				
2020/01/31 07:06:54.3	88.730	0.340	-0.260	1.140
2020/01/31 07:06:54.4	88.720	0.370	-0.230	1.070
2020/01/31 07:06:54.5	88.720	0.380	-0.210	1.040
2020/01/31 07:06:54.6	88.710	0.390	-0.190	1.000
2020/01/31 07:06:54.7	88.700	0.400	-0.170	0.960
2020/01/31 07:06:54.8	88.690	0.410	-0.150	0.920
2020/01/31 07:06:54.9	88.680	0.410	-0.130	0.880
2020/01/31 07:06:55.0	88.670	0.410	-0.110	0.840
2020/01/31 07:06:55.1	88.650	0.410	-0.080	0.800
2020/01/31 07:06:55.2				
2020/01/31 07:06:55.3	88.640	0.410	-0.060	0.760
2020/01/31 07:06:55.4	88.600	0.400	-0.000	0.680
2020/01/31 07:06:55.5				
2020/01/31 07:06:55.6	88.580	0.390	0.020	0.640
2020/01/31 07:06:55.7	88.560	0.380	0.050	0.600
2020/01/31 07:06:55.8	88.540	0.370	0.080	0.550
2020/01/31 07:06:55.9	88.490	0.340	0.130	0.470
2020/01/31 07:06:56.0	88.470	0.330	0.150	0.430
2020/01/31 07:06:56.1	88.450	0.310	0.170	0.390
2020/01/31 07:06:56.2				
2020/01/31 07:06:56.3	88.420	0.290	0.190	0.350
2020/01/31 07:06:56.4	88.370	0.260	0.220	0.270
2020/01/31 07:06:56.5	88.350	0.240	0.230	0.240
2020/01/31 07:06:56.6				
2020/01/31 07:06:56.7	88.330	0.220	0.230	0.200
2020/01/31 07:06:56.8	88.310	0.210	0.230	0.170
2020/01/31 07:06:56.9	88.270	0.170	0.230	0.110
2020/01/31 07:06:57.0				
2020/01/31 07:06:57.1	88.260	0.160	0.220	0.090
2020/01/31 07:06:57.2				
2020/01/31 07:06:57.3	88.230	0.130	0.180	0.040
2020/01/31 07:06:57.4	88.210	0.110	0.140	-0.000
2020/01/31 07:06:57.5				
2020/01/31 07:06:57.6	88.200	0.100	0.110	-0.020
2020/01/31 07:06:57.7	88.190	0.090	0.080	-0.030
2020/01/31 07:06:57.8	88.190	0.080	0.050	-0.050
2020/01/31 07:06:57.9	88.180	0.070	0.020	-0.060
2020/01/31 07:06:58.0	88.180	0.060	-0.020	-0.070
2020/01/31 07:06:58.1	88.180	0.060	-0.060	-0.080
2020/01/31 07:06:58.2	88.180	0.060	-0.100	-0.090
2020/01/31 07:06:58.3				
2020/01/31 07:06:58.4	88.190	0.050	-0.180	-0.100
2020/01/31 07:06:58.5	88.190	0.050	-0.230	-0.110
2020/01/31 07:06:58.6	88.200	0.050	-0.270	-0.110
2020/01/31 07:06:58.7	88.210	0.050	-0.310	-0.110
2020/01/31 07:06:58.8				
2020/01/31 07:06:58.9	88.230	0.060	-0.390	-0.110
2020/01/31 07:06:59.0	88.250	0.060	-0.430	-0.100
2020/01/31 07:06:59.1	88.260	0.060	-0.470	-0.100
2020/01/31 07:06:59.2	88.270	0.060	-0.500	-0.090
2020/01/31 07:06:59.3	88.290	0.060	-0.530	-0.080
2020/01/31 07:06:59.4	88.300	0.060	-0.560	-0.070
2020/01/31 07:06:59.5	88.320	0.060	-0.580	-0.060
2020/01/31 07:06:59.6	88.340	0.060	-0.600	-0.050
2020/01/31 07:06:59.7	88.370	0.060	-0.620	-0.030
2020/01/31 07:06:59.8	88.390	0.060	-0.630	-0.020
2020/01/31 07:06:59.9	88.410	0.060	-0.640	0.000
2020/01/31 07:07:00.0	88.440	0.050	-0.640	0.020
2020/01/31 07:07:00.1	88.470	0.040	-0.640	0.050
2020/01/31 07:07:00.2	88.490	0.030	-0.630	0.070
2020/01/31 07:07:00.3	88.510	0.020	-0.610	0.100
2020/01/31 07:07:00.4	88.540	0.010	-0.600	0.130
2020/01/31 07:07:00.5	88.570	-0.010	-0.580	0.160
2020/01/31 07:07:00.6	88.600	-0.020	-0.550	0.200
2020/01/31 07:07:00.7	88.630	-0.040	-0.520	0.240
2020/01/31 07:07:00.8				
2020/01/31 07:07:00.9	88.680	-0.090	-0.440	0.320
2020/01/31 07:07:01.0				
2020/01/31 07:07:01.1	88.730	-0.140	-0.350	0.430
2020/01/31 07:07:01.2	88.750	-0.170	-0.300	0.480
2020/01/31 07:07:01.3				
2020/01/31 07:07:01.4	88.800	-0.240	-0.190	0.610
2020/01/31 07:07:01.5	88.820	-0.270	-0.130	0.680
2020/01/31 07:07:01.6	88.830	-0.310	-0.070	0.750
2020/01/31 07:07:01.7	88.840	-0.340	-0.010	0.820
2020/01/31 07:07:01.8	88.850	-0.380	0.050	0.900
2020/01/31 07:07:01.9	88.860	-0.420	0.110	0.980
2020/01/31 07:07:02.0	88.860	-0.460	0.170	1.060
2020/01/31 07:07:02.1	88.860	-0.500	0.230	1.140
2020/01/31 07:07:02.2				
2020/01/31 07:07:02.3	88.870	-0.570	0.340	1.310
2020/01/31 07:07:02.4	88.860	-0.600	0.400	1.400
2020/01/31 07:07:02.5				
2020/01/31 07:07:02.6	88.850	-0.670	0.490	1.570
2020/01/31 07:07:02.7	88.840	-0.700	0.530	1.660
2020/01/31 07:07:02.8	88.820	-0.720	0.560	1.740
2020/01/31 07:07:02.9				
2020/01/31 07:07:03.0	88.800	-0.770	0.610	1.910
2020/01/31 07:07:03.1				
2020/01/31 07:07:03.2	88.770	-0.800	0.630	2.060
2020/01/31 07:07:03.3	88.770	-0.810	0.640	2.130
2020/01/31 07:07:03.4	88.760	-0.810	0.630	2.200
2020/01/31 07:07:03.5				
2020/01/31 07:07:03.6	88.730	-0.810	0.600	2.320
2020/01/31 07:07:03.7	88.720	-0.800	0.580	2.370
2020/01/31 07:07:03.8	88.700	-0.790	0.540	2.420
2020/01/31 07:07:03.9	88.690	-0.770	0.500	2.460
2020/01/31 07:07:04.0	88.680	-0.750	0.460	2.490
2020/01/31 07:07:04.1	88.670	-0.720	0.410	2.520
2020/01/31 07:07:04.2	88.660	-0.690	0.350	2.540
2020/01/31 07:07:04.3	88.650	-0.660	0.280	2.560
2020/01/31 07:07:04.4	88.630	-0.570	0.150	2.570
2020/01/31 07:07:04.5	88.620	-0.530	0.080	2.570
2020/01/31 07:07:04.6				
2020/01/31 07:07:04.7	88.610	-0.480	0.010	2.560
2020/01/31 07:07:04.8	88.600	-0.430	-0.070	2.550
2020/01/31 07:07:04.9	88.600	-0.380	-0.140	2.530
2020/01/31 07:07:05.0	88.590	-0.320	-0.220	2.510
2020/01/31 07:07:05.1	88.580	-0.270	-0.290	2.490
2020/01/31 07:07:05.2	88.570	-0.210	-0.360	2.450
2020/01/31 07:07:05.3	88.560	-0.150	-0.440	2.420
2020/01/31 07:07:05.4				
2020/01/31 07:07:05.5	88.550	-0.040	-0.570	2.330
2020/01/31 07:07:05.6	88.540	0.020	-0.630	2.290
2020/01/31 07:07:05.7	88.540	0.080	-0.690	2.240
2020/01/31 07:07:05.8	88.530	0.130	-0.740	2.180
2020/01/31 07:07:05.9	88.530	0.190	-0.790	2.120
2020/01/31 07:07:06.0	88.520	0.240	-0.830	2.060
2020/01/31 07:07:06.1	88.510	0.290	-0.860	2.000
2020/01/31 07:07:06.2				
2020/01/31 07:07:06.3	88.510	0.380	-0.920	1.860
2020/01/31 07:07:06.4	88.500	0.450	-0.950	1.710
2020/01/31 07:07:06.5				
2020/01/31 07:07:06.6	88.500	0.490	-0.960	1.640
2020/01/31 07:07:06.7	88.500	0.520	-0.960	1.560
2020/01/31 07:07:06.8	88.500	0.550	-0.960	1.480
2020/01/31 07:07:06.9	88.500	0.570	-0.950	1.400
2020/01/31 07:07:07.0	88.500	0.590	-0.940	1.320
2020/01/31 07:07:07.1	88.500	0.610	-0.920	1.240
2020/01/31 07:07:07.2				
2020/01/31 07:07:07.3	88.500	0.630	-0.860	1.070
2020/01/31 07:07:07.4	88.500	0.640	-0.830	0.990
2020/01/31 07:07:07.5	88.500	0.640	-0.800	0.900
2020/01/31 07:07:07.6	88.510	0.640	-0.760	0.810
2020/01/31 07:07:07.7	88.510	0.640	-0.720	0.730
2020/01/31 07:07:07.8	88.520	0.640	-0.680	0.640
2020/01/31 07:07:07.9	88.520	0.640	-0.640	0.550
2020/01/31 07:07:08.0	88.530	0.630	-0.590	0.470
2020/01/31 07:07:08.1	88.530	0.620	-0.550	0.380
2020/01/31 07:07:08.2	88.540	0.610	-0.500	0.300
2020/01/31 07:07:08.3	88.520	0.600	-0.450	0.210
2020/01/31 07:07:08.4				
2020/01/31 07:07:08.5	88.530	0.580	-0.360	0.050
2020/01/31 07:07:08.6	88.530	0.560	-0.310	-0.030
2020/01/31 07:07:08.7	88.540	0.550	-0.260	-0.110
2020/01/31 07:07:08.8	88.540	0.540	-0.220	-0.180
2020/01/31 07:07:08.9	88.540	0.520	-0.170	-0.250
2020/01/31 07:07:09.0	88.540	0.510	-0.130	-0.320
2020/01/31 07:07:09.1	88.540	0.490	-0.080	-0.380
2020/01/31 07:07:09.2	88.540	0.480	-0.040	-0.440
2020/01/31 07:07:09.3	88.550	0.460	-0.000	-0.500
2020/01/31 07:07:09.4	88.550	0.440	0.040	-0.560
2020/01/31 07:07:09.5	88.540	0.430	0.070	-0.610
2020/01/31 07:07:09.6	88.540	0.410	0.110	-0.650
2020/01/31 07:07:09.7	88.530	0.400	0.140	-0.690
2020/01/31 07:07:09.8	88.530	0.380	0.180	-0.730
2020/01/31 07:07:09.9	88.520	0.360	0.210	-0.760
2020/01/31 07:07:10.0	88.510	0.350	0.230	-0.780
2020/01/31 07:07:10.1	88.500	0.330	0.260	-0.800
2020/01/31 07:07:10.2	88.490	0.310	0.280	-0.820
2020/01/31 07:07:10.3	88.480	0.300	0.300	-0.830
2020/01/31 07:07:10.4	88.470	0.280	0.320	-0.830
2020/01/31 07:07:10.5	88.460	0.260	0.330	-0.830
2020/01/31 07:07:10.6	88.450	0.240	0.350	-0.830
2020/01/31 07:07:10.7	88.440	0.230	0.360	-0.830
2020/01/31 07:07:10.8	88.430	0.210	0.370	-0.810
2020/01/31 07:07:10.9	88.420	0.190	0.370	-0.800
2020/01/31 07:07:11.0	88.410	0.170	0.370	-0.780
2020/01/31 07:07:11.1	88.400	0.150	0.370	-0.760
2020/01/31 07:07:11.2	88.390	0.130	0.360	-0.730
2020/01/31 07:07:11.3	88.380	0.110	0.360	-0.700
2020/01/31 07:07:11.4	88.370	0.090	0.350	-0.670
2020/01/31 07:07:11.5	88.360	0.070	0.340	-0.640
2020/01/31 07:07:11.6	88.360	0.050	0.320	-0.600
2020/01/31 07:07:11.7	88.350	0.030	0.300	-0.550
2020/01/31 07:07:11.8	88.350	0.020	0.280	-0.510
2020/01/31 07:07:11.9	88.340	-0.000	0.250	-0.460
2020/01/31 07:07:12.0	88.340	-0.020	0.220	-0.410
2020/01/31 07:07:12.1	88.340	-0.030	0.190	-0.360
2020/01/31 07:07:12.2	88.340	-0.050	0.160	-0.310
2020/01/31 07:07:12.3	88.350	-0.060	0.120	-0.250
2020/01/31 07:07:12.4	88.350	-0.080	0.080	-0.190
2020/01/31 07:07:12.5	88.360	-0.090	0.040	-0.130
2020/01/31 07:07:12.6	88.360	-0.100	0.000	-0.070
2020/01/31 07:07:12.7	88.370	-0.110	-0.040	-0.010
2020/01/31 07:07:12.8	88.380	-0.120	-0.080	0.060
2020/01/31 07:07:12.9	88.390	-0.130	-0.120	0.130
2020/01/31 07:07:13.0	88.390	-0.140	-0.170	0.200
2020/01/31 07:07:13.1	88.400	-0.150	-0.210	0.270
2020/01/31 07:07:13.2	88.410	-0.160	-0.250	0.340
2020/01/31 07:07:13.3	88.430	-0.160	-0.290	0.410
2020/01/31 07:07:13.4	88.440	-0.170	-0.330	0.490
2020/01/31 07:07:13.5	88.450	-0.170	-0.370	0.560
2020/01/31 07:07:13.6	88.460	-0.180	-0.400	0.640
2020/01/31 07:07:13.7	88.470	-0.180	-0.430	0.710
2020/01/31 07:07:13.8	88.480	-0.190	-0.460	0.780
2020/01/31 07:07:13.9	88.500	-0.190	-0.490	0.860
2020/01/31 07:07:14.0	88.510	-0.200	-0.510	0.930
2020/01/31 07:07:14.1	88.520	-0.200	-0.530	1.000
2020/01/31 07:07:14.2	88.530	-0.210	-0.540	1.080
2020/01/31 07:07:14.3	88.530	-0.210	-0.560	1.150
2020/01/31 07:07:14.4	88.540	-0.220	-0.560	1.210
2020/01/31 07:07:14.5	88.550	-0.220	-0.560	1.280
2020/01/31 07:07:14.6	88.560	-0.230	-0.560	1.350
2020/01/31 07:07:14.7	88.570	-0.230	-0.560	1.410
2020/01/31 07:07:14.8	88.590	-0.240	-0.550	1.470
2020/01/31 07:07:14.9	88.600	-0.240	-0.530	1.530
2020/01/31 07:07:15.0	88.610	-0.250	-0.520	1.590
2020/01/31 07:07:15.1	88.620	-0.260	-0.500	1.650
2020/01/31 07:07:15.2	88.630	-0.260	-0.470	1.700
2020/01/31 07:07:15.3	88.640	-0.260	-0.450	1.750
2020/01/31 07:07:15.4	88.650	-0.270	-0.420	1.800
2020/01/31 07:07:15.5	88.660	-0.270	-0.390	1.850
2020/01/31 07:07:15.6	88.680	-0.270	-0.350	1.900
2020/01/31 07:07:15.7	88.690	-0.280	-0.320	1.940
2020/01/31 07:07:15.8	88.700	-0.280	-0.280	1.980
2020/01/31 07:07:15.9	88.710	-0.280	-0.240	2.020
2020/01/31 07:07:16.0	88.730	-0.280	-0.200	2.060
2020/01/31 07:07:16.1	88.740	-0.280	-0.160	2.090
2020/01/31 07:07:16.2	88.760	-0.280	-0.120	2.120
2020/01/31 07:07:16.3	88.780	-0.280	-0.080	2.150
2020/01/31 07:07:16.4	88.790	-0.280	-0.040	2.180
2020/01/31 07:07:16.5	88.810	-0.270	0.000	2.200
2020/01/31 07:07:16.6	88.820	-0.270	0.040	2.220
2020/01/31 07:07:16.7	88.830	-0.270	0.080	2.240
2020/01/31 07:07:16.8	88.850	-0.260	0.120	2.260
2020/01/31 07:07:16.9	88.860	-0.260	0.150	2.270
2020/01/31 07:07:17.0	88.870	-0.250	0.180	2.290
2020/01/31 07:07:17.1	88.880	-0.250	0.210	2.300
2020/01/31 07:07:17.2	88.890	-0.240	0.240	2.310
2020/01/31 07:07:17.3	88.900	-0.230	0.260	2.320
2020/01/31 07:07:17.4	88.910	-0.230	0.290	2.320
2020/01/31 07:07:17.5	88.910	-0.220	0.310	2.330
2020/01/31 07:07:17.6	88.920	-0.210	0.320	2.330
2020/01/31 07:07:17.7	88.920	-0.210	0.330	2.330
2020/01/31 07:07:17.8	88.920	-0.200	0.340	2.330
2020/01/31 07:07:17.9	88.910	-0.200	0.350	2.320
2020/01/31 07:07:18.0	88.910	-0.190	0.350	2.320
2020/01/31 07:07:18.1	88.900	-0.180	0.350	2.310
2020/01/31 07:07:18.2	88.890	-0.180	0.350	2.300
2020/01/31 07:07:18.3	88.890	-0.170	0.330	2.280
2020/01/31 07:07:18.4	88.870	-0.170	0.320	2.260
2020/01/31 07:07:18.5	88.860	-0.160	0.310	2.250
2020/01/31 07:07:18.6	88.840	-0.160	0.290	2.220
2020/01/31 07:07:18.7	88.820	-0.150	0.270	2.200
2020/01/31 07:07:18.8	88.810	-0.150	0.240	2.170
2020/01/31 07:07:18.9	88.790	-0.150	0.220	2.140
2020/01/31 07:07:19.0	88.760	-0.140	0.190	2.110
2020/01/31 07:07:19.1	88.740	-0.140	0.150	2.070
2020/01/31 07:07:19.2	88.720	-0.140	0.120	2.030
2020/01/31 07:07:19.3	88.700	-0.140	0.080	1.980
2020/01/31 07:07:19.4	88.680	-0.130	0.040	1.940
2020/01/31 07:07:19.5	88.660	-0.130	-0.000	1.890
2020/01/31 07:07:19.6	88.640	-0.130	-0.050	1.840
2020/01/31 07:07:19.7	88.620	-0.130	-0.090	1.780
2020/01/31 07:07:19.8	88.600	-0.130	-0.140	1.720
2020/01/31 07:07:19.9	88.590	-0.120	-0.190	1.660
2020/01/31 07:07:20.0	88.570	-0.120	-0.240	1.600
2020/01/31 07:07:20.1	88.560	-0.120	-0.290	1.530
2020/01/31 07:07:20.2	88.550	-0.120	-0.340	1.460
2020/01/31 07:07:20.3	88.540	-0.110	-0.390	1.380
2020/01/31 07:07:20.4	88.530	-0.110	-0.440	1.310
2020/01/31 07:07:20.5	88.530	-0.110	-0.490	1.230
2020/01/31 07:07:20.6	88.530	-0.100	-0.530	1.160
2020/01/31 07:07:20.7	88.530	-0.100	-0.580	1.080
2020/01/31 07:07:20.8	88.530	-0.090	-0.620	1.000
2020/01/31 07:07:20.9	88.530	-0.080	-0.660	0.920
2020/01/31 07:07:21.0	88.540	-0.080	-0.700	0.830
2020/01/31 07:07:21.1	88.540	-0.070	-0.740	0.750
2020/01/31 07:07:21.2	88.550	-0.060	-0.770	0.670
2020/01/31 07:07:21.3	88.550	-0.050	-0.800	0.580
2020/01/31 07:07:21.4	88.560	-0.040	-0.820	0.500
2020/01/31 07:07:21.5	88.570	-0.030	-0.840	0.420
2020/01/31 07:07:21.6	88.580	-0.020	-0.860	0.340
2020/01/31 07:07:21.7	88.600	-0.000	-0.870	0.260
2020/01/31 07:07:21.8	88.610	0.010	-0.880	0.180
2020/01/31 07:07:21.9	88.620	0.020	-0.880	0.110
2020/01/31 07:07:22.0	88.630	0.030	-0.880	0.040
2020/01/31 07:07:22.1	88.640	0.050	-0.870	-0.030
2020/01/31 07:07:22.2	88.650	0.060	-0.860	-0.100
2020/01/31 07:07:22.3	88.650	0.080	-0.840	-0.160
2020/01/31 07:07:22.4	88.660	0.090	-0.810	-0.220
2020/01/31 07:07:22.5	88.670	0.100	-0.780	-0.280
2020/01/31 07:07:22.6	88.670	0.120	-0.750	-0.330
2020/01/31 07:07:22.7	88.680	0.130	-0.710	-0.380
2020/01/31 07:07:22.8	88.680	0.140	-0.670	-0.430
2020/01/31 07:07:22.9	88.690	0.150	-0.620	-0.470
2020/01/31 07:07:23.0	88.690	0.160	-0.570	-0.510
2020/01/31 07:07:23.1	88.690	0.180	-0.520	-0.550
2020/01/31 07:07:23.2	88.700	0.180	-0.460	-0.580
2020/01/31 07:07:23.3	88.700	0.190	-0.400	-0.610
2020/01/31 07:07:23.4	88.700	0.200	-0.340	-0.630
2020/01/31 07:07:23.5	88.700	0.210	-0.280	-0.660
2020/01/31 07:07:23.6	88.700	0.210	-0.220	-0.680
2020/01/31 07:07:23.7	88.700	0.220	-0.160	-0.700
2020/01/31 07:07:23.8	88.700	0.220	-0.100	-0.710
2020/01/31 07:07:23.9	88.700	0.220	-0.040	-0.730
2020/01/31 07:07:24.0	88.700	0.220	0.020	-0.740
2020/01/31 07:07:24.1	88.710	0.220	0.080	-0.750
2020/01/31 07:07:24.2	88.710	0.220	0.130	-0.750
2020/01/31 07:07:24.3	88.710	0.220	0.180	-0.760
2020/01/31 07:07:24.4	88.710	0.210	0.230	-0.760
2020/01/31 07:07:24.5	88.720	0.210	0.280	-0.760
2020/01/31 07:07:24.6	88.730	0.210	0.320	-0.760
2020/01/31 07:07:24.7	88.730	0.200	0.360	-0.760
2020/01/31 07:07:24.8	88.740	0.190	0.390	-0.760
2020/01/31 07:07:24.9	88.750	0.190	0.420	-0.760
2020/01/31 07:07:25.0	88.760	0.180	0.440	-0.750
2020/01/31 07:07:25.1	88.770	0.170	0.450	-0.740
2020/01/31 07:07:25.2	88.790	0.170	0.460	-0.730
2020/01/31 07:07:25.3	88.790	0.160	0.470	-0.720
2020/01/31 07:07:25.4	88.810	0.150	0.470	-0.700
2020/01/31 07:07:25.5	88.820	0.150	0.460	-0.690
2020/01/31 07:07:25.6	88.830	0.140	0.450	-0.670
2020/01/31 07:07:25.7	88.850	0.140	0.440	-0.650
2020/01/31 07:07:25.8	88.860	0.130	0.420	-0.620
2020/01/31 07:07:25.9	88.880	0.130	0.390	-0.600
2020/01/31 07:07:26.0	88.890	0.130	0.360	-0.570
2020/01/31 07:07:26.1	88.910	0.120	0.330	-0.530
2020/01/31 07:07:26.2	88.920	0.120	0.290	-0.490
2020/01/31 07:07:26.3	88.930	0.120	0.260	-0.450
2020/01/31 07:07:26.4	88.940	0.120	0.220	-0.400
2020/01/31 07:07:26.5	88.950	0.120	0.170	-0.350
2020/01/31 07:07:26.6	88.960	0.120	0.130	-0.300
2020/01/31 07:07:26.7	88.960	0.120	0.090	-0.240
2020/01/31 07:07:26.8	88.970	0.120	0.040	-0.180
2020/01/31 07:07:26.9	88.970	0.120	-0.000	-0.110
2020/01/31 07:07:27.0	88.970	0.120	-0.040	-0.040
2020/01/31 07:07:27.1	88.970	0.130	-0.090	0.040
2020/01/31 07:07:27.2	88.970	0.130	-0.130	0.120
2020/01/31 07:07:27.3	88.970	0.130	-0.170	0.210
2020/01/31 07:07:27.4	88.960	0.130	-0.210	0.300
2020/01/31 07:07:27.5	88.960	0.130	-0.250	0.390
2020/01/31 07:07:27.6	88.950	0.130	-0.280	0.480
2020/01/31 07:07:27.7	88.940	0.130	-0.310	0.580
2020/01/31 07:07:27.8	88.930	0.130	-0.340	0.680
2020/01/31 07:07:27.9	88.920	0.130	-0.370	0.780
2020/01/31 07:07:28.0	88.910	0.130	-0.390	0.880
2020/01/31 07:07:28.1	88.900	0.120	-0.410	0.980
2020/01/31 07:07:28.2	88.890	0.120	-0.430	1.080
2020/01/31 07:07:28.3	88.880	0.110	-0.440	1.180
2020/01/31 07:07:28.4	88.870	0.110	-0.450	1.280
2020/01/31 07:07:28.5	88.860	0.100	-0.460	1.370
2020/01/31 07:07:28.6	88.840	0.100	-0.460	1.470
2020/01/31 07:07:28.7	88.830	0.090	-0.460	1.560
2020/01/31 07:07:28.8	88.820	0.080	-0.460	1.640
2020/01/31 07:07:28.9	88.820	0.070	-0.460	1.730
2020/01/31 07:07:29.0	88.810	0.060	-0.450	1.810
2020/01/31 07:07:29.1	88.800	0.050	-0.450	1.880
2020/01/31 07:07:29.2	88.790	0.040	-0.440	1.950
2020/01/31 07:07:29.3	88.780	0.040	-0.420	2.020
2020/01/31 07:07:29.4	88.770	0.030	-0.410	2.090
2020/01/31 07:07:29.5	88.770	0.020	-0.400	2.150
2020/01/31 07:07:29.6	88.760	0.010	-0.380	2.200
2020/01/31 07:07:29.7	88.760	0.010	-0.370	2.260
2020/01/31 07:07:29.8	88.750	-0.000	-0.350	2.310
2020/01/31 07:07:29.9	88.750	-0.010	-0.330	2.350
2020/01/31 07:07:30.0	88.750	-0.010	-0.320	2.390
2020/01/31 07:07:30.1	88.750	-0.010	-0.300	2.430
2020/01/31 07:07:30.2	88.740	-0.020	-0.290	2.470
2020/01/31 07:07:30.3	88.750	-0.020	-0.270	2.500
2020/01/31 07:07:30.4	88.750	-0.020	-0.260	2.530
2020/01/31 07:07:30.5	88.750	-0.020	-0.240	2.560
2020/01/31 07:07:30.6	88.750	-0.020	-0.230	2.580
2020/01/31 07:07:30.7	88.750	-0.010	-0.220	2.600
2020/01/31 07:07:30.8	88.760	-0.010	-0.200	2.620
2020/01/31 07:07:30.9	88.760	-0.000	-0.190	2.630
2020/01/31 07:07:31.0	88.770	0.000	-0.190	2.640
2020/01/31 07:07:31.1	88.770	0.010	-0.180	2.650
2020/01/31 07:07:31.2	88.780	0.010	-0.170	2.650
2020/01/31 07:07:31.3	88.790	0.020	-0.160	2.650
2020/01/31 07:07:31.4	88.800	0.030	-0.160	2.650
2020/01/31 07:07:31.5	88.810	0.040	-0.160	2.640
2020/01/31 07:07:31.6	88.820	0.040	-0.150	2.630
2020/01/31 07:07:31.7	88.830	0.050	-0.150	2.620
2020/01/31 07:07:31.8	88.840	0.060	-0.150	2.600
2020/01/31 07:07:31.9	88.850	0.060	-0.150	2.580
2020/01/31 07:07:32.0	88.870	0.070	-0.150	2.560
2020/01/31 07:07:32.1	88.880	0.080	-0.150	2.540
2020/01/31 07:07:32.2	88.890	0.080	-0.150	2.510
2020/01/31 07:07:32.3	88.900	0.080	-0.150	2.480
2020/01/31 07:07:32.4	88.910	0.090	-0.150	2.450
2020/01/31 07:07:32.5	88.920	0.090	-0.150	2.420
2020/01/31 07:07:32.6	88.930	0.090	-0.150	2.380
2020/01/31 07:07:32.7	88.930	0.090	-0.150	2.350
2020/01/31 07:07:32.8	88.940	0.080	-0.140	2.310
2020/01/31 07:07:32.9	88.950	0.080	-0.140	2.270
2020/01/31 07:07:33.0	88.950	0.070	-0.140	2.220
2020/01/31 07:07:33.1	88.960	0.070	-0.130	2.180
2020/01/31 07:07:33.2	88.960	0.060	-0.130	2.130
2020/01/31 07:07:33.3	88.970	0.040	-0.120	2.080
2020/01/31 07:07:33.4	88.980	0.030	-0.110	2.030
2020/01/31 07:07:33.5	88.980	0.020	-0.100	1.980
2020/01/31 07:07:33.6	88.980	-0.000	-0.090	1.920
2020/01/31 07:07:33.7	88.980	-0.020	-0.080	1.870
2020/01/31 07:07:33.8	88.980	-0.040	-0.070	1.810
2020/01/31 07:07:33.9	88.980	-0.060	-0.050	1.750
2020/01/31 07:07:34.0	88.980	-0.080	-0.040	1.680
2020/01/31 07:07:34.1	88.980	-0.110	-0.030	1.620
2020/01/31 07:07:34.2	88.980	-0.130	-0.010	1.550
2020/01/31 07:07:34.3	88.970	-0.160	0.000	1.480
2020/01/31 07:07:34.4	88.960	-0.180	0.020	1.410
2020/01/31 07:07:34.5	88.960	-0.210	0.040	1.340
2020/01/31 07:07:34.6	88.960	-0.240	0.050	1.270
2020/01/31 07:07:34.7	88.950	-0.270	0.070	1.200
2020/01/31 07:07:34.8	88.950	-0.300	0.090	1.130
2020/01/31 07:07:34.9	88.940	-0.320	0.100	1.060
2020/01/31 07:07:35.0	88.940	-0.350	0.120	0.990
2020/01/31 07:07:35.1	88.930	-0.380	0.130	0.910
2020/01/31 07:07:35.2	88.920	-0.410	0.150	0.840
2020/01/31 07:07:35.3	88.920	-0.440	0.170	0.770
2020/01/31 07:07:35.4	88.910	-0.460	0.180	0.700
2020/01/31 07:07:35.5	88.890	-0.490	0.190	0.630
2020/01/31 07:07:35.6	88.880	-0.510	0.210	0.560
2020/01/31 07:07:35.7	88.870	-0.530	0.220	0.490
2020/01/31 07:07:35.8	88.860	-0.550	0.230	0.420
2020/01/31 07:07:35.9	88.840	-0.570	0.240	0.350
2020/01/31 07:07:36.0	88.830	-0.580	0.240	0.280
2020/01/31 07:07:36.1	88.810	-0.600	0.250	0.220
2020/01/31 07:07:36.2	88.800	-0.610	0.250	0.150
2020/01/31 07:07:36.3	88.790	-0.620	0.250	0.090
2020/01/31 07:07:36.4	88.770	-0.620	0.250	0.030
2020/01/31 07:07:36.5	88.760	-0.620	0.240	-0.030
2020/01/31 07:07:36.6	88.740	-0.620	0.240	-0.090
2020/01/31 07:07:36.7	88.730	-0.620	0.230	-0.150
2020/01/31 07:07:36.8	88.720	-0.610	0.210	-0.210
2020/01/31 07:07:36.9	88.700	-0.600	0.190	-0.260
2020/01/31 07:07:37.0	88.690	-0.580	0.170	-0.320
2020/01/31 07:07:37.1	88.680	-0.560	0.140	-0.370
2020/01/31 07:07:37.2	88.670	-0.540	0.120	-0.420
2020/01/31 07:07:37.3	88.670	-0.520	0.080	-0.480
2020/01/31 07:07:37.4	88.660	-0.490	0.040	-0.530
2020/01/31 07:07:37.5	88.660	-0.460	0.010	-0.580
2020/01/31 07:07:37.6	88.660	-0.420	-0.040	-0.620
2020/01/31 07:07:37.7	88.660	-0.390	-0.080	-0.670
2020/01/31 07:07:37.8	88.660	-0.350	-0.130	-0.710
2020/01/31 07:07:37.9	88.660	-0.310	-0.180	-0.760
2020/01/31 07:07:38.0	88.670	-0.260	-0.230	-0.800
2020/01/31 07:07:38.1	88.680	-0.210	-0.290	-0.840
2020/01/31 07:07:38.2	88.690	-0.170	-0.340	-0.880
2020/01/31 07:07:38.3	88.680	-0.120	-0.400	-0.920
2020/01/31 07:07:38.4	88.700	-0.060	-0.450	-0.950
2020/01/31 07:07:38.5	88.710	-0.010	-0.510	-0.980
2020/01/31 07:07:38.6	88.730	0.040	-0.570	-1.010
2020/01/31 07:07:38.7	88.750	0.090	-0.620	-1.040
2020/01/31 07:07:38.8	88.770	0.140	-0.680	-1.070
2020/01/31 07:07:38.9	88.800	0.200	-0.730	-1.090
2020/01/31 07:07:39.0	88.820	0.250	-0.780	-1.110
2020/01/31 07:07:39.1	88.850	0.300	-0.830	-1.130
2020/01/31 07:07:39.2	88.870	0.340	-0.870	-1.150
2020/01/31 07:07:39.3	88.890	0.390	-0.920	-1.160
2020/01/31 07:07:39.4	88.920	0.430	-0.960	-1.170
2020/01/31 07:07:39.5	88.950	0.470	-0.990	-1.180
2020/01/31 07:07:39.6	88.980	0.510	-1.010	-1.180
2020/01/31 07:07:39.7	89.010	0.550	-1.030	-1.180
2020/01/31 07:07:39.8	89.030	0.580	-1.040	-1.170
2020/01/31 07:07:39.9	89.060	0.610	-1.050	-1.160
2020/01/31 07:07:40.0	89.080	0.630	-1.050	-1.140
2020/01/31 07:07:40.1	89.100	0.650	-1.040	-1.120
2020/01/31 07:07:40.2	89.120	0.670	-1.030	-1.090
2020/01/31 07:07:40.3	89.140	0.680	-1.000	-1.060
2020/01/31 07:07:40.4	89.150	0.690	-0.970	-1.010
2020/01/31 07:07:40.5	89.160	0.700	-0.940	-0.970
2020/01/31 07:07:40.6	89.170	0.700	-0.900	-0.920
2020/01/31 07:07:40.7	89.170	0.700	-0.850	-0.860
2020/01/31 07:07:40.8	89.170	0.690	-0.800	-0.800
2020/01/31 07:07:40.9	89.160	0.680	-0.740	-0.730
2020/01/31 07:07:41.0	89.160	0.660	-0.670	-0.650
2020/01/31 07:07:41.1	89.140	0.640	-0.610	-0.570
2020/01/31 07:07:41.2	89.130	0.620	-0.540	-0.490
2020/01/31 07:07:41.3	89.100	0.600	-0.460	-0.390
2020/01/31 07:07:41.4	89.080	0.570	-0.390	-0.300
2020/01/31 07:07:41.5	89.060	0.540	-0.310	-0.200
2020/01/31 07:07:41.6	89.030	0.510	-0.230	-0.100
2020/01/31 07:07:41.7	89.010	0.470	-0.140	0.000
2020/01/31 07:07:41.8	88.980	0.430	-0.060	0.110
2020/01/31 07:07:41.9	88.950	0.400	0.020	0.220
2020/01/31 07:07:42.0	88.920	0.360	0.090	0.330
2020/01/31 07:07:42.1	88.880	0.320	0.170	0.440
2020/01/31 07:07:42.2	88.850	0.270	0.250	0.550
2020/01/31 07:07:42.3	88.830	0.230	0.320	0.670
2020/01/31 07:07:42.4	88.800	0.190	0.390	0.780
2020/01/31 07:07:42.5	88.770	0.150	0.450	0.890
2020/01/31 07:07:42.6	88.740	0.100	0.510	1.000
2020/01/31 07:07:42.7	88.710	0.060	0.560	1.100
2020/01/31 07:07:42.8	88.680	0.020	0.610	1.210
2020/01/31 07:07:42.9	88.650	-0.020	0.660	1.310
2020/01/31 07:07:43.0	88.630	-0.060	0.700	1.400
2020/01/31 07:07:43.1	88.600	-0.090	0.730	1.500
2020/01/31 07:07:43.2	88.580	-0.130	0.760	1.580
2020/01/31 07:07:43.3	88.580	-0.160	0.780	1.670
2020/01/31 07:07:43.4	88.560	-0.190	0.790	1.740
2020/01/31 07:07:43.5	88.550	-0.220	0.800	1.810
2020/01/31 07:07:43.6	88.540	-0.250	0.810	1.880
2020/01/31 07:07:43.7	88.530	-0.280	0.800	1.940
2020/01/31 07:07:43.8	88.520	-0.300	0.790	1.990
2020/01/31 07:07:43.9	88.510	-0.320	0.780	2.040
2020/01/31 07:07:44.0	88.510	-0.340	0.760	2.080
2020/01/31 07:07:44.1	88.500	-0.360	0.740	2.110
2020/01/31 07:07:44.2	88.510	-0.370	0.710	2.140
2020/01/31 07:07:44.3	88.520	-0.390	0.670	2.160
2020/01/31 07:07:44.4	88.520	-0.400	0.630	2.180
2020/01/31 07:07:44.5	88.530	-0.400	0.580	2.190
2020/01/31 07:07:44.6	88.540	-0.410	0.530	2.190
2020/01/31 07:07:44.7	88.550	-0.410	0.480	2.190
2020/01/31 07:07:44.8	88.560	-0.400	0.430	2.180
2020/01/31 07:07:44.9	88.570	-0.400	0.370	2.170
2020/01/31 07:07:45.0	88.590	-0.390	0.310	2.160
2020/01/31 07:07:45.1	88.610	-0.380	0.240	2.140
2020/01/31 07:07:45.2	88.630	-0.370	0.180	2.120
2020/01/31 07:07:45.3	88.650	-0.360	0.110	2.080
2020/01/31 07:07:45.4	88.670	-0.340	0.040	2.050
2020/01/31 07:07:45.5	88.700	-0.320	-0.040	2.020
2020/01/31 07:07:45.6	88.730	-0.300	-0.110	1.990
2020/01/31 07:07:45.7	88.760	-0.270	-0.180	1.950
2020/01/31 07:07:45.8	88.790	-0.250	-0.260	1.910
2020/01/31 07:07:45.9	88.820	-0.220	-0.330	1.870
2020/01/31 07:07:46.0	88.860	-0.190	-0.410	1.830
2020/01/31 07:07:46.1	88.900	-0.160	-0.480	1.780
2020/01/31 07:07:46.2	88.940	-0.120	-0.550	1.740
2020/01/31 07:07:46.3	88.960	-0.090	-0.630	1.700
2020/01/31 07:07:46.4	89.000	-0.050	-0.690	1.650
2020/01/31 07:07:46.5	89.050	-0.010	-0.760	1.610
2020/01/31 07:07:46.6	89.090	0.020	-0.830	1.560
2020/01/31 07:07:46.7	89.130	0.060	-0.890	1.520
2020/01/31 07:07:46.8	89.170	0.100	-0.940	1.480
2020/01/31 07:07:46.9	89.210	0.140	-1.000	1.440
2020/01/31 07:07:47.0	89.240	0.170	-1.050	1.400
2020/01/31 07:07:47.1	89.280	0.210	-1.090	1.360
2020/01/31 07:07:47.2	89.310	0.250	-1.130	1.330
2020/01/31 07:07:47.3	89.330	0.280	-1.170	1.290
2020/01/31 07:07:47.4	89.360	0.310	-1.190	1.260
2020/01/31 07:07:47.5	89.390	0.340	-1.220	1.230
2020/01/31 07:07:47.6	89.420	0.370	-1.230	1.210
2020/01/31 07:07:47.7	89.440	0.400	-1.240	1.180
2020/01/31 07:07:47.8	89.460	0.420	-1.240	1.160
2020/01/31 07:07:47.9	89.480	0.440	-1.240	1.140
2020/01/31 07:07:48.0	89.490	0.450	-1.220	1.120
2020/01/31 07:07:48.1	89.500	0.470	-1.200	1.110
2020/01/31 07:07:48.2	89.510	0.480	-1.170	1.090
2020/01/31 07:07:48.3	89.520	0.480	-1.130	1.080
2020/01/31 07:07:48.4	89.530	0.480	-1.080	1.060
2020/01/31 07:07:48.5	89.530	0.480	-1.030	1.050
2020/01/31 07:07:48.6	89.530	0.470	-0.970	1.040
2020/01/31 07:07:48.7	89.530	0.460	-0.900	1.020
2020/01/31 07:07:48.8	89.520	0.440	-0.820	1.010
2020/01/31 07:07:48.9	89.510	0.420	-0.740	1.000
2020/01/31 07:07:49.0	89.500	0.400	-0.650	0.990
2020/01/31 07:07:49.1	89.490	0.370	-0.550	0.970
2020/01/31 07:07:49.2	89.470	0.340	-0.450	0.960
2020/01/31 07:07:49.3	89.460	0.300	-0.350	0.950
2020/01/31 07:07:49.4	89.440	0.260	-0.240	0.930
2020/01/31 07:07:49.5	89.420	0.220	-0.130	0.920
2020/01/31 07:07:49.6	89.390	0.170	-0.020	0.910
2020/01/31 07:07:49.7	89.370	0.130	0.090	0.890
2020/01/31 07:07:49.8	89.340	0.080	0.210	0.880
2020/01/31 07:07:49.9	89.310	0.030	0.320	0.860
2020/01/31 07:07:50.0	89.290	-0.030	0.430	0.850
2020/01/31 07:07:50.1	89.260	-0.080	0.530	0.830
2020/01/31 07:07:50.2	89.230	-0.130	0.640	0.810
2020/01/31 07:07:50.3	89.200	-0.190	0.740	0.790
2020/01/31 07:07:50.4	89.180	-0.240	0.830	0.770
2020/01/31 07:07:50.5	89.150	-0.290	0.920	0.750
2020/01/31 07:07:50.6	89.120	-0.340	1.000	0.730
2020/01/31 07:07:50.7	89.090	-0.390	1.070	0.700
2020/01/31 07:07:50.8	89.070	-0.440	1.140	0.680
2020/01/31 07:07:50.9	89.040	-0.480	1.190	0.650
2020/01/31 07:07:51.0	89.020	-0.530	1.240	0.620
2020/01/31 07:07:51.1	88.990	-0.570	1.280	0.590
2020/01/31 07:07:51.2	88.970	-0.600	1.320	0.560
2020/01/31 07:07:51.3	88.950	-0.630	1.330	0.520
2020/01/31 07:07:51.4	88.930	-0.660	1.350	0.490
2020/01/31 07:07:51.5	88.920	-0.690	1.350	0.450
2020/01/31 07:07:51.6	88.900	-0.710	1.340	0.410
2020/01/31 07:07:51.7	88.890	-0.730	1.320	0.370
2020/01/31 07:07:51.8	88.870	-0.740	1.300	0.330
2020/01/31 07:07:51.9	88.860	-0.750	1.260	0.290
2020/01/31 07:07:52.0	88.850	-0.750	1.210	0.250
2020/01/31 07:07:52.1	88.840	-0.750	1.160	0.210
2020/01/31 07:07:52.2	88.840	-0.740	1.090	0.170
2020/01/31 07:07:52.3	88.850	-0.730	1.020	0.120
2020/01/31 07:07:52.4	88.850	-0.720	0.940	0.070
2020/01/31 07:07:52.5	88.840	-0.700	0.850	0.030
2020/01/31 07:07:52.6	88.840	-0.680	0.760	-0.020
2020/01/31 07:07:52.7	88.850	-0.650	0.660	-0.070
2020/01/31 07:07:52.8	88.850	-0.620	0.550	-0.120
2020/01/31 07:07:52.9	88.860	-0.590	0.430	-0.170
2020/01/31 07:07:53.0	88.860	-0.550	0.320	-0.230
2020/01/31 07:07:53.1	88.870	-0.510	0.200	-0.280
2020/01/31 07:07:53.2	88.890	-0.470	0.070	-0.330
2020/01/31 07:07:53.3	88.900	-0.430	-0.060	-0.390
2020/01/31 07:07:53.4	88.920	-0.380	-0.190	-0.440
2020/01/31 07:07:53.5	88.940	-0.330	-0.310	-0.490
2020/01/31 07:07:53.6	88.950	-0.280	-0.440	-0.550
2020/01/31 07:07:53.7	88.980	-0.220	-0.570	-0.600
2020/01/31 07:07:53.8	89.000	-0.170	-0.690	-0.650
2020/01/31 07:07:53.9	89.020	-0.110	-0.810	-0.690
2020/01/31 07:07:54.0	89.050	-0.060	-0.920	-0.740
2020/01/31 07:07:54.1	89.070	-0.000	-1.040	-0.780
2020/01/31 07:07:54.2	89.100	0.050	-1.140	-0.820
2020/01/31 07:07:54.3	89.100	0.100	-1.250	-0.860
2020/01/31 07:07:54.4	89.130	0.160	-1.340	-0.890
2020/01/31 07:07:54.5	89.160	0.210	-1.430	-0.910
2020/01/31 07:07:54.6	89.180	0.260	-1.510	-0.930
2020/01/31 07:07:54.7	89.210	0.310	-1.580	-0.940
2020/01/31 07:07:54.8	89.230	0.350	-1.640	-0.950
2020/01/31 07:07:54.9	89.250	0.400	-1.690	-0.950
2020/01/31 07:07:55.0	89.270	0.440	-1.730	-0.940
2020/01/31 07:07:55.1	89.290	0.480	-1.760	-0.930
2020/01/31 07:07:55.2	89.310	0.510	-1.780	-0.910
2020/01/31 07:07:55.3	89.310	0.540	-1.780	-0.880
2020/01/31 07:07:55.4	89.320	0.570	-1.780	-0.850
2020/01/31 07:07:55.5	89.330	0.590	-1.770	-0.810
2020/01/31 07:07:55.6	89.340	0.610	-1.750	-0.760
2020/01/31 07:07:55.7	89.340	0.630	-1.720	-0.700
2020/01/31 07:07:55.8	89.350	0.640	-1.680	-0.650
2020/01/31 07:07:55.9	89.340	0.650	-1.630	-0.580
2020/01/31 07:07:56.0	89.340	0.650	-1.570	-0.510
2020/01/31 07:07:56.1	89.340	0.650	-1.500	-0.430
2020/01/31 07:07:56.2	89.330	0.650	-1.420	-0.350
2020/01/31 07:07:56.3	89.310	0.640	-1.340	-0.270
2020/01/31 07:07:56.4	89.300	0.630	-1.250	-0.180
2020/01/31 07:07:56.5	89.280	0.610	-1.160	-0.090
2020/01/31 07:07:56.6	89.260	0.590	-1.060	0.010
2020/01/31 07:07:56.7	89.240	0.570	-0.950	0.110
2020/01/31 07:07:56.8	89.220	0.540	-0.840	0.210
2020/01/31 07:07:56.9	89.200	0.510	-0.730	0.310
2020/01/31 07:07:57.0	89.170	0.480	-0.610	0.410
2020/01/31 07:07:57.1	89.150	0.440	-0.490	0.510
2020/01/31 07:07:57.2	89.120	0.400	-0.380	0.610
2020/01/31 07:07:57.3	89.080	0.360	-0.260	0.710
2020/01/31 07:07:57.4	89.050	0.320	-0.140	0.810
2020/01/31 07:07:57.5	89.010	0.280	-0.020	0.910
2020/01/31 07:07:57.6	88.980	0.230	0.090	1.010
2020/01/31 07:07:57.7	88.940	0.190	0.200	1.110
2020/01/31 07:07:57.8	88.900	0.140	0.310	1.200
2020/01/31 07:07:57.9	88.860	0.090	0.420	1.290
2020/01/31 07:07:58.0	88.820	0.050	0.520	1.380
2020/01/31 07:07:58.1	88.780	0.000	0.610	1.470
2020/01/31 07:07:58.2	88.740	-0.040	0.700	1.550
2020/01/31 07:07:58.3	88.710	-0.090	0.780	1.630
2020/01/31 07:07:58.4	88.670	-0.130	0.860	1.710
2020/01/31 07:07:58.5	88.630	-0.170	0.930	1.780
2020/01/31 07:07:58.6	88.590	-0.200	0.990	1.850
2020/01/31 07:07:58.7	88.550	-0.240	1.040	1.920
2020/01/31 07:07:58.8	88.510	-0.270	1.080	1.980
2020/01/31 07:07:58.9	88.480	-0.300	1.110	2.030
2020/01/31 07:07:59.0	88.450	-0.320	1.140	2.090
2020/01/31 07:07:59.1	88.420	-0.340	1.160	2.130
2020/01/31 07:07:59.2	88.390	-0.360	1.160	2.170
2020/01/31 07:07:59.3	88.370	-0.370	1.160	2.210
2020/01/31 07:07:59.4	88.340	-0.370	1.150	2.250
2020/01/31 07:07:59.5	88.320	-0.380	1.130	2.280
2020/01/31 07:07:59.6	88.300	-0.370	1.100	2.300
2020/01/31 07:07:59.7	88.290	-0.370	1.060	2.320
2020/01/31 07:07:59.8	88.280	-0.360	1.020	2.330
2020/01/31 07:07:59.9	88.270	-0.340	0.970	2.340
2020/01/31 07:08:00.0	88.260	-0.320	0.910	2.340
2020/01/31 07:08:00.1	88.260	-0.300	0.840	2.340
2020/01/31 07:08:00.2	88.260	-0.270	0.770	2.340
2020/01/31 07:08:00.3	88.270	-0.240	0.690	2.320
2020/01/31 07:08:00.4	88.280	-0.210	0.600	2.310
2020/01/31 07:08:00.5	88.290	-0.170	0.520	2.290
2020/01/31 07:08:00.6	88.300	-0.130	0.430	2.270
2020/01/31 07:08:00.7	88.310	-0.090	0.330	2.250
2020/01/31 07:08:00.8	88.330	-0.050	0.240	2.220
2020/01/31 07:08:00.9	88.350	-0.000	0.140	2.180
2020/01/31 07:08:01.0	88.370	0.050	0.050	2.150
2020/01/31 07:08:01.1	88.400	0.090	-0.050	2.110
2020/01/31 07:08:01.2	88.420	0.140	-0.150	2.060
2020/01/31 07:08:01.3	88.460	0.180	-0.240	2.010
2020/01/31 07:08:01.4	88.490	0.230	-0.330	1.970
2020/01/31 07:08:01.5	88.520	0.270	-0.420	1.910
2020/01/31 07:08:01.6	88.560	0.310	-0.510	1.860
2020/01/31 07:08:01.7	88.590	0.350	-0.590	1.800
2020/01/31 07:08:01.8	88.620	0.390	-0.660	1.740
2020/01/31 07:08:01.9	88.650	0.420	-0.730	1.690
2020/01/31 07:08:02.0	88.680	0.450	-0.790	1.620
2020/01/31 07:08:02.1	88.720	0.480	-0.840	1.560
2020/01/31 07:08:02.2	88.750	0.500	-0.890	1.500
2020/01/31 07:08:02.3	88.760	0.520	-0.930	1.440
2020/01/31 07:08:02.4	88.790	0.540	-0.970	1.370
2020/01/31 07:08:02.5	88.810	0.550	-0.990	1.310
2020/01/31 07:08:02.6	88.840	0.550	-1.000	1.250
2020/01/31 07:08:02.7	88.860	0.550	-1.010	1.200
2020/01/31 07:08:02.8	88.880	0.550	-1.000	1.140
2020/01/31 07:08:02.9	88.890	0.540	-0.990	1.090
2020/01/31 07:08:03.0	88.900	0.520	-0.970	1.040
2020/01/31 07:08:03.1	88.910	0.510	-0.930	0.990
2020/01/31 07:08:03.2	88.920	0.480	-0.890	0.950
2020/01/31 07:08:03.3	88.910	0.450	-0.840	0.900
2020/01/31 07:08:03.4	88.910	0.420	-0.780	0.860
2020/01/31 07:08:03.5	88.900	0.380	-0.720	0.830
2020/01/31 07:08:03.6	88.890	0.340	-0.650	0.800
2020/01/31 07:08:03.7	88.870	0.290	-0.570	0.780
2020/01/31 07:08:03.8	88.850	0.240	-0.490	0.750
2020/01/31 07:08:03.9	88.830	0.190	-0.410	0.740
2020/01/31 07:08:04.0	88.810	0.130	-0.320	0.720
2020/01/31 07:08:04.1	88.780	0.070	-0.230	0.710
2020/01/31 07:08:04.2	88.740	0.010	-0.130	0.700
2020/01/31 07:08:04.3	88.710	-0.050	-0.040	0.700
2020/01/31 07:08:04.4	88.670	-0.110	0.050	0.700
2020/01/31 07:08:04.5	88.630	-0.180	0.140	0.700
2020/01/31 07:08:04.6	88.580	-0.240	0.230	0.700
2020/01/31 07:08:04.7	88.540	-0.300	0.310	0.710
2020/01/31 07:08:04.8	88.490	-0.360	0.390	0.710
2020/01/31 07:08:04.9	88.440	-0.420	0.460	0.720
2020/01/31 07:08:05.0	88.390	-0.480	0.530	0.730
2020/01/31 07:08:05.1	88.340	-0.540	0.590	0.740
2020/01/31 07:08:05.2	88.290	-0.590	0.640	0.750
2020/01/31 07:08:05.3	88.250	-0.640	0.680	0.750
2020/01/31 07:08:05.4	88.200	-0.680	0.710	0.760
2020/01/31 07:08:05.5	88.150	-0.720	0.730	0.760
2020/01/31 07:08:05.6	88.110	-0.760	0.740	0.760
2020/01/31 07:08:05.7	88.060	-0.790	0.750	0.760
2020/01/31 07:08:05.8	88.030	-0.810	0.740	0.750
2020/01/31 07:08:05.9	87.990	-0.830	0.720	0.740
2020/01/31 07:08:06.0	87.950	-0.840	0.690	0.730
2020/01/31 07:08:06.1	87.920	-0.850	0.650	0.710
2020/01/31 07:08:06.2	87.890	-0.850	0.610	0.690
2020/01/31 07:08:06.3	87.870	-0.840	0.550	0.660
2020/01/31 07:08:06.4	87.850	-0.830	0.490	0.640
2020/01/31 07:08:06.5	87.830	-0.810	0.420	0.610
2020/01/31 07:08:06.6	87.810	-0.780	0.340	0.580
2020/01/31 07:08:06.7	87.800	-0.750	0.260	0.540
2020/01/31 07:08:06.8	87.790	-0.720	0.170	0.510
2020/01/31 07:08:06.9	87.780	-0.680	0.080	0.470
2020/01/31 07:08:07.0	87.780	-0.630	-0.020	0.430
2020/01/31 07:08:07.1	87.780	-0.580	-0.110	0.390
2020/01/31 07:08:07.2	87.780	-0.520	-0.210	0.350
2020/01/31 07:08:07.3	87.790	-0.470	-0.310	0.310
2020/01/31 07:08:07.4	87.790	-0.400	-0.410	0.270
2020/01/31 07:08:07.5	87.800	-0.340	-0.510	0.230
2020/01/31 07:08:07.6	87.810	-0.270	-0.600	0.190
2020/01/31 07:08:07.7	87.820	-0.210	-0.700	0.150
2020/01/31 07:08:07.8	87.830	-0.140	-0.790	0.110
2020/01/31 07:08:07.9	87.850	-0.070	-0.870	0.060
2020/01/31 07:08:08.0	87.860	-0.000	-0.950	0.020
2020/01/31 07:08:08.1	87.880	0.070	-1.020	-0.010
2020/01/31 07:08:08.2	87.900	0.130	-1.090	-0.050
2020/01/31 07:08:08.3	87.910	0.200	-1.150	-0.090
2020/01/31 07:08:08.4	87.930	0.260	-1.200	-0.130
2020/01/31 07:08:08.5	87.960	0.320	-1.250	-0.160
2020/01/31 07:08:08.6	87.980	0.380	-1.280	-0.200
2020/01/31 07:08:08.7	88.010	0.430	-1.310	-0.230
2020/01/31 07:08:08.8	88.030	0.480	-1.330	-0.260
2020/01/31 07:08:08.9	88.060	0.530	-1.340	-0.280
2020/01/31 07:08:09.0	88.090	0.570	-1.340	-0.310
2020/01/31 07:08:09.1	88.120	0.610	-1.330	-0.330
2020/01/31 07:08:09.2	88.140	0.640	-1.310	-0.350
2020/01/31 07:08:09.3	88.170	0.670	-1.280	-0.370
2020/01/31 07:08:09.4	88.190	0.690	-1.240	-0.390
2020/01/31 07:08:09.5	88.220	0.710	-1.200	-0.400
2020/01/31 07:08:09.6	88.240	0.720	-1.150	-0.400
2020/01/31 07:08:09.7	88.260	0.730	-1.090	-0.410
2020/01/31 07:08:09.8	88.280	0.740	-1.030	-0.410
2020/01/31 07:08:09.9	88.300	0.730	-0.960	-0.410
2020/01/31 07:08:10.0	88.320	0.730	-0.880	-0.400
2020/01/31 07:08:10.1	88.340	0.720	-0.800	-0.390
2020/01/31 07:08:10.2	88.350	0.710	-0.720	-0.370
2020/01/31 07:08:10.3	88.360	0.690	-0.640	-0.350
2020/01/31 07:08:10.4	88.370	0.670	-0.550	-0.330
2020/01/31 07:08:10.5	88.380	0.640	-0.460	-0.300
2020/01/31 07:08:10.6	88.390	0.620	-0.370	-0.270
2020/01/31 07:08:10.7	88.390	0.580	-0.270	-0.240
2020/01/31 07:08:10.8	88.390	0.550	-0.180	-0.210
2020/01/31 07:08:10.9	88.390	0.520	-0.090	-0.160
2020/01/31 07:08:11.0	88.380	0.480	0.000	-0.120
2020/01/31 07:08:11.1	88.380	0.440	0.090	-0.070
2020/01/31 07:08:11.2	88.370	0.400	0.180	-0.020
2020/01/31 07:08:11.3	88.360	0.360	0.270	0.030
2020/01/31 07:08:11.4	88.350	0.320	0.350	0.080
2020/01/31 07:08:11.5	88.330	0.270	0.430	0.140
2020/01/31 07:08:11.6	88.310	0.230	0.510	0.200
2020/01/31 07:08:11.7	88.290	0.190	0.580	0.270
2020/01/31 07:08:11.8	88.260	0.140	0.650	0.330
2020/01/31 07:08:11.9	88.240	0.100	0.710	0.400
2020/01/31 07:08:12.0	88.210	0.060	0.760	0.460
2020/01/31 07:08:12.1	88.180	0.020	0.820	0.530
2020/01/31 07:08:12.2	88.150	-0.020	0.860	0.600
2020/01/31 07:08:12.3	88.130	-0.060	0.900	0.670
2020/01/31 07:08:12.4	88.090	-0.100	0.940	0.750
2020/01/31 07:08:12.5	88.060	-0.140	0.960	0.820
2020/01/31 07:08:12.6	88.030	-0.170	0.990	0.890
2020/01/31 07:08:12.7	87.990	-0.200	1.000	0.950
2020/01/31 07:08:12.8	87.960	-0.230	1.010	1.020
2020/01/31 07:08:12.9	87.920	-0.260	1.010	1.090
2020/01/31 07:08:13.0	87.890	-0.290	1.000	1.150
2020/01/31 07:08:13.1	87.860	-0.310	0.990	1.220
2020/01/31 07:08:13.2	87.820	-0.330	0.980	1.280
2020/01/31 07:08:13.3	87.790	-0.350	0.950	1.330
2020/01/31 07:08:13.4	87.760	-0.370	0.920	1.390
2020/01/31 07:08:13.5	87.740	-0.380	0.880	1.440
2020/01/31 07:08:13.6	87.720	-0.390	0.840	1.490
2020/01/31 07:08:13.7	87.690	-0.400	0.800	1.530
2020/01/31 07:08:13.8	87.680	-0.400	0.750	1.570
2020/01/31 07:08:13.9	87.660	-0.410	0.690	1.610
2020/01/31 07:08:14.0	87.650	-0.410	0.630	1.640
2020/01/31 07:08:14.1	87.640	-0.400	0.570	1.670
2020/01/31 07:08:14.2	87.630	-0.400	0.500	1.690
2020/01/31 07:08:14.3	87.630	-0.390	0.430	1.710
2020/01/31 07:08:14.4	87.630	-0.380	0.360	1.730
2020/01/31 07:08:14.5	87.630	-0.370	0.290	1.740
2020/01/31 07:08:14.6	87.630	-0.350	0.220	1.750
2020/01/31 07:08:14.7	87.640	-0.330	0.140	1.760
2020/01/31 07:08:14.8	87.640	-0.310	0.060	1.760
2020/01/31 07:08:14.9	87.650	-0.290	-0.020	1.760
2020/01/31 07:08:15.0	87.660	-0.270	-0.090	1.760
2020/01/31 07:08:15.1	87.680	-0.250	-0.170	1.750
2020/01/31 07:08:15.2	87.690	-0.220	-0.250	1.740
2020/01/31 07:08:15.3	87.720	-0.190	-0.320	1.720
2020/01/31 07:08:15.4	87.740	-0.160	-0.400	1.710
2020/01/31 07:08:15.5	87.760	-0.130	-0.470	1.690
2020/01/31 07:08:15.6	87.780	-0.100	-0.540	1.670
2020/01/31 07:08:15.7	87.800	-0.070	-0.610	1.650
2020/01/31 07:08:15.8	87.820	-0.040	-0.680	1.620
2020/01/31 07:08:15.9	87.850	-0.010	-0.740	1.600
2020/01/31 07:08:16.0	87.870	0.020	-0.800	1.570
2020/01/31 07:08:16.1	87.900	0.050	-0.860	1.540
2020/01/31 07:08:16.2	87.930	0.080	-0.910	1.510
2020/01/31 07:08:16.3	87.960	0.110	-0.960	1.480
2020/01/31 07:08:16.4	87.990	0.140	-1.000	1.450
2020/01/31 07:08:16.5	88.020	0.170	-1.040	1.420
2020/01/31 07:08:16.6	88.040	0.200	-1.070	1.380
2020/01/31 07:08:16.7	88.070	0.220	-1.100	1.350
2020/01/31 07:08:16.8	88.090	0.250	-1.120	1.320
2020/01/31 07:08:16.9	88.120	0.270	-1.140	1.290
2020/01/31 07:08:17.0	88.140	0.290	-1.150	1.260
2020/01/31 07:08:17.1	88.170	0.310	-1.150	1.230
2020/01/31 07:08:17.2	88.190	0.330	-1.150	1.200
2020/01/31 07:08:17.3	88.190	0.350	-1.150	1.170
2020/01/31 07:08:17.4	88.210	0.360	-1.130	1.150
2020/01/31 07:08:17.5	88.230	0.370	-1.110	1.130
2020/01/31 07:08:17.6	88.250	0.380	-1.090	1.110
2020/01/31 07:08:17.7	88.260	0.380	-1.060	1.090
2020/01/31 07:08:17.8	88.280	0.380	-1.030	1.070
2020/01/31 07:08:17.9	88.290	0.380	-0.990	1.060
2020/01/31 07:08:18.0	88.300	0.380	-0.940	1.050
2020/01/31 07:08:18.1	88.310	0.380	-0.900	1.050
2020/01/31 07:08:18.2	88.310	0.370	-0.840	1.040
2020/01/31 07:08:18.3	88.320	0.360	-0.780	1.040
2020/01/31 07:08:18.4	88.320	0.350	-0.720	1.040
2020/01/31 07:08:18.5	88.320	0.330	-0.660	1.050
2020/01/31 07:08:18.6	88.320	0.320	-0.600	1.050
2020/01/31 07:08:18.7	88.320	0.300	-0.530	1.060
2020/01/31 07:08:18.8	88.320	0.280	-0.470	1.070
2020/01/31 07:08:18.9	88.310	0.260	-0.400	1.080
2020/01/31 07:08:19.0	88.300	0.240	-0.340	1.100
2020/01/31 07:08:19.1	88.300	0.210	-0.270	1.110
2020/01/31 07:08:19.2	88.290	0.190	-0.200	1.130
2020/01/31 07:08:19.3	88.270	0.160	-0.140	1.150
2020/01/31 07:08:19.4	88.260	0.140	-0.070	1.160
2020/01/31 07:08:19.5	88.250	0.110	-0.010	1.180
2020/01/31 07:08:19.6	88.240	0.080	0.050	1.200
2020/01/31 07:08:19.7	88.220	0.050	0.110	1.210
2020/01/31 07:08:19.8	88.210	0.030	0.160	1.230
2020/01/31 07:08:19.9	88.190	-0.000	0.210	1.240
2020/01/31 07:08:20.0	88.180	-0.030	0.260	1.250
2020/01/31 07:08:20.1	88.160	-0.060	0.310	1.270
2020/01/31 07:08:20.2	88.150	-0.080	0.350	1.280
2020/01/31 07:08:20.3	88.130	-0.110	0.390	1.290
2020/01/31 07:08:20.4	88.110	-0.140	0.430	1.290
2020/01/31 07:08:20.5	88.100	-0.160	0.460	1.300
2020/01/31 07:08:20.6	88.080	-0.190	0.490	1.310
2020/01/31 07:08:20.7	88.060	-0.210	0.510	1.310
2020/01/31 07:08:20.8	88.050	-0.230	0.530	1.310
2020/01/31 07:08:20.9	88.030	-0.250	0.550	1.310
2020/01/31 07:08:21.0	88.020	-0.270	0.560	1.310
2020/01/31 07:08:21.1	88.000	-0.290	0.580	1.310
2020/01/31 07:08:21.2	87.980	-0.310	0.580	1.300
2020/01/31 07:08:21.3	87.980	-0.320	0.580	1.290
2020/01/31 07:08:21.4	87.960	-0.340	0.580	1.280
2020/01/31 07:08:21.5	87.950	-0.350	0.580	1.270
2020/01/31 07:08:21.6	87.940	-0.360	0.570	1.250
2020/01/31 07:08:21.7	87.920	-0.360	0.560	1.230
2020/01/31 07:08:21.8	87.910	-0.370	0.540	1.210
2020/01/31 07:08:21.9	87.900	-0.370	0.530	1.180
2020/01/31 07:08:22.0	87.890	-0.370	0.500	1.160
2020/01/31 07:08:22.1	87.880	-0.370	0.480	1.130
2020/01/31 07:08:22.2	87.870	-0.370	0.450	1.090
2020/01/31 07:08:22.3	87.860	-0.360	0.420	1.060
2020/01/31 07:08:22.4	87.860	-0.350	0.380	1.020
2020/01/31 07:08:22.5	87.850	-0.340	0.340	0.980
2020/01/31 07:08:22.6	87.850	-0.330	0.300	0.930
2020/01/31 07:08:22.7	87.840	-0.320	0.260	0.890
2020/01/31 07:08:22.8	87.840	-0.300	0.220	0.840
2020/01/31 07:08:22.9	87.840	-0.280	0.170	0.790
2020/01/31 07:08:23.0	87.840	-0.260	0.130	0.730
2020/01/31 07:08:23.1	87.840	-0.240	0.080	0.680
2020/01/31 07:08:23.2	87.840	-0.210	0.030	0.630
2020/01/31 07:08:23.3	87.840	-0.190	-0.020	0.570
2020/01/31 07:08:23.4	87.840	-0.160	-0.070	0.510
2020/01/31 07:08:23.5	87.840	-0.130	-0.120	0.460
2020/01/31 07:08:23.6	87.850	-0.110	-0.160	0.400
2020/01/31 07:08:23.7	87.850	-0.080	-0.210	0.350
2020/01/31 07:08:23.8	87.850	-0.050	-0.260	0.300
2020/01/31 07:08:23.9	87.860	-0.010	-0.300	0.240
2020/01/31 07:08:24.0	87.860	0.020	-0.350	0.190
2020/01/31 07:08:24.1	87.860	0.050	-0.390	0.140
2020/01/31 07:08:24.2	87.860	0.080	-0.430	0.100
2020/01/31 07:08:24.3	87.850	0.110	-0.470	0.050
2020/01/31 07:08:24.4	87.850	0.140	-0.500	0.010
2020/01/31 07:08:24.5	87.860	0.170	-0.530	-0.040
2020/01/31 07:08:24.6	87.860	0.200	-0.560	-0.070
2020/01/31 07:08:24.7	87.860	0.230	-0.590	-0.110
2020/01/31 07:08:24.8	87.860	0.260	-0.610	-0.140
2020/01/31 07:08:24.9	87.860	0.280	-0.640	-0.170
2020/01/31 07:08:25.0	87.860	0.310	-0.650	-0.200
2020/01/31 07:08:25.1	87.860	0.330	-0.670	-0.230
2020/01/31 07:08:25.2	87.860	0.360	-0.680	-0.250
2020/01/31 07:08:25.3	87.850	0.380	-0.690	-0.270
2020/01/31 07:08:25.4	87.850	0.400	-0.700	-0.280
2020/01/31 07:08:25.5	87.850	0.410	-0.710	-0.290
2020/01/31 07:08:25.6	87.850	0.430	-0.710	-0.300
2020/01/31 07:08:25.7	87.850	0.440	-0.710	-0.310
2020/01/31 07:08:25.8	87.840	0.460	-0.710	-0.310
2020/01/31 07:08:25.9	87.840	0.470	-0.710	-0.300
2020/01/31 07:08:26.0	87.850	0.480	-0.710	-0.300
2020/01/31 07:08:26.1	87.850	0.480	-0.700	-0.290
2020/01/31 07:08:26.2	87.850	0.490	-0.690	-0.280
2020/01/31 07:08:26.3	87.850	0.490	-0.680	-0.260
2020/01/31 07:08:26.4	87.850	0.500	-0.670	-0.240
2020/01/31 07:08:26.5	87.850	0.500	-0.660	-0.220
2020/01/31 07:08:26.6	87.850	0.500	-0.640	-0.200
2020/01/31 07:08:26.7	87.860	0.490	-0.620	-0.180
2020/01/31 07:08:26.8	87.860	0.490	-0.610	-0.150
2020/01/31 07:08:26.9	87.870	0.490	-0.580	-0.120
2020/01/31 07:08:27.0	87.870	0.480	-0.560	-0.090
2020/01/31 07:08:27.1	87.880	0.470	-0.540	-0.060
2020/01/31 07:08:27.2	87.890	0.460	-0.510	-0.030
2020/01/31 07:08:27.3	87.880	0.450	-0.490	0.010
2020/01/31 07:08:27.4	87.890	0.440	-0.460	0.040
2020/01/31 07:08:27.5	87.890	0.430	-0.430	0.080
2020/01/31 07:08:27.6	87.900	0.410	-0.400	0.120
2020/01/31 07:08:27.7	87.910	0.400	-0.370	0.160
2020/01/31 07:08:27.8	87.910	0.380	-0.340	0.200
2020/01/31 07:08:27.9	87.920	0.360	-0.310	0.240
2020/01/31 07:08:28.0	87.930	0.340	-0.270	0.280
2020/01/31 07:08:28.1	87.930	0.320	-0.240	0.320
2020/01/31 07:08:28.2	87.940	0.290	-0.200	0.360
2020/01/31 07:08:28.3	87.950	0.270	-0.170	0.410
2020/01/31 07:08:28.4	87.950	0.240	-0.130	0.450
2020/01/31 07:08:28.5	87.960	0.210	-0.100	0.490
2020/01/31 07:08:28.6	87.970	0.180	-0.060	0.540
2020/01/31 07:08:28.7	87.980	0.150	-0.020	0.580
2020/01/31 07:08:28.8	87.980	0.120	0.020	0.620
2020/01/31 07:08:28.9	87.990	0.090	0.050	0.670
2020/01/31 07:08:29.0	88.000	0.050	0.090	0.710
2020/01/31 07:08:29.1	88.010	0.020	0.130	0.760
2020/01/31 07:08:29.2	88.020	-0.020	0.160	0.800
2020/01/31 07:08:29.3	88.030	-0.050	0.200	0.850
2020/01/31 07:08:29.4	88.040	-0.090	0.230	0.890
2020/01/31 07:08:29.5	88.050	-0.120	0.270	0.940
2020/01/31 07:08:29.6	88.060	-0.160	0.300	0.980
2020/01/31 07:08:29.7	88.070	-0.190	0.320	1.030
2020/01/31 07:08:29.8	88.080	-0.230	0.350	1.080
2020/01/31 07:08:29.9	88.100	-0.260	0.370	1.120
2020/01/31 07:08:30.0	88.110	-0.290	0.390	1.170
2020/01/31 07:08:30.1	88.120	-0.320	0.410	1.210
2020/01/31 07:08:30.2	88.140	-0.350	0.430	1.260
2020/01/31 07:08:30.3	88.160	-0.380	0.440	1.300
2020/01/31 07:08:30.4	88.180	-0.410	0.450	1.350
2020/01/31 07:08:30.5	88.190	-0.430	0.450	1.390
2020/01/31 07:08:30.6	88.210	-0.450	0.450	1.440
2020/01/31 07:08:30.7	88.230	-0.470	0.450	1.480
2020/01/31 07:08:30.8	88.250	-0.490	0.450	1.520
2020/01/31 07:08:30.9	88.260	-0.500	0.440	1.560
2020/01/31 07:08:31.0	88.280	-0.510	0.430	1.600
2020/01/31 07:08:31.1	88.300	-0.520	0.420	1.640
2020/01/31 07:08:31.2	88.320	-0.530	0.410	1.670
2020/01/31 07:08:31.3	88.340	-0.530	0.390	1.710
2020/01/31 07:08:31.4	88.350	-0.530	0.370	1.740
2020/01/31 07:08:31.5	88.370	-0.530	0.350	1.770
2020/01/31 07:08:31.6	88.380	-0.520	0.320	1.800
2020/01/31 07:08:31.7	88.400	-0.510	0.300	1.830
2020/01/31 07:08:31.8	88.410	-0.500	0.270	1.850
2020/01/31 07:08:31.9	88.420	-0.490	0.240	1.870
2020/01/31 07:08:32.0	88.430	-0.470	0.210	1.890
2020/01/31 07:08:32.1	88.440	-0.460	0.180	1.910
2020/01/31 07:08:32.2	88.450	-0.440	0.140	1.930
2020/01/31 07:08:32.3	88.470	-0.410	0.100	1.940
2020/01/31 07:08:32.4	88.470	-0.390	0.070	1.960
2020/01/31 07:08:32.5	88.470	-0.360	0.030	1.970
2020/01/31 07:08:32.6	88.470	-0.340	-0.000	1.970
2020/01/31 07:08:32.7	88.470	-0.310	-0.040	1.980
2020/01/31 07:08:32.8	88.470	-0.280	-0.070	1.980
2020/01/31 07:08:32.9	88.470	-0.250	-0.110	1.980
2020/01/31 07:08:33.0	88.470	-0.230	-0.140	1.980
2020/01/31 07:08:33.1	88.460	-0.200	-0.180	1.970
2020/01/31 07:08:33.2	88.450	-0.170	-0.210	1.960
2020/01/31 07:08:33.3	88.450	-0.140	-0.240	1.950
2020/01/31 07:08:33.4	88.440	-0.110	-0.270	1.940
2020/01/31 07:08:33.5	88.430	-0.080	-0.290	1.930
2020/01/31 07:08:33.6	88.420	-0.060	-0.320	1.920
2020/01/31 07:08:33.7	88.400	-0.030	-0.350	1.900
2020/01/31 07:08:33.8	88.390	-0.010	-0.370	1.880
2020/01/31 07:08:33.9	88.370	0.020	-0.390	1.860
2020/01/31 07:08:34.0	88.360	0.040	-0.410	1.840
2020/01/31 07:08:34.1	88.340	0.060	-0.420	1.820
2020/01/31 07:08:34.2	88.330	0.080	-0.430	1.800
2020/01/31 07:08:34.3	88.310	0.100	-0.450	1.770
2020/01/31 07:08:34.4	88.290	0.120	-0.450	1.750
2020/01/31 07:08:34.5	88.270	0.130	-0.460	1.720
2020/01/31 07:08:34.6	88.250	0.150	-0.470	1.700
2020/01/31 07:08:34.7	88.230	0.160	-0.470	1.670
2020/01/31 07:08:34.8	88.210	0.170	-0.470	1.640
2020/01/31 07:08:34.9	88.190	0.180	-0.470	1.610
2020/01/31 07:08:35.0	88.170	0.190	-0.470	1.580
2020/01/31 07:08:35.1	88.150	0.200	-0.470	1.540
2020/01/31 07:08:35.2	88.130	0.210	-0.470	1.510
2020/01/31 07:08:35.3	88.120	0.220	-0.470	1.470
2020/01/31 07:08:35.4	88.110	0.220	-0.470	1.430
2020/01/31 07:08:35.5	88.090	0.230	-0.470	1.380
2020/01/31 07:08:35.6	88.080	0.230	-0.470	1.330
2020/01/31 07:08:35.7	88.070	0.240	-0.470	1.280
2020/01/31 07:08:35.8	88.060	0.240	-0.470	1.230
2020/01/31 07:08:35.9	88.050	0.250	-0.480	1.170
2020/01/31 07:08:36.0	88.050	0.250	-0.490	1.110
2020/01/31 07:08:36.1	88.050	0.250	-0.500	1.050
2020/01/31 07:08:36.2	88.060	0.260	-0.510	0.980
2020/01/31 07:08:36.3	88.060	0.260	-0.520	0.910
2020/01/31 07:08:36.4	88.060	0.260	-0.530	0.830
2020/01/31 07:08:36.5	88.080	0.270	-0.550	0.760
2020/01/31 07:08:36.6	88.090	0.270	-0.560	0.680
2020/01/31 07:08:36.7	88.110	0.270	-0.580	0.600
2020/01/31 07:08:36.8	88.130	0.280	-0.600	0.520
2020/01/31 07:08:36.9	88.150	0.280	-0.620	0.440
2020/01/31 07:08:37.0	88.180	0.290	-0.640	0.350
2020/01/31 07:08:37.1	88.200	0.290	-0.650	0.270
2020/01/31 07:08:37.2	88.230	0.290	-0.670	0.190
2020/01/31 07:08:37.3	88.260	0.300	-0.680	0.110
2020/01/31 07:08:37.4	88.290	0.300	-0.700	0.030
2020/01/31 07:08:37.5	88.320	0.310	-0.710	-0.040
2020/01/31 07:08:37.6	88.360	0.310	-0.720	-0.120
2020/01/31 07:08:37.7	88.390	0.320	-0.730	-0.190
2020/01/31 07:08:37.8	88.430	0.320	-0.730	-0.250
2020/01/31 07:08:37.9	88.460	0.320	-0.730	-0.310
2020/01/31 07:08:38.0	88.500	0.320	-0.730	-0.370
2020/01/31 07:08:38.1	88.530	0.330	-0.720	-0.420
2020/01/31 07:08:38.2	88.570	0.330	-0.710	-0.470
2020/01/31 07:08:38.3	88.580	0.320	-0.690	-0.510
2020/01/31 07:08:38.4	88.610	0.320	-0.670	-0.540
2020/01/31 07:08:38.5	88.640	0.320	-0.650	-0.570
2020/01/31 07:08:38.6	88.670	0.310	-0.610	-0.590
2020/01/31 07:08:38.7	88.690	0.310	-0.570	-0.610
2020/01/31 07:08:38.8	88.710	0.300	-0.530	-0.620
2020/01/31 07:08:38.9	88.730	0.290	-0.480	-0.620
2020/01/31 07:08:39.0	88.740	0.270	-0.430	-0.620
2020/01/31 07:08:39.1	88.760	0.260	-0.370	-0.610
2020/01/31 07:08:39.2	88.770	0.240	-0.300	-0.600
2020/01/31 07:08:39.3	88.780	0.220	-0.230	-0.590
2020/01/31 07:08:39.4	88.780	0.200	-0.160	-0.560
2020/01/31 07:08:39.5	88.790	0.180	-0.090	-0.540
2020/01/31 07:08:39.6	88.790	0.150	-0.010	-0.510
2020/01/31 07:08:39.7	88.780	0.120	0.070	-0.480
2020/01/31 07:08:39.8	88.780	0.090	0.160	-0.440
2020/01/31 07:08:39.9	88.770	0.060	0.240	-0.400
2020/01/31 07:08:40.0	88.770	0.020	0.330	-0.350
2020/01/31 07:08:40.1	88.760	-0.010	0.410	-0.310
2020/01/31 07:08:40.2	88.750	-0.050	0.490	-0.260
2020/01/31 07:08:40.3	88.750	-0.080	0.580	-0.200
2020/01/31 07:08:40.4	88.740	-0.120	0.660	-0.150
2020/01/31 07:08:40.5	88.730	-0.160	0.730	-0.090
2020/01/31 07:08:40.6	88.720	-0.200	0.800	-0.030
2020/01/31 07:08:40.7	88.700	-0.240	0.870	0.030
2020/01/31 07:08:40.8	88.690	-0.280	0.930	0.090
2020/01/31 07:08:40.9	88.680	-0.310	0.980	0.160
2020/01/31 07:08:41.0	88.670	-0.350	1.030	0.220
2020/01/31 07:08:41.1	88.660	-0.390	1.060	0.280
2020/01/31 07:08:41.2	88.650	-0.420	1.090	0.340
2020/01/31 07:08:41.3	88.660	-0.450	1.110	0.410
2020/01/31 07:08:41.4	88.650	-0.480	1.120	0.470
2020/01/31 07:08:41.5	88.650	-0.500	1.120	0.530
2020/01/31 07:08:41.6	88.650	-0.520	1.120	0.590
2020/01/31 07:08:41.7	88.650	-0.540	1.100	0.650
2020/01/31 07:08:41.8	88.650	-0.560	1.070	0.700
2020/01/31 07:08:41.9	88.660	-0.570	1.040	0.750
2020/01/31 07:08:42.0	88.660	-0.580	1.000	0.800
2020/01/31 07:08:42.1	88.670	-0.580	0.950	0.850
2020/01/31 07:08:42.2	88.680	-0.580	0.890	0.900
2020/01/31 07:08:42.3	88.700	-0.580	0.820	0.950
2020/01/31 07:08:42.4	88.710	-0.570	0.750	0.990
2020/01/31 07:08:42.5	88.720	-0.560	0.670	1.030
2020/01/31 07:08:42.6	88.740	-0.540	0.580	1.070
2020/01/31 07:08:42.7	88.750	-0.520	0.490	1.110
2020/01/31 07:08:42.8	88.760	-0.500	0.390	1.140
2020/01/31 07:08:42.9	88.770	-0.470	0.290	1.180
2020/01/31 07:08:43.0	88.790	-0.440	0.190	1.210
2020/01/31 07:08:43.1	88.800	-0.410	0.090	1.240
2020/01/31 07:08:43.2	88.810	-0.370	-0.020	1.270
2020/01/31 07:08:43.3	88.820	-0.340	-0.120	1.300
2020/01/31 07:08:43.4	88.830	-0.290	-0.230	1.330
2020/01/31 07:08:43.5	88.840	-0.250	-0.330	1.350
2020/01/31 07:08:43.6	88.850	-0.210	-0.430	1.380
2020/01/31 07:08:43.7	88.850	-0.160	-0.530	1.400
2020/01/31 07:08:43.8	88.860	-0.120	-0.630	1.420
2020/01/31 07:08:43.9	88.870	-0.070	-0.720	1.450
2020/01/31 07:08:44.0	88.870	-0.020	-0.810	1.470
2020/01/31 07:08:44.1	88.880	0.020	-0.890	1.490
2020/01/31 07:08:44.2	88.880	0.070	-0.960	1.510
2020/01/31 07:08:44.3	88.880	0.110	-1.030	1.530
2020/01/31 07:08:44.4	88.880	0.160	-1.090	1.540
2020/01/31 07:08:44.5	88.880	0.200	-1.150	1.560
2020/01/31 07:08:44.6	88.880	0.240	-1.190	1.580
2020/01/31 07:08:44.7	88.880	0.280	-1.230	1.590
2020/01/31 07:08:44.8	88.880	0.310	-1.260	1.610
2020/01/31 07:08:44.9	88.880	0.340	-1.280	1.620
2020/01/31 07:08:45.0	88.870	0.370	-1.290	1.630
2020/01/31 07:08:45.1	88.870	0.400	-1.300	1.640
2020/01/31 07:08:45.2	88.870	0.420	-1.290	1.650
2020/01/31 07:08:45.3	88.860	0.440	-1.280	1.650
2020/01/31 07:08:45.4	88.860	0.450	-1.260	1.660
2020/01/31 07:08:45.5	88.850	0.470	-1.240	1.660
2020/01/31 07:08:45.6	88.850	0.470	-1.210	1.660
2020/01/31 07:08:45.7	88.840	0.480	-1.170	1.660
2020/01/31 07:08:45.8	88.840	0.480	-1.120	1.660
2020/01/31 07:08:45.9	88.840	0.470	-1.070	1.660
2020/01/31 07:08:46.0	88.830	0.470	-1.020	1.650
2020/01/31 07:08:46.1	88.830	0.460	-0.960	1.640
2020/01/31 07:08:46.2	88.820	0.450	-0.900	1.630
2020/01/31 07:08:46.3	88.820	0.430	-0.830	1.620
2020/01/31 07:08:46.4	88.810	0.410	-0.770	1.600
2020/01/31 07:08:46.5	88.810	0.390	-0.700	1.590
2020/01/31 07:08:46.6	88.800	0.370	-0.630	1.570
2020/01/31 07:08:46.7	88.800	0.350	-0.570	1.550
2020/01/31 07:08:46.8	88.790	0.320	-0.500	1.530
2020/01/31 07:08:46.9	88.790	0.290	-0.430	1.510
2020/01/31 07:08:47.0	88.780	0.270	-0.370	1.490
2020/01/31 07:08:47.1	88.770	0.240	-0.300	1.460
2020/01/31 07:08:47.2	88.770	0.210	-0.240	1.440
2020/01/31 07:08:47.3	88.770	0.180	-0.180	1.420
2020/01/31 07:08:47.4	88.760	0.150	-0.120	1.390
2020/01/31 07:08:47.5	88.760	0.120	-0.070	1.370
2020/01/31 07:08:47.6	88.750	0.090	-0.020	1.340
2020/01/31 07:08:47.7	88.750	0.070	0.030	1.320
2020/01/31 07:08:47.8	88.750	0.040	0.070	1.290
2020/01/31 07:08:47.9	88.750	0.020	0.110	1.270
2020/01/31 07:08:48.0	88.750	-0.010	0.140	1.240
2020/01/31 07:08:48.1	88.750	-0.030	0.180	1.220
2020/01/31 07:08:48.2	88.750	-0.050	0.200	1.190
2020/01/31 07:08:48.3	88.750	-0.070	0.220	1.160
2020/01/31 07:08:48.4	88.750	-0.090	0.240	1.140
2020/01/31 07:08:48.5	88.750	-0.100	0.260	1.120
2020/01/31 07:08:48.6	88.760	-0.120	0.270	1.090
2020/01/31 07:08:48.7	88.760	-0.130	0.280	1.070
2020/01/31 07:08:48.8	88.760	-0.140	0.290	1.040
2020/01/31 07:08:48.9	88.770	-0.150	0.290	1.020
2020/01/31 07:08:49.0	88.780	-0.160	0.290	0.990
2020/01/31 07:08:49.1	88.780	-0.160	0.290	0.970
2020/01/31 07:08:49.2	88.790	-0.170	0.280	0.950
2020/01/31 07:08:49.3	88.800	-0.170	0.280	0.920
2020/01/31 07:08:49.4	88.810	-0.170	0.270	0.890
2020/01/31 07:08:49.5	88.820	-0.170	0.260	0.870
2020/01/31 07:08:49.6	88.830	-0.170	0.250	0.840
2020/01/31 07:08:49.7	88.840	-0.170	0.240	0.800
2020/01/31 07:08:49.8	88.860	-0.170	0.230	0.770
2020/01/31 07:08:49.9	88.870	-0.170	0.220	0.740
2020/01/31 07:08:50.0	88.880	-0.160	0.200	0.700
2020/01/31 07:08:50.1	88.900	-0.160	0.190	0.670
2020/01/31 07:08:50.2	88.920	-0.160	0.180	0.630
2020/01/31 07:08:50.3	88.920	-0.150	0.160	0.580
2020/01/31 07:08:50.4	88.940	-0.150	0.150	0.540
2020/01/31 07:08:50.5	88.960	-0.150	0.140	0.500
2020/01/31 07:08:50.6	88.970	-0.140	0.130	0.460
2020/01/31 07:08:50.7	88.990	-0.140	0.120	0.420
2020/01/31 07:08:50.8	89.000	-0.140	0.110	0.380
2020/01/31 07:08:50.9	89.020	-0.140	0.100	0.340
2020/01/31 07:08:51.0	89.030	-0.140	0.090	0.300
2020/01/31 07:08:51.1	89.050	-0.140	0.090	0.260
2020/01/31 07:08:51.2	89.060	-0.140	0.080	0.220
2020/01/31 07:08:51.3	89.060	-0.140	0.080	0.180
2020/01/31 07:08:51.4	89.080	-0.150	0.070	0.150
2020/01/31 07:08:51.5	89.090	-0.150	0.070	0.120
2020/01/31 07:08:51.6	89.100	-0.160	0.070	0.090
2020/01/31 07:08:51.7	89.100	-0.160	0.070	0.060
2020/01/31 07:08:51.8	89.110	-0.170	0.070	0.040
2020/01/31 07:08:51.9	89.120	-0.180	0.080	0.020
2020/01/31 07:08:52.0	89.130	-0.190	0.080	-0.000
2020/01/31 07:08:52.1	89.140	-0.200	0.080	-0.020
2020/01/31 07:08:52.2	89.140	-0.210	0.090	-0.030
2020/01/31 07:08:52.3	89.150	-0.220	0.090	-0.050
2020/01/31 07:08:52.4	89.160	-0.230	0.090	-0.060
2020/01/31 07:08:52.5	89.160	-0.240	0.100	-0.060
2020/01/31 07:08:52.6	89.170	-0.250	0.100	-0.070
2020/01/31 07:08:52.7	89.180	-0.260	0.110	-0.070
2020/01/31 07:08:52.8	89.180	-0.270	0.110	-0.070
2020/01/31 07:08:52.9	89.190	-0.280	0.110	-0.060
2020/01/31 07:08:53.0	89.190	-0.290	0.120	-0.060
2020/01/31 07:08:53.1	89.200	-0.300	0.120	-0.050
2020/01/31 07:08:53.2	89.200	-0.310	0.120	-0.040
2020/01/31 07:08:53.3	89.210	-0.320	0.120	-0.030
2020/01/31 07:08:53.4	89.210	-0.320	0.120	-0.020
2020/01/31 07:08:53.5	89.210	-0.330	0.110	-0.010
2020/01/31 07:08:53.6	89.210	-0.330	0.100	0.010
2020/01/31 07:08:53.7	89.210	-0.330	0.100	0.030
2020/01/31 07:08:53.8	89.210	-0.330	0.080	0.050
2020/01/31 07:08:53.9	89.200	-0.330	0.070	0.070
2020/01/31 07:08:54.0	89.200	-0.330	0.050	0.090
2020/01/31 07:08:54.1	89.190	-0.320	0.040	0.120
2020/01/31 07:08:54.2	89.180	-0.320	0.010	0.150
2020/01/31 07:08:54.3	89.160	-0.310	-0.010	0.180
2020/01/31 07:08:54.4	89.140	-0.300	-0.040	0.210
2020/01/31 07:08:54.5	89.130	-0.290	-0.070	0.240
2020/01/31 07:08:54.6	89.110	-0.270	-0.100	0.270
2020/01/31 07:08:54.7	89.090	-0.260	-0.130	0.300
2020/01/31 07:08:54.8	89.070	-0.240	-0.170	0.340
2020/01/31 07:08:54.9	89.040	-0.220	-0.210	0.370
2020/01/31 07:08:55.0	89.020	-0.200	-0.250	0.410
2020/01/31 07:08:55.1	89.000	-0.180	-0.290	0.440
2020/01/31 07:08:55.2	88.970	-0.160	-0.330	0.480
2020/01/31 07:08:55.3	88.940	-0.130	-0.370	0.510
2020/01/31 07:08:55.4	88.920	-0.100	-0.420	0.540
2020/01/31 07:08:55.5	88.900	-0.080	-0.460	0.570
2020/01/31 07:08:55.6	88.870	-0.050	-0.510	0.600
2020/01/31 07:08:55.7	88.850	-0.020	-0.550	0.630
2020/01/31 07:08:55.8	88.840	0.020	-0.590	0.660
2020/01/31 07:08:55.9	88.820	0.050	-0.640	0.680
2020/01/31 07:08:56.0	88.810	0.080	-0.680	0.700
2020/01/31 07:08:56.1	88.800	0.110	-0.720	0.720
2020/01/31 07:08:56.2	88.790	0.150	-0.750	0.740
2020/01/31 07:08:56.3	88.800	0.180	-0.790	0.750
2020/01/31 07:08:56.4	88.790	0.220	-0.820	0.760
2020/01/31 07:08:56.5	88.800	0.250	-0.850	0.770
2020/01/31 07:08:56.6	88.800	0.290	-0.880	0.780
2020/01/31 07:08:56.7	88.810	0.320	-0.900	0.790
2020/01/31 07:08:56.8	88.820	0.360	-0.920	0.790
2020/01/31 07:08:56.9	88.830	0.390	-0.930	0.790
2020/01/31 07:08:57.0	88.840	0.420	-0.950	0.800
2020/01/31 07:08:57.1	88.860	0.450	-0.950	0.800
2020/01/31 07:08:57.2	88.880	0.480	-0.960	0.800
2020/01/31 07:08:57.3	88.900	0.510	-0.950	0.800
2020/01/31 07:08:57.4	88.920	0.540	-0.950	0.800
2020/01/31 07:08:57.5	88.950	0.570	-0.940	0.800
2020/01/31 07:08:57.6	88.970	0.590	-0.930	0.800
2020/01/31 07:08:57.7	89.000	0.610	-0.910	0.800
2020/01/31 07:08:57.8	89.020	0.630	-0.890	0.800
2020/01/31 07:08:57.9	89.050	0.650	-0.870	0.800
2020/01/31 07:08:58.0	89.080	0.670	-0.840	0.810
2020/01/31 07:08:58.1	89.100	0.680	-0.810	0.810
2020/01/31 07:08:58.2	89.130	0.690	-0.770	0.810
2020/01/31 07:08:58.3	89.140	0.690	-0.730	0.810
2020/01/31 07:08:58.4	89.170	0.690	-0.690	0.820
2020/01/31 07:08:58.5	89.190	0.690	-0.640	0.830
2020/01/31 07:08:58.6	89.210	0.690	-0.580	0.840
2020/01/31 07:08:58.7	89.220	0.680	-0.530	0.850
2020/01/31 07:08:58.8	89.240	0.660	-0.470	0.860
2020/01/31 07:08:58.9	89.250	0.650	-0.400	0.870
2020/01/31 07:08:59.0	89.260	0.620	-0.330	0.880
2020/01/31 07:08:59.1	89.270	0.600	-0.260	0.890
2020/01/31 07:08:59.2	89.270	0.570	-0.190	0.910
2020/01/31 07:08:59.3	89.270	0.540	-0.110	0.920
2020/01/31 07:08:59.4	89.270	0.500	-0.030	0.940
2020/01/31 07:08:59.5	89.270	0.460	0.050	0.950
2020/01/31 07:08:59.6	89.260	0.410	0.130	0.970
2020/01/31 07:08:59.7	89.250	0.370	0.210	0.980
2020/01/31 07:08:59.8	89.240	0.320	0.290	1.000
2020/01/31 07:08:59.9	89.230	0.260	0.370	1.010
2020/01/31 07:09:00.0	89.220	0.200	0.440	1.030
2020/01/31 07:09:00.1	89.200	0.140	0.520	1.040
2020/01/31 07:09:00.2	89.180	0.080	0.590	1.060
2020/01/31 07:09:00.3	89.170	0.020	0.650	1.070
2020/01/31 07:09:00.4	89.150	-0.050	0.720	1.090
2020/01/31 07:09:00.5	89.130	-0.110	0.780	1.100
2020/01/31 07:09:00.6	89.110	-0.180	0.830	1.120
2020/01/31 07:09:00.7	89.090	-0.240	0.880	1.130
2020/01/31 07:09:00.8	89.060	-0.310	0.930	1.140
2020/01/31 07:09:00.9	89.040	-0.370	0.960	1.160
2020/01/31 07:09:01.0	89.020	-0.440	0.990	1.170
2020/01/31 07:09:01.1	89.000	-0.500	1.020	1.180
2020/01/31 07:09:01.2	88.980	-0.560	1.030	1.200
2020/01/31 07:09:01.3	88.960	-0.610	1.050	1.210
2020/01/31 07:09:01.4	88.940	-0.670	1.050	1.220
2020/01/31 07:09:01.5	88.920	-0.710	1.050	1.230
2020/01/31 07:09:01.6	88.900	-0.760	1.040	1.250
2020/01/31 07:09:01.7	88.890	-0.800	1.020	1.260
2020/01/31 07:09:01.8	88.870	-0.840	0.990	1.260
2020/01/31 07:09:01.9	88.860	-0.870	0.950	1.270
2020/01/31 07:09:02.0	88.840	-0.890	0.910	1.280
2020/01/31 07:09:02.1	88.830	-0.910	0.860	1.280
2020/01/31 07:09:02.2	88.820	-0.930	0.810	1.280
2020/01/31 07:09:02.3	88.820	-0.930	0.740	1.280
2020/01/31 07:09:02.4	88.820	-0.940	0.670	1.280
2020/01/31 07:09:02.5	88.820	-0.930	0.600	1.270
2020/01/31 07:09:02.6	88.820	-0.920	0.520	1.260
2020/01/31 07:09:02.7	88.830	-0.910	0.440	1.250
2020/01/31 07:09:02.8	88.830	-0.890	0.350	1.240
2020/01/31 07:09:02.9	88.850	-0.860	0.260	1.220
2020/01/31 07:09:03.0	88.860	-0.830	0.160	1.200
2020/01/31 07:09:03.1	88.870	-0.790	0.070	1.180
2020/01/31 07:09:03.2	88.890	-0.750	-0.030	1.150
2020/01/31 07:09:03.3	88.930	-0.710	-0.140	1.120
2020/01/31 07:09:03.4	88.950	-0.660	-0.240	1.090
2020/01/31 07:09:03.5	88.970	-0.600	-0.340	1.060
2020/01/31 07:09:03.6	89.000	-0.550	-0.440	1.020
2020/01/31 07:09:03.7	89.030	-0.490	-0.540	0.980
2020/01/31 07:09:03.8	89.050	-0.430	-0.630	0.940
2020/01/31 07:09:03.9	89.080	-0.370	-0.730	0.900
2020/01/31 07:09:04.0	89.110	-0.310	-0.820	0.860
2020/01/31 07:09:04.1	89.130	-0.250	-0.900	0.820
2020/01/31 07:09:04.2	89.160	-0.180	-0.980	0.780
2020/01/31 07:09:04.3	89.160	-0.120	-1.060	0.730
2020/01/31 07:09:04.4	89.190	-0.060	-1.130	0.690
2020/01/31 07:09:04.5	89.210	-0.000	-1.190	0.650
2020/01/31 07:09:04.6	89.230	0.060	-1.250	0.610
2020/01/31 07:09:04.7	89.240	0.110	-1.300	0.560
2020/01/31 07:09:04.8	89.260	0.160	-1.340	0.520
2020/01/31 07:09:04.9	89.270	0.210	-1.370	0.480
2020/01/31 07:09:05.0	89.280	0.260	-1.390	0.440
2020/01/31 07:09:05.1	89.280	0.300	-1.410	0.410
2020/01/31 07:09:05.2	89.290	0.340	-1.410	0.370
2020/01/31 07:09:05.3	89.270	0.370	-1.400	0.330
2020/01/31 07:09:05.4	89.270	0.400	-1.390	0.300
2020/01/31 07:09:05.5	89.260	0.430	-1.370	0.260
2020/01/31 07:09:05.6	89.260	0.450	-1.340	0.230
2020/01/31 07:09:05.7	89.250	0.470	-1.300	0.210
2020/01/31 07:09:05.8	89.240	0.480	-1.260	0.180
2020/01/31 07:09:05.9	89.220	0.490	-1.200	0.160
2020/01/31 07:09:06.0	89.210	0.490	-1.140	0.140
2020/01/31 07:09:06.1	89.190	0.500	-1.070	0.120
2020/01/31 07:09:06.2	89.170	0.490	-1.000	0.110
2020/01/31 07:09:06.3	89.150	0.490	-0.920	0.100
2020/01/31 07:09:06.4	89.130	0.480	-0.830	0.090
2020/01/31 07:09:06.5	89.100	0.470	-0.750	0.090
2020/01/31 07:09:06.6	89.080	0.460	-0.650	0.080
2020/01/31 07:09:06.7	89.050	0.440	-0.560	0.090
2020/01/31 07:09:06.8	89.030	0.430	-0.460	0.090
2020/01/31 07:09:06.9	89.000	0.410	-0.370	0.100
2020/01/31 07:09:07.0	88.970	0.390	-0.270	0.110
2020/01/31 07:09:07.1	88.940	0.370	-0.170	0.120
2020/01/31 07:09:07.2	88.920	0.350	-0.080	0.140
2020/01/31 07:09:07.3	88.900	0.330	0.010	0.150
2020/01/31 07:09:07.4	88.870	0.310	0.100	0.170
2020/01/31 07:09:07.5	88.840	0.280	0.180	0.190
2020/01/31 07:09:07.6	88.820	0.260	0.260	0.210
2020/01/31 07:09:07.7	88.790	0.250	0.340	0.230
2020/01/31 07:09:07.8	88.770	0.230	0.400	0.250
2020/01/31 07:09:07.9	88.740	0.210	0.460	0.270
2020/01/31 07:09:08.0	88.720	0.190	0.520	0.290
2020/01/31 07:09:08.1	88.700	0.180	0.570	0.310
2020/01/31 07:09:08.2	88.680	0.160	0.610	0.330
2020/01/31 07:09:08.3	88.660	0.150	0.640	0.350
2020/01/31 07:09:08.4	88.640	0.140	0.660	0.370
2020/01/31 07:09:08.5	88.630	0.130	0.680	0.380
2020/01/31 07:09:08.6	88.610	0.120	0.700	0.400
2020/01/31 07:09:08.7	88.600	0.120	0.700	0.410
2020/01/31 07:09:08.8	88.590	0.110	0.700	0.430
2020/01/31 07:09:08.9	88.580	0.100	0.690	0.440
2020/01/31 07:09:09.0	88.570	0.100	0.680	0.450
2020/01/31 07:09:09.1	88.560	0.100	0.660	0.460
2020/01/31 07:09:09.2	88.550	0.100	0.640	0.470
2020/01/31 07:09:09.3	88.550	0.090	0.610	0.480
2020/01/31 07:09:09.4	88.540	0.090	0.580	0.480
2020/01/31 07:09:09.5	88.530	0.090	0.540	0.490
2020/01/31 07:09:09.6	88.520	0.090	0.500	0.490
2020/01/31 07:09:09.7	88.520	0.090	0.460	0.500
2020/01/31 07:09:09.8	88.510	0.090	0.410	0.500
2020/01/31 07:09:09.9	88.500	0.090	0.370	0.500
2020/01/31 07:09:10.0	88.500	0.090	0.320	0.500
2020/01/31 07:09:10.1	88.490	0.090	0.270	0.500
2020/01/31 07:09:10.2	88.490	0.090	0.220	0.500
2020/01/31 07:09:10.3	88.490	0.080	0.170	0.500
2020/01/31 07:09:10.4	88.490	0.080	0.120	0.490
2020/01/31 07:09:10.5	88.490	0.080	0.080	0.490
2020/01/31 07:09:10.6	88.490	0.070	0.030	0.480
2020/01/31 07:09:10.7	88.490	0.060	-0.010	0.480
2020/01/31 07:09:10.8	88.490	0.060	-0.050	0.470
2020/01/31 07:09:10.9	88.500	0.050	-0.090	0.460
2020/01/31 07:09:11.0	88.510	0.040	-0.120	0.460
2020/01/31 07:09:11.1	88.520	0.030	-0.150	0.450
2020/01/31 07:09:11.2	88.530	0.010	-0.180	0.450
2020/01/31 07:09:11.3	88.540	0.000	-0.200	0.440
2020/01/31 07:09:11.4	88.550	-0.010	-0.220	0.440
2020/01/31 07:09:11.5	88.570	-0.030	-0.240	0.430
2020/01/31 07:09:11.6	88.590	-0.050	-0.260	0.430
2020/01/31 07:09:11.7	88.610	-0.060	-0.270	0.430
2020/01/31 07:09:11.8	88.640	-0.080	-0.280	0.430
2020/01/31 07:09:11.9	88.660	-0.100	-0.290	0.430
2020/01/31 07:09:12.0	88.690	-0.120	-0.290	0.440
2020/01/31 07:09:12.1	88.720	-0.140	-0.300	0.440
2020/01/31 07:09:12.2	88.750	-0.160	-0.300	0.450
2020/01/31 07:09:12.3	88.780	-0.190	-0.300	0.460
2020/01/31 07:09:12.4	88.810	-0.210	-0.300	0.470
2020/01/31 07:09:12.5	88.850	-0.230	-0.300	0.490
2020/01/31 07:09:12.6	88.880	-0.250	-0.300	0.500
2020/01/31 07:09:12.7	88.920	-0.270	-0.290	0.520
2020/01/31 07:09:12.8	88.960	-0.290	-0.290	0.540
2020/01/31 07:09:12.9	89.000	-0.310	-0.290	0.560
2020/01/31 07:09:13.0	89.040	-0.330	-0.280	0.580
2020/01/31 07:09:13.1	89.080	-0.340	-0.280	0.610
2020/01/31 07:09:13.2	89.120	-0.360	-0.280	0.640
2020/01/31 07:09:13.3	89.170	-0.370	-0.270	0.660
2020/01/31 07:09:13.4	89.210	-0.390	-0.270	0.690
2020/01/31 07:09:13.5	89.240	-0.400	-0.270	0.730
2020/01/31 07:09:13.6	89.280	-0.410	-0.280	0.760
2020/01/31 07:09:13.7	89.310	-0.410	-0.280	0.800
2020/01/31 07:09:13.8	89.340	-0.420	-0.280	0.840
2020/01/31 07:09:13.9	89.360	-0.420	-0.290	0.880
2020/01/31 07:09:14.0	89.390	-0.420	-0.300	0.930
2020/01/31 07:09:14.1	89.410	-0.420	-0.310	0.970
2020/01/31 07:09:14.2	89.430	-0.410	-0.320	1.020
2020/01/31 07:09:14.3	89.440	-0.400	-0.330	1.070
2020/01/31 07:09:14.4	89.450	-0.390	-0.340	1.110
2020/01/31 07:09:14.5	89.460	-0.380	-0.350	1.170
2020/01/31 07:09:14.6	89.460	-0.370	-0.360	1.220
2020/01/31 07:09:14.7	89.460	-0.350	-0.370	1.270
2020/01/31 07:09:14.8	89.460	-0.330	-0.380	1.320
2020/01/31 07:09:14.9	89.450	-0.310	-0.400	1.380
2020/01/31 07:09:15.0	89.440	-0.290	-0.410	1.430
2020/01/31 07:09:15.1	89.430	-0.260	-0.410	1.480
2020/01/31 07:09:15.2	89.410	-0.240	-0.420	1.540
2020/01/31 07:09:15.3	89.400	-0.210	-0.430	1.590
2020/01/31 07:09:15.4	89.380	-0.180	-0.440	1.640
2020/01/31 07:09:15.5	89.350	-0.150	-0.440	1.690
2020/01/31 07:09:15.6	89.320	-0.120	-0.440	1.740
2020/01/31 07:09:15.7	89.290	-0.090	-0.440	1.790
2020/01/31 07:09:15.8	89.260	-0.060	-0.440	1.840
2020/01/31 07:09:15.9	89.220	-0.030	-0.430	1.880
2020/01/31 07:09:16.0	89.180	0.000	-0.430	1.920
2020/01/31 07:09:16.1	89.140	0.030	-0.420	1.960
2020/01/31 07:09:16.2	89.100	0.060	-0.410	2.000
2020/01/31 07:09:16.3	89.070	0.090	-0.400	2.030
2020/01/31 07:09:16.4	89.030	0.110	-0.390	2.060
2020/01/31 07:09:16.5	88.990	0.140	-0.370	2.090
2020/01/31 07:09:16.6	88.950	0.160	-0.360	2.110
2020/01/31 07:09:16.7	88.900	0.180	-0.340	2.130
2020/01/31 07:09:16.8	88.860	0.210	-0.320	2.150
2020/01/31 07:09:16.9	88.820	0.230	-0.310	2.160
2020/01/31 07:09:17.0	88.780	0.240	-0.290	2.170
2020/01/31 07:09:17.1	88.740	0.260	-0.280	2.170
2020/01/31 07:09:17.2	88.700	0.280	-0.260	2.170
2020/01/31 07:09:17.3	88.660	0.290	-0.250	2.170
2020/01/31 07:09:17.4	88.630	0.300	-0.230	2.160
2020/01/31 07:09:17.5	88.600	0.310	-0.220	2.140
2020/01/31 07:09:17.6	88.570	0.320	-0.210	2.130
2020/01/31 07:09:17.7	88.540	0.330	-0.200	2.110
2020/01/31 07:09:17.8	88.520	0.330	-0.190	2.080
2020/01/31 07:09:17.9	88.500	0.340	-0.180	2.060
2020/01/31 07:09:18.0	88.480	0.340	-0.170	2.030
2020/01/31 07:09:18.1	88.460	0.340	-0.170	1.990
2020/01/31 07:09:18.2	88.450	0.340	-0.160	1.960
2020/01/31 07:09:18.3	88.430	0.340	-0.150	1.920
2020/01/31 07:09:18.4	88.420	0.340	-0.150	1.870
2020/01/31 07:09:18.5	88.420	0.340	-0.150	1.830
2020/01/31 07:09:18.6	88.410	0.340	-0.150	1.780
2020/01/31 07:09:18.7	88.410	0.330	-0.140	1.730
2020/01/31 07:09:18.8	88.410	0.330	-0.140	1.670
2020/01/31 07:09:18.9	88.410	0.320	-0.140	1.610
2020/01/31 07:09:19.0	88.420	0.310	-0.140	1.550
2020/01/31 07:09:19.1	88.430	0.310	-0.140	1.480
2020/01/31 07:09:19.2	88.440	0.300	-0.140	1.410
2020/01/31 07:09:19.3	88.460	0.290	-0.140	1.330
2020/01/31 07:09:19.4	88.470	0.280	-0.140	1.240
2020/01/31 07:09:19.5	88.490	0.260	-0.130	1.160
2020/01/31 07:09:19.6	88.520	0.250	-0.120	1.060
2020/01/31 07:09:19.7	88.540	0.240	-0.120	0.970
2020/01/31 07:09:19.8	88.570	0.220	-0.110	0.870
2020/01/31 07:09:19.9	88.600	0.210	-0.100	0.760
2020/01/31 07:09:20.0	88.630	0.190	-0.090	0.650
2020/01/31 07:09:20.1	88.660	0.180	-0.080	0.540
2020/01/31 07:09:20.2	88.700	0.160	-0.060	0.430
2020/01/31 07:09:20.3	88.730	0.140	-0.050	0.310
2020/01/31 07:09:20.4	88.770	0.120	-0.030	0.190
2020/01/31 07:09:20.5	88.800	0.110	-0.020	0.070
2020/01/31 07:09:20.6	88.840	0.090	0.000	-0.050
2020/01/31 07:09:20.7	88.880	0.070	0.020	-0.160
2020/01/31 07:09:20.8	88.910	0.050	0.030	-0.280
2020/01/31 07:09:20.9	88.950	0.040	0.050	-0.390
2020/01/31 07:09:21.0	88.990	0.020	0.070	-0.500
2020/01/31 07:09:21.1	89.020	0.000	0.090	-0.610
2020/01/31 07:09:21.2	89.060	-0.020	0.110	-0.710
2020/01/31 07:09:21.3	89.090	-0.030	0.120	-0.810
2020/01/31 07:09:21.4	89.120	-0.050	0.140	-0.900
2020/01/31 07:09:21.5	89.150	-0.070	0.150	-0.980
2020/01/31 07:09:21.6	89.180	-0.080	0.170	-1.060
2020/01/31 07:09:21.7	89.200	-0.100	0.180	-1.130
2020/01/31 07:09:21.8	89.230	-0.120	0.200	-1.190
2020/01/31 07:09:21.9	89.250	-0.130	0.210	-1.240
2020/01/31 07:09:22.0	89.270	-0.150	0.220	-1.290
2020/01/31 07:09:22.1	89.290	-0.160	0.220	-1.330
2020/01/31 07:09:22.2	89.310	-0.170	0.230	-1.350
2020/01/31 07:09:22.3	89.340	-0.180	0.230	-1.370
2020/01/31 07:09:22.4	89.350	-0.200	0.230	-1.380
2020/01/31 07:09:22.5	89.370	-0.210	0.230	-1.390
2020/01/31 07:09:22.6	89.380	-0.220	0.230	-1.380
2020/01/31 07:09:22.7	89.380	-0.220	0.230	-1.370
2020/01/31 07:09:22.8	89.390	-0.230	0.220	-1.350
2020/01/31 07:09:22.9	89.390	-0.240	0.210	-1.320
2020/01/31 07:09:23.0	89.400	-0.240	0.190	-1.280
2020/01/31 07:09:23.1	89.400	-0.250	0.180	-1.240
2020/01/31 07:09:23.2	89.400	-0.250	0.160	-1.190
2020/01/31 07:09:23.3	89.400	-0.250	0.140	-1.130
2020/01/31 07:09:23.4	89.400	-0.250	0.120	-1.070
2020/01/31 07:09:23.5	89.400	-0.250	0.090	-1.000
2020/01/31 07:09:23.6	89.390	-0.250	0.070	-0.930
2020/01/31 07:09:23.7	89.390	-0.250	0.040	-0.860
2020/01/31 07:09:23.8	89.380	-0.240	0.010	-0.780
2020/01/31 07:09:23.9	89.380	-0.240	-0.020	-0.690
2020/01/31 07:09:24.0	89.370	-0.230	-0.050	-0.610
2020/01/31 07:09:24.1	89.370	-0.220	-0.090	-0.520
2020/01/31 07:09:24.2	89.360	-0.210	-0.120	-0.430
2020/01/31 07:09:24.3	89.340	-0.210	-0.150	-0.330
2020/01/31 07:09:24.4	89.340	-0.200	-0.190	-0.230
2020/01/31 07:09:24.5	89.330	-0.180	-0.220	-0.140
2020/01/31 07:09:24.6	89.320	-0.170	-0.250	-0.040
2020/01/31 07:09:24.7	89.320	-0.160	-0.280	0.070
2020/01/31 07:09:24.8	89.310	-0.150	-0.310	0.170
2020/01/31 07:09:24.9	89.300	-0.140	-0.340	0.270
2020/01/31 07:09:25.0	89.290	-0.120	-0.370	0.380
2020/01/31 07:09:25.1	89.280	-0.110	-0.390	0.480
2020/01/31 07:09:25.2	89.270	-0.100	-0.420	0.590
2020/01/31 07:09:25.3	89.260	-0.090	-0.440	0.690
2020/01/31 07:09:25.4	89.250	-0.070	-0.460	0.790
2020/01/31 07:09:25.5	89.240	-0.060	-0.480	0.900
2020/01/31 07:09:25.6	89.230	-0.050	-0.490	1.000
2020/01/31 07:09:25.7	89.220	-0.040	-0.510	1.110
2020/01/31 07:09:25.8	89.200	-0.020	-0.520	1.210
2020/01/31 07:09:25.9	89.190	-0.010	-0.530	1.310
2020/01/31 07:09:26.0	89.180	-0.000	-0.540	1.410
2020/01/31 07:09:26.1	89.170	0.010	-0.550	1.510
2020/01/31 07:09:26.2	89.150	0.020	-0.550	1.610
2020/01/31 07:09:26.3	89.150	0.030	-0.560	1.700
2020/01/31 07:09:26.4	89.130	0.030	-0.560	1.800
2020/01/31 07:09:26.5	89.120	0.040	-0.560	1.890
2020/01/31 07:09:26.6	89.110	0.050	-0.560	1.970
2020/01/31 07:09:26.7	89.090	0.050	-0.560	2.050
2020/01/31 07:09:26.8	89.080	0.060	-0.550	2.130
2020/01/31 07:09:26.9	89.070	0.060	-0.550	2.210
2020/01/31 07:09:27.0	89.060	0.070	-0.540	2.280
2020/01/31 07:09:27.1	89.050	0.070	-0.530	2.340
2020/01/31 07:09:27.2	89.040	0.080	-0.520	2.400
2020/01/31 07:09:27.3	89.030	0.080	-0.500	2.460
2020/01/31 07:09:27.4	89.030	0.080	-0.490	2.510
2020/01/31 07:09:27.5	89.020	0.080	-0.480	2.550
2020/01/31 07:09:27.6	89.020	0.080	-0.460	2.590
2020/01/31 07:09:27.7	89.020	0.080	-0.450	2.620
2020/01/31 07:09:27.8	89.020	0.080	-0.430	2.650
2020/01/31 07:09:27.9	89.020	0.080	-0.410	2.670
2020/01/31 07:09:28.0	89.020	0.080	-0.400	2.680
2020/01/31 07:09:28.1	89.030	0.080	-0.380	2.680
2020/01/31 07:09:28.2	89.030	0.080	-0.360	2.680
2020/01/31 07:09:28.3	89.040	0.080	-0.340	2.670
2020/01/31 07:09:28.4	89.050	0.080	-0.320	2.650
2020/01/31 07:09:28.5	89.060	0.080	-0.300	2.630
2020/01/31 07:09:28.6	89.080	0.080	-0.280	2.600
2020/01/31 07:09:28.7	89.090	0.080	-0.260	2.570
2020/01/31 07:09:28.8	89.110	0.080	-0.240	2.520
2020/01/31 07:09:28.9	89.130	0.080	-0.220	2.480
2020/01/31 07:09:29.0	89.150	0.080	-0.200	2.430
2020/01/31 07:09:29.1	89.170	0.080	-0.180	2.370
2020/01/31 07:09:29.2	89.190	0.080	-0.160	2.310
2020/01/31 07:09:29.3	89.220	0.080	-0.140	2.240
2020/01/31 07:09:29.4	89.240	0.070	-0.110	2.170
2020/01/31 07:09:29.5	89.260	0.070	-0.090	2.100
2020/01/31 07:09:29.6	89.280	0.070	-0.070	2.030
2020/01/31 07:09:29.7	89.300	0.070	-0.050	1.950
2020/01/31 07:09:29.8	89.320	0.070	-0.030	1.880
2020/01/31 07:09:29.9	89.330	0.070	-0.010	1.800
2020/01/31 07:09:30.0	89.350	0.070	0.010	1.720
2020/01/31 07:09:30.1	89.370	0.070	0.030	1.640
2020/01/31 07:09:30.2	89.380	0.060	0.050	1.560
2020/01/31 07:09:30.3	89.410	0.060	0.070	1.480
2020/01/31 07:09:30.4	89.420	0.060	0.090	1.400
2020/01/31 07:09:30.5	89.440	0.050	0.100	1.320
2020/01/31 07:09:30.6	89.450	0.050	0.120	1.240
2020/01/31 07:09:30.7	89.460	0.050	0.130	1.160
2020/01/31 07:09:30.8	89.470	0.040	0.140	1.090
2020/01/31 07:09:30.9	89.480	0.040	0.150	1.020
2020/01/31 07:09:31.0	89.490	0.030	0.160	0.950
2020/01/31 07:09:31.1	89.490	0.020	0.160	0.880
2020/01/31 07:09:31.2	89.500	0.010	0.170	0.810
2020/01/31 07:09:31.3	89.500	0.010	0.180	0.750
2020/01/31 07:09:31.4	89.500	-0.000	0.180	0.690
2020/01/31 07:09:31.5	89.510	-0.010	0.180	0.630
2020/01/31 07:09:31.6	89.510	-0.030	0.180	0.580
2020/01/31 07:09:31.7	89.510	-0.040	0.180	0.530
2020/01/31 07:09:31.8	89.500	-0.050	0.180	0.480
2020/01/31 07:09:31.9	89.500	-0.060	0.180	0.440
2020/01/31 07:09:32.0	89.500	-0.080	0.180	0.400
2020/01/31 07:09:32.1	89.490	-0.090	0.180	0.360
2020/01/31 07:09:32.2	89.490	-0.100	0.180	0.320
2020/01/31 07:09:32.3	89.480	-0.120	0.170	0.280
2020/01/31 07:09:32.4	89.480	-0.130	0.160	0.250
2020/01/31 07:09:32.5	89.470	-0.150	0.160	0.220
2020/01/31 07:09:32.6	89.460	-0.160	0.150	0.200
2020/01/31 07:09:32.7	89.450	-0.180	0.150	0.170
2020/01/31 07:09:32.8	89.440	-0.200	0.150	0.150
2020/01/31 07:09:32.9	89.430	-0.210	0.140	0.130
2020/01/31 07:09:33.0	89.420	-0.220	0.130	0.110
2020/01/31 07:09:33.1	89.410	-0.240	0.130	0.090
2020/01/31 07:09:33.2	89.400	-0.250	0.120	0.070
2020/01/31 07:09:33.3	89.380	-0.260	0.120	0.060
2020/01/31 07:09:33.4	89.370	-0.270	0.110	0.040
2020/01/31 07:09:33.5	89.360	-0.280	0.100	0.030
2020/01/31 07:09:33.6	89.350	-0.290	0.090	0.010
2020/01/31 07:09:33.7	89.330	-0.300	0.070	-0.000
2020/01/31 07:09:33.8	89.320	-0.300	0.060	-0.020
2020/01/31 07:09:33.9	89.310	-0.310	0.040	-0.030
2020/01/31 07:09:34.0	89.290	-0.310	0.020	-0.040
2020/01/31 07:09:34.1	89.280	-0.310	-0.000	-0.060
2020/01/31 07:09:34.2	89.270	-0.310	-0.030	-0.070
2020/01/31 07:09:34.3	89.260	-0.300	-0.060	-0.090
2020/01/31 07:09:34.4	89.240	-0.290	-0.080	-0.100
2020/01/31 07:09:34.5	89.230	-0.290	-0.120	-0.120
2020/01/31 07:09:34.6	89.220	-0.270	-0.150	-0.130
2020/01/31 07:09:34.7	89.210	-0.260	-0.190	-0.150
2020/01/31 07:09:34.8	89.200	-0.240	-0.220	-0.160
2020/01/31 07:09:34.9	89.190	-0.220	-0.260	-0.180
2020/01/31 07:09:35.0	89.180	-0.200	-0.310	-0.200
2020/01/31 07:09:35.1	89.180	-0.180	-0.350	-0.220
2020/01/31 07:09:35.2	89.170	-0.150	-0.400	-0.240
2020/01/31 07:09:35.3	89.170	-0.120	-0.440	-0.260
2020/01/31 07:09:35.4	89.160	-0.090	-0.490	-0.270
2020/01/31 07:09:35.5	89.160	-0.060	-0.540	-0.290
2020/01/31 07:09:35.6	89.170	-0.020	-0.580	-0.310
2020/01/31 07:09:35.7	89.170	0.020	-0.630	-0.330
2020/01/31 07:09:35.8	89.170	0.050	-0.680	-0.340
2020/01/31 07:09:35.9	89.180	0.090	-0.720	-0.360
2020/01/31 07:09:36.0	89.190	0.130	-0.760	-0.370
2020/01/31 07:09:36.1	89.200	0.180	-0.800	-0.380
2020/01/31 07:09:36.2	89.210	0.220	-0.840	-0.390
2020/01/31 07:09:36.3	89.210	0.260	-0.880	-0.400
2020/01/31 07:09:36.4	89.220	0.300	-0.910	-0.410
2020/01/31 07:09:36.5	89.240	0.340	-0.940	-0.410
2020/01/31 07:09:36.6	89.250	0.380	-0.960	-0.410
2020/01/31 07:09:36.7	89.270	0.420	-0.980	-0.400
2020/01/31 07:09:36.8	89.290	0.450	-0.990	-0.390
2020/01/31 07:09:36.9	89.310	0.490	-0.990	-0.380
2020/01/31 07:09:37.0	89.330	0.520	-0.990	-0.370
2020/01/31 07:09:37.1	89.340	0.550	-0.990	-0.350
2020/01/31 07:09:37.2	89.360	0.580	-0.980	-0.330
2020/01/31 07:09:37.3	89.380	0.610	-0.960	-0.310
2020/01/31 07:09:37.4	89.400	0.630	-0.940	-0.280
2020/01/31 07:09:37.5	89.420	0.650	-0.910	-0.250
2020/01/31 07:09:37.6	89.440	0.660	-0.870	-0.210
2020/01/31 07:09:37.7	89.460	0.670	-0.830	-0.180
2020/01/31 07:09:37.8	89.480	0.680	-0.790	-0.140
2020/01/31 07:09:37.9	89.500	0.680	-0.740	-0.090
2020/01/31 07:09:38.0	89.520	0.680	-0.680	-0.040
2020/01/31 07:09:38.1	89.540	0.680	-0.620	0.010
2020/01/31 07:09:38.2	89.560	0.670	-0.560	0.060
2020/01/31 07:09:38.3	89.580	0.650	-0.490	0.110
2020/01/31 07:09:38.4	89.600	0.640	-0.420	0.170
2020/01/31 07:09:38.5	89.620	0.610	-0.350	0.240
2020/01/31 07:09:38.6	89.630	0.590	-0.280	0.300
2020/01/31 07:09:38.7	89.640	0.560	-0.200	0.370
2020/01/31 07:09:38.8	89.660	0.530	-0.120	0.430
2020/01/31 07:09:38.9	89.670	0.490	-0.040	0.500
2020/01/31 07:09:39.0	89.680	0.450	0.030	0.580
2020/01/31 07:09:39.1	89.680	0.410	0.110	0.650
2020/01/31 07:09:39.2	89.690	0.360	0.190	0.720
2020/01/31 07:09:39.3	89.710	0.310	0.270	0.800
2020/01/31 07:09:39.4	89.710	0.260	0.340	0.880
2020/01/31 07:09:39.5	89.710	0.210	0.410	0.950
2020/01/31 07:09:39.6	89.710	0.160	0.480	1.030
2020/01/31 07:09:39.7	89.710	0.100	0.540	1.100
2020/01/31 07:09:39.8	89.700	0.050	0.600	1.180
2020/01/31 07:09:39.9	89.700	-0.010	0.660	1.250
2020/01/31 07:09:40.0	89.690	-0.070	0.710	1.330
2020/01/31 07:09:40.1	89.680	-0.120	0.760	1.400
2020/01/31 07:09:40.2	89.670	-0.180	0.800	1.470
2020/01/31 07:09:40.3	89.680	-0.230	0.840	1.540
2020/01/31 07:09:40.4	89.670	-0.290	0.880	1.610
2020/01/31 07:09:40.5	89.660	-0.340	0.900	1.680
2020/01/31 07:09:40.6	89.640	-0.390	0.930	1.750
2020/01/31 07:09:40.7	89.630	-0.440	0.940	1.810
2020/01/31 07:09:40.8	89.610	-0.490	0.950	1.870
2020/01/31 07:09:40.9	89.600	-0.530	0.960	1.930
2020/01/31 07:09:41.0	89.580	-0.580	0.960	1.990
2020/01/31 07:09:41.1	89.570	-0.620	0.950	2.050
2020/01/31 07:09:41.2	89.550	-0.650	0.940	2.100
2020/01/31 07:09:41.3	89.530	-0.690	0.920	2.150
2020/01/31 07:09:41.4	89.510	-0.720	0.890	2.190
2020/01/31 07:09:41.5	89.500	-0.740	0.860	2.230
2020/01/31 07:09:41.6	89.480	-0.770	0.830	2.270
2020/01/31 07:09:41.7	89.470	-0.790	0.790	2.310
2020/01/31 07:09:41.8	89.460	-0.800	0.740	2.340
2020/01/31 07:09:41.9	89.450	-0.820	0.690	2.370
2020/01/31 07:09:42.0	89.440	-0.830	0.640	2.400
2020/01/31 07:09:42.1	89.430	-0.830	0.580	2.420
2020/01/31 07:09:42.2	89.420	-0.830	0.520	2.430
2020/01/31 07:09:42.3	89.420	-0.830	0.450	2.450
2020/01/31 07:09:42.4	89.420	-0.830	0.380	2.460
2020/01/31 07:09:42.5	89.420	-0.820	0.310	2.460
2020/01/31 07:09:42.6	89.420	-0.810	0.230	2.460
2020/01/31 07:09:42.7	89.430	-0.800	0.160	2.460
2020/01/31 07:09:42.8	89.430	-0.780	0.080	2.460
2020/01/31 07:09:42.9	89.440	-0.760	0.000	2.450
2020/01/31 07:09:43.0	89.460	-0.740	-0.080	2.430
2020/01/31 07:09:43.1	89.470	-0.710	-0.160	2.420
2020/01/31 07:09:43.2	89.490	-0.680	-0.240	2.400
2020/01/31 07:09:43.3	89.510	-0.650	-0.320	2.370
2020/01/31 07:09:43.4	89.530	-0.620	-0.390	2.340
2020/01/31 07:09:43.5	89.560	-0.590	-0.470	2.310
2020/01/31 07:09:43.6	89.590	-0.560	-0.540	2.270
2020/01/31 07:09:43.7	89.620	-0.520	-0.620	2.230
2020/01/31 07:09:43.8	89.650	-0.480	-0.680	2.190
2020/01/31 07:09:43.9	89.680	-0.440	-0.750	2.140
2020/01/31 07:09:44.0	89.720	-0.410	-0.810	2.090
2020/01/31 07:09:44.1	89.760	-0.370	-0.870	2.040
2020/01/31 07:09:44.2	89.790	-0.330	-0.920	1.980
2020/01/31 07:09:44.3	89.820	-0.290	-0.970	1.910
2020/01/31 07:09:44.4	89.860	-0.250	-1.010	1.850
2020/01/31 07:09:44.5	89.900	-0.210	-1.050	1.790
2020/01/31 07:09:44.6	89.940	-0.170	-1.090	1.720
2020/01/31 07:09:44.7	89.970	-0.130	-1.120	1.650
2020/01/31 07:09:44.8	90.010	-0.090	-1.140	1.570
2020/01/31 07:09:44.9	90.040	-0.060	-1.160	1.500
2020/01/31 07:09:45.0	90.080	-0.020	-1.170	1.430
2020/01/31 07:09:45.1	90.110	0.010	-1.180	1.350
2020/01/31 07:09:45.2	90.140	0.050	-1.180	1.270
2020/01/31 07:09:45.3	90.150	0.080	-1.170	1.190
2020/01/31 07:09:45.4	90.170	0.110	-1.160	1.110
2020/01/31 07:09:45.5	90.200	0.150	-1.140	1.040
2020/01/31 07:09:45.6	90.220	0.180	-1.120	0.960
2020/01/31 07:09:45.7	90.240	0.210	-1.090	0.890
2020/01/31 07:09:45.8	90.250	0.240	-1.060	0.810
2020/01/31 07:09:45.9	90.270	0.260	-1.020	0.740
2020/01/31 07:09:46.0	90.280	0.290	-0.980	0.670
2020/01/31 07:09:46.1	90.280	0.320	-0.930	0.600
2020/01/31 07:09:46.2	90.290	0.340	-0.890	0.530
2020/01/31 07:09:46.3	90.300	0.360	-0.830	0.460
2020/01/31 07:09:46.4	90.300	0.390	-0.780	0.390
2020/01/31 07:09:46.5	90.290	0.410	-0.720	0.330
2020/01/31 07:09:46.6	90.290	0.430	-0.660	0.270
2020/01/31 07:09:46.7	90.280	0.450	-0.600	0.210
2020/01/31 07:09:46.8	90.270	0.470	-0.540	0.160
2020/01/31 07:09:46.9	90.260	0.490	-0.480	0.110
2020/01/31 07:09:47.0	90.240	0.510	-0.420	0.060
2020/01/31 07:09:47.1	90.220	0.520	-0.360	0.020
2020/01/31 07:09:47.2	90.200	0.540	-0.300	-0.030
2020/01/31 07:09:47.3	90.200	0.550	-0.240	-0.060
2020/01/31 07:09:47.4	90.170	0.570	-0.180	-0.100
2020/01/31 07:09:47.5	90.140	0.580	-0.120	-0.130
2020/01/31 07:09:47.6	90.110	0.600	-0.070	-0.160
2020/01/31 07:09:47.7	90.080	0.610	-0.020	-0.180
2020/01/31 07:09:47.8	90.050	0.620	0.030	-0.200
2020/01/31 07:09:47.9	90.010	0.630	0.070	-0.220
2020/01/31 07:09:48.0	89.980	0.640	0.120	-0.230
2020/01/31 07:09:48.1	89.940	0.640	0.150	-0.240
2020/01/31 07:09:48.2	89.900	0.650	0.190	-0.250
2020/01/31 07:09:48.3	89.860	0.660	0.220	-0.250
2020/01/31 07:09:48.4	89.830	0.660	0.240	-0.260
2020/01/31 07:09:48.5	89.790	0.660	0.260	-0.260
2020/01/31 07:09:48.6	89.750	0.660	0.270	-0.260
2020/01/31 07:09:48.7	89.710	0.660	0.280	-0.260
2020/01/31 07:09:48.8	89.670	0.660	0.290	-0.250
2020/01/31 07:09:48.9	89.630	0.660	0.280	-0.250
2020/01/31 07:09:49.0	89.590	0.650	0.280	-0.240
2020/01/31 07:09:49.1	89.560	0.650	0.270	-0.240
2020/01/31 07:09:49.2	89.520	0.640	0.260	-0.230
2020/01/31 07:09:49.3	89.490	0.630	0.230	-0.230
2020/01/31 07:09:49.4	89.450	0.620	0.210	-0.220
2020/01/31 07:09:49.5	89.420	0.610	0.190	-0.220
2020/01/31 07:09:49.6	89.390	0.590	0.160	-0.210
2020/01/31 07:09:49.7	89.370	0.580	0.140	-0.210
2020/01/31 07:09:49.8	89.340	0.560	0.110	-0.200
2020/01/31 07:09:49.9	89.320	0.540	0.080	-0.200
2020/01/31 07:09:50.0	89.300	0.520	0.040	-0.200
2020/01/31 07:09:50.1	89.290	0.490	0.010	-0.200
2020/01/31 07:09:50.2	89.270	0.470	-0.020	-0.200
2020/01/31 07:09:50.3	89.260	0.440	-0.050	-0.200
2020/01/31 07:09:50.4	89.260	0.410	-0.080	-0.200
2020/01/31 07:09:50.5	89.260	0.380	-0.110	-0.200
2020/01/31 07:09:50.6	89.260	0.350	-0.130	-0.210
2020/01/31 07:09:50.7	89.270	0.320	-0.160	-0.210
2020/01/31 07:09:50.8	89.290	0.280	-0.180	-0.220
2020/01/31 07:09:50.9	89.300	0.250	-0.200	-0.230
2020/01/31 07:09:51.0	89.330	0.210	-0.210	-0.230
2020/01/31 07:09:51.1	89.350	0.180	-0.230	-0.240
2020/01/31 07:09:51.2	89.390	0.140	-0.240	-0.250
2020/01/31 07:09:51.3	89.410	0.100	-0.250	-0.260
2020/01/31 07:09:51.4	89.450	0.070	-0.260	-0.270
2020/01/31 07:09:51.5	89.500	0.030	-0.260	-0.270
2020/01/31 07:09:51.6	89.550	-0.010	-0.260	-0.280
2020/01/31 07:09:51.7	89.600	-0.040	-0.260	-0.280
2020/01/31 07:09:51.8	89.650	-0.080	-0.250	-0.280
2020/01/31 07:09:51.9	89.710	-0.110	-0.240	-0.280
2020/01/31 07:09:52.0	89.760	-0.140	-0.230	-0.270
2020/01/31 07:09:52.1	89.830	-0.180	-0.220	-0.260
2020/01/31 07:09:52.2	89.890	-0.210	-0.210	-0.250
2020/01/31 07:09:52.3	89.950	-0.240	-0.190	-0.230
2020/01/31 07:09:52.4	90.020	-0.270	-0.170	-0.210
2020/01/31 07:09:52.5	90.080	-0.290	-0.150	-0.180
2020/01/31 07:09:52.6	90.140	-0.320	-0.120	-0.150
2020/01/31 07:09:52.7	90.200	-0.340	-0.100	-0.110
2020/01/31 07:09:52.8	90.260	-0.360	-0.070	-0.070
2020/01/31 07:09:52.9	90.320	-0.390	-0.050	-0.020
2020/01/31 07:09:53.0	90.380	-0.410	-0.020	0.040
2020/01/31 07:09:53.1	90.430	-0.420	0.010	0.100
2020/01/31 07:09:53.2	90.480	-0.440	0.040	0.160
2020/01/31 07:09:53.3	90.520	-0.460	0.070	0.230
2020/01/31 07:09:53.4	90.560	-0.470	0.100	0.310
2020/01/31 07:09:53.5	90.600	-0.480	0.140	0.390
2020/01/31 07:09:53.6	90.640	-0.490	0.170	0.480
2020/01/31 07:09:53.7	90.680	-0.510	0.200	0.570
2020/01/31 07:09:53.8	90.710	-0.510	0.230	0.660
2020/01/31 07:09:53.9	90.740	-0.520	0.260	0.760
2020/01/31 07:09:54.0	90.760	-0.530	0.290	0.860
2020/01/31 07:09:54.1	90.780	-0.540	0.320	0.960
2020/01/31 07:09:54.2	90.800	-0.540	0.340	1.070
2020/01/31 07:09:54.3	90.820	-0.550	0.360	1.170
2020/01/31 07:09:54.4	90.830	-0.550	0.380	1.280
2020/01/31 07:09:54.5	90.840	-0.560	0.400	1.400
2020/01/31 07:09:54.6	90.840	-0.560	0.420	1.510
2020/01/31 07:09:54.7	90.840	-0.560	0.430	1.630
2020/01/31 07:09:54.8	90.840	-0.560	0.430	1.740
2020/01/31 07:09:54.9	90.840	-0.570	0.440	1.860
2020/01/31 07:09:55.0	90.830	-0.570	0.440	1.980
2020/01/31 07:09:55.1	90.820	-0.560	0.430	2.100
2020/01/31 07:09:55.2	90.810	-0.560	0.430	2.220
2020/01/31 07:09:55.3	90.800	-0.560	0.410	2.340
2020/01/31 07:09:55.4	90.780	-0.560	0.390	2.450
2020/01/31 07:09:55.5	90.770	-0.550	0.370	2.560
2020/01/31 07:09:55.6	90.750	-0.550	0.350	2.670
2020/01/31 07:09:55.7	90.730	-0.540	0.320	2.780
2020/01/31 07:09:55.8	90.710	-0.530	0.280	2.890
2020/01/31 07:09:55.9	90.690	-0.520	0.240	2.990
2020/01/31 07:09:56.0	90.670	-0.510	0.200	3.080
2020/01/31 07:09:56.1	90.650	-0.500	0.160	3.170
2020/01/31 07:09:56.2	90.630	-0.480	0.110	3.260
2020/01/31 07:09:56.3	90.600	-0.470	0.060	3.340
2020/01/31 07:09:56.4	90.580	-0.450	0.000	3.420
2020/01/31 07:09:56.5	90.560	-0.430	-0.060	3.490
2020/01/31 07:09:56.6	90.540	-0.410	-0.120	3.550
2020/01/31 07:09:56.7	90.510	-0.390	-0.180	3.610
2020/01/31 07:09:56.8	90.490	-0.360	-0.240	3.670
2020/01/31 07:09:56.9	90.470	-0.340	-0.300	3.710
2020/01/31 07:09:57.0	90.450	-0.310	-0.360	3.750
2020/01/31 07:09:57.1	90.420	-0.290	-0.420	3.780
2020/01/31 07:09:57.2	90.400	-0.260	-0.480	3.810
2020/01/31 07:09:57.3	90.370	-0.230	-0.540	3.830
2020/01/31 07:09:57.4	90.350	-0.200	-0.590	3.840
2020/01/31 07:09:57.5	90.320	-0.160	-0.650	3.840
2020/01/31 07:09:57.6	90.300	-0.130	-0.690	3.840
2020/01/31 07:09:57.7	90.280	-0.100	-0.740	3.830
2020/01/31 07:09:57.8	90.250	-0.070	-0.780	3.810
2020/01/31 07:09:57.9	90.230	-0.040	-0.820	3.780
2020/01/31 07:09:58.0	90.210	-0.010	-0.850	3.740
2020/01/31 07:09:58.1	90.180	0.020	-0.870	3.690
2020/01/31 07:09:58.2	90.160	0.050	-0.890	3.640
2020/01/31 07:09:58.3	90.140	0.080	-0.910	3.570
2020/01/31 07:09:58.4	90.120	0.110	-0.910	3.500
2020/01/31 07:09:58.5	90.100	0.130	-0.910	3.420
2020/01/31 07:09:58.6	90.080	0.160	-0.910	3.330
2020/01/31 07:09:58.7	90.060	0.180	-0.900	3.240
2020/01/31 07:09:58.8	90.040	0.200	-0.880	3.140
2020/01/31 07:09:58.9	90.020	0.210	-0.860	3.030
2020/01/31 07:09:59.0	90.000	0.230	-0.830	2.910
2020/01/31 07:09:59.1	89.990	0.240	-0.800	2.790
2020/01/31 07:09:59.2	89.970	0.250	-0.760	2.660
2020/01/31 07:09:59.3	89.970	0.260	-0.720	2.520
2020/01/31 07:09:59.4	89.960	0.270	-0.670	2.380
2020/01/31 07:09:59.5	89.950	0.280	-0.630	2.230
2020/01/31 07:09:59.6	89.940	0.280	-0.580	2.080
2020/01/31 07:09:59.7	89.930	0.280	-0.530	1.930
2020/01/31 07:09:59.8	89.930	0.280	-0.470	1.770
2020/01/31 07:09:59.9	89.920	0.280	-0.420	1.610
2020/01/31 07:10:00.0	89.920	0.280	-0.370	1.450
2020/01/31 07:10:00.1	89.920	0.270	-0.320	1.280
2020/01/31 07:10:00.2	89.920	0.270	-0.270	1.110
2020/01/31 07:10:00.3	89.930	0.270	-0.220	0.940
2020/01/31 07:10:00.4	89.930	0.260	-0.170	0.770
2020/01/31 07:10:00.5	89.940	0.260	-0.130	0.600
2020/01/31 07:10:00.6	89.950	0.250	-0.090	0.430
2020/01/31 07:10:00.7	89.960	0.250	-0.060	0.260
2020/01/31 07:10:00.8	89.970	0.240	-0.030	0.090
2020/01/31 07:10:00.9	89.980	0.240	-0.000	-0.080
2020/01/31 07:10:01.0	90.000	0.240	0.020	-0.250
2020/01/31 07:10:01.1	90.020	0.230	0.030	-0.410
2020/01/31 07:10:01.2	90.040	0.230	0.040	-0.570
2020/01/31 07:10:01.3	90.070	0.230	0.050	-0.730
2020/01/31 07:10:01.4	90.100	0.230	0.050	-0.880
2020/01/31 07:10:01.5	90.120	0.240	0.050	-1.030
2020/01/31 07:10:01.6	90.150	0.240	0.040	-1.180
2020/01/31 07:10:01.7	90.180	0.250	0.020	-1.320
2020/01/31 07:10:01.8	90.210	0.250	0.010	-1.450
2020/01/31 07:10:01.9	90.250	0.260	-0.020	-1.580
2020/01/31 07:10:02.0	90.280	0.270	-0.040	-1.710
2020/01/31 07:10:02.1	90.310	0.280	-0.070	-1.830
2020/01/31 07:10:02.2	90.350	0.290	-0.110	-1.940
2020/01/31 07:10:02.3	90.390	0.310	-0.140	-2.040
2020/01/31 07:10:02.4	90.430	0.320	-0.180	-2.140
2020/01/31 07:10:02.5	90.460	0.330	-0.220	-2.230
2020/01/31 07:10:02.6	90.490	0.350	-0.260	-2.310
2020/01/31 07:10:02.7	90.530	0.360	-0.300	-2.390
2020/01/31 07:10:02.8	90.560	0.370	-0.340	-2.460
2020/01/31 07:10:02.9	90.590	0.380	-0.370	-2.510
2020/01/31 07:10:03.0	90.620	0.390	-0.410	-2.560
2020/01/31 07:10:03.1	90.650	0.400	-0.450	-2.610
2020/01/31 07:10:03.2	90.680	0.410	-0.480	-2.640
2020/01/31 07:10:03.3	90.700	0.420	-0.510	-2.670
2020/01/31 07:10:03.4	90.720	0.430	-0.530	-2.680
2020/01/31 07:10:03.5	90.740	0.430	-0.560	-2.690
2020/01/31 07:10:03.6	90.760	0.430	-0.570	-2.690
2020/01/31 07:10:03.7	90.770	0.430	-0.580	-2.680
2020/01/31 07:10:03.8	90.790	0.420	-0.590	-2.670
2020/01/31 07:10:03.9	90.800	0.410	-0.590	-2.640
2020/01/31 07:10:04.0	90.810	0.400	-0.590	-2.610
2020/01/31 07:10:04.1	90.820	0.390	-0.580	-2.570
2020/01/31 07:10:04.2	90.820	0.370	-0.560	-2.520
2020/01/31 07:10:04.3	90.820	0.350	-0.530	-2.460
2020/01/31 07:10:04.4	90.820	0.330	-0.510	-2.390
2020/01/31 07:10:04.5	90.820	0.300	-0.470	-2.320
2020/01/31 07:10:04.6	90.820	0.270	-0.430	-2.240
2020/01/31 07:10:04.7	90.810	0.240	-0.380	-2.150
2020/01/31 07:10:04.8	90.810	0.200	-0.330	-2.050
2020/01/31 07:10:04.9	90.800	0.170	-0.280	-1.950
2020/01/31 07:10:05.0	90.790	0.130	-0.210	-1.840
2020/01/31 07:10:05.1	90.780	0.090	-0.150	-1.730
2020/01/31 07:10:05.2	90.770	0.040	-0.080	-1.610
2020/01/31 07:10:05.3	90.750	-0.000	-0.010	-1.480
2020/01/31 07:10:05.4	90.740	-0.050	0.060	-1.350
2020/01/31 07:10:05.5	90.720	-0.090	0.140	-1.210
2020/01/31 07:10:05.6	90.700	-0.140	0.220	-1.060
2020/01/31 07:10:05.7	90.680	-0.190	0.290	-0.920
2020/01/31 07:10:05.8	90.660	-0.230	0.370	-0.770
2020/01/31 07:10:05.9	90.630	-0.280	0.450	-0.610
2020/01/31 07:10:06.0	90.610	-0.330	0.520	-0.460
2020/01/31 07:10:06.1	90.580	-0.370	0.590	-0.300
2020/01/31 07:10:06.2	90.560	-0.410	0.660	-0.140
2020/01/31 07:10:06.3	90.530	-0.450	0.730	0.020
2020/01/31 07:10:06.4	90.500	-0.490	0.790	0.180
2020/01/31 07:10:06.5	90.470	-0.530	0.850	0.350
2020/01/31 07:10:06.6	90.450	-0.560	0.900	0.510
2020/01/31 07:10:06.7	90.420	-0.590	0.940	0.660
2020/01/31 07:10:06.8	90.400	-0.620	0.980	0.820
2020/01/31 07:10:06.9	90.380	-0.640	1.000	0.970
2020/01/31 07:10:07.0	90.350	-0.660	1.020	1.120
2020/01/31 07:10:07.1	90.340	-0.680	1.040	1.270
2020/01/31 07:10:07.2	90.320	-0.690	1.040	1.410
2020/01/31 07:10:07.3	90.330	-0.690	1.030	1.540
2020/01/31 07:10:07.4	90.320	-0.700	1.010	1.670
2020/01/31 07:10:07.5	90.300	-0.700	0.990	1.790
2020/01/31 07:10:07.6	90.300	-0.690	0.960	1.910
2020/01/31 07:10:07.7	90.290	-0.680	0.910	2.020
2020/01/31 07:10:07.8	90.290	-0.660	0.860	2.130
2020/01/31 07:10:07.9	90.290	-0.640	0.800	2.230
2020/01/31 07:10:08.0	90.290	-0.620	0.740	2.330
2020/01/31 07:10:08.1	90.290	-0.590	0.660	2.420
2020/01/31 07:10:08.2	90.290	-0.560	0.580	2.500
2020/01/31 07:10:08.3	90.290	-0.520	0.490	2.580
2020/01/31 07:10:08.4	90.300	-0.490	0.400	2.660
2020/01/31 07:10:08.5	90.310	-0.440	0.300	2.730
2020/01/31 07:10:08.6	90.320	-0.400	0.200	2.800
2020/01/31 07:10:08.7	90.330	-0.350	0.090	2.860
2020/01/31 07:10:08.8	90.350	-0.300	-0.020	2.920
2020/01/31 07:10:08.9	90.360	-0.240	-0.130	2.980
2020/01/31 07:10:09.0	90.380	-0.190	-0.240	3.030
2020/01/31 07:10:09.1	90.390	-0.130	-0.350	3.080
2020/01/31 07:10:09.2	90.410	-0.070	-0.460	3.120
2020/01/31 07:10:09.3	90.420	-0.010	-0.570	3.160
2020/01/31 07:10:09.4	90.440	0.040	-0.680	3.200
2020/01/31 07:10:09.5	90.460	0.100	-0.780	3.230
2020/01/31 07:10:09.6	90.480	0.160	-0.880	3.270
2020/01/31 07:10:09.7	90.500	0.220	-0.980	3.300
2020/01/31 07:10:09.8	90.520	0.280	-1.070	3.320
2020/01/31 07:10:09.9	90.540	0.330	-1.160	3.350
2020/01/31 07:10:10.0	90.560	0.390	-1.240	3.370
2020/01/31 07:10:10.1	90.580	0.440	-1.310	3.380
2020/01/31 07:10:10.2	90.600	0.480	-1.380	3.400
2020/01/31 07:10:10.3	90.600	0.530	-1.430	3.410
2020/01/31 07:10:10.4	90.620	0.570	-1.480	3.410
2020/01/31 07:10:10.5	90.640	0.610	-1.520	3.420
2020/01/31 07:10:10.6	90.660	0.640	-1.560	3.410
2020/01/31 07:10:10.7	90.680	0.670	-1.580	3.410
2020/01/31 07:10:10.8	90.690	0.700	-1.600	3.400
2020/01/31 07:10:10.9	90.710	0.720	-1.600	3.390
2020/01/31 07:10:11.0	90.730	0.740	-1.600	3.380
2020/01/31 07:10:11.1	90.740	0.750	-1.590	3.360
2020/01/31 07:10:11.2	90.750	0.760	-1.560	3.340
2020/01/31 07:10:11.3	90.760	0.760	-1.530	3.300
2020/01/31 07:10:11.4	90.770	0.760	-1.490	3.280
2020/01/31 07:10:11.5	90.780	0.750	-1.440	3.240
2020/01/31 07:10:11.6	90.790	0.740	-1.380	3.210
2020/01/31 07:10:11.7	90.800	0.720	-1.310	3.170
2020/01/31 07:10:11.8	90.810	0.700	-1.230	3.130
2020/01/31 07:10:11.9	90.810	0.670	-1.150	3.080
2020/01/31 07:10:12.0	90.820	0.640	-1.060	3.030
2020/01/31 07:10:12.1	90.820	0.600	-0.960	2.980
2020/01/31 07:10:12.2	90.820	0.560	-0.860	2.930
2020/01/31 07:10:12.3	90.820	0.520	-0.760	2.870
2020/01/31 07:10:12.4	90.820	0.470	-0.640	2.810
2020/01/31 07:10:12.5	90.810	0.420	-0.530	2.750
2020/01/31 07:10:12.6	90.810	0.370	-0.410	2.680
2020/01/31 07:10:12.7	90.800	0.320	-0.300	2.610
2020/01/31 07:10:12.8	90.800	0.260	-0.180	2.540
2020/01/31 07:10:12.9	90.790	0.200	-0.060	2.470
2020/01/31 07:10:13.0	90.780	0.140	0.060	2.390
2020/01/31 07:10:13.1	90.770	0.080	0.180	2.320
2020/01/31 07:10:13.2	90.760	0.020	0.300	2.230
2020/01/31 07:10:13.3	90.760	-0.040	0.420	2.150
2020/01/31 07:10:13.4	90.750	-0.100	0.530	2.060
2020/01/31 07:10:13.5	90.740	-0.160	0.630	1.970
2020/01/31 07:10:13.6	90.720	-0.220	0.730	1.880
2020/01/31 07:10:13.7	90.710	-0.270	0.830	1.790
2020/01/31 07:10:13.8	90.700	-0.330	0.910	1.690
2020/01/31 07:10:13.9	90.690	-0.380	0.990	1.600
2020/01/31 07:10:14.0	90.680	-0.430	1.060	1.500
2020/01/31 07:10:14.1	90.670	-0.480	1.130	1.390
2020/01/31 07:10:14.2	90.660	-0.520	1.180	1.290
2020/01/31 07:10:14.3	90.660	-0.560	1.220	1.180
2020/01/31 07:10:14.4	90.650	-0.600	1.250	1.080
2020/01/31 07:10:14.5	90.640	-0.630	1.280	0.970
2020/01/31 07:10:14.6	90.630	-0.660	1.290	0.860
2020/01/31 07:10:14.7	90.620	-0.680	1.300	0.750
2020/01/31 07:10:14.8	90.620	-0.700	1.290	0.640
2020/01/31 07:10:14.9	90.610	-0.720	1.280	0.530
2020/01/31 07:10:15.0	90.600	-0.730	1.250	0.420
2020/01/31 07:10:15.1	90.600	-0.740	1.220	0.320
2020/01/31 07:10:15.2	90.590	-0.740	1.180	0.210
2020/01/31 07:10:15.3	90.590	-0.740	1.130	0.100
2020/01/31 07:10:15.4	90.590	-0.740	1.070	0.000
2020/01/31 07:10:15.5	90.580	-0.730	1.000	-0.100
2020/01/31 07:10:15.6	90.570	-0.720	0.930	-0.200
2020/01/31 07:10:15.7	90.570	-0.710	0.850	-0.290
2020/01/31 07:10:15.8	90.560	-0.690	0.770	-0.380
2020/01/31 07:10:15.9	90.550	-0.670	0.680	-0.470
2020/01/31 07:10:16.0	90.550	-0.640	0.590	-0.560
2020/01/31 07:10:16.1	90.540	-0.620	0.500	-0.640
2020/01/31 07:10:16.2	90.530	-0.590	0.400	-0.720
2020/01/31 07:10:16.3	90.520	-0.560	0.300	-0.800
2020/01/31 07:10:16.4	90.510	-0.530	0.190	-0.870
2020/01/31 07:10:16.5	90.500	-0.490	0.090	-0.940
2020/01/31 07:10:16.6	90.490	-0.460	-0.010	-1.010
2020/01/31 07:10:16.7	90.480	-0.420	-0.110	-1.070
2020/01/31 07:10:16.8	90.480	-0.380	-0.210	-1.130
2020/01/31 07:10:16.9	90.470	-0.340	-0.310	-1.180
2020/01/31 07:10:17.0	90.460	-0.300	-0.410	-1.230
2020/01/31 07:10:17.1	90.450	-0.260	-0.500	-1.280
2020/01/31 07:10:17.2	90.450	-0.220	-0.590	-1.330
2020/01/31 07:10:17.3	90.440	-0.180	-0.680	-1.370
2020/01/31 07:10:17.4	90.440	-0.140	-0.760	-1.400
2020/01/31 07:10:17.5	90.430	-0.100	-0.840	-1.440
2020/01/31 07:10:17.6	90.430	-0.060	-0.920	-1.460
2020/01/31 07:10:17.7	90.430	-0.020	-0.990	-1.490
2020/01/31 07:10:17.8	90.420	0.020	-1.050	-1.510
2020/01/31 07:10:17.9	90.420	0.050	-1.110	-1.530
2020/01/31 07:10:18.0	90.420	0.090	-1.160	-1.540
2020/01/31 07:10:18.1	90.420	0.130	-1.210	-1.550
2020/01/31 07:10:18.2	90.420	0.160	-1.250	-1.550
2020/01/31 07:10:18.3	90.420	0.200	-1.290	-1.550
2020/01/31 07:10:18.4	90.420	0.230	-1.320	-1.550
2020/01/31 07:10:18.5	90.420	0.260	-1.340	-1.540
2020/01/31 07:10:18.6	90.420	0.290	-1.360	-1.530
2020/01/31 07:10:18.7	90.420	0.320	-1.370	-1.520
2020/01/31 07:10:18.8	90.430	0.350	-1.380	-1.500
2020/01/31 07:10:18.9	90.430	0.380	-1.380	-1.480
2020/01/31 07:10:19.0	90.430	0.400	-1.370	-1.450
2020/01/31 07:10:19.1	90.430	0.420	-1.360	-1.420
2020/01/31 07:10:19.2	90.430	0.440	-1.340	-1.380
2020/01/31 07:10:19.3	90.430	0.460	-1.310	-1.340
2020/01/31 07:10:19.4	90.430	0.480	-1.280	-1.300
2020/01/31 07:10:19.5	90.430	0.490	-1.240	-1.250
2020/01/31 07:10:19.6	90.430	0.510	-1.200	-1.200
2020/01/31 07:10:19.7	90.430	0.520	-1.160	-1.140
2020/01/31 07:10:19.8	90.430	0.530	-1.110	-1.080
2020/01/31 07:10:19.9	90.430	0.530	-1.050	-1.020
2020/01/31 07:10:20.0	90.430	0.540	-0.990	-0.950
2020/01/31 07:10:20.1	90.430	0.540	-0.930	-0.880
2020/01/31 07:10:20.2	90.430	0.540	-0.860	-0.800
2020/01/31 07:10:20.3	90.420	0.540	-0.780	-0.720
2020/01/31 07:10:20.4	90.420	0.540	-0.710	-0.640
2020/01/31 07:10:20.5	90.420	0.540	-0.630	-0.560
2020/01/31 07:10:20.6	90.420	0.530	-0.550	-0.470
2020/01/31 07:10:20.7	90.420	0.520	-0.470	-0.370
2020/01/31 07:10:20.8	90.420	0.520	-0.390	-0.280
2020/01/31 07:10:20.9	90.420	0.500	-0.310	-0.180
2020/01/31 07:10:21.0	90.420	0.490	-0.230	-0.070
2020/01/31 07:10:21.1	90.420	0.480	-0.150	0.040
2020/01/31 07:10:21.2	90.410	0.460	-0.070	0.150
2020/01/31 07:10:21.3	90.410	0.450	0.020	0.260
2020/01/31 07:10:21.4	90.400	0.430	0.090	0.380
2020/01/31 07:10:21.5	90.390	0.410	0.170	0.500
2020/01/31 07:10:21.6	90.380	0.390	0.240	0.620
2020/01/31 07:10:21.7	90.370	0.370	0.300	0.740
2020/01/31 07:10:21.8	90.360	0.350	0.370	0.870
2020/01/31 07:10:21.9	90.340	0.330	0.430	0.990
2020/01/31 07:10:22.0	90.320	0.310	0.480	1.120
2020/01/31 07:10:22.1	90.300	0.290	0.530	1.240
2020/01/31 07:10:22.2	90.280	0.270	0.580	1.370
2020/01/31 07:10:22.3	90.280	0.240	0.620	1.500
2020/01/31 07:10:22.4	90.250	0.220	0.660	1.620
2020/01/31 07:10:22.5	90.220	0.200	0.690	1.740
2020/01/31 07:10:22.6	90.190	0.180	0.710	1.850
2020/01/31 07:10:22.7	90.160	0.160	0.730	1.970
2020/01/31 07:10:22.8	90.130	0.140	0.750	2.080
2020/01/31 07:10:22.9	90.100	0.120	0.760	2.180
2020/01/31 07:10:23.0	90.070	0.100	0.770	2.280
2020/01/31 07:10:23.1	90.040	0.080	0.770	2.370
2020/01/31 07:10:23.2	90.010	0.060	0.760	2.460
2020/01/31 07:10:23.3	89.980	0.040	0.750	2.540
2020/01/31 07:10:23.4	89.950	0.030	0.740	2.620
2020/01/31 07:10:23.5	89.930	0.010	0.730	2.690
2020/01/31 07:10:23.6	89.900	-0.000	0.710	2.750
2020/01/31 07:10:23.7	89.880	-0.020	0.690	2.800
2020/01/31 07:10:23.8	89.850	-0.030	0.670	2.850
2020/01/31 07:10:23.9	89.830	-0.040	0.640	2.890
2020/01/31 07:10:24.0	89.820	-0.050	0.610	2.930
2020/01/31 07:10:24.1	89.800	-0.060	0.580	2.960
2020/01/31 07:10:24.2	89.780	-0.070	0.540	2.980
2020/01/31 07:10:24.3	89.780	-0.070	0.510	3.000
2020/01/31 07:10:24.4	89.770	-0.080	0.470	3.010
2020/01/31 07:10:24.5	89.760	-0.080	0.420	3.010
2020/01/31 07:10:24.6	89.750	-0.090	0.380	3.010
2020/01/31 07:10:24.7	89.750	-0.090	0.330	3.010
2020/01/31 07:10:24.8	89.750	-0.090	0.280	3.000
2020/01/31 07:10:24.9	89.750	-0.090	0.230	2.990
2020/01/31 07:10:25.0	89.760	-0.090	0.180	2.970
2020/01/31 07:10:25.1	89.760	-0.080	0.130	2.950
2020/01/31 07:10:25.2	89.770	-0.080	0.070	2.920
2020/01/31 07:10:25.3	89.790	-0.080	0.020	2.890
2020/01/31 07:10:25.4	89.800	-0.070	-0.040	2.860
2020/01/31 07:10:25.5	89.820	-0.070	-0.090	2.830
2020/01/31 07:10:25.6	89.840	-0.060	-0.150	2.790
2020/01/31 07:10:25.7	89.850	-0.050	-0.210	2.750
2020/01/31 07:10:25.8	89.880	-0.050	-0.260	2.710
2020/01/31 07:10:25.9	89.900	-0.040	-0.320	2.670
2020/01/31 07:10:26.0	89.920	-0.030	-0.370	2.630
2020/01/31 07:10:26.1	89.950	-0.020	-0.420	2.580
2020/01/31 07:10:26.2	89.980	-0.020	-0.470	2.540
2020/01/31 07:10:26.3	90.010	-0.010	-0.520	2.490
2020/01/31 07:10:26.4	90.040	0.000	-0.570	2.440
2020/01/31 07:10:26.5	90.070	0.010	-0.610	2.390
2020/01/31 07:10:26.6	90.100	0.020	-0.650	2.340
2020/01/31 07:10:26.7	90.140	0.020	-0.690	2.290
2020/01/31 07:10:26.8	90.170	0.030	-0.720	2.240
2020/01/31 07:10:26.9	90.200	0.040	-0.750	2.190
2020/01/31 07:10:27.0	90.240	0.040	-0.770	2.140
2020/01/31 07:10:27.1	90.270	0.050	-0.790	2.090
2020/01/31 07:10:27.2	90.310	0.050	-0.810	2.040
2020/01/31 07:10:27.3	90.330	0.050	-0.820	1.980
2020/01/31 07:10:27.4	90.370	0.050	-0.830	1.930
2020/01/31 07:10:27.5	90.400	0.050	-0.830	1.870
2020/01/31 07:10:27.6	90.430	0.050	-0.820	1.820
2020/01/31 07:10:27.7	90.450	0.050	-0.810	1.770
2020/01/31 07:10:27.8	90.480	0.040	-0.800	1.720
2020/01/31 07:10:27.9	90.500	0.040	-0.780	1.660
2020/01/31 07:10:28.0	90.520	0.030	-0.750	1.610
2020/01/31 07:10:28.1	90.540	0.020	-0.720	1.560
2020/01/31 07:10:28.2	90.560	0.000	-0.680	1.500
2020/01/31 07:10:28.3	90.560	-0.010	-0.640	1.450
2020/01/31 07:10:28.4	90.570	-0.030	-0.600	1.400
2020/01/31 07:10:28.5	90.570	-0.040	-0.550	1.340
2020/01/31 07:10:28.6	90.580	-0.060	-0.500	1.290
2020/01/31 07:10:28.7	90.570	-0.080	-0.440	1.240
2020/01/31 07:10:28.8	90.570	-0.110	-0.380	1.180
2020/01/31 07:10:28.9	90.570	-0.130	-0.320	1.130
2020/01/31 07:10:29.0	90.560	-0.150	-0.260	1.080
2020/01/31 07:10:29.1	90.550	-0.180	-0.200	1.030
2020/01/31 07:10:29.2	90.530	-0.210	-0.140	0.980
2020/01/31 07:10:29.3	90.520	-0.230	-0.070	0.920
2020/01/31 07:10:29.4	90.500	-0.260	-0.010	0.870
2020/01/31 07:10:29.5	90.480	-0.280	0.050	0.820
2020/01/31 07:10:29.6	90.460	-0.310	0.100	0.780
2020/01/31 07:10:29.7	90.440	-0.330	0.160	0.730
2020/01/31 07:10:29.8	90.410	-0.350	0.210	0.680
2020/01/31 07:10:29.9	90.390	-0.380	0.250	0.640
2020/01/31 07:10:30.0	90.370	-0.400	0.300	0.590
2020/01/31 07:10:30.1	90.340	-0.410	0.330	0.550
2020/01/31 07:10:30.2	90.320	-0.430	0.370	0.500
2020/01/31 07:10:30.3	90.300	-0.440	0.390	0.460
2020/01/31 07:10:30.4	90.280	-0.450	0.410	0.410
2020/01/31 07:10:30.5	90.260	-0.460	0.430	0.370
2020/01/31 07:10:30.6	90.240	-0.460	0.430	0.320
2020/01/31 07:10:30.7	90.220	-0.470	0.430	0.280
2020/01/31 07:10:30.8	90.200	-0.460	0.430	0.240
2020/01/31 07:10:30.9	90.180	-0.460	0.420	0.190
2020/01/31 07:10:31.0	90.170	-0.450	0.400	0.150
2020/01/31 07:10:31.1	90.160	-0.440	0.380	0.100
2020/01/31 07:10:31.2	90.150	-0.420	0.350	0.060
2020/01/31 07:10:31.3	90.150	-0.410	0.310	0.020
2020/01/31 07:10:31.4	90.140	-0.390	0.280	-0.020
2020/01/31 07:10:31.5	90.130	-0.360	0.230	-0.060
2020/01/31 07:10:31.6	90.130	-0.330	0.190	-0.110
2020/01/31 07:10:31.7	90.120	-0.310	0.140	-0.150
2020/01/31 07:10:31.8	90.120	-0.270	0.090	-0.190
2020/01/31 07:10:31.9	90.120	-0.240	0.030	-0.230
2020/01/31 07:10:32.0	90.120	-0.210	-0.020	-0.260
2020/01/31 07:10:32.1	90.130	-0.170	-0.080	-0.300
2020/01/31 07:10:32.2	90.130	-0.130	-0.140	-0.340
2020/01/31 07:10:32.3	90.130	-0.100	-0.200	-0.380
2020/01/31 07:10:32.4	90.140	-0.060	-0.250	-0.420
2020/01/31 07:10:32.5	90.140	-0.020	-0.310	-0.450
2020/01/31 07:10:32.6	90.160	0.010	-0.360	-0.490
2020/01/31 07:10:32.7	90.170	0.050	-0.410	-0.520
2020/01/31 07:10:32.8	90.180	0.090	-0.450	-0.550
2020/01/31 07:10:32.9	90.190	0.120	-0.500	-0.580
2020/01/31 07:10:33.0	90.210	0.150	-0.540	-0.610
2020/01/31 07:10:33.1	90.230	0.180	-0.570	-0.640
2020/01/31 07:10:33.2	90.240	0.210	-0.600	-0.660
2020/01/31 07:10:33.3	90.260	0.230	-0.630	-0.680
2020/01/31 07:10:33.4	90.280	0.260	-0.650	-0.700
2020/01/31 07:10:33.5	90.300	0.280	-0.670	-0.720
2020/01/31 07:10:33.6	90.320	0.290	-0.690	-0.740
2020/01/31 07:10:33.7	90.330	0.310	-0.700	-0.750
2020/01/31 07:10:33.8	90.350	0.320	-0.700	-0.760
2020/01/31 07:10:33.9	90.370	0.330	-0.710	-0.770
2020/01/31 07:10:34.0	90.390	0.340	-0.700	-0.770
2020/01/31 07:10:34.1	90.400	0.340	-0.700	-0.770
2020/01/31 07:10:34.2	90.420	0.340	-0.690	-0.770
2020/01/31 07:10:34.3	90.430	0.340	-0.670	-0.760
2020/01/31 07:10:34.4	90.450	0.340	-0.650	-0.760
2020/01/31 07:10:34.5	90.470	0.340	-0.630	-0.740
2020/01/31 07:10:34.6	90.480	0.330	-0.610	-0.730
2020/01/31 07:10:34.7	90.500	0.320	-0.580	-0.710
2020/01/31 07:10:34.8	90.510	0.310	-0.550	-0.680
2020/01/31 07:10:34.9	90.520	0.300	-0.520	-0.650
2020/01/31 07:10:35.0	90.540	0.290	-0.490	-0.620
2020/01/31 07:10:35.1	90.550	0.280	-0.450	-0.590
2020/01/31 07:10:35.2	90.560	0.270	-0.420	-0.550
2020/01/31 07:10:35.3	90.570	0.260	-0.380	-0.500
2020/01/31 07:10:35.4	90.580	0.240	-0.340	-0.460
2020/01/31 07:10:35.5	90.590	0.230	-0.310	-0.410
2020/01/31 07:10:35.6	90.590	0.220	-0.270	-0.350
2020/01/31 07:10:35.7	90.600	0.210	-0.230	-0.290
2020/01/31 07:10:35.8	90.610	0.190	-0.190	-0.230
2020/01/31 07:10:35.9	90.610	0.180	-0.160	-0.170
2020/01/31 07:10:36.0	90.620	0.170	-0.120	-0.100
2020/01/31 07:10:36.1	90.620	0.160	-0.090	-0.020
2020/01/31 07:10:36.2	90.620	0.150	-0.050	0.050
2020/01/31 07:10:36.3	90.620	0.150	-0.020	0.130
2020/01/31 07:10:36.4	90.620	0.140	0.010	0.210
2020/01/31 07:10:36.5	90.610	0.130	0.040	0.290
2020/01/31 07:10:36.6	90.610	0.120	0.070	0.380
2020/01/31 07:10:36.7	90.600	0.120	0.090	0.460
2020/01/31 07:10:36.8	90.600	0.110	0.120	0.550
2020/01/31 07:10:36.9	90.590	0.110	0.140	0.640
2020/01/31 07:10:37.0	90.580	0.110	0.150	0.730
2020/01/31 07:10:37.1	90.580	0.100	0.170	0.810
2020/01/31 07:10:37.2	90.570	0.100	0.190	0.910
2020/01/31 07:10:37.3	90.560	0.100	0.200	0.990
2020/01/31 07:10:37.4	90.550	0.100	0.210	1.090
2020/01/31 07:10:37.5	90.550	0.100	0.220	1.180
2020/01/31 07:10:37.6	90.540	0.100	0.220	1.270
2020/01/31 07:10:37.7	90.530	0.100	0.230	1.360
2020/01/31 07:10:37.8	90.530	0.100	0.230	1.450
2020/01/31 07:10:37.9	90.520	0.100	0.230	1.530
2020/01/31 07:10:38.0	90.510	0.100	0.230	1.620
2020/01/31 07:10:38.1	90.510	0.100	0.230	1.700
2020/01/31 07:10:38.2	90.510	0.100	0.220	1.790
2020/01/31 07:10:38.3	90.510	0.100	0.220	1.870
2020/01/31 07:10:38.4	90.510	0.110	0.210	1.950
2020/01/31 07:10:38.5	90.510	0.110	0.190	2.020
2020/01/31 07:10:38.6	90.520	0.110	0.180	2.090
2020/01/31 07:10:38.7	90.520	0.110	0.160	2.160
2020/01/31 07:10:38.8	90.530	0.120	0.140	2.230
2020/01/31 07:10:38.9	90.540	0.120	0.110	2.290
2020/01/31 07:10:39.0	90.550	0.120	0.080	2.350
2020/01/31 07:10:39.1	90.560	0.130	0.050	2.410
2020/01/31 07:10:39.2	90.570	0.130	0.020	2.460
2020/01/31 07:10:39.3	90.600	0.140	-0.020	2.510
2020/01/31 07:10:39.4	90.620	0.140	-0.060	2.560
2020/01/31 07:10:39.5	90.640	0.150	-0.100	2.600
2020/01/31 07:10:39.6	90.660	0.150	-0.140	2.640
2020/01/31 07:10:39.7	90.680	0.160	-0.180	2.670
2020/01/31 07:10:39.8	90.700	0.160	-0.230	2.700
2020/01/31 07:10:39.9	90.730	0.170	-0.270	2.730
2020/01/31 07:10:40.0	90.760	0.180	-0.320	2.750
2020/01/31 07:10:40.1	90.790	0.180	-0.360	2.770
2020/01/31 07:10:40.2	90.820	0.190	-0.410	2.780
2020/01/31 07:10:40.3	90.840	0.190	-0.460	2.790
2020/01/31 07:10:40.4	90.870	0.200	-0.500	2.790
2020/01/31 07:10:40.5	90.900	0.210	-0.540	2.790
2020/01/31 07:10:40.6	90.930	0.210	-0.570	2.780
2020/01/31 07:10:40.7	90.970	0.220	-0.600	2.770
2020/01/31 07:10:40.8	91.000	0.220	-0.630	2.750
2020/01/31 07:10:40.9	91.030	0.220	-0.650	2.730
2020/01/31 07:10:41.0	91.070	0.220	-0.670	2.710
2020/01/31 07:10:41.1	91.100	0.230	-0.680	2.680
2020/01/31 07:10:41.2	91.130	0.230	-0.680	2.650
2020/01/31 07:10:41.3	91.160	0.220	-0.680	2.610
2020/01/31 07:10:41.4	91.190	0.220	-0.670	2.580
2020/01/31 07:10:41.5	91.220	0.220	-0.650	2.540
2020/01/31 07:10:41.6	91.240	0.210	-0.630	2.500
2020/01/31 07:10:41.7	91.260	0.200	-0.600	2.450
2020/01/31 07:10:41.8	91.280	0.190	-0.560	2.410
2020/01/31 07:10:41.9	91.300	0.180	-0.520	2.360
2020/01/31 07:10:42.0	91.320	0.160	-0.470	2.320
2020/01/31 07:10:42.1	91.330	0.150	-0.410	2.270
2020/01/31 07:10:42.2	91.340	0.130	-0.350	2.230
2020/01/31 07:10:42.3	91.350	0.110	-0.280	2.180
2020/01/31 07:10:42.4	91.350	0.080	-0.210	2.140
2020/01/31 07:10:42.5	91.350	0.060	-0.140	2.090
2020/01/31 07:10:42.6	91.350	0.030	-0.070	2.050
2020/01/31 07:10:42.7	91.350	0.010	0.010	2.000
2020/01/31 07:10:42.8	91.340	-0.020	0.090	1.960
2020/01/31 07:10:42.9	91.330	-0.060	0.170	1.910
2020/01/31 07:10:43.0	91.320	-0.090	0.240	1.870
2020/01/31 07:10:43.1	91.310	-0.120	0.320	1.820
2020/01/31 07:10:43.2	91.300	-0.160	0.390	1.780
2020/01/31 07:10:43.3	91.290	-0.190	0.450	1.730
2020/01/31 07:10:43.4	91.270	-0.230	0.520	1.690
2020/01/31 07:10:43.5	91.250	-0.260	0.570	1.650
2020/01/31 07:10:43.6	91.240	-0.300	0.620	1.600
2020/01/31 07:10:43.7	91.220	-0.340	0.670	1.560
2020/01/31 07:10:43.8	91.200	-0.370	0.700	1.510
2020/01/31 07:10:43.9	91.180	-0.410	0.730	1.470
2020/01/31 07:10:44.0	91.170	-0.440	0.750	1.420
2020/01/31 07:10:44.1	91.150	-0.470	0.760	1.380
2020/01/31 07:10:44.2	91.140	-0.500	0.770	1.330
2020/01/31 07:10:44.3	91.130	-0.530	0.760	1.290
2020/01/31 07:10:44.4	91.110	-0.560	0.750	1.250
2020/01/31 07:10:44.5	91.100	-0.580	0.730	1.200
2020/01/31 07:10:44.6	91.090	-0.610	0.700	1.160
2020/01/31 07:10:44.7	91.080	-0.630	0.660	1.110
2020/01/31 07:10:44.8	91.070	-0.650	0.620	1.070
2020/01/31 07:10:44.9	91.060	-0.660	0.570	1.030
2020/01/31 07:10:45.0	91.060	-0.680	0.510	0.990
2020/01/31 07:10:45.1	91.050	-0.690	0.450	0.940
2020/01/31 07:10:45.2	91.050	-0.700	0.380	0.900
2020/01/31 07:10:45.3	91.050	-0.710	0.310	0.850
2020/01/31 07:10:45.4	91.050	-0.710	0.230	0.810
2020/01/31 07:10:45.5	91.050	-0.710	0.160	0.770
2020/01/31 07:10:45.6	91.050	-0.710	0.080	0.730
2020/01/31 07:10:45.7	91.050	-0.710	-0.000	0.680
2020/01/31 07:10:45.8	91.050	-0.700	-0.090	0.640
2020/01/31 07:10:45.9	91.060	-0.700	-0.170	0.590
2020/01/31 07:10:46.0	91.060	-0.690	-0.250	0.550
2020/01/31 07:10:46.1	91.060	-0.670	-0.330	0.500
2020/01/31 07:10:46.2	91.070	-0.660	-0.410	0.460
2020/01/31 07:10:46.3	91.060	-0.640	-0.490	0.410
2020/01/31 07:10:46.4	91.070	-0.620	-0.560	0.370
2020/01/31 07:10:46.5	91.070	-0.600	-0.630	0.320
2020/01/31 07:10:46.6	91.080	-0.580	-0.700	0.270
2020/01/31 07:10:46.7	91.080	-0.550	-0.750	0.230
2020/01/31 07:10:46.8	91.090	-0.530	-0.810	0.180
2020/01/31 07:10:46.9	91.090	-0.500	-0.860	0.130
2020/01/31 07:10:47.0	91.100	-0.460	-0.900	0.090
2020/01/31 07:10:47.1	91.100	-0.430	-0.940	0.040
2020/01/31 07:10:47.2	91.110	-0.400	-0.970	-0.000
2020/01/31 07:10:47.3	91.100	-0.360	-1.000	-0.050
2020/01/31 07:10:47.4	91.100	-0.320	-1.020	-0.090
2020/01/31 07:10:47.5	91.110	-0.280	-1.030	-0.140
2020/01/31 07:10:47.6	91.110	-0.240	-1.040	-0.180
2020/01/31 07:10:47.7	91.120	-0.200	-1.050	-0.220
2020/01/31 07:10:47.8	91.120	-0.160	-1.050	-0.250
2020/01/31 07:10:47.9	91.130	-0.110	-1.040	-0.290
2020/01/31 07:10:48.0	91.130	-0.070	-1.030	-0.330
2020/01/31 07:10:48.1	91.140	-0.020	-1.020	-0.360
2020/01/31 07:10:48.2	91.150	0.020	-1.000	-0.400
2020/01/31 07:10:48.3	91.150	0.070	-0.980	-0.430
2020/01/31 07:10:48.4	91.160	0.120	-0.950	-0.450
2020/01/31 07:10:48.5	91.170	0.160	-0.920	-0.480
2020/01/31 07:10:48.6	91.170	0.210	-0.890	-0.510
2020/01/31 07:10:48.7	91.180	0.250	-0.860	-0.530
2020/01/31 07:10:48.8	91.190	0.300	-0.820	-0.560
2020/01/31 07:10:48.9	91.200	0.340	-0.790	-0.580
2020/01/31 07:10:49.0	91.210	0.380	-0.750	-0.590
2020/01/31 07:10:49.1	91.220	0.430	-0.710	-0.610
2020/01/31 07:10:49.2	91.230	0.470	-0.670	-0.620
2020/01/31 07:10:49.3	91.230	0.500	-0.630	-0.630
2020/01/31 07:10:49.4	91.230	0.540	-0.590	-0.640
2020/01/31 07:10:49.5	91.240	0.570	-0.550	-0.640
2020/01/31 07:10:49.6	91.240	0.610	-0.500	-0.640
2020/01/31 07:10:49.7	91.250	0.630	-0.460	-0.640
2020/01/31 07:10:49.8	91.250	0.660	-0.420	-0.630
2020/01/31 07:10:49.9	91.250	0.680	-0.370	-0.620
2020/01/31 07:10:50.0	91.250	0.710	-0.330	-0.610
2020/01/31 07:10:50.1	91.250	0.720	-0.280	-0.590
2020/01/31 07:10:50.2	91.250	0.740	-0.240	-0.570
2020/01/31 07:10:50.3	91.250	0.750	-0.190	-0.550
2020/01/31 07:10:50.4	91.240	0.760	-0.140	-0.520
2020/01/31 07:10:50.5	91.240	0.760	-0.100	-0.490
2020/01/31 07:10:50.6	91.240	0.760	-0.050	-0.460
2020/01/31 07:10:50.7	91.240	0.760	-0.010	-0.420
2020/01/31 07:10:50.8	91.240	0.760	0.040	-0.380
2020/01/31 07:10:50.9	91.240	0.750	0.080	-0.340
2020/01/31 07:10:51.0	91.230	0.740	0.130	-0.300
2020/01/31 07:10:51.1	91.230	0.720	0.170	-0.260
2020/01/31 07:10:51.2	91.230	0.710	0.210	-0.210
2020/01/31 07:10:51.3	91.240	0.690	0.250	-0.160
2020/01/31 07:10:51.4	91.250	0.670	0.290	-0.110
2020/01/31 07:10:51.5	91.250	0.640	0.320	-0.050
2020/01/31 07:10:51.6	91.250	0.620	0.360	-0.000
2020/01/31 07:10:51.7	91.260	0.590	0.380	0.050
2020/01/31 07:10:51.8	91.260	0.570	0.410	0.110
2020/01/31 07:10:51.9	91.270	0.540	0.430	0.170
2020/01/31 07:10:52.0	91.280	0.510	0.450	0.220
2020/01/31 07:10:52.1	91.280	0.480	0.460	0.280
2020/01/31 07:10:52.2	91.290	0.450	0.470	0.340
2020/01/31 07:10:52.3	91.300	0.430	0.480	0.400
2020/01/31 07:10:52.4	91.310	0.400	0.480	0.470
2020/01/31 07:10:52.5	91.320	0.370	0.470	0.530
2020/01/31 07:10:52.6	91.330	0.350	0.460	0.590
2020/01/31 07:10:52.7	91.340	0.320	0.450	0.650
2020/01/31 07:10:52.8	91.350	0.300	0.430	0.720
2020/01/31 07:10:52.9	91.360	0.280	0.410	0.780
2020/01/31 07:10:53.0	91.370	0.260	0.380	0.850
2020/01/31 07:10:53.1	91.380	0.250	0.350	0.910
2020/01/31 07:10:53.2	91.390	0.230	0.310	0.980
2020/01/31 07:10:53.3	91.400	0.220	0.280	1.040
2020/01/31 07:10:53.4	91.410	0.200	0.240	1.110
2020/01/31 07:10:53.5	91.410	0.190	0.190	1.180
2020/01/31 07:10:53.6	91.420	0.180	0.150	1.250
2020/01/31 07:10:53.7	91.420	0.180	0.110	1.320
2020/01/31 07:10:53.8	91.430	0.170	0.060	1.390
2020/01/31 07:10:53.9	91.430	0.160	0.010	1.460
2020/01/31 07:10:54.0	91.430	0.160	-0.030	1.530
2020/01/31 07:10:54.1	91.430	0.150	-0.070	1.600
2020/01/31 07:10:54.2	91.430	0.150	-0.120	1.680
2020/01/31 07:10:54.3	91.430	0.140	-0.160	1.750
2020/01/31 07:10:54.4	91.430	0.140	-0.200	1.830
2020/01/31 07:10:54.5	91.420	0.130	-0.230	1.900
2020/01/31 07:10:54.6	91.420	0.120	-0.260	1.970
2020/01/31 07:10:54.7	91.420	0.110	-0.290	2.050
2020/01/31 07:10:54.8	91.410	0.100	-0.320	2.120
2020/01/31 07:10:54.9	91.410	0.090	-0.340	2.190
2020/01/31 07:10:55.0	91.400	0.080	-0.360	2.260
2020/01/31 07:10:55.1	91.400	0.060	-0.370	2.330
2020/01/31 07:10:55.2	91.390	0.050	-0.380	2.400
2020/01/31 07:10:55.3	91.380	0.030	-0.390	2.470
2020/01/31 07:10:55.4	91.380	0.010	-0.390	2.530
2020/01/31 07:10:55.5	91.370	-0.010	-0.390	2.590
2020/01/31 07:10:55.6	91.370	-0.030	-0.390	2.650
2020/01/31 07:10:55.7	91.370	-0.060	-0.380	2.710
2020/01/31 07:10:55.8	91.370	-0.080	-0.370	2.760
2020/01/31 07:10:55.9	91.370	-0.110	-0.360	2.810
2020/01/31 07:10:56.0	91.380	-0.140	-0.350	2.860
2020/01/31 07:10:56.1	91.380	-0.170	-0.330	2.900
2020/01/31 07:10:56.2	91.390	-0.200	-0.310	2.940
2020/01/31 07:10:56.3	91.390	-0.230	-0.290	2.970
2020/01/31 07:10:56.4	91.400	-0.260	-0.260	3.000
2020/01/31 07:10:56.5	91.410	-0.290	-0.240	3.030
2020/01/31 07:10:56.6	91.420	-0.330	-0.220	3.050
2020/01/31 07:10:56.7	91.440	-0.360	-0.190	3.070
2020/01/31 07:10:56.8	91.460	-0.390	-0.170	3.080
2020/01/31 07:10:56.9	91.480	-0.420	-0.140	3.090
2020/01/31 07:10:57.0	91.510	-0.450	-0.120	3.090
2020/01/31 07:10:57.1	91.530	-0.480	-0.090	3.090
2020/01/31 07:10:57.2	91.560	-0.510	-0.060	3.090
2020/01/31 07:10:57.3	91.590	-0.540	-0.040	3.070
2020/01/31 07:10:57.4	91.620	-0.570	-0.010	3.060
2020/01/31 07:10:57.5	91.650	-0.590	0.010	3.040
2020/01/31 07:10:57.6	91.690	-0.610	0.030	3.010
2020/01/31 07:10:57.7	91.720	-0.640	0.050	2.990
2020/01/31 07:10:57.8	91.750	-0.660	0.070	2.950
2020/01/31 07:10:57.9	91.790	-0.670	0.090	2.920
2020/01/31 07:10:58.0	91.820	-0.690	0.110	2.870
2020/01/31 07:10:58.1	91.860	-0.700	0.130	2.830
2020/01/31 07:10:58.2	91.890	-0.710	0.140	2.780
2020/01/31 07:10:58.3	91.920	-0.720	0.150	2.730
2020/01/31 07:10:58.4	91.960	-0.720	0.160	2.670
2020/01/31 07:10:58.5	91.990	-0.720	0.170	2.610
2020/01/31 07:10:58.6	92.020	-0.730	0.170	2.550
2020/01/31 07:10:58.7	92.050	-0.720	0.170	2.480
2020/01/31 07:10:58.8	92.080	-0.720	0.170	2.420
2020/01/31 07:10:58.9	92.110	-0.710	0.170	2.340
2020/01/31 07:10:59.0	92.130	-0.700	0.160	2.270
2020/01/31 07:10:59.1	92.150	-0.690	0.150	2.200
2020/01/31 07:10:59.2	92.180	-0.670	0.140	2.120
2020/01/31 07:10:59.3	92.200	-0.660	0.130	2.040
2020/01/31 07:10:59.4	92.210	-0.640	0.110	1.960
2020/01/31 07:10:59.5	92.230	-0.620	0.090	1.880
2020/01/31 07:10:59.6	92.240	-0.590	0.070	1.800
2020/01/31 07:10:59.7	92.250	-0.570	0.040	1.710
2020/01/31 07:10:59.8	92.250	-0.540	0.010	1.630
2020/01/31 07:10:59.9	92.250	-0.510	-0.020	1.540
2020/01/31 07:11:00.0	92.250	-0.480	-0.050	1.460
2020/01/31 07:11:00.1	92.250	-0.450	-0.080	1.380
2020/01/31 07:11:00.2	92.240	-0.420	-0.120	1.290
2020/01/31 07:11:00.3	92.230	-0.380	-0.160	1.210
2020/01/31 07:11:00.4	92.220	-0.350	-0.190	1.130
2020/01/31 07:11:00.5	92.210	-0.320	-0.230	1.050
2020/01/31 07:11:00.6	92.190	-0.280	-0.270	0.970
2020/01/31 07:11:00.7	92.180	-0.240	-0.310	0.890
2020/01/31 07:11:00.8	92.160	-0.210	-0.350	0.820
2020/01/31 07:11:00.9	92.140	-0.170	-0.390	0.740
2020/01/31 07:11:01.0	92.110	-0.140	-0.430	0.670
2020/01/31 07:11:01.1	92.090	-0.100	-0.460	0.600
2020/01/31 07:11:01.2	92.070	-0.070	-0.500	0.530
2020/01/31 07:11:01.3	92.040	-0.030	-0.530	0.460
2020/01/31 07:11:01.4	92.020	0.000	-0.560	0.400
2020/01/31 07:11:01.5	92.000	0.030	-0.590	0.330
2020/01/31 07:11:01.6	91.980	0.070	-0.620	0.270
2020/01/31 07:11:01.7	91.960	0.100	-0.650	0.210
2020/01/31 07:11:01.8	91.940	0.130	-0.680	0.150
2020/01/31 07:11:01.9	91.920	0.160	-0.700	0.090
2020/01/31 07:11:02.0	91.910	0.190	-0.720	0.040
2020/01/31 07:11:02.1	91.890	0.210	-0.740	-0.010
2020/01/31 07:11:02.2	91.880	0.240	-0.750	-0.060
2020/01/31 07:11:02.3	91.860	0.260	-0.760	-0.120
2020/01/31 07:11:02.4	91.850	0.290	-0.770	-0.160
2020/01/31 07:11:02.5	91.840	0.310	-0.780	-0.210
2020/01/31 07:11:02.6	91.830	0.330	-0.780	-0.250
2020/01/31 07:11:02.7	91.820	0.350	-0.780	-0.290
2020/01/31 07:11:02.8	91.810	0.370	-0.780	-0.320
2020/01/31 07:11:02.9	91.800	0.380	-0.770	-0.360
2020/01/31 07:11:03.0	91.790	0.400	-0.760	-0.390
2020/01/31 07:11:03.1	91.780	0.410	-0.750	-0.420
2020/01/31 07:11:03.2	91.770	0.420	-0.730	-0.450
2020/01/31 07:11:03.3	91.760	0.430	-0.710	-0.470
2020/01/31 07:11:03.4	91.750	0.430	-0.680	-0.500
2020/01/31 07:11:03.5	91.740	0.440	-0.660	-0.520
2020/01/31 07:11:03.6	91.730	0.450	-0.630	-0.540
2020/01/31 07:11:03.7	91.730	0.450	-0.600	-0.560
2020/01/31 07:11:03.8	91.720	0.450	-0.560	-0.580
2020/01/31 07:11:03.9	91.710	0.450	-0.530	-0.600
2020/01/31 07:11:04.0	91.700	0.450	-0.490	-0.610
2020/01/31 07:11:04.1	91.690	0.440	-0.450	-0.630
2020/01/31 07:11:04.2	91.680	0.440	-0.400	-0.640
2020/01/31 07:11:04.3	91.680	0.440	-0.360	-0.650
2020/01/31 07:11:04.4	91.670	0.430	-0.310	-0.660
2020/01/31 07:11:04.5	91.660	0.420	-0.260	-0.670
2020/01/31 07:11:04.6	91.660	0.410	-0.220	-0.670
2020/01/31 07:11:04.7	91.660	0.410	-0.170	-0.680
2020/01/31 07:11:04.8	91.660	0.400	-0.120	-0.680
2020/01/31 07:11:04.9	91.660	0.390	-0.070	-0.680
2020/01/31 07:11:05.0	91.660	0.380	-0.020	-0.680
2020/01/31 07:11:05.1	91.660	0.370	0.020	-0.680
2020/01/31 07:11:05.2	91.670	0.360	0.070	-0.680
2020/01/31 07:11:05.3	91.680	0.350	0.110	-0.670
2020/01/31 07:11:05.4	91.690	0.340	0.150	-0.660
2020/01/31 07:11:05.5	91.700	0.330	0.190	-0.650
2020/01/31 07:11:05.6	91.710	0.330	0.230	-0.640
2020/01/31 07:11:05.7	91.720	0.320	0.260	-0.620
2020/01/31 07:11:05.8	91.730	0.310	0.290	-0.600
2020/01/31 07:11:05.9	91.750	0.310	0.320	-0.580
2020/01/31 07:11:06.0	91.760	0.300	0.350	-0.560
2020/01/31 07:11:06.1	91.780	0.300	0.370	-0.530
2020/01/31 07:11:06.2	91.800	0.290	0.380	-0.500
2020/01/31 07:11:06.3	91.830	0.290	0.400	-0.470
2020/01/31 07:11:06.4	91.850	0.290	0.410	-0.440
2020/01/31 07:11:06.5	91.870	0.280	0.420	-0.400
2020/01/31 07:11:06.6	91.890	0.280	0.420	-0.370
2020/01/31 07:11:06.7	91.920	0.280	0.420	-0.330
2020/01/31 07:11:06.8	91.940	0.280	0.420	-0.290
2020/01/31 07:11:06.9	91.970	0.280	0.410	-0.240
2020/01/31 07:11:07.0	92.000	0.280	0.400	-0.200
2020/01/31 07:11:07.1	92.020	0.280	0.390	-0.150
2020/01/31 07:11:07.2	92.050	0.280	0.380	-0.100
2020/01/31 07:11:07.3	92.080	0.280	0.360	-0.050
2020/01/31 07:11:07.4	92.110	0.280	0.340	0.010
2020/01/31 07:11:07.5	92.130	0.270	0.320	0.070
2020/01/31 07:11:07.6	92.160	0.270	0.300	0.130
2020/01/31 07:11:07.7	92.180	0.270	0.280	0.200
2020/01/31 07:11:07.8	92.210	0.260	0.260	0.270
2020/01/31 07:11:07.9	92.230	0.250	0.240	0.340
2020/01/31 07:11:08.0	92.250	0.250	0.220	0.420
2020/01/31 07:11:08.1	92.270	0.240	0.200	0.500
2020/01/31 07:11:08.2	92.280	0.230	0.180	0.580
2020/01/31 07:11:08.3	92.300	0.220	0.150	0.670
2020/01/31 07:11:08.4	92.310	0.200	0.130	0.760
2020/01/31 07:11:08.5	92.320	0.190	0.110	0.850
2020/01/31 07:11:08.6	92.330	0.170	0.090	0.950
2020/01/31 07:11:08.7	92.340	0.160	0.070	1.050
2020/01/31 07:11:08.8	92.340	0.140	0.050	1.160
2020/01/31 07:11:08.9	92.340	0.120	0.030	1.260
2020/01/31 07:11:09.0	92.350	0.100	0.010	1.370
2020/01/31 07:11:09.1	92.350	0.080	-0.010	1.480
2020/01/31 07:11:09.2	92.340	0.060	-0.030	1.590
2020/01/31 07:11:09.3	92.350	0.030	-0.050	1.700
2020/01/31 07:11:09.4	92.340	0.010	-0.070	1.810
2020/01/31 07:11:09.5	92.340	-0.010	-0.090	1.920
2020/01/31 07:11:09.6	92.330	-0.040	-0.100	2.030
2020/01/31 07:11:09.7	92.330	-0.060	-0.120	2.140
2020/01/31 07:11:09.8	92.320	-0.080	-0.140	2.240
2020/01/31 07:11:09.9	92.310	-0.110	-0.160	2.340
2020/01/31 07:11:10.0	92.310	-0.130	-0.180	2.440
2020/01/31 07:11:10.1	92.300	-0.150	-0.200	2.540
2020/01/31 07:11:10.2	92.290	-0.170	-0.220	2.630
2020/01/31 07:11:10.3	92.280	-0.190	-0.250	2.710
2020/01/31 07:11:10.4	92.270	-0.200	-0.270	2.800
2020/01/31 07:11:10.5	92.270	-0.220	-0.290	2.880
2020/01/31 07:11:10.6	92.260	-0.230	-0.310	2.950
2020/01/31 07:11:10.7	92.260	-0.250	-0.330	3.020
2020/01/31 07:11:10.8	92.260	-0.260	-0.350	3.080
2020/01/31 07:11:10.9	92.260	-0.260	-0.370	3.140
2020/01/31 07:11:11.0	92.250	-0.270	-0.390	3.190
2020/01/31 07:11:11.1	92.250	-0.270	-0.410	3.240
2020/01/31 07:11:11.2	92.250	-0.280	-0.430	3.280
2020/01/31 07:11:11.3	92.250	-0.270	-0.450	3.320
2020/01/31 07:11:11.4	92.250	-0.270	-0.480	3.350
2020/01/31 07:11:11.5	92.250	-0.270	-0.500	3.380
2020/01/31 07:11:11.6	92.250	-0.260	-0.520	3.410
2020/01/31 07:11:11.7	92.250	-0.250	-0.540	3.430
2020/01/31 07:11:11.8	92.260	-0.240	-0.560	3.440
2020/01/31 07:11:11.9	92.260	-0.230	-0.580	3.450
2020/01/31 07:11:12.0	92.260	-0.220	-0.600	3.460
2020/01/31 07:11:12.1	92.270	-0.210	-0.620	3.470
2020/01/31 07:11:12.2	92.270	-0.190	-0.640	3.470
2020/01/31 07:11:12.3	92.270	-0.170	-0.660	3.460
2020/01/31 07:11:12.4	92.280	-0.160	-0.670	3.450
2020/01/31 07:11:12.5	92.280	-0.140	-0.690	3.440
2020/01/31 07:11:12.6	92.280	-0.120	-0.700	3.430
2020/01/31 07:11:12.7	92.290	-0.110	-0.700	3.420
2020/01/31 07:11:12.8	92.290	-0.090	-0.710	3.400
2020/01/31 07:11:12.9	92.290	-0.070	-0.710	3.380
2020/01/31 07:11:13.0	92.290	-0.050	-0.710	3.360
2020/01/31 07:11:13.1	92.290	-0.040	-0.710	3.330
2020/01/31 07:11:13.2	92.290	-0.020	-0.700	3.310
2020/01/31 07:11:13.3	92.290	-0.010	-0.680	3.270
2020/01/31 07:11:13.4	92.290	0.000	-0.670	3.240
2020/01/31 07:11:13.5	92.290	0.010	-0.650	3.210
2020/01/31 07:11:13.6	92.280	0.020	-0.630	3.170
2020/01/31 07:11:13.7	92.280	0.030	-0.600	3.130
2020/01/31 07:11:13.8	92.270	0.030	-0.570	3.090
2020/01/31 07:11:13.9	92.270	0.040	-0.540	3.040
2020/01/31 07:11:14.0	92.260	0.040	-0.500	2.990
2020/01/31 07:11:14.1	92.250	0.040	-0.460	2.940
2020/01/31 07:11:14.2	92.240	0.040	-0.410	2.880
2020/01/31 07:11:14.3	92.230	0.030	-0.370	2.820
2020/01/31 07:11:14.4	92.220	0.030	-0.320	2.750
2020/01/31 07:11:14.5	92.210	0.020	-0.260	2.680
2020/01/31 07:11:14.6	92.200	0.010	-0.210	2.610
2020/01/31 07:11:14.7	92.190	-0.000	-0.160	2.530
2020/01/31 07:11:14.8	92.180	-0.020	-0.100	2.450
2020/01/31 07:11:14.9	92.170	-0.030	-0.040	2.360
2020/01/31 07:11:15.0	92.160	-0.050	0.010	2.270
2020/01/31 07:11:15.1	92.150	-0.060	0.070	2.170
2020/01/31 07:11:15.2	92.140	-0.080	0.130	2.070
2020/01/31 07:11:15.3	92.130	-0.100	0.190	1.970
2020/01/31 07:11:15.4	92.120	-0.120	0.240	1.860
2020/01/31 07:11:15.5	92.110	-0.140	0.290	1.750
2020/01/31 07:11:15.6	92.110	-0.160	0.330	1.640
2020/01/31 07:11:15.7	92.100	-0.180	0.380	1.520
2020/01/31 07:11:15.8	92.090	-0.210	0.420	1.400
2020/01/31 07:11:15.9	92.080	-0.230	0.460	1.280
2020/01/31 07:11:16.0	92.070	-0.250	0.490	1.160
2020/01/31 07:11:16.1	92.070	-0.270	0.520	1.040
2020/01/31 07:11:16.2	92.060	-0.290	0.540	0.920
2020/01/31 07:11:16.3	92.060	-0.310	0.560	0.790
2020/01/31 07:11:16.4	92.060	-0.330	0.580	0.660
2020/01/31 07:11:16.5	92.050	-0.340	0.590	0.540
2020/01/31 07:11:16.6	92.050	-0.360	0.590	0.410
2020/01/31 07:11:16.7	92.040	-0.370	0.590	0.290
2020/01/31 07:11:16.8	92.040	-0.390	0.580	0.170
2020/01/31 07:11:16.9	92.040	-0.400	0.570	0.050
2020/01/31 07:11:17.0	92.040	-0.410	0.550	-0.070
2020/01/31 07:11:17.1	92.040	-0.410	0.530	-0.190
2020/01/31 07:11:17.2	92.050	-0.420	0.500	-0.300
2020/01/31 07:11:17.3	92.060	-0.420	0.470	-0.410
2020/01/31 07:11:17.4	92.060	-0.420	0.430	-0.520
2020/01/31 07:11:17.5	92.070	-0.420	0.390	-0.620
2020/01/31 07:11:17.6	92.070	-0.420	0.340	-0.720
2020/01/31 07:11:17.7	92.080	-0.410	0.290	-0.820
2020/01/31 07:11:17.8	92.090	-0.400	0.240	-0.910
2020/01/31 07:11:17.9	92.100	-0.390	0.180	-1.000
2020/01/31 07:11:18.0	92.110	-0.380	0.130	-1.080
2020/01/31 07:11:18.1	92.120	-0.360	0.070	-1.150
2020/01/31 07:11:18.2	92.130	-0.340	0.000	-1.220
2020/01/31 07:11:18.3	92.140	-0.320	-0.060	-1.290
2020/01/31 07:11:18.4	92.150	-0.300	-0.120	-1.350
2020/01/31 07:11:18.5	92.160	-0.280	-0.190	-1.410
2020/01/31 07:11:18.6	92.170	-0.250	-0.250	-1.450
2020/01/31 07:11:18.7	92.180	-0.220	-0.310	-1.500
2020/01/31 07:11:18.8	92.190	-0.200	-0.370	-1.530
2020/01/31 07:11:18.9	92.200	-0.170	-0.420	-1.560
2020/01/31 07:11:19.0	92.210	-0.140	-0.480	-1.590
2020/01/31 07:11:19.1	92.220	-0.110	-0.530	-1.610
2020/01/31 07:11:19.2	92.220	-0.080	-0.570	-1.620
2020/01/31 07:11:19.3	92.230	-0.050	-0.610	-1.620
2020/01/31 07:11:19.4	92.240	-0.020	-0.650	-1.630
2020/01/31 07:11:19.5	92.240	0.010	-0.680	-1.620
2020/01/31 07:11:19.6	92.250	0.040	-0.710	-1.610
2020/01/31 07:11:19.7	92.250	0.060	-0.730	-1.600
2020/01/31 07:11:19.8	92.260	0.090	-0.740	-1.580
2020/01/31 07:11:19.9	92.260	0.110	-0.750	-1.550
2020/01/31 07:11:20.0	92.270	0.130	-0.750	-1.520
2020/01/31 07:11:20.1	92.270	0.150	-0.750	-1.490
2020/01/31 07:11:20.2	92.280	0.170	-0.740	-1.450
2020/01/31 07:11:20.3	92.280	0.180	-0.730	-1.410
2020/01/31 07:11:20.4	92.290	0.200	-0.710	-1.360
2020/01/31 07:11:20.5	92.300	0.210	-0.680	-1.310
2020/01/31 07:11:20.6	92.310	0.220	-0.650	-1.250
2020/01/31 07:11:20.7	92.320	0.220	-0.620	-1.190
2020/01/31 07:11:20.8	92.330	0.220	-0.580	-1.130
2020/01/31 07:11:20.9	92.340	0.220	-0.540	-1.060
2020/01/31 07:11:21.0	92.350	0.220	-0.490	-0.990
2020/01/31 07:11:21.1	92.370	0.220	-0.450	-0.920
2020/01/31 07:11:21.2	92.380	0.220	-0.400	-0.840
2020/01/31 07:11:21.3	92.390	0.210	-0.350	-0.750
2020/01/31 07:11:21.4	92.410	0.200	-0.300	-0.670
2020/01/31 07:11:21.5	92.430	0.190	-0.250	-0.580
2020/01/31 07:11:21.6	92.450	0.180	-0.200	-0.490
2020/01/31 07:11:21.7	92.470	0.170	-0.160	-0.400
2020/01/31 07:11:21.8	92.490	0.160	-0.110	-0.300
2020/01/31 07:11:21.9	92.510	0.140	-0.070	-0.200
2020/01/31 07:11:22.0	92.530	0.130	-0.030	-0.090
2020/01/31 07:11:22.1	92.550	0.120	0.010	0.020
2020/01/31 07:11:22.2	92.570	0.110	0.040	0.130
2020/01/31 07:11:22.3	92.600	0.100	0.070	0.250
2020/01/31 07:11:22.4	92.610	0.090	0.100	0.370
2020/01/31 07:11:22.5	92.630	0.080	0.120	0.490
2020/01/31 07:11:22.6	92.650	0.070	0.140	0.620
2020/01/31 07:11:22.7	92.660	0.060	0.160	0.750
2020/01/31 07:11:22.8	92.670	0.050	0.170	0.880
2020/01/31 07:11:22.9	92.680	0.050	0.180	1.020
2020/01/31 07:11:23.0	92.680	0.040	0.180	1.160
2020/01/31 07:11:23.1	92.680	0.040	0.180	1.300
2020/01/31 07:11:23.2	92.680	0.040	0.170	1.450
2020/01/31 07:11:23.3	92.680	0.040	0.160	1.600
2020/01/31 07:11:23.4	92.670	0.050	0.150	1.750
2020/01/31 07:11:23.5	92.660	0.050	0.130	1.900
2020/01/31 07:11:23.6	92.650	0.060	0.110	2.050
2020/01/31 07:11:23.7	92.640	0.070	0.090	2.190
2020/01/31 07:11:23.8	92.620	0.080	0.070	2.340
2020/01/31 07:11:23.9	92.600	0.090	0.040	2.490
2020/01/31 07:11:24.0	92.580	0.100	0.010	2.640
2020/01/31 07:11:24.1	92.560	0.110	-0.030	2.780
2020/01/31 07:11:24.2	92.540	0.130	-0.060	2.920
2020/01/31 07:11:24.3	92.520	0.150	-0.100	3.050
2020/01/31 07:11:24.4	92.490	0.170	-0.130	3.180
2020/01/31 07:11:24.5	92.470	0.180	-0.170	3.310
2020/01/31 07:11:24.6	92.450	0.200	-0.210	3.430
2020/01/31 07:11:24.7	92.430	0.220	-0.250	3.550
2020/01/31 07:11:24.8	92.410	0.240	-0.300	3.650
2020/01/31 07:11:24.9	92.390	0.270	-0.340	3.760
2020/01/31 07:11:25.0	92.370	0.290	-0.380	3.850
2020/01/31 07:11:25.1	92.350	0.310	-0.420	3.940
2020/01/31 07:11:25.2	92.340	0.330	-0.460	4.020
2020/01/31 07:11:25.3	92.320	0.350	-0.500	4.090
2020/01/31 07:11:25.4	92.300	0.370	-0.540	4.160
2020/01/31 07:11:25.5	92.290	0.390	-0.570	4.220
2020/01/31 07:11:25.6	92.290	0.410	-0.610	4.270
2020/01/31 07:11:25.7	92.280	0.420	-0.640	4.320
2020/01/31 07:11:25.8	92.280	0.440	-0.660	4.360
2020/01/31 07:11:25.9	92.270	0.450	-0.690	4.390
2020/01/31 07:11:26.0	92.270	0.460	-0.710	4.420
2020/01/31 07:11:26.1	92.270	0.470	-0.730	4.440
2020/01/31 07:11:26.2	92.270	0.480	-0.740	4.450
2020/01/31 07:11:26.3	92.260	0.490	-0.750	4.460
2020/01/31 07:11:26.4	92.260	0.490	-0.750	4.460
2020/01/31 07:11:26.5	92.270	0.490	-0.750	4.460
2020/01/31 07:11:26.6	92.270	0.490	-0.740	4.450
2020/01/31 07:11:26.7	92.270	0.490	-0.730	4.430
2020/01/31 07:11:26.8	92.270	0.490	-0.720	4.410
2020/01/31 07:11:26.9	92.280	0.480	-0.700	4.380
2020/01/31 07:11:27.0	92.280	0.470	-0.680	4.340
2020/01/31 07:11:27.1	92.280	0.450	-0.650	4.300
2020/01/31 07:11:27.2	92.280	0.440	-0.610	4.250
2020/01/31 07:11:27.3	92.290	0.420	-0.570	4.200
2020/01/31 07:11:27.4	92.290	0.400	-0.530	4.130
2020/01/31 07:11:27.5	92.290	0.380	-0.490	4.070
2020/01/31 07:11:27.6	92.290	0.360	-0.440	3.990
2020/01/31 07:11:27.7	92.290	0.330	-0.380	3.910
2020/01/31 07:11:27.8	92.280	0.300	-0.330	3.830
2020/01/31 07:11:27.9	92.280	0.270	-0.270	3.740
2020/01/31 07:11:28.0	92.280	0.240	-0.210	3.640
2020/01/31 07:11:28.1	92.280	0.210	-0.140	3.540
2020/01/31 07:11:28.2	92.280	0.170	-0.080	3.430
2020/01/31 07:11:28.3	92.270	0.140	-0.010	3.320
2020/01/31 07:11:28.4	92.270	0.100	0.060	3.210
2020/01/31 07:11:28.5	92.260	0.060	0.120	3.090
2020/01/31 07:11:28.6	92.260	0.030	0.190	2.960
2020/01/31 07:11:28.7	92.260	-0.010	0.260	2.830
2020/01/31 07:11:28.8	92.260	-0.050	0.320	2.700
2020/01/31 07:11:28.9	92.260	-0.090	0.390	2.570
2020/01/31 07:11:29.0	92.260	-0.120	0.450	2.430
2020/01/31 07:11:29.1	92.270	-0.160	0.510	2.290
2020/01/31 07:11:29.2	92.270	-0.200	0.560	2.150
2020/01/31 07:11:29.3	92.270	-0.230	0.620	1.990
2020/01/31 07:11:29.4	92.280	-0.260	0.670	1.850
2020/01/31 07:11:29.5	92.280	-0.300	0.710	1.700
2020/01/31 07:11:29.6	92.290	-0.330	0.750	1.550
2020/01/31 07:11:29.7	92.300	-0.360	0.780	1.400
2020/01/31 07:11:29.8	92.310	-0.380	0.810	1.250
2020/01/31 07:11:29.9	92.320	-0.410	0.830	1.100
2020/01/31 07:11:30.0	92.330	-0.430	0.840	0.950
2020/01/31 07:11:30.1	92.340	-0.450	0.840	0.800
2020/01/31 07:11:30.2	92.350	-0.470	0.840	0.650
2020/01/31 07:11:30.3	92.370	-0.490	0.830	0.500
2020/01/31 07:11:30.4	92.390	-0.500	0.820	0.350
2020/01/31 07:11:30.5	92.400	-0.510	0.790	0.210
2020/01/31 07:11:30.6	92.410	-0.520	0.760	0.060
2020/01/31 07:11:30.7	92.430	-0.520	0.720	-0.080
2020/01/31 07:11:30.8	92.440	-0.520	0.680	-0.210
2020/01/31 07:11:30.9	92.460	-0.520	0.620	-0.350
2020/01/31 07:11:31.0	92.470	-0.520	0.570	-0.480
2020/01/31 07:11:31.1	92.490	-0.510	0.500	-0.600
2020/01/31 07:11:31.2	92.500	-0.510	0.430	-0.720
2020/01/31 07:11:31.3	92.530	-0.500	0.360	-0.850
2020/01/31 07:11:31.4	92.540	-0.480	0.280	-0.960
2020/01/31 07:11:31.5	92.560	-0.470	0.190	-1.070
2020/01/31 07:11:31.6	92.570	-0.450	0.110	-1.170
2020/01/31 07:11:31.7	92.580	-0.430	0.020	-1.270
2020/01/31 07:11:31.8	92.600	-0.410	-0.080	-1.360
2020/01/31 07:11:31.9	92.610	-0.390	-0.170	-1.450
2020/01/31 07:11:32.0	92.620	-0.370	-0.260	-1.540
2020/01/31 07:11:32.1	92.640	-0.350	-0.350	-1.620
2020/01/31 07:11:32.2	92.650	-0.320	-0.450	-1.690
2020/01/31 07:11:32.3	92.670	-0.300	-0.540	-1.760
2020/01/31 07:11:32.4	92.680	-0.280	-0.630	-1.820
2020/01/31 07:11:32.5	92.690	-0.250	-0.720	-1.870
2020/01/31 07:11:32.6	92.710	-0.230	-0.800	-1.920
2020/01/31 07:11:32.7	92.720	-0.210	-0.870	-1.960
2020/01/31 07:11:32.8	92.730	-0.190	-0.940	-1.990
2020/01/31 07:11:32.9	92.740	-0.160	-1.010	-2.020
2020/01/31 07:11:33.0	92.750	-0.150	-1.070	-2.030
2020/01/31 07:11:33.1	92.760	-0.130	-1.120	-2.040
2020/01/31 07:11:33.2	92.770	-0.110	-1.170	-2.040
2020/01/31 07:11:33.3	92.770	-0.100	-1.200	-2.030
2020/01/31 07:11:33.4	92.770	-0.080	-1.230	-2.020
2020/01/31 07:11:33.5	92.770	-0.070	-1.250	-1.990
2020/01/31 07:11:33.6	92.770	-0.070	-1.260	-1.950
2020/01/31 07:11:33.7	92.770	-0.060	-1.260	-1.910
2020/01/31 07:11:33.8	92.760	-0.060	-1.250	-1.850
2020/01/31 07:11:33.9	92.760	-0.050	-1.240	-1.790
2020/01/31 07:11:34.0	92.750	-0.060	-1.210	-1.710
2020/01/31 07:11:34.1	92.740	-0.060	-1.170	-1.630
2020/01/31 07:11:34.2	92.720	-0.070	-1.130	-1.540
2020/01/31 07:11:34.3	92.710	-0.070	-1.080	-1.450
2020/01/31 07:11:34.4	92.690	-0.080	-1.020	-1.340
2020/01/31 07:11:34.5	92.670	-0.100	-0.950	-1.230
2020/01/31 07:11:34.6	92.650	-0.110	-0.880	-1.110
2020/01/31 07:11:34.7	92.630	-0.130	-0.800	-0.990
2020/01/31 07:11:34.8	92.610	-0.150	-0.710	-0.850
2020/01/31 07:11:34.9	92.590	-0.170	-0.620	-0.720
2020/01/31 07:11:35.0	92.570	-0.190	-0.530	-0.580
2020/01/31 07:11:35.1	92.540	-0.210	-0.430	-0.430
2020/01/31 07:11:35.2	92.520	-0.240	-0.330	-0.280
2020/01/31 07:11:35.3	92.490	-0.260	-0.220	-0.120
2020/01/31 07:11:35.4	92.470	-0.290	-0.120	0.030
2020/01/31 07:11:35.5	92.440	-0.310	-0.020	0.190
2020/01/31 07:11:35.6	92.420	-0.340	0.080	0.350
2020/01/31 07:11:35.7	92.400	-0.360	0.180	0.500
2020/01/31 07:11:35.8	92.380	-0.390	0.280	0.660
2020/01/31 07:11:35.9	92.360	-0.410	0.380	0.820
2020/01/31 07:11:36.0	92.350	-0.430	0.470	0.980
2020/01/31 07:11:36.1	92.330	-0.460	0.550	1.130
2020/01/31 07:11:36.2	92.320	-0.480	0.630	1.280
2020/01/31 07:11:36.3	92.320	-0.490	0.700	1.430
2020/01/31 07:11:36.4	92.310	-0.510	0.770	1.570
2020/01/31 07:11:36.5	92.300	-0.520	0.820	1.710
2020/01/31 07:11:36.6	92.300	-0.530	0.870	1.850
2020/01/31 07:11:36.7	92.300	-0.540	0.910	1.980
2020/01/31 07:11:36.8	92.290	-0.540	0.940	2.100
2020/01/31 07:11:36.9	92.290	-0.550	0.960	2.220
2020/01/31 07:11:37.0	92.300	-0.540	0.980	2.330
2020/01/31 07:11:37.1	92.300	-0.540	0.980	2.440
2020/01/31 07:11:37.2	92.310	-0.530	0.970	2.540
2020/01/31 07:11:37.3	92.310	-0.510	0.950	2.640
2020/01/31 07:11:37.4	92.320	-0.490	0.920	2.730
2020/01/31 07:11:37.5	92.330	-0.470	0.880	2.810
2020/01/31 07:11:37.6	92.340	-0.440	0.830	2.890
2020/01/31 07:11:37.7	92.350	-0.410	0.780	2.960
2020/01/31 07:11:37.8	92.370	-0.380	0.710	3.030
2020/01/31 07:11:37.9	92.380	-0.340	0.630	3.090
2020/01/31 07:11:38.0	92.390	-0.300	0.550	3.150
2020/01/31 07:11:38.1	92.410	-0.250	0.460	3.200
2020/01/31 07:11:38.2	92.420	-0.200	0.370	3.240
2020/01/31 07:11:38.3	92.440	-0.140	0.260	3.280
2020/01/31 07:11:38.4	92.460	-0.090	0.150	3.320
2020/01/31 07:11:38.5	92.470	-0.030	0.050	3.360
2020/01/31 07:11:38.6	92.480	0.040	-0.070	3.390
2020/01/31 07:11:38.7	92.500	0.100	-0.180	3.410
2020/01/31 07:11:38.8	92.510	0.170	-0.290	3.440
2020/01/31 07:11:38.9	92.520	0.230	-0.410	3.460
2020/01/31 07:11:39.0	92.540	0.300	-0.520	3.470
2020/01/31 07:11:39.1	92.550	0.370	-0.630	3.480
2020/01/31 07:11:39.2	92.560	0.430	-0.740	3.490
2020/01/31 07:11:39.3	92.560	0.500	-0.840	3.500
2020/01/31 07:11:39.4	92.570	0.560	-0.930	3.500
2020/01/31 07:11:39.5	92.580	0.630	-1.020	3.500
2020/01/31 07:11:39.6	92.590	0.690	-1.100	3.500
2020/01/31 07:11:39.7	92.600	0.740	-1.180	3.500
2020/01/31 07:11:39.8	92.600	0.800	-1.240	3.490
2020/01/31 07:11:39.9	92.610	0.850	-1.300	3.480
2020/01/31 07:11:40.0	92.610	0.890	-1.340	3.470
2020/01/31 07:11:40.1	92.610	0.930	-1.380	3.450
2020/01/31 07:11:40.2	92.610	0.970	-1.400	3.440
2020/01/31 07:11:40.3	92.610	1.000	-1.410	3.420
2020/01/31 07:11:40.4	92.600	1.020	-1.420	3.400
2020/01/31 07:11:40.5	92.600	1.040	-1.410	3.370
2020/01/31 07:11:40.6	92.590	1.050	-1.390	3.350
2020/01/31 07:11:40.7	92.590	1.060	-1.360	3.320
2020/01/31 07:11:40.8	92.580	1.060	-1.320	3.290
2020/01/31 07:11:40.9	92.570	1.060	-1.280	3.260
2020/01/31 07:11:41.0	92.560	1.050	-1.220	3.220
2020/01/31 07:11:41.1	92.550	1.040	-1.160	3.180
2020/01/31 07:11:41.2	92.540	1.020	-1.080	3.140
2020/01/31 07:11:41.3	92.520	0.990	-1.000	3.100
2020/01/31 07:11:41.4	92.510	0.960	-0.910	3.060
2020/01/31 07:11:41.5	92.490	0.930	-0.820	3.010
2020/01/31 07:11:41.6	92.470	0.890	-0.720	2.960
2020/01/31 07:11:41.7	92.460	0.850	-0.620	2.910
2020/01/31 07:11:41.8	92.440	0.800	-0.520	2.850
2020/01/31 07:11:41.9	92.420	0.750	-0.410	2.800
2020/01/31 07:11:42.0	92.400	0.700	-0.310	2.730
2020/01/31 07:11:42.1	92.380	0.650	-0.200	2.670
2020/01/31 07:11:42.2	92.370	0.590	-0.100	2.610
2020/01/31 07:11:42.3	92.350	0.530	0.010	2.530
2020/01/31 07:11:42.4	92.330	0.480	0.110	2.460
2020/01/31 07:11:42.5	92.310	0.420	0.210	2.390
2020/01/31 07:11:42.6	92.300	0.360	0.300	2.310
2020/01/31 07:11:42.7	92.280	0.300	0.390	2.230
2020/01/31 07:11:42.8	92.270	0.250	0.470	2.140
2020/01/31 07:11:42.9	92.260	0.190	0.540	2.060
2020/01/31 07:11:43.0	92.250	0.140	0.610	1.970
2020/01/31 07:11:43.1	92.240	0.080	0.670	1.880
2020/01/31 07:11:43.2	92.230	0.030	0.720	1.780
2020/01/31 07:11:43.3	92.230	-0.010	0.760	1.690
2020/01/31 07:11:43.4	92.230	-0.060	0.800	1.590
2020/01/31 07:11:43.5	92.230	-0.100	0.830	1.490
2020/01/31 07:11:43.6	92.230	-0.140	0.840	1.390
2020/01/31 07:11:43.7	92.230	-0.180	0.850	1.290
2020/01/31 07:11:43.8	92.230	-0.210	0.850	1.190
2020/01/31 07:11:43.9	92.230	-0.240	0.850	1.090
2020/01/31 07:11:44.0	92.240	-0.270	0.830	0.990
2020/01/31 07:11:44.1	92.240	-0.290	0.810	0.890
2020/01/31 07:11:44.2	92.250	-0.310	0.780	0.790
2020/01/31 07:11:44.3	92.260	-0.330	0.750	0.690
2020/01/31 07:11:44.4	92.270	-0.340	0.700	0.600
2020/01/31 07:11:44.5	92.280	-0.360	0.660	0.500
2020/01/31 07:11:44.6	92.290	-0.370	0.600	0.420
2020/01/31 07:11:44.7	92.300	-0.370	0.550	0.330
2020/01/31 07:11:44.8	92.310	-0.380	0.490	0.240
2020/01/31 07:11:44.9	92.320	-0.380	0.420	0.160
2020/01/31 07:11:45.0	92.320	-0.390	0.360	0.090
2020/01/31 07:11:45.1	92.330	-0.390	0.290	0.010
2020/01/31 07:11:45.2	92.340	-0.390	0.220	-0.060
2020/01/31 07:11:45.3	92.340	-0.390	0.150	-0.120
2020/01/31 07:11:45.4	92.350	-0.390	0.090	-0.190
2020/01/31 07:11:45.5	92.350	-0.390	0.020	-0.250
2020/01/31 07:11:45.6	92.360	-0.390	-0.050	-0.300
2020/01/31 07:11:45.7	92.360	-0.390	-0.110	-0.350
2020/01/31 07:11:45.8	92.360	-0.390	-0.170	-0.400
2020/01/31 07:11:45.9	92.360	-0.390	-0.220	-0.440
2020/01/31 07:11:46.0	92.360	-0.390	-0.280	-0.480
2020/01/31 07:11:46.1	92.360	-0.400	-0.330	-0.510
2020/01/31 07:11:46.2	92.360	-0.400	-0.370	-0.540
2020/01/31 07:11:46.3	92.360	-0.410	-0.420	-0.570
2020/01/31 07:11:46.4	92.360	-0.410	-0.450	-0.590
2020/01/31 07:11:46.5	92.360	-0.420	-0.480	-0.610
2020/01/31 07:11:46.6	92.360	-0.430	-0.510	-0.620
2020/01/31 07:11:46.7	92.350	-0.440	-0.530	-0.630
2020/01/31 07:11:46.8	92.350	-0.450	-0.540	-0.640
2020/01/31 07:11:46.9	92.350	-0.460	-0.560	-0.630
2020/01/31 07:11:47.0	92.340	-0.470	-0.560	-0.630
2020/01/31 07:11:47.1	92.340	-0.480	-0.570	-0.620
2020/01/31 07:11:47.2	92.340	-0.490	-0.570	-0.600
2020/01/31 07:11:47.3	92.340	-0.500	-0.560	-0.580
2020/01/31 07:11:47.4	92.340	-0.510	-0.550	-0.560
2020/01/31 07:11:47.5	92.330	-0.520	-0.540	-0.530
2020/01/31 07:11:47.6	92.330	-0.520	-0.530	-0.500
2020/01/31 07:11:47.7	92.330	-0.530	-0.510	-0.460
2020/01/31 07:11:47.8	92.330	-0.530	-0.500	-0.420
2020/01/31 07:11:47.9	92.330	-0.540	-0.480	-0.370
2020/01/31 07:11:48.0	92.330	-0.540	-0.460	-0.320
2020/01/31 07:11:48.1	92.320	-0.530	-0.440	-0.270
2020/01/31 07:11:48.2	92.320	-0.530	-0.430	-0.210
2020/01/31 07:11:48.3	92.310	-0.520	-0.410	-0.150
2020/01/31 07:11:48.4	92.310	-0.510	-0.390	-0.090
2020/01/31 07:11:48.5	92.310	-0.500	-0.380	-0.020
2020/01/31 07:11:48.6	92.310	-0.480	-0.360	0.050
2020/01/31 07:11:48.7	92.300	-0.460	-0.350	0.130
2020/01/31 07:11:48.8	92.300	-0.440	-0.340	0.200
2020/01/31 07:11:48.9	92.290	-0.420	-0.330	0.280
2020/01/31 07:11:49.0	92.290	-0.390	-0.320	0.370
2020/01/31 07:11:49.1	92.280	-0.360	-0.320	0.450
2020/01/31 07:11:49.2	92.270	-0.330	-0.310	0.540
2020/01/31 07:11:49.3	92.270	-0.290	-0.310	0.630
2020/01/31 07:11:49.4	92.260	-0.260	-0.300	0.720
2020/01/31 07:11:49.5	92.260	-0.220	-0.300	0.800
2020/01/31 07:11:49.6	92.250	-0.180	-0.300	0.890
2020/01/31 07:11:49.7	92.240	-0.140	-0.300	0.980
2020/01/31 07:11:49.8	92.240	-0.100	-0.300	1.070
2020/01/31 07:11:49.9	92.230	-0.060	-0.300	1.160
2020/01/31 07:11:50.0	92.230	-0.020	-0.300	1.250
2020/01/31 07:11:50.1	92.230	0.020	-0.300	1.340
2020/01/31 07:11:50.2	92.220	0.050	-0.290	1.420
2020/01/31 07:11:50.3	92.220	0.090	-0.290	1.510
2020/01/31 07:11:50.4	92.220	0.130	-0.280	1.590
2020/01/31 07:11:50.5	92.220	0.160	-0.280	1.670
2020/01/31 07:11:50.6	92.220	0.190	-0.270	1.740
2020/01/31 07:11:50.7	92.220	0.220	-0.260	1.810
2020/01/31 07:11:50.8	92.220	0.250	-0.250	1.880
2020/01/31 07:11:50.9	92.220	0.270	-0.230	1.950
2020/01/31 07:11:51.0	92.220	0.290	-0.220	2.010
2020/01/31 07:11:51.1	92.230	0.310	-0.200	2.070
2020/01/31 07:11:51.2	92.230	0.330	-0.180	2.130
2020/01/31 07:11:51.3	92.240	0.340	-0.160	2.180
2020/01/31 07:11:51.4	92.250	0.350	-0.140	2.220
2020/01/31 07:11:51.5	92.260	0.350	-0.120	2.270
2020/01/31 07:11:51.6	92.270	0.350	-0.100	2.300
2020/01/31 07:11:51.7	92.270	0.350	-0.080	2.340
2020/01/31 07:11:51.8	92.280	0.350	-0.050	2.370
2020/01/31 07:11:51.9	92.300	0.340	-0.030	2.400
2020/01/31 07:11:52.0	92.310	0.330	-0.000	2.420
2020/01/31 07:11:52.1	92.320	0.320	0.020	2.440
2020/01/31 07:11:52.2	92.330	0.300	0.040	2.460
2020/01/31 07:11:52.3	92.340	0.280	0.070	2.470
2020/01/31 07:11:52.4	92.350	0.260	0.100	2.490
2020/01/31 07:11:52.5	92.360	0.240	0.120	2.500
2020/01/31 07:11:52.6	92.370	0.220	0.140	2.510
2020/01/31 07:11:52.7	92.370	0.190	0.160	2.510
2020/01/31 07:11:52.8	92.380	0.170	0.180	2.520
2020/01/31 07:11:52.9	92.380	0.140	0.190	2.520
2020/01/31 07:11:53.0	92.380	0.110	0.210	2.530
2020/01/31 07:11:53.1	92.380	0.080	0.230	2.530
2020/01/31 07:11:53.2	92.380	0.050	0.240	2.530
2020/01/31 07:11:53.3	92.370	0.020	0.250	2.530
2020/01/31 07:11:53.4	92.360	-0.010	0.260	2.530
2020/01/31 07:11:53.5	92.350	-0.030	0.270	2.530
2020/01/31 07:11:53.6	92.340	-0.060	0.280	2.530
2020/01/31 07:11:53.7	92.330	-0.090	0.280	2.530
2020/01/31 07:11:53.8	92.320	-0.110	0.290	2.520
2020/01/31 07:11:53.9	92.300	-0.140	0.290	2.520
2020/01/31 07:11:54.0	92.290	-0.160	0.280	2.510
2020/01/31 07:11:54.1	92.270	-0.180	0.280	2.500
2020/01/31 07:11:54.2	92.250	-0.200	0.270	2.490
2020/01/31 07:11:54.3	92.230	-0.210	0.260	2.480
2020/01/31 07:11:54.4	92.210	-0.230	0.250	2.460
2020/01/31 07:11:54.5	92.190	-0.240	0.240	2.440
2020/01/31 07:11:54.6	92.170	-0.250	0.220	2.430
2020/01/31 07:11:54.7	92.150	-0.260	0.190	2.410
2020/01/31 07:11:54.8	92.130	-0.260	0.170	2.380
2020/01/31 07:11:54.9	92.100	-0.270	0.140	2.360
2020/01/31 07:11:55.0	92.080	-0.270	0.110	2.330
2020/01/31 07:11:55.1	92.060	-0.260	0.080	2.310
2020/01/31 07:11:55.2	92.040	-0.260	0.040	2.280
2020/01/31 07:11:55.3	92.010	-0.250	0.000	2.250
2020/01/31 07:11:55.4	91.990	-0.240	-0.040	2.220
2020/01/31 07:11:55.5	91.970	-0.230	-0.090	2.180
2020/01/31 07:11:55.6	91.950	-0.210	-0.130	2.150
2020/01/31 07:11:55.7	91.930	-0.200	-0.180	2.120
2020/01/31 07:11:55.8	91.910	-0.180	-0.230	2.080
2020/01/31 07:11:55.9	91.890	-0.160	-0.290	2.050
2020/01/31 07:11:56.0	91.870	-0.130	-0.340	2.010
2020/01/31 07:11:56.1	91.850	-0.110	-0.390	1.970
2020/01/31 07:11:56.2	91.830	-0.080	-0.450	1.940
2020/01/31 07:11:56.3	91.800	-0.060	-0.500	1.890
2020/01/31 07:11:56.4	91.790	-0.030	-0.550	1.850
2020/01/31 07:11:56.5	91.770	-0.000	-0.600	1.810
2020/01/31 07:11:56.6	91.760	0.030	-0.650	1.770
2020/01/31 07:11:56.7	91.740	0.060	-0.700	1.730
2020/01/31 07:11:56.8	91.730	0.090	-0.740	1.680
2020/01/31 07:11:56.9	91.720	0.110	-0.790	1.630
2020/01/31 07:11:57.0	91.710	0.140	-0.830	1.580
2020/01/31 07:11:57.1	91.700	0.170	-0.870	1.530
2020/01/31 07:11:57.2	91.700	0.200	-0.900	1.480
2020/01/31 07:11:57.3	91.690	0.230	-0.930	1.420
2020/01/31 07:11:57.4	91.690	0.250	-0.960	1.360
2020/01/31 07:11:57.5	91.690	0.280	-0.980	1.310
2020/01/31 07:11:57.6	91.700	0.310	-1.000	1.240
2020/01/31 07:11:57.7	91.700	0.330	-1.010	1.180
2020/01/31 07:11:57.8	91.710	0.350	-1.020	1.120
2020/01/31 07:11:57.9	91.720	0.370	-1.020	1.050
2020/01/31 07:11:58.0	91.740	0.390	-1.020	0.990
2020/01/31 07:11:58.1	91.750	0.410	-1.010	0.920
2020/01/31 07:11:58.2	91.770	0.430	-1.000	0.860
2020/01/31 07:11:58.3	91.790	0.440	-0.980	0.790
2020/01/31 07:11:58.4	91.800	0.450	-0.960	0.730
2020/01/31 07:11:58.5	91.820	0.470	-0.930	0.670
2020/01/31 07:11:58.6	91.850	0.480	-0.900	0.610
2020/01/31 07:11:58.7	91.870	0.490	-0.870	0.550
2020/01/31 07:11:58.8	91.890	0.500	-0.830	0.490
2020/01/31 07:11:58.9	91.910	0.500	-0.790	0.440
2020/01/31 07:11:59.0	91.930	0.510	-0.740	0.390
2020/01/31 07:11:59.1	91.960	0.510	-0.690	0.340
2020/01/31 07:11:59.2	91.980	0.520	-0.640	0.300
2020/01/31 07:11:59.3	92.000	0.520	-0.580	0.260
2020/01/31 07:11:59.4	92.020	0.520	-0.520	0.230
2020/01/31 07:11:59.5	92.040	0.520	-0.470	0.200
2020/01/31 07:11:59.6	92.060	0.520	-0.410	0.170
2020/01/31 07:11:59.7	92.070	0.510	-0.350	0.150
2020/01/31 07:11:59.8	92.090	0.510	-0.280	0.130
2020/01/31 07:11:59.9	92.100	0.510	-0.220	0.110
2020/01/31 07:12:00.0	92.110	0.500	-0.160	0.110
2020/01/31 07:12:00.1	92.120	0.490	-0.100	0.100
2020/01/31 07:12:00.2	92.130	0.480	-0.040	0.100
2020/01/31 07:12:00.3	92.140	0.470	0.020	0.110
2020/01/31 07:12:00.4	92.140	0.460	0.080	0.110
2020/01/31 07:12:00.5	92.150	0.450	0.140	0.120
2020/01/31 07:12:00.6	92.150	0.430	0.190	0.140
2020/01/31 07:12:00.7	92.140	0.410	0.250	0.160
2020/01/31 07:12:00.8	92.140	0.400	0.310	0.180
2020/01/31 07:12:00.9	92.130	0.380	0.360	0.200
2020/01/31 07:12:01.0	92.120	0.350	0.410	0.230
2020/01/31 07:12:01.1	92.120	0.330	0.460	0.250
2020/01/31 07:12:01.2	92.110	0.300	0.510	0.280
2020/01/31 07:12:01.3	92.110	0.280	0.560	0.310
2020/01/31 07:12:01.4	92.100	0.250	0.610	0.340
2020/01/31 07:12:01.5	92.090	0.220	0.650	0.380
2020/01/31 07:12:01.6	92.080	0.190	0.690	0.410
2020/01/31 07:12:01.7	92.070	0.160	0.730	0.440
2020/01/31 07:12:01.8	92.070	0.120	0.760	0.480
2020/01/31 07:12:01.9	92.060	0.090	0.790	0.510
2020/01/31 07:12:02.0	92.050	0.050	0.820	0.550
2020/01/31 07:12:02.1	92.040	0.020	0.850	0.580
2020/01/31 07:12:02.2	92.030	-0.020	0.860	0.620
2020/01/31 07:12:02.3	92.030	-0.060	0.880	0.650
2020/01/31 07:12:02.4	92.020	-0.090	0.890	0.680
2020/01/31 07:12:02.5	92.020	-0.130	0.890	0.720
2020/01/31 07:12:02.6	92.010	-0.170	0.890	0.750
2020/01/31 07:12:02.7	92.010	-0.210	0.890	0.790
2020/01/31 07:12:02.8	92.010	-0.240	0.880	0.820
2020/01/31 07:12:02.9	92.000	-0.280	0.870	0.860
2020/01/31 07:12:03.0	92.000	-0.310	0.850	0.890
2020/01/31 07:12:03.1	92.000	-0.350	0.820	0.920
2020/01/31 07:12:03.2	92.000	-0.380	0.790	0.960
2020/01/31 07:12:03.3	91.990	-0.410	0.760	1.000
2020/01/31 07:12:03.4	91.990	-0.440	0.720	1.040
2020/01/31 07:12:03.5	91.990	-0.470	0.680	1.070
2020/01/31 07:12:03.6	91.980	-0.490	0.630	1.110
2020/01/31 07:12:03.7	91.980	-0.510	0.580	1.150
2020/01/31 07:12:03.8	91.970	-0.540	0.520	1.200
2020/01/31 07:12:03.9	91.970	-0.550	0.460	1.240
2020/01/31 07:12:04.0	91.960	-0.570	0.400	1.290
2020/01/31 07:12:04.1	91.960	-0.590	0.330	1.330
2020/01/31 07:12:04.2	91.950	-0.600	0.270	1.380
2020/01/31 07:12:04.3	91.950	-0.610	0.190	1.430
2020/01/31 07:12:04.4	91.940	-0.610	0.120	1.480
2020/01/31 07:12:04.5	91.930	-0.620	0.050	1.530
2020/01/31 07:12:04.6	91.920	-0.620	-0.020	1.590
2020/01/31 07:12:04.7	91.910	-0.620	-0.090	1.640
2020/01/31 07:12:04.8	91.900	-0.620	-0.160	1.690
2020/01/31 07:12:04.9	91.890	-0.610	-0.230	1.750
2020/01/31 07:12:05.0	91.880	-0.610	-0.300	1.800
2020/01/31 07:12:05.1	91.870	-0.600	-0.370	1.850
2020/01/31 07:12:05.2	91.860	-0.590	-0.440	1.900
2020/01/31 07:12:05.3	91.850	-0.570	-0.500	1.960
2020/01/31 07:12:05.4	91.840	-0.560	-0.570	2.010
2020/01/31 07:12:05.5	91.830	-0.540	-0.630	2.050
2020/01/31 07:12:05.6	91.830	-0.530	-0.680	2.100
2020/01/31 07:12:05.7	91.820	-0.510	-0.740	2.150
2020/01/31 07:12:05.8	91.820	-0.490	-0.790	2.190
2020/01/31 07:12:05.9	91.820	-0.470	-0.840	2.240
2020/01/31 07:12:06.0	91.820	-0.450	-0.880	2.280
2020/01/31 07:12:06.1	91.820	-0.430	-0.920	2.320
2020/01/31 07:12:06.2	91.820	-0.400	-0.950	2.360
2020/01/31 07:12:06.3	91.820	-0.380	-0.990	2.400
2020/01/31 07:12:06.4	91.830	-0.360	-1.020	2.430
2020/01/31 07:12:06.5	91.830	-0.340	-1.040	2.470
2020/01/31 07:12:06.6	91.840	-0.310	-1.060	2.510
2020/01/31 07:12:06.7	91.850	-0.290	-1.070	2.540
2020/01/31 07:12:06.8	91.860	-0.270	-1.080	2.570
2020/01/31 07:12:06.9	91.870	-0.250	-1.090	2.600
2020/01/31 07:12:07.0	91.880	-0.230	-1.090	2.630
2020/01/31 07:12:07.1	91.900	-0.200	-1.090	2.650
2020/01/31 07:12:07.2	91.910	-0.180	-1.090	2.680
2020/01/31 07:12:07.3	91.910	-0.160	-1.080	2.700
2020/01/31 07:12:07.4	91.930	-0.140	-1.070	2.720
2020/01/31 07:12:07.5	91.940	-0.120	-1.060	2.740
2020/01/31 07:12:07.6	91.950	-0.100	-1.040	2.750
2020/01/31 07:12:07.7	91.960	-0.090	-1.020	2.770
2020/01/31 07:12:07.8	91.980	-0.070	-1.000	2.780
2020/01/31 07:12:07.9	91.990	-0.050	-0.980	2.780
2020/01/31 07:12:08.0	91.990	-0.030	-0.960	2.790
2020/01/31 07:12:08.1	92.000	-0.020	-0.930	2.790
2020/01/31 07:12:08.2	92.010	-0.000	-0.900	2.790
2020/01/31 07:12:08.3	92.010	0.010	-0.870	2.790
2020/01/31 07:12:08.4	92.010	0.030	-0.840	2.780
2020/01/31 07:12:08.5	92.010	0.040	-0.810	2.780
2020/01/31 07:12:08.6	92.000	0.060	-0.770	2.770
2020/01/31 07:12:08.7	91.990	0.070	-0.740	2.760
2020/01/31 07:12:08.8	91.980	0.090	-0.700	2.740
2020/01/31 07:12:08.9	91.970	0.100	-0.660	2.730
2020/01/31 07:12:09.0	91.950	0.110	-0.620	2.710
2020/01/31 07:12:09.1	91.930	0.120	-0.580	2.690
2020/01/31 07:12:09.2	91.910	0.130	-0.530	2.660
2020/01/31 07:12:09.3	91.880	0.140	-0.480	2.640
2020/01/31 07:12:09.4	91.860	0.160	-0.430	2.610
2020/01/31 07:12:09.5	91.830	0.170	-0.380	2.580
2020/01/31 07:12:09.6	91.800	0.170	-0.330	2.540
2020/01/31 07:12:09.7	91.770	0.180	-0.280	2.500
2020/01/31 07:12:09.8	91.740	0.190	-0.230	2.460
2020/01/31 07:12:09.9	91.710	0.200	-0.180	2.420
2020/01/31 07:12:10.0	91.680	0.210	-0.130	2.370
2020/01/31 07:12:10.1	91.650	0.220	-0.070	2.310
2020/01/31 07:12:10.2	91.620	0.220	-0.020	2.260
2020/01/31 07:12:10.3	91.590	0.230	0.030	2.190
2020/01/31 07:12:10.4	91.560	0.240	0.090	2.130
2020/01/31 07:12:10.5	91.540	0.240	0.140	2.060
2020/01/31 07:12:10.6	91.510	0.250	0.190	1.980
2020/01/31 07:12:10.7	91.480	0.250	0.240	1.910
2020/01/31 07:12:10.8	91.460	0.260	0.280	1.830
2020/01/31 07:12:10.9	91.440	0.260	0.330	1.740
2020/01/31 07:12:11.0	91.420	0.270	0.370	1.650
2020/01/31 07:12:11.1	91.400	0.270	0.410	1.560
2020/01/31 07:12:11.2	91.380	0.270	0.450	1.460
2020/01/31 07:12:11.3	91.380	0.270	0.480	1.370
2020/01/31 07:12:11.4	91.360	0.280	0.510	1.270
2020/01/31 07:12:11.5	91.350	0.280	0.540	1.160
2020/01/31 07:12:11.6	91.340	0.280	0.560	1.060
2020/01/31 07:12:11.7	91.330	0.280	0.580	0.950
2020/01/31 07:12:11.8	91.330	0.280	0.600	0.840
2020/01/31 07:12:11.9	91.320	0.280	0.610	0.730
2020/01/31 07:12:12.0	91.320	0.270	0.620	0.620
2020/01/31 07:12:12.1	91.320	0.270	0.630	0.510
2020/01/31 07:12:12.2	91.320	0.270	0.630	0.390
2020/01/31 07:12:12.3	91.330	0.260	0.630	0.280
2020/01/31 07:12:12.4	91.330	0.260	0.630	0.170
2020/01/31 07:12:12.5	91.330	0.250	0.620	0.070
2020/01/31 07:12:12.6	91.340	0.250	0.610	-0.040
2020/01/31 07:12:12.7	91.350	0.240	0.590	-0.140
2020/01/31 07:12:12.8	91.360	0.230	0.570	-0.250
2020/01/31 07:12:12.9	91.370	0.230	0.550	-0.340
2020/01/31 07:12:13.0	91.380	0.220	0.520	-0.440
2020/01/31 07:12:13.1	91.400	0.220	0.490	-0.530
2020/01/31 07:12:13.2	91.410	0.210	0.460	-0.620
2020/01/31 07:12:13.3	91.440	0.200	0.430	-0.710
2020/01/31 07:12:13.4	91.450	0.200	0.390	-0.790
2020/01/31 07:12:13.5	91.470	0.190	0.350	-0.870
2020/01/31 07:12:13.6	91.490	0.190	0.300	-0.940
2020/01/31 07:12:13.7	91.510	0.180	0.260	-1.000
2020/01/31 07:12:13.8	91.530	0.180	0.210	-1.070
2020/01/31 07:12:13.9	91.550	0.180	0.160	-1.120
2020/01/31 07:12:14.0	91.570	0.170	0.110	-1.170
2020/01/31 07:12:14.1	91.590	0.170	0.060	-1.220
2020/01/31 07:12:14.2	91.620	0.170	0.000	-1.250
2020/01/31 07:12:14.3	91.630	0.170	-0.060	-1.290
2020/01/31 07:12:14.4	91.650	0.180	-0.110	-1.320
2020/01/31 07:12:14.5	91.680	0.180	-0.170	-1.340
2020/01/31 07:12:14.6	91.700	0.180	-0.230	-1.350
2020/01/31 07:12:14.7	91.720	0.180	-0.280	-1.360
2020/01/31 07:12:14.8	91.750	0.190	-0.340	-1.360
2020/01/31 07:12:14.9	91.770	0.190	-0.390	-1.360
2020/01/31 07:12:15.0	91.790	0.200	-0.450	-1.350
2020/01/31 07:12:15.1	91.810	0.210	-0.500	-1.330
2020/01/31 07:12:15.2	91.830	0.210	-0.550	-1.310
2020/01/31 07:12:15.3	91.850	0.220	-0.590	-1.280
2020/01/31 07:12:15.4	91.870	0.230	-0.640	-1.240
2020/01/31 07:12:15.5	91.890	0.230	-0.680	-1.200
2020/01/31 07:12:15.6	91.910	0.240	-0.710	-1.150
2020/01/31 07:12:15.7	91.920	0.250	-0.750	-1.090
2020/01/31 07:12:15.8	91.940	0.250	-0.770	-1.030
2020/01/31 07:12:15.9	91.950	0.260	-0.790	-0.960
2020/01/31 07:12:16.0	91.950	0.260	-0.810	-0.890
2020/01/31 07:12:16.1	91.960	0.270	-0.820	-0.800
2020/01/31 07:12:16.2	91.960	0.270	-0.830	-0.720
2020/01/31 07:12:16.3	91.960	0.270	-0.840	-0.620
2020/01/31 07:12:16.4	91.950	0.270	-0.830	-0.520
2020/01/31 07:12:16.5	91.940	0.270	-0.820	-0.410
2020/01/31 07:12:16.6	91.930	0.270	-0.810	-0.290
2020/01/31 07:12:16.7	91.920	0.260	-0.790	-0.170
2020/01/31 07:12:16.8	91.900	0.250	-0.760	-0.040
2020/01/31 07:12:16.9	91.870	0.240	-0.730	0.090
2020/01/31 07:12:17.0	91.840	0.230	-0.700	0.230
2020/01/31 07:12:17.1	91.810	0.220	-0.660	0.380
2020/01/31 07:12:17.2	91.780	0.210	-0.610	0.530
2020/01/31 07:12:17.3	91.740	0.190	-0.570	0.680
2020/01/31 07:12:17.4	91.690	0.170	-0.520	0.830
2020/01/31 07:12:17.5	91.650	0.150	-0.470	0.990
2020/01/31 07:12:17.6	91.610	0.130	-0.420	1.160
2020/01/31 07:12:17.7	91.560	0.100	-0.360	1.320
2020/01/31 07:12:17.8	91.510	0.080	-0.310	1.480
2020/01/31 07:12:17.9	91.460	0.050	-0.260	1.650
2020/01/31 07:12:18.0	91.420	0.020	-0.200	1.810
2020/01/31 07:12:18.1	91.370	-0.000	-0.150	1.980
2020/01/31 07:12:18.2	91.320	-0.030	-0.100	2.140
2020/01/31 07:12:18.3	91.280	-0.070	-0.050	2.300
2020/01/31 07:12:18.4	91.240	-0.100	0.000	2.460
2020/01/31 07:12:18.5	91.200	-0.130	0.050	2.610
2020/01/31 07:12:18.6	91.170	-0.160	0.090	2.760
2020/01/31 07:12:18.7	91.140	-0.200	0.140	2.900
2020/01/31 07:12:18.8	91.110	-0.230	0.180	3.040
2020/01/31 07:12:18.9	91.090	-0.260	0.210	3.170
2020/01/31 07:12:19.0	91.070	-0.290	0.240	3.300
2020/01/31 07:12:19.1	91.050	-0.330	0.270	3.410
2020/01/31 07:12:19.2	91.040	-0.360	0.300	3.530
2020/01/31 07:12:19.3	91.030	-0.390	0.330	3.630
2020/01/31 07:12:19.4	91.030	-0.420	0.350	3.730
2020/01/31 07:12:19.5	91.030	-0.450	0.360	3.820
2020/01/31 07:12:19.6	91.040	-0.480	0.380	3.900
2020/01/31 07:12:19.7	91.050	-0.500	0.380	3.970
2020/01/31 07:12:19.8	91.060	-0.530	0.390	4.030
2020/01/31 07:12:19.9	91.080	-0.550	0.390	4.090
2020/01/31 07:12:20.0	91.100	-0.570	0.390	4.130
2020/01/31 07:12:20.1	91.120	-0.600	0.380	4.170
2020/01/31 07:12:20.2	91.150	-0.610	0.370	4.200
2020/01/31 07:12:20.3	91.160	-0.630	0.360	4.210
2020/01/31 07:12:20.4	91.190	-0.650	0.340	4.220
2020/01/31 07:12:20.5	91.220	-0.660	0.320	4.220
2020/01/31 07:12:20.6	91.250	-0.670	0.300	4.220
2020/01/31 07:12:20.7	91.290	-0.680	0.280	4.200
2020/01/31 07:12:20.8	91.320	-0.690	0.250	4.180
2020/01/31 07:12:20.9	91.350	-0.690	0.220	4.150
2020/01/31 07:12:21.0	91.390	-0.690	0.190	4.110
2020/01/31 07:12:21.1	91.420	-0.690	0.160	4.060
2020/01/31 07:12:21.2	91.460	-0.690	0.120	4.010
2020/01/31 07:12:21.3	91.480	-0.690	0.090	3.950
2020/01/31 07:12:21.4	91.510	-0.680	0.050	3.890
2020/01/31 07:12:21.5	91.540	-0.670	0.010	3.820
2020/01/31 07:12:21.6	91.570	-0.660	-0.030	3.740
2020/01/31 07:12:21.7	91.600	-0.640	-0.070	3.660
2020/01/31 07:12:21.8	91.620	-0.630	-0.110	3.580
2020/01/31 07:12:21.9	91.640	-0.610	-0.150	3.490
2020/01/31 07:12:22.0	91.670	-0.580	-0.190	3.410
2020/01/31 07:12:22.1	91.690	-0.560	-0.230	3.310
2020/01/31 07:12:22.2	91.700	-0.530	-0.270	3.220
2020/01/31 07:12:22.3	91.710	-0.510	-0.310	3.120
2020/01/31 07:12:22.4	91.730	-0.480	-0.340	3.030
2020/01/31 07:12:22.5	91.740	-0.440	-0.380	2.930
2020/01/31 07:12:22.6	91.740	-0.410	-0.420	2.840
2020/01/31 07:12:22.7	91.750	-0.380	-0.450	2.740
2020/01/31 07:12:22.8	91.750	-0.340	-0.480	2.650
2020/01/31 07:12:22.9	91.750	-0.300	-0.510	2.560
2020/01/31 07:12:23.0	91.750	-0.260	-0.540	2.460
2020/01/31 07:12:23.1	91.740	-0.220	-0.570	2.370
2020/01/31 07:12:23.2	91.740	-0.180	-0.600	2.280
2020/01/31 07:12:23.3	91.740	-0.140	-0.620	2.200
2020/01/31 07:12:23.4	91.720	-0.100	-0.640	2.110
2020/01/31 07:12:23.5	91.710	-0.060	-0.670	2.020
2020/01/31 07:12:23.6	91.700	-0.020	-0.690	1.940
2020/01/31 07:12:23.7	91.680	0.030	-0.710	1.850
2020/01/31 07:12:23.8	91.670	0.070	-0.720	1.770
2020/01/31 07:12:23.9	91.650	0.110	-0.740	1.690
2020/01/31 07:12:24.0	91.640	0.150	-0.750	1.610
2020/01/31 07:12:24.1	91.620	0.190	-0.760	1.530
2020/01/31 07:12:24.2	91.600	0.220	-0.770	1.450
2020/01/31 07:12:24.3	91.580	0.260	-0.770	1.360
2020/01/31 07:12:24.4	91.560	0.290	-0.780	1.280
2020/01/31 07:12:24.5	91.550	0.330	-0.780	1.200
2020/01/31 07:12:24.6	91.530	0.360	-0.770	1.120
2020/01/31 07:12:24.7	91.510	0.390	-0.770	1.050
2020/01/31 07:12:24.8	91.490	0.420	-0.760	0.970
2020/01/31 07:12:24.9	91.470	0.440	-0.740	0.890
2020/01/31 07:12:25.0	91.450	0.460	-0.730	0.810
2020/01/31 07:12:25.1	91.430	0.480	-0.710	0.730
2020/01/31 07:12:25.2	91.410	0.500	-0.680	0.660
2020/01/31 07:12:25.3	91.390	0.520	-0.660	0.580
2020/01/31 07:12:25.4	91.370	0.530	-0.630	0.510
2020/01/31 07:12:25.5	91.350	0.540	-0.590	0.430
2020/01/31 07:12:25.6	91.330	0.550	-0.560	0.360
2020/01/31 07:12:25.7	91.310	0.550	-0.520	0.290
2020/01/31 07:12:25.8	91.290	0.550	-0.470	0.210
2020/01/31 07:12:25.9	91.270	0.550	-0.430	0.140
2020/01/31 07:12:26.0	91.250	0.550	-0.380	0.080
2020/01/31 07:12:26.1	91.230	0.550	-0.330	0.010
2020/01/31 07:12:26.2	91.210	0.540	-0.280	-0.060
2020/01/31 07:12:26.3	91.200	0.530	-0.220	-0.120
2020/01/31 07:12:26.4	91.180	0.520	-0.170	-0.190
2020/01/31 07:12:26.5	91.160	0.510	-0.110	-0.250
2020/01/31 07:12:26.6	91.140	0.500	-0.050	-0.310
2020/01/31 07:12:26.7	91.130	0.480	0.000	-0.370
2020/01/31 07:12:26.8	91.110	0.470	0.060	-0.430
2020/01/31 07:12:26.9	91.100	0.450	0.110	-0.480
2020/01/31 07:12:27.0	91.080	0.440	0.160	-0.540
2020/01/31 07:12:27.1	91.070	0.420	0.210	-0.590
2020/01/31 07:12:27.2	91.060	0.400	0.260	-0.650
2020/01/31 07:12:27.3	91.050	0.380	0.310	-0.700
2020/01/31 07:12:27.4	91.050	0.370	0.350	-0.750
2020/01/31 07:12:27.5	91.040	0.350	0.390	-0.800
2020/01/31 07:12:27.6	91.030	0.330	0.430	-0.840
2020/01/31 07:12:27.7	91.030	0.320	0.460	-0.890
2020/01/31 07:12:27.8	91.030	0.300	0.490	-0.930
2020/01/31 07:12:27.9	91.020	0.290	0.510	-0.970
2020/01/31 07:12:28.0	91.020	0.280	0.530	-1.000
2020/01/31 07:12:28.1	91.020	0.260	0.540	-1.040
2020/01/31 07:12:28.2	91.030	0.250	0.550	-1.070
2020/01/31 07:12:28.3	91.030	0.240	0.550	-1.100
2020/01/31 07:12:28.4	91.030	0.230	0.550	-1.130
2020/01/31 07:12:28.5	91.040	0.230	0.540	-1.150
2020/01/31 07:12:28.6	91.040	0.220	0.530	-1.170
2020/01/31 07:12:28.7	91.050	0.210	0.510	-1.190
2020/01/31 07:12:28.8	91.060	0.210	0.480	-1.200
2020/01/31 07:12:28.9	91.080	0.210	0.460	-1.210
2020/01/31 07:12:29.0	91.090	0.200	0.430	-1.220
2020/01/31 07:12:29.1	91.110	0.200	0.390	-1.220
2020/01/31 07:12:29.2	91.130	0.190	0.350	-1.220
2020/01/31 07:12:29.3	91.150	0.190	0.310	-1.210
2020/01/31 07:12:29.4	91.170	0.190	0.270	-1.200
2020/01/31 07:12:29.5	91.200	0.180	0.220	-1.190
2020/01/31 07:12:29.6	91.220	0.180	0.180	-1.160
2020/01/31 07:12:29.7	91.250	0.180	0.130	-1.130
2020/01/31 07:12:29.8	91.280	0.170	0.090	-1.100
2020/01/31 07:12:29.9	91.300	0.160	0.040	-1.060
2020/01/31 07:12:30.0	91.330	0.160	-0.010	-1.010
2020/01/31 07:12:30.1	91.360	0.150	-0.050	-0.960
2020/01/31 07:12:30.2	91.390	0.140	-0.090	-0.900
2020/01/31 07:12:30.3	91.420	0.130	-0.140	-0.830
2020/01/31 07:12:30.4	91.440	0.120	-0.180	-0.750
2020/01/31 07:12:30.5	91.460	0.110	-0.220	-0.670
2020/01/31 07:12:30.6	91.490	0.090	-0.250	-0.570
2020/01/31 07:12:30.7	91.510	0.080	-0.280	-0.480
2020/01/31 07:12:30.8	91.520	0.060	-0.310	-0.370
2020/01/31 07:12:30.9	91.540	0.040	-0.340	-0.260
2020/01/31 07:12:31.0	91.550	0.020	-0.370	-0.140
2020/01/31 07:12:31.1	91.560	0.010	-0.390	-0.010
2020/01/31 07:12:31.2	91.570	-0.010	-0.400	0.120
2020/01/31 07:12:31.3	91.580	-0.030	-0.420	0.250
2020/01/31 07:12:31.4	91.580	-0.050	-0.430	0.400
2020/01/31 07:12:31.5	91.580	-0.080	-0.440	0.540
2020/01/31 07:12:31.6	91.580	-0.100	-0.450	0.690
2020/01/31 07:12:31.7	91.580	-0.120	-0.450	0.850
2020/01/31 07:12:31.8	91.570	-0.140	-0.450	1.000
2020/01/31 07:12:31.9	91.570	-0.160	-0.450	1.160
2020/01/31 07:12:32.0	91.560	-0.190	-0.440	1.320
2020/01/31 07:12:32.1	91.550	-0.210	-0.430	1.480
2020/01/31 07:12:32.2	91.540	-0.230	-0.420	1.640
2020/01/31 07:12:32.3	91.520	-0.250	-0.410	1.800
2020/01/31 07:12:32.4	91.510	-0.270	-0.400	1.960
2020/01/31 07:12:32.5	91.490	-0.290	-0.380	2.110
2020/01/31 07:12:32.6	91.480	-0.310	-0.360	2.260
2020/01/31 07:12:32.7	91.470	-0.320	-0.340	2.420
2020/01/31 07:12:32.8	91.460	-0.340	-0.320	2.560
2020/01/31 07:12:32.9	91.440	-0.360	-0.300	2.700
2020/01/31 07:12:33.0	91.430	-0.370	-0.280	2.840
2020/01/31 07:12:33.1	91.410	-0.390	-0.260	2.980
2020/01/31 07:12:33.2	91.400	-0.400	-0.230	3.110
2020/01/31 07:12:33.3	91.380	-0.410	-0.210	3.240
2020/01/31 07:12:33.4	91.360	-0.420	-0.190	3.360
2020/01/31 07:12:33.5	91.350	-0.430	-0.170	3.470
2020/01/31 07:12:33.6	91.330	-0.430	-0.150	3.580
2020/01/31 07:12:33.7	91.320	-0.440	-0.130	3.680
2020/01/31 07:12:33.8	91.300	-0.440	-0.120	3.780
2020/01/31 07:12:33.9	91.280	-0.440	-0.100	3.870
2020/01/31 07:12:34.0	91.270	-0.440	-0.090	3.960
2020/01/31 07:12:34.1	91.250	-0.440	-0.080	4.040
2020/01/31 07:12:34.2	91.240	-0.440	-0.070	4.120
2020/01/31 07:12:34.3	91.210	-0.430	-0.060	4.190
2020/01/31 07:12:34.4	91.200	-0.420	-0.060	4.250
2020/01/31 07:12:34.5	91.180	-0.420	-0.060	4.300
2020/01/31 07:12:34.6	91.170	-0.410	-0.060	4.350
2020/01/31 07:12:34.7	91.150	-0.400	-0.060	4.400
2020/01/31 07:12:34.8	91.140	-0.380	-0.060	4.430
2020/01/31 07:12:34.9	91.120	-0.370	-0.070	4.460
2020/01/31 07:12:35.0	91.110	-0.350	-0.070	4.490
2020/01/31 07:12:35.1	91.100	-0.340	-0.080	4.500
2020/01/31 07:12:35.2	91.090	-0.320	-0.100	4.510
2020/01/31 07:12:35.3	91.070	-0.300	-0.110	4.520
2020/01/31 07:12:35.4	91.060	-0.280	-0.130	4.510
2020/01/31 07:12:35.5	91.050	-0.260	-0.150	4.500
2020/01/31 07:12:35.6	91.040	-0.230	-0.170	4.490
2020/01/31 07:12:35.7	91.040	-0.210	-0.190	4.460
2020/01/31 07:12:35.8	91.040	-0.190	-0.220	4.430
2020/01/31 07:12:35.9	91.030	-0.160	-0.240	4.390
2020/01/31 07:12:36.0	91.040	-0.140	-0.270	4.350
2020/01/31 07:12:36.1	91.040	-0.110	-0.300	4.290
2020/01/31 07:12:36.2	91.040	-0.090	-0.330	4.230
2020/01/31 07:12:36.3	91.040	-0.060	-0.350	4.160
2020/01/31 07:12:36.4	91.050	-0.030	-0.380	4.090
2020/01/31 07:12:36.5	91.060	-0.010	-0.410	4.010
2020/01/31 07:12:36.6	91.070	0.020	-0.440	3.920
2020/01/31 07:12:36.7	91.090	0.050	-0.470	3.820
2020/01/31 07:12:36.8	91.100	0.070	-0.490	3.720
2020/01/31 07:12:36.9	91.120	0.100	-0.520	3.610
2020/01/31 07:12:37.0	91.130	0.120	-0.540	3.490
2020/01/31 07:12:37.1	91.150	0.150	-0.560	3.370
2020/01/31 07:12:37.2	91.170	0.170	-0.580	3.250
2020/01/31 07:12:37.3	91.190	0.190	-0.600	3.110
2020/01/31 07:12:37.4	91.210	0.210	-0.620	2.970
2020/01/31 07:12:37.5	91.230	0.240	-0.630	2.830
2020/01/31 07:12:37.6	91.250	0.260	-0.640	2.680
2020/01/31 07:12:37.7	91.270	0.270	-0.640	2.530
2020/01/31 07:12:37.8	91.290	0.290	-0.640	2.380
2020/01/31 07:12:37.9	91.310	0.310	-0.640	2.220
2020/01/31 07:12:38.0	91.330	0.320	-0.630	2.060
2020/01/31 07:12:38.1	91.340	0.340	-0.620	1.900
2020/01/31 07:12:38.2	91.360	0.350	-0.610	1.740
2020/01/31 07:12:38.3	91.380	0.360	-0.590	1.580
2020/01/31 07:12:38.4	91.390	0.360	-0.560	1.420
2020/01/31 07:12:38.5	91.390	0.370	-0.540	1.260
2020/01/31 07:12:38.6	91.400	0.370	-0.510	1.100
2020/01/31 07:12:38.7	91.400	0.370	-0.470	0.940
2020/01/31 07:12:38.8	91.400	0.370	-0.440	0.790
2020/01/31 07:12:38.9	91.400	0.370	-0.400	0.630
2020/01/31 07:12:39.0	91.390	0.360	-0.350	0.480
2020/01/31 07:12:39.1	91.380	0.350	-0.310	0.330
2020/01/31 07:12:39.2	91.380	0.340	-0.260	0.190
2020/01/31 07:12:39.3	91.370	0.330	-0.200	0.050
2020/01/31 07:12:39.4	91.360	0.320	-0.150	-0.080
2020/01/31 07:12:39.5	91.340	0.300	-0.100	-0.210
2020/01/31 07:12:39.6	91.330	0.280	-0.040	-0.340
2020/01/31 07:12:39.7	91.310	0.260	0.010	-0.460
2020/01/31 07:12:39.8	91.300	0.240	0.070	-0.580
2020/01/31 07:12:39.9	91.280	0.210	0.120	-0.690
2020/01/31 07:12:40.0	91.260	0.190	0.170	-0.790
2020/01/31 07:12:40.1	91.240	0.160	0.230	-0.890
2020/01/31 07:12:40.2	91.230	0.130	0.280	-0.980
2020/01/31 07:12:40.3	91.220	0.100	0.330	-1.070
2020/01/31 07:12:40.4	91.200	0.080	0.370	-1.150
2020/01/31 07:12:40.5	91.180	0.050	0.420	-1.220
2020/01/31 07:12:40.6	91.170	0.020	0.460	-1.290
2020/01/31 07:12:40.7	91.150	-0.010	0.490	-1.350
2020/01/31 07:12:40.8	91.140	-0.040	0.530	-1.400
2020/01/31 07:12:40.9	91.120	-0.070	0.560	-1.440
2020/01/31 07:12:41.0	91.110	-0.100	0.580	-1.480
2020/01/31 07:12:41.1	91.100	-0.120	0.600	-1.510
2020/01/31 07:12:41.2	91.090	-0.150	0.610	-1.540
2020/01/31 07:12:41.3	91.080	-0.170	0.620	-1.550
2020/01/31 07:12:41.4	91.070	-0.190	0.620	-1.560
2020/01/31 07:12:41.5	91.060	-0.210	0.610	-1.570
2020/01/31 07:12:41.6	91.050	-0.230	0.600	-1.560
2020/01/31 07:12:41.7	91.050	-0.250	0.590	-1.560
2020/01/31 07:12:41.8	91.040	-0.260	0.570	-1.540
2020/01/31 07:12:41.9	91.030	-0.270	0.540	-1.520
2020/01/31 07:12:42.0	91.030	-0.280	0.510	-1.500
2020/01/31 07:12:42.1	91.020	-0.290	0.480	-1.470
2020/01/31 07:12:42.2	91.020	-0.290	0.440	-1.440
2020/01/31 07:12:42.3	91.010	-0.290	0.390	-1.410
2020/01/31 07:12:42.4	91.010	-0.290	0.340	-1.370
2020/01/31 07:12:42.5	91.010	-0.290	0.290	-1.330
2020/01/31 07:12:42.6	91.010	-0.280	0.240	-1.290
2020/01/31 07:12:42.7	91.010	-0.270	0.180	-1.240
2020/01/31 07:12:42.8	91.020	-0.260	0.130	-1.190
2020/01/31 07:12:42.9	91.020	-0.250	0.070	-1.150
2020/01/31 07:12:43.0	91.030	-0.240	0.010	-1.090
2020/01/31 07:12:43.1	91.040	-0.220	-0.050	-1.040
2020/01/31 07:12:43.2	91.040	-0.200	-0.110	-0.990
2020/01/31 07:12:43.3	91.060	-0.180	-0.180	-0.930
2020/01/31 07:12:43.4	91.070	-0.160	-0.240	-0.880
2020/01/31 07:12:43.5	91.080	-0.140	-0.300	-0.820
2020/01/31 07:12:43.6	91.100	-0.110	-0.350	-0.770
2020/01/31 07:12:43.7	91.110	-0.090	-0.410	-0.710
2020/01/31 07:12:43.8	91.120	-0.060	-0.460	-0.650
2020/01/31 07:12:43.9	91.140	-0.030	-0.520	-0.590
2020/01/31 07:12:44.0	91.150	-0.010	-0.560	-0.520
2020/01/31 07:12:44.1	91.160	0.020	-0.610	-0.460
2020/01/31 07:12:44.2	91.180	0.050	-0.650	-0.390
2020/01/31 07:12:44.3	91.190	0.080	-0.690	-0.330
2020/01/31 07:12:44.4	91.200	0.110	-0.720	-0.250
2020/01/31 07:12:44.5	91.220	0.130	-0.750	-0.180
2020/01/31 07:12:44.6	91.230	0.160	-0.780	-0.110
2020/01/31 07:12:44.7	91.240	0.190	-0.800	-0.030
2020/01/31 07:12:44.8	91.250	0.210	-0.810	0.050
2020/01/31 07:12:44.9	91.260	0.240	-0.820	0.130
2020/01/31 07:12:45.0	91.260	0.260	-0.830	0.220
2020/01/31 07:12:45.1	91.270	0.280	-0.830	0.310
2020/01/31 07:12:45.2	91.280	0.300	-0.820	0.400
2020/01/31 07:12:45.3	91.280	0.320	-0.820	0.490
2020/01/31 07:12:45.4	91.290	0.330	-0.800	0.590
2020/01/31 07:12:45.5	91.290	0.350	-0.780	0.690
2020/01/31 07:12:45.6	91.290	0.360	-0.760	0.800
2020/01/31 07:12:45.7	91.290	0.370	-0.730	0.900
2020/01/31 07:12:45.8	91.280	0.380	-0.700	1.020
2020/01/31 07:12:45.9	91.280	0.380	-0.670	1.130
2020/01/31 07:12:46.0	91.270	0.390	-0.630	1.250
2020/01/31 07:12:46.1	91.260	0.390	-0.590	1.370
2020/01/31 07:12:46.2	91.260	0.380	-0.550	1.490
2020/01/31 07:12:46.3	91.240	0.380	-0.500	1.620
2020/01/31 07:12:46.4	91.230	0.370	-0.460	1.750
2020/01/31 07:12:46.5	91.220	0.370	-0.410	1.880
2020/01/31 07:12:46.6	91.210	0.350	-0.370	2.010
2020/01/31 07:12:46.7	91.200	0.340	-0.320	2.140
2020/01/31 07:12:46.8	91.190	0.330	-0.270	2.270
2020/01/31 07:12:46.9	91.170	0.310	-0.220	2.400
2020/01/31 07:12:47.0	91.160	0.290	-0.180	2.530
2020/01/31 07:12:47.1	91.150	0.270	-0.130	2.660
2020/01/31 07:12:47.2	91.140	0.250	-0.090	2.790
2020/01/31 07:12:47.3	91.130	0.220	-0.040	2.910
2020/01/31 07:12:47.4	91.120	0.190	-0.000	3.030
2020/01/31 07:12:47.5	91.110	0.170	0.040	3.150
2020/01/31 07:12:47.6	91.100	0.140	0.070	3.260
2020/01/31 07:12:47.7	91.100	0.110	0.110	3.370
2020/01/31 07:12:47.8	91.090	0.080	0.140	3.470
2020/01/31 07:12:47.9	91.090	0.050	0.170	3.570
2020/01/31 07:12:48.0	91.080	0.010	0.200	3.660
2020/01/31 07:12:48.1	91.080	-0.020	0.220	3.750
2020/01/31 07:12:48.2	91.080	-0.050	0.240	3.830
2020/01/31 07:12:48.3	91.080	-0.080	0.260	3.900
2020/01/31 07:12:48.4	91.080	-0.120	0.280	3.970
2020/01/31 07:12:48.5	91.080	-0.150	0.290	4.030
2020/01/31 07:12:48.6	91.080	-0.180	0.300	4.080
2020/01/31 07:12:48.7	91.090	-0.210	0.300	4.130
2020/01/31 07:12:48.8	91.090	-0.230	0.300	4.170
2020/01/31 07:12:48.9	91.090	-0.260	0.300	4.200
2020/01/31 07:12:49.0	91.100	-0.280	0.300	4.230
2020/01/31 07:12:49.1	91.100	-0.310	0.290	4.250
2020/01/31 07:12:49.2	91.110	-0.330	0.280	4.260
2020/01/31 07:12:49.3	91.100	-0.340	0.270	4.270
2020/01/31 07:12:49.4	91.100	-0.360	0.250	4.270
2020/01/31 07:12:49.5	91.110	-0.370	0.230	4.270
2020/01/31 07:12:49.6	91.110	-0.380	0.210	4.260
2020/01/31 07:12:49.7	91.120	-0.390	0.180	4.240
2020/01/31 07:12:49.8	91.120	-0.390	0.150	4.220
2020/01/31 07:12:49.9	91.130	-0.390	0.130	4.200
2020/01/31 07:12:50.0	91.130	-0.390	0.090	4.160
2020/01/31 07:12:50.1	91.130	-0.390	0.060	4.130
2020/01/31 07:12:50.2	91.140	-0.380	0.020	4.090
2020/01/31 07:12:50.3	91.130	-0.370	-0.010	4.040
2020/01/31 07:12:50.4	91.130	-0.360	-0.050	3.990
2020/01/31 07:12:50.5	91.130	-0.340	-0.090	3.930
2020/01/31 07:12:50.6	91.140	-0.330	-0.130	3.870
2020/01/31 07:12:50.7	91.130	-0.310	-0.170	3.810
2020/01/31 07:12:50.8	91.130	-0.290	-0.210	3.740
2020/01/31 07:12:50.9	91.130	-0.260	-0.260	3.670
2020/01/31 07:12:51.0	91.130	-0.240	-0.300	3.600
2020/01/31 07:12:51.1	91.130	-0.220	-0.340	3.530
2020/01/31 07:12:51.2	91.120	-0.190	-0.380	3.450
2020/01/31 07:12:51.3	91.110	-0.160	-0.420	3.360
2020/01/31 07:12:51.4	91.100	-0.130	-0.460	3.280
2020/01/31 07:12:51.5	91.100	-0.110	-0.490	3.200
2020/01/31 07:12:51.6	91.090	-0.080	-0.530	3.110
2020/01/31 07:12:51.7	91.080	-0.050	-0.560	3.020
2020/01/31 07:12:51.8	91.070	-0.020	-0.590	2.930
2020/01/31 07:12:51.9	91.060	0.000	-0.620	2.830
2020/01/31 07:12:52.0	91.050	0.030	-0.640	2.740
2020/01/31 07:12:52.1	91.040	0.050	-0.660	2.640
2020/01/31 07:12:52.2	91.030	0.080	-0.680	2.540
2020/01/31 07:12:52.3	91.020	0.100	-0.690	2.440
2020/01/31 07:12:52.4	91.010	0.120	-0.700	2.340
2020/01/31 07:12:52.5	91.000	0.140	-0.710	2.230
2020/01/31 07:12:52.6	90.990	0.150	-0.710	2.130
2020/01/31 07:12:52.7	90.980	0.170	-0.710	2.020
2020/01/31 07:12:52.8	90.970	0.180	-0.700	1.910
2020/01/31 07:12:52.9	90.960	0.200	-0.690	1.790
2020/01/31 07:12:53.0	90.960	0.210	-0.680	1.680
2020/01/31 07:12:53.1	90.950	0.220	-0.660	1.560
2020/01/31 07:12:53.2	90.940	0.220	-0.630	1.440
2020/01/31 07:12:53.3	90.940	0.230	-0.610	1.320
2020/01/31 07:12:53.4	90.930	0.230	-0.570	1.200
2020/01/31 07:12:53.5	90.930	0.240	-0.540	1.080
2020/01/31 07:12:53.6	90.930	0.240	-0.500	0.960
2020/01/31 07:12:53.7	90.920	0.240	-0.460	0.840
2020/01/31 07:12:53.8	90.920	0.230	-0.410	0.710
2020/01/31 07:12:53.9	90.920	0.230	-0.360	0.590
2020/01/31 07:12:54.0	90.920	0.220	-0.310	0.480
2020/01/31 07:12:54.1	90.920	0.220	-0.260	0.360
2020/01/31 07:12:54.2	90.920	0.210	-0.210	0.240
2020/01/31 07:12:54.3	90.920	0.200	-0.150	0.130
2020/01/31 07:12:54.4	90.920	0.190	-0.100	0.020
2020/01/31 07:12:54.5	90.920	0.180	-0.040	-0.090
2020/01/31 07:12:54.6	90.920	0.170	0.020	-0.200
2020/01/31 07:12:54.7	90.920	0.160	0.070	-0.300
2020/01/31 07:12:54.8	90.930	0.150	0.130	-0.400
2020/01/31 07:12:54.9	90.930	0.130	0.180	-0.490
2020/01/31 07:12:55.0	90.930	0.120	0.240	-0.590
2020/01/31 07:12:55.1	90.930	0.110	0.290	-0.670
2020/01/31 07:12:55.2	90.930	0.090	0.330	-0.760
2020/01/31 07:12:55.3	90.940	0.080	0.380	-0.840
2020/01/31 07:12:55.4	90.940	0.060	0.420	-0.910
2020/01/31 07:12:55.5	90.940	0.050	0.460	-0.990
2020/01/31 07:12:55.6	90.940	0.030	0.500	-1.050
2020/01/31 07:12:55.7	90.940	0.020	0.530	-1.120
2020/01/31 07:12:55.8	90.950	0.000	0.560	-1.180
2020/01/31 07:12:55.9	90.950	-0.010	0.580	-1.230
2020/01/31 07:12:56.0	90.950	-0.030	0.600	-1.280
2020/01/31 07:12:56.1	90.950	-0.040	0.620	-1.320
2020/01/31 07:12:56.2	90.940	-0.050	0.620	-1.360
2020/01/31 07:12:56.3	90.940	-0.070	0.630	-1.400
2020/01/31 07:12:56.4	90.940	-0.080	0.630	-1.430
2020/01/31 07:12:56.5	90.930	-0.090	0.620	-1.450
2020/01/31 07:12:56.6	90.920	-0.100	0.610	-1.470
2020/01/31 07:12:56.7	90.910	-0.110	0.600	-1.480
2020/01/31 07:12:56.8	90.900	-0.120	0.580	-1.490
2020/01/31 07:12:56.9	90.890	-0.130	0.550	-1.480
2020/01/31 07:12:57.0	90.880	-0.140	0.520	-1.480
2020/01/31 07:12:57.1	90.860	-0.140	0.490	-1.460
2020/01/31 07:12:57.2	90.840	-0.150	0.450	-1.440
2020/01/31 07:12:57.3	90.820	-0.150	0.410	-1.410
2020/01/31 07:12:57.4	90.790	-0.150	0.360	-1.380
2020/01/31 07:12:57.5	90.770	-0.160	0.310	-1.340
2020/01/31 07:12:57.6	90.750	-0.160	0.260	-1.290
2020/01/31 07:12:57.7	90.720	-0.160	0.200	-1.240
2020/01/31 07:12:57.8	90.690	-0.150	0.140	-1.190
2020/01/31 07:12:57.9	90.670	-0.150	0.080	-1.130
2020/01/31 07:12:58.0	90.640	-0.150	0.020	-1.060
2020/01/31 07:12:58.1	90.620	-0.140	-0.050	-1.000
2020/01/31 07:12:58.2	90.590	-0.140	-0.120	-0.930
2020/01/31 07:12:58.3	90.570	-0.130	-0.190	-0.850
2020/01/31 07:12:58.4	90.550	-0.120	-0.260	-0.780
2020/01/31 07:12:58.5	90.540	-0.110	-0.340	-0.700
2020/01/31 07:12:58.6	90.520	-0.100	-0.410	-0.630
2020/01/31 07:12:58.7	90.510	-0.090	-0.480	-0.550
2020/01/31 07:12:58.8	90.500	-0.080	-0.550	-0.470
2020/01/31 07:12:58.9	90.500	-0.070	-0.610	-0.400
2020/01/31 07:12:59.0	90.490	-0.050	-0.680	-0.320
2020/01/31 07:12:59.1	90.500	-0.040	-0.740	-0.240
2020/01/31 07:12:59.2	90.500	-0.020	-0.810	-0.160
2020/01/31 07:12:59.3	90.510	-0.010	-0.860	-0.080
2020/01/31 07:12:59.4	90.530	0.010	-0.920	-0.000
2020/01/31 07:12:59.5	90.540	0.030	-0.970	0.080
2020/01/31 07:12:59.6	90.560	0.040	-1.010	0.160
2020/01/31 07:12:59.7	90.580	0.060	-1.050	0.250
2020/01/31 07:12:59.8	90.600	0.080	-1.090	0.330
2020/01/31 07:12:59.9	90.630	0.090	-1.110	0.420
2020/01/31 07:13:00.0	90.650	0.110	-1.130	0.510
2020/01/31 07:13:00.1	90.680	0.130	-1.150	0.610
2020/01/31 07:13:00.2	90.700	0.140	-1.150	0.710
2020/01/31 07:13:00.3	90.730	0.160	-1.160	0.810
2020/01/31 07:13:00.4	90.750	0.170	-1.150	0.910
2020/01/31 07:13:00.5	90.770	0.180	-1.130	1.020
2020/01/31 07:13:00.6	90.800	0.200	-1.110	1.130
2020/01/31 07:13:00.7	90.820	0.210	-1.080	1.240
2020/01/31 07:13:00.8	90.840	0.220	-1.050	1.350
2020/01/31 07:13:00.9	90.860	0.220	-1.000	1.460
2020/01/31 07:13:01.0	90.870	0.230	-0.960	1.580
2020/01/31 07:13:01.1	90.890	0.230	-0.900	1.690
2020/01/31 07:13:01.2	90.900	0.240	-0.840	1.810
2020/01/31 07:13:01.3	90.910	0.240	-0.780	1.930
2020/01/31 07:13:01.4	90.910	0.240	-0.710	2.050
2020/01/31 07:13:01.5	90.920	0.230	-0.630	2.160
2020/01/31 07:13:01.6	90.930	0.230	-0.560	2.280
2020/01/31 07:13:01.7	90.930	0.220	-0.470	2.390
2020/01/31 07:13:01.8	90.930	0.210	-0.390	2.500
2020/01/31 07:13:01.9	90.930	0.200	-0.310	2.610
2020/01/31 07:13:02.0	90.930	0.190	-0.220	2.710
2020/01/31 07:13:02.1	90.930	0.180	-0.140	2.810
2020/01/31 07:13:02.2	90.930	0.160	-0.060	2.910
2020/01/31 07:13:02.3	90.930	0.150	0.030	3.010
2020/01/31 07:13:02.4	90.920	0.130	0.110	3.090
2020/01/31 07:13:02.5	90.920	0.110	0.190	3.170
2020/01/31 07:13:02.6	90.920	0.090	0.260	3.250
2020/01/31 07:13:02.7	90.920	0.070	0.330	3.320
2020/01/31 07:13:02.8	90.910	0.050	0.400	3.390
2020/01/31 07:13:02.9	90.910	0.030	0.460	3.450
2020/01/31 07:13:03.0	90.900	0.010	0.510	3.500
2020/01/31 07:13:03.1	90.900	-0.010	0.560	3.550
2020/01/31 07:13:03.2	90.890	-0.030	0.600	3.590
2020/01/31 07:13:03.3	90.880	-0.040	0.640	3.630
2020/01/31 07:13:03.4	90.870	-0.060	0.670	3.670
2020/01/31 07:13:03.5	90.860	-0.080	0.690	3.700
2020/01/31 07:13:03.6	90.850	-0.090	0.700	3.720
2020/01/31 07:13:03.7	90.840	-0.110	0.710	3.740
2020/01/31 07:13:03.8	90.830	-0.120	0.710	3.760
2020/01/31 07:13:03.9	90.820	-0.130	0.700	3.770
2020/01/31 07:13:04.0	90.810	-0.140	0.680	3.780
2020/01/31 07:13:04.1	90.790	-0.150	0.660	3.790
2020/01/31 07:13:04.2	90.780	-0.160	0.640	3.790
2020/01/31 07:13:04.3	90.760	-0.160	0.600	3.790
2020/01/31 07:13:04.4	90.740	-0.160	0.560	3.780
2020/01/31 07:13:04.5	90.720	-0.170	0.520	3.770
2020/01/31 07:13:04.6	90.700	-0.170	0.470	3.760
2020/01/31 07:13:04.7	90.680	-0.170	0.430	3.740
2020/01/31 07:13:04.8	90.650	-0.160	0.370	3.720
2020/01/31 07:13:04.9	90.630	-0.160	0.320	3.700
2020/01/31 07:13:05.0	90.610	-0.150	0.260	3.660
2020/01/31 07:13:05.1	90.580	-0.150	0.210	3.630
2020/01/31 07:13:05.2	90.560	-0.140	0.150	3.590
2020/01/31 07:13:05.3	90.530	-0.140	0.090	3.540
2020/01/31 07:13:05.4	90.500	-0.130	0.040	3.480
2020/01/31 07:13:05.5	90.480	-0.120	-0.010	3.430
2020/01/31 07:13:05.6	90.460	-0.110	-0.060	3.360
2020/01/31 07:13:05.7	90.440	-0.110	-0.110	3.290
2020/01/31 07:13:05.8	90.410	-0.100	-0.160	3.220
2020/01/31 07:13:05.9	90.390	-0.090	-0.200	3.140
2020/01/31 07:13:06.0	90.370	-0.080	-0.240	3.050
2020/01/31 07:13:06.1	90.350	-0.070	-0.270	2.960
2020/01/31 07:13:06.2	90.330	-0.060	-0.300	2.870
2020/01/31 07:13:06.3	90.310	-0.050	-0.330	2.770
2020/01/31 07:13:06.4	90.300	-0.050	-0.350	2.660
2020/01/31 07:13:06.5	90.280	-0.040	-0.370	2.560
2020/01/31 07:13:06.6	90.260	-0.030	-0.390	2.450
2020/01/31 07:13:06.7	90.250	-0.020	-0.400	2.330
2020/01/31 07:13:06.8	90.230	-0.020	-0.410	2.220
2020/01/31 07:13:06.9	90.220	-0.010	-0.420	2.100
2020/01/31 07:13:07.0	90.210	-0.000	-0.430	1.980
2020/01/31 07:13:07.1	90.190	0.000	-0.430	1.850
2020/01/31 07:13:07.2	90.180	0.010	-0.430	1.730
2020/01/31 07:13:07.3	90.180	0.020	-0.440	1.600
2020/01/31 07:13:07.4	90.160	0.020	-0.440	1.470
2020/01/31 07:13:07.5	90.160	0.030	-0.440	1.330
2020/01/31 07:13:07.6	90.150	0.040	-0.440	1.200
2020/01/31 07:13:07.7	90.140	0.050	-0.440	1.070
2020/01/31 07:13:07.8	90.130	0.050	-0.440	0.930
2020/01/31 07:13:07.9	90.130	0.060	-0.450	0.800
2020/01/31 07:13:08.0	90.120	0.070	-0.450	0.660
2020/01/31 07:13:08.1	90.120	0.080	-0.460	0.520
2020/01/31 07:13:08.2	90.120	0.090	-0.460	0.390
2020/01/31 07:13:08.3	90.130	0.100	-0.470	0.250
2020/01/31 07:13:08.4	90.130	0.110	-0.480	0.110
2020/01/31 07:13:08.5	90.140	0.120	-0.490	-0.020
2020/01/31 07:13:08.6	90.150	0.130	-0.500	-0.150
2020/01/31 07:13:08.7	90.150	0.140	-0.510	-0.280
2020/01/31 07:13:08.8	90.160	0.150	-0.520	-0.410
2020/01/31 07:13:08.9	90.180	0.160	-0.530	-0.530
2020/01/31 07:13:09.0	90.190	0.170	-0.540	-0.650
2020/01/31 07:13:09.1	90.200	0.180	-0.550	-0.770
2020/01/31 07:13:09.2	90.220	0.190	-0.550	-0.880
2020/01/31 07:13:09.3	90.240	0.200	-0.560	-0.990
2020/01/31 07:13:09.4	90.250	0.200	-0.560	-1.080
2020/01/31 07:13:09.5	90.270	0.210	-0.560	-1.180
2020/01/31 07:13:09.6	90.290	0.220	-0.560	-1.260
2020/01/31 07:13:09.7	90.300	0.220	-0.560	-1.340
2020/01/31 07:13:09.8	90.320	0.230	-0.550	-1.420
2020/01/31 07:13:09.9	90.340	0.230	-0.540	-1.480
2020/01/31 07:13:10.0	90.350	0.230	-0.530	-1.540
2020/01/31 07:13:10.1	90.370	0.230	-0.510	-1.580
2020/01/31 07:13:10.2	90.380	0.230	-0.490	-1.630
2020/01/31 07:13:10.3	90.400	0.220	-0.470	-1.660
2020/01/31 07:13:10.4	90.410	0.220	-0.450	-1.680
2020/01/31 07:13:10.5	90.420	0.210	-0.420	-1.700
2020/01/31 07:13:10.6	90.430	0.200	-0.390	-1.710
2020/01/31 07:13:10.7	90.440	0.190	-0.350	-1.710
2020/01/31 07:13:10.8	90.440	0.180	-0.310	-1.700
2020/01/31 07:13:10.9	90.450	0.170	-0.280	-1.690
2020/01/31 07:13:11.0	90.450	0.150	-0.240	-1.660
2020/01/31 07:13:11.1	90.460	0.140	-0.190	-1.640
2020/01/31 07:13:11.2	90.460	0.120	-0.150	-1.600
2020/01/31 07:13:11.3	90.450	0.100	-0.110	-1.560
2020/01/31 07:13:11.4	90.450	0.080	-0.060	-1.510
2020/01/31 07:13:11.5	90.450	0.050	-0.020	-1.460
2020/01/31 07:13:11.6	90.450	0.030	0.020	-1.400
2020/01/31 07:13:11.7	90.440	0.010	0.060	-1.340
2020/01/31 07:13:11.8	90.440	-0.020	0.110	-1.280
2020/01/31 07:13:11.9	90.430	-0.040	0.150	-1.210
2020/01/31 07:13:12.0	90.430	-0.070	0.190	-1.130
2020/01/31 07:13:12.1	90.430	-0.090	0.220	-1.060
2020/01/31 07:13:12.2	90.420	-0.120	0.260	-0.980
2020/01/31 07:13:12.3	90.420	-0.150	0.290	-0.890
2020/01/31 07:13:12.4	90.410	-0.170	0.320	-0.800
2020/01/31 07:13:12.5	90.410	-0.200	0.350	-0.710
2020/01/31 07:13:12.6	90.410	-0.220	0.380	-0.620
2020/01/31 07:13:12.7	90.400	-0.250	0.400	-0.520
2020/01/31 07:13:12.8	90.400	-0.270	0.420	-0.420
2020/01/31 07:13:12.9	90.400	-0.290	0.440	-0.320
2020/01/31 07:13:13.0	90.390	-0.310	0.450	-0.210
2020/01/31 07:13:13.1	90.390	-0.330	0.460	-0.100
2020/01/31 07:13:13.2	90.390	-0.350	0.470	0.010
2020/01/31 07:13:13.3	90.390	-0.370	0.470	0.130
2020/01/31 07:13:13.4	90.380	-0.390	0.470	0.250
2020/01/31 07:13:13.5	90.380	-0.400	0.470	0.370
2020/01/31 07:13:13.6	90.380	-0.410	0.470	0.500
2020/01/31 07:13:13.7	90.380	-0.420	0.460	0.630
2020/01/31 07:13:13.8	90.370	-0.430	0.450	0.750
2020/01/31 07:13:13.9	90.370	-0.440	0.440	0.890
2020/01/31 07:13:14.0	90.360	-0.440	0.420	1.020
2020/01/31 07:13:14.1	90.360	-0.440	0.400	1.150
2020/01/31 07:13:14.2	90.350	-0.440	0.370	1.290
2020/01/31 07:13:14.3	90.350	-0.440	0.350	1.430
2020/01/31 07:13:14.4	90.340	-0.430	0.320	1.570
2020/01/31 07:13:14.5	90.330	-0.430	0.290	1.710
2020/01/31 07:13:14.6	90.320	-0.420	0.250	1.850
2020/01/31 07:13:14.7	90.300	-0.410	0.220	1.990
2020/01/31 07:13:14.8	90.290	-0.390	0.180	2.130
2020/01/31 07:13:14.9	90.270	-0.380	0.140	2.270
2020/01/31 07:13:15.0	90.260	-0.360	0.090	2.410
2020/01/31 07:13:15.1	90.240	-0.340	0.050	2.540
2020/01/31 07:13:15.2	90.220	-0.320	0.010	2.680
2020/01/31 07:13:15.3	90.200	-0.300	-0.040	2.810
2020/01/31 07:13:15.4	90.180	-0.280	-0.080	2.940
2020/01/31 07:13:15.5	90.160	-0.250	-0.130	3.060
2020/01/31 07:13:15.6	90.140	-0.220	-0.170	3.180
2020/01/31 07:13:15.7	90.120	-0.200	-0.220	3.300
2020/01/31 07:13:15.8	90.100	-0.170	-0.260	3.410
2020/01/31 07:13:15.9	90.080	-0.140	-0.310	3.510
2020/01/31 07:13:16.0	90.060	-0.110	-0.350	3.610
2020/01/31 07:13:16.1	90.040	-0.080	-0.390	3.700
2020/01/31 07:13:16.2	90.020	-0.050	-0.430	3.780
2020/01/31 07:13:16.3	90.010	-0.020	-0.470	3.860
2020/01/31 07:13:16.4	89.990	0.010	-0.510	3.920
2020/01/31 07:13:16.5	89.980	0.040	-0.540	3.980
2020/01/31 07:13:16.6	89.960	0.060	-0.580	4.040
2020/01/31 07:13:16.7	89.940	0.090	-0.610	4.080
2020/01/31 07:13:16.8	89.930	0.120	-0.630	4.120
2020/01/31 07:13:16.9	89.920	0.150	-0.660	4.140
2020/01/31 07:13:17.0	89.910	0.180	-0.680	4.170
2020/01/31 07:13:17.1	89.890	0.200	-0.700	4.180
2020/01/31 07:13:17.2	89.880	0.230	-0.720	4.180
2020/01/31 07:13:17.3	89.870	0.250	-0.740	4.180
2020/01/31 07:13:17.4	89.870	0.270	-0.750	4.170
2020/01/31 07:13:17.5	89.860	0.290	-0.760	4.150
2020/01/31 07:13:17.6	89.850	0.320	-0.770	4.130
2020/01/31 07:13:17.7	89.840	0.340	-0.780	4.100
2020/01/31 07:13:17.8	89.840	0.350	-0.780	4.060
2020/01/31 07:13:17.9	89.830	0.370	-0.780	4.010
2020/01/31 07:13:18.0	89.830	0.390	-0.780	3.960
2020/01/31 07:13:18.1	89.830	0.400	-0.780	3.910
2020/01/31 07:13:18.2	89.820	0.420	-0.770	3.840
2020/01/31 07:13:18.3	89.820	0.430	-0.760	3.770
2020/01/31 07:13:18.4	89.820	0.440	-0.750	3.690
2020/01/31 07:13:18.5	89.810	0.450	-0.740	3.610
2020/01/31 07:13:18.6	89.810	0.460	-0.730	3.530
2020/01/31 07:13:18.7	89.810	0.470	-0.710	3.440
2020/01/31 07:13:18.8	89.810	0.480	-0.690	3.350
2020/01/31 07:13:18.9	89.820	0.480	-0.680	3.250
2020/01/31 07:13:19.0	89.820	0.490	-0.660	3.150
2020/01/31 07:13:19.1	89.820	0.490	-0.640	3.050
2020/01/31 07:13:19.2	89.820	0.500	-0.620	2.940
2020/01/31 07:13:19.3	89.830	0.500	-0.600	2.830
2020/01/31 07:13:19.4	89.840	0.500	-0.570	2.720
2020/01/31 07:13:19.5	89.840	0.500	-0.550	2.610
2020/01/31 07:13:19.6	89.850	0.500	-0.530	2.490
2020/01/31 07:13:19.7	89.860	0.500	-0.500	2.380
2020/01/31 07:13:19.8	89.870	0.500	-0.470	2.260
2020/01/31 07:13:19.9	89.880	0.500	-0.450	2.140
2020/01/31 07:13:20.0	89.880	0.500	-0.420	2.020
2020/01/31 07:13:20.1	89.890	0.490	-0.390	1.910
2020/01/31 07:13:20.2	89.910	0.480	-0.360	1.790
2020/01/31 07:13:20.3	89.920	0.480	-0.330	1.670
2020/01/31 07:13:20.4	89.930	0.470	-0.300	1.550
2020/01/31 07:13:20.5	89.940	0.460	-0.270	1.430
2020/01/31 07:13:20.6	89.950	0.450	-0.240	1.320
2020/01/31 07:13:20.7	89.960	0.440	-0.200	1.210
2020/01/31 07:13:20.8	89.970	0.420	-0.170	1.090
2020/01/31 07:13:20.9	89.990	0.410	-0.140	0.990
2020/01/31 07:13:21.0	90.000	0.390	-0.100	0.880
2020/01/31 07:13:21.1	90.010	0.370	-0.060	0.770
2020/01/31 07:13:21.2	90.020	0.350	-0.030	0.670
2020/01/31 07:13:21.3	90.020	0.330	0.010	0.570
2020/01/31 07:13:21.4	90.030	0.310	0.050	0.470
2020/01/31 07:13:21.5	90.040	0.280	0.090	0.380
2020/01/31 07:13:21.6	90.040	0.250	0.130	0.280
2020/01/31 07:13:21.7	90.050	0.230	0.170	0.200
2020/01/31 07:13:21.8	90.050	0.200	0.210	0.110
2020/01/31 07:13:21.9	90.050	0.170	0.250	0.030
2020/01/31 07:13:22.0	90.050	0.130	0.290	-0.050
2020/01/31 07:13:22.1	90.050	0.100	0.330	-0.120
2020/01/31 07:13:22.2	90.040	0.060	0.370	-0.200
2020/01/31 07:13:22.3	90.040	0.030	0.410	-0.270
2020/01/31 07:13:22.4	90.030	-0.010	0.450	-0.330
2020/01/31 07:13:22.5	90.020	-0.050	0.490	-0.390
2020/01/31 07:13:22.6	90.010	-0.090	0.530	-0.450
2020/01/31 07:13:22.7	90.000	-0.130	0.560	-0.500
2020/01/31 07:13:22.8	89.990	-0.170	0.600	-0.550
2020/01/31 07:13:22.9	89.980	-0.210	0.630	-0.600
2020/01/31 07:13:23.0	89.960	-0.250	0.660	-0.640
2020/01/31 07:13:23.1	89.940	-0.290	0.690	-0.680
2020/01/31 07:13:23.2	89.930	-0.330	0.720	-0.710
2020/01/31 07:13:23.3	89.920	-0.360	0.740	-0.740
2020/01/31 07:13:23.4	89.900	-0.400	0.760	-0.770
2020/01/31 07:13:23.5	89.880	-0.440	0.770	-0.790
2020/01/31 07:13:23.6	89.860	-0.470	0.780	-0.810
2020/01/31 07:13:23.7	89.840	-0.510	0.790	-0.820
2020/01/31 07:13:23.8	89.820	-0.540	0.790	-0.830
2020/01/31 07:13:23.9	89.800	-0.570	0.790	-0.840
2020/01/31 07:13:24.0	89.780	-0.590	0.780	-0.850
2020/01/31 07:13:24.1	89.760	-0.620	0.770	-0.850
2020/01/31 07:13:24.2	89.740	-0.640	0.750	-0.840
2020/01/31 07:13:24.3	89.720	-0.660	0.730	-0.830
2020/01/31 07:13:24.4	89.700	-0.670	0.700	-0.820
2020/01/31 07:13:24.5	89.680	-0.680	0.660	-0.810
2020/01/31 07:13:24.6	89.670	-0.690	0.620	-0.790
2020/01/31 07:13:24.7	89.650	-0.700	0.580	-0.760
2020/01/31 07:13:24.8	89.630	-0.700	0.530	-0.730
2020/01/31 07:13:24.9	89.620	-0.690	0.470	-0.700
2020/01/31 07:13:25.0	89.610	-0.690	0.410	-0.670
2020/01/31 07:13:25.1	89.590	-0.680	0.340	-0.630
2020/01/31 07:13:25.2	89.580	-0.670	0.270	-0.580
2020/01/31 07:13:25.3	89.570	-0.650	0.190	-0.540
2020/01/31 07:13:25.4	89.570	-0.630	0.110	-0.490
2020/01/31 07:13:25.5	89.560	-0.610	0.030	-0.430
2020/01/31 07:13:25.6	89.560	-0.580	-0.060	-0.380
2020/01/31 07:13:25.7	89.560	-0.550	-0.150	-0.320
2020/01/31 07:13:25.8	89.560	-0.520	-0.240	-0.260
2020/01/31 07:13:25.9	89.570	-0.480	-0.330	-0.200
2020/01/31 07:13:26.0	89.580	-0.450	-0.430	-0.140
2020/01/31 07:13:26.1	89.590	-0.410	-0.520	-0.080
2020/01/31 07:13:26.2	89.600	-0.360	-0.620	-0.010
2020/01/31 07:13:26.3	89.620	-0.320	-0.710	0.050
2020/01/31 07:13:26.4	89.640	-0.280	-0.810	0.120
2020/01/31 07:13:26.5	89.660	-0.230	-0.900	0.190
2020/01/31 07:13:26.6	89.680	-0.190	-0.990	0.250
2020/01/31 07:13:26.7	89.700	-0.140	-1.070	0.320
2020/01/31 07:13:26.8	89.730	-0.090	-1.160	0.390
2020/01/31 07:13:26.9	89.760	-0.050	-1.230	0.460
2020/01/31 07:13:27.0	89.780	-0.000	-1.300	0.520
2020/01/31 07:13:27.1	89.810	0.040	-1.370	0.590
2020/01/31 07:13:27.2	89.840	0.090	-1.420	0.660
2020/01/31 07:13:27.3	89.860	0.130	-1.480	0.720
2020/01/31 07:13:27.4	89.890	0.170	-1.520	0.790
2020/01/31 07:13:27.5	89.920	0.210	-1.550	0.850
2020/01/31 07:13:27.6	89.940	0.240	-1.570	0.910
2020/01/31 07:13:27.7	89.970	0.270	-1.590	0.980
2020/01/31 07:13:27.8	89.990	0.300	-1.590	1.040
2020/01/31 07:13:27.9	90.010	0.330	-1.580	1.100
2020/01/31 07:13:28.0	90.040	0.350	-1.570	1.170
2020/01/31 07:13:28.1	90.050	0.370	-1.540	1.230
2020/01/31 07:13:28.2	90.070	0.390	-1.500	1.290
2020/01/31 07:13:28.3	90.080	0.400	-1.450	1.350
2020/01/31 07:13:28.4	90.090	0.410	-1.390	1.420
2020/01/31 07:13:28.5	90.100	0.410	-1.320	1.480
2020/01/31 07:13:28.6	90.110	0.420	-1.250	1.540
2020/01/31 07:13:28.7	90.120	0.410	-1.160	1.610
2020/01/31 07:13:28.8	90.120	0.410	-1.070	1.680
2020/01/31 07:13:28.9	90.130	0.400	-0.970	1.750
2020/01/31 07:13:29.0	90.130	0.390	-0.860	1.810
2020/01/31 07:13:29.1	90.120	0.380	-0.750	1.890
2020/01/31 07:13:29.2	90.120	0.360	-0.630	1.960
2020/01/31 07:13:29.3	90.110	0.340	-0.510	2.030
2020/01/31 07:13:29.4	90.100	0.330	-0.380	2.110
2020/01/31 07:13:29.5	90.080	0.300	-0.260	2.180
2020/01/31 07:13:29.6	90.070	0.280	-0.140	2.260
2020/01/31 07:13:29.7	90.050	0.260	-0.010	2.340
2020/01/31 07:13:29.8	90.040	0.230	0.110	2.420
2020/01/31 07:13:29.9	90.020	0.210	0.220	2.490
2020/01/31 07:13:30.0	89.990	0.180	0.340	2.570
2020/01/31 07:13:30.1	89.970	0.160	0.450	2.650
2020/01/31 07:13:30.2	89.940	0.130	0.550	2.730
2020/01/31 07:13:30.3	89.920	0.110	0.640	2.810
2020/01/31 07:13:30.4	89.890	0.080	0.730	2.880
2020/01/31 07:13:30.5	89.860	0.060	0.810	2.950
2020/01/31 07:13:30.6	89.830	0.030	0.890	3.020
2020/01/31 07:13:30.7	89.800	0.010	0.950	3.080
2020/01/31 07:13:30.8	89.770	-0.010	1.000	3.150
2020/01/31 07:13:30.9	89.740	-0.030	1.050	3.200
2020/01/31 07:13:31.0	89.710	-0.040	1.080	3.260
2020/01/31 07:13:31.1	89.680	-0.060	1.100	3.300
2020/01/31 07:13:31.2	89.650	-0.070	1.120	3.350
2020/01/31 07:13:31.3	89.610	-0.090	1.130	3.380
2020/01/31 07:13:31.4	89.580	-0.100	1.120	3.420
2020/01/31 07:13:31.5	89.560	-0.110	1.110	3.440
2020/01/31 07:13:31.6	89.530	-0.120	1.080	3.460
2020/01/31 07:13:31.7	89.500	-0.120	1.050	3.470
2020/01/31 07:13:31.8	89.480	-0.130	1.010	3.470
2020/01/31 07:13:31.9	89.450	-0.130	0.960	3.470
2020/01/31 07:13:32.0	89.430	-0.140	0.910	3.450
2020/01/31 07:13:32.1	89.410	-0.140	0.850	3.430
2020/01/31 07:13:32.2	89.390	-0.140	0.790	3.410
2020/01/31 07:13:32.3	89.370	-0.140	0.710	3.370
2020/01/31 07:13:32.4	89.360	-0.140	0.640	3.320
2020/01/31 07:13:32.5	89.350	-0.130	0.570	3.270
2020/01/31 07:13:32.6	89.340	-0.130	0.490	3.210
2020/01/31 07:13:32.7	89.330	-0.130	0.410	3.150
2020/01/31 07:13:32.8	89.320	-0.120	0.330	3.070
2020/01/31 07:13:32.9	89.320	-0.120	0.250	2.990
2020/01/31 07:13:33.0	89.320	-0.110	0.170	2.900
2020/01/31 07:13:33.1	89.320	-0.110	0.100	2.810
2020/01/31 07:13:33.2	89.320	-0.100	0.020	2.700
2020/01/31 07:13:33.3	89.330	-0.100	-0.050	2.590
2020/01/31 07:13:33.4	89.340	-0.090	-0.120	2.480
2020/01/31 07:13:33.5	89.350	-0.090	-0.190	2.360
2020/01/31 07:13:33.6	89.360	-0.080	-0.260	2.240
2020/01/31 07:13:33.7	89.370	-0.080	-0.320	2.110
2020/01/31 07:13:33.8	89.390	-0.070	-0.380	1.980
2020/01/31 07:13:33.9	89.410	-0.060	-0.440	1.840
2020/01/31 07:13:34.0	89.420	-0.060	-0.490	1.710
2020/01/31 07:13:34.1	89.440	-0.050	-0.540	1.570
2020/01/31 07:13:34.2	89.470	-0.040	-0.590	1.430
2020/01/31 07:13:34.3	89.490	-0.040	-0.630	1.290
2020/01/31 07:13:34.4	89.510	-0.030	-0.670	1.140
2020/01/31 07:13:34.5	89.540	-0.020	-0.710	1.000
2020/01/31 07:13:34.6	89.560	-0.010	-0.740	0.870
2020/01/31 07:13:34.7	89.590	-0.010	-0.770	0.730
2020/01/31 07:13:34.8	89.620	0.000	-0.800	0.600
2020/01/31 07:13:34.9	89.650	0.010	-0.820	0.460
2020/01/31 07:13:35.0	89.670	0.020	-0.840	0.340
2020/01/31 07:13:35.1	89.700	0.030	-0.850	0.210
2020/01/31 07:13:35.2	89.730	0.050	-0.870	0.100
2020/01/31 07:13:35.3	89.760	0.060	-0.870	-0.020
2020/01/31 07:13:35.4	89.790	0.070	-0.880	-0.130
2020/01/31 07:13:35.5	89.820	0.090	-0.880	-0.230
2020/01/31 07:13:35.6	89.850	0.100	-0.880	-0.330
2020/01/31 07:13:35.7	89.870	0.110	-0.880	-0.420
2020/01/31 07:13:35.8	89.900	0.130	-0.870	-0.500
2020/01/31 07:13:35.9	89.920	0.150	-0.860	-0.570
2020/01/31 07:13:36.0	89.950	0.160	-0.850	-0.640
2020/01/31 07:13:36.1	89.970	0.180	-0.830	-0.700
2020/01/31 07:13:36.2	89.990	0.190	-0.810	-0.750
2020/01/31 07:13:36.3	90.010	0.210	-0.790	-0.790
2020/01/31 07:13:36.4	90.030	0.220	-0.760	-0.830
2020/01/31 07:13:36.5	90.040	0.240	-0.740	-0.850
2020/01/31 07:13:36.6	90.060	0.250	-0.710	-0.870
2020/01/31 07:13:36.7	90.070	0.260	-0.670	-0.880
2020/01/31 07:13:36.8	90.070	0.280	-0.640	-0.880
2020/01/31 07:13:36.9	90.080	0.290	-0.600	-0.880
2020/01/31 07:13:37.0	90.090	0.300	-0.560	-0.860
2020/01/31 07:13:37.1	90.090	0.310	-0.520	-0.850
2020/01/31 07:13:37.2	90.090	0.310	-0.480	-0.820
2020/01/31 07:13:37.3	90.090	0.320	-0.430	-0.780
2020/01/31 07:13:37.4	90.080	0.320	-0.390	-0.750
2020/01/31 07:13:37.5	90.080	0.320	-0.340	-0.700
2020/01/31 07:13:37.6	90.070	0.320	-0.300	-0.650
2020/01/31 07:13:37.7	90.070	0.320	-0.250	-0.600
2020/01/31 07:13:37.8	90.060	0.310	-0.210	-0.540
2020/01/31 07:13:37.9	90.050	0.310	-0.160	-0.480
2020/01/31 07:13:38.0	90.040	0.300	-0.120	-0.410
2020/01/31 07:13:38.1	90.030	0.290	-0.080	-0.340
2020/01/31 07:13:38.2	90.020	0.280	-0.040	-0.270
2020/01/31 07:13:38.3	90.010	0.260	-0.010	-0.200
2020/01/31 07:13:38.4	90.000	0.250	0.030	-0.120
2020/01/31 07:13:38.5	89.990	0.230	0.060	-0.050
2020/01/31 07:13:38.6	89.980	0.210	0.090	0.020
2020/01/31 07:13:38.7	89.970	0.190	0.120	0.100
2020/01/31 07:13:38.8	89.960	0.170	0.140	0.170
2020/01/31 07:13:38.9	89.950	0.150	0.160	0.250
2020/01/31 07:13:39.0	89.940	0.130	0.180	0.320
2020/01/31 07:13:39.1	89.930	0.110	0.190	0.400
2020/01/31 07:13:39.2	89.920	0.080	0.210	0.470
2020/01/31 07:13:39.3	89.910	0.060	0.220	0.540
2020/01/31 07:13:39.4	89.900	0.030	0.220	0.610
2020/01/31 07:13:39.5	89.900	0.010	0.220	0.680
2020/01/31 07:13:39.6	89.890	-0.010	0.220	0.750
2020/01/31 07:13:39.7	89.880	-0.040	0.220	0.820
2020/01/31 07:13:39.8	89.870	-0.060	0.220	0.890
2020/01/31 07:13:39.9	89.870	-0.080	0.210	0.960
2020/01/31 07:13:40.0	89.860	-0.100	0.200	1.030
2020/01/31 07:13:40.1	89.850	-0.120	0.190	1.100
2020/01/31 07:13:40.2	89.840	-0.140	0.180	1.160
2020/01/31 07:13:40.3	89.840	-0.160	0.170	1.230
2020/01/31 07:13:40.4	89.830	-0.170	0.150	1.300
2020/01/31 07:13:40.5	89.820	-0.190	0.140	1.370
2020/01/31 07:13:40.6	89.810	-0.200	0.130	1.440
2020/01/31 07:13:40.7	89.800	-0.210	0.110	1.500
2020/01/31 07:13:40.8	89.790	-0.220	0.100	1.570
2020/01/31 07:13:40.9	89.780	-0.230	0.090	1.640
2020/01/31 07:13:41.0	89.760	-0.240	0.070	1.710
2020/01/31 07:13:41.1	89.750	-0.250	0.060	1.770
2020/01/31 07:13:41.2	89.740	-0.260	0.050	1.840
2020/01/31 07:13:41.3	89.730	-0.260	0.040	1.910
2020/01/31 07:13:41.4	89.720	-0.260	0.020	1.970
2020/01/31 07:13:41.5	89.710	-0.270	0.010	2.030
2020/01/31 07:13:41.6	89.700	-0.270	0.000	2.090
2020/01/31 07:13:41.7	89.690	-0.270	-0.000	2.140
2020/01/31 07:13:41.8	89.680	-0.270	-0.010	2.200
2020/01/31 07:13:41.9	89.680	-0.270	-0.020	2.240
2020/01/31 07:13:42.0	89.670	-0.270	-0.030	2.290
2020/01/31 07:13:42.1	89.670	-0.260	-0.040	2.330
2020/01/31 07:13:42.2	89.670	-0.260	-0.040	2.360
2020/01/31 07:13:42.3	89.670	-0.260	-0.050	2.390
2020/01/31 07:13:42.4	89.680	-0.250	-0.060	2.420
2020/01/31 07:13:42.5	89.680	-0.250	-0.060	2.440
2020/01/31 07:13:42.6	89.690	-0.240	-0.070	2.450
2020/01/31 07:13:42.7	89.700	-0.240	-0.080	2.460
2020/01/31 07:13:42.8	89.710	-0.230	-0.090	2.470
2020/01/31 07:13:42.9	89.720	-0.230	-0.100	2.470
2020/01/31 07:13:43.0	89.740	-0.220	-0.100	2.470
2020/01/31 07:13:43.1	89.750	-0.210	-0.110	2.460
2020/01/31 07:13:43.2	89.770	-0.210	-0.120	2.440
2020/01/31 07:13:43.3	89.790	-0.200	-0.130	2.430
2020/01/31 07:13:43.4	89.810	-0.190	-0.140	2.410
2020/01/31 07:13:43.5	89.830	-0.180	-0.150	2.380
2020/01/31 07:13:43.6	89.850	-0.170	-0.160	2.360
2020/01/31 07:13:43.7	89.870	-0.170	-0.180	2.330
2020/01/31 07:13:43.8	89.890	-0.160	-0.190	2.290
2020/01/31 07:13:43.9	89.910	-0.150	-0.200	2.260
2020/01/31 07:13:44.0	89.930	-0.140	-0.210	2.220
2020/01/31 07:13:44.1	89.960	-0.130	-0.220	2.180
2020/01/31 07:13:44.2	89.980	-0.120	-0.230	2.150
2020/01/31 07:13:44.3	90.000	-0.110	-0.240	2.100
2020/01/31 07:13:44.4	90.020	-0.100	-0.240	2.060
2020/01/31 07:13:44.5	90.040	-0.100	-0.250	2.020
2020/01/31 07:13:44.6	90.060	-0.090	-0.250	1.990
2020/01/31 07:13:44.7	90.080	-0.080	-0.250	1.950
2020/01/31 07:13:44.8	90.100	-0.070	-0.250	1.910
2020/01/31 07:13:44.9	90.120	-0.060	-0.250	1.870
2020/01/31 07:13:45.0	90.130	-0.050	-0.250	1.840
2020/01/31 07:13:45.1	90.150	-0.050	-0.240	1.800
2020/01/31 07:13:45.2	90.160	-0.040	-0.240	1.770
2020/01/31 07:13:45.3	90.170	-0.030	-0.230	1.740
2020/01/31 07:13:45.4	90.180	-0.030	-0.220	1.710
2020/01/31 07:13:45.5	90.190	-0.020	-0.210	1.680
2020/01/31 07:13:45.6	90.200	-0.020	-0.190	1.660
2020/01/31 07:13:45.7	90.200	-0.010	-0.180	1.630
2020/01/31 07:13:45.8	90.200	-0.010	-0.170	1.600
2020/01/31 07:13:45.9	90.200	-0.000	-0.160	1.580
2020/01/31 07:13:46.0	90.200	0.000	-0.150	1.560
2020/01/31 07:13:46.1	90.190	0.000	-0.140	1.530
2020/01/31 07:13:46.2	90.180	0.010	-0.120	1.510
2020/01/31 07:13:46.3	90.170	0.010	-0.120	1.490
2020/01/31 07:13:46.4	90.160	0.010	-0.110	1.460
2020/01/31 07:13:46.5	90.150	0.010	-0.100	1.440
2020/01/31 07:13:46.6	90.140	0.020	-0.100	1.410
2020/01/31 07:13:46.7	90.120	0.020	-0.090	1.380
2020/01/31 07:13:46.8	90.110	0.020	-0.090	1.350
2020/01/31 07:13:46.9	90.100	0.020	-0.090	1.330
2020/01/31 07:13:47.0	90.080	0.030	-0.100	1.290
2020/01/31 07:13:47.1	90.060	0.030	-0.100	1.260
2020/01/31 07:13:47.2	90.050	0.040	-0.110	1.230
2020/01/31 07:13:47.3	90.030	0.040	-0.120	1.190
2020/01/31 07:13:47.4	90.010	0.040	-0.140	1.160
2020/01/31 07:13:47.5	90.000	0.050	-0.150	1.120
2020/01/31 07:13:47.6	89.980	0.060	-0.170	1.080
2020/01/31 07:13:47.7	89.960	0.060	-0.190	1.040
2020/01/31 07:13:47.8	89.950	0.070	-0.220	1.010
2020/01/31 07:13:47.9	89.930	0.080	-0.240	0.960
2020/01/31 07:13:48.0	89.920	0.090	-0.270	0.920
2020/01/31 07:13:48.1	89.900	0.100	-0.290	0.880
2020/01/31 07:13:48.2	89.890	0.100	-0.320	0.840
2020/01/31 07:13:48.3	89.880	0.110	-0.340	0.790
2020/01/31 07:13:48.4	89.870	0.120	-0.370	0.750
2020/01/31 07:13:48.5	89.860	0.130	-0.400	0.700
2020/01/31 07:13:48.6	89.850	0.140	-0.420	0.660
2020/01/31 07:13:48.7	89.850	0.150	-0.440	0.610
2020/01/31 07:13:48.8	89.850	0.160	-0.460	0.560
2020/01/31 07:13:48.9	89.850	0.170	-0.470	0.520
2020/01/31 07:13:49.0	89.850	0.180	-0.490	0.470
2020/01/31 07:13:49.1	89.850	0.190	-0.500	0.420
2020/01/31 07:13:49.2	89.860	0.190	-0.510	0.380
2020/01/31 07:13:49.3	89.870	0.200	-0.510	0.330
2020/01/31 07:13:49.4	89.880	0.210	-0.510	0.290
2020/01/31 07:13:49.5	89.890	0.210	-0.510	0.250
2020/01/31 07:13:49.6	89.900	0.220	-0.500	0.210
2020/01/31 07:13:49.7	89.920	0.220	-0.500	0.180
2020/01/31 07:13:49.8	89.930	0.220	-0.480	0.140
2020/01/31 07:13:49.9	89.950	0.230	-0.470	0.110
2020/01/31 07:13:50.0	89.960	0.230	-0.450	0.090
2020/01/31 07:13:50.1	89.980	0.230	-0.430	0.060
2020/01/31 07:13:50.2	89.990	0.230	-0.410	0.040
2020/01/31 07:13:50.3	90.010	0.220	-0.380	0.030
2020/01/31 07:13:50.4	90.030	0.220	-0.360	0.020
2020/01/31 07:13:50.5	90.040	0.210	-0.330	0.010
2020/01/31 07:13:50.6	90.060	0.210	-0.300	0.000
2020/01/31 07:13:50.7	90.070	0.200	-0.270	0.000
2020/01/31 07:13:50.8	90.080	0.190	-0.240	0.010
2020/01/31 07:13:50.9	90.090	0.190	-0.210	0.010
2020/01/31 07:13:51.0	90.100	0.180	-0.180	0.020
2020/01/31 07:13:51.1	90.100	0.170	-0.150	0.030
2020/01/31 07:13:51.2	90.110	0.150	-0.130	0.050
2020/01/31 07:13:51.3	90.120	0.140	-0.100	0.060
2020/01/31 07:13:51.4	90.120	0.130	-0.080	0.080
2020/01/31 07:13:51.5	90.130	0.120	-0.050	0.110
2020/01/31 07:13:51.6	90.130	0.100	-0.030	0.130
2020/01/31 07:13:51.7	90.130	0.090	-0.000	0.160
2020/01/31 07:13:51.8	90.130	0.070	0.020	0.190
2020/01/31 07:13:51.9	90.130	0.060	0.040	0.220
2020/01/31 07:13:52.0	90.130	0.040	0.050	0.250
2020/01/31 07:13:52.1	90.130	0.030	0.070	0.280
2020/01/31 07:13:52.2	90.130	0.010	0.090	0.310
2020/01/31 07:13:52.3	90.120	-0.000	0.100	0.350
2020/01/31 07:13:52.4	90.110	-0.020	0.110	0.390
2020/01/31 07:13:52.5	90.110	-0.030	0.130	0.420
2020/01/31 07:13:52.6	90.100	-0.050	0.140	0.460
2020/01/31 07:13:52.7	90.090	-0.060	0.150	0.510
2020/01/31 07:13:52.8	90.080	-0.080	0.160	0.550
2020/01/31 07:13:52.9	90.070	-0.090	0.170	0.590
2020/01/31 07:13:53.0	90.060	-0.110	0.170	0.640
2020/01/31 07:13:53.1	90.040	-0.120	0.180	0.680
2020/01/31 07:13:53.2	90.030	-0.130	0.190	0.730
2020/01/31 07:13:53.3	90.010	-0.150	0.190	0.780
2020/01/31 07:13:53.4	90.000	-0.160	0.190	0.830
2020/01/31 07:13:53.5	89.980	-0.170	0.200	0.880
2020/01/31 07:13:53.6	89.960	-0.180	0.200	0.930
2020/01/31 07:13:53.7	89.950	-0.190	0.200	0.980
2020/01/31 07:13:53.8	89.930	-0.200	0.210	1.030
2020/01/31 07:13:53.9	89.910	-0.210	0.210	1.090
2020/01/31 07:13:54.0	89.900	-0.210	0.210	1.140
2020/01/31 07:13:54.1	89.880	-0.220	0.200	1.190
2020/01/31 07:13:54.2	89.860	-0.230	0.200	1.240
2020/01/31 07:13:54.3	89.850	-0.230	0.200	1.290
2020/01/31 07:13:54.4	89.830	-0.230	0.190	1.340
2020/01/31 07:13:54.5	89.820	-0.240	0.180	1.390
2020/01/31 07:13:54.6	89.810	-0.240	0.170	1.440
2020/01/31 07:13:54.7	89.800	-0.240	0.160	1.480
2020/01/31 07:13:54.8	89.790	-0.240	0.140	1.530
2020/01/31 07:13:54.9	89.790	-0.240	0.130	1.570
2020/01/31 07:13:55.0	89.780	-0.240	0.110	1.610
2020/01/31 07:13:55.1	89.780	-0.230	0.090	1.650
2020/01/31 07:13:55.2	89.780	-0.230	0.070	1.690
2020/01/31 07:13:55.3	89.780	-0.220	0.050	1.720
2020/01/31 07:13:55.4	89.780	-0.220	0.030	1.760
2020/01/31 07:13:55.5	89.790	-0.210	0.000	1.790
2020/01/31 07:13:55.6	89.800	-0.200	-0.020	1.810
2020/01/31 07:13:55.7	89.810	-0.190	-0.050	1.840
2020/01/31 07:13:55.8	89.820	-0.180	-0.080	1.860
2020/01/31 07:13:55.9	89.830	-0.170	-0.100	1.880
2020/01/31 07:13:56.0	89.840	-0.160	-0.130	1.900
2020/01/31 07:13:56.1	89.860	-0.150	-0.160	1.920
2020/01/31 07:13:56.2	89.880	-0.140	-0.190	1.930
2020/01/31 07:13:56.3	89.890	-0.120	-0.220	1.940
2020/01/31 07:13:56.4	89.910	-0.110	-0.250	1.950
2020/01/31 07:13:56.5	89.930	-0.100	-0.270	1.950
2020/01/31 07:13:56.6	89.950	-0.080	-0.300	1.960
2020/01/31 07:13:56.7	89.970	-0.070	-0.330	1.960
2020/01/31 07:13:56.8	89.990	-0.050	-0.360	1.960
2020/01/31 07:13:56.9	90.010	-0.030	-0.380	1.960
2020/01/31 07:13:57.0	90.020	-0.020	-0.400	1.960
2020/01/31 07:13:57.1	90.040	0.000	-0.430	1.950
2020/01/31 07:13:57.2	90.050	0.020	-0.450	1.950
2020/01/31 07:13:57.3	90.070	0.040	-0.470	1.940
2020/01/31 07:13:57.4	90.080	0.050	-0.490	1.940
2020/01/31 07:13:57.5	90.080	0.070	-0.510	1.930
2020/01/31 07:13:57.6	90.090	0.090	-0.520	1.930
2020/01/31 07:13:57.7	90.090	0.110	-0.540	1.920
2020/01/31 07:13:57.8	90.090	0.120	-0.550	1.920
2020/01/31 07:13:57.9	90.090	0.140	-0.560	1.910
2020/01/31 07:13:58.0	90.080	0.160	-0.570	1.910
2020/01/31 07:13:58.1	90.080	0.170	-0.580	1.910
2020/01/31 07:13:58.2	90.070	0.190	-0.580	1.900
2020/01/31 07:13:58.3	90.050	0.200	-0.580	1.900
2020/01/31 07:13:58.4	90.040	0.210	-0.590	1.900
2020/01/31 07:13:58.5	90.020	0.230	-0.590	1.890
2020/01/31 07:13:58.6	90.000	0.240	-0.580	1.890
2020/01/31 07:13:58.7	89.980	0.250	-0.580	1.880
2020/01/31 07:13:58.8	89.950	0.260	-0.570	1.880
2020/01/31 07:13:58.9	89.930	0.260	-0.560	1.870
2020/01/31 07:13:59.0	89.900	0.270	-0.550	1.860
2020/01/31 07:13:59.1	89.870	0.280	-0.540	1.850
2020/01/31 07:13:59.2	89.840	0.280	-0.530	1.840
2020/01/31 07:13:59.3	89.820	0.280	-0.520	1.820
2020/01/31 07:13:59.4	89.790	0.280	-0.500	1.810
2020/01/31 07:13:59.5	89.760	0.280	-0.480	1.790
2020/01/31 07:13:59.6	89.730	0.280	-0.460	1.770
2020/01/31 07:13:59.7	89.710	0.280	-0.450	1.750
2020/01/31 07:13:59.8	89.680	0.280	-0.420	1.720
2020/01/31 07:13:59.9	89.660	0.270	-0.400	1.700
2020/01/31 07:14:00.0	89.630	0.270	-0.380	1.670
2020/01/31 07:14:00.1	89.610	0.260	-0.360	1.640
2020/01/31 07:14:00.2	89.590	0.260	-0.330	1.600
2020/01/31 07:14:00.3	89.580	0.250	-0.300	1.570
2020/01/31 07:14:00.4	89.560	0.240	-0.280	1.530
2020/01/31 07:14:00.5	89.550	0.230	-0.250	1.500
2020/01/31 07:14:00.6	89.540	0.220	-0.220	1.460
2020/01/31 07:14:00.7	89.530	0.210	-0.190	1.420
2020/01/31 07:14:00.8	89.520	0.200	-0.170	1.380
2020/01/31 07:14:00.9	89.520	0.190	-0.140	1.340
2020/01/31 07:14:01.0	89.510	0.170	-0.110	1.300
2020/01/31 07:14:01.1	89.510	0.160	-0.080	1.250
2020/01/31 07:14:01.2	89.510	0.150	-0.050	1.210
2020/01/31 07:14:01.3	89.520	0.130	-0.020	1.170
2020/01/31 07:14:01.4	89.520	0.120	0.010	1.130
2020/01/31 07:14:01.5	89.530	0.110	0.040	1.080
2020/01/31 07:14:01.6	89.530	0.090	0.070	1.040
2020/01/31 07:14:01.7	89.540	0.080	0.090	1.000
2020/01/31 07:14:01.8	89.550	0.060	0.120	0.950
2020/01/31 07:14:01.9	89.560	0.050	0.150	0.910
2020/01/31 07:14:02.0	89.570	0.030	0.170	0.870
2020/01/31 07:14:02.1	89.590	0.020	0.190	0.820
2020/01/31 07:14:02.2	89.600	0.000	0.220	0.780
2020/01/31 07:14:02.3	89.620	-0.010	0.240	0.730
2020/01/31 07:14:02.4	89.630	-0.030	0.260	0.690
2020/01/31 07:14:02.5	89.650	-0.040	0.270	0.640
2020/01/31 07:14:02.6	89.660	-0.060	0.290	0.600
2020/01/31 07:14:02.7	89.680	-0.080	0.300	0.560
2020/01/31 07:14:02.8	89.690	-0.090	0.310	0.510
2020/01/31 07:14:02.9	89.700	-0.110	0.320	0.470
2020/01/31 07:14:03.0	89.720	-0.130	0.330	0.430
2020/01/31 07:14:03.1	89.730	-0.140	0.330	0.390
2020/01/31 07:14:03.2	89.740	-0.160	0.340	0.350
2020/01/31 07:14:03.3	89.760	-0.180	0.340	0.310
2020/01/31 07:14:03.4	89.770	-0.190	0.330	0.270
2020/01/31 07:14:03.5	89.780	-0.210	0.330	0.240
2020/01/31 07:14:03.6	89.780	-0.230	0.330	0.210
2020/01/31 07:14:03.7	89.790	-0.240	0.320	0.180
2020/01/31 07:14:03.8	89.790	-0.260	0.310	0.160
2020/01/31 07:14:03.9	89.790	-0.280	0.300	0.140
2020/01/31 07:14:04.0	89.790	-0.290	0.280	0.120
2020/01/31 07:14:04.1	89.790	-0.310	0.270	0.100
2020/01/31 07:14:04.2	89.780	-0.320	0.250	0.090
2020/01/31 07:14:04.3	89.780	-0.340	0.240	0.080
2020/01/31 07:14:04.4	89.770	-0.350	0.220	0.080
2020/01/31 07:14:04.5	89.760	-0.360	0.190	0.080
2020/01/31 07:14:04.6	89.750	-0.370	0.170	0.080
2020/01/31 07:14:04.7	89.740	-0.380	0.140	0.090
2020/01/31 07:14:04.8	89.720	-0.390	0.110	0.100
2020/01/31 07:14:04.9	89.710	-0.390	0.080	0.110
2020/01/31 07:14:05.0	89.690	-0.400	0.050	0.130
2020/01/31 07:14:05.1	89.680	-0.400	0.020	0.150
2020/01/31 07:14:05.2	89.670	-0.400	-0.020	0.170
2020/01/31 07:14:05.3	89.660	-0.400	-0.060	0.190
2020/01/31 07:14:05.4	89.640	-0.400	-0.090	0.220
2020/01/31 07:14:05.5	89.630	-0.390	-0.130	0.240
2020/01/31 07:14:05.6	89.620	-0.390	-0.180	0.270
2020/01/31 07:14:05.7	89.610	-0.380	-0.220	0.300
2020/01/31 07:14:05.8	89.590	-0.370	-0.260	0.330
2020/01/31 07:14:05.9	89.590	-0.360	-0.300	0.360
2020/01/31 07:14:06.0	89.580	-0.340	-0.340	0.390
2020/01/31 07:14:06.1	89.570	-0.330	-0.390	0.420
2020/01/31 07:14:06.2	89.570	-0.310	-0.430	0.460
2020/01/31 07:14:06.3	89.560	-0.290	-0.470	0.490
2020/01/31 07:14:06.4	89.560	-0.280	-0.510	0.530
2020/01/31 07:14:06.5	89.560	-0.260	-0.550	0.560
2020/01/31 07:14:06.6	89.560	-0.240	-0.580	0.600
2020/01/31 07:14:06.7	89.560	-0.220	-0.610	0.630
2020/01/31 07:14:06.8	89.560	-0.200	-0.640	0.670
2020/01/31 07:14:06.9	89.570	-0.180	-0.660	0.700
2020/01/31 07:14:07.0	89.570	-0.150	-0.680	0.740
2020/01/31 07:14:07.1	89.580	-0.130	-0.700	0.780
2020/01/31 07:14:07.2	89.580	-0.120	-0.710	0.820
2020/01/31 07:14:07.3	89.590	-0.100	-0.720	0.860
2020/01/31 07:14:07.4	89.590	-0.080	-0.720	0.900
2020/01/31 07:14:07.5	89.600	-0.060	-0.720	0.940
2020/01/31 07:14:07.6	89.610	-0.040	-0.720	0.980
2020/01/31 07:14:07.7	89.620	-0.030	-0.710	1.030
2020/01/31 07:14:07.8	89.620	-0.010	-0.690	1.070
2020/01/31 07:14:07.9	89.630	0.000	-0.680	1.120
2020/01/31 07:14:08.0	89.640	0.010	-0.650	1.160
2020/01/31 07:14:08.1	89.640	0.020	-0.630	1.210
2020/01/31 07:14:08.2	89.650	0.030	-0.600	1.260
2020/01/31 07:14:08.3	89.650	0.040	-0.570	1.310
2020/01/31 07:14:08.4	89.650	0.050	-0.540	1.360
2020/01/31 07:14:08.5	89.660	0.060	-0.500	1.400
2020/01/31 07:14:08.6	89.660	0.070	-0.460	1.450
2020/01/31 07:14:08.7	89.660	0.070	-0.430	1.500
2020/01/31 07:14:08.8	89.660	0.080	-0.390	1.550
2020/01/31 07:14:08.9	89.660	0.080	-0.340	1.590
2020/01/31 07:14:09.0	89.660	0.080	-0.300	1.640
2020/01/31 07:14:09.1	89.660	0.090	-0.260	1.680
2020/01/31 07:14:09.2	89.660	0.090	-0.220	1.720
2020/01/31 07:14:09.3	89.650	0.090	-0.180	1.760
2020/01/31 07:14:09.4	89.640	0.090	-0.130	1.800
2020/01/31 07:14:09.5	89.640	0.090	-0.100	1.840
2020/01/31 07:14:09.6	89.630	0.100	-0.060	1.870
2020/01/31 07:14:09.7	89.630	0.100	-0.020	1.910
2020/01/31 07:14:09.8	89.620	0.100	0.010	1.940
2020/01/31 07:14:09.9	89.610	0.100	0.050	1.960
2020/01/31 07:14:10.0	89.600	0.100	0.080	1.990
2020/01/31 07:14:10.1	89.590	0.100	0.110	2.010
2020/01/31 07:14:10.2	89.580	0.100	0.130	2.030
2020/01/31 07:14:10.3	89.570	0.100	0.150	2.040
2020/01/31 07:14:10.4	89.560	0.110	0.180	2.060
2020/01/31 07:14:10.5	89.540	0.110	0.190	2.070
2020/01/31 07:14:10.6	89.530	0.110	0.210	2.080
2020/01/31 07:14:10.7	89.510	0.110	0.230	2.090
2020/01/31 07:14:10.8	89.490	0.120	0.240	2.090
2020/01/31 07:14:10.9	89.480	0.120	0.240	2.090
2020/01/31 07:14:11.0	89.460	0.130	0.250	2.090
2020/01/31 07:14:11.1	89.440	0.130	0.250	2.090
2020/01/31 07:14:11.2	89.420	0.130	0.250	2.090
2020/01/31 07:14:11.3	89.400	0.140	0.250	2.080
2020/01/31 07:14:11.4	89.380	0.140	0.250	2.080
2020/01/31 07:14:11.5	89.360	0.150	0.240	2.070
2020/01/31 07:14:11.6	89.340	0.150	0.230	2.050
2020/01/31 07:14:11.7	89.320	0.160	0.220	2.040
2020/01/31 07:14:11.8	89.300	0.160	0.200	2.020
2020/01/31 07:14:11.9	89.280	0.160	0.190	2.000
2020/01/31 07:14:12.0	89.260	0.170	0.170	1.980
2020/01/31 07:14:12.1	89.240	0.170	0.150	1.950
2020/01/31 07:14:12.2	89.230	0.170	0.120	1.930
2020/01/31 07:14:12.3	89.210	0.180	0.100	1.900
2020/01/31 07:14:12.4	89.200	0.180	0.070	1.860
2020/01/31 07:14:12.5	89.190	0.180	0.040	1.830
2020/01/31 07:14:12.6	89.180	0.180	0.020	1.790
2020/01/31 07:14:12.7	89.180	0.190	-0.020	1.750
2020/01/31 07:14:12.8	89.170	0.190	-0.050	1.700
2020/01/31 07:14:12.9	89.170	0.190	-0.080	1.660
2020/01/31 07:14:13.0	89.170	0.190	-0.110	1.610
2020/01/31 07:14:13.1	89.170	0.190	-0.150	1.560
2020/01/31 07:14:13.2	89.170	0.190	-0.180	1.500
2020/01/31 07:14:13.3	89.180	0.190	-0.220	1.450
2020/01/31 07:14:13.4	89.180	0.180	-0.250	1.390
2020/01/31 07:14:13.5	89.190	0.180	-0.280	1.330
2020/01/31 07:14:13.6	89.200	0.180	-0.320	1.270
2020/01/31 07:14:13.7	89.210	0.180	-0.350	1.210
2020/01/31 07:14:13.8	89.230	0.180	-0.380	1.150
2020/01/31 07:14:13.9	89.240	0.180	-0.410	1.080
2020/01/31 07:14:14.0	89.260	0.180	-0.440	1.020
2020/01/31 07:14:14.1	89.270	0.180	-0.470	0.960
2020/01/31 07:14:14.2	89.290	0.180	-0.490	0.890
2020/01/31 07:14:14.3	89.310	0.180	-0.520	0.830
2020/01/31 07:14:14.4	89.330	0.180	-0.540	0.760
2020/01/31 07:14:14.5	89.350	0.180	-0.560	0.700
2020/01/31 07:14:14.6	89.370	0.180	-0.580	0.640
2020/01/31 07:14:14.7	89.380	0.180	-0.590	0.580
2020/01/31 07:14:14.8	89.400	0.180	-0.610	0.520
2020/01/31 07:14:14.9	89.420	0.180	-0.610	0.470
2020/01/31 07:14:15.0	89.440	0.190	-0.620	0.410
2020/01/31 07:14:15.1	89.460	0.190	-0.630	0.360
2020/01/31 07:14:15.2	89.480	0.190	-0.630	0.310
2020/01/31 07:14:15.3	89.500	0.200	-0.620	0.260
2020/01/31 07:14:15.4	89.510	0.200	-0.620	0.220
2020/01/31 07:14:15.5	89.530	0.210	-0.610	0.170
2020/01/31 07:14:15.6	89.550	0.210	-0.600	0.130
2020/01/31 07:14:15.7	89.570	0.220	-0.590	0.100
2020/01/31 07:14:15.8	89.580	0.220	-0.580	0.060
2020/01/31 07:14:15.9	89.600	0.220	-0.560	0.030
2020/01/31 07:14:16.0	89.620	0.230	-0.540	0.010
2020/01/31 07:14:16.1	89.640	0.230	-0.520	-0.020
2020/01/31 07:14:16.2	89.650	0.240	-0.500	-0.040
2020/01/31 07:14:16.3	89.670	0.240	-0.480	-0.050
2020/01/31 07:14:16.4	89.690	0.240	-0.450	-0.060
2020/01/31 07:14:16.5	89.710	0.240	-0.430	-0.070
2020/01/31 07:14:16.6	89.720	0.240	-0.400	-0.070
2020/01/31 07:14:16.7	89.740	0.240	-0.370	-0.060
2020/01/31 07:14:16.8	89.750	0.240	-0.340	-0.050
2020/01/31 07:14:16.9	89.760	0.240	-0.310	-0.040
2020/01/31 07:14:17.0	89.770	0.230	-0.280	-0.020
2020/01/31 07:14:17.1	89.790	0.230	-0.250	0.000
2020/01/31 07:14:17.2	89.800	0.220	-0.220	0.030
2020/01/31 07:14:17.3	89.800	0.210	-0.190	0.070
2020/01/31 07:14:17.4	89.810	0.200	-0.160	0.100
2020/01/31 07:14:17.5	89.820	0.190	-0.130	0.150
2020/01/31 07:14:17.6	89.820	0.180	-0.100	0.190
2020/01/31 07:14:17.7	89.820	0.160	-0.070	0.240
2020/01/31 07:14:17.8	89.820	0.150	-0.040	0.290
2020/01/31 07:14:17.9	89.820	0.130	-0.010	0.350
2020/01/31 07:14:18.0	89.820	0.110	0.020	0.410
2020/01/31 07:14:18.1	89.820	0.080	0.050	0.480
2020/01/31 07:14:18.2	89.810	0.060	0.070	0.540
2020/01/31 07:14:18.3	89.800	0.030	0.100	0.610
2020/01/31 07:14:18.4	89.800	0.000	0.130	0.680
2020/01/31 07:14:18.5	89.790	-0.030	0.160	0.760
2020/01/31 07:14:18.6	89.770	-0.060	0.180	0.830
2020/01/31 07:14:18.7	89.760	-0.100	0.210	0.910
2020/01/31 07:14:18.8	89.750	-0.130	0.240	0.990
2020/01/31 07:14:18.9	89.730	-0.170	0.270	1.070
2020/01/31 07:14:19.0	89.720	-0.210	0.300	1.150
2020/01/31 07:14:19.1	89.700	-0.260	0.330	1.220
2020/01/31 07:14:19.2	89.680	-0.300	0.360	1.300
2020/01/31 07:14:19.3	89.660	-0.350	0.390	1.380
2020/01/31 07:14:19.4	89.640	-0.390	0.420	1.460
2020/01/31 07:14:19.5	89.620	-0.440	0.450	1.540
2020/01/31 07:14:19.6	89.600	-0.490	0.470	1.610
2020/01/31 07:14:19.7	89.580	-0.540	0.500	1.690
2020/01/31 07:14:19.8	89.560	-0.590	0.520	1.760
2020/01/31 07:14:19.9	89.540	-0.630	0.550	1.830
2020/01/31 07:14:20.0	89.530	-0.680	0.570	1.890
2020/01/31 07:14:20.1	89.510	-0.730	0.590	1.950
2020/01/31 07:14:20.2	89.490	-0.770	0.600	2.010
2020/01/31 07:14:20.3	89.460	-0.810	0.610	2.060
2020/01/31 07:14:20.4	89.450	-0.860	0.620	2.110
2020/01/31 07:14:20.5	89.430	-0.890	0.630	2.160
2020/01/31 07:14:20.6	89.410	-0.930	0.630	2.200
2020/01/31 07:14:20.7	89.400	-0.960	0.630	2.240
2020/01/31 07:14:20.8	89.390	-0.990	0.630	2.270
2020/01/31 07:14:20.9	89.380	-1.010	0.620	2.300
2020/01/31 07:14:21.0	89.370	-1.030	0.610	2.320
2020/01/31 07:14:21.1	89.360	-1.050	0.600	2.340
2020/01/31 07:14:21.2	89.350	-1.060	0.580	2.360
2020/01/31 07:14:21.3	89.340	-1.070	0.550	2.360
2020/01/31 07:14:21.4	89.330	-1.070	0.530	2.370
2020/01/31 07:14:21.5	89.330	-1.060	0.490	2.370
2020/01/31 07:14:21.6	89.330	-1.050	0.460	2.370
2020/01/31 07:14:21.7	89.330	-1.040	0.420	2.360
2020/01/31 07:14:21.8	89.330	-1.020	0.370	2.350
2020/01/31 07:14:21.9	89.330	-0.990	0.320	2.330
2020/01/31 07:14:22.0	89.330	-0.960	0.270	2.310
2020/01/31 07:14:22.1	89.340	-0.930	0.210	2.290
2020/01/31 07:14:22.2	89.350	-0.890	0.150	2.270
2020/01/31 07:14:22.3	89.350	-0.840	0.090	2.230
2020/01/31 07:14:22.4	89.360	-0.790	0.020	2.200
2020/01/31 07:14:22.5	89.370	-0.740	-0.050	2.160
2020/01/31 07:14:22.6	89.380	-0.680	-0.130	2.120
2020/01/31 07:14:22.7	89.400	-0.620	-0.200	2.080
2020/01/31 07:14:22.8	89.410	-0.550	-0.280	2.040
2020/01/31 07:14:22.9	89.430	-0.490	-0.360	1.990
2020/01/31 07:14:23.0	89.450	-0.420	-0.440	1.940
2020/01/31 07:14:23.1	89.470	-0.350	-0.520	1.880
2020/01/31 07:14:23.2	89.490	-0.270	-0.600	1.830
2020/01/31 07:14:23.3	89.510	-0.200	-0.680	1.770
2020/01/31 07:14:23.4	89.530	-0.120	-0.760	1.710
2020/01/31 07:14:23.5	89.550	-0.050	-0.840	1.650
2020/01/31 07:14:23.6	89.580	0.030	-0.910	1.590
2020/01/31 07:14:23.7	89.600	0.110	-0.990	1.520
2020/01/31 07:14:23.8	89.630	0.180	-1.060	1.460
2020/01/31 07:14:23.9	89.660	0.250	-1.120	1.390
2020/01/31 07:14:24.0	89.680	0.320	-1.180	1.320
2020/01/31 07:14:24.1	89.710	0.390	-1.240	1.260
2020/01/31 07:14:24.2	89.740	0.460	-1.290	1.190
2020/01/31 07:14:24.3	89.770	0.520	-1.330	1.130
2020/01/31 07:14:24.4	89.800	0.580	-1.370	1.060
2020/01/31 07:14:24.5	89.830	0.640	-1.400	1.000
2020/01/31 07:14:24.6	89.860	0.690	-1.430	0.930
2020/01/31 07:14:24.7	89.880	0.740	-1.450	0.870
2020/01/31 07:14:24.8	89.910	0.780	-1.460	0.820
2020/01/31 07:14:24.9	89.930	0.820	-1.460	0.760
2020/01/31 07:14:25.0	89.950	0.850	-1.460	0.710
2020/01/31 07:14:25.1	89.970	0.880	-1.440	0.670
2020/01/31 07:14:25.2	89.990	0.910	-1.420	0.620
2020/01/31 07:14:25.3	90.000	0.930	-1.400	0.580
2020/01/31 07:14:25.4	90.020	0.940	-1.360	0.550
2020/01/31 07:14:25.5	90.030	0.950	-1.320	0.510
2020/01/31 07:14:25.6	90.030	0.960	-1.260	0.480
2020/01/31 07:14:25.7	90.040	0.950	-1.210	0.460
2020/01/31 07:14:25.8	90.040	0.950	-1.140	0.440
2020/01/31 07:14:25.9	90.030	0.940	-1.070	0.420
2020/01/31 07:14:26.0	90.030	0.930	-0.990	0.410
2020/01/31 07:14:26.1	90.020	0.910	-0.910	0.400
2020/01/31 07:14:26.2	90.010	0.890	-0.820	0.390
2020/01/31 07:14:26.3	90.000	0.860	-0.720	0.390
2020/01/31 07:14:26.4	89.980	0.830	-0.620	0.380
2020/01/31 07:14:26.5	89.960	0.800	-0.520	0.380
2020/01/31 07:14:26.6	89.940	0.760	-0.420	0.390
2020/01/31 07:14:26.7	89.910	0.730	-0.310	0.390
2020/01/31 07:14:26.8	89.890	0.690	-0.200	0.400
2020/01/31 07:14:26.9	89.860	0.650	-0.090	0.410
2020/01/31 07:14:27.0	89.820	0.600	0.020	0.420
2020/01/31 07:14:27.1	89.790	0.560	0.120	0.430
2020/01/31 07:14:27.2	89.750	0.520	0.230	0.440
2020/01/31 07:14:27.3	89.720	0.470	0.330	0.460
2020/01/31 07:14:27.4	89.680	0.430	0.430	0.470
2020/01/31 07:14:27.5	89.640	0.380	0.530	0.490
2020/01/31 07:14:27.6	89.600	0.340	0.620	0.510
2020/01/31 07:14:27.7	89.550	0.290	0.710	0.520
2020/01/31 07:14:27.8	89.500	0.250	0.780	0.540
2020/01/31 07:14:27.9	89.460	0.210	0.860	0.560
2020/01/31 07:14:28.0	89.410	0.170	0.920	0.580
2020/01/31 07:14:28.1	89.360	0.130	0.970	0.600
2020/01/31 07:14:28.2	89.300	0.090	1.020	0.620
2020/01/31 07:14:28.3	89.260	0.060	1.060	0.640
2020/01/31 07:14:28.4	89.210	0.020	1.090	0.660
2020/01/31 07:14:28.5	89.160	-0.010	1.110	0.670
2020/01/31 07:14:28.6	89.110	-0.040	1.120	0.690
2020/01/31 07:14:28.7	89.060	-0.060	1.120	0.700
2020/01/31 07:14:28.8	89.020	-0.090	1.110	0.720
2020/01/31 07:14:28.9	88.980	-0.110	1.090	0.720
2020/01/31 07:14:29.0	88.940	-0.130	1.070	0.730
2020/01/31 07:14:29.1	88.910	-0.140	1.030	0.740
2020/01/31 07:14:29.2	88.880	-0.160	0.990	0.740
2020/01/31 07:14:29.3	88.850	-0.170	0.930	0.730
2020/01/31 07:14:29.4	88.830	-0.180	0.870	0.720
2020/01/31 07:14:29.5	88.820	-0.190	0.810	0.710
2020/01/31 07:14:29.6	88.810	-0.190	0.740	0.700
2020/01/31 07:14:29.7	88.800	-0.190	0.660	0.690
2020/01/31 07:14:29.8	88.810	-0.190	0.580	0.670
2020/01/31 07:14:29.9	88.810	-0.190	0.490	0.650
2020/01/31 07:14:30.0	88.830	-0.190	0.400	0.620
2020/01/31 07:14:30.1	88.850	-0.180	0.310	0.590
2020/01/31 07:14:30.2	88.870	-0.180	0.210	0.570
2020/01/31 07:14:30.3	88.900	-0.170	0.120	0.540
2020/01/31 07:14:30.4	88.940	-0.160	0.020	0.500
2020/01/31 07:14:30.5	88.980	-0.150	-0.080	0.470
2020/01/31 07:14:30.6	89.020	-0.140	-0.170	0.440
2020/01/31 07:14:30.7	89.070	-0.120	-0.270	0.410
2020/01/31 07:14:30.8	89.130	-0.110	-0.360	0.380
2020/01/31 07:14:30.9	89.180	-0.100	-0.450	0.350
2020/01/31 07:14:31.0	89.240	-0.080	-0.540	0.320
2020/01/31 07:14:31.1	89.300	-0.070	-0.620	0.290
2020/01/31 07:14:31.2	89.370	-0.050	-0.700	0.260
2020/01/31 07:14:31.3	89.430	-0.040	-0.770	0.240
2020/01/31 07:14:31.4	89.500	-0.020	-0.840	0.220
2020/01/31 07:14:31.5	89.560	-0.010	-0.900	0.200
2020/01/31 07:14:31.6	89.620	0.000	-0.950	0.190
2020/01/31 07:14:31.7	89.690	0.020	-1.000	0.180
2020/01/31 07:14:31.8	89.750	0.030	-1.030	0.170
2020/01/31 07:14:31.9	89.800	0.040	-1.060	0.170
2020/01/31 07:14:32.0	89.860	0.050	-1.090	0.180
2020/01/31 07:14:32.1	89.910	0.050	-1.100	0.190
2020/01/31 07:14:32.2	89.960	0.060	-1.100	0.210
2020/01/31 07:14:32.3	90.010	0.070	-1.100	0.240
2020/01/31 07:14:32.4	90.050	0.070	-1.090	0.270
2020/01/31 07:14:32.5	90.080	0.070	-1.070	0.300
2020/01/31 07:14:32.6	90.110	0.070	-1.040	0.340
2020/01/31 07:14:32.7	90.130	0.060	-1.000	0.390
2020/01/31 07:14:32.8	90.160	0.050	-0.960	0.450
2020/01/31 07:14:32.9	90.170	0.040	-0.910	0.510
2020/01/31 07:14:33.0	90.180	0.030	-0.850	0.580
2020/01/31 07:14:33.1	90.190	0.020	-0.780	0.650
2020/01/31 07:14:33.2	90.190	-0.000	-0.710	0.730
2020/01/31 07:14:33.3	90.180	-0.020	-0.630	0.810
2020/01/31 07:14:33.4	90.170	-0.050	-0.550	0.900
2020/01/31 07:14:33.5	90.160	-0.070	-0.470	0.990
2020/01/31 07:14:33.6	90.140	-0.100	-0.380	1.090
2020/01/31 07:14:33.7	90.120	-0.130	-0.290	1.200
2020/01/31 07:14:33.8	90.100	-0.160	-0.190	1.300
2020/01/31 07:14:33.9	90.070	-0.200	-0.100	1.410
2020/01/31 07:14:34.0	90.040	-0.230	-0.000	1.520
2020/01/31 07:14:34.1	90.010	-0.270	0.090	1.640
2020/01/31 07:14:34.2	89.970	-0.310	0.180	1.760
2020/01/31 07:14:34.3	89.920	-0.340	0.270	1.870
2020/01/31 07:14:34.4	89.880	-0.380	0.360	1.990
2020/01/31 07:14:34.5	89.840	-0.420	0.440	2.110
2020/01/31 07:14:34.6	89.800	-0.460	0.520	2.230
2020/01/31 07:14:34.7	89.750	-0.490	0.580	2.340
2020/01/31 07:14:34.8	89.700	-0.530	0.650	2.460
2020/01/31 07:14:34.9	89.650	-0.560	0.700	2.570
2020/01/31 07:14:35.0	89.610	-0.600	0.750	2.680
2020/01/31 07:14:35.1	89.560	-0.630	0.790	2.780
2020/01/31 07:14:35.2	89.510	-0.650	0.820	2.880
2020/01/31 07:14:35.3	89.450	-0.680	0.840	2.970
2020/01/31 07:14:35.4	89.400	-0.700	0.850	3.060
2020/01/31 07:14:35.5	89.350	-0.710	0.850	3.140
2020/01/31 07:14:35.6	89.300	-0.730	0.840	3.210
2020/01/31 07:14:35.7	89.260	-0.740	0.820	3.270
2020/01/31 07:14:35.8	89.210	-0.740	0.790	3.320
2020/01/31 07:14:35.9	89.170	-0.740	0.760	3.370
2020/01/31 07:14:36.0	89.140	-0.740	0.710	3.400
2020/01/31 07:14:36.1	89.100	-0.740	0.660	3.420
2020/01/31 07:14:36.2	89.070	-0.720	0.600	3.440
2020/01/31 07:14:36.3	89.050	-0.710	0.530	3.440
2020/01/31 07:14:36.4	89.030	-0.690	0.450	3.430
2020/01/31 07:14:36.5	89.010	-0.670	0.370	3.410
2020/01/31 07:14:36.6	89.000	-0.640	0.280	3.380
2020/01/31 07:14:36.7	88.990	-0.610	0.190	3.340
2020/01/31 07:14:36.8	88.980	-0.570	0.090	3.300
2020/01/31 07:14:36.9	88.990	-0.540	-0.000	3.240
2020/01/31 07:14:37.0	88.990	-0.490	-0.100	3.170
2020/01/31 07:14:37.1	89.000	-0.450	-0.200	3.100
2020/01/31 07:14:37.2	89.010	-0.400	-0.300	3.010
2020/01/31 07:14:37.3	89.030	-0.350	-0.400	2.920
2020/01/31 07:14:37.4	89.050	-0.300	-0.500	2.830
2020/01/31 07:14:37.5	89.070	-0.250	-0.590	2.720
2020/01/31 07:14:37.6	89.100	-0.200	-0.680	2.620
2020/01/31 07:14:37.7	89.130	-0.140	-0.760	2.510
2020/01/31 07:14:37.8	89.160	-0.090	-0.840	2.390
2020/01/31 07:14:37.9	89.190	-0.030	-0.910	2.280
2020/01/31 07:14:38.0	89.230	0.020	-0.980	2.150
2020/01/31 07:14:38.1	89.270	0.080	-1.040	2.030
2020/01/31 07:14:38.2	89.300	0.130	-1.090	1.910
2020/01/31 07:14:38.3	89.340	0.180	-1.130	1.780
2020/01/31 07:14:38.4	89.370	0.230	-1.160	1.660
2020/01/31 07:14:38.5	89.410	0.280	-1.190	1.530
2020/01/31 07:14:38.6	89.450	0.330	-1.210	1.400
2020/01/31 07:14:38.7	89.480	0.380	-1.220	1.270
2020/01/31 07:14:38.8	89.510	0.420	-1.210	1.150
2020/01/31 07:14:38.9	89.550	0.460	-1.200	1.020
2020/01/31 07:14:39.0	89.580	0.490	-1.190	0.900
2020/01/31 07:14:39.1	89.610	0.520	-1.160	0.780
2020/01/31 07:14:39.2	89.640	0.550	-1.120	0.660
2020/01/31 07:14:39.3	89.660	0.580	-1.080	0.540
2020/01/31 07:14:39.4	89.690	0.600	-1.020	0.430
2020/01/31 07:14:39.5	89.710	0.610	-0.960	0.310
2020/01/31 07:14:39.6	89.730	0.630	-0.900	0.210
2020/01/31 07:14:39.7	89.740	0.640	-0.820	0.100
2020/01/31 07:14:39.8	89.760	0.640	-0.740	0.000
2020/01/31 07:14:39.9	89.770	0.640	-0.660	-0.090
2020/01/31 07:14:40.0	89.780	0.640	-0.570	-0.180
2020/01/31 07:14:40.1	89.780	0.630	-0.480	-0.270
2020/01/31 07:14:40.2	89.780	0.630	-0.390	-0.350
2020/01/31 07:14:40.3	89.780	0.610	-0.300	-0.420
2020/01/31 07:14:40.4	89.780	0.600	-0.200	-0.500
2020/01/31 07:14:40.5	89.770	0.580	-0.110	-0.560
2020/01/31 07:14:40.6	89.760	0.560	-0.020	-0.620
2020/01/31 07:14:40.7	89.750	0.540	0.070	-0.670
2020/01/31 07:14:40.8	89.730	0.510	0.160	-0.720
2020/01/31 07:14:40.9	89.720	0.490	0.240	-0.770
2020/01/31 07:14:41.0	89.700	0.460	0.320	-0.810
2020/01/31 07:14:41.1	89.680	0.440	0.390	-0.840
2020/01/31 07:14:41.2	89.650	0.410	0.460	-0.870
2020/01/31 07:14:41.3	89.630	0.380	0.520	-0.890
2020/01/31 07:14:41.4	89.600	0.350	0.570	-0.910
2020/01/31 07:14:41.5	89.570	0.320	0.610	-0.930
2020/01/31 07:14:41.6	89.540	0.300	0.640	-0.930
2020/01/31 07:14:41.7	89.510	0.270	0.670	-0.940
2020/01/31 07:14:41.8	89.480	0.240	0.690	-0.940
2020/01/31 07:14:41.9	89.450	0.220	0.690	-0.930
2020/01/31 07:14:42.0	89.420	0.190	0.690	-0.920
2020/01/31 07:14:42.1	89.390	0.170	0.690	-0.900
2020/01/31 07:14:42.2	89.360	0.150	0.670	-0.880
2020/01/31 07:14:42.3	89.330	0.130	0.640	-0.860
2020/01/31 07:14:42.4	89.300	0.120	0.610	-0.830
2020/01/31 07:14:42.5	89.270	0.100	0.570	-0.790
2020/01/31 07:14:42.6	89.240	0.090	0.530	-0.760
2020/01/31 07:14:42.7	89.210	0.080	0.480	-0.720
2020/01/31 07:14:42.8	89.190	0.070	0.420	-0.670
2020/01/31 07:14:42.9	89.160	0.060	0.360	-0.620
2020/01/31 07:14:43.0	89.140	0.050	0.300	-0.570
2020/01/31 07:14:43.1	89.110	0.050	0.240	-0.510
2020/01/31 07:14:43.2	89.090	0.050	0.170	-0.460
2020/01/31 07:14:43.3	89.070	0.040	0.100	-0.400
2020/01/31 07:14:43.4	89.060	0.040	0.030	-0.330
2020/01/31 07:14:43.5	89.040	0.050	-0.030	-0.270
2020/01/31 07:14:43.6	89.030	0.050	-0.100	-0.210
2020/01/31 07:14:43.7	89.020	0.050	-0.160	-0.140
2020/01/31 07:14:43.8	89.010	0.050	-0.220	-0.070
2020/01/31 07:14:43.9	89.000	0.060	-0.280	-0.000
2020/01/31 07:14:44.0	89.000	0.060	-0.340	0.070
2020/01/31 07:14:44.1	88.990	0.070	-0.390	0.130
2020/01/31 07:14:44.2	88.990	0.070	-0.440	0.200
2020/01/31 07:14:44.3	88.990	0.070	-0.490	0.270
2020/01/31 07:14:44.4	88.990	0.080	-0.530	0.340
2020/01/31 07:14:44.5	88.990	0.080	-0.560	0.410
2020/01/31 07:14:44.6	89.000	0.090	-0.600	0.480
2020/01/31 07:14:44.7	89.000	0.090	-0.620	0.550
2020/01/31 07:14:44.8	89.010	0.090	-0.640	0.620
2020/01/31 07:14:44.9	89.020	0.090	-0.660	0.690
2020/01/31 07:14:45.0	89.030	0.090	-0.670	0.760
2020/01/31 07:14:45.1	89.040	0.090	-0.680	0.830
2020/01/31 07:14:45.2	89.050	0.090	-0.680	0.900
2020/01/31 07:14:45.3	89.060	0.080	-0.680	0.970
2020/01/31 07:14:45.4	89.070	0.080	-0.680	1.040
2020/01/31 07:14:45.5	89.090	0.070	-0.670	1.100
2020/01/31 07:14:45.6	89.100	0.060	-0.660	1.170
2020/01/31 07:14:45.7	89.110	0.050	-0.650	1.230
2020/01/31 07:14:45.8	89.130	0.040	-0.630	1.300
2020/01/31 07:14:45.9	89.140	0.030	-0.610	1.360
2020/01/31 07:14:46.0	89.160	0.020	-0.590	1.420
2020/01/31 07:14:46.1	89.180	0.010	-0.570	1.480
2020/01/31 07:14:46.2	89.200	-0.010	-0.540	1.540
2020/01/31 07:14:46.3	89.210	-0.020	-0.520	1.600
2020/01/31 07:14:46.4	89.230	-0.040	-0.490	1.650
2020/01/31 07:14:46.5	89.250	-0.050	-0.470	1.710
2020/01/31 07:14:46.6	89.270	-0.070	-0.440	1.760
2020/01/31 07:14:46.7	89.300	-0.090	-0.410	1.810
2020/01/31 07:14:46.8	89.320	-0.110	-0.380	1.860
2020/01/31 07:14:46.9	89.350	-0.120	-0.350	1.910
2020/01/31 07:14:47.0	89.370	-0.140	-0.320	1.960
2020/01/31 07:14:47.1	89.390	-0.160	-0.290	2.010
2020/01/31 07:14:47.2	89.420	-0.180	-0.260	2.050
2020/01/31 07:14:47.3	89.450	-0.190	-0.230	2.100
2020/01/31 07:14:47.4	89.470	-0.210	-0.200	2.140
2020/01/31 07:14:47.5	89.490	-0.230	-0.160	2.190
2020/01/31 07:14:47.6	89.510	-0.240	-0.130	2.230
2020/01/31 07:14:47.7	89.530	-0.260	-0.100	2.280
2020/01/31 07:14:47.8	89.550	-0.270	-0.070	2.320
2020/01/31 07:14:47.9	89.570	-0.280	-0.030	2.360
2020/01/31 07:14:48.0	89.580	-0.300	0.000	2.400
2020/01/31 07:14:48.1	89.600	-0.310	0.030	2.440
2020/01/31 07:14:48.2	89.610	-0.320	0.070	2.470
2020/01/31 07:14:48.3	89.620	-0.330	0.100	2.510
2020/01/31 07:14:48.4	89.640	-0.340	0.130	2.540
2020/01/31 07:14:48.5	89.650	-0.350	0.160	2.570
2020/01/31 07:14:48.6	89.660	-0.360	0.190	2.600
2020/01/31 07:14:48.7	89.670	-0.360	0.220	2.620
2020/01/31 07:14:48.8	89.680	-0.370	0.250	2.640
2020/01/31 07:14:48.9	89.680	-0.370	0.280	2.660
2020/01/31 07:14:49.0	89.690	-0.380	0.310	2.670
2020/01/31 07:14:49.1	89.690	-0.380	0.330	2.680
2020/01/31 07:14:49.2	89.690	-0.380	0.350	2.690
2020/01/31 07:14:49.3	89.680	-0.380	0.380	2.690
2020/01/31 07:14:49.4	89.680	-0.380	0.390	2.680
2020/01/31 07:14:49.5	89.680	-0.380	0.410	2.680
2020/01/31 07:14:49.6	89.670	-0.370	0.430	2.670
2020/01/31 07:14:49.7	89.660	-0.370	0.440	2.650
2020/01/31 07:14:49.8	89.650	-0.360	0.450	2.640
2020/01/31 07:14:49.9	89.640	-0.360	0.450	2.610
2020/01/31 07:14:50.0	89.630	-0.350	0.460	2.590
2020/01/31 07:14:50.1	89.610	-0.340	0.460	2.560
2020/01/31 07:14:50.2	89.590	-0.330	0.460	2.520
2020/01/31 07:14:50.3	89.580	-0.320	0.450	2.480
2020/01/31 07:14:50.4	89.560	-0.310	0.440	2.440
2020/01/31 07:14:50.5	89.540	-0.300	0.430	2.390
2020/01/31 07:14:50.6	89.510	-0.280	0.420	2.340
2020/01/31 07:14:50.7	89.490	-0.270	0.400	2.280
2020/01/31 07:14:50.8	89.460	-0.250	0.370	2.230
2020/01/31 07:14:50.9	89.440	-0.240	0.350	2.170
2020/01/31 07:14:51.0	89.410	-0.220	0.320	2.100
2020/01/31 07:14:51.1	89.380	-0.200	0.290	2.040
2020/01/31 07:14:51.2	89.360	-0.180	0.250	1.970
2020/01/31 07:14:51.3	89.330	-0.160	0.210	1.890
2020/01/31 07:14:51.4	89.300	-0.130	0.170	1.820
2020/01/31 07:14:51.5	89.280	-0.110	0.120	1.740
2020/01/31 07:14:51.6	89.250	-0.090	0.070	1.670
2020/01/31 07:14:51.7	89.230	-0.060	0.020	1.590
2020/01/31 07:14:51.8	89.210	-0.030	-0.040	1.510
2020/01/31 07:14:51.9	89.190	-0.010	-0.090	1.420
2020/01/31 07:14:52.0	89.170	0.020	-0.150	1.340
2020/01/31 07:14:52.1	89.150	0.050	-0.220	1.260
2020/01/31 07:14:52.2	89.140	0.070	-0.280	1.170
2020/01/31 07:14:52.3	89.130	0.100	-0.350	1.080
2020/01/31 07:14:52.4	89.120	0.130	-0.410	1.000
2020/01/31 07:14:52.5	89.110	0.160	-0.480	0.910
2020/01/31 07:14:52.6	89.110	0.190	-0.550	0.820
2020/01/31 07:14:52.7	89.100	0.220	-0.610	0.740
2020/01/31 07:14:52.8	89.100	0.240	-0.680	0.650
2020/01/31 07:14:52.9	89.100	0.270	-0.740	0.570
2020/01/31 07:14:53.0	89.110	0.300	-0.800	0.490
2020/01/31 07:14:53.1	89.110	0.320	-0.860	0.410
2020/01/31 07:14:53.2	89.120	0.350	-0.920	0.330
2020/01/31 07:14:53.3	89.120	0.370	-0.970	0.250
2020/01/31 07:14:53.4	89.130	0.390	-1.020	0.180
2020/01/31 07:14:53.5	89.140	0.410	-1.060	0.110
2020/01/31 07:14:53.6	89.150	0.430	-1.100	0.040
2020/01/31 07:14:53.7	89.170	0.450	-1.130	-0.030
2020/01/31 07:14:53.8	89.180	0.460	-1.160	-0.100
2020/01/31 07:14:53.9	89.190	0.480	-1.190	-0.160
2020/01/31 07:14:54.0	89.210	0.490	-1.200	-0.220
2020/01/31 07:14:54.1	89.220	0.500	-1.210	-0.270
2020/01/31 07:14:54.2	89.240	0.500	-1.210	-0.330
2020/01/31 07:14:54.3	89.250	0.500	-1.210	-0.380
2020/01/31 07:14:54.4	89.260	0.510	-1.200	-0.430
2020/01/31 07:14:54.5	89.280	0.500	-1.180	-0.470
2020/01/31 07:14:54.6	89.290	0.500	-1.150	-0.510
2020/01/31 07:14:54.7	89.310	0.490	-1.120	-0.550
2020/01/31 07:14:54.8	89.330	0.480	-1.070	-0.590
2020/01/31 07:14:54.9	89.340	0.470	-1.020	-0.620
2020/01/31 07:14:55.0	89.360	0.450	-0.970	-0.650
2020/01/31 07:14:55.1	89.370	0.430	-0.900	-0.680
2020/01/31 07:14:55.2	89.390	0.410	-0.830	-0.700
2020/01/31 07:14:55.3	89.400	0.380	-0.750	-0.720
2020/01/31 07:14:55.4	89.410	0.350	-0.670	-0.730
2020/01/31 07:14:55.5	89.420	0.320	-0.580	-0.730
2020/01/31 07:14:55.6	89.430	0.290	-0.490	-0.730
2020/01/31 07:14:55.7	89.440	0.250	-0.390	-0.730
2020/01/31 07:14:55.8	89.450	0.220	-0.290	-0.720
2020/01/31 07:14:55.9	89.460	0.180	-0.180	-0.710
2020/01/31 07:14:56.0	89.470	0.140	-0.080	-0.690
2020/01/31 07:14:56.1	89.470	0.090	0.030	-0.660
2020/01/31 07:14:56.2	89.480	0.050	0.140	-0.630
2020/01/31 07:14:56.3	89.490	0.000	0.250	-0.600
2020/01/31 07:14:56.4	89.490	-0.040	0.360	-0.550
2020/01/31 07:14:56.5	89.490	-0.090	0.470	-0.510
2020/01/31 07:14:56.6	89.490	-0.140	0.570	-0.460
2020/01/31 07:14:56.7	89.480	-0.180	0.670	-0.400
2020/01/31 07:14:56.8	89.480	-0.230	0.770	-0.340
2020/01/31 07:14:56.9	89.470	-0.270	0.860	-0.280
2020/01/31 07:14:57.0	89.460	-0.320	0.940	-0.210
2020/01/31 07:14:57.1	89.450	-0.360	1.020	-0.140
2020/01/31 07:14:57.2	89.440	-0.400	1.090	-0.070
2020/01/31 07:14:57.3	89.430	-0.440	1.160	0.010
2020/01/31 07:14:57.4	89.420	-0.480	1.210	0.090
2020/01/31 07:14:57.5	89.410	-0.510	1.260	0.170
2020/01/31 07:14:57.6	89.400	-0.540	1.290	0.260
2020/01/31 07:14:57.7	89.380	-0.570	1.320	0.340
2020/01/31 07:14:57.8	89.370	-0.590	1.340	0.420
2020/01/31 07:14:57.9	89.360	-0.610	1.340	0.510
2020/01/31 07:14:58.0	89.350	-0.620	1.340	0.590
2020/01/31 07:14:58.1	89.340	-0.630	1.320	0.670
2020/01/31 07:14:58.2	89.330	-0.640	1.290	0.750
2020/01/31 07:14:58.3	89.320	-0.640	1.250	0.830
2020/01/31 07:14:58.4	89.320	-0.630	1.200	0.900
2020/01/31 07:14:58.5	89.310	-0.620	1.140	0.980
2020/01/31 07:14:58.6	89.310	-0.610	1.070	1.050
2020/01/31 07:14:58.7	89.310	-0.590	0.980	1.110
2020/01/31 07:14:58.8	89.310	-0.560	0.890	1.170
2020/01/31 07:14:58.9	89.320	-0.530	0.790	1.230
2020/01/31 07:14:59.0	89.320	-0.500	0.680	1.290
2020/01/31 07:14:59.1	89.330	-0.460	0.560	1.340
2020/01/31 07:14:59.2	89.330	-0.420	0.440	1.390
2020/01/31 07:14:59.3	89.340	-0.370	0.310	1.430
2020/01/31 07:14:59.4	89.350	-0.320	0.180	1.470
2020/01/31 07:14:59.5	89.360	-0.270	0.040	1.510
2020/01/31 07:14:59.6	89.370	-0.210	-0.100	1.550
2020/01/31 07:14:59.7	89.380	-0.150	-0.240	1.580
2020/01/31 07:14:59.8	89.390	-0.090	-0.380	1.620
2020/01/31 07:14:59.9	89.410	-0.030	-0.520	1.650
2020/01/31 07:15:00.0	89.420	0.040	-0.660	1.680
2020/01/31 07:15:00.1	89.430	0.100	-0.800	1.720
2020/01/31 07:15:00.2	89.440	0.170	-0.930	1.750
2020/01/31 07:15:00.3	89.450	0.230	-1.060	1.780
2020/01/31 07:15:00.4	89.460	0.290	-1.180	1.810
2020/01/31 07:15:00.5	89.460	0.350	-1.290	1.840
2020/01/31 07:15:00.6	89.470	0.410	-1.390	1.870
2020/01/31 07:15:00.7	89.470	0.470	-1.480	1.900
2020/01/31 07:15:00.8	89.480	0.520	-1.560	1.940
2020/01/31 07:15:00.9	89.480	0.570	-1.630	1.970
2020/01/31 07:15:01.0	89.490	0.610	-1.680	2.000
2020/01/31 07:15:01.1	89.490	0.650	-1.720	2.030
2020/01/31 07:15:01.2	89.490	0.690	-1.760	2.060
2020/01/31 07:15:01.3	89.490	0.720	-1.770	2.090
2020/01/31 07:15:01.4	89.490	0.740	-1.770	2.120
2020/01/31 07:15:01.5	89.490	0.760	-1.760	2.140
2020/01/31 07:15:01.6	89.490	0.770	-1.740	2.170
2020/01/31 07:15:01.7	89.490	0.780	-1.700	2.190
2020/01/31 07:15:01.8	89.490	0.780	-1.660	2.210
2020/01/31 07:15:01.9	89.490	0.770	-1.600	2.230
2020/01/31 07:15:02.0	89.490	0.760	-1.520	2.250
2020/01/31 07:15:02.1	89.490	0.740	-1.440	2.260
2020/01/31 07:15:02.2	89.490	0.720	-1.350	2.280
2020/01/31 07:15:02.3	89.490	0.690	-1.250	2.280
2020/01/31 07:15:02.4	89.490	0.650	-1.150	2.290
2020/01/31 07:15:02.5	89.490	0.620	-1.030	2.290
2020/01/31 07:15:02.6	89.490	0.570	-0.910	2.290
2020/01/31 07:15:02.7	89.490	0.530	-0.790	2.290
2020/01/31 07:15:02.8	89.490	0.480	-0.660	2.280
2020/01/31 07:15:02.9	89.490	0.430	-0.530	2.270
2020/01/31 07:15:03.0	89.490	0.370	-0.400	2.260
2020/01/31 07:15:03.1	89.490	0.310	-0.260	2.250
2020/01/31 07:15:03.2	89.490	0.260	-0.130	2.230
2020/01/31 07:15:03.3	89.490	0.200	-0.000	2.200
2020/01/31 07:15:03.4	89.490	0.140	0.120	2.180
2020/01/31 07:15:03.5	89.490	0.080	0.250	2.150
2020/01/31 07:15:03.6	89.490	0.020	0.360	2.120
2020/01/31 07:15:03.7	89.490	-0.030	0.480	2.090
2020/01/31 07:15:03.8	89.490	-0.090	0.580	2.050
2020/01/31 07:15:03.9	89.490	-0.140	0.680	2.010
2020/01/31 07:15:04.0	89.490	-0.190	0.770	1.970
2020/01/31 07:15:04.1	89.490	-0.240	0.850	1.920
2020/01/31 07:15:04.2	89.490	-0.290	0.930	1.870
2020/01/31 07:15:04.3	89.490	-0.330	1.000	1.820
2020/01/31 07:15:04.4	89.490	-0.370	1.050	1.770
2020/01/31 07:15:04.5	89.490	-0.400	1.100	1.720
2020/01/31 07:15:04.6	89.490	-0.430	1.140	1.660
2020/01/31 07:15:04.7	89.490	-0.460	1.160	1.610
2020/01/31 07:15:04.8	89.490	-0.490	1.180	1.550
2020/01/31 07:15:04.9	89.490	-0.510	1.190	1.490
2020/01/31 07:15:05.0	89.490	-0.520	1.190	1.440
2020/01/31 07:15:05.1	89.480	-0.540	1.180	1.380
2020/01/31 07:15:05.2	89.480	-0.550	1.160	1.320
2020/01/31 07:15:05.3	89.480	-0.550	1.130	1.260
2020/01/31 07:15:05.4	89.480	-0.550	1.090	1.200
2020/01/31 07:15:05.5	89.480	-0.550	1.050	1.150
2020/01/31 07:15:05.6	89.470	-0.550	1.000	1.090
2020/01/31 07:15:05.7	89.460	-0.540	0.940	1.040
2020/01/31 07:15:05.8	89.460	-0.530	0.880	0.980
2020/01/31 07:15:05.9	89.450	-0.520	0.810	0.930
2020/01/31 07:15:06.0	89.440	-0.500	0.730	0.870
2020/01/31 07:15:06.1	89.440	-0.480	0.660	0.820
2020/01/31 07:15:06.2	89.430	-0.460	0.570	0.770
2020/01/31 07:15:06.3	89.420	-0.440	0.480	0.720
2020/01/31 07:15:06.4	89.410	-0.420	0.390	0.670
2020/01/31 07:15:06.5	89.410	-0.390	0.300	0.620
2020/01/31 07:15:06.6	89.400	-0.370	0.210	0.570
2020/01/31 07:15:06.7	89.400	-0.340	0.110	0.520
2020/01/31 07:15:06.8	89.400	-0.310	0.010	0.480
2020/01/31 07:15:06.9	89.390	-0.280	-0.080	0.430
2020/01/31 07:15:07.0	89.390	-0.260	-0.180	0.380
2020/01/31 07:15:07.1	89.390	-0.230	-0.280	0.340
2020/01/31 07:15:07.2	89.400	-0.190	-0.370	0.290
2020/01/31 07:15:07.3	89.410	-0.160	-0.470	0.250
2020/01/31 07:15:07.4	89.410	-0.130	-0.570	0.200
2020/01/31 07:15:07.5	89.420	-0.100	-0.660	0.160
2020/01/31 07:15:07.6	89.420	-0.070	-0.740	0.110
2020/01/31 07:15:07.7	89.430	-0.040	-0.830	0.070
2020/01/31 07:15:07.8	89.440	-0.010	-0.910	0.030
2020/01/31 07:15:07.9	89.450	0.020	-0.980	-0.010
2020/01/31 07:15:08.0	89.470	0.050	-1.050	-0.050
2020/01/31 07:15:08.1	89.480	0.080	-1.120	-0.090
2020/01/31 07:15:08.2	89.490	0.110	-1.180	-0.120
2020/01/31 07:15:08.3	89.510	0.140	-1.230	-0.160
2020/01/31 07:15:08.4	89.530	0.170	-1.280	-0.190
2020/01/31 07:15:08.5	89.540	0.200	-1.310	-0.220
2020/01/31 07:15:08.6	89.560	0.220	-1.340	-0.250
2020/01/31 07:15:08.7	89.570	0.250	-1.370	-0.270
2020/01/31 07:15:08.8	89.580	0.270	-1.380	-0.290
2020/01/31 07:15:08.9	89.600	0.300	-1.390	-0.310
2020/01/31 07:15:09.0	89.610	0.320	-1.380	-0.330
2020/01/31 07:15:09.1	89.620	0.340	-1.370	-0.340
2020/01/31 07:15:09.2	89.630	0.360	-1.350	-0.350
2020/01/31 07:15:09.3	89.640	0.380	-1.320	-0.360
2020/01/31 07:15:09.4	89.650	0.390	-1.290	-0.370
2020/01/31 07:15:09.5	89.660	0.400	-1.250	-0.370
2020/01/31 07:15:09.6	89.670	0.410	-1.190	-0.360
2020/01/31 07:15:09.7	89.670	0.420	-1.140	-0.360
2020/01/31 07:15:09.8	89.680	0.430	-1.070	-0.350
2020/01/31 07:15:09.9	89.690	0.430	-1.000	-0.340
2020/01/31 07:15:10.0	89.690	0.430	-0.920	-0.320
2020/01/31 07:15:10.1	89.690	0.430	-0.840	-0.310
2020/01/31 07:15:10.2	89.700	0.430	-0.750	-0.280
2020/01/31 07:15:10.3	89.700	0.420	-0.660	-0.260
2020/01/31 07:15:10.4	89.700	0.410	-0.570	-0.230
2020/01/31 07:15:10.5	89.700	0.400	-0.470	-0.200
2020/01/31 07:15:10.6	89.700	0.390	-0.380	-0.170
2020/01/31 07:15:10.7	89.700	0.370	-0.280	-0.130
2020/01/31 07:15:10.8	89.690	0.350	-0.180	-0.090
2020/01/31 07:15:10.9	89.690	0.330	-0.080	-0.050
2020/01/31 07:15:11.0	89.690	0.310	0.020	-0.010
2020/01/31 07:15:11.1	89.690	0.280	0.120	0.040
2020/01/31 07:15:11.2	89.680	0.260	0.220	0.090
2020/01/31 07:15:11.3	89.680	0.230	0.310	0.150
2020/01/31 07:15:11.4	89.670	0.200	0.400	0.200
2020/01/31 07:15:11.5	89.670	0.170	0.480	0.260
2020/01/31 07:15:11.6	89.660	0.130	0.560	0.320
2020/01/31 07:15:11.7	89.660	0.100	0.640	0.380
2020/01/31 07:15:11.8	89.650	0.070	0.710	0.440
2020/01/31 07:15:11.9	89.650	0.040	0.780	0.510
2020/01/31 07:15:12.0	89.640	0.000	0.840	0.580
2020/01/31 07:15:12.1	89.640	-0.030	0.890	0.650
2020/01/31 07:15:12.2	89.630	-0.070	0.940	0.720
2020/01/31 07:15:12.3	89.620	-0.100	0.980	0.790
2020/01/31 07:15:12.4	89.610	-0.130	1.020	0.860
2020/01/31 07:15:12.5	89.600	-0.160	1.040	0.940
2020/01/31 07:15:12.6	89.600	-0.190	1.060	1.010
2020/01/31 07:15:12.7	89.580	-0.220	1.080	1.090
2020/01/31 07:15:12.8	89.570	-0.250	1.090	1.160
2020/01/31 07:15:12.9	89.560	-0.280	1.090	1.230
2020/01/31 07:15:13.0	89.550	-0.300	1.080	1.310
2020/01/31 07:15:13.1	89.540	-0.330	1.070	1.380
2020/01/31 07:15:13.2	89.530	-0.350	1.050	1.450
2020/01/31 07:15:13.3	89.510	-0.370	1.020	1.520
2020/01/31 07:15:13.4	89.500	-0.390	0.990	1.590
2020/01/31 07:15:13.5	89.490	-0.410	0.950	1.650
2020/01/31 07:15:13.6	89.480	-0.420	0.910	1.710
2020/01/31 07:15:13.7	89.470	-0.430	0.860	1.770
2020/01/31 07:15:13.8	89.460	-0.440	0.810	1.820
2020/01/31 07:15:13.9	89.450	-0.450	0.750	1.880
2020/01/31 07:15:14.0	89.440	-0.460	0.690	1.930
2020/01/31 07:15:14.1	89.430	-0.460	0.620	1.970
2020/01/31 07:15:14.2	89.430	-0.460	0.550	2.010
2020/01/31 07:15:14.3	89.420	-0.460	0.470	2.050
2020/01/31 07:15:14.4	89.420	-0.450	0.400	2.080
2020/01/31 07:15:14.5	89.420	-0.450	0.320	2.110
2020/01/31 07:15:14.6	89.420	-0.440	0.240	2.140
2020/01/31 07:15:14.7	89.420	-0.430	0.150	2.160
2020/01/31 07:15:14.8	89.420	-0.410	0.070	2.170
2020/01/31 07:15:14.9	89.430	-0.400	-0.020	2.190
2020/01/31 07:15:15.0	89.430	-0.380	-0.110	2.200
2020/01/31 07:15:15.1	89.440	-0.360	-0.200	2.210
2020/01/31 07:15:15.2	89.450	-0.340	-0.280	2.210
2020/01/31 07:15:15.3	89.450	-0.310	-0.370	2.210
2020/01/31 07:15:15.4	89.460	-0.280	-0.460	2.210
2020/01/31 07:15:15.5	89.470	-0.250	-0.550	2.210
2020/01/31 07:15:15.6	89.480	-0.220	-0.630	2.200
2020/01/31 07:15:15.7	89.500	-0.190	-0.710	2.200
2020/01/31 07:15:15.8	89.510	-0.160	-0.790	2.190
2020/01/31 07:15:15.9	89.530	-0.120	-0.870	2.180
2020/01/31 07:15:16.0	89.540	-0.080	-0.950	2.170
2020/01/31 07:15:16.1	89.560	-0.040	-1.020	2.160
2020/01/31 07:15:16.2	89.570	-0.000	-1.090	2.140
2020/01/31 07:15:16.3	89.590	0.040	-1.160	2.130
2020/01/31 07:15:16.4	89.600	0.080	-1.210	2.110
2020/01/31 07:15:16.5	89.620	0.120	-1.270	2.100
2020/01/31 07:15:16.6	89.630	0.160	-1.320	2.080
2020/01/31 07:15:16.7	89.650	0.200	-1.360	2.070
2020/01/31 07:15:16.8	89.660	0.250	-1.400	2.050
2020/01/31 07:15:16.9	89.680	0.290	-1.440	2.030
2020/01/31 07:15:17.0	89.690	0.330	-1.460	2.020
2020/01/31 07:15:17.1	89.700	0.360	-1.480	2.000
2020/01/31 07:15:17.2	89.710	0.400	-1.490	1.980
2020/01/31 07:15:17.3	89.720	0.430	-1.500	1.970
2020/01/31 07:15:17.4	89.730	0.470	-1.490	1.950
2020/01/31 07:15:17.5	89.740	0.500	-1.490	1.930
2020/01/31 07:15:17.6	89.750	0.520	-1.470	1.910
2020/01/31 07:15:17.7	89.760	0.550	-1.450	1.890
2020/01/31 07:15:17.8	89.760	0.570	-1.410	1.860
2020/01/31 07:15:17.9	89.770	0.580	-1.370	1.840
2020/01/31 07:15:18.0	89.780	0.600	-1.330	1.820
2020/01/31 07:15:18.1	89.780	0.610	-1.280	1.790
2020/01/31 07:15:18.2	89.780	0.620	-1.220	1.760
2020/01/31 07:15:18.3	89.790	0.620	-1.150	1.740
2020/01/31 07:15:18.4	89.790	0.620	-1.080	1.710
2020/01/31 07:15:18.5	89.790	0.610	-1.000	1.680
2020/01/31 07:15:18.6	89.790	0.600	-0.920	1.650
2020/01/31 07:15:18.7	89.790	0.590	-0.830	1.620
2020/01/31 07:15:18.8	89.790	0.570	-0.740	1.590
2020/01/31 07:15:18.9	89.780	0.550	-0.640	1.550
2020/01/31 07:15:19.0	89.780	0.530	-0.540	1.520
2020/01/31 07:15:19.1	89.770	0.500	-0.430	1.490
2020/01/31 07:15:19.2	89.760	0.470	-0.330	1.450
2020/01/31 07:15:19.3	89.750	0.440	-0.220	1.420
2020/01/31 07:15:19.4	89.740	0.400	-0.110	1.380
2020/01/31 07:15:19.5	89.730	0.370	0.000	1.350
2020/01/31 07:15:19.6	89.710	0.330	0.110	1.310
2020/01/31 07:15:19.7	89.700	0.290	0.220	1.280
2020/01/31 07:15:19.8	89.680	0.250	0.320	1.240
2020/01/31 07:15:19.9	89.660	0.200	0.420	1.210
2020/01/31 07:15:20.0	89.640	0.160	0.520	1.170
2020/01/31 07:15:20.1	89.620	0.120	0.620	1.140
2020/01/31 07:15:20.2	89.600	0.070	0.710	1.100
2020/01/31 07:15:20.3	89.580	0.030	0.790	1.060
2020/01/31 07:15:20.4	89.560	-0.010	0.870	1.020
2020/01/31 07:15:20.5	89.540	-0.050	0.940	0.990
2020/01/31 07:15:20.6	89.520	-0.090	1.010	0.940
2020/01/31 07:15:20.7	89.500	-0.130	1.070	0.900
2020/01/31 07:15:20.8	89.470	-0.170	1.110	0.860
2020/01/31 07:15:20.9	89.450	-0.200	1.150	0.810
2020/01/31 07:15:21.0	89.430	-0.230	1.190	0.770
2020/01/31 07:15:21.1	89.410	-0.260	1.210	0.720
2020/01/31 07:15:21.2	89.390	-0.280	1.220	0.670
2020/01/31 07:15:21.3	89.380	-0.300	1.230	0.620
2020/01/31 07:15:21.4	89.370	-0.320	1.220	0.560
2020/01/31 07:15:21.5	89.350	-0.340	1.210	0.510
2020/01/31 07:15:21.6	89.340	-0.350	1.190	0.450
2020/01/31 07:15:21.7	89.330	-0.360	1.160	0.390
2020/01/31 07:15:21.8	89.320	-0.370	1.120	0.330
2020/01/31 07:15:21.9	89.310	-0.370	1.070	0.270
2020/01/31 07:15:22.0	89.310	-0.370	1.020	0.210
2020/01/31 07:15:22.1	89.300	-0.360	0.960	0.150
2020/01/31 07:15:22.2	89.300	-0.360	0.890	0.080
2020/01/31 07:15:22.3	89.310	-0.350	0.810	0.020
2020/01/31 07:15:22.4	89.310	-0.330	0.730	-0.040
2020/01/31 07:15:22.5	89.320	-0.320	0.650	-0.100
2020/01/31 07:15:22.6	89.330	-0.300	0.560	-0.160
2020/01/31 07:15:22.7	89.330	-0.280	0.470	-0.210
2020/01/31 07:15:22.8	89.340	-0.260	0.370	-0.260
2020/01/31 07:15:22.9	89.350	-0.230	0.270	-0.320
2020/01/31 07:15:23.0	89.370	-0.210	0.170	-0.360
2020/01/31 07:15:23.1	89.380	-0.180	0.070	-0.410
2020/01/31 07:15:23.2	89.400	-0.160	-0.030	-0.450
2020/01/31 07:15:23.3	89.420	-0.130	-0.130	-0.490
2020/01/31 07:15:23.4	89.440	-0.100	-0.230	-0.530
2020/01/31 07:15:23.5	89.450	-0.070	-0.330	-0.560
2020/01/31 07:15:23.6	89.470	-0.040	-0.420	-0.580
2020/01/31 07:15:23.7	89.490	-0.020	-0.510	-0.610
2020/01/31 07:15:23.8	89.510	0.010	-0.600	-0.630
2020/01/31 07:15:23.9	89.530	0.040	-0.680	-0.640
2020/01/31 07:15:24.0	89.540	0.060	-0.750	-0.650
2020/01/31 07:15:24.1	89.560	0.090	-0.820	-0.660
2020/01/31 07:15:24.2	89.580	0.110	-0.880	-0.660
2020/01/31 07:15:24.3	89.590	0.130	-0.940	-0.650
2020/01/31 07:15:24.4	89.600	0.150	-0.990	-0.650
2020/01/31 07:15:24.5	89.610	0.170	-1.020	-0.640
2020/01/31 07:15:24.6	89.620	0.180	-1.060	-0.620
2020/01/31 07:15:24.7	89.630	0.190	-1.080	-0.610
2020/01/31 07:15:24.8	89.640	0.200	-1.090	-0.580
2020/01/31 07:15:24.9	89.640	0.210	-1.100	-0.560
2020/01/31 07:15:25.0	89.650	0.210	-1.100	-0.530
2020/01/31 07:15:25.1	89.650	0.220	-1.090	-0.490
2020/01/31 07:15:25.2	89.640	0.220	-1.070	-0.460
2020/01/31 07:15:25.3	89.640	0.210	-1.050	-0.410
2020/01/31 07:15:25.4	89.630	0.210	-1.020	-0.370
2020/01/31 07:15:25.5	89.620	0.200	-0.980	-0.320
2020/01/31 07:15:25.6	89.610	0.190	-0.940	-0.260
2020/01/31 07:15:25.7	89.600	0.180	-0.900	-0.210
2020/01/31 07:15:25.8	89.580	0.170	-0.850	-0.140
2020/01/31 07:15:25.9	89.560	0.160	-0.790	-0.080
2020/01/31 07:15:26.0	89.550	0.140	-0.730	-0.010
2020/01/31 07:15:26.1	89.520	0.120	-0.680	0.060
2020/01/31 07:15:26.2	89.500	0.100	-0.610	0.140
2020/01/31 07:15:26.3	89.480	0.090	-0.550	0.220
2020/01/31 07:15:26.4	89.460	0.070	-0.490	0.300
2020/01/31 07:15:26.5	89.430	0.050	-0.420	0.390
2020/01/31 07:15:26.6	89.410	0.030	-0.360	0.470
2020/01/31 07:15:26.7	89.380	0.010	-0.300	0.560
2020/01/31 07:15:26.8	89.360	-0.010	-0.250	0.650
2020/01/31 07:15:26.9	89.340	-0.030	-0.190	0.740
2020/01/31 07:15:27.0	89.310	-0.040	-0.140	0.830
2020/01/31 07:15:27.1	89.290	-0.060	-0.090	0.930
2020/01/31 07:15:27.2	89.270	-0.070	-0.050	1.020
2020/01/31 07:15:27.3	89.260	-0.090	-0.010	1.110
2020/01/31 07:15:27.4	89.240	-0.100	0.020	1.200
2020/01/31 07:15:27.5	89.230	-0.110	0.050	1.290
2020/01/31 07:15:27.6	89.220	-0.110	0.080	1.380
2020/01/31 07:15:27.7	89.210	-0.120	0.090	1.470
2020/01/31 07:15:27.8	89.210	-0.120	0.110	1.550
2020/01/31 07:15:27.9	89.210	-0.120	0.120	1.640
2020/01/31 07:15:28.0	89.210	-0.120	0.120	1.720
2020/01/31 07:15:28.1	89.210	-0.120	0.120	1.790
2020/01/31 07:15:28.2	89.220	-0.120	0.120	1.870
2020/01/31 07:15:28.3	89.230	-0.110	0.120	1.940
2020/01/31 07:15:28.4	89.250	-0.110	0.110	2.010
2020/01/31 07:15:28.5	89.270	-0.100	0.100	2.070
2020/01/31 07:15:28.6	89.290	-0.090	0.080	2.130
2020/01/31 07:15:28.7	89.310	-0.080	0.070	2.190
2020/01/31 07:15:28.8	89.330	-0.070	0.050	2.240
2020/01/31 07:15:28.9	89.360	-0.060	0.030	2.280
2020/01/31 07:15:29.0	89.380	-0.050	0.010	2.330
2020/01/31 07:15:29.1	89.410	-0.040	-0.010	2.360
2020/01/31 07:15:29.2	89.440	-0.020	-0.030	2.390
2020/01/31 07:15:29.3	89.470	-0.010	-0.060	2.420
2020/01/31 07:15:29.4	89.500	0.000	-0.080	2.440
2020/01/31 07:15:29.5	89.530	0.010	-0.090	2.460
2020/01/31 07:15:29.6	89.560	0.030	-0.110	2.470
2020/01/31 07:15:29.7	89.590	0.040	-0.130	2.480
2020/01/31 07:15:29.8	89.620	0.050	-0.140	2.480
2020/01/31 07:15:29.9	89.650	0.060	-0.150	2.480
2020/01/31 07:15:30.0	89.680	0.070	-0.160	2.480
2020/01/31 07:15:30.1	89.710	0.080	-0.170	2.470
2020/01/31 07:15:30.2	89.730	0.090	-0.170	2.460
2020/01/31 07:15:30.3	89.750	0.100	-0.180	2.450
2020/01/31 07:15:30.4	89.770	0.110	-0.180	2.430
2020/01/31 07:15:30.5	89.780	0.120	-0.180	2.420
2020/01/31 07:15:30.6	89.800	0.120	-0.170	2.400
2020/01/31 07:15:30.7	89.810	0.130	-0.170	2.380
2020/01/31 07:15:30.8	89.820	0.130	-0.160	2.360
2020/01/31 07:15:30.9	89.820	0.140	-0.150	2.330
2020/01/31 07:15:31.0	89.820	0.140	-0.130	2.310
2020/01/31 07:15:31.1	89.820	0.140	-0.120	2.290
2020/01/31 07:15:31.2	89.820	0.150	-0.110	2.260
2020/01/31 07:15:31.3	89.820	0.150	-0.090	2.240
2020/01/31 07:15:31.4	89.810	0.150	-0.080	2.210
2020/01/31 07:15:31.5	89.790	0.150	-0.060	2.190
2020/01/31 07:15:31.6	89.780	0.150	-0.040	2.160
2020/01/31 07:15:31.7	89.760	0.150	-0.030	2.130
2020/01/31 07:15:31.8	89.740	0.150	-0.010	2.110
2020/01/31 07:15:31.9	89.720	0.150	0.010	2.080
2020/01/31 07:15:32.0	89.700	0.150	0.020	2.050
2020/01/31 07:15:32.1	89.680	0.150	0.040	2.020
2020/01/31 07:15:32.2	89.650	0.150	0.050	1.990
2020/01/31 07:15:32.3	89.630	0.140	0.060	1.960
2020/01/31 07:15:32.4	89.600	0.140	0.070	1.930
2020/01/31 07:15:32.5	89.580	0.140	0.080	1.890
2020/01/31 07:15:32.6	89.550	0.130	0.090	1.860
2020/01/31 07:15:32.7	89.530	0.130	0.100	1.830
2020/01/31 07:15:32.8	89.500	0.120	0.110	1.790
2020/01/31 07:15:32.9	89.480	0.110	0.110	1.760
2020/01/31 07:15:33.0	89.450	0.100	0.120	1.720
2020/01/31 07:15:33.1	89.430	0.090	0.120	1.680
2020/01/31 07:15:33.2	89.410	0.080	0.120	1.650
2020/01/31 07:15:33.3	89.380	0.070	0.120	1.610
2020/01/31 07:15:33.4	89.360	0.060	0.120	1.570
2020/01/31 07:15:33.5	89.340	0.050	0.120	1.530
2020/01/31 07:15:33.6	89.320	0.040	0.110	1.490
2020/01/31 07:15:33.7	89.300	0.020	0.110	1.460
2020/01/31 07:15:33.8	89.280	0.010	0.100	1.420
2020/01/31 07:15:33.9	89.260	-0.010	0.090	1.380
2020/01/31 07:15:34.0	89.250	-0.020	0.080	1.340
2020/01/31 07:15:34.1	89.230	-0.040	0.070	1.300
2020/01/31 07:15:34.2	89.220	-0.050	0.060	1.260
2020/01/31 07:15:34.3	89.200	-0.070	0.050	1.210
2020/01/31 07:15:34.4	89.190	-0.090	0.040	1.170
2020/01/31 07:15:34.5	89.180	-0.100	0.020	1.120
2020/01/31 07:15:34.6	89.170	-0.120	0.010	1.080
2020/01/31 07:15:34.7	89.160	-0.130	-0.010	1.030
2020/01/31 07:15:34.8	89.150	-0.140	-0.020	0.980
2020/01/31 07:15:34.9	89.140	-0.160	-0.040	0.940
2020/01/31 07:15:35.0	89.140	-0.170	-0.060	0.880
2020/01/31 07:15:35.1	89.130	-0.180	-0.070	0.830
2020/01/31 07:15:35.2	89.130	-0.190	-0.090	0.780
2020/01/31 07:15:35.3	89.130	-0.200	-0.110	0.720
2020/01/31 07:15:35.4	89.130	-0.210	-0.130	0.660
2020/01/31 07:15:35.5	89.130	-0.210	-0.150	0.610
2020/01/31 07:15:35.6	89.140	-0.220	-0.170	0.550
2020/01/31 07:15:35.7	89.140	-0.220	-0.190	0.490
2020/01/31 07:15:35.8	89.150	-0.220	-0.210	0.420
2020/01/31 07:15:35.9	89.150	-0.220	-0.230	0.360
2020/01/31 07:15:36.0	89.160	-0.220	-0.250	0.300
2020/01/31 07:15:36.1	89.170	-0.220	-0.270	0.230
2020/01/31 07:15:36.2	89.180	-0.210	-0.290	0.170
2020/01/31 07:15:36.3	89.200	-0.200	-0.320	0.100
2020/01/31 07:15:36.4	89.210	-0.190	-0.340	0.040
2020/01/31 07:15:36.5	89.230	-0.180	-0.360	-0.030
2020/01/31 07:15:36.6	89.240	-0.170	-0.380	-0.090
2020/01/31 07:15:36.7	89.260	-0.160	-0.400	-0.150
2020/01/31 07:15:36.8	89.280	-0.140	-0.420	-0.210
2020/01/31 07:15:36.9	89.300	-0.120	-0.440	-0.270
2020/01/31 07:15:37.0	89.320	-0.110	-0.460	-0.330
2020/01/31 07:15:37.1	89.340	-0.090	-0.490	-0.380
2020/01/31 07:15:37.2	89.360	-0.070	-0.510	-0.430
2020/01/31 07:15:37.3	89.380	-0.040	-0.520	-0.480
2020/01/31 07:15:37.4	89.400	-0.020	-0.540	-0.520
2020/01/31 07:15:37.5	89.420	0.000	-0.560	-0.560
2020/01/31 07:15:37.6	89.440	0.030	-0.580	-0.600
2020/01/31 07:15:37.7	89.460	0.050	-0.600	-0.630
2020/01/31 07:15:37.8	89.480	0.070	-0.620	-0.650
2020/01/31 07:15:37.9	89.500	0.100	-0.640	-0.670
2020/01/31 07:15:38.0	89.520	0.120	-0.650	-0.690
2020/01/31 07:15:38.1	89.540	0.150	-0.670	-0.700
2020/01/31 07:15:38.2	89.560	0.170	-0.680	-0.700
2020/01/31 07:15:38.3	89.580	0.200	-0.700	-0.690
2020/01/31 07:15:38.4	89.600	0.220	-0.700	-0.680
2020/01/31 07:15:38.5	89.620	0.240	-0.710	-0.670
2020/01/31 07:15:38.6	89.640	0.260	-0.710	-0.650
2020/01/31 07:15:38.7	89.650	0.280	-0.720	-0.620
2020/01/31 07:15:38.8	89.670	0.300	-0.710	-0.580
2020/01/31 07:15:38.9	89.690	0.320	-0.710	-0.550
2020/01/31 07:15:39.0	89.700	0.340	-0.700	-0.500
2020/01/31 07:15:39.1	89.710	0.350	-0.690	-0.450
2020/01/31 07:15:39.2	89.730	0.360	-0.670	-0.390
2020/01/31 07:15:39.3	89.740	0.370	-0.650	-0.330
2020/01/31 07:15:39.4	89.750	0.380	-0.630	-0.260
2020/01/31 07:15:39.5	89.760	0.390	-0.600	-0.190
2020/01/31 07:15:39.6	89.770	0.390	-0.570	-0.110
2020/01/31 07:15:39.7	89.780	0.390	-0.540	-0.030
2020/01/31 07:15:39.8	89.780	0.390	-0.510	0.050
2020/01/31 07:15:39.9	89.790	0.390	-0.460	0.140
2020/01/31 07:15:40.0	89.790	0.380	-0.420	0.230
2020/01/31 07:15:40.1	89.790	0.380	-0.380	0.330
2020/01/31 07:15:40.2	89.800	0.370	-0.330	0.420
2020/01/31 07:15:40.3	89.800	0.350	-0.280	0.520
2020/01/31 07:15:40.4	89.800	0.340	-0.230	0.630
2020/01/31 07:15:40.5	89.800	0.320	-0.170	0.730
2020/01/31 07:15:40.6	89.790	0.300	-0.120	0.830
2020/01/31 07:15:40.7	89.790	0.280	-0.060	0.930
2020/01/31 07:15:40.8	89.780	0.260	-0.000	1.030
2020/01/31 07:15:40.9	89.770	0.230	0.060	1.140
2020/01/31 07:15:41.0	89.760	0.210	0.120	1.240
2020/01/31 07:15:41.1	89.760	0.180	0.180	1.340
2020/01/31 07:15:41.2	89.740	0.150	0.240	1.430
2020/01/31 07:15:41.3	89.730	0.110	0.300	1.530
2020/01/31 07:15:41.4	89.720	0.080	0.360	1.620
2020/01/31 07:15:41.5	89.700	0.050	0.410	1.710
2020/01/31 07:15:41.6	89.690	0.010	0.470	1.800
2020/01/31 07:15:41.7	89.670	-0.030	0.520	1.880
2020/01/31 07:15:41.8	89.650	-0.060	0.560	1.970
2020/01/31 07:15:41.9	89.630	-0.100	0.610	2.040
2020/01/31 07:15:42.0	89.610	-0.140	0.650	2.120
2020/01/31 07:15:42.1	89.590	-0.170	0.690	2.190
2020/01/31 07:15:42.2	89.560	-0.210	0.720	2.260
2020/01/31 07:15:42.3	89.530	-0.250	0.750	2.320
2020/01/31 07:15:42.4	89.510	-0.280	0.770	2.390
2020/01/31 07:15:42.5	89.480	-0.320	0.800	2.440
2020/01/31 07:15:42.6	89.450	-0.350	0.810	2.500
2020/01/31 07:15:42.7	89.420	-0.390	0.830	2.550
2020/01/31 07:15:42.8	89.400	-0.420	0.830	2.590
2020/01/31 07:15:42.9	89.370	-0.450	0.840	2.630
2020/01/31 07:15:43.0	89.340	-0.480	0.840	2.670
2020/01/31 07:15:43.1	89.310	-0.510	0.830	2.700
2020/01/31 07:15:43.2	89.280	-0.530	0.820	2.730
2020/01/31 07:15:43.3	89.260	-0.550	0.800	2.760
2020/01/31 07:15:43.4	89.230	-0.570	0.780	2.780
2020/01/31 07:15:43.5	89.200	-0.590	0.760	2.790
2020/01/31 07:15:43.6	89.180	-0.610	0.730	2.800
2020/01/31 07:15:43.7	89.160	-0.620	0.690	2.810
2020/01/31 07:15:43.8	89.140	-0.630	0.650	2.810
2020/01/31 07:15:43.9	89.120	-0.640	0.610	2.800
2020/01/31 07:15:44.0	89.100	-0.640	0.560	2.790
2020/01/31 07:15:44.1	89.090	-0.640	0.500	2.780
2020/01/31 07:15:44.2	89.070	-0.640	0.450	2.760
2020/01/31 07:15:44.3	89.070	-0.630	0.380	2.730
2020/01/31 07:15:44.4	89.060	-0.620	0.320	2.700
2020/01/31 07:15:44.5	89.050	-0.610	0.250	2.670
2020/01/31 07:15:44.6	89.050	-0.590	0.180	2.630
2020/01/31 07:15:44.7	89.050	-0.580	0.100	2.580
2020/01/31 07:15:44.8	89.060	-0.550	0.030	2.540
2020/01/31 07:15:44.9	89.070	-0.530	-0.050	2.480
2020/01/31 07:15:45.0	89.080	-0.500	-0.140	2.420
2020/01/31 07:15:45.1	89.090	-0.470	-0.220	2.360
2020/01/31 07:15:45.2	89.110	-0.430	-0.310	2.300
2020/01/31 07:15:45.3	89.120	-0.390	-0.400	2.220
2020/01/31 07:15:45.4	89.140	-0.350	-0.480	2.150
2020/01/31 07:15:45.5	89.170	-0.310	-0.570	2.070
2020/01/31 07:15:45.6	89.200	-0.270	-0.650	1.990
2020/01/31 07:15:45.7	89.230	-0.220	-0.740	1.910
2020/01/31 07:15:45.8	89.260	-0.170	-0.820	1.820
2020/01/31 07:15:45.9	89.290	-0.120	-0.900	1.740
2020/01/31 07:15:46.0	89.330	-0.070	-0.980	1.650
2020/01/31 07:15:46.1	89.370	-0.010	-1.060	1.560
2020/01/31 07:15:46.2	89.410	0.040	-1.130	1.460
2020/01/31 07:15:46.3	89.440	0.090	-1.200	1.370
2020/01/31 07:15:46.4	89.490	0.150	-1.260	1.270
2020/01/31 07:15:46.5	89.530	0.200	-1.320	1.180
2020/01/31 07:15:46.6	89.570	0.260	-1.370	1.080
2020/01/31 07:15:46.7	89.610	0.310	-1.420	0.990
2020/01/31 07:15:46.8	89.650	0.360	-1.460	0.900
2020/01/31 07:15:46.9	89.690	0.410	-1.500	0.810
2020/01/31 07:15:47.0	89.730	0.460	-1.520	0.720
2020/01/31 07:15:47.1	89.770	0.500	-1.550	0.630
2020/01/31 07:15:47.2	89.810	0.550	-1.560	0.550
2020/01/31 07:15:47.3	89.840	0.590	-1.570	0.470
2020/01/31 07:15:47.4	89.880	0.620	-1.560	0.390
2020/01/31 07:15:47.5	89.910	0.660	-1.550	0.320
2020/01/31 07:15:47.6	89.940	0.690	-1.530	0.250
2020/01/31 07:15:47.7	89.960	0.710	-1.500	0.190
2020/01/31 07:15:47.8	89.980	0.730	-1.460	0.130
2020/01/31 07:15:47.9	90.010	0.750	-1.410	0.080
2020/01/31 07:15:48.0	90.020	0.760	-1.360	0.030
2020/01/31 07:15:48.1	90.040	0.760	-1.290	-0.010
2020/01/31 07:15:48.2	90.040	0.760	-1.220	-0.050
2020/01/31 07:15:48.3	90.050	0.760	-1.130	-0.080
2020/01/31 07:15:48.4	90.050	0.750	-1.040	-0.100
2020/01/31 07:15:48.5	90.050	0.740	-0.940	-0.120
2020/01/31 07:15:48.6	90.050	0.720	-0.840	-0.130
2020/01/31 07:15:48.7	90.040	0.690	-0.720	-0.140
2020/01/31 07:15:48.8	90.020	0.660	-0.600	-0.140
2020/01/31 07:15:48.9	90.010	0.630	-0.480	-0.140
2020/01/31 07:15:49.0	89.980	0.590	-0.350	-0.130
2020/01/31 07:15:49.1	89.960	0.540	-0.220	-0.110
2020/01/31 07:15:49.2	89.930	0.500	-0.090	-0.090
2020/01/31 07:15:49.3	89.900	0.450	0.050	-0.070
2020/01/31 07:15:49.4	89.870	0.390	0.190	-0.040
2020/01/31 07:15:49.5	89.830	0.330	0.320	-0.010
2020/01/31 07:15:49.6	89.790	0.270	0.460	0.030
2020/01/31 07:15:49.7	89.750	0.210	0.590	0.070
2020/01/31 07:15:49.8	89.710	0.140	0.720	0.110
2020/01/31 07:15:49.9	89.660	0.080	0.850	0.160
2020/01/31 07:15:50.0	89.620	0.010	0.960	0.200
2020/01/31 07:15:50.1	89.570	-0.050	1.080	0.250
2020/01/31 07:15:50.2	89.520	-0.120	1.180	0.300
2020/01/31 07:15:50.3	89.470	-0.180	1.280	0.350
2020/01/31 07:15:50.4	89.430	-0.250	1.370	0.400
2020/01/31 07:15:50.5	89.380	-0.310	1.440	0.450
2020/01/31 07:15:50.6	89.330	-0.370	1.510	0.500
2020/01/31 07:15:50.7	89.290	-0.430	1.560	0.550
2020/01/31 07:15:50.8	89.250	-0.480	1.600	0.590
2020/01/31 07:15:50.9	89.210	-0.530	1.630	0.640
2020/01/31 07:15:51.0	89.170	-0.570	1.640	0.680
2020/01/31 07:15:51.1	89.130	-0.610	1.640	0.720
2020/01/31 07:15:51.2	89.100	-0.650	1.630	0.760
2020/01/31 07:15:51.3	89.070	-0.680	1.600	0.790
2020/01/31 07:15:51.4	89.040	-0.710	1.560	0.820
2020/01/31 07:15:51.5	89.020	-0.730	1.510	0.850
2020/01/31 07:15:51.6	89.000	-0.740	1.450	0.870
2020/01/31 07:15:51.7	88.980	-0.750	1.370	0.890
2020/01/31 07:15:51.8	88.960	-0.750	1.280	0.900
2020/01/31 07:15:51.9	88.950	-0.750	1.180	0.920
2020/01/31 07:15:52.0	88.950	-0.740	1.070	0.920
2020/01/31 07:15:52.1	88.940	-0.720	0.950	0.930
2020/01/31 07:15:52.2	88.950	-0.700	0.820	0.930
2020/01/31 07:15:52.3	88.950	-0.670	0.680	0.930
2020/01/31 07:15:52.4	88.950	-0.640	0.540	0.920
2020/01/31 07:15:52.5	88.970	-0.600	0.390	0.920
2020/01/31 07:15:52.6	88.980	-0.560	0.240	0.910
2020/01/31 07:15:52.7	89.000	-0.510	0.080	0.900
2020/01/31 07:15:52.8	89.020	-0.460	-0.070	0.880
2020/01/31 07:15:52.9	89.040	-0.410	-0.230	0.870
2020/01/31 07:15:53.0	89.070	-0.350	-0.390	0.860
2020/01/31 07:15:53.1	89.100	-0.300	-0.540	0.840
2020/01/31 07:15:53.2	89.130	-0.230	-0.690	0.830
2020/01/31 07:15:53.3	89.160	-0.170	-0.840	0.810
2020/01/31 07:15:53.4	89.190	-0.110	-0.980	0.800
2020/01/31 07:15:53.5	89.220	-0.040	-1.120	0.790
2020/01/31 07:15:53.6	89.250	0.020	-1.240	0.780
2020/01/31 07:15:53.7	89.290	0.080	-1.360	0.770
2020/01/31 07:15:53.8	89.320	0.140	-1.470	0.760
2020/01/31 07:15:53.9	89.350	0.200	-1.570	0.760
2020/01/31 07:15:54.0	89.380	0.260	-1.650	0.760
2020/01/31 07:15:54.1	89.400	0.320	-1.720	0.760
2020/01/31 07:15:54.2	89.430	0.370	-1.790	0.770
2020/01/31 07:15:54.3	89.450	0.410	-1.840	0.770
2020/01/31 07:15:54.4	89.470	0.460	-1.870	0.780
2020/01/31 07:15:54.5	89.480	0.500	-1.890	0.800
2020/01/31 07:15:54.6	89.500	0.530	-1.890	0.810
2020/01/31 07:15:54.7	89.510	0.560	-1.880	0.830
2020/01/31 07:15:54.8	89.520	0.590	-1.860	0.850
2020/01/31 07:15:54.9	89.520	0.610	-1.820	0.870
2020/01/31 07:15:55.0	89.520	0.620	-1.770	0.900
2020/01/31 07:15:55.1	89.520	0.630	-1.710	0.930
2020/01/31 07:15:55.2	89.520	0.630	-1.630	0.960
2020/01/31 07:15:55.3	89.510	0.630	-1.540	0.990
2020/01/31 07:15:55.4	89.500	0.620	-1.440	1.020
2020/01/31 07:15:55.5	89.490	0.610	-1.330	1.060
2020/01/31 07:15:55.6	89.480	0.590	-1.210	1.100
2020/01/31 07:15:55.7	89.460	0.570	-1.090	1.140
2020/01/31 07:15:55.8	89.450	0.540	-0.960	1.180
2020/01/31 07:15:55.9	89.430	0.510	-0.820	1.220
2020/01/31 07:15:56.0	89.410	0.480	-0.680	1.270
2020/01/31 07:15:56.1	89.390	0.440	-0.530	1.310
2020/01/31 07:15:56.2	89.370	0.400	-0.390	1.360
2020/01/31 07:15:56.3	89.350	0.360	-0.250	1.410
2020/01/31 07:15:56.4	89.320	0.310	-0.100	1.460
2020/01/31 07:15:56.5	89.300	0.270	0.040	1.500
2020/01/31 07:15:56.6	89.280	0.220	0.170	1.550
2020/01/31 07:15:56.7	89.260	0.170	0.300	1.600
2020/01/31 07:15:56.8	89.230	0.120	0.430	1.650
2020/01/31 07:15:56.9	89.210	0.070	0.550	1.700
2020/01/31 07:15:57.0	89.190	0.030	0.660	1.750
2020/01/31 07:15:57.1	89.170	-0.020	0.760	1.790
2020/01/31 07:15:57.2	89.150	-0.070	0.850	1.840
2020/01/31 07:15:57.3	89.130	-0.110	0.930	1.880
2020/01/31 07:15:57.4	89.120	-0.150	1.000	1.920
2020/01/31 07:15:57.5	89.100	-0.190	1.060	1.960
2020/01/31 07:15:57.6	89.080	-0.220	1.110	1.990
2020/01/31 07:15:57.7	89.070	-0.260	1.140	2.020
2020/01/31 07:15:57.8	89.060	-0.280	1.160	2.050
2020/01/31 07:15:57.9	89.050	-0.310	1.180	2.070
2020/01/31 07:15:58.0	89.040	-0.330	1.180	2.100
2020/01/31 07:15:58.1	89.030	-0.350	1.160	2.110
2020/01/31 07:15:58.2	89.030	-0.370	1.140	2.130
2020/01/31 07:15:58.3	89.020	-0.380	1.110	2.130
2020/01/31 07:15:58.4	89.020	-0.390	1.060	2.140
2020/01/31 07:15:58.5	89.020	-0.390	1.010	2.140
2020/01/31 07:15:58.6	89.020	-0.390	0.950	2.140
2020/01/31 07:15:58.7	89.020	-0.390	0.880	2.130
2020/01/31 07:15:58.8	89.020	-0.380	0.810	2.120
2020/01/31 07:15:58.9	89.020	-0.380	0.730	2.100
2020/01/31 07:15:59.0	89.020	-0.360	0.640	2.080
2020/01/31 07:15:59.1	89.030	-0.350	0.550	2.060
2020/01/31 07:15:59.2	89.030	-0.330	0.460	2.030
2020/01/31 07:15:59.3	89.040	-0.320	0.370	2.000
2020/01/31 07:15:59.4	89.040	-0.300	0.270	1.970
2020/01/31 07:15:59.5	89.050	-0.280	0.170	1.930
2020/01/31 07:15:59.6	89.050	-0.250	0.080	1.900
2020/01/31 07:15:59.7	89.060	-0.230	-0.020	1.860
2020/01/31 07:15:59.8	89.060	-0.200	-0.110	1.820
2020/01/31 07:15:59.9	89.070	-0.180	-0.200	1.780
2020/01/31 07:16:00.0	89.070	-0.160	-0.280	1.730
2020/01/31 07:16:00.1	89.080	-0.130	-0.360	1.690
2020/01/31 07:16:00.2	89.080	-0.110	-0.440	1.640
2020/01/31 07:16:00.3	89.090	-0.080	-0.510	1.590
2020/01/31 07:16:00.4	89.090	-0.060	-0.580	1.550
2020/01/31 07:16:00.5	89.100	-0.040	-0.640	1.500
2020/01/31 07:16:00.6	89.100	-0.020	-0.690	1.450
2020/01/31 07:16:00.7	89.100	0.000	-0.740	1.400
2020/01/31 07:16:00.8	89.100	0.020	-0.780	1.360
2020/01/31 07:16:00.9	89.100	0.040	-0.810	1.310
2020/01/31 07:16:01.0	89.100	0.050	-0.840	1.260
2020/01/31 07:16:01.1	89.100	0.060	-0.860	1.220
2020/01/31 07:16:01.2	89.100	0.070	-0.870	1.170
2020/01/31 07:16:01.3	89.100	0.080	-0.880	1.130
2020/01/31 07:16:01.4	89.100	0.090	-0.880	1.090
2020/01/31 07:16:01.5	89.090	0.090	-0.870	1.040
2020/01/31 07:16:01.6	89.090	0.100	-0.860	1.000
2020/01/31 07:16:01.7	89.080	0.100	-0.850	0.960
2020/01/31 07:16:01.8	89.070	0.100	-0.830	0.930
2020/01/31 07:16:01.9	89.060	0.100	-0.800	0.890
2020/01/31 07:16:02.0	89.050	0.090	-0.780	0.860
2020/01/31 07:16:02.1	89.040	0.090	-0.750	0.820
2020/01/31 07:16:02.2	89.030	0.080	-0.710	0.790
2020/01/31 07:16:02.3	89.010	0.080	-0.680	0.760
2020/01/31 07:16:02.4	88.990	0.070	-0.640	0.730
2020/01/31 07:16:02.5	88.980	0.070	-0.600	0.710
2020/01/31 07:16:02.6	88.960	0.060	-0.560	0.680
2020/01/31 07:16:02.7	88.940	0.050	-0.520	0.660
2020/01/31 07:16:02.8	88.930	0.040	-0.480	0.640
2020/01/31 07:16:02.9	88.910	0.040	-0.440	0.610
2020/01/31 07:16:03.0	88.890	0.030	-0.400	0.590
2020/01/31 07:16:03.1	88.870	0.020	-0.370	0.570
2020/01/31 07:16:03.2	88.850	0.020	-0.330	0.550
2020/01/31 07:16:03.3	88.840	0.010	-0.290	0.530
2020/01/31 07:16:03.4	88.820	0.010	-0.260	0.520
2020/01/31 07:16:03.5	88.810	0.000	-0.220	0.500
2020/01/31 07:16:03.6	88.790	0.000	-0.190	0.490
2020/01/31 07:16:03.7	88.780	-0.000	-0.160	0.470
2020/01/31 07:16:03.8	88.770	-0.000	-0.140	0.460
2020/01/31 07:16:03.9	88.760	-0.000	-0.110	0.440
2020/01/31 07:16:04.0	88.750	-0.000	-0.090	0.430
2020/01/31 07:16:04.1	88.740	-0.000	-0.070	0.420
2020/01/31 07:16:04.2	88.740	-0.000	-0.050	0.410
2020/01/31 07:16:04.3	88.740	-0.000	-0.040	0.400
2020/01/31 07:16:04.4	88.740	0.000	-0.020	0.390
2020/01/31 07:16:04.5	88.740	0.010	-0.010	0.380
2020/01/31 07:16:04.6	88.740	0.010	0.000	0.370
2020/01/31 07:16:04.7	88.740	0.010	0.010	0.360
2020/01/31 07:16:04.8	88.740	0.020	0.020	0.350
2020/01/31 07:16:04.9	88.750	0.020	0.020	0.340
2020/01/31 07:16:05.0	88.750	0.030	0.030	0.330
2020/01/31 07:16:05.1	88.760	0.030	0.030	0.330
2020/01/31 07:16:05.2	88.760	0.040	0.030	0.320
2020/01/31 07:16:05.3	88.770	0.040	0.030	0.320
2020/01/31 07:16:05.4	88.780	0.050	0.030	0.310
2020/01/31 07:16:05.5	88.790	0.050	0.040	0.310
2020/01/31 07:16:05.6	88.800	0.050	0.040	0.310
2020/01/31 07:16:05.7	88.800	0.060	0.040	0.300
2020/01/31 07:16:05.8	88.810	0.060	0.040	0.300
2020/01/31 07:16:05.9	88.820	0.060	0.040	0.300
2020/01/31 07:16:06.0	88.830	0.060	0.040	0.300
2020/01/31 07:16:06.1	88.840	0.060	0.040	0.310
2020/01/31 07:16:06.2	88.850	0.060	0.040	0.310
2020/01/31 07:16:06.3	88.850	0.060	0.040	0.310
2020/01/31 07:16:06.4	88.860	0.060	0.050	0.320
2020/01/31 07:16:06.5	88.870	0.050	0.050	0.320
2020/01/31 07:16:06.6	88.870	0.050	0.060	0.330
2020/01/31 07:16:06.7	88.880	0.040	0.060	0.340
2020/01/31 07:16:06.8	88.890	0.040	0.070	0.350
2020/01/31 07:16:06.9	88.890	0.030	0.080	0.360
2020/01/31 07:16:07.0	88.890	0.020	0.080	0.360
2020/01/31 07:16:07.1	88.900	0.010	0.090	0.380
2020/01/31 07:16:07.2	88.900	-0.000	0.100	0.390
2020/01/31 07:16:07.3	88.900	-0.010	0.110	0.400
2020/01/31 07:16:07.4	88.900	-0.020	0.110	0.410
2020/01/31 07:16:07.5	88.900	-0.040	0.120	0.420
2020/01/31 07:16:07.6	88.900	-0.050	0.130	0.440
2020/01/31 07:16:07.7	88.900	-0.060	0.130	0.450
2020/01/31 07:16:07.8	88.900	-0.070	0.140	0.470
2020/01/31 07:16:07.9	88.900	-0.090	0.140	0.490
2020/01/31 07:16:08.0	88.900	-0.100	0.140	0.510
2020/01/31 07:16:08.1	88.890	-0.110	0.140	0.530
2020/01/31 07:16:08.2	88.890	-0.120	0.140	0.550
2020/01/31 07:16:08.3	88.900	-0.130	0.140	0.570
2020/01/31 07:16:08.4	88.890	-0.140	0.130	0.590
2020/01/31 07:16:08.5	88.900	-0.150	0.130	0.610
2020/01/31 07:16:08.6	88.900	-0.160	0.120	0.640
2020/01/31 07:16:08.7	88.900	-0.170	0.100	0.660
2020/01/31 07:16:08.8	88.900	-0.170	0.090	0.690
2020/01/31 07:16:08.9	88.900	-0.180	0.070	0.720
2020/01/31 07:16:09.0	88.910	-0.180	0.060	0.750
2020/01/31 07:16:09.1	88.910	-0.180	0.030	0.780
2020/01/31 07:16:09.2	88.920	-0.180	0.010	0.810
2020/01/31 07:16:09.3	88.920	-0.180	-0.010	0.840
2020/01/31 07:16:09.4	88.930	-0.170	-0.040	0.880
2020/01/31 07:16:09.5	88.930	-0.170	-0.070	0.920
2020/01/31 07:16:09.6	88.940	-0.160	-0.100	0.960
2020/01/31 07:16:09.7	88.950	-0.150	-0.130	1.000
2020/01/31 07:16:09.8	88.960	-0.140	-0.160	1.050
2020/01/31 07:16:09.9	88.970	-0.130	-0.200	1.090
2020/01/31 07:16:10.0	88.980	-0.120	-0.230	1.140
2020/01/31 07:16:10.1	88.990	-0.100	-0.260	1.190
2020/01/31 07:16:10.2	88.990	-0.090	-0.300	1.240
2020/01/31 07:16:10.3	89.000	-0.070	-0.330	1.290
2020/01/31 07:16:10.4	89.010	-0.060	-0.360	1.340
2020/01/31 07:16:10.5	89.020	-0.040	-0.400	1.390
2020/01/31 07:16:10.6	89.030	-0.020	-0.430	1.440
2020/01/31 07:16:10.7	89.040	-0.000	-0.450	1.490
2020/01/31 07:16:10.8	89.040	0.020	-0.480	1.540
2020/01/31 07:16:10.9	89.050	0.030	-0.500	1.580
2020/01/31 07:16:11.0	89.060	0.050	-0.520	1.630
2020/01/31 07:16:11.1	89.060	0.070	-0.540	1.680
2020/01/31 07:16:11.2	89.060	0.080	-0.550	1.720
2020/01/31 07:16:11.3	89.060	0.100	-0.570	1.760
2020/01/31 07:16:11.4	89.060	0.120	-0.570	1.800
2020/01/31 07:16:11.5	89.060	0.130	-0.580	1.830
2020/01/31 07:16:11.6	89.060	0.140	-0.580	1.870
2020/01/31 07:16:11.7	89.060	0.160	-0.580	1.900
2020/01/31 07:16:11.8	89.060	0.170	-0.570	1.930
2020/01/31 07:16:11.9	89.050	0.180	-0.560	1.960
2020/01/31 07:16:12.0	89.040	0.190	-0.550	1.990
2020/01/31 07:16:12.1	89.040	0.200	-0.530	2.010
2020/01/31 07:16:12.2	89.030	0.200	-0.510	2.030
2020/01/31 07:16:12.3	89.010	0.210	-0.490	2.050
2020/01/31 07:16:12.4	89.000	0.220	-0.470	2.060
2020/01/31 07:16:12.5	88.980	0.220	-0.440	2.070
2020/01/31 07:16:12.6	88.970	0.220	-0.410	2.080
2020/01/31 07:16:12.7	88.950	0.220	-0.380	2.080
2020/01/31 07:16:12.8	88.940	0.230	-0.350	2.090
2020/01/31 07:16:12.9	88.920	0.230	-0.320	2.090
2020/01/31 07:16:13.0	88.900	0.220	-0.290	2.080
2020/01/31 07:16:13.1	88.880	0.220	-0.260	2.080
2020/01/31 07:16:13.2	88.860	0.220	-0.220	2.070
2020/01/31 07:16:13.3	88.850	0.220	-0.190	2.050
2020/01/31 07:16:13.4	88.830	0.220	-0.160	2.040
2020/01/31 07:16:13.5	88.810	0.210	-0.130	2.020
2020/01/31 07:16:13.6	88.790	0.210	-0.110	2.000
2020/01/31 07:16:13.7	88.770	0.210	-0.080	1.980
2020/01/31 07:16:13.8	88.760	0.200	-0.060	1.960
2020/01/31 07:16:13.9	88.740	0.200	-0.040	1.940
2020/01/31 07:16:14.0	88.720	0.190	-0.020	1.910
2020/01/31 07:16:14.1	88.710	0.190	-0.000	1.890
2020/01/31 07:16:14.2	88.690	0.190	0.010	1.860
2020/01/31 07:16:14.3	88.680	0.180	0.010	1.830
2020/01/31 07:16:14.4	88.660	0.180	0.020	1.800
2020/01/31 07:16:14.5	88.650	0.180	0.020	1.760
2020/01/31 07:16:14.6	88.640	0.170	0.020	1.730
2020/01/31 07:16:14.7	88.630	0.170	0.020	1.690
2020/01/31 07:16:14.8	88.630	0.170	0.010	1.660
2020/01/31 07:16:14.9	88.620	0.170	-0.000	1.620
2020/01/31 07:16:15.0	88.610	0.160	-0.020	1.580
2020/01/31 07:16:15.1	88.610	0.160	-0.030	1.540
2020/01/31 07:16:15.2	88.600	0.160	-0.050	1.500
2020/01/31 07:16:15.3	88.600	0.160	-0.070	1.450
2020/01/31 07:16:15.4	88.600	0.160	-0.100	1.410
2020/01/31 07:16:15.5	88.600	0.150	-0.120	1.360
2020/01/31 07:16:15.6	88.600	0.150	-0.150	1.310
2020/01/31 07:16:15.7	88.600	0.150	-0.180	1.260
2020/01/31 07:16:15.8	88.600	0.150	-0.200	1.210
2020/01/31 07:16:15.9	88.600	0.140	-0.230	1.160
2020/01/31 07:16:16.0	88.610	0.140	-0.260	1.100
2020/01/31 07:16:16.1	88.620	0.140	-0.290	1.050
2020/01/31 07:16:16.2	88.620	0.130	-0.310	0.990
2020/01/31 07:16:16.3	88.640	0.130	-0.340	0.930
2020/01/31 07:16:16.4	88.650	0.120	-0.360	0.880
2020/01/31 07:16:16.5	88.660	0.110	-0.380	0.820
2020/01/31 07:16:16.6	88.680	0.100	-0.400	0.760
2020/01/31 07:16:16.7	88.690	0.100	-0.410	0.700
2020/01/31 07:16:16.8	88.710	0.090	-0.430	0.640
2020/01/31 07:16:16.9	88.730	0.080	-0.430	0.580
2020/01/31 07:16:17.0	88.750	0.060	-0.440	0.530
2020/01/31 07:16:17.1	88.770	0.050	-0.440	0.470
2020/01/31 07:16:17.2	88.790	0.040	-0.440	0.420
2020/01/31 07:16:17.3	88.820	0.020	-0.440	0.360
2020/01/31 07:16:17.4	88.840	0.010	-0.430	0.310
2020/01/31 07:16:17.5	88.870	-0.010	-0.410	0.260
2020/01/31 07:16:17.6	88.890	-0.020	-0.390	0.210
2020/01/31 07:16:17.7	88.920	-0.040	-0.370	0.170
2020/01/31 07:16:17.8	88.950	-0.060	-0.340	0.130
2020/01/31 07:16:17.9	88.980	-0.070	-0.310	0.090
2020/01/31 07:16:18.0	89.010	-0.090	-0.280	0.050
2020/01/31 07:16:18.1	89.030	-0.110	-0.240	0.020
2020/01/31 07:16:18.2	89.060	-0.130	-0.200	-0.010
2020/01/31 07:16:18.3	89.090	-0.150	-0.150	-0.030
2020/01/31 07:16:18.4	89.120	-0.170	-0.110	-0.050
2020/01/31 07:16:18.5	89.140	-0.190	-0.060	-0.070
2020/01/31 07:16:18.6	89.170	-0.200	-0.010	-0.080
2020/01/31 07:16:18.7	89.190	-0.220	0.040	-0.090
2020/01/31 07:16:18.8	89.210	-0.240	0.090	-0.090
2020/01/31 07:16:18.9	89.230	-0.260	0.140	-0.090
2020/01/31 07:16:19.0	89.250	-0.280	0.190	-0.090
2020/01/31 07:16:19.1	89.270	-0.290	0.230	-0.080
2020/01/31 07:16:19.2	89.290	-0.310	0.280	-0.070
2020/01/31 07:16:19.3	89.300	-0.320	0.320	-0.050
2020/01/31 07:16:19.4	89.310	-0.330	0.370	-0.030
2020/01/31 07:16:19.5	89.320	-0.350	0.410	0.000
2020/01/31 07:16:19.6	89.330	-0.360	0.440	0.030
2020/01/31 07:16:19.7	89.340	-0.370	0.470	0.060
2020/01/31 07:16:19.8	89.340	-0.380	0.500	0.100
2020/01/31 07:16:19.9	89.340	-0.380	0.520	0.140
2020/01/31 07:16:20.0	89.340	-0.390	0.540	0.190
2020/01/31 07:16:20.1	89.340	-0.390	0.560	0.230
2020/01/31 07:16:20.2	89.330	-0.400	0.570	0.290
2020/01/31 07:16:20.3	89.330	-0.400	0.570	0.340
2020/01/31 07:16:20.4	89.320	-0.400	0.570	0.400
2020/01/31 07:16:20.5	89.310	-0.400	0.560	0.460
2020/01/31 07:16:20.6	89.300	-0.390	0.550	0.520
2020/01/31 07:16:20.7	89.280	-0.390	0.540	0.580
2020/01/31 07:16:20.8	89.270	-0.380	0.520	0.640
2020/01/31 07:16:20.9	89.250	-0.380	0.490	0.700
2020/01/31 07:16:21.0	89.240	-0.370	0.460	0.770
2020/01/31 07:16:21.1	89.220	-0.360	0.430	0.830
2020/01/31 07:16:21.2	89.200	-0.350	0.390	0.890
2020/01/31 07:16:21.3	89.190	-0.340	0.350	0.950
2020/01/31 07:16:21.4	89.170	-0.330	0.310	1.020
2020/01/31 07:16:21.5	89.160	-0.320	0.260	1.080
2020/01/31 07:16:21.6	89.140	-0.300	0.220	1.130
2020/01/31 07:16:21.7	89.120	-0.290	0.170	1.190
2020/01/31 07:16:21.8	89.110	-0.270	0.120	1.240
2020/01/31 07:16:21.9	89.090	-0.260	0.060	1.290
2020/01/31 07:16:22.0	89.080	-0.240	0.010	1.340
2020/01/31 07:16:22.1	89.070	-0.230	-0.040	1.380
2020/01/31 07:16:22.2	89.050	-0.210	-0.090	1.420
2020/01/31 07:16:22.3	89.040	-0.190	-0.150	1.460
2020/01/31 07:16:22.4	89.030	-0.180	-0.200	1.500
2020/01/31 07:16:22.5	89.030	-0.160	-0.250	1.530
2020/01/31 07:16:22.6	89.020	-0.140	-0.300	1.560
2020/01/31 07:16:22.7	89.020	-0.120	-0.350	1.590
2020/01/31 07:16:22.8	89.020	-0.110	-0.390	1.610
2020/01/31 07:16:22.9	89.020	-0.090	-0.430	1.640
2020/01/31 07:16:23.0	89.020	-0.070	-0.480	1.660
2020/01/31 07:16:23.1	89.020	-0.050	-0.510	1.680
2020/01/31 07:16:23.2	89.020	-0.040	-0.550	1.690
2020/01/31 07:16:23.3	89.020	-0.020	-0.590	1.710
2020/01/31 07:16:23.4	89.030	-0.000	-0.620	1.720
2020/01/31 07:16:23.5	89.030	0.020	-0.650	1.740
2020/01/31 07:16:23.6	89.040	0.030	-0.670	1.750
2020/01/31 07:16:23.7	89.040	0.050	-0.700	1.760
2020/01/31 07:16:23.8	89.050	0.070	-0.720	1.770
2020/01/31 07:16:23.9	89.060	0.080	-0.730	1.780
2020/01/31 07:16:24.0	89.070	0.100	-0.750	1.780
2020/01/31 07:16:24.1	89.070	0.120	-0.760	1.790
2020/01/31 07:16:24.2	89.080	0.130	-0.770	1.790
2020/01/31 07:16:24.3	89.090	0.150	-0.770	1.790
2020/01/31 07:16:24.4	89.110	0.170	-0.780	1.790
2020/01/31 07:16:24.5	89.120	0.180	-0.780	1.780
2020/01/31 07:16:24.6	89.130	0.200	-0.780	1.780
2020/01/31 07:16:24.7	89.150	0.210	-0.780	1.770
2020/01/31 07:16:24.8	89.160	0.220	-0.770	1.760
2020/01/31 07:16:24.9	89.180	0.240	-0.760	1.740
2020/01/31 07:16:25.0	89.190	0.250	-0.750	1.720
2020/01/31 07:16:25.1	89.210	0.270	-0.740	1.710
2020/01/31 07:16:25.2	89.230	0.280	-0.720	1.680
2020/01/31 07:16:25.3	89.240	0.290	-0.710	1.660
2020/01/31 07:16:25.4	89.260	0.300	-0.690	1.630
2020/01/31 07:16:25.5	89.280	0.310	-0.670	1.610
2020/01/31 07:16:25.6	89.300	0.320	-0.640	1.580
2020/01/31 07:16:25.7	89.320	0.330	-0.620	1.550
2020/01/31 07:16:25.8	89.340	0.340	-0.590	1.520
2020/01/31 07:16:25.9	89.360	0.350	-0.560	1.480
2020/01/31 07:16:26.0	89.380	0.360	-0.530	1.450
2020/01/31 07:16:26.1	89.400	0.360	-0.500	1.420
2020/01/31 07:16:26.2	89.420	0.370	-0.460	1.390
2020/01/31 07:16:26.3	89.430	0.370	-0.430	1.350
2020/01/31 07:16:26.4	89.450	0.370	-0.400	1.320
2020/01/31 07:16:26.5	89.460	0.370	-0.360	1.290
2020/01/31 07:16:26.6	89.470	0.370	-0.320	1.260
2020/01/31 07:16:26.7	89.480	0.360	-0.280	1.240
2020/01/31 07:16:26.8	89.490	0.360	-0.250	1.210
2020/01/31 07:16:26.9	89.500	0.350	-0.210	1.190
2020/01/31 07:16:27.0	89.500	0.340	-0.170	1.180
2020/01/31 07:16:27.1	89.500	0.330	-0.130	1.160
2020/01/31 07:16:27.2	89.500	0.320	-0.100	1.150
2020/01/31 07:16:27.3	89.500	0.300	-0.060	1.140
2020/01/31 07:16:27.4	89.500	0.280	-0.030	1.130
2020/01/31 07:16:27.5	89.490	0.270	0.000	1.130
2020/01/31 07:16:27.6	89.480	0.250	0.030	1.130
2020/01/31 07:16:27.7	89.480	0.220	0.060	1.130
2020/01/31 07:16:27.8	89.470	0.200	0.080	1.130
2020/01/31 07:16:27.9	89.460	0.180	0.110	1.140
2020/01/31 07:16:28.0	89.440	0.150	0.130	1.150
2020/01/31 07:16:28.1	89.430	0.130	0.140	1.160
2020/01/31 07:16:28.2	89.420	0.100	0.160	1.170
2020/01/31 07:16:28.3	89.410	0.070	0.170	1.180
2020/01/31 07:16:28.4	89.390	0.040	0.180	1.190
2020/01/31 07:16:28.5	89.380	0.020	0.190	1.200
2020/01/31 07:16:28.6	89.370	-0.010	0.190	1.210
2020/01/31 07:16:28.7	89.360	-0.040	0.190	1.220
2020/01/31 07:16:28.8	89.350	-0.060	0.190	1.230
2020/01/31 07:16:28.9	89.340	-0.090	0.180	1.240
2020/01/31 07:16:29.0	89.330	-0.120	0.170	1.250
2020/01/31 07:16:29.1	89.330	-0.140	0.170	1.260
2020/01/31 07:16:29.2	89.320	-0.160	0.150	1.260
2020/01/31 07:16:29.3	89.320	-0.180	0.140	1.260
2020/01/31 07:16:29.4	89.320	-0.200	0.130	1.260
2020/01/31 07:16:29.5	89.320	-0.220	0.110	1.250
2020/01/31 07:16:29.6	89.320	-0.230	0.100	1.250
2020/01/31 07:16:29.7	89.320	-0.250	0.080	1.240
2020/01/31 07:16:29.8	89.320	-0.260	0.070	1.230
2020/01/31 07:16:29.9	89.320	-0.270	0.050	1.220
2020/01/31 07:16:30.0	89.330	-0.270	0.040	1.200
2020/01/31 07:16:30.1	89.330	-0.270	0.020	1.190
2020/01/31 07:16:30.2	89.330	-0.270	0.010	1.170
2020/01/31 07:16:30.3	89.330	-0.270	-0.010	1.150
2020/01/31 07:16:30.4	89.340	-0.270	-0.020	1.130
2020/01/31 07:16:30.5	89.340	-0.260	-0.030	1.110
2020/01/31 07:16:30.6	89.340	-0.250	-0.040	1.090
2020/01/31 07:16:30.7	89.340	-0.240	-0.050	1.070
2020/01/31 07:16:30.8	89.340	-0.230	-0.050	1.050
2020/01/31 07:16:30.9	89.340	-0.210	-0.060	1.030
2020/01/31 07:16:31.0	89.340	-0.200	-0.060	1.010
2020/01/31 07:16:31.1	89.340	-0.180	-0.060	0.990
2020/01/31 07:16:31.2	89.330	-0.160	-0.070	0.970
2020/01/31 07:16:31.3	89.330	-0.140	-0.070	0.940
2020/01/31 07:16:31.4	89.330	-0.120	-0.070	0.920
2020/01/31 07:16:31.5	89.320	-0.090	-0.070	0.900
2020/01/31 07:16:31.6	89.320	-0.070	-0.060	0.880
2020/01/31 07:16:31.7	89.310	-0.040	-0.060	0.860
2020/01/31 07:16:31.8	89.310	-0.020	-0.060	0.840
2020/01/31 07:16:31.9	89.300	0.000	-0.060	0.820
2020/01/31 07:16:32.0	89.300	0.030	-0.060	0.790
2020/01/31 07:16:32.1	89.300	0.050	-0.060	0.770
2020/01/31 07:16:32.2	89.290	0.080	-0.060	0.750
2020/01/31 07:16:32.3	89.290	0.100	-0.060	0.720
2020/01/31 07:16:32.4	89.290	0.120	-0.070	0.700
2020/01/31 07:16:32.5	89.290	0.140	-0.070	0.670
2020/01/31 07:16:32.6	89.290	0.160	-0.070	0.650
2020/01/31 07:16:32.7	89.290	0.180	-0.080	0.630
2020/01/31 07:16:32.8	89.290	0.200	-0.090	0.610
2020/01/31 07:16:32.9	89.300	0.220	-0.100	0.580
2020/01/31 07:16:33.0	89.300	0.230	-0.110	0.560
2020/01/31 07:16:33.1	89.310	0.250	-0.120	0.540
2020/01/31 07:16:33.2	89.320	0.260	-0.130	0.520
2020/01/31 07:16:33.3	89.320	0.270	-0.140	0.510
2020/01/31 07:16:33.4	89.330	0.280	-0.160	0.490
2020/01/31 07:16:33.5	89.340	0.290	-0.170	0.470
2020/01/31 07:16:33.6	89.350	0.290	-0.190	0.460
2020/01/31 07:16:33.7	89.360	0.300	-0.200	0.450
2020/01/31 07:16:33.8	89.380	0.300	-0.220	0.440
2020/01/31 07:16:33.9	89.390	0.300	-0.230	0.430
2020/01/31 07:16:34.0	89.400	0.300	-0.250	0.430
2020/01/31 07:16:34.1	89.420	0.300	-0.260	0.430
2020/01/31 07:16:34.2	89.440	0.300	-0.280	0.430
2020/01/31 07:16:34.3	89.450	0.290	-0.290	0.430
2020/01/31 07:16:34.4	89.470	0.290	-0.300	0.430
2020/01/31 07:16:34.5	89.490	0.280	-0.320	0.440
2020/01/31 07:16:34.6	89.510	0.270	-0.320	0.450
2020/01/31 07:16:34.7	89.530	0.260	-0.330	0.460
2020/01/31 07:16:34.8	89.550	0.250	-0.340	0.470
2020/01/31 07:16:34.9	89.570	0.240	-0.340	0.480
2020/01/31 07:16:35.0	89.590	0.230	-0.350	0.500
2020/01/31 07:16:35.1	89.620	0.210	-0.350	0.510
2020/01/31 07:16:35.2	89.640	0.200	-0.340	0.530
2020/01/31 07:16:35.3	89.670	0.180	-0.340	0.550
2020/01/31 07:16:35.4	89.690	0.170	-0.330	0.570
2020/01/31 07:16:35.5	89.710	0.150	-0.330	0.590
2020/01/31 07:16:35.6	89.730	0.140	-0.320	0.620
2020/01/31 07:16:35.7	89.760	0.120	-0.300	0.640
2020/01/31 07:16:35.8	89.780	0.100	-0.290	0.670
2020/01/31 07:16:35.9	89.800	0.090	-0.270	0.700
2020/01/31 07:16:36.0	89.810	0.070	-0.250	0.730
2020/01/31 07:16:36.1	89.830	0.050	-0.230	0.760
2020/01/31 07:16:36.2	89.850	0.030	-0.210	0.790
2020/01/31 07:16:36.3	89.860	0.010	-0.190	0.830
2020/01/31 07:16:36.4	89.870	-0.000	-0.170	0.870
2020/01/31 07:16:36.5	89.890	-0.020	-0.140	0.910
2020/01/31 07:16:36.6	89.890	-0.040	-0.110	0.950
2020/01/31 07:16:36.7	89.900	-0.060	-0.090	0.990
2020/01/31 07:16:36.8	89.900	-0.080	-0.060	1.040
2020/01/31 07:16:36.9	89.910	-0.100	-0.030	1.090
2020/01/31 07:16:37.0	89.910	-0.120	-0.000	1.140
2020/01/31 07:16:37.1	89.900	-0.140	0.030	1.190
2020/01/31 07:16:37.2	89.900	-0.160	0.050	1.240
2020/01/31 07:16:37.3	89.890	-0.180	0.080	1.300
2020/01/31 07:16:37.4	89.880	-0.200	0.100	1.350
2020/01/31 07:16:37.5	89.870	-0.220	0.120	1.410
2020/01/31 07:16:37.6	89.850	-0.250	0.140	1.470
2020/01/31 07:16:37.7	89.840	-0.270	0.160	1.530
2020/01/31 07:16:37.8	89.820	-0.290	0.180	1.590
2020/01/31 07:16:37.9	89.800	-0.310	0.190	1.660
2020/01/31 07:16:38.0	89.780	-0.330	0.200	1.720
2020/01/31 07:16:38.1	89.760	-0.350	0.210	1.780
2020/01/31 07:16:38.2	89.730	-0.360	0.210	1.840
2020/01/31 07:16:38.3	89.710	-0.380	0.210	1.910
2020/01/31 07:16:38.4	89.680	-0.400	0.200	1.970
2020/01/31 07:16:38.5	89.660	-0.410	0.200	2.030
2020/01/31 07:16:38.6	89.630	-0.430	0.180	2.090
2020/01/31 07:16:38.7	89.610	-0.440	0.170	2.150
2020/01/31 07:16:38.8	89.590	-0.450	0.150	2.200
2020/01/31 07:16:38.9	89.560	-0.460	0.130	2.260
2020/01/31 07:16:39.0	89.540	-0.470	0.100	2.310
2020/01/31 07:16:39.1	89.520	-0.480	0.070	2.350
2020/01/31 07:16:39.2	89.500	-0.480	0.040	2.400
2020/01/31 07:16:39.3	89.480	-0.480	0.000	2.440
2020/01/31 07:16:39.4	89.460	-0.490	-0.040	2.470
2020/01/31 07:16:39.5	89.450	-0.490	-0.080	2.510
2020/01/31 07:16:39.6	89.430	-0.480	-0.120	2.540
2020/01/31 07:16:39.7	89.420	-0.480	-0.160	2.560
2020/01/31 07:16:39.8	89.410	-0.470	-0.210	2.580
2020/01/31 07:16:39.9	89.400	-0.460	-0.250	2.600
2020/01/31 07:16:40.0	89.400	-0.450	-0.300	2.610
2020/01/31 07:16:40.1	89.390	-0.440	-0.340	2.610
2020/01/31 07:16:40.2	89.390	-0.430	-0.380	2.620
2020/01/31 07:16:40.3	89.400	-0.420	-0.430	2.610
2020/01/31 07:16:40.4	89.400	-0.400	-0.460	2.610
2020/01/31 07:16:40.5	89.400	-0.380	-0.500	2.590
2020/01/31 07:16:40.6	89.410	-0.370	-0.530	2.580
2020/01/31 07:16:40.7	89.420	-0.350	-0.560	2.550
2020/01/31 07:16:40.8	89.430	-0.330	-0.590	2.530
2020/01/31 07:16:40.9	89.440	-0.310	-0.610	2.500
2020/01/31 07:16:41.0	89.450	-0.290	-0.620	2.460
2020/01/31 07:16:41.1	89.460	-0.270	-0.630	2.420
2020/01/31 07:16:41.2	89.480	-0.250	-0.640	2.380
2020/01/31 07:16:41.3	89.490	-0.230	-0.640	2.320
2020/01/31 07:16:41.4	89.510	-0.200	-0.640	2.270
2020/01/31 07:16:41.5	89.520	-0.180	-0.630	2.220
2020/01/31 07:16:41.6	89.540	-0.160	-0.620	2.160
2020/01/31 07:16:41.7	89.550	-0.140	-0.600	2.090
2020/01/31 07:16:41.8	89.570	-0.120	-0.580	2.030
2020/01/31 07:16:41.9	89.590	-0.100	-0.560	1.960
2020/01/31 07:16:42.0	89.600	-0.080	-0.530	1.890
2020/01/31 07:16:42.1	89.620	-0.060	-0.500	1.810
2020/01/31 07:16:42.2	89.640	-0.030	-0.470	1.740
2020/01/31 07:16:42.3	89.660	-0.010	-0.440	1.660
2020/01/31 07:16:42.4	89.670	0.010	-0.400	1.580
2020/01/31 07:16:42.5	89.690	0.030	-0.370	1.500
2020/01/31 07:16:42.6	89.700	0.050	-0.330	1.410
2020/01/31 07:16:42.7	89.710	0.070	-0.290	1.330
2020/01/31 07:16:42.8	89.720	0.090	-0.260	1.250
2020/01/31 07:16:42.9	89.730	0.110	-0.220	1.160
2020/01/31 07:16:43.0	89.740	0.130	-0.180	1.080
2020/01/31 07:16:43.1	89.750	0.150	-0.150	1.000
2020/01/31 07:16:43.2	89.750	0.160	-0.120	0.920
2020/01/31 07:16:43.3	89.760	0.180	-0.090	0.830
2020/01/31 07:16:43.4	89.760	0.200	-0.060	0.760
2020/01/31 07:16:43.5	89.760	0.220	-0.030	0.680
2020/01/31 07:16:43.6	89.770	0.240	-0.010	0.610
2020/01/31 07:16:43.7	89.770	0.260	0.010	0.530
2020/01/31 07:16:43.8	89.770	0.280	0.030	0.470
2020/01/31 07:16:43.9	89.760	0.290	0.050	0.400
2020/01/31 07:16:44.0	89.760	0.310	0.060	0.340
2020/01/31 07:16:44.1	89.760	0.330	0.070	0.280
2020/01/31 07:16:44.2	89.760	0.340	0.080	0.220
2020/01/31 07:16:44.3	89.750	0.360	0.090	0.160
2020/01/31 07:16:44.4	89.740	0.380	0.090	0.110
2020/01/31 07:16:44.5	89.740	0.390	0.090	0.060
2020/01/31 07:16:44.6	89.740	0.400	0.090	0.020
2020/01/31 07:16:44.7	89.730	0.420	0.080	-0.030
2020/01/31 07:16:44.8	89.730	0.430	0.080	-0.070
2020/01/31 07:16:44.9	89.730	0.440	0.070	-0.100
2020/01/31 07:16:45.0	89.720	0.450	0.060	-0.140
2020/01/31 07:16:45.1	89.720	0.460	0.050	-0.170
2020/01/31 07:16:45.2	89.720	0.460	0.040	-0.200
2020/01/31 07:16:45.3	89.720	0.470	0.020	-0.230
2020/01/31 07:16:45.4	89.720	0.470	0.010	-0.260
2020/01/31 07:16:45.5	89.720	0.470	-0.000	-0.280
2020/01/31 07:16:45.6	89.720	0.470	-0.020	-0.300
2020/01/31 07:16:45.7	89.720	0.470	-0.030	-0.320
2020/01/31 07:16:45.8	89.720	0.470	-0.050	-0.330
2020/01/31 07:16:45.9	89.730	0.460	-0.060	-0.350
2020/01/31 07:16:46.0	89.730	0.450	-0.080	-0.350
2020/01/31 07:16:46.1	89.730	0.440	-0.090	-0.360
2020/01/31 07:16:46.2	89.740	0.430	-0.110	-0.360
2020/01/31 07:16:46.3	89.740	0.420	-0.120	-0.360
2020/01/31 07:16:46.4	89.740	0.400	-0.140	-0.360
2020/01/31 07:16:46.5	89.740	0.390	-0.150	-0.350
2020/01/31 07:16:46.6	89.740	0.370	-0.170	-0.340
2020/01/31 07:16:46.7	89.740	0.350	-0.180	-0.330
2020/01/31 07:16:46.8	89.740	0.330	-0.190	-0.310
2020/01/31 07:16:46.9	89.740	0.310	-0.200	-0.290
2020/01/31 07:16:47.0	89.740	0.280	-0.220	-0.260
2020/01/31 07:16:47.1	89.730	0.260	-0.230	-0.230
2020/01/31 07:16:47.2	89.730	0.230	-0.240	-0.190
2020/01/31 07:16:47.3	89.720	0.200	-0.250	-0.150
2020/01/31 07:16:47.4	89.710	0.170	-0.260	-0.110
2020/01/31 07:16:47.5	89.700	0.150	-0.270	-0.060
2020/01/31 07:16:47.6	89.680	0.120	-0.270	-0.010
2020/01/31 07:16:47.7	89.660	0.090	-0.280	0.050
2020/01/31 07:16:47.8	89.650	0.060	-0.280	0.100
2020/01/31 07:16:47.9	89.620	0.030	-0.290	0.170
2020/01/31 07:16:48.0	89.600	-0.000	-0.290	0.240
2020/01/31 07:16:48.1	89.570	-0.030	-0.290	0.310
2020/01/31 07:16:48.2	89.550	-0.060	-0.290	0.380
2020/01/31 07:16:48.3	89.520	-0.090	-0.280	0.460
2020/01/31 07:16:48.4	89.490	-0.120	-0.280	0.540
2020/01/31 07:16:48.5	89.460	-0.150	-0.270	0.620
2020/01/31 07:16:48.6	89.430	-0.170	-0.260	0.700
2020/01/31 07:16:48.7	89.400	-0.200	-0.250	0.780
2020/01/31 07:16:48.8	89.360	-0.220	-0.240	0.860
2020/01/31 07:16:48.9	89.330	-0.250	-0.220	0.950
2020/01/31 07:16:49.0	89.300	-0.270	-0.210	1.030
2020/01/31 07:16:49.1	89.270	-0.290	-0.190	1.110
2020/01/31 07:16:49.2	89.240	-0.310	-0.170	1.190
2020/01/31 07:16:49.3	89.220	-0.330	-0.150	1.270
2020/01/31 07:16:49.4	89.190	-0.340	-0.130	1.350
2020/01/31 07:16:49.5	89.170	-0.360	-0.110	1.420
2020/01/31 07:16:49.6	89.150	-0.370	-0.080	1.500
2020/01/31 07:16:49.7	89.130	-0.380	-0.060	1.560
2020/01/31 07:16:49.8	89.120	-0.390	-0.040	1.630
2020/01/31 07:16:49.9	89.110	-0.400	-0.020	1.690
2020/01/31 07:16:50.0	89.100	-0.400	-0.000	1.740
2020/01/31 07:16:50.1	89.100	-0.400	0.010	1.790
2020/01/31 07:16:50.2	89.100	-0.400	0.030	1.840
2020/01/31 07:16:50.3	89.100	-0.400	0.040	1.880
2020/01/31 07:16:50.4	89.110	-0.400	0.050	1.920
2020/01/31 07:16:50.5	89.120	-0.390	0.060	1.950
2020/01/31 07:16:50.6	89.140	-0.380	0.060	1.980
2020/01/31 07:16:50.7	89.160	-0.370	0.060	2.000
2020/01/31 07:16:50.8	89.180	-0.360	0.060	2.010
2020/01/31 07:16:50.9	89.210	-0.350	0.060	2.030
2020/01/31 07:16:51.0	89.240	-0.330	0.050	2.040
2020/01/31 07:16:51.1	89.280	-0.320	0.040	2.040
2020/01/31 07:16:51.2	89.320	-0.300	0.030	2.040
2020/01/31 07:16:51.3	89.360	-0.280	0.020	2.040
2020/01/31 07:16:51.4	89.410	-0.260	-0.000	2.030
2020/01/31 07:16:51.5	89.450	-0.240	-0.020	2.020
2020/01/31 07:16:51.6	89.500	-0.210	-0.040	2.010
2020/01/31 07:16:51.7	89.550	-0.190	-0.060	2.000
2020/01/31 07:16:51.8	89.600	-0.160	-0.090	1.990
2020/01/31 07:16:51.9	89.650	-0.140	-0.110	1.980
2020/01/31 07:16:52.0	89.700	-0.110	-0.140	1.970
2020/01/31 07:16:52.1	89.740	-0.090	-0.160	1.960
2020/01/31 07:16:52.2	89.790	-0.060	-0.190	1.940
2020/01/31 07:16:52.3	89.840	-0.040	-0.220	1.930
2020/01/31 07:16:52.4	89.880	-0.010	-0.240	1.920
2020/01/31 07:16:52.5	89.920	0.010	-0.260	1.910
2020/01/31 07:16:52.6	89.960	0.040	-0.280	1.900
2020/01/31 07:16:52.7	90.000	0.060	-0.290	1.900
2020/01/31 07:16:52.8	90.030	0.080	-0.310	1.890
2020/01/31 07:16:52.9	90.060	0.100	-0.320	1.880
2020/01/31 07:16:53.0	90.090	0.120	-0.330	1.880
2020/01/31 07:16:53.1	90.110	0.140	-0.330	1.870
2020/01/31 07:16:53.2	90.130	0.150	-0.330	1.870
2020/01/31 07:16:53.3	90.150	0.170	-0.330	1.870
2020/01/31 07:16:53.4	90.160	0.180	-0.330	1.860
2020/01/31 07:16:53.5	90.170	0.190	-0.320	1.860
2020/01/31 07:16:53.6	90.170	0.200	-0.310	1.850
2020/01/31 07:16:53.7	90.180	0.210	-0.300	1.850
2020/01/31 07:16:53.8	90.170	0.210	-0.290	1.840
2020/01/31 07:16:53.9	90.170	0.210	-0.270	1.840
2020/01/31 07:16:54.0	90.160	0.220	-0.260	1.830
2020/01/31 07:16:54.1	90.150	0.210	-0.240	1.820
2020/01/31 07:16:54.2	90.140	0.210	-0.220	1.820
2020/01/31 07:16:54.3	90.130	0.200	-0.190	1.810
2020/01/31 07:16:54.4	90.110	0.190	-0.170	1.800
2020/01/31 07:16:54.5	90.090	0.180	-0.150	1.790
2020/01/31 07:16:54.6	90.070	0.170	-0.130	1.780
2020/01/31 07:16:54.7	90.040	0.160	-0.110	1.770
2020/01/31 07:16:54.8	90.010	0.140	-0.090	1.760
2020/01/31 07:16:54.9	89.980	0.120	-0.070	1.750
2020/01/31 07:16:55.0	89.940	0.100	-0.060	1.730
2020/01/31 07:16:55.1	89.910	0.080	-0.040	1.720
2020/01/31 07:16:55.2	89.870	0.060	-0.030	1.710
2020/01/31 07:16:55.3	89.830	0.040	-0.020	1.700
2020/01/31 07:16:55.4	89.790	0.020	-0.010	1.690
2020/01/31 07:16:55.5	89.750	-0.000	0.000	1.680
2020/01/31 07:16:55.6	89.700	-0.030	0.010	1.670
2020/01/31 07:16:55.7	89.660	-0.050	0.010	1.660
2020/01/31 07:16:55.8	89.620	-0.070	0.020	1.650
2020/01/31 07:16:55.9	89.580	-0.100	0.020	1.640
2020/01/31 07:16:56.0	89.530	-0.120	0.020	1.630
2020/01/31 07:16:56.1	89.490	-0.140	0.020	1.610
2020/01/31 07:16:56.2	89.450	-0.160	0.020	1.600
2020/01/31 07:16:56.3	89.410	-0.180	0.010	1.580
2020/01/31 07:16:56.4	89.370	-0.200	0.010	1.570
2020/01/31 07:16:56.5	89.330	-0.220	-0.000	1.550
2020/01/31 07:16:56.6	89.300	-0.240	-0.010	1.530
2020/01/31 07:16:56.7	89.270	-0.250	-0.020	1.510
2020/01/31 07:16:56.8	89.250	-0.260	-0.030	1.480
2020/01/31 07:16:56.9	89.220	-0.270	-0.040	1.450
2020/01/31 07:16:57.0	89.200	-0.280	-0.050	1.420
2020/01/31 07:16:57.1	89.180	-0.290	-0.060	1.390
2020/01/31 07:16:57.2	89.170	-0.300	-0.070	1.360
2020/01/31 07:16:57.3	89.150	-0.300	-0.090	1.320
2020/01/31 07:16:57.4	89.140	-0.300	-0.100	1.270
2020/01/31 07:16:57.5	89.140	-0.300	-0.110	1.230
2020/01/31 07:16:57.6	89.140	-0.300	-0.120	1.180
2020/01/31 07:16:57.7	89.150	-0.300	-0.130	1.120
2020/01/31 07:16:57.8	89.150	-0.290	-0.140	1.070
2020/01/31 07:16:57.9	89.160	-0.280	-0.150	1.010
2020/01/31 07:16:58.0	89.180	-0.270	-0.160	0.950
2020/01/31 07:16:58.1	89.190	-0.260	-0.170	0.880
2020/01/31 07:16:58.2	89.210	-0.250	-0.180	0.820
2020/01/31 07:16:58.3	89.230	-0.240	-0.180	0.750
2020/01/31 07:16:58.4	89.250	-0.220	-0.190	0.680
2020/01/31 07:16:58.5	89.270	-0.210	-0.190	0.610
2020/01/31 07:16:58.6	89.300	-0.190	-0.200	0.540
2020/01/31 07:16:58.7	89.320	-0.180	-0.200	0.470
2020/01/31 07:16:58.8	89.350	-0.160	-0.200	0.400
2020/01/31 07:16:58.9	89.370	-0.140	-0.210	0.340
2020/01/31 07:16:59.0	89.400	-0.120	-0.210	0.270
2020/01/31 07:16:59.1	89.420	-0.110	-0.210	0.200
2020/01/31 07:16:59.2	89.440	-0.090	-0.210	0.140
2020/01/31 07:16:59.3	89.460	-0.070	-0.210	0.080
2020/01/31 07:16:59.4	89.480	-0.050	-0.210	0.020
2020/01/31 07:16:59.5	89.500	-0.040	-0.210	-0.040
2020/01/31 07:16:59.6	89.520	-0.020	-0.200	-0.100
2020/01/31 07:16:59.7	89.540	-0.010	-0.200	-0.150
2020/01/31 07:16:59.8	89.560	0.010	-0.200	-0.200
2020/01/31 07:16:59.9	89.580	0.020	-0.200	-0.250
2020/01/31 07:17:00.0	89.590	0.030	-0.200	-0.290
2020/01/31 07:17:00.1	89.600	0.040	-0.200	-0.330
2020/01/31 07:17:00.2	89.620	0.050	-0.200	-0.360
2020/01/31 07:17:00.3	89.620	0.060	-0.190	-0.400
2020/01/31 07:17:00.4	89.630	0.070	-0.190	-0.430
2020/01/31 07:17:00.5	89.640	0.080	-0.190	-0.450
2020/01/31 07:17:00.6	89.650	0.090	-0.190	-0.470
2020/01/31 07:17:00.7	89.650	0.090	-0.200	-0.490
2020/01/31 07:17:00.8	89.660	0.100	-0.200	-0.500
2020/01/31 07:17:00.9	89.660	0.100	-0.200	-0.510
2020/01/31 07:17:01.0	89.660	0.100	-0.200	-0.520
2020/01/31 07:17:01.1	89.660	0.100	-0.210	-0.520
2020/01/31 07:17:01.2	89.660	0.100	-0.210	-0.520
2020/01/31 07:17:01.3	89.660	0.100	-0.220	-0.510
2020/01/31 07:17:01.4	89.660	0.100	-0.230	-0.500
2020/01/31 07:17:01.5	89.660	0.100	-0.230	-0.490
2020/01/31 07:17:01.6	89.650	0.100	-0.240	-0.470
2020/01/31 07:17:01.7	89.650	0.100	-0.250	-0.450
2020/01/31 07:17:01.8	89.650	0.100	-0.250	-0.420
2020/01/31 07:17:01.9	89.650	0.090	-0.260	-0.390
2020/01/31 07:17:02.0	89.640	0.090	-0.270	-0.360
2020/01/31 07:17:02.1	89.640	0.090	-0.280	-0.320
2020/01/31 07:17:02.2	89.640	0.090	-0.290	-0.280
2020/01/31 07:17:02.3	89.640	0.090	-0.300	-0.230
2020/01/31 07:17:02.4	89.640	0.080	-0.310	-0.180
2020/01/31 07:17:02.5	89.640	0.080	-0.320	-0.130
2020/01/31 07:17:02.6	89.630	0.080	-0.330	-0.080
2020/01/31 07:17:02.7	89.630	0.080	-0.340	-0.020
2020/01/31 07:17:02.8	89.630	0.080	-0.350	0.040
2020/01/31 07:17:02.9	89.620	0.080	-0.360	0.110
2020/01/31 07:17:03.0	89.620	0.080	-0.370	0.170
2020/01/31 07:17:03.1	89.620	0.080	-0.380	0.240
2020/01/31 07:17:03.2	89.620	0.080	-0.390	0.310
2020/01/31 07:17:03.3	89.620	0.080	-0.400	0.390
2020/01/31 07:17:03.4	89.620	0.080	-0.400	0.460
2020/01/31 07:17:03.5	89.620	0.080	-0.410	0.530
2020/01/31 07:17:03.6	89.620	0.090	-0.410	0.610
2020/01/31 07:17:03.7	89.620	0.090	-0.410	0.680
2020/01/31 07:17:03.8	89.630	0.090	-0.420	0.760
2020/01/31 07:17:03.9	89.630	0.090	-0.420	0.830
2020/01/31 07:17:04.0	89.630	0.090	-0.410	0.910
2020/01/31 07:17:04.1	89.640	0.100	-0.410	0.980
2020/01/31 07:17:04.2	89.650	0.100	-0.400	1.050
2020/01/31 07:17:04.3	89.650	0.100	-0.390	1.120
2020/01/31 07:17:04.4	89.650	0.100	-0.380	1.190
2020/01/31 07:17:04.5	89.660	0.110	-0.370	1.260
2020/01/31 07:17:04.6	89.670	0.110	-0.350	1.330
2020/01/31 07:17:04.7	89.680	0.110	-0.340	1.390
2020/01/31 07:17:04.8	89.680	0.110	-0.320	1.460
2020/01/31 07:17:04.9	89.690	0.110	-0.300	1.520
2020/01/31 07:17:05.0	89.690	0.120	-0.270	1.590
2020/01/31 07:17:05.1	89.700	0.120	-0.250	1.650
2020/01/31 07:17:05.2	89.700	0.120	-0.220	1.710
2020/01/31 07:17:05.3	89.710	0.120	-0.190	1.770
2020/01/31 07:17:05.4	89.710	0.120	-0.160	1.820
2020/01/31 07:17:05.5	89.710	0.120	-0.130	1.880
2020/01/31 07:17:05.6	89.710	0.130	-0.090	1.930
2020/01/31 07:17:05.7	89.710	0.130	-0.060	1.980
2020/01/31 07:17:05.8	89.710	0.130	-0.020	2.030
2020/01/31 07:17:05.9	89.700	0.130	0.010	2.080
2020/01/31 07:17:06.0	89.700	0.130	0.050	2.130
2020/01/31 07:17:06.1	89.690	0.130	0.090	2.170
2020/01/31 07:17:06.2	89.680	0.130	0.120	2.210
2020/01/31 07:17:06.3	89.660	0.130	0.160	2.240
2020/01/31 07:17:06.4	89.650	0.130	0.190	2.280
2020/01/31 07:17:06.5	89.630	0.130	0.220	2.310
2020/01/31 07:17:06.6	89.620	0.130	0.260	2.340
2020/01/31 07:17:06.7	89.600	0.130	0.290	2.360
2020/01/31 07:17:06.8	89.590	0.130	0.310	2.380
2020/01/31 07:17:06.9	89.570	0.130	0.340	2.390
2020/01/31 07:17:07.0	89.560	0.130	0.360	2.400
2020/01/31 07:17:07.1	89.540	0.130	0.380	2.410
2020/01/31 07:17:07.2	89.520	0.130	0.390	2.410
2020/01/31 07:17:07.3	89.510	0.120	0.410	2.410
2020/01/31 07:17:07.4	89.490	0.120	0.420	2.400
2020/01/31 07:17:07.5	89.470	0.120	0.420	2.390
2020/01/31 07:17:07.6	89.450	0.120	0.420	2.370
2020/01/31 07:17:07.7	89.440	0.120	0.410	2.350
2020/01/31 07:17:07.8	89.420	0.110	0.400	2.330
2020/01/31 07:17:07.9	89.410	0.110	0.390	2.300
2020/01/31 07:17:08.0	89.390	0.110	0.370	2.270
2020/01/31 07:17:08.1	89.380	0.110	0.350	2.230
2020/01/31 07:17:08.2	89.370	0.100	0.320	2.190
2020/01/31 07:17:08.3	89.350	0.100	0.290	2.150
2020/01/31 07:17:08.4	89.340	0.100	0.260	2.100
2020/01/31 07:17:08.5	89.330	0.100	0.220	2.050
2020/01/31 07:17:08.6	89.330	0.100	0.170	2.000
2020/01/31 07:17:08.7	89.320	0.100	0.130	1.950
2020/01/31 07:17:08.8	89.320	0.090	0.080	1.890
2020/01/31 07:17:08.9	89.320	0.090	0.030	1.840
2020/01/31 07:17:09.0	89.320	0.090	-0.030	1.780
2020/01/31 07:17:09.1	89.320	0.090	-0.080	1.720
2020/01/31 07:17:09.2	89.330	0.090	-0.140	1.660
2020/01/31 07:17:09.3	89.340	0.100	-0.200	1.590
2020/01/31 07:17:09.4	89.350	0.100	-0.260	1.530
2020/01/31 07:17:09.5	89.360	0.100	-0.320	1.470
2020/01/31 07:17:09.6	89.380	0.100	-0.370	1.410
2020/01/31 07:17:09.7	89.390	0.100	-0.430	1.340
2020/01/31 07:17:09.8	89.410	0.110	-0.480	1.280
2020/01/31 07:17:09.9	89.430	0.110	-0.530	1.220
2020/01/31 07:17:10.0	89.450	0.110	-0.580	1.150
2020/01/31 07:17:10.1	89.470	0.110	-0.620	1.090
2020/01/31 07:17:10.2	89.490	0.110	-0.660	1.030
2020/01/31 07:17:10.3	89.510	0.110	-0.700	0.970
2020/01/31 07:17:10.4	89.540	0.120	-0.720	0.910
2020/01/31 07:17:10.5	89.560	0.110	-0.750	0.850
2020/01/31 07:17:10.6	89.590	0.110	-0.760	0.800
2020/01/31 07:17:10.7	89.610	0.110	-0.780	0.750
2020/01/31 07:17:10.8	89.640	0.110	-0.780	0.700
2020/01/31 07:17:10.9	89.670	0.100	-0.780	0.650
2020/01/31 07:17:11.0	89.690	0.100	-0.770	0.600
2020/01/31 07:17:11.1	89.720	0.090	-0.760	0.560
2020/01/31 07:17:11.2	89.750	0.080	-0.740	0.520
2020/01/31 07:17:11.3	89.770	0.070	-0.710	0.480
2020/01/31 07:17:11.4	89.800	0.060	-0.680	0.440
2020/01/31 07:17:11.5	89.820	0.040	-0.650	0.410
2020/01/31 07:17:11.6	89.840	0.020	-0.610	0.380
2020/01/31 07:17:11.7	89.860	0.010	-0.560	0.360
2020/01/31 07:17:11.8	89.880	-0.010	-0.510	0.340
2020/01/31 07:17:11.9	89.900	-0.040	-0.460	0.320
2020/01/31 07:17:12.0	89.920	-0.060	-0.410	0.300
2020/01/31 07:17:12.1	89.940	-0.090	-0.350	0.290
2020/01/31 07:17:12.2	89.960	-0.110	-0.290	0.280
2020/01/31 07:17:12.3	89.980	-0.140	-0.230	0.280
2020/01/31 07:17:12.4	89.990	-0.170	-0.170	0.280
2020/01/31 07:17:12.5	90.000	-0.200	-0.110	0.280
2020/01/31 07:17:12.6	90.010	-0.240	-0.040	0.280
2020/01/31 07:17:12.7	90.020	-0.270	0.020	0.290
2020/01/31 07:17:12.8	90.030	-0.300	0.070	0.300
2020/01/31 07:17:12.9	90.040	-0.340	0.130	0.310
2020/01/31 07:17:13.0	90.040	-0.370	0.190	0.330
2020/01/31 07:17:13.1	90.050	-0.410	0.240	0.340
2020/01/31 07:17:13.2	90.050	-0.440	0.290	0.360
2020/01/31 07:17:13.3	90.060	-0.470	0.330	0.380
2020/01/31 07:17:13.4	90.060	-0.510	0.380	0.400
2020/01/31 07:17:13.5	90.060	-0.540	0.420	0.430
2020/01/31 07:17:13.6	90.060	-0.570	0.460	0.450
2020/01/31 07:17:13.7	90.060	-0.600	0.490	0.480
2020/01/31 07:17:13.8	90.050	-0.630	0.520	0.510
2020/01/31 07:17:13.9	90.050	-0.660	0.550	0.540
2020/01/31 07:17:14.0	90.050	-0.690	0.570	0.570
2020/01/31 07:17:14.1	90.040	-0.710	0.590	0.600
2020/01/31 07:17:14.2	90.030	-0.730	0.600	0.630
2020/01/31 07:17:14.3	90.020	-0.750	0.610	0.660
2020/01/31 07:17:14.4	90.020	-0.770	0.620	0.700
2020/01/31 07:17:14.5	90.010	-0.790	0.620	0.730
2020/01/31 07:17:14.6	90.000	-0.800	0.620	0.770
2020/01/31 07:17:14.7	89.990	-0.810	0.610	0.810
2020/01/31 07:17:14.8	89.980	-0.820	0.600	0.850
2020/01/31 07:17:14.9	89.970	-0.820	0.590	0.880
2020/01/31 07:17:15.0	89.960	-0.820	0.570	0.920
2020/01/31 07:17:15.1	89.950	-0.820	0.550	0.960
2020/01/31 07:17:15.2	89.940	-0.810	0.520	1.000
2020/01/31 07:17:15.3	89.930	-0.800	0.490	1.040
2020/01/31 07:17:15.4	89.920	-0.790	0.460	1.090
2020/01/31 07:17:15.5	89.910	-0.770	0.420	1.130
2020/01/31 07:17:15.6	89.890	-0.750	0.380	1.170
2020/01/31 07:17:15.7	89.880	-0.730	0.330	1.210
2020/01/31 07:17:15.8	89.870	-0.700	0.280	1.250
2020/01/31 07:17:15.9	89.860	-0.670	0.220	1.290
2020/01/31 07:17:16.0	89.840	-0.640	0.160	1.330
2020/01/31 07:17:16.1	89.830	-0.600	0.100	1.360
2020/01/31 07:17:16.2	89.820	-0.560	0.030	1.400
2020/01/31 07:17:16.3	89.810	-0.520	-0.050	1.430
2020/01/31 07:17:16.4	89.800	-0.470	-0.120	1.460
2020/01/31 07:17:16.5	89.800	-0.420	-0.200	1.490
2020/01/31 07:17:16.6	89.790	-0.370	-0.280	1.520
2020/01/31 07:17:16.7	89.780	-0.310	-0.370	1.540
2020/01/31 07:17:16.8	89.780	-0.260	-0.460	1.560
2020/01/31 07:17:16.9	89.770	-0.200	-0.550	1.580
2020/01/31 07:17:17.0	89.770	-0.140	-0.640	1.600
2020/01/31 07:17:17.1	89.770	-0.070	-0.730	1.610
2020/01/31 07:17:17.2	89.760	-0.010	-0.820	1.620
2020/01/31 07:17:17.3	89.760	0.060	-0.910	1.630
2020/01/31 07:17:17.4	89.760	0.120	-1.000	1.630
2020/01/31 07:17:17.5	89.760	0.190	-1.090	1.630
2020/01/31 07:17:17.6	89.760	0.260	-1.170	1.630
2020/01/31 07:17:17.7	89.760	0.320	-1.250	1.630
2020/01/31 07:17:17.8	89.760	0.390	-1.330	1.630
2020/01/31 07:17:17.9	89.760	0.450	-1.400	1.620
2020/01/31 07:17:18.0	89.770	0.520	-1.470	1.610
2020/01/31 07:17:18.1	89.770	0.580	-1.530	1.600
2020/01/31 07:17:18.2	89.770	0.640	-1.580	1.590
2020/01/31 07:17:18.3	89.770	0.690	-1.630	1.570
2020/01/31 07:17:18.4	89.770	0.750	-1.660	1.560
2020/01/31 07:17:18.5	89.770	0.800	-1.690	1.550
2020/01/31 07:17:18.6	89.780	0.850	-1.700	1.530
2020/01/31 07:17:18.7	89.780	0.890	-1.710	1.510
2020/01/31 07:17:18.8	89.780	0.930	-1.700	1.490
2020/01/31 07:17:18.9	89.780	0.960	-1.690	1.470
2020/01/31 07:17:19.0	89.780	1.000	-1.660	1.450
2020/01/31 07:17:19.1	89.780	1.020	-1.620	1.430
2020/01/31 07:17:19.2	89.780	1.050	-1.580	1.400
2020/01/31 07:17:19.3	89.770	1.060	-1.510	1.380
2020/01/31 07:17:19.4	89.770	1.080	-1.440	1.350
2020/01/31 07:17:19.5	89.770	1.090	-1.370	1.320
2020/01/31 07:17:19.6	89.760	1.090	-1.280	1.290
2020/01/31 07:17:19.7	89.760	1.090	-1.180	1.260
2020/01/31 07:17:19.8	89.760	1.080	-1.080	1.220
2020/01/31 07:17:19.9	89.750	1.070	-0.960	1.190
2020/01/31 07:17:20.0	89.750	1.060	-0.840	1.150
2020/01/31 07:17:20.1	89.740	1.040	-0.720	1.120
2020/01/31 07:17:20.2	89.740	1.020	-0.580	1.080
2020/01/31 07:17:20.3	89.730	0.990	-0.450	1.040
2020/01/31 07:17:20.4	89.730	0.960	-0.310	1.000
2020/01/31 07:17:20.5	89.720	0.920	-0.160	0.960
2020/01/31 07:17:20.6	89.720	0.880	-0.020	0.930
2020/01/31 07:17:20.7	89.710	0.840	0.120	0.890
2020/01/31 07:17:20.8	89.710	0.800	0.270	0.850
2020/01/31 07:17:20.9	89.710	0.750	0.410	0.820
2020/01/31 07:17:21.0	89.700	0.700	0.550	0.780
2020/01/31 07:17:21.1	89.700	0.640	0.690	0.750
2020/01/31 07:17:21.2	89.690	0.590	0.820	0.720
2020/01/31 07:17:21.3	89.690	0.530	0.960	0.680
2020/01/31 07:17:21.4	89.680	0.480	1.080	0.650
2020/01/31 07:17:21.5	89.680	0.420	1.190	0.630
2020/01/31 07:17:21.6	89.680	0.360	1.300	0.600
2020/01/31 07:17:21.7	89.680	0.300	1.390	0.570
2020/01/31 07:17:21.8	89.680	0.240	1.480	0.550
2020/01/31 07:17:21.9	89.670	0.180	1.560	0.530
2020/01/31 07:17:22.0	89.670	0.120	1.620	0.510
2020/01/31 07:17:22.1	89.680	0.060	1.680	0.490
2020/01/31 07:17:22.2	89.680	0.010	1.720	0.480
2020/01/31 07:17:22.3	89.680	-0.050	1.750	0.460
2020/01/31 07:17:22.4	89.680	-0.100	1.770	0.450
2020/01/31 07:17:22.5	89.690	-0.150	1.780	0.440
2020/01/31 07:17:22.6	89.690	-0.200	1.770	0.430
2020/01/31 07:17:22.7	89.700	-0.240	1.750	0.420
2020/01/31 07:17:22.8	89.710	-0.280	1.710	0.410
2020/01/31 07:17:22.9	89.720	-0.320	1.670	0.410
2020/01/31 07:17:23.0	89.730	-0.360	1.610	0.400
2020/01/31 07:17:23.1	89.740	-0.390	1.540	0.390
2020/01/31 07:17:23.2	89.750	-0.420	1.450	0.390
2020/01/31 07:17:23.3	89.760	-0.440	1.350	0.390
2020/01/31 07:17:23.4	89.780	-0.460	1.250	0.380
2020/01/31 07:17:23.5	89.800	-0.480	1.130	0.380
2020/01/31 07:17:23.6	89.820	-0.490	1.010	0.380
2020/01/31 07:17:23.7	89.840	-0.500	0.880	0.380
2020/01/31 07:17:23.8	89.870	-0.500	0.740	0.380
2020/01/31 07:17:23.9	89.890	-0.500	0.600	0.380
2020/01/31 07:17:24.0	89.920	-0.500	0.450	0.380
2020/01/31 07:17:24.1	89.940	-0.500	0.300	0.390
2020/01/31 07:17:24.2	89.970	-0.490	0.140	0.390
2020/01/31 07:17:24.3	90.000	-0.480	-0.020	0.400
2020/01/31 07:17:24.4	90.020	-0.460	-0.170	0.410
2020/01/31 07:17:24.5	90.050	-0.450	-0.330	0.430
2020/01/31 07:17:24.6	90.080	-0.430	-0.480	0.440
2020/01/31 07:17:24.7	90.100	-0.410	-0.630	0.460
2020/01/31 07:17:24.8	90.130	-0.390	-0.770	0.490
2020/01/31 07:17:24.9	90.150	-0.370	-0.910	0.520
2020/01/31 07:17:25.0	90.170	-0.350	-1.040	0.550
2020/01/31 07:17:25.1	90.180	-0.330	-1.170	0.590
2020/01/31 07:17:25.2	90.200	-0.310	-1.280	0.630
2020/01/31 07:17:25.3	90.210	-0.290	-1.390	0.680
2020/01/31 07:17:25.4	90.220	-0.270	-1.490	0.730
2020/01/31 07:17:25.5	90.220	-0.250	-1.570	0.780
2020/01/31 07:17:25.6	90.230	-0.230	-1.640	0.830
2020/01/31 07:17:25.7	90.230	-0.210	-1.700	0.890
2020/01/31 07:17:25.8	90.230	-0.190	-1.740	0.960
2020/01/31 07:17:25.9	90.230	-0.180	-1.770	1.020
2020/01/31 07:17:26.0	90.220	-0.160	-1.790	1.080
2020/01/31 07:17:26.1	90.210	-0.150	-1.790	1.150
2020/01/31 07:17:26.2	90.200	-0.140	-1.790	1.220
2020/01/31 07:17:26.3	90.180	-0.130	-1.760	1.290
2020/01/31 07:17:26.4	90.170	-0.130	-1.730	1.360
2020/01/31 07:17:26.5	90.150	-0.120	-1.690	1.430
2020/01/31 07:17:26.6	90.140	-0.120	-1.630	1.500
2020/01/31 07:17:26.7	90.120	-0.120	-1.560	1.560
2020/01/31 07:17:26.8	90.100	-0.120	-1.490	1.630
2020/01/31 07:17:26.9	90.080	-0.130	-1.400	1.700
2020/01/31 07:17:27.0	90.050	-0.130	-1.310	1.760
2020/01/31 07:17:27.1	90.030	-0.130	-1.210	1.820
2020/01/31 07:17:27.2	90.000	-0.140	-1.100	1.880
2020/01/31 07:17:27.3	89.980	-0.150	-0.980	1.940
2020/01/31 07:17:27.4	89.950	-0.150	-0.870	1.990
2020/01/31 07:17:27.5	89.920	-0.160	-0.750	2.040
2020/01/31 07:17:27.6	89.890	-0.170	-0.630	2.090
2020/01/31 07:17:27.7	89.860	-0.180	-0.510	2.140
2020/01/31 07:17:27.8	89.830	-0.180	-0.380	2.180
2020/01/31 07:17:27.9	89.800	-0.190	-0.260	2.220
2020/01/31 07:17:28.0	89.760	-0.200	-0.150	2.250
2020/01/31 07:17:28.1	89.730	-0.210	-0.030	2.280
2020/01/31 07:17:28.2	89.690	-0.210	0.080	2.310
2020/01/31 07:17:28.3	89.660	-0.220	0.190	2.330
2020/01/31 07:17:28.4	89.630	-0.220	0.290	2.350
2020/01/31 07:17:28.5	89.600	-0.230	0.380	2.360
2020/01/31 07:17:28.6	89.560	-0.230	0.470	2.360
2020/01/31 07:17:28.7	89.530	-0.230	0.550	2.360
2020/01/31 07:17:28.8	89.500	-0.230	0.630	2.350
2020/01/31 07:17:28.9	89.470	-0.230	0.690	2.340
2020/01/31 07:17:29.0	89.440	-0.230	0.750	2.320
2020/01/31 07:17:29.1	89.410	-0.230	0.790	2.300
2020/01/31 07:17:29.2	89.390	-0.220	0.830	2.270
2020/01/31 07:17:29.3	89.360	-0.220	0.860	2.230
2020/01/31 07:17:29.4	89.340	-0.210	0.880	2.190
2020/01/31 07:17:29.5	89.320	-0.200	0.890	2.150
2020/01/31 07:17:29.6	89.300	-0.190	0.900	2.100
2020/01/31 07:17:29.7	89.280	-0.180	0.890	2.050
2020/01/31 07:17:29.8	89.270	-0.170	0.880	1.990
2020/01/31 07:17:29.9	89.260	-0.160	0.850	1.930
2020/01/31 07:17:30.0	89.250	-0.150	0.820	1.860
2020/01/31 07:17:30.1	89.240	-0.130	0.790	1.790
2020/01/31 07:17:30.2	89.240	-0.120	0.750	1.720
2020/01/31 07:17:30.3	89.240	-0.110	0.700	1.650
2020/01/31 07:17:30.4	89.240	-0.090	0.650	1.570
2020/01/31 07:17:30.5	89.240	-0.080	0.590	1.490
2020/01/31 07:17:30.6	89.240	-0.060	0.530	1.410
2020/01/31 07:17:30.7	89.250	-0.050	0.460	1.330
2020/01/31 07:17:30.8	89.250	-0.030	0.390	1.250
2020/01/31 07:17:30.9	89.260	-0.020	0.320	1.160
2020/01/31 07:17:31.0	89.270	-0.000	0.250	1.080
2020/01/31 07:17:31.1	89.290	0.010	0.180	0.990
2020/01/31 07:17:31.2	89.300	0.020	0.100	0.900
2020/01/31 07:17:31.3	89.310	0.040	0.030	0.810
2020/01/31 07:17:31.4	89.330	0.050	-0.050	0.720
2020/01/31 07:17:31.5	89.350	0.060	-0.120	0.640
2020/01/31 07:17:31.6	89.370	0.070	-0.200	0.550
2020/01/31 07:17:31.7	89.390	0.080	-0.270	0.460
2020/01/31 07:17:31.8	89.410	0.090	-0.340	0.370
2020/01/31 07:17:31.9	89.440	0.090	-0.400	0.290
2020/01/31 07:17:32.0	89.460	0.100	-0.470	0.200
2020/01/31 07:17:32.1	89.490	0.110	-0.530	0.120
2020/01/31 07:17:32.2	89.510	0.110	-0.590	0.030
2020/01/31 07:17:32.3	89.530	0.120	-0.650	-0.050
2020/01/31 07:17:32.4	89.560	0.120	-0.700	-0.130
2020/01/31 07:17:32.5	89.580	0.120	-0.740	-0.200
2020/01/31 07:17:32.6	89.610	0.120	-0.780	-0.270
2020/01/31 07:17:32.7	89.630	0.130	-0.820	-0.340
2020/01/31 07:17:32.8	89.650	0.130	-0.850	-0.400
2020/01/31 07:17:32.9	89.670	0.130	-0.880	-0.460
2020/01/31 07:17:33.0	89.680	0.140	-0.900	-0.520
2020/01/31 07:17:33.1	89.700	0.140	-0.920	-0.570
2020/01/31 07:17:33.2	89.710	0.140	-0.940	-0.610
2020/01/31 07:17:33.3	89.730	0.140	-0.940	-0.650
2020/01/31 07:17:33.4	89.730	0.150	-0.950	-0.680
2020/01/31 07:17:33.5	89.740	0.150	-0.950	-0.700
2020/01/31 07:17:33.6	89.740	0.160	-0.950	-0.720
2020/01/31 07:17:33.7	89.740	0.160	-0.950	-0.730
2020/01/31 07:17:33.8	89.740	0.170	-0.940	-0.740
2020/01/31 07:17:33.9	89.740	0.170	-0.930	-0.740
2020/01/31 07:17:34.0	89.730	0.180	-0.910	-0.730
2020/01/31 07:17:34.1	89.720	0.180	-0.900	-0.720
2020/01/31 07:17:34.2	89.710	0.190	-0.880	-0.700
2020/01/31 07:17:34.3	89.700	0.190	-0.860	-0.670
2020/01/31 07:17:34.4	89.680	0.200	-0.830	-0.640
2020/01/31 07:17:34.5	89.670	0.210	-0.800	-0.600
2020/01/31 07:17:34.6	89.650	0.210	-0.770	-0.560
2020/01/31 07:17:34.7	89.640	0.220	-0.740	-0.520
2020/01/31 07:17:34.8	89.620	0.220	-0.710	-0.470
2020/01/31 07:17:34.9	89.600	0.230	-0.670	-0.410
2020/01/31 07:17:35.0	89.580	0.230	-0.630	-0.350
2020/01/31 07:17:35.1	89.560	0.230	-0.590	-0.280
2020/01/31 07:17:35.2	89.550	0.230	-0.550	-0.220
2020/01/31 07:17:35.3	89.530	0.240	-0.510	-0.140
2020/01/31 07:17:35.4	89.510	0.230	-0.460	-0.070
2020/01/31 07:17:35.5	89.500	0.230	-0.420	0.010
2020/01/31 07:17:35.6	89.480	0.230	-0.370	0.090
2020/01/31 07:17:35.7	89.470	0.220	-0.320	0.170
2020/01/31 07:17:35.8	89.460	0.220	-0.270	0.250
2020/01/31 07:17:35.9	89.450	0.210	-0.220	0.330
2020/01/31 07:17:36.0	89.430	0.200	-0.170	0.410
2020/01/31 07:17:36.1	89.430	0.190	-0.120	0.490
2020/01/31 07:17:36.2	89.420	0.180	-0.070	0.570
2020/01/31 07:17:36.3	89.410	0.170	-0.020	0.650
2020/01/31 07:17:36.4	89.400	0.150	0.040	0.730
2020/01/31 07:17:36.5	89.400	0.140	0.090	0.810
2020/01/31 07:17:36.6	89.400	0.120	0.140	0.890
2020/01/31 07:17:36.7	89.390	0.100	0.200	0.970
2020/01/31 07:17:36.8	89.390	0.090	0.250	1.040
2020/01/31 07:17:36.9	89.390	0.070	0.300	1.110
2020/01/31 07:17:37.0	89.390	0.050	0.350	1.180
2020/01/31 07:17:37.1	89.380	0.030	0.400	1.250
2020/01/31 07:17:37.2	89.380	0.010	0.450	1.320
2020/01/31 07:17:37.3	89.380	-0.010	0.500	1.380
2020/01/31 07:17:37.4	89.380	-0.030	0.550	1.440
2020/01/31 07:17:37.5	89.380	-0.050	0.590	1.500
2020/01/31 07:17:37.6	89.370	-0.070	0.630	1.560
2020/01/31 07:17:37.7	89.370	-0.080	0.660	1.610
2020/01/31 07:17:37.8	89.370	-0.100	0.700	1.660
2020/01/31 07:17:37.9	89.370	-0.120	0.720	1.710
2020/01/31 07:17:38.0	89.370	-0.130	0.750	1.760
2020/01/31 07:17:38.1	89.370	-0.140	0.770	1.810
2020/01/31 07:17:38.2	89.360	-0.150	0.780	1.850
2020/01/31 07:17:38.3	89.360	-0.160	0.790	1.890
2020/01/31 07:17:38.4	89.360	-0.170	0.790	1.930
2020/01/31 07:17:38.5	89.360	-0.170	0.790	1.960
2020/01/31 07:17:38.6	89.350	-0.170	0.780	2.000
2020/01/31 07:17:38.7	89.350	-0.170	0.770	2.030
2020/01/31 07:17:38.8	89.340	-0.170	0.740	2.050
2020/01/31 07:17:38.9	89.340	-0.170	0.720	2.080
2020/01/31 07:17:39.0	89.330	-0.160	0.680	2.100
2020/01/31 07:17:39.1	89.330	-0.150	0.640	2.110
2020/01/31 07:17:39.2	89.320	-0.140	0.600	2.130
2020/01/31 07:17:39.3	89.320	-0.130	0.550	2.140
2020/01/31 07:17:39.4	89.310	-0.120	0.490	2.150
2020/01/31 07:17:39.5	89.310	-0.100	0.430	2.150
2020/01/31 07:17:39.6	89.300	-0.090	0.360	2.160
2020/01/31 07:17:39.7	89.300	-0.070	0.290	2.160
2020/01/31 07:17:39.8	89.290	-0.050	0.220	2.150
2020/01/31 07:17:39.9	89.290	-0.030	0.150	2.150
2020/01/31 07:17:40.0	89.280	-0.010	0.070	2.140
2020/01/31 07:17:40.1	89.280	0.010	-0.010	2.130
2020/01/31 07:17:40.2	89.280	0.030	-0.090	2.120
2020/01/31 07:17:40.3	89.270	0.060	-0.180	2.110
2020/01/31 07:17:40.4	89.270	0.080	-0.260	2.090
2020/01/31 07:17:40.5	89.280	0.100	-0.340	2.070
2020/01/31 07:17:40.6	89.280	0.120	-0.420	2.050
2020/01/31 07:17:40.7	89.280	0.150	-0.490	2.030
2020/01/31 07:17:40.8	89.290	0.170	-0.570	2.000
2020/01/31 07:17:40.9	89.300	0.190	-0.640	1.970
2020/01/31 07:17:41.0	89.310	0.210	-0.710	1.940
2020/01/31 07:17:41.1	89.320	0.230	-0.770	1.910
2020/01/31 07:17:41.2	89.340	0.250	-0.830	1.880
2020/01/31 07:17:41.3	89.350	0.270	-0.890	1.840
2020/01/31 07:17:41.4	89.370	0.290	-0.930	1.810
2020/01/31 07:17:41.5	89.390	0.300	-0.980	1.770
2020/01/31 07:17:41.6	89.410	0.320	-1.010	1.740
2020/01/31 07:17:41.7	89.430	0.330	-1.040	1.700
2020/01/31 07:17:41.8	89.460	0.340	-1.060	1.670
2020/01/31 07:17:41.9	89.480	0.350	-1.080	1.640
2020/01/31 07:17:42.0	89.510	0.360	-1.090	1.600
2020/01/31 07:17:42.1	89.530	0.370	-1.090	1.570
2020/01/31 07:17:42.2	89.550	0.370	-1.080	1.540
2020/01/31 07:17:42.3	89.580	0.370	-1.060	1.510
2020/01/31 07:17:42.4	89.610	0.370	-1.040	1.480
2020/01/31 07:17:42.5	89.630	0.370	-1.020	1.450
2020/01/31 07:17:42.6	89.650	0.370	-0.980	1.430
2020/01/31 07:17:42.7	89.670	0.360	-0.940	1.400
2020/01/31 07:17:42.8	89.680	0.350	-0.890	1.380
2020/01/31 07:17:42.9	89.700	0.340	-0.840	1.360
2020/01/31 07:17:43.0	89.710	0.330	-0.780	1.340
2020/01/31 07:17:43.1	89.720	0.310	-0.720	1.320
2020/01/31 07:17:43.2	89.730	0.290	-0.660	1.310
2020/01/31 07:17:43.3	89.740	0.270	-0.580	1.290
2020/01/31 07:17:43.4	89.740	0.250	-0.510	1.280
2020/01/31 07:17:43.5	89.750	0.220	-0.430	1.260
2020/01/31 07:17:43.6	89.750	0.200	-0.360	1.250
2020/01/31 07:17:43.7	89.750	0.170	-0.280	1.230
2020/01/31 07:17:43.8	89.750	0.140	-0.200	1.220
2020/01/31 07:17:43.9	89.740	0.100	-0.120	1.210
2020/01/31 07:17:44.0	89.740	0.070	-0.040	1.190
2020/01/31 07:17:44.1	89.740	0.030	0.040	1.180
2020/01/31 07:17:44.2	89.730	-0.000	0.110	1.160
2020/01/31 07:17:44.3	89.720	-0.040	0.180	1.150
2020/01/31 07:17:44.4	89.720	-0.080	0.250	1.130
2020/01/31 07:17:44.5	89.710	-0.110	0.310	1.120
2020/01/31 07:17:44.6	89.700	-0.150	0.370	1.100
2020/01/31 07:17:44.7	89.690	-0.190	0.420	1.090
2020/01/31 07:17:44.8	89.680	-0.230	0.470	1.070
2020/01/31 07:17:44.9	89.670	-0.260	0.510	1.060
2020/01/31 07:17:45.0	89.660	-0.290	0.540	1.040
2020/01/31 07:17:45.1	89.650	-0.330	0.570	1.030
2020/01/31 07:17:45.2	89.640	-0.360	0.590	1.020
2020/01/31 07:17:45.3	89.630	-0.390	0.610	1.000
2020/01/31 07:17:45.4	89.620	-0.410	0.620	0.990
2020/01/31 07:17:45.5	89.610	-0.440	0.610	0.980
2020/01/31 07:17:45.6	89.600	-0.460	0.610	0.970
2020/01/31 07:17:45.7	89.590	-0.480	0.590	0.960
2020/01/31 07:17:45.8	89.580	-0.490	0.570	0.950
2020/01/31 07:17:45.9	89.570	-0.500	0.540	0.940
2020/01/31 07:17:46.0	89.560	-0.510	0.500	0.930
2020/01/31 07:17:46.1	89.550	-0.510	0.460	0.920
2020/01/31 07:17:46.2	89.550	-0.520	0.410	0.910
2020/01/31 07:17:46.3	89.540	-0.510	0.360	0.890
2020/01/31 07:17:46.4	89.540	-0.510	0.300	0.880
2020/01/31 07:17:46.5	89.540	-0.500	0.240	0.870
2020/01/31 07:17:46.6	89.540	-0.490	0.170	0.850
2020/01/31 07:17:46.7	89.540	-0.470	0.100	0.840
2020/01/31 07:17:46.8	89.550	-0.460	0.030	0.820
2020/01/31 07:17:46.9	89.560	-0.440	-0.040	0.810
2020/01/31 07:17:47.0	89.570	-0.410	-0.120	0.790
2020/01/31 07:17:47.1	89.570	-0.390	-0.190	0.780
2020/01/31 07:17:47.2	89.590	-0.370	-0.260	0.760
2020/01/31 07:17:47.3	89.590	-0.340	-0.340	0.740
2020/01/31 07:17:47.4	89.600	-0.310	-0.410	0.720
2020/01/31 07:17:47.5	89.610	-0.280	-0.470	0.710
2020/01/31 07:17:47.6	89.620	-0.250	-0.530	0.690
2020/01/31 07:17:47.7	89.630	-0.220	-0.590	0.680
2020/01/31 07:17:47.8	89.650	-0.200	-0.640	0.670
2020/01/31 07:17:47.9	89.660	-0.170	-0.690	0.660
2020/01/31 07:17:48.0	89.670	-0.140	-0.730	0.650
2020/01/31 07:17:48.1	89.670	-0.120	-0.760	0.640
2020/01/31 07:17:48.2	89.680	-0.090	-0.780	0.630
2020/01/31 07:17:48.3	89.690	-0.070	-0.800	0.630
2020/01/31 07:17:48.4	89.700	-0.050	-0.810	0.630
2020/01/31 07:17:48.5	89.700	-0.030	-0.810	0.630
2020/01/31 07:17:48.6	89.700	-0.010	-0.810	0.640
2020/01/31 07:17:48.7	89.700	-0.000	-0.790	0.640
2020/01/31 07:17:48.8	89.690	0.010	-0.770	0.650
2020/01/31 07:17:48.9	89.690	0.020	-0.740	0.660
2020/01/31 07:17:49.0	89.680	0.020	-0.710	0.670
2020/01/31 07:17:49.1	89.670	0.030	-0.660	0.680
2020/01/31 07:17:49.2	89.660	0.030	-0.620	0.690
2020/01/31 07:17:49.3	89.640	0.030	-0.560	0.710
2020/01/31 07:17:49.4	89.620	0.020	-0.500	0.730
2020/01/31 07:17:49.5	89.600	0.020	-0.440	0.740
2020/01/31 07:17:49.6	89.590	0.010	-0.370	0.760
2020/01/31 07:17:49.7	89.560	0.000	-0.310	0.780
2020/01/31 07:17:49.8	89.540	-0.010	-0.230	0.790
2020/01/31 07:17:49.9	89.520	-0.020	-0.160	0.810
2020/01/31 07:17:50.0	89.500	-0.030	-0.090	0.830
2020/01/31 07:17:50.1	89.480	-0.050	-0.020	0.840
2020/01/31 07:17:50.2	89.450	-0.060	0.050	0.850
2020/01/31 07:17:50.3	89.430	-0.080	0.120	0.860
2020/01/31 07:17:50.4	89.410	-0.090	0.190	0.870
2020/01/31 07:17:50.5	89.380	-0.100	0.250	0.880
2020/01/31 07:17:50.6	89.360	-0.110	0.300	0.890
2020/01/31 07:17:50.7	89.350	-0.130	0.350	0.890
2020/01/31 07:17:50.8	89.330	-0.130	0.400	0.890
2020/01/31 07:17:50.9	89.310	-0.140	0.440	0.890
2020/01/31 07:17:51.0	89.290	-0.150	0.470	0.890
2020/01/31 07:17:51.1	89.280	-0.150	0.500	0.880
2020/01/31 07:17:51.2	89.270	-0.160	0.520	0.870
2020/01/31 07:17:51.3	89.250	-0.160	0.530	0.860
2020/01/31 07:17:51.4	89.240	-0.150	0.530	0.850
2020/01/31 07:17:51.5	89.230	-0.150	0.530	0.840
2020/01/31 07:17:51.6	89.220	-0.140	0.520	0.820
2020/01/31 07:17:51.7	89.210	-0.130	0.500	0.810
2020/01/31 07:17:51.8	89.210	-0.120	0.480	0.790
2020/01/31 07:17:51.9	89.210	-0.100	0.450	0.770
2020/01/31 07:17:52.0	89.210	-0.080	0.410	0.750
2020/01/31 07:17:52.1	89.210	-0.060	0.360	0.730
2020/01/31 07:17:52.2	89.210	-0.030	0.310	0.710
2020/01/31 07:17:52.3	89.210	-0.010	0.250	0.690
2020/01/31 07:17:52.4	89.220	0.030	0.190	0.670
2020/01/31 07:17:52.5	89.230	0.060	0.120	0.650
2020/01/31 07:17:52.6	89.240	0.090	0.050	0.630
2020/01/31 07:17:52.7	89.250	0.130	-0.030	0.620
2020/01/31 07:17:52.8	89.260	0.170	-0.110	0.600
2020/01/31 07:17:52.9	89.280	0.210	-0.190	0.580
2020/01/31 07:17:53.0	89.290	0.250	-0.270	0.570
2020/01/31 07:17:53.1	89.310	0.290	-0.350	0.550
2020/01/31 07:17:53.2	89.330	0.340	-0.440	0.540
2020/01/31 07:17:53.3	89.350	0.380	-0.520	0.530
2020/01/31 07:17:53.4	89.380	0.420	-0.610	0.520
2020/01/31 07:17:53.5	89.400	0.470	-0.690	0.510
2020/01/31 07:17:53.6	89.430	0.510	-0.770	0.500
2020/01/31 07:17:53.7	89.450	0.550	-0.840	0.490
2020/01/31 07:17:53.8	89.480	0.590	-0.910	0.490
2020/01/31 07:17:53.9	89.510	0.630	-0.980	0.490
2020/01/31 07:17:54.0	89.530	0.670	-1.040	0.490
2020/01/31 07:17:54.1	89.560	0.710	-1.100	0.490
2020/01/31 07:17:54.2	89.590	0.740	-1.140	0.490
2020/01/31 07:17:54.3	89.630	0.770	-1.190	0.500
2020/01/31 07:17:54.4	89.650	0.790	-1.220	0.500
2020/01/31 07:17:54.5	89.680	0.820	-1.250	0.510
2020/01/31 07:17:54.6	89.710	0.830	-1.260	0.520
2020/01/31 07:17:54.7	89.740	0.850	-1.270	0.540
2020/01/31 07:17:54.8	89.760	0.860	-1.270	0.550
2020/01/31 07:17:54.9	89.790	0.860	-1.260	0.570
2020/01/31 07:17:55.0	89.810	0.860	-1.240	0.590
2020/01/31 07:17:55.1	89.830	0.860	-1.210	0.620
2020/01/31 07:17:55.2	89.850	0.850	-1.170	0.640
2020/01/31 07:17:55.3	89.870	0.830	-1.130	0.680
2020/01/31 07:17:55.4	89.880	0.810	-1.070	0.710
2020/01/31 07:17:55.5	89.890	0.790	-1.010	0.740
2020/01/31 07:17:55.6	89.900	0.760	-0.930	0.780
2020/01/31 07:17:55.7	89.900	0.720	-0.850	0.820
2020/01/31 07:17:55.8	89.910	0.680	-0.760	0.860
2020/01/31 07:17:55.9	89.900	0.640	-0.670	0.910
2020/01/31 07:17:56.0	89.900	0.590	-0.560	0.950
2020/01/31 07:17:56.1	89.890	0.540	-0.450	1.000
2020/01/31 07:17:56.2	89.880	0.480	-0.340	1.050
2020/01/31 07:17:56.3	89.870	0.420	-0.220	1.110
2020/01/31 07:17:56.4	89.850	0.350	-0.100	1.160
2020/01/31 07:17:56.5	89.840	0.290	0.030	1.220
2020/01/31 07:17:56.6	89.810	0.220	0.150	1.270
2020/01/31 07:17:56.7	89.790	0.150	0.280	1.330
2020/01/31 07:17:56.8	89.760	0.070	0.410	1.390
2020/01/31 07:17:56.9	89.740	-0.000	0.530	1.460
2020/01/31 07:17:57.0	89.700	-0.070	0.660	1.520
2020/01/31 07:17:57.1	89.670	-0.150	0.780	1.580
2020/01/31 07:17:57.2	89.640	-0.220	0.900	1.640
2020/01/31 07:17:57.3	89.600	-0.300	1.010	1.700
2020/01/31 07:17:57.4	89.560	-0.370	1.120	1.760
2020/01/31 07:17:57.5	89.520	-0.440	1.220	1.820
2020/01/31 07:17:57.6	89.480	-0.500	1.310	1.880
2020/01/31 07:17:57.7	89.450	-0.570	1.400	1.940
2020/01/31 07:17:57.8	89.410	-0.630	1.470	1.990
2020/01/31 07:17:57.9	89.370	-0.690	1.540	2.050
2020/01/31 07:17:58.0	89.330	-0.740	1.590	2.090
2020/01/31 07:17:58.1	89.300	-0.790	1.640	2.140
2020/01/31 07:17:58.2	89.260	-0.840	1.670	2.180
2020/01/31 07:17:58.3	89.230	-0.880	1.700	2.220
2020/01/31 07:17:58.4	89.200	-0.910	1.710	2.250
2020/01/31 07:17:58.5	89.170	-0.940	1.700	2.280
2020/01/31 07:17:58.6	89.150	-0.970	1.690	2.310
2020/01/31 07:17:58.7	89.120	-0.990	1.660	2.330
2020/01/31 07:17:58.8	89.100	-1.000	1.620	2.340
2020/01/31 07:17:58.9	89.080	-1.010	1.560	2.360
2020/01/31 07:17:59.0	89.060	-1.010	1.490	2.360
2020/01/31 07:17:59.1	89.050	-1.000	1.410	2.360
2020/01/31 07:17:59.2	89.040	-0.990	1.320	2.360
2020/01/31 07:17:59.3	89.030	-0.980	1.220	2.350
2020/01/31 07:17:59.4	89.020	-0.960	1.100	2.330
2020/01/31 07:17:59.5	89.020	-0.930	0.980	2.320
2020/01/31 07:17:59.6	89.010	-0.900	0.850	2.290
2020/01/31 07:17:59.7	89.020	-0.870	0.710	2.260
2020/01/31 07:17:59.8	89.020	-0.830	0.560	2.230
2020/01/31 07:17:59.9	89.030	-0.780	0.410	2.190
2020/01/31 07:18:00.0	89.040	-0.740	0.250	2.140
2020/01/31 07:18:00.1	89.050	-0.690	0.090	2.100
2020/01/31 07:18:00.2	89.070	-0.630	-0.070	2.040
2020/01/31 07:18:00.3	89.090	-0.580	-0.240	1.980
2020/01/31 07:18:00.4	89.110	-0.520	-0.410	1.920
2020/01/31 07:18:00.5	89.130	-0.460	-0.570	1.850
2020/01/31 07:18:00.6	89.150	-0.400	-0.740	1.780
2020/01/31 07:18:00.7	89.170	-0.340	-0.900	1.710
2020/01/31 07:18:00.8	89.200	-0.280	-1.050	1.640
2020/01/31 07:18:00.9	89.220	-0.220	-1.200	1.560
2020/01/31 07:18:01.0	89.250	-0.160	-1.350	1.480
2020/01/31 07:18:01.1	89.270	-0.100	-1.480	1.410
2020/01/31 07:18:01.2	89.290	-0.050	-1.610	1.330
2020/01/31 07:18:01.3	89.320	0.010	-1.730	1.240
2020/01/31 07:18:01.4	89.340	0.070	-1.830	1.170
2020/01/31 07:18:01.5	89.360	0.120	-1.920	1.090
2020/01/31 07:18:01.6	89.380	0.170	-2.000	1.020
2020/01/31 07:18:01.7	89.390	0.210	-2.070	0.950
2020/01/31 07:18:01.8	89.410	0.260	-2.120	0.890
2020/01/31 07:18:01.9	89.420	0.300	-2.150	0.830
2020/01/31 07:18:02.0	89.430	0.340	-2.170	0.770
2020/01/31 07:18:02.1	89.430	0.370	-2.180	0.720
2020/01/31 07:18:02.2	89.440	0.410	-2.180	0.680
2020/01/31 07:18:02.3	89.440	0.430	-2.150	0.640
2020/01/31 07:18:02.4	89.440	0.460	-2.110	0.610
2020/01/31 07:18:02.5	89.440	0.480	-2.070	0.580
2020/01/31 07:18:02.6	89.430	0.500	-2.000	0.560
2020/01/31 07:18:02.7	89.420	0.520	-1.930	0.540
2020/01/31 07:18:02.8	89.410	0.530	-1.850	0.530
2020/01/31 07:18:02.9	89.400	0.540	-1.760	0.530
2020/01/31 07:18:03.0	89.380	0.540	-1.660	0.520
2020/01/31 07:18:03.1	89.370	0.550	-1.550	0.530
2020/01/31 07:18:03.2	89.350	0.550	-1.440	0.530
2020/01/31 07:18:03.3	89.330	0.550	-1.320	0.540
2020/01/31 07:18:03.4	89.310	0.540	-1.190	0.560
2020/01/31 07:18:03.5	89.290	0.540	-1.070	0.580
2020/01/31 07:18:03.6	89.270	0.530	-0.950	0.590
2020/01/31 07:18:03.7	89.250	0.520	-0.820	0.620
2020/01/31 07:18:03.8	89.230	0.510	-0.700	0.640
2020/01/31 07:18:03.9	89.220	0.500	-0.570	0.660
2020/01/31 07:18:04.0	89.200	0.490	-0.450	0.680
2020/01/31 07:18:04.1	89.180	0.470	-0.340	0.700
2020/01/31 07:18:04.2	89.170	0.460	-0.230	0.730
2020/01/31 07:18:04.3	89.160	0.440	-0.120	0.750
2020/01/31 07:18:04.4	89.150	0.430	-0.020	0.770
2020/01/31 07:18:04.5	89.140	0.410	0.080	0.790
2020/01/31 07:18:04.6	89.140	0.390	0.170	0.810
2020/01/31 07:18:04.7	89.130	0.380	0.250	0.820
2020/01/31 07:18:04.8	89.130	0.360	0.330	0.840
2020/01/31 07:18:04.9	89.130	0.340	0.400	0.850
2020/01/31 07:18:05.0	89.130	0.320	0.470	0.860
2020/01/31 07:18:05.1	89.130	0.300	0.530	0.880
2020/01/31 07:18:05.2	89.130	0.280	0.580	0.890
2020/01/31 07:18:05.3	89.140	0.260	0.630	0.900
2020/01/31 07:18:05.4	89.140	0.230	0.670	0.910
2020/01/31 07:18:05.5	89.140	0.210	0.710	0.910
2020/01/31 07:18:05.6	89.150	0.190	0.750	0.920
2020/01/31 07:18:05.7	89.150	0.170	0.780	0.930
2020/01/31 07:18:05.8	89.160	0.140	0.810	0.930
2020/01/31 07:18:05.9	89.160	0.120	0.840	0.940
2020/01/31 07:18:06.0	89.160	0.090	0.870	0.940
2020/01/31 07:18:06.1	89.170	0.060	0.890	0.950
2020/01/31 07:18:06.2	89.170	0.030	0.910	0.950
2020/01/31 07:18:06.3	89.170	0.000	0.930	0.950
2020/01/31 07:18:06.4	89.170	-0.020	0.950	0.950
2020/01/31 07:18:06.5	89.180	-0.060	0.960	0.950
2020/01/31 07:18:06.6	89.180	-0.090	0.980	0.940
2020/01/31 07:18:06.7	89.180	-0.120	0.990	0.940
2020/01/31 07:18:06.8	89.180	-0.150	1.000	0.930
2020/01/31 07:18:06.9	89.180	-0.180	1.010	0.920
2020/01/31 07:18:07.0	89.170	-0.220	1.020	0.920
2020/01/31 07:18:07.1	89.170	-0.250	1.020	0.900
2020/01/31 07:18:07.2	89.170	-0.280	1.020	0.890
2020/01/31 07:18:07.3	89.170	-0.310	1.020	0.880
2020/01/31 07:18:07.4	89.160	-0.340	1.010	0.860
2020/01/31 07:18:07.5	89.160	-0.370	1.010	0.850
2020/01/31 07:18:07.6	89.150	-0.400	1.000	0.830
2020/01/31 07:18:07.7	89.150	-0.430	0.980	0.810
2020/01/31 07:18:07.8	89.140	-0.450	0.970	0.790
2020/01/31 07:18:07.9	89.130	-0.470	0.940	0.770
2020/01/31 07:18:08.0	89.120	-0.490	0.920	0.750
2020/01/31 07:18:08.1	89.120	-0.510	0.880	0.740
2020/01/31 07:18:08.2	89.100	-0.530	0.850	0.720
2020/01/31 07:18:08.3	89.100	-0.540	0.800	0.700
2020/01/31 07:18:08.4	89.090	-0.550	0.750	0.680
2020/01/31 07:18:08.5	89.070	-0.550	0.700	0.660
2020/01/31 07:18:08.6	89.060	-0.550	0.630	0.650
2020/01/31 07:18:08.7	89.040	-0.550	0.570	0.630
2020/01/31 07:18:08.8	89.030	-0.540	0.490	0.620
2020/01/31 07:18:08.9	89.010	-0.530	0.410	0.610
2020/01/31 07:18:09.0	89.000	-0.510	0.320	0.600
2020/01/31 07:18:09.1	88.980	-0.490	0.230	0.590
2020/01/31 07:18:09.2	88.960	-0.470	0.130	0.580
2020/01/31 07:18:09.3	88.940	-0.440	0.020	0.570
2020/01/31 07:18:09.4	88.930	-0.410	-0.090	0.570
2020/01/31 07:18:09.5	88.910	-0.370	-0.200	0.560
2020/01/31 07:18:09.6	88.900	-0.330	-0.310	0.560
2020/01/31 07:18:09.7	88.880	-0.290	-0.430	0.550
2020/01/31 07:18:09.8	88.870	-0.240	-0.540	0.550
2020/01/31 07:18:09.9	88.860	-0.200	-0.660	0.550
2020/01/31 07:18:10.0	88.850	-0.150	-0.780	0.550
2020/01/31 07:18:10.1	88.840	-0.090	-0.890	0.540
2020/01/31 07:18:10.2	88.830	-0.040	-1.010	0.540
2020/01/31 07:18:10.3	88.830	0.020	-1.120	0.540
2020/01/31 07:18:10.4	88.820	0.070	-1.220	0.540
2020/01/31 07:18:10.5	88.820	0.130	-1.320	0.540
2020/01/31 07:18:10.6	88.820	0.190	-1.420	0.540
2020/01/31 07:18:10.7	88.820	0.240	-1.500	0.540
2020/01/31 07:18:10.8	88.830	0.300	-1.580	0.540
2020/01/31 07:18:10.9	88.830	0.350	-1.650	0.540
2020/01/31 07:18:11.0	88.840	0.400	-1.710	0.550
2020/01/31 07:18:11.1	88.840	0.450	-1.760	0.550
2020/01/31 07:18:11.2	88.850	0.500	-1.800	0.560
2020/01/31 07:18:11.3	88.860	0.540	-1.830	0.560
2020/01/31 07:18:11.4	88.870	0.580	-1.850	0.570
2020/01/31 07:18:11.5	88.890	0.620	-1.860	0.580
2020/01/31 07:18:11.6	88.900	0.650	-1.850	0.580
2020/01/31 07:18:11.7	88.910	0.670	-1.830	0.590
2020/01/31 07:18:11.8	88.930	0.690	-1.800	0.600
2020/01/31 07:18:11.9	88.940	0.710	-1.760	0.610
2020/01/31 07:18:12.0	88.960	0.720	-1.700	0.630
2020/01/31 07:18:12.1	88.980	0.730	-1.640	0.640
2020/01/31 07:18:12.2	88.990	0.730	-1.570	0.650
2020/01/31 07:18:12.3	89.020	0.730	-1.480	0.660
2020/01/31 07:18:12.4	89.030	0.720	-1.390	0.680
2020/01/31 07:18:12.5	89.050	0.710	-1.280	0.690
2020/01/31 07:18:12.6	89.070	0.690	-1.170	0.700
2020/01/31 07:18:12.7	89.090	0.670	-1.060	0.720
2020/01/31 07:18:12.8	89.110	0.640	-0.940	0.730
2020/01/31 07:18:12.9	89.130	0.610	-0.810	0.750
2020/01/31 07:18:13.0	89.150	0.580	-0.680	0.770
2020/01/31 07:18:13.1	89.170	0.540	-0.540	0.780
2020/01/31 07:18:13.2	89.190	0.500	-0.410	0.800
2020/01/31 07:18:13.3	89.200	0.450	-0.270	0.820
2020/01/31 07:18:13.4	89.220	0.410	-0.130	0.830
2020/01/31 07:18:13.5	89.240	0.360	0.010	0.850
2020/01/31 07:18:13.6	89.250	0.310	0.140	0.870
2020/01/31 07:18:13.7	89.260	0.260	0.270	0.890
2020/01/31 07:18:13.8	89.280	0.210	0.400	0.920
2020/01/31 07:18:13.9	89.290	0.150	0.530	0.940
2020/01/31 07:18:14.0	89.290	0.100	0.650	0.960
2020/01/31 07:18:14.1	89.300	0.050	0.760	0.990
2020/01/31 07:18:14.2	89.300	-0.010	0.870	1.010
2020/01/31 07:18:14.3	89.300	-0.060	0.970	1.040
2020/01/31 07:18:14.4	89.300	-0.110	1.070	1.070
2020/01/31 07:18:14.5	89.300	-0.160	1.150	1.100
2020/01/31 07:18:14.6	89.290	-0.210	1.230	1.130
2020/01/31 07:18:14.7	89.280	-0.260	1.300	1.160
2020/01/31 07:18:14.8	89.270	-0.300	1.360	1.190
2020/01/31 07:18:14.9	89.260	-0.340	1.410	1.220
2020/01/31 07:18:15.0	89.240	-0.380	1.450	1.250
2020/01/31 07:18:15.1	89.230	-0.420	1.480	1.290
2020/01/31 07:18:15.2	89.210	-0.460	1.490	1.320
2020/01/31 07:18:15.3	89.190	-0.490	1.500	1.360
2020/01/31 07:18:15.4	89.170	-0.520	1.500	1.390
2020/01/31 07:18:15.5	89.150	-0.540	1.490	1.420
2020/01/31 07:18:15.6	89.130	-0.560	1.470	1.460
2020/01/31 07:18:15.7	89.110	-0.580	1.440	1.490
2020/01/31 07:18:15.8	89.080	-0.600	1.400	1.520
2020/01/31 07:18:15.9	89.060	-0.610	1.350	1.550
2020/01/31 07:18:16.0	89.030	-0.620	1.290	1.580
2020/01/31 07:18:16.1	89.010	-0.620	1.220	1.600
2020/01/31 07:18:16.2	88.990	-0.620	1.140	1.630
2020/01/31 07:18:16.3	88.970	-0.620	1.050	1.650
2020/01/31 07:18:16.4	88.950	-0.610	0.960	1.670
2020/01/31 07:18:16.5	88.940	-0.600	0.860	1.680
2020/01/31 07:18:16.6	88.920	-0.590	0.750	1.700
2020/01/31 07:18:16.7	88.910	-0.570	0.640	1.710
2020/01/31 07:18:16.8	88.890	-0.550	0.530	1.720
2020/01/31 07:18:16.9	88.880	-0.530	0.410	1.730
2020/01/31 07:18:17.0	88.870	-0.500	0.280	1.730
2020/01/31 07:18:17.1	88.870	-0.470	0.160	1.730
2020/01/31 07:18:17.2	88.860	-0.440	0.030	1.730
2020/01/31 07:18:17.3	88.860	-0.410	-0.100	1.720
2020/01/31 07:18:17.4	88.860	-0.380	-0.230	1.710
2020/01/31 07:18:17.5	88.860	-0.340	-0.350	1.700
2020/01/31 07:18:17.6	88.870	-0.300	-0.480	1.690
2020/01/31 07:18:17.7	88.880	-0.270	-0.600	1.670
2020/01/31 07:18:17.8	88.880	-0.230	-0.720	1.650
2020/01/31 07:18:17.9	88.900	-0.190	-0.830	1.620
2020/01/31 07:18:18.0	88.910	-0.150	-0.940	1.600
2020/01/31 07:18:18.1	88.920	-0.110	-1.040	1.570
2020/01/31 07:18:18.2	88.940	-0.070	-1.140	1.540
2020/01/31 07:18:18.3	88.960	-0.030	-1.230	1.500
2020/01/31 07:18:18.4	88.970	0.010	-1.310	1.470
2020/01/31 07:18:18.5	88.990	0.050	-1.390	1.430
2020/01/31 07:18:18.6	89.010	0.090	-1.450	1.390
2020/01/31 07:18:18.7	89.030	0.120	-1.510	1.350
2020/01/31 07:18:18.8	89.050	0.160	-1.550	1.310
2020/01/31 07:18:18.9	89.070	0.190	-1.590	1.270
2020/01/31 07:18:19.0	89.090	0.220	-1.620	1.220
2020/01/31 07:18:19.1	89.110	0.250	-1.640	1.180
2020/01/31 07:18:19.2	89.130	0.270	-1.640	1.140
2020/01/31 07:18:19.3	89.150	0.290	-1.640	1.090
2020/01/31 07:18:19.4	89.170	0.310	-1.630	1.050
2020/01/31 07:18:19.5	89.190	0.330	-1.600	1.010
2020/01/31 07:18:19.6	89.210	0.350	-1.570	0.970
2020/01/31 07:18:19.7	89.230	0.360	-1.530	0.930
2020/01/31 07:18:19.8	89.240	0.370	-1.480	0.890
2020/01/31 07:18:19.9	89.260	0.370	-1.420	0.850
2020/01/31 07:18:20.0	89.270	0.380	-1.360	0.820
2020/01/31 07:18:20.1	89.280	0.380	-1.280	0.790
2020/01/31 07:18:20.2	89.290	0.370	-1.200	0.770
2020/01/31 07:18:20.3	89.300	0.370	-1.110	0.740
2020/01/31 07:18:20.4	89.300	0.360	-1.020	0.720
2020/01/31 07:18:20.5	89.300	0.350	-0.930	0.700
2020/01/31 07:18:20.6	89.310	0.340	-0.830	0.690
2020/01/31 07:18:20.7	89.300	0.320	-0.720	0.680
2020/01/31 07:18:20.8	89.300	0.300	-0.620	0.670
2020/01/31 07:18:20.9	89.300	0.280	-0.510	0.670
2020/01/31 07:18:21.0	89.290	0.260	-0.410	0.660
2020/01/31 07:18:21.1	89.280	0.230	-0.300	0.660
2020/01/31 07:18:21.2	89.270	0.210	-0.190	0.670
2020/01/31 07:18:21.3	89.250	0.180	-0.090	0.670
2020/01/31 07:18:21.4	89.240	0.150	0.020	0.680
2020/01/31 07:18:21.5	89.220	0.130	0.110	0.680
2020/01/31 07:18:21.6	89.210	0.100	0.210	0.690
2020/01/31 07:18:21.7	89.190	0.070	0.300	0.700
2020/01/31 07:18:21.8	89.170	0.040	0.390	0.710
2020/01/31 07:18:21.9	89.150	0.010	0.470	0.720
2020/01/31 07:18:22.0	89.130	-0.020	0.550	0.730
2020/01/31 07:18:22.1	89.100	-0.050	0.620	0.740
2020/01/31 07:18:22.2	89.080	-0.070	0.680	0.750
2020/01/31 07:18:22.3	89.060	-0.100	0.740	0.760
2020/01/31 07:18:22.4	89.040	-0.130	0.790	0.770
2020/01/31 07:18:22.5	89.010	-0.150	0.830	0.770
2020/01/31 07:18:22.6	88.990	-0.170	0.860	0.770
2020/01/31 07:18:22.7	88.970	-0.190	0.890	0.770
2020/01/31 07:18:22.8	88.950	-0.210	0.910	0.770
2020/01/31 07:18:22.9	88.930	-0.220	0.920	0.770
2020/01/31 07:18:23.0	88.920	-0.240	0.930	0.760
2020/01/31 07:18:23.1	88.900	-0.250	0.920	0.750
2020/01/31 07:18:23.2	88.890	-0.260	0.920	0.730
2020/01/31 07:18:23.3	88.860	-0.260	0.890	0.720
2020/01/31 07:18:23.4	88.850	-0.260	0.870	0.700
2020/01/31 07:18:23.5	88.840	-0.260	0.840	0.680
2020/01/31 07:18:23.6	88.830	-0.260	0.800	0.660
2020/01/31 07:18:23.7	88.830	-0.260	0.760	0.630
2020/01/31 07:18:23.8	88.820	-0.250	0.720	0.610
2020/01/31 07:18:23.9	88.820	-0.240	0.670	0.580
2020/01/31 07:18:24.0	88.820	-0.230	0.610	0.560
2020/01/31 07:18:24.1	88.810	-0.210	0.550	0.530
2020/01/31 07:18:24.2	88.810	-0.190	0.490	0.500
2020/01/31 07:18:24.3	88.820	-0.180	0.420	0.470
2020/01/31 07:18:24.4	88.820	-0.150	0.360	0.440
2020/01/31 07:18:24.5	88.820	-0.130	0.290	0.420
2020/01/31 07:18:24.6	88.830	-0.110	0.220	0.390
2020/01/31 07:18:24.7	88.830	-0.080	0.150	0.360
2020/01/31 07:18:24.8	88.840	-0.050	0.080	0.340
2020/01/31 07:18:24.9	88.850	-0.020	0.000	0.320
2020/01/31 07:18:25.0	88.850	0.010	-0.070	0.290
2020/01/31 07:18:25.1	88.860	0.040	-0.130	0.270
2020/01/31 07:18:25.2	88.880	0.070	-0.200	0.250
2020/01/31 07:18:25.3	88.890	0.100	-0.270	0.240
2020/01/31 07:18:25.4	88.910	0.130	-0.330	0.220
2020/01/31 07:18:25.5	88.920	0.160	-0.390	0.210
2020/01/31 07:18:25.6	88.930	0.190	-0.450	0.200
2020/01/31 07:18:25.7	88.950	0.220	-0.500	0.190
2020/01/31 07:18:25.8	88.970	0.240	-0.550	0.180
2020/01/31 07:18:25.9	88.980	0.270	-0.600	0.180
2020/01/31 07:18:26.0	89.000	0.290	-0.640	0.180
2020/01/31 07:18:26.1	89.010	0.320	-0.670	0.180
2020/01/31 07:18:26.2	89.030	0.340	-0.710	0.180
2020/01/31 07:18:26.3	89.050	0.360	-0.730	0.190
2020/01/31 07:18:26.4	89.060	0.370	-0.750	0.200
2020/01/31 07:18:26.5	89.080	0.390	-0.770	0.210
2020/01/31 07:18:26.6	89.090	0.400	-0.780	0.230
2020/01/31 07:18:26.7	89.100	0.410	-0.790	0.250
2020/01/31 07:18:26.8	89.110	0.420	-0.790	0.270
2020/01/31 07:18:26.9	89.120	0.430	-0.790	0.300
2020/01/31 07:18:27.0	89.130	0.430	-0.780	0.330
2020/01/31 07:18:27.1	89.140	0.430	-0.770	0.360
2020/01/31 07:18:27.2	89.150	0.430	-0.750	0.390
2020/01/31 07:18:27.3	89.150	0.420	-0.730	0.430
2020/01/31 07:18:27.4	89.150	0.420	-0.710	0.460
2020/01/31 07:18:27.5	89.160	0.410	-0.680	0.500
2020/01/31 07:18:27.6	89.160	0.400	-0.660	0.540
2020/01/31 07:18:27.7	89.160	0.390	-0.620	0.580
2020/01/31 07:18:27.8	89.170	0.380	-0.590	0.630
2020/01/31 07:18:27.9	89.170	0.360	-0.560	0.670
2020/01/31 07:18:28.0	89.170	0.350	-0.520	0.720
2020/01/31 07:18:28.1	89.170	0.330	-0.480	0.770
2020/01/31 07:18:28.2	89.160	0.310	-0.450	0.810
2020/01/31 07:18:28.3	89.160	0.290	-0.400	0.860
2020/01/31 07:18:28.4	89.160	0.270	-0.370	0.910
2020/01/31 07:18:28.5	89.150	0.250	-0.330	0.950
2020/01/31 07:18:28.6	89.150	0.230	-0.300	1.000
2020/01/31 07:18:28.7	89.150	0.210	-0.270	1.050
2020/01/31 07:18:28.8	89.140	0.190	-0.240	1.090
2020/01/31 07:18:28.9	89.140	0.170	-0.210	1.140
2020/01/31 07:18:29.0	89.130	0.150	-0.180	1.180
2020/01/31 07:18:29.1	89.130	0.130	-0.160	1.230
2020/01/31 07:18:29.2	89.120	0.110	-0.130	1.270
2020/01/31 07:18:29.3	89.120	0.090	-0.120	1.310
2020/01/31 07:18:29.4	89.110	0.070	-0.100	1.350
2020/01/31 07:18:29.5	89.100	0.050	-0.080	1.390
2020/01/31 07:18:29.6	89.090	0.030	-0.070	1.430
2020/01/31 07:18:29.7	89.090	0.020	-0.050	1.470
2020/01/31 07:18:29.8	89.080	-0.000	-0.040	1.510
2020/01/31 07:18:29.9	89.070	-0.020	-0.030	1.550
2020/01/31 07:18:30.0	89.060	-0.040	-0.020	1.580
2020/01/31 07:18:30.1	89.060	-0.060	-0.010	1.620
2020/01/31 07:18:30.2	89.050	-0.070	-0.000	1.660
2020/01/31 07:18:30.3	89.040	-0.090	0.010	1.690
2020/01/31 07:18:30.4	89.030	-0.110	0.010	1.720
2020/01/31 07:18:30.5	89.020	-0.120	0.020	1.750
2020/01/31 07:18:30.6	89.020	-0.140	0.020	1.780
2020/01/31 07:18:30.7	89.010	-0.160	0.030	1.810
2020/01/31 07:18:30.8	89.000	-0.170	0.040	1.830
2020/01/31 07:18:30.9	89.000	-0.190	0.040	1.850
2020/01/31 07:18:31.0	88.990	-0.200	0.050	1.870
2020/01/31 07:18:31.1	88.990	-0.220	0.060	1.890
2020/01/31 07:18:31.2	88.980	-0.240	0.060	1.900
2020/01/31 07:18:31.3	88.980	-0.250	0.070	1.910
2020/01/31 07:18:31.4	88.980	-0.270	0.080	1.920
2020/01/31 07:18:31.5	88.980	-0.280	0.090	1.930
2020/01/31 07:18:31.6	88.980	-0.290	0.100	1.930
2020/01/31 07:18:31.7	88.980	-0.310	0.110	1.930
2020/01/31 07:18:31.8	88.980	-0.320	0.120	1.930
2020/01/31 07:18:31.9	88.980	-0.330	0.130	1.930
2020/01/31 07:18:32.0	88.990	-0.340	0.140	1.930
2020/01/31 07:18:32.1	88.990	-0.350	0.160	1.920
2020/01/31 07:18:32.2	88.990	-0.360	0.170	1.910
2020/01/31 07:18:32.3	88.990	-0.370	0.190	1.890
2020/01/31 07:18:32.4	89.000	-0.380	0.200	1.880
2020/01/31 07:18:32.5	89.000	-0.390	0.210	1.870
2020/01/31 07:18:32.6	89.010	-0.400	0.220	1.850
2020/01/31 07:18:32.7	89.020	-0.400	0.230	1.840
2020/01/31 07:18:32.8	89.020	-0.400	0.230	1.820
2020/01/31 07:18:32.9	89.030	-0.410	0.240	1.800
2020/01/31 07:18:33.0	89.030	-0.410	0.240	1.770
2020/01/31 07:18:33.1	89.040	-0.410	0.240	1.750
2020/01/31 07:18:33.2	89.040	-0.410	0.240	1.720
2020/01/31 07:18:33.3	89.050	-0.410	0.230	1.690
2020/01/31 07:18:33.4	89.050	-0.400	0.220	1.660
2020/01/31 07:18:33.5	89.060	-0.400	0.210	1.630
2020/01/31 07:18:33.6	89.060	-0.390	0.190	1.590
2020/01/31 07:18:33.7	89.070	-0.380	0.170	1.550
2020/01/31 07:18:33.8	89.080	-0.370	0.150	1.510
2020/01/31 07:18:33.9	89.080	-0.360	0.120	1.470
2020/01/31 07:18:34.0	89.090	-0.350	0.090	1.420
2020/01/31 07:18:34.1	89.090	-0.330	0.050	1.380
2020/01/31 07:18:34.2	89.100	-0.320	0.010	1.330
2020/01/31 07:18:34.3	89.100	-0.300	-0.030	1.270
2020/01/31 07:18:34.4	89.110	-0.280	-0.070	1.220
2020/01/31 07:18:34.5	89.120	-0.260	-0.120	1.160
2020/01/31 07:18:34.6	89.120	-0.240	-0.170	1.110
2020/01/31 07:18:34.7	89.120	-0.220	-0.210	1.050
2020/01/31 07:18:34.8	89.130	-0.190	-0.260	1.000
2020/01/31 07:18:34.9	89.130	-0.170	-0.310	0.940
2020/01/31 07:18:35.0	89.130	-0.150	-0.360	0.890
2020/01/31 07:18:35.1	89.140	-0.120	-0.410	0.840
2020/01/31 07:18:35.2	89.140	-0.100	-0.450	0.790
2020/01/31 07:18:35.3	89.140	-0.070	-0.500	0.740
2020/01/31 07:18:35.4	89.130	-0.050	-0.540	0.690
2020/01/31 07:18:35.5	89.130	-0.020	-0.580	0.650
2020/01/31 07:18:35.6	89.130	0.000	-0.610	0.600
2020/01/31 07:18:35.7	89.130	0.020	-0.640	0.560
2020/01/31 07:18:35.8	89.120	0.050	-0.670	0.520
2020/01/31 07:18:35.9	89.120	0.070	-0.690	0.490
2020/01/31 07:18:36.0	89.110	0.090	-0.710	0.460
2020/01/31 07:18:36.1	89.100	0.110	-0.720	0.430
2020/01/31 07:18:36.2	89.090	0.130	-0.730	0.400
2020/01/31 07:18:36.3	89.090	0.150	-0.730	0.370
2020/01/31 07:18:36.4	89.080	0.160	-0.730	0.350
2020/01/31 07:18:36.5	89.070	0.180	-0.720	0.330
2020/01/31 07:18:36.6	89.060	0.190	-0.700	0.320
2020/01/31 07:18:36.7	89.050	0.200	-0.680	0.300
2020/01/31 07:18:36.8	89.040	0.210	-0.660	0.290
2020/01/31 07:18:36.9	89.030	0.220	-0.630	0.270
2020/01/31 07:18:37.0	89.020	0.220	-0.600	0.260
2020/01/31 07:18:37.1	89.010	0.230	-0.570	0.250
2020/01/31 07:18:37.2	89.000	0.230	-0.530	0.240
2020/01/31 07:18:37.3	89.000	0.230	-0.490	0.230
2020/01/31 07:18:37.4	88.990	0.230	-0.450	0.220
2020/01/31 07:18:37.5	88.980	0.230	-0.410	0.210
2020/01/31 07:18:37.6	88.980	0.220	-0.360	0.190
2020/01/31 07:18:37.7	88.970	0.220	-0.320	0.180
2020/01/31 07:18:37.8	88.970	0.210	-0.270	0.170
2020/01/31 07:18:37.9	88.960	0.200	-0.230	0.150
2020/01/31 07:18:38.0	88.960	0.190	-0.180	0.130
2020/01/31 07:18:38.1	88.960	0.180	-0.140	0.110
2020/01/31 07:18:38.2	88.960	0.170	-0.100	0.090
2020/01/31 07:18:38.3	88.960	0.160	-0.060	0.070
2020/01/31 07:18:38.4	88.970	0.150	-0.020	0.050
2020/01/31 07:18:38.5	88.970	0.140	0.020	0.020
2020/01/31 07:18:38.6	88.980	0.130	0.060	-0.000
2020/01/31 07:18:38.7	88.990	0.120	0.090	-0.020
2020/01/31 07:18:38.8	88.990	0.110	0.120	-0.050
2020/01/31 07:18:38.9	89.000	0.100	0.140	-0.070
2020/01/31 07:18:39.0	89.010	0.090	0.170	-0.090
2020/01/31 07:18:39.1	89.020	0.080	0.190	-0.110
2020/01/31 07:18:39.2	89.030	0.080	0.210	-0.130
2020/01/31 07:18:39.3	89.040	0.070	0.220	-0.140
2020/01/31 07:18:39.4	89.050	0.070	0.230	-0.160
2020/01/31 07:18:39.5	89.060	0.070	0.240	-0.170
2020/01/31 07:18:39.6	89.070	0.060	0.240	-0.170
2020/01/31 07:18:39.7	89.080	0.070	0.240	-0.180
2020/01/31 07:18:39.8	89.090	0.070	0.240	-0.180
2020/01/31 07:18:39.9	89.100	0.070	0.230	-0.170
2020/01/31 07:18:40.0	89.100	0.080	0.220	-0.160
2020/01/31 07:18:40.1	89.110	0.080	0.210	-0.150
2020/01/31 07:18:40.2	89.110	0.090	0.190	-0.130
2020/01/31 07:18:40.3	89.110	0.100	0.170	-0.110
2020/01/31 07:18:40.4	89.120	0.120	0.140	-0.090
2020/01/31 07:18:40.5	89.120	0.130	0.110	-0.060
2020/01/31 07:18:40.6	89.120	0.140	0.080	-0.030
2020/01/31 07:18:40.7	89.110	0.160	0.050	0.010
2020/01/31 07:18:40.8	89.110	0.170	0.010	0.050
2020/01/31 07:18:40.9	89.110	0.190	-0.030	0.090
2020/01/31 07:18:41.0	89.100	0.200	-0.060	0.140
2020/01/31 07:18:41.1	89.100	0.220	-0.100	0.190
2020/01/31 07:18:41.2	89.090	0.240	-0.150	0.240
2020/01/31 07:18:41.3	89.090	0.250	-0.190	0.290
2020/01/31 07:18:41.4	89.080	0.260	-0.230	0.340
2020/01/31 07:18:41.5	89.080	0.280	-0.270	0.400
2020/01/31 07:18:41.6	89.080	0.290	-0.310	0.450
2020/01/31 07:18:41.7	89.070	0.300	-0.350	0.510
2020/01/31 07:18:41.8	89.070	0.310	-0.390	0.560
2020/01/31 07:18:41.9	89.070	0.310	-0.430	0.620
2020/01/31 07:18:42.0	89.070	0.320	-0.460	0.680
2020/01/31 07:18:42.1	89.070	0.320	-0.480	0.730
2020/01/31 07:18:42.2	89.070	0.320	-0.510	0.790
2020/01/31 07:18:42.3	89.080	0.310	-0.530	0.840
2020/01/31 07:18:42.4	89.080	0.310	-0.540	0.900
2020/01/31 07:18:42.5	89.090	0.300	-0.560	0.950
2020/01/31 07:18:42.6	89.100	0.290	-0.560	1.000
2020/01/31 07:18:42.7	89.110	0.270	-0.570	1.050
2020/01/31 07:18:42.8	89.120	0.250	-0.570	1.100
2020/01/31 07:18:42.9	89.130	0.240	-0.560	1.140
2020/01/31 07:18:43.0	89.140	0.210	-0.550	1.190
2020/01/31 07:18:43.1	89.160	0.190	-0.530	1.240
2020/01/31 07:18:43.2	89.170	0.170	-0.510	1.280
2020/01/31 07:18:43.3	89.180	0.140	-0.490	1.320
2020/01/31 07:18:43.4	89.200	0.110	-0.460	1.360
2020/01/31 07:18:43.5	89.220	0.080	-0.430	1.400
2020/01/31 07:18:43.6	89.240	0.050	-0.400	1.440
2020/01/31 07:18:43.7	89.250	0.020	-0.360	1.470
2020/01/31 07:18:43.8	89.270	-0.010	-0.320	1.510
2020/01/31 07:18:43.9	89.290	-0.040	-0.280	1.540
2020/01/31 07:18:44.0	89.310	-0.070	-0.230	1.570
2020/01/31 07:18:44.1	89.330	-0.100	-0.190	1.600
2020/01/31 07:18:44.2	89.350	-0.130	-0.140	1.630
2020/01/31 07:18:44.3	89.380	-0.160	-0.090	1.660
2020/01/31 07:18:44.4	89.400	-0.190	-0.040	1.690
2020/01/31 07:18:44.5	89.420	-0.220	0.000	1.710
2020/01/31 07:18:44.6	89.430	-0.240	0.050	1.740
2020/01/31 07:18:44.7	89.450	-0.270	0.100	1.760
2020/01/31 07:18:44.8	89.470	-0.290	0.140	1.790
2020/01/31 07:18:44.9	89.480	-0.310	0.190	1.810
2020/01/31 07:18:45.0	89.500	-0.330	0.230	1.840
2020/01/31 07:18:45.1	89.510	-0.350	0.270	1.860
2020/01/31 07:18:45.2	89.520	-0.360	0.300	1.880
2020/01/31 07:18:45.3	89.530	-0.370	0.330	1.910
2020/01/31 07:18:45.4	89.530	-0.380	0.360	1.930
2020/01/31 07:18:45.5	89.540	-0.390	0.380	1.950
2020/01/31 07:18:45.6	89.540	-0.390	0.400	1.970
2020/01/31 07:18:45.7	89.550	-0.390	0.420	2.000
2020/01/31 07:18:45.8	89.550	-0.390	0.430	2.020
2020/01/31 07:18:45.9	89.540	-0.380	0.430	2.040
2020/01/31 07:18:46.0	89.540	-0.380	0.430	2.060
2020/01/31 07:18:46.1	89.540	-0.370	0.420	2.070
2020/01/31 07:18:46.2	89.530	-0.360	0.410	2.090
2020/01/31 07:18:46.3	89.520	-0.340	0.400	2.100
2020/01/31 07:18:46.4	89.520	-0.330	0.380	2.110
2020/01/31 07:18:46.5	89.510	-0.310	0.350	2.120
2020/01/31 07:18:46.6	89.500	-0.290	0.320	2.120
2020/01/31 07:18:46.7	89.490	-0.270	0.290	2.120
2020/01/31 07:18:46.8	89.480	-0.250	0.250	2.120
2020/01/31 07:18:46.9	89.470	-0.230	0.210	2.110
2020/01/31 07:18:47.0	89.460	-0.210	0.170	2.110
2020/01/31 07:18:47.1	89.440	-0.190	0.120	2.090
2020/01/31 07:18:47.2	89.430	-0.160	0.070	2.080
2020/01/31 07:18:47.3	89.420	-0.140	0.020	2.060
2020/01/31 07:18:47.4	89.410	-0.120	-0.030	2.040
2020/01/31 07:18:47.5	89.400	-0.100	-0.080	2.010
2020/01/31 07:18:47.6	89.390	-0.080	-0.130	1.980
2020/01/31 07:18:47.7	89.380	-0.060	-0.180	1.950
2020/01/31 07:18:47.8	89.370	-0.040	-0.220	1.920
2020/01/31 07:18:47.9	89.370	-0.020	-0.270	1.880
2020/01/31 07:18:48.0	89.360	-0.000	-0.310	1.840
2020/01/31 07:18:48.1	89.360	0.010	-0.350	1.800
2020/01/31 07:18:48.2	89.350	0.020	-0.390	1.760
2020/01/31 07:18:48.3	89.340	0.040	-0.430	1.710
2020/01/31 07:18:48.4	89.340	0.050	-0.460	1.660
2020/01/31 07:18:48.5	89.330	0.050	-0.490	1.600
2020/01/31 07:18:48.6	89.330	0.060	-0.510	1.550
2020/01/31 07:18:48.7	89.330	0.060	-0.530	1.490
2020/01/31 07:18:48.8	89.330	0.070	-0.550	1.440
2020/01/31 07:18:48.9	89.340	0.070	-0.570	1.380
2020/01/31 07:18:49.0	89.340	0.070	-0.580	1.320
2020/01/31 07:18:49.1	89.340	0.070	-0.580	1.250
2020/01/31 07:18:49.2	89.350	0.060	-0.590	1.190
2020/01/31 07:18:49.3	89.350	0.060	-0.590	1.120
2020/01/31 07:18:49.4	89.350	0.050	-0.590	1.060
2020/01/31 07:18:49.5	89.360	0.050	-0.580	0.990
2020/01/31 07:18:49.6	89.370	0.040	-0.570	0.930
2020/01/31 07:18:49.7	89.380	0.040	-0.560	0.860
2020/01/31 07:18:49.8	89.390	0.030	-0.550	0.800
2020/01/31 07:18:49.9	89.400	0.020	-0.540	0.740
2020/01/31 07:18:50.0	89.410	0.020	-0.530	0.670
2020/01/31 07:18:50.1	89.420	0.010	-0.510	0.610
2020/01/31 07:18:50.2	89.430	0.010	-0.500	0.550
2020/01/31 07:18:50.3	89.450	0.010	-0.480	0.490
2020/01/31 07:18:50.4	89.460	0.000	-0.460	0.430
2020/01/31 07:18:50.5	89.470	0.000	-0.440	0.370
2020/01/31 07:18:50.6	89.480	0.000	-0.420	0.320
2020/01/31 07:18:50.7	89.500	0.010	-0.410	0.270
2020/01/31 07:18:50.8	89.510	0.010	-0.390	0.220
2020/01/31 07:18:50.9	89.520	0.020	-0.380	0.170
2020/01/31 07:18:51.0	89.540	0.020	-0.360	0.120
2020/01/31 07:18:51.1	89.550	0.030	-0.350	0.070
2020/01/31 07:18:51.2	89.570	0.040	-0.330	0.030
2020/01/31 07:18:51.3	89.580	0.050	-0.320	-0.010
2020/01/31 07:18:51.4	89.590	0.070	-0.310	-0.050
2020/01/31 07:18:51.5	89.610	0.080	-0.300	-0.090
2020/01/31 07:18:51.6	89.620	0.100	-0.290	-0.130
2020/01/31 07:18:51.7	89.630	0.110	-0.280	-0.160
2020/01/31 07:18:51.8	89.650	0.130	-0.280	-0.190
2020/01/31 07:18:51.9	89.660	0.150	-0.270	-0.220
2020/01/31 07:18:52.0	89.670	0.170	-0.260	-0.250
2020/01/31 07:18:52.1	89.690	0.180	-0.260	-0.270
2020/01/31 07:18:52.2	89.700	0.200	-0.250	-0.300
2020/01/31 07:18:52.3	89.710	0.220	-0.240	-0.310
2020/01/31 07:18:52.4	89.720	0.230	-0.240	-0.330
2020/01/31 07:18:52.5	89.730	0.250	-0.230	-0.350
2020/01/31 07:18:52.6	89.740	0.260	-0.220	-0.360
2020/01/31 07:18:52.7	89.750	0.270	-0.210	-0.370
2020/01/31 07:18:52.8	89.750	0.280	-0.200	-0.370
2020/01/31 07:18:52.9	89.760	0.290	-0.190	-0.370
2020/01/31 07:18:53.0	89.770	0.300	-0.170	-0.370
2020/01/31 07:18:53.1	89.770	0.300	-0.150	-0.360
2020/01/31 07:18:53.2	89.770	0.300	-0.140	-0.350
2020/01/31 07:18:53.3	89.770	0.290	-0.110	-0.340
2020/01/31 07:18:53.4	89.770	0.290	-0.090	-0.320
2020/01/31 07:18:53.5	89.770	0.280	-0.070	-0.300
2020/01/31 07:18:53.6	89.760	0.270	-0.050	-0.280
2020/01/31 07:18:53.7	89.760	0.250	-0.020	-0.250
2020/01/31 07:18:53.8	89.750	0.230	0.010	-0.220
2020/01/31 07:18:53.9	89.740	0.210	0.030	-0.190
2020/01/31 07:18:54.0	89.740	0.190	0.060	-0.150
2020/01/31 07:18:54.1	89.730	0.160	0.090	-0.110
2020/01/31 07:18:54.2	89.710	0.130	0.120	-0.070
2020/01/31 07:18:54.3	89.690	0.100	0.140	-0.030
2020/01/31 07:18:54.4	89.680	0.070	0.170	0.020
2020/01/31 07:18:54.5	89.670	0.040	0.190	0.070
2020/01/31 07:18:54.6	89.650	0.000	0.220	0.110
2020/01/31 07:18:54.7	89.640	-0.040	0.240	0.160
2020/01/31 07:18:54.8	89.630	-0.070	0.260	0.210
2020/01/31 07:18:54.9	89.610	-0.110	0.280	0.270
2020/01/31 07:18:55.0	89.600	-0.140	0.290	0.320
2020/01/31 07:18:55.1	89.590	-0.180	0.310	0.370
2020/01/31 07:18:55.2	89.580	-0.210	0.320	0.420
2020/01/31 07:18:55.3	89.560	-0.250	0.330	0.470
2020/01/31 07:18:55.4	89.550	-0.280	0.340	0.520
2020/01/31 07:18:55.5	89.540	-0.310	0.340	0.570
2020/01/31 07:18:55.6	89.530	-0.330	0.340	0.620
2020/01/31 07:18:55.7	89.530	-0.360	0.340	0.670
2020/01/31 07:18:55.8	89.520	-0.380	0.330	0.720
2020/01/31 07:18:55.9	89.520	-0.400	0.330	0.770
2020/01/31 07:18:56.0	89.510	-0.420	0.320	0.810
2020/01/31 07:18:56.1	89.510	-0.440	0.300	0.860
2020/01/31 07:18:56.2	89.500	-0.450	0.290	0.910
2020/01/31 07:18:56.3	89.500	-0.450	0.260	0.960
2020/01/31 07:18:56.4	89.500	-0.460	0.240	1.000
2020/01/31 07:18:56.5	89.500	-0.460	0.210	1.050
2020/01/31 07:18:56.6	89.510	-0.460	0.190	1.090
2020/01/31 07:18:56.7	89.510	-0.450	0.160	1.140
2020/01/31 07:18:56.8	89.510	-0.450	0.120	1.180
2020/01/31 07:18:56.9	89.510	-0.430	0.090	1.230
2020/01/31 07:18:57.0	89.520	-0.420	0.050	1.270
2020/01/31 07:18:57.1	89.520	-0.400	0.010	1.320
2020/01/31 07:18:57.2	89.530	-0.380	-0.030	1.360
2020/01/31 07:18:57.3	89.540	-0.360	-0.070	1.400
2020/01/31 07:18:57.4	89.550	-0.330	-0.110	1.440
2020/01/31 07:18:57.5	89.560	-0.310	-0.160	1.480
2020/01/31 07:18:57.6	89.570	-0.280	-0.200	1.520
2020/01/31 07:18:57.7	89.580	-0.250	-0.250	1.550
2020/01/31 07:18:57.8	89.590	-0.210	-0.300	1.590
2020/01/31 07:18:57.9	89.600	-0.180	-0.350	1.620
2020/01/31 07:18:58.0	89.610	-0.140	-0.400	1.660
2020/01/31 07:18:58.1	89.630	-0.110	-0.450	1.690
2020/01/31 07:18:58.2	89.640	-0.070	-0.490	1.720
2020/01/31 07:18:58.3	89.660	-0.040	-0.540	1.750
2020/01/31 07:18:58.4	89.680	0.000	-0.590	1.770
2020/01/31 07:18:58.5	89.690	0.040	-0.630	1.800
2020/01/31 07:18:58.6	89.700	0.070	-0.670	1.820
2020/01/31 07:18:58.7	89.720	0.110	-0.710	1.840
2020/01/31 07:18:58.8	89.730	0.140	-0.750	1.860
2020/01/31 07:18:58.9	89.750	0.170	-0.780	1.880
2020/01/31 07:18:59.0	89.760	0.200	-0.810	1.900
2020/01/31 07:18:59.1	89.770	0.230	-0.830	1.910
2020/01/31 07:18:59.2	89.780	0.250	-0.850	1.920
2020/01/31 07:18:59.3	89.800	0.270	-0.870	1.930
2020/01/31 07:18:59.4	89.810	0.300	-0.880	1.940
2020/01/31 07:18:59.5	89.820	0.310	-0.880	1.950
2020/01/31 07:18:59.6	89.830	0.330	-0.880	1.960
2020/01/31 07:18:59.7	89.840	0.340	-0.880	1.970
2020/01/31 07:18:59.8	89.840	0.350	-0.870	1.970
2020/01/31 07:18:59.9	89.850	0.360	-0.850	1.970
2020/01/31 07:19:00.0	89.850	0.360	-0.830	1.970
2020/01/31 07:19:00.1	89.850	0.360	-0.810	1.970
2020/01/31 07:19:00.2	89.850	0.360	-0.780	1.970
2020/01/31 07:19:00.3	89.850	0.350	-0.740	1.970
2020/01/31 07:19:00.4	89.850	0.340	-0.690	1.960
2020/01/31 07:19:00.5	89.850	0.330	-0.650	1.960
2020/01/31 07:19:00.6	89.840	0.320	-0.600	1.950
2020/01/31 07:19:00.7	89.840	0.310	-0.550	1.940
2020/01/31 07:19:00.8	89.830	0.290	-0.490	1.930
2020/01/31 07:19:00.9	89.820	0.270	-0.430	1.910
2020/01/31 07:19:01.0	89.820	0.250	-0.370	1.900
2020/01/31 07:19:01.1	89.810	0.230	-0.310	1.880
2020/01/31 07:19:01.2	89.800	0.210	-0.240	1.860
2020/01/31 07:19:01.3	89.800	0.190	-0.180	1.830
2020/01/31 07:19:01.4	89.790	0.160	-0.110	1.800
2020/01/31 07:19:01.5	89.780	0.140	-0.040	1.780
2020/01/31 07:19:01.6	89.770	0.120	0.020	1.740
2020/01/31 07:19:01.7	89.770	0.090	0.090	1.710
2020/01/31 07:19:01.8	89.760	0.070	0.150	1.670
2020/01/31 07:19:01.9	89.750	0.040	0.210	1.620
2020/01/31 07:19:02.0	89.750	0.020	0.270	1.580
2020/01/31 07:19:02.1	89.740	0.000	0.330	1.530
2020/01/31 07:19:02.2	89.730	-0.020	0.380	1.480
2020/01/31 07:19:02.3	89.730	-0.040	0.430	1.420
2020/01/31 07:19:02.4	89.720	-0.060	0.470	1.370
2020/01/31 07:19:02.5	89.710	-0.070	0.510	1.310
2020/01/31 07:19:02.6	89.710	-0.090	0.540	1.250
2020/01/31 07:19:02.7	89.700	-0.100	0.570	1.190
2020/01/31 07:19:02.8	89.700	-0.110	0.600	1.130
2020/01/31 07:19:02.9	89.690	-0.120	0.610	1.060
2020/01/31 07:19:03.0	89.680	-0.130	0.630	1.000
2020/01/31 07:19:03.1	89.670	-0.140	0.630	0.940
2020/01/31 07:19:03.2	89.670	-0.140	0.630	0.870
2020/01/31 07:19:03.3	89.660	-0.140	0.630	0.810
2020/01/31 07:19:03.4	89.650	-0.140	0.610	0.740
2020/01/31 07:19:03.5	89.640	-0.140	0.600	0.680
2020/01/31 07:19:03.6	89.630	-0.140	0.570	0.620
2020/01/31 07:19:03.7	89.620	-0.130	0.550	0.560
2020/01/31 07:19:03.8	89.620	-0.120	0.510	0.500
2020/01/31 07:19:03.9	89.610	-0.120	0.480	0.440
2020/01/31 07:19:04.0	89.610	-0.110	0.440	0.390
2020/01/31 07:19:04.1	89.600	-0.100	0.390	0.330
2020/01/31 07:19:04.2	89.600	-0.090	0.340	0.280
2020/01/31 07:19:04.3	89.600	-0.070	0.290	0.220
2020/01/31 07:19:04.4	89.600	-0.060	0.240	0.170
2020/01/31 07:19:04.5	89.600	-0.050	0.180	0.120
2020/01/31 07:19:04.6	89.600	-0.040	0.120	0.070
2020/01/31 07:19:04.7	89.610	-0.020	0.070	0.020
2020/01/31 07:19:04.8	89.610	-0.010	0.010	-0.020
2020/01/31 07:19:04.9	89.620	0.000	-0.050	-0.070
2020/01/31 07:19:05.0	89.630	0.010	-0.110	-0.110
2020/01/31 07:19:05.1	89.640	0.030	-0.170	-0.150
2020/01/31 07:19:05.2	89.650	0.040	-0.220	-0.190
2020/01/31 07:19:05.3	89.670	0.050	-0.280	-0.220
2020/01/31 07:19:05.4	89.680	0.060	-0.340	-0.260
2020/01/31 07:19:05.5	89.700	0.060	-0.390	-0.290
2020/01/31 07:19:05.6	89.720	0.070	-0.440	-0.320
2020/01/31 07:19:05.7	89.740	0.080	-0.480	-0.350
2020/01/31 07:19:05.8	89.750	0.080	-0.530	-0.370
2020/01/31 07:19:05.9	89.770	0.080	-0.560	-0.400
2020/01/31 07:19:06.0	89.790	0.080	-0.600	-0.420
2020/01/31 07:19:06.1	89.810	0.080	-0.630	-0.440
2020/01/31 07:19:06.2	89.830	0.080	-0.660	-0.450
2020/01/31 07:19:06.3	89.850	0.080	-0.680	-0.460
2020/01/31 07:19:06.4	89.870	0.070	-0.690	-0.470
2020/01/31 07:19:06.5	89.890	0.070	-0.710	-0.470
2020/01/31 07:19:06.6	89.900	0.060	-0.710	-0.470
2020/01/31 07:19:06.7	89.920	0.050	-0.720	-0.470
2020/01/31 07:19:06.8	89.930	0.040	-0.720	-0.460
2020/01/31 07:19:06.9	89.940	0.030	-0.710	-0.450
2020/01/31 07:19:07.0	89.950	0.020	-0.700	-0.440
2020/01/31 07:19:07.1	89.960	0.010	-0.680	-0.420
2020/01/31 07:19:07.2	89.970	-0.000	-0.660	-0.400
2020/01/31 07:19:07.3	89.980	-0.010	-0.630	-0.370
2020/01/31 07:19:07.4	89.980	-0.030	-0.600	-0.340
2020/01/31 07:19:07.5	89.990	-0.040	-0.570	-0.310
2020/01/31 07:19:07.6	89.990	-0.060	-0.530	-0.270
2020/01/31 07:19:07.7	89.990	-0.070	-0.490	-0.230
2020/01/31 07:19:07.8	89.990	-0.090	-0.450	-0.190
2020/01/31 07:19:07.9	89.990	-0.100	-0.400	-0.140
2020/01/31 07:19:08.0	89.990	-0.110	-0.360	-0.100
2020/01/31 07:19:08.1	89.990	-0.130	-0.310	-0.040
2020/01/31 07:19:08.2	89.990	-0.140	-0.260	0.010
2020/01/31 07:19:08.3	89.980	-0.150	-0.210	0.060
2020/01/31 07:19:08.4	89.970	-0.170	-0.170	0.120
2020/01/31 07:19:08.5	89.970	-0.180	-0.120	0.180
2020/01/31 07:19:08.6	89.960	-0.190	-0.080	0.240
2020/01/31 07:19:08.7	89.960	-0.200	-0.040	0.300
2020/01/31 07:19:08.8	89.950	-0.210	0.000	0.370
2020/01/31 07:19:08.9	89.940	-0.210	0.040	0.430
2020/01/31 07:19:09.0	89.940	-0.220	0.070	0.500
2020/01/31 07:19:09.1	89.930	-0.220	0.090	0.570
2020/01/31 07:19:09.2	89.920	-0.230	0.120	0.640
2020/01/31 07:19:09.3	89.910	-0.230	0.130	0.710
2020/01/31 07:19:09.4	89.900	-0.230	0.150	0.780
2020/01/31 07:19:09.5	89.890	-0.230	0.150	0.850
2020/01/31 07:19:09.6	89.890	-0.230	0.150	0.930
2020/01/31 07:19:09.7	89.880	-0.220	0.150	1.000
2020/01/31 07:19:09.8	89.870	-0.220	0.140	1.070
2020/01/31 07:19:09.9	89.860	-0.210	0.130	1.150
2020/01/31 07:19:10.0	89.850	-0.210	0.110	1.220
2020/01/31 07:19:10.1	89.850	-0.200	0.080	1.290
2020/01/31 07:19:10.2	89.840	-0.190	0.060	1.370
2020/01/31 07:19:10.3	89.830	-0.180	0.020	1.440
2020/01/31 07:19:10.4	89.820	-0.170	-0.010	1.510
2020/01/31 07:19:10.5	89.810	-0.160	-0.050	1.580
2020/01/31 07:19:10.6	89.810	-0.150	-0.090	1.650
2020/01/31 07:19:10.7	89.800	-0.140	-0.130	1.720
2020/01/31 07:19:10.8	89.800	-0.120	-0.170	1.780
2020/01/31 07:19:10.9	89.800	-0.110	-0.220	1.850
2020/01/31 07:19:11.0	89.790	-0.100	-0.260	1.910
2020/01/31 07:19:11.1	89.790	-0.090	-0.300	1.960
2020/01/31 07:19:11.2	89.790	-0.070	-0.340	2.010
2020/01/31 07:19:11.3	89.780	-0.060	-0.380	2.060
2020/01/31 07:19:11.4	89.780	-0.050	-0.410	2.110
2020/01/31 07:19:11.5	89.780	-0.040	-0.450	2.150
2020/01/31 07:19:11.6	89.790	-0.030	-0.480	2.180
2020/01/31 07:19:11.7	89.790	-0.020	-0.500	2.210
2020/01/31 07:19:11.8	89.790	-0.010	-0.520	2.240
2020/01/31 07:19:11.9	89.800	0.000	-0.530	2.260
2020/01/31 07:19:12.0	89.800	0.010	-0.540	2.280
2020/01/31 07:19:12.1	89.810	0.020	-0.550	2.290
2020/01/31 07:19:12.2	89.810	0.030	-0.550	2.290
2020/01/31 07:19:12.3	89.820	0.040	-0.540	2.300
2020/01/31 07:19:12.4	89.830	0.040	-0.530	2.290
2020/01/31 07:19:12.5	89.840	0.050	-0.510	2.290
2020/01/31 07:19:12.6	89.840	0.060	-0.480	2.270
2020/01/31 07:19:12.7	89.850	0.060	-0.450	2.260
2020/01/31 07:19:12.8	89.860	0.060	-0.420	2.230
2020/01/31 07:19:12.9	89.870	0.070	-0.380	2.210
2020/01/31 07:19:13.0	89.870	0.070	-0.340	2.180
2020/01/31 07:19:13.1	89.880	0.070	-0.290	2.140
2020/01/31 07:19:13.2	89.880	0.080	-0.240	2.100
2020/01/31 07:19:13.3	89.890	0.080	-0.190	2.060
2020/01/31 07:19:13.4	89.890	0.080	-0.140	2.010
2020/01/31 07:19:13.5	89.900	0.080	-0.090	1.970
2020/01/31 07:19:13.6	89.900	0.080	-0.030	1.910
2020/01/31 07:19:13.7	89.900	0.090	0.020	1.860
2020/01/31 07:19:13.8	89.900	0.090	0.070	1.800
2020/01/31 07:19:13.9	89.910	0.090	0.120	1.730
2020/01/31 07:19:14.0	89.910	0.090	0.170	1.670
2020/01/31 07:19:14.1	89.910	0.090	0.220	1.600
2020/01/31 07:19:14.2	89.910	0.100	0.260	1.530
2020/01/31 07:19:14.3	89.920	0.100	0.300	1.460
2020/01/31 07:19:14.4	89.920	0.100	0.330	1.380
2020/01/31 07:19:14.5	89.920	0.110	0.360	1.310
2020/01/31 07:19:14.6	89.930	0.110	0.380	1.230
2020/01/31 07:19:14.7	89.930	0.120	0.400	1.150
2020/01/31 07:19:14.8	89.930	0.130	0.410	1.070
2020/01/31 07:19:14.9	89.940	0.140	0.420	0.990
2020/01/31 07:19:15.0	89.940	0.150	0.420	0.910
2020/01/31 07:19:15.1	89.950	0.160	0.410	0.840
2020/01/31 07:19:15.2	89.960	0.170	0.400	0.760
2020/01/31 07:19:15.3	89.950	0.180	0.390	0.680
2020/01/31 07:19:15.4	89.960	0.200	0.370	0.600
2020/01/31 07:19:15.5	89.970	0.210	0.340	0.520
2020/01/31 07:19:15.6	89.980	0.230	0.310	0.440
2020/01/31 07:19:15.7	89.990	0.240	0.270	0.370
2020/01/31 07:19:15.8	90.000	0.260	0.230	0.290
2020/01/31 07:19:15.9	90.010	0.280	0.180	0.220
2020/01/31 07:19:16.0	90.030	0.290	0.140	0.150
2020/01/31 07:19:16.1	90.040	0.310	0.090	0.080
2020/01/31 07:19:16.2	90.050	0.320	0.030	0.010
2020/01/31 07:19:16.3	90.060	0.340	-0.030	-0.060
2020/01/31 07:19:16.4	90.080	0.360	-0.080	-0.120
2020/01/31 07:19:16.5	90.090	0.370	-0.140	-0.170
2020/01/31 07:19:16.6	90.100	0.380	-0.190	-0.230
2020/01/31 07:19:16.7	90.120	0.390	-0.250	-0.280
2020/01/31 07:19:16.8	90.130	0.400	-0.310	-0.330
2020/01/31 07:19:16.9	90.140	0.410	-0.360	-0.370
2020/01/31 07:19:17.0	90.150	0.410	-0.410	-0.410
2020/01/31 07:19:17.1	90.170	0.410	-0.460	-0.450
2020/01/31 07:19:17.2	90.180	0.410	-0.510	-0.480
2020/01/31 07:19:17.3	90.190	0.410	-0.550	-0.510
2020/01/31 07:19:17.4	90.200	0.400	-0.590	-0.530
2020/01/31 07:19:17.5	90.210	0.390	-0.620	-0.550
2020/01/31 07:19:17.6	90.210	0.380	-0.650	-0.560
2020/01/31 07:19:17.7	90.220	0.360	-0.670	-0.570
2020/01/31 07:19:17.8	90.220	0.340	-0.690	-0.570
2020/01/31 07:19:17.9	90.230	0.320	-0.700	-0.570
2020/01/31 07:19:18.0	90.230	0.290	-0.700	-0.560
2020/01/31 07:19:18.1	90.230	0.260	-0.700	-0.540
2020/01/31 07:19:18.2	90.230	0.230	-0.700	-0.530
2020/01/31 07:19:18.3	90.230	0.190	-0.680	-0.500
2020/01/31 07:19:18.4	90.230	0.160	-0.660	-0.470
2020/01/31 07:19:18.5	90.230	0.120	-0.640	-0.440
2020/01/31 07:19:18.6	90.220	0.080	-0.610	-0.400
2020/01/31 07:19:18.7	90.220	0.030	-0.570	-0.360
2020/01/31 07:19:18.8	90.210	-0.010	-0.530	-0.310
2020/01/31 07:19:18.9	90.200	-0.060	-0.490	-0.260
2020/01/31 07:19:19.0	90.190	-0.100	-0.440	-0.200
2020/01/31 07:19:19.1	90.180	-0.150	-0.390	-0.140
2020/01/31 07:19:19.2	90.160	-0.200	-0.340	-0.080
2020/01/31 07:19:19.3	90.150	-0.240	-0.290	-0.010
2020/01/31 07:19:19.4	90.130	-0.290	-0.230	0.060
2020/01/31 07:19:19.5	90.110	-0.330	-0.170	0.130
2020/01/31 07:19:19.6	90.090	-0.370	-0.110	0.210
2020/01/31 07:19:19.7	90.070	-0.420	-0.050	0.290
2020/01/31 07:19:19.8	90.050	-0.450	0.000	0.370
2020/01/31 07:19:19.9	90.030	-0.490	0.060	0.450
2020/01/31 07:19:20.0	90.010	-0.520	0.110	0.530
2020/01/31 07:19:20.1	89.980	-0.550	0.160	0.620
2020/01/31 07:19:20.2	89.960	-0.580	0.210	0.700
2020/01/31 07:19:20.3	89.930	-0.600	0.260	0.790
2020/01/31 07:19:20.4	89.910	-0.620	0.290	0.870
2020/01/31 07:19:20.5	89.890	-0.640	0.330	0.950
2020/01/31 07:19:20.6	89.860	-0.650	0.350	1.030
2020/01/31 07:19:20.7	89.840	-0.650	0.370	1.110
2020/01/31 07:19:20.8	89.820	-0.650	0.390	1.190
2020/01/31 07:19:20.9	89.800	-0.650	0.400	1.260
2020/01/31 07:19:21.0	89.790	-0.640	0.400	1.330
2020/01/31 07:19:21.1	89.770	-0.630	0.390	1.390
2020/01/31 07:19:21.2	89.760	-0.610	0.380	1.450
2020/01/31 07:19:21.3	89.750	-0.590	0.360	1.500
2020/01/31 07:19:21.4	89.740	-0.560	0.330	1.560
2020/01/31 07:19:21.5	89.740	-0.530	0.300	1.600
2020/01/31 07:19:21.6	89.740	-0.500	0.260	1.640
2020/01/31 07:19:21.7	89.730	-0.460	0.210	1.680
2020/01/31 07:19:21.8	89.730	-0.420	0.160	1.710
2020/01/31 07:19:21.9	89.740	-0.370	0.110	1.740
2020/01/31 07:19:22.0	89.740	-0.320	0.050	1.770
2020/01/31 07:19:22.1	89.750	-0.270	-0.010	1.790
2020/01/31 07:19:22.2	89.760	-0.220	-0.080	1.810
2020/01/31 07:19:22.3	89.770	-0.170	-0.140	1.820
2020/01/31 07:19:22.4	89.780	-0.120	-0.210	1.840
2020/01/31 07:19:22.5	89.790	-0.060	-0.270	1.850
2020/01/31 07:19:22.6	89.800	-0.010	-0.340	1.860
2020/01/31 07:19:22.7	89.810	0.040	-0.400	1.860
2020/01/31 07:19:22.8	89.820	0.100	-0.450	1.870
2020/01/31 07:19:22.9	89.840	0.150	-0.510	1.870
2020/01/31 07:19:23.0	89.850	0.200	-0.560	1.880
2020/01/31 07:19:23.1	89.860	0.240	-0.610	1.880
2020/01/31 07:19:23.2	89.880	0.290	-0.650	1.880
2020/01/31 07:19:23.3	89.890	0.330	-0.680	1.880
2020/01/31 07:19:23.4	89.900	0.360	-0.710	1.880
2020/01/31 07:19:23.5	89.920	0.400	-0.730	1.870
2020/01/31 07:19:23.6	89.930	0.420	-0.740	1.870
2020/01/31 07:19:23.7	89.940	0.450	-0.750	1.870
2020/01/31 07:19:23.8	89.950	0.470	-0.750	1.860
2020/01/31 07:19:23.9	89.970	0.480	-0.740	1.850
2020/01/31 07:19:24.0	89.980	0.490	-0.720	1.840
2020/01/31 07:19:24.1	89.990	0.490	-0.700	1.830
2020/01/31 07:19:24.2	90.000	0.490	-0.670	1.820
2020/01/31 07:19:24.3	90.010	0.480	-0.630	1.810
2020/01/31 07:19:24.4	90.020	0.470	-0.590	1.800
2020/01/31 07:19:24.5	90.030	0.460	-0.540	1.780
2020/01/31 07:19:24.6	90.030	0.430	-0.490	1.760
2020/01/31 07:19:24.7	90.040	0.410	-0.430	1.750
2020/01/31 07:19:24.8	90.040	0.380	-0.370	1.730
2020/01/31 07:19:24.9	90.050	0.350	-0.310	1.710
2020/01/31 07:19:25.0	90.050	0.310	-0.240	1.690
2020/01/31 07:19:25.1	90.040	0.270	-0.180	1.670
2020/01/31 07:19:25.2	90.040	0.230	-0.110	1.650
2020/01/31 07:19:25.3	90.040	0.190	-0.040	1.620
2020/01/31 07:19:25.4	90.030	0.140	0.020	1.600
2020/01/31 07:19:25.5	90.020	0.100	0.090	1.570
2020/01/31 07:19:25.6	90.010	0.050	0.150	1.550
2020/01/31 07:19:25.7	89.990	0.010	0.200	1.520
2020/01/31 07:19:25.8	89.970	-0.040	0.260	1.500
2020/01/31 07:19:25.9	89.950	-0.080	0.310	1.470
2020/01/31 07:19:26.0	89.930	-0.130	0.350	1.440
2020/01/31 07:19:26.1	89.910	-0.170	0.390	1.410
2020/01/31 07:19:26.2	89.880	-0.210	0.420	1.390
2020/01/31 07:19:26.3	89.860	-0.240	0.450	1.350
2020/01/31 07:19:26.4	89.830	-0.280	0.470	1.320
2020/01/31 07:19:26.5	89.800	-0.310	0.480	1.290
2020/01/31 07:19:26.6	89.780	-0.330	0.480	1.260
2020/01/31 07:19:26.7	89.750	-0.350	0.480	1.230
2020/01/31 07:19:26.8	89.720	-0.370	0.480	1.190
2020/01/31 07:19:26.9	89.690	-0.390	0.460	1.160
2020/01/31 07:19:27.0	89.660	-0.400	0.440	1.120
2020/01/31 07:19:27.1	89.630	-0.400	0.420	1.090
2020/01/31 07:19:27.2	89.600	-0.400	0.390	1.050
2020/01/31 07:19:27.3	89.580	-0.400	0.340	1.010
2020/01/31 07:19:27.4	89.560	-0.390	0.300	0.970
2020/01/31 07:19:27.5	89.540	-0.380	0.260	0.920
2020/01/31 07:19:27.6	89.520	-0.370	0.210	0.880
2020/01/31 07:19:27.7	89.500	-0.350	0.160	0.840
2020/01/31 07:19:27.8	89.480	-0.320	0.100	0.790
2020/01/31 07:19:27.9	89.470	-0.300	0.050	0.750
2020/01/31 07:19:28.0	89.460	-0.270	-0.010	0.700
2020/01/31 07:19:28.1	89.450	-0.240	-0.070	0.650
2020/01/31 07:19:28.2	89.440	-0.200	-0.130	0.600
2020/01/31 07:19:28.3	89.440	-0.170	-0.190	0.550
2020/01/31 07:19:28.4	89.430	-0.130	-0.250	0.510
2020/01/31 07:19:28.5	89.430	-0.100	-0.310	0.460
2020/01/31 07:19:28.6	89.440	-0.060	-0.370	0.410
2020/01/31 07:19:28.7	89.440	-0.020	-0.420	0.360
2020/01/31 07:19:28.8	89.450	0.020	-0.470	0.310
2020/01/31 07:19:28.9	89.460	0.050	-0.520	0.270
2020/01/31 07:19:29.0	89.470	0.090	-0.570	0.220
2020/01/31 07:19:29.1	89.480	0.120	-0.610	0.180
2020/01/31 07:19:29.2	89.490	0.160	-0.640	0.130
2020/01/31 07:19:29.3	89.500	0.190	-0.680	0.090
2020/01/31 07:19:29.4	89.520	0.210	-0.700	0.060
2020/01/31 07:19:29.5	89.530	0.240	-0.720	0.020
2020/01/31 07:19:29.6	89.540	0.260	-0.740	-0.010
2020/01/31 07:19:29.7	89.550	0.280	-0.750	-0.040
2020/01/31 07:19:29.8	89.570	0.290	-0.750	-0.070
2020/01/31 07:19:29.9	89.580	0.310	-0.750	-0.100
2020/01/31 07:19:30.0	89.590	0.320	-0.740	-0.130
2020/01/31 07:19:30.1	89.600	0.320	-0.720	-0.150
2020/01/31 07:19:30.2	89.610	0.320	-0.700	-0.170
2020/01/31 07:19:30.3	89.620	0.320	-0.680	-0.190
2020/01/31 07:19:30.4	89.630	0.320	-0.650	-0.210
2020/01/31 07:19:30.5	89.630	0.310	-0.610	-0.220
2020/01/31 07:19:30.6	89.640	0.300	-0.570	-0.240
2020/01/31 07:19:30.7	89.650	0.280	-0.530	-0.250
2020/01/31 07:19:30.8	89.660	0.270	-0.480	-0.260
2020/01/31 07:19:30.9	89.660	0.250	-0.430	-0.270
2020/01/31 07:19:31.0	89.670	0.230	-0.370	-0.280
2020/01/31 07:19:31.1	89.670	0.200	-0.320	-0.290
2020/01/31 07:19:31.2	89.670	0.180	-0.260	-0.300
2020/01/31 07:19:31.3	89.670	0.160	-0.200	-0.300
2020/01/31 07:19:31.4	89.680	0.130	-0.150	-0.300
2020/01/31 07:19:31.5	89.680	0.100	-0.090	-0.310
2020/01/31 07:19:31.6	89.680	0.080	-0.030	-0.310
2020/01/31 07:19:31.7	89.670	0.050	0.020	-0.300
2020/01/31 07:19:31.8	89.670	0.030	0.070	-0.300
2020/01/31 07:19:31.9	89.670	0.000	0.120	-0.290
2020/01/31 07:19:32.0	89.660	-0.020	0.170	-0.280
2020/01/31 07:19:32.1	89.650	-0.040	0.210	-0.270
2020/01/31 07:19:32.2	89.640	-0.060	0.250	-0.250
2020/01/31 07:19:32.3	89.630	-0.080	0.290	-0.230
2020/01/31 07:19:32.4	89.610	-0.100	0.310	-0.210
2020/01/31 07:19:32.5	89.600	-0.110	0.340	-0.180
2020/01/31 07:19:32.6	89.590	-0.120	0.360	-0.150
2020/01/31 07:19:32.7	89.570	-0.130	0.370	-0.120
2020/01/31 07:19:32.8	89.550	-0.140	0.380	-0.080
2020/01/31 07:19:32.9	89.540	-0.140	0.380	-0.040
2020/01/31 07:19:33.0	89.520	-0.150	0.380	-0.000
2020/01/31 07:19:33.1	89.500	-0.150	0.370	0.050
2020/01/31 07:19:33.2	89.480	-0.140	0.360	0.090
2020/01/31 07:19:33.3	89.460	-0.140	0.340	0.150
2020/01/31 07:19:33.4	89.440	-0.130	0.320	0.200
2020/01/31 07:19:33.5	89.410	-0.120	0.290	0.250
2020/01/31 07:19:33.6	89.390	-0.110	0.260	0.310
2020/01/31 07:19:33.7	89.370	-0.090	0.220	0.370
2020/01/31 07:19:33.8	89.340	-0.080	0.180	0.430
2020/01/31 07:19:33.9	89.320	-0.060	0.140	0.490
2020/01/31 07:19:34.0	89.290	-0.050	0.100	0.550
2020/01/31 07:19:34.1	89.270	-0.030	0.060	0.610
2020/01/31 07:19:34.2	89.250	-0.010	0.010	0.670
2020/01/31 07:19:34.3	89.220	0.010	-0.040	0.730
2020/01/31 07:19:34.4	89.200	0.030	-0.090	0.790
2020/01/31 07:19:34.5	89.170	0.050	-0.130	0.850
2020/01/31 07:19:34.6	89.150	0.060	-0.180	0.920
2020/01/31 07:19:34.7	89.130	0.080	-0.220	0.970
2020/01/31 07:19:34.8	89.110	0.100	-0.260	1.030
2020/01/31 07:19:34.9	89.090	0.110	-0.300	1.090
2020/01/31 07:19:35.0	89.070	0.120	-0.340	1.150
2020/01/31 07:19:35.1	89.060	0.140	-0.380	1.210
2020/01/31 07:19:35.2	89.040	0.150	-0.410	1.260
2020/01/31 07:19:35.3	89.030	0.160	-0.440	1.310
2020/01/31 07:19:35.4	89.020	0.160	-0.470	1.370
2020/01/31 07:19:35.5	89.010	0.170	-0.490	1.420
2020/01/31 07:19:35.6	89.000	0.170	-0.510	1.470
2020/01/31 07:19:35.7	88.990	0.180	-0.530	1.520
2020/01/31 07:19:35.8	88.990	0.180	-0.550	1.570
2020/01/31 07:19:35.9	88.990	0.180	-0.560	1.610
2020/01/31 07:19:36.0	88.990	0.170	-0.570	1.660
2020/01/31 07:19:36.1	88.990	0.170	-0.580	1.700
2020/01/31 07:19:36.2	88.990	0.160	-0.580	1.740
2020/01/31 07:19:36.3	89.000	0.160	-0.580	1.780
2020/01/31 07:19:36.4	89.010	0.150	-0.580	1.820
2020/01/31 07:19:36.5	89.020	0.140	-0.580	1.850
2020/01/31 07:19:36.6	89.040	0.130	-0.580	1.880
2020/01/31 07:19:36.7	89.050	0.120	-0.570	1.910
2020/01/31 07:19:36.8	89.070	0.100	-0.560	1.940
2020/01/31 07:19:36.9	89.090	0.090	-0.550	1.960
2020/01/31 07:19:37.0	89.110	0.070	-0.530	1.980
2020/01/31 07:19:37.1	89.130	0.060	-0.510	2.000
2020/01/31 07:19:37.2	89.160	0.040	-0.490	2.020
2020/01/31 07:19:37.3	89.180	0.030	-0.470	2.030
2020/01/31 07:19:37.4	89.210	0.010	-0.450	2.040
2020/01/31 07:19:37.5	89.240	-0.010	-0.430	2.050
2020/01/31 07:19:37.6	89.260	-0.020	-0.400	2.050
2020/01/31 07:19:37.7	89.290	-0.040	-0.370	2.050
2020/01/31 07:19:37.8	89.320	-0.060	-0.340	2.050
2020/01/31 07:19:37.9	89.350	-0.070	-0.300	2.050
2020/01/31 07:19:38.0	89.370	-0.090	-0.270	2.040
2020/01/31 07:19:38.1	89.400	-0.100	-0.230	2.040
2020/01/31 07:19:38.2	89.420	-0.120	-0.200	2.030
2020/01/31 07:19:38.3	89.450	-0.130	-0.160	2.010
2020/01/31 07:19:38.4	89.470	-0.140	-0.120	2.000
2020/01/31 07:19:38.5	89.490	-0.150	-0.080	1.980
2020/01/31 07:19:38.6	89.500	-0.160	-0.040	1.970
2020/01/31 07:19:38.7	89.520	-0.170	-0.000	1.950
2020/01/31 07:19:38.8	89.530	-0.180	0.040	1.930
2020/01/31 07:19:38.9	89.540	-0.190	0.070	1.910
2020/01/31 07:19:39.0	89.550	-0.190	0.110	1.890
2020/01/31 07:19:39.1	89.560	-0.200	0.150	1.860
2020/01/31 07:19:39.2	89.560	-0.200	0.190	1.840
2020/01/31 07:19:39.3	89.560	-0.200	0.220	1.810
2020/01/31 07:19:39.4	89.560	-0.200	0.250	1.790
2020/01/31 07:19:39.5	89.550	-0.200	0.280	1.760
2020/01/31 07:19:39.6	89.550	-0.200	0.310	1.730
2020/01/31 07:19:39.7	89.540	-0.200	0.340	1.700
2020/01/31 07:19:39.8	89.530	-0.190	0.360	1.670
2020/01/31 07:19:39.9	89.520	-0.190	0.380	1.630
2020/01/31 07:19:40.0	89.510	-0.180	0.400	1.600
2020/01/31 07:19:40.1	89.490	-0.170	0.420	1.570
2020/01/31 07:19:40.2	89.470	-0.170	0.430	1.530
2020/01/31 07:19:40.3	89.450	-0.160	0.440	1.490
2020/01/31 07:19:40.4	89.430	-0.150	0.440	1.450
2020/01/31 07:19:40.5	89.410	-0.140	0.440	1.420
2020/01/31 07:19:40.6	89.390	-0.130	0.440	1.380
2020/01/31 07:19:40.7	89.370	-0.120	0.430	1.340
2020/01/31 07:19:40.8	89.340	-0.110	0.410	1.300
2020/01/31 07:19:40.9	89.320	-0.090	0.400	1.270
2020/01/31 07:19:41.0	89.300	-0.080	0.380	1.230
2020/01/31 07:19:41.1	89.270	-0.070	0.350	1.190
2020/01/31 07:19:41.2	89.250	-0.060	0.330	1.150
2020/01/31 07:19:41.3	89.230	-0.040	0.300	1.120
2020/01/31 07:19:41.4	89.200	-0.030	0.260	1.080
2020/01/31 07:19:41.5	89.180	-0.020	0.220	1.040
2020/01/31 07:19:41.6	89.150	-0.000	0.180	1.010
2020/01/31 07:19:41.7	89.130	0.010	0.140	0.970
2020/01/31 07:19:41.8	89.110	0.020	0.090	0.940
2020/01/31 07:19:41.9	89.090	0.040	0.050	0.910
2020/01/31 07:19:42.0	89.070	0.050	-0.010	0.870
2020/01/31 07:19:42.1	89.050	0.060	-0.060	0.840
2020/01/31 07:19:42.2	89.030	0.070	-0.110	0.810
2020/01/31 07:19:42.3	89.020	0.080	-0.170	0.780
2020/01/31 07:19:42.4	89.010	0.100	-0.220	0.750
2020/01/31 07:19:42.5	88.990	0.110	-0.280	0.710
2020/01/31 07:19:42.6	88.980	0.120	-0.340	0.680
2020/01/31 07:19:42.7	88.970	0.130	-0.390	0.650
2020/01/31 07:19:42.8	88.960	0.140	-0.450	0.620
2020/01/31 07:19:42.9	88.950	0.140	-0.500	0.590
2020/01/31 07:19:43.0	88.950	0.150	-0.550	0.560
2020/01/31 07:19:43.1	88.950	0.160	-0.600	0.520
2020/01/31 07:19:43.2	88.950	0.170	-0.650	0.490
2020/01/31 07:19:43.3	88.950	0.170	-0.690	0.460
2020/01/31 07:19:43.4	88.950	0.180	-0.740	0.420
2020/01/31 07:19:43.5	88.950	0.180	-0.770	0.390
2020/01/31 07:19:43.6	88.960	0.180	-0.810	0.350
2020/01/31 07:19:43.7	88.970	0.180	-0.840	0.320
2020/01/31 07:19:43.8	88.980	0.190	-0.860	0.280
2020/01/31 07:19:43.9	88.990	0.190	-0.880	0.250
2020/01/31 07:19:44.0	89.000	0.180	-0.890	0.210
2020/01/31 07:19:44.1	89.020	0.180	-0.900	0.180
2020/01/31 07:19:44.2	89.040	0.180	-0.900	0.140
2020/01/31 07:19:44.3	89.060	0.170	-0.900	0.110
2020/01/31 07:19:44.4	89.080	0.170	-0.890	0.080
2020/01/31 07:19:44.5	89.100	0.160	-0.880	0.040
2020/01/31 07:19:44.6	89.120	0.150	-0.860	0.010
2020/01/31 07:19:44.7	89.140	0.140	-0.830	-0.020
2020/01/31 07:19:44.8	89.170	0.130	-0.800	-0.040
2020/01/31 07:19:44.9	89.190	0.120	-0.760	-0.070
2020/01/31 07:19:45.0	89.210	0.110	-0.720	-0.090
2020/01/31 07:19:45.1	89.240	0.090	-0.670	-0.110
2020/01/31 07:19:45.2	89.260	0.070	-0.620	-0.120
2020/01/31 07:19:45.3	89.290	0.060	-0.560	-0.130
2020/01/31 07:19:45.4	89.310	0.040	-0.500	-0.140
2020/01/31 07:19:45.5	89.330	0.020	-0.440	-0.140
2020/01/31 07:19:45.6	89.350	-0.000	-0.380	-0.140
2020/01/31 07:19:45.7	89.370	-0.020	-0.310	-0.140
2020/01/31 07:19:45.8	89.390	-0.040	-0.240	-0.130
2020/01/31 07:19:45.9	89.410	-0.070	-0.170	-0.110
2020/01/31 07:19:46.0	89.420	-0.090	-0.090	-0.090
2020/01/31 07:19:46.1	89.430	-0.110	-0.020	-0.070
2020/01/31 07:19:46.2	89.440	-0.140	0.050	-0.040
2020/01/31 07:19:46.3	89.460	-0.160	0.120	-0.010
2020/01/31 07:19:46.4	89.470	-0.190	0.190	0.030
2020/01/31 07:19:46.5	89.470	-0.210	0.260	0.070
2020/01/31 07:19:46.6	89.480	-0.230	0.330	0.120
2020/01/31 07:19:46.7	89.480	-0.250	0.390	0.170
2020/01/31 07:19:46.8	89.480	-0.270	0.450	0.220
2020/01/31 07:19:46.9	89.480	-0.290	0.510	0.270
2020/01/31 07:19:47.0	89.480	-0.310	0.560	0.330
2020/01/31 07:19:47.1	89.480	-0.330	0.600	0.390
2020/01/31 07:19:47.2	89.470	-0.340	0.640	0.450
2020/01/31 07:19:47.3	89.460	-0.360	0.680	0.510
2020/01/31 07:19:47.4	89.450	-0.370	0.700	0.580
2020/01/31 07:19:47.5	89.450	-0.370	0.730	0.650
2020/01/31 07:19:47.6	89.440	-0.380	0.740	0.710
2020/01/31 07:19:47.7	89.430	-0.380	0.750	0.780
2020/01/31 07:19:47.8	89.430	-0.380	0.750	0.850
2020/01/31 07:19:47.9	89.420	-0.380	0.750	0.920
2020/01/31 07:19:48.0	89.410	-0.370	0.740	0.980
2020/01/31 07:19:48.1	89.400	-0.370	0.720	1.050
2020/01/31 07:19:48.2	89.390	-0.350	0.690	1.120
2020/01/31 07:19:48.3	89.390	-0.340	0.660	1.190
2020/01/31 07:19:48.4	89.380	-0.320	0.620	1.250
2020/01/31 07:19:48.5	89.380	-0.300	0.570	1.310
2020/01/31 07:19:48.6	89.370	-0.280	0.520	1.380
2020/01/31 07:19:48.7	89.360	-0.250	0.460	1.440
2020/01/31 07:19:48.8	89.350	-0.220	0.390	1.500
2020/01/31 07:19:48.9	89.340	-0.190	0.320	1.550
2020/01/31 07:19:49.0	89.340	-0.150	0.240	1.610
2020/01/31 07:19:49.1	89.330	-0.110	0.160	1.660
2020/01/31 07:19:49.2	89.320	-0.070	0.080	1.720
2020/01/31 07:19:49.3	89.310	-0.030	-0.020	1.760
2020/01/31 07:19:49.4	89.300	0.010	-0.110	1.810
2020/01/31 07:19:49.5	89.290	0.050	-0.210	1.860
2020/01/31 07:19:49.6	89.280	0.100	-0.300	1.900
2020/01/31 07:19:49.7	89.270	0.140	-0.400	1.950
2020/01/31 07:19:49.8	89.260	0.190	-0.490	1.990
2020/01/31 07:19:49.9	89.250	0.230	-0.590	2.020
2020/01/31 07:19:50.0	89.240	0.280	-0.680	2.060
2020/01/31 07:19:50.1	89.230	0.320	-0.770	2.090
2020/01/31 07:19:50.2	89.220	0.360	-0.850	2.120
2020/01/31 07:19:50.3	89.200	0.400	-0.930	2.150
2020/01/31 07:19:50.4	89.190	0.440	-1.010	2.170
2020/01/31 07:19:50.5	89.180	0.480	-1.080	2.190
2020/01/31 07:19:50.6	89.180	0.510	-1.140	2.210
2020/01/31 07:19:50.7	89.170	0.540	-1.200	2.220
2020/01/31 07:19:50.8	89.160	0.570	-1.250	2.230
2020/01/31 07:19:50.9	89.160	0.590	-1.290	2.230
2020/01/31 07:19:51.0	89.150	0.610	-1.320	2.230
2020/01/31 07:19:51.1	89.150	0.630	-1.340	2.230
2020/01/31 07:19:51.2	89.150	0.650	-1.360	2.220
2020/01/31 07:19:51.3	89.150	0.660	-1.360	2.210
2020/01/31 07:19:51.4	89.150	0.660	-1.360	2.190
2020/01/31 07:19:51.5	89.150	0.670	-1.340	2.170
2020/01/31 07:19:51.6	89.160	0.670	-1.320	2.140
2020/01/31 07:19:51.7	89.170	0.660	-1.290	2.110
2020/01/31 07:19:51.8	89.180	0.650	-1.250	2.070
2020/01/31 07:19:51.9	89.190	0.640	-1.200	2.040
2020/01/31 07:19:52.0	89.200	0.630	-1.140	1.990
2020/01/31 07:19:52.1	89.220	0.610	-1.080	1.950
2020/01/31 07:19:52.2	89.230	0.590	-1.010	1.900
2020/01/31 07:19:52.3	89.250	0.570	-0.930	1.850
2020/01/31 07:19:52.4	89.270	0.540	-0.840	1.800
2020/01/31 07:19:52.5	89.290	0.520	-0.750	1.750
2020/01/31 07:19:52.6	89.300	0.490	-0.660	1.690
2020/01/31 07:19:52.7	89.320	0.460	-0.570	1.640
2020/01/31 07:19:52.8	89.340	0.420	-0.470	1.580
2020/01/31 07:19:52.9	89.360	0.390	-0.360	1.520
2020/01/31 07:19:53.0	89.380	0.350	-0.260	1.470
2020/01/31 07:19:53.1	89.390	0.320	-0.160	1.410
2020/01/31 07:19:53.2	89.410	0.280	-0.050	1.360
2020/01/31 07:19:53.3	89.420	0.240	0.050	1.320
2020/01/31 07:19:53.4	89.430	0.200	0.160	1.270
2020/01/31 07:19:53.5	89.440	0.160	0.250	1.220
2020/01/31 07:19:53.6	89.450	0.130	0.350	1.180
2020/01/31 07:19:53.7	89.450	0.090	0.440	1.140
2020/01/31 07:19:53.8	89.450	0.050	0.530	1.110
2020/01/31 07:19:53.9	89.450	0.010	0.610	1.070
2020/01/31 07:19:54.0	89.450	-0.020	0.690	1.040
2020/01/31 07:19:54.1	89.440	-0.060	0.760	1.020
2020/01/31 07:19:54.2	89.430	-0.090	0.820	0.990
2020/01/31 07:19:54.3	89.430	-0.130	0.880	0.970
2020/01/31 07:19:54.4	89.420	-0.160	0.930	0.950
2020/01/31 07:19:54.5	89.400	-0.190	0.980	0.930
2020/01/31 07:19:54.6	89.390	-0.220	1.010	0.910
2020/01/31 07:19:54.7	89.370	-0.250	1.040	0.890
2020/01/31 07:19:54.8	89.360	-0.280	1.060	0.880
2020/01/31 07:19:54.9	89.340	-0.300	1.070	0.860
2020/01/31 07:19:55.0	89.320	-0.330	1.070	0.850
2020/01/31 07:19:55.1	89.310	-0.350	1.070	0.840
2020/01/31 07:19:55.2	89.290	-0.370	1.060	0.820
2020/01/31 07:19:55.3	89.270	-0.390	1.040	0.810
2020/01/31 07:19:55.4	89.250	-0.410	1.010	0.790
2020/01/31 07:19:55.5	89.240	-0.430	0.980	0.770
2020/01/31 07:19:55.6	89.230	-0.440	0.950	0.760
2020/01/31 07:19:55.7	89.220	-0.460	0.900	0.740
2020/01/31 07:19:55.8	89.210	-0.470	0.860	0.720
2020/01/31 07:19:55.9	89.200	-0.480	0.810	0.700
2020/01/31 07:19:56.0	89.190	-0.490	0.750	0.680
2020/01/31 07:19:56.1	89.180	-0.500	0.690	0.660
2020/01/31 07:19:56.2	89.180	-0.510	0.630	0.640
2020/01/31 07:19:56.3	89.180	-0.520	0.570	0.620
2020/01/31 07:19:56.4	89.170	-0.520	0.500	0.590
2020/01/31 07:19:56.5	89.170	-0.530	0.430	0.570
2020/01/31 07:19:56.6	89.180	-0.530	0.360	0.550
2020/01/31 07:19:56.7	89.180	-0.530	0.290	0.520
2020/01/31 07:19:56.8	89.190	-0.530	0.220	0.500
2020/01/31 07:19:56.9	89.190	-0.530	0.150	0.480
2020/01/31 07:19:57.0	89.200	-0.530	0.080	0.450
2020/01/31 07:19:57.1	89.210	-0.530	0.020	0.430
2020/01/31 07:19:57.2	89.220	-0.520	-0.050	0.410
2020/01/31 07:19:57.3	89.240	-0.510	-0.120	0.380
2020/01/31 07:19:57.4	89.250	-0.510	-0.190	0.360
2020/01/31 07:19:57.5	89.270	-0.500	-0.250	0.340
2020/01/31 07:19:57.6	89.280	-0.480	-0.310	0.310
2020/01/31 07:19:57.7	89.300	-0.470	-0.380	0.290
2020/01/31 07:19:57.8	89.310	-0.450	-0.430	0.270
2020/01/31 07:19:57.9	89.330	-0.440	-0.490	0.250
2020/01/31 07:19:58.0	89.350	-0.420	-0.550	0.240
2020/01/31 07:19:58.1	89.360	-0.400	-0.600	0.220
2020/01/31 07:19:58.2	89.380	-0.370	-0.650	0.210
2020/01/31 07:19:58.3	89.400	-0.350	-0.700	0.200
2020/01/31 07:19:58.4	89.420	-0.330	-0.740	0.190
2020/01/31 07:19:58.5	89.430	-0.300	-0.790	0.180
2020/01/31 07:19:58.6	89.450	-0.270	-0.830	0.170
2020/01/31 07:19:58.7	89.460	-0.240	-0.870	0.170
2020/01/31 07:19:58.8	89.470	-0.210	-0.900	0.170
2020/01/31 07:19:58.9	89.480	-0.180	-0.940	0.170
2020/01/31 07:19:59.0	89.490	-0.140	-0.970	0.170
2020/01/31 07:19:59.1	89.500	-0.110	-1.000	0.180
2020/01/31 07:19:59.2	89.510	-0.080	-1.030	0.190
2020/01/31 07:19:59.3	89.510	-0.040	-1.050	0.200
2020/01/31 07:19:59.4	89.510	-0.010	-1.070	0.220
2020/01/31 07:19:59.5	89.520	0.030	-1.090	0.230
2020/01/31 07:19:59.6	89.520	0.060	-1.110	0.250
2020/01/31 07:19:59.7	89.520	0.100	-1.120	0.280
2020/01/31 07:19:59.8	89.520	0.130	-1.140	0.300
2020/01/31 07:19:59.9	89.520	0.170	-1.140	0.330
2020/01/31 07:20:00.0	89.520	0.200	-1.150	0.360
2020/01/31 07:20:00.1	89.520	0.230	-1.150	0.390
2020/01/31 07:20:00.2	89.520	0.260	-1.150	0.430
2020/01/31 07:20:00.3	89.510	0.290	-1.140	0.460
2020/01/31 07:20:00.4	89.510	0.320	-1.130	0.500
2020/01/31 07:20:00.5	89.510	0.350	-1.110	0.540
2020/01/31 07:20:00.6	89.510	0.370	-1.100	0.580
2020/01/31 07:20:00.7	89.510	0.390	-1.070	0.630
2020/01/31 07:20:00.8	89.510	0.410	-1.050	0.670
2020/01/31 07:20:00.9	89.510	0.430	-1.020	0.710
2020/01/31 07:20:01.0	89.500	0.440	-0.980	0.760
2020/01/31 07:20:01.1	89.500	0.450	-0.940	0.800
2020/01/31 07:20:01.2	89.500	0.460	-0.900	0.850
2020/01/31 07:20:01.3	89.510	0.470	-0.850	0.900
2020/01/31 07:20:01.4	89.510	0.470	-0.800	0.950
2020/01/31 07:20:01.5	89.510	0.470	-0.740	0.990
2020/01/31 07:20:01.6	89.510	0.470	-0.680	1.040
2020/01/31 07:20:01.7	89.510	0.460	-0.610	1.080
2020/01/31 07:20:01.8	89.510	0.450	-0.540	1.130
2020/01/31 07:20:01.9	89.510	0.440	-0.470	1.170
2020/01/31 07:20:02.0	89.510	0.420	-0.390	1.210
2020/01/31 07:20:02.1	89.510	0.400	-0.310	1.250
2020/01/31 07:20:02.2	89.510	0.380	-0.230	1.290
2020/01/31 07:20:02.3	89.500	0.360	-0.140	1.320
2020/01/31 07:20:02.4	89.500	0.330	-0.050	1.360
2020/01/31 07:20:02.5	89.500	0.300	0.040	1.390
2020/01/31 07:20:02.6	89.500	0.270	0.130	1.420
2020/01/31 07:20:02.7	89.500	0.240	0.230	1.440
2020/01/31 07:20:02.8	89.490	0.200	0.320	1.460
2020/01/31 07:20:02.9	89.490	0.160	0.410	1.490
2020/01/31 07:20:03.0	89.480	0.130	0.510	1.500
2020/01/31 07:20:03.1	89.480	0.080	0.600	1.520
2020/01/31 07:20:03.2	89.470	0.040	0.690	1.530
2020/01/31 07:20:03.3	89.460	0.000	0.780	1.540
2020/01/31 07:20:03.4	89.450	-0.040	0.860	1.550
2020/01/31 07:20:03.5	89.440	-0.080	0.940	1.550
2020/01/31 07:20:03.6	89.430	-0.130	1.020	1.550
2020/01/31 07:20:03.7	89.420	-0.170	1.090	1.550
2020/01/31 07:20:03.8	89.410	-0.210	1.150	1.540
2020/01/31 07:20:03.9	89.400	-0.250	1.210	1.540
2020/01/31 07:20:04.0	89.390	-0.290	1.260	1.530
2020/01/31 07:20:04.1	89.380	-0.320	1.310	1.520
2020/01/31 07:20:04.2	89.360	-0.360	1.340	1.500
2020/01/31 07:20:04.3	89.350	-0.390	1.370	1.480
2020/01/31 07:20:04.4	89.330	-0.420	1.380	1.470
2020/01/31 07:20:04.5	89.320	-0.440	1.390	1.450
2020/01/31 07:20:04.6	89.300	-0.460	1.400	1.430
2020/01/31 07:20:04.7	89.280	-0.480	1.390	1.410
2020/01/31 07:20:04.8	89.260	-0.500	1.370	1.380
2020/01/31 07:20:04.9	89.250	-0.510	1.340	1.360
2020/01/31 07:20:05.0	89.230	-0.520	1.300	1.330
2020/01/31 07:20:05.1	89.210	-0.520	1.250	1.310
2020/01/31 07:20:05.2	89.190	-0.520	1.190	1.280
2020/01/31 07:20:05.3	89.170	-0.510	1.130	1.250
2020/01/31 07:20:05.4	89.160	-0.500	1.050	1.220
2020/01/31 07:20:05.5	89.140	-0.490	0.970	1.190
2020/01/31 07:20:05.6	89.120	-0.470	0.870	1.160
2020/01/31 07:20:05.7	89.100	-0.450	0.770	1.120
2020/01/31 07:20:05.8	89.090	-0.420	0.660	1.090
2020/01/31 07:20:05.9	89.070	-0.390	0.550	1.050
2020/01/31 07:20:06.0	89.060	-0.350	0.420	1.010
2020/01/31 07:20:06.1	89.040	-0.320	0.300	0.970
2020/01/31 07:20:06.2	89.030	-0.270	0.160	0.930
2020/01/31 07:20:06.3	89.030	-0.230	0.020	0.880
2020/01/31 07:20:06.4	89.020	-0.180	-0.120	0.840
2020/01/31 07:20:06.5	89.010	-0.140	-0.270	0.790
2020/01/31 07:20:06.6	89.010	-0.080	-0.410	0.750
2020/01/31 07:20:06.7	89.000	-0.030	-0.550	0.700
2020/01/31 07:20:06.8	89.000	0.020	-0.700	0.650
2020/01/31 07:20:06.9	89.000	0.080	-0.840	0.600
2020/01/31 07:20:07.0	89.000	0.130	-0.980	0.550
2020/01/31 07:20:07.1	89.010	0.190	-1.110	0.500
2020/01/31 07:20:07.2	89.020	0.240	-1.250	0.450
2020/01/31 07:20:07.3	89.030	0.300	-1.370	0.400
2020/01/31 07:20:07.4	89.040	0.350	-1.490	0.350
2020/01/31 07:20:07.5	89.050	0.400	-1.610	0.310
2020/01/31 07:20:07.6	89.070	0.450	-1.720	0.260
2020/01/31 07:20:07.7	89.090	0.500	-1.820	0.210
2020/01/31 07:20:07.8	89.110	0.540	-1.900	0.170
2020/01/31 07:20:07.9	89.130	0.590	-1.980	0.120
2020/01/31 07:20:08.0	89.150	0.620	-2.050	0.080
2020/01/31 07:20:08.1	89.180	0.660	-2.110	0.040
2020/01/31 07:20:08.2	89.210	0.690	-2.160	0.010
2020/01/31 07:20:08.3	89.230	0.720	-2.200	-0.030
2020/01/31 07:20:08.4	89.260	0.740	-2.220	-0.060
2020/01/31 07:20:08.5	89.290	0.760	-2.230	-0.090
2020/01/31 07:20:08.6	89.320	0.780	-2.230	-0.110
2020/01/31 07:20:08.7	89.350	0.790	-2.210	-0.140
2020/01/31 07:20:08.8	89.380	0.800	-2.180	-0.150
2020/01/31 07:20:08.9	89.410	0.800	-2.140	-0.170
2020/01/31 07:20:09.0	89.450	0.790	-2.090	-0.180
2020/01/31 07:20:09.1	89.480	0.790	-2.020	-0.190
2020/01/31 07:20:09.2	89.510	0.770	-1.940	-0.190
2020/01/31 07:20:09.3	89.530	0.760	-1.840	-0.190
2020/01/31 07:20:09.4	89.560	0.740	-1.740	-0.180
2020/01/31 07:20:09.5	89.590	0.710	-1.630	-0.170
2020/01/31 07:20:09.6	89.620	0.680	-1.500	-0.150
2020/01/31 07:20:09.7	89.640	0.650	-1.370	-0.130
2020/01/31 07:20:09.8	89.660	0.610	-1.230	-0.110
2020/01/31 07:20:09.9	89.680	0.570	-1.080	-0.070
2020/01/31 07:20:10.0	89.700	0.530	-0.920	-0.040
2020/01/31 07:20:10.1	89.720	0.480	-0.760	0.000
2020/01/31 07:20:10.2	89.730	0.430	-0.590	0.050
2020/01/31 07:20:10.3	89.740	0.380	-0.420	0.100
2020/01/31 07:20:10.4	89.740	0.330	-0.250	0.160
2020/01/31 07:20:10.5	89.750	0.270	-0.070	0.220
2020/01/31 07:20:10.6	89.750	0.220	0.100	0.280
2020/01/31 07:20:10.7	89.740	0.160	0.270	0.350
2020/01/31 07:20:10.8	89.740	0.100	0.440	0.420
2020/01/31 07:20:10.9	89.730	0.040	0.610	0.490
2020/01/31 07:20:11.0	89.720	-0.010	0.770	0.560
2020/01/31 07:20:11.1	89.710	-0.070	0.930	0.640
2020/01/31 07:20:11.2	89.690	-0.130	1.080	0.710
2020/01/31 07:20:11.3	89.680	-0.190	1.220	0.790
2020/01/31 07:20:11.4	89.660	-0.240	1.350	0.870
2020/01/31 07:20:11.5	89.640	-0.300	1.480	0.950
2020/01/31 07:20:11.6	89.610	-0.350	1.590	1.020
2020/01/31 07:20:11.7	89.590	-0.400	1.700	1.100
2020/01/31 07:20:11.8	89.560	-0.450	1.790	1.170
2020/01/31 07:20:11.9	89.530	-0.490	1.870	1.240
2020/01/31 07:20:12.0	89.500	-0.540	1.940	1.310
2020/01/31 07:20:12.1	89.470	-0.580	1.990	1.370
2020/01/31 07:20:12.2	89.450	-0.610	2.040	1.430
2020/01/31 07:20:12.3	89.410	-0.650	2.070	1.490
2020/01/31 07:20:12.4	89.380	-0.680	2.080	1.550
2020/01/31 07:20:12.5	89.350	-0.710	2.090	1.600
2020/01/31 07:20:12.6	89.330	-0.730	2.080	1.650
2020/01/31 07:20:12.7	89.300	-0.750	2.060	1.690
2020/01/31 07:20:12.8	89.270	-0.770	2.030	1.730
2020/01/31 07:20:12.9	89.250	-0.780	1.990	1.760
2020/01/31 07:20:13.0	89.230	-0.790	1.930	1.790
2020/01/31 07:20:13.1	89.200	-0.800	1.870	1.810
2020/01/31 07:20:13.2	89.190	-0.800	1.790	1.830
2020/01/31 07:20:13.3	89.170	-0.800	1.700	1.850
2020/01/31 07:20:13.4	89.150	-0.800	1.600	1.860
2020/01/31 07:20:13.5	89.140	-0.790	1.500	1.860
2020/01/31 07:20:13.6	89.130	-0.780	1.380	1.860
2020/01/31 07:20:13.7	89.120	-0.760	1.260	1.860
2020/01/31 07:20:13.8	89.120	-0.750	1.130	1.860
2020/01/31 07:20:13.9	89.110	-0.730	0.990	1.850
2020/01/31 07:20:14.0	89.110	-0.700	0.850	1.830
2020/01/31 07:20:14.1	89.110	-0.680	0.710	1.820
2020/01/31 07:20:14.2	89.110	-0.650	0.560	1.800
2020/01/31 07:20:14.3	89.120	-0.620	0.400	1.780
2020/01/31 07:20:14.4	89.120	-0.590	0.250	1.750
2020/01/31 07:20:14.5	89.130	-0.550	0.090	1.730
2020/01/31 07:20:14.6	89.140	-0.520	-0.060	1.700
2020/01/31 07:20:14.7	89.150	-0.480	-0.220	1.670
2020/01/31 07:20:14.8	89.160	-0.440	-0.370	1.640
2020/01/31 07:20:14.9	89.180	-0.400	-0.520	1.610
2020/01/31 07:20:15.0	89.190	-0.350	-0.670	1.580
2020/01/31 07:20:15.1	89.210	-0.310	-0.810	1.540
2020/01/31 07:20:15.2	89.220	-0.270	-0.950	1.510
2020/01/31 07:20:15.3	89.240	-0.220	-1.090	1.480
2020/01/31 07:20:15.4	89.260	-0.180	-1.210	1.450
2020/01/31 07:20:15.5	89.270	-0.130	-1.330	1.410
2020/01/31 07:20:15.6	89.290	-0.090	-1.450	1.380
2020/01/31 07:20:15.7	89.310	-0.040	-1.550	1.360
2020/01/31 07:20:15.8	89.330	0.000	-1.650	1.330
2020/01/31 07:20:15.9	89.340	0.040	-1.730	1.300
2020/01/31 07:20:16.0	89.360	0.090	-1.810	1.270
2020/01/31 07:20:16.1	89.370	0.130	-1.880	1.250
2020/01/31 07:20:16.2	89.390	0.170	-1.940	1.230
2020/01/31 07:20:16.3	89.410	0.210	-1.990	1.210
2020/01/31 07:20:16.4	89.420	0.240	-2.030	1.190
2020/01/31 07:20:16.5	89.430	0.280	-2.050	1.170
2020/01/31 07:20:16.6	89.440	0.310	-2.070	1.150
2020/01/31 07:20:16.7	89.450	0.340	-2.080	1.130
2020/01/31 07:20:16.8	89.460	0.370	-2.070	1.120
2020/01/31 07:20:16.9	89.470	0.400	-2.060	1.100
2020/01/31 07:20:17.0	89.480	0.420	-2.040	1.090
2020/01/31 07:20:17.1	89.490	0.440	-2.010	1.070
2020/01/31 07:20:17.2	89.490	0.460	-1.970	1.060
2020/01/31 07:20:17.3	89.500	0.480	-1.910	1.040
2020/01/31 07:20:17.4	89.510	0.500	-1.850	1.030
2020/01/31 07:20:17.5	89.520	0.510	-1.790	1.010
2020/01/31 07:20:17.6	89.530	0.520	-1.720	1.000
2020/01/31 07:20:17.7	89.540	0.530	-1.640	0.980
2020/01/31 07:20:17.8	89.540	0.530	-1.550	0.970
2020/01/31 07:20:17.9	89.550	0.540	-1.460	0.950
2020/01/31 07:20:18.0	89.560	0.540	-1.370	0.940
2020/01/31 07:20:18.1	89.570	0.540	-1.270	0.920
2020/01/31 07:20:18.2	89.580	0.530	-1.170	0.910
2020/01/31 07:20:18.3	89.580	0.530	-1.060	0.900
2020/01/31 07:20:18.4	89.580	0.520	-0.950	0.900
2020/01/31 07:20:18.5	89.590	0.510	-0.840	0.890
2020/01/31 07:20:18.6	89.580	0.500	-0.730	0.890
2020/01/31 07:20:18.7	89.580	0.490	-0.620	0.890
2020/01/31 07:20:18.8	89.580	0.480	-0.510	0.890
2020/01/31 07:20:18.9	89.570	0.470	-0.400	0.900
2020/01/31 07:20:19.0	89.560	0.450	-0.300	0.910
2020/01/31 07:20:19.1	89.550	0.430	-0.190	0.930
2020/01/31 07:20:19.2	89.530	0.420	-0.080	0.940
2020/01/31 07:20:19.3	89.520	0.400	0.020	0.970
2020/01/31 07:20:19.4	89.500	0.380	0.120	0.990
2020/01/31 07:20:19.5	89.480	0.360	0.220	1.010
2020/01/31 07:20:19.6	89.450	0.340	0.310	1.040
2020/01/31 07:20:19.7	89.420	0.320	0.390	1.070
2020/01/31 07:20:19.8	89.390	0.290	0.480	1.090
2020/01/31 07:20:19.9	89.360	0.270	0.560	1.120
2020/01/31 07:20:20.0	89.330	0.250	0.630	1.150
2020/01/31 07:20:20.1	89.300	0.220	0.700	1.180
2020/01/31 07:20:20.2	89.260	0.200	0.760	1.200
2020/01/31 07:20:20.3	89.220	0.170	0.820	1.230
2020/01/31 07:20:20.4	89.190	0.150	0.870	1.250
2020/01/31 07:20:20.5	89.160	0.120	0.920	1.260
2020/01/31 07:20:20.6	89.120	0.090	0.970	1.280
2020/01/31 07:20:20.7	89.090	0.070	1.000	1.290
2020/01/31 07:20:20.8	89.050	0.040	1.040	1.290
2020/01/31 07:20:20.9	89.020	0.010	1.060	1.300
2020/01/31 07:20:21.0	88.990	-0.010	1.090	1.290
2020/01/31 07:20:21.1	88.960	-0.040	1.100	1.290
2020/01/31 07:20:21.2	88.930	-0.070	1.110	1.280
2020/01/31 07:20:21.3	88.900	-0.090	1.120	1.260
2020/01/31 07:20:21.4	88.870	-0.120	1.120	1.240
2020/01/31 07:20:21.5	88.850	-0.140	1.120	1.210
2020/01/31 07:20:21.6	88.820	-0.170	1.110	1.180
2020/01/31 07:20:21.7	88.800	-0.190	1.100	1.150
2020/01/31 07:20:21.8	88.780	-0.210	1.080	1.110
2020/01/31 07:20:21.9	88.760	-0.230	1.060	1.070
2020/01/31 07:20:22.0	88.740	-0.250	1.040	1.030
2020/01/31 07:20:22.1	88.720	-0.270	1.010	0.980
2020/01/31 07:20:22.2	88.700	-0.280	0.970	0.930
2020/01/31 07:20:22.3	88.680	-0.290	0.930	0.880
2020/01/31 07:20:22.4	88.670	-0.300	0.890	0.820
2020/01/31 07:20:22.5	88.660	-0.310	0.840	0.760
2020/01/31 07:20:22.6	88.650	-0.320	0.790	0.710
2020/01/31 07:20:22.7	88.640	-0.320	0.740	0.650
2020/01/31 07:20:22.8	88.640	-0.320	0.680	0.580
2020/01/31 07:20:22.9	88.640	-0.320	0.620	0.520
2020/01/31 07:20:23.0	88.630	-0.320	0.550	0.460
2020/01/31 07:20:23.1	88.640	-0.310	0.480	0.390
2020/01/31 07:20:23.2	88.640	-0.300	0.410	0.330
2020/01/31 07:20:23.3	88.640	-0.290	0.330	0.260
2020/01/31 07:20:23.4	88.650	-0.270	0.250	0.190
2020/01/31 07:20:23.5	88.660	-0.260	0.170	0.120
2020/01/31 07:20:23.6	88.680	-0.240	0.090	0.060
2020/01/31 07:20:23.7	88.700	-0.220	0.010	-0.010
2020/01/31 07:20:23.8	88.720	-0.200	-0.080	-0.080
2020/01/31 07:20:23.9	88.740	-0.170	-0.160	-0.140
2020/01/31 07:20:24.0	88.770	-0.150	-0.250	-0.200
2020/01/31 07:20:24.1	88.790	-0.120	-0.330	-0.270
2020/01/31 07:20:24.2	88.820	-0.100	-0.410	-0.330
2020/01/31 07:20:24.3	88.860	-0.070	-0.500	-0.380
2020/01/31 07:20:24.4	88.890	-0.040	-0.580	-0.440
2020/01/31 07:20:24.5	88.920	-0.010	-0.660	-0.490
2020/01/31 07:20:24.6	88.960	0.020	-0.730	-0.540
2020/01/31 07:20:24.7	89.000	0.050	-0.810	-0.590
2020/01/31 07:20:24.8	89.030	0.070	-0.880	-0.630
2020/01/31 07:20:24.9	89.070	0.100	-0.940	-0.670
2020/01/31 07:20:25.0	89.110	0.130	-1.000	-0.710
2020/01/31 07:20:25.1	89.140	0.150	-1.060	-0.740
2020/01/31 07:20:25.2	89.180	0.180	-1.110	-0.760
2020/01/31 07:20:25.3	89.220	0.200	-1.160	-0.780
2020/01/31 07:20:25.4	89.250	0.230	-1.200	-0.790
2020/01/31 07:20:25.5	89.280	0.250	-1.230	-0.800
2020/01/31 07:20:25.6	89.310	0.270	-1.260	-0.800
2020/01/31 07:20:25.7	89.330	0.290	-1.290	-0.800
2020/01/31 07:20:25.8	89.350	0.300	-1.300	-0.780
2020/01/31 07:20:25.9	89.380	0.320	-1.310	-0.760
2020/01/31 07:20:26.0	89.390	0.330	-1.320	-0.740
2020/01/31 07:20:26.1	89.410	0.340	-1.310	-0.710
2020/01/31 07:20:26.2	89.420	0.350	-1.300	-0.670
2020/01/31 07:20:26.3	89.430	0.360	-1.290	-0.620
2020/01/31 07:20:26.4	89.440	0.360	-1.270	-0.560
2020/01/31 07:20:26.5	89.440	0.370	-1.240	-0.500
2020/01/31 07:20:26.6	89.450	0.370	-1.200	-0.440
2020/01/31 07:20:26.7	89.450	0.370	-1.160	-0.360
2020/01/31 07:20:26.8	89.450	0.370	-1.110	-0.280
2020/01/31 07:20:26.9	89.440	0.360	-1.060	-0.200
2020/01/31 07:20:27.0	89.440	0.360	-1.000	-0.110
2020/01/31 07:20:27.1	89.440	0.350	-0.940	-0.020
2020/01/31 07:20:27.2	89.430	0.340	-0.870	0.080
2020/01/31 07:20:27.3	89.420	0.330	-0.800	0.180
2020/01/31 07:20:27.4	89.420	0.310	-0.720	0.290
2020/01/31 07:20:27.5	89.410	0.300	-0.640	0.400
2020/01/31 07:20:27.6	89.400	0.280	-0.560	0.510
2020/01/31 07:20:27.7	89.390	0.260	-0.480	0.620
2020/01/31 07:20:27.8	89.380	0.240	-0.390	0.730
2020/01/31 07:20:27.9	89.370	0.210	-0.300	0.850
2020/01/31 07:20:28.0	89.350	0.190	-0.210	0.970
2020/01/31 07:20:28.1	89.340	0.160	-0.120	1.080
2020/01/31 07:20:28.2	89.330	0.130	-0.030	1.200
2020/01/31 07:20:28.3	89.320	0.100	0.060	1.320
2020/01/31 07:20:28.4	89.300	0.070	0.150	1.440
2020/01/31 07:20:28.5	89.290	0.030	0.230	1.550
2020/01/31 07:20:28.6	89.270	0.000	0.320	1.670
2020/01/31 07:20:28.7	89.260	-0.030	0.400	1.780
2020/01/31 07:20:28.8	89.240	-0.070	0.480	1.890
2020/01/31 07:20:28.9	89.220	-0.110	0.550	1.990
2020/01/31 07:20:29.0	89.200	-0.140	0.620	2.090
2020/01/31 07:20:29.1	89.180	-0.180	0.680	2.190
2020/01/31 07:20:29.2	89.160	-0.220	0.740	2.280
2020/01/31 07:20:29.3	89.120	-0.250	0.790	2.360
2020/01/31 07:20:29.4	89.100	-0.290	0.840	2.450
2020/01/31 07:20:29.5	89.080	-0.330	0.880	2.520
2020/01/31 07:20:29.6	89.050	-0.360	0.910	2.590
2020/01/31 07:20:29.7	89.030	-0.390	0.940	2.650
2020/01/31 07:20:29.8	89.010	-0.430	0.950	2.710
2020/01/31 07:20:29.9	88.980	-0.460	0.960	2.760
2020/01/31 07:20:30.0	88.960	-0.490	0.960	2.800
2020/01/31 07:20:30.1	88.940	-0.510	0.960	2.840
2020/01/31 07:20:30.2	88.920	-0.540	0.940	2.870
2020/01/31 07:20:30.3	88.900	-0.560	0.920	2.890
2020/01/31 07:20:30.4	88.880	-0.580	0.900	2.910
2020/01/31 07:20:30.5	88.860	-0.600	0.860	2.920
2020/01/31 07:20:30.6	88.840	-0.610	0.820	2.920
2020/01/31 07:20:30.7	88.830	-0.620	0.770	2.920
2020/01/31 07:20:30.8	88.810	-0.630	0.710	2.910
2020/01/31 07:20:30.9	88.800	-0.640	0.650	2.890
2020/01/31 07:20:31.0	88.790	-0.640	0.590	2.870
2020/01/31 07:20:31.1	88.780	-0.640	0.520	2.840
2020/01/31 07:20:31.2	88.780	-0.630	0.450	2.810
2020/01/31 07:20:31.3	88.770	-0.620	0.370	2.770
2020/01/31 07:20:31.4	88.770	-0.610	0.290	2.720
2020/01/31 07:20:31.5	88.770	-0.590	0.210	2.680
2020/01/31 07:20:31.6	88.770	-0.570	0.120	2.620
2020/01/31 07:20:31.7	88.770	-0.550	0.040	2.570
2020/01/31 07:20:31.8	88.780	-0.530	-0.050	2.500
2020/01/31 07:20:31.9	88.780	-0.500	-0.130	2.440
2020/01/31 07:20:32.0	88.790	-0.470	-0.210	2.370
2020/01/31 07:20:32.1	88.800	-0.440	-0.300	2.300
2020/01/31 07:20:32.2	88.810	-0.400	-0.380	2.220
2020/01/31 07:20:32.3	88.810	-0.360	-0.460	2.140
2020/01/31 07:20:32.4	88.820	-0.330	-0.530	2.060
2020/01/31 07:20:32.5	88.830	-0.280	-0.600	1.980
2020/01/31 07:20:32.6	88.840	-0.240	-0.670	1.890
2020/01/31 07:20:32.7	88.850	-0.200	-0.740	1.810
2020/01/31 07:20:32.8	88.860	-0.160	-0.800	1.720
2020/01/31 07:20:32.9	88.870	-0.120	-0.850	1.630
2020/01/31 07:20:33.0	88.880	-0.070	-0.900	1.530
2020/01/31 07:20:33.1	88.890	-0.030	-0.950	1.440
2020/01/31 07:20:33.2	88.900	0.010	-0.990	1.350
2020/01/31 07:20:33.3	88.920	0.060	-1.020	1.250
2020/01/31 07:20:33.4	88.930	0.100	-1.050	1.150
2020/01/31 07:20:33.5	88.940	0.140	-1.070	1.060
2020/01/31 07:20:33.6	88.950	0.180	-1.080	0.960
2020/01/31 07:20:33.7	88.950	0.220	-1.090	0.870
2020/01/31 07:20:33.8	88.960	0.250	-1.090	0.770
2020/01/31 07:20:33.9	88.970	0.290	-1.080	0.680
2020/01/31 07:20:34.0	88.980	0.320	-1.070	0.590
2020/01/31 07:20:34.1	88.990	0.350	-1.060	0.500
2020/01/31 07:20:34.2	88.990	0.380	-1.030	0.410
2020/01/31 07:20:34.3	89.010	0.410	-1.000	0.320
2020/01/31 07:20:34.4	89.010	0.440	-0.970	0.240
2020/01/31 07:20:34.5	89.020	0.460	-0.940	0.160
2020/01/31 07:20:34.6	89.030	0.490	-0.900	0.080
2020/01/31 07:20:34.7	89.040	0.510	-0.850	0.000
2020/01/31 07:20:34.8	89.040	0.530	-0.810	-0.070
2020/01/31 07:20:34.9	89.050	0.540	-0.760	-0.130
2020/01/31 07:20:35.0	89.060	0.560	-0.700	-0.200
2020/01/31 07:20:35.1	89.060	0.570	-0.650	-0.260
2020/01/31 07:20:35.2	89.070	0.590	-0.590	-0.310
2020/01/31 07:20:35.3	89.080	0.600	-0.540	-0.360
2020/01/31 07:20:35.4	89.080	0.600	-0.480	-0.410
2020/01/31 07:20:35.5	89.090	0.610	-0.420	-0.450
2020/01/31 07:20:35.6	89.100	0.620	-0.370	-0.490
2020/01/31 07:20:35.7	89.100	0.620	-0.310	-0.530
2020/01/31 07:20:35.8	89.110	0.620	-0.250	-0.560
2020/01/31 07:20:35.9	89.110	0.620	-0.200	-0.580
2020/01/31 07:20:36.0	89.110	0.620	-0.150	-0.600
2020/01/31 07:20:36.1	89.110	0.620	-0.100	-0.620
2020/01/31 07:20:36.2	89.120	0.620	-0.050	-0.640
2020/01/31 07:20:36.3	89.130	0.610	-0.010	-0.640
2020/01/31 07:20:36.4	89.130	0.600	0.030	-0.650
2020/01/31 07:20:36.5	89.130	0.590	0.070	-0.650
2020/01/31 07:20:36.6	89.120	0.580	0.110	-0.660
2020/01/31 07:20:36.7	89.120	0.570	0.140	-0.650
2020/01/31 07:20:36.8	89.120	0.560	0.170	-0.650
2020/01/31 07:20:36.9	89.110	0.540	0.190	-0.640
2020/01/31 07:20:37.0	89.110	0.520	0.210	-0.630
2020/01/31 07:20:37.1	89.100	0.500	0.230	-0.620
2020/01/31 07:20:37.2	89.100	0.480	0.250	-0.600
2020/01/31 07:20:37.3	89.080	0.460	0.260	-0.590
2020/01/31 07:20:37.4	89.080	0.430	0.270	-0.570
2020/01/31 07:20:37.5	89.070	0.400	0.280	-0.550
2020/01/31 07:20:37.6	89.060	0.380	0.280	-0.520
2020/01/31 07:20:37.7	89.050	0.350	0.280	-0.500
2020/01/31 07:20:37.8	89.040	0.320	0.280	-0.470
2020/01/31 07:20:37.9	89.030	0.280	0.280	-0.430
2020/01/31 07:20:38.0	89.020	0.250	0.280	-0.400
2020/01/31 07:20:38.1	89.010	0.220	0.270	-0.370
2020/01/31 07:20:38.2	89.010	0.180	0.260	-0.330
2020/01/31 07:20:38.3	89.000	0.140	0.250	-0.290
2020/01/31 07:20:38.4	88.990	0.110	0.240	-0.250
2020/01/31 07:20:38.5	88.980	0.070	0.230	-0.200
2020/01/31 07:20:38.6	88.970	0.040	0.220	-0.160
2020/01/31 07:20:38.7	88.970	-0.000	0.210	-0.110
2020/01/31 07:20:38.8	88.960	-0.040	0.190	-0.060
2020/01/31 07:20:38.9	88.960	-0.070	0.180	-0.010
2020/01/31 07:20:39.0	88.950	-0.110	0.170	0.050
2020/01/31 07:20:39.1	88.950	-0.140	0.150	0.100
2020/01/31 07:20:39.2	88.950	-0.170	0.140	0.160
2020/01/31 07:20:39.3	88.940	-0.200	0.130	0.220
2020/01/31 07:20:39.4	88.940	-0.230	0.120	0.280
2020/01/31 07:20:39.5	88.940	-0.260	0.110	0.350
2020/01/31 07:20:39.6	88.940	-0.280	0.100	0.420
2020/01/31 07:20:39.7	88.940	-0.300	0.080	0.490
2020/01/31 07:20:39.8	88.940	-0.330	0.070	0.560
2020/01/31 07:20:39.9	88.940	-0.340	0.070	0.630
2020/01/31 07:20:40.0	88.940	-0.360	0.060	0.700
2020/01/31 07:20:40.1	88.940	-0.370	0.050	0.780
2020/01/31 07:20:40.2	88.940	-0.390	0.040	0.850
2020/01/31 07:20:40.3	88.930	-0.400	0.030	0.930
2020/01/31 07:20:40.4	88.930	-0.400	0.020	1.000
2020/01/31 07:20:40.5	88.930	-0.410	0.020	1.080
2020/01/31 07:20:40.6	88.940	-0.410	0.010	1.160
2020/01/31 07:20:40.7	88.940	-0.410	0.010	1.230
2020/01/31 07:20:40.8	88.940	-0.410	0.000	1.310
2020/01/31 07:20:40.9	88.950	-0.410	-0.000	1.390
2020/01/31 07:20:41.0	88.950	-0.400	-0.010	1.460
2020/01/31 07:20:41.1	88.950	-0.400	-0.010	1.540
2020/01/31 07:20:41.2	88.960	-0.390	-0.010	1.610
2020/01/31 07:20:41.3	88.960	-0.380	-0.020	1.680
2020/01/31 07:20:41.4	88.970	-0.370	-0.030	1.750
2020/01/31 07:20:41.5	88.970	-0.360	-0.040	1.820
2020/01/31 07:20:41.6	88.980	-0.350	-0.040	1.890
2020/01/31 07:20:41.7	88.990	-0.340	-0.050	1.960
2020/01/31 07:20:41.8	88.990	-0.330	-0.060	2.020
2020/01/31 07:20:41.9	89.000	-0.320	-0.070	2.080
2020/01/31 07:20:42.0	89.000	-0.300	-0.090	2.140
2020/01/31 07:20:42.1	89.010	-0.290	-0.100	2.190
2020/01/31 07:20:42.2	89.010	-0.280	-0.120	2.250
2020/01/31 07:20:42.3	89.010	-0.260	-0.130	2.300
2020/01/31 07:20:42.4	89.020	-0.250	-0.150	2.340
2020/01/31 07:20:42.5	89.020	-0.240	-0.160	2.380
2020/01/31 07:20:42.6	89.030	-0.230	-0.180	2.420
2020/01/31 07:20:42.7	89.030	-0.220	-0.200	2.460
2020/01/31 07:20:42.8	89.040	-0.210	-0.220	2.490
2020/01/31 07:20:42.9	89.040	-0.200	-0.240	2.520
2020/01/31 07:20:43.0	89.050	-0.190	-0.260	2.550
2020/01/31 07:20:43.1	89.050	-0.180	-0.270	2.570
2020/01/31 07:20:43.2	89.050	-0.170	-0.290	2.590
2020/01/31 07:20:43.3	89.050	-0.170	-0.310	2.600
2020/01/31 07:20:43.4	89.050	-0.160	-0.330	2.620
2020/01/31 07:20:43.5	89.050	-0.150	-0.340	2.620
2020/01/31 07:20:43.6	89.040	-0.150	-0.350	2.630
2020/01/31 07:20:43.7	89.040	-0.150	-0.360	2.640
2020/01/31 07:20:43.8	89.040	-0.140	-0.370	2.630
2020/01/31 07:20:43.9	89.030	-0.140	-0.380	2.630
2020/01/31 07:20:44.0	89.020	-0.140	-0.390	2.630
2020/01/31 07:20:44.1	89.020	-0.130	-0.400	2.620
2020/01/31 07:20:44.2	89.010	-0.130	-0.400	2.610
2020/01/31 07:20:44.3	88.990	-0.130	-0.400	2.590
2020/01/31 07:20:44.4	88.980	-0.130	-0.400	2.570
2020/01/31 07:20:44.5	88.960	-0.120	-0.400	2.550
2020/01/31 07:20:44.6	88.950	-0.120	-0.400	2.530
2020/01/31 07:20:44.7	88.940	-0.120	-0.390	2.500
2020/01/31 07:20:44.8	88.930	-0.110	-0.390	2.470
2020/01/31 07:20:44.9	88.910	-0.110	-0.380	2.440
2020/01/31 07:20:45.0	88.900	-0.100	-0.380	2.400
2020/01/31 07:20:45.1	88.890	-0.100	-0.370	2.360
2020/01/31 07:20:45.2	88.870	-0.090	-0.370	2.320
2020/01/31 07:20:45.3	88.860	-0.080	-0.360	2.260
2020/01/31 07:20:45.4	88.850	-0.080	-0.360	2.210
2020/01/31 07:20:45.5	88.840	-0.070	-0.350	2.160
2020/01/31 07:20:45.6	88.830	-0.060	-0.350	2.100
2020/01/31 07:20:45.7	88.820	-0.050	-0.340	2.040
2020/01/31 07:20:45.8	88.820	-0.030	-0.340	1.970
2020/01/31 07:20:45.9	88.810	-0.020	-0.330	1.900
2020/01/31 07:20:46.0	88.810	-0.010	-0.330	1.830
2020/01/31 07:20:46.1	88.810	0.010	-0.330	1.750
2020/01/31 07:20:46.2	88.810	0.020	-0.320	1.670
2020/01/31 07:20:46.3	88.820	0.040	-0.320	1.590
2020/01/31 07:20:46.4	88.820	0.060	-0.320	1.500
2020/01/31 07:20:46.5	88.820	0.070	-0.320	1.420
2020/01/31 07:20:46.6	88.830	0.090	-0.320	1.330
2020/01/31 07:20:46.7	88.830	0.110	-0.320	1.240
2020/01/31 07:20:46.8	88.840	0.130	-0.320	1.150
2020/01/31 07:20:46.9	88.840	0.150	-0.320	1.050
2020/01/31 07:20:47.0	88.840	0.160	-0.320	0.960
2020/01/31 07:20:47.1	88.850	0.180	-0.320	0.870
2020/01/31 07:20:47.2	88.850	0.200	-0.320	0.770
2020/01/31 07:20:47.3	88.870	0.220	-0.320	0.680
2020/01/31 07:20:47.4	88.870	0.230	-0.320	0.590
2020/01/31 07:20:47.5	88.880	0.250	-0.320	0.500
2020/01/31 07:20:47.6	88.880	0.260	-0.320	0.410
2020/01/31 07:20:47.7	88.890	0.280	-0.310	0.320
2020/01/31 07:20:47.8	88.890	0.290	-0.310	0.230
2020/01/31 07:20:47.9	88.900	0.300	-0.310	0.150
2020/01/31 07:20:48.0	88.900	0.310	-0.300	0.070
2020/01/31 07:20:48.1	88.900	0.320	-0.300	-0.010
2020/01/31 07:20:48.2	88.900	0.320	-0.290	-0.090
2020/01/31 07:20:48.3	88.910	0.330	-0.290	-0.170
2020/01/31 07:20:48.4	88.910	0.330	-0.280	-0.240
2020/01/31 07:20:48.5	88.910	0.330	-0.270	-0.310
2020/01/31 07:20:48.6	88.910	0.330	-0.260	-0.380
2020/01/31 07:20:48.7	88.910	0.330	-0.250	-0.440
2020/01/31 07:20:48.8	88.920	0.330	-0.230	-0.510
2020/01/31 07:20:48.9	88.920	0.320	-0.210	-0.570
2020/01/31 07:20:49.0	88.920	0.310	-0.200	-0.620
2020/01/31 07:20:49.1	88.920	0.300	-0.180	-0.680
2020/01/31 07:20:49.2	88.930	0.290	-0.160	-0.730
2020/01/31 07:20:49.3	88.920	0.280	-0.130	-0.780
2020/01/31 07:20:49.4	88.930	0.270	-0.100	-0.820
2020/01/31 07:20:49.5	88.930	0.250	-0.080	-0.860
2020/01/31 07:20:49.6	88.930	0.230	-0.050	-0.900
2020/01/31 07:20:49.7	88.940	0.210	-0.020	-0.940
2020/01/31 07:20:49.8	88.940	0.190	0.010	-0.970
2020/01/31 07:20:49.9	88.940	0.170	0.040	-1.000
2020/01/31 07:20:50.0	88.950	0.150	0.070	-1.030
2020/01/31 07:20:50.1	88.950	0.130	0.100	-1.050
2020/01/31 07:20:50.2	88.950	0.100	0.130	-1.070
2020/01/31 07:20:50.3	88.950	0.080	0.160	-1.090
2020/01/31 07:20:50.4	88.950	0.060	0.190	-1.100
2020/01/31 07:20:50.5	88.950	0.040	0.220	-1.100
2020/01/31 07:20:50.6	88.950	0.010	0.250	-1.110
2020/01/31 07:20:50.7	88.950	-0.010	0.270	-1.100
2020/01/31 07:20:50.8	88.950	-0.030	0.290	-1.100
2020/01/31 07:20:50.9	88.950	-0.050	0.310	-1.090
2020/01/31 07:20:51.0	88.960	-0.070	0.330	-1.070
2020/01/31 07:20:51.1	88.960	-0.080	0.340	-1.050
2020/01/31 07:20:51.2	88.960	-0.100	0.350	-1.030
2020/01/31 07:20:51.3	88.950	-0.110	0.350	-1.000
2020/01/31 07:20:51.4	88.950	-0.120	0.350	-0.970
2020/01/31 07:20:51.5	88.950	-0.130	0.350	-0.930
2020/01/31 07:20:51.6	88.950	-0.140	0.340	-0.890
2020/01/31 07:20:51.7	88.950	-0.140	0.330	-0.840
2020/01/31 07:20:51.8	88.950	-0.140	0.310	-0.800
2020/01/31 07:20:51.9	88.960	-0.140	0.290	-0.750
2020/01/31 07:20:52.0	88.960	-0.140	0.270	-0.690
2020/01/31 07:20:52.1	88.960	-0.140	0.240	-0.630
2020/01/31 07:20:52.2	88.960	-0.130	0.200	-0.570
2020/01/31 07:20:52.3	88.960	-0.120	0.160	-0.510
2020/01/31 07:20:52.4	88.960	-0.110	0.120	-0.440
2020/01/31 07:20:52.5	88.970	-0.090	0.070	-0.370
2020/01/31 07:20:52.6	88.970	-0.080	0.030	-0.300
2020/01/31 07:20:52.7	88.980	-0.060	-0.020	-0.230
2020/01/31 07:20:52.8	88.980	-0.050	-0.070	-0.150
2020/01/31 07:20:52.9	88.980	-0.030	-0.130	-0.080
2020/01/31 07:20:53.0	88.990	-0.010	-0.180	0.000
2020/01/31 07:20:53.1	88.990	0.000	-0.230	0.090
2020/01/31 07:20:53.2	89.000	0.020	-0.280	0.170
2020/01/31 07:20:53.3	89.010	0.040	-0.340	0.260
2020/01/31 07:20:53.4	89.010	0.050	-0.390	0.340
2020/01/31 07:20:53.5	89.020	0.070	-0.440	0.430
2020/01/31 07:20:53.6	89.020	0.080	-0.480	0.520
2020/01/31 07:20:53.7	89.020	0.100	-0.530	0.610
2020/01/31 07:20:53.8	89.030	0.110	-0.570	0.700
2020/01/31 07:20:53.9	89.030	0.120	-0.600	0.790
2020/01/31 07:20:54.0	89.030	0.130	-0.630	0.880
2020/01/31 07:20:54.1	89.030	0.140	-0.660	0.970
2020/01/31 07:20:54.2	89.040	0.140	-0.690	1.060
2020/01/31 07:20:54.3	89.050	0.150	-0.710	1.150
2020/01/31 07:20:54.4	89.050	0.150	-0.720	1.240
2020/01/31 07:20:54.5	89.050	0.150	-0.740	1.320
2020/01/31 07:20:54.6	89.050	0.150	-0.740	1.410
2020/01/31 07:20:54.7	89.060	0.140	-0.740	1.490
2020/01/31 07:20:54.8	89.060	0.140	-0.730	1.570
2020/01/31 07:20:54.9	89.060	0.130	-0.720	1.650
2020/01/31 07:20:55.0	89.070	0.130	-0.710	1.720
2020/01/31 07:20:55.1	89.070	0.120	-0.690	1.800
2020/01/31 07:20:55.2	89.070	0.110	-0.660	1.870
2020/01/31 07:20:55.3	89.080	0.100	-0.630	1.940
2020/01/31 07:20:55.4	89.080	0.090	-0.600	2.000
2020/01/31 07:20:55.5	89.080	0.080	-0.570	2.060
2020/01/31 07:20:55.6	89.080	0.070	-0.530	2.120
2020/01/31 07:20:55.7	89.090	0.060	-0.480	2.170
2020/01/31 07:20:55.8	89.090	0.050	-0.440	2.220
2020/01/31 07:20:55.9	89.090	0.040	-0.390	2.270
2020/01/31 07:20:56.0	89.100	0.030	-0.340	2.310
2020/01/31 07:20:56.1	89.100	0.020	-0.290	2.350
2020/01/31 07:20:56.2	89.100	0.010	-0.240	2.390
2020/01/31 07:20:56.3	89.100	-0.000	-0.190	2.420
2020/01/31 07:20:56.4	89.100	-0.010	-0.140	2.450
2020/01/31 07:20:56.5	89.100	-0.020	-0.090	2.480
2020/01/31 07:20:56.6	89.100	-0.030	-0.040	2.510
2020/01/31 07:20:56.7	89.110	-0.030	0.010	2.530
2020/01/31 07:20:56.8	89.110	-0.040	0.060	2.550
2020/01/31 07:20:56.9	89.110	-0.050	0.100	2.560
2020/01/31 07:20:57.0	89.110	-0.060	0.150	2.580
2020/01/31 07:20:57.1	89.110	-0.060	0.190	2.590
2020/01/31 07:20:57.2	89.120	-0.070	0.220	2.600
2020/01/31 07:20:57.3	89.110	-0.080	0.260	2.600
2020/01/31 07:20:57.4	89.110	-0.090	0.300	2.610
2020/01/31 07:20:57.5	89.120	-0.090	0.330	2.610
2020/01/31 07:20:57.6	89.120	-0.100	0.350	2.610
2020/01/31 07:20:57.7	89.120	-0.110	0.380	2.610
2020/01/31 07:20:57.8	89.130	-0.120	0.400	2.600
2020/01/31 07:20:57.9	89.130	-0.130	0.410	2.590
2020/01/31 07:20:58.0	89.130	-0.140	0.430	2.580
2020/01/31 07:20:58.1	89.140	-0.150	0.440	2.570
2020/01/31 07:20:58.2	89.140	-0.150	0.440	2.560
2020/01/31 07:20:58.3	89.140	-0.160	0.450	2.540
2020/01/31 07:20:58.4	89.140	-0.170	0.450	2.520
2020/01/31 07:20:58.5	89.150	-0.180	0.440	2.500
2020/01/31 07:20:58.6	89.150	-0.190	0.430	2.470
2020/01/31 07:20:58.7	89.160	-0.200	0.420	2.440
2020/01/31 07:20:58.8	89.160	-0.210	0.410	2.410
2020/01/31 07:20:58.9	89.170	-0.220	0.390	2.380
2020/01/31 07:20:59.0	89.180	-0.230	0.360	2.340
2020/01/31 07:20:59.1	89.180	-0.240	0.340	2.300
2020/01/31 07:20:59.2	89.190	-0.240	0.310	2.260
2020/01/31 07:20:59.3	89.200	-0.250	0.270	2.210
2020/01/31 07:20:59.4	89.210	-0.260	0.240	2.150
2020/01/31 07:20:59.5	89.220	-0.260	0.200	2.100
2020/01/31 07:20:59.6	89.230	-0.270	0.160	2.040
2020/01/31 07:20:59.7	89.240	-0.270	0.110	1.970
2020/01/31 07:20:59.8	89.250	-0.270	0.070	1.910
2020/01/31 07:20:59.9	89.270	-0.280	0.020	1.830
2020/01/31 07:21:00.0	89.280	-0.280	-0.030	1.760
2020/01/31 07:21:00.1	89.290	-0.270	-0.080	1.680
2020/01/31 07:21:00.2	89.310	-0.270	-0.130	1.590
2020/01/31 07:21:00.3	89.330	-0.270	-0.180	1.500
2020/01/31 07:21:00.4	89.340	-0.260	-0.230	1.410
2020/01/31 07:21:00.5	89.360	-0.250	-0.270	1.320
2020/01/31 07:21:00.6	89.380	-0.250	-0.320	1.220
2020/01/31 07:21:00.7	89.400	-0.240	-0.370	1.120
2020/01/31 07:21:00.8	89.410	-0.220	-0.410	1.020
2020/01/31 07:21:00.9	89.430	-0.210	-0.460	0.920
2020/01/31 07:21:01.0	89.450	-0.200	-0.500	0.820
2020/01/31 07:21:01.1	89.460	-0.180	-0.540	0.720
2020/01/31 07:21:01.2	89.480	-0.160	-0.570	0.630
2020/01/31 07:21:01.3	89.490	-0.140	-0.610	0.530
2020/01/31 07:21:01.4	89.500	-0.120	-0.640	0.430
2020/01/31 07:21:01.5	89.510	-0.100	-0.670	0.340
2020/01/31 07:21:01.6	89.520	-0.080	-0.690	0.250
2020/01/31 07:21:01.7	89.530	-0.050	-0.710	0.160
2020/01/31 07:21:01.8	89.540	-0.030	-0.730	0.080
2020/01/31 07:21:01.9	89.550	-0.000	-0.750	0.010
2020/01/31 07:21:02.0	89.550	0.030	-0.760	-0.070
2020/01/31 07:21:02.1	89.550	0.050	-0.770	-0.140
2020/01/31 07:21:02.2	89.550	0.080	-0.770	-0.200
2020/01/31 07:21:02.3	89.550	0.110	-0.780	-0.260
2020/01/31 07:21:02.4	89.540	0.130	-0.780	-0.310
2020/01/31 07:21:02.5	89.540	0.160	-0.780	-0.360
2020/01/31 07:21:02.6	89.530	0.190	-0.780	-0.400
2020/01/31 07:21:02.7	89.520	0.210	-0.770	-0.430
2020/01/31 07:21:02.8	89.510	0.240	-0.770	-0.460
2020/01/31 07:21:02.9	89.500	0.260	-0.760	-0.480
2020/01/31 07:21:03.0	89.480	0.280	-0.750	-0.500
2020/01/31 07:21:03.1	89.470	0.300	-0.730	-0.510
2020/01/31 07:21:03.2	89.450	0.320	-0.720	-0.510
2020/01/31 07:21:03.3	89.440	0.340	-0.700	-0.520
2020/01/31 07:21:03.4	89.420	0.350	-0.680	-0.510
2020/01/31 07:21:03.5	89.400	0.370	-0.660	-0.510
2020/01/31 07:21:03.6	89.380	0.380	-0.630	-0.490
2020/01/31 07:21:03.7	89.360	0.390	-0.610	-0.480
2020/01/31 07:21:03.8	89.340	0.390	-0.580	-0.460
2020/01/31 07:21:03.9	89.320	0.400	-0.550	-0.440
2020/01/31 07:21:04.0	89.300	0.400	-0.520	-0.420
2020/01/31 07:21:04.1	89.280	0.390	-0.480	-0.390
2020/01/31 07:21:04.2	89.260	0.390	-0.440	-0.370
2020/01/31 07:21:04.3	89.250	0.380	-0.410	-0.340
2020/01/31 07:21:04.4	89.230	0.370	-0.370	-0.320
2020/01/31 07:21:04.5	89.210	0.360	-0.320	-0.290
2020/01/31 07:21:04.6	89.200	0.340	-0.280	-0.260
2020/01/31 07:21:04.7	89.180	0.330	-0.230	-0.230
2020/01/31 07:21:04.8	89.170	0.310	-0.190	-0.200
2020/01/31 07:21:04.9	89.160	0.290	-0.140	-0.170
2020/01/31 07:21:05.0	89.150	0.260	-0.090	-0.150
2020/01/31 07:21:05.1	89.150	0.240	-0.040	-0.120
2020/01/31 07:21:05.2	89.140	0.210	0.010	-0.090
2020/01/31 07:21:05.3	89.130	0.180	0.060	-0.060
2020/01/31 07:21:05.4	89.130	0.150	0.110	-0.030
2020/01/31 07:21:05.5	89.130	0.120	0.160	-0.000
2020/01/31 07:21:05.6	89.120	0.090	0.200	0.030
2020/01/31 07:21:05.7	89.120	0.060	0.250	0.050
2020/01/31 07:21:05.8	89.120	0.030	0.290	0.080
2020/01/31 07:21:05.9	89.120	0.000	0.340	0.110
2020/01/31 07:21:06.0	89.130	-0.030	0.380	0.140
2020/01/31 07:21:06.1	89.130	-0.060	0.420	0.170
2020/01/31 07:21:06.2	89.130	-0.090	0.450	0.210
2020/01/31 07:21:06.3	89.130	-0.110	0.490	0.240
2020/01/31 07:21:06.4	89.130	-0.140	0.520	0.270
2020/01/31 07:21:06.5	89.140	-0.170	0.550	0.310
2020/01/31 07:21:06.6	89.140	-0.190	0.570	0.340
2020/01/31 07:21:06.7	89.150	-0.210	0.590	0.380
2020/01/31 07:21:06.8	89.150	-0.230	0.610	0.410
2020/01/31 07:21:06.9	89.160	-0.250	0.630	0.450
2020/01/31 07:21:07.0	89.160	-0.270	0.640	0.490
2020/01/31 07:21:07.1	89.170	-0.280	0.650	0.530
2020/01/31 07:21:07.2	89.170	-0.290	0.650	0.580
2020/01/31 07:21:07.3	89.180	-0.300	0.650	0.620
2020/01/31 07:21:07.4	89.180	-0.310	0.650	0.670
2020/01/31 07:21:07.5	89.190	-0.320	0.640	0.710
2020/01/31 07:21:07.6	89.190	-0.320	0.620	0.760
2020/01/31 07:21:07.7	89.190	-0.320	0.610	0.810
2020/01/31 07:21:07.8	89.200	-0.320	0.580	0.860
2020/01/31 07:21:07.9	89.200	-0.320	0.560	0.910
2020/01/31 07:21:08.0	89.200	-0.310	0.530	0.960
2020/01/31 07:21:08.1	89.200	-0.300	0.490	1.010
2020/01/31 07:21:08.2	89.200	-0.300	0.450	1.070
2020/01/31 07:21:08.3	89.200	-0.280	0.400	1.120
2020/01/31 07:21:08.4	89.210	-0.270	0.360	1.170
2020/01/31 07:21:08.5	89.210	-0.260	0.300	1.220
2020/01/31 07:21:08.6	89.210	-0.240	0.250	1.270
2020/01/31 07:21:08.7	89.210	-0.220	0.190	1.320
2020/01/31 07:21:08.8	89.220	-0.200	0.130	1.370
2020/01/31 07:21:08.9	89.220	-0.180	0.060	1.410
2020/01/31 07:21:09.0	89.230	-0.160	-0.000	1.460
2020/01/31 07:21:09.1	89.230	-0.140	-0.070	1.500
2020/01/31 07:21:09.2	89.240	-0.120	-0.140	1.540
2020/01/31 07:21:09.3	89.240	-0.090	-0.200	1.580
2020/01/31 07:21:09.4	89.250	-0.070	-0.270	1.620
2020/01/31 07:21:09.5	89.260	-0.050	-0.340	1.650
2020/01/31 07:21:09.6	89.270	-0.020	-0.400	1.680
2020/01/31 07:21:09.7	89.290	-0.000	-0.470	1.710
2020/01/31 07:21:09.8	89.300	0.020	-0.530	1.740
2020/01/31 07:21:09.9	89.320	0.040	-0.590	1.760
2020/01/31 07:21:10.0	89.330	0.070	-0.650	1.780
2020/01/31 07:21:10.1	89.350	0.090	-0.700	1.800
2020/01/31 07:21:10.2	89.370	0.110	-0.750	1.820
2020/01/31 07:21:10.3	89.390	0.130	-0.800	1.830
2020/01/31 07:21:10.4	89.410	0.150	-0.840	1.840
2020/01/31 07:21:10.5	89.440	0.160	-0.880	1.850
2020/01/31 07:21:10.6	89.460	0.180	-0.910	1.850
2020/01/31 07:21:10.7	89.480	0.200	-0.930	1.860
2020/01/31 07:21:10.8	89.510	0.210	-0.950	1.860
2020/01/31 07:21:10.9	89.530	0.220	-0.970	1.860
2020/01/31 07:21:11.0	89.550	0.240	-0.980	1.870
2020/01/31 07:21:11.1	89.580	0.250	-0.980	1.870
2020/01/31 07:21:11.2	89.600	0.260	-0.980	1.870
2020/01/31 07:21:11.3	89.620	0.270	-0.970	1.870
2020/01/31 07:21:11.4	89.630	0.270	-0.950	1.880
2020/01/31 07:21:11.5	89.650	0.280	-0.930	1.880
2020/01/31 07:21:11.6	89.670	0.280	-0.910	1.890
2020/01/31 07:21:11.7	89.680	0.280	-0.880	1.890
2020/01/31 07:21:11.8	89.690	0.280	-0.840	1.900
2020/01/31 07:21:11.9	89.700	0.280	-0.800	1.910
2020/01/31 07:21:12.0	89.710	0.280	-0.760	1.910
2020/01/31 07:21:12.1	89.710	0.270	-0.710	1.920
2020/01/31 07:21:12.2	89.720	0.270	-0.660	1.930
2020/01/31 07:21:12.3	89.720	0.260	-0.600	1.940
2020/01/31 07:21:12.4	89.720	0.240	-0.540	1.950
2020/01/31 07:21:12.5	89.720	0.230	-0.470	1.950
2020/01/31 07:21:12.6	89.710	0.220	-0.410	1.960
2020/01/31 07:21:12.7	89.700	0.200	-0.340	1.970
2020/01/31 07:21:12.8	89.690	0.180	-0.270	1.970
2020/01/31 07:21:12.9	89.680	0.160	-0.210	1.980
2020/01/31 07:21:13.0	89.660	0.140	-0.140	1.980
2020/01/31 07:21:13.1	89.650	0.110	-0.070	1.980
2020/01/31 07:21:13.2	89.630	0.090	-0.010	1.980
2020/01/31 07:21:13.3	89.610	0.060	0.050	1.970
2020/01/31 07:21:13.4	89.590	0.040	0.110	1.960
2020/01/31 07:21:13.5	89.570	0.010	0.170	1.950
2020/01/31 07:21:13.6	89.550	-0.020	0.220	1.940
2020/01/31 07:21:13.7	89.530	-0.050	0.270	1.930
2020/01/31 07:21:13.8	89.500	-0.080	0.310	1.910
2020/01/31 07:21:13.9	89.480	-0.110	0.350	1.890
2020/01/31 07:21:14.0	89.460	-0.130	0.380	1.860
2020/01/31 07:21:14.1	89.440	-0.160	0.400	1.840
2020/01/31 07:21:14.2	89.420	-0.190	0.420	1.810
2020/01/31 07:21:14.3	89.400	-0.210	0.440	1.770
2020/01/31 07:21:14.4	89.380	-0.240	0.450	1.730
2020/01/31 07:21:14.5	89.360	-0.260	0.450	1.690
2020/01/31 07:21:14.6	89.350	-0.280	0.440	1.650
2020/01/31 07:21:14.7	89.340	-0.300	0.440	1.610
2020/01/31 07:21:14.8	89.330	-0.320	0.420	1.560
2020/01/31 07:21:14.9	89.320	-0.330	0.400	1.510
2020/01/31 07:21:15.0	89.310	-0.350	0.380	1.460
2020/01/31 07:21:15.1	89.310	-0.360	0.360	1.400
2020/01/31 07:21:15.2	89.310	-0.370	0.330	1.350
2020/01/31 07:21:15.3	89.300	-0.370	0.290	1.280
2020/01/31 07:21:15.4	89.310	-0.380	0.260	1.220
2020/01/31 07:21:15.5	89.310	-0.380	0.220	1.160
2020/01/31 07:21:15.6	89.320	-0.380	0.190	1.100
2020/01/31 07:21:15.7	89.330	-0.380	0.150	1.040
2020/01/31 07:21:15.8	89.340	-0.380	0.110	0.970
2020/01/31 07:21:15.9	89.350	-0.370	0.070	0.910
2020/01/31 07:21:16.0	89.360	-0.370	0.040	0.840
2020/01/31 07:21:16.1	89.380	-0.360	-0.000	0.770
2020/01/31 07:21:16.2	89.390	-0.350	-0.040	0.710
2020/01/31 07:21:16.3	89.410	-0.330	-0.080	0.640
2020/01/31 07:21:16.4	89.430	-0.320	-0.110	0.570
2020/01/31 07:21:16.5	89.450	-0.300	-0.150	0.510
2020/01/31 07:21:16.6	89.470	-0.290	-0.180	0.440
2020/01/31 07:21:16.7	89.490	-0.270	-0.210	0.380
2020/01/31 07:21:16.8	89.510	-0.250	-0.240	0.320
2020/01/31 07:21:16.9	89.530	-0.230	-0.270	0.260
2020/01/31 07:21:17.0	89.540	-0.210	-0.290	0.190
2020/01/31 07:21:17.1	89.560	-0.190	-0.320	0.140
2020/01/31 07:21:17.2	89.580	-0.160	-0.340	0.080
2020/01/31 07:21:17.3	89.610	-0.140	-0.360	0.020
2020/01/31 07:21:17.4	89.630	-0.120	-0.380	-0.030
2020/01/31 07:21:17.5	89.640	-0.100	-0.400	-0.080
2020/01/31 07:21:17.6	89.660	-0.070	-0.410	-0.130
2020/01/31 07:21:17.7	89.680	-0.050	-0.420	-0.180
2020/01/31 07:21:17.8	89.690	-0.030	-0.440	-0.230
2020/01/31 07:21:17.9	89.710	-0.010	-0.440	-0.270
2020/01/31 07:21:18.0	89.720	0.020	-0.450	-0.320
2020/01/31 07:21:18.1	89.740	0.040	-0.450	-0.360
2020/01/31 07:21:18.2	89.750	0.060	-0.460	-0.400
2020/01/31 07:21:18.3	89.760	0.080	-0.450	-0.440
2020/01/31 07:21:18.4	89.770	0.090	-0.450	-0.470
2020/01/31 07:21:18.5	89.790	0.110	-0.450	-0.510
2020/01/31 07:21:18.6	89.800	0.130	-0.440	-0.540
2020/01/31 07:21:18.7	89.820	0.140	-0.430	-0.570
2020/01/31 07:21:18.8	89.830	0.160	-0.420	-0.600
2020/01/31 07:21:18.9	89.840	0.170	-0.400	-0.630
2020/01/31 07:21:19.0	89.860	0.180	-0.390	-0.650
2020/01/31 07:21:19.1	89.870	0.190	-0.370	-0.680
2020/01/31 07:21:19.2	89.880	0.200	-0.350	-0.700
2020/01/31 07:21:19.3	89.900	0.210	-0.330	-0.720
2020/01/31 07:21:19.4	89.910	0.220	-0.310	-0.730
2020/01/31 07:21:19.5	89.920	0.230	-0.290	-0.740
2020/01/31 07:21:19.6	89.930	0.230	-0.270	-0.750
2020/01/31 07:21:19.7	89.940	0.240	-0.250	-0.750
2020/01/31 07:21:19.8	89.950	0.240	-0.230	-0.750
2020/01/31 07:21:19.9	89.960	0.250	-0.210	-0.750
2020/01/31 07:21:20.0	89.970	0.250	-0.190	-0.740
2020/01/31 07:21:20.1	89.980	0.250	-0.170	-0.720
2020/01/31 07:21:20.2	89.980	0.250	-0.160	-0.700
2020/01/31 07:21:20.3	89.980	0.260	-0.140	-0.680
2020/01/31 07:21:20.4	89.980	0.260	-0.130	-0.650
2020/01/31 07:21:20.5	89.990	0.260	-0.110	-0.610
2020/01/31 07:21:20.6	89.990	0.260	-0.100	-0.570
2020/01/31 07:21:20.7	89.980	0.260	-0.090	-0.530
2020/01/31 07:21:20.8	89.980	0.260	-0.080	-0.470
2020/01/31 07:21:20.9	89.980	0.260	-0.070	-0.420
2020/01/31 07:21:21.0	89.970	0.260	-0.070	-0.350
2020/01/31 07:21:21.1	89.960	0.260	-0.060	-0.290
2020/01/31 07:21:21.2	89.950	0.260	-0.060	-0.210
2020/01/31 07:21:21.3	89.940	0.250	-0.060	-0.140
2020/01/31 07:21:21.4	89.920	0.250	-0.060	-0.060
2020/01/31 07:21:21.5	89.910	0.250	-0.060	0.030
2020/01/31 07:21:21.6	89.900	0.250	-0.060	0.110
2020/01/31 07:21:21.7	89.880	0.240	-0.060	0.200
2020/01/31 07:21:21.8	89.860	0.240	-0.070	0.290
2020/01/31 07:21:21.9	89.850	0.240	-0.070	0.390
2020/01/31 07:21:22.0	89.830	0.230	-0.080	0.480
2020/01/31 07:21:22.1	89.810	0.230	-0.090	0.580
2020/01/31 07:21:22.2	89.800	0.220	-0.100	0.680
2020/01/31 07:21:22.3	89.790	0.210	-0.110	0.780
2020/01/31 07:21:22.4	89.770	0.210	-0.120	0.870
2020/01/31 07:21:22.5	89.750	0.200	-0.130	0.970
2020/01/31 07:21:22.6	89.740	0.190	-0.130	1.060
2020/01/31 07:21:22.7	89.730	0.180	-0.140	1.150
2020/01/31 07:21:22.8	89.710	0.170	-0.150	1.240
2020/01/31 07:21:22.9	89.700	0.160	-0.160	1.330
2020/01/31 07:21:23.0	89.690	0.150	-0.160	1.410
2020/01/31 07:21:23.1	89.680	0.130	-0.160	1.490
2020/01/31 07:21:23.2	89.680	0.120	-0.170	1.570
2020/01/31 07:21:23.3	89.670	0.110	-0.170	1.640
2020/01/31 07:21:23.4	89.670	0.090	-0.170	1.710
2020/01/31 07:21:23.5	89.670	0.080	-0.170	1.780
2020/01/31 07:21:23.6	89.670	0.060	-0.170	1.840
2020/01/31 07:21:23.7	89.670	0.040	-0.160	1.890
2020/01/31 07:21:23.8	89.670	0.030	-0.160	1.940
2020/01/31 07:21:23.9	89.680	0.010	-0.150	1.990
2020/01/31 07:21:24.0	89.690	-0.010	-0.140	2.030
2020/01/31 07:21:24.1	89.700	-0.030	-0.130	2.070
2020/01/31 07:21:24.2	89.720	-0.050	-0.120	2.100
2020/01/31 07:21:24.3	89.730	-0.070	-0.110	2.130
2020/01/31 07:21:24.4	89.750	-0.090	-0.090	2.150
2020/01/31 07:21:24.5	89.760	-0.110	-0.080	2.170
2020/01/31 07:21:24.6	89.780	-0.130	-0.060	2.190
2020/01/31 07:21:24.7	89.800	-0.150	-0.050	2.200
2020/01/31 07:21:24.8	89.820	-0.170	-0.030	2.210
2020/01/31 07:21:24.9	89.840	-0.180	-0.010	2.220
2020/01/31 07:21:25.0	89.860	-0.200	0.000	2.230
2020/01/31 07:21:25.1	89.880	-0.220	0.020	2.230
2020/01/31 07:21:25.2	89.910	-0.240	0.040	2.230
2020/01/31 07:21:25.3	89.930	-0.250	0.050	2.230
2020/01/31 07:21:25.4	89.950	-0.270	0.070	2.230
2020/01/31 07:21:25.5	89.970	-0.280	0.080	2.230
2020/01/31 07:21:25.6	89.990	-0.300	0.090	2.230
2020/01/31 07:21:25.7	90.010	-0.310	0.110	2.220
2020/01/31 07:21:25.8	90.030	-0.320	0.120	2.220
2020/01/31 07:21:25.9	90.050	-0.330	0.130	2.210
2020/01/31 07:21:26.0	90.070	-0.340	0.130	2.200
2020/01/31 07:21:26.1	90.090	-0.350	0.140	2.190
2020/01/31 07:21:26.2	90.110	-0.360	0.140	2.190
2020/01/31 07:21:26.3	90.130	-0.360	0.140	2.180
2020/01/31 07:21:26.4	90.150	-0.370	0.140	2.170
2020/01/31 07:21:26.5	90.160	-0.370	0.140	2.160
2020/01/31 07:21:26.6	90.180	-0.370	0.130	2.140
2020/01/31 07:21:26.7	90.190	-0.370	0.120	2.130
2020/01/31 07:21:26.8	90.210	-0.370	0.110	2.120
2020/01/31 07:21:26.9	90.220	-0.360	0.090	2.100
2020/01/31 07:21:27.0	90.240	-0.360	0.070	2.090
2020/01/31 07:21:27.1	90.250	-0.350	0.050	2.070
2020/01/31 07:21:27.2	90.260	-0.350	0.030	2.050
2020/01/31 07:21:27.3	90.270	-0.340	-0.000	2.030
2020/01/31 07:21:27.4	90.280	-0.330	-0.030	2.000
2020/01/31 07:21:27.5	90.290	-0.320	-0.060	1.980
2020/01/31 07:21:27.6	90.300	-0.310	-0.090	1.950
2020/01/31 07:21:27.7	90.310	-0.290	-0.120	1.920
2020/01/31 07:21:27.8	90.320	-0.280	-0.150	1.890
2020/01/31 07:21:27.9	90.330	-0.260	-0.180	1.850
2020/01/31 07:21:28.0	90.340	-0.250	-0.220	1.820
2020/01/31 07:21:28.1	90.350	-0.230	-0.250	1.780
2020/01/31 07:21:28.2	90.360	-0.220	-0.280	1.740
2020/01/31 07:21:28.3	90.370	-0.200	-0.310	1.690
2020/01/31 07:21:28.4	90.370	-0.190	-0.340	1.650
2020/01/31 07:21:28.5	90.380	-0.170	-0.370	1.610
2020/01/31 07:21:28.6	90.380	-0.150	-0.390	1.560
2020/01/31 07:21:28.7	90.380	-0.140	-0.420	1.520
2020/01/31 07:21:28.8	90.380	-0.120	-0.440	1.470
2020/01/31 07:21:28.9	90.380	-0.110	-0.460	1.430
2020/01/31 07:21:29.0	90.380	-0.090	-0.480	1.390
2020/01/31 07:21:29.1	90.370	-0.080	-0.500	1.340
2020/01/31 07:21:29.2	90.370	-0.070	-0.510	1.300
2020/01/31 07:21:29.3	90.360	-0.050	-0.520	1.260
2020/01/31 07:21:29.4	90.350	-0.040	-0.530	1.220
2020/01/31 07:21:29.5	90.340	-0.030	-0.530	1.180
2020/01/31 07:21:29.6	90.320	-0.020	-0.540	1.140
2020/01/31 07:21:29.7	90.300	-0.010	-0.540	1.100
2020/01/31 07:21:29.8	90.290	0.000	-0.540	1.060
2020/01/31 07:21:29.9	90.270	0.010	-0.530	1.030
2020/01/31 07:21:30.0	90.240	0.020	-0.520	0.990
2020/01/31 07:21:30.1	90.220	0.030	-0.520	0.960
2020/01/31 07:21:30.2	90.200	0.040	-0.510	0.920
2020/01/31 07:21:30.3	90.170	0.050	-0.490	0.890
2020/01/31 07:21:30.4	90.150	0.050	-0.480	0.850
2020/01/31 07:21:30.5	90.120	0.060	-0.470	0.820
2020/01/31 07:21:30.6	90.090	0.070	-0.450	0.790
2020/01/31 07:21:30.7	90.070	0.080	-0.440	0.750
2020/01/31 07:21:30.8	90.040	0.090	-0.420	0.720
2020/01/31 07:21:30.9	90.020	0.090	-0.400	0.680
2020/01/31 07:21:31.0	89.990	0.100	-0.390	0.640
2020/01/31 07:21:31.1	89.970	0.110	-0.370	0.610
2020/01/31 07:21:31.2	89.950	0.120	-0.360	0.570
2020/01/31 07:21:31.3	89.930	0.130	-0.340	0.530
2020/01/31 07:21:31.4	89.910	0.140	-0.330	0.480
2020/01/31 07:21:31.5	89.890	0.150	-0.320	0.440
2020/01/31 07:21:31.6	89.870	0.160	-0.300	0.400
2020/01/31 07:21:31.7	89.860	0.170	-0.290	0.350
2020/01/31 07:21:31.8	89.850	0.180	-0.280	0.300
2020/01/31 07:21:31.9	89.830	0.190	-0.270	0.250
2020/01/31 07:21:32.0	89.820	0.200	-0.260	0.200
2020/01/31 07:21:32.1	89.820	0.210	-0.260	0.150
2020/01/31 07:21:32.2	89.810	0.220	-0.250	0.100
2020/01/31 07:21:32.3	89.810	0.220	-0.240	0.050
2020/01/31 07:21:32.4	89.810	0.230	-0.230	-0.000
2020/01/31 07:21:32.5	89.800	0.240	-0.220	-0.060
2020/01/31 07:21:32.6	89.800	0.250	-0.220	-0.110
2020/01/31 07:21:32.7	89.810	0.250	-0.210	-0.170
2020/01/31 07:21:32.8	89.810	0.260	-0.200	-0.220
2020/01/31 07:21:32.9	89.820	0.260	-0.190	-0.280
2020/01/31 07:21:33.0	89.820	0.260	-0.180	-0.340
2020/01/31 07:21:33.1	89.830	0.260	-0.170	-0.390
2020/01/31 07:21:33.2	89.840	0.270	-0.160	-0.450
2020/01/31 07:21:33.3	89.850	0.260	-0.140	-0.500
2020/01/31 07:21:33.4	89.860	0.260	-0.130	-0.560
2020/01/31 07:21:33.5	89.880	0.260	-0.120	-0.610
2020/01/31 07:21:33.6	89.890	0.250	-0.100	-0.660
2020/01/31 07:21:33.7	89.910	0.250	-0.090	-0.710
2020/01/31 07:21:33.8	89.920	0.240	-0.070	-0.760
2020/01/31 07:21:33.9	89.940	0.230	-0.050	-0.800
2020/01/31 07:21:34.0	89.960	0.230	-0.030	-0.850
2020/01/31 07:21:34.1	89.980	0.220	-0.010	-0.890
2020/01/31 07:21:34.2	90.000	0.200	0.010	-0.930
2020/01/31 07:21:34.3	90.020	0.190	0.030	-0.960
2020/01/31 07:21:34.4	90.040	0.180	0.040	-1.000
2020/01/31 07:21:34.5	90.060	0.160	0.060	-1.030
2020/01/31 07:21:34.6	90.080	0.150	0.080	-1.060
2020/01/31 07:21:34.7	90.100	0.130	0.100	-1.080
2020/01/31 07:21:34.8	90.120	0.120	0.120	-1.100
2020/01/31 07:21:34.9	90.150	0.100	0.140	-1.120
2020/01/31 07:21:35.0	90.170	0.080	0.160	-1.130
2020/01/31 07:21:35.1	90.190	0.070	0.170	-1.140
2020/01/31 07:21:35.2	90.210	0.050	0.190	-1.150
2020/01/31 07:21:35.3	90.230	0.030	0.200	-1.150
2020/01/31 07:21:35.4	90.250	0.010	0.210	-1.150
2020/01/31 07:21:35.5	90.270	-0.000	0.220	-1.150
2020/01/31 07:21:35.6	90.290	-0.020	0.230	-1.140
2020/01/31 07:21:35.7	90.310	-0.040	0.240	-1.120
2020/01/31 07:21:35.8	90.330	-0.060	0.240	-1.110
2020/01/31 07:21:35.9	90.350	-0.070	0.250	-1.080
2020/01/31 07:21:36.0	90.360	-0.090	0.250	-1.060
2020/01/31 07:21:36.1	90.380	-0.100	0.250	-1.020
2020/01/31 07:21:36.2	90.390	-0.120	0.250	-0.990
2020/01/31 07:21:36.3	90.410	-0.130	0.240	-0.940
2020/01/31 07:21:36.4	90.420	-0.150	0.230	-0.900
2020/01/31 07:21:36.5	90.430	-0.160	0.230	-0.840
2020/01/31 07:21:36.6	90.440	-0.170	0.220	-0.780
2020/01/31 07:21:36.7	90.450	-0.180	0.200	-0.710
2020/01/31 07:21:36.8	90.450	-0.200	0.190	-0.640
2020/01/31 07:21:36.9	90.450	-0.210	0.170	-0.560
2020/01/31 07:21:37.0	90.450	-0.220	0.150	-0.480
2020/01/31 07:21:37.1	90.450	-0.220	0.130	-0.390
2020/01/31 07:21:37.2	90.450	-0.230	0.110	-0.290
2020/01/31 07:21:37.3	90.450	-0.240	0.080	-0.190
2020/01/31 07:21:37.4	90.450	-0.250	0.060	-0.080
2020/01/31 07:21:37.5	90.440	-0.250	0.030	0.030
2020/01/31 07:21:37.6	90.440	-0.260	0.000	0.150
2020/01/31 07:21:37.7	90.430	-0.260	-0.030	0.270
2020/01/31 07:21:37.8	90.420	-0.270	-0.060	0.400
2020/01/31 07:21:37.9	90.410	-0.270	-0.090	0.520
2020/01/31 07:21:38.0	90.400	-0.270	-0.120	0.650
2020/01/31 07:21:38.1	90.400	-0.270	-0.150	0.790
2020/01/31 07:21:38.2	90.390	-0.280	-0.190	0.920
2020/01/31 07:21:38.3	90.380	-0.280	-0.220	1.050
2020/01/31 07:21:38.4	90.370	-0.280	-0.260	1.190
2020/01/31 07:21:38.5	90.360	-0.280	-0.290	1.320
2020/01/31 07:21:38.6	90.360	-0.270	-0.320	1.450
2020/01/31 07:21:38.7	90.350	-0.270	-0.360	1.580
2020/01/31 07:21:38.8	90.350	-0.270	-0.390	1.710
2020/01/31 07:21:38.9	90.340	-0.270	-0.420	1.830
2020/01/31 07:21:39.0	90.340	-0.260	-0.450	1.950
2020/01/31 07:21:39.1	90.340	-0.260	-0.470	2.060
2020/01/31 07:21:39.2	90.340	-0.250	-0.500	2.170
2020/01/31 07:21:39.3	90.340	-0.250	-0.520	2.280
2020/01/31 07:21:39.4	90.340	-0.240	-0.540	2.380
2020/01/31 07:21:39.5	90.350	-0.230	-0.560	2.470
2020/01/31 07:21:39.6	90.350	-0.220	-0.580	2.560
2020/01/31 07:21:39.7	90.360	-0.210	-0.600	2.640
2020/01/31 07:21:39.8	90.370	-0.200	-0.610	2.710
2020/01/31 07:21:39.9	90.380	-0.190	-0.620	2.780
2020/01/31 07:21:40.0	90.390	-0.180	-0.630	2.840
2020/01/31 07:21:40.1	90.400	-0.170	-0.640	2.890
2020/01/31 07:21:40.2	90.420	-0.160	-0.640	2.930
2020/01/31 07:21:40.3	90.430	-0.150	-0.640	2.970
2020/01/31 07:21:40.4	90.440	-0.130	-0.640	3.000
2020/01/31 07:21:40.5	90.460	-0.120	-0.630	3.030
2020/01/31 07:21:40.6	90.480	-0.110	-0.620	3.040
2020/01/31 07:21:40.7	90.500	-0.090	-0.600	3.060
2020/01/31 07:21:40.8	90.520	-0.080	-0.580	3.060
2020/01/31 07:21:40.9	90.530	-0.070	-0.560	3.060
2020/01/31 07:21:41.0	90.550	-0.050	-0.530	3.050
2020/01/31 07:21:41.1	90.570	-0.040	-0.500	3.040
2020/01/31 07:21:41.2	90.580	-0.030	-0.470	3.030
2020/01/31 07:21:41.3	90.600	-0.020	-0.430	3.010
2020/01/31 07:21:41.4	90.620	-0.010	-0.390	2.980
2020/01/31 07:21:41.5	90.630	-0.000	-0.350	2.950
2020/01/31 07:21:41.6	90.640	0.010	-0.310	2.920
2020/01/31 07:21:41.7	90.640	0.010	-0.260	2.880
2020/01/31 07:21:41.8	90.650	0.020	-0.210	2.840
2020/01/31 07:21:41.9	90.650	0.020	-0.170	2.800
2020/01/31 07:21:42.0	90.650	0.030	-0.120	2.750
2020/01/31 07:21:42.1	90.650	0.030	-0.070	2.700
2020/01/31 07:21:42.2	90.650	0.030	-0.030	2.650
2020/01/31 07:21:42.3	90.640	0.030	0.020	2.600
2020/01/31 07:21:42.4	90.640	0.030	0.060	2.540
2020/01/31 07:21:42.5	90.630	0.030	0.100	2.480
2020/01/31 07:21:42.6	90.630	0.030	0.140	2.420
2020/01/31 07:21:42.7	90.620	0.030	0.180	2.360
2020/01/31 07:21:42.8	90.610	0.030	0.210	2.290
2020/01/31 07:21:42.9	90.600	0.030	0.240	2.220
2020/01/31 07:21:43.0	90.590	0.020	0.270	2.150
2020/01/31 07:21:43.1	90.580	0.020	0.290	2.080
2020/01/31 07:21:43.2	90.570	0.020	0.310	2.000
2020/01/31 07:21:43.3	90.570	0.020	0.330	1.920
2020/01/31 07:21:43.4	90.560	0.010	0.340	1.840
2020/01/31 07:21:43.5	90.550	0.010	0.340	1.760
2020/01/31 07:21:43.6	90.540	0.010	0.340	1.680
2020/01/31 07:21:43.7	90.530	0.010	0.330	1.600
2020/01/31 07:21:43.8	90.520	0.010	0.320	1.510
2020/01/31 07:21:43.9	90.510	0.010	0.310	1.420
2020/01/31 07:21:44.0	90.510	0.010	0.290	1.340
2020/01/31 07:21:44.1	90.500	0.010	0.260	1.250
2020/01/31 07:21:44.2	90.490	0.020	0.240	1.160
2020/01/31 07:21:44.3	90.490	0.020	0.200	1.070
2020/01/31 07:21:44.4	90.480	0.030	0.170	0.980
2020/01/31 07:21:44.5	90.480	0.030	0.130	0.890
2020/01/31 07:21:44.6	90.470	0.040	0.090	0.790
2020/01/31 07:21:44.7	90.460	0.050	0.050	0.700
2020/01/31 07:21:44.8	90.450	0.060	0.000	0.610
2020/01/31 07:21:44.9	90.450	0.070	-0.040	0.520
2020/01/31 07:21:45.0	90.440	0.090	-0.090	0.430
2020/01/31 07:21:45.1	90.430	0.100	-0.130	0.340
2020/01/31 07:21:45.2	90.430	0.110	-0.180	0.250
2020/01/31 07:21:45.3	90.420	0.120	-0.230	0.160
2020/01/31 07:21:45.4	90.410	0.140	-0.270	0.070
2020/01/31 07:21:45.5	90.400	0.150	-0.310	-0.010
2020/01/31 07:21:45.6	90.390	0.160	-0.350	-0.100
2020/01/31 07:21:45.7	90.380	0.180	-0.390	-0.180
2020/01/31 07:21:45.8	90.370	0.190	-0.420	-0.260
2020/01/31 07:21:45.9	90.360	0.200	-0.450	-0.330
2020/01/31 07:21:46.0	90.350	0.210	-0.480	-0.410
2020/01/31 07:21:46.1	90.330	0.220	-0.500	-0.480
2020/01/31 07:21:46.2	90.320	0.230	-0.520	-0.550
2020/01/31 07:21:46.3	90.300	0.240	-0.530	-0.610
2020/01/31 07:21:46.4	90.280	0.240	-0.540	-0.680
2020/01/31 07:21:46.5	90.270	0.250	-0.550	-0.730
2020/01/31 07:21:46.6	90.250	0.250	-0.550	-0.790
2020/01/31 07:21:46.7	90.230	0.250	-0.550	-0.840
2020/01/31 07:21:46.8	90.220	0.250	-0.540	-0.880
2020/01/31 07:21:46.9	90.200	0.250	-0.530	-0.930
2020/01/31 07:21:47.0	90.180	0.240	-0.520	-0.960
2020/01/31 07:21:47.1	90.160	0.240	-0.510	-1.000
2020/01/31 07:21:47.2	90.150	0.230	-0.490	-1.030
2020/01/31 07:21:47.3	90.130	0.220	-0.470	-1.050
2020/01/31 07:21:47.4	90.120	0.210	-0.450	-1.070
2020/01/31 07:21:47.5	90.100	0.200	-0.420	-1.090
2020/01/31 07:21:47.6	90.090	0.190	-0.400	-1.100
2020/01/31 07:21:47.7	90.080	0.170	-0.370	-1.110
2020/01/31 07:21:47.8	90.070	0.160	-0.350	-1.110
2020/01/31 07:21:47.9	90.070	0.150	-0.320	-1.120
2020/01/31 07:21:48.0	90.070	0.130	-0.300	-1.110
2020/01/31 07:21:48.1	90.070	0.120	-0.270	-1.110
2020/01/31 07:21:48.2	90.070	0.100	-0.250	-1.100
2020/01/31 07:21:48.3	90.070	0.090	-0.230	-1.090
2020/01/31 07:21:48.4	90.080	0.070	-0.210	-1.070
2020/01/31 07:21:48.5	90.090	0.060	-0.190	-1.060
2020/01/31 07:21:48.6	90.100	0.050	-0.180	-1.040
2020/01/31 07:21:48.7	90.120	0.040	-0.170	-1.020
2020/01/31 07:21:48.8	90.140	0.030	-0.160	-0.990
2020/01/31 07:21:48.9	90.160	0.020	-0.150	-0.970
2020/01/31 07:21:49.0	90.180	0.010	-0.140	-0.940
2020/01/31 07:21:49.1	90.200	0.010	-0.140	-0.900
2020/01/31 07:21:49.2	90.230	0.000	-0.140	-0.870
2020/01/31 07:21:49.3	90.250	0.000	-0.140	-0.830
2020/01/31 07:21:49.4	90.280	0.000	-0.140	-0.790
2020/01/31 07:21:49.5	90.310	0.000	-0.150	-0.740
2020/01/31 07:21:49.6	90.340	0.000	-0.150	-0.700
2020/01/31 07:21:49.7	90.370	0.010	-0.160	-0.650
2020/01/31 07:21:49.8	90.400	0.010	-0.170	-0.600
2020/01/31 07:21:49.9	90.430	0.010	-0.180	-0.540
2020/01/31 07:21:50.0	90.460	0.020	-0.190	-0.480
2020/01/31 07:21:50.1	90.490	0.030	-0.200	-0.420
2020/01/31 07:21:50.2	90.520	0.030	-0.210	-0.350
2020/01/31 07:21:50.3	90.550	0.040	-0.220	-0.280
2020/01/31 07:21:50.4	90.570	0.050	-0.230	-0.210
2020/01/31 07:21:50.5	90.600	0.050	-0.240	-0.130
2020/01/31 07:21:50.6	90.620	0.060	-0.240	-0.050
2020/01/31 07:21:50.7	90.640	0.070	-0.240	0.040
2020/01/31 07:21:50.8	90.660	0.070	-0.240	0.130
2020/01/31 07:21:50.9	90.670	0.070	-0.240	0.220
2020/01/31 07:21:51.0	90.680	0.080	-0.230	0.320
2020/01/31 07:21:51.1	90.690	0.080	-0.220	0.420
2020/01/31 07:21:51.2	90.690	0.080	-0.200	0.530
2020/01/31 07:21:51.3	90.700	0.080	-0.180	0.630
2020/01/31 07:21:51.4	90.700	0.070	-0.160	0.740
2020/01/31 07:21:51.5	90.700	0.070	-0.130	0.860
2020/01/31 07:21:51.6	90.690	0.060	-0.100	0.970
2020/01/31 07:21:51.7	90.680	0.050	-0.070	1.080
2020/01/31 07:21:51.8	90.670	0.040	-0.030	1.200
2020/01/31 07:21:51.9	90.650	0.030	0.010	1.320
2020/01/31 07:21:52.0	90.640	0.010	0.060	1.440
2020/01/31 07:21:52.1	90.620	-0.010	0.100	1.550
2020/01/31 07:21:52.2	90.600	-0.020	0.150	1.670
2020/01/31 07:21:52.3	90.580	-0.040	0.200	1.790
2020/01/31 07:21:52.4	90.560	-0.070	0.250	1.900
2020/01/31 07:21:52.5	90.530	-0.090	0.290	2.020
2020/01/31 07:21:52.6	90.510	-0.110	0.340	2.130
2020/01/31 07:21:52.7	90.480	-0.140	0.390	2.240
2020/01/31 07:21:52.8	90.450	-0.160	0.430	2.350
2020/01/31 07:21:52.9	90.420	-0.180	0.470	2.450
2020/01/31 07:21:53.0	90.390	-0.210	0.510	2.550
2020/01/31 07:21:53.1	90.360	-0.230	0.540	2.650
2020/01/31 07:21:53.2	90.330	-0.250	0.570	2.740
2020/01/31 07:21:53.3	90.300	-0.280	0.600	2.820
2020/01/31 07:21:53.4	90.270	-0.300	0.610	2.910
2020/01/31 07:21:53.5	90.240	-0.310	0.620	2.980
2020/01/31 07:21:53.6	90.210	-0.330	0.630	3.060
2020/01/31 07:21:53.7	90.180	-0.350	0.620	3.120
2020/01/31 07:21:53.8	90.160	-0.360	0.610	3.190
2020/01/31 07:21:53.9	90.130	-0.370	0.590	3.240
2020/01/31 07:21:54.0	90.110	-0.380	0.570	3.290
2020/01/31 07:21:54.1	90.080	-0.380	0.530	3.340
2020/01/31 07:21:54.2	90.060	-0.380	0.490	3.370
2020/01/31 07:21:54.3	90.030	-0.380	0.440	3.410
2020/01/31 07:21:54.4	90.010	-0.380	0.390	3.430
2020/01/31 07:21:54.5	89.990	-0.370	0.330	3.450
2020/01/31 07:21:54.6	89.980	-0.370	0.260	3.470
2020/01/31 07:21:54.7	89.960	-0.350	0.190	3.480
2020/01/31 07:21:54.8	89.950	-0.340	0.110	3.480
2020/01/31 07:21:54.9	89.930	-0.330	0.030	3.480
2020/01/31 07:21:55.0	89.920	-0.310	-0.050	3.470
2020/01/31 07:21:55.1	89.910	-0.290	-0.130	3.460
2020/01/31 07:21:55.2	89.900	-0.270	-0.220	3.440
2020/01/31 07:21:55.3	89.880	-0.250	-0.310	3.420
2020/01/31 07:21:55.4	89.870	-0.220	-0.390	3.390
2020/01/31 07:21:55.5	89.870	-0.200	-0.480	3.360
2020/01/31 07:21:55.6	89.860	-0.170	-0.560	3.330
2020/01/31 07:21:55.7	89.860	-0.140	-0.640	3.280
2020/01/31 07:21:55.8	89.850	-0.120	-0.720	3.240
2020/01/31 07:21:55.9	89.850	-0.090	-0.790	3.190
2020/01/31 07:21:56.0	89.850	-0.060	-0.860	3.130
2020/01/31 07:21:56.1	89.850	-0.040	-0.930	3.070
2020/01/31 07:21:56.2	89.850	-0.010	-0.980	3.010
2020/01/31 07:21:56.3	89.850	0.010	-1.030	2.930
2020/01/31 07:21:56.4	89.850	0.040	-1.080	2.860
2020/01/31 07:21:56.5	89.850	0.060	-1.120	2.780
2020/01/31 07:21:56.6	89.860	0.080	-1.140	2.690
2020/01/31 07:21:56.7	89.860	0.100	-1.170	2.600
2020/01/31 07:21:56.8	89.870	0.120	-1.180	2.510
2020/01/31 07:21:56.9	89.870	0.130	-1.190	2.410
2020/01/31 07:21:57.0	89.880	0.150	-1.190	2.310
2020/01/31 07:21:57.1	89.890	0.160	-1.180	2.210
2020/01/31 07:21:57.2	89.900	0.170	-1.160	2.100
2020/01/31 07:21:57.3	89.910	0.170	-1.140	1.980
2020/01/31 07:21:57.4	89.920	0.180	-1.110	1.870
2020/01/31 07:21:57.5	89.930	0.180	-1.070	1.750
2020/01/31 07:21:57.6	89.950	0.180	-1.020	1.630
2020/01/31 07:21:57.7	89.960	0.180	-0.980	1.510
2020/01/31 07:21:57.8	89.970	0.180	-0.920	1.390
2020/01/31 07:21:57.9	89.990	0.180	-0.860	1.270
2020/01/31 07:21:58.0	90.000	0.170	-0.800	1.140
2020/01/31 07:21:58.1	90.020	0.160	-0.740	1.020
2020/01/31 07:21:58.2	90.030	0.160	-0.670	0.900
2020/01/31 07:21:58.3	90.060	0.150	-0.600	0.780
2020/01/31 07:21:58.4	90.070	0.130	-0.530	0.660
2020/01/31 07:21:58.5	90.090	0.120	-0.450	0.540
2020/01/31 07:21:58.6	90.100	0.110	-0.380	0.420
2020/01/31 07:21:58.7	90.110	0.100	-0.310	0.310
2020/01/31 07:21:58.8	90.120	0.080	-0.240	0.200
2020/01/31 07:21:58.9	90.130	0.070	-0.170	0.090
2020/01/31 07:21:59.0	90.140	0.060	-0.100	-0.010
2020/01/31 07:21:59.1	90.150	0.040	-0.040	-0.110
2020/01/31 07:21:59.2	90.150	0.030	0.020	-0.200
2020/01/31 07:21:59.3	90.160	0.020	0.080	-0.290
2020/01/31 07:21:59.4	90.160	0.000	0.140	-0.370
2020/01/31 07:21:59.5	90.160	-0.010	0.190	-0.450
2020/01/31 07:21:59.6	90.160	-0.020	0.240	-0.520
2020/01/31 07:21:59.7	90.160	-0.030	0.290	-0.590
2020/01/31 07:21:59.8	90.160	-0.030	0.330	-0.650
2020/01/31 07:21:59.9	90.160	-0.040	0.360	-0.700
2020/01/31 07:22:00.0	90.150	-0.050	0.400	-0.760
2020/01/31 07:22:00.1	90.150	-0.050	0.420	-0.800
2020/01/31 07:22:00.2	90.140	-0.060	0.450	-0.840
2020/01/31 07:22:00.3	90.140	-0.060	0.470	-0.880
2020/01/31 07:22:00.4	90.130	-0.060	0.480	-0.910
2020/01/31 07:22:00.5	90.130	-0.060	0.490	-0.930
2020/01/31 07:22:00.6	90.120	-0.060	0.500	-0.950
2020/01/31 07:22:00.7	90.110	-0.060	0.510	-0.960
2020/01/31 07:22:00.8	90.100	-0.060	0.510	-0.980
2020/01/31 07:22:00.9	90.090	-0.050	0.500	-0.980
2020/01/31 07:22:01.0	90.080	-0.050	0.500	-0.980
2020/01/31 07:22:01.1	90.070	-0.040	0.490	-0.980
2020/01/31 07:22:01.2	90.060	-0.040	0.480	-0.970
2020/01/31 07:22:01.3	90.050	-0.030	0.460	-0.960
2020/01/31 07:22:01.4	90.040	-0.020	0.440	-0.940
2020/01/31 07:22:01.5	90.030	-0.020	0.420	-0.920
2020/01/31 07:22:01.6	90.020	-0.010	0.400	-0.900
2020/01/31 07:22:01.7	90.000	0.000	0.370	-0.880
2020/01/31 07:22:01.8	89.990	0.010	0.340	-0.850
2020/01/31 07:22:01.9	89.980	0.020	0.320	-0.810
2020/01/31 07:22:02.0	89.970	0.020	0.280	-0.780
2020/01/31 07:22:02.1	89.960	0.030	0.250	-0.740
2020/01/31 07:22:02.2	89.950	0.040	0.220	-0.710
2020/01/31 07:22:02.3	89.940	0.050	0.180	-0.670
2020/01/31 07:22:02.4	89.930	0.060	0.150	-0.630
2020/01/31 07:22:02.5	89.930	0.060	0.110	-0.590
2020/01/31 07:22:02.6	89.920	0.070	0.070	-0.550
2020/01/31 07:22:02.7	89.920	0.070	0.040	-0.500
2020/01/31 07:22:02.8	89.910	0.080	-0.000	-0.460
2020/01/31 07:22:02.9	89.910	0.080	-0.040	-0.420
2020/01/31 07:22:03.0	89.910	0.080	-0.070	-0.370
2020/01/31 07:22:03.1	89.910	0.080	-0.110	-0.330
2020/01/31 07:22:03.2	89.910	0.090	-0.150	-0.280
2020/01/31 07:22:03.3	89.910	0.090	-0.180	-0.230
2020/01/31 07:22:03.4	89.910	0.080	-0.220	-0.180
2020/01/31 07:22:03.5	89.920	0.080	-0.250	-0.140
2020/01/31 07:22:03.6	89.920	0.080	-0.280	-0.090
2020/01/31 07:22:03.7	89.920	0.080	-0.310	-0.040
2020/01/31 07:22:03.8	89.930	0.070	-0.330	0.010
2020/01/31 07:22:03.9	89.930	0.070	-0.360	0.060
2020/01/31 07:22:04.0	89.940	0.060	-0.380	0.110
2020/01/31 07:22:04.1	89.950	0.050	-0.400	0.160
2020/01/31 07:22:04.2	89.950	0.050	-0.420	0.220
2020/01/31 07:22:04.3	89.960	0.040	-0.430	0.270
2020/01/31 07:22:04.4	89.970	0.030	-0.440	0.320
2020/01/31 07:22:04.5	89.970	0.030	-0.450	0.370
2020/01/31 07:22:04.6	89.980	0.020	-0.460	0.430
2020/01/31 07:22:04.7	89.990	0.010	-0.460	0.480
2020/01/31 07:22:04.8	90.000	0.000	-0.460	0.530
2020/01/31 07:22:04.9	90.010	-0.000	-0.460	0.590
2020/01/31 07:22:05.0	90.020	-0.010	-0.450	0.640
2020/01/31 07:22:05.1	90.030	-0.020	-0.440	0.700
2020/01/31 07:22:05.2	90.050	-0.020	-0.430	0.760
2020/01/31 07:22:05.3	90.060	-0.030	-0.420	0.810
2020/01/31 07:22:05.4	90.070	-0.030	-0.410	0.870
2020/01/31 07:22:05.5	90.080	-0.040	-0.390	0.930
2020/01/31 07:22:05.6	90.100	-0.040	-0.370	0.990
2020/01/31 07:22:05.7	90.110	-0.040	-0.350	1.050
2020/01/31 07:22:05.8	90.120	-0.040	-0.330	1.100
2020/01/31 07:22:05.9	90.130	-0.040	-0.310	1.160
2020/01/31 07:22:06.0	90.140	-0.040	-0.290	1.220
2020/01/31 07:22:06.1	90.150	-0.040	-0.270	1.290
2020/01/31 07:22:06.2	90.160	-0.030	-0.250	1.350
2020/01/31 07:22:06.3	90.170	-0.030	-0.220	1.410
2020/01/31 07:22:06.4	90.170	-0.020	-0.200	1.470
2020/01/31 07:22:06.5	90.180	-0.020	-0.180	1.530
2020/01/31 07:22:06.6	90.180	-0.010	-0.170	1.600
2020/01/31 07:22:06.7	90.180	-0.000	-0.150	1.660
2020/01/31 07:22:06.8	90.180	0.010	-0.140	1.720
2020/01/31 07:22:06.9	90.180	0.020	-0.120	1.780
2020/01/31 07:22:07.0	90.180	0.030	-0.110	1.840
2020/01/31 07:22:07.1	90.180	0.040	-0.110	1.900
2020/01/31 07:22:07.2	90.180	0.050	-0.100	1.960
2020/01/31 07:22:07.3	90.170	0.060	-0.100	2.010
2020/01/31 07:22:07.4	90.160	0.070	-0.100	2.070
2020/01/31 07:22:07.5	90.160	0.090	-0.100	2.120
2020/01/31 07:22:07.6	90.150	0.100	-0.110	2.170
2020/01/31 07:22:07.7	90.140	0.110	-0.110	2.220
2020/01/31 07:22:07.8	90.140	0.120	-0.120	2.260
2020/01/31 07:22:07.9	90.130	0.140	-0.140	2.300
2020/01/31 07:22:08.0	90.120	0.150	-0.150	2.340
2020/01/31 07:22:08.1	90.120	0.160	-0.170	2.380
2020/01/31 07:22:08.2	90.110	0.180	-0.190	2.410
2020/01/31 07:22:08.3	90.100	0.190	-0.210	2.430
2020/01/31 07:22:08.4	90.100	0.200	-0.240	2.460
2020/01/31 07:22:08.5	90.100	0.210	-0.260	2.480
2020/01/31 07:22:08.6	90.090	0.220	-0.290	2.490
2020/01/31 07:22:08.7	90.090	0.240	-0.310	2.500
2020/01/31 07:22:08.8	90.090	0.250	-0.340	2.510
2020/01/31 07:22:08.9	90.090	0.260	-0.370	2.510
2020/01/31 07:22:09.0	90.100	0.270	-0.390	2.510
2020/01/31 07:22:09.1	90.100	0.280	-0.420	2.500
2020/01/31 07:22:09.2	90.100	0.290	-0.450	2.490
2020/01/31 07:22:09.3	90.110	0.300	-0.470	2.480
2020/01/31 07:22:09.4	90.110	0.300	-0.490	2.460
2020/01/31 07:22:09.5	90.120	0.310	-0.510	2.440
2020/01/31 07:22:09.6	90.130	0.320	-0.530	2.420
2020/01/31 07:22:09.7	90.140	0.320	-0.550	2.390
2020/01/31 07:22:09.8	90.140	0.320	-0.560	2.360
2020/01/31 07:22:09.9	90.160	0.330	-0.570	2.330
2020/01/31 07:22:10.0	90.170	0.330	-0.580	2.290
2020/01/31 07:22:10.1	90.180	0.330	-0.580	2.250
2020/01/31 07:22:10.2	90.200	0.320	-0.580	2.210
2020/01/31 07:22:10.3	90.210	0.320	-0.570	2.170
2020/01/31 07:22:10.4	90.230	0.310	-0.560	2.130
2020/01/31 07:22:10.5	90.250	0.300	-0.550	2.080
2020/01/31 07:22:10.6	90.260	0.290	-0.530	2.030
2020/01/31 07:22:10.7	90.280	0.280	-0.510	1.980
2020/01/31 07:22:10.8	90.300	0.260	-0.480	1.930
2020/01/31 07:22:10.9	90.320	0.250	-0.450	1.880
2020/01/31 07:22:11.0	90.340	0.230	-0.420	1.820
2020/01/31 07:22:11.1	90.350	0.200	-0.380	1.770
2020/01/31 07:22:11.2	90.370	0.180	-0.330	1.720
2020/01/31 07:22:11.3	90.380	0.150	-0.290	1.660
2020/01/31 07:22:11.4	90.390	0.120	-0.240	1.610
2020/01/31 07:22:11.5	90.410	0.090	-0.180	1.550
2020/01/31 07:22:11.6	90.420	0.050	-0.130	1.500
2020/01/31 07:22:11.7	90.420	0.010	-0.070	1.450
2020/01/31 07:22:11.8	90.430	-0.020	-0.010	1.400
2020/01/31 07:22:11.9	90.430	-0.060	0.050	1.350
2020/01/31 07:22:12.0	90.430	-0.110	0.120	1.290
2020/01/31 07:22:12.1	90.430	-0.150	0.180	1.250
2020/01/31 07:22:12.2	90.430	-0.190	0.240	1.200
2020/01/31 07:22:12.3	90.430	-0.240	0.310	1.150
2020/01/31 07:22:12.4	90.420	-0.290	0.370	1.100
2020/01/31 07:22:12.5	90.420	-0.330	0.430	1.050
2020/01/31 07:22:12.6	90.410	-0.380	0.490	1.010
2020/01/31 07:22:12.7	90.400	-0.420	0.550	0.960
2020/01/31 07:22:12.8	90.380	-0.470	0.600	0.910
2020/01/31 07:22:12.9	90.370	-0.510	0.650	0.870
2020/01/31 07:22:13.0	90.360	-0.560	0.700	0.830
2020/01/31 07:22:13.1	90.340	-0.600	0.740	0.780
2020/01/31 07:22:13.2	90.330	-0.640	0.780	0.740
2020/01/31 07:22:13.3	90.320	-0.680	0.810	0.690
2020/01/31 07:22:13.4	90.300	-0.710	0.840	0.650
2020/01/31 07:22:13.5	90.290	-0.750	0.860	0.600
2020/01/31 07:22:13.6	90.280	-0.780	0.880	0.560
2020/01/31 07:22:13.7	90.260	-0.800	0.890	0.510
2020/01/31 07:22:13.8	90.250	-0.830	0.890	0.460
2020/01/31 07:22:13.9	90.240	-0.850	0.890	0.420
2020/01/31 07:22:14.0	90.240	-0.860	0.880	0.370
2020/01/31 07:22:14.1	90.230	-0.870	0.860	0.320
2020/01/31 07:22:14.2	90.230	-0.880	0.840	0.270
2020/01/31 07:22:14.3	90.220	-0.880	0.810	0.220
2020/01/31 07:22:14.4	90.220	-0.880	0.770	0.160
2020/01/31 07:22:14.5	90.220	-0.870	0.720	0.110
2020/01/31 07:22:14.6	90.230	-0.860	0.670	0.060
2020/01/31 07:22:14.7	90.240	-0.840	0.610	0.000
2020/01/31 07:22:14.8	90.250	-0.820	0.540	-0.050
2020/01/31 07:22:14.9	90.260	-0.800	0.460	-0.110
2020/01/31 07:22:15.0	90.270	-0.770	0.380	-0.160
2020/01/31 07:22:15.1	90.280	-0.730	0.300	-0.210
2020/01/31 07:22:15.2	90.300	-0.690	0.210	-0.270
2020/01/31 07:22:15.3	90.320	-0.650	0.110	-0.320
2020/01/31 07:22:15.4	90.340	-0.600	0.010	-0.370
2020/01/31 07:22:15.5	90.360	-0.550	-0.090	-0.420
2020/01/31 07:22:15.6	90.380	-0.500	-0.190	-0.460
2020/01/31 07:22:15.7	90.400	-0.440	-0.300	-0.500
2020/01/31 07:22:15.8	90.420	-0.380	-0.400	-0.540
2020/01/31 07:22:15.9	90.440	-0.320	-0.510	-0.580
2020/01/31 07:22:16.0	90.470	-0.250	-0.610	-0.610
2020/01/31 07:22:16.1	90.490	-0.190	-0.710	-0.640
2020/01/31 07:22:16.2	90.510	-0.120	-0.810	-0.670
2020/01/31 07:22:16.3	90.530	-0.060	-0.910	-0.690
2020/01/31 07:22:16.4	90.550	0.010	-1.000	-0.700
2020/01/31 07:22:16.5	90.570	0.080	-1.090	-0.720
2020/01/31 07:22:16.6	90.580	0.140	-1.170	-0.720
2020/01/31 07:22:16.7	90.600	0.210	-1.240	-0.730
2020/01/31 07:22:16.8	90.610	0.270	-1.310	-0.720
2020/01/31 07:22:16.9	90.620	0.330	-1.360	-0.720
2020/01/31 07:22:17.0	90.630	0.380	-1.410	-0.710
2020/01/31 07:22:17.1	90.630	0.440	-1.450	-0.690
2020/01/31 07:22:17.2	90.640	0.490	-1.480	-0.670
2020/01/31 07:22:17.3	90.640	0.540	-1.510	-0.640
2020/01/31 07:22:17.4	90.640	0.580	-1.520	-0.610
2020/01/31 07:22:17.5	90.630	0.620	-1.510	-0.580
2020/01/31 07:22:17.6	90.630	0.650	-1.500	-0.540
2020/01/31 07:22:17.7	90.620	0.690	-1.480	-0.500
2020/01/31 07:22:17.8	90.610	0.710	-1.450	-0.450
2020/01/31 07:22:17.9	90.590	0.730	-1.410	-0.400
2020/01/31 07:22:18.0	90.580	0.750	-1.360	-0.350
2020/01/31 07:22:18.1	90.560	0.760	-1.300	-0.290
2020/01/31 07:22:18.2	90.540	0.760	-1.230	-0.230
2020/01/31 07:22:18.3	90.520	0.760	-1.150	-0.170
2020/01/31 07:22:18.4	90.500	0.760	-1.070	-0.100
2020/01/31 07:22:18.5	90.480	0.750	-0.980	-0.030
2020/01/31 07:22:18.6	90.460	0.740	-0.880	0.040
2020/01/31 07:22:18.7	90.430	0.730	-0.780	0.110
2020/01/31 07:22:18.8	90.410	0.710	-0.680	0.180
2020/01/31 07:22:18.9	90.380	0.690	-0.570	0.260
2020/01/31 07:22:19.0	90.350	0.660	-0.470	0.340
2020/01/31 07:22:19.1	90.330	0.640	-0.360	0.410
2020/01/31 07:22:19.2	90.300	0.610	-0.260	0.490
2020/01/31 07:22:19.3	90.280	0.580	-0.160	0.580
2020/01/31 07:22:19.4	90.250	0.550	-0.060	0.650
2020/01/31 07:22:19.5	90.230	0.520	0.040	0.730
2020/01/31 07:22:19.6	90.200	0.490	0.130	0.810
2020/01/31 07:22:19.7	90.180	0.450	0.210	0.890
2020/01/31 07:22:19.8	90.160	0.420	0.290	0.960
2020/01/31 07:22:19.9	90.140	0.390	0.370	1.040
2020/01/31 07:22:20.0	90.120	0.360	0.430	1.110
2020/01/31 07:22:20.1	90.100	0.330	0.490	1.180
2020/01/31 07:22:20.2	90.080	0.300	0.540	1.250
2020/01/31 07:22:20.3	90.060	0.270	0.590	1.310
2020/01/31 07:22:20.4	90.050	0.250	0.630	1.380
2020/01/31 07:22:20.5	90.030	0.220	0.660	1.440
2020/01/31 07:22:20.6	90.020	0.200	0.680	1.500
2020/01/31 07:22:20.7	90.000	0.180	0.690	1.550
2020/01/31 07:22:20.8	89.990	0.160	0.700	1.610
2020/01/31 07:22:20.9	89.980	0.140	0.700	1.660
2020/01/31 07:22:21.0	89.970	0.120	0.690	1.700
2020/01/31 07:22:21.1	89.960	0.110	0.680	1.750
2020/01/31 07:22:21.2	89.950	0.090	0.670	1.790
2020/01/31 07:22:21.3	89.940	0.080	0.640	1.830
2020/01/31 07:22:21.4	89.940	0.070	0.610	1.860
2020/01/31 07:22:21.5	89.930	0.060	0.580	1.890
2020/01/31 07:22:21.6	89.930	0.050	0.540	1.920
2020/01/31 07:22:21.7	89.930	0.040	0.500	1.940
2020/01/31 07:22:21.8	89.920	0.030	0.460	1.960
2020/01/31 07:22:21.9	89.920	0.020	0.420	1.980
2020/01/31 07:22:22.0	89.920	0.020	0.370	2.000
2020/01/31 07:22:22.1	89.920	0.010	0.320	2.010
2020/01/31 07:22:22.2	89.920	0.010	0.280	2.020
2020/01/31 07:22:22.3	89.920	-0.000	0.230	2.030
2020/01/31 07:22:22.4	89.920	-0.010	0.180	2.040
2020/01/31 07:22:22.5	89.920	-0.010	0.130	2.040
2020/01/31 07:22:22.6	89.920	-0.020	0.080	2.050
2020/01/31 07:22:22.7	89.920	-0.020	0.040	2.050
2020/01/31 07:22:22.8	89.930	-0.030	-0.010	2.040
2020/01/31 07:22:22.9	89.930	-0.030	-0.050	2.040
2020/01/31 07:22:23.0	89.930	-0.040	-0.090	2.030
2020/01/31 07:22:23.1	89.940	-0.040	-0.130	2.020
2020/01/31 07:22:23.2	89.950	-0.050	-0.170	2.010
2020/01/31 07:22:23.3	89.950	-0.050	-0.200	1.990
2020/01/31 07:22:23.4	89.960	-0.060	-0.240	1.980
2020/01/31 07:22:23.5	89.970	-0.060	-0.260	1.960
2020/01/31 07:22:23.6	89.980	-0.070	-0.290	1.940
2020/01/31 07:22:23.7	90.000	-0.070	-0.310	1.920
2020/01/31 07:22:23.8	90.010	-0.080	-0.330	1.890
2020/01/31 07:22:23.9	90.030	-0.080	-0.350	1.860
2020/01/31 07:22:24.0	90.050	-0.090	-0.360	1.830
2020/01/31 07:22:24.1	90.060	-0.090	-0.370	1.790
2020/01/31 07:22:24.2	90.090	-0.100	-0.380	1.760
2020/01/31 07:22:24.3	90.110	-0.100	-0.390	1.730
2020/01/31 07:22:24.4	90.130	-0.110	-0.390	1.690
2020/01/31 07:22:24.5	90.160	-0.110	-0.390	1.640
2020/01/31 07:22:24.6	90.180	-0.120	-0.390	1.600
2020/01/31 07:22:24.7	90.200	-0.120	-0.390	1.560
2020/01/31 07:22:24.8	90.230	-0.120	-0.380	1.510
2020/01/31 07:22:24.9	90.250	-0.130	-0.380	1.470
2020/01/31 07:22:25.0	90.280	-0.130	-0.370	1.420
2020/01/31 07:22:25.1	90.300	-0.130	-0.360	1.380
2020/01/31 07:22:25.2	90.330	-0.130	-0.350	1.340
2020/01/31 07:22:25.3	90.350	-0.130	-0.340	1.290
2020/01/31 07:22:25.4	90.370	-0.130	-0.330	1.250
2020/01/31 07:22:25.5	90.390	-0.130	-0.320	1.210
2020/01/31 07:22:25.6	90.410	-0.130	-0.310	1.170
2020/01/31 07:22:25.7	90.420	-0.130	-0.300	1.140
2020/01/31 07:22:25.8	90.440	-0.130	-0.290	1.100
2020/01/31 07:22:25.9	90.450	-0.130	-0.290	1.070
2020/01/31 07:22:26.0	90.460	-0.120	-0.280	1.040
2020/01/31 07:22:26.1	90.460	-0.120	-0.270	1.020
2020/01/31 07:22:26.2	90.470	-0.110	-0.260	0.990
2020/01/31 07:22:26.3	90.470	-0.110	-0.250	0.970
2020/01/31 07:22:26.4	90.470	-0.100	-0.250	0.950
2020/01/31 07:22:26.5	90.470	-0.100	-0.240	0.940
2020/01/31 07:22:26.6	90.460	-0.090	-0.230	0.920
2020/01/31 07:22:26.7	90.450	-0.080	-0.230	0.910
2020/01/31 07:22:26.8	90.440	-0.070	-0.220	0.900
2020/01/31 07:22:26.9	90.420	-0.060	-0.220	0.890
2020/01/31 07:22:27.0	90.400	-0.050	-0.210	0.880
2020/01/31 07:22:27.1	90.390	-0.040	-0.210	0.870
2020/01/31 07:22:27.2	90.370	-0.030	-0.200	0.870
2020/01/31 07:22:27.3	90.340	-0.020	-0.200	0.860
2020/01/31 07:22:27.4	90.320	-0.010	-0.200	0.860
2020/01/31 07:22:27.5	90.300	-0.010	-0.190	0.850
2020/01/31 07:22:27.6	90.280	0.000	-0.190	0.850
2020/01/31 07:22:27.7	90.260	0.010	-0.180	0.840
2020/01/31 07:22:27.8	90.230	0.020	-0.180	0.830
2020/01/31 07:22:27.9	90.210	0.020	-0.170	0.830
2020/01/31 07:22:28.0	90.190	0.030	-0.170	0.820
2020/01/31 07:22:28.1	90.170	0.030	-0.160	0.810
2020/01/31 07:22:28.2	90.140	0.040	-0.150	0.810
2020/01/31 07:22:28.3	90.130	0.040	-0.150	0.800
2020/01/31 07:22:28.4	90.100	0.040	-0.140	0.790
2020/01/31 07:22:28.5	90.080	0.040	-0.130	0.780
2020/01/31 07:22:28.6	90.060	0.030	-0.120	0.770
2020/01/31 07:22:28.7	90.040	0.030	-0.110	0.760
2020/01/31 07:22:28.8	90.020	0.020	-0.100	0.760
2020/01/31 07:22:28.9	90.000	0.010	-0.090	0.750
2020/01/31 07:22:29.0	89.990	0.000	-0.090	0.740
2020/01/31 07:22:29.1	89.970	-0.010	-0.080	0.730
2020/01/31 07:22:29.2	89.950	-0.020	-0.070	0.720
2020/01/31 07:22:29.3	89.930	-0.030	-0.060	0.710
2020/01/31 07:22:29.4	89.920	-0.050	-0.050	0.690
2020/01/31 07:22:29.5	89.910	-0.070	-0.040	0.680
2020/01/31 07:22:29.6	89.890	-0.080	-0.040	0.670
2020/01/31 07:22:29.7	89.880	-0.100	-0.030	0.660
2020/01/31 07:22:29.8	89.870	-0.120	-0.030	0.640
2020/01/31 07:22:29.9	89.860	-0.140	-0.030	0.630
2020/01/31 07:22:30.0	89.860	-0.160	-0.020	0.620
2020/01/31 07:22:30.1	89.850	-0.180	-0.020	0.600
2020/01/31 07:22:30.2	89.850	-0.190	-0.020	0.590
2020/01/31 07:22:30.3	89.840	-0.210	-0.030	0.580
2020/01/31 07:22:30.4	89.840	-0.230	-0.030	0.560
2020/01/31 07:22:30.5	89.840	-0.250	-0.030	0.550
2020/01/31 07:22:30.6	89.850	-0.260	-0.040	0.530
2020/01/31 07:22:30.7	89.850	-0.280	-0.040	0.520
2020/01/31 07:22:30.8	89.860	-0.290	-0.040	0.510
2020/01/31 07:22:30.9	89.860	-0.300	-0.050	0.500
2020/01/31 07:22:31.0	89.870	-0.310	-0.050	0.480
2020/01/31 07:22:31.1	89.880	-0.320	-0.050	0.470
2020/01/31 07:22:31.2	89.890	-0.330	-0.050	0.460
2020/01/31 07:22:31.3	89.900	-0.340	-0.050	0.450
2020/01/31 07:22:31.4	89.910	-0.340	-0.050	0.450
2020/01/31 07:22:31.5	89.920	-0.340	-0.050	0.440
2020/01/31 07:22:31.6	89.930	-0.340	-0.050	0.440
2020/01/31 07:22:31.7	89.940	-0.340	-0.040	0.430
2020/01/31 07:22:31.8	89.950	-0.340	-0.040	0.430
2020/01/31 07:22:31.9	89.960	-0.340	-0.030	0.430
2020/01/31 07:22:32.0	89.980	-0.330	-0.030	0.420
2020/01/31 07:22:32.1	89.990	-0.320	-0.020	0.420
2020/01/31 07:22:32.2	90.000	-0.310	-0.010	0.420
2020/01/31 07:22:32.3	90.010	-0.300	-0.000	0.420
2020/01/31 07:22:32.4	90.020	-0.290	0.000	0.420
2020/01/31 07:22:32.5	90.030	-0.280	0.010	0.420
2020/01/31 07:22:32.6	90.040	-0.260	0.020	0.420
2020/01/31 07:22:32.7	90.050	-0.250	0.020	0.410
2020/01/31 07:22:32.8	90.060	-0.230	0.030	0.410
2020/01/31 07:22:32.9	90.070	-0.210	0.030	0.410
2020/01/31 07:22:33.0	90.080	-0.200	0.030	0.410
2020/01/31 07:22:33.1	90.090	-0.180	0.030	0.410
2020/01/31 07:22:33.2	90.100	-0.160	0.030	0.400
2020/01/31 07:22:33.3	90.110	-0.140	0.030	0.400
2020/01/31 07:22:33.4	90.110	-0.120	0.020	0.400
2020/01/31 07:22:33.5	90.120	-0.090	0.010	0.400
2020/01/31 07:22:33.6	90.130	-0.070	-0.000	0.400
2020/01/31 07:22:33.7	90.130	-0.050	-0.010	0.410
2020/01/31 07:22:33.8	90.140	-0.030	-0.030	0.410
2020/01/31 07:22:33.9	90.140	-0.000	-0.050	0.410
2020/01/31 07:22:34.0	90.140	0.020	-0.070	0.420
2020/01/31 07:22:34.1	90.140	0.040	-0.100	0.430
2020/01/31 07:22:34.2	90.140	0.070	-0.130	0.440
2020/01/31 07:22:34.3	90.140	0.090	-0.160	0.450
2020/01/31 07:22:34.4	90.140	0.120	-0.190	0.460
2020/01/31 07:22:34.5	90.130	0.140	-0.230	0.480
2020/01/31 07:22:34.6	90.120	0.170	-0.260	0.490
2020/01/31 07:22:34.7	90.120	0.190	-0.300	0.510
2020/01/31 07:22:34.8	90.110	0.220	-0.340	0.530
2020/01/31 07:22:34.9	90.100	0.240	-0.390	0.550
2020/01/31 07:22:35.0	90.090	0.270	-0.430	0.570
2020/01/31 07:22:35.1	90.070	0.290	-0.480	0.600
2020/01/31 07:22:35.2	90.060	0.310	-0.520	0.620
2020/01/31 07:22:35.3	90.050	0.340	-0.570	0.650
2020/01/31 07:22:35.4	90.030	0.360	-0.610	0.680
2020/01/31 07:22:35.5	90.020	0.380	-0.660	0.700
2020/01/31 07:22:35.6	90.000	0.400	-0.700	0.730
2020/01/31 07:22:35.7	89.990	0.420	-0.740	0.760
2020/01/31 07:22:35.8	89.970	0.440	-0.770	0.780
2020/01/31 07:22:35.9	89.960	0.460	-0.810	0.810
2020/01/31 07:22:36.0	89.950	0.480	-0.840	0.840
2020/01/31 07:22:36.1	89.930	0.500	-0.860	0.860
2020/01/31 07:22:36.2	89.920	0.510	-0.880	0.890
2020/01/31 07:22:36.3	89.910	0.520	-0.900	0.910
2020/01/31 07:22:36.4	89.890	0.540	-0.910	0.940
2020/01/31 07:22:36.5	89.880	0.550	-0.920	0.960
2020/01/31 07:22:36.6	89.870	0.550	-0.920	0.980
2020/01/31 07:22:36.7	89.860	0.560	-0.910	1.000
2020/01/31 07:22:36.8	89.850	0.560	-0.900	1.030
2020/01/31 07:22:36.9	89.840	0.570	-0.880	1.050
2020/01/31 07:22:37.0	89.830	0.570	-0.850	1.070
2020/01/31 07:22:37.1	89.830	0.570	-0.820	1.080
2020/01/31 07:22:37.2	89.820	0.560	-0.790	1.100
2020/01/31 07:22:37.3	89.820	0.560	-0.750	1.120
2020/01/31 07:22:37.4	89.820	0.550	-0.700	1.130
2020/01/31 07:22:37.5	89.820	0.540	-0.650	1.150
2020/01/31 07:22:37.6	89.820	0.530	-0.600	1.160
2020/01/31 07:22:37.7	89.830	0.520	-0.540	1.180
2020/01/31 07:22:37.8	89.830	0.510	-0.480	1.190
2020/01/31 07:22:37.9	89.840	0.490	-0.420	1.200
2020/01/31 07:22:38.0	89.850	0.480	-0.350	1.210
2020/01/31 07:22:38.1	89.870	0.460	-0.290	1.220
2020/01/31 07:22:38.2	89.880	0.440	-0.220	1.230
2020/01/31 07:22:38.3	89.900	0.420	-0.150	1.230
2020/01/31 07:22:38.4	89.920	0.400	-0.090	1.240
2020/01/31 07:22:38.5	89.930	0.380	-0.020	1.250
2020/01/31 07:22:38.6	89.960	0.350	0.050	1.250
2020/01/31 07:22:38.7	89.980	0.330	0.110	1.260
2020/01/31 07:22:38.8	90.000	0.300	0.170	1.260
2020/01/31 07:22:38.9	90.020	0.280	0.230	1.260
2020/01/31 07:22:39.0	90.050	0.250	0.290	1.260
2020/01/31 07:22:39.1	90.070	0.220	0.350	1.270
2020/01/31 07:22:39.2	90.090	0.190	0.410	1.270
2020/01/31 07:22:39.3	90.110	0.160	0.460	1.270
2020/01/31 07:22:39.4	90.130	0.130	0.510	1.280
2020/01/31 07:22:39.5	90.150	0.090	0.550	1.280
2020/01/31 07:22:39.6	90.180	0.060	0.600	1.280
2020/01/31 07:22:39.7	90.200	0.020	0.640	1.280
2020/01/31 07:22:39.8	90.210	-0.010	0.670	1.280
2020/01/31 07:22:39.9	90.230	-0.050	0.710	1.290
2020/01/31 07:22:40.0	90.250	-0.080	0.740	1.290
2020/01/31 07:22:40.1	90.260	-0.120	0.760	1.290
2020/01/31 07:22:40.2	90.280	-0.150	0.790	1.290
2020/01/31 07:22:40.3	90.290	-0.190	0.810	1.290
2020/01/31 07:22:40.4	90.300	-0.230	0.830	1.300
2020/01/31 07:22:40.5	90.310	-0.260	0.840	1.300
2020/01/31 07:22:40.6	90.320	-0.300	0.840	1.300
2020/01/31 07:22:40.7	90.330	-0.330	0.840	1.300
2020/01/31 07:22:40.8	90.340	-0.360	0.840	1.300
2020/01/31 07:22:40.9	90.340	-0.400	0.830	1.310
2020/01/31 07:22:41.0	90.350	-0.430	0.820	1.310
2020/01/31 07:22:41.1	90.360	-0.450	0.800	1.310
2020/01/31 07:22:41.2	90.370	-0.480	0.780	1.310
2020/01/31 07:22:41.3	90.370	-0.500	0.750	1.310
2020/01/31 07:22:41.4	90.380	-0.530	0.710	1.300
2020/01/31 07:22:41.5	90.390	-0.550	0.670	1.300
2020/01/31 07:22:41.6	90.400	-0.560	0.630	1.300
2020/01/31 07:22:41.7	90.410	-0.580	0.580	1.290
2020/01/31 07:22:41.8	90.420	-0.590	0.530	1.290
2020/01/31 07:22:41.9	90.440	-0.600	0.470	1.280
2020/01/31 07:22:42.0	90.450	-0.600	0.410	1.280
2020/01/31 07:22:42.1	90.470	-0.610	0.340	1.270
2020/01/31 07:22:42.2	90.480	-0.600	0.270	1.260
2020/01/31 07:22:42.3	90.500	-0.600	0.200	1.250
2020/01/31 07:22:42.4	90.520	-0.600	0.130	1.240
2020/01/31 07:22:42.5	90.540	-0.590	0.050	1.230
2020/01/31 07:22:42.6	90.560	-0.580	-0.030	1.220
2020/01/31 07:22:42.7	90.580	-0.560	-0.110	1.210
2020/01/31 07:22:42.8	90.600	-0.550	-0.190	1.190
2020/01/31 07:22:42.9	90.620	-0.530	-0.270	1.180
2020/01/31 07:22:43.0	90.640	-0.510	-0.360	1.170
2020/01/31 07:22:43.1	90.660	-0.490	-0.440	1.160
2020/01/31 07:22:43.2	90.670	-0.460	-0.510	1.160
2020/01/31 07:22:43.3	90.690	-0.430	-0.600	1.150
2020/01/31 07:22:43.4	90.710	-0.410	-0.670	1.140
2020/01/31 07:22:43.5	90.730	-0.380	-0.740	1.140
2020/01/31 07:22:43.6	90.740	-0.350	-0.810	1.140
2020/01/31 07:22:43.7	90.750	-0.320	-0.870	1.130
2020/01/31 07:22:43.8	90.760	-0.290	-0.930	1.130
2020/01/31 07:22:43.9	90.770	-0.250	-0.990	1.130
2020/01/31 07:22:44.0	90.770	-0.220	-1.040	1.140
2020/01/31 07:22:44.1	90.780	-0.190	-1.080	1.140
2020/01/31 07:22:44.2	90.780	-0.150	-1.120	1.150
2020/01/31 07:22:44.3	90.780	-0.120	-1.150	1.150
2020/01/31 07:22:44.4	90.770	-0.090	-1.180	1.160
2020/01/31 07:22:44.5	90.770	-0.060	-1.200	1.170
2020/01/31 07:22:44.6	90.760	-0.030	-1.220	1.180
2020/01/31 07:22:44.7	90.750	0.000	-1.230	1.190
2020/01/31 07:22:44.8	90.740	0.030	-1.240	1.200
2020/01/31 07:22:44.9	90.730	0.060	-1.240	1.210
2020/01/31 07:22:45.0	90.710	0.090	-1.230	1.220
2020/01/31 07:22:45.1	90.690	0.110	-1.220	1.230
2020/01/31 07:22:45.2	90.680	0.130	-1.200	1.240
2020/01/31 07:22:45.3	90.660	0.150	-1.170	1.250
2020/01/31 07:22:45.4	90.640	0.170	-1.140	1.250
2020/01/31 07:22:45.5	90.620	0.190	-1.100	1.260
2020/01/31 07:22:45.6	90.600	0.200	-1.060	1.260
2020/01/31 07:22:45.7	90.570	0.220	-1.010	1.270
2020/01/31 07:22:45.8	90.550	0.230	-0.960	1.270
2020/01/31 07:22:45.9	90.530	0.230	-0.900	1.260
2020/01/31 07:22:46.0	90.500	0.240	-0.840	1.260
2020/01/31 07:22:46.1	90.480	0.240	-0.770	1.260
2020/01/31 07:22:46.2	90.460	0.240	-0.700	1.250
2020/01/31 07:22:46.3	90.440	0.240	-0.630	1.240
2020/01/31 07:22:46.4	90.420	0.240	-0.550	1.230
2020/01/31 07:22:46.5	90.400	0.230	-0.470	1.210
2020/01/31 07:22:46.6	90.380	0.230	-0.390	1.200
2020/01/31 07:22:46.7	90.370	0.220	-0.300	1.190
2020/01/31 07:22:46.8	90.350	0.210	-0.220	1.170
2020/01/31 07:22:46.9	90.340	0.190	-0.130	1.150
2020/01/31 07:22:47.0	90.320	0.180	-0.050	1.130
2020/01/31 07:22:47.1	90.310	0.170	0.040	1.110
2020/01/31 07:22:47.2	90.300	0.150	0.120	1.090
2020/01/31 07:22:47.3	90.290	0.140	0.210	1.060
2020/01/31 07:22:47.4	90.290	0.120	0.290	1.040
2020/01/31 07:22:47.5	90.280	0.100	0.360	1.010
2020/01/31 07:22:47.6	90.280	0.090	0.430	0.980
2020/01/31 07:22:47.7	90.270	0.070	0.500	0.950
2020/01/31 07:22:47.8	90.270	0.050	0.560	0.920
2020/01/31 07:22:47.9	90.270	0.040	0.620	0.890
2020/01/31 07:22:48.0	90.280	0.020	0.670	0.860
2020/01/31 07:22:48.1	90.280	0.010	0.720	0.820
2020/01/31 07:22:48.2	90.280	-0.010	0.760	0.790
2020/01/31 07:22:48.3	90.280	-0.020	0.790	0.750
2020/01/31 07:22:48.4	90.290	-0.030	0.810	0.710
2020/01/31 07:22:48.5	90.290	-0.040	0.830	0.680
2020/01/31 07:22:48.6	90.300	-0.050	0.840	0.640
2020/01/31 07:22:48.7	90.310	-0.060	0.840	0.600
2020/01/31 07:22:48.8	90.310	-0.070	0.840	0.570
2020/01/31 07:22:48.9	90.320	-0.070	0.830	0.530
2020/01/31 07:22:49.0	90.330	-0.070	0.810	0.500
2020/01/31 07:22:49.1	90.330	-0.070	0.780	0.470
2020/01/31 07:22:49.2	90.340	-0.070	0.750	0.430
2020/01/31 07:22:49.3	90.340	-0.070	0.710	0.410
2020/01/31 07:22:49.4	90.350	-0.060	0.660	0.380
2020/01/31 07:22:49.5	90.360	-0.060	0.610	0.350
2020/01/31 07:22:49.6	90.360	-0.050	0.560	0.330
2020/01/31 07:22:49.7	90.370	-0.040	0.490	0.300
2020/01/31 07:22:49.8	90.370	-0.030	0.430	0.280
2020/01/31 07:22:49.9	90.380	-0.010	0.360	0.270
2020/01/31 07:22:50.0	90.380	0.000	0.290	0.250
2020/01/31 07:22:50.1	90.390	0.020	0.220	0.240
2020/01/31 07:22:50.2	90.400	0.030	0.140	0.230
2020/01/31 07:22:50.3	90.400	0.050	0.060	0.220
2020/01/31 07:22:50.4	90.410	0.070	-0.010	0.210
2020/01/31 07:22:50.5	90.410	0.090	-0.090	0.200
2020/01/31 07:22:50.6	90.420	0.110	-0.170	0.200
2020/01/31 07:22:50.7	90.430	0.130	-0.240	0.200
2020/01/31 07:22:50.8	90.430	0.150	-0.310	0.200
2020/01/31 07:22:50.9	90.440	0.170	-0.390	0.200
2020/01/31 07:22:51.0	90.450	0.200	-0.450	0.200
2020/01/31 07:22:51.1	90.460	0.220	-0.520	0.200
2020/01/31 07:22:51.2	90.470	0.240	-0.580	0.200
2020/01/31 07:22:51.3	90.480	0.260	-0.640	0.210
2020/01/31 07:22:51.4	90.490	0.280	-0.700	0.210
2020/01/31 07:22:51.5	90.500	0.300	-0.750	0.210
2020/01/31 07:22:51.6	90.520	0.320	-0.800	0.220
2020/01/31 07:22:51.7	90.530	0.340	-0.840	0.220
2020/01/31 07:22:51.8	90.540	0.350	-0.880	0.230
2020/01/31 07:22:51.9	90.560	0.370	-0.920	0.240
2020/01/31 07:22:52.0	90.570	0.390	-0.950	0.240
2020/01/31 07:22:52.1	90.580	0.400	-0.970	0.250
2020/01/31 07:22:52.2	90.600	0.410	-0.990	0.260
2020/01/31 07:22:52.3	90.610	0.430	-1.010	0.280
2020/01/31 07:22:52.4	90.620	0.440	-1.020	0.290
2020/01/31 07:22:52.5	90.630	0.440	-1.020	0.310
2020/01/31 07:22:52.6	90.640	0.450	-1.020	0.330
2020/01/31 07:22:52.7	90.650	0.460	-1.020	0.350
2020/01/31 07:22:52.8	90.650	0.460	-1.010	0.380
2020/01/31 07:22:52.9	90.660	0.460	-0.990	0.410
2020/01/31 07:22:53.0	90.660	0.460	-0.970	0.440
2020/01/31 07:22:53.1	90.670	0.460	-0.940	0.470
2020/01/31 07:22:53.2	90.670	0.450	-0.910	0.510
2020/01/31 07:22:53.3	90.660	0.440	-0.870	0.550
2020/01/31 07:22:53.4	90.660	0.430	-0.830	0.600
2020/01/31 07:22:53.5	90.650	0.420	-0.780	0.650
2020/01/31 07:22:53.6	90.650	0.400	-0.730	0.700
2020/01/31 07:22:53.7	90.640	0.390	-0.680	0.750
2020/01/31 07:22:53.8	90.630	0.370	-0.620	0.800
2020/01/31 07:22:53.9	90.620	0.340	-0.560	0.860
2020/01/31 07:22:54.0	90.600	0.320	-0.490	0.920
2020/01/31 07:22:54.1	90.590	0.290	-0.430	0.980
2020/01/31 07:22:54.2	90.570	0.260	-0.360	1.040
2020/01/31 07:22:54.3	90.550	0.230	-0.280	1.110
2020/01/31 07:22:54.4	90.530	0.200	-0.210	1.170
2020/01/31 07:22:54.5	90.510	0.170	-0.140	1.230
2020/01/31 07:22:54.6	90.490	0.130	-0.070	1.300
2020/01/31 07:22:54.7	90.470	0.100	0.010	1.360
2020/01/31 07:22:54.8	90.450	0.060	0.080	1.420
2020/01/31 07:22:54.9	90.420	0.020	0.150	1.490
2020/01/31 07:22:55.0	90.400	-0.020	0.220	1.550
2020/01/31 07:22:55.1	90.370	-0.060	0.290	1.610
2020/01/31 07:22:55.2	90.350	-0.100	0.350	1.670
2020/01/31 07:22:55.3	90.320	-0.130	0.410	1.730
2020/01/31 07:22:55.4	90.290	-0.170	0.470	1.780
2020/01/31 07:22:55.5	90.270	-0.210	0.530	1.840
2020/01/31 07:22:55.6	90.240	-0.250	0.580	1.890
2020/01/31 07:22:55.7	90.220	-0.280	0.620	1.940
2020/01/31 07:22:55.8	90.190	-0.320	0.660	1.980
2020/01/31 07:22:55.9	90.170	-0.350	0.700	2.020
2020/01/31 07:22:56.0	90.150	-0.380	0.730	2.060
2020/01/31 07:22:56.1	90.130	-0.410	0.760	2.090
2020/01/31 07:22:56.2	90.110	-0.430	0.780	2.130
2020/01/31 07:22:56.3	90.090	-0.460	0.790	2.150
2020/01/31 07:22:56.4	90.080	-0.480	0.800	2.170
2020/01/31 07:22:56.5	90.070	-0.500	0.800	2.190
2020/01/31 07:22:56.6	90.060	-0.520	0.800	2.200
2020/01/31 07:22:56.7	90.060	-0.530	0.790	2.210
2020/01/31 07:22:56.8	90.060	-0.540	0.770	2.210
2020/01/31 07:22:56.9	90.060	-0.550	0.750	2.200
2020/01/31 07:22:57.0	90.060	-0.550	0.720	2.190
2020/01/31 07:22:57.1	90.070	-0.550	0.680	2.180
2020/01/31 07:22:57.2	90.080	-0.550	0.640	2.160
2020/01/31 07:22:57.3	90.100	-0.550	0.590	2.140
2020/01/31 07:22:57.4	90.120	-0.540	0.540	2.110
2020/01/31 07:22:57.5	90.140	-0.530	0.480	2.080
2020/01/31 07:22:57.6	90.160	-0.520	0.420	2.040
2020/01/31 07:22:57.7	90.180	-0.500	0.350	2.010
2020/01/31 07:22:57.8	90.210	-0.480	0.280	1.970
2020/01/31 07:22:57.9	90.240	-0.460	0.210	1.920
2020/01/31 07:22:58.0	90.260	-0.430	0.130	1.880
2020/01/31 07:22:58.1	90.290	-0.410	0.060	1.830
2020/01/31 07:22:58.2	90.320	-0.380	-0.020	1.790
2020/01/31 07:22:58.3	90.340	-0.350	-0.110	1.740
2020/01/31 07:22:58.4	90.370	-0.320	-0.190	1.700
2020/01/31 07:22:58.5	90.390	-0.290	-0.270	1.650
2020/01/31 07:22:58.6	90.410	-0.250	-0.350	1.600
2020/01/31 07:22:58.7	90.430	-0.220	-0.430	1.560
2020/01/31 07:22:58.8	90.450	-0.180	-0.510	1.510
2020/01/31 07:22:58.9	90.470	-0.150	-0.580	1.470
2020/01/31 07:22:59.0	90.480	-0.110	-0.650	1.430
2020/01/31 07:22:59.1	90.490	-0.070	-0.720	1.390
2020/01/31 07:22:59.2	90.490	-0.040	-0.780	1.350
2020/01/31 07:22:59.3	90.500	-0.000	-0.840	1.310
2020/01/31 07:22:59.4	90.500	0.030	-0.890	1.280
2020/01/31 07:22:59.5	90.500	0.060	-0.930	1.240
2020/01/31 07:22:59.6	90.500	0.090	-0.970	1.210
2020/01/31 07:22:59.7	90.490	0.120	-1.000	1.180
2020/01/31 07:22:59.8	90.480	0.150	-1.020	1.150
2020/01/31 07:22:59.9	90.470	0.180	-1.040	1.120
2020/01/31 07:23:00.0	90.450	0.200	-1.040	1.090
2020/01/31 07:23:00.1	90.440	0.220	-1.040	1.070
2020/01/31 07:23:00.2	90.420	0.240	-1.040	1.040
2020/01/31 07:23:00.3	90.410	0.260	-1.030	1.010
2020/01/31 07:23:00.4	90.390	0.270	-1.000	0.990
2020/01/31 07:23:00.5	90.370	0.280	-0.970	0.970
2020/01/31 07:23:00.6	90.350	0.290	-0.940	0.950
2020/01/31 07:23:00.7	90.330	0.300	-0.900	0.930
2020/01/31 07:23:00.8	90.310	0.300	-0.850	0.910
2020/01/31 07:23:00.9	90.300	0.300	-0.800	0.890
2020/01/31 07:23:01.0	90.280	0.300	-0.740	0.870
2020/01/31 07:23:01.1	90.260	0.300	-0.680	0.850
2020/01/31 07:23:01.2	90.240	0.290	-0.620	0.830
2020/01/31 07:23:01.3	90.220	0.290	-0.550	0.820
2020/01/31 07:23:01.4	90.210	0.280	-0.490	0.800
2020/01/31 07:23:01.5	90.200	0.260	-0.420	0.780
2020/01/31 07:23:01.6	90.180	0.250	-0.350	0.770
2020/01/31 07:23:01.7	90.170	0.240	-0.280	0.750
2020/01/31 07:23:01.8	90.160	0.220	-0.220	0.740
2020/01/31 07:23:01.9	90.150	0.200	-0.150	0.730
2020/01/31 07:23:02.0	90.140	0.180	-0.090	0.720
2020/01/31 07:23:02.1	90.130	0.170	-0.030	0.700
2020/01/31 07:23:02.2	90.130	0.140	0.030	0.690
2020/01/31 07:23:02.3	90.120	0.120	0.080	0.680
2020/01/31 07:23:02.4	90.120	0.100	0.130	0.670
2020/01/31 07:23:02.5	90.110	0.080	0.170	0.660
2020/01/31 07:23:02.6	90.110	0.060	0.210	0.650
2020/01/31 07:23:02.7	90.110	0.040	0.250	0.640
2020/01/31 07:23:02.8	90.110	0.020	0.290	0.630
2020/01/31 07:23:02.9	90.100	-0.000	0.310	0.630
2020/01/31 07:23:03.0	90.100	-0.020	0.340	0.620
2020/01/31 07:23:03.1	90.110	-0.040	0.360	0.610
2020/01/31 07:23:03.2	90.110	-0.060	0.370	0.600
2020/01/31 07:23:03.3	90.100	-0.080	0.380	0.590
2020/01/31 07:23:03.4	90.110	-0.090	0.390	0.570
2020/01/31 07:23:03.5	90.110	-0.110	0.390	0.560
2020/01/31 07:23:03.6	90.120	-0.120	0.380	0.550
2020/01/31 07:23:03.7	90.120	-0.130	0.380	0.540
2020/01/31 07:23:03.8	90.130	-0.140	0.360	0.520
2020/01/31 07:23:03.9	90.140	-0.150	0.350	0.510
2020/01/31 07:23:04.0	90.140	-0.150	0.330	0.490
2020/01/31 07:23:04.1	90.150	-0.160	0.300	0.480
2020/01/31 07:23:04.2	90.160	-0.160	0.280	0.460
2020/01/31 07:23:04.3	90.170	-0.160	0.250	0.440
2020/01/31 07:23:04.4	90.180	-0.160	0.220	0.430
2020/01/31 07:23:04.5	90.190	-0.160	0.180	0.410
2020/01/31 07:23:04.6	90.200	-0.150	0.150	0.400
2020/01/31 07:23:04.7	90.210	-0.150	0.110	0.380
2020/01/31 07:23:04.8	90.220	-0.140	0.070	0.370
2020/01/31 07:23:04.9	90.230	-0.130	0.030	0.350
2020/01/31 07:23:05.0	90.240	-0.120	-0.010	0.340
2020/01/31 07:23:05.1	90.250	-0.100	-0.050	0.330
2020/01/31 07:23:05.2	90.260	-0.090	-0.090	0.330
2020/01/31 07:23:05.3	90.270	-0.070	-0.130	0.320
2020/01/31 07:23:05.4	90.270	-0.060	-0.170	0.320
2020/01/31 07:23:05.5	90.280	-0.040	-0.210	0.320
2020/01/31 07:23:05.6	90.290	-0.020	-0.250	0.320
2020/01/31 07:23:05.7	90.290	-0.000	-0.290	0.320
2020/01/31 07:23:05.8	90.290	0.010	-0.320	0.330
2020/01/31 07:23:05.9	90.300	0.030	-0.350	0.340
2020/01/31 07:23:06.0	90.300	0.050	-0.390	0.360
2020/01/31 07:23:06.1	90.300	0.060	-0.410	0.370
2020/01/31 07:23:06.2	90.290	0.080	-0.440	0.390
2020/01/31 07:23:06.3	90.290	0.090	-0.470	0.420
2020/01/31 07:23:06.4	90.280	0.110	-0.490	0.440
2020/01/31 07:23:06.5	90.280	0.120	-0.500	0.470
2020/01/31 07:23:06.6	90.270	0.130	-0.520	0.500
2020/01/31 07:23:06.7	90.260	0.140	-0.530	0.530
2020/01/31 07:23:06.8	90.250	0.150	-0.530	0.570
2020/01/31 07:23:06.9	90.240	0.150	-0.540	0.600
2020/01/31 07:23:07.0	90.230	0.150	-0.530	0.640
2020/01/31 07:23:07.1	90.220	0.160	-0.530	0.680
2020/01/31 07:23:07.2	90.200	0.150	-0.520	0.730
2020/01/31 07:23:07.3	90.180	0.150	-0.500	0.770
2020/01/31 07:23:07.4	90.170	0.140	-0.490	0.820
2020/01/31 07:23:07.5	90.150	0.130	-0.460	0.860
2020/01/31 07:23:07.6	90.130	0.120	-0.440	0.910
2020/01/31 07:23:07.7	90.110	0.110	-0.410	0.960
2020/01/31 07:23:07.8	90.090	0.090	-0.370	1.010
2020/01/31 07:23:07.9	90.070	0.080	-0.340	1.060
2020/01/31 07:23:08.0	90.050	0.060	-0.300	1.110
2020/01/31 07:23:08.1	90.020	0.040	-0.250	1.160
2020/01/31 07:23:08.2	90.000	0.020	-0.210	1.210
2020/01/31 07:23:08.3	89.980	-0.000	-0.160	1.260
2020/01/31 07:23:08.4	89.960	-0.030	-0.110	1.300
2020/01/31 07:23:08.5	89.930	-0.050	-0.070	1.350
2020/01/31 07:23:08.6	89.910	-0.070	-0.020	1.390
2020/01/31 07:23:08.7	89.890	-0.090	0.030	1.430
2020/01/31 07:23:08.8	89.870	-0.110	0.070	1.470
2020/01/31 07:23:08.9	89.860	-0.130	0.120	1.510
2020/01/31 07:23:09.0	89.840	-0.150	0.160	1.540
2020/01/31 07:23:09.1	89.820	-0.170	0.200	1.570
2020/01/31 07:23:09.2	89.810	-0.190	0.240	1.590
2020/01/31 07:23:09.3	89.800	-0.200	0.270	1.610
2020/01/31 07:23:09.4	89.790	-0.210	0.300	1.630
2020/01/31 07:23:09.5	89.780	-0.220	0.320	1.640
2020/01/31 07:23:09.6	89.780	-0.220	0.340	1.650
2020/01/31 07:23:09.7	89.770	-0.230	0.350	1.660
2020/01/31 07:23:09.8	89.770	-0.230	0.360	1.660
2020/01/31 07:23:09.9	89.770	-0.220	0.360	1.660
2020/01/31 07:23:10.0	89.780	-0.220	0.360	1.660
2020/01/31 07:23:10.1	89.780	-0.210	0.350	1.650
2020/01/31 07:23:10.2	89.790	-0.190	0.330	1.640
2020/01/31 07:23:10.3	89.790	-0.180	0.310	1.630
2020/01/31 07:23:10.4	89.800	-0.160	0.280	1.620
2020/01/31 07:23:10.5	89.810	-0.130	0.250	1.610
2020/01/31 07:23:10.6	89.820	-0.110	0.210	1.590
2020/01/31 07:23:10.7	89.830	-0.080	0.170	1.570
2020/01/31 07:23:10.8	89.840	-0.050	0.120	1.550
2020/01/31 07:23:10.9	89.850	-0.020	0.060	1.520
2020/01/31 07:23:11.0	89.860	0.020	0.010	1.500
2020/01/31 07:23:11.1	89.880	0.060	-0.050	1.480
2020/01/31 07:23:11.2	89.890	0.090	-0.120	1.450
2020/01/31 07:23:11.3	89.900	0.130	-0.190	1.420
2020/01/31 07:23:11.4	89.920	0.170	-0.250	1.390
2020/01/31 07:23:11.5	89.930	0.210	-0.320	1.360
2020/01/31 07:23:11.6	89.950	0.250	-0.390	1.330
2020/01/31 07:23:11.7	89.960	0.290	-0.450	1.300
2020/01/31 07:23:11.8	89.980	0.330	-0.510	1.270
2020/01/31 07:23:11.9	89.990	0.370	-0.580	1.240
2020/01/31 07:23:12.0	90.000	0.400	-0.640	1.200
2020/01/31 07:23:12.1	90.010	0.430	-0.690	1.170
2020/01/31 07:23:12.2	90.020	0.470	-0.750	1.140
2020/01/31 07:23:12.3	90.030	0.490	-0.790	1.110
2020/01/31 07:23:12.4	90.040	0.520	-0.840	1.090
2020/01/31 07:23:12.5	90.050	0.540	-0.880	1.060
2020/01/31 07:23:12.6	90.050	0.560	-0.910	1.030
2020/01/31 07:23:12.7	90.060	0.570	-0.930	1.010
2020/01/31 07:23:12.8	90.060	0.590	-0.950	0.990
2020/01/31 07:23:12.9	90.060	0.590	-0.960	0.970
2020/01/31 07:23:13.0	90.060	0.590	-0.970	0.950
2020/01/31 07:23:13.1	90.060	0.590	-0.970	0.930
2020/01/31 07:23:13.2	90.060	0.590	-0.960	0.920
2020/01/31 07:23:13.3	90.060	0.580	-0.950	0.920
2020/01/31 07:23:13.4	90.050	0.560	-0.920	0.910
2020/01/31 07:23:13.5	90.050	0.540	-0.890	0.900
2020/01/31 07:23:13.6	90.040	0.520	-0.860	0.900
2020/01/31 07:23:13.7	90.030	0.500	-0.810	0.900
2020/01/31 07:23:13.8	90.020	0.470	-0.770	0.910
2020/01/31 07:23:13.9	90.010	0.430	-0.710	0.910
2020/01/31 07:23:14.0	90.000	0.390	-0.650	0.920
2020/01/31 07:23:14.1	89.990	0.350	-0.590	0.930
2020/01/31 07:23:14.2	89.980	0.310	-0.520	0.950
2020/01/31 07:23:14.3	89.960	0.270	-0.440	0.960
2020/01/31 07:23:14.4	89.950	0.220	-0.370	0.980
2020/01/31 07:23:14.5	89.940	0.170	-0.290	0.990
2020/01/31 07:23:14.6	89.920	0.120	-0.200	1.020
2020/01/31 07:23:14.7	89.910	0.070	-0.120	1.040
2020/01/31 07:23:14.8	89.890	0.020	-0.040	1.060
2020/01/31 07:23:14.9	89.880	-0.040	0.050	1.080
2020/01/31 07:23:15.0	89.870	-0.090	0.130	1.100
2020/01/31 07:23:15.1	89.860	-0.150	0.220	1.130
2020/01/31 07:23:15.2	89.850	-0.200	0.300	1.150
2020/01/31 07:23:15.3	89.840	-0.250	0.380	1.170
2020/01/31 07:23:15.4	89.830	-0.300	0.460	1.190
2020/01/31 07:23:15.5	89.820	-0.350	0.530	1.210
2020/01/31 07:23:15.6	89.810	-0.400	0.600	1.230
2020/01/31 07:23:15.7	89.800	-0.450	0.670	1.250
2020/01/31 07:23:15.8	89.800	-0.490	0.730	1.260
2020/01/31 07:23:15.9	89.800	-0.540	0.780	1.270
2020/01/31 07:23:16.0	89.790	-0.580	0.840	1.280
2020/01/31 07:23:16.1	89.790	-0.610	0.880	1.280
2020/01/31 07:23:16.2	89.790	-0.650	0.920	1.290
2020/01/31 07:23:16.3	89.780	-0.680	0.950	1.290
2020/01/31 07:23:16.4	89.780	-0.710	0.980	1.290
2020/01/31 07:23:16.5	89.780	-0.740	1.000	1.290
2020/01/31 07:23:16.6	89.770	-0.760	1.010	1.280
2020/01/31 07:23:16.7	89.770	-0.780	1.020	1.280
2020/01/31 07:23:16.8	89.760	-0.800	1.020	1.270
2020/01/31 07:23:16.9	89.750	-0.810	1.010	1.260
2020/01/31 07:23:17.0	89.750	-0.820	1.000	1.250
2020/01/31 07:23:17.1	89.740	-0.830	0.980	1.240
2020/01/31 07:23:17.2	89.730	-0.830	0.950	1.230
2020/01/31 07:23:17.3	89.710	-0.830	0.920	1.210
2020/01/31 07:23:17.4	89.700	-0.820	0.880	1.200
2020/01/31 07:23:17.5	89.680	-0.820	0.840	1.190
2020/01/31 07:23:17.6	89.670	-0.810	0.790	1.170
2020/01/31 07:23:17.7	89.650	-0.790	0.740	1.150
2020/01/31 07:23:17.8	89.640	-0.780	0.680	1.130
2020/01/31 07:23:17.9	89.620	-0.760	0.610	1.120
2020/01/31 07:23:18.0	89.600	-0.730	0.540	1.100
2020/01/31 07:23:18.1	89.590	-0.710	0.470	1.070
2020/01/31 07:23:18.2	89.570	-0.680	0.390	1.050
2020/01/31 07:23:18.3	89.550	-0.640	0.310	1.030
2020/01/31 07:23:18.4	89.540	-0.610	0.230	1.010
2020/01/31 07:23:18.5	89.530	-0.570	0.140	0.990
2020/01/31 07:23:18.6	89.520	-0.530	0.050	0.960
2020/01/31 07:23:18.7	89.500	-0.490	-0.050	0.940
2020/01/31 07:23:18.8	89.490	-0.440	-0.140	0.920
2020/01/31 07:23:18.9	89.490	-0.390	-0.240	0.890
2020/01/31 07:23:19.0	89.480	-0.340	-0.340	0.870
2020/01/31 07:23:19.1	89.470	-0.290	-0.440	0.850
2020/01/31 07:23:19.2	89.470	-0.240	-0.550	0.830
2020/01/31 07:23:19.3	89.460	-0.180	-0.650	0.810
2020/01/31 07:23:19.4	89.460	-0.130	-0.750	0.790
2020/01/31 07:23:19.5	89.460	-0.070	-0.850	0.780
2020/01/31 07:23:19.6	89.460	-0.010	-0.950	0.760
2020/01/31 07:23:19.7	89.470	0.050	-1.050	0.740
2020/01/31 07:23:19.8	89.470	0.100	-1.150	0.730
2020/01/31 07:23:19.9	89.480	0.160	-1.240	0.710
2020/01/31 07:23:20.0	89.480	0.220	-1.320	0.700
2020/01/31 07:23:20.1	89.490	0.270	-1.400	0.690
2020/01/31 07:23:20.2	89.500	0.330	-1.480	0.680
2020/01/31 07:23:20.3	89.510	0.380	-1.550	0.670
2020/01/31 07:23:20.4	89.530	0.430	-1.610	0.660
2020/01/31 07:23:20.5	89.540	0.480	-1.660	0.650
2020/01/31 07:23:20.6	89.550	0.530	-1.700	0.640
2020/01/31 07:23:20.7	89.570	0.570	-1.730	0.630
2020/01/31 07:23:20.8	89.590	0.610	-1.750	0.620
2020/01/31 07:23:20.9	89.600	0.650	-1.770	0.620
2020/01/31 07:23:21.0	89.620	0.680	-1.770	0.610
2020/01/31 07:23:21.1	89.640	0.710	-1.760	0.600
2020/01/31 07:23:21.2	89.660	0.740	-1.740	0.600
2020/01/31 07:23:21.3	89.670	0.760	-1.710	0.600
2020/01/31 07:23:21.4	89.690	0.780	-1.660	0.590
2020/01/31 07:23:21.5	89.710	0.790	-1.610	0.590
2020/01/31 07:23:21.6	89.730	0.800	-1.550	0.580
2020/01/31 07:23:21.7	89.750	0.800	-1.480	0.580
2020/01/31 07:23:21.8	89.760	0.800	-1.390	0.570
2020/01/31 07:23:21.9	89.780	0.790	-1.300	0.570
2020/01/31 07:23:22.0	89.790	0.780	-1.200	0.570
2020/01/31 07:23:22.1	89.800	0.770	-1.100	0.570
2020/01/31 07:23:22.2	89.810	0.750	-0.990	0.570
2020/01/31 07:23:22.3	89.820	0.730	-0.860	0.580
2020/01/31 07:23:22.4	89.820	0.710	-0.740	0.580
2020/01/31 07:23:22.5	89.820	0.680	-0.620	0.590
2020/01/31 07:23:22.6	89.820	0.650	-0.490	0.600
2020/01/31 07:23:22.7	89.820	0.620	-0.350	0.610
2020/01/31 07:23:22.8	89.810	0.580	-0.220	0.620
2020/01/31 07:23:22.9	89.800	0.550	-0.090	0.630
2020/01/31 07:23:23.0	89.790	0.510	0.040	0.650
2020/01/31 07:23:23.1	89.770	0.470	0.170	0.660
2020/01/31 07:23:23.2	89.750	0.430	0.300	0.680
2020/01/31 07:23:23.3	89.720	0.380	0.420	0.700
2020/01/31 07:23:23.4	89.700	0.340	0.540	0.720
2020/01/31 07:23:23.5	89.670	0.300	0.650	0.750
2020/01/31 07:23:23.6	89.640	0.260	0.750	0.770
2020/01/31 07:23:23.7	89.620	0.210	0.850	0.790
2020/01/31 07:23:23.8	89.580	0.170	0.940	0.820
2020/01/31 07:23:23.9	89.550	0.130	1.020	0.840
2020/01/31 07:23:24.0	89.520	0.090	1.100	0.870
2020/01/31 07:23:24.1	89.490	0.050	1.160	0.890
2020/01/31 07:23:24.2	89.450	0.010	1.220	0.920
2020/01/31 07:23:24.3	89.420	-0.030	1.270	0.940
2020/01/31 07:23:24.4	89.380	-0.070	1.310	0.970
2020/01/31 07:23:24.5	89.350	-0.100	1.340	1.000
2020/01/31 07:23:24.6	89.320	-0.140	1.360	1.030
2020/01/31 07:23:24.7	89.280	-0.170	1.370	1.050
2020/01/31 07:23:24.8	89.250	-0.200	1.370	1.080
2020/01/31 07:23:24.9	89.220	-0.230	1.370	1.110
2020/01/31 07:23:25.0	89.190	-0.260	1.350	1.140
2020/01/31 07:23:25.1	89.160	-0.290	1.330	1.170
2020/01/31 07:23:25.2	89.130	-0.310	1.290	1.200
2020/01/31 07:23:25.3	89.100	-0.340	1.250	1.240
2020/01/31 07:23:25.4	89.080	-0.360	1.200	1.270
2020/01/31 07:23:25.5	89.050	-0.380	1.140	1.300
2020/01/31 07:23:25.6	89.030	-0.400	1.080	1.320
2020/01/31 07:23:25.7	89.010	-0.410	1.010	1.350
2020/01/31 07:23:25.8	88.990	-0.430	0.940	1.380
2020/01/31 07:23:25.9	88.970	-0.440	0.860	1.400
2020/01/31 07:23:26.0	88.950	-0.450	0.770	1.430
2020/01/31 07:23:26.1	88.940	-0.460	0.680	1.450
2020/01/31 07:23:26.2	88.930	-0.470	0.590	1.460
2020/01/31 07:23:26.3	88.920	-0.480	0.490	1.480
2020/01/31 07:23:26.4	88.910	-0.480	0.390	1.490
2020/01/31 07:23:26.5	88.910	-0.490	0.280	1.500
2020/01/31 07:23:26.6	88.910	-0.490	0.180	1.510
2020/01/31 07:23:26.7	88.920	-0.490	0.070	1.510
2020/01/31 07:23:26.8	88.920	-0.490	-0.030	1.500
2020/01/31 07:23:26.9	88.930	-0.490	-0.140	1.500
2020/01/31 07:23:27.0	88.940	-0.480	-0.240	1.490
2020/01/31 07:23:27.1	88.960	-0.480	-0.340	1.470
2020/01/31 07:23:27.2	88.970	-0.470	-0.440	1.450
2020/01/31 07:23:27.3	88.990	-0.460	-0.540	1.420
2020/01/31 07:23:27.4	89.020	-0.450	-0.630	1.400
2020/01/31 07:23:27.5	89.040	-0.430	-0.720	1.370
2020/01/31 07:23:27.6	89.060	-0.420	-0.810	1.330
2020/01/31 07:23:27.7	89.090	-0.400	-0.880	1.300
2020/01/31 07:23:27.8	89.120	-0.380	-0.950	1.260
2020/01/31 07:23:27.9	89.150	-0.360	-1.020	1.220
2020/01/31 07:23:28.0	89.190	-0.340	-1.080	1.180
2020/01/31 07:23:28.1	89.220	-0.320	-1.130	1.140
2020/01/31 07:23:28.2	89.250	-0.290	-1.180	1.100
2020/01/31 07:23:28.3	89.290	-0.270	-1.210	1.060
2020/01/31 07:23:28.4	89.330	-0.240	-1.240	1.020
2020/01/31 07:23:28.5	89.370	-0.210	-1.260	0.980
2020/01/31 07:23:28.6	89.410	-0.190	-1.280	0.950
2020/01/31 07:23:28.7	89.450	-0.160	-1.280	0.910
2020/01/31 07:23:28.8	89.480	-0.130	-1.280	0.880
2020/01/31 07:23:28.9	89.520	-0.100	-1.280	0.860
2020/01/31 07:23:29.0	89.560	-0.070	-1.260	0.830
2020/01/31 07:23:29.1	89.590	-0.040	-1.240	0.810
2020/01/31 07:23:29.2	89.620	-0.010	-1.210	0.790
2020/01/31 07:23:29.3	89.660	0.020	-1.180	0.780
2020/01/31 07:23:29.4	89.690	0.050	-1.140	0.770
2020/01/31 07:23:29.5	89.710	0.070	-1.090	0.770
2020/01/31 07:23:29.6	89.740	0.100	-1.040	0.770
2020/01/31 07:23:29.7	89.760	0.130	-0.980	0.770
2020/01/31 07:23:29.8	89.780	0.150	-0.920	0.780
2020/01/31 07:23:29.9	89.790	0.170	-0.860	0.790
2020/01/31 07:23:30.0	89.800	0.200	-0.800	0.800
2020/01/31 07:23:30.1	89.810	0.220	-0.730	0.820
2020/01/31 07:23:30.2	89.810	0.240	-0.650	0.850
2020/01/31 07:23:30.3	89.820	0.250	-0.580	0.870
2020/01/31 07:23:30.4	89.810	0.270	-0.510	0.900
2020/01/31 07:23:30.5	89.810	0.280	-0.430	0.930
2020/01/31 07:23:30.6	89.790	0.290	-0.360	0.970
2020/01/31 07:23:30.7	89.780	0.310	-0.280	1.000
2020/01/31 07:23:30.8	89.760	0.310	-0.210	1.040
2020/01/31 07:23:30.9	89.740	0.320	-0.140	1.070
2020/01/31 07:23:31.0	89.720	0.320	-0.060	1.110
2020/01/31 07:23:31.1	89.690	0.330	0.000	1.150
2020/01/31 07:23:31.2	89.660	0.330	0.070	1.180
2020/01/31 07:23:31.3	89.630	0.330	0.130	1.220
2020/01/31 07:23:31.4	89.590	0.330	0.190	1.260
2020/01/31 07:23:31.5	89.560	0.320	0.240	1.290
2020/01/31 07:23:31.6	89.520	0.320	0.290	1.320
2020/01/31 07:23:31.7	89.480	0.310	0.340	1.350
2020/01/31 07:23:31.8	89.450	0.300	0.380	1.370
2020/01/31 07:23:31.9	89.410	0.300	0.410	1.390
2020/01/31 07:23:32.0	89.370	0.290	0.440	1.410
2020/01/31 07:23:32.1	89.330	0.280	0.460	1.420
2020/01/31 07:23:32.2	89.290	0.270	0.480	1.440
2020/01/31 07:23:32.3	89.250	0.260	0.490	1.440
2020/01/31 07:23:32.4	89.220	0.240	0.490	1.450
2020/01/31 07:23:32.5	89.180	0.230	0.490	1.440
2020/01/31 07:23:32.6	89.150	0.220	0.490	1.440
2020/01/31 07:23:32.7	89.120	0.210	0.480	1.430
2020/01/31 07:23:32.8	89.100	0.200	0.460	1.410
2020/01/31 07:23:32.9	89.070	0.190	0.440	1.400
2020/01/31 07:23:33.0	89.050	0.180	0.420	1.370
2020/01/31 07:23:33.1	89.030	0.170	0.390	1.350
2020/01/31 07:23:33.2	89.020	0.150	0.370	1.320
2020/01/31 07:23:33.3	89.000	0.140	0.330	1.290
2020/01/31 07:23:33.4	88.990	0.130	0.300	1.250
2020/01/31 07:23:33.5	88.990	0.120	0.260	1.220
2020/01/31 07:23:33.6	88.980	0.110	0.230	1.180
2020/01/31 07:23:33.7	88.980	0.100	0.190	1.140
2020/01/31 07:23:33.8	88.980	0.090	0.160	1.100
2020/01/31 07:23:33.9	88.980	0.080	0.120	1.060
2020/01/31 07:23:34.0	88.990	0.070	0.090	1.010
2020/01/31 07:23:34.1	89.000	0.060	0.050	0.970
2020/01/31 07:23:34.2	89.010	0.050	0.020	0.930
2020/01/31 07:23:34.3	89.020	0.040	-0.010	0.880
2020/01/31 07:23:34.4	89.030	0.030	-0.050	0.830
2020/01/31 07:23:34.5	89.040	0.020	-0.070	0.790
2020/01/31 07:23:34.6	89.060	0.000	-0.100	0.750
2020/01/31 07:23:34.7	89.080	-0.010	-0.130	0.700
2020/01/31 07:23:34.8	89.100	-0.020	-0.150	0.660
2020/01/31 07:23:34.9	89.110	-0.030	-0.170	0.610
2020/01/31 07:23:35.0	89.130	-0.050	-0.190	0.570
2020/01/31 07:23:35.1	89.160	-0.060	-0.210	0.530
2020/01/31 07:23:35.2	89.180	-0.080	-0.220	0.490
2020/01/31 07:23:35.3	89.200	-0.090	-0.230	0.460
2020/01/31 07:23:35.4	89.220	-0.110	-0.250	0.420
2020/01/31 07:23:35.5	89.240	-0.120	-0.250	0.390
2020/01/31 07:23:35.6	89.260	-0.140	-0.260	0.350
2020/01/31 07:23:35.7	89.280	-0.150	-0.270	0.330
2020/01/31 07:23:35.8	89.310	-0.170	-0.280	0.300
2020/01/31 07:23:35.9	89.330	-0.180	-0.280	0.270
2020/01/31 07:23:36.0	89.350	-0.200	-0.280	0.250
2020/01/31 07:23:36.1	89.370	-0.210	-0.290	0.230
2020/01/31 07:23:36.2	89.390	-0.230	-0.290	0.210
2020/01/31 07:23:36.3	89.400	-0.240	-0.300	0.200
2020/01/31 07:23:36.4	89.420	-0.250	-0.300	0.190
2020/01/31 07:23:36.5	89.440	-0.260	-0.300	0.180
2020/01/31 07:23:36.6	89.460	-0.270	-0.300	0.170
2020/01/31 07:23:36.7	89.470	-0.280	-0.300	0.170
2020/01/31 07:23:36.8	89.490	-0.290	-0.310	0.160
2020/01/31 07:23:36.9	89.500	-0.300	-0.310	0.170
2020/01/31 07:23:37.0	89.520	-0.310	-0.310	0.170
2020/01/31 07:23:37.1	89.530	-0.310	-0.310	0.180
2020/01/31 07:23:37.2	89.540	-0.310	-0.320	0.190
2020/01/31 07:23:37.3	89.540	-0.310	-0.320	0.200
2020/01/31 07:23:37.4	89.550	-0.310	-0.330	0.220
2020/01/31 07:23:37.5	89.550	-0.310	-0.330	0.240
2020/01/31 07:23:37.6	89.560	-0.310	-0.340	0.270
2020/01/31 07:23:37.7	89.560	-0.300	-0.340	0.300
2020/01/31 07:23:37.8	89.550	-0.300	-0.350	0.330
2020/01/31 07:23:37.9	89.550	-0.290	-0.360	0.370
2020/01/31 07:23:38.0	89.540	-0.280	-0.370	0.410
2020/01/31 07:23:38.1	89.530	-0.270	-0.370	0.450
2020/01/31 07:23:38.2	89.520	-0.250	-0.380	0.500
2020/01/31 07:23:38.3	89.500	-0.240	-0.390	0.550
2020/01/31 07:23:38.4	89.490	-0.220	-0.400	0.600
2020/01/31 07:23:38.5	89.470	-0.210	-0.400	0.650
2020/01/31 07:23:38.6	89.460	-0.190	-0.410	0.700
2020/01/31 07:23:38.7	89.440	-0.170	-0.410	0.760
2020/01/31 07:23:38.8	89.430	-0.150	-0.420	0.810
2020/01/31 07:23:38.9	89.410	-0.130	-0.420	0.860
2020/01/31 07:23:39.0	89.400	-0.110	-0.420	0.920
2020/01/31 07:23:39.1	89.380	-0.090	-0.420	0.970
2020/01/31 07:23:39.2	89.370	-0.070	-0.420	1.020
2020/01/31 07:23:39.3	89.360	-0.050	-0.410	1.070
2020/01/31 07:23:39.4	89.350	-0.030	-0.410	1.110
2020/01/31 07:23:39.5	89.340	-0.010	-0.400	1.160
2020/01/31 07:23:39.6	89.330	0.010	-0.390	1.200
2020/01/31 07:23:39.7	89.320	0.030	-0.370	1.240
2020/01/31 07:23:39.8	89.310	0.040	-0.360	1.280
2020/01/31 07:23:39.9	89.310	0.060	-0.340	1.310
2020/01/31 07:23:40.0	89.310	0.080	-0.320	1.340
2020/01/31 07:23:40.1	89.310	0.090	-0.300	1.370
2020/01/31 07:23:40.2	89.300	0.100	-0.270	1.390
2020/01/31 07:23:40.3	89.300	0.120	-0.240	1.410
2020/01/31 07:23:40.4	89.310	0.130	-0.210	1.430
2020/01/31 07:23:40.5	89.310	0.140	-0.180	1.450
2020/01/31 07:23:40.6	89.310	0.140	-0.150	1.460
2020/01/31 07:23:40.7	89.320	0.150	-0.110	1.470
2020/01/31 07:23:40.8	89.320	0.160	-0.080	1.470
2020/01/31 07:23:40.9	89.330	0.160	-0.040	1.480
2020/01/31 07:23:41.0	89.330	0.160	-0.000	1.480
2020/01/31 07:23:41.1	89.340	0.160	0.040	1.470
2020/01/31 07:23:41.2	89.350	0.160	0.070	1.470
2020/01/31 07:23:41.3	89.350	0.160	0.110	1.460
2020/01/31 07:23:41.4	89.360	0.160	0.150	1.450
2020/01/31 07:23:41.5	89.370	0.160	0.180	1.430
2020/01/31 07:23:41.6	89.380	0.150	0.220	1.420
2020/01/31 07:23:41.7	89.390	0.150	0.250	1.400
2020/01/31 07:23:41.8	89.400	0.140	0.280	1.380
2020/01/31 07:23:41.9	89.410	0.140	0.300	1.350
2020/01/31 07:23:42.0	89.410	0.130	0.320	1.330
2020/01/31 07:23:42.1	89.420	0.130	0.340	1.300
2020/01/31 07:23:42.2	89.430	0.120	0.350	1.280
2020/01/31 07:23:42.3	89.430	0.110	0.360	1.250
2020/01/31 07:23:42.4	89.440	0.110	0.370	1.220
2020/01/31 07:23:42.5	89.440	0.100	0.370	1.190
2020/01/31 07:23:42.6	89.440	0.100	0.360	1.160
2020/01/31 07:23:42.7	89.440	0.090	0.350	1.130
2020/01/31 07:23:42.8	89.440	0.090	0.340	1.100
2020/01/31 07:23:42.9	89.440	0.080	0.320	1.060
2020/01/31 07:23:43.0	89.440	0.080	0.300	1.030
2020/01/31 07:23:43.1	89.440	0.080	0.270	1.000
2020/01/31 07:23:43.2	89.440	0.080	0.240	0.970
2020/01/31 07:23:43.3	89.440	0.080	0.200	0.940
2020/01/31 07:23:43.4	89.440	0.080	0.160	0.910
2020/01/31 07:23:43.5	89.430	0.090	0.110	0.880
2020/01/31 07:23:43.6	89.430	0.090	0.070	0.850
2020/01/31 07:23:43.7	89.430	0.100	0.020	0.810
2020/01/31 07:23:43.8	89.430	0.110	-0.030	0.780
2020/01/31 07:23:43.9	89.440	0.110	-0.090	0.750
2020/01/31 07:23:44.0	89.440	0.120	-0.140	0.720
2020/01/31 07:23:44.1	89.440	0.130	-0.200	0.690
2020/01/31 07:23:44.2	89.450	0.140	-0.250	0.660
2020/01/31 07:23:44.3	89.450	0.150	-0.320	0.630
2020/01/31 07:23:44.4	89.460	0.170	-0.370	0.600
2020/01/31 07:23:44.5	89.470	0.180	-0.420	0.570
2020/01/31 07:23:44.6	89.480	0.190	-0.480	0.550
2020/01/31 07:23:44.7	89.480	0.200	-0.530	0.520
2020/01/31 07:23:44.8	89.490	0.210	-0.580	0.500
2020/01/31 07:23:44.9	89.500	0.230	-0.620	0.480
2020/01/31 07:23:45.0	89.510	0.240	-0.660	0.460
2020/01/31 07:23:45.1	89.510	0.250	-0.700	0.440
2020/01/31 07:23:45.2	89.520	0.260	-0.740	0.430
2020/01/31 07:23:45.3	89.520	0.270	-0.760	0.420
2020/01/31 07:23:45.4	89.530	0.280	-0.790	0.420
2020/01/31 07:23:45.5	89.530	0.280	-0.810	0.410
2020/01/31 07:23:45.6	89.530	0.290	-0.820	0.410
2020/01/31 07:23:45.7	89.530	0.290	-0.830	0.420
2020/01/31 07:23:45.8	89.520	0.290	-0.830	0.420
2020/01/31 07:23:45.9	89.520	0.290	-0.830	0.430
2020/01/31 07:23:46.0	89.520	0.290	-0.820	0.440
2020/01/31 07:23:46.1	89.510	0.280	-0.810	0.450
2020/01/31 07:23:46.2	89.500	0.270	-0.790	0.460
2020/01/31 07:23:46.3	89.490	0.260	-0.770	0.480
2020/01/31 07:23:46.4	89.490	0.250	-0.740	0.500
2020/01/31 07:23:46.5	89.480	0.230	-0.700	0.520
2020/01/31 07:23:46.6	89.470	0.210	-0.660	0.540
2020/01/31 07:23:46.7	89.460	0.190	-0.610	0.560
2020/01/31 07:23:46.8	89.450	0.170	-0.560	0.590
2020/01/31 07:23:46.9	89.440	0.140	-0.510	0.610
2020/01/31 07:23:47.0	89.430	0.110	-0.450	0.640
2020/01/31 07:23:47.1	89.420	0.090	-0.390	0.660
2020/01/31 07:23:47.2	89.420	0.050	-0.330	0.690
2020/01/31 07:23:47.3	89.410	0.020	-0.260	0.720
2020/01/31 07:23:47.4	89.400	-0.010	-0.190	0.750
2020/01/31 07:23:47.5	89.400	-0.050	-0.120	0.770
2020/01/31 07:23:47.6	89.390	-0.090	-0.060	0.800
2020/01/31 07:23:47.7	89.390	-0.120	0.010	0.820
2020/01/31 07:23:47.8	89.390	-0.160	0.080	0.850
2020/01/31 07:23:47.9	89.390	-0.200	0.140	0.880
2020/01/31 07:23:48.0	89.390	-0.230	0.210	0.900
2020/01/31 07:23:48.1	89.400	-0.270	0.270	0.930
2020/01/31 07:23:48.2	89.400	-0.300	0.320	0.950
2020/01/31 07:23:48.3	89.400	-0.330	0.380	0.980
2020/01/31 07:23:48.4	89.410	-0.370	0.430	1.000
2020/01/31 07:23:48.5	89.410	-0.400	0.470	1.020
2020/01/31 07:23:48.6	89.420	-0.420	0.520	1.050
2020/01/31 07:23:48.7	89.430	-0.450	0.550	1.070
2020/01/31 07:23:48.8	89.430	-0.470	0.580	1.090
2020/01/31 07:23:48.9	89.440	-0.490	0.610	1.110
2020/01/31 07:23:49.0	89.450	-0.500	0.630	1.130
2020/01/31 07:23:49.1	89.460	-0.520	0.640	1.150
2020/01/31 07:23:49.2	89.470	-0.530	0.650	1.160
2020/01/31 07:23:49.3	89.470	-0.530	0.650	1.180
2020/01/31 07:23:49.4	89.480	-0.540	0.640	1.190
2020/01/31 07:23:49.5	89.490	-0.540	0.630	1.210
2020/01/31 07:23:49.6	89.500	-0.530	0.610	1.210
2020/01/31 07:23:49.7	89.510	-0.520	0.590	1.220
2020/01/31 07:23:49.8	89.520	-0.510	0.560	1.230
2020/01/31 07:23:49.9	89.530	-0.500	0.520	1.230
2020/01/31 07:23:50.0	89.540	-0.490	0.480	1.230
2020/01/31 07:23:50.1	89.550	-0.470	0.430	1.220
2020/01/31 07:23:50.2	89.560	-0.450	0.380	1.220
2020/01/31 07:23:50.3	89.570	-0.420	0.330	1.210
2020/01/31 07:23:50.4	89.580	-0.400	0.270	1.200
2020/01/31 07:23:50.5	89.590	-0.370	0.210	1.190
2020/01/31 07:23:50.6	89.590	-0.340	0.150	1.180
2020/01/31 07:23:50.7	89.600	-0.310	0.090	1.160
2020/01/31 07:23:50.8	89.610	-0.280	0.020	1.150
2020/01/31 07:23:50.9	89.620	-0.250	-0.040	1.130
2020/01/31 07:23:51.0	89.620	-0.220	-0.100	1.110
2020/01/31 07:23:51.1	89.630	-0.190	-0.170	1.090
2020/01/31 07:23:51.2	89.630	-0.160	-0.220	1.080
2020/01/31 07:23:51.3	89.640	-0.130	-0.280	1.060
2020/01/31 07:23:51.4	89.640	-0.100	-0.340	1.040
2020/01/31 07:23:51.5	89.640	-0.070	-0.390	1.030
2020/01/31 07:23:51.6	89.640	-0.040	-0.440	1.010
2020/01/31 07:23:51.7	89.630	-0.010	-0.480	1.000
2020/01/31 07:23:51.8	89.630	0.010	-0.520	0.990
2020/01/31 07:23:51.9	89.630	0.040	-0.550	0.980
2020/01/31 07:23:52.0	89.620	0.060	-0.580	0.970
2020/01/31 07:23:52.1	89.610	0.080	-0.600	0.970
2020/01/31 07:23:52.2	89.600	0.100	-0.620	0.970
2020/01/31 07:23:52.3	89.580	0.120	-0.630	0.970
2020/01/31 07:23:52.4	89.570	0.140	-0.640	0.970
2020/01/31 07:23:52.5	89.560	0.150	-0.650	0.970
2020/01/31 07:23:52.6	89.540	0.170	-0.650	0.980
2020/01/31 07:23:52.7	89.520	0.180	-0.650	0.980
2020/01/31 07:23:52.8	89.510	0.190	-0.640	0.990
2020/01/31 07:23:52.9	89.490	0.200	-0.630	1.000
2020/01/31 07:23:53.0	89.470	0.210	-0.620	1.010
2020/01/31 07:23:53.1	89.460	0.210	-0.600	1.030
2020/01/31 07:23:53.2	89.440	0.220	-0.580	1.040
2020/01/31 07:23:53.3	89.420	0.220	-0.560	1.060
2020/01/31 07:23:53.4	89.410	0.220	-0.540	1.070
2020/01/31 07:23:53.5	89.390	0.230	-0.520	1.080
2020/01/31 07:23:53.6	89.380	0.230	-0.500	1.090
2020/01/31 07:23:53.7	89.370	0.230	-0.480	1.100
2020/01/31 07:23:53.8	89.360	0.230	-0.460	1.110
2020/01/31 07:23:53.9	89.350	0.220	-0.440	1.120
2020/01/31 07:23:54.0	89.350	0.220	-0.410	1.130
2020/01/31 07:23:54.1	89.340	0.220	-0.390	1.130
2020/01/31 07:23:54.2	89.340	0.220	-0.380	1.130
2020/01/31 07:23:54.3	89.340	0.210	-0.360	1.130
2020/01/31 07:23:54.4	89.340	0.210	-0.340	1.120
2020/01/31 07:23:54.5	89.340	0.210	-0.330	1.120
2020/01/31 07:23:54.6	89.340	0.200	-0.310	1.110
2020/01/31 07:23:54.7	89.340	0.200	-0.300	1.090
2020/01/31 07:23:54.8	89.350	0.200	-0.290	1.080
2020/01/31 07:23:54.9	89.350	0.190	-0.290	1.060
2020/01/31 07:23:55.0	89.350	0.190	-0.280	1.040
2020/01/31 07:23:55.1	89.360	0.190	-0.280	1.020
2020/01/31 07:23:55.2	89.360	0.180	-0.270	0.990
2020/01/31 07:23:55.3	89.360	0.180	-0.270	0.970
2020/01/31 07:23:55.4	89.360	0.180	-0.270	0.940
2020/01/31 07:23:55.5	89.360	0.170	-0.280	0.910
2020/01/31 07:23:55.6	89.360	0.170	-0.280	0.890
2020/01/31 07:23:55.7	89.360	0.170	-0.280	0.860
2020/01/31 07:23:55.8	89.350	0.160	-0.280	0.830
2020/01/31 07:23:55.9	89.350	0.160	-0.290	0.810
2020/01/31 07:23:56.0	89.340	0.160	-0.290	0.780
2020/01/31 07:23:56.1	89.330	0.150	-0.290	0.760
2020/01/31 07:23:56.2	89.320	0.150	-0.300	0.740
2020/01/31 07:23:56.3	89.310	0.150	-0.300	0.710
2020/01/31 07:23:56.4	89.300	0.140	-0.300	0.690
2020/01/31 07:23:56.5	89.290	0.140	-0.290	0.670
2020/01/31 07:23:56.6	89.280	0.140	-0.290	0.660
2020/01/31 07:23:56.7	89.260	0.130	-0.290	0.640
2020/01/31 07:23:56.8	89.250	0.130	-0.280	0.630
2020/01/31 07:23:56.9	89.240	0.120	-0.270	0.610
2020/01/31 07:23:57.0	89.230	0.120	-0.260	0.600
2020/01/31 07:23:57.1	89.220	0.110	-0.250	0.590
2020/01/31 07:23:57.2	89.210	0.110	-0.230	0.580
2020/01/31 07:23:57.3	89.200	0.100	-0.210	0.570
2020/01/31 07:23:57.4	89.200	0.090	-0.190	0.570
2020/01/31 07:23:57.5	89.190	0.090	-0.170	0.560
2020/01/31 07:23:57.6	89.190	0.080	-0.150	0.550
2020/01/31 07:23:57.7	89.180	0.070	-0.120	0.550
2020/01/31 07:23:57.8	89.180	0.060	-0.100	0.540
2020/01/31 07:23:57.9	89.180	0.050	-0.070	0.540
2020/01/31 07:23:58.0	89.180	0.040	-0.040	0.530
2020/01/31 07:23:58.1	89.190	0.030	-0.010	0.530
2020/01/31 07:23:58.2	89.190	0.010	0.020	0.530
2020/01/31 07:23:58.3	89.200	0.000	0.050	0.530
2020/01/31 07:23:58.4	89.210	-0.010	0.090	0.520
2020/01/31 07:23:58.5	89.220	-0.030	0.120	0.520
2020/01/31 07:23:58.6	89.230	-0.040	0.150	0.520
2020/01/31 07:23:58.7	89.240	-0.050	0.180	0.520
2020/01/31 07:23:58.8	89.250	-0.070	0.210	0.520
2020/01/31 07:23:58.9	89.260	-0.080	0.230	0.520
2020/01/31 07:23:59.0	89.280	-0.100	0.260	0.520
2020/01/31 07:23:59.1	89.290	-0.110	0.280	0.530
2020/01/31 07:23:59.2	89.310	-0.130	0.300	0.530
2020/01/31 07:23:59.3	89.320	-0.140	0.320	0.530
2020/01/31 07:23:59.4	89.340	-0.150	0.340	0.530
2020/01/31 07:23:59.5	89.350	-0.170	0.350	0.540
2020/01/31 07:23:59.6	89.370	-0.180	0.360	0.540
2020/01/31 07:23:59.7	89.380	-0.190	0.370	0.550
2020/01/31 07:23:59.8	89.400	-0.200	0.380	0.560
2020/01/31 07:23:59.9	89.410	-0.210	0.380	0.560
2020/01/31 07:24:00.0	89.430	-0.220	0.380	0.570
2020/01/31 07:24:00.1	89.440	-0.230	0.380	0.580
2020/01/31 07:24:00.2	89.450	-0.230	0.370	0.590
2020/01/31 07:24:00.3	89.460	-0.240	0.360	0.600
2020/01/31 07:24:00.4	89.470	-0.240	0.350	0.620
2020/01/31 07:24:00.5	89.480	-0.240	0.340	0.630
2020/01/31 07:24:00.6	89.480	-0.250	0.320	0.650
2020/01/31 07:24:00.7	89.490	-0.250	0.310	0.670
2020/01/31 07:24:00.8	89.490	-0.240	0.290	0.690
2020/01/31 07:24:00.9	89.490	-0.240	0.260	0.710
2020/01/31 07:24:01.0	89.480	-0.240	0.240	0.730
2020/01/31 07:24:01.1	89.480	-0.230	0.220	0.760
2020/01/31 07:24:01.2	89.470	-0.220	0.190	0.780
2020/01/31 07:24:01.3	89.460	-0.220	0.160	0.810
2020/01/31 07:24:01.4	89.450	-0.210	0.130	0.840
2020/01/31 07:24:01.5	89.440	-0.200	0.100	0.870
2020/01/31 07:24:01.6	89.420	-0.190	0.070	0.900
2020/01/31 07:24:01.7	89.400	-0.180	0.040	0.930
2020/01/31 07:24:01.8	89.380	-0.160	0.010	0.970
2020/01/31 07:24:01.9	89.360	-0.150	-0.020	1.000
2020/01/31 07:24:02.0	89.340	-0.140	-0.060	1.030
2020/01/31 07:24:02.1	89.320	-0.120	-0.090	1.070
2020/01/31 07:24:02.2	89.290	-0.110	-0.120	1.100
2020/01/31 07:24:02.3	89.270	-0.090	-0.160	1.130
2020/01/31 07:24:02.4	89.240	-0.070	-0.200	1.160
2020/01/31 07:24:02.5	89.220	-0.050	-0.230	1.190
2020/01/31 07:24:02.6	89.200	-0.040	-0.270	1.220
2020/01/31 07:24:02.7	89.180	-0.020	-0.300	1.250
2020/01/31 07:24:02.8	89.160	-0.000	-0.340	1.270
2020/01/31 07:24:02.9	89.140	0.020	-0.370	1.290
2020/01/31 07:24:03.0	89.120	0.040	-0.400	1.310
2020/01/31 07:24:03.1	89.110	0.060	-0.440	1.330
2020/01/31 07:24:03.2	89.090	0.080	-0.470	1.340
2020/01/31 07:24:03.3	89.080	0.100	-0.500	1.360
2020/01/31 07:24:03.4	89.070	0.120	-0.530	1.370
2020/01/31 07:24:03.5	89.060	0.140	-0.560	1.370
2020/01/31 07:24:03.6	89.050	0.150	-0.590	1.380
2020/01/31 07:24:03.7	89.040	0.170	-0.610	1.380
2020/01/31 07:24:03.8	89.030	0.190	-0.640	1.380
2020/01/31 07:24:03.9	89.030	0.210	-0.660	1.380
2020/01/31 07:24:04.0	89.030	0.230	-0.680	1.370
2020/01/31 07:24:04.1	89.020	0.250	-0.700	1.370
2020/01/31 07:24:04.2	89.020	0.260	-0.720	1.360
2020/01/31 07:24:04.3	89.020	0.280	-0.740	1.350
2020/01/31 07:24:04.4	89.030	0.290	-0.750	1.340
2020/01/31 07:24:04.5	89.030	0.310	-0.760	1.320
2020/01/31 07:24:04.6	89.030	0.320	-0.770	1.310
2020/01/31 07:24:04.7	89.030	0.340	-0.770	1.300
2020/01/31 07:24:04.8	89.030	0.350	-0.770	1.280
2020/01/31 07:24:04.9	89.030	0.360	-0.770	1.260
2020/01/31 07:24:05.0	89.040	0.370	-0.770	1.250
2020/01/31 07:24:05.1	89.040	0.380	-0.770	1.230
2020/01/31 07:24:05.2	89.040	0.380	-0.760	1.220
2020/01/31 07:24:05.3	89.040	0.390	-0.750	1.200
2020/01/31 07:24:05.4	89.040	0.390	-0.730	1.190
2020/01/31 07:24:05.5	89.040	0.400	-0.720	1.170
2020/01/31 07:24:05.6	89.040	0.400	-0.700	1.160
2020/01/31 07:24:05.7	89.040	0.400	-0.680	1.150
2020/01/31 07:24:05.8	89.040	0.400	-0.650	1.130
2020/01/31 07:24:05.9	89.040	0.390	-0.630	1.120
2020/01/31 07:24:06.0	89.030	0.390	-0.600	1.110
2020/01/31 07:24:06.1	89.030	0.380	-0.570	1.100
2020/01/31 07:24:06.2	89.030	0.370	-0.540	1.090
2020/01/31 07:24:06.3	89.020	0.360	-0.500	1.080
2020/01/31 07:24:06.4	89.020	0.350	-0.470	1.070
2020/01/31 07:24:06.5	89.020	0.330	-0.430	1.060
2020/01/31 07:24:06.6	89.010	0.310	-0.390	1.060
2020/01/31 07:24:06.7	89.010	0.290	-0.350	1.050
2020/01/31 07:24:06.8	89.000	0.270	-0.310	1.050
2020/01/31 07:24:06.9	89.000	0.250	-0.270	1.050
2020/01/31 07:24:07.0	88.990	0.230	-0.230	1.050
2020/01/31 07:24:07.1	88.990	0.200	-0.190	1.050
2020/01/31 07:24:07.2	88.980	0.170	-0.150	1.050
2020/01/31 07:24:07.3	88.980	0.140	-0.110	1.050
2020/01/31 07:24:07.4	88.980	0.110	-0.060	1.050
2020/01/31 07:24:07.5	88.970	0.080	-0.020	1.060
2020/01/31 07:24:07.6	88.970	0.050	0.020	1.060
2020/01/31 07:24:07.7	88.970	0.010	0.060	1.070
2020/01/31 07:24:07.8	88.970	-0.020	0.100	1.080
2020/01/31 07:24:07.9	88.970	-0.060	0.140	1.090
2020/01/31 07:24:08.0	88.960	-0.100	0.170	1.090
2020/01/31 07:24:08.1	88.960	-0.130	0.210	1.100
2020/01/31 07:24:08.2	88.960	-0.170	0.250	1.110
2020/01/31 07:24:08.3	88.960	-0.210	0.280	1.120
2020/01/31 07:24:08.4	88.950	-0.240	0.310	1.130
2020/01/31 07:24:08.5	88.950	-0.280	0.340	1.130
2020/01/31 07:24:08.6	88.950	-0.320	0.370	1.140
2020/01/31 07:24:08.7	88.950	-0.350	0.400	1.140
2020/01/31 07:24:08.8	88.950	-0.390	0.420	1.140
2020/01/31 07:24:08.9	88.940	-0.420	0.450	1.140
2020/01/31 07:24:09.0	88.940	-0.450	0.470	1.140
2020/01/31 07:24:09.1	88.940	-0.480	0.480	1.140
2020/01/31 07:24:09.2	88.940	-0.510	0.500	1.130
2020/01/31 07:24:09.3	88.940	-0.540	0.510	1.120
2020/01/31 07:24:09.4	88.940	-0.560	0.520	1.100
2020/01/31 07:24:09.5	88.940	-0.590	0.530	1.080
2020/01/31 07:24:09.6	88.940	-0.610	0.530	1.060
2020/01/31 07:24:09.7	88.940	-0.620	0.530	1.040
2020/01/31 07:24:09.8	88.950	-0.640	0.530	1.010
2020/01/31 07:24:09.9	88.950	-0.650	0.520	0.980
2020/01/31 07:24:10.0	88.960	-0.660	0.520	0.950
2020/01/31 07:24:10.1	88.960	-0.660	0.510	0.920
2020/01/31 07:24:10.2	88.970	-0.660	0.490	0.880
2020/01/31 07:24:10.3	88.980	-0.660	0.480	0.840
2020/01/31 07:24:10.4	88.980	-0.660	0.460	0.800
2020/01/31 07:24:10.5	88.990	-0.650	0.440	0.760
2020/01/31 07:24:10.6	89.000	-0.640	0.420	0.720
2020/01/31 07:24:10.7	89.000	-0.630	0.390	0.680
2020/01/31 07:24:10.8	89.010	-0.620	0.370	0.640
2020/01/31 07:24:10.9	89.020	-0.600	0.340	0.600
2020/01/31 07:24:11.0	89.020	-0.580	0.310	0.570
2020/01/31 07:24:11.1	89.030	-0.560	0.280	0.530
2020/01/31 07:24:11.2	89.030	-0.530	0.250	0.500
2020/01/31 07:24:11.3	89.030	-0.510	0.220	0.470
2020/01/31 07:24:11.4	89.030	-0.480	0.190	0.450
2020/01/31 07:24:11.5	89.030	-0.450	0.160	0.420
2020/01/31 07:24:11.6	89.030	-0.420	0.120	0.400
2020/01/31 07:24:11.7	89.030	-0.390	0.090	0.380
2020/01/31 07:24:11.8	89.030	-0.360	0.060	0.360
2020/01/31 07:24:11.9	89.020	-0.320	0.020	0.350
2020/01/31 07:24:12.0	89.020	-0.290	-0.010	0.340
2020/01/31 07:24:12.1	89.010	-0.260	-0.050	0.330
2020/01/31 07:24:12.2	89.010	-0.220	-0.080	0.330
2020/01/31 07:24:12.3	89.000	-0.190	-0.120	0.320
2020/01/31 07:24:12.4	88.990	-0.150	-0.150	0.320
2020/01/31 07:24:12.5	88.980	-0.120	-0.190	0.320
2020/01/31 07:24:12.6	88.970	-0.080	-0.220	0.330
2020/01/31 07:24:12.7	88.960	-0.050	-0.260	0.330
2020/01/31 07:24:12.8	88.950	-0.020	-0.300	0.340
2020/01/31 07:24:12.9	88.940	0.020	-0.340	0.350
2020/01/31 07:24:13.0	88.930	0.050	-0.380	0.360
2020/01/31 07:24:13.1	88.920	0.080	-0.420	0.370
2020/01/31 07:24:13.2	88.910	0.110	-0.460	0.380
2020/01/31 07:24:13.3	88.900	0.140	-0.500	0.400
2020/01/31 07:24:13.4	88.900	0.180	-0.540	0.410
2020/01/31 07:24:13.5	88.890	0.200	-0.580	0.430
2020/01/31 07:24:13.6	88.880	0.230	-0.620	0.440
2020/01/31 07:24:13.7	88.870	0.260	-0.660	0.460
2020/01/31 07:24:13.8	88.870	0.290	-0.700	0.470
2020/01/31 07:24:13.9	88.860	0.310	-0.740	0.490
2020/01/31 07:24:14.0	88.860	0.340	-0.770	0.500
2020/01/31 07:24:14.1	88.850	0.360	-0.810	0.520
2020/01/31 07:24:14.2	88.850	0.390	-0.840	0.530
2020/01/31 07:24:14.3	88.850	0.410	-0.870	0.550
2020/01/31 07:24:14.4	88.840	0.430	-0.900	0.560
2020/01/31 07:24:14.5	88.840	0.450	-0.930	0.580
2020/01/31 07:24:14.6	88.840	0.460	-0.950	0.590
2020/01/31 07:24:14.7	88.840	0.480	-0.970	0.610
2020/01/31 07:24:14.8	88.840	0.490	-0.990	0.620
2020/01/31 07:24:14.9	88.830	0.510	-1.000	0.630
2020/01/31 07:24:15.0	88.830	0.520	-1.010	0.650
2020/01/31 07:24:15.1	88.830	0.530	-1.010	0.660
2020/01/31 07:24:15.2	88.820	0.540	-1.010	0.670
2020/01/31 07:24:15.3	88.820	0.540	-1.010	0.680
2020/01/31 07:24:15.4	88.810	0.550	-1.000	0.690
2020/01/31 07:24:15.5	88.800	0.550	-0.980	0.710
2020/01/31 07:24:15.6	88.790	0.550	-0.960	0.720
2020/01/31 07:24:15.7	88.780	0.550	-0.930	0.730
2020/01/31 07:24:15.8	88.770	0.550	-0.900	0.750
2020/01/31 07:24:15.9	88.750	0.540	-0.860	0.760
2020/01/31 07:24:16.0	88.740	0.530	-0.820	0.780
2020/01/31 07:24:16.1	88.720	0.530	-0.770	0.800
2020/01/31 07:24:16.2	88.700	0.520	-0.720	0.820
2020/01/31 07:24:16.3	88.680	0.500	-0.660	0.830
2020/01/31 07:24:16.4	88.660	0.490	-0.600	0.850
2020/01/31 07:24:16.5	88.640	0.480	-0.540	0.870
2020/01/31 07:24:16.6	88.620	0.460	-0.470	0.890
2020/01/31 07:24:16.7	88.590	0.440	-0.400	0.910
2020/01/31 07:24:16.8	88.570	0.420	-0.330	0.940
2020/01/31 07:24:16.9	88.540	0.400	-0.260	0.960
2020/01/31 07:24:17.0	88.520	0.380	-0.180	0.980
2020/01/31 07:24:17.1	88.490	0.350	-0.110	1.000
2020/01/31 07:24:17.2	88.470	0.330	-0.040	1.020
2020/01/31 07:24:17.3	88.450	0.310	0.040	1.050
2020/01/31 07:24:17.4	88.430	0.280	0.110	1.070
2020/01/31 07:24:17.5	88.400	0.250	0.180	1.090
2020/01/31 07:24:17.6	88.380	0.230	0.250	1.110
2020/01/31 07:24:17.7	88.370	0.200	0.310	1.130
2020/01/31 07:24:17.8	88.350	0.180	0.370	1.150
2020/01/31 07:24:17.9	88.340	0.150	0.420	1.170
2020/01/31 07:24:18.0	88.320	0.120	0.470	1.190
2020/01/31 07:24:18.1	88.310	0.100	0.520	1.210
2020/01/31 07:24:18.2	88.310	0.080	0.560	1.230
2020/01/31 07:24:18.3	88.300	0.050	0.590	1.240
2020/01/31 07:24:18.4	88.300	0.030	0.620	1.260
2020/01/31 07:24:18.5	88.290	0.010	0.640	1.270
2020/01/31 07:24:18.6	88.290	-0.010	0.660	1.280
2020/01/31 07:24:18.7	88.300	-0.020	0.660	1.290
2020/01/31 07:24:18.8	88.300	-0.040	0.670	1.300
2020/01/31 07:24:18.9	88.310	-0.050	0.660	1.310
2020/01/31 07:24:19.0	88.310	-0.070	0.650	1.320
2020/01/31 07:24:19.1	88.320	-0.080	0.640	1.320
2020/01/31 07:24:19.2	88.330	-0.090	0.620	1.320
2020/01/31 07:24:19.3	88.350	-0.100	0.590	1.330
2020/01/31 07:24:19.4	88.360	-0.100	0.560	1.330
2020/01/31 07:24:19.5	88.370	-0.110	0.520	1.320
2020/01/31 07:24:19.6	88.390	-0.110	0.480	1.320
2020/01/31 07:24:19.7	88.400	-0.110	0.440	1.310
2020/01/31 07:24:19.8	88.420	-0.110	0.390	1.310
2020/01/31 07:24:19.9	88.430	-0.110	0.340	1.300
2020/01/31 07:24:20.0	88.450	-0.110	0.290	1.290
2020/01/31 07:24:20.1	88.470	-0.110	0.230	1.270
2020/01/31 07:24:20.2	88.490	-0.110	0.180	1.260
2020/01/31 07:24:20.3	88.510	-0.100	0.120	1.240
2020/01/31 07:24:20.4	88.530	-0.100	0.060	1.230
2020/01/31 07:24:20.5	88.550	-0.100	0.000	1.210
2020/01/31 07:24:20.6	88.570	-0.090	-0.050	1.190
2020/01/31 07:24:20.7	88.590	-0.090	-0.110	1.170
2020/01/31 07:24:20.8	88.610	-0.090	-0.160	1.160
2020/01/31 07:24:20.9	88.640	-0.080	-0.210	1.140
2020/01/31 07:24:21.0	88.660	-0.080	-0.260	1.120
2020/01/31 07:24:21.1	88.680	-0.080	-0.310	1.100
2020/01/31 07:24:21.2	88.700	-0.070	-0.350	1.080
2020/01/31 07:24:21.3	88.730	-0.070	-0.390	1.070
2020/01/31 07:24:21.4	88.750	-0.070	-0.420	1.060
2020/01/31 07:24:21.5	88.770	-0.070	-0.460	1.040
2020/01/31 07:24:21.6	88.800	-0.070	-0.480	1.030
2020/01/31 07:24:21.7	88.820	-0.070	-0.510	1.020
2020/01/31 07:24:21.8	88.840	-0.070	-0.530	1.020
2020/01/31 07:24:21.9	88.860	-0.070	-0.540	1.010
2020/01/31 07:24:22.0	88.880	-0.070	-0.550	1.010
2020/01/31 07:24:22.1	88.890	-0.080	-0.560	1.020
2020/01/31 07:24:22.2	88.910	-0.080	-0.560	1.020
2020/01/31 07:24:22.3	88.920	-0.090	-0.560	1.030
2020/01/31 07:24:22.4	88.930	-0.090	-0.550	1.040
2020/01/31 07:24:22.5	88.940	-0.100	-0.540	1.050
2020/01/31 07:24:22.6	88.950	-0.110	-0.520	1.070
2020/01/31 07:24:22.7	88.950	-0.120	-0.500	1.090
2020/01/31 07:24:22.8	88.960	-0.130	-0.480	1.110
2020/01/31 07:24:22.9	88.960	-0.140	-0.450	1.130
2020/01/31 07:24:23.0	88.960	-0.150	-0.430	1.160
2020/01/31 07:24:23.1	88.950	-0.160	-0.400	1.190
2020/01/31 07:24:23.2	88.950	-0.170	-0.360	1.220
2020/01/31 07:24:23.3	88.940	-0.180	-0.330	1.250
2020/01/31 07:24:23.4	88.930	-0.190	-0.290	1.280
2020/01/31 07:24:23.5	88.920	-0.210	-0.250	1.310
2020/01/31 07:24:23.6	88.910	-0.220	-0.220	1.350
2020/01/31 07:24:23.7	88.900	-0.230	-0.180	1.380
2020/01/31 07:24:23.8	88.880	-0.240	-0.140	1.420
2020/01/31 07:24:23.9	88.860	-0.260	-0.110	1.450
2020/01/31 07:24:24.0	88.850	-0.270	-0.070	1.480
2020/01/31 07:24:24.1	88.830	-0.280	-0.040	1.520
2020/01/31 07:24:24.2	88.810	-0.290	-0.010	1.550
2020/01/31 07:24:24.3	88.790	-0.300	0.010	1.570
2020/01/31 07:24:24.4	88.770	-0.310	0.040	1.600
2020/01/31 07:24:24.5	88.750	-0.320	0.060	1.630
2020/01/31 07:24:24.6	88.730	-0.330	0.080	1.650
2020/01/31 07:24:24.7	88.710	-0.340	0.100	1.670
2020/01/31 07:24:24.8	88.680	-0.340	0.120	1.690
2020/01/31 07:24:24.9	88.660	-0.350	0.130	1.700
2020/01/31 07:24:25.0	88.640	-0.350	0.140	1.710
2020/01/31 07:24:25.1	88.620	-0.360	0.150	1.720
2020/01/31 07:24:25.2	88.600	-0.360	0.150	1.720
2020/01/31 07:24:25.3	88.580	-0.360	0.150	1.720
2020/01/31 07:24:25.4	88.560	-0.360	0.150	1.720
2020/01/31 07:24:25.5	88.540	-0.360	0.140	1.710
2020/01/31 07:24:25.6	88.520	-0.350	0.140	1.700
2020/01/31 07:24:25.7	88.510	-0.350	0.130	1.680
2020/01/31 07:24:25.8	88.490	-0.340	0.120	1.660
2020/01/31 07:24:25.9	88.470	-0.340	0.100	1.640
2020/01/31 07:24:26.0	88.450	-0.330	0.090	1.610
2020/01/31 07:24:26.1	88.440	-0.320	0.070	1.580
2020/01/31 07:24:26.2	88.420	-0.310	0.050	1.540
2020/01/31 07:24:26.3	88.410	-0.290	0.040	1.500
2020/01/31 07:24:26.4	88.400	-0.280	0.020	1.460
2020/01/31 07:24:26.5	88.390	-0.260	-0.000	1.420
2020/01/31 07:24:26.6	88.380	-0.250	-0.020	1.370
2020/01/31 07:24:26.7	88.370	-0.230	-0.040	1.320
2020/01/31 07:24:26.8	88.370	-0.210	-0.060	1.270
2020/01/31 07:24:26.9	88.360	-0.200	-0.080	1.220
2020/01/31 07:24:27.0	88.350	-0.180	-0.100	1.160
2020/01/31 07:24:27.1	88.350	-0.160	-0.120	1.110
2020/01/31 07:24:27.2	88.350	-0.140	-0.140	1.050
2020/01/31 07:24:27.3	88.350	-0.120	-0.150	0.990
2020/01/31 07:24:27.4	88.350	-0.100	-0.170	0.930
2020/01/31 07:24:27.5	88.350	-0.070	-0.190	0.870
2020/01/31 07:24:27.6	88.350	-0.050	-0.200	0.810
2020/01/31 07:24:27.7	88.350	-0.030	-0.220	0.750
2020/01/31 07:24:27.8	88.350	-0.010	-0.230	0.680
2020/01/31 07:24:27.9	88.350	0.010	-0.250	0.620
2020/01/31 07:24:28.0	88.360	0.030	-0.260	0.560
2020/01/31 07:24:28.1	88.360	0.050	-0.280	0.500
2020/01/31 07:24:28.2	88.360	0.070	-0.290	0.430
2020/01/31 07:24:28.3	88.370	0.090	-0.300	0.370
2020/01/31 07:24:28.4	88.370	0.110	-0.320	0.310
2020/01/31 07:24:28.5	88.380	0.130	-0.330	0.250
2020/01/31 07:24:28.6	88.390	0.150	-0.340	0.200
2020/01/31 07:24:28.7	88.390	0.170	-0.360	0.140
2020/01/31 07:24:28.8	88.400	0.190	-0.370	0.080
2020/01/31 07:24:28.9	88.410	0.210	-0.390	0.030
2020/01/31 07:24:29.0	88.410	0.220	-0.400	-0.020
2020/01/31 07:24:29.1	88.420	0.240	-0.410	-0.070
2020/01/31 07:24:29.2	88.430	0.250	-0.430	-0.120
2020/01/31 07:24:29.3	88.430	0.270	-0.440	-0.160
2020/01/31 07:24:29.4	88.440	0.280	-0.460	-0.210
2020/01/31 07:24:29.5	88.440	0.300	-0.470	-0.240
2020/01/31 07:24:29.6	88.450	0.310	-0.480	-0.280
2020/01/31 07:24:29.7	88.460	0.320	-0.490	-0.310
2020/01/31 07:24:29.8	88.460	0.330	-0.500	-0.330
2020/01/31 07:24:29.9	88.470	0.340	-0.510	-0.360
2020/01/31 07:24:30.0	88.480	0.350	-0.520	-0.380
2020/01/31 07:24:30.1	88.480	0.360	-0.520	-0.390
2020/01/31 07:24:30.2	88.490	0.370	-0.530	-0.410
2020/01/31 07:24:30.3	88.500	0.370	-0.530	-0.410
2020/01/31 07:24:30.4	88.510	0.380	-0.530	-0.420
2020/01/31 07:24:30.5	88.510	0.390	-0.530	-0.420
2020/01/31 07:24:30.6	88.520	0.390	-0.530	-0.420
2020/01/31 07:24:30.7	88.530	0.390	-0.530	-0.410
2020/01/31 07:24:30.8	88.530	0.400	-0.520	-0.400
2020/01/31 07:24:30.9	88.540	0.400	-0.520	-0.380
2020/01/31 07:24:31.0	88.550	0.400	-0.510	-0.360
2020/01/31 07:24:31.1	88.550	0.400	-0.500	-0.340
2020/01/31 07:24:31.2	88.560	0.400	-0.490	-0.320
2020/01/31 07:24:31.3	88.560	0.390	-0.470	-0.280
2020/01/31 07:24:31.4	88.570	0.390	-0.460	-0.250
2020/01/31 07:24:31.5	88.570	0.390	-0.440	-0.210
2020/01/31 07:24:31.6	88.570	0.380	-0.430	-0.170
2020/01/31 07:24:31.7	88.570	0.380	-0.410	-0.130
2020/01/31 07:24:31.8	88.570	0.370	-0.400	-0.080
2020/01/31 07:24:31.9	88.570	0.360	-0.380	-0.040
2020/01/31 07:24:32.0	88.570	0.360	-0.360	0.020
2020/01/31 07:24:32.1	88.570	0.350	-0.350	0.070
2020/01/31 07:24:32.2	88.570	0.340	-0.330	0.130
2020/01/31 07:24:32.3	88.560	0.330	-0.320	0.190
2020/01/31 07:24:32.4	88.560	0.310	-0.300	0.250
2020/01/31 07:24:32.5	88.550	0.300	-0.280	0.310
2020/01/31 07:24:32.6	88.550	0.290	-0.260	0.380
2020/01/31 07:24:32.7	88.540	0.280	-0.240	0.440
2020/01/31 07:24:32.8	88.540	0.260	-0.220	0.510
2020/01/31 07:24:32.9	88.540	0.250	-0.200	0.580
2020/01/31 07:24:33.0	88.530	0.230	-0.180	0.650
2020/01/31 07:24:33.1	88.530	0.220	-0.160	0.710
2020/01/31 07:24:33.2	88.520	0.200	-0.130	0.780
2020/01/31 07:24:33.3	88.520	0.190	-0.100	0.850
2020/01/31 07:24:33.4	88.520	0.170	-0.080	0.920
2020/01/31 07:24:33.5	88.510	0.150	-0.050	0.990
2020/01/31 07:24:33.6	88.510	0.140	-0.030	1.060
2020/01/31 07:24:33.7	88.510	0.120	-0.000	1.130
2020/01/31 07:24:33.8	88.510	0.100	0.030	1.190
2020/01/31 07:24:33.9	88.510	0.080	0.060	1.260
2020/01/31 07:24:34.0	88.510	0.060	0.090	1.320
2020/01/31 07:24:34.1	88.510	0.050	0.110	1.380
2020/01/31 07:24:34.2	88.510	0.030	0.140	1.440
2020/01/31 07:24:34.3	88.510	0.010	0.170	1.500
2020/01/31 07:24:34.4	88.510	-0.010	0.200	1.550
2020/01/31 07:24:34.5	88.510	-0.020	0.230	1.610
2020/01/31 07:24:34.6	88.510	-0.040	0.260	1.660
2020/01/31 07:24:34.7	88.510	-0.050	0.280	1.710
2020/01/31 07:24:34.8	88.510	-0.070	0.310	1.760
2020/01/31 07:24:34.9	88.510	-0.080	0.330	1.800
2020/01/31 07:24:35.0	88.510	-0.100	0.350	1.840
2020/01/31 07:24:35.1	88.510	-0.110	0.370	1.880
2020/01/31 07:24:35.2	88.510	-0.120	0.390	1.920
2020/01/31 07:24:35.3	88.510	-0.140	0.410	1.960
2020/01/31 07:24:35.4	88.510	-0.150	0.420	1.990
2020/01/31 07:24:35.5	88.510	-0.160	0.430	2.020
2020/01/31 07:24:35.6	88.510	-0.170	0.440	2.050
2020/01/31 07:24:35.7	88.510	-0.180	0.440	2.070
2020/01/31 07:24:35.8	88.510	-0.180	0.440	2.090
2020/01/31 07:24:35.9	88.510	-0.190	0.440	2.110
2020/01/31 07:24:36.0	88.500	-0.200	0.440	2.130
2020/01/31 07:24:36.1	88.500	-0.200	0.430	2.140
2020/01/31 07:24:36.2	88.500	-0.210	0.420	2.140
2020/01/31 07:24:36.3	88.500	-0.210	0.400	2.140
2020/01/31 07:24:36.4	88.500	-0.220	0.390	2.150
2020/01/31 07:24:36.5	88.500	-0.220	0.370	2.140
2020/01/31 07:24:36.6	88.500	-0.220	0.350	2.140
2020/01/31 07:24:36.7	88.500	-0.230	0.320	2.130
2020/01/31 07:24:36.8	88.500	-0.230	0.300	2.120
2020/01/31 07:24:36.9	88.500	-0.230	0.270	2.110
2020/01/31 07:24:37.0	88.500	-0.230	0.250	2.090
2020/01/31 07:24:37.1	88.500	-0.230	0.220	2.070
2020/01/31 07:24:37.2	88.500	-0.240	0.190	2.050
2020/01/31 07:24:37.3	88.500	-0.240	0.150	2.020
2020/01/31 07:24:37.4	88.510	-0.240	0.120	1.990
2020/01/31 07:24:37.5	88.510	-0.240	0.080	1.970
2020/01/31 07:24:37.6	88.510	-0.240	0.050	1.930
2020/01/31 07:24:37.7	88.510	-0.250	0.010	1.900
2020/01/31 07:24:37.8	88.520	-0.250	-0.020	1.870
2020/01/31 07:24:37.9	88.520	-0.250	-0.060	1.830
2020/01/31 07:24:38.0	88.530	-0.250	-0.100	1.790
2020/01/31 07:24:38.1	88.530	-0.250	-0.140	1.750
2020/01/31 07:24:38.2	88.530	-0.260	-0.180	1.700
2020/01/31 07:24:38.3	88.540	-0.260	-0.210	1.660
2020/01/31 07:24:38.4	88.540	-0.260	-0.250	1.610
2020/01/31 07:24:38.5	88.540	-0.260	-0.290	1.570
2020/01/31 07:24:38.6	88.550	-0.260	-0.330	1.520
2020/01/31 07:24:38.7	88.550	-0.260	-0.360	1.470
2020/01/31 07:24:38.8	88.560	-0.260	-0.400	1.420
2020/01/31 07:24:38.9	88.560	-0.260	-0.430	1.370
2020/01/31 07:24:39.0	88.560	-0.260	-0.470	1.330
2020/01/31 07:24:39.1	88.570	-0.260	-0.500	1.280
2020/01/31 07:24:39.2	88.570	-0.260	-0.530	1.230
2020/01/31 07:24:39.3	88.570	-0.250	-0.560	1.180
2020/01/31 07:24:39.4	88.580	-0.250	-0.590	1.140
2020/01/31 07:24:39.5	88.580	-0.250	-0.610	1.090
2020/01/31 07:24:39.6	88.580	-0.240	-0.630	1.040
2020/01/31 07:24:39.7	88.580	-0.230	-0.650	1.000
2020/01/31 07:24:39.8	88.580	-0.230	-0.670	0.960
2020/01/31 07:24:39.9	88.580	-0.220	-0.680	0.910
2020/01/31 07:24:40.0	88.580	-0.210	-0.690	0.870
2020/01/31 07:24:40.1	88.580	-0.200	-0.700	0.830
2020/01/31 07:24:40.2	88.580	-0.190	-0.700	0.790
2020/01/31 07:24:40.3	88.580	-0.180	-0.710	0.750
2020/01/31 07:24:40.4	88.580	-0.160	-0.710	0.710
2020/01/31 07:24:40.5	88.580	-0.150	-0.700	0.680
2020/01/31 07:24:40.6	88.580	-0.130	-0.700	0.640
2020/01/31 07:24:40.7	88.590	-0.120	-0.690	0.600
2020/01/31 07:24:40.8	88.590	-0.100	-0.680	0.570
2020/01/31 07:24:40.9	88.590	-0.080	-0.670	0.530
2020/01/31 07:24:41.0	88.600	-0.070	-0.660	0.500
2020/01/31 07:24:41.1	88.610	-0.050	-0.640	0.460
2020/01/31 07:24:41.2	88.610	-0.030	-0.630	0.430
2020/01/31 07:24:41.3	88.620	-0.010	-0.610	0.400
2020/01/31 07:24:41.4	88.630	0.010	-0.600	0.370
2020/01/31 07:24:41.5	88.640	0.030	-0.580	0.340
2020/01/31 07:24:41.6	88.660	0.050	-0.560	0.310
2020/01/31 07:24:41.7	88.670	0.070	-0.540	0.290
2020/01/31 07:24:41.8	88.690	0.100	-0.520	0.260
2020/01/31 07:24:41.9	88.700	0.120	-0.500	0.240
2020/01/31 07:24:42.0	88.720	0.140	-0.480	0.220
2020/01/31 07:24:42.1	88.730	0.160	-0.460	0.210
2020/01/31 07:24:42.2	88.750	0.170	-0.450	0.190
2020/01/31 07:24:42.3	88.760	0.190	-0.420	0.180
2020/01/31 07:24:42.4	88.770	0.210	-0.410	0.170
2020/01/31 07:24:42.5	88.790	0.230	-0.390	0.170
2020/01/31 07:24:42.6	88.800	0.240	-0.370	0.170
2020/01/31 07:24:42.7	88.810	0.250	-0.350	0.170
2020/01/31 07:24:42.8	88.810	0.260	-0.330	0.170
2020/01/31 07:24:42.9	88.820	0.270	-0.310	0.180
2020/01/31 07:24:43.0	88.820	0.280	-0.280	0.180
2020/01/31 07:24:43.1	88.820	0.280	-0.260	0.190
2020/01/31 07:24:43.2	88.820	0.290	-0.240	0.210
2020/01/31 07:24:43.3	88.820	0.290	-0.220	0.220
2020/01/31 07:24:43.4	88.810	0.290	-0.190	0.230
2020/01/31 07:24:43.5	88.800	0.280	-0.170	0.250
2020/01/31 07:24:43.6	88.790	0.280	-0.140	0.260
2020/01/31 07:24:43.7	88.780	0.270	-0.110	0.270
2020/01/31 07:24:43.8	88.770	0.260	-0.080	0.280
2020/01/31 07:24:43.9	88.760	0.250	-0.050	0.300
2020/01/31 07:24:44.0	88.750	0.230	-0.020	0.310
2020/01/31 07:24:44.1	88.730	0.220	0.010	0.320
2020/01/31 07:24:44.2	88.720	0.200	0.040	0.320
2020/01/31 07:24:44.3	88.700	0.180	0.070	0.330
2020/01/31 07:24:44.4	88.690	0.160	0.100	0.340
2020/01/31 07:24:44.5	88.670	0.140	0.140	0.340
2020/01/31 07:24:44.6	88.660	0.120	0.170	0.340
2020/01/31 07:24:44.7	88.640	0.100	0.200	0.350
2020/01/31 07:24:44.8	88.630	0.080	0.230	0.350
2020/01/31 07:24:44.9	88.610	0.060	0.260	0.350
2020/01/31 07:24:45.0	88.600	0.030	0.290	0.350
2020/01/31 07:24:45.1	88.590	0.010	0.320	0.350
2020/01/31 07:24:45.2	88.570	-0.010	0.350	0.350
2020/01/31 07:24:45.3	88.560	-0.030	0.380	0.350
2020/01/31 07:24:45.4	88.550	-0.050	0.410	0.340
2020/01/31 07:24:45.5	88.540	-0.070	0.430	0.340
2020/01/31 07:24:45.6	88.520	-0.080	0.450	0.340
2020/01/31 07:24:45.7	88.510	-0.100	0.470	0.340
2020/01/31 07:24:45.8	88.500	-0.110	0.490	0.340
2020/01/31 07:24:45.9	88.490	-0.120	0.500	0.340
2020/01/31 07:24:46.0	88.480	-0.130	0.520	0.340
2020/01/31 07:24:46.1	88.470	-0.140	0.520	0.340
2020/01/31 07:24:46.2	88.460	-0.150	0.530	0.340
2020/01/31 07:24:46.3	88.450	-0.150	0.530	0.340
2020/01/31 07:24:46.4	88.450	-0.150	0.520	0.340
2020/01/31 07:24:46.5	88.440	-0.150	0.510	0.340
2020/01/31 07:24:46.6	88.440	-0.150	0.500	0.350
2020/01/31 07:24:46.7	88.440	-0.140	0.480	0.350
2020/01/31 07:24:46.8	88.430	-0.140	0.450	0.360
2020/01/31 07:24:46.9	88.430	-0.130	0.430	0.370
2020/01/31 07:24:47.0	88.440	-0.120	0.390	0.380
2020/01/31 07:24:47.1	88.440	-0.100	0.350	0.390
2020/01/31 07:24:47.2	88.450	-0.090	0.310	0.410
2020/01/31 07:24:47.3	88.450	-0.070	0.250	0.420
2020/01/31 07:24:47.4	88.460	-0.050	0.200	0.440
2020/01/31 07:24:47.5	88.470	-0.030	0.140	0.460
2020/01/31 07:24:47.6	88.480	-0.010	0.080	0.480
2020/01/31 07:24:47.7	88.490	0.010	0.020	0.500
2020/01/31 07:24:47.8	88.500	0.040	-0.050	0.520
2020/01/31 07:24:47.9	88.510	0.060	-0.120	0.540
2020/01/31 07:24:48.0	88.530	0.080	-0.190	0.570
2020/01/31 07:24:48.1	88.540	0.110	-0.260	0.590
2020/01/31 07:24:48.2	88.560	0.130	-0.330	0.620
2020/01/31 07:24:48.3	88.580	0.150	-0.390	0.640
2020/01/31 07:24:48.4	88.590	0.180	-0.460	0.670
2020/01/31 07:24:48.5	88.610	0.200	-0.530	0.690
2020/01/31 07:24:48.6	88.630	0.220	-0.590	0.710
2020/01/31 07:24:48.7	88.640	0.230	-0.650	0.740
2020/01/31 07:24:48.8	88.660	0.250	-0.700	0.760
2020/01/31 07:24:48.9	88.670	0.260	-0.750	0.780
2020/01/31 07:24:49.0	88.690	0.280	-0.790	0.800
2020/01/31 07:24:49.1	88.700	0.290	-0.830	0.820
2020/01/31 07:24:49.2	88.710	0.290	-0.860	0.840
2020/01/31 07:24:49.3	88.720	0.300	-0.890	0.850
2020/01/31 07:24:49.4	88.720	0.300	-0.900	0.870
2020/01/31 07:24:49.5	88.730	0.300	-0.910	0.890
2020/01/31 07:24:49.6	88.740	0.300	-0.920	0.910
2020/01/31 07:24:49.7	88.740	0.290	-0.910	0.930
2020/01/31 07:24:49.8	88.740	0.290	-0.900	0.950
2020/01/31 07:24:49.9	88.740	0.280	-0.880	0.970
2020/01/31 07:24:50.0	88.740	0.260	-0.860	0.990
2020/01/31 07:24:50.1	88.740	0.250	-0.830	1.010
2020/01/31 07:24:50.2	88.740	0.230	-0.790	1.040
2020/01/31 07:24:50.3	88.730	0.210	-0.750	1.060
2020/01/31 07:24:50.4	88.730	0.190	-0.700	1.090
2020/01/31 07:24:50.5	88.720	0.170	-0.650	1.120
2020/01/31 07:24:50.6	88.710	0.150	-0.600	1.150
2020/01/31 07:24:50.7	88.710	0.130	-0.540	1.180
2020/01/31 07:24:50.8	88.700	0.100	-0.480	1.210
2020/01/31 07:24:50.9	88.690	0.080	-0.420	1.240
2020/01/31 07:24:51.0	88.680	0.050	-0.370	1.280
2020/01/31 07:24:51.1	88.670	0.030	-0.310	1.310
2020/01/31 07:24:51.2	88.660	0.000	-0.250	1.350
2020/01/31 07:24:51.3	88.650	-0.020	-0.190	1.390
2020/01/31 07:24:51.4	88.640	-0.050	-0.130	1.420
2020/01/31 07:24:51.5	88.630	-0.070	-0.080	1.460
2020/01/31 07:24:51.6	88.620	-0.100	-0.030	1.500
2020/01/31 07:24:51.7	88.620	-0.120	0.010	1.530
2020/01/31 07:24:51.8	88.610	-0.140	0.050	1.570
2020/01/31 07:24:51.9	88.600	-0.160	0.090	1.610
2020/01/31 07:24:52.0	88.600	-0.180	0.120	1.640
2020/01/31 07:24:52.1	88.590	-0.200	0.150	1.670
2020/01/31 07:24:52.2	88.590	-0.210	0.170	1.700
2020/01/31 07:24:52.3	88.590	-0.220	0.180	1.730
2020/01/31 07:24:52.4	88.590	-0.240	0.190	1.760
2020/01/31 07:24:52.5	88.590	-0.250	0.200	1.780
2020/01/31 07:24:52.6	88.590	-0.260	0.200	1.810
2020/01/31 07:24:52.7	88.590	-0.260	0.200	1.830
2020/01/31 07:24:52.8	88.590	-0.270	0.190	1.840
2020/01/31 07:24:52.9	88.590	-0.270	0.180	1.860
2020/01/31 07:24:53.0	88.600	-0.280	0.160	1.870
2020/01/31 07:24:53.1	88.600	-0.280	0.140	1.880
2020/01/31 07:24:53.2	88.610	-0.280	0.120	1.880
2020/01/31 07:24:53.3	88.620	-0.280	0.100	1.880
2020/01/31 07:24:53.4	88.630	-0.270	0.080	1.880
2020/01/31 07:24:53.5	88.640	-0.270	0.050	1.870
2020/01/31 07:24:53.6	88.650	-0.270	0.020	1.860
2020/01/31 07:24:53.7	88.660	-0.260	-0.010	1.850
2020/01/31 07:24:53.8	88.680	-0.250	-0.040	1.830
2020/01/31 07:24:53.9	88.690	-0.250	-0.070	1.810
2020/01/31 07:24:54.0	88.710	-0.240	-0.090	1.790
2020/01/31 07:24:54.1	88.720	-0.230	-0.120	1.760
2020/01/31 07:24:54.2	88.740	-0.220	-0.150	1.730
2020/01/31 07:24:54.3	88.760	-0.210	-0.170	1.700
2020/01/31 07:24:54.4	88.770	-0.200	-0.200	1.670
2020/01/31 07:24:54.5	88.790	-0.190	-0.220	1.630
2020/01/31 07:24:54.6	88.800	-0.180	-0.230	1.600
2020/01/31 07:24:54.7	88.820	-0.170	-0.240	1.560
2020/01/31 07:24:54.8	88.830	-0.160	-0.250	1.520
2020/01/31 07:24:54.9	88.840	-0.150	-0.260	1.480
2020/01/31 07:24:55.0	88.850	-0.140	-0.260	1.440
2020/01/31 07:24:55.1	88.860	-0.130	-0.260	1.400
2020/01/31 07:24:55.2	88.870	-0.120	-0.260	1.360
2020/01/31 07:24:55.3	88.880	-0.110	-0.260	1.320
2020/01/31 07:24:55.4	88.880	-0.110	-0.250	1.280
2020/01/31 07:24:55.5	88.880	-0.100	-0.230	1.240
2020/01/31 07:24:55.6	88.880	-0.090	-0.220	1.200
2020/01/31 07:24:55.7	88.880	-0.080	-0.200	1.160
2020/01/31 07:24:55.8	88.880	-0.080	-0.180	1.120
2020/01/31 07:24:55.9	88.870	-0.070	-0.160	1.080
2020/01/31 07:24:56.0	88.860	-0.070	-0.140	1.040
2020/01/31 07:24:56.1	88.860	-0.060	-0.110	1.000
2020/01/31 07:24:56.2	88.850	-0.060	-0.090	0.960
2020/01/31 07:24:56.3	88.840	-0.050	-0.060	0.920
2020/01/31 07:24:56.4	88.830	-0.050	-0.030	0.880
2020/01/31 07:24:56.5	88.820	-0.040	-0.010	0.840
2020/01/31 07:24:56.6	88.810	-0.040	0.010	0.800
2020/01/31 07:24:56.7	88.800	-0.040	0.040	0.760
2020/01/31 07:24:56.8	88.790	-0.030	0.060	0.720
2020/01/31 07:24:56.9	88.780	-0.030	0.080	0.670
2020/01/31 07:24:57.0	88.770	-0.030	0.100	0.630
2020/01/31 07:24:57.1	88.760	-0.030	0.110	0.580
2020/01/31 07:24:57.2	88.750	-0.030	0.130	0.540
2020/01/31 07:24:57.3	88.750	-0.020	0.140	0.490
2020/01/31 07:24:57.4	88.740	-0.020	0.150	0.440
2020/01/31 07:24:57.5	88.730	-0.020	0.160	0.390
2020/01/31 07:24:57.6	88.730	-0.020	0.160	0.340
2020/01/31 07:24:57.7	88.730	-0.020	0.160	0.290
2020/01/31 07:24:57.8	88.720	-0.020	0.160	0.240
2020/01/31 07:24:57.9	88.720	-0.010	0.160	0.190
2020/01/31 07:24:58.0	88.720	-0.010	0.160	0.130
2020/01/31 07:24:58.1	88.710	-0.010	0.150	0.080
2020/01/31 07:24:58.2	88.710	-0.000	0.140	0.030
2020/01/31 07:24:58.3	88.710	0.000	0.120	-0.020
2020/01/31 07:24:58.4	88.710	0.010	0.110	-0.070
2020/01/31 07:24:58.5	88.700	0.010	0.090	-0.120
2020/01/31 07:24:58.6	88.700	0.020	0.070	-0.170
2020/01/31 07:24:58.7	88.700	0.020	0.050	-0.220
2020/01/31 07:24:58.8	88.700	0.030	0.020	-0.270
2020/01/31 07:24:58.9	88.700	0.040	-0.000	-0.320
2020/01/31 07:24:59.0	88.700	0.050	-0.030	-0.360
2020/01/31 07:24:59.1	88.700	0.060	-0.050	-0.400
2020/01/31 07:24:59.2	88.700	0.070	-0.080	-0.440
2020/01/31 07:24:59.3	88.690	0.080	-0.120	-0.480
2020/01/31 07:24:59.4	88.690	0.090	-0.150	-0.520
2020/01/31 07:24:59.5	88.690	0.110	-0.180	-0.550
2020/01/31 07:24:59.6	88.690	0.120	-0.210	-0.580
2020/01/31 07:24:59.7	88.690	0.140	-0.240	-0.610
2020/01/31 07:24:59.8	88.690	0.150	-0.270	-0.630
2020/01/31 07:24:59.9	88.690	0.170	-0.290	-0.650
2020/01/31 07:25:00.0	88.690	0.180	-0.320	-0.660
2020/01/31 07:25:00.1	88.690	0.200	-0.350	-0.680
2020/01/31 07:25:00.2	88.680	0.210	-0.380	-0.680
2020/01/31 07:25:00.3	88.680	0.230	-0.400	-0.690
2020/01/31 07:25:00.4	88.680	0.240	-0.430	-0.690
2020/01/31 07:25:00.5	88.680	0.260	-0.450	-0.690
2020/01/31 07:25:00.6	88.680	0.270	-0.470	-0.690
2020/01/31 07:25:00.7	88.680	0.290	-0.490	-0.680
2020/01/31 07:25:00.8	88.680	0.300	-0.510	-0.670
2020/01/31 07:25:00.9	88.680	0.310	-0.530	-0.650
2020/01/31 07:25:01.0	88.690	0.330	-0.540	-0.640
2020/01/31 07:25:01.1	88.690	0.340	-0.560	-0.620
2020/01/31 07:25:01.2	88.690	0.350	-0.570	-0.600
2020/01/31 07:25:01.3	88.700	0.360	-0.580	-0.570
2020/01/31 07:25:01.4	88.710	0.360	-0.590	-0.550
2020/01/31 07:25:01.5	88.710	0.370	-0.590	-0.520
2020/01/31 07:25:01.6	88.730	0.370	-0.600	-0.500
2020/01/31 07:25:01.7	88.740	0.370	-0.600	-0.470
2020/01/31 07:25:01.8	88.750	0.370	-0.590	-0.440
2020/01/31 07:25:01.9	88.770	0.370	-0.590	-0.410
2020/01/31 07:25:02.0	88.780	0.360	-0.580	-0.380
2020/01/31 07:25:02.1	88.800	0.360	-0.570	-0.340
2020/01/31 07:25:02.2	88.810	0.350	-0.560	-0.300
2020/01/31 07:25:02.3	88.830	0.330	-0.550	-0.270
2020/01/31 07:25:02.4	88.850	0.320	-0.530	-0.230
2020/01/31 07:25:02.5	88.870	0.300	-0.520	-0.180
2020/01/31 07:25:02.6	88.890	0.280	-0.500	-0.140
2020/01/31 07:25:02.7	88.910	0.260	-0.480	-0.090
2020/01/31 07:25:02.8	88.920	0.240	-0.450	-0.040
2020/01/31 07:25:02.9	88.940	0.220	-0.430	0.010
2020/01/31 07:25:03.0	88.960	0.190	-0.400	0.060
2020/01/31 07:25:03.1	88.980	0.160	-0.380	0.120
2020/01/31 07:25:03.2	88.990	0.130	-0.350	0.180
2020/01/31 07:25:03.3	89.010	0.100	-0.320	0.240
2020/01/31 07:25:03.4	89.030	0.070	-0.290	0.300
2020/01/31 07:25:03.5	89.040	0.030	-0.260	0.360
2020/01/31 07:25:03.6	89.060	-0.000	-0.230	0.430
2020/01/31 07:25:03.7	89.070	-0.040	-0.200	0.500
2020/01/31 07:25:03.8	89.090	-0.070	-0.160	0.570
2020/01/31 07:25:03.9	89.100	-0.100	-0.130	0.640
2020/01/31 07:25:04.0	89.110	-0.140	-0.100	0.720
2020/01/31 07:25:04.1	89.120	-0.170	-0.060	0.800
2020/01/31 07:25:04.2	89.130	-0.200	-0.030	0.880
2020/01/31 07:25:04.3	89.140	-0.230	0.000	0.960
2020/01/31 07:25:04.4	89.150	-0.260	0.030	1.040
2020/01/31 07:25:04.5	89.150	-0.290	0.070	1.130
2020/01/31 07:25:04.6	89.160	-0.320	0.100	1.210
2020/01/31 07:25:04.7	89.170	-0.340	0.130	1.300
2020/01/31 07:25:04.8	89.170	-0.360	0.160	1.390
2020/01/31 07:25:04.9	89.170	-0.380	0.190	1.480
2020/01/31 07:25:05.0	89.180	-0.400	0.210	1.570
2020/01/31 07:25:05.1	89.180	-0.420	0.240	1.660
2020/01/31 07:25:05.2	89.180	-0.430	0.260	1.750
2020/01/31 07:25:05.3	89.170	-0.440	0.280	1.840
2020/01/31 07:25:05.4	89.170	-0.450	0.300	1.930
2020/01/31 07:25:05.5	89.170	-0.450	0.320	2.010
2020/01/31 07:25:05.6	89.160	-0.460	0.330	2.100
2020/01/31 07:25:05.7	89.160	-0.460	0.340	2.180
2020/01/31 07:25:05.8	89.150	-0.460	0.350	2.260
2020/01/31 07:25:05.9	89.140	-0.450	0.360	2.340
2020/01/31 07:25:06.0	89.130	-0.450	0.370	2.410
2020/01/31 07:25:06.1	89.120	-0.440	0.370	2.480
2020/01/31 07:25:06.2	89.120	-0.430	0.370	2.540
2020/01/31 07:25:06.3	89.110	-0.420	0.360	2.610
2020/01/31 07:25:06.4	89.090	-0.410	0.360	2.660
2020/01/31 07:25:06.5	89.080	-0.400	0.350	2.710
2020/01/31 07:25:06.6	89.070	-0.380	0.340	2.760
2020/01/31 07:25:06.7	89.060	-0.370	0.330	2.800
2020/01/31 07:25:06.8	89.050	-0.350	0.320	2.830
2020/01/31 07:25:06.9	89.030	-0.340	0.310	2.860
2020/01/31 07:25:07.0	89.020	-0.320	0.290	2.880
2020/01/31 07:25:07.1	89.010	-0.300	0.270	2.900
2020/01/31 07:25:07.2	89.000	-0.280	0.250	2.910
2020/01/31 07:25:07.3	88.990	-0.270	0.230	2.910
2020/01/31 07:25:07.4	88.980	-0.250	0.210	2.910
2020/01/31 07:25:07.5	88.970	-0.230	0.190	2.900
2020/01/31 07:25:07.6	88.960	-0.210	0.160	2.890
2020/01/31 07:25:07.7	88.960	-0.190	0.140	2.870
2020/01/31 07:25:07.8	88.950	-0.180	0.110	2.850
2020/01/31 07:25:07.9	88.940	-0.160	0.080	2.820
2020/01/31 07:25:08.0	88.930	-0.140	0.060	2.790
2020/01/31 07:25:08.1	88.930	-0.120	0.030	2.750
2020/01/31 07:25:08.2	88.920	-0.100	-0.000	2.700
2020/01/31 07:25:08.3	88.920	-0.080	-0.030	2.650
2020/01/31 07:25:08.4	88.920	-0.060	-0.060	2.600
2020/01/31 07:25:08.5	88.920	-0.050	-0.090	2.540
2020/01/31 07:25:08.6	88.920	-0.030	-0.130	2.480
2020/01/31 07:25:08.7	88.920	-0.010	-0.160	2.420
2020/01/31 07:25:08.8	88.920	0.010	-0.190	2.350
2020/01/31 07:25:08.9	88.920	0.030	-0.220	2.280
2020/01/31 07:25:09.0	88.920	0.050	-0.250	2.210
2020/01/31 07:25:09.1	88.930	0.070	-0.280	2.140
2020/01/31 07:25:09.2	88.930	0.090	-0.320	2.060
2020/01/31 07:25:09.3	88.930	0.110	-0.350	1.980
2020/01/31 07:25:09.4	88.940	0.140	-0.380	1.900
2020/01/31 07:25:09.5	88.940	0.160	-0.410	1.820
2020/01/31 07:25:09.6	88.950	0.180	-0.440	1.730
2020/01/31 07:25:09.7	88.960	0.200	-0.470	1.650
2020/01/31 07:25:09.8	88.960	0.230	-0.500	1.560
2020/01/31 07:25:09.9	88.970	0.250	-0.530	1.480
2020/01/31 07:25:10.0	88.980	0.270	-0.560	1.390
2020/01/31 07:25:10.1	88.980	0.290	-0.590	1.300
2020/01/31 07:25:10.2	88.990	0.310	-0.620	1.210
2020/01/31 07:25:10.3	88.990	0.330	-0.650	1.120
2020/01/31 07:25:10.4	89.000	0.350	-0.670	1.040
2020/01/31 07:25:10.5	89.010	0.370	-0.700	0.950
2020/01/31 07:25:10.6	89.010	0.390	-0.720	0.860
2020/01/31 07:25:10.7	89.020	0.410	-0.740	0.780
2020/01/31 07:25:10.8	89.030	0.430	-0.750	0.700
2020/01/31 07:25:10.9	89.030	0.440	-0.770	0.620
2020/01/31 07:25:11.0	89.030	0.450	-0.780	0.540
2020/01/31 07:25:11.1	89.040	0.460	-0.790	0.460
2020/01/31 07:25:11.2	89.040	0.470	-0.800	0.380
2020/01/31 07:25:11.3	89.040	0.480	-0.800	0.310
2020/01/31 07:25:11.4	89.040	0.490	-0.800	0.240
2020/01/31 07:25:11.5	89.040	0.490	-0.800	0.170
2020/01/31 07:25:11.6	89.040	0.490	-0.800	0.110
2020/01/31 07:25:11.7	89.030	0.490	-0.790	0.050
2020/01/31 07:25:11.8	89.030	0.480	-0.780	-0.010
2020/01/31 07:25:11.9	89.030	0.480	-0.770	-0.060
2020/01/31 07:25:12.0	89.020	0.470	-0.750	-0.120
2020/01/31 07:25:12.1	89.010	0.460	-0.730	-0.170
2020/01/31 07:25:12.2	89.000	0.440	-0.700	-0.210
2020/01/31 07:25:12.3	88.990	0.420	-0.680	-0.260
2020/01/31 07:25:12.4	88.980	0.400	-0.650	-0.300
2020/01/31 07:25:12.5	88.970	0.380	-0.610	-0.340
2020/01/31 07:25:12.6	88.970	0.350	-0.570	-0.370
2020/01/31 07:25:12.7	88.960	0.320	-0.530	-0.410
2020/01/31 07:25:12.8	88.950	0.290	-0.490	-0.440
2020/01/31 07:25:12.9	88.940	0.260	-0.440	-0.470
2020/01/31 07:25:13.0	88.930	0.220	-0.390	-0.490
2020/01/31 07:25:13.1	88.920	0.190	-0.330	-0.510
2020/01/31 07:25:13.2	88.910	0.150	-0.280	-0.530
2020/01/31 07:25:13.3	88.910	0.110	-0.220	-0.550
2020/01/31 07:25:13.4	88.900	0.060	-0.160	-0.560
2020/01/31 07:25:13.5	88.890	0.020	-0.100	-0.570
2020/01/31 07:25:13.6	88.890	-0.020	-0.040	-0.580
2020/01/31 07:25:13.7	88.880	-0.070	0.020	-0.580
2020/01/31 07:25:13.8	88.880	-0.110	0.080	-0.580
2020/01/31 07:25:13.9	88.870	-0.150	0.140	-0.580
2020/01/31 07:25:14.0	88.870	-0.190	0.190	-0.570
2020/01/31 07:25:14.1	88.870	-0.230	0.250	-0.560
2020/01/31 07:25:14.2	88.870	-0.270	0.300	-0.550
2020/01/31 07:25:14.3	88.870	-0.310	0.360	-0.530
2020/01/31 07:25:14.4	88.860	-0.350	0.400	-0.510
2020/01/31 07:25:14.5	88.860	-0.380	0.450	-0.480
2020/01/31 07:25:14.6	88.860	-0.410	0.490	-0.450
2020/01/31 07:25:14.7	88.860	-0.430	0.530	-0.420
2020/01/31 07:25:14.8	88.860	-0.460	0.570	-0.380
2020/01/31 07:25:14.9	88.860	-0.480	0.600	-0.350
2020/01/31 07:25:15.0	88.860	-0.490	0.620	-0.300
2020/01/31 07:25:15.1	88.860	-0.510	0.640	-0.260
2020/01/31 07:25:15.2	88.860	-0.520	0.660	-0.210
2020/01/31 07:25:15.3	88.850	-0.520	0.670	-0.160
2020/01/31 07:25:15.4	88.850	-0.520	0.680	-0.100
2020/01/31 07:25:15.5	88.840	-0.520	0.680	-0.050
2020/01/31 07:25:15.6	88.840	-0.520	0.670	0.010
2020/01/31 07:25:15.7	88.830	-0.510	0.660	0.070
2020/01/31 07:25:15.8	88.820	-0.500	0.640	0.130
2020/01/31 07:25:15.9	88.810	-0.480	0.620	0.190
2020/01/31 07:25:16.0	88.800	-0.460	0.600	0.250
2020/01/31 07:25:16.1	88.790	-0.440	0.570	0.320
2020/01/31 07:25:16.2	88.780	-0.420	0.530	0.380
2020/01/31 07:25:16.3	88.760	-0.390	0.490	0.450
2020/01/31 07:25:16.4	88.750	-0.360	0.450	0.510
2020/01/31 07:25:16.5	88.730	-0.330	0.400	0.570
2020/01/31 07:25:16.6	88.720	-0.300	0.350	0.630
2020/01/31 07:25:16.7	88.700	-0.260	0.300	0.690
2020/01/31 07:25:16.8	88.680	-0.230	0.250	0.750
2020/01/31 07:25:16.9	88.670	-0.190	0.190	0.810
2020/01/31 07:25:17.0	88.650	-0.160	0.140	0.870
2020/01/31 07:25:17.1	88.630	-0.120	0.080	0.930
2020/01/31 07:25:17.2	88.620	-0.090	0.020	0.980
2020/01/31 07:25:17.3	88.610	-0.050	-0.040	1.030
2020/01/31 07:25:17.4	88.590	-0.010	-0.100	1.080
2020/01/31 07:25:17.5	88.580	0.020	-0.160	1.130
2020/01/31 07:25:17.6	88.570	0.060	-0.220	1.180
2020/01/31 07:25:17.7	88.570	0.090	-0.270	1.220
2020/01/31 07:25:17.8	88.560	0.130	-0.330	1.260
2020/01/31 07:25:17.9	88.560	0.160	-0.390	1.300
2020/01/31 07:25:18.0	88.560	0.190	-0.440	1.340
2020/01/31 07:25:18.1	88.560	0.220	-0.490	1.370
2020/01/31 07:25:18.2	88.560	0.250	-0.540	1.400
2020/01/31 07:25:18.3	88.570	0.280	-0.600	1.430
2020/01/31 07:25:18.4	88.570	0.300	-0.640	1.460
2020/01/31 07:25:18.5	88.580	0.330	-0.680	1.490
2020/01/31 07:25:18.6	88.590	0.350	-0.720	1.520
2020/01/31 07:25:18.7	88.610	0.370	-0.760	1.540
2020/01/31 07:25:18.8	88.620	0.390	-0.790	1.560
2020/01/31 07:25:18.9	88.640	0.400	-0.820	1.590
2020/01/31 07:25:19.0	88.660	0.420	-0.840	1.610
2020/01/31 07:25:19.1	88.670	0.430	-0.860	1.630
2020/01/31 07:25:19.2	88.690	0.440	-0.880	1.650
2020/01/31 07:25:19.3	88.720	0.450	-0.890	1.670
2020/01/31 07:25:19.4	88.730	0.450	-0.900	1.690
2020/01/31 07:25:19.5	88.750	0.460	-0.900	1.700
2020/01/31 07:25:19.6	88.770	0.460	-0.890	1.720
2020/01/31 07:25:19.7	88.790	0.460	-0.880	1.730
2020/01/31 07:25:19.8	88.810	0.450	-0.870	1.740
2020/01/31 07:25:19.9	88.820	0.450	-0.850	1.750
2020/01/31 07:25:20.0	88.840	0.440	-0.830	1.760
2020/01/31 07:25:20.1	88.850	0.430	-0.800	1.770
2020/01/31 07:25:20.2	88.860	0.420	-0.760	1.780
2020/01/31 07:25:20.3	88.870	0.410	-0.730	1.780
2020/01/31 07:25:20.4	88.880	0.390	-0.690	1.790
2020/01/31 07:25:20.5	88.890	0.380	-0.640	1.790
2020/01/31 07:25:20.6	88.890	0.360	-0.600	1.790
2020/01/31 07:25:20.7	88.890	0.340	-0.550	1.790
2020/01/31 07:25:20.8	88.900	0.320	-0.500	1.780
2020/01/31 07:25:20.9	88.900	0.300	-0.440	1.780
2020/01/31 07:25:21.0	88.890	0.270	-0.390	1.770
2020/01/31 07:25:21.1	88.890	0.250	-0.330	1.760
2020/01/31 07:25:21.2	88.890	0.220	-0.280	1.750
2020/01/31 07:25:21.3	88.880	0.190	-0.220	1.740
2020/01/31 07:25:21.4	88.880	0.170	-0.160	1.720
2020/01/31 07:25:21.5	88.870	0.140	-0.110	1.700
2020/01/31 07:25:21.6	88.860	0.110	-0.050	1.680
2020/01/31 07:25:21.7	88.850	0.080	0.000	1.660
2020/01/31 07:25:21.8	88.840	0.050	0.050	1.640
2020/01/31 07:25:21.9	88.830	0.020	0.100	1.620
2020/01/31 07:25:22.0	88.820	-0.010	0.150	1.600
2020/01/31 07:25:22.1	88.800	-0.040	0.190	1.570
2020/01/31 07:25:22.2	88.790	-0.060	0.230	1.550
2020/01/31 07:25:22.3	88.770	-0.090	0.270	1.520
2020/01/31 07:25:22.4	88.760	-0.120	0.310	1.490
2020/01/31 07:25:22.5	88.750	-0.140	0.330	1.470
2020/01/31 07:25:22.6	88.730	-0.170	0.360	1.440
2020/01/31 07:25:22.7	88.720	-0.190	0.380	1.420
2020/01/31 07:25:22.8	88.700	-0.220	0.400	1.400
2020/01/31 07:25:22.9	88.690	-0.240	0.410	1.370
2020/01/31 07:25:23.0	88.680	-0.260	0.420	1.350
2020/01/31 07:25:23.1	88.660	-0.280	0.430	1.330
2020/01/31 07:25:23.2	88.650	-0.300	0.430	1.310
2020/01/31 07:25:23.3	88.640	-0.320	0.420	1.290
2020/01/31 07:25:23.4	88.620	-0.330	0.410	1.270
2020/01/31 07:25:23.5	88.610	-0.340	0.400	1.250
2020/01/31 07:25:23.6	88.600	-0.360	0.390	1.230
2020/01/31 07:25:23.7	88.590	-0.370	0.370	1.210
2020/01/31 07:25:23.8	88.580	-0.380	0.350	1.190
2020/01/31 07:25:23.9	88.580	-0.380	0.320	1.170
2020/01/31 07:25:24.0	88.570	-0.390	0.300	1.150
2020/01/31 07:25:24.1	88.570	-0.390	0.260	1.130
2020/01/31 07:25:24.2	88.570	-0.390	0.230	1.100
2020/01/31 07:25:24.3	88.570	-0.390	0.190	1.080
2020/01/31 07:25:24.4	88.570	-0.390	0.160	1.050
2020/01/31 07:25:24.5	88.580	-0.380	0.110	1.020
2020/01/31 07:25:24.6	88.590	-0.380	0.070	0.990
2020/01/31 07:25:24.7	88.590	-0.370	0.030	0.960
2020/01/31 07:25:24.8	88.600	-0.360	-0.020	0.930
2020/01/31 07:25:24.9	88.610	-0.350	-0.060	0.890
2020/01/31 07:25:25.0	88.630	-0.330	-0.110	0.860
2020/01/31 07:25:25.1	88.640	-0.320	-0.160	0.820
2020/01/31 07:25:25.2	88.660	-0.300	-0.210	0.780
2020/01/31 07:25:25.3	88.670	-0.280	-0.260	0.740
2020/01/31 07:25:25.4	88.690	-0.260	-0.310	0.700
2020/01/31 07:25:25.5	88.710	-0.240	-0.350	0.660
2020/01/31 07:25:25.6	88.720	-0.220	-0.400	0.610
2020/01/31 07:25:25.7	88.740	-0.200	-0.450	0.570
2020/01/31 07:25:25.8	88.760	-0.180	-0.490	0.530
2020/01/31 07:25:25.9	88.770	-0.150	-0.530	0.490
2020/01/31 07:25:26.0	88.790	-0.130	-0.570	0.450
2020/01/31 07:25:26.1	88.800	-0.100	-0.600	0.410
2020/01/31 07:25:26.2	88.820	-0.080	-0.630	0.370
2020/01/31 07:25:26.3	88.830	-0.050	-0.670	0.330
2020/01/31 07:25:26.4	88.840	-0.030	-0.690	0.290
2020/01/31 07:25:26.5	88.850	-0.010	-0.710	0.250
2020/01/31 07:25:26.6	88.860	0.020	-0.720	0.220
2020/01/31 07:25:26.7	88.870	0.040	-0.730	0.180
2020/01/31 07:25:26.8	88.870	0.060	-0.740	0.150
2020/01/31 07:25:26.9	88.880	0.080	-0.740	0.120
2020/01/31 07:25:27.0	88.880	0.100	-0.730	0.090
2020/01/31 07:25:27.1	88.880	0.110	-0.720	0.060
2020/01/31 07:25:27.2	88.880	0.120	-0.700	0.040
2020/01/31 07:25:27.3	88.880	0.140	-0.680	0.010
2020/01/31 07:25:27.4	88.880	0.150	-0.650	-0.010
2020/01/31 07:25:27.5	88.880	0.150	-0.620	-0.030
2020/01/31 07:25:27.6	88.880	0.160	-0.580	-0.050
2020/01/31 07:25:27.7	88.880	0.160	-0.540	-0.060
2020/01/31 07:25:27.8	88.870	0.160	-0.490	-0.080
2020/01/31 07:25:27.9	88.870	0.160	-0.440	-0.090
2020/01/31 07:25:28.0	88.860	0.160	-0.380	-0.100
2020/01/31 07:25:28.1	88.860	0.150	-0.320	-0.110
2020/01/31 07:25:28.2	88.850	0.140	-0.260	-0.120
2020/01/31 07:25:28.3	88.840	0.130	-0.200	-0.120
2020/01/31 07:25:28.4	88.840	0.120	-0.140	-0.120
2020/01/31 07:25:28.5	88.840	0.110	-0.070	-0.120
2020/01/31 07:25:28.6	88.830	0.090	-0.000	-0.120
2020/01/31 07:25:28.7	88.830	0.070	0.060	-0.120
2020/01/31 07:25:28.8	88.830	0.060	0.130	-0.120
2020/01/31 07:25:28.9	88.830	0.040	0.200	-0.110
2020/01/31 07:25:29.0	88.830	0.020	0.260	-0.110
2020/01/31 07:25:29.1	88.830	-0.000	0.320	-0.100
2020/01/31 07:25:29.2	88.830	-0.020	0.380	-0.090
2020/01/31 07:25:29.3	88.840	-0.040	0.440	-0.080
2020/01/31 07:25:29.4	88.840	-0.060	0.490	-0.070
2020/01/31 07:25:29.5	88.850	-0.080	0.530	-0.050
2020/01/31 07:25:29.6	88.860	-0.100	0.570	-0.040
2020/01/31 07:25:29.7	88.870	-0.120	0.610	-0.030
2020/01/31 07:25:29.8	88.880	-0.140	0.640	-0.010
2020/01/31 07:25:29.9	88.900	-0.150	0.660	0.000
2020/01/31 07:25:30.0	88.910	-0.170	0.680	0.020
2020/01/31 07:25:30.1	88.930	-0.180	0.690	0.040
2020/01/31 07:25:30.2	88.950	-0.190	0.690	0.060
2020/01/31 07:25:30.3	88.970	-0.200	0.690	0.070
2020/01/31 07:25:30.4	88.990	-0.210	0.680	0.090
2020/01/31 07:25:30.5	89.010	-0.220	0.660	0.110
2020/01/31 07:25:30.6	89.040	-0.220	0.630	0.130
2020/01/31 07:25:30.7	89.060	-0.220	0.600	0.150
2020/01/31 07:25:30.8	89.090	-0.220	0.560	0.180
2020/01/31 07:25:30.9	89.110	-0.220	0.520	0.200
2020/01/31 07:25:31.0	89.140	-0.210	0.470	0.230
2020/01/31 07:25:31.1	89.160	-0.200	0.410	0.260
2020/01/31 07:25:31.2	89.180	-0.190	0.350	0.290
2020/01/31 07:25:31.3	89.210	-0.180	0.280	0.320
2020/01/31 07:25:31.4	89.230	-0.170	0.200	0.360
2020/01/31 07:25:31.5	89.250	-0.150	0.130	0.390
2020/01/31 07:25:31.6	89.270	-0.130	0.050	0.430
2020/01/31 07:25:31.7	89.280	-0.100	-0.030	0.480
2020/01/31 07:25:31.8	89.300	-0.080	-0.120	0.520
2020/01/31 07:25:31.9	89.310	-0.050	-0.200	0.570
2020/01/31 07:25:32.0	89.320	-0.030	-0.290	0.620
2020/01/31 07:25:32.1	89.330	0.000	-0.380	0.670
2020/01/31 07:25:32.2	89.330	0.030	-0.460	0.730
2020/01/31 07:25:32.3	89.330	0.060	-0.550	0.790
2020/01/31 07:25:32.4	89.330	0.100	-0.630	0.850
2020/01/31 07:25:32.5	89.320	0.130	-0.710	0.910
2020/01/31 07:25:32.6	89.320	0.160	-0.780	0.980
2020/01/31 07:25:32.7	89.310	0.200	-0.860	1.050
2020/01/31 07:25:32.8	89.300	0.230	-0.920	1.120
2020/01/31 07:25:32.9	89.280	0.260	-0.980	1.190
2020/01/31 07:25:33.0	89.270	0.300	-1.040	1.270
2020/01/31 07:25:33.1	89.250	0.330	-1.080	1.340
2020/01/31 07:25:33.2	89.230	0.360	-1.120	1.420
2020/01/31 07:25:33.3	89.200	0.390	-1.160	1.500
2020/01/31 07:25:33.4	89.180	0.410	-1.190	1.580
2020/01/31 07:25:33.5	89.160	0.440	-1.200	1.650
2020/01/31 07:25:33.6	89.130	0.460	-1.220	1.730
2020/01/31 07:25:33.7	89.100	0.480	-1.220	1.810
2020/01/31 07:25:33.8	89.070	0.500	-1.210	1.880
2020/01/31 07:25:33.9	89.050	0.510	-1.200	1.960
2020/01/31 07:25:34.0	89.020	0.530	-1.180	2.030
2020/01/31 07:25:34.1	88.990	0.540	-1.150	2.100
2020/01/31 07:25:34.2	88.960	0.540	-1.120	2.170
2020/01/31 07:25:34.3	88.930	0.550	-1.080	2.230
2020/01/31 07:25:34.4	88.910	0.550	-1.030	2.290
2020/01/31 07:25:34.5	88.880	0.540	-0.980	2.350
2020/01/31 07:25:34.6	88.860	0.540	-0.920	2.410
2020/01/31 07:25:34.7	88.830	0.530	-0.860	2.460
2020/01/31 07:25:34.8	88.810	0.520	-0.790	2.500
2020/01/31 07:25:34.9	88.790	0.500	-0.720	2.550
2020/01/31 07:25:35.0	88.770	0.490	-0.650	2.580
2020/01/31 07:25:35.1	88.760	0.470	-0.570	2.610
2020/01/31 07:25:35.2	88.740	0.440	-0.490	2.640
2020/01/31 07:25:35.3	88.730	0.420	-0.410	2.660
2020/01/31 07:25:35.4	88.730	0.390	-0.320	2.680
2020/01/31 07:25:35.5	88.720	0.360	-0.240	2.690
2020/01/31 07:25:35.6	88.720	0.330	-0.160	2.690
2020/01/31 07:25:35.7	88.710	0.300	-0.080	2.690
2020/01/31 07:25:35.8	88.720	0.270	-0.010	2.680
2020/01/31 07:25:35.9	88.720	0.240	0.070	2.670
2020/01/31 07:25:36.0	88.730	0.200	0.140	2.650
2020/01/31 07:25:36.1	88.740	0.170	0.210	2.620
2020/01/31 07:25:36.2	88.750	0.130	0.270	2.590
2020/01/31 07:25:36.3	88.770	0.100	0.330	2.560
2020/01/31 07:25:36.4	88.790	0.070	0.390	2.520
2020/01/31 07:25:36.5	88.810	0.030	0.440	2.470
2020/01/31 07:25:36.6	88.830	-0.000	0.480	2.420
2020/01/31 07:25:36.7	88.850	-0.030	0.520	2.370
2020/01/31 07:25:36.8	88.880	-0.060	0.550	2.310
2020/01/31 07:25:36.9	88.900	-0.090	0.580	2.250
2020/01/31 07:25:37.0	88.920	-0.120	0.610	2.180
2020/01/31 07:25:37.1	88.950	-0.150	0.620	2.110
2020/01/31 07:25:37.2	88.970	-0.170	0.630	2.040
2020/01/31 07:25:37.3	89.000	-0.200	0.640	1.970
2020/01/31 07:25:37.4	89.020	-0.220	0.640	1.900
2020/01/31 07:25:37.5	89.040	-0.240	0.640	1.820
2020/01/31 07:25:37.6	89.060	-0.250	0.630	1.740
2020/01/31 07:25:37.7	89.080	-0.270	0.620	1.670
2020/01/31 07:25:37.8	89.100	-0.280	0.600	1.590
2020/01/31 07:25:37.9	89.120	-0.290	0.580	1.520
2020/01/31 07:25:38.0	89.130	-0.300	0.560	1.440
2020/01/31 07:25:38.1	89.140	-0.310	0.540	1.370
2020/01/31 07:25:38.2	89.150	-0.310	0.510	1.290
2020/01/31 07:25:38.3	89.160	-0.310	0.470	1.210
2020/01/31 07:25:38.4	89.160	-0.320	0.440	1.140
2020/01/31 07:25:38.5	89.160	-0.310	0.410	1.070
2020/01/31 07:25:38.6	89.160	-0.310	0.380	1.000
2020/01/31 07:25:38.7	89.160	-0.310	0.340	0.930
2020/01/31 07:25:38.8	89.160	-0.300	0.310	0.860
2020/01/31 07:25:38.9	89.160	-0.300	0.270	0.800
2020/01/31 07:25:39.0	89.150	-0.290	0.230	0.730
2020/01/31 07:25:39.1	89.140	-0.280	0.200	0.670
2020/01/31 07:25:39.2	89.130	-0.270	0.160	0.610
2020/01/31 07:25:39.3	89.120	-0.260	0.130	0.550
2020/01/31 07:25:39.4	89.110	-0.250	0.090	0.490
2020/01/31 07:25:39.5	89.100	-0.250	0.060	0.440
2020/01/31 07:25:39.6	89.080	-0.240	0.020	0.380
2020/01/31 07:25:39.7	89.070	-0.230	-0.010	0.330
2020/01/31 07:25:39.8	89.050	-0.220	-0.040	0.280
2020/01/31 07:25:39.9	89.040	-0.210	-0.070	0.230
2020/01/31 07:25:40.0	89.020	-0.200	-0.100	0.190
2020/01/31 07:25:40.1	89.000	-0.190	-0.130	0.150
2020/01/31 07:25:40.2	88.990	-0.190	-0.160	0.110
2020/01/31 07:25:40.3	88.970	-0.180	-0.190	0.070
2020/01/31 07:25:40.4	88.950	-0.180	-0.220	0.040
2020/01/31 07:25:40.5	88.930	-0.170	-0.240	0.000
2020/01/31 07:25:40.6	88.910	-0.170	-0.270	-0.020
2020/01/31 07:25:40.7	88.900	-0.170	-0.290	-0.050
2020/01/31 07:25:40.8	88.880	-0.160	-0.310	-0.070
2020/01/31 07:25:40.9	88.860	-0.160	-0.340	-0.090
2020/01/31 07:25:41.0	88.850	-0.160	-0.360	-0.110
2020/01/31 07:25:41.1	88.840	-0.170	-0.380	-0.130
2020/01/31 07:25:41.2	88.830	-0.170	-0.400	-0.140
2020/01/31 07:25:41.3	88.820	-0.170	-0.420	-0.160
2020/01/31 07:25:41.4	88.810	-0.170	-0.430	-0.170
2020/01/31 07:25:41.5	88.800	-0.180	-0.450	-0.170
2020/01/31 07:25:41.6	88.800	-0.180	-0.470	-0.180
2020/01/31 07:25:41.7	88.800	-0.180	-0.480	-0.190
2020/01/31 07:25:41.8	88.800	-0.190	-0.490	-0.190
2020/01/31 07:25:41.9	88.800	-0.190	-0.510	-0.190
2020/01/31 07:25:42.0	88.810	-0.200	-0.520	-0.190
2020/01/31 07:25:42.1	88.810	-0.200	-0.530	-0.190
2020/01/31 07:25:42.2	88.820	-0.200	-0.540	-0.190
2020/01/31 07:25:42.3	88.830	-0.200	-0.550	-0.180
2020/01/31 07:25:42.4	88.840	-0.210	-0.550	-0.180
2020/01/31 07:25:42.5	88.860	-0.210	-0.560	-0.170
2020/01/31 07:25:42.6	88.880	-0.210	-0.560	-0.160
2020/01/31 07:25:42.7	88.890	-0.210	-0.560	-0.150
2020/01/31 07:25:42.8	88.910	-0.210	-0.560	-0.140
2020/01/31 07:25:42.9	88.930	-0.200	-0.560	-0.130
2020/01/31 07:25:43.0	88.950	-0.200	-0.560	-0.120
2020/01/31 07:25:43.1	88.980	-0.190	-0.550	-0.100
2020/01/31 07:25:43.2	89.000	-0.190	-0.550	-0.080
2020/01/31 07:25:43.3	89.020	-0.180	-0.540	-0.060
2020/01/31 07:25:43.4	89.040	-0.170	-0.520	-0.040
2020/01/31 07:25:43.5	89.060	-0.160	-0.510	-0.020
2020/01/31 07:25:43.6	89.080	-0.150	-0.500	0.000
2020/01/31 07:25:43.7	89.100	-0.140	-0.480	0.030
2020/01/31 07:25:43.8	89.120	-0.130	-0.460	0.060
2020/01/31 07:25:43.9	89.140	-0.120	-0.450	0.090
2020/01/31 07:25:44.0	89.160	-0.100	-0.420	0.120
2020/01/31 07:25:44.1	89.180	-0.090	-0.400	0.150
2020/01/31 07:25:44.2	89.190	-0.070	-0.380	0.180
2020/01/31 07:25:44.3	89.210	-0.060	-0.360	0.220
2020/01/31 07:25:44.4	89.220	-0.040	-0.340	0.250
2020/01/31 07:25:44.5	89.230	-0.030	-0.310	0.290
2020/01/31 07:25:44.6	89.240	-0.010	-0.290	0.330
2020/01/31 07:25:44.7	89.240	0.010	-0.260	0.370
2020/01/31 07:25:44.8	89.250	0.020	-0.240	0.410
2020/01/31 07:25:44.9	89.250	0.040	-0.220	0.450
2020/01/31 07:25:45.0	89.250	0.060	-0.200	0.500
2020/01/31 07:25:45.1	89.250	0.080	-0.170	0.540
2020/01/31 07:25:45.2	89.250	0.090	-0.150	0.580
2020/01/31 07:25:45.3	89.240	0.110	-0.140	0.630
2020/01/31 07:25:45.4	89.230	0.130	-0.120	0.670
2020/01/31 07:25:45.5	89.220	0.140	-0.100	0.720
2020/01/31 07:25:45.6	89.210	0.160	-0.090	0.760
2020/01/31 07:25:45.7	89.200	0.180	-0.080	0.810
2020/01/31 07:25:45.8	89.190	0.190	-0.070	0.850
2020/01/31 07:25:45.9	89.180	0.210	-0.060	0.890
2020/01/31 07:25:46.0	89.160	0.230	-0.050	0.940
2020/01/31 07:25:46.1	89.150	0.240	-0.040	0.980
2020/01/31 07:25:46.2	89.130	0.260	-0.040	1.020
2020/01/31 07:25:46.3	89.120	0.270	-0.040	1.050
2020/01/31 07:25:46.4	89.100	0.290	-0.030	1.090
2020/01/31 07:25:46.5	89.090	0.300	-0.030	1.130
2020/01/31 07:25:46.6	89.070	0.310	-0.030	1.170
2020/01/31 07:25:46.7	89.050	0.320	-0.030	1.200
2020/01/31 07:25:46.8	89.030	0.340	-0.040	1.240
2020/01/31 07:25:46.9	89.010	0.350	-0.040	1.270
2020/01/31 07:25:47.0	88.990	0.360	-0.040	1.300
2020/01/31 07:25:47.1	88.980	0.370	-0.040	1.340
2020/01/31 07:25:47.2	88.960	0.370	-0.050	1.370
2020/01/31 07:25:47.3	88.940	0.380	-0.050	1.410
2020/01/31 07:25:47.4	88.920	0.390	-0.050	1.440
2020/01/31 07:25:47.5	88.900	0.390	-0.060	1.470
2020/01/31 07:25:47.6	88.880	0.400	-0.060	1.500
2020/01/31 07:25:47.7	88.860	0.400	-0.060	1.540
2020/01/31 07:25:47.8	88.840	0.400	-0.060	1.570
2020/01/31 07:25:47.9	88.820	0.400	-0.070	1.600
2020/01/31 07:25:48.0	88.800	0.400	-0.070	1.630
2020/01/31 07:25:48.1	88.780	0.400	-0.070	1.660
2020/01/31 07:25:48.2	88.770	0.390	-0.070	1.680
2020/01/31 07:25:48.3	88.750	0.390	-0.070	1.710
2020/01/31 07:25:48.4	88.740	0.380	-0.070	1.730
2020/01/31 07:25:48.5	88.730	0.370	-0.070	1.750
2020/01/31 07:25:48.6	88.720	0.360	-0.080	1.770
2020/01/31 07:25:48.7	88.720	0.350	-0.080	1.790
2020/01/31 07:25:48.8	88.710	0.340	-0.080	1.800
2020/01/31 07:25:48.9	88.710	0.330	-0.080	1.810
2020/01/31 07:25:49.0	88.720	0.310	-0.080	1.820
2020/01/31 07:25:49.1	88.720	0.300	-0.090	1.820
2020/01/31 07:25:49.2	88.730	0.280	-0.090	1.820
2020/01/31 07:25:49.3	88.750	0.270	-0.100	1.820
2020/01/31 07:25:49.4	88.760	0.250	-0.100	1.810
2020/01/31 07:25:49.5	88.780	0.230	-0.100	1.800
2020/01/31 07:25:49.6	88.800	0.210	-0.110	1.780
2020/01/31 07:25:49.7	88.820	0.200	-0.110	1.760
2020/01/31 07:25:49.8	88.850	0.180	-0.110	1.740
2020/01/31 07:25:49.9	88.880	0.160	-0.110	1.710
2020/01/31 07:25:50.0	88.910	0.140	-0.120	1.680
2020/01/31 07:25:50.1	88.940	0.120	-0.120	1.650
2020/01/31 07:25:50.2	88.970	0.110	-0.120	1.620
2020/01/31 07:25:50.3	89.010	0.090	-0.120	1.580
2020/01/31 07:25:50.4	89.040	0.070	-0.120	1.540
2020/01/31 07:25:50.5	89.080	0.050	-0.120	1.490
2020/01/31 07:25:50.6	89.120	0.030	-0.110	1.450
2020/01/31 07:25:50.7	89.150	0.020	-0.110	1.400
2020/01/31 07:25:50.8	89.190	-0.000	-0.110	1.360
2020/01/31 07:25:50.9	89.220	-0.020	-0.100	1.310
2020/01/31 07:25:51.0	89.260	-0.040	-0.090	1.260
2020/01/31 07:25:51.1	89.290	-0.050	-0.090	1.210
2020/01/31 07:25:51.2	89.330	-0.070	-0.080	1.160
2020/01/31 07:25:51.3	89.360	-0.080	-0.070	1.110
2020/01/31 07:25:51.4	89.390	-0.100	-0.060	1.070
2020/01/31 07:25:51.5	89.420	-0.120	-0.050	1.020
2020/01/31 07:25:51.6	89.440	-0.130	-0.040	0.970
2020/01/31 07:25:51.7	89.470	-0.150	-0.030	0.920
2020/01/31 07:25:51.8	89.500	-0.160	-0.020	0.880
2020/01/31 07:25:51.9	89.520	-0.170	-0.010	0.830
2020/01/31 07:25:52.0	89.540	-0.190	-0.000	0.790
2020/01/31 07:25:52.1	89.570	-0.200	0.010	0.750
2020/01/31 07:25:52.2	89.590	-0.220	0.010	0.700
2020/01/31 07:25:52.3	89.610	-0.230	0.020	0.660
2020/01/31 07:25:52.4	89.620	-0.240	0.030	0.630
2020/01/31 07:25:52.5	89.640	-0.250	0.030	0.590
2020/01/31 07:25:52.6	89.660	-0.270	0.040	0.550
2020/01/31 07:25:52.7	89.670	-0.280	0.040	0.520
2020/01/31 07:25:52.8	89.690	-0.290	0.050	0.490
2020/01/31 07:25:52.9	89.700	-0.300	0.050	0.460
2020/01/31 07:25:53.0	89.710	-0.310	0.040	0.430
2020/01/31 07:25:53.1	89.730	-0.320	0.040	0.410
2020/01/31 07:25:53.2	89.740	-0.330	0.040	0.390
2020/01/31 07:25:53.3	89.750	-0.330	0.030	0.370
2020/01/31 07:25:53.4	89.760	-0.340	0.020	0.350
2020/01/31 07:25:53.5	89.770	-0.350	0.010	0.340
2020/01/31 07:25:53.6	89.790	-0.350	-0.010	0.330
2020/01/31 07:25:53.7	89.800	-0.360	-0.020	0.320
2020/01/31 07:25:53.8	89.810	-0.360	-0.040	0.310
2020/01/31 07:25:53.9	89.820	-0.370	-0.060	0.300
2020/01/31 07:25:54.0	89.830	-0.370	-0.080	0.300
2020/01/31 07:25:54.1	89.840	-0.370	-0.100	0.300
2020/01/31 07:25:54.2	89.860	-0.370	-0.120	0.310
2020/01/31 07:25:54.3	89.870	-0.370	-0.150	0.310
2020/01/31 07:25:54.4	89.880	-0.360	-0.180	0.320
2020/01/31 07:25:54.5	89.890	-0.360	-0.210	0.330
2020/01/31 07:25:54.6	89.900	-0.360	-0.230	0.340
2020/01/31 07:25:54.7	89.910	-0.350	-0.260	0.360
2020/01/31 07:25:54.8	89.920	-0.340	-0.290	0.380
2020/01/31 07:25:54.9	89.920	-0.330	-0.320	0.400
2020/01/31 07:25:55.0	89.930	-0.320	-0.350	0.420
2020/01/31 07:25:55.1	89.940	-0.310	-0.380	0.440
2020/01/31 07:25:55.2	89.940	-0.300	-0.400	0.470
2020/01/31 07:25:55.3	89.940	-0.290	-0.430	0.500
2020/01/31 07:25:55.4	89.940	-0.270	-0.450	0.520
2020/01/31 07:25:55.5	89.940	-0.260	-0.480	0.550
2020/01/31 07:25:55.6	89.940	-0.240	-0.500	0.580
2020/01/31 07:25:55.7	89.940	-0.220	-0.520	0.610
2020/01/31 07:25:55.8	89.940	-0.210	-0.530	0.630
2020/01/31 07:25:55.9	89.940	-0.190	-0.550	0.660
2020/01/31 07:25:56.0	89.940	-0.170	-0.560	0.690
2020/01/31 07:25:56.1	89.930	-0.150	-0.570	0.720
2020/01/31 07:25:56.2	89.930	-0.140	-0.570	0.750
2020/01/31 07:25:56.3	89.930	-0.120	-0.580	0.770
2020/01/31 07:25:56.4	89.920	-0.100	-0.580	0.800
2020/01/31 07:25:56.5	89.920	-0.090	-0.570	0.820
2020/01/31 07:25:56.6	89.910	-0.070	-0.560	0.840
2020/01/31 07:25:56.7	89.910	-0.060	-0.550	0.860
2020/01/31 07:25:56.8	89.900	-0.040	-0.540	0.870
2020/01/31 07:25:56.9	89.900	-0.030	-0.520	0.890
2020/01/31 07:25:57.0	89.900	-0.020	-0.490	0.900
2020/01/31 07:25:57.1	89.890	-0.010	-0.470	0.910
2020/01/31 07:25:57.2	89.890	0.000	-0.440	0.910
2020/01/31 07:25:57.3	89.890	0.010	-0.400	0.920
2020/01/31 07:25:57.4	89.890	0.020	-0.370	0.910
2020/01/31 07:25:57.5	89.890	0.020	-0.330	0.910
2020/01/31 07:25:57.6	89.890	0.030	-0.290	0.910
2020/01/31 07:25:57.7	89.890	0.030	-0.250	0.900
2020/01/31 07:25:57.8	89.900	0.040	-0.210	0.880
2020/01/31 07:25:57.9	89.900	0.040	-0.160	0.870
2020/01/31 07:25:58.0	89.900	0.040	-0.120	0.850
2020/01/31 07:25:58.1	89.910	0.050	-0.080	0.840
2020/01/31 07:25:58.2	89.910	0.050	-0.030	0.810
2020/01/31 07:25:58.3	89.920	0.050	0.010	0.790
2020/01/31 07:25:58.4	89.920	0.050	0.060	0.770
2020/01/31 07:25:58.5	89.930	0.050	0.100	0.740
2020/01/31 07:25:58.6	89.930	0.050	0.130	0.720
2020/01/31 07:25:58.7	89.940	0.060	0.170	0.690
2020/01/31 07:25:58.8	89.950	0.060	0.200	0.670
2020/01/31 07:25:58.9	89.950	0.060	0.230	0.640
2020/01/31 07:25:59.0	89.960	0.070	0.260	0.610
2020/01/31 07:25:59.1	89.970	0.070	0.290	0.590
2020/01/31 07:25:59.2	89.980	0.080	0.310	0.560
2020/01/31 07:25:59.3	89.990	0.080	0.320	0.540
2020/01/31 07:25:59.4	89.990	0.090	0.340	0.510
2020/01/31 07:25:59.5	90.000	0.100	0.350	0.490
2020/01/31 07:25:59.6	90.010	0.110	0.350	0.460
2020/01/31 07:25:59.7	90.020	0.120	0.350	0.440
2020/01/31 07:25:59.8	90.030	0.140	0.350	0.420
2020/01/31 07:25:59.9	90.040	0.150	0.340	0.400
2020/01/31 07:26:00.0	90.050	0.160	0.330	0.380
2020/01/31 07:26:00.1	90.060	0.180	0.310	0.360
2020/01/31 07:26:00.2	90.070	0.200	0.290	0.330
2020/01/31 07:26:00.3	90.090	0.220	0.260	0.310
2020/01/31 07:26:00.4	90.100	0.240	0.230	0.290
2020/01/31 07:26:00.5	90.120	0.260	0.200	0.280
2020/01/31 07:26:00.6	90.140	0.280	0.160	0.260
2020/01/31 07:26:00.7	90.150	0.300	0.120	0.240
2020/01/31 07:26:00.8	90.170	0.320	0.080	0.220
2020/01/31 07:26:00.9	90.190	0.340	0.030	0.200
2020/01/31 07:26:01.0	90.220	0.360	-0.010	0.180
2020/01/31 07:26:01.1	90.240	0.380	-0.060	0.160
2020/01/31 07:26:01.2	90.260	0.400	-0.110	0.150
2020/01/31 07:26:01.3	90.290	0.420	-0.170	0.130
2020/01/31 07:26:01.4	90.320	0.440	-0.220	0.120
2020/01/31 07:26:01.5	90.340	0.450	-0.270	0.110
2020/01/31 07:26:01.6	90.370	0.470	-0.320	0.100
2020/01/31 07:26:01.7	90.400	0.480	-0.380	0.090
2020/01/31 07:26:01.8	90.420	0.490	-0.420	0.080
2020/01/31 07:26:01.9	90.450	0.500	-0.470	0.080
2020/01/31 07:26:02.0	90.480	0.500	-0.520	0.090
2020/01/31 07:26:02.1	90.500	0.510	-0.560	0.090
2020/01/31 07:26:02.2	90.530	0.510	-0.600	0.100
2020/01/31 07:26:02.3	90.550	0.500	-0.630	0.110
2020/01/31 07:26:02.4	90.570	0.500	-0.660	0.130
2020/01/31 07:26:02.5	90.590	0.490	-0.690	0.150
2020/01/31 07:26:02.6	90.610	0.470	-0.710	0.180
2020/01/31 07:26:02.7	90.630	0.460	-0.720	0.210
2020/01/31 07:26:02.8	90.640	0.440	-0.730	0.250
2020/01/31 07:26:02.9	90.660	0.410	-0.730	0.290
2020/01/31 07:26:03.0	90.670	0.390	-0.730	0.340
2020/01/31 07:26:03.1	90.690	0.360	-0.720	0.390
2020/01/31 07:26:03.2	90.700	0.330	-0.710	0.440
2020/01/31 07:26:03.3	90.700	0.290	-0.690	0.500
2020/01/31 07:26:03.4	90.710	0.260	-0.660	0.560
2020/01/31 07:26:03.5	90.720	0.220	-0.630	0.620
2020/01/31 07:26:03.6	90.720	0.180	-0.600	0.690
2020/01/31 07:26:03.7	90.730	0.130	-0.560	0.760
2020/01/31 07:26:03.8	90.730	0.090	-0.520	0.840
2020/01/31 07:26:03.9	90.730	0.040	-0.470	0.910
2020/01/31 07:26:04.0	90.730	-0.000	-0.420	0.990
2020/01/31 07:26:04.1	90.730	-0.050	-0.370	1.070
2020/01/31 07:26:04.2	90.730	-0.100	-0.310	1.150
2020/01/31 07:26:04.3	90.720	-0.140	-0.260	1.220
2020/01/31 07:26:04.4	90.720	-0.190	-0.200	1.310
2020/01/31 07:26:04.5	90.710	-0.240	-0.140	1.390
2020/01/31 07:26:04.6	90.710	-0.280	-0.080	1.470
2020/01/31 07:26:04.7	90.700	-0.330	-0.020	1.550
2020/01/31 07:26:04.8	90.690	-0.370	0.040	1.630
2020/01/31 07:26:04.9	90.680	-0.410	0.100	1.710
2020/01/31 07:26:05.0	90.660	-0.450	0.150	1.790
2020/01/31 07:26:05.1	90.650	-0.490	0.200	1.870
2020/01/31 07:26:05.2	90.630	-0.520	0.250	1.940
2020/01/31 07:26:05.3	90.610	-0.550	0.300	2.020
2020/01/31 07:26:05.4	90.590	-0.580	0.350	2.090
2020/01/31 07:26:05.5	90.570	-0.600	0.380	2.150
2020/01/31 07:26:05.6	90.540	-0.630	0.420	2.220
2020/01/31 07:26:05.7	90.520	-0.650	0.450	2.280
2020/01/31 07:26:05.8	90.490	-0.660	0.470	2.340
2020/01/31 07:26:05.9	90.470	-0.670	0.490	2.390
2020/01/31 07:26:06.0	90.440	-0.680	0.500	2.440
2020/01/31 07:26:06.1	90.410	-0.690	0.500	2.490
2020/01/31 07:26:06.2	90.390	-0.690	0.500	2.530
2020/01/31 07:26:06.3	90.360	-0.680	0.490	2.570
2020/01/31 07:26:06.4	90.330	-0.680	0.480	2.600
2020/01/31 07:26:06.5	90.310	-0.670	0.460	2.630
2020/01/31 07:26:06.6	90.280	-0.660	0.440	2.650
2020/01/31 07:26:06.7	90.250	-0.640	0.410	2.670
2020/01/31 07:26:06.8	90.230	-0.620	0.380	2.680
2020/01/31 07:26:06.9	90.210	-0.590	0.340	2.690
2020/01/31 07:26:07.0	90.190	-0.570	0.290	2.690
2020/01/31 07:26:07.1	90.170	-0.540	0.250	2.690
2020/01/31 07:26:07.2	90.150	-0.510	0.190	2.680
2020/01/31 07:26:07.3	90.130	-0.470	0.140	2.660
2020/01/31 07:26:07.4	90.120	-0.430	0.080	2.640
2020/01/31 07:26:07.5	90.110	-0.390	0.020	2.620
2020/01/31 07:26:07.6	90.100	-0.350	-0.040	2.590
2020/01/31 07:26:07.7	90.090	-0.310	-0.110	2.550
2020/01/31 07:26:07.8	90.090	-0.270	-0.170	2.510
2020/01/31 07:26:07.9	90.090	-0.220	-0.240	2.470
2020/01/31 07:26:08.0	90.090	-0.170	-0.300	2.420
2020/01/31 07:26:08.1	90.090	-0.130	-0.370	2.360
2020/01/31 07:26:08.2	90.100	-0.080	-0.430	2.300
2020/01/31 07:26:08.3	90.110	-0.030	-0.490	2.240
2020/01/31 07:26:08.4	90.120	0.010	-0.550	2.170
2020/01/31 07:26:08.5	90.140	0.060	-0.610	2.100
2020/01/31 07:26:08.6	90.150	0.110	-0.660	2.030
2020/01/31 07:26:08.7	90.170	0.150	-0.710	1.950
2020/01/31 07:26:08.8	90.190	0.190	-0.750	1.880
2020/01/31 07:26:08.9	90.210	0.240	-0.790	1.800
2020/01/31 07:26:09.0	90.220	0.270	-0.820	1.720
2020/01/31 07:26:09.1	90.240	0.310	-0.850	1.630
2020/01/31 07:26:09.2	90.260	0.350	-0.870	1.550
2020/01/31 07:26:09.3	90.280	0.380	-0.890	1.470
2020/01/31 07:26:09.4	90.300	0.410	-0.900	1.380
2020/01/31 07:26:09.5	90.320	0.440	-0.900	1.300
2020/01/31 07:26:09.6	90.340	0.460	-0.910	1.220
2020/01/31 07:26:09.7	90.350	0.490	-0.900	1.140
2020/01/31 07:26:09.8	90.370	0.500	-0.890	1.050
2020/01/31 07:26:09.9	90.380	0.520	-0.870	0.970
2020/01/31 07:26:10.0	90.400	0.530	-0.850	0.890
2020/01/31 07:26:10.1	90.410	0.540	-0.830	0.820
2020/01/31 07:26:10.2	90.430	0.550	-0.800	0.740
2020/01/31 07:26:10.3	90.440	0.550	-0.770	0.660
2020/01/31 07:26:10.4	90.450	0.550	-0.730	0.590
2020/01/31 07:26:10.5	90.470	0.540	-0.680	0.520
2020/01/31 07:26:10.6	90.480	0.530	-0.640	0.450
2020/01/31 07:26:10.7	90.490	0.520	-0.580	0.380
2020/01/31 07:26:10.8	90.510	0.510	-0.530	0.310
2020/01/31 07:26:10.9	90.520	0.490	-0.470	0.250
2020/01/31 07:26:11.0	90.530	0.470	-0.410	0.190
2020/01/31 07:26:11.1	90.540	0.450	-0.350	0.130
2020/01/31 07:26:11.2	90.560	0.430	-0.290	0.070
2020/01/31 07:26:11.3	90.570	0.400	-0.220	0.020
2020/01/31 07:26:11.4	90.580	0.370	-0.150	-0.030
2020/01/31 07:26:11.5	90.590	0.340	-0.090	-0.070
2020/01/31 07:26:11.6	90.600	0.310	-0.020	-0.120
2020/01/31 07:26:11.7	90.600	0.270	0.050	-0.160
2020/01/31 07:26:11.8	90.610	0.240	0.110	-0.190
2020/01/31 07:26:11.9	90.610	0.200	0.180	-0.230
2020/01/31 07:26:12.0	90.620	0.160	0.250	-0.260
2020/01/31 07:26:12.1	90.620	0.130	0.310	-0.280
2020/01/31 07:26:12.2	90.620	0.090	0.370	-0.300
2020/01/31 07:26:12.3	90.620	0.050	0.430	-0.320
2020/01/31 07:26:12.4	90.620	0.010	0.490	-0.340
2020/01/31 07:26:12.5	90.610	-0.030	0.540	-0.350
2020/01/31 07:26:12.6	90.600	-0.070	0.590	-0.360
2020/01/31 07:26:12.7	90.600	-0.110	0.640	-0.360
2020/01/31 07:26:12.8	90.590	-0.140	0.680	-0.360
2020/01/31 07:26:12.9	90.570	-0.180	0.710	-0.360
2020/01/31 07:26:13.0	90.560	-0.210	0.740	-0.360
2020/01/31 07:26:13.1	90.550	-0.240	0.770	-0.350
2020/01/31 07:26:13.2	90.530	-0.270	0.790	-0.330
2020/01/31 07:26:13.3	90.510	-0.300	0.800	-0.310
2020/01/31 07:26:13.4	90.490	-0.320	0.800	-0.290
2020/01/31 07:26:13.5	90.470	-0.350	0.800	-0.270
2020/01/31 07:26:13.6	90.450	-0.370	0.790	-0.250
2020/01/31 07:26:13.7	90.430	-0.380	0.780	-0.220
2020/01/31 07:26:13.8	90.400	-0.400	0.760	-0.180
2020/01/31 07:26:13.9	90.380	-0.410	0.730	-0.150
2020/01/31 07:26:14.0	90.350	-0.410	0.700	-0.110
2020/01/31 07:26:14.1	90.330	-0.420	0.660	-0.070
2020/01/31 07:26:14.2	90.300	-0.420	0.610	-0.030
2020/01/31 07:26:14.3	90.280	-0.410	0.550	0.010
2020/01/31 07:26:14.4	90.250	-0.410	0.490	0.050
2020/01/31 07:26:14.5	90.220	-0.400	0.430	0.100
2020/01/31 07:26:14.6	90.200	-0.390	0.360	0.150
2020/01/31 07:26:14.7	90.170	-0.370	0.280	0.200
2020/01/31 07:26:14.8	90.150	-0.350	0.200	0.250
2020/01/31 07:26:14.9	90.120	-0.330	0.120	0.300
2020/01/31 07:26:15.0	90.100	-0.300	0.040	0.350
2020/01/31 07:26:15.1	90.080	-0.280	-0.050	0.400
2020/01/31 07:26:15.2	90.050	-0.250	-0.140	0.450
2020/01/31 07:26:15.3	90.040	-0.220	-0.220	0.510
2020/01/31 07:26:15.4	90.020	-0.190	-0.310	0.560
2020/01/31 07:26:15.5	90.000	-0.150	-0.400	0.610
2020/01/31 07:26:15.6	89.980	-0.120	-0.490	0.670
2020/01/31 07:26:15.7	89.970	-0.090	-0.570	0.720
2020/01/31 07:26:15.8	89.950	-0.050	-0.650	0.770
2020/01/31 07:26:15.9	89.940	-0.010	-0.730	0.820
2020/01/31 07:26:16.0	89.920	0.020	-0.810	0.870
2020/01/31 07:26:16.1	89.910	0.060	-0.880	0.920
2020/01/31 07:26:16.2	89.900	0.090	-0.940	0.970
2020/01/31 07:26:16.3	89.880	0.120	-1.000	1.010
2020/01/31 07:26:16.4	89.870	0.160	-1.050	1.060
2020/01/31 07:26:16.5	89.860	0.190	-1.100	1.100
2020/01/31 07:26:16.6	89.860	0.220	-1.140	1.140
2020/01/31 07:26:16.7	89.850	0.250	-1.170	1.180
2020/01/31 07:26:16.8	89.840	0.270	-1.200	1.220
2020/01/31 07:26:16.9	89.840	0.300	-1.210	1.250
2020/01/31 07:26:17.0	89.830	0.320	-1.220	1.280
2020/01/31 07:26:17.1	89.830	0.340	-1.220	1.310
2020/01/31 07:26:17.2	89.830	0.350	-1.220	1.340
2020/01/31 07:26:17.3	89.830	0.370	-1.210	1.360
2020/01/31 07:26:17.4	89.830	0.380	-1.190	1.380
2020/01/31 07:26:17.5	89.830	0.390	-1.160	1.400
2020/01/31 07:26:17.6	89.830	0.390	-1.130	1.420
2020/01/31 07:26:17.7	89.840	0.400	-1.080	1.440
2020/01/31 07:26:17.8	89.840	0.400	-1.040	1.450
2020/01/31 07:26:17.9	89.850	0.390	-0.980	1.470
2020/01/31 07:26:18.0	89.850	0.390	-0.920	1.480
2020/01/31 07:26:18.1	89.850	0.380	-0.860	1.490
2020/01/31 07:26:18.2	89.860	0.370	-0.790	1.500
2020/01/31 07:26:18.3	89.860	0.360	-0.720	1.510
2020/01/31 07:26:18.4	89.870	0.350	-0.640	1.520
2020/01/31 07:26:18.5	89.870	0.330	-0.560	1.520
2020/01/31 07:26:18.6	89.880	0.310	-0.490	1.530
2020/01/31 07:26:18.7	89.880	0.290	-0.410	1.540
2020/01/31 07:26:18.8	89.880	0.270	-0.320	1.540
2020/01/31 07:26:18.9	89.890	0.250	-0.240	1.550
2020/01/31 07:26:19.0	89.890	0.220	-0.160	1.560
2020/01/31 07:26:19.1	89.890	0.200	-0.090	1.560
2020/01/31 07:26:19.2	89.890	0.170	-0.010	1.570
2020/01/31 07:26:19.3	89.900	0.150	0.070	1.570
2020/01/31 07:26:19.4	89.900	0.120	0.140	1.580
2020/01/31 07:26:19.5	89.900	0.090	0.200	1.580
2020/01/31 07:26:19.6	89.900	0.070	0.270	1.580
2020/01/31 07:26:19.7	89.900	0.040	0.320	1.590
2020/01/31 07:26:19.8	89.900	0.020	0.370	1.590
2020/01/31 07:26:19.9	89.900	-0.010	0.420	1.590
2020/01/31 07:26:20.0	89.900	-0.030	0.460	1.590
2020/01/31 07:26:20.1	89.900	-0.050	0.500	1.590
2020/01/31 07:26:20.2	89.910	-0.070	0.520	1.580
2020/01/31 07:26:20.3	89.910	-0.090	0.550	1.580
2020/01/31 07:26:20.4	89.910	-0.110	0.560	1.570
2020/01/31 07:26:20.5	89.920	-0.130	0.570	1.560
2020/01/31 07:26:20.6	89.920	-0.140	0.570	1.560
2020/01/31 07:26:20.7	89.930	-0.150	0.570	1.550
2020/01/31 07:26:20.8	89.930	-0.160	0.560	1.540
2020/01/31 07:26:20.9	89.940	-0.170	0.540	1.520
2020/01/31 07:26:21.0	89.940	-0.170	0.520	1.510
2020/01/31 07:26:21.1	89.950	-0.180	0.490	1.500
2020/01/31 07:26:21.2	89.960	-0.180	0.460	1.480
2020/01/31 07:26:21.3	89.970	-0.180	0.430	1.470
2020/01/31 07:26:21.4	89.980	-0.180	0.390	1.450
2020/01/31 07:26:21.5	89.990	-0.180	0.350	1.430
2020/01/31 07:26:21.6	90.000	-0.170	0.310	1.420
2020/01/31 07:26:21.7	90.010	-0.170	0.260	1.400
2020/01/31 07:26:21.8	90.020	-0.160	0.220	1.380
2020/01/31 07:26:21.9	90.030	-0.150	0.170	1.370
2020/01/31 07:26:22.0	90.040	-0.150	0.130	1.350
2020/01/31 07:26:22.1	90.050	-0.140	0.080	1.330
2020/01/31 07:26:22.2	90.060	-0.130	0.040	1.320
2020/01/31 07:26:22.3	90.070	-0.130	-0.010	1.300
2020/01/31 07:26:22.4	90.080	-0.120	-0.050	1.290
2020/01/31 07:26:22.5	90.080	-0.110	-0.080	1.280
2020/01/31 07:26:22.6	90.090	-0.110	-0.110	1.270
2020/01/31 07:26:22.7	90.090	-0.100	-0.140	1.260
2020/01/31 07:26:22.8	90.090	-0.100	-0.170	1.250
2020/01/31 07:26:22.9	90.090	-0.100	-0.190	1.240
2020/01/31 07:26:23.0	90.090	-0.100	-0.200	1.240
2020/01/31 07:26:23.1	90.080	-0.100	-0.210	1.230
2020/01/31 07:26:23.2	90.080	-0.100	-0.220	1.230
2020/01/31 07:26:23.3	90.070	-0.110	-0.220	1.230
2020/01/31 07:26:23.4	90.050	-0.110	-0.210	1.230
2020/01/31 07:26:23.5	90.040	-0.120	-0.210	1.240
2020/01/31 07:26:23.6	90.020	-0.130	-0.190	1.240
2020/01/31 07:26:23.7	90.000	-0.140	-0.180	1.240
2020/01/31 07:26:23.8	89.970	-0.150	-0.160	1.250
2020/01/31 07:26:23.9	89.950	-0.160	-0.140	1.250
2020/01/31 07:26:24.0	89.920	-0.180	-0.110	1.260
2020/01/31 07:26:24.1	89.890	-0.190	-0.080	1.260
2020/01/31 07:26:24.2	89.860	-0.210	-0.060	1.270
2020/01/31 07:26:24.3	89.830	-0.230	-0.030	1.270
2020/01/31 07:26:24.4	89.790	-0.240	-0.000	1.270
2020/01/31 07:26:24.5	89.760	-0.260	0.030	1.270
2020/01/31 07:26:24.6	89.720	-0.280	0.050	1.270
2020/01/31 07:26:24.7	89.690	-0.290	0.080	1.270
2020/01/31 07:26:24.8	89.660	-0.310	0.100	1.260
2020/01/31 07:26:24.9	89.620	-0.330	0.120	1.260
2020/01/31 07:26:25.0	89.590	-0.340	0.140	1.250
2020/01/31 07:26:25.1	89.560	-0.350	0.150	1.230
2020/01/31 07:26:25.2	89.530	-0.370	0.160	1.220
2020/01/31 07:26:25.3	89.490	-0.380	0.170	1.200
2020/01/31 07:26:25.4	89.470	-0.380	0.170	1.180
2020/01/31 07:26:25.5	89.440	-0.390	0.170	1.160
2020/01/31 07:26:25.6	89.420	-0.400	0.160	1.130
2020/01/31 07:26:25.7	89.390	-0.400	0.140	1.110
2020/01/31 07:26:25.8	89.370	-0.400	0.120	1.070
2020/01/31 07:26:25.9	89.350	-0.390	0.100	1.040
2020/01/31 07:26:26.0	89.340	-0.390	0.070	1.000
2020/01/31 07:26:26.1	89.330	-0.380	0.040	0.960
2020/01/31 07:26:26.2	89.320	-0.370	0.000	0.920
2020/01/31 07:26:26.3	89.310	-0.350	-0.040	0.880
2020/01/31 07:26:26.4	89.300	-0.340	-0.080	0.830
2020/01/31 07:26:26.5	89.300	-0.320	-0.130	0.780
2020/01/31 07:26:26.6	89.310	-0.290	-0.180	0.730
2020/01/31 07:26:26.7	89.310	-0.270	-0.230	0.670
2020/01/31 07:26:26.8	89.320	-0.240	-0.290	0.620
2020/01/31 07:26:26.9	89.330	-0.210	-0.350	0.560
2020/01/31 07:26:27.0	89.350	-0.180	-0.410	0.500
2020/01/31 07:26:27.1	89.370	-0.140	-0.470	0.440
2020/01/31 07:26:27.2	89.390	-0.100	-0.530	0.380
2020/01/31 07:26:27.3	89.410	-0.060	-0.590	0.310
2020/01/31 07:26:27.4	89.440	-0.020	-0.650	0.250
2020/01/31 07:26:27.5	89.470	0.020	-0.700	0.190
2020/01/31 07:26:27.6	89.500	0.070	-0.760	0.130
2020/01/31 07:26:27.7	89.530	0.110	-0.810	0.070
2020/01/31 07:26:27.8	89.560	0.160	-0.860	0.010
2020/01/31 07:26:27.9	89.600	0.210	-0.900	-0.050
2020/01/31 07:26:28.0	89.630	0.260	-0.950	-0.110
2020/01/31 07:26:28.1	89.670	0.300	-0.980	-0.160
2020/01/31 07:26:28.2	89.710	0.350	-1.020	-0.210
2020/01/31 07:26:28.3	89.740	0.400	-1.050	-0.260
2020/01/31 07:26:28.4	89.770	0.440	-1.070	-0.300
2020/01/31 07:26:28.5	89.810	0.490	-1.080	-0.340
2020/01/31 07:26:28.6	89.840	0.530	-1.090	-0.380
2020/01/31 07:26:28.7	89.870	0.570	-1.100	-0.410
2020/01/31 07:26:28.8	89.900	0.610	-1.090	-0.430
2020/01/31 07:26:28.9	89.930	0.640	-1.080	-0.460
2020/01/31 07:26:29.0	89.960	0.670	-1.070	-0.470
2020/01/31 07:26:29.1	89.980	0.700	-1.050	-0.480
2020/01/31 07:26:29.2	90.000	0.730	-1.020	-0.490
2020/01/31 07:26:29.3	90.020	0.750	-0.980	-0.480
2020/01/31 07:26:29.4	90.030	0.770	-0.940	-0.480
2020/01/31 07:26:29.5	90.040	0.780	-0.890	-0.460
2020/01/31 07:26:29.6	90.050	0.790	-0.840	-0.440
2020/01/31 07:26:29.7	90.060	0.790	-0.790	-0.420
2020/01/31 07:26:29.8	90.060	0.790	-0.720	-0.390
2020/01/31 07:26:29.9	90.060	0.790	-0.660	-0.350
2020/01/31 07:26:30.0	90.060	0.780	-0.590	-0.310
2020/01/31 07:26:30.1	90.050	0.770	-0.510	-0.270
2020/01/31 07:26:30.2	90.040	0.750	-0.440	-0.210
2020/01/31 07:26:30.3	90.030	0.730	-0.360	-0.160
2020/01/31 07:26:30.4	90.010	0.710	-0.280	-0.100
2020/01/31 07:26:30.5	89.990	0.680	-0.200	-0.030
2020/01/31 07:26:30.6	89.970	0.650	-0.110	0.040
2020/01/31 07:26:30.7	89.950	0.610	-0.030	0.110
2020/01/31 07:26:30.8	89.920	0.570	0.060	0.180
2020/01/31 07:26:30.9	89.900	0.530	0.140	0.260
2020/01/31 07:26:31.0	89.870	0.490	0.220	0.340
2020/01/31 07:26:31.1	89.840	0.440	0.300	0.420
2020/01/31 07:26:31.2	89.800	0.390	0.380	0.510
2020/01/31 07:26:31.3	89.770	0.340	0.460	0.590
2020/01/31 07:26:31.4	89.740	0.290	0.530	0.680
2020/01/31 07:26:31.5	89.710	0.240	0.600	0.760
2020/01/31 07:26:31.6	89.680	0.190	0.660	0.850
2020/01/31 07:26:31.7	89.640	0.140	0.710	0.930
2020/01/31 07:26:31.8	89.610	0.090	0.770	1.010
2020/01/31 07:26:31.9	89.590	0.030	0.810	1.090
2020/01/31 07:26:32.0	89.560	-0.020	0.850	1.170
2020/01/31 07:26:32.1	89.530	-0.070	0.890	1.240
2020/01/31 07:26:32.2	89.510	-0.110	0.910	1.310
2020/01/31 07:26:32.3	89.490	-0.160	0.930	1.380
2020/01/31 07:26:32.4	89.470	-0.200	0.940	1.440
2020/01/31 07:26:32.5	89.450	-0.250	0.950	1.510
2020/01/31 07:26:32.6	89.440	-0.290	0.950	1.560
2020/01/31 07:26:32.7	89.430	-0.320	0.940	1.620
2020/01/31 07:26:32.8	89.420	-0.360	0.930	1.670
2020/01/31 07:26:32.9	89.410	-0.390	0.910	1.720
2020/01/31 07:26:33.0	89.410	-0.420	0.880	1.760
2020/01/31 07:26:33.1	89.400	-0.440	0.850	1.800
2020/01/31 07:26:33.2	89.400	-0.460	0.810	1.840
2020/01/31 07:26:33.3	89.410	-0.480	0.770	1.870
2020/01/31 07:26:33.4	89.410	-0.500	0.720	1.900
2020/01/31 07:26:33.5	89.420	-0.510	0.670	1.930
2020/01/31 07:26:33.6	89.430	-0.520	0.610	1.950
2020/01/31 07:26:33.7	89.450	-0.530	0.550	1.970
2020/01/31 07:26:33.8	89.460	-0.530	0.480	1.980
2020/01/31 07:26:33.9	89.480	-0.530	0.410	2.000
2020/01/31 07:26:34.0	89.500	-0.530	0.340	2.010
2020/01/31 07:26:34.1	89.520	-0.530	0.260	2.010
2020/01/31 07:26:34.2	89.550	-0.520	0.180	2.020
2020/01/31 07:26:34.3	89.570	-0.510	0.100	2.010
2020/01/31 07:26:34.4	89.600	-0.500	0.020	2.010
2020/01/31 07:26:34.5	89.630	-0.480	-0.060	2.010
2020/01/31 07:26:34.6	89.660	-0.470	-0.140	2.000
2020/01/31 07:26:34.7	89.690	-0.450	-0.220	2.000
2020/01/31 07:26:34.8	89.720	-0.430	-0.290	1.990
2020/01/31 07:26:34.9	89.750	-0.410	-0.370	1.980
2020/01/31 07:26:35.0	89.790	-0.390	-0.440	1.960
2020/01/31 07:26:35.1	89.820	-0.370	-0.510	1.950
2020/01/31 07:26:35.2	89.850	-0.340	-0.570	1.930
2020/01/31 07:26:35.3	89.890	-0.320	-0.630	1.920
2020/01/31 07:26:35.4	89.920	-0.300	-0.690	1.900
2020/01/31 07:26:35.5	89.950	-0.270	-0.740	1.880
2020/01/31 07:26:35.6	89.980	-0.250	-0.780	1.860
2020/01/31 07:26:35.7	90.010	-0.230	-0.820	1.840
2020/01/31 07:26:35.8	90.040	-0.200	-0.850	1.820
2020/01/31 07:26:35.9	90.070	-0.180	-0.880	1.790
2020/01/31 07:26:36.0	90.100	-0.160	-0.900	1.770
2020/01/31 07:26:36.1	90.120	-0.140	-0.910	1.750
2020/01/31 07:26:36.2	90.150	-0.120	-0.920	1.720
2020/01/31 07:26:36.3	90.170	-0.110	-0.920	1.700
2020/01/31 07:26:36.4	90.190	-0.090	-0.920	1.680
2020/01/31 07:26:36.5	90.210	-0.080	-0.910	1.650
2020/01/31 07:26:36.6	90.220	-0.070	-0.900	1.630
2020/01/31 07:26:36.7	90.230	-0.050	-0.890	1.610
2020/01/31 07:26:36.8	90.240	-0.050	-0.860	1.590
2020/01/31 07:26:36.9	90.250	-0.040	-0.840	1.570
2020/01/31 07:26:37.0	90.250	-0.030	-0.810	1.550
2020/01/31 07:26:37.1	90.260	-0.030	-0.780	1.530
2020/01/31 07:26:37.2	90.260	-0.020	-0.740	1.520
2020/01/31 07:26:37.3	90.260	-0.020	-0.700	1.500
2020/01/31 07:26:37.4	90.250	-0.020	-0.660	1.490
2020/01/31 07:26:37.5	90.240	-0.020	-0.620	1.470
2020/01/31 07:26:37.6	90.230	-0.020	-0.580	1.460
2020/01/31 07:26:37.7	90.220	-0.030	-0.540	1.450
2020/01/31 07:26:37.8	90.210	-0.030	-0.490	1.430
2020/01/31 07:26:37.9	90.200	-0.030	-0.450	1.420
2020/01/31 07:26:38.0	90.180	-0.040	-0.400	1.410
2020/01/31 07:26:38.1	90.170	-0.040	-0.360	1.400
2020/01/31 07:26:38.2	90.150	-0.050	-0.310	1.390
2020/01/31 07:26:38.3	90.130	-0.050	-0.270	1.380
2020/01/31 07:26:38.4	90.110	-0.060	-0.230	1.370
2020/01/31 07:26:38.5	90.090	-0.060	-0.190	1.360
2020/01/31 07:26:38.6	90.080	-0.060	-0.150	1.360
2020/01/31 07:26:38.7	90.060	-0.070	-0.110	1.350
2020/01/31 07:26:38.8	90.040	-0.070	-0.070	1.340
2020/01/31 07:26:38.9	90.020	-0.070	-0.040	1.330
2020/01/31 07:26:39.0	90.000	-0.080	-0.000	1.320
2020/01/31 07:26:39.1	89.990	-0.080	0.030	1.310
2020/01/31 07:26:39.2	89.970	-0.080	0.050	1.300
2020/01/31 07:26:39.3	89.950	-0.080	0.080	1.290
2020/01/31 07:26:39.4	89.940	-0.080	0.100	1.270
2020/01/31 07:26:39.5	89.920	-0.080	0.110	1.260
2020/01/31 07:26:39.6	89.910	-0.070	0.130	1.240
2020/01/31 07:26:39.7	89.890	-0.070	0.140	1.230
2020/01/31 07:26:39.8	89.880	-0.060	0.140	1.210
2020/01/31 07:26:39.9	89.870	-0.060	0.150	1.190
2020/01/31 07:26:40.0	89.860	-0.050	0.140	1.170
2020/01/31 07:26:40.1	89.850	-0.040	0.140	1.140
2020/01/31 07:26:40.2	89.840	-0.030	0.130	1.120
2020/01/31 07:26:40.3	89.840	-0.020	0.120	1.090
2020/01/31 07:26:40.4	89.830	-0.010	0.100	1.060
2020/01/31 07:26:40.5	89.830	0.010	0.080	1.030
2020/01/31 07:26:40.6	89.830	0.020	0.060	0.990
2020/01/31 07:26:40.7	89.830	0.040	0.040	0.960
2020/01/31 07:26:40.8	89.830	0.050	0.010	0.920
2020/01/31 07:26:40.9	89.830	0.070	-0.020	0.880
2020/01/31 07:26:41.0	89.840	0.080	-0.050	0.830
2020/01/31 07:26:41.1	89.850	0.100	-0.080	0.790
2020/01/31 07:26:41.2	89.860	0.110	-0.110	0.740
2020/01/31 07:26:41.3	89.870	0.130	-0.150	0.690
2020/01/31 07:26:41.4	89.880	0.140	-0.180	0.640
2020/01/31 07:26:41.5	89.900	0.160	-0.210	0.590
2020/01/31 07:26:41.6	89.910	0.170	-0.240	0.540
2020/01/31 07:26:41.7	89.930	0.190	-0.270	0.490
2020/01/31 07:26:41.8	89.950	0.200	-0.290	0.430
2020/01/31 07:26:41.9	89.970	0.210	-0.320	0.380
2020/01/31 07:26:42.0	89.980	0.220	-0.340	0.330
2020/01/31 07:26:42.1	90.000	0.230	-0.360	0.280
2020/01/31 07:26:42.2	90.020	0.240	-0.370	0.220
2020/01/31 07:26:42.3	90.040	0.250	-0.380	0.170
2020/01/31 07:26:42.4	90.050	0.250	-0.390	0.120
2020/01/31 07:26:42.5	90.070	0.260	-0.390	0.080
2020/01/31 07:26:42.6	90.080	0.260	-0.390	0.030
2020/01/31 07:26:42.7	90.090	0.260	-0.390	-0.010
2020/01/31 07:26:42.8	90.100	0.260	-0.380	-0.050
2020/01/31 07:26:42.9	90.110	0.260	-0.360	-0.090
2020/01/31 07:26:43.0	90.120	0.250	-0.350	-0.120
2020/01/31 07:26:43.1	90.120	0.250	-0.320	-0.150
2020/01/31 07:26:43.2	90.130	0.240	-0.300	-0.180
2020/01/31 07:26:43.3	90.130	0.230	-0.270	-0.200
2020/01/31 07:26:43.4	90.120	0.220	-0.240	-0.220
2020/01/31 07:26:43.5	90.120	0.210	-0.200	-0.240
2020/01/31 07:26:43.6	90.110	0.200	-0.170	-0.250
2020/01/31 07:26:43.7	90.100	0.190	-0.130	-0.250
2020/01/31 07:26:43.8	90.090	0.170	-0.090	-0.260
2020/01/31 07:26:43.9	90.080	0.160	-0.040	-0.250
2020/01/31 07:26:44.0	90.060	0.140	0.000	-0.250
2020/01/31 07:26:44.1	90.050	0.130	0.050	-0.240
2020/01/31 07:26:44.2	90.030	0.110	0.090	-0.230
2020/01/31 07:26:44.3	90.010	0.090	0.130	-0.210
2020/01/31 07:26:44.4	89.990	0.080	0.170	-0.190
2020/01/31 07:26:44.5	89.980	0.060	0.220	-0.170
2020/01/31 07:26:44.6	89.960	0.050	0.260	-0.140
2020/01/31 07:26:44.7	89.940	0.030	0.290	-0.110
2020/01/31 07:26:44.8	89.920	0.020	0.330	-0.080
2020/01/31 07:26:44.9	89.900	0.000	0.360	-0.050
2020/01/31 07:26:45.0	89.880	-0.010	0.390	-0.010
2020/01/31 07:26:45.1	89.860	-0.020	0.410	0.030
2020/01/31 07:26:45.2	89.840	-0.040	0.420	0.060
2020/01/31 07:26:45.3	89.830	-0.040	0.440	0.110
2020/01/31 07:26:45.4	89.810	-0.050	0.450	0.150
2020/01/31 07:26:45.5	89.800	-0.060	0.440	0.190
2020/01/31 07:26:45.6	89.790	-0.060	0.440	0.230
2020/01/31 07:26:45.7	89.780	-0.070	0.420	0.280
2020/01/31 07:26:45.8	89.770	-0.070	0.400	0.320
2020/01/31 07:26:45.9	89.770	-0.060	0.380	0.370
2020/01/31 07:26:46.0	89.760	-0.060	0.350	0.410
2020/01/31 07:26:46.1	89.760	-0.060	0.310	0.460
2020/01/31 07:26:46.2	89.760	-0.050	0.270	0.500
2020/01/31 07:26:46.3	89.770	-0.040	0.210	0.540
2020/01/31 07:26:46.4	89.770	-0.030	0.150	0.590
2020/01/31 07:26:46.5	89.780	-0.010	0.100	0.630
2020/01/31 07:26:46.6	89.790	0.000	0.030	0.670
2020/01/31 07:26:46.7	89.800	0.020	-0.030	0.720
2020/01/31 07:26:46.8	89.810	0.030	-0.100	0.760
2020/01/31 07:26:46.9	89.830	0.050	-0.180	0.800
2020/01/31 07:26:47.0	89.850	0.070	-0.250	0.840
2020/01/31 07:26:47.1	89.870	0.090	-0.320	0.880
2020/01/31 07:26:47.2	89.890	0.110	-0.400	0.930
2020/01/31 07:26:47.3	89.910	0.130	-0.470	0.970
2020/01/31 07:26:47.4	89.930	0.150	-0.550	1.010
2020/01/31 07:26:47.5	89.960	0.170	-0.620	1.050
2020/01/31 07:26:47.6	89.980	0.190	-0.690	1.090
2020/01/31 07:26:47.7	90.000	0.210	-0.750	1.130
2020/01/31 07:26:47.8	90.030	0.230	-0.820	1.170
2020/01/31 07:26:47.9	90.060	0.250	-0.870	1.200
2020/01/31 07:26:48.0	90.080	0.260	-0.920	1.240
2020/01/31 07:26:48.1	90.110	0.270	-0.970	1.270
2020/01/31 07:26:48.2	90.130	0.280	-1.010	1.310
2020/01/31 07:26:48.3	90.150	0.290	-1.040	1.340
2020/01/31 07:26:48.4	90.180	0.300	-1.070	1.370
2020/01/31 07:26:48.5	90.200	0.310	-1.090	1.400
2020/01/31 07:26:48.6	90.220	0.310	-1.100	1.430
2020/01/31 07:26:48.7	90.240	0.310	-1.100	1.470
2020/01/31 07:26:48.8	90.260	0.310	-1.090	1.500
2020/01/31 07:26:48.9	90.270	0.300	-1.080	1.530
2020/01/31 07:26:49.0	90.290	0.300	-1.060	1.560
2020/01/31 07:26:49.1	90.300	0.290	-1.020	1.600
2020/01/31 07:26:49.2	90.310	0.270	-0.980	1.630
2020/01/31 07:26:49.3	90.320	0.260	-0.930	1.670
2020/01/31 07:26:49.4	90.330	0.240	-0.880	1.710
2020/01/31 07:26:49.5	90.330	0.220	-0.820	1.750
2020/01/31 07:26:49.6	90.330	0.200	-0.750	1.780
2020/01/31 07:26:49.7	90.330	0.180	-0.680	1.820
2020/01/31 07:26:49.8	90.330	0.150	-0.600	1.860
2020/01/31 07:26:49.9	90.320	0.120	-0.510	1.900
2020/01/31 07:26:50.0	90.310	0.100	-0.430	1.950
2020/01/31 07:26:50.1	90.300	0.070	-0.340	1.990
2020/01/31 07:26:50.2	90.290	0.030	-0.240	2.030
2020/01/31 07:26:50.3	90.270	0.000	-0.150	2.070
2020/01/31 07:26:50.4	90.260	-0.030	-0.060	2.110
2020/01/31 07:26:50.5	90.240	-0.060	0.040	2.160
2020/01/31 07:26:50.6	90.220	-0.100	0.130	2.200
2020/01/31 07:26:50.7	90.190	-0.130	0.220	2.240
2020/01/31 07:26:50.8	90.170	-0.160	0.310	2.270
2020/01/31 07:26:50.9	90.150	-0.190	0.390	2.310
2020/01/31 07:26:51.0	90.130	-0.230	0.470	2.350
2020/01/31 07:26:51.1	90.110	-0.260	0.550	2.380
2020/01/31 07:26:51.2	90.080	-0.290	0.620	2.400
2020/01/31 07:26:51.3	90.060	-0.320	0.680	2.430
2020/01/31 07:26:51.4	90.050	-0.350	0.740	2.450
2020/01/31 07:26:51.5	90.030	-0.370	0.790	2.470
2020/01/31 07:26:51.6	90.010	-0.400	0.840	2.480
2020/01/31 07:26:51.7	90.000	-0.420	0.880	2.490
2020/01/31 07:26:51.8	89.990	-0.450	0.910	2.490
2020/01/31 07:26:51.9	89.980	-0.470	0.930	2.490
2020/01/31 07:26:52.0	89.970	-0.490	0.940	2.480
2020/01/31 07:26:52.1	89.960	-0.500	0.950	2.470
2020/01/31 07:26:52.2	89.960	-0.520	0.950	2.450
2020/01/31 07:26:52.3	89.960	-0.530	0.940	2.430
2020/01/31 07:26:52.4	89.950	-0.540	0.930	2.400
2020/01/31 07:26:52.5	89.950	-0.550	0.900	2.370
2020/01/31 07:26:52.6	89.950	-0.550	0.870	2.330
2020/01/31 07:26:52.7	89.950	-0.550	0.830	2.290
2020/01/31 07:26:52.8	89.950	-0.550	0.790	2.250
2020/01/31 07:26:52.9	89.960	-0.550	0.740	2.200
2020/01/31 07:26:53.0	89.960	-0.550	0.680	2.150
2020/01/31 07:26:53.1	89.960	-0.540	0.620	2.100
2020/01/31 07:26:53.2	89.960	-0.530	0.560	2.040
2020/01/31 07:26:53.3	89.960	-0.520	0.480	1.980
2020/01/31 07:26:53.4	89.970	-0.510	0.410	1.920
2020/01/31 07:26:53.5	89.970	-0.490	0.330	1.860
2020/01/31 07:26:53.6	89.970	-0.470	0.250	1.790
2020/01/31 07:26:53.7	89.970	-0.450	0.160	1.720
2020/01/31 07:26:53.8	89.980	-0.430	0.080	1.650
2020/01/31 07:26:53.9	89.980	-0.400	-0.010	1.580
2020/01/31 07:26:54.0	89.980	-0.380	-0.100	1.510
2020/01/31 07:26:54.1	89.990	-0.350	-0.180	1.430
2020/01/31 07:26:54.2	89.990	-0.320	-0.270	1.350
2020/01/31 07:26:54.3	90.000	-0.290	-0.360	1.270
2020/01/31 07:26:54.4	90.000	-0.260	-0.440	1.190
2020/01/31 07:26:54.5	90.010	-0.230	-0.530	1.110
2020/01/31 07:26:54.6	90.010	-0.190	-0.600	1.030
2020/01/31 07:26:54.7	90.020	-0.160	-0.680	0.950
2020/01/31 07:26:54.8	90.020	-0.130	-0.750	0.870
2020/01/31 07:26:54.9	90.030	-0.090	-0.820	0.790
2020/01/31 07:26:55.0	90.040	-0.060	-0.880	0.710
2020/01/31 07:26:55.1	90.040	-0.020	-0.930	0.630
2020/01/31 07:26:55.2	90.040	0.010	-0.980	0.550
2020/01/31 07:26:55.3	90.050	0.050	-1.030	0.470
2020/01/31 07:26:55.4	90.050	0.080	-1.070	0.400
2020/01/31 07:26:55.5	90.060	0.110	-1.100	0.320
2020/01/31 07:26:55.6	90.060	0.140	-1.130	0.250
2020/01/31 07:26:55.7	90.060	0.170	-1.150	0.180
2020/01/31 07:26:55.8	90.060	0.200	-1.160	0.110
2020/01/31 07:26:55.9	90.060	0.230	-1.170	0.050
2020/01/31 07:26:56.0	90.050	0.260	-1.170	-0.010
2020/01/31 07:26:56.1	90.050	0.280	-1.160	-0.070
2020/01/31 07:26:56.2	90.040	0.300	-1.150	-0.120
2020/01/31 07:26:56.3	90.030	0.320	-1.130	-0.170
2020/01/31 07:26:56.4	90.020	0.340	-1.110	-0.210
2020/01/31 07:26:56.5	90.010	0.360	-1.080	-0.250
2020/01/31 07:26:56.6	90.000	0.370	-1.050	-0.290
2020/01/31 07:26:56.7	89.990	0.390	-1.020	-0.320
2020/01/31 07:26:56.8	89.970	0.400	-0.970	-0.340
2020/01/31 07:26:56.9	89.960	0.410	-0.930	-0.370
2020/01/31 07:26:57.0	89.940	0.410	-0.880	-0.380
2020/01/31 07:26:57.1	89.920	0.420	-0.830	-0.400
2020/01/31 07:26:57.2	89.910	0.420	-0.780	-0.410
2020/01/31 07:26:57.3	89.890	0.420	-0.720	-0.410
2020/01/31 07:26:57.4	89.870	0.420	-0.660	-0.410
2020/01/31 07:26:57.5	89.850	0.410	-0.600	-0.410
2020/01/31 07:26:57.6	89.830	0.400	-0.540	-0.400
2020/01/31 07:26:57.7	89.810	0.400	-0.470	-0.390
2020/01/31 07:26:57.8	89.790	0.390	-0.410	-0.380
2020/01/31 07:26:57.9	89.770	0.370	-0.340	-0.360
2020/01/31 07:26:58.0	89.740	0.360	-0.270	-0.340
2020/01/31 07:26:58.1	89.720	0.350	-0.210	-0.320
2020/01/31 07:26:58.2	89.700	0.330	-0.140	-0.290
2020/01/31 07:26:58.3	89.680	0.310	-0.070	-0.270
2020/01/31 07:26:58.4	89.650	0.290	-0.000	-0.230
2020/01/31 07:26:58.5	89.630	0.270	0.060	-0.200
2020/01/31 07:26:58.6	89.610	0.250	0.130	-0.160
2020/01/31 07:26:58.7	89.590	0.220	0.190	-0.130
2020/01/31 07:26:58.8	89.560	0.200	0.250	-0.090
2020/01/31 07:26:58.9	89.540	0.170	0.310	-0.040
2020/01/31 07:26:59.0	89.520	0.150	0.370	-0.000
2020/01/31 07:26:59.1	89.500	0.120	0.430	0.040
2020/01/31 07:26:59.2	89.480	0.090	0.480	0.090
2020/01/31 07:26:59.3	89.460	0.070	0.530	0.140
2020/01/31 07:26:59.4	89.440	0.040	0.570	0.180
2020/01/31 07:26:59.5	89.420	0.010	0.610	0.230
2020/01/31 07:26:59.6	89.400	-0.020	0.650	0.270
2020/01/31 07:26:59.7	89.380	-0.040	0.680	0.320
2020/01/31 07:26:59.8	89.370	-0.070	0.710	0.360
2020/01/31 07:26:59.9	89.350	-0.090	0.730	0.410
2020/01/31 07:27:00.0	89.340	-0.110	0.750	0.450
2020/01/31 07:27:00.1	89.330	-0.130	0.760	0.490
2020/01/31 07:27:00.2	89.320	-0.150	0.760	0.530
2020/01/31 07:27:00.3	89.310	-0.170	0.760	0.570
2020/01/31 07:27:00.4	89.310	-0.180	0.750	0.610
2020/01/31 07:27:00.5	89.300	-0.190	0.730	0.650
2020/01/31 07:27:00.6	89.300	-0.200	0.700	0.680
2020/01/31 07:27:00.7	89.300	-0.210	0.670	0.710
2020/01/31 07:27:00.8	89.310	-0.210	0.630	0.740
2020/01/31 07:27:00.9	89.310	-0.210	0.590	0.770
2020/01/31 07:27:01.0	89.320	-0.210	0.540	0.800
2020/01/31 07:27:01.1	89.330	-0.210	0.480	0.820
2020/01/31 07:27:01.2	89.350	-0.200	0.410	0.850
2020/01/31 07:27:01.3	89.360	-0.180	0.340	0.870
2020/01/31 07:27:01.4	89.380	-0.170	0.270	0.890
2020/01/31 07:27:01.5	89.400	-0.150	0.190	0.910
2020/01/31 07:27:01.6	89.420	-0.130	0.100	0.930
2020/01/31 07:27:01.7	89.450	-0.100	0.020	0.950
2020/01/31 07:27:01.8	89.470	-0.080	-0.070	0.960
2020/01/31 07:27:01.9	89.500	-0.050	-0.160	0.980
2020/01/31 07:27:02.0	89.530	-0.020	-0.260	0.990
2020/01/31 07:27:02.1	89.560	0.010	-0.350	1.010
2020/01/31 07:27:02.2	89.590	0.050	-0.440	1.020
2020/01/31 07:27:02.3	89.620	0.080	-0.530	1.030
2020/01/31 07:27:02.4	89.650	0.120	-0.620	1.050
2020/01/31 07:27:02.5	89.680	0.160	-0.700	1.070
2020/01/31 07:27:02.6	89.710	0.190	-0.780	1.090
2020/01/31 07:27:02.7	89.740	0.230	-0.850	1.110
2020/01/31 07:27:02.8	89.760	0.270	-0.920	1.130
2020/01/31 07:27:02.9	89.780	0.300	-0.980	1.160
2020/01/31 07:27:03.0	89.800	0.340	-1.030	1.190
2020/01/31 07:27:03.1	89.820	0.370	-1.070	1.220
2020/01/31 07:27:03.2	89.830	0.400	-1.110	1.250
2020/01/31 07:27:03.3	89.850	0.430	-1.130	1.290
2020/01/31 07:27:03.4	89.850	0.460	-1.150	1.330
2020/01/31 07:27:03.5	89.860	0.480	-1.160	1.380
2020/01/31 07:27:03.6	89.860	0.500	-1.150	1.420
2020/01/31 07:27:03.7	89.850	0.520	-1.140	1.470
2020/01/31 07:27:03.8	89.850	0.530	-1.120	1.520
2020/01/31 07:27:03.9	89.840	0.540	-1.080	1.580
2020/01/31 07:27:04.0	89.830	0.540	-1.040	1.630
2020/01/31 07:27:04.1	89.820	0.540	-0.990	1.690
2020/01/31 07:27:04.2	89.800	0.540	-0.930	1.740
2020/01/31 07:27:04.3	89.780	0.530	-0.870	1.810
2020/01/31 07:27:04.4	89.770	0.510	-0.790	1.860
2020/01/31 07:27:04.5	89.750	0.500	-0.710	1.920
2020/01/31 07:27:04.6	89.730	0.480	-0.630	1.980
2020/01/31 07:27:04.7	89.710	0.450	-0.540	2.040
2020/01/31 07:27:04.8	89.690	0.420	-0.440	2.100
2020/01/31 07:27:04.9	89.660	0.390	-0.350	2.150
2020/01/31 07:27:05.0	89.640	0.350	-0.250	2.210
2020/01/31 07:27:05.1	89.620	0.310	-0.150	2.260
2020/01/31 07:27:05.2	89.600	0.270	-0.060	2.310
2020/01/31 07:27:05.3	89.590	0.230	0.040	2.360
2020/01/31 07:27:05.4	89.570	0.180	0.130	2.400
2020/01/31 07:27:05.5	89.550	0.130	0.220	2.450
2020/01/31 07:27:05.6	89.530	0.090	0.310	2.490
2020/01/31 07:27:05.7	89.520	0.040	0.390	2.520
2020/01/31 07:27:05.8	89.500	-0.010	0.460	2.550
2020/01/31 07:27:05.9	89.480	-0.070	0.530	2.580
2020/01/31 07:27:06.0	89.470	-0.120	0.600	2.600
2020/01/31 07:27:06.1	89.450	-0.160	0.650	2.620
2020/01/31 07:27:06.2	89.440	-0.210	0.700	2.640
2020/01/31 07:27:06.3	89.420	-0.260	0.740	2.650
2020/01/31 07:27:06.4	89.410	-0.300	0.780	2.660
2020/01/31 07:27:06.5	89.390	-0.350	0.800	2.660
2020/01/31 07:27:06.6	89.380	-0.390	0.820	2.650
2020/01/31 07:27:06.7	89.360	-0.420	0.830	2.640
2020/01/31 07:27:06.8	89.350	-0.460	0.830	2.630
2020/01/31 07:27:06.9	89.330	-0.490	0.820	2.610
2020/01/31 07:27:07.0	89.320	-0.520	0.800	2.590
2020/01/31 07:27:07.1	89.310	-0.550	0.780	2.560
2020/01/31 07:27:07.2	89.300	-0.570	0.750	2.530
2020/01/31 07:27:07.3	89.280	-0.590	0.720	2.490
2020/01/31 07:27:07.4	89.270	-0.600	0.680	2.450
2020/01/31 07:27:07.5	89.270	-0.610	0.630	2.400
2020/01/31 07:27:07.6	89.260	-0.620	0.580	2.350
2020/01/31 07:27:07.7	89.250	-0.630	0.520	2.290
2020/01/31 07:27:07.8	89.250	-0.630	0.470	2.230
2020/01/31 07:27:07.9	89.250	-0.630	0.410	2.170
2020/01/31 07:27:08.0	89.250	-0.620	0.340	2.100
2020/01/31 07:27:08.1	89.250	-0.610	0.280	2.030
2020/01/31 07:27:08.2	89.250	-0.600	0.210	1.960
2020/01/31 07:27:08.3	89.260	-0.590	0.150	1.880
2020/01/31 07:27:08.4	89.270	-0.580	0.080	1.800
2020/01/31 07:27:08.5	89.270	-0.560	0.020	1.720
2020/01/31 07:27:08.6	89.280	-0.540	-0.050	1.640
2020/01/31 07:27:08.7	89.290	-0.520	-0.110	1.560
2020/01/31 07:27:08.8	89.300	-0.500	-0.170	1.480
2020/01/31 07:27:08.9	89.310	-0.480	-0.230	1.400
2020/01/31 07:27:09.0	89.320	-0.460	-0.290	1.320
2020/01/31 07:27:09.1	89.340	-0.430	-0.340	1.230
2020/01/31 07:27:09.2	89.350	-0.410	-0.390	1.150
2020/01/31 07:27:09.3	89.360	-0.380	-0.440	1.070
2020/01/31 07:27:09.4	89.370	-0.360	-0.480	0.990
2020/01/31 07:27:09.5	89.380	-0.340	-0.520	0.910
2020/01/31 07:27:09.6	89.390	-0.310	-0.560	0.830
2020/01/31 07:27:09.7	89.400	-0.290	-0.590	0.750
2020/01/31 07:27:09.8	89.410	-0.270	-0.620	0.670
2020/01/31 07:27:09.9	89.420	-0.250	-0.650	0.600
2020/01/31 07:27:10.0	89.430	-0.230	-0.670	0.530
2020/01/31 07:27:10.1	89.430	-0.210	-0.690	0.450
2020/01/31 07:27:10.2	89.440	-0.190	-0.700	0.390
2020/01/31 07:27:10.3	89.440	-0.170	-0.710	0.320
2020/01/31 07:27:10.4	89.450	-0.160	-0.710	0.260
2020/01/31 07:27:10.5	89.450	-0.150	-0.720	0.200
2020/01/31 07:27:10.6	89.460	-0.130	-0.720	0.140
2020/01/31 07:27:10.7	89.460	-0.120	-0.710	0.090
2020/01/31 07:27:10.8	89.460	-0.110	-0.710	0.040
2020/01/31 07:27:10.9	89.460	-0.100	-0.690	-0.010
2020/01/31 07:27:11.0	89.460	-0.100	-0.680	-0.050
2020/01/31 07:27:11.1	89.460	-0.090	-0.670	-0.090
2020/01/31 07:27:11.2	89.450	-0.080	-0.650	-0.130
2020/01/31 07:27:11.3	89.450	-0.080	-0.630	-0.160
2020/01/31 07:27:11.4	89.440	-0.070	-0.610	-0.190
2020/01/31 07:27:11.5	89.430	-0.070	-0.590	-0.210
2020/01/31 07:27:11.6	89.430	-0.070	-0.560	-0.240
2020/01/31 07:27:11.7	89.420	-0.070	-0.530	-0.260
2020/01/31 07:27:11.8	89.410	-0.060	-0.510	-0.270
2020/01/31 07:27:11.9	89.400	-0.060	-0.480	-0.290
2020/01/31 07:27:12.0	89.390	-0.060	-0.450	-0.300
2020/01/31 07:27:12.1	89.380	-0.050	-0.420	-0.300
2020/01/31 07:27:12.2	89.360	-0.050	-0.390	-0.310
2020/01/31 07:27:12.3	89.350	-0.050	-0.370	-0.310
2020/01/31 07:27:12.4	89.340	-0.040	-0.340	-0.320
2020/01/31 07:27:12.5	89.330	-0.040	-0.310	-0.320
2020/01/31 07:27:12.6	89.320	-0.030	-0.290	-0.320
2020/01/31 07:27:12.7	89.310	-0.020	-0.270	-0.320
2020/01/31 07:27:12.8	89.300	-0.010	-0.240	-0.320
2020/01/31 07:27:12.9	89.290	0.000	-0.220	-0.320
2020/01/31 07:27:13.0	89.290	0.010	-0.210	-0.320
2020/01/31 07:27:13.1	89.280	0.030	-0.190	-0.320
2020/01/31 07:27:13.2	89.280	0.040	-0.180	-0.320
2020/01/31 07:27:13.3	89.270	0.060	-0.160	-0.310
2020/01/31 07:27:13.4	89.270	0.080	-0.160	-0.310
2020/01/31 07:27:13.5	89.270	0.100	-0.150	-0.300
2020/01/31 07:27:13.6	89.270	0.120	-0.150	-0.300
2020/01/31 07:27:13.7	89.270	0.140	-0.150	-0.290
2020/01/31 07:27:13.8	89.270	0.170	-0.150	-0.290
2020/01/31 07:27:13.9	89.270	0.190	-0.150	-0.280
2020/01/31 07:27:14.0	89.270	0.220	-0.150	-0.270
2020/01/31 07:27:14.1	89.280	0.240	-0.160	-0.260
2020/01/31 07:27:14.2	89.280	0.270	-0.170	-0.240
2020/01/31 07:27:14.3	89.270	0.300	-0.180	-0.220
2020/01/31 07:27:14.4	89.270	0.320	-0.190	-0.200
2020/01/31 07:27:14.5	89.270	0.350	-0.200	-0.170
2020/01/31 07:27:14.6	89.270	0.380	-0.210	-0.150
2020/01/31 07:27:14.7	89.270	0.400	-0.220	-0.120
2020/01/31 07:27:14.8	89.260	0.430	-0.220	-0.080
2020/01/31 07:27:14.9	89.260	0.450	-0.230	-0.040
2020/01/31 07:27:15.0	89.250	0.480	-0.240	-0.000
2020/01/31 07:27:15.1	89.240	0.500	-0.240	0.040
2020/01/31 07:27:15.2	89.230	0.520	-0.240	0.090
2020/01/31 07:27:15.3	89.220	0.540	-0.240	0.140
2020/01/31 07:27:15.4	89.210	0.550	-0.240	0.200
2020/01/31 07:27:15.5	89.200	0.570	-0.240	0.250
2020/01/31 07:27:15.6	89.180	0.580	-0.230	0.310
2020/01/31 07:27:15.7	89.160	0.590	-0.230	0.370
2020/01/31 07:27:15.8	89.150	0.600	-0.220	0.440
2020/01/31 07:27:15.9	89.130	0.600	-0.210	0.500
2020/01/31 07:27:16.0	89.110	0.600	-0.200	0.570
2020/01/31 07:27:16.1	89.100	0.600	-0.180	0.630
2020/01/31 07:27:16.2	89.080	0.600	-0.170	0.700
2020/01/31 07:27:16.3	89.070	0.590	-0.160	0.770
2020/01/31 07:27:16.4	89.050	0.580	-0.140	0.830
2020/01/31 07:27:16.5	89.040	0.570	-0.120	0.890
2020/01/31 07:27:16.6	89.030	0.560	-0.110	0.950
2020/01/31 07:27:16.7	89.020	0.540	-0.090	1.010
2020/01/31 07:27:16.8	89.010	0.520	-0.080	1.070
2020/01/31 07:27:16.9	89.000	0.500	-0.060	1.120
2020/01/31 07:27:17.0	89.000	0.480	-0.040	1.170
2020/01/31 07:27:17.1	89.000	0.460	-0.030	1.220
2020/01/31 07:27:17.2	89.000	0.430	-0.010	1.260
2020/01/31 07:27:17.3	89.000	0.410	0.000	1.300
2020/01/31 07:27:17.4	89.000	0.380	0.020	1.340
2020/01/31 07:27:17.5	89.010	0.350	0.030	1.380
2020/01/31 07:27:17.6	89.020	0.320	0.040	1.410
2020/01/31 07:27:17.7	89.030	0.290	0.050	1.440
2020/01/31 07:27:17.8	89.040	0.270	0.060	1.470
2020/01/31 07:27:17.9	89.060	0.240	0.070	1.490
2020/01/31 07:27:18.0	89.080	0.210	0.080	1.510
2020/01/31 07:27:18.1	89.090	0.180	0.090	1.530
2020/01/31 07:27:18.2	89.110	0.150	0.100	1.550
2020/01/31 07:27:18.3	89.140	0.120	0.100	1.570
2020/01/31 07:27:18.4	89.160	0.090	0.110	1.580
2020/01/31 07:27:18.5	89.190	0.070	0.110	1.590
2020/01/31 07:27:18.6	89.210	0.040	0.120	1.600
2020/01/31 07:27:18.7	89.240	0.020	0.120	1.620
2020/01/31 07:27:18.8	89.270	-0.010	0.130	1.630
2020/01/31 07:27:18.9	89.300	-0.030	0.140	1.640
2020/01/31 07:27:19.0	89.330	-0.050	0.140	1.650
2020/01/31 07:27:19.1	89.360	-0.070	0.150	1.660
2020/01/31 07:27:19.2	89.390	-0.090	0.150	1.680
2020/01/31 07:27:19.3	89.420	-0.110	0.150	1.690
2020/01/31 07:27:19.4	89.450	-0.130	0.160	1.710
2020/01/31 07:27:19.5	89.480	-0.140	0.160	1.720
2020/01/31 07:27:19.6	89.510	-0.160	0.160	1.740
2020/01/31 07:27:19.7	89.540	-0.170	0.160	1.760
2020/01/31 07:27:19.8	89.560	-0.190	0.170	1.790
2020/01/31 07:27:19.9	89.590	-0.200	0.170	1.810
2020/01/31 07:27:20.0	89.610	-0.210	0.170	1.840
2020/01/31 07:27:20.1	89.630	-0.220	0.160	1.870
2020/01/31 07:27:20.2	89.650	-0.240	0.160	1.900
2020/01/31 07:27:20.3	89.670	-0.250	0.160	1.930
2020/01/31 07:27:20.4	89.690	-0.260	0.150	1.970
2020/01/31 07:27:20.5	89.700	-0.270	0.140	2.000
2020/01/31 07:27:20.6	89.710	-0.280	0.130	2.040
2020/01/31 07:27:20.7	89.720	-0.280	0.120	2.080
2020/01/31 07:27:20.8	89.730	-0.290	0.110	2.120
2020/01/31 07:27:20.9	89.730	-0.300	0.100	2.160
2020/01/31 07:27:21.0	89.730	-0.310	0.090	2.200
2020/01/31 07:27:21.1	89.730	-0.320	0.070	2.240
2020/01/31 07:27:21.2	89.730	-0.330	0.050	2.280
2020/01/31 07:27:21.3	89.720	-0.340	0.030	2.320
2020/01/31 07:27:21.4	89.710	-0.350	0.010	2.360
2020/01/31 07:27:21.5	89.700	-0.360	-0.000	2.390
2020/01/31 07:27:21.6	89.690	-0.370	-0.020	2.430
2020/01/31 07:27:21.7	89.670	-0.380	-0.040	2.460
2020/01/31 07:27:21.8	89.660	-0.380	-0.060	2.490
2020/01/31 07:27:21.9	89.640	-0.390	-0.080	2.520
2020/01/31 07:27:22.0	89.620	-0.400	-0.100	2.540
2020/01/31 07:27:22.1	89.600	-0.410	-0.120	2.560
2020/01/31 07:27:22.2	89.580	-0.420	-0.140	2.580
2020/01/31 07:27:22.3	89.560	-0.430	-0.160	2.590
2020/01/31 07:27:22.4	89.540	-0.440	-0.180	2.600
2020/01/31 07:27:22.5	89.520	-0.450	-0.190	2.600
2020/01/31 07:27:22.6	89.500	-0.460	-0.210	2.600
2020/01/31 07:27:22.7	89.480	-0.470	-0.230	2.600
2020/01/31 07:27:22.8	89.460	-0.470	-0.240	2.590
2020/01/31 07:27:22.9	89.440	-0.480	-0.260	2.580
2020/01/31 07:27:23.0	89.420	-0.480	-0.270	2.560
2020/01/31 07:27:23.1	89.400	-0.490	-0.290	2.530
2020/01/31 07:27:23.2	89.380	-0.490	-0.300	2.510
2020/01/31 07:27:23.3	89.370	-0.490	-0.320	2.470
2020/01/31 07:27:23.4	89.360	-0.490	-0.330	2.440
2020/01/31 07:27:23.5	89.340	-0.490	-0.340	2.400
2020/01/31 07:27:23.6	89.330	-0.490	-0.350	2.350
2020/01/31 07:27:23.7	89.320	-0.480	-0.360	2.300
2020/01/31 07:27:23.8	89.310	-0.470	-0.370	2.250
2020/01/31 07:27:23.9	89.300	-0.470	-0.390	2.190
2020/01/31 07:27:24.0	89.290	-0.460	-0.400	2.130
2020/01/31 07:27:24.1	89.290	-0.440	-0.410	2.070
2020/01/31 07:27:24.2	89.280	-0.430	-0.420	2.000
2020/01/31 07:27:24.3	89.280	-0.420	-0.420	1.930
2020/01/31 07:27:24.4	89.280	-0.400	-0.430	1.860
2020/01/31 07:27:24.5	89.280	-0.380	-0.440	1.780
2020/01/31 07:27:24.6	89.280	-0.360	-0.450	1.700
2020/01/31 07:27:24.7	89.290	-0.340	-0.450	1.610
2020/01/31 07:27:24.8	89.290	-0.320	-0.460	1.530
2020/01/31 07:27:24.9	89.290	-0.300	-0.470	1.440
2020/01/31 07:27:25.0	89.300	-0.270	-0.470	1.350
2020/01/31 07:27:25.1	89.310	-0.250	-0.470	1.260
2020/01/31 07:27:25.2	89.310	-0.220	-0.470	1.160
2020/01/31 07:27:25.3	89.320	-0.190	-0.470	1.070
2020/01/31 07:27:25.4	89.330	-0.160	-0.470	0.970
2020/01/31 07:27:25.5	89.340	-0.140	-0.460	0.880
2020/01/31 07:27:25.6	89.350	-0.110	-0.460	0.780
2020/01/31 07:27:25.7	89.360	-0.080	-0.450	0.680
2020/01/31 07:27:25.8	89.370	-0.050	-0.440	0.590
2020/01/31 07:27:25.9	89.380	-0.020	-0.420	0.490
2020/01/31 07:27:26.0	89.390	0.010	-0.410	0.390
2020/01/31 07:27:26.1	89.400	0.030	-0.390	0.300
2020/01/31 07:27:26.2	89.410	0.060	-0.380	0.210
2020/01/31 07:27:26.3	89.420	0.090	-0.360	0.120
2020/01/31 07:27:26.4	89.430	0.120	-0.340	0.030
2020/01/31 07:27:26.5	89.430	0.150	-0.320	-0.060
2020/01/31 07:27:26.6	89.440	0.170	-0.290	-0.140
2020/01/31 07:27:26.7	89.440	0.200	-0.270	-0.220
2020/01/31 07:27:26.8	89.450	0.230	-0.250	-0.300
2020/01/31 07:27:26.9	89.450	0.250	-0.230	-0.370
2020/01/31 07:27:27.0	89.450	0.280	-0.210	-0.440
2020/01/31 07:27:27.1	89.450	0.300	-0.200	-0.510
2020/01/31 07:27:27.2	89.450	0.320	-0.180	-0.570
2020/01/31 07:27:27.3	89.450	0.350	-0.170	-0.630
2020/01/31 07:27:27.4	89.440	0.370	-0.150	-0.680
2020/01/31 07:27:27.5	89.440	0.390	-0.140	-0.730
2020/01/31 07:27:27.6	89.430	0.410	-0.130	-0.780
2020/01/31 07:27:27.7	89.430	0.430	-0.120	-0.820
2020/01/31 07:27:27.8	89.420	0.450	-0.120	-0.850
2020/01/31 07:27:27.9	89.420	0.470	-0.120	-0.890
2020/01/31 07:27:28.0	89.410	0.490	-0.120	-0.920
2020/01/31 07:27:28.1	89.400	0.500	-0.120	-0.940
2020/01/31 07:27:28.2	89.390	0.520	-0.130	-0.960
2020/01/31 07:27:28.3	89.390	0.540	-0.140	-0.970
2020/01/31 07:27:28.4	89.380	0.550	-0.150	-0.990
2020/01/31 07:27:28.5	89.370	0.570	-0.170	-0.990
2020/01/31 07:27:28.6	89.360	0.580	-0.190	-0.990
2020/01/31 07:27:28.7	89.360	0.600	-0.200	-0.990
2020/01/31 07:27:28.8	89.350	0.610	-0.220	-0.980
2020/01/31 07:27:28.9	89.340	0.620	-0.240	-0.970
2020/01/31 07:27:29.0	89.330	0.630	-0.260	-0.960
2020/01/31 07:27:29.1	89.330	0.640	-0.290	-0.940
2020/01/31 07:27:29.2	89.320	0.650	-0.310	-0.910
2020/01/31 07:27:29.3	89.320	0.650	-0.330	-0.890
2020/01/31 07:27:29.4	89.310	0.660	-0.350	-0.860
2020/01/31 07:27:29.5	89.310	0.660	-0.370	-0.820
2020/01/31 07:27:29.6	89.300	0.670	-0.390	-0.780
2020/01/31 07:27:29.7	89.300	0.670	-0.400	-0.740
2020/01/31 07:27:29.8	89.290	0.670	-0.410	-0.690
2020/01/31 07:27:29.9	89.290	0.660	-0.420	-0.640
2020/01/31 07:27:30.0	89.290	0.660	-0.420	-0.590
2020/01/31 07:27:30.1	89.280	0.650	-0.430	-0.530
2020/01/31 07:27:30.2	89.280	0.640	-0.420	-0.470
2020/01/31 07:27:30.3	89.270	0.630	-0.410	-0.400
2020/01/31 07:27:30.4	89.270	0.610	-0.400	-0.330
2020/01/31 07:27:30.5	89.270	0.600	-0.380	-0.260
2020/01/31 07:27:30.6	89.270	0.580	-0.360	-0.190
2020/01/31 07:27:30.7	89.270	0.550	-0.330	-0.120
2020/01/31 07:27:30.8	89.270	0.530	-0.300	-0.040
2020/01/31 07:27:30.9	89.270	0.500	-0.270	0.040
2020/01/31 07:27:31.0	89.270	0.470	-0.230	0.120
2020/01/31 07:27:31.1	89.280	0.430	-0.190	0.210
2020/01/31 07:27:31.2	89.280	0.400	-0.140	0.290
2020/01/31 07:27:31.3	89.280	0.360	-0.090	0.390
2020/01/31 07:27:31.4	89.290	0.320	-0.040	0.480
2020/01/31 07:27:31.5	89.290	0.270	0.010	0.570
2020/01/31 07:27:31.6	89.300	0.230	0.070	0.660
2020/01/31 07:27:31.7	89.310	0.180	0.120	0.750
2020/01/31 07:27:31.8	89.310	0.130	0.170	0.840
2020/01/31 07:27:31.9	89.320	0.080	0.230	0.940
2020/01/31 07:27:32.0	89.330	0.030	0.280	1.030
2020/01/31 07:27:32.1	89.340	-0.020	0.320	1.120
2020/01/31 07:27:32.2	89.350	-0.070	0.370	1.210
2020/01/31 07:27:32.3	89.360	-0.120	0.410	1.310
2020/01/31 07:27:32.4	89.370	-0.170	0.450	1.400
2020/01/31 07:27:32.5	89.390	-0.220	0.480	1.490
2020/01/31 07:27:32.6	89.400	-0.270	0.510	1.570
2020/01/31 07:27:32.7	89.410	-0.320	0.530	1.660
2020/01/31 07:27:32.8	89.420	-0.360	0.550	1.740
2020/01/31 07:27:32.9	89.430	-0.410	0.560	1.820
2020/01/31 07:27:33.0	89.440	-0.450	0.570	1.900
2020/01/31 07:27:33.1	89.450	-0.490	0.570	1.970
2020/01/31 07:27:33.2	89.460	-0.520	0.570	2.050
2020/01/31 07:27:33.3	89.470	-0.550	0.560	2.120
2020/01/31 07:27:33.4	89.480	-0.580	0.540	2.180
2020/01/31 07:27:33.5	89.480	-0.610	0.520	2.250
2020/01/31 07:27:33.6	89.490	-0.630	0.500	2.310
2020/01/31 07:27:33.7	89.500	-0.650	0.470	2.370
2020/01/31 07:27:33.8	89.510	-0.660	0.440	2.420
2020/01/31 07:27:33.9	89.520	-0.670	0.400	2.470
2020/01/31 07:27:34.0	89.520	-0.680	0.360	2.520
2020/01/31 07:27:34.1	89.530	-0.680	0.320	2.560
2020/01/31 07:27:34.2	89.540	-0.680	0.280	2.610
2020/01/31 07:27:34.3	89.550	-0.680	0.230	2.650
2020/01/31 07:27:34.4	89.550	-0.670	0.180	2.690
2020/01/31 07:27:34.5	89.550	-0.660	0.140	2.720
2020/01/31 07:27:34.6	89.550	-0.650	0.090	2.760
2020/01/31 07:27:34.7	89.550	-0.630	0.050	2.790
2020/01/31 07:27:34.8	89.550	-0.610	-0.000	2.830
2020/01/31 07:27:34.9	89.550	-0.590	-0.040	2.860
2020/01/31 07:27:35.0	89.540	-0.570	-0.090	2.890
2020/01/31 07:27:35.1	89.530	-0.540	-0.130	2.930
2020/01/31 07:27:35.2	89.530	-0.510	-0.170	2.960
2020/01/31 07:27:35.3	89.520	-0.480	-0.220	2.980
2020/01/31 07:27:35.4	89.500	-0.450	-0.250	3.010
2020/01/31 07:27:35.5	89.490	-0.420	-0.290	3.040
2020/01/31 07:27:35.6	89.470	-0.380	-0.320	3.060
2020/01/31 07:27:35.7	89.460	-0.350	-0.360	3.090
2020/01/31 07:27:35.8	89.440	-0.320	-0.390	3.110
2020/01/31 07:27:35.9	89.420	-0.280	-0.420	3.130
2020/01/31 07:27:36.0	89.400	-0.250	-0.450	3.140
2020/01/31 07:27:36.1	89.380	-0.210	-0.470	3.150
2020/01/31 07:27:36.2	89.360	-0.180	-0.500	3.160
2020/01/31 07:27:36.3	89.340	-0.150	-0.520	3.160
2020/01/31 07:27:36.4	89.320	-0.110	-0.540	3.160
2020/01/31 07:27:36.5	89.300	-0.080	-0.560	3.160
2020/01/31 07:27:36.6	89.290	-0.050	-0.580	3.150
2020/01/31 07:27:36.7	89.270	-0.020	-0.610	3.130
2020/01/31 07:27:36.8	89.260	0.010	-0.620	3.110
2020/01/31 07:27:36.9	89.240	0.030	-0.640	3.090
2020/01/31 07:27:37.0	89.230	0.060	-0.660	3.060
2020/01/31 07:27:37.1	89.220	0.080	-0.680	3.020
2020/01/31 07:27:37.2	89.210	0.100	-0.690	2.980
2020/01/31 07:27:37.3	89.210	0.120	-0.710	2.930
2020/01/31 07:27:37.4	89.200	0.140	-0.720	2.870
2020/01/31 07:27:37.5	89.200	0.160	-0.730	2.810
2020/01/31 07:27:37.6	89.200	0.170	-0.740	2.750
2020/01/31 07:27:37.7	89.200	0.180	-0.750	2.690
2020/01/31 07:27:37.8	89.210	0.190	-0.750	2.610
2020/01/31 07:27:37.9	89.210	0.200	-0.750	2.540
2020/01/31 07:27:38.0	89.220	0.200	-0.750	2.460
2020/01/31 07:27:38.1	89.230	0.200	-0.740	2.380
2020/01/31 07:27:38.2	89.230	0.200	-0.730	2.290
2020/01/31 07:27:38.3	89.250	0.200	-0.720	2.200
2020/01/31 07:27:38.4	89.260	0.190	-0.700	2.110
2020/01/31 07:27:38.5	89.270	0.190	-0.680	2.020
2020/01/31 07:27:38.6	89.280	0.180	-0.660	1.920
2020/01/31 07:27:38.7	89.300	0.160	-0.630	1.820
2020/01/31 07:27:38.8	89.310	0.150	-0.590	1.720
2020/01/31 07:27:38.9	89.330	0.140	-0.560	1.620
2020/01/31 07:27:39.0	89.350	0.120	-0.520	1.520
2020/01/31 07:27:39.1	89.360	0.110	-0.480	1.410
2020/01/31 07:27:39.2	89.380	0.090	-0.430	1.300
2020/01/31 07:27:39.3	89.390	0.070	-0.380	1.190
2020/01/31 07:27:39.4	89.410	0.050	-0.330	1.080
2020/01/31 07:27:39.5	89.420	0.030	-0.280	0.970
2020/01/31 07:27:39.6	89.430	0.010	-0.230	0.860
2020/01/31 07:27:39.7	89.440	-0.000	-0.170	0.760
2020/01/31 07:27:39.8	89.450	-0.020	-0.120	0.650
2020/01/31 07:27:39.9	89.460	-0.040	-0.060	0.540
2020/01/31 07:27:40.0	89.470	-0.060	-0.010	0.440
2020/01/31 07:27:40.1	89.480	-0.070	0.040	0.330
2020/01/31 07:27:40.2	89.490	-0.090	0.100	0.230
2020/01/31 07:27:40.3	89.490	-0.100	0.140	0.130
2020/01/31 07:27:40.4	89.490	-0.110	0.190	0.040
2020/01/31 07:27:40.5	89.500	-0.120	0.240	-0.050
2020/01/31 07:27:40.6	89.500	-0.130	0.280	-0.140
2020/01/31 07:27:40.7	89.500	-0.130	0.320	-0.230
2020/01/31 07:27:40.8	89.490	-0.140	0.350	-0.310
2020/01/31 07:27:40.9	89.490	-0.140	0.390	-0.390
2020/01/31 07:27:41.0	89.490	-0.140	0.420	-0.460
2020/01/31 07:27:41.1	89.480	-0.140	0.440	-0.530
2020/01/31 07:27:41.2	89.480	-0.140	0.460	-0.600
2020/01/31 07:27:41.3	89.470	-0.140	0.470	-0.650
2020/01/31 07:27:41.4	89.460	-0.130	0.480	-0.710
2020/01/31 07:27:41.5	89.460	-0.120	0.490	-0.760
2020/01/31 07:27:41.6	89.450	-0.120	0.490	-0.800
2020/01/31 07:27:41.7	89.440	-0.110	0.480	-0.830
2020/01/31 07:27:41.8	89.420	-0.100	0.470	-0.860
2020/01/31 07:27:41.9	89.410	-0.090	0.450	-0.880
2020/01/31 07:27:42.0	89.400	-0.070	0.430	-0.900
2020/01/31 07:27:42.1	89.380	-0.060	0.410	-0.910
2020/01/31 07:27:42.2	89.370	-0.050	0.380	-0.910
2020/01/31 07:27:42.3	89.350	-0.030	0.340	-0.900
2020/01/31 07:27:42.4	89.330	-0.020	0.300	-0.890
2020/01/31 07:27:42.5	89.310	-0.000	0.260	-0.880
2020/01/31 07:27:42.6	89.290	0.010	0.210	-0.860
2020/01/31 07:27:42.7	89.270	0.030	0.160	-0.830
2020/01/31 07:27:42.8	89.250	0.040	0.110	-0.800
2020/01/31 07:27:42.9	89.230	0.060	0.060	-0.770
2020/01/31 07:27:43.0	89.210	0.070	0.010	-0.730
2020/01/31 07:27:43.1	89.190	0.090	-0.050	-0.690
2020/01/31 07:27:43.2	89.170	0.100	-0.110	-0.650
2020/01/31 07:27:43.3	89.150	0.120	-0.160	-0.600
2020/01/31 07:27:43.4	89.130	0.130	-0.220	-0.560
2020/01/31 07:27:43.5	89.110	0.140	-0.280	-0.510
2020/01/31 07:27:43.6	89.090	0.160	-0.330	-0.460
2020/01/31 07:27:43.7	89.080	0.170	-0.380	-0.410
2020/01/31 07:27:43.8	89.060	0.180	-0.440	-0.360
2020/01/31 07:27:43.9	89.040	0.190	-0.490	-0.310
2020/01/31 07:27:44.0	89.030	0.200	-0.540	-0.270
2020/01/31 07:27:44.1	89.020	0.200	-0.580	-0.220
2020/01/31 07:27:44.2	89.010	0.210	-0.630	-0.170
2020/01/31 07:27:44.3	89.000	0.220	-0.670	-0.130
2020/01/31 07:27:44.4	88.990	0.220	-0.710	-0.080
2020/01/31 07:27:44.5	88.980	0.230	-0.740	-0.040
2020/01/31 07:27:44.6	88.980	0.230	-0.770	0.000
2020/01/31 07:27:44.7	88.980	0.240	-0.800	0.040
2020/01/31 07:27:44.8	88.980	0.240	-0.820	0.080
2020/01/31 07:27:44.9	88.980	0.240	-0.840	0.130
2020/01/31 07:27:45.0	88.980	0.250	-0.850	0.170
2020/01/31 07:27:45.1	88.980	0.250	-0.860	0.210
2020/01/31 07:27:45.2	88.990	0.250	-0.860	0.250
2020/01/31 07:27:45.3	88.990	0.250	-0.860	0.290
2020/01/31 07:27:45.4	89.000	0.250	-0.850	0.330
2020/01/31 07:27:45.5	89.010	0.250	-0.840	0.370
2020/01/31 07:27:45.6	89.020	0.250	-0.820	0.420
2020/01/31 07:27:45.7	89.030	0.250	-0.800	0.460
2020/01/31 07:27:45.8	89.040	0.250	-0.770	0.510
2020/01/31 07:27:45.9	89.050	0.250	-0.730	0.550
2020/01/31 07:27:46.0	89.070	0.250	-0.700	0.600
2020/01/31 07:27:46.1	89.080	0.250	-0.650	0.650
2020/01/31 07:27:46.2	89.100	0.250	-0.610	0.700
2020/01/31 07:27:46.3	89.110	0.250	-0.550	0.750
2020/01/31 07:27:46.4	89.130	0.250	-0.500	0.800
2020/01/31 07:27:46.5	89.140	0.240	-0.440	0.850
2020/01/31 07:27:46.6	89.160	0.240	-0.380	0.910
2020/01/31 07:27:46.7	89.170	0.240	-0.310	0.960
2020/01/31 07:27:46.8	89.190	0.240	-0.250	1.020
2020/01/31 07:27:46.9	89.210	0.230	-0.180	1.080
2020/01/31 07:27:47.0	89.220	0.230	-0.110	1.140
2020/01/31 07:27:47.1	89.240	0.220	-0.050	1.210
2020/01/31 07:27:47.2	89.250	0.220	0.020	1.270
2020/01/31 07:27:47.3	89.270	0.210	0.090	1.340
2020/01/31 07:27:47.4	89.280	0.200	0.150	1.410
2020/01/31 07:27:47.5	89.300	0.200	0.210	1.480
2020/01/31 07:27:47.6	89.310	0.190	0.270	1.550
2020/01/31 07:27:47.7	89.320	0.180	0.330	1.620
2020/01/31 07:27:47.8	89.340	0.170	0.380	1.690
2020/01/31 07:27:47.9	89.350	0.160	0.420	1.760
2020/01/31 07:27:48.0	89.360	0.150	0.460	1.840
2020/01/31 07:27:48.1	89.370	0.140	0.500	1.910
2020/01/31 07:27:48.2	89.380	0.130	0.520	1.980
2020/01/31 07:27:48.3	89.390	0.120	0.540	2.060
2020/01/31 07:27:48.4	89.390	0.110	0.560	2.130
2020/01/31 07:27:48.5	89.400	0.090	0.570	2.200
2020/01/31 07:27:48.6	89.400	0.080	0.570	2.270
2020/01/31 07:27:48.7	89.410	0.070	0.570	2.340
2020/01/31 07:27:48.8	89.410	0.050	0.560	2.400
2020/01/31 07:27:48.9	89.420	0.040	0.540	2.460
2020/01/31 07:27:49.0	89.420	0.020	0.520	2.520
2020/01/31 07:27:49.1	89.420	0.010	0.490	2.580
2020/01/31 07:27:49.2	89.430	-0.010	0.460	2.630
2020/01/31 07:27:49.3	89.430	-0.020	0.430	2.680
2020/01/31 07:27:49.4	89.430	-0.040	0.390	2.730
2020/01/31 07:27:49.5	89.440	-0.060	0.340	2.770
2020/01/31 07:27:49.6	89.440	-0.070	0.300	2.810
2020/01/31 07:27:49.7	89.440	-0.090	0.250	2.840
2020/01/31 07:27:49.8	89.440	-0.110	0.200	2.870
2020/01/31 07:27:49.9	89.450	-0.130	0.150	2.900
2020/01/31 07:27:50.0	89.450	-0.140	0.100	2.920
2020/01/31 07:27:50.1	89.450	-0.160	0.050	2.930
2020/01/31 07:27:50.2	89.460	-0.180	0.010	2.950
2020/01/31 07:27:50.3	89.460	-0.200	-0.040	2.950
2020/01/31 07:27:50.4	89.460	-0.220	-0.090	2.960
2020/01/31 07:27:50.5	89.460	-0.240	-0.130	2.960
2020/01/31 07:27:50.6	89.470	-0.250	-0.170	2.960
2020/01/31 07:27:50.7	89.470	-0.270	-0.210	2.950
2020/01/31 07:27:50.8	89.470	-0.290	-0.250	2.940
2020/01/31 07:27:50.9	89.470	-0.310	-0.280	2.930
2020/01/31 07:27:51.0	89.470	-0.320	-0.310	2.920
2020/01/31 07:27:51.1	89.470	-0.340	-0.340	2.900
2020/01/31 07:27:51.2	89.470	-0.350	-0.370	2.880
2020/01/31 07:27:51.3	89.470	-0.370	-0.390	2.860
2020/01/31 07:27:51.4	89.460	-0.380	-0.410	2.830
2020/01/31 07:27:51.5	89.460	-0.390	-0.430	2.810
2020/01/31 07:27:51.6	89.450	-0.400	-0.440	2.780
2020/01/31 07:27:51.7	89.440	-0.410	-0.450	2.760
2020/01/31 07:27:51.8	89.430	-0.420	-0.460	2.730
2020/01/31 07:27:51.9	89.420	-0.430	-0.460	2.700
2020/01/31 07:27:52.0	89.410	-0.440	-0.470	2.670
2020/01/31 07:27:52.1	89.400	-0.440	-0.470	2.640
2020/01/31 07:27:52.2	89.390	-0.440	-0.460	2.610
2020/01/31 07:27:52.3	89.370	-0.450	-0.460	2.580
2020/01/31 07:27:52.4	89.360	-0.450	-0.450	2.540
2020/01/31 07:27:52.5	89.350	-0.440	-0.440	2.500
2020/01/31 07:27:52.6	89.330	-0.440	-0.430	2.470
2020/01/31 07:27:52.7	89.320	-0.440	-0.420	2.430
2020/01/31 07:27:52.8	89.300	-0.430	-0.410	2.380
2020/01/31 07:27:52.9	89.290	-0.420	-0.390	2.340
2020/01/31 07:27:53.0	89.280	-0.420	-0.380	2.290
2020/01/31 07:27:53.1	89.260	-0.410	-0.360	2.230
2020/01/31 07:27:53.2	89.250	-0.400	-0.350	2.180
2020/01/31 07:27:53.3	89.240	-0.380	-0.340	2.120
2020/01/31 07:27:53.4	89.240	-0.370	-0.320	2.060
2020/01/31 07:27:53.5	89.230	-0.360	-0.310	1.990
2020/01/31 07:27:53.6	89.220	-0.340	-0.290	1.920
2020/01/31 07:27:53.7	89.220	-0.330	-0.280	1.850
2020/01/31 07:27:53.8	89.220	-0.310	-0.270	1.780
2020/01/31 07:27:53.9	89.210	-0.290	-0.250	1.700
2020/01/31 07:27:54.0	89.220	-0.270	-0.240	1.620
2020/01/31 07:27:54.1	89.220	-0.260	-0.230	1.530
2020/01/31 07:27:54.2	89.220	-0.240	-0.220	1.450
2020/01/31 07:27:54.3	89.230	-0.220	-0.210	1.360
2020/01/31 07:27:54.4	89.230	-0.200	-0.200	1.270
2020/01/31 07:27:54.5	89.240	-0.180	-0.190	1.180
2020/01/31 07:27:54.6	89.250	-0.160	-0.180	1.090
2020/01/31 07:27:54.7	89.250	-0.140	-0.170	0.990
2020/01/31 07:27:54.8	89.260	-0.130	-0.170	0.890
2020/01/31 07:27:54.9	89.270	-0.110	-0.160	0.800
2020/01/31 07:27:55.0	89.280	-0.090	-0.150	0.700
2020/01/31 07:27:55.1	89.290	-0.070	-0.150	0.600
2020/01/31 07:27:55.2	89.300	-0.050	-0.140	0.500
2020/01/31 07:27:55.3	89.320	-0.040	-0.140	0.410
2020/01/31 07:27:55.4	89.330	-0.020	-0.140	0.310
2020/01/31 07:27:55.5	89.340	-0.000	-0.130	0.210
2020/01/31 07:27:55.6	89.350	0.010	-0.130	0.120
2020/01/31 07:27:55.7	89.360	0.030	-0.130	0.020
2020/01/31 07:27:55.8	89.370	0.040	-0.130	-0.070
2020/01/31 07:27:55.9	89.380	0.060	-0.130	-0.160
2020/01/31 07:27:56.0	89.390	0.070	-0.130	-0.250
2020/01/31 07:27:56.1	89.390	0.090	-0.140	-0.340
2020/01/31 07:27:56.2	89.400	0.100	-0.140	-0.420
2020/01/31 07:27:56.3	89.400	0.110	-0.140	-0.500
2020/01/31 07:27:56.4	89.400	0.130	-0.150	-0.580
2020/01/31 07:27:56.5	89.400	0.140	-0.160	-0.650
2020/01/31 07:27:56.6	89.400	0.150	-0.170	-0.720
2020/01/31 07:27:56.7	89.400	0.160	-0.180	-0.790
2020/01/31 07:27:56.8	89.400	0.170	-0.190	-0.850
2020/01/31 07:27:56.9	89.390	0.190	-0.200	-0.910
2020/01/31 07:27:57.0	89.380	0.200	-0.210	-0.960
2020/01/31 07:27:57.1	89.380	0.210	-0.220	-1.010
2020/01/31 07:27:57.2	89.370	0.220	-0.230	-1.050
2020/01/31 07:27:57.3	89.350	0.230	-0.250	-1.090
2020/01/31 07:27:57.4	89.340	0.240	-0.260	-1.130
2020/01/31 07:27:57.5	89.330	0.250	-0.270	-1.160
2020/01/31 07:27:57.6	89.310	0.250	-0.280	-1.180
2020/01/31 07:27:57.7	89.290	0.260	-0.290	-1.210
2020/01/31 07:27:57.8	89.280	0.270	-0.300	-1.220
2020/01/31 07:27:57.9	89.260	0.280	-0.300	-1.230
2020/01/31 07:27:58.0	89.250	0.280	-0.310	-1.240
2020/01/31 07:27:58.1	89.230	0.290	-0.310	-1.240
2020/01/31 07:27:58.2	89.210	0.290	-0.310	-1.230
2020/01/31 07:27:58.3	89.190	0.290	-0.310	-1.230
2020/01/31 07:27:58.4	89.180	0.290	-0.310	-1.210
2020/01/31 07:27:58.5	89.160	0.300	-0.300	-1.200
2020/01/31 07:27:58.6	89.150	0.300	-0.300	-1.180
2020/01/31 07:27:58.7	89.140	0.300	-0.290	-1.150
2020/01/31 07:27:58.8	89.130	0.290	-0.280	-1.120
2020/01/31 07:27:58.9	89.120	0.290	-0.270	-1.090
2020/01/31 07:27:59.0	89.110	0.290	-0.250	-1.050
2020/01/31 07:27:59.1	89.110	0.290	-0.240	-1.010
2020/01/31 07:27:59.2	89.110	0.280	-0.220	-0.970
2020/01/31 07:27:59.3	89.110	0.280	-0.200	-0.920
2020/01/31 07:27:59.4	89.110	0.270	-0.190	-0.870
2020/01/31 07:27:59.5	89.120	0.270	-0.170	-0.820
2020/01/31 07:27:59.6	89.120	0.260	-0.150	-0.760
2020/01/31 07:27:59.7	89.130	0.250	-0.140	-0.700
2020/01/31 07:27:59.8	89.140	0.250	-0.120	-0.650
2020/01/31 07:27:59.9	89.160	0.240	-0.100	-0.580
2020/01/31 07:28:00.0	89.170	0.230	-0.090	-0.520
2020/01/31 07:28:00.1	89.190	0.230	-0.070	-0.450
2020/01/31 07:28:00.2	89.210	0.220	-0.060	-0.380
2020/01/31 07:28:00.3	89.230	0.210	-0.050	-0.310
2020/01/31 07:28:00.4	89.250	0.200	-0.040	-0.240
2020/01/31 07:28:00.5	89.270	0.200	-0.030	-0.160
2020/01/31 07:28:00.6	89.290	0.190	-0.030	-0.080
2020/01/31 07:28:00.7	89.310	0.180	-0.020	0.000
2020/01/31 07:28:00.8	89.340	0.170	-0.010	0.080
2020/01/31 07:28:00.9	89.360	0.160	-0.010	0.170
2020/01/31 07:28:01.0	89.380	0.160	-0.010	0.250
2020/01/31 07:28:01.1	89.400	0.150	-0.000	0.340
2020/01/31 07:28:01.2	89.420	0.140	-0.000	0.430
2020/01/31 07:28:01.3	89.450	0.130	-0.000	0.530
2020/01/31 07:28:01.4	89.470	0.130	-0.000	0.620
2020/01/31 07:28:01.5	89.480	0.120	-0.000	0.720
2020/01/31 07:28:01.6	89.500	0.110	-0.010	0.810
2020/01/31 07:28:01.7	89.520	0.110	-0.010	0.910
2020/01/31 07:28:01.8	89.530	0.100	-0.010	1.010
2020/01/31 07:28:01.9	89.550	0.090	-0.010	1.100
2020/01/31 07:28:02.0	89.560	0.090	-0.020	1.200
2020/01/31 07:28:02.1	89.570	0.080	-0.020	1.310
2020/01/31 07:28:02.2	89.570	0.070	-0.020	1.410
2020/01/31 07:28:02.3	89.580	0.070	-0.030	1.510
2020/01/31 07:28:02.4	89.580	0.060	-0.030	1.610
2020/01/31 07:28:02.5	89.580	0.050	-0.030	1.720
2020/01/31 07:28:02.6	89.580	0.050	-0.030	1.820
2020/01/31 07:28:02.7	89.580	0.040	-0.030	1.930
2020/01/31 07:28:02.8	89.570	0.030	-0.030	2.040
2020/01/31 07:28:02.9	89.570	0.030	-0.030	2.140
2020/01/31 07:28:03.0	89.560	0.020	-0.030	2.250
2020/01/31 07:28:03.1	89.550	0.010	-0.030	2.350
2020/01/31 07:28:03.2	89.540	0.000	-0.030	2.450
2020/01/31 07:28:03.3	89.530	-0.000	-0.030	2.560
2020/01/31 07:28:03.4	89.520	-0.010	-0.020	2.660
2020/01/31 07:28:03.5	89.500	-0.020	-0.020	2.750
2020/01/31 07:28:03.6	89.490	-0.030	-0.020	2.850
2020/01/31 07:28:03.7	89.470	-0.040	-0.010	2.940
2020/01/31 07:28:03.8	89.460	-0.050	-0.010	3.020
2020/01/31 07:28:03.9	89.440	-0.070	-0.000	3.100
2020/01/31 07:28:04.0	89.420	-0.080	0.000	3.180
2020/01/31 07:28:04.1	89.410	-0.090	0.010	3.260
2020/01/31 07:28:04.2	89.390	-0.110	0.010	3.330
2020/01/31 07:28:04.3	89.380	-0.120	0.020	3.390
2020/01/31 07:28:04.4	89.360	-0.130	0.020	3.450
2020/01/31 07:28:04.5	89.340	-0.150	0.020	3.510
2020/01/31 07:28:04.6	89.330	-0.170	0.030	3.560
2020/01/31 07:28:04.7	89.310	-0.180	0.030	3.600
2020/01/31 07:28:04.8	89.290	-0.200	0.030	3.640
2020/01/31 07:28:04.9	89.270	-0.210	0.030	3.680
2020/01/31 07:28:05.0	89.250	-0.230	0.020	3.710
2020/01/31 07:28:05.1	89.230	-0.240	0.020	3.730
2020/01/31 07:28:05.2	89.220	-0.260	0.010	3.740
2020/01/31 07:28:05.3	89.200	-0.270	-0.000	3.750
2020/01/31 07:28:05.4	89.180	-0.280	-0.010	3.760
2020/01/31 07:28:05.5	89.160	-0.290	-0.030	3.750
2020/01/31 07:28:05.6	89.140	-0.300	-0.040	3.740
2020/01/31 07:28:05.7	89.120	-0.310	-0.060	3.730
2020/01/31 07:28:05.8	89.100	-0.310	-0.090	3.700
2020/01/31 07:28:05.9	89.090	-0.320	-0.110	3.670
2020/01/31 07:28:06.0	89.070	-0.320	-0.140	3.630
2020/01/31 07:28:06.1	89.060	-0.320	-0.170	3.590
2020/01/31 07:28:06.2	89.050	-0.310	-0.200	3.540
2020/01/31 07:28:06.3	89.040	-0.310	-0.240	3.470
2020/01/31 07:28:06.4	89.030	-0.300	-0.270	3.400
2020/01/31 07:28:06.5	89.020	-0.290	-0.310	3.330
2020/01/31 07:28:06.6	89.020	-0.270	-0.350	3.250
2020/01/31 07:28:06.7	89.020	-0.250	-0.390	3.160
2020/01/31 07:28:06.8	89.020	-0.230	-0.440	3.060
2020/01/31 07:28:06.9	89.020	-0.210	-0.480	2.960
2020/01/31 07:28:07.0	89.030	-0.190	-0.520	2.860
2020/01/31 07:28:07.1	89.040	-0.160	-0.570	2.750
2020/01/31 07:28:07.2	89.050	-0.130	-0.610	2.630
2020/01/31 07:28:07.3	89.070	-0.100	-0.650	2.500
2020/01/31 07:28:07.4	89.080	-0.070	-0.690	2.380
2020/01/31 07:28:07.5	89.100	-0.040	-0.730	2.250
2020/01/31 07:28:07.6	89.120	-0.000	-0.760	2.120
2020/01/31 07:28:07.7	89.150	0.030	-0.790	1.990
2020/01/31 07:28:07.8	89.170	0.070	-0.820	1.850
2020/01/31 07:28:07.9	89.200	0.100	-0.850	1.720
2020/01/31 07:28:08.0	89.220	0.130	-0.870	1.580
2020/01/31 07:28:08.1	89.250	0.170	-0.880	1.450
2020/01/31 07:28:08.2	89.280	0.200	-0.890	1.310
2020/01/31 07:28:08.3	89.300	0.230	-0.890	1.180
2020/01/31 07:28:08.4	89.330	0.260	-0.890	1.050
2020/01/31 07:28:08.5	89.360	0.290	-0.880	0.920
2020/01/31 07:28:08.6	89.380	0.310	-0.860	0.790
2020/01/31 07:28:08.7	89.400	0.330	-0.840	0.670
2020/01/31 07:28:08.8	89.430	0.350	-0.810	0.550
2020/01/31 07:28:08.9	89.440	0.370	-0.770	0.430
2020/01/31 07:28:09.0	89.460	0.380	-0.730	0.320
2020/01/31 07:28:09.1	89.480	0.390	-0.680	0.210
2020/01/31 07:28:09.2	89.490	0.390	-0.630	0.110
2020/01/31 07:28:09.3	89.500	0.390	-0.570	0.000
2020/01/31 07:28:09.4	89.510	0.390	-0.510	-0.100
2020/01/31 07:28:09.5	89.510	0.380	-0.440	-0.190
2020/01/31 07:28:09.6	89.510	0.370	-0.370	-0.280
2020/01/31 07:28:09.7	89.520	0.350	-0.300	-0.360
2020/01/31 07:28:09.8	89.520	0.330	-0.220	-0.440
2020/01/31 07:28:09.9	89.510	0.310	-0.140	-0.520
2020/01/31 07:28:10.0	89.510	0.280	-0.070	-0.590
2020/01/31 07:28:10.1	89.500	0.250	0.010	-0.660
2020/01/31 07:28:10.2	89.500	0.220	0.090	-0.720
2020/01/31 07:28:10.3	89.490	0.180	0.170	-0.770
2020/01/31 07:28:10.4	89.480	0.140	0.250	-0.830
2020/01/31 07:28:10.5	89.470	0.100	0.330	-0.880
2020/01/31 07:28:10.6	89.460	0.050	0.400	-0.920
2020/01/31 07:28:10.7	89.440	0.010	0.470	-0.960
2020/01/31 07:28:10.8	89.430	-0.040	0.540	-1.000
2020/01/31 07:28:10.9	89.420	-0.090	0.600	-1.030
2020/01/31 07:28:11.0	89.410	-0.140	0.660	-1.060
2020/01/31 07:28:11.1	89.390	-0.190	0.720	-1.080
2020/01/31 07:28:11.2	89.380	-0.240	0.770	-1.100
2020/01/31 07:28:11.3	89.370	-0.290	0.820	-1.110
2020/01/31 07:28:11.4	89.350	-0.340	0.860	-1.120
2020/01/31 07:28:11.5	89.340	-0.380	0.890	-1.130
2020/01/31 07:28:11.6	89.330	-0.430	0.920	-1.130
2020/01/31 07:28:11.7	89.310	-0.470	0.950	-1.120
2020/01/31 07:28:11.8	89.300	-0.520	0.960	-1.120
2020/01/31 07:28:11.9	89.280	-0.560	0.980	-1.100
2020/01/31 07:28:12.0	89.260	-0.600	0.980	-1.090
2020/01/31 07:28:12.1	89.250	-0.630	0.980	-1.060
2020/01/31 07:28:12.2	89.230	-0.660	0.970	-1.040
2020/01/31 07:28:12.3	89.220	-0.690	0.960	-1.010
2020/01/31 07:28:12.4	89.200	-0.720	0.940	-0.970
2020/01/31 07:28:12.5	89.190	-0.740	0.910	-0.930
2020/01/31 07:28:12.6	89.170	-0.760	0.870	-0.890
2020/01/31 07:28:12.7	89.150	-0.770	0.840	-0.840
2020/01/31 07:28:12.8	89.140	-0.780	0.790	-0.790
2020/01/31 07:28:12.9	89.120	-0.790	0.740	-0.740
2020/01/31 07:28:13.0	89.100	-0.790	0.680	-0.680
2020/01/31 07:28:13.1	89.080	-0.790	0.620	-0.620
2020/01/31 07:28:13.2	89.060	-0.790	0.550	-0.560
2020/01/31 07:28:13.3	89.040	-0.780	0.480	-0.490
2020/01/31 07:28:13.4	89.020	-0.760	0.400	-0.430
2020/01/31 07:28:13.5	89.000	-0.750	0.330	-0.360
2020/01/31 07:28:13.6	88.990	-0.730	0.250	-0.290
2020/01/31 07:28:13.7	88.970	-0.700	0.160	-0.220
2020/01/31 07:28:13.8	88.950	-0.680	0.080	-0.150
2020/01/31 07:28:13.9	88.930	-0.650	-0.010	-0.080
2020/01/31 07:28:14.0	88.910	-0.620	-0.090	-0.000
2020/01/31 07:28:14.1	88.900	-0.580	-0.180	0.070
2020/01/31 07:28:14.2	88.880	-0.550	-0.270	0.140
2020/01/31 07:28:14.3	88.870	-0.510	-0.350	0.210
2020/01/31 07:28:14.4	88.850	-0.470	-0.440	0.280
2020/01/31 07:28:14.5	88.840	-0.420	-0.520	0.350
2020/01/31 07:28:14.6	88.820	-0.380	-0.600	0.420
2020/01/31 07:28:14.7	88.810	-0.330	-0.680	0.490
2020/01/31 07:28:14.8	88.800	-0.290	-0.750	0.560
2020/01/31 07:28:14.9	88.790	-0.240	-0.830	0.620
2020/01/31 07:28:15.0	88.780	-0.190	-0.900	0.690
2020/01/31 07:28:15.1	88.770	-0.140	-0.960	0.750
2020/01/31 07:28:15.2	88.760	-0.090	-1.020	0.810
2020/01/31 07:28:15.3	88.760	-0.040	-1.080	0.870
2020/01/31 07:28:15.4	88.750	0.010	-1.140	0.930
2020/01/31 07:28:15.5	88.750	0.060	-1.190	0.980
2020/01/31 07:28:15.6	88.750	0.110	-1.230	1.040
2020/01/31 07:28:15.7	88.740	0.160	-1.270	1.090
2020/01/31 07:28:15.8	88.750	0.210	-1.300	1.140
2020/01/31 07:28:15.9	88.750	0.260	-1.330	1.190
2020/01/31 07:28:16.0	88.750	0.310	-1.360	1.240
2020/01/31 07:28:16.1	88.750	0.360	-1.380	1.290
2020/01/31 07:28:16.2	88.760	0.400	-1.390	1.340
2020/01/31 07:28:16.3	88.770	0.450	-1.400	1.390
2020/01/31 07:28:16.4	88.780	0.490	-1.410	1.430
2020/01/31 07:28:16.5	88.790	0.530	-1.400	1.480
2020/01/31 07:28:16.6	88.800	0.570	-1.400	1.530
2020/01/31 07:28:16.7	88.810	0.610	-1.380	1.570
2020/01/31 07:28:16.8	88.820	0.650	-1.370	1.620
2020/01/31 07:28:16.9	88.830	0.690	-1.340	1.670
2020/01/31 07:28:17.0	88.840	0.720	-1.320	1.710
2020/01/31 07:28:17.1	88.850	0.750	-1.290	1.760
2020/01/31 07:28:17.2	88.860	0.780	-1.250	1.810
2020/01/31 07:28:17.3	88.870	0.810	-1.200	1.860
2020/01/31 07:28:17.4	88.880	0.830	-1.160	1.910
2020/01/31 07:28:17.5	88.890	0.850	-1.110	1.950
2020/01/31 07:28:17.6	88.900	0.870	-1.060	2.000
2020/01/31 07:28:17.7	88.910	0.890	-1.000	2.050
2020/01/31 07:28:17.8	88.920	0.900	-0.940	2.090
2020/01/31 07:28:17.9	88.920	0.910	-0.870	2.140
2020/01/31 07:28:18.0	88.930	0.920	-0.810	2.180
2020/01/31 07:28:18.1	88.940	0.920	-0.740	2.220
2020/01/31 07:28:18.2	88.940	0.920	-0.660	2.260
2020/01/31 07:28:18.3	88.950	0.910	-0.590	2.290
2020/01/31 07:28:18.4	88.950	0.910	-0.510	2.330
2020/01/31 07:28:18.5	88.950	0.900	-0.430	2.360
2020/01/31 07:28:18.6	88.950	0.880	-0.350	2.390
2020/01/31 07:28:18.7	88.950	0.860	-0.270	2.420
2020/01/31 07:28:18.8	88.940	0.840	-0.190	2.440
2020/01/31 07:28:18.9	88.940	0.820	-0.100	2.460
2020/01/31 07:28:19.0	88.930	0.790	-0.020	2.480
2020/01/31 07:28:19.1	88.920	0.760	0.070	2.490
2020/01/31 07:28:19.2	88.910	0.720	0.150	2.500
2020/01/31 07:28:19.3	88.900	0.680	0.240	2.510
2020/01/31 07:28:19.4	88.890	0.640	0.320	2.510
2020/01/31 07:28:19.5	88.870	0.600	0.400	2.510
2020/01/31 07:28:19.6	88.860	0.550	0.480	2.500
2020/01/31 07:28:19.7	88.840	0.500	0.550	2.490
2020/01/31 07:28:19.8	88.820	0.450	0.630	2.470
2020/01/31 07:28:19.9	88.800	0.400	0.700	2.450
2020/01/31 07:28:20.0	88.780	0.350	0.760	2.430
2020/01/31 07:28:20.1	88.760	0.300	0.820	2.400
2020/01/31 07:28:20.2	88.740	0.240	0.880	2.370
2020/01/31 07:28:20.3	88.720	0.190	0.930	2.330
2020/01/31 07:28:20.4	88.690	0.130	0.980	2.290
2020/01/31 07:28:20.5	88.670	0.080	1.020	2.240
2020/01/31 07:28:20.6	88.650	0.030	1.060	2.190
2020/01/31 07:28:20.7	88.620	-0.030	1.080	2.140
2020/01/31 07:28:20.8	88.600	-0.080	1.110	2.090
2020/01/31 07:28:20.9	88.570	-0.120	1.120	2.030
2020/01/31 07:28:21.0	88.550	-0.170	1.130	1.970
2020/01/31 07:28:21.1	88.520	-0.210	1.130	1.900
2020/01/31 07:28:21.2	88.500	-0.260	1.130	1.830
2020/01/31 07:28:21.3	88.480	-0.290	1.110	1.760
2020/01/31 07:28:21.4	88.460	-0.330	1.090	1.690
2020/01/31 07:28:21.5	88.440	-0.360	1.070	1.610
2020/01/31 07:28:21.6	88.420	-0.390	1.030	1.530
2020/01/31 07:28:21.7	88.400	-0.420	0.990	1.450
2020/01/31 07:28:21.8	88.390	-0.440	0.950	1.370
2020/01/31 07:28:21.9	88.370	-0.460	0.890	1.280
2020/01/31 07:28:22.0	88.360	-0.470	0.830	1.200
2020/01/31 07:28:22.1	88.350	-0.480	0.770	1.110
2020/01/31 07:28:22.2	88.340	-0.490	0.700	1.020
2020/01/31 07:28:22.3	88.320	-0.490	0.620	0.930
2020/01/31 07:28:22.4	88.320	-0.500	0.550	0.830
2020/01/31 07:28:22.5	88.310	-0.490	0.470	0.740
2020/01/31 07:28:22.6	88.300	-0.490	0.390	0.650
2020/01/31 07:28:22.7	88.300	-0.480	0.300	0.560
2020/01/31 07:28:22.8	88.300	-0.470	0.220	0.470
2020/01/31 07:28:22.9	88.300	-0.460	0.130	0.380
2020/01/31 07:28:23.0	88.300	-0.450	0.040	0.290
2020/01/31 07:28:23.1	88.310	-0.430	-0.040	0.200
2020/01/31 07:28:23.2	88.310	-0.410	-0.130	0.110
2020/01/31 07:28:23.3	88.320	-0.400	-0.210	0.030
2020/01/31 07:28:23.4	88.330	-0.380	-0.290	-0.060
2020/01/31 07:28:23.5	88.340	-0.360	-0.370	-0.140
2020/01/31 07:28:23.6	88.350	-0.340	-0.440	-0.210
2020/01/31 07:28:23.7	88.360	-0.320	-0.510	-0.290
2020/01/31 07:28:23.8	88.370	-0.300	-0.570	-0.360
2020/01/31 07:28:23.9	88.390	-0.280	-0.630	-0.430
2020/01/31 07:28:24.0	88.410	-0.270	-0.690	-0.500
2020/01/31 07:28:24.1	88.420	-0.250	-0.740	-0.560
2020/01/31 07:28:24.2	88.440	-0.230	-0.780	-0.610
2020/01/31 07:28:24.3	88.460	-0.220	-0.820	-0.660
2020/01/31 07:28:24.4	88.480	-0.210	-0.850	-0.710
2020/01/31 07:28:24.5	88.500	-0.200	-0.880	-0.750
2020/01/31 07:28:24.6	88.520	-0.190	-0.900	-0.790
2020/01/31 07:28:24.7	88.540	-0.180	-0.910	-0.820
2020/01/31 07:28:24.8	88.560	-0.170	-0.920	-0.850
2020/01/31 07:28:24.9	88.580	-0.170	-0.930	-0.870
2020/01/31 07:28:25.0	88.600	-0.160	-0.930	-0.890
2020/01/31 07:28:25.1	88.620	-0.160	-0.920	-0.900
2020/01/31 07:28:25.2	88.640	-0.160	-0.910	-0.910
2020/01/31 07:28:25.3	88.660	-0.160	-0.900	-0.910
2020/01/31 07:28:25.4	88.670	-0.170	-0.880	-0.910
2020/01/31 07:28:25.5	88.690	-0.170	-0.850	-0.900
2020/01/31 07:28:25.6	88.700	-0.180	-0.820	-0.890
2020/01/31 07:28:25.7	88.720	-0.190	-0.790	-0.870
2020/01/31 07:28:25.8	88.730	-0.200	-0.760	-0.850
2020/01/31 07:28:25.9	88.740	-0.210	-0.720	-0.830
2020/01/31 07:28:26.0	88.750	-0.220	-0.680	-0.800
2020/01/31 07:28:26.1	88.750	-0.230	-0.640	-0.760
2020/01/31 07:28:26.2	88.760	-0.250	-0.590	-0.730
2020/01/31 07:28:26.3	88.760	-0.260	-0.540	-0.690
2020/01/31 07:28:26.4	88.760	-0.270	-0.490	-0.640
2020/01/31 07:28:26.5	88.760	-0.290	-0.440	-0.590
2020/01/31 07:28:26.6	88.760	-0.300	-0.390	-0.540
2020/01/31 07:28:26.7	88.750	-0.320	-0.350	-0.490
2020/01/31 07:28:26.8	88.740	-0.330	-0.300	-0.430
2020/01/31 07:28:26.9	88.740	-0.340	-0.250	-0.380
2020/01/31 07:28:27.0	88.730	-0.350	-0.200	-0.310
2020/01/31 07:28:27.1	88.710	-0.360	-0.150	-0.250
2020/01/31 07:28:27.2	88.700	-0.370	-0.110	-0.180
2020/01/31 07:28:27.3	88.680	-0.380	-0.070	-0.110
2020/01/31 07:28:27.4	88.670	-0.390	-0.020	-0.040
2020/01/31 07:28:27.5	88.650	-0.390	0.010	0.040
2020/01/31 07:28:27.6	88.630	-0.400	0.050	0.120
2020/01/31 07:28:27.7	88.610	-0.400	0.080	0.190
2020/01/31 07:28:27.8	88.590	-0.400	0.110	0.270
2020/01/31 07:28:27.9	88.560	-0.400	0.140	0.360
2020/01/31 07:28:28.0	88.540	-0.390	0.160	0.440
2020/01/31 07:28:28.1	88.520	-0.380	0.180	0.530
2020/01/31 07:28:28.2	88.490	-0.370	0.200	0.610
2020/01/31 07:28:28.3	88.470	-0.360	0.210	0.700
2020/01/31 07:28:28.4	88.440	-0.350	0.220	0.790
2020/01/31 07:28:28.5	88.420	-0.330	0.220	0.880
2020/01/31 07:28:28.6	88.390	-0.320	0.220	0.970
2020/01/31 07:28:28.7	88.370	-0.300	0.210	1.060
2020/01/31 07:28:28.8	88.350	-0.280	0.200	1.140
2020/01/31 07:28:28.9	88.320	-0.250	0.190	1.230
2020/01/31 07:28:29.0	88.300	-0.230	0.170	1.320
2020/01/31 07:28:29.1	88.280	-0.200	0.150	1.400
2020/01/31 07:28:29.2	88.250	-0.170	0.120	1.480
2020/01/31 07:28:29.3	88.230	-0.140	0.090	1.570
2020/01/31 07:28:29.4	88.210	-0.110	0.060	1.650
2020/01/31 07:28:29.5	88.180	-0.080	0.020	1.720
2020/01/31 07:28:29.6	88.160	-0.050	-0.020	1.800
2020/01/31 07:28:29.7	88.140	-0.010	-0.060	1.870
2020/01/31 07:28:29.8	88.120	0.020	-0.100	1.930
2020/01/31 07:28:29.9	88.100	0.050	-0.140	1.990
2020/01/31 07:28:30.0	88.080	0.090	-0.190	2.050
2020/01/31 07:28:30.1	88.060	0.120	-0.230	2.110
2020/01/31 07:28:30.2	88.050	0.160	-0.270	2.160
2020/01/31 07:28:30.3	88.030	0.190	-0.320	2.200
2020/01/31 07:28:30.4	88.010	0.220	-0.360	2.240
2020/01/31 07:28:30.5	88.000	0.250	-0.400	2.280
2020/01/31 07:28:30.6	87.990	0.280	-0.440	2.310
2020/01/31 07:28:30.7	87.980	0.310	-0.470	2.340
2020/01/31 07:28:30.8	87.970	0.340	-0.510	2.360
2020/01/31 07:28:30.9	87.960	0.370	-0.540	2.380
2020/01/31 07:28:31.0	87.950	0.390	-0.560	2.400
2020/01/31 07:28:31.1	87.950	0.420	-0.580	2.400
2020/01/31 07:28:31.2	87.950	0.440	-0.600	2.410
2020/01/31 07:28:31.3	87.940	0.460	-0.610	2.410
2020/01/31 07:28:31.4	87.940	0.480	-0.620	2.400
2020/01/31 07:28:31.5	87.950	0.500	-0.630	2.390
2020/01/31 07:28:31.6	87.950	0.510	-0.630	2.380
2020/01/31 07:28:31.7	87.960	0.520	-0.630	2.360
2020/01/31 07:28:31.8	87.960	0.540	-0.620	2.340
2020/01/31 07:28:31.9	87.970	0.550	-0.610	2.310
2020/01/31 07:28:32.0	87.980	0.550	-0.600	2.280
2020/01/31 07:28:32.1	88.000	0.560	-0.580	2.240
2020/01/31 07:28:32.2	88.010	0.570	-0.560	2.200
2020/01/31 07:28:32.3	88.030	0.570	-0.530	2.160
2020/01/31 07:28:32.4	88.040	0.570	-0.510	2.110
2020/01/31 07:28:32.5	88.060	0.570	-0.480	2.060
2020/01/31 07:28:32.6	88.070	0.570	-0.450	2.000
2020/01/31 07:28:32.7	88.090	0.570	-0.420	1.950
2020/01/31 07:28:32.8	88.110	0.560	-0.390	1.890
2020/01/31 07:28:32.9	88.130	0.560	-0.350	1.830
2020/01/31 07:28:33.0	88.150	0.550	-0.320	1.760
2020/01/31 07:28:33.1	88.170	0.540	-0.290	1.690
2020/01/31 07:28:33.2	88.190	0.530	-0.250	1.620
2020/01/31 07:28:33.3	88.210	0.520	-0.220	1.550
2020/01/31 07:28:33.4	88.230	0.510	-0.180	1.480
2020/01/31 07:28:33.5	88.240	0.500	-0.150	1.410
2020/01/31 07:28:33.6	88.260	0.490	-0.120	1.340
2020/01/31 07:28:33.7	88.280	0.480	-0.090	1.270
2020/01/31 07:28:33.8	88.300	0.470	-0.060	1.200
2020/01/31 07:28:33.9	88.320	0.460	-0.030	1.130
2020/01/31 07:28:34.0	88.330	0.440	0.000	1.060
2020/01/31 07:28:34.1	88.350	0.430	0.030	1.000
2020/01/31 07:28:34.2	88.360	0.410	0.060	0.940
2020/01/31 07:28:34.3	88.370	0.400	0.080	0.870
2020/01/31 07:28:34.4	88.390	0.380	0.100	0.820
2020/01/31 07:28:34.5	88.400	0.370	0.120	0.760
2020/01/31 07:28:34.6	88.410	0.350	0.140	0.710
2020/01/31 07:28:34.7	88.410	0.340	0.160	0.660
2020/01/31 07:28:34.8	88.420	0.320	0.180	0.620
2020/01/31 07:28:34.9	88.430	0.300	0.190	0.580
2020/01/31 07:28:35.0	88.430	0.290	0.210	0.540
2020/01/31 07:28:35.1	88.440	0.270	0.220	0.510
2020/01/31 07:28:35.2	88.440	0.250	0.230	0.480
2020/01/31 07:28:35.3	88.440	0.230	0.240	0.450
2020/01/31 07:28:35.4	88.440	0.210	0.250	0.430
2020/01/31 07:28:35.5	88.440	0.190	0.250	0.410
2020/01/31 07:28:35.6	88.430	0.170	0.260	0.390
2020/01/31 07:28:35.7	88.430	0.140	0.260	0.380
2020/01/31 07:28:35.8	88.430	0.120	0.260	0.370
2020/01/31 07:28:35.9	88.420	0.100	0.260	0.360
2020/01/31 07:28:36.0	88.410	0.080	0.260	0.350
2020/01/31 07:28:36.1	88.410	0.050	0.260	0.340
2020/01/31 07:28:36.2	88.400	0.030	0.250	0.340
2020/01/31 07:28:36.3	88.390	0.010	0.240	0.330
2020/01/31 07:28:36.4	88.390	-0.010	0.240	0.330
2020/01/31 07:28:36.5	88.380	-0.040	0.230	0.330
2020/01/31 07:28:36.6	88.370	-0.060	0.220	0.330
2020/01/31 07:28:36.7	88.360	-0.080	0.210	0.320
2020/01/31 07:28:36.8	88.350	-0.110	0.200	0.320
2020/01/31 07:28:36.9	88.340	-0.130	0.190	0.320
2020/01/31 07:28:37.0	88.330	-0.150	0.170	0.320
2020/01/31 07:28:37.1	88.320	-0.170	0.160	0.330
2020/01/31 07:28:37.2	88.310	-0.190	0.140	0.330
2020/01/31 07:28:37.3	88.290	-0.200	0.130	0.330
2020/01/31 07:28:37.4	88.280	-0.220	0.110	0.330
2020/01/31 07:28:37.5	88.270	-0.240	0.090	0.340
2020/01/31 07:28:37.6	88.260	-0.250	0.070	0.340
2020/01/31 07:28:37.7	88.250	-0.270	0.050	0.350
2020/01/31 07:28:37.8	88.230	-0.280	0.030	0.360
2020/01/31 07:28:37.9	88.220	-0.290	0.010	0.370
2020/01/31 07:28:38.0	88.210	-0.300	-0.010	0.370
2020/01/31 07:28:38.1	88.200	-0.310	-0.030	0.380
2020/01/31 07:28:38.2	88.190	-0.310	-0.050	0.400
2020/01/31 07:28:38.3	88.190	-0.320	-0.080	0.410
2020/01/31 07:28:38.4	88.180	-0.320	-0.100	0.420
2020/01/31 07:28:38.5	88.170	-0.320	-0.120	0.440
2020/01/31 07:28:38.6	88.170	-0.320	-0.150	0.450
2020/01/31 07:28:38.7	88.160	-0.320	-0.170	0.470
2020/01/31 07:28:38.8	88.160	-0.320	-0.190	0.480
2020/01/31 07:28:38.9	88.150	-0.320	-0.220	0.500
2020/01/31 07:28:39.0	88.150	-0.320	-0.240	0.520
2020/01/31 07:28:39.1	88.150	-0.310	-0.260	0.540
2020/01/31 07:28:39.2	88.150	-0.310	-0.280	0.550
2020/01/31 07:28:39.3	88.160	-0.300	-0.300	0.570
2020/01/31 07:28:39.4	88.160	-0.290	-0.330	0.590
2020/01/31 07:28:39.5	88.160	-0.280	-0.350	0.610
2020/01/31 07:28:39.6	88.170	-0.270	-0.370	0.640
2020/01/31 07:28:39.7	88.170	-0.260	-0.390	0.660
2020/01/31 07:28:39.8	88.180	-0.250	-0.410	0.680
2020/01/31 07:28:39.9	88.180	-0.240	-0.430	0.700
2020/01/31 07:28:40.0	88.190	-0.230	-0.440	0.730
2020/01/31 07:28:40.1	88.200	-0.220	-0.460	0.750
2020/01/31 07:28:40.2	88.210	-0.200	-0.470	0.780
2020/01/31 07:28:40.3	88.210	-0.190	-0.490	0.800
2020/01/31 07:28:40.4	88.220	-0.180	-0.500	0.820
2020/01/31 07:28:40.5	88.230	-0.170	-0.510	0.850
2020/01/31 07:28:40.6	88.240	-0.150	-0.520	0.870
2020/01/31 07:28:40.7	88.250	-0.140	-0.520	0.900
2020/01/31 07:28:40.8	88.260	-0.130	-0.520	0.930
2020/01/31 07:28:40.9	88.270	-0.120	-0.520	0.950
2020/01/31 07:28:41.0	88.280	-0.110	-0.520	0.980
2020/01/31 07:28:41.1	88.290	-0.100	-0.510	1.000
2020/01/31 07:28:41.2	88.300	-0.090	-0.500	1.030
2020/01/31 07:28:41.3	88.310	-0.080	-0.480	1.060
2020/01/31 07:28:41.4	88.320	-0.070	-0.470	1.080
2020/01/31 07:28:41.5	88.330	-0.070	-0.450	1.110
2020/01/31 07:28:41.6	88.340	-0.060	-0.430	1.130
2020/01/31 07:28:41.7	88.350	-0.050	-0.400	1.160
2020/01/31 07:28:41.8	88.360	-0.050	-0.380	1.190
2020/01/31 07:28:41.9	88.360	-0.040	-0.350	1.210
2020/01/31 07:28:42.0	88.370	-0.040	-0.320	1.240
2020/01/31 07:28:42.1	88.380	-0.040	-0.290	1.260
2020/01/31 07:28:42.2	88.380	-0.030	-0.260	1.290
2020/01/31 07:28:42.3	88.390	-0.030	-0.240	1.310
2020/01/31 07:28:42.4	88.390	-0.030	-0.210	1.330
2020/01/31 07:28:42.5	88.400	-0.030	-0.170	1.350
2020/01/31 07:28:42.6	88.400	-0.030	-0.140	1.370
2020/01/31 07:28:42.7	88.400	-0.030	-0.120	1.380
2020/01/31 07:28:42.8	88.400	-0.030	-0.090	1.400
2020/01/31 07:28:42.9	88.400	-0.020	-0.060	1.410
2020/01/31 07:28:43.0	88.400	-0.020	-0.030	1.420
2020/01/31 07:28:43.1	88.400	-0.020	-0.010	1.430
2020/01/31 07:28:43.2	88.400	-0.020	0.010	1.440
2020/01/31 07:28:43.3	88.390	-0.020	0.030	1.440
2020/01/31 07:28:43.4	88.390	-0.020	0.050	1.450
2020/01/31 07:28:43.5	88.380	-0.020	0.060	1.450
2020/01/31 07:28:43.6	88.370	-0.020	0.070	1.450
2020/01/31 07:28:43.7	88.360	-0.010	0.080	1.450
2020/01/31 07:28:43.8	88.360	-0.010	0.090	1.450
2020/01/31 07:28:43.9	88.350	-0.010	0.100	1.440
2020/01/31 07:28:44.0	88.340	-0.000	0.100	1.440
2020/01/31 07:28:44.1	88.330	0.000	0.100	1.430
2020/01/31 07:28:44.2	88.310	0.010	0.090	1.420
2020/01/31 07:28:44.3	88.300	0.010	0.090	1.410
2020/01/31 07:28:44.4	88.290	0.020	0.080	1.400
2020/01/31 07:28:44.5	88.280	0.020	0.070	1.390
2020/01/31 07:28:44.6	88.270	0.030	0.050	1.380
2020/01/31 07:28:44.7	88.260	0.030	0.040	1.360
2020/01/31 07:28:44.8	88.250	0.040	0.020	1.350
2020/01/31 07:28:44.9	88.240	0.050	0.010	1.330
2020/01/31 07:28:45.0	88.230	0.050	-0.010	1.320
2020/01/31 07:28:45.1	88.220	0.060	-0.040	1.300
2020/01/31 07:28:45.2	88.210	0.070	-0.060	1.290
2020/01/31 07:28:45.3	88.190	0.070	-0.080	1.270
2020/01/31 07:28:45.4	88.180	0.080	-0.110	1.250
2020/01/31 07:28:45.5	88.180	0.090	-0.130	1.230
2020/01/31 07:28:45.6	88.170	0.090	-0.150	1.220
2020/01/31 07:28:45.7	88.160	0.100	-0.170	1.200
2020/01/31 07:28:45.8	88.160	0.110	-0.200	1.180
2020/01/31 07:28:45.9	88.160	0.110	-0.220	1.160
2020/01/31 07:28:46.0	88.150	0.120	-0.240	1.140
2020/01/31 07:28:46.1	88.150	0.120	-0.260	1.120
2020/01/31 07:28:46.2	88.150	0.130	-0.280	1.100
2020/01/31 07:28:46.3	88.150	0.130	-0.300	1.080
2020/01/31 07:28:46.4	88.150	0.130	-0.310	1.050
2020/01/31 07:28:46.5	88.150	0.140	-0.330	1.030
2020/01/31 07:28:46.6	88.150	0.140	-0.340	1.010
2020/01/31 07:28:46.7	88.150	0.140	-0.350	0.980
2020/01/31 07:28:46.8	88.150	0.140	-0.360	0.960
2020/01/31 07:28:46.9	88.150	0.140	-0.370	0.940
2020/01/31 07:28:47.0	88.160	0.140	-0.380	0.910
2020/01/31 07:28:47.1	88.160	0.140	-0.380	0.890
2020/01/31 07:28:47.2	88.160	0.140	-0.380	0.860
2020/01/31 07:28:47.3	88.170	0.140	-0.380	0.840
2020/01/31 07:28:47.4	88.170	0.140	-0.380	0.820
2020/01/31 07:28:47.5	88.170	0.130	-0.370	0.800
2020/01/31 07:28:47.6	88.170	0.130	-0.360	0.770
2020/01/31 07:28:47.7	88.180	0.130	-0.350	0.750
2020/01/31 07:28:47.8	88.180	0.120	-0.340	0.730
2020/01/31 07:28:47.9	88.180	0.120	-0.320	0.720
2020/01/31 07:28:48.0	88.180	0.110	-0.310	0.700
2020/01/31 07:28:48.1	88.180	0.110	-0.290	0.690
2020/01/31 07:28:48.2	88.180	0.100	-0.270	0.670
2020/01/31 07:28:48.3	88.190	0.100	-0.240	0.660
2020/01/31 07:28:48.4	88.190	0.090	-0.220	0.650
2020/01/31 07:28:48.5	88.190	0.090	-0.200	0.640
2020/01/31 07:28:48.6	88.190	0.080	-0.180	0.630
2020/01/31 07:28:48.7	88.190	0.070	-0.160	0.620
2020/01/31 07:28:48.8	88.190	0.060	-0.130	0.610
2020/01/31 07:28:48.9	88.190	0.060	-0.110	0.610
2020/01/31 07:28:49.0	88.190	0.050	-0.090	0.600
2020/01/31 07:28:49.1	88.200	0.040	-0.070	0.600
2020/01/31 07:28:49.2	88.200	0.040	-0.050	0.590
2020/01/31 07:28:49.3	88.200	0.030	-0.040	0.590
2020/01/31 07:28:49.4	88.210	0.020	-0.020	0.590
2020/01/31 07:28:49.5	88.210	0.010	-0.010	0.580
2020/01/31 07:28:49.6	88.220	0.010	0.000	0.580
2020/01/31 07:28:49.7	88.220	0.000	0.010	0.570
2020/01/31 07:28:49.8	88.230	-0.000	0.020	0.570
2020/01/31 07:28:49.9	88.240	-0.010	0.020	0.560
2020/01/31 07:28:50.0	88.240	-0.010	0.030	0.560
2020/01/31 07:28:50.1	88.250	-0.010	0.030	0.550
2020/01/31 07:28:50.2	88.260	-0.010	0.030	0.550
2020/01/31 07:28:50.3	88.270	-0.020	0.020	0.540
2020/01/31 07:28:50.4	88.280	-0.020	0.020	0.530
2020/01/31 07:28:50.5	88.290	-0.010	0.010	0.530
2020/01/31 07:28:50.6	88.300	-0.010	-0.000	0.520
2020/01/31 07:28:50.7	88.310	-0.010	-0.010	0.510
2020/01/31 07:28:50.8	88.320	-0.010	-0.030	0.510
2020/01/31 07:28:50.9	88.330	-0.000	-0.040	0.500
2020/01/31 07:28:51.0	88.340	0.010	-0.050	0.490
2020/01/31 07:28:51.1	88.350	0.010	-0.070	0.480
2020/01/31 07:28:51.2	88.360	0.020	-0.080	0.470
2020/01/31 07:28:51.3	88.370	0.030	-0.100	0.470
2020/01/31 07:28:51.4	88.380	0.040	-0.120	0.460
2020/01/31 07:28:51.5	88.380	0.040	-0.130	0.450
2020/01/31 07:28:51.6	88.390	0.050	-0.140	0.440
2020/01/31 07:28:51.7	88.400	0.060	-0.160	0.440
2020/01/31 07:28:51.8	88.410	0.070	-0.170	0.430
2020/01/31 07:28:51.9	88.410	0.080	-0.170	0.430
2020/01/31 07:28:52.0	88.420	0.090	-0.180	0.420
2020/01/31 07:28:52.1	88.420	0.100	-0.190	0.420
2020/01/31 07:28:52.2	88.430	0.100	-0.190	0.420
2020/01/31 07:28:52.3	88.430	0.110	-0.200	0.430
2020/01/31 07:28:52.4	88.430	0.120	-0.200	0.430
2020/01/31 07:28:52.5	88.430	0.120	-0.190	0.440
2020/01/31 07:28:52.6	88.430	0.130	-0.190	0.450
2020/01/31 07:28:52.7	88.420	0.130	-0.180	0.470
2020/01/31 07:28:52.8	88.420	0.130	-0.170	0.490
2020/01/31 07:28:52.9	88.410	0.130	-0.150	0.500
2020/01/31 07:28:53.0	88.410	0.130	-0.140	0.530
2020/01/31 07:28:53.1	88.400	0.130	-0.120	0.550
2020/01/31 07:28:53.2	88.400	0.120	-0.110	0.580
2020/01/31 07:28:53.3	88.390	0.120	-0.090	0.610
2020/01/31 07:28:53.4	88.380	0.110	-0.070	0.640
2020/01/31 07:28:53.5	88.370	0.100	-0.050	0.670
2020/01/31 07:28:53.6	88.370	0.090	-0.030	0.700
2020/01/31 07:28:53.7	88.360	0.080	-0.020	0.740
2020/01/31 07:28:53.8	88.350	0.070	-0.000	0.770
2020/01/31 07:28:53.9	88.350	0.050	0.010	0.810
2020/01/31 07:28:54.0	88.340	0.040	0.030	0.840
2020/01/31 07:28:54.1	88.330	0.020	0.040	0.880
2020/01/31 07:28:54.2	88.330	0.010	0.050	0.910
2020/01/31 07:28:54.3	88.320	-0.010	0.050	0.950
2020/01/31 07:28:54.4	88.320	-0.020	0.050	0.980
2020/01/31 07:28:54.5	88.320	-0.040	0.050	1.010
2020/01/31 07:28:54.6	88.320	-0.060	0.050	1.040
2020/01/31 07:28:54.7	88.320	-0.070	0.040	1.070
2020/01/31 07:28:54.8	88.320	-0.090	0.030	1.100
2020/01/31 07:28:54.9	88.320	-0.100	0.020	1.120
2020/01/31 07:28:55.0	88.320	-0.120	0.000	1.140
2020/01/31 07:28:55.1	88.330	-0.130	-0.020	1.170
2020/01/31 07:28:55.2	88.330	-0.140	-0.040	1.190
2020/01/31 07:28:55.3	88.340	-0.150	-0.060	1.200
2020/01/31 07:28:55.4	88.350	-0.160	-0.090	1.220
2020/01/31 07:28:55.5	88.360	-0.170	-0.120	1.240
2020/01/31 07:28:55.6	88.370	-0.170	-0.150	1.250
2020/01/31 07:28:55.7	88.380	-0.180	-0.180	1.260
2020/01/31 07:28:55.8	88.390	-0.180	-0.220	1.280
2020/01/31 07:28:55.9	88.400	-0.180	-0.250	1.290
2020/01/31 07:28:56.0	88.410	-0.180	-0.280	1.300
2020/01/31 07:28:56.1	88.420	-0.180	-0.320	1.310
2020/01/31 07:28:56.2	88.440	-0.170	-0.350	1.320
2020/01/31 07:28:56.3	88.450	-0.170	-0.390	1.330
2020/01/31 07:28:56.4	88.460	-0.160	-0.420	1.340
2020/01/31 07:28:56.5	88.470	-0.160	-0.450	1.350
2020/01/31 07:28:56.6	88.480	-0.150	-0.480	1.360
2020/01/31 07:28:56.7	88.500	-0.140	-0.510	1.370
2020/01/31 07:28:56.8	88.510	-0.130	-0.530	1.380
2020/01/31 07:28:56.9	88.520	-0.110	-0.550	1.380
2020/01/31 07:28:57.0	88.530	-0.100	-0.580	1.390
2020/01/31 07:28:57.1	88.540	-0.090	-0.590	1.400
2020/01/31 07:28:57.2	88.540	-0.070	-0.610	1.410
2020/01/31 07:28:57.3	88.550	-0.060	-0.620	1.420
2020/01/31 07:28:57.4	88.560	-0.040	-0.620	1.430
2020/01/31 07:28:57.5	88.560	-0.030	-0.630	1.440
2020/01/31 07:28:57.6	88.570	-0.010	-0.630	1.440
2020/01/31 07:28:57.7	88.570	0.000	-0.630	1.450
2020/01/31 07:28:57.8	88.570	0.020	-0.620	1.460
2020/01/31 07:28:57.9	88.570	0.040	-0.610	1.460
2020/01/31 07:28:58.0	88.580	0.050	-0.600	1.470
2020/01/31 07:28:58.1	88.580	0.060	-0.580	1.470
2020/01/31 07:28:58.2	88.580	0.080	-0.560	1.480
2020/01/31 07:28:58.3	88.580	0.090	-0.540	1.480
2020/01/31 07:28:58.4	88.580	0.100	-0.510	1.490
2020/01/31 07:28:58.5	88.580	0.110	-0.480	1.490
2020/01/31 07:28:58.6	88.580	0.120	-0.440	1.490
2020/01/31 07:28:58.7	88.570	0.130	-0.400	1.490
2020/01/31 07:28:58.8	88.570	0.140	-0.360	1.500
2020/01/31 07:28:58.9	88.570	0.140	-0.320	1.500
2020/01/31 07:28:59.0	88.570	0.150	-0.280	1.500
2020/01/31 07:28:59.1	88.570	0.150	-0.230	1.500
2020/01/31 07:28:59.2	88.570	0.150	-0.180	1.500
2020/01/31 07:28:59.3	88.570	0.150	-0.130	1.490
2020/01/31 07:28:59.4	88.570	0.150	-0.080	1.490
2020/01/31 07:28:59.5	88.570	0.150	-0.020	1.480
2020/01/31 07:28:59.6	88.570	0.150	0.030	1.480
2020/01/31 07:28:59.7	88.570	0.140	0.080	1.470
2020/01/31 07:28:59.8	88.580	0.130	0.130	1.460
2020/01/31 07:28:59.9	88.580	0.130	0.180	1.440
2020/01/31 07:29:00.0	88.580	0.120	0.240	1.430
2020/01/31 07:29:00.1	88.580	0.110	0.280	1.410
2020/01/31 07:29:00.2	88.590	0.100	0.330	1.390
2020/01/31 07:29:00.3	88.590	0.080	0.370	1.370
2020/01/31 07:29:00.4	88.600	0.070	0.410	1.350
2020/01/31 07:29:00.5	88.600	0.060	0.450	1.320
2020/01/31 07:29:00.6	88.610	0.050	0.480	1.290
2020/01/31 07:29:00.7	88.610	0.030	0.510	1.260
2020/01/31 07:29:00.8	88.610	0.020	0.540	1.220
2020/01/31 07:29:00.9	88.620	0.000	0.560	1.180
2020/01/31 07:29:01.0	88.620	-0.010	0.570	1.140
2020/01/31 07:29:01.1	88.630	-0.020	0.580	1.090
2020/01/31 07:29:01.2	88.630	-0.030	0.580	1.040
2020/01/31 07:29:01.3	88.640	-0.050	0.580	0.990
2020/01/31 07:29:01.4	88.640	-0.060	0.570	0.940
2020/01/31 07:29:01.5	88.650	-0.070	0.560	0.880
2020/01/31 07:29:01.6	88.650	-0.080	0.540	0.820
2020/01/31 07:29:01.7	88.650	-0.080	0.520	0.760
2020/01/31 07:29:01.8	88.660	-0.090	0.490	0.700
2020/01/31 07:29:01.9	88.660	-0.100	0.460	0.640
2020/01/31 07:29:02.0	88.660	-0.100	0.420	0.570
2020/01/31 07:29:02.1	88.660	-0.110	0.380	0.510
2020/01/31 07:29:02.2	88.660	-0.110	0.340	0.450
2020/01/31 07:29:02.3	88.660	-0.110	0.290	0.390
2020/01/31 07:29:02.4	88.660	-0.110	0.240	0.330
2020/01/31 07:29:02.5	88.660	-0.110	0.190	0.270
2020/01/31 07:29:02.6	88.660	-0.110	0.130	0.220
2020/01/31 07:29:02.7	88.650	-0.100	0.080	0.170
2020/01/31 07:29:02.8	88.650	-0.100	0.020	0.120
2020/01/31 07:29:02.9	88.650	-0.090	-0.040	0.080
2020/01/31 07:29:03.0	88.640	-0.090	-0.090	0.040
2020/01/31 07:29:03.1	88.640	-0.080	-0.150	0.000
2020/01/31 07:29:03.2	88.630	-0.080	-0.200	-0.030
2020/01/31 07:29:03.3	88.620	-0.070	-0.260	-0.060
2020/01/31 07:29:03.4	88.610	-0.060	-0.310	-0.080
2020/01/31 07:29:03.5	88.600	-0.060	-0.360	-0.100
2020/01/31 07:29:03.6	88.590	-0.050	-0.410	-0.110
2020/01/31 07:29:03.7	88.580	-0.040	-0.450	-0.120
2020/01/31 07:29:03.8	88.570	-0.040	-0.500	-0.120
2020/01/31 07:29:03.9	88.560	-0.030	-0.540	-0.120
2020/01/31 07:29:04.0	88.550	-0.030	-0.580	-0.120
2020/01/31 07:29:04.1	88.540	-0.020	-0.610	-0.110
2020/01/31 07:29:04.2	88.530	-0.020	-0.640	-0.100
2020/01/31 07:29:04.3	88.520	-0.020	-0.670	-0.090
2020/01/31 07:29:04.4	88.520	-0.020	-0.700	-0.070
2020/01/31 07:29:04.5	88.510	-0.020	-0.730	-0.050
2020/01/31 07:29:04.6	88.510	-0.020	-0.750	-0.030
2020/01/31 07:29:04.7	88.500	-0.020	-0.770	-0.000
2020/01/31 07:29:04.8	88.500	-0.030	-0.780	0.020
2020/01/31 07:29:04.9	88.500	-0.030	-0.790	0.050
2020/01/31 07:29:05.0	88.500	-0.040	-0.800	0.080
2020/01/31 07:29:05.1	88.500	-0.040	-0.810	0.110
2020/01/31 07:29:05.2	88.510	-0.050	-0.820	0.150
2020/01/31 07:29:05.3	88.520	-0.060	-0.820	0.180
2020/01/31 07:29:05.4	88.520	-0.070	-0.820	0.220
2020/01/31 07:29:05.5	88.530	-0.080	-0.820	0.250
2020/01/31 07:29:05.6	88.540	-0.090	-0.820	0.290
2020/01/31 07:29:05.7	88.550	-0.100	-0.810	0.330
2020/01/31 07:29:05.8	88.570	-0.110	-0.810	0.360
2020/01/31 07:29:05.9	88.580	-0.120	-0.800	0.400
2020/01/31 07:29:06.0	88.590	-0.130	-0.790	0.440
2020/01/31 07:29:06.1	88.610	-0.140	-0.770	0.480
2020/01/31 07:29:06.2	88.620	-0.150	-0.760	0.520
2020/01/31 07:29:06.3	88.640	-0.160	-0.740	0.560
2020/01/31 07:29:06.4	88.660	-0.170	-0.720	0.610
2020/01/31 07:29:06.5	88.670	-0.180	-0.690	0.650
2020/01/31 07:29:06.6	88.690	-0.190	-0.670	0.690
2020/01/31 07:29:06.7	88.700	-0.190	-0.640	0.730
2020/01/31 07:29:06.8	88.720	-0.200	-0.610	0.770
2020/01/31 07:29:06.9	88.730	-0.200	-0.570	0.820
2020/01/31 07:29:07.0	88.750	-0.200	-0.540	0.860
2020/01/31 07:29:07.1	88.760	-0.210	-0.500	0.900
2020/01/31 07:29:07.2	88.770	-0.200	-0.450	0.940
2020/01/31 07:29:07.3	88.790	-0.200	-0.410	0.980
2020/01/31 07:29:07.4	88.800	-0.200	-0.360	1.020
2020/01/31 07:29:07.5	88.810	-0.190	-0.320	1.060
2020/01/31 07:29:07.6	88.830	-0.190	-0.270	1.100
2020/01/31 07:29:07.7	88.840	-0.180	-0.220	1.140
2020/01/31 07:29:07.8	88.850	-0.170	-0.160	1.180
2020/01/31 07:29:07.9	88.860	-0.160	-0.110	1.220
2020/01/31 07:29:08.0	88.860	-0.150	-0.060	1.250
2020/01/31 07:29:08.1	88.870	-0.140	-0.010	1.290
2020/01/31 07:29:08.2	88.880	-0.130	0.040	1.320
2020/01/31 07:29:08.3	88.880	-0.120	0.090	1.350
2020/01/31 07:29:08.4	88.890	-0.100	0.140	1.380
2020/01/31 07:29:08.5	88.890	-0.090	0.190	1.410
2020/01/31 07:29:08.6	88.890	-0.080	0.240	1.440
2020/01/31 07:29:08.7	88.900	-0.060	0.290	1.470
2020/01/31 07:29:08.8	88.900	-0.050	0.330	1.490
2020/01/31 07:29:08.9	88.890	-0.030	0.370	1.520
2020/01/31 07:29:09.0	88.890	-0.020	0.410	1.540
2020/01/31 07:29:09.1	88.890	-0.000	0.440	1.560
2020/01/31 07:29:09.2	88.880	0.010	0.470	1.580
2020/01/31 07:29:09.3	88.880	0.020	0.500	1.600
2020/01/31 07:29:09.4	88.870	0.040	0.530	1.620
2020/01/31 07:29:09.5	88.860	0.050	0.550	1.630
2020/01/31 07:29:09.6	88.850	0.060	0.560	1.640
2020/01/31 07:29:09.7	88.830	0.070	0.580	1.660
2020/01/31 07:29:09.8	88.820	0.080	0.580	1.670
2020/01/31 07:29:09.9	88.810	0.100	0.590	1.670
2020/01/31 07:29:10.0	88.790	0.110	0.590	1.680
2020/01/31 07:29:10.1	88.770	0.110	0.590	1.680
2020/01/31 07:29:10.2	88.750	0.120	0.580	1.680
2020/01/31 07:29:10.3	88.740	0.130	0.560	1.680
2020/01/31 07:29:10.4	88.720	0.140	0.550	1.670
2020/01/31 07:29:10.5	88.700	0.150	0.530	1.660
2020/01/31 07:29:10.6	88.690	0.150	0.500	1.650
2020/01/31 07:29:10.7	88.670	0.160	0.480	1.630
2020/01/31 07:29:10.8	88.650	0.160	0.440	1.610
2020/01/31 07:29:10.9	88.640	0.170	0.410	1.580
2020/01/31 07:29:11.0	88.620	0.170	0.370	1.550
2020/01/31 07:29:11.1	88.610	0.180	0.330	1.520
2020/01/31 07:29:11.2	88.600	0.180	0.290	1.490
2020/01/31 07:29:11.3	88.580	0.190	0.240	1.440
2020/01/31 07:29:11.4	88.570	0.190	0.190	1.400
2020/01/31 07:29:11.5	88.560	0.200	0.140	1.360
2020/01/31 07:29:11.6	88.560	0.200	0.090	1.310
2020/01/31 07:29:11.7	88.550	0.210	0.040	1.260
2020/01/31 07:29:11.8	88.540	0.210	-0.010	1.200
2020/01/31 07:29:11.9	88.540	0.220	-0.070	1.150
2020/01/31 07:29:12.0	88.530	0.220	-0.120	1.090
2020/01/31 07:29:12.1	88.530	0.230	-0.170	1.030
2020/01/31 07:29:12.2	88.530	0.240	-0.220	0.970
2020/01/31 07:29:12.3	88.530	0.240	-0.280	0.910
2020/01/31 07:29:12.4	88.530	0.250	-0.330	0.860
2020/01/31 07:29:12.5	88.530	0.250	-0.370	0.800
2020/01/31 07:29:12.6	88.530	0.260	-0.420	0.740
2020/01/31 07:29:12.7	88.530	0.270	-0.460	0.680
2020/01/31 07:29:12.8	88.540	0.270	-0.500	0.630
2020/01/31 07:29:12.9	88.540	0.280	-0.540	0.570
2020/01/31 07:29:13.0	88.550	0.280	-0.570	0.520
2020/01/31 07:29:13.1	88.560	0.290	-0.600	0.460
2020/01/31 07:29:13.2	88.560	0.290	-0.630	0.410
2020/01/31 07:29:13.3	88.570	0.300	-0.650	0.360
2020/01/31 07:29:13.4	88.580	0.300	-0.680	0.320
2020/01/31 07:29:13.5	88.590	0.310	-0.700	0.270
2020/01/31 07:29:13.6	88.610	0.310	-0.720	0.230
2020/01/31 07:29:13.7	88.620	0.310	-0.740	0.180
2020/01/31 07:29:13.8	88.640	0.310	-0.750	0.140
2020/01/31 07:29:13.9	88.650	0.310	-0.760	0.100
2020/01/31 07:29:14.0	88.670	0.310	-0.770	0.060
2020/01/31 07:29:14.1	88.690	0.310	-0.780	0.020
2020/01/31 07:29:14.2	88.710	0.310	-0.790	-0.010
2020/01/31 07:29:14.3	88.730	0.300	-0.790	-0.050
2020/01/31 07:29:14.4	88.750	0.300	-0.800	-0.080
2020/01/31 07:29:14.5	88.770	0.290	-0.800	-0.100
2020/01/31 07:29:14.6	88.790	0.280	-0.800	-0.130
2020/01/31 07:29:14.7	88.810	0.270	-0.790	-0.150
2020/01/31 07:29:14.8	88.830	0.260	-0.790	-0.170
2020/01/31 07:29:14.9	88.850	0.250	-0.780	-0.190
2020/01/31 07:29:15.0	88.870	0.240	-0.770	-0.200
2020/01/31 07:29:15.1	88.890	0.220	-0.760	-0.220
2020/01/31 07:29:15.2	88.910	0.200	-0.740	-0.220
2020/01/31 07:29:15.3	88.920	0.190	-0.720	-0.230
2020/01/31 07:29:15.4	88.940	0.170	-0.700	-0.230
2020/01/31 07:29:15.5	88.950	0.140	-0.680	-0.220
2020/01/31 07:29:15.6	88.960	0.120	-0.650	-0.220
2020/01/31 07:29:15.7	88.980	0.090	-0.610	-0.210
2020/01/31 07:29:15.8	88.990	0.070	-0.580	-0.190
2020/01/31 07:29:15.9	89.000	0.040	-0.540	-0.180
2020/01/31 07:29:16.0	89.010	0.010	-0.490	-0.160
2020/01/31 07:29:16.1	89.010	-0.020	-0.440	-0.130
2020/01/31 07:29:16.2	89.020	-0.050	-0.390	-0.100
2020/01/31 07:29:16.3	89.030	-0.090	-0.340	-0.070
2020/01/31 07:29:16.4	89.030	-0.120	-0.280	-0.040
2020/01/31 07:29:16.5	89.040	-0.150	-0.210	-0.000
2020/01/31 07:29:16.6	89.040	-0.190	-0.150	0.040
2020/01/31 07:29:16.7	89.040	-0.220	-0.080	0.080
2020/01/31 07:29:16.8	89.040	-0.260	-0.010	0.130
2020/01/31 07:29:16.9	89.040	-0.290	0.060	0.180
2020/01/31 07:29:17.0	89.040	-0.330	0.130	0.230
2020/01/31 07:29:17.1	89.050	-0.360	0.200	0.280
2020/01/31 07:29:17.2	89.040	-0.400	0.270	0.330
2020/01/31 07:29:17.3	89.050	-0.430	0.340	0.380
2020/01/31 07:29:17.4	89.040	-0.470	0.420	0.440
2020/01/31 07:29:17.5	89.040	-0.500	0.480	0.500
2020/01/31 07:29:17.6	89.040	-0.530	0.550	0.560
2020/01/31 07:29:17.7	89.040	-0.560	0.610	0.610
2020/01/31 07:29:17.8	89.040	-0.590	0.670	0.670
2020/01/31 07:29:17.9	89.040	-0.610	0.730	0.730
2020/01/31 07:29:18.0	89.040	-0.640	0.780	0.790
2020/01/31 07:29:18.1	89.040	-0.660	0.820	0.850
2020/01/31 07:29:18.2	89.040	-0.680	0.860	0.910
2020/01/31 07:29:18.3	89.040	-0.700	0.900	0.970
2020/01/31 07:29:18.4	89.040	-0.710	0.930	1.020
2020/01/31 07:29:18.5	89.040	-0.720	0.950	1.080
2020/01/31 07:29:18.6	89.040	-0.730	0.960	1.130
2020/01/31 07:29:18.7	89.040	-0.740	0.970	1.190
2020/01/31 07:29:18.8	89.040	-0.740	0.970	1.240
2020/01/31 07:29:18.9	89.040	-0.740	0.970	1.290
2020/01/31 07:29:19.0	89.030	-0.740	0.950	1.330
2020/01/31 07:29:19.1	89.030	-0.730	0.930	1.380
2020/01/31 07:29:19.2	89.030	-0.720	0.900	1.420
2020/01/31 07:29:19.3	89.030	-0.710	0.870	1.460
2020/01/31 07:29:19.4	89.030	-0.700	0.820	1.500
2020/01/31 07:29:19.5	89.020	-0.680	0.770	1.530
2020/01/31 07:29:19.6	89.020	-0.650	0.710	1.570
2020/01/31 07:29:19.7	89.020	-0.630	0.650	1.590
2020/01/31 07:29:19.8	89.020	-0.600	0.580	1.620
2020/01/31 07:29:19.9	89.010	-0.570	0.500	1.640
2020/01/31 07:29:20.0	89.010	-0.530	0.420	1.670
2020/01/31 07:29:20.1	89.010	-0.490	0.330	1.680
2020/01/31 07:29:20.2	89.010	-0.460	0.240	1.700
2020/01/31 07:29:20.3	89.010	-0.410	0.140	1.710
2020/01/31 07:29:20.4	89.010	-0.370	0.040	1.720
2020/01/31 07:29:20.5	89.000	-0.320	-0.060	1.730
2020/01/31 07:29:20.6	89.000	-0.280	-0.160	1.730
2020/01/31 07:29:20.7	89.000	-0.230	-0.270	1.730
2020/01/31 07:29:20.8	89.000	-0.180	-0.370	1.720
2020/01/31 07:29:20.9	89.010	-0.130	-0.470	1.720
2020/01/31 07:29:21.0	89.010	-0.080	-0.580	1.710
2020/01/31 07:29:21.1	89.010	-0.020	-0.680	1.700
2020/01/31 07:29:21.2	89.010	0.030	-0.770	1.680
2020/01/31 07:29:21.3	89.010	0.080	-0.870	1.660
2020/01/31 07:29:21.4	89.020	0.130	-0.960	1.640
2020/01/31 07:29:21.5	89.020	0.180	-1.050	1.620
2020/01/31 07:29:21.6	89.020	0.230	-1.130	1.600
2020/01/31 07:29:21.7	89.030	0.280	-1.210	1.580
2020/01/31 07:29:21.8	89.030	0.320	-1.280	1.550
2020/01/31 07:29:21.9	89.040	0.370	-1.340	1.520
2020/01/31 07:29:22.0	89.050	0.410	-1.400	1.490
2020/01/31 07:29:22.1	89.050	0.450	-1.450	1.460
2020/01/31 07:29:22.2	89.060	0.490	-1.490	1.430
2020/01/31 07:29:22.3	89.060	0.520	-1.530	1.400
2020/01/31 07:29:22.4	89.070	0.550	-1.550	1.360
2020/01/31 07:29:22.5	89.080	0.580	-1.570	1.330
2020/01/31 07:29:22.6	89.090	0.610	-1.580	1.290
2020/01/31 07:29:22.7	89.100	0.630	-1.580	1.250
2020/01/31 07:29:22.8	89.110	0.650	-1.570	1.220
2020/01/31 07:29:22.9	89.120	0.660	-1.550	1.180
2020/01/31 07:29:23.0	89.130	0.680	-1.530	1.140
2020/01/31 07:29:23.1	89.150	0.680	-1.490	1.100
2020/01/31 07:29:23.2	89.160	0.690	-1.450	1.060
2020/01/31 07:29:23.3	89.170	0.690	-1.400	1.020
2020/01/31 07:29:23.4	89.180	0.690	-1.340	0.980
2020/01/31 07:29:23.5	89.190	0.680	-1.270	0.950
2020/01/31 07:29:23.6	89.210	0.670	-1.200	0.910
2020/01/31 07:29:23.7	89.220	0.660	-1.120	0.870
2020/01/31 07:29:23.8	89.230	0.650	-1.040	0.840
2020/01/31 07:29:23.9	89.240	0.630	-0.950	0.810
2020/01/31 07:29:24.0	89.260	0.610	-0.860	0.780
2020/01/31 07:29:24.1	89.270	0.590	-0.760	0.750
2020/01/31 07:29:24.2	89.280	0.560	-0.660	0.720
2020/01/31 07:29:24.3	89.300	0.530	-0.560	0.700
2020/01/31 07:29:24.4	89.310	0.510	-0.450	0.680
2020/01/31 07:29:24.5	89.320	0.480	-0.350	0.660
2020/01/31 07:29:24.6	89.330	0.440	-0.240	0.640
2020/01/31 07:29:24.7	89.350	0.410	-0.130	0.620
2020/01/31 07:29:24.8	89.360	0.380	-0.030	0.610
2020/01/31 07:29:24.9	89.370	0.340	0.080	0.600
2020/01/31 07:29:25.0	89.380	0.310	0.180	0.600
2020/01/31 07:29:25.1	89.400	0.270	0.280	0.590
2020/01/31 07:29:25.2	89.410	0.240	0.370	0.590
2020/01/31 07:29:25.3	89.420	0.200	0.470	0.590
2020/01/31 07:29:25.4	89.430	0.160	0.560	0.600
2020/01/31 07:29:25.5	89.440	0.130	0.640	0.610
2020/01/31 07:29:25.6	89.450	0.100	0.720	0.620
2020/01/31 07:29:25.7	89.450	0.060	0.800	0.630
2020/01/31 07:29:25.8	89.460	0.030	0.870	0.640
2020/01/31 07:29:25.9	89.470	-0.000	0.930	0.660
2020/01/31 07:29:26.0	89.470	-0.040	0.990	0.680
2020/01/31 07:29:26.1	89.480	-0.070	1.040	0.700
2020/01/31 07:29:26.2	89.480	-0.090	1.080	0.720
2020/01/31 07:29:26.3	89.480	-0.120	1.110	0.740
2020/01/31 07:29:26.4	89.480	-0.150	1.140	0.760
2020/01/31 07:29:26.5	89.490	-0.170	1.160	0.780
2020/01/31 07:29:26.6	89.490	-0.200	1.180	0.800
2020/01/31 07:29:26.7	89.490	-0.220	1.190	0.820
2020/01/31 07:29:26.8	89.490	-0.240	1.190	0.830
2020/01/31 07:29:26.9	89.490	-0.260	1.180	0.850
2020/01/31 07:29:27.0	89.490	-0.280	1.170	0.860
2020/01/31 07:29:27.1	89.490	-0.290	1.150	0.880
2020/01/31 07:29:27.2	89.490	-0.310	1.120	0.890
2020/01/31 07:29:27.3	89.490	-0.320	1.090	0.900
2020/01/31 07:29:27.4	89.500	-0.330	1.050	0.900
2020/01/31 07:29:27.5	89.500	-0.340	1.000	0.910
2020/01/31 07:29:27.6	89.500	-0.350	0.950	0.910
2020/01/31 07:29:27.7	89.510	-0.360	0.900	0.920
2020/01/31 07:29:27.8	89.510	-0.370	0.840	0.920
2020/01/31 07:29:27.9	89.510	-0.370	0.780	0.920
2020/01/31 07:29:28.0	89.520	-0.380	0.710	0.920
2020/01/31 07:29:28.1	89.530	-0.380	0.640	0.930
2020/01/31 07:29:28.2	89.530	-0.390	0.560	0.930
2020/01/31 07:29:28.3	89.540	-0.390	0.480	0.930
2020/01/31 07:29:28.4	89.540	-0.390	0.400	0.940
2020/01/31 07:29:28.5	89.550	-0.390	0.320	0.940
2020/01/31 07:29:28.6	89.560	-0.390	0.240	0.950
2020/01/31 07:29:28.7	89.560	-0.380	0.160	0.960
2020/01/31 07:29:28.8	89.570	-0.380	0.070	0.970
2020/01/31 07:29:28.9	89.580	-0.380	-0.010	0.980
2020/01/31 07:29:29.0	89.590	-0.370	-0.100	0.990
2020/01/31 07:29:29.1	89.590	-0.360	-0.180	1.000
2020/01/31 07:29:29.2	89.600	-0.360	-0.260	1.020
2020/01/31 07:29:29.3	89.610	-0.350	-0.350	1.030
2020/01/31 07:29:29.4	89.610	-0.340	-0.430	1.050
2020/01/31 07:29:29.5	89.620	-0.330	-0.510	1.070
2020/01/31 07:29:29.6	89.630	-0.320	-0.580	1.090
2020/01/31 07:29:29.7	89.640	-0.300	-0.650	1.100
2020/01/31 07:29:29.8	89.640	-0.290	-0.720	1.120
2020/01/31 07:29:29.9	89.650	-0.280	-0.780	1.140
2020/01/31 07:29:30.0	89.660	-0.260	-0.840	1.150
2020/01/31 07:29:30.1	89.670	-0.240	-0.900	1.170
2020/01/31 07:29:30.2	89.680	-0.230	-0.950	1.180
2020/01/31 07:29:30.3	89.690	-0.210	-0.990	1.200
2020/01/31 07:29:30.4	89.700	-0.190	-1.030	1.210
2020/01/31 07:29:30.5	89.710	-0.170	-1.060	1.220
2020/01/31 07:29:30.6	89.720	-0.150	-1.090	1.230
2020/01/31 07:29:30.7	89.740	-0.120	-1.120	1.230
2020/01/31 07:29:30.8	89.750	-0.100	-1.130	1.240
2020/01/31 07:29:30.9	89.760	-0.080	-1.150	1.250
2020/01/31 07:29:31.0	89.770	-0.050	-1.150	1.250
2020/01/31 07:29:31.1	89.790	-0.030	-1.150	1.250
2020/01/31 07:29:31.2	89.800	-0.000	-1.150	1.250
2020/01/31 07:29:31.3	89.810	0.030	-1.140	1.250
2020/01/31 07:29:31.4	89.830	0.050	-1.130	1.250
2020/01/31 07:29:31.5	89.840	0.080	-1.110	1.250
2020/01/31 07:29:31.6	89.850	0.100	-1.080	1.250
2020/01/31 07:29:31.7	89.870	0.130	-1.060	1.250
2020/01/31 07:29:31.8	89.880	0.150	-1.020	1.250
2020/01/31 07:29:31.9	89.900	0.180	-0.990	1.260
2020/01/31 07:29:32.0	89.910	0.200	-0.950	1.260
2020/01/31 07:29:32.1	89.920	0.230	-0.910	1.260
2020/01/31 07:29:32.2	89.930	0.250	-0.860	1.270
2020/01/31 07:29:32.3	89.950	0.270	-0.810	1.270
2020/01/31 07:29:32.4	89.960	0.290	-0.760	1.280
2020/01/31 07:29:32.5	89.970	0.310	-0.710	1.290
2020/01/31 07:29:32.6	89.980	0.330	-0.650	1.310
2020/01/31 07:29:32.7	89.980	0.340	-0.600	1.320
2020/01/31 07:29:32.8	89.990	0.360	-0.540	1.340
2020/01/31 07:29:32.9	90.000	0.370	-0.480	1.360
2020/01/31 07:29:33.0	90.010	0.380	-0.430	1.380
2020/01/31 07:29:33.1	90.010	0.390	-0.370	1.400
2020/01/31 07:29:33.2	90.020	0.390	-0.310	1.420
2020/01/31 07:29:33.3	90.020	0.400	-0.250	1.450
2020/01/31 07:29:33.4	90.020	0.400	-0.200	1.470
2020/01/31 07:29:33.5	90.020	0.400	-0.140	1.500
2020/01/31 07:29:33.6	90.020	0.400	-0.090	1.530
2020/01/31 07:29:33.7	90.030	0.390	-0.040	1.550
2020/01/31 07:29:33.8	90.030	0.390	0.010	1.580
2020/01/31 07:29:33.9	90.020	0.380	0.050	1.600
2020/01/31 07:29:34.0	90.020	0.380	0.100	1.630
2020/01/31 07:29:34.1	90.020	0.370	0.140	1.650
2020/01/31 07:29:34.2	90.010	0.350	0.170	1.670
2020/01/31 07:29:34.3	90.010	0.340	0.210	1.690
2020/01/31 07:29:34.4	90.000	0.330	0.230	1.710
2020/01/31 07:29:34.5	90.000	0.320	0.260	1.720
2020/01/31 07:29:34.6	89.990	0.300	0.280	1.740
2020/01/31 07:29:34.7	89.980	0.290	0.290	1.750
2020/01/31 07:29:34.8	89.980	0.270	0.300	1.750
2020/01/31 07:29:34.9	89.970	0.260	0.310	1.760
2020/01/31 07:29:35.0	89.960	0.240	0.310	1.760
2020/01/31 07:29:35.1	89.950	0.230	0.300	1.760
2020/01/31 07:29:35.2	89.950	0.210	0.300	1.760
2020/01/31 07:29:35.3	89.940	0.200	0.280	1.750
2020/01/31 07:29:35.4	89.930	0.180	0.270	1.740
2020/01/31 07:29:35.5	89.920	0.170	0.250	1.730
2020/01/31 07:29:35.6	89.920	0.150	0.230	1.710
2020/01/31 07:29:35.7	89.910	0.140	0.200	1.690
2020/01/31 07:29:35.8	89.900	0.130	0.170	1.670
2020/01/31 07:29:35.9	89.900	0.120	0.140	1.650
2020/01/31 07:29:36.0	89.890	0.110	0.110	1.630
2020/01/31 07:29:36.1	89.880	0.100	0.080	1.600
2020/01/31 07:29:36.2	89.880	0.090	0.050	1.580
2020/01/31 07:29:36.3	89.880	0.080	0.010	1.550
2020/01/31 07:29:36.4	89.870	0.070	-0.020	1.520
2020/01/31 07:29:36.5	89.870	0.070	-0.050	1.490
2020/01/31 07:29:36.6	89.860	0.060	-0.080	1.460
2020/01/31 07:29:36.7	89.860	0.060	-0.110	1.430
2020/01/31 07:29:36.8	89.860	0.050	-0.140	1.410
2020/01/31 07:29:36.9	89.850	0.050	-0.160	1.380
2020/01/31 07:29:37.0	89.850	0.040	-0.180	1.350
2020/01/31 07:29:37.1	89.850	0.040	-0.200	1.320
2020/01/31 07:29:37.2	89.850	0.030	-0.210	1.300
2020/01/31 07:29:37.3	89.850	0.030	-0.220	1.270
2020/01/31 07:29:37.4	89.840	0.020	-0.230	1.250
2020/01/31 07:29:37.5	89.840	0.020	-0.230	1.220
2020/01/31 07:29:37.6	89.840	0.010	-0.230	1.200
2020/01/31 07:29:37.7	89.840	0.000	-0.220	1.170
2020/01/31 07:29:37.8	89.850	-0.000	-0.210	1.150
2020/01/31 07:29:37.9	89.850	-0.010	-0.200	1.120
2020/01/31 07:29:38.0	89.850	-0.020	-0.180	1.090
2020/01/31 07:29:38.1	89.860	-0.040	-0.160	1.070
2020/01/31 07:29:38.2	89.860	-0.050	-0.130	1.040
2020/01/31 07:29:38.3	89.870	-0.060	-0.110	1.010
2020/01/31 07:29:38.4	89.880	-0.080	-0.080	0.990
2020/01/31 07:29:38.5	89.890	-0.100	-0.050	0.960
2020/01/31 07:29:38.6	89.900	-0.110	-0.020	0.930
2020/01/31 07:29:38.7	89.910	-0.130	0.010	0.900
2020/01/31 07:29:38.8	89.920	-0.150	0.040	0.880
2020/01/31 07:29:38.9	89.930	-0.180	0.080	0.850
2020/01/31 07:29:39.0	89.940	-0.200	0.110	0.820
2020/01/31 07:29:39.1	89.950	-0.220	0.140	0.800
2020/01/31 07:29:39.2	89.970	-0.250	0.170	0.770
2020/01/31 07:29:39.3	89.980	-0.270	0.190	0.750
2020/01/31 07:29:39.4	89.990	-0.300	0.220	0.730
2020/01/31 07:29:39.5	90.000	-0.320	0.250	0.710
2020/01/31 07:29:39.6	90.010	-0.350	0.270	0.700
2020/01/31 07:29:39.7	90.020	-0.370	0.290	0.690
2020/01/31 07:29:39.8	90.030	-0.400	0.310	0.680
2020/01/31 07:29:39.9	90.030	-0.420	0.320	0.670
2020/01/31 07:29:40.0	90.040	-0.440	0.330	0.670
2020/01/31 07:29:40.1	90.040	-0.470	0.340	0.670
2020/01/31 07:29:40.2	90.040	-0.480	0.340	0.670
2020/01/31 07:29:40.3	90.050	-0.500	0.340	0.680
2020/01/31 07:29:40.4	90.050	-0.520	0.330	0.690
2020/01/31 07:29:40.5	90.040	-0.530	0.320	0.710
2020/01/31 07:29:40.6	90.040	-0.550	0.310	0.720
2020/01/31 07:29:40.7	90.030	-0.560	0.290	0.740
2020/01/31 07:29:40.8	90.030	-0.560	0.270	0.750
2020/01/31 07:29:40.9	90.020	-0.570	0.250	0.770
2020/01/31 07:29:41.0	90.010	-0.570	0.220	0.790
2020/01/31 07:29:41.1	90.000	-0.570	0.190	0.810
2020/01/31 07:29:41.2	89.990	-0.560	0.150	0.840
2020/01/31 07:29:41.3	89.980	-0.550	0.110	0.860
2020/01/31 07:29:41.4	89.970	-0.540	0.070	0.880
2020/01/31 07:29:41.5	89.960	-0.530	0.030	0.900
2020/01/31 07:29:41.6	89.950	-0.510	-0.020	0.920
2020/01/31 07:29:41.7	89.940	-0.490	-0.060	0.940
2020/01/31 07:29:41.8	89.930	-0.470	-0.110	0.960
2020/01/31 07:29:41.9	89.920	-0.440	-0.170	0.980
2020/01/31 07:29:42.0	89.910	-0.420	-0.220	0.990
2020/01/31 07:29:42.1	89.910	-0.390	-0.270	1.010
2020/01/31 07:29:42.2	89.900	-0.350	-0.330	1.030
2020/01/31 07:29:42.3	89.900	-0.320	-0.390	1.040
2020/01/31 07:29:42.4	89.890	-0.280	-0.440	1.050
2020/01/31 07:29:42.5	89.890	-0.240	-0.500	1.070
2020/01/31 07:29:42.6	89.880	-0.200	-0.550	1.080
2020/01/31 07:29:42.7	89.880	-0.160	-0.600	1.090
2020/01/31 07:29:42.8	89.880	-0.120	-0.660	1.100
2020/01/31 07:29:42.9	89.880	-0.080	-0.710	1.110
2020/01/31 07:29:43.0	89.880	-0.030	-0.760	1.120
2020/01/31 07:29:43.1	89.880	0.010	-0.800	1.130
2020/01/31 07:29:43.2	89.890	0.060	-0.850	1.130
2020/01/31 07:29:43.3	89.890	0.100	-0.890	1.140
2020/01/31 07:29:43.4	89.900	0.150	-0.930	1.140
2020/01/31 07:29:43.5	89.910	0.190	-0.960	1.150
2020/01/31 07:29:43.6	89.920	0.240	-0.990	1.150
2020/01/31 07:29:43.7	89.930	0.280	-1.010	1.150
2020/01/31 07:29:43.8	89.940	0.320	-1.040	1.150
2020/01/31 07:29:43.9	89.960	0.360	-1.050	1.140
2020/01/31 07:29:44.0	89.970	0.400	-1.060	1.140
2020/01/31 07:29:44.1	89.990	0.430	-1.070	1.130
2020/01/31 07:29:44.2	90.000	0.470	-1.070	1.130
2020/01/31 07:29:44.3	90.020	0.500	-1.070	1.120
2020/01/31 07:29:44.4	90.040	0.530	-1.060	1.110
2020/01/31 07:29:44.5	90.060	0.550	-1.040	1.100
2020/01/31 07:29:44.6	90.070	0.580	-1.020	1.090
2020/01/31 07:29:44.7	90.090	0.600	-1.000	1.070
2020/01/31 07:29:44.8	90.110	0.620	-0.970	1.060
2020/01/31 07:29:44.9	90.130	0.640	-0.930	1.050
2020/01/31 07:29:45.0	90.150	0.650	-0.890	1.030
2020/01/31 07:29:45.1	90.160	0.660	-0.840	1.010
2020/01/31 07:29:45.2	90.180	0.670	-0.800	1.000
2020/01/31 07:29:45.3	90.190	0.670	-0.740	0.980
2020/01/31 07:29:45.4	90.210	0.670	-0.680	0.970
2020/01/31 07:29:45.5	90.220	0.670	-0.620	0.950
2020/01/31 07:29:45.6	90.230	0.670	-0.560	0.940
2020/01/31 07:29:45.7	90.240	0.660	-0.490	0.920
2020/01/31 07:29:45.8	90.240	0.660	-0.420	0.910
2020/01/31 07:29:45.9	90.250	0.650	-0.350	0.900
2020/01/31 07:29:46.0	90.250	0.630	-0.280	0.890
2020/01/31 07:29:46.1	90.260	0.620	-0.210	0.880
2020/01/31 07:29:46.2	90.250	0.600	-0.130	0.880
2020/01/31 07:29:46.3	90.250	0.580	-0.060	0.870
2020/01/31 07:29:46.4	90.250	0.560	0.020	0.870
2020/01/31 07:29:46.5	90.240	0.540	0.090	0.870
2020/01/31 07:29:46.6	90.230	0.510	0.160	0.870
2020/01/31 07:29:46.7	90.220	0.490	0.230	0.880
2020/01/31 07:29:46.8	90.210	0.460	0.300	0.890
2020/01/31 07:29:46.9	90.190	0.430	0.370	0.900
2020/01/31 07:29:47.0	90.180	0.410	0.440	0.910
2020/01/31 07:29:47.1	90.160	0.380	0.500	0.930
2020/01/31 07:29:47.2	90.140	0.350	0.560	0.940
2020/01/31 07:29:47.3	90.120	0.310	0.610	0.960
2020/01/31 07:29:47.4	90.100	0.280	0.660	0.980
2020/01/31 07:29:47.5	90.080	0.250	0.710	1.000
2020/01/31 07:29:47.6	90.050	0.220	0.750	1.030
2020/01/31 07:29:47.7	90.030	0.190	0.780	1.060
2020/01/31 07:29:47.8	90.000	0.150	0.820	1.080
2020/01/31 07:29:47.9	89.970	0.120	0.840	1.110
2020/01/31 07:29:48.0	89.940	0.090	0.860	1.140
2020/01/31 07:29:48.1	89.910	0.050	0.880	1.160
2020/01/31 07:29:48.2	89.880	0.020	0.890	1.190
2020/01/31 07:29:48.3	89.860	-0.010	0.900	1.220
2020/01/31 07:29:48.4	89.830	-0.050	0.890	1.250
2020/01/31 07:29:48.5	89.800	-0.080	0.890	1.270
2020/01/31 07:29:48.6	89.770	-0.110	0.880	1.300
2020/01/31 07:29:48.7	89.740	-0.140	0.860	1.320
2020/01/31 07:29:48.8	89.720	-0.170	0.840	1.340
2020/01/31 07:29:48.9	89.690	-0.200	0.820	1.360
2020/01/31 07:29:49.0	89.670	-0.230	0.790	1.380
2020/01/31 07:29:49.1	89.650	-0.260	0.760	1.390
2020/01/31 07:29:49.2	89.630	-0.290	0.720	1.410
2020/01/31 07:29:49.3	89.610	-0.320	0.670	1.420
2020/01/31 07:29:49.4	89.600	-0.350	0.630	1.420
2020/01/31 07:29:49.5	89.590	-0.370	0.580	1.430
2020/01/31 07:29:49.6	89.580	-0.400	0.530	1.430
2020/01/31 07:29:49.7	89.570	-0.420	0.480	1.430
2020/01/31 07:29:49.8	89.570	-0.440	0.420	1.430
2020/01/31 07:29:49.9	89.570	-0.470	0.360	1.420
2020/01/31 07:29:50.0	89.570	-0.490	0.300	1.410
2020/01/31 07:29:50.1	89.570	-0.510	0.240	1.390
2020/01/31 07:29:50.2	89.580	-0.520	0.180	1.380
2020/01/31 07:29:50.3	89.590	-0.540	0.110	1.360
2020/01/31 07:29:50.4	89.610	-0.550	0.040	1.340
2020/01/31 07:29:50.5	89.630	-0.560	-0.030	1.310
2020/01/31 07:29:50.6	89.650	-0.570	-0.090	1.290
2020/01/31 07:29:50.7	89.670	-0.580	-0.160	1.260
2020/01/31 07:29:50.8	89.700	-0.580	-0.230	1.230
2020/01/31 07:29:50.9	89.730	-0.580	-0.290	1.200
2020/01/31 07:29:51.0	89.760	-0.580	-0.360	1.170
2020/01/31 07:29:51.1	89.790	-0.580	-0.420	1.140
2020/01/31 07:29:51.2	89.820	-0.570	-0.490	1.110
2020/01/31 07:29:51.3	89.860	-0.560	-0.550	1.070
2020/01/31 07:29:51.4	89.900	-0.550	-0.610	1.040
2020/01/31 07:29:51.5	89.930	-0.530	-0.660	1.010
2020/01/31 07:29:51.6	89.970	-0.510	-0.720	0.980
2020/01/31 07:29:51.7	90.010	-0.490	-0.770	0.950
2020/01/31 07:29:51.8	90.040	-0.460	-0.830	0.930
2020/01/31 07:29:51.9	90.080	-0.440	-0.880	0.900
2020/01/31 07:29:52.0	90.120	-0.410	-0.920	0.880
2020/01/31 07:29:52.1	90.150	-0.370	-0.970	0.860
2020/01/31 07:29:52.2	90.190	-0.340	-1.010	0.840
2020/01/31 07:29:52.3	90.220	-0.300	-1.050	0.830
2020/01/31 07:29:52.4	90.260	-0.270	-1.080	0.810
2020/01/31 07:29:52.5	90.290	-0.230	-1.110	0.800
2020/01/31 07:29:52.6	90.320	-0.190	-1.130	0.790
2020/01/31 07:29:52.7	90.350	-0.150	-1.150	0.790
2020/01/31 07:29:52.8	90.370	-0.100	-1.170	0.790
2020/01/31 07:29:52.9	90.400	-0.060	-1.180	0.790
2020/01/31 07:29:53.0	90.420	-0.020	-1.180	0.790
2020/01/31 07:29:53.1	90.430	0.020	-1.180	0.800
2020/01/31 07:29:53.2	90.450	0.050	-1.180	0.810
2020/01/31 07:29:53.3	90.460	0.090	-1.170	0.820
2020/01/31 07:29:53.4	90.470	0.120	-1.150	0.830
2020/01/31 07:29:53.5	90.470	0.160	-1.120	0.850
2020/01/31 07:29:53.6	90.470	0.190	-1.090	0.870
2020/01/31 07:29:53.7	90.470	0.210	-1.060	0.900
2020/01/31 07:29:53.8	90.460	0.240	-1.020	0.920
2020/01/31 07:29:53.9	90.450	0.260	-0.970	0.950
2020/01/31 07:29:54.0	90.430	0.280	-0.920	0.980
2020/01/31 07:29:54.1	90.410	0.290	-0.870	1.020
2020/01/31 07:29:54.2	90.390	0.300	-0.810	1.050
2020/01/31 07:29:54.3	90.370	0.310	-0.740	1.090
2020/01/31 07:29:54.4	90.340	0.310	-0.670	1.120
2020/01/31 07:29:54.5	90.320	0.310	-0.600	1.160
2020/01/31 07:29:54.6	90.290	0.310	-0.520	1.200
2020/01/31 07:29:54.7	90.250	0.300	-0.450	1.230
2020/01/31 07:29:54.8	90.220	0.290	-0.370	1.270
2020/01/31 07:29:54.9	90.190	0.280	-0.290	1.310
2020/01/31 07:29:55.0	90.150	0.260	-0.210	1.340
2020/01/31 07:29:55.1	90.120	0.240	-0.130	1.370
2020/01/31 07:29:55.2	90.080	0.220	-0.060	1.410
2020/01/31 07:29:55.3	90.040	0.200	0.020	1.440
2020/01/31 07:29:55.4	90.010	0.170	0.100	1.470
2020/01/31 07:29:55.5	89.970	0.140	0.170	1.500
2020/01/31 07:29:55.6	89.940	0.120	0.240	1.520
2020/01/31 07:29:55.7	89.910	0.090	0.310	1.540
2020/01/31 07:29:55.8	89.870	0.060	0.370	1.560
2020/01/31 07:29:55.9	89.840	0.030	0.430	1.580
2020/01/31 07:29:56.0	89.810	-0.000	0.480	1.590
2020/01/31 07:29:56.1	89.780	-0.030	0.530	1.600
2020/01/31 07:29:56.2	89.760	-0.060	0.570	1.610
2020/01/31 07:29:56.3	89.730	-0.080	0.610	1.610
2020/01/31 07:29:56.4	89.710	-0.110	0.640	1.610
2020/01/31 07:29:56.5	89.690	-0.130	0.660	1.610
2020/01/31 07:29:56.6	89.670	-0.160	0.680	1.600
2020/01/31 07:29:56.7	89.660	-0.180	0.690	1.590
2020/01/31 07:29:56.8	89.650	-0.190	0.700	1.580
2020/01/31 07:29:56.9	89.630	-0.210	0.690	1.560
2020/01/31 07:29:57.0	89.630	-0.220	0.680	1.540
2020/01/31 07:29:57.1	89.620	-0.240	0.670	1.510
2020/01/31 07:29:57.2	89.620	-0.240	0.650	1.490
2020/01/31 07:29:57.3	89.620	-0.250	0.620	1.460
2020/01/31 07:29:57.4	89.620	-0.260	0.580	1.430
2020/01/31 07:29:57.5	89.620	-0.260	0.550	1.390
2020/01/31 07:29:57.6	89.630	-0.260	0.500	1.360
2020/01/31 07:29:57.7	89.640	-0.250	0.460	1.320
2020/01/31 07:29:57.8	89.640	-0.250	0.400	1.280
2020/01/31 07:29:57.9	89.660	-0.240	0.350	1.240
2020/01/31 07:29:58.0	89.670	-0.230	0.300	1.200
2020/01/31 07:29:58.1	89.680	-0.220	0.240	1.160
2020/01/31 07:29:58.2	89.690	-0.210	0.180	1.110
2020/01/31 07:29:58.3	89.710	-0.190	0.120	1.070
2020/01/31 07:29:58.4	89.720	-0.180	0.060	1.020
2020/01/31 07:29:58.5	89.740	-0.160	0.000	0.980
2020/01/31 07:29:58.6	89.750	-0.150	-0.050	0.930
2020/01/31 07:29:58.7	89.770	-0.130	-0.100	0.880
2020/01/31 07:29:58.8	89.790	-0.110	-0.150	0.830
2020/01/31 07:29:58.9	89.800	-0.090	-0.200	0.780
2020/01/31 07:29:59.0	89.820	-0.070	-0.240	0.730
2020/01/31 07:29:59.1	89.840	-0.050	-0.280	0.690
2020/01/31 07:29:59.2	89.850	-0.030	-0.320	0.640
2020/01/31 07:29:59.3	89.870	-0.020	-0.350	0.590
2020/01/31 07:29:59.4	89.890	0.000	-0.380	0.540
2020/01/31 07:29:59.5	89.900	0.020	-0.400	0.500
2020/01/31 07:29:59.6	89.920	0.040	-0.420	0.450
2020/01/31 07:29:59.7	89.930	0.050	-0.430	0.410
2020/01/31 07:29:59.8	89.940	0.070	-0.450	0.370
2020/01/31 07:29:59.9	89.950	0.080	-0.450	0.330
2020/01/31 07:30:00.0	89.960	0.090	-0.460	0.300
2020/01/31 07:30:00.1	89.960	0.100	-0.460	0.260
2020/01/31 07:30:00.2	89.970	0.110	-0.460	0.230
2020/01/31 07:30:00.3	89.970	0.120	-0.450	0.210
2020/01/31 07:30:00.4	89.970	0.130	-0.440	0.180
2020/01/31 07:30:00.5	89.970	0.130	-0.440	0.160
2020/01/31 07:30:00.6	89.960	0.140	-0.420	0.130
2020/01/31 07:30:00.7	89.960	0.140	-0.410	0.110
2020/01/31 07:30:00.8	89.960	0.140	-0.400	0.100
2020/01/31 07:30:00.9	89.950	0.140	-0.380	0.080
2020/01/31 07:30:01.0	89.940	0.140	-0.370	0.070
2020/01/31 07:30:01.1	89.930	0.130	-0.350	0.060
2020/01/31 07:30:01.2	89.920	0.130	-0.340	0.050
2020/01/31 07:30:01.3	89.910	0.130	-0.320	0.040
2020/01/31 07:30:01.4	89.900	0.120	-0.300	0.040
2020/01/31 07:30:01.5	89.890	0.110	-0.290	0.040
2020/01/31 07:30:01.6	89.880	0.110	-0.270	0.040
2020/01/31 07:30:01.7	89.860	0.100	-0.260	0.040
2020/01/31 07:30:01.8	89.850	0.090	-0.250	0.050
2020/01/31 07:30:01.9	89.840	0.090	-0.240	0.060
2020/01/31 07:30:02.0	89.830	0.080	-0.230	0.070
2020/01/31 07:30:02.1	89.810	0.070	-0.220	0.080
2020/01/31 07:30:02.2	89.800	0.070	-0.210	0.090
2020/01/31 07:30:02.3	89.790	0.060	-0.200	0.110
2020/01/31 07:30:02.4	89.780	0.050	-0.200	0.130
2020/01/31 07:30:02.5	89.770	0.050	-0.190	0.150
2020/01/31 07:30:02.6	89.760	0.050	-0.190	0.170
2020/01/31 07:30:02.7	89.750	0.040	-0.190	0.190
2020/01/31 07:30:02.8	89.740	0.040	-0.190	0.210
2020/01/31 07:30:02.9	89.740	0.040	-0.190	0.240
2020/01/31 07:30:03.0	89.740	0.040	-0.190	0.260
2020/01/31 07:30:03.1	89.730	0.040	-0.190	0.290
2020/01/31 07:30:03.2	89.730	0.040	-0.190	0.320
2020/01/31 07:30:03.3	89.730	0.050	-0.200	0.340
2020/01/31 07:30:03.4	89.740	0.050	-0.200	0.370
2020/01/31 07:30:03.5	89.740	0.060	-0.200	0.400
2020/01/31 07:30:03.6	89.740	0.060	-0.210	0.430
2020/01/31 07:30:03.7	89.750	0.070	-0.210	0.460
2020/01/31 07:30:03.8	89.760	0.080	-0.220	0.500
2020/01/31 07:30:03.9	89.770	0.090	-0.220	0.530
2020/01/31 07:30:04.0	89.780	0.090	-0.220	0.570
2020/01/31 07:30:04.1	89.790	0.100	-0.230	0.600
2020/01/31 07:30:04.2	89.800	0.110	-0.230	0.640
2020/01/31 07:30:04.3	89.810	0.120	-0.240	0.680
2020/01/31 07:30:04.4	89.820	0.130	-0.240	0.720
2020/01/31 07:30:04.5	89.830	0.140	-0.240	0.770
2020/01/31 07:30:04.6	89.840	0.150	-0.240	0.810
2020/01/31 07:30:04.7	89.840	0.160	-0.240	0.850
2020/01/31 07:30:04.8	89.850	0.170	-0.240	0.890
2020/01/31 07:30:04.9	89.860	0.180	-0.240	0.940
2020/01/31 07:30:05.0	89.860	0.180	-0.230	0.980
2020/01/31 07:30:05.1	89.860	0.190	-0.230	1.030
2020/01/31 07:30:05.2	89.860	0.190	-0.220	1.080
2020/01/31 07:30:05.3	89.860	0.200	-0.220	1.120
2020/01/31 07:30:05.4	89.860	0.200	-0.210	1.170
2020/01/31 07:30:05.5	89.850	0.200	-0.200	1.210
2020/01/31 07:30:05.6	89.840	0.200	-0.190	1.250
2020/01/31 07:30:05.7	89.840	0.200	-0.180	1.290
2020/01/31 07:30:05.8	89.830	0.190	-0.170	1.330
2020/01/31 07:30:05.9	89.820	0.190	-0.160	1.370
2020/01/31 07:30:06.0	89.810	0.180	-0.150	1.410
2020/01/31 07:30:06.1	89.800	0.170	-0.130	1.440
2020/01/31 07:30:06.2	89.780	0.160	-0.120	1.470
2020/01/31 07:30:06.3	89.770	0.150	-0.100	1.500
2020/01/31 07:30:06.4	89.750	0.140	-0.090	1.520
2020/01/31 07:30:06.5	89.740	0.120	-0.070	1.550
2020/01/31 07:30:06.6	89.720	0.100	-0.060	1.570
2020/01/31 07:30:06.7	89.710	0.090	-0.050	1.590
2020/01/31 07:30:06.8	89.690	0.070	-0.030	1.610
2020/01/31 07:30:06.9	89.680	0.050	-0.020	1.620
2020/01/31 07:30:07.0	89.660	0.030	-0.010	1.640
2020/01/31 07:30:07.1	89.650	0.010	0.000	1.650
2020/01/31 07:30:07.2	89.630	-0.010	0.010	1.670
2020/01/31 07:30:07.3	89.620	-0.030	0.020	1.680
2020/01/31 07:30:07.4	89.600	-0.050	0.020	1.690
2020/01/31 07:30:07.5	89.580	-0.070	0.030	1.700
2020/01/31 07:30:07.6	89.570	-0.090	0.030	1.710
2020/01/31 07:30:07.7	89.550	-0.110	0.040	1.710
2020/01/31 07:30:07.8	89.540	-0.130	0.040	1.720
2020/01/31 07:30:07.9	89.530	-0.140	0.040	1.720
2020/01/31 07:30:08.0	89.510	-0.160	0.030	1.720
2020/01/31 07:30:08.1	89.500	-0.170	0.030	1.730
2020/01/31 07:30:08.2	89.490	-0.180	0.020	1.720
2020/01/31 07:30:08.3	89.470	-0.190	0.020	1.720
2020/01/31 07:30:08.4	89.460	-0.200	0.010	1.710
2020/01/31 07:30:08.5	89.450	-0.200	-0.010	1.710
2020/01/31 07:30:08.6	89.440	-0.210	-0.020	1.700
2020/01/31 07:30:08.7	89.440	-0.210	-0.030	1.690
2020/01/31 07:30:08.8	89.430	-0.200	-0.050	1.670
2020/01/31 07:30:08.9	89.420	-0.200	-0.060	1.660
2020/01/31 07:30:09.0	89.420	-0.200	-0.080	1.640
2020/01/31 07:30:09.1	89.410	-0.190	-0.100	1.620
2020/01/31 07:30:09.2	89.410	-0.180	-0.120	1.600
2020/01/31 07:30:09.3	89.410	-0.170	-0.140	1.580
2020/01/31 07:30:09.4	89.410	-0.150	-0.160	1.550
2020/01/31 07:30:09.5	89.410	-0.140	-0.180	1.520
2020/01/31 07:30:09.6	89.420	-0.120	-0.200	1.490
2020/01/31 07:30:09.7	89.420	-0.110	-0.220	1.460
2020/01/31 07:30:09.8	89.430	-0.090	-0.240	1.420
2020/01/31 07:30:09.9	89.440	-0.070	-0.260	1.380
2020/01/31 07:30:10.0	89.450	-0.060	-0.280	1.340
2020/01/31 07:30:10.1	89.460	-0.040	-0.290	1.300
2020/01/31 07:30:10.2	89.480	-0.020	-0.310	1.250
2020/01/31 07:30:10.3	89.500	-0.010	-0.320	1.210
2020/01/31 07:30:10.4	89.510	0.010	-0.340	1.160
2020/01/31 07:30:10.5	89.530	0.020	-0.340	1.110
2020/01/31 07:30:10.6	89.550	0.040	-0.350	1.060
2020/01/31 07:30:10.7	89.570	0.050	-0.360	1.010
2020/01/31 07:30:10.8	89.590	0.060	-0.360	0.960
2020/01/31 07:30:10.9	89.620	0.070	-0.360	0.910
2020/01/31 07:30:11.0	89.640	0.070	-0.360	0.850
2020/01/31 07:30:11.1	89.660	0.080	-0.350	0.800
2020/01/31 07:30:11.2	89.680	0.080	-0.350	0.750
2020/01/31 07:30:11.3	89.710	0.080	-0.340	0.700
2020/01/31 07:30:11.4	89.730	0.080	-0.330	0.650
2020/01/31 07:30:11.5	89.750	0.070	-0.320	0.600
2020/01/31 07:30:11.6	89.770	0.070	-0.300	0.550
2020/01/31 07:30:11.7	89.790	0.060	-0.280	0.510
2020/01/31 07:30:11.8	89.810	0.050	-0.260	0.460
2020/01/31 07:30:11.9	89.830	0.040	-0.240	0.420
2020/01/31 07:30:12.0	89.840	0.030	-0.220	0.380
2020/01/31 07:30:12.1	89.860	0.010	-0.200	0.350
2020/01/31 07:30:12.2	89.870	-0.000	-0.170	0.310
2020/01/31 07:30:12.3	89.880	-0.020	-0.150	0.280
2020/01/31 07:30:12.4	89.890	-0.040	-0.130	0.250
2020/01/31 07:30:12.5	89.900	-0.060	-0.100	0.220
2020/01/31 07:30:12.6	89.900	-0.070	-0.080	0.200
2020/01/31 07:30:12.7	89.900	-0.090	-0.060	0.180
2020/01/31 07:30:12.8	89.900	-0.110	-0.030	0.170
2020/01/31 07:30:12.9	89.900	-0.130	-0.010	0.150
2020/01/31 07:30:13.0	89.900	-0.150	0.010	0.150
2020/01/31 07:30:13.1	89.890	-0.170	0.020	0.140
2020/01/31 07:30:13.2	89.880	-0.180	0.040	0.140
2020/01/31 07:30:13.3	89.870	-0.200	0.050	0.140
2020/01/31 07:30:13.4	89.850	-0.220	0.060	0.140
2020/01/31 07:30:13.5	89.840	-0.230	0.080	0.150
2020/01/31 07:30:13.6	89.820	-0.250	0.080	0.160
2020/01/31 07:30:13.7	89.800	-0.260	0.090	0.170
2020/01/31 07:30:13.8	89.770	-0.270	0.100	0.190
2020/01/31 07:30:13.9	89.750	-0.280	0.100	0.200
2020/01/31 07:30:14.0	89.720	-0.290	0.100	0.220
2020/01/31 07:30:14.1	89.690	-0.300	0.100	0.250
2020/01/31 07:30:14.2	89.660	-0.310	0.100	0.270
2020/01/31 07:30:14.3	89.630	-0.310	0.100	0.290
2020/01/31 07:30:14.4	89.600	-0.320	0.090	0.320
2020/01/31 07:30:14.5	89.570	-0.320	0.080	0.350
2020/01/31 07:30:14.6	89.540	-0.320	0.080	0.380
2020/01/31 07:30:14.7	89.510	-0.310	0.070	0.410
2020/01/31 07:30:14.8	89.490	-0.310	0.050	0.430
2020/01/31 07:30:14.9	89.460	-0.300	0.040	0.460
2020/01/31 07:30:15.0	89.430	-0.290	0.020	0.490
2020/01/31 07:30:15.1	89.410	-0.280	0.010	0.520
2020/01/31 07:30:15.2	89.390	-0.270	-0.010	0.540
2020/01/31 07:30:15.3	89.370	-0.260	-0.030	0.570
2020/01/31 07:30:15.4	89.350	-0.240	-0.050	0.590
2020/01/31 07:30:15.5	89.340	-0.220	-0.070	0.620
2020/01/31 07:30:15.6	89.330	-0.210	-0.090	0.640
2020/01/31 07:30:15.7	89.320	-0.190	-0.110	0.660
2020/01/31 07:30:15.8	89.310	-0.160	-0.140	0.680
2020/01/31 07:30:15.9	89.310	-0.140	-0.160	0.700
2020/01/31 07:30:16.0	89.300	-0.120	-0.180	0.720
2020/01/31 07:30:16.1	89.300	-0.090	-0.210	0.730
2020/01/31 07:30:16.2	89.300	-0.070	-0.230	0.750
2020/01/31 07:30:16.3	89.300	-0.040	-0.260	0.770
2020/01/31 07:30:16.4	89.300	-0.010	-0.280	0.780
2020/01/31 07:30:16.5	89.300	0.010	-0.300	0.790
2020/01/31 07:30:16.6	89.300	0.040	-0.320	0.810
2020/01/31 07:30:16.7	89.300	0.070	-0.340	0.820
2020/01/31 07:30:16.8	89.300	0.100	-0.360	0.830
2020/01/31 07:30:16.9	89.300	0.120	-0.380	0.840
2020/01/31 07:30:17.0	89.310	0.150	-0.390	0.850
2020/01/31 07:30:17.1	89.310	0.180	-0.400	0.860
2020/01/31 07:30:17.2	89.310	0.200	-0.420	0.860
2020/01/31 07:30:17.3	89.310	0.220	-0.430	0.870
2020/01/31 07:30:17.4	89.310	0.250	-0.440	0.870
2020/01/31 07:30:17.5	89.310	0.270	-0.440	0.880
2020/01/31 07:30:17.6	89.310	0.290	-0.450	0.880
2020/01/31 07:30:17.7	89.310	0.300	-0.450	0.880
2020/01/31 07:30:17.8	89.310	0.320	-0.450	0.880
2020/01/31 07:30:17.9	89.310	0.330	-0.450	0.880
2020/01/31 07:30:18.0	89.310	0.340	-0.450	0.880
2020/01/31 07:30:18.1	89.310	0.350	-0.440	0.880
2020/01/31 07:30:18.2	89.310	0.360	-0.430	0.880
2020/01/31 07:30:18.3	89.300	0.360	-0.420	0.870
2020/01/31 07:30:18.4	89.300	0.360	-0.410	0.870
2020/01/31 07:30:18.5	89.300	0.360	-0.390	0.860
2020/01/31 07:30:18.6	89.300	0.360	-0.380	0.860
2020/01/31 07:30:18.7	89.300	0.360	-0.360	0.850
2020/01/31 07:30:18.8	89.300	0.350	-0.340	0.840
2020/01/31 07:30:18.9	89.300	0.340	-0.320	0.840
2020/01/31 07:30:19.0	89.300	0.330	-0.300	0.830
2020/01/31 07:30:19.1	89.300	0.320	-0.280	0.820
2020/01/31 07:30:19.2	89.310	0.310	-0.260	0.810
2020/01/31 07:30:19.3	89.310	0.300	-0.230	0.810
2020/01/31 07:30:19.4	89.310	0.290	-0.210	0.800
2020/01/31 07:30:19.5	89.320	0.270	-0.190	0.790
2020/01/31 07:30:19.6	89.320	0.260	-0.160	0.780
2020/01/31 07:30:19.7	89.330	0.240	-0.140	0.770
2020/01/31 07:30:19.8	89.330	0.230	-0.120	0.770
2020/01/31 07:30:19.9	89.340	0.210	-0.100	0.760
2020/01/31 07:30:20.0	89.350	0.190	-0.080	0.760
2020/01/31 07:30:20.1	89.360	0.180	-0.060	0.750
2020/01/31 07:30:20.2	89.370	0.160	-0.040	0.750
2020/01/31 07:30:20.3	89.380	0.150	-0.020	0.750
2020/01/31 07:30:20.4	89.390	0.130	-0.010	0.750
2020/01/31 07:30:20.5	89.400	0.120	0.000	0.750
2020/01/31 07:30:20.6	89.410	0.110	0.010	0.750
2020/01/31 07:30:20.7	89.410	0.090	0.020	0.760
2020/01/31 07:30:20.8	89.420	0.080	0.030	0.770
2020/01/31 07:30:20.9	89.430	0.070	0.030	0.770
2020/01/31 07:30:21.0	89.440	0.060	0.040	0.790
2020/01/31 07:30:21.1	89.450	0.050	0.040	0.800
2020/01/31 07:30:21.2	89.450	0.040	0.040	0.810
2020/01/31 07:30:21.3	89.460	0.030	0.030	0.830
2020/01/31 07:30:21.4	89.470	0.030	0.030	0.850
2020/01/31 07:30:21.5	89.480	0.020	0.030	0.860
2020/01/31 07:30:21.6	89.480	0.020	0.020	0.880
2020/01/31 07:30:21.7	89.490	0.010	0.010	0.900
2020/01/31 07:30:21.8	89.500	0.010	0.000	0.920
2020/01/31 07:30:21.9	89.510	0.000	-0.010	0.950
2020/01/31 07:30:22.0	89.520	0.000	-0.020	0.970
2020/01/31 07:30:22.1	89.520	-0.000	-0.030	0.990
2020/01/31 07:30:22.2	89.530	-0.000	-0.050	1.010
2020/01/31 07:30:22.3	89.540	-0.000	-0.060	1.030
2020/01/31 07:30:22.4	89.550	-0.000	-0.070	1.060
2020/01/31 07:30:22.5	89.560	-0.000	-0.080	1.080
2020/01/31 07:30:22.6	89.570	-0.000	-0.100	1.100
2020/01/31 07:30:22.7	89.580	-0.000	-0.110	1.120
2020/01/31 07:30:22.8	89.590	-0.000	-0.120	1.140
2020/01/31 07:30:22.9	89.600	-0.000	-0.130	1.160
2020/01/31 07:30:23.0	89.600	-0.000	-0.140	1.190
2020/01/31 07:30:23.1	89.610	-0.000	-0.150	1.210
2020/01/31 07:30:23.2	89.610	0.000	-0.160	1.230
2020/01/31 07:30:23.3	89.620	0.000	-0.170	1.250
2020/01/31 07:30:23.4	89.620	0.000	-0.170	1.280
2020/01/31 07:30:23.5	89.620	0.000	-0.170	1.300
2020/01/31 07:30:23.6	89.620	0.000	-0.170	1.330
2020/01/31 07:30:23.7	89.610	0.010	-0.170	1.350
2020/01/31 07:30:23.8	89.600	0.010	-0.170	1.380
2020/01/31 07:30:23.9	89.590	0.010	-0.170	1.410
2020/01/31 07:30:24.0	89.580	0.010	-0.170	1.450
2020/01/31 07:30:24.1	89.560	0.010	-0.160	1.480
2020/01/31 07:30:24.2	89.540	0.010	-0.150	1.510
2020/01/31 07:30:24.3	89.520	0.010	-0.140	1.550
2020/01/31 07:30:24.4	89.500	0.000	-0.130	1.580
2020/01/31 07:30:24.5	89.470	0.000	-0.130	1.610
2020/01/31 07:30:24.6	89.440	0.000	-0.120	1.650
2020/01/31 07:30:24.7	89.410	0.000	-0.110	1.680
2020/01/31 07:30:24.8	89.380	-0.000	-0.100	1.710
2020/01/31 07:30:24.9	89.350	-0.000	-0.100	1.740
2020/01/31 07:30:25.0	89.320	-0.000	-0.090	1.770
2020/01/31 07:30:25.1	89.280	-0.010	-0.090	1.800
2020/01/31 07:30:25.2	89.250	-0.010	-0.080	1.820
2020/01/31 07:30:25.3	89.210	-0.010	-0.080	1.840
2020/01/31 07:30:25.4	89.180	-0.010	-0.080	1.860
2020/01/31 07:30:25.5	89.150	-0.020	-0.080	1.870
2020/01/31 07:30:25.6	89.120	-0.020	-0.080	1.880
2020/01/31 07:30:25.7	89.090	-0.020	-0.090	1.890
2020/01/31 07:30:25.8	89.060	-0.030	-0.090	1.890
2020/01/31 07:30:25.9	89.030	-0.030	-0.100	1.890
2020/01/31 07:30:26.0	89.010	-0.030	-0.100	1.880
2020/01/31 07:30:26.1	88.990	-0.040	-0.110	1.870
2020/01/31 07:30:26.2	88.970	-0.040	-0.120	1.860
2020/01/31 07:30:26.3	88.950	-0.050	-0.120	1.840
2020/01/31 07:30:26.4	88.930	-0.050	-0.130	1.820
2020/01/31 07:30:26.5	88.920	-0.050	-0.150	1.790
2020/01/31 07:30:26.6	88.910	-0.060	-0.160	1.760
2020/01/31 07:30:26.7	88.900	-0.060	-0.170	1.730
2020/01/31 07:30:26.8	88.890	-0.070	-0.180	1.700
2020/01/31 07:30:26.9	88.890	-0.070	-0.190	1.660
2020/01/31 07:30:27.0	88.890	-0.080	-0.200	1.610
2020/01/31 07:30:27.1	88.890	-0.080	-0.210	1.570
2020/01/31 07:30:27.2	88.890	-0.090	-0.220	1.520
2020/01/31 07:30:27.3	88.900	-0.090	-0.230	1.470
2020/01/31 07:30:27.4	88.910	-0.100	-0.240	1.420
2020/01/31 07:30:27.5	88.920	-0.100	-0.240	1.370
2020/01/31 07:30:27.6	88.930	-0.110	-0.250	1.320
2020/01/31 07:30:27.7	88.940	-0.110	-0.260	1.270
2020/01/31 07:30:27.8	88.960	-0.110	-0.260	1.220
2020/01/31 07:30:27.9	88.980	-0.120	-0.270	1.160
2020/01/31 07:30:28.0	89.000	-0.120	-0.270	1.110
2020/01/31 07:30:28.1	89.020	-0.120	-0.270	1.050
2020/01/31 07:30:28.2	89.040	-0.120	-0.270	1.000
2020/01/31 07:30:28.3	89.070	-0.130	-0.270	0.940
2020/01/31 07:30:28.4	89.090	-0.130	-0.270	0.880
2020/01/31 07:30:28.5	89.120	-0.130	-0.270	0.830
2020/01/31 07:30:28.6	89.150	-0.130	-0.270	0.770
2020/01/31 07:30:28.7	89.180	-0.130	-0.270	0.720
2020/01/31 07:30:28.8	89.210	-0.130	-0.270	0.660
2020/01/31 07:30:28.9	89.250	-0.130	-0.270	0.610
2020/01/31 07:30:29.0	89.280	-0.130	-0.270	0.560
2020/01/31 07:30:29.1	89.310	-0.130	-0.260	0.510
2020/01/31 07:30:29.2	89.340	-0.130	-0.260	0.460
2020/01/31 07:30:29.3	89.380	-0.130	-0.260	0.410
2020/01/31 07:30:29.4	89.410	-0.120	-0.260	0.360
2020/01/31 07:30:29.5	89.440	-0.120	-0.260	0.320
2020/01/31 07:30:29.6	89.470	-0.120	-0.250	0.270
2020/01/31 07:30:29.7	89.500	-0.110	-0.250	0.230
2020/01/31 07:30:29.8	89.520	-0.110	-0.240	0.190
2020/01/31 07:30:29.9	89.540	-0.110	-0.240	0.160
2020/01/31 07:30:30.0	89.570	-0.100	-0.230	0.130
2020/01/31 07:30:30.1	89.590	-0.090	-0.230	0.100
2020/01/31 07:30:30.2	89.600	-0.090	-0.220	0.070
2020/01/31 07:30:30.3	89.610	-0.080	-0.220	0.040
2020/01/31 07:30:30.4	89.620	-0.070	-0.210	0.030
2020/01/31 07:30:30.5	89.630	-0.070	-0.200	0.010
2020/01/31 07:30:30.6	89.640	-0.060	-0.190	-0.000
2020/01/31 07:30:30.7	89.640	-0.050	-0.180	-0.010
2020/01/31 07:30:30.8	89.630	-0.040	-0.170	-0.020
2020/01/31 07:30:30.9	89.630	-0.030	-0.160	-0.020
2020/01/31 07:30:31.0	89.620	-0.030	-0.150	-0.020
2020/01/31 07:30:31.1	89.600	-0.020	-0.140	-0.010
2020/01/31 07:30:31.2	89.590	-0.010	-0.130	-0.010
2020/01/31 07:30:31.3	89.570	0.000	-0.110	0.010
2020/01/31 07:30:31.4	89.550	0.010	-0.100	0.020
2020/01/31 07:30:31.5	89.520	0.020	-0.090	0.040
2020/01/31 07:30:31.6	89.490	0.020	-0.070	0.060
2020/01/31 07:30:31.7	89.460	0.030	-0.060	0.080
2020/01/31 07:30:31.8	89.430	0.040	-0.040	0.110
2020/01/31 07:30:31.9	89.400	0.040	-0.020	0.140
2020/01/31 07:30:32.0	89.360	0.050	-0.010	0.170
2020/01/31 07:30:32.1	89.330	0.050	0.010	0.200
2020/01/31 07:30:32.2	89.290	0.060	0.020	0.240
2020/01/31 07:30:32.3	89.260	0.060	0.030	0.280
2020/01/31 07:30:32.4	89.230	0.060	0.050	0.310
2020/01/31 07:30:32.5	89.190	0.070	0.060	0.350
2020/01/31 07:30:32.6	89.160	0.070	0.070	0.390
2020/01/31 07:30:32.7	89.130	0.070	0.080	0.430
2020/01/31 07:30:32.8	89.100	0.070	0.090	0.470
2020/01/31 07:30:32.9	89.070	0.070	0.100	0.520
2020/01/31 07:30:33.0	89.050	0.070	0.100	0.560
2020/01/31 07:30:33.1	89.030	0.070	0.110	0.590
2020/01/31 07:30:33.2	89.010	0.070	0.110	0.630
2020/01/31 07:30:33.3	88.990	0.070	0.110	0.670
2020/01/31 07:30:33.4	88.980	0.070	0.100	0.710
2020/01/31 07:30:33.5	88.970	0.070	0.100	0.740
2020/01/31 07:30:33.6	88.960	0.070	0.090	0.780
2020/01/31 07:30:33.7	88.960	0.070	0.080	0.810
2020/01/31 07:30:33.8	88.960	0.070	0.060	0.840
2020/01/31 07:30:33.9	88.960	0.070	0.050	0.860
2020/01/31 07:30:34.0	88.960	0.070	0.030	0.890
2020/01/31 07:30:34.1	88.970	0.070	0.010	0.920
2020/01/31 07:30:34.2	88.980	0.070	-0.020	0.940
2020/01/31 07:30:34.3	88.990	0.070	-0.050	0.960
2020/01/31 07:30:34.4	89.000	0.070	-0.070	0.980
2020/01/31 07:30:34.5	89.020	0.070	-0.100	0.990
2020/01/31 07:30:34.6	89.030	0.070	-0.130	1.010
2020/01/31 07:30:34.7	89.050	0.070	-0.160	1.030
2020/01/31 07:30:34.8	89.070	0.070	-0.190	1.040
2020/01/31 07:30:34.9	89.090	0.070	-0.220	1.050
2020/01/31 07:30:35.0	89.120	0.070	-0.250	1.060
2020/01/31 07:30:35.1	89.140	0.070	-0.270	1.070
2020/01/31 07:30:35.2	89.170	0.070	-0.300	1.080
2020/01/31 07:30:35.3	89.200	0.060	-0.320	1.090
2020/01/31 07:30:35.4	89.230	0.060	-0.350	1.100
2020/01/31 07:30:35.5	89.250	0.060	-0.370	1.100
2020/01/31 07:30:35.6	89.280	0.060	-0.380	1.110
2020/01/31 07:30:35.7	89.310	0.060	-0.400	1.120
2020/01/31 07:30:35.8	89.340	0.060	-0.410	1.130
2020/01/31 07:30:35.9	89.370	0.050	-0.410	1.130
2020/01/31 07:30:36.0	89.400	0.050	-0.420	1.140
2020/01/31 07:30:36.1	89.430	0.050	-0.420	1.150
2020/01/31 07:30:36.2	89.460	0.040	-0.420	1.150
2020/01/31 07:30:36.3	89.500	0.040	-0.410	1.160
2020/01/31 07:30:36.4	89.530	0.040	-0.400	1.170
2020/01/31 07:30:36.5	89.550	0.030	-0.390	1.180
2020/01/31 07:30:36.6	89.580	0.030	-0.380	1.190
2020/01/31 07:30:36.7	89.610	0.030	-0.360	1.190
2020/01/31 07:30:36.8	89.640	0.020	-0.340	1.210
2020/01/31 07:30:36.9	89.670	0.020	-0.320	1.220
2020/01/31 07:30:37.0	89.690	0.020	-0.290	1.230
2020/01/31 07:30:37.1	89.710	0.010	-0.270	1.240
2020/01/31 07:30:37.2	89.730	0.010	-0.240	1.250
2020/01/31 07:30:37.3	89.750	0.000	-0.220	1.270
2020/01/31 07:30:37.4	89.770	0.000	-0.190	1.280
2020/01/31 07:30:37.5	89.780	-0.000	-0.170	1.300
2020/01/31 07:30:37.6	89.790	-0.000	-0.140	1.320
2020/01/31 07:30:37.7	89.800	-0.010	-0.120	1.340
2020/01/31 07:30:37.8	89.800	-0.010	-0.100	1.360
2020/01/31 07:30:37.9	89.800	-0.010	-0.080	1.390
2020/01/31 07:30:38.0	89.800	-0.010	-0.060	1.410
2020/01/31 07:30:38.1	89.790	-0.010	-0.040	1.440
2020/01/31 07:30:38.2	89.780	-0.010	-0.020	1.470
2020/01/31 07:30:38.3	89.770	-0.010	-0.010	1.500
2020/01/31 07:30:38.4	89.760	-0.010	-0.000	1.530
2020/01/31 07:30:38.5	89.740	-0.010	0.000	1.560
2020/01/31 07:30:38.6	89.720	-0.010	0.010	1.590
2020/01/31 07:30:38.7	89.690	-0.010	0.010	1.620
2020/01/31 07:30:38.8	89.660	-0.010	0.000	1.650
2020/01/31 07:30:38.9	89.640	-0.010	-0.000	1.680
2020/01/31 07:30:39.0	89.610	-0.010	-0.010	1.710
2020/01/31 07:30:39.1	89.570	-0.000	-0.030	1.740
2020/01/31 07:30:39.2	89.540	-0.000	-0.040	1.770
2020/01/31 07:30:39.3	89.510	0.000	-0.060	1.790
2020/01/31 07:30:39.4	89.480	0.010	-0.080	1.820
2020/01/31 07:30:39.5	89.440	0.010	-0.110	1.840
2020/01/31 07:30:39.6	89.410	0.010	-0.130	1.860
2020/01/31 07:30:39.7	89.370	0.020	-0.150	1.880
2020/01/31 07:30:39.8	89.340	0.020	-0.180	1.900
2020/01/31 07:30:39.9	89.310	0.030	-0.210	1.910
2020/01/31 07:30:40.0	89.280	0.030	-0.240	1.920
2020/01/31 07:30:40.1	89.250	0.040	-0.260	1.930
2020/01/31 07:30:40.2	89.220	0.040	-0.290	1.940
2020/01/31 07:30:40.3	89.190	0.050	-0.320	1.940
2020/01/31 07:30:40.4	89.170	0.060	-0.340	1.930
2020/01/31 07:30:40.5	89.140	0.060	-0.370	1.930
2020/01/31 07:30:40.6	89.120	0.070	-0.390	1.920
2020/01/31 07:30:40.7	89.110	0.070	-0.410	1.900
2020/01/31 07:30:40.8	89.090	0.080	-0.430	1.880
2020/01/31 07:30:40.9	89.080	0.080	-0.450	1.860
2020/01/31 07:30:41.0	89.070	0.090	-0.460	1.830
2020/01/31 07:30:41.1	89.060	0.090	-0.470	1.800
2020/01/31 07:30:41.2	89.060	0.100	-0.480	1.770
2020/01/31 07:30:41.3	89.050	0.100	-0.490	1.730
2020/01/31 07:30:41.4	89.050	0.100	-0.490	1.680
2020/01/31 07:30:41.5	89.050	0.110	-0.490	1.640
2020/01/31 07:30:41.6	89.060	0.110	-0.480	1.590
2020/01/31 07:30:41.7	89.060	0.110	-0.470	1.540
2020/01/31 07:30:41.8	89.070	0.110	-0.460	1.480
2020/01/31 07:30:41.9	89.080	0.110	-0.450	1.420
2020/01/31 07:30:42.0	89.090	0.110	-0.430	1.360
2020/01/31 07:30:42.1	89.110	0.110	-0.410	1.290
2020/01/31 07:30:42.2	89.120	0.110	-0.380	1.220
2020/01/31 07:30:42.3	89.140	0.110	-0.360	1.150
2020/01/31 07:30:42.4	89.160	0.110	-0.330	1.080
2020/01/31 07:30:42.5	89.180	0.110	-0.290	1.000
2020/01/31 07:30:42.6	89.200	0.100	-0.260	0.930
2020/01/31 07:30:42.7	89.220	0.100	-0.220	0.850
2020/01/31 07:30:42.8	89.240	0.090	-0.180	0.770
2020/01/31 07:30:42.9	89.270	0.090	-0.150	0.700
2020/01/31 07:30:43.0	89.290	0.080	-0.110	0.620
2020/01/31 07:30:43.1	89.310	0.070	-0.070	0.540
2020/01/31 07:30:43.2	89.340	0.070	-0.030	0.470
2020/01/31 07:30:43.3	89.360	0.060	0.010	0.390
2020/01/31 07:30:43.4	89.390	0.050	0.050	0.320
2020/01/31 07:30:43.5	89.410	0.040	0.080	0.250
2020/01/31 07:30:43.6	89.430	0.040	0.120	0.180
2020/01/31 07:30:43.7	89.450	0.030	0.150	0.110
2020/01/31 07:30:43.8	89.470	0.020	0.180	0.040
2020/01/31 07:30:43.9	89.490	0.010	0.210	-0.020
2020/01/31 07:30:44.0	89.510	0.000	0.240	-0.080
2020/01/31 07:30:44.1	89.530	-0.010	0.260	-0.130
2020/01/31 07:30:44.2	89.540	-0.020	0.280	-0.180
2020/01/31 07:30:44.3	89.560	-0.020	0.300	-0.240
2020/01/31 07:30:44.4	89.580	-0.030	0.320	-0.280
2020/01/31 07:30:44.5	89.590	-0.040	0.330	-0.320
2020/01/31 07:30:44.6	89.600	-0.050	0.340	-0.360
2020/01/31 07:30:44.7	89.610	-0.050	0.340	-0.400
2020/01/31 07:30:44.8	89.620	-0.060	0.350	-0.430
2020/01/31 07:30:44.9	89.630	-0.070	0.340	-0.460
2020/01/31 07:30:45.0	89.630	-0.070	0.340	-0.480
2020/01/31 07:30:45.1	89.640	-0.080	0.330	-0.500
2020/01/31 07:30:45.2	89.650	-0.090	0.320	-0.520
2020/01/31 07:30:45.3	89.650	-0.090	0.300	-0.530
2020/01/31 07:30:45.4	89.660	-0.100	0.280	-0.540
2020/01/31 07:30:45.5	89.670	-0.100	0.260	-0.540
2020/01/31 07:30:45.6	89.670	-0.110	0.240	-0.540
2020/01/31 07:30:45.7	89.680	-0.110	0.220	-0.540
2020/01/31 07:30:45.8	89.680	-0.110	0.190	-0.530
2020/01/31 07:30:45.9	89.690	-0.120	0.160	-0.520
2020/01/31 07:30:46.0	89.700	-0.120	0.130	-0.510
2020/01/31 07:30:46.1	89.710	-0.120	0.090	-0.490
2020/01/31 07:30:46.2	89.710	-0.130	0.060	-0.470
2020/01/31 07:30:46.3	89.720	-0.130	0.020	-0.440
2020/01/31 07:30:46.4	89.730	-0.130	-0.020	-0.410
2020/01/31 07:30:46.5	89.740	-0.130	-0.060	-0.380
2020/01/31 07:30:46.6	89.750	-0.140	-0.100	-0.340
2020/01/31 07:30:46.7	89.760	-0.140	-0.140	-0.300
2020/01/31 07:30:46.8	89.770	-0.140	-0.180	-0.250
2020/01/31 07:30:46.9	89.780	-0.140	-0.220	-0.200
2020/01/31 07:30:47.0	89.790	-0.140	-0.260	-0.140
2020/01/31 07:30:47.1	89.790	-0.140	-0.300	-0.090
2020/01/31 07:30:47.2	89.800	-0.140	-0.330	-0.030
2020/01/31 07:30:47.3	89.810	-0.140	-0.370	0.040
2020/01/31 07:30:47.4	89.810	-0.140	-0.410	0.110
2020/01/31 07:30:47.5	89.820	-0.140	-0.450	0.180
2020/01/31 07:30:47.6	89.830	-0.140	-0.480	0.250
2020/01/31 07:30:47.7	89.830	-0.140	-0.510	0.320
2020/01/31 07:30:47.8	89.830	-0.130	-0.540	0.400
2020/01/31 07:30:47.9	89.830	-0.130	-0.560	0.480
2020/01/31 07:30:48.0	89.830	-0.130	-0.580	0.560
2020/01/31 07:30:48.1	89.830	-0.120	-0.600	0.640
2020/01/31 07:30:48.2	89.830	-0.120	-0.620	0.720
2020/01/31 07:30:48.3	89.820	-0.120	-0.630	0.800
2020/01/31 07:30:48.4	89.820	-0.110	-0.640	0.890
2020/01/31 07:30:48.5	89.810	-0.110	-0.650	0.970
2020/01/31 07:30:48.6	89.800	-0.100	-0.650	1.050
2020/01/31 07:30:48.7	89.790	-0.100	-0.650	1.130
2020/01/31 07:30:48.8	89.780	-0.090	-0.640	1.210
2020/01/31 07:30:48.9	89.770	-0.080	-0.630	1.280
2020/01/31 07:30:49.0	89.760	-0.080	-0.620	1.350
2020/01/31 07:30:49.1	89.750	-0.070	-0.600	1.430
2020/01/31 07:30:49.2	89.740	-0.070	-0.580	1.500
2020/01/31 07:30:49.3	89.730	-0.060	-0.560	1.560
2020/01/31 07:30:49.4	89.710	-0.060	-0.530	1.630
2020/01/31 07:30:49.5	89.700	-0.050	-0.500	1.690
2020/01/31 07:30:49.6	89.690	-0.050	-0.460	1.750
2020/01/31 07:30:49.7	89.680	-0.040	-0.420	1.800
2020/01/31 07:30:49.8	89.670	-0.040	-0.380	1.860
2020/01/31 07:30:49.9	89.660	-0.040	-0.340	1.910
2020/01/31 07:30:50.0	89.650	-0.040	-0.290	1.960
2020/01/31 07:30:50.1	89.640	-0.040	-0.240	2.000
2020/01/31 07:30:50.2	89.640	-0.040	-0.200	2.050
2020/01/31 07:30:50.3	89.630	-0.040	-0.150	2.090
2020/01/31 07:30:50.4	89.620	-0.040	-0.100	2.130
2020/01/31 07:30:50.5	89.620	-0.050	-0.050	2.160
2020/01/31 07:30:50.6	89.620	-0.050	0.000	2.190
2020/01/31 07:30:50.7	89.620	-0.060	0.050	2.220
2020/01/31 07:30:50.8	89.610	-0.060	0.100	2.250
2020/01/31 07:30:50.9	89.620	-0.070	0.140	2.280
2020/01/31 07:30:51.0	89.620	-0.080	0.190	2.310
2020/01/31 07:30:51.1	89.620	-0.080	0.230	2.330
2020/01/31 07:30:51.2	89.620	-0.090	0.270	2.350
2020/01/31 07:30:51.3	89.620	-0.100	0.300	2.370
2020/01/31 07:30:51.4	89.630	-0.110	0.330	2.380
2020/01/31 07:30:51.5	89.630	-0.120	0.360	2.400
2020/01/31 07:30:51.6	89.630	-0.130	0.380	2.410
2020/01/31 07:30:51.7	89.630	-0.140	0.400	2.420
2020/01/31 07:30:51.8	89.640	-0.150	0.410	2.430
2020/01/31 07:30:51.9	89.640	-0.160	0.420	2.430
2020/01/31 07:30:52.0	89.640	-0.170	0.420	2.430
2020/01/31 07:30:52.1	89.640	-0.180	0.420	2.430
2020/01/31 07:30:52.2	89.640	-0.180	0.410	2.430
2020/01/31 07:30:52.3	89.650	-0.190	0.400	2.420
2020/01/31 07:30:52.4	89.650	-0.190	0.380	2.410
2020/01/31 07:30:52.5	89.650	-0.200	0.350	2.390
2020/01/31 07:30:52.6	89.660	-0.200	0.320	2.370
2020/01/31 07:30:52.7	89.660	-0.200	0.290	2.340
2020/01/31 07:30:52.8	89.660	-0.190	0.250	2.310
2020/01/31 07:30:52.9	89.660	-0.190	0.200	2.280
2020/01/31 07:30:53.0	89.660	-0.180	0.150	2.240
2020/01/31 07:30:53.1	89.660	-0.180	0.100	2.200
2020/01/31 07:30:53.2	89.660	-0.160	0.040	2.150
2020/01/31 07:30:53.3	89.660	-0.150	-0.030	2.100
2020/01/31 07:30:53.4	89.660	-0.140	-0.090	2.050
2020/01/31 07:30:53.5	89.660	-0.120	-0.160	1.990
2020/01/31 07:30:53.6	89.660	-0.100	-0.230	1.920
2020/01/31 07:30:53.7	89.670	-0.080	-0.300	1.860
2020/01/31 07:30:53.8	89.670	-0.060	-0.370	1.790
2020/01/31 07:30:53.9	89.680	-0.030	-0.440	1.720
2020/01/31 07:30:54.0	89.690	-0.010	-0.510	1.640
2020/01/31 07:30:54.1	89.690	0.020	-0.580	1.570
2020/01/31 07:30:54.2	89.700	0.050	-0.640	1.490
2020/01/31 07:30:54.3	89.710	0.080	-0.710	1.410
2020/01/31 07:30:54.4	89.720	0.110	-0.770	1.330
2020/01/31 07:30:54.5	89.720	0.140	-0.820	1.250
2020/01/31 07:30:54.6	89.730	0.170	-0.870	1.180
2020/01/31 07:30:54.7	89.740	0.190	-0.910	1.100
2020/01/31 07:30:54.8	89.750	0.220	-0.950	1.030
2020/01/31 07:30:54.9	89.750	0.240	-0.970	0.960
2020/01/31 07:30:55.0	89.760	0.270	-0.990	0.890
2020/01/31 07:30:55.1	89.760	0.290	-1.000	0.830
2020/01/31 07:30:55.2	89.770	0.310	-1.000	0.760
2020/01/31 07:30:55.3	89.770	0.320	-0.990	0.700
2020/01/31 07:30:55.4	89.770	0.340	-0.980	0.640
2020/01/31 07:30:55.5	89.770	0.350	-0.950	0.590
2020/01/31 07:30:55.6	89.780	0.350	-0.920	0.530
2020/01/31 07:30:55.7	89.780	0.360	-0.880	0.480
2020/01/31 07:30:55.8	89.780	0.360	-0.830	0.430
2020/01/31 07:30:55.9	89.780	0.350	-0.770	0.380
2020/01/31 07:30:56.0	89.780	0.340	-0.710	0.340
2020/01/31 07:30:56.1	89.780	0.330	-0.640	0.300
2020/01/31 07:30:56.2	89.770	0.320	-0.560	0.250
2020/01/31 07:30:56.3	89.770	0.300	-0.480	0.220
2020/01/31 07:30:56.4	89.770	0.280	-0.400	0.180
2020/01/31 07:30:56.5	89.770	0.260	-0.310	0.140
2020/01/31 07:30:56.6	89.770	0.230	-0.220	0.110
2020/01/31 07:30:56.7	89.760	0.200	-0.130	0.070
2020/01/31 07:30:56.8	89.760	0.170	-0.030	0.040
2020/01/31 07:30:56.9	89.760	0.140	0.060	0.010
2020/01/31 07:30:57.0	89.760	0.100	0.150	-0.020
2020/01/31 07:30:57.1	89.760	0.070	0.240	-0.050
2020/01/31 07:30:57.2	89.750	0.030	0.320	-0.080
2020/01/31 07:30:57.3	89.750	-0.000	0.410	-0.110
2020/01/31 07:30:57.4	89.750	-0.040	0.480	-0.130
2020/01/31 07:30:57.5	89.750	-0.070	0.560	-0.160
2020/01/31 07:30:57.6	89.750	-0.110	0.620	-0.180
2020/01/31 07:30:57.7	89.750	-0.140	0.680	-0.200
2020/01/31 07:30:57.8	89.750	-0.170	0.740	-0.220
2020/01/31 07:30:57.9	89.740	-0.200	0.780	-0.240
2020/01/31 07:30:58.0	89.740	-0.220	0.820	-0.250
2020/01/31 07:30:58.1	89.740	-0.250	0.850	-0.260
2020/01/31 07:30:58.2	89.740	-0.270	0.870	-0.270
2020/01/31 07:30:58.3	89.740	-0.290	0.870	-0.280
2020/01/31 07:30:58.4	89.730	-0.300	0.870	-0.280
2020/01/31 07:30:58.5	89.730	-0.310	0.870	-0.280
2020/01/31 07:30:58.6	89.720	-0.310	0.850	-0.270
2020/01/31 07:30:58.7	89.710	-0.320	0.820	-0.260
2020/01/31 07:30:58.8	89.700	-0.320	0.780	-0.250
2020/01/31 07:30:58.9	89.700	-0.310	0.730	-0.230
2020/01/31 07:30:59.0	89.690	-0.300	0.680	-0.210
2020/01/31 07:30:59.1	89.670	-0.290	0.610	-0.190
2020/01/31 07:30:59.2	89.660	-0.270	0.540	-0.160
2020/01/31 07:30:59.3	89.650	-0.250	0.460	-0.130
2020/01/31 07:30:59.4	89.640	-0.230	0.380	-0.090
2020/01/31 07:30:59.5	89.630	-0.200	0.290	-0.050
2020/01/31 07:30:59.6	89.620	-0.170	0.200	-0.010
2020/01/31 07:30:59.7	89.610	-0.140	0.100	0.030
2020/01/31 07:30:59.8	89.590	-0.110	0.000	0.080
2020/01/31 07:30:59.9	89.580	-0.080	-0.100	0.130
2020/01/31 07:31:00.0	89.570	-0.040	-0.200	0.180
2020/01/31 07:31:00.1	89.560	-0.010	-0.300	0.230
2020/01/31 07:31:00.2	89.550	0.030	-0.400	0.290
2020/01/31 07:31:00.3	89.540	0.060	-0.510	0.340
2020/01/31 07:31:00.4	89.540	0.100	-0.600	0.400
2020/01/31 07:31:00.5	89.530	0.130	-0.690	0.460
2020/01/31 07:31:00.6	89.520	0.170	-0.780	0.520
2020/01/31 07:31:00.7	89.520	0.200	-0.860	0.580
2020/01/31 07:31:00.8	89.510	0.230	-0.930	0.630
2020/01/31 07:31:00.9	89.510	0.260	-1.000	0.690
2020/01/31 07:31:01.0	89.510	0.280	-1.060	0.750
2020/01/31 07:31:01.1	89.500	0.300	-1.110	0.810
2020/01/31 07:31:01.2	89.500	0.320	-1.150	0.860
2020/01/31 07:31:01.3	89.510	0.340	-1.180	0.910
2020/01/31 07:31:01.4	89.510	0.350	-1.200	0.970
2020/01/31 07:31:01.5	89.510	0.360	-1.220	1.020
2020/01/31 07:31:01.6	89.510	0.360	-1.220	1.070
2020/01/31 07:31:01.7	89.520	0.360	-1.220	1.120
2020/01/31 07:31:01.8	89.520	0.360	-1.200	1.170
2020/01/31 07:31:01.9	89.530	0.350	-1.180	1.220
2020/01/31 07:31:02.0	89.530	0.340	-1.150	1.270
2020/01/31 07:31:02.1	89.540	0.330	-1.110	1.310
2020/01/31 07:31:02.2	89.550	0.310	-1.060	1.360
2020/01/31 07:31:02.3	89.550	0.290	-1.010	1.400
2020/01/31 07:31:02.4	89.560	0.270	-0.940	1.440
2020/01/31 07:31:02.5	89.570	0.250	-0.880	1.480
2020/01/31 07:31:02.6	89.580	0.220	-0.800	1.510
2020/01/31 07:31:02.7	89.580	0.190	-0.720	1.550
2020/01/31 07:31:02.8	89.590	0.160	-0.640	1.580
2020/01/31 07:31:02.9	89.600	0.130	-0.560	1.610
2020/01/31 07:31:03.0	89.600	0.090	-0.470	1.640
2020/01/31 07:31:03.1	89.610	0.060	-0.380	1.660
2020/01/31 07:31:03.2	89.610	0.020	-0.290	1.680
2020/01/31 07:31:03.3	89.620	-0.010	-0.190	1.700
2020/01/31 07:31:03.4	89.620	-0.050	-0.100	1.720
2020/01/31 07:31:03.5	89.630	-0.080	-0.010	1.740
2020/01/31 07:31:03.6	89.630	-0.120	0.080	1.750
2020/01/31 07:31:03.7	89.630	-0.150	0.160	1.760
2020/01/31 07:31:03.8	89.640	-0.180	0.250	1.770
2020/01/31 07:31:03.9	89.640	-0.210	0.320	1.780
2020/01/31 07:31:04.0	89.640	-0.240	0.400	1.780
2020/01/31 07:31:04.1	89.640	-0.270	0.470	1.780
2020/01/31 07:31:04.2	89.640	-0.300	0.530	1.780
2020/01/31 07:31:04.3	89.640	-0.320	0.590	1.780
2020/01/31 07:31:04.4	89.640	-0.340	0.640	1.770
2020/01/31 07:31:04.5	89.640	-0.360	0.690	1.770
2020/01/31 07:31:04.6	89.630	-0.380	0.730	1.760
2020/01/31 07:31:04.7	89.630	-0.390	0.760	1.750
2020/01/31 07:31:04.8	89.620	-0.400	0.790	1.740
2020/01/31 07:31:04.9	89.620	-0.410	0.810	1.730
2020/01/31 07:31:05.0	89.610	-0.420	0.820	1.710
2020/01/31 07:31:05.1	89.600	-0.420	0.830	1.700
2020/01/31 07:31:05.2	89.590	-0.420	0.830	1.680
2020/01/31 07:31:05.3	89.580	-0.420	0.820	1.660
2020/01/31 07:31:05.4	89.570	-0.410	0.800	1.640
2020/01/31 07:31:05.5	89.560	-0.410	0.780	1.620
2020/01/31 07:31:05.6	89.550	-0.400	0.760	1.600
2020/01/31 07:31:05.7	89.540	-0.380	0.720	1.580
2020/01/31 07:31:05.8	89.520	-0.370	0.680	1.560
2020/01/31 07:31:05.9	89.510	-0.350	0.640	1.530
2020/01/31 07:31:06.0	89.500	-0.330	0.590	1.510
2020/01/31 07:31:06.1	89.480	-0.310	0.540	1.480
2020/01/31 07:31:06.2	89.470	-0.290	0.480	1.460
2020/01/31 07:31:06.3	89.450	-0.270	0.420	1.430
2020/01/31 07:31:06.4	89.440	-0.250	0.360	1.400
2020/01/31 07:31:06.5	89.430	-0.220	0.290	1.370
2020/01/31 07:31:06.6	89.410	-0.200	0.230	1.340
2020/01/31 07:31:06.7	89.400	-0.170	0.160	1.310
2020/01/31 07:31:06.8	89.390	-0.150	0.090	1.280
2020/01/31 07:31:06.9	89.380	-0.120	0.020	1.250
2020/01/31 07:31:07.0	89.380	-0.100	-0.050	1.220
2020/01/31 07:31:07.1	89.370	-0.070	-0.120	1.190
2020/01/31 07:31:07.2	89.360	-0.050	-0.190	1.160
2020/01/31 07:31:07.3	89.360	-0.030	-0.260	1.120
2020/01/31 07:31:07.4	89.360	-0.010	-0.320	1.090
2020/01/31 07:31:07.5	89.360	0.010	-0.390	1.060
2020/01/31 07:31:07.6	89.360	0.030	-0.450	1.020
2020/01/31 07:31:07.7	89.360	0.050	-0.510	0.990
2020/01/31 07:31:07.8	89.360	0.060	-0.560	0.960
2020/01/31 07:31:07.9	89.370	0.080	-0.620	0.920
2020/01/31 07:31:08.0	89.370	0.090	-0.670	0.890
2020/01/31 07:31:08.1	89.380	0.100	-0.720	0.860
2020/01/31 07:31:08.2	89.390	0.110	-0.760	0.830
2020/01/31 07:31:08.3	89.390	0.120	-0.800	0.800
2020/01/31 07:31:08.4	89.400	0.120	-0.830	0.770
2020/01/31 07:31:08.5	89.410	0.130	-0.860	0.740
2020/01/31 07:31:08.6	89.410	0.130	-0.890	0.710
2020/01/31 07:31:08.7	89.420	0.130	-0.910	0.690
2020/01/31 07:31:08.8	89.430	0.130	-0.930	0.670
2020/01/31 07:31:08.9	89.430	0.130	-0.940	0.650
2020/01/31 07:31:09.0	89.440	0.130	-0.950	0.630
2020/01/31 07:31:09.1	89.440	0.130	-0.950	0.610
2020/01/31 07:31:09.2	89.450	0.120	-0.950	0.600
2020/01/31 07:31:09.3	89.450	0.120	-0.940	0.580
2020/01/31 07:31:09.4	89.450	0.110	-0.920	0.570
2020/01/31 07:31:09.5	89.450	0.110	-0.900	0.560
2020/01/31 07:31:09.6	89.450	0.100	-0.880	0.550
2020/01/31 07:31:09.7	89.450	0.090	-0.850	0.540
2020/01/31 07:31:09.8	89.450	0.080	-0.820	0.540
2020/01/31 07:31:09.9	89.450	0.070	-0.780	0.530
2020/01/31 07:31:10.0	89.450	0.060	-0.740	0.520
2020/01/31 07:31:10.1	89.440	0.050	-0.690	0.520
2020/01/31 07:31:10.2	89.440	0.040	-0.640	0.510
2020/01/31 07:31:10.3	89.440	0.030	-0.580	0.510
2020/01/31 07:31:10.4	89.430	0.020	-0.520	0.500
2020/01/31 07:31:10.5	89.430	0.000	-0.460	0.500
2020/01/31 07:31:10.6	89.420	-0.010	-0.400	0.490
2020/01/31 07:31:10.7	89.410	-0.020	-0.330	0.480
2020/01/31 07:31:10.8	89.410	-0.030	-0.270	0.470
2020/01/31 07:31:10.9	89.400	-0.050	-0.200	0.470
2020/01/31 07:31:11.0	89.390	-0.060	-0.130	0.460
2020/01/31 07:31:11.1	89.380	-0.070	-0.070	0.450
2020/01/31 07:31:11.2	89.380	-0.080	-0.000	0.440
2020/01/31 07:31:11.3	89.370	-0.100	0.060	0.430
2020/01/31 07:31:11.4	89.370	-0.110	0.120	0.420
2020/01/31 07:31:11.5	89.360	-0.120	0.180	0.410
2020/01/31 07:31:11.6	89.350	-0.120	0.230	0.400
2020/01/31 07:31:11.7	89.350	-0.130	0.280	0.390
2020/01/31 07:31:11.8	89.340	-0.140	0.320	0.380
2020/01/31 07:31:11.9	89.340	-0.140	0.360	0.370
2020/01/31 07:31:12.0	89.340	-0.150	0.390	0.360
2020/01/31 07:31:12.1	89.340	-0.150	0.420	0.350
2020/01/31 07:31:12.2	89.340	-0.150	0.440	0.350
2020/01/31 07:31:12.3	89.340	-0.150	0.450	0.340
2020/01/31 07:31:12.4	89.340	-0.150	0.450	0.340
2020/01/31 07:31:12.5	89.350	-0.140	0.450	0.340
2020/01/31 07:31:12.6	89.350	-0.130	0.440	0.340
2020/01/31 07:31:12.7	89.350	-0.120	0.420	0.340
2020/01/31 07:31:12.8	89.360	-0.110	0.400	0.350
2020/01/31 07:31:12.9	89.360	-0.100	0.370	0.360
2020/01/31 07:31:13.0	89.370	-0.080	0.330	0.370
2020/01/31 07:31:13.1	89.370	-0.060	0.290	0.380
2020/01/31 07:31:13.2	89.380	-0.040	0.250	0.400
2020/01/31 07:31:13.3	89.380	-0.020	0.190	0.420
2020/01/31 07:31:13.4	89.390	0.000	0.140	0.440
2020/01/31 07:31:13.5	89.390	0.030	0.080	0.470
2020/01/31 07:31:13.6	89.400	0.060	0.020	0.490
2020/01/31 07:31:13.7	89.400	0.080	-0.050	0.520
2020/01/31 07:31:13.8	89.400	0.110	-0.110	0.550
2020/01/31 07:31:13.9	89.410	0.140	-0.180	0.580
2020/01/31 07:31:14.0	89.410	0.170	-0.240	0.610
2020/01/31 07:31:14.1	89.410	0.200	-0.310	0.640
2020/01/31 07:31:14.2	89.410	0.230	-0.370	0.670
2020/01/31 07:31:14.3	89.410	0.260	-0.440	0.700
2020/01/31 07:31:14.4	89.410	0.290	-0.500	0.730
2020/01/31 07:31:14.5	89.410	0.320	-0.550	0.760
2020/01/31 07:31:14.6	89.410	0.350	-0.600	0.790
2020/01/31 07:31:14.7	89.410	0.370	-0.640	0.820
2020/01/31 07:31:14.8	89.410	0.400	-0.680	0.840
2020/01/31 07:31:14.9	89.410	0.420	-0.710	0.870
2020/01/31 07:31:15.0	89.410	0.440	-0.740	0.890
2020/01/31 07:31:15.1	89.410	0.460	-0.760	0.910
2020/01/31 07:31:15.2	89.410	0.470	-0.770	0.930
2020/01/31 07:31:15.3	89.420	0.480	-0.770	0.950
2020/01/31 07:31:15.4	89.420	0.490	-0.760	0.970
2020/01/31 07:31:15.5	89.420	0.500	-0.750	0.980
2020/01/31 07:31:15.6	89.420	0.500	-0.730	1.000
2020/01/31 07:31:15.7	89.420	0.500	-0.710	1.010
2020/01/31 07:31:15.8	89.420	0.500	-0.670	1.030
2020/01/31 07:31:15.9	89.420	0.490	-0.630	1.040
2020/01/31 07:31:16.0	89.420	0.480	-0.590	1.050
2020/01/31 07:31:16.1	89.420	0.470	-0.530	1.070
2020/01/31 07:31:16.2	89.420	0.450	-0.480	1.080
2020/01/31 07:31:16.3	89.420	0.440	-0.420	1.090
2020/01/31 07:31:16.4	89.420	0.410	-0.350	1.110
2020/01/31 07:31:16.5	89.420	0.390	-0.280	1.130
2020/01/31 07:31:16.6	89.410	0.360	-0.210	1.140
2020/01/31 07:31:16.7	89.410	0.330	-0.140	1.160
2020/01/31 07:31:16.8	89.410	0.300	-0.060	1.180
2020/01/31 07:31:16.9	89.400	0.270	0.010	1.200
2020/01/31 07:31:17.0	89.400	0.230	0.090	1.220
2020/01/31 07:31:17.1	89.390	0.200	0.160	1.240
2020/01/31 07:31:17.2	89.390	0.160	0.230	1.260
2020/01/31 07:31:17.3	89.380	0.120	0.300	1.290
2020/01/31 07:31:17.4	89.370	0.080	0.370	1.310
2020/01/31 07:31:17.5	89.370	0.040	0.430	1.330
2020/01/31 07:31:17.6	89.360	0.000	0.490	1.350
2020/01/31 07:31:17.7	89.350	-0.040	0.540	1.380
2020/01/31 07:31:17.8	89.330	-0.080	0.590	1.400
2020/01/31 07:31:17.9	89.320	-0.120	0.640	1.420
2020/01/31 07:31:18.0	89.310	-0.160	0.670	1.440
2020/01/31 07:31:18.1	89.300	-0.190	0.710	1.460
2020/01/31 07:31:18.2	89.280	-0.230	0.730	1.490
2020/01/31 07:31:18.3	89.260	-0.260	0.750	1.500
2020/01/31 07:31:18.4	89.250	-0.290	0.770	1.520
2020/01/31 07:31:18.5	89.230	-0.320	0.770	1.540
2020/01/31 07:31:18.6	89.210	-0.350	0.780	1.560
2020/01/31 07:31:18.7	89.200	-0.380	0.770	1.570
2020/01/31 07:31:18.8	89.180	-0.400	0.760	1.580
2020/01/31 07:31:18.9	89.160	-0.420	0.750	1.590
2020/01/31 07:31:19.0	89.150	-0.440	0.720	1.600
2020/01/31 07:31:19.1	89.140	-0.450	0.700	1.600
2020/01/31 07:31:19.2	89.120	-0.470	0.660	1.610
2020/01/31 07:31:19.3	89.110	-0.480	0.620	1.610
2020/01/31 07:31:19.4	89.100	-0.480	0.580	1.600
2020/01/31 07:31:19.5	89.090	-0.490	0.530	1.600
2020/01/31 07:31:19.6	89.090	-0.490	0.480	1.590
2020/01/31 07:31:19.7	89.090	-0.490	0.420	1.580
2020/01/31 07:31:19.8	89.090	-0.480	0.360	1.560
2020/01/31 07:31:19.9	89.090	-0.470	0.290	1.540
2020/01/31 07:31:20.0	89.090	-0.460	0.220	1.520
2020/01/31 07:31:20.1	89.100	-0.450	0.150	1.500
2020/01/31 07:31:20.2	89.110	-0.430	0.070	1.470
2020/01/31 07:31:20.3	89.130	-0.420	-0.010	1.440
2020/01/31 07:31:20.4	89.140	-0.400	-0.090	1.410
2020/01/31 07:31:20.5	89.160	-0.370	-0.170	1.380
2020/01/31 07:31:20.6	89.180	-0.350	-0.260	1.340
2020/01/31 07:31:20.7	89.200	-0.320	-0.350	1.310
2020/01/31 07:31:20.8	89.220	-0.290	-0.430	1.270
2020/01/31 07:31:20.9	89.240	-0.270	-0.520	1.230
2020/01/31 07:31:21.0	89.260	-0.230	-0.610	1.200
2020/01/31 07:31:21.1	89.290	-0.200	-0.700	1.160
2020/01/31 07:31:21.2	89.310	-0.170	-0.780	1.120
2020/01/31 07:31:21.3	89.340	-0.140	-0.870	1.080
2020/01/31 07:31:21.4	89.360	-0.100	-0.960	1.050
2020/01/31 07:31:21.5	89.390	-0.070	-1.040	1.010
2020/01/31 07:31:21.6	89.410	-0.030	-1.110	0.980
2020/01/31 07:31:21.7	89.440	0.000	-1.180	0.950
2020/01/31 07:31:21.8	89.460	0.040	-1.250	0.920
2020/01/31 07:31:21.9	89.480	0.070	-1.310	0.890
2020/01/31 07:31:22.0	89.500	0.100	-1.370	0.860
2020/01/31 07:31:22.1	89.520	0.130	-1.420	0.840
2020/01/31 07:31:22.2	89.540	0.160	-1.460	0.820
2020/01/31 07:31:22.3	89.560	0.190	-1.500	0.790
2020/01/31 07:31:22.4	89.570	0.220	-1.520	0.780
2020/01/31 07:31:22.5	89.590	0.240	-1.540	0.760
2020/01/31 07:31:22.6	89.600	0.260	-1.550	0.750
2020/01/31 07:31:22.7	89.610	0.280	-1.550	0.740
2020/01/31 07:31:22.8	89.620	0.300	-1.540	0.730
2020/01/31 07:31:22.9	89.630	0.310	-1.520	0.720
2020/01/31 07:31:23.0	89.640	0.320	-1.490	0.720
2020/01/31 07:31:23.1	89.640	0.320	-1.450	0.720
2020/01/31 07:31:23.2	89.640	0.330	-1.400	0.720
2020/01/31 07:31:23.3	89.640	0.330	-1.350	0.730
2020/01/31 07:31:23.4	89.640	0.320	-1.280	0.740
2020/01/31 07:31:23.5	89.630	0.310	-1.200	0.750
2020/01/31 07:31:23.6	89.630	0.300	-1.110	0.760
2020/01/31 07:31:23.7	89.620	0.290	-1.020	0.780
2020/01/31 07:31:23.8	89.610	0.270	-0.920	0.800
2020/01/31 07:31:23.9	89.590	0.250	-0.810	0.820
2020/01/31 07:31:24.0	89.580	0.220	-0.690	0.840
2020/01/31 07:31:24.1	89.560	0.190	-0.570	0.870
2020/01/31 07:31:24.2	89.540	0.160	-0.440	0.900
2020/01/31 07:31:24.3	89.520	0.130	-0.310	0.920
2020/01/31 07:31:24.4	89.500	0.090	-0.180	0.960
2020/01/31 07:31:24.5	89.480	0.060	-0.040	0.990
2020/01/31 07:31:24.6	89.460	0.020	0.090	1.020
2020/01/31 07:31:24.7	89.430	-0.020	0.230	1.050
2020/01/31 07:31:24.8	89.410	-0.060	0.360	1.080
2020/01/31 07:31:24.9	89.390	-0.110	0.500	1.120
2020/01/31 07:31:25.0	89.360	-0.150	0.630	1.150
2020/01/31 07:31:25.1	89.340	-0.190	0.750	1.180
2020/01/31 07:31:25.2	89.310	-0.230	0.870	1.210
2020/01/31 07:31:25.3	89.290	-0.270	0.990	1.250
2020/01/31 07:31:25.4	89.270	-0.310	1.100	1.270
2020/01/31 07:31:25.5	89.250	-0.350	1.200	1.300
2020/01/31 07:31:25.6	89.220	-0.390	1.290	1.320
2020/01/31 07:31:25.7	89.210	-0.420	1.370	1.340
2020/01/31 07:31:25.8	89.190	-0.450	1.450	1.360
2020/01/31 07:31:25.9	89.170	-0.480	1.510	1.370
2020/01/31 07:31:26.0	89.150	-0.510	1.560	1.380
2020/01/31 07:31:26.1	89.140	-0.530	1.600	1.380
2020/01/31 07:31:26.2	89.130	-0.550	1.620	1.380
2020/01/31 07:31:26.3	89.120	-0.560	1.640	1.370
2020/01/31 07:31:26.4	89.110	-0.570	1.640	1.360
2020/01/31 07:31:26.5	89.110	-0.570	1.630	1.350
2020/01/31 07:31:26.6	89.100	-0.580	1.610	1.330
2020/01/31 07:31:26.7	89.100	-0.570	1.570	1.300
2020/01/31 07:31:26.8	89.100	-0.560	1.520	1.270
2020/01/31 07:31:26.9	89.100	-0.550	1.460	1.240
2020/01/31 07:31:27.0	89.100	-0.530	1.390	1.200
2020/01/31 07:31:27.1	89.100	-0.510	1.300	1.150
2020/01/31 07:31:27.2	89.110	-0.480	1.210	1.110
2020/01/31 07:31:27.3	89.110	-0.450	1.100	1.060
2020/01/31 07:31:27.4	89.120	-0.410	0.980	1.000
2020/01/31 07:31:27.5	89.120	-0.370	0.860	0.940
2020/01/31 07:31:27.6	89.130	-0.330	0.730	0.890
2020/01/31 07:31:27.7	89.140	-0.280	0.590	0.820
2020/01/31 07:31:27.8	89.150	-0.230	0.450	0.760
2020/01/31 07:31:27.9	89.170	-0.180	0.310	0.700
2020/01/31 07:31:28.0	89.180	-0.130	0.160	0.640
2020/01/31 07:31:28.1	89.190	-0.070	0.010	0.570
2020/01/31 07:31:28.2	89.200	-0.010	-0.140	0.510
2020/01/31 07:31:28.3	89.220	0.050	-0.300	0.450
2020/01/31 07:31:28.4	89.230	0.110	-0.450	0.390
2020/01/31 07:31:28.5	89.240	0.170	-0.590	0.330
2020/01/31 07:31:28.6	89.250	0.230	-0.740	0.270
2020/01/31 07:31:28.7	89.260	0.290	-0.880	0.220
2020/01/31 07:31:28.8	89.270	0.350	-1.010	0.160
2020/01/31 07:31:28.9	89.280	0.400	-1.140	0.120
2020/01/31 07:31:29.0	89.290	0.460	-1.250	0.070
2020/01/31 07:31:29.1	89.300	0.510	-1.370	0.030
2020/01/31 07:31:29.2	89.310	0.560	-1.470	-0.010
2020/01/31 07:31:29.3	89.310	0.610	-1.560	-0.040
2020/01/31 07:31:29.4	89.320	0.650	-1.650	-0.070
2020/01/31 07:31:29.5	89.320	0.690	-1.720	-0.100
2020/01/31 07:31:29.6	89.320	0.730	-1.780	-0.120
2020/01/31 07:31:29.7	89.320	0.760	-1.830	-0.140
2020/01/31 07:31:29.8	89.330	0.780	-1.860	-0.160
2020/01/31 07:31:29.9	89.330	0.810	-1.890	-0.170
2020/01/31 07:31:30.0	89.320	0.820	-1.900	-0.170
2020/01/31 07:31:30.1	89.320	0.830	-1.890	-0.170
2020/01/31 07:31:30.2	89.320	0.840	-1.880	-0.170
2020/01/31 07:31:30.3	89.320	0.840	-1.850	-0.160
2020/01/31 07:31:30.4	89.310	0.840	-1.810	-0.150
2020/01/31 07:31:30.5	89.300	0.830	-1.760	-0.140
2020/01/31 07:31:30.6	89.300	0.810	-1.700	-0.120
2020/01/31 07:31:30.7	89.290	0.790	-1.630	-0.100
2020/01/31 07:31:30.8	89.280	0.770	-1.550	-0.070
2020/01/31 07:31:30.9	89.270	0.740	-1.450	-0.040
2020/01/31 07:31:31.0	89.260	0.710	-1.350	-0.010
2020/01/31 07:31:31.1	89.240	0.670	-1.250	0.030
2020/01/31 07:31:31.2	89.230	0.630	-1.130	0.070
2020/01/31 07:31:31.3	89.220	0.580	-1.010	0.120
2020/01/31 07:31:31.4	89.200	0.540	-0.880	0.170
2020/01/31 07:31:31.5	89.190	0.490	-0.750	0.220
2020/01/31 07:31:31.6	89.170	0.430	-0.620	0.280
2020/01/31 07:31:31.7	89.150	0.380	-0.480	0.330
2020/01/31 07:31:31.8	89.130	0.320	-0.340	0.400
2020/01/31 07:31:31.9	89.120	0.260	-0.210	0.460
2020/01/31 07:31:32.0	89.100	0.200	-0.070	0.530
2020/01/31 07:31:32.1	89.080	0.150	0.070	0.590
2020/01/31 07:31:32.2	89.060	0.090	0.200	0.660
2020/01/31 07:31:32.3	89.050	0.030	0.330	0.730
2020/01/31 07:31:32.4	89.030	-0.030	0.450	0.800
2020/01/31 07:31:32.5	89.010	-0.090	0.570	0.880
2020/01/31 07:31:32.6	88.990	-0.140	0.690	0.950
2020/01/31 07:31:32.7	88.980	-0.190	0.790	1.020
2020/01/31 07:31:32.8	88.960	-0.240	0.890	1.090
2020/01/31 07:31:32.9	88.950	-0.290	0.980	1.160
2020/01/31 07:31:33.0	88.930	-0.340	1.060	1.220
2020/01/31 07:31:33.1	88.920	-0.380	1.130	1.290
2020/01/31 07:31:33.2	88.900	-0.420	1.190	1.350
2020/01/31 07:31:33.3	88.890	-0.450	1.240	1.410
2020/01/31 07:31:33.4	88.880	-0.480	1.280	1.470
2020/01/31 07:31:33.5	88.870	-0.510	1.300	1.520
2020/01/31 07:31:33.6	88.870	-0.530	1.320	1.570
2020/01/31 07:31:33.7	88.860	-0.540	1.320	1.620
2020/01/31 07:31:33.8	88.850	-0.560	1.310	1.670
2020/01/31 07:31:33.9	88.850	-0.560	1.290	1.710
2020/01/31 07:31:34.0	88.850	-0.570	1.250	1.740
2020/01/31 07:31:34.1	88.850	-0.570	1.210	1.770
2020/01/31 07:31:34.2	88.860	-0.560	1.150	1.800
2020/01/31 07:31:34.3	88.860	-0.550	1.080	1.830
2020/01/31 07:31:34.4	88.870	-0.530	1.010	1.840
2020/01/31 07:31:34.5	88.880	-0.510	0.920	1.860
2020/01/31 07:31:34.6	88.890	-0.490	0.830	1.870
2020/01/31 07:31:34.7	88.900	-0.460	0.730	1.880
2020/01/31 07:31:34.8	88.920	-0.430	0.620	1.890
2020/01/31 07:31:34.9	88.940	-0.400	0.500	1.890
2020/01/31 07:31:35.0	88.960	-0.360	0.380	1.900
2020/01/31 07:31:35.1	88.980	-0.330	0.260	1.900
2020/01/31 07:31:35.2	89.000	-0.280	0.130	1.890
2020/01/31 07:31:35.3	89.020	-0.240	0.000	1.890
2020/01/31 07:31:35.4	89.040	-0.200	-0.130	1.880
2020/01/31 07:31:35.5	89.070	-0.150	-0.250	1.880
2020/01/31 07:31:35.6	89.090	-0.100	-0.380	1.870
2020/01/31 07:31:35.7	89.120	-0.050	-0.500	1.860
2020/01/31 07:31:35.8	89.140	-0.010	-0.620	1.860
2020/01/31 07:31:35.9	89.160	0.040	-0.730	1.850
2020/01/31 07:31:36.0	89.180	0.090	-0.830	1.840
2020/01/31 07:31:36.1	89.200	0.130	-0.930	1.840
2020/01/31 07:31:36.2	89.220	0.180	-1.020	1.830
2020/01/31 07:31:36.3	89.230	0.220	-1.100	1.830
2020/01/31 07:31:36.4	89.240	0.260	-1.170	1.830
2020/01/31 07:31:36.5	89.250	0.300	-1.230	1.830
2020/01/31 07:31:36.6	89.260	0.340	-1.280	1.830
2020/01/31 07:31:36.7	89.260	0.370	-1.320	1.830
2020/01/31 07:31:36.8	89.260	0.400	-1.340	1.840
2020/01/31 07:31:36.9	89.260	0.420	-1.350	1.840
2020/01/31 07:31:37.0	89.260	0.440	-1.350	1.850
2020/01/31 07:31:37.1	89.250	0.460	-1.340	1.860
2020/01/31 07:31:37.2	89.250	0.470	-1.320	1.860
2020/01/31 07:31:37.3	89.230	0.480	-1.280	1.870
2020/01/31 07:31:37.4	89.220	0.480	-1.240	1.870
2020/01/31 07:31:37.5	89.210	0.480	-1.180	1.880
2020/01/31 07:31:37.6	89.200	0.470	-1.110	1.880
2020/01/31 07:31:37.7	89.190	0.460	-1.040	1.890
2020/01/31 07:31:37.8	89.170	0.440	-0.950	1.890
2020/01/31 07:31:37.9	89.160	0.420	-0.860	1.890
2020/01/31 07:31:38.0	89.150	0.400	-0.770	1.880
2020/01/31 07:31:38.1	89.130	0.370	-0.670	1.880
2020/01/31 07:31:38.2	89.120	0.340	-0.560	1.870
2020/01/31 07:31:38.3	89.100	0.300	-0.450	1.860
2020/01/31 07:31:38.4	89.090	0.260	-0.340	1.850
2020/01/31 07:31:38.5	89.070	0.220	-0.230	1.830
2020/01/31 07:31:38.6	89.060	0.180	-0.120	1.810
2020/01/31 07:31:38.7	89.050	0.130	-0.010	1.790
2020/01/31 07:31:38.8	89.030	0.080	0.100	1.770
2020/01/31 07:31:38.9	89.020	0.040	0.200	1.740
2020/01/31 07:31:39.0	89.000	-0.010	0.300	1.720
2020/01/31 07:31:39.1	88.990	-0.060	0.390	1.690
2020/01/31 07:31:39.2	88.970	-0.110	0.480	1.650
2020/01/31 07:31:39.3	88.950	-0.160	0.560	1.620
2020/01/31 07:31:39.4	88.940	-0.200	0.640	1.580
2020/01/31 07:31:39.5	88.920	-0.250	0.700	1.550
2020/01/31 07:31:39.6	88.900	-0.290	0.760	1.510
2020/01/31 07:31:39.7	88.890	-0.330	0.820	1.470
2020/01/31 07:31:39.8	88.870	-0.370	0.860	1.430
2020/01/31 07:31:39.9	88.850	-0.400	0.890	1.390
2020/01/31 07:31:40.0	88.840	-0.430	0.920	1.350
2020/01/31 07:31:40.1	88.820	-0.460	0.930	1.310
2020/01/31 07:31:40.2	88.810	-0.480	0.940	1.260
2020/01/31 07:31:40.3	88.790	-0.500	0.930	1.220
2020/01/31 07:31:40.4	88.780	-0.520	0.920	1.170
2020/01/31 07:31:40.5	88.760	-0.530	0.900	1.120
2020/01/31 07:31:40.6	88.750	-0.540	0.870	1.080
2020/01/31 07:31:40.7	88.740	-0.540	0.830	1.030
2020/01/31 07:31:40.8	88.730	-0.540	0.790	0.980
2020/01/31 07:31:40.9	88.720	-0.540	0.730	0.930
2020/01/31 07:31:41.0	88.710	-0.530	0.670	0.880
2020/01/31 07:31:41.1	88.710	-0.520	0.610	0.820
2020/01/31 07:31:41.2	88.700	-0.510	0.540	0.770
2020/01/31 07:31:41.3	88.700	-0.490	0.460	0.710
2020/01/31 07:31:41.4	88.700	-0.470	0.380	0.660
2020/01/31 07:31:41.5	88.690	-0.450	0.300	0.600
2020/01/31 07:31:41.6	88.690	-0.420	0.210	0.550
2020/01/31 07:31:41.7	88.690	-0.390	0.120	0.490
2020/01/31 07:31:41.8	88.690	-0.360	0.030	0.440
2020/01/31 07:31:41.9	88.700	-0.330	-0.060	0.380
2020/01/31 07:31:42.0	88.700	-0.300	-0.140	0.330
2020/01/31 07:31:42.1	88.700	-0.260	-0.230	0.280
2020/01/31 07:31:42.2	88.710	-0.230	-0.320	0.220
2020/01/31 07:31:42.3	88.720	-0.190	-0.400	0.170
2020/01/31 07:31:42.4	88.720	-0.160	-0.480	0.120
2020/01/31 07:31:42.5	88.730	-0.120	-0.560	0.070
2020/01/31 07:31:42.6	88.740	-0.090	-0.630	0.020
2020/01/31 07:31:42.7	88.750	-0.060	-0.700	-0.020
2020/01/31 07:31:42.8	88.760	-0.020	-0.760	-0.060
2020/01/31 07:31:42.9	88.770	0.010	-0.820	-0.100
2020/01/31 07:31:43.0	88.790	0.040	-0.880	-0.140
2020/01/31 07:31:43.1	88.800	0.070	-0.930	-0.180
2020/01/31 07:31:43.2	88.810	0.100	-0.970	-0.210
2020/01/31 07:31:43.3	88.830	0.130	-1.020	-0.240
2020/01/31 07:31:43.4	88.840	0.150	-1.050	-0.260
2020/01/31 07:31:43.5	88.860	0.180	-1.070	-0.290
2020/01/31 07:31:43.6	88.870	0.200	-1.100	-0.310
2020/01/31 07:31:43.7	88.890	0.220	-1.110	-0.330
2020/01/31 07:31:43.8	88.900	0.240	-1.120	-0.340
2020/01/31 07:31:43.9	88.910	0.260	-1.120	-0.350
2020/01/31 07:31:44.0	88.930	0.270	-1.120	-0.360
2020/01/31 07:31:44.1	88.940	0.290	-1.110	-0.370
2020/01/31 07:31:44.2	88.950	0.300	-1.100	-0.370
2020/01/31 07:31:44.3	88.970	0.310	-1.080	-0.360
2020/01/31 07:31:44.4	88.980	0.320	-1.050	-0.360
2020/01/31 07:31:44.5	88.990	0.330	-1.020	-0.350
2020/01/31 07:31:44.6	89.000	0.330	-0.980	-0.330
2020/01/31 07:31:44.7	89.000	0.340	-0.940	-0.320
2020/01/31 07:31:44.8	89.010	0.340	-0.900	-0.300
2020/01/31 07:31:44.9	89.010	0.340	-0.850	-0.280
2020/01/31 07:31:45.0	89.010	0.340	-0.790	-0.250
2020/01/31 07:31:45.1	89.010	0.340	-0.730	-0.230
2020/01/31 07:31:45.2	89.010	0.340	-0.670	-0.200
2020/01/31 07:31:45.3	89.010	0.330	-0.600	-0.160
2020/01/31 07:31:45.4	89.000	0.330	-0.530	-0.130
2020/01/31 07:31:45.5	88.990	0.320	-0.460	-0.090
2020/01/31 07:31:45.6	88.980	0.320	-0.380	-0.060
2020/01/31 07:31:45.7	88.970	0.310	-0.300	-0.020
2020/01/31 07:31:45.8	88.960	0.300	-0.220	0.020
2020/01/31 07:31:45.9	88.940	0.290	-0.140	0.070
2020/01/31 07:31:46.0	88.920	0.280	-0.060	0.110
2020/01/31 07:31:46.1	88.910	0.270	0.020	0.150
2020/01/31 07:31:46.2	88.890	0.260	0.100	0.200
2020/01/31 07:31:46.3	88.860	0.250	0.170	0.240
2020/01/31 07:31:46.4	88.840	0.230	0.250	0.290
2020/01/31 07:31:46.5	88.820	0.220	0.320	0.330
2020/01/31 07:31:46.6	88.790	0.210	0.390	0.380
2020/01/31 07:31:46.7	88.760	0.200	0.460	0.430
2020/01/31 07:31:46.8	88.740	0.190	0.520	0.470
2020/01/31 07:31:46.9	88.710	0.180	0.570	0.520
2020/01/31 07:31:47.0	88.690	0.170	0.620	0.560
2020/01/31 07:31:47.1	88.660	0.160	0.670	0.610
2020/01/31 07:31:47.2	88.630	0.150	0.710	0.650
2020/01/31 07:31:47.3	88.610	0.140	0.740	0.700
2020/01/31 07:31:47.4	88.590	0.130	0.760	0.740
2020/01/31 07:31:47.5	88.560	0.130	0.780	0.780
2020/01/31 07:31:47.6	88.540	0.120	0.790	0.820
2020/01/31 07:31:47.7	88.520	0.120	0.790	0.860
2020/01/31 07:31:47.8	88.500	0.120	0.780	0.900
2020/01/31 07:31:47.9	88.480	0.120	0.770	0.940
2020/01/31 07:31:48.0	88.470	0.120	0.750	0.980
2020/01/31 07:31:48.1	88.450	0.120	0.720	1.010
2020/01/31 07:31:48.2	88.440	0.120	0.690	1.050
2020/01/31 07:31:48.3	88.430	0.120	0.640	1.080
2020/01/31 07:31:48.4	88.430	0.130	0.590	1.110
2020/01/31 07:31:48.5	88.420	0.130	0.540	1.140
2020/01/31 07:31:48.6	88.420	0.140	0.470	1.170
2020/01/31 07:31:48.7	88.420	0.150	0.410	1.200
2020/01/31 07:31:48.8	88.420	0.150	0.340	1.230
2020/01/31 07:31:48.9	88.430	0.160	0.260	1.260
2020/01/31 07:31:49.0	88.440	0.170	0.180	1.280
2020/01/31 07:31:49.1	88.450	0.180	0.100	1.310
2020/01/31 07:31:49.2	88.460	0.190	0.020	1.330
2020/01/31 07:31:49.3	88.480	0.200	-0.070	1.350
2020/01/31 07:31:49.4	88.500	0.210	-0.160	1.370
2020/01/31 07:31:49.5	88.520	0.220	-0.240	1.390
2020/01/31 07:31:49.6	88.550	0.230	-0.330	1.400
2020/01/31 07:31:49.7	88.580	0.240	-0.410	1.420
2020/01/31 07:31:49.8	88.610	0.250	-0.490	1.430
2020/01/31 07:31:49.9	88.640	0.260	-0.570	1.450
2020/01/31 07:31:50.0	88.670	0.270	-0.640	1.460
2020/01/31 07:31:50.1	88.710	0.270	-0.710	1.470
2020/01/31 07:31:50.2	88.750	0.280	-0.770	1.480
2020/01/31 07:31:50.3	88.780	0.290	-0.840	1.490
2020/01/31 07:31:50.4	88.820	0.290	-0.890	1.500
2020/01/31 07:31:50.5	88.860	0.300	-0.940	1.500
2020/01/31 07:31:50.6	88.900	0.300	-0.980	1.510
2020/01/31 07:31:50.7	88.940	0.300	-1.010	1.520
2020/01/31 07:31:50.8	88.980	0.300	-1.030	1.530
2020/01/31 07:31:50.9	89.020	0.300	-1.050	1.540
2020/01/31 07:31:51.0	89.060	0.290	-1.060	1.550
2020/01/31 07:31:51.1	89.100	0.290	-1.070	1.560
2020/01/31 07:31:51.2	89.130	0.280	-1.060	1.570
2020/01/31 07:31:51.3	89.170	0.270	-1.050	1.580
2020/01/31 07:31:51.4	89.200	0.260	-1.030	1.590
2020/01/31 07:31:51.5	89.230	0.250	-1.000	1.600
2020/01/31 07:31:51.6	89.260	0.240	-0.960	1.620
2020/01/31 07:31:51.7	89.290	0.220	-0.920	1.640
2020/01/31 07:31:51.8	89.310	0.200	-0.870	1.650
2020/01/31 07:31:51.9	89.330	0.180	-0.820	1.680
2020/01/31 07:31:52.0	89.340	0.160	-0.760	1.700
2020/01/31 07:31:52.1	89.350	0.140	-0.700	1.720
2020/01/31 07:31:52.2	89.360	0.110	-0.630	1.750
2020/01/31 07:31:52.3	89.350	0.080	-0.560	1.780
2020/01/31 07:31:52.4	89.350	0.060	-0.490	1.810
2020/01/31 07:31:52.5	89.350	0.030	-0.410	1.840
2020/01/31 07:31:52.6	89.330	-0.010	-0.330	1.870
2020/01/31 07:31:52.7	89.320	-0.040	-0.250	1.910
2020/01/31 07:31:52.8	89.300	-0.070	-0.160	1.950
2020/01/31 07:31:52.9	89.270	-0.110	-0.080	1.980
2020/01/31 07:31:53.0	89.250	-0.140	0.000	2.020
2020/01/31 07:31:53.1	89.220	-0.180	0.090	2.060
2020/01/31 07:31:53.2	89.180	-0.210	0.170	2.100
2020/01/31 07:31:53.3	89.140	-0.250	0.250	2.140
2020/01/31 07:31:53.4	89.100	-0.290	0.330	2.180
2020/01/31 07:31:53.5	89.060	-0.330	0.410	2.210
2020/01/31 07:31:53.6	89.020	-0.360	0.480	2.250
2020/01/31 07:31:53.7	88.970	-0.400	0.550	2.280
2020/01/31 07:31:53.8	88.930	-0.440	0.620	2.310
2020/01/31 07:31:53.9	88.880	-0.470	0.680	2.330
2020/01/31 07:31:54.0	88.830	-0.510	0.730	2.360
2020/01/31 07:31:54.1	88.790	-0.540	0.780	2.380
2020/01/31 07:31:54.2	88.740	-0.570	0.830	2.390
2020/01/31 07:31:54.3	88.700	-0.600	0.870	2.400
2020/01/31 07:31:54.4	88.660	-0.630	0.900	2.400
2020/01/31 07:31:54.5	88.620	-0.660	0.930	2.400
2020/01/31 07:31:54.6	88.590	-0.680	0.950	2.390
2020/01/31 07:31:54.7	88.550	-0.710	0.960	2.380
2020/01/31 07:31:54.8	88.520	-0.720	0.970	2.350
2020/01/31 07:31:54.9	88.490	-0.740	0.970	2.330
2020/01/31 07:31:55.0	88.470	-0.750	0.960	2.290
2020/01/31 07:31:55.1	88.450	-0.760	0.940	2.250
2020/01/31 07:31:55.2	88.430	-0.770	0.920	2.200
2020/01/31 07:31:55.3	88.410	-0.770	0.880	2.150
2020/01/31 07:31:55.4	88.400	-0.770	0.840	2.080
2020/01/31 07:31:55.5	88.390	-0.760	0.790	2.010
2020/01/31 07:31:55.6	88.380	-0.750	0.740	1.940
2020/01/31 07:31:55.7	88.380	-0.730	0.680	1.860
2020/01/31 07:31:55.8	88.380	-0.710	0.610	1.770
2020/01/31 07:31:55.9	88.380	-0.690	0.530	1.680
2020/01/31 07:31:56.0	88.390	-0.660	0.450	1.590
2020/01/31 07:31:56.1	88.390	-0.630	0.370	1.490
2020/01/31 07:31:56.2	88.400	-0.590	0.270	1.390
2020/01/31 07:31:56.3	88.420	-0.550	0.170	1.280
2020/01/31 07:31:56.4	88.430	-0.500	0.070	1.180
2020/01/31 07:31:56.5	88.450	-0.450	-0.040	1.070
2020/01/31 07:31:56.6	88.470	-0.390	-0.150	0.960
2020/01/31 07:31:56.7	88.490	-0.340	-0.260	0.840
2020/01/31 07:31:56.8	88.510	-0.280	-0.370	0.730
2020/01/31 07:31:56.9	88.540	-0.210	-0.490	0.620
2020/01/31 07:31:57.0	88.570	-0.150	-0.600	0.500
2020/01/31 07:31:57.1	88.600	-0.080	-0.720	0.390
2020/01/31 07:31:57.2	88.630	-0.010	-0.830	0.270
2020/01/31 07:31:57.3	88.670	0.060	-0.940	0.160
2020/01/31 07:31:57.4	88.700	0.130	-1.050	0.050
2020/01/31 07:31:57.5	88.730	0.200	-1.150	-0.060
2020/01/31 07:31:57.6	88.770	0.270	-1.250	-0.160
2020/01/31 07:31:57.7	88.810	0.340	-1.330	-0.270
2020/01/31 07:31:57.8	88.840	0.410	-1.410	-0.370
2020/01/31 07:31:57.9	88.880	0.470	-1.490	-0.470
2020/01/31 07:31:58.0	88.910	0.530	-1.550	-0.560
2020/01/31 07:31:58.1	88.940	0.590	-1.600	-0.640
2020/01/31 07:31:58.2	88.980	0.640	-1.640	-0.730
2020/01/31 07:31:58.3	89.010	0.690	-1.670	-0.800
2020/01/31 07:31:58.4	89.030	0.730	-1.690	-0.870
2020/01/31 07:31:58.5	89.060	0.770	-1.700	-0.940
2020/01/31 07:31:58.6	89.080	0.800	-1.690	-0.990
2020/01/31 07:31:58.7	89.100	0.830	-1.670	-1.040
2020/01/31 07:31:58.8	89.110	0.850	-1.630	-1.090
2020/01/31 07:31:58.9	89.120	0.870	-1.590	-1.120
2020/01/31 07:31:59.0	89.130	0.880	-1.530	-1.150
2020/01/31 07:31:59.1	89.140	0.880	-1.450	-1.180
2020/01/31 07:31:59.2	89.140	0.880	-1.370	-1.190
2020/01/31 07:31:59.3	89.140	0.870	-1.280	-1.190
2020/01/31 07:31:59.4	89.130	0.850	-1.170	-1.190
2020/01/31 07:31:59.5	89.120	0.830	-1.060	-1.190
2020/01/31 07:31:59.6	89.110	0.800	-0.940	-1.170
2020/01/31 07:31:59.7	89.090	0.770	-0.810	-1.150
2020/01/31 07:31:59.8	89.070	0.730	-0.680	-1.120
2020/01/31 07:31:59.9	89.040	0.690	-0.540	-1.090
2020/01/31 07:32:00.0	89.020	0.640	-0.400	-1.050
2020/01/31 07:32:00.1	88.990	0.590	-0.260	-1.000
2020/01/31 07:32:00.2	88.950	0.540	-0.120	-0.950
2020/01/31 07:32:00.3	88.930	0.490	0.030	-0.890
2020/01/31 07:32:00.4	88.890	0.430	0.170	-0.830
2020/01/31 07:32:00.5	88.850	0.370	0.310	-0.760
2020/01/31 07:32:00.6	88.820	0.310	0.440	-0.690
2020/01/31 07:32:00.7	88.780	0.240	0.570	-0.610
2020/01/31 07:32:00.8	88.740	0.180	0.690	-0.530
2020/01/31 07:32:00.9	88.710	0.120	0.810	-0.460
2020/01/31 07:32:01.0	88.670	0.060	0.910	-0.370
2020/01/31 07:32:01.1	88.640	-0.000	1.010	-0.290
2020/01/31 07:32:01.2	88.600	-0.060	1.100	-0.210
2020/01/31 07:32:01.3	88.570	-0.110	1.180	-0.120
2020/01/31 07:32:01.4	88.540	-0.170	1.240	-0.040
2020/01/31 07:32:01.5	88.510	-0.220	1.300	0.050
2020/01/31 07:32:01.6	88.480	-0.270	1.340	0.130
2020/01/31 07:32:01.7	88.450	-0.310	1.370	0.210
2020/01/31 07:32:01.8	88.430	-0.350	1.390	0.290
2020/01/31 07:32:01.9	88.410	-0.390	1.400	0.370
2020/01/31 07:32:02.0	88.390	-0.420	1.390	0.440
2020/01/31 07:32:02.1	88.370	-0.450	1.380	0.510
2020/01/31 07:32:02.2	88.360	-0.470	1.350	0.580
2020/01/31 07:32:02.3	88.350	-0.490	1.310	0.650
2020/01/31 07:32:02.4	88.340	-0.500	1.260	0.710
2020/01/31 07:32:02.5	88.340	-0.510	1.200	0.770
2020/01/31 07:32:02.6	88.340	-0.520	1.140	0.830
2020/01/31 07:32:02.7	88.340	-0.520	1.060	0.880
2020/01/31 07:32:02.8	88.350	-0.510	0.970	0.930
2020/01/31 07:32:02.9	88.350	-0.510	0.880	0.980
2020/01/31 07:32:03.0	88.370	-0.490	0.780	1.020
2020/01/31 07:32:03.1	88.380	-0.480	0.670	1.060
2020/01/31 07:32:03.2	88.400	-0.460	0.560	1.100
2020/01/31 07:32:03.3	88.420	-0.440	0.440	1.140
2020/01/31 07:32:03.4	88.440	-0.410	0.320	1.180
2020/01/31 07:32:03.5	88.470	-0.380	0.200	1.210
2020/01/31 07:32:03.6	88.490	-0.350	0.080	1.240
2020/01/31 07:32:03.7	88.520	-0.320	-0.040	1.270
2020/01/31 07:32:03.8	88.550	-0.290	-0.160	1.300
2020/01/31 07:32:03.9	88.590	-0.250	-0.280	1.330
2020/01/31 07:32:04.0	88.620	-0.210	-0.390	1.360
2020/01/31 07:32:04.1	88.650	-0.180	-0.500	1.390
2020/01/31 07:32:04.2	88.680	-0.140	-0.610	1.430
2020/01/31 07:32:04.3	88.710	-0.100	-0.720	1.460
2020/01/31 07:32:04.4	88.740	-0.060	-0.810	1.500
2020/01/31 07:32:04.5	88.770	-0.020	-0.900	1.540
2020/01/31 07:32:04.6	88.800	0.020	-0.980	1.580
2020/01/31 07:32:04.7	88.820	0.050	-1.060	1.620
2020/01/31 07:32:04.8	88.850	0.090	-1.120	1.660
2020/01/31 07:32:04.9	88.870	0.120	-1.180	1.710
2020/01/31 07:32:05.0	88.890	0.160	-1.220	1.760
2020/01/31 07:32:05.1	88.910	0.190	-1.260	1.810
2020/01/31 07:32:05.2	88.920	0.210	-1.290	1.870
2020/01/31 07:32:05.3	88.930	0.240	-1.310	1.920
2020/01/31 07:32:05.4	88.940	0.260	-1.320	1.980
2020/01/31 07:32:05.5	88.950	0.290	-1.320	2.040
2020/01/31 07:32:05.6	88.950	0.310	-1.320	2.100
2020/01/31 07:32:05.7	88.950	0.320	-1.300	2.160
2020/01/31 07:32:05.8	88.950	0.340	-1.280	2.220
2020/01/31 07:32:05.9	88.950	0.350	-1.250	2.280
2020/01/31 07:32:06.0	88.940	0.360	-1.210	2.330
2020/01/31 07:32:06.1	88.930	0.360	-1.170	2.390
2020/01/31 07:32:06.2	88.920	0.370	-1.120	2.450
2020/01/31 07:32:06.3	88.910	0.370	-1.070	2.510
2020/01/31 07:32:06.4	88.890	0.370	-1.010	2.560
2020/01/31 07:32:06.5	88.870	0.360	-0.950	2.620
2020/01/31 07:32:06.6	88.850	0.360	-0.880	2.670
2020/01/31 07:32:06.7	88.820	0.350	-0.820	2.710
2020/01/31 07:32:06.8	88.790	0.340	-0.750	2.760
2020/01/31 07:32:06.9	88.760	0.330	-0.680	2.800
2020/01/31 07:32:07.0	88.730	0.320	-0.610	2.840
2020/01/31 07:32:07.1	88.700	0.310	-0.540	2.870
2020/01/31 07:32:07.2	88.660	0.290	-0.470	2.900
2020/01/31 07:32:07.3	88.620	0.280	-0.390	2.920
2020/01/31 07:32:07.4	88.590	0.260	-0.320	2.940
2020/01/31 07:32:07.5	88.550	0.240	-0.260	2.950
2020/01/31 07:32:07.6	88.510	0.220	-0.190	2.950
2020/01/31 07:32:07.7	88.470	0.200	-0.130	2.950
2020/01/31 07:32:07.8	88.440	0.180	-0.060	2.940
2020/01/31 07:32:07.9	88.400	0.160	-0.000	2.920
2020/01/31 07:32:08.0	88.360	0.140	0.060	2.890
2020/01/31 07:32:08.1	88.330	0.110	0.110	2.860
2020/01/31 07:32:08.2	88.300	0.090	0.170	2.820
2020/01/31 07:32:08.3	88.270	0.070	0.220	2.770
2020/01/31 07:32:08.4	88.240	0.040	0.270	2.720
2020/01/31 07:32:08.5	88.220	0.020	0.310	2.660
2020/01/31 07:32:08.6	88.200	-0.000	0.350	2.590
2020/01/31 07:32:08.7	88.180	-0.020	0.390	2.510
2020/01/31 07:32:08.8	88.160	-0.050	0.430	2.430
2020/01/31 07:32:08.9	88.150	-0.070	0.470	2.340
2020/01/31 07:32:09.0	88.140	-0.090	0.500	2.240
2020/01/31 07:32:09.1	88.140	-0.110	0.520	2.150
2020/01/31 07:32:09.2	88.130	-0.130	0.550	2.040
2020/01/31 07:32:09.3	88.130	-0.150	0.570	1.930
2020/01/31 07:32:09.4	88.140	-0.160	0.580	1.820
2020/01/31 07:32:09.5	88.140	-0.180	0.600	1.700
2020/01/31 07:32:09.6	88.150	-0.190	0.600	1.590
2020/01/31 07:32:09.7	88.160	-0.200	0.610	1.470
2020/01/31 07:32:09.8	88.170	-0.210	0.610	1.340
2020/01/31 07:32:09.9	88.190	-0.220	0.600	1.220
2020/01/31 07:32:10.0	88.200	-0.230	0.590	1.090
2020/01/31 07:32:10.1	88.220	-0.230	0.580	0.970
2020/01/31 07:32:10.2	88.240	-0.240	0.560	0.840
2020/01/31 07:32:10.3	88.270	-0.240	0.540	0.720
2020/01/31 07:32:10.4	88.290	-0.230	0.510	0.590
2020/01/31 07:32:10.5	88.320	-0.230	0.480	0.470
2020/01/31 07:32:10.6	88.340	-0.220	0.450	0.350
2020/01/31 07:32:10.7	88.370	-0.210	0.410	0.220
2020/01/31 07:32:10.8	88.400	-0.200	0.360	0.100
2020/01/31 07:32:10.9	88.430	-0.190	0.320	-0.020
2020/01/31 07:32:11.0	88.460	-0.180	0.260	-0.130
2020/01/31 07:32:11.1	88.500	-0.160	0.210	-0.250
2020/01/31 07:32:11.2	88.530	-0.140	0.150	-0.360
2020/01/31 07:32:11.3	88.560	-0.120	0.090	-0.460
2020/01/31 07:32:11.4	88.600	-0.100	0.020	-0.570
2020/01/31 07:32:11.5	88.630	-0.080	-0.040	-0.670
2020/01/31 07:32:11.6	88.660	-0.060	-0.110	-0.770
2020/01/31 07:32:11.7	88.690	-0.040	-0.180	-0.870
2020/01/31 07:32:11.8	88.720	-0.010	-0.240	-0.960
2020/01/31 07:32:11.9	88.750	0.010	-0.310	-1.050
2020/01/31 07:32:12.0	88.780	0.040	-0.380	-1.130
2020/01/31 07:32:12.1	88.810	0.060	-0.450	-1.210
2020/01/31 07:32:12.2	88.840	0.080	-0.510	-1.280
2020/01/31 07:32:12.3	88.870	0.110	-0.580	-1.360
2020/01/31 07:32:12.4	88.900	0.130	-0.640	-1.420
2020/01/31 07:32:12.5	88.920	0.150	-0.700	-1.480
2020/01/31 07:32:12.6	88.950	0.170	-0.750	-1.530
2020/01/31 07:32:12.7	88.970	0.190	-0.810	-1.580
2020/01/31 07:32:12.8	88.990	0.200	-0.850	-1.620
2020/01/31 07:32:12.9	89.010	0.220	-0.890	-1.650
2020/01/31 07:32:13.0	89.030	0.230	-0.930	-1.670
2020/01/31 07:32:13.1	89.040	0.240	-0.960	-1.690
2020/01/31 07:32:13.2	89.060	0.250	-0.980	-1.700
2020/01/31 07:32:13.3	89.080	0.260	-1.010	-1.700
2020/01/31 07:32:13.4	89.090	0.260	-1.020	-1.690
2020/01/31 07:32:13.5	89.100	0.260	-1.020	-1.680
2020/01/31 07:32:13.6	89.110	0.260	-1.020	-1.660
2020/01/31 07:32:13.7	89.110	0.260	-1.010	-1.630
2020/01/31 07:32:13.8	89.120	0.250	-0.990	-1.580
2020/01/31 07:32:13.9	89.120	0.240	-0.960	-1.540
2020/01/31 07:32:14.0	89.120	0.230	-0.930	-1.480
2020/01/31 07:32:14.1	89.110	0.220	-0.890	-1.410
2020/01/31 07:32:14.2	89.110	0.200	-0.850	-1.330
2020/01/31 07:32:14.3	89.100	0.180	-0.800	-1.250
2020/01/31 07:32:14.4	89.090	0.160	-0.740	-1.160
2020/01/31 07:32:14.5	89.080	0.140	-0.670	-1.050
2020/01/31 07:32:14.6	89.060	0.110	-0.600	-0.950
2020/01/31 07:32:14.7	89.050	0.080	-0.530	-0.830
2020/01/31 07:32:14.8	89.030	0.050	-0.450	-0.710
2020/01/31 07:32:14.9	89.010	0.020	-0.360	-0.580
2020/01/31 07:32:15.0	89.000	-0.010	-0.280	-0.440
2020/01/31 07:32:15.1	88.980	-0.050	-0.190	-0.300
2020/01/31 07:32:15.2	88.960	-0.090	-0.090	-0.160
2020/01/31 07:32:15.3	88.940	-0.120	0.000	-0.010
2020/01/31 07:32:15.4	88.920	-0.160	0.100	0.140
2020/01/31 07:32:15.5	88.910	-0.200	0.190	0.290
2020/01/31 07:32:15.6	88.890	-0.240	0.290	0.450
2020/01/31 07:32:15.7	88.870	-0.280	0.380	0.600
2020/01/31 07:32:15.8	88.860	-0.320	0.480	0.750
2020/01/31 07:32:15.9	88.840	-0.360	0.570	0.900
2020/01/31 07:32:16.0	88.830	-0.390	0.650	1.050
2020/01/31 07:32:16.1	88.820	-0.430	0.730	1.190
2020/01/31 07:32:16.2	88.810	-0.460	0.810	1.330
2020/01/31 07:32:16.3	88.800	-0.500	0.880	1.470
2020/01/31 07:32:16.4	88.800	-0.530	0.940	1.600
2020/01/31 07:32:16.5	88.790	-0.560	1.000	1.730
2020/01/31 07:32:16.6	88.780	-0.580	1.050	1.850
2020/01/31 07:32:16.7	88.780	-0.600	1.090	1.960
2020/01/31 07:32:16.8	88.780	-0.620	1.120	2.070
2020/01/31 07:32:16.9	88.770	-0.640	1.140	2.170
2020/01/31 07:32:17.0	88.770	-0.650	1.150	2.260
2020/01/31 07:32:17.1	88.780	-0.660	1.150	2.340
2020/01/31 07:32:17.2	88.780	-0.660	1.140	2.420
2020/01/31 07:32:17.3	88.770	-0.660	1.120	2.480
2020/01/31 07:32:17.4	88.780	-0.650	1.090	2.540
2020/01/31 07:32:17.5	88.790	-0.640	1.050	2.590
2020/01/31 07:32:17.6	88.800	-0.630	1.000	2.640
2020/01/31 07:32:17.7	88.800	-0.610	0.940	2.670
2020/01/31 07:32:17.8	88.820	-0.580	0.870	2.700
2020/01/31 07:32:17.9	88.830	-0.550	0.790	2.710
2020/01/31 07:32:18.0	88.840	-0.520	0.700	2.720
2020/01/31 07:32:18.1	88.860	-0.480	0.600	2.720
2020/01/31 07:32:18.2	88.870	-0.440	0.500	2.720
2020/01/31 07:32:18.3	88.880	-0.390	0.380	2.710
2020/01/31 07:32:18.4	88.900	-0.340	0.270	2.690
2020/01/31 07:32:18.5	88.920	-0.290	0.150	2.660
2020/01/31 07:32:18.6	88.940	-0.230	0.020	2.630
2020/01/31 07:32:18.7	88.960	-0.170	-0.110	2.590
2020/01/31 07:32:18.8	88.980	-0.110	-0.240	2.550
2020/01/31 07:32:18.9	89.000	-0.050	-0.370	2.510
2020/01/31 07:32:19.0	89.020	0.020	-0.500	2.460
2020/01/31 07:32:19.1	89.040	0.080	-0.630	2.410
2020/01/31 07:32:19.2	89.060	0.150	-0.760	2.360
2020/01/31 07:32:19.3	89.080	0.210	-0.890	2.300
2020/01/31 07:32:19.4	89.100	0.280	-1.000	2.250
2020/01/31 07:32:19.5	89.120	0.340	-1.120	2.200
2020/01/31 07:32:19.6	89.140	0.410	-1.220	2.150
2020/01/31 07:32:19.7	89.160	0.470	-1.320	2.100
2020/01/31 07:32:19.8	89.180	0.530	-1.420	2.050
2020/01/31 07:32:19.9	89.200	0.580	-1.500	2.010
2020/01/31 07:32:20.0	89.210	0.640	-1.570	1.960
2020/01/31 07:32:20.1	89.230	0.680	-1.640	1.920
2020/01/31 07:32:20.2	89.240	0.730	-1.690	1.890
2020/01/31 07:32:20.3	89.250	0.770	-1.730	1.850
2020/01/31 07:32:20.4	89.270	0.800	-1.760	1.820
2020/01/31 07:32:20.5	89.280	0.830	-1.780	1.790
2020/01/31 07:32:20.6	89.290	0.860	-1.790	1.760
2020/01/31 07:32:20.7	89.300	0.870	-1.790	1.740
2020/01/31 07:32:20.8	89.310	0.890	-1.770	1.720
2020/01/31 07:32:20.9	89.320	0.900	-1.750	1.700
2020/01/31 07:32:21.0	89.330	0.900	-1.710	1.680
2020/01/31 07:32:21.1	89.340	0.890	-1.660	1.670
2020/01/31 07:32:21.2	89.350	0.890	-1.600	1.660
2020/01/31 07:32:21.3	89.360	0.870	-1.530	1.640
2020/01/31 07:32:21.4	89.370	0.850	-1.450	1.630
2020/01/31 07:32:21.5	89.370	0.830	-1.360	1.620
2020/01/31 07:32:21.6	89.380	0.800	-1.270	1.610
2020/01/31 07:32:21.7	89.380	0.770	-1.170	1.600
2020/01/31 07:32:21.8	89.390	0.730	-1.060	1.590
2020/01/31 07:32:21.9	89.390	0.690	-0.950	1.580
2020/01/31 07:32:22.0	89.390	0.640	-0.830	1.570
2020/01/31 07:32:22.1	89.390	0.590	-0.710	1.560
2020/01/31 07:32:22.2	89.390	0.540	-0.580	1.540
2020/01/31 07:32:22.3	89.390	0.490	-0.460	1.530
2020/01/31 07:32:22.4	89.390	0.440	-0.330	1.510
2020/01/31 07:32:22.5	89.390	0.380	-0.200	1.490
2020/01/31 07:32:22.6	89.390	0.320	-0.070	1.460
2020/01/31 07:32:22.7	89.380	0.270	0.050	1.430
2020/01/31 07:32:22.8	89.380	0.210	0.170	1.400
2020/01/31 07:32:22.9	89.380	0.150	0.290	1.370
2020/01/31 07:32:23.0	89.370	0.100	0.410	1.340
2020/01/31 07:32:23.1	89.370	0.040	0.520	1.300
2020/01/31 07:32:23.2	89.370	-0.010	0.630	1.250
2020/01/31 07:32:23.3	89.370	-0.060	0.730	1.210
2020/01/31 07:32:23.4	89.360	-0.110	0.820	1.160
2020/01/31 07:32:23.5	89.360	-0.160	0.910	1.100
2020/01/31 07:32:23.6	89.360	-0.200	0.990	1.050
2020/01/31 07:32:23.7	89.350	-0.240	1.060	0.990
2020/01/31 07:32:23.8	89.350	-0.280	1.120	0.930
2020/01/31 07:32:23.9	89.340	-0.310	1.180	0.860
2020/01/31 07:32:24.0	89.340	-0.340	1.220	0.800
2020/01/31 07:32:24.1	89.330	-0.370	1.260	0.730
2020/01/31 07:32:24.2	89.330	-0.390	1.280	0.670
2020/01/31 07:32:24.3	89.320	-0.410	1.300	0.600
2020/01/31 07:32:24.4	89.310	-0.420	1.310	0.530
2020/01/31 07:32:24.5	89.310	-0.430	1.310	0.460
2020/01/31 07:32:24.6	89.300	-0.440	1.300	0.400
2020/01/31 07:32:24.7	89.290	-0.440	1.280	0.330
2020/01/31 07:32:24.8	89.280	-0.440	1.250	0.270
2020/01/31 07:32:24.9	89.280	-0.430	1.210	0.200
2020/01/31 07:32:25.0	89.270	-0.420	1.160	0.140
2020/01/31 07:32:25.1	89.270	-0.410	1.110	0.080
2020/01/31 07:32:25.2	89.260	-0.400	1.040	0.020
2020/01/31 07:32:25.3	89.260	-0.380	0.970	-0.040
2020/01/31 07:32:25.4	89.250	-0.360	0.890	-0.100
2020/01/31 07:32:25.5	89.250	-0.340	0.810	-0.150
2020/01/31 07:32:25.6	89.250	-0.320	0.720	-0.200
2020/01/31 07:32:25.7	89.250	-0.300	0.630	-0.250
2020/01/31 07:32:25.8	89.250	-0.270	0.530	-0.300
2020/01/31 07:32:25.9	89.250	-0.250	0.430	-0.350
2020/01/31 07:32:26.0	89.260	-0.220	0.320	-0.390
2020/01/31 07:32:26.1	89.260	-0.200	0.220	-0.440
2020/01/31 07:32:26.2	89.270	-0.170	0.110	-0.480
2020/01/31 07:32:26.3	89.280	-0.150	0.000	-0.510
2020/01/31 07:32:26.4	89.290	-0.120	-0.100	-0.550
2020/01/31 07:32:26.5	89.310	-0.100	-0.210	-0.580
2020/01/31 07:32:26.6	89.320	-0.080	-0.310	-0.610
2020/01/31 07:32:26.7	89.340	-0.050	-0.410	-0.640
2020/01/31 07:32:26.8	89.360	-0.030	-0.510	-0.660
2020/01/31 07:32:26.9	89.380	-0.020	-0.600	-0.680
2020/01/31 07:32:27.0	89.410	0.000	-0.690	-0.700
2020/01/31 07:32:27.1	89.430	0.020	-0.770	-0.710
2020/01/31 07:32:27.2	89.450	0.030	-0.850	-0.720
2020/01/31 07:32:27.3	89.480	0.040	-0.920	-0.730
2020/01/31 07:32:27.4	89.510	0.050	-0.980	-0.730
2020/01/31 07:32:27.5	89.540	0.060	-1.040	-0.730
2020/01/31 07:32:27.6	89.560	0.060	-1.080	-0.720
2020/01/31 07:32:27.7	89.590	0.060	-1.120	-0.720
2020/01/31 07:32:27.8	89.620	0.060	-1.160	-0.700
2020/01/31 07:32:27.9	89.650	0.060	-1.180	-0.690
2020/01/31 07:32:28.0	89.670	0.060	-1.200	-0.670
2020/01/31 07:32:28.1	89.700	0.060	-1.210	-0.640
2020/01/31 07:32:28.2	89.720	0.050	-1.210	-0.610
2020/01/31 07:32:28.3	89.740	0.040	-1.200	-0.580
2020/01/31 07:32:28.4	89.760	0.030	-1.180	-0.540
2020/01/31 07:32:28.5	89.780	0.020	-1.160	-0.500
2020/01/31 07:32:28.6	89.800	0.010	-1.130	-0.450
2020/01/31 07:32:28.7	89.810	-0.000	-1.100	-0.400
2020/01/31 07:32:28.8	89.820	-0.020	-1.050	-0.340
2020/01/31 07:32:28.9	89.830	-0.030	-1.000	-0.280
2020/01/31 07:32:29.0	89.840	-0.050	-0.950	-0.210
2020/01/31 07:32:29.1	89.840	-0.060	-0.890	-0.140
2020/01/31 07:32:29.2	89.850	-0.080	-0.830	-0.060
2020/01/31 07:32:29.3	89.850	-0.090	-0.760	0.020
2020/01/31 07:32:29.4	89.840	-0.110	-0.690	0.100
2020/01/31 07:32:29.5	89.840	-0.130	-0.620	0.180
2020/01/31 07:32:29.6	89.830	-0.140	-0.540	0.270
2020/01/31 07:32:29.7	89.820	-0.160	-0.460	0.360
2020/01/31 07:32:29.8	89.810	-0.170	-0.390	0.450
2020/01/31 07:32:29.9	89.800	-0.190	-0.310	0.540
2020/01/31 07:32:30.0	89.790	-0.200	-0.230	0.640
2020/01/31 07:32:30.1	89.770	-0.210	-0.150	0.730
2020/01/31 07:32:30.2	89.750	-0.230	-0.080	0.830
2020/01/31 07:32:30.3	89.730	-0.240	-0.000	0.920
2020/01/31 07:32:30.4	89.710	-0.250	0.060	1.020
2020/01/31 07:32:30.5	89.700	-0.250	0.130	1.110
2020/01/31 07:32:30.6	89.680	-0.260	0.190	1.200
2020/01/31 07:32:30.7	89.660	-0.270	0.250	1.300
2020/01/31 07:32:30.8	89.640	-0.270	0.300	1.390
2020/01/31 07:32:30.9	89.630	-0.270	0.350	1.470
2020/01/31 07:32:31.0	89.610	-0.270	0.390	1.560
2020/01/31 07:32:31.1	89.600	-0.270	0.420	1.640
2020/01/31 07:32:31.2	89.590	-0.260	0.450	1.720
2020/01/31 07:32:31.3	89.570	-0.260	0.470	1.800
2020/01/31 07:32:31.4	89.570	-0.250	0.490	1.870
2020/01/31 07:32:31.5	89.560	-0.240	0.500	1.940
2020/01/31 07:32:31.6	89.560	-0.230	0.500	2.010
2020/01/31 07:32:31.7	89.550	-0.220	0.500	2.070
2020/01/31 07:32:31.8	89.550	-0.200	0.490	2.120
2020/01/31 07:32:31.9	89.550	-0.180	0.470	2.180
2020/01/31 07:32:32.0	89.560	-0.170	0.450	2.220
2020/01/31 07:32:32.1	89.560	-0.150	0.430	2.270
2020/01/31 07:32:32.2	89.570	-0.130	0.400	2.310
2020/01/31 07:32:32.3	89.570	-0.110	0.360	2.340
2020/01/31 07:32:32.4	89.570	-0.090	0.320	2.370
2020/01/31 07:32:32.5	89.580	-0.060	0.280	2.400
2020/01/31 07:32:32.6	89.590	-0.040	0.240	2.430
2020/01/31 07:32:32.7	89.600	-0.020	0.190	2.450
2020/01/31 07:32:32.8	89.610	0.010	0.150	2.460
2020/01/31 07:32:32.9	89.620	0.030	0.100	2.480
2020/01/31 07:32:33.0	89.630	0.050	0.050	2.490
2020/01/31 07:32:33.1	89.640	0.070	0.000	2.500
2020/01/31 07:32:33.2	89.650	0.100	-0.040	2.500
2020/01/31 07:32:33.3	89.660	0.120	-0.090	2.500
2020/01/31 07:32:33.4	89.660	0.140	-0.140	2.500
2020/01/31 07:32:33.5	89.670	0.150	-0.180	2.490
2020/01/31 07:32:33.6	89.680	0.170	-0.220	2.480
2020/01/31 07:32:33.7	89.680	0.190	-0.250	2.470
2020/01/31 07:32:33.8	89.690	0.200	-0.290	2.450
2020/01/31 07:32:33.9	89.690	0.210	-0.320	2.430
2020/01/31 07:32:34.0	89.700	0.220	-0.350	2.400
2020/01/31 07:32:34.1	89.700	0.230	-0.370	2.370
2020/01/31 07:32:34.2	89.700	0.240	-0.390	2.330
2020/01/31 07:32:34.3	89.700	0.240	-0.410	2.300
2020/01/31 07:32:34.4	89.700	0.240	-0.420	2.250
2020/01/31 07:32:34.5	89.700	0.240	-0.430	2.210
2020/01/31 07:32:34.6	89.700	0.240	-0.430	2.160
2020/01/31 07:32:34.7	89.700	0.230	-0.440	2.110
2020/01/31 07:32:34.8	89.700	0.220	-0.440	2.060
2020/01/31 07:32:34.9	89.700	0.220	-0.430	2.000
2020/01/31 07:32:35.0	89.700	0.210	-0.430	1.950
2020/01/31 07:32:35.1	89.690	0.190	-0.420	1.890
2020/01/31 07:32:35.2	89.690	0.180	-0.410	1.830
2020/01/31 07:32:35.3	89.680	0.170	-0.390	1.760
2020/01/31 07:32:35.4	89.680	0.150	-0.380	1.700
2020/01/31 07:32:35.5	89.670	0.140	-0.360	1.640
2020/01/31 07:32:35.6	89.660	0.120	-0.340	1.570
2020/01/31 07:32:35.7	89.650	0.100	-0.320	1.510
2020/01/31 07:32:35.8	89.640	0.090	-0.300	1.450
2020/01/31 07:32:35.9	89.630	0.070	-0.280	1.380
2020/01/31 07:32:36.0	89.620	0.060	-0.260	1.320
2020/01/31 07:32:36.1	89.610	0.040	-0.240	1.260
2020/01/31 07:32:36.2	89.600	0.030	-0.230	1.200
2020/01/31 07:32:36.3	89.590	0.020	-0.210	1.140
2020/01/31 07:32:36.4	89.580	0.010	-0.190	1.080
2020/01/31 07:32:36.5	89.570	0.000	-0.180	1.020
2020/01/31 07:32:36.6	89.560	-0.010	-0.170	0.960
2020/01/31 07:32:36.7	89.550	-0.010	-0.160	0.900
2020/01/31 07:32:36.8	89.540	-0.010	-0.150	0.850
2020/01/31 07:32:36.9	89.530	-0.010	-0.150	0.800
2020/01/31 07:32:37.0	89.530	-0.010	-0.150	0.740
2020/01/31 07:32:37.1	89.520	-0.010	-0.150	0.690
2020/01/31 07:32:37.2	89.520	0.000	-0.150	0.640
2020/01/31 07:32:37.3	89.520	0.010	-0.160	0.590
2020/01/31 07:32:37.4	89.520	0.020	-0.170	0.540
2020/01/31 07:32:37.5	89.520	0.030	-0.170	0.500
2020/01/31 07:32:37.6	89.520	0.050	-0.190	0.450
2020/01/31 07:32:37.7	89.520	0.060	-0.200	0.410
2020/01/31 07:32:37.8	89.530	0.080	-0.210	0.360
2020/01/31 07:32:37.9	89.530	0.100	-0.230	0.320
2020/01/31 07:32:38.0	89.540	0.120	-0.250	0.280
2020/01/31 07:32:38.1	89.550	0.140	-0.260	0.240
2020/01/31 07:32:38.2	89.560	0.160	-0.280	0.200
2020/01/31 07:32:38.3	89.580	0.180	-0.300	0.170
2020/01/31 07:32:38.4	89.590	0.190	-0.310	0.130
2020/01/31 07:32:38.5	89.600	0.210	-0.330	0.100
2020/01/31 07:32:38.6	89.610	0.230	-0.340	0.060
2020/01/31 07:32:38.7	89.630	0.250	-0.360	0.030
2020/01/31 07:32:38.8	89.640	0.270	-0.370	-0.000
2020/01/31 07:32:38.9	89.660	0.280	-0.380	-0.030
2020/01/31 07:32:39.0	89.670	0.300	-0.380	-0.060
2020/01/31 07:32:39.1	89.680	0.310	-0.390	-0.090
2020/01/31 07:32:39.2	89.700	0.320	-0.390	-0.120
2020/01/31 07:32:39.3	89.710	0.330	-0.390	-0.140
2020/01/31 07:32:39.4	89.730	0.330	-0.390	-0.160
2020/01/31 07:32:39.5	89.740	0.330	-0.390	-0.180
2020/01/31 07:32:39.6	89.750	0.340	-0.380	-0.200
2020/01/31 07:32:39.7	89.750	0.330	-0.370	-0.220
2020/01/31 07:32:39.8	89.760	0.330	-0.350	-0.240
2020/01/31 07:32:39.9	89.770	0.320	-0.340	-0.260
2020/01/31 07:32:40.0	89.770	0.310	-0.320	-0.270
2020/01/31 07:32:40.1	89.770	0.300	-0.300	-0.280
2020/01/31 07:32:40.2	89.780	0.290	-0.280	-0.300
2020/01/31 07:32:40.3	89.780	0.270	-0.250	-0.310
2020/01/31 07:32:40.4	89.780	0.250	-0.230	-0.320
2020/01/31 07:32:40.5	89.780	0.230	-0.200	-0.330
2020/01/31 07:32:40.6	89.780	0.210	-0.170	-0.330
2020/01/31 07:32:40.7	89.780	0.180	-0.140	-0.340
2020/01/31 07:32:40.8	89.770	0.160	-0.100	-0.340
2020/01/31 07:32:40.9	89.770	0.130	-0.070	-0.340
2020/01/31 07:32:41.0	89.770	0.100	-0.040	-0.330
2020/01/31 07:32:41.1	89.770	0.070	-0.000	-0.320
2020/01/31 07:32:41.2	89.760	0.040	0.030	-0.310
2020/01/31 07:32:41.3	89.760	0.020	0.060	-0.300
2020/01/31 07:32:41.4	89.750	-0.010	0.100	-0.280
2020/01/31 07:32:41.5	89.750	-0.040	0.130	-0.260
2020/01/31 07:32:41.6	89.740	-0.070	0.160	-0.230
2020/01/31 07:32:41.7	89.740	-0.100	0.190	-0.200
2020/01/31 07:32:41.8	89.730	-0.130	0.220	-0.170
2020/01/31 07:32:41.9	89.730	-0.150	0.250	-0.130
2020/01/31 07:32:42.0	89.720	-0.180	0.280	-0.090
2020/01/31 07:32:42.1	89.720	-0.200	0.300	-0.040
2020/01/31 07:32:42.2	89.720	-0.220	0.320	0.010
2020/01/31 07:32:42.3	89.710	-0.240	0.340	0.070
2020/01/31 07:32:42.4	89.700	-0.260	0.360	0.130
2020/01/31 07:32:42.5	89.700	-0.270	0.370	0.190
2020/01/31 07:32:42.6	89.700	-0.280	0.380	0.250
2020/01/31 07:32:42.7	89.700	-0.290	0.390	0.320
2020/01/31 07:32:42.8	89.700	-0.300	0.390	0.390
2020/01/31 07:32:42.9	89.690	-0.300	0.390	0.460
2020/01/31 07:32:43.0	89.690	-0.300	0.380	0.540
2020/01/31 07:32:43.1	89.690	-0.300	0.370	0.610
2020/01/31 07:32:43.2	89.690	-0.300	0.360	0.690
2020/01/31 07:32:43.3	89.700	-0.300	0.340	0.770
2020/01/31 07:32:43.4	89.700	-0.290	0.320	0.850
2020/01/31 07:32:43.5	89.700	-0.280	0.290	0.920
2020/01/31 07:32:43.6	89.700	-0.270	0.270	1.000
2020/01/31 07:32:43.7	89.700	-0.260	0.230	1.070
2020/01/31 07:32:43.8	89.710	-0.240	0.200	1.150
2020/01/31 07:32:43.9	89.710	-0.230	0.160	1.220
2020/01/31 07:32:44.0	89.710	-0.210	0.120	1.290
2020/01/31 07:32:44.1	89.710	-0.190	0.070	1.360
2020/01/31 07:32:44.2	89.720	-0.170	0.020	1.430
2020/01/31 07:32:44.3	89.720	-0.160	-0.020	1.490
2020/01/31 07:32:44.4	89.720	-0.140	-0.070	1.550
2020/01/31 07:32:44.5	89.730	-0.120	-0.120	1.600
2020/01/31 07:32:44.6	89.740	-0.100	-0.170	1.660
2020/01/31 07:32:44.7	89.740	-0.080	-0.230	1.710
2020/01/31 07:32:44.8	89.750	-0.070	-0.280	1.750
2020/01/31 07:32:44.9	89.760	-0.050	-0.330	1.790
2020/01/31 07:32:45.0	89.770	-0.030	-0.380	1.830
2020/01/31 07:32:45.1	89.780	-0.020	-0.420	1.860
2020/01/31 07:32:45.2	89.790	-0.010	-0.470	1.890
2020/01/31 07:32:45.3	89.800	0.000	-0.510	1.920
2020/01/31 07:32:45.4	89.820	0.010	-0.550	1.940
2020/01/31 07:32:45.5	89.830	0.020	-0.580	1.960
2020/01/31 07:32:45.6	89.840	0.030	-0.610	1.970
2020/01/31 07:32:45.7	89.860	0.030	-0.640	1.990
2020/01/31 07:32:45.8	89.870	0.040	-0.660	2.000
2020/01/31 07:32:45.9	89.890	0.040	-0.680	2.010
2020/01/31 07:32:46.0	89.900	0.040	-0.690	2.020
2020/01/31 07:32:46.1	89.910	0.040	-0.700	2.030
2020/01/31 07:32:46.2	89.920	0.040	-0.700	2.030
2020/01/31 07:32:46.3	89.930	0.030	-0.700	2.040
2020/01/31 07:32:46.4	89.940	0.030	-0.690	2.040
2020/01/31 07:32:46.5	89.950	0.020	-0.680	2.050
2020/01/31 07:32:46.6	89.960	0.010	-0.670	2.050
2020/01/31 07:32:46.7	89.970	0.000	-0.650	2.060
2020/01/31 07:32:46.8	89.970	-0.010	-0.620	2.070
2020/01/31 07:32:46.9	89.970	-0.020	-0.590	2.070
2020/01/31 07:32:47.0	89.980	-0.030	-0.560	2.080
2020/01/31 07:32:47.1	89.980	-0.040	-0.530	2.090
2020/01/31 07:32:47.2	89.980	-0.060	-0.490	2.100
2020/01/31 07:32:47.3	89.970	-0.070	-0.440	2.110
2020/01/31 07:32:47.4	89.970	-0.080	-0.400	2.120
2020/01/31 07:32:47.5	89.970	-0.100	-0.360	2.130
2020/01/31 07:32:47.6	89.960	-0.110	-0.310	2.140
2020/01/31 07:32:47.7	89.950	-0.130	-0.260	2.140
2020/01/31 07:32:47.8	89.940	-0.140	-0.210	2.150
2020/01/31 07:32:47.9	89.930	-0.160	-0.170	2.160
2020/01/31 07:32:48.0	89.920	-0.170	-0.120	2.160
2020/01/31 07:32:48.1	89.910	-0.190	-0.070	2.170
2020/01/31 07:32:48.2	89.900	-0.200	-0.030	2.170
2020/01/31 07:32:48.3	89.890	-0.210	0.010	2.160
2020/01/31 07:32:48.4	89.870	-0.230	0.050	2.160
2020/01/31 07:32:48.5	89.860	-0.240	0.080	2.150
2020/01/31 07:32:48.6	89.850	-0.250	0.120	2.140
2020/01/31 07:32:48.7	89.830	-0.260	0.140	2.130
2020/01/31 07:32:48.8	89.820	-0.270	0.170	2.110
2020/01/31 07:32:48.9	89.800	-0.280	0.190	2.080
2020/01/31 07:32:49.0	89.790	-0.280	0.200	2.060
2020/01/31 07:32:49.1	89.780	-0.290	0.220	2.030
2020/01/31 07:32:49.2	89.760	-0.300	0.220	1.990
2020/01/31 07:32:49.3	89.750	-0.300	0.220	1.950
2020/01/31 07:32:49.4	89.740	-0.300	0.220	1.900
2020/01/31 07:32:49.5	89.720	-0.310	0.220	1.850
2020/01/31 07:32:49.6	89.710	-0.310	0.210	1.800
2020/01/31 07:32:49.7	89.700	-0.310	0.200	1.740
2020/01/31 07:32:49.8	89.700	-0.300	0.180	1.680
2020/01/31 07:32:49.9	89.690	-0.300	0.170	1.610
2020/01/31 07:32:50.0	89.680	-0.300	0.150	1.540
2020/01/31 07:32:50.1	89.680	-0.290	0.130	1.470
2020/01/31 07:32:50.2	89.680	-0.280	0.100	1.400
2020/01/31 07:32:50.3	89.680	-0.270	0.080	1.320
2020/01/31 07:32:50.4	89.680	-0.260	0.050	1.240
2020/01/31 07:32:50.5	89.680	-0.250	0.020	1.160
2020/01/31 07:32:50.6	89.680	-0.240	-0.010	1.080
2020/01/31 07:32:50.7	89.680	-0.230	-0.030	1.000
2020/01/31 07:32:50.8	89.690	-0.210	-0.060	0.920
2020/01/31 07:32:50.9	89.700	-0.190	-0.090	0.840
2020/01/31 07:32:51.0	89.710	-0.170	-0.110	0.760
2020/01/31 07:32:51.1	89.720	-0.150	-0.140	0.670
2020/01/31 07:32:51.2	89.730	-0.130	-0.170	0.590
2020/01/31 07:32:51.3	89.750	-0.110	-0.190	0.510
2020/01/31 07:32:51.4	89.760	-0.090	-0.220	0.440
2020/01/31 07:32:51.5	89.780	-0.060	-0.240	0.360
2020/01/31 07:32:51.6	89.800	-0.040	-0.260	0.280
2020/01/31 07:32:51.7	89.820	-0.010	-0.280	0.210
2020/01/31 07:32:51.8	89.830	0.020	-0.300	0.130
2020/01/31 07:32:51.9	89.860	0.050	-0.320	0.060
2020/01/31 07:32:52.0	89.870	0.080	-0.340	-0.000
2020/01/31 07:32:52.1	89.900	0.110	-0.360	-0.070
2020/01/31 07:32:52.2	89.920	0.140	-0.370	-0.130
2020/01/31 07:32:52.3	89.940	0.170	-0.390	-0.190
2020/01/31 07:32:52.4	89.960	0.200	-0.410	-0.240
2020/01/31 07:32:52.5	89.970	0.230	-0.420	-0.290
2020/01/31 07:32:52.6	89.990	0.260	-0.430	-0.340
2020/01/31 07:32:52.7	90.010	0.290	-0.440	-0.390
2020/01/31 07:32:52.8	90.020	0.320	-0.450	-0.430
2020/01/31 07:32:52.9	90.030	0.350	-0.460	-0.460
2020/01/31 07:32:53.0	90.040	0.380	-0.470	-0.500
2020/01/31 07:32:53.1	90.050	0.400	-0.470	-0.530
2020/01/31 07:32:53.2	90.060	0.420	-0.480	-0.550
2020/01/31 07:32:53.3	90.060	0.450	-0.480	-0.570
2020/01/31 07:32:53.4	90.070	0.470	-0.480	-0.590
2020/01/31 07:32:53.5	90.060	0.480	-0.480	-0.600
2020/01/31 07:32:53.6	90.060	0.500	-0.470	-0.610
2020/01/31 07:32:53.7	90.060	0.510	-0.460	-0.620
2020/01/31 07:32:53.8	90.050	0.520	-0.450	-0.620
2020/01/31 07:32:53.9	90.040	0.530	-0.440	-0.620
2020/01/31 07:32:54.0	90.030	0.530	-0.420	-0.610
2020/01/31 07:32:54.1	90.020	0.530	-0.410	-0.610
2020/01/31 07:32:54.2	90.010	0.530	-0.390	-0.600
2020/01/31 07:32:54.3	89.990	0.530	-0.370	-0.580
2020/01/31 07:32:54.4	89.980	0.520	-0.350	-0.570
2020/01/31 07:32:54.5	89.970	0.510	-0.320	-0.550
2020/01/31 07:32:54.6	89.950	0.500	-0.290	-0.520
2020/01/31 07:32:54.7	89.930	0.490	-0.270	-0.500
2020/01/31 07:32:54.8	89.920	0.470	-0.240	-0.470
2020/01/31 07:32:54.9	89.900	0.450	-0.210	-0.440
2020/01/31 07:32:55.0	89.890	0.430	-0.180	-0.410
2020/01/31 07:32:55.1	89.870	0.410	-0.150	-0.370
2020/01/31 07:32:55.2	89.860	0.390	-0.130	-0.330
2020/01/31 07:32:55.3	89.850	0.360	-0.100	-0.280
2020/01/31 07:32:55.4	89.840	0.340	-0.070	-0.240
2020/01/31 07:32:55.5	89.830	0.310	-0.050	-0.190
2020/01/31 07:32:55.6	89.820	0.280	-0.030	-0.140
2020/01/31 07:32:55.7	89.810	0.260	-0.010	-0.090
2020/01/31 07:32:55.8	89.800	0.230	0.010	-0.040
2020/01/31 07:32:55.9	89.800	0.200	0.030	0.010
2020/01/31 07:32:56.0	89.800	0.180	0.040	0.060
2020/01/31 07:32:56.1	89.800	0.150	0.050	0.120
2020/01/31 07:32:56.2	89.800	0.130	0.060	0.170
2020/01/31 07:32:56.3	89.800	0.100	0.060	0.230
2020/01/31 07:32:56.4	89.810	0.080	0.060	0.280
2020/01/31 07:32:56.5	89.820	0.060	0.070	0.340
2020/01/31 07:32:56.6	89.830	0.030	0.070	0.400
2020/01/31 07:32:56.7	89.840	0.010	0.070	0.450
2020/01/31 07:32:56.8	89.860	-0.010	0.060	0.510
2020/01/31 07:32:56.9	89.870	-0.030	0.060	0.570
2020/01/31 07:32:57.0	89.890	-0.050	0.060	0.630
2020/01/31 07:32:57.1	89.910	-0.060	0.050	0.690
2020/01/31 07:32:57.2	89.930	-0.080	0.050	0.750
2020/01/31 07:32:57.3	89.940	-0.100	0.040	0.810
2020/01/31 07:32:57.4	89.960	-0.110	0.040	0.870
2020/01/31 07:32:57.5	89.980	-0.130	0.030	0.940
2020/01/31 07:32:57.6	90.000	-0.140	0.030	1.000
2020/01/31 07:32:57.7	90.020	-0.160	0.030	1.070
2020/01/31 07:32:57.8	90.040	-0.170	0.020	1.130
2020/01/31 07:32:57.9	90.060	-0.190	0.020	1.200
2020/01/31 07:32:58.0	90.080	-0.200	0.020	1.270
2020/01/31 07:32:58.1	90.090	-0.220	0.030	1.330
2020/01/31 07:32:58.2	90.110	-0.230	0.030	1.400
2020/01/31 07:32:58.3	90.120	-0.250	0.030	1.470
2020/01/31 07:32:58.4	90.140	-0.260	0.040	1.530
2020/01/31 07:32:58.5	90.160	-0.280	0.050	1.600
2020/01/31 07:32:58.6	90.170	-0.290	0.050	1.660
2020/01/31 07:32:58.7	90.180	-0.310	0.060	1.720
2020/01/31 07:32:58.8	90.200	-0.320	0.070	1.780
2020/01/31 07:32:58.9	90.210	-0.340	0.090	1.830
2020/01/31 07:32:59.0	90.220	-0.350	0.100	1.890
2020/01/31 07:32:59.1	90.230	-0.370	0.110	1.940
2020/01/31 07:32:59.2	90.240	-0.380	0.120	1.990
2020/01/31 07:32:59.3	90.250	-0.400	0.130	2.040
2020/01/31 07:32:59.4	90.260	-0.410	0.140	2.080
2020/01/31 07:32:59.5	90.260	-0.420	0.150	2.120
2020/01/31 07:32:59.6	90.270	-0.430	0.160	2.160
2020/01/31 07:32:59.7	90.270	-0.450	0.170	2.200
2020/01/31 07:32:59.8	90.270	-0.460	0.180	2.230
2020/01/31 07:32:59.9	90.270	-0.470	0.180	2.260
2020/01/31 07:33:00.0	90.270	-0.470	0.190	2.290
2020/01/31 07:33:00.1	90.270	-0.480	0.190	2.310
2020/01/31 07:33:00.2	90.270	-0.490	0.180	2.340
2020/01/31 07:33:00.3	90.260	-0.490	0.180	2.360
2020/01/31 07:33:00.4	90.260	-0.490	0.170	2.380
2020/01/31 07:33:00.5	90.250	-0.490	0.160	2.390
2020/01/31 07:33:00.6	90.250	-0.490	0.150	2.410
2020/01/31 07:33:00.7	90.240	-0.490	0.130	2.420
2020/01/31 07:33:00.8	90.230	-0.480	0.110	2.430
2020/01/31 07:33:00.9	90.220	-0.480	0.090	2.440
2020/01/31 07:33:01.0	90.220	-0.470	0.060	2.440
2020/01/31 07:33:01.1	90.210	-0.460	0.030	2.450
2020/01/31 07:33:01.2	90.200	-0.440	-0.010	2.450
2020/01/31 07:33:01.3	90.190	-0.430	-0.040	2.450
2020/01/31 07:33:01.4	90.180	-0.410	-0.080	2.450
2020/01/31 07:33:01.5	90.160	-0.400	-0.120	2.450
2020/01/31 07:33:01.6	90.150	-0.380	-0.170	2.440
2020/01/31 07:33:01.7	90.140	-0.360	-0.210	2.430
2020/01/31 07:33:01.8	90.130	-0.330	-0.250	2.420
2020/01/31 07:33:01.9	90.120	-0.310	-0.300	2.410
2020/01/31 07:33:02.0	90.110	-0.290	-0.350	2.400
2020/01/31 07:33:02.1	90.100	-0.260	-0.390	2.380
2020/01/31 07:33:02.2	90.090	-0.230	-0.440	2.360
2020/01/31 07:33:02.3	90.070	-0.210	-0.490	2.340
2020/01/31 07:33:02.4	90.060	-0.180	-0.530	2.310
2020/01/31 07:33:02.5	90.060	-0.150	-0.570	2.290
2020/01/31 07:33:02.6	90.050	-0.130	-0.610	2.250
2020/01/31 07:33:02.7	90.050	-0.100	-0.650	2.220
2020/01/31 07:33:02.8	90.050	-0.070	-0.690	2.180
2020/01/31 07:33:02.9	90.050	-0.040	-0.720	2.140
2020/01/31 07:33:03.0	90.050	-0.020	-0.750	2.100
2020/01/31 07:33:03.1	90.060	0.010	-0.780	2.060
2020/01/31 07:33:03.2	90.060	0.040	-0.800	2.010
2020/01/31 07:33:03.3	90.070	0.060	-0.820	1.950
2020/01/31 07:33:03.4	90.080	0.090	-0.840	1.900
2020/01/31 07:33:03.5	90.090	0.110	-0.850	1.840
2020/01/31 07:33:03.6	90.100	0.140	-0.860	1.780
2020/01/31 07:33:03.7	90.110	0.160	-0.860	1.710
2020/01/31 07:33:03.8	90.130	0.180	-0.860	1.650
2020/01/31 07:33:03.9	90.140	0.200	-0.860	1.580
2020/01/31 07:33:04.0	90.150	0.220	-0.850	1.500
2020/01/31 07:33:04.1	90.170	0.230	-0.840	1.430
2020/01/31 07:33:04.2	90.190	0.250	-0.820	1.350
2020/01/31 07:33:04.3	90.200	0.270	-0.800	1.270
2020/01/31 07:33:04.4	90.210	0.280	-0.770	1.190
2020/01/31 07:33:04.5	90.230	0.290	-0.740	1.100
2020/01/31 07:33:04.6	90.240	0.310	-0.710	1.020
2020/01/31 07:33:04.7	90.250	0.320	-0.670	0.930
2020/01/31 07:33:04.8	90.270	0.330	-0.630	0.840
2020/01/31 07:33:04.9	90.280	0.330	-0.590	0.760
2020/01/31 07:33:05.0	90.290	0.340	-0.540	0.670
2020/01/31 07:33:05.1	90.300	0.350	-0.500	0.590
2020/01/31 07:33:05.2	90.300	0.350	-0.450	0.500
2020/01/31 07:33:05.3	90.300	0.360	-0.400	0.420
2020/01/31 07:33:05.4	90.310	0.360	-0.350	0.330
2020/01/31 07:33:05.5	90.310	0.360	-0.300	0.250
2020/01/31 07:33:05.6	90.300	0.360	-0.250	0.170
2020/01/31 07:33:05.7	90.300	0.360	-0.190	0.090
2020/01/31 07:33:05.8	90.300	0.360	-0.140	0.010
2020/01/31 07:33:05.9	90.290	0.360	-0.100	-0.060
2020/01/31 07:33:06.0	90.280	0.360	-0.050	-0.130
2020/01/31 07:33:06.1	90.270	0.350	-0.000	-0.200
2020/01/31 07:33:06.2	90.260	0.350	0.040	-0.270
2020/01/31 07:33:06.3	90.250	0.340	0.080	-0.340
2020/01/31 07:33:06.4	90.230	0.340	0.120	-0.400
2020/01/31 07:33:06.5	90.220	0.330	0.160	-0.460
2020/01/31 07:33:06.6	90.200	0.320	0.200	-0.510
2020/01/31 07:33:06.7	90.190	0.310	0.230	-0.560
2020/01/31 07:33:06.8	90.170	0.300	0.260	-0.610
2020/01/31 07:33:06.9	90.150	0.290	0.290	-0.650
2020/01/31 07:33:07.0	90.130	0.280	0.310	-0.690
2020/01/31 07:33:07.1	90.120	0.260	0.330	-0.720
2020/01/31 07:33:07.2	90.100	0.250	0.350	-0.750
2020/01/31 07:33:07.3	90.080	0.230	0.360	-0.780
2020/01/31 07:33:07.4	90.060	0.220	0.380	-0.800
2020/01/31 07:33:07.5	90.040	0.200	0.390	-0.810
2020/01/31 07:33:07.6	90.030	0.190	0.400	-0.830
2020/01/31 07:33:07.7	90.010	0.170	0.400	-0.830
2020/01/31 07:33:07.8	90.000	0.150	0.400	-0.830
2020/01/31 07:33:07.9	89.990	0.130	0.400	-0.830
2020/01/31 07:33:08.0	89.970	0.120	0.400	-0.830
2020/01/31 07:33:08.1	89.960	0.100	0.400	-0.820
2020/01/31 07:33:08.2	89.960	0.080	0.390	-0.800
2020/01/31 07:33:08.3	89.950	0.060	0.380	-0.790
2020/01/31 07:33:08.4	89.950	0.040	0.370	-0.770
2020/01/31 07:33:08.5	89.950	0.020	0.350	-0.740
2020/01/31 07:33:08.6	89.940	0.010	0.340	-0.720
2020/01/31 07:33:08.7	89.950	-0.010	0.320	-0.690
2020/01/31 07:33:08.8	89.950	-0.030	0.300	-0.660
2020/01/31 07:33:08.9	89.950	-0.050	0.280	-0.620
2020/01/31 07:33:09.0	89.960	-0.060	0.250	-0.590
2020/01/31 07:33:09.1	89.970	-0.080	0.230	-0.550
2020/01/31 07:33:09.2	89.980	-0.090	0.200	-0.510
2020/01/31 07:33:09.3	89.990	-0.110	0.170	-0.470
2020/01/31 07:33:09.4	90.000	-0.120	0.140	-0.430
2020/01/31 07:33:09.5	90.020	-0.130	0.110	-0.380
2020/01/31 07:33:09.6	90.030	-0.140	0.080	-0.340
2020/01/31 07:33:09.7	90.050	-0.150	0.050	-0.290
2020/01/31 07:33:09.8	90.070	-0.160	0.020	-0.240
2020/01/31 07:33:09.9	90.090	-0.170	-0.010	-0.190
2020/01/31 07:33:10.0	90.110	-0.170	-0.040	-0.140
2020/01/31 07:33:10.1	90.140	-0.180	-0.070	-0.090
2020/01/31 07:33:10.2	90.160	-0.180	-0.100	-0.040
2020/01/31 07:33:10.3	90.180	-0.180	-0.130	0.020
2020/01/31 07:33:10.4	90.210	-0.190	-0.160	0.070
2020/01/31 07:33:10.5	90.230	-0.190	-0.180	0.130
2020/01/31 07:33:10.6	90.260	-0.190	-0.210	0.190
2020/01/31 07:33:10.7	90.280	-0.190	-0.230	0.250
2020/01/31 07:33:10.8	90.310	-0.190	-0.260	0.310
2020/01/31 07:33:10.9	90.330	-0.190	-0.280	0.370
2020/01/31 07:33:11.0	90.360	-0.180	-0.300	0.440
2020/01/31 07:33:11.1	90.380	-0.180	-0.320	0.500
2020/01/31 07:33:11.2	90.400	-0.180	-0.340	0.570
2020/01/31 07:33:11.3	90.420	-0.180	-0.360	0.640
2020/01/31 07:33:11.4	90.440	-0.170	-0.380	0.710
2020/01/31 07:33:11.5	90.460	-0.170	-0.390	0.790
2020/01/31 07:33:11.6	90.470	-0.170	-0.400	0.870
2020/01/31 07:33:11.7	90.490	-0.160	-0.410	0.940
2020/01/31 07:33:11.8	90.500	-0.160	-0.420	1.020
2020/01/31 07:33:11.9	90.510	-0.160	-0.430	1.110
2020/01/31 07:33:12.0	90.510	-0.150	-0.440	1.190
2020/01/31 07:33:12.1	90.510	-0.150	-0.440	1.280
2020/01/31 07:33:12.2	90.510	-0.150	-0.440	1.370
2020/01/31 07:33:12.3	90.520	-0.140	-0.450	1.460
2020/01/31 07:33:12.4	90.510	-0.140	-0.450	1.550
2020/01/31 07:33:12.5	90.500	-0.140	-0.450	1.650
2020/01/31 07:33:12.6	90.500	-0.140	-0.450	1.740
2020/01/31 07:33:12.7	90.480	-0.140	-0.440	1.840
2020/01/31 07:33:12.8	90.470	-0.140	-0.440	1.930
2020/01/31 07:33:12.9	90.460	-0.130	-0.430	2.030
2020/01/31 07:33:13.0	90.440	-0.130	-0.430	2.120
2020/01/31 07:33:13.1	90.430	-0.130	-0.420	2.210
2020/01/31 07:33:13.2	90.410	-0.130	-0.420	2.300
2020/01/31 07:33:13.3	90.390	-0.130	-0.410	2.390
2020/01/31 07:33:13.4	90.370	-0.130	-0.400	2.480
2020/01/31 07:33:13.5	90.350	-0.130	-0.390	2.560
2020/01/31 07:33:13.6	90.340	-0.120	-0.380	2.640
2020/01/31 07:33:13.7	90.320	-0.120	-0.380	2.720
2020/01/31 07:33:13.8	90.310	-0.120	-0.370	2.790
2020/01/31 07:33:13.9	90.290	-0.120	-0.360	2.850
2020/01/31 07:33:14.0	90.280	-0.120	-0.350	2.910
2020/01/31 07:33:14.1	90.270	-0.110	-0.340	2.970
2020/01/31 07:33:14.2	90.260	-0.110	-0.340	3.020
2020/01/31 07:33:14.3	90.250	-0.110	-0.330	3.060
2020/01/31 07:33:14.4	90.240	-0.100	-0.320	3.090
2020/01/31 07:33:14.5	90.240	-0.100	-0.310	3.130
2020/01/31 07:33:14.6	90.230	-0.100	-0.300	3.150
2020/01/31 07:33:14.7	90.230	-0.090	-0.300	3.170
2020/01/31 07:33:14.8	90.230	-0.090	-0.290	3.180
2020/01/31 07:33:14.9	90.230	-0.080	-0.280	3.180
2020/01/31 07:33:15.0	90.230	-0.080	-0.270	3.180
2020/01/31 07:33:15.1	90.230	-0.070	-0.260	3.180
2020/01/31 07:33:15.2	90.230	-0.070	-0.250	3.170
2020/01/31 07:33:15.3	90.230	-0.060	-0.240	3.150
2020/01/31 07:33:15.4	90.240	-0.060	-0.230	3.120
2020/01/31 07:33:15.5	90.240	-0.050	-0.220	3.100
2020/01/31 07:33:15.6	90.240	-0.050	-0.200	3.060
2020/01/31 07:33:15.7	90.240	-0.040	-0.190	3.020
2020/01/31 07:33:15.8	90.250	-0.040	-0.170	2.980
2020/01/31 07:33:15.9	90.250	-0.030	-0.150	2.920
2020/01/31 07:33:16.0	90.250	-0.030	-0.140	2.870
2020/01/31 07:33:16.1	90.250	-0.020	-0.120	2.810
2020/01/31 07:33:16.2	90.250	-0.020	-0.100	2.740
2020/01/31 07:33:16.3	90.250	-0.020	-0.080	2.660
2020/01/31 07:33:16.4	90.240	-0.020	-0.050	2.580
2020/01/31 07:33:16.5	90.240	-0.010	-0.030	2.500
2020/01/31 07:33:16.6	90.240	-0.010	-0.010	2.410
2020/01/31 07:33:16.7	90.230	-0.010	0.020	2.320
2020/01/31 07:33:16.8	90.230	-0.010	0.040	2.220
2020/01/31 07:33:16.9	90.220	-0.010	0.070	2.120
2020/01/31 07:33:17.0	90.220	-0.020	0.090	2.020
2020/01/31 07:33:17.1	90.210	-0.020	0.120	1.910
2020/01/31 07:33:17.2	90.200	-0.020	0.140	1.790
2020/01/31 07:33:17.3	90.200	-0.030	0.170	1.680
2020/01/31 07:33:17.4	90.190	-0.030	0.190	1.560
2020/01/31 07:33:17.5	90.180	-0.040	0.220	1.440
2020/01/31 07:33:17.6	90.170	-0.040	0.240	1.320
2020/01/31 07:33:17.7	90.160	-0.050	0.260	1.200
2020/01/31 07:33:17.8	90.150	-0.050	0.270	1.070
2020/01/31 07:33:17.9	90.150	-0.060	0.290	0.950
2020/01/31 07:33:18.0	90.140	-0.060	0.300	0.830
2020/01/31 07:33:18.1	90.130	-0.060	0.310	0.700
2020/01/31 07:33:18.2	90.120	-0.070	0.320	0.580
2020/01/31 07:33:18.3	90.120	-0.070	0.320	0.450
2020/01/31 07:33:18.4	90.110	-0.070	0.320	0.330
2020/01/31 07:33:18.5	90.110	-0.070	0.310	0.210
2020/01/31 07:33:18.6	90.110	-0.070	0.300	0.090
2020/01/31 07:33:18.7	90.110	-0.070	0.290	-0.020
2020/01/31 07:33:18.8	90.110	-0.070	0.270	-0.140
2020/01/31 07:33:18.9	90.110	-0.060	0.240	-0.250
2020/01/31 07:33:19.0	90.120	-0.060	0.210	-0.360
2020/01/31 07:33:19.1	90.120	-0.050	0.180	-0.460
2020/01/31 07:33:19.2	90.130	-0.040	0.140	-0.560
2020/01/31 07:33:19.3	90.140	-0.030	0.100	-0.660
2020/01/31 07:33:19.4	90.160	-0.020	0.050	-0.760
2020/01/31 07:33:19.5	90.170	0.000	0.000	-0.850
2020/01/31 07:33:19.6	90.180	0.020	-0.050	-0.940
2020/01/31 07:33:19.7	90.200	0.040	-0.110	-1.020
2020/01/31 07:33:19.8	90.220	0.060	-0.170	-1.100
2020/01/31 07:33:19.9	90.240	0.080	-0.240	-1.170
2020/01/31 07:33:20.0	90.250	0.100	-0.300	-1.240
2020/01/31 07:33:20.1	90.270	0.120	-0.370	-1.310
2020/01/31 07:33:20.2	90.290	0.150	-0.430	-1.370
2020/01/31 07:33:20.3	90.320	0.170	-0.500	-1.420
2020/01/31 07:33:20.4	90.330	0.200	-0.570	-1.480
2020/01/31 07:33:20.5	90.350	0.220	-0.630	-1.520
2020/01/31 07:33:20.6	90.370	0.240	-0.690	-1.560
2020/01/31 07:33:20.7	90.390	0.270	-0.750	-1.590
2020/01/31 07:33:20.8	90.410	0.290	-0.800	-1.620
2020/01/31 07:33:20.9	90.420	0.310	-0.850	-1.640
2020/01/31 07:33:21.0	90.430	0.330	-0.890	-1.650
2020/01/31 07:33:21.1	90.440	0.340	-0.930	-1.660
2020/01/31 07:33:21.2	90.450	0.360	-0.960	-1.660
2020/01/31 07:33:21.3	90.460	0.370	-0.980	-1.640
2020/01/31 07:33:21.4	90.470	0.380	-0.990	-1.630
2020/01/31 07:33:21.5	90.470	0.390	-1.000	-1.610
2020/01/31 07:33:21.6	90.460	0.390	-1.000	-1.580
2020/01/31 07:33:21.7	90.460	0.400	-0.990	-1.550
2020/01/31 07:33:21.8	90.450	0.390	-0.980	-1.500
2020/01/31 07:33:21.9	90.440	0.390	-0.950	-1.450
2020/01/31 07:33:22.0	90.430	0.380	-0.920	-1.400
2020/01/31 07:33:22.1	90.420	0.370	-0.880	-1.340
2020/01/31 07:33:22.2	90.400	0.360	-0.840	-1.270
2020/01/31 07:33:22.3	90.390	0.340	-0.790	-1.190
2020/01/31 07:33:22.4	90.370	0.320	-0.730	-1.110
2020/01/31 07:33:22.5	90.350	0.300	-0.670	-1.030
2020/01/31 07:33:22.6	90.330	0.280	-0.600	-0.940
2020/01/31 07:33:22.7	90.310	0.250	-0.530	-0.840
2020/01/31 07:33:22.8	90.290	0.230	-0.460	-0.740
2020/01/31 07:33:22.9	90.260	0.200	-0.380	-0.640
2020/01/31 07:33:23.0	90.240	0.160	-0.310	-0.530
2020/01/31 07:33:23.1	90.210	0.130	-0.230	-0.420
2020/01/31 07:33:23.2	90.190	0.100	-0.150	-0.310
2020/01/31 07:33:23.3	90.160	0.060	-0.080	-0.200
2020/01/31 07:33:23.4	90.140	0.030	-0.000	-0.080
2020/01/31 07:33:23.5	90.110	-0.010	0.070	0.040
2020/01/31 07:33:23.6	90.090	-0.040	0.140	0.160
2020/01/31 07:33:23.7	90.060	-0.080	0.210	0.270
2020/01/31 07:33:23.8	90.030	-0.110	0.270	0.390
2020/01/31 07:33:23.9	90.010	-0.140	0.330	0.510
2020/01/31 07:33:24.0	89.980	-0.180	0.380	0.630
2020/01/31 07:33:24.1	89.960	-0.210	0.430	0.740
2020/01/31 07:33:24.2	89.930	-0.240	0.470	0.860
2020/01/31 07:33:24.3	89.910	-0.270	0.520	0.970
2020/01/31 07:33:24.4	89.890	-0.300	0.550	1.080
2020/01/31 07:33:24.5	89.860	-0.320	0.580	1.190
2020/01/31 07:33:24.6	89.840	-0.350	0.610	1.290
2020/01/31 07:33:24.7	89.820	-0.370	0.630	1.390
2020/01/31 07:33:24.8	89.800	-0.390	0.640	1.480
2020/01/31 07:33:24.9	89.780	-0.400	0.650	1.580
2020/01/31 07:33:25.0	89.770	-0.420	0.660	1.660
2020/01/31 07:33:25.1	89.760	-0.430	0.660	1.750
2020/01/31 07:33:25.2	89.750	-0.440	0.650	1.830
2020/01/31 07:33:25.3	89.730	-0.440	0.640	1.900
2020/01/31 07:33:25.4	89.730	-0.450	0.630	1.970
2020/01/31 07:33:25.5	89.730	-0.450	0.610	2.030
2020/01/31 07:33:25.6	89.730	-0.450	0.590	2.090
2020/01/31 07:33:25.7	89.730	-0.440	0.570	2.140
2020/01/31 07:33:25.8	89.730	-0.440	0.540	2.190
2020/01/31 07:33:25.9	89.740	-0.430	0.510	2.240
2020/01/31 07:33:26.0	89.750	-0.420	0.480	2.280
2020/01/31 07:33:26.1	89.760	-0.410	0.440	2.310
2020/01/31 07:33:26.2	89.770	-0.390	0.400	2.340
2020/01/31 07:33:26.3	89.790	-0.380	0.360	2.370
2020/01/31 07:33:26.4	89.810	-0.360	0.320	2.390
2020/01/31 07:33:26.5	89.820	-0.340	0.270	2.410
2020/01/31 07:33:26.6	89.850	-0.320	0.220	2.430
2020/01/31 07:33:26.7	89.870	-0.300	0.170	2.440
2020/01/31 07:33:26.8	89.890	-0.280	0.120	2.450
2020/01/31 07:33:26.9	89.910	-0.250	0.060	2.450
2020/01/31 07:33:27.0	89.940	-0.230	0.010	2.450
2020/01/31 07:33:27.1	89.960	-0.200	-0.050	2.450
2020/01/31 07:33:27.2	89.990	-0.180	-0.110	2.450
2020/01/31 07:33:27.3	90.010	-0.150	-0.170	2.440
2020/01/31 07:33:27.4	90.030	-0.130	-0.230	2.430
2020/01/31 07:33:27.5	90.060	-0.100	-0.290	2.420
2020/01/31 07:33:27.6	90.080	-0.070	-0.340	2.400
2020/01/31 07:33:27.7	90.100	-0.050	-0.400	2.380
2020/01/31 07:33:27.8	90.130	-0.020	-0.460	2.360
2020/01/31 07:33:27.9	90.150	0.000	-0.510	2.340
2020/01/31 07:33:28.0	90.170	0.030	-0.560	2.310
2020/01/31 07:33:28.1	90.190	0.050	-0.610	2.290
2020/01/31 07:33:28.2	90.210	0.070	-0.650	2.260
2020/01/31 07:33:28.3	90.220	0.090	-0.690	2.230
2020/01/31 07:33:28.4	90.240	0.110	-0.730	2.200
2020/01/31 07:33:28.5	90.250	0.130	-0.770	2.170
2020/01/31 07:33:28.6	90.270	0.150	-0.790	2.140
2020/01/31 07:33:28.7	90.280	0.170	-0.820	2.110
2020/01/31 07:33:28.8	90.290	0.190	-0.840	2.080
2020/01/31 07:33:28.9	90.300	0.200	-0.860	2.050
2020/01/31 07:33:29.0	90.310	0.220	-0.870	2.020
2020/01/31 07:33:29.1	90.320	0.230	-0.880	1.990
2020/01/31 07:33:29.2	90.330	0.240	-0.880	1.960
2020/01/31 07:33:29.3	90.330	0.260	-0.870	1.930
2020/01/31 07:33:29.4	90.340	0.270	-0.870	1.900
2020/01/31 07:33:29.5	90.340	0.280	-0.860	1.870
2020/01/31 07:33:29.6	90.350	0.280	-0.850	1.840
2020/01/31 07:33:29.7	90.350	0.290	-0.830	1.810
2020/01/31 07:33:29.8	90.350	0.300	-0.810	1.780
2020/01/31 07:33:29.9	90.350	0.300	-0.780	1.760
2020/01/31 07:33:30.0	90.350	0.310	-0.760	1.730
2020/01/31 07:33:30.1	90.350	0.310	-0.720	1.700
2020/01/31 07:33:30.2	90.340	0.310	-0.690	1.680
2020/01/31 07:33:30.3	90.340	0.310	-0.660	1.660
2020/01/31 07:33:30.4	90.330	0.310	-0.620	1.630
2020/01/31 07:33:30.5	90.320	0.310	-0.580	1.610
2020/01/31 07:33:30.6	90.310	0.300	-0.540	1.590
2020/01/31 07:33:30.7	90.290	0.300	-0.500	1.570
2020/01/31 07:33:30.8	90.280	0.290	-0.450	1.550
2020/01/31 07:33:30.9	90.260	0.280	-0.410	1.530
2020/01/31 07:33:31.0	90.240	0.270	-0.360	1.510
2020/01/31 07:33:31.1	90.220	0.260	-0.320	1.500
2020/01/31 07:33:31.2	90.200	0.240	-0.270	1.470
2020/01/31 07:33:31.3	90.170	0.230	-0.220	1.450
2020/01/31 07:33:31.4	90.150	0.210	-0.180	1.430
2020/01/31 07:33:31.5	90.130	0.190	-0.130	1.410
2020/01/31 07:33:31.6	90.100	0.170	-0.090	1.380
2020/01/31 07:33:31.7	90.070	0.150	-0.040	1.360
2020/01/31 07:33:31.8	90.040	0.130	0.000	1.330
2020/01/31 07:33:31.9	90.020	0.100	0.040	1.300
2020/01/31 07:33:32.0	89.990	0.080	0.080	1.270
2020/01/31 07:33:32.1	89.960	0.050	0.120	1.240
2020/01/31 07:33:32.2	89.930	0.030	0.160	1.210
2020/01/31 07:33:32.3	89.900	-0.000	0.190	1.170
2020/01/31 07:33:32.4	89.870	-0.030	0.220	1.140
2020/01/31 07:33:32.5	89.840	-0.050	0.250	1.100
2020/01/31 07:33:32.6	89.810	-0.080	0.270	1.060
2020/01/31 07:33:32.7	89.790	-0.100	0.300	1.020
2020/01/31 07:33:32.8	89.760	-0.130	0.320	0.980
2020/01/31 07:33:32.9	89.730	-0.150	0.330	0.940
2020/01/31 07:33:33.0	89.710	-0.180	0.350	0.890
2020/01/31 07:33:33.1	89.690	-0.200	0.360	0.850
2020/01/31 07:33:33.2	89.670	-0.220	0.360	0.800
2020/01/31 07:33:33.3	89.650	-0.240	0.360	0.740
2020/01/31 07:33:33.4	89.630	-0.260	0.360	0.690
2020/01/31 07:33:33.5	89.620	-0.270	0.360	0.640
2020/01/31 07:33:33.6	89.600	-0.290	0.350	0.580
2020/01/31 07:33:33.7	89.590	-0.300	0.340	0.530
2020/01/31 07:33:33.8	89.580	-0.310	0.320	0.470
2020/01/31 07:33:33.9	89.580	-0.320	0.300	0.410
2020/01/31 07:33:34.0	89.570	-0.330	0.280	0.350
2020/01/31 07:33:34.1	89.570	-0.330	0.250	0.290
2020/01/31 07:33:34.2	89.570	-0.340	0.220	0.230
2020/01/31 07:33:34.3	89.580	-0.340	0.190	0.160
2020/01/31 07:33:34.4	89.580	-0.340	0.150	0.100
2020/01/31 07:33:34.5	89.590	-0.330	0.120	0.040
2020/01/31 07:33:34.6	89.600	-0.330	0.080	-0.020
2020/01/31 07:33:34.7	89.610	-0.320	0.040	-0.080
2020/01/31 07:33:34.8	89.620	-0.310	0.000	-0.140
2020/01/31 07:33:34.9	89.640	-0.310	-0.040	-0.200
2020/01/31 07:33:35.0	89.660	-0.290	-0.080	-0.260
2020/01/31 07:33:35.1	89.680	-0.280	-0.120	-0.310
2020/01/31 07:33:35.2	89.700	-0.270	-0.160	-0.360
2020/01/31 07:33:35.3	89.720	-0.250	-0.200	-0.420
2020/01/31 07:33:35.4	89.740	-0.240	-0.240	-0.460
2020/01/31 07:33:35.5	89.770	-0.220	-0.270	-0.510
2020/01/31 07:33:35.6	89.790	-0.200	-0.300	-0.550
2020/01/31 07:33:35.7	89.820	-0.190	-0.330	-0.590
2020/01/31 07:33:35.8	89.840	-0.170	-0.360	-0.630
2020/01/31 07:33:35.9	89.870	-0.150	-0.390	-0.660
2020/01/31 07:33:36.0	89.900	-0.130	-0.410	-0.690
2020/01/31 07:33:36.1	89.920	-0.110	-0.430	-0.720
2020/01/31 07:33:36.2	89.950	-0.100	-0.440	-0.740
2020/01/31 07:33:36.3	89.970	-0.080	-0.450	-0.760
2020/01/31 07:33:36.4	90.000	-0.060	-0.460	-0.770
2020/01/31 07:33:36.5	90.020	-0.040	-0.460	-0.780
2020/01/31 07:33:36.6	90.040	-0.030	-0.450	-0.790
2020/01/31 07:33:36.7	90.060	-0.010	-0.440	-0.790
2020/01/31 07:33:36.8	90.070	0.000	-0.430	-0.790
2020/01/31 07:33:36.9	90.090	0.010	-0.410	-0.780
2020/01/31 07:33:37.0	90.100	0.020	-0.390	-0.760
2020/01/31 07:33:37.1	90.110	0.030	-0.360	-0.740
2020/01/31 07:33:37.2	90.110	0.040	-0.330	-0.720
2020/01/31 07:33:37.3	90.120	0.050	-0.290	-0.680
2020/01/31 07:33:37.4	90.120	0.060	-0.250	-0.650
2020/01/31 07:33:37.5	90.110	0.060	-0.200	-0.610
2020/01/31 07:33:37.6	90.110	0.060	-0.160	-0.560
2020/01/31 07:33:37.7	90.100	0.060	-0.110	-0.510
2020/01/31 07:33:37.8	90.090	0.060	-0.060	-0.460
2020/01/31 07:33:37.9	90.080	0.060	-0.010	-0.400
2020/01/31 07:33:38.0	90.060	0.060	0.050	-0.340
2020/01/31 07:33:38.1	90.040	0.050	0.100	-0.270
2020/01/31 07:33:38.2	90.030	0.050	0.150	-0.200
2020/01/31 07:33:38.3	90.000	0.040	0.200	-0.130
2020/01/31 07:33:38.4	89.980	0.030	0.240	-0.050
2020/01/31 07:33:38.5	89.960	0.030	0.280	0.030
2020/01/31 07:33:38.6	89.930	0.020	0.320	0.100
2020/01/31 07:33:38.7	89.910	0.010	0.360	0.190
2020/01/31 07:33:38.8	89.890	0.000	0.380	0.270
2020/01/31 07:33:38.9	89.870	-0.010	0.410	0.350
2020/01/31 07:33:39.0	89.850	-0.010	0.420	0.430
2020/01/31 07:33:39.1	89.820	-0.020	0.430	0.510
2020/01/31 07:33:39.2	89.800	-0.020	0.440	0.590
2020/01/31 07:33:39.3	89.780	-0.030	0.430	0.680
2020/01/31 07:33:39.4	89.760	-0.030	0.420	0.760
2020/01/31 07:33:39.5	89.750	-0.030	0.400	0.830
2020/01/31 07:33:39.6	89.730	-0.030	0.380	0.910
2020/01/31 07:33:39.7	89.720	-0.030	0.340	0.990
2020/01/31 07:33:39.8	89.700	-0.020	0.300	1.060
2020/01/31 07:33:39.9	89.690	-0.010	0.250	1.130
2020/01/31 07:33:40.0	89.680	-0.010	0.200	1.200
2020/01/31 07:33:40.1	89.670	0.000	0.140	1.260
2020/01/31 07:33:40.2	89.660	0.020	0.080	1.330
2020/01/31 07:33:40.3	89.670	0.030	0.010	1.390
2020/01/31 07:33:40.4	89.660	0.050	-0.070	1.450
2020/01/31 07:33:40.5	89.660	0.060	-0.140	1.510
2020/01/31 07:33:40.6	89.660	0.080	-0.220	1.560
2020/01/31 07:33:40.7	89.650	0.100	-0.300	1.610
2020/01/31 07:33:40.8	89.650	0.120	-0.380	1.660
2020/01/31 07:33:40.9	89.650	0.140	-0.450	1.710
2020/01/31 07:33:41.0	89.660	0.160	-0.530	1.750
2020/01/31 07:33:41.1	89.660	0.180	-0.610	1.800
2020/01/31 07:33:41.2	89.660	0.200	-0.680	1.840
2020/01/31 07:33:41.3	89.660	0.210	-0.750	1.880
2020/01/31 07:33:41.4	89.660	0.230	-0.820	1.920
2020/01/31 07:33:41.5	89.660	0.250	-0.880	1.960
2020/01/31 07:33:41.6	89.670	0.260	-0.930	1.990
2020/01/31 07:33:41.7	89.670	0.280	-0.980	2.030
2020/01/31 07:33:41.8	89.670	0.290	-1.030	2.060
2020/01/31 07:33:41.9	89.670	0.300	-1.070	2.090
2020/01/31 07:33:42.0	89.670	0.310	-1.100	2.110
2020/01/31 07:33:42.1	89.670	0.310	-1.120	2.140
2020/01/31 07:33:42.2	89.670	0.320	-1.140	2.170
2020/01/31 07:33:42.3	89.660	0.320	-1.150	2.190
2020/01/31 07:33:42.4	89.660	0.320	-1.160	2.210
2020/01/31 07:33:42.5	89.660	0.320	-1.150	2.230
2020/01/31 07:33:42.6	89.660	0.310	-1.140	2.250
2020/01/31 07:33:42.7	89.660	0.300	-1.130	2.270
2020/01/31 07:33:42.8	89.650	0.290	-1.100	2.290
2020/01/31 07:33:42.9	89.650	0.280	-1.070	2.300
2020/01/31 07:33:43.0	89.650	0.270	-1.040	2.320
2020/01/31 07:33:43.1	89.650	0.250	-0.990	2.330
2020/01/31 07:33:43.2	89.640	0.230	-0.950	2.340
2020/01/31 07:33:43.3	89.640	0.210	-0.890	2.350
2020/01/31 07:33:43.4	89.630	0.190	-0.840	2.360
2020/01/31 07:33:43.5	89.630	0.170	-0.780	2.370
2020/01/31 07:33:43.6	89.630	0.150	-0.710	2.380
2020/01/31 07:33:43.7	89.620	0.120	-0.640	2.390
2020/01/31 07:33:43.8	89.620	0.100	-0.580	2.390
2020/01/31 07:33:43.9	89.610	0.080	-0.500	2.400
2020/01/31 07:33:44.0	89.610	0.050	-0.430	2.400
2020/01/31 07:33:44.1	89.600	0.030	-0.360	2.400
2020/01/31 07:33:44.2	89.590	0.010	-0.290	2.400
2020/01/31 07:33:44.3	89.590	-0.020	-0.210	2.390
2020/01/31 07:33:44.4	89.580	-0.040	-0.140	2.390
2020/01/31 07:33:44.5	89.570	-0.060	-0.060	2.380
2020/01/31 07:33:44.6	89.570	-0.080	0.010	2.360
2020/01/31 07:33:44.7	89.560	-0.100	0.070	2.350
2020/01/31 07:33:44.8	89.550	-0.120	0.140	2.330
2020/01/31 07:33:44.9	89.540	-0.140	0.200	2.300
2020/01/31 07:33:45.0	89.530	-0.160	0.260	2.280
2020/01/31 07:33:45.1	89.520	-0.170	0.320	2.250
2020/01/31 07:33:45.2	89.510	-0.180	0.370	2.210
2020/01/31 07:33:45.3	89.510	-0.200	0.430	2.180
2020/01/31 07:33:45.4	89.500	-0.210	0.470	2.140
2020/01/31 07:33:45.5	89.490	-0.220	0.520	2.090
2020/01/31 07:33:45.6	89.480	-0.220	0.550	2.050
2020/01/31 07:33:45.7	89.470	-0.230	0.590	1.990
2020/01/31 07:33:45.8	89.460	-0.240	0.620	1.940
2020/01/31 07:33:45.9	89.450	-0.240	0.650	1.880
2020/01/31 07:33:46.0	89.450	-0.240	0.670	1.820
2020/01/31 07:33:46.1	89.440	-0.240	0.680	1.760
2020/01/31 07:33:46.2	89.430	-0.240	0.700	1.690
2020/01/31 07:33:46.3	89.430	-0.240	0.700	1.620
2020/01/31 07:33:46.4	89.430	-0.240	0.700	1.550
2020/01/31 07:33:46.5	89.420	-0.240	0.700	1.480
2020/01/31 07:33:46.6	89.420	-0.230	0.700	1.400
2020/01/31 07:33:46.7	89.420	-0.230	0.690	1.320
2020/01/31 07:33:46.8	89.420	-0.220	0.670	1.240
2020/01/31 07:33:46.9	89.420	-0.220	0.650	1.160
2020/01/31 07:33:47.0	89.420	-0.210	0.630	1.080
2020/01/31 07:33:47.1	89.420	-0.200	0.610	1.000
2020/01/31 07:33:47.2	89.420	-0.190	0.580	0.910
2020/01/31 07:33:47.3	89.420	-0.180	0.540	0.830
2020/01/31 07:33:47.4	89.420	-0.170	0.510	0.740
2020/01/31 07:33:47.5	89.420	-0.160	0.470	0.650
2020/01/31 07:33:47.6	89.430	-0.150	0.430	0.570
2020/01/31 07:33:47.7	89.430	-0.140	0.390	0.480
2020/01/31 07:33:47.8	89.430	-0.130	0.350	0.400
2020/01/31 07:33:47.9	89.430	-0.110	0.300	0.310
2020/01/31 07:33:48.0	89.440	-0.100	0.260	0.230
2020/01/31 07:33:48.1	89.440	-0.090	0.210	0.150
2020/01/31 07:33:48.2	89.440	-0.080	0.160	0.070
2020/01/31 07:33:48.3	89.450	-0.070	0.110	-0.010
2020/01/31 07:33:48.4	89.450	-0.060	0.070	-0.090
2020/01/31 07:33:48.5	89.450	-0.050	0.020	-0.170
2020/01/31 07:33:48.6	89.450	-0.040	-0.030	-0.240
2020/01/31 07:33:48.7	89.450	-0.030	-0.070	-0.310
2020/01/31 07:33:48.8	89.450	-0.020	-0.120	-0.380
2020/01/31 07:33:48.9	89.460	-0.010	-0.160	-0.440
2020/01/31 07:33:49.0	89.460	0.000	-0.210	-0.510
2020/01/31 07:33:49.1	89.460	0.010	-0.250	-0.570
2020/01/31 07:33:49.2	89.460	0.010	-0.290	-0.620
2020/01/31 07:33:49.3	89.460	0.020	-0.330	-0.680
2020/01/31 07:33:49.4	89.470	0.030	-0.370	-0.730
2020/01/31 07:33:49.5	89.470	0.030	-0.400	-0.770
2020/01/31 07:33:49.6	89.470	0.030	-0.440	-0.820
2020/01/31 07:33:49.7	89.480	0.040	-0.470	-0.860
2020/01/31 07:33:49.8	89.480	0.040	-0.500	-0.890
2020/01/31 07:33:49.9	89.490	0.040	-0.530	-0.920
2020/01/31 07:33:50.0	89.490	0.040	-0.560	-0.950
2020/01/31 07:33:50.1	89.500	0.050	-0.580	-0.980
2020/01/31 07:33:50.2	89.500	0.050	-0.610	-0.990
2020/01/31 07:33:50.3	89.510	0.050	-0.630	-1.010
2020/01/31 07:33:50.4	89.520	0.050	-0.640	-1.020
2020/01/31 07:33:50.5	89.530	0.050	-0.660	-1.030
2020/01/31 07:33:50.6	89.540	0.040	-0.670	-1.030
2020/01/31 07:33:50.7	89.550	0.040	-0.680	-1.020
2020/01/31 07:33:50.8	89.560	0.040	-0.680	-1.020
2020/01/31 07:33:50.9	89.570	0.040	-0.680	-1.000
2020/01/31 07:33:51.0	89.580	0.040	-0.680	-0.990
2020/01/31 07:33:51.1	89.590	0.040	-0.670	-0.960
2020/01/31 07:33:51.2	89.600	0.040	-0.660	-0.940
2020/01/31 07:33:51.3	89.620	0.040	-0.650	-0.900
2020/01/31 07:33:51.4	89.630	0.030	-0.640	-0.870
2020/01/31 07:33:51.5	89.640	0.030	-0.620	-0.830
2020/01/31 07:33:51.6	89.650	0.030	-0.600	-0.780
2020/01/31 07:33:51.7	89.660	0.030	-0.570	-0.730
2020/01/31 07:33:51.8	89.670	0.030	-0.550	-0.670
2020/01/31 07:33:51.9	89.680	0.030	-0.520	-0.610
2020/01/31 07:33:52.0	89.690	0.030	-0.480	-0.550
2020/01/31 07:33:52.1	89.690	0.030	-0.450	-0.480
2020/01/31 07:33:52.2	89.700	0.020	-0.420	-0.410
2020/01/31 07:33:52.3	89.700	0.020	-0.380	-0.330
2020/01/31 07:33:52.4	89.700	0.020	-0.340	-0.250
2020/01/31 07:33:52.5	89.700	0.020	-0.310	-0.160
2020/01/31 07:33:52.6	89.700	0.020	-0.270	-0.070
2020/01/31 07:33:52.7	89.700	0.020	-0.230	0.030
2020/01/31 07:33:52.8	89.700	0.020	-0.200	0.130
2020/01/31 07:33:52.9	89.690	0.020	-0.160	0.230
2020/01/31 07:33:53.0	89.680	0.010	-0.130	0.340
2020/01/31 07:33:53.1	89.670	0.010	-0.100	0.450
2020/01/31 07:33:53.2	89.660	0.010	-0.070	0.560
2020/01/31 07:33:53.3	89.640	0.010	-0.050	0.680
2020/01/31 07:33:53.4	89.620	0.010	-0.030	0.800
2020/01/31 07:33:53.5	89.600	0.010	-0.010	0.920
2020/01/31 07:33:53.6	89.590	0.000	0.010	1.040
2020/01/31 07:33:53.7	89.570	0.000	0.020	1.170
2020/01/31 07:33:53.8	89.550	0.000	0.030	1.290
2020/01/31 07:33:53.9	89.530	0.000	0.040	1.410
2020/01/31 07:33:54.0	89.500	-0.000	0.040	1.530
2020/01/31 07:33:54.1	89.480	-0.000	0.040	1.650
2020/01/31 07:33:54.2	89.460	-0.000	0.040	1.770
2020/01/31 07:33:54.3	89.440	-0.000	0.040	1.890
2020/01/31 07:33:54.4	89.420	-0.000	0.030	2.010
2020/01/31 07:33:54.5	89.400	-0.010	0.020	2.110
2020/01/31 07:33:54.6	89.380	-0.010	0.000	2.220
2020/01/31 07:33:54.7	89.360	-0.010	-0.020	2.320
2020/01/31 07:33:54.8	89.340	-0.010	-0.030	2.420
2020/01/31 07:33:54.9	89.320	-0.010	-0.050	2.510
2020/01/31 07:33:55.0	89.300	-0.010	-0.080	2.600
2020/01/31 07:33:55.1	89.290	-0.010	-0.100	2.680
2020/01/31 07:33:55.2	89.270	-0.010	-0.120	2.760
2020/01/31 07:33:55.3	89.260	-0.010	-0.140	2.830
2020/01/31 07:33:55.4	89.250	-0.010	-0.160	2.890
2020/01/31 07:33:55.5	89.240	-0.010	-0.180	2.950
2020/01/31 07:33:55.6	89.230	-0.010	-0.200	3.010
2020/01/31 07:33:55.7	89.220	-0.010	-0.220	3.050
2020/01/31 07:33:55.8	89.220	-0.010	-0.240	3.090
2020/01/31 07:33:55.9	89.210	-0.010	-0.250	3.130
2020/01/31 07:33:56.0	89.210	-0.010	-0.270	3.150
2020/01/31 07:33:56.1	89.210	-0.010	-0.280	3.170
2020/01/31 07:33:56.2	89.210	-0.010	-0.290	3.190
2020/01/31 07:33:56.3	89.220	-0.010	-0.300	3.200
2020/01/31 07:33:56.4	89.220	-0.010	-0.300	3.200
2020/01/31 07:33:56.5	89.220	-0.010	-0.300	3.190
2020/01/31 07:33:56.6	89.230	-0.010	-0.300	3.180
2020/01/31 07:33:56.7	89.240	-0.010	-0.300	3.160
2020/01/31 07:33:56.8	89.250	-0.010	-0.300	3.140
2020/01/31 07:33:56.9	89.260	-0.010	-0.290	3.110
2020/01/31 07:33:57.0	89.270	-0.010	-0.290	3.070
2020/01/31 07:33:57.1	89.280	-0.000	-0.280	3.030
2020/01/31 07:33:57.2	89.300	-0.000	-0.270	2.980
2020/01/31 07:33:57.3	89.310	-0.000	-0.250	2.930
2020/01/31 07:33:57.4	89.330	0.000	-0.240	2.870
2020/01/31 07:33:57.5	89.350	0.000	-0.220	2.810
2020/01/31 07:33:57.6	89.370	0.000	-0.210	2.740
2020/01/31 07:33:57.7	89.390	0.010	-0.190	2.670
2020/01/31 07:33:57.8	89.410	0.010	-0.170	2.590
2020/01/31 07:33:57.9	89.430	0.010	-0.160	2.520
2020/01/31 07:33:58.0	89.450	0.010	-0.140	2.430
2020/01/31 07:33:58.1	89.470	0.010	-0.120	2.350
2020/01/31 07:33:58.2	89.490	0.010	-0.100	2.270
2020/01/31 07:33:58.3	89.500	0.010	-0.080	2.180
2020/01/31 07:33:58.4	89.520	0.010	-0.060	2.090
2020/01/31 07:33:58.5	89.540	0.010	-0.040	2.010
2020/01/31 07:33:58.6	89.550	0.010	-0.030	1.920
2020/01/31 07:33:58.7	89.560	0.010	-0.010	1.830
2020/01/31 07:33:58.8	89.570	0.020	0.010	1.740
2020/01/31 07:33:58.9	89.580	0.020	0.020	1.660
2020/01/31 07:33:59.0	89.590	0.020	0.040	1.570
2020/01/31 07:33:59.1	89.590	0.020	0.050	1.490
2020/01/31 07:33:59.2	89.600	0.020	0.070	1.410
2020/01/31 07:33:59.3	89.600	0.020	0.080	1.330
2020/01/31 07:33:59.4	89.600	0.030	0.090	1.250
2020/01/31 07:33:59.5	89.590	0.030	0.100	1.170
2020/01/31 07:33:59.6	89.590	0.030	0.110	1.100
2020/01/31 07:33:59.7	89.580	0.030	0.110	1.030
2020/01/31 07:33:59.8	89.580	0.040	0.120	0.960
2020/01/31 07:33:59.9	89.570	0.040	0.120	0.890
2020/01/31 07:34:00.0	89.550	0.050	0.110	0.830
2020/01/31 07:34:00.1	89.540	0.050	0.110	0.770
2020/01/31 07:34:00.2	89.530	0.060	0.100	0.710
2020/01/31 07:34:00.3	89.520	0.060	0.090	0.650
2020/01/31 07:34:00.4	89.500	0.070	0.080	0.600
2020/01/31 07:34:00.5	89.480	0.070	0.060	0.540
2020/01/31 07:34:00.6	89.470	0.080	0.050	0.490
2020/01/31 07:34:00.7	89.450	0.090	0.020	0.440
2020/01/31 07:34:00.8	89.430	0.100	0.000	0.390
2020/01/31 07:34:00.9	89.410	0.110	-0.030	0.330
2020/01/31 07:34:01.0	89.400	0.120	-0.050	0.280
2020/01/31 07:34:01.1	89.380	0.130	-0.090	0.230
2020/01/31 07:34:01.2	89.360	0.140	-0.120	0.180
2020/01/31 07:34:01.3	89.350	0.150	-0.150	0.130
2020/01/31 07:34:01.4	89.340	0.160	-0.190	0.080
2020/01/31 07:34:01.5	89.330	0.170	-0.230	0.030
2020/01/31 07:34:01.6	89.310	0.190	-0.270	-0.020
2020/01/31 07:34:01.7	89.310	0.200	-0.310	-0.080
2020/01/31 07:34:01.8	89.300	0.210	-0.350	-0.130
2020/01/31 07:34:01.9	89.290	0.230	-0.400	-0.180
2020/01/31 07:34:02.0	89.290	0.240	-0.440	-0.240
2020/01/31 07:34:02.1	89.290	0.260	-0.480	-0.290
2020/01/31 07:34:02.2	89.290	0.270	-0.520	-0.350
2020/01/31 07:34:02.3	89.290	0.280	-0.560	-0.400
2020/01/31 07:34:02.4	89.300	0.300	-0.590	-0.460
2020/01/31 07:34:02.5	89.310	0.310	-0.630	-0.510
2020/01/31 07:34:02.6	89.320	0.320	-0.660	-0.560
2020/01/31 07:34:02.7	89.330	0.330	-0.690	-0.600
2020/01/31 07:34:02.8	89.340	0.340	-0.710	-0.650
2020/01/31 07:34:02.9	89.350	0.350	-0.730	-0.690
2020/01/31 07:34:03.0	89.360	0.360	-0.750	-0.720
2020/01/31 07:34:03.1	89.380	0.360	-0.760	-0.760
2020/01/31 07:34:03.2	89.390	0.370	-0.770	-0.780
2020/01/31 07:34:03.3	89.410	0.370	-0.770	-0.810
2020/01/31 07:34:03.4	89.420	0.370	-0.760	-0.830
2020/01/31 07:34:03.5	89.430	0.360	-0.750	-0.840
2020/01/31 07:34:03.6	89.450	0.360	-0.730	-0.840
2020/01/31 07:34:03.7	89.460	0.350	-0.700	-0.840
2020/01/31 07:34:03.8	89.470	0.340	-0.670	-0.840
2020/01/31 07:34:03.9	89.480	0.320	-0.640	-0.820
2020/01/31 07:34:04.0	89.490	0.300	-0.590	-0.810
2020/01/31 07:34:04.1	89.500	0.280	-0.540	-0.780
2020/01/31 07:34:04.2	89.500	0.260	-0.490	-0.760
2020/01/31 07:34:04.3	89.510	0.230	-0.430	-0.720
2020/01/31 07:34:04.4	89.520	0.200	-0.370	-0.680
2020/01/31 07:34:04.5	89.520	0.170	-0.310	-0.640
2020/01/31 07:34:04.6	89.520	0.130	-0.240	-0.590
2020/01/31 07:34:04.7	89.520	0.090	-0.170	-0.540
2020/01/31 07:34:04.8	89.520	0.050	-0.100	-0.490
2020/01/31 07:34:04.9	89.520	0.010	-0.030	-0.440
2020/01/31 07:34:05.0	89.520	-0.030	0.040	-0.380
2020/01/31 07:34:05.1	89.520	-0.080	0.110	-0.320
2020/01/31 07:34:05.2	89.520	-0.120	0.180	-0.260
2020/01/31 07:34:05.3	89.510	-0.170	0.250	-0.200
2020/01/31 07:34:05.4	89.510	-0.220	0.320	-0.130
2020/01/31 07:34:05.5	89.510	-0.270	0.380	-0.070
2020/01/31 07:34:05.6	89.510	-0.320	0.440	-0.000
2020/01/31 07:34:05.7	89.510	-0.370	0.500	0.060
2020/01/31 07:34:05.8	89.510	-0.410	0.560	0.130
2020/01/31 07:34:05.9	89.510	-0.460	0.610	0.200
2020/01/31 07:34:06.0	89.510	-0.510	0.650	0.270
2020/01/31 07:34:06.1	89.510	-0.550	0.690	0.340
2020/01/31 07:34:06.2	89.510	-0.590	0.730	0.410
2020/01/31 07:34:06.3	89.510	-0.630	0.760	0.480
2020/01/31 07:34:06.4	89.520	-0.660	0.780	0.550
2020/01/31 07:34:06.5	89.520	-0.700	0.800	0.630
2020/01/31 07:34:06.6	89.520	-0.730	0.810	0.700
2020/01/31 07:34:06.7	89.520	-0.750	0.820	0.780
2020/01/31 07:34:06.8	89.520	-0.770	0.820	0.850
2020/01/31 07:34:06.9	89.520	-0.790	0.820	0.930
2020/01/31 07:34:07.0	89.520	-0.810	0.810	1.010
2020/01/31 07:34:07.1	89.520	-0.820	0.790	1.090
2020/01/31 07:34:07.2	89.520	-0.820	0.770	1.170
2020/01/31 07:34:07.3	89.520	-0.820	0.740	1.250
2020/01/31 07:34:07.4	89.510	-0.820	0.700	1.330
2020/01/31 07:34:07.5	89.510	-0.810	0.670	1.420
2020/01/31 07:34:07.6	89.500	-0.800	0.620	1.500
2020/01/31 07:34:07.7	89.490	-0.790	0.570	1.580
2020/01/31 07:34:07.8	89.490	-0.770	0.520	1.670
2020/01/31 07:34:07.9	89.480	-0.750	0.460	1.750
2020/01/31 07:34:08.0	89.470	-0.720	0.400	1.840
2020/01/31 07:34:08.1	89.460	-0.690	0.340	1.920
2020/01/31 07:34:08.2	89.440	-0.660	0.270	2.000
2020/01/31 07:34:08.3	89.430	-0.630	0.200	2.080
2020/01/31 07:34:08.4	89.420	-0.590	0.130	2.160
2020/01/31 07:34:08.5	89.410	-0.550	0.060	2.230
2020/01/31 07:34:08.6	89.390	-0.510	-0.020	2.310
2020/01/31 07:34:08.7	89.380	-0.470	-0.090	2.380
2020/01/31 07:34:08.8	89.370	-0.420	-0.170	2.440
2020/01/31 07:34:08.9	89.350	-0.380	-0.240	2.510
2020/01/31 07:34:09.0	89.340	-0.330	-0.320	2.570
2020/01/31 07:34:09.1	89.330	-0.280	-0.390	2.620
2020/01/31 07:34:09.2	89.320	-0.230	-0.460	2.670
2020/01/31 07:34:09.3	89.300	-0.180	-0.530	2.710
2020/01/31 07:34:09.4	89.290	-0.130	-0.600	2.750
2020/01/31 07:34:09.5	89.290	-0.090	-0.660	2.790
2020/01/31 07:34:09.6	89.280	-0.040	-0.720	2.810
2020/01/31 07:34:09.7	89.270	0.010	-0.780	2.840
2020/01/31 07:34:09.8	89.270	0.060	-0.830	2.850
2020/01/31 07:34:09.9	89.270	0.110	-0.880	2.860
2020/01/31 07:34:10.0	89.260	0.150	-0.930	2.870
2020/01/31 07:34:10.1	89.260	0.200	-0.970	2.870
2020/01/31 07:34:10.2	89.260	0.240	-1.010	2.860
2020/01/31 07:34:10.3	89.260	0.280	-1.040	2.850
2020/01/31 07:34:10.4	89.260	0.330	-1.070	2.830
2020/01/31 07:34:10.5	89.260	0.370	-1.090	2.800
2020/01/31 07:34:10.6	89.270	0.400	-1.110	2.770
2020/01/31 07:34:10.7	89.270	0.440	-1.130	2.740
2020/01/31 07:34:10.8	89.280	0.480	-1.150	2.700
2020/01/31 07:34:10.9	89.280	0.510	-1.160	2.660
2020/01/31 07:34:11.0	89.290	0.540	-1.160	2.610
2020/01/31 07:34:11.1	89.290	0.570	-1.170	2.560
2020/01/31 07:34:11.2	89.300	0.600	-1.160	2.500
2020/01/31 07:34:11.3	89.310	0.620	-1.160	2.440
2020/01/31 07:34:11.4	89.320	0.650	-1.150	2.370
2020/01/31 07:34:11.5	89.330	0.670	-1.140	2.310
2020/01/31 07:34:11.6	89.340	0.690	-1.120	2.240
2020/01/31 07:34:11.7	89.350	0.700	-1.100	2.160
2020/01/31 07:34:11.8	89.360	0.720	-1.070	2.090
2020/01/31 07:34:11.9	89.370	0.730	-1.050	2.010
2020/01/31 07:34:12.0	89.380	0.740	-1.020	1.930
2020/01/31 07:34:12.1	89.400	0.750	-0.980	1.850
2020/01/31 07:34:12.2	89.410	0.750	-0.950	1.770
2020/01/31 07:34:12.3	89.420	0.750	-0.910	1.680
2020/01/31 07:34:12.4	89.430	0.750	-0.870	1.600
2020/01/31 07:34:12.5	89.440	0.750	-0.820	1.510
2020/01/31 07:34:12.6	89.450	0.740	-0.770	1.430
2020/01/31 07:34:12.7	89.460	0.730	-0.720	1.350
2020/01/31 07:34:12.8	89.470	0.720	-0.670	1.260
2020/01/31 07:34:12.9	89.480	0.710	-0.620	1.180
2020/01/31 07:34:13.0	89.480	0.690	-0.560	1.100
2020/01/31 07:34:13.1	89.480	0.670	-0.500	1.020
2020/01/31 07:34:13.2	89.480	0.650	-0.440	0.950
2020/01/31 07:34:13.3	89.480	0.630	-0.370	0.870
2020/01/31 07:34:13.4	89.480	0.600	-0.310	0.800
2020/01/31 07:34:13.5	89.480	0.570	-0.240	0.730
2020/01/31 07:34:13.6	89.470	0.540	-0.170	0.670
2020/01/31 07:34:13.7	89.460	0.510	-0.100	0.600
2020/01/31 07:34:13.8	89.450	0.480	-0.030	0.540
2020/01/31 07:34:13.9	89.440	0.440	0.040	0.480
2020/01/31 07:34:14.0	89.420	0.410	0.120	0.430
2020/01/31 07:34:14.1	89.400	0.370	0.190	0.380
2020/01/31 07:34:14.2	89.380	0.330	0.270	0.330
2020/01/31 07:34:14.3	89.360	0.290	0.350	0.280
2020/01/31 07:34:14.4	89.340	0.250	0.430	0.240
2020/01/31 07:34:14.5	89.320	0.200	0.500	0.200
2020/01/31 07:34:14.6	89.290	0.160	0.580	0.160
2020/01/31 07:34:14.7	89.260	0.120	0.650	0.130
2020/01/31 07:34:14.8	89.230	0.070	0.720	0.090
2020/01/31 07:34:14.9	89.190	0.030	0.790	0.060
2020/01/31 07:34:15.0	89.160	-0.010	0.850	0.040
2020/01/31 07:34:15.1	89.120	-0.050	0.910	0.010
2020/01/31 07:34:15.2	89.080	-0.090	0.970	-0.010
2020/01/31 07:34:15.3	89.040	-0.130	1.020	-0.030
2020/01/31 07:34:15.4	89.000	-0.170	1.060	-0.040
2020/01/31 07:34:15.5	88.960	-0.210	1.100	-0.060
2020/01/31 07:34:15.6	88.910	-0.250	1.130	-0.070
2020/01/31 07:34:15.7	88.870	-0.280	1.150	-0.090
2020/01/31 07:34:15.8	88.830	-0.320	1.160	-0.100
2020/01/31 07:34:15.9	88.790	-0.350	1.160	-0.110
2020/01/31 07:34:16.0	88.750	-0.370	1.150	-0.120
2020/01/31 07:34:16.1	88.710	-0.400	1.140	-0.130
2020/01/31 07:34:16.2	88.680	-0.420	1.110	-0.150
2020/01/31 07:34:16.3	88.640	-0.440	1.070	-0.160
2020/01/31 07:34:16.4	88.610	-0.460	1.030	-0.170
2020/01/31 07:34:16.5	88.580	-0.480	0.970	-0.180
2020/01/31 07:34:16.6	88.550	-0.490	0.910	-0.200
2020/01/31 07:34:16.7	88.530	-0.500	0.840	-0.210
2020/01/31 07:34:16.8	88.510	-0.510	0.760	-0.230
2020/01/31 07:34:16.9	88.490	-0.520	0.670	-0.240
2020/01/31 07:34:17.0	88.480	-0.520	0.580	-0.260
2020/01/31 07:34:17.1	88.470	-0.520	0.480	-0.280
2020/01/31 07:34:17.2	88.470	-0.520	0.380	-0.290
2020/01/31 07:34:17.3	88.480	-0.520	0.270	-0.310
2020/01/31 07:34:17.4	88.480	-0.510	0.160	-0.320
2020/01/31 07:34:17.5	88.490	-0.500	0.050	-0.340
2020/01/31 07:34:17.6	88.500	-0.490	-0.060	-0.350
2020/01/31 07:34:17.7	88.510	-0.480	-0.170	-0.370
2020/01/31 07:34:17.8	88.530	-0.470	-0.280	-0.380
2020/01/31 07:34:17.9	88.560	-0.450	-0.380	-0.390
2020/01/31 07:34:18.0	88.580	-0.440	-0.490	-0.400
2020/01/31 07:34:18.1	88.610	-0.420	-0.580	-0.410
2020/01/31 07:34:18.2	88.640	-0.410	-0.680	-0.410
2020/01/31 07:34:18.3	88.680	-0.390	-0.770	-0.420
2020/01/31 07:34:18.4	88.720	-0.370	-0.850	-0.420
2020/01/31 07:34:18.5	88.760	-0.350	-0.920	-0.420
2020/01/31 07:34:18.6	88.800	-0.340	-0.990	-0.410
2020/01/31 07:34:18.7	88.850	-0.320	-1.040	-0.410
2020/01/31 07:34:18.8	88.890	-0.300	-1.090	-0.400
2020/01/31 07:34:18.9	88.940	-0.290	-1.130	-0.390
2020/01/31 07:34:19.0	88.990	-0.270	-1.160	-0.370
2020/01/31 07:34:19.1	89.040	-0.250	-1.180	-0.350
2020/01/31 07:34:19.2	89.090	-0.240	-1.200	-0.330
2020/01/31 07:34:19.3	89.140	-0.220	-1.200	-0.310
2020/01/31 07:34:19.4	89.180	-0.200	-1.200	-0.280
2020/01/31 07:34:19.5	89.230	-0.190	-1.190	-0.250
2020/01/31 07:34:19.6	89.280	-0.180	-1.170	-0.210
2020/01/31 07:34:19.7	89.320	-0.160	-1.140	-0.180
2020/01/31 07:34:19.8	89.360	-0.150	-1.110	-0.130
2020/01/31 07:34:19.9	89.400	-0.130	-1.080	-0.090
2020/01/31 07:34:20.0	89.440	-0.120	-1.030	-0.030
2020/01/31 07:34:20.1	89.470	-0.110	-0.990	0.020
2020/01/31 07:34:20.2	89.500	-0.090	-0.930	0.080
2020/01/31 07:34:20.3	89.530	-0.080	-0.880	0.150
2020/01/31 07:34:20.4	89.550	-0.070	-0.820	0.220
2020/01/31 07:34:20.5	89.570	-0.050	-0.760	0.290
2020/01/31 07:34:20.6	89.590	-0.040	-0.700	0.370
2020/01/31 07:34:20.7	89.600	-0.020	-0.630	0.450
2020/01/31 07:34:20.8	89.610	-0.010	-0.570	0.540
2020/01/31 07:34:20.9	89.610	0.010	-0.510	0.630
2020/01/31 07:34:21.0	89.610	0.020	-0.450	0.720
2020/01/31 07:34:21.1	89.610	0.040	-0.390	0.820
2020/01/31 07:34:21.2	89.600	0.050	-0.330	0.920
2020/01/31 07:34:21.3	89.600	0.070	-0.270	1.020
2020/01/31 07:34:21.4	89.590	0.090	-0.220	1.120
2020/01/31 07:34:21.5	89.570	0.100	-0.170	1.230
2020/01/31 07:34:21.6	89.550	0.120	-0.130	1.340
2020/01/31 07:34:21.7	89.530	0.140	-0.090	1.440
2020/01/31 07:34:21.8	89.510	0.160	-0.050	1.550
2020/01/31 07:34:21.9	89.490	0.180	-0.010	1.660
2020/01/31 07:34:22.0	89.460	0.190	0.020	1.760
2020/01/31 07:34:22.1	89.430	0.210	0.040	1.870
2020/01/31 07:34:22.2	89.410	0.230	0.070	1.970
2020/01/31 07:34:22.3	89.390	0.240	0.090	2.070
2020/01/31 07:34:22.4	89.360	0.260	0.100	2.160
2020/01/31 07:34:22.5	89.330	0.270	0.120	2.250
2020/01/31 07:34:22.6	89.300	0.290	0.130	2.340
2020/01/31 07:34:22.7	89.280	0.300	0.140	2.420
2020/01/31 07:34:22.8	89.250	0.310	0.160	2.500
2020/01/31 07:34:22.9	89.220	0.320	0.160	2.570
2020/01/31 07:34:23.0	89.200	0.320	0.170	2.640
2020/01/31 07:34:23.1	89.170	0.320	0.180	2.700
2020/01/31 07:34:23.2	89.150	0.330	0.190	2.770
2020/01/31 07:34:23.3	89.120	0.320	0.200	2.820
2020/01/31 07:34:23.4	89.090	0.320	0.200	2.870
2020/01/31 07:34:23.5	89.070	0.310	0.210	2.920
2020/01/31 07:34:23.6	89.050	0.300	0.220	2.970
2020/01/31 07:34:23.7	89.020	0.290	0.230	3.010
2020/01/31 07:34:23.8	89.000	0.280	0.240	3.040
2020/01/31 07:34:23.9	88.980	0.260	0.260	3.070
2020/01/31 07:34:24.0	88.950	0.240	0.270	3.100
2020/01/31 07:34:24.1	88.930	0.210	0.280	3.120
2020/01/31 07:34:24.2	88.910	0.190	0.290	3.140
2020/01/31 07:34:24.3	88.880	0.160	0.300	3.160
2020/01/31 07:34:24.4	88.860	0.130	0.310	3.170
2020/01/31 07:34:24.5	88.840	0.100	0.320	3.170
2020/01/31 07:34:24.6	88.820	0.070	0.330	3.170
2020/01/31 07:34:24.7	88.800	0.040	0.340	3.170
2020/01/31 07:34:24.8	88.780	0.000	0.350	3.160
2020/01/31 07:34:24.9	88.770	-0.030	0.350	3.140
2020/01/31 07:34:25.0	88.750	-0.070	0.350	3.120
2020/01/31 07:34:25.1	88.740	-0.100	0.340	3.090
2020/01/31 07:34:25.2	88.730	-0.130	0.340	3.060
2020/01/31 07:34:25.3	88.710	-0.160	0.320	3.010
2020/01/31 07:34:25.4	88.710	-0.190	0.310	2.970
2020/01/31 07:34:25.5	88.700	-0.220	0.290	2.910
2020/01/31 07:34:25.6	88.700	-0.250	0.270	2.850
2020/01/31 07:34:25.7	88.700	-0.270	0.240	2.790
2020/01/31 07:34:25.8	88.710	-0.290	0.210	2.710
2020/01/31 07:34:25.9	88.710	-0.300	0.180	2.630
2020/01/31 07:34:26.0	88.720	-0.320	0.140	2.550
2020/01/31 07:34:26.1	88.730	-0.330	0.090	2.460
2020/01/31 07:34:26.2	88.750	-0.330	0.050	2.360
2020/01/31 07:34:26.3	88.760	-0.330	-0.000	2.260
2020/01/31 07:34:26.4	88.780	-0.330	-0.050	2.150
2020/01/31 07:34:26.5	88.790	-0.320	-0.110	2.040
2020/01/31 07:34:26.6	88.810	-0.310	-0.170	1.930
2020/01/31 07:34:26.7	88.830	-0.290	-0.230	1.810
2020/01/31 07:34:26.8	88.860	-0.270	-0.290	1.690
2020/01/31 07:34:26.9	88.880	-0.250	-0.360	1.570
2020/01/31 07:34:27.0	88.900	-0.220	-0.420	1.450
2020/01/31 07:34:27.1	88.930	-0.190	-0.480	1.330
2020/01/31 07:34:27.2	88.950	-0.150	-0.540	1.200
2020/01/31 07:34:27.3	88.990	-0.120	-0.610	1.070
2020/01/31 07:34:27.4	89.010	-0.080	-0.670	0.950
2020/01/31 07:34:27.5	89.040	-0.040	-0.730	0.820
2020/01/31 07:34:27.6	89.070	0.000	-0.780	0.700
2020/01/31 07:34:27.7	89.090	0.050	-0.820	0.580
2020/01/31 07:34:27.8	89.120	0.090	-0.870	0.460
2020/01/31 07:34:27.9	89.150	0.140	-0.900	0.340
2020/01/31 07:34:28.0	89.170	0.180	-0.940	0.220
2020/01/31 07:34:28.1	89.200	0.220	-0.960	0.110
2020/01/31 07:34:28.2	89.220	0.260	-0.980	0.000
2020/01/31 07:34:28.3	89.250	0.300	-1.000	-0.100
2020/01/31 07:34:28.4	89.270	0.340	-1.000	-0.210
2020/01/31 07:34:28.5	89.290	0.380	-1.000	-0.300
2020/01/31 07:34:28.6	89.310	0.410	-1.000	-0.400
2020/01/31 07:34:28.7	89.330	0.440	-0.980	-0.490
2020/01/31 07:34:28.8	89.340	0.470	-0.960	-0.570
2020/01/31 07:34:28.9	89.360	0.490	-0.940	-0.650
2020/01/31 07:34:29.0	89.370	0.520	-0.900	-0.720
2020/01/31 07:34:29.1	89.380	0.530	-0.860	-0.780
2020/01/31 07:34:29.2	89.390	0.550	-0.820	-0.840
2020/01/31 07:34:29.3	89.400	0.550	-0.770	-0.890
2020/01/31 07:34:29.4	89.410	0.560	-0.710	-0.940
2020/01/31 07:34:29.5	89.410	0.560	-0.650	-0.980
2020/01/31 07:34:29.6	89.410	0.560	-0.590	-1.010
2020/01/31 07:34:29.7	89.410	0.550	-0.520	-1.040
2020/01/31 07:34:29.8	89.410	0.540	-0.450	-1.060
2020/01/31 07:34:29.9	89.410	0.520	-0.380	-1.070
2020/01/31 07:34:30.0	89.410	0.500	-0.300	-1.080
2020/01/31 07:34:30.1	89.400	0.480	-0.230	-1.080
2020/01/31 07:34:30.2	89.390	0.450	-0.150	-1.080
2020/01/31 07:34:30.3	89.390	0.430	-0.070	-1.070
2020/01/31 07:34:30.4	89.380	0.390	0.010	-1.050
2020/01/31 07:34:30.5	89.370	0.360	0.080	-1.030
2020/01/31 07:34:30.6	89.360	0.320	0.160	-1.000
2020/01/31 07:34:30.7	89.350	0.280	0.230	-0.960
2020/01/31 07:34:30.8	89.330	0.240	0.300	-0.920
2020/01/31 07:34:30.9	89.320	0.200	0.370	-0.880
2020/01/31 07:34:31.0	89.300	0.160	0.430	-0.830
2020/01/31 07:34:31.1	89.280	0.110	0.490	-0.780
2020/01/31 07:34:31.2	89.260	0.070	0.540	-0.720
2020/01/31 07:34:31.3	89.240	0.030	0.590	-0.670
2020/01/31 07:34:31.4	89.220	-0.020	0.630	-0.610
2020/01/31 07:34:31.5	89.200	-0.060	0.670	-0.540
2020/01/31 07:34:31.6	89.180	-0.100	0.700	-0.480
2020/01/31 07:34:31.7	89.160	-0.140	0.730	-0.410
2020/01/31 07:34:31.8	89.140	-0.180	0.750	-0.340
2020/01/31 07:34:31.9	89.120	-0.220	0.760	-0.270
2020/01/31 07:34:32.0	89.100	-0.250	0.770	-0.200
2020/01/31 07:34:32.1	89.080	-0.290	0.770	-0.120
2020/01/31 07:34:32.2	89.060	-0.320	0.760	-0.050
2020/01/31 07:34:32.3	89.040	-0.340	0.740	0.020
2020/01/31 07:34:32.4	89.020	-0.370	0.720	0.100
2020/01/31 07:34:32.5	89.000	-0.390	0.690	0.170
2020/01/31 07:34:32.6	88.980	-0.410	0.660	0.240
2020/01/31 07:34:32.7	88.960	-0.430	0.620	0.320
2020/01/31 07:34:32.8	88.940	-0.440	0.570	0.390
2020/01/31 07:34:32.9	88.920	-0.450	0.520	0.460
2020/01/31 07:34:33.0	88.900	-0.450	0.470	0.540
2020/01/31 07:34:33.1	88.890	-0.460	0.410	0.610
2020/01/31 07:34:33.2	88.870	-0.460	0.340	0.680
2020/01/31 07:34:33.3	88.850	-0.450	0.270	0.750
2020/01/31 07:34:33.4	88.840	-0.450	0.200	0.820
2020/01/31 07:34:33.5	88.830	-0.440	0.130	0.890
2020/01/31 07:34:33.6	88.820	-0.420	0.050	0.960
2020/01/31 07:34:33.7	88.820	-0.410	-0.020	1.030
2020/01/31 07:34:33.8	88.820	-0.390	-0.100	1.100
2020/01/31 07:34:33.9	88.820	-0.370	-0.180	1.160
2020/01/31 07:34:34.0	88.820	-0.350	-0.250	1.230
2020/01/31 07:34:34.1	88.830	-0.330	-0.330	1.290
2020/01/31 07:34:34.2	88.840	-0.300	-0.400	1.350
2020/01/31 07:34:34.3	88.850	-0.270	-0.480	1.420
2020/01/31 07:34:34.4	88.870	-0.250	-0.550	1.480
2020/01/31 07:34:34.5	88.890	-0.220	-0.620	1.530
2020/01/31 07:34:34.6	88.910	-0.190	-0.680	1.590
2020/01/31 07:34:34.7	88.930	-0.160	-0.740	1.650
2020/01/31 07:34:34.8	88.960	-0.130	-0.800	1.700
2020/01/31 07:34:34.9	88.990	-0.100	-0.850	1.750
2020/01/31 07:34:35.0	89.020	-0.070	-0.890	1.800
2020/01/31 07:34:35.1	89.060	-0.040	-0.930	1.850
2020/01/31 07:34:35.2	89.090	-0.010	-0.970	1.900
2020/01/31 07:34:35.3	89.130	0.010	-1.000	1.950
2020/01/31 07:34:35.4	89.170	0.040	-1.020	2.000
2020/01/31 07:34:35.5	89.200	0.060	-1.040	2.040
2020/01/31 07:34:35.6	89.240	0.080	-1.050	2.080
2020/01/31 07:34:35.7	89.270	0.100	-1.060	2.120
2020/01/31 07:34:35.8	89.310	0.120	-1.050	2.160
2020/01/31 07:34:35.9	89.340	0.130	-1.040	2.200
2020/01/31 07:34:36.0	89.370	0.140	-1.030	2.230
2020/01/31 07:34:36.1	89.400	0.150	-1.010	2.260
2020/01/31 07:34:36.2	89.430	0.160	-0.980	2.290
2020/01/31 07:34:36.3	89.450	0.160	-0.940	2.310
2020/01/31 07:34:36.4	89.480	0.160	-0.900	2.340
2020/01/31 07:34:36.5	89.500	0.150	-0.860	2.350
2020/01/31 07:34:36.6	89.520	0.150	-0.800	2.370
2020/01/31 07:34:36.7	89.540	0.140	-0.750	2.380
2020/01/31 07:34:36.8	89.550	0.130	-0.680	2.390
2020/01/31 07:34:36.9	89.570	0.110	-0.620	2.400
2020/01/31 07:34:37.0	89.580	0.100	-0.540	2.410
2020/01/31 07:34:37.1	89.590	0.080	-0.470	2.410
2020/01/31 07:34:37.2	89.590	0.050	-0.390	2.410
2020/01/31 07:34:37.3	89.590	0.030	-0.310	2.410
2020/01/31 07:34:37.4	89.580	0.010	-0.220	2.410
2020/01/31 07:34:37.5	89.580	-0.020	-0.140	2.410
2020/01/31 07:34:37.6	89.570	-0.050	-0.050	2.400
2020/01/31 07:34:37.7	89.560	-0.070	0.040	2.400
2020/01/31 07:34:37.8	89.550	-0.100	0.130	2.390
2020/01/31 07:34:37.9	89.530	-0.130	0.220	2.380
2020/01/31 07:34:38.0	89.510	-0.160	0.310	2.380
2020/01/31 07:34:38.1	89.490	-0.190	0.390	2.370
2020/01/31 07:34:38.2	89.460	-0.220	0.480	2.360
2020/01/31 07:34:38.3	89.430	-0.250	0.560	2.350
2020/01/31 07:34:38.4	89.400	-0.270	0.640	2.340
2020/01/31 07:34:38.5	89.360	-0.300	0.710	2.330
2020/01/31 07:34:38.6	89.330	-0.320	0.770	2.310
2020/01/31 07:34:38.7	89.290	-0.340	0.830	2.290
2020/01/31 07:34:38.8	89.250	-0.360	0.880	2.270
2020/01/31 07:34:38.9	89.210	-0.380	0.920	2.250
2020/01/31 07:34:39.0	89.170	-0.400	0.960	2.230
2020/01/31 07:34:39.1	89.130	-0.410	0.980	2.200
2020/01/31 07:34:39.2	89.090	-0.420	1.000	2.160
2020/01/31 07:34:39.3	89.050	-0.430	1.000	2.120
2020/01/31 07:34:39.4	89.020	-0.430	1.000	2.080
2020/01/31 07:34:39.5	88.980	-0.430	0.990	2.030
2020/01/31 07:34:39.6	88.950	-0.430	0.970	1.980
2020/01/31 07:34:39.7	88.920	-0.420	0.950	1.920
2020/01/31 07:34:39.8	88.890	-0.410	0.910	1.860
2020/01/31 07:34:39.9	88.870	-0.400	0.860	1.790
2020/01/31 07:34:40.0	88.850	-0.390	0.800	1.710
2020/01/31 07:34:40.1	88.830	-0.370	0.740	1.630
2020/01/31 07:34:40.2	88.810	-0.350	0.670	1.540
2020/01/31 07:34:40.3	88.800	-0.320	0.590	1.450
2020/01/31 07:34:40.4	88.800	-0.290	0.500	1.350
2020/01/31 07:34:40.5	88.790	-0.260	0.410	1.250
2020/01/31 07:34:40.6	88.790	-0.230	0.310	1.140
2020/01/31 07:34:40.7	88.800	-0.200	0.210	1.040
2020/01/31 07:34:40.8	88.800	-0.160	0.110	0.920
2020/01/31 07:34:40.9	88.810	-0.120	-0.000	0.810
2020/01/31 07:34:41.0	88.830	-0.080	-0.110	0.690
2020/01/31 07:34:41.1	88.840	-0.040	-0.230	0.570
2020/01/31 07:34:41.2	88.860	0.010	-0.340	0.450
2020/01/31 07:34:41.3	88.890	0.050	-0.460	0.330
2020/01/31 07:34:41.4	88.920	0.100	-0.570	0.210
2020/01/31 07:34:41.5	88.940	0.140	-0.680	0.090
2020/01/31 07:34:41.6	88.970	0.190	-0.790	-0.030
2020/01/31 07:34:41.7	89.000	0.240	-0.890	-0.150
2020/01/31 07:34:41.8	89.030	0.280	-0.990	-0.270
2020/01/31 07:34:41.9	89.060	0.330	-1.090	-0.380
2020/01/31 07:34:42.0	89.090	0.370	-1.180	-0.490
2020/01/31 07:34:42.1	89.130	0.410	-1.260	-0.590
2020/01/31 07:34:42.2	89.160	0.450	-1.340	-0.700
2020/01/31 07:34:42.3	89.200	0.490	-1.410	-0.800
2020/01/31 07:34:42.4	89.230	0.530	-1.470	-0.890
2020/01/31 07:34:42.5	89.260	0.570	-1.520	-0.980
2020/01/31 07:34:42.6	89.300	0.600	-1.560	-1.060
2020/01/31 07:34:42.7	89.330	0.630	-1.590	-1.130
2020/01/31 07:34:42.8	89.360	0.660	-1.610	-1.200
2020/01/31 07:34:42.9	89.390	0.680	-1.610	-1.250
2020/01/31 07:34:43.0	89.410	0.700	-1.610	-1.300
2020/01/31 07:34:43.1	89.440	0.720	-1.600	-1.350
2020/01/31 07:34:43.2	89.460	0.730	-1.580	-1.380
2020/01/31 07:34:43.3	89.490	0.740	-1.540	-1.410
2020/01/31 07:34:43.4	89.510	0.750	-1.500	-1.420
2020/01/31 07:34:43.5	89.520	0.750	-1.440	-1.430
2020/01/31 07:34:43.6	89.540	0.750	-1.380	-1.430
2020/01/31 07:34:43.7	89.550	0.750	-1.310	-1.420
2020/01/31 07:34:43.8	89.550	0.740	-1.230	-1.410
2020/01/31 07:34:43.9	89.560	0.720	-1.140	-1.380
2020/01/31 07:34:44.0	89.560	0.710	-1.040	-1.350
2020/01/31 07:34:44.1	89.560	0.690	-0.930	-1.310
2020/01/31 07:34:44.2	89.550	0.660	-0.820	-1.260
2020/01/31 07:34:44.3	89.540	0.630	-0.710	-1.200
2020/01/31 07:34:44.4	89.530	0.600	-0.590	-1.140
2020/01/31 07:34:44.5	89.520	0.570	-0.460	-1.070
2020/01/31 07:34:44.6	89.500	0.530	-0.330	-1.000
2020/01/31 07:34:44.7	89.480	0.490	-0.200	-0.910
2020/01/31 07:34:44.8	89.450	0.440	-0.070	-0.830
2020/01/31 07:34:44.9	89.430	0.400	0.060	-0.730
2020/01/31 07:34:45.0	89.400	0.350	0.180	-0.640
2020/01/31 07:34:45.1	89.360	0.300	0.310	-0.530
2020/01/31 07:34:45.2	89.330	0.250	0.440	-0.430
2020/01/31 07:34:45.3	89.290	0.190	0.560	-0.320
2020/01/31 07:34:45.4	89.250	0.140	0.680	-0.200
2020/01/31 07:34:45.5	89.210	0.090	0.790	-0.080
2020/01/31 07:34:45.6	89.170	0.030	0.890	0.040
2020/01/31 07:34:45.7	89.130	-0.020	0.980	0.160
2020/01/31 07:34:45.8	89.080	-0.070	1.070	0.280
2020/01/31 07:34:45.9	89.040	-0.120	1.150	0.400
2020/01/31 07:34:46.0	88.990	-0.170	1.220	0.530
2020/01/31 07:34:46.1	88.940	-0.220	1.280	0.650
2020/01/31 07:34:46.2	88.900	-0.260	1.320	0.780
2020/01/31 07:34:46.3	88.850	-0.300	1.360	0.900
2020/01/31 07:34:46.4	88.810	-0.340	1.380	1.020
2020/01/31 07:34:46.5	88.760	-0.370	1.400	1.140
2020/01/31 07:34:46.6	88.720	-0.400	1.400	1.260
2020/01/31 07:34:46.7	88.680	-0.430	1.390	1.370
2020/01/31 07:34:46.8	88.650	-0.450	1.370	1.480
2020/01/31 07:34:46.9	88.610	-0.470	1.330	1.590
2020/01/31 07:34:47.0	88.580	-0.480	1.290	1.690
2020/01/31 07:34:47.1	88.550	-0.490	1.230	1.790
2020/01/31 07:34:47.2	88.530	-0.500	1.160	1.880
2020/01/31 07:34:47.3	88.510	-0.500	1.080	1.960
2020/01/31 07:34:47.4	88.490	-0.490	1.000	2.050
2020/01/31 07:34:47.5	88.480	-0.480	0.900	2.120
2020/01/31 07:34:47.6	88.470	-0.470	0.800	2.190
2020/01/31 07:34:47.7	88.460	-0.450	0.690	2.260
2020/01/31 07:34:47.8	88.460	-0.430	0.570	2.320
2020/01/31 07:34:47.9	88.460	-0.410	0.450	2.370
2020/01/31 07:34:48.0	88.470	-0.380	0.320	2.410
2020/01/31 07:34:48.1	88.480	-0.350	0.190	2.450
2020/01/31 07:34:48.2	88.500	-0.320	0.060	2.480
2020/01/31 07:34:48.3	88.520	-0.280	-0.070	2.510
2020/01/31 07:34:48.4	88.550	-0.240	-0.200	2.530
2020/01/31 07:34:48.5	88.580	-0.200	-0.340	2.540
2020/01/31 07:34:48.6	88.610	-0.170	-0.460	2.550
2020/01/31 07:34:48.7	88.640	-0.130	-0.590	2.550
2020/01/31 07:34:48.8	88.680	-0.090	-0.710	2.550
2020/01/31 07:34:48.9	88.720	-0.050	-0.820	2.540
2020/01/31 07:34:49.0	88.770	-0.010	-0.930	2.530
2020/01/31 07:34:49.1	88.820	0.030	-1.020	2.510
2020/01/31 07:34:49.2	88.870	0.060	-1.120	2.490
2020/01/31 07:34:49.3	88.910	0.100	-1.200	2.470
2020/01/31 07:34:49.4	88.970	0.130	-1.280	2.440
2020/01/31 07:34:49.5	89.020	0.160	-1.340	2.410
2020/01/31 07:34:49.6	89.070	0.180	-1.390	2.380
2020/01/31 07:34:49.7	89.130	0.200	-1.430	2.340
2020/01/31 07:34:49.8	89.180	0.220	-1.460	2.310
2020/01/31 07:34:49.9	89.230	0.240	-1.470	2.280
2020/01/31 07:34:50.0	89.280	0.250	-1.480	2.240
2020/01/31 07:34:50.1	89.330	0.260	-1.470	2.210
2020/01/31 07:34:50.2	89.380	0.260	-1.450	2.180
2020/01/31 07:34:50.3	89.420	0.270	-1.420	2.150
2020/01/31 07:34:50.4	89.460	0.260	-1.380	2.130
2020/01/31 07:34:50.5	89.500	0.260	-1.330	2.110
2020/01/31 07:34:50.6	89.530	0.240	-1.270	2.090
2020/01/31 07:34:50.7	89.560	0.230	-1.210	2.070
2020/01/31 07:34:50.8	89.580	0.210	-1.130	2.060
2020/01/31 07:34:50.9	89.600	0.190	-1.050	2.050
2020/01/31 07:34:51.0	89.610	0.170	-0.960	2.040
2020/01/31 07:34:51.1	89.620	0.140	-0.860	2.040
2020/01/31 07:34:51.2	89.620	0.110	-0.760	2.040
2020/01/31 07:34:51.3	89.620	0.080	-0.650	2.050
2020/01/31 07:34:51.4	89.620	0.040	-0.550	2.050
2020/01/31 07:34:51.5	89.610	0.010	-0.440	2.060
2020/01/31 07:34:51.6	89.600	-0.030	-0.330	2.070
2020/01/31 07:34:51.7	89.580	-0.070	-0.210	2.080
2020/01/31 07:34:51.8	89.560	-0.110	-0.100	2.090
2020/01/31 07:34:51.9	89.540	-0.150	0.000	2.110
2020/01/31 07:34:52.0	89.520	-0.190	0.110	2.120
2020/01/31 07:34:52.1	89.490	-0.230	0.210	2.130
2020/01/31 07:34:52.2	89.460	-0.270	0.310	2.140
2020/01/31 07:34:52.3	89.430	-0.310	0.410	2.150
2020/01/31 07:34:52.4	89.400	-0.340	0.500	2.160
2020/01/31 07:34:52.5	89.370	-0.380	0.580	2.160
2020/01/31 07:34:52.6	89.330	-0.410	0.650	2.160
2020/01/31 07:34:52.7	89.300	-0.450	0.720	2.160
2020/01/31 07:34:52.8	89.270	-0.480	0.780	2.150
2020/01/31 07:34:52.9	89.230	-0.510	0.830	2.140
2020/01/31 07:34:53.0	89.200	-0.530	0.880	2.120
2020/01/31 07:34:53.1	89.170	-0.550	0.910	2.100
2020/01/31 07:34:53.2	89.130	-0.570	0.940	2.070
2020/01/31 07:34:53.3	89.100	-0.590	0.960	2.040
2020/01/31 07:34:53.4	89.070	-0.600	0.970	2.000
2020/01/31 07:34:53.5	89.040	-0.610	0.970	1.950
2020/01/31 07:34:53.6	89.010	-0.620	0.960	1.900
2020/01/31 07:34:53.7	88.980	-0.630	0.950	1.840
2020/01/31 07:34:53.8	88.960	-0.630	0.920	1.780
2020/01/31 07:34:53.9	88.940	-0.620	0.890	1.710
2020/01/31 07:34:54.0	88.910	-0.620	0.850	1.640
2020/01/31 07:34:54.1	88.890	-0.610	0.800	1.550
2020/01/31 07:34:54.2	88.880	-0.590	0.750	1.470
2020/01/31 07:34:54.3	88.860	-0.570	0.690	1.380
2020/01/31 07:34:54.4	88.850	-0.550	0.620	1.280
2020/01/31 07:34:54.5	88.830	-0.530	0.550	1.180
2020/01/31 07:34:54.6	88.820	-0.500	0.480	1.080
2020/01/31 07:34:54.7	88.810	-0.470	0.390	0.980
2020/01/31 07:34:54.8	88.810	-0.430	0.310	0.870
2020/01/31 07:34:54.9	88.800	-0.400	0.220	0.770
2020/01/31 07:34:55.0	88.790	-0.360	0.130	0.660
2020/01/31 07:34:55.1	88.790	-0.310	0.040	0.560
2020/01/31 07:34:55.2	88.790	-0.270	-0.050	0.450
2020/01/31 07:34:55.3	88.790	-0.220	-0.150	0.350
2020/01/31 07:34:55.4	88.790	-0.170	-0.250	0.240
2020/01/31 07:34:55.5	88.790	-0.120	-0.340	0.140
2020/01/31 07:34:55.6	88.800	-0.060	-0.430	0.050
2020/01/31 07:34:55.7	88.800	-0.010	-0.520	-0.050
2020/01/31 07:34:55.8	88.810	0.050	-0.610	-0.150
2020/01/31 07:34:55.9	88.810	0.100	-0.700	-0.240
2020/01/31 07:34:56.0	88.820	0.160	-0.780	-0.330
2020/01/31 07:34:56.1	88.830	0.210	-0.860	-0.420
2020/01/31 07:34:56.2	88.840	0.270	-0.940	-0.500
2020/01/31 07:34:56.3	88.850	0.320	-1.010	-0.580
2020/01/31 07:34:56.4	88.860	0.370	-1.070	-0.660
2020/01/31 07:34:56.5	88.880	0.430	-1.130	-0.740
2020/01/31 07:34:56.6	88.890	0.480	-1.190	-0.820
2020/01/31 07:34:56.7	88.910	0.520	-1.240	-0.890
2020/01/31 07:34:56.8	88.920	0.570	-1.280	-0.950
2020/01/31 07:34:56.9	88.940	0.610	-1.310	-1.020
2020/01/31 07:34:57.0	88.950	0.650	-1.340	-1.080
2020/01/31 07:34:57.1	88.970	0.690	-1.360	-1.140
2020/01/31 07:34:57.2	88.980	0.720	-1.380	-1.190
2020/01/31 07:34:57.3	89.000	0.750	-1.390	-1.240
2020/01/31 07:34:57.4	89.010	0.770	-1.380	-1.280
2020/01/31 07:34:57.5	89.020	0.790	-1.370	-1.320
2020/01/31 07:34:57.6	89.030	0.810	-1.350	-1.350
2020/01/31 07:34:57.7	89.040	0.820	-1.330	-1.390
2020/01/31 07:34:57.8	89.050	0.830	-1.290	-1.410
2020/01/31 07:34:57.9	89.060	0.830	-1.250	-1.430
2020/01/31 07:34:58.0	89.070	0.830	-1.190	-1.450
2020/01/31 07:34:58.1	89.070	0.820	-1.130	-1.450
2020/01/31 07:34:58.2	89.070	0.810	-1.070	-1.460
2020/01/31 07:34:58.3	89.080	0.790	-0.990	-1.460
2020/01/31 07:34:58.4	89.070	0.770	-0.910	-1.450
2020/01/31 07:34:58.5	89.070	0.750	-0.820	-1.430
2020/01/31 07:34:58.6	89.070	0.720	-0.730	-1.410
2020/01/31 07:34:58.7	89.060	0.690	-0.630	-1.390
2020/01/31 07:34:58.8	89.060	0.650	-0.530	-1.350
2020/01/31 07:34:58.9	89.050	0.610	-0.420	-1.320
2020/01/31 07:34:59.0	89.040	0.570	-0.310	-1.270
2020/01/31 07:34:59.1	89.030	0.530	-0.200	-1.220
2020/01/31 07:34:59.2	89.020	0.480	-0.090	-1.160
2020/01/31 07:34:59.3	89.010	0.430	0.020	-1.100
2020/01/31 07:34:59.4	89.000	0.380	0.130	-1.030
2020/01/31 07:34:59.5	88.990	0.330	0.230	-0.950
2020/01/31 07:34:59.6	88.970	0.280	0.340	-0.870
2020/01/31 07:34:59.7	88.960	0.230	0.440	-0.790
2020/01/31 07:34:59.8	88.940	0.180	0.540	-0.700
2020/01/31 07:34:59.9	88.930	0.130	0.630	-0.610
2020/01/31 07:35:00.0	88.920	0.080	0.710	-0.510
2020/01/31 07:35:00.1	88.910	0.040	0.790	-0.410
2020/01/31 07:35:00.2	88.900	-0.010	0.860	-0.310
2020/01/31 07:35:00.3	88.890	-0.050	0.930	-0.210
2020/01/31 07:35:00.4	88.880	-0.090	0.980	-0.100
2020/01/31 07:35:00.5	88.880	-0.130	1.030	0.010
2020/01/31 07:35:00.6	88.880	-0.160	1.070	0.110
2020/01/31 07:35:00.7	88.880	-0.200	1.100	0.220
2020/01/31 07:35:00.8	88.880	-0.220	1.120	0.330
2020/01/31 07:35:00.9	88.890	-0.250	1.130	0.440
2020/01/31 07:35:01.0	88.890	-0.270	1.130	0.540
2020/01/31 07:35:01.1	88.900	-0.290	1.120	0.650
2020/01/31 07:35:01.2	88.910	-0.300	1.100	0.760
2020/01/31 07:35:01.3	88.930	-0.310	1.070	0.860
2020/01/31 07:35:01.4	88.940	-0.320	1.030	0.970
2020/01/31 07:35:01.5	88.960	-0.320	0.990	1.070
2020/01/31 07:35:01.6	88.970	-0.320	0.930	1.170
2020/01/31 07:35:01.7	88.990	-0.320	0.880	1.270
2020/01/31 07:35:01.8	89.010	-0.310	0.810	1.370
2020/01/31 07:35:01.9	89.030	-0.300	0.740	1.470
2020/01/31 07:35:02.0	89.050	-0.280	0.660	1.560
2020/01/31 07:35:02.1	89.070	-0.270	0.580	1.660
2020/01/31 07:35:02.2	89.090	-0.250	0.500	1.750
2020/01/31 07:35:02.3	89.110	-0.230	0.400	1.840
2020/01/31 07:35:02.4	89.130	-0.210	0.310	1.920
2020/01/31 07:35:02.5	89.150	-0.190	0.220	2.010
2020/01/31 07:35:02.6	89.170	-0.160	0.130	2.090
2020/01/31 07:35:02.7	89.190	-0.140	0.040	2.170
2020/01/31 07:35:02.8	89.200	-0.110	-0.050	2.250
2020/01/31 07:35:02.9	89.220	-0.090	-0.140	2.320
2020/01/31 07:35:03.0	89.230	-0.060	-0.220	2.390
2020/01/31 07:35:03.1	89.250	-0.040	-0.310	2.460
2020/01/31 07:35:03.2	89.260	-0.020	-0.390	2.530
2020/01/31 07:35:03.3	89.260	0.010	-0.460	2.590
2020/01/31 07:35:03.4	89.270	0.030	-0.530	2.650
2020/01/31 07:35:03.5	89.280	0.050	-0.600	2.710
2020/01/31 07:35:03.6	89.290	0.070	-0.660	2.770
2020/01/31 07:35:03.7	89.290	0.080	-0.720	2.820
2020/01/31 07:35:03.8	89.290	0.100	-0.770	2.870
2020/01/31 07:35:03.9	89.290	0.110	-0.820	2.910
2020/01/31 07:35:04.0	89.290	0.120	-0.860	2.960
2020/01/31 07:35:04.1	89.290	0.130	-0.890	3.000
2020/01/31 07:35:04.2	89.290	0.130	-0.920	3.030
2020/01/31 07:35:04.3	89.280	0.140	-0.950	3.060
2020/01/31 07:35:04.4	89.270	0.140	-0.960	3.090
2020/01/31 07:35:04.5	89.270	0.140	-0.980	3.120
2020/01/31 07:35:04.6	89.260	0.140	-0.980	3.140
2020/01/31 07:35:04.7	89.260	0.140	-0.980	3.160
2020/01/31 07:35:04.8	89.250	0.140	-0.980	3.170
2020/01/31 07:35:04.9	89.250	0.130	-0.970	3.180
2020/01/31 07:35:05.0	89.250	0.120	-0.960	3.180
2020/01/31 07:35:05.1	89.250	0.120	-0.940	3.180
2020/01/31 07:35:05.2	89.240	0.110	-0.920	3.180
2020/01/31 07:35:05.3	89.240	0.100	-0.890	3.180
2020/01/31 07:35:05.4	89.240	0.090	-0.860	3.170
2020/01/31 07:35:05.5	89.240	0.080	-0.830	3.150
2020/01/31 07:35:05.6	89.240	0.070	-0.790	3.130
2020/01/31 07:35:05.7	89.240	0.050	-0.750	3.110
2020/01/31 07:35:05.8	89.240	0.040	-0.710	3.080
2020/01/31 07:35:05.9	89.240	0.030	-0.670	3.060
2020/01/31 07:35:06.0	89.240	0.020	-0.620	3.020
2020/01/31 07:35:06.1	89.240	0.010	-0.570	2.990
2020/01/31 07:35:06.2	89.240	-0.000	-0.520	2.950
2020/01/31 07:35:06.3	89.240	-0.010	-0.470	2.910
2020/01/31 07:35:06.4	89.240	-0.020	-0.420	2.860
2020/01/31 07:35:06.5	89.240	-0.030	-0.370	2.820
2020/01/31 07:35:06.6	89.240	-0.040	-0.320	2.770
2020/01/31 07:35:06.7	89.240	-0.050	-0.260	2.720
2020/01/31 07:35:06.8	89.230	-0.060	-0.210	2.660
2020/01/31 07:35:06.9	89.230	-0.070	-0.160	2.610
2020/01/31 07:35:07.0	89.230	-0.070	-0.110	2.550
2020/01/31 07:35:07.1	89.220	-0.080	-0.060	2.490
2020/01/31 07:35:07.2	89.220	-0.090	-0.010	2.420
2020/01/31 07:35:07.3	89.210	-0.090	0.040	2.350
2020/01/31 07:35:07.4	89.210	-0.100	0.080	2.280
2020/01/31 07:35:07.5	89.200	-0.100	0.130	2.210
2020/01/31 07:35:07.6	89.190	-0.110	0.170	2.130
2020/01/31 07:35:07.7	89.180	-0.110	0.200	2.050
2020/01/31 07:35:07.8	89.170	-0.120	0.240	1.970
2020/01/31 07:35:07.9	89.160	-0.120	0.270	1.890
2020/01/31 07:35:08.0	89.150	-0.130	0.290	1.800
2020/01/31 07:35:08.1	89.140	-0.130	0.310	1.710
2020/01/31 07:35:08.2	89.130	-0.130	0.330	1.610
2020/01/31 07:35:08.3	89.120	-0.140	0.350	1.520
2020/01/31 07:35:08.4	89.110	-0.140	0.360	1.420
2020/01/31 07:35:08.5	89.100	-0.140	0.370	1.320
2020/01/31 07:35:08.6	89.090	-0.150	0.370	1.210
2020/01/31 07:35:08.7	89.070	-0.150	0.370	1.110
2020/01/31 07:35:08.8	89.060	-0.150	0.370	1.000
2020/01/31 07:35:08.9	89.050	-0.150	0.360	0.890
2020/01/31 07:35:09.0	89.040	-0.160	0.350	0.780
2020/01/31 07:35:09.1	89.030	-0.160	0.340	0.670
2020/01/31 07:35:09.2	89.020	-0.160	0.320	0.550
2020/01/31 07:35:09.3	89.010	-0.170	0.300	0.430
2020/01/31 07:35:09.4	89.000	-0.170	0.280	0.320
2020/01/31 07:35:09.5	88.990	-0.170	0.260	0.200
2020/01/31 07:35:09.6	88.980	-0.170	0.230	0.090
2020/01/31 07:35:09.7	88.980	-0.170	0.210	-0.030
2020/01/31 07:35:09.8	88.970	-0.180	0.180	-0.140
2020/01/31 07:35:09.9	88.970	-0.180	0.150	-0.260
2020/01/31 07:35:10.0	88.970	-0.180	0.120	-0.370
2020/01/31 07:35:10.1	88.970	-0.180	0.090	-0.480
2020/01/31 07:35:10.2	88.970	-0.180	0.060	-0.590
2020/01/31 07:35:10.3	88.980	-0.180	0.020	-0.700
2020/01/31 07:35:10.4	88.990	-0.180	-0.010	-0.810
2020/01/31 07:35:10.5	89.000	-0.180	-0.040	-0.910
2020/01/31 07:35:10.6	89.010	-0.180	-0.070	-1.010
2020/01/31 07:35:10.7	89.020	-0.180	-0.100	-1.100
2020/01/31 07:35:10.8	89.030	-0.180	-0.130	-1.200
2020/01/31 07:35:10.9	89.050	-0.180	-0.160	-1.280
2020/01/31 07:35:11.0	89.070	-0.180	-0.180	-1.360
2020/01/31 07:35:11.1	89.080	-0.180	-0.210	-1.440
2020/01/31 07:35:11.2	89.100	-0.170	-0.230	-1.510
2020/01/31 07:35:11.3	89.130	-0.170	-0.260	-1.580
2020/01/31 07:35:11.4	89.150	-0.170	-0.280	-1.640
2020/01/31 07:35:11.5	89.180	-0.160	-0.290	-1.690
2020/01/31 07:35:11.6	89.200	-0.160	-0.310	-1.740
2020/01/31 07:35:11.7	89.230	-0.150	-0.330	-1.780
2020/01/31 07:35:11.8	89.250	-0.140	-0.340	-1.820
2020/01/31 07:35:11.9	89.280	-0.130	-0.350	-1.840
2020/01/31 07:35:12.0	89.300	-0.130	-0.360	-1.860
2020/01/31 07:35:12.1	89.320	-0.120	-0.370	-1.880
2020/01/31 07:35:12.2	89.350	-0.110	-0.370	-1.880
2020/01/31 07:35:12.3	89.370	-0.100	-0.380	-1.880
2020/01/31 07:35:12.4	89.390	-0.090	-0.380	-1.870
2020/01/31 07:35:12.5	89.400	-0.080	-0.380	-1.860
2020/01/31 07:35:12.6	89.420	-0.070	-0.370	-1.830
2020/01/31 07:35:12.7	89.430	-0.060	-0.370	-1.800
2020/01/31 07:35:12.8	89.440	-0.050	-0.360	-1.770
2020/01/31 07:35:12.9	89.450	-0.030	-0.360	-1.730
2020/01/31 07:35:13.0	89.460	-0.020	-0.350	-1.680
2020/01/31 07:35:13.1	89.460	-0.010	-0.340	-1.620
2020/01/31 07:35:13.2	89.460	-0.000	-0.330	-1.560
2020/01/31 07:35:13.3	89.460	0.010	-0.320	-1.490
2020/01/31 07:35:13.4	89.450	0.020	-0.310	-1.410
2020/01/31 07:35:13.5	89.450	0.030	-0.300	-1.330
2020/01/31 07:35:13.6	89.440	0.040	-0.290	-1.250
2020/01/31 07:35:13.7	89.420	0.050	-0.270	-1.160
2020/01/31 07:35:13.8	89.410	0.060	-0.260	-1.070
2020/01/31 07:35:13.9	89.400	0.070	-0.250	-0.980
2020/01/31 07:35:14.0	89.380	0.080	-0.240	-0.880
2020/01/31 07:35:14.1	89.360	0.090	-0.230	-0.780
2020/01/31 07:35:14.2	89.340	0.100	-0.220	-0.670
2020/01/31 07:35:14.3	89.320	0.110	-0.210	-0.560
2020/01/31 07:35:14.4	89.300	0.120	-0.200	-0.460
2020/01/31 07:35:14.5	89.280	0.130	-0.200	-0.340
2020/01/31 07:35:14.6	89.250	0.140	-0.200	-0.230
2020/01/31 07:35:14.7	89.230	0.150	-0.200	-0.120
2020/01/31 07:35:14.8	89.210	0.160	-0.200	-0.000
2020/01/31 07:35:14.9	89.190	0.160	-0.200	0.110
2020/01/31 07:35:15.0	89.170	0.170	-0.200	0.230
2020/01/31 07:35:15.1	89.140	0.180	-0.210	0.340
2020/01/31 07:35:15.2	89.120	0.190	-0.220	0.460
2020/01/31 07:35:15.3	89.100	0.200	-0.230	0.580
2020/01/31 07:35:15.4	89.080	0.210	-0.240	0.690
2020/01/31 07:35:15.5	89.070	0.220	-0.250	0.800
2020/01/31 07:35:15.6	89.050	0.230	-0.270	0.910
2020/01/31 07:35:15.7	89.040	0.240	-0.280	1.020
2020/01/31 07:35:15.8	89.020	0.250	-0.300	1.120
2020/01/31 07:35:15.9	89.020	0.270	-0.310	1.220
2020/01/31 07:35:16.0	89.010	0.280	-0.330	1.320
2020/01/31 07:35:16.1	89.000	0.290	-0.350	1.420
2020/01/31 07:35:16.2	89.000	0.300	-0.360	1.510
2020/01/31 07:35:16.3	89.000	0.310	-0.370	1.600
2020/01/31 07:35:16.4	89.000	0.320	-0.390	1.680
2020/01/31 07:35:16.5	89.000	0.340	-0.400	1.770
2020/01/31 07:35:16.6	89.000	0.350	-0.410	1.850
2020/01/31 07:35:16.7	89.000	0.360	-0.410	1.920
2020/01/31 07:35:16.8	89.010	0.370	-0.420	1.990
2020/01/31 07:35:16.9	89.020	0.380	-0.420	2.060
2020/01/31 07:35:17.0	89.020	0.380	-0.420	2.120
2020/01/31 07:35:17.1	89.030	0.390	-0.410	2.190
2020/01/31 07:35:17.2	89.040	0.400	-0.400	2.240
2020/01/31 07:35:17.3	89.050	0.400	-0.400	2.300
2020/01/31 07:35:17.4	89.060	0.410	-0.380	2.350
2020/01/31 07:35:17.5	89.070	0.410	-0.360	2.390
2020/01/31 07:35:17.6	89.080	0.410	-0.350	2.440
2020/01/31 07:35:17.7	89.090	0.410	-0.320	2.470
2020/01/31 07:35:17.8	89.100	0.410	-0.300	2.510
2020/01/31 07:35:17.9	89.110	0.400	-0.270	2.540
2020/01/31 07:35:18.0	89.120	0.400	-0.250	2.570
2020/01/31 07:35:18.1	89.130	0.390	-0.220	2.590
2020/01/31 07:35:18.2	89.130	0.380	-0.190	2.610
2020/01/31 07:35:18.3	89.130	0.370	-0.150	2.630
2020/01/31 07:35:18.4	89.140	0.350	-0.120	2.640
2020/01/31 07:35:18.5	89.140	0.340	-0.090	2.660
2020/01/31 07:35:18.6	89.150	0.320	-0.060	2.660
2020/01/31 07:35:18.7	89.150	0.300	-0.020	2.670
2020/01/31 07:35:18.8	89.150	0.280	0.010	2.670
2020/01/31 07:35:18.9	89.150	0.260	0.040	2.660
2020/01/31 07:35:19.0	89.150	0.230	0.070	2.660
2020/01/31 07:35:19.1	89.150	0.210	0.100	2.650
2020/01/31 07:35:19.2	89.150	0.190	0.130	2.640
2020/01/31 07:35:19.3	89.140	0.160	0.160	2.620
2020/01/31 07:35:19.4	89.140	0.130	0.180	2.600
2020/01/31 07:35:19.5	89.140	0.110	0.200	2.580
2020/01/31 07:35:19.6	89.140	0.080	0.220	2.550
2020/01/31 07:35:19.7	89.140	0.050	0.230	2.520
2020/01/31 07:35:19.8	89.140	0.030	0.250	2.490
2020/01/31 07:35:19.9	89.140	0.000	0.250	2.450
2020/01/31 07:35:20.0	89.150	-0.020	0.260	2.410
2020/01/31 07:35:20.1	89.150	-0.040	0.260	2.370
2020/01/31 07:35:20.2	89.160	-0.070	0.260	2.320
2020/01/31 07:35:20.3	89.160	-0.090	0.250	2.270
2020/01/31 07:35:20.4	89.170	-0.100	0.240	2.210
2020/01/31 07:35:20.5	89.180	-0.120	0.230	2.160
2020/01/31 07:35:20.6	89.190	-0.140	0.210	2.090
2020/01/31 07:35:20.7	89.200	-0.150	0.190	2.030
2020/01/31 07:35:20.8	89.220	-0.170	0.160	1.960
2020/01/31 07:35:20.9	89.230	-0.180	0.140	1.900
2020/01/31 07:35:21.0	89.250	-0.190	0.110	1.830
2020/01/31 07:35:21.1	89.260	-0.190	0.080	1.750
2020/01/31 07:35:21.2	89.280	-0.200	0.050	1.680
2020/01/31 07:35:21.3	89.300	-0.200	0.010	1.610
2020/01/31 07:35:21.4	89.310	-0.210	-0.020	1.530
2020/01/31 07:35:21.5	89.330	-0.210	-0.060	1.460
2020/01/31 07:35:21.6	89.350	-0.210	-0.090	1.390
2020/01/31 07:35:21.7	89.360	-0.220	-0.120	1.310
2020/01/31 07:35:21.8	89.380	-0.220	-0.160	1.240
2020/01/31 07:35:21.9	89.390	-0.220	-0.190	1.170
2020/01/31 07:35:22.0	89.400	-0.220	-0.210	1.100
2020/01/31 07:35:22.1	89.410	-0.220	-0.240	1.040
2020/01/31 07:35:22.2	89.420	-0.230	-0.260	0.970
2020/01/31 07:35:22.3	89.430	-0.230	-0.280	0.910
2020/01/31 07:35:22.4	89.440	-0.230	-0.290	0.850
2020/01/31 07:35:22.5	89.440	-0.240	-0.300	0.790
2020/01/31 07:35:22.6	89.440	-0.240	-0.300	0.740
2020/01/31 07:35:22.7	89.440	-0.250	-0.310	0.690
2020/01/31 07:35:22.8	89.440	-0.250	-0.300	0.640
2020/01/31 07:35:22.9	89.440	-0.260	-0.300	0.590
2020/01/31 07:35:23.0	89.430	-0.270	-0.280	0.540
2020/01/31 07:35:23.1	89.430	-0.280	-0.270	0.500
2020/01/31 07:35:23.2	89.420	-0.280	-0.250	0.460
2020/01/31 07:35:23.3	89.410	-0.290	-0.230	0.420
2020/01/31 07:35:23.4	89.390	-0.300	-0.210	0.380
2020/01/31 07:35:23.5	89.380	-0.310	-0.180	0.350
2020/01/31 07:35:23.6	89.370	-0.330	-0.150	0.310
2020/01/31 07:35:23.7	89.350	-0.340	-0.120	0.280
2020/01/31 07:35:23.8	89.330	-0.350	-0.090	0.240
2020/01/31 07:35:23.9	89.320	-0.360	-0.060	0.210
2020/01/31 07:35:24.0	89.300	-0.360	-0.020	0.180
2020/01/31 07:35:24.1	89.280	-0.370	0.010	0.150
2020/01/31 07:35:24.2	89.270	-0.380	0.040	0.120
2020/01/31 07:35:24.3	89.260	-0.380	0.070	0.090
2020/01/31 07:35:24.4	89.240	-0.390	0.100	0.050
2020/01/31 07:35:24.5	89.230	-0.390	0.120	0.020
2020/01/31 07:35:24.6	89.210	-0.390	0.140	-0.010
2020/01/31 07:35:24.7	89.200	-0.390	0.160	-0.040
2020/01/31 07:35:24.8	89.180	-0.380	0.170	-0.070
2020/01/31 07:35:24.9	89.170	-0.370	0.180	-0.110
2020/01/31 07:35:25.0	89.150	-0.370	0.190	-0.140
2020/01/31 07:35:25.1	89.140	-0.350	0.190	-0.170
2020/01/31 07:35:25.2	89.130	-0.340	0.180	-0.200
2020/01/31 07:35:25.3	89.120	-0.320	0.170	-0.230
2020/01/31 07:35:25.4	89.110	-0.300	0.150	-0.260
2020/01/31 07:35:25.5	89.100	-0.280	0.130	-0.280
2020/01/31 07:35:25.6	89.090	-0.250	0.100	-0.310
2020/01/31 07:35:25.7	89.080	-0.220	0.070	-0.330
2020/01/31 07:35:25.8	89.070	-0.200	0.040	-0.360
2020/01/31 07:35:25.9	89.060	-0.160	-0.000	-0.380
2020/01/31 07:35:26.0	89.050	-0.130	-0.050	-0.390
2020/01/31 07:35:26.1	89.040	-0.100	-0.090	-0.410
2020/01/31 07:35:26.2	89.040	-0.060	-0.150	-0.420
2020/01/31 07:35:26.3	89.030	-0.030	-0.200	-0.430
2020/01/31 07:35:26.4	89.020	0.010	-0.250	-0.440
2020/01/31 07:35:26.5	89.020	0.040	-0.310	-0.450
2020/01/31 07:35:26.6	89.010	0.080	-0.370	-0.450
2020/01/31 07:35:26.7	89.010	0.110	-0.430	-0.450
2020/01/31 07:35:26.8	89.010	0.150	-0.490	-0.450
2020/01/31 07:35:26.9	89.010	0.180	-0.550	-0.440
2020/01/31 07:35:27.0	89.010	0.210	-0.600	-0.440
2020/01/31 07:35:27.1	89.010	0.240	-0.660	-0.430
2020/01/31 07:35:27.2	89.010	0.270	-0.710	-0.420
2020/01/31 07:35:27.3	89.010	0.290	-0.760	-0.410
2020/01/31 07:35:27.4	89.010	0.310	-0.800	-0.390
2020/01/31 07:35:27.5	89.020	0.330	-0.840	-0.380
2020/01/31 07:35:27.6	89.020	0.340	-0.870	-0.360
2020/01/31 07:35:27.7	89.020	0.350	-0.900	-0.340
2020/01/31 07:35:27.8	89.030	0.360	-0.920	-0.320
2020/01/31 07:35:27.9	89.040	0.360	-0.930	-0.300
2020/01/31 07:35:28.0	89.040	0.360	-0.940	-0.280
2020/01/31 07:35:28.1	89.050	0.350	-0.940	-0.260
2020/01/31 07:35:28.2	89.060	0.340	-0.930	-0.230
2020/01/31 07:35:28.3	89.070	0.330	-0.910	-0.210
2020/01/31 07:35:28.4	89.070	0.320	-0.890	-0.180
2020/01/31 07:35:28.5	89.080	0.300	-0.850	-0.150
2020/01/31 07:35:28.6	89.090	0.270	-0.810	-0.110
2020/01/31 07:35:28.7	89.090	0.250	-0.770	-0.080
2020/01/31 07:35:28.8	89.100	0.220	-0.710	-0.040
2020/01/31 07:35:28.9	89.100	0.180	-0.650	-0.000
2020/01/31 07:35:29.0	89.110	0.150	-0.590	0.040
2020/01/31 07:35:29.1	89.110	0.120	-0.520	0.080
2020/01/31 07:35:29.2	89.110	0.080	-0.440	0.130
2020/01/31 07:35:29.3	89.110	0.040	-0.360	0.180
2020/01/31 07:35:29.4	89.110	0.000	-0.280	0.230
2020/01/31 07:35:29.5	89.110	-0.040	-0.190	0.290
2020/01/31 07:35:29.6	89.100	-0.080	-0.110	0.350
2020/01/31 07:35:29.7	89.100	-0.110	-0.020	0.410
2020/01/31 07:35:29.8	89.090	-0.150	0.070	0.470
2020/01/31 07:35:29.9	89.080	-0.190	0.150	0.540
2020/01/31 07:35:30.0	89.080	-0.220	0.240	0.600
2020/01/31 07:35:30.1	89.070	-0.250	0.320	0.670
2020/01/31 07:35:30.2	89.060	-0.280	0.400	0.730
2020/01/31 07:35:30.3	89.050	-0.310	0.470	0.810
2020/01/31 07:35:30.4	89.040	-0.340	0.540	0.870
2020/01/31 07:35:30.5	89.020	-0.360	0.600	0.940
2020/01/31 07:35:30.6	89.010	-0.370	0.660	1.010
2020/01/31 07:35:30.7	89.000	-0.390	0.700	1.070
2020/01/31 07:35:30.8	88.980	-0.400	0.750	1.130
2020/01/31 07:35:30.9	88.970	-0.400	0.780	1.200
2020/01/31 07:35:31.0	88.960	-0.410	0.800	1.250
2020/01/31 07:35:31.1	88.940	-0.400	0.820	1.310
2020/01/31 07:35:31.2	88.930	-0.400	0.820	1.360
2020/01/31 07:35:31.3	88.910	-0.390	0.820	1.420
2020/01/31 07:35:31.4	88.900	-0.370	0.800	1.460
2020/01/31 07:35:31.5	88.890	-0.350	0.780	1.510
2020/01/31 07:35:31.6	88.880	-0.330	0.750	1.550
2020/01/31 07:35:31.7	88.870	-0.310	0.710	1.590
2020/01/31 07:35:31.8	88.860	-0.280	0.660	1.630
2020/01/31 07:35:31.9	88.850	-0.240	0.600	1.660
2020/01/31 07:35:32.0	88.840	-0.210	0.540	1.690
2020/01/31 07:35:32.1	88.830	-0.170	0.470	1.710
2020/01/31 07:35:32.2	88.830	-0.130	0.390	1.730
2020/01/31 07:35:32.3	88.830	-0.080	0.300	1.750
2020/01/31 07:35:32.4	88.830	-0.040	0.210	1.770
2020/01/31 07:35:32.5	88.830	0.010	0.120	1.780
2020/01/31 07:35:32.6	88.830	0.060	0.030	1.790
2020/01/31 07:35:32.7	88.840	0.100	-0.070	1.800
2020/01/31 07:35:32.8	88.840	0.150	-0.170	1.800
2020/01/31 07:35:32.9	88.850	0.200	-0.280	1.800
2020/01/31 07:35:33.0	88.860	0.250	-0.380	1.800
2020/01/31 07:35:33.1	88.870	0.300	-0.480	1.800
2020/01/31 07:35:33.2	88.880	0.340	-0.570	1.800
2020/01/31 07:35:33.3	88.890	0.390	-0.670	1.790
2020/01/31 07:35:33.4	88.900	0.430	-0.760	1.780
2020/01/31 07:35:33.5	88.920	0.470	-0.850	1.770
2020/01/31 07:35:33.6	88.930	0.500	-0.930	1.750
2020/01/31 07:35:33.7	88.950	0.540	-1.000	1.740
2020/01/31 07:35:33.8	88.960	0.570	-1.070	1.730
2020/01/31 07:35:33.9	88.980	0.600	-1.120	1.710
2020/01/31 07:35:34.0	88.990	0.620	-1.170	1.690
2020/01/31 07:35:34.1	89.010	0.640	-1.210	1.670
2020/01/31 07:35:34.2	89.020	0.650	-1.240	1.650
2020/01/31 07:35:34.3	89.040	0.660	-1.260	1.620
2020/01/31 07:35:34.4	89.050	0.670	-1.270	1.590
2020/01/31 07:35:34.5	89.060	0.670	-1.260	1.570
2020/01/31 07:35:34.6	89.080	0.670	-1.250	1.540
2020/01/31 07:35:34.7	89.090	0.660	-1.220	1.510
2020/01/31 07:35:34.8	89.100	0.650	-1.190	1.470
2020/01/31 07:35:34.9	89.110	0.640	-1.150	1.440
2020/01/31 07:35:35.0	89.110	0.620	-1.090	1.410
2020/01/31 07:35:35.1	89.120	0.600	-1.030	1.370
2020/01/31 07:35:35.2	89.120	0.570	-0.960	1.330
2020/01/31 07:35:35.3	89.130	0.540	-0.870	1.300
2020/01/31 07:35:35.4	89.130	0.510	-0.790	1.260
2020/01/31 07:35:35.5	89.130	0.470	-0.690	1.220
2020/01/31 07:35:35.6	89.130	0.430	-0.600	1.180
2020/01/31 07:35:35.7	89.130	0.390	-0.490	1.150
2020/01/31 07:35:35.8	89.130	0.350	-0.380	1.110
2020/01/31 07:35:35.9	89.120	0.310	-0.270	1.070
2020/01/31 07:35:36.0	89.120	0.260	-0.160	1.040
2020/01/31 07:35:36.1	89.110	0.210	-0.050	1.000
2020/01/31 07:35:36.2	89.100	0.170	0.060	0.960
2020/01/31 07:35:36.3	89.100	0.120	0.170	0.930
2020/01/31 07:35:36.4	89.090	0.070	0.280	0.900
2020/01/31 07:35:36.5	89.080	0.030	0.390	0.860
2020/01/31 07:35:36.6	89.070	-0.020	0.490	0.830
2020/01/31 07:35:36.7	89.060	-0.060	0.580	0.800
2020/01/31 07:35:36.8	89.050	-0.110	0.670	0.770
2020/01/31 07:35:36.9	89.040	-0.150	0.760	0.740
2020/01/31 07:35:37.0	89.020	-0.190	0.830	0.710
2020/01/31 07:35:37.1	89.010	-0.230	0.900	0.680
2020/01/31 07:35:37.2	89.000	-0.270	0.960	0.650
2020/01/31 07:35:37.3	88.990	-0.300	1.010	0.630
2020/01/31 07:35:37.4	88.980	-0.330	1.040	0.610
2020/01/31 07:35:37.5	88.970	-0.360	1.070	0.590
2020/01/31 07:35:37.6	88.960	-0.380	1.090	0.570
2020/01/31 07:35:37.7	88.950	-0.400	1.100	0.550
2020/01/31 07:35:37.8	88.940	-0.420	1.090	0.530
2020/01/31 07:35:37.9	88.930	-0.440	1.080	0.520
2020/01/31 07:35:38.0	88.920	-0.450	1.060	0.500
2020/01/31 07:35:38.1	88.910	-0.460	1.020	0.490
2020/01/31 07:35:38.2	88.910	-0.470	0.980	0.480
2020/01/31 07:35:38.3	88.900	-0.470	0.920	0.470
2020/01/31 07:35:38.4	88.890	-0.470	0.860	0.470
2020/01/31 07:35:38.5	88.890	-0.470	0.790	0.460
2020/01/31 07:35:38.6	88.880	-0.460	0.710	0.460
2020/01/31 07:35:38.7	88.880	-0.460	0.630	0.450
2020/01/31 07:35:38.8	88.870	-0.450	0.540	0.450
2020/01/31 07:35:38.9	88.870	-0.440	0.450	0.450
2020/01/31 07:35:39.0	88.860	-0.430	0.350	0.450
2020/01/31 07:35:39.1	88.860	-0.410	0.250	0.450
2020/01/31 07:35:39.2	88.860	-0.400	0.150	0.450
2020/01/31 07:35:39.3	88.860	-0.380	0.040	0.450
2020/01/31 07:35:39.4	88.860	-0.370	-0.060	0.450
2020/01/31 07:35:39.5	88.860	-0.350	-0.170	0.440
2020/01/31 07:35:39.6	88.850	-0.340	-0.270	0.440
2020/01/31 07:35:39.7	88.850	-0.320	-0.360	0.440
2020/01/31 07:35:39.8	88.850	-0.300	-0.460	0.440
2020/01/31 07:35:39.9	88.860	-0.290	-0.540	0.430
2020/01/31 07:35:40.0	88.860	-0.270	-0.630	0.430
2020/01/31 07:35:40.1	88.860	-0.260	-0.710	0.420
2020/01/31 07:35:40.2	88.870	-0.250	-0.780	0.410
2020/01/31 07:35:40.3	88.870	-0.230	-0.840	0.400
2020/01/31 07:35:40.4	88.880	-0.220	-0.900	0.390
2020/01/31 07:35:40.5	88.890	-0.210	-0.950	0.380
2020/01/31 07:35:40.6	88.900	-0.200	-0.990	0.370
2020/01/31 07:35:40.7	88.910	-0.200	-1.020	0.350
2020/01/31 07:35:40.8	88.920	-0.190	-1.050	0.340
2020/01/31 07:35:40.9	88.930	-0.180	-1.070	0.330
2020/01/31 07:35:41.0	88.940	-0.180	-1.080	0.310
2020/01/31 07:35:41.1	88.950	-0.180	-1.080	0.300
2020/01/31 07:35:41.2	88.970	-0.170	-1.070	0.290
2020/01/31 07:35:41.3	88.980	-0.170	-1.060	0.270
2020/01/31 07:35:41.4	88.990	-0.170	-1.040	0.260
2020/01/31 07:35:41.5	89.010	-0.170	-1.020	0.260
2020/01/31 07:35:41.6	89.020	-0.170	-0.990	0.250
2020/01/31 07:35:41.7	89.030	-0.170	-0.950	0.240
2020/01/31 07:35:41.8	89.040	-0.180	-0.910	0.240
2020/01/31 07:35:41.9	89.050	-0.180	-0.860	0.240
2020/01/31 07:35:42.0	89.060	-0.180	-0.810	0.240
2020/01/31 07:35:42.1	89.070	-0.180	-0.760	0.250
2020/01/31 07:35:42.2	89.080	-0.180	-0.710	0.250
2020/01/31 07:35:42.3	89.080	-0.180	-0.650	0.260
2020/01/31 07:35:42.4	89.080	-0.180	-0.590	0.270
2020/01/31 07:35:42.5	89.090	-0.180	-0.540	0.290
2020/01/31 07:35:42.6	89.090	-0.180	-0.480	0.310
2020/01/31 07:35:42.7	89.100	-0.170	-0.430	0.330
2020/01/31 07:35:42.8	89.100	-0.170	-0.370	0.350
2020/01/31 07:35:42.9	89.100	-0.160	-0.320	0.370
2020/01/31 07:35:43.0	89.110	-0.150	-0.270	0.400
2020/01/31 07:35:43.1	89.110	-0.150	-0.230	0.430
2020/01/31 07:35:43.2	89.110	-0.130	-0.180	0.460
2020/01/31 07:35:43.3	89.110	-0.120	-0.140	0.490
2020/01/31 07:35:43.4	89.100	-0.110	-0.110	0.520
2020/01/31 07:35:43.5	89.100	-0.090	-0.080	0.560
2020/01/31 07:35:43.6	89.100	-0.080	-0.050	0.590
2020/01/31 07:35:43.7	89.100	-0.060	-0.020	0.630
2020/01/31 07:35:43.8	89.090	-0.040	-0.000	0.670
2020/01/31 07:35:43.9	89.090	-0.020	0.020	0.710
2020/01/31 07:35:44.0	89.080	0.010	0.030	0.750
2020/01/31 07:35:44.1	89.080	0.030	0.040	0.790
2020/01/31 07:35:44.2	89.070	0.050	0.050	0.830
2020/01/31 07:35:44.3	89.060	0.080	0.060	0.870
2020/01/31 07:35:44.4	89.060	0.100	0.060	0.910
2020/01/31 07:35:44.5	89.050	0.130	0.060	0.950
2020/01/31 07:35:44.6	89.040	0.150	0.070	0.990
2020/01/31 07:35:44.7	89.040	0.170	0.070	1.020
2020/01/31 07:35:44.8	89.030	0.190	0.070	1.060
2020/01/31 07:35:44.9	89.020	0.210	0.070	1.090
2020/01/31 07:35:45.0	89.010	0.230	0.070	1.120
2020/01/31 07:35:45.1	89.010	0.250	0.070	1.150
2020/01/31 07:35:45.2	89.000	0.260	0.070	1.180
2020/01/31 07:35:45.3	88.990	0.280	0.060	1.200
2020/01/31 07:35:45.4	88.990	0.290	0.070	1.230
2020/01/31 07:35:45.5	88.980	0.300	0.070	1.240
2020/01/31 07:35:45.6	88.980	0.300	0.070	1.260
2020/01/31 07:35:45.7	88.980	0.300	0.080	1.280
2020/01/31 07:35:45.8	88.980	0.310	0.090	1.290
2020/01/31 07:35:45.9	88.980	0.300	0.090	1.290
2020/01/31 07:35:46.0	88.990	0.300	0.100	1.300
2020/01/31 07:35:46.1	88.990	0.290	0.110	1.300
2020/01/31 07:35:46.2	88.990	0.280	0.130	1.300
2020/01/31 07:35:46.3	89.000	0.270	0.140	1.300
2020/01/31 07:35:46.4	89.000	0.260	0.150	1.300
2020/01/31 07:35:46.5	89.000	0.240	0.170	1.290
2020/01/31 07:35:46.6	89.010	0.220	0.180	1.280
2020/01/31 07:35:46.7	89.010	0.200	0.200	1.270
2020/01/31 07:35:46.8	89.020	0.180	0.210	1.260
2020/01/31 07:35:46.9	89.020	0.160	0.220	1.240
2020/01/31 07:35:47.0	89.030	0.140	0.230	1.230
2020/01/31 07:35:47.1	89.030	0.120	0.240	1.210
2020/01/31 07:35:47.2	89.040	0.090	0.250	1.200
2020/01/31 07:35:47.3	89.040	0.070	0.250	1.180
2020/01/31 07:35:47.4	89.040	0.050	0.250	1.160
2020/01/31 07:35:47.5	89.050	0.030	0.260	1.140
2020/01/31 07:35:47.6	89.050	0.000	0.250	1.130
2020/01/31 07:35:47.7	89.050	-0.010	0.250	1.110
2020/01/31 07:35:47.8	89.050	-0.030	0.240	1.090
2020/01/31 07:35:47.9	89.050	-0.050	0.230	1.070
2020/01/31 07:35:48.0	89.050	-0.060	0.220	1.050
2020/01/31 07:35:48.1	89.060	-0.070	0.200	1.030
2020/01/31 07:35:48.2	89.060	-0.080	0.180	1.010
2020/01/31 07:35:48.3	89.060	-0.090	0.150	0.990
2020/01/31 07:35:48.4	89.060	-0.090	0.120	0.960
2020/01/31 07:35:48.5	89.070	-0.100	0.090	0.940
2020/01/31 07:35:48.6	89.070	-0.100	0.060	0.910
2020/01/31 07:35:48.7	89.070	-0.090	0.020	0.890
2020/01/31 07:35:48.8	89.070	-0.090	-0.020	0.860
2020/01/31 07:35:48.9	89.080	-0.080	-0.060	0.830
2020/01/31 07:35:49.0	89.080	-0.070	-0.110	0.810
2020/01/31 07:35:49.1	89.080	-0.060	-0.150	0.780
2020/01/31 07:35:49.2	89.090	-0.040	-0.200	0.750
2020/01/31 07:35:49.3	89.090	-0.020	-0.260	0.710
2020/01/31 07:35:49.4	89.100	-0.000	-0.310	0.680
2020/01/31 07:35:49.5	89.100	0.020	-0.360	0.650
2020/01/31 07:35:49.6	89.110	0.040	-0.410	0.620
2020/01/31 07:35:49.7	89.110	0.060	-0.450	0.590
2020/01/31 07:35:49.8	89.120	0.090	-0.500	0.560
2020/01/31 07:35:49.9	89.120	0.110	-0.550	0.540
2020/01/31 07:35:50.0	89.130	0.140	-0.590	0.510
2020/01/31 07:35:50.1	89.130	0.160	-0.640	0.490
2020/01/31 07:35:50.2	89.140	0.190	-0.680	0.470
2020/01/31 07:35:50.3	89.150	0.210	-0.720	0.450
2020/01/31 07:35:50.4	89.150	0.240	-0.750	0.440
2020/01/31 07:35:50.5	89.150	0.260	-0.780	0.430
2020/01/31 07:35:50.6	89.150	0.280	-0.810	0.420
2020/01/31 07:35:50.7	89.150	0.300	-0.830	0.420
2020/01/31 07:35:50.8	89.150	0.320	-0.850	0.420
2020/01/31 07:35:50.9	89.140	0.340	-0.860	0.420
2020/01/31 07:35:51.0	89.140	0.350	-0.870	0.430
2020/01/31 07:35:51.1	89.130	0.370	-0.870	0.430
2020/01/31 07:35:51.2	89.130	0.380	-0.860	0.450
2020/01/31 07:35:51.3	89.120	0.380	-0.860	0.460
2020/01/31 07:35:51.4	89.110	0.390	-0.840	0.480
2020/01/31 07:35:51.5	89.100	0.390	-0.820	0.500
2020/01/31 07:35:51.6	89.090	0.380	-0.800	0.530
2020/01/31 07:35:51.7	89.080	0.380	-0.770	0.550
2020/01/31 07:35:51.8	89.070	0.370	-0.740	0.580
2020/01/31 07:35:51.9	89.060	0.360	-0.700	0.610
2020/01/31 07:35:52.0	89.050	0.350	-0.650	0.630
2020/01/31 07:35:52.1	89.050	0.330	-0.610	0.660
2020/01/31 07:35:52.2	89.040	0.310	-0.550	0.690
2020/01/31 07:35:52.3	89.040	0.290	-0.500	0.720
2020/01/31 07:35:52.4	89.030	0.260	-0.440	0.740
2020/01/31 07:35:52.5	89.030	0.240	-0.380	0.770
2020/01/31 07:35:52.6	89.020	0.210	-0.320	0.790
2020/01/31 07:35:52.7	89.020	0.180	-0.260	0.810
2020/01/31 07:35:52.8	89.030	0.140	-0.190	0.830
2020/01/31 07:35:52.9	89.030	0.110	-0.130	0.840
2020/01/31 07:35:53.0	89.030	0.080	-0.060	0.860
2020/01/31 07:35:53.1	89.040	0.040	0.000	0.870
2020/01/31 07:35:53.2	89.050	0.010	0.070	0.880
2020/01/31 07:35:53.3	89.060	-0.030	0.130	0.890
2020/01/31 07:35:53.4	89.070	-0.070	0.190	0.890
2020/01/31 07:35:53.5	89.080	-0.100	0.250	0.890
2020/01/31 07:35:53.6	89.090	-0.140	0.310	0.890
2020/01/31 07:35:53.7	89.100	-0.180	0.360	0.890
2020/01/31 07:35:53.8	89.120	-0.210	0.410	0.890
2020/01/31 07:35:53.9	89.130	-0.240	0.460	0.890
2020/01/31 07:35:54.0	89.150	-0.280	0.510	0.880
2020/01/31 07:35:54.1	89.160	-0.310	0.550	0.880
2020/01/31 07:35:54.2	89.180	-0.340	0.590	0.870
2020/01/31 07:35:54.3	89.190	-0.360	0.620	0.860
2020/01/31 07:35:54.4	89.210	-0.390	0.650	0.860
2020/01/31 07:35:54.5	89.220	-0.410	0.670	0.850
2020/01/31 07:35:54.6	89.240	-0.430	0.690	0.850
2020/01/31 07:35:54.7	89.250	-0.450	0.710	0.840
2020/01/31 07:35:54.8	89.260	-0.460	0.710	0.840
2020/01/31 07:35:54.9	89.270	-0.480	0.720	0.840
2020/01/31 07:35:55.0	89.280	-0.490	0.710	0.830
2020/01/31 07:35:55.1	89.290	-0.490	0.700	0.830
2020/01/31 07:35:55.2	89.300	-0.500	0.680	0.830
2020/01/31 07:35:55.3	89.300	-0.500	0.660	0.840
2020/01/31 07:35:55.4	89.310	-0.490	0.630	0.840
2020/01/31 07:35:55.5	89.310	-0.490	0.600	0.850
2020/01/31 07:35:55.6	89.320	-0.480	0.560	0.850
2020/01/31 07:35:55.7	89.320	-0.470	0.510	0.860
2020/01/31 07:35:55.8	89.320	-0.460	0.460	0.860
2020/01/31 07:35:55.9	89.320	-0.440	0.400	0.870
2020/01/31 07:35:56.0	89.320	-0.420	0.340	0.880
2020/01/31 07:35:56.1	89.330	-0.400	0.280	0.890
2020/01/31 07:35:56.2	89.330	-0.380	0.210	0.900
2020/01/31 07:35:56.3	89.330	-0.360	0.140	0.910
2020/01/31 07:35:56.4	89.330	-0.330	0.060	0.910
2020/01/31 07:35:56.5	89.330	-0.300	-0.010	0.920
2020/01/31 07:35:56.6	89.330	-0.280	-0.090	0.930
2020/01/31 07:35:56.7	89.330	-0.250	-0.170	0.930
2020/01/31 07:35:56.8	89.340	-0.220	-0.240	0.940
2020/01/31 07:35:56.9	89.340	-0.190	-0.320	0.940
2020/01/31 07:35:57.0	89.340	-0.160	-0.390	0.940
2020/01/31 07:35:57.1	89.350	-0.130	-0.460	0.940
2020/01/31 07:35:57.2	89.360	-0.110	-0.530	0.940
2020/01/31 07:35:57.3	89.360	-0.080	-0.600	0.940
2020/01/31 07:35:57.4	89.360	-0.050	-0.660	0.940
2020/01/31 07:35:57.5	89.370	-0.030	-0.720	0.930
2020/01/31 07:35:57.6	89.380	-0.000	-0.780	0.920
2020/01/31 07:35:57.7	89.390	0.020	-0.820	0.920
2020/01/31 07:35:57.8	89.400	0.040	-0.870	0.910
2020/01/31 07:35:57.9	89.400	0.060	-0.910	0.900
2020/01/31 07:35:58.0	89.410	0.080	-0.940	0.890
2020/01/31 07:35:58.1	89.420	0.100	-0.970	0.880
2020/01/31 07:35:58.2	89.430	0.120	-0.990	0.870
2020/01/31 07:35:58.3	89.430	0.130	-1.000	0.860
2020/01/31 07:35:58.4	89.430	0.140	-1.010	0.850
2020/01/31 07:35:58.5	89.440	0.150	-1.010	0.840
2020/01/31 07:35:58.6	89.440	0.160	-1.000	0.840
2020/01/31 07:35:58.7	89.450	0.170	-0.990	0.830
2020/01/31 07:35:58.8	89.450	0.170	-0.980	0.830
2020/01/31 07:35:58.9	89.450	0.180	-0.950	0.830
2020/01/31 07:35:59.0	89.450	0.180	-0.920	0.830
2020/01/31 07:35:59.1	89.450	0.180	-0.890	0.830
2020/01/31 07:35:59.2	89.440	0.180	-0.850	0.830
2020/01/31 07:35:59.3	89.440	0.170	-0.800	0.840
2020/01/31 07:35:59.4	89.440	0.170	-0.750	0.840
2020/01/31 07:35:59.5	89.430	0.160	-0.700	0.850
2020/01/31 07:35:59.6	89.420	0.160	-0.640	0.860
2020/01/31 07:35:59.7	89.410	0.150	-0.580	0.870
2020/01/31 07:35:59.8	89.400	0.140	-0.520	0.880
2020/01/31 07:35:59.9	89.390	0.130	-0.460	0.900
2020/01/31 07:36:00.0	89.380	0.120	-0.390	0.910
2020/01/31 07:36:00.1	89.370	0.110	-0.320	0.920
2020/01/31 07:36:00.2	89.360	0.090	-0.260	0.940
2020/01/31 07:36:00.3	89.360	0.080	-0.190	0.950
2020/01/31 07:36:00.4	89.350	0.070	-0.120	0.960
2020/01/31 07:36:00.5	89.340	0.050	-0.060	0.980
2020/01/31 07:36:00.6	89.330	0.040	0.010	0.990
2020/01/31 07:36:00.7	89.320	0.020	0.070	1.010
2020/01/31 07:36:00.8	89.310	0.010	0.130	1.020
2020/01/31 07:36:00.9	89.300	-0.010	0.190	1.030
2020/01/31 07:36:01.0	89.290	-0.020	0.250	1.040
2020/01/31 07:36:01.1	89.280	-0.030	0.300	1.050
2020/01/31 07:36:01.2	89.270	-0.050	0.350	1.060
2020/01/31 07:36:01.3	89.260	-0.060	0.390	1.060
2020/01/31 07:36:01.4	89.260	-0.080	0.440	1.060
2020/01/31 07:36:01.5	89.250	-0.090	0.470	1.070
2020/01/31 07:36:01.6	89.240	-0.100	0.510	1.060
2020/01/31 07:36:01.7	89.240	-0.110	0.540	1.060
2020/01/31 07:36:01.8	89.230	-0.120	0.560	1.060
2020/01/31 07:36:01.9	89.220	-0.130	0.580	1.050
2020/01/31 07:36:02.0	89.220	-0.140	0.600	1.040
2020/01/31 07:36:02.1	89.220	-0.150	0.610	1.030
2020/01/31 07:36:02.2	89.210	-0.160	0.620	1.010
2020/01/31 07:36:02.3	89.200	-0.160	0.620	0.990
2020/01/31 07:36:02.4	89.200	-0.170	0.610	0.970
2020/01/31 07:36:02.5	89.200	-0.170	0.610	0.950
2020/01/31 07:36:02.6	89.200	-0.180	0.590	0.930
2020/01/31 07:36:02.7	89.200	-0.180	0.580	0.910
2020/01/31 07:36:02.8	89.190	-0.180	0.550	0.880
2020/01/31 07:36:02.9	89.190	-0.180	0.530	0.860
2020/01/31 07:36:03.0	89.190	-0.170	0.490	0.830
2020/01/31 07:36:03.1	89.190	-0.170	0.450	0.800
2020/01/31 07:36:03.2	89.190	-0.160	0.410	0.770
2020/01/31 07:36:03.3	89.190	-0.150	0.360	0.740
2020/01/31 07:36:03.4	89.190	-0.140	0.300	0.710
2020/01/31 07:36:03.5	89.190	-0.130	0.250	0.670
2020/01/31 07:36:03.6	89.190	-0.110	0.180	0.640
2020/01/31 07:36:03.7	89.190	-0.090	0.120	0.610
2020/01/31 07:36:03.8	89.200	-0.080	0.040	0.570
2020/01/31 07:36:03.9	89.200	-0.050	-0.030	0.540
2020/01/31 07:36:04.0	89.200	-0.030	-0.110	0.500
2020/01/31 07:36:04.1	89.210	-0.010	-0.180	0.470
2020/01/31 07:36:04.2	89.210	0.020	-0.270	0.430
2020/01/31 07:36:04.3	89.220	0.050	-0.350	0.390
2020/01/31 07:36:04.4	89.230	0.080	-0.430	0.360
2020/01/31 07:36:04.5	89.230	0.110	-0.510	0.320
2020/01/31 07:36:04.6	89.240	0.140	-0.590	0.290
2020/01/31 07:36:04.7	89.250	0.180	-0.670	0.250
2020/01/31 07:36:04.8	89.270	0.210	-0.740	0.220
2020/01/31 07:36:04.9	89.280	0.250	-0.820	0.190
2020/01/31 07:36:05.0	89.290	0.290	-0.880	0.160
2020/01/31 07:36:05.1	89.310	0.320	-0.950	0.130
2020/01/31 07:36:05.2	89.320	0.360	-1.000	0.100
2020/01/31 07:36:05.3	89.340	0.390	-1.060	0.080
2020/01/31 07:36:05.4	89.360	0.430	-1.100	0.060
2020/01/31 07:36:05.5	89.380	0.460	-1.130	0.040
2020/01/31 07:36:05.6	89.400	0.490	-1.160	0.020
2020/01/31 07:36:05.7	89.420	0.520	-1.170	0.010
2020/01/31 07:36:05.8	89.440	0.550	-1.180	-0.000
2020/01/31 07:36:05.9	89.460	0.580	-1.180	-0.010
2020/01/31 07:36:06.0	89.480	0.600	-1.160	-0.020
2020/01/31 07:36:06.1	89.510	0.620	-1.140	-0.020
2020/01/31 07:36:06.2	89.530	0.630	-1.110	-0.020
2020/01/31 07:36:06.3	89.540	0.650	-1.070	-0.020
2020/01/31 07:36:06.4	89.570	0.650	-1.020	-0.010
2020/01/31 07:36:06.5	89.590	0.660	-0.960	0.000
2020/01/31 07:36:06.6	89.600	0.660	-0.890	0.020
2020/01/31 07:36:06.7	89.620	0.660	-0.820	0.040
2020/01/31 07:36:06.8	89.640	0.650	-0.740	0.060
2020/01/31 07:36:06.9	89.650	0.640	-0.660	0.090
2020/01/31 07:36:07.0	89.660	0.620	-0.570	0.120
2020/01/31 07:36:07.1	89.670	0.600	-0.470	0.160
2020/01/31 07:36:07.2	89.670	0.570	-0.380	0.190
2020/01/31 07:36:07.3	89.670	0.550	-0.280	0.240
2020/01/31 07:36:07.4	89.670	0.520	-0.180	0.280
2020/01/31 07:36:07.5	89.670	0.480	-0.080	0.330
2020/01/31 07:36:07.6	89.660	0.450	0.020	0.370
2020/01/31 07:36:07.7	89.660	0.410	0.110	0.430
2020/01/31 07:36:07.8	89.640	0.370	0.200	0.480
2020/01/31 07:36:07.9	89.630	0.320	0.290	0.530
2020/01/31 07:36:08.0	89.610	0.280	0.370	0.590
2020/01/31 07:36:08.1	89.600	0.230	0.440	0.640
2020/01/31 07:36:08.2	89.580	0.190	0.520	0.700
2020/01/31 07:36:08.3	89.550	0.140	0.580	0.750
2020/01/31 07:36:08.4	89.530	0.090	0.640	0.810
2020/01/31 07:36:08.5	89.500	0.050	0.690	0.860
2020/01/31 07:36:08.6	89.480	0.000	0.730	0.920
2020/01/31 07:36:08.7	89.450	-0.040	0.760	0.970
2020/01/31 07:36:08.8	89.420	-0.090	0.790	1.020
2020/01/31 07:36:08.9	89.400	-0.130	0.810	1.080
2020/01/31 07:36:09.0	89.370	-0.170	0.820	1.120
2020/01/31 07:36:09.1	89.340	-0.200	0.820	1.170
2020/01/31 07:36:09.2	89.320	-0.240	0.820	1.220
2020/01/31 07:36:09.3	89.290	-0.270	0.800	1.260
2020/01/31 07:36:09.4	89.270	-0.300	0.790	1.300
2020/01/31 07:36:09.5	89.250	-0.330	0.760	1.340
2020/01/31 07:36:09.6	89.230	-0.360	0.730	1.370
2020/01/31 07:36:09.7	89.210	-0.380	0.700	1.400
2020/01/31 07:36:09.8	89.200	-0.400	0.650	1.430
2020/01/31 07:36:09.9	89.180	-0.420	0.610	1.450
2020/01/31 07:36:10.0	89.170	-0.430	0.560	1.470
2020/01/31 07:36:10.1	89.160	-0.450	0.500	1.490
2020/01/31 07:36:10.2	89.160	-0.460	0.440	1.510
2020/01/31 07:36:10.3	89.150	-0.460	0.380	1.520
2020/01/31 07:36:10.4	89.150	-0.470	0.320	1.530
2020/01/31 07:36:10.5	89.150	-0.470	0.250	1.540
2020/01/31 07:36:10.6	89.150	-0.470	0.190	1.540
2020/01/31 07:36:10.7	89.150	-0.470	0.120	1.550
2020/01/31 07:36:10.8	89.160	-0.470	0.060	1.550
2020/01/31 07:36:10.9	89.170	-0.470	-0.010	1.550
2020/01/31 07:36:11.0	89.180	-0.460	-0.080	1.550
2020/01/31 07:36:11.1	89.190	-0.460	-0.140	1.550
2020/01/31 07:36:11.2	89.200	-0.450	-0.200	1.540
2020/01/31 07:36:11.3	89.220	-0.440	-0.270	1.540
2020/01/31 07:36:11.4	89.230	-0.440	-0.330	1.530
2020/01/31 07:36:11.5	89.250	-0.430	-0.380	1.520
2020/01/31 07:36:11.6	89.270	-0.420	-0.430	1.510
2020/01/31 07:36:11.7	89.290	-0.410	-0.480	1.500
2020/01/31 07:36:11.8	89.310	-0.400	-0.530	1.490
2020/01/31 07:36:11.9	89.330	-0.390	-0.570	1.480
2020/01/31 07:36:12.0	89.350	-0.380	-0.600	1.470
2020/01/31 07:36:12.1	89.370	-0.380	-0.640	1.450
2020/01/31 07:36:12.2	89.400	-0.370	-0.670	1.430
2020/01/31 07:36:12.3	89.430	-0.360	-0.690	1.420
2020/01/31 07:36:12.4	89.450	-0.350	-0.710	1.400
2020/01/31 07:36:12.5	89.480	-0.340	-0.730	1.370
2020/01/31 07:36:12.6	89.500	-0.330	-0.740	1.350
2020/01/31 07:36:12.7	89.520	-0.320	-0.740	1.330
2020/01/31 07:36:12.8	89.540	-0.320	-0.740	1.310
2020/01/31 07:36:12.9	89.560	-0.310	-0.740	1.280
2020/01/31 07:36:13.0	89.570	-0.300	-0.730	1.260
2020/01/31 07:36:13.1	89.590	-0.290	-0.720	1.230
2020/01/31 07:36:13.2	89.600	-0.280	-0.710	1.200
2020/01/31 07:36:13.3	89.620	-0.280	-0.690	1.180
2020/01/31 07:36:13.4	89.630	-0.270	-0.670	1.150
2020/01/31 07:36:13.5	89.630	-0.260	-0.650	1.130
2020/01/31 07:36:13.6	89.640	-0.250	-0.630	1.100
2020/01/31 07:36:13.7	89.640	-0.240	-0.600	1.080
2020/01/31 07:36:13.8	89.640	-0.220	-0.570	1.050
2020/01/31 07:36:13.9	89.640	-0.210	-0.540	1.030
2020/01/31 07:36:14.0	89.640	-0.200	-0.510	1.010
2020/01/31 07:36:14.1	89.630	-0.190	-0.480	0.990
2020/01/31 07:36:14.2	89.630	-0.170	-0.450	0.970
2020/01/31 07:36:14.3	89.620	-0.160	-0.420	0.950
2020/01/31 07:36:14.4	89.610	-0.140	-0.390	0.930
2020/01/31 07:36:14.5	89.600	-0.120	-0.360	0.910
2020/01/31 07:36:14.6	89.580	-0.100	-0.330	0.900
2020/01/31 07:36:14.7	89.570	-0.090	-0.300	0.880
2020/01/31 07:36:14.8	89.560	-0.070	-0.270	0.870
2020/01/31 07:36:14.9	89.540	-0.050	-0.240	0.850
2020/01/31 07:36:15.0	89.530	-0.020	-0.220	0.840
2020/01/31 07:36:15.1	89.510	-0.000	-0.190	0.830
2020/01/31 07:36:15.2	89.500	0.020	-0.170	0.820
2020/01/31 07:36:15.3	89.480	0.040	-0.150	0.800
2020/01/31 07:36:15.4	89.460	0.060	-0.130	0.790
2020/01/31 07:36:15.5	89.450	0.080	-0.110	0.780
2020/01/31 07:36:15.6	89.430	0.110	-0.090	0.770
2020/01/31 07:36:15.7	89.410	0.130	-0.080	0.760
2020/01/31 07:36:15.8	89.390	0.150	-0.070	0.740
2020/01/31 07:36:15.9	89.380	0.170	-0.060	0.730
2020/01/31 07:36:16.0	89.360	0.190	-0.050	0.720
2020/01/31 07:36:16.1	89.340	0.210	-0.040	0.710
2020/01/31 07:36:16.2	89.320	0.220	-0.030	0.690
2020/01/31 07:36:16.3	89.300	0.240	-0.030	0.680
2020/01/31 07:36:16.4	89.280	0.260	-0.030	0.660
2020/01/31 07:36:16.5	89.270	0.270	-0.030	0.640
2020/01/31 07:36:16.6	89.250	0.280	-0.030	0.630
2020/01/31 07:36:16.7	89.230	0.300	-0.030	0.610
2020/01/31 07:36:16.8	89.220	0.310	-0.030	0.590
2020/01/31 07:36:16.9	89.200	0.310	-0.040	0.560
2020/01/31 07:36:17.0	89.190	0.320	-0.040	0.540
2020/01/31 07:36:17.1	89.170	0.330	-0.050	0.510
2020/01/31 07:36:17.2	89.160	0.330	-0.050	0.490
2020/01/31 07:36:17.3	89.150	0.340	-0.060	0.460
2020/01/31 07:36:17.4	89.140	0.340	-0.070	0.430
2020/01/31 07:36:17.5	89.130	0.340	-0.080	0.400
2020/01/31 07:36:17.6	89.120	0.340	-0.090	0.370
2020/01/31 07:36:17.7	89.120	0.330	-0.090	0.340
2020/01/31 07:36:17.8	89.110	0.330	-0.100	0.310
2020/01/31 07:36:17.9	89.110	0.320	-0.100	0.280
2020/01/31 07:36:18.0	89.110	0.320	-0.110	0.260
2020/01/31 07:36:18.1	89.100	0.310	-0.110	0.230
2020/01/31 07:36:18.2	89.100	0.300	-0.110	0.200
2020/01/31 07:36:18.3	89.100	0.290	-0.120	0.170
2020/01/31 07:36:18.4	89.100	0.270	-0.120	0.150
2020/01/31 07:36:18.5	89.110	0.260	-0.110	0.130
2020/01/31 07:36:18.6	89.110	0.240	-0.110	0.100
2020/01/31 07:36:18.7	89.110	0.230	-0.100	0.080
2020/01/31 07:36:18.8	89.120	0.210	-0.100	0.060
2020/01/31 07:36:18.9	89.120	0.190	-0.090	0.050
2020/01/31 07:36:19.0	89.130	0.170	-0.080	0.030
2020/01/31 07:36:19.1	89.140	0.150	-0.070	0.010
2020/01/31 07:36:19.2	89.140	0.130	-0.060	-0.000
2020/01/31 07:36:19.3	89.150	0.110	-0.050	-0.010
2020/01/31 07:36:19.4	89.160	0.090	-0.030	-0.020
2020/01/31 07:36:19.5	89.170	0.070	-0.020	-0.030
2020/01/31 07:36:19.6	89.180	0.050	-0.000	-0.040
2020/01/31 07:36:19.7	89.190	0.020	0.010	-0.050
2020/01/31 07:36:19.8	89.200	0.000	0.020	-0.060
2020/01/31 07:36:19.9	89.220	-0.020	0.040	-0.060
2020/01/31 07:36:20.0	89.230	-0.040	0.050	-0.060
2020/01/31 07:36:20.1	89.240	-0.060	0.060	-0.070
2020/01/31 07:36:20.2	89.260	-0.080	0.070	-0.070
2020/01/31 07:36:20.3	89.270	-0.100	0.080	-0.070
2020/01/31 07:36:20.4	89.290	-0.110	0.080	-0.070
2020/01/31 07:36:20.5	89.310	-0.130	0.090	-0.070
2020/01/31 07:36:20.6	89.330	-0.140	0.090	-0.060
2020/01/31 07:36:20.7	89.350	-0.160	0.090	-0.060
2020/01/31 07:36:20.8	89.370	-0.170	0.090	-0.050
2020/01/31 07:36:20.9	89.390	-0.180	0.080	-0.040
2020/01/31 07:36:21.0	89.420	-0.180	0.070	-0.030
2020/01/31 07:36:21.1	89.440	-0.190	0.060	-0.010
2020/01/31 07:36:21.2	89.470	-0.190	0.050	0.010
2020/01/31 07:36:21.3	89.490	-0.190	0.040	0.030
2020/01/31 07:36:21.4	89.510	-0.190	0.020	0.050
2020/01/31 07:36:21.5	89.540	-0.190	-0.000	0.070
2020/01/31 07:36:21.6	89.560	-0.190	-0.020	0.100
2020/01/31 07:36:21.7	89.590	-0.180	-0.040	0.130
2020/01/31 07:36:21.8	89.610	-0.180	-0.070	0.160
2020/01/31 07:36:21.9	89.630	-0.170	-0.090	0.200
2020/01/31 07:36:22.0	89.650	-0.160	-0.120	0.240
2020/01/31 07:36:22.1	89.670	-0.140	-0.150	0.280
2020/01/31 07:36:22.2	89.690	-0.130	-0.170	0.320
2020/01/31 07:36:22.3	89.710	-0.120	-0.200	0.370
2020/01/31 07:36:22.4	89.730	-0.100	-0.230	0.420
2020/01/31 07:36:22.5	89.740	-0.090	-0.260	0.470
2020/01/31 07:36:22.6	89.750	-0.070	-0.280	0.530
2020/01/31 07:36:22.7	89.770	-0.050	-0.300	0.580
2020/01/31 07:36:22.8	89.780	-0.040	-0.320	0.640
2020/01/31 07:36:22.9	89.780	-0.020	-0.340	0.700
2020/01/31 07:36:23.0	89.790	-0.000	-0.360	0.760
2020/01/31 07:36:23.1	89.790	0.010	-0.370	0.830
2020/01/31 07:36:23.2	89.790	0.030	-0.390	0.890
2020/01/31 07:36:23.3	89.790	0.040	-0.400	0.960
2020/01/31 07:36:23.4	89.790	0.060	-0.400	1.030
2020/01/31 07:36:23.5	89.780	0.070	-0.410	1.090
2020/01/31 07:36:23.6	89.770	0.090	-0.400	1.160
2020/01/31 07:36:23.7	89.760	0.100	-0.400	1.230
2020/01/31 07:36:23.8	89.740	0.110	-0.390	1.300
2020/01/31 07:36:23.9	89.720	0.120	-0.380	1.370
2020/01/31 07:36:24.0	89.700	0.120	-0.370	1.440
2020/01/31 07:36:24.1	89.680	0.130	-0.350	1.500
2020/01/31 07:36:24.2	89.650	0.130	-0.330	1.570
2020/01/31 07:36:24.3	89.630	0.140	-0.310	1.640
2020/01/31 07:36:24.4	89.600	0.140	-0.290	1.700
2020/01/31 07:36:24.5	89.570	0.140	-0.260	1.760
2020/01/31 07:36:24.6	89.540	0.130	-0.240	1.820
2020/01/31 07:36:24.7	89.510	0.130	-0.210	1.880
2020/01/31 07:36:24.8	89.470	0.120	-0.180	1.930
2020/01/31 07:36:24.9	89.440	0.120	-0.150	1.980
2020/01/31 07:36:25.0	89.400	0.110	-0.120	2.030
2020/01/31 07:36:25.1	89.370	0.100	-0.090	2.070
2020/01/31 07:36:25.2	89.330	0.090	-0.060	2.110
2020/01/31 07:36:25.3	89.290	0.080	-0.040	2.140
2020/01/31 07:36:25.4	89.260	0.060	-0.010	2.180
2020/01/31 07:36:25.5	89.230	0.050	0.010	2.200
2020/01/31 07:36:25.6	89.200	0.040	0.040	2.220
2020/01/31 07:36:25.7	89.170	0.030	0.060	2.240
2020/01/31 07:36:25.8	89.140	0.010	0.070	2.250
2020/01/31 07:36:25.9	89.120	0.000	0.080	2.250
2020/01/31 07:36:26.0	89.100	-0.010	0.090	2.250
2020/01/31 07:36:26.1	89.080	-0.020	0.100	2.240
2020/01/31 07:36:26.2	89.070	-0.030	0.100	2.230
2020/01/31 07:36:26.3	89.050	-0.040	0.100	2.210
2020/01/31 07:36:26.4	89.040	-0.040	0.090	2.180
2020/01/31 07:36:26.5	89.040	-0.050	0.080	2.150
2020/01/31 07:36:26.6	89.030	-0.050	0.070	2.110
2020/01/31 07:36:26.7	89.030	-0.050	0.050	2.070
2020/01/31 07:36:26.8	89.040	-0.050	0.030	2.030
2020/01/31 07:36:26.9	89.040	-0.050	0.010	1.980
2020/01/31 07:36:27.0	89.050	-0.040	-0.020	1.920
2020/01/31 07:36:27.1	89.060	-0.030	-0.050	1.870
2020/01/31 07:36:27.2	89.070	-0.030	-0.080	1.810
2020/01/31 07:36:27.3	89.090	-0.010	-0.120	1.740
2020/01/31 07:36:27.4	89.100	-0.000	-0.160	1.680
2020/01/31 07:36:27.5	89.120	0.010	-0.190	1.610
2020/01/31 07:36:27.6	89.140	0.030	-0.230	1.540
2020/01/31 07:36:27.7	89.150	0.050	-0.270	1.470
2020/01/31 07:36:27.8	89.170	0.060	-0.310	1.410
2020/01/31 07:36:27.9	89.190	0.080	-0.350	1.340
2020/01/31 07:36:28.0	89.210	0.100	-0.380	1.270
2020/01/31 07:36:28.1	89.230	0.120	-0.420	1.200
2020/01/31 07:36:28.2	89.250	0.140	-0.450	1.130
2020/01/31 07:36:28.3	89.260	0.160	-0.490	1.060
2020/01/31 07:36:28.4	89.280	0.180	-0.520	0.990
2020/01/31 07:36:28.5	89.300	0.200	-0.550	0.920
2020/01/31 07:36:28.6	89.310	0.220	-0.570	0.850
2020/01/31 07:36:28.7	89.330	0.240	-0.590	0.790
2020/01/31 07:36:28.8	89.350	0.260	-0.620	0.720
2020/01/31 07:36:28.9	89.370	0.270	-0.630	0.660
2020/01/31 07:36:29.0	89.390	0.290	-0.650	0.590
2020/01/31 07:36:29.1	89.410	0.300	-0.660	0.530
2020/01/31 07:36:29.2	89.430	0.310	-0.670	0.470
2020/01/31 07:36:29.3	89.450	0.320	-0.670	0.410
2020/01/31 07:36:29.4	89.480	0.320	-0.670	0.350
2020/01/31 07:36:29.5	89.500	0.330	-0.670	0.290
2020/01/31 07:36:29.6	89.520	0.330	-0.660	0.230
2020/01/31 07:36:29.7	89.540	0.330	-0.650	0.180
2020/01/31 07:36:29.8	89.560	0.320	-0.640	0.130
2020/01/31 07:36:29.9	89.580	0.320	-0.620	0.080
2020/01/31 07:36:30.0	89.600	0.310	-0.600	0.030
2020/01/31 07:36:30.1	89.620	0.300	-0.580	-0.020
2020/01/31 07:36:30.2	89.640	0.280	-0.550	-0.060
2020/01/31 07:36:30.3	89.670	0.270	-0.530	-0.100
2020/01/31 07:36:30.4	89.680	0.250	-0.490	-0.140
2020/01/31 07:36:30.5	89.700	0.230	-0.460	-0.170
2020/01/31 07:36:30.6	89.720	0.210	-0.420	-0.200
2020/01/31 07:36:30.7	89.730	0.190	-0.380	-0.220
2020/01/31 07:36:30.8	89.740	0.160	-0.340	-0.240
2020/01/31 07:36:30.9	89.750	0.130	-0.290	-0.250
2020/01/31 07:36:31.0	89.760	0.110	-0.250	-0.260
2020/01/31 07:36:31.1	89.770	0.080	-0.200	-0.270
2020/01/31 07:36:31.2	89.770	0.050	-0.150	-0.270
2020/01/31 07:36:31.3	89.770	0.020	-0.110	-0.260
2020/01/31 07:36:31.4	89.770	-0.010	-0.060	-0.250
2020/01/31 07:36:31.5	89.770	-0.040	-0.010	-0.230
2020/01/31 07:36:31.6	89.760	-0.070	0.040	-0.210
2020/01/31 07:36:31.7	89.750	-0.110	0.090	-0.190
2020/01/31 07:36:31.8	89.740	-0.140	0.130	-0.160
2020/01/31 07:36:31.9	89.730	-0.170	0.180	-0.120
2020/01/31 07:36:32.0	89.720	-0.200	0.220	-0.090
2020/01/31 07:36:32.1	89.700	-0.230	0.270	-0.040
2020/01/31 07:36:32.2	89.690	-0.250	0.310	-0.000
2020/01/31 07:36:32.3	89.680	-0.280	0.350	0.050
2020/01/31 07:36:32.4	89.660	-0.310	0.380	0.100
2020/01/31 07:36:32.5	89.640	-0.330	0.420	0.150
2020/01/31 07:36:32.6	89.620	-0.350	0.440	0.200
2020/01/31 07:36:32.7	89.600	-0.380	0.470	0.260
2020/01/31 07:36:32.8	89.580	-0.400	0.490	0.310
2020/01/31 07:36:32.9	89.560	-0.410	0.510	0.370
2020/01/31 07:36:33.0	89.540	-0.430	0.530	0.420
2020/01/31 07:36:33.1	89.520	-0.450	0.540	0.480
2020/01/31 07:36:33.2	89.500	-0.460	0.540	0.540
2020/01/31 07:36:33.3	89.490	-0.470	0.540	0.590
2020/01/31 07:36:33.4	89.470	-0.480	0.540	0.650
2020/01/31 07:36:33.5	89.450	-0.490	0.540	0.700
2020/01/31 07:36:33.6	89.430	-0.490	0.530	0.750
2020/01/31 07:36:33.7	89.420	-0.500	0.510	0.800
2020/01/31 07:36:33.8	89.400	-0.500	0.500	0.850
2020/01/31 07:36:33.9	89.390	-0.500	0.480	0.900
2020/01/31 07:36:34.0	89.380	-0.500	0.450	0.940
2020/01/31 07:36:34.1	89.360	-0.500	0.430	0.980
2020/01/31 07:36:34.2	89.360	-0.490	0.400	1.020
2020/01/31 07:36:34.3	89.350	-0.490	0.360	1.060
2020/01/31 07:36:34.4	89.340	-0.480	0.330	1.090
2020/01/31 07:36:34.5	89.340	-0.480	0.290	1.120
2020/01/31 07:36:34.6	89.340	-0.470	0.250	1.150
2020/01/31 07:36:34.7	89.340	-0.460	0.210	1.170
2020/01/31 07:36:34.8	89.340	-0.450	0.170	1.200
2020/01/31 07:36:34.9	89.350	-0.450	0.130	1.220
2020/01/31 07:36:35.0	89.360	-0.440	0.090	1.240
2020/01/31 07:36:35.1	89.370	-0.430	0.050	1.250
2020/01/31 07:36:35.2	89.380	-0.420	0.010	1.260
2020/01/31 07:36:35.3	89.380	-0.410	-0.040	1.270
2020/01/31 07:36:35.4	89.400	-0.400	-0.070	1.280
2020/01/31 07:36:35.5	89.420	-0.390	-0.110	1.290
2020/01/31 07:36:35.6	89.430	-0.380	-0.140	1.290
2020/01/31 07:36:35.7	89.450	-0.370	-0.170	1.300
2020/01/31 07:36:35.8	89.470	-0.360	-0.200	1.300
2020/01/31 07:36:35.9	89.500	-0.350	-0.230	1.300
2020/01/31 07:36:36.0	89.520	-0.350	-0.260	1.300
2020/01/31 07:36:36.1	89.540	-0.340	-0.280	1.290
2020/01/31 07:36:36.2	89.560	-0.330	-0.300	1.290
2020/01/31 07:36:36.3	89.590	-0.320	-0.320	1.280
2020/01/31 07:36:36.4	89.610	-0.310	-0.340	1.280
2020/01/31 07:36:36.5	89.640	-0.300	-0.350	1.270
2020/01/31 07:36:36.6	89.660	-0.280	-0.360	1.260
2020/01/31 07:36:36.7	89.680	-0.270	-0.380	1.250
2020/01/31 07:36:36.8	89.700	-0.260	-0.390	1.240
2020/01/31 07:36:36.9	89.730	-0.240	-0.400	1.230
2020/01/31 07:36:37.0	89.750	-0.230	-0.400	1.220
2020/01/31 07:36:37.1	89.770	-0.210	-0.410	1.200
2020/01/31 07:36:37.2	89.780	-0.190	-0.420	1.190
2020/01/31 07:36:37.3	89.810	-0.170	-0.430	1.170
2020/01/31 07:36:37.4	89.830	-0.150	-0.430	1.160
2020/01/31 07:36:37.5	89.840	-0.130	-0.440	1.140
2020/01/31 07:36:37.6	89.850	-0.100	-0.450	1.120
2020/01/31 07:36:37.7	89.860	-0.070	-0.460	1.110
2020/01/31 07:36:37.8	89.870	-0.040	-0.460	1.090
2020/01/31 07:36:37.9	89.880	-0.010	-0.470	1.070
2020/01/31 07:36:38.0	89.880	0.020	-0.480	1.040
2020/01/31 07:36:38.1	89.890	0.050	-0.500	1.020
2020/01/31 07:36:38.2	89.890	0.090	-0.510	1.000
2020/01/31 07:36:38.3	89.900	0.130	-0.520	0.970
2020/01/31 07:36:38.4	89.900	0.170	-0.540	0.950
2020/01/31 07:36:38.5	89.900	0.210	-0.550	0.920
2020/01/31 07:36:38.6	89.900	0.250	-0.570	0.900
2020/01/31 07:36:38.7	89.890	0.290	-0.580	0.870
2020/01/31 07:36:38.8	89.890	0.340	-0.600	0.850
2020/01/31 07:36:38.9	89.880	0.380	-0.620	0.820
2020/01/31 07:36:39.0	89.880	0.420	-0.640	0.800
2020/01/31 07:36:39.1	89.870	0.470	-0.650	0.770
2020/01/31 07:36:39.2	89.870	0.510	-0.670	0.750
2020/01/31 07:36:39.3	89.860	0.550	-0.690	0.730
2020/01/31 07:36:39.4	89.850	0.590	-0.700	0.710
2020/01/31 07:36:39.5	89.840	0.630	-0.720	0.690
2020/01/31 07:36:39.6	89.830	0.670	-0.730	0.670
2020/01/31 07:36:39.7	89.820	0.700	-0.740	0.660
2020/01/31 07:36:39.8	89.810	0.730	-0.740	0.650
2020/01/31 07:36:39.9	89.800	0.760	-0.750	0.640
2020/01/31 07:36:40.0	89.790	0.790	-0.750	0.630
2020/01/31 07:36:40.1	89.770	0.820	-0.750	0.630
2020/01/31 07:36:40.2	89.760	0.840	-0.740	0.630
2020/01/31 07:36:40.3	89.750	0.860	-0.730	0.630
2020/01/31 07:36:40.4	89.740	0.870	-0.720	0.630
2020/01/31 07:36:40.5	89.720	0.880	-0.700	0.640
2020/01/31 07:36:40.6	89.710	0.890	-0.680	0.640
2020/01/31 07:36:40.7	89.700	0.890	-0.650	0.650
2020/01/31 07:36:40.8	89.680	0.890	-0.630	0.660
2020/01/31 07:36:40.9	89.670	0.890	-0.590	0.670
2020/01/31 07:36:41.0	89.660	0.880	-0.560	0.670
2020/01/31 07:36:41.1	89.650	0.870	-0.510	0.680
2020/01/31 07:36:41.2	89.640	0.850	-0.470	0.690
2020/01/31 07:36:41.3	89.630	0.830	-0.420	0.700
2020/01/31 07:36:41.4	89.630	0.810	-0.370	0.700
2020/01/31 07:36:41.5	89.620	0.780	-0.320	0.710
2020/01/31 07:36:41.6	89.620	0.750	-0.260	0.710
2020/01/31 07:36:41.7	89.610	0.710	-0.210	0.720
2020/01/31 07:36:41.8	89.610	0.680	-0.150	0.720
2020/01/31 07:36:41.9	89.610	0.640	-0.090	0.720
2020/01/31 07:36:42.0	89.610	0.590	-0.030	0.710
2020/01/31 07:36:42.1	89.610	0.550	0.030	0.710
2020/01/31 07:36:42.2	89.610	0.500	0.090	0.710
2020/01/31 07:36:42.3	89.620	0.460	0.150	0.700
2020/01/31 07:36:42.4	89.620	0.410	0.210	0.690
2020/01/31 07:36:42.5	89.630	0.360	0.270	0.680
2020/01/31 07:36:42.6	89.630	0.310	0.320	0.670
2020/01/31 07:36:42.7	89.640	0.260	0.380	0.660
2020/01/31 07:36:42.8	89.640	0.200	0.430	0.650
2020/01/31 07:36:42.9	89.650	0.150	0.470	0.640
2020/01/31 07:36:43.0	89.650	0.100	0.520	0.630
2020/01/31 07:36:43.1	89.660	0.050	0.550	0.620
2020/01/31 07:36:43.2	89.660	0.010	0.590	0.610
2020/01/31 07:36:43.3	89.660	-0.040	0.620	0.600
2020/01/31 07:36:43.4	89.670	-0.090	0.640	0.590
2020/01/31 07:36:43.5	89.670	-0.130	0.660	0.590
2020/01/31 07:36:43.6	89.680	-0.170	0.680	0.580
2020/01/31 07:36:43.7	89.690	-0.210	0.690	0.570
2020/01/31 07:36:43.8	89.690	-0.250	0.700	0.570
2020/01/31 07:36:43.9	89.700	-0.290	0.700	0.560
2020/01/31 07:36:44.0	89.710	-0.320	0.690	0.560
2020/01/31 07:36:44.1	89.720	-0.350	0.680	0.560
2020/01/31 07:36:44.2	89.730	-0.380	0.660	0.560
2020/01/31 07:36:44.3	89.730	-0.410	0.640	0.560
2020/01/31 07:36:44.4	89.750	-0.440	0.620	0.560
2020/01/31 07:36:44.5	89.760	-0.460	0.590	0.560
2020/01/31 07:36:44.6	89.770	-0.480	0.560	0.560
2020/01/31 07:36:44.7	89.790	-0.500	0.520	0.570
2020/01/31 07:36:44.8	89.810	-0.520	0.480	0.570
2020/01/31 07:36:44.9	89.820	-0.530	0.430	0.580
2020/01/31 07:36:45.0	89.840	-0.550	0.390	0.590
2020/01/31 07:36:45.1	89.860	-0.560	0.340	0.600
2020/01/31 07:36:45.2	89.880	-0.570	0.280	0.610
2020/01/31 07:36:45.3	89.900	-0.580	0.220	0.620
2020/01/31 07:36:45.4	89.920	-0.580	0.170	0.630
2020/01/31 07:36:45.5	89.940	-0.590	0.110	0.650
2020/01/31 07:36:45.6	89.960	-0.590	0.050	0.660
2020/01/31 07:36:45.7	89.980	-0.590	-0.010	0.680
2020/01/31 07:36:45.8	90.000	-0.590	-0.070	0.700
2020/01/31 07:36:45.9	90.020	-0.590	-0.130	0.730
2020/01/31 07:36:46.0	90.040	-0.590	-0.190	0.750
2020/01/31 07:36:46.1	90.060	-0.590	-0.240	0.780
2020/01/31 07:36:46.2	90.070	-0.590	-0.300	0.800
2020/01/31 07:36:46.3	90.090	-0.580	-0.360	0.830
2020/01/31 07:36:46.4	90.110	-0.580	-0.410	0.860
2020/01/31 07:36:46.5	90.120	-0.570	-0.460	0.900
2020/01/31 07:36:46.6	90.140	-0.560	-0.510	0.930
2020/01/31 07:36:46.7	90.150	-0.550	-0.560	0.960
2020/01/31 07:36:46.8	90.160	-0.540	-0.600	1.000
2020/01/31 07:36:46.9	90.180	-0.530	-0.640	1.030
2020/01/31 07:36:47.0	90.190	-0.520	-0.670	1.070
2020/01/31 07:36:47.1	90.200	-0.510	-0.700	1.100
2020/01/31 07:36:47.2	90.210	-0.500	-0.730	1.140
2020/01/31 07:36:47.3	90.220	-0.480	-0.750	1.170
2020/01/31 07:36:47.4	90.230	-0.470	-0.770	1.210
2020/01/31 07:36:47.5	90.240	-0.450	-0.780	1.240
2020/01/31 07:36:47.6	90.240	-0.440	-0.790	1.270
2020/01/31 07:36:47.7	90.250	-0.420	-0.790	1.300
2020/01/31 07:36:47.8	90.250	-0.400	-0.780	1.340
2020/01/31 07:36:47.9	90.260	-0.390	-0.770	1.370
2020/01/31 07:36:48.0	90.260	-0.370	-0.760	1.390
2020/01/31 07:36:48.1	90.260	-0.350	-0.740	1.420
2020/01/31 07:36:48.2	90.260	-0.330	-0.710	1.450
2020/01/31 07:36:48.3	90.250	-0.310	-0.690	1.470
2020/01/31 07:36:48.4	90.250	-0.290	-0.650	1.500
2020/01/31 07:36:48.5	90.240	-0.280	-0.610	1.520
2020/01/31 07:36:48.6	90.240	-0.260	-0.570	1.540
2020/01/31 07:36:48.7	90.230	-0.240	-0.530	1.560
2020/01/31 07:36:48.8	90.230	-0.220	-0.480	1.570
2020/01/31 07:36:48.9	90.220	-0.200	-0.430	1.590
2020/01/31 07:36:49.0	90.210	-0.190	-0.380	1.600
2020/01/31 07:36:49.1	90.200	-0.170	-0.330	1.610
2020/01/31 07:36:49.2	90.190	-0.150	-0.270	1.630
2020/01/31 07:36:49.3	90.180	-0.140	-0.210	1.640
2020/01/31 07:36:49.4	90.170	-0.120	-0.160	1.640
2020/01/31 07:36:49.5	90.150	-0.100	-0.110	1.650
2020/01/31 07:36:49.6	90.140	-0.090	-0.060	1.660
2020/01/31 07:36:49.7	90.130	-0.080	-0.010	1.670
2020/01/31 07:36:49.8	90.110	-0.060	0.030	1.670
2020/01/31 07:36:49.9	90.100	-0.050	0.070	1.680
2020/01/31 07:36:50.0	90.080	-0.040	0.110	1.690
2020/01/31 07:36:50.1	90.060	-0.020	0.140	1.690
2020/01/31 07:36:50.2	90.050	-0.010	0.170	1.700
2020/01/31 07:36:50.3	90.030	-0.000	0.190	1.700
2020/01/31 07:36:50.4	90.010	0.010	0.210	1.710
2020/01/31 07:36:50.5	89.990	0.020	0.230	1.710
2020/01/31 07:36:50.6	89.970	0.030	0.230	1.720
2020/01/31 07:36:50.7	89.950	0.040	0.240	1.720
2020/01/31 07:36:50.8	89.930	0.050	0.240	1.710
2020/01/31 07:36:50.9	89.910	0.060	0.230	1.710
2020/01/31 07:36:51.0	89.900	0.070	0.210	1.700
2020/01/31 07:36:51.1	89.880	0.080	0.200	1.690
2020/01/31 07:36:51.2	89.870	0.090	0.170	1.680
2020/01/31 07:36:51.3	89.860	0.100	0.150	1.660
2020/01/31 07:36:51.4	89.850	0.110	0.120	1.640
2020/01/31 07:36:51.5	89.840	0.120	0.080	1.610
2020/01/31 07:36:51.6	89.830	0.130	0.050	1.570
2020/01/31 07:36:51.7	89.830	0.130	0.010	1.530
2020/01/31 07:36:51.8	89.830	0.140	-0.030	1.490
2020/01/31 07:36:51.9	89.840	0.150	-0.070	1.440
2020/01/31 07:36:52.0	89.840	0.160	-0.110	1.390
2020/01/31 07:36:52.1	89.850	0.170	-0.150	1.330
2020/01/31 07:36:52.2	89.860	0.180	-0.190	1.260
2020/01/31 07:36:52.3	89.860	0.190	-0.230	1.190
2020/01/31 07:36:52.4	89.880	0.190	-0.270	1.120
2020/01/31 07:36:52.5	89.890	0.200	-0.310	1.050
2020/01/31 07:36:52.6	89.910	0.210	-0.340	0.970
2020/01/31 07:36:52.7	89.930	0.220	-0.370	0.890
2020/01/31 07:36:52.8	89.950	0.230	-0.400	0.810
2020/01/31 07:36:52.9	89.970	0.230	-0.420	0.730
2020/01/31 07:36:53.0	90.000	0.240	-0.440	0.650
2020/01/31 07:36:53.1	90.020	0.250	-0.460	0.570
2020/01/31 07:36:53.2	90.040	0.250	-0.470	0.490
2020/01/31 07:36:53.3	90.060	0.260	-0.480	0.410
2020/01/31 07:36:53.4	90.080	0.270	-0.490	0.340
2020/01/31 07:36:53.5	90.100	0.270	-0.490	0.260
2020/01/31 07:36:53.6	90.110	0.280	-0.490	0.190
2020/01/31 07:36:53.7	90.130	0.280	-0.480	0.120
2020/01/31 07:36:53.8	90.140	0.290	-0.480	0.060
2020/01/31 07:36:53.9	90.150	0.290	-0.470	-0.000
2020/01/31 07:36:54.0	90.160	0.290	-0.460	-0.060
2020/01/31 07:36:54.1	90.170	0.300	-0.440	-0.110
2020/01/31 07:36:54.2	90.170	0.300	-0.430	-0.160
2020/01/31 07:36:54.3	90.180	0.300	-0.410	-0.200
2020/01/31 07:36:54.4	90.180	0.310	-0.390	-0.240
2020/01/31 07:36:54.5	90.180	0.310	-0.370	-0.280
2020/01/31 07:36:54.6	90.180	0.310	-0.350	-0.310
2020/01/31 07:36:54.7	90.180	0.310	-0.330	-0.340
2020/01/31 07:36:54.8	90.180	0.310	-0.310	-0.360
2020/01/31 07:36:54.9	90.180	0.310	-0.290	-0.380
2020/01/31 07:36:55.0	90.170	0.320	-0.270	-0.390
2020/01/31 07:36:55.1	90.170	0.320	-0.250	-0.400
2020/01/31 07:36:55.2	90.160	0.320	-0.230	-0.400
2020/01/31 07:36:55.3	90.170	0.320	-0.210	-0.400
2020/01/31 07:36:55.4	90.160	0.320	-0.200	-0.400
2020/01/31 07:36:55.5	90.160	0.320	-0.180	-0.390
2020/01/31 07:36:55.6	90.150	0.320	-0.160	-0.380
2020/01/31 07:36:55.7	90.150	0.320	-0.140	-0.360
2020/01/31 07:36:55.8	90.140	0.320	-0.130	-0.340
2020/01/31 07:36:55.9	90.140	0.310	-0.110	-0.320
2020/01/31 07:36:56.0	90.130	0.310	-0.100	-0.290
2020/01/31 07:36:56.1	90.130	0.310	-0.090	-0.260
2020/01/31 07:36:56.2	90.120	0.310	-0.080	-0.230
2020/01/31 07:36:56.3	90.110	0.310	-0.070	-0.190
2020/01/31 07:36:56.4	90.100	0.310	-0.060	-0.150
2020/01/31 07:36:56.5	90.100	0.310	-0.050	-0.110
2020/01/31 07:36:56.6	90.090	0.300	-0.040	-0.070
2020/01/31 07:36:56.7	90.090	0.300	-0.040	-0.020
2020/01/31 07:36:56.8	90.080	0.290	-0.030	0.030
2020/01/31 07:36:56.9	90.070	0.290	-0.020	0.080
2020/01/31 07:36:57.0	90.060	0.280	-0.020	0.140
2020/01/31 07:36:57.1	90.060	0.280	-0.010	0.200
2020/01/31 07:36:57.2	90.050	0.270	-0.010	0.250
2020/01/31 07:36:57.3	90.040	0.260	-0.000	0.320
2020/01/31 07:36:57.4	90.030	0.250	0.000	0.380
2020/01/31 07:36:57.5	90.020	0.240	0.000	0.440
2020/01/31 07:36:57.6	90.020	0.230	0.010	0.500
2020/01/31 07:36:57.7	90.010	0.220	0.010	0.570
2020/01/31 07:36:57.8	90.000	0.210	0.010	0.630
2020/01/31 07:36:57.9	89.990	0.190	0.010	0.690
2020/01/31 07:36:58.0	89.980	0.180	0.010	0.750
2020/01/31 07:36:58.1	89.980	0.170	0.000	0.810
2020/01/31 07:36:58.2	89.970	0.150	0.000	0.870
2020/01/31 07:36:58.3	89.960	0.130	-0.010	0.930
2020/01/31 07:36:58.4	89.960	0.120	-0.010	0.980
2020/01/31 07:36:58.5	89.950	0.100	-0.010	1.040
2020/01/31 07:36:58.6	89.950	0.080	-0.020	1.090
2020/01/31 07:36:58.7	89.950	0.060	-0.030	1.140
2020/01/31 07:36:58.8	89.950	0.040	-0.030	1.180
2020/01/31 07:36:58.9	89.950	0.020	-0.040	1.220
2020/01/31 07:36:59.0	89.950	0.000	-0.040	1.260
2020/01/31 07:36:59.1	89.950	-0.020	-0.050	1.300
2020/01/31 07:36:59.2	89.960	-0.040	-0.060	1.340
2020/01/31 07:36:59.3	89.960	-0.060	-0.070	1.370
2020/01/31 07:36:59.4	89.970	-0.080	-0.070	1.400
2020/01/31 07:36:59.5	89.970	-0.110	-0.080	1.430
2020/01/31 07:36:59.6	89.980	-0.130	-0.080	1.460
2020/01/31 07:36:59.7	89.990	-0.150	-0.080	1.490
2020/01/31 07:36:59.8	90.000	-0.170	-0.080	1.510
2020/01/31 07:36:59.9	90.010	-0.190	-0.080	1.530
2020/01/31 07:37:00.0	90.020	-0.210	-0.080	1.550
2020/01/31 07:37:00.1	90.030	-0.230	-0.080	1.570
2020/01/31 07:37:00.2	90.040	-0.260	-0.070	1.590
2020/01/31 07:37:00.3	90.060	-0.280	-0.060	1.600
2020/01/31 07:37:00.4	90.080	-0.300	-0.060	1.620
2020/01/31 07:37:00.5	90.090	-0.320	-0.050	1.630
2020/01/31 07:37:00.6	90.110	-0.330	-0.040	1.640
2020/01/31 07:37:00.7	90.130	-0.350	-0.030	1.650
2020/01/31 07:37:00.8	90.150	-0.370	-0.020	1.660
2020/01/31 07:37:00.9	90.160	-0.390	-0.010	1.670
2020/01/31 07:37:01.0	90.180	-0.400	0.010	1.680
2020/01/31 07:37:01.1	90.200	-0.420	0.020	1.690
2020/01/31 07:37:01.2	90.220	-0.430	0.030	1.690
2020/01/31 07:37:01.3	90.240	-0.440	0.040	1.700
2020/01/31 07:37:01.4	90.260	-0.450	0.060	1.710
2020/01/31 07:37:01.5	90.280	-0.460	0.070	1.710
2020/01/31 07:37:01.6	90.290	-0.470	0.080	1.720
2020/01/31 07:37:01.7	90.310	-0.480	0.100	1.720
2020/01/31 07:37:01.8	90.330	-0.480	0.110	1.730
2020/01/31 07:37:01.9	90.340	-0.490	0.120	1.730
2020/01/31 07:37:02.0	90.350	-0.490	0.130	1.730
2020/01/31 07:37:02.1	90.360	-0.490	0.140	1.740
2020/01/31 07:37:02.2	90.360	-0.490	0.140	1.750
2020/01/31 07:37:02.3	90.380	-0.490	0.150	1.750
2020/01/31 07:37:02.4	90.380	-0.490	0.150	1.760
2020/01/31 07:37:02.5	90.380	-0.480	0.150	1.760
2020/01/31 07:37:02.6	90.380	-0.480	0.150	1.770
2020/01/31 07:37:02.7	90.370	-0.470	0.140	1.780
2020/01/31 07:37:02.8	90.370	-0.460	0.130	1.780
2020/01/31 07:37:02.9	90.360	-0.450	0.120	1.790
2020/01/31 07:37:03.0	90.350	-0.430	0.110	1.790
2020/01/31 07:37:03.1	90.340	-0.420	0.090	1.800
2020/01/31 07:37:03.2	90.330	-0.400	0.070	1.800
2020/01/31 07:37:03.3	90.310	-0.390	0.040	1.810
2020/01/31 07:37:03.4	90.300	-0.370	0.010	1.810
2020/01/31 07:37:03.5	90.280	-0.350	-0.020	1.810
2020/01/31 07:37:03.6	90.270	-0.330	-0.050	1.810
2020/01/31 07:37:03.7	90.250	-0.300	-0.090	1.810
2020/01/31 07:37:03.8	90.240	-0.280	-0.130	1.800
2020/01/31 07:37:03.9	90.220	-0.260	-0.170	1.800
2020/01/31 07:37:04.0	90.210	-0.230	-0.220	1.790
2020/01/31 07:37:04.1	90.200	-0.210	-0.270	1.780
2020/01/31 07:37:04.2	90.190	-0.180	-0.310	1.760
2020/01/31 07:37:04.3	90.170	-0.160	-0.360	1.750
2020/01/31 07:37:04.4	90.160	-0.130	-0.410	1.730
2020/01/31 07:37:04.5	90.160	-0.110	-0.460	1.710
2020/01/31 07:37:04.6	90.150	-0.080	-0.510	1.690
2020/01/31 07:37:04.7	90.140	-0.060	-0.560	1.670
2020/01/31 07:37:04.8	90.140	-0.040	-0.610	1.640
2020/01/31 07:37:04.9	90.140	-0.010	-0.650	1.620
2020/01/31 07:37:05.0	90.140	0.010	-0.700	1.590
2020/01/31 07:37:05.1	90.140	0.030	-0.740	1.560
2020/01/31 07:37:05.2	90.140	0.050	-0.770	1.520
2020/01/31 07:37:05.3	90.150	0.060	-0.810	1.490
2020/01/31 07:37:05.4	90.150	0.080	-0.840	1.460
2020/01/31 07:37:05.5	90.150	0.090	-0.860	1.420
2020/01/31 07:37:05.6	90.160	0.110	-0.880	1.380
2020/01/31 07:37:05.7	90.160	0.120	-0.900	1.340
2020/01/31 07:37:05.8	90.170	0.130	-0.910	1.310
2020/01/31 07:37:05.9	90.170	0.130	-0.910	1.260
2020/01/31 07:37:06.0	90.180	0.140	-0.920	1.220
2020/01/31 07:37:06.1	90.180	0.140	-0.910	1.180
2020/01/31 07:37:06.2	90.190	0.140	-0.900	1.140
2020/01/31 07:37:06.3	90.200	0.140	-0.890	1.100
2020/01/31 07:37:06.4	90.210	0.140	-0.870	1.050
2020/01/31 07:37:06.5	90.210	0.140	-0.840	1.010
2020/01/31 07:37:06.6	90.220	0.140	-0.810	0.960
2020/01/31 07:37:06.7	90.220	0.130	-0.780	0.920
2020/01/31 07:37:06.8	90.230	0.130	-0.740	0.870
2020/01/31 07:37:06.9	90.230	0.120	-0.700	0.820
2020/01/31 07:37:07.0	90.240	0.110	-0.660	0.780
2020/01/31 07:37:07.1	90.240	0.100	-0.610	0.730
2020/01/31 07:37:07.2	90.250	0.090	-0.560	0.680
2020/01/31 07:37:07.3	90.250	0.080	-0.510	0.640
2020/01/31 07:37:07.4	90.260	0.070	-0.460	0.590
2020/01/31 07:37:07.5	90.260	0.060	-0.400	0.550
2020/01/31 07:37:07.6	90.270	0.050	-0.340	0.500
2020/01/31 07:37:07.7	90.270	0.040	-0.290	0.450
2020/01/31 07:37:07.8	90.270	0.030	-0.230	0.410
2020/01/31 07:37:07.9	90.280	0.030	-0.170	0.360
2020/01/31 07:37:08.0	90.280	0.020	-0.120	0.320
2020/01/31 07:37:08.1	90.280	0.010	-0.060	0.280
2020/01/31 07:37:08.2	90.280	0.010	-0.010	0.230
2020/01/31 07:37:08.3	90.280	0.000	0.040	0.190
2020/01/31 07:37:08.4	90.280	-0.000	0.100	0.150
2020/01/31 07:37:08.5	90.280	-0.000	0.150	0.110
2020/01/31 07:37:08.6	90.280	-0.010	0.190	0.070
2020/01/31 07:37:08.7	90.270	-0.010	0.240	0.030
2020/01/31 07:37:08.8	90.260	-0.010	0.280	-0.000
2020/01/31 07:37:08.9	90.260	-0.000	0.320	-0.040
2020/01/31 07:37:09.0	90.250	0.000	0.360	-0.070
2020/01/31 07:37:09.1	90.230	0.000	0.400	-0.100
2020/01/31 07:37:09.2	90.220	0.010	0.430	-0.130
2020/01/31 07:37:09.3	90.200	0.020	0.460	-0.150
2020/01/31 07:37:09.4	90.190	0.020	0.480	-0.180
2020/01/31 07:37:09.5	90.170	0.030	0.500	-0.200
2020/01/31 07:37:09.6	90.150	0.040	0.520	-0.220
2020/01/31 07:37:09.7	90.130	0.050	0.540	-0.240
2020/01/31 07:37:09.8	90.110	0.060	0.550	-0.250
2020/01/31 07:37:09.9	90.090	0.070	0.560	-0.260
2020/01/31 07:37:10.0	90.070	0.080	0.570	-0.270
2020/01/31 07:37:10.1	90.050	0.090	0.570	-0.280
2020/01/31 07:37:10.2	90.020	0.090	0.570	-0.290
2020/01/31 07:37:10.3	90.000	0.100	0.560	-0.300
2020/01/31 07:37:10.4	89.980	0.110	0.550	-0.300
2020/01/31 07:37:10.5	89.960	0.120	0.540	-0.300
2020/01/31 07:37:10.6	89.940	0.130	0.520	-0.300
2020/01/31 07:37:10.7	89.920	0.140	0.500	-0.300
2020/01/31 07:37:10.8	89.910	0.150	0.480	-0.290
2020/01/31 07:37:10.9	89.890	0.160	0.450	-0.290
2020/01/31 07:37:11.0	89.880	0.170	0.420	-0.280
2020/01/31 07:37:11.1	89.880	0.170	0.390	-0.270
2020/01/31 07:37:11.2	89.870	0.180	0.350	-0.270
2020/01/31 07:37:11.3	89.870	0.190	0.300	-0.260
2020/01/31 07:37:11.4	89.870	0.190	0.260	-0.250
2020/01/31 07:37:11.5	89.870	0.200	0.210	-0.240
2020/01/31 07:37:11.6	89.880	0.210	0.160	-0.230
2020/01/31 07:37:11.7	89.890	0.210	0.110	-0.220
2020/01/31 07:37:11.8	89.900	0.220	0.060	-0.210
2020/01/31 07:37:11.9	89.920	0.220	0.000	-0.200
2020/01/31 07:37:12.0	89.940	0.230	-0.050	-0.190
2020/01/31 07:37:12.1	89.960	0.230	-0.110	-0.170
2020/01/31 07:37:12.2	89.990	0.240	-0.160	-0.160
2020/01/31 07:37:12.3	90.010	0.240	-0.220	-0.140
2020/01/31 07:37:12.4	90.040	0.250	-0.280	-0.130
2020/01/31 07:37:12.5	90.070	0.250	-0.330	-0.110
2020/01/31 07:37:12.6	90.100	0.250	-0.380	-0.090
2020/01/31 07:37:12.7	90.130	0.260	-0.430	-0.060
2020/01/31 07:37:12.8	90.160	0.260	-0.480	-0.040
2020/01/31 07:37:12.9	90.190	0.260	-0.530	-0.010
2020/01/31 07:37:13.0	90.230	0.260	-0.570	0.020
2020/01/31 07:37:13.1	90.260	0.260	-0.610	0.050
2020/01/31 07:37:13.2	90.290	0.260	-0.640	0.090
2020/01/31 07:37:13.3	90.320	0.260	-0.680	0.130
2020/01/31 07:37:13.4	90.350	0.260	-0.700	0.170
2020/01/31 07:37:13.5	90.380	0.260	-0.730	0.210
2020/01/31 07:37:13.6	90.400	0.260	-0.750	0.260
2020/01/31 07:37:13.7	90.430	0.250	-0.760	0.310
2020/01/31 07:37:13.8	90.450	0.250	-0.770	0.360
2020/01/31 07:37:13.9	90.470	0.240	-0.770	0.410
2020/01/31 07:37:14.0	90.490	0.240	-0.770	0.470
2020/01/31 07:37:14.1	90.510	0.230	-0.770	0.520
2020/01/31 07:37:14.2	90.530	0.220	-0.760	0.580
2020/01/31 07:37:14.3	90.550	0.220	-0.750	0.650
2020/01/31 07:37:14.4	90.560	0.210	-0.730	0.710
2020/01/31 07:37:14.5	90.570	0.200	-0.710	0.770
2020/01/31 07:37:14.6	90.580	0.190	-0.680	0.840
2020/01/31 07:37:14.7	90.590	0.170	-0.650	0.910
2020/01/31 07:37:14.8	90.600	0.160	-0.610	0.980
2020/01/31 07:37:14.9	90.600	0.150	-0.570	1.050
2020/01/31 07:37:15.0	90.600	0.140	-0.530	1.120
2020/01/31 07:37:15.1	90.610	0.120	-0.490	1.200
2020/01/31 07:37:15.2	90.610	0.110	-0.440	1.280
2020/01/31 07:37:15.3	90.600	0.090	-0.390	1.360
2020/01/31 07:37:15.4	90.600	0.080	-0.340	1.430
2020/01/31 07:37:15.5	90.600	0.060	-0.290	1.510
2020/01/31 07:37:15.6	90.590	0.040	-0.240	1.600
2020/01/31 07:37:15.7	90.580	0.030	-0.190	1.680
2020/01/31 07:37:15.8	90.570	0.010	-0.140	1.760
2020/01/31 07:37:15.9	90.560	-0.010	-0.090	1.850
2020/01/31 07:37:16.0	90.550	-0.020	-0.050	1.930
2020/01/31 07:37:16.1	90.530	-0.040	-0.000	2.020
2020/01/31 07:37:16.2	90.520	-0.060	0.040	2.100
2020/01/31 07:37:16.3	90.500	-0.080	0.080	2.180
2020/01/31 07:37:16.4	90.480	-0.090	0.120	2.270
2020/01/31 07:37:16.5	90.460	-0.110	0.160	2.350
2020/01/31 07:37:16.6	90.440	-0.130	0.190	2.430
2020/01/31 07:37:16.7	90.410	-0.150	0.220	2.510
2020/01/31 07:37:16.8	90.390	-0.160	0.240	2.590
2020/01/31 07:37:16.9	90.370	-0.180	0.260	2.660
2020/01/31 07:37:17.0	90.340	-0.200	0.280	2.730
2020/01/31 07:37:17.1	90.320	-0.210	0.290	2.800
2020/01/31 07:37:17.2	90.290	-0.230	0.300	2.860
2020/01/31 07:37:17.3	90.260	-0.240	0.300	2.920
2020/01/31 07:37:17.4	90.230	-0.260	0.300	2.980
2020/01/31 07:37:17.5	90.210	-0.270	0.300	3.030
2020/01/31 07:37:17.6	90.190	-0.290	0.300	3.070
2020/01/31 07:37:17.7	90.170	-0.300	0.290	3.110
2020/01/31 07:37:17.8	90.150	-0.310	0.270	3.140
2020/01/31 07:37:17.9	90.130	-0.320	0.260	3.170
2020/01/31 07:37:18.0	90.110	-0.330	0.240	3.190
2020/01/31 07:37:18.1	90.090	-0.340	0.210	3.200
2020/01/31 07:37:18.2	90.080	-0.350	0.190	3.210
2020/01/31 07:37:18.3	90.060	-0.350	0.160	3.210
2020/01/31 07:37:18.4	90.050	-0.360	0.130	3.200
2020/01/31 07:37:18.5	90.040	-0.360	0.090	3.180
2020/01/31 07:37:18.6	90.040	-0.360	0.060	3.160
2020/01/31 07:37:18.7	90.030	-0.360	0.020	3.130
2020/01/31 07:37:18.8	90.030	-0.360	-0.010	3.090
2020/01/31 07:37:18.9	90.030	-0.350	-0.050	3.050
2020/01/31 07:37:19.0	90.040	-0.350	-0.090	2.990
2020/01/31 07:37:19.1	90.040	-0.340	-0.130	2.930
2020/01/31 07:37:19.2	90.050	-0.330	-0.170	2.870
2020/01/31 07:37:19.3	90.060	-0.320	-0.210	2.790
2020/01/31 07:37:19.4	90.070	-0.310	-0.250	2.710
2020/01/31 07:37:19.5	90.080	-0.300	-0.280	2.630
2020/01/31 07:37:19.6	90.100	-0.280	-0.310	2.530
2020/01/31 07:37:19.7	90.110	-0.260	-0.350	2.430
2020/01/31 07:37:19.8	90.130	-0.250	-0.380	2.330
2020/01/31 07:37:19.9	90.150	-0.230	-0.400	2.220
2020/01/31 07:37:20.0	90.170	-0.210	-0.430	2.110
2020/01/31 07:37:20.1	90.180	-0.190	-0.440	2.000
2020/01/31 07:37:20.2	90.200	-0.170	-0.460	1.880
2020/01/31 07:37:20.3	90.220	-0.150	-0.470	1.760
2020/01/31 07:37:20.4	90.240	-0.130	-0.480	1.640
2020/01/31 07:37:20.5	90.260	-0.110	-0.490	1.520
2020/01/31 07:37:20.6	90.280	-0.090	-0.490	1.400
2020/01/31 07:37:20.7	90.290	-0.070	-0.490	1.270
2020/01/31 07:37:20.8	90.310	-0.050	-0.480	1.150
2020/01/31 07:37:20.9	90.330	-0.030	-0.470	1.040
2020/01/31 07:37:21.0	90.340	-0.020	-0.460	0.920
2020/01/31 07:37:21.1	90.360	-0.000	-0.440	0.800
2020/01/31 07:37:21.2	90.370	0.010	-0.420	0.690
2020/01/31 07:37:21.3	90.400	0.030	-0.400	0.580
2020/01/31 07:37:21.4	90.410	0.040	-0.380	0.480
2020/01/31 07:37:21.5	90.420	0.050	-0.360	0.380
2020/01/31 07:37:21.6	90.430	0.060	-0.330	0.280
2020/01/31 07:37:21.7	90.440	0.070	-0.310	0.180
2020/01/31 07:37:21.8	90.450	0.080	-0.280	0.090
2020/01/31 07:37:21.9	90.450	0.090	-0.250	0.010
2020/01/31 07:37:22.0	90.460	0.090	-0.230	-0.070
2020/01/31 07:37:22.1	90.460	0.090	-0.200	-0.150
2020/01/31 07:37:22.2	90.470	0.090	-0.180	-0.230
2020/01/31 07:37:22.3	90.470	0.090	-0.150	-0.290
2020/01/31 07:37:22.4	90.470	0.090	-0.130	-0.360
2020/01/31 07:37:22.5	90.470	0.090	-0.120	-0.420
2020/01/31 07:37:22.6	90.470	0.090	-0.100	-0.480
2020/01/31 07:37:22.7	90.470	0.080	-0.080	-0.530
2020/01/31 07:37:22.8	90.460	0.080	-0.070	-0.580
2020/01/31 07:37:22.9	90.460	0.070	-0.060	-0.630
2020/01/31 07:37:23.0	90.450	0.070	-0.060	-0.670
2020/01/31 07:37:23.1	90.450	0.060	-0.050	-0.710
2020/01/31 07:37:23.2	90.440	0.050	-0.050	-0.740
2020/01/31 07:37:23.3	90.420	0.040	-0.060	-0.780
2020/01/31 07:37:23.4	90.420	0.040	-0.060	-0.800
2020/01/31 07:37:23.5	90.410	0.030	-0.070	-0.830
2020/01/31 07:37:23.6	90.400	0.020	-0.080	-0.850
2020/01/31 07:37:23.7	90.390	0.010	-0.080	-0.870
2020/01/31 07:37:23.8	90.380	0.000	-0.100	-0.890
2020/01/31 07:37:23.9	90.370	-0.010	-0.110	-0.900
2020/01/31 07:37:24.0	90.360	-0.020	-0.120	-0.910
2020/01/31 07:37:24.1	90.350	-0.020	-0.130	-0.920
2020/01/31 07:37:24.2	90.340	-0.030	-0.150	-0.920
2020/01/31 07:37:24.3	90.340	-0.040	-0.160	-0.920
2020/01/31 07:37:24.4	90.330	-0.040	-0.180	-0.920
2020/01/31 07:37:24.5	90.320	-0.050	-0.190	-0.920
2020/01/31 07:37:24.6	90.320	-0.060	-0.200	-0.910
2020/01/31 07:37:24.7	90.310	-0.060	-0.210	-0.900
2020/01/31 07:37:24.8	90.310	-0.060	-0.210	-0.890
2020/01/31 07:37:24.9	90.300	-0.070	-0.220	-0.880
2020/01/31 07:37:25.0	90.300	-0.070	-0.220	-0.860
2020/01/31 07:37:25.1	90.300	-0.070	-0.220	-0.850
2020/01/31 07:37:25.2	90.290	-0.070	-0.220	-0.830
2020/01/31 07:37:25.3	90.300	-0.070	-0.220	-0.810
2020/01/31 07:37:25.4	90.300	-0.060	-0.210	-0.780
2020/01/31 07:37:25.5	90.300	-0.060	-0.210	-0.760
2020/01/31 07:37:25.6	90.290	-0.060	-0.200	-0.730
2020/01/31 07:37:25.7	90.290	-0.050	-0.190	-0.700
2020/01/31 07:37:25.8	90.290	-0.040	-0.180	-0.670
2020/01/31 07:37:25.9	90.290	-0.030	-0.170	-0.630
2020/01/31 07:37:26.0	90.290	-0.030	-0.150	-0.590
2020/01/31 07:37:26.1	90.290	-0.020	-0.140	-0.550
2020/01/31 07:37:26.2	90.290	-0.000	-0.130	-0.510
2020/01/31 07:37:26.3	90.280	0.010	-0.110	-0.460
2020/01/31 07:37:26.4	90.280	0.020	-0.100	-0.410
2020/01/31 07:37:26.5	90.280	0.040	-0.090	-0.360
2020/01/31 07:37:26.6	90.270	0.050	-0.080	-0.310
2020/01/31 07:37:26.7	90.270	0.070	-0.070	-0.250
2020/01/31 07:37:26.8	90.260	0.080	-0.060	-0.190
2020/01/31 07:37:26.9	90.250	0.100	-0.050	-0.130
2020/01/31 07:37:27.0	90.250	0.120	-0.050	-0.060
2020/01/31 07:37:27.1	90.240	0.130	-0.040	0.000
2020/01/31 07:37:27.2	90.230	0.150	-0.040	0.070
2020/01/31 07:37:27.3	90.230	0.170	-0.050	0.150
2020/01/31 07:37:27.4	90.220	0.180	-0.050	0.220
2020/01/31 07:37:27.5	90.210	0.200	-0.050	0.290
2020/01/31 07:37:27.6	90.200	0.220	-0.060	0.370
2020/01/31 07:37:27.7	90.190	0.230	-0.060	0.450
2020/01/31 07:37:27.8	90.190	0.250	-0.070	0.520
2020/01/31 07:37:27.9	90.180	0.260	-0.080	0.600
2020/01/31 07:37:28.0	90.170	0.270	-0.090	0.680
2020/01/31 07:37:28.1	90.170	0.290	-0.100	0.760
2020/01/31 07:37:28.2	90.160	0.300	-0.110	0.830
2020/01/31 07:37:28.3	90.160	0.310	-0.120	0.910
2020/01/31 07:37:28.4	90.160	0.310	-0.130	0.980
2020/01/31 07:37:28.5	90.160	0.320	-0.140	1.050
2020/01/31 07:37:28.6	90.160	0.330	-0.160	1.130
2020/01/31 07:37:28.7	90.160	0.330	-0.170	1.190
2020/01/31 07:37:28.8	90.160	0.330	-0.170	1.260
2020/01/31 07:37:28.9	90.170	0.330	-0.180	1.320
2020/01/31 07:37:29.0	90.170	0.330	-0.190	1.380
2020/01/31 07:37:29.1	90.180	0.330	-0.200	1.440
2020/01/31 07:37:29.2	90.190	0.320	-0.200	1.490
2020/01/31 07:37:29.3	90.210	0.310	-0.200	1.540
2020/01/31 07:37:29.4	90.220	0.310	-0.210	1.590
2020/01/31 07:37:29.5	90.240	0.300	-0.210	1.630
2020/01/31 07:37:29.6	90.260	0.280	-0.200	1.670
2020/01/31 07:37:29.7	90.280	0.270	-0.200	1.710
2020/01/31 07:37:29.8	90.300	0.260	-0.190	1.750
2020/01/31 07:37:29.9	90.320	0.240	-0.180	1.780
2020/01/31 07:37:30.0	90.340	0.220	-0.170	1.810
2020/01/31 07:37:30.1	90.360	0.200	-0.160	1.840
2020/01/31 07:37:30.2	90.380	0.180	-0.150	1.870
2020/01/31 07:37:30.3	90.410	0.160	-0.140	1.890
2020/01/31 07:37:30.4	90.430	0.140	-0.120	1.920
2020/01/31 07:37:30.5	90.460	0.110	-0.110	1.940
2020/01/31 07:37:30.6	90.480	0.090	-0.090	1.970
2020/01/31 07:37:30.7	90.500	0.060	-0.070	1.990
2020/01/31 07:37:30.8	90.520	0.040	-0.060	2.020
2020/01/31 07:37:30.9	90.530	0.010	-0.040	2.040
2020/01/31 07:37:31.0	90.550	-0.020	-0.020	2.070
2020/01/31 07:37:31.1	90.570	-0.040	-0.000	2.090
2020/01/31 07:37:31.2	90.580	-0.070	0.010	2.120
2020/01/31 07:37:31.3	90.580	-0.100	0.030	2.140
2020/01/31 07:37:31.4	90.590	-0.120	0.040	2.170
2020/01/31 07:37:31.5	90.600	-0.150	0.050	2.190
2020/01/31 07:37:31.6	90.610	-0.170	0.060	2.220
2020/01/31 07:37:31.7	90.610	-0.200	0.070	2.240
2020/01/31 07:37:31.8	90.620	-0.220	0.070	2.270
2020/01/31 07:37:31.9	90.620	-0.240	0.070	2.290
2020/01/31 07:37:32.0	90.620	-0.260	0.080	2.320
2020/01/31 07:37:32.1	90.610	-0.270	0.070	2.340
2020/01/31 07:37:32.2	90.610	-0.290	0.070	2.370
2020/01/31 07:37:32.3	90.590	-0.300	0.060	2.390
2020/01/31 07:37:32.4	90.580	-0.310	0.050	2.410
2020/01/31 07:37:32.5	90.570	-0.320	0.040	2.430
2020/01/31 07:37:32.6	90.550	-0.330	0.020	2.450
2020/01/31 07:37:32.7	90.540	-0.340	0.010	2.470
2020/01/31 07:37:32.8	90.520	-0.340	-0.010	2.480
2020/01/31 07:37:32.9	90.500	-0.340	-0.030	2.490
2020/01/31 07:37:33.0	90.480	-0.340	-0.050	2.500
2020/01/31 07:37:33.1	90.460	-0.340	-0.080	2.510
2020/01/31 07:37:33.2	90.440	-0.330	-0.100	2.510
2020/01/31 07:37:33.3	90.420	-0.320	-0.130	2.510
2020/01/31 07:37:33.4	90.400	-0.320	-0.150	2.500
2020/01/31 07:37:33.5	90.380	-0.300	-0.180	2.490
2020/01/31 07:37:33.6	90.360	-0.290	-0.200	2.470
2020/01/31 07:37:33.7	90.340	-0.280	-0.230	2.450
2020/01/31 07:37:33.8	90.330	-0.260	-0.250	2.420
2020/01/31 07:37:33.9	90.310	-0.250	-0.280	2.380
2020/01/31 07:37:34.0	90.300	-0.230	-0.300	2.340
2020/01/31 07:37:34.1	90.280	-0.210	-0.320	2.300
2020/01/31 07:37:34.2	90.270	-0.190	-0.350	2.250
2020/01/31 07:37:34.3	90.250	-0.170	-0.370	2.200
2020/01/31 07:37:34.4	90.240	-0.150	-0.390	2.140
2020/01/31 07:37:34.5	90.230	-0.130	-0.410	2.080
2020/01/31 07:37:34.6	90.230	-0.110	-0.430	2.010
2020/01/31 07:37:34.7	90.220	-0.090	-0.450	1.950
2020/01/31 07:37:34.8	90.210	-0.070	-0.460	1.880
2020/01/31 07:37:34.9	90.210	-0.050	-0.480	1.800
2020/01/31 07:37:35.0	90.200	-0.020	-0.490	1.730
2020/01/31 07:37:35.1	90.200	-0.000	-0.500	1.650
2020/01/31 07:37:35.2	90.200	0.020	-0.510	1.570
2020/01/31 07:37:35.3	90.200	0.040	-0.520	1.490
2020/01/31 07:37:35.4	90.200	0.060	-0.530	1.410
2020/01/31 07:37:35.5	90.200	0.080	-0.530	1.320
2020/01/31 07:37:35.6	90.200	0.090	-0.530	1.240
2020/01/31 07:37:35.7	90.200	0.110	-0.530	1.150
2020/01/31 07:37:35.8	90.200	0.120	-0.530	1.070
2020/01/31 07:37:35.9	90.210	0.140	-0.520	0.980
2020/01/31 07:37:36.0	90.210	0.150	-0.510	0.900
2020/01/31 07:37:36.1	90.220	0.160	-0.500	0.810
2020/01/31 07:37:36.2	90.220	0.160	-0.480	0.730
2020/01/31 07:37:36.3	90.230	0.170	-0.470	0.650
2020/01/31 07:37:36.4	90.230	0.170	-0.440	0.560
2020/01/31 07:37:36.5	90.240	0.170	-0.420	0.480
2020/01/31 07:37:36.6	90.250	0.170	-0.400	0.400
2020/01/31 07:37:36.7	90.250	0.170	-0.370	0.320
2020/01/31 07:37:36.8	90.260	0.160	-0.340	0.240
2020/01/31 07:37:36.9	90.270	0.160	-0.300	0.160
2020/01/31 07:37:37.0	90.270	0.150	-0.270	0.090
2020/01/31 07:37:37.1	90.280	0.140	-0.240	0.010
2020/01/31 07:37:37.2	90.280	0.130	-0.200	-0.060
2020/01/31 07:37:37.3	90.290	0.110	-0.160	-0.130
2020/01/31 07:37:37.4	90.290	0.100	-0.130	-0.190
2020/01/31 07:37:37.5	90.290	0.080	-0.090	-0.260
2020/01/31 07:37:37.6	90.290	0.070	-0.050	-0.320
2020/01/31 07:37:37.7	90.290	0.050	-0.020	-0.380
2020/01/31 07:37:37.8	90.290	0.030	0.020	-0.440
2020/01/31 07:37:37.9	90.280	0.020	0.060	-0.500
2020/01/31 07:37:38.0	90.280	-0.000	0.090	-0.550
2020/01/31 07:37:38.1	90.270	-0.020	0.120	-0.600
2020/01/31 07:37:38.2	90.270	-0.040	0.150	-0.650
2020/01/31 07:37:38.3	90.270	-0.050	0.170	-0.700
2020/01/31 07:37:38.4	90.270	-0.070	0.190	-0.740
2020/01/31 07:37:38.5	90.260	-0.080	0.220	-0.780
2020/01/31 07:37:38.6	90.250	-0.100	0.230	-0.820
2020/01/31 07:37:38.7	90.250	-0.110	0.250	-0.860
2020/01/31 07:37:38.8	90.240	-0.130	0.260	-0.890
2020/01/31 07:37:38.9	90.240	-0.140	0.270	-0.920
2020/01/31 07:37:39.0	90.230	-0.150	0.270	-0.950
2020/01/31 07:37:39.1	90.230	-0.160	0.270	-0.980
2020/01/31 07:37:39.2	90.220	-0.160	0.270	-1.000
2020/01/31 07:37:39.3	90.210	-0.170	0.270	-1.020
2020/01/31 07:37:39.4	90.210	-0.170	0.260	-1.030
2020/01/31 07:37:39.5	90.200	-0.180	0.250	-1.040
2020/01/31 07:37:39.6	90.200	-0.180	0.240	-1.050
2020/01/31 07:37:39.7	90.200	-0.180	0.220	-1.050
2020/01/31 07:37:39.8	90.200	-0.170	0.200	-1.050
2020/01/31 07:37:39.9	90.200	-0.170	0.180	-1.040
2020/01/31 07:37:40.0	90.200	-0.170	0.160	-1.040
2020/01/31 07:37:40.1	90.200	-0.160	0.140	-1.020
2020/01/31 07:37:40.2	90.200	-0.150	0.110	-1.010
2020/01/31 07:37:40.3	90.190	-0.150	0.080	-0.980
2020/01/31 07:37:40.4	90.190	-0.140	0.050	-0.960
2020/01/31 07:37:40.5	90.190	-0.130	0.020	-0.930
2020/01/31 07:37:40.6	90.190	-0.120	-0.010	-0.890
2020/01/31 07:37:40.7	90.190	-0.110	-0.040	-0.860
2020/01/31 07:37:40.8	90.190	-0.100	-0.070	-0.820
2020/01/31 07:37:40.9	90.190	-0.080	-0.100	-0.770
2020/01/31 07:37:41.0	90.190	-0.070	-0.140	-0.730
2020/01/31 07:37:41.1	90.190	-0.060	-0.170	-0.680
2020/01/31 07:37:41.2	90.190	-0.050	-0.200	-0.620
2020/01/31 07:37:41.3	90.180	-0.040	-0.230	-0.560
2020/01/31 07:37:41.4	90.180	-0.020	-0.260	-0.500
2020/01/31 07:37:41.5	90.180	-0.010	-0.290	-0.440
2020/01/31 07:37:41.6	90.170	-0.000	-0.320	-0.380
2020/01/31 07:37:41.7	90.170	0.010	-0.350	-0.310
2020/01/31 07:37:41.8	90.160	0.020	-0.370	-0.240
2020/01/31 07:37:41.9	90.160	0.030	-0.390	-0.170
2020/01/31 07:37:42.0	90.150	0.040	-0.410	-0.100
2020/01/31 07:37:42.1	90.150	0.040	-0.420	-0.020
2020/01/31 07:37:42.2	90.140	0.050	-0.440	0.050
2020/01/31 07:37:42.3	90.140	0.060	-0.450	0.130
2020/01/31 07:37:42.4	90.130	0.060	-0.460	0.210
2020/01/31 07:37:42.5	90.120	0.070	-0.470	0.290
2020/01/31 07:37:42.6	90.120	0.070	-0.470	0.370
2020/01/31 07:37:42.7	90.110	0.080	-0.470	0.460
2020/01/31 07:37:42.8	90.100	0.080	-0.470	0.540
2020/01/31 07:37:42.9	90.100	0.080	-0.470	0.630
2020/01/31 07:37:43.0	90.090	0.090	-0.460	0.710
2020/01/31 07:37:43.1	90.090	0.090	-0.450	0.800
2020/01/31 07:37:43.2	90.080	0.090	-0.440	0.890
2020/01/31 07:37:43.3	90.090	0.090	-0.430	0.980
2020/01/31 07:37:43.4	90.080	0.090	-0.410	1.060
2020/01/31 07:37:43.5	90.080	0.100	-0.400	1.150
2020/01/31 07:37:43.6	90.090	0.100	-0.380	1.240
2020/01/31 07:37:43.7	90.090	0.100	-0.370	1.320
2020/01/31 07:37:43.8	90.090	0.100	-0.350	1.410
2020/01/31 07:37:43.9	90.100	0.100	-0.330	1.490
2020/01/31 07:37:44.0	90.100	0.100	-0.320	1.570
2020/01/31 07:37:44.1	90.110	0.100	-0.300	1.650
2020/01/31 07:37:44.2	90.120	0.100	-0.280	1.720
2020/01/31 07:37:44.3	90.130	0.100	-0.270	1.800
2020/01/31 07:37:44.4	90.140	0.100	-0.250	1.870
2020/01/31 07:37:44.5	90.150	0.100	-0.240	1.940
2020/01/31 07:37:44.6	90.160	0.100	-0.220	2.000
2020/01/31 07:37:44.7	90.170	0.100	-0.210	2.070
2020/01/31 07:37:44.8	90.190	0.100	-0.200	2.120
2020/01/31 07:37:44.9	90.200	0.090	-0.190	2.180
2020/01/31 07:37:45.0	90.220	0.090	-0.170	2.230
2020/01/31 07:37:45.1	90.230	0.090	-0.160	2.280
2020/01/31 07:37:45.2	90.240	0.090	-0.150	2.320
2020/01/31 07:37:45.3	90.260	0.080	-0.150	2.360
2020/01/31 07:37:45.4	90.270	0.080	-0.140	2.390
2020/01/31 07:37:45.5	90.290	0.070	-0.120	2.430
2020/01/31 07:37:45.6	90.300	0.070	-0.110	2.450
2020/01/31 07:37:45.7	90.310	0.060	-0.100	2.470
2020/01/31 07:37:45.8	90.320	0.060	-0.090	2.490
2020/01/31 07:37:45.9	90.330	0.050	-0.080	2.510
2020/01/31 07:37:46.0	90.340	0.040	-0.070	2.520
2020/01/31 07:37:46.1	90.350	0.030	-0.050	2.520
2020/01/31 07:37:46.2	90.360	0.020	-0.040	2.530
2020/01/31 07:37:46.3	90.360	0.010	-0.020	2.520
2020/01/31 07:37:46.4	90.370	0.000	0.000	2.520
2020/01/31 07:37:46.5	90.370	-0.010	0.020	2.510
2020/01/31 07:37:46.6	90.370	-0.020	0.040	2.500
2020/01/31 07:37:46.7	90.370	-0.030	0.060	2.490
2020/01/31 07:37:46.8	90.370	-0.050	0.080	2.480
2020/01/31 07:37:46.9	90.360	-0.060	0.110	2.460
2020/01/31 07:37:47.0	90.360	-0.070	0.130	2.450
2020/01/31 07:37:47.1	90.350	-0.090	0.150	2.430
2020/01/31 07:37:47.2	90.340	-0.100	0.170	2.410
2020/01/31 07:37:47.3	90.320	-0.110	0.190	2.390
2020/01/31 07:37:47.4	90.310	-0.130	0.210	2.360
2020/01/31 07:37:47.5	90.290	-0.140	0.230	2.340
2020/01/31 07:37:47.6	90.270	-0.150	0.250	2.310
2020/01/31 07:37:47.7	90.250	-0.160	0.270	2.280
2020/01/31 07:37:47.8	90.230	-0.170	0.280	2.250
2020/01/31 07:37:47.9	90.210	-0.180	0.290	2.220
2020/01/31 07:37:48.0	90.180	-0.190	0.300	2.190
2020/01/31 07:37:48.1	90.150	-0.200	0.300	2.160
2020/01/31 07:37:48.2	90.120	-0.210	0.300	2.130
2020/01/31 07:37:48.3	90.090	-0.210	0.300	2.090
2020/01/31 07:37:48.4	90.060	-0.220	0.290	2.050
2020/01/31 07:37:48.5	90.030	-0.220	0.280	2.020
2020/01/31 07:37:48.6	89.990	-0.220	0.270	1.980
2020/01/31 07:37:48.7	89.960	-0.220	0.250	1.940
2020/01/31 07:37:48.8	89.930	-0.220	0.220	1.890
2020/01/31 07:37:48.9	89.900	-0.210	0.200	1.850
2020/01/31 07:37:49.0	89.860	-0.210	0.160	1.800
2020/01/31 07:37:49.1	89.830	-0.200	0.130	1.750
2020/01/31 07:37:49.2	89.800	-0.190	0.090	1.700
2020/01/31 07:37:49.3	89.780	-0.180	0.040	1.640
2020/01/31 07:37:49.4	89.750	-0.170	-0.010	1.570
2020/01/31 07:37:49.5	89.730	-0.150	-0.060	1.510
2020/01/31 07:37:49.6	89.710	-0.140	-0.110	1.440
2020/01/31 07:37:49.7	89.690	-0.120	-0.160	1.370
2020/01/31 07:37:49.8	89.680	-0.100	-0.220	1.290
2020/01/31 07:37:49.9	89.670	-0.080	-0.270	1.210
2020/01/31 07:37:50.0	89.660	-0.060	-0.330	1.130
2020/01/31 07:37:50.1	89.660	-0.040	-0.390	1.040
2020/01/31 07:37:50.2	89.650	-0.010	-0.450	0.950
2020/01/31 07:37:50.3	89.660	0.010	-0.510	0.850
2020/01/31 07:37:50.4	89.660	0.030	-0.570	0.750
2020/01/31 07:37:50.5	89.670	0.060	-0.620	0.650
2020/01/31 07:37:50.6	89.680	0.080	-0.680	0.550
2020/01/31 07:37:50.7	89.690	0.100	-0.730	0.450
2020/01/31 07:37:50.8	89.710	0.130	-0.770	0.340
2020/01/31 07:37:50.9	89.730	0.150	-0.820	0.230
2020/01/31 07:37:51.0	89.750	0.170	-0.860	0.130
2020/01/31 07:37:51.1	89.770	0.200	-0.900	0.020
2020/01/31 07:37:51.2	89.790	0.220	-0.930	-0.090
2020/01/31 07:37:51.3	89.820	0.240	-0.960	-0.200
2020/01/31 07:37:51.4	89.850	0.260	-0.980	-0.300
2020/01/31 07:37:51.5	89.880	0.270	-0.990	-0.400
2020/01/31 07:37:51.6	89.910	0.290	-1.000	-0.500
2020/01/31 07:37:51.7	89.930	0.310	-1.010	-0.600
2020/01/31 07:37:51.8	89.960	0.320	-1.000	-0.690
2020/01/31 07:37:51.9	89.990	0.330	-0.990	-0.780
2020/01/31 07:37:52.0	90.030	0.340	-0.980	-0.860
2020/01/31 07:37:52.1	90.060	0.350	-0.960	-0.940
2020/01/31 07:37:52.2	90.080	0.360	-0.930	-1.010
2020/01/31 07:37:52.3	90.120	0.370	-0.900	-1.080
2020/01/31 07:37:52.4	90.150	0.370	-0.860	-1.140
2020/01/31 07:37:52.5	90.170	0.380	-0.820	-1.190
2020/01/31 07:37:52.6	90.200	0.380	-0.770	-1.240
2020/01/31 07:37:52.7	90.220	0.380	-0.720	-1.270
2020/01/31 07:37:52.8	90.250	0.380	-0.670	-1.300
2020/01/31 07:37:52.9	90.270	0.380	-0.610	-1.320
2020/01/31 07:37:53.0	90.290	0.370	-0.550	-1.330
2020/01/31 07:37:53.1	90.300	0.370	-0.490	-1.340
2020/01/31 07:37:53.2	90.320	0.360	-0.430	-1.330
2020/01/31 07:37:53.3	90.340	0.350	-0.360	-1.320
2020/01/31 07:37:53.4	90.350	0.340	-0.300	-1.290
2020/01/31 07:37:53.5	90.350	0.330	-0.230	-1.260
2020/01/31 07:37:53.6	90.360	0.310	-0.170	-1.220
2020/01/31 07:37:53.7	90.360	0.300	-0.100	-1.170
2020/01/31 07:37:53.8	90.350	0.280	-0.030	-1.110
2020/01/31 07:37:53.9	90.350	0.260	0.030	-1.040
2020/01/31 07:37:54.0	90.340	0.240	0.090	-0.970
2020/01/31 07:37:54.1	90.320	0.210	0.150	-0.890
2020/01/31 07:37:54.2	90.310	0.190	0.210	-0.810
2020/01/31 07:37:54.3	90.290	0.160	0.270	-0.720
2020/01/31 07:37:54.4	90.270	0.130	0.330	-0.620
2020/01/31 07:37:54.5	90.250	0.100	0.390	-0.520
2020/01/31 07:37:54.6	90.230	0.070	0.440	-0.420
2020/01/31 07:37:54.7	90.200	0.040	0.490	-0.320
2020/01/31 07:37:54.8	90.170	0.000	0.540	-0.210
2020/01/31 07:37:54.9	90.150	-0.040	0.590	-0.100
2020/01/31 07:37:55.0	90.120	-0.070	0.630	0.000
2020/01/31 07:37:55.1	90.090	-0.110	0.670	0.110
2020/01/31 07:37:55.2	90.060	-0.150	0.710	0.220
2020/01/31 07:37:55.3	90.040	-0.190	0.740	0.320
2020/01/31 07:37:55.4	90.010	-0.230	0.770	0.430
2020/01/31 07:37:55.5	89.980	-0.270	0.800	0.530
2020/01/31 07:37:55.6	89.960	-0.310	0.820	0.620
2020/01/31 07:37:55.7	89.940	-0.350	0.840	0.720
2020/01/31 07:37:55.8	89.920	-0.390	0.850	0.810
2020/01/31 07:37:55.9	89.900	-0.430	0.860	0.900
2020/01/31 07:37:56.0	89.880	-0.460	0.860	0.980
2020/01/31 07:37:56.1	89.860	-0.490	0.860	1.070
2020/01/31 07:37:56.2	89.850	-0.530	0.850	1.150
2020/01/31 07:37:56.3	89.840	-0.550	0.830	1.220
2020/01/31 07:37:56.4	89.830	-0.580	0.810	1.290
2020/01/31 07:37:56.5	89.820	-0.600	0.780	1.360
2020/01/31 07:37:56.6	89.810	-0.630	0.750	1.430
2020/01/31 07:37:56.7	89.800	-0.640	0.710	1.500
2020/01/31 07:37:56.8	89.800	-0.660	0.670	1.560
2020/01/31 07:37:56.9	89.800	-0.670	0.620	1.630
2020/01/31 07:37:57.0	89.800	-0.670	0.570	1.690
2020/01/31 07:37:57.1	89.800	-0.680	0.510	1.750
2020/01/31 07:37:57.2	89.800	-0.680	0.450	1.800
2020/01/31 07:37:57.3	89.790	-0.670	0.380	1.860
2020/01/31 07:37:57.4	89.790	-0.660	0.310	1.910
2020/01/31 07:37:57.5	89.800	-0.650	0.240	1.960
2020/01/31 07:37:57.6	89.800	-0.640	0.160	2.010
2020/01/31 07:37:57.7	89.810	-0.620	0.080	2.050
2020/01/31 07:37:57.8	89.820	-0.600	-0.000	2.100
2020/01/31 07:37:57.9	89.830	-0.570	-0.080	2.140
2020/01/31 07:37:58.0	89.840	-0.540	-0.170	2.170
2020/01/31 07:37:58.1	89.850	-0.510	-0.250	2.210
2020/01/31 07:37:58.2	89.860	-0.480	-0.340	2.240
2020/01/31 07:37:58.3	89.880	-0.440	-0.420	2.270
2020/01/31 07:37:58.4	89.890	-0.400	-0.500	2.290
2020/01/31 07:37:58.5	89.910	-0.360	-0.580	2.320
2020/01/31 07:37:58.6	89.920	-0.320	-0.660	2.340
2020/01/31 07:37:58.7	89.940	-0.280	-0.740	2.350
2020/01/31 07:37:58.8	89.950	-0.230	-0.810	2.370
2020/01/31 07:37:58.9	89.970	-0.190	-0.870	2.380
2020/01/31 07:37:59.0	89.980	-0.140	-0.940	2.390
2020/01/31 07:37:59.1	90.000	-0.090	-0.990	2.390
2020/01/31 07:37:59.2	90.010	-0.040	-1.040	2.390
2020/01/31 07:37:59.3	90.020	0.000	-1.090	2.390
2020/01/31 07:37:59.4	90.030	0.050	-1.130	2.390
2020/01/31 07:37:59.5	90.040	0.100	-1.160	2.380
2020/01/31 07:37:59.6	90.050	0.140	-1.190	2.380
2020/01/31 07:37:59.7	90.060	0.190	-1.210	2.370
2020/01/31 07:37:59.8	90.070	0.230	-1.220	2.360
2020/01/31 07:37:59.9	90.080	0.280	-1.230	2.350
2020/01/31 07:38:00.0	90.090	0.320	-1.230	2.330
2020/01/31 07:38:00.1	90.100	0.350	-1.230	2.320
2020/01/31 07:38:00.2	90.100	0.390	-1.210	2.300
2020/01/31 07:38:00.3	90.110	0.420	-1.200	2.280
2020/01/31 07:38:00.4	90.110	0.460	-1.170	2.260
2020/01/31 07:38:00.5	90.110	0.480	-1.140	2.240
2020/01/31 07:38:00.6	90.110	0.510	-1.110	2.210
2020/01/31 07:38:00.7	90.110	0.530	-1.060	2.180
2020/01/31 07:38:00.8	90.110	0.550	-1.020	2.150
2020/01/31 07:38:00.9	90.110	0.570	-0.970	2.120
2020/01/31 07:38:01.0	90.110	0.580	-0.910	2.090
2020/01/31 07:38:01.1	90.110	0.590	-0.850	2.050
2020/01/31 07:38:01.2	90.110	0.600	-0.790	2.010
2020/01/31 07:38:01.3	90.100	0.600	-0.720	1.970
2020/01/31 07:38:01.4	90.100	0.600	-0.650	1.930
2020/01/31 07:38:01.5	90.090	0.600	-0.580	1.880
2020/01/31 07:38:01.6	90.090	0.590	-0.510	1.840
2020/01/31 07:38:01.7	90.080	0.580	-0.440	1.790
2020/01/31 07:38:01.8	90.070	0.570	-0.360	1.740
2020/01/31 07:38:01.9	90.070	0.560	-0.290	1.680
2020/01/31 07:38:02.0	90.060	0.550	-0.220	1.630
2020/01/31 07:38:02.1	90.050	0.530	-0.140	1.570
2020/01/31 07:38:02.2	90.030	0.510	-0.070	1.520
2020/01/31 07:38:02.3	90.020	0.490	-0.000	1.450
2020/01/31 07:38:02.4	90.010	0.470	0.070	1.390
2020/01/31 07:38:02.5	89.990	0.440	0.130	1.330
2020/01/31 07:38:02.6	89.980	0.420	0.190	1.270
2020/01/31 07:38:02.7	89.960	0.390	0.260	1.210
2020/01/31 07:38:02.8	89.940	0.370	0.310	1.150
2020/01/31 07:38:02.9	89.920	0.340	0.370	1.080
2020/01/31 07:38:03.0	89.900	0.310	0.420	1.020
2020/01/31 07:38:03.1	89.870	0.290	0.470	0.950
2020/01/31 07:38:03.2	89.850	0.260	0.510	0.880
2020/01/31 07:38:03.3	89.820	0.240	0.550	0.810
2020/01/31 07:38:03.4	89.800	0.210	0.580	0.740
2020/01/31 07:38:03.5	89.770	0.180	0.620	0.670
2020/01/31 07:38:03.6	89.750	0.160	0.640	0.600
2020/01/31 07:38:03.7	89.720	0.130	0.660	0.530
2020/01/31 07:38:03.8	89.690	0.110	0.680	0.460
2020/01/31 07:38:03.9	89.670	0.080	0.690	0.390
2020/01/31 07:38:04.0	89.640	0.060	0.690	0.320
2020/01/31 07:38:04.1	89.620	0.040	0.700	0.240
2020/01/31 07:38:04.2	89.590	0.020	0.690	0.170
2020/01/31 07:38:04.3	89.570	-0.010	0.680	0.100
2020/01/31 07:38:04.4	89.540	-0.030	0.670	0.030
2020/01/31 07:38:04.5	89.520	-0.050	0.650	-0.030
2020/01/31 07:38:04.6	89.490	-0.070	0.630	-0.100
2020/01/31 07:38:04.7	89.470	-0.080	0.600	-0.160
2020/01/31 07:38:04.8	89.440	-0.100	0.570	-0.230
2020/01/31 07:38:04.9	89.420	-0.120	0.540	-0.290
2020/01/31 07:38:05.0	89.400	-0.140	0.500	-0.340
2020/01/31 07:38:05.1	89.380	-0.150	0.460	-0.400
2020/01/31 07:38:05.2	89.360	-0.170	0.410	-0.450
2020/01/31 07:38:05.3	89.340	-0.180	0.360	-0.500
2020/01/31 07:38:05.4	89.330	-0.190	0.310	-0.550
2020/01/31 07:38:05.5	89.310	-0.200	0.260	-0.590
2020/01/31 07:38:05.6	89.300	-0.220	0.200	-0.640
2020/01/31 07:38:05.7	89.290	-0.230	0.140	-0.680
2020/01/31 07:38:05.8	89.290	-0.230	0.080	-0.720
2020/01/31 07:38:05.9	89.290	-0.240	0.020	-0.750
2020/01/31 07:38:06.0	89.290	-0.250	-0.040	-0.790
2020/01/31 07:38:06.1	89.290	-0.250	-0.100	-0.820
2020/01/31 07:38:06.2	89.300	-0.260	-0.160	-0.850
2020/01/31 07:38:06.3	89.310	-0.260	-0.230	-0.880
2020/01/31 07:38:06.4	89.330	-0.260	-0.290	-0.910
2020/01/31 07:38:06.5	89.340	-0.260	-0.360	-0.940
2020/01/31 07:38:06.6	89.370	-0.260	-0.420	-0.960
2020/01/31 07:38:06.7	89.390	-0.260	-0.480	-0.980
2020/01/31 07:38:06.8	89.420	-0.250	-0.540	-1.010
2020/01/31 07:38:06.9	89.450	-0.250	-0.600	-1.020
2020/01/31 07:38:07.0	89.490	-0.240	-0.650	-1.040
2020/01/31 07:38:07.1	89.520	-0.230	-0.710	-1.050
2020/01/31 07:38:07.2	89.560	-0.220	-0.760	-1.060
2020/01/31 07:38:07.3	89.600	-0.220	-0.800	-1.070
2020/01/31 07:38:07.4	89.640	-0.210	-0.850	-1.070
2020/01/31 07:38:07.5	89.690	-0.200	-0.890	-1.070
2020/01/31 07:38:07.6	89.730	-0.190	-0.920	-1.060
2020/01/31 07:38:07.7	89.770	-0.180	-0.940	-1.050
2020/01/31 07:38:07.8	89.820	-0.170	-0.970	-1.030
2020/01/31 07:38:07.9	89.860	-0.160	-0.980	-1.010
2020/01/31 07:38:08.0	89.900	-0.150	-0.990	-0.990
2020/01/31 07:38:08.1	89.940	-0.140	-0.990	-0.950
2020/01/31 07:38:08.2	89.980	-0.130	-0.980	-0.920
2020/01/31 07:38:08.3	90.030	-0.130	-0.980	-0.870
2020/01/31 07:38:08.4	90.060	-0.120	-0.960	-0.820
2020/01/31 07:38:08.5	90.090	-0.120	-0.930	-0.760
2020/01/31 07:38:08.6	90.120	-0.110	-0.900	-0.700
2020/01/31 07:38:08.7	90.140	-0.110	-0.860	-0.640
2020/01/31 07:38:08.8	90.160	-0.100	-0.810	-0.560
2020/01/31 07:38:08.9	90.180	-0.100	-0.760	-0.490
2020/01/31 07:38:09.0	90.190	-0.100	-0.710	-0.400
2020/01/31 07:38:09.1	90.200	-0.100	-0.650	-0.310
2020/01/31 07:38:09.2	90.200	-0.100	-0.580	-0.220
2020/01/31 07:38:09.3	90.190	-0.100	-0.520	-0.120
2020/01/31 07:38:09.4	90.180	-0.100	-0.450	-0.020
2020/01/31 07:38:09.5	90.180	-0.100	-0.370	0.090
2020/01/31 07:38:09.6	90.170	-0.100	-0.300	0.200
2020/01/31 07:38:09.7	90.150	-0.100	-0.230	0.310
2020/01/31 07:38:09.8	90.130	-0.100	-0.150	0.420
2020/01/31 07:38:09.9	90.110	-0.100	-0.080	0.540
2020/01/31 07:38:10.0	90.090	-0.100	-0.010	0.660
2020/01/31 07:38:10.1	90.060	-0.100	0.060	0.780
2020/01/31 07:38:10.2	90.030	-0.100	0.130	0.900
2020/01/31 07:38:10.3	90.010	-0.100	0.190	1.020
2020/01/31 07:38:10.4	89.980	-0.090	0.250	1.140
2020/01/31 07:38:10.5	89.940	-0.090	0.310	1.250
2020/01/31 07:38:10.6	89.910	-0.080	0.360	1.370
2020/01/31 07:38:10.7	89.870	-0.070	0.400	1.480
2020/01/31 07:38:10.8	89.840	-0.070	0.440	1.590
2020/01/31 07:38:10.9	89.800	-0.060	0.480	1.700
2020/01/31 07:38:11.0	89.770	-0.050	0.510	1.800
2020/01/31 07:38:11.1	89.730	-0.040	0.530	1.900
2020/01/31 07:38:11.2	89.690	-0.020	0.540	2.000
2020/01/31 07:38:11.3	89.660	-0.010	0.550	2.090
2020/01/31 07:38:11.4	89.620	0.000	0.550	2.180
2020/01/31 07:38:11.5	89.590	0.020	0.550	2.260
2020/01/31 07:38:11.6	89.550	0.040	0.540	2.330
2020/01/31 07:38:11.7	89.520	0.050	0.520	2.400
2020/01/31 07:38:11.8	89.490	0.070	0.500	2.470
2020/01/31 07:38:11.9	89.460	0.080	0.480	2.530
2020/01/31 07:38:12.0	89.430	0.100	0.450	2.580
2020/01/31 07:38:12.1	89.400	0.120	0.410	2.630
2020/01/31 07:38:12.2	89.380	0.140	0.370	2.670
2020/01/31 07:38:12.3	89.360	0.150	0.320	2.710
2020/01/31 07:38:12.4	89.340	0.170	0.270	2.740
2020/01/31 07:38:12.5	89.320	0.180	0.220	2.760
2020/01/31 07:38:12.6	89.300	0.200	0.170	2.770
2020/01/31 07:38:12.7	89.290	0.210	0.120	2.790
2020/01/31 07:38:12.8	89.280	0.220	0.060	2.790
2020/01/31 07:38:12.9	89.270	0.230	0.010	2.790
2020/01/31 07:38:13.0	89.260	0.240	-0.050	2.780
2020/01/31 07:38:13.1	89.250	0.250	-0.100	2.770
2020/01/31 07:38:13.2	89.250	0.260	-0.160	2.750
2020/01/31 07:38:13.3	89.250	0.260	-0.210	2.730
2020/01/31 07:38:13.4	89.250	0.260	-0.260	2.700
2020/01/31 07:38:13.5	89.250	0.270	-0.310	2.670
2020/01/31 07:38:13.6	89.250	0.270	-0.350	2.630
2020/01/31 07:38:13.7	89.260	0.260	-0.390	2.590
2020/01/31 07:38:13.8	89.270	0.260	-0.430	2.540
2020/01/31 07:38:13.9	89.270	0.250	-0.460	2.490
2020/01/31 07:38:14.0	89.280	0.250	-0.490	2.440
2020/01/31 07:38:14.1	89.290	0.240	-0.510	2.380
2020/01/31 07:38:14.2	89.300	0.220	-0.530	2.320
2020/01/31 07:38:14.3	89.320	0.210	-0.540	2.250
2020/01/31 07:38:14.4	89.330	0.200	-0.550	2.180
2020/01/31 07:38:14.5	89.340	0.180	-0.560	2.110
2020/01/31 07:38:14.6	89.360	0.160	-0.560	2.040
2020/01/31 07:38:14.7	89.370	0.150	-0.550	1.960
2020/01/31 07:38:14.8	89.390	0.130	-0.540	1.880
2020/01/31 07:38:14.9	89.400	0.110	-0.530	1.800
2020/01/31 07:38:15.0	89.410	0.090	-0.520	1.720
2020/01/31 07:38:15.1	89.430	0.070	-0.500	1.630
2020/01/31 07:38:15.2	89.440	0.040	-0.480	1.540
2020/01/31 07:38:15.3	89.470	0.020	-0.450	1.450
2020/01/31 07:38:15.4	89.480	0.000	-0.430	1.360
2020/01/31 07:38:15.5	89.500	-0.020	-0.400	1.270
2020/01/31 07:38:15.6	89.510	-0.040	-0.370	1.170
2020/01/31 07:38:15.7	89.530	-0.060	-0.340	1.080
2020/01/31 07:38:15.8	89.550	-0.080	-0.310	0.990
2020/01/31 07:38:15.9	89.560	-0.090	-0.270	0.890
2020/01/31 07:38:16.0	89.580	-0.110	-0.240	0.800
2020/01/31 07:38:16.1	89.600	-0.130	-0.210	0.700
2020/01/31 07:38:16.2	89.610	-0.140	-0.180	0.610
2020/01/31 07:38:16.3	89.620	-0.160	-0.150	0.520
2020/01/31 07:38:16.4	89.630	-0.170	-0.120	0.420
2020/01/31 07:38:16.5	89.650	-0.180	-0.090	0.330
2020/01/31 07:38:16.6	89.660	-0.190	-0.070	0.240
2020/01/31 07:38:16.7	89.680	-0.200	-0.040	0.150
2020/01/31 07:38:16.8	89.690	-0.210	-0.020	0.070
2020/01/31 07:38:16.9	89.710	-0.210	-0.010	-0.020
2020/01/31 07:38:17.0	89.720	-0.220	0.010	-0.100
2020/01/31 07:38:17.1	89.730	-0.220	0.020	-0.180
2020/01/31 07:38:17.2	89.750	-0.220	0.030	-0.250
2020/01/31 07:38:17.3	89.760	-0.220	0.040	-0.330
2020/01/31 07:38:17.4	89.760	-0.220	0.040	-0.390
2020/01/31 07:38:17.5	89.770	-0.220	0.050	-0.460
2020/01/31 07:38:17.6	89.780	-0.220	0.040	-0.510
2020/01/31 07:38:17.7	89.780	-0.210	0.040	-0.570
2020/01/31 07:38:17.8	89.780	-0.210	0.040	-0.620
2020/01/31 07:38:17.9	89.780	-0.200	0.030	-0.660
2020/01/31 07:38:18.0	89.780	-0.190	0.020	-0.690
2020/01/31 07:38:18.1	89.770	-0.180	0.010	-0.720
2020/01/31 07:38:18.2	89.770	-0.170	-0.000	-0.750
2020/01/31 07:38:18.3	89.760	-0.160	-0.020	-0.770
2020/01/31 07:38:18.4	89.750	-0.150	-0.030	-0.780
2020/01/31 07:38:18.5	89.740	-0.140	-0.050	-0.780
2020/01/31 07:38:18.6	89.730	-0.130	-0.060	-0.780
2020/01/31 07:38:18.7	89.710	-0.120	-0.080	-0.770
2020/01/31 07:38:18.8	89.690	-0.110	-0.100	-0.760
2020/01/31 07:38:18.9	89.670	-0.090	-0.110	-0.740
2020/01/31 07:38:19.0	89.650	-0.080	-0.130	-0.710
2020/01/31 07:38:19.1	89.630	-0.070	-0.150	-0.680
2020/01/31 07:38:19.2	89.610	-0.060	-0.160	-0.650
2020/01/31 07:38:19.3	89.580	-0.040	-0.180	-0.610
2020/01/31 07:38:19.4	89.550	-0.030	-0.200	-0.570
2020/01/31 07:38:19.5	89.530	-0.020	-0.210	-0.520
2020/01/31 07:38:19.6	89.510	-0.000	-0.230	-0.470
2020/01/31 07:38:19.7	89.490	0.010	-0.240	-0.420
2020/01/31 07:38:19.8	89.470	0.020	-0.250	-0.370
2020/01/31 07:38:19.9	89.450	0.040	-0.260	-0.320
2020/01/31 07:38:20.0	89.430	0.050	-0.280	-0.260
2020/01/31 07:38:20.1	89.410	0.060	-0.290	-0.210
2020/01/31 07:38:20.2	89.400	0.070	-0.290	-0.150
2020/01/31 07:38:20.3	89.390	0.080	-0.300	-0.100
2020/01/31 07:38:20.4	89.380	0.090	-0.310	-0.040
2020/01/31 07:38:20.5	89.370	0.100	-0.320	0.010
2020/01/31 07:38:20.6	89.360	0.120	-0.320	0.060
2020/01/31 07:38:20.7	89.350	0.130	-0.330	0.120
2020/01/31 07:38:20.8	89.340	0.130	-0.340	0.170
2020/01/31 07:38:20.9	89.340	0.140	-0.340	0.210
2020/01/31 07:38:21.0	89.340	0.150	-0.350	0.260
2020/01/31 07:38:21.1	89.330	0.160	-0.360	0.300
2020/01/31 07:38:21.2	89.340	0.170	-0.360	0.340
2020/01/31 07:38:21.3	89.340	0.180	-0.370	0.370
2020/01/31 07:38:21.4	89.340	0.180	-0.380	0.410
2020/01/31 07:38:21.5	89.350	0.190	-0.380	0.440
2020/01/31 07:38:21.6	89.360	0.200	-0.380	0.460
2020/01/31 07:38:21.7	89.370	0.200	-0.390	0.480
2020/01/31 07:38:21.8	89.380	0.210	-0.390	0.500
2020/01/31 07:38:21.9	89.390	0.210	-0.400	0.520
2020/01/31 07:38:22.0	89.400	0.220	-0.400	0.530
2020/01/31 07:38:22.1	89.410	0.220	-0.400	0.550
2020/01/31 07:38:22.2	89.430	0.220	-0.400	0.560
2020/01/31 07:38:22.3	89.430	0.230	-0.400	0.560
2020/01/31 07:38:22.4	89.450	0.230	-0.400	0.570
2020/01/31 07:38:22.5	89.460	0.230	-0.390	0.580
2020/01/31 07:38:22.6	89.480	0.230	-0.390	0.590
2020/01/31 07:38:22.7	89.490	0.230	-0.380	0.600
2020/01/31 07:38:22.8	89.500	0.230	-0.370	0.610
2020/01/31 07:38:22.9	89.510	0.230	-0.360	0.620
2020/01/31 07:38:23.0	89.520	0.230	-0.350	0.630
2020/01/31 07:38:23.1	89.530	0.230	-0.340	0.650
2020/01/31 07:38:23.2	89.530	0.220	-0.330	0.670
2020/01/31 07:38:23.3	89.550	0.220	-0.310	0.690
2020/01/31 07:38:23.4	89.550	0.220	-0.300	0.720
2020/01/31 07:38:23.5	89.550	0.210	-0.280	0.750
2020/01/31 07:38:23.6	89.540	0.210	-0.260	0.780
2020/01/31 07:38:23.7	89.540	0.200	-0.240	0.810
2020/01/31 07:38:23.8	89.530	0.200	-0.220	0.850
2020/01/31 07:38:23.9	89.530	0.190	-0.200	0.890
2020/01/31 07:38:24.0	89.520	0.180	-0.180	0.920
2020/01/31 07:38:24.1	89.510	0.170	-0.160	0.970
2020/01/31 07:38:24.2	89.500	0.160	-0.140	1.010
2020/01/31 07:38:24.3	89.490	0.150	-0.110	1.050
2020/01/31 07:38:24.4	89.480	0.140	-0.090	1.090
2020/01/31 07:38:24.5	89.470	0.130	-0.070	1.130
2020/01/31 07:38:24.6	89.460	0.120	-0.040	1.170
2020/01/31 07:38:24.7	89.450	0.100	-0.020	1.210
2020/01/31 07:38:24.8	89.450	0.090	0.010	1.250
2020/01/31 07:38:24.9	89.440	0.070	0.030	1.280
2020/01/31 07:38:25.0	89.440	0.050	0.060	1.320
2020/01/31 07:38:25.1	89.440	0.040	0.080	1.350
2020/01/31 07:38:25.2	89.440	0.020	0.110	1.380
2020/01/31 07:38:25.3	89.430	0.000	0.130	1.400
2020/01/31 07:38:25.4	89.430	-0.020	0.160	1.430
2020/01/31 07:38:25.5	89.440	-0.040	0.180	1.450
2020/01/31 07:38:25.6	89.450	-0.060	0.200	1.470
2020/01/31 07:38:25.7	89.450	-0.080	0.220	1.480
2020/01/31 07:38:25.8	89.470	-0.100	0.250	1.490
2020/01/31 07:38:25.9	89.480	-0.120	0.260	1.500
2020/01/31 07:38:26.0	89.490	-0.140	0.280	1.510
2020/01/31 07:38:26.1	89.510	-0.160	0.300	1.510
2020/01/31 07:38:26.2	89.520	-0.170	0.310	1.510
2020/01/31 07:38:26.3	89.540	-0.190	0.320	1.510
2020/01/31 07:38:26.4	89.560	-0.210	0.330	1.500
2020/01/31 07:38:26.5	89.580	-0.230	0.340	1.490
2020/01/31 07:38:26.6	89.600	-0.240	0.340	1.490
2020/01/31 07:38:26.7	89.620	-0.260	0.350	1.480
2020/01/31 07:38:26.8	89.630	-0.270	0.350	1.470
2020/01/31 07:38:26.9	89.650	-0.290	0.350	1.460
2020/01/31 07:38:27.0	89.670	-0.300	0.340	1.440
2020/01/31 07:38:27.1	89.690	-0.310	0.330	1.430
2020/01/31 07:38:27.2	89.700	-0.320	0.320	1.420
2020/01/31 07:38:27.3	89.720	-0.320	0.310	1.410
2020/01/31 07:38:27.4	89.730	-0.330	0.300	1.400
2020/01/31 07:38:27.5	89.750	-0.330	0.280	1.390
2020/01/31 07:38:27.6	89.760	-0.330	0.260	1.370
2020/01/31 07:38:27.7	89.770	-0.330	0.240	1.360
2020/01/31 07:38:27.8	89.780	-0.330	0.210	1.350
2020/01/31 07:38:27.9	89.790	-0.330	0.190	1.340
2020/01/31 07:38:28.0	89.800	-0.320	0.160	1.340
2020/01/31 07:38:28.1	89.800	-0.310	0.130	1.330
2020/01/31 07:38:28.2	89.810	-0.300	0.100	1.320
2020/01/31 07:38:28.3	89.820	-0.290	0.060	1.310
2020/01/31 07:38:28.4	89.820	-0.280	0.030	1.300
2020/01/31 07:38:28.5	89.820	-0.260	-0.010	1.290
2020/01/31 07:38:28.6	89.830	-0.250	-0.050	1.280
2020/01/31 07:38:28.7	89.830	-0.230	-0.080	1.270
2020/01/31 07:38:28.8	89.830	-0.210	-0.120	1.260
2020/01/31 07:38:28.9	89.830	-0.190	-0.160	1.250
2020/01/31 07:38:29.0	89.830	-0.170	-0.200	1.240
2020/01/31 07:38:29.1	89.830	-0.150	-0.240	1.220
2020/01/31 07:38:29.2	89.830	-0.130	-0.280	1.210
2020/01/31 07:38:29.3	89.830	-0.100	-0.320	1.190
2020/01/31 07:38:29.4	89.840	-0.080	-0.360	1.170
2020/01/31 07:38:29.5	89.840	-0.060	-0.390	1.150
2020/01/31 07:38:29.6	89.840	-0.040	-0.430	1.130
2020/01/31 07:38:29.7	89.850	-0.010	-0.460	1.100
2020/01/31 07:38:29.8	89.860	0.010	-0.490	1.080
2020/01/31 07:38:29.9	89.860	0.030	-0.520	1.050
2020/01/31 07:38:30.0	89.870	0.060	-0.550	1.020
2020/01/31 07:38:30.1	89.880	0.080	-0.570	0.980
2020/01/31 07:38:30.2	89.890	0.100	-0.600	0.950
2020/01/31 07:38:30.3	89.910	0.120	-0.620	0.910
2020/01/31 07:38:30.4	89.920	0.140	-0.640	0.870
2020/01/31 07:38:30.5	89.940	0.150	-0.650	0.840
2020/01/31 07:38:30.6	89.950	0.170	-0.670	0.800
2020/01/31 07:38:30.7	89.960	0.180	-0.670	0.760
2020/01/31 07:38:30.8	89.980	0.200	-0.680	0.720
2020/01/31 07:38:30.9	89.990	0.210	-0.680	0.680
2020/01/31 07:38:31.0	90.000	0.220	-0.680	0.640
2020/01/31 07:38:31.1	90.020	0.230	-0.670	0.600
2020/01/31 07:38:31.2	90.030	0.230	-0.660	0.570
2020/01/31 07:38:31.3	90.040	0.240	-0.650	0.530
2020/01/31 07:38:31.4	90.050	0.240	-0.640	0.500
2020/01/31 07:38:31.5	90.050	0.240	-0.620	0.470
2020/01/31 07:38:31.6	90.060	0.240	-0.600	0.440
2020/01/31 07:38:31.7	90.060	0.240	-0.570	0.420
2020/01/31 07:38:31.8	90.060	0.230	-0.550	0.390
2020/01/31 07:38:31.9	90.050	0.230	-0.520	0.380
2020/01/31 07:38:32.0	90.040	0.220	-0.490	0.360
2020/01/31 07:38:32.1	90.040	0.210	-0.450	0.350
2020/01/31 07:38:32.2	90.030	0.200	-0.420	0.340
2020/01/31 07:38:32.3	90.010	0.190	-0.380	0.330
2020/01/31 07:38:32.4	90.000	0.180	-0.350	0.330
2020/01/31 07:38:32.5	89.980	0.170	-0.310	0.330
2020/01/31 07:38:32.6	89.960	0.160	-0.270	0.330
2020/01/31 07:38:32.7	89.940	0.140	-0.240	0.340
2020/01/31 07:38:32.8	89.920	0.130	-0.200	0.340
2020/01/31 07:38:32.9	89.890	0.120	-0.160	0.350
2020/01/31 07:38:33.0	89.870	0.100	-0.130	0.350
2020/01/31 07:38:33.1	89.850	0.090	-0.090	0.360
2020/01/31 07:38:33.2	89.820	0.080	-0.060	0.370
2020/01/31 07:38:33.3	89.810	0.070	-0.030	0.380
2020/01/31 07:38:33.4	89.790	0.050	0.000	0.380
2020/01/31 07:38:33.5	89.760	0.040	0.030	0.390
2020/01/31 07:38:33.6	89.740	0.030	0.050	0.390
2020/01/31 07:38:33.7	89.710	0.020	0.080	0.400
2020/01/31 07:38:33.8	89.690	0.010	0.100	0.400
2020/01/31 07:38:33.9	89.660	0.010	0.120	0.400
2020/01/31 07:38:34.0	89.640	-0.000	0.130	0.400
2020/01/31 07:38:34.1	89.620	-0.010	0.150	0.390
2020/01/31 07:38:34.2	89.600	-0.010	0.160	0.390
2020/01/31 07:38:34.3	89.580	-0.020	0.160	0.380
2020/01/31 07:38:34.4	89.560	-0.020	0.170	0.370
2020/01/31 07:38:34.5	89.540	-0.020	0.170	0.360
2020/01/31 07:38:34.6	89.520	-0.020	0.160	0.350
2020/01/31 07:38:34.7	89.510	-0.020	0.160	0.340
2020/01/31 07:38:34.8	89.490	-0.020	0.150	0.330
2020/01/31 07:38:34.9	89.480	-0.010	0.130	0.310
2020/01/31 07:38:35.0	89.460	-0.010	0.120	0.290
2020/01/31 07:38:35.1	89.450	-0.000	0.100	0.280
2020/01/31 07:38:35.2	89.440	0.000	0.080	0.260
2020/01/31 07:38:35.3	89.430	0.010	0.060	0.240
2020/01/31 07:38:35.4	89.430	0.020	0.030	0.230
2020/01/31 07:38:35.5	89.420	0.030	0.000	0.210
2020/01/31 07:38:35.6	89.410	0.040	-0.030	0.200
2020/01/31 07:38:35.7	89.410	0.050	-0.060	0.190
2020/01/31 07:38:35.8	89.400	0.060	-0.090	0.170
2020/01/31 07:38:35.9	89.400	0.060	-0.130	0.160
2020/01/31 07:38:36.0	89.400	0.070	-0.160	0.150
2020/01/31 07:38:36.1	89.400	0.080	-0.200	0.150
2020/01/31 07:38:36.2	89.400	0.090	-0.230	0.140
2020/01/31 07:38:36.3	89.410	0.100	-0.270	0.140
2020/01/31 07:38:36.4	89.410	0.110	-0.300	0.130
2020/01/31 07:38:36.5	89.420	0.120	-0.330	0.130
2020/01/31 07:38:36.6	89.430	0.120	-0.370	0.130
2020/01/31 07:38:36.7	89.440	0.130	-0.400	0.130
2020/01/31 07:38:36.8	89.450	0.130	-0.430	0.130
2020/01/31 07:38:36.9	89.470	0.140	-0.450	0.130
2020/01/31 07:38:37.0	89.480	0.140	-0.480	0.140
2020/01/31 07:38:37.1	89.500	0.140	-0.500	0.140
2020/01/31 07:38:37.2	89.520	0.140	-0.520	0.140
2020/01/31 07:38:37.3	89.550	0.140	-0.550	0.150
2020/01/31 07:38:37.4	89.570	0.140	-0.560	0.150
2020/01/31 07:38:37.5	89.600	0.130	-0.570	0.160
2020/01/31 07:38:37.6	89.630	0.130	-0.580	0.170
2020/01/31 07:38:37.7	89.660	0.120	-0.580	0.170
2020/01/31 07:38:37.8	89.690	0.110	-0.580	0.180
2020/01/31 07:38:37.9	89.720	0.100	-0.580	0.190
2020/01/31 07:38:38.0	89.750	0.090	-0.570	0.200
2020/01/31 07:38:38.1	89.790	0.080	-0.550	0.210
2020/01/31 07:38:38.2	89.820	0.070	-0.540	0.220
2020/01/31 07:38:38.3	89.850	0.050	-0.510	0.230
2020/01/31 07:38:38.4	89.880	0.040	-0.490	0.240
2020/01/31 07:38:38.5	89.910	0.020	-0.450	0.260
2020/01/31 07:38:38.6	89.940	0.000	-0.420	0.280
2020/01/31 07:38:38.7	89.970	-0.020	-0.380	0.300
2020/01/31 07:38:38.8	89.990	-0.040	-0.340	0.320
2020/01/31 07:38:38.9	90.020	-0.060	-0.290	0.340
2020/01/31 07:38:39.0	90.040	-0.080	-0.240	0.370
2020/01/31 07:38:39.1	90.060	-0.100	-0.190	0.400
2020/01/31 07:38:39.2	90.080	-0.120	-0.130	0.430
2020/01/31 07:38:39.3	90.100	-0.140	-0.080	0.470
2020/01/31 07:38:39.4	90.110	-0.170	-0.020	0.500
2020/01/31 07:38:39.5	90.120	-0.190	0.040	0.540
2020/01/31 07:38:39.6	90.120	-0.210	0.110	0.580
2020/01/31 07:38:39.7	90.130	-0.230	0.170	0.620
2020/01/31 07:38:39.8	90.130	-0.250	0.230	0.670
2020/01/31 07:38:39.9	90.120	-0.270	0.290	0.720
2020/01/31 07:38:40.0	90.120	-0.290	0.350	0.760
2020/01/31 07:38:40.1	90.110	-0.310	0.410	0.810
2020/01/31 07:38:40.2	90.100	-0.330	0.460	0.860
2020/01/31 07:38:40.3	90.090	-0.350	0.510	0.910
2020/01/31 07:38:40.4	90.070	-0.360	0.560	0.970
2020/01/31 07:38:40.5	90.050	-0.380	0.610	1.020
2020/01/31 07:38:40.6	90.040	-0.390	0.650	1.080
2020/01/31 07:38:40.7	90.010	-0.400	0.680	1.130
2020/01/31 07:38:40.8	89.990	-0.410	0.710	1.190
2020/01/31 07:38:40.9	89.970	-0.420	0.740	1.240
2020/01/31 07:38:41.0	89.940	-0.420	0.750	1.290
2020/01/31 07:38:41.1	89.920	-0.430	0.760	1.350
2020/01/31 07:38:41.2	89.890	-0.430	0.770	1.400
2020/01/31 07:38:41.3	89.840	-0.420	0.770	1.450
2020/01/31 07:38:41.4	89.820	-0.420	0.760	1.500
2020/01/31 07:38:41.5	89.790	-0.410	0.750	1.540
2020/01/31 07:38:41.6	89.760	-0.410	0.720	1.590
2020/01/31 07:38:41.7	89.730	-0.400	0.690	1.630
2020/01/31 07:38:41.8	89.710	-0.380	0.660	1.670
2020/01/31 07:38:41.9	89.680	-0.370	0.610	1.710
2020/01/31 07:38:42.0	89.660	-0.350	0.560	1.750
2020/01/31 07:38:42.1	89.630	-0.330	0.510	1.780
2020/01/31 07:38:42.2	89.610	-0.310	0.450	1.810
2020/01/31 07:38:42.3	89.580	-0.280	0.370	1.840
2020/01/31 07:38:42.4	89.560	-0.260	0.300	1.860
2020/01/31 07:38:42.5	89.540	-0.230	0.230	1.880
2020/01/31 07:38:42.6	89.520	-0.200	0.150	1.900
2020/01/31 07:38:42.7	89.500	-0.170	0.070	1.910
2020/01/31 07:38:42.8	89.480	-0.130	-0.020	1.920
2020/01/31 07:38:42.9	89.460	-0.100	-0.110	1.930
2020/01/31 07:38:43.0	89.440	-0.060	-0.200	1.930
2020/01/31 07:38:43.1	89.430	-0.020	-0.290	1.930
2020/01/31 07:38:43.2	89.410	0.010	-0.370	1.920
2020/01/31 07:38:43.3	89.400	0.050	-0.460	1.910
2020/01/31 07:38:43.4	89.390	0.090	-0.550	1.900
2020/01/31 07:38:43.5	89.380	0.130	-0.640	1.890
2020/01/31 07:38:43.6	89.370	0.160	-0.720	1.870
2020/01/31 07:38:43.7	89.360	0.200	-0.800	1.840
2020/01/31 07:38:43.8	89.360	0.240	-0.880	1.820
2020/01/31 07:38:43.9	89.350	0.280	-0.950	1.780
2020/01/31 07:38:44.0	89.350	0.310	-1.020	1.750
2020/01/31 07:38:44.1	89.340	0.340	-1.080	1.710
2020/01/31 07:38:44.2	89.340	0.380	-1.130	1.670
2020/01/31 07:38:44.3	89.350	0.410	-1.180	1.630
2020/01/31 07:38:44.4	89.350	0.430	-1.220	1.580
2020/01/31 07:38:44.5	89.340	0.460	-1.260	1.530
2020/01/31 07:38:44.6	89.350	0.480	-1.280	1.480
2020/01/31 07:38:44.7	89.350	0.500	-1.300	1.420
2020/01/31 07:38:44.8	89.350	0.520	-1.310	1.370
2020/01/31 07:38:44.9	89.350	0.540	-1.310	1.310
2020/01/31 07:38:45.0	89.360	0.550	-1.300	1.250
2020/01/31 07:38:45.1	89.360	0.560	-1.280	1.180
2020/01/31 07:38:45.2	89.370	0.560	-1.260	1.120
2020/01/31 07:38:45.3	89.380	0.570	-1.230	1.050
2020/01/31 07:38:45.4	89.390	0.570	-1.180	0.980
2020/01/31 07:38:45.5	89.400	0.560	-1.140	0.920
2020/01/31 07:38:45.6	89.410	0.550	-1.080	0.850
2020/01/31 07:38:45.7	89.420	0.540	-1.020	0.780
2020/01/31 07:38:45.8	89.430	0.530	-0.950	0.710
2020/01/31 07:38:45.9	89.440	0.520	-0.880	0.650
2020/01/31 07:38:46.0	89.450	0.500	-0.800	0.580
2020/01/31 07:38:46.1	89.460	0.480	-0.720	0.510
2020/01/31 07:38:46.2	89.480	0.450	-0.640	0.450
2020/01/31 07:38:46.3	89.480	0.430	-0.550	0.390
2020/01/31 07:38:46.4	89.500	0.400	-0.460	0.330
2020/01/31 07:38:46.5	89.510	0.370	-0.370	0.270
2020/01/31 07:38:46.6	89.520	0.340	-0.280	0.220
2020/01/31 07:38:46.7	89.530	0.310	-0.190	0.170
2020/01/31 07:38:46.8	89.540	0.270	-0.110	0.120
2020/01/31 07:38:46.9	89.550	0.240	-0.020	0.070
2020/01/31 07:38:47.0	89.560	0.210	0.060	0.030
2020/01/31 07:38:47.1	89.570	0.170	0.140	-0.010
2020/01/31 07:38:47.2	89.580	0.140	0.220	-0.040
2020/01/31 07:38:47.3	89.580	0.100	0.290	-0.070
2020/01/31 07:38:47.4	89.580	0.070	0.360	-0.100
2020/01/31 07:38:47.5	89.590	0.030	0.420	-0.120
2020/01/31 07:38:47.6	89.590	0.000	0.480	-0.130
2020/01/31 07:38:47.7	89.590	-0.030	0.530	-0.150
2020/01/31 07:38:47.8	89.590	-0.060	0.570	-0.150
2020/01/31 07:38:47.9	89.590	-0.090	0.610	-0.160
2020/01/31 07:38:48.0	89.580	-0.120	0.650	-0.160
2020/01/31 07:38:48.1	89.580	-0.150	0.670	-0.150
2020/01/31 07:38:48.2	89.570	-0.170	0.690	-0.150
2020/01/31 07:38:48.3	89.580	-0.190	0.710	-0.140
2020/01/31 07:38:48.4	89.570	-0.220	0.720	-0.130
2020/01/31 07:38:48.5	89.560	-0.230	0.720	-0.110
2020/01/31 07:38:48.6	89.550	-0.250	0.720	-0.090
2020/01/31 07:38:48.7	89.540	-0.270	0.710	-0.080
2020/01/31 07:38:48.8	89.530	-0.280	0.690	-0.050
2020/01/31 07:38:48.9	89.520	-0.290	0.670	-0.030
2020/01/31 07:38:49.0	89.510	-0.300	0.640	-0.010
2020/01/31 07:38:49.1	89.490	-0.310	0.610	0.020
2020/01/31 07:38:49.2	89.480	-0.320	0.580	0.050
2020/01/31 07:38:49.3	89.470	-0.320	0.530	0.070
2020/01/31 07:38:49.4	89.450	-0.320	0.490	0.100
2020/01/31 07:38:49.5	89.440	-0.330	0.450	0.130
2020/01/31 07:38:49.6	89.430	-0.330	0.400	0.160
2020/01/31 07:38:49.7	89.420	-0.330	0.350	0.190
2020/01/31 07:38:49.8	89.400	-0.330	0.300	0.220
2020/01/31 07:38:49.9	89.390	-0.330	0.250	0.260
2020/01/31 07:38:50.0	89.380	-0.320	0.200	0.290
2020/01/31 07:38:50.1	89.370	-0.320	0.150	0.320
2020/01/31 07:38:50.2	89.360	-0.320	0.090	0.350
2020/01/31 07:38:50.3	89.350	-0.320	0.040	0.390
2020/01/31 07:38:50.4	89.340	-0.310	-0.010	0.420
2020/01/31 07:38:50.5	89.330	-0.310	-0.060	0.460
2020/01/31 07:38:50.6	89.320	-0.310	-0.110	0.490
2020/01/31 07:38:50.7	89.320	-0.310	-0.150	0.520
2020/01/31 07:38:50.8	89.310	-0.310	-0.190	0.560
2020/01/31 07:38:50.9	89.300	-0.300	-0.230	0.590
2020/01/31 07:38:51.0	89.300	-0.300	-0.270	0.620
2020/01/31 07:38:51.1	89.290	-0.300	-0.300	0.650
2020/01/31 07:38:51.2	89.290	-0.300	-0.340	0.680
2020/01/31 07:38:51.3	89.290	-0.300	-0.370	0.710
2020/01/31 07:38:51.4	89.290	-0.300	-0.390	0.740
2020/01/31 07:38:51.5	89.280	-0.300	-0.420	0.770
2020/01/31 07:38:51.6	89.280	-0.290	-0.440	0.800
2020/01/31 07:38:51.7	89.280	-0.290	-0.450	0.820
2020/01/31 07:38:51.8	89.280	-0.290	-0.470	0.850
2020/01/31 07:38:51.9	89.280	-0.290	-0.480	0.870
2020/01/31 07:38:52.0	89.290	-0.280	-0.490	0.890
2020/01/31 07:38:52.1	89.290	-0.280	-0.500	0.910
2020/01/31 07:38:52.2	89.290	-0.270	-0.500	0.930
2020/01/31 07:38:52.3	89.310	-0.260	-0.510	0.950
2020/01/31 07:38:52.4	89.310	-0.250	-0.510	0.960
2020/01/31 07:38:52.5	89.310	-0.240	-0.510	0.980
2020/01/31 07:38:52.6	89.320	-0.230	-0.510	0.990
2020/01/31 07:38:52.7	89.320	-0.220	-0.510	1.000
2020/01/31 07:38:52.8	89.320	-0.200	-0.510	1.010
2020/01/31 07:38:52.9	89.330	-0.190	-0.510	1.020
2020/01/31 07:38:53.0	89.330	-0.170	-0.510	1.020
2020/01/31 07:38:53.1	89.330	-0.150	-0.510	1.030
2020/01/31 07:38:53.2	89.330	-0.130	-0.500	1.030
2020/01/31 07:38:53.3	89.340	-0.100	-0.500	1.040
2020/01/31 07:38:53.4	89.340	-0.070	-0.500	1.040
2020/01/31 07:38:53.5	89.340	-0.050	-0.510	1.040
2020/01/31 07:38:53.6	89.340	-0.020	-0.510	1.040
2020/01/31 07:38:53.7	89.350	0.010	-0.510	1.030
2020/01/31 07:38:53.8	89.350	0.040	-0.510	1.030
2020/01/31 07:38:53.9	89.350	0.070	-0.510	1.020
2020/01/31 07:38:54.0	89.350	0.110	-0.510	1.020
2020/01/31 07:38:54.1	89.360	0.140	-0.510	1.010
2020/01/31 07:38:54.2	89.360	0.170	-0.510	1.000
2020/01/31 07:38:54.3	89.370	0.210	-0.520	0.990
2020/01/31 07:38:54.4	89.380	0.240	-0.520	0.980
2020/01/31 07:38:54.5	89.380	0.270	-0.510	0.970
2020/01/31 07:38:54.6	89.390	0.300	-0.510	0.950
2020/01/31 07:38:54.7	89.400	0.330	-0.500	0.940
2020/01/31 07:38:54.8	89.410	0.360	-0.500	0.930
2020/01/31 07:38:54.9	89.420	0.390	-0.490	0.920
2020/01/31 07:38:55.0	89.440	0.410	-0.480	0.900
2020/01/31 07:38:55.1	89.450	0.440	-0.460	0.890
2020/01/31 07:38:55.2	89.460	0.460	-0.450	0.880
2020/01/31 07:38:55.3	89.480	0.470	-0.420	0.870
2020/01/31 07:38:55.4	89.490	0.490	-0.400	0.860
2020/01/31 07:38:55.5	89.510	0.500	-0.380	0.850
2020/01/31 07:38:55.6	89.520	0.510	-0.360	0.840
2020/01/31 07:38:55.7	89.540	0.520	-0.330	0.830
2020/01/31 07:38:55.8	89.560	0.530	-0.300	0.820
2020/01/31 07:38:55.9	89.570	0.530	-0.270	0.820
2020/01/31 07:38:56.0	89.590	0.530	-0.240	0.810
2020/01/31 07:38:56.1	89.600	0.520	-0.200	0.810
2020/01/31 07:38:56.2	89.610	0.520	-0.170	0.810
2020/01/31 07:38:56.3	89.620	0.510	-0.140	0.810
2020/01/31 07:38:56.4	89.630	0.490	-0.100	0.810
2020/01/31 07:38:56.5	89.640	0.480	-0.060	0.810
2020/01/31 07:38:56.6	89.650	0.460	-0.020	0.820
2020/01/31 07:38:56.7	89.650	0.440	0.020	0.820
2020/01/31 07:38:56.8	89.650	0.420	0.050	0.830
2020/01/31 07:38:56.9	89.650	0.390	0.090	0.840
2020/01/31 07:38:57.0	89.650	0.360	0.130	0.850
2020/01/31 07:38:57.1	89.640	0.330	0.170	0.860
2020/01/31 07:38:57.2	89.630	0.300	0.200	0.870
2020/01/31 07:38:57.3	89.610	0.270	0.240	0.880
2020/01/31 07:38:57.4	89.600	0.240	0.270	0.900
2020/01/31 07:38:57.5	89.590	0.200	0.300	0.910
2020/01/31 07:38:57.6	89.570	0.160	0.330	0.920
2020/01/31 07:38:57.7	89.550	0.130	0.360	0.930
2020/01/31 07:38:57.8	89.530	0.090	0.380	0.940
2020/01/31 07:38:57.9	89.510	0.050	0.400	0.960
2020/01/31 07:38:58.0	89.490	0.010	0.420	0.970
2020/01/31 07:38:58.1	89.460	-0.030	0.440	0.980
2020/01/31 07:38:58.2	89.440	-0.070	0.450	0.990
2020/01/31 07:38:58.3	89.400	-0.100	0.450	1.000
2020/01/31 07:38:58.4	89.370	-0.140	0.460	1.000
2020/01/31 07:38:58.5	89.340	-0.180	0.460	1.010
2020/01/31 07:38:58.6	89.310	-0.210	0.460	1.020
2020/01/31 07:38:58.7	89.280	-0.250	0.450	1.020
2020/01/31 07:38:58.8	89.250	-0.280	0.450	1.030
2020/01/31 07:38:58.9	89.220	-0.310	0.440	1.030
2020/01/31 07:38:59.0	89.200	-0.340	0.420	1.030
2020/01/31 07:38:59.1	89.170	-0.370	0.400	1.030
2020/01/31 07:38:59.2	89.140	-0.400	0.380	1.020
2020/01/31 07:38:59.3	89.120	-0.420	0.360	1.010
2020/01/31 07:38:59.4	89.100	-0.440	0.330	1.010
2020/01/31 07:38:59.5	89.080	-0.460	0.310	1.000
2020/01/31 07:38:59.6	89.060	-0.480	0.280	0.990
2020/01/31 07:38:59.7	89.050	-0.500	0.240	0.980
2020/01/31 07:38:59.8	89.030	-0.510	0.210	0.960
2020/01/31 07:38:59.9	89.020	-0.520	0.170	0.950
2020/01/31 07:39:00.0	89.010	-0.530	0.130	0.930
2020/01/31 07:39:00.1	89.010	-0.530	0.090	0.910
2020/01/31 07:39:00.2	89.000	-0.530	0.050	0.890
2020/01/31 07:39:00.3	89.000	-0.530	0.010	0.870
2020/01/31 07:39:00.4	89.000	-0.530	-0.040	0.840
2020/01/31 07:39:00.5	89.000	-0.520	-0.080	0.820
2020/01/31 07:39:00.6	89.010	-0.520	-0.120	0.790
2020/01/31 07:39:00.7	89.020	-0.500	-0.160	0.760
2020/01/31 07:39:00.8	89.030	-0.490	-0.210	0.730
2020/01/31 07:39:00.9	89.040	-0.470	-0.250	0.700
2020/01/31 07:39:01.0	89.060	-0.460	-0.290	0.670
2020/01/31 07:39:01.1	89.080	-0.430	-0.330	0.640
2020/01/31 07:39:01.2	89.100	-0.410	-0.370	0.610
2020/01/31 07:39:01.3	89.140	-0.390	-0.410	0.570
2020/01/31 07:39:01.4	89.160	-0.360	-0.450	0.540
2020/01/31 07:39:01.5	89.190	-0.330	-0.490	0.500
2020/01/31 07:39:01.6	89.220	-0.300	-0.530	0.470
2020/01/31 07:39:01.7	89.250	-0.270	-0.560	0.430
2020/01/31 07:39:01.8	89.280	-0.240	-0.600	0.400
2020/01/31 07:39:01.9	89.320	-0.200	-0.630	0.360
2020/01/31 07:39:02.0	89.350	-0.170	-0.660	0.330
2020/01/31 07:39:02.1	89.390	-0.130	-0.690	0.290
2020/01/31 07:39:02.2	89.430	-0.090	-0.720	0.260
2020/01/31 07:39:02.3	89.470	-0.060	-0.740	0.230
2020/01/31 07:39:02.4	89.510	-0.020	-0.770	0.200
2020/01/31 07:39:02.5	89.550	0.020	-0.790	0.160
2020/01/31 07:39:02.6	89.590	0.060	-0.810	0.140
2020/01/31 07:39:02.7	89.630	0.090	-0.820	0.110
2020/01/31 07:39:02.8	89.660	0.130	-0.840	0.090
2020/01/31 07:39:02.9	89.700	0.170	-0.850	0.070
2020/01/31 07:39:03.0	89.740	0.200	-0.860	0.050
2020/01/31 07:39:03.1	89.770	0.240	-0.870	0.040
2020/01/31 07:39:03.2	89.800	0.270	-0.870	0.030
2020/01/31 07:39:03.3	89.850	0.300	-0.870	0.020
2020/01/31 07:39:03.4	89.870	0.330	-0.860	0.020
2020/01/31 07:39:03.5	89.900	0.360	-0.860	0.020
2020/01/31 07:39:03.6	89.920	0.390	-0.850	0.020
2020/01/31 07:39:03.7	89.940	0.420	-0.830	0.030
2020/01/31 07:39:03.8	89.960	0.440	-0.810	0.040
2020/01/31 07:39:03.9	89.970	0.460	-0.790	0.060
2020/01/31 07:39:04.0	89.980	0.480	-0.760	0.080
2020/01/31 07:39:04.1	89.990	0.500	-0.730	0.100
2020/01/31 07:39:04.2	89.990	0.510	-0.690	0.130
2020/01/31 07:39:04.3	89.990	0.520	-0.660	0.160
2020/01/31 07:39:04.4	89.990	0.530	-0.620	0.190
2020/01/31 07:39:04.5	89.980	0.540	-0.570	0.230
2020/01/31 07:39:04.6	89.970	0.550	-0.520	0.260
2020/01/31 07:39:04.7	89.950	0.550	-0.470	0.300
2020/01/31 07:39:04.8	89.940	0.550	-0.410	0.340
2020/01/31 07:39:04.9	89.920	0.540	-0.360	0.390
2020/01/31 07:39:05.0	89.890	0.540	-0.300	0.430
2020/01/31 07:39:05.1	89.860	0.530	-0.240	0.470
2020/01/31 07:39:05.2	89.840	0.520	-0.180	0.520
2020/01/31 07:39:05.3	89.800	0.500	-0.110	0.560
2020/01/31 07:39:05.4	89.770	0.490	-0.050	0.600
2020/01/31 07:39:05.5	89.730	0.470	0.010	0.650
2020/01/31 07:39:05.6	89.690	0.450	0.070	0.690
2020/01/31 07:39:05.7	89.660	0.420	0.130	0.730
2020/01/31 07:39:05.8	89.620	0.400	0.190	0.770
2020/01/31 07:39:05.9	89.580	0.370	0.250	0.810
2020/01/31 07:39:06.0	89.530	0.340	0.300	0.840
2020/01/31 07:39:06.1	89.490	0.310	0.350	0.870
2020/01/31 07:39:06.2	89.450	0.280	0.400	0.910
2020/01/31 07:39:06.3	89.400	0.250	0.450	0.930
2020/01/31 07:39:06.4	89.360	0.210	0.490	0.960
2020/01/31 07:39:06.5	89.320	0.180	0.520	0.980
2020/01/31 07:39:06.6	89.280	0.140	0.560	1.000
2020/01/31 07:39:06.7	89.240	0.110	0.590	1.020
2020/01/31 07:39:06.8	89.200	0.070	0.610	1.030
2020/01/31 07:39:06.9	89.160	0.030	0.630	1.040
2020/01/31 07:39:07.0	89.130	-0.000	0.650	1.050
2020/01/31 07:39:07.1	89.100	-0.040	0.650	1.050
2020/01/31 07:39:07.2	89.070	-0.070	0.660	1.050
2020/01/31 07:39:07.3	89.040	-0.110	0.660	1.050
2020/01/31 07:39:07.4	89.020	-0.140	0.660	1.040
2020/01/31 07:39:07.5	88.990	-0.170	0.650	1.030
2020/01/31 07:39:07.6	88.980	-0.200	0.630	1.020
2020/01/31 07:39:07.7	88.960	-0.230	0.610	1.010
2020/01/31 07:39:07.8	88.950	-0.260	0.590	0.990
2020/01/31 07:39:07.9	88.940	-0.290	0.570	0.970
2020/01/31 07:39:08.0	88.930	-0.310	0.540	0.940
2020/01/31 07:39:08.1	88.930	-0.330	0.500	0.920
2020/01/31 07:39:08.2	88.930	-0.350	0.470	0.890
2020/01/31 07:39:08.3	88.930	-0.370	0.420	0.860
2020/01/31 07:39:08.4	88.940	-0.390	0.380	0.830
2020/01/31 07:39:08.5	88.950	-0.400	0.340	0.800
2020/01/31 07:39:08.6	88.960	-0.410	0.290	0.770
2020/01/31 07:39:08.7	88.970	-0.420	0.240	0.740
2020/01/31 07:39:08.8	88.990	-0.430	0.200	0.700
2020/01/31 07:39:08.9	89.010	-0.430	0.150	0.670
2020/01/31 07:39:09.0	89.030	-0.440	0.100	0.640
2020/01/31 07:39:09.1	89.060	-0.440	0.050	0.600
2020/01/31 07:39:09.2	89.090	-0.430	-0.000	0.570
2020/01/31 07:39:09.3	89.110	-0.430	-0.050	0.530
2020/01/31 07:39:09.4	89.150	-0.430	-0.100	0.500
2020/01/31 07:39:09.5	89.180	-0.420	-0.150	0.470
2020/01/31 07:39:09.6	89.220	-0.410	-0.200	0.440
2020/01/31 07:39:09.7	89.260	-0.400	-0.240	0.410
2020/01/31 07:39:09.8	89.300	-0.390	-0.280	0.370
2020/01/31 07:39:09.9	89.350	-0.380	-0.330	0.340
2020/01/31 07:39:10.0	89.390	-0.360	-0.370	0.310
2020/01/31 07:39:10.1	89.430	-0.350	-0.400	0.280
2020/01/31 07:39:10.2	89.480	-0.330	-0.440	0.260
2020/01/31 07:39:10.3	89.530	-0.320	-0.470	0.230
2020/01/31 07:39:10.4	89.580	-0.300	-0.500	0.210
2020/01/31 07:39:10.5	89.620	-0.290	-0.520	0.180
2020/01/31 07:39:10.6	89.670	-0.270	-0.550	0.160
2020/01/31 07:39:10.7	89.710	-0.260	-0.570	0.140
2020/01/31 07:39:10.8	89.750	-0.240	-0.580	0.120
2020/01/31 07:39:10.9	89.790	-0.220	-0.600	0.110
2020/01/31 07:39:11.0	89.820	-0.210	-0.610	0.100
2020/01/31 07:39:11.1	89.850	-0.190	-0.620	0.090
2020/01/31 07:39:11.2	89.880	-0.180	-0.620	0.090
2020/01/31 07:39:11.3	89.910	-0.160	-0.630	0.090
2020/01/31 07:39:11.4	89.940	-0.150	-0.630	0.090
2020/01/31 07:39:11.5	89.960	-0.140	-0.620	0.100
2020/01/31 07:39:11.6	89.970	-0.120	-0.620	0.110
2020/01/31 07:39:11.7	89.990	-0.110	-0.610	0.130
2020/01/31 07:39:11.8	90.000	-0.100	-0.600	0.150
2020/01/31 07:39:11.9	90.000	-0.090	-0.590	0.170
2020/01/31 07:39:12.0	90.010	-0.070	-0.580	0.200
2020/01/31 07:39:12.1	90.010	-0.060	-0.560	0.230
2020/01/31 07:39:12.2	90.010	-0.050	-0.550	0.270
2020/01/31 07:39:12.3	90.000	-0.040	-0.520	0.300
2020/01/31 07:39:12.4	89.990	-0.030	-0.510	0.350
2020/01/31 07:39:12.5	89.980	-0.020	-0.490	0.390
2020/01/31 07:39:12.6	89.970	-0.000	-0.470	0.440
2020/01/31 07:39:12.7	89.950	0.010	-0.450	0.490
2020/01/31 07:39:12.8	89.940	0.020	-0.440	0.540
2020/01/31 07:39:12.9	89.920	0.030	-0.420	0.600
2020/01/31 07:39:13.0	89.900	0.050	-0.410	0.650
2020/01/31 07:39:13.1	89.880	0.060	-0.400	0.710
2020/01/31 07:39:13.2	89.860	0.070	-0.390	0.760
2020/01/31 07:39:13.3	89.830	0.090	-0.380	0.820
2020/01/31 07:39:13.4	89.810	0.110	-0.370	0.880
2020/01/31 07:39:13.5	89.790	0.120	-0.370	0.930
2020/01/31 07:39:13.6	89.760	0.140	-0.370	0.990
2020/01/31 07:39:13.7	89.740	0.160	-0.370	1.040
2020/01/31 07:39:13.8	89.720	0.180	-0.380	1.090
2020/01/31 07:39:13.9	89.700	0.200	-0.380	1.140
2020/01/31 07:39:14.0	89.680	0.220	-0.390	1.190
2020/01/31 07:39:14.1	89.660	0.240	-0.400	1.230
2020/01/31 07:39:14.2	89.640	0.260	-0.410	1.270
2020/01/31 07:39:14.3	89.630	0.280	-0.430	1.310
2020/01/31 07:39:14.4	89.620	0.300	-0.440	1.340
2020/01/31 07:39:14.5	89.600	0.310	-0.450	1.370
2020/01/31 07:39:14.6	89.590	0.330	-0.470	1.400
2020/01/31 07:39:14.7	89.580	0.350	-0.480	1.420
2020/01/31 07:39:14.8	89.570	0.370	-0.500	1.440
2020/01/31 07:39:14.9	89.570	0.380	-0.510	1.460
2020/01/31 07:39:15.0	89.560	0.400	-0.520	1.470
2020/01/31 07:39:15.1	89.560	0.410	-0.520	1.480
2020/01/31 07:39:15.2	89.550	0.430	-0.530	1.480
2020/01/31 07:39:15.3	89.560	0.440	-0.530	1.480
2020/01/31 07:39:15.4	89.550	0.440	-0.520	1.480
2020/01/31 07:39:15.5	89.550	0.450	-0.520	1.480
2020/01/31 07:39:15.6	89.550	0.450	-0.500	1.470
2020/01/31 07:39:15.7	89.550	0.450	-0.490	1.460
2020/01/31 07:39:15.8	89.560	0.450	-0.460	1.450
2020/01/31 07:39:15.9	89.560	0.450	-0.440	1.440
2020/01/31 07:39:16.0	89.560	0.440	-0.410	1.420
2020/01/31 07:39:16.1	89.560	0.440	-0.370	1.400
2020/01/31 07:39:16.2	89.560	0.420	-0.330	1.380
2020/01/31 07:39:16.3	89.550	0.410	-0.290	1.360
2020/01/31 07:39:16.4	89.550	0.390	-0.240	1.330
2020/01/31 07:39:16.5	89.550	0.380	-0.190	1.310
2020/01/31 07:39:16.6	89.540	0.350	-0.140	1.280
2020/01/31 07:39:16.7	89.540	0.330	-0.080	1.250
2020/01/31 07:39:16.8	89.540	0.310	-0.020	1.220
2020/01/31 07:39:16.9	89.530	0.280	0.040	1.190
2020/01/31 07:39:17.0	89.530	0.250	0.110	1.150
2020/01/31 07:39:17.1	89.520	0.220	0.170	1.120
2020/01/31 07:39:17.2	89.510	0.180	0.240	1.080
2020/01/31 07:39:17.3	89.510	0.150	0.300	1.040
2020/01/31 07:39:17.4	89.500	0.120	0.360	1.000
2020/01/31 07:39:17.5	89.490	0.080	0.420	0.960
2020/01/31 07:39:17.6	89.490	0.040	0.490	0.920
2020/01/31 07:39:17.7	89.480	0.010	0.540	0.870
2020/01/31 07:39:17.8	89.470	-0.030	0.600	0.830
2020/01/31 07:39:17.9	89.470	-0.070	0.650	0.780
2020/01/31 07:39:18.0	89.460	-0.110	0.700	0.740
2020/01/31 07:39:18.1	89.460	-0.140	0.750	0.690
2020/01/31 07:39:18.2	89.450	-0.180	0.790	0.640
2020/01/31 07:39:18.3	89.440	-0.220	0.820	0.590
2020/01/31 07:39:18.4	89.440	-0.250	0.850	0.540
2020/01/31 07:39:18.5	89.440	-0.280	0.880	0.490
2020/01/31 07:39:18.6	89.440	-0.320	0.900	0.430
2020/01/31 07:39:18.7	89.440	-0.350	0.910	0.380
2020/01/31 07:39:18.8	89.440	-0.370	0.920	0.330
2020/01/31 07:39:18.9	89.440	-0.400	0.920	0.280
2020/01/31 07:39:19.0	89.440	-0.420	0.920	0.230
2020/01/31 07:39:19.1	89.450	-0.440	0.910	0.180
2020/01/31 07:39:19.2	89.460	-0.460	0.890	0.130
2020/01/31 07:39:19.3	89.460	-0.480	0.870	0.090
2020/01/31 07:39:19.4	89.470	-0.490	0.840	0.040
2020/01/31 07:39:19.5	89.490	-0.500	0.810	-0.000
2020/01/31 07:39:19.6	89.500	-0.510	0.770	-0.040
2020/01/31 07:39:19.7	89.510	-0.510	0.720	-0.080
2020/01/31 07:39:19.8	89.520	-0.510	0.670	-0.120
2020/01/31 07:39:19.9	89.540	-0.510	0.610	-0.150
2020/01/31 07:39:20.0	89.560	-0.500	0.550	-0.180
2020/01/31 07:39:20.1	89.570	-0.500	0.480	-0.210
2020/01/31 07:39:20.2	89.590	-0.480	0.400	-0.240
2020/01/31 07:39:20.3	89.600	-0.470	0.320	-0.260
2020/01/31 07:39:20.4	89.610	-0.450	0.240	-0.280
2020/01/31 07:39:20.5	89.630	-0.430	0.150	-0.300
2020/01/31 07:39:20.6	89.650	-0.410	0.060	-0.320
2020/01/31 07:39:20.7	89.670	-0.380	-0.030	-0.340
2020/01/31 07:39:20.8	89.700	-0.350	-0.130	-0.350
2020/01/31 07:39:20.9	89.720	-0.320	-0.220	-0.360
2020/01/31 07:39:21.0	89.740	-0.290	-0.320	-0.370
2020/01/31 07:39:21.1	89.770	-0.250	-0.420	-0.380
2020/01/31 07:39:21.2	89.790	-0.220	-0.510	-0.380
2020/01/31 07:39:21.3	89.820	-0.180	-0.610	-0.390
2020/01/31 07:39:21.4	89.850	-0.140	-0.710	-0.400
2020/01/31 07:39:21.5	89.870	-0.110	-0.800	-0.400
2020/01/31 07:39:21.6	89.900	-0.070	-0.890	-0.400
2020/01/31 07:39:21.7	89.930	-0.030	-0.970	-0.390
2020/01/31 07:39:21.8	89.950	0.010	-1.060	-0.390
2020/01/31 07:39:21.9	89.980	0.050	-1.130	-0.380
2020/01/31 07:39:22.0	90.000	0.090	-1.200	-0.370
2020/01/31 07:39:22.1	90.030	0.120	-1.270	-0.360
2020/01/31 07:39:22.2	90.050	0.160	-1.330	-0.340
2020/01/31 07:39:22.3	90.080	0.190	-1.380	-0.320
2020/01/31 07:39:22.4	90.100	0.220	-1.430	-0.300
2020/01/31 07:39:22.5	90.120	0.250	-1.460	-0.270
2020/01/31 07:39:22.6	90.130	0.270	-1.490	-0.240
2020/01/31 07:39:22.7	90.150	0.300	-1.510	-0.200
2020/01/31 07:39:22.8	90.160	0.310	-1.520	-0.160
2020/01/31 07:39:22.9	90.170	0.330	-1.510	-0.120
2020/01/31 07:39:23.0	90.180	0.340	-1.500	-0.070
2020/01/31 07:39:23.1	90.190	0.350	-1.480	-0.020
2020/01/31 07:39:23.2	90.190	0.360	-1.450	0.030
2020/01/31 07:39:23.3	90.200	0.360	-1.410	0.090
2020/01/31 07:39:23.4	90.200	0.360	-1.370	0.150
2020/01/31 07:39:23.5	90.190	0.360	-1.310	0.210
2020/01/31 07:39:23.6	90.190	0.350	-1.240	0.280
2020/01/31 07:39:23.7	90.180	0.340	-1.170	0.350
2020/01/31 07:39:23.8	90.170	0.320	-1.090	0.420
2020/01/31 07:39:23.9	90.160	0.300	-1.010	0.490
2020/01/31 07:39:24.0	90.150	0.280	-0.910	0.570
2020/01/31 07:39:24.1	90.130	0.260	-0.810	0.650
2020/01/31 07:39:24.2	90.110	0.230	-0.710	0.720
2020/01/31 07:39:24.3	90.100	0.210	-0.600	0.800
2020/01/31 07:39:24.4	90.080	0.180	-0.490	0.880
2020/01/31 07:39:24.5	90.060	0.140	-0.380	0.960
2020/01/31 07:39:24.6	90.040	0.110	-0.270	1.030
2020/01/31 07:39:24.7	90.010	0.080	-0.150	1.110
2020/01/31 07:39:24.8	89.990	0.040	-0.040	1.180
2020/01/31 07:39:24.9	89.960	0.010	0.070	1.250
2020/01/31 07:39:25.0	89.940	-0.030	0.170	1.320
2020/01/31 07:39:25.1	89.910	-0.060	0.280	1.390
2020/01/31 07:39:25.2	89.880	-0.100	0.380	1.450
2020/01/31 07:39:25.3	89.850	-0.130	0.470	1.500
2020/01/31 07:39:25.4	89.820	-0.160	0.560	1.560
2020/01/31 07:39:25.5	89.790	-0.190	0.640	1.610
2020/01/31 07:39:25.6	89.770	-0.220	0.710	1.650
2020/01/31 07:39:25.7	89.740	-0.250	0.780	1.690
2020/01/31 07:39:25.8	89.720	-0.270	0.840	1.730
2020/01/31 07:39:25.9	89.690	-0.300	0.890	1.770
2020/01/31 07:39:26.0	89.670	-0.310	0.930	1.790
2020/01/31 07:39:26.1	89.640	-0.330	0.960	1.820
2020/01/31 07:39:26.2	89.620	-0.350	0.980	1.840
2020/01/31 07:39:26.3	89.590	-0.360	1.000	1.860
2020/01/31 07:39:26.4	89.570	-0.360	1.000	1.870
2020/01/31 07:39:26.5	89.550	-0.370	0.990	1.880
2020/01/31 07:39:26.6	89.530	-0.370	0.980	1.890
2020/01/31 07:39:26.7	89.510	-0.370	0.960	1.890
2020/01/31 07:39:26.8	89.490	-0.360	0.930	1.890
2020/01/31 07:39:26.9	89.480	-0.360	0.890	1.890
2020/01/31 07:39:27.0	89.470	-0.340	0.840	1.880
2020/01/31 07:39:27.1	89.450	-0.330	0.780	1.870
2020/01/31 07:39:27.2	89.440	-0.310	0.720	1.860
2020/01/31 07:39:27.3	89.420	-0.290	0.650	1.850
2020/01/31 07:39:27.4	89.410	-0.270	0.580	1.830
2020/01/31 07:39:27.5	89.410	-0.250	0.500	1.810
2020/01/31 07:39:27.6	89.400	-0.220	0.420	1.780
2020/01/31 07:39:27.7	89.400	-0.200	0.340	1.760
2020/01/31 07:39:27.8	89.400	-0.170	0.250	1.720
2020/01/31 07:39:27.9	89.400	-0.140	0.160	1.690
2020/01/31 07:39:28.0	89.400	-0.100	0.070	1.660
2020/01/31 07:39:28.1	89.410	-0.070	-0.030	1.620
2020/01/31 07:39:28.2	89.410	-0.040	-0.120	1.570
2020/01/31 07:39:28.3	89.420	-0.000	-0.210	1.520
2020/01/31 07:39:28.4	89.430	0.030	-0.310	1.470
2020/01/31 07:39:28.5	89.440	0.060	-0.390	1.420
2020/01/31 07:39:28.6	89.460	0.100	-0.480	1.370
2020/01/31 07:39:28.7	89.480	0.130	-0.560	1.310
2020/01/31 07:39:28.8	89.500	0.160	-0.640	1.250
2020/01/31 07:39:28.9	89.520	0.200	-0.720	1.180
2020/01/31 07:39:29.0	89.540	0.230	-0.790	1.120
2020/01/31 07:39:29.1	89.570	0.260	-0.850	1.050
2020/01/31 07:39:29.2	89.590	0.280	-0.910	0.980
2020/01/31 07:39:29.3	89.620	0.310	-0.970	0.910
2020/01/31 07:39:29.4	89.640	0.340	-1.010	0.840
2020/01/31 07:39:29.5	89.670	0.360	-1.050	0.770
2020/01/31 07:39:29.6	89.700	0.380	-1.080	0.700
2020/01/31 07:39:29.7	89.730	0.400	-1.100	0.630
2020/01/31 07:39:29.8	89.760	0.420	-1.120	0.560
2020/01/31 07:39:29.9	89.790	0.430	-1.130	0.490
2020/01/31 07:39:30.0	89.820	0.440	-1.130	0.430
2020/01/31 07:39:30.1	89.850	0.450	-1.120	0.360
2020/01/31 07:39:30.2	89.870	0.460	-1.100	0.300
2020/01/31 07:39:30.3	89.900	0.460	-1.080	0.240
2020/01/31 07:39:30.4	89.930	0.460	-1.050	0.190
2020/01/31 07:39:30.5	89.950	0.460	-1.010	0.130
2020/01/31 07:39:30.6	89.970	0.450	-0.960	0.090
2020/01/31 07:39:30.7	89.980	0.440	-0.910	0.040
2020/01/31 07:39:30.8	90.000	0.430	-0.860	-0.000
2020/01/31 07:39:30.9	90.010	0.420	-0.790	-0.040
2020/01/31 07:39:31.0	90.020	0.400	-0.720	-0.080
2020/01/31 07:39:31.1	90.030	0.380	-0.650	-0.110
2020/01/31 07:39:31.2	90.040	0.360	-0.570	-0.140
2020/01/31 07:39:31.3	90.050	0.340	-0.490	-0.170
2020/01/31 07:39:31.4	90.060	0.320	-0.400	-0.190
2020/01/31 07:39:31.5	90.060	0.290	-0.320	-0.200
2020/01/31 07:39:31.6	90.060	0.260	-0.230	-0.220
2020/01/31 07:39:31.7	90.060	0.230	-0.140	-0.230
2020/01/31 07:39:31.8	90.050	0.200	-0.060	-0.230
2020/01/31 07:39:31.9	90.050	0.170	0.030	-0.230
2020/01/31 07:39:32.0	90.040	0.140	0.110	-0.230
2020/01/31 07:39:32.1	90.040	0.110	0.190	-0.230
2020/01/31 07:39:32.2	90.030	0.080	0.270	-0.220
2020/01/31 07:39:32.3	90.020	0.050	0.350	-0.210
2020/01/31 07:39:32.4	90.010	0.020	0.420	-0.190
2020/01/31 07:39:32.5	90.000	-0.010	0.480	-0.170
2020/01/31 07:39:32.6	89.990	-0.040	0.540	-0.150
2020/01/31 07:39:32.7	89.980	-0.060	0.600	-0.130
2020/01/31 07:39:32.8	89.970	-0.090	0.650	-0.110
2020/01/31 07:39:32.9	89.950	-0.110	0.690	-0.080
2020/01/31 07:39:33.0	89.940	-0.130	0.720	-0.050
2020/01/31 07:39:33.1	89.930	-0.150	0.740	-0.020
2020/01/31 07:39:33.2	89.910	-0.160	0.760	0.010
2020/01/31 07:39:33.3	89.900	-0.180	0.770	0.040
2020/01/31 07:39:33.4	89.880	-0.190	0.780	0.080
2020/01/31 07:39:33.5	89.870	-0.200	0.770	0.110
2020/01/31 07:39:33.6	89.850	-0.200	0.760	0.150
2020/01/31 07:39:33.7	89.830	-0.210	0.740	0.180
2020/01/31 07:39:33.8	89.820	-0.210	0.710	0.220
2020/01/31 07:39:33.9	89.800	-0.200	0.670	0.260
2020/01/31 07:39:34.0	89.780	-0.200	0.630	0.300
2020/01/31 07:39:34.1	89.760	-0.190	0.590	0.330
2020/01/31 07:39:34.2	89.740	-0.180	0.540	0.370
2020/01/31 07:39:34.3	89.720	-0.170	0.480	0.410
2020/01/31 07:39:34.4	89.700	-0.160	0.420	0.450
2020/01/31 07:39:34.5	89.680	-0.150	0.360	0.480
2020/01/31 07:39:34.6	89.670	-0.140	0.290	0.520
2020/01/31 07:39:34.7	89.650	-0.120	0.220	0.550
2020/01/31 07:39:34.8	89.630	-0.100	0.160	0.580
2020/01/31 07:39:34.9	89.620	-0.090	0.090	0.610
2020/01/31 07:39:35.0	89.610	-0.070	0.020	0.640
2020/01/31 07:39:35.1	89.590	-0.060	-0.050	0.670
2020/01/31 07:39:35.2	89.580	-0.040	-0.110	0.700
2020/01/31 07:39:35.3	89.580	-0.020	-0.180	0.720
2020/01/31 07:39:35.4	89.570	-0.010	-0.250	0.750
2020/01/31 07:39:35.5	89.570	0.000	-0.310	0.770
2020/01/31 07:39:35.6	89.560	0.020	-0.360	0.790
2020/01/31 07:39:35.7	89.560	0.030	-0.420	0.820
2020/01/31 07:39:35.8	89.550	0.040	-0.470	0.840
2020/01/31 07:39:35.9	89.550	0.050	-0.510	0.860
2020/01/31 07:39:36.0	89.550	0.050	-0.560	0.880
2020/01/31 07:39:36.1	89.550	0.060	-0.600	0.900
2020/01/31 07:39:36.2	89.550	0.060	-0.630	0.920
2020/01/31 07:39:36.3	89.550	0.060	-0.660	0.950
2020/01/31 07:39:36.4	89.560	0.060	-0.690	0.970
2020/01/31 07:39:36.5	89.560	0.060	-0.710	0.990
2020/01/31 07:39:36.6	89.560	0.060	-0.720	1.020
2020/01/31 07:39:36.7	89.570	0.050	-0.740	1.040
2020/01/31 07:39:36.8	89.570	0.040	-0.740	1.060
2020/01/31 07:39:36.9	89.580	0.030	-0.750	1.080
2020/01/31 07:39:37.0	89.590	0.020	-0.750	1.100
2020/01/31 07:39:37.1	89.590	0.010	-0.750	1.120
2020/01/31 07:39:37.2	89.600	-0.000	-0.740	1.140
2020/01/31 07:39:37.3	89.610	-0.020	-0.730	1.160
2020/01/31 07:39:37.4	89.620	-0.040	-0.720	1.180
2020/01/31 07:39:37.5	89.630	-0.050	-0.700	1.200
2020/01/31 07:39:37.6	89.650	-0.070	-0.690	1.210
2020/01/31 07:39:37.7	89.660	-0.090	-0.670	1.220
2020/01/31 07:39:37.8	89.680	-0.110	-0.640	1.230
2020/01/31 07:39:37.9	89.700	-0.130	-0.620	1.240
2020/01/31 07:39:38.0	89.720	-0.150	-0.590	1.250
2020/01/31 07:39:38.1	89.740	-0.170	-0.570	1.250
2020/01/31 07:39:38.2	89.760	-0.190	-0.540	1.250
2020/01/31 07:39:38.3	89.790	-0.210	-0.510	1.250
2020/01/31 07:39:38.4	89.810	-0.220	-0.480	1.250
2020/01/31 07:39:38.5	89.840	-0.240	-0.440	1.250
2020/01/31 07:39:38.6	89.870	-0.260	-0.410	1.240
2020/01/31 07:39:38.7	89.890	-0.270	-0.380	1.240
2020/01/31 07:39:38.8	89.920	-0.280	-0.340	1.230
2020/01/31 07:39:38.9	89.950	-0.300	-0.310	1.220
2020/01/31 07:39:39.0	89.980	-0.310	-0.270	1.210
2020/01/31 07:39:39.1	90.010	-0.320	-0.230	1.200
2020/01/31 07:39:39.2	90.030	-0.320	-0.200	1.180
2020/01/31 07:39:39.3	90.060	-0.330	-0.160	1.170
2020/01/31 07:39:39.4	90.090	-0.330	-0.120	1.160
2020/01/31 07:39:39.5	90.110	-0.340	-0.080	1.150
2020/01/31 07:39:39.6	90.140	-0.340	-0.050	1.140
2020/01/31 07:39:39.7	90.160	-0.340	-0.020	1.130
2020/01/31 07:39:39.8	90.180	-0.330	0.020	1.130
2020/01/31 07:39:39.9	90.200	-0.330	0.050	1.120
2020/01/31 07:39:40.0	90.210	-0.320	0.080	1.120
2020/01/31 07:39:40.1	90.230	-0.320	0.110	1.120
2020/01/31 07:39:40.2	90.240	-0.310	0.130	1.120
2020/01/31 07:39:40.3	90.240	-0.300	0.160	1.120
2020/01/31 07:39:40.4	90.240	-0.280	0.180	1.120
2020/01/31 07:39:40.5	90.240	-0.270	0.190	1.130
2020/01/31 07:39:40.6	90.240	-0.260	0.210	1.140
2020/01/31 07:39:40.7	90.240	-0.240	0.220	1.150
2020/01/31 07:39:40.8	90.230	-0.220	0.230	1.170
2020/01/31 07:39:40.9	90.210	-0.200	0.230	1.180
2020/01/31 07:39:41.0	90.190	-0.180	0.230	1.200
2020/01/31 07:39:41.1	90.170	-0.160	0.230	1.220
2020/01/31 07:39:41.2	90.150	-0.140	0.220	1.240
2020/01/31 07:39:41.3	90.110	-0.120	0.210	1.260
2020/01/31 07:39:41.4	90.070	-0.090	0.200	1.280
2020/01/31 07:39:41.5	90.040	-0.070	0.180	1.300
2020/01/31 07:39:41.6	90.000	-0.040	0.160	1.320
2020/01/31 07:39:41.7	89.960	-0.020	0.140	1.340
2020/01/31 07:39:41.8	89.920	0.010	0.120	1.360
2020/01/31 07:39:41.9	89.880	0.030	0.090	1.370
2020/01/31 07:39:42.0	89.840	0.060	0.060	1.380
2020/01/31 07:39:42.1	89.800	0.090	0.030	1.390
2020/01/31 07:39:42.2	89.760	0.110	-0.010	1.390
2020/01/31 07:39:42.3	89.720	0.140	-0.040	1.400
2020/01/31 07:39:42.4	89.680	0.170	-0.080	1.390
2020/01/31 07:39:42.5	89.640	0.190	-0.110	1.380
2020/01/31 07:39:42.6	89.610	0.220	-0.150	1.370
2020/01/31 07:39:42.7	89.570	0.240	-0.190	1.350
2020/01/31 07:39:42.8	89.540	0.270	-0.220	1.320
2020/01/31 07:39:42.9	89.520	0.290	-0.260	1.290
2020/01/31 07:39:43.0	89.500	0.320	-0.290	1.260
2020/01/31 07:39:43.1	89.480	0.340	-0.330	1.220
2020/01/31 07:39:43.2	89.470	0.360	-0.360	1.170
2020/01/31 07:39:43.3	89.460	0.380	-0.390	1.120
2020/01/31 07:39:43.4	89.450	0.400	-0.420	1.070
2020/01/31 07:39:43.5	89.450	0.420	-0.450	1.010
2020/01/31 07:39:43.6	89.450	0.430	-0.470	0.950
2020/01/31 07:39:43.7	89.450	0.450	-0.490	0.890
2020/01/31 07:39:43.8	89.460	0.460	-0.500	0.820
2020/01/31 07:39:43.9	89.480	0.470	-0.510	0.750
2020/01/31 07:39:44.0	89.490	0.480	-0.520	0.680
2020/01/31 07:39:44.1	89.510	0.490	-0.530	0.610
2020/01/31 07:39:44.2	89.530	0.500	-0.530	0.530
2020/01/31 07:39:44.3	89.560	0.500	-0.520	0.460
2020/01/31 07:39:44.4	89.590	0.500	-0.520	0.390
2020/01/31 07:39:44.5	89.620	0.500	-0.500	0.320
2020/01/31 07:39:44.6	89.650	0.500	-0.490	0.240
2020/01/31 07:39:44.7	89.680	0.500	-0.470	0.170
2020/01/31 07:39:44.8	89.710	0.490	-0.450	0.100
2020/01/31 07:39:44.9	89.740	0.480	-0.430	0.030
2020/01/31 07:39:45.0	89.770	0.470	-0.400	-0.040
2020/01/31 07:39:45.1	89.810	0.460	-0.370	-0.100
2020/01/31 07:39:45.2	89.840	0.440	-0.330	-0.160
2020/01/31 07:39:45.3	89.880	0.430	-0.300	-0.220
2020/01/31 07:39:45.4	89.910	0.410	-0.260	-0.270
2020/01/31 07:39:45.5	89.950	0.390	-0.220	-0.330
2020/01/31 07:39:45.6	89.980	0.370	-0.180	-0.370
2020/01/31 07:39:45.7	90.010	0.350	-0.140	-0.420
2020/01/31 07:39:45.8	90.040	0.320	-0.100	-0.460
2020/01/31 07:39:45.9	90.070	0.300	-0.060	-0.500
2020/01/31 07:39:46.0	90.100	0.270	-0.020	-0.530
2020/01/31 07:39:46.1	90.130	0.250	0.010	-0.560
2020/01/31 07:39:46.2	90.150	0.220	0.050	-0.590
2020/01/31 07:39:46.3	90.180	0.190	0.090	-0.610
2020/01/31 07:39:46.4	90.210	0.160	0.120	-0.630
2020/01/31 07:39:46.5	90.230	0.140	0.150	-0.650
2020/01/31 07:39:46.6	90.260	0.110	0.180	-0.660
2020/01/31 07:39:46.7	90.280	0.080	0.200	-0.670
2020/01/31 07:39:46.8	90.300	0.060	0.230	-0.670
2020/01/31 07:39:46.9	90.320	0.030	0.240	-0.670
2020/01/31 07:39:47.0	90.330	0.000	0.260	-0.670
2020/01/31 07:39:47.1	90.350	-0.020	0.270	-0.670
2020/01/31 07:39:47.2	90.370	-0.040	0.270	-0.660
2020/01/31 07:39:47.3	90.370	-0.070	0.270	-0.650
2020/01/31 07:39:47.4	90.390	-0.090	0.270	-0.630
2020/01/31 07:39:47.5	90.400	-0.110	0.270	-0.610
2020/01/31 07:39:47.6	90.410	-0.130	0.260	-0.590
2020/01/31 07:39:47.7	90.420	-0.150	0.250	-0.560
2020/01/31 07:39:47.8	90.430	-0.170	0.240	-0.530
2020/01/31 07:39:47.9	90.430	-0.180	0.220	-0.500
2020/01/31 07:39:48.0	90.430	-0.200	0.200	-0.460
2020/01/31 07:39:48.1	90.440	-0.220	0.170	-0.420
2020/01/31 07:39:48.2	90.440	-0.230	0.150	-0.380
2020/01/31 07:39:48.3	90.430	-0.240	0.120	-0.330
2020/01/31 07:39:48.4	90.420	-0.250	0.090	-0.270
2020/01/31 07:39:48.5	90.410	-0.270	0.050	-0.210
2020/01/31 07:39:48.6	90.400	-0.280	0.020	-0.150
2020/01/31 07:39:48.7	90.390	-0.280	-0.020	-0.080
2020/01/31 07:39:48.8	90.370	-0.290	-0.050	-0.010
2020/01/31 07:39:48.9	90.350	-0.300	-0.090	0.060
2020/01/31 07:39:49.0	90.320	-0.310	-0.130	0.140
2020/01/31 07:39:49.1	90.290	-0.310	-0.170	0.230
2020/01/31 07:39:49.2	90.260	-0.320	-0.210	0.310
2020/01/31 07:39:49.3	90.230	-0.320	-0.250	0.400
2020/01/31 07:39:49.4	90.190	-0.330	-0.290	0.500
2020/01/31 07:39:49.5	90.150	-0.330	-0.330	0.590
2020/01/31 07:39:49.6	90.120	-0.330	-0.360	0.690
2020/01/31 07:39:49.7	90.080	-0.330	-0.390	0.790
2020/01/31 07:39:49.8	90.040	-0.330	-0.420	0.890
2020/01/31 07:39:49.9	90.000	-0.330	-0.450	1.000
2020/01/31 07:39:50.0	89.960	-0.330	-0.470	1.100
2020/01/31 07:39:50.1	89.920	-0.330	-0.490	1.200
2020/01/31 07:39:50.2	89.890	-0.330	-0.510	1.300
2020/01/31 07:39:50.3	89.850	-0.330	-0.520	1.400
2020/01/31 07:39:50.4	89.820	-0.320	-0.530	1.490
2020/01/31 07:39:50.5	89.790	-0.320	-0.540	1.580
2020/01/31 07:39:50.6	89.760	-0.320	-0.550	1.670
2020/01/31 07:39:50.7	89.740	-0.310	-0.550	1.750
2020/01/31 07:39:50.8	89.720	-0.310	-0.550	1.830
2020/01/31 07:39:50.9	89.710	-0.300	-0.550	1.900
2020/01/31 07:39:51.0	89.700	-0.290	-0.550	1.970
2020/01/31 07:39:51.1	89.690	-0.280	-0.540	2.030
2020/01/31 07:39:51.2	89.690	-0.270	-0.530	2.080
2020/01/31 07:39:51.3	89.700	-0.260	-0.520	2.130
2020/01/31 07:39:51.4	89.710	-0.250	-0.510	2.170
2020/01/31 07:39:51.5	89.720	-0.240	-0.490	2.210
2020/01/31 07:39:51.6	89.730	-0.230	-0.470	2.240
2020/01/31 07:39:51.7	89.750	-0.220	-0.450	2.260
2020/01/31 07:39:51.8	89.770	-0.210	-0.430	2.280
2020/01/31 07:39:51.9	89.790	-0.190	-0.410	2.300
2020/01/31 07:39:52.0	89.820	-0.180	-0.390	2.310
2020/01/31 07:39:52.1	89.840	-0.160	-0.370	2.310
2020/01/31 07:39:52.2	89.870	-0.150	-0.340	2.310
2020/01/31 07:39:52.3	89.920	-0.130	-0.320	2.300
2020/01/31 07:39:52.4	89.950	-0.120	-0.290	2.290
2020/01/31 07:39:52.5	89.990	-0.100	-0.270	2.270
2020/01/31 07:39:52.6	90.030	-0.080	-0.240	2.250
2020/01/31 07:39:52.7	90.060	-0.070	-0.220	2.220
2020/01/31 07:39:52.8	90.100	-0.050	-0.190	2.190
2020/01/31 07:39:52.9	90.140	-0.030	-0.170	2.150
2020/01/31 07:39:53.0	90.180	-0.010	-0.140	2.110
2020/01/31 07:39:53.1	90.220	0.000	-0.120	2.060
2020/01/31 07:39:53.2	90.260	0.020	-0.100	2.020
2020/01/31 07:39:53.3	90.290	0.040	-0.070	1.960
2020/01/31 07:39:53.4	90.330	0.050	-0.050	1.910
2020/01/31 07:39:53.5	90.370	0.070	-0.030	1.840
2020/01/31 07:39:53.6	90.400	0.080	-0.010	1.780
2020/01/31 07:39:53.7	90.440	0.100	0.010	1.720
2020/01/31 07:39:53.8	90.470	0.110	0.030	1.650
2020/01/31 07:39:53.9	90.510	0.120	0.050	1.580
2020/01/31 07:39:54.0	90.540	0.130	0.070	1.500
2020/01/31 07:39:54.1	90.570	0.150	0.080	1.430
2020/01/31 07:39:54.2	90.590	0.160	0.100	1.350
2020/01/31 07:39:54.3	90.610	0.160	0.110	1.270
2020/01/31 07:39:54.4	90.640	0.170	0.120	1.190
2020/01/31 07:39:54.5	90.660	0.180	0.130	1.110
2020/01/31 07:39:54.6	90.680	0.190	0.140	1.040
2020/01/31 07:39:54.7	90.700	0.190	0.140	0.960
2020/01/31 07:39:54.8	90.720	0.200	0.150	0.880
2020/01/31 07:39:54.9	90.740	0.200	0.150	0.800
2020/01/31 07:39:55.0	90.760	0.200	0.150	0.720
2020/01/31 07:39:55.1	90.770	0.210	0.150	0.650
2020/01/31 07:39:55.2	90.780	0.210	0.150	0.570
2020/01/31 07:39:55.3	90.800	0.210	0.150	0.500
2020/01/31 07:39:55.4	90.810	0.210	0.140	0.430
2020/01/31 07:39:55.5	90.810	0.210	0.130	0.360
2020/01/31 07:39:55.6	90.820	0.210	0.120	0.300
2020/01/31 07:39:55.7	90.830	0.200	0.110	0.240
2020/01/31 07:39:55.8	90.830	0.200	0.100	0.180
2020/01/31 07:39:55.9	90.830	0.200	0.090	0.120
2020/01/31 07:39:56.0	90.840	0.200	0.070	0.070
2020/01/31 07:39:56.1	90.840	0.190	0.050	0.030
2020/01/31 07:39:56.2	90.830	0.190	0.040	-0.010
2020/01/31 07:39:56.3	90.830	0.190	0.010	-0.050
2020/01/31 07:39:56.4	90.820	0.180	-0.010	-0.090
2020/01/31 07:39:56.5	90.820	0.170	-0.030	-0.110
2020/01/31 07:39:56.6	90.810	0.170	-0.050	-0.130
2020/01/31 07:39:56.7	90.800	0.160	-0.070	-0.150
2020/01/31 07:39:56.8	90.790	0.150	-0.090	-0.160
2020/01/31 07:39:56.9	90.770	0.150	-0.120	-0.170
2020/01/31 07:39:57.0	90.750	0.140	-0.140	-0.170
2020/01/31 07:39:57.1	90.730	0.130	-0.160	-0.170
2020/01/31 07:39:57.2	90.710	0.120	-0.180	-0.160
2020/01/31 07:39:57.3	90.690	0.110	-0.200	-0.150
2020/01/31 07:39:57.4	90.660	0.100	-0.220	-0.140
2020/01/31 07:39:57.5	90.640	0.090	-0.240	-0.120
2020/01/31 07:39:57.6	90.610	0.070	-0.260	-0.100
2020/01/31 07:39:57.7	90.580	0.060	-0.280	-0.070
2020/01/31 07:39:57.8	90.550	0.050	-0.290	-0.040
2020/01/31 07:39:57.9	90.520	0.030	-0.310	-0.010
2020/01/31 07:39:58.0	90.490	0.020	-0.320	0.020
2020/01/31 07:39:58.1	90.450	0.010	-0.330	0.050
2020/01/31 07:39:58.2	90.420	-0.010	-0.340	0.080
2020/01/31 07:39:58.3	90.400	-0.020	-0.360	0.120
2020/01/31 07:39:58.4	90.370	-0.030	-0.360	0.150
2020/01/31 07:39:58.5	90.340	-0.050	-0.370	0.190
2020/01/31 07:39:58.6	90.310	-0.060	-0.380	0.220
2020/01/31 07:39:58.7	90.280	-0.080	-0.380	0.250
2020/01/31 07:39:58.8	90.260	-0.090	-0.380	0.280
2020/01/31 07:39:58.9	90.230	-0.110	-0.380	0.310
2020/01/31 07:39:59.0	90.210	-0.120	-0.390	0.330
2020/01/31 07:39:59.1	90.190	-0.130	-0.380	0.360
2020/01/31 07:39:59.2	90.180	-0.150	-0.380	0.380
2020/01/31 07:39:59.3	90.170	-0.160	-0.380	0.400
2020/01/31 07:39:59.4	90.170	-0.170	-0.370	0.410
2020/01/31 07:39:59.5	90.160	-0.180	-0.360	0.420
2020/01/31 07:39:59.6	90.160	-0.190	-0.360	0.430
2020/01/31 07:39:59.7	90.160	-0.210	-0.350	0.430
2020/01/31 07:39:59.8	90.160	-0.220	-0.340	0.430
2020/01/31 07:39:59.9	90.170	-0.230	-0.330	0.420
2020/01/31 07:40:00.0	90.190	-0.240	-0.310	0.410
2020/01/31 07:40:00.1	90.200	-0.240	-0.300	0.400
2020/01/31 07:40:00.2	90.220	-0.250	-0.280	0.390
2020/01/31 07:40:00.3	90.260	-0.260	-0.270	0.370
2020/01/31 07:40:00.4	90.280	-0.270	-0.250	0.350
2020/01/31 07:40:00.5	90.310	-0.270	-0.230	0.320
2020/01/31 07:40:00.6	90.340	-0.270	-0.210	0.300
2020/01/31 07:40:00.7	90.380	-0.280	-0.200	0.280
2020/01/31 07:40:00.8	90.410	-0.280	-0.180	0.250
2020/01/31 07:40:00.9	90.450	-0.280	-0.160	0.230
2020/01/31 07:40:01.0	90.490	-0.280	-0.140	0.200
2020/01/31 07:40:01.1	90.530	-0.280	-0.120	0.180
2020/01/31 07:40:01.2	90.570	-0.270	-0.100	0.150
2020/01/31 07:40:01.3	90.620	-0.270	-0.080	0.140
2020/01/31 07:40:01.4	90.660	-0.260	-0.060	0.120
2020/01/31 07:40:01.5	90.700	-0.250	-0.050	0.100
2020/01/31 07:40:01.6	90.740	-0.240	-0.040	0.090
2020/01/31 07:40:01.7	90.780	-0.220	-0.020	0.080
2020/01/31 07:40:01.8	90.820	-0.210	-0.010	0.070
2020/01/31 07:40:01.9	90.860	-0.190	-0.010	0.070
2020/01/31 07:40:02.0	90.890	-0.170	-0.000	0.070
2020/01/31 07:40:02.1	90.930	-0.150	-0.000	0.070
2020/01/31 07:40:02.2	90.960	-0.130	-0.000	0.080
2020/01/31 07:40:02.3	91.000	-0.100	-0.010	0.090
2020/01/31 07:40:02.4	91.030	-0.070	-0.010	0.110
2020/01/31 07:40:02.5	91.060	-0.050	-0.020	0.120
2020/01/31 07:40:02.6	91.090	-0.020	-0.030	0.140
2020/01/31 07:40:02.7	91.110	0.020	-0.040	0.170
2020/01/31 07:40:02.8	91.140	0.050	-0.060	0.200
2020/01/31 07:40:02.9	91.160	0.080	-0.080	0.220
2020/01/31 07:40:03.0	91.190	0.110	-0.100	0.260
2020/01/31 07:40:03.1	91.210	0.150	-0.120	0.290
2020/01/31 07:40:03.2	91.230	0.180	-0.140	0.330
2020/01/31 07:40:03.3	91.240	0.220	-0.170	0.360
2020/01/31 07:40:03.4	91.260	0.250	-0.190	0.400
2020/01/31 07:40:03.5	91.280	0.280	-0.210	0.450
2020/01/31 07:40:03.6	91.300	0.320	-0.240	0.490
2020/01/31 07:40:03.7	91.320	0.350	-0.260	0.530
2020/01/31 07:40:03.8	91.330	0.380	-0.290	0.580
2020/01/31 07:40:03.9	91.340	0.400	-0.310	0.630
2020/01/31 07:40:04.0	91.350	0.430	-0.330	0.670
2020/01/31 07:40:04.1	91.360	0.450	-0.350	0.720
2020/01/31 07:40:04.2	91.370	0.480	-0.360	0.770
2020/01/31 07:40:04.3	91.370	0.500	-0.380	0.820
2020/01/31 07:40:04.4	91.380	0.510	-0.390	0.870
2020/01/31 07:40:04.5	91.380	0.520	-0.390	0.930
2020/01/31 07:40:04.6	91.380	0.530	-0.400	0.980
2020/01/31 07:40:04.7	91.380	0.540	-0.400	1.030
2020/01/31 07:40:04.8	91.370	0.540	-0.390	1.080
2020/01/31 07:40:04.9	91.360	0.540	-0.390	1.130
2020/01/31 07:40:05.0	91.350	0.540	-0.380	1.180
2020/01/31 07:40:05.1	91.340	0.530	-0.360	1.230
2020/01/31 07:40:05.2	91.330	0.520	-0.350	1.280
2020/01/31 07:40:05.3	91.310	0.500	-0.320	1.330
2020/01/31 07:40:05.4	91.300	0.490	-0.300	1.380
2020/01/31 07:40:05.5	91.280	0.460	-0.270	1.420
2020/01/31 07:40:05.6	91.260	0.440	-0.250	1.470
2020/01/31 07:40:05.7	91.240	0.410	-0.210	1.510
2020/01/31 07:40:05.8	91.220	0.380	-0.180	1.560
2020/01/31 07:40:05.9	91.200	0.350	-0.150	1.600
2020/01/31 07:40:06.0	91.180	0.320	-0.110	1.640
2020/01/31 07:40:06.1	91.160	0.280	-0.070	1.670
2020/01/31 07:40:06.2	91.130	0.240	-0.040	1.710
2020/01/31 07:40:06.3	91.110	0.200	-0.000	1.740
2020/01/31 07:40:06.4	91.090	0.160	0.030	1.760
2020/01/31 07:40:06.5	91.080	0.120	0.070	1.790
2020/01/31 07:40:06.6	91.060	0.080	0.100	1.810
2020/01/31 07:40:06.7	91.050	0.040	0.130	1.830
2020/01/31 07:40:06.8	91.040	0.000	0.160	1.840
2020/01/31 07:40:06.9	91.030	-0.040	0.190	1.850
2020/01/31 07:40:07.0	91.020	-0.080	0.220	1.860
2020/01/31 07:40:07.1	91.020	-0.110	0.240	1.860
2020/01/31 07:40:07.2	91.010	-0.150	0.250	1.860
2020/01/31 07:40:07.3	91.020	-0.180	0.270	1.860
2020/01/31 07:40:07.4	91.020	-0.220	0.280	1.850
2020/01/31 07:40:07.5	91.030	-0.250	0.290	1.830
2020/01/31 07:40:07.6	91.040	-0.270	0.290	1.820
2020/01/31 07:40:07.7	91.050	-0.300	0.290	1.800
2020/01/31 07:40:07.8	91.060	-0.320	0.290	1.780
2020/01/31 07:40:07.9	91.070	-0.340	0.280	1.750
2020/01/31 07:40:08.0	91.090	-0.360	0.260	1.730
2020/01/31 07:40:08.1	91.110	-0.370	0.250	1.700
2020/01/31 07:40:08.2	91.130	-0.380	0.230	1.660
2020/01/31 07:40:08.3	91.150	-0.390	0.200	1.630
2020/01/31 07:40:08.4	91.170	-0.390	0.180	1.590
2020/01/31 07:40:08.5	91.200	-0.400	0.150	1.560
2020/01/31 07:40:08.6	91.220	-0.390	0.120	1.520
2020/01/31 07:40:08.7	91.250	-0.390	0.080	1.480
2020/01/31 07:40:08.8	91.270	-0.380	0.050	1.440
2020/01/31 07:40:08.9	91.300	-0.380	0.010	1.390
2020/01/31 07:40:09.0	91.320	-0.360	-0.030	1.350
2020/01/31 07:40:09.1	91.350	-0.350	-0.070	1.310
2020/01/31 07:40:09.2	91.370	-0.340	-0.110	1.270
2020/01/31 07:40:09.3	91.400	-0.320	-0.150	1.220
2020/01/31 07:40:09.4	91.420	-0.300	-0.190	1.180
2020/01/31 07:40:09.5	91.450	-0.280	-0.230	1.130
2020/01/31 07:40:09.6	91.470	-0.260	-0.270	1.090
2020/01/31 07:40:09.7	91.490	-0.240	-0.310	1.040
2020/01/31 07:40:09.8	91.500	-0.210	-0.350	1.000
2020/01/31 07:40:09.9	91.520	-0.190	-0.390	0.950
2020/01/31 07:40:10.0	91.530	-0.170	-0.420	0.910
2020/01/31 07:40:10.1	91.550	-0.150	-0.460	0.860
2020/01/31 07:40:10.2	91.560	-0.130	-0.490	0.820
2020/01/31 07:40:10.3	91.570	-0.100	-0.520	0.770
2020/01/31 07:40:10.4	91.580	-0.080	-0.550	0.730
2020/01/31 07:40:10.5	91.590	-0.060	-0.570	0.690
2020/01/31 07:40:10.6	91.600	-0.050	-0.590	0.650
2020/01/31 07:40:10.7	91.600	-0.030	-0.610	0.610
2020/01/31 07:40:10.8	91.600	-0.010	-0.620	0.570
2020/01/31 07:40:10.9	91.610	0.000	-0.630	0.530
2020/01/31 07:40:11.0	91.610	0.010	-0.640	0.490
2020/01/31 07:40:11.1	91.610	0.020	-0.640	0.450
2020/01/31 07:40:11.2	91.610	0.030	-0.640	0.420
2020/01/31 07:40:11.3	91.620	0.040	-0.640	0.380
2020/01/31 07:40:11.4	91.620	0.040	-0.630	0.350
2020/01/31 07:40:11.5	91.620	0.040	-0.620	0.320
2020/01/31 07:40:11.6	91.620	0.040	-0.610	0.290
2020/01/31 07:40:11.7	91.630	0.040	-0.590	0.260
2020/01/31 07:40:11.8	91.630	0.040	-0.570	0.240
2020/01/31 07:40:11.9	91.630	0.030	-0.540	0.220
2020/01/31 07:40:12.0	91.630	0.020	-0.510	0.200
2020/01/31 07:40:12.1	91.640	0.010	-0.480	0.180
2020/01/31 07:40:12.2	91.640	0.000	-0.450	0.160
2020/01/31 07:40:12.3	91.640	-0.010	-0.410	0.150
2020/01/31 07:40:12.4	91.640	-0.030	-0.370	0.140
2020/01/31 07:40:12.5	91.650	-0.040	-0.330	0.130
2020/01/31 07:40:12.6	91.660	-0.060	-0.290	0.120
2020/01/31 07:40:12.7	91.670	-0.080	-0.250	0.110
2020/01/31 07:40:12.8	91.680	-0.090	-0.210	0.110
2020/01/31 07:40:12.9	91.700	-0.110	-0.170	0.100
2020/01/31 07:40:13.0	91.710	-0.130	-0.130	0.100
2020/01/31 07:40:13.1	91.730	-0.150	-0.090	0.100
2020/01/31 07:40:13.2	91.750	-0.170	-0.050	0.100
2020/01/31 07:40:13.3	91.750	-0.190	-0.010	0.100
2020/01/31 07:40:13.4	91.780	-0.200	0.030	0.100
2020/01/31 07:40:13.5	91.800	-0.220	0.060	0.100
2020/01/31 07:40:13.6	91.830	-0.240	0.100	0.100
2020/01/31 07:40:13.7	91.870	-0.250	0.130	0.100
2020/01/31 07:40:13.8	91.900	-0.260	0.150	0.100
2020/01/31 07:40:13.9	91.930	-0.270	0.180	0.100
2020/01/31 07:40:14.0	91.970	-0.280	0.200	0.110
2020/01/31 07:40:14.1	92.000	-0.290	0.210	0.110
2020/01/31 07:40:14.2	92.040	-0.290	0.230	0.110
2020/01/31 07:40:14.3	92.090	-0.290	0.240	0.120
2020/01/31 07:40:14.4	92.130	-0.300	0.250	0.130
2020/01/31 07:40:14.5	92.170	-0.290	0.250	0.130
2020/01/31 07:40:14.6	92.210	-0.290	0.260	0.140
2020/01/31 07:40:14.7	92.240	-0.280	0.260	0.160
2020/01/31 07:40:14.8	92.270	-0.280	0.250	0.170
2020/01/31 07:40:14.9	92.300	-0.270	0.250	0.180
2020/01/31 07:40:15.0	92.330	-0.250	0.240	0.200
2020/01/31 07:40:15.1	92.360	-0.240	0.240	0.220
2020/01/31 07:40:15.2	92.380	-0.230	0.230	0.240
2020/01/31 07:40:15.3	92.410	-0.210	0.220	0.260
2020/01/31 07:40:15.4	92.430	-0.190	0.200	0.280
2020/01/31 07:40:15.5	92.440	-0.170	0.190	0.310
2020/01/31 07:40:15.6	92.450	-0.150	0.170	0.330
2020/01/31 07:40:15.7	92.460	-0.130	0.160	0.360
2020/01/31 07:40:15.8	92.470	-0.110	0.140	0.380
2020/01/31 07:40:15.9	92.470	-0.090	0.130	0.410
2020/01/31 07:40:16.0	92.460	-0.070	0.110	0.430
2020/01/31 07:40:16.1	92.460	-0.040	0.090	0.460
2020/01/31 07:40:16.2	92.450	-0.020	0.080	0.490
2020/01/31 07:40:16.3	92.440	-0.000	0.060	0.520
2020/01/31 07:40:16.4	92.430	0.020	0.040	0.550
2020/01/31 07:40:16.5	92.410	0.040	0.020	0.580
2020/01/31 07:40:16.6	92.390	0.060	0.010	0.610
2020/01/31 07:40:16.7	92.370	0.080	-0.010	0.640
2020/01/31 07:40:16.8	92.350	0.100	-0.030	0.680
2020/01/31 07:40:16.9	92.330	0.110	-0.040	0.710
2020/01/31 07:40:17.0	92.310	0.130	-0.060	0.740
2020/01/31 07:40:17.1	92.280	0.140	-0.080	0.770
2020/01/31 07:40:17.2	92.260	0.160	-0.090	0.800
2020/01/31 07:40:17.3	92.230	0.170	-0.110	0.820
2020/01/31 07:40:17.4	92.210	0.180	-0.130	0.850
2020/01/31 07:40:17.5	92.190	0.190	-0.140	0.880
2020/01/31 07:40:17.6	92.170	0.200	-0.160	0.910
2020/01/31 07:40:17.7	92.150	0.200	-0.180	0.940
2020/01/31 07:40:17.8	92.140	0.210	-0.190	0.970
2020/01/31 07:40:17.9	92.130	0.210	-0.210	1.000
2020/01/31 07:40:18.0	92.110	0.220	-0.230	1.020
2020/01/31 07:40:18.1	92.110	0.220	-0.250	1.050
2020/01/31 07:40:18.2	92.100	0.230	-0.270	1.080
2020/01/31 07:40:18.3	92.090	0.230	-0.290	1.100
2020/01/31 07:40:18.4	92.090	0.230	-0.310	1.130
2020/01/31 07:40:18.5	92.090	0.240	-0.330	1.150
2020/01/31 07:40:18.6	92.090	0.240	-0.360	1.180
2020/01/31 07:40:18.7	92.100	0.250	-0.380	1.200
2020/01/31 07:40:18.8	92.100	0.250	-0.400	1.220
2020/01/31 07:40:18.9	92.110	0.250	-0.430	1.240
2020/01/31 07:40:19.0	92.120	0.260	-0.450	1.250
2020/01/31 07:40:19.1	92.140	0.260	-0.480	1.270
2020/01/31 07:40:19.2	92.150	0.270	-0.500	1.280
2020/01/31 07:40:19.3	92.170	0.280	-0.530	1.290
2020/01/31 07:40:19.4	92.190	0.290	-0.560	1.300
2020/01/31 07:40:19.5	92.210	0.290	-0.580	1.310
2020/01/31 07:40:19.6	92.230	0.300	-0.610	1.310
2020/01/31 07:40:19.7	92.260	0.310	-0.630	1.320
2020/01/31 07:40:19.8	92.280	0.320	-0.660	1.320
2020/01/31 07:40:19.9	92.310	0.330	-0.680	1.310
2020/01/31 07:40:20.0	92.340	0.350	-0.700	1.310
2020/01/31 07:40:20.1	92.370	0.360	-0.710	1.300
2020/01/31 07:40:20.2	92.400	0.370	-0.730	1.300
2020/01/31 07:40:20.3	92.430	0.380	-0.740	1.290
2020/01/31 07:40:20.4	92.460	0.390	-0.750	1.270
2020/01/31 07:40:20.5	92.500	0.400	-0.760	1.260
2020/01/31 07:40:20.6	92.530	0.410	-0.760	1.250
2020/01/31 07:40:20.7	92.560	0.420	-0.760	1.230
2020/01/31 07:40:20.8	92.590	0.430	-0.750	1.220
2020/01/31 07:40:20.9	92.630	0.430	-0.740	1.200
2020/01/31 07:40:21.0	92.660	0.440	-0.730	1.180
2020/01/31 07:40:21.1	92.690	0.440	-0.710	1.160
2020/01/31 07:40:21.2	92.720	0.440	-0.690	1.150
2020/01/31 07:40:21.3	92.750	0.440	-0.660	1.130
2020/01/31 07:40:21.4	92.780	0.430	-0.630	1.110
2020/01/31 07:40:21.5	92.810	0.430	-0.600	1.090
2020/01/31 07:40:21.6	92.840	0.420	-0.560	1.070
2020/01/31 07:40:21.7	92.860	0.410	-0.520	1.050
2020/01/31 07:40:21.8	92.890	0.390	-0.470	1.030
2020/01/31 07:40:21.9	92.910	0.370	-0.430	1.010
2020/01/31 07:40:22.0	92.930	0.350	-0.380	1.000
2020/01/31 07:40:22.1	92.960	0.330	-0.330	0.980
2020/01/31 07:40:22.2	92.980	0.300	-0.270	0.970
2020/01/31 07:40:22.3	93.000	0.280	-0.210	0.950
2020/01/31 07:40:22.4	93.010	0.240	-0.160	0.940
2020/01/31 07:40:22.5	93.030	0.210	-0.100	0.930
2020/01/31 07:40:22.6	93.050	0.180	-0.040	0.920
2020/01/31 07:40:22.7	93.060	0.140	0.010	0.920
2020/01/31 07:40:22.8	93.070	0.100	0.070	0.910
2020/01/31 07:40:22.9	93.090	0.060	0.120	0.910
2020/01/31 07:40:23.0	93.100	0.020	0.180	0.910
2020/01/31 07:40:23.1	93.100	-0.020	0.230	0.910
2020/01/31 07:40:23.2	93.110	-0.070	0.280	0.920
2020/01/31 07:40:23.3	93.120	-0.110	0.330	0.930
2020/01/31 07:40:23.4	93.120	-0.150	0.380	0.930
2020/01/31 07:40:23.5	93.130	-0.200	0.420	0.950
2020/01/31 07:40:23.6	93.130	-0.240	0.460	0.960
2020/01/31 07:40:23.7	93.130	-0.280	0.500	0.970
2020/01/31 07:40:23.8	93.140	-0.320	0.540	0.990
2020/01/31 07:40:23.9	93.140	-0.370	0.570	1.000
2020/01/31 07:40:24.0	93.140	-0.410	0.600	1.020
2020/01/31 07:40:24.1	93.140	-0.440	0.620	1.040
2020/01/31 07:40:24.2	93.140	-0.480	0.640	1.060
2020/01/31 07:40:24.3	93.140	-0.510	0.660	1.070
2020/01/31 07:40:24.4	93.140	-0.550	0.680	1.090
2020/01/31 07:40:24.5	93.140	-0.580	0.690	1.110
2020/01/31 07:40:24.6	93.140	-0.600	0.690	1.120
2020/01/31 07:40:24.7	93.150	-0.630	0.700	1.140
2020/01/31 07:40:24.8	93.150	-0.650	0.700	1.150
2020/01/31 07:40:24.9	93.150	-0.670	0.690	1.160
2020/01/31 07:40:25.0	93.150	-0.680	0.680	1.170
2020/01/31 07:40:25.1	93.160	-0.700	0.670	1.180
2020/01/31 07:40:25.2	93.160	-0.700	0.650	1.180
2020/01/31 07:40:25.3	93.170	-0.710	0.630	1.180
2020/01/31 07:40:25.4	93.170	-0.710	0.600	1.190
2020/01/31 07:40:25.5	93.180	-0.710	0.570	1.190
2020/01/31 07:40:25.6	93.190	-0.710	0.530	1.180
2020/01/31 07:40:25.7	93.200	-0.700	0.490	1.180
2020/01/31 07:40:25.8	93.210	-0.690	0.450	1.170
2020/01/31 07:40:25.9	93.220	-0.680	0.400	1.160
2020/01/31 07:40:26.0	93.230	-0.670	0.340	1.150
2020/01/31 07:40:26.1	93.240	-0.650	0.290	1.140
2020/01/31 07:40:26.2	93.250	-0.630	0.230	1.120
2020/01/31 07:40:26.3	93.260	-0.600	0.160	1.100
2020/01/31 07:40:26.4	93.270	-0.580	0.100	1.090
2020/01/31 07:40:26.5	93.290	-0.550	0.030	1.070
2020/01/31 07:40:26.6	93.300	-0.520	-0.040	1.050
2020/01/31 07:40:26.7	93.320	-0.490	-0.100	1.020
2020/01/31 07:40:26.8	93.330	-0.450	-0.170	1.000
2020/01/31 07:40:26.9	93.350	-0.420	-0.240	0.980
2020/01/31 07:40:27.0	93.370	-0.380	-0.310	0.950
2020/01/31 07:40:27.1	93.380	-0.350	-0.380	0.930
2020/01/31 07:40:27.2	93.400	-0.310	-0.440	0.900
2020/01/31 07:40:27.3	93.410	-0.270	-0.510	0.870
2020/01/31 07:40:27.4	93.430	-0.230	-0.570	0.850
2020/01/31 07:40:27.5	93.440	-0.190	-0.630	0.820
2020/01/31 07:40:27.6	93.460	-0.160	-0.680	0.800
2020/01/31 07:40:27.7	93.470	-0.120	-0.730	0.780
2020/01/31 07:40:27.8	93.480	-0.080	-0.780	0.750
2020/01/31 07:40:27.9	93.490	-0.040	-0.820	0.730
2020/01/31 07:40:28.0	93.500	-0.010	-0.860	0.700
2020/01/31 07:40:28.1	93.510	0.030	-0.890	0.680
2020/01/31 07:40:28.2	93.520	0.060	-0.910	0.660
2020/01/31 07:40:28.3	93.530	0.090	-0.940	0.630
2020/01/31 07:40:28.4	93.540	0.120	-0.950	0.610
2020/01/31 07:40:28.5	93.550	0.150	-0.960	0.590
2020/01/31 07:40:28.6	93.550	0.180	-0.970	0.560
2020/01/31 07:40:28.7	93.560	0.200	-0.970	0.540
2020/01/31 07:40:28.8	93.570	0.230	-0.960	0.520
2020/01/31 07:40:28.9	93.580	0.250	-0.950	0.490
2020/01/31 07:40:29.0	93.590	0.270	-0.940	0.470
2020/01/31 07:40:29.1	93.590	0.280	-0.920	0.440
2020/01/31 07:40:29.2	93.600	0.300	-0.900	0.420
2020/01/31 07:40:29.3	93.610	0.310	-0.860	0.390
2020/01/31 07:40:29.4	93.620	0.320	-0.830	0.370
2020/01/31 07:40:29.5	93.630	0.330	-0.800	0.350
2020/01/31 07:40:29.6	93.650	0.340	-0.760	0.320
2020/01/31 07:40:29.7	93.660	0.340	-0.720	0.300
2020/01/31 07:40:29.8	93.670	0.340	-0.670	0.280
2020/01/31 07:40:29.9	93.690	0.340	-0.620	0.260
2020/01/31 07:40:30.0	93.700	0.340	-0.580	0.240
2020/01/31 07:40:30.1	93.720	0.330	-0.520	0.220
2020/01/31 07:40:30.2	93.740	0.330	-0.470	0.210
2020/01/31 07:40:30.3	93.740	0.320	-0.420	0.190
2020/01/31 07:40:30.4	93.760	0.310	-0.360	0.180
2020/01/31 07:40:30.5	93.770	0.300	-0.310	0.180
2020/01/31 07:40:30.6	93.790	0.290	-0.250	0.170
2020/01/31 07:40:30.7	93.810	0.270	-0.190	0.170
2020/01/31 07:40:30.8	93.830	0.260	-0.140	0.170
2020/01/31 07:40:30.9	93.840	0.240	-0.080	0.180
2020/01/31 07:40:31.0	93.860	0.230	-0.030	0.190
2020/01/31 07:40:31.1	93.870	0.210	0.020	0.200
2020/01/31 07:40:31.2	93.880	0.200	0.070	0.210
2020/01/31 07:40:31.3	93.900	0.180	0.120	0.230
2020/01/31 07:40:31.4	93.910	0.160	0.160	0.250
2020/01/31 07:40:31.5	93.920	0.150	0.210	0.280
2020/01/31 07:40:31.6	93.930	0.130	0.250	0.300
2020/01/31 07:40:31.7	93.940	0.120	0.280	0.330
2020/01/31 07:40:31.8	93.950	0.100	0.310	0.360
2020/01/31 07:40:31.9	93.950	0.090	0.340	0.390
2020/01/31 07:40:32.0	93.960	0.080	0.360	0.420
2020/01/31 07:40:32.1	93.970	0.070	0.380	0.460
2020/01/31 07:40:32.2	93.970	0.060	0.400	0.490
2020/01/31 07:40:32.3	93.990	0.050	0.410	0.520
2020/01/31 07:40:32.4	94.000	0.040	0.410	0.550
2020/01/31 07:40:32.5	94.010	0.030	0.410	0.590
2020/01/31 07:40:32.6	94.020	0.030	0.410	0.620
2020/01/31 07:40:32.7	94.030	0.020	0.390	0.650
2020/01/31 07:40:32.8	94.040	0.020	0.380	0.670
2020/01/31 07:40:32.9	94.050	0.020	0.360	0.700
2020/01/31 07:40:33.0	94.060	0.020	0.340	0.720
2020/01/31 07:40:33.1	94.080	0.020	0.310	0.740
2020/01/31 07:40:33.2	94.090	0.030	0.280	0.760
2020/01/31 07:40:33.3	94.120	0.030	0.230	0.780
2020/01/31 07:40:33.4	94.130	0.040	0.200	0.800
2020/01/31 07:40:33.5	94.150	0.050	0.150	0.810
2020/01/31 07:40:33.6	94.170	0.060	0.110	0.820
2020/01/31 07:40:33.7	94.200	0.070	0.060	0.830
2020/01/31 07:40:33.8	94.220	0.080	0.020	0.840
2020/01/31 07:40:33.9	94.240	0.090	-0.030	0.850
2020/01/31 07:40:34.0	94.260	0.100	-0.080	0.860
2020/01/31 07:40:34.1	94.290	0.110	-0.130	0.860
2020/01/31 07:40:34.2	94.310	0.130	-0.180	0.870
2020/01/31 07:40:34.3	94.330	0.140	-0.230	0.870
2020/01/31 07:40:34.4	94.360	0.150	-0.280	0.880
2020/01/31 07:40:34.5	94.380	0.170	-0.320	0.890
2020/01/31 07:40:34.6	94.400	0.180	-0.370	0.890
2020/01/31 07:40:34.7	94.430	0.190	-0.410	0.900
2020/01/31 07:40:34.8	94.450	0.210	-0.450	0.910
2020/01/31 07:40:34.9	94.480	0.220	-0.480	0.910
2020/01/31 07:40:35.0	94.500	0.230	-0.510	0.920
2020/01/31 07:40:35.1	94.530	0.240	-0.540	0.930
2020/01/31 07:40:35.2	94.550	0.250	-0.570	0.940
2020/01/31 07:40:35.3	94.570	0.250	-0.590	0.960
2020/01/31 07:40:35.4	94.590	0.260	-0.600	0.970
2020/01/31 07:40:35.5	94.610	0.260	-0.610	0.990
2020/01/31 07:40:35.6	94.620	0.270	-0.620	1.010
2020/01/31 07:40:35.7	94.640	0.270	-0.620	1.020
2020/01/31 07:40:35.8	94.660	0.270	-0.620	1.040
2020/01/31 07:40:35.9	94.670	0.260	-0.610	1.070
2020/01/31 07:40:36.0	94.680	0.250	-0.600	1.090
2020/01/31 07:40:36.1	94.690	0.250	-0.580	1.110
2020/01/31 07:40:36.2	94.700	0.240	-0.550	1.140
2020/01/31 07:40:36.3	94.690	0.220	-0.530	1.170
2020/01/31 07:40:36.4	94.700	0.210	-0.490	1.200
2020/01/31 07:40:36.5	94.700	0.190	-0.460	1.230
2020/01/31 07:40:36.6	94.700	0.170	-0.420	1.260
2020/01/31 07:40:36.7	94.690	0.150	-0.370	1.290
2020/01/31 07:40:36.8	94.690	0.120	-0.330	1.330
2020/01/31 07:40:36.9	94.680	0.100	-0.280	1.370
2020/01/31 07:40:37.0	94.670	0.070	-0.220	1.400
2020/01/31 07:40:37.1	94.660	0.040	-0.170	1.440
2020/01/31 07:40:37.2	94.650	0.010	-0.110	1.470
2020/01/31 07:40:37.3	94.640	-0.030	-0.050	1.510
2020/01/31 07:40:37.4	94.630	-0.060	0.000	1.540
2020/01/31 07:40:37.5	94.610	-0.090	0.060	1.570
2020/01/31 07:40:37.6	94.600	-0.130	0.120	1.600
2020/01/31 07:40:37.7	94.580	-0.170	0.170	1.630
2020/01/31 07:40:37.8	94.570	-0.200	0.220	1.650
2020/01/31 07:40:37.9	94.550	-0.240	0.270	1.670
2020/01/31 07:40:38.0	94.540	-0.270	0.320	1.690
2020/01/31 07:40:38.1	94.530	-0.300	0.360	1.700
2020/01/31 07:40:38.2	94.510	-0.340	0.400	1.700
2020/01/31 07:40:38.3	94.510	-0.370	0.430	1.700
2020/01/31 07:40:38.4	94.500	-0.390	0.460	1.700
2020/01/31 07:40:38.5	94.490	-0.420	0.480	1.690
2020/01/31 07:40:38.6	94.480	-0.440	0.490	1.680
2020/01/31 07:40:38.7	94.470	-0.470	0.500	1.670
2020/01/31 07:40:38.8	94.470	-0.480	0.500	1.650
2020/01/31 07:40:38.9	94.460	-0.500	0.500	1.620
2020/01/31 07:40:39.0	94.460	-0.510	0.490	1.590
2020/01/31 07:40:39.1	94.450	-0.520	0.480	1.560
2020/01/31 07:40:39.2	94.450	-0.530	0.450	1.520
2020/01/31 07:40:39.3	94.460	-0.530	0.430	1.480
2020/01/31 07:40:39.4	94.460	-0.530	0.390	1.440
2020/01/31 07:40:39.5	94.460	-0.520	0.360	1.390
2020/01/31 07:40:39.6	94.470	-0.510	0.310	1.340
2020/01/31 07:40:39.7	94.480	-0.500	0.270	1.290
2020/01/31 07:40:39.8	94.490	-0.490	0.220	1.230
2020/01/31 07:40:39.9	94.500	-0.470	0.160	1.180
2020/01/31 07:40:40.0	94.520	-0.450	0.110	1.120
2020/01/31 07:40:40.1	94.540	-0.430	0.050	1.060
2020/01/31 07:40:40.2	94.560	-0.400	-0.010	0.990
2020/01/31 07:40:40.3	94.570	-0.380	-0.070	0.930
2020/01/31 07:40:40.4	94.600	-0.350	-0.140	0.860
2020/01/31 07:40:40.5	94.630	-0.320	-0.200	0.800
2020/01/31 07:40:40.6	94.660	-0.280	-0.260	0.740
2020/01/31 07:40:40.7	94.690	-0.250	-0.320	0.670
2020/01/31 07:40:40.8	94.730	-0.210	-0.390	0.610
2020/01/31 07:40:40.9	94.760	-0.180	-0.440	0.550
2020/01/31 07:40:41.0	94.800	-0.140	-0.500	0.490
2020/01/31 07:40:41.1	94.840	-0.110	-0.560	0.430
2020/01/31 07:40:41.2	94.880	-0.070	-0.610	0.370
2020/01/31 07:40:41.3	94.900	-0.040	-0.670	0.310
2020/01/31 07:40:41.4	94.940	-0.000	-0.710	0.260
2020/01/31 07:40:41.5	94.980	0.030	-0.760	0.210
2020/01/31 07:40:41.6	95.020	0.060	-0.790	0.160
2020/01/31 07:40:41.7	95.060	0.090	-0.830	0.110
2020/01/31 07:40:41.8	95.100	0.120	-0.860	0.060
2020/01/31 07:40:41.9	95.140	0.150	-0.880	0.020
2020/01/31 07:40:42.0	95.180	0.170	-0.900	-0.020
2020/01/31 07:40:42.1	95.220	0.200	-0.910	-0.060
2020/01/31 07:40:42.2	95.250	0.220	-0.910	-0.090
2020/01/31 07:40:42.3	95.280	0.240	-0.910	-0.130
2020/01/31 07:40:42.4	95.310	0.250	-0.910	-0.160
2020/01/31 07:40:42.5	95.340	0.270	-0.900	-0.190
2020/01/31 07:40:42.6	95.370	0.280	-0.880	-0.210
2020/01/31 07:40:42.7	95.400	0.290	-0.850	-0.240
2020/01/31 07:40:42.8	95.430	0.290	-0.830	-0.260
2020/01/31 07:40:42.9	95.450	0.300	-0.790	-0.270
2020/01/31 07:40:43.0	95.480	0.300	-0.750	-0.280
2020/01/31 07:40:43.1	95.500	0.300	-0.710	-0.290
2020/01/31 07:40:43.2	95.520	0.290	-0.660	-0.300
2020/01/31 07:40:43.3	95.560	0.290	-0.600	-0.290
2020/01/31 07:40:43.4	95.570	0.280	-0.540	-0.290
2020/01/31 07:40:43.5	95.580	0.270	-0.480	-0.290
2020/01/31 07:40:43.6	95.590	0.260	-0.420	-0.280
2020/01/31 07:40:43.7	95.590	0.250	-0.360	-0.260
2020/01/31 07:40:43.8	95.600	0.240	-0.290	-0.250
2020/01/31 07:40:43.9	95.600	0.230	-0.230	-0.230
2020/01/31 07:40:44.0	95.600	0.210	-0.160	-0.200
2020/01/31 07:40:44.1	95.590	0.200	-0.090	-0.180
2020/01/31 07:40:44.2	95.590	0.180	-0.030	-0.150
2020/01/31 07:40:44.3	95.580	0.170	0.030	-0.120
2020/01/31 07:40:44.4	95.570	0.150	0.090	-0.080
2020/01/31 07:40:44.5	95.560	0.140	0.150	-0.050
2020/01/31 07:40:44.6	95.550	0.120	0.200	-0.010
2020/01/31 07:40:44.7	95.540	0.110	0.250	0.030
2020/01/31 07:40:44.8	95.530	0.090	0.300	0.080
2020/01/31 07:40:44.9	95.520	0.080	0.330	0.120
2020/01/31 07:40:45.0	95.510	0.060	0.370	0.170
2020/01/31 07:40:45.1	95.500	0.050	0.400	0.220
2020/01/31 07:40:45.2	95.490	0.040	0.420	0.260
2020/01/31 07:40:45.3	95.470	0.030	0.440	0.310
2020/01/31 07:40:45.4	95.460	0.020	0.450	0.360
2020/01/31 07:40:45.5	95.450	0.010	0.460	0.410
2020/01/31 07:40:45.6	95.440	0.010	0.460	0.460
2020/01/31 07:40:45.7	95.430	-0.000	0.460	0.510
2020/01/31 07:40:45.8	95.420	-0.010	0.450	0.560
2020/01/31 07:40:45.9	95.420	-0.010	0.430	0.610
2020/01/31 07:40:46.0	95.410	-0.020	0.410	0.660
2020/01/31 07:40:46.1	95.410	-0.020	0.390	0.710
2020/01/31 07:40:46.2	95.410	-0.020	0.360	0.760
2020/01/31 07:40:46.3	95.410	-0.020	0.330	0.810
2020/01/31 07:40:46.4	95.410	-0.020	0.300	0.850
2020/01/31 07:40:46.5	95.410	-0.030	0.260	0.900
2020/01/31 07:40:46.6	95.410	-0.030	0.220	0.940
2020/01/31 07:40:46.7	95.420	-0.030	0.180	0.980
2020/01/31 07:40:46.8	95.420	-0.020	0.140	1.020
2020/01/31 07:40:46.9	95.430	-0.020	0.090	1.060
2020/01/31 07:40:47.0	95.430	-0.020	0.050	1.090
2020/01/31 07:40:47.1	95.440	-0.020	0.010	1.130
2020/01/31 07:40:47.2	95.450	-0.020	-0.040	1.160
2020/01/31 07:40:47.3	95.460	-0.010	-0.080	1.190
2020/01/31 07:40:47.4	95.470	-0.010	-0.130	1.220
2020/01/31 07:40:47.5	95.480	-0.010	-0.170	1.250
2020/01/31 07:40:47.6	95.490	-0.010	-0.210	1.280
2020/01/31 07:40:47.7	95.510	-0.000	-0.250	1.300
2020/01/31 07:40:47.8	95.520	-0.000	-0.280	1.330
2020/01/31 07:40:47.9	95.530	0.000	-0.320	1.350
2020/01/31 07:40:48.0	95.550	0.010	-0.350	1.370
2020/01/31 07:40:48.1	95.560	0.010	-0.370	1.400
2020/01/31 07:40:48.2	95.580	0.010	-0.400	1.420
2020/01/31 07:40:48.3	95.600	0.010	-0.420	1.430
2020/01/31 07:40:48.4	95.610	0.010	-0.440	1.450
2020/01/31 07:40:48.5	95.630	0.010	-0.460	1.470
2020/01/31 07:40:48.6	95.640	0.010	-0.470	1.480
2020/01/31 07:40:48.7	95.660	0.010	-0.470	1.500
2020/01/31 07:40:48.8	95.680	0.010	-0.480	1.510
2020/01/31 07:40:48.9	95.690	0.010	-0.470	1.530
2020/01/31 07:40:49.0	95.710	0.010	-0.470	1.540
2020/01/31 07:40:49.1	95.720	0.010	-0.460	1.550
2020/01/31 07:40:49.2	95.730	0.000	-0.450	1.560
2020/01/31 07:40:49.3	95.740	-0.000	-0.430	1.580
2020/01/31 07:40:49.4	95.750	-0.010	-0.410	1.590
2020/01/31 07:40:49.5	95.770	-0.020	-0.390	1.600
2020/01/31 07:40:49.6	95.780	-0.020	-0.360	1.600
2020/01/31 07:40:49.7	95.790	-0.030	-0.330	1.610
2020/01/31 07:40:49.8	95.800	-0.040	-0.300	1.610
2020/01/31 07:40:49.9	95.810	-0.050	-0.270	1.620
2020/01/31 07:40:50.0	95.820	-0.060	-0.240	1.620
2020/01/31 07:40:50.1	95.830	-0.070	-0.200	1.620
2020/01/31 07:40:50.2	95.850	-0.080	-0.170	1.620
2020/01/31 07:40:50.3	95.860	-0.090	-0.130	1.610
2020/01/31 07:40:50.4	95.880	-0.100	-0.100	1.610
2020/01/31 07:40:50.5	95.890	-0.110	-0.070	1.600
2020/01/31 07:40:50.6	95.900	-0.120	-0.040	1.590
2020/01/31 07:40:50.7	95.910	-0.130	-0.010	1.580
2020/01/31 07:40:50.8	95.930	-0.130	0.020	1.570
2020/01/31 07:40:50.9	95.940	-0.140	0.040	1.560
2020/01/31 07:40:51.0	95.960	-0.140	0.060	1.540
2020/01/31 07:40:51.1	95.970	-0.140	0.080	1.530
2020/01/31 07:40:51.2	95.990	-0.140	0.090	1.510
2020/01/31 07:40:51.3	96.000	-0.140	0.100	1.490
2020/01/31 07:40:51.4	96.010	-0.130	0.110	1.470
2020/01/31 07:40:51.5	96.030	-0.130	0.110	1.450
2020/01/31 07:40:51.6	96.050	-0.120	0.100	1.420
2020/01/31 07:40:51.7	96.060	-0.110	0.100	1.400
2020/01/31 07:40:51.8	96.080	-0.090	0.090	1.370
2020/01/31 07:40:51.9	96.100	-0.080	0.070	1.340
2020/01/31 07:40:52.0	96.110	-0.060	0.050	1.310
2020/01/31 07:40:52.1	96.130	-0.040	0.030	1.280
2020/01/31 07:40:52.2	96.150	-0.020	0.010	1.250
2020/01/31 07:40:52.3	96.180	0.000	-0.020	1.220
2020/01/31 07:40:52.4	96.200	0.030	-0.050	1.180
2020/01/31 07:40:52.5	96.220	0.050	-0.080	1.150
2020/01/31 07:40:52.6	96.230	0.080	-0.110	1.110
2020/01/31 07:40:52.7	96.250	0.110	-0.140	1.080
2020/01/31 07:40:52.8	96.260	0.130	-0.180	1.050
2020/01/31 07:40:52.9	96.280	0.160	-0.210	1.010
2020/01/31 07:40:53.0	96.290	0.190	-0.240	0.980
2020/01/31 07:40:53.1	96.300	0.210	-0.270	0.940
2020/01/31 07:40:53.2	96.310	0.240	-0.310	0.910
2020/01/31 07:40:53.3	96.320	0.270	-0.340	0.880
2020/01/31 07:40:53.4	96.330	0.290	-0.370	0.850
2020/01/31 07:40:53.5	96.330	0.310	-0.400	0.820
2020/01/31 07:40:53.6	96.340	0.330	-0.420	0.790
2020/01/31 07:40:53.7	96.340	0.350	-0.440	0.760
2020/01/31 07:40:53.8	96.340	0.370	-0.460	0.730
2020/01/31 07:40:53.9	96.340	0.380	-0.480	0.700
2020/01/31 07:40:54.0	96.340	0.400	-0.500	0.680
2020/01/31 07:40:54.1	96.340	0.400	-0.510	0.650
2020/01/31 07:40:54.2	96.340	0.410	-0.510	0.630
2020/01/31 07:40:54.3	96.340	0.420	-0.520	0.610
2020/01/31 07:40:54.4	96.340	0.420	-0.520	0.580
2020/01/31 07:40:54.5	96.340	0.410	-0.520	0.560
2020/01/31 07:40:54.6	96.340	0.410	-0.510	0.540
2020/01/31 07:40:54.7	96.340	0.400	-0.500	0.520
2020/01/31 07:40:54.8	96.340	0.390	-0.490	0.500
2020/01/31 07:40:54.9	96.340	0.380	-0.480	0.490
2020/01/31 07:40:55.0	96.340	0.360	-0.460	0.470
2020/01/31 07:40:55.1	96.340	0.350	-0.440	0.450
2020/01/31 07:40:55.2	96.340	0.330	-0.420	0.440
2020/01/31 07:40:55.3	96.360	0.300	-0.390	0.420
2020/01/31 07:40:55.4	96.370	0.280	-0.360	0.400
2020/01/31 07:40:55.5	96.370	0.250	-0.330	0.390
2020/01/31 07:40:55.6	96.380	0.230	-0.300	0.380
2020/01/31 07:40:55.7	96.390	0.200	-0.270	0.370
2020/01/31 07:40:55.8	96.400	0.170	-0.240	0.350
2020/01/31 07:40:55.9	96.420	0.140	-0.210	0.340
2020/01/31 07:40:56.0	96.430	0.110	-0.170	0.330
2020/01/31 07:40:56.1	96.450	0.080	-0.140	0.320
2020/01/31 07:40:56.2	96.470	0.040	-0.100	0.310
2020/01/31 07:40:56.3	96.490	0.010	-0.070	0.310
2020/01/31 07:40:56.4	96.510	-0.020	-0.030	0.300
2020/01/31 07:40:56.5	96.530	-0.050	-0.000	0.290
2020/01/31 07:40:56.6	96.550	-0.080	0.030	0.280
2020/01/31 07:40:56.7	96.570	-0.120	0.060	0.280
2020/01/31 07:40:56.8	96.590	-0.150	0.090	0.280
2020/01/31 07:40:56.9	96.620	-0.180	0.120	0.270
2020/01/31 07:40:57.0	96.640	-0.210	0.150	0.270
2020/01/31 07:40:57.1	96.660	-0.230	0.170	0.270
2020/01/31 07:40:57.2	96.680	-0.260	0.200	0.270
2020/01/31 07:40:57.3	96.700	-0.290	0.220	0.280
2020/01/31 07:40:57.4	96.710	-0.310	0.240	0.280
2020/01/31 07:40:57.5	96.730	-0.340	0.250	0.290
2020/01/31 07:40:57.6	96.750	-0.360	0.260	0.300
2020/01/31 07:40:57.7	96.760	-0.380	0.270	0.310
2020/01/31 07:40:57.8	96.770	-0.400	0.280	0.330
2020/01/31 07:40:57.9	96.780	-0.420	0.290	0.340
2020/01/31 07:40:58.0	96.790	-0.430	0.290	0.360
2020/01/31 07:40:58.1	96.790	-0.450	0.280	0.380
2020/01/31 07:40:58.2	96.800	-0.460	0.280	0.400
2020/01/31 07:40:58.3	96.800	-0.470	0.270	0.430
2020/01/31 07:40:58.4	96.810	-0.480	0.260	0.450
2020/01/31 07:40:58.5	96.810	-0.480	0.240	0.470
2020/01/31 07:40:58.6	96.810	-0.490	0.230	0.500
2020/01/31 07:40:58.7	96.810	-0.490	0.210	0.520
2020/01/31 07:40:58.8	96.810	-0.490	0.180	0.550
2020/01/31 07:40:58.9	96.800	-0.490	0.160	0.580
2020/01/31 07:40:59.0	96.800	-0.480	0.130	0.600
2020/01/31 07:40:59.1	96.800	-0.480	0.100	0.630
2020/01/31 07:40:59.2	96.800	-0.470	0.070	0.660
2020/01/31 07:40:59.3	96.800	-0.460	0.030	0.680
2020/01/31 07:40:59.4	96.800	-0.440	-0.000	0.710
2020/01/31 07:40:59.5	96.790	-0.430	-0.040	0.730
2020/01/31 07:40:59.6	96.790	-0.410	-0.080	0.760
2020/01/31 07:40:59.7	96.790	-0.390	-0.120	0.780
2020/01/31 07:40:59.8	96.790	-0.370	-0.160	0.810
2020/01/31 07:40:59.9	96.800	-0.340	-0.200	0.830
2020/01/31 07:41:00.0	96.800	-0.320	-0.250	0.860
2020/01/31 07:41:00.1	96.800	-0.290	-0.290	0.880
2020/01/31 07:41:00.2	96.810	-0.260	-0.330	0.900
2020/01/31 07:41:00.3	96.820	-0.230	-0.370	0.920
2020/01/31 07:41:00.4	96.830	-0.190	-0.410	0.940
2020/01/31 07:41:00.5	96.840	-0.160	-0.450	0.960
2020/01/31 07:41:00.6	96.850	-0.120	-0.480	0.980
2020/01/31 07:41:00.7	96.860	-0.080	-0.520	0.990
2020/01/31 07:41:00.8	96.880	-0.040	-0.550	1.010
2020/01/31 07:41:00.9	96.900	-0.000	-0.580	1.030
2020/01/31 07:41:01.0	96.910	0.040	-0.610	1.040
2020/01/31 07:41:01.1	96.930	0.080	-0.640	1.050
2020/01/31 07:41:01.2	96.950	0.120	-0.670	1.070
2020/01/31 07:41:01.3	96.980	0.160	-0.690	1.080
2020/01/31 07:41:01.4	97.010	0.200	-0.710	1.090
2020/01/31 07:41:01.5	97.030	0.240	-0.720	1.100
2020/01/31 07:41:01.6	97.050	0.270	-0.730	1.110
2020/01/31 07:41:01.7	97.080	0.310	-0.740	1.120
2020/01/31 07:41:01.8	97.100	0.340	-0.750	1.130
2020/01/31 07:41:01.9	97.120	0.370	-0.750	1.140
2020/01/31 07:41:02.0	97.150	0.400	-0.740	1.150
2020/01/31 07:41:02.1	97.170	0.420	-0.730	1.150
2020/01/31 07:41:02.2	97.200	0.450	-0.720	1.160
2020/01/31 07:41:02.3	97.220	0.460	-0.700	1.160
2020/01/31 07:41:02.4	97.240	0.480	-0.680	1.170
2020/01/31 07:41:02.5	97.270	0.490	-0.650	1.180
2020/01/31 07:41:02.6	97.290	0.500	-0.620	1.180
2020/01/31 07:41:02.7	97.310	0.500	-0.580	1.190
2020/01/31 07:41:02.8	97.330	0.500	-0.540	1.190
2020/01/31 07:41:02.9	97.350	0.490	-0.490	1.190
2020/01/31 07:41:03.0	97.370	0.480	-0.440	1.190
2020/01/31 07:41:03.1	97.380	0.470	-0.380	1.190
2020/01/31 07:41:03.2	97.400	0.450	-0.320	1.190
2020/01/31 07:41:03.3	97.430	0.430	-0.260	1.190
2020/01/31 07:41:03.4	97.440	0.410	-0.190	1.180
2020/01/31 07:41:03.5	97.460	0.380	-0.130	1.180
2020/01/31 07:41:03.6	97.470	0.350	-0.060	1.170
2020/01/31 07:41:03.7	97.480	0.320	0.010	1.160
2020/01/31 07:41:03.8	97.490	0.290	0.080	1.150
2020/01/31 07:41:03.9	97.500	0.250	0.150	1.140
2020/01/31 07:41:04.0	97.500	0.210	0.220	1.130
2020/01/31 07:41:04.1	97.510	0.180	0.290	1.120
2020/01/31 07:41:04.2	97.510	0.140	0.350	1.110
2020/01/31 07:41:04.3	97.520	0.100	0.420	1.090
2020/01/31 07:41:04.4	97.510	0.060	0.480	1.080
2020/01/31 07:41:04.5	97.510	0.020	0.540	1.060
2020/01/31 07:41:04.6	97.510	-0.020	0.590	1.050
2020/01/31 07:41:04.7	97.500	-0.060	0.640	1.040
2020/01/31 07:41:04.8	97.490	-0.090	0.690	1.020
2020/01/31 07:41:04.9	97.480	-0.130	0.730	1.010
2020/01/31 07:41:05.0	97.470	-0.160	0.760	0.990
2020/01/31 07:41:05.1	97.460	-0.190	0.790	0.980
2020/01/31 07:41:05.2	97.450	-0.220	0.810	0.970
2020/01/31 07:41:05.3	97.440	-0.240	0.830	0.950
2020/01/31 07:41:05.4	97.430	-0.260	0.840	0.940
2020/01/31 07:41:05.5	97.420	-0.280	0.850	0.920
2020/01/31 07:41:05.6	97.410	-0.300	0.840	0.900
2020/01/31 07:41:05.7	97.400	-0.310	0.830	0.890
2020/01/31 07:41:05.8	97.400	-0.320	0.810	0.870
2020/01/31 07:41:05.9	97.390	-0.320	0.790	0.840
2020/01/31 07:41:06.0	97.390	-0.330	0.760	0.820
2020/01/31 07:41:06.1	97.390	-0.320	0.720	0.790
2020/01/31 07:41:06.2	97.400	-0.320	0.670	0.770
2020/01/31 07:41:06.3	97.390	-0.310	0.620	0.730
2020/01/31 07:41:06.4	97.400	-0.300	0.560	0.700
2020/01/31 07:41:06.5	97.410	-0.290	0.490	0.670
2020/01/31 07:41:06.6	97.420	-0.280	0.420	0.640
2020/01/31 07:41:06.7	97.430	-0.260	0.350	0.610
2020/01/31 07:41:06.8	97.450	-0.240	0.270	0.570
2020/01/31 07:41:06.9	97.460	-0.220	0.180	0.540
2020/01/31 07:41:07.0	97.480	-0.190	0.100	0.500
2020/01/31 07:41:07.1	97.500	-0.170	0.010	0.470
2020/01/31 07:41:07.2	97.520	-0.140	-0.090	0.430
2020/01/31 07:41:07.3	97.550	-0.110	-0.180	0.400
2020/01/31 07:41:07.4	97.570	-0.090	-0.280	0.360
2020/01/31 07:41:07.5	97.590	-0.060	-0.370	0.330
2020/01/31 07:41:07.6	97.600	-0.030	-0.470	0.310
2020/01/31 07:41:07.7	97.620	-0.000	-0.560	0.280
2020/01/31 07:41:07.8	97.640	0.020	-0.650	0.260
2020/01/31 07:41:07.9	97.660	0.050	-0.730	0.240
2020/01/31 07:41:08.0	97.670	0.070	-0.820	0.220
2020/01/31 07:41:08.1	97.690	0.100	-0.900	0.210
2020/01/31 07:41:08.2	97.700	0.120	-0.970	0.200
2020/01/31 07:41:08.3	97.700	0.140	-1.040	0.200
2020/01/31 07:41:08.4	97.710	0.160	-1.100	0.190
2020/01/31 07:41:08.5	97.720	0.180	-1.160	0.200
2020/01/31 07:41:08.6	97.720	0.190	-1.210	0.200
2020/01/31 07:41:08.7	97.730	0.210	-1.250	0.210
2020/01/31 07:41:08.8	97.730	0.220	-1.290	0.220
2020/01/31 07:41:08.9	97.730	0.230	-1.320	0.240
2020/01/31 07:41:09.0	97.730	0.230	-1.340	0.250
2020/01/31 07:41:09.1	97.730	0.240	-1.350	0.270
2020/01/31 07:41:09.2	97.730	0.240	-1.360	0.290
2020/01/31 07:41:09.3	97.730	0.240	-1.360	0.310
2020/01/31 07:41:09.4	97.730	0.240	-1.350	0.330
2020/01/31 07:41:09.5	97.730	0.240	-1.340	0.350
2020/01/31 07:41:09.6	97.740	0.230	-1.320	0.380
2020/01/31 07:41:09.7	97.740	0.220	-1.290	0.400
2020/01/31 07:41:09.8	97.740	0.210	-1.250	0.420
2020/01/31 07:41:09.9	97.750	0.200	-1.210	0.440
2020/01/31 07:41:10.0	97.760	0.190	-1.170	0.460
2020/01/31 07:41:10.1	97.770	0.180	-1.120	0.490
2020/01/31 07:41:10.2	97.780	0.160	-1.060	0.510
2020/01/31 07:41:10.3	97.780	0.150	-1.000	0.530
2020/01/31 07:41:10.4	97.790	0.130	-0.930	0.550
2020/01/31 07:41:10.5	97.800	0.120	-0.860	0.570
2020/01/31 07:41:10.6	97.820	0.100	-0.790	0.600
2020/01/31 07:41:10.7	97.830	0.080	-0.720	0.620
2020/01/31 07:41:10.8	97.850	0.060	-0.640	0.650
2020/01/31 07:41:10.9	97.860	0.050	-0.560	0.680
2020/01/31 07:41:11.0	97.870	0.030	-0.480	0.710
2020/01/31 07:41:11.1	97.890	0.010	-0.400	0.750
2020/01/31 07:41:11.2	97.900	-0.010	-0.310	0.780
2020/01/31 07:41:11.3	97.910	-0.020	-0.230	0.820
2020/01/31 07:41:11.4	97.920	-0.040	-0.150	0.860
2020/01/31 07:41:11.5	97.920	-0.050	-0.060	0.910
2020/01/31 07:41:11.6	97.930	-0.070	0.020	0.960
2020/01/31 07:41:11.7	97.940	-0.090	0.100	1.010
2020/01/31 07:41:11.8	97.940	-0.100	0.180	1.060
2020/01/31 07:41:11.9	97.940	-0.120	0.260	1.110
2020/01/31 07:41:12.0	97.940	-0.130	0.330	1.170
2020/01/31 07:41:12.1	97.940	-0.150	0.410	1.220
2020/01/31 07:41:12.2	97.940	-0.160	0.480	1.280
2020/01/31 07:41:12.3	97.940	-0.170	0.550	1.330
2020/01/31 07:41:12.4	97.940	-0.190	0.610	1.390
2020/01/31 07:41:12.5	97.940	-0.200	0.670	1.440
2020/01/31 07:41:12.6	97.930	-0.220	0.730	1.490
2020/01/31 07:41:12.7	97.930	-0.230	0.780	1.540
2020/01/31 07:41:12.8	97.930	-0.240	0.830	1.580
2020/01/31 07:41:12.9	97.930	-0.260	0.880	1.620
2020/01/31 07:41:13.0	97.920	-0.270	0.920	1.650
2020/01/31 07:41:13.1	97.920	-0.280	0.950	1.680
2020/01/31 07:41:13.2	97.920	-0.300	0.980	1.710
2020/01/31 07:41:13.3	97.910	-0.310	1.000	1.720
2020/01/31 07:41:13.4	97.910	-0.320	1.020	1.740
2020/01/31 07:41:13.5	97.910	-0.330	1.030	1.740
2020/01/31 07:41:13.6	97.920	-0.340	1.040	1.740
2020/01/31 07:41:13.7	97.920	-0.350	1.040	1.730
2020/01/31 07:41:13.8	97.930	-0.360	1.040	1.720
2020/01/31 07:41:13.9	97.940	-0.360	1.030	1.700
2020/01/31 07:41:14.0	97.950	-0.370	1.010	1.680
2020/01/31 07:41:14.1	97.960	-0.370	0.990	1.650
2020/01/31 07:41:14.2	97.970	-0.370	0.960	1.610
2020/01/31 07:41:14.3	97.980	-0.370	0.920	1.570
2020/01/31 07:41:14.4	97.990	-0.370	0.880	1.520
2020/01/31 07:41:14.5	98.010	-0.370	0.830	1.470
2020/01/31 07:41:14.6	98.020	-0.360	0.780	1.420
2020/01/31 07:41:14.7	98.040	-0.350	0.720	1.360
2020/01/31 07:41:14.8	98.060	-0.340	0.660	1.300
2020/01/31 07:41:14.9	98.080	-0.320	0.590	1.240
2020/01/31 07:41:15.0	98.090	-0.300	0.510	1.170
2020/01/31 07:41:15.1	98.110	-0.280	0.430	1.110
2020/01/31 07:41:15.2	98.130	-0.260	0.350	1.040
2020/01/31 07:41:15.3	98.160	-0.230	0.260	0.980
2020/01/31 07:41:15.4	98.180	-0.200	0.170	0.910
2020/01/31 07:41:15.5	98.200	-0.170	0.070	0.850
2020/01/31 07:41:15.6	98.220	-0.130	-0.030	0.780
2020/01/31 07:41:15.7	98.230	-0.090	-0.130	0.720
2020/01/31 07:41:15.8	98.250	-0.050	-0.230	0.660
2020/01/31 07:41:15.9	98.270	-0.010	-0.330	0.600
2020/01/31 07:41:16.0	98.290	0.040	-0.440	0.550
2020/01/31 07:41:16.1	98.310	0.090	-0.540	0.500
2020/01/31 07:41:16.2	98.320	0.140	-0.640	0.450
2020/01/31 07:41:16.3	98.340	0.190	-0.750	0.400
2020/01/31 07:41:16.4	98.360	0.240	-0.840	0.350
2020/01/31 07:41:16.5	98.370	0.290	-0.940	0.310
2020/01/31 07:41:16.6	98.390	0.340	-1.020	0.280
2020/01/31 07:41:16.7	98.400	0.390	-1.110	0.240
2020/01/31 07:41:16.8	98.410	0.440	-1.180	0.210
2020/01/31 07:41:16.9	98.420	0.490	-1.250	0.190
2020/01/31 07:41:17.0	98.430	0.530	-1.320	0.170
2020/01/31 07:41:17.1	98.440	0.580	-1.370	0.150
2020/01/31 07:41:17.2	98.440	0.620	-1.420	0.140
2020/01/31 07:41:17.3	98.440	0.650	-1.450	0.130
2020/01/31 07:41:17.4	98.440	0.690	-1.480	0.130
2020/01/31 07:41:17.5	98.440	0.720	-1.500	0.130
2020/01/31 07:41:17.6	98.440	0.750	-1.510	0.130
2020/01/31 07:41:17.7	98.430	0.770	-1.500	0.130
2020/01/31 07:41:17.8	98.430	0.790	-1.490	0.140
2020/01/31 07:41:17.9	98.420	0.800	-1.470	0.150
2020/01/31 07:41:18.0	98.420	0.810	-1.440	0.160
2020/01/31 07:41:18.1	98.410	0.810	-1.400	0.180
2020/01/31 07:41:18.2	98.400	0.800	-1.350	0.190
2020/01/31 07:41:18.3	98.390	0.800	-1.290	0.210
2020/01/31 07:41:18.4	98.380	0.780	-1.220	0.230
2020/01/31 07:41:18.5	98.370	0.760	-1.150	0.240
2020/01/31 07:41:18.6	98.360	0.740	-1.060	0.260
2020/01/31 07:41:18.7	98.350	0.710	-0.980	0.280
2020/01/31 07:41:18.8	98.340	0.680	-0.880	0.300
2020/01/31 07:41:18.9	98.330	0.640	-0.780	0.310
2020/01/31 07:41:19.0	98.320	0.590	-0.680	0.330
2020/01/31 07:41:19.1	98.320	0.550	-0.570	0.350
2020/01/31 07:41:19.2	98.310	0.500	-0.470	0.360
2020/01/31 07:41:19.3	98.310	0.440	-0.360	0.380
2020/01/31 07:41:19.4	98.310	0.390	-0.240	0.390
2020/01/31 07:41:19.5	98.310	0.330	-0.130	0.410
2020/01/31 07:41:19.6	98.310	0.270	-0.020	0.420
2020/01/31 07:41:19.7	98.320	0.200	0.090	0.440
2020/01/31 07:41:19.8	98.330	0.140	0.190	0.450
2020/01/31 07:41:19.9	98.340	0.080	0.290	0.470
2020/01/31 07:41:20.0	98.350	0.010	0.390	0.480
2020/01/31 07:41:20.1	98.370	-0.050	0.480	0.500
2020/01/31 07:41:20.2	98.380	-0.110	0.570	0.510
2020/01/31 07:41:20.3	98.400	-0.170	0.650	0.530
2020/01/31 07:41:20.4	98.420	-0.230	0.730	0.550
2020/01/31 07:41:20.5	98.440	-0.290	0.790	0.570
2020/01/31 07:41:20.6	98.470	-0.340	0.850	0.590
2020/01/31 07:41:20.7	98.490	-0.390	0.900	0.610
2020/01/31 07:41:20.8	98.520	-0.440	0.950	0.630
2020/01/31 07:41:20.9	98.540	-0.480	0.980	0.650
2020/01/31 07:41:21.0	98.570	-0.520	1.010	0.680
2020/01/31 07:41:21.1	98.600	-0.550	1.030	0.710
2020/01/31 07:41:21.2	98.620	-0.590	1.030	0.740
2020/01/31 07:41:21.3	98.650	-0.610	1.030	0.770
2020/01/31 07:41:21.4	98.680	-0.630	1.020	0.810
2020/01/31 07:41:21.5	98.700	-0.650	1.010	0.840
2020/01/31 07:41:21.6	98.720	-0.670	0.980	0.890
2020/01/31 07:41:21.7	98.740	-0.680	0.950	0.930
2020/01/31 07:41:21.8	98.760	-0.680	0.910	0.970
2020/01/31 07:41:21.9	98.780	-0.690	0.860	1.020
2020/01/31 07:41:22.0	98.800	-0.680	0.810	1.060
2020/01/31 07:41:22.1	98.810	-0.680	0.740	1.110
2020/01/31 07:41:22.2	98.820	-0.670	0.680	1.160
2020/01/31 07:41:22.3	98.830	-0.660	0.610	1.210
2020/01/31 07:41:22.4	98.840	-0.650	0.530	1.260
2020/01/31 07:41:22.5	98.850	-0.630	0.450	1.310
2020/01/31 07:41:22.6	98.860	-0.620	0.370	1.360
2020/01/31 07:41:22.7	98.870	-0.600	0.290	1.410
2020/01/31 07:41:22.8	98.880	-0.580	0.210	1.450
2020/01/31 07:41:22.9	98.890	-0.550	0.130	1.490
2020/01/31 07:41:23.0	98.890	-0.530	0.040	1.540
2020/01/31 07:41:23.1	98.900	-0.510	-0.040	1.570
2020/01/31 07:41:23.2	98.900	-0.480	-0.120	1.610
2020/01/31 07:41:23.3	98.900	-0.450	-0.210	1.640
2020/01/31 07:41:23.4	98.900	-0.430	-0.280	1.680
2020/01/31 07:41:23.5	98.910	-0.400	-0.360	1.710
2020/01/31 07:41:23.6	98.910	-0.380	-0.430	1.730
2020/01/31 07:41:23.7	98.910	-0.350	-0.500	1.760
2020/01/31 07:41:23.8	98.920	-0.320	-0.560	1.780
2020/01/31 07:41:23.9	98.920	-0.300	-0.620	1.800
2020/01/31 07:41:24.0	98.920	-0.270	-0.670	1.810
2020/01/31 07:41:24.1	98.920	-0.250	-0.720	1.830
2020/01/31 07:41:24.2	98.920	-0.220	-0.760	1.840
2020/01/31 07:41:24.3	98.920	-0.190	-0.800	1.840
2020/01/31 07:41:24.4	98.920	-0.170	-0.830	1.850
2020/01/31 07:41:24.5	98.920	-0.140	-0.860	1.850
2020/01/31 07:41:24.6	98.920	-0.120	-0.880	1.860
2020/01/31 07:41:24.7	98.920	-0.090	-0.900	1.860
2020/01/31 07:41:24.8	98.920	-0.070	-0.910	1.850
2020/01/31 07:41:24.9	98.910	-0.040	-0.910	1.850
2020/01/31 07:41:25.0	98.910	-0.010	-0.920	1.840
2020/01/31 07:41:25.1	98.910	0.010	-0.910	1.840
2020/01/31 07:41:25.2	98.900	0.040	-0.900	1.830
2020/01/31 07:41:25.3	98.890	0.060	-0.890	1.810
2020/01/31 07:41:25.4	98.890	0.090	-0.880	1.800
2020/01/31 07:41:25.5	98.890	0.120	-0.860	1.790
2020/01/31 07:41:25.6	98.880	0.140	-0.830	1.770
2020/01/31 07:41:25.7	98.880	0.170	-0.810	1.750
2020/01/31 07:41:25.8	98.880	0.200	-0.780	1.730
2020/01/31 07:41:25.9	98.870	0.220	-0.750	1.710
2020/01/31 07:41:26.0	98.870	0.250	-0.720	1.680
2020/01/31 07:41:26.1	98.870	0.270	-0.690	1.660
2020/01/31 07:41:26.2	98.870	0.300	-0.650	1.630
2020/01/31 07:41:26.3	98.870	0.320	-0.610	1.600
2020/01/31 07:41:26.4	98.870	0.350	-0.580	1.570
2020/01/31 07:41:26.5	98.870	0.370	-0.540	1.540
2020/01/31 07:41:26.6	98.870	0.390	-0.500	1.510
2020/01/31 07:41:26.7	98.870	0.410	-0.460	1.480
2020/01/31 07:41:26.8	98.870	0.420	-0.430	1.440
2020/01/31 07:41:26.9	98.870	0.440	-0.390	1.410
2020/01/31 07:41:27.0	98.870	0.450	-0.350	1.370
2020/01/31 07:41:27.1	98.880	0.460	-0.310	1.330
2020/01/31 07:41:27.2	98.880	0.470	-0.270	1.290
2020/01/31 07:41:27.3	98.900	0.470	-0.230	1.250
2020/01/31 07:41:27.4	98.910	0.480	-0.200	1.200
2020/01/31 07:41:27.5	98.920	0.480	-0.160	1.150
2020/01/31 07:41:27.6	98.930	0.470	-0.130	1.100
2020/01/31 07:41:27.7	98.940	0.470	-0.090	1.050
2020/01/31 07:41:27.8	98.950	0.460	-0.060	1.000
2020/01/31 07:41:27.9	98.960	0.450	-0.030	0.940
2020/01/31 07:41:28.0	98.970	0.430	0.010	0.880
2020/01/31 07:41:28.1	98.990	0.410	0.040	0.820
2020/01/31 07:41:28.2	99.000	0.400	0.070	0.760
2020/01/31 07:41:28.3	99.020	0.370	0.100	0.700
2020/01/31 07:41:28.4	99.040	0.350	0.120	0.640
2020/01/31 07:41:28.5	99.060	0.330	0.150	0.570
2020/01/31 07:41:28.6	99.080	0.300	0.170	0.510
2020/01/31 07:41:28.7	99.090	0.270	0.190	0.450
2020/01/31 07:41:28.8	99.110	0.240	0.210	0.390
2020/01/31 07:41:28.9	99.130	0.210	0.220	0.330
2020/01/31 07:41:29.0	99.150	0.180	0.240	0.270
2020/01/31 07:41:29.1	99.170	0.150	0.250	0.210
2020/01/31 07:41:29.2	99.190	0.120	0.260	0.160
2020/01/31 07:41:29.3	99.210	0.090	0.270	0.100
2020/01/31 07:41:29.4	99.220	0.060	0.270	0.060
2020/01/31 07:41:29.5	99.240	0.030	0.270	0.010
2020/01/31 07:41:29.6	99.250	0.000	0.270	-0.020
2020/01/31 07:41:29.7	99.270	-0.020	0.270	-0.060
2020/01/31 07:41:29.8	99.280	-0.050	0.270	-0.090
2020/01/31 07:41:29.9	99.290	-0.070	0.260	-0.110
2020/01/31 07:41:30.0	99.300	-0.090	0.240	-0.130
2020/01/31 07:41:30.1	99.310	-0.100	0.230	-0.150
2020/01/31 07:41:30.2	99.310	-0.120	0.210	-0.160
2020/01/31 07:41:30.3	99.310	-0.130	0.190	-0.170
2020/01/31 07:41:30.4	99.320	-0.130	0.170	-0.170
2020/01/31 07:41:30.5	99.330	-0.140	0.140	-0.180
2020/01/31 07:41:30.6	99.330	-0.140	0.120	-0.180
2020/01/31 07:41:30.7	99.340	-0.140	0.090	-0.170
2020/01/31 07:41:30.8	99.350	-0.140	0.050	-0.170
2020/01/31 07:41:30.9	99.360	-0.140	0.020	-0.170
2020/01/31 07:41:31.0	99.360	-0.130	-0.020	-0.160
2020/01/31 07:41:31.1	99.370	-0.120	-0.060	-0.150
2020/01/31 07:41:31.2	99.390	-0.110	-0.100	-0.150
2020/01/31 07:41:31.3	99.400	-0.100	-0.140	-0.140
2020/01/31 07:41:31.4	99.410	-0.090	-0.180	-0.130
2020/01/31 07:41:31.5	99.430	-0.080	-0.220	-0.120
2020/01/31 07:41:31.6	99.440	-0.060	-0.260	-0.110
2020/01/31 07:41:31.7	99.450	-0.050	-0.290	-0.100
2020/01/31 07:41:31.8	99.470	-0.030	-0.330	-0.080
2020/01/31 07:41:31.9	99.490	-0.020	-0.360	-0.070
2020/01/31 07:41:32.0	99.500	-0.010	-0.390	-0.050
2020/01/31 07:41:32.1	99.520	0.010	-0.410	-0.030
2020/01/31 07:41:32.2	99.530	0.020	-0.430	-0.020
2020/01/31 07:41:32.3	99.540	0.030	-0.450	0.000
2020/01/31 07:41:32.4	99.550	0.040	-0.470	0.030
2020/01/31 07:41:32.5	99.570	0.050	-0.470	0.050
2020/01/31 07:41:32.6	99.580	0.060	-0.470	0.080
2020/01/31 07:41:32.7	99.600	0.060	-0.470	0.110
2020/01/31 07:41:32.8	99.610	0.060	-0.460	0.140
2020/01/31 07:41:32.9	99.620	0.060	-0.450	0.180
2020/01/31 07:41:33.0	99.630	0.060	-0.430	0.220
2020/01/31 07:41:33.1	99.650	0.060	-0.400	0.260
2020/01/31 07:41:33.2	99.660	0.060	-0.380	0.300
2020/01/31 07:41:33.3	99.660	0.050	-0.340	0.350
2020/01/31 07:41:33.4	99.660	0.050	-0.300	0.400
2020/01/31 07:41:33.5	99.670	0.040	-0.260	0.450
2020/01/31 07:41:33.6	99.680	0.030	-0.220	0.500
2020/01/31 07:41:33.7	99.680	0.020	-0.180	0.550
2020/01/31 07:41:33.8	99.690	0.010	-0.130	0.610
2020/01/31 07:41:33.9	99.690	-0.000	-0.080	0.660
2020/01/31 07:41:34.0	99.700	-0.020	-0.040	0.720
2020/01/31 07:41:34.1	99.700	-0.030	0.010	0.780
2020/01/31 07:41:34.2	99.700	-0.040	0.060	0.840
2020/01/31 07:41:34.3	99.700	-0.050	0.100	0.900
2020/01/31 07:41:34.4	99.700	-0.070	0.140	0.950
2020/01/31 07:41:34.5	99.710	-0.080	0.180	1.010
2020/01/31 07:41:34.6	99.710	-0.090	0.220	1.060
2020/01/31 07:41:34.7	99.710	-0.100	0.250	1.120
2020/01/31 07:41:34.8	99.710	-0.110	0.280	1.170
2020/01/31 07:41:34.9	99.710	-0.110	0.310	1.220
2020/01/31 07:41:35.0	99.710	-0.120	0.330	1.260
2020/01/31 07:41:35.1	99.720	-0.130	0.340	1.300
2020/01/31 07:41:35.2	99.720	-0.130	0.350	1.340
2020/01/31 07:41:35.3	99.720	-0.130	0.360	1.380
2020/01/31 07:41:35.4	99.730	-0.130	0.360	1.410
2020/01/31 07:41:35.5	99.730	-0.130	0.350	1.430
2020/01/31 07:41:35.6	99.740	-0.120	0.330	1.460
2020/01/31 07:41:35.7	99.740	-0.120	0.310	1.470
2020/01/31 07:41:35.8	99.750	-0.110	0.290	1.490
2020/01/31 07:41:35.9	99.760	-0.100	0.250	1.500
2020/01/31 07:41:36.0	99.760	-0.090	0.220	1.500
2020/01/31 07:41:36.1	99.770	-0.080	0.170	1.510
2020/01/31 07:41:36.2	99.780	-0.060	0.120	1.510
2020/01/31 07:41:36.3	99.780	-0.040	0.070	1.510
2020/01/31 07:41:36.4	99.780	-0.020	0.010	1.510
2020/01/31 07:41:36.5	99.790	-0.010	-0.050	1.500
2020/01/31 07:41:36.6	99.790	0.020	-0.120	1.500
2020/01/31 07:41:36.7	99.800	0.040	-0.190	1.500
2020/01/31 07:41:36.8	99.800	0.060	-0.260	1.500
2020/01/31 07:41:36.9	99.800	0.080	-0.330	1.500
2020/01/31 07:41:37.0	99.800	0.100	-0.400	1.500
2020/01/31 07:41:37.1	99.810	0.130	-0.480	1.500
2020/01/31 07:41:37.2	99.810	0.150	-0.550	1.500
2020/01/31 07:41:37.3	99.810	0.170	-0.620	1.500
2020/01/31 07:41:37.4	99.810	0.190	-0.690	1.500
2020/01/31 07:41:37.5	99.810	0.210	-0.750	1.510
2020/01/31 07:41:37.6	99.820	0.230	-0.810	1.510
2020/01/31 07:41:37.7	99.830	0.240	-0.870	1.510
2020/01/31 07:41:37.8	99.830	0.250	-0.920	1.520
2020/01/31 07:41:37.9	99.840	0.260	-0.960	1.520
2020/01/31 07:41:38.0	99.860	0.270	-1.000	1.520
2020/01/31 07:41:38.1	99.870	0.280	-1.020	1.520
2020/01/31 07:41:38.2	99.890	0.280	-1.040	1.530
2020/01/31 07:41:38.3	99.900	0.280	-1.050	1.520
2020/01/31 07:41:38.4	99.920	0.270	-1.060	1.520
2020/01/31 07:41:38.5	99.940	0.270	-1.050	1.520
2020/01/31 07:41:38.6	99.970	0.260	-1.030	1.520
2020/01/31 07:41:38.7	99.990	0.240	-1.010	1.520
2020/01/31 07:41:38.8	100.020	0.230	-0.970	1.510
2020/01/31 07:41:38.9	100.040	0.210	-0.930	1.510
2020/01/31 07:41:39.0	100.070	0.180	-0.880	1.500
2020/01/31 07:41:39.1	100.100	0.160	-0.820	1.490
2020/01/31 07:41:39.2	100.130	0.130	-0.750	1.480
2020/01/31 07:41:39.3	100.150	0.100	-0.670	1.470
2020/01/31 07:41:39.4	100.170	0.060	-0.590	1.460
2020/01/31 07:41:39.5	100.200	0.030	-0.510	1.440
2020/01/31 07:41:39.6	100.220	-0.010	-0.420	1.430
2020/01/31 07:41:39.7	100.240	-0.050	-0.320	1.410
2020/01/31 07:41:39.8	100.250	-0.090	-0.220	1.400
2020/01/31 07:41:39.9	100.270	-0.130	-0.130	1.380
2020/01/31 07:41:40.0	100.280	-0.170	-0.030	1.370
2020/01/31 07:41:40.1	100.290	-0.210	0.070	1.350
2020/01/31 07:41:40.2	100.300	-0.250	0.170	1.330
2020/01/31 07:41:40.3	100.310	-0.290	0.270	1.310
2020/01/31 07:41:40.4	100.310	-0.320	0.360	1.290
2020/01/31 07:41:40.5	100.320	-0.360	0.450	1.270
2020/01/31 07:41:40.6	100.320	-0.390	0.530	1.250
2020/01/31 07:41:40.7	100.320	-0.420	0.610	1.220
2020/01/31 07:41:40.8	100.310	-0.450	0.680	1.200
2020/01/31 07:41:40.9	100.310	-0.470	0.740	1.170
2020/01/31 07:41:41.0	100.300	-0.490	0.790	1.150
2020/01/31 07:41:41.1	100.300	-0.510	0.830	1.120
2020/01/31 07:41:41.2	100.290	-0.520	0.870	1.090
2020/01/31 07:41:41.3	100.290	-0.530	0.900	1.060
2020/01/31 07:41:41.4	100.280	-0.530	0.910	1.020
2020/01/31 07:41:41.5	100.270	-0.530	0.910	0.990
2020/01/31 07:41:41.6	100.260	-0.530	0.910	0.950
2020/01/31 07:41:41.7	100.250	-0.520	0.890	0.920
2020/01/31 07:41:41.8	100.240	-0.510	0.870	0.880
2020/01/31 07:41:41.9	100.230	-0.490	0.830	0.840
2020/01/31 07:41:42.0	100.220	-0.470	0.790	0.800
2020/01/31 07:41:42.1	100.210	-0.450	0.730	0.760
2020/01/31 07:41:42.2	100.200	-0.420	0.670	0.720
2020/01/31 07:41:42.3	100.190	-0.390	0.600	0.680
2020/01/31 07:41:42.4	100.180	-0.360	0.530	0.640
2020/01/31 07:41:42.5	100.180	-0.320	0.450	0.600
2020/01/31 07:41:42.6	100.170	-0.280	0.360	0.560
2020/01/31 07:41:42.7	100.160	-0.240	0.270	0.520
2020/01/31 07:41:42.8	100.160	-0.200	0.180	0.490
2020/01/31 07:41:42.9	100.150	-0.160	0.080	0.460
2020/01/31 07:41:43.0	100.150	-0.120	-0.010	0.420
2020/01/31 07:41:43.1	100.150	-0.080	-0.110	0.390
2020/01/31 07:41:43.2	100.150	-0.040	-0.210	0.360
2020/01/31 07:41:43.3	100.140	-0.000	-0.300	0.330
2020/01/31 07:41:43.4	100.140	0.040	-0.390	0.310
2020/01/31 07:41:43.5	100.140	0.080	-0.480	0.280
2020/01/31 07:41:43.6	100.150	0.110	-0.570	0.260
2020/01/31 07:41:43.7	100.150	0.150	-0.650	0.240
2020/01/31 07:41:43.8	100.160	0.180	-0.730	0.210
2020/01/31 07:41:43.9	100.160	0.210	-0.800	0.190
2020/01/31 07:41:44.0	100.170	0.230	-0.860	0.160
2020/01/31 07:41:44.1	100.180	0.260	-0.920	0.140
2020/01/31 07:41:44.2	100.190	0.280	-0.970	0.110
2020/01/31 07:41:44.3	100.210	0.300	-1.010	0.080
2020/01/31 07:41:44.4	100.220	0.320	-1.040	0.060
2020/01/31 07:41:44.5	100.240	0.330	-1.060	0.030
2020/01/31 07:41:44.6	100.250	0.340	-1.080	-0.000
2020/01/31 07:41:44.7	100.270	0.350	-1.090	-0.030
2020/01/31 07:41:44.8	100.290	0.350	-1.090	-0.070
2020/01/31 07:41:44.9	100.310	0.350	-1.080	-0.100
2020/01/31 07:41:45.0	100.330	0.360	-1.060	-0.130
2020/01/31 07:41:45.1	100.350	0.350	-1.040	-0.160
2020/01/31 07:41:45.2	100.370	0.350	-1.000	-0.190
2020/01/31 07:41:45.3	100.390	0.350	-0.970	-0.220
2020/01/31 07:41:45.4	100.410	0.340	-0.920	-0.250
2020/01/31 07:41:45.5	100.430	0.330	-0.870	-0.270
2020/01/31 07:41:45.6	100.440	0.320	-0.820	-0.300
2020/01/31 07:41:45.7	100.460	0.320	-0.760	-0.320
2020/01/31 07:41:45.8	100.480	0.310	-0.700	-0.330
2020/01/31 07:41:45.9	100.490	0.300	-0.630	-0.350
2020/01/31 07:41:46.0	100.510	0.280	-0.570	-0.360
2020/01/31 07:41:46.1	100.520	0.270	-0.500	-0.370
2020/01/31 07:41:46.2	100.530	0.260	-0.430	-0.370
2020/01/31 07:41:46.3	100.540	0.250	-0.360	-0.370
2020/01/31 07:41:46.4	100.550	0.240	-0.290	-0.360
2020/01/31 07:41:46.5	100.560	0.230	-0.220	-0.350
2020/01/31 07:41:46.6	100.570	0.220	-0.150	-0.340
2020/01/31 07:41:46.7	100.570	0.210	-0.090	-0.320
2020/01/31 07:41:46.8	100.580	0.200	-0.030	-0.300
2020/01/31 07:41:46.9	100.580	0.190	0.030	-0.270
2020/01/31 07:41:47.0	100.590	0.180	0.090	-0.240
2020/01/31 07:41:47.1	100.590	0.170	0.150	-0.210
2020/01/31 07:41:47.2	100.590	0.160	0.200	-0.170
2020/01/31 07:41:47.3	100.590	0.160	0.250	-0.130
2020/01/31 07:41:47.4	100.590	0.150	0.290	-0.090
2020/01/31 07:41:47.5	100.600	0.140	0.330	-0.040
2020/01/31 07:41:47.6	100.600	0.140	0.370	0.010
2020/01/31 07:41:47.7	100.600	0.130	0.410	0.060
2020/01/31 07:41:47.8	100.600	0.120	0.430	0.110
2020/01/31 07:41:47.9	100.600	0.120	0.460	0.160
2020/01/31 07:41:48.0	100.600	0.110	0.480	0.210
2020/01/31 07:41:48.1	100.610	0.110	0.500	0.260
2020/01/31 07:41:48.2	100.610	0.100	0.510	0.310
2020/01/31 07:41:48.3	100.620	0.100	0.520	0.370
2020/01/31 07:41:48.4	100.620	0.090	0.520	0.420
2020/01/31 07:41:48.5	100.630	0.090	0.520	0.470
2020/01/31 07:41:48.6	100.630	0.080	0.510	0.520
2020/01/31 07:41:48.7	100.640	0.080	0.500	0.580
2020/01/31 07:41:48.8	100.650	0.070	0.490	0.630
2020/01/31 07:41:48.9	100.650	0.070	0.470	0.680
2020/01/31 07:41:49.0	100.660	0.060	0.450	0.730
2020/01/31 07:41:49.1	100.660	0.060	0.420	0.780
2020/01/31 07:41:49.2	100.670	0.050	0.400	0.840
2020/01/31 07:41:49.3	100.670	0.050	0.360	0.890
2020/01/31 07:41:49.4	100.670	0.040	0.330	0.940
2020/01/31 07:41:49.5	100.680	0.040	0.300	1.000
2020/01/31 07:41:49.6	100.680	0.030	0.260	1.050
2020/01/31 07:41:49.7	100.680	0.020	0.230	1.100
2020/01/31 07:41:49.8	100.680	0.020	0.190	1.160
2020/01/31 07:41:49.9	100.680	0.010	0.150	1.210
2020/01/31 07:41:50.0	100.680	0.000	0.110	1.270
2020/01/31 07:41:50.1	100.690	-0.000	0.070	1.320
2020/01/31 07:41:50.2	100.690	-0.010	0.030	1.370
2020/01/31 07:41:50.3	100.670	-0.020	-0.000	1.420
2020/01/31 07:41:50.4	100.670	-0.020	-0.040	1.470
2020/01/31 07:41:50.5	100.680	-0.030	-0.080	1.510
2020/01/31 07:41:50.6	100.680	-0.030	-0.120	1.560
2020/01/31 07:41:50.7	100.690	-0.040	-0.160	1.600
2020/01/31 07:41:50.8	100.700	-0.050	-0.200	1.640
2020/01/31 07:41:50.9	100.720	-0.050	-0.240	1.670
2020/01/31 07:41:51.0	100.730	-0.050	-0.280	1.710
2020/01/31 07:41:51.1	100.750	-0.060	-0.320	1.740
2020/01/31 07:41:51.2	100.770	-0.060	-0.360	1.770
2020/01/31 07:41:51.3	100.780	-0.060	-0.390	1.790
2020/01/31 07:41:51.4	100.800	-0.060	-0.430	1.810
2020/01/31 07:41:51.5	100.820	-0.060	-0.470	1.840
2020/01/31 07:41:51.6	100.850	-0.060	-0.500	1.860
2020/01/31 07:41:51.7	100.870	-0.060	-0.530	1.880
2020/01/31 07:41:51.8	100.890	-0.060	-0.570	1.900
2020/01/31 07:41:51.9	100.920	-0.060	-0.600	1.920
2020/01/31 07:41:52.0	100.940	-0.060	-0.620	1.930
2020/01/31 07:41:52.1	100.960	-0.050	-0.650	1.950
2020/01/31 07:41:52.2	100.990	-0.050	-0.680	1.970
2020/01/31 07:41:52.3	101.020	-0.050	-0.700	1.980
2020/01/31 07:41:52.4	101.040	-0.040	-0.720	2.000
2020/01/31 07:41:52.5	101.050	-0.040	-0.730	2.020
2020/01/31 07:41:52.6	101.070	-0.030	-0.750	2.030
2020/01/31 07:41:52.7	101.080	-0.030	-0.760	2.050
2020/01/31 07:41:52.8	101.090	-0.030	-0.760	2.070
2020/01/31 07:41:52.9	101.090	-0.020	-0.760	2.080
2020/01/31 07:41:53.0	101.090	-0.020	-0.760	2.100
2020/01/31 07:41:53.1	101.090	-0.020	-0.760	2.110
2020/01/31 07:41:53.2	101.090	-0.020	-0.740	2.130
2020/01/31 07:41:53.3	101.080	-0.020	-0.730	2.140
2020/01/31 07:41:53.4	101.070	-0.020	-0.710	2.160
2020/01/31 07:41:53.5	101.060	-0.020	-0.680	2.170
2020/01/31 07:41:53.6	101.050	-0.030	-0.650	2.180
2020/01/31 07:41:53.7	101.030	-0.030	-0.610	2.190
2020/01/31 07:41:53.8	101.010	-0.040	-0.570	2.190
2020/01/31 07:41:53.9	101.000	-0.050	-0.520	2.200
2020/01/31 07:41:54.0	100.970	-0.060	-0.470	2.200
2020/01/31 07:41:54.1	100.950	-0.070	-0.410	2.200
2020/01/31 07:41:54.2	100.930	-0.080	-0.360	2.200
2020/01/31 07:41:54.3	100.910	-0.090	-0.290	2.190
2020/01/31 07:41:54.4	100.880	-0.110	-0.230	2.180
2020/01/31 07:41:54.5	100.860	-0.130	-0.160	2.170
2020/01/31 07:41:54.6	100.830	-0.150	-0.090	2.150
2020/01/31 07:41:54.7	100.810	-0.160	-0.010	2.130
2020/01/31 07:41:54.8	100.780	-0.190	0.060	2.100
2020/01/31 07:41:54.9	100.760	-0.210	0.130	2.070
2020/01/31 07:41:55.0	100.740	-0.230	0.200	2.040
2020/01/31 07:41:55.1	100.710	-0.250	0.270	2.000
2020/01/31 07:41:55.2	100.690	-0.270	0.330	1.960
2020/01/31 07:41:55.3	100.650	-0.290	0.390	1.910
2020/01/31 07:41:55.4	100.630	-0.310	0.450	1.860
2020/01/31 07:41:55.5	100.610	-0.330	0.500	1.800
2020/01/31 07:41:55.6	100.590	-0.350	0.540	1.740
2020/01/31 07:41:55.7	100.580	-0.360	0.580	1.680
2020/01/31 07:41:55.8	100.560	-0.380	0.610	1.610
2020/01/31 07:41:55.9	100.550	-0.390	0.630	1.540
2020/01/31 07:41:56.0	100.540	-0.400	0.640	1.460
2020/01/31 07:41:56.1	100.530	-0.400	0.650	1.380
2020/01/31 07:41:56.2	100.520	-0.400	0.640	1.300
2020/01/31 07:41:56.3	100.510	-0.400	0.630	1.210
2020/01/31 07:41:56.4	100.510	-0.400	0.610	1.130
2020/01/31 07:41:56.5	100.500	-0.390	0.570	1.040
2020/01/31 07:41:56.6	100.500	-0.380	0.530	0.950
2020/01/31 07:41:56.7	100.500	-0.360	0.480	0.860
2020/01/31 07:41:56.8	100.510	-0.340	0.420	0.770
2020/01/31 07:41:56.9	100.510	-0.320	0.360	0.680
2020/01/31 07:41:57.0	100.520	-0.290	0.290	0.590
2020/01/31 07:41:57.1	100.520	-0.260	0.210	0.500
2020/01/31 07:41:57.2	100.530	-0.230	0.130	0.410
2020/01/31 07:41:57.3	100.550	-0.190	0.040	0.320
2020/01/31 07:41:57.4	100.570	-0.160	-0.040	0.230
2020/01/31 07:41:57.5	100.580	-0.120	-0.130	0.140
2020/01/31 07:41:57.6	100.590	-0.070	-0.220	0.060
2020/01/31 07:41:57.7	100.610	-0.030	-0.310	-0.030
2020/01/31 07:41:57.8	100.620	0.010	-0.390	-0.110
2020/01/31 07:41:57.9	100.640	0.060	-0.480	-0.190
2020/01/31 07:41:58.0	100.660	0.100	-0.560	-0.270
2020/01/31 07:41:58.1	100.670	0.140	-0.630	-0.350
2020/01/31 07:41:58.2	100.690	0.190	-0.700	-0.430
2020/01/31 07:41:58.3	100.720	0.230	-0.760	-0.510
2020/01/31 07:41:58.4	100.740	0.270	-0.820	-0.580
2020/01/31 07:41:58.5	100.760	0.300	-0.870	-0.650
2020/01/31 07:41:58.6	100.780	0.340	-0.910	-0.720
2020/01/31 07:41:58.7	100.800	0.370	-0.940	-0.790
2020/01/31 07:41:58.8	100.820	0.390	-0.960	-0.850
2020/01/31 07:41:58.9	100.840	0.420	-0.980	-0.920
2020/01/31 07:41:59.0	100.860	0.440	-0.980	-0.970
2020/01/31 07:41:59.1	100.880	0.450	-0.980	-1.030
2020/01/31 07:41:59.2	100.900	0.460	-0.970	-1.080
2020/01/31 07:41:59.3	100.940	0.470	-0.950	-1.130
2020/01/31 07:41:59.4	100.950	0.480	-0.920	-1.170
2020/01/31 07:41:59.5	100.970	0.470	-0.890	-1.210
2020/01/31 07:41:59.6	100.990	0.470	-0.850	-1.240
2020/01/31 07:41:59.7	101.000	0.460	-0.800	-1.270
2020/01/31 07:41:59.8	101.010	0.450	-0.750	-1.290
2020/01/31 07:41:59.9	101.020	0.430	-0.690	-1.300
2020/01/31 07:42:00.0	101.030	0.410	-0.630	-1.310
2020/01/31 07:42:00.1	101.040	0.380	-0.560	-1.310
2020/01/31 07:42:00.2	101.050	0.360	-0.490	-1.310
2020/01/31 07:42:00.3	101.070	0.330	-0.420	-1.300
2020/01/31 07:42:00.4	101.070	0.290	-0.340	-1.280
2020/01/31 07:42:00.5	101.070	0.260	-0.260	-1.250
2020/01/31 07:42:00.6	101.060	0.220	-0.190	-1.220
2020/01/31 07:42:00.7	101.060	0.190	-0.110	-1.190
2020/01/31 07:42:00.8	101.050	0.150	-0.030	-1.140
2020/01/31 07:42:00.9	101.030	0.110	0.040	-1.090
2020/01/31 07:42:01.0	101.020	0.070	0.110	-1.030
2020/01/31 07:42:01.1	101.000	0.030	0.180	-0.970
2020/01/31 07:42:01.2	100.980	-0.010	0.250	-0.900
2020/01/31 07:42:01.3	100.960	-0.040	0.310	-0.810
2020/01/31 07:42:01.4	100.940	-0.080	0.370	-0.730
2020/01/31 07:42:01.5	100.920	-0.110	0.420	-0.650
2020/01/31 07:42:01.6	100.890	-0.150	0.470	-0.550
2020/01/31 07:42:01.7	100.860	-0.170	0.510	-0.460
2020/01/31 07:42:01.8	100.840	-0.200	0.540	-0.360
2020/01/31 07:42:01.9	100.810	-0.230	0.570	-0.260
2020/01/31 07:42:02.0	100.780	-0.250	0.590	-0.160
2020/01/31 07:42:02.1	100.760	-0.270	0.610	-0.060
2020/01/31 07:42:02.2	100.730	-0.280	0.620	0.050
2020/01/31 07:42:02.3	100.710	-0.300	0.620	0.150
2020/01/31 07:42:02.4	100.690	-0.310	0.610	0.250
2020/01/31 07:42:02.5	100.670	-0.310	0.600	0.350
2020/01/31 07:42:02.6	100.660	-0.320	0.590	0.450
2020/01/31 07:42:02.7	100.640	-0.320	0.570	0.550
2020/01/31 07:42:02.8	100.640	-0.310	0.540	0.650
2020/01/31 07:42:02.9	100.630	-0.310	0.510	0.740
2020/01/31 07:42:03.0	100.620	-0.300	0.470	0.830
2020/01/31 07:42:03.1	100.620	-0.290	0.430	0.920
2020/01/31 07:42:03.2	100.620	-0.280	0.380	1.010
2020/01/31 07:42:03.3	100.610	-0.260	0.330	1.090
2020/01/31 07:42:03.4	100.610	-0.240	0.280	1.170
2020/01/31 07:42:03.5	100.620	-0.220	0.220	1.250
2020/01/31 07:42:03.6	100.620	-0.200	0.160	1.330
2020/01/31 07:42:03.7	100.630	-0.180	0.100	1.400
2020/01/31 07:42:03.8	100.630	-0.150	0.040	1.480
2020/01/31 07:42:03.9	100.640	-0.130	-0.020	1.550
2020/01/31 07:42:04.0	100.650	-0.100	-0.080	1.620
2020/01/31 07:42:04.1	100.650	-0.080	-0.150	1.690
2020/01/31 07:42:04.2	100.660	-0.050	-0.210	1.760
2020/01/31 07:42:04.3	100.640	-0.020	-0.280	1.820
2020/01/31 07:42:04.4	100.650	0.010	-0.340	1.890
2020/01/31 07:42:04.5	100.650	0.040	-0.400	1.960
2020/01/31 07:42:04.6	100.650	0.070	-0.450	2.020
2020/01/31 07:42:04.7	100.650	0.090	-0.510	2.080
2020/01/31 07:42:04.8	100.660	0.120	-0.560	2.140
2020/01/31 07:42:04.9	100.660	0.150	-0.610	2.200
2020/01/31 07:42:05.0	100.660	0.170	-0.650	2.250
2020/01/31 07:42:05.1	100.660	0.200	-0.690	2.310
2020/01/31 07:42:05.2	100.660	0.220	-0.730	2.350
2020/01/31 07:42:05.3	100.650	0.240	-0.760	2.400
2020/01/31 07:42:05.4	100.650	0.260	-0.780	2.440
2020/01/31 07:42:05.5	100.650	0.270	-0.800	2.470
2020/01/31 07:42:05.6	100.650	0.290	-0.810	2.500
2020/01/31 07:42:05.7	100.650	0.300	-0.820	2.530
2020/01/31 07:42:05.8	100.660	0.310	-0.820	2.560
2020/01/31 07:42:05.9	100.660	0.320	-0.810	2.570
2020/01/31 07:42:06.0	100.660	0.330	-0.800	2.590
2020/01/31 07:42:06.1	100.670	0.330	-0.780	2.600
2020/01/31 07:42:06.2	100.670	0.340	-0.760	2.610
2020/01/31 07:42:06.3	100.680	0.340	-0.730	2.610
2020/01/31 07:42:06.4	100.680	0.330	-0.700	2.610
2020/01/31 07:42:06.5	100.690	0.330	-0.660	2.600
2020/01/31 07:42:06.6	100.690	0.320	-0.610	2.600
2020/01/31 07:42:06.7	100.690	0.310	-0.570	2.580
2020/01/31 07:42:06.8	100.690	0.300	-0.510	2.570
2020/01/31 07:42:06.9	100.690	0.290	-0.460	2.560
2020/01/31 07:42:07.0	100.690	0.280	-0.400	2.540
2020/01/31 07:42:07.1	100.690	0.260	-0.340	2.520
2020/01/31 07:42:07.2	100.690	0.250	-0.280	2.500
2020/01/31 07:42:07.3	100.700	0.230	-0.220	2.480
2020/01/31 07:42:07.4	100.700	0.210	-0.160	2.450
2020/01/31 07:42:07.5	100.690	0.190	-0.090	2.430
2020/01/31 07:42:07.6	100.690	0.170	-0.030	2.400
2020/01/31 07:42:07.7	100.680	0.150	0.030	2.380
2020/01/31 07:42:07.8	100.680	0.130	0.090	2.350
2020/01/31 07:42:07.9	100.670	0.110	0.140	2.320
2020/01/31 07:42:08.0	100.670	0.090	0.200	2.290
2020/01/31 07:42:08.1	100.660	0.070	0.240	2.260
2020/01/31 07:42:08.2	100.650	0.050	0.290	2.220
2020/01/31 07:42:08.3	100.640	0.030	0.330	2.190
2020/01/31 07:42:08.4	100.630	0.010	0.360	2.150
2020/01/31 07:42:08.5	100.620	-0.010	0.390	2.110
2020/01/31 07:42:08.6	100.610	-0.020	0.420	2.070
2020/01/31 07:42:08.7	100.600	-0.040	0.430	2.020
2020/01/31 07:42:08.8	100.600	-0.050	0.440	1.980
2020/01/31 07:42:08.9	100.590	-0.060	0.450	1.930
2020/01/31 07:42:09.0	100.580	-0.070	0.440	1.880
2020/01/31 07:42:09.1	100.570	-0.080	0.430	1.830
2020/01/31 07:42:09.2	100.560	-0.080	0.420	1.770
2020/01/31 07:42:09.3	100.560	-0.080	0.390	1.710
2020/01/31 07:42:09.4	100.540	-0.090	0.360	1.660
2020/01/31 07:42:09.5	100.530	-0.090	0.330	1.590
2020/01/31 07:42:09.6	100.520	-0.090	0.280	1.530
2020/01/31 07:42:09.7	100.510	-0.080	0.240	1.470
2020/01/31 07:42:09.8	100.500	-0.080	0.180	1.410
2020/01/31 07:42:09.9	100.480	-0.070	0.120	1.340
2020/01/31 07:42:10.0	100.470	-0.070	0.060	1.270
2020/01/31 07:42:10.1	100.450	-0.060	-0.000	1.210
2020/01/31 07:42:10.2	100.440	-0.060	-0.070	1.140
2020/01/31 07:42:10.3	100.430	-0.050	-0.140	1.070
2020/01/31 07:42:10.4	100.410	-0.040	-0.210	1.010
2020/01/31 07:42:10.5	100.390	-0.030	-0.280	0.940
2020/01/31 07:42:10.6	100.380	-0.030	-0.350	0.870
2020/01/31 07:42:10.7	100.360	-0.020	-0.420	0.810
2020/01/31 07:42:10.8	100.340	-0.020	-0.480	0.740
2020/01/31 07:42:10.9	100.320	-0.010	-0.540	0.680
2020/01/31 07:42:11.0	100.310	-0.010	-0.600	0.610
2020/01/31 07:42:11.1	100.290	-0.010	-0.650	0.550
2020/01/31 07:42:11.2	100.270	-0.010	-0.690	0.480
2020/01/31 07:42:11.3	100.260	-0.010	-0.730	0.420
2020/01/31 07:42:11.4	100.250	-0.020	-0.770	0.350
2020/01/31 07:42:11.5	100.240	-0.020	-0.790	0.290
2020/01/31 07:42:11.6	100.220	-0.030	-0.810	0.230
2020/01/31 07:42:11.7	100.210	-0.040	-0.820	0.170
2020/01/31 07:42:11.8	100.210	-0.050	-0.820	0.120
2020/01/31 07:42:11.9	100.200	-0.070	-0.810	0.060
2020/01/31 07:42:12.0	100.200	-0.080	-0.790	0.010
2020/01/31 07:42:12.1	100.200	-0.100	-0.770	-0.050
2020/01/31 07:42:12.2	100.200	-0.120	-0.740	-0.100
2020/01/31 07:42:12.3	100.200	-0.150	-0.700	-0.150
2020/01/31 07:42:12.4	100.210	-0.170	-0.650	-0.190
2020/01/31 07:42:12.5	100.210	-0.190	-0.600	-0.240
2020/01/31 07:42:12.6	100.220	-0.220	-0.540	-0.280
2020/01/31 07:42:12.7	100.230	-0.240	-0.480	-0.310
2020/01/31 07:42:12.8	100.240	-0.270	-0.420	-0.350
2020/01/31 07:42:12.9	100.250	-0.300	-0.350	-0.380
2020/01/31 07:42:13.0	100.270	-0.330	-0.280	-0.410
2020/01/31 07:42:13.1	100.280	-0.350	-0.200	-0.430
2020/01/31 07:42:13.2	100.300	-0.380	-0.130	-0.450
2020/01/31 07:42:13.3	100.320	-0.400	-0.060	-0.470
2020/01/31 07:42:13.4	100.340	-0.430	0.010	-0.480
2020/01/31 07:42:13.5	100.360	-0.450	0.080	-0.500
2020/01/31 07:42:13.6	100.370	-0.470	0.150	-0.500
2020/01/31 07:42:13.7	100.390	-0.490	0.210	-0.510
2020/01/31 07:42:13.8	100.410	-0.510	0.260	-0.510
2020/01/31 07:42:13.9	100.430	-0.520	0.310	-0.500
2020/01/31 07:42:14.0	100.440	-0.530	0.360	-0.490
2020/01/31 07:42:14.1	100.450	-0.540	0.400	-0.480
2020/01/31 07:42:14.2	100.470	-0.550	0.430	-0.470
2020/01/31 07:42:14.3	100.480	-0.550	0.450	-0.450
2020/01/31 07:42:14.4	100.490	-0.550	0.470	-0.420
2020/01/31 07:42:14.5	100.500	-0.550	0.480	-0.400
2020/01/31 07:42:14.6	100.500	-0.540	0.480	-0.370
2020/01/31 07:42:14.7	100.500	-0.540	0.480	-0.340
2020/01/31 07:42:14.8	100.500	-0.520	0.460	-0.300
2020/01/31 07:42:14.9	100.500	-0.510	0.440	-0.270
2020/01/31 07:42:15.0	100.500	-0.490	0.420	-0.230
2020/01/31 07:42:15.1	100.500	-0.480	0.390	-0.190
2020/01/31 07:42:15.2	100.500	-0.450	0.350	-0.140
2020/01/31 07:42:15.3	100.480	-0.430	0.310	-0.100
2020/01/31 07:42:15.4	100.480	-0.410	0.260	-0.050
2020/01/31 07:42:15.5	100.470	-0.380	0.220	0.000
2020/01/31 07:42:15.6	100.460	-0.350	0.170	0.050
2020/01/31 07:42:15.7	100.450	-0.320	0.120	0.100
2020/01/31 07:42:15.8	100.440	-0.290	0.060	0.150
2020/01/31 07:42:15.9	100.430	-0.260	0.010	0.210
2020/01/31 07:42:16.0	100.420	-0.230	-0.040	0.260
2020/01/31 07:42:16.1	100.410	-0.200	-0.090	0.320
2020/01/31 07:42:16.2	100.390	-0.170	-0.140	0.370
2020/01/31 07:42:16.3	100.380	-0.140	-0.190	0.420
2020/01/31 07:42:16.4	100.370	-0.100	-0.230	0.480
2020/01/31 07:42:16.5	100.360	-0.070	-0.280	0.530
2020/01/31 07:42:16.6	100.350	-0.040	-0.320	0.580
2020/01/31 07:42:16.7	100.330	-0.010	-0.350	0.630
2020/01/31 07:42:16.8	100.320	0.030	-0.380	0.680
2020/01/31 07:42:16.9	100.310	0.060	-0.410	0.730
2020/01/31 07:42:17.0	100.300	0.090	-0.430	0.780
2020/01/31 07:42:17.1	100.290	0.120	-0.450	0.820
2020/01/31 07:42:17.2	100.280	0.150	-0.470	0.870
2020/01/31 07:42:17.3	100.270	0.170	-0.480	0.910
2020/01/31 07:42:17.4	100.260	0.200	-0.490	0.950
2020/01/31 07:42:17.5	100.250	0.230	-0.500	0.990
2020/01/31 07:42:17.6	100.240	0.250	-0.500	1.030
2020/01/31 07:42:17.7	100.230	0.280	-0.490	1.060
2020/01/31 07:42:17.8	100.220	0.300	-0.490	1.100
2020/01/31 07:42:17.9	100.220	0.330	-0.480	1.130
2020/01/31 07:42:18.0	100.210	0.350	-0.470	1.160
2020/01/31 07:42:18.1	100.200	0.370	-0.460	1.190
2020/01/31 07:42:18.2	100.190	0.390	-0.440	1.220
2020/01/31 07:42:18.3	100.180	0.410	-0.430	1.250
2020/01/31 07:42:18.4	100.170	0.430	-0.410	1.280
2020/01/31 07:42:18.5	100.170	0.450	-0.390	1.300
2020/01/31 07:42:18.6	100.160	0.470	-0.370	1.320
2020/01/31 07:42:18.7	100.150	0.480	-0.350	1.340
2020/01/31 07:42:18.8	100.140	0.500	-0.330	1.360
2020/01/31 07:42:18.9	100.140	0.520	-0.310	1.380
2020/01/31 07:42:19.0	100.130	0.530	-0.290	1.390
2020/01/31 07:42:19.1	100.130	0.540	-0.270	1.410
2020/01/31 07:42:19.2	100.120	0.550	-0.250	1.420
2020/01/31 07:42:19.3	100.110	0.560	-0.230	1.430
2020/01/31 07:42:19.4	100.110	0.570	-0.210	1.440
2020/01/31 07:42:19.5	100.100	0.580	-0.190	1.450
2020/01/31 07:42:19.6	100.100	0.590	-0.180	1.460
2020/01/31 07:42:19.7	100.090	0.600	-0.160	1.470
2020/01/31 07:42:19.8	100.090	0.600	-0.150	1.480
2020/01/31 07:42:19.9	100.080	0.600	-0.130	1.490
2020/01/31 07:42:20.0	100.080	0.610	-0.120	1.500
2020/01/31 07:42:20.1	100.070	0.610	-0.110	1.500
2020/01/31 07:42:20.2	100.060	0.600	-0.100	1.510
2020/01/31 07:42:20.3	100.050	0.600	-0.090	1.510
2020/01/31 07:42:20.4	100.050	0.600	-0.080	1.510
2020/01/31 07:42:20.5	100.040	0.590	-0.070	1.510
2020/01/31 07:42:20.6	100.030	0.580	-0.070	1.510
2020/01/31 07:42:20.7	100.020	0.570	-0.060	1.500
2020/01/31 07:42:20.8	100.020	0.560	-0.050	1.500
2020/01/31 07:42:20.9	100.010	0.550	-0.050	1.490
2020/01/31 07:42:21.0	100.000	0.530	-0.040	1.480
2020/01/31 07:42:21.1	100.000	0.520	-0.040	1.470
2020/01/31 07:42:21.2	99.990	0.500	-0.040	1.460
2020/01/31 07:42:21.3	99.990	0.480	-0.030	1.440
2020/01/31 07:42:21.4	99.980	0.450	-0.030	1.430
2020/01/31 07:42:21.5	99.980	0.430	-0.030	1.410
2020/01/31 07:42:21.6	99.970	0.410	-0.030	1.390
2020/01/31 07:42:21.7	99.970	0.380	-0.020	1.370
2020/01/31 07:42:21.8	99.970	0.350	-0.020	1.350
2020/01/31 07:42:21.9	99.960	0.320	-0.020	1.330
2020/01/31 07:42:22.0	99.960	0.290	-0.020	1.300
2020/01/31 07:42:22.1	99.960	0.260	-0.020	1.280
2020/01/31 07:42:22.2	99.960	0.230	-0.030	1.260
2020/01/31 07:42:22.3	99.960	0.200	-0.030	1.230
2020/01/31 07:42:22.4	99.960	0.170	-0.040	1.210
2020/01/31 07:42:22.5	99.960	0.140	-0.040	1.190
2020/01/31 07:42:22.6	99.960	0.100	-0.050	1.170
2020/01/31 07:42:22.7	99.960	0.070	-0.060	1.140
2020/01/31 07:42:22.8	99.960	0.040	-0.070	1.120
2020/01/31 07:42:22.9	99.960	0.010	-0.080	1.100
2020/01/31 07:42:23.0	99.970	-0.020	-0.090	1.080
2020/01/31 07:42:23.1	99.970	-0.050	-0.110	1.060
2020/01/31 07:42:23.2	99.980	-0.080	-0.120	1.050
2020/01/31 07:42:23.3	99.980	-0.110	-0.130	1.030
2020/01/31 07:42:23.4	99.990	-0.130	-0.150	1.010
2020/01/31 07:42:23.5	100.000	-0.160	-0.160	1.000
2020/01/31 07:42:23.6	100.000	-0.180	-0.180	0.980
2020/01/31 07:42:23.7	100.010	-0.200	-0.190	0.970
2020/01/31 07:42:23.8	100.020	-0.220	-0.210	0.960
2020/01/31 07:42:23.9	100.030	-0.240	-0.220	0.950
2020/01/31 07:42:24.0	100.040	-0.260	-0.230	0.940
2020/01/31 07:42:24.1	100.040	-0.280	-0.240	0.940
2020/01/31 07:42:24.2	100.050	-0.290	-0.250	0.930
2020/01/31 07:42:24.3	100.060	-0.310	-0.260	0.930
2020/01/31 07:42:24.4	100.070	-0.320	-0.260	0.920
2020/01/31 07:42:24.5	100.070	-0.330	-0.270	0.920
2020/01/31 07:42:24.6	100.080	-0.340	-0.260	0.920
2020/01/31 07:42:24.7	100.080	-0.350	-0.260	0.920
2020/01/31 07:42:24.8	100.080	-0.360	-0.260	0.930
2020/01/31 07:42:24.9	100.080	-0.370	-0.250	0.940
2020/01/31 07:42:25.0	100.080	-0.370	-0.240	0.940
2020/01/31 07:42:25.1	100.080	-0.380	-0.230	0.950
2020/01/31 07:42:25.2	100.070	-0.380	-0.220	0.960
2020/01/31 07:42:25.3	100.060	-0.380	-0.210	0.970
2020/01/31 07:42:25.4	100.050	-0.390	-0.200	0.990
2020/01/31 07:42:25.5	100.030	-0.390	-0.180	1.010
2020/01/31 07:42:25.6	100.010	-0.390	-0.170	1.020
2020/01/31 07:42:25.7	99.990	-0.390	-0.160	1.040
2020/01/31 07:42:25.8	99.970	-0.380	-0.150	1.060
2020/01/31 07:42:25.9	99.950	-0.380	-0.140	1.080
2020/01/31 07:42:26.0	99.920	-0.380	-0.130	1.090
2020/01/31 07:42:26.1	99.890	-0.380	-0.120	1.110
2020/01/31 07:42:26.2	99.860	-0.380	-0.110	1.130
2020/01/31 07:42:26.3	99.830	-0.370	-0.110	1.140
2020/01/31 07:42:26.4	99.800	-0.370	-0.100	1.160
2020/01/31 07:42:26.5	99.770	-0.360	-0.100	1.170
2020/01/31 07:42:26.6	99.740	-0.360	-0.100	1.180
2020/01/31 07:42:26.7	99.710	-0.350	-0.110	1.190
2020/01/31 07:42:26.8	99.690	-0.350	-0.110	1.190
2020/01/31 07:42:26.9	99.660	-0.340	-0.120	1.200
2020/01/31 07:42:27.0	99.630	-0.330	-0.130	1.200
2020/01/31 07:42:27.1	99.610	-0.320	-0.140	1.200
2020/01/31 07:42:27.2	99.590	-0.320	-0.160	1.190
2020/01/31 07:42:27.3	99.570	-0.310	-0.180	1.180
2020/01/31 07:42:27.4	99.550	-0.300	-0.190	1.170
2020/01/31 07:42:27.5	99.540	-0.290	-0.210	1.160
2020/01/31 07:42:27.6	99.520	-0.280	-0.230	1.150
2020/01/31 07:42:27.7	99.510	-0.270	-0.250	1.140
2020/01/31 07:42:27.8	99.500	-0.250	-0.280	1.120
2020/01/31 07:42:27.9	99.500	-0.240	-0.300	1.100
2020/01/31 07:42:28.0	99.490	-0.230	-0.320	1.080
2020/01/31 07:42:28.1	99.490	-0.220	-0.340	1.060
2020/01/31 07:42:28.2	99.490	-0.200	-0.360	1.030
2020/01/31 07:42:28.3	99.500	-0.190	-0.370	1.010
2020/01/31 07:42:28.4	99.500	-0.180	-0.380	0.990
2020/01/31 07:42:28.5	99.500	-0.170	-0.390	0.960
2020/01/31 07:42:28.6	99.510	-0.150	-0.400	0.930
2020/01/31 07:42:28.7	99.510	-0.140	-0.400	0.900
2020/01/31 07:42:28.8	99.520	-0.130	-0.400	0.870
2020/01/31 07:42:28.9	99.520	-0.120	-0.400	0.840
2020/01/31 07:42:29.0	99.530	-0.110	-0.390	0.810
2020/01/31 07:42:29.1	99.540	-0.100	-0.380	0.780
2020/01/31 07:42:29.2	99.550	-0.090	-0.360	0.750
2020/01/31 07:42:29.3	99.560	-0.090	-0.340	0.710
2020/01/31 07:42:29.4	99.570	-0.080	-0.310	0.680
2020/01/31 07:42:29.5	99.570	-0.080	-0.280	0.640
2020/01/31 07:42:29.6	99.580	-0.080	-0.250	0.600
2020/01/31 07:42:29.7	99.590	-0.070	-0.210	0.570
2020/01/31 07:42:29.8	99.600	-0.070	-0.170	0.530
2020/01/31 07:42:29.9	99.600	-0.070	-0.130	0.490
2020/01/31 07:42:30.0	99.610	-0.070	-0.090	0.450
2020/01/31 07:42:30.1	99.610	-0.070	-0.050	0.420
2020/01/31 07:42:30.2	99.620	-0.070	-0.010	0.380
2020/01/31 07:42:30.3	99.630	-0.080	0.040	0.340
2020/01/31 07:42:30.4	99.640	-0.080	0.080	0.300
2020/01/31 07:42:30.5	99.640	-0.080	0.120	0.270
2020/01/31 07:42:30.6	99.640	-0.080	0.150	0.230
2020/01/31 07:42:30.7	99.650	-0.080	0.190	0.200
2020/01/31 07:42:30.8	99.650	-0.080	0.220	0.170
2020/01/31 07:42:30.9	99.650	-0.080	0.240	0.140
2020/01/31 07:42:31.0	99.650	-0.080	0.270	0.110
2020/01/31 07:42:31.1	99.650	-0.070	0.290	0.080
2020/01/31 07:42:31.2	99.650	-0.070	0.300	0.050
2020/01/31 07:42:31.3	99.640	-0.060	0.310	0.030
2020/01/31 07:42:31.4	99.640	-0.060	0.320	0.000
2020/01/31 07:42:31.5	99.630	-0.050	0.320	-0.020
2020/01/31 07:42:31.6	99.630	-0.040	0.310	-0.040
2020/01/31 07:42:31.7	99.620	-0.030	0.300	-0.050
2020/01/31 07:42:31.8	99.620	-0.020	0.290	-0.070
2020/01/31 07:42:31.9	99.610	-0.000	0.280	-0.080
2020/01/31 07:42:32.0	99.600	0.010	0.260	-0.090
2020/01/31 07:42:32.1	99.590	0.030	0.230	-0.100
2020/01/31 07:42:32.2	99.580	0.040	0.210	-0.100
2020/01/31 07:42:32.3	99.580	0.060	0.180	-0.110
2020/01/31 07:42:32.4	99.570	0.070	0.150	-0.110
2020/01/31 07:42:32.5	99.560	0.090	0.120	-0.100
2020/01/31 07:42:32.6	99.550	0.100	0.090	-0.100
2020/01/31 07:42:32.7	99.540	0.120	0.060	-0.090
2020/01/31 07:42:32.8	99.520	0.130	0.030	-0.080
2020/01/31 07:42:32.9	99.510	0.140	0.010	-0.060
2020/01/31 07:42:33.0	99.500	0.160	-0.020	-0.050
2020/01/31 07:42:33.1	99.490	0.170	-0.050	-0.030
2020/01/31 07:42:33.2	99.480	0.180	-0.080	-0.010
2020/01/31 07:42:33.3	99.480	0.180	-0.100	0.010
2020/01/31 07:42:33.4	99.470	0.190	-0.130	0.040
2020/01/31 07:42:33.5	99.460	0.200	-0.150	0.060
2020/01/31 07:42:33.6	99.450	0.200	-0.170	0.090
2020/01/31 07:42:33.7	99.440	0.200	-0.190	0.120
2020/01/31 07:42:33.8	99.430	0.200	-0.210	0.150
2020/01/31 07:42:33.9	99.420	0.200	-0.230	0.180
2020/01/31 07:42:34.0	99.410	0.190	-0.250	0.220
2020/01/31 07:42:34.1	99.400	0.190	-0.260	0.250
2020/01/31 07:42:34.2	99.390	0.180	-0.280	0.290
2020/01/31 07:42:34.3	99.380	0.170	-0.290	0.320
2020/01/31 07:42:34.4	99.370	0.170	-0.310	0.360
2020/01/31 07:42:34.5	99.360	0.160	-0.320	0.400
2020/01/31 07:42:34.6	99.340	0.150	-0.340	0.430
2020/01/31 07:42:34.7	99.330	0.140	-0.350	0.470
2020/01/31 07:42:34.8	99.320	0.130	-0.360	0.510
2020/01/31 07:42:34.9	99.310	0.120	-0.380	0.550
2020/01/31 07:42:35.0	99.290	0.120	-0.400	0.590
2020/01/31 07:42:35.1	99.280	0.110	-0.410	0.630
2020/01/31 07:42:35.2	99.260	0.100	-0.430	0.680
2020/01/31 07:42:35.3	99.250	0.100	-0.450	0.720
2020/01/31 07:42:35.4	99.230	0.100	-0.470	0.760
2020/01/31 07:42:35.5	99.220	0.090	-0.490	0.810
2020/01/31 07:42:35.6	99.200	0.100	-0.510	0.850
2020/01/31 07:42:35.7	99.190	0.100	-0.530	0.890
2020/01/31 07:42:35.8	99.180	0.100	-0.550	0.940
2020/01/31 07:42:35.9	99.160	0.110	-0.570	0.980
2020/01/31 07:42:36.0	99.150	0.120	-0.590	1.020
2020/01/31 07:42:36.1	99.140	0.130	-0.610	1.060
2020/01/31 07:42:36.2	99.130	0.140	-0.630	1.100
2020/01/31 07:42:36.3	99.120	0.160	-0.640	1.140
2020/01/31 07:42:36.4	99.110	0.170	-0.660	1.180
2020/01/31 07:42:36.5	99.110	0.190	-0.670	1.220
2020/01/31 07:42:36.6	99.110	0.210	-0.690	1.250
2020/01/31 07:42:36.7	99.110	0.230	-0.700	1.290
2020/01/31 07:42:36.8	99.110	0.250	-0.710	1.320
2020/01/31 07:42:36.9	99.110	0.270	-0.710	1.360
2020/01/31 07:42:37.0	99.110	0.300	-0.720	1.390
2020/01/31 07:42:37.1	99.110	0.320	-0.720	1.420
2020/01/31 07:42:37.2	99.110	0.340	-0.710	1.450
2020/01/31 07:42:37.3	99.100	0.360	-0.710	1.480
2020/01/31 07:42:37.4	99.100	0.380	-0.700	1.510
2020/01/31 07:42:37.5	99.100	0.400	-0.690	1.540
2020/01/31 07:42:37.6	99.090	0.420	-0.670	1.570
2020/01/31 07:42:37.7	99.090	0.440	-0.650	1.600
2020/01/31 07:42:37.8	99.080	0.450	-0.630	1.620
2020/01/31 07:42:37.9	99.070	0.460	-0.600	1.650
2020/01/31 07:42:38.0	99.060	0.470	-0.570	1.680
2020/01/31 07:42:38.1	99.050	0.480	-0.530	1.700
2020/01/31 07:42:38.2	99.040	0.490	-0.500	1.730
2020/01/31 07:42:38.3	99.010	0.490	-0.450	1.750
2020/01/31 07:42:38.4	99.000	0.490	-0.410	1.780
2020/01/31 07:42:38.5	98.980	0.480	-0.360	1.800
2020/01/31 07:42:38.6	98.960	0.470	-0.310	1.820
2020/01/31 07:42:38.7	98.940	0.460	-0.260	1.840
2020/01/31 07:42:38.8	98.920	0.450	-0.200	1.860
2020/01/31 07:42:38.9	98.900	0.430	-0.150	1.880
2020/01/31 07:42:39.0	98.880	0.410	-0.090	1.900
2020/01/31 07:42:39.1	98.860	0.380	-0.030	1.910
2020/01/31 07:42:39.2	98.840	0.360	0.030	1.920
2020/01/31 07:42:39.3	98.820	0.330	0.090	1.930
2020/01/31 07:42:39.4	98.800	0.300	0.150	1.940
2020/01/31 07:42:39.5	98.780	0.260	0.200	1.950
2020/01/31 07:42:39.6	98.760	0.230	0.260	1.960
2020/01/31 07:42:39.7	98.740	0.190	0.320	1.960
2020/01/31 07:42:39.8	98.720	0.150	0.370	1.970
2020/01/31 07:42:39.9	98.710	0.110	0.420	1.970
2020/01/31 07:42:40.0	98.690	0.070	0.470	1.960
2020/01/31 07:42:40.1	98.670	0.030	0.510	1.960
2020/01/31 07:42:40.2	98.660	-0.020	0.550	1.950
2020/01/31 07:42:40.3	98.640	-0.060	0.590	1.950
2020/01/31 07:42:40.4	98.620	-0.100	0.630	1.930
2020/01/31 07:42:40.5	98.610	-0.140	0.660	1.920
2020/01/31 07:42:40.6	98.600	-0.180	0.680	1.900
2020/01/31 07:42:40.7	98.580	-0.210	0.700	1.880
2020/01/31 07:42:40.8	98.570	-0.250	0.710	1.860
2020/01/31 07:42:40.9	98.560	-0.280	0.720	1.830
2020/01/31 07:42:41.0	98.550	-0.310	0.720	1.800
2020/01/31 07:42:41.1	98.540	-0.350	0.720	1.770
2020/01/31 07:42:41.2	98.530	-0.370	0.720	1.740
2020/01/31 07:42:41.3	98.520	-0.400	0.700	1.690
2020/01/31 07:42:41.4	98.510	-0.420	0.680	1.650
2020/01/31 07:42:41.5	98.510	-0.440	0.660	1.610
2020/01/31 07:42:41.6	98.500	-0.460	0.630	1.570
2020/01/31 07:42:41.7	98.490	-0.480	0.600	1.520
2020/01/31 07:42:41.8	98.490	-0.500	0.570	1.470
2020/01/31 07:42:41.9	98.480	-0.510	0.530	1.420
2020/01/31 07:42:42.0	98.480	-0.520	0.490	1.370
2020/01/31 07:42:42.1	98.470	-0.530	0.440	1.320
2020/01/31 07:42:42.2	98.470	-0.530	0.390	1.260
2020/01/31 07:42:42.3	98.470	-0.540	0.340	1.210
2020/01/31 07:42:42.4	98.460	-0.540	0.290	1.150
2020/01/31 07:42:42.5	98.450	-0.540	0.230	1.100
2020/01/31 07:42:42.6	98.450	-0.540	0.170	1.040
2020/01/31 07:42:42.7	98.440	-0.530	0.110	0.990
2020/01/31 07:42:42.8	98.430	-0.530	0.050	0.930
2020/01/31 07:42:42.9	98.430	-0.520	-0.010	0.870
2020/01/31 07:42:43.0	98.420	-0.520	-0.080	0.820
2020/01/31 07:42:43.1	98.410	-0.510	-0.140	0.760
2020/01/31 07:42:43.2	98.410	-0.500	-0.200	0.710
2020/01/31 07:42:43.3	98.410	-0.490	-0.270	0.650
2020/01/31 07:42:43.4	98.400	-0.470	-0.330	0.590
2020/01/31 07:42:43.5	98.400	-0.460	-0.390	0.540
2020/01/31 07:42:43.6	98.400	-0.450	-0.450	0.480
2020/01/31 07:42:43.7	98.400	-0.430	-0.500	0.420
2020/01/31 07:42:43.8	98.400	-0.420	-0.550	0.370
2020/01/31 07:42:43.9	98.400	-0.400	-0.600	0.310
2020/01/31 07:42:44.0	98.410	-0.390	-0.650	0.260
2020/01/31 07:42:44.1	98.420	-0.370	-0.690	0.210
2020/01/31 07:42:44.2	98.420	-0.360	-0.730	0.160
2020/01/31 07:42:44.3	98.430	-0.340	-0.770	0.110
2020/01/31 07:42:44.4	98.440	-0.330	-0.800	0.070
2020/01/31 07:42:44.5	98.450	-0.310	-0.820	0.030
2020/01/31 07:42:44.6	98.460	-0.300	-0.840	-0.010
2020/01/31 07:42:44.7	98.470	-0.280	-0.850	-0.040
2020/01/31 07:42:44.8	98.480	-0.260	-0.860	-0.070
2020/01/31 07:42:44.9	98.490	-0.250	-0.870	-0.100
2020/01/31 07:42:45.0	98.500	-0.230	-0.870	-0.110
2020/01/31 07:42:45.1	98.510	-0.210	-0.860	-0.130
2020/01/31 07:42:45.2	98.510	-0.200	-0.850	-0.140
2020/01/31 07:42:45.3	98.530	-0.180	-0.840	-0.140
2020/01/31 07:42:45.4	98.530	-0.160	-0.820	-0.140
2020/01/31 07:42:45.5	98.540	-0.140	-0.800	-0.130
2020/01/31 07:42:45.6	98.530	-0.120	-0.780	-0.110
2020/01/31 07:42:45.7	98.530	-0.100	-0.750	-0.100
2020/01/31 07:42:45.8	98.530	-0.080	-0.720	-0.070
2020/01/31 07:42:45.9	98.520	-0.060	-0.690	-0.040
2020/01/31 07:42:46.0	98.510	-0.040	-0.660	-0.010
2020/01/31 07:42:46.1	98.500	-0.020	-0.620	0.020
2020/01/31 07:42:46.2	98.490	-0.000	-0.590	0.060
2020/01/31 07:42:46.3	98.470	0.020	-0.560	0.100
2020/01/31 07:42:46.4	98.450	0.040	-0.520	0.140
2020/01/31 07:42:46.5	98.430	0.060	-0.490	0.180
2020/01/31 07:42:46.6	98.420	0.080	-0.450	0.220
2020/01/31 07:42:46.7	98.390	0.100	-0.420	0.260
2020/01/31 07:42:46.8	98.370	0.120	-0.390	0.300
2020/01/31 07:42:46.9	98.350	0.140	-0.360	0.340
2020/01/31 07:42:47.0	98.330	0.160	-0.330	0.390
2020/01/31 07:42:47.1	98.300	0.180	-0.300	0.420
2020/01/31 07:42:47.2	98.280	0.190	-0.280	0.460
2020/01/31 07:42:47.3	98.250	0.210	-0.250	0.500
2020/01/31 07:42:47.4	98.230	0.220	-0.230	0.530
2020/01/31 07:42:47.5	98.200	0.230	-0.210	0.570
2020/01/31 07:42:47.6	98.170	0.250	-0.190	0.600
2020/01/31 07:42:47.7	98.150	0.260	-0.170	0.640
2020/01/31 07:42:47.8	98.120	0.260	-0.160	0.670
2020/01/31 07:42:47.9	98.090	0.270	-0.140	0.700
2020/01/31 07:42:48.0	98.070	0.280	-0.130	0.730
2020/01/31 07:42:48.1	98.040	0.280	-0.110	0.770
2020/01/31 07:42:48.2	98.010	0.280	-0.100	0.800
2020/01/31 07:42:48.3	98.000	0.280	-0.080	0.830
2020/01/31 07:42:48.4	97.970	0.280	-0.070	0.860
2020/01/31 07:42:48.5	97.950	0.270	-0.050	0.900
2020/01/31 07:42:48.6	97.930	0.270	-0.040	0.930
2020/01/31 07:42:48.7	97.900	0.260	-0.020	0.960
2020/01/31 07:42:48.8	97.880	0.250	-0.000	1.000
2020/01/31 07:42:48.9	97.850	0.230	0.020	1.030
2020/01/31 07:42:49.0	97.830	0.220	0.040	1.060
2020/01/31 07:42:49.1	97.810	0.200	0.060	1.090
2020/01/31 07:42:49.2	97.780	0.190	0.080	1.120
2020/01/31 07:42:49.3	97.760	0.170	0.100	1.150
2020/01/31 07:42:49.4	97.740	0.150	0.120	1.180
2020/01/31 07:42:49.5	97.720	0.120	0.150	1.210
2020/01/31 07:42:49.6	97.700	0.100	0.170	1.230
2020/01/31 07:42:49.7	97.670	0.080	0.190	1.250
2020/01/31 07:42:49.8	97.660	0.050	0.220	1.270
2020/01/31 07:42:49.9	97.640	0.030	0.240	1.290
2020/01/31 07:42:50.0	97.620	0.000	0.270	1.300
2020/01/31 07:42:50.1	97.600	-0.020	0.290	1.310
2020/01/31 07:42:50.2	97.590	-0.050	0.310	1.320
2020/01/31 07:42:50.3	97.570	-0.070	0.330	1.320
2020/01/31 07:42:50.4	97.560	-0.100	0.350	1.320
2020/01/31 07:42:50.5	97.550	-0.120	0.360	1.310
2020/01/31 07:42:50.6	97.550	-0.140	0.380	1.310
2020/01/31 07:42:50.7	97.540	-0.160	0.390	1.300
2020/01/31 07:42:50.8	97.540	-0.180	0.400	1.280
2020/01/31 07:42:50.9	97.540	-0.200	0.400	1.270
2020/01/31 07:42:51.0	97.550	-0.210	0.400	1.250
2020/01/31 07:42:51.1	97.550	-0.220	0.400	1.230
2020/01/31 07:42:51.2	97.560	-0.230	0.390	1.200
2020/01/31 07:42:51.3	97.570	-0.240	0.380	1.170
2020/01/31 07:42:51.4	97.580	-0.240	0.370	1.140
2020/01/31 07:42:51.5	97.590	-0.250	0.350	1.120
2020/01/31 07:42:51.6	97.600	-0.240	0.330	1.080
2020/01/31 07:42:51.7	97.610	-0.240	0.300	1.050
2020/01/31 07:42:51.8	97.620	-0.230	0.270	1.020
2020/01/31 07:42:51.9	97.630	-0.210	0.240	0.990
2020/01/31 07:42:52.0	97.640	-0.200	0.200	0.960
2020/01/31 07:42:52.1	97.650	-0.180	0.160	0.930
2020/01/31 07:42:52.2	97.650	-0.160	0.110	0.900
2020/01/31 07:42:52.3	97.660	-0.130	0.070	0.870
2020/01/31 07:42:52.4	97.670	-0.100	0.020	0.840
2020/01/31 07:42:52.5	97.670	-0.070	-0.040	0.810
2020/01/31 07:42:52.6	97.680	-0.030	-0.090	0.780
2020/01/31 07:42:52.7	97.680	0.010	-0.150	0.760
2020/01/31 07:42:52.8	97.680	0.050	-0.210	0.740
2020/01/31 07:42:52.9	97.680	0.090	-0.270	0.710
2020/01/31 07:42:53.0	97.680	0.140	-0.330	0.690
2020/01/31 07:42:53.1	97.670	0.180	-0.390	0.680
2020/01/31 07:42:53.2	97.670	0.230	-0.450	0.660
2020/01/31 07:42:53.3	97.670	0.280	-0.510	0.650
2020/01/31 07:42:53.4	97.660	0.330	-0.560	0.630
2020/01/31 07:42:53.5	97.650	0.370	-0.620	0.620
2020/01/31 07:42:53.6	97.640	0.420	-0.670	0.620
2020/01/31 07:42:53.7	97.630	0.470	-0.720	0.610
2020/01/31 07:42:53.8	97.620	0.510	-0.760	0.610
2020/01/31 07:42:53.9	97.610	0.560	-0.800	0.610
2020/01/31 07:42:54.0	97.590	0.600	-0.840	0.620
2020/01/31 07:42:54.1	97.580	0.640	-0.870	0.620
2020/01/31 07:42:54.2	97.560	0.670	-0.900	0.630
2020/01/31 07:42:54.3	97.540	0.710	-0.920	0.640
2020/01/31 07:42:54.4	97.520	0.740	-0.940	0.650
2020/01/31 07:42:54.5	97.500	0.760	-0.960	0.670
2020/01/31 07:42:54.6	97.490	0.790	-0.960	0.680
2020/01/31 07:42:54.7	97.470	0.800	-0.970	0.700
2020/01/31 07:42:54.8	97.460	0.820	-0.970	0.720
2020/01/31 07:42:54.9	97.440	0.830	-0.960	0.750
2020/01/31 07:42:55.0	97.430	0.830	-0.950	0.770
2020/01/31 07:42:55.1	97.410	0.840	-0.930	0.790
2020/01/31 07:42:55.2	97.400	0.830	-0.910	0.820
2020/01/31 07:42:55.3	97.380	0.820	-0.890	0.840
2020/01/31 07:42:55.4	97.370	0.810	-0.860	0.860
2020/01/31 07:42:55.5	97.370	0.800	-0.820	0.890
2020/01/31 07:42:55.6	97.360	0.770	-0.780	0.910
2020/01/31 07:42:55.7	97.360	0.750	-0.740	0.940
2020/01/31 07:42:55.8	97.350	0.720	-0.700	0.970
2020/01/31 07:42:55.9	97.350	0.690	-0.650	0.990
2020/01/31 07:42:56.0	97.350	0.650	-0.600	1.020
2020/01/31 07:42:56.1	97.350	0.610	-0.540	1.050
2020/01/31 07:42:56.2	97.350	0.560	-0.490	1.070
2020/01/31 07:42:56.3	97.350	0.510	-0.420	1.100
2020/01/31 07:42:56.4	97.350	0.460	-0.360	1.120
2020/01/31 07:42:56.5	97.350	0.410	-0.290	1.150
2020/01/31 07:42:56.6	97.340	0.350	-0.230	1.180
2020/01/31 07:42:56.7	97.340	0.290	-0.160	1.210
2020/01/31 07:42:56.8	97.330	0.230	-0.090	1.230
2020/01/31 07:42:56.9	97.330	0.170	-0.020	1.260
2020/01/31 07:42:57.0	97.320	0.100	0.050	1.290
2020/01/31 07:42:57.1	97.310	0.030	0.120	1.320
2020/01/31 07:42:57.2	97.300	-0.030	0.190	1.340
2020/01/31 07:42:57.3	97.280	-0.100	0.260	1.370
2020/01/31 07:42:57.4	97.270	-0.170	0.330	1.400
2020/01/31 07:42:57.5	97.250	-0.240	0.400	1.420
2020/01/31 07:42:57.6	97.230	-0.310	0.470	1.450
2020/01/31 07:42:57.7	97.210	-0.380	0.540	1.480
2020/01/31 07:42:57.8	97.190	-0.450	0.600	1.510
2020/01/31 07:42:57.9	97.170	-0.510	0.670	1.530
2020/01/31 07:42:58.0	97.150	-0.580	0.730	1.560
2020/01/31 07:42:58.1	97.120	-0.650	0.790	1.580
2020/01/31 07:42:58.2	97.100	-0.710	0.840	1.610
2020/01/31 07:42:58.3	97.060	-0.770	0.890	1.630
2020/01/31 07:42:58.4	97.030	-0.830	0.940	1.650
2020/01/31 07:42:58.5	97.000	-0.890	0.980	1.670
2020/01/31 07:42:58.6	96.980	-0.940	1.020	1.680
2020/01/31 07:42:58.7	96.950	-0.990	1.050	1.700
2020/01/31 07:42:58.8	96.930	-1.040	1.080	1.710
2020/01/31 07:42:58.9	96.900	-1.080	1.100	1.720
2020/01/31 07:42:59.0	96.880	-1.120	1.110	1.720
2020/01/31 07:42:59.1	96.850	-1.160	1.110	1.720
2020/01/31 07:42:59.2	96.830	-1.190	1.110	1.720
2020/01/31 07:42:59.3	96.820	-1.210	1.090	1.710
2020/01/31 07:42:59.4	96.800	-1.230	1.070	1.700
2020/01/31 07:42:59.5	96.780	-1.240	1.040	1.690
2020/01/31 07:42:59.6	96.770	-1.250	1.000	1.670
2020/01/31 07:42:59.7	96.750	-1.250	0.940	1.650
2020/01/31 07:42:59.8	96.740	-1.240	0.880	1.630
2020/01/31 07:42:59.9	96.730	-1.230	0.810	1.600
2020/01/31 07:43:00.0	96.720	-1.210	0.730	1.570
2020/01/31 07:43:00.1	96.720	-1.190	0.640	1.540
2020/01/31 07:43:00.2	96.710	-1.160	0.540	1.500
2020/01/31 07:43:00.3	96.700	-1.120	0.430	1.460
2020/01/31 07:43:00.4	96.700	-1.070	0.320	1.420
2020/01/31 07:43:00.5	96.700	-1.020	0.200	1.380
2020/01/31 07:43:00.6	96.700	-0.970	0.070	1.340
2020/01/31 07:43:00.7	96.700	-0.910	-0.060	1.300
2020/01/31 07:43:00.8	96.700	-0.840	-0.200	1.260
2020/01/31 07:43:00.9	96.710	-0.770	-0.340	1.220
2020/01/31 07:43:01.0	96.710	-0.690	-0.480	1.180
2020/01/31 07:43:01.1	96.710	-0.620	-0.620	1.140
2020/01/31 07:43:01.2	96.710	-0.540	-0.750	1.110
2020/01/31 07:43:01.3	96.710	-0.450	-0.900	1.070
2020/01/31 07:43:01.4	96.700	-0.370	-1.030	1.030
2020/01/31 07:43:01.5	96.700	-0.280	-1.150	1.000
2020/01/31 07:43:01.6	96.700	-0.200	-1.270	0.970
2020/01/31 07:43:01.7	96.700	-0.110	-1.380	0.940
2020/01/31 07:43:01.8	96.690	-0.020	-1.490	0.910
2020/01/31 07:43:01.9	96.680	0.060	-1.580	0.880
2020/01/31 07:43:02.0	96.670	0.140	-1.660	0.850
2020/01/31 07:43:02.1	96.660	0.220	-1.730	0.830
2020/01/31 07:43:02.2	96.650	0.290	-1.790	0.800
2020/01/31 07:43:02.3	96.640	0.370	-1.840	0.780
2020/01/31 07:43:02.4	96.630	0.430	-1.870	0.750
2020/01/31 07:43:02.5	96.610	0.490	-1.880	0.730
2020/01/31 07:43:02.6	96.600	0.550	-1.890	0.700
2020/01/31 07:43:02.7	96.580	0.600	-1.880	0.680
2020/01/31 07:43:02.8	96.570	0.640	-1.850	0.660
2020/01/31 07:43:02.9	96.550	0.680	-1.810	0.630
2020/01/31 07:43:03.0	96.530	0.710	-1.760	0.610
2020/01/31 07:43:03.1	96.520	0.740	-1.690	0.590
2020/01/31 07:43:03.2	96.500	0.750	-1.610	0.570
2020/01/31 07:43:03.3	96.470	0.760	-1.520	0.550
2020/01/31 07:43:03.4	96.450	0.760	-1.420	0.530
2020/01/31 07:43:03.5	96.430	0.760	-1.310	0.520
2020/01/31 07:43:03.6	96.410	0.750	-1.180	0.500
2020/01/31 07:43:03.7	96.380	0.740	-1.050	0.490
2020/01/31 07:43:03.8	96.360	0.710	-0.920	0.470
2020/01/31 07:43:03.9	96.340	0.690	-0.780	0.460
2020/01/31 07:43:04.0	96.320	0.660	-0.630	0.450
2020/01/31 07:43:04.1	96.290	0.620	-0.480	0.440
2020/01/31 07:43:04.2	96.270	0.580	-0.330	0.440
2020/01/31 07:43:04.3	96.250	0.540	-0.180	0.430
2020/01/31 07:43:04.4	96.230	0.490	-0.030	0.430
2020/01/31 07:43:04.5	96.200	0.440	0.120	0.420
2020/01/31 07:43:04.6	96.180	0.390	0.260	0.420
2020/01/31 07:43:04.7	96.150	0.340	0.400	0.420
2020/01/31 07:43:04.8	96.130	0.290	0.530	0.420
2020/01/31 07:43:04.9	96.110	0.240	0.660	0.420
2020/01/31 07:43:05.0	96.080	0.190	0.770	0.420
2020/01/31 07:43:05.1	96.060	0.140	0.880	0.420
2020/01/31 07:43:05.2	96.040	0.090	0.980	0.420
2020/01/31 07:43:05.3	96.010	0.040	1.070	0.420
2020/01/31 07:43:05.4	95.990	-0.010	1.150	0.430
2020/01/31 07:43:05.5	95.970	-0.050	1.220	0.430
2020/01/31 07:43:05.6	95.960	-0.090	1.280	0.430
2020/01/31 07:43:05.7	95.940	-0.120	1.320	0.440
2020/01/31 07:43:05.8	95.930	-0.160	1.360	0.440
2020/01/31 07:43:05.9	95.910	-0.190	1.380	0.450
2020/01/31 07:43:06.0	95.900	-0.210	1.390	0.450
2020/01/31 07:43:06.1	95.890	-0.230	1.390	0.460
2020/01/31 07:43:06.2	95.880	-0.250	1.380	0.460
2020/01/31 07:43:06.3	95.870	-0.260	1.360	0.480
2020/01/31 07:43:06.4	95.860	-0.270	1.330	0.480
2020/01/31 07:43:06.5	95.850	-0.280	1.290	0.490
2020/01/31 07:43:06.6	95.850	-0.280	1.240	0.500
2020/01/31 07:43:06.7	95.840	-0.270	1.170	0.510
2020/01/31 07:43:06.8	95.830	-0.270	1.100	0.510
2020/01/31 07:43:06.9	95.820	-0.260	1.030	0.520
2020/01/31 07:43:07.0	95.820	-0.240	0.940	0.530
2020/01/31 07:43:07.1	95.810	-0.220	0.850	0.540
2020/01/31 07:43:07.2	95.800	-0.200	0.750	0.550
2020/01/31 07:43:07.3	95.780	-0.180	0.640	0.550
2020/01/31 07:43:07.4	95.780	-0.160	0.530	0.560
2020/01/31 07:43:07.5	95.770	-0.130	0.420	0.570
2020/01/31 07:43:07.6	95.760	-0.100	0.300	0.580
2020/01/31 07:43:07.7	95.760	-0.070	0.190	0.590
2020/01/31 07:43:07.8	95.750	-0.040	0.070	0.600
2020/01/31 07:43:07.9	95.750	-0.010	-0.050	0.610
2020/01/31 07:43:08.0	95.750	0.020	-0.160	0.620
2020/01/31 07:43:08.1	95.740	0.060	-0.280	0.630
2020/01/31 07:43:08.2	95.740	0.090	-0.390	0.640
2020/01/31 07:43:08.3	95.740	0.120	-0.500	0.650
2020/01/31 07:43:08.4	95.750	0.160	-0.610	0.660
2020/01/31 07:43:08.5	95.750	0.190	-0.710	0.670
2020/01/31 07:43:08.6	95.760	0.220	-0.810	0.690
2020/01/31 07:43:08.7	95.760	0.250	-0.900	0.700
2020/01/31 07:43:08.8	95.770	0.280	-0.990	0.720
2020/01/31 07:43:08.9	95.780	0.310	-1.070	0.740
2020/01/31 07:43:09.0	95.800	0.340	-1.140	0.760
2020/01/31 07:43:09.1	95.810	0.370	-1.200	0.780
2020/01/31 07:43:09.2	95.830	0.390	-1.260	0.810
2020/01/31 07:43:09.3	95.850	0.420	-1.310	0.830
2020/01/31 07:43:09.4	95.870	0.440	-1.360	0.860
2020/01/31 07:43:09.5	95.890	0.460	-1.390	0.890
2020/01/31 07:43:09.6	95.910	0.490	-1.410	0.930
2020/01/31 07:43:09.7	95.930	0.500	-1.430	0.960
2020/01/31 07:43:09.8	95.950	0.520	-1.440	1.000
2020/01/31 07:43:09.9	95.970	0.540	-1.440	1.040
2020/01/31 07:43:10.0	95.990	0.550	-1.430	1.080
2020/01/31 07:43:10.1	96.010	0.560	-1.410	1.130
2020/01/31 07:43:10.2	96.030	0.570	-1.390	1.170
2020/01/31 07:43:10.3	96.060	0.580	-1.360	1.220
2020/01/31 07:43:10.4	96.070	0.590	-1.320	1.270
2020/01/31 07:43:10.5	96.090	0.590	-1.270	1.330
2020/01/31 07:43:10.6	96.100	0.590	-1.220	1.380
2020/01/31 07:43:10.7	96.110	0.590	-1.160	1.440
2020/01/31 07:43:10.8	96.120	0.590	-1.090	1.500
2020/01/31 07:43:10.9	96.130	0.580	-1.020	1.560
2020/01/31 07:43:11.0	96.140	0.570	-0.940	1.630
2020/01/31 07:43:11.1	96.150	0.560	-0.850	1.690
2020/01/31 07:43:11.2	96.150	0.550	-0.770	1.760
2020/01/31 07:43:11.3	96.160	0.530	-0.670	1.820
2020/01/31 07:43:11.4	96.160	0.510	-0.570	1.890
2020/01/31 07:43:11.5	96.160	0.490	-0.470	1.950
2020/01/31 07:43:11.6	96.150	0.470	-0.370	2.010
2020/01/31 07:43:11.7	96.150	0.440	-0.260	2.080
2020/01/31 07:43:11.8	96.140	0.410	-0.160	2.140
2020/01/31 07:43:11.9	96.120	0.370	-0.050	2.200
2020/01/31 07:43:12.0	96.110	0.340	0.050	2.260
2020/01/31 07:43:12.1	96.090	0.300	0.150	2.310
2020/01/31 07:43:12.2	96.080	0.260	0.260	2.360
2020/01/31 07:43:12.3	96.060	0.210	0.350	2.410
2020/01/31 07:43:12.4	96.040	0.170	0.450	2.450
2020/01/31 07:43:12.5	96.010	0.120	0.540	2.490
2020/01/31 07:43:12.6	95.990	0.070	0.630	2.530
2020/01/31 07:43:12.7	95.970	0.020	0.710	2.560
2020/01/31 07:43:12.8	95.950	-0.030	0.780	2.580
2020/01/31 07:43:12.9	95.920	-0.080	0.850	2.600
2020/01/31 07:43:13.0	95.900	-0.130	0.910	2.620
2020/01/31 07:43:13.1	95.870	-0.190	0.960	2.630
2020/01/31 07:43:13.2	95.850	-0.240	1.010	2.630
2020/01/31 07:43:13.3	95.810	-0.290	1.040	2.630
2020/01/31 07:43:13.4	95.790	-0.350	1.070	2.620
2020/01/31 07:43:13.5	95.770	-0.400	1.090	2.610
2020/01/31 07:43:13.6	95.760	-0.450	1.100	2.590
2020/01/31 07:43:13.7	95.740	-0.490	1.100	2.560
2020/01/31 07:43:13.8	95.720	-0.540	1.090	2.530
2020/01/31 07:43:13.9	95.710	-0.580	1.060	2.490
2020/01/31 07:43:14.0	95.700	-0.620	1.030	2.450
2020/01/31 07:43:14.1	95.700	-0.650	1.000	2.410
2020/01/31 07:43:14.2	95.690	-0.690	0.950	2.350
2020/01/31 07:43:14.3	95.690	-0.710	0.890	2.300
2020/01/31 07:43:14.4	95.690	-0.740	0.830	2.240
2020/01/31 07:43:14.5	95.690	-0.760	0.760	2.170
2020/01/31 07:43:14.6	95.700	-0.770	0.680	2.110
2020/01/31 07:43:14.7	95.710	-0.790	0.590	2.040
2020/01/31 07:43:14.8	95.720	-0.790	0.500	1.970
2020/01/31 07:43:14.9	95.730	-0.790	0.410	1.900
2020/01/31 07:43:15.0	95.750	-0.790	0.310	1.830
2020/01/31 07:43:15.1	95.760	-0.790	0.210	1.760
2020/01/31 07:43:15.2	95.780	-0.770	0.100	1.680
2020/01/31 07:43:15.3	95.800	-0.760	-0.010	1.610
2020/01/31 07:43:15.4	95.830	-0.740	-0.120	1.530
2020/01/31 07:43:15.5	95.850	-0.720	-0.220	1.450
2020/01/31 07:43:15.6	95.870	-0.690	-0.330	1.380
2020/01/31 07:43:15.7	95.900	-0.660	-0.430	1.300
2020/01/31 07:43:15.8	95.920	-0.630	-0.530	1.220
2020/01/31 07:43:15.9	95.950	-0.600	-0.630	1.140
2020/01/31 07:43:16.0	95.980	-0.560	-0.720	1.070
2020/01/31 07:43:16.1	96.010	-0.530	-0.800	0.990
2020/01/31 07:43:16.2	96.040	-0.490	-0.880	0.910
2020/01/31 07:43:16.3	96.060	-0.450	-0.960	0.840
2020/01/31 07:43:16.4	96.090	-0.410	-1.030	0.760
2020/01/31 07:43:16.5	96.120	-0.370	-1.080	0.680
2020/01/31 07:43:16.6	96.150	-0.330	-1.140	0.610
2020/01/31 07:43:16.7	96.180	-0.300	-1.180	0.540
2020/01/31 07:43:16.8	96.210	-0.260	-1.210	0.470
2020/01/31 07:43:16.9	96.240	-0.220	-1.240	0.400
2020/01/31 07:43:17.0	96.270	-0.190	-1.250	0.330
2020/01/31 07:43:17.1	96.300	-0.150	-1.260	0.270
2020/01/31 07:43:17.2	96.330	-0.120	-1.260	0.210
2020/01/31 07:43:17.3	96.370	-0.090	-1.250	0.150
2020/01/31 07:43:17.4	96.400	-0.060	-1.230	0.100
2020/01/31 07:43:17.5	96.420	-0.040	-1.210	0.040
2020/01/31 07:43:17.6	96.450	-0.010	-1.170	-0.000
2020/01/31 07:43:17.7	96.470	0.010	-1.130	-0.040
2020/01/31 07:43:17.8	96.490	0.030	-1.080	-0.080
2020/01/31 07:43:17.9	96.510	0.050	-1.030	-0.120
2020/01/31 07:43:18.0	96.520	0.060	-0.970	-0.150
2020/01/31 07:43:18.1	96.540	0.080	-0.910	-0.180
2020/01/31 07:43:18.2	96.560	0.090	-0.840	-0.200
2020/01/31 07:43:18.3	96.580	0.100	-0.760	-0.220
2020/01/31 07:43:18.4	96.590	0.110	-0.690	-0.230
2020/01/31 07:43:18.5	96.600	0.110	-0.610	-0.250
2020/01/31 07:43:18.6	96.610	0.120	-0.530	-0.250
2020/01/31 07:43:18.7	96.620	0.120	-0.450	-0.260
2020/01/31 07:43:18.8	96.630	0.120	-0.370	-0.260
2020/01/31 07:43:18.9	96.640	0.130	-0.290	-0.250
2020/01/31 07:43:19.0	96.640	0.130	-0.210	-0.240
2020/01/31 07:43:19.1	96.650	0.130	-0.140	-0.240
2020/01/31 07:43:19.2	96.650	0.130	-0.060	-0.220
2020/01/31 07:43:19.3	96.670	0.130	0.010	-0.210
2020/01/31 07:43:19.4	96.670	0.130	0.080	-0.200
2020/01/31 07:43:19.5	96.670	0.120	0.150	-0.180
2020/01/31 07:43:19.6	96.670	0.120	0.210	-0.160
2020/01/31 07:43:19.7	96.670	0.120	0.260	-0.150
2020/01/31 07:43:19.8	96.670	0.120	0.320	-0.130
2020/01/31 07:43:19.9	96.670	0.120	0.360	-0.110
2020/01/31 07:43:20.0	96.670	0.120	0.410	-0.090
2020/01/31 07:43:20.1	96.670	0.120	0.450	-0.070
2020/01/31 07:43:20.2	96.660	0.120	0.480	-0.050
2020/01/31 07:43:20.3	96.660	0.120	0.510	-0.030
2020/01/31 07:43:20.4	96.650	0.120	0.530	-0.010
2020/01/31 07:43:20.5	96.640	0.120	0.560	0.010
2020/01/31 07:43:20.6	96.640	0.120	0.570	0.030
2020/01/31 07:43:20.7	96.630	0.120	0.590	0.050
2020/01/31 07:43:20.8	96.620	0.120	0.600	0.070
2020/01/31 07:43:20.9	96.600	0.120	0.610	0.090
2020/01/31 07:43:21.0	96.590	0.120	0.610	0.120
2020/01/31 07:43:21.1	96.580	0.110	0.610	0.140
2020/01/31 07:43:21.2	96.560	0.110	0.610	0.170
2020/01/31 07:43:21.3	96.540	0.110	0.600	0.190
2020/01/31 07:43:21.4	96.520	0.110	0.600	0.210
2020/01/31 07:43:21.5	96.500	0.100	0.590	0.240
2020/01/31 07:43:21.6	96.480	0.100	0.570	0.260
2020/01/31 07:43:21.7	96.460	0.100	0.550	0.280
2020/01/31 07:43:21.8	96.440	0.090	0.530	0.310
2020/01/31 07:43:21.9	96.420	0.090	0.510	0.330
2020/01/31 07:43:22.0	96.400	0.090	0.480	0.350
2020/01/31 07:43:22.1	96.370	0.080	0.440	0.370
2020/01/31 07:43:22.2	96.350	0.080	0.410	0.390
2020/01/31 07:43:22.3	96.320	0.080	0.360	0.410
2020/01/31 07:43:22.4	96.300	0.070	0.320	0.420
2020/01/31 07:43:22.5	96.280	0.070	0.270	0.440
2020/01/31 07:43:22.6	96.250	0.070	0.220	0.450
2020/01/31 07:43:22.7	96.230	0.070	0.160	0.460
2020/01/31 07:43:22.8	96.220	0.080	0.100	0.470
2020/01/31 07:43:22.9	96.200	0.080	0.030	0.480
2020/01/31 07:43:23.0	96.180	0.080	-0.040	0.490
2020/01/31 07:43:23.1	96.170	0.090	-0.110	0.490
2020/01/31 07:43:23.2	96.160	0.100	-0.180	0.500
2020/01/31 07:43:23.3	96.140	0.110	-0.250	0.500
2020/01/31 07:43:23.4	96.130	0.120	-0.330	0.490
2020/01/31 07:43:23.5	96.120	0.140	-0.410	0.490
2020/01/31 07:43:23.6	96.120	0.160	-0.490	0.490
2020/01/31 07:43:23.7	96.120	0.170	-0.560	0.490
2020/01/31 07:43:23.8	96.120	0.190	-0.640	0.480
2020/01/31 07:43:23.9	96.120	0.220	-0.710	0.480
2020/01/31 07:43:24.0	96.130	0.240	-0.780	0.470
2020/01/31 07:43:24.1	96.130	0.260	-0.850	0.470
2020/01/31 07:43:24.2	96.140	0.290	-0.920	0.470
2020/01/31 07:43:24.3	96.160	0.310	-0.980	0.470
2020/01/31 07:43:24.4	96.170	0.340	-1.030	0.470
2020/01/31 07:43:24.5	96.180	0.360	-1.070	0.470
2020/01/31 07:43:24.6	96.190	0.380	-1.110	0.470
2020/01/31 07:43:24.7	96.210	0.410	-1.140	0.480
2020/01/31 07:43:24.8	96.220	0.430	-1.170	0.490
2020/01/31 07:43:24.9	96.230	0.450	-1.180	0.500
2020/01/31 07:43:25.0	96.250	0.470	-1.180	0.510
2020/01/31 07:43:25.1	96.260	0.480	-1.180	0.520
2020/01/31 07:43:25.2	96.270	0.490	-1.170	0.540
2020/01/31 07:43:25.3	96.280	0.500	-1.140	0.560
2020/01/31 07:43:25.4	96.290	0.510	-1.110	0.570
2020/01/31 07:43:25.5	96.300	0.510	-1.070	0.590
2020/01/31 07:43:25.6	96.310	0.510	-1.030	0.610
2020/01/31 07:43:25.7	96.320	0.510	-0.970	0.630
2020/01/31 07:43:25.8	96.330	0.500	-0.910	0.640
2020/01/31 07:43:25.9	96.330	0.490	-0.850	0.660
2020/01/31 07:43:26.0	96.340	0.480	-0.770	0.670
2020/01/31 07:43:26.1	96.340	0.460	-0.700	0.690
2020/01/31 07:43:26.2	96.340	0.440	-0.620	0.700
2020/01/31 07:43:26.3	96.340	0.420	-0.530	0.720
2020/01/31 07:43:26.4	96.340	0.390	-0.440	0.730
2020/01/31 07:43:26.5	96.330	0.360	-0.360	0.740
2020/01/31 07:43:26.6	96.330	0.330	-0.270	0.760
2020/01/31 07:43:26.7	96.320	0.300	-0.180	0.770
2020/01/31 07:43:26.8	96.310	0.270	-0.100	0.790
2020/01/31 07:43:26.9	96.300	0.230	-0.010	0.810
2020/01/31 07:43:27.0	96.290	0.200	0.070	0.830
2020/01/31 07:43:27.1	96.280	0.160	0.150	0.850
2020/01/31 07:43:27.2	96.260	0.120	0.220	0.870
2020/01/31 07:43:27.3	96.240	0.090	0.290	0.890
2020/01/31 07:43:27.4	96.230	0.050	0.350	0.920
2020/01/31 07:43:27.5	96.210	0.020	0.410	0.950
2020/01/31 07:43:27.6	96.190	-0.010	0.460	0.980
2020/01/31 07:43:27.7	96.170	-0.040	0.510	1.020
2020/01/31 07:43:27.8	96.150	-0.070	0.550	1.060
2020/01/31 07:43:27.9	96.130	-0.100	0.580	1.100
2020/01/31 07:43:28.0	96.110	-0.120	0.600	1.140
2020/01/31 07:43:28.1	96.080	-0.140	0.620	1.180
2020/01/31 07:43:28.2	96.060	-0.160	0.630	1.230
2020/01/31 07:43:28.3	96.030	-0.170	0.630	1.280
2020/01/31 07:43:28.4	96.010	-0.190	0.630	1.330
2020/01/31 07:43:28.5	95.980	-0.200	0.620	1.370
2020/01/31 07:43:28.6	95.950	-0.200	0.600	1.420
2020/01/31 07:43:28.7	95.930	-0.210	0.580	1.460
2020/01/31 07:43:28.8	95.900	-0.210	0.550	1.510
2020/01/31 07:43:28.9	95.870	-0.210	0.520	1.550
2020/01/31 07:43:29.0	95.850	-0.210	0.480	1.590
2020/01/31 07:43:29.1	95.820	-0.200	0.430	1.620
2020/01/31 07:43:29.2	95.800	-0.200	0.390	1.650
2020/01/31 07:43:29.3	95.780	-0.190	0.340	1.680
2020/01/31 07:43:29.4	95.760	-0.180	0.290	1.700
2020/01/31 07:43:29.5	95.740	-0.170	0.230	1.720
2020/01/31 07:43:29.6	95.720	-0.160	0.180	1.740
2020/01/31 07:43:29.7	95.700	-0.160	0.120	1.750
2020/01/31 07:43:29.8	95.690	-0.150	0.060	1.760
2020/01/31 07:43:29.9	95.670	-0.140	0.010	1.760
2020/01/31 07:43:30.0	95.660	-0.130	-0.050	1.760
2020/01/31 07:43:30.1	95.650	-0.130	-0.100	1.760
2020/01/31 07:43:30.2	95.630	-0.120	-0.150	1.760
2020/01/31 07:43:30.3	95.630	-0.120	-0.200	1.750
2020/01/31 07:43:30.4	95.620	-0.120	-0.250	1.740
2020/01/31 07:43:30.5	95.610	-0.120	-0.290	1.720
2020/01/31 07:43:30.6	95.600	-0.120	-0.330	1.710
2020/01/31 07:43:30.7	95.600	-0.120	-0.360	1.700
2020/01/31 07:43:30.8	95.590	-0.120	-0.400	1.680
2020/01/31 07:43:30.9	95.590	-0.130	-0.420	1.660
2020/01/31 07:43:31.0	95.580	-0.140	-0.450	1.650
2020/01/31 07:43:31.1	95.580	-0.150	-0.470	1.630
2020/01/31 07:43:31.2	95.580	-0.160	-0.480	1.610
2020/01/31 07:43:31.3	95.580	-0.170	-0.490	1.600
2020/01/31 07:43:31.4	95.580	-0.180	-0.500	1.580
2020/01/31 07:43:31.5	95.580	-0.190	-0.500	1.560
2020/01/31 07:43:31.6	95.580	-0.200	-0.490	1.550
2020/01/31 07:43:31.7	95.590	-0.220	-0.490	1.530
2020/01/31 07:43:31.8	95.590	-0.230	-0.470	1.510
2020/01/31 07:43:31.9	95.590	-0.250	-0.460	1.500
2020/01/31 07:43:32.0	95.600	-0.260	-0.440	1.480
2020/01/31 07:43:32.1	95.610	-0.270	-0.420	1.460
2020/01/31 07:43:32.2	95.620	-0.290	-0.400	1.440
2020/01/31 07:43:32.3	95.630	-0.300	-0.380	1.420
2020/01/31 07:43:32.4	95.640	-0.310	-0.350	1.400
2020/01/31 07:43:32.5	95.660	-0.320	-0.330	1.380
2020/01/31 07:43:32.6	95.670	-0.330	-0.310	1.360
2020/01/31 07:43:32.7	95.690	-0.340	-0.280	1.340
2020/01/31 07:43:32.8	95.710	-0.340	-0.260	1.310
2020/01/31 07:43:32.9	95.730	-0.350	-0.240	1.290
2020/01/31 07:43:33.0	95.750	-0.350	-0.210	1.260
2020/01/31 07:43:33.1	95.770	-0.350	-0.190	1.240
2020/01/31 07:43:33.2	95.790	-0.350	-0.180	1.210
2020/01/31 07:43:33.3	95.810	-0.350	-0.160	1.180
2020/01/31 07:43:33.4	95.830	-0.340	-0.140	1.160
2020/01/31 07:43:33.5	95.850	-0.340	-0.130	1.130
2020/01/31 07:43:33.6	95.870	-0.330	-0.110	1.100
2020/01/31 07:43:33.7	95.890	-0.320	-0.100	1.080
2020/01/31 07:43:33.8	95.910	-0.310	-0.090	1.060
2020/01/31 07:43:33.9	95.930	-0.300	-0.080	1.030
2020/01/31 07:43:34.0	95.940	-0.290	-0.070	1.010
2020/01/31 07:43:34.1	95.950	-0.280	-0.060	0.990
2020/01/31 07:43:34.2	95.960	-0.270	-0.050	0.970
2020/01/31 07:43:34.3	95.960	-0.260	-0.050	0.950
2020/01/31 07:43:34.4	95.970	-0.250	-0.040	0.940
2020/01/31 07:43:34.5	95.970	-0.240	-0.040	0.920
2020/01/31 07:43:34.6	95.970	-0.230	-0.030	0.910
2020/01/31 07:43:34.7	95.970	-0.220	-0.020	0.900
2020/01/31 07:43:34.8	95.970	-0.210	-0.020	0.890
2020/01/31 07:43:34.9	95.960	-0.200	-0.010	0.880
2020/01/31 07:43:35.0	95.950	-0.190	-0.010	0.870
2020/01/31 07:43:35.1	95.950	-0.190	0.000	0.860
2020/01/31 07:43:35.2	95.940	-0.180	0.010	0.860
2020/01/31 07:43:35.3	95.930	-0.170	0.010	0.850
2020/01/31 07:43:35.4	95.930	-0.170	0.010	0.840
2020/01/31 07:43:35.5	95.920	-0.160	0.010	0.840
2020/01/31 07:43:35.6	95.910	-0.150	0.020	0.830
2020/01/31 07:43:35.7	95.910	-0.150	0.020	0.820
2020/01/31 07:43:35.8	95.900	-0.140	0.010	0.810
2020/01/31 07:43:35.9	95.900	-0.130	0.010	0.800
2020/01/31 07:43:36.0	95.900	-0.120	0.000	0.790
2020/01/31 07:43:36.1	95.890	-0.110	-0.010	0.780
2020/01/31 07:43:36.2	95.890	-0.100	-0.020	0.770
2020/01/31 07:43:36.3	95.890	-0.090	-0.030	0.760
2020/01/31 07:43:36.4	95.900	-0.080	-0.050	0.740
2020/01/31 07:43:36.5	95.900	-0.060	-0.060	0.730
2020/01/31 07:43:36.6	95.900	-0.050	-0.080	0.720
2020/01/31 07:43:36.7	95.900	-0.030	-0.100	0.710
2020/01/31 07:43:36.8	95.910	-0.010	-0.130	0.700
2020/01/31 07:43:36.9	95.910	0.010	-0.150	0.690
2020/01/31 07:43:37.0	95.910	0.030	-0.180	0.680
2020/01/31 07:43:37.1	95.910	0.050	-0.200	0.670
2020/01/31 07:43:37.2	95.910	0.080	-0.230	0.670
2020/01/31 07:43:37.3	95.910	0.100	-0.260	0.660
2020/01/31 07:43:37.4	95.910	0.130	-0.290	0.660
2020/01/31 07:43:37.5	95.900	0.150	-0.320	0.660
2020/01/31 07:43:37.6	95.900	0.170	-0.350	0.660
2020/01/31 07:43:37.7	95.890	0.200	-0.370	0.660
2020/01/31 07:43:37.8	95.880	0.220	-0.400	0.660
2020/01/31 07:43:37.9	95.870	0.250	-0.420	0.670
2020/01/31 07:43:38.0	95.860	0.270	-0.440	0.670
2020/01/31 07:43:38.1	95.850	0.290	-0.460	0.670
2020/01/31 07:43:38.2	95.840	0.310	-0.480	0.670
2020/01/31 07:43:38.3	95.820	0.330	-0.500	0.670
2020/01/31 07:43:38.4	95.810	0.350	-0.510	0.670
2020/01/31 07:43:38.5	95.790	0.370	-0.520	0.660
2020/01/31 07:43:38.6	95.780	0.380	-0.520	0.650
2020/01/31 07:43:38.7	95.770	0.390	-0.520	0.640
2020/01/31 07:43:38.8	95.750	0.400	-0.520	0.630
2020/01/31 07:43:38.9	95.740	0.410	-0.520	0.620
2020/01/31 07:43:39.0	95.730	0.420	-0.510	0.600
2020/01/31 07:43:39.1	95.720	0.430	-0.500	0.580
2020/01/31 07:43:39.2	95.700	0.430	-0.490	0.560
2020/01/31 07:43:39.3	95.710	0.430	-0.470	0.540
2020/01/31 07:43:39.4	95.700	0.430	-0.450	0.510
2020/01/31 07:43:39.5	95.690	0.420	-0.420	0.490
2020/01/31 07:43:39.6	95.680	0.420	-0.400	0.460
2020/01/31 07:43:39.7	95.670	0.410	-0.370	0.440
2020/01/31 07:43:39.8	95.660	0.410	-0.350	0.410
2020/01/31 07:43:39.9	95.660	0.400	-0.320	0.390
2020/01/31 07:43:40.0	95.650	0.390	-0.290	0.370
2020/01/31 07:43:40.1	95.650	0.370	-0.260	0.340
2020/01/31 07:43:40.2	95.650	0.360	-0.230	0.320
2020/01/31 07:43:40.3	95.660	0.350	-0.210	0.300
2020/01/31 07:43:40.4	95.670	0.340	-0.180	0.280
2020/01/31 07:43:40.5	95.670	0.320	-0.150	0.260
2020/01/31 07:43:40.6	95.680	0.310	-0.130	0.240
2020/01/31 07:43:40.7	95.690	0.300	-0.100	0.230
2020/01/31 07:43:40.8	95.700	0.290	-0.080	0.210
2020/01/31 07:43:40.9	95.720	0.270	-0.060	0.200
2020/01/31 07:43:41.0	95.730	0.260	-0.040	0.190
2020/01/31 07:43:41.1	95.750	0.250	-0.030	0.180
2020/01/31 07:43:41.2	95.770	0.240	-0.020	0.170
2020/01/31 07:43:41.3	95.780	0.230	-0.000	0.160
2020/01/31 07:43:41.4	95.800	0.230	0.000	0.160
2020/01/31 07:43:41.5	95.830	0.220	0.010	0.150
2020/01/31 07:43:41.6	95.850	0.220	0.010	0.150
2020/01/31 07:43:41.7	95.870	0.210	0.010	0.150
2020/01/31 07:43:41.8	95.900	0.210	0.000	0.150
2020/01/31 07:43:41.9	95.920	0.210	-0.000	0.150
2020/01/31 07:43:42.0	95.940	0.210	-0.010	0.160
2020/01/31 07:43:42.1	95.970	0.210	-0.020	0.160
2020/01/31 07:43:42.2	95.990	0.210	-0.030	0.170
2020/01/31 07:43:42.3	96.020	0.210	-0.050	0.180
2020/01/31 07:43:42.4	96.040	0.210	-0.070	0.190
2020/01/31 07:43:42.5	96.070	0.220	-0.080	0.200
2020/01/31 07:43:42.6	96.090	0.220	-0.100	0.220
2020/01/31 07:43:42.7	96.110	0.220	-0.110	0.230
2020/01/31 07:43:42.8	96.130	0.230	-0.130	0.250
2020/01/31 07:43:42.9	96.150	0.230	-0.150	0.280
2020/01/31 07:43:43.0	96.170	0.230	-0.160	0.300
2020/01/31 07:43:43.1	96.180	0.230	-0.180	0.330
2020/01/31 07:43:43.2	96.200	0.240	-0.190	0.360
2020/01/31 07:43:43.3	96.200	0.240	-0.200	0.400
2020/01/31 07:43:43.4	96.210	0.240	-0.210	0.440
2020/01/31 07:43:43.5	96.220	0.230	-0.210	0.480
2020/01/31 07:43:43.6	96.220	0.230	-0.220	0.520
2020/01/31 07:43:43.7	96.220	0.220	-0.220	0.570
2020/01/31 07:43:43.8	96.220	0.210	-0.210	0.620
2020/01/31 07:43:43.9	96.220	0.200	-0.210	0.680
2020/01/31 07:43:44.0	96.210	0.190	-0.200	0.740
2020/01/31 07:43:44.1	96.210	0.180	-0.190	0.800
2020/01/31 07:43:44.2	96.200	0.160	-0.170	0.860
2020/01/31 07:43:44.3	96.190	0.140	-0.160	0.920
2020/01/31 07:43:44.4	96.180	0.120	-0.140	0.990
2020/01/31 07:43:44.5	96.160	0.100	-0.120	1.060
2020/01/31 07:43:44.6	96.150	0.070	-0.100	1.120
2020/01/31 07:43:44.7	96.140	0.040	-0.080	1.190
2020/01/31 07:43:44.8	96.120	0.010	-0.060	1.260
2020/01/31 07:43:44.9	96.110	-0.020	-0.030	1.320
2020/01/31 07:43:45.0	96.090	-0.050	-0.010	1.390
2020/01/31 07:43:45.1	96.080	-0.080	0.010	1.450
2020/01/31 07:43:45.2	96.070	-0.110	0.030	1.510
2020/01/31 07:43:45.3	96.070	-0.140	0.050	1.570
2020/01/31 07:43:45.4	96.050	-0.180	0.070	1.620
2020/01/31 07:43:45.5	96.040	-0.210	0.080	1.670
2020/01/31 07:43:45.6	96.030	-0.240	0.100	1.710
2020/01/31 07:43:45.7	96.030	-0.270	0.110	1.750
2020/01/31 07:43:45.8	96.020	-0.310	0.120	1.790
2020/01/31 07:43:45.9	96.010	-0.340	0.120	1.820
2020/01/31 07:43:46.0	96.010	-0.360	0.130	1.850
2020/01/31 07:43:46.1	96.000	-0.390	0.130	1.870
2020/01/31 07:43:46.2	95.990	-0.420	0.130	1.900
2020/01/31 07:43:46.3	95.970	-0.440	0.130	1.910
2020/01/31 07:43:46.4	95.960	-0.460	0.130	1.920
2020/01/31 07:43:46.5	95.960	-0.480	0.130	1.930
2020/01/31 07:43:46.6	95.950	-0.500	0.120	1.940
2020/01/31 07:43:46.7	95.940	-0.520	0.120	1.940
2020/01/31 07:43:46.8	95.930	-0.530	0.110	1.940
2020/01/31 07:43:46.9	95.920	-0.540	0.110	1.930
2020/01/31 07:43:47.0	95.900	-0.560	0.100	1.930
2020/01/31 07:43:47.1	95.890	-0.560	0.100	1.920
2020/01/31 07:43:47.2	95.880	-0.570	0.090	1.900
2020/01/31 07:43:47.3	95.860	-0.580	0.090	1.880
2020/01/31 07:43:47.4	95.850	-0.580	0.080	1.860
2020/01/31 07:43:47.5	95.840	-0.580	0.080	1.830
2020/01/31 07:43:47.6	95.830	-0.580	0.070	1.800
2020/01/31 07:43:47.7	95.820	-0.580	0.070	1.770
2020/01/31 07:43:47.8	95.810	-0.580	0.060	1.730
2020/01/31 07:43:47.9	95.810	-0.570	0.060	1.690
2020/01/31 07:43:48.0	95.800	-0.570	0.050	1.650
2020/01/31 07:43:48.1	95.800	-0.560	0.050	1.600
2020/01/31 07:43:48.2	95.800	-0.550	0.040	1.550
2020/01/31 07:43:48.3	95.790	-0.540	0.040	1.500
2020/01/31 07:43:48.4	95.790	-0.530	0.030	1.440
2020/01/31 07:43:48.5	95.790	-0.520	0.020	1.390
2020/01/31 07:43:48.6	95.800	-0.500	0.010	1.330
2020/01/31 07:43:48.7	95.810	-0.490	-0.010	1.270
2020/01/31 07:43:48.8	95.820	-0.470	-0.030	1.210
2020/01/31 07:43:48.9	95.830	-0.450	-0.050	1.150
2020/01/31 07:43:49.0	95.840	-0.430	-0.070	1.090
2020/01/31 07:43:49.1	95.860	-0.410	-0.100	1.030
2020/01/31 07:43:49.2	95.870	-0.380	-0.120	0.970
2020/01/31 07:43:49.3	95.900	-0.360	-0.160	0.910
2020/01/31 07:43:49.4	95.920	-0.330	-0.200	0.850
2020/01/31 07:43:49.5	95.940	-0.300	-0.240	0.790
2020/01/31 07:43:49.6	95.960	-0.270	-0.280	0.730
2020/01/31 07:43:49.7	95.980	-0.240	-0.330	0.670
2020/01/31 07:43:49.8	96.000	-0.200	-0.380	0.610
2020/01/31 07:43:49.9	96.020	-0.170	-0.430	0.550
2020/01/31 07:43:50.0	96.050	-0.130	-0.490	0.500
2020/01/31 07:43:50.1	96.070	-0.090	-0.540	0.450
2020/01/31 07:43:50.2	96.080	-0.050	-0.600	0.400
2020/01/31 07:43:50.3	96.100	-0.010	-0.660	0.350
2020/01/31 07:43:50.4	96.120	0.030	-0.710	0.300
2020/01/31 07:43:50.5	96.130	0.070	-0.770	0.260
2020/01/31 07:43:50.6	96.140	0.120	-0.830	0.220
2020/01/31 07:43:50.7	96.150	0.160	-0.880	0.190
2020/01/31 07:43:50.8	96.160	0.200	-0.930	0.160
2020/01/31 07:43:50.9	96.160	0.240	-0.980	0.140
2020/01/31 07:43:51.0	96.150	0.290	-1.020	0.120
2020/01/31 07:43:51.1	96.150	0.330	-1.050	0.110
2020/01/31 07:43:51.2	96.140	0.360	-1.080	0.100
2020/01/31 07:43:51.3	96.120	0.400	-1.110	0.090
2020/01/31 07:43:51.4	96.110	0.430	-1.120	0.090
2020/01/31 07:43:51.5	96.090	0.470	-1.130	0.090
2020/01/31 07:43:51.6	96.060	0.490	-1.120	0.100
2020/01/31 07:43:51.7	96.030	0.520	-1.110	0.110
2020/01/31 07:43:51.8	96.010	0.540	-1.090	0.120
2020/01/31 07:43:51.9	95.970	0.550	-1.060	0.140
2020/01/31 07:43:52.0	95.940	0.560	-1.020	0.160
2020/01/31 07:43:52.1	95.900	0.570	-0.970	0.180
2020/01/31 07:43:52.2	95.870	0.570	-0.910	0.200
2020/01/31 07:43:52.3	95.820	0.570	-0.840	0.220
2020/01/31 07:43:52.4	95.780	0.560	-0.770	0.250
2020/01/31 07:43:52.5	95.740	0.550	-0.690	0.270
2020/01/31 07:43:52.6	95.700	0.540	-0.600	0.300
2020/01/31 07:43:52.7	95.660	0.520	-0.510	0.330
2020/01/31 07:43:52.8	95.620	0.490	-0.410	0.360
2020/01/31 07:43:52.9	95.580	0.470	-0.320	0.390
2020/01/31 07:43:53.0	95.540	0.440	-0.220	0.410
2020/01/31 07:43:53.1	95.500	0.400	-0.110	0.440
2020/01/31 07:43:53.2	95.460	0.370	-0.010	0.470
2020/01/31 07:43:53.3	95.440	0.330	0.090	0.500
2020/01/31 07:43:53.4	95.400	0.290	0.190	0.520
2020/01/31 07:43:53.5	95.370	0.250	0.290	0.550
2020/01/31 07:43:53.6	95.340	0.210	0.380	0.570
2020/01/31 07:43:53.7	95.300	0.170	0.470	0.590
2020/01/31 07:43:53.8	95.280	0.120	0.550	0.610
2020/01/31 07:43:53.9	95.250	0.080	0.630	0.630
2020/01/31 07:43:54.0	95.220	0.040	0.690	0.640
2020/01/31 07:43:54.1	95.200	0.010	0.750	0.660
2020/01/31 07:43:54.2	95.180	-0.030	0.810	0.670
2020/01/31 07:43:54.3	95.140	-0.060	0.850	0.680
2020/01/31 07:43:54.4	95.120	-0.090	0.880	0.690
2020/01/31 07:43:54.5	95.110	-0.120	0.910	0.690
2020/01/31 07:43:54.6	95.100	-0.150	0.920	0.690
2020/01/31 07:43:54.7	95.090	-0.170	0.920	0.690
2020/01/31 07:43:54.8	95.080	-0.190	0.920	0.690
2020/01/31 07:43:54.9	95.070	-0.200	0.900	0.680
2020/01/31 07:43:55.0	95.070	-0.210	0.870	0.670
2020/01/31 07:43:55.1	95.070	-0.210	0.840	0.660
2020/01/31 07:43:55.2	95.070	-0.220	0.790	0.640
2020/01/31 07:43:55.3	95.070	-0.210	0.740	0.620
2020/01/31 07:43:55.4	95.070	-0.210	0.680	0.610
2020/01/31 07:43:55.5	95.080	-0.200	0.620	0.590
2020/01/31 07:43:55.6	95.090	-0.190	0.550	0.570
2020/01/31 07:43:55.7	95.110	-0.170	0.470	0.550
2020/01/31 07:43:55.8	95.120	-0.150	0.390	0.530
2020/01/31 07:43:55.9	95.130	-0.140	0.310	0.510
2020/01/31 07:43:56.0	95.140	-0.110	0.220	0.500
2020/01/31 07:43:56.1	95.160	-0.090	0.140	0.480
2020/01/31 07:43:56.2	95.170	-0.070	0.050	0.470
2020/01/31 07:43:56.3	95.190	-0.040	-0.040	0.460
2020/01/31 07:43:56.4	95.200	-0.010	-0.130	0.450
2020/01/31 07:43:56.5	95.210	0.010	-0.210	0.440
2020/01/31 07:43:56.6	95.220	0.040	-0.290	0.440
2020/01/31 07:43:56.7	95.230	0.060	-0.370	0.440
2020/01/31 07:43:56.8	95.240	0.090	-0.450	0.440
2020/01/31 07:43:56.9	95.250	0.110	-0.510	0.440
2020/01/31 07:43:57.0	95.260	0.130	-0.580	0.450
2020/01/31 07:43:57.1	95.260	0.150	-0.640	0.450
2020/01/31 07:43:57.2	95.270	0.160	-0.690	0.460
2020/01/31 07:43:57.3	95.280	0.180	-0.740	0.480
2020/01/31 07:43:57.4	95.280	0.190	-0.770	0.490
2020/01/31 07:43:57.5	95.290	0.200	-0.810	0.510
2020/01/31 07:43:57.6	95.290	0.200	-0.830	0.530
2020/01/31 07:43:57.7	95.300	0.210	-0.850	0.560
2020/01/31 07:43:57.8	95.300	0.210	-0.860	0.590
2020/01/31 07:43:57.9	95.310	0.210	-0.860	0.620
2020/01/31 07:43:58.0	95.310	0.200	-0.860	0.650
2020/01/31 07:43:58.1	95.320	0.190	-0.850	0.680
2020/01/31 07:43:58.2	95.330	0.180	-0.830	0.720
2020/01/31 07:43:58.3	95.350	0.170	-0.800	0.760
2020/01/31 07:43:58.4	95.350	0.160	-0.770	0.810
2020/01/31 07:43:58.5	95.360	0.140	-0.740	0.850
2020/01/31 07:43:58.6	95.370	0.120	-0.700	0.900
2020/01/31 07:43:58.7	95.380	0.110	-0.660	0.940
2020/01/31 07:43:58.8	95.390	0.090	-0.610	0.990
2020/01/31 07:43:58.9	95.400	0.070	-0.560	1.040
2020/01/31 07:43:59.0	95.410	0.050	-0.500	1.100
2020/01/31 07:43:59.1	95.420	0.030	-0.450	1.150
2020/01/31 07:43:59.2	95.430	0.010	-0.390	1.200
2020/01/31 07:43:59.3	95.430	-0.010	-0.330	1.260
2020/01/31 07:43:59.4	95.440	-0.020	-0.270	1.310
2020/01/31 07:43:59.5	95.450	-0.040	-0.210	1.360
2020/01/31 07:43:59.6	95.460	-0.050	-0.150	1.420
2020/01/31 07:43:59.7	95.480	-0.070	-0.100	1.470
2020/01/31 07:43:59.8	95.490	-0.080	-0.040	1.520
2020/01/31 07:43:59.9	95.500	-0.090	0.010	1.570
2020/01/31 07:44:00.0	95.520	-0.100	0.060	1.620
2020/01/31 07:44:00.1	95.530	-0.110	0.110	1.670
2020/01/31 07:44:00.2	95.540	-0.110	0.150	1.720
2020/01/31 07:44:00.3	95.560	-0.120	0.190	1.760
2020/01/31 07:44:00.4	95.580	-0.120	0.230	1.810
2020/01/31 07:44:00.5	95.590	-0.120	0.260	1.850
2020/01/31 07:44:00.6	95.600	-0.130	0.290	1.890
2020/01/31 07:44:00.7	95.610	-0.130	0.310	1.920
2020/01/31 07:44:00.8	95.630	-0.130	0.330	1.950
2020/01/31 07:44:00.9	95.640	-0.130	0.340	1.980
2020/01/31 07:44:01.0	95.650	-0.130	0.350	2.000
2020/01/31 07:44:01.1	95.660	-0.130	0.360	2.020
2020/01/31 07:44:01.2	95.680	-0.120	0.360	2.040
2020/01/31 07:44:01.3	95.690	-0.120	0.350	2.050
2020/01/31 07:44:01.4	95.700	-0.120	0.350	2.060
2020/01/31 07:44:01.5	95.710	-0.120	0.330	2.070
2020/01/31 07:44:01.6	95.720	-0.110	0.310	2.070
2020/01/31 07:44:01.7	95.730	-0.110	0.290	2.080
2020/01/31 07:44:01.8	95.740	-0.110	0.260	2.080
2020/01/31 07:44:01.9	95.750	-0.100	0.230	2.070
2020/01/31 07:44:02.0	95.750	-0.100	0.200	2.070
2020/01/31 07:44:02.1	95.760	-0.100	0.160	2.060
2020/01/31 07:44:02.2	95.760	-0.090	0.120	2.050
2020/01/31 07:44:02.3	95.770	-0.090	0.070	2.040
2020/01/31 07:44:02.4	95.770	-0.080	0.020	2.020
2020/01/31 07:44:02.5	95.770	-0.080	-0.020	2.010
2020/01/31 07:44:02.6	95.770	-0.070	-0.070	1.990
2020/01/31 07:44:02.7	95.760	-0.070	-0.120	1.970
2020/01/31 07:44:02.8	95.760	-0.060	-0.180	1.950
2020/01/31 07:44:02.9	95.760	-0.060	-0.230	1.930
2020/01/31 07:44:03.0	95.750	-0.050	-0.280	1.900
2020/01/31 07:44:03.1	95.750	-0.040	-0.330	1.880
2020/01/31 07:44:03.2	95.750	-0.040	-0.380	1.850
2020/01/31 07:44:03.3	95.750	-0.030	-0.420	1.820
2020/01/31 07:44:03.4	95.740	-0.030	-0.470	1.780
2020/01/31 07:44:03.5	95.740	-0.020	-0.510	1.750
2020/01/31 07:44:03.6	95.740	-0.010	-0.550	1.720
2020/01/31 07:44:03.7	95.730	-0.010	-0.590	1.680
2020/01/31 07:44:03.8	95.730	-0.000	-0.620	1.640
2020/01/31 07:44:03.9	95.730	0.000	-0.650	1.600
2020/01/31 07:44:04.0	95.730	0.010	-0.670	1.560
2020/01/31 07:44:04.1	95.730	0.010	-0.690	1.520
2020/01/31 07:44:04.2	95.730	0.020	-0.710	1.470
2020/01/31 07:44:04.3	95.720	0.020	-0.720	1.430
2020/01/31 07:44:04.4	95.730	0.020	-0.720	1.380
2020/01/31 07:44:04.5	95.730	0.030	-0.720	1.330
2020/01/31 07:44:04.6	95.730	0.030	-0.720	1.280
2020/01/31 07:44:04.7	95.730	0.030	-0.710	1.220
2020/01/31 07:44:04.8	95.730	0.030	-0.690	1.170
2020/01/31 07:44:04.9	95.730	0.030	-0.670	1.110
2020/01/31 07:44:05.0	95.740	0.030	-0.650	1.050
2020/01/31 07:44:05.1	95.740	0.030	-0.620	0.990
2020/01/31 07:44:05.2	95.750	0.030	-0.590	0.930
2020/01/31 07:44:05.3	95.740	0.030	-0.550	0.860
2020/01/31 07:44:05.4	95.740	0.030	-0.510	0.800
2020/01/31 07:44:05.5	95.750	0.030	-0.470	0.730
2020/01/31 07:44:05.6	95.750	0.030	-0.430	0.660
2020/01/31 07:44:05.7	95.750	0.020	-0.390	0.590
2020/01/31 07:44:05.8	95.760	0.020	-0.340	0.520
2020/01/31 07:44:05.9	95.770	0.020	-0.300	0.450
2020/01/31 07:44:06.0	95.770	0.020	-0.250	0.380
2020/01/31 07:44:06.1	95.780	0.010	-0.210	0.310
2020/01/31 07:44:06.2	95.780	0.010	-0.160	0.240
2020/01/31 07:44:06.3	95.790	0.010	-0.130	0.170
2020/01/31 07:44:06.4	95.790	0.010	-0.090	0.100
2020/01/31 07:44:06.5	95.800	0.010	-0.050	0.040
2020/01/31 07:44:06.6	95.800	0.010	-0.020	-0.020
2020/01/31 07:44:06.7	95.810	0.010	0.010	-0.080
2020/01/31 07:44:06.8	95.810	0.010	0.040	-0.140
2020/01/31 07:44:06.9	95.820	0.020	0.060	-0.190
2020/01/31 07:44:07.0	95.820	0.020	0.080	-0.240
2020/01/31 07:44:07.1	95.830	0.020	0.090	-0.280
2020/01/31 07:44:07.2	95.830	0.030	0.100	-0.330
2020/01/31 07:44:07.3	95.840	0.030	0.110	-0.360
2020/01/31 07:44:07.4	95.850	0.040	0.120	-0.390
2020/01/31 07:44:07.5	95.850	0.040	0.120	-0.420
2020/01/31 07:44:07.6	95.860	0.050	0.120	-0.450
2020/01/31 07:44:07.7	95.860	0.050	0.110	-0.470
2020/01/31 07:44:07.8	95.860	0.060	0.110	-0.480
2020/01/31 07:44:07.9	95.870	0.060	0.100	-0.500
2020/01/31 07:44:08.0	95.870	0.070	0.090	-0.500
2020/01/31 07:44:08.1	95.870	0.070	0.080	-0.510
2020/01/31 07:44:08.2	95.880	0.080	0.070	-0.510
2020/01/31 07:44:08.3	95.890	0.080	0.050	-0.510
2020/01/31 07:44:08.4	95.890	0.080	0.040	-0.510
2020/01/31 07:44:08.5	95.890	0.090	0.020	-0.510
2020/01/31 07:44:08.6	95.890	0.090	0.010	-0.500
2020/01/31 07:44:08.7	95.890	0.080	-0.010	-0.490
2020/01/31 07:44:08.8	95.890	0.080	-0.020	-0.470
2020/01/31 07:44:08.9	95.880	0.080	-0.040	-0.460
2020/01/31 07:44:09.0	95.880	0.080	-0.050	-0.440
2020/01/31 07:44:09.1	95.880	0.070	-0.060	-0.420
2020/01/31 07:44:09.2	95.880	0.060	-0.070	-0.400
2020/01/31 07:44:09.3	95.880	0.060	-0.090	-0.380
2020/01/31 07:44:09.4	95.870	0.050	-0.100	-0.350
2020/01/31 07:44:09.5	95.870	0.030	-0.100	-0.320
2020/01/31 07:44:09.6	95.870	0.020	-0.110	-0.290
2020/01/31 07:44:09.7	95.860	0.010	-0.120	-0.260
2020/01/31 07:44:09.8	95.860	-0.000	-0.130	-0.230
2020/01/31 07:44:09.9	95.860	-0.020	-0.130	-0.200
2020/01/31 07:44:10.0	95.850	-0.040	-0.130	-0.160
2020/01/31 07:44:10.1	95.850	-0.050	-0.140	-0.130
2020/01/31 07:44:10.2	95.850	-0.070	-0.140	-0.090
2020/01/31 07:44:10.3	95.850	-0.090	-0.140	-0.050
2020/01/31 07:44:10.4	95.850	-0.110	-0.140	-0.020
2020/01/31 07:44:10.5	95.840	-0.120	-0.140	0.020
2020/01/31 07:44:10.6	95.840	-0.140	-0.140	0.060
2020/01/31 07:44:10.7	95.840	-0.160	-0.140	0.090
2020/01/31 07:44:10.8	95.840	-0.180	-0.130	0.130
2020/01/31 07:44:10.9	95.840	-0.200	-0.130	0.160
2020/01/31 07:44:11.0	95.840	-0.210	-0.120	0.200
2020/01/31 07:44:11.1	95.840	-0.230	-0.120	0.240
2020/01/31 07:44:11.2	95.840	-0.250	-0.110	0.270
2020/01/31 07:44:11.3	95.850	-0.260	-0.110	0.310
2020/01/31 07:44:11.4	95.850	-0.270	-0.100	0.340
2020/01/31 07:44:11.5	95.850	-0.280	-0.090	0.380
2020/01/31 07:44:11.6	95.850	-0.300	-0.090	0.410
2020/01/31 07:44:11.7	95.850	-0.300	-0.080	0.450
2020/01/31 07:44:11.8	95.850	-0.310	-0.070	0.490
2020/01/31 07:44:11.9	95.850	-0.320	-0.060	0.520
2020/01/31 07:44:12.0	95.850	-0.320	-0.060	0.560
2020/01/31 07:44:12.1	95.850	-0.320	-0.050	0.600
2020/01/31 07:44:12.2	95.840	-0.320	-0.040	0.640
2020/01/31 07:44:12.3	95.850	-0.320	-0.040	0.670
2020/01/31 07:44:12.4	95.840	-0.320	-0.030	0.710
2020/01/31 07:44:12.5	95.840	-0.310	-0.030	0.760
2020/01/31 07:44:12.6	95.830	-0.310	-0.030	0.800
2020/01/31 07:44:12.7	95.820	-0.300	-0.030	0.840
2020/01/31 07:44:12.8	95.810	-0.280	-0.030	0.890
2020/01/31 07:44:12.9	95.800	-0.270	-0.030	0.930
2020/01/31 07:44:13.0	95.790	-0.260	-0.030	0.980
2020/01/31 07:44:13.1	95.780	-0.240	-0.040	1.020
2020/01/31 07:44:13.2	95.770	-0.220	-0.050	1.070
2020/01/31 07:44:13.3	95.750	-0.200	-0.050	1.120
2020/01/31 07:44:13.4	95.740	-0.180	-0.070	1.160
2020/01/31 07:44:13.5	95.720	-0.160	-0.080	1.200
2020/01/31 07:44:13.6	95.710	-0.130	-0.090	1.240
2020/01/31 07:44:13.7	95.690	-0.110	-0.110	1.280
2020/01/31 07:44:13.8	95.680	-0.080	-0.130	1.320
2020/01/31 07:44:13.9	95.660	-0.050	-0.140	1.360
2020/01/31 07:44:14.0	95.650	-0.020	-0.160	1.390
2020/01/31 07:44:14.1	95.630	0.000	-0.180	1.420
2020/01/31 07:44:14.2	95.620	0.030	-0.200	1.440
2020/01/31 07:44:14.3	95.600	0.060	-0.230	1.460
2020/01/31 07:44:14.4	95.580	0.090	-0.250	1.480
2020/01/31 07:44:14.5	95.570	0.120	-0.270	1.490
2020/01/31 07:44:14.6	95.560	0.140	-0.280	1.500
2020/01/31 07:44:14.7	95.550	0.170	-0.300	1.510
2020/01/31 07:44:14.8	95.550	0.190	-0.320	1.510
2020/01/31 07:44:14.9	95.540	0.220	-0.330	1.510
2020/01/31 07:44:15.0	95.530	0.240	-0.350	1.500
2020/01/31 07:44:15.1	95.520	0.260	-0.360	1.490
2020/01/31 07:44:15.2	95.520	0.290	-0.370	1.480
2020/01/31 07:44:15.3	95.510	0.300	-0.380	1.460
2020/01/31 07:44:15.4	95.500	0.320	-0.390	1.440
2020/01/31 07:44:15.5	95.500	0.340	-0.400	1.420
2020/01/31 07:44:15.6	95.490	0.350	-0.400	1.400
2020/01/31 07:44:15.7	95.490	0.360	-0.410	1.380
2020/01/31 07:44:15.8	95.480	0.370	-0.410	1.360
2020/01/31 07:44:15.9	95.480	0.380	-0.410	1.340
2020/01/31 07:44:16.0	95.470	0.390	-0.410	1.320
2020/01/31 07:44:16.1	95.470	0.400	-0.410	1.310
2020/01/31 07:44:16.2	95.460	0.400	-0.400	1.290
2020/01/31 07:44:16.3	95.460	0.400	-0.400	1.270
2020/01/31 07:44:16.4	95.450	0.400	-0.400	1.260
2020/01/31 07:44:16.5	95.430	0.400	-0.390	1.260
2020/01/31 07:44:16.6	95.420	0.390	-0.390	1.250
2020/01/31 07:44:16.7	95.410	0.390	-0.380	1.250
2020/01/31 07:44:16.8	95.400	0.380	-0.370	1.240
2020/01/31 07:44:16.9	95.380	0.370	-0.370	1.240
2020/01/31 07:44:17.0	95.370	0.360	-0.360	1.250
2020/01/31 07:44:17.1	95.360	0.350	-0.350	1.250
2020/01/31 07:44:17.2	95.350	0.340	-0.350	1.250
2020/01/31 07:44:17.3	95.340	0.330	-0.340	1.260
2020/01/31 07:44:17.4	95.330	0.310	-0.330	1.260
2020/01/31 07:44:17.5	95.320	0.300	-0.320	1.260
2020/01/31 07:44:17.6	95.310	0.280	-0.320	1.270
2020/01/31 07:44:17.7	95.300	0.270	-0.310	1.270
2020/01/31 07:44:17.8	95.300	0.250	-0.310	1.270
2020/01/31 07:44:17.9	95.290	0.230	-0.300	1.270
2020/01/31 07:44:18.0	95.290	0.220	-0.300	1.270
2020/01/31 07:44:18.1	95.290	0.200	-0.290	1.270
2020/01/31 07:44:18.2	95.290	0.180	-0.290	1.260
2020/01/31 07:44:18.3	95.280	0.170	-0.290	1.250
2020/01/31 07:44:18.4	95.280	0.150	-0.280	1.240
2020/01/31 07:44:18.5	95.290	0.130	-0.280	1.230
2020/01/31 07:44:18.6	95.290	0.120	-0.280	1.210
2020/01/31 07:44:18.7	95.290	0.110	-0.280	1.200
2020/01/31 07:44:18.8	95.290	0.090	-0.280	1.180
2020/01/31 07:44:18.9	95.290	0.080	-0.290	1.160
2020/01/31 07:44:19.0	95.300	0.070	-0.290	1.140
2020/01/31 07:44:19.1	95.300	0.060	-0.290	1.120
2020/01/31 07:44:19.2	95.310	0.050	-0.300	1.100
2020/01/31 07:44:19.3	95.320	0.050	-0.300	1.080
2020/01/31 07:44:19.4	95.320	0.040	-0.310	1.060
2020/01/31 07:44:19.5	95.330	0.030	-0.310	1.040
2020/01/31 07:44:19.6	95.340	0.030	-0.310	1.030
2020/01/31 07:44:19.7	95.340	0.030	-0.310	1.010
2020/01/31 07:44:19.8	95.350	0.020	-0.320	1.000
2020/01/31 07:44:19.9	95.350	0.020	-0.310	0.990
2020/01/31 07:44:20.0	95.360	0.020	-0.310	0.990
2020/01/31 07:44:20.1	95.360	0.010	-0.300	0.980
2020/01/31 07:44:20.2	95.370	0.010	-0.290	0.990
2020/01/31 07:44:20.3	95.380	0.000	-0.280	0.990
2020/01/31 07:44:20.4	95.380	-0.000	-0.270	1.000
2020/01/31 07:44:20.5	95.380	-0.010	-0.250	1.010
2020/01/31 07:44:20.6	95.380	-0.010	-0.220	1.020
2020/01/31 07:44:20.7	95.380	-0.020	-0.190	1.030
2020/01/31 07:44:20.8	95.370	-0.030	-0.160	1.050
2020/01/31 07:44:20.9	95.370	-0.050	-0.120	1.070
2020/01/31 07:44:21.0	95.360	-0.060	-0.080	1.090
2020/01/31 07:44:21.1	95.360	-0.080	-0.030	1.120
2020/01/31 07:44:21.2	95.350	-0.090	0.020	1.140
2020/01/31 07:44:21.3	95.330	-0.110	0.080	1.160
2020/01/31 07:44:21.4	95.330	-0.140	0.130	1.180
2020/01/31 07:44:21.5	95.320	-0.160	0.190	1.200
2020/01/31 07:44:21.6	95.310	-0.190	0.260	1.220
2020/01/31 07:44:21.7	95.310	-0.220	0.320	1.240
2020/01/31 07:44:21.8	95.300	-0.250	0.380	1.260
2020/01/31 07:44:21.9	95.300	-0.280	0.450	1.270
2020/01/31 07:44:22.0	95.300	-0.320	0.510	1.280
2020/01/31 07:44:22.1	95.300	-0.350	0.570	1.290
2020/01/31 07:44:22.2	95.300	-0.390	0.630	1.290
2020/01/31 07:44:22.3	95.310	-0.420	0.680	1.290
2020/01/31 07:44:22.4	95.320	-0.460	0.730	1.280
2020/01/31 07:44:22.5	95.330	-0.500	0.770	1.280
2020/01/31 07:44:22.6	95.340	-0.530	0.810	1.260
2020/01/31 07:44:22.7	95.360	-0.570	0.830	1.250
2020/01/31 07:44:22.8	95.380	-0.600	0.850	1.230
2020/01/31 07:44:22.9	95.410	-0.630	0.860	1.200
2020/01/31 07:44:23.0	95.430	-0.660	0.870	1.170
2020/01/31 07:44:23.1	95.460	-0.680	0.860	1.140
2020/01/31 07:44:23.2	95.490	-0.700	0.840	1.110
2020/01/31 07:44:23.3	95.510	-0.720	0.810	1.070
2020/01/31 07:44:23.4	95.550	-0.730	0.770	1.030
2020/01/31 07:44:23.5	95.580	-0.740	0.720	0.990
2020/01/31 07:44:23.6	95.620	-0.740	0.650	0.950
2020/01/31 07:44:23.7	95.650	-0.730	0.580	0.900
2020/01/31 07:44:23.8	95.690	-0.720	0.500	0.860
2020/01/31 07:44:23.9	95.720	-0.700	0.410	0.820
2020/01/31 07:44:24.0	95.760	-0.680	0.310	0.780
2020/01/31 07:44:24.1	95.790	-0.650	0.200	0.740
2020/01/31 07:44:24.2	95.830	-0.610	0.080	0.710
2020/01/31 07:44:24.3	95.850	-0.570	-0.040	0.670
2020/01/31 07:44:24.4	95.880	-0.530	-0.160	0.640
2020/01/31 07:44:24.5	95.920	-0.470	-0.290	0.600
2020/01/31 07:44:24.6	95.940	-0.420	-0.420	0.570
2020/01/31 07:44:24.7	95.970	-0.350	-0.550	0.540
2020/01/31 07:44:24.8	96.000	-0.290	-0.670	0.520
2020/01/31 07:44:24.9	96.030	-0.220	-0.800	0.490
2020/01/31 07:44:25.0	96.050	-0.150	-0.910	0.470
2020/01/31 07:44:25.1	96.080	-0.080	-1.030	0.450
2020/01/31 07:44:25.2	96.100	-0.000	-1.130	0.430
2020/01/31 07:44:25.3	96.140	0.070	-1.230	0.410
2020/01/31 07:44:25.4	96.160	0.150	-1.320	0.400
2020/01/31 07:44:25.5	96.180	0.220	-1.390	0.390
2020/01/31 07:44:25.6	96.190	0.290	-1.450	0.380
2020/01/31 07:44:25.7	96.210	0.350	-1.500	0.370
2020/01/31 07:44:25.8	96.220	0.420	-1.540	0.370
2020/01/31 07:44:25.9	96.230	0.480	-1.560	0.370
2020/01/31 07:44:26.0	96.240	0.530	-1.570	0.380
2020/01/31 07:44:26.1	96.240	0.580	-1.570	0.380
2020/01/31 07:44:26.2	96.240	0.620	-1.550	0.390
2020/01/31 07:44:26.3	96.250	0.660	-1.510	0.410
2020/01/31 07:44:26.4	96.240	0.680	-1.470	0.420
2020/01/31 07:44:26.5	96.240	0.710	-1.410	0.440
2020/01/31 07:44:26.6	96.230	0.720	-1.340	0.460
2020/01/31 07:44:26.7	96.220	0.730	-1.250	0.480
2020/01/31 07:44:26.8	96.200	0.730	-1.160	0.510
2020/01/31 07:44:26.9	96.190	0.720	-1.060	0.530
2020/01/31 07:44:27.0	96.170	0.710	-0.950	0.550
2020/01/31 07:44:27.1	96.150	0.690	-0.840	0.580
2020/01/31 07:44:27.2	96.130	0.660	-0.720	0.610
2020/01/31 07:44:27.3	96.100	0.620	-0.590	0.630
2020/01/31 07:44:27.4	96.080	0.580	-0.470	0.660
2020/01/31 07:44:27.5	96.050	0.540	-0.340	0.680
2020/01/31 07:44:27.6	96.030	0.490	-0.220	0.710
2020/01/31 07:44:27.7	96.000	0.440	-0.090	0.730
2020/01/31 07:44:27.8	95.980	0.380	0.030	0.760
2020/01/31 07:44:27.9	95.950	0.320	0.140	0.780
2020/01/31 07:44:28.0	95.930	0.260	0.250	0.800
2020/01/31 07:44:28.1	95.910	0.200	0.350	0.810
2020/01/31 07:44:28.2	95.880	0.130	0.450	0.830
2020/01/31 07:44:28.3	95.860	0.070	0.540	0.830
2020/01/31 07:44:28.4	95.840	0.010	0.610	0.840
2020/01/31 07:44:28.5	95.820	-0.050	0.680	0.840
2020/01/31 07:44:28.6	95.810	-0.110	0.740	0.840
2020/01/31 07:44:28.7	95.800	-0.160	0.780	0.840
2020/01/31 07:44:28.8	95.790	-0.210	0.810	0.830
2020/01/31 07:44:28.9	95.780	-0.260	0.830	0.820
2020/01/31 07:44:29.0	95.780	-0.300	0.840	0.800
2020/01/31 07:44:29.1	95.770	-0.340	0.840	0.780
2020/01/31 07:44:29.2	95.770	-0.370	0.830	0.760
2020/01/31 07:44:29.3	95.770	-0.390	0.810	0.740
2020/01/31 07:44:29.4	95.770	-0.410	0.770	0.710
2020/01/31 07:44:29.5	95.770	-0.430	0.730	0.680
2020/01/31 07:44:29.6	95.780	-0.440	0.680	0.650
2020/01/31 07:44:29.7	95.790	-0.440	0.620	0.620
2020/01/31 07:44:29.8	95.800	-0.440	0.560	0.590
2020/01/31 07:44:29.9	95.810	-0.430	0.480	0.560
2020/01/31 07:44:30.0	95.820	-0.420	0.410	0.520
2020/01/31 07:44:30.1	95.840	-0.400	0.330	0.480
2020/01/31 07:44:30.2	95.850	-0.370	0.240	0.450
2020/01/31 07:44:30.3	95.870	-0.350	0.150	0.410
2020/01/31 07:44:30.4	95.880	-0.310	0.060	0.370
2020/01/31 07:44:30.5	95.900	-0.280	-0.020	0.340
2020/01/31 07:44:30.6	95.910	-0.240	-0.110	0.300
2020/01/31 07:44:30.7	95.920	-0.200	-0.200	0.270
2020/01/31 07:44:30.8	95.930	-0.160	-0.280	0.240
2020/01/31 07:44:30.9	95.940	-0.110	-0.370	0.210
2020/01/31 07:44:31.0	95.950	-0.070	-0.440	0.180
2020/01/31 07:44:31.1	95.960	-0.020	-0.520	0.150
2020/01/31 07:44:31.2	95.970	0.020	-0.580	0.130
2020/01/31 07:44:31.3	95.980	0.060	-0.650	0.110
2020/01/31 07:44:31.4	95.980	0.110	-0.700	0.090
2020/01/31 07:44:31.5	95.980	0.150	-0.750	0.070
2020/01/31 07:44:31.6	95.980	0.190	-0.790	0.060
2020/01/31 07:44:31.7	95.970	0.220	-0.830	0.050
2020/01/31 07:44:31.8	95.970	0.260	-0.850	0.040
2020/01/31 07:44:31.9	95.960	0.290	-0.860	0.030
2020/01/31 07:44:32.0	95.950	0.310	-0.870	0.020
2020/01/31 07:44:32.1	95.950	0.340	-0.870	0.020
2020/01/31 07:44:32.2	95.940	0.360	-0.860	0.030
2020/01/31 07:44:32.3	95.930	0.370	-0.840	0.030
2020/01/31 07:44:32.4	95.920	0.380	-0.820	0.040
2020/01/31 07:44:32.5	95.910	0.390	-0.780	0.050
2020/01/31 07:44:32.6	95.900	0.390	-0.740	0.060
2020/01/31 07:44:32.7	95.890	0.390	-0.690	0.080
2020/01/31 07:44:32.8	95.880	0.390	-0.640	0.100
2020/01/31 07:44:32.9	95.870	0.380	-0.580	0.120
2020/01/31 07:44:33.0	95.850	0.370	-0.510	0.150
2020/01/31 07:44:33.1	95.840	0.350	-0.440	0.170
2020/01/31 07:44:33.2	95.830	0.330	-0.370	0.210
2020/01/31 07:44:33.3	95.830	0.310	-0.290	0.240
2020/01/31 07:44:33.4	95.820	0.290	-0.210	0.280
2020/01/31 07:44:33.5	95.810	0.260	-0.140	0.320
2020/01/31 07:44:33.6	95.800	0.240	-0.060	0.360
2020/01/31 07:44:33.7	95.790	0.210	0.010	0.400
2020/01/31 07:44:33.8	95.770	0.180	0.090	0.440
2020/01/31 07:44:33.9	95.760	0.140	0.160	0.490
2020/01/31 07:44:34.0	95.750	0.110	0.230	0.530
2020/01/31 07:44:34.1	95.740	0.080	0.290	0.580
2020/01/31 07:44:34.2	95.730	0.050	0.350	0.620
2020/01/31 07:44:34.3	95.710	0.010	0.400	0.660
2020/01/31 07:44:34.4	95.700	-0.020	0.440	0.700
2020/01/31 07:44:34.5	95.690	-0.050	0.480	0.740
2020/01/31 07:44:34.6	95.680	-0.080	0.510	0.780
2020/01/31 07:44:34.7	95.670	-0.110	0.540	0.820
2020/01/31 07:44:34.8	95.660	-0.140	0.550	0.850
2020/01/31 07:44:34.9	95.660	-0.170	0.560	0.880
2020/01/31 07:44:35.0	95.650	-0.190	0.560	0.900
2020/01/31 07:44:35.1	95.650	-0.210	0.550	0.920
2020/01/31 07:44:35.2	95.650	-0.230	0.540	0.940
2020/01/31 07:44:35.3	95.630	-0.250	0.520	0.960
2020/01/31 07:44:35.4	95.630	-0.270	0.490	0.970
2020/01/31 07:44:35.5	95.620	-0.280	0.450	0.980
2020/01/31 07:44:35.6	95.620	-0.300	0.420	0.990
2020/01/31 07:44:35.7	95.630	-0.310	0.370	1.000
2020/01/31 07:44:35.8	95.630	-0.320	0.320	1.010
2020/01/31 07:44:35.9	95.630	-0.320	0.270	1.010
2020/01/31 07:44:36.0	95.630	-0.330	0.220	1.010
2020/01/31 07:44:36.1	95.640	-0.330	0.160	1.010
2020/01/31 07:44:36.2	95.640	-0.330	0.110	1.010
2020/01/31 07:44:36.3	95.640	-0.330	0.040	1.010
2020/01/31 07:44:36.4	95.640	-0.330	-0.010	1.010
2020/01/31 07:44:36.5	95.650	-0.330	-0.070	1.000
2020/01/31 07:44:36.6	95.660	-0.320	-0.130	1.000
2020/01/31 07:44:36.7	95.660	-0.310	-0.190	1.000
2020/01/31 07:44:36.8	95.670	-0.300	-0.250	1.000
2020/01/31 07:44:36.9	95.680	-0.290	-0.300	1.000
2020/01/31 07:44:37.0	95.690	-0.280	-0.350	1.000
2020/01/31 07:44:37.1	95.690	-0.260	-0.400	1.000
2020/01/31 07:44:37.2	95.700	-0.250	-0.450	1.000
2020/01/31 07:44:37.3	95.710	-0.230	-0.500	1.000
2020/01/31 07:44:37.4	95.720	-0.210	-0.540	1.000
2020/01/31 07:44:37.5	95.720	-0.190	-0.570	1.000
2020/01/31 07:44:37.6	95.720	-0.170	-0.600	1.010
2020/01/31 07:44:37.7	95.730	-0.150	-0.630	1.010
2020/01/31 07:44:37.8	95.730	-0.120	-0.660	1.020
2020/01/31 07:44:37.9	95.720	-0.100	-0.680	1.030
2020/01/31 07:44:38.0	95.720	-0.080	-0.690	1.040
2020/01/31 07:44:38.1	95.720	-0.060	-0.700	1.050
2020/01/31 07:44:38.2	95.710	-0.030	-0.700	1.060
2020/01/31 07:44:38.3	95.720	-0.010	-0.710	1.080
2020/01/31 07:44:38.4	95.710	0.010	-0.700	1.090
2020/01/31 07:44:38.5	95.700	0.030	-0.690	1.110
2020/01/31 07:44:38.6	95.690	0.050	-0.680	1.130
2020/01/31 07:44:38.7	95.670	0.060	-0.660	1.150
2020/01/31 07:44:38.8	95.660	0.080	-0.640	1.170
2020/01/31 07:44:38.9	95.640	0.090	-0.610	1.190
2020/01/31 07:44:39.0	95.620	0.100	-0.580	1.220
2020/01/31 07:44:39.1	95.600	0.110	-0.550	1.240
2020/01/31 07:44:39.2	95.580	0.110	-0.510	1.270
2020/01/31 07:44:39.3	95.550	0.110	-0.470	1.300
2020/01/31 07:44:39.4	95.530	0.110	-0.430	1.320
2020/01/31 07:44:39.5	95.510	0.110	-0.390	1.350
2020/01/31 07:44:39.6	95.480	0.100	-0.350	1.370
2020/01/31 07:44:39.7	95.450	0.100	-0.300	1.400
2020/01/31 07:44:39.8	95.430	0.090	-0.260	1.420
2020/01/31 07:44:39.9	95.400	0.070	-0.220	1.440
2020/01/31 07:44:40.0	95.370	0.060	-0.170	1.460
2020/01/31 07:44:40.1	95.350	0.040	-0.130	1.470
2020/01/31 07:44:40.2	95.320	0.030	-0.090	1.490
2020/01/31 07:44:40.3	95.290	0.010	-0.060	1.490
2020/01/31 07:44:40.4	95.270	-0.010	-0.020	1.500
2020/01/31 07:44:40.5	95.240	-0.030	0.010	1.500
2020/01/31 07:44:40.6	95.220	-0.050	0.040	1.490
2020/01/31 07:44:40.7	95.190	-0.070	0.070	1.480
2020/01/31 07:44:40.8	95.170	-0.090	0.090	1.460
2020/01/31 07:44:40.9	95.150	-0.100	0.110	1.440
2020/01/31 07:44:41.0	95.140	-0.120	0.130	1.420
2020/01/31 07:44:41.1	95.120	-0.140	0.140	1.380
2020/01/31 07:44:41.2	95.100	-0.150	0.150	1.350
2020/01/31 07:44:41.3	95.080	-0.160	0.150	1.300
2020/01/31 07:44:41.4	95.060	-0.170	0.150	1.260
2020/01/31 07:44:41.5	95.050	-0.180	0.150	1.210
2020/01/31 07:44:41.6	95.040	-0.180	0.140	1.160
2020/01/31 07:44:41.7	95.030	-0.180	0.130	1.100
2020/01/31 07:44:41.8	95.030	-0.180	0.120	1.040
2020/01/31 07:44:41.9	95.020	-0.170	0.100	0.980
2020/01/31 07:44:42.0	95.020	-0.170	0.080	0.920
2020/01/31 07:44:42.1	95.010	-0.150	0.050	0.850
2020/01/31 07:44:42.2	95.010	-0.140	0.030	0.780
2020/01/31 07:44:42.3	95.010	-0.120	-0.010	0.710
2020/01/31 07:44:42.4	95.010	-0.100	-0.040	0.640
2020/01/31 07:44:42.5	95.010	-0.080	-0.080	0.570
2020/01/31 07:44:42.6	95.010	-0.050	-0.110	0.510
2020/01/31 07:44:42.7	95.010	-0.020	-0.150	0.440
2020/01/31 07:44:42.8	95.010	0.010	-0.200	0.370
2020/01/31 07:44:42.9	95.010	0.050	-0.240	0.310
2020/01/31 07:44:43.0	95.010	0.080	-0.280	0.240
2020/01/31 07:44:43.1	95.010	0.120	-0.320	0.180
2020/01/31 07:44:43.2	95.010	0.160	-0.370	0.130
2020/01/31 07:44:43.3	95.020	0.200	-0.410	0.080
2020/01/31 07:44:43.4	95.020	0.240	-0.450	0.030
2020/01/31 07:44:43.5	95.010	0.280	-0.490	-0.020
2020/01/31 07:44:43.6	95.010	0.320	-0.520	-0.060
2020/01/31 07:44:43.7	95.000	0.350	-0.560	-0.090
2020/01/31 07:44:43.8	94.990	0.390	-0.590	-0.120
2020/01/31 07:44:43.9	94.980	0.420	-0.610	-0.150
2020/01/31 07:44:44.0	94.970	0.460	-0.630	-0.170
2020/01/31 07:44:44.1	94.950	0.490	-0.650	-0.180
2020/01/31 07:44:44.2	94.940	0.510	-0.660	-0.190
2020/01/31 07:44:44.3	94.940	0.540	-0.670	-0.200
2020/01/31 07:44:44.4	94.920	0.560	-0.680	-0.210
2020/01/31 07:44:44.5	94.910	0.580	-0.670	-0.210
2020/01/31 07:44:44.6	94.890	0.590	-0.670	-0.210
2020/01/31 07:44:44.7	94.880	0.600	-0.650	-0.210
2020/01/31 07:44:44.8	94.870	0.600	-0.640	-0.210
2020/01/31 07:44:44.9	94.850	0.600	-0.610	-0.200
2020/01/31 07:44:45.0	94.840	0.600	-0.580	-0.200
2020/01/31 07:44:45.1	94.830	0.590	-0.550	-0.190
2020/01/31 07:44:45.2	94.820	0.580	-0.510	-0.180
2020/01/31 07:44:45.3	94.830	0.560	-0.470	-0.170
2020/01/31 07:44:45.4	94.820	0.540	-0.420	-0.170
2020/01/31 07:44:45.5	94.820	0.520	-0.370	-0.160
2020/01/31 07:44:45.6	94.810	0.490	-0.320	-0.140
2020/01/31 07:44:45.7	94.810	0.460	-0.270	-0.130
2020/01/31 07:44:45.8	94.810	0.420	-0.210	-0.120
2020/01/31 07:44:45.9	94.810	0.380	-0.150	-0.100
2020/01/31 07:44:46.0	94.820	0.340	-0.090	-0.080
2020/01/31 07:44:46.1	94.820	0.300	-0.030	-0.060
2020/01/31 07:44:46.2	94.820	0.250	0.030	-0.040
2020/01/31 07:44:46.3	94.830	0.200	0.090	-0.020
2020/01/31 07:44:46.4	94.830	0.160	0.140	0.010
2020/01/31 07:44:46.5	94.830	0.110	0.200	0.040
2020/01/31 07:44:46.6	94.840	0.060	0.250	0.070
2020/01/31 07:44:46.7	94.840	0.010	0.290	0.100
2020/01/31 07:44:46.8	94.840	-0.040	0.340	0.140
2020/01/31 07:44:46.9	94.840	-0.090	0.370	0.180
2020/01/31 07:44:47.0	94.840	-0.130	0.410	0.220
2020/01/31 07:44:47.1	94.840	-0.180	0.440	0.270
2020/01/31 07:44:47.2	94.830	-0.220	0.460	0.320
2020/01/31 07:44:47.3	94.820	-0.260	0.470	0.370
2020/01/31 07:44:47.4	94.810	-0.300	0.490	0.420
2020/01/31 07:44:47.5	94.800	-0.340	0.500	0.470
2020/01/31 07:44:47.6	94.790	-0.370	0.500	0.530
2020/01/31 07:44:47.7	94.780	-0.410	0.500	0.590
2020/01/31 07:44:47.8	94.760	-0.430	0.490	0.640
2020/01/31 07:44:47.9	94.740	-0.460	0.480	0.700
2020/01/31 07:44:48.0	94.720	-0.490	0.470	0.760
2020/01/31 07:44:48.1	94.700	-0.510	0.450	0.810
2020/01/31 07:44:48.2	94.680	-0.530	0.430	0.870
2020/01/31 07:44:48.3	94.640	-0.540	0.410	0.920
2020/01/31 07:44:48.4	94.620	-0.560	0.380	0.970
2020/01/31 07:44:48.5	94.590	-0.570	0.360	1.020
2020/01/31 07:44:48.6	94.570	-0.580	0.330	1.070
2020/01/31 07:44:48.7	94.540	-0.590	0.290	1.110
2020/01/31 07:44:48.8	94.510	-0.600	0.260	1.160
2020/01/31 07:44:48.9	94.490	-0.600	0.230	1.200
2020/01/31 07:44:49.0	94.460	-0.610	0.190	1.250
2020/01/31 07:44:49.1	94.430	-0.610	0.160	1.290
2020/01/31 07:44:49.2	94.400	-0.610	0.120	1.330
2020/01/31 07:44:49.3	94.370	-0.600	0.080	1.370
2020/01/31 07:44:49.4	94.340	-0.600	0.040	1.410
2020/01/31 07:44:49.5	94.310	-0.600	0.010	1.450
2020/01/31 07:44:49.6	94.280	-0.590	-0.030	1.480
2020/01/31 07:44:49.7	94.250	-0.580	-0.070	1.520
2020/01/31 07:44:49.8	94.220	-0.570	-0.100	1.560
2020/01/31 07:44:49.9	94.190	-0.560	-0.140	1.590
2020/01/31 07:44:50.0	94.160	-0.550	-0.180	1.620
2020/01/31 07:44:50.1	94.130	-0.540	-0.210	1.660
2020/01/31 07:44:50.2	94.100	-0.520	-0.250	1.690
2020/01/31 07:44:50.3	94.060	-0.500	-0.280	1.710
2020/01/31 07:44:50.4	94.030	-0.490	-0.320	1.740
2020/01/31 07:44:50.5	94.000	-0.470	-0.350	1.760
2020/01/31 07:44:50.6	93.970	-0.450	-0.380	1.780
2020/01/31 07:44:50.7	93.940	-0.420	-0.420	1.800
2020/01/31 07:44:50.8	93.920	-0.400	-0.450	1.820
2020/01/31 07:44:50.9	93.890	-0.370	-0.480	1.830
2020/01/31 07:44:51.0	93.860	-0.350	-0.510	1.830
2020/01/31 07:44:51.1	93.840	-0.320	-0.540	1.830
2020/01/31 07:44:51.2	93.820	-0.290	-0.560	1.830
2020/01/31 07:44:51.3	93.800	-0.260	-0.590	1.820
2020/01/31 07:44:51.4	93.780	-0.230	-0.620	1.810
2020/01/31 07:44:51.5	93.760	-0.190	-0.640	1.800
2020/01/31 07:44:51.6	93.740	-0.160	-0.660	1.780
2020/01/31 07:44:51.7	93.730	-0.120	-0.680	1.750
2020/01/31 07:44:51.8	93.710	-0.090	-0.700	1.730
2020/01/31 07:44:51.9	93.700	-0.050	-0.720	1.690
2020/01/31 07:44:52.0	93.690	-0.010	-0.740	1.660
2020/01/31 07:44:52.1	93.680	0.030	-0.750	1.620
2020/01/31 07:44:52.2	93.660	0.080	-0.770	1.580
2020/01/31 07:44:52.3	93.660	0.120	-0.780	1.530
2020/01/31 07:44:52.4	93.650	0.160	-0.800	1.490
2020/01/31 07:44:52.5	93.650	0.210	-0.810	1.440
2020/01/31 07:44:52.6	93.640	0.250	-0.810	1.390
2020/01/31 07:44:52.7	93.640	0.300	-0.820	1.330
2020/01/31 07:44:52.8	93.630	0.340	-0.820	1.280
2020/01/31 07:44:52.9	93.630	0.390	-0.830	1.230
2020/01/31 07:44:53.0	93.620	0.430	-0.830	1.170
2020/01/31 07:44:53.1	93.620	0.480	-0.830	1.120
2020/01/31 07:44:53.2	93.610	0.520	-0.820	1.070
2020/01/31 07:44:53.3	93.610	0.560	-0.820	1.010
2020/01/31 07:44:53.4	93.600	0.600	-0.810	0.960
2020/01/31 07:44:53.5	93.590	0.640	-0.800	0.920
2020/01/31 07:44:53.6	93.580	0.680	-0.790	0.870
2020/01/31 07:44:53.7	93.570	0.710	-0.770	0.830
2020/01/31 07:44:53.8	93.560	0.740	-0.760	0.790
2020/01/31 07:44:53.9	93.550	0.770	-0.730	0.750
2020/01/31 07:44:54.0	93.530	0.790	-0.710	0.720
2020/01/31 07:44:54.1	93.510	0.820	-0.680	0.680
2020/01/31 07:44:54.2	93.490	0.830	-0.650	0.650
2020/01/31 07:44:54.3	93.480	0.850	-0.620	0.620
2020/01/31 07:44:54.4	93.460	0.850	-0.580	0.590
2020/01/31 07:44:54.5	93.440	0.860	-0.530	0.570
2020/01/31 07:44:54.6	93.410	0.860	-0.480	0.540
2020/01/31 07:44:54.7	93.390	0.850	-0.430	0.520
2020/01/31 07:44:54.8	93.360	0.840	-0.370	0.490
2020/01/31 07:44:54.9	93.330	0.820	-0.310	0.470
2020/01/31 07:44:55.0	93.300	0.800	-0.240	0.450
2020/01/31 07:44:55.1	93.270	0.780	-0.170	0.430
2020/01/31 07:44:55.2	93.240	0.740	-0.100	0.400
2020/01/31 07:44:55.3	93.230	0.710	-0.020	0.380
2020/01/31 07:44:55.4	93.200	0.670	0.060	0.360
2020/01/31 07:44:55.5	93.170	0.620	0.150	0.340
2020/01/31 07:44:55.6	93.130	0.570	0.230	0.320
2020/01/31 07:44:55.7	93.100	0.510	0.320	0.300
2020/01/31 07:44:55.8	93.070	0.460	0.400	0.280
2020/01/31 07:44:55.9	93.030	0.390	0.490	0.270
2020/01/31 07:44:56.0	93.000	0.330	0.570	0.250
2020/01/31 07:44:56.1	92.970	0.260	0.650	0.230
2020/01/31 07:44:56.2	92.930	0.200	0.720	0.220
2020/01/31 07:44:56.3	92.910	0.130	0.800	0.200
2020/01/31 07:44:56.4	92.870	0.060	0.860	0.190
2020/01/31 07:44:56.5	92.840	-0.010	0.920	0.180
2020/01/31 07:44:56.6	92.810	-0.080	0.970	0.170
2020/01/31 07:44:56.7	92.780	-0.140	1.010	0.160
2020/01/31 07:44:56.8	92.750	-0.210	1.050	0.150
2020/01/31 07:44:56.9	92.720	-0.270	1.070	0.150
2020/01/31 07:44:57.0	92.690	-0.330	1.080	0.150
2020/01/31 07:44:57.1	92.660	-0.380	1.080	0.140
2020/01/31 07:44:57.2	92.640	-0.430	1.070	0.140
2020/01/31 07:44:57.3	92.630	-0.480	1.050	0.140
2020/01/31 07:44:57.4	92.600	-0.520	1.020	0.140
2020/01/31 07:44:57.5	92.590	-0.550	0.970	0.150
2020/01/31 07:44:57.6	92.570	-0.580	0.920	0.150
2020/01/31 07:44:57.7	92.550	-0.600	0.850	0.160
2020/01/31 07:44:57.8	92.540	-0.620	0.770	0.160
2020/01/31 07:44:57.9	92.530	-0.630	0.690	0.170
2020/01/31 07:44:58.0	92.520	-0.630	0.590	0.180
2020/01/31 07:44:58.1	92.510	-0.630	0.490	0.190
2020/01/31 07:44:58.2	92.500	-0.630	0.380	0.200
2020/01/31 07:44:58.3	92.500	-0.610	0.260	0.210
2020/01/31 07:44:58.4	92.500	-0.590	0.140	0.220
2020/01/31 07:44:58.5	92.500	-0.570	0.020	0.240
2020/01/31 07:44:58.6	92.490	-0.540	-0.110	0.250
2020/01/31 07:44:58.7	92.500	-0.510	-0.230	0.270
2020/01/31 07:44:58.8	92.500	-0.470	-0.360	0.280
2020/01/31 07:44:58.9	92.500	-0.430	-0.480	0.300
2020/01/31 07:44:59.0	92.500	-0.390	-0.600	0.320
2020/01/31 07:44:59.1	92.500	-0.340	-0.720	0.340
2020/01/31 07:44:59.2	92.500	-0.300	-0.830	0.360
2020/01/31 07:44:59.3	92.500	-0.250	-0.940	0.390
2020/01/31 07:44:59.4	92.510	-0.210	-1.030	0.420
2020/01/31 07:44:59.5	92.510	-0.160	-1.110	0.440
2020/01/31 07:44:59.6	92.500	-0.120	-1.180	0.480
2020/01/31 07:44:59.7	92.500	-0.080	-1.240	0.510
2020/01/31 07:44:59.8	92.490	-0.040	-1.290	0.550
2020/01/31 07:44:59.9	92.490	0.000	-1.320	0.590
2020/01/31 07:45:00.0	92.480	0.040	-1.350	0.630
2020/01/31 07:45:00.1	92.460	0.070	-1.360	0.670
2020/01/31 07:45:00.2	92.450	0.090	-1.350	0.720
2020/01/31 07:45:00.3	92.440	0.120	-1.340	0.770
2020/01/31 07:45:00.4	92.420	0.130	-1.320	0.820
2020/01/31 07:45:00.5	92.400	0.150	-1.280	0.870
2020/01/31 07:45:00.6	92.380	0.160	-1.230	0.920
2020/01/31 07:45:00.7	92.350	0.160	-1.170	0.970
2020/01/31 07:45:00.8	92.330	0.160	-1.100	1.030
2020/01/31 07:45:00.9	92.300	0.160	-1.020	1.080
2020/01/31 07:45:01.0	92.270	0.150	-0.930	1.130
2020/01/31 07:45:01.1	92.240	0.140	-0.840	1.190
2020/01/31 07:45:01.2	92.210	0.130	-0.740	1.240
2020/01/31 07:45:01.3	92.180	0.110	-0.630	1.300
2020/01/31 07:45:01.4	92.150	0.090	-0.530	1.350
2020/01/31 07:45:01.5	92.110	0.060	-0.420	1.400
2020/01/31 07:45:01.6	92.080	0.040	-0.310	1.450
2020/01/31 07:45:01.7	92.040	0.010	-0.210	1.490
2020/01/31 07:45:01.8	92.010	-0.020	-0.100	1.530
2020/01/31 07:45:01.9	91.970	-0.040	0.000	1.570
2020/01/31 07:45:02.0	91.930	-0.070	0.100	1.610
2020/01/31 07:45:02.1	91.900	-0.100	0.190	1.640
2020/01/31 07:45:02.2	91.860	-0.130	0.280	1.660
2020/01/31 07:45:02.3	91.820	-0.150	0.360	1.680
2020/01/31 07:45:02.4	91.780	-0.180	0.430	1.690
2020/01/31 07:45:02.5	91.750	-0.200	0.490	1.700
2020/01/31 07:45:02.6	91.720	-0.210	0.540	1.710
2020/01/31 07:45:02.7	91.690	-0.230	0.580	1.710
2020/01/31 07:45:02.8	91.660	-0.240	0.610	1.700
2020/01/31 07:45:02.9	91.630	-0.250	0.630	1.690
2020/01/31 07:45:03.0	91.600	-0.260	0.640	1.670
2020/01/31 07:45:03.1	91.570	-0.260	0.640	1.650
2020/01/31 07:45:03.2	91.550	-0.260	0.620	1.630
2020/01/31 07:45:03.3	91.530	-0.250	0.600	1.600
2020/01/31 07:45:03.4	91.510	-0.240	0.560	1.560
2020/01/31 07:45:03.5	91.480	-0.230	0.520	1.530
2020/01/31 07:45:03.6	91.460	-0.210	0.460	1.490
2020/01/31 07:45:03.7	91.440	-0.190	0.400	1.450
2020/01/31 07:45:03.8	91.420	-0.160	0.330	1.400
2020/01/31 07:45:03.9	91.400	-0.140	0.250	1.360
2020/01/31 07:45:04.0	91.380	-0.110	0.170	1.310
2020/01/31 07:45:04.1	91.370	-0.070	0.080	1.260
2020/01/31 07:45:04.2	91.350	-0.040	-0.010	1.210
2020/01/31 07:45:04.3	91.330	-0.010	-0.110	1.160
2020/01/31 07:45:04.4	91.320	0.030	-0.200	1.110
2020/01/31 07:45:04.5	91.300	0.060	-0.290	1.060
2020/01/31 07:45:04.6	91.290	0.100	-0.380	1.020
2020/01/31 07:45:04.7	91.270	0.130	-0.460	0.970
2020/01/31 07:45:04.8	91.260	0.170	-0.540	0.930
2020/01/31 07:45:04.9	91.240	0.200	-0.620	0.890
2020/01/31 07:45:05.0	91.230	0.230	-0.680	0.850
2020/01/31 07:45:05.1	91.210	0.250	-0.740	0.820
2020/01/31 07:45:05.2	91.190	0.280	-0.790	0.790
2020/01/31 07:45:05.3	91.160	0.300	-0.820	0.760
2020/01/31 07:45:05.4	91.140	0.310	-0.850	0.730
2020/01/31 07:45:05.5	91.110	0.330	-0.870	0.700
2020/01/31 07:45:05.6	91.090	0.340	-0.870	0.680
2020/01/31 07:45:05.7	91.060	0.340	-0.870	0.660
2020/01/31 07:45:05.8	91.020	0.340	-0.850	0.650
2020/01/31 07:45:05.9	90.990	0.340	-0.820	0.640
2020/01/31 07:45:06.0	90.960	0.330	-0.790	0.620
2020/01/31 07:45:06.1	90.920	0.320	-0.740	0.610
2020/01/31 07:45:06.2	90.880	0.310	-0.690	0.610
2020/01/31 07:45:06.3	90.830	0.290	-0.630	0.600
2020/01/31 07:45:06.4	90.790	0.270	-0.560	0.600
2020/01/31 07:45:06.5	90.750	0.250	-0.480	0.590
2020/01/31 07:45:06.6	90.700	0.220	-0.400	0.590
2020/01/31 07:45:06.7	90.660	0.190	-0.320	0.590
2020/01/31 07:45:06.8	90.620	0.160	-0.240	0.590
2020/01/31 07:45:06.9	90.570	0.120	-0.150	0.590
2020/01/31 07:45:07.0	90.530	0.090	-0.070	0.590
2020/01/31 07:45:07.1	90.490	0.050	0.020	0.590
2020/01/31 07:45:07.2	90.450	0.020	0.100	0.590
2020/01/31 07:45:07.3	90.410	-0.020	0.180	0.580
2020/01/31 07:45:07.4	90.370	-0.050	0.250	0.570
2020/01/31 07:45:07.5	90.340	-0.090	0.320	0.570
2020/01/31 07:45:07.6	90.310	-0.120	0.380	0.560
2020/01/31 07:45:07.7	90.280	-0.150	0.430	0.550
2020/01/31 07:45:07.8	90.260	-0.170	0.470	0.540
2020/01/31 07:45:07.9	90.240	-0.200	0.510	0.530
2020/01/31 07:45:08.0	90.220	-0.220	0.540	0.520
2020/01/31 07:45:08.1	90.200	-0.230	0.550	0.510
2020/01/31 07:45:08.2	90.190	-0.250	0.560	0.500
2020/01/31 07:45:08.3	90.170	-0.260	0.560	0.480
2020/01/31 07:45:08.4	90.160	-0.270	0.550	0.470
2020/01/31 07:45:08.5	90.150	-0.270	0.540	0.460
2020/01/31 07:45:08.6	90.150	-0.270	0.510	0.450
2020/01/31 07:45:08.7	90.140	-0.260	0.480	0.440
2020/01/31 07:45:08.8	90.140	-0.260	0.440	0.430
2020/01/31 07:45:08.9	90.140	-0.240	0.390	0.420
2020/01/31 07:45:09.0	90.140	-0.230	0.330	0.410
2020/01/31 07:45:09.1	90.140	-0.210	0.270	0.400
2020/01/31 07:45:09.2	90.140	-0.190	0.210	0.390
2020/01/31 07:45:09.3	90.150	-0.160	0.140	0.380
2020/01/31 07:45:09.4	90.150	-0.130	0.060	0.370
2020/01/31 07:45:09.5	90.150	-0.100	-0.010	0.360
2020/01/31 07:45:09.6	90.150	-0.070	-0.090	0.350
2020/01/31 07:45:09.7	90.150	-0.030	-0.170	0.340
2020/01/31 07:45:09.8	90.150	0.000	-0.250	0.320
2020/01/31 07:45:09.9	90.150	0.040	-0.330	0.310
2020/01/31 07:45:10.0	90.150	0.080	-0.400	0.300
2020/01/31 07:45:10.1	90.150	0.120	-0.480	0.290
2020/01/31 07:45:10.2	90.150	0.160	-0.550	0.280
2020/01/31 07:45:10.3	90.140	0.200	-0.620	0.270
2020/01/31 07:45:10.4	90.140	0.240	-0.680	0.270
2020/01/31 07:45:10.5	90.130	0.270	-0.730	0.260
2020/01/31 07:45:10.6	90.120	0.310	-0.780	0.260
2020/01/31 07:45:10.7	90.110	0.340	-0.820	0.260
2020/01/31 07:45:10.8	90.090	0.380	-0.860	0.270
2020/01/31 07:45:10.9	90.080	0.410	-0.880	0.270
2020/01/31 07:45:11.0	90.060	0.430	-0.900	0.290
2020/01/31 07:45:11.1	90.040	0.460	-0.910	0.300
2020/01/31 07:45:11.2	90.020	0.480	-0.910	0.320
2020/01/31 07:45:11.3	90.000	0.500	-0.900	0.340
2020/01/31 07:45:11.4	89.970	0.510	-0.880	0.370
2020/01/31 07:45:11.5	89.940	0.520	-0.850	0.400
2020/01/31 07:45:11.6	89.910	0.530	-0.820	0.440
2020/01/31 07:45:11.7	89.880	0.530	-0.780	0.470
2020/01/31 07:45:11.8	89.840	0.530	-0.730	0.520
2020/01/31 07:45:11.9	89.800	0.520	-0.670	0.560
2020/01/31 07:45:12.0	89.760	0.510	-0.610	0.610
2020/01/31 07:45:12.1	89.720	0.500	-0.550	0.670
2020/01/31 07:45:12.2	89.680	0.480	-0.480	0.720
2020/01/31 07:45:12.3	89.640	0.460	-0.410	0.780
2020/01/31 07:45:12.4	89.590	0.430	-0.340	0.840
2020/01/31 07:45:12.5	89.550	0.400	-0.260	0.900
2020/01/31 07:45:12.6	89.500	0.370	-0.190	0.950
2020/01/31 07:45:12.7	89.460	0.340	-0.120	1.010
2020/01/31 07:45:12.8	89.410	0.300	-0.050	1.070
2020/01/31 07:45:12.9	89.360	0.260	0.020	1.130
2020/01/31 07:45:13.0	89.320	0.220	0.080	1.190
2020/01/31 07:45:13.1	89.280	0.180	0.140	1.240
2020/01/31 07:45:13.2	89.230	0.140	0.190	1.290
2020/01/31 07:45:13.3	89.180	0.100	0.230	1.340
2020/01/31 07:45:13.4	89.140	0.060	0.280	1.390
2020/01/31 07:45:13.5	89.100	0.020	0.310	1.430
2020/01/31 07:45:13.6	89.060	-0.020	0.340	1.470
2020/01/31 07:45:13.7	89.030	-0.060	0.350	1.500
2020/01/31 07:45:13.8	88.990	-0.100	0.370	1.530
2020/01/31 07:45:13.9	88.960	-0.130	0.370	1.560
2020/01/31 07:45:14.0	88.930	-0.170	0.370	1.580
2020/01/31 07:45:14.1	88.900	-0.200	0.360	1.590
2020/01/31 07:45:14.2	88.870	-0.230	0.350	1.600
2020/01/31 07:45:14.3	88.840	-0.260	0.330	1.610
2020/01/31 07:45:14.4	88.820	-0.280	0.300	1.610
2020/01/31 07:45:14.5	88.800	-0.300	0.270	1.600
2020/01/31 07:45:14.6	88.780	-0.320	0.240	1.600
2020/01/31 07:45:14.7	88.760	-0.340	0.200	1.590
2020/01/31 07:45:14.8	88.740	-0.350	0.170	1.570
2020/01/31 07:45:14.9	88.730	-0.370	0.130	1.550
2020/01/31 07:45:15.0	88.720	-0.370	0.080	1.530
2020/01/31 07:45:15.1	88.710	-0.380	0.040	1.510
2020/01/31 07:45:15.2	88.700	-0.380	0.000	1.490
2020/01/31 07:45:15.3	88.690	-0.390	-0.040	1.460
2020/01/31 07:45:15.4	88.680	-0.390	-0.080	1.430
2020/01/31 07:45:15.5	88.680	-0.380	-0.120	1.410
2020/01/31 07:45:15.6	88.670	-0.380	-0.160	1.380
2020/01/31 07:45:15.7	88.670	-0.380	-0.190	1.350
2020/01/31 07:45:15.8	88.660	-0.370	-0.220	1.330
2020/01/31 07:45:15.9	88.660	-0.360	-0.250	1.300
2020/01/31 07:45:16.0	88.650	-0.350	-0.270	1.280
2020/01/31 07:45:16.1	88.650	-0.340	-0.300	1.250
2020/01/31 07:45:16.2	88.640	-0.330	-0.320	1.230
2020/01/31 07:45:16.3	88.630	-0.320	-0.330	1.210
2020/01/31 07:45:16.4	88.620	-0.300	-0.350	1.190
2020/01/31 07:45:16.5	88.610	-0.290	-0.360	1.170
2020/01/31 07:45:16.6	88.600	-0.280	-0.360	1.160
2020/01/31 07:45:16.7	88.590	-0.270	-0.370	1.140
2020/01/31 07:45:16.8	88.570	-0.250	-0.370	1.130
2020/01/31 07:45:16.9	88.550	-0.240	-0.370	1.110
2020/01/31 07:45:17.0	88.530	-0.230	-0.360	1.100
2020/01/31 07:45:17.1	88.510	-0.220	-0.360	1.090
2020/01/31 07:45:17.2	88.480	-0.210	-0.340	1.080
2020/01/31 07:45:17.3	88.450	-0.200	-0.330	1.070
2020/01/31 07:45:17.4	88.420	-0.190	-0.320	1.070
2020/01/31 07:45:17.5	88.390	-0.190	-0.300	1.060
2020/01/31 07:45:17.6	88.360	-0.180	-0.270	1.050
2020/01/31 07:45:17.7	88.320	-0.180	-0.250	1.050
2020/01/31 07:45:17.8	88.290	-0.180	-0.220	1.040
2020/01/31 07:45:17.9	88.250	-0.180	-0.190	1.030
2020/01/31 07:45:18.0	88.210	-0.180	-0.160	1.030
2020/01/31 07:45:18.1	88.170	-0.180	-0.130	1.030
2020/01/31 07:45:18.2	88.130	-0.180	-0.100	1.020
2020/01/31 07:45:18.3	88.070	-0.180	-0.070	1.020
2020/01/31 07:45:18.4	88.030	-0.190	-0.030	1.020
2020/01/31 07:45:18.5	87.980	-0.190	0.000	1.020
2020/01/31 07:45:18.6	87.930	-0.200	0.040	1.010
2020/01/31 07:45:18.7	87.890	-0.210	0.070	1.010
2020/01/31 07:45:18.8	87.840	-0.210	0.100	1.010
2020/01/31 07:45:18.9	87.790	-0.220	0.120	1.010
2020/01/31 07:45:19.0	87.740	-0.220	0.150	1.010
2020/01/31 07:45:19.1	87.690	-0.220	0.170	1.010
2020/01/31 07:45:19.2	87.650	-0.230	0.180	1.000
2020/01/31 07:45:19.3	87.600	-0.230	0.200	1.000
2020/01/31 07:45:19.4	87.550	-0.230	0.200	0.990
2020/01/31 07:45:19.5	87.510	-0.220	0.200	0.980
2020/01/31 07:45:19.6	87.470	-0.220	0.200	0.960
2020/01/31 07:45:19.7	87.430	-0.210	0.180	0.950
2020/01/31 07:45:19.8	87.390	-0.200	0.160	0.930
2020/01/31 07:45:19.9	87.350	-0.190	0.140	0.910
2020/01/31 07:45:20.0	87.320	-0.170	0.110	0.880
2020/01/31 07:45:20.1	87.280	-0.150	0.070	0.850
2020/01/31 07:45:20.2	87.250	-0.130	0.020	0.820
2020/01/31 07:45:20.3	87.220	-0.110	-0.030	0.780
2020/01/31 07:45:20.4	87.190	-0.080	-0.090	0.740
2020/01/31 07:45:20.5	87.160	-0.050	-0.150	0.700
2020/01/31 07:45:20.6	87.130	-0.020	-0.210	0.660
2020/01/31 07:45:20.7	87.110	0.020	-0.280	0.610
2020/01/31 07:45:20.8	87.080	0.050	-0.350	0.570
2020/01/31 07:45:20.9	87.060	0.090	-0.420	0.520
2020/01/31 07:45:21.0	87.030	0.130	-0.490	0.470
2020/01/31 07:45:21.1	87.000	0.170	-0.560	0.430
2020/01/31 07:45:21.2	86.970	0.210	-0.630	0.380
2020/01/31 07:45:21.3	86.940	0.250	-0.700	0.340
2020/01/31 07:45:21.4	86.910	0.300	-0.770	0.300
2020/01/31 07:45:21.5	86.880	0.340	-0.830	0.260
2020/01/31 07:45:21.6	86.840	0.380	-0.890	0.230
2020/01/31 07:45:21.7	86.800	0.430	-0.940	0.200
2020/01/31 07:45:21.8	86.760	0.470	-0.990	0.180
2020/01/31 07:45:21.9	86.720	0.510	-1.030	0.160
2020/01/31 07:45:22.0	86.670	0.550	-1.060	0.140
2020/01/31 07:45:22.1	86.630	0.580	-1.090	0.130
2020/01/31 07:45:22.2	86.580	0.610	-1.100	0.120
2020/01/31 07:45:22.3	86.520	0.650	-1.120	0.110
2020/01/31 07:45:22.4	86.470	0.670	-1.120	0.100
2020/01/31 07:45:22.5	86.420	0.700	-1.110	0.100
2020/01/31 07:45:22.6	86.380	0.720	-1.090	0.100
2020/01/31 07:45:22.7	86.330	0.740	-1.060	0.100
2020/01/31 07:45:22.8	86.290	0.750	-1.020	0.110
2020/01/31 07:45:22.9	86.240	0.760	-0.980	0.120
2020/01/31 07:45:23.0	86.200	0.770	-0.930	0.130
2020/01/31 07:45:23.1	86.160	0.770	-0.870	0.140
2020/01/31 07:45:23.2	86.130	0.770	-0.810	0.160
2020/01/31 07:45:23.3	86.100	0.760	-0.730	0.170
2020/01/31 07:45:23.4	86.070	0.750	-0.650	0.190
2020/01/31 07:45:23.5	86.040	0.740	-0.570	0.200
2020/01/31 07:45:23.6	86.020	0.720	-0.490	0.220
2020/01/31 07:45:23.7	86.000	0.700	-0.410	0.240
2020/01/31 07:45:23.8	85.980	0.680	-0.320	0.260
2020/01/31 07:45:23.9	85.970	0.650	-0.230	0.280
2020/01/31 07:45:24.0	85.960	0.620	-0.150	0.310
2020/01/31 07:45:24.1	85.950	0.590	-0.060	0.330
2020/01/31 07:45:24.2	85.950	0.560	0.020	0.350
2020/01/31 07:45:24.3	85.950	0.520	0.090	0.380
2020/01/31 07:45:24.4	85.950	0.480	0.170	0.400
2020/01/31 07:45:24.5	85.950	0.440	0.240	0.430
2020/01/31 07:45:24.6	85.950	0.390	0.310	0.460
2020/01/31 07:45:24.7	85.950	0.350	0.380	0.500
2020/01/31 07:45:24.8	85.950	0.300	0.430	0.530
2020/01/31 07:45:24.9	85.950	0.250	0.490	0.570
2020/01/31 07:45:25.0	85.940	0.210	0.540	0.610
2020/01/31 07:45:25.1	85.940	0.160	0.590	0.650
2020/01/31 07:45:25.2	85.930	0.110	0.630	0.690
2020/01/31 07:45:25.3	85.930	0.060	0.660	0.740
2020/01/31 07:45:25.4	85.910	0.000	0.700	0.780
2020/01/31 07:45:25.5	85.890	-0.050	0.720	0.830
2020/01/31 07:45:25.6	85.870	-0.100	0.750	0.880
2020/01/31 07:45:25.7	85.840	-0.150	0.770	0.930
2020/01/31 07:45:25.8	85.810	-0.210	0.790	0.980
2020/01/31 07:45:25.9	85.770	-0.260	0.800	1.030
2020/01/31 07:45:26.0	85.730	-0.310	0.810	1.080
2020/01/31 07:45:26.1	85.690	-0.370	0.820	1.130
2020/01/31 07:45:26.2	85.640	-0.420	0.830	1.180
2020/01/31 07:45:26.3	85.610	-0.470	0.830	1.220
2020/01/31 07:45:26.4	85.560	-0.520	0.840	1.270
2020/01/31 07:45:26.5	85.500	-0.580	0.840	1.320
2020/01/31 07:45:26.6	85.450	-0.630	0.830	1.360
2020/01/31 07:45:26.7	85.390	-0.670	0.830	1.400
2020/01/31 07:45:26.8	85.330	-0.720	0.820	1.440
2020/01/31 07:45:26.9	85.270	-0.770	0.810	1.470
2020/01/31 07:45:27.0	85.200	-0.810	0.790	1.510
2020/01/31 07:45:27.1	85.140	-0.850	0.770	1.540
2020/01/31 07:45:27.2	85.070	-0.880	0.740	1.570
2020/01/31 07:45:27.3	85.010	-0.920	0.710	1.600
2020/01/31 07:45:27.4	84.940	-0.940	0.680	1.620
2020/01/31 07:45:27.5	84.880	-0.970	0.640	1.640
2020/01/31 07:45:27.6	84.810	-0.990	0.590	1.660
2020/01/31 07:45:27.7	84.740	-1.000	0.540	1.680
2020/01/31 07:45:27.8	84.680	-1.010	0.480	1.700
2020/01/31 07:45:27.9	84.620	-1.010	0.410	1.710
2020/01/31 07:45:28.0	84.550	-1.000	0.340	1.720
2020/01/31 07:45:28.1	84.500	-0.990	0.260	1.720
2020/01/31 07:45:28.2	84.440	-0.970	0.170	1.720
2020/01/31 07:45:28.3	84.370	-0.940	0.070	1.720
2020/01/31 07:45:28.4	84.320	-0.910	-0.030	1.720
2020/01/31 07:45:28.5	84.270	-0.870	-0.140	1.710
2020/01/31 07:45:28.6	84.230	-0.820	-0.260	1.700
2020/01/31 07:45:28.7	84.190	-0.760	-0.380	1.690
2020/01/31 07:45:28.8	84.150	-0.690	-0.510	1.680
2020/01/31 07:45:28.9	84.110	-0.620	-0.640	1.660
2020/01/31 07:45:29.0	84.080	-0.540	-0.770	1.640
2020/01/31 07:45:29.1	84.050	-0.460	-0.900	1.620
2020/01/31 07:45:29.2	84.020	-0.370	-1.030	1.600
2020/01/31 07:45:29.3	83.990	-0.280	-1.160	1.570
2020/01/31 07:45:29.4	83.970	-0.180	-1.290	1.540
2020/01/31 07:45:29.5	83.950	-0.080	-1.410	1.510
2020/01/31 07:45:29.6	83.930	0.010	-1.520	1.480
2020/01/31 07:45:29.7	83.910	0.110	-1.630	1.450
2020/01/31 07:45:29.8	83.900	0.210	-1.720	1.420
2020/01/31 07:45:29.9	83.880	0.300	-1.810	1.390
2020/01/31 07:45:30.0	83.860	0.400	-1.870	1.360
2020/01/31 07:45:30.1	83.840	0.480	-1.930	1.320
2020/01/31 07:45:30.2	83.820	0.570	-1.970	1.290
2020/01/31 07:45:30.3	83.780	0.640	-2.000	1.250
2020/01/31 07:45:30.4	83.760	0.710	-2.000	1.210
2020/01/31 07:45:30.5	83.740	0.770	-1.990	1.170
2020/01/31 07:45:30.6	83.710	0.820	-1.960	1.130
2020/01/31 07:45:30.7	83.690	0.870	-1.910	1.090
2020/01/31 07:45:30.8	83.660	0.900	-1.850	1.050
2020/01/31 07:45:30.9	83.640	0.930	-1.770	1.010
2020/01/31 07:45:31.0	83.610	0.950	-1.680	0.970
2020/01/31 07:45:31.1	83.580	0.950	-1.570	0.930
2020/01/31 07:45:31.2	83.550	0.950	-1.440	0.890
2020/01/31 07:45:31.3	83.500	0.940	-1.300	0.850
2020/01/31 07:45:31.4	83.470	0.920	-1.150	0.820
2020/01/31 07:45:31.5	83.440	0.890	-0.990	0.790
2020/01/31 07:45:31.6	83.400	0.850	-0.830	0.760
2020/01/31 07:45:31.7	83.360	0.800	-0.650	0.740
2020/01/31 07:45:31.8	83.330	0.750	-0.470	0.720
2020/01/31 07:45:31.9	83.290	0.690	-0.290	0.700
2020/01/31 07:45:32.0	83.250	0.620	-0.110	0.690
2020/01/31 07:45:32.1	83.220	0.550	0.070	0.680
2020/01/31 07:45:32.2	83.180	0.480	0.250	0.670
2020/01/31 07:45:32.3	83.140	0.400	0.430	0.670
2020/01/31 07:45:32.4	83.100	0.310	0.600	0.670
2020/01/31 07:45:32.5	83.060	0.230	0.770	0.670
2020/01/31 07:45:32.6	83.030	0.150	0.920	0.680
2020/01/31 07:45:32.7	82.990	0.060	1.060	0.690
2020/01/31 07:45:32.8	82.950	-0.020	1.200	0.700
2020/01/31 07:45:32.9	82.920	-0.100	1.320	0.720
2020/01/31 07:45:33.0	82.880	-0.180	1.420	0.740
2020/01/31 07:45:33.1	82.840	-0.260	1.510	0.750
2020/01/31 07:45:33.2	82.810	-0.330	1.590	0.770
2020/01/31 07:45:33.3	82.760	-0.400	1.650	0.790
2020/01/31 07:45:33.4	82.730	-0.460	1.690	0.810
2020/01/31 07:45:33.5	82.690	-0.520	1.720	0.830
2020/01/31 07:45:33.6	82.660	-0.570	1.730	0.850
2020/01/31 07:45:33.7	82.620	-0.610	1.720	0.870
2020/01/31 07:45:33.8	82.580	-0.640	1.690	0.880
2020/01/31 07:45:33.9	82.550	-0.670	1.650	0.900
2020/01/31 07:45:34.0	82.510	-0.700	1.600	0.910
2020/01/31 07:45:34.1	82.480	-0.710	1.520	0.920
2020/01/31 07:45:34.2	82.440	-0.720	1.440	0.930
2020/01/31 07:45:34.3	82.400	-0.710	1.330	0.930
2020/01/31 07:45:34.4	82.360	-0.710	1.220	0.930
2020/01/31 07:45:34.5	82.330	-0.690	1.090	0.930
2020/01/31 07:45:34.6	82.300	-0.670	0.960	0.930
2020/01/31 07:45:34.7	82.260	-0.640	0.810	0.920
2020/01/31 07:45:34.8	82.230	-0.600	0.660	0.910
2020/01/31 07:45:34.9	82.210	-0.560	0.500	0.900
2020/01/31 07:45:35.0	82.180	-0.520	0.340	0.890
2020/01/31 07:45:35.1	82.150	-0.470	0.170	0.880
2020/01/31 07:45:35.2	82.130	-0.410	-0.000	0.860
2020/01/31 07:45:35.3	82.100	-0.350	-0.180	0.840
2020/01/31 07:45:35.4	82.080	-0.290	-0.350	0.830
2020/01/31 07:45:35.5	82.060	-0.230	-0.520	0.810
2020/01/31 07:45:35.6	82.040	-0.160	-0.680	0.800
2020/01/31 07:45:35.7	82.030	-0.100	-0.830	0.790
2020/01/31 07:45:35.8	82.010	-0.030	-0.980	0.780
2020/01/31 07:45:35.9	81.990	0.040	-1.120	0.770
2020/01/31 07:45:36.0	81.980	0.100	-1.250	0.760
2020/01/31 07:45:36.1	81.960	0.160	-1.370	0.760
2020/01/31 07:45:36.2	81.940	0.220	-1.470	0.760
2020/01/31 07:45:36.3	81.920	0.280	-1.560	0.770
2020/01/31 07:45:36.4	81.910	0.330	-1.640	0.770
2020/01/31 07:45:36.5	81.890	0.380	-1.700	0.780
2020/01/31 07:45:36.6	81.870	0.420	-1.740	0.790
2020/01/31 07:45:36.7	81.850	0.460	-1.760	0.800
2020/01/31 07:45:36.8	81.830	0.490	-1.770	0.810
2020/01/31 07:45:36.9	81.810	0.520	-1.770	0.830
2020/01/31 07:45:37.0	81.790	0.540	-1.740	0.850
2020/01/31 07:45:37.1	81.770	0.560	-1.710	0.870
2020/01/31 07:45:37.2	81.750	0.560	-1.650	0.890
2020/01/31 07:45:37.3	81.730	0.570	-1.580	0.910
2020/01/31 07:45:37.4	81.710	0.560	-1.500	0.940
2020/01/31 07:45:37.5	81.690	0.550	-1.400	0.960
2020/01/31 07:45:37.6	81.660	0.530	-1.290	0.980
2020/01/31 07:45:37.7	81.640	0.510	-1.170	1.010
2020/01/31 07:45:37.8	81.610	0.480	-1.040	1.040
2020/01/31 07:45:37.9	81.590	0.450	-0.910	1.060
2020/01/31 07:45:38.0	81.560	0.420	-0.770	1.090
2020/01/31 07:45:38.1	81.540	0.370	-0.620	1.110
2020/01/31 07:45:38.2	81.510	0.330	-0.470	1.140
2020/01/31 07:45:38.3	81.480	0.280	-0.320	1.160
2020/01/31 07:45:38.4	81.450	0.240	-0.170	1.190
2020/01/31 07:45:38.5	81.430	0.190	-0.030	1.210
2020/01/31 07:45:38.6	81.410	0.130	0.110	1.240
2020/01/31 07:45:38.7	81.390	0.080	0.250	1.260
2020/01/31 07:45:38.8	81.370	0.030	0.380	1.280
2020/01/31 07:45:38.9	81.350	-0.020	0.500	1.300
2020/01/31 07:45:39.0	81.330	-0.060	0.600	1.320
2020/01/31 07:45:39.1	81.310	-0.110	0.700	1.340
2020/01/31 07:45:39.2	81.300	-0.150	0.780	1.360
2020/01/31 07:45:39.3	81.290	-0.190	0.860	1.370
2020/01/31 07:45:39.4	81.270	-0.220	0.910	1.380
2020/01/31 07:45:39.5	81.260	-0.250	0.960	1.390
2020/01/31 07:45:39.6	81.250	-0.280	0.990	1.400
2020/01/31 07:45:39.7	81.240	-0.300	1.000	1.400
2020/01/31 07:45:39.8	81.230	-0.320	1.000	1.410
2020/01/31 07:45:39.9	81.220	-0.330	0.980	1.410
2020/01/31 07:45:40.0	81.210	-0.330	0.950	1.400
2020/01/31 07:45:40.1	81.200	-0.330	0.910	1.400
2020/01/31 07:45:40.2	81.190	-0.330	0.850	1.390
2020/01/31 07:45:40.3	81.190	-0.320	0.780	1.380
2020/01/31 07:45:40.4	81.190	-0.300	0.700	1.360
2020/01/31 07:45:40.5	81.190	-0.280	0.610	1.340
2020/01/31 07:45:40.6	81.180	-0.260	0.520	1.320
2020/01/31 07:45:40.7	81.180	-0.230	0.410	1.290
2020/01/31 07:45:40.8	81.180	-0.200	0.300	1.260
2020/01/31 07:45:40.9	81.180	-0.160	0.190	1.230
2020/01/31 07:45:41.0	81.180	-0.130	0.070	1.200
2020/01/31 07:45:41.1	81.180	-0.090	-0.040	1.160
2020/01/31 07:45:41.2	81.170	-0.050	-0.160	1.130
2020/01/31 07:45:41.3	81.170	-0.000	-0.280	1.090
2020/01/31 07:45:41.4	81.170	0.040	-0.380	1.050
2020/01/31 07:45:41.5	81.160	0.080	-0.490	1.020
2020/01/31 07:45:41.6	81.160	0.120	-0.580	0.980
2020/01/31 07:45:41.7	81.150	0.160	-0.670	0.950
2020/01/31 07:45:41.8	81.140	0.200	-0.750	0.920
2020/01/31 07:45:41.9	81.130	0.240	-0.820	0.890
2020/01/31 07:45:42.0	81.120	0.280	-0.880	0.860
2020/01/31 07:45:42.1	81.110	0.310	-0.930	0.840
2020/01/31 07:45:42.2	81.100	0.340	-0.960	0.820
2020/01/31 07:45:42.3	81.080	0.360	-0.980	0.800
2020/01/31 07:45:42.4	81.060	0.380	-0.990	0.780
2020/01/31 07:45:42.5	81.040	0.400	-0.990	0.770
2020/01/31 07:45:42.6	81.010	0.410	-0.970	0.770
2020/01/31 07:45:42.7	80.990	0.410	-0.950	0.770
2020/01/31 07:45:42.8	80.960	0.410	-0.910	0.770
2020/01/31 07:45:42.9	80.930	0.410	-0.860	0.770
2020/01/31 07:45:43.0	80.900	0.400	-0.800	0.780
2020/01/31 07:45:43.1	80.870	0.380	-0.740	0.800
2020/01/31 07:45:43.2	80.840	0.370	-0.670	0.810
2020/01/31 07:45:43.3	80.810	0.340	-0.590	0.830
2020/01/31 07:45:43.4	80.770	0.310	-0.510	0.860
2020/01/31 07:45:43.5	80.740	0.280	-0.420	0.880
2020/01/31 07:45:43.6	80.710	0.240	-0.330	0.910
2020/01/31 07:45:43.7	80.680	0.200	-0.250	0.940
2020/01/31 07:45:43.8	80.650	0.160	-0.160	0.970
2020/01/31 07:45:43.9	80.620	0.120	-0.070	1.000
2020/01/31 07:45:44.0	80.590	0.070	0.010	1.030
2020/01/31 07:45:44.1	80.570	0.020	0.090	1.060
2020/01/31 07:45:44.2	80.540	-0.020	0.160	1.090
2020/01/31 07:45:44.3	80.530	-0.070	0.230	1.110
2020/01/31 07:45:44.4	80.510	-0.120	0.290	1.140
2020/01/31 07:45:44.5	80.490	-0.170	0.340	1.150
2020/01/31 07:45:44.6	80.480	-0.210	0.380	1.170
2020/01/31 07:45:44.7	80.460	-0.260	0.420	1.180
2020/01/31 07:45:44.8	80.450	-0.300	0.450	1.190
2020/01/31 07:45:44.9	80.440	-0.340	0.460	1.190
2020/01/31 07:45:45.0	80.430	-0.370	0.470	1.190
2020/01/31 07:45:45.1	80.420	-0.400	0.480	1.180
2020/01/31 07:45:45.2	80.420	-0.430	0.470	1.160
2020/01/31 07:45:45.3	80.420	-0.460	0.460	1.140
2020/01/31 07:45:45.4	80.420	-0.480	0.440	1.110
2020/01/31 07:45:45.5	80.410	-0.490	0.410	1.080
2020/01/31 07:45:45.6	80.410	-0.510	0.380	1.050
2020/01/31 07:45:45.7	80.400	-0.510	0.340	1.010
2020/01/31 07:45:45.8	80.400	-0.520	0.300	0.970
2020/01/31 07:45:45.9	80.390	-0.520	0.260	0.930
2020/01/31 07:45:46.0	80.380	-0.510	0.210	0.880
2020/01/31 07:45:46.1	80.370	-0.510	0.170	0.840
2020/01/31 07:45:46.2	80.360	-0.490	0.120	0.800
2020/01/31 07:45:46.3	80.350	-0.480	0.080	0.760
2020/01/31 07:45:46.4	80.330	-0.460	0.040	0.720
2020/01/31 07:45:46.5	80.310	-0.440	-0.010	0.680
2020/01/31 07:45:46.6	80.280	-0.410	-0.040	0.650
2020/01/31 07:45:46.7	80.260	-0.390	-0.080	0.620
2020/01/31 07:45:46.8	80.230	-0.360	-0.110	0.590
2020/01/31 07:45:46.9	80.200	-0.330	-0.140	0.560
2020/01/31 07:45:47.0	80.170	-0.300	-0.170	0.540
2020/01/31 07:45:47.1	80.130	-0.270	-0.190	0.520
2020/01/31 07:45:47.2	80.100	-0.230	-0.210	0.510
2020/01/31 07:45:47.3	80.060	-0.200	-0.230	0.500
2020/01/31 07:45:47.4	80.030	-0.170	-0.250	0.490
2020/01/31 07:45:47.5	79.990	-0.130	-0.270	0.480
2020/01/31 07:45:47.6	79.960	-0.100	-0.280	0.480
2020/01/31 07:45:47.7	79.920	-0.060	-0.300	0.480
2020/01/31 07:45:47.8	79.890	-0.030	-0.310	0.480
2020/01/31 07:45:47.9	79.860	0.000	-0.320	0.480
2020/01/31 07:45:48.0	79.830	0.030	-0.340	0.480
2020/01/31 07:45:48.1	79.810	0.060	-0.360	0.480
2020/01/31 07:45:48.2	79.780	0.090	-0.370	0.470
2020/01/31 07:45:48.3	79.770	0.120	-0.390	0.470
2020/01/31 07:45:48.4	79.750	0.150	-0.410	0.470
2020/01/31 07:45:48.5	79.730	0.170	-0.440	0.460
2020/01/31 07:45:48.6	79.720	0.190	-0.460	0.450
2020/01/31 07:45:48.7	79.710	0.220	-0.480	0.440
2020/01/31 07:45:48.8	79.700	0.230	-0.510	0.420
2020/01/31 07:45:48.9	79.690	0.250	-0.530	0.410
2020/01/31 07:45:49.0	79.690	0.270	-0.560	0.390
2020/01/31 07:45:49.1	79.680	0.280	-0.580	0.370
2020/01/31 07:45:49.2	79.680	0.290	-0.610	0.350
2020/01/31 07:45:49.3	79.680	0.300	-0.630	0.330
2020/01/31 07:45:49.4	79.670	0.310	-0.650	0.310
2020/01/31 07:45:49.5	79.670	0.310	-0.670	0.290
2020/01/31 07:45:49.6	79.660	0.310	-0.690	0.270
2020/01/31 07:45:49.7	79.650	0.310	-0.700	0.250
2020/01/31 07:45:49.8	79.640	0.310	-0.700	0.220
2020/01/31 07:45:49.9	79.620	0.300	-0.710	0.210
2020/01/31 07:45:50.0	79.610	0.290	-0.700	0.190
2020/01/31 07:45:50.1	79.590	0.280	-0.690	0.170
2020/01/31 07:45:50.2	79.560	0.270	-0.680	0.160
2020/01/31 07:45:50.3	79.550	0.260	-0.660	0.140
2020/01/31 07:45:50.4	79.520	0.240	-0.640	0.130
2020/01/31 07:45:50.5	79.490	0.230	-0.610	0.130
2020/01/31 07:45:50.6	79.460	0.210	-0.570	0.130
2020/01/31 07:45:50.7	79.420	0.190	-0.530	0.130
2020/01/31 07:45:50.8	79.390	0.180	-0.490	0.130
2020/01/31 07:45:50.9	79.350	0.160	-0.440	0.140
2020/01/31 07:45:51.0	79.310	0.140	-0.390	0.150
2020/01/31 07:45:51.1	79.260	0.120	-0.340	0.170
2020/01/31 07:45:51.2	79.220	0.110	-0.280	0.190
2020/01/31 07:45:51.3	79.190	0.090	-0.220	0.210
2020/01/31 07:45:51.4	79.150	0.070	-0.170	0.230
2020/01/31 07:45:51.5	79.100	0.060	-0.110	0.250
2020/01/31 07:45:51.6	79.060	0.050	-0.050	0.280
2020/01/31 07:45:51.7	79.020	0.040	0.000	0.310
2020/01/31 07:45:51.8	78.980	0.030	0.050	0.330
2020/01/31 07:45:51.9	78.940	0.020	0.100	0.360
2020/01/31 07:45:52.0	78.900	0.020	0.140	0.390
2020/01/31 07:45:52.1	78.860	0.010	0.180	0.420
2020/01/31 07:45:52.2	78.820	0.010	0.210	0.450
2020/01/31 07:45:52.3	78.790	0.010	0.240	0.470
2020/01/31 07:45:52.4	78.750	0.020	0.260	0.500
2020/01/31 07:45:52.5	78.720	0.020	0.270	0.530
2020/01/31 07:45:52.6	78.690	0.030	0.280	0.550
2020/01/31 07:45:52.7	78.660	0.040	0.280	0.580
2020/01/31 07:45:52.8	78.630	0.050	0.270	0.600
2020/01/31 07:45:52.9	78.600	0.060	0.260	0.630
2020/01/31 07:45:53.0	78.580	0.070	0.240	0.650
2020/01/31 07:45:53.1	78.550	0.080	0.220	0.680
2020/01/31 07:45:53.2	78.520	0.090	0.190	0.700
2020/01/31 07:45:53.3	78.510	0.110	0.160	0.720
2020/01/31 07:45:53.4	78.480	0.120	0.120	0.740
2020/01/31 07:45:53.5	78.460	0.130	0.090	0.760
2020/01/31 07:45:53.6	78.430	0.150	0.050	0.780
2020/01/31 07:45:53.7	78.410	0.160	0.010	0.800
2020/01/31 07:45:53.8	78.380	0.170	-0.040	0.810
2020/01/31 07:45:53.9	78.360	0.180	-0.080	0.830
2020/01/31 07:45:54.0	78.330	0.180	-0.120	0.840
2020/01/31 07:45:54.1	78.310	0.190	-0.160	0.850
2020/01/31 07:45:54.2	78.280	0.190	-0.200	0.860
2020/01/31 07:45:54.3	78.260	0.190	-0.230	0.870
2020/01/31 07:45:54.4	78.240	0.190	-0.270	0.880
2020/01/31 07:45:54.5	78.210	0.190	-0.300	0.890
2020/01/31 07:45:54.6	78.190	0.190	-0.320	0.890
2020/01/31 07:45:54.7	78.160	0.180	-0.350	0.900
2020/01/31 07:45:54.8	78.130	0.170	-0.360	0.900
2020/01/31 07:45:54.9	78.110	0.160	-0.380	0.910
2020/01/31 07:45:55.0	78.080	0.140	-0.390	0.910
2020/01/31 07:45:55.1	78.050	0.130	-0.390	0.910
2020/01/31 07:45:55.2	78.020	0.110	-0.390	0.910
2020/01/31 07:45:55.3	77.990	0.080	-0.390	0.910
2020/01/31 07:45:55.4	77.960	0.060	-0.380	0.910
2020/01/31 07:45:55.5	77.930	0.030	-0.360	0.910
2020/01/31 07:45:55.6	77.900	0.010	-0.340	0.910
2020/01/31 07:45:55.7	77.870	-0.020	-0.320	0.910
2020/01/31 07:45:55.8	77.830	-0.050	-0.290	0.910
2020/01/31 07:45:55.9	77.800	-0.080	-0.260	0.910
2020/01/31 07:45:56.0	77.770	-0.110	-0.230	0.910
2020/01/31 07:45:56.1	77.730	-0.140	-0.200	0.910
2020/01/31 07:45:56.2	77.700	-0.180	-0.160	0.910
2020/01/31 07:45:56.3	77.650	-0.210	-0.120	0.900
2020/01/31 07:45:56.4	77.620	-0.240	-0.080	0.900
2020/01/31 07:45:56.5	77.580	-0.260	-0.040	0.900
2020/01/31 07:45:56.6	77.550	-0.290	-0.010	0.900
2020/01/31 07:45:56.7	77.510	-0.320	0.030	0.900
2020/01/31 07:45:56.8	77.480	-0.340	0.070	0.890
2020/01/31 07:45:56.9	77.440	-0.360	0.100	0.880
2020/01/31 07:45:57.0	77.410	-0.380	0.130	0.880
2020/01/31 07:45:57.1	77.380	-0.390	0.160	0.870
2020/01/31 07:45:57.2	77.340	-0.400	0.190	0.860
2020/01/31 07:45:57.3	77.320	-0.410	0.210	0.840
2020/01/31 07:45:57.4	77.290	-0.420	0.230	0.830
2020/01/31 07:45:57.5	77.260	-0.420	0.240	0.810
2020/01/31 07:45:57.6	77.230	-0.420	0.250	0.800
2020/01/31 07:45:57.7	77.200	-0.410	0.260	0.780
2020/01/31 07:45:57.8	77.170	-0.400	0.260	0.770
2020/01/31 07:45:57.9	77.140	-0.390	0.250	0.750
2020/01/31 07:45:58.0	77.110	-0.370	0.240	0.730
2020/01/31 07:45:58.1	77.090	-0.350	0.220	0.720
2020/01/31 07:45:58.2	77.060	-0.330	0.200	0.700
2020/01/31 07:45:58.3	77.030	-0.300	0.180	0.680
2020/01/31 07:45:58.4	77.000	-0.270	0.150	0.670
2020/01/31 07:45:58.5	76.980	-0.240	0.110	0.650
2020/01/31 07:45:58.6	76.950	-0.200	0.080	0.640
2020/01/31 07:45:58.7	76.920	-0.160	0.030	0.630
2020/01/31 07:45:58.8	76.900	-0.120	-0.010	0.620
2020/01/31 07:45:58.9	76.870	-0.080	-0.060	0.610
2020/01/31 07:45:59.0	76.840	-0.030	-0.110	0.600
2020/01/31 07:45:59.1	76.820	0.010	-0.170	0.600
2020/01/31 07:45:59.2	76.790	0.060	-0.220	0.590
2020/01/31 07:45:59.3	76.740	0.100	-0.280	0.590
2020/01/31 07:45:59.4	76.710	0.140	-0.330	0.590
2020/01/31 07:45:59.5	76.690	0.190	-0.390	0.590
2020/01/31 07:45:59.6	76.660	0.230	-0.440	0.590
2020/01/31 07:45:59.7	76.640	0.270	-0.490	0.590
2020/01/31 07:45:59.8	76.610	0.300	-0.540	0.600
2020/01/31 07:45:59.9	76.590	0.340	-0.590	0.600
2020/01/31 07:46:00.0	76.560	0.370	-0.630	0.610
2020/01/31 07:46:00.1	76.540	0.390	-0.670	0.620
2020/01/31 07:46:00.2	76.510	0.410	-0.710	0.630
2020/01/31 07:46:00.3	76.500	0.430	-0.740	0.640
2020/01/31 07:46:00.4	76.470	0.440	-0.770	0.650
2020/01/31 07:46:00.5	76.450	0.440	-0.780	0.660
2020/01/31 07:46:00.6	76.420	0.440	-0.790	0.670
2020/01/31 07:46:00.7	76.400	0.430	-0.800	0.690
2020/01/31 07:46:00.8	76.370	0.410	-0.800	0.700
2020/01/31 07:46:00.9	76.340	0.390	-0.780	0.710
2020/01/31 07:46:01.0	76.310	0.370	-0.770	0.720
2020/01/31 07:46:01.1	76.290	0.330	-0.740	0.730
2020/01/31 07:46:01.2	76.260	0.290	-0.710	0.730
2020/01/31 07:46:01.3	76.240	0.250	-0.680	0.740
2020/01/31 07:46:01.4	76.210	0.200	-0.640	0.740
2020/01/31 07:46:01.5	76.180	0.140	-0.590	0.740
2020/01/31 07:46:01.6	76.150	0.090	-0.530	0.740
2020/01/31 07:46:01.7	76.120	0.020	-0.480	0.730
2020/01/31 07:46:01.8	76.090	-0.040	-0.410	0.730
2020/01/31 07:46:01.9	76.060	-0.110	-0.350	0.720
2020/01/31 07:46:02.0	76.030	-0.170	-0.280	0.710
2020/01/31 07:46:02.1	75.990	-0.240	-0.210	0.700
2020/01/31 07:46:02.2	75.960	-0.310	-0.130	0.680
2020/01/31 07:46:02.3	75.920	-0.370	-0.060	0.670
2020/01/31 07:46:02.4	75.880	-0.440	0.020	0.650
2020/01/31 07:46:02.5	75.840	-0.500	0.090	0.640
2020/01/31 07:46:02.6	75.790	-0.550	0.160	0.630
2020/01/31 07:46:02.7	75.750	-0.610	0.230	0.620
2020/01/31 07:46:02.8	75.700	-0.650	0.300	0.610
2020/01/31 07:46:02.9	75.660	-0.700	0.370	0.610
2020/01/31 07:46:03.0	75.610	-0.730	0.430	0.600
2020/01/31 07:46:03.1	75.560	-0.760	0.480	0.600
2020/01/31 07:46:03.2	75.510	-0.780	0.520	0.590
2020/01/31 07:46:03.3	75.460	-0.790	0.570	0.590
2020/01/31 07:46:03.4	75.410	-0.800	0.600	0.590
2020/01/31 07:46:03.5	75.360	-0.800	0.620	0.590
2020/01/31 07:46:03.6	75.310	-0.790	0.630	0.590
2020/01/31 07:46:03.7	75.270	-0.770	0.630	0.590
2020/01/31 07:46:03.8	75.220	-0.740	0.620	0.590
2020/01/31 07:46:03.9	75.180	-0.710	0.600	0.590
2020/01/31 07:46:04.0	75.130	-0.670	0.570	0.600
2020/01/31 07:46:04.1	75.090	-0.620	0.530	0.600
2020/01/31 07:46:04.2	75.050	-0.570	0.480	0.610
2020/01/31 07:46:04.3	75.000	-0.510	0.420	0.610
2020/01/31 07:46:04.4	74.960	-0.450	0.350	0.620
2020/01/31 07:46:04.5	74.930	-0.380	0.280	0.630
2020/01/31 07:46:04.6	74.900	-0.310	0.200	0.630
2020/01/31 07:46:04.7	74.860	-0.230	0.110	0.640
2020/01/31 07:46:04.8	74.840	-0.160	0.020	0.640
2020/01/31 07:46:04.9	74.810	-0.080	-0.070	0.650
2020/01/31 07:46:05.0	74.780	-0.000	-0.170	0.650
2020/01/31 07:46:05.1	74.760	0.080	-0.260	0.650
2020/01/31 07:46:05.2	74.740	0.160	-0.360	0.650
2020/01/31 07:46:05.3	74.700	0.230	-0.460	0.640
2020/01/31 07:46:05.4	74.680	0.310	-0.560	0.630
2020/01/31 07:46:05.5	74.660	0.380	-0.650	0.620
2020/01/31 07:46:05.6	74.640	0.440	-0.730	0.610
2020/01/31 07:46:05.7	74.620	0.510	-0.810	0.600
2020/01/31 07:46:05.8	74.610	0.570	-0.890	0.580
2020/01/31 07:46:05.9	74.590	0.620	-0.950	0.560
2020/01/31 07:46:06.0	74.570	0.670	-1.010	0.540
2020/01/31 07:46:06.1	74.560	0.710	-1.050	0.530
2020/01/31 07:46:06.2	74.540	0.750	-1.090	0.510
2020/01/31 07:46:06.3	74.510	0.780	-1.110	0.490
2020/01/31 07:46:06.4	74.490	0.800	-1.130	0.470
2020/01/31 07:46:06.5	74.470	0.820	-1.130	0.460
2020/01/31 07:46:06.6	74.450	0.830	-1.120	0.440
2020/01/31 07:46:06.7	74.430	0.840	-1.100	0.430
2020/01/31 07:46:06.8	74.400	0.840	-1.060	0.430
2020/01/31 07:46:06.9	74.380	0.830	-1.020	0.420
2020/01/31 07:46:07.0	74.350	0.820	-0.960	0.420
2020/01/31 07:46:07.1	74.330	0.800	-0.900	0.420
2020/01/31 07:46:07.2	74.300	0.780	-0.820	0.430
2020/01/31 07:46:07.3	74.280	0.750	-0.740	0.440
2020/01/31 07:46:07.4	74.250	0.720	-0.650	0.450
2020/01/31 07:46:07.5	74.220	0.680	-0.560	0.470
2020/01/31 07:46:07.6	74.200	0.640	-0.460	0.490
2020/01/31 07:46:07.7	74.170	0.600	-0.360	0.510
2020/01/31 07:46:07.8	74.140	0.550	-0.260	0.530
2020/01/31 07:46:07.9	74.120	0.500	-0.160	0.550
2020/01/31 07:46:08.0	74.090	0.450	-0.060	0.580
2020/01/31 07:46:08.1	74.070	0.400	0.030	0.600
2020/01/31 07:46:08.2	74.050	0.350	0.120	0.630
2020/01/31 07:46:08.3	74.020	0.300	0.210	0.650
2020/01/31 07:46:08.4	74.000	0.250	0.290	0.680
2020/01/31 07:46:08.5	73.990	0.210	0.360	0.700
2020/01/31 07:46:08.6	73.970	0.160	0.420	0.720
2020/01/31 07:46:08.7	73.960	0.120	0.470	0.740
2020/01/31 07:46:08.8	73.950	0.070	0.510	0.750
2020/01/31 07:46:08.9	73.930	0.030	0.540	0.770
2020/01/31 07:46:09.0	73.920	-0.000	0.570	0.780
2020/01/31 07:46:09.1	73.910	-0.040	0.580	0.790
2020/01/31 07:46:09.2	73.900	-0.070	0.590	0.800
2020/01/31 07:46:09.3	73.870	-0.100	0.580	0.800
2020/01/31 07:46:09.4	73.850	-0.130	0.570	0.810
2020/01/31 07:46:09.5	73.830	-0.150	0.550	0.810
2020/01/31 07:46:09.6	73.810	-0.170	0.530	0.810
2020/01/31 07:46:09.7	73.790	-0.190	0.500	0.810
2020/01/31 07:46:09.8	73.770	-0.210	0.460	0.810
2020/01/31 07:46:09.9	73.740	-0.220	0.420	0.810
2020/01/31 07:46:10.0	73.710	-0.230	0.380	0.810
2020/01/31 07:46:10.1	73.680	-0.240	0.330	0.810
2020/01/31 07:46:10.2	73.640	-0.250	0.290	0.810
2020/01/31 07:46:10.3	73.600	-0.260	0.230	0.810
2020/01/31 07:46:10.4	73.560	-0.260	0.180	0.810
2020/01/31 07:46:10.5	73.510	-0.260	0.130	0.820
2020/01/31 07:46:10.6	73.470	-0.260	0.080	0.830
2020/01/31 07:46:10.7	73.420	-0.260	0.030	0.840
2020/01/31 07:46:10.8	73.380	-0.250	-0.020	0.850
2020/01/31 07:46:10.9	73.330	-0.250	-0.060	0.870
2020/01/31 07:46:11.0	73.280	-0.240	-0.110	0.880
2020/01/31 07:46:11.1	73.230	-0.240	-0.150	0.900
2020/01/31 07:46:11.2	73.180	-0.230	-0.190	0.920
2020/01/31 07:46:11.3	73.140	-0.220	-0.220	0.940
2020/01/31 07:46:11.4	73.090	-0.220	-0.250	0.950
2020/01/31 07:46:11.5	73.050	-0.210	-0.280	0.970
2020/01/31 07:46:11.6	73.010	-0.200	-0.310	0.990
2020/01/31 07:46:11.7	72.970	-0.190	-0.330	1.010
2020/01/31 07:46:11.8	72.940	-0.180	-0.350	1.030
2020/01/31 07:46:11.9	72.910	-0.170	-0.370	1.050
2020/01/31 07:46:12.0	72.880	-0.160	-0.380	1.070
2020/01/31 07:46:12.1	72.850	-0.150	-0.390	1.080
2020/01/31 07:46:12.2	72.830	-0.140	-0.390	1.090
2020/01/31 07:46:12.3	72.810	-0.140	-0.400	1.100
2020/01/31 07:46:12.4	72.800	-0.130	-0.400	1.110
2020/01/31 07:46:12.5	72.780	-0.120	-0.400	1.120
2020/01/31 07:46:12.6	72.770	-0.120	-0.390	1.130
2020/01/31 07:46:12.7	72.760	-0.110	-0.390	1.130
2020/01/31 07:46:12.8	72.750	-0.110	-0.380	1.130
2020/01/31 07:46:12.9	72.750	-0.100	-0.370	1.130
2020/01/31 07:46:13.0	72.740	-0.100	-0.360	1.130
2020/01/31 07:46:13.1	72.730	-0.090	-0.350	1.120
2020/01/31 07:46:13.2	72.730	-0.090	-0.330	1.120
2020/01/31 07:46:13.3	72.720	-0.090	-0.330	1.110
2020/01/31 07:46:13.4	72.720	-0.090	-0.310	1.100
2020/01/31 07:46:13.5	72.710	-0.090	-0.300	1.100
2020/01/31 07:46:13.6	72.710	-0.090	-0.290	1.090
2020/01/31 07:46:13.7	72.700	-0.090	-0.280	1.080
2020/01/31 07:46:13.8	72.690	-0.090	-0.270	1.070
2020/01/31 07:46:13.9	72.680	-0.090	-0.260	1.060
2020/01/31 07:46:14.0	72.660	-0.100	-0.250	1.050
2020/01/31 07:46:14.1	72.650	-0.100	-0.240	1.050
2020/01/31 07:46:14.2	72.630	-0.100	-0.230	1.040
2020/01/31 07:46:14.3	72.610	-0.110	-0.220	1.040
2020/01/31 07:46:14.4	72.590	-0.110	-0.220	1.030
2020/01/31 07:46:14.5	72.570	-0.120	-0.220	1.030
2020/01/31 07:46:14.6	72.540	-0.120	-0.210	1.030
2020/01/31 07:46:14.7	72.510	-0.130	-0.210	1.030
2020/01/31 07:46:14.8	72.480	-0.130	-0.210	1.030
2020/01/31 07:46:14.9	72.450	-0.140	-0.210	1.030
2020/01/31 07:46:15.0	72.420	-0.150	-0.210	1.030
2020/01/31 07:46:15.1	72.390	-0.150	-0.210	1.030
2020/01/31 07:46:15.2	72.350	-0.160	-0.210	1.030
2020/01/31 07:46:15.3	72.310	-0.170	-0.210	1.030
2020/01/31 07:46:15.4	72.270	-0.170	-0.210	1.030
2020/01/31 07:46:15.5	72.240	-0.180	-0.210	1.020
2020/01/31 07:46:15.6	72.200	-0.180	-0.210	1.020
2020/01/31 07:46:15.7	72.170	-0.190	-0.210	1.010
2020/01/31 07:46:15.8	72.130	-0.190	-0.210	1.000
2020/01/31 07:46:15.9	72.100	-0.190	-0.210	0.990
2020/01/31 07:46:16.0	72.060	-0.200	-0.210	0.970
2020/01/31 07:46:16.1	72.030	-0.200	-0.210	0.950
2020/01/31 07:46:16.2	72.000	-0.200	-0.210	0.930
2020/01/31 07:46:16.3	71.960	-0.190	-0.210	0.900
2020/01/31 07:46:16.4	71.930	-0.190	-0.210	0.880
2020/01/31 07:46:16.5	71.900	-0.190	-0.210	0.850
2020/01/31 07:46:16.6	71.870	-0.180	-0.210	0.820
2020/01/31 07:46:16.7	71.840	-0.180	-0.210	0.790
2020/01/31 07:46:16.8	71.810	-0.170	-0.210	0.760
2020/01/31 07:46:16.9	71.780	-0.160	-0.200	0.730
2020/01/31 07:46:17.0	71.760	-0.150	-0.200	0.690
2020/01/31 07:46:17.1	71.730	-0.140	-0.200	0.660
2020/01/31 07:46:17.2	71.700	-0.120	-0.200	0.630
2020/01/31 07:46:17.3	71.670	-0.110	-0.190	0.600
2020/01/31 07:46:17.4	71.650	-0.100	-0.190	0.570
2020/01/31 07:46:17.5	71.620	-0.080	-0.180	0.540
2020/01/31 07:46:17.6	71.600	-0.070	-0.180	0.510
2020/01/31 07:46:17.7	71.580	-0.050	-0.170	0.480
2020/01/31 07:46:17.8	71.550	-0.030	-0.170	0.460
2020/01/31 07:46:17.9	71.530	-0.020	-0.160	0.430
2020/01/31 07:46:18.0	71.510	-0.000	-0.160	0.410
2020/01/31 07:46:18.1	71.490	0.010	-0.150	0.390
2020/01/31 07:46:18.2	71.460	0.030	-0.150	0.370
2020/01/31 07:46:18.3	71.440	0.040	-0.140	0.350
2020/01/31 07:46:18.4	71.420	0.060	-0.130	0.330
2020/01/31 07:46:18.5	71.390	0.070	-0.130	0.310
2020/01/31 07:46:18.6	71.370	0.090	-0.120	0.290
2020/01/31 07:46:18.7	71.350	0.100	-0.120	0.270
2020/01/31 07:46:18.8	71.330	0.110	-0.120	0.260
2020/01/31 07:46:18.9	71.300	0.120	-0.110	0.240
2020/01/31 07:46:19.0	71.280	0.130	-0.110	0.220
2020/01/31 07:46:19.1	71.260	0.140	-0.110	0.200
2020/01/31 07:46:19.2	71.240	0.150	-0.110	0.190
2020/01/31 07:46:19.3	71.220	0.160	-0.110	0.170
2020/01/31 07:46:19.4	71.190	0.160	-0.110	0.150
2020/01/31 07:46:19.5	71.170	0.170	-0.110	0.130
2020/01/31 07:46:19.6	71.150	0.180	-0.120	0.110
2020/01/31 07:46:19.7	71.120	0.180	-0.120	0.090
2020/01/31 07:46:19.8	71.100	0.180	-0.130	0.070
2020/01/31 07:46:19.9	71.070	0.190	-0.130	0.060
2020/01/31 07:46:20.0	71.050	0.190	-0.140	0.040
2020/01/31 07:46:20.1	71.020	0.190	-0.150	0.020
2020/01/31 07:46:20.2	71.000	0.200	-0.160	0.010
2020/01/31 07:46:20.3	70.970	0.200	-0.180	-0.010
2020/01/31 07:46:20.4	70.940	0.200	-0.190	-0.020
2020/01/31 07:46:20.5	70.910	0.200	-0.200	-0.030
2020/01/31 07:46:20.6	70.880	0.200	-0.210	-0.030
2020/01/31 07:46:20.7	70.840	0.200	-0.220	-0.030
2020/01/31 07:46:20.8	70.810	0.200	-0.230	-0.020
2020/01/31 07:46:20.9	70.770	0.200	-0.240	-0.010
2020/01/31 07:46:21.0	70.730	0.200	-0.260	0.000
2020/01/31 07:46:21.1	70.690	0.200	-0.270	0.020
2020/01/31 07:46:21.2	70.650	0.200	-0.280	0.040
2020/01/31 07:46:21.3	70.610	0.200	-0.280	0.070
2020/01/31 07:46:21.4	70.570	0.200	-0.290	0.100
2020/01/31 07:46:21.5	70.520	0.190	-0.300	0.140
2020/01/31 07:46:21.6	70.470	0.190	-0.300	0.180
2020/01/31 07:46:21.7	70.420	0.190	-0.310	0.220
2020/01/31 07:46:21.8	70.370	0.180	-0.310	0.260
2020/01/31 07:46:21.9	70.320	0.180	-0.320	0.310
2020/01/31 07:46:22.0	70.270	0.180	-0.320	0.360
2020/01/31 07:46:22.1	70.220	0.170	-0.320	0.410
2020/01/31 07:46:22.2	70.160	0.160	-0.320	0.450
2020/01/31 07:46:22.3	70.120	0.160	-0.330	0.500
2020/01/31 07:46:22.4	70.060	0.150	-0.330	0.540
2020/01/31 07:46:22.5	70.010	0.150	-0.320	0.580
2020/01/31 07:46:22.6	69.950	0.140	-0.320	0.620
2020/01/31 07:46:22.7	69.900	0.130	-0.320	0.660
2020/01/31 07:46:22.8	69.840	0.120	-0.310	0.690
2020/01/31 07:46:22.9	69.790	0.120	-0.300	0.720
2020/01/31 07:46:23.0	69.740	0.110	-0.290	0.750
2020/01/31 07:46:23.1	69.690	0.100	-0.280	0.770
2020/01/31 07:46:23.2	69.640	0.090	-0.270	0.780
2020/01/31 07:46:23.3	69.590	0.090	-0.250	0.800
2020/01/31 07:46:23.4	69.550	0.080	-0.240	0.810
2020/01/31 07:46:23.5	69.510	0.070	-0.220	0.810
2020/01/31 07:46:23.6	69.470	0.070	-0.200	0.810
2020/01/31 07:46:23.7	69.430	0.060	-0.180	0.810
2020/01/31 07:46:23.8	69.400	0.060	-0.160	0.800
2020/01/31 07:46:23.9	69.370	0.050	-0.140	0.800
2020/01/31 07:46:24.0	69.350	0.050	-0.120	0.790
2020/01/31 07:46:24.1	69.330	0.040	-0.100	0.770
2020/01/31 07:46:24.2	69.310	0.040	-0.080	0.760
2020/01/31 07:46:24.3	69.270	0.040	-0.060	0.740
2020/01/31 07:46:24.4	69.260	0.030	-0.040	0.730
2020/01/31 07:46:24.5	69.240	0.030	-0.030	0.710
2020/01/31 07:46:24.6	69.230	0.030	-0.010	0.700
2020/01/31 07:46:24.7	69.230	0.030	0.000	0.680
2020/01/31 07:46:24.8	69.220	0.030	0.010	0.670
2020/01/31 07:46:24.9	69.220	0.030	0.020	0.660
2020/01/31 07:46:25.0	69.220	0.040	0.030	0.650
2020/01/31 07:46:25.1	69.220	0.040	0.030	0.650
2020/01/31 07:46:25.2	69.210	0.040	0.030	0.640
2020/01/31 07:46:25.3	69.220	0.050	0.030	0.640
2020/01/31 07:46:25.4	69.220	0.050	0.030	0.640
2020/01/31 07:46:25.5	69.220	0.050	0.020	0.640
2020/01/31 07:46:25.6	69.220	0.060	0.010	0.640
2020/01/31 07:46:25.7	69.210	0.060	0.000	0.650
2020/01/31 07:46:25.8	69.210	0.070	-0.010	0.660
2020/01/31 07:46:25.9	69.200	0.070	-0.030	0.670
2020/01/31 07:46:26.0	69.200	0.080	-0.050	0.680
2020/01/31 07:46:26.1	69.190	0.080	-0.070	0.690
2020/01/31 07:46:26.2	69.180	0.080	-0.090	0.700
2020/01/31 07:46:26.3	69.170	0.090	-0.120	0.710
2020/01/31 07:46:26.4	69.150	0.090	-0.140	0.730
2020/01/31 07:46:26.5	69.140	0.090	-0.170	0.740
2020/01/31 07:46:26.6	69.120	0.090	-0.190	0.750
2020/01/31 07:46:26.7	69.100	0.090	-0.220	0.770
2020/01/31 07:46:26.8	69.080	0.090	-0.250	0.780
2020/01/31 07:46:26.9	69.060	0.090	-0.270	0.790
2020/01/31 07:46:27.0	69.030	0.090	-0.290	0.810
2020/01/31 07:46:27.1	69.000	0.090	-0.310	0.820
2020/01/31 07:46:27.2	68.970	0.080	-0.330	0.830
2020/01/31 07:46:27.3	68.940	0.080	-0.350	0.850
2020/01/31 07:46:27.4	68.910	0.070	-0.360	0.860
2020/01/31 07:46:27.5	68.870	0.060	-0.380	0.870
2020/01/31 07:46:27.6	68.840	0.050	-0.380	0.890
2020/01/31 07:46:27.7	68.800	0.040	-0.390	0.910
2020/01/31 07:46:27.8	68.760	0.030	-0.390	0.930
2020/01/31 07:46:27.9	68.730	0.020	-0.380	0.940
2020/01/31 07:46:28.0	68.690	0.000	-0.380	0.970
2020/01/31 07:46:28.1	68.650	-0.020	-0.370	0.990
2020/01/31 07:46:28.2	68.610	-0.030	-0.350	1.010
2020/01/31 07:46:28.3	68.560	-0.050	-0.340	1.030
2020/01/31 07:46:28.4	68.520	-0.070	-0.320	1.060
2020/01/31 07:46:28.5	68.480	-0.090	-0.300	1.080
2020/01/31 07:46:28.6	68.440	-0.110	-0.280	1.100
2020/01/31 07:46:28.7	68.410	-0.130	-0.260	1.130
2020/01/31 07:46:28.8	68.370	-0.150	-0.230	1.150
2020/01/31 07:46:28.9	68.340	-0.170	-0.210	1.170
2020/01/31 07:46:29.0	68.300	-0.190	-0.180	1.200
2020/01/31 07:46:29.1	68.270	-0.210	-0.160	1.220
2020/01/31 07:46:29.2	68.240	-0.230	-0.130	1.240
2020/01/31 07:46:29.3	68.210	-0.250	-0.110	1.250
2020/01/31 07:46:29.4	68.190	-0.270	-0.090	1.270
2020/01/31 07:46:29.5	68.170	-0.280	-0.070	1.280
2020/01/31 07:46:29.6	68.140	-0.300	-0.050	1.300
2020/01/31 07:46:29.7	68.120	-0.310	-0.030	1.310
2020/01/31 07:46:29.8	68.100	-0.320	-0.010	1.320
2020/01/31 07:46:29.9	68.080	-0.330	0.010	1.330
2020/01/31 07:46:30.0	68.060	-0.340	0.020	1.340
2020/01/31 07:46:30.1	68.040	-0.350	0.030	1.350
2020/01/31 07:46:30.2	68.020	-0.360	0.050	1.360
2020/01/31 07:46:30.3	68.010	-0.360	0.060	1.360
2020/01/31 07:46:30.4	67.980	-0.360	0.070	1.370
2020/01/31 07:46:30.5	67.960	-0.360	0.090	1.370
2020/01/31 07:46:30.6	67.930	-0.360	0.100	1.370
2020/01/31 07:46:30.7	67.900	-0.360	0.110	1.380
2020/01/31 07:46:30.8	67.870	-0.360	0.120	1.380
2020/01/31 07:46:30.9	67.840	-0.350	0.120	1.380
2020/01/31 07:46:31.0	67.810	-0.350	0.130	1.380
2020/01/31 07:46:31.1	67.770	-0.340	0.140	1.380
2020/01/31 07:46:31.2	67.730	-0.330	0.150	1.380
2020/01/31 07:46:31.3	67.700	-0.320	0.150	1.380
2020/01/31 07:46:31.4	67.660	-0.300	0.150	1.370
2020/01/31 07:46:31.5	67.610	-0.290	0.150	1.360
2020/01/31 07:46:31.6	67.570	-0.270	0.150	1.360
2020/01/31 07:46:31.7	67.520	-0.260	0.150	1.350
2020/01/31 07:46:31.8	67.480	-0.240	0.140	1.330
2020/01/31 07:46:31.9	67.430	-0.220	0.130	1.320
2020/01/31 07:46:32.0	67.380	-0.200	0.120	1.310
2020/01/31 07:46:32.1	67.340	-0.180	0.100	1.290
2020/01/31 07:46:32.2	67.290	-0.160	0.080	1.270
2020/01/31 07:46:32.3	67.260	-0.140	0.060	1.240
2020/01/31 07:46:32.4	67.210	-0.120	0.040	1.220
2020/01/31 07:46:32.5	67.170	-0.100	0.010	1.190
2020/01/31 07:46:32.6	67.130	-0.080	-0.030	1.160
2020/01/31 07:46:32.7	67.080	-0.060	-0.060	1.130
2020/01/31 07:46:32.8	67.040	-0.050	-0.100	1.100
2020/01/31 07:46:32.9	67.000	-0.030	-0.140	1.060
2020/01/31 07:46:33.0	66.960	-0.010	-0.190	1.020
2020/01/31 07:46:33.1	66.920	0.010	-0.230	0.980
2020/01/31 07:46:33.2	66.880	0.020	-0.280	0.940
2020/01/31 07:46:33.3	66.840	0.030	-0.330	0.890
2020/01/31 07:46:33.4	66.810	0.050	-0.380	0.850
2020/01/31 07:46:33.5	66.770	0.060	-0.420	0.790
2020/01/31 07:46:33.6	66.740	0.070	-0.470	0.740
2020/01/31 07:46:33.7	66.710	0.080	-0.520	0.690
2020/01/31 07:46:33.8	66.680	0.080	-0.560	0.630
2020/01/31 07:46:33.9	66.660	0.090	-0.610	0.570
2020/01/31 07:46:34.0	66.630	0.090	-0.650	0.510
2020/01/31 07:46:34.1	66.610	0.100	-0.680	0.450
2020/01/31 07:46:34.2	66.590	0.100	-0.720	0.390
2020/01/31 07:46:34.3	66.570	0.100	-0.750	0.330
2020/01/31 07:46:34.4	66.550	0.100	-0.770	0.270
2020/01/31 07:46:34.5	66.530	0.100	-0.790	0.200
2020/01/31 07:46:34.6	66.520	0.110	-0.810	0.140
2020/01/31 07:46:34.7	66.500	0.110	-0.820	0.090
2020/01/31 07:46:34.8	66.490	0.110	-0.830	0.030
2020/01/31 07:46:34.9	66.470	0.110	-0.830	-0.020
2020/01/31 07:46:35.0	66.460	0.110	-0.830	-0.070
2020/01/31 07:46:35.1	66.450	0.110	-0.820	-0.120
2020/01/31 07:46:35.2	66.430	0.120	-0.800	-0.170
2020/01/31 07:46:35.3	66.410	0.120	-0.780	-0.210
2020/01/31 07:46:35.4	66.400	0.130	-0.760	-0.250
2020/01/31 07:46:35.5	66.380	0.140	-0.730	-0.280
2020/01/31 07:46:35.6	66.370	0.140	-0.700	-0.310
2020/01/31 07:46:35.7	66.350	0.150	-0.660	-0.330
2020/01/31 07:46:35.8	66.330	0.160	-0.620	-0.350
2020/01/31 07:46:35.9	66.310	0.180	-0.580	-0.360
2020/01/31 07:46:36.0	66.290	0.190	-0.530	-0.370
2020/01/31 07:46:36.1	66.270	0.200	-0.480	-0.370
2020/01/31 07:46:36.2	66.240	0.220	-0.430	-0.360
2020/01/31 07:46:36.3	66.230	0.230	-0.380	-0.350
2020/01/31 07:46:36.4	66.200	0.250	-0.330	-0.330
2020/01/31 07:46:36.5	66.170	0.260	-0.280	-0.310
2020/01/31 07:46:36.6	66.140	0.280	-0.230	-0.280
2020/01/31 07:46:36.7	66.100	0.300	-0.170	-0.250
2020/01/31 07:46:36.8	66.070	0.310	-0.120	-0.210
2020/01/31 07:46:36.9	66.030	0.320	-0.080	-0.170
2020/01/31 07:46:37.0	65.990	0.340	-0.030	-0.130
2020/01/31 07:46:37.1	65.950	0.350	0.010	-0.080
2020/01/31 07:46:37.2	65.910	0.360	0.050	-0.030
2020/01/31 07:46:37.3	65.880	0.370	0.090	0.020
2020/01/31 07:46:37.4	65.830	0.380	0.120	0.070
2020/01/31 07:46:37.5	65.790	0.380	0.150	0.120
2020/01/31 07:46:37.6	65.760	0.380	0.180	0.170
2020/01/31 07:46:37.7	65.720	0.380	0.190	0.220
2020/01/31 07:46:37.8	65.680	0.380	0.210	0.280
2020/01/31 07:46:37.9	65.640	0.380	0.220	0.330
2020/01/31 07:46:38.0	65.600	0.370	0.230	0.370
2020/01/31 07:46:38.1	65.560	0.360	0.230	0.420
2020/01/31 07:46:38.2	65.530	0.350	0.220	0.470
2020/01/31 07:46:38.3	65.480	0.330	0.210	0.510
2020/01/31 07:46:38.4	65.440	0.320	0.200	0.550
2020/01/31 07:46:38.5	65.410	0.300	0.180	0.590
2020/01/31 07:46:38.6	65.380	0.270	0.160	0.620
2020/01/31 07:46:38.7	65.350	0.250	0.140	0.650
2020/01/31 07:46:38.8	65.320	0.230	0.120	0.680
2020/01/31 07:46:38.9	65.290	0.200	0.090	0.710
2020/01/31 07:46:39.0	65.270	0.170	0.060	0.740
2020/01/31 07:46:39.1	65.250	0.140	0.030	0.760
2020/01/31 07:46:39.2	65.230	0.110	-0.000	0.770
2020/01/31 07:46:39.3	65.220	0.080	-0.030	0.790
2020/01/31 07:46:39.4	65.200	0.050	-0.070	0.800
2020/01/31 07:46:39.5	65.190	0.020	-0.100	0.810
2020/01/31 07:46:39.6	65.190	-0.010	-0.130	0.810
2020/01/31 07:46:39.7	65.180	-0.040	-0.160	0.820
2020/01/31 07:46:39.8	65.180	-0.070	-0.190	0.820
2020/01/31 07:46:39.9	65.190	-0.090	-0.220	0.820
2020/01/31 07:46:40.0	65.190	-0.120	-0.250	0.820
2020/01/31 07:46:40.1	65.200	-0.140	-0.280	0.820
2020/01/31 07:46:40.2	65.220	-0.160	-0.300	0.810
2020/01/31 07:46:40.3	65.230	-0.170	-0.320	0.810
2020/01/31 07:46:40.4	65.250	-0.190	-0.340	0.810
2020/01/31 07:46:40.5	65.260	-0.190	-0.350	0.800
2020/01/31 07:46:40.6	65.280	-0.200	-0.370	0.800
2020/01/31 07:46:40.7	65.310	-0.200	-0.370	0.800
2020/01/31 07:46:40.8	65.330	-0.210	-0.380	0.810
2020/01/31 07:46:40.9	65.350	-0.200	-0.380	0.810
2020/01/31 07:46:41.0	65.370	-0.200	-0.370	0.820
2020/01/31 07:46:41.1	65.380	-0.190	-0.370	0.830
2020/01/31 07:46:41.2	65.400	-0.180	-0.350	0.840
2020/01/31 07:46:41.3	65.420	-0.170	-0.340	0.860
2020/01/31 07:46:41.4	65.430	-0.160	-0.320	0.880
2020/01/31 07:46:41.5	65.440	-0.140	-0.300	0.900
2020/01/31 07:46:41.6	65.440	-0.130	-0.270	0.920
2020/01/31 07:46:41.7	65.440	-0.120	-0.240	0.950
2020/01/31 07:46:41.8	65.440	-0.100	-0.200	0.970
2020/01/31 07:46:41.9	65.430	-0.090	-0.160	1.000
2020/01/31 07:46:42.0	65.420	-0.080	-0.120	1.040
2020/01/31 07:46:42.1	65.400	-0.070	-0.080	1.070
2020/01/31 07:46:42.2	65.380	-0.060	-0.030	1.110
2020/01/31 07:46:42.3	65.340	-0.050	0.020	1.150
2020/01/31 07:46:42.4	65.310	-0.050	0.070	1.190
2020/01/31 07:46:42.5	65.270	-0.050	0.130	1.240
2020/01/31 07:46:42.6	65.230	-0.050	0.180	1.280
2020/01/31 07:46:42.7	65.180	-0.060	0.230	1.330
2020/01/31 07:46:42.8	65.130	-0.070	0.280	1.380
2020/01/31 07:46:42.9	65.070	-0.080	0.330	1.430
2020/01/31 07:46:43.0	65.010	-0.100	0.380	1.470
2020/01/31 07:46:43.1	64.950	-0.120	0.420	1.520
2020/01/31 07:46:43.2	64.880	-0.140	0.460	1.570
2020/01/31 07:46:43.3	64.810	-0.170	0.490	1.620
2020/01/31 07:46:43.4	64.730	-0.190	0.520	1.660
2020/01/31 07:46:43.5	64.650	-0.230	0.550	1.700
2020/01/31 07:46:43.6	64.580	-0.260	0.570	1.740
2020/01/31 07:46:43.7	64.500	-0.290	0.580	1.770
2020/01/31 07:46:43.8	64.410	-0.330	0.590	1.800
2020/01/31 07:46:43.9	64.330	-0.370	0.580	1.830
2020/01/31 07:46:44.0	64.250	-0.410	0.570	1.840
2020/01/31 07:46:44.1	64.170	-0.440	0.560	1.860
2020/01/31 07:46:44.2	64.090	-0.480	0.530	1.860
2020/01/31 07:46:44.3	64.010	-0.520	0.500	1.860
2020/01/31 07:46:44.4	63.930	-0.550	0.460	1.850
2020/01/31 07:46:44.5	63.860	-0.590	0.420	1.830
2020/01/31 07:46:44.6	63.790	-0.620	0.360	1.810
2020/01/31 07:46:44.7	63.720	-0.640	0.300	1.780
2020/01/31 07:46:44.8	63.650	-0.670	0.240	1.740
2020/01/31 07:46:44.9	63.590	-0.690	0.160	1.700
2020/01/31 07:46:45.0	63.540	-0.700	0.090	1.650
2020/01/31 07:46:45.1	63.490	-0.710	0.000	1.590
2020/01/31 07:46:45.2	63.440	-0.720	-0.080	1.520
2020/01/31 07:46:45.3	63.420	-0.720	-0.170	1.450
2020/01/31 07:46:45.4	63.380	-0.710	-0.270	1.370
2020/01/31 07:46:45.5	63.350	-0.700	-0.360	1.290
2020/01/31 07:46:45.6	63.320	-0.680	-0.450	1.200
2020/01/31 07:46:45.7	63.300	-0.660	-0.550	1.110
2020/01/31 07:46:45.8	63.290	-0.630	-0.640	1.010
2020/01/31 07:46:45.9	63.270	-0.590	-0.740	0.920
2020/01/31 07:46:46.0	63.260	-0.550	-0.830	0.820
2020/01/31 07:46:46.1	63.260	-0.500	-0.910	0.720
2020/01/31 07:46:46.2	63.260	-0.450	-1.000	0.620
2020/01/31 07:46:46.3	63.270	-0.390	-1.070	0.520
2020/01/31 07:46:46.4	63.270	-0.330	-1.150	0.430
2020/01/31 07:46:46.5	63.280	-0.260	-1.210	0.340
2020/01/31 07:46:46.6	63.280	-0.190	-1.270	0.250
2020/01/31 07:46:46.7	63.290	-0.120	-1.320	0.170
2020/01/31 07:46:46.8	63.300	-0.050	-1.370	0.090
2020/01/31 07:46:46.9	63.300	0.020	-1.400	0.020
2020/01/31 07:46:47.0	63.310	0.100	-1.430	-0.040
2020/01/31 07:46:47.1	63.310	0.170	-1.450	-0.100
2020/01/31 07:46:47.2	63.310	0.250	-1.460	-0.150
2020/01/31 07:46:47.3	63.320	0.320	-1.460	-0.190
2020/01/31 07:46:47.4	63.320	0.380	-1.450	-0.230
2020/01/31 07:46:47.5	63.310	0.450	-1.430	-0.260
2020/01/31 07:46:47.6	63.300	0.510	-1.400	-0.290
2020/01/31 07:46:47.7	63.290	0.570	-1.370	-0.310
2020/01/31 07:46:47.8	63.280	0.620	-1.320	-0.320
2020/01/31 07:46:47.9	63.270	0.670	-1.270	-0.340
2020/01/31 07:46:48.0	63.250	0.710	-1.210	-0.340
2020/01/31 07:46:48.1	63.230	0.740	-1.150	-0.340
2020/01/31 07:46:48.2	63.210	0.770	-1.070	-0.340
2020/01/31 07:46:48.3	63.180	0.790	-1.000	-0.330
2020/01/31 07:46:48.4	63.150	0.810	-0.910	-0.320
2020/01/31 07:46:48.5	63.120	0.820	-0.830	-0.310
2020/01/31 07:46:48.6	63.080	0.830	-0.740	-0.290
2020/01/31 07:46:48.7	63.050	0.820	-0.640	-0.270
2020/01/31 07:46:48.8	63.010	0.820	-0.550	-0.250
2020/01/31 07:46:48.9	62.970	0.800	-0.450	-0.220
2020/01/31 07:46:49.0	62.920	0.790	-0.360	-0.190
2020/01/31 07:46:49.1	62.880	0.760	-0.260	-0.150
2020/01/31 07:46:49.2	62.830	0.730	-0.160	-0.110
2020/01/31 07:46:49.3	62.790	0.700	-0.070	-0.080
2020/01/31 07:46:49.4	62.740	0.670	0.020	-0.030
2020/01/31 07:46:49.5	62.690	0.630	0.110	0.010
2020/01/31 07:46:49.6	62.650	0.590	0.190	0.060
2020/01/31 07:46:49.7	62.600	0.550	0.270	0.100
2020/01/31 07:46:49.8	62.550	0.500	0.350	0.150
2020/01/31 07:46:49.9	62.510	0.460	0.420	0.200
2020/01/31 07:46:50.0	62.460	0.410	0.480	0.250
2020/01/31 07:46:50.1	62.420	0.360	0.540	0.290
2020/01/31 07:46:50.2	62.380	0.320	0.600	0.340
2020/01/31 07:46:50.3	62.330	0.270	0.640	0.390
2020/01/31 07:46:50.4	62.290	0.230	0.680	0.430
2020/01/31 07:46:50.5	62.250	0.180	0.710	0.480
2020/01/31 07:46:50.6	62.210	0.140	0.740	0.520
2020/01/31 07:46:50.7	62.170	0.100	0.760	0.560
2020/01/31 07:46:50.8	62.130	0.060	0.780	0.600
2020/01/31 07:46:50.9	62.090	0.030	0.790	0.640
2020/01/31 07:46:51.0	62.050	-0.010	0.790	0.680
2020/01/31 07:46:51.1	62.020	-0.040	0.790	0.710
2020/01/31 07:46:51.2	61.980	-0.070	0.790	0.740
2020/01/31 07:46:51.3	61.960	-0.090	0.770	0.770
2020/01/31 07:46:51.4	61.920	-0.120	0.760	0.800
2020/01/31 07:46:51.5	61.880	-0.140	0.740	0.830
2020/01/31 07:46:51.6	61.840	-0.160	0.710	0.850
2020/01/31 07:46:51.7	61.790	-0.170	0.690	0.880
2020/01/31 07:46:51.8	61.750	-0.190	0.660	0.900
2020/01/31 07:46:51.9	61.710	-0.200	0.620	0.910
2020/01/31 07:46:52.0	61.670	-0.210	0.580	0.930
2020/01/31 07:46:52.1	61.630	-0.210	0.540	0.940
2020/01/31 07:46:52.2	61.590	-0.220	0.500	0.950
2020/01/31 07:46:52.3	61.560	-0.220	0.450	0.960
2020/01/31 07:46:52.4	61.520	-0.220	0.400	0.970
2020/01/31 07:46:52.5	61.490	-0.220	0.350	0.970
2020/01/31 07:46:52.6	61.460	-0.210	0.290	0.970
2020/01/31 07:46:52.7	61.430	-0.210	0.240	0.970
2020/01/31 07:46:52.8	61.400	-0.200	0.180	0.970
2020/01/31 07:46:52.9	61.370	-0.200	0.120	0.960
2020/01/31 07:46:53.0	61.350	-0.190	0.050	0.960
2020/01/31 07:46:53.1	61.330	-0.180	-0.010	0.950
2020/01/31 07:46:53.2	61.310	-0.170	-0.070	0.950
2020/01/31 07:46:53.3	61.280	-0.160	-0.140	0.940
2020/01/31 07:46:53.4	61.260	-0.150	-0.200	0.930
2020/01/31 07:46:53.5	61.250	-0.140	-0.260	0.930
2020/01/31 07:46:53.6	61.230	-0.130	-0.320	0.920
2020/01/31 07:46:53.7	61.210	-0.120	-0.380	0.920
2020/01/31 07:46:53.8	61.200	-0.120	-0.440	0.920
2020/01/31 07:46:53.9	61.190	-0.110	-0.490	0.910
2020/01/31 07:46:54.0	61.170	-0.110	-0.540	0.910
2020/01/31 07:46:54.1	61.160	-0.100	-0.590	0.910
2020/01/31 07:46:54.2	61.140	-0.100	-0.640	0.900
2020/01/31 07:46:54.3	61.130	-0.100	-0.680	0.900
2020/01/31 07:46:54.4	61.110	-0.100	-0.710	0.890
2020/01/31 07:46:54.5	61.100	-0.100	-0.740	0.890
2020/01/31 07:46:54.6	61.090	-0.100	-0.760	0.880
2020/01/31 07:46:54.7	61.070	-0.110	-0.780	0.870
2020/01/31 07:46:54.8	61.060	-0.120	-0.800	0.870
2020/01/31 07:46:54.9	61.040	-0.120	-0.800	0.870
2020/01/31 07:46:55.0	61.020	-0.130	-0.800	0.860
2020/01/31 07:46:55.1	61.000	-0.140	-0.800	0.860
2020/01/31 07:46:55.2	60.980	-0.150	-0.790	0.860
2020/01/31 07:46:55.3	60.950	-0.160	-0.770	0.850
2020/01/31 07:46:55.4	60.920	-0.170	-0.750	0.860
2020/01/31 07:46:55.5	60.900	-0.180	-0.720	0.860
2020/01/31 07:46:55.6	60.870	-0.190	-0.690	0.870
2020/01/31 07:46:55.7	60.830	-0.210	-0.650	0.880
2020/01/31 07:46:55.8	60.790	-0.220	-0.610	0.890
2020/01/31 07:46:55.9	60.750	-0.230	-0.560	0.910
2020/01/31 07:46:56.0	60.710	-0.240	-0.510	0.930
2020/01/31 07:46:56.1	60.660	-0.250	-0.460	0.950
2020/01/31 07:46:56.2	60.610	-0.270	-0.400	0.970
2020/01/31 07:46:56.3	60.560	-0.280	-0.350	1.000
2020/01/31 07:46:56.4	60.500	-0.290	-0.290	1.020
2020/01/31 07:46:56.5	60.450	-0.300	-0.240	1.050
2020/01/31 07:46:56.6	60.390	-0.310	-0.190	1.080
2020/01/31 07:46:56.7	60.330	-0.320	-0.130	1.100
2020/01/31 07:46:56.8	60.270	-0.320	-0.080	1.130
2020/01/31 07:46:56.9	60.220	-0.330	-0.040	1.160
2020/01/31 07:46:57.0	60.160	-0.330	0.000	1.180
2020/01/31 07:46:57.1	60.100	-0.340	0.040	1.210
2020/01/31 07:46:57.2	60.050	-0.340	0.070	1.230
2020/01/31 07:46:57.3	59.990	-0.330	0.100	1.250
2020/01/31 07:46:57.4	59.940	-0.330	0.120	1.270
2020/01/31 07:46:57.5	59.890	-0.330	0.130	1.290
2020/01/31 07:46:57.6	59.840	-0.320	0.140	1.300
2020/01/31 07:46:57.7	59.790	-0.310	0.140	1.310
2020/01/31 07:46:57.8	59.750	-0.300	0.140	1.320
2020/01/31 07:46:57.9	59.710	-0.280	0.130	1.330
2020/01/31 07:46:58.0	59.670	-0.260	0.110	1.330
2020/01/31 07:46:58.1	59.640	-0.240	0.080	1.330
2020/01/31 07:46:58.2	59.600	-0.220	0.060	1.330
2020/01/31 07:46:58.3	59.570	-0.190	0.020	1.320
2020/01/31 07:46:58.4	59.540	-0.170	-0.020	1.310
2020/01/31 07:46:58.5	59.520	-0.140	-0.060	1.300
2020/01/31 07:46:58.6	59.500	-0.110	-0.110	1.280
2020/01/31 07:46:58.7	59.480	-0.080	-0.150	1.260
2020/01/31 07:46:58.8	59.460	-0.040	-0.200	1.240
2020/01/31 07:46:58.9	59.450	-0.010	-0.250	1.210
2020/01/31 07:46:59.0	59.430	0.030	-0.300	1.180
2020/01/31 07:46:59.1	59.420	0.060	-0.340	1.150
2020/01/31 07:46:59.2	59.410	0.100	-0.390	1.110
2020/01/31 07:46:59.3	59.400	0.130	-0.430	1.070
2020/01/31 07:46:59.4	59.390	0.160	-0.470	1.040
2020/01/31 07:46:59.5	59.370	0.200	-0.500	0.990
2020/01/31 07:46:59.6	59.360	0.230	-0.530	0.950
2020/01/31 07:46:59.7	59.340	0.260	-0.560	0.910
2020/01/31 07:46:59.8	59.320	0.290	-0.570	0.870
2020/01/31 07:46:59.9	59.300	0.310	-0.580	0.830
2020/01/31 07:47:00.0	59.270	0.330	-0.590	0.790
2020/01/31 07:47:00.1	59.240	0.360	-0.590	0.750
2020/01/31 07:47:00.2	59.200	0.370	-0.580	0.710
2020/01/31 07:47:00.3	59.160	0.390	-0.560	0.680
2020/01/31 07:47:00.4	59.120	0.400	-0.540	0.650
2020/01/31 07:47:00.5	59.070	0.410	-0.510	0.630
2020/01/31 07:47:00.6	59.020	0.420	-0.470	0.600
2020/01/31 07:47:00.7	58.970	0.420	-0.430	0.580
2020/01/31 07:47:00.8	58.910	0.420	-0.380	0.560
2020/01/31 07:47:00.9	58.850	0.420	-0.340	0.550
2020/01/31 07:47:01.0	58.790	0.410	-0.280	0.540
2020/01/31 07:47:01.1	58.730	0.400	-0.230	0.530
2020/01/31 07:47:01.2	58.670	0.390	-0.180	0.520
2020/01/31 07:47:01.3	58.600	0.370	-0.120	0.520
2020/01/31 07:47:01.4	58.540	0.360	-0.070	0.520
2020/01/31 07:47:01.5	58.470	0.340	-0.020	0.510
2020/01/31 07:47:01.6	58.410	0.310	0.030	0.510
2020/01/31 07:47:01.7	58.350	0.290	0.070	0.510
2020/01/31 07:47:01.8	58.300	0.270	0.110	0.500
2020/01/31 07:47:01.9	58.240	0.240	0.140	0.500
2020/01/31 07:47:02.0	58.190	0.210	0.170	0.490
2020/01/31 07:47:02.1	58.140	0.190	0.190	0.480
2020/01/31 07:47:02.2	58.100	0.160	0.200	0.470
2020/01/31 07:47:02.3	58.070	0.140	0.210	0.450
2020/01/31 07:47:02.4	58.040	0.120	0.210	0.440
2020/01/31 07:47:02.5	58.010	0.090	0.200	0.420
2020/01/31 07:47:02.6	57.980	0.070	0.180	0.400
2020/01/31 07:47:02.7	57.960	0.050	0.160	0.380
2020/01/31 07:47:02.8	57.950	0.040	0.130	0.350
2020/01/31 07:47:02.9	57.930	0.020	0.090	0.330
2020/01/31 07:47:03.0	57.930	0.010	0.050	0.300
2020/01/31 07:47:03.1	57.920	-0.000	0.000	0.270
2020/01/31 07:47:03.2	57.920	-0.010	-0.050	0.240
2020/01/31 07:47:03.3	57.910	-0.010	-0.100	0.210
2020/01/31 07:47:03.4	57.910	-0.020	-0.150	0.180
2020/01/31 07:47:03.5	57.910	-0.020	-0.210	0.150
2020/01/31 07:47:03.6	57.920	-0.020	-0.260	0.130
2020/01/31 07:47:03.7	57.920	-0.020	-0.310	0.100
2020/01/31 07:47:03.8	57.930	-0.020	-0.360	0.080
2020/01/31 07:47:03.9	57.930	-0.010	-0.400	0.060
2020/01/31 07:47:04.0	57.930	-0.010	-0.440	0.050
2020/01/31 07:47:04.1	57.930	-0.000	-0.470	0.040
2020/01/31 07:47:04.2	57.930	0.000	-0.490	0.030
2020/01/31 07:47:04.3	57.930	0.010	-0.510	0.030
2020/01/31 07:47:04.4	57.920	0.010	-0.530	0.030
2020/01/31 07:47:04.5	57.920	0.020	-0.530	0.040
2020/01/31 07:47:04.6	57.910	0.020	-0.530	0.060
2020/01/31 07:47:04.7	57.900	0.030	-0.510	0.080
2020/01/31 07:47:04.8	57.880	0.030	-0.500	0.100
2020/01/31 07:47:04.9	57.860	0.030	-0.470	0.130
2020/01/31 07:47:05.0	57.840	0.030	-0.440	0.160
2020/01/31 07:47:05.1	57.810	0.030	-0.400	0.200
2020/01/31 07:47:05.2	57.780	0.020	-0.360	0.240
2020/01/31 07:47:05.3	57.750	0.020	-0.310	0.290
2020/01/31 07:47:05.4	57.720	0.010	-0.260	0.330
2020/01/31 07:47:05.5	57.680	-0.000	-0.210	0.380
2020/01/31 07:47:05.6	57.640	-0.010	-0.160	0.430
2020/01/31 07:47:05.7	57.610	-0.030	-0.110	0.490
2020/01/31 07:47:05.8	57.570	-0.050	-0.050	0.540
2020/01/31 07:47:05.9	57.530	-0.060	-0.000	0.590
2020/01/31 07:47:06.0	57.480	-0.080	0.050	0.650
2020/01/31 07:47:06.1	57.440	-0.100	0.100	0.700
2020/01/31 07:47:06.2	57.400	-0.130	0.140	0.750
2020/01/31 07:47:06.3	57.370	-0.150	0.170	0.800
2020/01/31 07:47:06.4	57.330	-0.170	0.210	0.850
2020/01/31 07:47:06.5	57.290	-0.200	0.240	0.890
2020/01/31 07:47:06.6	57.260	-0.220	0.260	0.940
2020/01/31 07:47:06.7	57.230	-0.240	0.270	0.980
2020/01/31 07:47:06.8	57.190	-0.260	0.280	1.010
2020/01/31 07:47:06.9	57.160	-0.280	0.280	1.040
2020/01/31 07:47:07.0	57.140	-0.300	0.280	1.070
2020/01/31 07:47:07.1	57.110	-0.320	0.270	1.100
2020/01/31 07:47:07.2	57.080	-0.340	0.250	1.120
2020/01/31 07:47:07.3	57.070	-0.360	0.230	1.140
2020/01/31 07:47:07.4	57.040	-0.370	0.200	1.150
2020/01/31 07:47:07.5	57.020	-0.380	0.170	1.160
2020/01/31 07:47:07.6	57.000	-0.390	0.130	1.170
2020/01/31 07:47:07.7	56.980	-0.400	0.090	1.170
2020/01/31 07:47:07.8	56.950	-0.400	0.050	1.180
2020/01/31 07:47:07.9	56.930	-0.410	0.010	1.180
2020/01/31 07:47:08.0	56.900	-0.410	-0.030	1.180
2020/01/31 07:47:08.1	56.870	-0.400	-0.080	1.170
2020/01/31 07:47:08.2	56.840	-0.400	-0.120	1.170
2020/01/31 07:47:08.3	56.830	-0.390	-0.160	1.160
2020/01/31 07:47:08.4	56.800	-0.390	-0.200	1.160
2020/01/31 07:47:08.5	56.760	-0.370	-0.240	1.150
2020/01/31 07:47:08.6	56.730	-0.360	-0.280	1.140
2020/01/31 07:47:08.7	56.690	-0.340	-0.310	1.120
2020/01/31 07:47:08.8	56.650	-0.330	-0.340	1.110
2020/01/31 07:47:08.9	56.610	-0.300	-0.370	1.100
2020/01/31 07:47:09.0	56.570	-0.280	-0.390	1.080
2020/01/31 07:47:09.1	56.520	-0.260	-0.410	1.070
2020/01/31 07:47:09.2	56.480	-0.230	-0.430	1.050
2020/01/31 07:47:09.3	56.440	-0.200	-0.450	1.030
2020/01/31 07:47:09.4	56.400	-0.170	-0.460	1.010
2020/01/31 07:47:09.5	56.360	-0.140	-0.470	0.990
2020/01/31 07:47:09.6	56.320	-0.100	-0.480	0.970
2020/01/31 07:47:09.7	56.280	-0.070	-0.490	0.950
2020/01/31 07:47:09.8	56.240	-0.030	-0.490	0.930
2020/01/31 07:47:09.9	56.200	0.010	-0.500	0.910
2020/01/31 07:47:10.0	56.170	0.050	-0.500	0.880
2020/01/31 07:47:10.1	56.130	0.090	-0.510	0.860
2020/01/31 07:47:10.2	56.100	0.130	-0.510	0.840
2020/01/31 07:47:10.3	56.060	0.170	-0.520	0.810
2020/01/31 07:47:10.4	56.030	0.210	-0.520	0.790
2020/01/31 07:47:10.5	56.000	0.260	-0.530	0.770
2020/01/31 07:47:10.6	55.970	0.300	-0.530	0.750
2020/01/31 07:47:10.7	55.940	0.340	-0.540	0.730
2020/01/31 07:47:10.8	55.920	0.380	-0.550	0.720
2020/01/31 07:47:10.9	55.890	0.420	-0.550	0.700
2020/01/31 07:47:11.0	55.870	0.450	-0.560	0.680
2020/01/31 07:47:11.1	55.840	0.490	-0.560	0.670
2020/01/31 07:47:11.2	55.820	0.520	-0.560	0.650
2020/01/31 07:47:11.3	55.800	0.550	-0.560	0.640
2020/01/31 07:47:11.4	55.770	0.580	-0.570	0.620
2020/01/31 07:47:11.5	55.750	0.600	-0.560	0.610
2020/01/31 07:47:11.6	55.720	0.620	-0.560	0.600
2020/01/31 07:47:11.7	55.700	0.640	-0.550	0.590
2020/01/31 07:47:11.8	55.670	0.650	-0.550	0.570
2020/01/31 07:47:11.9	55.650	0.660	-0.530	0.560
2020/01/31 07:47:12.0	55.620	0.660	-0.520	0.540
2020/01/31 07:47:12.1	55.600	0.660	-0.500	0.530
2020/01/31 07:47:12.2	55.580	0.660	-0.480	0.510
2020/01/31 07:47:12.3	55.560	0.640	-0.460	0.500
2020/01/31 07:47:12.4	55.540	0.630	-0.430	0.480
2020/01/31 07:47:12.5	55.510	0.610	-0.400	0.470
2020/01/31 07:47:12.6	55.490	0.580	-0.370	0.450
2020/01/31 07:47:12.7	55.470	0.550	-0.330	0.430
2020/01/31 07:47:12.8	55.440	0.510	-0.290	0.410
2020/01/31 07:47:12.9	55.420	0.470	-0.250	0.400
2020/01/31 07:47:13.0	55.400	0.420	-0.200	0.380
2020/01/31 07:47:13.1	55.370	0.380	-0.150	0.370
2020/01/31 07:47:13.2	55.350	0.320	-0.100	0.360
2020/01/31 07:47:13.3	55.330	0.270	-0.050	0.340
2020/01/31 07:47:13.4	55.300	0.210	0.000	0.330
2020/01/31 07:47:13.5	55.270	0.150	0.060	0.320
2020/01/31 07:47:13.6	55.250	0.080	0.110	0.320
2020/01/31 07:47:13.7	55.220	0.020	0.170	0.320
2020/01/31 07:47:13.8	55.180	-0.050	0.220	0.320
2020/01/31 07:47:13.9	55.150	-0.110	0.280	0.320
2020/01/31 07:47:14.0	55.120	-0.180	0.330	0.330
2020/01/31 07:47:14.1	55.080	-0.240	0.390	0.340
2020/01/31 07:47:14.2	55.050	-0.300	0.430	0.350
2020/01/31 07:47:14.3	55.030	-0.360	0.480	0.360
2020/01/31 07:47:14.4	54.990	-0.420	0.520	0.370
2020/01/31 07:47:14.5	54.960	-0.480	0.560	0.380
2020/01/31 07:47:14.6	54.920	-0.530	0.590	0.400
2020/01/31 07:47:14.7	54.890	-0.580	0.620	0.410
2020/01/31 07:47:14.8	54.850	-0.620	0.640	0.420
2020/01/31 07:47:14.9	54.820	-0.650	0.650	0.430
2020/01/31 07:47:15.0	54.790	-0.690	0.660	0.440
2020/01/31 07:47:15.1	54.750	-0.710	0.660	0.450
2020/01/31 07:47:15.2	54.720	-0.730	0.650	0.460
2020/01/31 07:47:15.3	54.700	-0.740	0.630	0.460
2020/01/31 07:47:15.4	54.670	-0.750	0.600	0.470
2020/01/31 07:47:15.5	54.640	-0.750	0.570	0.470
2020/01/31 07:47:15.6	54.620	-0.740	0.530	0.480
2020/01/31 07:47:15.7	54.590	-0.730	0.480	0.480
2020/01/31 07:47:15.8	54.570	-0.700	0.430	0.490
2020/01/31 07:47:15.9	54.550	-0.680	0.370	0.490
2020/01/31 07:47:16.0	54.520	-0.650	0.300	0.500
2020/01/31 07:47:16.1	54.500	-0.610	0.230	0.500
2020/01/31 07:47:16.2	54.480	-0.560	0.150	0.500
2020/01/31 07:47:16.3	54.470	-0.520	0.070	0.510
2020/01/31 07:47:16.4	54.450	-0.460	-0.020	0.520
2020/01/31 07:47:16.5	54.430	-0.410	-0.110	0.520
2020/01/31 07:47:16.6	54.410	-0.350	-0.190	0.530
2020/01/31 07:47:16.7	54.390	-0.290	-0.280	0.540
2020/01/31 07:47:16.8	54.370	-0.220	-0.370	0.540
2020/01/31 07:47:16.9	54.350	-0.160	-0.460	0.550
2020/01/31 07:47:17.0	54.330	-0.090	-0.550	0.560
2020/01/31 07:47:17.1	54.310	-0.020	-0.630	0.570
2020/01/31 07:47:17.2	54.290	0.040	-0.710	0.580
2020/01/31 07:47:17.3	54.270	0.100	-0.790	0.590
2020/01/31 07:47:17.4	54.250	0.170	-0.860	0.600
2020/01/31 07:47:17.5	54.230	0.230	-0.920	0.610
2020/01/31 07:47:17.6	54.200	0.280	-0.980	0.620
2020/01/31 07:47:17.7	54.180	0.340	-1.030	0.630
2020/01/31 07:47:17.8	54.160	0.390	-1.070	0.650
2020/01/31 07:47:17.9	54.130	0.430	-1.100	0.660
2020/01/31 07:47:18.0	54.110	0.470	-1.130	0.680
2020/01/31 07:47:18.1	54.080	0.500	-1.140	0.690
2020/01/31 07:47:18.2	54.050	0.530	-1.150	0.710
2020/01/31 07:47:18.3	54.030	0.550	-1.140	0.730
2020/01/31 07:47:18.4	54.000	0.570	-1.130	0.750
2020/01/31 07:47:18.5	53.970	0.580	-1.100	0.770
2020/01/31 07:47:18.6	53.930	0.580	-1.070	0.790
2020/01/31 07:47:18.7	53.890	0.580	-1.020	0.820
2020/01/31 07:47:18.8	53.850	0.570	-0.970	0.840
2020/01/31 07:47:18.9	53.810	0.560	-0.910	0.870
2020/01/31 07:47:19.0	53.770	0.540	-0.850	0.900
2020/01/31 07:47:19.1	53.730	0.510	-0.770	0.920
2020/01/31 07:47:19.2	53.680	0.480	-0.700	0.950
2020/01/31 07:47:19.3	53.640	0.440	-0.610	0.980
2020/01/31 07:47:19.4	53.600	0.400	-0.530	1.010
2020/01/31 07:47:19.5	53.550	0.360	-0.440	1.030
2020/01/31 07:47:19.6	53.500	0.310	-0.350	1.050
2020/01/31 07:47:19.7	53.450	0.260	-0.260	1.070
2020/01/31 07:47:19.8	53.390	0.200	-0.170	1.090
2020/01/31 07:47:19.9	53.340	0.150	-0.090	1.110
2020/01/31 07:47:20.0	53.290	0.090	-0.000	1.120
2020/01/31 07:47:20.1	53.240	0.030	0.080	1.140
2020/01/31 07:47:20.2	53.180	-0.030	0.150	1.140
2020/01/31 07:47:20.3	53.110	-0.080	0.220	1.150
2020/01/31 07:47:20.4	53.060	-0.140	0.290	1.150
2020/01/31 07:47:20.5	53.010	-0.190	0.340	1.150
2020/01/31 07:47:20.6	52.960	-0.250	0.400	1.140
2020/01/31 07:47:20.7	52.900	-0.290	0.440	1.130
2020/01/31 07:47:20.8	52.850	-0.340	0.470	1.120
2020/01/31 07:47:20.9	52.800	-0.380	0.500	1.100
2020/01/31 07:47:21.0	52.750	-0.420	0.520	1.090
2020/01/31 07:47:21.1	52.690	-0.450	0.530	1.070
2020/01/31 07:47:21.2	52.640	-0.480	0.540	1.040
2020/01/31 07:47:21.3	52.590	-0.500	0.530	1.020
2020/01/31 07:47:21.4	52.530	-0.520	0.520	0.990
2020/01/31 07:47:21.5	52.480	-0.530	0.500	0.960
2020/01/31 07:47:21.6	52.430	-0.540	0.480	0.930
2020/01/31 07:47:21.7	52.370	-0.540	0.450	0.910
2020/01/31 07:47:21.8	52.320	-0.530	0.410	0.880
2020/01/31 07:47:21.9	52.260	-0.520	0.370	0.850
2020/01/31 07:47:22.0	52.210	-0.510	0.330	0.830
2020/01/31 07:47:22.1	52.150	-0.490	0.280	0.800
2020/01/31 07:47:22.2	52.090	-0.460	0.230	0.780
2020/01/31 07:47:22.3	52.040	-0.430	0.180	0.750
2020/01/31 07:47:22.4	51.990	-0.400	0.120	0.730
2020/01/31 07:47:22.5	51.940	-0.360	0.060	0.700
2020/01/31 07:47:22.6	51.890	-0.320	0.000	0.680
2020/01/31 07:47:22.7	51.850	-0.280	-0.060	0.660
2020/01/31 07:47:22.8	51.800	-0.230	-0.120	0.630
2020/01/31 07:47:22.9	51.760	-0.180	-0.170	0.610
2020/01/31 07:47:23.0	51.720	-0.130	-0.230	0.580
2020/01/31 07:47:23.1	51.690	-0.080	-0.290	0.560
2020/01/31 07:47:23.2	51.660	-0.020	-0.350	0.530
2020/01/31 07:47:23.3	51.630	0.040	-0.410	0.510
2020/01/31 07:47:23.4	51.610	0.090	-0.460	0.480
2020/01/31 07:47:23.5	51.590	0.150	-0.510	0.460
2020/01/31 07:47:23.6	51.570	0.200	-0.570	0.430
2020/01/31 07:47:23.7	51.560	0.260	-0.620	0.400
2020/01/31 07:47:23.8	51.560	0.320	-0.660	0.370
2020/01/31 07:47:23.9	51.560	0.370	-0.710	0.350
2020/01/31 07:47:24.0	51.560	0.420	-0.750	0.320
2020/01/31 07:47:24.1	51.560	0.470	-0.800	0.290
2020/01/31 07:47:24.2	51.570	0.520	-0.830	0.270
2020/01/31 07:47:24.3	51.580	0.570	-0.870	0.240
2020/01/31 07:47:24.4	51.600	0.610	-0.900	0.220
2020/01/31 07:47:24.5	51.610	0.650	-0.930	0.200
2020/01/31 07:47:24.6	51.630	0.690	-0.950	0.180
2020/01/31 07:47:24.7	51.650	0.720	-0.970	0.160
2020/01/31 07:47:24.8	51.660	0.750	-0.970	0.150
2020/01/31 07:47:24.9	51.680	0.770	-0.980	0.140
2020/01/31 07:47:25.0	51.690	0.780	-0.970	0.140
2020/01/31 07:47:25.1	51.700	0.790	-0.960	0.130
2020/01/31 07:47:25.2	51.710	0.800	-0.930	0.130
2020/01/31 07:47:25.3	51.710	0.800	-0.900	0.140
2020/01/31 07:47:25.4	51.720	0.790	-0.860	0.150
2020/01/31 07:47:25.5	51.710	0.770	-0.810	0.160
2020/01/31 07:47:25.6	51.710	0.750	-0.750	0.170
2020/01/31 07:47:25.7	51.700	0.720	-0.690	0.190
2020/01/31 07:47:25.8	51.690	0.680	-0.610	0.200
2020/01/31 07:47:25.9	51.670	0.630	-0.530	0.230
2020/01/31 07:47:26.0	51.650	0.580	-0.430	0.250
2020/01/31 07:47:26.1	51.620	0.530	-0.340	0.280
2020/01/31 07:47:26.2	51.590	0.460	-0.230	0.310
2020/01/31 07:47:26.3	51.550	0.400	-0.120	0.340
2020/01/31 07:47:26.4	51.520	0.320	-0.010	0.370
2020/01/31 07:47:26.5	51.470	0.240	0.110	0.410
2020/01/31 07:47:26.6	51.430	0.160	0.230	0.450
2020/01/31 07:47:26.7	51.380	0.080	0.350	0.490
2020/01/31 07:47:26.8	51.330	-0.010	0.470	0.530
2020/01/31 07:47:26.9	51.270	-0.100	0.590	0.570
2020/01/31 07:47:27.0	51.210	-0.200	0.700	0.610
2020/01/31 07:47:27.1	51.150	-0.290	0.810	0.650
2020/01/31 07:47:27.2	51.090	-0.380	0.910	0.690
2020/01/31 07:47:27.3	51.020	-0.470	1.010	0.730
2020/01/31 07:47:27.4	50.950	-0.560	1.100	0.770
2020/01/31 07:47:27.5	50.880	-0.650	1.180	0.810
2020/01/31 07:47:27.6	50.810	-0.730	1.250	0.840
2020/01/31 07:47:27.7	50.730	-0.810	1.300	0.880
2020/01/31 07:47:27.8	50.660	-0.890	1.350	0.910
2020/01/31 07:47:27.9	50.580	-0.960	1.380	0.950
2020/01/31 07:47:28.0	50.510	-1.020	1.400	0.980
2020/01/31 07:47:28.1	50.430	-1.080	1.410	1.000
2020/01/31 07:47:28.2	50.350	-1.130	1.400	1.030
2020/01/31 07:47:28.3	50.260	-1.170	1.380	1.050
2020/01/31 07:47:28.4	50.190	-1.200	1.350	1.060
2020/01/31 07:47:28.5	50.120	-1.220	1.300	1.080
2020/01/31 07:47:28.6	50.040	-1.240	1.230	1.090
2020/01/31 07:47:28.7	49.970	-1.240	1.150	1.090
2020/01/31 07:47:28.8	49.900	-1.240	1.060	1.090
2020/01/31 07:47:28.9	49.840	-1.220	0.960	1.090
2020/01/31 07:47:29.0	49.780	-1.200	0.840	1.090
2020/01/31 07:47:29.1	49.720	-1.160	0.720	1.080
2020/01/31 07:47:29.2	49.660	-1.120	0.580	1.060
2020/01/31 07:47:29.3	49.610	-1.060	0.440	1.040
2020/01/31 07:47:29.4	49.560	-1.000	0.290	1.020
2020/01/31 07:47:29.5	49.510	-0.930	0.130	1.000
2020/01/31 07:47:29.6	49.460	-0.850	-0.030	0.980
2020/01/31 07:47:29.7	49.420	-0.770	-0.190	0.950
2020/01/31 07:47:29.8	49.380	-0.670	-0.350	0.920
2020/01/31 07:47:29.9	49.350	-0.580	-0.510	0.890
2020/01/31 07:47:30.0	49.320	-0.470	-0.670	0.860
2020/01/31 07:47:30.1	49.290	-0.370	-0.830	0.820
2020/01/31 07:47:30.2	49.270	-0.260	-0.990	0.790
2020/01/31 07:47:30.3	49.230	-0.140	-1.140	0.750
2020/01/31 07:47:30.4	49.210	-0.030	-1.280	0.710
2020/01/31 07:47:30.5	49.200	0.080	-1.410	0.670
2020/01/31 07:47:30.6	49.190	0.200	-1.540	0.630
2020/01/31 07:47:30.7	49.180	0.310	-1.650	0.590
2020/01/31 07:47:30.8	49.170	0.420	-1.750	0.550
2020/01/31 07:47:30.9	49.160	0.520	-1.850	0.510
2020/01/31 07:47:31.0	49.160	0.620	-1.920	0.480
2020/01/31 07:47:31.1	49.160	0.720	-1.990	0.440
2020/01/31 07:47:31.2	49.150	0.810	-2.040	0.410
2020/01/31 07:47:31.3	49.130	0.890	-2.070	0.370
2020/01/31 07:47:31.4	49.130	0.960	-2.090	0.350
2020/01/31 07:47:31.5	49.120	1.030	-2.100	0.320
2020/01/31 07:47:31.6	49.110	1.090	-2.090	0.300
2020/01/31 07:47:31.7	49.100	1.140	-2.060	0.290
2020/01/31 07:47:31.8	49.080	1.170	-2.020	0.280
2020/01/31 07:47:31.9	49.070	1.200	-1.960	0.270
2020/01/31 07:47:32.0	49.050	1.220	-1.890	0.260
2020/01/31 07:47:32.1	49.030	1.220	-1.810	0.260
2020/01/31 07:47:32.2	49.000	1.220	-1.710	0.270
2020/01/31 07:47:32.3	48.960	1.210	-1.610	0.280
2020/01/31 07:47:32.4	48.930	1.180	-1.490	0.290
2020/01/31 07:47:32.5	48.900	1.150	-1.360	0.310
2020/01/31 07:47:32.6	48.860	1.110	-1.220	0.330
2020/01/31 07:47:32.7	48.820	1.060	-1.080	0.350
2020/01/31 07:47:32.8	48.780	1.000	-0.930	0.380
2020/01/31 07:47:32.9	48.740	0.930	-0.770	0.410
2020/01/31 07:47:33.0	48.690	0.860	-0.610	0.440
2020/01/31 07:47:33.1	48.650	0.780	-0.450	0.480
2020/01/31 07:47:33.2	48.600	0.690	-0.290	0.510
2020/01/31 07:47:33.3	48.540	0.600	-0.130	0.540
2020/01/31 07:47:33.4	48.490	0.510	0.030	0.580
2020/01/31 07:47:33.5	48.450	0.420	0.180	0.620
2020/01/31 07:47:33.6	48.400	0.320	0.330	0.650
2020/01/31 07:47:33.7	48.350	0.220	0.470	0.680
2020/01/31 07:47:33.8	48.300	0.130	0.600	0.710
2020/01/31 07:47:33.9	48.250	0.030	0.720	0.740
2020/01/31 07:47:34.0	48.210	-0.060	0.840	0.770
2020/01/31 07:47:34.1	48.160	-0.150	0.940	0.790
2020/01/31 07:47:34.2	48.120	-0.230	1.030	0.810
2020/01/31 07:47:34.3	48.070	-0.310	1.110	0.830
2020/01/31 07:47:34.4	48.030	-0.390	1.180	0.850
2020/01/31 07:47:34.5	47.990	-0.460	1.240	0.860
2020/01/31 07:47:34.6	47.940	-0.520	1.280	0.870
2020/01/31 07:47:34.7	47.900	-0.570	1.320	0.880
2020/01/31 07:47:34.8	47.860	-0.620	1.340	0.890
2020/01/31 07:47:34.9	47.810	-0.660	1.350	0.890
2020/01/31 07:47:35.0	47.770	-0.690	1.350	0.900
2020/01/31 07:47:35.1	47.730	-0.720	1.350	0.900
2020/01/31 07:47:35.2	47.680	-0.730	1.330	0.910
2020/01/31 07:47:35.3	47.630	-0.740	1.300	0.910
2020/01/31 07:47:35.4	47.590	-0.740	1.270	0.920
2020/01/31 07:47:35.5	47.550	-0.730	1.220	0.920
2020/01/31 07:47:35.6	47.500	-0.720	1.170	0.920
2020/01/31 07:47:35.7	47.460	-0.700	1.110	0.920
2020/01/31 07:47:35.8	47.420	-0.670	1.050	0.920
2020/01/31 07:47:35.9	47.370	-0.630	0.980	0.920
2020/01/31 07:47:36.0	47.330	-0.590	0.900	0.920
2020/01/31 07:47:36.1	47.290	-0.550	0.820	0.910
2020/01/31 07:47:36.2	47.260	-0.500	0.740	0.900
2020/01/31 07:47:36.3	47.230	-0.440	0.650	0.890
2020/01/31 07:47:36.4	47.200	-0.380	0.550	0.880
2020/01/31 07:47:36.5	47.170	-0.320	0.460	0.860
2020/01/31 07:47:36.6	47.140	-0.260	0.360	0.850
2020/01/31 07:47:36.7	47.110	-0.190	0.270	0.830
2020/01/31 07:47:36.8	47.090	-0.120	0.170	0.800
2020/01/31 07:47:36.9	47.070	-0.050	0.060	0.780
2020/01/31 07:47:37.0	47.050	0.010	-0.040	0.760
2020/01/31 07:47:37.1	47.030	0.080	-0.140	0.730
2020/01/31 07:47:37.2	47.020	0.150	-0.240	0.710
2020/01/31 07:47:37.3	47.020	0.220	-0.340	0.690
2020/01/31 07:47:37.4	47.010	0.280	-0.440	0.660
2020/01/31 07:47:37.5	47.010	0.350	-0.540	0.640
2020/01/31 07:47:37.6	47.000	0.410	-0.640	0.610
2020/01/31 07:47:37.7	47.000	0.460	-0.730	0.590
2020/01/31 07:47:37.8	47.000	0.510	-0.820	0.570
2020/01/31 07:47:37.9	47.000	0.560	-0.910	0.550
2020/01/31 07:47:38.0	47.000	0.610	-0.990	0.530
2020/01/31 07:47:38.1	47.000	0.650	-1.070	0.510
2020/01/31 07:47:38.2	47.000	0.680	-1.140	0.500
2020/01/31 07:47:38.3	46.990	0.710	-1.200	0.480
2020/01/31 07:47:38.4	46.990	0.730	-1.260	0.470
2020/01/31 07:47:38.5	46.990	0.750	-1.310	0.470
2020/01/31 07:47:38.6	46.980	0.760	-1.350	0.460
2020/01/31 07:47:38.7	46.980	0.760	-1.390	0.460
2020/01/31 07:47:38.8	46.970	0.760	-1.410	0.460
2020/01/31 07:47:38.9	46.960	0.750	-1.430	0.460
2020/01/31 07:47:39.0	46.950	0.740	-1.430	0.460
2020/01/31 07:47:39.1	46.930	0.720	-1.430	0.460
2020/01/31 07:47:39.2	46.920	0.690	-1.410	0.460
2020/01/31 07:47:39.3	46.890	0.650	-1.400	0.470
2020/01/31 07:47:39.4	46.870	0.610	-1.360	0.470
2020/01/31 07:47:39.5	46.840	0.570	-1.310	0.480
2020/01/31 07:47:39.6	46.810	0.520	-1.260	0.480
2020/01/31 07:47:39.7	46.770	0.460	-1.190	0.480
2020/01/31 07:47:39.8	46.730	0.400	-1.120	0.480
2020/01/31 07:47:39.9	46.690	0.330	-1.040	0.480
2020/01/31 07:47:40.0	46.650	0.270	-0.940	0.480
2020/01/31 07:47:40.1	46.600	0.190	-0.840	0.480
2020/01/31 07:47:40.2	46.550	0.120	-0.740	0.480
2020/01/31 07:47:40.3	46.500	0.040	-0.620	0.470
2020/01/31 07:47:40.4	46.450	-0.040	-0.510	0.470
2020/01/31 07:47:40.5	46.390	-0.110	-0.390	0.460
2020/01/31 07:47:40.6	46.330	-0.190	-0.260	0.460
2020/01/31 07:47:40.7	46.270	-0.270	-0.140	0.460
2020/01/31 07:47:40.8	46.210	-0.350	-0.020	0.450
2020/01/31 07:47:40.9	46.150	-0.420	0.110	0.450
2020/01/31 07:47:41.0	46.090	-0.490	0.230	0.450
2020/01/31 07:47:41.1	46.030	-0.560	0.350	0.440
2020/01/31 07:47:41.2	45.980	-0.620	0.460	0.440
2020/01/31 07:47:41.3	45.920	-0.680	0.570	0.440
2020/01/31 07:47:41.4	45.860	-0.740	0.680	0.440
2020/01/31 07:47:41.5	45.810	-0.790	0.780	0.440
2020/01/31 07:47:41.6	45.760	-0.830	0.870	0.440
2020/01/31 07:47:41.7	45.710	-0.870	0.950	0.440
2020/01/31 07:47:41.8	45.660	-0.900	1.020	0.450
2020/01/31 07:47:41.9	45.610	-0.920	1.080	0.450
2020/01/31 07:47:42.0	45.570	-0.940	1.130	0.460
2020/01/31 07:47:42.1	45.530	-0.950	1.160	0.460
2020/01/31 07:47:42.2	45.490	-0.950	1.190	0.470
2020/01/31 07:47:42.3	45.430	-0.940	1.200	0.470
2020/01/31 07:47:42.4	45.390	-0.930	1.200	0.470
2020/01/31 07:47:42.5	45.360	-0.910	1.190	0.480
2020/01/31 07:47:42.6	45.320	-0.880	1.160	0.480
2020/01/31 07:47:42.7	45.290	-0.850	1.130	0.490
2020/01/31 07:47:42.8	45.260	-0.810	1.080	0.490
2020/01/31 07:47:42.9	45.230	-0.760	1.020	0.500
2020/01/31 07:47:43.0	45.200	-0.710	0.950	0.500
2020/01/31 07:47:43.1	45.180	-0.650	0.860	0.510
2020/01/31 07:47:43.2	45.150	-0.590	0.770	0.510
2020/01/31 07:47:43.3	45.140	-0.530	0.680	0.510
2020/01/31 07:47:43.4	45.110	-0.460	0.570	0.510
2020/01/31 07:47:43.5	45.090	-0.390	0.460	0.500
2020/01/31 07:47:43.6	45.070	-0.320	0.350	0.500
2020/01/31 07:47:43.7	45.050	-0.250	0.230	0.490
2020/01/31 07:47:43.8	45.040	-0.180	0.110	0.480
2020/01/31 07:47:43.9	45.020	-0.100	-0.010	0.480
2020/01/31 07:47:44.0	45.010	-0.030	-0.130	0.470
2020/01/31 07:47:44.1	44.990	0.040	-0.250	0.460
2020/01/31 07:47:44.2	44.980	0.110	-0.360	0.460
2020/01/31 07:47:44.3	44.980	0.170	-0.480	0.450
2020/01/31 07:47:44.4	44.960	0.230	-0.580	0.450
2020/01/31 07:47:44.5	44.950	0.290	-0.680	0.450
2020/01/31 07:47:44.6	44.930	0.340	-0.770	0.450
2020/01/31 07:47:44.7	44.910	0.390	-0.860	0.460
2020/01/31 07:47:44.8	44.890	0.430	-0.930	0.460
2020/01/31 07:47:44.9	44.860	0.470	-1.000	0.470
2020/01/31 07:47:45.0	44.840	0.500	-1.050	0.480
2020/01/31 07:47:45.1	44.810	0.520	-1.100	0.490
2020/01/31 07:47:45.2	44.780	0.530	-1.130	0.500
2020/01/31 07:47:45.3	44.750	0.540	-1.160	0.520
2020/01/31 07:47:45.4	44.720	0.550	-1.170	0.530
2020/01/31 07:47:45.5	44.680	0.550	-1.180	0.550
2020/01/31 07:47:45.6	44.650	0.540	-1.170	0.560
2020/01/31 07:47:45.7	44.610	0.520	-1.160	0.580
2020/01/31 07:47:45.8	44.570	0.510	-1.140	0.590
2020/01/31 07:47:45.9	44.530	0.480	-1.110	0.610
2020/01/31 07:47:46.0	44.490	0.450	-1.080	0.620
2020/01/31 07:47:46.1	44.450	0.420	-1.040	0.630
2020/01/31 07:47:46.2	44.400	0.390	-0.990	0.640
2020/01/31 07:47:46.3	44.370	0.350	-0.940	0.650
2020/01/31 07:47:46.4	44.330	0.310	-0.890	0.650
2020/01/31 07:47:46.5	44.280	0.270	-0.830	0.660
2020/01/31 07:47:46.6	44.240	0.230	-0.770	0.660
2020/01/31 07:47:46.7	44.200	0.180	-0.710	0.660
2020/01/31 07:47:46.8	44.160	0.140	-0.660	0.650
2020/01/31 07:47:46.9	44.120	0.100	-0.600	0.650
2020/01/31 07:47:47.0	44.080	0.070	-0.550	0.640
2020/01/31 07:47:47.1	44.040	0.030	-0.490	0.620
2020/01/31 07:47:47.2	44.010	-0.000	-0.440	0.610
2020/01/31 07:47:47.3	43.980	-0.030	-0.400	0.590
2020/01/31 07:47:47.4	43.950	-0.050	-0.360	0.570
2020/01/31 07:47:47.5	43.910	-0.070	-0.320	0.550
2020/01/31 07:47:47.6	43.880	-0.090	-0.280	0.530
2020/01/31 07:47:47.7	43.850	-0.100	-0.250	0.520
2020/01/31 07:47:47.8	43.810	-0.110	-0.220	0.510
2020/01/31 07:47:47.9	43.780	-0.110	-0.190	0.500
2020/01/31 07:47:48.0	43.740	-0.110	-0.170	0.490
2020/01/31 07:47:48.1	43.700	-0.110	-0.140	0.480
2020/01/31 07:47:48.2	43.660	-0.100	-0.120	0.480
2020/01/31 07:47:48.3	43.620	-0.090	-0.110	0.480
2020/01/31 07:47:48.4	43.580	-0.070	-0.090	0.480
2020/01/31 07:47:48.5	43.530	-0.050	-0.070	0.490
2020/01/31 07:47:48.6	43.480	-0.030	-0.060	0.490
2020/01/31 07:47:48.7	43.440	-0.000	-0.050	0.500
2020/01/31 07:47:48.8	43.390	0.020	-0.040	0.500
2020/01/31 07:47:48.9	43.340	0.050	-0.040	0.510
2020/01/31 07:47:49.0	43.280	0.090	-0.030	0.520
2020/01/31 07:47:49.1	43.230	0.120	-0.030	0.520
2020/01/31 07:47:49.2	43.180	0.150	-0.030	0.530
2020/01/31 07:47:49.3	43.140	0.190	-0.030	0.530
2020/01/31 07:47:49.4	43.090	0.220	-0.030	0.540
2020/01/31 07:47:49.5	43.040	0.260	-0.040	0.540
2020/01/31 07:47:49.6	42.990	0.290	-0.040	0.530
2020/01/31 07:47:49.7	42.940	0.330	-0.050	0.530
2020/01/31 07:47:49.8	42.890	0.360	-0.060	0.520
2020/01/31 07:47:49.9	42.850	0.400	-0.070	0.520
2020/01/31 07:47:50.0	42.810	0.430	-0.080	0.510
2020/01/31 07:47:50.1	42.770	0.460	-0.090	0.490
2020/01/31 07:47:50.2	42.730	0.490	-0.100	0.480
2020/01/31 07:47:50.3	42.680	0.510	-0.120	0.460
2020/01/31 07:47:50.4	42.650	0.540	-0.130	0.450
2020/01/31 07:47:50.5	42.620	0.560	-0.140	0.430
2020/01/31 07:47:50.6	42.590	0.580	-0.150	0.420
2020/01/31 07:47:50.7	42.560	0.590	-0.160	0.400
2020/01/31 07:47:50.8	42.530	0.610	-0.170	0.390
2020/01/31 07:47:50.9	42.510	0.620	-0.180	0.380
2020/01/31 07:47:51.0	42.490	0.620	-0.190	0.360
2020/01/31 07:47:51.1	42.470	0.630	-0.200	0.350
2020/01/31 07:47:51.2	42.450	0.620	-0.200	0.350
2020/01/31 07:47:51.3	42.430	0.620	-0.200	0.340
2020/01/31 07:47:51.4	42.410	0.610	-0.210	0.340
2020/01/31 07:47:51.5	42.400	0.600	-0.200	0.330
2020/01/31 07:47:51.6	42.390	0.580	-0.200	0.330
2020/01/31 07:47:51.7	42.380	0.560	-0.200	0.330
2020/01/31 07:47:51.8	42.360	0.530	-0.190	0.330
2020/01/31 07:47:51.9	42.350	0.510	-0.180	0.330
2020/01/31 07:47:52.0	42.340	0.470	-0.170	0.340
2020/01/31 07:47:52.1	42.330	0.440	-0.150	0.340
2020/01/31 07:47:52.2	42.320	0.400	-0.140	0.350
2020/01/31 07:47:52.3	42.300	0.360	-0.120	0.350
2020/01/31 07:47:52.4	42.280	0.310	-0.100	0.360
2020/01/31 07:47:52.5	42.270	0.270	-0.080	0.370
2020/01/31 07:47:52.6	42.250	0.220	-0.060	0.370
2020/01/31 07:47:52.7	42.230	0.170	-0.030	0.380
2020/01/31 07:47:52.8	42.210	0.110	-0.010	0.400
2020/01/31 07:47:52.9	42.190	0.060	0.020	0.410
2020/01/31 07:47:53.0	42.160	0.000	0.050	0.420
2020/01/31 07:47:53.1	42.130	-0.060	0.080	0.430
2020/01/31 07:47:53.2	42.100	-0.120	0.110	0.440
2020/01/31 07:47:53.3	42.060	-0.170	0.140	0.450
2020/01/31 07:47:53.4	42.020	-0.230	0.170	0.460
2020/01/31 07:47:53.5	41.980	-0.290	0.200	0.460
2020/01/31 07:47:53.6	41.940	-0.350	0.230	0.470
2020/01/31 07:47:53.7	41.900	-0.400	0.250	0.480
2020/01/31 07:47:53.8	41.860	-0.460	0.280	0.480
2020/01/31 07:47:53.9	41.810	-0.510	0.310	0.490
2020/01/31 07:47:54.0	41.770	-0.560	0.330	0.490
2020/01/31 07:47:54.1	41.720	-0.610	0.350	0.490
2020/01/31 07:47:54.2	41.680	-0.650	0.370	0.490
2020/01/31 07:47:54.3	41.620	-0.690	0.390	0.490
2020/01/31 07:47:54.4	41.570	-0.720	0.400	0.490
2020/01/31 07:47:54.5	41.530	-0.750	0.410	0.480
2020/01/31 07:47:54.6	41.490	-0.780	0.410	0.480
2020/01/31 07:47:54.7	41.440	-0.800	0.410	0.470
2020/01/31 07:47:54.8	41.400	-0.820	0.410	0.470
2020/01/31 07:47:54.9	41.370	-0.830	0.400	0.460
2020/01/31 07:47:55.0	41.330	-0.830	0.380	0.450
2020/01/31 07:47:55.1	41.300	-0.830	0.370	0.440
2020/01/31 07:47:55.2	41.270	-0.820	0.340	0.430
2020/01/31 07:47:55.3	41.260	-0.810	0.310	0.420
2020/01/31 07:47:55.4	41.230	-0.790	0.280	0.400
2020/01/31 07:47:55.5	41.210	-0.770	0.250	0.390
2020/01/31 07:47:55.6	41.190	-0.740	0.210	0.380
2020/01/31 07:47:55.7	41.170	-0.710	0.170	0.370
2020/01/31 07:47:55.8	41.150	-0.670	0.120	0.360
2020/01/31 07:47:55.9	41.130	-0.630	0.070	0.340
2020/01/31 07:47:56.0	41.110	-0.580	0.020	0.340
2020/01/31 07:47:56.1	41.100	-0.530	-0.030	0.330
2020/01/31 07:47:56.2	41.080	-0.470	-0.080	0.320
2020/01/31 07:47:56.3	41.070	-0.420	-0.140	0.320
2020/01/31 07:47:56.4	41.060	-0.360	-0.200	0.310
2020/01/31 07:47:56.5	41.040	-0.300	-0.250	0.310
2020/01/31 07:47:56.6	41.020	-0.240	-0.300	0.310
2020/01/31 07:47:56.7	41.000	-0.180	-0.350	0.320
2020/01/31 07:47:56.8	40.980	-0.110	-0.400	0.330
2020/01/31 07:47:56.9	40.960	-0.050	-0.450	0.340
2020/01/31 07:47:57.0	40.940	0.010	-0.490	0.350
2020/01/31 07:47:57.1	40.910	0.060	-0.540	0.360
2020/01/31 07:47:57.2	40.890	0.120	-0.570	0.380
2020/01/31 07:47:57.3	40.870	0.170	-0.610	0.400
2020/01/31 07:47:57.4	40.840	0.230	-0.640	0.420
2020/01/31 07:47:57.5	40.810	0.270	-0.670	0.440
2020/01/31 07:47:57.6	40.780	0.320	-0.690	0.460
2020/01/31 07:47:57.7	40.740	0.360	-0.720	0.480
2020/01/31 07:47:57.8	40.700	0.390	-0.730	0.510
2020/01/31 07:47:57.9	40.670	0.430	-0.750	0.530
2020/01/31 07:47:58.0	40.630	0.450	-0.760	0.550
2020/01/31 07:47:58.1	40.590	0.480	-0.770	0.580
2020/01/31 07:47:58.2	40.550	0.500	-0.780	0.600
2020/01/31 07:47:58.3	40.520	0.510	-0.790	0.620
2020/01/31 07:47:58.4	40.480	0.520	-0.800	0.630
2020/01/31 07:47:58.5	40.440	0.530	-0.800	0.650
2020/01/31 07:47:58.6	40.400	0.530	-0.800	0.660
2020/01/31 07:47:58.7	40.360	0.530	-0.800	0.670
2020/01/31 07:47:58.8	40.320	0.520	-0.800	0.680
2020/01/31 07:47:58.9	40.290	0.510	-0.800	0.690
2020/01/31 07:47:59.0	40.250	0.500	-0.800	0.690
2020/01/31 07:47:59.1	40.220	0.490	-0.800	0.690
2020/01/31 07:47:59.2	40.190	0.470	-0.800	0.680
2020/01/31 07:47:59.3	40.180	0.450	-0.790	0.680
2020/01/31 07:47:59.4	40.150	0.430	-0.790	0.670
2020/01/31 07:47:59.5	40.130	0.410	-0.780	0.650
2020/01/31 07:47:59.6	40.110	0.380	-0.780	0.640
2020/01/31 07:47:59.7	40.090	0.360	-0.770	0.620
2020/01/31 07:47:59.8	40.070	0.330	-0.760	0.590
2020/01/31 07:47:59.9	40.050	0.310	-0.750	0.570
2020/01/31 07:48:00.0	40.030	0.280	-0.740	0.540
2020/01/31 07:48:00.1	40.010	0.260	-0.720	0.520
2020/01/31 07:48:00.2	40.000	0.230	-0.710	0.490
2020/01/31 07:48:00.3	39.990	0.210	-0.690	0.460
2020/01/31 07:48:00.4	39.970	0.180	-0.660	0.430
2020/01/31 07:48:00.5	39.950	0.160	-0.640	0.400
2020/01/31 07:48:00.6	39.930	0.130	-0.600	0.370
2020/01/31 07:48:00.7	39.910	0.110	-0.570	0.350
2020/01/31 07:48:00.8	39.890	0.080	-0.530	0.330
2020/01/31 07:48:00.9	39.860	0.060	-0.480	0.310
2020/01/31 07:48:01.0	39.830	0.030	-0.430	0.290
2020/01/31 07:48:01.1	39.800	0.010	-0.370	0.270
2020/01/31 07:48:01.2	39.760	-0.020	-0.310	0.260
2020/01/31 07:48:01.3	39.720	-0.040	-0.240	0.250
2020/01/31 07:48:01.4	39.680	-0.070	-0.170	0.240
2020/01/31 07:48:01.5	39.630	-0.100	-0.100	0.240
2020/01/31 07:48:01.6	39.580	-0.130	-0.020	0.230
2020/01/31 07:48:01.7	39.530	-0.150	0.060	0.230
2020/01/31 07:48:01.8	39.470	-0.180	0.140	0.230
2020/01/31 07:48:01.9	39.420	-0.210	0.220	0.230
2020/01/31 07:48:02.0	39.360	-0.240	0.310	0.230
2020/01/31 07:48:02.1	39.300	-0.260	0.390	0.240
2020/01/31 07:48:02.2	39.230	-0.290	0.470	0.240
2020/01/31 07:48:02.3	39.150	-0.320	0.540	0.240
2020/01/31 07:48:02.4	39.090	-0.340	0.610	0.240
2020/01/31 07:48:02.5	39.020	-0.370	0.680	0.250
2020/01/31 07:48:02.6	38.960	-0.390	0.740	0.260
2020/01/31 07:48:02.7	38.890	-0.410	0.790	0.260
2020/01/31 07:48:02.8	38.830	-0.430	0.840	0.270
2020/01/31 07:48:02.9	38.770	-0.450	0.870	0.270
2020/01/31 07:48:03.0	38.710	-0.460	0.900	0.270
2020/01/31 07:48:03.1	38.660	-0.470	0.910	0.270
2020/01/31 07:48:03.2	38.610	-0.470	0.910	0.270
2020/01/31 07:48:03.3	38.550	-0.480	0.910	0.260
2020/01/31 07:48:03.4	38.510	-0.470	0.880	0.250
2020/01/31 07:48:03.5	38.470	-0.470	0.850	0.240
2020/01/31 07:48:03.6	38.440	-0.450	0.800	0.230
2020/01/31 07:48:03.7	38.410	-0.440	0.730	0.210
2020/01/31 07:48:03.8	38.390	-0.410	0.660	0.200
2020/01/31 07:48:03.9	38.370	-0.390	0.570	0.180
2020/01/31 07:48:04.0	38.360	-0.360	0.480	0.160
2020/01/31 07:48:04.1	38.340	-0.320	0.370	0.140
2020/01/31 07:48:04.2	38.330	-0.280	0.260	0.120
2020/01/31 07:48:04.3	38.330	-0.230	0.130	0.100
2020/01/31 07:48:04.4	38.320	-0.180	0.000	0.080
2020/01/31 07:48:04.5	38.320	-0.130	-0.130	0.060
2020/01/31 07:48:04.6	38.320	-0.080	-0.260	0.040
2020/01/31 07:48:04.7	38.320	-0.020	-0.400	0.020
2020/01/31 07:48:04.8	38.330	0.050	-0.530	-0.000
2020/01/31 07:48:04.9	38.330	0.110	-0.660	-0.020
2020/01/31 07:48:05.0	38.340	0.170	-0.790	-0.040
2020/01/31 07:48:05.1	38.350	0.240	-0.910	-0.060
2020/01/31 07:48:05.2	38.360	0.310	-1.030	-0.080
2020/01/31 07:48:05.3	38.370	0.370	-1.130	-0.090
2020/01/31 07:48:05.4	38.380	0.440	-1.230	-0.110
2020/01/31 07:48:05.5	38.390	0.500	-1.320	-0.120
2020/01/31 07:48:05.6	38.390	0.560	-1.400	-0.130
2020/01/31 07:48:05.7	38.400	0.620	-1.460	-0.140
2020/01/31 07:48:05.8	38.410	0.680	-1.510	-0.150
2020/01/31 07:48:05.9	38.420	0.730	-1.550	-0.150
2020/01/31 07:48:06.0	38.420	0.780	-1.570	-0.140
2020/01/31 07:48:06.1	38.420	0.830	-1.570	-0.130
2020/01/31 07:48:06.2	38.410	0.870	-1.560	-0.120
2020/01/31 07:48:06.3	38.410	0.900	-1.540	-0.100
2020/01/31 07:48:06.4	38.400	0.930	-1.500	-0.070
2020/01/31 07:48:06.5	38.380	0.950	-1.440	-0.030
2020/01/31 07:48:06.6	38.360	0.960	-1.370	0.010
2020/01/31 07:48:06.7	38.330	0.970	-1.280	0.060
2020/01/31 07:48:06.8	38.300	0.970	-1.180	0.110
2020/01/31 07:48:06.9	38.270	0.960	-1.070	0.170
2020/01/31 07:48:07.0	38.220	0.950	-0.950	0.240
2020/01/31 07:48:07.1	38.180	0.920	-0.820	0.300
2020/01/31 07:48:07.2	38.120	0.890	-0.680	0.370
2020/01/31 07:48:07.3	38.070	0.850	-0.530	0.450
2020/01/31 07:48:07.4	38.010	0.810	-0.380	0.520
2020/01/31 07:48:07.5	37.940	0.750	-0.220	0.600
2020/01/31 07:48:07.6	37.870	0.690	-0.070	0.670
2020/01/31 07:48:07.7	37.800	0.630	0.090	0.740
2020/01/31 07:48:07.8	37.720	0.550	0.250	0.810
2020/01/31 07:48:07.9	37.650	0.480	0.400	0.880
2020/01/31 07:48:08.0	37.560	0.390	0.550	0.940
2020/01/31 07:48:08.1	37.480	0.310	0.690	1.000
2020/01/31 07:48:08.2	37.400	0.220	0.830	1.060
2020/01/31 07:48:08.3	37.310	0.130	0.960	1.110
2020/01/31 07:48:08.4	37.230	0.030	1.080	1.150
2020/01/31 07:48:08.5	37.140	-0.060	1.180	1.190
2020/01/31 07:48:08.6	37.060	-0.160	1.280	1.220
2020/01/31 07:48:08.7	36.980	-0.250	1.360	1.240
2020/01/31 07:48:08.8	36.910	-0.340	1.430	1.250
2020/01/31 07:48:08.9	36.830	-0.430	1.480	1.250
2020/01/31 07:48:09.0	36.760	-0.520	1.520	1.240
2020/01/31 07:48:09.1	36.700	-0.600	1.540	1.230
2020/01/31 07:48:09.2	36.640	-0.680	1.550	1.210
2020/01/31 07:48:09.3	36.560	-0.760	1.550	1.170
2020/01/31 07:48:09.4	36.510	-0.830	1.520	1.130
2020/01/31 07:48:09.5	36.460	-0.890	1.480	1.080
2020/01/31 07:48:09.6	36.420	-0.940	1.430	1.020
2020/01/31 07:48:09.7	36.380	-0.990	1.360	0.960
2020/01/31 07:48:09.8	36.350	-1.030	1.280	0.890
2020/01/31 07:48:09.9	36.320	-1.070	1.190	0.810
2020/01/31 07:48:10.0	36.300	-1.090	1.080	0.720
2020/01/31 07:48:10.1	36.280	-1.110	0.960	0.640
2020/01/31 07:48:10.2	36.270	-1.120	0.830	0.540
2020/01/31 07:48:10.3	36.270	-1.120	0.690	0.440
2020/01/31 07:48:10.4	36.260	-1.120	0.540	0.340
2020/01/31 07:48:10.5	36.270	-1.110	0.390	0.240
2020/01/31 07:48:10.6	36.270	-1.090	0.230	0.140
2020/01/31 07:48:10.7	36.280	-1.060	0.070	0.030
2020/01/31 07:48:10.8	36.300	-1.030	-0.090	-0.080
2020/01/31 07:48:10.9	36.320	-0.990	-0.260	-0.180
2020/01/31 07:48:11.0	36.330	-0.940	-0.420	-0.290
2020/01/31 07:48:11.1	36.350	-0.900	-0.570	-0.390
2020/01/31 07:48:11.2	36.380	-0.840	-0.730	-0.500
2020/01/31 07:48:11.3	36.410	-0.790	-0.880	-0.590
2020/01/31 07:48:11.4	36.430	-0.730	-1.020	-0.690
2020/01/31 07:48:11.5	36.450	-0.660	-1.150	-0.780
2020/01/31 07:48:11.6	36.470	-0.600	-1.270	-0.860
2020/01/31 07:48:11.7	36.490	-0.530	-1.380	-0.940
2020/01/31 07:48:11.8	36.500	-0.470	-1.480	-1.010
2020/01/31 07:48:11.9	36.510	-0.400	-1.570	-1.070
2020/01/31 07:48:12.0	36.520	-0.330	-1.650	-1.120
2020/01/31 07:48:12.1	36.520	-0.270	-1.710	-1.170
2020/01/31 07:48:12.2	36.520	-0.200	-1.750	-1.200
2020/01/31 07:48:12.3	36.490	-0.140	-1.790	-1.230
2020/01/31 07:48:12.4	36.480	-0.080	-1.800	-1.240
2020/01/31 07:48:12.5	36.470	-0.020	-1.810	-1.250
2020/01/31 07:48:12.6	36.450	0.030	-1.800	-1.240
2020/01/31 07:48:12.7	36.420	0.090	-1.780	-1.230
2020/01/31 07:48:12.8	36.390	0.140	-1.740	-1.210
2020/01/31 07:48:12.9	36.360	0.180	-1.700	-1.180
2020/01/31 07:48:13.0	36.320	0.230	-1.640	-1.140
2020/01/31 07:48:13.1	36.280	0.260	-1.570	-1.090
2020/01/31 07:48:13.2	36.240	0.300	-1.490	-1.040
2020/01/31 07:48:13.3	36.190	0.330	-1.410	-0.970
2020/01/31 07:48:13.4	36.130	0.360	-1.310	-0.900
2020/01/31 07:48:13.5	36.080	0.380	-1.210	-0.830
2020/01/31 07:48:13.6	36.020	0.410	-1.110	-0.750
2020/01/31 07:48:13.7	35.970	0.420	-1.000	-0.670
2020/01/31 07:48:13.8	35.910	0.440	-0.890	-0.590
2020/01/31 07:48:13.9	35.840	0.450	-0.780	-0.500
2020/01/31 07:48:14.0	35.780	0.470	-0.670	-0.410
2020/01/31 07:48:14.1	35.720	0.470	-0.560	-0.310
2020/01/31 07:48:14.2	35.650	0.480	-0.450	-0.220
2020/01/31 07:48:14.3	35.590	0.490	-0.340	-0.120
2020/01/31 07:48:14.4	35.520	0.490	-0.240	-0.020
2020/01/31 07:48:14.5	35.450	0.500	-0.140	0.080
2020/01/31 07:48:14.6	35.380	0.500	-0.050	0.170
2020/01/31 07:48:14.7	35.310	0.500	0.040	0.270
2020/01/31 07:48:14.8	35.240	0.500	0.120	0.370
2020/01/31 07:48:14.9	35.170	0.510	0.200	0.460
2020/01/31 07:48:15.0	35.100	0.510	0.260	0.560
2020/01/31 07:48:15.1	35.030	0.510	0.320	0.650
2020/01/31 07:48:15.2	34.970	0.510	0.380	0.730
2020/01/31 07:48:15.3	34.920	0.520	0.420	0.820
2020/01/31 07:48:15.4	34.850	0.520	0.450	0.900
2020/01/31 07:48:15.5	34.780	0.520	0.480	0.980
2020/01/31 07:48:15.6	34.720	0.530	0.500	1.050
2020/01/31 07:48:15.7	34.660	0.530	0.500	1.110
2020/01/31 07:48:15.8	34.600	0.540	0.510	1.170
2020/01/31 07:48:15.9	34.540	0.540	0.500	1.230
2020/01/31 07:48:16.0	34.490	0.550	0.480	1.270
2020/01/31 07:48:16.1	34.430	0.550	0.460	1.310
2020/01/31 07:48:16.2	34.380	0.560	0.430	1.350
2020/01/31 07:48:16.3	34.350	0.560	0.390	1.370
2020/01/31 07:48:16.4	34.310	0.560	0.350	1.390
2020/01/31 07:48:16.5	34.270	0.570	0.300	1.400
2020/01/31 07:48:16.6	34.240	0.570	0.240	1.400
2020/01/31 07:48:16.7	34.210	0.570	0.180	1.400
2020/01/31 07:48:16.8	34.180	0.570	0.120	1.390
2020/01/31 07:48:16.9	34.160	0.570	0.060	1.370
2020/01/31 07:48:17.0	34.140	0.560	-0.010	1.340
2020/01/31 07:48:17.1	34.130	0.560	-0.070	1.300
2020/01/31 07:48:17.2	34.120	0.550	-0.130	1.260
2020/01/31 07:48:17.3	34.110	0.540	-0.200	1.210
2020/01/31 07:48:17.4	34.110	0.520	-0.260	1.160
2020/01/31 07:48:17.5	34.110	0.510	-0.310	1.110
2020/01/31 07:48:17.6	34.110	0.490	-0.370	1.040
2020/01/31 07:48:17.7	34.120	0.470	-0.420	0.980
2020/01/31 07:48:17.8	34.120	0.440	-0.460	0.910
2020/01/31 07:48:17.9	34.130	0.420	-0.490	0.850
2020/01/31 07:48:18.0	34.140	0.390	-0.520	0.780
2020/01/31 07:48:18.1	34.150	0.360	-0.540	0.710
2020/01/31 07:48:18.2	34.160	0.320	-0.560	0.640
2020/01/31 07:48:18.3	34.170	0.280	-0.570	0.570
2020/01/31 07:48:18.4	34.180	0.240	-0.560	0.510
2020/01/31 07:48:18.5	34.180	0.200	-0.550	0.450
2020/01/31 07:48:18.6	34.190	0.150	-0.530	0.390
2020/01/31 07:48:18.7	34.190	0.110	-0.500	0.340
2020/01/31 07:48:18.8	34.190	0.060	-0.470	0.300
2020/01/31 07:48:18.9	34.190	0.000	-0.420	0.250
2020/01/31 07:48:19.0	34.180	-0.050	-0.370	0.220
2020/01/31 07:48:19.1	34.180	-0.110	-0.320	0.190
2020/01/31 07:48:19.2	34.170	-0.160	-0.250	0.160
2020/01/31 07:48:19.3	34.160	-0.220	-0.180	0.140
2020/01/31 07:48:19.4	34.140	-0.280	-0.110	0.120
2020/01/31 07:48:19.5	34.120	-0.340	-0.030	0.110
2020/01/31 07:48:19.6	34.100	-0.390	0.040	0.110
2020/01/31 07:48:19.7	34.080	-0.450	0.120	0.100
2020/01/31 07:48:19.8	34.050	-0.510	0.200	0.110
2020/01/31 07:48:19.9	34.020	-0.560	0.270	0.110
2020/01/31 07:48:20.0	33.990	-0.610	0.350	0.120
2020/01/31 07:48:20.1	33.960	-0.660	0.420	0.130
2020/01/31 07:48:20.2	33.930	-0.710	0.480	0.140
2020/01/31 07:48:20.3	33.890	-0.750	0.540	0.150
2020/01/31 07:48:20.4	33.850	-0.790	0.590	0.160
2020/01/31 07:48:20.5	33.810	-0.830	0.640	0.180
2020/01/31 07:48:20.6	33.770	-0.860	0.680	0.190
2020/01/31 07:48:20.7	33.730	-0.880	0.710	0.210
2020/01/31 07:48:20.8	33.690	-0.910	0.730	0.220
2020/01/31 07:48:20.9	33.650	-0.920	0.740	0.240
2020/01/31 07:48:21.0	33.610	-0.930	0.740	0.250
2020/01/31 07:48:21.1	33.570	-0.940	0.730	0.270
2020/01/31 07:48:21.2	33.520	-0.940	0.710	0.280
2020/01/31 07:48:21.3	33.490	-0.930	0.680	0.290
2020/01/31 07:48:21.4	33.440	-0.920	0.640	0.300
2020/01/31 07:48:21.5	33.400	-0.900	0.590	0.310
2020/01/31 07:48:21.6	33.350	-0.880	0.530	0.320
2020/01/31 07:48:21.7	33.300	-0.850	0.460	0.340
2020/01/31 07:48:21.8	33.260	-0.820	0.390	0.350
2020/01/31 07:48:21.9	33.210	-0.780	0.310	0.360
2020/01/31 07:48:22.0	33.160	-0.740	0.230	0.370
2020/01/31 07:48:22.1	33.120	-0.690	0.140	0.380
2020/01/31 07:48:22.2	33.070	-0.640	0.050	0.390
2020/01/31 07:48:22.3	33.010	-0.590	-0.040	0.400
2020/01/31 07:48:22.4	32.960	-0.540	-0.140	0.410
2020/01/31 07:48:22.5	32.910	-0.480	-0.230	0.420
2020/01/31 07:48:22.6	32.860	-0.430	-0.320	0.430
2020/01/31 07:48:22.7	32.810	-0.370	-0.400	0.450
2020/01/31 07:48:22.8	32.760	-0.310	-0.490	0.460
2020/01/31 07:48:22.9	32.710	-0.250	-0.570	0.470
2020/01/31 07:48:23.0	32.660	-0.200	-0.640	0.490
2020/01/31 07:48:23.1	32.610	-0.140	-0.710	0.500
2020/01/31 07:48:23.2	32.560	-0.080	-0.770	0.520
2020/01/31 07:48:23.3	32.500	-0.030	-0.820	0.530
2020/01/31 07:48:23.4	32.450	0.020	-0.860	0.540
2020/01/31 07:48:23.5	32.400	0.070	-0.900	0.560
2020/01/31 07:48:23.6	32.340	0.120	-0.930	0.570
2020/01/31 07:48:23.7	32.290	0.170	-0.950	0.590
2020/01/31 07:48:23.8	32.230	0.210	-0.970	0.610
2020/01/31 07:48:23.9	32.180	0.250	-0.970	0.620
2020/01/31 07:48:24.0	32.120	0.290	-0.960	0.640
2020/01/31 07:48:24.1	32.060	0.320	-0.950	0.660
2020/01/31 07:48:24.2	32.010	0.350	-0.930	0.690
2020/01/31 07:48:24.3	31.940	0.380	-0.900	0.710
2020/01/31 07:48:24.4	31.880	0.400	-0.870	0.730
2020/01/31 07:48:24.5	31.820	0.420	-0.830	0.760
2020/01/31 07:48:24.6	31.760	0.440	-0.780	0.780
2020/01/31 07:48:24.7	31.700	0.460	-0.730	0.810
2020/01/31 07:48:24.8	31.640	0.470	-0.670	0.830
2020/01/31 07:48:24.9	31.590	0.480	-0.620	0.860
2020/01/31 07:48:25.0	31.530	0.490	-0.560	0.880
2020/01/31 07:48:25.1	31.470	0.490	-0.500	0.900
2020/01/31 07:48:25.2	31.420	0.500	-0.440	0.930
2020/01/31 07:48:25.3	31.390	0.500	-0.390	0.950
2020/01/31 07:48:25.4	31.340	0.500	-0.330	0.960
2020/01/31 07:48:25.5	31.290	0.490	-0.280	0.980
2020/01/31 07:48:25.6	31.250	0.490	-0.240	0.980
2020/01/31 07:48:25.7	31.220	0.480	-0.200	0.990
2020/01/31 07:48:25.8	31.190	0.480	-0.170	0.990
2020/01/31 07:48:25.9	31.160	0.470	-0.140	0.980
2020/01/31 07:48:26.0	31.140	0.470	-0.130	0.970
2020/01/31 07:48:26.1	31.120	0.460	-0.120	0.950
2020/01/31 07:48:26.2	31.110	0.450	-0.120	0.930
2020/01/31 07:48:26.3	31.090	0.440	-0.130	0.900
2020/01/31 07:48:26.4	31.080	0.430	-0.140	0.870
2020/01/31 07:48:26.5	31.080	0.430	-0.160	0.830
2020/01/31 07:48:26.6	31.080	0.420	-0.190	0.780
2020/01/31 07:48:26.7	31.090	0.410	-0.220	0.740
2020/01/31 07:48:26.8	31.100	0.400	-0.260	0.680
2020/01/31 07:48:26.9	31.110	0.390	-0.300	0.630
2020/01/31 07:48:27.0	31.120	0.390	-0.350	0.570
2020/01/31 07:48:27.1	31.140	0.380	-0.400	0.500
2020/01/31 07:48:27.2	31.160	0.370	-0.450	0.440
2020/01/31 07:48:27.3	31.170	0.360	-0.500	0.370
2020/01/31 07:48:27.4	31.180	0.350	-0.550	0.310
2020/01/31 07:48:27.5	31.200	0.340	-0.600	0.240
2020/01/31 07:48:27.6	31.210	0.340	-0.650	0.170
2020/01/31 07:48:27.7	31.230	0.330	-0.690	0.110
2020/01/31 07:48:27.8	31.240	0.320	-0.730	0.040
2020/01/31 07:48:27.9	31.250	0.310	-0.770	-0.020
2020/01/31 07:48:28.0	31.260	0.290	-0.790	-0.080
2020/01/31 07:48:28.1	31.270	0.280	-0.810	-0.130
2020/01/31 07:48:28.2	31.270	0.270	-0.830	-0.190
2020/01/31 07:48:28.3	31.260	0.250	-0.830	-0.240
2020/01/31 07:48:28.4	31.260	0.240	-0.830	-0.280
2020/01/31 07:48:28.5	31.250	0.220	-0.810	-0.320
2020/01/31 07:48:28.6	31.240	0.200	-0.790	-0.350
2020/01/31 07:48:28.7	31.230	0.190	-0.760	-0.380
2020/01/31 07:48:28.8	31.220	0.160	-0.720	-0.400
2020/01/31 07:48:28.9	31.200	0.140	-0.670	-0.410
2020/01/31 07:48:29.0	31.170	0.120	-0.610	-0.420
2020/01/31 07:48:29.1	31.140	0.090	-0.540	-0.420
2020/01/31 07:48:29.2	31.110	0.070	-0.470	-0.420
2020/01/31 07:48:29.3	31.060	0.040	-0.390	-0.410
2020/01/31 07:48:29.4	31.030	0.010	-0.310	-0.390
2020/01/31 07:48:29.5	30.990	-0.020	-0.220	-0.370
2020/01/31 07:48:29.6	30.940	-0.050	-0.130	-0.340
2020/01/31 07:48:29.7	30.890	-0.090	-0.040	-0.310
2020/01/31 07:48:29.8	30.850	-0.120	0.060	-0.270
2020/01/31 07:48:29.9	30.790	-0.150	0.150	-0.230
2020/01/31 07:48:30.0	30.740	-0.190	0.240	-0.190
2020/01/31 07:48:30.1	30.680	-0.220	0.340	-0.140
2020/01/31 07:48:30.2	30.620	-0.260	0.420	-0.090
2020/01/31 07:48:30.3	30.540	-0.290	0.510	-0.040
2020/01/31 07:48:30.4	30.470	-0.320	0.590	0.010
2020/01/31 07:48:30.5	30.400	-0.350	0.660	0.070
2020/01/31 07:48:30.6	30.330	-0.380	0.730	0.130
2020/01/31 07:48:30.7	30.260	-0.410	0.790	0.190
2020/01/31 07:48:30.8	30.180	-0.440	0.850	0.240
2020/01/31 07:48:30.9	30.110	-0.460	0.890	0.300
2020/01/31 07:48:31.0	30.030	-0.480	0.930	0.360
2020/01/31 07:48:31.1	29.960	-0.500	0.950	0.410
2020/01/31 07:48:31.2	29.890	-0.510	0.970	0.460
2020/01/31 07:48:31.3	29.820	-0.520	0.970	0.510
2020/01/31 07:48:31.4	29.750	-0.530	0.970	0.560
2020/01/31 07:48:31.5	29.680	-0.530	0.950	0.600
2020/01/31 07:48:31.6	29.610	-0.520	0.920	0.640
2020/01/31 07:48:31.7	29.550	-0.520	0.890	0.680
2020/01/31 07:48:31.8	29.480	-0.500	0.840	0.710
2020/01/31 07:48:31.9	29.420	-0.480	0.790	0.740
2020/01/31 07:48:32.0	29.370	-0.460	0.730	0.770
2020/01/31 07:48:32.1	29.310	-0.430	0.660	0.790
2020/01/31 07:48:32.2	29.260	-0.400	0.580	0.810
2020/01/31 07:48:32.3	29.200	-0.360	0.500	0.830
2020/01/31 07:48:32.4	29.150	-0.320	0.420	0.850
2020/01/31 07:48:32.5	29.110	-0.280	0.330	0.870
2020/01/31 07:48:32.6	29.070	-0.230	0.240	0.880
2020/01/31 07:48:32.7	29.030	-0.180	0.150	0.890
2020/01/31 07:48:32.8	28.990	-0.130	0.060	0.910
2020/01/31 07:48:32.9	28.950	-0.080	-0.020	0.920
2020/01/31 07:48:33.0	28.920	-0.030	-0.110	0.930
2020/01/31 07:48:33.1	28.880	0.020	-0.190	0.950
2020/01/31 07:48:33.2	28.850	0.070	-0.270	0.960
2020/01/31 07:48:33.3	28.800	0.120	-0.340	0.970
2020/01/31 07:48:33.4	28.770	0.170	-0.400	0.980
2020/01/31 07:48:33.5	28.740	0.210	-0.460	0.990
2020/01/31 07:48:33.6	28.710	0.250	-0.520	0.990
2020/01/31 07:48:33.7	28.680	0.290	-0.560	1.000
2020/01/31 07:48:33.8	28.650	0.320	-0.600	1.000
2020/01/31 07:48:33.9	28.620	0.350	-0.630	1.000
2020/01/31 07:48:34.0	28.590	0.370	-0.660	1.000
2020/01/31 07:48:34.1	28.560	0.390	-0.680	0.990
2020/01/31 07:48:34.2	28.530	0.400	-0.690	0.980
2020/01/31 07:48:34.3	28.500	0.410	-0.700	0.980
2020/01/31 07:48:34.4	28.470	0.410	-0.700	0.960
2020/01/31 07:48:34.5	28.450	0.410	-0.700	0.940
2020/01/31 07:48:34.6	28.420	0.400	-0.690	0.930
2020/01/31 07:48:34.7	28.400	0.390	-0.680	0.900
2020/01/31 07:48:34.8	28.380	0.370	-0.660	0.880
2020/01/31 07:48:34.9	28.350	0.350	-0.650	0.850
2020/01/31 07:48:35.0	28.330	0.330	-0.630	0.830
2020/01/31 07:48:35.1	28.310	0.300	-0.610	0.800
2020/01/31 07:48:35.2	28.290	0.260	-0.590	0.770
2020/01/31 07:48:35.3	28.280	0.230	-0.560	0.730
2020/01/31 07:48:35.4	28.260	0.190	-0.540	0.700
2020/01/31 07:48:35.5	28.240	0.150	-0.510	0.670
2020/01/31 07:48:35.6	28.220	0.110	-0.490	0.640
2020/01/31 07:48:35.7	28.200	0.070	-0.470	0.610
2020/01/31 07:48:35.8	28.190	0.030	-0.450	0.580
2020/01/31 07:48:35.9	28.170	-0.010	-0.430	0.560
2020/01/31 07:48:36.0	28.150	-0.050	-0.410	0.530
2020/01/31 07:48:36.1	28.130	-0.090	-0.400	0.510
2020/01/31 07:48:36.2	28.110	-0.130	-0.380	0.490
2020/01/31 07:48:36.3	28.080	-0.160	-0.380	0.470
2020/01/31 07:48:36.4	28.060	-0.200	-0.370	0.450
2020/01/31 07:48:36.5	28.030	-0.230	-0.360	0.430
2020/01/31 07:48:36.6	28.010	-0.260	-0.350	0.420
2020/01/31 07:48:36.7	27.980	-0.290	-0.350	0.400
2020/01/31 07:48:36.8	27.960	-0.320	-0.350	0.380
2020/01/31 07:48:36.9	27.930	-0.340	-0.350	0.360
2020/01/31 07:48:37.0	27.900	-0.370	-0.350	0.340
2020/01/31 07:48:37.1	27.870	-0.390	-0.360	0.320
2020/01/31 07:48:37.2	27.840	-0.400	-0.370	0.290
2020/01/31 07:48:37.3	27.800	-0.410	-0.370	0.260
2020/01/31 07:48:37.4	27.770	-0.430	-0.390	0.240
2020/01/31 07:48:37.5	27.740	-0.430	-0.400	0.210
2020/01/31 07:48:37.6	27.710	-0.440	-0.410	0.180
2020/01/31 07:48:37.7	27.680	-0.440	-0.430	0.140
2020/01/31 07:48:37.8	27.650	-0.440	-0.440	0.110
2020/01/31 07:48:37.9	27.610	-0.430	-0.460	0.080
2020/01/31 07:48:38.0	27.580	-0.420	-0.470	0.050
2020/01/31 07:48:38.1	27.550	-0.410	-0.490	0.020
2020/01/31 07:48:38.2	27.510	-0.390	-0.500	-0.010
2020/01/31 07:48:38.3	27.460	-0.380	-0.510	-0.040
2020/01/31 07:48:38.4	27.430	-0.360	-0.520	-0.060
2020/01/31 07:48:38.5	27.390	-0.330	-0.530	-0.080
2020/01/31 07:48:38.6	27.360	-0.310	-0.530	-0.100
2020/01/31 07:48:38.7	27.320	-0.280	-0.540	-0.100
2020/01/31 07:48:38.8	27.290	-0.250	-0.540	-0.110
2020/01/31 07:48:38.9	27.250	-0.220	-0.530	-0.100
2020/01/31 07:48:39.0	27.210	-0.190	-0.520	-0.090
2020/01/31 07:48:39.1	27.170	-0.150	-0.510	-0.080
2020/01/31 07:48:39.2	27.130	-0.120	-0.490	-0.060
2020/01/31 07:48:39.3	27.070	-0.080	-0.470	-0.030
2020/01/31 07:48:39.4	27.030	-0.050	-0.440	0.000
2020/01/31 07:48:39.5	26.980	-0.010	-0.410	0.040
2020/01/31 07:48:39.6	26.940	0.030	-0.370	0.090
2020/01/31 07:48:39.7	26.890	0.060	-0.330	0.140
2020/01/31 07:48:39.8	26.840	0.100	-0.290	0.190
2020/01/31 07:48:39.9	26.790	0.140	-0.250	0.250
2020/01/31 07:48:40.0	26.740	0.170	-0.200	0.300
2020/01/31 07:48:40.1	26.690	0.200	-0.150	0.360
2020/01/31 07:48:40.2	26.650	0.230	-0.110	0.420
2020/01/31 07:48:40.3	26.590	0.260	-0.060	0.480
2020/01/31 07:48:40.4	26.540	0.290	-0.010	0.540
2020/01/31 07:48:40.5	26.490	0.320	0.030	0.600
2020/01/31 07:48:40.6	26.440	0.340	0.070	0.660
2020/01/31 07:48:40.7	26.390	0.360	0.110	0.710
2020/01/31 07:48:40.8	26.350	0.380	0.150	0.760
2020/01/31 07:48:40.9	26.300	0.400	0.180	0.800
2020/01/31 07:48:41.0	26.250	0.410	0.210	0.840
2020/01/31 07:48:41.1	26.210	0.420	0.230	0.880
2020/01/31 07:48:41.2	26.170	0.420	0.250	0.910
2020/01/31 07:48:41.3	26.120	0.430	0.270	0.930
2020/01/31 07:48:41.4	26.080	0.430	0.270	0.950
2020/01/31 07:48:41.5	26.040	0.430	0.270	0.970
2020/01/31 07:48:41.6	26.010	0.420	0.270	0.980
2020/01/31 07:48:41.7	25.970	0.410	0.250	0.980
2020/01/31 07:48:41.8	25.940	0.400	0.240	0.990
2020/01/31 07:48:41.9	25.920	0.390	0.210	0.980
2020/01/31 07:48:42.0	25.890	0.380	0.180	0.970
2020/01/31 07:48:42.1	25.870	0.360	0.150	0.960
2020/01/31 07:48:42.2	25.850	0.350	0.110	0.940
2020/01/31 07:48:42.3	25.840	0.330	0.070	0.930
2020/01/31 07:48:42.4	25.820	0.310	0.030	0.900
2020/01/31 07:48:42.5	25.810	0.290	-0.020	0.880
2020/01/31 07:48:42.6	25.800	0.270	-0.070	0.850
2020/01/31 07:48:42.7	25.800	0.250	-0.120	0.830
2020/01/31 07:48:42.8	25.790	0.230	-0.170	0.800
2020/01/31 07:48:42.9	25.790	0.210	-0.220	0.770
2020/01/31 07:48:43.0	25.790	0.180	-0.270	0.740
2020/01/31 07:48:43.1	25.790	0.160	-0.310	0.720
2020/01/31 07:48:43.2	25.790	0.140	-0.360	0.690
2020/01/31 07:48:43.3	25.800	0.120	-0.390	0.660
2020/01/31 07:48:43.4	25.790	0.100	-0.430	0.640
2020/01/31 07:48:43.5	25.790	0.080	-0.450	0.620
2020/01/31 07:48:43.6	25.780	0.060	-0.470	0.600
2020/01/31 07:48:43.7	25.770	0.040	-0.490	0.580
2020/01/31 07:48:43.8	25.760	0.020	-0.490	0.570
2020/01/31 07:48:43.9	25.740	0.000	-0.490	0.560
2020/01/31 07:48:44.0	25.720	-0.010	-0.490	0.550
2020/01/31 07:48:44.1	25.700	-0.030	-0.470	0.540
2020/01/31 07:48:44.2	25.670	-0.050	-0.450	0.540
2020/01/31 07:48:44.3	25.630	-0.070	-0.420	0.540
2020/01/31 07:48:44.4	25.600	-0.090	-0.380	0.540
2020/01/31 07:48:44.5	25.560	-0.100	-0.340	0.540
2020/01/31 07:48:44.6	25.510	-0.120	-0.300	0.550
2020/01/31 07:48:44.7	25.460	-0.140	-0.240	0.560
2020/01/31 07:48:44.8	25.410	-0.150	-0.190	0.570
2020/01/31 07:48:44.9	25.360	-0.170	-0.130	0.590
2020/01/31 07:48:45.0	25.290	-0.190	-0.070	0.600
2020/01/31 07:48:45.1	25.230	-0.200	-0.000	0.620
2020/01/31 07:48:45.2	25.160	-0.220	0.060	0.640
2020/01/31 07:48:45.3	25.110	-0.240	0.120	0.660
2020/01/31 07:48:45.4	25.040	-0.250	0.180	0.680
2020/01/31 07:48:45.5	24.960	-0.270	0.240	0.710
2020/01/31 07:48:45.6	24.890	-0.280	0.300	0.730
2020/01/31 07:48:45.7	24.810	-0.300	0.350	0.750
2020/01/31 07:48:45.8	24.730	-0.310	0.400	0.770
2020/01/31 07:48:45.9	24.660	-0.320	0.440	0.790
2020/01/31 07:48:46.0	24.580	-0.330	0.480	0.800
2020/01/31 07:48:46.1	24.510	-0.340	0.500	0.820
2020/01/31 07:48:46.2	24.440	-0.350	0.520	0.830
2020/01/31 07:48:46.3	24.370	-0.350	0.540	0.830
2020/01/31 07:48:46.4	24.300	-0.360	0.540	0.840
2020/01/31 07:48:46.5	24.240	-0.360	0.530	0.840
2020/01/31 07:48:46.6	24.180	-0.360	0.520	0.830
2020/01/31 07:48:46.7	24.120	-0.360	0.490	0.820
2020/01/31 07:48:46.8	24.070	-0.360	0.460	0.800
2020/01/31 07:48:46.9	24.030	-0.350	0.420	0.780
2020/01/31 07:48:47.0	23.990	-0.340	0.370	0.750
2020/01/31 07:48:47.1	23.950	-0.330	0.310	0.720
2020/01/31 07:48:47.2	23.920	-0.310	0.240	0.680
2020/01/31 07:48:47.3	23.920	-0.300	0.160	0.630
2020/01/31 07:48:47.4	23.900	-0.280	0.080	0.590
2020/01/31 07:48:47.5	23.890	-0.260	-0.010	0.530
2020/01/31 07:48:47.6	23.880	-0.230	-0.100	0.480
2020/01/31 07:48:47.7	23.870	-0.210	-0.200	0.420
2020/01/31 07:48:47.8	23.870	-0.180	-0.290	0.360
2020/01/31 07:48:47.9	23.880	-0.150	-0.390	0.300
2020/01/31 07:48:48.0	23.880	-0.120	-0.490	0.240
2020/01/31 07:48:48.1	23.890	-0.100	-0.590	0.180
2020/01/31 07:48:48.2	23.900	-0.070	-0.680	0.120
2020/01/31 07:48:48.3	23.920	-0.040	-0.780	0.060
2020/01/31 07:48:48.4	23.930	-0.010	-0.860	0.000
2020/01/31 07:48:48.5	23.950	0.020	-0.940	-0.050
2020/01/31 07:48:48.6	23.960	0.050	-1.020	-0.110
2020/01/31 07:48:48.7	23.970	0.070	-1.080	-0.160
2020/01/31 07:48:48.8	23.990	0.090	-1.140	-0.220
2020/01/31 07:48:48.9	24.000	0.120	-1.190	-0.260
2020/01/31 07:48:49.0	24.010	0.130	-1.230	-0.310
2020/01/31 07:48:49.1	24.020	0.150	-1.260	-0.350
2020/01/31 07:48:49.2	24.030	0.170	-1.280	-0.390
2020/01/31 07:48:49.3	24.050	0.180	-1.280	-0.430
2020/01/31 07:48:49.4	24.050	0.190	-1.280	-0.470
2020/01/31 07:48:49.5	24.060	0.190	-1.270	-0.500
2020/01/31 07:48:49.6	24.050	0.190	-1.250	-0.520
2020/01/31 07:48:49.7	24.050	0.190	-1.210	-0.540
2020/01/31 07:48:49.8	24.050	0.190	-1.170	-0.560
2020/01/31 07:48:49.9	24.040	0.180	-1.120	-0.570
2020/01/31 07:48:50.0	24.020	0.170	-1.060	-0.570
2020/01/31 07:48:50.1	24.000	0.160	-0.990	-0.570
2020/01/31 07:48:50.2	23.970	0.150	-0.920	-0.570
2020/01/31 07:48:50.3	23.940	0.130	-0.840	-0.550
2020/01/31 07:48:50.4	23.900	0.110	-0.750	-0.530
2020/01/31 07:48:50.5	23.860	0.090	-0.660	-0.510
2020/01/31 07:48:50.6	23.810	0.060	-0.560	-0.470
2020/01/31 07:48:50.7	23.750	0.040	-0.470	-0.440
2020/01/31 07:48:50.8	23.690	0.010	-0.370	-0.390
2020/01/31 07:48:50.9	23.630	-0.020	-0.270	-0.350
2020/01/31 07:48:51.0	23.560	-0.040	-0.170	-0.290
2020/01/31 07:48:51.1	23.480	-0.070	-0.070	-0.240
2020/01/31 07:48:51.2	23.410	-0.100	0.030	-0.170
2020/01/31 07:48:51.3	23.320	-0.130	0.130	-0.110
2020/01/31 07:48:51.4	23.230	-0.150	0.210	-0.040
2020/01/31 07:48:51.5	23.140	-0.180	0.300	0.030
2020/01/31 07:48:51.6	23.050	-0.200	0.380	0.100
2020/01/31 07:48:51.7	22.960	-0.230	0.450	0.180
2020/01/31 07:48:51.8	22.860	-0.250	0.520	0.260
2020/01/31 07:48:51.9	22.760	-0.270	0.580	0.330
2020/01/31 07:48:52.0	22.660	-0.280	0.630	0.410
2020/01/31 07:48:52.1	22.560	-0.290	0.680	0.490
2020/01/31 07:48:52.2	22.470	-0.300	0.710	0.570
2020/01/31 07:48:52.3	22.370	-0.310	0.730	0.650
2020/01/31 07:48:52.4	22.270	-0.310	0.750	0.720
2020/01/31 07:48:52.5	22.170	-0.300	0.760	0.790
2020/01/31 07:48:52.6	22.080	-0.300	0.760	0.860
2020/01/31 07:48:52.7	21.990	-0.290	0.750	0.930
2020/01/31 07:48:52.8	21.900	-0.270	0.730	0.990
2020/01/31 07:48:52.9	21.810	-0.250	0.700	1.050
2020/01/31 07:48:53.0	21.730	-0.230	0.660	1.100
2020/01/31 07:48:53.1	21.650	-0.210	0.610	1.150
2020/01/31 07:48:53.2	21.570	-0.180	0.560	1.190
2020/01/31 07:48:53.3	21.500	-0.150	0.500	1.230
2020/01/31 07:48:53.4	21.430	-0.120	0.430	1.260
2020/01/31 07:48:53.5	21.360	-0.080	0.360	1.280
2020/01/31 07:48:53.6	21.300	-0.040	0.280	1.290
2020/01/31 07:48:53.7	21.240	-0.000	0.200	1.300
2020/01/31 07:48:53.8	21.180	0.040	0.120	1.290
2020/01/31 07:48:53.9	21.130	0.080	0.030	1.290
2020/01/31 07:48:54.0	21.080	0.120	-0.060	1.270
2020/01/31 07:48:54.1	21.040	0.170	-0.150	1.250
2020/01/31 07:48:54.2	21.010	0.210	-0.240	1.220
2020/01/31 07:48:54.3	20.990	0.260	-0.320	1.190
2020/01/31 07:48:54.4	20.970	0.300	-0.410	1.150
2020/01/31 07:48:54.5	20.950	0.340	-0.490	1.100
2020/01/31 07:48:54.6	20.930	0.390	-0.570	1.050
2020/01/31 07:48:54.7	20.910	0.430	-0.650	1.000
2020/01/31 07:48:54.8	20.900	0.470	-0.720	0.950
2020/01/31 07:48:54.9	20.900	0.500	-0.780	0.900
2020/01/31 07:48:55.0	20.890	0.540	-0.840	0.840
2020/01/31 07:48:55.1	20.890	0.570	-0.900	0.790
2020/01/31 07:48:55.2	20.890	0.590	-0.940	0.740
2020/01/31 07:48:55.3	20.880	0.620	-0.980	0.680
2020/01/31 07:48:55.4	20.880	0.630	-1.010	0.640
2020/01/31 07:48:55.5	20.880	0.650	-1.030	0.590
2020/01/31 07:48:55.6	20.890	0.660	-1.050	0.540
2020/01/31 07:48:55.7	20.890	0.660	-1.060	0.500
2020/01/31 07:48:55.8	20.890	0.660	-1.060	0.460
2020/01/31 07:48:55.9	20.900	0.650	-1.050	0.410
2020/01/31 07:48:56.0	20.900	0.630	-1.040	0.380
2020/01/31 07:48:56.1	20.900	0.620	-1.020	0.340
2020/01/31 07:48:56.2	20.900	0.590	-0.990	0.300
2020/01/31 07:48:56.3	20.890	0.560	-0.960	0.260
2020/01/31 07:48:56.4	20.890	0.520	-0.920	0.230
2020/01/31 07:48:56.5	20.880	0.480	-0.880	0.190
2020/01/31 07:48:56.6	20.880	0.440	-0.830	0.160
2020/01/31 07:48:56.7	20.870	0.380	-0.770	0.130
2020/01/31 07:48:56.8	20.850	0.330	-0.720	0.100
2020/01/31 07:48:56.9	20.840	0.270	-0.650	0.070
2020/01/31 07:48:57.0	20.820	0.200	-0.590	0.040
2020/01/31 07:48:57.1	20.800	0.140	-0.520	0.010
2020/01/31 07:48:57.2	20.770	0.070	-0.450	-0.020
2020/01/31 07:48:57.3	20.740	-0.010	-0.370	-0.050
2020/01/31 07:48:57.4	20.700	-0.080	-0.300	-0.070
2020/01/31 07:48:57.5	20.670	-0.160	-0.220	-0.090
2020/01/31 07:48:57.6	20.620	-0.230	-0.150	-0.110
2020/01/31 07:48:57.7	20.580	-0.310	-0.070	-0.120
2020/01/31 07:48:57.8	20.530	-0.380	0.010	-0.130
2020/01/31 07:48:57.9	20.480	-0.450	0.080	-0.140
2020/01/31 07:48:58.0	20.420	-0.520	0.160	-0.140
2020/01/31 07:48:58.1	20.360	-0.590	0.230	-0.140
2020/01/31 07:48:58.2	20.300	-0.650	0.300	-0.130
2020/01/31 07:48:58.3	20.220	-0.710	0.370	-0.120
2020/01/31 07:48:58.4	20.150	-0.770	0.430	-0.100
2020/01/31 07:48:58.5	20.080	-0.820	0.500	-0.080
2020/01/31 07:48:58.6	20.010	-0.870	0.560	-0.050
2020/01/31 07:48:58.7	19.930	-0.910	0.610	-0.020
2020/01/31 07:48:58.8	19.850	-0.940	0.660	0.010
2020/01/31 07:48:58.9	19.780	-0.960	0.700	0.050
2020/01/31 07:48:59.0	19.700	-0.980	0.740	0.090
2020/01/31 07:48:59.1	19.620	-0.990	0.770	0.130
2020/01/31 07:48:59.2	19.540	-1.000	0.790	0.180
2020/01/31 07:48:59.3	19.450	-1.000	0.800	0.230
2020/01/31 07:48:59.4	19.370	-0.980	0.810	0.280
2020/01/31 07:48:59.5	19.290	-0.960	0.810	0.330
2020/01/31 07:48:59.6	19.210	-0.940	0.800	0.380
2020/01/31 07:48:59.7	19.140	-0.900	0.780	0.430
2020/01/31 07:48:59.8	19.060	-0.860	0.750	0.490
2020/01/31 07:48:59.9	18.990	-0.810	0.710	0.540
2020/01/31 07:49:00.0	18.920	-0.760	0.670	0.590
2020/01/31 07:49:00.1	18.850	-0.700	0.610	0.640
2020/01/31 07:49:00.2	18.790	-0.630	0.550	0.690
2020/01/31 07:49:00.3	18.730	-0.560	0.480	0.740
2020/01/31 07:49:00.4	18.670	-0.480	0.410	0.780
2020/01/31 07:49:00.5	18.620	-0.400	0.330	0.810
2020/01/31 07:49:00.6	18.570	-0.310	0.240	0.850
2020/01/31 07:49:00.7	18.520	-0.220	0.150	0.880
2020/01/31 07:49:00.8	18.480	-0.130	0.060	0.910
2020/01/31 07:49:00.9	18.440	-0.040	-0.030	0.930
2020/01/31 07:49:01.0	18.410	0.050	-0.130	0.950
2020/01/31 07:49:01.1	18.370	0.140	-0.220	0.970
2020/01/31 07:49:01.2	18.340	0.240	-0.320	0.980
2020/01/31 07:49:01.3	18.330	0.330	-0.410	0.990
2020/01/31 07:49:01.4	18.300	0.410	-0.490	1.010
2020/01/31 07:49:01.5	18.280	0.500	-0.580	1.020
2020/01/31 07:49:01.6	18.250	0.580	-0.650	1.030
2020/01/31 07:49:01.7	18.230	0.660	-0.720	1.050
2020/01/31 07:49:01.8	18.210	0.730	-0.790	1.060
2020/01/31 07:49:01.9	18.180	0.790	-0.840	1.080
2020/01/31 07:49:02.0	18.160	0.850	-0.880	1.100
2020/01/31 07:49:02.1	18.130	0.900	-0.920	1.120
2020/01/31 07:49:02.2	18.100	0.950	-0.950	1.140
2020/01/31 07:49:02.3	18.080	0.980	-0.960	1.160
2020/01/31 07:49:02.4	18.050	1.010	-0.970	1.180
2020/01/31 07:49:02.5	18.020	1.030	-0.970	1.210
2020/01/31 07:49:02.6	17.990	1.040	-0.960	1.230
2020/01/31 07:49:02.7	17.950	1.040	-0.940	1.250
2020/01/31 07:49:02.8	17.920	1.030	-0.920	1.280
2020/01/31 07:49:02.9	17.880	1.020	-0.880	1.300
2020/01/31 07:49:03.0	17.840	0.990	-0.840	1.320
2020/01/31 07:49:03.1	17.800	0.960	-0.800	1.330
2020/01/31 07:49:03.2	17.760	0.920	-0.750	1.340
2020/01/31 07:49:03.3	17.710	0.870	-0.700	1.360
2020/01/31 07:49:03.4	17.670	0.820	-0.640	1.360
2020/01/31 07:49:03.5	17.630	0.750	-0.580	1.360
2020/01/31 07:49:03.6	17.590	0.690	-0.520	1.350
2020/01/31 07:49:03.7	17.550	0.610	-0.470	1.340
2020/01/31 07:49:03.8	17.520	0.540	-0.410	1.330
2020/01/31 07:49:03.9	17.480	0.450	-0.350	1.310
2020/01/31 07:49:04.0	17.440	0.370	-0.290	1.280
2020/01/31 07:49:04.1	17.400	0.280	-0.230	1.250
2020/01/31 07:49:04.2	17.360	0.190	-0.180	1.220
2020/01/31 07:49:04.3	17.320	0.100	-0.130	1.170
2020/01/31 07:49:04.4	17.280	0.010	-0.080	1.130
2020/01/31 07:49:04.5	17.250	-0.080	-0.040	1.080
2020/01/31 07:49:04.6	17.210	-0.170	0.000	1.030
2020/01/31 07:49:04.7	17.180	-0.260	0.040	0.980
2020/01/31 07:49:04.8	17.150	-0.340	0.070	0.920
2020/01/31 07:49:04.9	17.120	-0.420	0.090	0.870
2020/01/31 07:49:05.0	17.090	-0.500	0.120	0.800
2020/01/31 07:49:05.1	17.060	-0.570	0.140	0.740
2020/01/31 07:49:05.2	17.030	-0.640	0.150	0.680
2020/01/31 07:49:05.3	17.020	-0.700	0.160	0.610
2020/01/31 07:49:05.4	16.990	-0.750	0.160	0.540
2020/01/31 07:49:05.5	16.960	-0.800	0.160	0.470
2020/01/31 07:49:05.6	16.940	-0.850	0.150	0.400
2020/01/31 07:49:05.7	16.920	-0.880	0.140	0.340
2020/01/31 07:49:05.8	16.890	-0.910	0.130	0.270
2020/01/31 07:49:05.9	16.870	-0.930	0.110	0.200
2020/01/31 07:49:06.0	16.850	-0.940	0.080	0.140
2020/01/31 07:49:06.1	16.830	-0.940	0.050	0.070
2020/01/31 07:49:06.2	16.810	-0.940	0.020	0.010
2020/01/31 07:49:06.3	16.810	-0.930	-0.020	-0.050
2020/01/31 07:49:06.4	16.790	-0.910	-0.060	-0.110
2020/01/31 07:49:06.5	16.780	-0.880	-0.110	-0.170
2020/01/31 07:49:06.6	16.770	-0.850	-0.160	-0.220
2020/01/31 07:49:06.7	16.750	-0.800	-0.210	-0.270
2020/01/31 07:49:06.8	16.740	-0.750	-0.260	-0.320
2020/01/31 07:49:06.9	16.740	-0.700	-0.310	-0.370
2020/01/31 07:49:07.0	16.730	-0.640	-0.370	-0.410
2020/01/31 07:49:07.1	16.720	-0.570	-0.430	-0.450
2020/01/31 07:49:07.2	16.720	-0.500	-0.480	-0.480
2020/01/31 07:49:07.3	16.740	-0.420	-0.530	-0.510
2020/01/31 07:49:07.4	16.730	-0.340	-0.590	-0.540
2020/01/31 07:49:07.5	16.730	-0.260	-0.640	-0.550
2020/01/31 07:49:07.6	16.720	-0.170	-0.680	-0.560
2020/01/31 07:49:07.7	16.720	-0.080	-0.720	-0.570
2020/01/31 07:49:07.8	16.710	0.000	-0.760	-0.560
2020/01/31 07:49:07.9	16.700	0.090	-0.790	-0.550
2020/01/31 07:49:08.0	16.690	0.170	-0.820	-0.540
2020/01/31 07:49:08.1	16.680	0.250	-0.840	-0.510
2020/01/31 07:49:08.2	16.660	0.330	-0.850	-0.490
2020/01/31 07:49:08.3	16.660	0.410	-0.860	-0.450
2020/01/31 07:49:08.4	16.650	0.480	-0.850	-0.410
2020/01/31 07:49:08.5	16.620	0.540	-0.840	-0.360
2020/01/31 07:49:08.6	16.600	0.600	-0.820	-0.310
2020/01/31 07:49:08.7	16.570	0.650	-0.790	-0.260
2020/01/31 07:49:08.8	16.540	0.700	-0.760	-0.210
2020/01/31 07:49:08.9	16.510	0.740	-0.720	-0.150
2020/01/31 07:49:09.0	16.480	0.770	-0.670	-0.090
2020/01/31 07:49:09.1	16.440	0.790	-0.620	-0.030
2020/01/31 07:49:09.2	16.410	0.810	-0.560	0.040
2020/01/31 07:49:09.3	16.370	0.820	-0.500	0.100
2020/01/31 07:49:09.4	16.330	0.820	-0.440	0.170
2020/01/31 07:49:09.5	16.290	0.810	-0.370	0.240
2020/01/31 07:49:09.6	16.250	0.800	-0.290	0.300
2020/01/31 07:49:09.7	16.200	0.780	-0.220	0.370
2020/01/31 07:49:09.8	16.160	0.750	-0.140	0.440
2020/01/31 07:49:09.9	16.110	0.710	-0.060	0.500
2020/01/31 07:49:10.0	16.070	0.670	0.010	0.560
2020/01/31 07:49:10.1	16.020	0.630	0.090	0.620
2020/01/31 07:49:10.2	15.970	0.580	0.160	0.680
2020/01/31 07:49:10.3	15.930	0.520	0.240	0.740
2020/01/31 07:49:10.4	15.890	0.460	0.310	0.780
2020/01/31 07:49:10.5	15.840	0.400	0.380	0.830
2020/01/31 07:49:10.6	15.780	0.330	0.440	0.870
2020/01/31 07:49:10.7	15.730	0.260	0.500	0.910
2020/01/31 07:49:10.8	15.680	0.190	0.560	0.950
2020/01/31 07:49:10.9	15.620	0.120	0.620	0.980
2020/01/31 07:49:11.0	15.570	0.050	0.670	1.010
2020/01/31 07:49:11.1	15.510	-0.020	0.710	1.040
2020/01/31 07:49:11.2	15.450	-0.090	0.750	1.060
2020/01/31 07:49:11.3	15.390	-0.160	0.790	1.070
2020/01/31 07:49:11.4	15.330	-0.230	0.820	1.080
2020/01/31 07:49:11.5	15.270	-0.290	0.840	1.090
2020/01/31 07:49:11.6	15.210	-0.360	0.860	1.090
2020/01/31 07:49:11.7	15.150	-0.410	0.870	1.090
2020/01/31 07:49:11.8	15.090	-0.470	0.870	1.090
2020/01/31 07:49:11.9	15.030	-0.520	0.870	1.080
2020/01/31 07:49:12.0	14.970	-0.560	0.860	1.060
2020/01/31 07:49:12.1	14.910	-0.600	0.840	1.040
2020/01/31 07:49:12.2	14.850	-0.640	0.810	1.020
2020/01/31 07:49:12.3	14.800	-0.670	0.780	0.990
2020/01/31 07:49:12.4	14.750	-0.690	0.730	0.950
2020/01/31 07:49:12.5	14.700	-0.710	0.680	0.920
2020/01/31 07:49:12.6	14.660	-0.730	0.620	0.870
2020/01/31 07:49:12.7	14.620	-0.730	0.560	0.830
2020/01/31 07:49:12.8	14.580	-0.740	0.480	0.780
2020/01/31 07:49:12.9	14.550	-0.730	0.400	0.720
2020/01/31 07:49:13.0	14.520	-0.720	0.310	0.670
2020/01/31 07:49:13.1	14.490	-0.710	0.220	0.610
2020/01/31 07:49:13.2	14.470	-0.690	0.120	0.550
2020/01/31 07:49:13.3	14.450	-0.670	0.030	0.490
2020/01/31 07:49:13.4	14.430	-0.640	-0.080	0.430
2020/01/31 07:49:13.5	14.410	-0.610	-0.180	0.370
2020/01/31 07:49:13.6	14.400	-0.570	-0.290	0.320
2020/01/31 07:49:13.7	14.390	-0.530	-0.390	0.260
2020/01/31 07:49:13.8	14.380	-0.490	-0.500	0.210
2020/01/31 07:49:13.9	14.370	-0.450	-0.600	0.150
2020/01/31 07:49:14.0	14.370	-0.400	-0.700	0.110
2020/01/31 07:49:14.1	14.360	-0.360	-0.790	0.060
2020/01/31 07:49:14.2	14.360	-0.310	-0.880	0.010
2020/01/31 07:49:14.3	14.380	-0.260	-0.960	-0.030
2020/01/31 07:49:14.4	14.380	-0.210	-1.030	-0.070
2020/01/31 07:49:14.5	14.380	-0.160	-1.100	-0.100
2020/01/31 07:49:14.6	14.390	-0.110	-1.160	-0.130
2020/01/31 07:49:14.7	14.390	-0.070	-1.210	-0.160
2020/01/31 07:49:14.8	14.400	-0.020	-1.240	-0.180
2020/01/31 07:49:14.9	14.400	0.020	-1.270	-0.200
2020/01/31 07:49:15.0	14.410	0.070	-1.290	-0.210
2020/01/31 07:49:15.1	14.420	0.110	-1.290	-0.220
2020/01/31 07:49:15.2	14.420	0.150	-1.290	-0.220
2020/01/31 07:49:15.3	14.440	0.180	-1.270	-0.220
2020/01/31 07:49:15.4	14.440	0.210	-1.250	-0.220
2020/01/31 07:49:15.5	14.450	0.240	-1.210	-0.200
2020/01/31 07:49:15.6	14.450	0.270	-1.160	-0.190
2020/01/31 07:49:15.7	14.450	0.290	-1.110	-0.170
2020/01/31 07:49:15.8	14.440	0.310	-1.050	-0.140
2020/01/31 07:49:15.9	14.440	0.330	-0.980	-0.120
2020/01/31 07:49:16.0	14.430	0.350	-0.900	-0.090
2020/01/31 07:49:16.1	14.420	0.360	-0.820	-0.050
2020/01/31 07:49:16.2	14.400	0.360	-0.740	-0.010
2020/01/31 07:49:16.3	14.370	0.370	-0.650	0.030
2020/01/31 07:49:16.4	14.350	0.370	-0.560	0.080
2020/01/31 07:49:16.5	14.320	0.360	-0.470	0.120
2020/01/31 07:49:16.6	14.290	0.360	-0.390	0.170
2020/01/31 07:49:16.7	14.260	0.350	-0.300	0.230
2020/01/31 07:49:16.8	14.220	0.340	-0.220	0.280
2020/01/31 07:49:16.9	14.180	0.330	-0.140	0.330
2020/01/31 07:49:17.0	14.140	0.310	-0.070	0.390
2020/01/31 07:49:17.1	14.090	0.290	0.000	0.440
2020/01/31 07:49:17.2	14.040	0.280	0.060	0.500
2020/01/31 07:49:17.3	13.980	0.260	0.120	0.560
2020/01/31 07:49:17.4	13.930	0.240	0.170	0.610
2020/01/31 07:49:17.5	13.870	0.220	0.210	0.660
2020/01/31 07:49:17.6	13.810	0.200	0.240	0.710
2020/01/31 07:49:17.7	13.750	0.180	0.260	0.760
2020/01/31 07:49:17.8	13.680	0.160	0.270	0.800
2020/01/31 07:49:17.9	13.620	0.150	0.280	0.840
2020/01/31 07:49:18.0	13.560	0.130	0.270	0.880
2020/01/31 07:49:18.1	13.490	0.120	0.260	0.910
2020/01/31 07:49:18.2	13.430	0.110	0.240	0.940
2020/01/31 07:49:18.3	13.360	0.100	0.220	0.960
2020/01/31 07:49:18.4	13.300	0.090	0.180	0.970
2020/01/31 07:49:18.5	13.250	0.090	0.140	0.980
2020/01/31 07:49:18.6	13.190	0.090	0.090	0.970
2020/01/31 07:49:18.7	13.140	0.090	0.030	0.960
2020/01/31 07:49:18.8	13.090	0.100	-0.030	0.950
2020/01/31 07:49:18.9	13.040	0.110	-0.090	0.920
2020/01/31 07:49:19.0	12.990	0.120	-0.160	0.890
2020/01/31 07:49:19.1	12.950	0.140	-0.230	0.860
2020/01/31 07:49:19.2	12.910	0.160	-0.310	0.810
2020/01/31 07:49:19.3	12.870	0.180	-0.380	0.770
2020/01/31 07:49:19.4	12.830	0.210	-0.450	0.720
2020/01/31 07:49:19.5	12.790	0.230	-0.520	0.670
2020/01/31 07:49:19.6	12.750	0.260	-0.590	0.620
2020/01/31 07:49:19.7	12.720	0.290	-0.650	0.570
2020/01/31 07:49:19.8	12.680	0.330	-0.710	0.520
2020/01/31 07:49:19.9	12.640	0.360	-0.770	0.470
2020/01/31 07:49:20.0	12.610	0.390	-0.810	0.420
2020/01/31 07:49:20.1	12.570	0.420	-0.860	0.380
2020/01/31 07:49:20.2	12.530	0.450	-0.890	0.340
2020/01/31 07:49:20.3	12.490	0.480	-0.920	0.290
2020/01/31 07:49:20.4	12.450	0.500	-0.930	0.260
2020/01/31 07:49:20.5	12.410	0.520	-0.940	0.230
2020/01/31 07:49:20.6	12.370	0.540	-0.940	0.200
2020/01/31 07:49:20.7	12.320	0.550	-0.930	0.170
2020/01/31 07:49:20.8	12.280	0.560	-0.920	0.150
2020/01/31 07:49:20.9	12.240	0.570	-0.890	0.130
2020/01/31 07:49:21.0	12.200	0.570	-0.860	0.110
2020/01/31 07:49:21.1	12.160	0.570	-0.820	0.100
2020/01/31 07:49:21.2	12.120	0.560	-0.770	0.090
2020/01/31 07:49:21.3	12.070	0.540	-0.710	0.080
2020/01/31 07:49:21.4	12.030	0.520	-0.640	0.070
2020/01/31 07:49:21.5	11.990	0.500	-0.570	0.070
2020/01/31 07:49:21.6	11.950	0.470	-0.500	0.060
2020/01/31 07:49:21.7	11.910	0.430	-0.420	0.060
2020/01/31 07:49:21.8	11.870	0.390	-0.340	0.060
2020/01/31 07:49:21.9	11.840	0.350	-0.250	0.060
2020/01/31 07:49:22.0	11.800	0.300	-0.160	0.060
2020/01/31 07:49:22.1	11.760	0.240	-0.070	0.070
2020/01/31 07:49:22.2	11.730	0.190	0.020	0.070
2020/01/31 07:49:22.3	11.680	0.130	0.110	0.070
2020/01/31 07:49:22.4	11.640	0.070	0.190	0.070
2020/01/31 07:49:22.5	11.610	0.000	0.280	0.080
2020/01/31 07:49:22.6	11.580	-0.060	0.360	0.080
2020/01/31 07:49:22.7	11.550	-0.130	0.440	0.090
2020/01/31 07:49:22.8	11.510	-0.200	0.510	0.090
2020/01/31 07:49:22.9	11.480	-0.260	0.580	0.100
2020/01/31 07:49:23.0	11.450	-0.320	0.650	0.100
2020/01/31 07:49:23.1	11.420	-0.390	0.710	0.110
2020/01/31 07:49:23.2	11.380	-0.450	0.760	0.120
2020/01/31 07:49:23.3	11.340	-0.500	0.810	0.130
2020/01/31 07:49:23.4	11.310	-0.560	0.850	0.140
2020/01/31 07:49:23.5	11.270	-0.610	0.880	0.150
2020/01/31 07:49:23.6	11.240	-0.660	0.910	0.170
2020/01/31 07:49:23.7	11.210	-0.700	0.930	0.180
2020/01/31 07:49:23.8	11.170	-0.740	0.940	0.200
2020/01/31 07:49:23.9	11.140	-0.770	0.950	0.210
2020/01/31 07:49:24.0	11.110	-0.800	0.950	0.230
2020/01/31 07:49:24.1	11.070	-0.820	0.940	0.240
2020/01/31 07:49:24.2	11.040	-0.840	0.920	0.260
2020/01/31 07:49:24.3	11.030	-0.860	0.900	0.280
2020/01/31 07:49:24.4	11.000	-0.860	0.870	0.290
2020/01/31 07:49:24.5	10.970	-0.870	0.830	0.300
2020/01/31 07:49:24.6	10.940	-0.860	0.780	0.310
2020/01/31 07:49:24.7	10.920	-0.860	0.730	0.320
2020/01/31 07:49:24.8	10.890	-0.850	0.670	0.330
2020/01/31 07:49:24.9	10.870	-0.830	0.610	0.330
2020/01/31 07:49:25.0	10.850	-0.810	0.540	0.330
2020/01/31 07:49:25.1	10.830	-0.780	0.470	0.340
2020/01/31 07:49:25.2	10.810	-0.750	0.400	0.340
2020/01/31 07:49:25.3	10.780	-0.720	0.320	0.330
2020/01/31 07:49:25.4	10.760	-0.680	0.240	0.330
2020/01/31 07:49:25.5	10.750	-0.640	0.160	0.330
2020/01/31 07:49:25.6	10.730	-0.600	0.080	0.320
2020/01/31 07:49:25.7	10.710	-0.560	-0.000	0.310
2020/01/31 07:49:25.8	10.690	-0.510	-0.080	0.310
2020/01/31 07:49:25.9	10.670	-0.470	-0.160	0.300
2020/01/31 07:49:26.0	10.650	-0.420	-0.230	0.290
2020/01/31 07:49:26.1	10.620	-0.370	-0.300	0.290
2020/01/31 07:49:26.2	10.600	-0.320	-0.370	0.290
2020/01/31 07:49:26.3	10.550	-0.280	-0.440	0.280
2020/01/31 07:49:26.4	10.520	-0.230	-0.490	0.280
2020/01/31 07:49:26.5	10.490	-0.180	-0.550	0.290
2020/01/31 07:49:26.6	10.460	-0.140	-0.600	0.290
2020/01/31 07:49:26.7	10.420	-0.090	-0.640	0.300
2020/01/31 07:49:26.8	10.380	-0.050	-0.680	0.310
2020/01/31 07:49:26.9	10.340	-0.010	-0.710	0.320
2020/01/31 07:49:27.0	10.290	0.020	-0.730	0.340
2020/01/31 07:49:27.1	10.240	0.050	-0.750	0.360
2020/01/31 07:49:27.2	10.190	0.090	-0.770	0.380
2020/01/31 07:49:27.3	10.150	0.110	-0.780	0.400
2020/01/31 07:49:27.4	10.090	0.140	-0.780	0.420
2020/01/31 07:49:27.5	10.030	0.160	-0.780	0.440
2020/01/31 07:49:27.6	9.970	0.180	-0.780	0.470
2020/01/31 07:49:27.7	9.900	0.200	-0.780	0.490
2020/01/31 07:49:27.8	9.840	0.210	-0.770	0.520
2020/01/31 07:49:27.9	9.770	0.220	-0.760	0.540
2020/01/31 07:49:28.0	9.700	0.230	-0.740	0.560
2020/01/31 07:49:28.1	9.640	0.240	-0.730	0.580
2020/01/31 07:49:28.2	9.570	0.240	-0.710	0.600
2020/01/31 07:49:28.3	9.500	0.250	-0.700	0.620
2020/01/31 07:49:28.4	9.430	0.250	-0.680	0.630
2020/01/31 07:49:28.5	9.370	0.250	-0.660	0.650
2020/01/31 07:49:28.6	9.310	0.250	-0.650	0.660
2020/01/31 07:49:28.7	9.240	0.250	-0.630	0.660
2020/01/31 07:49:28.8	9.180	0.250	-0.620	0.670
2020/01/31 07:49:28.9	9.130	0.260	-0.610	0.670
2020/01/31 07:49:29.0	9.070	0.260	-0.600	0.670
2020/01/31 07:49:29.1	9.010	0.260	-0.590	0.670
2020/01/31 07:49:29.2	8.960	0.270	-0.580	0.670
2020/01/31 07:49:29.3	8.910	0.270	-0.580	0.650
2020/01/31 07:49:29.4	8.870	0.280	-0.570	0.650
2020/01/31 07:49:29.5	8.820	0.280	-0.570	0.640
2020/01/31 07:49:29.6	8.770	0.290	-0.570	0.620
2020/01/31 07:49:29.7	8.730	0.300	-0.560	0.610
2020/01/31 07:49:29.8	8.690	0.310	-0.560	0.590
2020/01/31 07:49:29.9	8.650	0.320	-0.560	0.570
2020/01/31 07:49:30.0	8.610	0.330	-0.560	0.550
2020/01/31 07:49:30.1	8.580	0.340	-0.560	0.530
2020/01/31 07:49:30.2	8.540	0.350	-0.560	0.510
2020/01/31 07:49:30.3	8.520	0.360	-0.560	0.490
2020/01/31 07:49:30.4	8.490	0.370	-0.560	0.470
2020/01/31 07:49:30.5	8.450	0.380	-0.550	0.450
2020/01/31 07:49:30.6	8.420	0.380	-0.550	0.430
2020/01/31 07:49:30.7	8.390	0.390	-0.550	0.410
2020/01/31 07:49:30.8	8.360	0.400	-0.540	0.390
2020/01/31 07:49:30.9	8.330	0.400	-0.530	0.370
2020/01/31 07:49:31.0	8.300	0.410	-0.530	0.350
2020/01/31 07:49:31.1	8.270	0.410	-0.510	0.340
2020/01/31 07:49:31.2	8.250	0.410	-0.500	0.330
2020/01/31 07:49:31.3	8.220	0.410	-0.490	0.310
2020/01/31 07:49:31.4	8.200	0.410	-0.470	0.310
2020/01/31 07:49:31.5	8.170	0.400	-0.460	0.300
2020/01/31 07:49:31.6	8.140	0.400	-0.440	0.290
2020/01/31 07:49:31.7	8.120	0.390	-0.420	0.280
2020/01/31 07:49:31.8	8.090	0.380	-0.400	0.280
2020/01/31 07:49:31.9	8.070	0.370	-0.380	0.270
2020/01/31 07:49:32.0	8.040	0.360	-0.360	0.270
2020/01/31 07:49:32.1	8.020	0.340	-0.330	0.270
2020/01/31 07:49:32.2	7.990	0.330	-0.310	0.270
2020/01/31 07:49:32.3	7.980	0.310	-0.290	0.260
2020/01/31 07:49:32.4	7.950	0.290	-0.260	0.260
2020/01/31 07:49:32.5	7.930	0.270	-0.240	0.260
2020/01/31 07:49:32.6	7.910	0.250	-0.220	0.260
2020/01/31 07:49:32.7	7.880	0.230	-0.190	0.260
2020/01/31 07:49:32.8	7.860	0.210	-0.170	0.260
2020/01/31 07:49:32.9	7.840	0.190	-0.150	0.260
2020/01/31 07:49:33.0	7.820	0.170	-0.130	0.260
2020/01/31 07:49:33.1	7.800	0.150	-0.110	0.250
2020/01/31 07:49:33.2	7.780	0.130	-0.100	0.250
2020/01/31 07:49:33.3	7.760	0.110	-0.080	0.240
2020/01/31 07:49:33.4	7.750	0.090	-0.070	0.240
2020/01/31 07:49:33.5	7.730	0.080	-0.060	0.230
2020/01/31 07:49:33.6	7.720	0.060	-0.060	0.220
2020/01/31 07:49:33.7	7.700	0.050	-0.050	0.210
2020/01/31 07:49:33.8	7.690	0.030	-0.050	0.190
2020/01/31 07:49:33.9	7.680	0.020	-0.050	0.180
2020/01/31 07:49:34.0	7.670	0.010	-0.050	0.170
2020/01/31 07:49:34.1	7.660	-0.000	-0.060	0.150
2020/01/31 07:49:34.2	7.660	-0.010	-0.070	0.140
2020/01/31 07:49:34.3	7.650	-0.020	-0.070	0.120
2020/01/31 07:49:34.4	7.650	-0.030	-0.080	0.100
2020/01/31 07:49:34.5	7.640	-0.040	-0.090	0.090
2020/01/31 07:49:34.6	7.640	-0.040	-0.090	0.070
2020/01/31 07:49:34.7	7.630	-0.050	-0.100	0.060
2020/01/31 07:49:34.8	7.620	-0.060	-0.100	0.050
2020/01/31 07:49:34.9	7.610	-0.060	-0.110	0.040
2020/01/31 07:49:35.0	7.600	-0.060	-0.110	0.030
2020/01/31 07:49:35.1	7.590	-0.070	-0.110	0.020
2020/01/31 07:49:35.2	7.570	-0.070	-0.100	0.010
2020/01/31 07:49:35.3	7.550	-0.080	-0.100	0.000
2020/01/31 07:49:35.4	7.530	-0.080	-0.080	0.000
2020/01/31 07:49:35.5	7.510	-0.090	-0.070	0.000
2020/01/31 07:49:35.6	7.480	-0.090	-0.050	0.010
2020/01/31 07:49:35.7	7.450	-0.100	-0.020	0.020
2020/01/31 07:49:35.8	7.420	-0.110	0.000	0.030
2020/01/31 07:49:35.9	7.380	-0.110	0.040	0.050
2020/01/31 07:49:36.0	7.340	-0.120	0.070	0.070
2020/01/31 07:49:36.1	7.300	-0.130	0.110	0.090
2020/01/31 07:49:36.2	7.250	-0.140	0.150	0.120
2020/01/31 07:49:36.3	7.200	-0.150	0.200	0.160
2020/01/31 07:49:36.4	7.150	-0.160	0.240	0.200
2020/01/31 07:49:36.5	7.090	-0.170	0.290	0.250
2020/01/31 07:49:36.6	7.030	-0.180	0.330	0.290
2020/01/31 07:49:36.7	6.970	-0.190	0.380	0.350
2020/01/31 07:49:36.8	6.910	-0.200	0.430	0.400
2020/01/31 07:49:36.9	6.840	-0.210	0.470	0.450
2020/01/31 07:49:37.0	6.780	-0.220	0.510	0.510
2020/01/31 07:49:37.1	6.710	-0.240	0.550	0.570
2020/01/31 07:49:37.2	6.640	-0.250	0.580	0.620
2020/01/31 07:49:37.3	6.580	-0.260	0.610	0.680
2020/01/31 07:49:37.4	6.510	-0.270	0.640	0.730
2020/01/31 07:49:37.5	6.440	-0.280	0.650	0.780
2020/01/31 07:49:37.6	6.370	-0.290	0.670	0.830
2020/01/31 07:49:37.7	6.300	-0.300	0.670	0.870
2020/01/31 07:49:37.8	6.230	-0.300	0.670	0.910
2020/01/31 07:49:37.9	6.160	-0.310	0.660	0.950
2020/01/31 07:49:38.0	6.090	-0.320	0.650	0.980
2020/01/31 07:49:38.1	6.030	-0.320	0.630	1.010
2020/01/31 07:49:38.2	5.960	-0.320	0.600	1.040
2020/01/31 07:49:38.3	5.900	-0.330	0.570	1.060
2020/01/31 07:49:38.4	5.830	-0.330	0.530	1.080
2020/01/31 07:49:38.5	5.760	-0.330	0.490	1.090
2020/01/31 07:49:38.6	5.690	-0.320	0.440	1.100
2020/01/31 07:49:38.7	5.620	-0.320	0.380	1.110
2020/01/31 07:49:38.8	5.540	-0.320	0.330	1.110
2020/01/31 07:49:38.9	5.470	-0.310	0.270	1.110
2020/01/31 07:49:39.0	5.400	-0.310	0.200	1.100
2020/01/31 07:49:39.1	5.330	-0.300	0.140	1.100
2020/01/31 07:49:39.2	5.270	-0.290	0.070	1.090
2020/01/31 07:49:39.3	5.200	-0.280	-0.010	1.070
2020/01/31 07:49:39.4	5.130	-0.270	-0.080	1.060
2020/01/31 07:49:39.5	5.070	-0.260	-0.150	1.040
2020/01/31 07:49:39.6	5.010	-0.240	-0.230	1.020
2020/01/31 07:49:39.7	4.950	-0.230	-0.300	1.000
2020/01/31 07:49:39.8	4.890	-0.210	-0.380	0.980
2020/01/31 07:49:39.9	4.840	-0.200	-0.450	0.950
2020/01/31 07:49:40.0	4.780	-0.180	-0.530	0.920
2020/01/31 07:49:40.1	4.740	-0.160	-0.600	0.890
2020/01/31 07:49:40.2	4.690	-0.140	-0.670	0.860
2020/01/31 07:49:40.3	4.640	-0.110	-0.740	0.820
2020/01/31 07:49:40.4	4.610	-0.090	-0.810	0.780
2020/01/31 07:49:40.5	4.580	-0.060	-0.880	0.740
2020/01/31 07:49:40.6	4.550	-0.040	-0.950	0.690
2020/01/31 07:49:40.7	4.530	-0.010	-1.020	0.650
2020/01/31 07:49:40.8	4.510	0.020	-1.080	0.600
2020/01/31 07:49:40.9	4.490	0.050	-1.140	0.550
2020/01/31 07:49:41.0	4.490	0.080	-1.200	0.500
2020/01/31 07:49:41.1	4.480	0.120	-1.260	0.440
2020/01/31 07:49:41.2	4.480	0.150	-1.310	0.390
2020/01/31 07:49:41.3	4.470	0.180	-1.360	0.330
2020/01/31 07:49:41.4	4.470	0.210	-1.410	0.270
2020/01/31 07:49:41.5	4.480	0.250	-1.440	0.210
2020/01/31 07:49:41.6	4.500	0.280	-1.480	0.160
2020/01/31 07:49:41.7	4.510	0.310	-1.510	0.100
2020/01/31 07:49:41.8	4.530	0.340	-1.530	0.040
2020/01/31 07:49:41.9	4.550	0.360	-1.540	-0.020
2020/01/31 07:49:42.0	4.570	0.390	-1.550	-0.070
2020/01/31 07:49:42.1	4.590	0.410	-1.550	-0.120
2020/01/31 07:49:42.2	4.610	0.420	-1.540	-0.170
2020/01/31 07:49:42.3	4.620	0.440	-1.530	-0.220
2020/01/31 07:49:42.4	4.640	0.450	-1.500	-0.260
2020/01/31 07:49:42.5	4.660	0.450	-1.470	-0.300
2020/01/31 07:49:42.6	4.680	0.460	-1.430	-0.340
2020/01/31 07:49:42.7	4.690	0.450	-1.380	-0.370
2020/01/31 07:49:42.8	4.700	0.450	-1.320	-0.390
2020/01/31 07:49:42.9	4.710	0.430	-1.250	-0.410
2020/01/31 07:49:43.0	4.720	0.420	-1.170	-0.430
2020/01/31 07:49:43.1	4.720	0.400	-1.090	-0.440
2020/01/31 07:49:43.2	4.720	0.370	-1.000	-0.450
2020/01/31 07:49:43.3	4.730	0.340	-0.910	-0.450
2020/01/31 07:49:43.4	4.720	0.310	-0.810	-0.450
2020/01/31 07:49:43.5	4.710	0.280	-0.700	-0.440
2020/01/31 07:49:43.6	4.700	0.240	-0.590	-0.430
2020/01/31 07:49:43.7	4.680	0.200	-0.480	-0.420
2020/01/31 07:49:43.8	4.660	0.150	-0.370	-0.400
2020/01/31 07:49:43.9	4.640	0.100	-0.250	-0.380
2020/01/31 07:49:44.0	4.620	0.060	-0.130	-0.360
2020/01/31 07:49:44.1	4.590	0.010	-0.020	-0.340
2020/01/31 07:49:44.2	4.560	-0.040	0.090	-0.320
2020/01/31 07:49:44.3	4.530	-0.090	0.210	-0.290
2020/01/31 07:49:44.4	4.500	-0.140	0.310	-0.270
2020/01/31 07:49:44.5	4.470	-0.180	0.420	-0.240
2020/01/31 07:49:44.6	4.430	-0.230	0.520	-0.210
2020/01/31 07:49:44.7	4.400	-0.270	0.610	-0.180
2020/01/31 07:49:44.8	4.360	-0.310	0.700	-0.150
2020/01/31 07:49:44.9	4.310	-0.350	0.780	-0.110
2020/01/31 07:49:45.0	4.260	-0.380	0.860	-0.070
2020/01/31 07:49:45.1	4.210	-0.410	0.930	-0.030
2020/01/31 07:49:45.2	4.160	-0.430	0.990	0.010
2020/01/31 07:49:45.3	4.090	-0.450	1.040	0.060
2020/01/31 07:49:45.4	4.020	-0.470	1.100	0.120
2020/01/31 07:49:45.5	3.950	-0.480	1.140	0.170
2020/01/31 07:49:45.6	3.870	-0.490	1.180	0.230
2020/01/31 07:49:45.7	3.790	-0.490	1.210	0.300
2020/01/31 07:49:45.8	3.710	-0.480	1.230	0.370
2020/01/31 07:49:45.9	3.620	-0.470	1.250	0.440
2020/01/31 07:49:46.0	3.520	-0.460	1.260	0.510
2020/01/31 07:49:46.1	3.430	-0.440	1.260	0.590
2020/01/31 07:49:46.2	3.330	-0.410	1.250	0.670
2020/01/31 07:49:46.3	3.220	-0.380	1.240	0.750
2020/01/31 07:49:46.4	3.120	-0.350	1.220	0.830
2020/01/31 07:49:46.5	3.010	-0.310	1.190	0.910
2020/01/31 07:49:46.6	2.910	-0.270	1.150	0.990
2020/01/31 07:49:46.7	2.800	-0.220	1.100	1.070
2020/01/31 07:49:46.8	2.690	-0.170	1.040	1.140
2020/01/31 07:49:46.9	2.590	-0.120	0.980	1.210
2020/01/31 07:49:47.0	2.490	-0.070	0.900	1.270
2020/01/31 07:49:47.1	2.390	-0.010	0.820	1.330
2020/01/31 07:49:47.2	2.300	0.040	0.720	1.380
2020/01/31 07:49:47.3	2.210	0.100	0.620	1.430
2020/01/31 07:49:47.4	2.130	0.160	0.510	1.470
2020/01/31 07:49:47.5	2.050	0.220	0.390	1.500
2020/01/31 07:49:47.6	1.970	0.280	0.270	1.510
2020/01/31 07:49:47.7	1.910	0.330	0.140	1.520
2020/01/31 07:49:47.8	1.840	0.390	0.010	1.530
2020/01/31 07:49:47.9	1.790	0.440	-0.130	1.520
2020/01/31 07:49:48.0	1.740	0.490	-0.270	1.500
2020/01/31 07:49:48.1	1.690	0.540	-0.410	1.480
2020/01/31 07:49:48.2	1.650	0.580	-0.540	1.450
2020/01/31 07:49:48.3	1.620	0.620	-0.680	1.410
2020/01/31 07:49:48.4	1.590	0.650	-0.810	1.370
2020/01/31 07:49:48.5	1.560	0.680	-0.940	1.320
2020/01/31 07:49:48.6	1.540	0.710	-1.060	1.260
2020/01/31 07:49:48.7	1.520	0.720	-1.170	1.200
2020/01/31 07:49:48.8	1.500	0.730	-1.270	1.140
2020/01/31 07:49:48.9	1.490	0.740	-1.370	1.070
2020/01/31 07:49:49.0	1.480	0.740	-1.450	0.990
2020/01/31 07:49:49.1	1.480	0.730	-1.520	0.920
2020/01/31 07:49:49.2	1.480	0.710	-1.580	0.840
2020/01/31 07:49:49.3	1.480	0.690	-1.630	0.750
2020/01/31 07:49:49.4	1.480	0.670	-1.670	0.670
2020/01/31 07:49:49.5	1.490	0.630	-1.690	0.580
2020/01/31 07:49:49.6	1.500	0.590	-1.700	0.490
2020/01/31 07:49:49.7	1.510	0.550	-1.700	0.410
2020/01/31 07:49:49.8	1.520	0.500	-1.690	0.320
2020/01/31 07:49:49.9	1.530	0.450	-1.660	0.240
2020/01/31 07:49:50.0	1.550	0.390	-1.620	0.150
2020/01/31 07:49:50.1	1.560	0.330	-1.580	0.080
2020/01/31 07:49:50.2	1.580	0.270	-1.520	0.000
2020/01/31 07:49:50.3	1.590	0.200	-1.450	-0.070
2020/01/31 07:49:50.4	1.610	0.140	-1.370	-0.140
2020/01/31 07:49:50.5	1.620	0.070	-1.290	-0.200
2020/01/31 07:49:50.6	1.630	0.000	-1.190	-0.250
2020/01/31 07:49:50.7	1.640	-0.070	-1.090	-0.300
2020/01/31 07:49:50.8	1.640	-0.130	-0.980	-0.340
2020/01/31 07:49:50.9	1.640	-0.200	-0.860	-0.370
2020/01/31 07:49:51.0	1.640	-0.260	-0.740	-0.390
2020/01/31 07:49:51.1	1.630	-0.330	-0.620	-0.410
2020/01/31 07:49:51.2	1.620	-0.390	-0.490	-0.420
2020/01/31 07:49:51.3	1.600	-0.440	-0.370	-0.420
2020/01/31 07:49:51.4	1.580	-0.500	-0.240	-0.420
2020/01/31 07:49:51.5	1.550	-0.550	-0.110	-0.410
2020/01/31 07:49:51.6	1.520	-0.590	0.010	-0.390
2020/01/31 07:49:51.7	1.480	-0.630	0.130	-0.370
2020/01/31 07:49:51.8	1.440	-0.670	0.250	-0.340
2020/01/31 07:49:51.9	1.390	-0.700	0.360	-0.310
2020/01/31 07:49:52.0	1.340	-0.730	0.470	-0.280
2020/01/31 07:49:52.1	1.290	-0.740	0.570	-0.240
2020/01/31 07:49:52.2	1.230	-0.760	0.660	-0.200
2020/01/31 07:49:52.3	1.180	-0.760	0.740	-0.160
2020/01/31 07:49:52.4	1.120	-0.760	0.810	-0.110
2020/01/31 07:49:52.5	1.050	-0.760	0.880	-0.070
2020/01/31 07:49:52.6	0.980	-0.740	0.930	-0.020
2020/01/31 07:49:52.7	0.910	-0.720	0.970	0.040
2020/01/31 07:49:52.8	0.830	-0.700	1.000	0.090
2020/01/31 07:49:52.9	0.760	-0.670	1.020	0.140
2020/01/31 07:49:53.0	0.680	-0.630	1.030	0.190
2020/01/31 07:49:53.1	0.600	-0.590	1.030	0.240
2020/01/31 07:49:53.2	0.530	-0.550	1.010	0.290
2020/01/31 07:49:53.3	0.440	-0.500	0.990	0.350
2020/01/31 07:49:53.4	0.360	-0.450	0.950	0.390
2020/01/31 07:49:53.5	0.280	-0.390	0.900	0.440
2020/01/31 07:49:53.6	0.210	-0.340	0.840	0.480
2020/01/31 07:49:53.7	0.140	-0.280	0.780	0.520
2020/01/31 07:49:53.8	0.070	-0.220	0.700	0.550
2020/01/31 07:49:53.9	0.000	-0.160	0.620	0.580
2020/01/31 07:49:54.0	359.930	-0.090	0.520	0.610
2020/01/31 07:49:54.1	359.870	-0.030	0.430	0.630
2020/01/31 07:49:54.2	359.810	0.030	0.320	0.640
2020/01/31 07:49:54.3	359.740	0.090	0.220	0.650
2020/01/31 07:49:54.4	359.680	0.140	0.110	0.660
2020/01/31 07:49:54.5	359.640	0.200	-0.010	0.660
2020/01/31 07:49:54.6	359.590	0.250	-0.120	0.660
2020/01/31 07:49:54.7	359.550	0.300	-0.230	0.650
2020/01/31 07:49:54.8	359.510	0.340	-0.350	0.640
2020/01/31 07:49:54.9	359.470	0.380	-0.450	0.620
2020/01/31 07:49:55.0	359.440	0.420	-0.560	0.600
2020/01/31 07:49:55.1	359.410	0.450	-0.660	0.580
2020/01/31 07:49:55.2	359.380	0.470	-0.760	0.550
2020/01/31 07:49:55.3	359.350	0.490	-0.840	0.520
2020/01/31 07:49:55.4	359.330	0.510	-0.920	0.490
2020/01/31 07:49:55.5	359.300	0.520	-1.000	0.460
2020/01/31 07:49:55.6	359.280	0.520	-1.060	0.430
2020/01/31 07:49:55.7	359.260	0.520	-1.110	0.400
2020/01/31 07:49:55.8	359.240	0.510	-1.160	0.370
2020/01/31 07:49:55.9	359.230	0.490	-1.190	0.340
2020/01/31 07:49:56.0	359.210	0.470	-1.210	0.300
2020/01/31 07:49:56.1	359.190	0.450	-1.220	0.280
2020/01/31 07:49:56.2	359.180	0.420	-1.220	0.250
2020/01/31 07:49:56.3	359.160	0.380	-1.210	0.220
2020/01/31 07:49:56.4	359.140	0.340	-1.190	0.200
2020/01/31 07:49:56.5	359.130	0.300	-1.150	0.180
2020/01/31 07:49:56.6	359.120	0.250	-1.110	0.160
2020/01/31 07:49:56.7	359.110	0.200	-1.060	0.140
2020/01/31 07:49:56.8	359.090	0.140	-1.000	0.120
2020/01/31 07:49:56.9	359.080	0.090	-0.930	0.110
2020/01/31 07:49:57.0	359.070	0.030	-0.860	0.100
2020/01/31 07:49:57.1	359.060	-0.030	-0.780	0.090
2020/01/31 07:49:57.2	359.050	-0.090	-0.700	0.080
2020/01/31 07:49:57.3	359.040	-0.160	-0.610	0.070
2020/01/31 07:49:57.4	359.030	-0.220	-0.520	0.070
2020/01/31 07:49:57.5	359.020	-0.280	-0.430	0.060
2020/01/31 07:49:57.6	359.010	-0.340	-0.340	0.060
2020/01/31 07:49:57.7	358.990	-0.400	-0.250	0.060
2020/01/31 07:49:57.8	358.980	-0.450	-0.170	0.060
2020/01/31 07:49:57.9	358.960	-0.510	-0.080	0.060
2020/01/31 07:49:58.0	358.950	-0.560	0.000	0.070
2020/01/31 07:49:58.1	358.930	-0.600	0.080	0.070
2020/01/31 07:49:58.2	358.900	-0.640	0.160	0.080
2020/01/31 07:49:58.3	358.880	-0.680	0.230	0.090
2020/01/31 07:49:58.4	358.850	-0.710	0.290	0.110
2020/01/31 07:49:58.5	358.830	-0.740	0.350	0.120
2020/01/31 07:49:58.6	358.790	-0.760	0.410	0.140
2020/01/31 07:49:58.7	358.760	-0.780	0.450	0.160
2020/01/31 07:49:58.8	358.720	-0.780	0.500	0.190
2020/01/31 07:49:58.9	358.680	-0.790	0.530	0.220
2020/01/31 07:49:59.0	358.640	-0.780	0.560	0.260
2020/01/31 07:49:59.1	358.590	-0.770	0.590	0.290
2020/01/31 07:49:59.2	358.540	-0.750	0.610	0.340
2020/01/31 07:49:59.3	358.480	-0.730	0.620	0.380
2020/01/31 07:49:59.4	358.420	-0.700	0.630	0.430
2020/01/31 07:49:59.5	358.360	-0.660	0.630	0.480
2020/01/31 07:49:59.6	358.300	-0.620	0.630	0.540
2020/01/31 07:49:59.7	358.230	-0.570	0.620	0.590
2020/01/31 07:49:59.8	358.170	-0.520	0.610	0.650
2020/01/31 07:49:59.9	358.100	-0.460	0.590	0.710
2020/01/31 07:50:00.0	358.030	-0.400	0.570	0.770
2020/01/31 07:50:00.1	357.960	-0.330	0.540	0.830
2020/01/31 07:50:00.2	357.890	-0.260	0.510	0.890
2020/01/31 07:50:00.3	357.820	-0.190	0.470	0.940
2020/01/31 07:50:00.4	357.750	-0.110	0.430	1.000
2020/01/31 07:50:00.5	357.680	-0.040	0.390	1.050
2020/01/31 07:50:00.6	357.610	0.040	0.340	1.110
2020/01/31 07:50:00.7	357.540	0.120	0.290	1.150
2020/01/31 07:50:00.8	357.480	0.200	0.240	1.200
2020/01/31 07:50:00.9	357.410	0.280	0.180	1.240
2020/01/31 07:50:01.0	357.340	0.360	0.120	1.280
2020/01/31 07:50:01.1	357.280	0.430	0.060	1.310
2020/01/31 07:50:01.2	357.220	0.510	-0.000	1.330
2020/01/31 07:50:01.3	357.170	0.580	-0.060	1.360
2020/01/31 07:50:01.4	357.110	0.640	-0.130	1.380
2020/01/31 07:50:01.5	357.050	0.710	-0.190	1.390
2020/01/31 07:50:01.6	357.000	0.760	-0.260	1.400
2020/01/31 07:50:01.7	356.940	0.810	-0.330	1.400
2020/01/31 07:50:01.8	356.890	0.860	-0.390	1.400
2020/01/31 07:50:01.9	356.840	0.900	-0.450	1.390
2020/01/31 07:50:02.0	356.790	0.930	-0.510	1.380
2020/01/31 07:50:02.1	356.740	0.960	-0.570	1.370
2020/01/31 07:50:02.2	356.700	0.980	-0.630	1.350
2020/01/31 07:50:02.3	356.670	0.990	-0.680	1.330
2020/01/31 07:50:02.4	356.630	0.990	-0.730	1.300
2020/01/31 07:50:02.5	356.590	0.990	-0.770	1.270
2020/01/31 07:50:02.6	356.550	0.980	-0.820	1.240
2020/01/31 07:50:02.7	356.520	0.970	-0.850	1.210
2020/01/31 07:50:02.8	356.480	0.950	-0.890	1.170
2020/01/31 07:50:02.9	356.450	0.920	-0.920	1.140
2020/01/31 07:50:03.0	356.420	0.890	-0.940	1.090
2020/01/31 07:50:03.1	356.400	0.850	-0.960	1.050
2020/01/31 07:50:03.2	356.370	0.800	-0.980	1.000
2020/01/31 07:50:03.3	356.370	0.750	-0.990	0.950
2020/01/31 07:50:03.4	356.350	0.700	-1.000	0.900
2020/01/31 07:50:03.5	356.330	0.650	-1.010	0.850
2020/01/31 07:50:03.6	356.320	0.590	-1.010	0.790
2020/01/31 07:50:03.7	356.300	0.530	-1.020	0.740
2020/01/31 07:50:03.8	356.290	0.460	-1.010	0.680
2020/01/31 07:50:03.9	356.270	0.400	-1.010	0.620
2020/01/31 07:50:04.0	356.260	0.340	-1.000	0.560
2020/01/31 07:50:04.1	356.250	0.270	-0.990	0.500
2020/01/31 07:50:04.2	356.240	0.210	-0.980	0.450
2020/01/31 07:50:04.3	356.230	0.150	-0.960	0.380
2020/01/31 07:50:04.4	356.220	0.090	-0.940	0.330
2020/01/31 07:50:04.5	356.210	0.030	-0.920	0.270
2020/01/31 07:50:04.6	356.200	-0.020	-0.900	0.220
2020/01/31 07:50:04.7	356.190	-0.070	-0.870	0.170
2020/01/31 07:50:04.8	356.180	-0.120	-0.840	0.120
2020/01/31 07:50:04.9	356.170	-0.160	-0.810	0.080
2020/01/31 07:50:05.0	356.160	-0.200	-0.780	0.030
2020/01/31 07:50:05.1	356.150	-0.230	-0.740	-0.010
2020/01/31 07:50:05.2	356.140	-0.260	-0.700	-0.050
2020/01/31 07:50:05.3	356.130	-0.280	-0.660	-0.090
2020/01/31 07:50:05.4	356.120	-0.300	-0.620	-0.120
2020/01/31 07:50:05.5	356.110	-0.320	-0.580	-0.150
2020/01/31 07:50:05.6	356.100	-0.330	-0.540	-0.190
2020/01/31 07:50:05.7	356.090	-0.330	-0.500	-0.210
2020/01/31 07:50:05.8	356.080	-0.330	-0.450	-0.240
2020/01/31 07:50:05.9	356.070	-0.330	-0.410	-0.260
2020/01/31 07:50:06.0	356.070	-0.320	-0.370	-0.290
2020/01/31 07:50:06.1	356.060	-0.310	-0.320	-0.310
2020/01/31 07:50:06.2	356.050	-0.300	-0.280	-0.320
2020/01/31 07:50:06.3	356.050	-0.280	-0.230	-0.340
2020/01/31 07:50:06.4	356.040	-0.270	-0.190	-0.350
2020/01/31 07:50:06.5	356.020	-0.250	-0.140	-0.360
2020/01/31 07:50:06.6	356.010	-0.230	-0.100	-0.360
2020/01/31 07:50:06.7	355.990	-0.210	-0.050	-0.360
2020/01/31 07:50:06.8	355.970	-0.190	-0.010	-0.360
2020/01/31 07:50:06.9	355.950	-0.170	0.040	-0.350
2020/01/31 07:50:07.0	355.920	-0.150	0.090	-0.330
2020/01/31 07:50:07.1	355.890	-0.140	0.130	-0.310
2020/01/31 07:50:07.2	355.860	-0.120	0.180	-0.290
2020/01/31 07:50:07.3	355.830	-0.110	0.230	-0.250
2020/01/31 07:50:07.4	355.790	-0.100	0.280	-0.220
2020/01/31 07:50:07.5	355.740	-0.100	0.320	-0.190
2020/01/31 07:50:07.6	355.690	-0.100	0.370	-0.160
2020/01/31 07:50:07.7	355.640	-0.100	0.410	-0.120
2020/01/31 07:50:07.8	355.590	-0.100	0.450	-0.080
2020/01/31 07:50:07.9	355.530	-0.110	0.490	-0.050
2020/01/31 07:50:08.0	355.470	-0.120	0.530	-0.010
2020/01/31 07:50:08.1	355.410	-0.140	0.570	0.030
2020/01/31 07:50:08.2	355.350	-0.160	0.600	0.060
2020/01/31 07:50:08.3	355.280	-0.180	0.630	0.100
2020/01/31 07:50:08.4	355.220	-0.200	0.660	0.140
2020/01/31 07:50:08.5	355.150	-0.230	0.680	0.170
2020/01/31 07:50:08.6	355.080	-0.260	0.710	0.210
2020/01/31 07:50:08.7	355.010	-0.290	0.720	0.240
2020/01/31 07:50:08.8	354.940	-0.320	0.740	0.270
2020/01/31 07:50:08.9	354.870	-0.350	0.750	0.310
2020/01/31 07:50:09.0	354.800	-0.390	0.760	0.340
2020/01/31 07:50:09.1	354.730	-0.420	0.770	0.380
2020/01/31 07:50:09.2	354.660	-0.450	0.780	0.410
2020/01/31 07:50:09.3	354.580	-0.480	0.780	0.450
2020/01/31 07:50:09.4	354.510	-0.510	0.780	0.490
2020/01/31 07:50:09.5	354.440	-0.540	0.770	0.530
2020/01/31 07:50:09.6	354.360	-0.560	0.770	0.570
2020/01/31 07:50:09.7	354.290	-0.590	0.760	0.610
2020/01/31 07:50:09.8	354.220	-0.600	0.740	0.650
2020/01/31 07:50:09.9	354.150	-0.620	0.730	0.690
2020/01/31 07:50:10.0	354.080	-0.630	0.700	0.730
2020/01/31 07:50:10.1	354.020	-0.630	0.680	0.770
2020/01/31 07:50:10.2	353.950	-0.640	0.650	0.810
2020/01/31 07:50:10.3	353.880	-0.630	0.610	0.850
2020/01/31 07:50:10.4	353.820	-0.620	0.570	0.880
2020/01/31 07:50:10.5	353.760	-0.610	0.530	0.920
2020/01/31 07:50:10.6	353.700	-0.590	0.480	0.950
2020/01/31 07:50:10.7	353.650	-0.570	0.420	0.980
2020/01/31 07:50:10.8	353.600	-0.540	0.360	1.000
2020/01/31 07:50:10.9	353.550	-0.510	0.290	1.020
2020/01/31 07:50:11.0	353.500	-0.470	0.220	1.040
2020/01/31 07:50:11.1	353.460	-0.430	0.140	1.050
2020/01/31 07:50:11.2	353.420	-0.390	0.060	1.050
2020/01/31 07:50:11.3	353.390	-0.340	-0.020	1.050
2020/01/31 07:50:11.4	353.350	-0.290	-0.110	1.050
2020/01/31 07:50:11.5	353.320	-0.230	-0.200	1.040
2020/01/31 07:50:11.6	353.290	-0.180	-0.290	1.030
2020/01/31 07:50:11.7	353.270	-0.120	-0.380	1.020
2020/01/31 07:50:11.8	353.240	-0.060	-0.470	1.000
2020/01/31 07:50:11.9	353.220	-0.000	-0.560	0.980
2020/01/31 07:50:12.0	353.200	0.050	-0.650	0.950
2020/01/31 07:50:12.1	353.180	0.110	-0.730	0.930
2020/01/31 07:50:12.2	353.170	0.170	-0.820	0.900
2020/01/31 07:50:12.3	353.150	0.220	-0.900	0.870
2020/01/31 07:50:12.4	353.140	0.270	-0.980	0.850
2020/01/31 07:50:12.5	353.130	0.320	-1.050	0.820
2020/01/31 07:50:12.6	353.110	0.370	-1.120	0.790
2020/01/31 07:50:12.7	353.100	0.410	-1.180	0.760
2020/01/31 07:50:12.8	353.090	0.450	-1.240	0.730
2020/01/31 07:50:12.9	353.080	0.480	-1.290	0.700
2020/01/31 07:50:13.0	353.070	0.510	-1.330	0.670
2020/01/31 07:50:13.1	353.070	0.540	-1.370	0.650
2020/01/31 07:50:13.2	353.060	0.560	-1.400	0.620
2020/01/31 07:50:13.3	353.030	0.580	-1.430	0.590
2020/01/31 07:50:13.4	353.030	0.590	-1.440	0.570
2020/01/31 07:50:13.5	353.020	0.590	-1.450	0.550
2020/01/31 07:50:13.6	353.010	0.600	-1.460	0.520
2020/01/31 07:50:13.7	353.000	0.590	-1.460	0.500
2020/01/31 07:50:13.8	352.990	0.590	-1.450	0.480
2020/01/31 07:50:13.9	352.980	0.580	-1.430	0.460
2020/01/31 07:50:14.0	352.970	0.560	-1.410	0.440
2020/01/31 07:50:14.1	352.960	0.540	-1.380	0.420
2020/01/31 07:50:14.2	352.950	0.520	-1.350	0.400
2020/01/31 07:50:14.3	352.930	0.500	-1.310	0.380
2020/01/31 07:50:14.4	352.920	0.470	-1.270	0.360
2020/01/31 07:50:14.5	352.900	0.440	-1.230	0.340
2020/01/31 07:50:14.6	352.880	0.410	-1.180	0.330
2020/01/31 07:50:14.7	352.860	0.380	-1.120	0.310
2020/01/31 07:50:14.8	352.840	0.350	-1.060	0.300
2020/01/31 07:50:14.9	352.810	0.310	-1.000	0.280
2020/01/31 07:50:15.0	352.780	0.280	-0.930	0.270
2020/01/31 07:50:15.1	352.760	0.250	-0.870	0.260
2020/01/31 07:50:15.2	352.730	0.220	-0.790	0.250
2020/01/31 07:50:15.3	352.700	0.190	-0.720	0.250
2020/01/31 07:50:15.4	352.670	0.160	-0.650	0.250
2020/01/31 07:50:15.5	352.630	0.130	-0.570	0.250
2020/01/31 07:50:15.6	352.600	0.110	-0.490	0.250
2020/01/31 07:50:15.7	352.560	0.090	-0.410	0.250
2020/01/31 07:50:15.8	352.520	0.070	-0.330	0.260
2020/01/31 07:50:15.9	352.480	0.050	-0.250	0.270
2020/01/31 07:50:16.0	352.440	0.040	-0.170	0.280
2020/01/31 07:50:16.1	352.400	0.030	-0.090	0.290
2020/01/31 07:50:16.2	352.350	0.020	-0.020	0.300
2020/01/31 07:50:16.3	352.320	0.010	0.060	0.320
2020/01/31 07:50:16.4	352.270	0.010	0.130	0.340
2020/01/31 07:50:16.5	352.230	0.010	0.200	0.360
2020/01/31 07:50:16.6	352.190	0.010	0.270	0.380
2020/01/31 07:50:16.7	352.140	0.010	0.330	0.400
2020/01/31 07:50:16.8	352.100	0.010	0.380	0.420
2020/01/31 07:50:16.9	352.050	0.020	0.430	0.440
2020/01/31 07:50:17.0	352.010	0.030	0.480	0.460
2020/01/31 07:50:17.1	351.960	0.040	0.520	0.470
2020/01/31 07:50:17.2	351.910	0.040	0.550	0.490
2020/01/31 07:50:17.3	351.870	0.050	0.580	0.510
2020/01/31 07:50:17.4	351.830	0.060	0.600	0.520
2020/01/31 07:50:17.5	351.780	0.070	0.610	0.530
2020/01/31 07:50:17.6	351.740	0.080	0.620	0.540
2020/01/31 07:50:17.7	351.700	0.090	0.620	0.540
2020/01/31 07:50:17.8	351.660	0.100	0.620	0.550
2020/01/31 07:50:17.9	351.620	0.110	0.610	0.550
2020/01/31 07:50:18.0	351.580	0.110	0.600	0.540
2020/01/31 07:50:18.1	351.550	0.120	0.580	0.540
2020/01/31 07:50:18.2	351.510	0.120	0.560	0.530
2020/01/31 07:50:18.3	351.470	0.120	0.540	0.530
2020/01/31 07:50:18.4	351.440	0.120	0.510	0.510
2020/01/31 07:50:18.5	351.400	0.120	0.480	0.500
2020/01/31 07:50:18.6	351.360	0.110	0.450	0.490
2020/01/31 07:50:18.7	351.330	0.110	0.410	0.480
2020/01/31 07:50:18.8	351.290	0.100	0.380	0.470
2020/01/31 07:50:18.9	351.240	0.090	0.340	0.450
2020/01/31 07:50:19.0	351.200	0.070	0.310	0.440
2020/01/31 07:50:19.1	351.160	0.060	0.280	0.430
2020/01/31 07:50:19.2	351.110	0.040	0.240	0.420
2020/01/31 07:50:19.3	351.060	0.020	0.210	0.400
2020/01/31 07:50:19.4	351.010	0.000	0.170	0.390
2020/01/31 07:50:19.5	350.960	-0.020	0.140	0.380
2020/01/31 07:50:19.6	350.910	-0.040	0.110	0.360
2020/01/31 07:50:19.7	350.850	-0.070	0.090	0.350
2020/01/31 07:50:19.8	350.800	-0.090	0.060	0.340
2020/01/31 07:50:19.9	350.750	-0.120	0.030	0.320
2020/01/31 07:50:20.0	350.690	-0.140	0.010	0.310
2020/01/31 07:50:20.1	350.640	-0.170	-0.020	0.290
2020/01/31 07:50:20.2	350.590	-0.190	-0.040	0.280
2020/01/31 07:50:20.3	350.540	-0.220	-0.060	0.260
2020/01/31 07:50:20.4	350.500	-0.240	-0.090	0.240
2020/01/31 07:50:20.5	350.450	-0.260	-0.110	0.220
2020/01/31 07:50:20.6	350.400	-0.280	-0.130	0.200
2020/01/31 07:50:20.7	350.360	-0.290	-0.160	0.180
2020/01/31 07:50:20.8	350.320	-0.310	-0.180	0.160
2020/01/31 07:50:20.9	350.280	-0.320	-0.210	0.140
2020/01/31 07:50:21.0	350.250	-0.330	-0.230	0.120
2020/01/31 07:50:21.1	350.210	-0.330	-0.260	0.100
2020/01/31 07:50:21.2	350.180	-0.330	-0.280	0.070
2020/01/31 07:50:21.3	350.150	-0.330	-0.310	0.050
2020/01/31 07:50:21.4	350.120	-0.330	-0.340	0.030
2020/01/31 07:50:21.5	350.090	-0.320	-0.370	0.010
2020/01/31 07:50:21.6	350.070	-0.320	-0.390	-0.010
2020/01/31 07:50:21.7	350.040	-0.300	-0.420	-0.020
2020/01/31 07:50:21.8	350.020	-0.290	-0.450	-0.040
2020/01/31 07:50:21.9	349.990	-0.270	-0.470	-0.050
2020/01/31 07:50:22.0	349.970	-0.250	-0.490	-0.070
2020/01/31 07:50:22.1	349.950	-0.230	-0.510	-0.080
2020/01/31 07:50:22.2	349.920	-0.210	-0.530	-0.090
2020/01/31 07:50:22.3	349.900	-0.190	-0.550	-0.090
2020/01/31 07:50:22.4	349.870	-0.160	-0.560	-0.090
2020/01/31 07:50:22.5	349.850	-0.140	-0.570	-0.090
2020/01/31 07:50:22.6	349.830	-0.110	-0.580	-0.090
2020/01/31 07:50:22.7	349.800	-0.080	-0.580	-0.090
2020/01/31 07:50:22.8	349.780	-0.060	-0.580	-0.080
2020/01/31 07:50:22.9	349.750	-0.040	-0.580	-0.070
2020/01/31 07:50:23.0	349.730	-0.010	-0.570	-0.050
2020/01/31 07:50:23.1	349.700	0.010	-0.560	-0.040
2020/01/31 07:50:23.2	349.680	0.030	-0.550	-0.010
2020/01/31 07:50:23.3	349.650	0.050	-0.530	0.010
2020/01/31 07:50:23.4	349.620	0.070	-0.510	0.030
2020/01/31 07:50:23.5	349.590	0.080	-0.490	0.060
2020/01/31 07:50:23.6	349.560	0.100	-0.460	0.100
2020/01/31 07:50:23.7	349.530	0.110	-0.430	0.130
2020/01/31 07:50:23.8	349.490	0.120	-0.400	0.170
2020/01/31 07:50:23.9	349.460	0.120	-0.370	0.210
2020/01/31 07:50:24.0	349.420	0.120	-0.330	0.250
2020/01/31 07:50:24.1	349.380	0.120	-0.290	0.290
2020/01/31 07:50:24.2	349.330	0.120	-0.260	0.340
2020/01/31 07:50:24.3	349.280	0.110	-0.220	0.390
2020/01/31 07:50:24.4	349.220	0.110	-0.180	0.430
2020/01/31 07:50:24.5	349.170	0.100	-0.150	0.480
2020/01/31 07:50:24.6	349.110	0.080	-0.110	0.530
2020/01/31 07:50:24.7	349.050	0.070	-0.070	0.580
2020/01/31 07:50:24.8	348.980	0.050	-0.030	0.630
2020/01/31 07:50:24.9	348.910	0.030	-0.000	0.670
2020/01/31 07:50:25.0	348.840	0.010	0.030	0.720
2020/01/31 07:50:25.1	348.770	-0.010	0.060	0.770
2020/01/31 07:50:25.2	348.690	-0.030	0.080	0.820
2020/01/31 07:50:25.3	348.620	-0.050	0.110	0.860
2020/01/31 07:50:25.4	348.550	-0.070	0.120	0.900
2020/01/31 07:50:25.5	348.470	-0.090	0.140	0.940
2020/01/31 07:50:25.6	348.390	-0.110	0.150	0.980
2020/01/31 07:50:25.7	348.320	-0.130	0.150	1.010
2020/01/31 07:50:25.8	348.240	-0.140	0.150	1.040
2020/01/31 07:50:25.9	348.170	-0.160	0.140	1.060
2020/01/31 07:50:26.0	348.100	-0.170	0.120	1.080
2020/01/31 07:50:26.1	348.030	-0.180	0.100	1.100
2020/01/31 07:50:26.2	347.970	-0.190	0.080	1.110
2020/01/31 07:50:26.3	347.910	-0.190	0.050	1.110
2020/01/31 07:50:26.4	347.860	-0.190	0.010	1.110
2020/01/31 07:50:26.5	347.800	-0.190	-0.030	1.100
2020/01/31 07:50:26.6	347.750	-0.190	-0.080	1.080
2020/01/31 07:50:26.7	347.710	-0.180	-0.130	1.060
2020/01/31 07:50:26.8	347.660	-0.170	-0.190	1.030
2020/01/31 07:50:26.9	347.630	-0.150	-0.250	1.000
2020/01/31 07:50:27.0	347.590	-0.140	-0.320	0.970
2020/01/31 07:50:27.1	347.560	-0.120	-0.380	0.930
2020/01/31 07:50:27.2	347.540	-0.100	-0.450	0.880
2020/01/31 07:50:27.3	347.510	-0.070	-0.520	0.830
2020/01/31 07:50:27.4	347.490	-0.040	-0.590	0.780
2020/01/31 07:50:27.5	347.470	-0.020	-0.650	0.740
2020/01/31 07:50:27.6	347.460	0.010	-0.720	0.690
2020/01/31 07:50:27.7	347.450	0.040	-0.780	0.640
2020/01/31 07:50:27.8	347.440	0.080	-0.830	0.590
2020/01/31 07:50:27.9	347.430	0.110	-0.890	0.550
2020/01/31 07:50:28.0	347.430	0.140	-0.940	0.510
2020/01/31 07:50:28.1	347.430	0.170	-0.980	0.470
2020/01/31 07:50:28.2	347.420	0.200	-1.010	0.430
2020/01/31 07:50:28.3	347.420	0.230	-1.040	0.390
2020/01/31 07:50:28.4	347.410	0.260	-1.060	0.360
2020/01/31 07:50:28.5	347.410	0.290	-1.070	0.330
2020/01/31 07:50:28.6	347.410	0.310	-1.080	0.310
2020/01/31 07:50:28.7	347.400	0.330	-1.070	0.280
2020/01/31 07:50:28.8	347.400	0.350	-1.060	0.260
2020/01/31 07:50:28.9	347.390	0.370	-1.040	0.250
2020/01/31 07:50:29.0	347.390	0.380	-1.010	0.230
2020/01/31 07:50:29.1	347.380	0.390	-0.980	0.220
2020/01/31 07:50:29.2	347.370	0.400	-0.940	0.210
2020/01/31 07:50:29.3	347.350	0.400	-0.890	0.210
2020/01/31 07:50:29.4	347.340	0.400	-0.840	0.200
2020/01/31 07:50:29.5	347.320	0.400	-0.780	0.200
2020/01/31 07:50:29.6	347.300	0.400	-0.720	0.200
2020/01/31 07:50:29.7	347.290	0.390	-0.650	0.210
2020/01/31 07:50:29.8	347.260	0.380	-0.580	0.220
2020/01/31 07:50:29.9	347.240	0.360	-0.510	0.230
2020/01/31 07:50:30.0	347.220	0.350	-0.440	0.250
2020/01/31 07:50:30.1	347.190	0.330	-0.360	0.270
2020/01/31 07:50:30.2	347.160	0.310	-0.280	0.290
2020/01/31 07:50:30.3	347.130	0.290	-0.200	0.310
2020/01/31 07:50:30.4	347.100	0.270	-0.130	0.340
2020/01/31 07:50:30.5	347.070	0.250	-0.050	0.380
2020/01/31 07:50:30.6	347.040	0.230	0.030	0.410
2020/01/31 07:50:30.7	347.000	0.200	0.100	0.450
2020/01/31 07:50:30.8	346.970	0.180	0.170	0.490
2020/01/31 07:50:30.9	346.940	0.160	0.240	0.530
2020/01/31 07:50:31.0	346.900	0.140	0.300	0.570
2020/01/31 07:50:31.1	346.860	0.120	0.370	0.620
2020/01/31 07:50:31.2	346.820	0.100	0.420	0.660
2020/01/31 07:50:31.3	346.770	0.070	0.480	0.710
2020/01/31 07:50:31.4	346.730	0.060	0.530	0.750
2020/01/31 07:50:31.5	346.680	0.040	0.570	0.800
2020/01/31 07:50:31.6	346.640	0.020	0.620	0.840
2020/01/31 07:50:31.7	346.590	0.000	0.650	0.880
2020/01/31 07:50:31.8	346.540	-0.010	0.680	0.920
2020/01/31 07:50:31.9	346.490	-0.030	0.710	0.950
2020/01/31 07:50:32.0	346.430	-0.040	0.730	0.990
2020/01/31 07:50:32.1	346.370	-0.050	0.750	1.020
2020/01/31 07:50:32.2	346.310	-0.060	0.760	1.050
2020/01/31 07:50:32.3	346.250	-0.070	0.770	1.070
2020/01/31 07:50:32.4	346.180	-0.080	0.770	1.100
2020/01/31 07:50:32.5	346.110	-0.080	0.770	1.120
2020/01/31 07:50:32.6	346.040	-0.090	0.770	1.140
2020/01/31 07:50:32.7	345.970	-0.090	0.760	1.160
2020/01/31 07:50:32.8	345.890	-0.100	0.750	1.170
2020/01/31 07:50:32.9	345.810	-0.100	0.730	1.190
2020/01/31 07:50:33.0	345.720	-0.100	0.710	1.200
2020/01/31 07:50:33.1	345.640	-0.100	0.690	1.210
2020/01/31 07:50:33.2	345.550	-0.100	0.660	1.220
2020/01/31 07:50:33.3	345.460	-0.100	0.630	1.230
2020/01/31 07:50:33.4	345.370	-0.100	0.600	1.240
2020/01/31 07:50:33.5	345.280	-0.100	0.560	1.240
2020/01/31 07:50:33.6	345.200	-0.090	0.520	1.250
2020/01/31 07:50:33.7	345.110	-0.090	0.470	1.240
2020/01/31 07:50:33.8	345.030	-0.090	0.420	1.240
2020/01/31 07:50:33.9	344.950	-0.090	0.360	1.230
2020/01/31 07:50:34.0	344.870	-0.090	0.300	1.210
2020/01/31 07:50:34.1	344.790	-0.080	0.240	1.200
2020/01/31 07:50:34.2	344.710	-0.080	0.170	1.170
2020/01/31 07:50:34.3	344.620	-0.080	0.100	1.140
2020/01/31 07:50:34.4	344.550	-0.080	0.030	1.110
2020/01/31 07:50:34.5	344.480	-0.080	-0.050	1.070
2020/01/31 07:50:34.6	344.410	-0.080	-0.120	1.020
2020/01/31 07:50:34.7	344.340	-0.090	-0.200	0.980
2020/01/31 07:50:34.8	344.280	-0.090	-0.280	0.930
2020/01/31 07:50:34.9	344.210	-0.090	-0.350	0.870
2020/01/31 07:50:35.0	344.150	-0.100	-0.430	0.810
2020/01/31 07:50:35.1	344.090	-0.110	-0.500	0.750
2020/01/31 07:50:35.2	344.030	-0.110	-0.570	0.690
2020/01/31 07:50:35.3	343.960	-0.120	-0.640	0.620
2020/01/31 07:50:35.4	343.900	-0.130	-0.710	0.550
2020/01/31 07:50:35.5	343.850	-0.140	-0.770	0.480
2020/01/31 07:50:35.6	343.800	-0.150	-0.830	0.420
2020/01/31 07:50:35.7	343.760	-0.160	-0.880	0.350
2020/01/31 07:50:35.8	343.710	-0.180	-0.930	0.280
2020/01/31 07:50:35.9	343.670	-0.190	-0.980	0.220
2020/01/31 07:50:36.0	343.640	-0.200	-1.020	0.150
2020/01/31 07:50:36.1	343.610	-0.210	-1.050	0.090
2020/01/31 07:50:36.2	343.580	-0.220	-1.080	0.020
2020/01/31 07:50:36.3	343.550	-0.230	-1.100	-0.040
2020/01/31 07:50:36.4	343.530	-0.240	-1.120	-0.100
2020/01/31 07:50:36.5	343.510	-0.250	-1.130	-0.150
2020/01/31 07:50:36.6	343.490	-0.260	-1.140	-0.210
2020/01/31 07:50:36.7	343.480	-0.270	-1.140	-0.260
2020/01/31 07:50:36.8	343.470	-0.280	-1.140	-0.310
2020/01/31 07:50:36.9	343.460	-0.280	-1.130	-0.350
2020/01/31 07:50:37.0	343.460	-0.290	-1.120	-0.390
2020/01/31 07:50:37.1	343.460	-0.290	-1.100	-0.430
2020/01/31 07:50:37.2	343.460	-0.290	-1.070	-0.470
2020/01/31 07:50:37.3	343.450	-0.290	-1.050	-0.500
2020/01/31 07:50:37.4	343.450	-0.290	-1.020	-0.530
2020/01/31 07:50:37.5	343.450	-0.290	-0.980	-0.560
2020/01/31 07:50:37.6	343.460	-0.280	-0.940	-0.580
2020/01/31 07:50:37.7	343.460	-0.280	-0.900	-0.600
2020/01/31 07:50:37.8	343.460	-0.280	-0.860	-0.610
2020/01/31 07:50:37.9	343.470	-0.270	-0.820	-0.620
2020/01/31 07:50:38.0	343.470	-0.260	-0.770	-0.630
2020/01/31 07:50:38.1	343.470	-0.260	-0.730	-0.630
2020/01/31 07:50:38.2	343.480	-0.250	-0.680	-0.630
2020/01/31 07:50:38.3	343.480	-0.240	-0.630	-0.630
2020/01/31 07:50:38.4	343.480	-0.240	-0.590	-0.620
2020/01/31 07:50:38.5	343.480	-0.230	-0.540	-0.610
2020/01/31 07:50:38.6	343.480	-0.220	-0.500	-0.590
2020/01/31 07:50:38.7	343.480	-0.210	-0.460	-0.580
2020/01/31 07:50:38.8	343.480	-0.200	-0.420	-0.560
2020/01/31 07:50:38.9	343.470	-0.190	-0.390	-0.540
2020/01/31 07:50:39.0	343.470	-0.180	-0.350	-0.510
2020/01/31 07:50:39.1	343.470	-0.170	-0.320	-0.480
2020/01/31 07:50:39.2	343.470	-0.160	-0.300	-0.460
2020/01/31 07:50:39.3	343.470	-0.140	-0.280	-0.420
2020/01/31 07:50:39.4	343.470	-0.130	-0.260	-0.390
2020/01/31 07:50:39.5	343.460	-0.120	-0.240	-0.350
2020/01/31 07:50:39.6	343.460	-0.100	-0.220	-0.310
2020/01/31 07:50:39.7	343.460	-0.090	-0.210	-0.270
2020/01/31 07:50:39.8	343.450	-0.080	-0.200	-0.230
2020/01/31 07:50:39.9	343.440	-0.060	-0.190	-0.180
2020/01/31 07:50:40.0	343.430	-0.040	-0.180	-0.130
2020/01/31 07:50:40.1	343.420	-0.030	-0.180	-0.080
2020/01/31 07:50:40.2	343.410	-0.010	-0.170	-0.030
2020/01/31 07:50:40.3	343.400	0.010	-0.160	0.030
2020/01/31 07:50:40.4	343.380	0.030	-0.150	0.090
2020/01/31 07:50:40.5	343.360	0.050	-0.140	0.150
2020/01/31 07:50:40.6	343.340	0.070	-0.130	0.210
2020/01/31 07:50:40.7	343.320	0.090	-0.120	0.280
2020/01/31 07:50:40.8	343.290	0.110	-0.100	0.340
2020/01/31 07:50:40.9	343.260	0.140	-0.080	0.410
2020/01/31 07:50:41.0	343.230	0.160	-0.060	0.490
2020/01/31 07:50:41.1	343.190	0.180	-0.040	0.560
2020/01/31 07:50:41.2	343.150	0.200	-0.010	0.640
2020/01/31 07:50:41.3	343.110	0.230	0.020	0.720
2020/01/31 07:50:41.4	343.060	0.250	0.050	0.800
2020/01/31 07:50:41.5	343.010	0.270	0.090	0.880
2020/01/31 07:50:41.6	342.960	0.290	0.120	0.960
2020/01/31 07:50:41.7	342.900	0.310	0.160	1.040
2020/01/31 07:50:41.8	342.840	0.330	0.200	1.120
2020/01/31 07:50:41.9	342.780	0.340	0.250	1.200
2020/01/31 07:50:42.0	342.710	0.360	0.290	1.280
2020/01/31 07:50:42.1	342.640	0.370	0.330	1.360
2020/01/31 07:50:42.2	342.570	0.380	0.370	1.430
2020/01/31 07:50:42.3	342.490	0.390	0.410	1.510
2020/01/31 07:50:42.4	342.420	0.390	0.440	1.580
2020/01/31 07:50:42.5	342.340	0.400	0.480	1.640
2020/01/31 07:50:42.6	342.270	0.400	0.500	1.700
2020/01/31 07:50:42.7	342.190	0.400	0.530	1.760
2020/01/31 07:50:42.8	342.100	0.390	0.550	1.810
2020/01/31 07:50:42.9	342.020	0.390	0.570	1.850
2020/01/31 07:50:43.0	341.940	0.380	0.580	1.880
2020/01/31 07:50:43.1	341.860	0.370	0.580	1.910
2020/01/31 07:50:43.2	341.770	0.360	0.580	1.930
2020/01/31 07:50:43.3	341.700	0.340	0.580	1.940
2020/01/31 07:50:43.4	341.610	0.330	0.570	1.950
2020/01/31 07:50:43.5	341.530	0.310	0.560	1.940
2020/01/31 07:50:43.6	341.440	0.300	0.540	1.940
2020/01/31 07:50:43.7	341.360	0.280	0.520	1.920
2020/01/31 07:50:43.8	341.280	0.260	0.490	1.900
2020/01/31 07:50:43.9	341.190	0.250	0.460	1.870
2020/01/31 07:50:44.0	341.110	0.230	0.420	1.830
2020/01/31 07:50:44.1	341.020	0.210	0.390	1.790
2020/01/31 07:50:44.2	340.940	0.200	0.340	1.750
2020/01/31 07:50:44.3	340.860	0.180	0.300	1.700
2020/01/31 07:50:44.4	340.780	0.170	0.250	1.650
2020/01/31 07:50:44.5	340.700	0.150	0.200	1.590
2020/01/31 07:50:44.6	340.630	0.140	0.150	1.530
2020/01/31 07:50:44.7	340.560	0.130	0.100	1.470
2020/01/31 07:50:44.8	340.490	0.120	0.040	1.410
2020/01/31 07:50:44.9	340.420	0.110	-0.010	1.350
2020/01/31 07:50:45.0	340.360	0.100	-0.060	1.280
2020/01/31 07:50:45.1	340.300	0.100	-0.120	1.210
2020/01/31 07:50:45.2	340.250	0.090	-0.180	1.130
2020/01/31 07:50:45.3	340.210	0.090	-0.230	1.050
2020/01/31 07:50:45.4	340.160	0.080	-0.290	0.980
2020/01/31 07:50:45.5	340.120	0.080	-0.350	0.900
2020/01/31 07:50:45.6	340.090	0.080	-0.400	0.810
2020/01/31 07:50:45.7	340.060	0.070	-0.460	0.730
2020/01/31 07:50:45.8	340.030	0.070	-0.510	0.650
2020/01/31 07:50:45.9	340.010	0.070	-0.560	0.560
2020/01/31 07:50:46.0	339.990	0.060	-0.610	0.480
2020/01/31 07:50:46.1	339.970	0.060	-0.660	0.390
2020/01/31 07:50:46.2	339.960	0.050	-0.710	0.300
2020/01/31 07:50:46.3	339.950	0.050	-0.750	0.220
2020/01/31 07:50:46.4	339.950	0.040	-0.790	0.130
2020/01/31 07:50:46.5	339.940	0.040	-0.820	0.050
2020/01/31 07:50:46.6	339.940	0.030	-0.850	-0.030
2020/01/31 07:50:46.7	339.930	0.020	-0.880	-0.110
2020/01/31 07:50:46.8	339.930	0.000	-0.910	-0.190
2020/01/31 07:50:46.9	339.930	-0.010	-0.930	-0.270
2020/01/31 07:50:47.0	339.930	-0.020	-0.940	-0.340
2020/01/31 07:50:47.1	339.930	-0.040	-0.960	-0.410
2020/01/31 07:50:47.2	339.940	-0.060	-0.970	-0.480
2020/01/31 07:50:47.3	339.950	-0.070	-0.980	-0.550
2020/01/31 07:50:47.4	339.960	-0.090	-0.980	-0.620
2020/01/31 07:50:47.5	339.970	-0.110	-0.980	-0.680
2020/01/31 07:50:47.6	339.980	-0.140	-0.980	-0.740
2020/01/31 07:50:47.7	339.990	-0.160	-0.980	-0.800
2020/01/31 07:50:47.8	340.000	-0.180	-0.970	-0.850
2020/01/31 07:50:47.9	340.010	-0.200	-0.960	-0.900
2020/01/31 07:50:48.0	340.020	-0.230	-0.950	-0.940
2020/01/31 07:50:48.1	340.030	-0.250	-0.940	-0.980
2020/01/31 07:50:48.2	340.050	-0.270	-0.920	-1.020
2020/01/31 07:50:48.3	340.060	-0.300	-0.900	-1.050
2020/01/31 07:50:48.4	340.070	-0.320	-0.880	-1.070
2020/01/31 07:50:48.5	340.080	-0.340	-0.860	-1.090
2020/01/31 07:50:48.6	340.090	-0.360	-0.830	-1.100
2020/01/31 07:50:48.7	340.090	-0.380	-0.810	-1.110
2020/01/31 07:50:48.8	340.100	-0.400	-0.780	-1.110
2020/01/31 07:50:48.9	340.100	-0.410	-0.740	-1.100
2020/01/31 07:50:49.0	340.100	-0.430	-0.710	-1.090
2020/01/31 07:50:49.1	340.090	-0.440	-0.670	-1.080
2020/01/31 07:50:49.2	340.090	-0.450	-0.630	-1.050
2020/01/31 07:50:49.3	340.070	-0.460	-0.590	-1.020
2020/01/31 07:50:49.4	340.060	-0.470	-0.540	-0.990
2020/01/31 07:50:49.5	340.040	-0.470	-0.490	-0.950
2020/01/31 07:50:49.6	340.030	-0.480	-0.440	-0.900
2020/01/31 07:50:49.7	340.010	-0.480	-0.390	-0.860
2020/01/31 07:50:49.8	339.980	-0.480	-0.330	-0.800
2020/01/31 07:50:49.9	339.960	-0.470	-0.270	-0.740
2020/01/31 07:50:50.0	339.930	-0.460	-0.210	-0.680
2020/01/31 07:50:50.1	339.890	-0.460	-0.150	-0.610
2020/01/31 07:50:50.2	339.860	-0.450	-0.090	-0.540
2020/01/31 07:50:50.3	339.830	-0.430	-0.030	-0.470
2020/01/31 07:50:50.4	339.780	-0.420	0.030	-0.390
2020/01/31 07:50:50.5	339.740	-0.400	0.100	-0.300
2020/01/31 07:50:50.6	339.690	-0.380	0.160	-0.210
2020/01/31 07:50:50.7	339.630	-0.370	0.220	-0.120
2020/01/31 07:50:50.8	339.580	-0.350	0.280	-0.020
2020/01/31 07:50:50.9	339.520	-0.320	0.330	0.070
2020/01/31 07:50:51.0	339.460	-0.300	0.390	0.170
2020/01/31 07:50:51.1	339.390	-0.280	0.440	0.270
2020/01/31 07:50:51.2	339.320	-0.250	0.490	0.370
2020/01/31 07:50:51.3	339.270	-0.230	0.530	0.480
2020/01/31 07:50:51.4	339.200	-0.200	0.570	0.580
2020/01/31 07:50:51.5	339.130	-0.180	0.600	0.680
2020/01/31 07:50:51.6	339.060	-0.150	0.630	0.770
2020/01/31 07:50:51.7	338.990	-0.130	0.650	0.860
2020/01/31 07:50:51.8	338.910	-0.100	0.670	0.950
2020/01/31 07:50:51.9	338.840	-0.080	0.670	1.030
2020/01/31 07:50:52.0	338.770	-0.050	0.680	1.110
2020/01/31 07:50:52.1	338.710	-0.030	0.670	1.190
2020/01/31 07:50:52.2	338.640	-0.010	0.660	1.260
2020/01/31 07:50:52.3	338.570	0.020	0.650	1.320
2020/01/31 07:50:52.4	338.510	0.040	0.620	1.370
2020/01/31 07:50:52.5	338.440	0.060	0.600	1.430
2020/01/31 07:50:52.6	338.380	0.080	0.560	1.470
2020/01/31 07:50:52.7	338.320	0.100	0.530	1.510
2020/01/31 07:50:52.8	338.260	0.120	0.490	1.550
2020/01/31 07:50:52.9	338.200	0.130	0.440	1.580
2020/01/31 07:50:53.0	338.140	0.150	0.390	1.600
2020/01/31 07:50:53.1	338.090	0.160	0.340	1.620
2020/01/31 07:50:53.2	338.030	0.180	0.280	1.640
2020/01/31 07:50:53.3	337.980	0.190	0.230	1.650
2020/01/31 07:50:53.4	337.920	0.200	0.170	1.650
2020/01/31 07:50:53.5	337.870	0.210	0.110	1.650
2020/01/31 07:50:53.6	337.820	0.210	0.040	1.650
2020/01/31 07:50:53.7	337.770	0.220	-0.020	1.640
2020/01/31 07:50:53.8	337.720	0.220	-0.080	1.630
2020/01/31 07:50:53.9	337.670	0.230	-0.150	1.610
2020/01/31 07:50:54.0	337.620	0.230	-0.210	1.590
2020/01/31 07:50:54.1	337.570	0.230	-0.280	1.560
2020/01/31 07:50:54.2	337.530	0.230	-0.340	1.530
2020/01/31 07:50:54.3	337.490	0.230	-0.400	1.480
2020/01/31 07:50:54.4	337.450	0.220	-0.470	1.440
2020/01/31 07:50:54.5	337.410	0.220	-0.530	1.390
2020/01/31 07:50:54.6	337.370	0.210	-0.580	1.340
2020/01/31 07:50:54.7	337.340	0.210	-0.640	1.290
2020/01/31 07:50:54.8	337.310	0.210	-0.700	1.230
2020/01/31 07:50:54.9	337.280	0.200	-0.750	1.170
2020/01/31 07:50:55.0	337.250	0.200	-0.800	1.110
2020/01/31 07:50:55.1	337.220	0.190	-0.840	1.050
2020/01/31 07:50:55.2	337.190	0.190	-0.880	0.980
2020/01/31 07:50:55.3	337.160	0.180	-0.920	0.910
2020/01/31 07:50:55.4	337.130	0.180	-0.950	0.850
2020/01/31 07:50:55.5	337.110	0.180	-0.980	0.780
2020/01/31 07:50:55.6	337.090	0.180	-1.010	0.720
2020/01/31 07:50:55.7	337.070	0.180	-1.030	0.660
2020/01/31 07:50:55.8	337.050	0.180	-1.050	0.610
2020/01/31 07:50:55.9	337.030	0.180	-1.060	0.550
2020/01/31 07:50:56.0	337.010	0.180	-1.070	0.500
2020/01/31 07:50:56.1	336.980	0.180	-1.070	0.450
2020/01/31 07:50:56.2	336.960	0.190	-1.070	0.410
2020/01/31 07:50:56.3	336.950	0.190	-1.070	0.360
2020/01/31 07:50:56.4	336.930	0.190	-1.060	0.330
2020/01/31 07:50:56.5	336.910	0.200	-1.050	0.290
2020/01/31 07:50:56.6	336.890	0.200	-1.030	0.260
2020/01/31 07:50:56.7	336.860	0.200	-1.010	0.230
2020/01/31 07:50:56.8	336.840	0.200	-0.990	0.200
2020/01/31 07:50:56.9	336.820	0.210	-0.960	0.180
2020/01/31 07:50:57.0	336.800	0.210	-0.930	0.160
2020/01/31 07:50:57.1	336.780	0.210	-0.900	0.140
2020/01/31 07:50:57.2	336.750	0.210	-0.870	0.120
2020/01/31 07:50:57.3	336.720	0.200	-0.820	0.110
2020/01/31 07:50:57.4	336.700	0.200	-0.780	0.090
2020/01/31 07:50:57.5	336.680	0.200	-0.740	0.080
2020/01/31 07:50:57.6	336.660	0.190	-0.690	0.080
2020/01/31 07:50:57.7	336.630	0.180	-0.650	0.070
2020/01/31 07:50:57.8	336.610	0.180	-0.600	0.070
2020/01/31 07:50:57.9	336.590	0.170	-0.550	0.070
2020/01/31 07:50:58.0	336.570	0.160	-0.490	0.070
2020/01/31 07:50:58.1	336.540	0.150	-0.440	0.070
2020/01/31 07:50:58.2	336.520	0.130	-0.380	0.080
2020/01/31 07:50:58.3	336.510	0.120	-0.330	0.090
2020/01/31 07:50:58.4	336.480	0.100	-0.270	0.100
2020/01/31 07:50:58.5	336.450	0.090	-0.210	0.110
2020/01/31 07:50:58.6	336.430	0.070	-0.150	0.130
2020/01/31 07:50:58.7	336.390	0.050	-0.080	0.150
2020/01/31 07:50:58.8	336.360	0.030	-0.020	0.170
2020/01/31 07:50:58.9	336.330	0.010	0.040	0.200
2020/01/31 07:50:59.0	336.290	-0.010	0.110	0.220
2020/01/31 07:50:59.1	336.250	-0.030	0.170	0.250
2020/01/31 07:50:59.2	336.220	-0.050	0.230	0.270
2020/01/31 07:50:59.3	336.190	-0.070	0.290	0.300
2020/01/31 07:50:59.4	336.150	-0.090	0.350	0.330
2020/01/31 07:50:59.5	336.100	-0.110	0.400	0.350
2020/01/31 07:50:59.6	336.060	-0.130	0.450	0.380
2020/01/31 07:50:59.7	336.020	-0.150	0.500	0.410
2020/01/31 07:50:59.8	335.970	-0.170	0.540	0.430
2020/01/31 07:50:59.9	335.920	-0.190	0.580	0.460
2020/01/31 07:51:00.0	335.870	-0.210	0.610	0.480
2020/01/31 07:51:00.1	335.820	-0.220	0.640	0.510
2020/01/31 07:51:00.2	335.770	-0.240	0.660	0.540
2020/01/31 07:51:00.3	335.730	-0.250	0.680	0.560
2020/01/31 07:51:00.4	335.670	-0.260	0.700	0.590
2020/01/31 07:51:00.5	335.620	-0.270	0.700	0.610
2020/01/31 07:51:00.6	335.560	-0.280	0.710	0.640
2020/01/31 07:51:00.7	335.500	-0.280	0.710	0.670
2020/01/31 07:51:00.8	335.440	-0.290	0.700	0.690
2020/01/31 07:51:00.9	335.380	-0.290	0.690	0.720
2020/01/31 07:51:01.0	335.320	-0.290	0.680	0.750
2020/01/31 07:51:01.1	335.250	-0.280	0.660	0.780
2020/01/31 07:51:01.2	335.190	-0.280	0.640	0.810
2020/01/31 07:51:01.3	335.120	-0.270	0.620	0.840
2020/01/31 07:51:01.4	335.050	-0.260	0.600	0.880
2020/01/31 07:51:01.5	334.980	-0.250	0.570	0.910
2020/01/31 07:51:01.6	334.920	-0.240	0.530	0.940
2020/01/31 07:51:01.7	334.850	-0.230	0.500	0.970
2020/01/31 07:51:01.8	334.780	-0.210	0.460	1.000
2020/01/31 07:51:01.9	334.710	-0.200	0.420	1.030
2020/01/31 07:51:02.0	334.640	-0.180	0.380	1.060
2020/01/31 07:51:02.1	334.580	-0.170	0.340	1.080
2020/01/31 07:51:02.2	334.510	-0.150	0.290	1.110
2020/01/31 07:51:02.3	334.450	-0.130	0.240	1.120
2020/01/31 07:51:02.4	334.390	-0.110	0.190	1.140
2020/01/31 07:51:02.5	334.320	-0.090	0.140	1.150
2020/01/31 07:51:02.6	334.260	-0.080	0.090	1.160
2020/01/31 07:51:02.7	334.200	-0.060	0.040	1.170
2020/01/31 07:51:02.8	334.140	-0.040	-0.010	1.180
2020/01/31 07:51:02.9	334.090	-0.020	-0.070	1.180
2020/01/31 07:51:03.0	334.030	-0.010	-0.120	1.180
2020/01/31 07:51:03.1	333.980	0.010	-0.170	1.180
2020/01/31 07:51:03.2	333.930	0.020	-0.220	1.180
2020/01/31 07:51:03.3	333.870	0.030	-0.280	1.170
2020/01/31 07:51:03.4	333.820	0.050	-0.320	1.170
2020/01/31 07:51:03.5	333.770	0.060	-0.370	1.160
2020/01/31 07:51:03.6	333.720	0.070	-0.420	1.150
2020/01/31 07:51:03.7	333.680	0.070	-0.460	1.140
2020/01/31 07:51:03.8	333.630	0.080	-0.500	1.130
2020/01/31 07:51:03.9	333.580	0.090	-0.540	1.120
2020/01/31 07:51:04.0	333.540	0.090	-0.570	1.100
2020/01/31 07:51:04.1	333.500	0.090	-0.610	1.090
2020/01/31 07:51:04.2	333.450	0.090	-0.640	1.070
2020/01/31 07:51:04.3	333.410	0.090	-0.660	1.040
2020/01/31 07:51:04.4	333.360	0.090	-0.690	1.020
2020/01/31 07:51:04.5	333.320	0.090	-0.710	1.000
2020/01/31 07:51:04.6	333.280	0.090	-0.740	0.970
2020/01/31 07:51:04.7	333.240	0.080	-0.760	0.940
2020/01/31 07:51:04.8	333.210	0.080	-0.780	0.910
2020/01/31 07:51:04.9	333.170	0.070	-0.800	0.880
2020/01/31 07:51:05.0	333.130	0.070	-0.810	0.850
2020/01/31 07:51:05.1	333.100	0.060	-0.830	0.820
2020/01/31 07:51:05.2	333.070	0.060	-0.840	0.790
2020/01/31 07:51:05.3	333.030	0.050	-0.850	0.760
2020/01/31 07:51:05.4	333.000	0.050	-0.860	0.720
2020/01/31 07:51:05.5	332.970	0.050	-0.870	0.690
2020/01/31 07:51:05.6	332.940	0.050	-0.870	0.660
2020/01/31 07:51:05.7	332.920	0.040	-0.880	0.630
2020/01/31 07:51:05.8	332.890	0.040	-0.880	0.610
2020/01/31 07:51:05.9	332.860	0.040	-0.890	0.580
2020/01/31 07:51:06.0	332.840	0.040	-0.890	0.550
2020/01/31 07:51:06.1	332.820	0.040	-0.890	0.530
2020/01/31 07:51:06.2	332.800	0.040	-0.890	0.500
2020/01/31 07:51:06.3	332.780	0.050	-0.890	0.470
2020/01/31 07:51:06.4	332.770	0.050	-0.890	0.450
2020/01/31 07:51:06.5	332.750	0.050	-0.890	0.430
2020/01/31 07:51:06.6	332.730	0.050	-0.890	0.400
2020/01/31 07:51:06.7	332.720	0.050	-0.890	0.380
2020/01/31 07:51:06.8	332.710	0.050	-0.890	0.350
2020/01/31 07:51:06.9	332.690	0.050	-0.880	0.330
2020/01/31 07:51:07.0	332.680	0.050	-0.880	0.300
2020/01/31 07:51:07.1	332.670	0.050	-0.870	0.270
2020/01/31 07:51:07.2	332.670	0.050	-0.870	0.250
2020/01/31 07:51:07.3	332.660	0.050	-0.860	0.220
2020/01/31 07:51:07.4	332.660	0.050	-0.850	0.200
2020/01/31 07:51:07.5	332.650	0.040	-0.840	0.180
2020/01/31 07:51:07.6	332.640	0.040	-0.830	0.150
2020/01/31 07:51:07.7	332.640	0.040	-0.820	0.130
2020/01/31 07:51:07.8	332.640	0.030	-0.810	0.120
2020/01/31 07:51:07.9	332.630	0.030	-0.790	0.100
2020/01/31 07:51:08.0	332.630	0.020	-0.770	0.090
2020/01/31 07:51:08.1	332.620	0.020	-0.750	0.080
2020/01/31 07:51:08.2	332.620	0.010	-0.720	0.070
2020/01/31 07:51:08.3	332.610	0.010	-0.700	0.070
2020/01/31 07:51:08.4	332.600	-0.000	-0.670	0.060
2020/01/31 07:51:08.5	332.600	-0.010	-0.640	0.070
2020/01/31 07:51:08.6	332.590	-0.010	-0.600	0.070
2020/01/31 07:51:08.7	332.580	-0.020	-0.560	0.080
2020/01/31 07:51:08.8	332.570	-0.030	-0.520	0.090
2020/01/31 07:51:08.9	332.560	-0.040	-0.480	0.110
2020/01/31 07:51:09.0	332.540	-0.040	-0.430	0.130
2020/01/31 07:51:09.1	332.520	-0.050	-0.380	0.150
2020/01/31 07:51:09.2	332.500	-0.060	-0.330	0.170
2020/01/31 07:51:09.3	332.470	-0.060	-0.280	0.210
2020/01/31 07:51:09.4	332.440	-0.070	-0.220	0.240
2020/01/31 07:51:09.5	332.400	-0.080	-0.160	0.280
2020/01/31 07:51:09.6	332.370	-0.090	-0.090	0.310
2020/01/31 07:51:09.7	332.320	-0.090	-0.030	0.360
2020/01/31 07:51:09.8	332.280	-0.100	0.040	0.400
2020/01/31 07:51:09.9	332.230	-0.100	0.110	0.450
2020/01/31 07:51:10.0	332.170	-0.110	0.180	0.510
2020/01/31 07:51:10.1	332.110	-0.110	0.250	0.560
2020/01/31 07:51:10.2	332.050	-0.120	0.320	0.620
2020/01/31 07:51:10.3	331.960	-0.120	0.390	0.680
2020/01/31 07:51:10.4	331.890	-0.120	0.460	0.750
2020/01/31 07:51:10.5	331.810	-0.120	0.530	0.810
2020/01/31 07:51:10.6	331.730	-0.130	0.600	0.890
2020/01/31 07:51:10.7	331.650	-0.130	0.670	0.960
2020/01/31 07:51:10.8	331.560	-0.120	0.730	1.030
2020/01/31 07:51:10.9	331.480	-0.120	0.790	1.110
2020/01/31 07:51:11.0	331.390	-0.120	0.850	1.190
2020/01/31 07:51:11.1	331.290	-0.120	0.900	1.260
2020/01/31 07:51:11.2	331.200	-0.110	0.940	1.340
2020/01/31 07:51:11.3	331.080	-0.110	0.980	1.410
2020/01/31 07:51:11.4	330.990	-0.100	1.010	1.480
2020/01/31 07:51:11.5	330.890	-0.090	1.030	1.550
2020/01/31 07:51:11.6	330.800	-0.090	1.050	1.620
2020/01/31 07:51:11.7	330.700	-0.080	1.060	1.680
2020/01/31 07:51:11.8	330.600	-0.070	1.060	1.730
2020/01/31 07:51:11.9	330.510	-0.060	1.050	1.780
2020/01/31 07:51:12.0	330.420	-0.050	1.040	1.830
2020/01/31 07:51:12.1	330.330	-0.040	1.020	1.860
2020/01/31 07:51:12.2	330.240	-0.030	0.990	1.890
2020/01/31 07:51:12.3	330.140	-0.020	0.950	1.920
2020/01/31 07:51:12.4	330.060	-0.010	0.900	1.930
2020/01/31 07:51:12.5	329.980	-0.000	0.850	1.940
2020/01/31 07:51:12.6	329.900	0.010	0.800	1.940
2020/01/31 07:51:12.7	329.830	0.020	0.730	1.930
2020/01/31 07:51:12.8	329.760	0.020	0.660	1.910
2020/01/31 07:51:12.9	329.690	0.030	0.590	1.880
2020/01/31 07:51:13.0	329.630	0.040	0.510	1.850
2020/01/31 07:51:13.1	329.570	0.040	0.430	1.810
2020/01/31 07:51:13.2	329.520	0.050	0.340	1.770
2020/01/31 07:51:13.3	329.470	0.050	0.250	1.710
2020/01/31 07:51:13.4	329.420	0.050	0.160	1.660
2020/01/31 07:51:13.5	329.370	0.060	0.080	1.600
2020/01/31 07:51:13.6	329.320	0.060	-0.010	1.540
2020/01/31 07:51:13.7	329.280	0.060	-0.100	1.480
2020/01/31 07:51:13.8	329.240	0.060	-0.180	1.410
2020/01/31 07:51:13.9	329.210	0.060	-0.260	1.350
2020/01/31 07:51:14.0	329.170	0.050	-0.340	1.280
2020/01/31 07:51:14.1	329.140	0.050	-0.420	1.210
2020/01/31 07:51:14.2	329.120	0.050	-0.490	1.140
2020/01/31 07:51:14.3	329.080	0.040	-0.560	1.070
2020/01/31 07:51:14.4	329.060	0.040	-0.620	1.000
2020/01/31 07:51:14.5	329.040	0.040	-0.680	0.940
2020/01/31 07:51:14.6	329.010	0.040	-0.740	0.870
2020/01/31 07:51:14.7	328.990	0.030	-0.780	0.810
2020/01/31 07:51:14.8	328.980	0.030	-0.820	0.750
2020/01/31 07:51:14.9	328.960	0.030	-0.860	0.700
2020/01/31 07:51:15.0	328.940	0.030	-0.890	0.640
2020/01/31 07:51:15.1	328.920	0.030	-0.910	0.590
2020/01/31 07:51:15.2	328.910	0.030	-0.930	0.540
2020/01/31 07:51:15.3	328.870	0.030	-0.950	0.500
2020/01/31 07:51:15.4	328.850	0.040	-0.950	0.460
2020/01/31 07:51:15.5	328.830	0.040	-0.960	0.420
2020/01/31 07:51:15.6	328.810	0.050	-0.950	0.400
2020/01/31 07:51:15.7	328.780	0.050	-0.950	0.370
2020/01/31 07:51:15.8	328.760	0.060	-0.940	0.350
2020/01/31 07:51:15.9	328.730	0.070	-0.930	0.340
2020/01/31 07:51:16.0	328.700	0.080	-0.910	0.330
2020/01/31 07:51:16.1	328.670	0.090	-0.900	0.320
2020/01/31 07:51:16.2	328.640	0.100	-0.880	0.320
2020/01/31 07:51:16.3	328.600	0.110	-0.860	0.320
2020/01/31 07:51:16.4	328.570	0.120	-0.850	0.320
2020/01/31 07:51:16.5	328.540	0.140	-0.830	0.330
2020/01/31 07:51:16.6	328.510	0.150	-0.820	0.330
2020/01/31 07:51:16.7	328.480	0.160	-0.800	0.340
2020/01/31 07:51:16.8	328.460	0.180	-0.790	0.340
2020/01/31 07:51:16.9	328.430	0.190	-0.780	0.340
2020/01/31 07:51:17.0	328.410	0.200	-0.780	0.350
2020/01/31 07:51:17.1	328.390	0.210	-0.770	0.350
2020/01/31 07:51:17.2	328.370	0.220	-0.770	0.350
2020/01/31 07:51:17.3	328.350	0.230	-0.770	0.350
2020/01/31 07:51:17.4	328.340	0.250	-0.770	0.350
2020/01/31 07:51:17.5	328.330	0.250	-0.780	0.350
2020/01/31 07:51:17.6	328.320	0.260	-0.780	0.350
2020/01/31 07:51:17.7	328.310	0.270	-0.790	0.340
2020/01/31 07:51:17.8	328.310	0.280	-0.800	0.340
2020/01/31 07:51:17.9	328.310	0.280	-0.810	0.330
2020/01/31 07:51:18.0	328.310	0.280	-0.820	0.330
2020/01/31 07:51:18.1	328.310	0.280	-0.830	0.320
2020/01/31 07:51:18.2	328.310	0.280	-0.840	0.310
2020/01/31 07:51:18.3	328.290	0.280	-0.850	0.310
2020/01/31 07:51:18.4	328.300	0.270	-0.850	0.300
2020/01/31 07:51:18.5	328.300	0.260	-0.860	0.290
2020/01/31 07:51:18.6	328.310	0.250	-0.850	0.280
2020/01/31 07:51:18.7	328.310	0.240	-0.850	0.280
2020/01/31 07:51:18.8	328.320	0.230	-0.840	0.270
2020/01/31 07:51:18.9	328.320	0.210	-0.830	0.270
2020/01/31 07:51:19.0	328.320	0.190	-0.810	0.270
2020/01/31 07:51:19.1	328.320	0.170	-0.790	0.260
2020/01/31 07:51:19.2	328.320	0.150	-0.770	0.260
2020/01/31 07:51:19.3	328.320	0.120	-0.730	0.260
2020/01/31 07:51:19.4	328.310	0.090	-0.700	0.270
2020/01/31 07:51:19.5	328.300	0.060	-0.650	0.280
2020/01/31 07:51:19.6	328.290	0.030	-0.610	0.290
2020/01/31 07:51:19.7	328.280	-0.000	-0.560	0.300
2020/01/31 07:51:19.8	328.260	-0.030	-0.500	0.310
2020/01/31 07:51:19.9	328.230	-0.070	-0.440	0.330
2020/01/31 07:51:20.0	328.200	-0.100	-0.380	0.360
2020/01/31 07:51:20.1	328.170	-0.140	-0.310	0.390
2020/01/31 07:51:20.2	328.130	-0.180	-0.240	0.420
2020/01/31 07:51:20.3	328.100	-0.210	-0.160	0.460
2020/01/31 07:51:20.4	328.050	-0.250	-0.090	0.500
2020/01/31 07:51:20.5	328.000	-0.280	-0.010	0.540
2020/01/31 07:51:20.6	327.940	-0.320	0.070	0.590
2020/01/31 07:51:20.7	327.880	-0.350	0.150	0.630
2020/01/31 07:51:20.8	327.810	-0.390	0.230	0.690
2020/01/31 07:51:20.9	327.740	-0.420	0.310	0.740
2020/01/31 07:51:21.0	327.670	-0.440	0.390	0.800
2020/01/31 07:51:21.1	327.590	-0.470	0.470	0.860
2020/01/31 07:51:21.2	327.500	-0.490	0.540	0.920
2020/01/31 07:51:21.3	327.420	-0.520	0.610	0.970
2020/01/31 07:51:21.4	327.330	-0.530	0.670	1.030
2020/01/31 07:51:21.5	327.240	-0.550	0.730	1.090
2020/01/31 07:51:21.6	327.150	-0.560	0.780	1.140
2020/01/31 07:51:21.7	327.060	-0.570	0.830	1.200
2020/01/31 07:51:21.8	326.970	-0.570	0.860	1.250
2020/01/31 07:51:21.9	326.870	-0.570	0.890	1.300
2020/01/31 07:51:22.0	326.780	-0.570	0.920	1.340
2020/01/31 07:51:22.1	326.690	-0.560	0.930	1.380
2020/01/31 07:51:22.2	326.600	-0.550	0.930	1.420
2020/01/31 07:51:22.3	326.510	-0.540	0.930	1.450
2020/01/31 07:51:22.4	326.420	-0.520	0.920	1.480
2020/01/31 07:51:22.5	326.340	-0.500	0.900	1.500
2020/01/31 07:51:22.6	326.260	-0.480	0.870	1.520
2020/01/31 07:51:22.7	326.180	-0.450	0.830	1.540
2020/01/31 07:51:22.8	326.100	-0.420	0.780	1.550
2020/01/31 07:51:22.9	326.030	-0.390	0.730	1.550
2020/01/31 07:51:23.0	325.960	-0.350	0.670	1.560
2020/01/31 07:51:23.1	325.890	-0.320	0.610	1.560
2020/01/31 07:51:23.2	325.820	-0.280	0.540	1.560
2020/01/31 07:51:23.3	325.750	-0.240	0.470	1.550
2020/01/31 07:51:23.4	325.690	-0.200	0.390	1.540
2020/01/31 07:51:23.5	325.630	-0.160	0.320	1.540
2020/01/31 07:51:23.6	325.570	-0.110	0.240	1.530
2020/01/31 07:51:23.7	325.520	-0.070	0.160	1.520
2020/01/31 07:51:23.8	325.460	-0.030	0.090	1.510
2020/01/31 07:51:23.9	325.410	0.010	0.010	1.490
2020/01/31 07:51:24.0	325.360	0.050	-0.060	1.480
2020/01/31 07:51:24.1	325.310	0.090	-0.140	1.460
2020/01/31 07:51:24.2	325.270	0.130	-0.200	1.440
2020/01/31 07:51:24.3	325.230	0.170	-0.270	1.420
2020/01/31 07:51:24.4	325.180	0.200	-0.330	1.400
2020/01/31 07:51:24.5	325.140	0.240	-0.380	1.380
2020/01/31 07:51:24.6	325.100	0.270	-0.430	1.360
2020/01/31 07:51:24.7	325.060	0.300	-0.480	1.340
2020/01/31 07:51:24.8	325.010	0.320	-0.510	1.320
2020/01/31 07:51:24.9	324.970	0.350	-0.540	1.300
2020/01/31 07:51:25.0	324.930	0.370	-0.570	1.280
2020/01/31 07:51:25.1	324.880	0.390	-0.590	1.260
2020/01/31 07:51:25.2	324.840	0.400	-0.600	1.240
2020/01/31 07:51:25.3	324.800	0.420	-0.600	1.220
2020/01/31 07:51:25.4	324.760	0.430	-0.600	1.210
2020/01/31 07:51:25.5	324.710	0.430	-0.600	1.190
2020/01/31 07:51:25.6	324.670	0.440	-0.590	1.180
2020/01/31 07:51:25.7	324.620	0.440	-0.570	1.160
2020/01/31 07:51:25.8	324.580	0.430	-0.560	1.150
2020/01/31 07:51:25.9	324.530	0.430	-0.540	1.130
2020/01/31 07:51:26.0	324.490	0.420	-0.520	1.110
2020/01/31 07:51:26.1	324.440	0.410	-0.490	1.100
2020/01/31 07:51:26.2	324.400	0.400	-0.470	1.080
2020/01/31 07:51:26.3	324.340	0.380	-0.450	1.060
2020/01/31 07:51:26.4	324.300	0.360	-0.430	1.040
2020/01/31 07:51:26.5	324.260	0.340	-0.410	1.010
2020/01/31 07:51:26.6	324.230	0.320	-0.390	0.990
2020/01/31 07:51:26.7	324.190	0.300	-0.370	0.960
2020/01/31 07:51:26.8	324.160	0.270	-0.360	0.930
2020/01/31 07:51:26.9	324.130	0.250	-0.350	0.890
2020/01/31 07:51:27.0	324.100	0.220	-0.340	0.860
2020/01/31 07:51:27.1	324.080	0.190	-0.340	0.820
2020/01/31 07:51:27.2	324.060	0.160	-0.330	0.780
2020/01/31 07:51:27.3	324.040	0.140	-0.330	0.730
2020/01/31 07:51:27.4	324.020	0.110	-0.340	0.690
2020/01/31 07:51:27.5	324.000	0.080	-0.350	0.640
2020/01/31 07:51:27.6	323.990	0.060	-0.360	0.590
2020/01/31 07:51:27.7	323.980	0.030	-0.370	0.540
2020/01/31 07:51:27.8	323.960	0.000	-0.390	0.490
2020/01/31 07:51:27.9	323.950	-0.020	-0.400	0.440
2020/01/31 07:51:28.0	323.950	-0.050	-0.420	0.390
2020/01/31 07:51:28.1	323.940	-0.070	-0.440	0.340
2020/01/31 07:51:28.2	323.940	-0.100	-0.460	0.280
2020/01/31 07:51:28.3	323.930	-0.120	-0.480	0.230
2020/01/31 07:51:28.4	323.930	-0.140	-0.500	0.180
2020/01/31 07:51:28.5	323.930	-0.160	-0.520	0.130
2020/01/31 07:51:28.6	323.920	-0.180	-0.540	0.090
2020/01/31 07:51:28.7	323.920	-0.200	-0.550	0.040
2020/01/31 07:51:28.8	323.920	-0.220	-0.570	0.000
2020/01/31 07:51:28.9	323.910	-0.230	-0.580	-0.040
2020/01/31 07:51:29.0	323.900	-0.250	-0.580	-0.070
2020/01/31 07:51:29.1	323.890	-0.260	-0.590	-0.100
2020/01/31 07:51:29.2	323.880	-0.270	-0.590	-0.120
2020/01/31 07:51:29.3	323.870	-0.290	-0.590	-0.140
2020/01/31 07:51:29.4	323.860	-0.290	-0.580	-0.160
2020/01/31 07:51:29.5	323.840	-0.300	-0.570	-0.170
2020/01/31 07:51:29.6	323.820	-0.310	-0.560	-0.170
2020/01/31 07:51:29.7	323.800	-0.310	-0.540	-0.170
2020/01/31 07:51:29.8	323.780	-0.310	-0.520	-0.170
2020/01/31 07:51:29.9	323.750	-0.320	-0.500	-0.160
2020/01/31 07:51:30.0	323.730	-0.310	-0.470	-0.140
2020/01/31 07:51:30.1	323.700	-0.310	-0.440	-0.130
2020/01/31 07:51:30.2	323.670	-0.310	-0.410	-0.100
2020/01/31 07:51:30.3	323.650	-0.300	-0.380	-0.080
2020/01/31 07:51:30.4	323.610	-0.290	-0.350	-0.050
2020/01/31 07:51:30.5	323.580	-0.280	-0.320	-0.020
2020/01/31 07:51:30.6	323.540	-0.270	-0.280	0.020
2020/01/31 07:51:30.7	323.500	-0.260	-0.250	0.060
2020/01/31 07:51:30.8	323.460	-0.250	-0.220	0.100
2020/01/31 07:51:30.9	323.420	-0.230	-0.190	0.140
2020/01/31 07:51:31.0	323.380	-0.210	-0.160	0.190
2020/01/31 07:51:31.1	323.330	-0.200	-0.140	0.240
2020/01/31 07:51:31.2	323.290	-0.180	-0.110	0.290
2020/01/31 07:51:31.3	323.230	-0.160	-0.090	0.340
2020/01/31 07:51:31.4	323.190	-0.130	-0.070	0.400
2020/01/31 07:51:31.5	323.130	-0.110	-0.050	0.450
2020/01/31 07:51:31.6	323.080	-0.090	-0.040	0.510
2020/01/31 07:51:31.7	323.030	-0.070	-0.020	0.570
2020/01/31 07:51:31.8	322.970	-0.040	-0.010	0.630
2020/01/31 07:51:31.9	322.920	-0.020	-0.010	0.690
2020/01/31 07:51:32.0	322.860	0.000	-0.000	0.750
2020/01/31 07:51:32.1	322.800	0.020	0.000	0.810
2020/01/31 07:51:32.2	322.740	0.050	0.000	0.870
2020/01/31 07:51:32.3	322.670	0.070	0.000	0.930
2020/01/31 07:51:32.4	322.610	0.090	-0.000	0.990
2020/01/31 07:51:32.5	322.540	0.110	-0.010	1.050
2020/01/31 07:51:32.6	322.480	0.130	-0.020	1.110
2020/01/31 07:51:32.7	322.410	0.140	-0.020	1.170
2020/01/31 07:51:32.8	322.340	0.160	-0.030	1.220
2020/01/31 07:51:32.9	322.280	0.180	-0.050	1.280
2020/01/31 07:51:33.0	322.210	0.190	-0.060	1.330
2020/01/31 07:51:33.1	322.140	0.200	-0.070	1.380
2020/01/31 07:51:33.2	322.070	0.220	-0.080	1.440
2020/01/31 07:51:33.3	322.000	0.230	-0.100	1.490
2020/01/31 07:51:33.4	321.930	0.240	-0.110	1.540
2020/01/31 07:51:33.5	321.860	0.250	-0.120	1.580
2020/01/31 07:51:33.6	321.790	0.250	-0.130	1.630
2020/01/31 07:51:33.7	321.720	0.260	-0.140	1.670
2020/01/31 07:51:33.8	321.660	0.270	-0.150	1.710
2020/01/31 07:51:33.9	321.590	0.270	-0.160	1.750
2020/01/31 07:51:34.0	321.530	0.270	-0.170	1.780
2020/01/31 07:51:34.1	321.470	0.270	-0.180	1.810
2020/01/31 07:51:34.2	321.410	0.280	-0.190	1.840
2020/01/31 07:51:34.3	321.360	0.280	-0.200	1.860
2020/01/31 07:51:34.4	321.310	0.280	-0.200	1.870
2020/01/31 07:51:34.5	321.260	0.270	-0.210	1.880
2020/01/31 07:51:34.6	321.210	0.270	-0.220	1.890
2020/01/31 07:51:34.7	321.160	0.270	-0.230	1.900
2020/01/31 07:51:34.8	321.110	0.270	-0.240	1.890
2020/01/31 07:51:34.9	321.070	0.260	-0.250	1.890
2020/01/31 07:51:35.0	321.020	0.260	-0.250	1.880
2020/01/31 07:51:35.1	320.980	0.250	-0.260	1.870
2020/01/31 07:51:35.2	320.940	0.240	-0.270	1.860
2020/01/31 07:51:35.3	320.900	0.230	-0.280	1.840
2020/01/31 07:51:35.4	320.850	0.220	-0.280	1.810
2020/01/31 07:51:35.5	320.810	0.210	-0.280	1.790
2020/01/31 07:51:35.6	320.770	0.200	-0.290	1.770
2020/01/31 07:51:35.7	320.720	0.180	-0.290	1.740
2020/01/31 07:51:35.8	320.680	0.170	-0.290	1.710
2020/01/31 07:51:35.9	320.630	0.150	-0.290	1.670
2020/01/31 07:51:36.0	320.590	0.140	-0.290	1.640
2020/01/31 07:51:36.1	320.540	0.120	-0.280	1.610
2020/01/31 07:51:36.2	320.500	0.100	-0.280	1.570
2020/01/31 07:51:36.3	320.460	0.080	-0.280	1.530
2020/01/31 07:51:36.4	320.420	0.060	-0.270	1.490
2020/01/31 07:51:36.5	320.370	0.040	-0.260	1.450
2020/01/31 07:51:36.6	320.330	0.020	-0.250	1.410
2020/01/31 07:51:36.7	320.280	0.000	-0.240	1.370
2020/01/31 07:51:36.8	320.240	-0.020	-0.230	1.320
2020/01/31 07:51:36.9	320.200	-0.040	-0.220	1.280
2020/01/31 07:51:37.0	320.160	-0.060	-0.210	1.230
2020/01/31 07:51:37.1	320.120	-0.080	-0.190	1.190
2020/01/31 07:51:37.2	320.080	-0.100	-0.180	1.140
2020/01/31 07:51:37.3	320.070	-0.120	-0.170	1.090
2020/01/31 07:51:37.4	320.030	-0.140	-0.150	1.050
2020/01/31 07:51:37.5	320.000	-0.150	-0.140	1.000
2020/01/31 07:51:37.6	319.970	-0.170	-0.130	0.960
2020/01/31 07:51:37.7	319.940	-0.190	-0.110	0.910
2020/01/31 07:51:37.8	319.910	-0.200	-0.100	0.870
2020/01/31 07:51:37.9	319.880	-0.210	-0.090	0.830
2020/01/31 07:51:38.0	319.850	-0.220	-0.070	0.790
2020/01/31 07:51:38.1	319.820	-0.240	-0.060	0.750
2020/01/31 07:51:38.2	319.790	-0.240	-0.040	0.710
2020/01/31 07:51:38.3	319.750	-0.250	-0.030	0.680
2020/01/31 07:51:38.4	319.720	-0.260	-0.010	0.650
2020/01/31 07:51:38.5	319.690	-0.270	0.000	0.620
2020/01/31 07:51:38.6	319.660	-0.270	0.020	0.590
2020/01/31 07:51:38.7	319.630	-0.270	0.030	0.570
2020/01/31 07:51:38.8	319.600	-0.270	0.040	0.540
2020/01/31 07:51:38.9	319.570	-0.270	0.050	0.520
2020/01/31 07:51:39.0	319.530	-0.270	0.060	0.510
2020/01/31 07:51:39.1	319.500	-0.270	0.070	0.490
2020/01/31 07:51:39.2	319.460	-0.270	0.080	0.480
2020/01/31 07:51:39.3	319.430	-0.260	0.080	0.460
2020/01/31 07:51:39.4	319.390	-0.260	0.090	0.460
2020/01/31 07:51:39.5	319.360	-0.250	0.090	0.450
2020/01/31 07:51:39.6	319.320	-0.240	0.080	0.450
2020/01/31 07:51:39.7	319.280	-0.230	0.080	0.450
2020/01/31 07:51:39.8	319.250	-0.220	0.070	0.450
2020/01/31 07:51:39.9	319.210	-0.210	0.060	0.460
2020/01/31 07:51:40.0	319.170	-0.200	0.040	0.470
2020/01/31 07:51:40.1	319.130	-0.190	0.030	0.480
2020/01/31 07:51:40.2	319.090	-0.180	0.010	0.490
2020/01/31 07:51:40.3	319.050	-0.170	-0.010	0.500
2020/01/31 07:51:40.4	319.010	-0.160	-0.030	0.520
2020/01/31 07:51:40.5	318.970	-0.150	-0.060	0.540
2020/01/31 07:51:40.6	318.930	-0.130	-0.080	0.560
2020/01/31 07:51:40.7	318.890	-0.120	-0.110	0.580
2020/01/31 07:51:40.8	318.850	-0.110	-0.140	0.600
2020/01/31 07:51:40.9	318.810	-0.100	-0.160	0.620
2020/01/31 07:51:41.0	318.770	-0.080	-0.190	0.640
2020/01/31 07:51:41.1	318.730	-0.070	-0.220	0.660
2020/01/31 07:51:41.2	318.690	-0.060	-0.250	0.680
2020/01/31 07:51:41.3	318.650	-0.050	-0.280	0.700
2020/01/31 07:51:41.4	318.620	-0.040	-0.310	0.720
2020/01/31 07:51:41.5	318.580	-0.030	-0.340	0.730
2020/01/31 07:51:41.6	318.540	-0.020	-0.360	0.750
2020/01/31 07:51:41.7	318.510	-0.010	-0.390	0.770
2020/01/31 07:51:41.8	318.470	-0.000	-0.420	0.780
2020/01/31 07:51:41.9	318.430	0.010	-0.440	0.800
2020/01/31 07:51:42.0	318.400	0.020	-0.460	0.810
2020/01/31 07:51:42.1	318.360	0.020	-0.480	0.820
2020/01/31 07:51:42.2	318.330	0.030	-0.500	0.840
2020/01/31 07:51:42.3	318.310	0.040	-0.520	0.850
2020/01/31 07:51:42.4	318.280	0.040	-0.530	0.860
2020/01/31 07:51:42.5	318.240	0.050	-0.540	0.870
2020/01/31 07:51:42.6	318.200	0.050	-0.550	0.880
2020/01/31 07:51:42.7	318.160	0.050	-0.560	0.890
2020/01/31 07:51:42.8	318.120	0.060	-0.560	0.900
2020/01/31 07:51:42.9	318.080	0.060	-0.560	0.920
2020/01/31 07:51:43.0	318.040	0.060	-0.550	0.930
2020/01/31 07:51:43.1	318.000	0.060	-0.550	0.940
2020/01/31 07:51:43.2	317.960	0.070	-0.540	0.950
2020/01/31 07:51:43.3	317.920	0.070	-0.520	0.960
2020/01/31 07:51:43.4	317.870	0.070	-0.510	0.980
2020/01/31 07:51:43.5	317.820	0.070	-0.490	1.000
2020/01/31 07:51:43.6	317.780	0.070	-0.470	1.020
2020/01/31 07:51:43.7	317.730	0.070	-0.450	1.040
2020/01/31 07:51:43.8	317.680	0.080	-0.430	1.060
2020/01/31 07:51:43.9	317.630	0.080	-0.410	1.080
2020/01/31 07:51:44.0	317.580	0.080	-0.390	1.110
2020/01/31 07:51:44.1	317.520	0.080	-0.370	1.130
2020/01/31 07:51:44.2	317.470	0.080	-0.350	1.160
2020/01/31 07:51:44.3	317.420	0.090	-0.330	1.180
2020/01/31 07:51:44.4	317.370	0.090	-0.310	1.210
2020/01/31 07:51:44.5	317.310	0.090	-0.300	1.230
2020/01/31 07:51:44.6	317.260	0.100	-0.290	1.260
2020/01/31 07:51:44.7	317.200	0.100	-0.280	1.280
2020/01/31 07:51:44.8	317.150	0.100	-0.270	1.300
2020/01/31 07:51:44.9	317.100	0.110	-0.270	1.320
2020/01/31 07:51:45.0	317.040	0.120	-0.270	1.340
2020/01/31 07:51:45.1	316.990	0.120	-0.280	1.360
2020/01/31 07:51:45.2	316.940	0.130	-0.280	1.380
2020/01/31 07:51:45.3	316.880	0.140	-0.290	1.390
2020/01/31 07:51:45.4	316.830	0.140	-0.310	1.410
2020/01/31 07:51:45.5	316.780	0.150	-0.320	1.420
2020/01/31 07:51:45.6	316.730	0.160	-0.340	1.430
2020/01/31 07:51:45.7	316.680	0.170	-0.350	1.440
2020/01/31 07:51:45.8	316.630	0.180	-0.370	1.460
2020/01/31 07:51:45.9	316.580	0.190	-0.390	1.470
2020/01/31 07:51:46.0	316.530	0.200	-0.410	1.480
2020/01/31 07:51:46.1	316.480	0.210	-0.430	1.490
2020/01/31 07:51:46.2	316.430	0.210	-0.450	1.500
2020/01/31 07:51:46.3	316.390	0.220	-0.470	1.500
2020/01/31 07:51:46.4	316.350	0.230	-0.480	1.510
2020/01/31 07:51:46.5	316.300	0.240	-0.500	1.520
2020/01/31 07:51:46.6	316.260	0.240	-0.510	1.530
2020/01/31 07:51:46.7	316.230	0.250	-0.520	1.530
2020/01/31 07:51:46.8	316.190	0.250	-0.530	1.540
2020/01/31 07:51:46.9	316.160	0.250	-0.530	1.540
2020/01/31 07:51:47.0	316.130	0.260	-0.540	1.540
2020/01/31 07:51:47.1	316.100	0.260	-0.540	1.550
2020/01/31 07:51:47.2	316.070	0.260	-0.540	1.540
2020/01/31 07:51:47.3	316.040	0.250	-0.530	1.540
2020/01/31 07:51:47.4	316.020	0.250	-0.520	1.540
2020/01/31 07:51:47.5	316.000	0.240	-0.510	1.530
2020/01/31 07:51:47.6	315.980	0.240	-0.490	1.520
2020/01/31 07:51:47.7	315.970	0.230	-0.470	1.520
2020/01/31 07:51:47.8	315.950	0.220	-0.450	1.510
2020/01/31 07:51:47.9	315.940	0.210	-0.430	1.500
2020/01/31 07:51:48.0	315.930	0.190	-0.400	1.490
2020/01/31 07:51:48.1	315.910	0.180	-0.360	1.480
2020/01/31 07:51:48.2	315.900	0.160	-0.320	1.470
2020/01/31 07:51:48.3	315.890	0.140	-0.280	1.460
2020/01/31 07:51:48.4	315.880	0.120	-0.240	1.460
2020/01/31 07:51:48.5	315.860	0.090	-0.190	1.450
2020/01/31 07:51:48.6	315.840	0.070	-0.150	1.440
2020/01/31 07:51:48.7	315.820	0.040	-0.090	1.440
2020/01/31 07:51:48.8	315.800	0.010	-0.040	1.430
2020/01/31 07:51:48.9	315.780	-0.020	0.010	1.420
2020/01/31 07:51:49.0	315.760	-0.050	0.060	1.420
2020/01/31 07:51:49.1	315.730	-0.080	0.120	1.410
2020/01/31 07:51:49.2	315.700	-0.110	0.170	1.410
2020/01/31 07:51:49.3	315.680	-0.140	0.230	1.410
2020/01/31 07:51:49.4	315.650	-0.180	0.280	1.400
2020/01/31 07:51:49.5	315.620	-0.210	0.330	1.400
2020/01/31 07:51:49.6	315.590	-0.240	0.380	1.400
2020/01/31 07:51:49.7	315.550	-0.280	0.430	1.390
2020/01/31 07:51:49.8	315.520	-0.310	0.470	1.390
2020/01/31 07:51:49.9	315.490	-0.340	0.510	1.380
2020/01/31 07:51:50.0	315.450	-0.370	0.550	1.380
2020/01/31 07:51:50.1	315.420	-0.400	0.580	1.370
2020/01/31 07:51:50.2	315.390	-0.420	0.610	1.370
2020/01/31 07:51:50.3	315.360	-0.450	0.640	1.360
2020/01/31 07:51:50.4	315.330	-0.470	0.660	1.350
2020/01/31 07:51:50.5	315.300	-0.480	0.670	1.330
2020/01/31 07:51:50.6	315.270	-0.500	0.680	1.320
2020/01/31 07:51:50.7	315.240	-0.510	0.680	1.310
2020/01/31 07:51:50.8	315.210	-0.520	0.680	1.290
2020/01/31 07:51:50.9	315.190	-0.530	0.670	1.270
2020/01/31 07:51:51.0	315.160	-0.530	0.650	1.250
2020/01/31 07:51:51.1	315.140	-0.530	0.630	1.220
2020/01/31 07:51:51.2	315.120	-0.530	0.610	1.200
2020/01/31 07:51:51.3	315.090	-0.520	0.580	1.170
2020/01/31 07:51:51.4	315.070	-0.510	0.540	1.150
2020/01/31 07:51:51.5	315.050	-0.500	0.500	1.130
2020/01/31 07:51:51.6	315.020	-0.480	0.460	1.100
2020/01/31 07:51:51.7	315.000	-0.460	0.420	1.080
2020/01/31 07:51:51.8	314.970	-0.440	0.370	1.060
2020/01/31 07:51:51.9	314.950	-0.420	0.320	1.040
2020/01/31 07:51:52.0	314.920	-0.400	0.270	1.020
2020/01/31 07:51:52.1	314.900	-0.370	0.210	1.000
2020/01/31 07:51:52.2	314.870	-0.340	0.150	0.990
2020/01/31 07:51:52.3	314.850	-0.320	0.090	0.970
2020/01/31 07:51:52.4	314.820	-0.290	0.030	0.960
2020/01/31 07:51:52.5	314.800	-0.260	-0.030	0.950
2020/01/31 07:51:52.6	314.770	-0.230	-0.090	0.940
2020/01/31 07:51:52.7	314.750	-0.200	-0.150	0.930
2020/01/31 07:51:52.8	314.730	-0.160	-0.210	0.920
2020/01/31 07:51:52.9	314.700	-0.130	-0.270	0.920
2020/01/31 07:51:53.0	314.680	-0.100	-0.330	0.910
2020/01/31 07:51:53.1	314.660	-0.070	-0.390	0.910
2020/01/31 07:51:53.2	314.640	-0.040	-0.440	0.900
2020/01/31 07:51:53.3	314.620	-0.020	-0.490	0.900
2020/01/31 07:51:53.4	314.610	0.010	-0.540	0.900
2020/01/31 07:51:53.5	314.590	0.040	-0.590	0.900
2020/01/31 07:51:53.6	314.580	0.070	-0.640	0.900
2020/01/31 07:51:53.7	314.570	0.090	-0.680	0.910
2020/01/31 07:51:53.8	314.560	0.120	-0.720	0.910
2020/01/31 07:51:53.9	314.550	0.140	-0.760	0.920
2020/01/31 07:51:54.0	314.550	0.160	-0.790	0.930
2020/01/31 07:51:54.1	314.540	0.190	-0.820	0.930
2020/01/31 07:51:54.2	314.540	0.210	-0.850	0.940
2020/01/31 07:51:54.3	314.520	0.230	-0.870	0.960
2020/01/31 07:51:54.4	314.520	0.240	-0.890	0.970
2020/01/31 07:51:54.5	314.510	0.260	-0.900	0.990
2020/01/31 07:51:54.6	314.510	0.280	-0.910	1.000
2020/01/31 07:51:54.7	314.500	0.290	-0.910	1.020
2020/01/31 07:51:54.8	314.500	0.310	-0.910	1.040
2020/01/31 07:51:54.9	314.490	0.320	-0.910	1.070
2020/01/31 07:51:55.0	314.480	0.330	-0.900	1.090
2020/01/31 07:51:55.1	314.470	0.340	-0.890	1.120
2020/01/31 07:51:55.2	314.460	0.350	-0.870	1.150
2020/01/31 07:51:55.3	314.450	0.360	-0.850	1.180
2020/01/31 07:51:55.4	314.440	0.370	-0.830	1.210
2020/01/31 07:51:55.5	314.430	0.380	-0.810	1.240
2020/01/31 07:51:55.6	314.410	0.380	-0.790	1.280
2020/01/31 07:51:55.7	314.400	0.390	-0.760	1.310
2020/01/31 07:51:55.8	314.390	0.390	-0.740	1.340
2020/01/31 07:51:55.9	314.380	0.390	-0.710	1.370
2020/01/31 07:51:56.0	314.360	0.400	-0.690	1.400
2020/01/31 07:51:56.1	314.350	0.400	-0.670	1.430
2020/01/31 07:51:56.2	314.340	0.400	-0.650	1.450
2020/01/31 07:51:56.3	314.330	0.400	-0.630	1.480
2020/01/31 07:51:56.4	314.320	0.400	-0.620	1.490
2020/01/31 07:51:56.5	314.310	0.390	-0.610	1.510
2020/01/31 07:51:56.6	314.310	0.390	-0.600	1.510
2020/01/31 07:51:56.7	314.300	0.390	-0.590	1.520
2020/01/31 07:51:56.8	314.300	0.380	-0.590	1.520
2020/01/31 07:51:56.9	314.300	0.380	-0.590	1.510
2020/01/31 07:51:57.0	314.310	0.370	-0.590	1.510
2020/01/31 07:51:57.1	314.310	0.370	-0.600	1.500
2020/01/31 07:51:57.2	314.320	0.360	-0.610	1.480
2020/01/31 07:51:57.3	314.320	0.350	-0.610	1.460
2020/01/31 07:51:57.4	314.330	0.340	-0.620	1.440
2020/01/31 07:51:57.5	314.340	0.330	-0.640	1.410
2020/01/31 07:51:57.6	314.350	0.320	-0.650	1.390
2020/01/31 07:51:57.7	314.360	0.310	-0.660	1.360
2020/01/31 07:51:57.8	314.370	0.300	-0.670	1.330
2020/01/31 07:51:57.9	314.390	0.280	-0.680	1.300
2020/01/31 07:51:58.0	314.400	0.270	-0.680	1.270
2020/01/31 07:51:58.1	314.410	0.250	-0.690	1.240
2020/01/31 07:51:58.2	314.420	0.240	-0.690	1.210
2020/01/31 07:51:58.3	314.440	0.220	-0.690	1.170
2020/01/31 07:51:58.4	314.450	0.200	-0.680	1.140
2020/01/31 07:51:58.5	314.460	0.180	-0.670	1.110
2020/01/31 07:51:58.6	314.480	0.160	-0.660	1.090
2020/01/31 07:51:58.7	314.490	0.140	-0.640	1.060
2020/01/31 07:51:58.8	314.500	0.120	-0.610	1.030
2020/01/31 07:51:58.9	314.510	0.100	-0.590	1.010
2020/01/31 07:51:59.0	314.520	0.080	-0.560	0.980
2020/01/31 07:51:59.1	314.530	0.050	-0.520	0.960
2020/01/31 07:51:59.2	314.540	0.030	-0.480	0.950
2020/01/31 07:51:59.3	314.550	0.010	-0.430	0.930
2020/01/31 07:51:59.4	314.550	-0.010	-0.380	0.920
2020/01/31 07:51:59.5	314.560	-0.040	-0.330	0.910
2020/01/31 07:51:59.6	314.560	-0.060	-0.270	0.900
2020/01/31 07:51:59.7	314.560	-0.080	-0.220	0.890
2020/01/31 07:51:59.8	314.560	-0.100	-0.160	0.890
2020/01/31 07:51:59.9	314.560	-0.120	-0.090	0.890
2020/01/31 07:52:00.0	314.550	-0.150	-0.030	0.890
2020/01/31 07:52:00.1	314.550	-0.170	0.040	0.890
2020/01/31 07:52:00.2	314.540	-0.190	0.110	0.900
2020/01/31 07:52:00.3	314.530	-0.210	0.170	0.910
2020/01/31 07:52:00.4	314.520	-0.230	0.240	0.910
2020/01/31 07:52:00.5	314.500	-0.250	0.310	0.920
2020/01/31 07:52:00.6	314.490	-0.260	0.370	0.930
2020/01/31 07:52:00.7	314.470	-0.280	0.440	0.940
2020/01/31 07:52:00.8	314.460	-0.300	0.500	0.960
2020/01/31 07:52:00.9	314.440	-0.310	0.560	0.970
2020/01/31 07:52:01.0	314.420	-0.330	0.610	0.980
2020/01/31 07:52:01.1	314.400	-0.340	0.670	0.990
2020/01/31 07:52:01.2	314.380	-0.350	0.710	1.010
2020/01/31 07:52:01.3	314.370	-0.360	0.760	1.020
2020/01/31 07:52:01.4	314.350	-0.370	0.800	1.030
2020/01/31 07:52:01.5	314.330	-0.380	0.830	1.040
2020/01/31 07:52:01.6	314.310	-0.380	0.860	1.040
2020/01/31 07:52:01.7	314.290	-0.390	0.880	1.050
2020/01/31 07:52:01.8	314.270	-0.390	0.900	1.050
2020/01/31 07:52:01.9	314.250	-0.400	0.910	1.040
2020/01/31 07:52:02.0	314.230	-0.400	0.910	1.040
2020/01/31 07:52:02.1	314.220	-0.400	0.900	1.030
2020/01/31 07:52:02.2	314.200	-0.400	0.890	1.020
2020/01/31 07:52:02.3	314.200	-0.400	0.880	1.010
2020/01/31 07:52:02.4	314.190	-0.400	0.850	0.990
2020/01/31 07:52:02.5	314.170	-0.390	0.820	0.970
2020/01/31 07:52:02.6	314.160	-0.390	0.790	0.950
2020/01/31 07:52:02.7	314.150	-0.390	0.750	0.930
2020/01/31 07:52:02.8	314.140	-0.380	0.700	0.900
2020/01/31 07:52:02.9	314.130	-0.370	0.650	0.870
2020/01/31 07:52:03.0	314.120	-0.370	0.600	0.850
2020/01/31 07:52:03.1	314.110	-0.360	0.540	0.820
2020/01/31 07:52:03.2	314.100	-0.350	0.480	0.790
2020/01/31 07:52:03.3	314.090	-0.340	0.420	0.750
2020/01/31 07:52:03.4	314.080	-0.330	0.350	0.720
2020/01/31 07:52:03.5	314.080	-0.320	0.290	0.690
2020/01/31 07:52:03.6	314.070	-0.310	0.220	0.660
2020/01/31 07:52:03.7	314.070	-0.300	0.160	0.630
2020/01/31 07:52:03.8	314.060	-0.280	0.090	0.600
2020/01/31 07:52:03.9	314.060	-0.270	0.020	0.570
2020/01/31 07:52:04.0	314.060	-0.260	-0.040	0.540
2020/01/31 07:52:04.1	314.060	-0.250	-0.110	0.520
2020/01/31 07:52:04.2	314.060	-0.230	-0.170	0.490
2020/01/31 07:52:04.3	314.060	-0.220	-0.230	0.460
2020/01/31 07:52:04.4	314.060	-0.210	-0.290	0.430
2020/01/31 07:52:04.5	314.060	-0.190	-0.350	0.410
2020/01/31 07:52:04.6	314.070	-0.180	-0.400	0.390
2020/01/31 07:52:04.7	314.070	-0.160	-0.450	0.370
2020/01/31 07:52:04.8	314.070	-0.150	-0.490	0.350
2020/01/31 07:52:04.9	314.080	-0.140	-0.540	0.330
2020/01/31 07:52:05.0	314.090	-0.120	-0.580	0.320
2020/01/31 07:52:05.1	314.090	-0.110	-0.610	0.310
2020/01/31 07:52:05.2	314.100	-0.090	-0.640	0.300
2020/01/31 07:52:05.3	314.100	-0.080	-0.670	0.290
2020/01/31 07:52:05.4	314.110	-0.070	-0.690	0.280
2020/01/31 07:52:05.5	314.120	-0.050	-0.710	0.280
2020/01/31 07:52:05.6	314.120	-0.040	-0.730	0.280
2020/01/31 07:52:05.7	314.130	-0.030	-0.750	0.280
2020/01/31 07:52:05.8	314.140	-0.010	-0.760	0.280
2020/01/31 07:52:05.9	314.150	-0.000	-0.770	0.280
2020/01/31 07:52:06.0	314.150	0.010	-0.780	0.290
2020/01/31 07:52:06.1	314.160	0.020	-0.780	0.300
2020/01/31 07:52:06.2	314.170	0.030	-0.790	0.300
2020/01/31 07:52:06.3	314.170	0.040	-0.790	0.310
2020/01/31 07:52:06.4	314.180	0.050	-0.790	0.320
2020/01/31 07:52:06.5	314.190	0.050	-0.790	0.330
2020/01/31 07:52:06.6	314.190	0.060	-0.790	0.330
2020/01/31 07:52:06.7	314.200	0.060	-0.790	0.340
2020/01/31 07:52:06.8	314.210	0.070	-0.780	0.340
2020/01/31 07:52:06.9	314.230	0.070	-0.780	0.340
2020/01/31 07:52:07.0	314.240	0.080	-0.770	0.350
2020/01/31 07:52:07.1	314.250	0.080	-0.770	0.350
2020/01/31 07:52:07.2	314.270	0.080	-0.760	0.350
2020/01/31 07:52:07.3	314.280	0.080	-0.760	0.350
2020/01/31 07:52:07.4	314.300	0.080	-0.750	0.350
2020/01/31 07:52:07.5	314.310	0.080	-0.750	0.350
2020/01/31 07:52:07.6	314.330	0.080	-0.740	0.350
2020/01/31 07:52:07.7	314.350	0.080	-0.730	0.350
2020/01/31 07:52:07.8	314.370	0.080	-0.730	0.360
2020/01/31 07:52:07.9	314.390	0.080	-0.720	0.360
2020/01/31 07:52:08.0	314.410	0.080	-0.710	0.370
2020/01/31 07:52:08.1	314.430	0.080	-0.700	0.380
2020/01/31 07:52:08.2	314.450	0.080	-0.690	0.390
2020/01/31 07:52:08.3	314.460	0.080	-0.680	0.410
2020/01/31 07:52:08.4	314.480	0.080	-0.670	0.430
2020/01/31 07:52:08.5	314.490	0.080	-0.650	0.450
2020/01/31 07:52:08.6	314.500	0.080	-0.640	0.470
2020/01/31 07:52:08.7	314.510	0.080	-0.620	0.490
2020/01/31 07:52:08.8	314.520	0.090	-0.600	0.520
2020/01/31 07:52:08.9	314.530	0.090	-0.580	0.550
2020/01/31 07:52:09.0	314.530	0.090	-0.560	0.580
2020/01/31 07:52:09.1	314.540	0.090	-0.540	0.620
2020/01/31 07:52:09.2	314.540	0.100	-0.510	0.660
2020/01/31 07:52:09.3	314.540	0.100	-0.490	0.690
2020/01/31 07:52:09.4	314.540	0.100	-0.460	0.730
2020/01/31 07:52:09.5	314.540	0.110	-0.440	0.770
2020/01/31 07:52:09.6	314.530	0.110	-0.410	0.810
2020/01/31 07:52:09.7	314.530	0.120	-0.380	0.850
2020/01/31 07:52:09.8	314.520	0.130	-0.360	0.890
2020/01/31 07:52:09.9	314.520	0.130	-0.330	0.920
2020/01/31 07:52:10.0	314.510	0.140	-0.310	0.960
2020/01/31 07:52:10.1	314.500	0.150	-0.280	1.000
2020/01/31 07:52:10.2	314.500	0.150	-0.250	1.030
2020/01/31 07:52:10.3	314.480	0.160	-0.230	1.070
2020/01/31 07:52:10.4	314.470	0.170	-0.210	1.100
2020/01/31 07:52:10.5	314.470	0.180	-0.180	1.130
2020/01/31 07:52:10.6	314.460	0.190	-0.160	1.150
2020/01/31 07:52:10.7	314.450	0.190	-0.140	1.180
2020/01/31 07:52:10.8	314.450	0.200	-0.120	1.210
2020/01/31 07:52:10.9	314.440	0.210	-0.100	1.230
2020/01/31 07:52:11.0	314.430	0.210	-0.080	1.250
2020/01/31 07:52:11.1	314.420	0.220	-0.070	1.270
2020/01/31 07:52:11.2	314.410	0.220	-0.050	1.280
2020/01/31 07:52:11.3	314.390	0.230	-0.040	1.300
2020/01/31 07:52:11.4	314.380	0.230	-0.020	1.310
2020/01/31 07:52:11.5	314.370	0.240	-0.010	1.320
2020/01/31 07:52:11.6	314.360	0.240	-0.000	1.330
2020/01/31 07:52:11.7	314.350	0.240	0.000	1.330
2020/01/31 07:52:11.8	314.330	0.240	0.010	1.340
2020/01/31 07:52:11.9	314.320	0.240	0.010	1.330
2020/01/31 07:52:12.0	314.310	0.230	0.010	1.330
2020/01/31 07:52:12.1	314.300	0.230	0.010	1.320
2020/01/31 07:52:12.2	314.290	0.230	0.010	1.310
2020/01/31 07:52:12.3	314.290	0.220	0.000	1.290
2020/01/31 07:52:12.4	314.280	0.220	-0.010	1.270
2020/01/31 07:52:12.5	314.280	0.210	-0.020	1.250
2020/01/31 07:52:12.6	314.280	0.200	-0.040	1.220
2020/01/31 07:52:12.7	314.280	0.190	-0.050	1.190
2020/01/31 07:52:12.8	314.290	0.190	-0.070	1.160
2020/01/31 07:52:12.9	314.290	0.180	-0.090	1.120
2020/01/31 07:52:13.0	314.300	0.170	-0.120	1.080
2020/01/31 07:52:13.1	314.310	0.160	-0.140	1.040
2020/01/31 07:52:13.2	314.320	0.150	-0.160	0.990
2020/01/31 07:52:13.3	314.330	0.140	-0.190	0.940
2020/01/31 07:52:13.4	314.340	0.130	-0.210	0.890
2020/01/31 07:52:13.5	314.360	0.110	-0.240	0.840
2020/01/31 07:52:13.6	314.380	0.100	-0.260	0.780
2020/01/31 07:52:13.7	314.400	0.090	-0.290	0.730
2020/01/31 07:52:13.8	314.420	0.080	-0.310	0.680
2020/01/31 07:52:13.9	314.440	0.060	-0.330	0.630
2020/01/31 07:52:14.0	314.460	0.050	-0.340	0.570
2020/01/31 07:52:14.1	314.480	0.030	-0.350	0.520
2020/01/31 07:52:14.2	314.500	0.020	-0.360	0.470
2020/01/31 07:52:14.3	314.520	0.000	-0.370	0.420
2020/01/31 07:52:14.4	314.540	-0.010	-0.380	0.370
2020/01/31 07:52:14.5	314.570	-0.030	-0.380	0.330
2020/01/31 07:52:14.6	314.590	-0.040	-0.370	0.280
2020/01/31 07:52:14.7	314.610	-0.060	-0.370	0.240
2020/01/31 07:52:14.8	314.630	-0.080	-0.350	0.210
2020/01/31 07:52:14.9	314.650	-0.090	-0.340	0.170
2020/01/31 07:52:15.0	314.670	-0.110	-0.320	0.140
2020/01/31 07:52:15.1	314.700	-0.130	-0.300	0.110
2020/01/31 07:52:15.2	314.720	-0.150	-0.270	0.090
2020/01/31 07:52:15.3	314.730	-0.160	-0.250	0.070
2020/01/31 07:52:15.4	314.750	-0.180	-0.210	0.050
2020/01/31 07:52:15.5	314.770	-0.200	-0.180	0.030
2020/01/31 07:52:15.6	314.780	-0.220	-0.140	0.020
2020/01/31 07:52:15.7	314.800	-0.230	-0.100	0.010
2020/01/31 07:52:15.8	314.810	-0.250	-0.060	0.000
2020/01/31 07:52:15.9	314.820	-0.270	-0.020	0.000
2020/01/31 07:52:16.0	314.830	-0.280	0.020	-0.000
2020/01/31 07:52:16.1	314.840	-0.300	0.070	0.000
2020/01/31 07:52:16.2	314.850	-0.310	0.110	0.010
2020/01/31 07:52:16.3	314.850	-0.330	0.160	0.010
2020/01/31 07:52:16.4	314.860	-0.340	0.200	0.020
2020/01/31 07:52:16.5	314.860	-0.350	0.240	0.030
2020/01/31 07:52:16.6	314.860	-0.360	0.280	0.050
2020/01/31 07:52:16.7	314.860	-0.370	0.320	0.060
2020/01/31 07:52:16.8	314.870	-0.380	0.360	0.080
2020/01/31 07:52:16.9	314.860	-0.390	0.390	0.090
2020/01/31 07:52:17.0	314.860	-0.390	0.420	0.110
2020/01/31 07:52:17.1	314.860	-0.390	0.450	0.130
2020/01/31 07:52:17.2	314.860	-0.390	0.470	0.160
2020/01/31 07:52:17.3	314.850	-0.390	0.490	0.180
2020/01/31 07:52:17.4	314.850	-0.380	0.500	0.200
2020/01/31 07:52:17.5	314.850	-0.380	0.510	0.220
2020/01/31 07:52:17.6	314.850	-0.370	0.510	0.240
2020/01/31 07:52:17.7	314.850	-0.360	0.510	0.260
2020/01/31 07:52:17.8	314.850	-0.350	0.500	0.280
2020/01/31 07:52:17.9	314.860	-0.330	0.490	0.300
2020/01/31 07:52:18.0	314.860	-0.320	0.480	0.320
2020/01/31 07:52:18.1	314.870	-0.300	0.450	0.340
2020/01/31 07:52:18.2	314.870	-0.280	0.430	0.350
2020/01/31 07:52:18.3	314.890	-0.260	0.400	0.360
2020/01/31 07:52:18.4	314.890	-0.240	0.360	0.370
2020/01/31 07:52:18.5	314.900	-0.220	0.320	0.380
2020/01/31 07:52:18.6	314.920	-0.200	0.280	0.390
2020/01/31 07:52:18.7	314.930	-0.170	0.240	0.390
2020/01/31 07:52:18.8	314.940	-0.150	0.190	0.400
2020/01/31 07:52:18.9	314.950	-0.120	0.140	0.400
2020/01/31 07:52:19.0	314.970	-0.100	0.080	0.400
2020/01/31 07:52:19.1	314.980	-0.080	0.030	0.400
2020/01/31 07:52:19.2	314.990	-0.050	-0.020	0.400
2020/01/31 07:52:19.3	314.990	-0.030	-0.080	0.390
2020/01/31 07:52:19.4	315.000	-0.010	-0.130	0.390
2020/01/31 07:52:19.5	315.010	0.010	-0.190	0.390
2020/01/31 07:52:19.6	315.030	0.030	-0.240	0.380
2020/01/31 07:52:19.7	315.040	0.050	-0.290	0.380
2020/01/31 07:52:19.8	315.050	0.060	-0.340	0.370
2020/01/31 07:52:19.9	315.060	0.080	-0.390	0.360
2020/01/31 07:52:20.0	315.070	0.090	-0.430	0.350
2020/01/31 07:52:20.1	315.070	0.100	-0.480	0.340
2020/01/31 07:52:20.2	315.080	0.110	-0.520	0.330
2020/01/31 07:52:20.3	315.090	0.120	-0.560	0.320
2020/01/31 07:52:20.4	315.090	0.130	-0.590	0.310
2020/01/31 07:52:20.5	315.100	0.130	-0.620	0.300
2020/01/31 07:52:20.6	315.110	0.140	-0.650	0.290
2020/01/31 07:52:20.7	315.120	0.140	-0.680	0.270
2020/01/31 07:52:20.8	315.120	0.140	-0.700	0.260
2020/01/31 07:52:20.9	315.130	0.140	-0.720	0.250
2020/01/31 07:52:21.0	315.130	0.140	-0.740	0.230
2020/01/31 07:52:21.1	315.140	0.140	-0.750	0.220
2020/01/31 07:52:21.2	315.140	0.130	-0.770	0.210
2020/01/31 07:52:21.3	315.140	0.130	-0.770	0.200
2020/01/31 07:52:21.4	315.140	0.120	-0.780	0.190
2020/01/31 07:52:21.5	315.150	0.120	-0.790	0.180
2020/01/31 07:52:21.6	315.150	0.110	-0.790	0.170
2020/01/31 07:52:21.7	315.150	0.110	-0.790	0.160
2020/01/31 07:52:21.8	315.150	0.100	-0.790	0.160
2020/01/31 07:52:21.9	315.150	0.100	-0.780	0.150
2020/01/31 07:52:22.0	315.150	0.090	-0.780	0.150
2020/01/31 07:52:22.1	315.150	0.090	-0.770	0.140
2020/01/31 07:52:22.2	315.150	0.080	-0.760	0.140
2020/01/31 07:52:22.3	315.140	0.080	-0.750	0.140
2020/01/31 07:52:22.4	315.140	0.070	-0.740	0.140
2020/01/31 07:52:22.5	315.140	0.070	-0.730	0.140
2020/01/31 07:52:22.6	315.130	0.070	-0.710	0.140
2020/01/31 07:52:22.7	315.120	0.060	-0.700	0.140
2020/01/31 07:52:22.8	315.120	0.060	-0.680	0.140
2020/01/31 07:52:22.9	315.110	0.060	-0.670	0.150
2020/01/31 07:52:23.0	315.100	0.060	-0.650	0.150
2020/01/31 07:52:23.1	315.090	0.060	-0.630	0.160
2020/01/31 07:52:23.2	315.080	0.060	-0.620	0.170
2020/01/31 07:52:23.3	315.060	0.060	-0.600	0.180
2020/01/31 07:52:23.4	315.060	0.070	-0.580	0.190
2020/01/31 07:52:23.5	315.050	0.070	-0.570	0.200
2020/01/31 07:52:23.6	315.040	0.070	-0.560	0.210
2020/01/31 07:52:23.7	315.030	0.080	-0.550	0.220
2020/01/31 07:52:23.8	315.030	0.080	-0.540	0.230
2020/01/31 07:52:23.9	315.030	0.090	-0.540	0.230
2020/01/31 07:52:24.0	315.030	0.090	-0.530	0.240
2020/01/31 07:52:24.1	315.030	0.100	-0.530	0.240
2020/01/31 07:52:24.2	315.030	0.110	-0.530	0.250
2020/01/31 07:52:24.3	315.030	0.110	-0.540	0.250
2020/01/31 07:52:24.4	315.040	0.120	-0.540	0.250
2020/01/31 07:52:24.5	315.050	0.130	-0.550	0.240
2020/01/31 07:52:24.6	315.050	0.130	-0.550	0.240
2020/01/31 07:52:24.7	315.060	0.140	-0.560	0.230
2020/01/31 07:52:24.8	315.080	0.140	-0.570	0.220
2020/01/31 07:52:24.9	315.090	0.150	-0.580	0.210
2020/01/31 07:52:25.0	315.100	0.160	-0.590	0.190
2020/01/31 07:52:25.1	315.120	0.160	-0.600	0.170
2020/01/31 07:52:25.2	315.130	0.160	-0.610	0.150
2020/01/31 07:52:25.3	315.160	0.170	-0.620	0.130
2020/01/31 07:52:25.4	315.180	0.170	-0.630	0.110
2020/01/31 07:52:25.5	315.200	0.170	-0.640	0.090
2020/01/31 07:52:25.6	315.220	0.170	-0.640	0.060
2020/01/31 07:52:25.7	315.230	0.170	-0.640	0.040
2020/01/31 07:52:25.8	315.250	0.170	-0.640	0.010
2020/01/31 07:52:25.9	315.270	0.170	-0.640	-0.010
2020/01/31 07:52:26.0	315.290	0.170	-0.630	-0.040
2020/01/31 07:52:26.1	315.310	0.160	-0.620	-0.060
2020/01/31 07:52:26.2	315.340	0.160	-0.610	-0.080
2020/01/31 07:52:26.3	315.350	0.150	-0.590	-0.110
2020/01/31 07:52:26.4	315.370	0.140	-0.570	-0.130
2020/01/31 07:52:26.5	315.390	0.140	-0.550	-0.150
2020/01/31 07:52:26.6	315.410	0.130	-0.520	-0.170
2020/01/31 07:52:26.7	315.430	0.120	-0.490	-0.190
2020/01/31 07:52:26.8	315.440	0.100	-0.450	-0.210
2020/01/31 07:52:26.9	315.460	0.090	-0.410	-0.230
2020/01/31 07:52:27.0	315.480	0.080	-0.370	-0.240
2020/01/31 07:52:27.1	315.490	0.060	-0.320	-0.260
2020/01/31 07:52:27.2	315.510	0.040	-0.270	-0.270
2020/01/31 07:52:27.3	315.520	0.030	-0.220	-0.280
2020/01/31 07:52:27.4	315.530	0.010	-0.160	-0.280
2020/01/31 07:52:27.5	315.540	-0.010	-0.110	-0.290
2020/01/31 07:52:27.6	315.550	-0.030	-0.050	-0.290
2020/01/31 07:52:27.7	315.550	-0.050	0.010	-0.290
2020/01/31 07:52:27.8	315.560	-0.060	0.070	-0.280
2020/01/31 07:52:27.9	315.560	-0.080	0.130	-0.280
2020/01/31 07:52:28.0	315.560	-0.100	0.190	-0.270
2020/01/31 07:52:28.1	315.560	-0.120	0.250	-0.260
2020/01/31 07:52:28.2	315.560	-0.140	0.310	-0.250
2020/01/31 07:52:28.3	315.550	-0.160	0.370	-0.230
2020/01/31 07:52:28.4	315.550	-0.180	0.420	-0.220
2020/01/31 07:52:28.5	315.540	-0.190	0.480	-0.200
2020/01/31 07:52:28.6	315.530	-0.210	0.530	-0.180
2020/01/31 07:52:28.7	315.510	-0.220	0.580	-0.150
2020/01/31 07:52:28.8	315.500	-0.240	0.630	-0.130
2020/01/31 07:52:28.9	315.480	-0.250	0.670	-0.100
2020/01/31 07:52:29.0	315.460	-0.260	0.710	-0.070
2020/01/31 07:52:29.1	315.440	-0.270	0.750	-0.040
2020/01/31 07:52:29.2	315.420	-0.280	0.780	-0.010
2020/01/31 07:52:29.3	315.400	-0.290	0.810	0.020
2020/01/31 07:52:29.4	315.370	-0.300	0.840	0.050
2020/01/31 07:52:29.5	315.350	-0.300	0.860	0.090
2020/01/31 07:52:29.6	315.320	-0.310	0.880	0.120
2020/01/31 07:52:29.7	315.290	-0.310	0.890	0.150
2020/01/31 07:52:29.8	315.260	-0.310	0.900	0.190
2020/01/31 07:52:29.9	315.230	-0.310	0.900	0.220
2020/01/31 07:52:30.0	315.200	-0.310	0.900	0.250
2020/01/31 07:52:30.1	315.170	-0.300	0.900	0.280
2020/01/31 07:52:30.2	315.130	-0.300	0.890	0.310
2020/01/31 07:52:30.3	315.100	-0.290	0.880	0.340
2020/01/31 07:52:30.4	315.070	-0.280	0.860	0.360
2020/01/31 07:52:30.5	315.030	-0.270	0.840	0.390
2020/01/31 07:52:30.6	315.000	-0.260	0.820	0.420
2020/01/31 07:52:30.7	314.960	-0.250	0.790	0.440
2020/01/31 07:52:30.8	314.930	-0.240	0.750	0.460
2020/01/31 07:52:30.9	314.900	-0.230	0.720	0.490
2020/01/31 07:52:31.0	314.860	-0.210	0.680	0.510
2020/01/31 07:52:31.1	314.830	-0.200	0.630	0.520
2020/01/31 07:52:31.2	314.800	-0.180	0.590	0.540
2020/01/31 07:52:31.3	314.780	-0.170	0.540	0.550
2020/01/31 07:52:31.4	314.740	-0.150	0.480	0.560
2020/01/31 07:52:31.5	314.710	-0.130	0.430	0.570
2020/01/31 07:52:31.6	314.680	-0.110	0.370	0.570
2020/01/31 07:52:31.7	314.660	-0.100	0.300	0.580
2020/01/31 07:52:31.8	314.630	-0.080	0.240	0.580
2020/01/31 07:52:31.9	314.600	-0.060	0.170	0.580
2020/01/31 07:52:32.0	314.580	-0.040	0.100	0.580
2020/01/31 07:52:32.1	314.550	-0.020	0.030	0.580
2020/01/31 07:52:32.2	314.530	-0.010	-0.040	0.570
2020/01/31 07:52:32.3	314.520	0.010	-0.120	0.560
2020/01/31 07:52:32.4	314.500	0.030	-0.190	0.560
2020/01/31 07:52:32.5	314.480	0.040	-0.260	0.550
2020/01/31 07:52:32.6	314.460	0.060	-0.340	0.550
2020/01/31 07:52:32.7	314.440	0.070	-0.410	0.540
2020/01/31 07:52:32.8	314.420	0.090	-0.490	0.530
2020/01/31 07:52:32.9	314.410	0.100	-0.560	0.530
2020/01/31 07:52:33.0	314.400	0.110	-0.630	0.520
2020/01/31 07:52:33.1	314.390	0.120	-0.710	0.510
2020/01/31 07:52:33.2	314.380	0.140	-0.780	0.500
2020/01/31 07:52:33.3	314.360	0.150	-0.840	0.490
2020/01/31 07:52:33.4	314.350	0.160	-0.910	0.480
2020/01/31 07:52:33.5	314.350	0.170	-0.970	0.470
2020/01/31 07:52:33.6	314.340	0.170	-1.030	0.460
2020/01/31 07:52:33.7	314.340	0.180	-1.090	0.450
2020/01/31 07:52:33.8	314.350	0.190	-1.140	0.440
2020/01/31 07:52:33.9	314.350	0.200	-1.190	0.430
2020/01/31 07:52:34.0	314.350	0.200	-1.230	0.420
2020/01/31 07:52:34.1	314.360	0.210	-1.280	0.400
2020/01/31 07:52:34.2	314.370	0.210	-1.310	0.390
2020/01/31 07:52:34.3	314.360	0.220	-1.350	0.370
2020/01/31 07:52:34.4	314.370	0.220	-1.370	0.360
2020/01/31 07:52:34.5	314.390	0.230	-1.400	0.340
2020/01/31 07:52:34.6	314.400	0.230	-1.420	0.330
2020/01/31 07:52:34.7	314.410	0.230	-1.430	0.320
2020/01/31 07:52:34.8	314.430	0.240	-1.430	0.300
2020/01/31 07:52:34.9	314.440	0.240	-1.440	0.290
2020/01/31 07:52:35.0	314.460	0.240	-1.430	0.270
2020/01/31 07:52:35.1	314.480	0.240	-1.430	0.260
2020/01/31 07:52:35.2	314.490	0.240	-1.410	0.250
2020/01/31 07:52:35.3	314.500	0.230	-1.400	0.240
2020/01/31 07:52:35.4	314.520	0.230	-1.370	0.220
2020/01/31 07:52:35.5	314.540	0.220	-1.350	0.210
2020/01/31 07:52:35.6	314.550	0.220	-1.320	0.190
2020/01/31 07:52:35.7	314.570	0.210	-1.280	0.180
2020/01/31 07:52:35.8	314.580	0.200	-1.240	0.170
2020/01/31 07:52:35.9	314.590	0.190	-1.200	0.160
2020/01/31 07:52:36.0	314.610	0.180	-1.150	0.150
2020/01/31 07:52:36.1	314.620	0.160	-1.100	0.140
2020/01/31 07:52:36.2	314.630	0.150	-1.050	0.130
2020/01/31 07:52:36.3	314.630	0.130	-0.990	0.120
2020/01/31 07:52:36.4	314.640	0.120	-0.940	0.120
2020/01/31 07:52:36.5	314.650	0.100	-0.880	0.110
2020/01/31 07:52:36.6	314.650	0.080	-0.820	0.110
2020/01/31 07:52:36.7	314.660	0.070	-0.760	0.100
2020/01/31 07:52:36.8	314.660	0.050	-0.700	0.100
2020/01/31 07:52:36.9	314.660	0.030	-0.640	0.100
2020/01/31 07:52:37.0	314.670	0.010	-0.570	0.100
2020/01/31 07:52:37.1	314.660	-0.010	-0.510	0.100
2020/01/31 07:52:37.2	314.660	-0.020	-0.450	0.110
2020/01/31 07:52:37.3	314.670	-0.040	-0.390	0.110
2020/01/31 07:52:37.4	314.660	-0.060	-0.330	0.120
2020/01/31 07:52:37.5	314.660	-0.070	-0.280	0.130
2020/01/31 07:52:37.6	314.650	-0.090	-0.220	0.130
2020/01/31 07:52:37.7	314.640	-0.100	-0.170	0.140
2020/01/31 07:52:37.8	314.640	-0.110	-0.120	0.150
2020/01/31 07:52:37.9	314.630	-0.120	-0.080	0.160
2020/01/31 07:52:38.0	314.620	-0.130	-0.030	0.180
2020/01/31 07:52:38.1	314.610	-0.140	0.010	0.190
2020/01/31 07:52:38.2	314.600	-0.140	0.040	0.200
2020/01/31 07:52:38.3	314.600	-0.150	0.080	0.220
2020/01/31 07:52:38.4	314.590	-0.150	0.100	0.230
2020/01/31 07:52:38.5	314.580	-0.150	0.130	0.250
2020/01/31 07:52:38.6	314.580	-0.150	0.150	0.260
2020/01/31 07:52:38.7	314.570	-0.150	0.170	0.280
2020/01/31 07:52:38.8	314.560	-0.140	0.180	0.300
2020/01/31 07:52:38.9	314.560	-0.140	0.190	0.310
2020/01/31 07:52:39.0	314.550	-0.130	0.200	0.330
2020/01/31 07:52:39.1	314.550	-0.120	0.200	0.350
2020/01/31 07:52:39.2	314.540	-0.110	0.200	0.360
2020/01/31 07:52:39.3	314.550	-0.100	0.200	0.380
2020/01/31 07:52:39.4	314.550	-0.090	0.200	0.400
2020/01/31 07:52:39.5	314.550	-0.080	0.190	0.420
2020/01/31 07:52:39.6	314.540	-0.060	0.190	0.430
2020/01/31 07:52:39.7	314.540	-0.050	0.190	0.450
2020/01/31 07:52:39.8	314.540	-0.040	0.180	0.470
2020/01/31 07:52:39.9	314.540	-0.030	0.180	0.490
2020/01/31 07:52:40.0	314.540	-0.010	0.170	0.510
2020/01/31 07:52:40.1	314.530	-0.000	0.170	0.530
2020/01/31 07:52:40.2	314.530	0.010	0.170	0.550
2020/01/31 07:52:40.3	314.520	0.020	0.180	0.570
2020/01/31 07:52:40.4	314.520	0.030	0.180	0.590
2020/01/31 07:52:40.5	314.510	0.050	0.190	0.620
2020/01/31 07:52:40.6	314.500	0.060	0.200	0.650
2020/01/31 07:52:40.7	314.490	0.070	0.210	0.680
2020/01/31 07:52:40.8	314.480	0.070	0.230	0.710
2020/01/31 07:52:40.9	314.470	0.080	0.250	0.740
2020/01/31 07:52:41.0	314.450	0.090	0.270	0.780
2020/01/31 07:52:41.1	314.430	0.100	0.290	0.810
2020/01/31 07:52:41.2	314.410	0.100	0.310	0.850
2020/01/31 07:52:41.3	314.400	0.110	0.340	0.890
2020/01/31 07:52:41.4	314.380	0.110	0.360	0.920
2020/01/31 07:52:41.5	314.350	0.120	0.390	0.960
2020/01/31 07:52:41.6	314.330	0.120	0.420	1.000
2020/01/31 07:52:41.7	314.310	0.120	0.440	1.030
2020/01/31 07:52:41.8	314.280	0.130	0.470	1.070
2020/01/31 07:52:41.9	314.260	0.130	0.490	1.100
2020/01/31 07:52:42.0	314.240	0.130	0.510	1.130
2020/01/31 07:52:42.1	314.210	0.130	0.530	1.160
2020/01/31 07:52:42.2	314.190	0.130	0.540	1.190
2020/01/31 07:52:42.3	314.170	0.140	0.550	1.210
2020/01/31 07:52:42.4	314.150	0.140	0.560	1.220
2020/01/31 07:52:42.5	314.130	0.140	0.560	1.240
2020/01/31 07:52:42.6	314.110	0.140	0.550	1.250
2020/01/31 07:52:42.7	314.090	0.150	0.540	1.260
2020/01/31 07:52:42.8	314.070	0.150	0.530	1.260
2020/01/31 07:52:42.9	314.050	0.150	0.510	1.260
2020/01/31 07:52:43.0	314.040	0.160	0.480	1.250
2020/01/31 07:52:43.1	314.020	0.160	0.460	1.240
2020/01/31 07:52:43.2	314.010	0.170	0.420	1.230
2020/01/31 07:52:43.3	313.990	0.170	0.380	1.210
2020/01/31 07:52:43.4	313.980	0.180	0.340	1.190
2020/01/31 07:52:43.5	313.970	0.180	0.290	1.160
2020/01/31 07:52:43.6	313.960	0.190	0.240	1.130
2020/01/31 07:52:43.7	313.960	0.190	0.190	1.100
2020/01/31 07:52:43.8	313.950	0.190	0.140	1.060
2020/01/31 07:52:43.9	313.950	0.200	0.080	1.020
2020/01/31 07:52:44.0	313.950	0.200	0.020	0.970
2020/01/31 07:52:44.1	313.940	0.200	-0.040	0.930
2020/01/31 07:52:44.2	313.940	0.210	-0.100	0.880
2020/01/31 07:52:44.3	313.950	0.210	-0.160	0.830
2020/01/31 07:52:44.4	313.950	0.210	-0.220	0.780
2020/01/31 07:52:44.5	313.940	0.210	-0.270	0.730
2020/01/31 07:52:44.6	313.940	0.200	-0.330	0.670
2020/01/31 07:52:44.7	313.940	0.200	-0.380	0.620
2020/01/31 07:52:44.8	313.940	0.200	-0.430	0.570
2020/01/31 07:52:44.9	313.940	0.190	-0.480	0.520
2020/01/31 07:52:45.0	313.940	0.180	-0.530	0.470
2020/01/31 07:52:45.1	313.940	0.170	-0.570	0.410
2020/01/31 07:52:45.2	313.940	0.160	-0.610	0.360
2020/01/31 07:52:45.3	313.940	0.150	-0.650	0.310
2020/01/31 07:52:45.4	313.940	0.140	-0.680	0.260
2020/01/31 07:52:45.5	313.940	0.130	-0.710	0.220
2020/01/31 07:52:45.6	313.940	0.110	-0.740	0.170
2020/01/31 07:52:45.7	313.940	0.100	-0.760	0.120
2020/01/31 07:52:45.8	313.940	0.080	-0.780	0.080
2020/01/31 07:52:45.9	313.950	0.060	-0.800	0.040
2020/01/31 07:52:46.0	313.950	0.050	-0.820	-0.010
2020/01/31 07:52:46.1	313.950	0.030	-0.830	-0.050
2020/01/31 07:52:46.2	313.960	0.010	-0.840	-0.080
2020/01/31 07:52:46.3	313.950	-0.010	-0.850	-0.120
2020/01/31 07:52:46.4	313.950	-0.020	-0.860	-0.160
2020/01/31 07:52:46.5	313.960	-0.040	-0.860	-0.190
2020/01/31 07:52:46.6	313.970	-0.060	-0.870	-0.220
2020/01/31 07:52:46.7	313.970	-0.070	-0.870	-0.250
2020/01/31 07:52:46.8	313.980	-0.090	-0.870	-0.280
2020/01/31 07:52:46.9	313.980	-0.100	-0.870	-0.300
2020/01/31 07:52:47.0	313.990	-0.110	-0.860	-0.330
2020/01/31 07:52:47.1	314.000	-0.120	-0.860	-0.350
2020/01/31 07:52:47.2	314.010	-0.130	-0.860	-0.360
2020/01/31 07:52:47.3	314.010	-0.140	-0.850	-0.380
2020/01/31 07:52:47.4	314.020	-0.150	-0.850	-0.400
2020/01/31 07:52:47.5	314.030	-0.150	-0.840	-0.410
2020/01/31 07:52:47.6	314.040	-0.160	-0.840	-0.420
2020/01/31 07:52:47.7	314.050	-0.160	-0.830	-0.440
2020/01/31 07:52:47.8	314.070	-0.160	-0.830	-0.450
2020/01/31 07:52:47.9	314.080	-0.160	-0.820	-0.460
2020/01/31 07:52:48.0	314.100	-0.160	-0.810	-0.460
2020/01/31 07:52:48.1	314.120	-0.160	-0.810	-0.470
2020/01/31 07:52:48.2	314.140	-0.160	-0.800	-0.480
2020/01/31 07:52:48.3	314.150	-0.160	-0.800	-0.480
2020/01/31 07:52:48.4	314.180	-0.160	-0.790	-0.490
2020/01/31 07:52:48.5	314.200	-0.160	-0.780	-0.490
2020/01/31 07:52:48.6	314.220	-0.160	-0.770	-0.500
2020/01/31 07:52:48.7	314.250	-0.150	-0.750	-0.500
2020/01/31 07:52:48.8	314.270	-0.150	-0.740	-0.500
2020/01/31 07:52:48.9	314.290	-0.150	-0.720	-0.490
2020/01/31 07:52:49.0	314.320	-0.150	-0.700	-0.490
2020/01/31 07:52:49.1	314.340	-0.150	-0.680	-0.480
2020/01/31 07:52:49.2	314.370	-0.150	-0.660	-0.470
2020/01/31 07:52:49.3	314.390	-0.150	-0.620	-0.460
2020/01/31 07:52:49.4	314.410	-0.160	-0.590	-0.440
2020/01/31 07:52:49.5	314.430	-0.160	-0.560	-0.420
2020/01/31 07:52:49.6	314.440	-0.160	-0.530	-0.390
2020/01/31 07:52:49.7	314.460	-0.170	-0.490	-0.370
2020/01/31 07:52:49.8	314.470	-0.170	-0.450	-0.340
2020/01/31 07:52:49.9	314.490	-0.180	-0.410	-0.300
2020/01/31 07:52:50.0	314.500	-0.190	-0.360	-0.270
2020/01/31 07:52:50.1	314.510	-0.190	-0.310	-0.230
2020/01/31 07:52:50.2	314.520	-0.200	-0.260	-0.190
2020/01/31 07:52:50.3	314.530	-0.210	-0.220	-0.140
2020/01/31 07:52:50.4	314.540	-0.210	-0.170	-0.100
2020/01/31 07:52:50.5	314.540	-0.220	-0.110	-0.050
2020/01/31 07:52:50.6	314.540	-0.230	-0.060	0.000
2020/01/31 07:52:50.7	314.540	-0.230	-0.000	0.050
2020/01/31 07:52:50.8	314.540	-0.240	0.050	0.110
2020/01/31 07:52:50.9	314.540	-0.240	0.100	0.160
2020/01/31 07:52:51.0	314.540	-0.240	0.160	0.220
2020/01/31 07:52:51.1	314.530	-0.250	0.210	0.270
2020/01/31 07:52:51.2	314.520	-0.250	0.260	0.330
2020/01/31 07:52:51.3	314.520	-0.250	0.310	0.390
2020/01/31 07:52:51.4	314.510	-0.240	0.350	0.450
2020/01/31 07:52:51.5	314.500	-0.240	0.400	0.510
2020/01/31 07:52:51.6	314.490	-0.230	0.430	0.560
2020/01/31 07:52:51.7	314.470	-0.220	0.470	0.620
2020/01/31 07:52:51.8	314.460	-0.210	0.500	0.680
2020/01/31 07:52:51.9	314.440	-0.200	0.520	0.740
2020/01/31 07:52:52.0	314.420	-0.190	0.540	0.790
2020/01/31 07:52:52.1	314.400	-0.170	0.550	0.850
2020/01/31 07:52:52.2	314.380	-0.150	0.560	0.900
2020/01/31 07:52:52.3	314.360	-0.130	0.560	0.960
2020/01/31 07:52:52.4	314.330	-0.110	0.560	1.010
2020/01/31 07:52:52.5	314.310	-0.090	0.550	1.060
2020/01/31 07:52:52.6	314.280	-0.060	0.540	1.100
2020/01/31 07:52:52.7	314.250	-0.030	0.520	1.140
2020/01/31 07:52:52.8	314.230	-0.010	0.490	1.190
2020/01/31 07:52:52.9	314.200	0.020	0.460	1.220
2020/01/31 07:52:53.0	314.180	0.050	0.430	1.260
2020/01/31 07:52:53.1	314.150	0.090	0.390	1.290
2020/01/31 07:52:53.2	314.120	0.120	0.350	1.310
2020/01/31 07:52:53.3	314.110	0.150	0.310	1.330
2020/01/31 07:52:53.4	314.090	0.180	0.260	1.340
2020/01/31 07:52:53.5	314.070	0.220	0.210	1.350
2020/01/31 07:52:53.6	314.040	0.250	0.160	1.360
2020/01/31 07:52:53.7	314.020	0.280	0.100	1.360
2020/01/31 07:52:53.8	314.000	0.310	0.050	1.360
2020/01/31 07:52:53.9	313.980	0.340	-0.010	1.350
2020/01/31 07:52:54.0	313.960	0.370	-0.060	1.340
2020/01/31 07:52:54.1	313.940	0.400	-0.120	1.330
2020/01/31 07:52:54.2	313.920	0.430	-0.170	1.310
2020/01/31 07:52:54.3	313.900	0.450	-0.230	1.290
2020/01/31 07:52:54.4	313.880	0.480	-0.270	1.270
2020/01/31 07:52:54.5	313.860	0.500	-0.320	1.240
2020/01/31 07:52:54.6	313.850	0.510	-0.360	1.210
2020/01/31 07:52:54.7	313.830	0.530	-0.400	1.180
2020/01/31 07:52:54.8	313.810	0.540	-0.440	1.150
2020/01/31 07:52:54.9	313.790	0.550	-0.470	1.110
2020/01/31 07:52:55.0	313.780	0.560	-0.490	1.070
2020/01/31 07:52:55.1	313.760	0.560	-0.520	1.030
2020/01/31 07:52:55.2	313.750	0.560	-0.540	0.980
2020/01/31 07:52:55.3	313.720	0.560	-0.550	0.930
2020/01/31 07:52:55.4	313.710	0.550	-0.560	0.880
2020/01/31 07:52:55.5	313.700	0.540	-0.570	0.830
2020/01/31 07:52:55.6	313.690	0.530	-0.580	0.780
2020/01/31 07:52:55.7	313.680	0.510	-0.580	0.720
2020/01/31 07:52:55.8	313.670	0.490	-0.570	0.660
2020/01/31 07:52:55.9	313.670	0.470	-0.570	0.610
2020/01/31 07:52:56.0	313.670	0.450	-0.560	0.550
2020/01/31 07:52:56.1	313.670	0.420	-0.550	0.480
2020/01/31 07:52:56.2	313.670	0.400	-0.540	0.420
2020/01/31 07:52:56.3	313.660	0.370	-0.540	0.350
2020/01/31 07:52:56.4	313.670	0.340	-0.520	0.290
2020/01/31 07:52:56.5	313.680	0.310	-0.510	0.230
2020/01/31 07:52:56.6	313.690	0.280	-0.500	0.160
2020/01/31 07:52:56.7	313.710	0.250	-0.490	0.090
2020/01/31 07:52:56.8	313.720	0.220	-0.470	0.030
2020/01/31 07:52:56.9	313.740	0.190	-0.460	-0.040
2020/01/31 07:52:57.0	313.770	0.160	-0.450	-0.100
2020/01/31 07:52:57.1	313.790	0.130	-0.440	-0.160
2020/01/31 07:52:57.2	313.820	0.100	-0.430	-0.230
2020/01/31 07:52:57.3	313.840	0.070	-0.420	-0.290
2020/01/31 07:52:57.4	313.870	0.050	-0.420	-0.360
2020/01/31 07:52:57.5	313.900	0.030	-0.410	-0.420
2020/01/31 07:52:57.6	313.930	0.010	-0.410	-0.480
2020/01/31 07:52:57.7	313.970	-0.010	-0.410	-0.540
2020/01/31 07:52:57.8	314.000	-0.030	-0.410	-0.590
2020/01/31 07:52:57.9	314.040	-0.050	-0.410	-0.650
2020/01/31 07:52:58.0	314.070	-0.060	-0.410	-0.700
2020/01/31 07:52:58.1	314.110	-0.070	-0.410	-0.750
2020/01/31 07:52:58.2	314.150	-0.080	-0.420	-0.790
2020/01/31 07:52:58.3	314.180	-0.090	-0.420	-0.830
2020/01/31 07:52:58.4	314.220	-0.090	-0.430	-0.870
2020/01/31 07:52:58.5	314.250	-0.090	-0.430	-0.900
2020/01/31 07:52:58.6	314.280	-0.090	-0.430	-0.920
2020/01/31 07:52:58.7	314.310	-0.090	-0.430	-0.940
2020/01/31 07:52:58.8	314.340	-0.090	-0.430	-0.960
2020/01/31 07:52:58.9	314.370	-0.090	-0.430	-0.970
2020/01/31 07:52:59.0	314.400	-0.080	-0.430	-0.970
2020/01/31 07:52:59.1	314.420	-0.080	-0.420	-0.970
2020/01/31 07:52:59.2	314.440	-0.070	-0.420	-0.960
2020/01/31 07:52:59.3	314.460	-0.070	-0.410	-0.950
2020/01/31 07:52:59.4	314.470	-0.060	-0.400	-0.930
2020/01/31 07:52:59.5	314.490	-0.050	-0.380	-0.900
2020/01/31 07:52:59.6	314.500	-0.050	-0.370	-0.880
2020/01/31 07:52:59.7	314.510	-0.040	-0.350	-0.840
2020/01/31 07:52:59.8	314.510	-0.030	-0.330	-0.810
2020/01/31 07:52:59.9	314.520	-0.030	-0.310	-0.770
2020/01/31 07:53:00.0	314.520	-0.020	-0.290	-0.730
2020/01/31 07:53:00.1	314.520	-0.020	-0.270	-0.680
2020/01/31 07:53:00.2	314.520	-0.010	-0.250	-0.640
2020/01/31 07:53:00.3	314.510	-0.010	-0.220	-0.590
2020/01/31 07:53:00.4	314.510	-0.010	-0.200	-0.540
2020/01/31 07:53:00.5	314.500	-0.010	-0.170	-0.490
2020/01/31 07:53:00.6	314.500	-0.010	-0.150	-0.430
2020/01/31 07:53:00.7	314.490	-0.020	-0.120	-0.380
2020/01/31 07:53:00.8	314.480	-0.020	-0.100	-0.330
2020/01/31 07:53:00.9	314.470	-0.030	-0.070	-0.270
2020/01/31 07:53:01.0	314.460	-0.040	-0.050	-0.220
2020/01/31 07:53:01.1	314.440	-0.050	-0.030	-0.160
2020/01/31 07:53:01.2	314.430	-0.060	-0.010	-0.110
2020/01/31 07:53:01.3	314.410	-0.080	0.010	-0.060
2020/01/31 07:53:01.4	314.400	-0.090	0.030	-0.010
2020/01/31 07:53:01.5	314.380	-0.110	0.050	0.040
2020/01/31 07:53:01.6	314.370	-0.130	0.060	0.090
2020/01/31 07:53:01.7	314.350	-0.150	0.080	0.140
2020/01/31 07:53:01.8	314.330	-0.170	0.090	0.190
2020/01/31 07:53:01.9	314.310	-0.190	0.100	0.230
2020/01/31 07:53:02.0	314.290	-0.210	0.110	0.280
2020/01/31 07:53:02.1	314.270	-0.240	0.120	0.320
2020/01/31 07:53:02.2	314.240	-0.260	0.130	0.360
2020/01/31 07:53:02.3	314.220	-0.280	0.150	0.400
2020/01/31 07:53:02.4	314.190	-0.300	0.160	0.440
2020/01/31 07:53:02.5	314.170	-0.330	0.170	0.470
2020/01/31 07:53:02.6	314.140	-0.350	0.170	0.510
2020/01/31 07:53:02.7	314.110	-0.370	0.180	0.540
2020/01/31 07:53:02.8	314.080	-0.390	0.190	0.570
2020/01/31 07:53:02.9	314.050	-0.400	0.200	0.600
2020/01/31 07:53:03.0	314.020	-0.420	0.210	0.630
2020/01/31 07:53:03.1	313.990	-0.440	0.210	0.660
2020/01/31 07:53:03.2	313.960	-0.450	0.220	0.680
2020/01/31 07:53:03.3	313.920	-0.460	0.220	0.710
2020/01/31 07:53:03.4	313.890	-0.470	0.220	0.730
2020/01/31 07:53:03.5	313.860	-0.470	0.220	0.750
2020/01/31 07:53:03.6	313.830	-0.470	0.220	0.760
2020/01/31 07:53:03.7	313.800	-0.470	0.220	0.780
2020/01/31 07:53:03.8	313.770	-0.470	0.210	0.790
2020/01/31 07:53:03.9	313.740	-0.470	0.200	0.800
2020/01/31 07:53:04.0	313.720	-0.460	0.190	0.800
2020/01/31 07:53:04.1	313.690	-0.450	0.170	0.810
2020/01/31 07:53:04.2	313.670	-0.430	0.150	0.810
2020/01/31 07:53:04.3	313.650	-0.420	0.130	0.810
2020/01/31 07:53:04.4	313.620	-0.400	0.100	0.800
2020/01/31 07:53:04.5	313.600	-0.370	0.070	0.800
2020/01/31 07:53:04.6	313.590	-0.350	0.040	0.790
2020/01/31 07:53:04.7	313.570	-0.320	0.000	0.780
2020/01/31 07:53:04.8	313.550	-0.290	-0.030	0.770
2020/01/31 07:53:04.9	313.540	-0.260	-0.070	0.760
2020/01/31 07:53:05.0	313.520	-0.220	-0.120	0.750
2020/01/31 07:53:05.1	313.510	-0.190	-0.160	0.740
2020/01/31 07:53:05.2	313.500	-0.150	-0.210	0.730
2020/01/31 07:53:05.3	313.490	-0.110	-0.250	0.710
2020/01/31 07:53:05.4	313.490	-0.070	-0.300	0.690
2020/01/31 07:53:05.5	313.480	-0.040	-0.350	0.680
2020/01/31 07:53:05.6	313.470	0.000	-0.400	0.660
2020/01/31 07:53:05.7	313.470	0.040	-0.450	0.650
2020/01/31 07:53:05.8	313.470	0.080	-0.490	0.630
2020/01/31 07:53:05.9	313.470	0.120	-0.540	0.610
2020/01/31 07:53:06.0	313.470	0.160	-0.580	0.600
2020/01/31 07:53:06.1	313.470	0.200	-0.630	0.580
2020/01/31 07:53:06.2	313.480	0.240	-0.670	0.570
2020/01/31 07:53:06.3	313.480	0.270	-0.710	0.550
2020/01/31 07:53:06.4	313.490	0.300	-0.740	0.530
2020/01/31 07:53:06.5	313.490	0.330	-0.780	0.520
2020/01/31 07:53:06.6	313.500	0.360	-0.810	0.500
2020/01/31 07:53:06.7	313.520	0.390	-0.830	0.480
2020/01/31 07:53:06.8	313.530	0.410	-0.860	0.470
2020/01/31 07:53:06.9	313.540	0.430	-0.880	0.450
2020/01/31 07:53:07.0	313.560	0.450	-0.890	0.430
2020/01/31 07:53:07.1	313.570	0.470	-0.900	0.420
2020/01/31 07:53:07.2	313.590	0.480	-0.910	0.400
2020/01/31 07:53:07.3	313.600	0.490	-0.920	0.380
2020/01/31 07:53:07.4	313.620	0.500	-0.920	0.360
2020/01/31 07:53:07.5	313.640	0.500	-0.920	0.340
2020/01/31 07:53:07.6	313.660	0.500	-0.910	0.310
2020/01/31 07:53:07.7	313.680	0.500	-0.910	0.290
2020/01/31 07:53:07.8	313.700	0.490	-0.890	0.270
2020/01/31 07:53:07.9	313.720	0.490	-0.880	0.250
2020/01/31 07:53:08.0	313.740	0.480	-0.860	0.230
2020/01/31 07:53:08.1	313.760	0.470	-0.840	0.210
2020/01/31 07:53:08.2	313.780	0.450	-0.820	0.190
2020/01/31 07:53:08.3	313.800	0.430	-0.790	0.170
2020/01/31 07:53:08.4	313.810	0.420	-0.760	0.150
2020/01/31 07:53:08.5	313.830	0.400	-0.730	0.130
2020/01/31 07:53:08.6	313.850	0.380	-0.700	0.110
2020/01/31 07:53:08.7	313.870	0.360	-0.660	0.100
2020/01/31 07:53:08.8	313.880	0.330	-0.620	0.090
2020/01/31 07:53:08.9	313.900	0.310	-0.580	0.070
2020/01/31 07:53:09.0	313.910	0.290	-0.540	0.060
2020/01/31 07:53:09.1	313.930	0.270	-0.490	0.050
2020/01/31 07:53:09.2	313.940	0.240	-0.450	0.040
2020/01/31 07:53:09.3	313.940	0.220	-0.400	0.030
2020/01/31 07:53:09.4	313.960	0.200	-0.350	0.030
2020/01/31 07:53:09.5	313.970	0.180	-0.300	0.020
2020/01/31 07:53:09.6	313.980	0.160	-0.250	0.020
2020/01/31 07:53:09.7	313.990	0.140	-0.210	0.010
2020/01/31 07:53:09.8	314.010	0.120	-0.160	0.010
2020/01/31 07:53:09.9	314.020	0.110	-0.120	0.010
2020/01/31 07:53:10.0	314.030	0.090	-0.070	0.000
2020/01/31 07:53:10.1	314.050	0.080	-0.030	0.000
2020/01/31 07:53:10.2	314.060	0.070	0.010	0.000
2020/01/31 07:53:10.3	314.080	0.060	0.040	-0.000
2020/01/31 07:53:10.4	314.090	0.050	0.070	-0.000
2020/01/31 07:53:10.5	314.110	0.040	0.100	-0.000
2020/01/31 07:53:10.6	314.120	0.030	0.130	-0.000
2020/01/31 07:53:10.7	314.130	0.020	0.150	-0.000
2020/01/31 07:53:10.8	314.140	0.020	0.180	0.000
2020/01/31 07:53:10.9	314.150	0.010	0.190	0.000
2020/01/31 07:53:11.0	314.160	0.010	0.210	0.010
2020/01/31 07:53:11.1	314.170	0.000	0.220	0.010
2020/01/31 07:53:11.2	314.180	-0.000	0.230	0.020
2020/01/31 07:53:11.3	314.190	-0.000	0.230	0.030
2020/01/31 07:53:11.4	314.190	-0.010	0.230	0.040
2020/01/31 07:53:11.5	314.200	-0.010	0.230	0.050
2020/01/31 07:53:11.6	314.200	-0.010	0.230	0.060
2020/01/31 07:53:11.7	314.200	-0.020	0.230	0.070
2020/01/31 07:53:11.8	314.200	-0.020	0.220	0.080
2020/01/31 07:53:11.9	314.200	-0.020	0.210	0.100
2020/01/31 07:53:12.0	314.190	-0.030	0.200	0.120
2020/01/31 07:53:12.1	314.190	-0.030	0.190	0.130
2020/01/31 07:53:12.2	314.180	-0.030	0.180	0.150
2020/01/31 07:53:12.3	314.180	-0.040	0.170	0.170
2020/01/31 07:53:12.4	314.170	-0.040	0.150	0.190
2020/01/31 07:53:12.5	314.160	-0.050	0.140	0.220
2020/01/31 07:53:12.6	314.150	-0.060	0.130	0.240
2020/01/31 07:53:12.7	314.130	-0.060	0.110	0.260
2020/01/31 07:53:12.8	314.120	-0.070	0.100	0.290
2020/01/31 07:53:12.9	314.100	-0.080	0.080	0.310
2020/01/31 07:53:13.0	314.090	-0.080	0.070	0.340
2020/01/31 07:53:13.1	314.070	-0.090	0.050	0.370
2020/01/31 07:53:13.2	314.050	-0.100	0.040	0.390
2020/01/31 07:53:13.3	314.020	-0.100	0.030	0.420
2020/01/31 07:53:13.4	314.010	-0.110	0.020	0.440
2020/01/31 07:53:13.5	313.990	-0.120	0.010	0.470
2020/01/31 07:53:13.6	313.970	-0.130	-0.000	0.490
2020/01/31 07:53:13.7	313.950	-0.130	-0.020	0.520
2020/01/31 07:53:13.8	313.930	-0.140	-0.030	0.540
2020/01/31 07:53:13.9	313.910	-0.150	-0.040	0.560
2020/01/31 07:53:14.0	313.890	-0.150	-0.050	0.580
2020/01/31 07:53:14.1	313.870	-0.160	-0.070	0.590
2020/01/31 07:53:14.2	313.850	-0.160	-0.080	0.610
2020/01/31 07:53:14.3	313.840	-0.170	-0.090	0.620
2020/01/31 07:53:14.4	313.820	-0.170	-0.100	0.630
2020/01/31 07:53:14.5	313.800	-0.170	-0.120	0.640
2020/01/31 07:53:14.6	313.780	-0.180	-0.130	0.640
2020/01/31 07:53:14.7	313.770	-0.180	-0.140	0.650
2020/01/31 07:53:14.8	313.750	-0.180	-0.150	0.650
2020/01/31 07:53:14.9	313.730	-0.180	-0.170	0.640
2020/01/31 07:53:15.0	313.710	-0.180	-0.180	0.640
2020/01/31 07:53:15.1	313.690	-0.170	-0.190	0.630
2020/01/31 07:53:15.2	313.680	-0.170	-0.210	0.620
2020/01/31 07:53:15.3	313.660	-0.170	-0.220	0.610
2020/01/31 07:53:15.4	313.650	-0.160	-0.230	0.600
2020/01/31 07:53:15.5	313.640	-0.150	-0.240	0.580
2020/01/31 07:53:15.6	313.620	-0.150	-0.260	0.560
2020/01/31 07:53:15.7	313.610	-0.140	-0.270	0.540
2020/01/31 07:53:15.8	313.600	-0.130	-0.280	0.520
2020/01/31 07:53:15.9	313.590	-0.120	-0.290	0.500
2020/01/31 07:53:16.0	313.590	-0.110	-0.300	0.470
2020/01/31 07:53:16.1	313.580	-0.100	-0.310	0.440
2020/01/31 07:53:16.2	313.580	-0.090	-0.330	0.420
2020/01/31 07:53:16.3	313.570	-0.070	-0.340	0.390
2020/01/31 07:53:16.4	313.570	-0.060	-0.350	0.360
2020/01/31 07:53:16.5	313.570	-0.050	-0.360	0.330
2020/01/31 07:53:16.6	313.580	-0.040	-0.370	0.290
2020/01/31 07:53:16.7	313.580	-0.020	-0.380	0.260
2020/01/31 07:53:16.8	313.590	-0.010	-0.390	0.230
2020/01/31 07:53:16.9	313.590	-0.000	-0.400	0.200
2020/01/31 07:53:17.0	313.600	0.010	-0.400	0.170
2020/01/31 07:53:17.1	313.600	0.020	-0.410	0.140
2020/01/31 07:53:17.2	313.610	0.030	-0.410	0.120
2020/01/31 07:53:17.3	313.610	0.040	-0.420	0.090
2020/01/31 07:53:17.4	313.620	0.040	-0.420	0.060
2020/01/31 07:53:17.5	313.620	0.050	-0.420	0.040
2020/01/31 07:53:17.6	313.630	0.050	-0.420	0.020
2020/01/31 07:53:17.7	313.640	0.050	-0.420	0.000
2020/01/31 07:53:17.8	313.640	0.050	-0.420	-0.020
2020/01/31 07:53:17.9	313.650	0.050	-0.410	-0.030
2020/01/31 07:53:18.0	313.650	0.050	-0.410	-0.050
2020/01/31 07:53:18.1	313.660	0.050	-0.400	-0.060
2020/01/31 07:53:18.2	313.660	0.040	-0.400	-0.070
2020/01/31 07:53:18.3	313.660	0.040	-0.390	-0.080
2020/01/31 07:53:18.4	313.660	0.030	-0.380	-0.090
2020/01/31 07:53:18.5	313.670	0.020	-0.370	-0.090
2020/01/31 07:53:18.6	313.670	0.010	-0.350	-0.100
2020/01/31 07:53:18.7	313.680	0.000	-0.340	-0.100
2020/01/31 07:53:18.8	313.680	-0.010	-0.330	-0.100
2020/01/31 07:53:18.9	313.680	-0.020	-0.310	-0.100
2020/01/31 07:53:19.0	313.690	-0.030	-0.300	-0.100
2020/01/31 07:53:19.1	313.690	-0.040	-0.280	-0.090
2020/01/31 07:53:19.2	313.700	-0.060	-0.270	-0.090
2020/01/31 07:53:19.3	313.700	-0.070	-0.250	-0.080
2020/01/31 07:53:19.4	313.700	-0.080	-0.240	-0.070
2020/01/31 07:53:19.5	313.710	-0.090	-0.230	-0.060
2020/01/31 07:53:19.6	313.720	-0.100	-0.220	-0.060
2020/01/31 07:53:19.7	313.720	-0.120	-0.210	-0.040
2020/01/31 07:53:19.8	313.730	-0.130	-0.200	-0.030
2020/01/31 07:53:19.9	313.740	-0.140	-0.200	-0.020
2020/01/31 07:53:20.0	313.750	-0.150	-0.190	-0.010
2020/01/31 07:53:20.1	313.750	-0.150	-0.190	0.000
2020/01/31 07:53:20.2	313.760	-0.160	-0.190	0.010
2020/01/31 07:53:20.3	313.780	-0.170	-0.200	0.020
2020/01/31 07:53:20.4	313.800	-0.170	-0.210	0.030
2020/01/31 07:53:20.5	313.810	-0.170	-0.210	0.040
2020/01/31 07:53:20.6	313.820	-0.180	-0.220	0.050
2020/01/31 07:53:20.7	313.830	-0.180	-0.230	0.060
2020/01/31 07:53:20.8	313.850	-0.170	-0.240	0.060
2020/01/31 07:53:20.9	313.870	-0.170	-0.260	0.070
2020/01/31 07:53:21.0	313.880	-0.170	-0.270	0.070
2020/01/31 07:53:21.1	313.900	-0.160	-0.290	0.080
2020/01/31 07:53:21.2	313.920	-0.160	-0.300	0.080
2020/01/31 07:53:21.3	313.920	-0.150	-0.320	0.080
2020/01/31 07:53:21.4	313.940	-0.140	-0.340	0.090
2020/01/31 07:53:21.5	313.960	-0.130	-0.360	0.090
2020/01/31 07:53:21.6	313.980	-0.120	-0.370	0.090
2020/01/31 07:53:21.7	314.000	-0.100	-0.390	0.100
2020/01/31 07:53:21.8	314.020	-0.090	-0.400	0.110
2020/01/31 07:53:21.9	314.030	-0.070	-0.420	0.110
2020/01/31 07:53:22.0	314.050	-0.060	-0.430	0.120
2020/01/31 07:53:22.1	314.070	-0.040	-0.440	0.130
2020/01/31 07:53:22.2	314.090	-0.020	-0.450	0.150
2020/01/31 07:53:22.3	314.100	-0.010	-0.450	0.160
2020/01/31 07:53:22.4	314.110	0.010	-0.460	0.180
2020/01/31 07:53:22.5	314.130	0.030	-0.460	0.200
2020/01/31 07:53:22.6	314.140	0.050	-0.460	0.230
2020/01/31 07:53:22.7	314.150	0.070	-0.460	0.260
2020/01/31 07:53:22.8	314.160	0.090	-0.450	0.290
2020/01/31 07:53:22.9	314.160	0.100	-0.450	0.320
2020/01/31 07:53:23.0	314.170	0.120	-0.440	0.350
2020/01/31 07:53:23.1	314.180	0.140	-0.430	0.380
2020/01/31 07:53:23.2	314.180	0.150	-0.420	0.420
2020/01/31 07:53:23.3	314.180	0.170	-0.400	0.460
2020/01/31 07:53:23.4	314.180	0.180	-0.390	0.500
2020/01/31 07:53:23.5	314.180	0.200	-0.380	0.540
2020/01/31 07:53:23.6	314.180	0.210	-0.360	0.570
2020/01/31 07:53:23.7	314.170	0.220	-0.340	0.610
2020/01/31 07:53:23.8	314.170	0.230	-0.320	0.650
2020/01/31 07:53:23.9	314.160	0.250	-0.310	0.690
2020/01/31 07:53:24.0	314.150	0.260	-0.290	0.720
2020/01/31 07:53:24.1	314.140	0.260	-0.270	0.760
2020/01/31 07:53:24.2	314.130	0.270	-0.250	0.790
2020/01/31 07:53:24.3	314.110	0.280	-0.230	0.820
2020/01/31 07:53:24.4	314.100	0.290	-0.200	0.850
2020/01/31 07:53:24.5	314.090	0.290	-0.180	0.880
2020/01/31 07:53:24.6	314.070	0.300	-0.160	0.910
2020/01/31 07:53:24.7	314.050	0.300	-0.140	0.940
2020/01/31 07:53:24.8	314.040	0.300	-0.120	0.960
2020/01/31 07:53:24.9	314.020	0.300	-0.100	0.980
2020/01/31 07:53:25.0	314.000	0.310	-0.080	1.000
2020/01/31 07:53:25.1	313.980	0.310	-0.060	1.020
2020/01/31 07:53:25.2	313.960	0.310	-0.040	1.040
2020/01/31 07:53:25.3	313.950	0.310	-0.030	1.050
2020/01/31 07:53:25.4	313.940	0.310	-0.010	1.070
2020/01/31 07:53:25.5	313.920	0.310	0.000	1.070
2020/01/31 07:53:25.6	313.900	0.310	0.020	1.080
2020/01/31 07:53:25.7	313.890	0.310	0.030	1.080
2020/01/31 07:53:25.8	313.870	0.310	0.040	1.070
2020/01/31 07:53:25.9	313.860	0.310	0.050	1.070
2020/01/31 07:53:26.0	313.850	0.310	0.050	1.060
2020/01/31 07:53:26.1	313.830	0.310	0.060	1.040
2020/01/31 07:53:26.2	313.820	0.310	0.060	1.030
2020/01/31 07:53:26.3	313.820	0.300	0.060	1.000
2020/01/31 07:53:26.4	313.810	0.300	0.060	0.980
2020/01/31 07:53:26.5	313.800	0.300	0.060	0.950
2020/01/31 07:53:26.6	313.800	0.300	0.050	0.930
2020/01/31 07:53:26.7	313.800	0.290	0.040	0.890
2020/01/31 07:53:26.8	313.800	0.290	0.040	0.860
2020/01/31 07:53:26.9	313.800	0.280	0.030	0.820
2020/01/31 07:53:27.0	313.800	0.280	0.020	0.780
2020/01/31 07:53:27.1	313.800	0.270	0.000	0.740
2020/01/31 07:53:27.2	313.810	0.260	-0.010	0.690
2020/01/31 07:53:27.3	313.820	0.260	-0.020	0.640
2020/01/31 07:53:27.4	313.830	0.250	-0.040	0.590
2020/01/31 07:53:27.5	313.840	0.230	-0.050	0.530
2020/01/31 07:53:27.6	313.850	0.220	-0.070	0.480
2020/01/31 07:53:27.7	313.860	0.210	-0.090	0.420
2020/01/31 07:53:27.8	313.870	0.190	-0.110	0.360
2020/01/31 07:53:27.9	313.880	0.170	-0.130	0.300
2020/01/31 07:53:28.0	313.900	0.150	-0.140	0.240
2020/01/31 07:53:28.1	313.910	0.130	-0.160	0.180
2020/01/31 07:53:28.2	313.920	0.110	-0.180	0.120
2020/01/31 07:53:28.3	313.930	0.090	-0.200	0.050
2020/01/31 07:53:28.4	313.950	0.060	-0.220	-0.010
2020/01/31 07:53:28.5	313.960	0.030	-0.240	-0.070
2020/01/31 07:53:28.6	313.970	0.010	-0.260	-0.120
2020/01/31 07:53:28.7	313.980	-0.020	-0.270	-0.180
2020/01/31 07:53:28.8	313.990	-0.050	-0.290	-0.230
2020/01/31 07:53:28.9	314.000	-0.080	-0.300	-0.280
2020/01/31 07:53:29.0	314.000	-0.110	-0.310	-0.330
2020/01/31 07:53:29.1	314.010	-0.150	-0.320	-0.380
2020/01/31 07:53:29.2	314.010	-0.180	-0.330	-0.420
2020/01/31 07:53:29.3	314.010	-0.210	-0.340	-0.460
2020/01/31 07:53:29.4	314.010	-0.240	-0.340	-0.500
2020/01/31 07:53:29.5	314.010	-0.270	-0.340	-0.530
2020/01/31 07:53:29.6	314.010	-0.300	-0.350	-0.560
2020/01/31 07:53:29.7	314.010	-0.330	-0.340	-0.590
2020/01/31 07:53:29.8	314.000	-0.360	-0.340	-0.610
2020/01/31 07:53:29.9	314.000	-0.390	-0.340	-0.630
2020/01/31 07:53:30.0	314.000	-0.420	-0.330	-0.650
2020/01/31 07:53:30.1	313.990	-0.450	-0.320	-0.660
2020/01/31 07:53:30.2	313.980	-0.470	-0.320	-0.670
2020/01/31 07:53:30.3	313.970	-0.490	-0.300	-0.680
2020/01/31 07:53:30.4	313.960	-0.510	-0.290	-0.690
2020/01/31 07:53:30.5	313.950	-0.530	-0.280	-0.690
2020/01/31 07:53:30.6	313.940	-0.550	-0.270	-0.690
2020/01/31 07:53:30.7	313.930	-0.560	-0.260	-0.680
2020/01/31 07:53:30.8	313.920	-0.570	-0.240	-0.670
2020/01/31 07:53:30.9	313.910	-0.580	-0.230	-0.660
2020/01/31 07:53:31.0	313.900	-0.580	-0.220	-0.650
2020/01/31 07:53:31.1	313.890	-0.580	-0.210	-0.640
2020/01/31 07:53:31.2	313.880	-0.580	-0.200	-0.620
2020/01/31 07:53:31.3	313.880	-0.580	-0.190	-0.600
2020/01/31 07:53:31.4	313.870	-0.570	-0.180	-0.580
2020/01/31 07:53:31.5	313.860	-0.560	-0.170	-0.560
2020/01/31 07:53:31.6	313.860	-0.550	-0.170	-0.540
2020/01/31 07:53:31.7	313.850	-0.540	-0.160	-0.510
2020/01/31 07:53:31.8	313.850	-0.520	-0.160	-0.480
2020/01/31 07:53:31.9	313.850	-0.500	-0.160	-0.460
2020/01/31 07:53:32.0	313.850	-0.480	-0.160	-0.430
2020/01/31 07:53:32.1	313.850	-0.450	-0.160	-0.400
2020/01/31 07:53:32.2	313.850	-0.420	-0.170	-0.370
2020/01/31 07:53:32.3	313.860	-0.390	-0.170	-0.340
2020/01/31 07:53:32.4	313.870	-0.360	-0.170	-0.300
2020/01/31 07:53:32.5	313.870	-0.330	-0.180	-0.270
2020/01/31 07:53:32.6	313.880	-0.300	-0.190	-0.240
2020/01/31 07:53:32.7	313.890	-0.260	-0.200	-0.200
2020/01/31 07:53:32.8	313.900	-0.220	-0.210	-0.160
2020/01/31 07:53:32.9	313.900	-0.190	-0.220	-0.120
2020/01/31 07:53:33.0	313.910	-0.150	-0.230	-0.090
2020/01/31 07:53:33.1	313.920	-0.120	-0.250	-0.050
2020/01/31 07:53:33.2	313.930	-0.080	-0.260	-0.000
2020/01/31 07:53:33.3	313.940	-0.040	-0.270	0.040
2020/01/31 07:53:33.4	313.950	-0.010	-0.290	0.080
2020/01/31 07:53:33.5	313.950	0.030	-0.300	0.130
2020/01/31 07:53:33.6	313.960	0.060	-0.310	0.170
2020/01/31 07:53:33.7	313.970	0.090	-0.330	0.210
2020/01/31 07:53:33.8	313.970	0.120	-0.340	0.260
2020/01/31 07:53:33.9	313.980	0.150	-0.350	0.310
2020/01/31 07:53:34.0	313.980	0.180	-0.360	0.350
2020/01/31 07:53:34.1	313.990	0.210	-0.370	0.400
2020/01/31 07:53:34.2	313.990	0.230	-0.370	0.440
2020/01/31 07:53:34.3	313.990	0.250	-0.380	0.490
2020/01/31 07:53:34.4	313.990	0.280	-0.380	0.530
2020/01/31 07:53:34.5	313.990	0.290	-0.390	0.580
2020/01/31 07:53:34.6	314.000	0.310	-0.390	0.620
2020/01/31 07:53:34.7	314.000	0.330	-0.390	0.660
2020/01/31 07:53:34.8	314.000	0.340	-0.390	0.700
2020/01/31 07:53:34.9	314.000	0.350	-0.390	0.750
2020/01/31 07:53:35.0	314.000	0.360	-0.390	0.790
2020/01/31 07:53:35.1	314.000	0.370	-0.380	0.820
2020/01/31 07:53:35.2	314.000	0.370	-0.380	0.860
2020/01/31 07:53:35.3	313.990	0.380	-0.370	0.900
2020/01/31 07:53:35.4	313.990	0.380	-0.360	0.930
2020/01/31 07:53:35.5	313.980	0.380	-0.350	0.960
2020/01/31 07:53:35.6	313.980	0.380	-0.340	0.990
2020/01/31 07:53:35.7	313.970	0.380	-0.330	1.020
2020/01/31 07:53:35.8	313.960	0.370	-0.310	1.040
2020/01/31 07:53:35.9	313.950	0.370	-0.300	1.060
2020/01/31 07:53:36.0	313.950	0.360	-0.280	1.080
2020/01/31 07:53:36.1	313.930	0.350	-0.270	1.090
2020/01/31 07:53:36.2	313.930	0.340	-0.250	1.100
2020/01/31 07:53:36.3	313.930	0.330	-0.230	1.110
2020/01/31 07:53:36.4	313.920	0.320	-0.220	1.110
2020/01/31 07:53:36.5	313.910	0.310	-0.200	1.110
2020/01/31 07:53:36.6	313.900	0.300	-0.180	1.100
2020/01/31 07:53:36.7	313.890	0.280	-0.170	1.090
2020/01/31 07:53:36.8	313.880	0.270	-0.160	1.070
2020/01/31 07:53:36.9	313.870	0.250	-0.150	1.050
2020/01/31 07:53:37.0	313.870	0.240	-0.140	1.030
2020/01/31 07:53:37.1	313.860	0.220	-0.130	1.000
2020/01/31 07:53:37.2	313.850	0.200	-0.120	0.970
2020/01/31 07:53:37.3	313.850	0.190	-0.120	0.940
2020/01/31 07:53:37.4	313.850	0.170	-0.120	0.900
2020/01/31 07:53:37.5	313.850	0.160	-0.120	0.850
2020/01/31 07:53:37.6	313.850	0.140	-0.120	0.810
2020/01/31 07:53:37.7	313.860	0.120	-0.120	0.760
2020/01/31 07:53:37.8	313.860	0.110	-0.130	0.710
2020/01/31 07:53:37.9	313.870	0.100	-0.140	0.650
2020/01/31 07:53:38.0	313.890	0.080	-0.150	0.600
2020/01/31 07:53:38.1	313.900	0.070	-0.160	0.540
2020/01/31 07:53:38.2	313.910	0.060	-0.170	0.480
2020/01/31 07:53:38.3	313.930	0.050	-0.180	0.420
2020/01/31 07:53:38.4	313.950	0.040	-0.190	0.350
2020/01/31 07:53:38.5	313.970	0.030	-0.200	0.290
2020/01/31 07:53:38.6	313.990	0.020	-0.210	0.230
2020/01/31 07:53:38.7	314.010	0.010	-0.230	0.170
2020/01/31 07:53:38.8	314.030	0.000	-0.240	0.120
2020/01/31 07:53:38.9	314.050	-0.010	-0.250	0.060
2020/01/31 07:53:39.0	314.070	-0.010	-0.260	0.010
2020/01/31 07:53:39.1	314.090	-0.020	-0.270	-0.040
2020/01/31 07:53:39.2	314.110	-0.020	-0.270	-0.090
2020/01/31 07:53:39.3	314.120	-0.030	-0.280	-0.140
2020/01/31 07:53:39.4	314.140	-0.030	-0.280	-0.180
2020/01/31 07:53:39.5	314.150	-0.040	-0.290	-0.210
2020/01/31 07:53:39.6	314.160	-0.040	-0.290	-0.250
2020/01/31 07:53:39.7	314.170	-0.040	-0.290	-0.280
2020/01/31 07:53:39.8	314.180	-0.050	-0.280	-0.300
2020/01/31 07:53:39.9	314.190	-0.050	-0.280	-0.320
2020/01/31 07:53:40.0	314.200	-0.050	-0.270	-0.340
2020/01/31 07:53:40.1	314.200	-0.050	-0.270	-0.350
2020/01/31 07:53:40.2	314.210	-0.060	-0.260	-0.360
2020/01/31 07:53:40.3	314.210	-0.060	-0.250	-0.370
2020/01/31 07:53:40.4	314.210	-0.060	-0.240	-0.370
2020/01/31 07:53:40.5	314.210	-0.060	-0.230	-0.370
2020/01/31 07:53:40.6	314.200	-0.060	-0.220	-0.360
2020/01/31 07:53:40.7	314.200	-0.060	-0.210	-0.350
2020/01/31 07:53:40.8	314.200	-0.060	-0.200	-0.340
2020/01/31 07:53:40.9	314.190	-0.060	-0.190	-0.330
2020/01/31 07:53:41.0	314.190	-0.070	-0.180	-0.310
2020/01/31 07:53:41.1	314.180	-0.070	-0.170	-0.290
2020/01/31 07:53:41.2	314.180	-0.070	-0.160	-0.270
2020/01/31 07:53:41.3	314.180	-0.070	-0.150	-0.250
2020/01/31 07:53:41.4	314.170	-0.070	-0.140	-0.220
2020/01/31 07:53:41.5	314.160	-0.070	-0.130	-0.200
2020/01/31 07:53:41.6	314.160	-0.070	-0.130	-0.170
2020/01/31 07:53:41.7	314.150	-0.070	-0.130	-0.140
2020/01/31 07:53:41.8	314.140	-0.070	-0.120	-0.110
2020/01/31 07:53:41.9	314.130	-0.070	-0.120	-0.070
2020/01/31 07:53:42.0	314.120	-0.070	-0.120	-0.040
2020/01/31 07:53:42.1	314.110	-0.070	-0.130	-0.000
2020/01/31 07:53:42.2	314.100	-0.060	-0.130	0.030
2020/01/31 07:53:42.3	314.080	-0.060	-0.130	0.070
2020/01/31 07:53:42.4	314.070	-0.060	-0.140	0.100
2020/01/31 07:53:42.5	314.050	-0.060	-0.150	0.140
2020/01/31 07:53:42.6	314.040	-0.050	-0.160	0.180
2020/01/31 07:53:42.7	314.030	-0.050	-0.160	0.220
2020/01/31 07:53:42.8	314.010	-0.050	-0.170	0.260
2020/01/31 07:53:42.9	314.000	-0.040	-0.180	0.290
2020/01/31 07:53:43.0	313.980	-0.040	-0.200	0.330
2020/01/31 07:53:43.1	313.970	-0.030	-0.210	0.370
2020/01/31 07:53:43.2	313.950	-0.030	-0.220	0.400
2020/01/31 07:53:43.3	313.940	-0.020	-0.230	0.430
2020/01/31 07:53:43.4	313.920	-0.020	-0.240	0.460
2020/01/31 07:53:43.5	313.910	-0.010	-0.260	0.490
2020/01/31 07:53:43.6	313.890	-0.010	-0.270	0.510
2020/01/31 07:53:43.7	313.880	-0.000	-0.280	0.530
2020/01/31 07:53:43.8	313.860	0.000	-0.290	0.550
2020/01/31 07:53:43.9	313.850	0.010	-0.310	0.570
2020/01/31 07:53:44.0	313.840	0.010	-0.320	0.580
2020/01/31 07:53:44.1	313.820	0.020	-0.330	0.590
2020/01/31 07:53:44.2	313.810	0.020	-0.340	0.600
2020/01/31 07:53:44.3	313.800	0.020	-0.350	0.600
2020/01/31 07:53:44.4	313.790	0.030	-0.370	0.610
2020/01/31 07:53:44.5	313.780	0.030	-0.380	0.600
2020/01/31 07:53:44.6	313.770	0.030	-0.390	0.600
2020/01/31 07:53:44.7	313.760	0.030	-0.400	0.590
2020/01/31 07:53:44.8	313.750	0.030	-0.410	0.580
2020/01/31 07:53:44.9	313.740	0.030	-0.420	0.570
2020/01/31 07:53:45.0	313.740	0.030	-0.430	0.560
2020/01/31 07:53:45.1	313.730	0.030	-0.440	0.540
2020/01/31 07:53:45.2	313.730	0.030	-0.450	0.520
2020/01/31 07:53:45.3	313.730	0.030	-0.460	0.500
2020/01/31 07:53:45.4	313.730	0.020	-0.470	0.480
2020/01/31 07:53:45.5	313.740	0.020	-0.470	0.460
2020/01/31 07:53:45.6	313.740	0.010	-0.470	0.430
2020/01/31 07:53:45.7	313.750	0.010	-0.480	0.410
2020/01/31 07:53:45.8	313.760	0.000	-0.480	0.380
2020/01/31 07:53:45.9	313.770	-0.010	-0.470	0.360
2020/01/31 07:53:46.0	313.780	-0.010	-0.470	0.330
2020/01/31 07:53:46.1	313.800	-0.020	-0.470	0.300
2020/01/31 07:53:46.2	313.810	-0.030	-0.460	0.270
2020/01/31 07:53:46.3	313.820	-0.040	-0.450	0.240
2020/01/31 07:53:46.4	313.840	-0.050	-0.450	0.210
2020/01/31 07:53:46.5	313.860	-0.060	-0.440	0.180
2020/01/31 07:53:46.6	313.880	-0.080	-0.420	0.150
2020/01/31 07:53:46.7	313.900	-0.090	-0.410	0.120
2020/01/31 07:53:46.8	313.920	-0.100	-0.400	0.090
2020/01/31 07:53:46.9	313.940	-0.110	-0.380	0.070
2020/01/31 07:53:47.0	313.960	-0.120	-0.370	0.040
2020/01/31 07:53:47.1	313.980	-0.130	-0.350	0.010
2020/01/31 07:53:47.2	314.000	-0.140	-0.330	-0.010
2020/01/31 07:53:47.3	314.020	-0.150	-0.310	-0.030
2020/01/31 07:53:47.4	314.040	-0.160	-0.290	-0.050
2020/01/31 07:53:47.5	314.060	-0.160	-0.270	-0.070
2020/01/31 07:53:47.6	314.080	-0.170	-0.240	-0.090
2020/01/31 07:53:47.7	314.100	-0.180	-0.220	-0.110
2020/01/31 07:53:47.8	314.120	-0.180	-0.190	-0.120
2020/01/31 07:53:47.9	314.140	-0.180	-0.170	-0.140
2020/01/31 07:53:48.0	314.160	-0.180	-0.140	-0.150
2020/01/31 07:53:48.1	314.180	-0.180	-0.110	-0.160
2020/01/31 07:53:48.2	314.200	-0.180	-0.090	-0.160
2020/01/31 07:53:48.3	314.220	-0.180	-0.060	-0.170
2020/01/31 07:53:48.4	314.230	-0.170	-0.040	-0.170
2020/01/31 07:53:48.5	314.250	-0.160	-0.010	-0.170
2020/01/31 07:53:48.6	314.270	-0.160	0.010	-0.170
2020/01/31 07:53:48.7	314.280	-0.150	0.030	-0.160
2020/01/31 07:53:48.8	314.290	-0.140	0.060	-0.150
2020/01/31 07:53:48.9	314.300	-0.130	0.080	-0.140
2020/01/31 07:53:49.0	314.310	-0.110	0.100	-0.130
2020/01/31 07:53:49.1	314.320	-0.100	0.110	-0.110
2020/01/31 07:53:49.2	314.320	-0.090	0.130	-0.090
2020/01/31 07:53:49.3	314.330	-0.070	0.150	-0.070
2020/01/31 07:53:49.4	314.330	-0.060	0.160	-0.040
2020/01/31 07:53:49.5	314.330	-0.040	0.170	-0.010
2020/01/31 07:53:49.6	314.320	-0.030	0.190	0.020
2020/01/31 07:53:49.7	314.320	-0.010	0.200	0.060
2020/01/31 07:53:49.8	314.310	0.010	0.210	0.100
2020/01/31 07:53:49.9	314.300	0.020	0.220	0.130
2020/01/31 07:53:50.0	314.280	0.040	0.220	0.170
2020/01/31 07:53:50.1	314.270	0.050	0.230	0.220
2020/01/31 07:53:50.2	314.250	0.070	0.230	0.260
2020/01/31 07:53:50.3	314.240	0.080	0.240	0.300
2020/01/31 07:53:50.4	314.210	0.100	0.240	0.350
2020/01/31 07:53:50.5	314.190	0.110	0.240	0.390
2020/01/31 07:53:50.6	314.160	0.130	0.240	0.430
2020/01/31 07:53:50.7	314.140	0.140	0.240	0.480
2020/01/31 07:53:50.8	314.110	0.150	0.240	0.520
2020/01/31 07:53:50.9	314.070	0.160	0.240	0.560
2020/01/31 07:53:51.0	314.040	0.170	0.230	0.600
2020/01/31 07:53:51.1	314.010	0.180	0.230	0.640
2020/01/31 07:53:51.2	313.980	0.190	0.220	0.680
2020/01/31 07:53:51.3	313.950	0.190	0.210	0.710
2020/01/31 07:53:51.4	313.920	0.200	0.200	0.740
2020/01/31 07:53:51.5	313.880	0.200	0.180	0.770
2020/01/31 07:53:51.6	313.850	0.210	0.170	0.790
2020/01/31 07:53:51.7	313.830	0.210	0.150	0.810
2020/01/31 07:53:51.8	313.800	0.210	0.120	0.830
2020/01/31 07:53:51.9	313.770	0.210	0.100	0.840
2020/01/31 07:53:52.0	313.750	0.210	0.070	0.850
2020/01/31 07:53:52.1	313.720	0.210	0.030	0.850
2020/01/31 07:53:52.2	313.700	0.210	-0.000	0.850
2020/01/31 07:53:52.3	313.680	0.200	-0.040	0.850
2020/01/31 07:53:52.4	313.660	0.200	-0.080	0.840
2020/01/31 07:53:52.5	313.640	0.190	-0.120	0.820
2020/01/31 07:53:52.6	313.630	0.180	-0.160	0.800
2020/01/31 07:53:52.7	313.610	0.170	-0.210	0.780
2020/01/31 07:53:52.8	313.600	0.160	-0.250	0.760
2020/01/31 07:53:52.9	313.590	0.150	-0.300	0.730
2020/01/31 07:53:53.0	313.590	0.140	-0.350	0.700
2020/01/31 07:53:53.1	313.580	0.130	-0.400	0.660
2020/01/31 07:53:53.2	313.580	0.110	-0.450	0.620
2020/01/31 07:53:53.3	313.590	0.100	-0.500	0.580
2020/01/31 07:53:53.4	313.590	0.080	-0.550	0.540
2020/01/31 07:53:53.5	313.600	0.070	-0.590	0.490
2020/01/31 07:53:53.6	313.600	0.050	-0.640	0.440
2020/01/31 07:53:53.7	313.610	0.040	-0.680	0.400
2020/01/31 07:53:53.8	313.620	0.020	-0.730	0.350
2020/01/31 07:53:53.9	313.630	0.010	-0.770	0.300
2020/01/31 07:53:54.0	313.650	-0.010	-0.810	0.240
2020/01/31 07:53:54.1	313.660	-0.020	-0.840	0.190
2020/01/31 07:53:54.2	313.680	-0.030	-0.880	0.140
2020/01/31 07:53:54.3	313.690	-0.050	-0.910	0.090
2020/01/31 07:53:54.4	313.720	-0.060	-0.940	0.040
2020/01/31 07:53:54.5	313.740	-0.070	-0.970	-0.010
2020/01/31 07:53:54.6	313.760	-0.080	-0.990	-0.060
2020/01/31 07:53:54.7	313.790	-0.090	-1.010	-0.110
2020/01/31 07:53:54.8	313.810	-0.090	-1.030	-0.150
2020/01/31 07:53:54.9	313.840	-0.100	-1.040	-0.200
2020/01/31 07:53:55.0	313.870	-0.100	-1.060	-0.240
2020/01/31 07:53:55.1	313.900	-0.110	-1.070	-0.280
2020/01/31 07:53:55.2	313.930	-0.110	-1.070	-0.320
2020/01/31 07:53:55.3	313.950	-0.110	-1.070	-0.360
2020/01/31 07:53:55.4	313.980	-0.110	-1.070	-0.390
2020/01/31 07:53:55.5	314.010	-0.110	-1.070	-0.420
2020/01/31 07:53:55.6	314.050	-0.110	-1.060	-0.450
2020/01/31 07:53:55.7	314.080	-0.100	-1.060	-0.480
2020/01/31 07:53:55.8	314.110	-0.100	-1.050	-0.510
2020/01/31 07:53:55.9	314.140	-0.090	-1.030	-0.530
2020/01/31 07:53:56.0	314.170	-0.090	-1.020	-0.550
2020/01/31 07:53:56.1	314.200	-0.080	-1.000	-0.570
2020/01/31 07:53:56.2	314.230	-0.070	-0.980	-0.580
2020/01/31 07:53:56.3	314.250	-0.060	-0.950	-0.590
2020/01/31 07:53:56.4	314.280	-0.060	-0.930	-0.600
2020/01/31 07:53:56.5	314.310	-0.050	-0.900	-0.610
2020/01/31 07:53:56.6	314.330	-0.040	-0.870	-0.610
2020/01/31 07:53:56.7	314.360	-0.030	-0.830	-0.610
2020/01/31 07:53:56.8	314.380	-0.020	-0.800	-0.610
2020/01/31 07:53:56.9	314.410	-0.020	-0.760	-0.610
2020/01/31 07:53:57.0	314.430	-0.010	-0.720	-0.600
2020/01/31 07:53:57.1	314.450	-0.000	-0.680	-0.590
2020/01/31 07:53:57.2	314.470	0.000	-0.630	-0.570
2020/01/31 07:53:57.3	314.490	0.010	-0.580	-0.550
2020/01/31 07:53:57.4	314.500	0.010	-0.530	-0.530
2020/01/31 07:53:57.5	314.520	0.020	-0.480	-0.500
2020/01/31 07:53:57.6	314.530	0.020	-0.430	-0.470
2020/01/31 07:53:57.7	314.550	0.020	-0.380	-0.440
2020/01/31 07:53:57.8	314.560	0.020	-0.320	-0.410
2020/01/31 07:53:57.9	314.570	0.020	-0.270	-0.370
2020/01/31 07:53:58.0	314.570	0.020	-0.210	-0.330
2020/01/31 07:53:58.1	314.580	0.020	-0.150	-0.280
2020/01/31 07:53:58.2	314.590	0.020	-0.090	-0.240
2020/01/31 07:53:58.3	314.590	0.020	-0.040	-0.190
2020/01/31 07:53:58.4	314.590	0.020	0.020	-0.140
2020/01/31 07:53:58.5	314.590	0.020	0.080	-0.080
2020/01/31 07:53:58.6	314.590	0.010	0.130	-0.030
2020/01/31 07:53:58.7	314.590	0.010	0.190	0.030
2020/01/31 07:53:58.8	314.590	0.000	0.240	0.090
2020/01/31 07:53:58.9	314.580	-0.000	0.290	0.150
2020/01/31 07:53:59.0	314.570	-0.010	0.340	0.210
2020/01/31 07:53:59.1	314.560	-0.010	0.390	0.270
2020/01/31 07:53:59.2	314.550	-0.010	0.430	0.330
2020/01/31 07:53:59.3	314.530	-0.020	0.470	0.390
2020/01/31 07:53:59.4	314.510	-0.020	0.510	0.460
2020/01/31 07:53:59.5	314.490	-0.030	0.550	0.520
2020/01/31 07:53:59.6	314.470	-0.030	0.580	0.580
2020/01/31 07:53:59.7	314.440	-0.040	0.620	0.650
2020/01/31 07:53:59.8	314.420	-0.040	0.640	0.710
2020/01/31 07:53:59.9	314.390	-0.040	0.670	0.770
2020/01/31 07:54:00.0	314.350	-0.040	0.690	0.840
2020/01/31 07:54:00.1	314.310	-0.040	0.710	0.900
2020/01/31 07:54:00.2	314.280	-0.040	0.720	0.960
2020/01/31 07:54:00.3	314.250	-0.040	0.740	1.020
2020/01/31 07:54:00.4	314.210	-0.040	0.740	1.080
2020/01/31 07:54:00.5	314.170	-0.040	0.750	1.130
2020/01/31 07:54:00.6	314.120	-0.040	0.750	1.180
2020/01/31 07:54:00.7	314.070	-0.040	0.740	1.230
2020/01/31 07:54:00.8	314.030	-0.040	0.730	1.280
2020/01/31 07:54:00.9	313.980	-0.030	0.720	1.320
2020/01/31 07:54:01.0	313.930	-0.030	0.700	1.350
2020/01/31 07:54:01.1	313.890	-0.030	0.680	1.380
2020/01/31 07:54:01.2	313.840	-0.020	0.650	1.390
2020/01/31 07:54:01.3	313.810	-0.020	0.620	1.410
2020/01/31 07:54:01.4	313.770	-0.010	0.580	1.410
2020/01/31 07:54:01.5	313.730	-0.010	0.540	1.410
2020/01/31 07:54:01.6	313.700	-0.010	0.500	1.400
2020/01/31 07:54:01.7	313.670	-0.010	0.450	1.380
2020/01/31 07:54:01.8	313.640	-0.000	0.400	1.350
2020/01/31 07:54:01.9	313.610	0.000	0.350	1.320
2020/01/31 07:54:02.0	313.590	0.000	0.290	1.270
2020/01/31 07:54:02.1	313.570	0.000	0.230	1.230
2020/01/31 07:54:02.2	313.550	0.000	0.180	1.170
2020/01/31 07:54:02.3	313.530	0.000	0.120	1.110
2020/01/31 07:54:02.4	313.520	0.000	0.060	1.040
2020/01/31 07:54:02.5	313.500	0.000	0.000	0.980
2020/01/31 07:54:02.6	313.490	0.000	-0.060	0.910
2020/01/31 07:54:02.7	313.490	-0.000	-0.120	0.830
2020/01/31 07:54:02.8	313.480	-0.010	-0.170	0.760
2020/01/31 07:54:02.9	313.470	-0.010	-0.230	0.680
2020/01/31 07:54:03.0	313.470	-0.010	-0.280	0.600
2020/01/31 07:54:03.1	313.470	-0.020	-0.330	0.520
2020/01/31 07:54:03.2	313.460	-0.030	-0.380	0.430
2020/01/31 07:54:03.3	313.470	-0.030	-0.430	0.340
2020/01/31 07:54:03.4	313.470	-0.040	-0.470	0.260
2020/01/31 07:54:03.5	313.470	-0.050	-0.510	0.180
2020/01/31 07:54:03.6	313.480	-0.050	-0.550	0.100
2020/01/31 07:54:03.7	313.480	-0.060	-0.580	0.010
2020/01/31 07:54:03.8	313.490	-0.070	-0.610	-0.070
2020/01/31 07:54:03.9	313.490	-0.070	-0.640	-0.140
2020/01/31 07:54:04.0	313.500	-0.080	-0.660	-0.220
2020/01/31 07:54:04.1	313.510	-0.090	-0.680	-0.290
2020/01/31 07:54:04.2	313.530	-0.090	-0.700	-0.360
2020/01/31 07:54:04.3	313.530	-0.100	-0.710	-0.430
2020/01/31 07:54:04.4	313.550	-0.100	-0.720	-0.490
2020/01/31 07:54:04.5	313.560	-0.100	-0.730	-0.550
2020/01/31 07:54:04.6	313.580	-0.110	-0.740	-0.600
2020/01/31 07:54:04.7	313.590	-0.110	-0.750	-0.650
2020/01/31 07:54:04.8	313.610	-0.110	-0.750	-0.690
2020/01/31 07:54:04.9	313.630	-0.110	-0.750	-0.730
2020/01/31 07:54:05.0	313.650	-0.100	-0.750	-0.770
2020/01/31 07:54:05.1	313.670	-0.100	-0.750	-0.800
2020/01/31 07:54:05.2	313.690	-0.100	-0.740	-0.820
2020/01/31 07:54:05.3	313.700	-0.090	-0.740	-0.840
2020/01/31 07:54:05.4	313.720	-0.080	-0.730	-0.860
2020/01/31 07:54:05.5	313.750	-0.080	-0.730	-0.860
2020/01/31 07:54:05.6	313.770	-0.070	-0.720	-0.870
2020/01/31 07:54:05.7	313.790	-0.060	-0.710	-0.870
2020/01/31 07:54:05.8	313.820	-0.060	-0.700	-0.860
2020/01/31 07:54:05.9	313.840	-0.050	-0.690	-0.860
2020/01/31 07:54:06.0	313.870	-0.040	-0.690	-0.840
2020/01/31 07:54:06.1	313.890	-0.030	-0.680	-0.830
2020/01/31 07:54:06.2	313.920	-0.020	-0.670	-0.810
2020/01/31 07:54:06.3	313.940	-0.020	-0.670	-0.780
2020/01/31 07:54:06.4	313.970	-0.010	-0.660	-0.760
2020/01/31 07:54:06.5	313.990	-0.000	-0.660	-0.730
2020/01/31 07:54:06.6	314.020	0.010	-0.660	-0.700
2020/01/31 07:54:06.7	314.050	0.010	-0.660	-0.670
2020/01/31 07:54:06.8	314.080	0.020	-0.660	-0.630
2020/01/31 07:54:06.9	314.110	0.030	-0.660	-0.600
2020/01/31 07:54:07.0	314.130	0.030	-0.660	-0.570
2020/01/31 07:54:07.1	314.160	0.040	-0.670	-0.530
2020/01/31 07:54:07.2	314.190	0.040	-0.670	-0.490
2020/01/31 07:54:07.3	314.220	0.050	-0.680	-0.460
2020/01/31 07:54:07.4	314.250	0.050	-0.680	-0.420
2020/01/31 07:54:07.5	314.280	0.050	-0.690	-0.380
2020/01/31 07:54:07.6	314.310	0.060	-0.690	-0.340
2020/01/31 07:54:07.7	314.330	0.060	-0.700	-0.290
2020/01/31 07:54:07.8	314.360	0.060	-0.700	-0.250
2020/01/31 07:54:07.9	314.380	0.070	-0.700	-0.210
2020/01/31 07:54:08.0	314.400	0.070	-0.700	-0.160
2020/01/31 07:54:08.1	314.420	0.070	-0.700	-0.120
2020/01/31 07:54:08.2	314.430	0.070	-0.700	-0.070
2020/01/31 07:54:08.3	314.440	0.080	-0.690	-0.030
2020/01/31 07:54:08.4	314.450	0.080	-0.690	0.020
2020/01/31 07:54:08.5	314.460	0.080	-0.680	0.070
2020/01/31 07:54:08.6	314.470	0.080	-0.670	0.110
2020/01/31 07:54:08.7	314.480	0.080	-0.650	0.160
2020/01/31 07:54:08.8	314.480	0.080	-0.640	0.210
2020/01/31 07:54:08.9	314.480	0.090	-0.620	0.250
2020/01/31 07:54:09.0	314.480	0.090	-0.600	0.300
2020/01/31 07:54:09.1	314.480	0.090	-0.570	0.340
2020/01/31 07:54:09.2	314.480	0.090	-0.550	0.390
2020/01/31 07:54:09.3	314.470	0.090	-0.520	0.440
2020/01/31 07:54:09.4	314.460	0.100	-0.490	0.480
2020/01/31 07:54:09.5	314.450	0.100	-0.450	0.530
2020/01/31 07:54:09.6	314.440	0.100	-0.420	0.570
2020/01/31 07:54:09.7	314.430	0.100	-0.380	0.620
2020/01/31 07:54:09.8	314.420	0.100	-0.340	0.660
2020/01/31 07:54:09.9	314.400	0.100	-0.300	0.710
2020/01/31 07:54:10.0	314.380	0.100	-0.260	0.750
2020/01/31 07:54:10.1	314.360	0.100	-0.210	0.800
2020/01/31 07:54:10.2	314.340	0.100	-0.170	0.840
2020/01/31 07:54:10.3	314.320	0.100	-0.130	0.880
2020/01/31 07:54:10.4	314.300	0.100	-0.080	0.910
2020/01/31 07:54:10.5	314.270	0.090	-0.040	0.950
2020/01/31 07:54:10.6	314.250	0.090	0.000	0.980
2020/01/31 07:54:10.7	314.220	0.080	0.040	1.010
2020/01/31 07:54:10.8	314.190	0.080	0.080	1.040
2020/01/31 07:54:10.9	314.160	0.070	0.120	1.070
2020/01/31 07:54:11.0	314.140	0.060	0.150	1.090
2020/01/31 07:54:11.1	314.110	0.050	0.190	1.110
2020/01/31 07:54:11.2	314.080	0.040	0.220	1.120
2020/01/31 07:54:11.3	314.060	0.030	0.240	1.130
2020/01/31 07:54:11.4	314.040	0.020	0.270	1.140
2020/01/31 07:54:11.5	314.010	0.010	0.290	1.140
2020/01/31 07:54:11.6	313.980	0.000	0.310	1.140
2020/01/31 07:54:11.7	313.960	-0.010	0.330	1.140
2020/01/31 07:54:11.8	313.930	-0.020	0.350	1.130
2020/01/31 07:54:11.9	313.910	-0.040	0.360	1.120
2020/01/31 07:54:12.0	313.890	-0.050	0.370	1.110
2020/01/31 07:54:12.1	313.860	-0.060	0.380	1.090
2020/01/31 07:54:12.2	313.840	-0.070	0.390	1.080
2020/01/31 07:54:12.3	313.820	-0.090	0.390	1.060
2020/01/31 07:54:12.4	313.800	-0.100	0.400	1.030
2020/01/31 07:54:12.5	313.770	-0.110	0.400	1.010
2020/01/31 07:54:12.6	313.750	-0.130	0.400	0.980
2020/01/31 07:54:12.7	313.720	-0.140	0.400	0.960
2020/01/31 07:54:12.8	313.700	-0.150	0.400	0.930
2020/01/31 07:54:12.9	313.670	-0.160	0.400	0.900
2020/01/31 07:54:13.0	313.650	-0.170	0.400	0.860
2020/01/31 07:54:13.1	313.620	-0.180	0.400	0.830
2020/01/31 07:54:13.2	313.590	-0.180	0.400	0.800
2020/01/31 07:54:13.3	313.580	-0.190	0.400	0.760
2020/01/31 07:54:13.4	313.550	-0.200	0.390	0.730
2020/01/31 07:54:13.5	313.520	-0.200	0.390	0.690
2020/01/31 07:54:13.6	313.500	-0.200	0.380	0.660
2020/01/31 07:54:13.7	313.470	-0.200	0.370	0.620
2020/01/31 07:54:13.8	313.450	-0.200	0.370	0.590
2020/01/31 07:54:13.9	313.430	-0.200	0.360	0.550
2020/01/31 07:54:14.0	313.410	-0.200	0.340	0.510
2020/01/31 07:54:14.1	313.390	-0.190	0.330	0.480
2020/01/31 07:54:14.2	313.370	-0.190	0.310	0.440
2020/01/31 07:54:14.3	313.350	-0.180	0.290	0.400
2020/01/31 07:54:14.4	313.340	-0.170	0.270	0.360
2020/01/31 07:54:14.5	313.320	-0.160	0.240	0.320
2020/01/31 07:54:14.6	313.310	-0.140	0.220	0.290
2020/01/31 07:54:14.7	313.300	-0.130	0.190	0.250
2020/01/31 07:54:14.8	313.290	-0.110	0.150	0.220
2020/01/31 07:54:14.9	313.280	-0.100	0.120	0.180
2020/01/31 07:54:15.0	313.270	-0.080	0.080	0.150
2020/01/31 07:54:15.1	313.270	-0.060	0.040	0.120
2020/01/31 07:54:15.2	313.270	-0.040	-0.000	0.080
2020/01/31 07:54:15.3	313.250	-0.020	-0.050	0.050
2020/01/31 07:54:15.4	313.250	0.000	-0.090	0.020
2020/01/31 07:54:15.5	313.250	0.030	-0.140	-0.010
2020/01/31 07:54:15.6	313.250	0.050	-0.190	-0.040
2020/01/31 07:54:15.7	313.260	0.070	-0.240	-0.060
2020/01/31 07:54:15.8	313.270	0.090	-0.290	-0.090
2020/01/31 07:54:15.9	313.280	0.120	-0.340	-0.110
2020/01/31 07:54:16.0	313.290	0.140	-0.390	-0.140
2020/01/31 07:54:16.1	313.300	0.160	-0.450	-0.170
2020/01/31 07:54:16.2	313.320	0.180	-0.500	-0.190
2020/01/31 07:54:16.3	313.340	0.200	-0.550	-0.220
2020/01/31 07:54:16.4	313.360	0.210	-0.600	-0.250
2020/01/31 07:54:16.5	313.390	0.230	-0.660	-0.270
2020/01/31 07:54:16.6	313.410	0.240	-0.700	-0.300
2020/01/31 07:54:16.7	313.450	0.250	-0.750	-0.330
2020/01/31 07:54:16.8	313.480	0.260	-0.800	-0.360
2020/01/31 07:54:16.9	313.520	0.270	-0.840	-0.390
2020/01/31 07:54:17.0	313.560	0.270	-0.880	-0.420
2020/01/31 07:54:17.1	313.600	0.270	-0.920	-0.450
2020/01/31 07:54:17.2	313.640	0.270	-0.950	-0.480
2020/01/31 07:54:17.3	313.680	0.270	-0.980	-0.510
2020/01/31 07:54:17.4	313.730	0.260	-1.010	-0.540
2020/01/31 07:54:17.5	313.780	0.250	-1.030	-0.570
2020/01/31 07:54:17.6	313.820	0.240	-1.050	-0.600
2020/01/31 07:54:17.7	313.870	0.220	-1.060	-0.630
2020/01/31 07:54:17.8	313.920	0.210	-1.070	-0.650
2020/01/31 07:54:17.9	313.970	0.190	-1.070	-0.680
2020/01/31 07:54:18.0	314.020	0.170	-1.070	-0.700
2020/01/31 07:54:18.1	314.070	0.140	-1.070	-0.710
2020/01/31 07:54:18.2	314.120	0.110	-1.050	-0.720
2020/01/31 07:54:18.3	314.150	0.090	-1.030	-0.730
2020/01/31 07:54:18.4	314.190	0.060	-1.010	-0.730
2020/01/31 07:54:18.5	314.230	0.030	-0.980	-0.730
2020/01/31 07:54:18.6	314.270	-0.010	-0.950	-0.730
2020/01/31 07:54:18.7	314.300	-0.040	-0.910	-0.720
2020/01/31 07:54:18.8	314.340	-0.070	-0.860	-0.700
2020/01/31 07:54:18.9	314.370	-0.100	-0.820	-0.680
2020/01/31 07:54:19.0	314.390	-0.130	-0.760	-0.650
2020/01/31 07:54:19.1	314.410	-0.170	-0.710	-0.620
2020/01/31 07:54:19.2	314.430	-0.200	-0.650	-0.590
2020/01/31 07:54:19.3	314.460	-0.230	-0.590	-0.540
2020/01/31 07:54:19.4	314.470	-0.260	-0.530	-0.500
2020/01/31 07:54:19.5	314.480	-0.280	-0.470	-0.450
2020/01/31 07:54:19.6	314.480	-0.310	-0.400	-0.400
2020/01/31 07:54:19.7	314.480	-0.330	-0.340	-0.350
2020/01/31 07:54:19.8	314.480	-0.350	-0.280	-0.300
2020/01/31 07:54:19.9	314.480	-0.370	-0.210	-0.240
2020/01/31 07:54:20.0	314.470	-0.390	-0.160	-0.190
2020/01/31 07:54:20.1	314.460	-0.400	-0.100	-0.130
2020/01/31 07:54:20.2	314.450	-0.410	-0.050	-0.070
2020/01/31 07:54:20.3	314.440	-0.420	0.010	-0.010
2020/01/31 07:54:20.4	314.420	-0.420	0.050	0.050
2020/01/31 07:54:20.5	314.400	-0.420	0.100	0.110
2020/01/31 07:54:20.6	314.380	-0.420	0.140	0.160
2020/01/31 07:54:20.7	314.350	-0.410	0.170	0.220
2020/01/31 07:54:20.8	314.320	-0.410	0.200	0.270
2020/01/31 07:54:20.9	314.290	-0.400	0.230	0.320
2020/01/31 07:54:21.0	314.260	-0.380	0.250	0.380
2020/01/31 07:54:21.1	314.230	-0.370	0.260	0.430
2020/01/31 07:54:21.2	314.200	-0.350	0.280	0.470
2020/01/31 07:54:21.3	314.180	-0.330	0.280	0.520
2020/01/31 07:54:21.4	314.140	-0.310	0.290	0.560
2020/01/31 07:54:21.5	314.110	-0.280	0.290	0.600
2020/01/31 07:54:21.6	314.070	-0.260	0.290	0.640
2020/01/31 07:54:21.7	314.030	-0.230	0.280	0.680
2020/01/31 07:54:21.8	313.990	-0.200	0.270	0.710
2020/01/31 07:54:21.9	313.960	-0.170	0.260	0.740
2020/01/31 07:54:22.0	313.920	-0.140	0.250	0.770
2020/01/31 07:54:22.1	313.880	-0.120	0.230	0.800
2020/01/31 07:54:22.2	313.840	-0.090	0.210	0.820
2020/01/31 07:54:22.3	313.810	-0.060	0.190	0.850
2020/01/31 07:54:22.4	313.770	-0.030	0.170	0.870
2020/01/31 07:54:22.5	313.730	0.000	0.150	0.880
2020/01/31 07:54:22.6	313.690	0.030	0.130	0.890
2020/01/31 07:54:22.7	313.660	0.060	0.100	0.900
2020/01/31 07:54:22.8	313.620	0.080	0.080	0.910
2020/01/31 07:54:22.9	313.590	0.110	0.050	0.910
2020/01/31 07:54:23.0	313.560	0.130	0.030	0.910
2020/01/31 07:54:23.1	313.530	0.150	0.000	0.910
2020/01/31 07:54:23.2	313.500	0.170	-0.020	0.900
2020/01/31 07:54:23.3	313.490	0.190	-0.050	0.890
2020/01/31 07:54:23.4	313.470	0.210	-0.080	0.880
2020/01/31 07:54:23.5	313.450	0.230	-0.110	0.870
2020/01/31 07:54:23.6	313.430	0.250	-0.130	0.860
2020/01/31 07:54:23.7	313.410	0.260	-0.160	0.840
2020/01/31 07:54:23.8	313.400	0.270	-0.190	0.820
2020/01/31 07:54:23.9	313.390	0.280	-0.220	0.810
2020/01/31 07:54:24.0	313.380	0.300	-0.240	0.790
2020/01/31 07:54:24.1	313.370	0.310	-0.270	0.770
2020/01/31 07:54:24.2	313.360	0.310	-0.290	0.750
2020/01/31 07:54:24.3	313.360	0.320	-0.320	0.730
2020/01/31 07:54:24.4	313.360	0.330	-0.340	0.720
2020/01/31 07:54:24.5	313.360	0.330	-0.370	0.700
2020/01/31 07:54:24.6	313.360	0.340	-0.390	0.680
2020/01/31 07:54:24.7	313.360	0.340	-0.410	0.660
2020/01/31 07:54:24.8	313.360	0.340	-0.430	0.640
2020/01/31 07:54:24.9	313.370	0.340	-0.450	0.620
2020/01/31 07:54:25.0	313.380	0.340	-0.470	0.600
2020/01/31 07:54:25.1	313.380	0.340	-0.480	0.580
2020/01/31 07:54:25.2	313.400	0.340	-0.500	0.560
2020/01/31 07:54:25.3	313.410	0.340	-0.520	0.530
2020/01/31 07:54:25.4	313.420	0.330	-0.530	0.510
2020/01/31 07:54:25.5	313.440	0.330	-0.550	0.480
2020/01/31 07:54:25.6	313.450	0.330	-0.560	0.450
2020/01/31 07:54:25.7	313.470	0.320	-0.570	0.420
2020/01/31 07:54:25.8	313.490	0.320	-0.590	0.390
2020/01/31 07:54:25.9	313.520	0.310	-0.600	0.350
2020/01/31 07:54:26.0	313.540	0.300	-0.610	0.320
2020/01/31 07:54:26.1	313.570	0.300	-0.620	0.280
2020/01/31 07:54:26.2	313.600	0.290	-0.630	0.250
2020/01/31 07:54:26.3	313.620	0.280	-0.640	0.210
2020/01/31 07:54:26.4	313.650	0.280	-0.640	0.170
2020/01/31 07:54:26.5	313.680	0.270	-0.650	0.140
2020/01/31 07:54:26.6	313.700	0.260	-0.650	0.100
2020/01/31 07:54:26.7	313.740	0.250	-0.650	0.060
2020/01/31 07:54:26.8	313.770	0.240	-0.650	0.020
2020/01/31 07:54:26.9	313.800	0.230	-0.650	-0.020
2020/01/31 07:54:27.0	313.830	0.220	-0.650	-0.060
2020/01/31 07:54:27.1	313.860	0.210	-0.640	-0.100
2020/01/31 07:54:27.2	313.890	0.200	-0.640	-0.130
2020/01/31 07:54:27.3	313.910	0.190	-0.630	-0.170
2020/01/31 07:54:27.4	313.940	0.170	-0.620	-0.210
2020/01/31 07:54:27.5	313.970	0.160	-0.610	-0.250
2020/01/31 07:54:27.6	314.000	0.140	-0.590	-0.280
2020/01/31 07:54:27.7	314.020	0.130	-0.570	-0.320
2020/01/31 07:54:27.8	314.050	0.110	-0.560	-0.350
2020/01/31 07:54:27.9	314.070	0.100	-0.530	-0.380
2020/01/31 07:54:28.0	314.100	0.080	-0.510	-0.410
2020/01/31 07:54:28.1	314.120	0.060	-0.490	-0.440
2020/01/31 07:54:28.2	314.140	0.040	-0.460	-0.460
2020/01/31 07:54:28.3	314.150	0.020	-0.430	-0.490
2020/01/31 07:54:28.4	314.170	0.000	-0.400	-0.510
2020/01/31 07:54:28.5	314.180	-0.020	-0.360	-0.520
2020/01/31 07:54:28.6	314.200	-0.040	-0.320	-0.540
2020/01/31 07:54:28.7	314.200	-0.060	-0.280	-0.550
2020/01/31 07:54:28.8	314.210	-0.080	-0.240	-0.560
2020/01/31 07:54:28.9	314.220	-0.100	-0.200	-0.570
2020/01/31 07:54:29.0	314.220	-0.120	-0.150	-0.570
2020/01/31 07:54:29.1	314.220	-0.150	-0.110	-0.570
2020/01/31 07:54:29.2	314.210	-0.170	-0.060	-0.570
2020/01/31 07:54:29.3	314.200	-0.190	-0.010	-0.560
2020/01/31 07:54:29.4	314.190	-0.210	0.040	-0.540
2020/01/31 07:54:29.5	314.180	-0.230	0.090	-0.520
2020/01/31 07:54:29.6	314.160	-0.250	0.140	-0.500
2020/01/31 07:54:29.7	314.150	-0.260	0.190	-0.470
2020/01/31 07:54:29.8	314.130	-0.280	0.250	-0.430
2020/01/31 07:54:29.9	314.100	-0.300	0.300	-0.400
2020/01/31 07:54:30.0	314.080	-0.310	0.350	-0.350
2020/01/31 07:54:30.1	314.050	-0.320	0.390	-0.310
2020/01/31 07:54:30.2	314.020	-0.330	0.440	-0.260
2020/01/31 07:54:30.3	314.000	-0.340	0.490	-0.210
2020/01/31 07:54:30.4	313.970	-0.350	0.530	-0.150
2020/01/31 07:54:30.5	313.930	-0.350	0.560	-0.100
2020/01/31 07:54:30.6	313.900	-0.360	0.590	-0.040
2020/01/31 07:54:30.7	313.860	-0.360	0.620	0.010
2020/01/31 07:54:30.8	313.830	-0.360	0.640	0.070
2020/01/31 07:54:30.9	313.790	-0.360	0.660	0.120
2020/01/31 07:54:31.0	313.760	-0.360	0.670	0.180
2020/01/31 07:54:31.1	313.720	-0.350	0.680	0.230
2020/01/31 07:54:31.2	313.690	-0.350	0.680	0.280
2020/01/31 07:54:31.3	313.670	-0.340	0.670	0.320
2020/01/31 07:54:31.4	313.640	-0.330	0.660	0.370
2020/01/31 07:54:31.5	313.610	-0.330	0.640	0.410
2020/01/31 07:54:31.6	313.580	-0.320	0.610	0.440
2020/01/31 07:54:31.7	313.560	-0.310	0.580	0.470
2020/01/31 07:54:31.8	313.530	-0.300	0.540	0.500
2020/01/31 07:54:31.9	313.510	-0.280	0.500	0.520
2020/01/31 07:54:32.0	313.490	-0.270	0.460	0.540
2020/01/31 07:54:32.1	313.480	-0.260	0.400	0.560
2020/01/31 07:54:32.2	313.460	-0.250	0.350	0.570
2020/01/31 07:54:32.3	313.450	-0.240	0.290	0.580
2020/01/31 07:54:32.4	313.440	-0.220	0.230	0.580
2020/01/31 07:54:32.5	313.430	-0.210	0.160	0.580
2020/01/31 07:54:32.6	313.420	-0.200	0.090	0.580
2020/01/31 07:54:32.7	313.410	-0.190	0.020	0.580
2020/01/31 07:54:32.8	313.400	-0.180	-0.050	0.570
2020/01/31 07:54:32.9	313.390	-0.170	-0.120	0.560
2020/01/31 07:54:33.0	313.380	-0.160	-0.190	0.550
2020/01/31 07:54:33.1	313.380	-0.150	-0.260	0.530
2020/01/31 07:54:33.2	313.370	-0.140	-0.330	0.520
2020/01/31 07:54:33.3	313.370	-0.140	-0.400	0.500
2020/01/31 07:54:33.4	313.370	-0.130	-0.470	0.470
2020/01/31 07:54:33.5	313.370	-0.120	-0.530	0.450
2020/01/31 07:54:33.6	313.370	-0.120	-0.600	0.430
2020/01/31 07:54:33.7	313.370	-0.110	-0.650	0.400
2020/01/31 07:54:33.8	313.370	-0.110	-0.710	0.370
2020/01/31 07:54:33.9	313.370	-0.110	-0.760	0.340
2020/01/31 07:54:34.0	313.380	-0.100	-0.810	0.310
2020/01/31 07:54:34.1	313.380	-0.100	-0.860	0.280
2020/01/31 07:54:34.2	313.390	-0.100	-0.900	0.250
2020/01/31 07:54:34.3	313.390	-0.100	-0.930	0.210
2020/01/31 07:54:34.4	313.410	-0.090	-0.970	0.170
2020/01/31 07:54:34.5	313.420	-0.090	-0.990	0.140
2020/01/31 07:54:34.6	313.440	-0.090	-1.020	0.110
2020/01/31 07:54:34.7	313.450	-0.080	-1.040	0.070
2020/01/31 07:54:34.8	313.470	-0.080	-1.050	0.040
2020/01/31 07:54:34.9	313.490	-0.080	-1.060	0.000
2020/01/31 07:54:35.0	313.510	-0.080	-1.060	-0.030
2020/01/31 07:54:35.1	313.530	-0.070	-1.060	-0.060
2020/01/31 07:54:35.2	313.550	-0.070	-1.060	-0.090
2020/01/31 07:54:35.3	313.570	-0.060	-1.050	-0.120
2020/01/31 07:54:35.4	313.590	-0.060	-1.030	-0.140
2020/01/31 07:54:35.5	313.610	-0.060	-1.020	-0.160
2020/01/31 07:54:35.6	313.630	-0.050	-0.990	-0.180
2020/01/31 07:54:35.7	313.650	-0.050	-0.970	-0.200
2020/01/31 07:54:35.8	313.670	-0.040	-0.940	-0.210
2020/01/31 07:54:35.9	313.680	-0.030	-0.910	-0.220
2020/01/31 07:54:36.0	313.700	-0.030	-0.870	-0.220
2020/01/31 07:54:36.1	313.720	-0.020	-0.840	-0.230
2020/01/31 07:54:36.2	313.730	-0.010	-0.800	-0.220
2020/01/31 07:54:36.3	313.730	-0.010	-0.750	-0.220
2020/01/31 07:54:36.4	313.740	0.000	-0.710	-0.200
2020/01/31 07:54:36.5	313.750	0.010	-0.670	-0.190
2020/01/31 07:54:36.6	313.750	0.020	-0.630	-0.170
2020/01/31 07:54:36.7	313.760	0.030	-0.580	-0.140
2020/01/31 07:54:36.8	313.770	0.040	-0.540	-0.110
2020/01/31 07:54:36.9	313.770	0.060	-0.500	-0.080
2020/01/31 07:54:37.0	313.770	0.070	-0.460	-0.050
2020/01/31 07:54:37.1	313.780	0.080	-0.420	-0.010
2020/01/31 07:54:37.2	313.780	0.100	-0.380	0.030
2020/01/31 07:54:37.3	313.770	0.110	-0.350	0.070
2020/01/31 07:54:37.4	313.780	0.130	-0.320	0.110
2020/01/31 07:54:37.5	313.780	0.140	-0.290	0.160
2020/01/31 07:54:37.6	313.780	0.160	-0.260	0.200
2020/01/31 07:54:37.7	313.780	0.180	-0.240	0.240
2020/01/31 07:54:37.8	313.780	0.190	-0.220	0.280
2020/01/31 07:54:37.9	313.770	0.210	-0.200	0.330
2020/01/31 07:54:38.0	313.780	0.230	-0.190	0.370
2020/01/31 07:54:38.1	313.780	0.250	-0.170	0.400
2020/01/31 07:54:38.2	313.780	0.270	-0.160	0.440
2020/01/31 07:54:38.3	313.780	0.290	-0.150	0.480
2020/01/31 07:54:38.4	313.780	0.310	-0.150	0.520
2020/01/31 07:54:38.5	313.780	0.320	-0.140	0.550
2020/01/31 07:54:38.6	313.780	0.340	-0.140	0.580
2020/01/31 07:54:38.7	313.790	0.360	-0.140	0.610
2020/01/31 07:54:38.8	313.790	0.380	-0.140	0.640
2020/01/31 07:54:38.9	313.790	0.400	-0.140	0.660
2020/01/31 07:54:39.0	313.800	0.410	-0.140	0.680
2020/01/31 07:54:39.1	313.800	0.430	-0.140	0.700
2020/01/31 07:54:39.2	313.810	0.440	-0.140	0.720
2020/01/31 07:54:39.3	313.810	0.460	-0.140	0.740
2020/01/31 07:54:39.4	313.820	0.470	-0.140	0.750
2020/01/31 07:54:39.5	313.830	0.480	-0.140	0.760
2020/01/31 07:54:39.6	313.830	0.490	-0.140	0.770
2020/01/31 07:54:39.7	313.840	0.490	-0.130	0.780
2020/01/31 07:54:39.8	313.840	0.500	-0.130	0.780
2020/01/31 07:54:39.9	313.840	0.500	-0.120	0.790
2020/01/31 07:54:40.0	313.850	0.500	-0.110	0.790
2020/01/31 07:54:40.1	313.850	0.500	-0.100	0.790
2020/01/31 07:54:40.2	313.850	0.490	-0.090	0.790
2020/01/31 07:54:40.3	313.860	0.480	-0.080	0.780
2020/01/31 07:54:40.4	313.850	0.470	-0.060	0.780
2020/01/31 07:54:40.5	313.850	0.460	-0.040	0.770
2020/01/31 07:54:40.6	313.850	0.440	-0.030	0.760
2020/01/31 07:54:40.7	313.850	0.430	-0.010	0.750
2020/01/31 07:54:40.8	313.840	0.410	0.010	0.730
2020/01/31 07:54:40.9	313.840	0.380	0.030	0.720
2020/01/31 07:54:41.0	313.830	0.360	0.050	0.700
2020/01/31 07:54:41.1	313.830	0.330	0.070	0.690
2020/01/31 07:54:41.2	313.820	0.310	0.090	0.670
2020/01/31 07:54:41.3	313.830	0.280	0.110	0.650
2020/01/31 07:54:41.4	313.820	0.250	0.130	0.630
2020/01/31 07:54:41.5	313.820	0.220	0.140	0.600
2020/01/31 07:54:41.6	313.820	0.190	0.160	0.580
2020/01/31 07:54:41.7	313.810	0.150	0.170	0.550
2020/01/31 07:54:41.8	313.810	0.120	0.180	0.530
2020/01/31 07:54:41.9	313.810	0.090	0.190	0.500
2020/01/31 07:54:42.0	313.810	0.060	0.200	0.470
2020/01/31 07:54:42.1	313.810	0.030	0.210	0.440
2020/01/31 07:54:42.2	313.810	-0.000	0.210	0.420
2020/01/31 07:54:42.3	313.800	-0.030	0.210	0.380
2020/01/31 07:54:42.4	313.800	-0.060	0.210	0.350
2020/01/31 07:54:42.5	313.800	-0.090	0.210	0.320
2020/01/31 07:54:42.6	313.800	-0.110	0.210	0.290
2020/01/31 07:54:42.7	313.800	-0.130	0.200	0.260
2020/01/31 07:54:42.8	313.800	-0.160	0.190	0.230
2020/01/31 07:54:42.9	313.800	-0.180	0.180	0.200
2020/01/31 07:54:43.0	313.810	-0.200	0.160	0.160
2020/01/31 07:54:43.1	313.810	-0.220	0.150	0.130
2020/01/31 07:54:43.2	313.810	-0.230	0.130	0.100
2020/01/31 07:54:43.3	313.800	-0.250	0.120	0.060
2020/01/31 07:54:43.4	313.810	-0.260	0.100	0.030
2020/01/31 07:54:43.5	313.810	-0.280	0.070	-0.010
2020/01/31 07:54:43.6	313.810	-0.290	0.050	-0.040
2020/01/31 07:54:43.7	313.810	-0.300	0.030	-0.070
2020/01/31 07:54:43.8	313.820	-0.310	0.000	-0.110
2020/01/31 07:54:43.9	313.820	-0.320	-0.020	-0.140
2020/01/31 07:54:44.0	313.820	-0.330	-0.050	-0.180
2020/01/31 07:54:44.1	313.820	-0.340	-0.070	-0.220
2020/01/31 07:54:44.2	313.820	-0.340	-0.100	-0.250
2020/01/31 07:54:44.3	313.820	-0.350	-0.130	-0.290
2020/01/31 07:54:44.4	313.820	-0.360	-0.150	-0.320
2020/01/31 07:54:44.5	313.820	-0.370	-0.180	-0.360
2020/01/31 07:54:44.6	313.820	-0.370	-0.200	-0.390
2020/01/31 07:54:44.7	313.820	-0.380	-0.230	-0.420
2020/01/31 07:54:44.8	313.820	-0.390	-0.250	-0.450
2020/01/31 07:54:44.9	313.820	-0.390	-0.270	-0.470
2020/01/31 07:54:45.0	313.810	-0.400	-0.290	-0.500
2020/01/31 07:54:45.1	313.810	-0.410	-0.300	-0.520
2020/01/31 07:54:45.2	313.810	-0.410	-0.320	-0.550
2020/01/31 07:54:45.3	313.790	-0.420	-0.340	-0.570
2020/01/31 07:54:45.4	313.790	-0.420	-0.350	-0.590
2020/01/31 07:54:45.5	313.780	-0.430	-0.360	-0.600
2020/01/31 07:54:45.6	313.780	-0.430	-0.370	-0.620
2020/01/31 07:54:45.7	313.780	-0.440	-0.380	-0.630
2020/01/31 07:54:45.8	313.770	-0.440	-0.380	-0.640
2020/01/31 07:54:45.9	313.770	-0.440	-0.390	-0.640
2020/01/31 07:54:46.0	313.770	-0.450	-0.400	-0.650
2020/01/31 07:54:46.1	313.770	-0.450	-0.400	-0.650
2020/01/31 07:54:46.2	313.770	-0.440	-0.410	-0.650
2020/01/31 07:54:46.3	313.770	-0.440	-0.410	-0.650
2020/01/31 07:54:46.4	313.770	-0.440	-0.420	-0.640
2020/01/31 07:54:46.5	313.770	-0.430	-0.420	-0.640
2020/01/31 07:54:46.6	313.780	-0.430	-0.430	-0.630
2020/01/31 07:54:46.7	313.780	-0.420	-0.430	-0.610
2020/01/31 07:54:46.8	313.790	-0.410	-0.440	-0.600
2020/01/31 07:54:46.9	313.800	-0.390	-0.450	-0.580
2020/01/31 07:54:47.0	313.800	-0.380	-0.450	-0.560
2020/01/31 07:54:47.1	313.810	-0.360	-0.460	-0.530
2020/01/31 07:54:47.2	313.810	-0.350	-0.470	-0.510
2020/01/31 07:54:47.3	313.820	-0.330	-0.470	-0.470
2020/01/31 07:54:47.4	313.820	-0.310	-0.470	-0.440
2020/01/31 07:54:47.5	313.820	-0.290	-0.480	-0.400
2020/01/31 07:54:47.6	313.820	-0.260	-0.480	-0.350
2020/01/31 07:54:47.7	313.820	-0.240	-0.490	-0.310
2020/01/31 07:54:47.8	313.810	-0.210	-0.490	-0.260
2020/01/31 07:54:47.9	313.810	-0.180	-0.490	-0.210
2020/01/31 07:54:48.0	313.800	-0.160	-0.500	-0.150
2020/01/31 07:54:48.1	313.790	-0.130	-0.500	-0.090
2020/01/31 07:54:48.2	313.780	-0.100	-0.500	-0.030
2020/01/31 07:54:48.3	313.770	-0.070	-0.490	0.030
2020/01/31 07:54:48.4	313.750	-0.030	-0.490	0.100
2020/01/31 07:54:48.5	313.740	-0.000	-0.490	0.160
2020/01/31 07:54:48.6	313.720	0.030	-0.490	0.230
2020/01/31 07:54:48.7	313.710	0.060	-0.490	0.290
2020/01/31 07:54:48.8	313.700	0.100	-0.490	0.360
2020/01/31 07:54:48.9	313.680	0.130	-0.490	0.420
2020/01/31 07:54:49.0	313.670	0.160	-0.480	0.480
2020/01/31 07:54:49.1	313.660	0.200	-0.480	0.540
2020/01/31 07:54:49.2	313.650	0.230	-0.480	0.590
2020/01/31 07:54:49.3	313.640	0.260	-0.490	0.650
2020/01/31 07:54:49.4	313.630	0.290	-0.490	0.700
2020/01/31 07:54:49.5	313.630	0.320	-0.490	0.740
2020/01/31 07:54:49.6	313.620	0.350	-0.490	0.780
2020/01/31 07:54:49.7	313.620	0.380	-0.500	0.820
2020/01/31 07:54:49.8	313.630	0.410	-0.500	0.850
2020/01/31 07:54:49.9	313.630	0.430	-0.500	0.880
2020/01/31 07:54:50.0	313.630	0.460	-0.510	0.910
2020/01/31 07:54:50.1	313.640	0.480	-0.510	0.930
2020/01/31 07:54:50.2	313.650	0.500	-0.510	0.950
2020/01/31 07:54:50.3	313.670	0.520	-0.510	0.970
2020/01/31 07:54:50.4	313.680	0.530	-0.510	0.980
2020/01/31 07:54:50.5	313.690	0.550	-0.510	0.990
2020/01/31 07:54:50.6	313.710	0.560	-0.510	1.000
2020/01/31 07:54:50.7	313.720	0.570	-0.500	1.010
2020/01/31 07:54:50.8	313.740	0.570	-0.500	1.010
2020/01/31 07:54:50.9	313.750	0.570	-0.490	1.010
2020/01/31 07:54:51.0	313.770	0.570	-0.480	1.010
2020/01/31 07:54:51.1	313.790	0.570	-0.460	1.010
2020/01/31 07:54:51.2	313.810	0.570	-0.440	1.010
2020/01/31 07:54:51.3	313.840	0.560	-0.430	1.000
2020/01/31 07:54:51.4	313.860	0.550	-0.410	0.990
2020/01/31 07:54:51.5	313.880	0.530	-0.380	0.980
2020/01/31 07:54:51.6	313.900	0.520	-0.360	0.970
2020/01/31 07:54:51.7	313.920	0.500	-0.330	0.960
2020/01/31 07:54:51.8	313.940	0.480	-0.300	0.950
2020/01/31 07:54:51.9	313.960	0.460	-0.260	0.930
2020/01/31 07:54:52.0	313.980	0.430	-0.230	0.920
2020/01/31 07:54:52.1	314.000	0.410	-0.200	0.900
2020/01/31 07:54:52.2	314.020	0.380	-0.160	0.890
2020/01/31 07:54:52.3	314.040	0.350	-0.120	0.860
2020/01/31 07:54:52.4	314.060	0.320	-0.090	0.850
2020/01/31 07:54:52.5	314.080	0.290	-0.050	0.830
2020/01/31 07:54:52.6	314.100	0.260	-0.020	0.810
2020/01/31 07:54:52.7	314.110	0.230	0.020	0.780
2020/01/31 07:54:52.8	314.130	0.200	0.050	0.760
2020/01/31 07:54:52.9	314.140	0.170	0.080	0.740
2020/01/31 07:54:53.0	314.160	0.130	0.110	0.710
2020/01/31 07:54:53.1	314.170	0.100	0.130	0.680
2020/01/31 07:54:53.2	314.190	0.070	0.160	0.650
2020/01/31 07:54:53.3	314.200	0.040	0.170	0.620
2020/01/31 07:54:53.4	314.210	0.010	0.190	0.590
2020/01/31 07:54:53.5	314.220	-0.020	0.210	0.560
2020/01/31 07:54:53.6	314.230	-0.040	0.220	0.530
2020/01/31 07:54:53.7	314.240	-0.070	0.230	0.490
2020/01/31 07:54:53.8	314.250	-0.090	0.240	0.460
2020/01/31 07:54:53.9	314.250	-0.110	0.240	0.430
2020/01/31 07:54:54.0	314.260	-0.130	0.240	0.390
2020/01/31 07:54:54.1	314.260	-0.150	0.240	0.360
2020/01/31 07:54:54.2	314.260	-0.170	0.240	0.330
2020/01/31 07:54:54.3	314.250	-0.180	0.240	0.290
2020/01/31 07:54:54.4	314.240	-0.190	0.230	0.260
2020/01/31 07:54:54.5	314.240	-0.200	0.220	0.230
2020/01/31 07:54:54.6	314.230	-0.210	0.220	0.200
2020/01/31 07:54:54.7	314.220	-0.220	0.200	0.170
2020/01/31 07:54:54.8	314.200	-0.220	0.190	0.150
2020/01/31 07:54:54.9	314.190	-0.230	0.180	0.120
2020/01/31 07:54:55.0	314.170	-0.230	0.160	0.100
2020/01/31 07:54:55.1	314.150	-0.230	0.150	0.080
2020/01/31 07:54:55.2	314.130	-0.230	0.130	0.060
2020/01/31 07:54:55.3	314.120	-0.230	0.110	0.030
2020/01/31 07:54:55.4	314.090	-0.220	0.090	0.010
2020/01/31 07:54:55.5	314.070	-0.220	0.070	-0.010
2020/01/31 07:54:55.6	314.050	-0.210	0.050	-0.030
2020/01/31 07:54:55.7	314.030	-0.210	0.030	-0.040
2020/01/31 07:54:55.8	314.000	-0.200	0.000	-0.060
2020/01/31 07:54:55.9	313.980	-0.190	-0.020	-0.080
2020/01/31 07:54:56.0	313.960	-0.180	-0.050	-0.100
2020/01/31 07:54:56.1	313.940	-0.170	-0.080	-0.120
2020/01/31 07:54:56.2	313.920	-0.160	-0.110	-0.130
2020/01/31 07:54:56.3	313.900	-0.160	-0.140	-0.150
2020/01/31 07:54:56.4	313.880	-0.150	-0.170	-0.170
2020/01/31 07:54:56.5	313.860	-0.140	-0.210	-0.190
2020/01/31 07:54:56.6	313.850	-0.130	-0.240	-0.210
2020/01/31 07:54:56.7	313.840	-0.120	-0.270	-0.220
2020/01/31 07:54:56.8	313.820	-0.110	-0.300	-0.240
2020/01/31 07:54:56.9	313.810	-0.110	-0.330	-0.260
2020/01/31 07:54:57.0	313.790	-0.100	-0.360	-0.270
2020/01/31 07:54:57.1	313.780	-0.100	-0.390	-0.290
2020/01/31 07:54:57.2	313.770	-0.090	-0.420	-0.300
2020/01/31 07:54:57.3	313.740	-0.090	-0.450	-0.320
2020/01/31 07:54:57.4	313.720	-0.080	-0.480	-0.330
2020/01/31 07:54:57.5	313.710	-0.080	-0.500	-0.340
2020/01/31 07:54:57.6	313.700	-0.080	-0.520	-0.350
2020/01/31 07:54:57.7	313.690	-0.080	-0.540	-0.360
2020/01/31 07:54:57.8	313.680	-0.080	-0.560	-0.360
2020/01/31 07:54:57.9	313.670	-0.080	-0.570	-0.370
2020/01/31 07:54:58.0	313.660	-0.080	-0.580	-0.370
2020/01/31 07:54:58.1	313.650	-0.090	-0.590	-0.370
2020/01/31 07:54:58.2	313.650	-0.090	-0.590	-0.370
2020/01/31 07:54:58.3	313.640	-0.090	-0.590	-0.370
2020/01/31 07:54:58.4	313.630	-0.100	-0.590	-0.360
2020/01/31 07:54:58.5	313.630	-0.100	-0.590	-0.360
2020/01/31 07:54:58.6	313.630	-0.110	-0.580	-0.350
2020/01/31 07:54:58.7	313.630	-0.120	-0.570	-0.330
2020/01/31 07:54:58.8	313.630	-0.120	-0.560	-0.320
2020/01/31 07:54:58.9	313.630	-0.130	-0.550	-0.300
2020/01/31 07:54:59.0	313.630	-0.140	-0.530	-0.290
2020/01/31 07:54:59.1	313.630	-0.150	-0.520	-0.270
2020/01/31 07:54:59.2	313.640	-0.160	-0.500	-0.250
2020/01/31 07:54:59.3	313.640	-0.160	-0.480	-0.220
2020/01/31 07:54:59.4	313.650	-0.170	-0.460	-0.200
2020/01/31 07:54:59.5	313.660	-0.180	-0.440	-0.180
2020/01/31 07:54:59.6	313.670	-0.180	-0.420	-0.150
2020/01/31 07:54:59.7	313.680	-0.190	-0.400	-0.130
2020/01/31 07:54:59.8	313.690	-0.200	-0.370	-0.100
2020/01/31 07:54:59.9	313.700	-0.200	-0.350	-0.080
2020/01/31 07:55:00.0	313.720	-0.210	-0.330	-0.050
2020/01/31 07:55:00.1	313.730	-0.210	-0.310	-0.020
2020/01/31 07:55:00.2	313.740	-0.210	-0.280	0.000
2020/01/31 07:55:00.3	313.760	-0.220	-0.260	0.030
2020/01/31 07:55:00.4	313.770	-0.220	-0.240	0.060
2020/01/31 07:55:00.5	313.790	-0.220	-0.220	0.090
2020/01/31 07:55:00.6	313.800	-0.220	-0.200	0.120
2020/01/31 07:55:00.7	313.810	-0.220	-0.180	0.140
2020/01/31 07:55:00.8	313.830	-0.210	-0.160	0.170
2020/01/31 07:55:00.9	313.840	-0.210	-0.140	0.200
2020/01/31 07:55:01.0	313.850	-0.210	-0.130	0.230
2020/01/31 07:55:01.1	313.860	-0.200	-0.120	0.260
2020/01/31 07:55:01.2	313.870	-0.190	-0.100	0.290
2020/01/31 07:55:01.3	313.890	-0.190	-0.090	0.320
2020/01/31 07:55:01.4	313.900	-0.180	-0.080	0.350
2020/01/31 07:55:01.5	313.910	-0.170	-0.070	0.380
2020/01/31 07:55:01.6	313.910	-0.160	-0.070	0.410
2020/01/31 07:55:01.7	313.920	-0.150	-0.060	0.440
2020/01/31 07:55:01.8	313.920	-0.140	-0.060	0.470
2020/01/31 07:55:01.9	313.930	-0.120	-0.060	0.500
2020/01/31 07:55:02.0	313.930	-0.110	-0.060	0.530
2020/01/31 07:55:02.1	313.930	-0.100	-0.070	0.560
2020/01/31 07:55:02.2	313.930	-0.080	-0.080	0.580
2020/01/31 07:55:02.3	313.940	-0.060	-0.090	0.610
2020/01/31 07:55:02.4	313.940	-0.050	-0.100	0.640
2020/01/31 07:55:02.5	313.940	-0.030	-0.110	0.660
2020/01/31 07:55:02.6	313.940	-0.010	-0.120	0.680
2020/01/31 07:55:02.7	313.940	0.010	-0.140	0.700
2020/01/31 07:55:02.8	313.940	0.030	-0.160	0.720
2020/01/31 07:55:02.9	313.950	0.050	-0.180	0.740
2020/01/31 07:55:03.0	313.950	0.070	-0.200	0.750
2020/01/31 07:55:03.1	313.950	0.090	-0.220	0.760
2020/01/31 07:55:03.2	313.960	0.110	-0.240	0.770
2020/01/31 07:55:03.3	313.960	0.140	-0.270	0.780
2020/01/31 07:55:03.4	313.970	0.160	-0.290	0.780
2020/01/31 07:55:03.5	313.970	0.180	-0.320	0.780
2020/01/31 07:55:03.6	313.980	0.210	-0.340	0.780
2020/01/31 07:55:03.7	313.980	0.230	-0.370	0.780
2020/01/31 07:55:03.8	313.980	0.250	-0.390	0.780
2020/01/31 07:55:03.9	313.990	0.280	-0.420	0.770
2020/01/31 07:55:04.0	313.990	0.300	-0.440	0.760
2020/01/31 07:55:04.1	314.000	0.320	-0.460	0.750
2020/01/31 07:55:04.2	314.000	0.340	-0.480	0.740
2020/01/31 07:55:04.3	314.020	0.360	-0.500	0.730
2020/01/31 07:55:04.4	314.020	0.380	-0.520	0.710
2020/01/31 07:55:04.5	314.020	0.400	-0.530	0.700
2020/01/31 07:55:04.6	314.030	0.420	-0.540	0.690
2020/01/31 07:55:04.7	314.030	0.430	-0.550	0.670
2020/01/31 07:55:04.8	314.030	0.450	-0.550	0.660
2020/01/31 07:55:04.9	314.030	0.460	-0.560	0.650
2020/01/31 07:55:05.0	314.040	0.470	-0.550	0.630
2020/01/31 07:55:05.1	314.030	0.480	-0.550	0.620
2020/01/31 07:55:05.2	314.030	0.480	-0.540	0.610
2020/01/31 07:55:05.3	314.030	0.490	-0.530	0.600
2020/01/31 07:55:05.4	314.030	0.490	-0.510	0.590
2020/01/31 07:55:05.5	314.020	0.490	-0.490	0.570
2020/01/31 07:55:05.6	314.020	0.480	-0.470	0.560
2020/01/31 07:55:05.7	314.010	0.480	-0.440	0.550
2020/01/31 07:55:05.8	314.010	0.470	-0.410	0.550
2020/01/31 07:55:05.9	314.000	0.450	-0.380	0.540
2020/01/31 07:55:06.0	313.990	0.440	-0.340	0.530
2020/01/31 07:55:06.1	313.990	0.420	-0.300	0.520
2020/01/31 07:55:06.2	313.980	0.410	-0.270	0.510
2020/01/31 07:55:06.3	313.980	0.390	-0.230	0.500
2020/01/31 07:55:06.4	313.970	0.360	-0.190	0.500
2020/01/31 07:55:06.5	313.960	0.340	-0.140	0.490
2020/01/31 07:55:06.6	313.950	0.310	-0.100	0.480
2020/01/31 07:55:06.7	313.950	0.290	-0.060	0.470
2020/01/31 07:55:06.8	313.940	0.260	-0.020	0.470
2020/01/31 07:55:06.9	313.930	0.230	0.020	0.460
2020/01/31 07:55:07.0	313.920	0.200	0.060	0.450
2020/01/31 07:55:07.1	313.920	0.170	0.100	0.440
2020/01/31 07:55:07.2	313.910	0.140	0.130	0.440
2020/01/31 07:55:07.3	313.910	0.110	0.170	0.430
2020/01/31 07:55:07.4	313.900	0.080	0.200	0.420
2020/01/31 07:55:07.5	313.890	0.050	0.230	0.410
2020/01/31 07:55:07.6	313.880	0.020	0.250	0.400
2020/01/31 07:55:07.7	313.880	-0.010	0.270	0.390
2020/01/31 07:55:07.8	313.870	-0.040	0.290	0.380
2020/01/31 07:55:07.9	313.860	-0.070	0.310	0.360
2020/01/31 07:55:08.0	313.850	-0.100	0.320	0.350
2020/01/31 07:55:08.1	313.850	-0.130	0.330	0.340
2020/01/31 07:55:08.2	313.840	-0.150	0.330	0.320
2020/01/31 07:55:08.3	313.820	-0.170	0.330	0.300
2020/01/31 07:55:08.4	313.810	-0.200	0.320	0.280
2020/01/31 07:55:08.5	313.800	-0.220	0.310	0.260
2020/01/31 07:55:08.6	313.800	-0.240	0.300	0.240
2020/01/31 07:55:08.7	313.790	-0.250	0.280	0.220
2020/01/31 07:55:08.8	313.780	-0.270	0.250	0.200
2020/01/31 07:55:08.9	313.780	-0.280	0.220	0.180
2020/01/31 07:55:09.0	313.770	-0.290	0.190	0.160
2020/01/31 07:55:09.1	313.770	-0.300	0.160	0.130
2020/01/31 07:55:09.2	313.770	-0.310	0.120	0.110
2020/01/31 07:55:09.3	313.760	-0.310	0.080	0.080
2020/01/31 07:55:09.4	313.760	-0.320	0.040	0.060
2020/01/31 07:55:09.5	313.760	-0.320	-0.010	0.040
2020/01/31 07:55:09.6	313.760	-0.320	-0.060	0.010
2020/01/31 07:55:09.7	313.760	-0.310	-0.110	-0.010
2020/01/31 07:55:09.8	313.770	-0.310	-0.160	-0.040
2020/01/31 07:55:09.9	313.770	-0.300	-0.210	-0.060
2020/01/31 07:55:10.0	313.780	-0.290	-0.260	-0.090
2020/01/31 07:55:10.1	313.790	-0.280	-0.310	-0.110
2020/01/31 07:55:10.2	313.790	-0.270	-0.360	-0.140
2020/01/31 07:55:10.3	313.800	-0.260	-0.420	-0.160
2020/01/31 07:55:10.4	313.810	-0.250	-0.460	-0.190
2020/01/31 07:55:10.5	313.830	-0.230	-0.510	-0.210
2020/01/31 07:55:10.6	313.840	-0.220	-0.560	-0.240
2020/01/31 07:55:10.7	313.850	-0.200	-0.600	-0.260
2020/01/31 07:55:10.8	313.870	-0.190	-0.640	-0.280
2020/01/31 07:55:10.9	313.880	-0.170	-0.680	-0.300
2020/01/31 07:55:11.0	313.900	-0.160	-0.710	-0.330
2020/01/31 07:55:11.1	313.910	-0.140	-0.740	-0.350
2020/01/31 07:55:11.2	313.930	-0.130	-0.770	-0.360
2020/01/31 07:55:11.3	313.930	-0.110	-0.790	-0.380
2020/01/31 07:55:11.4	313.950	-0.100	-0.810	-0.400
2020/01/31 07:55:11.5	313.960	-0.090	-0.820	-0.410
2020/01/31 07:55:11.6	313.980	-0.070	-0.830	-0.420
2020/01/31 07:55:11.7	313.990	-0.060	-0.840	-0.430
2020/01/31 07:55:11.8	314.000	-0.050	-0.840	-0.430
2020/01/31 07:55:11.9	314.010	-0.040	-0.830	-0.430
2020/01/31 07:55:12.0	314.020	-0.030	-0.820	-0.430
2020/01/31 07:55:12.1	314.030	-0.020	-0.810	-0.430
2020/01/31 07:55:12.2	314.030	-0.020	-0.790	-0.420
2020/01/31 07:55:12.3	314.040	-0.010	-0.770	-0.410
2020/01/31 07:55:12.4	314.040	-0.010	-0.740	-0.400
2020/01/31 07:55:12.5	314.050	-0.010	-0.710	-0.380
2020/01/31 07:55:12.6	314.050	-0.010	-0.680	-0.360
2020/01/31 07:55:12.7	314.050	-0.010	-0.650	-0.340
2020/01/31 07:55:12.8	314.050	-0.010	-0.610	-0.320
2020/01/31 07:55:12.9	314.060	-0.020	-0.570	-0.300
2020/01/31 07:55:13.0	314.060	-0.020	-0.530	-0.270
2020/01/31 07:55:13.1	314.060	-0.030	-0.480	-0.240
2020/01/31 07:55:13.2	314.060	-0.040	-0.440	-0.210
2020/01/31 07:55:13.3	314.050	-0.040	-0.400	-0.180
2020/01/31 07:55:13.4	314.050	-0.050	-0.360	-0.140
2020/01/31 07:55:13.5	314.050	-0.060	-0.310	-0.110
2020/01/31 07:55:13.6	314.050	-0.070	-0.270	-0.080
2020/01/31 07:55:13.7	314.050	-0.080	-0.230	-0.040
2020/01/31 07:55:13.8	314.060	-0.090	-0.190	-0.000
2020/01/31 07:55:13.9	314.060	-0.100	-0.150	0.030
2020/01/31 07:55:14.0	314.060	-0.110	-0.110	0.070
2020/01/31 07:55:14.1	314.060	-0.120	-0.070	0.110
2020/01/31 07:55:14.2	314.060	-0.120	-0.040	0.140
2020/01/31 07:55:14.3	314.060	-0.130	-0.000	0.180
2020/01/31 07:55:14.4	314.060	-0.140	0.030	0.220
2020/01/31 07:55:14.5	314.060	-0.140	0.060	0.260
2020/01/31 07:55:14.6	314.060	-0.150	0.080	0.290
2020/01/31 07:55:14.7	314.050	-0.150	0.110	0.330
2020/01/31 07:55:14.8	314.050	-0.160	0.130	0.370
2020/01/31 07:55:14.9	314.050	-0.160	0.150	0.410
2020/01/31 07:55:15.0	314.050	-0.160	0.170	0.450
2020/01/31 07:55:15.1	314.040	-0.160	0.180	0.490
2020/01/31 07:55:15.2	314.040	-0.160	0.190	0.520
2020/01/31 07:55:15.3	314.040	-0.160	0.200	0.560
2020/01/31 07:55:15.4	314.030	-0.150	0.200	0.600
2020/01/31 07:55:15.5	314.030	-0.150	0.210	0.630
2020/01/31 07:55:15.6	314.020	-0.140	0.210	0.660
2020/01/31 07:55:15.7	314.020	-0.140	0.200	0.690
2020/01/31 07:55:15.8	314.010	-0.130	0.190	0.710
2020/01/31 07:55:15.9	314.010	-0.120	0.180	0.740
2020/01/31 07:55:16.0	314.000	-0.110	0.170	0.760
2020/01/31 07:55:16.1	314.000	-0.100	0.150	0.770
2020/01/31 07:55:16.2	313.990	-0.090	0.130	0.790
2020/01/31 07:55:16.3	313.990	-0.070	0.100	0.790
2020/01/31 07:55:16.4	313.990	-0.060	0.080	0.800
2020/01/31 07:55:16.5	313.980	-0.050	0.050	0.810
2020/01/31 07:55:16.6	313.980	-0.040	0.010	0.810
2020/01/31 07:55:16.7	313.980	-0.020	-0.020	0.810
2020/01/31 07:55:16.8	313.970	-0.010	-0.050	0.800
2020/01/31 07:55:16.9	313.970	0.010	-0.090	0.790
2020/01/31 07:55:17.0	313.970	0.020	-0.130	0.780
2020/01/31 07:55:17.1	313.970	0.030	-0.160	0.770
2020/01/31 07:55:17.2	313.960	0.050	-0.200	0.760
2020/01/31 07:55:17.3	313.970	0.060	-0.240	0.740
2020/01/31 07:55:17.4	313.970	0.070	-0.270	0.720
2020/01/31 07:55:17.5	313.960	0.090	-0.310	0.700
2020/01/31 07:55:17.6	313.960	0.100	-0.340	0.690
2020/01/31 07:55:17.7	313.960	0.110	-0.360	0.670
2020/01/31 07:55:17.8	313.960	0.120	-0.390	0.650
2020/01/31 07:55:17.9	313.960	0.130	-0.410	0.630
2020/01/31 07:55:18.0	313.950	0.140	-0.430	0.610
2020/01/31 07:55:18.1	313.950	0.150	-0.450	0.590
2020/01/31 07:55:18.2	313.950	0.150	-0.460	0.570
2020/01/31 07:55:18.3	313.950	0.160	-0.470	0.550
2020/01/31 07:55:18.4	313.950	0.160	-0.480	0.530
2020/01/31 07:55:18.5	313.950	0.170	-0.480	0.510
2020/01/31 07:55:18.6	313.950	0.170	-0.480	0.500
2020/01/31 07:55:18.7	313.950	0.170	-0.480	0.480
2020/01/31 07:55:18.8	313.940	0.170	-0.470	0.460
2020/01/31 07:55:18.9	313.940	0.170	-0.460	0.440
2020/01/31 07:55:19.0	313.940	0.170	-0.450	0.420
2020/01/31 07:55:19.1	313.940	0.170	-0.440	0.410
2020/01/31 07:55:19.2	313.940	0.160	-0.420	0.390
2020/01/31 07:55:19.3	313.940	0.160	-0.410	0.370
2020/01/31 07:55:19.4	313.940	0.150	-0.390	0.350
2020/01/31 07:55:19.5	313.940	0.150	-0.360	0.340
2020/01/31 07:55:19.6	313.940	0.140	-0.340	0.320
2020/01/31 07:55:19.7	313.940	0.130	-0.320	0.310
2020/01/31 07:55:19.8	313.940	0.120	-0.290	0.290
2020/01/31 07:55:19.9	313.940	0.110	-0.270	0.280
2020/01/31 07:55:20.0	313.940	0.110	-0.240	0.260
2020/01/31 07:55:20.1	313.940	0.100	-0.220	0.250
2020/01/31 07:55:20.2	313.940	0.090	-0.190	0.230
2020/01/31 07:55:20.3	313.950	0.080	-0.170	0.220
2020/01/31 07:55:20.4	313.950	0.070	-0.150	0.200
2020/01/31 07:55:20.5	313.950	0.060	-0.130	0.190
2020/01/31 07:55:20.6	313.960	0.050	-0.110	0.170
2020/01/31 07:55:20.7	313.960	0.040	-0.100	0.150
2020/01/31 07:55:20.8	313.970	0.040	-0.080	0.140
2020/01/31 07:55:20.9	313.970	0.030	-0.070	0.120
2020/01/31 07:55:21.0	313.980	0.020	-0.070	0.090
2020/01/31 07:55:21.1	313.990	0.020	-0.060	0.070
2020/01/31 07:55:21.2	314.000	0.010	-0.060	0.050
2020/01/31 07:55:21.3	314.010	0.010	-0.060	0.020
2020/01/31 07:55:21.4	314.020	0.010	-0.060	0.000
2020/01/31 07:55:21.5	314.030	0.010	-0.060	-0.020
2020/01/31 07:55:21.6	314.040	0.010	-0.070	-0.050
2020/01/31 07:55:21.7	314.050	0.010	-0.080	-0.070
2020/01/31 07:55:21.8	314.060	0.010	-0.090	-0.090
2020/01/31 07:55:21.9	314.070	0.010	-0.110	-0.110
2020/01/31 07:55:22.0	314.080	0.010	-0.120	-0.130
2020/01/31 07:55:22.1	314.090	0.020	-0.140	-0.150
2020/01/31 07:55:22.2	314.100	0.020	-0.150	-0.170
2020/01/31 07:55:22.3	314.100	0.020	-0.170	-0.180
2020/01/31 07:55:22.4	314.110	0.030	-0.190	-0.190
2020/01/31 07:55:22.5	314.120	0.030	-0.210	-0.200
2020/01/31 07:55:22.6	314.120	0.040	-0.230	-0.210
2020/01/31 07:55:22.7	314.130	0.040	-0.250	-0.220
2020/01/31 07:55:22.8	314.140	0.050	-0.270	-0.230
2020/01/31 07:55:22.9	314.150	0.050	-0.290	-0.230
2020/01/31 07:55:23.0	314.170	0.060	-0.320	-0.240
2020/01/31 07:55:23.1	314.180	0.060	-0.340	-0.240
2020/01/31 07:55:23.2	314.190	0.060	-0.360	-0.240
2020/01/31 07:55:23.3	314.210	0.060	-0.380	-0.250
2020/01/31 07:55:23.4	314.220	0.070	-0.400	-0.250
2020/01/31 07:55:23.5	314.240	0.070	-0.430	-0.250
2020/01/31 07:55:23.6	314.260	0.070	-0.450	-0.250
2020/01/31 07:55:23.7	314.280	0.070	-0.470	-0.250
2020/01/31 07:55:23.8	314.300	0.060	-0.490	-0.250
2020/01/31 07:55:23.9	314.320	0.060	-0.510	-0.240
2020/01/31 07:55:24.0	314.340	0.060	-0.530	-0.240
2020/01/31 07:55:24.1	314.360	0.050	-0.550	-0.240
2020/01/31 07:55:24.2	314.380	0.050	-0.560	-0.230
2020/01/31 07:55:24.3	314.390	0.040	-0.580	-0.220
2020/01/31 07:55:24.4	314.410	0.030	-0.590	-0.210
2020/01/31 07:55:24.5	314.430	0.020	-0.590	-0.200
2020/01/31 07:55:24.6	314.450	0.010	-0.600	-0.190
2020/01/31 07:55:24.7	314.460	-0.000	-0.600	-0.170
2020/01/31 07:55:24.8	314.480	-0.010	-0.600	-0.150
2020/01/31 07:55:24.9	314.490	-0.030	-0.590	-0.130
2020/01/31 07:55:25.0	314.500	-0.040	-0.580	-0.110
2020/01/31 07:55:25.1	314.510	-0.050	-0.570	-0.080
2020/01/31 07:55:25.2	314.510	-0.070	-0.550	-0.050
2020/01/31 07:55:25.3	314.510	-0.080	-0.540	-0.030
2020/01/31 07:55:25.4	314.510	-0.100	-0.510	0.000
2020/01/31 07:55:25.5	314.520	-0.110	-0.490	0.030
2020/01/31 07:55:25.6	314.520	-0.120	-0.460	0.070
2020/01/31 07:55:25.7	314.520	-0.140	-0.420	0.100
2020/01/31 07:55:25.8	314.520	-0.150	-0.390	0.140
2020/01/31 07:55:25.9	314.520	-0.160	-0.350	0.170
2020/01/31 07:55:26.0	314.520	-0.170	-0.310	0.210
2020/01/31 07:55:26.1	314.510	-0.180	-0.270	0.240
2020/01/31 07:55:26.2	314.510	-0.190	-0.230	0.270
2020/01/31 07:55:26.3	314.510	-0.200	-0.190	0.310
2020/01/31 07:55:26.4	314.500	-0.200	-0.150	0.340
2020/01/31 07:55:26.5	314.490	-0.210	-0.110	0.380
2020/01/31 07:55:26.6	314.490	-0.210	-0.070	0.410
2020/01/31 07:55:26.7	314.480	-0.210	-0.020	0.440
2020/01/31 07:55:26.8	314.470	-0.210	0.020	0.480
2020/01/31 07:55:26.9	314.450	-0.210	0.050	0.510
2020/01/31 07:55:27.0	314.440	-0.210	0.090	0.540
2020/01/31 07:55:27.1	314.430	-0.210	0.120	0.570
2020/01/31 07:55:27.2	314.410	-0.200	0.160	0.600
2020/01/31 07:55:27.3	314.400	-0.190	0.180	0.630
2020/01/31 07:55:27.4	314.380	-0.190	0.210	0.660
2020/01/31 07:55:27.5	314.360	-0.180	0.230	0.690
2020/01/31 07:55:27.6	314.340	-0.170	0.250	0.710
2020/01/31 07:55:27.7	314.320	-0.150	0.260	0.730
2020/01/31 07:55:27.8	314.300	-0.140	0.270	0.750
2020/01/31 07:55:27.9	314.280	-0.120	0.280	0.770
2020/01/31 07:55:28.0	314.260	-0.110	0.280	0.790
2020/01/31 07:55:28.1	314.240	-0.090	0.280	0.800
2020/01/31 07:55:28.2	314.220	-0.070	0.270	0.810
2020/01/31 07:55:28.3	314.200	-0.050	0.260	0.820
2020/01/31 07:55:28.4	314.170	-0.030	0.240	0.830
2020/01/31 07:55:28.5	314.150	-0.010	0.230	0.830
2020/01/31 07:55:28.6	314.130	0.010	0.210	0.830
2020/01/31 07:55:28.7	314.110	0.030	0.180	0.830
2020/01/31 07:55:28.8	314.090	0.050	0.160	0.830
2020/01/31 07:55:28.9	314.060	0.080	0.130	0.830
2020/01/31 07:55:29.0	314.040	0.100	0.110	0.830
2020/01/31 07:55:29.1	314.020	0.120	0.080	0.820
2020/01/31 07:55:29.2	314.000	0.150	0.050	0.810
2020/01/31 07:55:29.3	313.980	0.170	0.020	0.810
2020/01/31 07:55:29.4	313.950	0.190	-0.010	0.800
2020/01/31 07:55:29.5	313.930	0.220	-0.040	0.790
2020/01/31 07:55:29.6	313.900	0.240	-0.070	0.780
2020/01/31 07:55:29.7	313.880	0.260	-0.100	0.770
2020/01/31 07:55:29.8	313.850	0.280	-0.130	0.760
2020/01/31 07:55:29.9	313.830	0.290	-0.160	0.750
2020/01/31 07:55:30.0	313.810	0.310	-0.180	0.730
2020/01/31 07:55:30.1	313.790	0.320	-0.210	0.720
2020/01/31 07:55:30.2	313.760	0.340	-0.240	0.710
2020/01/31 07:55:30.3	313.740	0.350	-0.260	0.690
2020/01/31 07:55:30.4	313.720	0.360	-0.290	0.670
2020/01/31 07:55:30.5	313.710	0.360	-0.310	0.660
2020/01/31 07:55:30.6	313.690	0.370	-0.330	0.640
2020/01/31 07:55:30.7	313.670	0.370	-0.360	0.620
2020/01/31 07:55:30.8	313.650	0.370	-0.380	0.600
2020/01/31 07:55:30.9	313.640	0.370	-0.390	0.570
2020/01/31 07:55:31.0	313.630	0.360	-0.410	0.550
2020/01/31 07:55:31.1	313.610	0.350	-0.430	0.520
2020/01/31 07:55:31.2	313.600	0.340	-0.450	0.490
2020/01/31 07:55:31.3	313.600	0.330	-0.460	0.450
2020/01/31 07:55:31.4	313.590	0.310	-0.470	0.420
2020/01/31 07:55:31.5	313.590	0.290	-0.490	0.380
2020/01/31 07:55:31.6	313.590	0.270	-0.500	0.330
2020/01/31 07:55:31.7	313.590	0.250	-0.510	0.290
2020/01/31 07:55:31.8	313.590	0.230	-0.520	0.240
2020/01/31 07:55:31.9	313.590	0.200	-0.530	0.190
2020/01/31 07:55:32.0	313.600	0.180	-0.530	0.140
2020/01/31 07:55:32.1	313.610	0.150	-0.540	0.090
2020/01/31 07:55:32.2	313.630	0.120	-0.540	0.030
2020/01/31 07:55:32.3	313.630	0.090	-0.550	-0.030
2020/01/31 07:55:32.4	313.650	0.060	-0.550	-0.090
2020/01/31 07:55:32.5	313.670	0.030	-0.550	-0.140
2020/01/31 07:55:32.6	313.700	0.000	-0.550	-0.200
2020/01/31 07:55:32.7	313.720	-0.030	-0.550	-0.260
2020/01/31 07:55:32.8	313.750	-0.060	-0.550	-0.320
2020/01/31 07:55:32.9	313.790	-0.090	-0.540	-0.380
2020/01/31 07:55:33.0	313.820	-0.110	-0.540	-0.440
2020/01/31 07:55:33.1	313.860	-0.140	-0.540	-0.490
2020/01/31 07:55:33.2	313.900	-0.170	-0.530	-0.550
2020/01/31 07:55:33.3	313.930	-0.190	-0.530	-0.600
2020/01/31 07:55:33.4	313.980	-0.210	-0.520	-0.650
2020/01/31 07:55:33.5	314.020	-0.230	-0.510	-0.700
2020/01/31 07:55:33.6	314.070	-0.250	-0.510	-0.750
2020/01/31 07:55:33.7	314.120	-0.270	-0.500	-0.790
2020/01/31 07:55:33.8	314.170	-0.280	-0.490	-0.840
2020/01/31 07:55:33.9	314.220	-0.300	-0.490	-0.880
2020/01/31 07:55:34.0	314.270	-0.310	-0.480	-0.910
2020/01/31 07:55:34.1	314.320	-0.320	-0.470	-0.950
2020/01/31 07:55:34.2	314.370	-0.330	-0.470	-0.970
2020/01/31 07:55:34.3	314.410	-0.330	-0.460	-1.000
2020/01/31 07:55:34.4	314.460	-0.340	-0.460	-1.020
2020/01/31 07:55:34.5	314.510	-0.340	-0.450	-1.030
2020/01/31 07:55:34.6	314.560	-0.340	-0.450	-1.050
2020/01/31 07:55:34.7	314.600	-0.340	-0.450	-1.050
2020/01/31 07:55:34.8	314.650	-0.330	-0.440	-1.050
2020/01/31 07:55:34.9	314.690	-0.330	-0.440	-1.050
2020/01/31 07:55:35.0	314.730	-0.320	-0.430	-1.040
2020/01/31 07:55:35.1	314.770	-0.320	-0.430	-1.020
2020/01/31 07:55:35.2	314.800	-0.310	-0.430	-1.000
2020/01/31 07:55:35.3	314.840	-0.300	-0.420	-0.980
2020/01/31 07:55:35.4	314.870	-0.290	-0.410	-0.950
2020/01/31 07:55:35.5	314.890	-0.280	-0.410	-0.920
2020/01/31 07:55:35.6	314.920	-0.260	-0.400	-0.890
2020/01/31 07:55:35.7	314.930	-0.250	-0.390	-0.850
2020/01/31 07:55:35.8	314.950	-0.240	-0.380	-0.800
2020/01/31 07:55:35.9	314.960	-0.220	-0.370	-0.760
2020/01/31 07:55:36.0	314.970	-0.210	-0.360	-0.710
2020/01/31 07:55:36.1	314.980	-0.200	-0.340	-0.660
2020/01/31 07:55:36.2	314.980	-0.180	-0.330	-0.600
2020/01/31 07:55:36.3	314.980	-0.170	-0.310	-0.550
2020/01/31 07:55:36.4	314.970	-0.160	-0.290	-0.490
2020/01/31 07:55:36.5	314.960	-0.140	-0.260	-0.420
2020/01/31 07:55:36.6	314.950	-0.130	-0.240	-0.360
2020/01/31 07:55:36.7	314.930	-0.120	-0.210	-0.290
2020/01/31 07:55:36.8	314.910	-0.110	-0.190	-0.220
2020/01/31 07:55:36.9	314.890	-0.090	-0.160	-0.150
2020/01/31 07:55:37.0	314.860	-0.080	-0.130	-0.070
2020/01/31 07:55:37.1	314.830	-0.070	-0.100	0.000
2020/01/31 07:55:37.2	314.790	-0.060	-0.070	0.080
2020/01/31 07:55:37.3	314.760	-0.060	-0.030	0.150
2020/01/31 07:55:37.4	314.720	-0.050	-0.000	0.230
2020/01/31 07:55:37.5	314.680	-0.040	0.030	0.300
2020/01/31 07:55:37.6	314.640	-0.030	0.060	0.380
2020/01/31 07:55:37.7	314.590	-0.020	0.090	0.450
2020/01/31 07:55:37.8	314.550	-0.020	0.120	0.520
2020/01/31 07:55:37.9	314.500	-0.010	0.150	0.590
2020/01/31 07:55:38.0	314.450	-0.000	0.180	0.650
2020/01/31 07:55:38.1	314.400	0.010	0.210	0.720
2020/01/31 07:55:38.2	314.360	0.010	0.230	0.780
2020/01/31 07:55:38.3	314.330	0.020	0.250	0.840
2020/01/31 07:55:38.4	314.280	0.030	0.270	0.890
2020/01/31 07:55:38.5	314.230	0.040	0.280	0.940
2020/01/31 07:55:38.6	314.180	0.050	0.300	0.990
2020/01/31 07:55:38.7	314.140	0.060	0.310	1.030
2020/01/31 07:55:38.8	314.090	0.070	0.320	1.070
2020/01/31 07:55:38.9	314.050	0.080	0.320	1.110
2020/01/31 07:55:39.0	314.010	0.090	0.320	1.140
2020/01/31 07:55:39.1	313.960	0.100	0.320	1.160
2020/01/31 07:55:39.2	313.920	0.120	0.320	1.190
2020/01/31 07:55:39.3	313.900	0.130	0.310	1.210
2020/01/31 07:55:39.4	313.860	0.140	0.300	1.220
2020/01/31 07:55:39.5	313.820	0.160	0.280	1.230
2020/01/31 07:55:39.6	313.790	0.170	0.270	1.240
2020/01/31 07:55:39.7	313.750	0.190	0.250	1.240
2020/01/31 07:55:39.8	313.720	0.200	0.240	1.250
2020/01/31 07:55:39.9	313.680	0.220	0.210	1.240
2020/01/31 07:55:40.0	313.650	0.240	0.190	1.240
2020/01/31 07:55:40.1	313.620	0.250	0.160	1.230
2020/01/31 07:55:40.2	313.590	0.270	0.140	1.210
2020/01/31 07:55:40.3	313.570	0.280	0.110	1.190
2020/01/31 07:55:40.4	313.550	0.300	0.080	1.180
2020/01/31 07:55:40.5	313.520	0.310	0.050	1.150
2020/01/31 07:55:40.6	313.500	0.330	0.010	1.130
2020/01/31 07:55:40.7	313.480	0.340	-0.020	1.100
2020/01/31 07:55:40.8	313.460	0.350	-0.060	1.070
2020/01/31 07:55:40.9	313.440	0.360	-0.090	1.040
2020/01/31 07:55:41.0	313.420	0.370	-0.120	1.010
2020/01/31 07:55:41.1	313.400	0.380	-0.160	0.970
2020/01/31 07:55:41.2	313.390	0.380	-0.190	0.940
2020/01/31 07:55:41.3	313.380	0.380	-0.230	0.900
2020/01/31 07:55:41.4	313.360	0.390	-0.260	0.860
2020/01/31 07:55:41.5	313.350	0.390	-0.290	0.820
2020/01/31 07:55:41.6	313.340	0.380	-0.320	0.780
2020/01/31 07:55:41.7	313.330	0.380	-0.350	0.740
2020/01/31 07:55:41.8	313.320	0.370	-0.380	0.700
2020/01/31 07:55:41.9	313.320	0.370	-0.410	0.650
2020/01/31 07:55:42.0	313.310	0.360	-0.430	0.610
2020/01/31 07:55:42.1	313.310	0.340	-0.450	0.560
2020/01/31 07:55:42.2	313.310	0.330	-0.480	0.510
2020/01/31 07:55:42.3	313.300	0.310	-0.500	0.460
2020/01/31 07:55:42.4	313.310	0.300	-0.520	0.410
2020/01/31 07:55:42.5	313.310	0.280	-0.540	0.360
2020/01/31 07:55:42.6	313.310	0.260	-0.550	0.310
2020/01/31 07:55:42.7	313.320	0.230	-0.570	0.260
2020/01/31 07:55:42.8	313.330	0.210	-0.590	0.200
2020/01/31 07:55:42.9	313.350	0.190	-0.600	0.150
2020/01/31 07:55:43.0	313.360	0.160	-0.620	0.090
2020/01/31 07:55:43.1	313.380	0.140	-0.630	0.040
2020/01/31 07:55:43.2	313.400	0.110	-0.650	-0.020
2020/01/31 07:55:43.3	313.420	0.090	-0.660	-0.080
2020/01/31 07:55:43.4	313.450	0.060	-0.670	-0.130
2020/01/31 07:55:43.5	313.480	0.040	-0.690	-0.190
2020/01/31 07:55:43.6	313.510	0.010	-0.700	-0.250
2020/01/31 07:55:43.7	313.540	-0.010	-0.720	-0.300
2020/01/31 07:55:43.8	313.570	-0.030	-0.730	-0.360
2020/01/31 07:55:43.9	313.610	-0.060	-0.750	-0.410
2020/01/31 07:55:44.0	313.640	-0.080	-0.760	-0.470
2020/01/31 07:55:44.1	313.680	-0.100	-0.780	-0.520
2020/01/31 07:55:44.2	313.720	-0.120	-0.790	-0.570
2020/01/31 07:55:44.3	313.750	-0.140	-0.800	-0.620
2020/01/31 07:55:44.4	313.790	-0.160	-0.810	-0.660
2020/01/31 07:55:44.5	313.830	-0.170	-0.820	-0.710
2020/01/31 07:55:44.6	313.870	-0.190	-0.830	-0.750
2020/01/31 07:55:44.7	313.910	-0.210	-0.840	-0.780
2020/01/31 07:55:44.8	313.960	-0.220	-0.840	-0.820
2020/01/31 07:55:44.9	314.000	-0.230	-0.840	-0.850
2020/01/31 07:55:45.0	314.040	-0.240	-0.840	-0.880
2020/01/31 07:55:45.1	314.090	-0.250	-0.840	-0.910
2020/01/31 07:55:45.2	314.130	-0.260	-0.840	-0.930
2020/01/31 07:55:45.3	314.160	-0.270	-0.830	-0.960
2020/01/31 07:55:45.4	314.210	-0.280	-0.820	-0.970
2020/01/31 07:55:45.5	314.250	-0.290	-0.810	-0.990
2020/01/31 07:55:45.6	314.290	-0.290	-0.790	-1.000
2020/01/31 07:55:45.7	314.330	-0.300	-0.780	-1.000
2020/01/31 07:55:45.8	314.370	-0.300	-0.760	-1.010
2020/01/31 07:55:45.9	314.410	-0.300	-0.740	-1.010
2020/01/31 07:55:46.0	314.450	-0.310	-0.710	-1.000
2020/01/31 07:55:46.1	314.490	-0.310	-0.680	-0.990
2020/01/31 07:55:46.2	314.520	-0.310	-0.650	-0.980
2020/01/31 07:55:46.3	314.550	-0.310	-0.620	-0.960
2020/01/31 07:55:46.4	314.580	-0.310	-0.590	-0.940
2020/01/31 07:55:46.5	314.610	-0.310	-0.550	-0.920
2020/01/31 07:55:46.6	314.640	-0.310	-0.510	-0.890
2020/01/31 07:55:46.7	314.670	-0.310	-0.470	-0.860
2020/01/31 07:55:46.8	314.690	-0.310	-0.420	-0.820
2020/01/31 07:55:46.9	314.710	-0.310	-0.380	-0.790
2020/01/31 07:55:47.0	314.730	-0.310	-0.330	-0.750
2020/01/31 07:55:47.1	314.750	-0.310	-0.280	-0.700
2020/01/31 07:55:47.2	314.760	-0.310	-0.230	-0.650
2020/01/31 07:55:47.3	314.750	-0.310	-0.180	-0.600
2020/01/31 07:55:47.4	314.760	-0.300	-0.130	-0.550
2020/01/31 07:55:47.5	314.760	-0.300	-0.080	-0.490
2020/01/31 07:55:47.6	314.760	-0.300	-0.030	-0.430
2020/01/31 07:55:47.7	314.760	-0.300	0.020	-0.370
2020/01/31 07:55:47.8	314.760	-0.290	0.070	-0.310
2020/01/31 07:55:47.9	314.750	-0.290	0.120	-0.240
2020/01/31 07:55:48.0	314.740	-0.280	0.170	-0.170
2020/01/31 07:55:48.1	314.720	-0.280	0.220	-0.100
2020/01/31 07:55:48.2	314.700	-0.270	0.270	-0.030
2020/01/31 07:55:48.3	314.680	-0.270	0.320	0.050
2020/01/31 07:55:48.4	314.650	-0.260	0.370	0.130
2020/01/31 07:55:48.5	314.630	-0.260	0.420	0.210
2020/01/31 07:55:48.6	314.600	-0.250	0.460	0.290
2020/01/31 07:55:48.7	314.560	-0.240	0.500	0.370
2020/01/31 07:55:48.8	314.530	-0.230	0.540	0.450
2020/01/31 07:55:48.9	314.490	-0.220	0.580	0.530
2020/01/31 07:55:49.0	314.450	-0.220	0.610	0.610
2020/01/31 07:55:49.1	314.410	-0.210	0.650	0.690
2020/01/31 07:55:49.2	314.360	-0.200	0.670	0.770
2020/01/31 07:55:49.3	314.330	-0.190	0.700	0.850
2020/01/31 07:55:49.4	314.280	-0.170	0.720	0.920
2020/01/31 07:55:49.5	314.230	-0.160	0.740	0.990
2020/01/31 07:55:49.6	314.180	-0.150	0.750	1.050
2020/01/31 07:55:49.7	314.120	-0.140	0.750	1.120
2020/01/31 07:55:49.8	314.070	-0.120	0.750	1.170
2020/01/31 07:55:49.9	314.020	-0.110	0.750	1.230
2020/01/31 07:55:50.0	313.960	-0.100	0.740	1.280
2020/01/31 07:55:50.1	313.900	-0.080	0.720	1.320
2020/01/31 07:55:50.2	313.840	-0.060	0.700	1.360
2020/01/31 07:55:50.3	313.800	-0.050	0.670	1.400
2020/01/31 07:55:50.4	313.740	-0.030	0.640	1.430
2020/01/31 07:55:50.5	313.680	-0.010	0.600	1.450
2020/01/31 07:55:50.6	313.620	0.010	0.560	1.470
2020/01/31 07:55:50.7	313.570	0.020	0.520	1.490
2020/01/31 07:55:50.8	313.510	0.040	0.470	1.500
2020/01/31 07:55:50.9	313.450	0.060	0.420	1.510
2020/01/31 07:55:51.0	313.400	0.080	0.370	1.510
2020/01/31 07:55:51.1	313.340	0.100	0.310	1.510
2020/01/31 07:55:51.2	313.280	0.120	0.250	1.500
2020/01/31 07:55:51.3	313.240	0.140	0.200	1.490
2020/01/31 07:55:51.4	313.190	0.160	0.130	1.480
2020/01/31 07:55:51.5	313.140	0.180	0.070	1.460
2020/01/31 07:55:51.6	313.090	0.200	0.000	1.440
2020/01/31 07:55:51.7	313.040	0.220	-0.060	1.410
2020/01/31 07:55:51.8	313.000	0.240	-0.130	1.380
2020/01/31 07:55:51.9	312.960	0.260	-0.200	1.340
2020/01/31 07:55:52.0	312.920	0.280	-0.270	1.300
2020/01/31 07:55:52.1	312.890	0.290	-0.330	1.260
2020/01/31 07:55:52.2	312.860	0.310	-0.400	1.210
2020/01/31 07:55:52.3	312.840	0.330	-0.470	1.150
2020/01/31 07:55:52.4	312.810	0.340	-0.540	1.090
2020/01/31 07:55:52.5	312.790	0.350	-0.600	1.040
2020/01/31 07:55:52.6	312.780	0.370	-0.670	0.980
2020/01/31 07:55:52.7	312.760	0.380	-0.730	0.920
2020/01/31 07:55:52.8	312.760	0.390	-0.790	0.850
2020/01/31 07:55:52.9	312.750	0.390	-0.850	0.790
2020/01/31 07:55:53.0	312.750	0.400	-0.900	0.720
2020/01/31 07:55:53.1	312.750	0.410	-0.950	0.650
2020/01/31 07:55:53.2	312.760	0.410	-1.000	0.580
2020/01/31 07:55:53.3	312.770	0.420	-1.050	0.510
2020/01/31 07:55:53.4	312.790	0.420	-1.090	0.440
2020/01/31 07:55:53.5	312.810	0.420	-1.130	0.370
2020/01/31 07:55:53.6	312.840	0.420	-1.170	0.300
2020/01/31 07:55:53.7	312.870	0.420	-1.200	0.220
2020/01/31 07:55:53.8	312.900	0.410	-1.230	0.150
2020/01/31 07:55:53.9	312.940	0.410	-1.250	0.070
2020/01/31 07:55:54.0	312.980	0.400	-1.280	-0.000
2020/01/31 07:55:54.1	313.030	0.390	-1.290	-0.080
2020/01/31 07:55:54.2	313.080	0.390	-1.300	-0.150
2020/01/31 07:55:54.3	313.130	0.380	-1.310	-0.240
2020/01/31 07:55:54.4	313.180	0.360	-1.310	-0.310
2020/01/31 07:55:54.5	313.240	0.350	-1.310	-0.380
2020/01/31 07:55:54.6	313.300	0.340	-1.310	-0.450
2020/01/31 07:55:54.7	313.360	0.320	-1.290	-0.520
2020/01/31 07:55:54.8	313.420	0.310	-1.280	-0.590
2020/01/31 07:55:54.9	313.490	0.290	-1.260	-0.650
2020/01/31 07:55:55.0	313.550	0.270	-1.230	-0.710
2020/01/31 07:55:55.1	313.610	0.260	-1.200	-0.760
2020/01/31 07:55:55.2	313.670	0.240	-1.170	-0.810
2020/01/31 07:55:55.3	313.720	0.210	-1.120	-0.850
2020/01/31 07:55:55.4	313.780	0.190	-1.080	-0.890
2020/01/31 07:55:55.5	313.830	0.170	-1.030	-0.920
2020/01/31 07:55:55.6	313.890	0.150	-0.980	-0.940
2020/01/31 07:55:55.7	313.940	0.120	-0.920	-0.960
2020/01/31 07:55:55.8	313.980	0.100	-0.860	-0.970
2020/01/31 07:55:55.9	314.030	0.070	-0.790	-0.970
2020/01/31 07:55:56.0	314.070	0.040	-0.730	-0.970
2020/01/31 07:55:56.1	314.110	0.020	-0.660	-0.960
2020/01/31 07:55:56.2	314.140	-0.010	-0.580	-0.940
2020/01/31 07:55:56.3	314.160	-0.040	-0.510	-0.920
2020/01/31 07:55:56.4	314.190	-0.070	-0.430	-0.890
2020/01/31 07:55:56.5	314.210	-0.100	-0.360	-0.860
2020/01/31 07:55:56.6	314.220	-0.130	-0.280	-0.830
2020/01/31 07:55:56.7	314.240	-0.150	-0.200	-0.790
2020/01/31 07:55:56.8	314.240	-0.180	-0.130	-0.740
2020/01/31 07:55:56.9	314.250	-0.210	-0.050	-0.690
2020/01/31 07:55:57.0	314.250	-0.240	0.020	-0.640
2020/01/31 07:55:57.1	314.240	-0.270	0.090	-0.590
2020/01/31 07:55:57.2	314.240	-0.300	0.150	-0.540
2020/01/31 07:55:57.3	314.210	-0.320	0.220	-0.480
2020/01/31 07:55:57.4	314.200	-0.350	0.270	-0.420
2020/01/31 07:55:57.5	314.190	-0.370	0.330	-0.370
2020/01/31 07:55:57.6	314.170	-0.390	0.370	-0.310
2020/01/31 07:55:57.7	314.150	-0.410	0.420	-0.250
2020/01/31 07:55:57.8	314.130	-0.430	0.450	-0.190
2020/01/31 07:55:57.9	314.110	-0.450	0.480	-0.140
2020/01/31 07:55:58.0	314.090	-0.470	0.510	-0.080
2020/01/31 07:55:58.1	314.070	-0.480	0.530	-0.030
2020/01/31 07:55:58.2	314.050	-0.490	0.540	0.020
2020/01/31 07:55:58.3	314.030	-0.500	0.550	0.070
2020/01/31 07:55:58.4	314.010	-0.510	0.550	0.120
2020/01/31 07:55:58.5	313.990	-0.510	0.550	0.160
2020/01/31 07:55:58.6	313.970	-0.510	0.540	0.200
2020/01/31 07:55:58.7	313.950	-0.510	0.520	0.240
2020/01/31 07:55:58.8	313.930	-0.510	0.510	0.280
2020/01/31 07:55:58.9	313.920	-0.500	0.490	0.310
2020/01/31 07:55:59.0	313.900	-0.490	0.460	0.340
2020/01/31 07:55:59.1	313.880	-0.480	0.440	0.370
2020/01/31 07:55:59.2	313.870	-0.470	0.410	0.400
2020/01/31 07:55:59.3	313.860	-0.460	0.380	0.420
2020/01/31 07:55:59.4	313.840	-0.440	0.350	0.450
2020/01/31 07:55:59.5	313.820	-0.420	0.320	0.470
2020/01/31 07:55:59.6	313.810	-0.400	0.290	0.490
2020/01/31 07:55:59.7	313.790	-0.380	0.260	0.510
2020/01/31 07:55:59.8	313.770	-0.360	0.230	0.530
2020/01/31 07:55:59.9	313.750	-0.340	0.200	0.550
2020/01/31 07:56:00.0	313.730	-0.320	0.170	0.570
2020/01/31 07:56:00.1	313.710	-0.300	0.150	0.590
2020/01/31 07:56:00.2	313.690	-0.270	0.120	0.610
2020/01/31 07:56:00.3	313.660	-0.250	0.100	0.630
2020/01/31 07:56:00.4	313.640	-0.220	0.080	0.650
2020/01/31 07:56:00.5	313.620	-0.200	0.060	0.660
2020/01/31 07:56:00.6	313.600	-0.170	0.040	0.680
2020/01/31 07:56:00.7	313.570	-0.150	0.030	0.700
2020/01/31 07:56:00.8	313.550	-0.120	0.010	0.720
2020/01/31 07:56:00.9	313.520	-0.100	-0.010	0.730
2020/01/31 07:56:01.0	313.500	-0.080	-0.020	0.750
2020/01/31 07:56:01.1	313.480	-0.050	-0.040	0.760
2020/01/31 07:56:01.2	313.460	-0.030	-0.050	0.770
2020/01/31 07:56:01.3	313.450	-0.010	-0.070	0.780
2020/01/31 07:56:01.4	313.430	0.020	-0.080	0.790
2020/01/31 07:56:01.5	313.410	0.040	-0.100	0.800
2020/01/31 07:56:01.6	313.390	0.060	-0.110	0.810
2020/01/31 07:56:01.7	313.370	0.080	-0.130	0.810
2020/01/31 07:56:01.8	313.350	0.100	-0.140	0.810
2020/01/31 07:56:01.9	313.340	0.130	-0.160	0.820
2020/01/31 07:56:02.0	313.320	0.150	-0.180	0.810
2020/01/31 07:56:02.1	313.310	0.160	-0.190	0.810
2020/01/31 07:56:02.2	313.300	0.180	-0.210	0.810
2020/01/31 07:56:02.3	313.280	0.200	-0.230	0.800
2020/01/31 07:56:02.4	313.270	0.220	-0.250	0.790
2020/01/31 07:56:02.5	313.270	0.240	-0.260	0.780
2020/01/31 07:56:02.6	313.260	0.250	-0.280	0.770
2020/01/31 07:56:02.7	313.250	0.270	-0.300	0.760
2020/01/31 07:56:02.8	313.250	0.280	-0.310	0.750
2020/01/31 07:56:02.9	313.240	0.300	-0.320	0.730
2020/01/31 07:56:03.0	313.240	0.310	-0.330	0.720
2020/01/31 07:56:03.1	313.230	0.320	-0.340	0.710
2020/01/31 07:56:03.2	313.230	0.340	-0.350	0.700
2020/01/31 07:56:03.3	313.220	0.350	-0.350	0.690
2020/01/31 07:56:03.4	313.220	0.360	-0.350	0.680
2020/01/31 07:56:03.5	313.210	0.360	-0.350	0.670
2020/01/31 07:56:03.6	313.200	0.370	-0.350	0.670
2020/01/31 07:56:03.7	313.200	0.380	-0.340	0.660
2020/01/31 07:56:03.8	313.190	0.380	-0.330	0.660
2020/01/31 07:56:03.9	313.190	0.380	-0.320	0.660
2020/01/31 07:56:04.0	313.180	0.380	-0.300	0.650
2020/01/31 07:56:04.1	313.180	0.380	-0.290	0.650
2020/01/31 07:56:04.2	313.170	0.380	-0.270	0.650
2020/01/31 07:56:04.3	313.180	0.380	-0.260	0.650
2020/01/31 07:56:04.4	313.170	0.380	-0.240	0.640
2020/01/31 07:56:04.5	313.170	0.370	-0.230	0.640
2020/01/31 07:56:04.6	313.170	0.360	-0.220	0.630
2020/01/31 07:56:04.7	313.170	0.350	-0.210	0.620
2020/01/31 07:56:04.8	313.170	0.340	-0.200	0.610
2020/01/31 07:56:04.9	313.180	0.330	-0.190	0.600
2020/01/31 07:56:05.0	313.180	0.320	-0.190	0.590
2020/01/31 07:56:05.1	313.190	0.300	-0.190	0.570
2020/01/31 07:56:05.2	313.190	0.290	-0.190	0.550
2020/01/31 07:56:05.3	313.190	0.270	-0.200	0.530
2020/01/31 07:56:05.4	313.190	0.250	-0.210	0.510
2020/01/31 07:56:05.5	313.200	0.230	-0.220	0.480
2020/01/31 07:56:05.6	313.210	0.220	-0.240	0.460
2020/01/31 07:56:05.7	313.220	0.200	-0.250	0.430
2020/01/31 07:56:05.8	313.240	0.180	-0.280	0.400
2020/01/31 07:56:05.9	313.250	0.150	-0.300	0.370
2020/01/31 07:56:06.0	313.260	0.130	-0.330	0.330
2020/01/31 07:56:06.1	313.280	0.110	-0.360	0.300
2020/01/31 07:56:06.2	313.290	0.090	-0.390	0.260
2020/01/31 07:56:06.3	313.310	0.070	-0.420	0.220
2020/01/31 07:56:06.4	313.320	0.050	-0.460	0.180
2020/01/31 07:56:06.5	313.340	0.030	-0.500	0.140
2020/01/31 07:56:06.6	313.360	0.020	-0.530	0.100
2020/01/31 07:56:06.7	313.380	-0.000	-0.570	0.050
2020/01/31 07:56:06.8	313.410	-0.020	-0.610	0.010
2020/01/31 07:56:06.9	313.430	-0.030	-0.650	-0.030
2020/01/31 07:56:07.0	313.450	-0.040	-0.690	-0.070
2020/01/31 07:56:07.1	313.480	-0.060	-0.730	-0.120
2020/01/31 07:56:07.2	313.500	-0.070	-0.760	-0.160
2020/01/31 07:56:07.3	313.520	-0.080	-0.790	-0.200
2020/01/31 07:56:07.4	313.550	-0.080	-0.830	-0.240
2020/01/31 07:56:07.5	313.580	-0.090	-0.850	-0.280
2020/01/31 07:56:07.6	313.600	-0.090	-0.880	-0.320
2020/01/31 07:56:07.7	313.630	-0.100	-0.900	-0.350
2020/01/31 07:56:07.8	313.660	-0.100	-0.920	-0.380
2020/01/31 07:56:07.9	313.690	-0.090	-0.930	-0.410
2020/01/31 07:56:08.0	313.710	-0.090	-0.940	-0.440
2020/01/31 07:56:08.1	313.740	-0.090	-0.950	-0.460
2020/01/31 07:56:08.2	313.770	-0.080	-0.950	-0.490
2020/01/31 07:56:08.3	313.790	-0.080	-0.950	-0.500
2020/01/31 07:56:08.4	313.820	-0.070	-0.940	-0.520
2020/01/31 07:56:08.5	313.840	-0.060	-0.930	-0.530
2020/01/31 07:56:08.6	313.870	-0.050	-0.910	-0.530
2020/01/31 07:56:08.7	313.890	-0.050	-0.890	-0.540
2020/01/31 07:56:08.8	313.920	-0.040	-0.870	-0.540
2020/01/31 07:56:08.9	313.950	-0.030	-0.840	-0.530
2020/01/31 07:56:09.0	313.970	-0.020	-0.810	-0.530
2020/01/31 07:56:09.1	313.990	-0.010	-0.780	-0.520
2020/01/31 07:56:09.2	314.020	-0.000	-0.740	-0.510
2020/01/31 07:56:09.3	314.030	0.010	-0.700	-0.490
2020/01/31 07:56:09.4	314.050	0.020	-0.660	-0.470
2020/01/31 07:56:09.5	314.070	0.020	-0.610	-0.450
2020/01/31 07:56:09.6	314.090	0.030	-0.570	-0.420
2020/01/31 07:56:09.7	314.110	0.030	-0.520	-0.400
2020/01/31 07:56:09.8	314.130	0.040	-0.470	-0.370
2020/01/31 07:56:09.9	314.140	0.040	-0.420	-0.340
2020/01/31 07:56:10.0	314.160	0.040	-0.370	-0.310
2020/01/31 07:56:10.1	314.170	0.040	-0.320	-0.270
2020/01/31 07:56:10.2	314.180	0.040	-0.270	-0.230
2020/01/31 07:56:10.3	314.190	0.040	-0.220	-0.190
2020/01/31 07:56:10.4	314.200	0.040	-0.170	-0.150
2020/01/31 07:56:10.5	314.200	0.040	-0.120	-0.110
2020/01/31 07:56:10.6	314.210	0.040	-0.070	-0.070
2020/01/31 07:56:10.7	314.210	0.030	-0.020	-0.030
2020/01/31 07:56:10.8	314.210	0.030	0.020	0.010
2020/01/31 07:56:10.9	314.210	0.020	0.060	0.050
2020/01/31 07:56:11.0	314.210	0.010	0.100	0.090
2020/01/31 07:56:11.1	314.210	0.010	0.140	0.130
2020/01/31 07:56:11.2	314.200	0.000	0.180	0.170
2020/01/31 07:56:11.3	314.200	-0.010	0.210	0.210
2020/01/31 07:56:11.4	314.190	-0.020	0.250	0.250
2020/01/31 07:56:11.5	314.180	-0.020	0.280	0.280
2020/01/31 07:56:11.6	314.160	-0.030	0.300	0.320
2020/01/31 07:56:11.7	314.150	-0.040	0.330	0.350
2020/01/31 07:56:11.8	314.130	-0.050	0.350	0.380
2020/01/31 07:56:11.9	314.120	-0.060	0.370	0.410
2020/01/31 07:56:12.0	314.100	-0.070	0.390	0.440
2020/01/31 07:56:12.1	314.080	-0.080	0.400	0.460
2020/01/31 07:56:12.2	314.060	-0.090	0.410	0.490
2020/01/31 07:56:12.3	314.040	-0.100	0.420	0.500
2020/01/31 07:56:12.4	314.020	-0.110	0.420	0.520
2020/01/31 07:56:12.5	313.990	-0.120	0.430	0.530
2020/01/31 07:56:12.6	313.970	-0.130	0.420	0.540
2020/01/31 07:56:12.7	313.940	-0.140	0.420	0.540
2020/01/31 07:56:12.8	313.920	-0.150	0.410	0.540
2020/01/31 07:56:12.9	313.900	-0.160	0.400	0.540
2020/01/31 07:56:13.0	313.870	-0.170	0.390	0.530
2020/01/31 07:56:13.1	313.850	-0.180	0.370	0.520
2020/01/31 07:56:13.2	313.830	-0.190	0.350	0.510
2020/01/31 07:56:13.3	313.810	-0.200	0.330	0.490
2020/01/31 07:56:13.4	313.790	-0.210	0.310	0.460
2020/01/31 07:56:13.5	313.770	-0.220	0.290	0.440
2020/01/31 07:56:13.6	313.750	-0.230	0.260	0.410
2020/01/31 07:56:13.7	313.730	-0.230	0.230	0.380
2020/01/31 07:56:13.8	313.720	-0.240	0.210	0.350
2020/01/31 07:56:13.9	313.700	-0.250	0.180	0.310
2020/01/31 07:56:14.0	313.690	-0.260	0.150	0.280
2020/01/31 07:56:14.1	313.670	-0.260	0.120	0.240
2020/01/31 07:56:14.2	313.660	-0.270	0.090	0.200
2020/01/31 07:56:14.3	313.650	-0.270	0.060	0.150
2020/01/31 07:56:14.4	313.640	-0.280	0.030	0.110
2020/01/31 07:56:14.5	313.620	-0.290	0.000	0.070
2020/01/31 07:56:14.6	313.610	-0.290	-0.030	0.030
2020/01/31 07:56:14.7	313.600	-0.290	-0.050	-0.010
2020/01/31 07:56:14.8	313.590	-0.300	-0.070	-0.050
2020/01/31 07:56:14.9	313.580	-0.300	-0.090	-0.080
2020/01/31 07:56:15.0	313.570	-0.300	-0.110	-0.120
2020/01/31 07:56:15.1	313.560	-0.300	-0.130	-0.150
2020/01/31 07:56:15.2	313.550	-0.300	-0.140	-0.180
2020/01/31 07:56:15.3	313.540	-0.300	-0.160	-0.210
2020/01/31 07:56:15.4	313.530	-0.300	-0.170	-0.230
2020/01/31 07:56:15.5	313.520	-0.300	-0.180	-0.250
2020/01/31 07:56:15.6	313.510	-0.290	-0.180	-0.270
2020/01/31 07:56:15.7	313.500	-0.290	-0.190	-0.280
2020/01/31 07:56:15.8	313.490	-0.280	-0.190	-0.290
2020/01/31 07:56:15.9	313.470	-0.270	-0.190	-0.290
2020/01/31 07:56:16.0	313.460	-0.260	-0.180	-0.300
2020/01/31 07:56:16.1	313.450	-0.250	-0.180	-0.300
2020/01/31 07:56:16.2	313.440	-0.240	-0.180	-0.290
2020/01/31 07:56:16.3	313.430	-0.220	-0.170	-0.290
2020/01/31 07:56:16.4	313.430	-0.200	-0.170	-0.280
2020/01/31 07:56:16.5	313.420	-0.190	-0.160	-0.270
2020/01/31 07:56:16.6	313.420	-0.170	-0.160	-0.250
2020/01/31 07:56:16.7	313.410	-0.150	-0.160	-0.240
2020/01/31 07:56:16.8	313.410	-0.120	-0.160	-0.220
2020/01/31 07:56:16.9	313.410	-0.100	-0.160	-0.200
2020/01/31 07:56:17.0	313.420	-0.070	-0.160	-0.180
2020/01/31 07:56:17.1	313.420	-0.050	-0.170	-0.160
2020/01/31 07:56:17.2	313.430	-0.020	-0.180	-0.130
2020/01/31 07:56:17.3	313.440	0.010	-0.200	-0.110
2020/01/31 07:56:17.4	313.450	0.040	-0.210	-0.090
2020/01/31 07:56:17.5	313.460	0.070	-0.230	-0.060
2020/01/31 07:56:17.6	313.470	0.100	-0.250	-0.030
2020/01/31 07:56:17.7	313.490	0.130	-0.280	-0.010
2020/01/31 07:56:17.8	313.500	0.160	-0.300	0.020
2020/01/31 07:56:17.9	313.520	0.190	-0.330	0.050
2020/01/31 07:56:18.0	313.530	0.220	-0.360	0.080
2020/01/31 07:56:18.1	313.550	0.250	-0.390	0.110
2020/01/31 07:56:18.2	313.570	0.280	-0.420	0.140
2020/01/31 07:56:18.3	313.580	0.310	-0.450	0.170
2020/01/31 07:56:18.4	313.600	0.340	-0.480	0.210
2020/01/31 07:56:18.5	313.620	0.370	-0.520	0.240
2020/01/31 07:56:18.6	313.630	0.390	-0.550	0.270
2020/01/31 07:56:18.7	313.650	0.420	-0.580	0.310
2020/01/31 07:56:18.8	313.660	0.440	-0.610	0.340
2020/01/31 07:56:18.9	313.680	0.460	-0.640	0.370
2020/01/31 07:56:19.0	313.700	0.480	-0.670	0.410
2020/01/31 07:56:19.1	313.710	0.500	-0.700	0.440
2020/01/31 07:56:19.2	313.720	0.520	-0.720	0.470
2020/01/31 07:56:19.3	313.740	0.530	-0.750	0.500
2020/01/31 07:56:19.4	313.750	0.550	-0.770	0.530
2020/01/31 07:56:19.5	313.770	0.560	-0.780	0.560
2020/01/31 07:56:19.6	313.780	0.560	-0.790	0.590
2020/01/31 07:56:19.7	313.790	0.570	-0.800	0.620
2020/01/31 07:56:19.8	313.800	0.570	-0.810	0.650
2020/01/31 07:56:19.9	313.810	0.570	-0.810	0.670
2020/01/31 07:56:20.0	313.820	0.570	-0.810	0.700
2020/01/31 07:56:20.1	313.830	0.570	-0.810	0.720
2020/01/31 07:56:20.2	313.840	0.560	-0.800	0.740
2020/01/31 07:56:20.3	313.850	0.560	-0.790	0.770
2020/01/31 07:56:20.4	313.860	0.550	-0.780	0.780
2020/01/31 07:56:20.5	313.870	0.530	-0.770	0.800
2020/01/31 07:56:20.6	313.870	0.520	-0.750	0.810
2020/01/31 07:56:20.7	313.880	0.500	-0.740	0.820
2020/01/31 07:56:20.8	313.890	0.480	-0.720	0.820
2020/01/31 07:56:20.9	313.890	0.460	-0.700	0.830
2020/01/31 07:56:21.0	313.900	0.440	-0.680	0.830
2020/01/31 07:56:21.1	313.900	0.410	-0.660	0.820
2020/01/31 07:56:21.2	313.910	0.380	-0.640	0.820
2020/01/31 07:56:21.3	313.910	0.360	-0.620	0.810
2020/01/31 07:56:21.4	313.920	0.330	-0.590	0.790
2020/01/31 07:56:21.5	313.920	0.290	-0.570	0.780
2020/01/31 07:56:21.6	313.920	0.260	-0.550	0.760
2020/01/31 07:56:21.7	313.920	0.230	-0.520	0.740
2020/01/31 07:56:21.8	313.920	0.190	-0.500	0.720
2020/01/31 07:56:21.9	313.920	0.160	-0.470	0.700
2020/01/31 07:56:22.0	313.920	0.130	-0.450	0.670
2020/01/31 07:56:22.1	313.920	0.090	-0.420	0.640
2020/01/31 07:56:22.2	313.920	0.060	-0.400	0.610
2020/01/31 07:56:22.3	313.930	0.020	-0.380	0.580
2020/01/31 07:56:22.4	313.930	-0.010	-0.360	0.540
2020/01/31 07:56:22.5	313.930	-0.050	-0.330	0.510
2020/01/31 07:56:22.6	313.930	-0.080	-0.310	0.470
2020/01/31 07:56:22.7	313.930	-0.110	-0.290	0.430
2020/01/31 07:56:22.8	313.940	-0.140	-0.280	0.390
2020/01/31 07:56:22.9	313.940	-0.170	-0.260	0.350
2020/01/31 07:56:23.0	313.950	-0.190	-0.240	0.310
2020/01/31 07:56:23.1	313.950	-0.220	-0.220	0.270
2020/01/31 07:56:23.2	313.960	-0.240	-0.210	0.230
2020/01/31 07:56:23.3	313.960	-0.260	-0.190	0.190
2020/01/31 07:56:23.4	313.960	-0.280	-0.180	0.150
2020/01/31 07:56:23.5	313.970	-0.300	-0.160	0.110
2020/01/31 07:56:23.6	313.980	-0.320	-0.150	0.070
2020/01/31 07:56:23.7	313.980	-0.330	-0.130	0.030
2020/01/31 07:56:23.8	313.990	-0.340	-0.120	-0.010
2020/01/31 07:56:23.9	313.990	-0.350	-0.100	-0.050
2020/01/31 07:56:24.0	314.000	-0.360	-0.090	-0.080
2020/01/31 07:56:24.1	314.000	-0.360	-0.070	-0.120
2020/01/31 07:56:24.2	314.010	-0.370	-0.060	-0.150
2020/01/31 07:56:24.3	314.010	-0.370	-0.040	-0.180
2020/01/31 07:56:24.4	314.020	-0.370	-0.030	-0.220
2020/01/31 07:56:24.5	314.020	-0.370	-0.010	-0.250
2020/01/31 07:56:24.6	314.030	-0.370	0.000	-0.270
2020/01/31 07:56:24.7	314.030	-0.360	0.020	-0.300
2020/01/31 07:56:24.8	314.030	-0.360	0.030	-0.320
2020/01/31 07:56:24.9	314.040	-0.350	0.040	-0.340
2020/01/31 07:56:25.0	314.040	-0.350	0.060	-0.360
2020/01/31 07:56:25.1	314.040	-0.340	0.070	-0.380
2020/01/31 07:56:25.2	314.040	-0.330	0.080	-0.390
2020/01/31 07:56:25.3	314.040	-0.320	0.090	-0.410
2020/01/31 07:56:25.4	314.040	-0.320	0.100	-0.420
2020/01/31 07:56:25.5	314.040	-0.310	0.110	-0.420
2020/01/31 07:56:25.6	314.040	-0.300	0.120	-0.420
2020/01/31 07:56:25.7	314.030	-0.290	0.130	-0.420
2020/01/31 07:56:25.8	314.030	-0.280	0.140	-0.410
2020/01/31 07:56:25.9	314.030	-0.280	0.150	-0.410
2020/01/31 07:56:26.0	314.030	-0.270	0.150	-0.390
2020/01/31 07:56:26.1	314.020	-0.260	0.160	-0.380
2020/01/31 07:56:26.2	314.020	-0.260	0.170	-0.360
2020/01/31 07:56:26.3	314.000	-0.250	0.170	-0.330
2020/01/31 07:56:26.4	313.990	-0.250	0.170	-0.310
2020/01/31 07:56:26.5	313.990	-0.240	0.180	-0.280
2020/01/31 07:56:26.6	313.980	-0.240	0.180	-0.260
2020/01/31 07:56:26.7	313.970	-0.230	0.180	-0.230
2020/01/31 07:56:26.8	313.970	-0.230	0.180	-0.200
2020/01/31 07:56:26.9	313.960	-0.230	0.180	-0.160
2020/01/31 07:56:27.0	313.950	-0.220	0.180	-0.130
2020/01/31 07:56:27.1	313.940	-0.220	0.180	-0.100
2020/01/31 07:56:27.2	313.930	-0.220	0.170	-0.060
2020/01/31 07:56:27.3	313.920	-0.220	0.170	-0.030
2020/01/31 07:56:27.4	313.910	-0.210	0.170	0.010
2020/01/31 07:56:27.5	313.900	-0.210	0.170	0.040
2020/01/31 07:56:27.6	313.890	-0.200	0.160	0.080
2020/01/31 07:56:27.7	313.890	-0.200	0.160	0.120
2020/01/31 07:56:27.8	313.880	-0.190	0.150	0.150
2020/01/31 07:56:27.9	313.870	-0.190	0.150	0.190
2020/01/31 07:56:28.0	313.860	-0.180	0.140	0.230
2020/01/31 07:56:28.1	313.850	-0.170	0.140	0.270
2020/01/31 07:56:28.2	313.840	-0.160	0.130	0.300
2020/01/31 07:56:28.3	313.850	-0.150	0.120	0.340
2020/01/31 07:56:28.4	313.840	-0.140	0.110	0.370
2020/01/31 07:56:28.5	313.830	-0.120	0.100	0.400
2020/01/31 07:56:28.6	313.830	-0.110	0.090	0.440
2020/01/31 07:56:28.7	313.820	-0.090	0.080	0.470
2020/01/31 07:56:28.8	313.810	-0.080	0.070	0.500
2020/01/31 07:56:28.9	313.800	-0.060	0.060	0.530
2020/01/31 07:56:29.0	313.790	-0.040	0.050	0.560
2020/01/31 07:56:29.1	313.780	-0.020	0.040	0.580
2020/01/31 07:56:29.2	313.770	-0.000	0.020	0.610
2020/01/31 07:56:29.3	313.770	0.020	0.000	0.640
2020/01/31 07:56:29.4	313.760	0.040	-0.010	0.660
2020/01/31 07:56:29.5	313.740	0.060	-0.030	0.680
2020/01/31 07:56:29.6	313.730	0.080	-0.050	0.700
2020/01/31 07:56:29.7	313.720	0.100	-0.070	0.720
2020/01/31 07:56:29.8	313.710	0.120	-0.090	0.740
2020/01/31 07:56:29.9	313.690	0.150	-0.110	0.760
2020/01/31 07:56:30.0	313.680	0.170	-0.130	0.770
2020/01/31 07:56:30.1	313.670	0.190	-0.160	0.780
2020/01/31 07:56:30.2	313.660	0.210	-0.180	0.790
2020/01/31 07:56:30.3	313.650	0.240	-0.210	0.800
2020/01/31 07:56:30.4	313.640	0.260	-0.240	0.800
2020/01/31 07:56:30.5	313.630	0.280	-0.270	0.810
2020/01/31 07:56:30.6	313.620	0.300	-0.300	0.800
2020/01/31 07:56:30.7	313.610	0.320	-0.330	0.800
2020/01/31 07:56:30.8	313.610	0.350	-0.360	0.800
2020/01/31 07:56:30.9	313.600	0.370	-0.390	0.790
2020/01/31 07:56:31.0	313.600	0.390	-0.430	0.780
2020/01/31 07:56:31.1	313.600	0.410	-0.460	0.770
2020/01/31 07:56:31.2	313.600	0.420	-0.500	0.750
2020/01/31 07:56:31.3	313.600	0.440	-0.530	0.730
2020/01/31 07:56:31.4	313.610	0.460	-0.560	0.710
2020/01/31 07:56:31.5	313.610	0.470	-0.600	0.690
2020/01/31 07:56:31.6	313.620	0.490	-0.630	0.670
2020/01/31 07:56:31.7	313.630	0.500	-0.660	0.650
2020/01/31 07:56:31.8	313.640	0.510	-0.690	0.620
2020/01/31 07:56:31.9	313.650	0.520	-0.720	0.600
2020/01/31 07:56:32.0	313.670	0.530	-0.750	0.570
2020/01/31 07:56:32.1	313.680	0.540	-0.780	0.540
2020/01/31 07:56:32.2	313.700	0.540	-0.800	0.510
2020/01/31 07:56:32.3	313.710	0.540	-0.820	0.480
2020/01/31 07:56:32.4	313.730	0.540	-0.840	0.440
2020/01/31 07:56:32.5	313.760	0.540	-0.860	0.410
2020/01/31 07:56:32.6	313.780	0.540	-0.870	0.380
2020/01/31 07:56:32.7	313.810	0.540	-0.880	0.340
2020/01/31 07:56:32.8	313.840	0.530	-0.890	0.310
2020/01/31 07:56:32.9	313.860	0.520	-0.890	0.270
2020/01/31 07:56:33.0	313.890	0.510	-0.890	0.240
2020/01/31 07:56:33.1	313.930	0.490	-0.890	0.200
2020/01/31 07:56:33.2	313.960	0.480	-0.880	0.170
2020/01/31 07:56:33.3	313.990	0.460	-0.880	0.130
2020/01/31 07:56:33.4	314.020	0.440	-0.870	0.100
2020/01/31 07:56:33.5	314.050	0.420	-0.850	0.060
2020/01/31 07:56:33.6	314.080	0.400	-0.840	0.030
2020/01/31 07:56:33.7	314.110	0.370	-0.820	-0.000
2020/01/31 07:56:33.8	314.140	0.340	-0.800	-0.030
2020/01/31 07:56:33.9	314.170	0.310	-0.770	-0.060
2020/01/31 07:56:34.0	314.190	0.280	-0.750	-0.090
2020/01/31 07:56:34.1	314.210	0.250	-0.720	-0.110
2020/01/31 07:56:34.2	314.230	0.220	-0.690	-0.130
2020/01/31 07:56:34.3	314.260	0.180	-0.660	-0.160
2020/01/31 07:56:34.4	314.280	0.150	-0.620	-0.180
2020/01/31 07:56:34.5	314.300	0.110	-0.590	-0.190
2020/01/31 07:56:34.6	314.310	0.070	-0.550	-0.210
2020/01/31 07:56:34.7	314.320	0.040	-0.510	-0.230
2020/01/31 07:56:34.8	314.330	-0.000	-0.480	-0.240
2020/01/31 07:56:34.9	314.340	-0.040	-0.440	-0.250
2020/01/31 07:56:35.0	314.350	-0.070	-0.400	-0.260
2020/01/31 07:56:35.1	314.360	-0.110	-0.360	-0.270
2020/01/31 07:56:35.2	314.360	-0.150	-0.330	-0.270
2020/01/31 07:56:35.3	314.370	-0.180	-0.290	-0.280
2020/01/31 07:56:35.4	314.370	-0.220	-0.260	-0.280
2020/01/31 07:56:35.5	314.370	-0.250	-0.230	-0.280
2020/01/31 07:56:35.6	314.370	-0.280	-0.190	-0.280
2020/01/31 07:56:35.7	314.380	-0.310	-0.170	-0.280
2020/01/31 07:56:35.8	314.380	-0.330	-0.140	-0.280
2020/01/31 07:56:35.9	314.380	-0.360	-0.110	-0.280
2020/01/31 07:56:36.0	314.380	-0.380	-0.090	-0.280
2020/01/31 07:56:36.1	314.380	-0.410	-0.070	-0.270
2020/01/31 07:56:36.2	314.380	-0.430	-0.050	-0.270
2020/01/31 07:56:36.3	314.380	-0.440	-0.030	-0.270
2020/01/31 07:56:36.4	314.380	-0.460	-0.020	-0.260
2020/01/31 07:56:36.5	314.380	-0.470	-0.000	-0.260
2020/01/31 07:56:36.6	314.380	-0.480	0.010	-0.250
2020/01/31 07:56:36.7	314.370	-0.490	0.020	-0.250
2020/01/31 07:56:36.8	314.370	-0.500	0.030	-0.240
2020/01/31 07:56:36.9	314.370	-0.510	0.040	-0.230
2020/01/31 07:56:37.0	314.360	-0.510	0.050	-0.220
2020/01/31 07:56:37.1	314.360	-0.510	0.050	-0.220
2020/01/31 07:56:37.2	314.350	-0.510	0.060	-0.210
2020/01/31 07:56:37.3	314.340	-0.510	0.070	-0.200
2020/01/31 07:56:37.4	314.330	-0.510	0.070	-0.190
2020/01/31 07:56:37.5	314.320	-0.510	0.080	-0.180
2020/01/31 07:56:37.6	314.310	-0.510	0.090	-0.160
2020/01/31 07:56:37.7	314.300	-0.500	0.090	-0.150
2020/01/31 07:56:37.8	314.290	-0.490	0.100	-0.140
2020/01/31 07:56:37.9	314.280	-0.490	0.110	-0.120
2020/01/31 07:56:38.0	314.270	-0.480	0.120	-0.100
2020/01/31 07:56:38.1	314.260	-0.470	0.130	-0.090
2020/01/31 07:56:38.2	314.240	-0.460	0.140	-0.060
2020/01/31 07:56:38.3	314.220	-0.450	0.150	-0.050
2020/01/31 07:56:38.4	314.210	-0.440	0.160	-0.020
2020/01/31 07:56:38.5	314.200	-0.430	0.170	0.000
2020/01/31 07:56:38.6	314.180	-0.420	0.180	0.030
2020/01/31 07:56:38.7	314.170	-0.410	0.190	0.050
2020/01/31 07:56:38.8	314.160	-0.390	0.190	0.080
2020/01/31 07:56:38.9	314.140	-0.380	0.200	0.110
2020/01/31 07:56:39.0	314.130	-0.370	0.210	0.150
2020/01/31 07:56:39.1	314.110	-0.350	0.220	0.180
2020/01/31 07:56:39.2	314.100	-0.340	0.230	0.210
2020/01/31 07:56:39.3	314.090	-0.320	0.230	0.250
2020/01/31 07:56:39.4	314.070	-0.300	0.240	0.280
2020/01/31 07:56:39.5	314.050	-0.290	0.240	0.320
2020/01/31 07:56:39.6	314.040	-0.270	0.240	0.360
2020/01/31 07:56:39.7	314.020	-0.250	0.240	0.390
2020/01/31 07:56:39.8	314.000	-0.230	0.240	0.430
2020/01/31 07:56:39.9	313.980	-0.210	0.230	0.460
2020/01/31 07:56:40.0	313.970	-0.190	0.220	0.500
2020/01/31 07:56:40.1	313.950	-0.170	0.210	0.530
2020/01/31 07:56:40.2	313.930	-0.150	0.200	0.560
2020/01/31 07:56:40.3	313.930	-0.120	0.190	0.590
2020/01/31 07:56:40.4	313.910	-0.100	0.170	0.630
2020/01/31 07:56:40.5	313.900	-0.080	0.150	0.660
2020/01/31 07:56:40.6	313.880	-0.050	0.120	0.690
2020/01/31 07:56:40.7	313.870	-0.030	0.090	0.710
2020/01/31 07:56:40.8	313.860	0.000	0.060	0.740
2020/01/31 07:56:40.9	313.850	0.030	0.030	0.770
2020/01/31 07:56:41.0	313.840	0.050	-0.000	0.790
2020/01/31 07:56:41.1	313.830	0.080	-0.040	0.820
2020/01/31 07:56:41.2	313.820	0.110	-0.080	0.840
2020/01/31 07:56:41.3	313.810	0.130	-0.120	0.860
2020/01/31 07:56:41.4	313.800	0.160	-0.160	0.880
2020/01/31 07:56:41.5	313.790	0.190	-0.200	0.900
2020/01/31 07:56:41.6	313.790	0.210	-0.240	0.910
2020/01/31 07:56:41.7	313.780	0.240	-0.280	0.930
2020/01/31 07:56:41.8	313.780	0.260	-0.320	0.930
2020/01/31 07:56:41.9	313.770	0.290	-0.360	0.940
2020/01/31 07:56:42.0	313.770	0.310	-0.400	0.940
2020/01/31 07:56:42.1	313.770	0.330	-0.440	0.940
2020/01/31 07:56:42.2	313.770	0.350	-0.480	0.940
2020/01/31 07:56:42.3	313.770	0.370	-0.520	0.930
2020/01/31 07:56:42.4	313.770	0.390	-0.550	0.920
2020/01/31 07:56:42.5	313.780	0.410	-0.580	0.900
2020/01/31 07:56:42.6	313.790	0.420	-0.610	0.880
2020/01/31 07:56:42.7	313.790	0.430	-0.640	0.860
2020/01/31 07:56:42.8	313.800	0.450	-0.660	0.840
2020/01/31 07:56:42.9	313.820	0.460	-0.680	0.820
2020/01/31 07:56:43.0	313.830	0.460	-0.700	0.790
2020/01/31 07:56:43.1	313.850	0.470	-0.710	0.760
2020/01/31 07:56:43.2	313.860	0.470	-0.720	0.730
2020/01/31 07:56:43.3	313.890	0.470	-0.730	0.700
2020/01/31 07:56:43.4	313.910	0.470	-0.730	0.660
2020/01/31 07:56:43.5	313.930	0.460	-0.730	0.630
2020/01/31 07:56:43.6	313.940	0.460	-0.730	0.590
2020/01/31 07:56:43.7	313.960	0.450	-0.720	0.550
2020/01/31 07:56:43.8	313.980	0.440	-0.710	0.520
2020/01/31 07:56:43.9	314.000	0.420	-0.690	0.480
2020/01/31 07:56:44.0	314.020	0.410	-0.670	0.440
2020/01/31 07:56:44.1	314.040	0.390	-0.650	0.410
2020/01/31 07:56:44.2	314.060	0.370	-0.630	0.370
2020/01/31 07:56:44.3	314.080	0.350	-0.600	0.330
2020/01/31 07:56:44.4	314.100	0.330	-0.580	0.300
2020/01/31 07:56:44.5	314.110	0.310	-0.550	0.260
2020/01/31 07:56:44.6	314.130	0.290	-0.520	0.230
2020/01/31 07:56:44.7	314.140	0.260	-0.480	0.190
2020/01/31 07:56:44.8	314.160	0.240	-0.450	0.160
2020/01/31 07:56:44.9	314.170	0.210	-0.420	0.130
2020/01/31 07:56:45.0	314.180	0.190	-0.390	0.100
2020/01/31 07:56:45.1	314.190	0.170	-0.360	0.070
2020/01/31 07:56:45.2	314.210	0.140	-0.330	0.050
2020/01/31 07:56:45.3	314.210	0.120	-0.300	0.020
2020/01/31 07:56:45.4	314.220	0.100	-0.280	-0.000
2020/01/31 07:56:45.5	314.230	0.080	-0.260	-0.030
2020/01/31 07:56:45.6	314.240	0.060	-0.230	-0.050
2020/01/31 07:56:45.7	314.260	0.050	-0.220	-0.070
2020/01/31 07:56:45.8	314.270	0.040	-0.200	-0.080
2020/01/31 07:56:45.9	314.280	0.020	-0.180	-0.100
2020/01/31 07:56:46.0	314.280	0.010	-0.170	-0.110
2020/01/31 07:56:46.1	314.290	0.010	-0.160	-0.120
2020/01/31 07:56:46.2	314.300	-0.000	-0.150	-0.120
2020/01/31 07:56:46.3	314.300	-0.000	-0.150	-0.130
2020/01/31 07:56:46.4	314.300	-0.010	-0.140	-0.130
2020/01/31 07:56:46.5	314.310	-0.010	-0.140	-0.130
2020/01/31 07:56:46.6	314.310	-0.000	-0.140	-0.130
2020/01/31 07:56:46.7	314.310	-0.000	-0.140	-0.120
2020/01/31 07:56:46.8	314.300	0.000	-0.140	-0.110
2020/01/31 07:56:46.9	314.300	0.010	-0.140	-0.100
2020/01/31 07:56:47.0	314.300	0.010	-0.140	-0.080
2020/01/31 07:56:47.1	314.290	0.020	-0.150	-0.070
2020/01/31 07:56:47.2	314.280	0.030	-0.150	-0.050
2020/01/31 07:56:47.3	314.270	0.030	-0.150	-0.040
2020/01/31 07:56:47.4	314.260	0.040	-0.160	-0.020
2020/01/31 07:56:47.5	314.250	0.050	-0.160	-0.010
2020/01/31 07:56:47.6	314.240	0.050	-0.170	0.010
2020/01/31 07:56:47.7	314.230	0.050	-0.170	0.030
2020/01/31 07:56:47.8	314.230	0.050	-0.180	0.040
2020/01/31 07:56:47.9	314.220	0.050	-0.190	0.050
2020/01/31 07:56:48.0	314.210	0.050	-0.200	0.060
2020/01/31 07:56:48.1	314.200	0.050	-0.210	0.070
2020/01/31 07:56:48.2	314.200	0.040	-0.220	0.080
2020/01/31 07:56:48.3	314.190	0.030	-0.230	0.080
2020/01/31 07:56:48.4	314.190	0.020	-0.240	0.090
2020/01/31 07:56:48.5	314.180	0.010	-0.250	0.090
2020/01/31 07:56:48.6	314.180	-0.010	-0.260	0.090
2020/01/31 07:56:48.7	314.180	-0.020	-0.270	0.090
2020/01/31 07:56:48.8	314.190	-0.040	-0.280	0.080
2020/01/31 07:56:48.9	314.190	-0.060	-0.290	0.070
2020/01/31 07:56:49.0	314.190	-0.090	-0.300	0.070
2020/01/31 07:56:49.1	314.200	-0.110	-0.310	0.060
2020/01/31 07:56:49.2	314.200	-0.140	-0.320	0.050
2020/01/31 07:56:49.3	314.200	-0.160	-0.320	0.030
2020/01/31 07:56:49.4	314.210	-0.190	-0.330	0.020
2020/01/31 07:56:49.5	314.220	-0.220	-0.330	0.010
2020/01/31 07:56:49.6	314.230	-0.250	-0.340	-0.000
2020/01/31 07:56:49.7	314.230	-0.280	-0.340	-0.010
2020/01/31 07:56:49.8	314.240	-0.310	-0.330	-0.020
2020/01/31 07:56:49.9	314.250	-0.340	-0.330	-0.030
2020/01/31 07:56:50.0	314.260	-0.370	-0.320	-0.040
2020/01/31 07:56:50.1	314.260	-0.400	-0.320	-0.040
2020/01/31 07:56:50.2	314.270	-0.420	-0.300	-0.050
2020/01/31 07:56:50.3	314.280	-0.450	-0.290	-0.050
2020/01/31 07:56:50.4	314.290	-0.470	-0.270	-0.050
2020/01/31 07:56:50.5	314.290	-0.490	-0.260	-0.050
2020/01/31 07:56:50.6	314.290	-0.510	-0.240	-0.050
2020/01/31 07:56:50.7	314.300	-0.530	-0.220	-0.050
2020/01/31 07:56:50.8	314.300	-0.540	-0.200	-0.040
2020/01/31 07:56:50.9	314.300	-0.560	-0.170	-0.030
2020/01/31 07:56:51.0	314.300	-0.560	-0.150	-0.020
2020/01/31 07:56:51.1	314.300	-0.570	-0.130	-0.010
2020/01/31 07:56:51.2	314.300	-0.570	-0.100	-0.000
2020/01/31 07:56:51.3	314.300	-0.570	-0.080	0.010
2020/01/31 07:56:51.4	314.290	-0.570	-0.050	0.030
2020/01/31 07:56:51.5	314.290	-0.560	-0.030	0.040
2020/01/31 07:56:51.6	314.290	-0.550	-0.010	0.060
2020/01/31 07:56:51.7	314.280	-0.540	0.010	0.070
2020/01/31 07:56:51.8	314.280	-0.520	0.030	0.090
2020/01/31 07:56:51.9	314.270	-0.500	0.050	0.100
2020/01/31 07:56:52.0	314.260	-0.480	0.060	0.120
2020/01/31 07:56:52.1	314.260	-0.460	0.070	0.140
2020/01/31 07:56:52.2	314.250	-0.430	0.080	0.150
2020/01/31 07:56:52.3	314.240	-0.400	0.090	0.160
2020/01/31 07:56:52.4	314.240	-0.370	0.090	0.180
2020/01/31 07:56:52.5	314.230	-0.330	0.090	0.190
2020/01/31 07:56:52.6	314.220	-0.290	0.090	0.210
2020/01/31 07:56:52.7	314.210	-0.250	0.090	0.220
2020/01/31 07:56:52.8	314.210	-0.210	0.080	0.230
2020/01/31 07:56:52.9	314.200	-0.170	0.070	0.250
2020/01/31 07:56:53.0	314.200	-0.130	0.060	0.260
2020/01/31 07:56:53.1	314.190	-0.090	0.040	0.270
2020/01/31 07:56:53.2	314.190	-0.040	0.030	0.280
2020/01/31 07:56:53.3	314.180	0.000	0.010	0.300
2020/01/31 07:56:53.4	314.180	0.040	-0.010	0.310
2020/01/31 07:56:53.5	314.180	0.090	-0.040	0.330
2020/01/31 07:56:53.6	314.170	0.130	-0.060	0.340
2020/01/31 07:56:53.7	314.170	0.170	-0.080	0.360
2020/01/31 07:56:53.8	314.170	0.210	-0.110	0.370
2020/01/31 07:56:53.9	314.170	0.240	-0.140	0.380
2020/01/31 07:56:54.0	314.160	0.280	-0.160	0.400
2020/01/31 07:56:54.1	314.160	0.310	-0.190	0.410
2020/01/31 07:56:54.2	314.160	0.340	-0.210	0.430
2020/01/31 07:56:54.3	314.160	0.370	-0.240	0.440
2020/01/31 07:56:54.4	314.150	0.390	-0.260	0.450
2020/01/31 07:56:54.5	314.150	0.410	-0.290	0.460
2020/01/31 07:56:54.6	314.140	0.430	-0.310	0.470
2020/01/31 07:56:54.7	314.130	0.440	-0.330	0.480
2020/01/31 07:56:54.8	314.130	0.450	-0.350	0.490
2020/01/31 07:56:54.9	314.120	0.460	-0.370	0.490
2020/01/31 07:56:55.0	314.110	0.460	-0.380	0.500
2020/01/31 07:56:55.1	314.100	0.460	-0.390	0.500
2020/01/31 07:56:55.2	314.090	0.460	-0.400	0.500
2020/01/31 07:56:55.3	314.080	0.460	-0.420	0.500
2020/01/31 07:56:55.4	314.070	0.450	-0.420	0.500
2020/01/31 07:56:55.5	314.060	0.430	-0.430	0.490
2020/01/31 07:56:55.6	314.050	0.420	-0.430	0.490
2020/01/31 07:56:55.7	314.040	0.400	-0.430	0.490
2020/01/31 07:56:55.8	314.030	0.380	-0.430	0.480
2020/01/31 07:56:55.9	314.020	0.360	-0.430	0.470
2020/01/31 07:56:56.0	314.000	0.340	-0.420	0.460
2020/01/31 07:56:56.1	313.990	0.310	-0.410	0.450
2020/01/31 07:56:56.2	313.980	0.280	-0.400	0.440
2020/01/31 07:56:56.3	313.960	0.250	-0.390	0.430
2020/01/31 07:56:56.4	313.950	0.230	-0.380	0.420
2020/01/31 07:56:56.5	313.940	0.200	-0.370	0.400
2020/01/31 07:56:56.6	313.920	0.170	-0.350	0.380
2020/01/31 07:56:56.7	313.910	0.140	-0.340	0.370
2020/01/31 07:56:56.8	313.900	0.110	-0.320	0.350
2020/01/31 07:56:56.9	313.880	0.080	-0.310	0.320
2020/01/31 07:56:57.0	313.870	0.060	-0.290	0.300
2020/01/31 07:56:57.1	313.860	0.030	-0.280	0.280
2020/01/31 07:56:57.2	313.850	0.010	-0.270	0.250
2020/01/31 07:56:57.3	313.840	-0.010	-0.250	0.220
2020/01/31 07:56:57.4	313.830	-0.030	-0.240	0.190
2020/01/31 07:56:57.5	313.830	-0.050	-0.230	0.160
2020/01/31 07:56:57.6	313.820	-0.060	-0.230	0.130
2020/01/31 07:56:57.7	313.820	-0.070	-0.220	0.100
2020/01/31 07:56:57.8	313.820	-0.080	-0.220	0.060
2020/01/31 07:56:57.9	313.830	-0.090	-0.220	0.020
2020/01/31 07:56:58.0	313.830	-0.090	-0.230	-0.020
2020/01/31 07:56:58.1	313.840	-0.090	-0.230	-0.050
2020/01/31 07:56:58.2	313.850	-0.090	-0.240	-0.100
2020/01/31 07:56:58.3	313.850	-0.080	-0.250	-0.140
2020/01/31 07:56:58.4	313.870	-0.070	-0.270	-0.180
2020/01/31 07:56:58.5	313.880	-0.060	-0.290	-0.220
2020/01/31 07:56:58.6	313.900	-0.050	-0.300	-0.270
2020/01/31 07:56:58.7	313.920	-0.040	-0.330	-0.310
2020/01/31 07:56:58.8	313.940	-0.020	-0.350	-0.350
2020/01/31 07:56:58.9	313.970	-0.000	-0.370	-0.390
2020/01/31 07:56:59.0	313.990	0.010	-0.400	-0.440
2020/01/31 07:56:59.1	314.020	0.030	-0.420	-0.470
2020/01/31 07:56:59.2	314.050	0.050	-0.450	-0.510
2020/01/31 07:56:59.3	314.070	0.070	-0.480	-0.550
2020/01/31 07:56:59.4	314.110	0.100	-0.500	-0.580
2020/01/31 07:56:59.5	314.140	0.120	-0.530	-0.610
2020/01/31 07:56:59.6	314.170	0.140	-0.550	-0.640
2020/01/31 07:56:59.7	314.210	0.160	-0.570	-0.670
2020/01/31 07:56:59.8	314.250	0.170	-0.600	-0.690
2020/01/31 07:56:59.9	314.280	0.190	-0.610	-0.720
2020/01/31 07:57:00.0	314.320	0.200	-0.630	-0.730
2020/01/31 07:57:00.1	314.350	0.220	-0.640	-0.750
2020/01/31 07:57:00.2	314.390	0.230	-0.650	-0.760
2020/01/31 07:57:00.3	314.420	0.240	-0.660	-0.770
2020/01/31 07:57:00.4	314.450	0.240	-0.660	-0.770
2020/01/31 07:57:00.5	314.480	0.240	-0.650	-0.770
2020/01/31 07:57:00.6	314.520	0.240	-0.640	-0.760
2020/01/31 07:57:00.7	314.550	0.240	-0.630	-0.760
2020/01/31 07:57:00.8	314.570	0.240	-0.610	-0.740
2020/01/31 07:57:00.9	314.600	0.230	-0.590	-0.720
2020/01/31 07:57:01.0	314.620	0.220	-0.560	-0.700
2020/01/31 07:57:01.1	314.640	0.200	-0.530	-0.680
2020/01/31 07:57:01.2	314.660	0.190	-0.490	-0.650
2020/01/31 07:57:01.3	314.670	0.170	-0.450	-0.610
2020/01/31 07:57:01.4	314.680	0.150	-0.400	-0.580
2020/01/31 07:57:01.5	314.690	0.120	-0.360	-0.540
2020/01/31 07:57:01.6	314.700	0.100	-0.310	-0.490
2020/01/31 07:57:01.7	314.710	0.070	-0.250	-0.450
2020/01/31 07:57:01.8	314.710	0.040	-0.200	-0.400
2020/01/31 07:57:01.9	314.710	0.010	-0.150	-0.350
2020/01/31 07:57:02.0	314.710	-0.020	-0.090	-0.300
2020/01/31 07:57:02.1	314.710	-0.050	-0.030	-0.250
2020/01/31 07:57:02.2	314.700	-0.080	0.020	-0.190
2020/01/31 07:57:02.3	314.700	-0.110	0.070	-0.130
2020/01/31 07:57:02.4	314.690	-0.140	0.120	-0.080
2020/01/31 07:57:02.5	314.680	-0.170	0.170	-0.030
2020/01/31 07:57:02.6	314.660	-0.200	0.220	0.030
2020/01/31 07:57:02.7	314.650	-0.230	0.260	0.080
2020/01/31 07:57:02.8	314.630	-0.260	0.300	0.140
2020/01/31 07:57:02.9	314.610	-0.280	0.340	0.190
2020/01/31 07:57:03.0	314.590	-0.310	0.370	0.240
2020/01/31 07:57:03.1	314.560	-0.330	0.400	0.290
2020/01/31 07:57:03.2	314.540	-0.350	0.430	0.350
2020/01/31 07:57:03.3	314.520	-0.360	0.450	0.390
2020/01/31 07:57:03.4	314.490	-0.380	0.460	0.440
2020/01/31 07:57:03.5	314.450	-0.390	0.470	0.490
2020/01/31 07:57:03.6	314.420	-0.400	0.480	0.540
2020/01/31 07:57:03.7	314.380	-0.400	0.480	0.590
2020/01/31 07:57:03.8	314.340	-0.410	0.480	0.630
2020/01/31 07:57:03.9	314.300	-0.410	0.470	0.680
2020/01/31 07:57:04.0	314.260	-0.410	0.460	0.720
2020/01/31 07:57:04.1	314.220	-0.400	0.440	0.760
2020/01/31 07:57:04.2	314.180	-0.400	0.420	0.800
2020/01/31 07:57:04.3	314.150	-0.390	0.390	0.840
2020/01/31 07:57:04.4	314.110	-0.380	0.360	0.870
2020/01/31 07:57:04.5	314.070	-0.360	0.330	0.900
2020/01/31 07:57:04.6	314.030	-0.350	0.290	0.930
2020/01/31 07:57:04.7	313.990	-0.330	0.250	0.950
2020/01/31 07:57:04.8	313.950	-0.310	0.210	0.960
2020/01/31 07:57:04.9	313.910	-0.290	0.160	0.980
2020/01/31 07:57:05.0	313.880	-0.270	0.120	0.990
2020/01/31 07:57:05.1	313.850	-0.250	0.070	0.990
2020/01/31 07:57:05.2	313.820	-0.230	0.020	0.990
2020/01/31 07:57:05.3	313.790	-0.200	-0.030	0.980
2020/01/31 07:57:05.4	313.770	-0.180	-0.080	0.970
2020/01/31 07:57:05.5	313.750	-0.160	-0.130	0.960
2020/01/31 07:57:05.6	313.730	-0.130	-0.180	0.940
2020/01/31 07:57:05.7	313.710	-0.110	-0.230	0.920
2020/01/31 07:57:05.8	313.690	-0.080	-0.280	0.900
2020/01/31 07:57:05.9	313.680	-0.060	-0.330	0.880
2020/01/31 07:57:06.0	313.670	-0.040	-0.370	0.850
2020/01/31 07:57:06.1	313.660	-0.010	-0.410	0.820
2020/01/31 07:57:06.2	313.650	0.010	-0.450	0.790
2020/01/31 07:57:06.3	313.650	0.030	-0.480	0.760
2020/01/31 07:57:06.4	313.650	0.050	-0.510	0.730
2020/01/31 07:57:06.5	313.640	0.070	-0.540	0.700
2020/01/31 07:57:06.6	313.640	0.080	-0.560	0.670
2020/01/31 07:57:06.7	313.640	0.100	-0.580	0.650
2020/01/31 07:57:06.8	313.630	0.110	-0.590	0.620
2020/01/31 07:57:06.9	313.630	0.120	-0.600	0.590
2020/01/31 07:57:07.0	313.630	0.130	-0.610	0.560
2020/01/31 07:57:07.1	313.630	0.140	-0.610	0.530
2020/01/31 07:57:07.2	313.630	0.150	-0.610	0.510
2020/01/31 07:57:07.3	313.640	0.150	-0.600	0.480
2020/01/31 07:57:07.4	313.640	0.160	-0.590	0.460
2020/01/31 07:57:07.5	313.640	0.160	-0.580	0.430
2020/01/31 07:57:07.6	313.650	0.160	-0.560	0.410
2020/01/31 07:57:07.7	313.650	0.160	-0.550	0.380
2020/01/31 07:57:07.8	313.650	0.160	-0.530	0.360
2020/01/31 07:57:07.9	313.660	0.160	-0.510	0.340
2020/01/31 07:57:08.0	313.660	0.160	-0.490	0.320
2020/01/31 07:57:08.1	313.670	0.160	-0.470	0.300
2020/01/31 07:57:08.2	313.680	0.150	-0.450	0.280
2020/01/31 07:57:08.3	313.690	0.150	-0.430	0.260
2020/01/31 07:57:08.4	313.700	0.140	-0.410	0.250
2020/01/31 07:57:08.5	313.710	0.140	-0.390	0.230
2020/01/31 07:57:08.6	313.720	0.130	-0.370	0.210
2020/01/31 07:57:08.7	313.740	0.130	-0.360	0.200
2020/01/31 07:57:08.8	313.750	0.130	-0.350	0.180
2020/01/31 07:57:08.9	313.770	0.120	-0.340	0.170
2020/01/31 07:57:09.0	313.790	0.120	-0.330	0.160
2020/01/31 07:57:09.1	313.800	0.110	-0.330	0.150
2020/01/31 07:57:09.2	313.820	0.110	-0.320	0.140
2020/01/31 07:57:09.3	313.840	0.110	-0.330	0.130
2020/01/31 07:57:09.4	313.860	0.110	-0.330	0.120
2020/01/31 07:57:09.5	313.870	0.110	-0.340	0.110
2020/01/31 07:57:09.6	313.890	0.110	-0.340	0.110
2020/01/31 07:57:09.7	313.910	0.110	-0.350	0.100
2020/01/31 07:57:09.8	313.930	0.110	-0.360	0.100
2020/01/31 07:57:09.9	313.940	0.110	-0.380	0.100
2020/01/31 07:57:10.0	313.960	0.110	-0.390	0.100
2020/01/31 07:57:10.1	313.980	0.110	-0.410	0.100
2020/01/31 07:57:10.2	313.990	0.110	-0.420	0.110
2020/01/31 07:57:10.3	314.000	0.110	-0.440	0.110
2020/01/31 07:57:10.4	314.020	0.120	-0.450	0.110
2020/01/31 07:57:10.5	314.030	0.120	-0.470	0.120
2020/01/31 07:57:10.6	314.040	0.120	-0.490	0.120
2020/01/31 07:57:10.7	314.060	0.120	-0.510	0.130
2020/01/31 07:57:10.8	314.070	0.130	-0.530	0.130
2020/01/31 07:57:10.9	314.090	0.130	-0.550	0.140
2020/01/31 07:57:11.0	314.100	0.140	-0.560	0.140
2020/01/31 07:57:11.1	314.120	0.140	-0.580	0.150
2020/01/31 07:57:11.2	314.130	0.140	-0.600	0.160
2020/01/31 07:57:11.3	314.150	0.150	-0.610	0.160
2020/01/31 07:57:11.4	314.170	0.150	-0.630	0.170
2020/01/31 07:57:11.5	314.190	0.160	-0.640	0.170
2020/01/31 07:57:11.6	314.210	0.160	-0.650	0.180
2020/01/31 07:57:11.7	314.220	0.170	-0.660	0.180
2020/01/31 07:57:11.8	314.240	0.170	-0.670	0.190
2020/01/31 07:57:11.9	314.260	0.180	-0.680	0.190
2020/01/31 07:57:12.0	314.280	0.180	-0.680	0.200
2020/01/31 07:57:12.1	314.300	0.190	-0.680	0.200
2020/01/31 07:57:12.2	314.320	0.190	-0.680	0.210
2020/01/31 07:57:12.3	314.340	0.190	-0.680	0.210
2020/01/31 07:57:12.4	314.360	0.200	-0.670	0.210
2020/01/31 07:57:12.5	314.370	0.200	-0.660	0.220
2020/01/31 07:57:12.6	314.390	0.200	-0.650	0.230
2020/01/31 07:57:12.7	314.410	0.200	-0.640	0.230
2020/01/31 07:57:12.8	314.430	0.210	-0.620	0.240
2020/01/31 07:57:12.9	314.440	0.210	-0.590	0.250
2020/01/31 07:57:13.0	314.450	0.210	-0.570	0.270
2020/01/31 07:57:13.1	314.460	0.200	-0.540	0.280
2020/01/31 07:57:13.2	314.470	0.200	-0.510	0.300
2020/01/31 07:57:13.3	314.480	0.200	-0.470	0.320
2020/01/31 07:57:13.4	314.490	0.190	-0.430	0.340
2020/01/31 07:57:13.5	314.490	0.190	-0.390	0.360
2020/01/31 07:57:13.6	314.490	0.180	-0.350	0.380
2020/01/31 07:57:13.7	314.490	0.170	-0.300	0.400
2020/01/31 07:57:13.8	314.490	0.160	-0.250	0.430
2020/01/31 07:57:13.9	314.480	0.150	-0.200	0.450
2020/01/31 07:57:14.0	314.480	0.140	-0.140	0.470
2020/01/31 07:57:14.1	314.470	0.130	-0.090	0.490
2020/01/31 07:57:14.2	314.460	0.110	-0.030	0.520
2020/01/31 07:57:14.3	314.460	0.090	0.020	0.540
2020/01/31 07:57:14.4	314.440	0.080	0.070	0.560
2020/01/31 07:57:14.5	314.430	0.060	0.130	0.580
2020/01/31 07:57:14.6	314.420	0.040	0.180	0.590
2020/01/31 07:57:14.7	314.400	0.020	0.230	0.610
2020/01/31 07:57:14.8	314.380	-0.000	0.280	0.620
2020/01/31 07:57:14.9	314.370	-0.020	0.320	0.640
2020/01/31 07:57:15.0	314.350	-0.040	0.360	0.650
2020/01/31 07:57:15.1	314.330	-0.060	0.400	0.650
2020/01/31 07:57:15.2	314.310	-0.080	0.440	0.660
2020/01/31 07:57:15.3	314.310	-0.110	0.470	0.660
2020/01/31 07:57:15.4	314.290	-0.130	0.500	0.660
2020/01/31 07:57:15.5	314.270	-0.150	0.530	0.660
2020/01/31 07:57:15.6	314.250	-0.170	0.550	0.650
2020/01/31 07:57:15.7	314.230	-0.190	0.560	0.650
2020/01/31 07:57:15.8	314.220	-0.210	0.580	0.640
2020/01/31 07:57:15.9	314.200	-0.220	0.580	0.620
2020/01/31 07:57:16.0	314.180	-0.240	0.590	0.610
2020/01/31 07:57:16.1	314.160	-0.260	0.590	0.590
2020/01/31 07:57:16.2	314.150	-0.270	0.580	0.580
2020/01/31 07:57:16.3	314.130	-0.280	0.570	0.560
2020/01/31 07:57:16.4	314.120	-0.290	0.560	0.530
2020/01/31 07:57:16.5	314.100	-0.300	0.540	0.510
2020/01/31 07:57:16.6	314.090	-0.310	0.520	0.490
2020/01/31 07:57:16.7	314.070	-0.320	0.500	0.470
2020/01/31 07:57:16.8	314.060	-0.320	0.480	0.440
2020/01/31 07:57:16.9	314.050	-0.330	0.450	0.420
2020/01/31 07:57:17.0	314.030	-0.330	0.420	0.390
2020/01/31 07:57:17.1	314.020	-0.330	0.390	0.370
2020/01/31 07:57:17.2	314.010	-0.330	0.350	0.340
2020/01/31 07:57:17.3	314.000	-0.320	0.320	0.310
2020/01/31 07:57:17.4	313.990	-0.320	0.290	0.280
2020/01/31 07:57:17.5	313.980	-0.310	0.250	0.250
2020/01/31 07:57:17.6	313.970	-0.300	0.210	0.230
2020/01/31 07:57:17.7	313.960	-0.290	0.170	0.200
2020/01/31 07:57:17.8	313.950	-0.280	0.130	0.170
2020/01/31 07:57:17.9	313.950	-0.270	0.090	0.140
2020/01/31 07:57:18.0	313.940	-0.260	0.050	0.120
2020/01/31 07:57:18.1	313.930	-0.250	0.020	0.090
2020/01/31 07:57:18.2	313.930	-0.230	-0.020	0.070
2020/01/31 07:57:18.3	313.910	-0.220	-0.060	0.040
2020/01/31 07:57:18.4	313.900	-0.200	-0.100	0.020
2020/01/31 07:57:18.5	313.900	-0.190	-0.130	0.000
2020/01/31 07:57:18.6	313.890	-0.170	-0.160	-0.010
2020/01/31 07:57:18.7	313.890	-0.150	-0.190	-0.030
2020/01/31 07:57:18.8	313.880	-0.140	-0.220	-0.040
2020/01/31 07:57:18.9	313.870	-0.120	-0.250	-0.050
2020/01/31 07:57:19.0	313.870	-0.100	-0.270	-0.060
2020/01/31 07:57:19.1	313.860	-0.090	-0.290	-0.060
2020/01/31 07:57:19.2	313.860	-0.070	-0.320	-0.060
2020/01/31 07:57:19.3	313.840	-0.060	-0.330	-0.070
2020/01/31 07:57:19.4	313.830	-0.050	-0.350	-0.060
2020/01/31 07:57:19.5	313.830	-0.030	-0.370	-0.060
2020/01/31 07:57:19.6	313.820	-0.020	-0.390	-0.050
2020/01/31 07:57:19.7	313.820	-0.010	-0.410	-0.050
2020/01/31 07:57:19.8	313.810	-0.000	-0.430	-0.040
2020/01/31 07:57:19.9	313.810	0.010	-0.450	-0.030
2020/01/31 07:57:20.0	313.810	0.010	-0.470	-0.020
2020/01/31 07:57:20.1	313.800	0.020	-0.490	-0.010
2020/01/31 07:57:20.2	313.800	0.030	-0.510	0.000
2020/01/31 07:57:20.3	313.800	0.030	-0.530	0.010
2020/01/31 07:57:20.4	313.800	0.030	-0.560	0.020
2020/01/31 07:57:20.5	313.800	0.040	-0.580	0.030
2020/01/31 07:57:20.6	313.810	0.040	-0.600	0.040
2020/01/31 07:57:20.7	313.810	0.040	-0.630	0.050
2020/01/31 07:57:20.8	313.820	0.040	-0.650	0.060
2020/01/31 07:57:20.9	313.820	0.040	-0.680	0.070
2020/01/31 07:57:21.0	313.830	0.040	-0.700	0.080
2020/01/31 07:57:21.1	313.840	0.040	-0.730	0.080
2020/01/31 07:57:21.2	313.850	0.040	-0.750	0.090
2020/01/31 07:57:21.3	313.860	0.040	-0.770	0.090
2020/01/31 07:57:21.4	313.870	0.040	-0.800	0.100
2020/01/31 07:57:21.5	313.880	0.040	-0.820	0.100
2020/01/31 07:57:21.6	313.890	0.040	-0.840	0.100
2020/01/31 07:57:21.7	313.900	0.040	-0.860	0.100
2020/01/31 07:57:21.8	313.920	0.030	-0.880	0.100
2020/01/31 07:57:21.9	313.930	0.030	-0.900	0.100
2020/01/31 07:57:22.0	313.940	0.040	-0.910	0.100
2020/01/31 07:57:22.1	313.960	0.040	-0.930	0.100
2020/01/31 07:57:22.2	313.970	0.040	-0.940	0.100
2020/01/31 07:57:22.3	313.980	0.040	-0.950	0.100
2020/01/31 07:57:22.4	314.000	0.040	-0.950	0.100
2020/01/31 07:57:22.5	314.010	0.040	-0.960	0.100
2020/01/31 07:57:22.6	314.030	0.050	-0.960	0.100
2020/01/31 07:57:22.7	314.050	0.050	-0.960	0.110
2020/01/31 07:57:22.8	314.070	0.060	-0.950	0.110
2020/01/31 07:57:22.9	314.090	0.060	-0.940	0.110
2020/01/31 07:57:23.0	314.110	0.070	-0.930	0.120
2020/01/31 07:57:23.1	314.130	0.080	-0.920	0.130
2020/01/31 07:57:23.2	314.150	0.080	-0.900	0.140
2020/01/31 07:57:23.3	314.170	0.090	-0.890	0.140
2020/01/31 07:57:23.4	314.190	0.100	-0.870	0.150
2020/01/31 07:57:23.5	314.210	0.110	-0.840	0.160
2020/01/31 07:57:23.6	314.230	0.120	-0.820	0.180
2020/01/31 07:57:23.7	314.250	0.120	-0.790	0.190
2020/01/31 07:57:23.8	314.280	0.130	-0.760	0.200
2020/01/31 07:57:23.9	314.300	0.140	-0.730	0.220
2020/01/31 07:57:24.0	314.320	0.150	-0.690	0.230
2020/01/31 07:57:24.1	314.340	0.160	-0.660	0.240
2020/01/31 07:57:24.2	314.360	0.170	-0.620	0.260
2020/01/31 07:57:24.3	314.380	0.170	-0.580	0.270
2020/01/31 07:57:24.4	314.400	0.180	-0.540	0.290
2020/01/31 07:57:24.5	314.420	0.190	-0.510	0.300
2020/01/31 07:57:24.6	314.440	0.200	-0.470	0.310
2020/01/31 07:57:24.7	314.470	0.200	-0.440	0.320
2020/01/31 07:57:24.8	314.490	0.210	-0.400	0.330
2020/01/31 07:57:24.9	314.510	0.220	-0.370	0.340
2020/01/31 07:57:25.0	314.530	0.220	-0.330	0.350
2020/01/31 07:57:25.1	314.550	0.230	-0.300	0.360
2020/01/31 07:57:25.2	314.570	0.230	-0.270	0.370
2020/01/31 07:57:25.3	314.600	0.230	-0.240	0.380
2020/01/31 07:57:25.4	314.620	0.240	-0.210	0.390
2020/01/31 07:57:25.5	314.640	0.240	-0.180	0.400
2020/01/31 07:57:25.6	314.660	0.240	-0.150	0.410
2020/01/31 07:57:25.7	314.670	0.230	-0.120	0.420
2020/01/31 07:57:25.8	314.680	0.230	-0.100	0.440
2020/01/31 07:57:25.9	314.690	0.220	-0.070	0.450
2020/01/31 07:57:26.0	314.700	0.220	-0.040	0.470
2020/01/31 07:57:26.1	314.700	0.210	-0.020	0.490
2020/01/31 07:57:26.2	314.700	0.200	0.010	0.510
2020/01/31 07:57:26.3	314.690	0.190	0.040	0.530
2020/01/31 07:57:26.4	314.680	0.170	0.060	0.550
2020/01/31 07:57:26.5	314.670	0.160	0.090	0.570
2020/01/31 07:57:26.6	314.660	0.140	0.120	0.590
2020/01/31 07:57:26.7	314.640	0.130	0.150	0.610
2020/01/31 07:57:26.8	314.620	0.110	0.170	0.640
2020/01/31 07:57:26.9	314.590	0.090	0.200	0.660
2020/01/31 07:57:27.0	314.560	0.070	0.230	0.680
2020/01/31 07:57:27.1	314.530	0.050	0.260	0.710
2020/01/31 07:57:27.2	314.500	0.030	0.290	0.730
2020/01/31 07:57:27.3	314.470	0.000	0.320	0.750
2020/01/31 07:57:27.4	314.430	-0.020	0.350	0.770
2020/01/31 07:57:27.5	314.400	-0.040	0.380	0.790
2020/01/31 07:57:27.6	314.360	-0.060	0.420	0.810
2020/01/31 07:57:27.7	314.320	-0.080	0.450	0.830
2020/01/31 07:57:27.8	314.270	-0.100	0.470	0.850
2020/01/31 07:57:27.9	314.230	-0.120	0.500	0.860
2020/01/31 07:57:28.0	314.190	-0.140	0.530	0.870
2020/01/31 07:57:28.1	314.150	-0.160	0.550	0.880
2020/01/31 07:57:28.2	314.110	-0.170	0.580	0.890
2020/01/31 07:57:28.3	314.070	-0.190	0.590	0.890
2020/01/31 07:57:28.4	314.020	-0.200	0.610	0.890
2020/01/31 07:57:28.5	313.980	-0.220	0.620	0.890
2020/01/31 07:57:28.6	313.940	-0.230	0.630	0.890
2020/01/31 07:57:28.7	313.900	-0.240	0.640	0.880
2020/01/31 07:57:28.8	313.860	-0.250	0.640	0.870
2020/01/31 07:57:28.9	313.820	-0.260	0.640	0.860
2020/01/31 07:57:29.0	313.780	-0.270	0.630	0.850
2020/01/31 07:57:29.1	313.740	-0.270	0.620	0.830
2020/01/31 07:57:29.2	313.700	-0.280	0.600	0.810
2020/01/31 07:57:29.3	313.660	-0.280	0.580	0.780
2020/01/31 07:57:29.4	313.630	-0.280	0.550	0.760
2020/01/31 07:57:29.5	313.600	-0.280	0.520	0.730
2020/01/31 07:57:29.6	313.570	-0.280	0.480	0.690
2020/01/31 07:57:29.7	313.550	-0.280	0.440	0.660
2020/01/31 07:57:29.8	313.520	-0.280	0.400	0.620
2020/01/31 07:57:29.9	313.500	-0.270	0.350	0.570
2020/01/31 07:57:30.0	313.490	-0.270	0.300	0.530
2020/01/31 07:57:30.1	313.480	-0.260	0.240	0.480
2020/01/31 07:57:30.2	313.470	-0.250	0.180	0.420
2020/01/31 07:57:30.3	313.450	-0.240	0.120	0.360
2020/01/31 07:57:30.4	313.450	-0.230	0.050	0.300
2020/01/31 07:57:30.5	313.450	-0.220	-0.010	0.240
2020/01/31 07:57:30.6	313.450	-0.210	-0.080	0.180
2020/01/31 07:57:30.7	313.460	-0.190	-0.150	0.110
2020/01/31 07:57:30.8	313.480	-0.180	-0.230	0.040
2020/01/31 07:57:30.9	313.490	-0.160	-0.300	-0.030
2020/01/31 07:57:31.0	313.510	-0.140	-0.370	-0.110
2020/01/31 07:57:31.1	313.530	-0.120	-0.440	-0.180
2020/01/31 07:57:31.2	313.560	-0.110	-0.510	-0.250
2020/01/31 07:57:31.3	313.590	-0.090	-0.570	-0.330
2020/01/31 07:57:31.4	313.620	-0.070	-0.630	-0.400
2020/01/31 07:57:31.5	313.650	-0.050	-0.690	-0.460
2020/01/31 07:57:31.6	313.680	-0.030	-0.740	-0.530
2020/01/31 07:57:31.7	313.710	-0.020	-0.790	-0.590
2020/01/31 07:57:31.8	313.740	0.000	-0.830	-0.650
2020/01/31 07:57:31.9	313.760	0.020	-0.870	-0.710
2020/01/31 07:57:32.0	313.790	0.030	-0.900	-0.750
2020/01/31 07:57:32.1	313.820	0.050	-0.920	-0.800
2020/01/31 07:57:32.2	313.840	0.060	-0.940	-0.840
2020/01/31 07:57:32.3	313.850	0.070	-0.960	-0.870
2020/01/31 07:57:32.4	313.870	0.080	-0.960	-0.890
2020/01/31 07:57:32.5	313.890	0.090	-0.960	-0.910
2020/01/31 07:57:32.6	313.910	0.100	-0.950	-0.930
2020/01/31 07:57:32.7	313.930	0.100	-0.940	-0.940
2020/01/31 07:57:32.8	313.940	0.110	-0.920	-0.940
2020/01/31 07:57:32.9	313.960	0.110	-0.900	-0.940
2020/01/31 07:57:33.0	313.970	0.110	-0.870	-0.930
2020/01/31 07:57:33.1	313.990	0.110	-0.840	-0.920
2020/01/31 07:57:33.2	314.000	0.110	-0.810	-0.900
2020/01/31 07:57:33.3	314.010	0.110	-0.770	-0.870
2020/01/31 07:57:33.4	314.020	0.110	-0.730	-0.850
2020/01/31 07:57:33.5	314.040	0.100	-0.700	-0.820
2020/01/31 07:57:33.6	314.050	0.100	-0.660	-0.790
2020/01/31 07:57:33.7	314.060	0.090	-0.620	-0.760
2020/01/31 07:57:33.8	314.070	0.090	-0.580	-0.720
2020/01/31 07:57:33.9	314.080	0.080	-0.540	-0.680
2020/01/31 07:57:34.0	314.090	0.080	-0.510	-0.640
2020/01/31 07:57:34.1	314.100	0.070	-0.470	-0.590
2020/01/31 07:57:34.2	314.110	0.070	-0.430	-0.540
2020/01/31 07:57:34.3	314.110	0.060	-0.400	-0.490
2020/01/31 07:57:34.4	314.120	0.060	-0.370	-0.440
2020/01/31 07:57:34.5	314.130	0.050	-0.340	-0.390
2020/01/31 07:57:34.6	314.130	0.050	-0.310	-0.330
2020/01/31 07:57:34.7	314.130	0.050	-0.290	-0.270
2020/01/31 07:57:34.8	314.140	0.040	-0.270	-0.210
2020/01/31 07:57:34.9	314.140	0.040	-0.250	-0.150
2020/01/31 07:57:35.0	314.140	0.040	-0.230	-0.090
2020/01/31 07:57:35.1	314.140	0.040	-0.210	-0.030
2020/01/31 07:57:35.2	314.140	0.050	-0.200	0.030
2020/01/31 07:57:35.3	314.150	0.050	-0.190	0.090
2020/01/31 07:57:35.4	314.150	0.050	-0.190	0.150
2020/01/31 07:57:35.5	314.150	0.060	-0.190	0.210
2020/01/31 07:57:35.6	314.160	0.070	-0.190	0.260
2020/01/31 07:57:35.7	314.160	0.070	-0.190	0.310
2020/01/31 07:57:35.8	314.160	0.080	-0.200	0.360
2020/01/31 07:57:35.9	314.170	0.090	-0.210	0.410
2020/01/31 07:57:36.0	314.180	0.100	-0.220	0.450
2020/01/31 07:57:36.1	314.180	0.110	-0.230	0.500
2020/01/31 07:57:36.2	314.190	0.120	-0.250	0.530
2020/01/31 07:57:36.3	314.210	0.130	-0.270	0.570
2020/01/31 07:57:36.4	314.220	0.140	-0.290	0.600
2020/01/31 07:57:36.5	314.230	0.150	-0.300	0.630
2020/01/31 07:57:36.6	314.230	0.160	-0.320	0.660
2020/01/31 07:57:36.7	314.240	0.170	-0.340	0.680
2020/01/31 07:57:36.8	314.250	0.170	-0.360	0.700
2020/01/31 07:57:36.9	314.260	0.180	-0.380	0.710
2020/01/31 07:57:37.0	314.270	0.190	-0.400	0.720
2020/01/31 07:57:37.1	314.270	0.190	-0.420	0.730
2020/01/31 07:57:37.2	314.280	0.190	-0.440	0.740
2020/01/31 07:57:37.3	314.290	0.190	-0.450	0.750
2020/01/31 07:57:37.4	314.300	0.190	-0.460	0.750
2020/01/31 07:57:37.5	314.310	0.190	-0.480	0.750
2020/01/31 07:57:37.6	314.310	0.190	-0.490	0.750
2020/01/31 07:57:37.7	314.310	0.180	-0.490	0.750
2020/01/31 07:57:37.8	314.320	0.170	-0.500	0.750
2020/01/31 07:57:37.9	314.320	0.160	-0.500	0.750
2020/01/31 07:57:38.0	314.320	0.150	-0.500	0.740
2020/01/31 07:57:38.1	314.320	0.140	-0.500	0.740
2020/01/31 07:57:38.2	314.320	0.120	-0.490	0.730
2020/01/31 07:57:38.3	314.320	0.100	-0.490	0.720
2020/01/31 07:57:38.4	314.320	0.080	-0.480	0.720
2020/01/31 07:57:38.5	314.320	0.060	-0.460	0.710
2020/01/31 07:57:38.6	314.310	0.040	-0.450	0.700
2020/01/31 07:57:38.7	314.310	0.020	-0.430	0.690
2020/01/31 07:57:38.8	314.300	-0.000	-0.410	0.680
2020/01/31 07:57:38.9	314.290	-0.030	-0.380	0.670
2020/01/31 07:57:39.0	314.280	-0.050	-0.350	0.660
2020/01/31 07:57:39.1	314.270	-0.080	-0.320	0.650
2020/01/31 07:57:39.2	314.260	-0.100	-0.290	0.640
2020/01/31 07:57:39.3	314.260	-0.130	-0.250	0.630
2020/01/31 07:57:39.4	314.240	-0.160	-0.220	0.620
2020/01/31 07:57:39.5	314.230	-0.180	-0.180	0.610
2020/01/31 07:57:39.6	314.210	-0.210	-0.140	0.600
2020/01/31 07:57:39.7	314.190	-0.230	-0.100	0.590
2020/01/31 07:57:39.8	314.180	-0.260	-0.050	0.580
2020/01/31 07:57:39.9	314.160	-0.280	-0.010	0.570
2020/01/31 07:57:40.0	314.140	-0.300	0.030	0.560
2020/01/31 07:57:40.1	314.110	-0.320	0.070	0.560
2020/01/31 07:57:40.2	314.090	-0.340	0.120	0.550
2020/01/31 07:57:40.3	314.060	-0.360	0.160	0.540
2020/01/31 07:57:40.4	314.040	-0.380	0.200	0.530
2020/01/31 07:57:40.5	314.020	-0.390	0.240	0.520
2020/01/31 07:57:40.6	313.990	-0.400	0.280	0.520
2020/01/31 07:57:40.7	313.970	-0.410	0.310	0.510
2020/01/31 07:57:40.8	313.940	-0.420	0.340	0.500
2020/01/31 07:57:40.9	313.910	-0.420	0.370	0.490
2020/01/31 07:57:41.0	313.890	-0.430	0.400	0.480
2020/01/31 07:57:41.1	313.860	-0.430	0.420	0.470
2020/01/31 07:57:41.2	313.840	-0.430	0.440	0.460
2020/01/31 07:57:41.3	313.800	-0.420	0.450	0.450
2020/01/31 07:57:41.4	313.770	-0.410	0.460	0.440
2020/01/31 07:57:41.5	313.750	-0.400	0.470	0.430
2020/01/31 07:57:41.6	313.730	-0.390	0.470	0.410
2020/01/31 07:57:41.7	313.710	-0.370	0.470	0.400
2020/01/31 07:57:41.8	313.690	-0.360	0.460	0.380
2020/01/31 07:57:41.9	313.670	-0.340	0.450	0.360
2020/01/31 07:57:42.0	313.660	-0.320	0.430	0.350
2020/01/31 07:57:42.1	313.640	-0.290	0.410	0.330
2020/01/31 07:57:42.2	313.630	-0.270	0.380	0.310
2020/01/31 07:57:42.3	313.630	-0.240	0.350	0.290
2020/01/31 07:57:42.4	313.620	-0.210	0.320	0.270
2020/01/31 07:57:42.5	313.610	-0.180	0.280	0.250
2020/01/31 07:57:42.6	313.610	-0.150	0.240	0.230
2020/01/31 07:57:42.7	313.600	-0.120	0.200	0.220
2020/01/31 07:57:42.8	313.600	-0.090	0.160	0.200
2020/01/31 07:57:42.9	313.590	-0.060	0.110	0.180
2020/01/31 07:57:43.0	313.590	-0.030	0.060	0.160
2020/01/31 07:57:43.1	313.600	0.000	0.010	0.140
2020/01/31 07:57:43.2	313.600	0.030	-0.040	0.120
2020/01/31 07:57:43.3	313.610	0.060	-0.090	0.100
2020/01/31 07:57:43.4	313.610	0.090	-0.140	0.090
2020/01/31 07:57:43.5	313.620	0.120	-0.200	0.070
2020/01/31 07:57:43.6	313.630	0.150	-0.250	0.050
2020/01/31 07:57:43.7	313.650	0.170	-0.300	0.040
2020/01/31 07:57:43.8	313.660	0.200	-0.350	0.020
2020/01/31 07:57:43.9	313.680	0.220	-0.400	0.010
2020/01/31 07:57:44.0	313.700	0.240	-0.450	-0.010
2020/01/31 07:57:44.1	313.720	0.260	-0.500	-0.020
2020/01/31 07:57:44.2	313.740	0.280	-0.540	-0.030
2020/01/31 07:57:44.3	313.750	0.290	-0.590	-0.040
2020/01/31 07:57:44.4	313.770	0.310	-0.630	-0.050
2020/01/31 07:57:44.5	313.800	0.320	-0.660	-0.060
2020/01/31 07:57:44.6	313.830	0.330	-0.700	-0.070
2020/01/31 07:57:44.7	313.860	0.340	-0.730	-0.080
2020/01/31 07:57:44.8	313.880	0.350	-0.760	-0.080
2020/01/31 07:57:44.9	313.910	0.350	-0.780	-0.090
2020/01/31 07:57:45.0	313.940	0.360	-0.800	-0.090
2020/01/31 07:57:45.1	313.970	0.360	-0.820	-0.090
2020/01/31 07:57:45.2	314.000	0.360	-0.830	-0.100
2020/01/31 07:57:45.3	314.030	0.350	-0.840	-0.100
2020/01/31 07:57:45.4	314.060	0.350	-0.850	-0.100
2020/01/31 07:57:45.5	314.090	0.350	-0.850	-0.100
2020/01/31 07:57:45.6	314.120	0.340	-0.850	-0.100
2020/01/31 07:57:45.7	314.150	0.330	-0.840	-0.090
2020/01/31 07:57:45.8	314.180	0.320	-0.840	-0.090
2020/01/31 07:57:45.9	314.210	0.310	-0.830	-0.090
2020/01/31 07:57:46.0	314.240	0.300	-0.810	-0.090
2020/01/31 07:57:46.1	314.270	0.290	-0.790	-0.080
2020/01/31 07:57:46.2	314.300	0.280	-0.770	-0.080
2020/01/31 07:57:46.3	314.330	0.260	-0.750	-0.070
2020/01/31 07:57:46.4	314.350	0.250	-0.720	-0.060
2020/01/31 07:57:46.5	314.380	0.240	-0.690	-0.060
2020/01/31 07:57:46.6	314.400	0.220	-0.670	-0.050
2020/01/31 07:57:46.7	314.430	0.210	-0.630	-0.040
2020/01/31 07:57:46.8	314.450	0.190	-0.600	-0.030
2020/01/31 07:57:46.9	314.470	0.180	-0.570	-0.020
2020/01/31 07:57:47.0	314.490	0.160	-0.530	-0.020
2020/01/31 07:57:47.1	314.510	0.150	-0.500	-0.010
2020/01/31 07:57:47.2	314.520	0.130	-0.460	0.000
2020/01/31 07:57:47.3	314.530	0.110	-0.420	0.010
2020/01/31 07:57:47.4	314.550	0.100	-0.380	0.020
2020/01/31 07:57:47.5	314.560	0.080	-0.350	0.030
2020/01/31 07:57:47.6	314.570	0.060	-0.310	0.040
2020/01/31 07:57:47.7	314.580	0.050	-0.270	0.050
2020/01/31 07:57:47.8	314.590	0.030	-0.240	0.060
2020/01/31 07:57:47.9	314.600	0.010	-0.200	0.070
2020/01/31 07:57:48.0	314.610	-0.010	-0.170	0.080
2020/01/31 07:57:48.1	314.610	-0.020	-0.140	0.090
2020/01/31 07:57:48.2	314.610	-0.040	-0.110	0.100
2020/01/31 07:57:48.3	314.620	-0.060	-0.080	0.110
2020/01/31 07:57:48.4	314.620	-0.080	-0.050	0.130
2020/01/31 07:57:48.5	314.620	-0.100	-0.030	0.140
2020/01/31 07:57:48.6	314.620	-0.110	-0.010	0.160
2020/01/31 07:57:48.7	314.620	-0.130	0.010	0.170
2020/01/31 07:57:48.8	314.620	-0.150	0.030	0.190
2020/01/31 07:57:48.9	314.610	-0.160	0.050	0.210
2020/01/31 07:57:49.0	314.610	-0.180	0.060	0.220
2020/01/31 07:57:49.1	314.600	-0.190	0.070	0.240
2020/01/31 07:57:49.2	314.600	-0.200	0.070	0.260
2020/01/31 07:57:49.3	314.590	-0.210	0.080	0.280
2020/01/31 07:57:49.4	314.580	-0.220	0.080	0.300
2020/01/31 07:57:49.5	314.580	-0.230	0.080	0.320
2020/01/31 07:57:49.6	314.570	-0.240	0.070	0.340
2020/01/31 07:57:49.7	314.560	-0.240	0.070	0.360
2020/01/31 07:57:49.8	314.550	-0.250	0.060	0.390
2020/01/31 07:57:49.9	314.540	-0.250	0.050	0.410
2020/01/31 07:57:50.0	314.530	-0.250	0.040	0.430
2020/01/31 07:57:50.1	314.520	-0.250	0.020	0.460
2020/01/31 07:57:50.2	314.510	-0.240	0.010	0.490
2020/01/31 07:57:50.3	314.500	-0.240	-0.010	0.510
2020/01/31 07:57:50.4	314.480	-0.230	-0.030	0.530
2020/01/31 07:57:50.5	314.460	-0.220	-0.040	0.560
2020/01/31 07:57:50.6	314.440	-0.210	-0.060	0.590
2020/01/31 07:57:50.7	314.420	-0.200	-0.080	0.620
2020/01/31 07:57:50.8	314.400	-0.180	-0.090	0.640
2020/01/31 07:57:50.9	314.380	-0.170	-0.110	0.670
2020/01/31 07:57:51.0	314.350	-0.150	-0.130	0.700
2020/01/31 07:57:51.1	314.330	-0.130	-0.150	0.730
2020/01/31 07:57:51.2	314.300	-0.110	-0.160	0.750
2020/01/31 07:57:51.3	314.290	-0.090	-0.180	0.780
2020/01/31 07:57:51.4	314.260	-0.070	-0.200	0.810
2020/01/31 07:57:51.5	314.230	-0.050	-0.210	0.830
2020/01/31 07:57:51.6	314.200	-0.030	-0.220	0.850
2020/01/31 07:57:51.7	314.180	-0.010	-0.240	0.870
2020/01/31 07:57:51.8	314.150	0.010	-0.250	0.890
2020/01/31 07:57:51.9	314.120	0.040	-0.260	0.910
2020/01/31 07:57:52.0	314.100	0.060	-0.270	0.920
2020/01/31 07:57:52.1	314.070	0.080	-0.280	0.930
2020/01/31 07:57:52.2	314.040	0.100	-0.290	0.940
2020/01/31 07:57:52.3	314.010	0.120	-0.290	0.950
2020/01/31 07:57:52.4	313.990	0.130	-0.300	0.950
2020/01/31 07:57:52.5	313.970	0.150	-0.300	0.950
2020/01/31 07:57:52.6	313.940	0.160	-0.300	0.940
2020/01/31 07:57:52.7	313.920	0.170	-0.300	0.940
2020/01/31 07:57:52.8	313.900	0.180	-0.300	0.930
2020/01/31 07:57:52.9	313.890	0.190	-0.300	0.910
2020/01/31 07:57:53.0	313.870	0.190	-0.300	0.900
2020/01/31 07:57:53.1	313.860	0.200	-0.300	0.880
2020/01/31 07:57:53.2	313.840	0.200	-0.300	0.860
2020/01/31 07:57:53.3	313.830	0.200	-0.300	0.830
2020/01/31 07:57:53.4	313.830	0.190	-0.290	0.800
2020/01/31 07:57:53.5	313.820	0.180	-0.290	0.770
2020/01/31 07:57:53.6	313.810	0.170	-0.290	0.730
2020/01/31 07:57:53.7	313.810	0.160	-0.290	0.700
2020/01/31 07:57:53.8	313.810	0.150	-0.290	0.660
2020/01/31 07:57:53.9	313.810	0.130	-0.290	0.620
2020/01/31 07:57:54.0	313.810	0.120	-0.290	0.580
2020/01/31 07:57:54.1	313.810	0.100	-0.290	0.530
2020/01/31 07:57:54.2	313.820	0.080	-0.290	0.490
2020/01/31 07:57:54.3	313.820	0.050	-0.290	0.440
2020/01/31 07:57:54.4	313.830	0.030	-0.290	0.400
2020/01/31 07:57:54.5	313.840	0.010	-0.290	0.350
2020/01/31 07:57:54.6	313.860	-0.020	-0.290	0.300
2020/01/31 07:57:54.7	313.870	-0.040	-0.290	0.250
2020/01/31 07:57:54.8	313.890	-0.070	-0.290	0.210
2020/01/31 07:57:54.9	313.910	-0.100	-0.290	0.160
2020/01/31 07:57:55.0	313.920	-0.120	-0.290	0.110
2020/01/31 07:57:55.1	313.940	-0.150	-0.280	0.070
2020/01/31 07:57:55.2	313.960	-0.170	-0.280	0.030
2020/01/31 07:57:55.3	313.980	-0.200	-0.270	-0.020
2020/01/31 07:57:55.4	314.000	-0.220	-0.260	-0.060
2020/01/31 07:57:55.5	314.020	-0.240	-0.260	-0.100
2020/01/31 07:57:55.6	314.040	-0.270	-0.240	-0.140
2020/01/31 07:57:55.7	314.060	-0.280	-0.230	-0.170
2020/01/31 07:57:55.8	314.090	-0.300	-0.220	-0.210
2020/01/31 07:57:55.9	314.110	-0.320	-0.210	-0.240
2020/01/31 07:57:56.0	314.130	-0.330	-0.190	-0.270
2020/01/31 07:57:56.1	314.150	-0.340	-0.180	-0.290
2020/01/31 07:57:56.2	314.170	-0.350	-0.170	-0.320
2020/01/31 07:57:56.3	314.180	-0.360	-0.160	-0.340
2020/01/31 07:57:56.4	314.200	-0.360	-0.140	-0.360
2020/01/31 07:57:56.5	314.220	-0.360	-0.130	-0.370
2020/01/31 07:57:56.6	314.240	-0.360	-0.120	-0.390
2020/01/31 07:57:56.7	314.260	-0.360	-0.110	-0.400
2020/01/31 07:57:56.8	314.280	-0.360	-0.100	-0.400
2020/01/31 07:57:56.9	314.300	-0.350	-0.090	-0.410
2020/01/31 07:57:57.0	314.310	-0.340	-0.080	-0.410
2020/01/31 07:57:57.1	314.330	-0.330	-0.070	-0.410
2020/01/31 07:57:57.2	314.340	-0.320	-0.060	-0.410
2020/01/31 07:57:57.3	314.360	-0.310	-0.060	-0.400
2020/01/31 07:57:57.4	314.380	-0.290	-0.060	-0.390
2020/01/31 07:57:57.5	314.390	-0.280	-0.050	-0.380
2020/01/31 07:57:57.6	314.400	-0.260	-0.050	-0.370
2020/01/31 07:57:57.7	314.420	-0.240	-0.050	-0.350
2020/01/31 07:57:57.8	314.430	-0.220	-0.050	-0.330
2020/01/31 07:57:57.9	314.440	-0.200	-0.050	-0.300
2020/01/31 07:57:58.0	314.450	-0.180	-0.060	-0.280
2020/01/31 07:57:58.1	314.450	-0.160	-0.060	-0.250
2020/01/31 07:57:58.2	314.460	-0.140	-0.070	-0.220
2020/01/31 07:57:58.3	314.460	-0.110	-0.070	-0.190
2020/01/31 07:57:58.4	314.460	-0.090	-0.080	-0.160
2020/01/31 07:57:58.5	314.470	-0.070	-0.090	-0.130
2020/01/31 07:57:58.6	314.470	-0.050	-0.100	-0.100
2020/01/31 07:57:58.7	314.480	-0.030	-0.110	-0.070
2020/01/31 07:57:58.8	314.480	-0.010	-0.120	-0.040
2020/01/31 07:57:58.9	314.490	0.010	-0.130	-0.010
2020/01/31 07:57:59.0	314.490	0.030	-0.140	0.020
2020/01/31 07:57:59.1	314.490	0.050	-0.160	0.050
2020/01/31 07:57:59.2	314.490	0.060	-0.170	0.070
2020/01/31 07:57:59.3	314.500	0.080	-0.190	0.100
2020/01/31 07:57:59.4	314.500	0.090	-0.200	0.120
2020/01/31 07:57:59.5	314.500	0.110	-0.220	0.140
2020/01/31 07:57:59.6	314.500	0.120	-0.240	0.160
2020/01/31 07:57:59.7	314.510	0.130	-0.260	0.170
2020/01/31 07:57:59.8	314.510	0.140	-0.270	0.190
2020/01/31 07:57:59.9	314.510	0.150	-0.290	0.200
2020/01/31 07:58:00.0	314.520	0.150	-0.310	0.210
2020/01/31 07:58:00.1	314.520	0.160	-0.330	0.220
2020/01/31 07:58:00.2	314.520	0.160	-0.350	0.230
2020/01/31 07:58:00.3	314.530	0.170	-0.370	0.240
2020/01/31 07:58:00.4	314.530	0.170	-0.380	0.250
2020/01/31 07:58:00.5	314.530	0.170	-0.400	0.260
2020/01/31 07:58:00.6	314.530	0.170	-0.420	0.260
2020/01/31 07:58:00.7	314.530	0.170	-0.430	0.270
2020/01/31 07:58:00.8	314.530	0.170	-0.440	0.270
2020/01/31 07:58:00.9	314.520	0.170	-0.460	0.280
2020/01/31 07:58:01.0	314.520	0.160	-0.470	0.280
2020/01/31 07:58:01.1	314.520	0.160	-0.480	0.290
2020/01/31 07:58:01.2	314.520	0.150	-0.490	0.290
2020/01/31 07:58:01.3	314.520	0.150	-0.490	0.290
2020/01/31 07:58:01.4	314.520	0.140	-0.500	0.290
2020/01/31 07:58:01.5	314.520	0.140	-0.510	0.300
2020/01/31 07:58:01.6	314.520	0.130	-0.510	0.300
2020/01/31 07:58:01.7	314.510	0.130	-0.510	0.300
2020/01/31 07:58:01.8	314.520	0.120	-0.520	0.300
2020/01/31 07:58:01.9	314.520	0.120	-0.520	0.290
2020/01/31 07:58:02.0	314.520	0.110	-0.520	0.290
2020/01/31 07:58:02.1	314.520	0.110	-0.520	0.290
2020/01/31 07:58:02.2	314.520	0.100	-0.520	0.290
2020/01/31 07:58:02.3	314.540	0.100	-0.520	0.280
2020/01/31 07:58:02.4	314.550	0.100	-0.520	0.270
2020/01/31 07:58:02.5	314.550	0.090	-0.520	0.270
2020/01/31 07:58:02.6	314.560	0.090	-0.520	0.260
2020/01/31 07:58:02.7	314.570	0.090	-0.520	0.250
2020/01/31 07:58:02.8	314.570	0.090	-0.520	0.250
2020/01/31 07:58:02.9	314.580	0.080	-0.520	0.240
2020/01/31 07:58:03.0	314.590	0.080	-0.520	0.230
2020/01/31 07:58:03.1	314.600	0.080	-0.510	0.220
2020/01/31 07:58:03.2	314.620	0.080	-0.510	0.210
2020/01/31 07:58:03.3	314.640	0.080	-0.500	0.200
2020/01/31 07:58:03.4	314.650	0.090	-0.500	0.190
2020/01/31 07:58:03.5	314.670	0.090	-0.490	0.180
2020/01/31 07:58:03.6	314.680	0.090	-0.480	0.180
2020/01/31 07:58:03.7	314.690	0.090	-0.480	0.170
2020/01/31 07:58:03.8	314.710	0.090	-0.470	0.160
2020/01/31 07:58:03.9	314.720	0.100	-0.450	0.160
2020/01/31 07:58:04.0	314.740	0.100	-0.440	0.150
2020/01/31 07:58:04.1	314.750	0.100	-0.430	0.150
2020/01/31 07:58:04.2	314.770	0.100	-0.410	0.140
2020/01/31 07:58:04.3	314.770	0.100	-0.390	0.140
2020/01/31 07:58:04.4	314.780	0.110	-0.370	0.140
2020/01/31 07:58:04.5	314.790	0.110	-0.350	0.140
2020/01/31 07:58:04.6	314.790	0.110	-0.330	0.140
2020/01/31 07:58:04.7	314.800	0.110	-0.300	0.140
2020/01/31 07:58:04.8	314.800	0.110	-0.280	0.150
2020/01/31 07:58:04.9	314.800	0.100	-0.250	0.160
2020/01/31 07:58:05.0	314.800	0.100	-0.220	0.170
2020/01/31 07:58:05.1	314.790	0.100	-0.190	0.180
2020/01/31 07:58:05.2	314.780	0.100	-0.150	0.190
2020/01/31 07:58:05.3	314.760	0.090	-0.120	0.200
2020/01/31 07:58:05.4	314.750	0.090	-0.080	0.220
2020/01/31 07:58:05.5	314.730	0.090	-0.050	0.240
2020/01/31 07:58:05.6	314.710	0.080	-0.010	0.260
2020/01/31 07:58:05.7	314.690	0.080	0.030	0.280
2020/01/31 07:58:05.8	314.670	0.070	0.060	0.300
2020/01/31 07:58:05.9	314.640	0.070	0.100	0.320
2020/01/31 07:58:06.0	314.620	0.060	0.130	0.350
2020/01/31 07:58:06.1	314.590	0.060	0.160	0.370
2020/01/31 07:58:06.2	314.560	0.050	0.200	0.390
2020/01/31 07:58:06.3	314.530	0.050	0.220	0.420
2020/01/31 07:58:06.4	314.490	0.040	0.250	0.440
2020/01/31 07:58:06.5	314.460	0.040	0.280	0.460
2020/01/31 07:58:06.6	314.430	0.040	0.300	0.480
2020/01/31 07:58:06.7	314.390	0.030	0.310	0.500
2020/01/31 07:58:06.8	314.360	0.030	0.330	0.510
2020/01/31 07:58:06.9	314.330	0.030	0.340	0.530
2020/01/31 07:58:07.0	314.290	0.030	0.340	0.540
2020/01/31 07:58:07.1	314.260	0.020	0.350	0.540
2020/01/31 07:58:07.2	314.230	0.020	0.340	0.550
2020/01/31 07:58:07.3	314.200	0.030	0.340	0.550
2020/01/31 07:58:07.4	314.170	0.030	0.330	0.550
2020/01/31 07:58:07.5	314.150	0.030	0.310	0.550
2020/01/31 07:58:07.6	314.120	0.030	0.300	0.540
2020/01/31 07:58:07.7	314.100	0.030	0.270	0.530
2020/01/31 07:58:07.8	314.080	0.040	0.250	0.510
2020/01/31 07:58:07.9	314.060	0.040	0.220	0.500
2020/01/31 07:58:08.0	314.050	0.050	0.190	0.480
2020/01/31 07:58:08.1	314.030	0.050	0.150	0.450
2020/01/31 07:58:08.2	314.020	0.060	0.120	0.430
2020/01/31 07:58:08.3	314.020	0.060	0.080	0.400
2020/01/31 07:58:08.4	314.010	0.070	0.040	0.370
2020/01/31 07:58:08.5	314.010	0.070	0.000	0.340
2020/01/31 07:58:08.6	314.000	0.080	-0.030	0.310
2020/01/31 07:58:08.7	314.000	0.080	-0.070	0.280
2020/01/31 07:58:08.8	314.000	0.080	-0.110	0.240
2020/01/31 07:58:08.9	314.000	0.090	-0.150	0.210
2020/01/31 07:58:09.0	314.000	0.090	-0.180	0.180
2020/01/31 07:58:09.1	314.010	0.090	-0.220	0.150
2020/01/31 07:58:09.2	314.010	0.090	-0.250	0.110
2020/01/31 07:58:09.3	314.010	0.090	-0.280	0.080
2020/01/31 07:58:09.4	314.020	0.080	-0.310	0.050
2020/01/31 07:58:09.5	314.030	0.080	-0.340	0.020
2020/01/31 07:58:09.6	314.050	0.080	-0.360	-0.010
2020/01/31 07:58:09.7	314.060	0.070	-0.380	-0.040
2020/01/31 07:58:09.8	314.080	0.060	-0.410	-0.080
2020/01/31 07:58:09.9	314.100	0.050	-0.430	-0.110
2020/01/31 07:58:10.0	314.130	0.040	-0.440	-0.140
2020/01/31 07:58:10.1	314.150	0.030	-0.460	-0.170
2020/01/31 07:58:10.2	314.180	0.020	-0.470	-0.200
2020/01/31 07:58:10.3	314.210	0.000	-0.490	-0.230
2020/01/31 07:58:10.4	314.240	-0.010	-0.500	-0.260
2020/01/31 07:58:10.5	314.270	-0.030	-0.510	-0.290
2020/01/31 07:58:10.6	314.300	-0.050	-0.510	-0.320
2020/01/31 07:58:10.7	314.330	-0.070	-0.520	-0.340
2020/01/31 07:58:10.8	314.360	-0.090	-0.520	-0.370
2020/01/31 07:58:10.9	314.390	-0.110	-0.530	-0.390
2020/01/31 07:58:11.0	314.420	-0.130	-0.530	-0.420
2020/01/31 07:58:11.1	314.450	-0.150	-0.530	-0.440
2020/01/31 07:58:11.2	314.480	-0.170	-0.520	-0.460
2020/01/31 07:58:11.3	314.510	-0.200	-0.520	-0.470
2020/01/31 07:58:11.4	314.540	-0.220	-0.510	-0.490
2020/01/31 07:58:11.5	314.560	-0.240	-0.510	-0.500
2020/01/31 07:58:11.6	314.590	-0.260	-0.500	-0.500
2020/01/31 07:58:11.7	314.610	-0.280	-0.490	-0.510
2020/01/31 07:58:11.8	314.630	-0.300	-0.480	-0.510
2020/01/31 07:58:11.9	314.650	-0.320	-0.470	-0.510
2020/01/31 07:58:12.0	314.670	-0.340	-0.450	-0.500
2020/01/31 07:58:12.1	314.690	-0.350	-0.440	-0.500
2020/01/31 07:58:12.2	314.700	-0.370	-0.430	-0.490
2020/01/31 07:58:12.3	314.700	-0.380	-0.420	-0.470
2020/01/31 07:58:12.4	314.720	-0.390	-0.400	-0.460
2020/01/31 07:58:12.5	314.730	-0.400	-0.390	-0.440
2020/01/31 07:58:12.6	314.750	-0.410	-0.380	-0.420
2020/01/31 07:58:12.7	314.760	-0.420	-0.370	-0.400
2020/01/31 07:58:12.8	314.770	-0.420	-0.360	-0.380
2020/01/31 07:58:12.9	314.780	-0.420	-0.360	-0.350
2020/01/31 07:58:13.0	314.790	-0.420	-0.350	-0.330
2020/01/31 07:58:13.1	314.800	-0.420	-0.350	-0.300
2020/01/31 07:58:13.2	314.810	-0.420	-0.350	-0.280
2020/01/31 07:58:13.3	314.820	-0.410	-0.350	-0.250
2020/01/31 07:58:13.4	314.830	-0.410	-0.350	-0.230
2020/01/31 07:58:13.5	314.840	-0.400	-0.350	-0.200
2020/01/31 07:58:13.6	314.850	-0.390	-0.360	-0.180
2020/01/31 07:58:13.7	314.860	-0.380	-0.370	-0.150
2020/01/31 07:58:13.8	314.870	-0.360	-0.380	-0.130
2020/01/31 07:58:13.9	314.880	-0.350	-0.390	-0.110
2020/01/31 07:58:14.0	314.890	-0.330	-0.400	-0.090
2020/01/31 07:58:14.1	314.890	-0.320	-0.410	-0.070
2020/01/31 07:58:14.2	314.900	-0.300	-0.420	-0.050
2020/01/31 07:58:14.3	314.910	-0.280	-0.440	-0.030
2020/01/31 07:58:14.4	314.920	-0.260	-0.450	-0.010
2020/01/31 07:58:14.5	314.920	-0.240	-0.460	0.000
2020/01/31 07:58:14.6	314.930	-0.220	-0.470	0.020
2020/01/31 07:58:14.7	314.930	-0.200	-0.490	0.040
2020/01/31 07:58:14.8	314.940	-0.180	-0.490	0.050
2020/01/31 07:58:14.9	314.940	-0.150	-0.500	0.070
2020/01/31 07:58:15.0	314.940	-0.130	-0.510	0.080
2020/01/31 07:58:15.1	314.940	-0.110	-0.510	0.100
2020/01/31 07:58:15.2	314.940	-0.090	-0.520	0.110
2020/01/31 07:58:15.3	314.950	-0.070	-0.510	0.130
2020/01/31 07:58:15.4	314.940	-0.050	-0.510	0.140
2020/01/31 07:58:15.5	314.940	-0.030	-0.510	0.160
2020/01/31 07:58:15.6	314.930	-0.010	-0.500	0.170
2020/01/31 07:58:15.7	314.920	0.010	-0.490	0.190
2020/01/31 07:58:15.8	314.900	0.030	-0.480	0.200
2020/01/31 07:58:15.9	314.890	0.050	-0.470	0.220
2020/01/31 07:58:16.0	314.880	0.070	-0.460	0.230
2020/01/31 07:58:16.1	314.860	0.080	-0.440	0.250
2020/01/31 07:58:16.2	314.840	0.100	-0.420	0.270
2020/01/31 07:58:16.3	314.830	0.120	-0.410	0.280
2020/01/31 07:58:16.4	314.810	0.130	-0.390	0.300
2020/01/31 07:58:16.5	314.790	0.140	-0.370	0.310
2020/01/31 07:58:16.6	314.770	0.160	-0.350	0.330
2020/01/31 07:58:16.7	314.750	0.170	-0.320	0.350
2020/01/31 07:58:16.8	314.730	0.180	-0.300	0.360
2020/01/31 07:58:16.9	314.710	0.200	-0.280	0.380
2020/01/31 07:58:17.0	314.680	0.210	-0.260	0.400
2020/01/31 07:58:17.1	314.660	0.220	-0.240	0.410
2020/01/31 07:58:17.2	314.640	0.230	-0.220	0.430
2020/01/31 07:58:17.3	314.610	0.250	-0.190	0.440
2020/01/31 07:58:17.4	314.590	0.260	-0.170	0.460
2020/01/31 07:58:17.5	314.570	0.270	-0.150	0.480
2020/01/31 07:58:17.6	314.550	0.280	-0.130	0.500
2020/01/31 07:58:17.7	314.520	0.300	-0.110	0.520
2020/01/31 07:58:17.8	314.500	0.310	-0.090	0.540
2020/01/31 07:58:17.9	314.480	0.320	-0.080	0.550
2020/01/31 07:58:18.0	314.460	0.330	-0.060	0.570
2020/01/31 07:58:18.1	314.440	0.350	-0.040	0.590
2020/01/31 07:58:18.2	314.420	0.360	-0.020	0.610
2020/01/31 07:58:18.3	314.410	0.370	-0.010	0.630
2020/01/31 07:58:18.4	314.390	0.380	0.010	0.650
2020/01/31 07:58:18.5	314.360	0.390	0.020	0.670
2020/01/31 07:58:18.6	314.340	0.400	0.040	0.690
2020/01/31 07:58:18.7	314.320	0.410	0.050	0.700
2020/01/31 07:58:18.8	314.300	0.420	0.070	0.720
2020/01/31 07:58:18.9	314.280	0.430	0.080	0.730
2020/01/31 07:58:19.0	314.260	0.440	0.100	0.750
2020/01/31 07:58:19.1	314.250	0.450	0.110	0.760
2020/01/31 07:58:19.2	314.230	0.450	0.130	0.770
2020/01/31 07:58:19.3	314.210	0.460	0.140	0.770
2020/01/31 07:58:19.4	314.200	0.460	0.150	0.780
2020/01/31 07:58:19.5	314.180	0.460	0.160	0.780
2020/01/31 07:58:19.6	314.170	0.460	0.170	0.780
2020/01/31 07:58:19.7	314.150	0.460	0.170	0.780
2020/01/31 07:58:19.8	314.140	0.460	0.180	0.770
2020/01/31 07:58:19.9	314.130	0.460	0.180	0.770
2020/01/31 07:58:20.0	314.120	0.450	0.180	0.750
2020/01/31 07:58:20.1	314.120	0.440	0.180	0.740
2020/01/31 07:58:20.2	314.110	0.430	0.180	0.720
2020/01/31 07:58:20.3	314.110	0.420	0.180	0.700
2020/01/31 07:58:20.4	314.110	0.410	0.170	0.670
2020/01/31 07:58:20.5	314.110	0.400	0.160	0.640
2020/01/31 07:58:20.6	314.110	0.380	0.150	0.610
2020/01/31 07:58:20.7	314.110	0.360	0.140	0.580
2020/01/31 07:58:20.8	314.120	0.340	0.130	0.540
2020/01/31 07:58:20.9	314.120	0.320	0.110	0.500
2020/01/31 07:58:21.0	314.130	0.300	0.090	0.460
2020/01/31 07:58:21.1	314.140	0.270	0.070	0.420
2020/01/31 07:58:21.2	314.150	0.250	0.050	0.380
2020/01/31 07:58:21.3	314.140	0.220	0.030	0.330
2020/01/31 07:58:21.4	314.150	0.200	0.010	0.280
2020/01/31 07:58:21.5	314.160	0.170	-0.010	0.230
2020/01/31 07:58:21.6	314.180	0.140	-0.030	0.180
2020/01/31 07:58:21.7	314.190	0.110	-0.050	0.130
2020/01/31 07:58:21.8	314.200	0.080	-0.080	0.080
2020/01/31 07:58:21.9	314.220	0.060	-0.100	0.020
2020/01/31 07:58:22.0	314.230	0.030	-0.120	-0.030
2020/01/31 07:58:22.1	314.250	-0.000	-0.140	-0.080
2020/01/31 07:58:22.2	314.260	-0.030	-0.160	-0.140
2020/01/31 07:58:22.3	314.280	-0.050	-0.180	-0.190
2020/01/31 07:58:22.4	314.290	-0.080	-0.200	-0.250
2020/01/31 07:58:22.5	314.310	-0.100	-0.220	-0.300
2020/01/31 07:58:22.6	314.330	-0.130	-0.230	-0.350
2020/01/31 07:58:22.7	314.350	-0.150	-0.250	-0.400
2020/01/31 07:58:22.8	314.370	-0.170	-0.260	-0.450
2020/01/31 07:58:22.9	314.400	-0.190	-0.280	-0.500
2020/01/31 07:58:23.0	314.420	-0.210	-0.290	-0.540
2020/01/31 07:58:23.1	314.440	-0.220	-0.300	-0.590
2020/01/31 07:58:23.2	314.470	-0.240	-0.320	-0.630
2020/01/31 07:58:23.3	314.480	-0.250	-0.330	-0.670
2020/01/31 07:58:23.4	314.510	-0.260	-0.340	-0.700
2020/01/31 07:58:23.5	314.530	-0.270	-0.350	-0.740
2020/01/31 07:58:23.6	314.560	-0.280	-0.360	-0.770
2020/01/31 07:58:23.7	314.590	-0.280	-0.370	-0.800
2020/01/31 07:58:23.8	314.610	-0.290	-0.380	-0.820
2020/01/31 07:58:23.9	314.640	-0.290	-0.390	-0.850
2020/01/31 07:58:24.0	314.670	-0.300	-0.400	-0.870
2020/01/31 07:58:24.1	314.700	-0.300	-0.410	-0.880
2020/01/31 07:58:24.2	314.730	-0.300	-0.420	-0.900
2020/01/31 07:58:24.3	314.750	-0.300	-0.430	-0.910
2020/01/31 07:58:24.4	314.780	-0.310	-0.440	-0.920
2020/01/31 07:58:24.5	314.810	-0.310	-0.440	-0.920
2020/01/31 07:58:24.6	314.830	-0.310	-0.450	-0.920
2020/01/31 07:58:24.7	314.860	-0.310	-0.460	-0.920
2020/01/31 07:58:24.8	314.890	-0.310	-0.460	-0.920
2020/01/31 07:58:24.9	314.910	-0.310	-0.470	-0.910
2020/01/31 07:58:25.0	314.930	-0.310	-0.480	-0.900
2020/01/31 07:58:25.1	314.950	-0.310	-0.480	-0.890
2020/01/31 07:58:25.2	314.970	-0.310	-0.480	-0.870
2020/01/31 07:58:25.3	314.980	-0.310	-0.490	-0.850
2020/01/31 07:58:25.4	315.000	-0.310	-0.490	-0.830
2020/01/31 07:58:25.5	315.010	-0.310	-0.490	-0.800
2020/01/31 07:58:25.6	315.020	-0.310	-0.490	-0.770
2020/01/31 07:58:25.7	315.030	-0.310	-0.480	-0.730
2020/01/31 07:58:25.8	315.030	-0.310	-0.480	-0.690
2020/01/31 07:58:25.9	315.030	-0.320	-0.470	-0.650
2020/01/31 07:58:26.0	315.030	-0.320	-0.470	-0.610
2020/01/31 07:58:26.1	315.020	-0.320	-0.460	-0.560
2020/01/31 07:58:26.2	315.010	-0.320	-0.450	-0.510
2020/01/31 07:58:26.3	314.990	-0.330	-0.440	-0.450
2020/01/31 07:58:26.4	314.980	-0.330	-0.430	-0.400
2020/01/31 07:58:26.5	314.960	-0.330	-0.420	-0.340
2020/01/31 07:58:26.6	314.930	-0.330	-0.400	-0.280
2020/01/31 07:58:26.7	314.910	-0.330	-0.390	-0.220
2020/01/31 07:58:26.8	314.880	-0.330	-0.380	-0.160
2020/01/31 07:58:26.9	314.850	-0.340	-0.360	-0.100
2020/01/31 07:58:27.0	314.820	-0.330	-0.350	-0.030
2020/01/31 07:58:27.1	314.790	-0.330	-0.340	0.030
2020/01/31 07:58:27.2	314.750	-0.330	-0.330	0.090
2020/01/31 07:58:27.3	314.710	-0.330	-0.320	0.150
2020/01/31 07:58:27.4	314.680	-0.320	-0.310	0.210
2020/01/31 07:58:27.5	314.630	-0.320	-0.300	0.270
2020/01/31 07:58:27.6	314.590	-0.310	-0.290	0.330
2020/01/31 07:58:27.7	314.550	-0.300	-0.290	0.390
2020/01/31 07:58:27.8	314.510	-0.290	-0.280	0.450
2020/01/31 07:58:27.9	314.460	-0.270	-0.280	0.500
2020/01/31 07:58:28.0	314.420	-0.260	-0.280	0.550
2020/01/31 07:58:28.1	314.370	-0.240	-0.280	0.600
2020/01/31 07:58:28.2	314.330	-0.220	-0.290	0.650
2020/01/31 07:58:28.3	314.300	-0.200	-0.290	0.700
2020/01/31 07:58:28.4	314.250	-0.180	-0.300	0.740
2020/01/31 07:58:28.5	314.210	-0.160	-0.310	0.780
2020/01/31 07:58:28.6	314.170	-0.130	-0.320	0.810
2020/01/31 07:58:28.7	314.130	-0.110	-0.330	0.850
2020/01/31 07:58:28.8	314.090	-0.080	-0.350	0.870
2020/01/31 07:58:28.9	314.060	-0.050	-0.360	0.900
2020/01/31 07:58:29.0	314.020	-0.020	-0.380	0.920
2020/01/31 07:58:29.1	313.990	0.010	-0.400	0.940
2020/01/31 07:58:29.2	313.960	0.040	-0.410	0.950
2020/01/31 07:58:29.3	313.940	0.070	-0.430	0.960
2020/01/31 07:58:29.4	313.920	0.100	-0.450	0.960
2020/01/31 07:58:29.5	313.900	0.130	-0.470	0.970
2020/01/31 07:58:29.6	313.880	0.160	-0.480	0.970
2020/01/31 07:58:29.7	313.870	0.190	-0.500	0.960
2020/01/31 07:58:29.8	313.850	0.220	-0.510	0.950
2020/01/31 07:58:29.9	313.850	0.250	-0.520	0.940
2020/01/31 07:58:30.0	313.840	0.270	-0.530	0.930
2020/01/31 07:58:30.1	313.840	0.300	-0.540	0.920
2020/01/31 07:58:30.2	313.840	0.320	-0.540	0.900
2020/01/31 07:58:30.3	313.840	0.340	-0.540	0.880
2020/01/31 07:58:30.4	313.850	0.350	-0.540	0.850
2020/01/31 07:58:30.5	313.850	0.370	-0.540	0.830
2020/01/31 07:58:30.6	313.870	0.380	-0.530	0.800
2020/01/31 07:58:30.7	313.880	0.390	-0.530	0.770
2020/01/31 07:58:30.8	313.900	0.390	-0.520	0.740
2020/01/31 07:58:30.9	313.920	0.390	-0.500	0.710
2020/01/31 07:58:31.0	313.940	0.390	-0.490	0.680
2020/01/31 07:58:31.1	313.960	0.390	-0.470	0.640
2020/01/31 07:58:31.2	313.990	0.380	-0.450	0.610
2020/01/31 07:58:31.3	314.020	0.370	-0.430	0.570
2020/01/31 07:58:31.4	314.050	0.360	-0.400	0.530
2020/01/31 07:58:31.5	314.080	0.350	-0.370	0.500
2020/01/31 07:58:31.6	314.120	0.330	-0.350	0.460
2020/01/31 07:58:31.7	314.150	0.320	-0.320	0.430
2020/01/31 07:58:31.8	314.190	0.300	-0.290	0.390
2020/01/31 07:58:31.9	314.230	0.270	-0.250	0.360
2020/01/31 07:58:32.0	314.260	0.250	-0.220	0.330
2020/01/31 07:58:32.1	314.300	0.230	-0.190	0.300
2020/01/31 07:58:32.2	314.340	0.210	-0.150	0.270
2020/01/31 07:58:32.3	314.380	0.180	-0.120	0.240
2020/01/31 07:58:32.4	314.420	0.160	-0.080	0.220
2020/01/31 07:58:32.5	314.450	0.130	-0.050	0.190
2020/01/31 07:58:32.6	314.480	0.110	-0.020	0.180
2020/01/31 07:58:32.7	314.510	0.090	0.010	0.160
2020/01/31 07:58:32.8	314.540	0.070	0.050	0.150
2020/01/31 07:58:32.9	314.570	0.050	0.080	0.140
2020/01/31 07:58:33.0	314.600	0.030	0.100	0.130
2020/01/31 07:58:33.1	314.620	0.020	0.130	0.120
2020/01/31 07:58:33.2	314.640	0.000	0.150	0.120
2020/01/31 07:58:33.3	314.650	-0.010	0.170	0.120
2020/01/31 07:58:33.4	314.670	-0.020	0.190	0.120
2020/01/31 07:58:33.5	314.680	-0.030	0.210	0.130
2020/01/31 07:58:33.6	314.690	-0.030	0.220	0.130
2020/01/31 07:58:33.7	314.700	-0.030	0.230	0.140
2020/01/31 07:58:33.8	314.700	-0.030	0.240	0.150
2020/01/31 07:58:33.9	314.710	-0.030	0.240	0.160
2020/01/31 07:58:34.0	314.710	-0.030	0.240	0.170
2020/01/31 07:58:34.1	314.710	-0.020	0.230	0.180
2020/01/31 07:58:34.2	314.710	-0.010	0.230	0.190
2020/01/31 07:58:34.3	314.710	0.000	0.220	0.200
2020/01/31 07:58:34.4	314.700	0.010	0.210	0.210
2020/01/31 07:58:34.5	314.700	0.030	0.190	0.210
2020/01/31 07:58:34.6	314.690	0.040	0.170	0.220
2020/01/31 07:58:34.7	314.690	0.060	0.150	0.230
2020/01/31 07:58:34.8	314.680	0.080	0.130	0.230
2020/01/31 07:58:34.9	314.670	0.100	0.110	0.240
2020/01/31 07:58:35.0	314.660	0.120	0.080	0.240
2020/01/31 07:58:35.1	314.650	0.130	0.060	0.240
2020/01/31 07:58:35.2	314.640	0.150	0.040	0.240
2020/01/31 07:58:35.3	314.650	0.170	0.010	0.240
2020/01/31 07:58:35.4	314.640	0.190	-0.010	0.240
2020/01/31 07:58:35.5	314.630	0.210	-0.040	0.240
2020/01/31 07:58:35.6	314.610	0.230	-0.060	0.240
2020/01/31 07:58:35.7	314.600	0.240	-0.080	0.240
2020/01/31 07:58:35.8	314.590	0.260	-0.100	0.240
2020/01/31 07:58:35.9	314.570	0.270	-0.110	0.230
2020/01/31 07:58:36.0	314.560	0.280	-0.130	0.230
2020/01/31 07:58:36.1	314.550	0.290	-0.140	0.220
2020/01/31 07:58:36.2	314.530	0.300	-0.150	0.220
2020/01/31 07:58:36.3	314.520	0.300	-0.150	0.210
2020/01/31 07:58:36.4	314.500	0.310	-0.160	0.200
2020/01/31 07:58:36.5	314.490	0.310	-0.160	0.200
2020/01/31 07:58:36.6	314.480	0.300	-0.160	0.190
2020/01/31 07:58:36.7	314.460	0.300	-0.160	0.180
2020/01/31 07:58:36.8	314.450	0.290	-0.160	0.170
2020/01/31 07:58:36.9	314.440	0.280	-0.150	0.160
2020/01/31 07:58:37.0	314.420	0.270	-0.140	0.150
2020/01/31 07:58:37.1	314.410	0.250	-0.140	0.140
2020/01/31 07:58:37.2	314.400	0.240	-0.130	0.130
2020/01/31 07:58:37.3	314.390	0.220	-0.120	0.120
2020/01/31 07:58:37.4	314.380	0.190	-0.110	0.100
2020/01/31 07:58:37.5	314.370	0.170	-0.100	0.090
2020/01/31 07:58:37.6	314.370	0.140	-0.100	0.070
2020/01/31 07:58:37.7	314.360	0.110	-0.090	0.050
2020/01/31 07:58:37.8	314.350	0.080	-0.090	0.030
2020/01/31 07:58:37.9	314.340	0.050	-0.090	0.000
2020/01/31 07:58:38.0	314.330	0.020	-0.090	-0.020
2020/01/31 07:58:38.1	314.330	-0.020	-0.090	-0.050
2020/01/31 07:58:38.2	314.320	-0.050	-0.090	-0.080
2020/01/31 07:58:38.3	314.300	-0.090	-0.100	-0.110
2020/01/31 07:58:38.4	314.300	-0.120	-0.110	-0.150
2020/01/31 07:58:38.5	314.300	-0.160	-0.120	-0.180
2020/01/31 07:58:38.6	314.300	-0.190	-0.130	-0.220
2020/01/31 07:58:38.7	314.290	-0.220	-0.140	-0.260
2020/01/31 07:58:38.8	314.290	-0.260	-0.160	-0.310
2020/01/31 07:58:38.9	314.290	-0.290	-0.180	-0.350
2020/01/31 07:58:39.0	314.290	-0.320	-0.200	-0.390
2020/01/31 07:58:39.1	314.300	-0.350	-0.220	-0.430
2020/01/31 07:58:39.2	314.300	-0.370	-0.240	-0.470
2020/01/31 07:58:39.3	314.300	-0.390	-0.260	-0.510
2020/01/31 07:58:39.4	314.300	-0.410	-0.290	-0.540
2020/01/31 07:58:39.5	314.300	-0.430	-0.310	-0.580
2020/01/31 07:58:39.6	314.300	-0.450	-0.330	-0.600
2020/01/31 07:58:39.7	314.310	-0.460	-0.350	-0.630
2020/01/31 07:58:39.8	314.310	-0.470	-0.380	-0.650
2020/01/31 07:58:39.9	314.310	-0.470	-0.400	-0.670
2020/01/31 07:58:40.0	314.310	-0.480	-0.420	-0.680
2020/01/31 07:58:40.1	314.310	-0.480	-0.440	-0.690
2020/01/31 07:58:40.2	314.310	-0.470	-0.450	-0.690
2020/01/31 07:58:40.3	314.300	-0.470	-0.470	-0.690
2020/01/31 07:58:40.4	314.300	-0.460	-0.480	-0.690
2020/01/31 07:58:40.5	314.300	-0.450	-0.490	-0.680
2020/01/31 07:58:40.6	314.290	-0.440	-0.510	-0.670
2020/01/31 07:58:40.7	314.290	-0.420	-0.520	-0.650
2020/01/31 07:58:40.8	314.280	-0.410	-0.530	-0.630
2020/01/31 07:58:40.9	314.280	-0.390	-0.530	-0.610
2020/01/31 07:58:41.0	314.270	-0.370	-0.540	-0.580
2020/01/31 07:58:41.1	314.270	-0.340	-0.550	-0.560
2020/01/31 07:58:41.2	314.260	-0.320	-0.550	-0.530
2020/01/31 07:58:41.3	314.240	-0.300	-0.560	-0.490
2020/01/31 07:58:41.4	314.240	-0.270	-0.560	-0.460
2020/01/31 07:58:41.5	314.230	-0.240	-0.560	-0.420
2020/01/31 07:58:41.6	314.230	-0.220	-0.570	-0.390
2020/01/31 07:58:41.7	314.220	-0.190	-0.570	-0.350
2020/01/31 07:58:41.8	314.220	-0.160	-0.570	-0.310
2020/01/31 07:58:41.9	314.210	-0.130	-0.570	-0.280
2020/01/31 07:58:42.0	314.210	-0.110	-0.570	-0.240
2020/01/31 07:58:42.1	314.210	-0.080	-0.580	-0.200
2020/01/31 07:58:42.2	314.210	-0.050	-0.580	-0.170
2020/01/31 07:58:42.3	314.210	-0.020	-0.570	-0.130
2020/01/31 07:58:42.4	314.220	0.000	-0.570	-0.090
2020/01/31 07:58:42.5	314.220	0.030	-0.570	-0.060
2020/01/31 07:58:42.6	314.220	0.050	-0.570	-0.020
2020/01/31 07:58:42.7	314.220	0.080	-0.570	0.020
2020/01/31 07:58:42.8	314.220	0.100	-0.560	0.060
2020/01/31 07:58:42.9	314.220	0.120	-0.560	0.100
2020/01/31 07:58:43.0	314.220	0.140	-0.550	0.130
2020/01/31 07:58:43.1	314.230	0.160	-0.540	0.170
2020/01/31 07:58:43.2	314.220	0.180	-0.540	0.210
2020/01/31 07:58:43.3	314.230	0.200	-0.530	0.250
2020/01/31 07:58:43.4	314.230	0.210	-0.510	0.290
2020/01/31 07:58:43.5	314.230	0.230	-0.500	0.330
2020/01/31 07:58:43.6	314.220	0.240	-0.490	0.370
2020/01/31 07:58:43.7	314.220	0.250	-0.470	0.400
2020/01/31 07:58:43.8	314.220	0.260	-0.460	0.440
2020/01/31 07:58:43.9	314.220	0.260	-0.440	0.480
2020/01/31 07:58:44.0	314.220	0.270	-0.420	0.510
2020/01/31 07:58:44.1	314.220	0.270	-0.400	0.550
2020/01/31 07:58:44.2	314.220	0.280	-0.380	0.580
2020/01/31 07:58:44.3	314.230	0.280	-0.370	0.610
2020/01/31 07:58:44.4	314.230	0.280	-0.350	0.640
2020/01/31 07:58:44.5	314.240	0.280	-0.330	0.660
2020/01/31 07:58:44.6	314.250	0.270	-0.310	0.690
2020/01/31 07:58:44.7	314.250	0.270	-0.290	0.710
2020/01/31 07:58:44.8	314.260	0.260	-0.280	0.730
2020/01/31 07:58:44.9	314.270	0.260	-0.260	0.740
2020/01/31 07:58:45.0	314.280	0.250	-0.250	0.760
2020/01/31 07:58:45.1	314.290	0.240	-0.240	0.770
2020/01/31 07:58:45.2	314.310	0.230	-0.230	0.780
2020/01/31 07:58:45.3	314.330	0.220	-0.210	0.790
2020/01/31 07:58:45.4	314.340	0.210	-0.200	0.790
2020/01/31 07:58:45.5	314.350	0.200	-0.190	0.800
2020/01/31 07:58:45.6	314.370	0.190	-0.190	0.800
2020/01/31 07:58:45.7	314.380	0.180	-0.180	0.800
2020/01/31 07:58:45.8	314.390	0.160	-0.170	0.790
2020/01/31 07:58:45.9	314.400	0.150	-0.160	0.790
2020/01/31 07:58:46.0	314.410	0.140	-0.150	0.780
2020/01/31 07:58:46.1	314.420	0.120	-0.150	0.770
2020/01/31 07:58:46.2	314.420	0.110	-0.140	0.760
2020/01/31 07:58:46.3	314.450	0.090	-0.130	0.750
2020/01/31 07:58:46.4	314.460	0.080	-0.130	0.740
2020/01/31 07:58:46.5	314.460	0.060	-0.120	0.720
2020/01/31 07:58:46.6	314.470	0.050	-0.120	0.700
2020/01/31 07:58:46.7	314.480	0.030	-0.110	0.680
2020/01/31 07:58:46.8	314.490	0.020	-0.110	0.660
2020/01/31 07:58:46.9	314.500	0.000	-0.110	0.630
2020/01/31 07:58:47.0	314.520	-0.010	-0.110	0.600
2020/01/31 07:58:47.1	314.530	-0.020	-0.110	0.560
2020/01/31 07:58:47.2	314.540	-0.040	-0.110	0.530
2020/01/31 07:58:47.3	314.560	-0.050	-0.120	0.490
2020/01/31 07:58:47.4	314.580	-0.060	-0.120	0.450
2020/01/31 07:58:47.5	314.590	-0.080	-0.120	0.410
2020/01/31 07:58:47.6	314.610	-0.090	-0.120	0.360
2020/01/31 07:58:47.7	314.630	-0.100	-0.130	0.310
2020/01/31 07:58:47.8	314.640	-0.110	-0.130	0.270
2020/01/31 07:58:47.9	314.660	-0.120	-0.130	0.220
2020/01/31 07:58:48.0	314.680	-0.130	-0.130	0.170
2020/01/31 07:58:48.1	314.700	-0.140	-0.140	0.120
2020/01/31 07:58:48.2	314.710	-0.150	-0.140	0.070
2020/01/31 07:58:48.3	314.720	-0.160	-0.130	0.010
2020/01/31 07:58:48.4	314.740	-0.160	-0.130	-0.030
2020/01/31 07:58:48.5	314.750	-0.170	-0.130	-0.080
2020/01/31 07:58:48.6	314.760	-0.170	-0.130	-0.120
2020/01/31 07:58:48.7	314.780	-0.170	-0.130	-0.160
2020/01/31 07:58:48.8	314.790	-0.180	-0.120	-0.190
2020/01/31 07:58:48.9	314.800	-0.180	-0.120	-0.230
2020/01/31 07:58:49.0	314.800	-0.180	-0.110	-0.260
2020/01/31 07:58:49.1	314.810	-0.180	-0.100	-0.290
2020/01/31 07:58:49.2	314.820	-0.170	-0.090	-0.310
2020/01/31 07:58:49.3	314.810	-0.170	-0.080	-0.340
2020/01/31 07:58:49.4	314.810	-0.160	-0.070	-0.350
2020/01/31 07:58:49.5	314.820	-0.160	-0.060	-0.370
2020/01/31 07:58:49.6	314.820	-0.150	-0.050	-0.380
2020/01/31 07:58:49.7	314.820	-0.140	-0.040	-0.390
2020/01/31 07:58:49.8	314.820	-0.130	-0.030	-0.400
2020/01/31 07:58:49.9	314.830	-0.120	-0.010	-0.400
2020/01/31 07:58:50.0	314.830	-0.110	-0.000	-0.400
2020/01/31 07:58:50.1	314.830	-0.090	0.010	-0.390
2020/01/31 07:58:50.2	314.830	-0.080	0.020	-0.380
2020/01/31 07:58:50.3	314.810	-0.060	0.030	-0.370
2020/01/31 07:58:50.4	314.810	-0.040	0.040	-0.360
2020/01/31 07:58:50.5	314.810	-0.030	0.040	-0.340
2020/01/31 07:58:50.6	314.810	-0.010	0.050	-0.320
2020/01/31 07:58:50.7	314.810	0.010	0.050	-0.300
2020/01/31 07:58:50.8	314.810	0.030	0.050	-0.280
2020/01/31 07:58:50.9	314.810	0.050	0.050	-0.250
2020/01/31 07:58:51.0	314.810	0.070	0.040	-0.230
2020/01/31 07:58:51.1	314.820	0.090	0.040	-0.200
2020/01/31 07:58:51.2	314.820	0.110	0.030	-0.180
2020/01/31 07:58:51.3	314.820	0.130	0.020	-0.150
2020/01/31 07:58:51.4	314.820	0.150	0.010	-0.130
2020/01/31 07:58:51.5	314.820	0.170	-0.010	-0.100
2020/01/31 07:58:51.6	314.820	0.190	-0.030	-0.070
2020/01/31 07:58:51.7	314.830	0.210	-0.040	-0.050
2020/01/31 07:58:51.8	314.830	0.220	-0.060	-0.020
2020/01/31 07:58:51.9	314.830	0.240	-0.090	0.000
2020/01/31 07:58:52.0	314.820	0.250	-0.110	0.030
2020/01/31 07:58:52.1	314.820	0.260	-0.130	0.060
2020/01/31 07:58:52.2	314.820	0.270	-0.150	0.080
2020/01/31 07:58:52.3	314.800	0.280	-0.170	0.110
2020/01/31 07:58:52.4	314.800	0.290	-0.190	0.140
2020/01/31 07:58:52.5	314.790	0.290	-0.210	0.170
2020/01/31 07:58:52.6	314.770	0.300	-0.230	0.200
2020/01/31 07:58:52.7	314.750	0.300	-0.250	0.230
2020/01/31 07:58:52.8	314.730	0.300	-0.260	0.260
2020/01/31 07:58:52.9	314.710	0.300	-0.270	0.290
2020/01/31 07:58:53.0	314.690	0.290	-0.280	0.320
2020/01/31 07:58:53.1	314.660	0.290	-0.280	0.360
2020/01/31 07:58:53.2	314.630	0.280	-0.290	0.390
2020/01/31 07:58:53.3	314.600	0.270	-0.280	0.430
2020/01/31 07:58:53.4	314.560	0.260	-0.280	0.460
2020/01/31 07:58:53.5	314.520	0.250	-0.280	0.500
2020/01/31 07:58:53.6	314.480	0.240	-0.270	0.530
2020/01/31 07:58:53.7	314.440	0.220	-0.260	0.560
2020/01/31 07:58:53.8	314.390	0.200	-0.250	0.600
2020/01/31 07:58:53.9	314.350	0.190	-0.240	0.630
2020/01/31 07:58:54.0	314.310	0.170	-0.220	0.660
2020/01/31 07:58:54.1	314.260	0.150	-0.210	0.680
2020/01/31 07:58:54.2	314.210	0.130	-0.200	0.710
2020/01/31 07:58:54.3	314.180	0.110	-0.180	0.730
2020/01/31 07:58:54.4	314.130	0.100	-0.170	0.750
2020/01/31 07:58:54.5	314.090	0.080	-0.160	0.760
2020/01/31 07:58:54.6	314.050	0.060	-0.140	0.770
2020/01/31 07:58:54.7	314.010	0.040	-0.140	0.780
2020/01/31 07:58:54.8	313.970	0.030	-0.130	0.780
2020/01/31 07:58:54.9	313.940	0.010	-0.120	0.780
2020/01/31 07:58:55.0	313.910	0.000	-0.120	0.770
2020/01/31 07:58:55.1	313.870	-0.010	-0.110	0.760
2020/01/31 07:58:55.2	313.850	-0.020	-0.110	0.750
2020/01/31 07:58:55.3	313.810	-0.030	-0.120	0.730
2020/01/31 07:58:55.4	313.790	-0.040	-0.120	0.710
2020/01/31 07:58:55.5	313.770	-0.040	-0.120	0.690
2020/01/31 07:58:55.6	313.750	-0.050	-0.130	0.670
2020/01/31 07:58:55.7	313.730	-0.050	-0.140	0.640
2020/01/31 07:58:55.8	313.710	-0.050	-0.150	0.610
2020/01/31 07:58:55.9	313.700	-0.050	-0.170	0.580
2020/01/31 07:58:56.0	313.690	-0.050	-0.180	0.550
2020/01/31 07:58:56.1	313.680	-0.050	-0.200	0.520
2020/01/31 07:58:56.2	313.680	-0.050	-0.220	0.490
2020/01/31 07:58:56.3	313.670	-0.050	-0.240	0.450
2020/01/31 07:58:56.4	313.670	-0.050	-0.260	0.410
2020/01/31 07:58:56.5	313.670	-0.040	-0.290	0.370
2020/01/31 07:58:56.6	313.670	-0.040	-0.320	0.330
2020/01/31 07:58:56.7	313.680	-0.040	-0.350	0.280
2020/01/31 07:58:56.8	313.690	-0.040	-0.380	0.230
2020/01/31 07:58:56.9	313.710	-0.030	-0.410	0.180
2020/01/31 07:58:57.0	313.730	-0.030	-0.450	0.130
2020/01/31 07:58:57.1	313.750	-0.030	-0.480	0.080
2020/01/31 07:58:57.2	313.770	-0.030	-0.520	0.020
2020/01/31 07:58:57.3	313.800	-0.030	-0.560	-0.040
2020/01/31 07:58:57.4	313.840	-0.030	-0.600	-0.100
2020/01/31 07:58:57.5	313.870	-0.030	-0.640	-0.160
2020/01/31 07:58:57.6	313.910	-0.030	-0.680	-0.230
2020/01/31 07:58:57.7	313.960	-0.040	-0.720	-0.290
2020/01/31 07:58:57.8	314.000	-0.040	-0.760	-0.360
2020/01/31 07:58:57.9	314.050	-0.040	-0.800	-0.430
2020/01/31 07:58:58.0	314.100	-0.050	-0.840	-0.500
2020/01/31 07:58:58.1	314.160	-0.060	-0.870	-0.560
2020/01/31 07:58:58.2	314.210	-0.060	-0.900	-0.630
2020/01/31 07:58:58.3	314.270	-0.070	-0.930	-0.700
2020/01/31 07:58:58.4	314.320	-0.080	-0.950	-0.760
2020/01/31 07:58:58.5	314.380	-0.090	-0.970	-0.820
2020/01/31 07:58:58.6	314.440	-0.100	-0.990	-0.880
2020/01/31 07:58:58.7	314.500	-0.110	-1.000	-0.940
2020/01/31 07:58:58.8	314.560	-0.120	-1.010	-0.990
2020/01/31 07:58:58.9	314.620	-0.130	-1.010	-1.040
2020/01/31 07:58:59.0	314.680	-0.140	-1.000	-1.080
2020/01/31 07:58:59.1	314.740	-0.150	-0.990	-1.120
2020/01/31 07:58:59.2	314.800	-0.160	-0.980	-1.150
2020/01/31 07:58:59.3	314.850	-0.170	-0.960	-1.180
2020/01/31 07:58:59.4	314.910	-0.180	-0.930	-1.210
2020/01/31 07:58:59.5	314.960	-0.180	-0.900	-1.230
2020/01/31 07:58:59.6	315.010	-0.190	-0.870	-1.240
2020/01/31 07:58:59.7	315.070	-0.200	-0.830	-1.250
2020/01/31 07:58:59.8	315.110	-0.210	-0.780	-1.250
2020/01/31 07:58:59.9	315.160	-0.220	-0.740	-1.240
2020/01/31 07:59:00.0	315.200	-0.220	-0.690	-1.230
2020/01/31 07:59:00.1	315.240	-0.230	-0.630	-1.210
2020/01/31 07:59:00.2	315.280	-0.230	-0.570	-1.190
2020/01/31 07:59:00.3	315.320	-0.240	-0.510	-1.150
2020/01/31 07:59:00.4	315.350	-0.240	-0.450	-1.120
2020/01/31 07:59:00.5	315.380	-0.240	-0.390	-1.080
2020/01/31 07:59:00.6	315.400	-0.250	-0.330	-1.030
2020/01/31 07:59:00.7	315.420	-0.250	-0.260	-0.980
2020/01/31 07:59:00.8	315.430	-0.250	-0.200	-0.930
2020/01/31 07:59:00.9	315.440	-0.250	-0.140	-0.870
2020/01/31 07:59:01.0	315.450	-0.240	-0.070	-0.800
2020/01/31 07:59:01.1	315.450	-0.240	-0.010	-0.740
2020/01/31 07:59:01.2	315.440	-0.240	0.050	-0.660
2020/01/31 07:59:01.3	315.430	-0.230	0.110	-0.590
2020/01/31 07:59:01.4	315.420	-0.230	0.160	-0.510
2020/01/31 07:59:01.5	315.400	-0.220	0.210	-0.430
2020/01/31 07:59:01.6	315.380	-0.220	0.260	-0.350
2020/01/31 07:59:01.7	315.360	-0.210	0.310	-0.270
2020/01/31 07:59:01.8	315.330	-0.200	0.350	-0.190
2020/01/31 07:59:01.9	315.300	-0.190	0.380	-0.110
2020/01/31 07:59:02.0	315.260	-0.180	0.420	-0.020
2020/01/31 07:59:02.1	315.220	-0.170	0.450	0.060
2020/01/31 07:59:02.2	315.180	-0.160	0.470	0.140
2020/01/31 07:59:02.3	315.150	-0.150	0.490	0.220
2020/01/31 07:59:02.4	315.110	-0.140	0.510	0.300
2020/01/31 07:59:02.5	315.060	-0.120	0.520	0.380
2020/01/31 07:59:02.6	315.010	-0.110	0.530	0.450
2020/01/31 07:59:02.7	314.950	-0.090	0.530	0.530
2020/01/31 07:59:02.8	314.900	-0.080	0.530	0.600
2020/01/31 07:59:02.9	314.840	-0.060	0.520	0.660
2020/01/31 07:59:03.0	314.780	-0.050	0.510	0.730
2020/01/31 07:59:03.1	314.720	-0.030	0.490	0.790
2020/01/31 07:59:03.2	314.660	-0.020	0.470	0.850
2020/01/31 07:59:03.3	314.610	-0.000	0.450	0.900
2020/01/31 07:59:03.4	314.550	0.010	0.430	0.950
2020/01/31 07:59:03.5	314.490	0.030	0.400	0.990
2020/01/31 07:59:03.6	314.420	0.040	0.360	1.030
2020/01/31 07:59:03.7	314.360	0.060	0.330	1.070
2020/01/31 07:59:03.8	314.300	0.080	0.290	1.100
2020/01/31 07:59:03.9	314.240	0.090	0.250	1.120
2020/01/31 07:59:04.0	314.180	0.110	0.210	1.150
2020/01/31 07:59:04.1	314.120	0.120	0.170	1.160
2020/01/31 07:59:04.2	314.070	0.140	0.130	1.170
2020/01/31 07:59:04.3	314.010	0.150	0.090	1.180
2020/01/31 07:59:04.4	313.950	0.170	0.050	1.180
2020/01/31 07:59:04.5	313.900	0.180	0.010	1.180
2020/01/31 07:59:04.6	313.850	0.190	-0.030	1.180
2020/01/31 07:59:04.7	313.800	0.200	-0.060	1.170
2020/01/31 07:59:04.8	313.760	0.210	-0.100	1.160
2020/01/31 07:59:04.9	313.720	0.230	-0.130	1.140
2020/01/31 07:59:05.0	313.680	0.240	-0.160	1.120
2020/01/31 07:59:05.1	313.640	0.240	-0.190	1.100
2020/01/31 07:59:05.2	313.600	0.250	-0.210	1.080
2020/01/31 07:59:05.3	313.580	0.260	-0.240	1.040
2020/01/31 07:59:05.4	313.550	0.270	-0.260	1.010
2020/01/31 07:59:05.5	313.520	0.270	-0.280	0.970
2020/01/31 07:59:05.6	313.500	0.280	-0.300	0.930
2020/01/31 07:59:05.7	313.490	0.280	-0.310	0.890
2020/01/31 07:59:05.8	313.470	0.280	-0.330	0.850
2020/01/31 07:59:05.9	313.470	0.280	-0.340	0.800
2020/01/31 07:59:06.0	313.460	0.280	-0.350	0.750
2020/01/31 07:59:06.1	313.460	0.280	-0.370	0.690
2020/01/31 07:59:06.2	313.460	0.280	-0.380	0.630
2020/01/31 07:59:06.3	313.460	0.280	-0.390	0.580
2020/01/31 07:59:06.4	313.470	0.280	-0.400	0.510
2020/01/31 07:59:06.5	313.490	0.270	-0.410	0.450
2020/01/31 07:59:06.6	313.500	0.270	-0.420	0.380
2020/01/31 07:59:06.7	313.520	0.260	-0.430	0.320
2020/01/31 07:59:06.8	313.550	0.260	-0.440	0.250
2020/01/31 07:59:06.9	313.570	0.250	-0.450	0.180
2020/01/31 07:59:07.0	313.610	0.240	-0.460	0.110
2020/01/31 07:59:07.1	313.640	0.240	-0.470	0.040
2020/01/31 07:59:07.2	313.670	0.230	-0.480	-0.030
2020/01/31 07:59:07.3	313.710	0.220	-0.500	-0.110
2020/01/31 07:59:07.4	313.750	0.210	-0.510	-0.170
2020/01/31 07:59:07.5	313.790	0.200	-0.520	-0.240
2020/01/31 07:59:07.6	313.830	0.200	-0.530	-0.300
2020/01/31 07:59:07.7	313.870	0.190	-0.540	-0.360
2020/01/31 07:59:07.8	313.920	0.180	-0.550	-0.420
2020/01/31 07:59:07.9	313.960	0.170	-0.550	-0.470
2020/01/31 07:59:08.0	314.000	0.170	-0.560	-0.520
2020/01/31 07:59:08.1	314.040	0.160	-0.560	-0.570
2020/01/31 07:59:08.2	314.080	0.150	-0.560	-0.610
2020/01/31 07:59:08.3	314.120	0.140	-0.570	-0.640
2020/01/31 07:59:08.4	314.160	0.140	-0.560	-0.670
2020/01/31 07:59:08.5	314.200	0.130	-0.560	-0.700
2020/01/31 07:59:08.6	314.240	0.120	-0.550	-0.720
2020/01/31 07:59:08.7	314.270	0.120	-0.540	-0.730
2020/01/31 07:59:08.8	314.300	0.110	-0.530	-0.740
2020/01/31 07:59:08.9	314.330	0.110	-0.510	-0.740
2020/01/31 07:59:09.0	314.360	0.100	-0.500	-0.740
2020/01/31 07:59:09.1	314.390	0.090	-0.480	-0.730
2020/01/31 07:59:09.2	314.410	0.090	-0.450	-0.720
2020/01/31 07:59:09.3	314.420	0.080	-0.430	-0.700
2020/01/31 07:59:09.4	314.440	0.070	-0.400	-0.690
2020/01/31 07:59:09.5	314.450	0.060	-0.370	-0.660
2020/01/31 07:59:09.6	314.470	0.060	-0.340	-0.640
2020/01/31 07:59:09.7	314.480	0.050	-0.310	-0.610
2020/01/31 07:59:09.8	314.490	0.040	-0.280	-0.570
2020/01/31 07:59:09.9	314.490	0.030	-0.250	-0.540
2020/01/31 07:59:10.0	314.490	0.020	-0.220	-0.500
2020/01/31 07:59:10.1	314.500	0.000	-0.190	-0.470
2020/01/31 07:59:10.2	314.500	-0.010	-0.160	-0.430
2020/01/31 07:59:10.3	314.480	-0.020	-0.130	-0.390
2020/01/31 07:59:10.4	314.480	-0.040	-0.110	-0.350
2020/01/31 07:59:10.5	314.480	-0.050	-0.080	-0.310
2020/01/31 07:59:10.6	314.470	-0.070	-0.060	-0.280
2020/01/31 07:59:10.7	314.460	-0.080	-0.040	-0.240
2020/01/31 07:59:10.8	314.450	-0.100	-0.020	-0.210
2020/01/31 07:59:10.9	314.440	-0.120	-0.000	-0.180
2020/01/31 07:59:11.0	314.430	-0.140	0.010	-0.150
2020/01/31 07:59:11.1	314.420	-0.160	0.020	-0.120
2020/01/31 07:59:11.2	314.410	-0.180	0.020	-0.100
2020/01/31 07:59:11.3	314.410	-0.200	0.030	-0.070
2020/01/31 07:59:11.4	314.400	-0.220	0.020	-0.060
2020/01/31 07:59:11.5	314.390	-0.240	0.020	-0.040
2020/01/31 07:59:11.6	314.380	-0.260	0.010	-0.030
2020/01/31 07:59:11.7	314.370	-0.280	-0.010	-0.030
2020/01/31 07:59:11.8	314.360	-0.300	-0.020	-0.020
2020/01/31 07:59:11.9	314.350	-0.320	-0.040	-0.020
2020/01/31 07:59:12.0	314.340	-0.340	-0.070	-0.030
2020/01/31 07:59:12.1	314.340	-0.350	-0.090	-0.030
2020/01/31 07:59:12.2	314.330	-0.370	-0.120	-0.040
2020/01/31 07:59:12.3	314.330	-0.380	-0.160	-0.050
2020/01/31 07:59:12.4	314.330	-0.400	-0.190	-0.070
2020/01/31 07:59:12.5	314.330	-0.410	-0.230	-0.080
2020/01/31 07:59:12.6	314.330	-0.420	-0.260	-0.100
2020/01/31 07:59:12.7	314.330	-0.430	-0.300	-0.120
2020/01/31 07:59:12.8	314.330	-0.440	-0.340	-0.140
2020/01/31 07:59:12.9	314.340	-0.440	-0.370	-0.150
2020/01/31 07:59:13.0	314.340	-0.440	-0.410	-0.170
2020/01/31 07:59:13.1	314.350	-0.450	-0.450	-0.190
2020/01/31 07:59:13.2	314.350	-0.450	-0.480	-0.210
2020/01/31 07:59:13.3	314.360	-0.450	-0.510	-0.220
2020/01/31 07:59:13.4	314.360	-0.440	-0.540	-0.240
2020/01/31 07:59:13.5	314.370	-0.440	-0.560	-0.250
2020/01/31 07:59:13.6	314.380	-0.430	-0.590	-0.260
2020/01/31 07:59:13.7	314.380	-0.420	-0.610	-0.270
2020/01/31 07:59:13.8	314.390	-0.410	-0.620	-0.280
2020/01/31 07:59:13.9	314.390	-0.400	-0.640	-0.290
2020/01/31 07:59:14.0	314.400	-0.380	-0.650	-0.290
2020/01/31 07:59:14.1	314.410	-0.370	-0.660	-0.300
2020/01/31 07:59:14.2	314.410	-0.350	-0.660	-0.300
2020/01/31 07:59:14.3	314.420	-0.330	-0.670	-0.300
2020/01/31 07:59:14.4	314.430	-0.310	-0.660	-0.300
2020/01/31 07:59:14.5	314.430	-0.290	-0.660	-0.290
2020/01/31 07:59:14.6	314.440	-0.260	-0.650	-0.280
2020/01/31 07:59:14.7	314.440	-0.240	-0.640	-0.270
2020/01/31 07:59:14.8	314.450	-0.210	-0.630	-0.260
2020/01/31 07:59:14.9	314.450	-0.180	-0.610	-0.240
2020/01/31 07:59:15.0	314.460	-0.160	-0.590	-0.220
2020/01/31 07:59:15.1	314.460	-0.130	-0.570	-0.200
2020/01/31 07:59:15.2	314.460	-0.100	-0.550	-0.170
2020/01/31 07:59:15.3	314.460	-0.060	-0.520	-0.130
2020/01/31 07:59:15.4	314.460	-0.030	-0.500	-0.100
2020/01/31 07:59:15.5	314.460	-0.000	-0.470	-0.060
2020/01/31 07:59:15.6	314.450	0.030	-0.440	-0.020
2020/01/31 07:59:15.7	314.450	0.060	-0.410	0.020
2020/01/31 07:59:15.8	314.440	0.090	-0.380	0.070
2020/01/31 07:59:15.9	314.430	0.120	-0.350	0.110
2020/01/31 07:59:16.0	314.420	0.150	-0.320	0.160
2020/01/31 07:59:16.1	314.410	0.180	-0.280	0.210
2020/01/31 07:59:16.2	314.400	0.200	-0.250	0.260
2020/01/31 07:59:16.3	314.390	0.230	-0.220	0.320
2020/01/31 07:59:16.4	314.380	0.250	-0.190	0.370
2020/01/31 07:59:16.5	314.370	0.280	-0.160	0.420
2020/01/31 07:59:16.6	314.350	0.300	-0.140	0.480
2020/01/31 07:59:16.7	314.330	0.320	-0.110	0.530
2020/01/31 07:59:16.8	314.320	0.340	-0.080	0.580
2020/01/31 07:59:16.9	314.300	0.350	-0.060	0.630
2020/01/31 07:59:17.0	314.280	0.370	-0.040	0.670
2020/01/31 07:59:17.1	314.270	0.380	-0.020	0.720
2020/01/31 07:59:17.2	314.250	0.390	0.000	0.760
2020/01/31 07:59:17.3	314.240	0.400	0.030	0.800
2020/01/31 07:59:17.4	314.230	0.410	0.040	0.840
2020/01/31 07:59:17.5	314.210	0.410	0.060	0.870
2020/01/31 07:59:17.6	314.200	0.420	0.070	0.900
2020/01/31 07:59:17.7	314.190	0.420	0.080	0.930
2020/01/31 07:59:17.8	314.180	0.420	0.090	0.960
2020/01/31 07:59:17.9	314.170	0.420	0.100	0.980
2020/01/31 07:59:18.0	314.170	0.420	0.110	0.990
2020/01/31 07:59:18.1	314.160	0.420	0.120	1.000
2020/01/31 07:59:18.2	314.160	0.420	0.120	1.010
2020/01/31 07:59:18.3	314.170	0.410	0.120	1.020
2020/01/31 07:59:18.4	314.170	0.400	0.130	1.020
2020/01/31 07:59:18.5	314.170	0.400	0.130	1.020
2020/01/31 07:59:18.6	314.170	0.390	0.140	1.010
2020/01/31 07:59:18.7	314.170	0.380	0.140	1.000
2020/01/31 07:59:18.8	314.180	0.360	0.140	0.990
2020/01/31 07:59:18.9	314.180	0.350	0.150	0.980
2020/01/31 07:59:19.0	314.180	0.340	0.150	0.960
2020/01/31 07:59:19.1	314.190	0.320	0.150	0.940
2020/01/31 07:59:19.2	314.190	0.310	0.160	0.920
2020/01/31 07:59:19.3	314.190	0.290	0.160	0.900
2020/01/31 07:59:19.4	314.190	0.270	0.160	0.870
2020/01/31 07:59:19.5	314.200	0.260	0.170	0.850
2020/01/31 07:59:19.6	314.200	0.240	0.170	0.820
2020/01/31 07:59:19.7	314.210	0.220	0.160	0.790
2020/01/31 07:59:19.8	314.210	0.190	0.160	0.750
2020/01/31 07:59:19.9	314.220	0.170	0.160	0.720
2020/01/31 07:59:20.0	314.230	0.150	0.160	0.680
2020/01/31 07:59:20.1	314.230	0.130	0.150	0.640
2020/01/31 07:59:20.2	314.240	0.110	0.150	0.590
2020/01/31 07:59:20.3	314.250	0.080	0.140	0.550
2020/01/31 07:59:20.4	314.270	0.060	0.130	0.500
2020/01/31 07:59:20.5	314.280	0.040	0.120	0.450
2020/01/31 07:59:20.6	314.290	0.010	0.100	0.400
2020/01/31 07:59:20.7	314.300	-0.010	0.090	0.350
2020/01/31 07:59:20.8	314.310	-0.030	0.070	0.290
2020/01/31 07:59:20.9	314.330	-0.060	0.050	0.240
2020/01/31 07:59:21.0	314.340	-0.080	0.030	0.190
2020/01/31 07:59:21.1	314.350	-0.100	0.010	0.130
2020/01/31 07:59:21.2	314.360	-0.120	-0.010	0.080
2020/01/31 07:59:21.3	314.360	-0.150	-0.040	0.020
2020/01/31 07:59:21.4	314.380	-0.170	-0.070	-0.030
2020/01/31 07:59:21.5	314.380	-0.190	-0.090	-0.090
2020/01/31 07:59:21.6	314.390	-0.210	-0.120	-0.140
2020/01/31 07:59:21.7	314.400	-0.230	-0.140	-0.190
2020/01/31 07:59:21.8	314.410	-0.250	-0.170	-0.240
2020/01/31 07:59:21.9	314.410	-0.260	-0.200	-0.290
2020/01/31 07:59:22.0	314.420	-0.280	-0.220	-0.340
2020/01/31 07:59:22.1	314.430	-0.300	-0.250	-0.390
2020/01/31 07:59:22.2	314.430	-0.310	-0.280	-0.430
2020/01/31 07:59:22.3	314.430	-0.320	-0.300	-0.480
2020/01/31 07:59:22.4	314.430	-0.340	-0.330	-0.520
2020/01/31 07:59:22.5	314.430	-0.350	-0.350	-0.560
2020/01/31 07:59:22.6	314.440	-0.360	-0.380	-0.600
2020/01/31 07:59:22.7	314.440	-0.360	-0.400	-0.630
2020/01/31 07:59:22.8	314.440	-0.370	-0.430	-0.660
2020/01/31 07:59:22.9	314.450	-0.370	-0.450	-0.690
2020/01/31 07:59:23.0	314.450	-0.370	-0.480	-0.720
2020/01/31 07:59:23.1	314.460	-0.370	-0.500	-0.750
2020/01/31 07:59:23.2	314.460	-0.370	-0.520	-0.770
2020/01/31 07:59:23.3	314.440	-0.360	-0.540	-0.790
2020/01/31 07:59:23.4	314.450	-0.360	-0.570	-0.810
2020/01/31 07:59:23.5	314.460	-0.350	-0.590	-0.830
2020/01/31 07:59:23.6	314.470	-0.340	-0.610	-0.840
2020/01/31 07:59:23.7	314.480	-0.330	-0.630	-0.850
2020/01/31 07:59:23.8	314.480	-0.310	-0.660	-0.860
2020/01/31 07:59:23.9	314.490	-0.300	-0.680	-0.860
2020/01/31 07:59:24.0	314.500	-0.280	-0.700	-0.860
2020/01/31 07:59:24.1	314.510	-0.260	-0.720	-0.860
2020/01/31 07:59:24.2	314.520	-0.240	-0.740	-0.850
2020/01/31 07:59:24.3	314.520	-0.220	-0.750	-0.830
2020/01/31 07:59:24.4	314.520	-0.200	-0.770	-0.820
2020/01/31 07:59:24.5	314.530	-0.180	-0.780	-0.790
2020/01/31 07:59:24.6	314.530	-0.160	-0.800	-0.770
2020/01/31 07:59:24.7	314.540	-0.130	-0.810	-0.740
2020/01/31 07:59:24.8	314.540	-0.110	-0.820	-0.700
2020/01/31 07:59:24.9	314.550	-0.080	-0.830	-0.670
2020/01/31 07:59:25.0	314.550	-0.060	-0.830	-0.630
2020/01/31 07:59:25.1	314.550	-0.030	-0.830	-0.580
2020/01/31 07:59:25.2	314.560	-0.010	-0.830	-0.540
2020/01/31 07:59:25.3	314.560	0.010	-0.830	-0.490
2020/01/31 07:59:25.4	314.560	0.040	-0.820	-0.440
2020/01/31 07:59:25.5	314.570	0.060	-0.820	-0.390
2020/01/31 07:59:25.6	314.570	0.090	-0.810	-0.330
2020/01/31 07:59:25.7	314.560	0.110	-0.800	-0.270
2020/01/31 07:59:25.8	314.560	0.130	-0.780	-0.220
2020/01/31 07:59:25.9	314.560	0.150	-0.770	-0.160
2020/01/31 07:59:26.0	314.560	0.180	-0.750	-0.100
2020/01/31 07:59:26.1	314.560	0.200	-0.730	-0.040
2020/01/31 07:59:26.2	314.560	0.220	-0.700	0.010
2020/01/31 07:59:26.3	314.580	0.230	-0.680	0.080
2020/01/31 07:59:26.4	314.570	0.250	-0.650	0.130
2020/01/31 07:59:26.5	314.570	0.270	-0.620	0.190
2020/01/31 07:59:26.6	314.570	0.280	-0.590	0.250
2020/01/31 07:59:26.7	314.570	0.300	-0.560	0.300
2020/01/31 07:59:26.8	314.570	0.310	-0.520	0.350
2020/01/31 07:59:26.9	314.570	0.320	-0.490	0.400
2020/01/31 07:59:27.0	314.570	0.330	-0.450	0.460
2020/01/31 07:59:27.1	314.570	0.330	-0.420	0.500
2020/01/31 07:59:27.2	314.570	0.340	-0.380	0.550
2020/01/31 07:59:27.3	314.570	0.340	-0.340	0.600
2020/01/31 07:59:27.4	314.570	0.340	-0.300	0.650
2020/01/31 07:59:27.5	314.570	0.340	-0.260	0.690
2020/01/31 07:59:27.6	314.570	0.340	-0.210	0.730
2020/01/31 07:59:27.7	314.570	0.330	-0.170	0.770
2020/01/31 07:59:27.8	314.560	0.330	-0.130	0.810
2020/01/31 07:59:27.9	314.560	0.320	-0.090	0.840
2020/01/31 07:59:28.0	314.560	0.310	-0.050	0.870
2020/01/31 07:59:28.1	314.550	0.290	-0.010	0.900
2020/01/31 07:59:28.2	314.550	0.280	0.030	0.930
2020/01/31 07:59:28.3	314.550	0.260	0.060	0.960
2020/01/31 07:59:28.4	314.540	0.240	0.100	0.980
2020/01/31 07:59:28.5	314.540	0.220	0.140	1.000
2020/01/31 07:59:28.6	314.540	0.200	0.170	1.010
2020/01/31 07:59:28.7	314.530	0.180	0.210	1.020
2020/01/31 07:59:28.8	314.530	0.150	0.240	1.030
2020/01/31 07:59:28.9	314.520	0.120	0.270	1.040
2020/01/31 07:59:29.0	314.520	0.100	0.300	1.040
2020/01/31 07:59:29.1	314.510	0.070	0.320	1.040
2020/01/31 07:59:29.2	314.500	0.040	0.350	1.040
2020/01/31 07:59:29.3	314.510	0.010	0.370	1.040
2020/01/31 07:59:29.4	314.500	-0.020	0.390	1.030
2020/01/31 07:59:29.5	314.490	-0.050	0.410	1.020
2020/01/31 07:59:29.6	314.480	-0.080	0.430	1.010
2020/01/31 07:59:29.7	314.460	-0.120	0.440	1.000
2020/01/31 07:59:29.8	314.450	-0.150	0.450	0.990
2020/01/31 07:59:29.9	314.430	-0.170	0.470	0.980
2020/01/31 07:59:30.0	314.420	-0.200	0.470	0.960
2020/01/31 07:59:30.1	314.400	-0.230	0.480	0.940
2020/01/31 07:59:30.2	314.390	-0.260	0.480	0.920
2020/01/31 07:59:30.3	314.370	-0.280	0.480	0.900
2020/01/31 07:59:30.4	314.350	-0.300	0.470	0.870
2020/01/31 07:59:30.5	314.340	-0.330	0.460	0.840
2020/01/31 07:59:30.6	314.320	-0.340	0.450	0.810
2020/01/31 07:59:30.7	314.310	-0.360	0.430	0.770
2020/01/31 07:59:30.8	314.300	-0.380	0.410	0.730
2020/01/31 07:59:30.9	314.290	-0.390	0.380	0.690
2020/01/31 07:59:31.0	314.280	-0.400	0.350	0.650
2020/01/31 07:59:31.1	314.270	-0.400	0.320	0.600
2020/01/31 07:59:31.2	314.260	-0.410	0.280	0.550
2020/01/31 07:59:31.3	314.250	-0.410	0.240	0.490
2020/01/31 07:59:31.4	314.240	-0.410	0.200	0.440
2020/01/31 07:59:31.5	314.240	-0.400	0.150	0.380
2020/01/31 07:59:31.6	314.240	-0.400	0.110	0.330
2020/01/31 07:59:31.7	314.240	-0.390	0.060	0.270
2020/01/31 07:59:31.8	314.240	-0.380	0.010	0.210
2020/01/31 07:59:31.9	314.230	-0.360	-0.050	0.160
2020/01/31 07:59:32.0	314.230	-0.350	-0.100	0.100
2020/01/31 07:59:32.1	314.230	-0.330	-0.150	0.050
2020/01/31 07:59:32.2	314.230	-0.310	-0.200	-0.000
2020/01/31 07:59:32.3	314.220	-0.290	-0.250	-0.060
2020/01/31 07:59:32.4	314.220	-0.270	-0.300	-0.100
2020/01/31 07:59:32.5	314.210	-0.250	-0.340	-0.140
2020/01/31 07:59:32.6	314.210	-0.220	-0.380	-0.180
2020/01/31 07:59:32.7	314.200	-0.200	-0.420	-0.220
2020/01/31 07:59:32.8	314.190	-0.170	-0.460	-0.250
2020/01/31 07:59:32.9	314.180	-0.140	-0.500	-0.280
2020/01/31 07:59:33.0	314.170	-0.120	-0.530	-0.310
2020/01/31 07:59:33.1	314.160	-0.090	-0.560	-0.340
2020/01/31 07:59:33.2	314.150	-0.060	-0.590	-0.360
2020/01/31 07:59:33.3	314.160	-0.040	-0.610	-0.370
2020/01/31 07:59:33.4	314.150	-0.010	-0.640	-0.390
2020/01/31 07:59:33.5	314.140	0.020	-0.660	-0.400
2020/01/31 07:59:33.6	314.130	0.040	-0.680	-0.410
2020/01/31 07:59:33.7	314.120	0.070	-0.700	-0.420
2020/01/31 07:59:33.8	314.120	0.100	-0.710	-0.420
2020/01/31 07:59:33.9	314.110	0.120	-0.730	-0.420
2020/01/31 07:59:34.0	314.110	0.150	-0.740	-0.420
2020/01/31 07:59:34.1	314.110	0.170	-0.750	-0.420
2020/01/31 07:59:34.2	314.110	0.190	-0.760	-0.420
2020/01/31 07:59:34.3	314.110	0.220	-0.770	-0.410
2020/01/31 07:59:34.4	314.110	0.240	-0.770	-0.410
2020/01/31 07:59:34.5	314.110	0.260	-0.780	-0.400
2020/01/31 07:59:34.6	314.120	0.280	-0.780	-0.390
2020/01/31 07:59:34.7	314.130	0.300	-0.790	-0.380
2020/01/31 07:59:34.8	314.140	0.320	-0.790	-0.360
2020/01/31 07:59:34.9	314.150	0.330	-0.790	-0.350
2020/01/31 07:59:35.0	314.160	0.350	-0.790	-0.340
2020/01/31 07:59:35.1	314.180	0.370	-0.790	-0.320
2020/01/31 07:59:35.2	314.190	0.380	-0.790	-0.310
2020/01/31 07:59:35.3	314.200	0.390	-0.790	-0.300
2020/01/31 07:59:35.4	314.220	0.410	-0.780	-0.280
2020/01/31 07:59:35.5	314.240	0.420	-0.770	-0.270
2020/01/31 07:59:35.6	314.260	0.430	-0.770	-0.260
2020/01/31 07:59:35.7	314.280	0.440	-0.760	-0.240
2020/01/31 07:59:35.8	314.300	0.440	-0.740	-0.230
2020/01/31 07:59:35.9	314.330	0.450	-0.730	-0.210
2020/01/31 07:59:36.0	314.350	0.450	-0.710	-0.190
2020/01/31 07:59:36.1	314.380	0.460	-0.690	-0.180
2020/01/31 07:59:36.2	314.400	0.460	-0.670	-0.160
2020/01/31 07:59:36.3	314.420	0.460	-0.650	-0.130
2020/01/31 07:59:36.4	314.450	0.460	-0.620	-0.110
2020/01/31 07:59:36.5	314.470	0.460	-0.600	-0.080
2020/01/31 07:59:36.6	314.490	0.460	-0.560	-0.050
2020/01/31 07:59:36.7	314.510	0.450	-0.530	-0.020
2020/01/31 07:59:36.8	314.530	0.440	-0.500	0.010
2020/01/31 07:59:36.9	314.550	0.430	-0.460	0.040
2020/01/31 07:59:37.0	314.560	0.420	-0.420	0.080
2020/01/31 07:59:37.1	314.580	0.410	-0.390	0.110
2020/01/31 07:59:37.2	314.590	0.400	-0.350	0.150
2020/01/31 07:59:37.3	314.610	0.380	-0.310	0.180
2020/01/31 07:59:37.4	314.610	0.360	-0.270	0.220
2020/01/31 07:59:37.5	314.620	0.340	-0.230	0.250
2020/01/31 07:59:37.6	314.630	0.320	-0.190	0.290
2020/01/31 07:59:37.7	314.640	0.300	-0.150	0.320
2020/01/31 07:59:37.8	314.640	0.270	-0.110	0.350
2020/01/31 07:59:37.9	314.650	0.250	-0.080	0.380
2020/01/31 07:59:38.0	314.650	0.220	-0.040	0.410
2020/01/31 07:59:38.1	314.660	0.190	-0.010	0.430
2020/01/31 07:59:38.2	314.660	0.160	0.020	0.460
2020/01/31 07:59:38.3	314.660	0.130	0.050	0.480
2020/01/31 07:59:38.4	314.660	0.100	0.080	0.500
2020/01/31 07:59:38.5	314.660	0.070	0.100	0.520
2020/01/31 07:59:38.6	314.660	0.030	0.130	0.530
2020/01/31 07:59:38.7	314.660	-0.000	0.150	0.550
2020/01/31 07:59:38.8	314.650	-0.030	0.170	0.560
2020/01/31 07:59:38.9	314.640	-0.070	0.180	0.570
2020/01/31 07:59:39.0	314.630	-0.100	0.200	0.580
2020/01/31 07:59:39.1	314.630	-0.130	0.210	0.580
2020/01/31 07:59:39.2	314.610	-0.170	0.220	0.590
2020/01/31 07:59:39.3	314.610	-0.200	0.230	0.590
2020/01/31 07:59:39.4	314.590	-0.230	0.240	0.590
2020/01/31 07:59:39.5	314.580	-0.260	0.250	0.580
2020/01/31 07:59:39.6	314.570	-0.290	0.250	0.570
2020/01/31 07:59:39.7	314.560	-0.320	0.250	0.560
2020/01/31 07:59:39.8	314.550	-0.350	0.250	0.550
2020/01/31 07:59:39.9	314.530	-0.370	0.250	0.530
2020/01/31 07:59:40.0	314.520	-0.400	0.250	0.510
2020/01/31 07:59:40.1	314.510	-0.420	0.250	0.490
2020/01/31 07:59:40.2	314.490	-0.440	0.250	0.460
2020/01/31 07:59:40.3	314.490	-0.460	0.240	0.430
2020/01/31 07:59:40.4	314.470	-0.480	0.240	0.400
2020/01/31 07:59:40.5	314.460	-0.490	0.240	0.370
2020/01/31 07:59:40.6	314.440	-0.510	0.230	0.340
2020/01/31 07:59:40.7	314.420	-0.520	0.230	0.310
2020/01/31 07:59:40.8	314.400	-0.530	0.230	0.280
2020/01/31 07:59:40.9	314.380	-0.530	0.230	0.260
2020/01/31 07:59:41.0	314.360	-0.540	0.230	0.230
2020/01/31 07:59:41.1	314.330	-0.540	0.220	0.210
2020/01/31 07:59:41.2	314.300	-0.540	0.220	0.180
2020/01/31 07:59:41.3	314.280	-0.540	0.220	0.160
2020/01/31 07:59:41.4	314.250	-0.530	0.220	0.140
2020/01/31 07:59:41.5	314.220	-0.530	0.220	0.120
2020/01/31 07:59:41.6	314.190	-0.520	0.220	0.100
2020/01/31 07:59:41.7	314.150	-0.510	0.210	0.090
2020/01/31 07:59:41.8	314.120	-0.490	0.210	0.070
2020/01/31 07:59:41.9	314.080	-0.480	0.200	0.060
2020/01/31 07:59:42.0	314.050	-0.460	0.190	0.050
2020/01/31 07:59:42.1	314.020	-0.440	0.180	0.040
2020/01/31 07:59:42.2	313.990	-0.420	0.170	0.030
2020/01/31 07:59:42.3	313.940	-0.400	0.150	0.020
2020/01/31 07:59:42.4	313.920	-0.380	0.130	0.010
2020/01/31 07:59:42.5	313.890	-0.350	0.110	0.000
2020/01/31 07:59:42.6	313.860	-0.330	0.090	-0.010
2020/01/31 07:59:42.7	313.840	-0.300	0.060	-0.010
2020/01/31 07:59:42.8	313.820	-0.270	0.020	-0.020
2020/01/31 07:59:42.9	313.810	-0.240	-0.010	-0.030
2020/01/31 07:59:43.0	313.790	-0.210	-0.050	-0.050
2020/01/31 07:59:43.1	313.780	-0.180	-0.100	-0.060
2020/01/31 07:59:43.2	313.780	-0.150	-0.150	-0.070
2020/01/31 07:59:43.3	313.770	-0.110	-0.200	-0.090
2020/01/31 07:59:43.4	313.770	-0.080	-0.250	-0.110
2020/01/31 07:59:43.5	313.780	-0.040	-0.310	-0.120
2020/01/31 07:59:43.6	313.780	-0.010	-0.370	-0.140
2020/01/31 07:59:43.7	313.800	0.030	-0.430	-0.150
2020/01/31 07:59:43.8	313.810	0.060	-0.490	-0.170
2020/01/31 07:59:43.9	313.830	0.100	-0.550	-0.190
2020/01/31 07:59:44.0	313.840	0.130	-0.610	-0.210
2020/01/31 07:59:44.1	313.860	0.170	-0.670	-0.220
2020/01/31 07:59:44.2	313.890	0.200	-0.730	-0.230
2020/01/31 07:59:44.3	313.910	0.230	-0.790	-0.250
2020/01/31 07:59:44.4	313.930	0.260	-0.840	-0.260
2020/01/31 07:59:44.5	313.960	0.290	-0.890	-0.270
2020/01/31 07:59:44.6	313.980	0.320	-0.940	-0.270
2020/01/31 07:59:44.7	314.010	0.340	-0.980	-0.280
2020/01/31 07:59:44.8	314.030	0.370	-1.010	-0.280
2020/01/31 07:59:44.9	314.050	0.390	-1.050	-0.270
2020/01/31 07:59:45.0	314.070	0.410	-1.070	-0.270
2020/01/31 07:59:45.1	314.090	0.430	-1.090	-0.260
2020/01/31 07:59:45.2	314.110	0.440	-1.100	-0.240
2020/01/31 07:59:45.3	314.120	0.460	-1.110	-0.230
2020/01/31 07:59:45.4	314.130	0.470	-1.110	-0.210
2020/01/31 07:59:45.5	314.140	0.480	-1.100	-0.180
2020/01/31 07:59:45.6	314.150	0.480	-1.090	-0.150
2020/01/31 07:59:45.7	314.160	0.490	-1.070	-0.120
2020/01/31 07:59:45.8	314.170	0.490	-1.050	-0.090
2020/01/31 07:59:45.9	314.180	0.490	-1.020	-0.060
2020/01/31 07:59:46.0	314.190	0.480	-0.990	-0.030
2020/01/31 07:59:46.1	314.190	0.480	-0.960	0.010
2020/01/31 07:59:46.2	314.200	0.470	-0.920	0.040
2020/01/31 07:59:46.3	314.210	0.460	-0.870	0.080
2020/01/31 07:59:46.4	314.220	0.450	-0.830	0.110
2020/01/31 07:59:46.5	314.220	0.440	-0.790	0.150
2020/01/31 07:59:46.6	314.230	0.420	-0.740	0.180
2020/01/31 07:59:46.7	314.240	0.410	-0.700	0.210
2020/01/31 07:59:46.8	314.250	0.390	-0.650	0.240
2020/01/31 07:59:46.9	314.260	0.380	-0.610	0.270
2020/01/31 07:59:47.0	314.270	0.360	-0.560	0.290
2020/01/31 07:59:47.1	314.290	0.340	-0.520	0.310
2020/01/31 07:59:47.2	314.300	0.320	-0.480	0.330
2020/01/31 07:59:47.3	314.320	0.300	-0.440	0.350
2020/01/31 07:59:47.4	314.340	0.280	-0.410	0.360
2020/01/31 07:59:47.5	314.350	0.270	-0.370	0.370
2020/01/31 07:59:47.6	314.380	0.250	-0.340	0.380
2020/01/31 07:59:47.7	314.400	0.230	-0.310	0.390
2020/01/31 07:59:47.8	314.420	0.210	-0.280	0.400
2020/01/31 07:59:47.9	314.440	0.190	-0.250	0.400
2020/01/31 07:59:48.0	314.460	0.170	-0.220	0.400
2020/01/31 07:59:48.1	314.470	0.150	-0.200	0.410
2020/01/31 07:59:48.2	314.490	0.130	-0.170	0.410
2020/01/31 07:59:48.3	314.510	0.110	-0.150	0.410
2020/01/31 07:59:48.4	314.530	0.090	-0.120	0.410
2020/01/31 07:59:48.5	314.540	0.080	-0.100	0.410
2020/01/31 07:59:48.6	314.550	0.060	-0.080	0.410
2020/01/31 07:59:48.7	314.560	0.040	-0.060	0.410
2020/01/31 07:59:48.8	314.560	0.020	-0.040	0.410
2020/01/31 07:59:48.9	314.570	0.000	-0.020	0.400
2020/01/31 07:59:49.0	314.570	-0.010	0.000	0.400
2020/01/31 07:59:49.1	314.570	-0.030	0.020	0.400
2020/01/31 07:59:49.2	314.570	-0.050	0.040	0.390
2020/01/31 07:59:49.3	314.560	-0.070	0.060	0.390
2020/01/31 07:59:49.4	314.560	-0.080	0.080	0.380
2020/01/31 07:59:49.5	314.550	-0.100	0.090	0.370
2020/01/31 07:59:49.6	314.540	-0.120	0.110	0.370
2020/01/31 07:59:49.7	314.540	-0.140	0.130	0.350
2020/01/31 07:59:49.8	314.530	-0.150	0.140	0.340
2020/01/31 07:59:49.9	314.520	-0.170	0.150	0.330
2020/01/31 07:59:50.0	314.500	-0.180	0.170	0.320
2020/01/31 07:59:50.1	314.490	-0.200	0.180	0.300
2020/01/31 07:59:50.2	314.480	-0.210	0.180	0.280
2020/01/31 07:59:50.3	314.470	-0.230	0.200	0.260
2020/01/31 07:59:50.4	314.450	-0.240	0.200	0.240
2020/01/31 07:59:50.5	314.440	-0.260	0.200	0.220
2020/01/31 07:59:50.6	314.420	-0.270	0.210	0.200
2020/01/31 07:59:50.7	314.410	-0.280	0.210	0.170
2020/01/31 07:59:50.8	314.390	-0.290	0.200	0.150
2020/01/31 07:59:50.9	314.380	-0.300	0.200	0.130
2020/01/31 07:59:51.0	314.360	-0.310	0.200	0.100
2020/01/31 07:59:51.1	314.340	-0.320	0.190	0.080
2020/01/31 07:59:51.2	314.320	-0.330	0.190	0.050
2020/01/31 07:59:51.3	314.300	-0.330	0.180	0.030
2020/01/31 07:59:51.4	314.290	-0.340	0.170	0.010
2020/01/31 07:59:51.5	314.270	-0.340	0.160	-0.020
2020/01/31 07:59:51.6	314.250	-0.350	0.150	-0.040
2020/01/31 07:59:51.7	314.230	-0.350	0.140	-0.060
2020/01/31 07:59:51.8	314.210	-0.350	0.130	-0.090
2020/01/31 07:59:51.9	314.200	-0.350	0.130	-0.110
2020/01/31 07:59:52.0	314.180	-0.350	0.120	-0.130
2020/01/31 07:59:52.1	314.160	-0.350	0.110	-0.150
2020/01/31 07:59:52.2	314.140	-0.350	0.100	-0.160
2020/01/31 07:59:52.3	314.130	-0.350	0.100	-0.180
2020/01/31 07:59:52.4	314.110	-0.340	0.090	-0.200
2020/01/31 07:59:52.5	314.090	-0.340	0.080	-0.210
2020/01/31 07:59:52.6	314.080	-0.330	0.080	-0.230
2020/01/31 07:59:52.7	314.060	-0.320	0.070	-0.240
2020/01/31 07:59:52.8	314.050	-0.320	0.070	-0.250
2020/01/31 07:59:52.9	314.040	-0.310	0.060	-0.260
2020/01/31 07:59:53.0	314.020	-0.300	0.060	-0.270
2020/01/31 07:59:53.1	314.010	-0.290	0.050	-0.280
2020/01/31 07:59:53.2	314.000	-0.280	0.050	-0.290
2020/01/31 07:59:53.3	313.990	-0.270	0.050	-0.310
2020/01/31 07:59:53.4	313.980	-0.260	0.040	-0.320
2020/01/31 07:59:53.5	313.980	-0.250	0.030	-0.330
2020/01/31 07:59:53.6	313.970	-0.240	0.030	-0.340
2020/01/31 07:59:53.7	313.970	-0.220	0.020	-0.350
2020/01/31 07:59:53.8	313.960	-0.210	0.010	-0.360
2020/01/31 07:59:53.9	313.960	-0.200	0.010	-0.360
2020/01/31 07:59:54.0	313.960	-0.190	-0.000	-0.370
2020/01/31 07:59:54.1	313.960	-0.180	-0.010	-0.380
2020/01/31 07:59:54.2	313.960	-0.160	-0.020	-0.390
2020/01/31 07:59:54.3	313.960	-0.150	-0.040	-0.390
2020/01/31 07:59:54.4	313.960	-0.140	-0.050	-0.400
2020/01/31 07:59:54.5	313.960	-0.130	-0.070	-0.400
2020/01/31 07:59:54.6	313.970	-0.120	-0.080	-0.400
2020/01/31 07:59:54.7	313.970	-0.100	-0.100	-0.410
2020/01/31 07:59:54.8	313.970	-0.090	-0.120	-0.410
2020/01/31 07:59:54.9	313.980	-0.080	-0.140	-0.410
2020/01/31 07:59:55.0	313.980	-0.070	-0.160	-0.400
2020/01/31 07:59:55.1	313.990	-0.060	-0.180	-0.400
2020/01/31 07:59:55.2	314.000	-0.040	-0.200	-0.390
2020/01/31 07:59:55.3	314.010	-0.030	-0.220	-0.390
2020/01/31 07:59:55.4	314.020	-0.020	-0.250	-0.380
2020/01/31 07:59:55.5	314.030	-0.010	-0.280	-0.380
2020/01/31 07:59:55.6	314.040	0.000	-0.300	-0.370
2020/01/31 07:59:55.7	314.060	0.010	-0.330	-0.360
2020/01/31 07:59:55.8	314.070	0.020	-0.360	-0.350
2020/01/31 07:59:55.9	314.090	0.030	-0.390	-0.340
2020/01/31 07:59:56.0	314.110	0.040	-0.420	-0.330
2020/01/31 07:59:56.1	314.130	0.050	-0.450	-0.310
2020/01/31 07:59:56.2	314.150	0.060	-0.480	-0.300
2020/01/31 07:59:56.3	314.170	0.070	-0.510	-0.280
2020/01/31 07:59:56.4	314.190	0.080	-0.540	-0.260
2020/01/31 07:59:56.5	314.210	0.090	-0.570	-0.250
2020/01/31 07:59:56.6	314.230	0.100	-0.600	-0.220
2020/01/31 07:59:56.7	314.250	0.100	-0.620	-0.200
2020/01/31 07:59:56.8	314.260	0.110	-0.650	-0.180
2020/01/31 07:59:56.9	314.280	0.120	-0.670	-0.150
2020/01/31 07:59:57.0	314.290	0.120	-0.680	-0.120
2020/01/31 07:59:57.1	314.310	0.130	-0.700	-0.080
2020/01/31 07:59:57.2	314.320	0.130	-0.710	-0.050
2020/01/31 07:59:57.3	314.320	0.140	-0.720	-0.010
2020/01/31 07:59:57.4	314.330	0.140	-0.730	0.030
2020/01/31 07:59:57.5	314.330	0.150	-0.730	0.070
2020/01/31 07:59:57.6	314.340	0.150	-0.730	0.110
2020/01/31 07:59:57.7	314.340	0.160	-0.730	0.160
2020/01/31 07:59:57.8	314.350	0.160	-0.730	0.200
2020/01/31 07:59:57.9	314.350	0.170	-0.720	0.250
2020/01/31 07:59:58.0	314.350	0.170	-0.710	0.290
2020/01/31 07:59:58.1	314.340	0.170	-0.700	0.340
2020/01/31 07:59:58.2	314.340	0.180	-0.680	0.380
2020/01/31 07:59:58.3	314.350	0.180	-0.670	0.430
2020/01/31 07:59:58.4	314.340	0.190	-0.650	0.470
2020/01/31 07:59:58.5	314.340	0.190	-0.640	0.520
2020/01/31 07:59:58.6	314.330	0.200	-0.620	0.560
2020/01/31 07:59:58.7	314.320	0.210	-0.600	0.590
2020/01/31 07:59:58.8	314.320	0.210	-0.590	0.630
2020/01/31 07:59:58.9	314.310	0.220	-0.570	0.660
2020/01/31 07:59:59.0	314.300	0.230	-0.550	0.700
2020/01/31 07:59:59.1	314.300	0.230	-0.540	0.730
2020/01/31 07:59:59.2	314.290	0.240	-0.520	0.760
2020/01/31 07:59:59.3	314.290	0.250	-0.500	0.780
2020/01/31 07:59:59.4	314.280	0.260	-0.490	0.800
2020/01/31 07:59:59.5	314.280	0.270	-0.480	0.820
2020/01/31 07:59:59.6	314.270	0.280	-0.470	0.830
2020/01/31 07:59:59.7	314.260	0.290	-0.460	0.850
2020/01/31 07:59:59.8	314.250	0.300	-0.450	0.860
2020/01/31 07:59:59.9	314.250	0.310	-0.440	0.870
2020/01/31 08:00:00.0	314.240	0.310	-0.440	0.870
2020/01/31 08:00:00.1	314.230	0.320	-0.430	0.870
2020/01/31 08:00:00.2	314.220	0.330	-0.430	0.870
2020/01/31 08:00:00.3	314.210	0.340	-0.430	0.870
2020/01/31 08:00:00.4	314.210	0.340	-0.420	0.860
2020/01/31 08:00:00.5	314.200	0.350	-0.420	0.850
2020/01/31 08:00:00.6	314.190	0.350	-0.420	0.840
2020/01/31 08:00:00.7	314.180	0.360	-0.410	0.820
2020/01/31 08:00:00.8	314.170	0.360	-0.410	0.810
2020/01/31 08:00:00.9	314.160	0.360	-0.400	0.790
2020/01/31 08:00:01.0	314.150	0.360	-0.400	0.770
2020/01/31 08:00:01.1	314.140	0.360	-0.390	0.750
2020/01/31 08:00:01.2	314.130	0.350	-0.380	0.730
2020/01/31 08:00:01.3	314.120	0.350	-0.370	0.710
2020/01/31 08:00:01.4	314.110	0.340	-0.360	0.680
2020/01/31 08:00:01.5	314.100	0.330	-0.350	0.660
2020/01/31 08:00:01.6	314.090	0.320	-0.330	0.630
2020/01/31 08:00:01.7	314.080	0.310	-0.320	0.600
2020/01/31 08:00:01.8	314.070	0.290	-0.300	0.580
2020/01/31 08:00:01.9	314.060	0.280	-0.280	0.550
2020/01/31 08:00:02.0	314.050	0.260	-0.250	0.520
2020/01/31 08:00:02.1	314.040	0.240	-0.230	0.490
2020/01/31 08:00:02.2	314.030	0.220	-0.200	0.460
2020/01/31 08:00:02.3	314.020	0.190	-0.170	0.430
2020/01/31 08:00:02.4	314.010	0.170	-0.140	0.400
2020/01/31 08:00:02.5	314.000	0.150	-0.110	0.360
2020/01/31 08:00:02.6	314.000	0.120	-0.080	0.330
2020/01/31 08:00:02.7	313.990	0.100	-0.050	0.300
2020/01/31 08:00:02.8	313.990	0.070	-0.020	0.260
2020/01/31 08:00:02.9	313.990	0.040	0.020	0.220
2020/01/31 08:00:03.0	313.990	0.020	0.050	0.180
2020/01/31 08:00:03.1	313.990	-0.010	0.080	0.140
2020/01/31 08:00:03.2	313.990	-0.040	0.110	0.100
2020/01/31 08:00:03.3	313.990	-0.070	0.140	0.060
2020/01/31 08:00:03.4	313.990	-0.090	0.160	0.020
2020/01/31 08:00:03.5	313.990	-0.120	0.180	-0.030
2020/01/31 08:00:03.6	314.000	-0.150	0.200	-0.070
2020/01/31 08:00:03.7	314.010	-0.170	0.220	-0.120
2020/01/31 08:00:03.8	314.020	-0.200	0.230	-0.170
2020/01/31 08:00:03.9	314.030	-0.220	0.250	-0.220
2020/01/31 08:00:04.0	314.040	-0.250	0.250	-0.270
2020/01/31 08:00:04.1	314.050	-0.270	0.260	-0.320
2020/01/31 08:00:04.2	314.070	-0.290	0.260	-0.370
2020/01/31 08:00:04.3	314.090	-0.320	0.250	-0.430
2020/01/31 08:00:04.4	314.100	-0.340	0.250	-0.480
2020/01/31 08:00:04.5	314.120	-0.350	0.240	-0.540
2020/01/31 08:00:04.6	314.140	-0.370	0.230	-0.600
2020/01/31 08:00:04.7	314.160	-0.390	0.210	-0.650
2020/01/31 08:00:04.8	314.180	-0.400	0.200	-0.700
2020/01/31 08:00:04.9	314.200	-0.410	0.180	-0.760
2020/01/31 08:00:05.0	314.230	-0.430	0.160	-0.810
2020/01/31 08:00:05.1	314.250	-0.440	0.140	-0.860
2020/01/31 08:00:05.2	314.270	-0.440	0.120	-0.900
2020/01/31 08:00:05.3	314.280	-0.450	0.100	-0.950
2020/01/31 08:00:05.4	314.310	-0.450	0.080	-0.990
2020/01/31 08:00:05.5	314.330	-0.460	0.060	-1.030
2020/01/31 08:00:05.6	314.350	-0.460	0.040	-1.060
2020/01/31 08:00:05.7	314.370	-0.460	0.020	-1.080
2020/01/31 08:00:05.8	314.380	-0.460	-0.000	-1.100
2020/01/31 08:00:05.9	314.400	-0.450	-0.020	-1.120
2020/01/31 08:00:06.0	314.410	-0.450	-0.030	-1.120
2020/01/31 08:00:06.1	314.420	-0.440	-0.040	-1.130
2020/01/31 08:00:06.2	314.430	-0.430	-0.050	-1.120
2020/01/31 08:00:06.3	314.440	-0.420	-0.060	-1.110
2020/01/31 08:00:06.4	314.440	-0.410	-0.070	-1.090
2020/01/31 08:00:06.5	314.440	-0.400	-0.070	-1.070
2020/01/31 08:00:06.6	314.440	-0.390	-0.080	-1.040
2020/01/31 08:00:06.7	314.440	-0.370	-0.080	-1.010
2020/01/31 08:00:06.8	314.430	-0.360	-0.080	-0.970
2020/01/31 08:00:06.9	314.420	-0.340	-0.080	-0.930
2020/01/31 08:00:07.0	314.410	-0.320	-0.080	-0.880
2020/01/31 08:00:07.1	314.400	-0.300	-0.080	-0.830
2020/01/31 08:00:07.2	314.390	-0.280	-0.080	-0.780
2020/01/31 08:00:07.3	314.380	-0.260	-0.080	-0.730
2020/01/31 08:00:07.4	314.360	-0.240	-0.090	-0.670
2020/01/31 08:00:07.5	314.350	-0.220	-0.090	-0.620
2020/01/31 08:00:07.6	314.340	-0.200	-0.100	-0.560
2020/01/31 08:00:07.7	314.320	-0.180	-0.110	-0.510
2020/01/31 08:00:07.8	314.310	-0.160	-0.120	-0.450
2020/01/31 08:00:07.9	314.300	-0.140	-0.130	-0.400
2020/01/31 08:00:08.0	314.280	-0.110	-0.150	-0.340
2020/01/31 08:00:08.1	314.270	-0.090	-0.160	-0.290
2020/01/31 08:00:08.2	314.260	-0.070	-0.180	-0.240
2020/01/31 08:00:08.3	314.250	-0.050	-0.200	-0.190
2020/01/31 08:00:08.4	314.240	-0.030	-0.220	-0.140
2020/01/31 08:00:08.5	314.230	-0.010	-0.240	-0.100
2020/01/31 08:00:08.6	314.230	0.010	-0.270	-0.050
2020/01/31 08:00:08.7	314.220	0.020	-0.300	-0.010
2020/01/31 08:00:08.8	314.220	0.040	-0.320	0.030
2020/01/31 08:00:08.9	314.220	0.060	-0.350	0.070
2020/01/31 08:00:09.0	314.220	0.070	-0.380	0.100
2020/01/31 08:00:09.1	314.220	0.080	-0.410	0.140
2020/01/31 08:00:09.2	314.220	0.100	-0.440	0.170
2020/01/31 08:00:09.3	314.220	0.110	-0.460	0.200
2020/01/31 08:00:09.4	314.230	0.120	-0.490	0.230
2020/01/31 08:00:09.5	314.230	0.130	-0.520	0.250
2020/01/31 08:00:09.6	314.240	0.130	-0.550	0.270
2020/01/31 08:00:09.7	314.250	0.140	-0.580	0.290
2020/01/31 08:00:09.8	314.260	0.150	-0.600	0.300
2020/01/31 08:00:09.9	314.270	0.150	-0.620	0.320
2020/01/31 08:00:10.0	314.280	0.150	-0.640	0.330
2020/01/31 08:00:10.1	314.290	0.150	-0.660	0.330
2020/01/31 08:00:10.2	314.300	0.150	-0.680	0.340
2020/01/31 08:00:10.3	314.330	0.150	-0.690	0.340
2020/01/31 08:00:10.4	314.340	0.150	-0.710	0.340
2020/01/31 08:00:10.5	314.350	0.150	-0.710	0.340
2020/01/31 08:00:10.6	314.360	0.150	-0.720	0.340
2020/01/31 08:00:10.7	314.370	0.140	-0.720	0.340
2020/01/31 08:00:10.8	314.380	0.140	-0.720	0.340
2020/01/31 08:00:10.9	314.390	0.130	-0.710	0.340
2020/01/31 08:00:11.0	314.400	0.120	-0.700	0.340
2020/01/31 08:00:11.1	314.400	0.120	-0.690	0.340
2020/01/31 08:00:11.2	314.410	0.110	-0.680	0.340
2020/01/31 08:00:11.3	314.420	0.100	-0.660	0.340
2020/01/31 08:00:11.4	314.420	0.100	-0.640	0.340
2020/01/31 08:00:11.5	314.420	0.090	-0.610	0.340
2020/01/31 08:00:11.6	314.420	0.080	-0.590	0.340
2020/01/31 08:00:11.7	314.410	0.070	-0.560	0.350
2020/01/31 08:00:11.8	314.410	0.070	-0.520	0.350
2020/01/31 08:00:11.9	314.400	0.060	-0.490	0.350
2020/01/31 08:00:12.0	314.390	0.060	-0.460	0.360
2020/01/31 08:00:12.1	314.380	0.050	-0.420	0.370
2020/01/31 08:00:12.2	314.360	0.050	-0.380	0.370
2020/01/31 08:00:12.3	314.340	0.040	-0.350	0.380
2020/01/31 08:00:12.4	314.320	0.040	-0.310	0.390
2020/01/31 08:00:12.5	314.310	0.040	-0.270	0.400
2020/01/31 08:00:12.6	314.280	0.040	-0.240	0.410
2020/01/31 08:00:12.7	314.260	0.040	-0.210	0.420
2020/01/31 08:00:12.8	314.240	0.040	-0.170	0.430
2020/01/31 08:00:12.9	314.220	0.040	-0.140	0.440
2020/01/31 08:00:13.0	314.190	0.040	-0.120	0.450
2020/01/31 08:00:13.1	314.170	0.050	-0.090	0.460
2020/01/31 08:00:13.2	314.150	0.050	-0.070	0.460
2020/01/31 08:00:13.3	314.140	0.050	-0.060	0.470
2020/01/31 08:00:13.4	314.120	0.060	-0.040	0.470
2020/01/31 08:00:13.5	314.100	0.070	-0.030	0.470
2020/01/31 08:00:13.6	314.080	0.070	-0.030	0.470
2020/01/31 08:00:13.7	314.060	0.080	-0.030	0.470
2020/01/31 08:00:13.8	314.050	0.080	-0.030	0.460
2020/01/31 08:00:13.9	314.040	0.090	-0.040	0.450
2020/01/31 08:00:14.0	314.030	0.100	-0.050	0.440
2020/01/31 08:00:14.1	314.020	0.100	-0.060	0.430
2020/01/31 08:00:14.2	314.020	0.110	-0.080	0.410
2020/01/31 08:00:14.3	314.010	0.110	-0.100	0.390
2020/01/31 08:00:14.4	314.010	0.120	-0.130	0.370
2020/01/31 08:00:14.5	314.010	0.120	-0.150	0.350
2020/01/31 08:00:14.6	314.010	0.130	-0.170	0.330
2020/01/31 08:00:14.7	314.010	0.130	-0.200	0.300
2020/01/31 08:00:14.8	314.020	0.130	-0.230	0.280
2020/01/31 08:00:14.9	314.030	0.140	-0.250	0.250
2020/01/31 08:00:15.0	314.040	0.140	-0.280	0.220
2020/01/31 08:00:15.1	314.050	0.140	-0.300	0.200
2020/01/31 08:00:15.2	314.060	0.140	-0.320	0.170
2020/01/31 08:00:15.3	314.060	0.140	-0.340	0.140
2020/01/31 08:00:15.4	314.080	0.140	-0.360	0.110
2020/01/31 08:00:15.5	314.090	0.130	-0.380	0.090
2020/01/31 08:00:15.6	314.110	0.130	-0.390	0.060
2020/01/31 08:00:15.7	314.120	0.130	-0.400	0.040
2020/01/31 08:00:15.8	314.140	0.120	-0.410	0.010
2020/01/31 08:00:15.9	314.160	0.120	-0.420	-0.020
2020/01/31 08:00:16.0	314.180	0.110	-0.420	-0.040
2020/01/31 08:00:16.1	314.200	0.100	-0.420	-0.070
2020/01/31 08:00:16.2	314.220	0.100	-0.420	-0.090
2020/01/31 08:00:16.3	314.240	0.090	-0.420	-0.120
2020/01/31 08:00:16.4	314.260	0.080	-0.420	-0.150
2020/01/31 08:00:16.5	314.280	0.070	-0.410	-0.180
2020/01/31 08:00:16.6	314.310	0.060	-0.400	-0.200
2020/01/31 08:00:16.7	314.330	0.050	-0.400	-0.230
2020/01/31 08:00:16.8	314.350	0.040	-0.380	-0.260
2020/01/31 08:00:16.9	314.370	0.030	-0.370	-0.280
2020/01/31 08:00:17.0	314.400	0.020	-0.360	-0.310
2020/01/31 08:00:17.1	314.420	0.010	-0.350	-0.330
2020/01/31 08:00:17.2	314.440	0.000	-0.330	-0.360
2020/01/31 08:00:17.3	314.450	-0.010	-0.320	-0.390
2020/01/31 08:00:17.4	314.470	-0.020	-0.300	-0.410
2020/01/31 08:00:17.5	314.490	-0.030	-0.280	-0.440
2020/01/31 08:00:17.6	314.510	-0.040	-0.270	-0.460
2020/01/31 08:00:17.7	314.530	-0.050	-0.250	-0.480
2020/01/31 08:00:17.8	314.550	-0.060	-0.230	-0.500
2020/01/31 08:00:17.9	314.570	-0.070	-0.210	-0.520
2020/01/31 08:00:18.0	314.590	-0.080	-0.190	-0.530
2020/01/31 08:00:18.1	314.600	-0.090	-0.170	-0.550
2020/01/31 08:00:18.2	314.620	-0.100	-0.150	-0.560
2020/01/31 08:00:18.3	314.620	-0.110	-0.130	-0.570
2020/01/31 08:00:18.4	314.640	-0.120	-0.110	-0.580
2020/01/31 08:00:18.5	314.650	-0.130	-0.090	-0.590
2020/01/31 08:00:18.6	314.660	-0.140	-0.070	-0.590
2020/01/31 08:00:18.7	314.670	-0.150	-0.050	-0.600
2020/01/31 08:00:18.8	314.680	-0.160	-0.030	-0.590
2020/01/31 08:00:18.9	314.680	-0.170	-0.010	-0.590
2020/01/31 08:00:19.0	314.690	-0.180	0.010	-0.590
2020/01/31 08:00:19.1	314.690	-0.190	0.040	-0.580
2020/01/31 08:00:19.2	314.700	-0.200	0.060	-0.570
2020/01/31 08:00:19.3	314.690	-0.210	0.080	-0.550
2020/01/31 08:00:19.4	314.680	-0.210	0.100	-0.530
2020/01/31 08:00:19.5	314.680	-0.220	0.130	-0.510
2020/01/31 08:00:19.6	314.680	-0.230	0.150	-0.490
2020/01/31 08:00:19.7	314.670	-0.230	0.170	-0.460
2020/01/31 08:00:19.8	314.660	-0.240	0.200	-0.430
2020/01/31 08:00:19.9	314.650	-0.240	0.220	-0.400
2020/01/31 08:00:20.0	314.640	-0.250	0.240	-0.370
2020/01/31 08:00:20.1	314.630	-0.250	0.270	-0.330
2020/01/31 08:00:20.2	314.620	-0.250	0.290	-0.290
2020/01/31 08:00:20.3	314.600	-0.250	0.310	-0.260
2020/01/31 08:00:20.4	314.580	-0.250	0.330	-0.220
2020/01/31 08:00:20.5	314.570	-0.250	0.340	-0.180
2020/01/31 08:00:20.6	314.550	-0.240	0.350	-0.130
2020/01/31 08:00:20.7	314.540	-0.240	0.360	-0.090
2020/01/31 08:00:20.8	314.520	-0.230	0.370	-0.050
2020/01/31 08:00:20.9	314.500	-0.220	0.380	-0.010
2020/01/31 08:00:21.0	314.480	-0.220	0.380	0.020
2020/01/31 08:00:21.1	314.470	-0.210	0.370	0.060
2020/01/31 08:00:21.2	314.450	-0.190	0.360	0.100
2020/01/31 08:00:21.3	314.450	-0.180	0.360	0.130
2020/01/31 08:00:21.4	314.430	-0.170	0.340	0.170
2020/01/31 08:00:21.5	314.410	-0.150	0.320	0.200
2020/01/31 08:00:21.6	314.390	-0.140	0.300	0.230
2020/01/31 08:00:21.7	314.380	-0.120	0.270	0.250
2020/01/31 08:00:21.8	314.360	-0.100	0.240	0.280
2020/01/31 08:00:21.9	314.340	-0.080	0.210	0.300
2020/01/31 08:00:22.0	314.330	-0.060	0.170	0.320
2020/01/31 08:00:22.1	314.310	-0.040	0.140	0.340
2020/01/31 08:00:22.2	314.300	-0.020	0.090	0.350
2020/01/31 08:00:22.3	314.280	0.000	0.050	0.370
2020/01/31 08:00:22.4	314.270	0.020	0.000	0.380
2020/01/31 08:00:22.5	314.260	0.050	-0.040	0.390
2020/01/31 08:00:22.6	314.240	0.070	-0.090	0.390
2020/01/31 08:00:22.7	314.230	0.090	-0.140	0.400
2020/01/31 08:00:22.8	314.220	0.120	-0.180	0.400
2020/01/31 08:00:22.9	314.210	0.140	-0.230	0.400
2020/01/31 08:00:23.0	314.190	0.160	-0.280	0.410
2020/01/31 08:00:23.1	314.180	0.180	-0.320	0.400
2020/01/31 08:00:23.2	314.170	0.200	-0.370	0.400
2020/01/31 08:00:23.3	314.160	0.220	-0.410	0.400
2020/01/31 08:00:23.4	314.150	0.240	-0.450	0.400
2020/01/31 08:00:23.5	314.130	0.260	-0.490	0.400
2020/01/31 08:00:23.6	314.120	0.280	-0.520	0.400
2020/01/31 08:00:23.7	314.110	0.290	-0.560	0.390
2020/01/31 08:00:23.8	314.090	0.310	-0.590	0.390
2020/01/31 08:00:23.9	314.080	0.320	-0.620	0.390
2020/01/31 08:00:24.0	314.070	0.330	-0.640	0.380
2020/01/31 08:00:24.1	314.050	0.340	-0.670	0.380
2020/01/31 08:00:24.2	314.040	0.350	-0.690	0.370
2020/01/31 08:00:24.3	314.030	0.350	-0.710	0.370
2020/01/31 08:00:24.4	314.020	0.350	-0.730	0.360
2020/01/31 08:00:24.5	314.010	0.360	-0.760	0.350
2020/01/31 08:00:24.6	314.000	0.360	-0.780	0.340
2020/01/31 08:00:24.7	313.990	0.360	-0.800	0.330
2020/01/31 08:00:24.8	313.980	0.350	-0.820	0.310
2020/01/31 08:00:24.9	313.970	0.350	-0.840	0.300
2020/01/31 08:00:25.0	313.970	0.340	-0.860	0.280
2020/01/31 08:00:25.1	313.970	0.340	-0.880	0.250
2020/01/31 08:00:25.2	313.970	0.330	-0.900	0.230
2020/01/31 08:00:25.3	313.950	0.320	-0.930	0.200
2020/01/31 08:00:25.4	313.960	0.310	-0.950	0.170
2020/01/31 08:00:25.5	313.960	0.300	-0.970	0.140
2020/01/31 08:00:25.6	313.970	0.290	-0.990	0.100
2020/01/31 08:00:25.7	313.980	0.280	-1.010	0.070
2020/01/31 08:00:25.8	314.000	0.270	-1.030	0.030
2020/01/31 08:00:25.9	314.010	0.250	-1.050	-0.010
2020/01/31 08:00:26.0	314.030	0.240	-1.070	-0.050
2020/01/31 08:00:26.1	314.050	0.230	-1.080	-0.090
2020/01/31 08:00:26.2	314.070	0.210	-1.100	-0.130
2020/01/31 08:00:26.3	314.080	0.200	-1.100	-0.180
2020/01/31 08:00:26.4	314.110	0.190	-1.110	-0.220
2020/01/31 08:00:26.5	314.130	0.170	-1.110	-0.260
2020/01/31 08:00:26.6	314.150	0.160	-1.110	-0.300
2020/01/31 08:00:26.7	314.180	0.140	-1.100	-0.330
2020/01/31 08:00:26.8	314.200	0.130	-1.090	-0.370
2020/01/31 08:00:26.9	314.230	0.110	-1.070	-0.400
2020/01/31 08:00:27.0	314.250	0.090	-1.050	-0.430
2020/01/31 08:00:27.1	314.270	0.080	-1.020	-0.460
2020/01/31 08:00:27.2	314.300	0.060	-0.990	-0.480
2020/01/31 08:00:27.3	314.330	0.040	-0.950	-0.510
2020/01/31 08:00:27.4	314.350	0.020	-0.910	-0.520
2020/01/31 08:00:27.5	314.370	0.000	-0.860	-0.540
2020/01/31 08:00:27.6	314.390	-0.020	-0.810	-0.550
2020/01/31 08:00:27.7	314.410	-0.040	-0.750	-0.570
2020/01/31 08:00:27.8	314.430	-0.070	-0.700	-0.570
2020/01/31 08:00:27.9	314.450	-0.090	-0.630	-0.580
2020/01/31 08:00:28.0	314.460	-0.120	-0.570	-0.580
2020/01/31 08:00:28.1	314.480	-0.150	-0.510	-0.580
2020/01/31 08:00:28.2	314.500	-0.180	-0.440	-0.590
2020/01/31 08:00:28.3	314.510	-0.210	-0.370	-0.580
2020/01/31 08:00:28.4	314.530	-0.240	-0.300	-0.580
2020/01/31 08:00:28.5	314.550	-0.270	-0.230	-0.580
2020/01/31 08:00:28.6	314.570	-0.300	-0.170	-0.570
2020/01/31 08:00:28.7	314.580	-0.330	-0.100	-0.570
2020/01/31 08:00:28.8	314.600	-0.370	-0.040	-0.570
2020/01/31 08:00:28.9	314.620	-0.400	0.030	-0.570
2020/01/31 08:00:29.0	314.640	-0.430	0.090	-0.560
2020/01/31 08:00:29.1	314.660	-0.470	0.150	-0.560
2020/01/31 08:00:29.2	314.680	-0.500	0.210	-0.560
2020/01/31 08:00:29.3	314.700	-0.530	0.260	-0.550
2020/01/31 08:00:29.4	314.720	-0.560	0.310	-0.550
2020/01/31 08:00:29.5	314.740	-0.590	0.360	-0.540
2020/01/31 08:00:29.6	314.750	-0.620	0.410	-0.540
2020/01/31 08:00:29.7	314.770	-0.640	0.450	-0.530
2020/01/31 08:00:29.8	314.790	-0.670	0.490	-0.530
2020/01/31 08:00:29.9	314.800	-0.690	0.520	-0.520
2020/01/31 08:00:30.0	314.820	-0.710	0.550	-0.510
2020/01/31 08:00:30.1	314.830	-0.730	0.580	-0.500
2020/01/31 08:00:30.2	314.840	-0.740	0.610	-0.480
2020/01/31 08:00:30.3	314.860	-0.760	0.630	-0.470
2020/01/31 08:00:30.4	314.870	-0.770	0.650	-0.450
2020/01/31 08:00:30.5	314.870	-0.770	0.670	-0.430
2020/01/31 08:00:30.6	314.860	-0.780	0.690	-0.410
2020/01/31 08:00:30.7	314.860	-0.780	0.700	-0.380
2020/01/31 08:00:30.8	314.850	-0.780	0.720	-0.350
2020/01/31 08:00:30.9	314.840	-0.780	0.730	-0.320
2020/01/31 08:00:31.0	314.820	-0.770	0.730	-0.280
2020/01/31 08:00:31.1	314.800	-0.760	0.740	-0.240
2020/01/31 08:00:31.2	314.780	-0.740	0.740	-0.200
2020/01/31 08:00:31.3	314.740	-0.730	0.740	-0.160
2020/01/31 08:00:31.4	314.720	-0.710	0.740	-0.120
2020/01/31 08:00:31.5	314.690	-0.680	0.740	-0.080
2020/01/31 08:00:31.6	314.660	-0.660	0.730	-0.030
2020/01/31 08:00:31.7	314.630	-0.630	0.730	0.010
2020/01/31 08:00:31.8	314.600	-0.590	0.710	0.060
2020/01/31 08:00:31.9	314.570	-0.560	0.700	0.100
2020/01/31 08:00:32.0	314.540	-0.520	0.680	0.150
2020/01/31 08:00:32.1	314.510	-0.480	0.660	0.190
2020/01/31 08:00:32.2	314.480	-0.440	0.640	0.240
2020/01/31 08:00:32.3	314.450	-0.390	0.620	0.280
2020/01/31 08:00:32.4	314.430	-0.350	0.590	0.320
2020/01/31 08:00:32.5	314.400	-0.300	0.550	0.350
2020/01/31 08:00:32.6	314.370	-0.250	0.520	0.390
2020/01/31 08:00:32.7	314.350	-0.200	0.480	0.420
2020/01/31 08:00:32.8	314.330	-0.150	0.430	0.450
2020/01/31 08:00:32.9	314.300	-0.090	0.390	0.480
2020/01/31 08:00:33.0	314.280	-0.040	0.340	0.500
2020/01/31 08:00:33.1	314.260	0.010	0.290	0.520
2020/01/31 08:00:33.2	314.240	0.060	0.230	0.540
2020/01/31 08:00:33.3	314.230	0.110	0.180	0.550
2020/01/31 08:00:33.4	314.210	0.160	0.120	0.570
2020/01/31 08:00:33.5	314.190	0.210	0.060	0.580
2020/01/31 08:00:33.6	314.170	0.260	0.000	0.590
2020/01/31 08:00:33.7	314.160	0.310	-0.060	0.590
2020/01/31 08:00:33.8	314.140	0.350	-0.120	0.590
2020/01/31 08:00:33.9	314.120	0.400	-0.180	0.600
2020/01/31 08:00:34.0	314.110	0.440	-0.240	0.590
2020/01/31 08:00:34.1	314.090	0.480	-0.300	0.590
2020/01/31 08:00:34.2	314.080	0.520	-0.360	0.590
2020/01/31 08:00:34.3	314.060	0.560	-0.420	0.580
2020/01/31 08:00:34.4	314.050	0.590	-0.480	0.570
2020/01/31 08:00:34.5	314.030	0.620	-0.530	0.560
2020/01/31 08:00:34.6	314.020	0.650	-0.590	0.550
2020/01/31 08:00:34.7	314.010	0.680	-0.640	0.530
2020/01/31 08:00:34.8	314.000	0.710	-0.690	0.520
2020/01/31 08:00:34.9	314.000	0.730	-0.740	0.500
2020/01/31 08:00:35.0	313.990	0.760	-0.790	0.480
2020/01/31 08:00:35.1	313.980	0.780	-0.840	0.460
2020/01/31 08:00:35.2	313.980	0.800	-0.880	0.440
2020/01/31 08:00:35.3	313.990	0.820	-0.920	0.420
2020/01/31 08:00:35.4	313.980	0.830	-0.950	0.400
2020/01/31 08:00:35.5	313.980	0.850	-0.990	0.380
2020/01/31 08:00:35.6	313.980	0.860	-1.020	0.360
2020/01/31 08:00:35.7	313.970	0.880	-1.050	0.340
2020/01/31 08:00:35.8	313.970	0.890	-1.080	0.320
2020/01/31 08:00:35.9	313.970	0.900	-1.100	0.300
2020/01/31 08:00:36.0	313.980	0.900	-1.120	0.280
2020/01/31 08:00:36.1	313.980	0.910	-1.140	0.260
2020/01/31 08:00:36.2	313.980	0.910	-1.150	0.230
2020/01/31 08:00:36.3	313.990	0.910	-1.170	0.210
2020/01/31 08:00:36.4	313.990	0.910	-1.180	0.190
2020/01/31 08:00:36.5	314.000	0.910	-1.190	0.170
2020/01/31 08:00:36.6	314.010	0.910	-1.190	0.140
2020/01/31 08:00:36.7	314.020	0.900	-1.190	0.120
2020/01/31 08:00:36.8	314.030	0.890	-1.190	0.100
2020/01/31 08:00:36.9	314.040	0.880	-1.190	0.070
2020/01/31 08:00:37.0	314.050	0.870	-1.180	0.050
2020/01/31 08:00:37.1	314.070	0.850	-1.170	0.030
2020/01/31 08:00:37.2	314.080	0.830	-1.160	0.000
2020/01/31 08:00:37.3	314.090	0.810	-1.140	-0.030
2020/01/31 08:00:37.4	314.100	0.790	-1.120	-0.050
2020/01/31 08:00:37.5	314.110	0.760	-1.100	-0.070
2020/01/31 08:00:37.6	314.130	0.730	-1.070	-0.100
2020/01/31 08:00:37.7	314.140	0.700	-1.040	-0.120
2020/01/31 08:00:37.8	314.160	0.670	-1.010	-0.150
2020/01/31 08:00:37.9	314.170	0.630	-0.980	-0.170
2020/01/31 08:00:38.0	314.190	0.600	-0.940	-0.200
2020/01/31 08:00:38.1	314.200	0.560	-0.900	-0.230
2020/01/31 08:00:38.2	314.220	0.510	-0.860	-0.250
2020/01/31 08:00:38.3	314.230	0.470	-0.820	-0.280
2020/01/31 08:00:38.4	314.250	0.420	-0.770	-0.300
2020/01/31 08:00:38.5	314.260	0.380	-0.720	-0.330
2020/01/31 08:00:38.6	314.280	0.330	-0.670	-0.360
2020/01/31 08:00:38.7	314.300	0.280	-0.620	-0.390
2020/01/31 08:00:38.8	314.310	0.220	-0.560	-0.410
2020/01/31 08:00:38.9	314.330	0.170	-0.510	-0.440
2020/01/31 08:00:39.0	314.340	0.120	-0.450	-0.460
2020/01/31 08:00:39.1	314.360	0.060	-0.390	-0.490
2020/01/31 08:00:39.2	314.370	0.010	-0.330	-0.520
2020/01/31 08:00:39.3	314.380	-0.050	-0.270	-0.540
2020/01/31 08:00:39.4	314.400	-0.100	-0.210	-0.570
2020/01/31 08:00:39.5	314.410	-0.160	-0.150	-0.590
2020/01/31 08:00:39.6	314.420	-0.210	-0.100	-0.610
2020/01/31 08:00:39.7	314.430	-0.270	-0.040	-0.640
2020/01/31 08:00:39.8	314.450	-0.320	0.020	-0.660
2020/01/31 08:00:39.9	314.460	-0.370	0.070	-0.680
2020/01/31 08:00:40.0	314.470	-0.430	0.120	-0.700
2020/01/31 08:00:40.1	314.470	-0.480	0.170	-0.720
2020/01/31 08:00:40.2	314.480	-0.520	0.220	-0.740
2020/01/31 08:00:40.3	314.500	-0.570	0.270	-0.750
2020/01/31 08:00:40.4	314.500	-0.610	0.310	-0.770
2020/01/31 08:00:40.5	314.510	-0.660	0.350	-0.780
2020/01/31 08:00:40.6	314.510	-0.700	0.390	-0.790
2020/01/31 08:00:40.7	314.510	-0.730	0.420	-0.790
2020/01/31 08:00:40.8	314.510	-0.770	0.460	-0.800
2020/01/31 08:00:40.9	314.520	-0.800	0.480	-0.800
2020/01/31 08:00:41.0	314.520	-0.830	0.510	-0.800
2020/01/31 08:00:41.1	314.520	-0.860	0.530	-0.800
2020/01/31 08:00:41.2	314.520	-0.880	0.550	-0.800
2020/01/31 08:00:41.3	314.530	-0.910	0.560	-0.800
2020/01/31 08:00:41.4	314.530	-0.920	0.570	-0.790
2020/01/31 08:00:41.5	314.530	-0.940	0.580	-0.780
2020/01/31 08:00:41.6	314.530	-0.950	0.580	-0.770
2020/01/31 08:00:41.7	314.530	-0.960	0.580	-0.760
2020/01/31 08:00:41.8	314.530	-0.970	0.580	-0.750
2020/01/31 08:00:41.9	314.530	-0.970	0.570	-0.740
2020/01/31 08:00:42.0	314.530	-0.970	0.560	-0.720
2020/01/31 08:00:42.1	314.530	-0.970	0.540	-0.710
2020/01/31 08:00:42.2	314.530	-0.970	0.530	-0.690
2020/01/31 08:00:42.3	314.520	-0.960	0.510	-0.670
2020/01/31 08:00:42.4	314.520	-0.950	0.480	-0.640
2020/01/31 08:00:42.5	314.520	-0.940	0.460	-0.620
2020/01/31 08:00:42.6	314.520	-0.920	0.430	-0.590
2020/01/31 08:00:42.7	314.520	-0.900	0.400	-0.560
2020/01/31 08:00:42.8	314.510	-0.880	0.370	-0.530
2020/01/31 08:00:42.9	314.510	-0.860	0.340	-0.500
2020/01/31 08:00:43.0	314.510	-0.840	0.300	-0.460
2020/01/31 08:00:43.1	314.510	-0.810	0.270	-0.430
2020/01/31 08:00:43.2	314.500	-0.780	0.240	-0.390
2020/01/31 08:00:43.3	314.500	-0.750	0.200	-0.350
2020/01/31 08:00:43.4	314.500	-0.720	0.170	-0.310
2020/01/31 08:00:43.5	314.490	-0.690	0.130	-0.270
2020/01/31 08:00:43.6	314.480	-0.650	0.100	-0.230
2020/01/31 08:00:43.7	314.480	-0.620	0.070	-0.190
2020/01/31 08:00:43.8	314.470	-0.580	0.030	-0.150
2020/01/31 08:00:43.9	314.450	-0.540	0.000	-0.100
2020/01/31 08:00:44.0	314.440	-0.500	-0.030	-0.060
2020/01/31 08:00:44.1	314.430	-0.460	-0.060	-0.020
2020/01/31 08:00:44.2	314.420	-0.420	-0.090	0.030
2020/01/31 08:00:44.3	314.410	-0.380	-0.110	0.070
2020/01/31 08:00:44.4	314.400	-0.340	-0.140	0.110
2020/01/31 08:00:44.5	314.380	-0.300	-0.170	0.150
2020/01/31 08:00:44.6	314.370	-0.260	-0.190	0.200
2020/01/31 08:00:44.7	314.350	-0.220	-0.220	0.240
2020/01/31 08:00:44.8	314.330	-0.170	-0.240	0.280
2020/01/31 08:00:44.9	314.320	-0.130	-0.270	0.320
2020/01/31 08:00:45.0	314.300	-0.090	-0.290	0.350
2020/01/31 08:00:45.1	314.290	-0.050	-0.310	0.390
2020/01/31 08:00:45.2	314.280	-0.010	-0.340	0.420
2020/01/31 08:00:45.3	314.260	0.030	-0.360	0.450
2020/01/31 08:00:45.4	314.250	0.070	-0.380	0.480
2020/01/31 08:00:45.5	314.240	0.110	-0.400	0.510
2020/01/31 08:00:45.6	314.230	0.150	-0.420	0.540
2020/01/31 08:00:45.7	314.220	0.190	-0.440	0.560
2020/01/31 08:00:45.8	314.210	0.220	-0.460	0.580
2020/01/31 08:00:45.9	314.200	0.260	-0.480	0.600
2020/01/31 08:00:46.0	314.190	0.290	-0.500	0.620
2020/01/31 08:00:46.1	314.180	0.320	-0.520	0.630
2020/01/31 08:00:46.2	314.170	0.350	-0.530	0.650
2020/01/31 08:00:46.3	314.170	0.380	-0.540	0.660
2020/01/31 08:00:46.4	314.160	0.410	-0.560	0.670
2020/01/31 08:00:46.5	314.150	0.430	-0.570	0.680
2020/01/31 08:00:46.6	314.140	0.450	-0.570	0.680
2020/01/31 08:00:46.7	314.130	0.470	-0.580	0.690
2020/01/31 08:00:46.8	314.120	0.490	-0.590	0.690
2020/01/31 08:00:46.9	314.120	0.510	-0.590	0.690
2020/01/31 08:00:47.0	314.110	0.530	-0.590	0.690
2020/01/31 08:00:47.1	314.100	0.540	-0.580	0.690
2020/01/31 08:00:47.2	314.090	0.550	-0.580	0.690
2020/01/31 08:00:47.3	314.070	0.560	-0.570	0.690
2020/01/31 08:00:47.4	314.060	0.570	-0.560	0.680
2020/01/31 08:00:47.5	314.050	0.570	-0.550	0.670
2020/01/31 08:00:47.6	314.040	0.580	-0.540	0.670
2020/01/31 08:00:47.7	314.030	0.580	-0.530	0.660
2020/01/31 08:00:47.8	314.020	0.580	-0.510	0.650
2020/01/31 08:00:47.9	314.000	0.580	-0.500	0.640
2020/01/31 08:00:48.0	313.990	0.580	-0.480	0.630
2020/01/31 08:00:48.1	313.980	0.580	-0.460	0.620
2020/01/31 08:00:48.2	313.970	0.580	-0.450	0.600
2020/01/31 08:00:48.3	313.950	0.570	-0.430	0.590
2020/01/31 08:00:48.4	313.940	0.570	-0.410	0.570
2020/01/31 08:00:48.5	313.930	0.560	-0.400	0.560
2020/01/31 08:00:48.6	313.920	0.560	-0.380	0.540
2020/01/31 08:00:48.7	313.920	0.550	-0.370	0.520
2020/01/31 08:00:48.8	313.910	0.550	-0.360	0.500
2020/01/31 08:00:48.9	313.910	0.540	-0.350	0.480
2020/01/31 08:00:49.0	313.900	0.540	-0.350	0.460
2020/01/31 08:00:49.1	313.900	0.530	-0.350	0.440
2020/01/31 08:00:49.2	313.900	0.530	-0.350	0.420
2020/01/31 08:00:49.3	313.900	0.530	-0.340	0.400
2020/01/31 08:00:49.4	313.900	0.530	-0.350	0.370
2020/01/31 08:00:49.5	313.910	0.520	-0.360	0.350
2020/01/31 08:00:49.6	313.910	0.520	-0.370	0.320
2020/01/31 08:00:49.7	313.920	0.520	-0.380	0.290
2020/01/31 08:00:49.8	313.930	0.520	-0.400	0.270
2020/01/31 08:00:49.9	313.940	0.520	-0.410	0.240
2020/01/31 08:00:50.0	313.950	0.530	-0.430	0.210
2020/01/31 08:00:50.1	313.970	0.530	-0.450	0.180
2020/01/31 08:00:50.2	313.980	0.530	-0.480	0.140
2020/01/31 08:00:50.3	314.000	0.530	-0.500	0.110
2020/01/31 08:00:50.4	314.020	0.530	-0.530	0.070
2020/01/31 08:00:50.5	314.040	0.530	-0.560	0.040
2020/01/31 08:00:50.6	314.060	0.540	-0.580	-0.000
2020/01/31 08:00:50.7	314.090	0.540	-0.610	-0.040
2020/01/31 08:00:50.8	314.110	0.540	-0.630	-0.080
2020/01/31 08:00:50.9	314.140	0.540	-0.650	-0.120
2020/01/31 08:00:51.0	314.170	0.530	-0.680	-0.150
2020/01/31 08:00:51.1	314.200	0.530	-0.700	-0.190
2020/01/31 08:00:51.2	314.230	0.530	-0.720	-0.230
2020/01/31 08:00:51.3	314.270	0.520	-0.730	-0.270
2020/01/31 08:00:51.4	314.300	0.510	-0.740	-0.300
2020/01/31 08:00:51.5	314.330	0.500	-0.750	-0.340
2020/01/31 08:00:51.6	314.370	0.490	-0.760	-0.370
2020/01/31 08:00:51.7	314.400	0.470	-0.760	-0.400
2020/01/31 08:00:51.8	314.440	0.450	-0.760	-0.430
2020/01/31 08:00:51.9	314.470	0.430	-0.750	-0.460
2020/01/31 08:00:52.0	314.510	0.410	-0.740	-0.480
2020/01/31 08:00:52.1	314.540	0.390	-0.720	-0.510
2020/01/31 08:00:52.2	314.570	0.360	-0.700	-0.530
2020/01/31 08:00:52.3	314.600	0.330	-0.670	-0.550
2020/01/31 08:00:52.4	314.630	0.300	-0.640	-0.570
2020/01/31 08:00:52.5	314.670	0.260	-0.600	-0.580
2020/01/31 08:00:52.6	314.690	0.230	-0.560	-0.590
2020/01/31 08:00:52.7	314.720	0.190	-0.520	-0.600
2020/01/31 08:00:52.8	314.750	0.150	-0.470	-0.610
2020/01/31 08:00:52.9	314.770	0.110	-0.410	-0.610
2020/01/31 08:00:53.0	314.790	0.070	-0.350	-0.620
2020/01/31 08:00:53.1	314.810	0.020	-0.290	-0.610
2020/01/31 08:00:53.2	314.820	-0.020	-0.230	-0.610
2020/01/31 08:00:53.3	314.840	-0.060	-0.160	-0.600
2020/01/31 08:00:53.4	314.850	-0.110	-0.090	-0.590
2020/01/31 08:00:53.5	314.850	-0.150	-0.010	-0.570
2020/01/31 08:00:53.6	314.860	-0.190	0.060	-0.560
2020/01/31 08:00:53.7	314.860	-0.240	0.130	-0.540
2020/01/31 08:00:53.8	314.860	-0.280	0.210	-0.520
2020/01/31 08:00:53.9	314.860	-0.320	0.280	-0.490
2020/01/31 08:00:54.0	314.850	-0.360	0.350	-0.470
2020/01/31 08:00:54.1	314.840	-0.390	0.420	-0.440
2020/01/31 08:00:54.2	314.830	-0.430	0.490	-0.410
2020/01/31 08:00:54.3	314.810	-0.460	0.560	-0.380
2020/01/31 08:00:54.4	314.790	-0.490	0.620	-0.350
2020/01/31 08:00:54.5	314.780	-0.520	0.680	-0.320
2020/01/31 08:00:54.6	314.760	-0.540	0.730	-0.300
2020/01/31 08:00:54.7	314.740	-0.570	0.770	-0.270
2020/01/31 08:00:54.8	314.720	-0.590	0.810	-0.250
2020/01/31 08:00:54.9	314.700	-0.600	0.850	-0.220
2020/01/31 08:00:55.0	314.680	-0.610	0.870	-0.200
2020/01/31 08:00:55.1	314.650	-0.630	0.890	-0.180
2020/01/31 08:00:55.2	314.630	-0.630	0.910	-0.160
2020/01/31 08:00:55.3	314.600	-0.640	0.910	-0.150
2020/01/31 08:00:55.4	314.570	-0.640	0.910	-0.140
2020/01/31 08:00:55.5	314.550	-0.640	0.900	-0.130
2020/01/31 08:00:55.6	314.520	-0.630	0.880	-0.120
2020/01/31 08:00:55.7	314.500	-0.630	0.860	-0.110
2020/01/31 08:00:55.8	314.470	-0.620	0.830	-0.110
2020/01/31 08:00:55.9	314.450	-0.610	0.800	-0.110
2020/01/31 08:00:56.0	314.420	-0.600	0.760	-0.110
2020/01/31 08:00:56.1	314.390	-0.590	0.710	-0.120
2020/01/31 08:00:56.2	314.370	-0.570	0.660	-0.120
2020/01/31 08:00:56.3	314.340	-0.560	0.610	-0.130
2020/01/31 08:00:56.4	314.310	-0.540	0.560	-0.140
2020/01/31 08:00:56.5	314.280	-0.520	0.500	-0.140
2020/01/31 08:00:56.6	314.250	-0.510	0.440	-0.150
2020/01/31 08:00:56.7	314.220	-0.490	0.380	-0.160
2020/01/31 08:00:56.8	314.190	-0.470	0.320	-0.160
2020/01/31 08:00:56.9	314.150	-0.450	0.260	-0.170
2020/01/31 08:00:57.0	314.120	-0.430	0.200	-0.170
2020/01/31 08:00:57.1	314.080	-0.410	0.140	-0.170
2020/01/31 08:00:57.2	314.040	-0.390	0.080	-0.170
2020/01/31 08:00:57.3	314.010	-0.380	0.020	-0.170
2020/01/31 08:00:57.4	313.970	-0.360	-0.030	-0.160
2020/01/31 08:00:57.5	313.930	-0.340	-0.080	-0.160
2020/01/31 08:00:57.6	313.890	-0.320	-0.130	-0.150
2020/01/31 08:00:57.7	313.850	-0.300	-0.180	-0.140
2020/01/31 08:00:57.8	313.810	-0.290	-0.220	-0.140
2020/01/31 08:00:57.9	313.770	-0.270	-0.260	-0.130
2020/01/31 08:00:58.0	313.730	-0.260	-0.310	-0.120
2020/01/31 08:00:58.1	313.690	-0.240	-0.340	-0.110
2020/01/31 08:00:58.2	313.650	-0.230	-0.380	-0.090
2020/01/31 08:00:58.3	313.620	-0.210	-0.420	-0.080
2020/01/31 08:00:58.4	313.590	-0.200	-0.450	-0.070
2020/01/31 08:00:58.5	313.550	-0.180	-0.490	-0.060
2020/01/31 08:00:58.6	313.520	-0.170	-0.520	-0.050
2020/01/31 08:00:58.7	313.490	-0.150	-0.560	-0.040
2020/01/31 08:00:58.8	313.470	-0.140	-0.590	-0.030
2020/01/31 08:00:58.9	313.440	-0.120	-0.630	-0.020
2020/01/31 08:00:59.0	313.420	-0.110	-0.660	-0.020
2020/01/31 08:00:59.1	313.400	-0.090	-0.700	-0.010
2020/01/31 08:00:59.2	313.380	-0.080	-0.730	-0.000
2020/01/31 08:00:59.3	313.370	-0.060	-0.760	0.000
2020/01/31 08:00:59.4	313.360	-0.050	-0.800	0.010
2020/01/31 08:00:59.5	313.350	-0.030	-0.830	0.010
2020/01/31 08:00:59.6	313.340	-0.020	-0.870	0.010
2020/01/31 08:00:59.7	313.340	-0.000	-0.900	0.000
2020/01/31 08:00:59.8	313.340	0.010	-0.930	-0.000
2020/01/31 08:00:59.9	313.350	0.030	-0.970	-0.010
2020/01/31 08:01:00.0	313.350	0.040	-1.000	-0.020
2020/01/31 08:01:00.1	313.370	0.050	-1.040	-0.030
2020/01/31 08:01:00.2	313.380	0.070	-1.070	-0.040
2020/01/31 08:01:00.3	313.400	0.080	-1.110	-0.060
2020/01/31 08:01:00.4	313.420	0.090	-1.140	-0.080
2020/01/31 08:01:00.5	313.450	0.110	-1.170	-0.110
2020/01/31 08:01:00.6	313.480	0.120	-1.200	-0.130
2020/01/31 08:01:00.7	313.510	0.130	-1.230	-0.160
2020/01/31 08:01:00.8	313.550	0.140	-1.260	-0.190
2020/01/31 08:01:00.9	313.590	0.150	-1.280	-0.220
2020/01/31 08:01:01.0	313.630	0.160	-1.310	-0.260
2020/01/31 08:01:01.1	313.680	0.170	-1.330	-0.290
2020/01/31 08:01:01.2	313.730	0.180	-1.350	-0.330
2020/01/31 08:01:01.3	313.790	0.190	-1.360	-0.370
2020/01/31 08:01:01.4	313.840	0.200	-1.370	-0.410
2020/01/31 08:01:01.5	313.900	0.210	-1.380	-0.450
2020/01/31 08:01:01.6	313.960	0.220	-1.390	-0.490
2020/01/31 08:01:01.7	314.020	0.230	-1.390	-0.530
2020/01/31 08:01:01.8	314.090	0.230	-1.380	-0.570
2020/01/31 08:01:01.9	314.150	0.240	-1.370	-0.600
2020/01/31 08:01:02.0	314.220	0.250	-1.360	-0.640
2020/01/31 08:01:02.1	314.280	0.250	-1.340	-0.680
2020/01/31 08:01:02.2	314.350	0.250	-1.320	-0.710
2020/01/31 08:01:02.3	314.400	0.260	-1.290	-0.740
2020/01/31 08:01:02.4	314.460	0.260	-1.250	-0.770
2020/01/31 08:01:02.5	314.520	0.260	-1.210	-0.790
2020/01/31 08:01:02.6	314.570	0.260	-1.160	-0.810
2020/01/31 08:01:02.7	314.620	0.260	-1.100	-0.820
2020/01/31 08:01:02.8	314.670	0.260	-1.040	-0.830
2020/01/31 08:01:02.9	314.720	0.260	-0.980	-0.830
2020/01/31 08:01:03.0	314.760	0.260	-0.910	-0.830
2020/01/31 08:01:03.1	314.800	0.250	-0.830	-0.830
2020/01/31 08:01:03.2	314.840	0.250	-0.750	-0.820
2020/01/31 08:01:03.3	314.870	0.240	-0.660	-0.800
2020/01/31 08:01:03.4	314.900	0.230	-0.570	-0.780
2020/01/31 08:01:03.5	314.930	0.230	-0.480	-0.760
2020/01/31 08:01:03.6	314.950	0.220	-0.390	-0.730
2020/01/31 08:01:03.7	314.970	0.210	-0.300	-0.700
2020/01/31 08:01:03.8	315.000	0.210	-0.210	-0.670
2020/01/31 08:01:03.9	315.010	0.200	-0.110	-0.640
2020/01/31 08:01:04.0	315.030	0.190	-0.020	-0.600
2020/01/31 08:01:04.1	315.050	0.180	0.070	-0.560
2020/01/31 08:01:04.2	315.060	0.180	0.160	-0.520
2020/01/31 08:01:04.3	315.070	0.170	0.250	-0.480
2020/01/31 08:01:04.4	315.080	0.160	0.340	-0.440
2020/01/31 08:01:04.5	315.090	0.160	0.420	-0.390
2020/01/31 08:01:04.6	315.090	0.150	0.500	-0.350
2020/01/31 08:01:04.7	315.090	0.150	0.570	-0.300
2020/01/31 08:01:04.8	315.090	0.150	0.650	-0.260
2020/01/31 08:01:04.9	315.090	0.140	0.720	-0.210
2020/01/31 08:01:05.0	315.080	0.140	0.780	-0.160
2020/01/31 08:01:05.1	315.070	0.140	0.840	-0.110
2020/01/31 08:01:05.2	315.060	0.150	0.890	-0.060
2020/01/31 08:01:05.3	315.020	0.150	0.950	-0.010
2020/01/31 08:01:05.4	315.010	0.150	1.000	0.050
2020/01/31 08:01:05.5	314.990	0.160	1.040	0.100
2020/01/31 08:01:05.6	314.970	0.170	1.070	0.150
2020/01/31 08:01:05.7	314.940	0.170	1.110	0.200
2020/01/31 08:01:05.8	314.920	0.180	1.130	0.250
2020/01/31 08:01:05.9	314.890	0.190	1.150	0.300
2020/01/31 08:01:06.0	314.860	0.200	1.170	0.350
2020/01/31 08:01:06.1	314.830	0.220	1.180	0.400
2020/01/31 08:01:06.2	314.800	0.230	1.190	0.450
2020/01/31 08:01:06.3	314.760	0.240	1.190	0.490
2020/01/31 08:01:06.4	314.720	0.250	1.190	0.530
2020/01/31 08:01:06.5	314.690	0.270	1.180	0.580
2020/01/31 08:01:06.6	314.650	0.280	1.160	0.610
2020/01/31 08:01:06.7	314.620	0.290	1.140	0.650
2020/01/31 08:01:06.8	314.580	0.300	1.120	0.680
2020/01/31 08:01:06.9	314.550	0.320	1.080	0.700
2020/01/31 08:01:07.0	314.510	0.330	1.050	0.730
2020/01/31 08:01:07.1	314.470	0.340	1.010	0.750
2020/01/31 08:01:07.2	314.430	0.350	0.960	0.760
2020/01/31 08:01:07.3	314.400	0.350	0.910	0.770
2020/01/31 08:01:07.4	314.360	0.360	0.850	0.770
2020/01/31 08:01:07.5	314.330	0.360	0.790	0.770
2020/01/31 08:01:07.6	314.290	0.370	0.720	0.770
2020/01/31 08:01:07.7	314.250	0.370	0.660	0.760
2020/01/31 08:01:07.8	314.220	0.360	0.580	0.750
2020/01/31 08:01:07.9	314.180	0.360	0.510	0.730
2020/01/31 08:01:08.0	314.150	0.360	0.430	0.710
2020/01/31 08:01:08.1	314.110	0.350	0.350	0.690
2020/01/31 08:01:08.2	314.070	0.340	0.270	0.660
2020/01/31 08:01:08.3	314.040	0.330	0.180	0.630
2020/01/31 08:01:08.4	314.010	0.310	0.100	0.600
2020/01/31 08:01:08.5	313.970	0.300	0.010	0.560
2020/01/31 08:01:08.6	313.940	0.280	-0.080	0.530
2020/01/31 08:01:08.7	313.900	0.260	-0.170	0.480
2020/01/31 08:01:08.8	313.870	0.240	-0.250	0.440
2020/01/31 08:01:08.9	313.840	0.210	-0.340	0.390
2020/01/31 08:01:09.0	313.810	0.190	-0.430	0.330
2020/01/31 08:01:09.1	313.780	0.160	-0.510	0.280
2020/01/31 08:01:09.2	313.750	0.130	-0.600	0.210
2020/01/31 08:01:09.3	313.730	0.100	-0.680	0.150
2020/01/31 08:01:09.4	313.710	0.070	-0.760	0.080
2020/01/31 08:01:09.5	313.690	0.040	-0.840	0.010
2020/01/31 08:01:09.6	313.670	0.010	-0.910	-0.060
2020/01/31 08:01:09.7	313.660	-0.020	-0.980	-0.140
2020/01/31 08:01:09.8	313.650	-0.050	-1.050	-0.220
2020/01/31 08:01:09.9	313.640	-0.080	-1.110	-0.300
2020/01/31 08:01:10.0	313.640	-0.110	-1.170	-0.380
2020/01/31 08:01:10.1	313.640	-0.140	-1.230	-0.470
2020/01/31 08:01:10.2	313.640	-0.170	-1.280	-0.550
2020/01/31 08:01:10.3	313.640	-0.200	-1.330	-0.650
2020/01/31 08:01:10.4	313.650	-0.230	-1.370	-0.730
2020/01/31 08:01:10.5	313.660	-0.250	-1.400	-0.820
2020/01/31 08:01:10.6	313.680	-0.280	-1.430	-0.900
2020/01/31 08:01:10.7	313.700	-0.300	-1.460	-0.990
2020/01/31 08:01:10.8	313.720	-0.330	-1.480	-1.070
2020/01/31 08:01:10.9	313.750	-0.350	-1.490	-1.150
2020/01/31 08:01:11.0	313.780	-0.370	-1.490	-1.230
2020/01/31 08:01:11.1	313.810	-0.390	-1.500	-1.310
2020/01/31 08:01:11.2	313.840	-0.410	-1.490	-1.380
2020/01/31 08:01:11.3	313.880	-0.430	-1.480	-1.440
2020/01/31 08:01:11.4	313.920	-0.450	-1.470	-1.510
2020/01/31 08:01:11.5	313.960	-0.460	-1.440	-1.570
2020/01/31 08:01:11.6	314.000	-0.480	-1.420	-1.630
2020/01/31 08:01:11.7	314.040	-0.490	-1.390	-1.680
2020/01/31 08:01:11.8	314.080	-0.510	-1.350	-1.720
2020/01/31 08:01:11.9	314.120	-0.520	-1.310	-1.760
2020/01/31 08:01:12.0	314.160	-0.530	-1.260	-1.800
2020/01/31 08:01:12.1	314.210	-0.540	-1.210	-1.820
2020/01/31 08:01:12.2	314.250	-0.550	-1.160	-1.840
2020/01/31 08:01:12.3	314.290	-0.560	-1.100	-1.860
2020/01/31 08:01:12.4	314.330	-0.570	-1.050	-1.860
2020/01/31 08:01:12.5	314.370	-0.570	-0.990	-1.860
2020/01/31 08:01:12.6	314.410	-0.580	-0.930	-1.860
2020/01/31 08:01:12.7	314.450	-0.580	-0.860	-1.850
2020/01/31 08:01:12.8	314.490	-0.580	-0.800	-1.840
2020/01/31 08:01:12.9	314.530	-0.580	-0.740	-1.820
2020/01/31 08:01:13.0	314.560	-0.580	-0.680	-1.790
2020/01/31 08:01:13.1	314.600	-0.580	-0.620	-1.760
2020/01/31 08:01:13.2	314.640	-0.580	-0.560	-1.730
2020/01/31 08:01:13.3	314.670	-0.570	-0.500	-1.690
2020/01/31 08:01:13.4	314.710	-0.560	-0.440	-1.650
2020/01/31 08:01:13.5	314.740	-0.550	-0.380	-1.610
2020/01/31 08:01:13.6	314.780	-0.540	-0.330	-1.560
2020/01/31 08:01:13.7	314.810	-0.530	-0.280	-1.510
2020/01/31 08:01:13.8	314.840	-0.510	-0.240	-1.450
2020/01/31 08:01:13.9	314.880	-0.490	-0.200	-1.400
2020/01/31 08:01:14.0	314.910	-0.470	-0.160	-1.340
2020/01/31 08:01:14.1	314.940	-0.450	-0.120	-1.280
2020/01/31 08:01:14.2	314.960	-0.430	-0.090	-1.220
2020/01/31 08:01:14.3	314.990	-0.400	-0.050	-1.150
2020/01/31 08:01:14.4	315.020	-0.370	-0.030	-1.090
2020/01/31 08:01:14.5	315.040	-0.340	-0.000	-1.020
2020/01/31 08:01:14.6	315.070	-0.310	0.020	-0.950
2020/01/31 08:01:14.7	315.090	-0.280	0.040	-0.880
2020/01/31 08:01:14.8	315.110	-0.250	0.060	-0.810
2020/01/31 08:01:14.9	315.130	-0.220	0.070	-0.740
2020/01/31 08:01:15.0	315.140	-0.180	0.090	-0.660
2020/01/31 08:01:15.1	315.150	-0.150	0.100	-0.580
2020/01/31 08:01:15.2	315.160	-0.120	0.110	-0.510
2020/01/31 08:01:15.3	315.170	-0.080	0.120	-0.430
2020/01/31 08:01:15.4	315.170	-0.050	0.130	-0.350
2020/01/31 08:01:15.5	315.180	-0.010	0.140	-0.270
2020/01/31 08:01:15.6	315.170	0.020	0.150	-0.180
2020/01/31 08:01:15.7	315.170	0.050	0.160	-0.100
2020/01/31 08:01:15.8	315.160	0.080	0.170	-0.020
2020/01/31 08:01:15.9	315.150	0.110	0.180	0.060
2020/01/31 08:01:16.0	315.140	0.140	0.190	0.150
2020/01/31 08:01:16.1	315.120	0.170	0.210	0.230
2020/01/31 08:01:16.2	315.100	0.200	0.220	0.310
2020/01/31 08:01:16.3	315.070	0.220	0.230	0.380
2020/01/31 08:01:16.4	315.040	0.240	0.250	0.460
2020/01/31 08:01:16.5	315.020	0.270	0.260	0.530
2020/01/31 08:01:16.6	314.980	0.280	0.270	0.610
2020/01/31 08:01:16.7	314.950	0.300	0.290	0.670
2020/01/31 08:01:16.8	314.920	0.320	0.300	0.740
2020/01/31 08:01:16.9	314.880	0.330	0.320	0.800
2020/01/31 08:01:17.0	314.840	0.340	0.330	0.860
2020/01/31 08:01:17.1	314.800	0.350	0.350	0.910
2020/01/31 08:01:17.2	314.760	0.360	0.360	0.960
2020/01/31 08:01:17.3	314.710	0.370	0.380	1.010
2020/01/31 08:01:17.4	314.670	0.380	0.390	1.050
2020/01/31 08:01:17.5	314.620	0.380	0.400	1.090
2020/01/31 08:01:17.6	314.570	0.390	0.410	1.120
2020/01/31 08:01:17.7	314.520	0.390	0.420	1.140
2020/01/31 08:01:17.8	314.480	0.390	0.430	1.160
2020/01/31 08:01:17.9	314.430	0.390	0.430	1.180
2020/01/31 08:01:18.0	314.380	0.390	0.440	1.190
2020/01/31 08:01:18.1	314.330	0.390	0.440	1.200
2020/01/31 08:01:18.2	314.280	0.380	0.440	1.200
2020/01/31 08:01:18.3	314.230	0.380	0.430	1.190
2020/01/31 08:01:18.4	314.180	0.380	0.420	1.180
2020/01/31 08:01:18.5	314.130	0.370	0.410	1.170
2020/01/31 08:01:18.6	314.090	0.370	0.400	1.150
2020/01/31 08:01:18.7	314.040	0.360	0.380	1.130
2020/01/31 08:01:18.8	314.000	0.360	0.350	1.100
2020/01/31 08:01:18.9	313.950	0.350	0.320	1.070
2020/01/31 08:01:19.0	313.910	0.350	0.290	1.030
2020/01/31 08:01:19.1	313.880	0.340	0.250	0.980
2020/01/31 08:01:19.2	313.840	0.340	0.210	0.940
2020/01/31 08:01:19.3	313.820	0.330	0.170	0.880
2020/01/31 08:01:19.4	313.790	0.330	0.120	0.820
2020/01/31 08:01:19.5	313.760	0.320	0.060	0.760
2020/01/31 08:01:19.6	313.740	0.320	0.000	0.690
2020/01/31 08:01:19.7	313.720	0.320	-0.060	0.620
2020/01/31 08:01:19.8	313.710	0.310	-0.120	0.540
2020/01/31 08:01:19.9	313.700	0.310	-0.190	0.460
2020/01/31 08:01:20.0	313.690	0.310	-0.260	0.370
2020/01/31 08:01:20.1	313.690	0.310	-0.320	0.290
2020/01/31 08:01:20.2	313.690	0.310	-0.390	0.200
2020/01/31 08:01:20.3	313.700	0.310	-0.460	0.100
2020/01/31 08:01:20.4	313.700	0.310	-0.530	0.010
2020/01/31 08:01:20.5	313.720	0.310	-0.600	-0.080
2020/01/31 08:01:20.6	313.730	0.310	-0.670	-0.180
2020/01/31 08:01:20.7	313.750	0.310	-0.730	-0.270
2020/01/31 08:01:20.8	313.760	0.310	-0.790	-0.360
2020/01/31 08:01:20.9	313.780	0.310	-0.840	-0.450
2020/01/31 08:01:21.0	313.800	0.310	-0.890	-0.540
2020/01/31 08:01:21.1	313.830	0.310	-0.940	-0.620
2020/01/31 08:01:21.2	313.850	0.310	-0.980	-0.710
2020/01/31 08:01:21.3	313.870	0.300	-1.010	-0.790
2020/01/31 08:01:21.4	313.890	0.300	-1.040	-0.870
2020/01/31 08:01:21.5	313.920	0.300	-1.060	-0.940
2020/01/31 08:01:21.6	313.940	0.300	-1.070	-1.010
2020/01/31 08:01:21.7	313.970	0.290	-1.080	-1.070
2020/01/31 08:01:21.8	313.990	0.290	-1.080	-1.130
2020/01/31 08:01:21.9	314.020	0.280	-1.070	-1.180
2020/01/31 08:01:22.0	314.050	0.270	-1.060	-1.230
2020/01/31 08:01:22.1	314.070	0.260	-1.040	-1.270
2020/01/31 08:01:22.2	314.100	0.250	-1.010	-1.310
2020/01/31 08:01:22.3	314.130	0.240	-0.980	-1.340
2020/01/31 08:01:22.4	314.150	0.230	-0.950	-1.370
2020/01/31 08:01:22.5	314.180	0.220	-0.910	-1.390
2020/01/31 08:01:22.6	314.200	0.200	-0.870	-1.400
2020/01/31 08:01:22.7	314.220	0.190	-0.820	-1.410
2020/01/31 08:01:22.8	314.240	0.170	-0.770	-1.420
2020/01/31 08:01:22.9	314.270	0.150	-0.720	-1.420
2020/01/31 08:01:23.0	314.280	0.130	-0.670	-1.420
2020/01/31 08:01:23.1	314.300	0.120	-0.620	-1.410
2020/01/31 08:01:23.2	314.320	0.100	-0.570	-1.390
2020/01/31 08:01:23.3	314.330	0.070	-0.510	-1.370
2020/01/31 08:01:23.4	314.350	0.050	-0.460	-1.350
2020/01/31 08:01:23.5	314.360	0.030	-0.410	-1.330
2020/01/31 08:01:23.6	314.370	0.010	-0.360	-1.300
2020/01/31 08:01:23.7	314.380	-0.010	-0.320	-1.270
2020/01/31 08:01:23.8	314.390	-0.030	-0.270	-1.240
2020/01/31 08:01:23.9	314.400	-0.060	-0.230	-1.210
2020/01/31 08:01:24.0	314.410	-0.080	-0.190	-1.170
2020/01/31 08:01:24.1	314.420	-0.100	-0.150	-1.130
2020/01/31 08:01:24.2	314.430	-0.120	-0.120	-1.090
2020/01/31 08:01:24.3	314.430	-0.140	-0.090	-1.050
2020/01/31 08:01:24.4	314.440	-0.160	-0.060	-1.010
2020/01/31 08:01:24.5	314.440	-0.180	-0.030	-0.960
2020/01/31 08:01:24.6	314.440	-0.200	-0.010	-0.920
2020/01/31 08:01:24.7	314.450	-0.220	0.010	-0.870
2020/01/31 08:01:24.8	314.450	-0.230	0.030	-0.820
2020/01/31 08:01:24.9	314.450	-0.250	0.040	-0.770
2020/01/31 08:01:25.0	314.450	-0.270	0.060	-0.720
2020/01/31 08:01:25.1	314.440	-0.280	0.070	-0.670
2020/01/31 08:01:25.2	314.440	-0.300	0.080	-0.610
2020/01/31 08:01:25.3	314.440	-0.310	0.080	-0.560
2020/01/31 08:01:25.4	314.440	-0.320	0.090	-0.500
2020/01/31 08:01:25.5	314.430	-0.330	0.100	-0.440
2020/01/31 08:01:25.6	314.420	-0.340	0.100	-0.390
2020/01/31 08:01:25.7	314.410	-0.350	0.100	-0.330
2020/01/31 08:01:25.8	314.400	-0.360	0.100	-0.270
2020/01/31 08:01:25.9	314.390	-0.360	0.100	-0.210
2020/01/31 08:01:26.0	314.370	-0.370	0.100	-0.150
2020/01/31 08:01:26.1	314.360	-0.370	0.100	-0.100
2020/01/31 08:01:26.2	314.350	-0.370	0.100	-0.040
2020/01/31 08:01:26.3	314.340	-0.370	0.100	0.020
2020/01/31 08:01:26.4	314.330	-0.370	0.090	0.080
2020/01/31 08:01:26.5	314.310	-0.370	0.080	0.140
2020/01/31 08:01:26.6	314.290	-0.370	0.070	0.200
2020/01/31 08:01:26.7	314.280	-0.360	0.060	0.250
2020/01/31 08:01:26.8	314.250	-0.350	0.050	0.310
2020/01/31 08:01:26.9	314.230	-0.350	0.040	0.370
2020/01/31 08:01:27.0	314.210	-0.340	0.020	0.420
2020/01/31 08:01:27.1	314.190	-0.330	0.010	0.470
2020/01/31 08:01:27.2	314.170	-0.310	-0.010	0.520
2020/01/31 08:01:27.3	314.130	-0.300	-0.030	0.570
2020/01/31 08:01:27.4	314.100	-0.290	-0.050	0.610
2020/01/31 08:01:27.5	314.080	-0.270	-0.070	0.650
2020/01/31 08:01:27.6	314.050	-0.260	-0.100	0.690
2020/01/31 08:01:27.7	314.030	-0.240	-0.120	0.730
2020/01/31 08:01:27.8	314.000	-0.220	-0.150	0.760
2020/01/31 08:01:27.9	313.970	-0.200	-0.170	0.790
2020/01/31 08:01:28.0	313.950	-0.190	-0.200	0.820
2020/01/31 08:01:28.1	313.920	-0.170	-0.230	0.840
2020/01/31 08:01:28.2	313.900	-0.150	-0.250	0.860
2020/01/31 08:01:28.3	313.870	-0.130	-0.280	0.870
2020/01/31 08:01:28.4	313.840	-0.110	-0.310	0.880
2020/01/31 08:01:28.5	313.820	-0.080	-0.330	0.890
2020/01/31 08:01:28.6	313.790	-0.060	-0.360	0.900
2020/01/31 08:01:28.7	313.770	-0.040	-0.390	0.900
2020/01/31 08:01:28.8	313.750	-0.020	-0.410	0.900
2020/01/31 08:01:28.9	313.730	-0.000	-0.430	0.900
2020/01/31 08:01:29.0	313.710	0.020	-0.460	0.890
2020/01/31 08:01:29.1	313.690	0.040	-0.480	0.890
2020/01/31 08:01:29.2	313.680	0.060	-0.500	0.880
2020/01/31 08:01:29.3	313.680	0.070	-0.520	0.860
2020/01/31 08:01:29.4	313.670	0.090	-0.540	0.840
2020/01/31 08:01:29.5	313.660	0.110	-0.550	0.830
2020/01/31 08:01:29.6	313.650	0.120	-0.570	0.800
2020/01/31 08:01:29.7	313.640	0.130	-0.580	0.780
2020/01/31 08:01:29.8	313.630	0.140	-0.590	0.750
2020/01/31 08:01:29.9	313.630	0.150	-0.600	0.720
2020/01/31 08:01:30.0	313.630	0.160	-0.600	0.680
2020/01/31 08:01:30.1	313.630	0.170	-0.610	0.650
2020/01/31 08:01:30.2	313.630	0.170	-0.610	0.600
2020/01/31 08:01:30.3	313.620	0.180	-0.610	0.560
2020/01/31 08:01:30.4	313.620	0.180	-0.610	0.510
2020/01/31 08:01:30.5	313.630	0.180	-0.600	0.470
2020/01/31 08:01:30.6	313.630	0.170	-0.590	0.410
2020/01/31 08:01:30.7	313.640	0.170	-0.580	0.360
2020/01/31 08:01:30.8	313.650	0.160	-0.570	0.310
2020/01/31 08:01:30.9	313.660	0.150	-0.550	0.250
2020/01/31 08:01:31.0	313.670	0.140	-0.530	0.190
2020/01/31 08:01:31.1	313.680	0.130	-0.510	0.140
2020/01/31 08:01:31.2	313.700	0.120	-0.480	0.080
2020/01/31 08:01:31.3	313.720	0.100	-0.450	0.020
2020/01/31 08:01:31.4	313.730	0.090	-0.430	-0.030
2020/01/31 08:01:31.5	313.750	0.070	-0.390	-0.090
2020/01/31 08:01:31.6	313.770	0.060	-0.360	-0.140
2020/01/31 08:01:31.7	313.790	0.040	-0.320	-0.190
2020/01/31 08:01:31.8	313.810	0.020	-0.280	-0.230
2020/01/31 08:01:31.9	313.820	0.000	-0.250	-0.280
2020/01/31 08:01:32.0	313.840	-0.020	-0.200	-0.320
2020/01/31 08:01:32.1	313.860	-0.040	-0.160	-0.360
2020/01/31 08:01:32.2	313.880	-0.060	-0.120	-0.400
2020/01/31 08:01:32.3	313.890	-0.080	-0.080	-0.440
2020/01/31 08:01:32.4	313.910	-0.090	-0.040	-0.470
2020/01/31 08:01:32.5	313.930	-0.110	0.000	-0.500
2020/01/31 08:01:32.6	313.950	-0.130	0.040	-0.530
2020/01/31 08:01:32.7	313.970	-0.150	0.080	-0.550
2020/01/31 08:01:32.8	313.990	-0.160	0.120	-0.570
2020/01/31 08:01:32.9	314.000	-0.180	0.160	-0.590
2020/01/31 08:01:33.0	314.020	-0.190	0.190	-0.610
2020/01/31 08:01:33.1	314.040	-0.200	0.220	-0.620
2020/01/31 08:01:33.2	314.050	-0.210	0.250	-0.630
2020/01/31 08:01:33.3	314.070	-0.220	0.280	-0.630
2020/01/31 08:01:33.4	314.090	-0.230	0.300	-0.630
2020/01/31 08:01:33.5	314.100	-0.240	0.330	-0.630
2020/01/31 08:01:33.6	314.110	-0.240	0.340	-0.630
2020/01/31 08:01:33.7	314.130	-0.240	0.360	-0.620
2020/01/31 08:01:33.8	314.140	-0.240	0.370	-0.620
2020/01/31 08:01:33.9	314.150	-0.240	0.380	-0.610
2020/01/31 08:01:34.0	314.160	-0.240	0.380	-0.600
2020/01/31 08:01:34.1	314.170	-0.230	0.390	-0.580
2020/01/31 08:01:34.2	314.180	-0.230	0.380	-0.570
2020/01/31 08:01:34.3	314.180	-0.220	0.380	-0.560
2020/01/31 08:01:34.4	314.180	-0.210	0.370	-0.540
2020/01/31 08:01:34.5	314.190	-0.200	0.350	-0.520
2020/01/31 08:01:34.6	314.190	-0.180	0.330	-0.500
2020/01/31 08:01:34.7	314.200	-0.170	0.310	-0.470
2020/01/31 08:01:34.8	314.200	-0.150	0.290	-0.450
2020/01/31 08:01:34.9	314.200	-0.130	0.260	-0.430
2020/01/31 08:01:35.0	314.210	-0.110	0.230	-0.400
2020/01/31 08:01:35.1	314.210	-0.090	0.190	-0.370
2020/01/31 08:01:35.2	314.210	-0.060	0.160	-0.350
2020/01/31 08:01:35.3	314.220	-0.040	0.120	-0.320
2020/01/31 08:01:35.4	314.230	-0.010	0.080	-0.300
2020/01/31 08:01:35.5	314.230	0.010	0.030	-0.270
2020/01/31 08:01:35.6	314.230	0.040	-0.010	-0.250
2020/01/31 08:01:35.7	314.240	0.070	-0.060	-0.220
2020/01/31 08:01:35.8	314.240	0.100	-0.100	-0.200
2020/01/31 08:01:35.9	314.250	0.130	-0.150	-0.170
2020/01/31 08:01:36.0	314.260	0.160	-0.200	-0.150
2020/01/31 08:01:36.1	314.260	0.200	-0.240	-0.120
2020/01/31 08:01:36.2	314.270	0.230	-0.290	-0.100
2020/01/31 08:01:36.3	314.270	0.260	-0.330	-0.070
2020/01/31 08:01:36.4	314.280	0.290	-0.380	-0.050
2020/01/31 08:01:36.5	314.290	0.320	-0.410	-0.020
2020/01/31 08:01:36.6	314.290	0.350	-0.450	0.000
2020/01/31 08:01:36.7	314.290	0.380	-0.480	0.030
2020/01/31 08:01:36.8	314.300	0.400	-0.510	0.060
2020/01/31 08:01:36.9	314.300	0.430	-0.540	0.090
2020/01/31 08:01:37.0	314.300	0.460	-0.560	0.120
2020/01/31 08:01:37.1	314.300	0.480	-0.580	0.150
2020/01/31 08:01:37.2	314.300	0.500	-0.600	0.180
2020/01/31 08:01:37.3	314.290	0.520	-0.610	0.220
2020/01/31 08:01:37.4	314.280	0.540	-0.610	0.260
2020/01/31 08:01:37.5	314.280	0.560	-0.610	0.300
2020/01/31 08:01:37.6	314.270	0.570	-0.610	0.330
2020/01/31 08:01:37.7	314.260	0.580	-0.610	0.370
2020/01/31 08:01:37.8	314.250	0.590	-0.600	0.410
2020/01/31 08:01:37.9	314.240	0.600	-0.580	0.450
2020/01/31 08:01:38.0	314.220	0.600	-0.570	0.490
2020/01/31 08:01:38.1	314.210	0.600	-0.550	0.530
2020/01/31 08:01:38.2	314.200	0.600	-0.540	0.570
2020/01/31 08:01:38.3	314.180	0.600	-0.510	0.600
2020/01/31 08:01:38.4	314.170	0.590	-0.500	0.630
2020/01/31 08:01:38.5	314.150	0.580	-0.480	0.660
2020/01/31 08:01:38.6	314.130	0.570	-0.460	0.680
2020/01/31 08:01:38.7	314.110	0.560	-0.440	0.700
2020/01/31 08:01:38.8	314.090	0.540	-0.420	0.720
2020/01/31 08:01:38.9	314.080	0.530	-0.410	0.730
2020/01/31 08:01:39.0	314.060	0.510	-0.400	0.740
2020/01/31 08:01:39.1	314.040	0.490	-0.390	0.740
2020/01/31 08:01:39.2	314.020	0.470	-0.380	0.740
2020/01/31 08:01:39.3	314.000	0.440	-0.370	0.730
2020/01/31 08:01:39.4	313.990	0.420	-0.370	0.720
2020/01/31 08:01:39.5	313.970	0.400	-0.370	0.700
2020/01/31 08:01:39.6	313.960	0.370	-0.380	0.680
2020/01/31 08:01:39.7	313.960	0.350	-0.390	0.650
2020/01/31 08:01:39.8	313.950	0.320	-0.400	0.620
2020/01/31 08:01:39.9	313.950	0.300	-0.410	0.580
2020/01/31 08:01:40.0	313.940	0.280	-0.430	0.540
2020/01/31 08:01:40.1	313.940	0.250	-0.450	0.490
2020/01/31 08:01:40.2	313.950	0.230	-0.470	0.440
2020/01/31 08:01:40.3	313.940	0.210	-0.500	0.380
2020/01/31 08:01:40.4	313.950	0.190	-0.520	0.320
2020/01/31 08:01:40.5	313.960	0.160	-0.550	0.260
2020/01/31 08:01:40.6	313.970	0.140	-0.580	0.200
2020/01/31 08:01:40.7	313.980	0.120	-0.610	0.140
2020/01/31 08:01:40.8	314.000	0.100	-0.640	0.070
2020/01/31 08:01:40.9	314.020	0.080	-0.660	0.000
2020/01/31 08:01:41.0	314.040	0.060	-0.690	-0.070
2020/01/31 08:01:41.1	314.060	0.050	-0.720	-0.140
2020/01/31 08:01:41.2	314.080	0.030	-0.740	-0.200
2020/01/31 08:01:41.3	314.110	0.010	-0.760	-0.270
2020/01/31 08:01:41.4	314.130	-0.010	-0.780	-0.340
2020/01/31 08:01:41.5	314.160	-0.020	-0.800	-0.410
2020/01/31 08:01:41.6	314.190	-0.040	-0.810	-0.480
2020/01/31 08:01:41.7	314.220	-0.060	-0.820	-0.540
2020/01/31 08:01:41.8	314.250	-0.080	-0.830	-0.610
2020/01/31 08:01:41.9	314.280	-0.100	-0.830	-0.670
2020/01/31 08:01:42.0	314.310	-0.110	-0.830	-0.730
2020/01/31 08:01:42.1	314.340	-0.130	-0.820	-0.780
2020/01/31 08:01:42.2	314.370	-0.150	-0.810	-0.840
2020/01/31 08:01:42.3	314.390	-0.170	-0.800	-0.890
2020/01/31 08:01:42.4	314.420	-0.200	-0.780	-0.930
2020/01/31 08:01:42.5	314.460	-0.220	-0.760	-0.980
2020/01/31 08:01:42.6	314.480	-0.240	-0.730	-1.020
2020/01/31 08:01:42.7	314.510	-0.260	-0.700	-1.060
2020/01/31 08:01:42.8	314.540	-0.290	-0.670	-1.090
2020/01/31 08:01:42.9	314.570	-0.310	-0.630	-1.110
2020/01/31 08:01:43.0	314.590	-0.330	-0.590	-1.140
2020/01/31 08:01:43.1	314.620	-0.360	-0.540	-1.160
2020/01/31 08:01:43.2	314.640	-0.380	-0.490	-1.170
2020/01/31 08:01:43.3	314.660	-0.410	-0.440	-1.180
2020/01/31 08:01:43.4	314.680	-0.440	-0.390	-1.190
2020/01/31 08:01:43.5	314.700	-0.460	-0.330	-1.190
2020/01/31 08:01:43.6	314.720	-0.490	-0.270	-1.180
2020/01/31 08:01:43.7	314.730	-0.520	-0.210	-1.180
2020/01/31 08:01:43.8	314.750	-0.540	-0.150	-1.170
2020/01/31 08:01:43.9	314.760	-0.570	-0.080	-1.150
2020/01/31 08:01:44.0	314.770	-0.600	-0.020	-1.140
2020/01/31 08:01:44.1	314.780	-0.620	0.050	-1.120
2020/01/31 08:01:44.2	314.780	-0.650	0.110	-1.090
2020/01/31 08:01:44.3	314.780	-0.670	0.180	-1.070
2020/01/31 08:01:44.4	314.790	-0.700	0.240	-1.040
2020/01/31 08:01:44.5	314.790	-0.720	0.300	-1.010
2020/01/31 08:01:44.6	314.780	-0.740	0.360	-0.970
2020/01/31 08:01:44.7	314.780	-0.760	0.420	-0.940
2020/01/31 08:01:44.8	314.780	-0.780	0.470	-0.900
2020/01/31 08:01:44.9	314.770	-0.800	0.520	-0.860
2020/01/31 08:01:45.0	314.770	-0.810	0.570	-0.820
2020/01/31 08:01:45.1	314.760	-0.820	0.610	-0.780
2020/01/31 08:01:45.2	314.750	-0.830	0.650	-0.730
2020/01/31 08:01:45.3	314.730	-0.840	0.690	-0.690
2020/01/31 08:01:45.4	314.720	-0.840	0.720	-0.650
2020/01/31 08:01:45.5	314.710	-0.840	0.740	-0.600
2020/01/31 08:01:45.6	314.700	-0.840	0.760	-0.560
2020/01/31 08:01:45.7	314.690	-0.830	0.780	-0.510
2020/01/31 08:01:45.8	314.670	-0.820	0.790	-0.470
2020/01/31 08:01:45.9	314.660	-0.810	0.800	-0.420
2020/01/31 08:01:46.0	314.640	-0.790	0.800	-0.380
2020/01/31 08:01:46.1	314.620	-0.770	0.800	-0.330
2020/01/31 08:01:46.2	314.600	-0.750	0.790	-0.290
2020/01/31 08:01:46.3	314.600	-0.720	0.780	-0.250
2020/01/31 08:01:46.4	314.580	-0.690	0.770	-0.200
2020/01/31 08:01:46.5	314.550	-0.660	0.750	-0.160
2020/01/31 08:01:46.6	314.530	-0.630	0.730	-0.120
2020/01/31 08:01:46.7	314.500	-0.590	0.710	-0.080
2020/01/31 08:01:46.8	314.470	-0.550	0.680	-0.040
2020/01/31 08:01:46.9	314.450	-0.510	0.650	0.000
2020/01/31 08:01:47.0	314.420	-0.470	0.620	0.040
2020/01/31 08:01:47.1	314.380	-0.420	0.580	0.080
2020/01/31 08:01:47.2	314.350	-0.380	0.540	0.120
2020/01/31 08:01:47.3	314.330	-0.330	0.500	0.150
2020/01/31 08:01:47.4	314.290	-0.280	0.460	0.190
2020/01/31 08:01:47.5	314.260	-0.230	0.410	0.220
2020/01/31 08:01:47.6	314.230	-0.180	0.360	0.250
2020/01/31 08:01:47.7	314.200	-0.130	0.310	0.280
2020/01/31 08:01:47.8	314.170	-0.080	0.250	0.310
2020/01/31 08:01:47.9	314.150	-0.030	0.200	0.340
2020/01/31 08:01:48.0	314.120	0.020	0.140	0.360
2020/01/31 08:01:48.1	314.100	0.070	0.080	0.380
2020/01/31 08:01:48.2	314.070	0.110	0.020	0.400
2020/01/31 08:01:48.3	314.050	0.160	-0.040	0.410
2020/01/31 08:01:48.4	314.030	0.210	-0.110	0.420
2020/01/31 08:01:48.5	314.010	0.250	-0.170	0.430
2020/01/31 08:01:48.6	314.000	0.300	-0.230	0.430
2020/01/31 08:01:48.7	313.990	0.340	-0.300	0.440
2020/01/31 08:01:48.8	313.980	0.380	-0.360	0.430
2020/01/31 08:01:48.9	313.970	0.420	-0.420	0.430
2020/01/31 08:01:49.0	313.960	0.460	-0.480	0.420
2020/01/31 08:01:49.1	313.960	0.490	-0.540	0.410
2020/01/31 08:01:49.2	313.960	0.530	-0.600	0.390
2020/01/31 08:01:49.3	313.950	0.560	-0.660	0.370
2020/01/31 08:01:49.4	313.960	0.590	-0.710	0.360
2020/01/31 08:01:49.5	313.970	0.620	-0.760	0.330
2020/01/31 08:01:49.6	313.970	0.650	-0.810	0.310
2020/01/31 08:01:49.7	313.990	0.680	-0.860	0.290
2020/01/31 08:01:49.8	314.000	0.700	-0.900	0.260
2020/01/31 08:01:49.9	314.020	0.720	-0.940	0.230
2020/01/31 08:01:50.0	314.040	0.740	-0.970	0.210
2020/01/31 08:01:50.1	314.060	0.760	-1.010	0.180
2020/01/31 08:01:50.2	314.080	0.770	-1.030	0.150
2020/01/31 08:01:50.3	314.100	0.790	-1.060	0.120
2020/01/31 08:01:50.4	314.130	0.800	-1.080	0.090
2020/01/31 08:01:50.5	314.150	0.810	-1.090	0.060
2020/01/31 08:01:50.6	314.180	0.810	-1.110	0.030
2020/01/31 08:01:50.7	314.200	0.820	-1.110	0.000
2020/01/31 08:01:50.8	314.230	0.820	-1.120	-0.030
2020/01/31 08:01:50.9	314.260	0.820	-1.120	-0.060
2020/01/31 08:01:51.0	314.290	0.810	-1.110	-0.090
2020/01/31 08:01:51.1	314.320	0.810	-1.110	-0.120
2020/01/31 08:01:51.2	314.350	0.800	-1.100	-0.150
2020/01/31 08:01:51.3	314.380	0.790	-1.080	-0.180
2020/01/31 08:01:51.4	314.410	0.770	-1.070	-0.210
2020/01/31 08:01:51.5	314.440	0.750	-1.050	-0.240
2020/01/31 08:01:51.6	314.470	0.730	-1.020	-0.270
2020/01/31 08:01:51.7	314.500	0.710	-1.000	-0.300
2020/01/31 08:01:51.8	314.530	0.690	-0.970	-0.340
2020/01/31 08:01:51.9	314.560	0.660	-0.940	-0.370
2020/01/31 08:01:52.0	314.590	0.630	-0.910	-0.400
2020/01/31 08:01:52.1	314.620	0.600	-0.870	-0.430
2020/01/31 08:01:52.2	314.650	0.570	-0.840	-0.460
2020/01/31 08:01:52.3	314.670	0.530	-0.800	-0.490
2020/01/31 08:01:52.4	314.700	0.500	-0.770	-0.520
2020/01/31 08:01:52.5	314.730	0.460	-0.730	-0.550
2020/01/31 08:01:52.6	314.760	0.420	-0.690	-0.570
2020/01/31 08:01:52.7	314.780	0.390	-0.650	-0.590
2020/01/31 08:01:52.8	314.810	0.350	-0.610	-0.610
2020/01/31 08:01:52.9	314.830	0.310	-0.570	-0.630
2020/01/31 08:01:53.0	314.860	0.260	-0.530	-0.650
2020/01/31 08:01:53.1	314.880	0.220	-0.490	-0.660
2020/01/31 08:01:53.2	314.900	0.180	-0.450	-0.680
2020/01/31 08:01:53.3	314.920	0.140	-0.410	-0.690
2020/01/31 08:01:53.4	314.930	0.100	-0.360	-0.690
2020/01/31 08:01:53.5	314.950	0.060	-0.320	-0.700
2020/01/31 08:01:53.6	314.960	0.020	-0.280	-0.700
2020/01/31 08:01:53.7	314.980	-0.020	-0.240	-0.700
2020/01/31 08:01:53.8	314.990	-0.050	-0.200	-0.690
2020/01/31 08:01:53.9	315.000	-0.090	-0.160	-0.680
2020/01/31 08:01:54.0	315.000	-0.130	-0.130	-0.670
2020/01/31 08:01:54.1	315.010	-0.160	-0.090	-0.660
2020/01/31 08:01:54.2	315.010	-0.190	-0.050	-0.640
2020/01/31 08:01:54.3	315.000	-0.230	-0.010	-0.620
2020/01/31 08:01:54.4	315.000	-0.260	0.020	-0.600
2020/01/31 08:01:54.5	315.000	-0.290	0.050	-0.580
2020/01/31 08:01:54.6	314.990	-0.310	0.080	-0.550
2020/01/31 08:01:54.7	314.980	-0.340	0.110	-0.520
2020/01/31 08:01:54.8	314.970	-0.360	0.140	-0.490
2020/01/31 08:01:54.9	314.950	-0.380	0.160	-0.460
2020/01/31 08:01:55.0	314.940	-0.400	0.180	-0.430
2020/01/31 08:01:55.1	314.920	-0.420	0.200	-0.390
2020/01/31 08:01:55.2	314.900	-0.430	0.210	-0.360
2020/01/31 08:01:55.3	314.880	-0.440	0.220	-0.320
2020/01/31 08:01:55.4	314.850	-0.450	0.230	-0.290
2020/01/31 08:01:55.5	314.820	-0.460	0.240	-0.250
2020/01/31 08:01:55.6	314.800	-0.460	0.240	-0.220
2020/01/31 08:01:55.7	314.770	-0.460	0.240	-0.190
2020/01/31 08:01:55.8	314.740	-0.460	0.230	-0.150
2020/01/31 08:01:55.9	314.710	-0.460	0.220	-0.120
2020/01/31 08:01:56.0	314.680	-0.450	0.210	-0.090
2020/01/31 08:01:56.1	314.660	-0.450	0.190	-0.060
2020/01/31 08:01:56.2	314.630	-0.430	0.180	-0.030
2020/01/31 08:01:56.3	314.600	-0.420	0.160	-0.010
2020/01/31 08:01:56.4	314.570	-0.410	0.140	0.020
2020/01/31 08:01:56.5	314.550	-0.390	0.110	0.040
2020/01/31 08:01:56.6	314.530	-0.370	0.080	0.060
2020/01/31 08:01:56.7	314.500	-0.350	0.050	0.080
2020/01/31 08:01:56.8	314.480	-0.320	0.020	0.100
2020/01/31 08:01:56.9	314.460	-0.300	-0.020	0.120
2020/01/31 08:01:57.0	314.450	-0.270	-0.050	0.130
2020/01/31 08:01:57.1	314.430	-0.240	-0.090	0.140
2020/01/31 08:01:57.2	314.420	-0.220	-0.120	0.150
2020/01/31 08:01:57.3	314.410	-0.190	-0.160	0.160
2020/01/31 08:01:57.4	314.400	-0.160	-0.200	0.170
2020/01/31 08:01:57.5	314.390	-0.130	-0.240	0.170
2020/01/31 08:01:57.6	314.380	-0.100	-0.270	0.170
2020/01/31 08:01:57.7	314.380	-0.080	-0.310	0.170
2020/01/31 08:01:57.8	314.370	-0.050	-0.340	0.170
2020/01/31 08:01:57.9	314.370	-0.020	-0.370	0.160
2020/01/31 08:01:58.0	314.360	-0.000	-0.400	0.160
2020/01/31 08:01:58.1	314.360	0.020	-0.420	0.150
2020/01/31 08:01:58.2	314.350	0.040	-0.440	0.140
2020/01/31 08:01:58.3	314.330	0.060	-0.460	0.120
2020/01/31 08:01:58.4	314.330	0.080	-0.470	0.110
2020/01/31 08:01:58.5	314.320	0.090	-0.480	0.100
2020/01/31 08:01:58.6	314.310	0.100	-0.490	0.090
2020/01/31 08:01:58.7	314.310	0.110	-0.490	0.080
2020/01/31 08:01:58.8	314.300	0.110	-0.480	0.070
2020/01/31 08:01:58.9	314.290	0.110	-0.470	0.060
2020/01/31 08:01:59.0	314.280	0.110	-0.450	0.050
2020/01/31 08:01:59.1	314.280	0.110	-0.430	0.040
2020/01/31 08:01:59.2	314.270	0.100	-0.410	0.030
2020/01/31 08:01:59.3	314.250	0.090	-0.380	0.020
2020/01/31 08:01:59.4	314.250	0.080	-0.350	0.010
2020/01/31 08:01:59.5	314.240	0.070	-0.320	0.000
2020/01/31 08:01:59.6	314.230	0.050	-0.280	-0.000
2020/01/31 08:01:59.7	314.230	0.030	-0.240	-0.010
2020/01/31 08:01:59.8	314.230	0.010	-0.200	-0.020
2020/01/31 08:01:59.9	314.220	-0.020	-0.160	-0.040
2020/01/31 08:02:00.0	314.220	-0.040	-0.120	-0.050
2020/01/31 08:02:00.1	314.220	-0.070	-0.080	-0.060
2020/01/31 08:02:00.2	314.230	-0.100	-0.040	-0.080
2020/01/31 08:02:00.3	314.230	-0.130	0.000	-0.090
2020/01/31 08:02:00.4	314.240	-0.160	0.040	-0.110
2020/01/31 08:02:00.5	314.240	-0.190	0.080	-0.130
2020/01/31 08:02:00.6	314.240	-0.220	0.120	-0.140
2020/01/31 08:02:00.7	314.250	-0.250	0.160	-0.160
2020/01/31 08:02:00.8	314.250	-0.280	0.190	-0.180
2020/01/31 08:02:00.9	314.260	-0.310	0.220	-0.200
2020/01/31 08:02:01.0	314.260	-0.330	0.250	-0.220
2020/01/31 08:02:01.1	314.260	-0.360	0.280	-0.240
2020/01/31 08:02:01.2	314.270	-0.380	0.300	-0.260
2020/01/31 08:02:01.3	314.270	-0.400	0.330	-0.280
2020/01/31 08:02:01.4	314.280	-0.420	0.350	-0.300
2020/01/31 08:02:01.5	314.280	-0.440	0.370	-0.320
2020/01/31 08:02:01.6	314.280	-0.450	0.380	-0.340
2020/01/31 08:02:01.7	314.280	-0.460	0.390	-0.350
2020/01/31 08:02:01.8	314.270	-0.470	0.400	-0.370
2020/01/31 08:02:01.9	314.270	-0.480	0.410	-0.380
2020/01/31 08:02:02.0	314.270	-0.480	0.410	-0.400
2020/01/31 08:02:02.1	314.260	-0.480	0.410	-0.410
2020/01/31 08:02:02.2	314.260	-0.470	0.410	-0.420
2020/01/31 08:02:02.3	314.260	-0.470	0.400	-0.420
2020/01/31 08:02:02.4	314.250	-0.460	0.390	-0.430
2020/01/31 08:02:02.5	314.250	-0.440	0.370	-0.440
2020/01/31 08:02:02.6	314.240	-0.430	0.360	-0.440
2020/01/31 08:02:02.7	314.240	-0.410	0.330	-0.450
2020/01/31 08:02:02.8	314.240	-0.390	0.310	-0.450
2020/01/31 08:02:02.9	314.230	-0.360	0.280	-0.460
2020/01/31 08:02:03.0	314.230	-0.330	0.250	-0.460
2020/01/31 08:02:03.1	314.230	-0.310	0.210	-0.460
2020/01/31 08:02:03.2	314.230	-0.280	0.170	-0.470
2020/01/31 08:02:03.3	314.230	-0.240	0.130	-0.470
2020/01/31 08:02:03.4	314.240	-0.210	0.080	-0.470
2020/01/31 08:02:03.5	314.240	-0.170	0.030	-0.470
2020/01/31 08:02:03.6	314.250	-0.140	-0.020	-0.470
2020/01/31 08:02:03.7	314.260	-0.100	-0.070	-0.470
2020/01/31 08:02:03.8	314.270	-0.060	-0.130	-0.470
2020/01/31 08:02:03.9	314.280	-0.020	-0.190	-0.460
2020/01/31 08:02:04.0	314.300	0.020	-0.240	-0.460
2020/01/31 08:02:04.1	314.310	0.050	-0.300	-0.450
2020/01/31 08:02:04.2	314.320	0.090	-0.360	-0.450
2020/01/31 08:02:04.3	314.330	0.130	-0.420	-0.440
2020/01/31 08:02:04.4	314.350	0.160	-0.480	-0.430
2020/01/31 08:02:04.5	314.360	0.200	-0.540	-0.420
2020/01/31 08:02:04.6	314.380	0.230	-0.590	-0.410
2020/01/31 08:02:04.7	314.390	0.260	-0.640	-0.390
2020/01/31 08:02:04.8	314.400	0.290	-0.690	-0.380
2020/01/31 08:02:04.9	314.410	0.320	-0.730	-0.360
2020/01/31 08:02:05.0	314.420	0.350	-0.770	-0.330
2020/01/31 08:02:05.1	314.430	0.370	-0.810	-0.310
2020/01/31 08:02:05.2	314.440	0.390	-0.850	-0.290
2020/01/31 08:02:05.3	314.450	0.410	-0.870	-0.260
2020/01/31 08:02:05.4	314.450	0.430	-0.900	-0.230
2020/01/31 08:02:05.5	314.460	0.450	-0.920	-0.200
2020/01/31 08:02:05.6	314.460	0.460	-0.940	-0.170
2020/01/31 08:02:05.7	314.470	0.470	-0.960	-0.140
2020/01/31 08:02:05.8	314.470	0.480	-0.970	-0.120
2020/01/31 08:02:05.9	314.480	0.480	-0.980	-0.090
2020/01/31 08:02:06.0	314.480	0.490	-0.990	-0.060
2020/01/31 08:02:06.1	314.480	0.490	-0.990	-0.030
2020/01/31 08:02:06.2	314.490	0.490	-0.990	-0.010
2020/01/31 08:02:06.3	314.500	0.480	-1.000	0.020
2020/01/31 08:02:06.4	314.510	0.480	-1.000	0.040
2020/01/31 08:02:06.5	314.510	0.480	-0.990	0.060
2020/01/31 08:02:06.6	314.520	0.470	-0.990	0.080
2020/01/31 08:02:06.7	314.530	0.460	-0.990	0.100
2020/01/31 08:02:06.8	314.530	0.450	-0.980	0.110
2020/01/31 08:02:06.9	314.540	0.450	-0.970	0.120
2020/01/31 08:02:07.0	314.550	0.440	-0.960	0.140
2020/01/31 08:02:07.1	314.560	0.430	-0.950	0.150
2020/01/31 08:02:07.2	314.580	0.410	-0.940	0.160
2020/01/31 08:02:07.3	314.580	0.400	-0.930	0.170
2020/01/31 08:02:07.4	314.590	0.390	-0.910	0.170
2020/01/31 08:02:07.5	314.610	0.380	-0.890	0.180
2020/01/31 08:02:07.6	314.620	0.370	-0.870	0.190
2020/01/31 08:02:07.7	314.630	0.360	-0.850	0.200
2020/01/31 08:02:07.8	314.640	0.340	-0.820	0.200
2020/01/31 08:02:07.9	314.660	0.330	-0.790	0.210
2020/01/31 08:02:08.0	314.670	0.320	-0.760	0.220
2020/01/31 08:02:08.1	314.680	0.310	-0.730	0.230
2020/01/31 08:02:08.2	314.690	0.300	-0.690	0.240
2020/01/31 08:02:08.3	314.700	0.290	-0.650	0.250
2020/01/31 08:02:08.4	314.710	0.270	-0.610	0.260
2020/01/31 08:02:08.5	314.710	0.260	-0.570	0.270
2020/01/31 08:02:08.6	314.720	0.250	-0.520	0.280
2020/01/31 08:02:08.7	314.730	0.240	-0.480	0.290
2020/01/31 08:02:08.8	314.740	0.230	-0.430	0.300
2020/01/31 08:02:08.9	314.740	0.220	-0.390	0.320
2020/01/31 08:02:09.0	314.750	0.210	-0.340	0.330
2020/01/31 08:02:09.1	314.750	0.210	-0.300	0.340
2020/01/31 08:02:09.2	314.750	0.200	-0.250	0.360
2020/01/31 08:02:09.3	314.750	0.190	-0.210	0.380
2020/01/31 08:02:09.4	314.750	0.180	-0.170	0.390
2020/01/31 08:02:09.5	314.750	0.170	-0.130	0.400
2020/01/31 08:02:09.6	314.750	0.160	-0.090	0.410
2020/01/31 08:02:09.7	314.750	0.150	-0.050	0.420
2020/01/31 08:02:09.8	314.740	0.150	-0.020	0.430
2020/01/31 08:02:09.9	314.740	0.140	0.020	0.440
2020/01/31 08:02:10.0	314.730	0.130	0.050	0.450
2020/01/31 08:02:10.1	314.730	0.120	0.080	0.450
2020/01/31 08:02:10.2	314.720	0.110	0.100	0.460
2020/01/31 08:02:10.3	314.720	0.100	0.130	0.450
2020/01/31 08:02:10.4	314.720	0.090	0.150	0.450
2020/01/31 08:02:10.5	314.710	0.080	0.170	0.450
2020/01/31 08:02:10.6	314.700	0.070	0.190	0.450
2020/01/31 08:02:10.7	314.690	0.050	0.200	0.450
2020/01/31 08:02:10.8	314.680	0.040	0.220	0.440
2020/01/31 08:02:10.9	314.670	0.030	0.230	0.430
2020/01/31 08:02:11.0	314.660	0.010	0.240	0.420
2020/01/31 08:02:11.1	314.640	-0.000	0.250	0.410
2020/01/31 08:02:11.2	314.630	-0.020	0.260	0.400
2020/01/31 08:02:11.3	314.620	-0.030	0.260	0.390
2020/01/31 08:02:11.4	314.610	-0.050	0.270	0.370
2020/01/31 08:02:11.5	314.590	-0.070	0.280	0.350
2020/01/31 08:02:11.6	314.580	-0.090	0.290	0.330
2020/01/31 08:02:11.7	314.560	-0.100	0.290	0.310
2020/01/31 08:02:11.8	314.540	-0.120	0.300	0.290
2020/01/31 08:02:11.9	314.530	-0.140	0.310	0.270
2020/01/31 08:02:12.0	314.510	-0.160	0.320	0.240
2020/01/31 08:02:12.1	314.490	-0.180	0.320	0.220
2020/01/31 08:02:12.2	314.470	-0.200	0.330	0.200
2020/01/31 08:02:12.3	314.450	-0.220	0.340	0.170
2020/01/31 08:02:12.4	314.430	-0.230	0.340	0.140
2020/01/31 08:02:12.5	314.410	-0.250	0.350	0.120
2020/01/31 08:02:12.6	314.390	-0.270	0.350	0.090
2020/01/31 08:02:12.7	314.360	-0.290	0.360	0.070
2020/01/31 08:02:12.8	314.340	-0.300	0.360	0.040
2020/01/31 08:02:12.9	314.320	-0.320	0.360	0.010
2020/01/31 08:02:13.0	314.300	-0.330	0.360	-0.020
2020/01/31 08:02:13.1	314.280	-0.340	0.360	-0.050
2020/01/31 08:02:13.2	314.270	-0.360	0.350	-0.080
2020/01/31 08:02:13.3	314.260	-0.370	0.340	-0.120
2020/01/31 08:02:13.4	314.240	-0.380	0.330	-0.150
2020/01/31 08:02:13.5	314.230	-0.380	0.320	-0.180
2020/01/31 08:02:13.6	314.210	-0.390	0.310	-0.220
2020/01/31 08:02:13.7	314.200	-0.390	0.290	-0.250
2020/01/31 08:02:13.8	314.190	-0.400	0.270	-0.290
2020/01/31 08:02:13.9	314.190	-0.400	0.250	-0.320
2020/01/31 08:02:14.0	314.180	-0.400	0.220	-0.360
2020/01/31 08:02:14.1	314.170	-0.400	0.190	-0.400
2020/01/31 08:02:14.2	314.170	-0.400	0.160	-0.430
2020/01/31 08:02:14.3	314.160	-0.400	0.130	-0.470
2020/01/31 08:02:14.4	314.160	-0.390	0.100	-0.510
2020/01/31 08:02:14.5	314.160	-0.390	0.060	-0.550
2020/01/31 08:02:14.6	314.160	-0.380	0.020	-0.580
2020/01/31 08:02:14.7	314.160	-0.380	-0.020	-0.620
2020/01/31 08:02:14.8	314.160	-0.370	-0.060	-0.660
2020/01/31 08:02:14.9	314.170	-0.370	-0.100	-0.700
2020/01/31 08:02:15.0	314.170	-0.360	-0.140	-0.740
2020/01/31 08:02:15.1	314.180	-0.350	-0.180	-0.780
2020/01/31 08:02:15.2	314.190	-0.350	-0.230	-0.820
2020/01/31 08:02:15.3	314.210	-0.340	-0.280	-0.860
2020/01/31 08:02:15.4	314.220	-0.330	-0.320	-0.900
2020/01/31 08:02:15.5	314.230	-0.320	-0.360	-0.940
2020/01/31 08:02:15.6	314.240	-0.320	-0.400	-0.980
2020/01/31 08:02:15.7	314.260	-0.310	-0.450	-1.020
2020/01/31 08:02:15.8	314.280	-0.300	-0.480	-1.060
2020/01/31 08:02:15.9	314.290	-0.300	-0.520	-1.090
2020/01/31 08:02:16.0	314.310	-0.290	-0.560	-1.130
2020/01/31 08:02:16.1	314.330	-0.290	-0.590	-1.160
2020/01/31 08:02:16.2	314.350	-0.280	-0.620	-1.190
2020/01/31 08:02:16.3	314.370	-0.280	-0.640	-1.210
2020/01/31 08:02:16.4	314.390	-0.270	-0.660	-1.240
2020/01/31 08:02:16.5	314.410	-0.270	-0.680	-1.260
2020/01/31 08:02:16.6	314.440	-0.260	-0.690	-1.270
2020/01/31 08:02:16.7	314.470	-0.260	-0.700	-1.290
2020/01/31 08:02:16.8	314.490	-0.260	-0.710	-1.290
2020/01/31 08:02:16.9	314.520	-0.250	-0.710	-1.300
2020/01/31 08:02:17.0	314.550	-0.250	-0.710	-1.300
2020/01/31 08:02:17.1	314.570	-0.250	-0.700	-1.290
2020/01/31 08:02:17.2	314.600	-0.240	-0.690	-1.290
2020/01/31 08:02:17.3	314.610	-0.240	-0.680	-1.270
2020/01/31 08:02:17.4	314.640	-0.230	-0.660	-1.260
2020/01/31 08:02:17.5	314.660	-0.230	-0.630	-1.230
2020/01/31 08:02:17.6	314.680	-0.230	-0.610	-1.210
2020/01/31 08:02:17.7	314.700	-0.220	-0.580	-1.180
2020/01/31 08:02:17.8	314.720	-0.220	-0.550	-1.140
2020/01/31 08:02:17.9	314.740	-0.210	-0.520	-1.110
2020/01/31 08:02:18.0	314.750	-0.200	-0.480	-1.060
2020/01/31 08:02:18.1	314.770	-0.200	-0.450	-1.020
2020/01/31 08:02:18.2	314.780	-0.190	-0.410	-0.970
2020/01/31 08:02:18.3	314.790	-0.180	-0.370	-0.920
2020/01/31 08:02:18.4	314.800	-0.170	-0.340	-0.870
2020/01/31 08:02:18.5	314.810	-0.160	-0.300	-0.810
2020/01/31 08:02:18.6	314.810	-0.150	-0.270	-0.750
2020/01/31 08:02:18.7	314.810	-0.130	-0.240	-0.690
2020/01/31 08:02:18.8	314.820	-0.120	-0.210	-0.630
2020/01/31 08:02:18.9	314.810	-0.100	-0.180	-0.560
2020/01/31 08:02:19.0	314.810	-0.090	-0.160	-0.500
2020/01/31 08:02:19.1	314.810	-0.070	-0.140	-0.430
2020/01/31 08:02:19.2	314.810	-0.050	-0.120	-0.370
2020/01/31 08:02:19.3	314.810	-0.030	-0.110	-0.300
2020/01/31 08:02:19.4	314.800	-0.010	-0.100	-0.230
2020/01/31 08:02:19.5	314.800	0.020	-0.100	-0.170
2020/01/31 08:02:19.6	314.790	0.040	-0.100	-0.110
2020/01/31 08:02:19.7	314.790	0.070	-0.100	-0.050
2020/01/31 08:02:19.8	314.780	0.090	-0.110	0.010
2020/01/31 08:02:19.9	314.780	0.120	-0.130	0.060
2020/01/31 08:02:20.0	314.770	0.150	-0.140	0.120
2020/01/31 08:02:20.1	314.770	0.180	-0.170	0.170
2020/01/31 08:02:20.2	314.760	0.210	-0.190	0.210
2020/01/31 08:02:20.3	314.760	0.240	-0.210	0.260
2020/01/31 08:02:20.4	314.750	0.270	-0.240	0.300
2020/01/31 08:02:20.5	314.750	0.290	-0.280	0.340
2020/01/31 08:02:20.6	314.750	0.320	-0.310	0.380
2020/01/31 08:02:20.7	314.750	0.350	-0.350	0.410
2020/01/31 08:02:20.8	314.750	0.380	-0.380	0.440
2020/01/31 08:02:20.9	314.750	0.410	-0.420	0.470
2020/01/31 08:02:21.0	314.750	0.440	-0.450	0.500
2020/01/31 08:02:21.1	314.750	0.460	-0.490	0.520
2020/01/31 08:02:21.2	314.750	0.490	-0.520	0.550
2020/01/31 08:02:21.3	314.750	0.510	-0.560	0.570
2020/01/31 08:02:21.4	314.740	0.530	-0.590	0.590
2020/01/31 08:02:21.5	314.740	0.550	-0.610	0.610
2020/01/31 08:02:21.6	314.740	0.570	-0.640	0.620
2020/01/31 08:02:21.7	314.740	0.580	-0.650	0.640
2020/01/31 08:02:21.8	314.740	0.600	-0.670	0.660
2020/01/31 08:02:21.9	314.730	0.610	-0.680	0.670
2020/01/31 08:02:22.0	314.730	0.620	-0.690	0.680
2020/01/31 08:02:22.1	314.730	0.620	-0.700	0.690
2020/01/31 08:02:22.2	314.730	0.630	-0.700	0.700
2020/01/31 08:02:22.3	314.730	0.630	-0.700	0.710
2020/01/31 08:02:22.4	314.730	0.630	-0.690	0.710
2020/01/31 08:02:22.5	314.730	0.630	-0.690	0.710
2020/01/31 08:02:22.6	314.730	0.620	-0.680	0.710
2020/01/31 08:02:22.7	314.730	0.610	-0.670	0.700
2020/01/31 08:02:22.8	314.730	0.600	-0.650	0.690
2020/01/31 08:02:22.9	314.740	0.590	-0.640	0.680
2020/01/31 08:02:23.0	314.740	0.580	-0.620	0.660
2020/01/31 08:02:23.1	314.740	0.560	-0.610	0.640
2020/01/31 08:02:23.2	314.750	0.540	-0.590	0.620
2020/01/31 08:02:23.3	314.740	0.520	-0.570	0.600
2020/01/31 08:02:23.4	314.740	0.490	-0.550	0.570
2020/01/31 08:02:23.5	314.740	0.470	-0.520	0.550
2020/01/31 08:02:23.6	314.740	0.440	-0.500	0.520
2020/01/31 08:02:23.7	314.750	0.410	-0.480	0.490
2020/01/31 08:02:23.8	314.750	0.380	-0.450	0.450
2020/01/31 08:02:23.9	314.750	0.350	-0.430	0.420
2020/01/31 08:02:24.0	314.750	0.310	-0.400	0.390
2020/01/31 08:02:24.1	314.750	0.280	-0.370	0.350
2020/01/31 08:02:24.2	314.750	0.240	-0.350	0.320
2020/01/31 08:02:24.3	314.740	0.210	-0.320	0.280
2020/01/31 08:02:24.4	314.740	0.170	-0.290	0.250
2020/01/31 08:02:24.5	314.730	0.130	-0.270	0.210
2020/01/31 08:02:24.6	314.730	0.090	-0.240	0.180
2020/01/31 08:02:24.7	314.720	0.060	-0.210	0.150
2020/01/31 08:02:24.8	314.710	0.020	-0.180	0.110
2020/01/31 08:02:24.9	314.710	-0.020	-0.160	0.080
2020/01/31 08:02:25.0	314.700	-0.060	-0.130	0.040
2020/01/31 08:02:25.1	314.690	-0.090	-0.100	0.000
2020/01/31 08:02:25.2	314.680	-0.130	-0.080	-0.030
2020/01/31 08:02:25.3	314.680	-0.160	-0.050	-0.070
2020/01/31 08:02:25.4	314.670	-0.190	-0.030	-0.100
2020/01/31 08:02:25.5	314.660	-0.220	-0.010	-0.140
2020/01/31 08:02:25.6	314.650	-0.250	0.020	-0.180
2020/01/31 08:02:25.7	314.640	-0.280	0.040	-0.220
2020/01/31 08:02:25.8	314.630	-0.300	0.070	-0.260
2020/01/31 08:02:25.9	314.630	-0.330	0.090	-0.300
2020/01/31 08:02:26.0	314.620	-0.350	0.110	-0.330
2020/01/31 08:02:26.1	314.610	-0.370	0.130	-0.370
2020/01/31 08:02:26.2	314.600	-0.380	0.160	-0.410
2020/01/31 08:02:26.3	314.590	-0.400	0.180	-0.440
2020/01/31 08:02:26.4	314.590	-0.410	0.200	-0.480
2020/01/31 08:02:26.5	314.580	-0.420	0.220	-0.510
2020/01/31 08:02:26.6	314.570	-0.430	0.240	-0.540
2020/01/31 08:02:26.7	314.550	-0.430	0.260	-0.570
2020/01/31 08:02:26.8	314.540	-0.440	0.280	-0.590
2020/01/31 08:02:26.9	314.530	-0.440	0.300	-0.620
2020/01/31 08:02:27.0	314.520	-0.440	0.310	-0.640
2020/01/31 08:02:27.1	314.510	-0.440	0.330	-0.660
2020/01/31 08:02:27.2	314.500	-0.430	0.340	-0.680
2020/01/31 08:02:27.3	314.480	-0.430	0.350	-0.690
2020/01/31 08:02:27.4	314.470	-0.420	0.360	-0.710
2020/01/31 08:02:27.5	314.460	-0.410	0.370	-0.720
2020/01/31 08:02:27.6	314.450	-0.400	0.370	-0.740
2020/01/31 08:02:27.7	314.450	-0.390	0.370	-0.750
2020/01/31 08:02:27.8	314.440	-0.380	0.360	-0.760
2020/01/31 08:02:27.9	314.430	-0.370	0.360	-0.770
2020/01/31 08:02:28.0	314.430	-0.360	0.350	-0.770
2020/01/31 08:02:28.1	314.430	-0.340	0.330	-0.780
2020/01/31 08:02:28.2	314.430	-0.330	0.320	-0.790
2020/01/31 08:02:28.3	314.430	-0.310	0.300	-0.790
2020/01/31 08:02:28.4	314.430	-0.300	0.280	-0.790
2020/01/31 08:02:28.5	314.440	-0.280	0.250	-0.790
2020/01/31 08:02:28.6	314.440	-0.260	0.230	-0.790
2020/01/31 08:02:28.7	314.450	-0.250	0.200	-0.790
2020/01/31 08:02:28.8	314.450	-0.230	0.180	-0.780
2020/01/31 08:02:28.9	314.460	-0.220	0.150	-0.770
2020/01/31 08:02:29.0	314.460	-0.200	0.120	-0.760
2020/01/31 08:02:29.1	314.460	-0.190	0.100	-0.750
2020/01/31 08:02:29.2	314.470	-0.170	0.070	-0.730
2020/01/31 08:02:29.3	314.480	-0.160	0.050	-0.710
2020/01/31 08:02:29.4	314.480	-0.150	0.030	-0.690
2020/01/31 08:02:29.5	314.480	-0.140	0.010	-0.660
2020/01/31 08:02:29.6	314.480	-0.130	-0.010	-0.630
2020/01/31 08:02:29.7	314.470	-0.120	-0.030	-0.590
2020/01/31 08:02:29.8	314.470	-0.110	-0.040	-0.560
2020/01/31 08:02:29.9	314.460	-0.100	-0.050	-0.520
2020/01/31 08:02:30.0	314.450	-0.100	-0.060	-0.480
2020/01/31 08:02:30.1	314.430	-0.090	-0.060	-0.430
2020/01/31 08:02:30.2	314.420	-0.090	-0.070	-0.390
2020/01/31 08:02:30.3	314.400	-0.080	-0.070	-0.340
2020/01/31 08:02:30.4	314.390	-0.080	-0.070	-0.290
2020/01/31 08:02:30.5	314.370	-0.080	-0.070	-0.250
2020/01/31 08:02:30.6	314.350	-0.070	-0.070	-0.200
2020/01/31 08:02:30.7	314.330	-0.070	-0.070	-0.150
2020/01/31 08:02:30.8	314.310	-0.070	-0.070	-0.110
2020/01/31 08:02:30.9	314.290	-0.070	-0.070	-0.060
2020/01/31 08:02:31.0	314.270	-0.070	-0.070	-0.010
2020/01/31 08:02:31.1	314.250	-0.070	-0.070	0.030
2020/01/31 08:02:31.2	314.240	-0.070	-0.080	0.070
2020/01/31 08:02:31.3	314.230	-0.070	-0.080	0.110
2020/01/31 08:02:31.4	314.210	-0.070	-0.090	0.150
2020/01/31 08:02:31.5	314.190	-0.070	-0.100	0.190
2020/01/31 08:02:31.6	314.180	-0.070	-0.110	0.220
2020/01/31 08:02:31.7	314.170	-0.070	-0.130	0.250
2020/01/31 08:02:31.8	314.150	-0.070	-0.150	0.280
2020/01/31 08:02:31.9	314.140	-0.060	-0.170	0.300
2020/01/31 08:02:32.0	314.140	-0.060	-0.200	0.320
2020/01/31 08:02:32.1	314.130	-0.050	-0.230	0.340
2020/01/31 08:02:32.2	314.120	-0.050	-0.260	0.360
2020/01/31 08:02:32.3	314.120	-0.040	-0.300	0.370
2020/01/31 08:02:32.4	314.120	-0.030	-0.340	0.370
2020/01/31 08:02:32.5	314.130	-0.020	-0.380	0.380
2020/01/31 08:02:32.6	314.130	-0.010	-0.420	0.380
2020/01/31 08:02:32.7	314.130	-0.000	-0.470	0.370
2020/01/31 08:02:32.8	314.140	0.010	-0.520	0.370
2020/01/31 08:02:32.9	314.150	0.020	-0.570	0.350
2020/01/31 08:02:33.0	314.160	0.030	-0.620	0.340
2020/01/31 08:02:33.1	314.170	0.040	-0.670	0.320
2020/01/31 08:02:33.2	314.180	0.060	-0.730	0.310
2020/01/31 08:02:33.3	314.200	0.070	-0.780	0.280
2020/01/31 08:02:33.4	314.210	0.080	-0.830	0.260
2020/01/31 08:02:33.5	314.230	0.100	-0.880	0.240
2020/01/31 08:02:33.6	314.250	0.110	-0.940	0.210
2020/01/31 08:02:33.7	314.270	0.120	-0.980	0.190
2020/01/31 08:02:33.8	314.280	0.130	-1.030	0.160
2020/01/31 08:02:33.9	314.300	0.150	-1.080	0.140
2020/01/31 08:02:34.0	314.320	0.160	-1.120	0.120
2020/01/31 08:02:34.1	314.340	0.170	-1.150	0.090
2020/01/31 08:02:34.2	314.360	0.180	-1.190	0.070
2020/01/31 08:02:34.3	314.380	0.180	-1.220	0.050
2020/01/31 08:02:34.4	314.400	0.190	-1.250	0.030
2020/01/31 08:02:34.5	314.420	0.200	-1.270	0.010
2020/01/31 08:02:34.6	314.440	0.200	-1.280	-0.010
2020/01/31 08:02:34.7	314.470	0.200	-1.300	-0.030
2020/01/31 08:02:34.8	314.490	0.210	-1.300	-0.050
2020/01/31 08:02:34.9	314.510	0.210	-1.310	-0.060
2020/01/31 08:02:35.0	314.530	0.210	-1.310	-0.080
2020/01/31 08:02:35.1	314.550	0.210	-1.300	-0.100
2020/01/31 08:02:35.2	314.580	0.210	-1.290	-0.120
2020/01/31 08:02:35.3	314.600	0.200	-1.270	-0.130
2020/01/31 08:02:35.4	314.620	0.200	-1.250	-0.150
2020/01/31 08:02:35.5	314.640	0.200	-1.230	-0.160
2020/01/31 08:02:35.6	314.670	0.190	-1.200	-0.180
2020/01/31 08:02:35.7	314.690	0.190	-1.170	-0.190
2020/01/31 08:02:35.8	314.710	0.180	-1.140	-0.210
2020/01/31 08:02:35.9	314.730	0.170	-1.100	-0.220
2020/01/31 08:02:36.0	314.750	0.170	-1.060	-0.240
2020/01/31 08:02:36.1	314.770	0.160	-1.010	-0.250
2020/01/31 08:02:36.2	314.790	0.160	-0.960	-0.260
2020/01/31 08:02:36.3	314.800	0.150	-0.910	-0.280
2020/01/31 08:02:36.4	314.820	0.140	-0.860	-0.280
2020/01/31 08:02:36.5	314.840	0.140	-0.800	-0.290
2020/01/31 08:02:36.6	314.850	0.130	-0.740	-0.300
2020/01/31 08:02:36.7	314.870	0.130	-0.680	-0.310
2020/01/31 08:02:36.8	314.880	0.120	-0.620	-0.310
2020/01/31 08:02:36.9	314.890	0.120	-0.550	-0.320
2020/01/31 08:02:37.0	314.910	0.110	-0.490	-0.320
2020/01/31 08:02:37.1	314.920	0.100	-0.420	-0.330
2020/01/31 08:02:37.2	314.930	0.100	-0.350	-0.330
2020/01/31 08:02:37.3	314.950	0.090	-0.280	-0.320
2020/01/31 08:02:37.4	314.950	0.090	-0.210	-0.320
2020/01/31 08:02:37.5	314.960	0.080	-0.140	-0.320
2020/01/31 08:02:37.6	314.970	0.080	-0.070	-0.310
2020/01/31 08:02:37.7	314.970	0.070	0.000	-0.310
2020/01/31 08:02:37.8	314.980	0.070	0.070	-0.300
2020/01/31 08:02:37.9	314.980	0.060	0.140	-0.290
2020/01/31 08:02:38.0	314.970	0.060	0.210	-0.270
2020/01/31 08:02:38.1	314.970	0.050	0.270	-0.250
2020/01/31 08:02:38.2	314.960	0.040	0.340	-0.230
2020/01/31 08:02:38.3	314.940	0.040	0.400	-0.220
2020/01/31 08:02:38.4	314.930	0.030	0.460	-0.190
2020/01/31 08:02:38.5	314.910	0.020	0.530	-0.160
2020/01/31 08:02:38.6	314.890	0.010	0.590	-0.130
2020/01/31 08:02:38.7	314.870	0.000	0.650	-0.100
2020/01/31 08:02:38.8	314.850	-0.010	0.700	-0.070
2020/01/31 08:02:38.9	314.820	-0.020	0.750	-0.040
2020/01/31 08:02:39.0	314.800	-0.030	0.800	-0.010
2020/01/31 08:02:39.1	314.770	-0.040	0.850	0.020
2020/01/31 08:02:39.2	314.740	-0.050	0.890	0.050
2020/01/31 08:02:39.3	314.710	-0.060	0.940	0.080
2020/01/31 08:02:39.4	314.680	-0.070	0.970	0.110
2020/01/31 08:02:39.5	314.640	-0.080	1.000	0.140
2020/01/31 08:02:39.6	314.610	-0.080	1.020	0.160
2020/01/31 08:02:39.7	314.570	-0.090	1.040	0.190
2020/01/31 08:02:39.8	314.530	-0.100	1.060	0.210
2020/01/31 08:02:39.9	314.490	-0.110	1.070	0.240
2020/01/31 08:02:40.0	314.450	-0.110	1.070	0.260
2020/01/31 08:02:40.1	314.410	-0.110	1.070	0.280
2020/01/31 08:02:40.2	314.370	-0.120	1.060	0.300
2020/01/31 08:02:40.3	314.330	-0.120	1.040	0.310
2020/01/31 08:02:40.4	314.290	-0.120	1.030	0.330
2020/01/31 08:02:40.5	314.250	-0.110	1.000	0.340
2020/01/31 08:02:40.6	314.210	-0.110	0.970	0.350
2020/01/31 08:02:40.7	314.170	-0.100	0.930	0.360
2020/01/31 08:02:40.8	314.130	-0.100	0.890	0.370
2020/01/31 08:02:40.9	314.100	-0.090	0.850	0.380
2020/01/31 08:02:41.0	314.060	-0.080	0.790	0.380
2020/01/31 08:02:41.1	314.020	-0.060	0.740	0.380
2020/01/31 08:02:41.2	313.990	-0.050	0.680	0.380
2020/01/31 08:02:41.3	313.960	-0.030	0.610	0.370
2020/01/31 08:02:41.4	313.930	-0.020	0.540	0.370
2020/01/31 08:02:41.5	313.900	0.000	0.460	0.350
2020/01/31 08:02:41.6	313.870	0.020	0.380	0.340
2020/01/31 08:02:41.7	313.850	0.040	0.300	0.320
2020/01/31 08:02:41.8	313.830	0.060	0.220	0.300
2020/01/31 08:02:41.9	313.810	0.090	0.130	0.270
2020/01/31 08:02:42.0	313.790	0.110	0.040	0.240
2020/01/31 08:02:42.1	313.780	0.130	-0.050	0.210
2020/01/31 08:02:42.2	313.760	0.150	-0.140	0.180
2020/01/31 08:02:42.3	313.750	0.170	-0.230	0.140
2020/01/31 08:02:42.4	313.740	0.190	-0.310	0.100
2020/01/31 08:02:42.5	313.740	0.210	-0.400	0.060
2020/01/31 08:02:42.6	313.730	0.220	-0.480	0.020
2020/01/31 08:02:42.7	313.730	0.240	-0.560	-0.030
2020/01/31 08:02:42.8	313.730	0.250	-0.640	-0.070
2020/01/31 08:02:42.9	313.730	0.260	-0.720	-0.120
2020/01/31 08:02:43.0	313.730	0.270	-0.790	-0.160
2020/01/31 08:02:43.1	313.730	0.280	-0.850	-0.210
2020/01/31 08:02:43.2	313.730	0.280	-0.910	-0.260
2020/01/31 08:02:43.3	313.740	0.280	-0.960	-0.310
2020/01/31 08:02:43.4	313.750	0.280	-1.010	-0.360
2020/01/31 08:02:43.5	313.750	0.280	-1.060	-0.410
2020/01/31 08:02:43.6	313.760	0.270	-1.090	-0.460
2020/01/31 08:02:43.7	313.770	0.260	-1.120	-0.510
2020/01/31 08:02:43.8	313.780	0.240	-1.150	-0.550
2020/01/31 08:02:43.9	313.800	0.230	-1.170	-0.600
2020/01/31 08:02:44.0	313.810	0.210	-1.180	-0.650
2020/01/31 08:02:44.1	313.820	0.180	-1.190	-0.690
2020/01/31 08:02:44.2	313.840	0.160	-1.190	-0.730
2020/01/31 08:02:44.3	313.870	0.130	-1.190	-0.770
2020/01/31 08:02:44.4	313.890	0.110	-1.180	-0.820
2020/01/31 08:02:44.5	313.900	0.080	-1.170	-0.850
2020/01/31 08:02:44.6	313.920	0.040	-1.150	-0.890
2020/01/31 08:02:44.7	313.940	0.010	-1.130	-0.920
2020/01/31 08:02:44.8	313.960	-0.020	-1.100	-0.960
2020/01/31 08:02:44.9	313.990	-0.060	-1.070	-0.990
2020/01/31 08:02:45.0	314.010	-0.090	-1.040	-1.020
2020/01/31 08:02:45.1	314.030	-0.120	-1.010	-1.040
2020/01/31 08:02:45.2	314.050	-0.160	-0.970	-1.070
2020/01/31 08:02:45.3	314.070	-0.190	-0.920	-1.090
2020/01/31 08:02:45.4	314.090	-0.230	-0.880	-1.110
2020/01/31 08:02:45.5	314.120	-0.260	-0.840	-1.130
2020/01/31 08:02:45.6	314.140	-0.290	-0.800	-1.140
2020/01/31 08:02:45.7	314.170	-0.320	-0.750	-1.160
2020/01/31 08:02:45.8	314.190	-0.350	-0.710	-1.170
2020/01/31 08:02:45.9	314.220	-0.380	-0.660	-1.170
2020/01/31 08:02:46.0	314.240	-0.400	-0.620	-1.180
2020/01/31 08:02:46.1	314.270	-0.420	-0.570	-1.180
2020/01/31 08:02:46.2	314.300	-0.440	-0.530	-1.180
2020/01/31 08:02:46.3	314.310	-0.460	-0.490	-1.180
2020/01/31 08:02:46.4	314.340	-0.480	-0.450	-1.170
2020/01/31 08:02:46.5	314.370	-0.490	-0.410	-1.160
2020/01/31 08:02:46.6	314.390	-0.510	-0.370	-1.150
2020/01/31 08:02:46.7	314.420	-0.520	-0.330	-1.140
2020/01/31 08:02:46.8	314.440	-0.520	-0.300	-1.120
2020/01/31 08:02:46.9	314.470	-0.530	-0.260	-1.100
2020/01/31 08:02:47.0	314.490	-0.530	-0.230	-1.070
2020/01/31 08:02:47.1	314.510	-0.540	-0.190	-1.050
2020/01/31 08:02:47.2	314.530	-0.540	-0.160	-1.020
2020/01/31 08:02:47.3	314.550	-0.540	-0.130	-0.980
2020/01/31 08:02:47.4	314.560	-0.530	-0.110	-0.940
2020/01/31 08:02:47.5	314.570	-0.530	-0.080	-0.900
2020/01/31 08:02:47.6	314.580	-0.520	-0.060	-0.860
2020/01/31 08:02:47.7	314.590	-0.510	-0.040	-0.820
2020/01/31 08:02:47.8	314.590	-0.500	-0.020	-0.770
2020/01/31 08:02:47.9	314.600	-0.490	0.000	-0.730
2020/01/31 08:02:48.0	314.590	-0.480	0.020	-0.680
2020/01/31 08:02:48.1	314.590	-0.460	0.030	-0.630
2020/01/31 08:02:48.2	314.580	-0.450	0.040	-0.570
2020/01/31 08:02:48.3	314.570	-0.430	0.060	-0.520
2020/01/31 08:02:48.4	314.560	-0.410	0.060	-0.460
2020/01/31 08:02:48.5	314.550	-0.390	0.070	-0.400
2020/01/31 08:02:48.6	314.530	-0.370	0.070	-0.340
2020/01/31 08:02:48.7	314.510	-0.350	0.070	-0.280
2020/01/31 08:02:48.8	314.490	-0.320	0.060	-0.220
2020/01/31 08:02:48.9	314.470	-0.300	0.060	-0.160
2020/01/31 08:02:49.0	314.450	-0.270	0.050	-0.100
2020/01/31 08:02:49.1	314.420	-0.240	0.040	-0.040
2020/01/31 08:02:49.2	314.400	-0.210	0.020	0.020
2020/01/31 08:02:49.3	314.360	-0.180	0.010	0.080
2020/01/31 08:02:49.4	314.340	-0.150	-0.020	0.130
2020/01/31 08:02:49.5	314.310	-0.110	-0.040	0.190
2020/01/31 08:02:49.6	314.290	-0.080	-0.070	0.240
2020/01/31 08:02:49.7	314.260	-0.040	-0.090	0.290
2020/01/31 08:02:49.8	314.240	-0.010	-0.120	0.340
2020/01/31 08:02:49.9	314.220	0.030	-0.160	0.380
2020/01/31 08:02:50.0	314.200	0.070	-0.190	0.420
2020/01/31 08:02:50.1	314.180	0.110	-0.220	0.460
2020/01/31 08:02:50.2	314.160	0.150	-0.250	0.500
2020/01/31 08:02:50.3	314.140	0.190	-0.290	0.530
2020/01/31 08:02:50.4	314.130	0.230	-0.320	0.560
2020/01/31 08:02:50.5	314.110	0.270	-0.350	0.590
2020/01/31 08:02:50.6	314.090	0.310	-0.380	0.620
2020/01/31 08:02:50.7	314.080	0.350	-0.410	0.640
2020/01/31 08:02:50.8	314.060	0.380	-0.430	0.670
2020/01/31 08:02:50.9	314.040	0.420	-0.450	0.690
2020/01/31 08:02:51.0	314.020	0.450	-0.470	0.710
2020/01/31 08:02:51.1	314.010	0.490	-0.480	0.730
2020/01/31 08:02:51.2	313.990	0.520	-0.480	0.750
2020/01/31 08:02:51.3	313.980	0.550	-0.490	0.770
2020/01/31 08:02:51.4	313.960	0.570	-0.490	0.790
2020/01/31 08:02:51.5	313.940	0.600	-0.480	0.800
2020/01/31 08:02:51.6	313.920	0.620	-0.470	0.810
2020/01/31 08:02:51.7	313.900	0.630	-0.460	0.830
2020/01/31 08:02:51.8	313.880	0.650	-0.450	0.830
2020/01/31 08:02:51.9	313.860	0.660	-0.430	0.840
2020/01/31 08:02:52.0	313.840	0.660	-0.400	0.850
2020/01/31 08:02:52.1	313.820	0.670	-0.380	0.850
2020/01/31 08:02:52.2	313.800	0.670	-0.350	0.850
2020/01/31 08:02:52.3	313.780	0.660	-0.320	0.850
2020/01/31 08:02:52.4	313.770	0.650	-0.290	0.840
2020/01/31 08:02:52.5	313.750	0.640	-0.260	0.830
2020/01/31 08:02:52.6	313.740	0.630	-0.230	0.820
2020/01/31 08:02:52.7	313.720	0.620	-0.200	0.800
2020/01/31 08:02:52.8	313.710	0.600	-0.170	0.780
2020/01/31 08:02:52.9	313.710	0.580	-0.140	0.750
2020/01/31 08:02:53.0	313.700	0.550	-0.110	0.730
2020/01/31 08:02:53.1	313.690	0.530	-0.090	0.700
2020/01/31 08:02:53.2	313.690	0.500	-0.060	0.670
2020/01/31 08:02:53.3	313.680	0.470	-0.040	0.630
2020/01/31 08:02:53.4	313.680	0.440	-0.020	0.590
2020/01/31 08:02:53.5	313.680	0.410	0.000	0.550
2020/01/31 08:02:53.6	313.680	0.380	0.020	0.510
2020/01/31 08:02:53.7	313.680	0.340	0.040	0.470
2020/01/31 08:02:53.8	313.680	0.310	0.060	0.430
2020/01/31 08:02:53.9	313.680	0.280	0.080	0.390
2020/01/31 08:02:54.0	313.690	0.240	0.090	0.340
2020/01/31 08:02:54.1	313.690	0.210	0.100	0.300
2020/01/31 08:02:54.2	313.690	0.180	0.110	0.260
2020/01/31 08:02:54.3	313.690	0.150	0.130	0.210
2020/01/31 08:02:54.4	313.700	0.110	0.140	0.170
2020/01/31 08:02:54.5	313.700	0.080	0.140	0.130
2020/01/31 08:02:54.6	313.700	0.050	0.150	0.080
2020/01/31 08:02:54.7	313.700	0.030	0.150	0.040
2020/01/31 08:02:54.8	313.690	0.000	0.160	0.010
2020/01/31 08:02:54.9	313.690	-0.020	0.160	-0.030
2020/01/31 08:02:55.0	313.690	-0.050	0.150	-0.070
2020/01/31 08:02:55.1	313.690	-0.070	0.150	-0.100
2020/01/31 08:02:55.2	313.690	-0.090	0.140	-0.140
2020/01/31 08:02:55.3	313.700	-0.110	0.130	-0.170
2020/01/31 08:02:55.4	313.690	-0.130	0.120	-0.200
2020/01/31 08:02:55.5	313.690	-0.140	0.110	-0.230
2020/01/31 08:02:55.6	313.680	-0.160	0.100	-0.260
2020/01/31 08:02:55.7	313.680	-0.170	0.080	-0.290
2020/01/31 08:02:55.8	313.680	-0.180	0.060	-0.320
2020/01/31 08:02:55.9	313.670	-0.190	0.040	-0.350
2020/01/31 08:02:56.0	313.670	-0.200	0.020	-0.380
2020/01/31 08:02:56.1	313.670	-0.210	-0.010	-0.410
2020/01/31 08:02:56.2	313.670	-0.220	-0.030	-0.440
2020/01/31 08:02:56.3	313.670	-0.220	-0.060	-0.480
2020/01/31 08:02:56.4	313.670	-0.230	-0.090	-0.510
2020/01/31 08:02:56.5	313.670	-0.230	-0.120	-0.540
2020/01/31 08:02:56.6	313.680	-0.240	-0.150	-0.580
2020/01/31 08:02:56.7	313.680	-0.240	-0.180	-0.620
2020/01/31 08:02:56.8	313.690	-0.240	-0.220	-0.650
2020/01/31 08:02:56.9	313.700	-0.250	-0.250	-0.690
2020/01/31 08:02:57.0	313.710	-0.250	-0.280	-0.730
2020/01/31 08:02:57.1	313.730	-0.250	-0.320	-0.780
2020/01/31 08:02:57.2	313.740	-0.250	-0.350	-0.820
2020/01/31 08:02:57.3	313.760	-0.250	-0.380	-0.860
2020/01/31 08:02:57.4	313.780	-0.250	-0.410	-0.910
2020/01/31 08:02:57.5	313.800	-0.260	-0.440	-0.950
2020/01/31 08:02:57.6	313.830	-0.260	-0.470	-0.990
2020/01/31 08:02:57.7	313.850	-0.260	-0.490	-1.030
2020/01/31 08:02:57.8	313.880	-0.260	-0.520	-1.070
2020/01/31 08:02:57.9	313.910	-0.260	-0.540	-1.100
2020/01/31 08:02:58.0	313.940	-0.260	-0.560	-1.140
2020/01/31 08:02:58.1	313.970	-0.270	-0.570	-1.170
2020/01/31 08:02:58.2	314.000	-0.270	-0.580	-1.200
2020/01/31 08:02:58.3	314.030	-0.270	-0.590	-1.240
2020/01/31 08:02:58.4	314.060	-0.270	-0.590	-1.260
2020/01/31 08:02:58.5	314.100	-0.280	-0.590	-1.280
2020/01/31 08:02:58.6	314.130	-0.280	-0.590	-1.300
2020/01/31 08:02:58.7	314.160	-0.280	-0.590	-1.320
2020/01/31 08:02:58.8	314.200	-0.280	-0.580	-1.330
2020/01/31 08:02:58.9	314.230	-0.290	-0.560	-1.340
2020/01/31 08:02:59.0	314.260	-0.290	-0.550	-1.350
2020/01/31 08:02:59.1	314.290	-0.290	-0.530	-1.350
2020/01/31 08:02:59.2	314.320	-0.300	-0.500	-1.350
2020/01/31 08:02:59.3	314.350	-0.300	-0.470	-1.340
2020/01/31 08:02:59.4	314.380	-0.300	-0.440	-1.330
2020/01/31 08:02:59.5	314.400	-0.310	-0.410	-1.310
2020/01/31 08:02:59.6	314.420	-0.310	-0.380	-1.290
2020/01/31 08:02:59.7	314.440	-0.310	-0.340	-1.260
2020/01/31 08:02:59.8	314.460	-0.310	-0.300	-1.220
2020/01/31 08:02:59.9	314.470	-0.310	-0.260	-1.190
2020/01/31 08:03:00.0	314.480	-0.310	-0.220	-1.150
2020/01/31 08:03:00.1	314.490	-0.310	-0.180	-1.100
2020/01/31 08:03:00.2	314.500	-0.310	-0.140	-1.050
2020/01/31 08:03:00.3	314.490	-0.300	-0.100	-0.990
2020/01/31 08:03:00.4	314.500	-0.300	-0.060	-0.940
2020/01/31 08:03:00.5	314.500	-0.290	-0.030	-0.880
2020/01/31 08:03:00.6	314.500	-0.290	-0.000	-0.820
2020/01/31 08:03:00.7	314.500	-0.280	0.020	-0.760
2020/01/31 08:03:00.8	314.490	-0.270	0.050	-0.700
2020/01/31 08:03:00.9	314.490	-0.260	0.060	-0.640
2020/01/31 08:03:01.0	314.480	-0.240	0.080	-0.570
2020/01/31 08:03:01.1	314.470	-0.230	0.090	-0.510
2020/01/31 08:03:01.2	314.470	-0.210	0.090	-0.450
2020/01/31 08:03:01.3	314.450	-0.190	0.090	-0.390
2020/01/31 08:03:01.4	314.440	-0.170	0.080	-0.320
2020/01/31 08:03:01.5	314.430	-0.140	0.070	-0.260
2020/01/31 08:03:01.6	314.420	-0.120	0.060	-0.200
2020/01/31 08:03:01.7	314.410	-0.090	0.040	-0.140
2020/01/31 08:03:01.8	314.390	-0.060	0.020	-0.080
2020/01/31 08:03:01.9	314.380	-0.030	-0.000	-0.020
2020/01/31 08:03:02.0	314.360	0.000	-0.030	0.040
2020/01/31 08:03:02.1	314.340	0.040	-0.060	0.090
2020/01/31 08:03:02.2	314.330	0.070	-0.090	0.150
2020/01/31 08:03:02.3	314.300	0.110	-0.120	0.210
2020/01/31 08:03:02.4	314.280	0.140	-0.150	0.260
2020/01/31 08:03:02.5	314.260	0.180	-0.190	0.320
2020/01/31 08:03:02.6	314.240	0.220	-0.220	0.380
2020/01/31 08:03:02.7	314.220	0.250	-0.250	0.430
2020/01/31 08:03:02.8	314.200	0.290	-0.290	0.480
2020/01/31 08:03:02.9	314.180	0.320	-0.320	0.530
2020/01/31 08:03:03.0	314.160	0.360	-0.360	0.590
2020/01/31 08:03:03.1	314.140	0.390	-0.390	0.630
2020/01/31 08:03:03.2	314.120	0.420	-0.420	0.680
2020/01/31 08:03:03.3	314.090	0.450	-0.450	0.720
2020/01/31 08:03:03.4	314.070	0.480	-0.480	0.760
2020/01/31 08:03:03.5	314.050	0.500	-0.510	0.790
2020/01/31 08:03:03.6	314.040	0.520	-0.530	0.820
2020/01/31 08:03:03.7	314.020	0.540	-0.560	0.850
2020/01/31 08:03:03.8	314.010	0.550	-0.580	0.870
2020/01/31 08:03:03.9	314.000	0.560	-0.600	0.880
2020/01/31 08:03:04.0	313.990	0.570	-0.620	0.890
2020/01/31 08:03:04.1	313.980	0.570	-0.640	0.890
2020/01/31 08:03:04.2	313.970	0.570	-0.650	0.890
2020/01/31 08:03:04.3	313.950	0.570	-0.670	0.880
2020/01/31 08:03:04.4	313.950	0.560	-0.680	0.870
2020/01/31 08:03:04.5	313.940	0.550	-0.690	0.850
2020/01/31 08:03:04.6	313.940	0.540	-0.700	0.830
2020/01/31 08:03:04.7	313.940	0.520	-0.700	0.800
2020/01/31 08:03:04.8	313.940	0.500	-0.700	0.770
2020/01/31 08:03:04.9	313.940	0.480	-0.700	0.730
2020/01/31 08:03:05.0	313.950	0.460	-0.700	0.700
2020/01/31 08:03:05.1	313.950	0.430	-0.690	0.650
2020/01/31 08:03:05.2	313.960	0.400	-0.680	0.610
2020/01/31 08:03:05.3	313.980	0.360	-0.670	0.550
2020/01/31 08:03:05.4	313.990	0.330	-0.660	0.500
2020/01/31 08:03:05.5	314.000	0.290	-0.640	0.450
2020/01/31 08:03:05.6	314.010	0.260	-0.630	0.390
2020/01/31 08:03:05.7	314.030	0.220	-0.610	0.330
2020/01/31 08:03:05.8	314.040	0.180	-0.590	0.270
2020/01/31 08:03:05.9	314.060	0.140	-0.560	0.220
2020/01/31 08:03:06.0	314.070	0.100	-0.540	0.150
2020/01/31 08:03:06.1	314.090	0.060	-0.510	0.090
2020/01/31 08:03:06.2	314.100	0.020	-0.480	0.030
2020/01/31 08:03:06.3	314.110	-0.020	-0.460	-0.020
2020/01/31 08:03:06.4	314.130	-0.060	-0.430	-0.080
2020/01/31 08:03:06.5	314.140	-0.100	-0.400	-0.140
2020/01/31 08:03:06.6	314.160	-0.140	-0.370	-0.200
2020/01/31 08:03:06.7	314.170	-0.170	-0.330	-0.260
2020/01/31 08:03:06.8	314.180	-0.210	-0.300	-0.320
2020/01/31 08:03:06.9	314.190	-0.240	-0.280	-0.380
2020/01/31 08:03:07.0	314.210	-0.270	-0.250	-0.430
2020/01/31 08:03:07.1	314.220	-0.290	-0.220	-0.490
2020/01/31 08:03:07.2	314.230	-0.320	-0.190	-0.540
2020/01/31 08:03:07.3	314.230	-0.340	-0.160	-0.600
2020/01/31 08:03:07.4	314.240	-0.360	-0.140	-0.650
2020/01/31 08:03:07.5	314.250	-0.380	-0.120	-0.700
2020/01/31 08:03:07.6	314.260	-0.390	-0.100	-0.740
2020/01/31 08:03:07.7	314.270	-0.400	-0.080	-0.780
2020/01/31 08:03:07.8	314.280	-0.410	-0.060	-0.820
2020/01/31 08:03:07.9	314.290	-0.420	-0.040	-0.860
2020/01/31 08:03:08.0	314.300	-0.420	-0.030	-0.900
2020/01/31 08:03:08.1	314.310	-0.430	-0.010	-0.930
2020/01/31 08:03:08.2	314.310	-0.420	-0.000	-0.960
2020/01/31 08:03:08.3	314.330	-0.420	0.000	-0.980
2020/01/31 08:03:08.4	314.340	-0.410	0.010	-1.010
2020/01/31 08:03:08.5	314.350	-0.410	0.020	-1.030
2020/01/31 08:03:08.6	314.360	-0.400	0.030	-1.040
2020/01/31 08:03:08.7	314.360	-0.380	0.040	-1.050
2020/01/31 08:03:08.8	314.370	-0.370	0.040	-1.060
2020/01/31 08:03:08.9	314.380	-0.350	0.050	-1.070
2020/01/31 08:03:09.0	314.390	-0.330	0.060	-1.070
2020/01/31 08:03:09.1	314.400	-0.310	0.060	-1.070
2020/01/31 08:03:09.2	314.400	-0.290	0.070	-1.060
2020/01/31 08:03:09.3	314.410	-0.270	0.080	-1.050
2020/01/31 08:03:09.4	314.410	-0.250	0.080	-1.040
2020/01/31 08:03:09.5	314.420	-0.230	0.090	-1.020
2020/01/31 08:03:09.6	314.420	-0.200	0.100	-1.010
2020/01/31 08:03:09.7	314.430	-0.180	0.110	-0.990
2020/01/31 08:03:09.8	314.430	-0.160	0.110	-0.960
2020/01/31 08:03:09.9	314.440	-0.140	0.120	-0.940
2020/01/31 08:03:10.0	314.440	-0.110	0.130	-0.910
2020/01/31 08:03:10.1	314.440	-0.090	0.140	-0.890
2020/01/31 08:03:10.2	314.440	-0.070	0.150	-0.860
2020/01/31 08:03:10.3	314.440	-0.050	0.150	-0.830
2020/01/31 08:03:10.4	314.440	-0.030	0.160	-0.790
2020/01/31 08:03:10.5	314.440	-0.020	0.170	-0.760
2020/01/31 08:03:10.6	314.450	0.000	0.170	-0.730
2020/01/31 08:03:10.7	314.450	0.020	0.180	-0.700
2020/01/31 08:03:10.8	314.450	0.030	0.180	-0.660
2020/01/31 08:03:10.9	314.450	0.040	0.180	-0.630
2020/01/31 08:03:11.0	314.460	0.060	0.180	-0.600
2020/01/31 08:03:11.1	314.460	0.070	0.180	-0.560
2020/01/31 08:03:11.2	314.470	0.070	0.180	-0.530
2020/01/31 08:03:11.3	314.470	0.080	0.180	-0.510
2020/01/31 08:03:11.4	314.480	0.090	0.170	-0.480
2020/01/31 08:03:11.5	314.480	0.100	0.160	-0.450
2020/01/31 08:03:11.6	314.490	0.100	0.150	-0.420
2020/01/31 08:03:11.7	314.490	0.100	0.140	-0.400
2020/01/31 08:03:11.8	314.500	0.110	0.130	-0.380
2020/01/31 08:03:11.9	314.500	0.110	0.110	-0.360
2020/01/31 08:03:12.0	314.500	0.110	0.100	-0.340
2020/01/31 08:03:12.1	314.510	0.110	0.080	-0.320
2020/01/31 08:03:12.2	314.510	0.120	0.060	-0.300
2020/01/31 08:03:12.3	314.510	0.120	0.040	-0.280
2020/01/31 08:03:12.4	314.510	0.120	0.030	-0.260
2020/01/31 08:03:12.5	314.500	0.120	0.010	-0.240
2020/01/31 08:03:12.6	314.500	0.130	-0.020	-0.220
2020/01/31 08:03:12.7	314.500	0.130	-0.040	-0.210
2020/01/31 08:03:12.8	314.500	0.130	-0.060	-0.190
2020/01/31 08:03:12.9	314.490	0.140	-0.080	-0.160
2020/01/31 08:03:13.0	314.490	0.140	-0.100	-0.140
2020/01/31 08:03:13.1	314.480	0.150	-0.120	-0.120
2020/01/31 08:03:13.2	314.480	0.150	-0.150	-0.100
2020/01/31 08:03:13.3	314.470	0.160	-0.170	-0.080
2020/01/31 08:03:13.4	314.470	0.170	-0.190	-0.050
2020/01/31 08:03:13.5	314.460	0.180	-0.220	-0.030
2020/01/31 08:03:13.6	314.450	0.180	-0.240	-0.010
2020/01/31 08:03:13.7	314.450	0.190	-0.270	0.020
2020/01/31 08:03:13.8	314.440	0.210	-0.290	0.040
2020/01/31 08:03:13.9	314.440	0.220	-0.320	0.060
2020/01/31 08:03:14.0	314.440	0.230	-0.340	0.080
2020/01/31 08:03:14.1	314.440	0.240	-0.370	0.100
2020/01/31 08:03:14.2	314.430	0.250	-0.390	0.110
2020/01/31 08:03:14.3	314.440	0.270	-0.420	0.130
2020/01/31 08:03:14.4	314.440	0.280	-0.450	0.140
2020/01/31 08:03:14.5	314.440	0.290	-0.470	0.150
2020/01/31 08:03:14.6	314.440	0.300	-0.490	0.160
2020/01/31 08:03:14.7	314.440	0.320	-0.520	0.170
2020/01/31 08:03:14.8	314.450	0.330	-0.540	0.180
2020/01/31 08:03:14.9	314.450	0.340	-0.560	0.180
2020/01/31 08:03:15.0	314.450	0.350	-0.580	0.190
2020/01/31 08:03:15.1	314.450	0.360	-0.600	0.190
2020/01/31 08:03:15.2	314.460	0.360	-0.610	0.190
2020/01/31 08:03:15.3	314.440	0.370	-0.630	0.180
2020/01/31 08:03:15.4	314.440	0.370	-0.640	0.180
2020/01/31 08:03:15.5	314.450	0.370	-0.650	0.170
2020/01/31 08:03:15.6	314.450	0.370	-0.660	0.160
2020/01/31 08:03:15.7	314.450	0.370	-0.670	0.150
2020/01/31 08:03:15.8	314.450	0.360	-0.680	0.130
2020/01/31 08:03:15.9	314.460	0.350	-0.680	0.120
2020/01/31 08:03:16.0	314.460	0.340	-0.680	0.100
2020/01/31 08:03:16.1	314.470	0.330	-0.680	0.080
2020/01/31 08:03:16.2	314.470	0.310	-0.680	0.060
2020/01/31 08:03:16.3	314.470	0.290	-0.680	0.030
2020/01/31 08:03:16.4	314.470	0.270	-0.680	0.000
2020/01/31 08:03:16.5	314.480	0.250	-0.680	-0.020
2020/01/31 08:03:16.6	314.480	0.220	-0.670	-0.050
2020/01/31 08:03:16.7	314.480	0.190	-0.660	-0.080
2020/01/31 08:03:16.8	314.490	0.160	-0.650	-0.110
2020/01/31 08:03:16.9	314.490	0.130	-0.640	-0.140
2020/01/31 08:03:17.0	314.490	0.100	-0.630	-0.170
2020/01/31 08:03:17.1	314.490	0.060	-0.620	-0.200
2020/01/31 08:03:17.2	314.500	0.030	-0.610	-0.220
2020/01/31 08:03:17.3	314.500	-0.010	-0.590	-0.250
2020/01/31 08:03:17.4	314.500	-0.050	-0.570	-0.280
2020/01/31 08:03:17.5	314.510	-0.080	-0.560	-0.310
2020/01/31 08:03:17.6	314.510	-0.120	-0.540	-0.330
2020/01/31 08:03:17.7	314.510	-0.160	-0.520	-0.360
2020/01/31 08:03:17.8	314.510	-0.200	-0.500	-0.380
2020/01/31 08:03:17.9	314.510	-0.230	-0.490	-0.400
2020/01/31 08:03:18.0	314.510	-0.270	-0.470	-0.420
2020/01/31 08:03:18.1	314.510	-0.300	-0.450	-0.440
2020/01/31 08:03:18.2	314.510	-0.330	-0.430	-0.460
2020/01/31 08:03:18.3	314.500	-0.360	-0.410	-0.470
2020/01/31 08:03:18.4	314.500	-0.390	-0.390	-0.490
2020/01/31 08:03:18.5	314.490	-0.420	-0.370	-0.500
2020/01/31 08:03:18.6	314.490	-0.440	-0.350	-0.510
2020/01/31 08:03:18.7	314.480	-0.470	-0.330	-0.510
2020/01/31 08:03:18.8	314.480	-0.480	-0.310	-0.520
2020/01/31 08:03:18.9	314.470	-0.500	-0.280	-0.520
2020/01/31 08:03:19.0	314.460	-0.520	-0.260	-0.520
2020/01/31 08:03:19.1	314.450	-0.530	-0.240	-0.520
2020/01/31 08:03:19.2	314.450	-0.540	-0.220	-0.520
2020/01/31 08:03:19.3	314.440	-0.540	-0.200	-0.520
2020/01/31 08:03:19.4	314.430	-0.540	-0.190	-0.510
2020/01/31 08:03:19.5	314.420	-0.540	-0.170	-0.510
2020/01/31 08:03:19.6	314.410	-0.540	-0.150	-0.500
2020/01/31 08:03:19.7	314.400	-0.540	-0.140	-0.500
2020/01/31 08:03:19.8	314.390	-0.530	-0.130	-0.490
2020/01/31 08:03:19.9	314.380	-0.520	-0.110	-0.480
2020/01/31 08:03:20.0	314.370	-0.510	-0.100	-0.480
2020/01/31 08:03:20.1	314.360	-0.500	-0.100	-0.470
2020/01/31 08:03:20.2	314.350	-0.480	-0.090	-0.460
2020/01/31 08:03:20.3	314.350	-0.470	-0.080	-0.460
2020/01/31 08:03:20.4	314.340	-0.450	-0.080	-0.450
2020/01/31 08:03:20.5	314.330	-0.430	-0.070	-0.440
2020/01/31 08:03:20.6	314.320	-0.410	-0.070	-0.430
2020/01/31 08:03:20.7	314.310	-0.390	-0.070	-0.420
2020/01/31 08:03:20.8	314.300	-0.370	-0.070	-0.410
2020/01/31 08:03:20.9	314.290	-0.340	-0.070	-0.400
2020/01/31 08:03:21.0	314.280	-0.320	-0.070	-0.390
2020/01/31 08:03:21.1	314.270	-0.300	-0.070	-0.380
2020/01/31 08:03:21.2	314.260	-0.280	-0.080	-0.370
2020/01/31 08:03:21.3	314.250	-0.250	-0.080	-0.360
2020/01/31 08:03:21.4	314.250	-0.230	-0.080	-0.350
2020/01/31 08:03:21.5	314.240	-0.210	-0.090	-0.340
2020/01/31 08:03:21.6	314.240	-0.190	-0.090	-0.330
2020/01/31 08:03:21.7	314.240	-0.170	-0.100	-0.320
2020/01/31 08:03:21.8	314.240	-0.150	-0.100	-0.320
2020/01/31 08:03:21.9	314.250	-0.120	-0.110	-0.310
2020/01/31 08:03:22.0	314.250	-0.100	-0.110	-0.310
2020/01/31 08:03:22.1	314.260	-0.080	-0.120	-0.300
2020/01/31 08:03:22.2	314.270	-0.070	-0.120	-0.300
2020/01/31 08:03:22.3	314.280	-0.050	-0.130	-0.300
2020/01/31 08:03:22.4	314.290	-0.030	-0.130	-0.300
2020/01/31 08:03:22.5	314.310	-0.010	-0.130	-0.290
2020/01/31 08:03:22.6	314.320	0.000	-0.140	-0.290
2020/01/31 08:03:22.7	314.340	0.020	-0.140	-0.290
2020/01/31 08:03:22.8	314.360	0.030	-0.140	-0.280
2020/01/31 08:03:22.9	314.380	0.050	-0.140	-0.280
2020/01/31 08:03:23.0	314.400	0.060	-0.130	-0.270
2020/01/31 08:03:23.1	314.420	0.070	-0.130	-0.270
2020/01/31 08:03:23.2	314.440	0.080	-0.130	-0.260
2020/01/31 08:03:23.3	314.470	0.100	-0.120	-0.250
2020/01/31 08:03:23.4	314.490	0.110	-0.120	-0.240
2020/01/31 08:03:23.5	314.510	0.120	-0.110	-0.240
2020/01/31 08:03:23.6	314.540	0.130	-0.100	-0.230
2020/01/31 08:03:23.7	314.560	0.140	-0.100	-0.220
2020/01/31 08:03:23.8	314.580	0.140	-0.090	-0.210
2020/01/31 08:03:23.9	314.600	0.150	-0.080	-0.200
2020/01/31 08:03:24.0	314.620	0.160	-0.070	-0.190
2020/01/31 08:03:24.1	314.650	0.170	-0.060	-0.180
2020/01/31 08:03:24.2	314.670	0.180	-0.060	-0.160
2020/01/31 08:03:24.3	314.700	0.180	-0.050	-0.150
2020/01/31 08:03:24.4	314.720	0.190	-0.040	-0.140
2020/01/31 08:03:24.5	314.740	0.200	-0.040	-0.130
2020/01/31 08:03:24.6	314.760	0.200	-0.030	-0.120
2020/01/31 08:03:24.7	314.780	0.210	-0.030	-0.110
2020/01/31 08:03:24.8	314.810	0.220	-0.030	-0.100
2020/01/31 08:03:24.9	314.830	0.220	-0.020	-0.100
2020/01/31 08:03:25.0	314.850	0.230	-0.020	-0.090
2020/01/31 08:03:25.1	314.870	0.230	-0.020	-0.080
2020/01/31 08:03:25.2	314.880	0.240	-0.020	-0.070
2020/01/31 08:03:25.3	314.900	0.240	-0.020	-0.060
2020/01/31 08:03:25.4	314.910	0.250	-0.020	-0.060
2020/01/31 08:03:25.5	314.920	0.260	-0.020	-0.050
2020/01/31 08:03:25.6	314.930	0.260	-0.030	-0.050
2020/01/31 08:03:25.7	314.940	0.270	-0.030	-0.040
2020/01/31 08:03:25.8	314.950	0.270	-0.030	-0.030
2020/01/31 08:03:25.9	314.950	0.270	-0.030	-0.030
2020/01/31 08:03:26.0	314.960	0.280	-0.030	-0.020
2020/01/31 08:03:26.1	314.960	0.280	-0.030	-0.020
2020/01/31 08:03:26.2	314.960	0.290	-0.030	-0.010
2020/01/31 08:03:26.3	314.960	0.290	-0.030	-0.010
2020/01/31 08:03:26.4	314.960	0.290	-0.030	-0.000
2020/01/31 08:03:26.5	314.950	0.290	-0.030	0.000
2020/01/31 08:03:26.6	314.950	0.290	-0.030	0.000
2020/01/31 08:03:26.7	314.940	0.290	-0.030	0.010
2020/01/31 08:03:26.8	314.930	0.290	-0.040	0.010
2020/01/31 08:03:26.9	314.920	0.290	-0.040	0.010
2020/01/31 08:03:27.0	314.910	0.290	-0.040	0.010
2020/01/31 08:03:27.1	314.890	0.290	-0.050	0.010
2020/01/31 08:03:27.2	314.880	0.290	-0.050	0.000
2020/01/31 08:03:27.3	314.870	0.290	-0.060	0.000
2020/01/31 08:03:27.4	314.850	0.290	-0.070	-0.000
2020/01/31 08:03:27.5	314.840	0.280	-0.070	-0.010
2020/01/31 08:03:27.6	314.820	0.280	-0.080	-0.020
2020/01/31 08:03:27.7	314.800	0.280	-0.090	-0.020
2020/01/31 08:03:27.8	314.780	0.270	-0.100	-0.030
2020/01/31 08:03:27.9	314.750	0.270	-0.110	-0.040
2020/01/31 08:03:28.0	314.730	0.270	-0.130	-0.040
2020/01/31 08:03:28.1	314.710	0.270	-0.140	-0.050
2020/01/31 08:03:28.2	314.680	0.260	-0.150	-0.060
2020/01/31 08:03:28.3	314.640	0.260	-0.170	-0.070
2020/01/31 08:03:28.4	314.610	0.260	-0.180	-0.080
2020/01/31 08:03:28.5	314.580	0.260	-0.190	-0.080
2020/01/31 08:03:28.6	314.540	0.250	-0.210	-0.080
2020/01/31 08:03:28.7	314.510	0.250	-0.230	-0.090
2020/01/31 08:03:28.8	314.470	0.250	-0.240	-0.090
2020/01/31 08:03:28.9	314.440	0.250	-0.260	-0.090
2020/01/31 08:03:29.0	314.400	0.250	-0.280	-0.090
2020/01/31 08:03:29.1	314.370	0.240	-0.300	-0.100
2020/01/31 08:03:29.2	314.330	0.240	-0.320	-0.100
2020/01/31 08:03:29.3	314.270	0.240	-0.340	-0.100
2020/01/31 08:03:29.4	314.240	0.240	-0.360	-0.110
2020/01/31 08:03:29.5	314.200	0.240	-0.380	-0.110
2020/01/31 08:03:29.6	314.170	0.230	-0.400	-0.120
2020/01/31 08:03:29.7	314.140	0.230	-0.430	-0.130
2020/01/31 08:03:29.8	314.110	0.230	-0.450	-0.140
2020/01/31 08:03:29.9	314.080	0.220	-0.480	-0.150
2020/01/31 08:03:30.0	314.050	0.220	-0.510	-0.170
2020/01/31 08:03:30.1	314.030	0.210	-0.540	-0.190
2020/01/31 08:03:30.2	314.000	0.210	-0.570	-0.210
2020/01/31 08:03:30.3	313.990	0.200	-0.600	-0.230
2020/01/31 08:03:30.4	313.970	0.190	-0.630	-0.260
2020/01/31 08:03:30.5	313.950	0.180	-0.660	-0.290
2020/01/31 08:03:30.6	313.940	0.170	-0.690	-0.310
2020/01/31 08:03:30.7	313.930	0.150	-0.720	-0.340
2020/01/31 08:03:30.8	313.920	0.140	-0.750	-0.370
2020/01/31 08:03:30.9	313.920	0.120	-0.770	-0.410
2020/01/31 08:03:31.0	313.910	0.110	-0.800	-0.440
2020/01/31 08:03:31.1	313.910	0.090	-0.820	-0.470
2020/01/31 08:03:31.2	313.910	0.070	-0.840	-0.500
2020/01/31 08:03:31.3	313.930	0.050	-0.860	-0.530
2020/01/31 08:03:31.4	313.930	0.020	-0.880	-0.570
2020/01/31 08:03:31.5	313.940	-0.000	-0.890	-0.600
2020/01/31 08:03:31.6	313.950	-0.030	-0.900	-0.630
2020/01/31 08:03:31.7	313.960	-0.050	-0.910	-0.660
2020/01/31 08:03:31.8	313.970	-0.080	-0.910	-0.690
2020/01/31 08:03:31.9	313.990	-0.110	-0.910	-0.720
2020/01/31 08:03:32.0	314.010	-0.140	-0.910	-0.750
2020/01/31 08:03:32.1	314.020	-0.170	-0.900	-0.780
2020/01/31 08:03:32.2	314.050	-0.200	-0.890	-0.810
2020/01/31 08:03:32.3	314.070	-0.240	-0.870	-0.840
2020/01/31 08:03:32.4	314.090	-0.270	-0.850	-0.870
2020/01/31 08:03:32.5	314.120	-0.300	-0.830	-0.900
2020/01/31 08:03:32.6	314.140	-0.340	-0.800	-0.930
2020/01/31 08:03:32.7	314.170	-0.370	-0.770	-0.960
2020/01/31 08:03:32.8	314.200	-0.400	-0.740	-0.980
2020/01/31 08:03:32.9	314.230	-0.430	-0.700	-1.010
2020/01/31 08:03:33.0	314.260	-0.460	-0.660	-1.040
2020/01/31 08:03:33.1	314.290	-0.490	-0.620	-1.060
2020/01/31 08:03:33.2	314.320	-0.520	-0.570	-1.080
2020/01/31 08:03:33.3	314.350	-0.550	-0.520	-1.100
2020/01/31 08:03:33.4	314.380	-0.580	-0.470	-1.120
2020/01/31 08:03:33.5	314.410	-0.600	-0.420	-1.140
2020/01/31 08:03:33.6	314.440	-0.630	-0.370	-1.150
2020/01/31 08:03:33.7	314.470	-0.650	-0.320	-1.160
2020/01/31 08:03:33.8	314.500	-0.670	-0.270	-1.170
2020/01/31 08:03:33.9	314.530	-0.680	-0.220	-1.170
2020/01/31 08:03:34.0	314.550	-0.700	-0.170	-1.180
2020/01/31 08:03:34.1	314.580	-0.710	-0.120	-1.180
2020/01/31 08:03:34.2	314.600	-0.720	-0.070	-1.170
2020/01/31 08:03:34.3	314.630	-0.720	-0.030	-1.160
2020/01/31 08:03:34.4	314.650	-0.720	0.010	-1.150
2020/01/31 08:03:34.5	314.660	-0.720	0.050	-1.140
2020/01/31 08:03:34.6	314.680	-0.720	0.090	-1.120
2020/01/31 08:03:34.7	314.700	-0.720	0.130	-1.100
2020/01/31 08:03:34.8	314.710	-0.710	0.160	-1.080
2020/01/31 08:03:34.9	314.720	-0.690	0.190	-1.060
2020/01/31 08:03:35.0	314.730	-0.680	0.210	-1.030
2020/01/31 08:03:35.1	314.740	-0.660	0.240	-1.000
2020/01/31 08:03:35.2	314.750	-0.640	0.260	-0.960
2020/01/31 08:03:35.3	314.760	-0.610	0.280	-0.920
2020/01/31 08:03:35.4	314.770	-0.590	0.290	-0.890
2020/01/31 08:03:35.5	314.770	-0.560	0.300	-0.840
2020/01/31 08:03:35.6	314.780	-0.520	0.310	-0.800
2020/01/31 08:03:35.7	314.780	-0.490	0.320	-0.760
2020/01/31 08:03:35.8	314.780	-0.450	0.320	-0.710
2020/01/31 08:03:35.9	314.780	-0.410	0.330	-0.660
2020/01/31 08:03:36.0	314.780	-0.370	0.330	-0.610
2020/01/31 08:03:36.1	314.780	-0.330	0.320	-0.560
2020/01/31 08:03:36.2	314.770	-0.290	0.320	-0.510
2020/01/31 08:03:36.3	314.770	-0.250	0.320	-0.450
2020/01/31 08:03:36.4	314.770	-0.210	0.310	-0.400
2020/01/31 08:03:36.5	314.760	-0.160	0.310	-0.340
2020/01/31 08:03:36.6	314.750	-0.120	0.300	-0.290
2020/01/31 08:03:36.7	314.740	-0.080	0.290	-0.230
2020/01/31 08:03:36.8	314.730	-0.030	0.280	-0.180
2020/01/31 08:03:36.9	314.720	0.010	0.270	-0.120
2020/01/31 08:03:37.0	314.710	0.050	0.260	-0.070
2020/01/31 08:03:37.1	314.700	0.090	0.250	-0.020
2020/01/31 08:03:37.2	314.690	0.130	0.240	0.030
2020/01/31 08:03:37.3	314.670	0.160	0.230	0.080
2020/01/31 08:03:37.4	314.650	0.200	0.210	0.130
2020/01/31 08:03:37.5	314.640	0.230	0.200	0.180
2020/01/31 08:03:37.6	314.630	0.260	0.190	0.220
2020/01/31 08:03:37.7	314.610	0.290	0.180	0.260
2020/01/31 08:03:37.8	314.600	0.310	0.160	0.310
2020/01/31 08:03:37.9	314.580	0.340	0.150	0.340
2020/01/31 08:03:38.0	314.560	0.360	0.140	0.380
2020/01/31 08:03:38.1	314.540	0.380	0.130	0.420
2020/01/31 08:03:38.2	314.530	0.390	0.120	0.450
2020/01/31 08:03:38.3	314.510	0.410	0.110	0.480
2020/01/31 08:03:38.4	314.490	0.420	0.100	0.510
2020/01/31 08:03:38.5	314.470	0.420	0.090	0.540
2020/01/31 08:03:38.6	314.440	0.430	0.080	0.560
2020/01/31 08:03:38.7	314.420	0.430	0.080	0.580
2020/01/31 08:03:38.8	314.400	0.440	0.070	0.600
2020/01/31 08:03:38.9	314.380	0.440	0.060	0.620
2020/01/31 08:03:39.0	314.360	0.430	0.050	0.640
2020/01/31 08:03:39.1	314.340	0.430	0.040	0.650
2020/01/31 08:03:39.2	314.320	0.430	0.030	0.660
2020/01/31 08:03:39.3	314.300	0.420	0.020	0.660
2020/01/31 08:03:39.4	314.280	0.410	0.010	0.670
2020/01/31 08:03:39.5	314.270	0.400	-0.000	0.670
2020/01/31 08:03:39.6	314.250	0.400	-0.020	0.660
2020/01/31 08:03:39.7	314.240	0.390	-0.040	0.650
2020/01/31 08:03:39.8	314.230	0.380	-0.060	0.640
2020/01/31 08:03:39.9	314.220	0.370	-0.080	0.630
2020/01/31 08:03:40.0	314.210	0.360	-0.100	0.610
2020/01/31 08:03:40.1	314.200	0.350	-0.130	0.590
2020/01/31 08:03:40.2	314.200	0.340	-0.160	0.560
2020/01/31 08:03:40.3	314.190	0.330	-0.190	0.530
2020/01/31 08:03:40.4	314.190	0.320	-0.220	0.500
2020/01/31 08:03:40.5	314.190	0.310	-0.260	0.470
2020/01/31 08:03:40.6	314.190	0.300	-0.290	0.430
2020/01/31 08:03:40.7	314.190	0.290	-0.330	0.390
2020/01/31 08:03:40.8	314.190	0.280	-0.380	0.350
2020/01/31 08:03:40.9	314.190	0.280	-0.420	0.310
2020/01/31 08:03:41.0	314.190	0.270	-0.470	0.260
2020/01/31 08:03:41.1	314.190	0.260	-0.510	0.210
2020/01/31 08:03:41.2	314.190	0.260	-0.560	0.160
2020/01/31 08:03:41.3	314.200	0.250	-0.610	0.110
2020/01/31 08:03:41.4	314.210	0.250	-0.660	0.050
2020/01/31 08:03:41.5	314.210	0.240	-0.710	-0.000
2020/01/31 08:03:41.6	314.220	0.230	-0.760	-0.060
2020/01/31 08:03:41.7	314.230	0.230	-0.810	-0.120
2020/01/31 08:03:41.8	314.230	0.220	-0.860	-0.170
2020/01/31 08:03:41.9	314.240	0.220	-0.910	-0.230
2020/01/31 08:03:42.0	314.250	0.210	-0.950	-0.290
2020/01/31 08:03:42.1	314.260	0.200	-1.000	-0.350
2020/01/31 08:03:42.2	314.270	0.200	-1.040	-0.410
2020/01/31 08:03:42.3	314.280	0.190	-1.070	-0.480
2020/01/31 08:03:42.4	314.290	0.180	-1.110	-0.540
2020/01/31 08:03:42.5	314.300	0.170	-1.140	-0.590
2020/01/31 08:03:42.6	314.310	0.160	-1.160	-0.650
2020/01/31 08:03:42.7	314.320	0.150	-1.180	-0.710
2020/01/31 08:03:42.8	314.330	0.140	-1.200	-0.760
2020/01/31 08:03:42.9	314.340	0.130	-1.210	-0.810
2020/01/31 08:03:43.0	314.350	0.120	-1.220	-0.860
2020/01/31 08:03:43.1	314.360	0.100	-1.210	-0.900
2020/01/31 08:03:43.2	314.380	0.090	-1.210	-0.950
2020/01/31 08:03:43.3	314.390	0.080	-1.200	-0.990
2020/01/31 08:03:43.4	314.410	0.060	-1.180	-1.030
2020/01/31 08:03:43.5	314.420	0.040	-1.150	-1.060
2020/01/31 08:03:43.6	314.440	0.030	-1.120	-1.090
2020/01/31 08:03:43.7	314.450	0.010	-1.080	-1.120
2020/01/31 08:03:43.8	314.470	-0.010	-1.040	-1.140
2020/01/31 08:03:43.9	314.480	-0.030	-0.990	-1.160
2020/01/31 08:03:44.0	314.500	-0.040	-0.930	-1.170
2020/01/31 08:03:44.1	314.510	-0.060	-0.870	-1.190
2020/01/31 08:03:44.2	314.530	-0.080	-0.810	-1.190
2020/01/31 08:03:44.3	314.550	-0.100	-0.740	-1.190
2020/01/31 08:03:44.4	314.570	-0.120	-0.670	-1.190
2020/01/31 08:03:44.5	314.580	-0.130	-0.600	-1.190
2020/01/31 08:03:44.6	314.600	-0.150	-0.530	-1.180
2020/01/31 08:03:44.7	314.610	-0.170	-0.450	-1.170
2020/01/31 08:03:44.8	314.630	-0.180	-0.380	-1.160
2020/01/31 08:03:44.9	314.640	-0.200	-0.300	-1.140
2020/01/31 08:03:45.0	314.650	-0.210	-0.220	-1.120
2020/01/31 08:03:45.1	314.670	-0.220	-0.150	-1.100
2020/01/31 08:03:45.2	314.680	-0.230	-0.080	-1.080
2020/01/31 08:03:45.3	314.680	-0.240	-0.010	-1.050
2020/01/31 08:03:45.4	314.690	-0.250	0.060	-1.020
2020/01/31 08:03:45.5	314.700	-0.260	0.120	-0.990
2020/01/31 08:03:45.6	314.710	-0.270	0.180	-0.960
2020/01/31 08:03:45.7	314.710	-0.270	0.240	-0.920
2020/01/31 08:03:45.8	314.720	-0.270	0.290	-0.890
2020/01/31 08:03:45.9	314.720	-0.270	0.330	-0.850
2020/01/31 08:03:46.0	314.730	-0.270	0.380	-0.820
2020/01/31 08:03:46.1	314.730	-0.270	0.410	-0.780
2020/01/31 08:03:46.2	314.740	-0.260	0.440	-0.750
2020/01/31 08:03:46.3	314.740	-0.260	0.470	-0.710
2020/01/31 08:03:46.4	314.740	-0.250	0.490	-0.680
2020/01/31 08:03:46.5	314.750	-0.240	0.500	-0.640
2020/01/31 08:03:46.6	314.750	-0.230	0.510	-0.600
2020/01/31 08:03:46.7	314.760	-0.210	0.520	-0.570
2020/01/31 08:03:46.8	314.760	-0.200	0.520	-0.530
2020/01/31 08:03:46.9	314.760	-0.180	0.510	-0.500
2020/01/31 08:03:47.0	314.770	-0.170	0.500	-0.470
2020/01/31 08:03:47.1	314.770	-0.150	0.490	-0.440
2020/01/31 08:03:47.2	314.770	-0.130	0.470	-0.400
2020/01/31 08:03:47.3	314.780	-0.110	0.450	-0.380
2020/01/31 08:03:47.4	314.780	-0.090	0.430	-0.350
2020/01/31 08:03:47.5	314.790	-0.070	0.400	-0.320
2020/01/31 08:03:47.6	314.790	-0.050	0.380	-0.290
2020/01/31 08:03:47.7	314.790	-0.030	0.350	-0.260
2020/01/31 08:03:47.8	314.790	-0.010	0.320	-0.230
2020/01/31 08:03:47.9	314.790	0.000	0.290	-0.210
2020/01/31 08:03:48.0	314.790	0.020	0.260	-0.180
2020/01/31 08:03:48.1	314.790	0.040	0.230	-0.150
2020/01/31 08:03:48.2	314.790	0.050	0.200	-0.130
2020/01/31 08:03:48.3	314.780	0.070	0.170	-0.110
2020/01/31 08:03:48.4	314.780	0.080	0.140	-0.080
2020/01/31 08:03:48.5	314.770	0.090	0.110	-0.060
2020/01/31 08:03:48.6	314.770	0.100	0.090	-0.040
2020/01/31 08:03:48.7	314.760	0.110	0.070	-0.020
2020/01/31 08:03:48.8	314.750	0.120	0.050	-0.010
2020/01/31 08:03:48.9	314.740	0.120	0.030	0.010
2020/01/31 08:03:49.0	314.720	0.130	0.010	0.020
2020/01/31 08:03:49.1	314.710	0.130	-0.010	0.030
2020/01/31 08:03:49.2	314.700	0.130	-0.020	0.040
2020/01/31 08:03:49.3	314.690	0.130	-0.040	0.050
2020/01/31 08:03:49.4	314.670	0.130	-0.050	0.060
2020/01/31 08:03:49.5	314.650	0.120	-0.060	0.060
2020/01/31 08:03:49.6	314.640	0.120	-0.070	0.060
2020/01/31 08:03:49.7	314.620	0.110	-0.080	0.060
2020/01/31 08:03:49.8	314.600	0.100	-0.090	0.060
2020/01/31 08:03:49.9	314.580	0.090	-0.100	0.060
2020/01/31 08:03:50.0	314.560	0.080	-0.110	0.050
2020/01/31 08:03:50.1	314.540	0.070	-0.120	0.040
2020/01/31 08:03:50.2	314.520	0.060	-0.130	0.030
2020/01/31 08:03:50.3	314.510	0.040	-0.140	0.020
2020/01/31 08:03:50.4	314.490	0.030	-0.150	0.000
2020/01/31 08:03:50.5	314.470	0.020	-0.160	-0.020
2020/01/31 08:03:50.6	314.460	0.000	-0.170	-0.040
2020/01/31 08:03:50.7	314.440	-0.010	-0.190	-0.060
2020/01/31 08:03:50.8	314.420	-0.020	-0.200	-0.080
2020/01/31 08:03:50.9	314.410	-0.030	-0.220	-0.110
2020/01/31 08:03:51.0	314.390	-0.050	-0.230	-0.130
2020/01/31 08:03:51.1	314.380	-0.060	-0.250	-0.160
2020/01/31 08:03:51.2	314.370	-0.070	-0.270	-0.190
2020/01/31 08:03:51.3	314.350	-0.080	-0.290	-0.220
2020/01/31 08:03:51.4	314.340	-0.090	-0.310	-0.260
2020/01/31 08:03:51.5	314.330	-0.100	-0.330	-0.290
2020/01/31 08:03:51.6	314.320	-0.100	-0.360	-0.320
2020/01/31 08:03:51.7	314.320	-0.110	-0.380	-0.360
2020/01/31 08:03:51.8	314.320	-0.110	-0.410	-0.390
2020/01/31 08:03:51.9	314.310	-0.120	-0.430	-0.430
2020/01/31 08:03:52.0	314.310	-0.120	-0.460	-0.470
2020/01/31 08:03:52.1	314.320	-0.120	-0.490	-0.500
2020/01/31 08:03:52.2	314.320	-0.120	-0.510	-0.540
2020/01/31 08:03:52.3	314.330	-0.120	-0.540	-0.570
2020/01/31 08:03:52.4	314.340	-0.120	-0.570	-0.610
2020/01/31 08:03:52.5	314.350	-0.110	-0.600	-0.640
2020/01/31 08:03:52.6	314.360	-0.110	-0.620	-0.680
2020/01/31 08:03:52.7	314.370	-0.100	-0.650	-0.710
2020/01/31 08:03:52.8	314.380	-0.100	-0.680	-0.740
2020/01/31 08:03:52.9	314.390	-0.090	-0.700	-0.770
2020/01/31 08:03:53.0	314.410	-0.090	-0.720	-0.800
2020/01/31 08:03:53.1	314.420	-0.080	-0.740	-0.830
2020/01/31 08:03:53.2	314.440	-0.080	-0.760	-0.850
2020/01/31 08:03:53.3	314.480	-0.070	-0.780	-0.880
2020/01/31 08:03:53.4	314.500	-0.070	-0.790	-0.900
2020/01/31 08:03:53.5	314.520	-0.060	-0.800	-0.920
2020/01/31 08:03:53.6	314.540	-0.060	-0.810	-0.940
2020/01/31 08:03:53.7	314.560	-0.050	-0.820	-0.960
2020/01/31 08:03:53.8	314.590	-0.050	-0.820	-0.970
2020/01/31 08:03:53.9	314.610	-0.040	-0.820	-0.980
2020/01/31 08:03:54.0	314.640	-0.040	-0.820	-0.990
2020/01/31 08:03:54.1	314.660	-0.030	-0.820	-0.990
2020/01/31 08:03:54.2	314.690	-0.030	-0.810	-1.000
2020/01/31 08:03:54.3	314.710	-0.030	-0.800	-1.000
2020/01/31 08:03:54.4	314.740	-0.020	-0.790	-0.990
2020/01/31 08:03:54.5	314.760	-0.020	-0.770	-0.990
2020/01/31 08:03:54.6	314.790	-0.020	-0.750	-0.980
2020/01/31 08:03:54.7	314.810	-0.020	-0.730	-0.960
2020/01/31 08:03:54.8	314.830	-0.020	-0.710	-0.950
2020/01/31 08:03:54.9	314.850	-0.020	-0.680	-0.920
2020/01/31 08:03:55.0	314.870	-0.020	-0.650	-0.900
2020/01/31 08:03:55.1	314.880	-0.020	-0.610	-0.870
2020/01/31 08:03:55.2	314.900	-0.020	-0.580	-0.850
2020/01/31 08:03:55.3	314.900	-0.020	-0.530	-0.810
2020/01/31 08:03:55.4	314.910	-0.020	-0.490	-0.780
2020/01/31 08:03:55.5	314.910	-0.020	-0.450	-0.740
2020/01/31 08:03:55.6	314.920	-0.020	-0.400	-0.710
2020/01/31 08:03:55.7	314.920	-0.020	-0.350	-0.670
2020/01/31 08:03:55.8	314.920	-0.020	-0.300	-0.620
2020/01/31 08:03:55.9	314.920	-0.020	-0.250	-0.580
2020/01/31 08:03:56.0	314.920	-0.020	-0.200	-0.540
2020/01/31 08:03:56.1	314.920	-0.020	-0.150	-0.490
2020/01/31 08:03:56.2	314.910	-0.020	-0.100	-0.440
2020/01/31 08:03:56.3	314.900	-0.020	-0.050	-0.400
2020/01/31 08:03:56.4	314.890	-0.020	0.000	-0.350
2020/01/31 08:03:56.5	314.880	-0.020	0.050	-0.300
2020/01/31 08:03:56.6	314.870	-0.010	0.100	-0.250
2020/01/31 08:03:56.7	314.860	-0.010	0.140	-0.210
2020/01/31 08:03:56.8	314.850	-0.010	0.180	-0.160
2020/01/31 08:03:56.9	314.830	-0.000	0.220	-0.110
2020/01/31 08:03:57.0	314.820	0.000	0.250	-0.070
2020/01/31 08:03:57.1	314.810	0.010	0.280	-0.030
2020/01/31 08:03:57.2	314.790	0.010	0.300	0.010
2020/01/31 08:03:57.3	314.780	0.020	0.330	0.050
2020/01/31 08:03:57.4	314.770	0.030	0.340	0.080
2020/01/31 08:03:57.5	314.760	0.040	0.350	0.110
2020/01/31 08:03:57.6	314.750	0.040	0.360	0.140
2020/01/31 08:03:57.7	314.730	0.050	0.360	0.160
2020/01/31 08:03:57.8	314.720	0.060	0.360	0.180
2020/01/31 08:03:57.9	314.720	0.070	0.350	0.200
2020/01/31 08:03:58.0	314.710	0.080	0.330	0.210
2020/01/31 08:03:58.1	314.700	0.090	0.320	0.210
2020/01/31 08:03:58.2	314.690	0.100	0.300	0.210
2020/01/31 08:03:58.3	314.680	0.110	0.270	0.210
2020/01/31 08:03:58.4	314.670	0.110	0.240	0.200
2020/01/31 08:03:58.5	314.660	0.120	0.210	0.200
2020/01/31 08:03:58.6	314.660	0.130	0.170	0.180
2020/01/31 08:03:58.7	314.650	0.140	0.140	0.170
2020/01/31 08:03:58.8	314.650	0.140	0.100	0.160
2020/01/31 08:03:58.9	314.640	0.150	0.060	0.140
2020/01/31 08:03:59.0	314.640	0.150	0.020	0.120
2020/01/31 08:03:59.1	314.640	0.160	-0.030	0.090
2020/01/31 08:03:59.2	314.640	0.160	-0.070	0.070
2020/01/31 08:03:59.3	314.640	0.160	-0.110	0.040
2020/01/31 08:03:59.4	314.640	0.160	-0.150	0.010
2020/01/31 08:03:59.5	314.640	0.160	-0.190	-0.020
2020/01/31 08:03:59.6	314.640	0.160	-0.230	-0.050
2020/01/31 08:03:59.7	314.640	0.150	-0.270	-0.080
2020/01/31 08:03:59.8	314.640	0.150	-0.300	-0.120
2020/01/31 08:03:59.9	314.630	0.150	-0.340	-0.150
2020/01/31 08:04:00.0	314.630	0.140	-0.370	-0.190
2020/01/31 08:04:00.1	314.630	0.130	-0.400	-0.230
2020/01/31 08:04:00.2	314.630	0.120	-0.420	-0.260
2020/01/31 08:04:00.3	314.630	0.120	-0.450	-0.310
2020/01/31 08:04:00.4	314.630	0.110	-0.460	-0.350
2020/01/31 08:04:00.5	314.620	0.100	-0.480	-0.390
2020/01/31 08:04:00.6	314.620	0.090	-0.500	-0.430
2020/01/31 08:04:00.7	314.620	0.070	-0.510	-0.460
2020/01/31 08:04:00.8	314.620	0.060	-0.520	-0.500
2020/01/31 08:04:00.9	314.620	0.050	-0.520	-0.540
2020/01/31 08:04:01.0	314.620	0.040	-0.520	-0.570
2020/01/31 08:04:01.1	314.620	0.030	-0.520	-0.610
2020/01/31 08:04:01.2	314.620	0.020	-0.520	-0.640
2020/01/31 08:04:01.3	314.620	0.010	-0.520	-0.670
2020/01/31 08:04:01.4	314.630	-0.000	-0.510	-0.700
2020/01/31 08:04:01.5	314.630	-0.010	-0.510	-0.720
2020/01/31 08:04:01.6	314.630	-0.020	-0.500	-0.740
2020/01/31 08:04:01.7	314.630	-0.030	-0.480	-0.760
2020/01/31 08:04:01.8	314.640	-0.040	-0.470	-0.780
2020/01/31 08:04:01.9	314.640	-0.040	-0.460	-0.790
2020/01/31 08:04:02.0	314.640	-0.050	-0.440	-0.790
2020/01/31 08:04:02.1	314.650	-0.050	-0.420	-0.800
2020/01/31 08:04:02.2	314.650	-0.050	-0.400	-0.800
2020/01/31 08:04:02.3	314.640	-0.050	-0.380	-0.790
2020/01/31 08:04:02.4	314.650	-0.050	-0.360	-0.780
2020/01/31 08:04:02.5	314.650	-0.050	-0.340	-0.770
2020/01/31 08:04:02.6	314.650	-0.040	-0.320	-0.750
2020/01/31 08:04:02.7	314.650	-0.040	-0.300	-0.730
2020/01/31 08:04:02.8	314.650	-0.030	-0.280	-0.710
2020/01/31 08:04:02.9	314.640	-0.030	-0.260	-0.690
2020/01/31 08:04:03.0	314.640	-0.020	-0.240	-0.660
2020/01/31 08:04:03.1	314.640	-0.010	-0.220	-0.630
2020/01/31 08:04:03.2	314.640	0.000	-0.210	-0.600
2020/01/31 08:04:03.3	314.640	0.010	-0.190	-0.570
2020/01/31 08:04:03.4	314.640	0.020	-0.180	-0.540
2020/01/31 08:04:03.5	314.630	0.040	-0.170	-0.510
2020/01/31 08:04:03.6	314.630	0.050	-0.160	-0.470
2020/01/31 08:04:03.7	314.630	0.060	-0.150	-0.440
2020/01/31 08:04:03.8	314.630	0.070	-0.140	-0.410
2020/01/31 08:04:03.9	314.630	0.090	-0.130	-0.370
2020/01/31 08:04:04.0	314.630	0.100	-0.130	-0.340
2020/01/31 08:04:04.1	314.620	0.110	-0.130	-0.310
2020/01/31 08:04:04.2	314.620	0.120	-0.120	-0.270
2020/01/31 08:04:04.3	314.630	0.130	-0.120	-0.240
2020/01/31 08:04:04.4	314.630	0.130	-0.120	-0.210
2020/01/31 08:04:04.5	314.630	0.140	-0.130	-0.180
2020/01/31 08:04:04.6	314.630	0.150	-0.130	-0.160
2020/01/31 08:04:04.7	314.630	0.150	-0.140	-0.130
2020/01/31 08:04:04.8	314.630	0.150	-0.150	-0.110
2020/01/31 08:04:04.9	314.630	0.150	-0.160	-0.090
2020/01/31 08:04:05.0	314.630	0.150	-0.160	-0.070
2020/01/31 08:04:05.1	314.630	0.150	-0.180	-0.060
2020/01/31 08:04:05.2	314.640	0.140	-0.190	-0.050
2020/01/31 08:04:05.3	314.630	0.140	-0.200	-0.040
2020/01/31 08:04:05.4	314.640	0.130	-0.210	-0.040
2020/01/31 08:04:05.5	314.640	0.120	-0.230	-0.030
2020/01/31 08:04:05.6	314.650	0.110	-0.240	-0.040
2020/01/31 08:04:05.7	314.660	0.100	-0.250	-0.040
2020/01/31 08:04:05.8	314.660	0.090	-0.270	-0.050
2020/01/31 08:04:05.9	314.670	0.070	-0.280	-0.060
2020/01/31 08:04:06.0	314.680	0.060	-0.290	-0.080
2020/01/31 08:04:06.1	314.690	0.040	-0.300	-0.090
2020/01/31 08:04:06.2	314.700	0.030	-0.310	-0.110
2020/01/31 08:04:06.3	314.700	0.010	-0.320	-0.140
2020/01/31 08:04:06.4	314.710	-0.010	-0.320	-0.160
2020/01/31 08:04:06.5	314.720	-0.030	-0.330	-0.190
2020/01/31 08:04:06.6	314.730	-0.040	-0.340	-0.220
2020/01/31 08:04:06.7	314.740	-0.060	-0.340	-0.250
2020/01/31 08:04:06.8	314.750	-0.080	-0.340	-0.270
2020/01/31 08:04:06.9	314.760	-0.100	-0.350	-0.300
2020/01/31 08:04:07.0	314.770	-0.110	-0.340	-0.330
2020/01/31 08:04:07.1	314.780	-0.130	-0.340	-0.350
2020/01/31 08:04:07.2	314.780	-0.140	-0.340	-0.380
2020/01/31 08:04:07.3	314.790	-0.160	-0.330	-0.400
2020/01/31 08:04:07.4	314.790	-0.170	-0.320	-0.420
2020/01/31 08:04:07.5	314.800	-0.180	-0.310	-0.440
2020/01/31 08:04:07.6	314.800	-0.190	-0.300	-0.460
2020/01/31 08:04:07.7	314.790	-0.200	-0.290	-0.470
2020/01/31 08:04:07.8	314.790	-0.210	-0.270	-0.480
2020/01/31 08:04:07.9	314.790	-0.220	-0.260	-0.490
2020/01/31 08:04:08.0	314.780	-0.220	-0.240	-0.490
2020/01/31 08:04:08.1	314.770	-0.230	-0.220	-0.500
2020/01/31 08:04:08.2	314.760	-0.230	-0.200	-0.490
2020/01/31 08:04:08.3	314.750	-0.240	-0.170	-0.490
2020/01/31 08:04:08.4	314.730	-0.240	-0.150	-0.480
2020/01/31 08:04:08.5	314.720	-0.240	-0.120	-0.470
2020/01/31 08:04:08.6	314.700	-0.240	-0.100	-0.450
2020/01/31 08:04:08.7	314.690	-0.240	-0.080	-0.440
2020/01/31 08:04:08.8	314.670	-0.230	-0.050	-0.420
2020/01/31 08:04:08.9	314.650	-0.230	-0.030	-0.400
2020/01/31 08:04:09.0	314.630	-0.230	-0.010	-0.370
2020/01/31 08:04:09.1	314.610	-0.220	0.010	-0.350
2020/01/31 08:04:09.2	314.580	-0.220	0.030	-0.320
2020/01/31 08:04:09.3	314.560	-0.210	0.040	-0.290
2020/01/31 08:04:09.4	314.540	-0.210	0.050	-0.260
2020/01/31 08:04:09.5	314.510	-0.200	0.070	-0.230
2020/01/31 08:04:09.6	314.490	-0.200	0.070	-0.210
2020/01/31 08:04:09.7	314.460	-0.190	0.080	-0.180
2020/01/31 08:04:09.8	314.430	-0.180	0.080	-0.150
2020/01/31 08:04:09.9	314.410	-0.180	0.080	-0.120
2020/01/31 08:04:10.0	314.380	-0.170	0.080	-0.100
2020/01/31 08:04:10.1	314.360	-0.170	0.070	-0.070
2020/01/31 08:04:10.2	314.330	-0.160	0.060	-0.050
2020/01/31 08:04:10.3	314.290	-0.150	0.050	-0.030
2020/01/31 08:04:10.4	314.270	-0.150	0.030	-0.020
2020/01/31 08:04:10.5	314.240	-0.140	0.010	-0.000
2020/01/31 08:04:10.6	314.220	-0.140	-0.010	0.010
2020/01/31 08:04:10.7	314.200	-0.130	-0.030	0.020
2020/01/31 08:04:10.8	314.190	-0.120	-0.060	0.020
2020/01/31 08:04:10.9	314.170	-0.120	-0.090	0.020
2020/01/31 08:04:11.0	314.160	-0.110	-0.130	0.020
2020/01/31 08:04:11.1	314.150	-0.100	-0.160	0.020
2020/01/31 08:04:11.2	314.140	-0.100	-0.200	0.010
2020/01/31 08:04:11.3	314.140	-0.090	-0.240	-0.010
2020/01/31 08:04:11.4	314.140	-0.090	-0.280	-0.020
2020/01/31 08:04:11.5	314.140	-0.080	-0.310	-0.040
2020/01/31 08:04:11.6	314.150	-0.070	-0.350	-0.060
2020/01/31 08:04:11.7	314.150	-0.060	-0.390	-0.080
2020/01/31 08:04:11.8	314.160	-0.060	-0.430	-0.110
2020/01/31 08:04:11.9	314.170	-0.050	-0.460	-0.130
2020/01/31 08:04:12.0	314.190	-0.040	-0.500	-0.160
2020/01/31 08:04:12.1	314.200	-0.030	-0.530	-0.190
2020/01/31 08:04:12.2	314.220	-0.030	-0.560	-0.210
2020/01/31 08:04:12.3	314.250	-0.020	-0.590	-0.240
2020/01/31 08:04:12.4	314.280	-0.010	-0.610	-0.270
2020/01/31 08:04:12.5	314.300	-0.000	-0.630	-0.290
2020/01/31 08:04:12.6	314.330	0.010	-0.650	-0.320
2020/01/31 08:04:12.7	314.350	0.020	-0.660	-0.340
2020/01/31 08:04:12.8	314.380	0.030	-0.680	-0.360
2020/01/31 08:04:12.9	314.410	0.040	-0.680	-0.380
2020/01/31 08:04:13.0	314.440	0.050	-0.690	-0.400
2020/01/31 08:04:13.1	314.470	0.060	-0.690	-0.420
2020/01/31 08:04:13.2	314.500	0.070	-0.690	-0.430
2020/01/31 08:04:13.3	314.540	0.080	-0.680	-0.440
2020/01/31 08:04:13.4	314.570	0.090	-0.670	-0.450
2020/01/31 08:04:13.5	314.600	0.100	-0.660	-0.460
2020/01/31 08:04:13.6	314.630	0.110	-0.640	-0.470
2020/01/31 08:04:13.7	314.660	0.120	-0.630	-0.470
2020/01/31 08:04:13.8	314.690	0.130	-0.610	-0.470
2020/01/31 08:04:13.9	314.720	0.140	-0.580	-0.470
2020/01/31 08:04:14.0	314.740	0.150	-0.560	-0.460
2020/01/31 08:04:14.1	314.770	0.160	-0.530	-0.450
2020/01/31 08:04:14.2	314.790	0.170	-0.510	-0.440
2020/01/31 08:04:14.3	314.820	0.180	-0.480	-0.430
2020/01/31 08:04:14.4	314.840	0.190	-0.450	-0.420
2020/01/31 08:04:14.5	314.860	0.210	-0.420	-0.400
2020/01/31 08:04:14.6	314.870	0.220	-0.390	-0.380
2020/01/31 08:04:14.7	314.890	0.230	-0.360	-0.350
2020/01/31 08:04:14.8	314.900	0.240	-0.340	-0.330
2020/01/31 08:04:14.9	314.910	0.250	-0.310	-0.300
2020/01/31 08:04:15.0	314.920	0.260	-0.280	-0.270
2020/01/31 08:04:15.1	314.930	0.270	-0.260	-0.240
2020/01/31 08:04:15.2	314.940	0.280	-0.230	-0.210
2020/01/31 08:04:15.3	314.940	0.290	-0.210	-0.180
2020/01/31 08:04:15.4	314.950	0.300	-0.190	-0.140
2020/01/31 08:04:15.5	314.950	0.300	-0.170	-0.110
2020/01/31 08:04:15.6	314.950	0.310	-0.160	-0.080
2020/01/31 08:04:15.7	314.950	0.320	-0.150	-0.060
2020/01/31 08:04:15.8	314.960	0.330	-0.140	-0.030
2020/01/31 08:04:15.9	314.960	0.330	-0.130	-0.010
2020/01/31 08:04:16.0	314.960	0.330	-0.130	0.010
2020/01/31 08:04:16.1	314.960	0.340	-0.120	0.030
2020/01/31 08:04:16.2	314.960	0.340	-0.120	0.050
2020/01/31 08:04:16.3	314.950	0.340	-0.130	0.060
2020/01/31 08:04:16.4	314.950	0.340	-0.130	0.070
2020/01/31 08:04:16.5	314.950	0.340	-0.130	0.080
2020/01/31 08:04:16.6	314.950	0.330	-0.130	0.080
2020/01/31 08:04:16.7	314.950	0.330	-0.140	0.080
2020/01/31 08:04:16.8	314.950	0.320	-0.140	0.070
2020/01/31 08:04:16.9	314.950	0.310	-0.140	0.070
2020/01/31 08:04:17.0	314.950	0.310	-0.140	0.060
2020/01/31 08:04:17.1	314.940	0.300	-0.140	0.050
2020/01/31 08:04:17.2	314.940	0.280	-0.140	0.030
2020/01/31 08:04:17.3	314.930	0.270	-0.140	0.020
2020/01/31 08:04:17.4	314.930	0.260	-0.130	-0.000
2020/01/31 08:04:17.5	314.920	0.240	-0.130	-0.020
2020/01/31 08:04:17.6	314.910	0.220	-0.120	-0.040
2020/01/31 08:04:17.7	314.910	0.200	-0.110	-0.060
2020/01/31 08:04:17.8	314.900	0.180	-0.100	-0.080
2020/01/31 08:04:17.9	314.890	0.160	-0.090	-0.100
2020/01/31 08:04:18.0	314.870	0.140	-0.080	-0.130
2020/01/31 08:04:18.1	314.860	0.120	-0.060	-0.150
2020/01/31 08:04:18.2	314.850	0.090	-0.050	-0.170
2020/01/31 08:04:18.3	314.830	0.070	-0.030	-0.190
2020/01/31 08:04:18.4	314.810	0.050	-0.010	-0.220
2020/01/31 08:04:18.5	314.790	0.020	0.010	-0.240
2020/01/31 08:04:18.6	314.780	-0.000	0.030	-0.260
2020/01/31 08:04:18.7	314.760	-0.030	0.050	-0.280
2020/01/31 08:04:18.8	314.740	-0.060	0.070	-0.300
2020/01/31 08:04:18.9	314.720	-0.080	0.090	-0.320
2020/01/31 08:04:19.0	314.700	-0.100	0.110	-0.340
2020/01/31 08:04:19.1	314.680	-0.130	0.130	-0.370
2020/01/31 08:04:19.2	314.660	-0.150	0.150	-0.390
2020/01/31 08:04:19.3	314.630	-0.180	0.170	-0.410
2020/01/31 08:04:19.4	314.610	-0.200	0.180	-0.430
2020/01/31 08:04:19.5	314.590	-0.220	0.190	-0.460
2020/01/31 08:04:19.6	314.570	-0.240	0.200	-0.480
2020/01/31 08:04:19.7	314.550	-0.260	0.210	-0.500
2020/01/31 08:04:19.8	314.530	-0.280	0.210	-0.520
2020/01/31 08:04:19.9	314.510	-0.300	0.210	-0.540
2020/01/31 08:04:20.0	314.490	-0.310	0.210	-0.560
2020/01/31 08:04:20.1	314.460	-0.330	0.210	-0.580
2020/01/31 08:04:20.2	314.440	-0.340	0.200	-0.600
2020/01/31 08:04:20.3	314.410	-0.350	0.190	-0.610
2020/01/31 08:04:20.4	314.390	-0.360	0.180	-0.620
2020/01/31 08:04:20.5	314.370	-0.370	0.170	-0.630
2020/01/31 08:04:20.6	314.340	-0.380	0.150	-0.640
2020/01/31 08:04:20.7	314.320	-0.390	0.130	-0.650
2020/01/31 08:04:20.8	314.300	-0.390	0.100	-0.660
2020/01/31 08:04:20.9	314.270	-0.390	0.080	-0.660
2020/01/31 08:04:21.0	314.250	-0.390	0.050	-0.670
2020/01/31 08:04:21.1	314.230	-0.390	0.020	-0.670
2020/01/31 08:04:21.2	314.220	-0.390	-0.020	-0.670
2020/01/31 08:04:21.3	314.210	-0.390	-0.050	-0.680
2020/01/31 08:04:21.4	314.200	-0.380	-0.090	-0.680
2020/01/31 08:04:21.5	314.190	-0.370	-0.140	-0.680
2020/01/31 08:04:21.6	314.180	-0.360	-0.180	-0.680
2020/01/31 08:04:21.7	314.170	-0.350	-0.220	-0.680
2020/01/31 08:04:21.8	314.160	-0.340	-0.270	-0.680
2020/01/31 08:04:21.9	314.160	-0.320	-0.320	-0.680
2020/01/31 08:04:22.0	314.160	-0.310	-0.360	-0.680
2020/01/31 08:04:22.1	314.170	-0.290	-0.410	-0.690
2020/01/31 08:04:22.2	314.170	-0.270	-0.460	-0.690
2020/01/31 08:04:22.3	314.180	-0.250	-0.500	-0.690
2020/01/31 08:04:22.4	314.190	-0.230	-0.550	-0.690
2020/01/31 08:04:22.5	314.210	-0.210	-0.590	-0.690
2020/01/31 08:04:22.6	314.220	-0.190	-0.640	-0.690
2020/01/31 08:04:22.7	314.240	-0.170	-0.680	-0.690
2020/01/31 08:04:22.8	314.270	-0.150	-0.710	-0.680
2020/01/31 08:04:22.9	314.290	-0.130	-0.750	-0.680
2020/01/31 08:04:23.0	314.310	-0.110	-0.780	-0.680
2020/01/31 08:04:23.1	314.340	-0.090	-0.800	-0.670
2020/01/31 08:04:23.2	314.370	-0.070	-0.820	-0.670
2020/01/31 08:04:23.3	314.400	-0.050	-0.840	-0.660
2020/01/31 08:04:23.4	314.430	-0.030	-0.850	-0.650
2020/01/31 08:04:23.5	314.470	-0.020	-0.860	-0.650
2020/01/31 08:04:23.6	314.500	-0.000	-0.870	-0.640
2020/01/31 08:04:23.7	314.540	0.010	-0.860	-0.620
2020/01/31 08:04:23.8	314.570	0.030	-0.860	-0.610
2020/01/31 08:04:23.9	314.600	0.040	-0.840	-0.600
2020/01/31 08:04:24.0	314.630	0.040	-0.830	-0.580
2020/01/31 08:04:24.1	314.660	0.050	-0.810	-0.560
2020/01/31 08:04:24.2	314.690	0.060	-0.780	-0.540
2020/01/31 08:04:24.3	314.730	0.060	-0.760	-0.520
2020/01/31 08:04:24.4	314.750	0.060	-0.720	-0.490
2020/01/31 08:04:24.5	314.780	0.060	-0.690	-0.470
2020/01/31 08:04:24.6	314.800	0.060	-0.650	-0.440
2020/01/31 08:04:24.7	314.820	0.060	-0.610	-0.410
2020/01/31 08:04:24.8	314.840	0.060	-0.560	-0.380
2020/01/31 08:04:24.9	314.860	0.050	-0.520	-0.350
2020/01/31 08:04:25.0	314.870	0.050	-0.470	-0.310
2020/01/31 08:04:25.1	314.890	0.040	-0.430	-0.280
2020/01/31 08:04:25.2	314.900	0.040	-0.380	-0.240
2020/01/31 08:04:25.3	314.910	0.030	-0.330	-0.200
2020/01/31 08:04:25.4	314.920	0.020	-0.280	-0.160
2020/01/31 08:04:25.5	314.920	0.020	-0.240	-0.130
2020/01/31 08:04:25.6	314.930	0.010	-0.200	-0.090
2020/01/31 08:04:25.7	314.930	0.010	-0.150	-0.050
2020/01/31 08:04:25.8	314.930	0.010	-0.110	-0.010
2020/01/31 08:04:25.9	314.930	0.000	-0.080	0.030
2020/01/31 08:04:26.0	314.930	0.000	-0.040	0.060
2020/01/31 08:04:26.1	314.930	0.000	-0.010	0.100
2020/01/31 08:04:26.2	314.930	0.000	0.020	0.140
2020/01/31 08:04:26.3	314.920	0.000	0.040	0.170
2020/01/31 08:04:26.4	314.920	0.010	0.060	0.210
2020/01/31 08:04:26.5	314.910	0.010	0.080	0.240
2020/01/31 08:04:26.6	314.900	0.020	0.090	0.270
2020/01/31 08:04:26.7	314.890	0.020	0.100	0.300
2020/01/31 08:04:26.8	314.880	0.030	0.110	0.330
2020/01/31 08:04:26.9	314.870	0.040	0.110	0.360
2020/01/31 08:04:27.0	314.850	0.050	0.110	0.390
2020/01/31 08:04:27.1	314.840	0.060	0.100	0.420
2020/01/31 08:04:27.2	314.820	0.070	0.100	0.440
2020/01/31 08:04:27.3	314.790	0.080	0.090	0.460
2020/01/31 08:04:27.4	314.770	0.090	0.080	0.480
2020/01/31 08:04:27.5	314.750	0.100	0.060	0.500
2020/01/31 08:04:27.6	314.730	0.110	0.050	0.520
2020/01/31 08:04:27.7	314.710	0.130	0.030	0.530
2020/01/31 08:04:27.8	314.690	0.140	0.010	0.540
2020/01/31 08:04:27.9	314.670	0.150	-0.010	0.550
2020/01/31 08:04:28.0	314.650	0.160	-0.040	0.550
2020/01/31 08:04:28.1	314.630	0.170	-0.060	0.550
2020/01/31 08:04:28.2	314.610	0.180	-0.080	0.550
2020/01/31 08:04:28.3	314.590	0.190	-0.110	0.540
2020/01/31 08:04:28.4	314.570	0.190	-0.130	0.540
2020/01/31 08:04:28.5	314.540	0.200	-0.160	0.530
2020/01/31 08:04:28.6	314.520	0.210	-0.180	0.520
2020/01/31 08:04:28.7	314.500	0.210	-0.200	0.510
2020/01/31 08:04:28.8	314.480	0.210	-0.230	0.490
2020/01/31 08:04:28.9	314.450	0.220	-0.250	0.470
2020/01/31 08:04:29.0	314.430	0.220	-0.270	0.460
2020/01/31 08:04:29.1	314.410	0.220	-0.280	0.430
2020/01/31 08:04:29.2	314.390	0.220	-0.300	0.410
2020/01/31 08:04:29.3	314.370	0.220	-0.310	0.390
2020/01/31 08:04:29.4	314.350	0.220	-0.320	0.370
2020/01/31 08:04:29.5	314.320	0.220	-0.330	0.340
2020/01/31 08:04:29.6	314.300	0.220	-0.340	0.310
2020/01/31 08:04:29.7	314.280	0.210	-0.350	0.290
2020/01/31 08:04:29.8	314.260	0.210	-0.350	0.260
2020/01/31 08:04:29.9	314.250	0.200	-0.360	0.220
2020/01/31 08:04:30.0	314.230	0.200	-0.360	0.190
2020/01/31 08:04:30.1	314.210	0.200	-0.360	0.160
2020/01/31 08:04:30.2	314.190	0.190	-0.350	0.130
2020/01/31 08:04:30.3	314.180	0.180	-0.350	0.090
2020/01/31 08:04:30.4	314.170	0.180	-0.340	0.060
2020/01/31 08:04:30.5	314.150	0.170	-0.340	0.020
2020/01/31 08:04:30.6	314.140	0.170	-0.330	-0.010
2020/01/31 08:04:30.7	314.130	0.160	-0.320	-0.050
2020/01/31 08:04:30.8	314.120	0.150	-0.310	-0.080
2020/01/31 08:04:30.9	314.100	0.150	-0.300	-0.120
2020/01/31 08:04:31.0	314.090	0.140	-0.290	-0.150
2020/01/31 08:04:31.1	314.080	0.140	-0.280	-0.190
2020/01/31 08:04:31.2	314.070	0.130	-0.270	-0.220
2020/01/31 08:04:31.3	314.060	0.120	-0.260	-0.260
2020/01/31 08:04:31.4	314.050	0.120	-0.250	-0.290
2020/01/31 08:04:31.5	314.050	0.110	-0.250	-0.320
2020/01/31 08:04:31.6	314.040	0.110	-0.240	-0.360
2020/01/31 08:04:31.7	314.040	0.100	-0.240	-0.390
2020/01/31 08:04:31.8	314.040	0.100	-0.230	-0.420
2020/01/31 08:04:31.9	314.040	0.090	-0.230	-0.460
2020/01/31 08:04:32.0	314.050	0.080	-0.230	-0.490
2020/01/31 08:04:32.1	314.050	0.080	-0.230	-0.530
2020/01/31 08:04:32.2	314.060	0.070	-0.240	-0.560
2020/01/31 08:04:32.3	314.080	0.070	-0.240	-0.600
2020/01/31 08:04:32.4	314.090	0.070	-0.250	-0.630
2020/01/31 08:04:32.5	314.100	0.060	-0.260	-0.660
2020/01/31 08:04:32.6	314.120	0.060	-0.270	-0.700
2020/01/31 08:04:32.7	314.140	0.050	-0.280	-0.730
2020/01/31 08:04:32.8	314.160	0.050	-0.290	-0.770
2020/01/31 08:04:32.9	314.180	0.040	-0.300	-0.800
2020/01/31 08:04:33.0	314.210	0.040	-0.320	-0.830
2020/01/31 08:04:33.1	314.240	0.030	-0.330	-0.860
2020/01/31 08:04:33.2	314.260	0.030	-0.340	-0.890
2020/01/31 08:04:33.3	314.300	0.020	-0.350	-0.930
2020/01/31 08:04:33.4	314.330	0.010	-0.360	-0.950
2020/01/31 08:04:33.5	314.360	0.010	-0.370	-0.980
2020/01/31 08:04:33.6	314.400	-0.000	-0.380	-1.010
2020/01/31 08:04:33.7	314.430	-0.010	-0.390	-1.030
2020/01/31 08:04:33.8	314.460	-0.020	-0.400	-1.050
2020/01/31 08:04:33.9	314.490	-0.030	-0.400	-1.070
2020/01/31 08:04:34.0	314.520	-0.040	-0.400	-1.080
2020/01/31 08:04:34.1	314.560	-0.050	-0.390	-1.090
2020/01/31 08:04:34.2	314.580	-0.060	-0.390	-1.100
2020/01/31 08:04:34.3	314.610	-0.070	-0.380	-1.100
2020/01/31 08:04:34.4	314.640	-0.080	-0.370	-1.100
2020/01/31 08:04:34.5	314.660	-0.090	-0.350	-1.100
2020/01/31 08:04:34.6	314.690	-0.110	-0.340	-1.090
2020/01/31 08:04:34.7	314.710	-0.120	-0.320	-1.080
2020/01/31 08:04:34.8	314.730	-0.130	-0.290	-1.070
2020/01/31 08:04:34.9	314.750	-0.150	-0.270	-1.050
2020/01/31 08:04:35.0	314.770	-0.160	-0.240	-1.030
2020/01/31 08:04:35.1	314.780	-0.180	-0.210	-1.010
2020/01/31 08:04:35.2	314.800	-0.190	-0.180	-0.980
2020/01/31 08:04:35.3	314.810	-0.210	-0.150	-0.960
2020/01/31 08:04:35.4	314.820	-0.220	-0.130	-0.930
2020/01/31 08:04:35.5	314.840	-0.240	-0.100	-0.900
2020/01/31 08:04:35.6	314.850	-0.250	-0.070	-0.870
2020/01/31 08:04:35.7	314.860	-0.260	-0.040	-0.840
2020/01/31 08:04:35.8	314.880	-0.280	-0.020	-0.810
2020/01/31 08:04:35.9	314.890	-0.290	0.010	-0.780
2020/01/31 08:04:36.0	314.900	-0.300	0.030	-0.740
2020/01/31 08:04:36.1	314.910	-0.310	0.050	-0.710
2020/01/31 08:04:36.2	314.920	-0.320	0.070	-0.680
2020/01/31 08:04:36.3	314.940	-0.330	0.080	-0.650
2020/01/31 08:04:36.4	314.950	-0.340	0.100	-0.610
2020/01/31 08:04:36.5	314.960	-0.340	0.110	-0.580
2020/01/31 08:04:36.6	314.960	-0.350	0.120	-0.550
2020/01/31 08:04:36.7	314.970	-0.350	0.130	-0.510
2020/01/31 08:04:36.8	314.980	-0.350	0.140	-0.480
2020/01/31 08:04:36.9	314.980	-0.350	0.140	-0.440
2020/01/31 08:04:37.0	314.990	-0.350	0.150	-0.400
2020/01/31 08:04:37.1	314.990	-0.350	0.150	-0.370
2020/01/31 08:04:37.2	314.990	-0.350	0.160	-0.330
2020/01/31 08:04:37.3	314.980	-0.340	0.160	-0.290
2020/01/31 08:04:37.4	314.980	-0.340	0.160	-0.240
2020/01/31 08:04:37.5	314.970	-0.330	0.160	-0.200
2020/01/31 08:04:37.6	314.960	-0.320	0.160	-0.160
2020/01/31 08:04:37.7	314.950	-0.320	0.170	-0.110
2020/01/31 08:04:37.8	314.930	-0.310	0.170	-0.060
2020/01/31 08:04:37.9	314.910	-0.300	0.170	-0.020
2020/01/31 08:04:38.0	314.890	-0.290	0.170	0.030
2020/01/31 08:04:38.1	314.870	-0.280	0.170	0.080
2020/01/31 08:04:38.2	314.840	-0.270	0.160	0.130
2020/01/31 08:04:38.3	314.810	-0.250	0.160	0.170
2020/01/31 08:04:38.4	314.780	-0.240	0.160	0.210
2020/01/31 08:04:38.5	314.750	-0.230	0.150	0.250
2020/01/31 08:04:38.6	314.710	-0.220	0.140	0.290
2020/01/31 08:04:38.7	314.680	-0.210	0.130	0.330
2020/01/31 08:04:38.8	314.640	-0.190	0.120	0.360
2020/01/31 08:04:38.9	314.600	-0.180	0.100	0.390
2020/01/31 08:04:39.0	314.570	-0.170	0.090	0.410
2020/01/31 08:04:39.1	314.530	-0.160	0.070	0.440
2020/01/31 08:04:39.2	314.490	-0.150	0.040	0.460
2020/01/31 08:04:39.3	314.440	-0.130	0.020	0.470
2020/01/31 08:04:39.4	314.400	-0.120	-0.010	0.480
2020/01/31 08:04:39.5	314.370	-0.110	-0.040	0.490
2020/01/31 08:04:39.6	314.330	-0.100	-0.070	0.490
2020/01/31 08:04:39.7	314.290	-0.090	-0.110	0.490
2020/01/31 08:04:39.8	314.260	-0.070	-0.150	0.490
2020/01/31 08:04:39.9	314.220	-0.060	-0.190	0.480
2020/01/31 08:04:40.0	314.190	-0.050	-0.230	0.470
2020/01/31 08:04:40.1	314.150	-0.030	-0.270	0.450
2020/01/31 08:04:40.2	314.120	-0.020	-0.320	0.430
2020/01/31 08:04:40.3	314.090	-0.010	-0.360	0.410
2020/01/31 08:04:40.4	314.060	0.010	-0.410	0.380
2020/01/31 08:04:40.5	314.030	0.020	-0.450	0.360
2020/01/31 08:04:40.6	314.000	0.040	-0.500	0.330
2020/01/31 08:04:40.7	313.980	0.060	-0.550	0.300
2020/01/31 08:04:40.8	313.960	0.070	-0.590	0.270
2020/01/31 08:04:40.9	313.930	0.090	-0.640	0.240
2020/01/31 08:04:41.0	313.920	0.110	-0.680	0.200
2020/01/31 08:04:41.1	313.900	0.130	-0.720	0.160
2020/01/31 08:04:41.2	313.880	0.150	-0.770	0.120
2020/01/31 08:04:41.3	313.870	0.170	-0.800	0.080
2020/01/31 08:04:41.4	313.860	0.190	-0.840	0.030
2020/01/31 08:04:41.5	313.850	0.210	-0.880	-0.010
2020/01/31 08:04:41.6	313.840	0.230	-0.910	-0.060
2020/01/31 08:04:41.7	313.840	0.250	-0.950	-0.100
2020/01/31 08:04:41.8	313.840	0.270	-0.980	-0.150
2020/01/31 08:04:41.9	313.850	0.290	-1.010	-0.200
2020/01/31 08:04:42.0	313.860	0.310	-1.030	-0.250
2020/01/31 08:04:42.1	313.870	0.330	-1.060	-0.300
2020/01/31 08:04:42.2	313.880	0.340	-1.080	-0.340
2020/01/31 08:04:42.3	313.900	0.360	-1.100	-0.390
2020/01/31 08:04:42.4	313.920	0.380	-1.110	-0.440
2020/01/31 08:04:42.5	313.940	0.400	-1.130	-0.480
2020/01/31 08:04:42.6	313.970	0.410	-1.130	-0.520
2020/01/31 08:04:42.7	314.000	0.430	-1.140	-0.560
2020/01/31 08:04:42.8	314.030	0.440	-1.140	-0.600
2020/01/31 08:04:42.9	314.060	0.450	-1.140	-0.640
2020/01/31 08:04:43.0	314.100	0.460	-1.130	-0.680
2020/01/31 08:04:43.1	314.140	0.470	-1.120	-0.710
2020/01/31 08:04:43.2	314.180	0.480	-1.110	-0.740
2020/01/31 08:04:43.3	314.220	0.490	-1.090	-0.770
2020/01/31 08:04:43.4	314.260	0.490	-1.070	-0.790
2020/01/31 08:04:43.5	314.300	0.490	-1.050	-0.820
2020/01/31 08:04:43.6	314.340	0.490	-1.020	-0.840
2020/01/31 08:04:43.7	314.380	0.490	-0.990	-0.860
2020/01/31 08:04:43.8	314.420	0.480	-0.950	-0.870
2020/01/31 08:04:43.9	314.470	0.470	-0.910	-0.890
2020/01/31 08:04:44.0	314.510	0.460	-0.870	-0.900
2020/01/31 08:04:44.1	314.550	0.450	-0.830	-0.910
2020/01/31 08:04:44.2	314.580	0.440	-0.780	-0.910
2020/01/31 08:04:44.3	314.640	0.420	-0.730	-0.920
2020/01/31 08:04:44.4	314.670	0.400	-0.680	-0.920
2020/01/31 08:04:44.5	314.710	0.370	-0.620	-0.920
2020/01/31 08:04:44.6	314.750	0.350	-0.560	-0.920
2020/01/31 08:04:44.7	314.780	0.320	-0.500	-0.920
2020/01/31 08:04:44.8	314.820	0.290	-0.440	-0.920
2020/01/31 08:04:44.9	314.850	0.260	-0.380	-0.910
2020/01/31 08:04:45.0	314.880	0.230	-0.320	-0.910
2020/01/31 08:04:45.1	314.910	0.190	-0.250	-0.900
2020/01/31 08:04:45.2	314.940	0.160	-0.190	-0.890
2020/01/31 08:04:45.3	314.960	0.120	-0.120	-0.880
2020/01/31 08:04:45.4	314.990	0.080	-0.050	-0.860
2020/01/31 08:04:45.5	315.010	0.040	0.010	-0.850
2020/01/31 08:04:45.6	315.030	0.010	0.080	-0.840
2020/01/31 08:04:45.7	315.050	-0.030	0.140	-0.820
2020/01/31 08:04:45.8	315.060	-0.070	0.210	-0.800
2020/01/31 08:04:45.9	315.080	-0.110	0.270	-0.780
2020/01/31 08:04:46.0	315.090	-0.150	0.330	-0.760
2020/01/31 08:04:46.1	315.090	-0.190	0.390	-0.740
2020/01/31 08:04:46.2	315.100	-0.230	0.440	-0.720
2020/01/31 08:04:46.3	315.100	-0.260	0.500	-0.690
2020/01/31 08:04:46.4	315.100	-0.290	0.550	-0.670
2020/01/31 08:04:46.5	315.090	-0.330	0.600	-0.640
2020/01/31 08:04:46.6	315.080	-0.350	0.650	-0.620
2020/01/31 08:04:46.7	315.070	-0.380	0.690	-0.590
2020/01/31 08:04:46.8	315.060	-0.410	0.730	-0.560
2020/01/31 08:04:46.9	315.050	-0.430	0.760	-0.530
2020/01/31 08:04:47.0	315.030	-0.450	0.800	-0.500
2020/01/31 08:04:47.1	315.010	-0.460	0.830	-0.470
2020/01/31 08:04:47.2	314.980	-0.480	0.850	-0.440
2020/01/31 08:04:47.3	314.950	-0.490	0.870	-0.410
2020/01/31 08:04:47.4	314.920	-0.500	0.890	-0.380
2020/01/31 08:04:47.5	314.900	-0.500	0.900	-0.350
2020/01/31 08:04:47.6	314.870	-0.500	0.910	-0.320
2020/01/31 08:04:47.7	314.830	-0.500	0.910	-0.290
2020/01/31 08:04:47.8	314.800	-0.490	0.910	-0.260
2020/01/31 08:04:47.9	314.770	-0.490	0.900	-0.230
2020/01/31 08:04:48.0	314.740	-0.470	0.890	-0.200
2020/01/31 08:04:48.1	314.700	-0.460	0.870	-0.180
2020/01/31 08:04:48.2	314.670	-0.440	0.850	-0.150
2020/01/31 08:04:48.3	314.630	-0.420	0.830	-0.130
2020/01/31 08:04:48.4	314.600	-0.400	0.800	-0.110
2020/01/31 08:04:48.5	314.570	-0.380	0.760	-0.090
2020/01/31 08:04:48.6	314.540	-0.360	0.720	-0.080
2020/01/31 08:04:48.7	314.510	-0.330	0.680	-0.070
2020/01/31 08:04:48.8	314.490	-0.300	0.630	-0.060
2020/01/31 08:04:48.9	314.460	-0.270	0.580	-0.050
2020/01/31 08:04:49.0	314.430	-0.240	0.520	-0.050
2020/01/31 08:04:49.1	314.410	-0.210	0.470	-0.050
2020/01/31 08:04:49.2	314.390	-0.190	0.410	-0.050
2020/01/31 08:04:49.3	314.360	-0.160	0.350	-0.050
2020/01/31 08:04:49.4	314.340	-0.130	0.280	-0.060
2020/01/31 08:04:49.5	314.320	-0.100	0.220	-0.070
2020/01/31 08:04:49.6	314.300	-0.070	0.160	-0.080
2020/01/31 08:04:49.7	314.280	-0.050	0.100	-0.090
2020/01/31 08:04:49.8	314.260	-0.030	0.030	-0.110
2020/01/31 08:04:49.9	314.240	-0.010	-0.030	-0.120
2020/01/31 08:04:50.0	314.220	0.010	-0.090	-0.140
2020/01/31 08:04:50.1	314.200	0.030	-0.140	-0.160
2020/01/31 08:04:50.2	314.180	0.040	-0.200	-0.190
2020/01/31 08:04:50.3	314.180	0.060	-0.260	-0.220
2020/01/31 08:04:50.4	314.160	0.070	-0.310	-0.240
2020/01/31 08:04:50.5	314.150	0.070	-0.360	-0.270
2020/01/31 08:04:50.6	314.140	0.080	-0.410	-0.300
2020/01/31 08:04:50.7	314.120	0.080	-0.450	-0.330
2020/01/31 08:04:50.8	314.110	0.080	-0.490	-0.370
2020/01/31 08:04:50.9	314.100	0.080	-0.540	-0.400
2020/01/31 08:04:51.0	314.100	0.080	-0.570	-0.440
2020/01/31 08:04:51.1	314.090	0.080	-0.610	-0.470
2020/01/31 08:04:51.2	314.090	0.070	-0.640	-0.510
2020/01/31 08:04:51.3	314.100	0.060	-0.670	-0.540
2020/01/31 08:04:51.4	314.100	0.060	-0.700	-0.580
2020/01/31 08:04:51.5	314.100	0.050	-0.720	-0.610
2020/01/31 08:04:51.6	314.100	0.040	-0.750	-0.640
2020/01/31 08:04:51.7	314.100	0.030	-0.770	-0.670
2020/01/31 08:04:51.8	314.110	0.020	-0.790	-0.700
2020/01/31 08:04:51.9	314.110	0.020	-0.800	-0.730
2020/01/31 08:04:52.0	314.120	0.010	-0.820	-0.760
2020/01/31 08:04:52.1	314.130	0.000	-0.830	-0.780
2020/01/31 08:04:52.2	314.130	-0.010	-0.840	-0.800
2020/01/31 08:04:52.3	314.130	-0.010	-0.850	-0.810
2020/01/31 08:04:52.4	314.140	-0.020	-0.860	-0.830
2020/01/31 08:04:52.5	314.150	-0.020	-0.870	-0.840
2020/01/31 08:04:52.6	314.160	-0.020	-0.880	-0.850
2020/01/31 08:04:52.7	314.170	-0.020	-0.880	-0.860
2020/01/31 08:04:52.8	314.180	-0.020	-0.890	-0.870
2020/01/31 08:04:52.9	314.190	-0.020	-0.900	-0.870
2020/01/31 08:04:53.0	314.200	-0.020	-0.900	-0.880
2020/01/31 08:04:53.1	314.210	-0.010	-0.910	-0.880
2020/01/31 08:04:53.2	314.220	-0.000	-0.920	-0.880
2020/01/31 08:04:53.3	314.240	0.010	-0.930	-0.880
2020/01/31 08:04:53.4	314.260	0.020	-0.940	-0.880
2020/01/31 08:04:53.5	314.270	0.030	-0.950	-0.870
2020/01/31 08:04:53.6	314.290	0.040	-0.960	-0.870
2020/01/31 08:04:53.7	314.310	0.060	-0.970	-0.860
2020/01/31 08:04:53.8	314.340	0.080	-0.980	-0.860
2020/01/31 08:04:53.9	314.360	0.090	-1.000	-0.850
2020/01/31 08:04:54.0	314.380	0.110	-1.010	-0.840
2020/01/31 08:04:54.1	314.410	0.130	-1.020	-0.820
2020/01/31 08:04:54.2	314.430	0.150	-1.030	-0.810
2020/01/31 08:04:54.3	314.440	0.170	-1.040	-0.790
2020/01/31 08:04:54.4	314.470	0.190	-1.050	-0.770
2020/01/31 08:04:54.5	314.490	0.210	-1.050	-0.750
2020/01/31 08:04:54.6	314.510	0.230	-1.050	-0.730
2020/01/31 08:04:54.7	314.530	0.250	-1.050	-0.710
2020/01/31 08:04:54.8	314.560	0.270	-1.050	-0.680
2020/01/31 08:04:54.9	314.580	0.290	-1.040	-0.650
2020/01/31 08:04:55.0	314.590	0.300	-1.030	-0.620
2020/01/31 08:04:55.1	314.610	0.310	-1.020	-0.590
2020/01/31 08:04:55.2	314.630	0.320	-1.000	-0.560
2020/01/31 08:04:55.3	314.640	0.330	-0.980	-0.530
2020/01/31 08:04:55.4	314.650	0.340	-0.950	-0.500
2020/01/31 08:04:55.5	314.660	0.340	-0.930	-0.460
2020/01/31 08:04:55.6	314.680	0.350	-0.890	-0.430
2020/01/31 08:04:55.7	314.690	0.340	-0.850	-0.390
2020/01/31 08:04:55.8	314.700	0.340	-0.810	-0.360
2020/01/31 08:04:55.9	314.710	0.340	-0.770	-0.320
2020/01/31 08:04:56.0	314.720	0.330	-0.720	-0.290
2020/01/31 08:04:56.1	314.730	0.320	-0.660	-0.250
2020/01/31 08:04:56.2	314.730	0.310	-0.610	-0.220
2020/01/31 08:04:56.3	314.730	0.290	-0.550	-0.180
2020/01/31 08:04:56.4	314.740	0.270	-0.480	-0.150
2020/01/31 08:04:56.5	314.740	0.250	-0.420	-0.110
2020/01/31 08:04:56.6	314.750	0.230	-0.350	-0.080
2020/01/31 08:04:56.7	314.750	0.210	-0.280	-0.040
2020/01/31 08:04:56.8	314.750	0.190	-0.210	-0.010
2020/01/31 08:04:56.9	314.760	0.160	-0.140	0.020
2020/01/31 08:04:57.0	314.760	0.130	-0.060	0.050
2020/01/31 08:04:57.1	314.760	0.110	0.010	0.080
2020/01/31 08:04:57.2	314.760	0.080	0.090	0.110
2020/01/31 08:04:57.3	314.750	0.050	0.170	0.130
2020/01/31 08:04:57.4	314.750	0.020	0.240	0.160
2020/01/31 08:04:57.5	314.750	-0.010	0.310	0.180
2020/01/31 08:04:57.6	314.740	-0.040	0.390	0.200
2020/01/31 08:04:57.7	314.740	-0.070	0.460	0.220
2020/01/31 08:04:57.8	314.730	-0.100	0.520	0.240
2020/01/31 08:04:57.9	314.730	-0.130	0.590	0.250
2020/01/31 08:04:58.0	314.730	-0.150	0.640	0.260
2020/01/31 08:04:58.1	314.720	-0.180	0.700	0.260
2020/01/31 08:04:58.2	314.720	-0.210	0.740	0.270
2020/01/31 08:04:58.3	314.720	-0.230	0.790	0.260
2020/01/31 08:04:58.4	314.710	-0.250	0.820	0.260
2020/01/31 08:04:58.5	314.710	-0.280	0.850	0.250
2020/01/31 08:04:58.6	314.710	-0.300	0.870	0.240
2020/01/31 08:04:58.7	314.710	-0.310	0.890	0.220
2020/01/31 08:04:58.8	314.710	-0.330	0.890	0.200
2020/01/31 08:04:58.9	314.710	-0.350	0.900	0.170
2020/01/31 08:04:59.0	314.710	-0.360	0.890	0.150
2020/01/31 08:04:59.1	314.720	-0.370	0.880	0.120
2020/01/31 08:04:59.2	314.720	-0.380	0.860	0.080
2020/01/31 08:04:59.3	314.720	-0.390	0.830	0.050
2020/01/31 08:04:59.4	314.720	-0.390	0.800	0.010
2020/01/31 08:04:59.5	314.730	-0.400	0.770	-0.030
2020/01/31 08:04:59.6	314.730	-0.400	0.730	-0.060
2020/01/31 08:04:59.7	314.730	-0.400	0.680	-0.100
2020/01/31 08:04:59.8	314.730	-0.390	0.630	-0.140
2020/01/31 08:04:59.9	314.730	-0.390	0.580	-0.180
2020/01/31 08:05:00.0	314.730	-0.380	0.530	-0.220
2020/01/31 08:05:00.1	314.730	-0.370	0.470	-0.260
2020/01/31 08:05:00.2	314.720	-0.360	0.420	-0.300
2020/01/31 08:05:00.3	314.710	-0.350	0.360	-0.340
2020/01/31 08:05:00.4	314.700	-0.330	0.300	-0.380
2020/01/31 08:05:00.5	314.700	-0.320	0.240	-0.410
2020/01/31 08:05:00.6	314.690	-0.300	0.190	-0.440
2020/01/31 08:05:00.7	314.680	-0.280	0.130	-0.480
2020/01/31 08:05:00.8	314.670	-0.260	0.070	-0.510
2020/01/31 08:05:00.9	314.650	-0.240	0.020	-0.540
2020/01/31 08:05:01.0	314.640	-0.210	-0.040	-0.570
2020/01/31 08:05:01.1	314.620	-0.190	-0.090	-0.590
2020/01/31 08:05:01.2	314.600	-0.160	-0.140	-0.620
2020/01/31 08:05:01.3	314.590	-0.130	-0.190	-0.650
2020/01/31 08:05:01.4	314.570	-0.110	-0.230	-0.670
2020/01/31 08:05:01.5	314.550	-0.080	-0.270	-0.690
2020/01/31 08:05:01.6	314.530	-0.050	-0.310	-0.710
2020/01/31 08:05:01.7	314.510	-0.010	-0.350	-0.730
2020/01/31 08:05:01.8	314.480	0.020	-0.380	-0.740
2020/01/31 08:05:01.9	314.460	0.050	-0.410	-0.760
2020/01/31 08:05:02.0	314.440	0.080	-0.440	-0.770
2020/01/31 08:05:02.1	314.410	0.110	-0.460	-0.780
2020/01/31 08:05:02.2	314.390	0.140	-0.480	-0.790
2020/01/31 08:05:02.3	314.370	0.170	-0.500	-0.790
2020/01/31 08:05:02.4	314.350	0.200	-0.520	-0.800
2020/01/31 08:05:02.5	314.330	0.230	-0.530	-0.810
2020/01/31 08:05:02.6	314.310	0.260	-0.550	-0.810
2020/01/31 08:05:02.7	314.300	0.290	-0.560	-0.810
2020/01/31 08:05:02.8	314.280	0.310	-0.570	-0.810
2020/01/31 08:05:02.9	314.270	0.340	-0.580	-0.810
2020/01/31 08:05:03.0	314.260	0.360	-0.590	-0.810
2020/01/31 08:05:03.1	314.250	0.380	-0.600	-0.810
2020/01/31 08:05:03.2	314.240	0.390	-0.600	-0.810
2020/01/31 08:05:03.3	314.230	0.410	-0.610	-0.810
2020/01/31 08:05:03.4	314.230	0.420	-0.620	-0.800
2020/01/31 08:05:03.5	314.220	0.430	-0.620	-0.800
2020/01/31 08:05:03.6	314.220	0.440	-0.630	-0.790
2020/01/31 08:05:03.7	314.230	0.450	-0.630	-0.790
2020/01/31 08:05:03.8	314.230	0.450	-0.640	-0.780
2020/01/31 08:05:03.9	314.240	0.450	-0.640	-0.770
2020/01/31 08:05:04.0	314.240	0.450	-0.640	-0.770
2020/01/31 08:05:04.1	314.250	0.440	-0.640	-0.760
2020/01/31 08:05:04.2	314.260	0.430	-0.650	-0.750
2020/01/31 08:05:04.3	314.260	0.420	-0.650	-0.740
2020/01/31 08:05:04.4	314.270	0.410	-0.650	-0.730
2020/01/31 08:05:04.5	314.280	0.400	-0.640	-0.720
2020/01/31 08:05:04.6	314.290	0.380	-0.640	-0.710
2020/01/31 08:05:04.7	314.310	0.360	-0.640	-0.700
2020/01/31 08:05:04.8	314.320	0.340	-0.630	-0.690
2020/01/31 08:05:04.9	314.330	0.320	-0.630	-0.670
2020/01/31 08:05:05.0	314.340	0.300	-0.620	-0.660
2020/01/31 08:05:05.1	314.350	0.280	-0.610	-0.650
2020/01/31 08:05:05.2	314.360	0.250	-0.600	-0.630
2020/01/31 08:05:05.3	314.370	0.230	-0.590	-0.620
2020/01/31 08:05:05.4	314.390	0.200	-0.580	-0.600
2020/01/31 08:05:05.5	314.400	0.180	-0.570	-0.580
2020/01/31 08:05:05.6	314.410	0.150	-0.550	-0.570
2020/01/31 08:05:05.7	314.430	0.130	-0.540	-0.550
2020/01/31 08:05:05.8	314.440	0.100	-0.520	-0.540
2020/01/31 08:05:05.9	314.460	0.070	-0.510	-0.520
2020/01/31 08:05:06.0	314.470	0.050	-0.490	-0.510
2020/01/31 08:05:06.1	314.490	0.030	-0.470	-0.490
2020/01/31 08:05:06.2	314.500	0.000	-0.460	-0.480
2020/01/31 08:05:06.3	314.520	-0.020	-0.440	-0.460
2020/01/31 08:05:06.4	314.540	-0.040	-0.430	-0.450
2020/01/31 08:05:06.5	314.550	-0.060	-0.410	-0.440
2020/01/31 08:05:06.6	314.570	-0.080	-0.400	-0.430
2020/01/31 08:05:06.7	314.580	-0.100	-0.380	-0.410
2020/01/31 08:05:06.8	314.590	-0.120	-0.370	-0.400
2020/01/31 08:05:06.9	314.600	-0.140	-0.350	-0.390
2020/01/31 08:05:07.0	314.610	-0.150	-0.340	-0.380
2020/01/31 08:05:07.1	314.620	-0.170	-0.330	-0.370
2020/01/31 08:05:07.2	314.630	-0.180	-0.320	-0.350
2020/01/31 08:05:07.3	314.630	-0.200	-0.310	-0.340
2020/01/31 08:05:07.4	314.630	-0.210	-0.290	-0.330
2020/01/31 08:05:07.5	314.640	-0.220	-0.280	-0.320
2020/01/31 08:05:07.6	314.640	-0.230	-0.270	-0.320
2020/01/31 08:05:07.7	314.650	-0.230	-0.260	-0.310
2020/01/31 08:05:07.8	314.650	-0.240	-0.260	-0.300
2020/01/31 08:05:07.9	314.660	-0.250	-0.250	-0.290
2020/01/31 08:05:08.0	314.660	-0.250	-0.240	-0.290
2020/01/31 08:05:08.1	314.670	-0.250	-0.240	-0.290
2020/01/31 08:05:08.2	314.670	-0.250	-0.230	-0.290
2020/01/31 08:05:08.3	314.690	-0.260	-0.220	-0.290
2020/01/31 08:05:08.4	314.700	-0.250	-0.220	-0.290
2020/01/31 08:05:08.5	314.700	-0.250	-0.220	-0.290
2020/01/31 08:05:08.6	314.710	-0.250	-0.220	-0.300
2020/01/31 08:05:08.7	314.710	-0.250	-0.210	-0.300
2020/01/31 08:05:08.8	314.720	-0.240	-0.210	-0.310
2020/01/31 08:05:08.9	314.730	-0.240	-0.210	-0.320
2020/01/31 08:05:09.0	314.730	-0.230	-0.210	-0.330
2020/01/31 08:05:09.1	314.740	-0.230	-0.210	-0.340
2020/01/31 08:05:09.2	314.750	-0.220	-0.210	-0.350
2020/01/31 08:05:09.3	314.750	-0.220	-0.210	-0.360
2020/01/31 08:05:09.4	314.750	-0.210	-0.210	-0.370
2020/01/31 08:05:09.5	314.760	-0.200	-0.210	-0.380
2020/01/31 08:05:09.6	314.760	-0.200	-0.200	-0.390
2020/01/31 08:05:09.7	314.770	-0.190	-0.200	-0.400
2020/01/31 08:05:09.8	314.770	-0.180	-0.190	-0.410
2020/01/31 08:05:09.9	314.780	-0.170	-0.190	-0.420
2020/01/31 08:05:10.0	314.780	-0.170	-0.180	-0.430
2020/01/31 08:05:10.1	314.790	-0.160	-0.170	-0.440
2020/01/31 08:05:10.2	314.790	-0.150	-0.160	-0.450
2020/01/31 08:05:10.3	314.790	-0.150	-0.150	-0.460
2020/01/31 08:05:10.4	314.800	-0.140	-0.140	-0.470
2020/01/31 08:05:10.5	314.800	-0.130	-0.120	-0.480
2020/01/31 08:05:10.6	314.800	-0.130	-0.110	-0.480
2020/01/31 08:05:10.7	314.810	-0.120	-0.100	-0.490
2020/01/31 08:05:10.8	314.810	-0.110	-0.080	-0.490
2020/01/31 08:05:10.9	314.810	-0.110	-0.070	-0.490
2020/01/31 08:05:11.0	314.810	-0.100	-0.050	-0.490
2020/01/31 08:05:11.1	314.820	-0.090	-0.040	-0.490
2020/01/31 08:05:11.2	314.820	-0.080	-0.020	-0.490
2020/01/31 08:05:11.3	314.830	-0.080	-0.010	-0.490
2020/01/31 08:05:11.4	314.830	-0.070	0.010	-0.480
2020/01/31 08:05:11.5	314.830	-0.060	0.020	-0.480
2020/01/31 08:05:11.6	314.830	-0.050	0.030	-0.480
2020/01/31 08:05:11.7	314.830	-0.040	0.040	-0.470
2020/01/31 08:05:11.8	314.830	-0.030	0.060	-0.460
2020/01/31 08:05:11.9	314.830	-0.020	0.070	-0.460
2020/01/31 08:05:12.0	314.830	-0.010	0.080	-0.450
2020/01/31 08:05:12.1	314.830	-0.000	0.090	-0.440
2020/01/31 08:05:12.2	314.820	0.010	0.100	-0.430
2020/01/31 08:05:12.3	314.820	0.020	0.110	-0.420
2020/01/31 08:05:12.4	314.810	0.030	0.110	-0.410
2020/01/31 08:05:12.5	314.810	0.050	0.120	-0.390
2020/01/31 08:05:12.6	314.800	0.060	0.130	-0.380
2020/01/31 08:05:12.7	314.790	0.080	0.140	-0.360
2020/01/31 08:05:12.8	314.780	0.090	0.140	-0.340
2020/01/31 08:05:12.9	314.760	0.110	0.150	-0.320
2020/01/31 08:05:13.0	314.750	0.120	0.150	-0.300
2020/01/31 08:05:13.1	314.740	0.140	0.150	-0.270
2020/01/31 08:05:13.2	314.720	0.150	0.150	-0.250
2020/01/31 08:05:13.3	314.700	0.170	0.150	-0.230
2020/01/31 08:05:13.4	314.680	0.190	0.150	-0.200
2020/01/31 08:05:13.5	314.670	0.210	0.140	-0.180
2020/01/31 08:05:13.6	314.650	0.220	0.130	-0.160
2020/01/31 08:05:13.7	314.630	0.240	0.120	-0.140
2020/01/31 08:05:13.8	314.620	0.260	0.100	-0.130
2020/01/31 08:05:13.9	314.600	0.270	0.080	-0.120
2020/01/31 08:05:14.0	314.590	0.290	0.060	-0.110
2020/01/31 08:05:14.1	314.580	0.300	0.030	-0.100
2020/01/31 08:05:14.2	314.570	0.320	-0.000	-0.100
2020/01/31 08:05:14.3	314.570	0.330	-0.030	-0.100
2020/01/31 08:05:14.4	314.560	0.340	-0.070	-0.110
2020/01/31 08:05:14.5	314.560	0.360	-0.110	-0.120
2020/01/31 08:05:14.6	314.550	0.370	-0.150	-0.130
2020/01/31 08:05:14.7	314.550	0.380	-0.200	-0.150
2020/01/31 08:05:14.8	314.540	0.390	-0.250	-0.170
2020/01/31 08:05:14.9	314.540	0.390	-0.300	-0.190
2020/01/31 08:05:15.0	314.540	0.400	-0.350	-0.220
2020/01/31 08:05:15.1	314.550	0.400	-0.400	-0.250
2020/01/31 08:05:15.2	314.550	0.410	-0.450	-0.290
2020/01/31 08:05:15.3	314.550	0.410	-0.500	-0.320
2020/01/31 08:05:15.4	314.560	0.410	-0.550	-0.360
2020/01/31 08:05:15.5	314.570	0.410	-0.600	-0.400
2020/01/31 08:05:15.6	314.580	0.400	-0.650	-0.440
2020/01/31 08:05:15.7	314.590	0.400	-0.690	-0.480
2020/01/31 08:05:15.8	314.610	0.390	-0.730	-0.520
2020/01/31 08:05:15.9	314.620	0.380	-0.770	-0.560
2020/01/31 08:05:16.0	314.640	0.370	-0.800	-0.600
2020/01/31 08:05:16.1	314.650	0.360	-0.830	-0.640
2020/01/31 08:05:16.2	314.670	0.340	-0.860	-0.680
2020/01/31 08:05:16.3	314.700	0.320	-0.880	-0.730
2020/01/31 08:05:16.4	314.710	0.310	-0.890	-0.770
2020/01/31 08:05:16.5	314.730	0.290	-0.900	-0.810
2020/01/31 08:05:16.6	314.750	0.270	-0.910	-0.840
2020/01/31 08:05:16.7	314.770	0.240	-0.910	-0.870
2020/01/31 08:05:16.8	314.790	0.220	-0.900	-0.900
2020/01/31 08:05:16.9	314.810	0.190	-0.890	-0.930
2020/01/31 08:05:17.0	314.820	0.170	-0.870	-0.950
2020/01/31 08:05:17.1	314.840	0.140	-0.850	-0.970
2020/01/31 08:05:17.2	314.850	0.110	-0.820	-0.980
2020/01/31 08:05:17.3	314.860	0.080	-0.790	-0.990
2020/01/31 08:05:17.4	314.870	0.060	-0.750	-1.000
2020/01/31 08:05:17.5	314.880	0.030	-0.710	-1.000
2020/01/31 08:05:17.6	314.890	-0.000	-0.670	-1.000
2020/01/31 08:05:17.7	314.900	-0.030	-0.620	-1.000
2020/01/31 08:05:17.8	314.900	-0.060	-0.570	-0.990
2020/01/31 08:05:17.9	314.910	-0.080	-0.520	-0.980
2020/01/31 08:05:18.0	314.910	-0.110	-0.470	-0.970
2020/01/31 08:05:18.1	314.920	-0.140	-0.420	-0.950
2020/01/31 08:05:18.2	314.920	-0.160	-0.370	-0.940
2020/01/31 08:05:18.3	314.920	-0.190	-0.310	-0.920
2020/01/31 08:05:18.4	314.920	-0.210	-0.260	-0.900
2020/01/31 08:05:18.5	314.920	-0.230	-0.220	-0.880
2020/01/31 08:05:18.6	314.920	-0.250	-0.170	-0.860
2020/01/31 08:05:18.7	314.920	-0.270	-0.130	-0.840
2020/01/31 08:05:18.8	314.920	-0.280	-0.080	-0.820
2020/01/31 08:05:18.9	314.930	-0.300	-0.050	-0.800
2020/01/31 08:05:19.0	314.930	-0.310	-0.010	-0.780
2020/01/31 08:05:19.1	314.930	-0.320	0.020	-0.760
2020/01/31 08:05:19.2	314.930	-0.330	0.050	-0.740
2020/01/31 08:05:19.3	314.940	-0.330	0.070	-0.710
2020/01/31 08:05:19.4	314.940	-0.340	0.100	-0.690
2020/01/31 08:05:19.5	314.950	-0.340	0.120	-0.670
2020/01/31 08:05:19.6	314.950	-0.340	0.130	-0.650
2020/01/31 08:05:19.7	314.960	-0.340	0.150	-0.620
2020/01/31 08:05:19.8	314.970	-0.340	0.160	-0.600
2020/01/31 08:05:19.9	314.980	-0.330	0.160	-0.580
2020/01/31 08:05:20.0	314.990	-0.330	0.170	-0.560
2020/01/31 08:05:20.1	315.000	-0.320	0.170	-0.530
2020/01/31 08:05:20.2	315.010	-0.320	0.170	-0.510
2020/01/31 08:05:20.3	315.020	-0.310	0.170	-0.490
2020/01/31 08:05:20.4	315.030	-0.300	0.170	-0.460
2020/01/31 08:05:20.5	315.050	-0.300	0.160	-0.440
2020/01/31 08:05:20.6	315.060	-0.290	0.160	-0.420
2020/01/31 08:05:20.7	315.070	-0.280	0.150	-0.400
2020/01/31 08:05:20.8	315.080	-0.270	0.140	-0.380
2020/01/31 08:05:20.9	315.080	-0.270	0.130	-0.360
2020/01/31 08:05:21.0	315.090	-0.260	0.120	-0.340
2020/01/31 08:05:21.1	315.100	-0.250	0.110	-0.320
2020/01/31 08:05:21.2	315.110	-0.250	0.090	-0.310
2020/01/31 08:05:21.3	315.110	-0.240	0.080	-0.290
2020/01/31 08:05:21.4	315.120	-0.240	0.060	-0.280
2020/01/31 08:05:21.5	315.120	-0.230	0.050	-0.270
2020/01/31 08:05:21.6	315.120	-0.230	0.030	-0.260
2020/01/31 08:05:21.7	315.130	-0.220	0.020	-0.260
2020/01/31 08:05:21.8	315.130	-0.220	0.000	-0.250
2020/01/31 08:05:21.9	315.130	-0.210	-0.010	-0.250
2020/01/31 08:05:22.0	315.130	-0.210	-0.030	-0.250
2020/01/31 08:05:22.1	315.130	-0.200	-0.040	-0.250
2020/01/31 08:05:22.2	315.130	-0.200	-0.060	-0.260
2020/01/31 08:05:22.3	315.140	-0.190	-0.070	-0.260
2020/01/31 08:05:22.4	315.140	-0.180	-0.090	-0.270
2020/01/31 08:05:22.5	315.150	-0.180	-0.100	-0.280
2020/01/31 08:05:22.6	315.150	-0.170	-0.120	-0.290
2020/01/31 08:05:22.7	315.150	-0.160	-0.130	-0.300
2020/01/31 08:05:22.8	315.150	-0.150	-0.150	-0.310
2020/01/31 08:05:22.9	315.160	-0.140	-0.170	-0.330
2020/01/31 08:05:23.0	315.160	-0.130	-0.180	-0.340
2020/01/31 08:05:23.1	315.170	-0.120	-0.200	-0.360
2020/01/31 08:05:23.2	315.170	-0.100	-0.220	-0.380
2020/01/31 08:05:23.3	315.180	-0.090	-0.240	-0.390
2020/01/31 08:05:23.4	315.190	-0.080	-0.260	-0.410
2020/01/31 08:05:23.5	315.200	-0.060	-0.280	-0.430
2020/01/31 08:05:23.6	315.200	-0.040	-0.300	-0.450
2020/01/31 08:05:23.7	315.210	-0.030	-0.320	-0.470
2020/01/31 08:05:23.8	315.220	-0.010	-0.340	-0.490
2020/01/31 08:05:23.9	315.220	0.010	-0.360	-0.510
2020/01/31 08:05:24.0	315.230	0.030	-0.380	-0.530
2020/01/31 08:05:24.1	315.230	0.040	-0.400	-0.550
2020/01/31 08:05:24.2	315.240	0.060	-0.420	-0.570
2020/01/31 08:05:24.3	315.250	0.080	-0.440	-0.590
2020/01/31 08:05:24.4	315.250	0.100	-0.450	-0.600
2020/01/31 08:05:24.5	315.250	0.120	-0.470	-0.620
2020/01/31 08:05:24.6	315.260	0.140	-0.480	-0.630
2020/01/31 08:05:24.7	315.260	0.160	-0.490	-0.630
2020/01/31 08:05:24.8	315.260	0.180	-0.500	-0.640
2020/01/31 08:05:24.9	315.250	0.200	-0.500	-0.640
2020/01/31 08:05:25.0	315.250	0.220	-0.510	-0.640
2020/01/31 08:05:25.1	315.250	0.230	-0.510	-0.640
2020/01/31 08:05:25.2	315.250	0.250	-0.510	-0.630
2020/01/31 08:05:25.3	315.240	0.270	-0.500	-0.620
2020/01/31 08:05:25.4	315.240	0.280	-0.490	-0.610
2020/01/31 08:05:25.5	315.230	0.290	-0.490	-0.590
2020/01/31 08:05:25.6	315.230	0.310	-0.470	-0.570
2020/01/31 08:05:25.7	315.220	0.320	-0.460	-0.550
2020/01/31 08:05:25.8	315.210	0.330	-0.450	-0.530
2020/01/31 08:05:25.9	315.210	0.340	-0.430	-0.510
2020/01/31 08:05:26.0	315.200	0.340	-0.410	-0.480
2020/01/31 08:05:26.1	315.190	0.350	-0.390	-0.450
2020/01/31 08:05:26.2	315.190	0.350	-0.380	-0.420
2020/01/31 08:05:26.3	315.160	0.360	-0.360	-0.400
2020/01/31 08:05:26.4	315.160	0.360	-0.340	-0.370
2020/01/31 08:05:26.5	315.150	0.360	-0.320	-0.340
2020/01/31 08:05:26.6	315.140	0.360	-0.300	-0.310
2020/01/31 08:05:26.7	315.130	0.350	-0.280	-0.270
2020/01/31 08:05:26.8	315.120	0.350	-0.260	-0.240
2020/01/31 08:05:26.9	315.110	0.340	-0.240	-0.210
2020/01/31 08:05:27.0	315.100	0.330	-0.220	-0.180
2020/01/31 08:05:27.1	315.090	0.320	-0.210	-0.150
2020/01/31 08:05:27.2	315.080	0.310	-0.190	-0.120
2020/01/31 08:05:27.3	315.070	0.300	-0.180	-0.080
2020/01/31 08:05:27.4	315.060	0.290	-0.170	-0.060
2020/01/31 08:05:27.5	315.050	0.280	-0.160	-0.030
2020/01/31 08:05:27.6	315.040	0.260	-0.150	-0.000
2020/01/31 08:05:27.7	315.030	0.250	-0.140	0.020
2020/01/31 08:05:27.8	315.010	0.230	-0.140	0.040
2020/01/31 08:05:27.9	315.000	0.220	-0.140	0.060
2020/01/31 08:05:28.0	314.990	0.200	-0.130	0.080
2020/01/31 08:05:28.1	314.980	0.180	-0.140	0.100
2020/01/31 08:05:28.2	314.970	0.170	-0.140	0.110
2020/01/31 08:05:28.3	314.940	0.150	-0.140	0.120
2020/01/31 08:05:28.4	314.930	0.140	-0.150	0.140
2020/01/31 08:05:28.5	314.930	0.120	-0.160	0.150
2020/01/31 08:05:28.6	314.920	0.110	-0.160	0.150
2020/01/31 08:05:28.7	314.910	0.100	-0.170	0.160
2020/01/31 08:05:28.8	314.910	0.090	-0.180	0.160
2020/01/31 08:05:28.9	314.900	0.070	-0.190	0.160
2020/01/31 08:05:29.0	314.900	0.060	-0.200	0.160
2020/01/31 08:05:29.1	314.890	0.050	-0.210	0.160
2020/01/31 08:05:29.2	314.890	0.040	-0.230	0.160
2020/01/31 08:05:29.3	314.900	0.040	-0.230	0.150
2020/01/31 08:05:29.4	314.900	0.030	-0.250	0.140
2020/01/31 08:05:29.5	314.900	0.020	-0.260	0.130
2020/01/31 08:05:29.6	314.910	0.020	-0.270	0.120
2020/01/31 08:05:29.7	314.910	0.020	-0.280	0.100
2020/01/31 08:05:29.8	314.920	0.010	-0.290	0.090
2020/01/31 08:05:29.9	314.920	0.010	-0.300	0.070
2020/01/31 08:05:30.0	314.930	0.010	-0.320	0.050
2020/01/31 08:05:30.1	314.940	0.010	-0.330	0.030
2020/01/31 08:05:30.2	314.950	0.010	-0.340	0.010
2020/01/31 08:05:30.3	314.960	0.010	-0.350	-0.010
2020/01/31 08:05:30.4	314.970	0.010	-0.360	-0.040
2020/01/31 08:05:30.5	314.980	0.020	-0.370	-0.060
2020/01/31 08:05:30.6	315.000	0.020	-0.380	-0.090
2020/01/31 08:05:30.7	315.010	0.020	-0.380	-0.110
2020/01/31 08:05:30.8	315.030	0.020	-0.390	-0.140
2020/01/31 08:05:30.9	315.050	0.030	-0.400	-0.170
2020/01/31 08:05:31.0	315.060	0.030	-0.400	-0.200
2020/01/31 08:05:31.1	315.080	0.030	-0.410	-0.220
2020/01/31 08:05:31.2	315.100	0.030	-0.410	-0.250
2020/01/31 08:05:31.3	315.120	0.030	-0.410	-0.280
2020/01/31 08:05:31.4	315.140	0.030	-0.410	-0.310
2020/01/31 08:05:31.5	315.150	0.030	-0.410	-0.340
2020/01/31 08:05:31.6	315.170	0.030	-0.400	-0.370
2020/01/31 08:05:31.7	315.190	0.020	-0.400	-0.390
2020/01/31 08:05:31.8	315.210	0.020	-0.390	-0.420
2020/01/31 08:05:31.9	315.220	0.010	-0.380	-0.450
2020/01/31 08:05:32.0	315.240	0.010	-0.380	-0.470
2020/01/31 08:05:32.1	315.260	-0.000	-0.370	-0.500
2020/01/31 08:05:32.2	315.280	-0.010	-0.360	-0.530
2020/01/31 08:05:32.3	315.290	-0.020	-0.350	-0.550
2020/01/31 08:05:32.4	315.310	-0.040	-0.330	-0.580
2020/01/31 08:05:32.5	315.330	-0.050	-0.320	-0.610
2020/01/31 08:05:32.6	315.350	-0.060	-0.310	-0.640
2020/01/31 08:05:32.7	315.370	-0.080	-0.290	-0.670
2020/01/31 08:05:32.8	315.380	-0.090	-0.280	-0.700
2020/01/31 08:05:32.9	315.400	-0.110	-0.270	-0.730
2020/01/31 08:05:33.0	315.420	-0.120	-0.250	-0.750
2020/01/31 08:05:33.1	315.440	-0.140	-0.240	-0.780
2020/01/31 08:05:33.2	315.460	-0.150	-0.220	-0.810
2020/01/31 08:05:33.3	315.480	-0.170	-0.210	-0.840
2020/01/31 08:05:33.4	315.500	-0.180	-0.190	-0.860
2020/01/31 08:05:33.5	315.520	-0.200	-0.180	-0.880
2020/01/31 08:05:33.6	315.530	-0.210	-0.170	-0.900
2020/01/31 08:05:33.7	315.550	-0.230	-0.160	-0.920
2020/01/31 08:05:33.8	315.570	-0.240	-0.150	-0.940
2020/01/31 08:05:33.9	315.590	-0.250	-0.140	-0.960
2020/01/31 08:05:34.0	315.610	-0.260	-0.130	-0.970
2020/01/31 08:05:34.1	315.630	-0.270	-0.120	-0.990
2020/01/31 08:05:34.2	315.650	-0.270	-0.110	-1.000
2020/01/31 08:05:34.3	315.670	-0.280	-0.110	-1.010
2020/01/31 08:05:34.4	315.680	-0.280	-0.100	-1.010
2020/01/31 08:05:34.5	315.700	-0.290	-0.090	-1.020
2020/01/31 08:05:34.6	315.710	-0.290	-0.080	-1.010
2020/01/31 08:05:34.7	315.720	-0.290	-0.070	-1.010
2020/01/31 08:05:34.8	315.720	-0.290	-0.070	-1.000
2020/01/31 08:05:34.9	315.730	-0.290	-0.060	-0.990
2020/01/31 08:05:35.0	315.730	-0.290	-0.050	-0.970
2020/01/31 08:05:35.1	315.720	-0.290	-0.040	-0.950
2020/01/31 08:05:35.2	315.720	-0.290	-0.030	-0.930
2020/01/31 08:05:35.3	315.720	-0.280	-0.020	-0.890
2020/01/31 08:05:35.4	315.700	-0.280	-0.010	-0.860
2020/01/31 08:05:35.5	315.690	-0.270	0.000	-0.820
2020/01/31 08:05:35.6	315.670	-0.260	0.010	-0.780
2020/01/31 08:05:35.7	315.650	-0.260	0.020	-0.740
2020/01/31 08:05:35.8	315.630	-0.250	0.030	-0.690
2020/01/31 08:05:35.9	315.600	-0.240	0.040	-0.650
2020/01/31 08:05:36.0	315.580	-0.240	0.050	-0.600
2020/01/31 08:05:36.1	315.550	-0.230	0.050	-0.550
2020/01/31 08:05:36.2	315.520	-0.220	0.060	-0.500
2020/01/31 08:05:36.3	315.480	-0.210	0.060	-0.450
2020/01/31 08:05:36.4	315.450	-0.200	0.070	-0.400
2020/01/31 08:05:36.5	315.420	-0.190	0.070	-0.350
2020/01/31 08:05:36.6	315.390	-0.180	0.070	-0.300
2020/01/31 08:05:36.7	315.350	-0.170	0.070	-0.250
2020/01/31 08:05:36.8	315.320	-0.160	0.070	-0.200
2020/01/31 08:05:36.9	315.290	-0.150	0.070	-0.160
2020/01/31 08:05:37.0	315.250	-0.130	0.070	-0.110
2020/01/31 08:05:37.1	315.220	-0.120	0.060	-0.060
2020/01/31 08:05:37.2	315.190	-0.110	0.050	-0.020
2020/01/31 08:05:37.3	315.160	-0.090	0.050	0.020
2020/01/31 08:05:37.4	315.130	-0.080	0.030	0.060
2020/01/31 08:05:37.5	315.100	-0.060	0.020	0.100
2020/01/31 08:05:37.6	315.070	-0.050	0.010	0.140
2020/01/31 08:05:37.7	315.040	-0.030	-0.010	0.170
2020/01/31 08:05:37.8	315.020	-0.020	-0.030	0.210
2020/01/31 08:05:37.9	314.990	0.000	-0.050	0.240
2020/01/31 08:05:38.0	314.970	0.020	-0.070	0.270
2020/01/31 08:05:38.1	314.950	0.030	-0.100	0.300
2020/01/31 08:05:38.2	314.930	0.050	-0.120	0.320
2020/01/31 08:05:38.3	314.910	0.070	-0.150	0.350
2020/01/31 08:05:38.4	314.890	0.090	-0.180	0.370
2020/01/31 08:05:38.5	314.880	0.100	-0.200	0.380
2020/01/31 08:05:38.6	314.860	0.120	-0.230	0.400
2020/01/31 08:05:38.7	314.850	0.140	-0.260	0.410
2020/01/31 08:05:38.8	314.840	0.150	-0.290	0.420
2020/01/31 08:05:38.9	314.830	0.170	-0.320	0.430
2020/01/31 08:05:39.0	314.820	0.190	-0.350	0.430
2020/01/31 08:05:39.1	314.810	0.200	-0.370	0.440
2020/01/31 08:05:39.2	314.810	0.220	-0.400	0.440
2020/01/31 08:05:39.3	314.820	0.230	-0.430	0.440
2020/01/31 08:05:39.4	314.810	0.240	-0.450	0.430
2020/01/31 08:05:39.5	314.810	0.250	-0.480	0.430
2020/01/31 08:05:39.6	314.810	0.270	-0.500	0.430
2020/01/31 08:05:39.7	314.800	0.280	-0.520	0.420
2020/01/31 08:05:39.8	314.800	0.290	-0.540	0.420
2020/01/31 08:05:39.9	314.800	0.300	-0.560	0.420
2020/01/31 08:05:40.0	314.800	0.300	-0.570	0.410
2020/01/31 08:05:40.1	314.800	0.310	-0.580	0.400
2020/01/31 08:05:40.2	314.800	0.320	-0.590	0.400
2020/01/31 08:05:40.3	314.790	0.320	-0.600	0.390
2020/01/31 08:05:40.4	314.790	0.330	-0.610	0.390
2020/01/31 08:05:40.5	314.800	0.330	-0.610	0.380
2020/01/31 08:05:40.6	314.800	0.330	-0.620	0.370
2020/01/31 08:05:40.7	314.800	0.340	-0.620	0.360
2020/01/31 08:05:40.8	314.800	0.340	-0.610	0.350
2020/01/31 08:05:40.9	314.800	0.340	-0.610	0.340
2020/01/31 08:05:41.0	314.810	0.340	-0.600	0.330
2020/01/31 08:05:41.1	314.810	0.340	-0.590	0.320
2020/01/31 08:05:41.2	314.820	0.340	-0.580	0.310
2020/01/31 08:05:41.3	314.830	0.340	-0.570	0.300
2020/01/31 08:05:41.4	314.840	0.340	-0.550	0.290
2020/01/31 08:05:41.5	314.840	0.340	-0.540	0.270
2020/01/31 08:05:41.6	314.850	0.340	-0.520	0.260
2020/01/31 08:05:41.7	314.850	0.340	-0.500	0.250
2020/01/31 08:05:41.8	314.860	0.340	-0.480	0.230
2020/01/31 08:05:41.9	314.870	0.330	-0.460	0.220
2020/01/31 08:05:42.0	314.880	0.330	-0.440	0.200
2020/01/31 08:05:42.1	314.890	0.330	-0.430	0.190
2020/01/31 08:05:42.2	314.890	0.330	-0.410	0.170
2020/01/31 08:05:42.3	314.900	0.330	-0.390	0.150
2020/01/31 08:05:42.4	314.910	0.320	-0.370	0.140
2020/01/31 08:05:42.5	314.920	0.320	-0.350	0.120
2020/01/31 08:05:42.6	314.920	0.320	-0.340	0.110
2020/01/31 08:05:42.7	314.930	0.310	-0.320	0.090
2020/01/31 08:05:42.8	314.940	0.310	-0.300	0.070
2020/01/31 08:05:42.9	314.940	0.300	-0.290	0.060
2020/01/31 08:05:43.0	314.950	0.290	-0.270	0.040
2020/01/31 08:05:43.1	314.950	0.280	-0.260	0.020
2020/01/31 08:05:43.2	314.960	0.270	-0.250	0.010
2020/01/31 08:05:43.3	314.960	0.260	-0.240	-0.010
2020/01/31 08:05:43.4	314.960	0.250	-0.230	-0.030
2020/01/31 08:05:43.5	314.960	0.240	-0.220	-0.050
2020/01/31 08:05:43.6	314.960	0.230	-0.210	-0.070
2020/01/31 08:05:43.7	314.960	0.210	-0.200	-0.080
2020/01/31 08:05:43.8	314.970	0.190	-0.190	-0.100
2020/01/31 08:05:43.9	314.970	0.180	-0.190	-0.120
2020/01/31 08:05:44.0	314.970	0.160	-0.180	-0.140
2020/01/31 08:05:44.1	314.970	0.140	-0.180	-0.160
2020/01/31 08:05:44.2	314.970	0.120	-0.180	-0.180
2020/01/31 08:05:44.3	314.970	0.100	-0.180	-0.200
2020/01/31 08:05:44.4	314.970	0.080	-0.180	-0.220
2020/01/31 08:05:44.5	314.980	0.050	-0.180	-0.240
2020/01/31 08:05:44.6	314.980	0.030	-0.180	-0.270
2020/01/31 08:05:44.7	314.980	0.010	-0.180	-0.290
2020/01/31 08:05:44.8	314.990	-0.020	-0.180	-0.310
2020/01/31 08:05:44.9	314.990	-0.040	-0.190	-0.330
2020/01/31 08:05:45.0	315.000	-0.070	-0.190	-0.350
2020/01/31 08:05:45.1	315.010	-0.100	-0.200	-0.370
2020/01/31 08:05:45.2	315.010	-0.120	-0.200	-0.400
2020/01/31 08:05:45.3	315.030	-0.150	-0.210	-0.420
2020/01/31 08:05:45.4	315.040	-0.170	-0.210	-0.450
2020/01/31 08:05:45.5	315.040	-0.200	-0.220	-0.470
2020/01/31 08:05:45.6	315.050	-0.230	-0.230	-0.490
2020/01/31 08:05:45.7	315.060	-0.250	-0.240	-0.520
2020/01/31 08:05:45.8	315.070	-0.280	-0.240	-0.540
2020/01/31 08:05:45.9	315.080	-0.300	-0.250	-0.570
2020/01/31 08:05:46.0	315.080	-0.330	-0.250	-0.590
2020/01/31 08:05:46.1	315.090	-0.350	-0.260	-0.610
2020/01/31 08:05:46.2	315.090	-0.370	-0.260	-0.640
2020/01/31 08:05:46.3	315.100	-0.400	-0.270	-0.660
2020/01/31 08:05:46.4	315.100	-0.420	-0.270	-0.680
2020/01/31 08:05:46.5	315.110	-0.440	-0.270	-0.710
2020/01/31 08:05:46.6	315.110	-0.450	-0.280	-0.730
2020/01/31 08:05:46.7	315.110	-0.470	-0.280	-0.750
2020/01/31 08:05:46.8	315.110	-0.490	-0.280	-0.770
2020/01/31 08:05:46.9	315.110	-0.500	-0.280	-0.790
2020/01/31 08:05:47.0	315.110	-0.510	-0.280	-0.810
2020/01/31 08:05:47.1	315.110	-0.520	-0.280	-0.830
2020/01/31 08:05:47.2	315.110	-0.530	-0.270	-0.850
2020/01/31 08:05:47.3	315.100	-0.540	-0.270	-0.870
2020/01/31 08:05:47.4	315.100	-0.540	-0.260	-0.880
2020/01/31 08:05:47.5	315.090	-0.540	-0.260	-0.900
2020/01/31 08:05:47.6	315.090	-0.540	-0.250	-0.910
2020/01/31 08:05:47.7	315.090	-0.540	-0.250	-0.920
2020/01/31 08:05:47.8	315.090	-0.540	-0.240	-0.930
2020/01/31 08:05:47.9	315.090	-0.530	-0.230	-0.940
2020/01/31 08:05:48.0	315.090	-0.530	-0.230	-0.940
2020/01/31 08:05:48.1	315.090	-0.520	-0.220	-0.940
2020/01/31 08:05:48.2	315.090	-0.510	-0.200	-0.940
2020/01/31 08:05:48.3	315.090	-0.500	-0.190	-0.940
2020/01/31 08:05:48.4	315.090	-0.480	-0.180	-0.940
2020/01/31 08:05:48.5	315.080	-0.470	-0.160	-0.930
2020/01/31 08:05:48.6	315.080	-0.460	-0.140	-0.920
2020/01/31 08:05:48.7	315.070	-0.440	-0.120	-0.900
2020/01/31 08:05:48.8	315.060	-0.430	-0.100	-0.880
2020/01/31 08:05:48.9	315.050	-0.410	-0.080	-0.860
2020/01/31 08:05:49.0	315.040	-0.390	-0.060	-0.830
2020/01/31 08:05:49.1	315.030	-0.380	-0.030	-0.800
2020/01/31 08:05:49.2	315.010	-0.360	-0.010	-0.760
2020/01/31 08:05:49.3	315.000	-0.340	0.020	-0.720
2020/01/31 08:05:49.4	314.980	-0.330	0.050	-0.680
2020/01/31 08:05:49.5	314.960	-0.310	0.080	-0.630
2020/01/31 08:05:49.6	314.950	-0.300	0.100	-0.580
2020/01/31 08:05:49.7	314.930	-0.280	0.130	-0.530
2020/01/31 08:05:49.8	314.910	-0.260	0.150	-0.480
2020/01/31 08:05:49.9	314.880	-0.250	0.180	-0.420
2020/01/31 08:05:50.0	314.860	-0.230	0.200	-0.360
2020/01/31 08:05:50.1	314.840	-0.210	0.220	-0.310
2020/01/31 08:05:50.2	314.820	-0.200	0.240	-0.250
2020/01/31 08:05:50.3	314.810	-0.180	0.250	-0.190
2020/01/31 08:05:50.4	314.790	-0.160	0.270	-0.130
2020/01/31 08:05:50.5	314.770	-0.150	0.280	-0.060
2020/01/31 08:05:50.6	314.740	-0.130	0.280	-0.000
2020/01/31 08:05:50.7	314.720	-0.110	0.290	0.060
2020/01/31 08:05:50.8	314.700	-0.090	0.290	0.120
2020/01/31 08:05:50.9	314.680	-0.070	0.280	0.190
2020/01/31 08:05:51.0	314.660	-0.050	0.280	0.250
2020/01/31 08:05:51.1	314.630	-0.030	0.270	0.310
2020/01/31 08:05:51.2	314.610	-0.010	0.260	0.370
2020/01/31 08:05:51.3	314.570	0.010	0.240	0.430
2020/01/31 08:05:51.4	314.550	0.030	0.220	0.490
2020/01/31 08:05:51.5	314.530	0.060	0.200	0.550
2020/01/31 08:05:51.6	314.510	0.080	0.180	0.600
2020/01/31 08:05:51.7	314.480	0.110	0.160	0.660
2020/01/31 08:05:51.8	314.460	0.130	0.130	0.710
2020/01/31 08:05:51.9	314.440	0.160	0.100	0.760
2020/01/31 08:05:52.0	314.420	0.190	0.060	0.810
2020/01/31 08:05:52.1	314.400	0.220	0.030	0.860
2020/01/31 08:05:52.2	314.380	0.250	-0.010	0.900
2020/01/31 08:05:52.3	314.350	0.280	-0.050	0.940
2020/01/31 08:05:52.4	314.340	0.310	-0.090	0.970
2020/01/31 08:05:52.5	314.320	0.340	-0.130	1.000
2020/01/31 08:05:52.6	314.310	0.380	-0.170	1.030
2020/01/31 08:05:52.7	314.300	0.410	-0.220	1.060
2020/01/31 08:05:52.8	314.290	0.440	-0.260	1.070
2020/01/31 08:05:52.9	314.290	0.480	-0.310	1.090
2020/01/31 08:05:53.0	314.280	0.510	-0.350	1.100
2020/01/31 08:05:53.1	314.280	0.540	-0.400	1.100
2020/01/31 08:05:53.2	314.280	0.570	-0.440	1.100
2020/01/31 08:05:53.3	314.290	0.610	-0.490	1.100
2020/01/31 08:05:53.4	314.290	0.630	-0.540	1.090
2020/01/31 08:05:53.5	314.300	0.660	-0.580	1.080
2020/01/31 08:05:53.6	314.300	0.690	-0.620	1.060
2020/01/31 08:05:53.7	314.310	0.710	-0.660	1.050
2020/01/31 08:05:53.8	314.320	0.730	-0.690	1.030
2020/01/31 08:05:53.9	314.320	0.750	-0.730	1.010
2020/01/31 08:05:54.0	314.330	0.770	-0.760	0.980
2020/01/31 08:05:54.1	314.340	0.780	-0.790	0.950
2020/01/31 08:05:54.2	314.350	0.790	-0.810	0.920
2020/01/31 08:05:54.3	314.350	0.800	-0.830	0.900
2020/01/31 08:05:54.4	314.360	0.800	-0.860	0.860
2020/01/31 08:05:54.5	314.360	0.800	-0.870	0.820
2020/01/31 08:05:54.6	314.370	0.790	-0.890	0.780
2020/01/31 08:05:54.7	314.380	0.780	-0.900	0.740
2020/01/31 08:05:54.8	314.380	0.770	-0.910	0.690
2020/01/31 08:05:54.9	314.390	0.750	-0.920	0.640
2020/01/31 08:05:55.0	314.390	0.730	-0.930	0.580
2020/01/31 08:05:55.1	314.400	0.710	-0.930	0.530
2020/01/31 08:05:55.2	314.400	0.680	-0.930	0.470
2020/01/31 08:05:55.3	314.410	0.650	-0.920	0.400
2020/01/31 08:05:55.4	314.410	0.620	-0.920	0.340
2020/01/31 08:05:55.5	314.410	0.580	-0.910	0.280
2020/01/31 08:05:55.6	314.420	0.550	-0.900	0.210
2020/01/31 08:05:55.7	314.420	0.500	-0.890	0.140
2020/01/31 08:05:55.8	314.420	0.460	-0.870	0.080
2020/01/31 08:05:55.9	314.420	0.410	-0.850	0.010
2020/01/31 08:05:56.0	314.420	0.370	-0.830	-0.060
2020/01/31 08:05:56.1	314.420	0.320	-0.810	-0.130
2020/01/31 08:05:56.2	314.410	0.270	-0.790	-0.200
2020/01/31 08:05:56.3	314.410	0.220	-0.760	-0.270
2020/01/31 08:05:56.4	314.410	0.160	-0.730	-0.340
2020/01/31 08:05:56.5	314.410	0.110	-0.700	-0.410
2020/01/31 08:05:56.6	314.400	0.060	-0.670	-0.480
2020/01/31 08:05:56.7	314.400	0.000	-0.630	-0.540
2020/01/31 08:05:56.8	314.400	-0.050	-0.600	-0.610
2020/01/31 08:05:56.9	314.390	-0.100	-0.560	-0.670
2020/01/31 08:05:57.0	314.390	-0.150	-0.520	-0.740
2020/01/31 08:05:57.1	314.380	-0.200	-0.480	-0.800
2020/01/31 08:05:57.2	314.380	-0.250	-0.440	-0.860
2020/01/31 08:05:57.3	314.390	-0.300	-0.390	-0.920
2020/01/31 08:05:57.4	314.380	-0.350	-0.350	-0.970
2020/01/31 08:05:57.5	314.380	-0.400	-0.310	-1.020
2020/01/31 08:05:57.6	314.370	-0.440	-0.260	-1.070
2020/01/31 08:05:57.7	314.370	-0.480	-0.220	-1.120
2020/01/31 08:05:57.8	314.360	-0.520	-0.180	-1.170
2020/01/31 08:05:57.9	314.350	-0.560	-0.140	-1.210
2020/01/31 08:05:58.0	314.350	-0.600	-0.090	-1.240
2020/01/31 08:05:58.1	314.340	-0.630	-0.050	-1.280
2020/01/31 08:05:58.2	314.340	-0.660	-0.010	-1.310
2020/01/31 08:05:58.3	314.340	-0.690	0.020	-1.330
2020/01/31 08:05:58.4	314.340	-0.720	0.060	-1.350
2020/01/31 08:05:58.5	314.330	-0.740	0.090	-1.370
2020/01/31 08:05:58.6	314.330	-0.760	0.130	-1.380
2020/01/31 08:05:58.7	314.320	-0.780	0.160	-1.390
2020/01/31 08:05:58.8	314.320	-0.800	0.190	-1.390
2020/01/31 08:05:58.9	314.310	-0.810	0.210	-1.390
2020/01/31 08:05:59.0	314.310	-0.820	0.240	-1.390
2020/01/31 08:05:59.1	314.300	-0.830	0.260	-1.380
2020/01/31 08:05:59.2	314.300	-0.830	0.280	-1.380
2020/01/31 08:05:59.3	314.300	-0.830	0.290	-1.360
2020/01/31 08:05:59.4	314.300	-0.830	0.310	-1.350
2020/01/31 08:05:59.5	314.300	-0.830	0.310	-1.330
2020/01/31 08:05:59.6	314.300	-0.820	0.320	-1.320
2020/01/31 08:05:59.7	314.290	-0.810	0.320	-1.290
2020/01/31 08:05:59.8	314.290	-0.800	0.320	-1.270
2020/01/31 08:05:59.9	314.290	-0.780	0.320	-1.240
2020/01/31 08:06:00.0	314.290	-0.770	0.320	-1.210
2020/01/31 08:06:00.1	314.280	-0.750	0.310	-1.180
2020/01/31 08:06:00.2	314.280	-0.720	0.290	-1.140
2020/01/31 08:06:00.3	314.280	-0.700	0.280	-1.100
2020/01/31 08:06:00.4	314.270	-0.670	0.260	-1.060
2020/01/31 08:06:00.5	314.270	-0.650	0.240	-1.020
2020/01/31 08:06:00.6	314.270	-0.620	0.220	-0.970
2020/01/31 08:06:00.7	314.270	-0.590	0.200	-0.920
2020/01/31 08:06:00.8	314.260	-0.550	0.170	-0.870
2020/01/31 08:06:00.9	314.260	-0.520	0.140	-0.810
2020/01/31 08:06:01.0	314.260	-0.490	0.120	-0.750
2020/01/31 08:06:01.1	314.250	-0.450	0.090	-0.690
2020/01/31 08:06:01.2	314.250	-0.420	0.060	-0.630
2020/01/31 08:06:01.3	314.250	-0.380	0.030	-0.570
2020/01/31 08:06:01.4	314.240	-0.340	-0.000	-0.500
2020/01/31 08:06:01.5	314.240	-0.310	-0.030	-0.430
2020/01/31 08:06:01.6	314.230	-0.270	-0.060	-0.360
2020/01/31 08:06:01.7	314.220	-0.240	-0.090	-0.290
2020/01/31 08:06:01.8	314.210	-0.200	-0.120	-0.210
2020/01/31 08:06:01.9	314.200	-0.170	-0.140	-0.140
2020/01/31 08:06:02.0	314.190	-0.130	-0.170	-0.070
2020/01/31 08:06:02.1	314.180	-0.100	-0.190	0.010
2020/01/31 08:06:02.2	314.170	-0.060	-0.210	0.090
2020/01/31 08:06:02.3	314.150	-0.030	-0.230	0.170
2020/01/31 08:06:02.4	314.130	0.010	-0.240	0.240
2020/01/31 08:06:02.5	314.120	0.040	-0.260	0.320
2020/01/31 08:06:02.6	314.100	0.070	-0.270	0.400
2020/01/31 08:06:02.7	314.090	0.100	-0.280	0.470
2020/01/31 08:06:02.8	314.070	0.140	-0.280	0.550
2020/01/31 08:06:02.9	314.060	0.170	-0.290	0.630
2020/01/31 08:06:03.0	314.040	0.200	-0.290	0.700
2020/01/31 08:06:03.1	314.030	0.230	-0.280	0.770
2020/01/31 08:06:03.2	314.010	0.260	-0.280	0.840
2020/01/31 08:06:03.3	314.000	0.290	-0.270	0.910
2020/01/31 08:06:03.4	313.990	0.320	-0.270	0.980
2020/01/31 08:06:03.5	313.980	0.350	-0.260	1.040
2020/01/31 08:06:03.6	313.960	0.380	-0.250	1.100
2020/01/31 08:06:03.7	313.950	0.410	-0.230	1.150
2020/01/31 08:06:03.8	313.940	0.430	-0.220	1.210
2020/01/31 08:06:03.9	313.930	0.460	-0.210	1.250
2020/01/31 08:06:04.0	313.930	0.480	-0.200	1.290
2020/01/31 08:06:04.1	313.920	0.510	-0.190	1.330
2020/01/31 08:06:04.2	313.920	0.530	-0.180	1.360
2020/01/31 08:06:04.3	313.900	0.550	-0.170	1.380
2020/01/31 08:06:04.4	313.900	0.570	-0.170	1.400
2020/01/31 08:06:04.5	313.900	0.590	-0.160	1.410
2020/01/31 08:06:04.6	313.900	0.610	-0.160	1.410
2020/01/31 08:06:04.7	313.900	0.620	-0.160	1.410
2020/01/31 08:06:04.8	313.910	0.630	-0.160	1.400
2020/01/31 08:06:04.9	313.910	0.640	-0.160	1.390
2020/01/31 08:06:05.0	313.920	0.650	-0.170	1.370
2020/01/31 08:06:05.1	313.920	0.650	-0.170	1.340
2020/01/31 08:06:05.2	313.930	0.650	-0.180	1.310
2020/01/31 08:06:05.3	313.930	0.650	-0.190	1.270
2020/01/31 08:06:05.4	313.940	0.640	-0.200	1.230
2020/01/31 08:06:05.5	313.950	0.640	-0.220	1.190
2020/01/31 08:06:05.6	313.950	0.630	-0.230	1.140
2020/01/31 08:06:05.7	313.960	0.610	-0.250	1.090
2020/01/31 08:06:05.8	313.970	0.600	-0.270	1.030
2020/01/31 08:06:05.9	313.980	0.580	-0.280	0.970
2020/01/31 08:06:06.0	313.990	0.560	-0.300	0.910
2020/01/31 08:06:06.1	314.010	0.530	-0.320	0.840
2020/01/31 08:06:06.2	314.020	0.510	-0.340	0.780
2020/01/31 08:06:06.3	314.030	0.480	-0.360	0.710
2020/01/31 08:06:06.4	314.040	0.450	-0.380	0.640
2020/01/31 08:06:06.5	314.050	0.420	-0.400	0.570
2020/01/31 08:06:06.6	314.060	0.380	-0.420	0.500
2020/01/31 08:06:06.7	314.070	0.350	-0.430	0.430
2020/01/31 08:06:06.8	314.070	0.310	-0.450	0.350
2020/01/31 08:06:06.9	314.080	0.270	-0.460	0.280
2020/01/31 08:06:07.0	314.090	0.240	-0.470	0.210
2020/01/31 08:06:07.1	314.090	0.200	-0.480	0.140
2020/01/31 08:06:07.2	314.100	0.160	-0.490	0.070
2020/01/31 08:06:07.3	314.100	0.120	-0.490	0.000
2020/01/31 08:06:07.4	314.100	0.080	-0.500	-0.060
2020/01/31 08:06:07.5	314.100	0.050	-0.500	-0.120
2020/01/31 08:06:07.6	314.100	0.010	-0.500	-0.180
2020/01/31 08:06:07.7	314.100	-0.030	-0.500	-0.240
2020/01/31 08:06:07.8	314.100	-0.060	-0.500	-0.300
2020/01/31 08:06:07.9	314.090	-0.090	-0.490	-0.350
2020/01/31 08:06:08.0	314.090	-0.130	-0.490	-0.400
2020/01/31 08:06:08.1	314.080	-0.160	-0.480	-0.450
2020/01/31 08:06:08.2	314.080	-0.190	-0.480	-0.490
2020/01/31 08:06:08.3	314.070	-0.210	-0.470	-0.540
2020/01/31 08:06:08.4	314.070	-0.240	-0.470	-0.590
2020/01/31 08:06:08.5	314.060	-0.270	-0.460	-0.630
2020/01/31 08:06:08.6	314.050	-0.290	-0.450	-0.670
2020/01/31 08:06:08.7	314.050	-0.310	-0.450	-0.700
2020/01/31 08:06:08.8	314.040	-0.330	-0.440	-0.740
2020/01/31 08:06:08.9	314.030	-0.350	-0.430	-0.770
2020/01/31 08:06:09.0	314.020	-0.370	-0.430	-0.800
2020/01/31 08:06:09.1	314.010	-0.380	-0.420	-0.830
2020/01/31 08:06:09.2	314.000	-0.390	-0.410	-0.860
2020/01/31 08:06:09.3	313.990	-0.400	-0.400	-0.880
2020/01/31 08:06:09.4	313.990	-0.410	-0.400	-0.910
2020/01/31 08:06:09.5	313.980	-0.420	-0.390	-0.930
2020/01/31 08:06:09.6	313.970	-0.430	-0.380	-0.940
2020/01/31 08:06:09.7	313.960	-0.430	-0.370	-0.950
2020/01/31 08:06:09.8	313.960	-0.430	-0.360	-0.960
2020/01/31 08:06:09.9	313.950	-0.430	-0.350	-0.970
2020/01/31 08:06:10.0	313.940	-0.430	-0.340	-0.980
2020/01/31 08:06:10.1	313.940	-0.430	-0.330	-0.980
2020/01/31 08:06:10.2	313.930	-0.430	-0.320	-0.980
2020/01/31 08:06:10.3	313.930	-0.420	-0.300	-0.980
2020/01/31 08:06:10.4	313.920	-0.420	-0.290	-0.970
2020/01/31 08:06:10.5	313.920	-0.410	-0.270	-0.960
2020/01/31 08:06:10.6	313.920	-0.400	-0.260	-0.950
2020/01/31 08:06:10.7	313.920	-0.400	-0.240	-0.940
2020/01/31 08:06:10.8	313.910	-0.390	-0.220	-0.920
2020/01/31 08:06:10.9	313.920	-0.380	-0.200	-0.910
2020/01/31 08:06:11.0	313.920	-0.360	-0.190	-0.890
2020/01/31 08:06:11.1	313.920	-0.350	-0.170	-0.870
2020/01/31 08:06:11.2	313.920	-0.340	-0.150	-0.850
2020/01/31 08:06:11.3	313.930	-0.330	-0.140	-0.830
2020/01/31 08:06:11.4	313.930	-0.310	-0.130	-0.810
2020/01/31 08:06:11.5	313.940	-0.300	-0.120	-0.780
2020/01/31 08:06:11.6	313.950	-0.280	-0.110	-0.760
2020/01/31 08:06:11.7	313.960	-0.270	-0.100	-0.740
2020/01/31 08:06:11.8	313.970	-0.250	-0.090	-0.710
2020/01/31 08:06:11.9	313.980	-0.230	-0.080	-0.690
2020/01/31 08:06:12.0	313.990	-0.220	-0.080	-0.670
2020/01/31 08:06:12.1	314.000	-0.200	-0.080	-0.650
2020/01/31 08:06:12.2	314.020	-0.180	-0.080	-0.620
2020/01/31 08:06:12.3	314.030	-0.160	-0.070	-0.600
2020/01/31 08:06:12.4	314.050	-0.140	-0.080	-0.580
2020/01/31 08:06:12.5	314.070	-0.120	-0.080	-0.550
2020/01/31 08:06:12.6	314.080	-0.100	-0.090	-0.530
2020/01/31 08:06:12.7	314.100	-0.090	-0.100	-0.500
2020/01/31 08:06:12.8	314.120	-0.070	-0.110	-0.470
2020/01/31 08:06:12.9	314.140	-0.050	-0.120	-0.440
2020/01/31 08:06:13.0	314.160	-0.030	-0.130	-0.410
2020/01/31 08:06:13.1	314.180	-0.010	-0.140	-0.380
2020/01/31 08:06:13.2	314.200	0.010	-0.150	-0.340
2020/01/31 08:06:13.3	314.220	0.030	-0.170	-0.300
2020/01/31 08:06:13.4	314.240	0.050	-0.180	-0.260
2020/01/31 08:06:13.5	314.260	0.070	-0.200	-0.220
2020/01/31 08:06:13.6	314.280	0.090	-0.210	-0.180
2020/01/31 08:06:13.7	314.300	0.110	-0.220	-0.140
2020/01/31 08:06:13.8	314.320	0.120	-0.230	-0.090
2020/01/31 08:06:13.9	314.340	0.140	-0.250	-0.050
2020/01/31 08:06:14.0	314.360	0.160	-0.260	-0.000
2020/01/31 08:06:14.1	314.390	0.180	-0.270	0.040
2020/01/31 08:06:14.2	314.410	0.190	-0.280	0.090
2020/01/31 08:06:14.3	314.420	0.210	-0.290	0.140
2020/01/31 08:06:14.4	314.440	0.220	-0.290	0.180
2020/01/31 08:06:14.5	314.460	0.230	-0.300	0.230
2020/01/31 08:06:14.6	314.480	0.250	-0.310	0.280
2020/01/31 08:06:14.7	314.500	0.260	-0.310	0.320
2020/01/31 08:06:14.8	314.520	0.270	-0.320	0.370
2020/01/31 08:06:14.9	314.530	0.280	-0.320	0.410
2020/01/31 08:06:15.0	314.540	0.280	-0.320	0.460
2020/01/31 08:06:15.1	314.560	0.290	-0.310	0.500
2020/01/31 08:06:15.2	314.560	0.290	-0.310	0.550
2020/01/31 08:06:15.3	314.570	0.290	-0.300	0.590
2020/01/31 08:06:15.4	314.570	0.290	-0.280	0.640
2020/01/31 08:06:15.5	314.570	0.290	-0.270	0.680
2020/01/31 08:06:15.6	314.570	0.290	-0.250	0.720
2020/01/31 08:06:15.7	314.560	0.280	-0.230	0.760
2020/01/31 08:06:15.8	314.550	0.270	-0.210	0.790
2020/01/31 08:06:15.9	314.540	0.260	-0.190	0.830
2020/01/31 08:06:16.0	314.520	0.250	-0.170	0.860
2020/01/31 08:06:16.1	314.500	0.240	-0.140	0.890
2020/01/31 08:06:16.2	314.480	0.220	-0.110	0.920
2020/01/31 08:06:16.3	314.460	0.200	-0.080	0.940
2020/01/31 08:06:16.4	314.430	0.180	-0.060	0.960
2020/01/31 08:06:16.5	314.410	0.160	-0.030	0.970
2020/01/31 08:06:16.6	314.380	0.140	-0.000	0.980
2020/01/31 08:06:16.7	314.360	0.120	0.030	0.990
2020/01/31 08:06:16.8	314.330	0.090	0.050	0.990
2020/01/31 08:06:16.9	314.310	0.070	0.070	0.980
2020/01/31 08:06:17.0	314.280	0.040	0.090	0.970
2020/01/31 08:06:17.1	314.260	0.020	0.110	0.950
2020/01/31 08:06:17.2	314.230	-0.010	0.120	0.930
2020/01/31 08:06:17.3	314.190	-0.030	0.130	0.890
2020/01/31 08:06:17.4	314.170	-0.060	0.140	0.850
2020/01/31 08:06:17.5	314.150	-0.080	0.140	0.810
2020/01/31 08:06:17.6	314.130	-0.110	0.130	0.760
2020/01/31 08:06:17.7	314.120	-0.130	0.130	0.700
2020/01/31 08:06:17.8	314.100	-0.150	0.110	0.640
2020/01/31 08:06:17.9	314.090	-0.170	0.100	0.570
2020/01/31 08:06:18.0	314.080	-0.190	0.080	0.500
2020/01/31 08:06:18.1	314.070	-0.200	0.050	0.420
2020/01/31 08:06:18.2	314.060	-0.220	0.020	0.340
2020/01/31 08:06:18.3	314.070	-0.230	-0.010	0.260
2020/01/31 08:06:18.4	314.070	-0.240	-0.050	0.170
2020/01/31 08:06:18.5	314.070	-0.240	-0.090	0.090
2020/01/31 08:06:18.6	314.070	-0.250	-0.130	-0.000
2020/01/31 08:06:18.7	314.070	-0.250	-0.170	-0.090
2020/01/31 08:06:18.8	314.070	-0.250	-0.210	-0.180
2020/01/31 08:06:18.9	314.070	-0.250	-0.250	-0.260
2020/01/31 08:06:19.0	314.080	-0.250	-0.300	-0.350
2020/01/31 08:06:19.1	314.080	-0.240	-0.340	-0.430
2020/01/31 08:06:19.2	314.090	-0.230	-0.380	-0.510
2020/01/31 08:06:19.3	314.090	-0.220	-0.420	-0.590
2020/01/31 08:06:19.4	314.100	-0.210	-0.460	-0.670
2020/01/31 08:06:19.5	314.110	-0.200	-0.500	-0.740
2020/01/31 08:06:19.6	314.120	-0.180	-0.540	-0.810
2020/01/31 08:06:19.7	314.130	-0.160	-0.580	-0.880
2020/01/31 08:06:19.8	314.140	-0.150	-0.610	-0.940
2020/01/31 08:06:19.9	314.150	-0.130	-0.640	-0.990
2020/01/31 08:06:20.0	314.160	-0.110	-0.670	-1.050
2020/01/31 08:06:20.1	314.170	-0.080	-0.690	-1.090
2020/01/31 08:06:20.2	314.180	-0.060	-0.710	-1.130
2020/01/31 08:06:20.3	314.190	-0.040	-0.730	-1.170
2020/01/31 08:06:20.4	314.200	-0.020	-0.740	-1.200
2020/01/31 08:06:20.5	314.210	0.000	-0.750	-1.230
2020/01/31 08:06:20.6	314.220	0.030	-0.750	-1.250
2020/01/31 08:06:20.7	314.230	0.050	-0.750	-1.260
2020/01/31 08:06:20.8	314.240	0.070	-0.740	-1.270
2020/01/31 08:06:20.9	314.240	0.090	-0.730	-1.280
2020/01/31 08:06:21.0	314.240	0.110	-0.710	-1.270
2020/01/31 08:06:21.1	314.250	0.120	-0.690	-1.260
2020/01/31 08:06:21.2	314.250	0.140	-0.660	-1.250
2020/01/31 08:06:21.3	314.250	0.150	-0.620	-1.230
2020/01/31 08:06:21.4	314.250	0.170	-0.590	-1.200
2020/01/31 08:06:21.5	314.250	0.180	-0.550	-1.170
2020/01/31 08:06:21.6	314.240	0.190	-0.500	-1.140
2020/01/31 08:06:21.7	314.240	0.190	-0.460	-1.100
2020/01/31 08:06:21.8	314.230	0.200	-0.410	-1.060
2020/01/31 08:06:21.9	314.220	0.200	-0.360	-1.010
2020/01/31 08:06:22.0	314.220	0.200	-0.310	-0.960
2020/01/31 08:06:22.1	314.210	0.200	-0.260	-0.900
2020/01/31 08:06:22.2	314.210	0.200	-0.210	-0.850
2020/01/31 08:06:22.3	314.190	0.190	-0.170	-0.790
2020/01/31 08:06:22.4	314.180	0.190	-0.120	-0.730
2020/01/31 08:06:22.5	314.180	0.180	-0.080	-0.660
2020/01/31 08:06:22.6	314.180	0.170	-0.040	-0.600
2020/01/31 08:06:22.7	314.170	0.160	0.000	-0.540
2020/01/31 08:06:22.8	314.170	0.150	0.030	-0.480
2020/01/31 08:06:22.9	314.170	0.130	0.060	-0.420
2020/01/31 08:06:23.0	314.170	0.120	0.090	-0.360
2020/01/31 08:06:23.1	314.170	0.110	0.110	-0.300
2020/01/31 08:06:23.2	314.180	0.090	0.130	-0.250
2020/01/31 08:06:23.3	314.190	0.070	0.140	-0.200
2020/01/31 08:06:23.4	314.190	0.060	0.150	-0.150
2020/01/31 08:06:23.5	314.200	0.040	0.150	-0.100
2020/01/31 08:06:23.6	314.210	0.030	0.150	-0.060
2020/01/31 08:06:23.7	314.220	0.010	0.140	-0.020
2020/01/31 08:06:23.8	314.230	0.000	0.140	0.020
2020/01/31 08:06:23.9	314.240	-0.010	0.120	0.050
2020/01/31 08:06:24.0	314.260	-0.030	0.110	0.080
2020/01/31 08:06:24.1	314.270	-0.040	0.090	0.110
2020/01/31 08:06:24.2	314.290	-0.050	0.070	0.130
2020/01/31 08:06:24.3	314.310	-0.060	0.040	0.150
2020/01/31 08:06:24.4	314.330	-0.070	0.020	0.160
2020/01/31 08:06:24.5	314.350	-0.070	-0.010	0.180
2020/01/31 08:06:24.6	314.360	-0.080	-0.040	0.190
2020/01/31 08:06:24.7	314.380	-0.090	-0.070	0.190
2020/01/31 08:06:24.8	314.390	-0.090	-0.100	0.200
2020/01/31 08:06:24.9	314.410	-0.100	-0.130	0.200
2020/01/31 08:06:25.0	314.420	-0.100	-0.160	0.200
2020/01/31 08:06:25.1	314.440	-0.110	-0.190	0.200
2020/01/31 08:06:25.2	314.450	-0.110	-0.220	0.190
2020/01/31 08:06:25.3	314.460	-0.110	-0.250	0.180
2020/01/31 08:06:25.4	314.470	-0.120	-0.270	0.180
2020/01/31 08:06:25.5	314.480	-0.120	-0.300	0.170
2020/01/31 08:06:25.6	314.480	-0.120	-0.320	0.160
2020/01/31 08:06:25.7	314.490	-0.120	-0.340	0.150
2020/01/31 08:06:25.8	314.490	-0.130	-0.360	0.140
2020/01/31 08:06:25.9	314.490	-0.130	-0.380	0.120
2020/01/31 08:06:26.0	314.490	-0.130	-0.400	0.110
2020/01/31 08:06:26.1	314.490	-0.130	-0.410	0.090
2020/01/31 08:06:26.2	314.490	-0.140	-0.420	0.080
2020/01/31 08:06:26.3	314.490	-0.140	-0.430	0.060
2020/01/31 08:06:26.4	314.480	-0.140	-0.440	0.040
2020/01/31 08:06:26.5	314.470	-0.150	-0.440	0.030
2020/01/31 08:06:26.6	314.470	-0.150	-0.440	0.010
2020/01/31 08:06:26.7	314.460	-0.160	-0.450	-0.010
2020/01/31 08:06:26.8	314.450	-0.160	-0.450	-0.030
2020/01/31 08:06:26.9	314.440	-0.160	-0.440	-0.050
2020/01/31 08:06:27.0	314.430	-0.170	-0.440	-0.070
2020/01/31 08:06:27.1	314.410	-0.170	-0.440	-0.090
2020/01/31 08:06:27.2	314.400	-0.170	-0.430	-0.110
2020/01/31 08:06:27.3	314.390	-0.180	-0.430	-0.130
2020/01/31 08:06:27.4	314.370	-0.180	-0.420	-0.160
2020/01/31 08:06:27.5	314.360	-0.180	-0.410	-0.180
2020/01/31 08:06:27.6	314.340	-0.180	-0.410	-0.200
2020/01/31 08:06:27.7	314.330	-0.180	-0.400	-0.220
2020/01/31 08:06:27.8	314.310	-0.180	-0.390	-0.250
2020/01/31 08:06:27.9	314.300	-0.180	-0.380	-0.270
2020/01/31 08:06:28.0	314.280	-0.180	-0.360	-0.290
2020/01/31 08:06:28.1	314.260	-0.180	-0.350	-0.310
2020/01/31 08:06:28.2	314.250	-0.170	-0.340	-0.330
2020/01/31 08:06:28.3	314.230	-0.170	-0.330	-0.350
2020/01/31 08:06:28.4	314.210	-0.160	-0.310	-0.370
2020/01/31 08:06:28.5	314.200	-0.150	-0.290	-0.390
2020/01/31 08:06:28.6	314.180	-0.140	-0.280	-0.400
2020/01/31 08:06:28.7	314.170	-0.130	-0.260	-0.410
2020/01/31 08:06:28.8	314.150	-0.120	-0.240	-0.420
2020/01/31 08:06:28.9	314.130	-0.110	-0.220	-0.430
2020/01/31 08:06:29.0	314.120	-0.100	-0.200	-0.440
2020/01/31 08:06:29.1	314.100	-0.080	-0.180	-0.440
2020/01/31 08:06:29.2	314.090	-0.070	-0.160	-0.440
2020/01/31 08:06:29.3	314.070	-0.050	-0.130	-0.440
2020/01/31 08:06:29.4	314.060	-0.030	-0.110	-0.440
2020/01/31 08:06:29.5	314.050	-0.020	-0.090	-0.440
2020/01/31 08:06:29.6	314.030	0.000	-0.080	-0.440
2020/01/31 08:06:29.7	314.020	0.020	-0.060	-0.430
2020/01/31 08:06:29.8	314.010	0.040	-0.050	-0.420
2020/01/31 08:06:29.9	313.990	0.060	-0.030	-0.420
2020/01/31 08:06:30.0	313.980	0.070	-0.020	-0.410
2020/01/31 08:06:30.1	313.970	0.090	-0.020	-0.400
2020/01/31 08:06:30.2	313.960	0.110	-0.010	-0.390
2020/01/31 08:06:30.3	313.960	0.130	-0.010	-0.380
2020/01/31 08:06:30.4	313.950	0.140	-0.010	-0.380
2020/01/31 08:06:30.5	313.940	0.160	-0.020	-0.370
2020/01/31 08:06:30.6	313.940	0.180	-0.020	-0.360
2020/01/31 08:06:30.7	313.930	0.190	-0.030	-0.360
2020/01/31 08:06:30.8	313.930	0.200	-0.050	-0.360
2020/01/31 08:06:30.9	313.920	0.210	-0.060	-0.360
2020/01/31 08:06:31.0	313.920	0.230	-0.080	-0.360
2020/01/31 08:06:31.1	313.930	0.230	-0.100	-0.360
2020/01/31 08:06:31.2	313.930	0.240	-0.130	-0.360
2020/01/31 08:06:31.3	313.930	0.250	-0.150	-0.370
2020/01/31 08:06:31.4	313.940	0.250	-0.170	-0.380
2020/01/31 08:06:31.5	313.950	0.260	-0.200	-0.380
2020/01/31 08:06:31.6	313.970	0.260	-0.230	-0.390
2020/01/31 08:06:31.7	313.980	0.260	-0.260	-0.400
2020/01/31 08:06:31.8	313.990	0.260	-0.280	-0.410
2020/01/31 08:06:31.9	314.010	0.260	-0.310	-0.410
2020/01/31 08:06:32.0	314.030	0.260	-0.330	-0.420
2020/01/31 08:06:32.1	314.050	0.250	-0.360	-0.430
2020/01/31 08:06:32.2	314.070	0.250	-0.380	-0.430
2020/01/31 08:06:32.3	314.090	0.240	-0.400	-0.440
2020/01/31 08:06:32.4	314.110	0.230	-0.410	-0.440
2020/01/31 08:06:32.5	314.130	0.220	-0.430	-0.440
2020/01/31 08:06:32.6	314.150	0.210	-0.440	-0.440
2020/01/31 08:06:32.7	314.170	0.200	-0.440	-0.430
2020/01/31 08:06:32.8	314.190	0.190	-0.450	-0.430
2020/01/31 08:06:32.9	314.210	0.170	-0.450	-0.420
2020/01/31 08:06:33.0	314.230	0.160	-0.450	-0.410
2020/01/31 08:06:33.1	314.240	0.140	-0.450	-0.400
2020/01/31 08:06:33.2	314.260	0.130	-0.440	-0.380
2020/01/31 08:06:33.3	314.280	0.110	-0.430	-0.370
2020/01/31 08:06:33.4	314.290	0.090	-0.420	-0.350
2020/01/31 08:06:33.5	314.310	0.080	-0.410	-0.330
2020/01/31 08:06:33.6	314.320	0.060	-0.400	-0.310
2020/01/31 08:06:33.7	314.340	0.040	-0.380	-0.290
2020/01/31 08:06:33.8	314.350	0.020	-0.360	-0.270
2020/01/31 08:06:33.9	314.360	0.000	-0.350	-0.250
2020/01/31 08:06:34.0	314.370	-0.010	-0.330	-0.230
2020/01/31 08:06:34.1	314.380	-0.030	-0.310	-0.200
2020/01/31 08:06:34.2	314.380	-0.050	-0.290	-0.180
2020/01/31 08:06:34.3	314.390	-0.070	-0.270	-0.150
2020/01/31 08:06:34.4	314.390	-0.080	-0.250	-0.130
2020/01/31 08:06:34.5	314.400	-0.100	-0.230	-0.100
2020/01/31 08:06:34.6	314.390	-0.110	-0.210	-0.070
2020/01/31 08:06:34.7	314.390	-0.130	-0.200	-0.050
2020/01/31 08:06:34.8	314.390	-0.140	-0.180	-0.030
2020/01/31 08:06:34.9	314.380	-0.160	-0.160	-0.000
2020/01/31 08:06:35.0	314.380	-0.170	-0.150	0.020
2020/01/31 08:06:35.1	314.370	-0.180	-0.130	0.040
2020/01/31 08:06:35.2	314.360	-0.190	-0.120	0.060
2020/01/31 08:06:35.3	314.340	-0.200	-0.110	0.080
2020/01/31 08:06:35.4	314.330	-0.210	-0.100	0.100
2020/01/31 08:06:35.5	314.320	-0.220	-0.100	0.110
2020/01/31 08:06:35.6	314.310	-0.230	-0.090	0.130
2020/01/31 08:06:35.7	314.290	-0.230	-0.090	0.140
2020/01/31 08:06:35.8	314.280	-0.240	-0.090	0.150
2020/01/31 08:06:35.9	314.260	-0.240	-0.100	0.160
2020/01/31 08:06:36.0	314.240	-0.240	-0.100	0.170
2020/01/31 08:06:36.1	314.230	-0.250	-0.110	0.180
2020/01/31 08:06:36.2	314.210	-0.250	-0.120	0.180
2020/01/31 08:06:36.3	314.200	-0.250	-0.130	0.190
2020/01/31 08:06:36.4	314.180	-0.250	-0.140	0.190
2020/01/31 08:06:36.5	314.160	-0.240	-0.160	0.190
2020/01/31 08:06:36.6	314.140	-0.240	-0.170	0.180
2020/01/31 08:06:36.7	314.120	-0.240	-0.180	0.180
2020/01/31 08:06:36.8	314.100	-0.230	-0.200	0.180
2020/01/31 08:06:36.9	314.080	-0.230	-0.210	0.170
2020/01/31 08:06:37.0	314.060	-0.220	-0.230	0.160
2020/01/31 08:06:37.1	314.040	-0.220	-0.240	0.150
2020/01/31 08:06:37.2	314.020	-0.210	-0.250	0.140
2020/01/31 08:06:37.3	313.990	-0.200	-0.270	0.130
2020/01/31 08:06:37.4	313.970	-0.190	-0.280	0.110
2020/01/31 08:06:37.5	313.950	-0.180	-0.290	0.100
2020/01/31 08:06:37.6	313.920	-0.180	-0.290	0.080
2020/01/31 08:06:37.7	313.900	-0.170	-0.300	0.070
2020/01/31 08:06:37.8	313.880	-0.160	-0.300	0.050
2020/01/31 08:06:37.9	313.860	-0.150	-0.300	0.030
2020/01/31 08:06:38.0	313.830	-0.140	-0.300	0.020
2020/01/31 08:06:38.1	313.810	-0.130	-0.290	0.000
2020/01/31 08:06:38.2	313.790	-0.120	-0.280	-0.020
2020/01/31 08:06:38.3	313.770	-0.110	-0.270	-0.030
2020/01/31 08:06:38.4	313.750	-0.100	-0.260	-0.050
2020/01/31 08:06:38.5	313.730	-0.090	-0.250	-0.070
2020/01/31 08:06:38.6	313.710	-0.080	-0.230	-0.080
2020/01/31 08:06:38.7	313.690	-0.070	-0.220	-0.100
2020/01/31 08:06:38.8	313.680	-0.070	-0.200	-0.120
2020/01/31 08:06:38.9	313.660	-0.060	-0.180	-0.130
2020/01/31 08:06:39.0	313.650	-0.050	-0.170	-0.150
2020/01/31 08:06:39.1	313.630	-0.040	-0.150	-0.160
2020/01/31 08:06:39.2	313.620	-0.030	-0.130	-0.180
2020/01/31 08:06:39.3	313.620	-0.020	-0.110	-0.200
2020/01/31 08:06:39.4	313.610	-0.010	-0.090	-0.220
2020/01/31 08:06:39.5	313.610	0.000	-0.070	-0.240
2020/01/31 08:06:39.6	313.610	0.010	-0.060	-0.260
2020/01/31 08:06:39.7	313.610	0.020	-0.050	-0.280
2020/01/31 08:06:39.8	313.610	0.030	-0.030	-0.300
2020/01/31 08:06:39.9	313.610	0.040	-0.020	-0.320
2020/01/31 08:06:40.0	313.620	0.050	-0.020	-0.340
2020/01/31 08:06:40.1	313.620	0.060	-0.010	-0.360
2020/01/31 08:06:40.2	313.630	0.070	-0.010	-0.390
2020/01/31 08:06:40.3	313.640	0.070	-0.010	-0.410
2020/01/31 08:06:40.4	313.650	0.080	-0.010	-0.440
2020/01/31 08:06:40.5	313.670	0.090	-0.020	-0.470
2020/01/31 08:06:40.6	313.680	0.100	-0.030	-0.500
2020/01/31 08:06:40.7	313.700	0.100	-0.040	-0.530
2020/01/31 08:06:40.8	313.720	0.110	-0.050	-0.560
2020/01/31 08:06:40.9	313.740	0.110	-0.070	-0.590
2020/01/31 08:06:41.0	313.770	0.120	-0.090	-0.620
2020/01/31 08:06:41.1	313.790	0.120	-0.110	-0.660
2020/01/31 08:06:41.2	313.810	0.120	-0.130	-0.690
2020/01/31 08:06:41.3	313.830	0.120	-0.150	-0.720
2020/01/31 08:06:41.4	313.860	0.130	-0.180	-0.760
2020/01/31 08:06:41.5	313.880	0.130	-0.200	-0.800
2020/01/31 08:06:41.6	313.910	0.130	-0.230	-0.830
2020/01/31 08:06:41.7	313.930	0.120	-0.260	-0.870
2020/01/31 08:06:41.8	313.960	0.120	-0.290	-0.900
2020/01/31 08:06:41.9	313.990	0.120	-0.320	-0.940
2020/01/31 08:06:42.0	314.020	0.120	-0.340	-0.970
2020/01/31 08:06:42.1	314.050	0.110	-0.370	-1.010
2020/01/31 08:06:42.2	314.070	0.110	-0.400	-1.040
2020/01/31 08:06:42.3	314.090	0.100	-0.420	-1.070
2020/01/31 08:06:42.4	314.120	0.090	-0.450	-1.100
2020/01/31 08:06:42.5	314.150	0.090	-0.470	-1.130
2020/01/31 08:06:42.6	314.180	0.080	-0.490	-1.160
2020/01/31 08:06:42.7	314.210	0.070	-0.500	-1.180
2020/01/31 08:06:42.8	314.230	0.060	-0.520	-1.200
2020/01/31 08:06:42.9	314.260	0.060	-0.530	-1.220
2020/01/31 08:06:43.0	314.280	0.050	-0.530	-1.240
2020/01/31 08:06:43.1	314.300	0.040	-0.540	-1.250
2020/01/31 08:06:43.2	314.320	0.030	-0.540	-1.250
2020/01/31 08:06:43.3	314.340	0.020	-0.530	-1.250
2020/01/31 08:06:43.4	314.350	0.010	-0.520	-1.250
2020/01/31 08:06:43.5	314.360	-0.000	-0.510	-1.240
2020/01/31 08:06:43.6	314.370	-0.010	-0.500	-1.230
2020/01/31 08:06:43.7	314.370	-0.020	-0.480	-1.210
2020/01/31 08:06:43.8	314.370	-0.030	-0.460	-1.190
2020/01/31 08:06:43.9	314.370	-0.040	-0.430	-1.160
2020/01/31 08:06:44.0	314.360	-0.050	-0.410	-1.130
2020/01/31 08:06:44.1	314.350	-0.060	-0.380	-1.090
2020/01/31 08:06:44.2	314.340	-0.070	-0.350	-1.050
2020/01/31 08:06:44.3	314.310	-0.070	-0.320	-1.010
2020/01/31 08:06:44.4	314.290	-0.080	-0.280	-0.970
2020/01/31 08:06:44.5	314.270	-0.090	-0.250	-0.920
2020/01/31 08:06:44.6	314.250	-0.090	-0.220	-0.860
2020/01/31 08:06:44.7	314.230	-0.100	-0.190	-0.810
2020/01/31 08:06:44.8	314.210	-0.100	-0.160	-0.760
2020/01/31 08:06:44.9	314.180	-0.110	-0.130	-0.700
2020/01/31 08:06:45.0	314.160	-0.110	-0.110	-0.650
2020/01/31 08:06:45.1	314.140	-0.110	-0.090	-0.590
2020/01/31 08:06:45.2	314.120	-0.110	-0.070	-0.540
2020/01/31 08:06:45.3	314.120	-0.110	-0.060	-0.490
2020/01/31 08:06:45.4	314.100	-0.110	-0.050	-0.440
2020/01/31 08:06:45.5	314.080	-0.100	-0.040	-0.390
2020/01/31 08:06:45.6	314.070	-0.100	-0.040	-0.350
2020/01/31 08:06:45.7	314.050	-0.090	-0.050	-0.300
2020/01/31 08:06:45.8	314.040	-0.090	-0.050	-0.260
2020/01/31 08:06:45.9	314.030	-0.080	-0.070	-0.230
2020/01/31 08:06:46.0	314.020	-0.070	-0.080	-0.190
2020/01/31 08:06:46.1	314.010	-0.060	-0.100	-0.160
2020/01/31 08:06:46.2	314.000	-0.050	-0.120	-0.130
2020/01/31 08:06:46.3	313.990	-0.040	-0.140	-0.100
2020/01/31 08:06:46.4	313.980	-0.030	-0.170	-0.080
2020/01/31 08:06:46.5	313.980	-0.020	-0.190	-0.050
2020/01/31 08:06:46.6	313.980	-0.010	-0.220	-0.030
2020/01/31 08:06:46.7	313.970	0.000	-0.250	-0.020
2020/01/31 08:06:46.8	313.970	0.020	-0.280	-0.000
2020/01/31 08:06:46.9	313.970	0.030	-0.310	0.010
2020/01/31 08:06:47.0	313.980	0.040	-0.330	0.020
2020/01/31 08:06:47.1	313.980	0.050	-0.360	0.030
2020/01/31 08:06:47.2	313.990	0.060	-0.390	0.030
2020/01/31 08:06:47.3	313.990	0.080	-0.410	0.040
2020/01/31 08:06:47.4	314.000	0.090	-0.440	0.040
2020/01/31 08:06:47.5	314.010	0.100	-0.460	0.040
2020/01/31 08:06:47.6	314.020	0.110	-0.480	0.040
2020/01/31 08:06:47.7	314.030	0.120	-0.500	0.030
2020/01/31 08:06:47.8	314.040	0.120	-0.510	0.030
2020/01/31 08:06:47.9	314.050	0.130	-0.520	0.020
2020/01/31 08:06:48.0	314.070	0.140	-0.530	0.020
2020/01/31 08:06:48.1	314.080	0.140	-0.530	0.010
2020/01/31 08:06:48.2	314.090	0.150	-0.530	0.010
2020/01/31 08:06:48.3	314.100	0.150	-0.530	0.000
2020/01/31 08:06:48.4	314.110	0.160	-0.520	-0.000
2020/01/31 08:06:48.5	314.120	0.160	-0.510	-0.010
2020/01/31 08:06:48.6	314.130	0.160	-0.500	-0.010
2020/01/31 08:06:48.7	314.130	0.160	-0.480	-0.020
2020/01/31 08:06:48.8	314.140	0.160	-0.460	-0.020
2020/01/31 08:06:48.9	314.140	0.150	-0.430	-0.020
2020/01/31 08:06:49.0	314.140	0.150	-0.400	-0.020
2020/01/31 08:06:49.1	314.140	0.140	-0.370	-0.030
2020/01/31 08:06:49.2	314.130	0.140	-0.340	-0.030
2020/01/31 08:06:49.3	314.130	0.130	-0.300	-0.030
2020/01/31 08:06:49.4	314.120	0.120	-0.260	-0.030
2020/01/31 08:06:49.5	314.110	0.120	-0.220	-0.040
2020/01/31 08:06:49.6	314.100	0.110	-0.180	-0.040
2020/01/31 08:06:49.7	314.080	0.100	-0.130	-0.040
2020/01/31 08:06:49.8	314.070	0.090	-0.090	-0.040
2020/01/31 08:06:49.9	314.050	0.080	-0.050	-0.040
2020/01/31 08:06:50.0	314.030	0.070	-0.000	-0.040
2020/01/31 08:06:50.1	314.020	0.050	0.040	-0.040
2020/01/31 08:06:50.2	314.000	0.040	0.080	-0.040
2020/01/31 08:06:50.3	313.980	0.030	0.110	-0.040
2020/01/31 08:06:50.4	313.960	0.020	0.150	-0.040
2020/01/31 08:06:50.5	313.940	0.010	0.180	-0.050
2020/01/31 08:06:50.6	313.920	-0.010	0.200	-0.060
2020/01/31 08:06:50.7	313.900	-0.020	0.220	-0.070
2020/01/31 08:06:50.8	313.880	-0.030	0.240	-0.080
2020/01/31 08:06:50.9	313.860	-0.040	0.250	-0.100
2020/01/31 08:06:51.0	313.850	-0.060	0.260	-0.120
2020/01/31 08:06:51.1	313.830	-0.070	0.260	-0.140
2020/01/31 08:06:51.2	313.820	-0.080	0.250	-0.170
2020/01/31 08:06:51.3	313.810	-0.090	0.240	-0.200
2020/01/31 08:06:51.4	313.800	-0.100	0.230	-0.230
2020/01/31 08:06:51.5	313.800	-0.110	0.210	-0.260
2020/01/31 08:06:51.6	313.790	-0.120	0.180	-0.300
2020/01/31 08:06:51.7	313.790	-0.130	0.150	-0.340
2020/01/31 08:06:51.8	313.790	-0.140	0.120	-0.380
2020/01/31 08:06:51.9	313.790	-0.150	0.080	-0.430
2020/01/31 08:06:52.0	313.790	-0.160	0.040	-0.480
2020/01/31 08:06:52.1	313.800	-0.170	0.000	-0.520
2020/01/31 08:06:52.2	313.800	-0.180	-0.040	-0.580
2020/01/31 08:06:52.3	313.810	-0.180	-0.090	-0.630
2020/01/31 08:06:52.4	313.830	-0.190	-0.140	-0.680
2020/01/31 08:06:52.5	313.840	-0.200	-0.180	-0.730
2020/01/31 08:06:52.6	313.850	-0.200	-0.230	-0.780
2020/01/31 08:06:52.7	313.870	-0.210	-0.270	-0.830
2020/01/31 08:06:52.8	313.880	-0.220	-0.320	-0.880
2020/01/31 08:06:52.9	313.900	-0.220	-0.360	-0.930
2020/01/31 08:06:53.0	313.920	-0.230	-0.400	-0.980
2020/01/31 08:06:53.1	313.940	-0.240	-0.440	-1.020
2020/01/31 08:06:53.2	313.960	-0.240	-0.470	-1.060
2020/01/31 08:06:53.3	313.980	-0.250	-0.500	-1.100
2020/01/31 08:06:53.4	314.000	-0.250	-0.530	-1.140
2020/01/31 08:06:53.5	314.030	-0.260	-0.550	-1.170
2020/01/31 08:06:53.6	314.050	-0.270	-0.570	-1.200
2020/01/31 08:06:53.7	314.070	-0.270	-0.590	-1.220
2020/01/31 08:06:53.8	314.100	-0.280	-0.600	-1.240
2020/01/31 08:06:53.9	314.120	-0.280	-0.600	-1.260
2020/01/31 08:06:54.0	314.140	-0.280	-0.600	-1.270
2020/01/31 08:06:54.1	314.170	-0.290	-0.600	-1.280
2020/01/31 08:06:54.2	314.190	-0.290	-0.590	-1.280
2020/01/31 08:06:54.3	314.210	-0.290	-0.580	-1.280
2020/01/31 08:06:54.4	314.230	-0.300	-0.570	-1.280
2020/01/31 08:06:54.5	314.250	-0.300	-0.550	-1.270
2020/01/31 08:06:54.6	314.280	-0.300	-0.530	-1.260
2020/01/31 08:06:54.7	314.300	-0.290	-0.510	-1.240
2020/01/31 08:06:54.8	314.330	-0.290	-0.490	-1.220
2020/01/31 08:06:54.9	314.350	-0.290	-0.460	-1.200
2020/01/31 08:06:55.0	314.370	-0.280	-0.430	-1.170
2020/01/31 08:06:55.1	314.390	-0.280	-0.410	-1.140
2020/01/31 08:06:55.2	314.420	-0.270	-0.380	-1.110
2020/01/31 08:06:55.3	314.440	-0.260	-0.350	-1.080
2020/01/31 08:06:55.4	314.460	-0.250	-0.320	-1.040
2020/01/31 08:06:55.5	314.490	-0.240	-0.290	-1.000
2020/01/31 08:06:55.6	314.500	-0.230	-0.270	-0.960
2020/01/31 08:06:55.7	314.520	-0.210	-0.240	-0.920
2020/01/31 08:06:55.8	314.540	-0.200	-0.220	-0.880
2020/01/31 08:06:55.9	314.560	-0.180	-0.200	-0.830
2020/01/31 08:06:56.0	314.570	-0.160	-0.180	-0.790
2020/01/31 08:06:56.1	314.590	-0.140	-0.160	-0.740
2020/01/31 08:06:56.2	314.600	-0.120	-0.140	-0.690
2020/01/31 08:06:56.3	314.610	-0.100	-0.130	-0.650
2020/01/31 08:06:56.4	314.620	-0.080	-0.110	-0.600
2020/01/31 08:06:56.5	314.630	-0.060	-0.100	-0.550
2020/01/31 08:06:56.6	314.640	-0.040	-0.090	-0.500
2020/01/31 08:06:56.7	314.650	-0.020	-0.080	-0.450
2020/01/31 08:06:56.8	314.660	0.000	-0.080	-0.400
2020/01/31 08:06:56.9	314.670	0.020	-0.070	-0.350
2020/01/31 08:06:57.0	314.680	0.040	-0.070	-0.300
2020/01/31 08:06:57.1	314.680	0.060	-0.060	-0.260
2020/01/31 08:06:57.2	314.690	0.080	-0.060	-0.220
2020/01/31 08:06:57.3	314.690	0.100	-0.060	-0.170
2020/01/31 08:06:57.4	314.700	0.120	-0.060	-0.130
2020/01/31 08:06:57.5	314.700	0.140	-0.070	-0.100
2020/01/31 08:06:57.6	314.700	0.150	-0.070	-0.060
2020/01/31 08:06:57.7	314.700	0.170	-0.080	-0.030
2020/01/31 08:06:57.8	314.700	0.180	-0.080	-0.010
2020/01/31 08:06:57.9	314.700	0.190	-0.090	0.020
2020/01/31 08:06:58.0	314.700	0.210	-0.100	0.040
2020/01/31 08:06:58.1	314.690	0.220	-0.110	0.060
2020/01/31 08:06:58.2	314.690	0.220	-0.120	0.070
2020/01/31 08:06:58.3	314.680	0.230	-0.130	0.080
2020/01/31 08:06:58.4	314.670	0.240	-0.140	0.090
2020/01/31 08:06:58.5	314.660	0.240	-0.150	0.100
2020/01/31 08:06:58.6	314.660	0.250	-0.160	0.100
2020/01/31 08:06:58.7	314.650	0.250	-0.170	0.100
2020/01/31 08:06:58.8	314.630	0.260	-0.180	0.100
2020/01/31 08:06:58.9	314.620	0.260	-0.200	0.100
2020/01/31 08:06:59.0	314.600	0.260	-0.210	0.100
2020/01/31 08:06:59.1	314.590	0.260	-0.220	0.090
2020/01/31 08:06:59.2	314.570	0.260	-0.220	0.090
2020/01/31 08:06:59.3	314.550	0.260	-0.230	0.090
2020/01/31 08:06:59.4	314.530	0.260	-0.230	0.090
2020/01/31 08:06:59.5	314.500	0.260	-0.240	0.080
2020/01/31 08:06:59.6	314.480	0.260	-0.250	0.080
2020/01/31 08:06:59.7	314.450	0.250	-0.250	0.080
2020/01/31 08:06:59.8	314.420	0.250	-0.250	0.070
2020/01/31 08:06:59.9	314.390	0.250	-0.260	0.070
2020/01/31 08:07:00.0	314.360	0.250	-0.260	0.060
2020/01/31 08:07:00.1	314.330	0.250	-0.260	0.060
2020/01/31 08:07:00.2	314.300	0.250	-0.260	0.050
2020/01/31 08:07:00.3	314.260	0.250	-0.260	0.050
2020/01/31 08:07:00.4	314.230	0.250	-0.260	0.040
2020/01/31 08:07:00.5	314.200	0.250	-0.260	0.030
2020/01/31 08:07:00.6	314.180	0.250	-0.260	0.020
2020/01/31 08:07:00.7	314.150	0.250	-0.260	0.010
2020/01/31 08:07:00.8	314.130	0.250	-0.260	-0.010
2020/01/31 08:07:00.9	314.100	0.250	-0.260	-0.020
2020/01/31 08:07:01.0	314.080	0.250	-0.260	-0.030
2020/01/31 08:07:01.1	314.060	0.260	-0.260	-0.050
2020/01/31 08:07:01.2	314.040	0.260	-0.270	-0.060
2020/01/31 08:07:01.3	314.030	0.260	-0.260	-0.080
2020/01/31 08:07:01.4	314.020	0.270	-0.270	-0.100
2020/01/31 08:07:01.5	314.000	0.270	-0.270	-0.110
2020/01/31 08:07:01.6	313.990	0.270	-0.270	-0.130
2020/01/31 08:07:01.7	313.980	0.280	-0.280	-0.140
2020/01/31 08:07:01.8	313.970	0.280	-0.280	-0.160
2020/01/31 08:07:01.9	313.960	0.280	-0.280	-0.170
2020/01/31 08:07:02.0	313.950	0.290	-0.290	-0.190
2020/01/31 08:07:02.1	313.950	0.290	-0.290	-0.200
2020/01/31 08:07:02.2	313.940	0.290	-0.300	-0.220
2020/01/31 08:07:02.3	313.940	0.300	-0.300	-0.230
2020/01/31 08:07:02.4	313.940	0.300	-0.310	-0.250
2020/01/31 08:07:02.5	313.940	0.300	-0.320	-0.260
2020/01/31 08:07:02.6	313.940	0.300	-0.320	-0.280
2020/01/31 08:07:02.7	313.940	0.290	-0.330	-0.300
2020/01/31 08:07:02.8	313.950	0.290	-0.340	-0.320
2020/01/31 08:07:02.9	313.950	0.290	-0.340	-0.340
2020/01/31 08:07:03.0	313.960	0.280	-0.350	-0.360
2020/01/31 08:07:03.1	313.970	0.280	-0.360	-0.390
2020/01/31 08:07:03.2	313.980	0.270	-0.370	-0.410
2020/01/31 08:07:03.3	313.990	0.260	-0.380	-0.440
2020/01/31 08:07:03.4	314.000	0.250	-0.390	-0.470
2020/01/31 08:07:03.5	314.010	0.240	-0.400	-0.500
2020/01/31 08:07:03.6	314.030	0.220	-0.410	-0.530
2020/01/31 08:07:03.7	314.040	0.210	-0.410	-0.560
2020/01/31 08:07:03.8	314.060	0.190	-0.420	-0.600
2020/01/31 08:07:03.9	314.070	0.170	-0.430	-0.630
2020/01/31 08:07:04.0	314.090	0.150	-0.440	-0.670
2020/01/31 08:07:04.1	314.110	0.130	-0.450	-0.700
2020/01/31 08:07:04.2	314.120	0.100	-0.450	-0.740
2020/01/31 08:07:04.3	314.130	0.080	-0.460	-0.780
2020/01/31 08:07:04.4	314.150	0.050	-0.460	-0.810
2020/01/31 08:07:04.5	314.170	0.020	-0.460	-0.850
2020/01/31 08:07:04.6	314.190	-0.010	-0.470	-0.890
2020/01/31 08:07:04.7	314.210	-0.040	-0.470	-0.930
2020/01/31 08:07:04.8	314.220	-0.080	-0.470	-0.970
2020/01/31 08:07:04.9	314.240	-0.110	-0.460	-1.010
2020/01/31 08:07:05.0	314.260	-0.150	-0.460	-1.050
2020/01/31 08:07:05.1	314.280	-0.180	-0.460	-1.090
2020/01/31 08:07:05.2	314.300	-0.220	-0.450	-1.140
2020/01/31 08:07:05.3	314.330	-0.260	-0.450	-1.180
2020/01/31 08:07:05.4	314.350	-0.290	-0.440	-1.220
2020/01/31 08:07:05.5	314.370	-0.330	-0.430	-1.260
2020/01/31 08:07:05.6	314.400	-0.360	-0.420	-1.310
2020/01/31 08:07:05.7	314.420	-0.400	-0.410	-1.350
2020/01/31 08:07:05.8	314.450	-0.430	-0.400	-1.390
2020/01/31 08:07:05.9	314.480	-0.460	-0.390	-1.430
2020/01/31 08:07:06.0	314.510	-0.500	-0.370	-1.470
2020/01/31 08:07:06.1	314.540	-0.520	-0.360	-1.500
2020/01/31 08:07:06.2	314.570	-0.550	-0.340	-1.540
2020/01/31 08:07:06.3	314.590	-0.580	-0.320	-1.570
2020/01/31 08:07:06.4	314.620	-0.600	-0.310	-1.600
2020/01/31 08:07:06.5	314.650	-0.620	-0.290	-1.620
2020/01/31 08:07:06.6	314.680	-0.640	-0.270	-1.640
2020/01/31 08:07:06.7	314.710	-0.650	-0.250	-1.660
2020/01/31 08:07:06.8	314.740	-0.660	-0.230	-1.670
2020/01/31 08:07:06.9	314.760	-0.670	-0.210	-1.680
2020/01/31 08:07:07.0	314.790	-0.670	-0.190	-1.690
2020/01/31 08:07:07.1	314.810	-0.680	-0.160	-1.690
2020/01/31 08:07:07.2	314.840	-0.680	-0.140	-1.680
2020/01/31 08:07:07.3	314.850	-0.670	-0.120	-1.670
2020/01/31 08:07:07.4	314.870	-0.670	-0.090	-1.650
2020/01/31 08:07:07.5	314.880	-0.660	-0.070	-1.630
2020/01/31 08:07:07.6	314.900	-0.650	-0.050	-1.610
2020/01/31 08:07:07.7	314.910	-0.630	-0.020	-1.570
2020/01/31 08:07:07.8	314.920	-0.610	-0.000	-1.540
2020/01/31 08:07:07.9	314.930	-0.590	0.020	-1.500
2020/01/31 08:07:08.0	314.930	-0.570	0.040	-1.460
2020/01/31 08:07:08.1	314.940	-0.540	0.060	-1.410
2020/01/31 08:07:08.2	314.940	-0.520	0.080	-1.360
2020/01/31 08:07:08.3	314.930	-0.480	0.100	-1.300
2020/01/31 08:07:08.4	314.930	-0.450	0.110	-1.240
2020/01/31 08:07:08.5	314.920	-0.420	0.120	-1.180
2020/01/31 08:07:08.6	314.920	-0.380	0.130	-1.110
2020/01/31 08:07:08.7	314.910	-0.340	0.140	-1.040
2020/01/31 08:07:08.8	314.900	-0.300	0.150	-0.970
2020/01/31 08:07:08.9	314.880	-0.260	0.150	-0.900
2020/01/31 08:07:09.0	314.870	-0.220	0.160	-0.820
2020/01/31 08:07:09.1	314.860	-0.180	0.160	-0.740
2020/01/31 08:07:09.2	314.840	-0.130	0.150	-0.670
2020/01/31 08:07:09.3	314.830	-0.090	0.150	-0.580
2020/01/31 08:07:09.4	314.810	-0.040	0.150	-0.510
2020/01/31 08:07:09.5	314.790	-0.000	0.140	-0.430
2020/01/31 08:07:09.6	314.770	0.040	0.130	-0.350
2020/01/31 08:07:09.7	314.750	0.090	0.120	-0.270
2020/01/31 08:07:09.8	314.730	0.130	0.100	-0.190
2020/01/31 08:07:09.9	314.710	0.170	0.090	-0.120
2020/01/31 08:07:10.0	314.690	0.210	0.070	-0.040
2020/01/31 08:07:10.1	314.670	0.250	0.050	0.020
2020/01/31 08:07:10.2	314.650	0.290	0.030	0.090
2020/01/31 08:07:10.3	314.630	0.320	0.010	0.160
2020/01/31 08:07:10.4	314.610	0.360	-0.010	0.210
2020/01/31 08:07:10.5	314.590	0.390	-0.040	0.270
2020/01/31 08:07:10.6	314.570	0.420	-0.060	0.320
2020/01/31 08:07:10.7	314.560	0.440	-0.080	0.360
2020/01/31 08:07:10.8	314.540	0.460	-0.110	0.400
2020/01/31 08:07:10.9	314.530	0.480	-0.130	0.440
2020/01/31 08:07:11.0	314.510	0.500	-0.160	0.460
2020/01/31 08:07:11.1	314.500	0.510	-0.180	0.490
2020/01/31 08:07:11.2	314.490	0.520	-0.200	0.510
2020/01/31 08:07:11.3	314.490	0.530	-0.220	0.520
2020/01/31 08:07:11.4	314.480	0.530	-0.240	0.530
2020/01/31 08:07:11.5	314.470	0.530	-0.260	0.530
2020/01/31 08:07:11.6	314.470	0.530	-0.270	0.530
2020/01/31 08:07:11.7	314.470	0.530	-0.290	0.520
2020/01/31 08:07:11.8	314.460	0.520	-0.300	0.520
2020/01/31 08:07:11.9	314.460	0.510	-0.310	0.500
2020/01/31 08:07:12.0	314.460	0.500	-0.320	0.490
2020/01/31 08:07:12.1	314.460	0.480	-0.330	0.470
2020/01/31 08:07:12.2	314.460	0.470	-0.340	0.450
2020/01/31 08:07:12.3	314.460	0.450	-0.340	0.430
2020/01/31 08:07:12.4	314.460	0.430	-0.340	0.400
2020/01/31 08:07:12.5	314.460	0.410	-0.340	0.380
2020/01/31 08:07:12.6	314.470	0.390	-0.340	0.350
2020/01/31 08:07:12.7	314.470	0.360	-0.340	0.320
2020/01/31 08:07:12.8	314.480	0.340	-0.330	0.290
2020/01/31 08:07:12.9	314.480	0.320	-0.330	0.260
2020/01/31 08:07:13.0	314.490	0.290	-0.320	0.220
2020/01/31 08:07:13.1	314.490	0.270	-0.310	0.190
2020/01/31 08:07:13.2	314.500	0.240	-0.300	0.160
2020/01/31 08:07:13.3	314.500	0.220	-0.290	0.130
2020/01/31 08:07:13.4	314.510	0.190	-0.280	0.100
2020/01/31 08:07:13.5	314.510	0.170	-0.270	0.070
2020/01/31 08:07:13.6	314.510	0.150	-0.260	0.040
2020/01/31 08:07:13.7	314.510	0.130	-0.250	0.010
2020/01/31 08:07:13.8	314.510	0.110	-0.240	-0.010
2020/01/31 08:07:13.9	314.500	0.090	-0.240	-0.040
2020/01/31 08:07:14.0	314.500	0.070	-0.230	-0.060
2020/01/31 08:07:14.1	314.500	0.050	-0.220	-0.080
2020/01/31 08:07:14.2	314.490	0.040	-0.210	-0.110
2020/01/31 08:07:14.3	314.500	0.020	-0.210	-0.130
2020/01/31 08:07:14.4	314.500	0.010	-0.210	-0.150
2020/01/31 08:07:14.5	314.490	0.000	-0.210	-0.170
2020/01/31 08:07:14.6	314.480	-0.010	-0.210	-0.200
2020/01/31 08:07:14.7	314.480	-0.010	-0.210	-0.220
2020/01/31 08:07:14.8	314.470	-0.020	-0.220	-0.250
2020/01/31 08:07:14.9	314.470	-0.020	-0.230	-0.270
2020/01/31 08:07:15.0	314.470	-0.020	-0.240	-0.300
2020/01/31 08:07:15.1	314.470	-0.020	-0.260	-0.330
2020/01/31 08:07:15.2	314.470	-0.020	-0.280	-0.360
2020/01/31 08:07:15.3	314.490	-0.020	-0.300	-0.390
2020/01/31 08:07:15.4	314.490	-0.010	-0.320	-0.420
2020/01/31 08:07:15.5	314.490	-0.000	-0.350	-0.450
2020/01/31 08:07:15.6	314.500	0.000	-0.380	-0.480
2020/01/31 08:07:15.7	314.510	0.010	-0.410	-0.520
2020/01/31 08:07:15.8	314.520	0.020	-0.440	-0.550
2020/01/31 08:07:15.9	314.530	0.030	-0.480	-0.580
2020/01/31 08:07:16.0	314.540	0.040	-0.510	-0.610
2020/01/31 08:07:16.1	314.550	0.050	-0.540	-0.640
2020/01/31 08:07:16.2	314.570	0.060	-0.570	-0.670
2020/01/31 08:07:16.3	314.570	0.070	-0.600	-0.700
2020/01/31 08:07:16.4	314.580	0.080	-0.630	-0.720
2020/01/31 08:07:16.5	314.600	0.090	-0.660	-0.750
2020/01/31 08:07:16.6	314.620	0.100	-0.680	-0.770
2020/01/31 08:07:16.7	314.630	0.110	-0.700	-0.790
2020/01/31 08:07:16.8	314.650	0.120	-0.720	-0.810
2020/01/31 08:07:16.9	314.660	0.120	-0.740	-0.830
2020/01/31 08:07:17.0	314.680	0.120	-0.750	-0.840
2020/01/31 08:07:17.1	314.700	0.130	-0.760	-0.860
2020/01/31 08:07:17.2	314.720	0.130	-0.760	-0.870
2020/01/31 08:07:17.3	314.740	0.130	-0.760	-0.890
2020/01/31 08:07:17.4	314.760	0.130	-0.760	-0.900
2020/01/31 08:07:17.5	314.780	0.120	-0.750	-0.910
2020/01/31 08:07:17.6	314.810	0.120	-0.740	-0.930
2020/01/31 08:07:17.7	314.830	0.110	-0.730	-0.940
2020/01/31 08:07:17.8	314.850	0.100	-0.710	-0.950
2020/01/31 08:07:17.9	314.870	0.090	-0.690	-0.960
2020/01/31 08:07:18.0	314.900	0.080	-0.670	-0.970
2020/01/31 08:07:18.1	314.920	0.070	-0.650	-0.970
2020/01/31 08:07:18.2	314.950	0.050	-0.620	-0.980
2020/01/31 08:07:18.3	314.960	0.040	-0.590	-0.990
2020/01/31 08:07:18.4	314.980	0.020	-0.560	-1.000
2020/01/31 08:07:18.5	315.010	0.000	-0.530	-1.000
2020/01/31 08:07:18.6	315.030	-0.020	-0.500	-1.010
2020/01/31 08:07:18.7	315.060	-0.040	-0.470	-1.020
2020/01/31 08:07:18.8	315.080	-0.060	-0.440	-1.020
2020/01/31 08:07:18.9	315.110	-0.080	-0.410	-1.030
2020/01/31 08:07:19.0	315.130	-0.100	-0.370	-1.030
2020/01/31 08:07:19.1	315.160	-0.120	-0.340	-1.040
2020/01/31 08:07:19.2	315.180	-0.140	-0.310	-1.040
2020/01/31 08:07:19.3	315.210	-0.160	-0.270	-1.050
2020/01/31 08:07:19.4	315.240	-0.180	-0.240	-1.050
2020/01/31 08:07:19.5	315.260	-0.200	-0.210	-1.050
2020/01/31 08:07:19.6	315.290	-0.220	-0.180	-1.050
2020/01/31 08:07:19.7	315.310	-0.240	-0.150	-1.050
2020/01/31 08:07:19.8	315.330	-0.250	-0.120	-1.050
2020/01/31 08:07:19.9	315.360	-0.270	-0.100	-1.040
2020/01/31 08:07:20.0	315.380	-0.280	-0.070	-1.030
2020/01/31 08:07:20.1	315.400	-0.290	-0.050	-1.030
2020/01/31 08:07:20.2	315.420	-0.300	-0.020	-1.010
2020/01/31 08:07:20.3	315.440	-0.310	-0.000	-1.000
2020/01/31 08:07:20.4	315.460	-0.320	0.020	-0.980
2020/01/31 08:07:20.5	315.470	-0.320	0.040	-0.960
2020/01/31 08:07:20.6	315.490	-0.320	0.070	-0.940
2020/01/31 08:07:20.7	315.500	-0.320	0.090	-0.910
2020/01/31 08:07:20.8	315.500	-0.320	0.110	-0.880
2020/01/31 08:07:20.9	315.510	-0.320	0.130	-0.840
2020/01/31 08:07:21.0	315.510	-0.310	0.150	-0.810
2020/01/31 08:07:21.1	315.510	-0.310	0.170	-0.760
2020/01/31 08:07:21.2	315.510	-0.300	0.190	-0.720
2020/01/31 08:07:21.3	315.500	-0.290	0.210	-0.680
2020/01/31 08:07:21.4	315.490	-0.280	0.230	-0.630
2020/01/31 08:07:21.5	315.480	-0.260	0.240	-0.580
2020/01/31 08:07:21.6	315.460	-0.250	0.260	-0.530
2020/01/31 08:07:21.7	315.450	-0.230	0.280	-0.480
2020/01/31 08:07:21.8	315.430	-0.210	0.290	-0.420
2020/01/31 08:07:21.9	315.410	-0.200	0.300	-0.370
2020/01/31 08:07:22.0	315.390	-0.180	0.310	-0.320
2020/01/31 08:07:22.1	315.370	-0.160	0.320	-0.260
2020/01/31 08:07:22.2	315.340	-0.130	0.330	-0.210
2020/01/31 08:07:22.3	315.320	-0.110	0.340	-0.150
2020/01/31 08:07:22.4	315.290	-0.090	0.340	-0.100
2020/01/31 08:07:22.5	315.270	-0.070	0.340	-0.050
2020/01/31 08:07:22.6	315.240	-0.040	0.340	0.000
2020/01/31 08:07:22.7	315.220	-0.020	0.340	0.050
2020/01/31 08:07:22.8	315.190	0.010	0.330	0.100
2020/01/31 08:07:22.9	315.170	0.030	0.320	0.140
2020/01/31 08:07:23.0	315.140	0.060	0.310	0.180
2020/01/31 08:07:23.1	315.120	0.080	0.290	0.220
2020/01/31 08:07:23.2	315.100	0.110	0.280	0.260
2020/01/31 08:07:23.3	315.080	0.130	0.250	0.290
2020/01/31 08:07:23.4	315.060	0.160	0.230	0.320
2020/01/31 08:07:23.5	315.030	0.180	0.200	0.350
2020/01/31 08:07:23.6	315.010	0.200	0.170	0.370
2020/01/31 08:07:23.7	314.990	0.220	0.140	0.390
2020/01/31 08:07:23.8	314.970	0.240	0.110	0.400
2020/01/31 08:07:23.9	314.960	0.260	0.070	0.400
2020/01/31 08:07:24.0	314.940	0.280	0.030	0.410
2020/01/31 08:07:24.1	314.930	0.300	-0.010	0.400
2020/01/31 08:07:24.2	314.920	0.320	-0.050	0.390
2020/01/31 08:07:24.3	314.910	0.330	-0.100	0.380
2020/01/31 08:07:24.4	314.900	0.350	-0.150	0.360
2020/01/31 08:07:24.5	314.890	0.360	-0.190	0.340
2020/01/31 08:07:24.6	314.890	0.370	-0.240	0.320
2020/01/31 08:07:24.7	314.890	0.380	-0.290	0.290
2020/01/31 08:07:24.8	314.890	0.380	-0.340	0.260
2020/01/31 08:07:24.9	314.900	0.390	-0.390	0.220
2020/01/31 08:07:25.0	314.910	0.390	-0.430	0.180
2020/01/31 08:07:25.1	314.910	0.400	-0.480	0.140
2020/01/31 08:07:25.2	314.930	0.400	-0.520	0.090
2020/01/31 08:07:25.3	314.940	0.400	-0.570	0.040
2020/01/31 08:07:25.4	314.950	0.390	-0.610	-0.010
2020/01/31 08:07:25.5	314.970	0.390	-0.640	-0.060
2020/01/31 08:07:25.6	314.980	0.380	-0.670	-0.110
2020/01/31 08:07:25.7	315.000	0.370	-0.700	-0.160
2020/01/31 08:07:25.8	315.020	0.360	-0.730	-0.210
2020/01/31 08:07:25.9	315.040	0.340	-0.750	-0.260
2020/01/31 08:07:26.0	315.060	0.330	-0.770	-0.310
2020/01/31 08:07:26.1	315.070	0.310	-0.780	-0.360
2020/01/31 08:07:26.2	315.090	0.290	-0.790	-0.420
2020/01/31 08:07:26.3	315.110	0.270	-0.790	-0.470
2020/01/31 08:07:26.4	315.130	0.250	-0.790	-0.520
2020/01/31 08:07:26.5	315.150	0.230	-0.790	-0.560
2020/01/31 08:07:26.6	315.160	0.210	-0.780	-0.610
2020/01/31 08:07:26.7	315.180	0.180	-0.770	-0.650
2020/01/31 08:07:26.8	315.200	0.160	-0.760	-0.700
2020/01/31 08:07:26.9	315.210	0.130	-0.740	-0.740
2020/01/31 08:07:27.0	315.220	0.100	-0.720	-0.780
2020/01/31 08:07:27.1	315.240	0.070	-0.690	-0.810
2020/01/31 08:07:27.2	315.250	0.050	-0.660	-0.850
2020/01/31 08:07:27.3	315.250	0.020	-0.630	-0.880
2020/01/31 08:07:27.4	315.260	-0.010	-0.600	-0.900
2020/01/31 08:07:27.5	315.260	-0.040	-0.560	-0.930
2020/01/31 08:07:27.6	315.260	-0.070	-0.520	-0.950
2020/01/31 08:07:27.7	315.270	-0.090	-0.490	-0.960
2020/01/31 08:07:27.8	315.260	-0.120	-0.450	-0.980
2020/01/31 08:07:27.9	315.260	-0.140	-0.400	-0.980
2020/01/31 08:07:28.0	315.260	-0.170	-0.360	-0.990
2020/01/31 08:07:28.1	315.250	-0.190	-0.320	-0.990
2020/01/31 08:07:28.2	315.250	-0.210	-0.280	-0.990
2020/01/31 08:07:28.3	315.230	-0.230	-0.240	-0.980
2020/01/31 08:07:28.4	315.220	-0.250	-0.200	-0.980
2020/01/31 08:07:28.5	315.210	-0.270	-0.160	-0.970
2020/01/31 08:07:28.6	315.210	-0.290	-0.130	-0.950
2020/01/31 08:07:28.7	315.200	-0.300	-0.100	-0.940
2020/01/31 08:07:28.8	315.190	-0.310	-0.070	-0.920
2020/01/31 08:07:28.9	315.180	-0.320	-0.040	-0.910
2020/01/31 08:07:29.0	315.170	-0.330	-0.020	-0.890
2020/01/31 08:07:29.1	315.160	-0.340	0.000	-0.870
2020/01/31 08:07:29.2	315.150	-0.340	0.020	-0.860
2020/01/31 08:07:29.3	315.150	-0.350	0.030	-0.840
2020/01/31 08:07:29.4	315.140	-0.350	0.050	-0.820
2020/01/31 08:07:29.5	315.130	-0.350	0.050	-0.800
2020/01/31 08:07:29.6	315.120	-0.350	0.060	-0.790
2020/01/31 08:07:29.7	315.110	-0.340	0.060	-0.770
2020/01/31 08:07:29.8	315.100	-0.340	0.050	-0.750
2020/01/31 08:07:29.9	315.090	-0.330	0.050	-0.740
2020/01/31 08:07:30.0	315.080	-0.320	0.040	-0.720
2020/01/31 08:07:30.1	315.070	-0.310	0.030	-0.710
2020/01/31 08:07:30.2	315.070	-0.290	0.020	-0.690
2020/01/31 08:07:30.3	315.060	-0.280	0.000	-0.680
2020/01/31 08:07:30.4	315.060	-0.260	-0.020	-0.670
2020/01/31 08:07:30.5	315.050	-0.240	-0.030	-0.650
2020/01/31 08:07:30.6	315.050	-0.220	-0.050	-0.640
2020/01/31 08:07:30.7	315.050	-0.200	-0.070	-0.630
2020/01/31 08:07:30.8	315.040	-0.180	-0.100	-0.610
2020/01/31 08:07:30.9	315.040	-0.160	-0.120	-0.600
2020/01/31 08:07:31.0	315.050	-0.140	-0.140	-0.590
2020/01/31 08:07:31.1	315.050	-0.120	-0.170	-0.580
2020/01/31 08:07:31.2	315.060	-0.090	-0.190	-0.570
2020/01/31 08:07:31.3	315.060	-0.070	-0.220	-0.560
2020/01/31 08:07:31.4	315.070	-0.050	-0.240	-0.560
2020/01/31 08:07:31.5	315.080	-0.020	-0.270	-0.550
2020/01/31 08:07:31.6	315.090	-0.000	-0.290	-0.540
2020/01/31 08:07:31.7	315.110	0.020	-0.320	-0.540
2020/01/31 08:07:31.8	315.120	0.040	-0.340	-0.540
2020/01/31 08:07:31.9	315.140	0.060	-0.370	-0.540
2020/01/31 08:07:32.0	315.160	0.080	-0.390	-0.540
2020/01/31 08:07:32.1	315.180	0.100	-0.420	-0.540
2020/01/31 08:07:32.2	315.200	0.120	-0.440	-0.550
2020/01/31 08:07:32.3	315.220	0.140	-0.460	-0.550
2020/01/31 08:07:32.4	315.240	0.160	-0.480	-0.560
2020/01/31 08:07:32.5	315.260	0.170	-0.500	-0.570
2020/01/31 08:07:32.6	315.290	0.190	-0.520	-0.570
2020/01/31 08:07:32.7	315.310	0.200	-0.540	-0.580
2020/01/31 08:07:32.8	315.330	0.210	-0.560	-0.590
2020/01/31 08:07:32.9	315.350	0.220	-0.570	-0.600
2020/01/31 08:07:33.0	315.380	0.230	-0.590	-0.610
2020/01/31 08:07:33.1	315.400	0.240	-0.600	-0.620
2020/01/31 08:07:33.2	315.420	0.250	-0.610	-0.620
2020/01/31 08:07:33.3	315.440	0.250	-0.610	-0.630
2020/01/31 08:07:33.4	315.460	0.260	-0.610	-0.640
2020/01/31 08:07:33.5	315.470	0.260	-0.610	-0.640
2020/01/31 08:07:33.6	315.490	0.260	-0.610	-0.640
2020/01/31 08:07:33.7	315.510	0.260	-0.610	-0.650
2020/01/31 08:07:33.8	315.520	0.260	-0.600	-0.650
2020/01/31 08:07:33.9	315.530	0.260	-0.580	-0.650
2020/01/31 08:07:34.0	315.550	0.260	-0.570	-0.650
2020/01/31 08:07:34.1	315.560	0.260	-0.550	-0.650
2020/01/31 08:07:34.2	315.560	0.260	-0.530	-0.640
2020/01/31 08:07:34.3	315.580	0.250	-0.500	-0.640
2020/01/31 08:07:34.4	315.580	0.250	-0.480	-0.640
2020/01/31 08:07:34.5	315.590	0.240	-0.450	-0.630
2020/01/31 08:07:34.6	315.590	0.230	-0.420	-0.630
2020/01/31 08:07:34.7	315.600	0.230	-0.390	-0.630
2020/01/31 08:07:34.8	315.600	0.220	-0.350	-0.620
2020/01/31 08:07:34.9	315.610	0.210	-0.320	-0.620
2020/01/31 08:07:35.0	315.610	0.200	-0.280	-0.610
2020/01/31 08:07:35.1	315.610	0.190	-0.250	-0.610
2020/01/31 08:07:35.2	315.620	0.180	-0.210	-0.600
2020/01/31 08:07:35.3	315.620	0.170	-0.180	-0.600
2020/01/31 08:07:35.4	315.620	0.160	-0.140	-0.590
2020/01/31 08:07:35.5	315.620	0.150	-0.100	-0.590
2020/01/31 08:07:35.6	315.620	0.140	-0.060	-0.580
2020/01/31 08:07:35.7	315.620	0.130	-0.030	-0.570
2020/01/31 08:07:35.8	315.620	0.120	0.010	-0.560
2020/01/31 08:07:35.9	315.620	0.110	0.050	-0.550
2020/01/31 08:07:36.0	315.610	0.100	0.080	-0.540
2020/01/31 08:07:36.1	315.610	0.090	0.120	-0.520
2020/01/31 08:07:36.2	315.600	0.080	0.150	-0.510
2020/01/31 08:07:36.3	315.590	0.070	0.180	-0.490
2020/01/31 08:07:36.4	315.580	0.060	0.210	-0.470
2020/01/31 08:07:36.5	315.570	0.050	0.240	-0.460
2020/01/31 08:07:36.6	315.560	0.040	0.270	-0.440
2020/01/31 08:07:36.7	315.540	0.030	0.300	-0.420
2020/01/31 08:07:36.8	315.530	0.020	0.320	-0.400
2020/01/31 08:07:36.9	315.510	0.010	0.340	-0.370
2020/01/31 08:07:37.0	315.490	-0.000	0.360	-0.350
2020/01/31 08:07:37.1	315.460	-0.010	0.380	-0.330
2020/01/31 08:07:37.2	315.440	-0.020	0.390	-0.310
2020/01/31 08:07:37.3	315.410	-0.030	0.400	-0.290
2020/01/31 08:07:37.4	315.380	-0.040	0.410	-0.270
2020/01/31 08:07:37.5	315.350	-0.050	0.410	-0.250
2020/01/31 08:07:37.6	315.320	-0.060	0.410	-0.230
2020/01/31 08:07:37.7	315.290	-0.070	0.400	-0.220
2020/01/31 08:07:37.8	315.260	-0.080	0.390	-0.210
2020/01/31 08:07:37.9	315.230	-0.080	0.370	-0.200
2020/01/31 08:07:38.0	315.200	-0.090	0.350	-0.190
2020/01/31 08:07:38.1	315.170	-0.100	0.320	-0.180
2020/01/31 08:07:38.2	315.140	-0.100	0.290	-0.180
2020/01/31 08:07:38.3	315.100	-0.110	0.260	-0.190
2020/01/31 08:07:38.4	315.070	-0.110	0.220	-0.190
2020/01/31 08:07:38.5	315.040	-0.120	0.170	-0.200
2020/01/31 08:07:38.6	315.010	-0.120	0.120	-0.200
2020/01/31 08:07:38.7	314.980	-0.120	0.070	-0.210
2020/01/31 08:07:38.8	314.950	-0.120	0.020	-0.220
2020/01/31 08:07:38.9	314.920	-0.120	-0.040	-0.240
2020/01/31 08:07:39.0	314.890	-0.120	-0.100	-0.250
2020/01/31 08:07:39.1	314.860	-0.120	-0.160	-0.270
2020/01/31 08:07:39.2	314.840	-0.120	-0.220	-0.290
2020/01/31 08:07:39.3	314.810	-0.110	-0.290	-0.310
2020/01/31 08:07:39.4	314.790	-0.110	-0.350	-0.330
2020/01/31 08:07:39.5	314.770	-0.100	-0.410	-0.360
2020/01/31 08:07:39.6	314.750	-0.100	-0.470	-0.380
2020/01/31 08:07:39.7	314.730	-0.090	-0.530	-0.400
2020/01/31 08:07:39.8	314.710	-0.080	-0.590	-0.430
2020/01/31 08:07:39.9	314.690	-0.070	-0.640	-0.460
2020/01/31 08:07:40.0	314.680	-0.060	-0.690	-0.480
2020/01/31 08:07:40.1	314.670	-0.050	-0.740	-0.510
2020/01/31 08:07:40.2	314.660	-0.040	-0.780	-0.540
2020/01/31 08:07:40.3	314.650	-0.030	-0.830	-0.560
2020/01/31 08:07:40.4	314.650	-0.020	-0.860	-0.590
2020/01/31 08:07:40.5	314.640	-0.010	-0.890	-0.620
2020/01/31 08:07:40.6	314.640	-0.000	-0.910	-0.640
2020/01/31 08:07:40.7	314.640	0.010	-0.930	-0.670
2020/01/31 08:07:40.8	314.640	0.010	-0.950	-0.690
2020/01/31 08:07:40.9	314.640	0.020	-0.960	-0.720
2020/01/31 08:07:41.0	314.650	0.030	-0.960	-0.740
2020/01/31 08:07:41.1	314.650	0.030	-0.960	-0.770
2020/01/31 08:07:41.2	314.660	0.040	-0.950	-0.790
2020/01/31 08:07:41.3	314.670	0.040	-0.940	-0.810
2020/01/31 08:07:41.4	314.680	0.040	-0.920	-0.840
2020/01/31 08:07:41.5	314.690	0.040	-0.900	-0.860
2020/01/31 08:07:41.6	314.710	0.040	-0.880	-0.880
2020/01/31 08:07:41.7	314.730	0.030	-0.850	-0.910
2020/01/31 08:07:41.8	314.750	0.030	-0.820	-0.930
2020/01/31 08:07:41.9	314.770	0.020	-0.780	-0.950
2020/01/31 08:07:42.0	314.790	0.010	-0.750	-0.970
2020/01/31 08:07:42.1	314.820	0.000	-0.710	-0.990
2020/01/31 08:07:42.2	314.840	-0.010	-0.660	-1.010
2020/01/31 08:07:42.3	314.860	-0.020	-0.620	-1.020
2020/01/31 08:07:42.4	314.890	-0.030	-0.570	-1.040
2020/01/31 08:07:42.5	314.920	-0.040	-0.520	-1.050
2020/01/31 08:07:42.6	314.950	-0.060	-0.480	-1.060
2020/01/31 08:07:42.7	314.970	-0.070	-0.430	-1.070
2020/01/31 08:07:42.8	315.000	-0.080	-0.380	-1.070
2020/01/31 08:07:42.9	315.030	-0.100	-0.330	-1.080
2020/01/31 08:07:43.0	315.060	-0.110	-0.280	-1.080
2020/01/31 08:07:43.1	315.090	-0.130	-0.230	-1.080
2020/01/31 08:07:43.2	315.110	-0.140	-0.180	-1.080
2020/01/31 08:07:43.3	315.130	-0.150	-0.140	-1.080
2020/01/31 08:07:43.4	315.160	-0.160	-0.090	-1.070
2020/01/31 08:07:43.5	315.190	-0.180	-0.050	-1.060
2020/01/31 08:07:43.6	315.220	-0.190	-0.010	-1.060
2020/01/31 08:07:43.7	315.240	-0.190	0.030	-1.050
2020/01/31 08:07:43.8	315.270	-0.200	0.060	-1.030
2020/01/31 08:07:43.9	315.290	-0.210	0.100	-1.020
2020/01/31 08:07:44.0	315.320	-0.210	0.120	-1.000
2020/01/31 08:07:44.1	315.340	-0.210	0.150	-0.990
2020/01/31 08:07:44.2	315.370	-0.210	0.170	-0.970
2020/01/31 08:07:44.3	315.400	-0.210	0.190	-0.940
2020/01/31 08:07:44.4	315.420	-0.210	0.210	-0.920
2020/01/31 08:07:44.5	315.440	-0.200	0.220	-0.890
2020/01/31 08:07:44.6	315.460	-0.200	0.230	-0.870
2020/01/31 08:07:44.7	315.480	-0.190	0.240	-0.840
2020/01/31 08:07:44.8	315.500	-0.180	0.240	-0.800
2020/01/31 08:07:44.9	315.520	-0.170	0.240	-0.770
2020/01/31 08:07:45.0	315.530	-0.160	0.230	-0.730
2020/01/31 08:07:45.1	315.540	-0.140	0.230	-0.700
2020/01/31 08:07:45.2	315.560	-0.130	0.220	-0.660
2020/01/31 08:07:45.3	315.560	-0.110	0.210	-0.620
2020/01/31 08:07:45.4	315.570	-0.090	0.190	-0.580
2020/01/31 08:07:45.5	315.580	-0.080	0.170	-0.540
2020/01/31 08:07:45.6	315.580	-0.060	0.150	-0.500
2020/01/31 08:07:45.7	315.590	-0.040	0.130	-0.460
2020/01/31 08:07:45.8	315.590	-0.030	0.110	-0.420
2020/01/31 08:07:45.9	315.590	-0.010	0.080	-0.380
2020/01/31 08:07:46.0	315.580	0.010	0.050	-0.350
2020/01/31 08:07:46.1	315.580	0.030	0.020	-0.310
2020/01/31 08:07:46.2	315.570	0.040	-0.010	-0.280
2020/01/31 08:07:46.3	315.580	0.060	-0.040	-0.250
2020/01/31 08:07:46.4	315.570	0.070	-0.070	-0.220
2020/01/31 08:07:46.5	315.560	0.090	-0.100	-0.200
2020/01/31 08:07:46.6	315.550	0.100	-0.130	-0.170
2020/01/31 08:07:46.7	315.540	0.110	-0.160	-0.150
2020/01/31 08:07:46.8	315.520	0.120	-0.190	-0.130
2020/01/31 08:07:46.9	315.510	0.130	-0.220	-0.100
2020/01/31 08:07:47.0	315.490	0.140	-0.250	-0.080
2020/01/31 08:07:47.1	315.470	0.150	-0.270	-0.070
2020/01/31 08:07:47.2	315.450	0.160	-0.290	-0.050
2020/01/31 08:07:47.3	315.420	0.160	-0.310	-0.030
2020/01/31 08:07:47.4	315.400	0.170	-0.320	-0.010
2020/01/31 08:07:47.5	315.370	0.170	-0.340	0.000
2020/01/31 08:07:47.6	315.350	0.170	-0.350	0.020
2020/01/31 08:07:47.7	315.320	0.170	-0.350	0.040
2020/01/31 08:07:47.8	315.290	0.170	-0.360	0.050
2020/01/31 08:07:47.9	315.260	0.170	-0.360	0.070
2020/01/31 08:07:48.0	315.230	0.170	-0.360	0.080
2020/01/31 08:07:48.1	315.210	0.170	-0.350	0.090
2020/01/31 08:07:48.2	315.180	0.170	-0.350	0.100
2020/01/31 08:07:48.3	315.160	0.170	-0.340	0.110
2020/01/31 08:07:48.4	315.130	0.170	-0.330	0.110
2020/01/31 08:07:48.5	315.100	0.170	-0.320	0.120
2020/01/31 08:07:48.6	315.080	0.160	-0.310	0.120
2020/01/31 08:07:48.7	315.050	0.160	-0.290	0.130
2020/01/31 08:07:48.8	315.020	0.160	-0.280	0.130
2020/01/31 08:07:48.9	315.000	0.160	-0.270	0.130
2020/01/31 08:07:49.0	314.970	0.160	-0.260	0.120
2020/01/31 08:07:49.1	314.950	0.160	-0.250	0.120
2020/01/31 08:07:49.2	314.920	0.160	-0.250	0.110
2020/01/31 08:07:49.3	314.900	0.160	-0.240	0.110
2020/01/31 08:07:49.4	314.880	0.160	-0.240	0.100
2020/01/31 08:07:49.5	314.850	0.160	-0.240	0.080
2020/01/31 08:07:49.6	314.830	0.160	-0.240	0.070
2020/01/31 08:07:49.7	314.810	0.170	-0.240	0.060
2020/01/31 08:07:49.8	314.780	0.170	-0.250	0.040
2020/01/31 08:07:49.9	314.760	0.180	-0.250	0.030
2020/01/31 08:07:50.0	314.740	0.190	-0.260	0.010
2020/01/31 08:07:50.1	314.730	0.190	-0.280	-0.010
2020/01/31 08:07:50.2	314.710	0.200	-0.290	-0.030
2020/01/31 08:07:50.3	314.700	0.210	-0.310	-0.060
2020/01/31 08:07:50.4	314.690	0.220	-0.330	-0.080
2020/01/31 08:07:50.5	314.680	0.230	-0.350	-0.110
2020/01/31 08:07:50.6	314.670	0.230	-0.370	-0.140
2020/01/31 08:07:50.7	314.660	0.240	-0.390	-0.170
2020/01/31 08:07:50.8	314.660	0.250	-0.420	-0.200
2020/01/31 08:07:50.9	314.660	0.260	-0.440	-0.230
2020/01/31 08:07:51.0	314.660	0.270	-0.470	-0.270
2020/01/31 08:07:51.1	314.670	0.280	-0.490	-0.300
2020/01/31 08:07:51.2	314.670	0.280	-0.520	-0.340
2020/01/31 08:07:51.3	314.680	0.290	-0.550	-0.380
2020/01/31 08:07:51.4	314.690	0.290	-0.570	-0.410
2020/01/31 08:07:51.5	314.700	0.300	-0.590	-0.450
2020/01/31 08:07:51.6	314.710	0.300	-0.610	-0.490
2020/01/31 08:07:51.7	314.720	0.300	-0.630	-0.520
2020/01/31 08:07:51.8	314.730	0.290	-0.650	-0.550
2020/01/31 08:07:51.9	314.750	0.290	-0.660	-0.580
2020/01/31 08:07:52.0	314.760	0.280	-0.670	-0.610
2020/01/31 08:07:52.1	314.760	0.270	-0.670	-0.640
2020/01/31 08:07:52.2	314.770	0.260	-0.670	-0.670
2020/01/31 08:07:52.3	314.780	0.250	-0.670	-0.690
2020/01/31 08:07:52.4	314.780	0.230	-0.660	-0.710
2020/01/31 08:07:52.5	314.790	0.210	-0.650	-0.730
2020/01/31 08:07:52.6	314.800	0.190	-0.630	-0.750
2020/01/31 08:07:52.7	314.800	0.170	-0.610	-0.770
2020/01/31 08:07:52.8	314.810	0.140	-0.590	-0.780
2020/01/31 08:07:52.9	314.810	0.120	-0.560	-0.790
2020/01/31 08:07:53.0	314.820	0.090	-0.540	-0.810
2020/01/31 08:07:53.1	314.820	0.060	-0.500	-0.820
2020/01/31 08:07:53.2	314.830	0.030	-0.470	-0.820
2020/01/31 08:07:53.3	314.830	-0.010	-0.430	-0.830
2020/01/31 08:07:53.4	314.840	-0.040	-0.400	-0.840
2020/01/31 08:07:53.5	314.840	-0.070	-0.360	-0.840
2020/01/31 08:07:53.6	314.850	-0.100	-0.320	-0.850
2020/01/31 08:07:53.7	314.860	-0.140	-0.280	-0.850
2020/01/31 08:07:53.8	314.860	-0.170	-0.240	-0.850
2020/01/31 08:07:53.9	314.870	-0.200	-0.200	-0.850
2020/01/31 08:07:54.0	314.880	-0.240	-0.170	-0.850
2020/01/31 08:07:54.1	314.890	-0.270	-0.130	-0.850
2020/01/31 08:07:54.2	314.900	-0.290	-0.090	-0.850
2020/01/31 08:07:54.3	314.910	-0.320	-0.060	-0.840
2020/01/31 08:07:54.4	314.920	-0.350	-0.030	-0.840
2020/01/31 08:07:54.5	314.930	-0.370	0.010	-0.830
2020/01/31 08:07:54.6	314.940	-0.390	0.040	-0.820
2020/01/31 08:07:54.7	314.950	-0.410	0.060	-0.810
2020/01/31 08:07:54.8	314.960	-0.420	0.090	-0.800
2020/01/31 08:07:54.9	314.970	-0.430	0.110	-0.790
2020/01/31 08:07:55.0	314.990	-0.440	0.130	-0.780
2020/01/31 08:07:55.1	315.000	-0.440	0.150	-0.760
2020/01/31 08:07:55.2	315.010	-0.450	0.170	-0.750
2020/01/31 08:07:55.3	315.020	-0.450	0.190	-0.730
2020/01/31 08:07:55.4	315.030	-0.440	0.200	-0.710
2020/01/31 08:07:55.5	315.050	-0.430	0.210	-0.700
2020/01/31 08:07:55.6	315.050	-0.420	0.220	-0.680
2020/01/31 08:07:55.7	315.060	-0.410	0.220	-0.660
2020/01/31 08:07:55.8	315.070	-0.390	0.220	-0.640
2020/01/31 08:07:55.9	315.080	-0.370	0.230	-0.620
2020/01/31 08:07:56.0	315.090	-0.350	0.220	-0.600
2020/01/31 08:07:56.1	315.100	-0.330	0.220	-0.580
2020/01/31 08:07:56.2	315.110	-0.300	0.220	-0.550
2020/01/31 08:07:56.3	315.100	-0.280	0.210	-0.530
2020/01/31 08:07:56.4	315.110	-0.250	0.200	-0.510
2020/01/31 08:07:56.5	315.110	-0.220	0.190	-0.490
2020/01/31 08:07:56.6	315.120	-0.190	0.170	-0.470
2020/01/31 08:07:56.7	315.130	-0.160	0.160	-0.450
2020/01/31 08:07:56.8	315.130	-0.130	0.140	-0.430
2020/01/31 08:07:56.9	315.130	-0.100	0.130	-0.410
2020/01/31 08:07:57.0	315.140	-0.070	0.110	-0.390
2020/01/31 08:07:57.1	315.140	-0.040	0.090	-0.380
2020/01/31 08:07:57.2	315.140	-0.010	0.070	-0.360
2020/01/31 08:07:57.3	315.140	0.020	0.050	-0.340
2020/01/31 08:07:57.4	315.140	0.050	0.030	-0.320
2020/01/31 08:07:57.5	315.140	0.070	0.010	-0.300
2020/01/31 08:07:57.6	315.130	0.100	-0.010	-0.290
2020/01/31 08:07:57.7	315.130	0.120	-0.030	-0.270
2020/01/31 08:07:57.8	315.130	0.140	-0.050	-0.260
2020/01/31 08:07:57.9	315.120	0.160	-0.070	-0.240
2020/01/31 08:07:58.0	315.120	0.180	-0.090	-0.230
2020/01/31 08:07:58.1	315.110	0.190	-0.120	-0.220
2020/01/31 08:07:58.2	315.100	0.210	-0.140	-0.210
2020/01/31 08:07:58.3	315.080	0.220	-0.170	-0.200
2020/01/31 08:07:58.4	315.070	0.230	-0.190	-0.200
2020/01/31 08:07:58.5	315.070	0.230	-0.210	-0.190
2020/01/31 08:07:58.6	315.060	0.240	-0.230	-0.190
2020/01/31 08:07:58.7	315.050	0.240	-0.250	-0.190
2020/01/31 08:07:58.8	315.040	0.240	-0.270	-0.180
2020/01/31 08:07:58.9	315.030	0.240	-0.290	-0.190
2020/01/31 08:07:59.0	315.020	0.240	-0.310	-0.190
2020/01/31 08:07:59.1	315.010	0.230	-0.330	-0.190
2020/01/31 08:07:59.2	315.000	0.230	-0.350	-0.200
2020/01/31 08:07:59.3	314.980	0.220	-0.360	-0.210
2020/01/31 08:07:59.4	314.970	0.210	-0.380	-0.220
2020/01/31 08:07:59.5	314.960	0.200	-0.390	-0.230
2020/01/31 08:07:59.6	314.940	0.190	-0.410	-0.240
2020/01/31 08:07:59.7	314.930	0.180	-0.420	-0.250
2020/01/31 08:07:59.8	314.910	0.160	-0.430	-0.260
2020/01/31 08:07:59.9	314.900	0.150	-0.440	-0.280
2020/01/31 08:08:00.0	314.880	0.130	-0.450	-0.300
2020/01/31 08:08:00.1	314.860	0.120	-0.460	-0.310
2020/01/31 08:08:00.2	314.840	0.100	-0.470	-0.330
2020/01/31 08:08:00.3	314.820	0.090	-0.470	-0.350
2020/01/31 08:08:00.4	314.800	0.070	-0.470	-0.360
2020/01/31 08:08:00.5	314.780	0.060	-0.480	-0.380
2020/01/31 08:08:00.6	314.760	0.050	-0.480	-0.390
2020/01/31 08:08:00.7	314.740	0.030	-0.480	-0.410
2020/01/31 08:08:00.8	314.720	0.020	-0.480	-0.420
2020/01/31 08:08:00.9	314.700	0.010	-0.480	-0.440
2020/01/31 08:08:01.0	314.690	-0.000	-0.480	-0.450
2020/01/31 08:08:01.1	314.670	-0.010	-0.470	-0.460
2020/01/31 08:08:01.2	314.650	-0.020	-0.470	-0.470
2020/01/31 08:08:01.3	314.640	-0.020	-0.460	-0.480
2020/01/31 08:08:01.4	314.620	-0.030	-0.460	-0.490
2020/01/31 08:08:01.5	314.610	-0.030	-0.450	-0.490
2020/01/31 08:08:01.6	314.590	-0.030	-0.440	-0.500
2020/01/31 08:08:01.7	314.580	-0.040	-0.430	-0.500
2020/01/31 08:08:01.8	314.560	-0.030	-0.420	-0.500
2020/01/31 08:08:01.9	314.550	-0.030	-0.410	-0.500
2020/01/31 08:08:02.0	314.540	-0.030	-0.400	-0.500
2020/01/31 08:08:02.1	314.530	-0.020	-0.390	-0.500
2020/01/31 08:08:02.2	314.520	-0.020	-0.380	-0.500
2020/01/31 08:08:02.3	314.510	-0.010	-0.370	-0.500
2020/01/31 08:08:02.4	314.500	0.000	-0.360	-0.490
2020/01/31 08:08:02.5	314.490	0.010	-0.350	-0.490
2020/01/31 08:08:02.6	314.480	0.020	-0.340	-0.480
2020/01/31 08:08:02.7	314.470	0.030	-0.330	-0.470
2020/01/31 08:08:02.8	314.470	0.040	-0.320	-0.470
2020/01/31 08:08:02.9	314.460	0.050	-0.320	-0.460
2020/01/31 08:08:03.0	314.460	0.060	-0.310	-0.450
2020/01/31 08:08:03.1	314.450	0.070	-0.310	-0.440
2020/01/31 08:08:03.2	314.450	0.080	-0.310	-0.430
2020/01/31 08:08:03.3	314.440	0.090	-0.300	-0.410
2020/01/31 08:08:03.4	314.440	0.100	-0.300	-0.400
2020/01/31 08:08:03.5	314.440	0.110	-0.310	-0.390
2020/01/31 08:08:03.6	314.440	0.120	-0.310	-0.370
2020/01/31 08:08:03.7	314.440	0.120	-0.320	-0.360
2020/01/31 08:08:03.8	314.440	0.130	-0.320	-0.350
2020/01/31 08:08:03.9	314.440	0.130	-0.330	-0.330
2020/01/31 08:08:04.0	314.440	0.140	-0.340	-0.320
2020/01/31 08:08:04.1	314.450	0.140	-0.340	-0.310
2020/01/31 08:08:04.2	314.450	0.150	-0.350	-0.300
2020/01/31 08:08:04.3	314.470	0.150	-0.360	-0.290
2020/01/31 08:08:04.4	314.480	0.150	-0.370	-0.280
2020/01/31 08:08:04.5	314.490	0.150	-0.380	-0.280
2020/01/31 08:08:04.6	314.500	0.150	-0.390	-0.270
2020/01/31 08:08:04.7	314.510	0.150	-0.400	-0.270
2020/01/31 08:08:04.8	314.530	0.140	-0.400	-0.260
2020/01/31 08:08:04.9	314.540	0.140	-0.410	-0.260
2020/01/31 08:08:05.0	314.560	0.130	-0.410	-0.260
2020/01/31 08:08:05.1	314.580	0.130	-0.410	-0.260
2020/01/31 08:08:05.2	314.600	0.120	-0.420	-0.250
2020/01/31 08:08:05.3	314.610	0.110	-0.410	-0.250
2020/01/31 08:08:05.4	314.630	0.100	-0.410	-0.250
2020/01/31 08:08:05.5	314.650	0.090	-0.400	-0.250
2020/01/31 08:08:05.6	314.660	0.080	-0.400	-0.250
2020/01/31 08:08:05.7	314.680	0.060	-0.380	-0.250
2020/01/31 08:08:05.8	314.690	0.050	-0.370	-0.250
2020/01/31 08:08:05.9	314.710	0.040	-0.360	-0.240
2020/01/31 08:08:06.0	314.720	0.020	-0.340	-0.240
2020/01/31 08:08:06.1	314.740	0.010	-0.320	-0.240
2020/01/31 08:08:06.2	314.750	-0.010	-0.300	-0.230
2020/01/31 08:08:06.3	314.760	-0.030	-0.280	-0.230
2020/01/31 08:08:06.4	314.780	-0.040	-0.260	-0.230
2020/01/31 08:08:06.5	314.790	-0.060	-0.240	-0.230
2020/01/31 08:08:06.6	314.800	-0.080	-0.210	-0.220
2020/01/31 08:08:06.7	314.810	-0.090	-0.190	-0.220
2020/01/31 08:08:06.8	314.820	-0.110	-0.170	-0.220
2020/01/31 08:08:06.9	314.830	-0.120	-0.140	-0.220
2020/01/31 08:08:07.0	314.840	-0.130	-0.120	-0.220
2020/01/31 08:08:07.1	314.850	-0.150	-0.100	-0.220
2020/01/31 08:08:07.2	314.860	-0.160	-0.080	-0.220
2020/01/31 08:08:07.3	314.870	-0.170	-0.050	-0.220
2020/01/31 08:08:07.4	314.880	-0.170	-0.040	-0.230
2020/01/31 08:08:07.5	314.890	-0.180	-0.020	-0.230
2020/01/31 08:08:07.6	314.900	-0.190	-0.010	-0.240
2020/01/31 08:08:07.7	314.900	-0.190	0.000	-0.240
2020/01/31 08:08:07.8	314.910	-0.190	0.010	-0.250
2020/01/31 08:08:07.9	314.910	-0.190	0.010	-0.260
2020/01/31 08:08:08.0	314.910	-0.190	0.020	-0.260
2020/01/31 08:08:08.1	314.910	-0.180	0.020	-0.270
2020/01/31 08:08:08.2	314.910	-0.180	0.020	-0.280
2020/01/31 08:08:08.3	314.910	-0.170	0.010	-0.280
2020/01/31 08:08:08.4	314.900	-0.160	0.000	-0.290
2020/01/31 08:08:08.5	314.900	-0.140	-0.010	-0.290
2020/01/31 08:08:08.6	314.890	-0.130	-0.020	-0.300
2020/01/31 08:08:08.7	314.880	-0.110	-0.030	-0.300
2020/01/31 08:08:08.8	314.870	-0.100	-0.040	-0.300
2020/01/31 08:08:08.9	314.860	-0.080	-0.060	-0.310
2020/01/31 08:08:09.0	314.850	-0.060	-0.070	-0.310
2020/01/31 08:08:09.1	314.840	-0.040	-0.090	-0.310
2020/01/31 08:08:09.2	314.830	-0.020	-0.110	-0.320
2020/01/31 08:08:09.3	314.830	0.010	-0.130	-0.320
2020/01/31 08:08:09.4	314.820	0.030	-0.150	-0.330
2020/01/31 08:08:09.5	314.810	0.050	-0.170	-0.330
2020/01/31 08:08:09.6	314.800	0.070	-0.190	-0.340
2020/01/31 08:08:09.7	314.800	0.100	-0.210	-0.340
2020/01/31 08:08:09.8	314.790	0.120	-0.240	-0.350
2020/01/31 08:08:09.9	314.780	0.140	-0.260	-0.360
2020/01/31 08:08:10.0	314.780	0.160	-0.280	-0.370
2020/01/31 08:08:10.1	314.780	0.180	-0.310	-0.380
2020/01/31 08:08:10.2	314.770	0.190	-0.330	-0.400
2020/01/31 08:08:10.3	314.770	0.210	-0.360	-0.410
2020/01/31 08:08:10.4	314.770	0.220	-0.380	-0.420
2020/01/31 08:08:10.5	314.770	0.240	-0.400	-0.440
2020/01/31 08:08:10.6	314.770	0.250	-0.420	-0.450
2020/01/31 08:08:10.7	314.770	0.250	-0.440	-0.470
2020/01/31 08:08:10.8	314.780	0.260	-0.450	-0.490
2020/01/31 08:08:10.9	314.780	0.260	-0.460	-0.510
2020/01/31 08:08:11.0	314.780	0.260	-0.470	-0.530
2020/01/31 08:08:11.1	314.780	0.260	-0.480	-0.550
2020/01/31 08:08:11.2	314.780	0.250	-0.480	-0.570
2020/01/31 08:08:11.3	314.780	0.250	-0.480	-0.590
2020/01/31 08:08:11.4	314.780	0.240	-0.470	-0.610
2020/01/31 08:08:11.5	314.780	0.230	-0.470	-0.620
2020/01/31 08:08:11.6	314.780	0.210	-0.450	-0.640
2020/01/31 08:08:11.7	314.780	0.200	-0.440	-0.660
2020/01/31 08:08:11.8	314.780	0.180	-0.420	-0.670
2020/01/31 08:08:11.9	314.770	0.160	-0.400	-0.680
2020/01/31 08:08:12.0	314.770	0.140	-0.370	-0.700
2020/01/31 08:08:12.1	314.760	0.110	-0.340	-0.710
2020/01/31 08:08:12.2	314.760	0.090	-0.310	-0.710
2020/01/31 08:08:12.3	314.760	0.070	-0.270	-0.720
2020/01/31 08:08:12.4	314.750	0.040	-0.240	-0.730
2020/01/31 08:08:12.5	314.750	0.020	-0.200	-0.730
2020/01/31 08:08:12.6	314.740	-0.010	-0.160	-0.730
2020/01/31 08:08:12.7	314.730	-0.030	-0.120	-0.740
2020/01/31 08:08:12.8	314.730	-0.060	-0.080	-0.740
2020/01/31 08:08:12.9	314.720	-0.080	-0.040	-0.730
2020/01/31 08:08:13.0	314.720	-0.100	-0.000	-0.730
2020/01/31 08:08:13.1	314.710	-0.120	0.040	-0.730
2020/01/31 08:08:13.2	314.700	-0.140	0.080	-0.720
2020/01/31 08:08:13.3	314.690	-0.160	0.120	-0.710
2020/01/31 08:08:13.4	314.680	-0.180	0.150	-0.700
2020/01/31 08:08:13.5	314.670	-0.200	0.180	-0.690
2020/01/31 08:08:13.6	314.660	-0.210	0.210	-0.670
2020/01/31 08:08:13.7	314.650	-0.220	0.240	-0.660
2020/01/31 08:08:13.8	314.630	-0.230	0.270	-0.640
2020/01/31 08:08:13.9	314.620	-0.240	0.290	-0.620
2020/01/31 08:08:14.0	314.610	-0.240	0.310	-0.600
2020/01/31 08:08:14.1	314.590	-0.240	0.320	-0.580
2020/01/31 08:08:14.2	314.580	-0.240	0.330	-0.550
2020/01/31 08:08:14.3	314.570	-0.240	0.340	-0.530
2020/01/31 08:08:14.4	314.560	-0.230	0.340	-0.500
2020/01/31 08:08:14.5	314.550	-0.230	0.340	-0.480
2020/01/31 08:08:14.6	314.540	-0.220	0.330	-0.450
2020/01/31 08:08:14.7	314.520	-0.200	0.320	-0.420
2020/01/31 08:08:14.8	314.510	-0.190	0.310	-0.390
2020/01/31 08:08:14.9	314.500	-0.180	0.290	-0.370
2020/01/31 08:08:15.0	314.490	-0.160	0.270	-0.340
2020/01/31 08:08:15.1	314.480	-0.140	0.240	-0.310
2020/01/31 08:08:15.2	314.480	-0.120	0.210	-0.290
2020/01/31 08:08:15.3	314.460	-0.100	0.180	-0.260
2020/01/31 08:08:15.4	314.450	-0.080	0.140	-0.240
2020/01/31 08:08:15.5	314.450	-0.060	0.100	-0.220
2020/01/31 08:08:15.6	314.440	-0.040	0.060	-0.190
2020/01/31 08:08:15.7	314.440	-0.020	0.020	-0.180
2020/01/31 08:08:15.8	314.430	0.000	-0.020	-0.160
2020/01/31 08:08:15.9	314.430	0.020	-0.070	-0.140
2020/01/31 08:08:16.0	314.420	0.040	-0.110	-0.120
2020/01/31 08:08:16.1	314.420	0.060	-0.160	-0.110
2020/01/31 08:08:16.2	314.420	0.080	-0.200	-0.090
2020/01/31 08:08:16.3	314.400	0.100	-0.250	-0.080
2020/01/31 08:08:16.4	314.400	0.120	-0.290	-0.070
2020/01/31 08:08:16.5	314.400	0.130	-0.340	-0.060
2020/01/31 08:08:16.6	314.390	0.140	-0.380	-0.050
2020/01/31 08:08:16.7	314.390	0.160	-0.420	-0.040
2020/01/31 08:08:16.8	314.390	0.160	-0.460	-0.030
2020/01/31 08:08:16.9	314.390	0.170	-0.500	-0.020
2020/01/31 08:08:17.0	314.390	0.180	-0.540	-0.010
2020/01/31 08:08:17.1	314.390	0.180	-0.580	-0.010
2020/01/31 08:08:17.2	314.380	0.180	-0.610	-0.000
2020/01/31 08:08:17.3	314.370	0.180	-0.650	0.000
2020/01/31 08:08:17.4	314.370	0.180	-0.670	0.010
2020/01/31 08:08:17.5	314.370	0.180	-0.700	0.010
2020/01/31 08:08:17.6	314.360	0.170	-0.730	0.020
2020/01/31 08:08:17.7	314.350	0.160	-0.750	0.020
2020/01/31 08:08:17.8	314.350	0.150	-0.770	0.020
2020/01/31 08:08:17.9	314.340	0.140	-0.790	0.020
2020/01/31 08:08:18.0	314.330	0.130	-0.800	0.020
2020/01/31 08:08:18.1	314.330	0.120	-0.820	0.020
2020/01/31 08:08:18.2	314.320	0.100	-0.830	0.020
2020/01/31 08:08:18.3	314.310	0.090	-0.830	0.010
2020/01/31 08:08:18.4	314.300	0.070	-0.840	0.010
2020/01/31 08:08:18.5	314.290	0.050	-0.850	-0.000
2020/01/31 08:08:18.6	314.290	0.030	-0.850	-0.010
2020/01/31 08:08:18.7	314.280	0.020	-0.850	-0.030
2020/01/31 08:08:18.8	314.270	-0.000	-0.850	-0.050
2020/01/31 08:08:18.9	314.270	-0.020	-0.850	-0.060
2020/01/31 08:08:19.0	314.260	-0.040	-0.840	-0.080
2020/01/31 08:08:19.1	314.260	-0.060	-0.830	-0.110
2020/01/31 08:08:19.2	314.260	-0.080	-0.820	-0.130
2020/01/31 08:08:19.3	314.260	-0.100	-0.810	-0.170
2020/01/31 08:08:19.4	314.260	-0.110	-0.800	-0.200
2020/01/31 08:08:19.5	314.260	-0.130	-0.780	-0.230
2020/01/31 08:08:19.6	314.260	-0.150	-0.770	-0.260
2020/01/31 08:08:19.7	314.260	-0.160	-0.750	-0.300
2020/01/31 08:08:19.8	314.260	-0.180	-0.730	-0.340
2020/01/31 08:08:19.9	314.260	-0.190	-0.710	-0.370
2020/01/31 08:08:20.0	314.270	-0.210	-0.680	-0.410
2020/01/31 08:08:20.1	314.270	-0.220	-0.660	-0.450
2020/01/31 08:08:20.2	314.280	-0.230	-0.630	-0.490
2020/01/31 08:08:20.3	314.280	-0.250	-0.600	-0.530
2020/01/31 08:08:20.4	314.290	-0.260	-0.570	-0.570
2020/01/31 08:08:20.5	314.300	-0.270	-0.540	-0.610
2020/01/31 08:08:20.6	314.310	-0.280	-0.510	-0.650
2020/01/31 08:08:20.7	314.310	-0.280	-0.480	-0.690
2020/01/31 08:08:20.8	314.320	-0.290	-0.450	-0.720
2020/01/31 08:08:20.9	314.330	-0.300	-0.420	-0.760
2020/01/31 08:08:21.0	314.350	-0.300	-0.390	-0.800
2020/01/31 08:08:21.1	314.360	-0.310	-0.350	-0.830
2020/01/31 08:08:21.2	314.370	-0.310	-0.320	-0.870
2020/01/31 08:08:21.3	314.390	-0.310	-0.300	-0.900
2020/01/31 08:08:21.4	314.400	-0.320	-0.270	-0.940
2020/01/31 08:08:21.5	314.420	-0.320	-0.240	-0.970
2020/01/31 08:08:21.6	314.430	-0.310	-0.210	-1.000
2020/01/31 08:08:21.7	314.450	-0.310	-0.180	-1.020
2020/01/31 08:08:21.8	314.470	-0.310	-0.160	-1.050
2020/01/31 08:08:21.9	314.490	-0.300	-0.130	-1.070
2020/01/31 08:08:22.0	314.510	-0.300	-0.110	-1.090
2020/01/31 08:08:22.1	314.540	-0.290	-0.090	-1.110
2020/01/31 08:08:22.2	314.560	-0.280	-0.070	-1.130
2020/01/31 08:08:22.3	314.570	-0.270	-0.050	-1.140
2020/01/31 08:08:22.4	314.590	-0.260	-0.030	-1.140
2020/01/31 08:08:22.5	314.620	-0.240	-0.010	-1.140
2020/01/31 08:08:22.6	314.640	-0.230	0.000	-1.140
2020/01/31 08:08:22.7	314.660	-0.210	0.010	-1.130
2020/01/31 08:08:22.8	314.680	-0.190	0.020	-1.120
2020/01/31 08:08:22.9	314.700	-0.180	0.030	-1.110
2020/01/31 08:08:23.0	314.720	-0.160	0.040	-1.080
2020/01/31 08:08:23.1	314.730	-0.130	0.050	-1.060
2020/01/31 08:08:23.2	314.750	-0.110	0.050	-1.030
2020/01/31 08:08:23.3	314.770	-0.090	0.050	-1.000
2020/01/31 08:08:23.4	314.780	-0.070	0.050	-0.970
2020/01/31 08:08:23.5	314.800	-0.040	0.060	-0.930
2020/01/31 08:08:23.6	314.810	-0.020	0.050	-0.890
2020/01/31 08:08:23.7	314.820	0.010	0.050	-0.850
2020/01/31 08:08:23.8	314.840	0.040	0.050	-0.810
2020/01/31 08:08:23.9	314.850	0.060	0.050	-0.770
2020/01/31 08:08:24.0	314.860	0.090	0.050	-0.720
2020/01/31 08:08:24.1	314.860	0.120	0.040	-0.670
2020/01/31 08:08:24.2	314.870	0.140	0.040	-0.620
2020/01/31 08:08:24.3	314.870	0.170	0.040	-0.570
2020/01/31 08:08:24.4	314.870	0.200	0.040	-0.520
2020/01/31 08:08:24.5	314.870	0.220	0.040	-0.460
2020/01/31 08:08:24.6	314.860	0.250	0.040	-0.400
2020/01/31 08:08:24.7	314.860	0.270	0.050	-0.340
2020/01/31 08:08:24.8	314.850	0.300	0.050	-0.280
2020/01/31 08:08:24.9	314.840	0.320	0.060	-0.220
2020/01/31 08:08:25.0	314.820	0.340	0.070	-0.150
2020/01/31 08:08:25.1	314.810	0.360	0.080	-0.090
2020/01/31 08:08:25.2	314.790	0.380	0.090	-0.020
2020/01/31 08:08:25.3	314.770	0.400	0.100	0.050
2020/01/31 08:08:25.4	314.750	0.420	0.110	0.110
2020/01/31 08:08:25.5	314.730	0.430	0.120	0.180
2020/01/31 08:08:25.6	314.700	0.450	0.140	0.240
2020/01/31 08:08:25.7	314.680	0.460	0.150	0.300
2020/01/31 08:08:25.8	314.650	0.470	0.170	0.360
2020/01/31 08:08:25.9	314.630	0.470	0.180	0.420
2020/01/31 08:08:26.0	314.600	0.480	0.190	0.470
2020/01/31 08:08:26.1	314.580	0.480	0.200	0.520
2020/01/31 08:08:26.2	314.550	0.480	0.210	0.560
2020/01/31 08:08:26.3	314.520	0.480	0.220	0.600
2020/01/31 08:08:26.4	314.490	0.480	0.220	0.640
2020/01/31 08:08:26.5	314.470	0.480	0.230	0.670
2020/01/31 08:08:26.6	314.440	0.470	0.230	0.690
2020/01/31 08:08:26.7	314.420	0.460	0.220	0.710
2020/01/31 08:08:26.8	314.390	0.450	0.220	0.730
2020/01/31 08:08:26.9	314.360	0.440	0.210	0.740
2020/01/31 08:08:27.0	314.340	0.420	0.200	0.740
2020/01/31 08:08:27.1	314.310	0.410	0.190	0.730
2020/01/31 08:08:27.2	314.290	0.390	0.170	0.720
2020/01/31 08:08:27.3	314.260	0.370	0.150	0.710
2020/01/31 08:08:27.4	314.240	0.350	0.130	0.690
2020/01/31 08:08:27.5	314.210	0.330	0.100	0.670
2020/01/31 08:08:27.6	314.190	0.300	0.070	0.640
2020/01/31 08:08:27.7	314.170	0.280	0.040	0.600
2020/01/31 08:08:27.8	314.150	0.250	0.000	0.570
2020/01/31 08:08:27.9	314.130	0.230	-0.040	0.520
2020/01/31 08:08:28.0	314.120	0.200	-0.080	0.480
2020/01/31 08:08:28.1	314.100	0.180	-0.120	0.430
2020/01/31 08:08:28.2	314.090	0.150	-0.160	0.370
2020/01/31 08:08:28.3	314.090	0.130	-0.210	0.310
2020/01/31 08:08:28.4	314.080	0.100	-0.250	0.250
2020/01/31 08:08:28.5	314.080	0.070	-0.290	0.190
2020/01/31 08:08:28.6	314.070	0.050	-0.340	0.120
2020/01/31 08:08:28.7	314.070	0.030	-0.380	0.060
2020/01/31 08:08:28.8	314.060	0.000	-0.430	-0.010
2020/01/31 08:08:28.9	314.060	-0.020	-0.470	-0.090
2020/01/31 08:08:29.0	314.070	-0.040	-0.510	-0.160
2020/01/31 08:08:29.1	314.070	-0.060	-0.550	-0.230
2020/01/31 08:08:29.2	314.070	-0.080	-0.590	-0.300
2020/01/31 08:08:29.3	314.070	-0.100	-0.620	-0.380
2020/01/31 08:08:29.4	314.080	-0.120	-0.650	-0.440
2020/01/31 08:08:29.5	314.080	-0.130	-0.680	-0.510
2020/01/31 08:08:29.6	314.090	-0.150	-0.700	-0.580
2020/01/31 08:08:29.7	314.100	-0.160	-0.730	-0.650
2020/01/31 08:08:29.8	314.100	-0.180	-0.740	-0.710
2020/01/31 08:08:29.9	314.110	-0.190	-0.760	-0.770
2020/01/31 08:08:30.0	314.110	-0.200	-0.770	-0.830
2020/01/31 08:08:30.1	314.120	-0.210	-0.770	-0.880
2020/01/31 08:08:30.2	314.130	-0.230	-0.780	-0.930
2020/01/31 08:08:30.3	314.140	-0.240	-0.780	-0.980
2020/01/31 08:08:30.4	314.150	-0.250	-0.780	-1.030
2020/01/31 08:08:30.5	314.160	-0.250	-0.770	-1.070
2020/01/31 08:08:30.6	314.170	-0.260	-0.770	-1.120
2020/01/31 08:08:30.7	314.190	-0.270	-0.760	-1.160
2020/01/31 08:08:30.8	314.200	-0.280	-0.750	-1.200
2020/01/31 08:08:30.9	314.220	-0.290	-0.750	-1.230
2020/01/31 08:08:31.0	314.240	-0.290	-0.730	-1.270
2020/01/31 08:08:31.1	314.260	-0.300	-0.720	-1.300
2020/01/31 08:08:31.2	314.280	-0.300	-0.710	-1.330
2020/01/31 08:08:31.3	314.300	-0.310	-0.700	-1.360
2020/01/31 08:08:31.4	314.330	-0.320	-0.690	-1.380
2020/01/31 08:08:31.5	314.350	-0.320	-0.670	-1.410
2020/01/31 08:08:31.6	314.380	-0.330	-0.660	-1.430
2020/01/31 08:08:31.7	314.400	-0.330	-0.650	-1.450
2020/01/31 08:08:31.8	314.430	-0.340	-0.630	-1.460
2020/01/31 08:08:31.9	314.450	-0.340	-0.610	-1.470
2020/01/31 08:08:32.0	314.480	-0.340	-0.600	-1.480
2020/01/31 08:08:32.1	314.500	-0.350	-0.580	-1.490
2020/01/31 08:08:32.2	314.530	-0.350	-0.560	-1.490
2020/01/31 08:08:32.3	314.540	-0.350	-0.540	-1.490
2020/01/31 08:08:32.4	314.570	-0.360	-0.520	-1.490
2020/01/31 08:08:32.5	314.590	-0.360	-0.500	-1.490
2020/01/31 08:08:32.6	314.610	-0.360	-0.480	-1.480
2020/01/31 08:08:32.7	314.630	-0.370	-0.450	-1.470
2020/01/31 08:08:32.8	314.650	-0.370	-0.430	-1.450
2020/01/31 08:08:32.9	314.670	-0.370	-0.410	-1.440
2020/01/31 08:08:33.0	314.690	-0.370	-0.380	-1.420
2020/01/31 08:08:33.1	314.710	-0.370	-0.360	-1.400
2020/01/31 08:08:33.2	314.720	-0.370	-0.330	-1.370
2020/01/31 08:08:33.3	314.740	-0.370	-0.300	-1.340
2020/01/31 08:08:33.4	314.750	-0.370	-0.280	-1.310
2020/01/31 08:08:33.5	314.770	-0.370	-0.250	-1.270
2020/01/31 08:08:33.6	314.780	-0.370	-0.230	-1.240
2020/01/31 08:08:33.7	314.790	-0.360	-0.200	-1.200
2020/01/31 08:08:33.8	314.800	-0.360	-0.180	-1.150
2020/01/31 08:08:33.9	314.810	-0.360	-0.150	-1.100
2020/01/31 08:08:34.0	314.820	-0.350	-0.130	-1.060
2020/01/31 08:08:34.1	314.830	-0.350	-0.110	-1.000
2020/01/31 08:08:34.2	314.840	-0.340	-0.090	-0.950
2020/01/31 08:08:34.3	314.840	-0.330	-0.060	-0.890
2020/01/31 08:08:34.4	314.850	-0.320	-0.040	-0.840
2020/01/31 08:08:34.5	314.850	-0.310	-0.030	-0.780
2020/01/31 08:08:34.6	314.860	-0.300	-0.010	-0.720
2020/01/31 08:08:34.7	314.870	-0.290	0.010	-0.670
2020/01/31 08:08:34.8	314.870	-0.270	0.020	-0.610
2020/01/31 08:08:34.9	314.880	-0.260	0.030	-0.550
2020/01/31 08:08:35.0	314.880	-0.240	0.040	-0.490
2020/01/31 08:08:35.1	314.890	-0.220	0.050	-0.430
2020/01/31 08:08:35.2	314.890	-0.200	0.050	-0.370
2020/01/31 08:08:35.3	314.900	-0.180	0.060	-0.320
2020/01/31 08:08:35.4	314.910	-0.160	0.060	-0.260
2020/01/31 08:08:35.5	314.910	-0.140	0.060	-0.200
2020/01/31 08:08:35.6	314.910	-0.110	0.060	-0.140
2020/01/31 08:08:35.7	314.920	-0.090	0.060	-0.090
2020/01/31 08:08:35.8	314.920	-0.060	0.060	-0.030
2020/01/31 08:08:35.9	314.920	-0.030	0.050	0.030
2020/01/31 08:08:36.0	314.910	-0.000	0.050	0.080
2020/01/31 08:08:36.1	314.910	0.030	0.050	0.140
2020/01/31 08:08:36.2	314.900	0.060	0.040	0.200
2020/01/31 08:08:36.3	314.900	0.090	0.040	0.250
2020/01/31 08:08:36.4	314.890	0.120	0.040	0.310
2020/01/31 08:08:36.5	314.880	0.150	0.030	0.360
2020/01/31 08:08:36.6	314.860	0.180	0.030	0.420
2020/01/31 08:08:36.7	314.850	0.210	0.030	0.470
2020/01/31 08:08:36.8	314.830	0.240	0.030	0.530
2020/01/31 08:08:36.9	314.810	0.270	0.030	0.580
2020/01/31 08:08:37.0	314.790	0.300	0.030	0.630
2020/01/31 08:08:37.1	314.770	0.320	0.030	0.680
2020/01/31 08:08:37.2	314.740	0.350	0.030	0.730
2020/01/31 08:08:37.3	314.720	0.370	0.030	0.770
2020/01/31 08:08:37.4	314.700	0.400	0.030	0.820
2020/01/31 08:08:37.5	314.670	0.420	0.030	0.860
2020/01/31 08:08:37.6	314.640	0.440	0.030	0.890
2020/01/31 08:08:37.7	314.610	0.460	0.040	0.930
2020/01/31 08:08:37.8	314.590	0.480	0.040	0.960
2020/01/31 08:08:37.9	314.560	0.490	0.030	0.980
2020/01/31 08:08:38.0	314.530	0.500	0.030	1.000
2020/01/31 08:08:38.1	314.510	0.520	0.030	1.010
2020/01/31 08:08:38.2	314.490	0.530	0.020	1.010
2020/01/31 08:08:38.3	314.460	0.540	0.010	1.010
2020/01/31 08:08:38.4	314.440	0.540	-0.000	1.010
2020/01/31 08:08:38.5	314.420	0.550	-0.020	0.990
2020/01/31 08:08:38.6	314.410	0.550	-0.030	0.970
2020/01/31 08:08:38.7	314.390	0.550	-0.050	0.950
2020/01/31 08:08:38.8	314.380	0.550	-0.070	0.910
2020/01/31 08:08:38.9	314.370	0.550	-0.100	0.880
2020/01/31 08:08:39.0	314.360	0.550	-0.120	0.840
2020/01/31 08:08:39.1	314.350	0.540	-0.150	0.790
2020/01/31 08:08:39.2	314.340	0.530	-0.180	0.750
2020/01/31 08:08:39.3	314.340	0.520	-0.200	0.690
2020/01/31 08:08:39.4	314.330	0.510	-0.230	0.640
2020/01/31 08:08:39.5	314.320	0.500	-0.260	0.580
2020/01/31 08:08:39.6	314.320	0.480	-0.280	0.520
2020/01/31 08:08:39.7	314.310	0.470	-0.310	0.460
2020/01/31 08:08:39.8	314.310	0.450	-0.330	0.400
2020/01/31 08:08:39.9	314.310	0.430	-0.360	0.340
2020/01/31 08:08:40.0	314.300	0.410	-0.380	0.280
2020/01/31 08:08:40.1	314.300	0.380	-0.400	0.220
2020/01/31 08:08:40.2	314.300	0.360	-0.410	0.150
2020/01/31 08:08:40.3	314.290	0.330	-0.430	0.090
2020/01/31 08:08:40.4	314.290	0.310	-0.450	0.030
2020/01/31 08:08:40.5	314.290	0.280	-0.460	-0.040
2020/01/31 08:08:40.6	314.290	0.250	-0.470	-0.100
2020/01/31 08:08:40.7	314.290	0.220	-0.480	-0.170
2020/01/31 08:08:40.8	314.300	0.190	-0.490	-0.230
2020/01/31 08:08:40.9	314.300	0.160	-0.490	-0.300
2020/01/31 08:08:41.0	314.310	0.130	-0.500	-0.370
2020/01/31 08:08:41.1	314.310	0.100	-0.510	-0.430
2020/01/31 08:08:41.2	314.320	0.080	-0.510	-0.500
2020/01/31 08:08:41.3	314.340	0.050	-0.510	-0.560
2020/01/31 08:08:41.4	314.350	0.020	-0.520	-0.630
2020/01/31 08:08:41.5	314.360	-0.010	-0.520	-0.690
2020/01/31 08:08:41.6	314.370	-0.040	-0.520	-0.760
2020/01/31 08:08:41.7	314.380	-0.060	-0.520	-0.820
2020/01/31 08:08:41.8	314.390	-0.090	-0.520	-0.880
2020/01/31 08:08:41.9	314.400	-0.110	-0.520	-0.940
2020/01/31 08:08:42.0	314.420	-0.130	-0.520	-1.000
2020/01/31 08:08:42.1	314.430	-0.150	-0.520	-1.050
2020/01/31 08:08:42.2	314.440	-0.170	-0.520	-1.100
2020/01/31 08:08:42.3	314.450	-0.190	-0.520	-1.160
2020/01/31 08:08:42.4	314.460	-0.210	-0.520	-1.200
2020/01/31 08:08:42.5	314.480	-0.230	-0.510	-1.250
2020/01/31 08:08:42.6	314.490	-0.240	-0.510	-1.290
2020/01/31 08:08:42.7	314.510	-0.250	-0.510	-1.330
2020/01/31 08:08:42.8	314.520	-0.270	-0.500	-1.370
2020/01/31 08:08:42.9	314.540	-0.280	-0.490	-1.400
2020/01/31 08:08:43.0	314.560	-0.290	-0.490	-1.440
2020/01/31 08:08:43.1	314.570	-0.300	-0.480	-1.460
2020/01/31 08:08:43.2	314.590	-0.310	-0.470	-1.490
2020/01/31 08:08:43.3	314.610	-0.320	-0.460	-1.510
2020/01/31 08:08:43.4	314.630	-0.330	-0.450	-1.530
2020/01/31 08:08:43.5	314.640	-0.340	-0.440	-1.540
2020/01/31 08:08:43.6	314.660	-0.350	-0.430	-1.550
2020/01/31 08:08:43.7	314.680	-0.360	-0.420	-1.560
2020/01/31 08:08:43.8	314.690	-0.360	-0.410	-1.560
2020/01/31 08:08:43.9	314.710	-0.370	-0.400	-1.560
2020/01/31 08:08:44.0	314.720	-0.380	-0.390	-1.550
2020/01/31 08:08:44.1	314.740	-0.380	-0.380	-1.540
2020/01/31 08:08:44.2	314.750	-0.390	-0.360	-1.530
2020/01/31 08:08:44.3	314.750	-0.390	-0.350	-1.510
2020/01/31 08:08:44.4	314.760	-0.400	-0.340	-1.490
2020/01/31 08:08:44.5	314.770	-0.400	-0.330	-1.460
2020/01/31 08:08:44.6	314.780	-0.410	-0.320	-1.440
2020/01/31 08:08:44.7	314.790	-0.410	-0.300	-1.400
2020/01/31 08:08:44.8	314.790	-0.410	-0.290	-1.370
2020/01/31 08:08:44.9	314.800	-0.420	-0.280	-1.330
2020/01/31 08:08:45.0	314.800	-0.420	-0.260	-1.290
2020/01/31 08:08:45.1	314.800	-0.420	-0.250	-1.240
2020/01/31 08:08:45.2	314.800	-0.420	-0.240	-1.200
2020/01/31 08:08:45.3	314.800	-0.410	-0.220	-1.150
2020/01/31 08:08:45.4	314.790	-0.410	-0.210	-1.100
2020/01/31 08:08:45.5	314.790	-0.410	-0.190	-1.040
2020/01/31 08:08:45.6	314.790	-0.400	-0.180	-0.990
2020/01/31 08:08:45.7	314.780	-0.400	-0.170	-0.930
2020/01/31 08:08:45.8	314.780	-0.390	-0.150	-0.870
2020/01/31 08:08:45.9	314.770	-0.380	-0.140	-0.820
2020/01/31 08:08:46.0	314.770	-0.370	-0.130	-0.760
2020/01/31 08:08:46.1	314.770	-0.360	-0.120	-0.700
2020/01/31 08:08:46.2	314.760	-0.350	-0.110	-0.640
2020/01/31 08:08:46.3	314.760	-0.330	-0.100	-0.580
2020/01/31 08:08:46.4	314.760	-0.320	-0.090	-0.530
2020/01/31 08:08:46.5	314.760	-0.300	-0.080	-0.470
2020/01/31 08:08:46.6	314.760	-0.280	-0.080	-0.420
2020/01/31 08:08:46.7	314.760	-0.270	-0.070	-0.360
2020/01/31 08:08:46.8	314.760	-0.250	-0.070	-0.310
2020/01/31 08:08:46.9	314.760	-0.230	-0.070	-0.260
2020/01/31 08:08:47.0	314.760	-0.210	-0.070	-0.210
2020/01/31 08:08:47.1	314.760	-0.190	-0.070	-0.160
2020/01/31 08:08:47.2	314.760	-0.170	-0.070	-0.120
2020/01/31 08:08:47.3	314.770	-0.140	-0.060	-0.070
2020/01/31 08:08:47.4	314.770	-0.120	-0.060	-0.020
2020/01/31 08:08:47.5	314.770	-0.100	-0.060	0.020
2020/01/31 08:08:47.6	314.770	-0.080	-0.060	0.060
2020/01/31 08:08:47.7	314.770	-0.050	-0.060	0.100
2020/01/31 08:08:47.8	314.780	-0.030	-0.060	0.140
2020/01/31 08:08:47.9	314.780	-0.000	-0.050	0.180
2020/01/31 08:08:48.0	314.780	0.020	-0.050	0.210
2020/01/31 08:08:48.1	314.780	0.040	-0.040	0.250
2020/01/31 08:08:48.2	314.770	0.070	-0.040	0.280
2020/01/31 08:08:48.3	314.780	0.090	-0.030	0.310
2020/01/31 08:08:48.4	314.780	0.110	-0.020	0.340
2020/01/31 08:08:48.5	314.780	0.140	-0.010	0.370
2020/01/31 08:08:48.6	314.770	0.160	0.000	0.400
2020/01/31 08:08:48.7	314.770	0.180	0.020	0.430
2020/01/31 08:08:48.8	314.760	0.200	0.030	0.450
2020/01/31 08:08:48.9	314.750	0.220	0.050	0.480
2020/01/31 08:08:49.0	314.740	0.240	0.070	0.500
2020/01/31 08:08:49.1	314.730	0.260	0.080	0.520
2020/01/31 08:08:49.2	314.720	0.280	0.100	0.540
2020/01/31 08:08:49.3	314.710	0.290	0.120	0.560
2020/01/31 08:08:49.4	314.700	0.310	0.130	0.580
2020/01/31 08:08:49.5	314.680	0.320	0.150	0.590
2020/01/31 08:08:49.6	314.670	0.330	0.160	0.600
2020/01/31 08:08:49.7	314.650	0.340	0.170	0.600
2020/01/31 08:08:49.8	314.640	0.350	0.180	0.610
2020/01/31 08:08:49.9	314.620	0.360	0.180	0.600
2020/01/31 08:08:50.0	314.610	0.360	0.180	0.600
2020/01/31 08:08:50.1	314.590	0.370	0.180	0.590
2020/01/31 08:08:50.2	314.580	0.370	0.170	0.580
2020/01/31 08:08:50.3	314.560	0.370	0.160	0.560
2020/01/31 08:08:50.4	314.550	0.370	0.150	0.540
2020/01/31 08:08:50.5	314.540	0.370	0.130	0.510
2020/01/31 08:08:50.6	314.530	0.370	0.110	0.480
2020/01/31 08:08:50.7	314.530	0.370	0.080	0.450
2020/01/31 08:08:50.8	314.520	0.360	0.050	0.410
2020/01/31 08:08:50.9	314.510	0.360	0.020	0.370
2020/01/31 08:08:51.0	314.510	0.350	-0.020	0.330
2020/01/31 08:08:51.1	314.510	0.340	-0.060	0.280
2020/01/31 08:08:51.2	314.500	0.330	-0.100	0.230
2020/01/31 08:08:51.3	314.500	0.320	-0.150	0.180
2020/01/31 08:08:51.4	314.500	0.310	-0.190	0.120
2020/01/31 08:08:51.5	314.500	0.300	-0.240	0.070
2020/01/31 08:08:51.6	314.510	0.290	-0.280	0.010
2020/01/31 08:08:51.7	314.510	0.270	-0.330	-0.050
2020/01/31 08:08:51.8	314.510	0.260	-0.370	-0.110
2020/01/31 08:08:51.9	314.510	0.240	-0.420	-0.170
2020/01/31 08:08:52.0	314.510	0.230	-0.460	-0.230
2020/01/31 08:08:52.1	314.510	0.210	-0.500	-0.290
2020/01/31 08:08:52.2	314.510	0.190	-0.530	-0.350
2020/01/31 08:08:52.3	314.510	0.170	-0.570	-0.410
2020/01/31 08:08:52.4	314.510	0.150	-0.600	-0.470
2020/01/31 08:08:52.5	314.510	0.130	-0.630	-0.530
2020/01/31 08:08:52.6	314.520	0.110	-0.650	-0.590
2020/01/31 08:08:52.7	314.520	0.090	-0.670	-0.640
2020/01/31 08:08:52.8	314.520	0.070	-0.690	-0.700
2020/01/31 08:08:52.9	314.520	0.050	-0.700	-0.750
2020/01/31 08:08:53.0	314.530	0.030	-0.710	-0.810
2020/01/31 08:08:53.1	314.530	0.010	-0.720	-0.860
2020/01/31 08:08:53.2	314.540	-0.010	-0.720	-0.910
2020/01/31 08:08:53.3	314.550	-0.040	-0.720	-0.960
2020/01/31 08:08:53.4	314.560	-0.060	-0.720	-1.000
2020/01/31 08:08:53.5	314.570	-0.080	-0.710	-1.050
2020/01/31 08:08:53.6	314.570	-0.100	-0.700	-1.090
2020/01/31 08:08:53.7	314.580	-0.120	-0.680	-1.120
2020/01/31 08:08:53.8	314.590	-0.140	-0.670	-1.160
2020/01/31 08:08:53.9	314.600	-0.160	-0.650	-1.190
2020/01/31 08:08:54.0	314.610	-0.180	-0.630	-1.220
2020/01/31 08:08:54.1	314.620	-0.200	-0.600	-1.240
2020/01/31 08:08:54.2	314.620	-0.210	-0.580	-1.260
2020/01/31 08:08:54.3	314.630	-0.230	-0.550	-1.270
2020/01/31 08:08:54.4	314.630	-0.250	-0.520	-1.290
2020/01/31 08:08:54.5	314.630	-0.260	-0.490	-1.290
2020/01/31 08:08:54.6	314.630	-0.270	-0.460	-1.290
2020/01/31 08:08:54.7	314.630	-0.280	-0.430	-1.290
2020/01/31 08:08:54.8	314.630	-0.290	-0.410	-1.280
2020/01/31 08:08:54.9	314.620	-0.300	-0.380	-1.260
2020/01/31 08:08:55.0	314.620	-0.310	-0.350	-1.240
2020/01/31 08:08:55.1	314.610	-0.310	-0.330	-1.220
2020/01/31 08:08:55.2	314.600	-0.320	-0.310	-1.190
2020/01/31 08:08:55.3	314.580	-0.320	-0.290	-1.160
2020/01/31 08:08:55.4	314.570	-0.320	-0.270	-1.120
2020/01/31 08:08:55.5	314.560	-0.320	-0.250	-1.080
2020/01/31 08:08:55.6	314.540	-0.310	-0.240	-1.050
2020/01/31 08:08:55.7	314.530	-0.310	-0.230	-1.010
2020/01/31 08:08:55.8	314.510	-0.300	-0.230	-0.960
2020/01/31 08:08:55.9	314.490	-0.290	-0.230	-0.920
2020/01/31 08:08:56.0	314.480	-0.280	-0.230	-0.880
2020/01/31 08:08:56.1	314.460	-0.260	-0.230	-0.830
2020/01/31 08:08:56.2	314.450	-0.250	-0.240	-0.790
2020/01/31 08:08:56.3	314.440	-0.230	-0.240	-0.750
2020/01/31 08:08:56.4	314.430	-0.210	-0.260	-0.710
2020/01/31 08:08:56.5	314.420	-0.180	-0.270	-0.670
2020/01/31 08:08:56.6	314.410	-0.160	-0.290	-0.630
2020/01/31 08:08:56.7	314.410	-0.140	-0.310	-0.590
2020/01/31 08:08:56.8	314.400	-0.110	-0.330	-0.550
2020/01/31 08:08:56.9	314.400	-0.080	-0.350	-0.510
2020/01/31 08:08:57.0	314.400	-0.050	-0.370	-0.480
2020/01/31 08:08:57.1	314.400	-0.020	-0.400	-0.450
2020/01/31 08:08:57.2	314.400	0.010	-0.420	-0.410
2020/01/31 08:08:57.3	314.420	0.040	-0.440	-0.380
2020/01/31 08:08:57.4	314.420	0.070	-0.460	-0.350
2020/01/31 08:08:57.5	314.430	0.100	-0.490	-0.320
2020/01/31 08:08:57.6	314.430	0.130	-0.500	-0.290
2020/01/31 08:08:57.7	314.440	0.160	-0.520	-0.260
2020/01/31 08:08:57.8	314.450	0.180	-0.530	-0.230
2020/01/31 08:08:57.9	314.460	0.210	-0.540	-0.210
2020/01/31 08:08:58.0	314.460	0.230	-0.550	-0.180
2020/01/31 08:08:58.1	314.470	0.260	-0.550	-0.160
2020/01/31 08:08:58.2	314.480	0.280	-0.550	-0.140
2020/01/31 08:08:58.3	314.500	0.290	-0.550	-0.120
2020/01/31 08:08:58.4	314.510	0.310	-0.540	-0.100
2020/01/31 08:08:58.5	314.530	0.320	-0.530	-0.080
2020/01/31 08:08:58.6	314.540	0.330	-0.510	-0.070
2020/01/31 08:08:58.7	314.550	0.340	-0.500	-0.060
2020/01/31 08:08:58.8	314.570	0.350	-0.470	-0.050
2020/01/31 08:08:58.9	314.580	0.350	-0.450	-0.040
2020/01/31 08:08:59.0	314.600	0.350	-0.420	-0.030
2020/01/31 08:08:59.1	314.610	0.350	-0.380	-0.030
2020/01/31 08:08:59.2	314.620	0.340	-0.350	-0.030
2020/01/31 08:08:59.3	314.640	0.330	-0.310	-0.020
2020/01/31 08:08:59.4	314.660	0.320	-0.270	-0.020
2020/01/31 08:08:59.5	314.670	0.310	-0.230	-0.020
2020/01/31 08:08:59.6	314.680	0.290	-0.190	-0.030
2020/01/31 08:08:59.7	314.700	0.270	-0.140	-0.030
2020/01/31 08:08:59.8	314.710	0.250	-0.090	-0.030
2020/01/31 08:08:59.9	314.720	0.220	-0.050	-0.030
2020/01/31 08:09:00.0	314.730	0.200	-0.000	-0.030
2020/01/31 08:09:00.1	314.750	0.170	0.040	-0.040
2020/01/31 08:09:00.2	314.760	0.140	0.090	-0.040
2020/01/31 08:09:00.3	314.780	0.110	0.130	-0.050
2020/01/31 08:09:00.4	314.790	0.080	0.180	-0.050
2020/01/31 08:09:00.5	314.800	0.050	0.220	-0.060
2020/01/31 08:09:00.6	314.800	0.010	0.250	-0.060
2020/01/31 08:09:00.7	314.810	-0.020	0.290	-0.070
2020/01/31 08:09:00.8	314.820	-0.050	0.320	-0.080
2020/01/31 08:09:00.9	314.820	-0.090	0.350	-0.080
2020/01/31 08:09:01.0	314.830	-0.120	0.370	-0.090
2020/01/31 08:09:01.1	314.830	-0.150	0.400	-0.100
2020/01/31 08:09:01.2	314.830	-0.180	0.420	-0.110
2020/01/31 08:09:01.3	314.850	-0.210	0.430	-0.120
2020/01/31 08:09:01.4	314.850	-0.240	0.440	-0.130
2020/01/31 08:09:01.5	314.840	-0.270	0.450	-0.140
2020/01/31 08:09:01.6	314.840	-0.300	0.460	-0.150
2020/01/31 08:09:01.7	314.830	-0.320	0.460	-0.160
2020/01/31 08:09:01.8	314.820	-0.340	0.460	-0.170
2020/01/31 08:09:01.9	314.810	-0.360	0.460	-0.170
2020/01/31 08:09:02.0	314.790	-0.380	0.450	-0.180
2020/01/31 08:09:02.1	314.780	-0.390	0.450	-0.190
2020/01/31 08:09:02.2	314.760	-0.410	0.440	-0.190
2020/01/31 08:09:02.3	314.740	-0.420	0.420	-0.200
2020/01/31 08:09:02.4	314.720	-0.430	0.410	-0.210
2020/01/31 08:09:02.5	314.690	-0.430	0.390	-0.210
2020/01/31 08:09:02.6	314.670	-0.430	0.370	-0.220
2020/01/31 08:09:02.7	314.640	-0.430	0.340	-0.220
2020/01/31 08:09:02.8	314.610	-0.430	0.320	-0.230
2020/01/31 08:09:02.9	314.590	-0.430	0.290	-0.230
2020/01/31 08:09:03.0	314.560	-0.420	0.250	-0.240
2020/01/31 08:09:03.1	314.530	-0.420	0.220	-0.240
2020/01/31 08:09:03.2	314.500	-0.400	0.180	-0.250
2020/01/31 08:09:03.3	314.470	-0.390	0.150	-0.250
2020/01/31 08:09:03.4	314.450	-0.380	0.110	-0.260
2020/01/31 08:09:03.5	314.420	-0.360	0.060	-0.270
2020/01/31 08:09:03.6	314.400	-0.350	0.020	-0.280
2020/01/31 08:09:03.7	314.380	-0.330	-0.030	-0.290
2020/01/31 08:09:03.8	314.360	-0.310	-0.070	-0.300
2020/01/31 08:09:03.9	314.340	-0.290	-0.120	-0.300
2020/01/31 08:09:04.0	314.320	-0.260	-0.170	-0.310
2020/01/31 08:09:04.1	314.310	-0.240	-0.220	-0.320
2020/01/31 08:09:04.2	314.290	-0.220	-0.260	-0.330
2020/01/31 08:09:04.3	314.280	-0.200	-0.310	-0.350
2020/01/31 08:09:04.4	314.270	-0.170	-0.360	-0.350
2020/01/31 08:09:04.5	314.260	-0.150	-0.400	-0.360
2020/01/31 08:09:04.6	314.250	-0.120	-0.450	-0.370
2020/01/31 08:09:04.7	314.230	-0.100	-0.490	-0.380
2020/01/31 08:09:04.8	314.220	-0.080	-0.530	-0.390
2020/01/31 08:09:04.9	314.210	-0.060	-0.570	-0.390
2020/01/31 08:09:05.0	314.200	-0.040	-0.610	-0.400
2020/01/31 08:09:05.1	314.200	-0.020	-0.640	-0.400
2020/01/31 08:09:05.2	314.190	0.000	-0.680	-0.410
2020/01/31 08:09:05.3	314.180	0.020	-0.710	-0.410
2020/01/31 08:09:05.4	314.170	0.040	-0.730	-0.410
2020/01/31 08:09:05.5	314.170	0.060	-0.750	-0.410
2020/01/31 08:09:05.6	314.160	0.080	-0.770	-0.410
2020/01/31 08:09:05.7	314.160	0.090	-0.790	-0.410
2020/01/31 08:09:05.8	314.160	0.110	-0.800	-0.410
2020/01/31 08:09:05.9	314.160	0.120	-0.810	-0.400
2020/01/31 08:09:06.0	314.150	0.140	-0.810	-0.400
2020/01/31 08:09:06.1	314.160	0.150	-0.810	-0.390
2020/01/31 08:09:06.2	314.160	0.160	-0.810	-0.380
2020/01/31 08:09:06.3	314.150	0.180	-0.810	-0.370
2020/01/31 08:09:06.4	314.150	0.190	-0.800	-0.360
2020/01/31 08:09:06.5	314.160	0.200	-0.790	-0.340
2020/01/31 08:09:06.6	314.160	0.210	-0.770	-0.320
2020/01/31 08:09:06.7	314.170	0.220	-0.760	-0.300
2020/01/31 08:09:06.8	314.170	0.230	-0.740	-0.280
2020/01/31 08:09:06.9	314.180	0.240	-0.720	-0.260
2020/01/31 08:09:07.0	314.190	0.250	-0.690	-0.240
2020/01/31 08:09:07.1	314.200	0.270	-0.670	-0.210
2020/01/31 08:09:07.2	314.210	0.280	-0.640	-0.190
2020/01/31 08:09:07.3	314.220	0.290	-0.620	-0.160
2020/01/31 08:09:07.4	314.230	0.300	-0.590	-0.140
2020/01/31 08:09:07.5	314.240	0.310	-0.570	-0.110
2020/01/31 08:09:07.6	314.260	0.320	-0.540	-0.090
2020/01/31 08:09:07.7	314.270	0.330	-0.510	-0.070
2020/01/31 08:09:07.8	314.290	0.330	-0.490	-0.040
2020/01/31 08:09:07.9	314.300	0.340	-0.470	-0.020
2020/01/31 08:09:08.0	314.320	0.350	-0.450	-0.010
2020/01/31 08:09:08.1	314.330	0.360	-0.430	0.010
2020/01/31 08:09:08.2	314.350	0.360	-0.410	0.030
2020/01/31 08:09:08.3	314.370	0.370	-0.390	0.040
2020/01/31 08:09:08.4	314.390	0.370	-0.380	0.060
2020/01/31 08:09:08.5	314.400	0.370	-0.360	0.060
2020/01/31 08:09:08.6	314.420	0.380	-0.350	0.070
2020/01/31 08:09:08.7	314.440	0.380	-0.340	0.080
2020/01/31 08:09:08.8	314.460	0.380	-0.330	0.080
2020/01/31 08:09:08.9	314.470	0.370	-0.320	0.080
2020/01/31 08:09:09.0	314.490	0.370	-0.310	0.080
2020/01/31 08:09:09.1	314.510	0.360	-0.310	0.070
2020/01/31 08:09:09.2	314.530	0.350	-0.300	0.070
2020/01/31 08:09:09.3	314.540	0.350	-0.300	0.060
2020/01/31 08:09:09.4	314.560	0.340	-0.290	0.060
2020/01/31 08:09:09.5	314.580	0.320	-0.290	0.050
2020/01/31 08:09:09.6	314.590	0.310	-0.280	0.040
2020/01/31 08:09:09.7	314.610	0.290	-0.280	0.020
2020/01/31 08:09:09.8	314.620	0.280	-0.270	0.010
2020/01/31 08:09:09.9	314.640	0.260	-0.260	-0.000
2020/01/31 08:09:10.0	314.650	0.240	-0.260	-0.020
2020/01/31 08:09:10.1	314.660	0.220	-0.250	-0.030
2020/01/31 08:09:10.2	314.670	0.200	-0.240	-0.050
2020/01/31 08:09:10.3	314.680	0.180	-0.230	-0.060
2020/01/31 08:09:10.4	314.690	0.150	-0.220	-0.080
2020/01/31 08:09:10.5	314.690	0.130	-0.210	-0.090
2020/01/31 08:09:10.6	314.700	0.100	-0.190	-0.110
2020/01/31 08:09:10.7	314.700	0.080	-0.180	-0.130
2020/01/31 08:09:10.8	314.710	0.050	-0.170	-0.140
2020/01/31 08:09:10.9	314.710	0.020	-0.150	-0.160
2020/01/31 08:09:11.0	314.710	-0.000	-0.140	-0.180
2020/01/31 08:09:11.1	314.710	-0.030	-0.120	-0.190
2020/01/31 08:09:11.2	314.700	-0.060	-0.100	-0.210
2020/01/31 08:09:11.3	314.700	-0.080	-0.090	-0.220
2020/01/31 08:09:11.4	314.690	-0.110	-0.070	-0.240
2020/01/31 08:09:11.5	314.690	-0.130	-0.050	-0.250
2020/01/31 08:09:11.6	314.680	-0.160	-0.040	-0.270
2020/01/31 08:09:11.7	314.670	-0.180	-0.030	-0.280
2020/01/31 08:09:11.8	314.670	-0.200	-0.010	-0.290
2020/01/31 08:09:11.9	314.660	-0.220	-0.000	-0.300
2020/01/31 08:09:12.0	314.650	-0.240	0.010	-0.310
2020/01/31 08:09:12.1	314.640	-0.260	0.020	-0.320
2020/01/31 08:09:12.2	314.640	-0.280	0.030	-0.330
2020/01/31 08:09:12.3	314.620	-0.290	0.030	-0.340
2020/01/31 08:09:12.4	314.610	-0.300	0.040	-0.350
2020/01/31 08:09:12.5	314.610	-0.320	0.040	-0.360
2020/01/31 08:09:12.6	314.600	-0.320	0.040	-0.360
2020/01/31 08:09:12.7	314.590	-0.330	0.040	-0.370
2020/01/31 08:09:12.8	314.590	-0.340	0.030	-0.380
2020/01/31 08:09:12.9	314.580	-0.340	0.020	-0.390
2020/01/31 08:09:13.0	314.580	-0.350	0.020	-0.390
2020/01/31 08:09:13.1	314.570	-0.350	0.010	-0.400
2020/01/31 08:09:13.2	314.570	-0.350	-0.010	-0.400
2020/01/31 08:09:13.3	314.570	-0.340	-0.010	-0.410
2020/01/31 08:09:13.4	314.570	-0.340	-0.030	-0.410
2020/01/31 08:09:13.5	314.560	-0.340	-0.040	-0.420
2020/01/31 08:09:13.6	314.550	-0.330	-0.060	-0.420
2020/01/31 08:09:13.7	314.550	-0.330	-0.070	-0.420
2020/01/31 08:09:13.8	314.540	-0.320	-0.090	-0.420
2020/01/31 08:09:13.9	314.530	-0.310	-0.100	-0.420
2020/01/31 08:09:14.0	314.520	-0.300	-0.110	-0.410
2020/01/31 08:09:14.1	314.510	-0.290	-0.130	-0.410
2020/01/31 08:09:14.2	314.490	-0.280	-0.140	-0.400
2020/01/31 08:09:14.3	314.490	-0.260	-0.150	-0.390
2020/01/31 08:09:14.4	314.470	-0.250	-0.160	-0.380
2020/01/31 08:09:14.5	314.450	-0.240	-0.170	-0.360
2020/01/31 08:09:14.6	314.430	-0.220	-0.170	-0.350
2020/01/31 08:09:14.7	314.420	-0.210	-0.180	-0.330
2020/01/31 08:09:14.8	314.390	-0.190	-0.180	-0.310
2020/01/31 08:09:14.9	314.370	-0.180	-0.180	-0.290
2020/01/31 08:09:15.0	314.350	-0.160	-0.190	-0.270
2020/01/31 08:09:15.1	314.330	-0.140	-0.190	-0.250
2020/01/31 08:09:15.2	314.310	-0.130	-0.190	-0.240
2020/01/31 08:09:15.3	314.280	-0.110	-0.190	-0.210
2020/01/31 08:09:15.4	314.260	-0.090	-0.190	-0.200
2020/01/31 08:09:15.5	314.240	-0.070	-0.190	-0.180
2020/01/31 08:09:15.6	314.220	-0.060	-0.190	-0.170
2020/01/31 08:09:15.7	314.200	-0.040	-0.190	-0.150
2020/01/31 08:09:15.8	314.190	-0.020	-0.190	-0.140
2020/01/31 08:09:15.9	314.180	-0.000	-0.190	-0.130
2020/01/31 08:09:16.0	314.160	0.020	-0.190	-0.130
2020/01/31 08:09:16.1	314.150	0.030	-0.190	-0.120
2020/01/31 08:09:16.2	314.150	0.050	-0.190	-0.120
2020/01/31 08:09:16.3	314.130	0.070	-0.190	-0.120
2020/01/31 08:09:16.4	314.120	0.090	-0.200	-0.110
2020/01/31 08:09:16.5	314.120	0.110	-0.200	-0.110
2020/01/31 08:09:16.6	314.120	0.130	-0.200	-0.110
2020/01/31 08:09:16.7	314.120	0.140	-0.210	-0.110
2020/01/31 08:09:16.8	314.110	0.160	-0.210	-0.110
2020/01/31 08:09:16.9	314.110	0.180	-0.210	-0.110
2020/01/31 08:09:17.0	314.110	0.190	-0.210	-0.100
2020/01/31 08:09:17.1	314.110	0.210	-0.220	-0.100
2020/01/31 08:09:17.2	314.110	0.220	-0.220	-0.100
2020/01/31 08:09:17.3	314.110	0.240	-0.220	-0.090
2020/01/31 08:09:17.4	314.110	0.250	-0.210	-0.080
2020/01/31 08:09:17.5	314.100	0.260	-0.210	-0.080
2020/01/31 08:09:17.6	314.100	0.270	-0.210	-0.070
2020/01/31 08:09:17.7	314.100	0.280	-0.200	-0.060
2020/01/31 08:09:17.8	314.100	0.280	-0.200	-0.050
2020/01/31 08:09:17.9	314.100	0.290	-0.190	-0.040
2020/01/31 08:09:18.0	314.100	0.290	-0.180	-0.030
2020/01/31 08:09:18.1	314.100	0.290	-0.180	-0.020
2020/01/31 08:09:18.2	314.090	0.290	-0.170	-0.010
2020/01/31 08:09:18.3	314.080	0.290	-0.160	0.010
2020/01/31 08:09:18.4	314.080	0.290	-0.160	0.020
2020/01/31 08:09:18.5	314.070	0.280	-0.150	0.030
2020/01/31 08:09:18.6	314.070	0.270	-0.150	0.040
2020/01/31 08:09:18.7	314.070	0.260	-0.150	0.050
2020/01/31 08:09:18.8	314.060	0.250	-0.150	0.050
2020/01/31 08:09:18.9	314.060	0.240	-0.150	0.060
2020/01/31 08:09:19.0	314.060	0.220	-0.160	0.060
2020/01/31 08:09:19.1	314.050	0.210	-0.160	0.060
2020/01/31 08:09:19.2	314.050	0.190	-0.170	0.060
2020/01/31 08:09:19.3	314.050	0.170	-0.180	0.050
2020/01/31 08:09:19.4	314.050	0.150	-0.200	0.040
2020/01/31 08:09:19.5	314.060	0.130	-0.210	0.030
2020/01/31 08:09:19.6	314.060	0.110	-0.230	0.020
2020/01/31 08:09:19.7	314.070	0.090	-0.250	-0.000
2020/01/31 08:09:19.8	314.080	0.070	-0.270	-0.020
2020/01/31 08:09:19.9	314.090	0.050	-0.290	-0.040
2020/01/31 08:09:20.0	314.100	0.030	-0.310	-0.070
2020/01/31 08:09:20.1	314.110	0.010	-0.340	-0.090
2020/01/31 08:09:20.2	314.120	-0.010	-0.360	-0.120
2020/01/31 08:09:20.3	314.140	-0.030	-0.390	-0.140
2020/01/31 08:09:20.4	314.160	-0.050	-0.410	-0.170
2020/01/31 08:09:20.5	314.170	-0.060	-0.430	-0.200
2020/01/31 08:09:20.6	314.190	-0.080	-0.460	-0.230
2020/01/31 08:09:20.7	314.210	-0.100	-0.480	-0.250
2020/01/31 08:09:20.8	314.230	-0.120	-0.500	-0.280
2020/01/31 08:09:20.9	314.250	-0.130	-0.520	-0.300
2020/01/31 08:09:21.0	314.270	-0.150	-0.530	-0.330
2020/01/31 08:09:21.1	314.290	-0.160	-0.550	-0.350
2020/01/31 08:09:21.2	314.310	-0.180	-0.560	-0.380
2020/01/31 08:09:21.3	314.330	-0.190	-0.570	-0.400
2020/01/31 08:09:21.4	314.360	-0.200	-0.580	-0.420
2020/01/31 08:09:21.5	314.380	-0.210	-0.580	-0.440
2020/01/31 08:09:21.6	314.400	-0.220	-0.580	-0.460
2020/01/31 08:09:21.7	314.430	-0.230	-0.580	-0.490
2020/01/31 08:09:21.8	314.450	-0.240	-0.580	-0.500
2020/01/31 08:09:21.9	314.480	-0.250	-0.580	-0.520
2020/01/31 08:09:22.0	314.500	-0.260	-0.570	-0.540
2020/01/31 08:09:22.1	314.520	-0.270	-0.560	-0.560
2020/01/31 08:09:22.2	314.550	-0.280	-0.550	-0.570
2020/01/31 08:09:22.3	314.560	-0.290	-0.540	-0.580
2020/01/31 08:09:22.4	314.580	-0.290	-0.520	-0.590
2020/01/31 08:09:22.5	314.600	-0.300	-0.510	-0.610
2020/01/31 08:09:22.6	314.620	-0.310	-0.490	-0.620
2020/01/31 08:09:22.7	314.640	-0.310	-0.470	-0.630
2020/01/31 08:09:22.8	314.660	-0.310	-0.460	-0.630
2020/01/31 08:09:22.9	314.680	-0.320	-0.440	-0.640
2020/01/31 08:09:23.0	314.700	-0.320	-0.420	-0.640
2020/01/31 08:09:23.1	314.710	-0.320	-0.400	-0.650
2020/01/31 08:09:23.2	314.720	-0.320	-0.370	-0.650
2020/01/31 08:09:23.3	314.730	-0.320	-0.350	-0.650
2020/01/31 08:09:23.4	314.740	-0.310	-0.330	-0.640
2020/01/31 08:09:23.5	314.750	-0.310	-0.300	-0.630
2020/01/31 08:09:23.6	314.750	-0.300	-0.280	-0.620
2020/01/31 08:09:23.7	314.760	-0.290	-0.250	-0.610
2020/01/31 08:09:23.8	314.760	-0.280	-0.220	-0.590
2020/01/31 08:09:23.9	314.760	-0.270	-0.200	-0.570
2020/01/31 08:09:24.0	314.760	-0.260	-0.170	-0.540
2020/01/31 08:09:24.1	314.750	-0.240	-0.140	-0.510
2020/01/31 08:09:24.2	314.740	-0.230	-0.110	-0.480
2020/01/31 08:09:24.3	314.740	-0.210	-0.090	-0.440
2020/01/31 08:09:24.4	314.730	-0.180	-0.060	-0.400
2020/01/31 08:09:24.5	314.710	-0.160	-0.030	-0.360
2020/01/31 08:09:24.6	314.700	-0.140	-0.010	-0.320
2020/01/31 08:09:24.7	314.680	-0.110	0.020	-0.270
2020/01/31 08:09:24.8	314.650	-0.080	0.040	-0.220
2020/01/31 08:09:24.9	314.630	-0.050	0.060	-0.170
2020/01/31 08:09:25.0	314.610	-0.020	0.080	-0.120
2020/01/31 08:09:25.1	314.580	0.010	0.100	-0.070
2020/01/31 08:09:25.2	314.550	0.040	0.120	-0.020
2020/01/31 08:09:25.3	314.510	0.070	0.130	0.040
2020/01/31 08:09:25.4	314.480	0.100	0.140	0.090
2020/01/31 08:09:25.5	314.450	0.130	0.150	0.140
2020/01/31 08:09:25.6	314.420	0.160	0.150	0.190
2020/01/31 08:09:25.7	314.390	0.200	0.150	0.230
2020/01/31 08:09:25.8	314.360	0.230	0.140	0.270
2020/01/31 08:09:25.9	314.330	0.260	0.140	0.310
2020/01/31 08:09:26.0	314.300	0.280	0.130	0.350
2020/01/31 08:09:26.1	314.270	0.310	0.110	0.380
2020/01/31 08:09:26.2	314.240	0.340	0.100	0.410
2020/01/31 08:09:26.3	314.210	0.360	0.080	0.440
2020/01/31 08:09:26.4	314.180	0.380	0.050	0.460
2020/01/31 08:09:26.5	314.150	0.400	0.030	0.470
2020/01/31 08:09:26.6	314.130	0.420	0.010	0.480
2020/01/31 08:09:26.7	314.100	0.430	-0.020	0.490
2020/01/31 08:09:26.8	314.070	0.440	-0.050	0.490
2020/01/31 08:09:26.9	314.050	0.460	-0.070	0.490
2020/01/31 08:09:27.0	314.020	0.460	-0.100	0.480
2020/01/31 08:09:27.1	314.000	0.470	-0.130	0.470
2020/01/31 08:09:27.2	313.970	0.470	-0.160	0.460
2020/01/31 08:09:27.3	313.950	0.480	-0.190	0.450
2020/01/31 08:09:27.4	313.930	0.470	-0.220	0.430
2020/01/31 08:09:27.5	313.900	0.470	-0.240	0.410
2020/01/31 08:09:27.6	313.880	0.470	-0.270	0.390
2020/01/31 08:09:27.7	313.860	0.460	-0.290	0.370
2020/01/31 08:09:27.8	313.840	0.460	-0.310	0.350
2020/01/31 08:09:27.9	313.820	0.450	-0.330	0.330
2020/01/31 08:09:28.0	313.800	0.440	-0.350	0.310
2020/01/31 08:09:28.1	313.790	0.430	-0.370	0.280
2020/01/31 08:09:28.2	313.770	0.410	-0.390	0.260
2020/01/31 08:09:28.3	313.760	0.400	-0.400	0.230
2020/01/31 08:09:28.4	313.750	0.390	-0.410	0.210
2020/01/31 08:09:28.5	313.740	0.370	-0.430	0.180
2020/01/31 08:09:28.6	313.730	0.360	-0.440	0.150
2020/01/31 08:09:28.7	313.720	0.340	-0.450	0.120
2020/01/31 08:09:28.8	313.710	0.320	-0.460	0.090
2020/01/31 08:09:28.9	313.700	0.310	-0.470	0.060
2020/01/31 08:09:29.0	313.700	0.290	-0.470	0.020
2020/01/31 08:09:29.1	313.690	0.270	-0.480	-0.010
2020/01/31 08:09:29.2	313.690	0.250	-0.490	-0.050
2020/01/31 08:09:29.3	313.700	0.240	-0.490	-0.080
2020/01/31 08:09:29.4	313.700	0.220	-0.500	-0.120
2020/01/31 08:09:29.5	313.710	0.200	-0.500	-0.160
2020/01/31 08:09:29.6	313.710	0.180	-0.510	-0.200
2020/01/31 08:09:29.7	313.720	0.160	-0.510	-0.240
2020/01/31 08:09:29.8	313.720	0.140	-0.520	-0.280
2020/01/31 08:09:29.9	313.730	0.120	-0.520	-0.320
2020/01/31 08:09:30.0	313.740	0.100	-0.520	-0.360
2020/01/31 08:09:30.1	313.760	0.080	-0.520	-0.400
2020/01/31 08:09:30.2	313.770	0.070	-0.520	-0.440
2020/01/31 08:09:30.3	313.790	0.050	-0.520	-0.480
2020/01/31 08:09:30.4	313.810	0.030	-0.510	-0.520
2020/01/31 08:09:30.5	313.830	0.010	-0.510	-0.560
2020/01/31 08:09:30.6	313.850	-0.010	-0.500	-0.590
2020/01/31 08:09:30.7	313.870	-0.030	-0.490	-0.630
2020/01/31 08:09:30.8	313.890	-0.050	-0.490	-0.660
2020/01/31 08:09:30.9	313.920	-0.070	-0.480	-0.700
2020/01/31 08:09:31.0	313.940	-0.090	-0.460	-0.730
2020/01/31 08:09:31.1	313.970	-0.120	-0.450	-0.760
2020/01/31 08:09:31.2	313.990	-0.140	-0.440	-0.790
2020/01/31 08:09:31.3	314.020	-0.160	-0.420	-0.810
2020/01/31 08:09:31.4	314.040	-0.180	-0.400	-0.840
2020/01/31 08:09:31.5	314.070	-0.200	-0.380	-0.860
2020/01/31 08:09:31.6	314.090	-0.230	-0.370	-0.880
2020/01/31 08:09:31.7	314.120	-0.250	-0.350	-0.900
2020/01/31 08:09:31.8	314.140	-0.270	-0.330	-0.910
2020/01/31 08:09:31.9	314.170	-0.290	-0.310	-0.930
2020/01/31 08:09:32.0	314.190	-0.320	-0.290	-0.940
2020/01/31 08:09:32.1	314.210	-0.340	-0.260	-0.950
2020/01/31 08:09:32.2	314.240	-0.360	-0.240	-0.950
2020/01/31 08:09:32.3	314.250	-0.380	-0.220	-0.950
2020/01/31 08:09:32.4	314.270	-0.400	-0.200	-0.940
2020/01/31 08:09:32.5	314.290	-0.420	-0.180	-0.940
2020/01/31 08:09:32.6	314.310	-0.440	-0.160	-0.930
2020/01/31 08:09:32.7	314.330	-0.460	-0.130	-0.920
2020/01/31 08:09:32.8	314.340	-0.480	-0.110	-0.900
2020/01/31 08:09:32.9	314.360	-0.490	-0.090	-0.880
2020/01/31 08:09:33.0	314.370	-0.510	-0.070	-0.850
2020/01/31 08:09:33.1	314.380	-0.520	-0.050	-0.830
2020/01/31 08:09:33.2	314.390	-0.530	-0.030	-0.800
2020/01/31 08:09:33.3	314.390	-0.540	-0.010	-0.770
2020/01/31 08:09:33.4	314.400	-0.540	0.010	-0.730
2020/01/31 08:09:33.5	314.400	-0.550	0.030	-0.690
2020/01/31 08:09:33.6	314.410	-0.550	0.050	-0.650
2020/01/31 08:09:33.7	314.410	-0.550	0.070	-0.610
2020/01/31 08:09:33.8	314.410	-0.550	0.080	-0.570
2020/01/31 08:09:33.9	314.400	-0.550	0.100	-0.530
2020/01/31 08:09:34.0	314.400	-0.540	0.120	-0.490
2020/01/31 08:09:34.1	314.390	-0.530	0.130	-0.450
2020/01/31 08:09:34.2	314.390	-0.520	0.140	-0.410
2020/01/31 08:09:34.3	314.370	-0.510	0.160	-0.360
2020/01/31 08:09:34.4	314.360	-0.500	0.170	-0.320
2020/01/31 08:09:34.5	314.350	-0.480	0.170	-0.280
2020/01/31 08:09:34.6	314.330	-0.460	0.180	-0.240
2020/01/31 08:09:34.7	314.310	-0.440	0.180	-0.200
2020/01/31 08:09:34.8	314.290	-0.420	0.180	-0.160
2020/01/31 08:09:34.9	314.270	-0.400	0.180	-0.120
2020/01/31 08:09:35.0	314.250	-0.370	0.180	-0.090
2020/01/31 08:09:35.1	314.230	-0.350	0.180	-0.050
2020/01/31 08:09:35.2	314.200	-0.320	0.170	-0.020
2020/01/31 08:09:35.3	314.160	-0.290	0.160	0.010
2020/01/31 08:09:35.4	314.140	-0.260	0.150	0.040
2020/01/31 08:09:35.5	314.110	-0.230	0.130	0.070
2020/01/31 08:09:35.6	314.080	-0.200	0.110	0.100
2020/01/31 08:09:35.7	314.050	-0.160	0.090	0.120
2020/01/31 08:09:35.8	314.030	-0.130	0.070	0.140
2020/01/31 08:09:35.9	314.000	-0.100	0.040	0.160
2020/01/31 08:09:36.0	313.980	-0.060	0.020	0.170
2020/01/31 08:09:36.1	313.960	-0.030	-0.010	0.190
2020/01/31 08:09:36.2	313.930	0.010	-0.040	0.200
2020/01/31 08:09:36.3	313.920	0.040	-0.080	0.200
2020/01/31 08:09:36.4	313.900	0.080	-0.110	0.210
2020/01/31 08:09:36.5	313.890	0.110	-0.150	0.210
2020/01/31 08:09:36.6	313.870	0.150	-0.190	0.210
2020/01/31 08:09:36.7	313.860	0.180	-0.220	0.210
2020/01/31 08:09:36.8	313.850	0.210	-0.260	0.200
2020/01/31 08:09:36.9	313.840	0.240	-0.300	0.200
2020/01/31 08:09:37.0	313.840	0.280	-0.330	0.190
2020/01/31 08:09:37.1	313.830	0.310	-0.370	0.180
2020/01/31 08:09:37.2	313.820	0.340	-0.400	0.180
2020/01/31 08:09:37.3	313.820	0.360	-0.430	0.170
2020/01/31 08:09:37.4	313.820	0.390	-0.460	0.160
2020/01/31 08:09:37.5	313.810	0.410	-0.490	0.160
2020/01/31 08:09:37.6	313.800	0.430	-0.510	0.150
2020/01/31 08:09:37.7	313.800	0.450	-0.530	0.140
2020/01/31 08:09:37.8	313.790	0.470	-0.550	0.140
2020/01/31 08:09:37.9	313.780	0.490	-0.560	0.130
2020/01/31 08:09:38.0	313.780	0.500	-0.570	0.120
2020/01/31 08:09:38.1	313.770	0.510	-0.580	0.120
2020/01/31 08:09:38.2	313.760	0.520	-0.580	0.110
2020/01/31 08:09:38.3	313.760	0.520	-0.580	0.100
2020/01/31 08:09:38.4	313.750	0.530	-0.580	0.090
2020/01/31 08:09:38.5	313.750	0.530	-0.580	0.080
2020/01/31 08:09:38.6	313.740	0.520	-0.580	0.070
2020/01/31 08:09:38.7	313.740	0.520	-0.570	0.060
2020/01/31 08:09:38.8	313.730	0.510	-0.560	0.050
2020/01/31 08:09:38.9	313.730	0.500	-0.550	0.030
2020/01/31 08:09:39.0	313.730	0.480	-0.540	0.020
2020/01/31 08:09:39.1	313.720	0.470	-0.530	0.000
2020/01/31 08:09:39.2	313.720	0.450	-0.520	-0.020
2020/01/31 08:09:39.3	313.720	0.430	-0.500	-0.040
2020/01/31 08:09:39.4	313.720	0.400	-0.490	-0.060
2020/01/31 08:09:39.5	313.730	0.380	-0.470	-0.080
2020/01/31 08:09:39.6	313.730	0.350	-0.460	-0.110
2020/01/31 08:09:39.7	313.730	0.320	-0.450	-0.140
2020/01/31 08:09:39.8	313.730	0.290	-0.430	-0.160
2020/01/31 08:09:39.9	313.730	0.250	-0.420	-0.190
2020/01/31 08:09:40.0	313.730	0.220	-0.410	-0.220
2020/01/31 08:09:40.1	313.740	0.190	-0.390	-0.260
2020/01/31 08:09:40.2	313.740	0.150	-0.380	-0.290
2020/01/31 08:09:40.3	313.730	0.120	-0.360	-0.320
2020/01/31 08:09:40.4	313.740	0.080	-0.350	-0.350
2020/01/31 08:09:40.5	313.740	0.040	-0.340	-0.390
2020/01/31 08:09:40.6	313.750	0.010	-0.320	-0.420
2020/01/31 08:09:40.7	313.750	-0.030	-0.310	-0.450
2020/01/31 08:09:40.8	313.750	-0.060	-0.300	-0.480
2020/01/31 08:09:40.9	313.760	-0.090	-0.280	-0.500
2020/01/31 08:09:41.0	313.760	-0.130	-0.270	-0.530
2020/01/31 08:09:41.1	313.760	-0.160	-0.260	-0.550
2020/01/31 08:09:41.2	313.770	-0.180	-0.240	-0.580
2020/01/31 08:09:41.3	313.780	-0.210	-0.230	-0.600
2020/01/31 08:09:41.4	313.780	-0.240	-0.220	-0.610
2020/01/31 08:09:41.5	313.780	-0.260	-0.200	-0.630
2020/01/31 08:09:41.6	313.790	-0.280	-0.190	-0.640
2020/01/31 08:09:41.7	313.790	-0.290	-0.180	-0.650
2020/01/31 08:09:41.8	313.790	-0.310	-0.170	-0.660
2020/01/31 08:09:41.9	313.800	-0.320	-0.170	-0.670
2020/01/31 08:09:42.0	313.800	-0.330	-0.160	-0.670
2020/01/31 08:09:42.1	313.810	-0.340	-0.160	-0.670
2020/01/31 08:09:42.2	313.820	-0.340	-0.160	-0.680
2020/01/31 08:09:42.3	313.830	-0.340	-0.160	-0.670
2020/01/31 08:09:42.4	313.830	-0.340	-0.170	-0.680
2020/01/31 08:09:42.5	313.840	-0.330	-0.180	-0.670
2020/01/31 08:09:42.6	313.860	-0.320	-0.190	-0.670
2020/01/31 08:09:42.7	313.870	-0.310	-0.200	-0.670
2020/01/31 08:09:42.8	313.880	-0.300	-0.220	-0.670
2020/01/31 08:09:42.9	313.900	-0.280	-0.240	-0.660
2020/01/31 08:09:43.0	313.910	-0.260	-0.260	-0.660
2020/01/31 08:09:43.1	313.930	-0.240	-0.280	-0.650
2020/01/31 08:09:43.2	313.950	-0.210	-0.300	-0.640
2020/01/31 08:09:43.3	313.960	-0.190	-0.330	-0.640
2020/01/31 08:09:43.4	313.980	-0.160	-0.350	-0.630
2020/01/31 08:09:43.5	314.000	-0.130	-0.380	-0.630
2020/01/31 08:09:43.6	314.030	-0.100	-0.410	-0.620
2020/01/31 08:09:43.7	314.050	-0.060	-0.430	-0.610
2020/01/31 08:09:43.8	314.080	-0.030	-0.460	-0.600
2020/01/31 08:09:43.9	314.100	0.010	-0.480	-0.590
2020/01/31 08:09:44.0	314.130	0.040	-0.500	-0.580
2020/01/31 08:09:44.1	314.160	0.080	-0.520	-0.570
2020/01/31 08:09:44.2	314.190	0.120	-0.540	-0.550
2020/01/31 08:09:44.3	314.220	0.150	-0.550	-0.540
2020/01/31 08:09:44.4	314.240	0.180	-0.560	-0.520
2020/01/31 08:09:44.5	314.270	0.220	-0.560	-0.500
2020/01/31 08:09:44.6	314.290	0.250	-0.560	-0.480
2020/01/31 08:09:44.7	314.310	0.280	-0.560	-0.450
2020/01/31 08:09:44.8	314.330	0.310	-0.550	-0.420
2020/01/31 08:09:44.9	314.350	0.330	-0.530	-0.390
2020/01/31 08:09:45.0	314.370	0.350	-0.510	-0.360
2020/01/31 08:09:45.1	314.380	0.370	-0.490	-0.320
2020/01/31 08:09:45.2	314.390	0.390	-0.460	-0.280
2020/01/31 08:09:45.3	314.390	0.400	-0.420	-0.240
2020/01/31 08:09:45.4	314.400	0.410	-0.380	-0.200
2020/01/31 08:09:45.5	314.400	0.420	-0.340	-0.160
2020/01/31 08:09:45.6	314.390	0.420	-0.290	-0.110
2020/01/31 08:09:45.7	314.390	0.420	-0.240	-0.070
2020/01/31 08:09:45.8	314.380	0.420	-0.190	-0.020
2020/01/31 08:09:45.9	314.370	0.410	-0.130	0.020
2020/01/31 08:09:46.0	314.360	0.400	-0.080	0.060
2020/01/31 08:09:46.1	314.340	0.390	-0.020	0.100
2020/01/31 08:09:46.2	314.320	0.370	0.040	0.140
2020/01/31 08:09:46.3	314.310	0.350	0.090	0.180
2020/01/31 08:09:46.4	314.280	0.320	0.150	0.220
2020/01/31 08:09:46.5	314.260	0.300	0.200	0.250
2020/01/31 08:09:46.6	314.230	0.270	0.260	0.280
2020/01/31 08:09:46.7	314.200	0.240	0.310	0.310
2020/01/31 08:09:46.8	314.160	0.210	0.350	0.330
2020/01/31 08:09:46.9	314.130	0.170	0.390	0.350
2020/01/31 08:09:47.0	314.100	0.140	0.430	0.360
2020/01/31 08:09:47.1	314.060	0.100	0.460	0.380
2020/01/31 08:09:47.2	314.030	0.070	0.490	0.380
2020/01/31 08:09:47.3	313.990	0.030	0.510	0.390
2020/01/31 08:09:47.4	313.950	-0.000	0.520	0.390
2020/01/31 08:09:47.5	313.920	-0.040	0.530	0.390
2020/01/31 08:09:47.6	313.890	-0.070	0.540	0.380
2020/01/31 08:09:47.7	313.860	-0.110	0.530	0.380
2020/01/31 08:09:47.8	313.830	-0.140	0.520	0.360
2020/01/31 08:09:47.9	313.810	-0.170	0.510	0.340
2020/01/31 08:09:48.0	313.780	-0.200	0.480	0.320
2020/01/31 08:09:48.1	313.760	-0.230	0.450	0.300
2020/01/31 08:09:48.2	313.740	-0.250	0.420	0.270
2020/01/31 08:09:48.3	313.710	-0.270	0.380	0.230
2020/01/31 08:09:48.4	313.700	-0.290	0.330	0.190
2020/01/31 08:09:48.5	313.680	-0.310	0.280	0.150
2020/01/31 08:09:48.6	313.670	-0.330	0.220	0.110
2020/01/31 08:09:48.7	313.670	-0.340	0.160	0.060
2020/01/31 08:09:48.8	313.660	-0.360	0.100	0.010
2020/01/31 08:09:48.9	313.660	-0.370	0.030	-0.050
2020/01/31 08:09:49.0	313.660	-0.380	-0.040	-0.110
2020/01/31 08:09:49.1	313.670	-0.380	-0.110	-0.170
2020/01/31 08:09:49.2	313.670	-0.390	-0.180	-0.230
2020/01/31 08:09:49.3	313.690	-0.390	-0.240	-0.290
2020/01/31 08:09:49.4	313.690	-0.390	-0.310	-0.360
2020/01/31 08:09:49.5	313.700	-0.390	-0.380	-0.430
2020/01/31 08:09:49.6	313.710	-0.390	-0.450	-0.490
2020/01/31 08:09:49.7	313.730	-0.390	-0.510	-0.560
2020/01/31 08:09:49.8	313.740	-0.390	-0.570	-0.630
2020/01/31 08:09:49.9	313.760	-0.390	-0.630	-0.700
2020/01/31 08:09:50.0	313.770	-0.380	-0.680	-0.760
2020/01/31 08:09:50.1	313.790	-0.380	-0.720	-0.830
2020/01/31 08:09:50.2	313.810	-0.370	-0.760	-0.890
2020/01/31 08:09:50.3	313.820	-0.370	-0.800	-0.950
2020/01/31 08:09:50.4	313.840	-0.360	-0.830	-1.010
2020/01/31 08:09:50.5	313.860	-0.360	-0.850	-1.060
2020/01/31 08:09:50.6	313.880	-0.350	-0.870	-1.110
2020/01/31 08:09:50.7	313.890	-0.350	-0.880	-1.160
2020/01/31 08:09:50.8	313.910	-0.340	-0.890	-1.200
2020/01/31 08:09:50.9	313.930	-0.340	-0.890	-1.240
2020/01/31 08:09:51.0	313.950	-0.330	-0.880	-1.280
2020/01/31 08:09:51.1	313.970	-0.330	-0.870	-1.310
2020/01/31 08:09:51.2	313.980	-0.320	-0.860	-1.330
2020/01/31 08:09:51.3	314.010	-0.320	-0.830	-1.350
2020/01/31 08:09:51.4	314.020	-0.310	-0.810	-1.360
2020/01/31 08:09:51.5	314.030	-0.310	-0.780	-1.370
2020/01/31 08:09:51.6	314.040	-0.300	-0.740	-1.370
2020/01/31 08:09:51.7	314.060	-0.300	-0.710	-1.360
2020/01/31 08:09:51.8	314.060	-0.290	-0.670	-1.350
2020/01/31 08:09:51.9	314.070	-0.280	-0.620	-1.330
2020/01/31 08:09:52.0	314.080	-0.280	-0.580	-1.310
2020/01/31 08:09:52.1	314.080	-0.270	-0.530	-1.280
2020/01/31 08:09:52.2	314.090	-0.260	-0.490	-1.240
2020/01/31 08:09:52.3	314.100	-0.250	-0.440	-1.200
2020/01/31 08:09:52.4	314.100	-0.240	-0.390	-1.160
2020/01/31 08:09:52.5	314.110	-0.220	-0.350	-1.110
2020/01/31 08:09:52.6	314.110	-0.210	-0.300	-1.060
2020/01/31 08:09:52.7	314.110	-0.200	-0.260	-1.010
2020/01/31 08:09:52.8	314.110	-0.180	-0.220	-0.960
2020/01/31 08:09:52.9	314.110	-0.160	-0.180	-0.900
2020/01/31 08:09:53.0	314.110	-0.140	-0.140	-0.840
2020/01/31 08:09:53.1	314.110	-0.120	-0.110	-0.780
2020/01/31 08:09:53.2	314.110	-0.090	-0.080	-0.720
2020/01/31 08:09:53.3	314.120	-0.070	-0.060	-0.660
2020/01/31 08:09:53.4	314.120	-0.040	-0.040	-0.600
2020/01/31 08:09:53.5	314.120	-0.020	-0.020	-0.540
2020/01/31 08:09:53.6	314.120	0.010	-0.010	-0.480
2020/01/31 08:09:53.7	314.120	0.040	-0.010	-0.420
2020/01/31 08:09:53.8	314.120	0.070	-0.010	-0.360
2020/01/31 08:09:53.9	314.120	0.100	-0.010	-0.310
2020/01/31 08:09:54.0	314.130	0.130	-0.020	-0.250
2020/01/31 08:09:54.1	314.130	0.160	-0.040	-0.200
2020/01/31 08:09:54.2	314.130	0.190	-0.060	-0.150
2020/01/31 08:09:54.3	314.120	0.220	-0.080	-0.110
2020/01/31 08:09:54.4	314.130	0.250	-0.100	-0.060
2020/01/31 08:09:54.5	314.130	0.280	-0.130	-0.020
2020/01/31 08:09:54.6	314.130	0.310	-0.160	0.020
2020/01/31 08:09:54.7	314.140	0.340	-0.200	0.060
2020/01/31 08:09:54.8	314.150	0.370	-0.230	0.100
2020/01/31 08:09:54.9	314.150	0.400	-0.270	0.130
2020/01/31 08:09:55.0	314.160	0.420	-0.310	0.160
2020/01/31 08:09:55.1	314.170	0.450	-0.340	0.190
2020/01/31 08:09:55.2	314.180	0.470	-0.380	0.220
2020/01/31 08:09:55.3	314.180	0.490	-0.410	0.240
2020/01/31 08:09:55.4	314.190	0.510	-0.440	0.270
2020/01/31 08:09:55.5	314.200	0.530	-0.470	0.290
2020/01/31 08:09:55.6	314.210	0.540	-0.490	0.310
2020/01/31 08:09:55.7	314.210	0.560	-0.510	0.320
2020/01/31 08:09:55.8	314.220	0.570	-0.520	0.340
2020/01/31 08:09:55.9	314.220	0.570	-0.530	0.350
2020/01/31 08:09:56.0	314.230	0.580	-0.540	0.360
2020/01/31 08:09:56.1	314.230	0.580	-0.540	0.370
2020/01/31 08:09:56.2	314.230	0.580	-0.530	0.380
2020/01/31 08:09:56.3	314.220	0.580	-0.520	0.390
2020/01/31 08:09:56.4	314.220	0.570	-0.510	0.390
2020/01/31 08:09:56.5	314.220	0.560	-0.490	0.390
2020/01/31 08:09:56.6	314.220	0.550	-0.460	0.390
2020/01/31 08:09:56.7	314.210	0.530	-0.430	0.390
2020/01/31 08:09:56.8	314.210	0.520	-0.400	0.380
2020/01/31 08:09:56.9	314.210	0.500	-0.360	0.380
2020/01/31 08:09:57.0	314.200	0.480	-0.320	0.370
2020/01/31 08:09:57.1	314.200	0.450	-0.280	0.360
2020/01/31 08:09:57.2	314.200	0.430	-0.240	0.350
2020/01/31 08:09:57.3	314.200	0.400	-0.190	0.330
2020/01/31 08:09:57.4	314.200	0.370	-0.140	0.310
2020/01/31 08:09:57.5	314.200	0.340	-0.100	0.290
2020/01/31 08:09:57.6	314.200	0.300	-0.050	0.270
2020/01/31 08:09:57.7	314.200	0.270	-0.010	0.250
2020/01/31 08:09:57.8	314.190	0.230	0.030	0.220
2020/01/31 08:09:57.9	314.190	0.200	0.080	0.190
2020/01/31 08:09:58.0	314.190	0.160	0.120	0.160
2020/01/31 08:09:58.1	314.180	0.120	0.150	0.130
2020/01/31 08:09:58.2	314.180	0.090	0.190	0.090
2020/01/31 08:09:58.3	314.180	0.050	0.210	0.050
2020/01/31 08:09:58.4	314.170	0.010	0.240	0.020
2020/01/31 08:09:58.5	314.170	-0.020	0.260	-0.020
2020/01/31 08:09:58.6	314.160	-0.060	0.280	-0.060
2020/01/31 08:09:58.7	314.150	-0.090	0.290	-0.110
2020/01/31 08:09:58.8	314.150	-0.130	0.300	-0.150
2020/01/31 08:09:58.9	314.140	-0.160	0.310	-0.190
2020/01/31 08:09:59.0	314.130	-0.190	0.310	-0.240
2020/01/31 08:09:59.1	314.120	-0.220	0.310	-0.280
2020/01/31 08:09:59.2	314.110	-0.240	0.300	-0.320
2020/01/31 08:09:59.3	314.110	-0.270	0.290	-0.370
2020/01/31 08:09:59.4	314.100	-0.290	0.270	-0.410
2020/01/31 08:09:59.5	314.090	-0.310	0.250	-0.460
2020/01/31 08:09:59.6	314.090	-0.330	0.230	-0.500
2020/01/31 08:09:59.7	314.080	-0.340	0.200	-0.550
2020/01/31 08:09:59.8	314.070	-0.350	0.170	-0.600
2020/01/31 08:09:59.9	314.070	-0.360	0.140	-0.640
2020/01/31 08:10:00.0	314.070	-0.370	0.100	-0.690
2020/01/31 08:10:00.1	314.060	-0.370	0.060	-0.730
2020/01/31 08:10:00.2	314.060	-0.370	0.020	-0.780
2020/01/31 08:10:00.3	314.060	-0.370	-0.030	-0.820
2020/01/31 08:10:00.4	314.060	-0.370	-0.080	-0.860
2020/01/31 08:10:00.5	314.060	-0.360	-0.120	-0.900
2020/01/31 08:10:00.6	314.060	-0.350	-0.170	-0.940
2020/01/31 08:10:00.7	314.070	-0.340	-0.220	-0.980
2020/01/31 08:10:00.8	314.070	-0.330	-0.270	-1.010
2020/01/31 08:10:00.9	314.080	-0.320	-0.320	-1.040
2020/01/31 08:10:01.0	314.080	-0.300	-0.360	-1.070
2020/01/31 08:10:01.1	314.090	-0.290	-0.410	-1.100
2020/01/31 08:10:01.2	314.090	-0.270	-0.460	-1.120
2020/01/31 08:10:01.3	314.100	-0.250	-0.500	-1.140
2020/01/31 08:10:01.4	314.110	-0.230	-0.540	-1.150
2020/01/31 08:10:01.5	314.120	-0.200	-0.580	-1.170
2020/01/31 08:10:01.6	314.120	-0.180	-0.620	-1.170
2020/01/31 08:10:01.7	314.130	-0.160	-0.650	-1.180
2020/01/31 08:10:01.8	314.140	-0.130	-0.680	-1.170
2020/01/31 08:10:01.9	314.140	-0.110	-0.710	-1.170
2020/01/31 08:10:02.0	314.150	-0.090	-0.730	-1.160
2020/01/31 08:10:02.1	314.160	-0.060	-0.750	-1.140
2020/01/31 08:10:02.2	314.170	-0.040	-0.770	-1.120
2020/01/31 08:10:02.3	314.180	-0.020	-0.780	-1.100
2020/01/31 08:10:02.4	314.180	0.010	-0.790	-1.070
2020/01/31 08:10:02.5	314.190	0.030	-0.800	-1.040
2020/01/31 08:10:02.6	314.200	0.050	-0.800	-1.010
2020/01/31 08:10:02.7	314.200	0.070	-0.790	-0.970
2020/01/31 08:10:02.8	314.200	0.080	-0.790	-0.930
2020/01/31 08:10:02.9	314.210	0.100	-0.780	-0.890
2020/01/31 08:10:03.0	314.210	0.120	-0.760	-0.840
2020/01/31 08:10:03.1	314.210	0.130	-0.740	-0.790
2020/01/31 08:10:03.2	314.210	0.140	-0.720	-0.740
2020/01/31 08:10:03.3	314.200	0.150	-0.690	-0.690
2020/01/31 08:10:03.4	314.200	0.160	-0.660	-0.640
2020/01/31 08:10:03.5	314.200	0.160	-0.630	-0.580
2020/01/31 08:10:03.6	314.190	0.170	-0.600	-0.530
2020/01/31 08:10:03.7	314.180	0.170	-0.560	-0.480
2020/01/31 08:10:03.8	314.180	0.170	-0.530	-0.420
2020/01/31 08:10:03.9	314.170	0.170	-0.490	-0.370
2020/01/31 08:10:04.0	314.170	0.160	-0.450	-0.310
2020/01/31 08:10:04.1	314.160	0.160	-0.410	-0.260
2020/01/31 08:10:04.2	314.150	0.150	-0.380	-0.210
2020/01/31 08:10:04.3	314.140	0.140	-0.340	-0.160
2020/01/31 08:10:04.4	314.130	0.130	-0.300	-0.110
2020/01/31 08:10:04.5	314.120	0.120	-0.260	-0.070
2020/01/31 08:10:04.6	314.110	0.110	-0.230	-0.030
2020/01/31 08:10:04.7	314.100	0.090	-0.200	0.010
2020/01/31 08:10:04.8	314.100	0.080	-0.160	0.050
2020/01/31 08:10:04.9	314.090	0.060	-0.140	0.080
2020/01/31 08:10:05.0	314.080	0.050	-0.110	0.110
2020/01/31 08:10:05.1	314.070	0.030	-0.080	0.140
2020/01/31 08:10:05.2	314.060	0.010	-0.060	0.160
2020/01/31 08:10:05.3	314.070	-0.000	-0.040	0.180
2020/01/31 08:10:05.4	314.060	-0.020	-0.020	0.200
2020/01/31 08:10:05.5	314.060	-0.040	-0.010	0.210
2020/01/31 08:10:05.6	314.050	-0.060	0.010	0.220
2020/01/31 08:10:05.7	314.040	-0.080	0.020	0.230
2020/01/31 08:10:05.8	314.040	-0.100	0.020	0.240
2020/01/31 08:10:05.9	314.030	-0.110	0.030	0.240
2020/01/31 08:10:06.0	314.030	-0.130	0.030	0.240
2020/01/31 08:10:06.1	314.020	-0.150	0.030	0.240
2020/01/31 08:10:06.2	314.020	-0.160	0.030	0.230
2020/01/31 08:10:06.3	314.020	-0.180	0.030	0.220
2020/01/31 08:10:06.4	314.010	-0.190	0.020	0.210
2020/01/31 08:10:06.5	314.010	-0.210	0.010	0.200
2020/01/31 08:10:06.6	314.010	-0.220	0.000	0.190
2020/01/31 08:10:06.7	314.010	-0.230	-0.010	0.170
2020/01/31 08:10:06.8	314.010	-0.240	-0.020	0.150
2020/01/31 08:10:06.9	314.020	-0.250	-0.030	0.130
2020/01/31 08:10:07.0	314.020	-0.260	-0.040	0.100
2020/01/31 08:10:07.1	314.030	-0.260	-0.060	0.080
2020/01/31 08:10:07.2	314.040	-0.270	-0.070	0.050
2020/01/31 08:10:07.3	314.030	-0.270	-0.090	0.020
2020/01/31 08:10:07.4	314.050	-0.270	-0.100	-0.010
2020/01/31 08:10:07.5	314.060	-0.280	-0.120	-0.040
2020/01/31 08:10:07.6	314.070	-0.270	-0.130	-0.080
2020/01/31 08:10:07.7	314.090	-0.270	-0.140	-0.110
2020/01/31 08:10:07.8	314.100	-0.270	-0.160	-0.140
2020/01/31 08:10:07.9	314.120	-0.270	-0.170	-0.180
2020/01/31 08:10:08.0	314.130	-0.260	-0.170	-0.210
2020/01/31 08:10:08.1	314.150	-0.260	-0.180	-0.250
2020/01/31 08:10:08.2	314.160	-0.250	-0.190	-0.280
2020/01/31 08:10:08.3	314.180	-0.240	-0.190	-0.310
2020/01/31 08:10:08.4	314.190	-0.240	-0.190	-0.350
2020/01/31 08:10:08.5	314.200	-0.230	-0.190	-0.380
2020/01/31 08:10:08.6	314.210	-0.220	-0.180	-0.410
2020/01/31 08:10:08.7	314.230	-0.210	-0.180	-0.440
2020/01/31 08:10:08.8	314.240	-0.200	-0.170	-0.470
2020/01/31 08:10:08.9	314.250	-0.200	-0.160	-0.490
2020/01/31 08:10:09.0	314.260	-0.190	-0.150	-0.520
2020/01/31 08:10:09.1	314.270	-0.180	-0.140	-0.550
2020/01/31 08:10:09.2	314.270	-0.170	-0.130	-0.570
2020/01/31 08:10:09.3	314.280	-0.160	-0.120	-0.590
2020/01/31 08:10:09.4	314.290	-0.150	-0.100	-0.610
2020/01/31 08:10:09.5	314.300	-0.150	-0.090	-0.630
2020/01/31 08:10:09.6	314.310	-0.140	-0.080	-0.650
2020/01/31 08:10:09.7	314.310	-0.130	-0.070	-0.670
2020/01/31 08:10:09.8	314.320	-0.120	-0.050	-0.680
2020/01/31 08:10:09.9	314.330	-0.110	-0.040	-0.700
2020/01/31 08:10:10.0	314.340	-0.100	-0.040	-0.710
2020/01/31 08:10:10.1	314.350	-0.090	-0.030	-0.720
2020/01/31 08:10:10.2	314.360	-0.080	-0.030	-0.720
2020/01/31 08:10:10.3	314.360	-0.070	-0.030	-0.720
2020/01/31 08:10:10.4	314.370	-0.060	-0.030	-0.720
2020/01/31 08:10:10.5	314.380	-0.040	-0.030	-0.720
2020/01/31 08:10:10.6	314.390	-0.030	-0.030	-0.710
2020/01/31 08:10:10.7	314.400	-0.020	-0.030	-0.700
2020/01/31 08:10:10.8	314.410	-0.000	-0.040	-0.690
2020/01/31 08:10:10.9	314.420	0.010	-0.050	-0.670
2020/01/31 08:10:11.0	314.420	0.030	-0.060	-0.660
2020/01/31 08:10:11.1	314.430	0.050	-0.070	-0.640
2020/01/31 08:10:11.2	314.440	0.070	-0.090	-0.610
2020/01/31 08:10:11.3	314.460	0.090	-0.100	-0.590
2020/01/31 08:10:11.4	314.460	0.110	-0.120	-0.560
2020/01/31 08:10:11.5	314.470	0.130	-0.130	-0.530
2020/01/31 08:10:11.6	314.470	0.160	-0.150	-0.500
2020/01/31 08:10:11.7	314.470	0.180	-0.170	-0.470
2020/01/31 08:10:11.8	314.470	0.200	-0.180	-0.430
2020/01/31 08:10:11.9	314.470	0.230	-0.200	-0.400
2020/01/31 08:10:12.0	314.470	0.250	-0.220	-0.360
2020/01/31 08:10:12.1	314.470	0.280	-0.240	-0.320
2020/01/31 08:10:12.2	314.460	0.300	-0.250	-0.280
2020/01/31 08:10:12.3	314.450	0.330	-0.270	-0.230
2020/01/31 08:10:12.4	314.440	0.350	-0.280	-0.190
2020/01/31 08:10:12.5	314.430	0.380	-0.300	-0.140
2020/01/31 08:10:12.6	314.420	0.400	-0.310	-0.100
2020/01/31 08:10:12.7	314.410	0.430	-0.320	-0.050
2020/01/31 08:10:12.8	314.390	0.450	-0.330	-0.010
2020/01/31 08:10:12.9	314.370	0.470	-0.340	0.040
2020/01/31 08:10:13.0	314.350	0.490	-0.350	0.090
2020/01/31 08:10:13.1	314.320	0.500	-0.360	0.130
2020/01/31 08:10:13.2	314.300	0.520	-0.370	0.180
2020/01/31 08:10:13.3	314.270	0.530	-0.370	0.220
2020/01/31 08:10:13.4	314.240	0.540	-0.380	0.260
2020/01/31 08:10:13.5	314.210	0.550	-0.380	0.300
2020/01/31 08:10:13.6	314.180	0.560	-0.390	0.340
2020/01/31 08:10:13.7	314.150	0.560	-0.390	0.370
2020/01/31 08:10:13.8	314.120	0.570	-0.400	0.400
2020/01/31 08:10:13.9	314.090	0.570	-0.400	0.420
2020/01/31 08:10:14.0	314.060	0.560	-0.410	0.440
2020/01/31 08:10:14.1	314.030	0.560	-0.410	0.460
2020/01/31 08:10:14.2	314.010	0.550	-0.420	0.470
2020/01/31 08:10:14.3	313.990	0.540	-0.420	0.480
2020/01/31 08:10:14.4	313.960	0.530	-0.430	0.480
2020/01/31 08:10:14.5	313.940	0.520	-0.430	0.470
2020/01/31 08:10:14.6	313.920	0.500	-0.440	0.470
2020/01/31 08:10:14.7	313.910	0.490	-0.450	0.450
2020/01/31 08:10:14.8	313.890	0.470	-0.450	0.440
2020/01/31 08:10:14.9	313.880	0.450	-0.460	0.420
2020/01/31 08:10:15.0	313.870	0.420	-0.470	0.390
2020/01/31 08:10:15.1	313.870	0.400	-0.480	0.370
2020/01/31 08:10:15.2	313.870	0.370	-0.490	0.330
2020/01/31 08:10:15.3	313.880	0.350	-0.500	0.300
2020/01/31 08:10:15.4	313.880	0.320	-0.510	0.260
2020/01/31 08:10:15.5	313.890	0.290	-0.520	0.220
2020/01/31 08:10:15.6	313.900	0.260	-0.540	0.180
2020/01/31 08:10:15.7	313.910	0.230	-0.550	0.140
2020/01/31 08:10:15.8	313.930	0.200	-0.560	0.090
2020/01/31 08:10:15.9	313.940	0.170	-0.570	0.050
2020/01/31 08:10:16.0	313.960	0.140	-0.580	0.000
2020/01/31 08:10:16.1	313.980	0.110	-0.590	-0.050
2020/01/31 08:10:16.2	313.990	0.080	-0.590	-0.090
2020/01/31 08:10:16.3	314.010	0.040	-0.600	-0.140
2020/01/31 08:10:16.4	314.030	0.010	-0.610	-0.190
2020/01/31 08:10:16.5	314.050	-0.020	-0.610	-0.240
2020/01/31 08:10:16.6	314.070	-0.050	-0.610	-0.280
2020/01/31 08:10:16.7	314.100	-0.080	-0.610	-0.330
2020/01/31 08:10:16.8	314.120	-0.110	-0.610	-0.380
2020/01/31 08:10:16.9	314.140	-0.140	-0.610	-0.420
2020/01/31 08:10:17.0	314.160	-0.160	-0.610	-0.460
2020/01/31 08:10:17.1	314.180	-0.190	-0.600	-0.500
2020/01/31 08:10:17.2	314.190	-0.220	-0.600	-0.540
2020/01/31 08:10:17.3	314.210	-0.240	-0.590	-0.580
2020/01/31 08:10:17.4	314.230	-0.260	-0.580	-0.620
2020/01/31 08:10:17.5	314.250	-0.290	-0.560	-0.650
2020/01/31 08:10:17.6	314.260	-0.310	-0.550	-0.690
2020/01/31 08:10:17.7	314.280	-0.330	-0.540	-0.720
2020/01/31 08:10:17.8	314.290	-0.350	-0.530	-0.760
2020/01/31 08:10:17.9	314.300	-0.370	-0.510	-0.790
2020/01/31 08:10:18.0	314.310	-0.390	-0.490	-0.820
2020/01/31 08:10:18.1	314.330	-0.400	-0.480	-0.850
2020/01/31 08:10:18.2	314.340	-0.420	-0.460	-0.870
2020/01/31 08:10:18.3	314.350	-0.430	-0.440	-0.890
2020/01/31 08:10:18.4	314.360	-0.440	-0.410	-0.910
2020/01/31 08:10:18.5	314.370	-0.460	-0.390	-0.930
2020/01/31 08:10:18.6	314.370	-0.470	-0.370	-0.950
2020/01/31 08:10:18.7	314.380	-0.480	-0.350	-0.960
2020/01/31 08:10:18.8	314.380	-0.480	-0.320	-0.970
2020/01/31 08:10:18.9	314.390	-0.490	-0.290	-0.980
2020/01/31 08:10:19.0	314.390	-0.500	-0.270	-0.990
2020/01/31 08:10:19.1	314.390	-0.500	-0.240	-0.990
2020/01/31 08:10:19.2	314.390	-0.510	-0.210	-0.990
2020/01/31 08:10:19.3	314.380	-0.510	-0.180	-0.990
2020/01/31 08:10:19.4	314.380	-0.510	-0.150	-0.990
2020/01/31 08:10:19.5	314.380	-0.510	-0.120	-0.980
2020/01/31 08:10:19.6	314.370	-0.510	-0.080	-0.970
2020/01/31 08:10:19.7	314.370	-0.510	-0.050	-0.950
2020/01/31 08:10:19.8	314.360	-0.510	-0.010	-0.930
2020/01/31 08:10:19.9	314.350	-0.500	0.020	-0.910
2020/01/31 08:10:20.0	314.350	-0.500	0.050	-0.890
2020/01/31 08:10:20.1	314.340	-0.490	0.090	-0.860
2020/01/31 08:10:20.2	314.320	-0.490	0.120	-0.830
2020/01/31 08:10:20.3	314.310	-0.480	0.160	-0.790
2020/01/31 08:10:20.4	314.290	-0.470	0.200	-0.760
2020/01/31 08:10:20.5	314.280	-0.460	0.230	-0.720
2020/01/31 08:10:20.6	314.260	-0.450	0.260	-0.680
2020/01/31 08:10:20.7	314.240	-0.440	0.290	-0.640
2020/01/31 08:10:20.8	314.230	-0.430	0.330	-0.600
2020/01/31 08:10:20.9	314.210	-0.420	0.350	-0.560
2020/01/31 08:10:21.0	314.180	-0.400	0.380	-0.510
2020/01/31 08:10:21.1	314.160	-0.390	0.400	-0.470
2020/01/31 08:10:21.2	314.140	-0.370	0.430	-0.420
2020/01/31 08:10:21.3	314.130	-0.360	0.450	-0.370
2020/01/31 08:10:21.4	314.100	-0.340	0.460	-0.330
2020/01/31 08:10:21.5	314.080	-0.330	0.470	-0.280
2020/01/31 08:10:21.6	314.060	-0.310	0.480	-0.230
2020/01/31 08:10:21.7	314.040	-0.290	0.490	-0.190
2020/01/31 08:10:21.8	314.020	-0.270	0.490	-0.140
2020/01/31 08:10:21.9	314.000	-0.250	0.490	-0.100
2020/01/31 08:10:22.0	313.980	-0.230	0.480	-0.060
2020/01/31 08:10:22.1	313.960	-0.210	0.470	-0.020
2020/01/31 08:10:22.2	313.940	-0.180	0.450	0.020
2020/01/31 08:10:22.3	313.920	-0.160	0.430	0.050
2020/01/31 08:10:22.4	313.910	-0.130	0.410	0.090
2020/01/31 08:10:22.5	313.890	-0.110	0.380	0.120
2020/01/31 08:10:22.6	313.890	-0.080	0.350	0.140
2020/01/31 08:10:22.7	313.880	-0.050	0.320	0.170
2020/01/31 08:10:22.8	313.870	-0.020	0.280	0.190
2020/01/31 08:10:22.9	313.870	0.010	0.240	0.200
2020/01/31 08:10:23.0	313.870	0.040	0.190	0.210
2020/01/31 08:10:23.1	313.880	0.070	0.140	0.220
2020/01/31 08:10:23.2	313.880	0.100	0.090	0.230
2020/01/31 08:10:23.3	313.880	0.130	0.040	0.230
2020/01/31 08:10:23.4	313.890	0.160	-0.010	0.230
2020/01/31 08:10:23.5	313.910	0.190	-0.060	0.220
2020/01/31 08:10:23.6	313.920	0.220	-0.110	0.220
2020/01/31 08:10:23.7	313.930	0.250	-0.160	0.210
2020/01/31 08:10:23.8	313.950	0.270	-0.210	0.200
2020/01/31 08:10:23.9	313.970	0.300	-0.260	0.200
2020/01/31 08:10:24.0	313.980	0.330	-0.310	0.190
2020/01/31 08:10:24.1	314.000	0.350	-0.350	0.180
2020/01/31 08:10:24.2	314.010	0.370	-0.400	0.180
2020/01/31 08:10:24.3	314.030	0.390	-0.440	0.170
2020/01/31 08:10:24.4	314.040	0.410	-0.480	0.160
2020/01/31 08:10:24.5	314.060	0.430	-0.510	0.160
2020/01/31 08:10:24.6	314.070	0.450	-0.540	0.150
2020/01/31 08:10:24.7	314.080	0.460	-0.570	0.150
2020/01/31 08:10:24.8	314.090	0.470	-0.590	0.140
2020/01/31 08:10:24.9	314.100	0.480	-0.610	0.140
2020/01/31 08:10:25.0	314.100	0.490	-0.630	0.140
2020/01/31 08:10:25.1	314.110	0.500	-0.650	0.130
2020/01/31 08:10:25.2	314.120	0.500	-0.660	0.130
2020/01/31 08:10:25.3	314.120	0.510	-0.660	0.130
2020/01/31 08:10:25.4	314.130	0.510	-0.670	0.130
2020/01/31 08:10:25.5	314.130	0.510	-0.670	0.130
2020/01/31 08:10:25.6	314.130	0.510	-0.670	0.130
2020/01/31 08:10:25.7	314.140	0.510	-0.670	0.130
2020/01/31 08:10:25.8	314.140	0.500	-0.670	0.120
2020/01/31 08:10:25.9	314.140	0.500	-0.670	0.120
2020/01/31 08:10:26.0	314.140	0.490	-0.660	0.120
2020/01/31 08:10:26.1	314.150	0.480	-0.650	0.110
2020/01/31 08:10:26.2	314.150	0.470	-0.640	0.110
2020/01/31 08:10:26.3	314.160	0.460	-0.630	0.100
2020/01/31 08:10:26.4	314.160	0.450	-0.630	0.090
2020/01/31 08:10:26.5	314.160	0.440	-0.610	0.090
2020/01/31 08:10:26.6	314.160	0.430	-0.600	0.080
2020/01/31 08:10:26.7	314.160	0.410	-0.590	0.070
2020/01/31 08:10:26.8	314.160	0.400	-0.580	0.060
2020/01/31 08:10:26.9	314.160	0.380	-0.570	0.040
2020/01/31 08:10:27.0	314.160	0.360	-0.550	0.030
2020/01/31 08:10:27.1	314.160	0.350	-0.540	0.020
2020/01/31 08:10:27.2	314.160	0.330	-0.530	-0.000
2020/01/31 08:10:27.3	314.150	0.310	-0.510	-0.020
2020/01/31 08:10:27.4	314.150	0.290	-0.500	-0.030
2020/01/31 08:10:27.5	314.150	0.270	-0.490	-0.050
2020/01/31 08:10:27.6	314.150	0.250	-0.470	-0.070
2020/01/31 08:10:27.7	314.150	0.230	-0.460	-0.100
2020/01/31 08:10:27.8	314.150	0.210	-0.450	-0.120
2020/01/31 08:10:27.9	314.150	0.190	-0.440	-0.140
2020/01/31 08:10:28.0	314.150	0.170	-0.430	-0.170
2020/01/31 08:10:28.1	314.160	0.150	-0.410	-0.190
2020/01/31 08:10:28.2	314.160	0.120	-0.400	-0.220
2020/01/31 08:10:28.3	314.160	0.100	-0.390	-0.250
2020/01/31 08:10:28.4	314.160	0.080	-0.380	-0.280
2020/01/31 08:10:28.5	314.160	0.060	-0.380	-0.300
2020/01/31 08:10:28.6	314.160	0.040	-0.370	-0.330
2020/01/31 08:10:28.7	314.160	0.020	-0.360	-0.360
2020/01/31 08:10:28.8	314.160	-0.000	-0.350	-0.380
2020/01/31 08:10:28.9	314.160	-0.020	-0.340	-0.410
2020/01/31 08:10:29.0	314.150	-0.050	-0.330	-0.430
2020/01/31 08:10:29.1	314.150	-0.070	-0.330	-0.460
2020/01/31 08:10:29.2	314.150	-0.090	-0.320	-0.480
2020/01/31 08:10:29.3	314.140	-0.110	-0.320	-0.500
2020/01/31 08:10:29.4	314.140	-0.130	-0.310	-0.530
2020/01/31 08:10:29.5	314.140	-0.150	-0.310	-0.550
2020/01/31 08:10:29.6	314.140	-0.170	-0.310	-0.570
2020/01/31 08:10:29.7	314.130	-0.190	-0.310	-0.600
2020/01/31 08:10:29.8	314.130	-0.210	-0.300	-0.620
2020/01/31 08:10:29.9	314.130	-0.220	-0.300	-0.650
2020/01/31 08:10:30.0	314.140	-0.240	-0.310	-0.670
2020/01/31 08:10:30.1	314.140	-0.250	-0.310	-0.690
2020/01/31 08:10:30.2	314.140	-0.270	-0.310	-0.720
2020/01/31 08:10:30.3	314.160	-0.280	-0.310	-0.740
2020/01/31 08:10:30.4	314.160	-0.290	-0.310	-0.760
2020/01/31 08:10:30.5	314.160	-0.300	-0.310	-0.780
2020/01/31 08:10:30.6	314.160	-0.300	-0.310	-0.800
2020/01/31 08:10:30.7	314.160	-0.310	-0.310	-0.820
2020/01/31 08:10:30.8	314.170	-0.310	-0.310	-0.830
2020/01/31 08:10:30.9	314.170	-0.310	-0.310	-0.840
2020/01/31 08:10:31.0	314.170	-0.310	-0.310	-0.850
2020/01/31 08:10:31.1	314.170	-0.310	-0.310	-0.860
2020/01/31 08:10:31.2	314.170	-0.300	-0.300	-0.860
2020/01/31 08:10:31.3	314.160	-0.300	-0.300	-0.860
2020/01/31 08:10:31.4	314.160	-0.290	-0.290	-0.860
2020/01/31 08:10:31.5	314.160	-0.280	-0.280	-0.850
2020/01/31 08:10:31.6	314.160	-0.270	-0.270	-0.840
2020/01/31 08:10:31.7	314.160	-0.260	-0.260	-0.830
2020/01/31 08:10:31.8	314.160	-0.250	-0.250	-0.820
2020/01/31 08:10:31.9	314.150	-0.240	-0.240	-0.810
2020/01/31 08:10:32.0	314.150	-0.230	-0.220	-0.790
2020/01/31 08:10:32.1	314.150	-0.220	-0.210	-0.770
2020/01/31 08:10:32.2	314.140	-0.210	-0.190	-0.750
2020/01/31 08:10:32.3	314.130	-0.190	-0.170	-0.730
2020/01/31 08:10:32.4	314.130	-0.180	-0.150	-0.700
2020/01/31 08:10:32.5	314.130	-0.170	-0.130	-0.680
2020/01/31 08:10:32.6	314.120	-0.160	-0.120	-0.650
2020/01/31 08:10:32.7	314.120	-0.150	-0.100	-0.620
2020/01/31 08:10:32.8	314.120	-0.140	-0.080	-0.590
2020/01/31 08:10:32.9	314.120	-0.130	-0.060	-0.560
2020/01/31 08:10:33.0	314.120	-0.120	-0.040	-0.530
2020/01/31 08:10:33.1	314.120	-0.110	-0.020	-0.500
2020/01/31 08:10:33.2	314.120	-0.100	-0.000	-0.470
2020/01/31 08:10:33.3	314.120	-0.090	0.020	-0.430
2020/01/31 08:10:33.4	314.120	-0.090	0.030	-0.400
2020/01/31 08:10:33.5	314.120	-0.080	0.050	-0.370
2020/01/31 08:10:33.6	314.110	-0.070	0.070	-0.330
2020/01/31 08:10:33.7	314.110	-0.070	0.090	-0.300
2020/01/31 08:10:33.8	314.100	-0.070	0.100	-0.260
2020/01/31 08:10:33.9	314.100	-0.060	0.120	-0.220
2020/01/31 08:10:34.0	314.090	-0.060	0.140	-0.190
2020/01/31 08:10:34.1	314.080	-0.060	0.150	-0.150
2020/01/31 08:10:34.2	314.070	-0.060	0.160	-0.110
2020/01/31 08:10:34.3	314.060	-0.050	0.180	-0.070
2020/01/31 08:10:34.4	314.050	-0.050	0.190	-0.030
2020/01/31 08:10:34.5	314.040	-0.050	0.200	0.010
2020/01/31 08:10:34.6	314.020	-0.050	0.210	0.050
2020/01/31 08:10:34.7	314.010	-0.050	0.210	0.090
2020/01/31 08:10:34.8	314.000	-0.050	0.220	0.130
2020/01/31 08:10:34.9	313.980	-0.050	0.220	0.160
2020/01/31 08:10:35.0	313.970	-0.040	0.220	0.200
2020/01/31 08:10:35.1	313.950	-0.040	0.220	0.240
2020/01/31 08:10:35.2	313.940	-0.040	0.210	0.270
2020/01/31 08:10:35.3	313.930	-0.040	0.200	0.300
2020/01/31 08:10:35.4	313.920	-0.030	0.190	0.330
2020/01/31 08:10:35.5	313.900	-0.030	0.180	0.350
2020/01/31 08:10:35.6	313.890	-0.030	0.160	0.370
2020/01/31 08:10:35.7	313.880	-0.020	0.140	0.390
2020/01/31 08:10:35.8	313.870	-0.020	0.110	0.400
2020/01/31 08:10:35.9	313.860	-0.010	0.090	0.420
2020/01/31 08:10:36.0	313.850	-0.010	0.060	0.420
2020/01/31 08:10:36.1	313.850	-0.000	0.030	0.430
2020/01/31 08:10:36.2	313.840	0.000	-0.010	0.430
2020/01/31 08:10:36.3	313.830	0.010	-0.040	0.430
2020/01/31 08:10:36.4	313.830	0.020	-0.080	0.420
2020/01/31 08:10:36.5	313.820	0.020	-0.110	0.410
2020/01/31 08:10:36.6	313.820	0.030	-0.150	0.400
2020/01/31 08:10:36.7	313.810	0.040	-0.190	0.380
2020/01/31 08:10:36.8	313.810	0.040	-0.220	0.370
2020/01/31 08:10:36.9	313.810	0.050	-0.250	0.350
2020/01/31 08:10:37.0	313.800	0.050	-0.290	0.330
2020/01/31 08:10:37.1	313.800	0.060	-0.320	0.310
2020/01/31 08:10:37.2	313.800	0.060	-0.350	0.280
2020/01/31 08:10:37.3	313.800	0.070	-0.370	0.260
2020/01/31 08:10:37.4	313.790	0.070	-0.400	0.230
2020/01/31 08:10:37.5	313.790	0.070	-0.420	0.200
2020/01/31 08:10:37.6	313.790	0.080	-0.440	0.180
2020/01/31 08:10:37.7	313.780	0.080	-0.460	0.150
2020/01/31 08:10:37.8	313.780	0.080	-0.470	0.120
2020/01/31 08:10:37.9	313.780	0.080	-0.490	0.090
2020/01/31 08:10:38.0	313.790	0.090	-0.500	0.050
2020/01/31 08:10:38.1	313.790	0.090	-0.510	0.020
2020/01/31 08:10:38.2	313.790	0.090	-0.520	-0.020
2020/01/31 08:10:38.3	313.800	0.090	-0.530	-0.060
2020/01/31 08:10:38.4	313.810	0.090	-0.540	-0.100
2020/01/31 08:10:38.5	313.820	0.090	-0.550	-0.150
2020/01/31 08:10:38.6	313.830	0.100	-0.560	-0.190
2020/01/31 08:10:38.7	313.850	0.100	-0.560	-0.240
2020/01/31 08:10:38.8	313.870	0.100	-0.570	-0.290
2020/01/31 08:10:38.9	313.890	0.110	-0.580	-0.340
2020/01/31 08:10:39.0	313.920	0.110	-0.590	-0.390
2020/01/31 08:10:39.1	313.950	0.110	-0.600	-0.440
2020/01/31 08:10:39.2	313.980	0.120	-0.600	-0.490
2020/01/31 08:10:39.3	314.000	0.120	-0.620	-0.540
2020/01/31 08:10:39.4	314.040	0.130	-0.630	-0.590
2020/01/31 08:10:39.5	314.070	0.130	-0.630	-0.650
2020/01/31 08:10:39.6	314.110	0.140	-0.640	-0.700
2020/01/31 08:10:39.7	314.150	0.140	-0.650	-0.750
2020/01/31 08:10:39.8	314.190	0.150	-0.660	-0.810
2020/01/31 08:10:39.9	314.230	0.150	-0.670	-0.860
2020/01/31 08:10:40.0	314.270	0.160	-0.680	-0.910
2020/01/31 08:10:40.1	314.310	0.160	-0.690	-0.960
2020/01/31 08:10:40.2	314.350	0.160	-0.690	-1.000
2020/01/31 08:10:40.3	314.390	0.170	-0.690	-1.050
2020/01/31 08:10:40.4	314.430	0.170	-0.690	-1.090
2020/01/31 08:10:40.5	314.470	0.170	-0.690	-1.130
2020/01/31 08:10:40.6	314.500	0.170	-0.690	-1.160
2020/01/31 08:10:40.7	314.540	0.170	-0.680	-1.190
2020/01/31 08:10:40.8	314.570	0.160	-0.670	-1.220
2020/01/31 08:10:40.9	314.600	0.160	-0.660	-1.240
2020/01/31 08:10:41.0	314.620	0.150	-0.640	-1.260
2020/01/31 08:10:41.1	314.640	0.150	-0.620	-1.270
2020/01/31 08:10:41.2	314.660	0.140	-0.600	-1.270
2020/01/31 08:10:41.3	314.680	0.130	-0.570	-1.270
2020/01/31 08:10:41.4	314.700	0.120	-0.540	-1.260
2020/01/31 08:10:41.5	314.710	0.110	-0.500	-1.250
2020/01/31 08:10:41.6	314.710	0.100	-0.470	-1.230
2020/01/31 08:10:41.7	314.720	0.090	-0.420	-1.210
2020/01/31 08:10:41.8	314.720	0.080	-0.380	-1.180
2020/01/31 08:10:41.9	314.710	0.060	-0.330	-1.150
2020/01/31 08:10:42.0	314.710	0.050	-0.290	-1.110
2020/01/31 08:10:42.1	314.700	0.030	-0.240	-1.070
2020/01/31 08:10:42.2	314.680	0.020	-0.190	-1.030
2020/01/31 08:10:42.3	314.660	0.000	-0.130	-0.980
2020/01/31 08:10:42.4	314.640	-0.010	-0.080	-0.930
2020/01/31 08:10:42.5	314.620	-0.020	-0.030	-0.880
2020/01/31 08:10:42.6	314.600	-0.040	0.020	-0.820
2020/01/31 08:10:42.7	314.570	-0.050	0.070	-0.760
2020/01/31 08:10:42.8	314.540	-0.060	0.120	-0.700
2020/01/31 08:10:42.9	314.500	-0.080	0.160	-0.640
2020/01/31 08:10:43.0	314.470	-0.090	0.210	-0.570
2020/01/31 08:10:43.1	314.430	-0.100	0.240	-0.510
2020/01/31 08:10:43.2	314.400	-0.110	0.280	-0.440
2020/01/31 08:10:43.3	314.360	-0.110	0.320	-0.380
2020/01/31 08:10:43.4	314.320	-0.120	0.340	-0.310
2020/01/31 08:10:43.5	314.280	-0.120	0.370	-0.250
2020/01/31 08:10:43.6	314.240	-0.130	0.390	-0.190
2020/01/31 08:10:43.7	314.190	-0.130	0.400	-0.120
2020/01/31 08:10:43.8	314.150	-0.130	0.410	-0.060
2020/01/31 08:10:43.9	314.110	-0.130	0.420	-0.010
2020/01/31 08:10:44.0	314.070	-0.120	0.410	0.050
2020/01/31 08:10:44.1	314.030	-0.120	0.410	0.100
2020/01/31 08:10:44.2	313.990	-0.110	0.400	0.150
2020/01/31 08:10:44.3	313.970	-0.110	0.380	0.190
2020/01/31 08:10:44.4	313.930	-0.100	0.360	0.240
2020/01/31 08:10:44.5	313.890	-0.090	0.330	0.270
2020/01/31 08:10:44.6	313.860	-0.080	0.300	0.310
2020/01/31 08:10:44.7	313.830	-0.060	0.260	0.340
2020/01/31 08:10:44.8	313.800	-0.050	0.230	0.360
2020/01/31 08:10:44.9	313.770	-0.040	0.180	0.380
2020/01/31 08:10:45.0	313.750	-0.030	0.140	0.390
2020/01/31 08:10:45.1	313.720	-0.010	0.090	0.400
2020/01/31 08:10:45.2	313.700	0.000	0.040	0.410
2020/01/31 08:10:45.3	313.680	0.020	-0.010	0.410
2020/01/31 08:10:45.4	313.660	0.030	-0.070	0.410
2020/01/31 08:10:45.5	313.640	0.040	-0.120	0.400
2020/01/31 08:10:45.6	313.620	0.060	-0.170	0.390
2020/01/31 08:10:45.7	313.610	0.070	-0.230	0.370
2020/01/31 08:10:45.8	313.590	0.080	-0.280	0.360
2020/01/31 08:10:45.9	313.580	0.090	-0.330	0.340
2020/01/31 08:10:46.0	313.560	0.100	-0.380	0.320
2020/01/31 08:10:46.1	313.550	0.110	-0.420	0.290
2020/01/31 08:10:46.2	313.540	0.120	-0.460	0.260
2020/01/31 08:10:46.3	313.530	0.120	-0.500	0.230
2020/01/31 08:10:46.4	313.520	0.120	-0.540	0.200
2020/01/31 08:10:46.5	313.520	0.120	-0.580	0.170
2020/01/31 08:10:46.6	313.510	0.120	-0.610	0.130
2020/01/31 08:10:46.7	313.510	0.120	-0.630	0.100
2020/01/31 08:10:46.8	313.510	0.120	-0.660	0.060
2020/01/31 08:10:46.9	313.510	0.110	-0.680	0.020
2020/01/31 08:10:47.0	313.510	0.100	-0.700	-0.020
2020/01/31 08:10:47.1	313.510	0.090	-0.710	-0.060
2020/01/31 08:10:47.2	313.510	0.080	-0.720	-0.100
2020/01/31 08:10:47.3	313.520	0.070	-0.720	-0.150
2020/01/31 08:10:47.4	313.530	0.050	-0.720	-0.190
2020/01/31 08:10:47.5	313.530	0.030	-0.720	-0.230
2020/01/31 08:10:47.6	313.540	0.020	-0.710	-0.270
2020/01/31 08:10:47.7	313.550	-0.000	-0.710	-0.310
2020/01/31 08:10:47.8	313.560	-0.030	-0.690	-0.350
2020/01/31 08:10:47.9	313.570	-0.050	-0.680	-0.390
2020/01/31 08:10:48.0	313.580	-0.070	-0.660	-0.430
2020/01/31 08:10:48.1	313.590	-0.100	-0.640	-0.460
2020/01/31 08:10:48.2	313.600	-0.120	-0.620	-0.500
2020/01/31 08:10:48.3	313.610	-0.150	-0.590	-0.530
2020/01/31 08:10:48.4	313.630	-0.170	-0.570	-0.560
2020/01/31 08:10:48.5	313.640	-0.200	-0.540	-0.590
2020/01/31 08:10:48.6	313.660	-0.220	-0.510	-0.620
2020/01/31 08:10:48.7	313.670	-0.240	-0.490	-0.650
2020/01/31 08:10:48.8	313.690	-0.270	-0.460	-0.680
2020/01/31 08:10:48.9	313.710	-0.290	-0.430	-0.710
2020/01/31 08:10:49.0	313.730	-0.310	-0.400	-0.740
2020/01/31 08:10:49.1	313.750	-0.330	-0.380	-0.760
2020/01/31 08:10:49.2	313.770	-0.350	-0.350	-0.790
2020/01/31 08:10:49.3	313.800	-0.360	-0.320	-0.820
2020/01/31 08:10:49.4	313.820	-0.380	-0.300	-0.840
2020/01/31 08:10:49.5	313.840	-0.390	-0.270	-0.860
2020/01/31 08:10:49.6	313.870	-0.400	-0.250	-0.880
2020/01/31 08:10:49.7	313.890	-0.410	-0.230	-0.910
2020/01/31 08:10:49.8	313.920	-0.420	-0.210	-0.920
2020/01/31 08:10:49.9	313.950	-0.420	-0.200	-0.940
2020/01/31 08:10:50.0	313.980	-0.420	-0.190	-0.960
2020/01/31 08:10:50.1	314.000	-0.420	-0.170	-0.970
2020/01/31 08:10:50.2	314.030	-0.420	-0.160	-0.980
2020/01/31 08:10:50.3	314.050	-0.410	-0.160	-0.990
2020/01/31 08:10:50.4	314.080	-0.400	-0.150	-1.000
2020/01/31 08:10:50.5	314.110	-0.390	-0.150	-1.000
2020/01/31 08:10:50.6	314.140	-0.380	-0.140	-1.010
2020/01/31 08:10:50.7	314.170	-0.360	-0.140	-1.010
2020/01/31 08:10:50.8	314.200	-0.340	-0.140	-1.000
2020/01/31 08:10:50.9	314.220	-0.320	-0.140	-1.000
2020/01/31 08:10:51.0	314.250	-0.300	-0.140	-0.990
2020/01/31 08:10:51.1	314.280	-0.270	-0.140	-0.980
2020/01/31 08:10:51.2	314.310	-0.250	-0.150	-0.960
2020/01/31 08:10:51.3	314.330	-0.220	-0.150	-0.950
2020/01/31 08:10:51.4	314.360	-0.190	-0.150	-0.930
2020/01/31 08:10:51.5	314.380	-0.150	-0.150	-0.910
2020/01/31 08:10:51.6	314.400	-0.120	-0.160	-0.880
2020/01/31 08:10:51.7	314.420	-0.090	-0.160	-0.860
2020/01/31 08:10:51.8	314.440	-0.050	-0.160	-0.830
2020/01/31 08:10:51.9	314.460	-0.020	-0.160	-0.800
2020/01/31 08:10:52.0	314.470	0.020	-0.160	-0.770
2020/01/31 08:10:52.1	314.490	0.050	-0.160	-0.740
2020/01/31 08:10:52.2	314.500	0.090	-0.160	-0.710
2020/01/31 08:10:52.3	314.510	0.130	-0.160	-0.670
2020/01/31 08:10:52.4	314.510	0.160	-0.150	-0.630
2020/01/31 08:10:52.5	314.520	0.190	-0.150	-0.590
2020/01/31 08:10:52.6	314.520	0.230	-0.140	-0.550
2020/01/31 08:10:52.7	314.520	0.260	-0.130	-0.510
2020/01/31 08:10:52.8	314.520	0.290	-0.120	-0.460
2020/01/31 08:10:52.9	314.510	0.310	-0.110	-0.420
2020/01/31 08:10:53.0	314.500	0.340	-0.100	-0.370
2020/01/31 08:10:53.1	314.490	0.360	-0.090	-0.330
2020/01/31 08:10:53.2	314.480	0.380	-0.080	-0.280
2020/01/31 08:10:53.3	314.470	0.400	-0.070	-0.230
2020/01/31 08:10:53.4	314.450	0.420	-0.060	-0.190
2020/01/31 08:10:53.5	314.440	0.430	-0.050	-0.150
2020/01/31 08:10:53.6	314.420	0.440	-0.040	-0.100
2020/01/31 08:10:53.7	314.400	0.450	-0.030	-0.060
2020/01/31 08:10:53.8	314.380	0.460	-0.030	-0.020
2020/01/31 08:10:53.9	314.360	0.460	-0.020	0.020
2020/01/31 08:10:54.0	314.340	0.460	-0.020	0.060
2020/01/31 08:10:54.1	314.320	0.460	-0.020	0.090
2020/01/31 08:10:54.2	314.290	0.460	-0.010	0.120
2020/01/31 08:10:54.3	314.260	0.460	-0.020	0.150
2020/01/31 08:10:54.4	314.240	0.450	-0.020	0.180
2020/01/31 08:10:54.5	314.210	0.440	-0.020	0.200
2020/01/31 08:10:54.6	314.190	0.430	-0.030	0.220
2020/01/31 08:10:54.7	314.170	0.410	-0.030	0.240
2020/01/31 08:10:54.8	314.140	0.400	-0.040	0.250
2020/01/31 08:10:54.9	314.120	0.380	-0.050	0.260
2020/01/31 08:10:55.0	314.100	0.370	-0.060	0.260
2020/01/31 08:10:55.1	314.080	0.350	-0.070	0.260
2020/01/31 08:10:55.2	314.050	0.330	-0.090	0.260
2020/01/31 08:10:55.3	314.020	0.300	-0.090	0.250
2020/01/31 08:10:55.4	314.000	0.280	-0.100	0.240
2020/01/31 08:10:55.5	313.980	0.260	-0.110	0.230
2020/01/31 08:10:55.6	313.960	0.230	-0.130	0.220
2020/01/31 08:10:55.7	313.940	0.210	-0.140	0.200
2020/01/31 08:10:55.8	313.910	0.180	-0.150	0.190
2020/01/31 08:10:55.9	313.890	0.160	-0.150	0.170
2020/01/31 08:10:56.0	313.870	0.130	-0.160	0.150
2020/01/31 08:10:56.1	313.850	0.110	-0.170	0.130
2020/01/31 08:10:56.2	313.820	0.080	-0.170	0.110
2020/01/31 08:10:56.3	313.800	0.050	-0.180	0.090
2020/01/31 08:10:56.4	313.780	0.020	-0.180	0.070
2020/01/31 08:10:56.5	313.750	-0.000	-0.180	0.050
2020/01/31 08:10:56.6	313.720	-0.030	-0.170	0.030
2020/01/31 08:10:56.7	313.700	-0.060	-0.170	0.020
2020/01/31 08:10:56.8	313.670	-0.080	-0.170	-0.000
2020/01/31 08:10:56.9	313.640	-0.110	-0.160	-0.020
2020/01/31 08:10:57.0	313.620	-0.130	-0.160	-0.040
2020/01/31 08:10:57.1	313.590	-0.150	-0.150	-0.060
2020/01/31 08:10:57.2	313.570	-0.170	-0.140	-0.080
2020/01/31 08:10:57.3	313.560	-0.200	-0.140	-0.100
2020/01/31 08:10:57.4	313.530	-0.210	-0.130	-0.120
2020/01/31 08:10:57.5	313.510	-0.230	-0.130	-0.130
2020/01/31 08:10:57.6	313.490	-0.250	-0.130	-0.150
2020/01/31 08:10:57.7	313.470	-0.260	-0.130	-0.170
2020/01/31 08:10:57.8	313.450	-0.270	-0.130	-0.190
2020/01/31 08:10:57.9	313.430	-0.280	-0.140	-0.210
2020/01/31 08:10:58.0	313.410	-0.290	-0.140	-0.230
2020/01/31 08:10:58.1	313.400	-0.290	-0.150	-0.240
2020/01/31 08:10:58.2	313.390	-0.290	-0.170	-0.260
2020/01/31 08:10:58.3	313.380	-0.290	-0.180	-0.280
2020/01/31 08:10:58.4	313.380	-0.290	-0.200	-0.300
2020/01/31 08:10:58.5	313.370	-0.290	-0.220	-0.320
2020/01/31 08:10:58.6	313.370	-0.280	-0.240	-0.340
2020/01/31 08:10:58.7	313.370	-0.270	-0.270	-0.350
2020/01/31 08:10:58.8	313.370	-0.260	-0.300	-0.370
2020/01/31 08:10:58.9	313.370	-0.240	-0.330	-0.390
2020/01/31 08:10:59.0	313.380	-0.220	-0.360	-0.410
2020/01/31 08:10:59.1	313.380	-0.210	-0.390	-0.430
2020/01/31 08:10:59.2	313.390	-0.190	-0.430	-0.450
2020/01/31 08:10:59.3	313.410	-0.170	-0.460	-0.470
2020/01/31 08:10:59.4	313.420	-0.150	-0.500	-0.490
2020/01/31 08:10:59.5	313.440	-0.120	-0.530	-0.510
2020/01/31 08:10:59.6	313.450	-0.100	-0.570	-0.520
2020/01/31 08:10:59.7	313.470	-0.070	-0.600	-0.540
2020/01/31 08:10:59.8	313.490	-0.050	-0.630	-0.560
2020/01/31 08:10:59.9	313.510	-0.030	-0.660	-0.580
2020/01/31 08:11:00.0	313.530	-0.000	-0.690	-0.590
2020/01/31 08:11:00.1	313.550	0.020	-0.710	-0.610
2020/01/31 08:11:00.2	313.570	0.040	-0.740	-0.620
2020/01/31 08:11:00.3	313.590	0.060	-0.750	-0.640
2020/01/31 08:11:00.4	313.610	0.080	-0.770	-0.650
2020/01/31 08:11:00.5	313.640	0.100	-0.780	-0.660
2020/01/31 08:11:00.6	313.660	0.120	-0.790	-0.670
2020/01/31 08:11:00.7	313.680	0.140	-0.790	-0.680
2020/01/31 08:11:00.8	313.700	0.150	-0.790	-0.690
2020/01/31 08:11:00.9	313.720	0.170	-0.790	-0.690
2020/01/31 08:11:01.0	313.750	0.180	-0.780	-0.700
2020/01/31 08:11:01.1	313.770	0.190	-0.770	-0.700
2020/01/31 08:11:01.2	313.790	0.200	-0.760	-0.700
2020/01/31 08:11:01.3	313.810	0.200	-0.740	-0.700
2020/01/31 08:11:01.4	313.840	0.210	-0.720	-0.700
2020/01/31 08:11:01.5	313.860	0.210	-0.700	-0.690
2020/01/31 08:11:01.6	313.890	0.210	-0.670	-0.690
2020/01/31 08:11:01.7	313.910	0.210	-0.640	-0.680
2020/01/31 08:11:01.8	313.930	0.200	-0.610	-0.680
2020/01/31 08:11:01.9	313.960	0.200	-0.580	-0.670
2020/01/31 08:11:02.0	313.980	0.190	-0.550	-0.660
2020/01/31 08:11:02.1	314.010	0.180	-0.510	-0.660
2020/01/31 08:11:02.2	314.030	0.170	-0.480	-0.650
2020/01/31 08:11:02.3	314.060	0.150	-0.440	-0.630
2020/01/31 08:11:02.4	314.080	0.140	-0.400	-0.620
2020/01/31 08:11:02.5	314.110	0.120	-0.360	-0.610
2020/01/31 08:11:02.6	314.130	0.100	-0.320	-0.600
2020/01/31 08:11:02.7	314.150	0.080	-0.280	-0.590
2020/01/31 08:11:02.8	314.170	0.060	-0.240	-0.570
2020/01/31 08:11:02.9	314.190	0.040	-0.200	-0.560
2020/01/31 08:11:03.0	314.200	0.010	-0.160	-0.540
2020/01/31 08:11:03.1	314.220	-0.020	-0.110	-0.520
2020/01/31 08:11:03.2	314.230	-0.040	-0.070	-0.500
2020/01/31 08:11:03.3	314.230	-0.070	-0.030	-0.480
2020/01/31 08:11:03.4	314.240	-0.100	0.010	-0.450
2020/01/31 08:11:03.5	314.250	-0.130	0.050	-0.430
2020/01/31 08:11:03.6	314.260	-0.160	0.080	-0.400
2020/01/31 08:11:03.7	314.260	-0.180	0.120	-0.370
2020/01/31 08:11:03.8	314.260	-0.210	0.150	-0.340
2020/01/31 08:11:03.9	314.260	-0.240	0.180	-0.310
2020/01/31 08:11:04.0	314.260	-0.270	0.210	-0.280
2020/01/31 08:11:04.1	314.250	-0.290	0.230	-0.260
2020/01/31 08:11:04.2	314.240	-0.320	0.250	-0.230
2020/01/31 08:11:04.3	314.230	-0.340	0.270	-0.200
2020/01/31 08:11:04.4	314.220	-0.370	0.280	-0.170
2020/01/31 08:11:04.5	314.210	-0.390	0.290	-0.150
2020/01/31 08:11:04.6	314.190	-0.410	0.290	-0.130
2020/01/31 08:11:04.7	314.180	-0.420	0.290	-0.110
2020/01/31 08:11:04.8	314.160	-0.440	0.280	-0.090
2020/01/31 08:11:04.9	314.150	-0.450	0.270	-0.080
2020/01/31 08:11:05.0	314.130	-0.460	0.260	-0.060
2020/01/31 08:11:05.1	314.110	-0.460	0.250	-0.050
2020/01/31 08:11:05.2	314.090	-0.460	0.230	-0.040
2020/01/31 08:11:05.3	314.070	-0.460	0.200	-0.040
2020/01/31 08:11:05.4	314.050	-0.460	0.180	-0.030
2020/01/31 08:11:05.5	314.030	-0.450	0.150	-0.020
2020/01/31 08:11:05.6	314.010	-0.440	0.130	-0.020
2020/01/31 08:11:05.7	313.990	-0.430	0.100	-0.010
2020/01/31 08:11:05.8	313.970	-0.410	0.070	-0.000
2020/01/31 08:11:05.9	313.950	-0.390	0.040	0.010
2020/01/31 08:11:06.0	313.920	-0.370	0.010	0.020
2020/01/31 08:11:06.1	313.900	-0.350	-0.020	0.030
2020/01/31 08:11:06.2	313.870	-0.320	-0.040	0.050
2020/01/31 08:11:06.3	313.840	-0.290	-0.070	0.060
2020/01/31 08:11:06.4	313.810	-0.260	-0.090	0.080
2020/01/31 08:11:06.5	313.780	-0.220	-0.110	0.090
2020/01/31 08:11:06.6	313.750	-0.190	-0.130	0.110
2020/01/31 08:11:06.7	313.720	-0.160	-0.150	0.130
2020/01/31 08:11:06.8	313.690	-0.120	-0.160	0.150
2020/01/31 08:11:06.9	313.660	-0.080	-0.180	0.170
2020/01/31 08:11:07.0	313.630	-0.050	-0.190	0.190
2020/01/31 08:11:07.1	313.610	-0.010	-0.200	0.210
2020/01/31 08:11:07.2	313.580	0.020	-0.210	0.230
2020/01/31 08:11:07.3	313.560	0.060	-0.220	0.250
2020/01/31 08:11:07.4	313.530	0.090	-0.230	0.270
2020/01/31 08:11:07.5	313.510	0.130	-0.240	0.290
2020/01/31 08:11:07.6	313.490	0.160	-0.250	0.300
2020/01/31 08:11:07.7	313.480	0.190	-0.260	0.320
2020/01/31 08:11:07.8	313.460	0.220	-0.280	0.330
2020/01/31 08:11:07.9	313.450	0.240	-0.290	0.330
2020/01/31 08:11:08.0	313.440	0.270	-0.300	0.340
2020/01/31 08:11:08.1	313.430	0.290	-0.310	0.340
2020/01/31 08:11:08.2	313.430	0.310	-0.330	0.340
2020/01/31 08:11:08.3	313.430	0.330	-0.340	0.330
2020/01/31 08:11:08.4	313.430	0.350	-0.360	0.320
2020/01/31 08:11:08.5	313.430	0.370	-0.370	0.310
2020/01/31 08:11:08.6	313.440	0.380	-0.390	0.290
2020/01/31 08:11:08.7	313.450	0.390	-0.410	0.280
2020/01/31 08:11:08.8	313.460	0.400	-0.430	0.260
2020/01/31 08:11:08.9	313.470	0.410	-0.440	0.230
2020/01/31 08:11:09.0	313.490	0.420	-0.460	0.210
2020/01/31 08:11:09.1	313.500	0.420	-0.480	0.180
2020/01/31 08:11:09.2	313.520	0.420	-0.500	0.160
2020/01/31 08:11:09.3	313.540	0.420	-0.510	0.130
2020/01/31 08:11:09.4	313.550	0.420	-0.530	0.100
2020/01/31 08:11:09.5	313.570	0.420	-0.540	0.080
2020/01/31 08:11:09.6	313.590	0.410	-0.550	0.050
2020/01/31 08:11:09.7	313.600	0.410	-0.560	0.020
2020/01/31 08:11:09.8	313.620	0.400	-0.560	-0.000
2020/01/31 08:11:09.9	313.630	0.390	-0.570	-0.030
2020/01/31 08:11:10.0	313.640	0.380	-0.570	-0.050
2020/01/31 08:11:10.1	313.650	0.360	-0.560	-0.080
2020/01/31 08:11:10.2	313.660	0.350	-0.560	-0.100
2020/01/31 08:11:10.3	313.680	0.340	-0.550	-0.120
2020/01/31 08:11:10.4	313.690	0.320	-0.540	-0.140
2020/01/31 08:11:10.5	313.690	0.300	-0.520	-0.160
2020/01/31 08:11:10.6	313.690	0.280	-0.500	-0.180
2020/01/31 08:11:10.7	313.690	0.260	-0.480	-0.190
2020/01/31 08:11:10.8	313.690	0.240	-0.460	-0.210
2020/01/31 08:11:10.9	313.690	0.220	-0.430	-0.220
2020/01/31 08:11:11.0	313.690	0.200	-0.400	-0.230
2020/01/31 08:11:11.1	313.690	0.180	-0.370	-0.240
2020/01/31 08:11:11.2	313.680	0.160	-0.330	-0.250
2020/01/31 08:11:11.3	313.670	0.140	-0.300	-0.260
2020/01/31 08:11:11.4	313.660	0.120	-0.260	-0.260
2020/01/31 08:11:11.5	313.660	0.100	-0.220	-0.270
2020/01/31 08:11:11.6	313.650	0.080	-0.190	-0.270
2020/01/31 08:11:11.7	313.650	0.060	-0.150	-0.280
2020/01/31 08:11:11.8	313.640	0.040	-0.110	-0.280
2020/01/31 08:11:11.9	313.630	0.020	-0.080	-0.280
2020/01/31 08:11:12.0	313.630	-0.000	-0.050	-0.290
2020/01/31 08:11:12.1	313.620	-0.020	-0.010	-0.290
2020/01/31 08:11:12.2	313.620	-0.040	0.010	-0.290
2020/01/31 08:11:12.3	313.610	-0.060	0.040	-0.290
2020/01/31 08:11:12.4	313.610	-0.070	0.060	-0.300
2020/01/31 08:11:12.5	313.600	-0.090	0.080	-0.300
2020/01/31 08:11:12.6	313.600	-0.100	0.100	-0.300
2020/01/31 08:11:12.7	313.600	-0.110	0.110	-0.310
2020/01/31 08:11:12.8	313.600	-0.120	0.120	-0.310
2020/01/31 08:11:12.9	313.600	-0.130	0.120	-0.320
2020/01/31 08:11:13.0	313.600	-0.140	0.120	-0.330
2020/01/31 08:11:13.1	313.600	-0.150	0.120	-0.340
2020/01/31 08:11:13.2	313.600	-0.160	0.120	-0.340
2020/01/31 08:11:13.3	313.600	-0.160	0.110	-0.360
2020/01/31 08:11:13.4	313.610	-0.160	0.100	-0.360
2020/01/31 08:11:13.5	313.610	-0.170	0.080	-0.370
2020/01/31 08:11:13.6	313.620	-0.170	0.070	-0.380
2020/01/31 08:11:13.7	313.620	-0.170	0.050	-0.400
2020/01/31 08:11:13.8	313.630	-0.160	0.030	-0.410
2020/01/31 08:11:13.9	313.640	-0.160	0.010	-0.420
2020/01/31 08:11:14.0	313.650	-0.160	-0.020	-0.430
2020/01/31 08:11:14.1	313.660	-0.150	-0.040	-0.440
2020/01/31 08:11:14.2	313.670	-0.150	-0.070	-0.450
2020/01/31 08:11:14.3	313.690	-0.140	-0.090	-0.470
2020/01/31 08:11:14.4	313.700	-0.140	-0.120	-0.480
2020/01/31 08:11:14.5	313.720	-0.130	-0.150	-0.490
2020/01/31 08:11:14.6	313.730	-0.130	-0.180	-0.500
2020/01/31 08:11:14.7	313.750	-0.120	-0.210	-0.520
2020/01/31 08:11:14.8	313.760	-0.110	-0.240	-0.530
2020/01/31 08:11:14.9	313.770	-0.110	-0.260	-0.540
2020/01/31 08:11:15.0	313.790	-0.100	-0.290	-0.560
2020/01/31 08:11:15.1	313.800	-0.100	-0.320	-0.570
2020/01/31 08:11:15.2	313.810	-0.090	-0.340	-0.580
2020/01/31 08:11:15.3	313.830	-0.090	-0.370	-0.600
2020/01/31 08:11:15.4	313.840	-0.090	-0.390	-0.600
2020/01/31 08:11:15.5	313.850	-0.080	-0.400	-0.610
2020/01/31 08:11:15.6	313.860	-0.080	-0.420	-0.620
2020/01/31 08:11:15.7	313.860	-0.080	-0.430	-0.630
2020/01/31 08:11:15.8	313.870	-0.080	-0.440	-0.630
2020/01/31 08:11:15.9	313.870	-0.080	-0.450	-0.630
2020/01/31 08:11:16.0	313.870	-0.080	-0.450	-0.630
2020/01/31 08:11:16.1	313.880	-0.090	-0.460	-0.630
2020/01/31 08:11:16.2	313.880	-0.090	-0.460	-0.620
2020/01/31 08:11:16.3	313.880	-0.090	-0.450	-0.610
2020/01/31 08:11:16.4	313.880	-0.100	-0.450	-0.600
2020/01/31 08:11:16.5	313.880	-0.100	-0.440	-0.590
2020/01/31 08:11:16.6	313.880	-0.110	-0.440	-0.580
2020/01/31 08:11:16.7	313.880	-0.110	-0.430	-0.560
2020/01/31 08:11:16.8	313.880	-0.120	-0.420	-0.550
2020/01/31 08:11:16.9	313.880	-0.130	-0.410	-0.530
2020/01/31 08:11:17.0	313.890	-0.130	-0.400	-0.510
2020/01/31 08:11:17.1	313.890	-0.140	-0.400	-0.500
2020/01/31 08:11:17.2	313.890	-0.140	-0.390	-0.480
2020/01/31 08:11:17.3	313.890	-0.150	-0.380	-0.460
2020/01/31 08:11:17.4	313.900	-0.150	-0.370	-0.440
2020/01/31 08:11:17.5	313.900	-0.150	-0.360	-0.420
2020/01/31 08:11:17.6	313.910	-0.150	-0.350	-0.400
2020/01/31 08:11:17.7	313.910	-0.150	-0.340	-0.380
2020/01/31 08:11:17.8	313.920	-0.150	-0.330	-0.360
2020/01/31 08:11:17.9	313.930	-0.150	-0.330	-0.350
2020/01/31 08:11:18.0	313.940	-0.150	-0.320	-0.330
2020/01/31 08:11:18.1	313.950	-0.140	-0.310	-0.310
2020/01/31 08:11:18.2	313.960	-0.140	-0.310	-0.290
2020/01/31 08:11:18.3	313.980	-0.130	-0.300	-0.270
2020/01/31 08:11:18.4	313.990	-0.120	-0.290	-0.250
2020/01/31 08:11:18.5	314.000	-0.110	-0.280	-0.240
2020/01/31 08:11:18.6	314.010	-0.100	-0.280	-0.220
2020/01/31 08:11:18.7	314.020	-0.090	-0.270	-0.200
2020/01/31 08:11:18.8	314.020	-0.080	-0.260	-0.170
2020/01/31 08:11:18.9	314.030	-0.060	-0.260	-0.150
2020/01/31 08:11:19.0	314.030	-0.050	-0.250	-0.130
2020/01/31 08:11:19.1	314.040	-0.030	-0.240	-0.100
2020/01/31 08:11:19.2	314.040	-0.010	-0.240	-0.080
2020/01/31 08:11:19.3	314.030	0.000	-0.230	-0.050
2020/01/31 08:11:19.4	314.020	0.020	-0.220	-0.030
2020/01/31 08:11:19.5	314.020	0.040	-0.220	0.000
2020/01/31 08:11:19.6	314.010	0.050	-0.210	0.030
2020/01/31 08:11:19.7	314.000	0.070	-0.200	0.060
2020/01/31 08:11:19.8	313.990	0.090	-0.190	0.090
2020/01/31 08:11:19.9	313.970	0.100	-0.190	0.110
2020/01/31 08:11:20.0	313.960	0.120	-0.180	0.140
2020/01/31 08:11:20.1	313.940	0.130	-0.180	0.160
2020/01/31 08:11:20.2	313.930	0.140	-0.170	0.190
2020/01/31 08:11:20.3	313.910	0.160	-0.170	0.210
2020/01/31 08:11:20.4	313.890	0.170	-0.170	0.230
2020/01/31 08:11:20.5	313.870	0.180	-0.170	0.250
2020/01/31 08:11:20.6	313.850	0.190	-0.170	0.260
2020/01/31 08:11:20.7	313.840	0.190	-0.170	0.280
2020/01/31 08:11:20.8	313.820	0.200	-0.180	0.290
2020/01/31 08:11:20.9	313.800	0.200	-0.180	0.290
2020/01/31 08:11:21.0	313.790	0.210	-0.190	0.300
2020/01/31 08:11:21.1	313.770	0.210	-0.200	0.300
2020/01/31 08:11:21.2	313.750	0.210	-0.210	0.300
2020/01/31 08:11:21.3	313.730	0.210	-0.220	0.290
2020/01/31 08:11:21.4	313.720	0.210	-0.230	0.290
2020/01/31 08:11:21.5	313.710	0.200	-0.240	0.280
2020/01/31 08:11:21.6	313.690	0.200	-0.250	0.270
2020/01/31 08:11:21.7	313.680	0.190	-0.270	0.250
2020/01/31 08:11:21.8	313.670	0.190	-0.280	0.240
2020/01/31 08:11:21.9	313.670	0.180	-0.290	0.220
2020/01/31 08:11:22.0	313.660	0.170	-0.310	0.200
2020/01/31 08:11:22.1	313.650	0.160	-0.320	0.180
2020/01/31 08:11:22.2	313.650	0.150	-0.330	0.160
2020/01/31 08:11:22.3	313.650	0.140	-0.340	0.130
2020/01/31 08:11:22.4	313.640	0.140	-0.350	0.110
2020/01/31 08:11:22.5	313.640	0.130	-0.360	0.080
2020/01/31 08:11:22.6	313.640	0.120	-0.370	0.060
2020/01/31 08:11:22.7	313.640	0.110	-0.380	0.030
2020/01/31 08:11:22.8	313.650	0.100	-0.390	0.010
2020/01/31 08:11:22.9	313.650	0.090	-0.390	-0.020
2020/01/31 08:11:23.0	313.650	0.090	-0.390	-0.050
2020/01/31 08:11:23.1	313.660	0.080	-0.400	-0.070
2020/01/31 08:11:23.2	313.660	0.070	-0.390	-0.100
2020/01/31 08:11:23.3	313.670	0.070	-0.390	-0.120
2020/01/31 08:11:23.4	313.680	0.060	-0.390	-0.140
2020/01/31 08:11:23.5	313.680	0.060	-0.380	-0.170
2020/01/31 08:11:23.6	313.690	0.060	-0.370	-0.190
2020/01/31 08:11:23.7	313.690	0.050	-0.360	-0.210
2020/01/31 08:11:23.8	313.700	0.050	-0.350	-0.230
2020/01/31 08:11:23.9	313.710	0.050	-0.340	-0.240
2020/01/31 08:11:24.0	313.710	0.050	-0.330	-0.260
2020/01/31 08:11:24.1	313.720	0.050	-0.310	-0.270
2020/01/31 08:11:24.2	313.720	0.050	-0.300	-0.290
2020/01/31 08:11:24.3	313.720	0.050	-0.290	-0.300
2020/01/31 08:11:24.4	313.720	0.060	-0.270	-0.310
2020/01/31 08:11:24.5	313.730	0.060	-0.250	-0.320
2020/01/31 08:11:24.6	313.730	0.060	-0.240	-0.330
2020/01/31 08:11:24.7	313.740	0.060	-0.220	-0.330
2020/01/31 08:11:24.8	313.740	0.070	-0.200	-0.340
2020/01/31 08:11:24.9	313.750	0.070	-0.190	-0.340
2020/01/31 08:11:25.0	313.750	0.070	-0.170	-0.350
2020/01/31 08:11:25.1	313.760	0.070	-0.160	-0.350
2020/01/31 08:11:25.2	313.760	0.070	-0.140	-0.350
2020/01/31 08:11:25.3	313.760	0.070	-0.130	-0.350
2020/01/31 08:11:25.4	313.760	0.070	-0.110	-0.350
2020/01/31 08:11:25.5	313.760	0.070	-0.100	-0.340
2020/01/31 08:11:25.6	313.760	0.070	-0.090	-0.340
2020/01/31 08:11:25.7	313.760	0.060	-0.070	-0.330
2020/01/31 08:11:25.8	313.750	0.060	-0.060	-0.320
2020/01/31 08:11:25.9	313.740	0.050	-0.050	-0.320
2020/01/31 08:11:26.0	313.740	0.040	-0.040	-0.310
2020/01/31 08:11:26.1	313.730	0.030	-0.030	-0.300
2020/01/31 08:11:26.2	313.720	0.020	-0.020	-0.290
2020/01/31 08:11:26.3	313.710	0.010	-0.020	-0.280
2020/01/31 08:11:26.4	313.700	0.000	-0.010	-0.270
2020/01/31 08:11:26.5	313.690	-0.010	-0.000	-0.260
2020/01/31 08:11:26.6	313.670	-0.030	0.000	-0.260
2020/01/31 08:11:26.7	313.660	-0.040	0.010	-0.250
2020/01/31 08:11:26.8	313.650	-0.060	0.010	-0.240
2020/01/31 08:11:26.9	313.630	-0.070	0.020	-0.240
2020/01/31 08:11:27.0	313.620	-0.090	0.020	-0.240
2020/01/31 08:11:27.1	313.610	-0.110	0.030	-0.230
2020/01/31 08:11:27.2	313.590	-0.130	0.030	-0.230
2020/01/31 08:11:27.3	313.580	-0.140	0.030	-0.240
2020/01/31 08:11:27.4	313.570	-0.160	0.040	-0.240
2020/01/31 08:11:27.5	313.550	-0.180	0.040	-0.240
2020/01/31 08:11:27.6	313.540	-0.200	0.040	-0.250
2020/01/31 08:11:27.7	313.530	-0.210	0.040	-0.260
2020/01/31 08:11:27.8	313.520	-0.230	0.040	-0.270
2020/01/31 08:11:27.9	313.520	-0.250	0.040	-0.280
2020/01/31 08:11:28.0	313.510	-0.260	0.030	-0.300
2020/01/31 08:11:28.1	313.500	-0.270	0.030	-0.320
2020/01/31 08:11:28.2	313.500	-0.290	0.020	-0.330
2020/01/31 08:11:28.3	313.480	-0.300	0.020	-0.350
2020/01/31 08:11:28.4	313.480	-0.310	0.010	-0.370
2020/01/31 08:11:28.5	313.480	-0.320	0.000	-0.390
2020/01/31 08:11:28.6	313.480	-0.330	-0.010	-0.410
2020/01/31 08:11:28.7	313.480	-0.340	-0.020	-0.440
2020/01/31 08:11:28.8	313.480	-0.340	-0.030	-0.460
2020/01/31 08:11:28.9	313.480	-0.350	-0.040	-0.480
2020/01/31 08:11:29.0	313.490	-0.350	-0.050	-0.500
2020/01/31 08:11:29.1	313.490	-0.350	-0.070	-0.520
2020/01/31 08:11:29.2	313.490	-0.350	-0.080	-0.540
2020/01/31 08:11:29.3	313.510	-0.350	-0.100	-0.560
2020/01/31 08:11:29.4	313.520	-0.350	-0.110	-0.570
2020/01/31 08:11:29.5	313.520	-0.350	-0.130	-0.590
2020/01/31 08:11:29.6	313.530	-0.340	-0.150	-0.600
2020/01/31 08:11:29.7	313.540	-0.340	-0.170	-0.610
2020/01/31 08:11:29.8	313.540	-0.330	-0.180	-0.620
2020/01/31 08:11:29.9	313.550	-0.320	-0.200	-0.630
2020/01/31 08:11:30.0	313.560	-0.310	-0.220	-0.630
2020/01/31 08:11:30.1	313.560	-0.290	-0.240	-0.630
2020/01/31 08:11:30.2	313.570	-0.280	-0.260	-0.630
2020/01/31 08:11:30.3	313.590	-0.260	-0.270	-0.620
2020/01/31 08:11:30.4	313.600	-0.240	-0.290	-0.620
2020/01/31 08:11:30.5	313.600	-0.220	-0.310	-0.610
2020/01/31 08:11:30.6	313.610	-0.200	-0.330	-0.600
2020/01/31 08:11:30.7	313.620	-0.180	-0.350	-0.590
2020/01/31 08:11:30.8	313.620	-0.160	-0.360	-0.580
2020/01/31 08:11:30.9	313.630	-0.130	-0.380	-0.560
2020/01/31 08:11:31.0	313.640	-0.100	-0.400	-0.540
2020/01/31 08:11:31.1	313.640	-0.080	-0.420	-0.520
2020/01/31 08:11:31.2	313.650	-0.050	-0.430	-0.500
2020/01/31 08:11:31.3	313.660	-0.020	-0.450	-0.470
2020/01/31 08:11:31.4	313.670	0.010	-0.460	-0.440
2020/01/31 08:11:31.5	313.670	0.040	-0.480	-0.410
2020/01/31 08:11:31.6	313.680	0.070	-0.490	-0.380
2020/01/31 08:11:31.7	313.690	0.100	-0.510	-0.350
2020/01/31 08:11:31.8	313.700	0.140	-0.520	-0.310
2020/01/31 08:11:31.9	313.700	0.170	-0.530	-0.270
2020/01/31 08:11:32.0	313.710	0.200	-0.540	-0.230
2020/01/31 08:11:32.1	313.720	0.230	-0.540	-0.190
2020/01/31 08:11:32.2	313.730	0.260	-0.550	-0.150
2020/01/31 08:11:32.3	313.730	0.290	-0.550	-0.110
2020/01/31 08:11:32.4	313.740	0.310	-0.550	-0.070
2020/01/31 08:11:32.5	313.740	0.340	-0.550	-0.030
2020/01/31 08:11:32.6	313.750	0.360	-0.550	0.010
2020/01/31 08:11:32.7	313.760	0.380	-0.550	0.050
2020/01/31 08:11:32.8	313.770	0.400	-0.540	0.080
2020/01/31 08:11:32.9	313.780	0.420	-0.540	0.120
2020/01/31 08:11:33.0	313.790	0.430	-0.530	0.150
2020/01/31 08:11:33.1	313.790	0.450	-0.520	0.180
2020/01/31 08:11:33.2	313.800	0.450	-0.510	0.210
2020/01/31 08:11:33.3	313.810	0.460	-0.500	0.240
2020/01/31 08:11:33.4	313.810	0.470	-0.490	0.270
2020/01/31 08:11:33.5	313.820	0.470	-0.480	0.290
2020/01/31 08:11:33.6	313.820	0.470	-0.460	0.310
2020/01/31 08:11:33.7	313.820	0.460	-0.450	0.330
2020/01/31 08:11:33.8	313.830	0.460	-0.440	0.350
2020/01/31 08:11:33.9	313.830	0.450	-0.420	0.360
2020/01/31 08:11:34.0	313.820	0.440	-0.410	0.380
2020/01/31 08:11:34.1	313.820	0.420	-0.400	0.390
2020/01/31 08:11:34.2	313.820	0.410	-0.390	0.390
2020/01/31 08:11:34.3	313.820	0.390	-0.380	0.400
2020/01/31 08:11:34.4	313.820	0.370	-0.370	0.400
2020/01/31 08:11:34.5	313.810	0.360	-0.360	0.400
2020/01/31 08:11:34.6	313.800	0.340	-0.350	0.400
2020/01/31 08:11:34.7	313.800	0.310	-0.340	0.400
2020/01/31 08:11:34.8	313.790	0.290	-0.330	0.390
2020/01/31 08:11:34.9	313.790	0.270	-0.330	0.380
2020/01/31 08:11:35.0	313.780	0.250	-0.320	0.370
2020/01/31 08:11:35.1	313.770	0.230	-0.320	0.350
2020/01/31 08:11:35.2	313.770	0.210	-0.310	0.340
2020/01/31 08:11:35.3	313.760	0.190	-0.310	0.320
2020/01/31 08:11:35.4	313.750	0.170	-0.310	0.310
2020/01/31 08:11:35.5	313.740	0.150	-0.310	0.290
2020/01/31 08:11:35.6	313.730	0.130	-0.300	0.280
2020/01/31 08:11:35.7	313.720	0.120	-0.300	0.260
2020/01/31 08:11:35.8	313.710	0.100	-0.300	0.240
2020/01/31 08:11:35.9	313.700	0.090	-0.300	0.230
2020/01/31 08:11:36.0	313.690	0.080	-0.300	0.220
2020/01/31 08:11:36.1	313.670	0.060	-0.290	0.200
2020/01/31 08:11:36.2	313.660	0.050	-0.290	0.190
2020/01/31 08:11:36.3	313.640	0.040	-0.290	0.180
2020/01/31 08:11:36.4	313.620	0.040	-0.280	0.170
2020/01/31 08:11:36.5	313.610	0.030	-0.280	0.160
2020/01/31 08:11:36.6	313.590	0.020	-0.270	0.150
2020/01/31 08:11:36.7	313.580	0.020	-0.270	0.140
2020/01/31 08:11:36.8	313.570	0.010	-0.260	0.130
2020/01/31 08:11:36.9	313.550	0.010	-0.250	0.120
2020/01/31 08:11:37.0	313.540	0.000	-0.250	0.100
2020/01/31 08:11:37.1	313.530	-0.000	-0.240	0.090
2020/01/31 08:11:37.2	313.520	-0.010	-0.240	0.080
2020/01/31 08:11:37.3	313.510	-0.010	-0.230	0.060
2020/01/31 08:11:37.4	313.500	-0.010	-0.230	0.040
2020/01/31 08:11:37.5	313.490	-0.020	-0.230	0.020
2020/01/31 08:11:37.6	313.490	-0.020	-0.220	-0.010
2020/01/31 08:11:37.7	313.480	-0.030	-0.220	-0.030
2020/01/31 08:11:37.8	313.480	-0.030	-0.220	-0.060
2020/01/31 08:11:37.9	313.480	-0.040	-0.210	-0.090
2020/01/31 08:11:38.0	313.480	-0.040	-0.210	-0.130
2020/01/31 08:11:38.1	313.480	-0.050	-0.210	-0.160
2020/01/31 08:11:38.2	313.480	-0.060	-0.210	-0.190
2020/01/31 08:11:38.3	313.490	-0.060	-0.210	-0.230
2020/01/31 08:11:38.4	313.490	-0.070	-0.200	-0.260
2020/01/31 08:11:38.5	313.490	-0.080	-0.200	-0.300
2020/01/31 08:11:38.6	313.490	-0.090	-0.190	-0.330
2020/01/31 08:11:38.7	313.490	-0.100	-0.190	-0.360
2020/01/31 08:11:38.8	313.490	-0.110	-0.180	-0.400
2020/01/31 08:11:38.9	313.490	-0.120	-0.170	-0.430
2020/01/31 08:11:39.0	313.500	-0.130	-0.160	-0.460
2020/01/31 08:11:39.1	313.500	-0.140	-0.150	-0.490
2020/01/31 08:11:39.2	313.500	-0.160	-0.140	-0.510
2020/01/31 08:11:39.3	313.500	-0.170	-0.130	-0.530
2020/01/31 08:11:39.4	313.500	-0.180	-0.110	-0.560
2020/01/31 08:11:39.5	313.500	-0.200	-0.100	-0.580
2020/01/31 08:11:39.6	313.510	-0.210	-0.080	-0.600
2020/01/31 08:11:39.7	313.510	-0.220	-0.070	-0.620
2020/01/31 08:11:39.8	313.520	-0.240	-0.050	-0.640
2020/01/31 08:11:39.9	313.520	-0.250	-0.040	-0.650
2020/01/31 08:11:40.0	313.530	-0.270	-0.030	-0.670
2020/01/31 08:11:40.1	313.530	-0.280	-0.010	-0.690
2020/01/31 08:11:40.2	313.540	-0.290	-0.000	-0.700
2020/01/31 08:11:40.3	313.550	-0.300	0.010	-0.720
2020/01/31 08:11:40.4	313.560	-0.320	0.020	-0.730
2020/01/31 08:11:40.5	313.570	-0.330	0.030	-0.740
2020/01/31 08:11:40.6	313.580	-0.340	0.040	-0.760
2020/01/31 08:11:40.7	313.590	-0.350	0.040	-0.770
2020/01/31 08:11:40.8	313.600	-0.350	0.050	-0.780
2020/01/31 08:11:40.9	313.610	-0.360	0.060	-0.790
2020/01/31 08:11:41.0	313.620	-0.370	0.060	-0.800
2020/01/31 08:11:41.1	313.630	-0.370	0.070	-0.800
2020/01/31 08:11:41.2	313.640	-0.380	0.070	-0.810
2020/01/31 08:11:41.3	313.650	-0.380	0.080	-0.810
2020/01/31 08:11:41.4	313.650	-0.380	0.080	-0.810
2020/01/31 08:11:41.5	313.660	-0.380	0.090	-0.810
2020/01/31 08:11:41.6	313.660	-0.380	0.090	-0.800
2020/01/31 08:11:41.7	313.670	-0.380	0.100	-0.790
2020/01/31 08:11:41.8	313.670	-0.380	0.110	-0.780
2020/01/31 08:11:41.9	313.670	-0.370	0.110	-0.770
2020/01/31 08:11:42.0	313.670	-0.370	0.120	-0.760
2020/01/31 08:11:42.1	313.670	-0.360	0.130	-0.740
2020/01/31 08:11:42.2	313.670	-0.350	0.130	-0.720
2020/01/31 08:11:42.3	313.670	-0.350	0.140	-0.700
2020/01/31 08:11:42.4	313.670	-0.340	0.150	-0.680
2020/01/31 08:11:42.5	313.670	-0.330	0.150	-0.650
2020/01/31 08:11:42.6	313.670	-0.320	0.150	-0.630
2020/01/31 08:11:42.7	313.670	-0.310	0.150	-0.600
2020/01/31 08:11:42.8	313.660	-0.300	0.150	-0.570
2020/01/31 08:11:42.9	313.660	-0.290	0.150	-0.550
2020/01/31 08:11:43.0	313.660	-0.280	0.140	-0.520
2020/01/31 08:11:43.1	313.650	-0.260	0.130	-0.490
2020/01/31 08:11:43.2	313.650	-0.250	0.120	-0.470
2020/01/31 08:11:43.3	313.640	-0.240	0.110	-0.440
2020/01/31 08:11:43.4	313.640	-0.230	0.100	-0.420
2020/01/31 08:11:43.5	313.630	-0.210	0.080	-0.400
2020/01/31 08:11:43.6	313.620	-0.200	0.060	-0.370
2020/01/31 08:11:43.7	313.620	-0.180	0.040	-0.350
2020/01/31 08:11:43.8	313.610	-0.170	0.010	-0.330
2020/01/31 08:11:43.9	313.600	-0.150	-0.010	-0.310
2020/01/31 08:11:44.0	313.590	-0.130	-0.040	-0.300
2020/01/31 08:11:44.1	313.590	-0.120	-0.070	-0.280
2020/01/31 08:11:44.2	313.580	-0.100	-0.100	-0.260
2020/01/31 08:11:44.3	313.570	-0.080	-0.130	-0.240
2020/01/31 08:11:44.4	313.560	-0.060	-0.160	-0.230
2020/01/31 08:11:44.5	313.550	-0.040	-0.200	-0.210
2020/01/31 08:11:44.6	313.540	-0.020	-0.230	-0.190
2020/01/31 08:11:44.7	313.530	-0.000	-0.270	-0.170
2020/01/31 08:11:44.8	313.520	0.020	-0.310	-0.150
2020/01/31 08:11:44.9	313.510	0.040	-0.350	-0.130
2020/01/31 08:11:45.0	313.500	0.060	-0.380	-0.110
2020/01/31 08:11:45.1	313.500	0.080	-0.420	-0.090
2020/01/31 08:11:45.2	313.490	0.100	-0.460	-0.070
2020/01/31 08:11:45.3	313.480	0.120	-0.500	-0.040
2020/01/31 08:11:45.4	313.470	0.140	-0.540	-0.020
2020/01/31 08:11:45.5	313.470	0.160	-0.580	0.000
2020/01/31 08:11:45.6	313.460	0.190	-0.620	0.020
2020/01/31 08:11:45.7	313.450	0.210	-0.660	0.040
2020/01/31 08:11:45.8	313.450	0.230	-0.700	0.070
2020/01/31 08:11:45.9	313.440	0.260	-0.740	0.090
2020/01/31 08:11:46.0	313.440	0.280	-0.770	0.100
2020/01/31 08:11:46.1	313.440	0.300	-0.810	0.120
2020/01/31 08:11:46.2	313.440	0.330	-0.850	0.140
2020/01/31 08:11:46.3	313.430	0.350	-0.870	0.150
2020/01/31 08:11:46.4	313.430	0.370	-0.910	0.170
2020/01/31 08:11:46.5	313.440	0.400	-0.940	0.180
2020/01/31 08:11:46.6	313.440	0.420	-0.960	0.190
2020/01/31 08:11:46.7	313.440	0.440	-0.990	0.200
2020/01/31 08:11:46.8	313.440	0.470	-1.010	0.200
2020/01/31 08:11:46.9	313.440	0.490	-1.020	0.210
2020/01/31 08:11:47.0	313.450	0.510	-1.040	0.210
2020/01/31 08:11:47.1	313.450	0.530	-1.050	0.210
2020/01/31 08:11:47.2	313.460	0.550	-1.050	0.210
2020/01/31 08:11:47.3	313.460	0.570	-1.060	0.210
2020/01/31 08:11:47.4	313.470	0.580	-1.060	0.210
2020/01/31 08:11:47.5	313.480	0.600	-1.060	0.200
2020/01/31 08:11:47.6	313.490	0.610	-1.050	0.190
2020/01/31 08:11:47.7	313.510	0.620	-1.040	0.180
2020/01/31 08:11:47.8	313.520	0.620	-1.020	0.170
2020/01/31 08:11:47.9	313.540	0.630	-1.000	0.150
2020/01/31 08:11:48.0	313.550	0.630	-0.980	0.130
2020/01/31 08:11:48.1	313.570	0.630	-0.960	0.110
2020/01/31 08:11:48.2	313.590	0.620	-0.930	0.090
2020/01/31 08:11:48.3	313.620	0.610	-0.890	0.070
2020/01/31 08:11:48.4	313.650	0.600	-0.860	0.040
2020/01/31 08:11:48.5	313.670	0.590	-0.820	0.020
2020/01/31 08:11:48.6	313.700	0.570	-0.780	-0.010
2020/01/31 08:11:48.7	313.720	0.550	-0.730	-0.040
2020/01/31 08:11:48.8	313.750	0.520	-0.690	-0.070
2020/01/31 08:11:48.9	313.770	0.500	-0.640	-0.100
2020/01/31 08:11:49.0	313.800	0.460	-0.580	-0.120
2020/01/31 08:11:49.1	313.820	0.430	-0.530	-0.150
2020/01/31 08:11:49.2	313.840	0.400	-0.470	-0.180
2020/01/31 08:11:49.3	313.860	0.360	-0.410	-0.200
2020/01/31 08:11:49.4	313.870	0.320	-0.350	-0.230
2020/01/31 08:11:49.5	313.890	0.280	-0.290	-0.250
2020/01/31 08:11:49.6	313.900	0.240	-0.220	-0.270
2020/01/31 08:11:49.7	313.910	0.190	-0.160	-0.280
2020/01/31 08:11:49.8	313.920	0.150	-0.090	-0.300
2020/01/31 08:11:49.9	313.930	0.100	-0.030	-0.310
2020/01/31 08:11:50.0	313.930	0.060	0.040	-0.320
2020/01/31 08:11:50.1	313.930	0.010	0.110	-0.320
2020/01/31 08:11:50.2	313.930	-0.030	0.170	-0.330
2020/01/31 08:11:50.3	313.920	-0.080	0.230	-0.330
2020/01/31 08:11:50.4	313.920	-0.120	0.290	-0.330
2020/01/31 08:11:50.5	313.910	-0.160	0.350	-0.330
2020/01/31 08:11:50.6	313.900	-0.200	0.400	-0.330
2020/01/31 08:11:50.7	313.890	-0.240	0.450	-0.330
2020/01/31 08:11:50.8	313.880	-0.270	0.490	-0.320
2020/01/31 08:11:50.9	313.870	-0.310	0.530	-0.320
2020/01/31 08:11:51.0	313.860	-0.340	0.570	-0.320
2020/01/31 08:11:51.1	313.850	-0.360	0.600	-0.310
2020/01/31 08:11:51.2	313.840	-0.380	0.620	-0.300
2020/01/31 08:11:51.3	313.810	-0.400	0.640	-0.300
2020/01/31 08:11:51.4	313.790	-0.420	0.650	-0.290
2020/01/31 08:11:51.5	313.780	-0.430	0.660	-0.290
2020/01/31 08:11:51.6	313.770	-0.440	0.660	-0.280
2020/01/31 08:11:51.7	313.760	-0.450	0.660	-0.270
2020/01/31 08:11:51.8	313.740	-0.450	0.650	-0.270
2020/01/31 08:11:51.9	313.730	-0.440	0.630	-0.260
2020/01/31 08:11:52.0	313.720	-0.440	0.610	-0.250
2020/01/31 08:11:52.1	313.700	-0.430	0.590	-0.240
2020/01/31 08:11:52.2	313.690	-0.420	0.560	-0.230
2020/01/31 08:11:52.3	313.670	-0.410	0.530	-0.230
2020/01/31 08:11:52.4	313.660	-0.390	0.500	-0.220
2020/01/31 08:11:52.5	313.640	-0.370	0.460	-0.210
2020/01/31 08:11:52.6	313.630	-0.350	0.420	-0.200
2020/01/31 08:11:52.7	313.610	-0.330	0.380	-0.190
2020/01/31 08:11:52.8	313.590	-0.300	0.340	-0.180
2020/01/31 08:11:52.9	313.580	-0.280	0.290	-0.170
2020/01/31 08:11:53.0	313.560	-0.250	0.250	-0.160
2020/01/31 08:11:53.1	313.550	-0.230	0.200	-0.150
2020/01/31 08:11:53.2	313.530	-0.200	0.150	-0.140
2020/01/31 08:11:53.3	313.510	-0.180	0.110	-0.140
2020/01/31 08:11:53.4	313.500	-0.150	0.060	-0.130
2020/01/31 08:11:53.5	313.480	-0.130	0.010	-0.130
2020/01/31 08:11:53.6	313.470	-0.110	-0.040	-0.130
2020/01/31 08:11:53.7	313.460	-0.080	-0.080	-0.130
2020/01/31 08:11:53.8	313.450	-0.060	-0.130	-0.130
2020/01/31 08:11:53.9	313.430	-0.050	-0.170	-0.140
2020/01/31 08:11:54.0	313.420	-0.030	-0.210	-0.140
2020/01/31 08:11:54.1	313.410	-0.010	-0.250	-0.150
2020/01/31 08:11:54.2	313.400	-0.000	-0.290	-0.150
2020/01/31 08:11:54.3	313.390	0.010	-0.320	-0.160
2020/01/31 08:11:54.4	313.380	0.020	-0.350	-0.170
2020/01/31 08:11:54.5	313.370	0.020	-0.380	-0.180
2020/01/31 08:11:54.6	313.360	0.020	-0.410	-0.180
2020/01/31 08:11:54.7	313.350	0.030	-0.430	-0.190
2020/01/31 08:11:54.8	313.340	0.020	-0.440	-0.200
2020/01/31 08:11:54.9	313.320	0.020	-0.460	-0.200
2020/01/31 08:11:55.0	313.310	0.020	-0.470	-0.210
2020/01/31 08:11:55.1	313.300	0.010	-0.470	-0.210
2020/01/31 08:11:55.2	313.290	-0.000	-0.470	-0.210
2020/01/31 08:11:55.3	313.270	-0.010	-0.470	-0.210
2020/01/31 08:11:55.4	313.250	-0.020	-0.470	-0.210
2020/01/31 08:11:55.5	313.240	-0.040	-0.460	-0.210
2020/01/31 08:11:55.6	313.230	-0.050	-0.460	-0.210
2020/01/31 08:11:55.7	313.210	-0.060	-0.450	-0.210
2020/01/31 08:11:55.8	313.200	-0.080	-0.440	-0.210
2020/01/31 08:11:55.9	313.190	-0.090	-0.420	-0.210
2020/01/31 08:11:56.0	313.180	-0.110	-0.410	-0.200
2020/01/31 08:11:56.1	313.170	-0.120	-0.400	-0.200
2020/01/31 08:11:56.2	313.170	-0.140	-0.390	-0.200
2020/01/31 08:11:56.3	313.170	-0.150	-0.380	-0.200
2020/01/31 08:11:56.4	313.170	-0.160	-0.370	-0.200
2020/01/31 08:11:56.5	313.170	-0.170	-0.360	-0.200
2020/01/31 08:11:56.6	313.170	-0.180	-0.350	-0.200
2020/01/31 08:11:56.7	313.170	-0.190	-0.350	-0.210
2020/01/31 08:11:56.8	313.180	-0.200	-0.350	-0.210
2020/01/31 08:11:56.9	313.190	-0.210	-0.350	-0.220
2020/01/31 08:11:57.0	313.190	-0.210	-0.350	-0.230
2020/01/31 08:11:57.1	313.210	-0.210	-0.350	-0.240
2020/01/31 08:11:57.2	313.220	-0.220	-0.360	-0.250
2020/01/31 08:11:57.3	313.240	-0.220	-0.370	-0.270
2020/01/31 08:11:57.4	313.260	-0.210	-0.380	-0.280
2020/01/31 08:11:57.5	313.280	-0.210	-0.400	-0.300
2020/01/31 08:11:57.6	313.290	-0.210	-0.410	-0.320
2020/01/31 08:11:57.7	313.310	-0.200	-0.430	-0.330
2020/01/31 08:11:57.8	313.330	-0.200	-0.440	-0.350
2020/01/31 08:11:57.9	313.350	-0.190	-0.460	-0.360
2020/01/31 08:11:58.0	313.370	-0.180	-0.480	-0.380
2020/01/31 08:11:58.1	313.390	-0.170	-0.500	-0.400
2020/01/31 08:11:58.2	313.410	-0.160	-0.520	-0.410
2020/01/31 08:11:58.3	313.430	-0.150	-0.550	-0.420
2020/01/31 08:11:58.4	313.450	-0.140	-0.560	-0.440
2020/01/31 08:11:58.5	313.470	-0.130	-0.580	-0.450
2020/01/31 08:11:58.6	313.490	-0.120	-0.600	-0.460
2020/01/31 08:11:58.7	313.510	-0.110	-0.620	-0.470
2020/01/31 08:11:58.8	313.530	-0.100	-0.630	-0.480
2020/01/31 08:11:58.9	313.550	-0.080	-0.640	-0.480
2020/01/31 08:11:59.0	313.560	-0.070	-0.660	-0.490
2020/01/31 08:11:59.1	313.580	-0.060	-0.660	-0.490
2020/01/31 08:11:59.2	313.600	-0.050	-0.670	-0.490
2020/01/31 08:11:59.3	313.630	-0.030	-0.670	-0.500
2020/01/31 08:11:59.4	313.640	-0.020	-0.680	-0.500
2020/01/31 08:11:59.5	313.660	-0.010	-0.680	-0.500
2020/01/31 08:11:59.6	313.680	-0.000	-0.680	-0.500
2020/01/31 08:11:59.7	313.700	0.010	-0.680	-0.490
2020/01/31 08:11:59.8	313.720	0.020	-0.680	-0.490
2020/01/31 08:11:59.9	313.740	0.030	-0.680	-0.490
2020/01/31 08:12:00.0	313.760	0.040	-0.670	-0.490
2020/01/31 08:12:00.1	313.780	0.040	-0.670	-0.490
2020/01/31 08:12:00.2	313.800	0.050	-0.660	-0.490
2020/01/31 08:12:00.3	313.830	0.050	-0.650	-0.490
2020/01/31 08:12:00.4	313.850	0.060	-0.640	-0.490
2020/01/31 08:12:00.5	313.860	0.060	-0.630	-0.480
2020/01/31 08:12:00.6	313.880	0.070	-0.610	-0.480
2020/01/31 08:12:00.7	313.900	0.070	-0.600	-0.470
2020/01/31 08:12:00.8	313.910	0.070	-0.580	-0.460
2020/01/31 08:12:00.9	313.920	0.070	-0.550	-0.450
2020/01/31 08:12:01.0	313.930	0.070	-0.530	-0.440
2020/01/31 08:12:01.1	313.940	0.070	-0.500	-0.430
2020/01/31 08:12:01.2	313.940	0.070	-0.460	-0.410
2020/01/31 08:12:01.3	313.950	0.070	-0.430	-0.390
2020/01/31 08:12:01.4	313.950	0.070	-0.390	-0.370
2020/01/31 08:12:01.5	313.950	0.070	-0.350	-0.350
2020/01/31 08:12:01.6	313.940	0.060	-0.310	-0.330
2020/01/31 08:12:01.7	313.940	0.060	-0.270	-0.310
2020/01/31 08:12:01.8	313.930	0.060	-0.220	-0.280
2020/01/31 08:12:01.9	313.920	0.050	-0.180	-0.260
2020/01/31 08:12:02.0	313.910	0.050	-0.130	-0.230
2020/01/31 08:12:02.1	313.900	0.050	-0.080	-0.210
2020/01/31 08:12:02.2	313.890	0.050	-0.040	-0.190
2020/01/31 08:12:02.3	313.880	0.040	0.010	-0.160
2020/01/31 08:12:02.4	313.870	0.040	0.050	-0.140
2020/01/31 08:12:02.5	313.850	0.040	0.100	-0.120
2020/01/31 08:12:02.6	313.840	0.040	0.140	-0.100
2020/01/31 08:12:02.7	313.820	0.050	0.180	-0.070
2020/01/31 08:12:02.8	313.800	0.050	0.220	-0.050
2020/01/31 08:12:02.9	313.780	0.050	0.250	-0.030
2020/01/31 08:12:03.0	313.760	0.060	0.290	-0.010
2020/01/31 08:12:03.1	313.740	0.060	0.320	0.010
2020/01/31 08:12:03.2	313.720	0.070	0.350	0.030
2020/01/31 08:12:03.3	313.680	0.080	0.370	0.060
2020/01/31 08:12:03.4	313.650	0.080	0.400	0.080
2020/01/31 08:12:03.5	313.620	0.090	0.420	0.100
2020/01/31 08:12:03.6	313.590	0.100	0.430	0.120
2020/01/31 08:12:03.7	313.560	0.120	0.450	0.140
2020/01/31 08:12:03.8	313.530	0.130	0.450	0.160
2020/01/31 08:12:03.9	313.490	0.140	0.460	0.180
2020/01/31 08:12:04.0	313.460	0.160	0.460	0.200
2020/01/31 08:12:04.1	313.430	0.170	0.460	0.210
2020/01/31 08:12:04.2	313.390	0.190	0.460	0.230
2020/01/31 08:12:04.3	313.350	0.200	0.450	0.240
2020/01/31 08:12:04.4	313.320	0.220	0.430	0.240
2020/01/31 08:12:04.5	313.290	0.240	0.420	0.250
2020/01/31 08:12:04.6	313.260	0.250	0.400	0.250
2020/01/31 08:12:04.7	313.230	0.270	0.370	0.250
2020/01/31 08:12:04.8	313.210	0.290	0.340	0.240
2020/01/31 08:12:04.9	313.190	0.300	0.310	0.240
2020/01/31 08:12:05.0	313.170	0.320	0.280	0.220
2020/01/31 08:12:05.1	313.150	0.330	0.240	0.210
2020/01/31 08:12:05.2	313.130	0.350	0.200	0.190
2020/01/31 08:12:05.3	313.120	0.360	0.160	0.170
2020/01/31 08:12:05.4	313.100	0.370	0.110	0.150
2020/01/31 08:12:05.5	313.090	0.380	0.060	0.120
2020/01/31 08:12:05.6	313.090	0.390	0.020	0.090
2020/01/31 08:12:05.7	313.080	0.400	-0.030	0.060
2020/01/31 08:12:05.8	313.080	0.410	-0.080	0.030
2020/01/31 08:12:05.9	313.070	0.410	-0.120	0.000
2020/01/31 08:12:06.0	313.070	0.410	-0.170	-0.030
2020/01/31 08:12:06.1	313.070	0.410	-0.210	-0.060
2020/01/31 08:12:06.2	313.060	0.410	-0.250	-0.090
2020/01/31 08:12:06.3	313.060	0.410	-0.300	-0.120
2020/01/31 08:12:06.4	313.060	0.400	-0.330	-0.150
2020/01/31 08:12:06.5	313.060	0.390	-0.370	-0.180
2020/01/31 08:12:06.6	313.060	0.380	-0.400	-0.200
2020/01/31 08:12:06.7	313.060	0.370	-0.420	-0.230
2020/01/31 08:12:06.8	313.060	0.350	-0.450	-0.260
2020/01/31 08:12:06.9	313.070	0.330	-0.470	-0.280
2020/01/31 08:12:07.0	313.070	0.320	-0.490	-0.300
2020/01/31 08:12:07.1	313.070	0.300	-0.500	-0.320
2020/01/31 08:12:07.2	313.080	0.270	-0.520	-0.350
2020/01/31 08:12:07.3	313.100	0.250	-0.530	-0.370
2020/01/31 08:12:07.4	313.100	0.220	-0.540	-0.390
2020/01/31 08:12:07.5	313.110	0.200	-0.550	-0.410
2020/01/31 08:12:07.6	313.120	0.170	-0.550	-0.430
2020/01/31 08:12:07.7	313.130	0.140	-0.560	-0.450
2020/01/31 08:12:07.8	313.140	0.120	-0.560	-0.470
2020/01/31 08:12:07.9	313.150	0.090	-0.560	-0.490
2020/01/31 08:12:08.0	313.150	0.060	-0.570	-0.500
2020/01/31 08:12:08.1	313.160	0.030	-0.570	-0.520
2020/01/31 08:12:08.2	313.170	0.000	-0.570	-0.540
2020/01/31 08:12:08.3	313.180	-0.030	-0.580	-0.550
2020/01/31 08:12:08.4	313.190	-0.050	-0.580	-0.570
2020/01/31 08:12:08.5	313.200	-0.080	-0.580	-0.580
2020/01/31 08:12:08.6	313.200	-0.110	-0.580	-0.600
2020/01/31 08:12:08.7	313.210	-0.130	-0.580	-0.610
2020/01/31 08:12:08.8	313.220	-0.150	-0.590	-0.630
2020/01/31 08:12:08.9	313.220	-0.180	-0.590	-0.640
2020/01/31 08:12:09.0	313.230	-0.200	-0.590	-0.650
2020/01/31 08:12:09.1	313.230	-0.220	-0.600	-0.670
2020/01/31 08:12:09.2	313.240	-0.240	-0.600	-0.680
2020/01/31 08:12:09.3	313.250	-0.250	-0.600	-0.700
2020/01/31 08:12:09.4	313.250	-0.270	-0.610	-0.710
2020/01/31 08:12:09.5	313.260	-0.290	-0.620	-0.720
2020/01/31 08:12:09.6	313.270	-0.300	-0.630	-0.740
2020/01/31 08:12:09.7	313.280	-0.310	-0.640	-0.760
2020/01/31 08:12:09.8	313.290	-0.330	-0.650	-0.770
2020/01/31 08:12:09.9	313.300	-0.340	-0.660	-0.790
2020/01/31 08:12:10.0	313.310	-0.350	-0.670	-0.810
2020/01/31 08:12:10.1	313.320	-0.360	-0.680	-0.830
2020/01/31 08:12:10.2	313.330	-0.370	-0.700	-0.850
2020/01/31 08:12:10.3	313.330	-0.380	-0.720	-0.870
2020/01/31 08:12:10.4	313.350	-0.380	-0.730	-0.890
2020/01/31 08:12:10.5	313.360	-0.390	-0.740	-0.910
2020/01/31 08:12:10.6	313.380	-0.400	-0.750	-0.920
2020/01/31 08:12:10.7	313.400	-0.410	-0.760	-0.940
2020/01/31 08:12:10.8	313.420	-0.410	-0.770	-0.960
2020/01/31 08:12:10.9	313.440	-0.420	-0.770	-0.980
2020/01/31 08:12:11.0	313.460	-0.420	-0.780	-1.000
2020/01/31 08:12:11.1	313.480	-0.430	-0.780	-1.020
2020/01/31 08:12:11.2	313.500	-0.440	-0.770	-1.030
2020/01/31 08:12:11.3	313.540	-0.440	-0.760	-1.050
2020/01/31 08:12:11.4	313.560	-0.450	-0.750	-1.060
2020/01/31 08:12:11.5	313.580	-0.450	-0.740	-1.070
2020/01/31 08:12:11.6	313.600	-0.460	-0.710	-1.080
2020/01/31 08:12:11.7	313.630	-0.470	-0.690	-1.080
2020/01/31 08:12:11.8	313.650	-0.470	-0.660	-1.080
2020/01/31 08:12:11.9	313.660	-0.480	-0.620	-1.080
2020/01/31 08:12:12.0	313.680	-0.480	-0.580	-1.070
2020/01/31 08:12:12.1	313.700	-0.490	-0.530	-1.060
2020/01/31 08:12:12.2	313.710	-0.490	-0.480	-1.050
2020/01/31 08:12:12.3	313.720	-0.500	-0.420	-1.030
2020/01/31 08:12:12.4	313.730	-0.500	-0.360	-1.000
2020/01/31 08:12:12.5	313.740	-0.510	-0.300	-0.970
2020/01/31 08:12:12.6	313.740	-0.510	-0.230	-0.940
2020/01/31 08:12:12.7	313.740	-0.510	-0.150	-0.900
2020/01/31 08:12:12.8	313.740	-0.510	-0.080	-0.850
2020/01/31 08:12:12.9	313.740	-0.510	-0.000	-0.800
2020/01/31 08:12:13.0	313.730	-0.510	0.080	-0.740
2020/01/31 08:12:13.1	313.720	-0.510	0.160	-0.680
2020/01/31 08:12:13.2	313.700	-0.510	0.240	-0.620
2020/01/31 08:12:13.3	313.690	-0.500	0.320	-0.540
2020/01/31 08:12:13.4	313.670	-0.500	0.400	-0.470
2020/01/31 08:12:13.5	313.640	-0.490	0.480	-0.400
2020/01/31 08:12:13.6	313.620	-0.480	0.550	-0.320
2020/01/31 08:12:13.7	313.590	-0.470	0.620	-0.250
2020/01/31 08:12:13.8	313.560	-0.460	0.680	-0.170
2020/01/31 08:12:13.9	313.530	-0.450	0.740	-0.090
2020/01/31 08:12:14.0	313.500	-0.430	0.790	-0.020
2020/01/31 08:12:14.1	313.460	-0.410	0.830	0.060
2020/01/31 08:12:14.2	313.430	-0.400	0.870	0.130
2020/01/31 08:12:14.3	313.380	-0.370	0.910	0.200
2020/01/31 08:12:14.4	313.340	-0.350	0.930	0.270
2020/01/31 08:12:14.5	313.310	-0.330	0.950	0.330
2020/01/31 08:12:14.6	313.270	-0.300	0.950	0.390
2020/01/31 08:12:14.7	313.230	-0.270	0.950	0.450
2020/01/31 08:12:14.8	313.200	-0.240	0.940	0.510
2020/01/31 08:12:14.9	313.160	-0.200	0.930	0.550
2020/01/31 08:12:15.0	313.120	-0.170	0.900	0.600
2020/01/31 08:12:15.1	313.090	-0.130	0.870	0.640
2020/01/31 08:12:15.2	313.060	-0.090	0.820	0.670
2020/01/31 08:12:15.3	313.020	-0.050	0.770	0.700
2020/01/31 08:12:15.4	312.990	-0.010	0.720	0.720
2020/01/31 08:12:15.5	312.970	0.040	0.650	0.740
2020/01/31 08:12:15.6	312.940	0.080	0.590	0.750
2020/01/31 08:12:15.7	312.920	0.130	0.510	0.760
2020/01/31 08:12:15.8	312.900	0.180	0.430	0.760
2020/01/31 08:12:15.9	312.890	0.220	0.350	0.760
2020/01/31 08:12:16.0	312.880	0.270	0.260	0.750
2020/01/31 08:12:16.1	312.870	0.320	0.170	0.740
2020/01/31 08:12:16.2	312.860	0.370	0.080	0.720
2020/01/31 08:12:16.3	312.860	0.410	-0.010	0.690
2020/01/31 08:12:16.4	312.850	0.460	-0.100	0.670
2020/01/31 08:12:16.5	312.860	0.510	-0.190	0.640
2020/01/31 08:12:16.6	312.860	0.550	-0.280	0.620
2020/01/31 08:12:16.7	312.860	0.590	-0.370	0.590
2020/01/31 08:12:16.8	312.870	0.630	-0.450	0.550
2020/01/31 08:12:16.9	312.880	0.670	-0.530	0.520
2020/01/31 08:12:17.0	312.890	0.710	-0.600	0.480
2020/01/31 08:12:17.1	312.900	0.740	-0.680	0.440
2020/01/31 08:12:17.2	312.910	0.770	-0.740	0.400
2020/01/31 08:12:17.3	312.920	0.800	-0.800	0.360
2020/01/31 08:12:17.4	312.930	0.820	-0.860	0.320
2020/01/31 08:12:17.5	312.950	0.840	-0.910	0.280
2020/01/31 08:12:17.6	312.970	0.860	-0.950	0.240
2020/01/31 08:12:17.7	313.000	0.870	-0.990	0.200
2020/01/31 08:12:17.8	313.020	0.880	-1.020	0.150
2020/01/31 08:12:17.9	313.040	0.890	-1.050	0.110
2020/01/31 08:12:18.0	313.070	0.890	-1.070	0.060
2020/01/31 08:12:18.1	313.100	0.890	-1.080	0.020
2020/01/31 08:12:18.2	313.130	0.890	-1.090	-0.020
2020/01/31 08:12:18.3	313.160	0.880	-1.090	-0.070
2020/01/31 08:12:18.4	313.190	0.860	-1.090	-0.110
2020/01/31 08:12:18.5	313.220	0.850	-1.090	-0.150
2020/01/31 08:12:18.6	313.250	0.830	-1.080	-0.200
2020/01/31 08:12:18.7	313.270	0.810	-1.060	-0.240
2020/01/31 08:12:18.8	313.310	0.780	-1.040	-0.280
2020/01/31 08:12:18.9	313.340	0.750	-1.020	-0.320
2020/01/31 08:12:19.0	313.370	0.720	-0.990	-0.360
2020/01/31 08:12:19.1	313.390	0.680	-0.960	-0.410
2020/01/31 08:12:19.2	313.420	0.650	-0.930	-0.450
2020/01/31 08:12:19.3	313.470	0.610	-0.890	-0.480
2020/01/31 08:12:19.4	313.500	0.570	-0.850	-0.520
2020/01/31 08:12:19.5	313.530	0.530	-0.820	-0.560
2020/01/31 08:12:19.6	313.560	0.480	-0.770	-0.600
2020/01/31 08:12:19.7	313.580	0.440	-0.730	-0.630
2020/01/31 08:12:19.8	313.600	0.390	-0.690	-0.670
2020/01/31 08:12:19.9	313.620	0.340	-0.650	-0.700
2020/01/31 08:12:20.0	313.640	0.300	-0.610	-0.730
2020/01/31 08:12:20.1	313.660	0.250	-0.570	-0.760
2020/01/31 08:12:20.2	313.680	0.210	-0.530	-0.780
2020/01/31 08:12:20.3	313.690	0.160	-0.490	-0.800
2020/01/31 08:12:20.4	313.700	0.110	-0.450	-0.820
2020/01/31 08:12:20.5	313.710	0.070	-0.410	-0.830
2020/01/31 08:12:20.6	313.720	0.030	-0.380	-0.850
2020/01/31 08:12:20.7	313.720	-0.010	-0.350	-0.860
2020/01/31 08:12:20.8	313.730	-0.050	-0.320	-0.860
2020/01/31 08:12:20.9	313.730	-0.090	-0.290	-0.870
2020/01/31 08:12:21.0	313.740	-0.130	-0.260	-0.880
2020/01/31 08:12:21.1	313.740	-0.160	-0.240	-0.880
2020/01/31 08:12:21.2	313.740	-0.190	-0.230	-0.880
2020/01/31 08:12:21.3	313.740	-0.220	-0.210	-0.880
2020/01/31 08:12:21.4	313.740	-0.240	-0.190	-0.880
2020/01/31 08:12:21.5	313.740	-0.270	-0.180	-0.870
2020/01/31 08:12:21.6	313.730	-0.290	-0.180	-0.870
2020/01/31 08:12:21.7	313.730	-0.300	-0.170	-0.860
2020/01/31 08:12:21.8	313.720	-0.320	-0.170	-0.860
2020/01/31 08:12:21.9	313.720	-0.330	-0.170	-0.850
2020/01/31 08:12:22.0	313.710	-0.340	-0.160	-0.830
2020/01/31 08:12:22.1	313.700	-0.350	-0.170	-0.820
2020/01/31 08:12:22.2	313.690	-0.350	-0.170	-0.800
2020/01/31 08:12:22.3	313.680	-0.350	-0.170	-0.790
2020/01/31 08:12:22.4	313.670	-0.350	-0.170	-0.770
2020/01/31 08:12:22.5	313.650	-0.350	-0.170	-0.740
2020/01/31 08:12:22.6	313.640	-0.350	-0.170	-0.720
2020/01/31 08:12:22.7	313.620	-0.340	-0.180	-0.700
2020/01/31 08:12:22.8	313.610	-0.340	-0.180	-0.670
2020/01/31 08:12:22.9	313.590	-0.330	-0.180	-0.640
2020/01/31 08:12:23.0	313.570	-0.330	-0.180	-0.620
2020/01/31 08:12:23.1	313.550	-0.320	-0.180	-0.590
2020/01/31 08:12:23.2	313.530	-0.320	-0.180	-0.560
2020/01/31 08:12:23.3	313.510	-0.310	-0.180	-0.540
2020/01/31 08:12:23.4	313.490	-0.310	-0.180	-0.510
2020/01/31 08:12:23.5	313.470	-0.310	-0.170	-0.490
2020/01/31 08:12:23.6	313.440	-0.300	-0.170	-0.460
2020/01/31 08:12:23.7	313.430	-0.300	-0.170	-0.440
2020/01/31 08:12:23.8	313.410	-0.300	-0.160	-0.420
2020/01/31 08:12:23.9	313.390	-0.300	-0.160	-0.410
2020/01/31 08:12:24.0	313.370	-0.300	-0.150	-0.390
2020/01/31 08:12:24.1	313.350	-0.300	-0.140	-0.380
2020/01/31 08:12:24.2	313.340	-0.310	-0.140	-0.370
2020/01/31 08:12:24.3	313.330	-0.310	-0.120	-0.360
2020/01/31 08:12:24.4	313.310	-0.320	-0.120	-0.350
2020/01/31 08:12:24.5	313.300	-0.320	-0.110	-0.350
2020/01/31 08:12:24.6	313.290	-0.330	-0.100	-0.340
2020/01/31 08:12:24.7	313.280	-0.340	-0.090	-0.340
2020/01/31 08:12:24.8	313.270	-0.350	-0.080	-0.330
2020/01/31 08:12:24.9	313.260	-0.360	-0.070	-0.330
2020/01/31 08:12:25.0	313.250	-0.370	-0.060	-0.330
2020/01/31 08:12:25.1	313.250	-0.380	-0.050	-0.330
2020/01/31 08:12:25.2	313.240	-0.380	-0.040	-0.320
2020/01/31 08:12:25.3	313.250	-0.390	-0.040	-0.320
2020/01/31 08:12:25.4	313.250	-0.400	-0.030	-0.320
2020/01/31 08:12:25.5	313.240	-0.410	-0.020	-0.320
2020/01/31 08:12:25.6	313.240	-0.410	-0.010	-0.320
2020/01/31 08:12:25.7	313.250	-0.420	-0.010	-0.320
2020/01/31 08:12:25.8	313.250	-0.420	0.000	-0.320
2020/01/31 08:12:25.9	313.250	-0.420	0.010	-0.320
2020/01/31 08:12:26.0	313.260	-0.420	0.010	-0.330
2020/01/31 08:12:26.1	313.260	-0.420	0.020	-0.330
2020/01/31 08:12:26.2	313.270	-0.420	0.020	-0.330
2020/01/31 08:12:26.3	313.270	-0.420	0.030	-0.340
2020/01/31 08:12:26.4	313.280	-0.410	0.030	-0.340
2020/01/31 08:12:26.5	313.290	-0.400	0.030	-0.350
2020/01/31 08:12:26.6	313.300	-0.400	0.030	-0.360
2020/01/31 08:12:26.7	313.300	-0.380	0.040	-0.360
2020/01/31 08:12:26.8	313.310	-0.370	0.040	-0.370
2020/01/31 08:12:26.9	313.320	-0.360	0.040	-0.380
2020/01/31 08:12:27.0	313.330	-0.340	0.040	-0.380
2020/01/31 08:12:27.1	313.330	-0.320	0.040	-0.390
2020/01/31 08:12:27.2	313.340	-0.300	0.050	-0.390
2020/01/31 08:12:27.3	313.350	-0.280	0.050	-0.390
2020/01/31 08:12:27.4	313.350	-0.260	0.050	-0.400
2020/01/31 08:12:27.5	313.360	-0.230	0.060	-0.400
2020/01/31 08:12:27.6	313.360	-0.210	0.060	-0.400
2020/01/31 08:12:27.7	313.360	-0.180	0.070	-0.400
2020/01/31 08:12:27.8	313.370	-0.160	0.070	-0.400
2020/01/31 08:12:27.9	313.370	-0.130	0.080	-0.400
2020/01/31 08:12:28.0	313.370	-0.100	0.080	-0.390
2020/01/31 08:12:28.1	313.370	-0.080	0.090	-0.390
2020/01/31 08:12:28.2	313.370	-0.050	0.100	-0.390
2020/01/31 08:12:28.3	313.370	-0.020	0.110	-0.380
2020/01/31 08:12:28.4	313.370	0.000	0.120	-0.380
2020/01/31 08:12:28.5	313.360	0.030	0.120	-0.370
2020/01/31 08:12:28.6	313.360	0.050	0.130	-0.370
2020/01/31 08:12:28.7	313.360	0.080	0.140	-0.360
2020/01/31 08:12:28.8	313.360	0.100	0.140	-0.350
2020/01/31 08:12:28.9	313.350	0.130	0.150	-0.350
2020/01/31 08:12:29.0	313.350	0.150	0.150	-0.340
2020/01/31 08:12:29.1	313.350	0.170	0.150	-0.330
2020/01/31 08:12:29.2	313.340	0.190	0.140	-0.330
2020/01/31 08:12:29.3	313.340	0.200	0.140	-0.320
2020/01/31 08:12:29.4	313.330	0.220	0.130	-0.310
2020/01/31 08:12:29.5	313.330	0.240	0.120	-0.300
2020/01/31 08:12:29.6	313.320	0.250	0.110	-0.290
2020/01/31 08:12:29.7	313.310	0.260	0.100	-0.280
2020/01/31 08:12:29.8	313.310	0.270	0.080	-0.280
2020/01/31 08:12:29.9	313.300	0.280	0.060	-0.270
2020/01/31 08:12:30.0	313.290	0.290	0.040	-0.260
2020/01/31 08:12:30.1	313.290	0.290	0.010	-0.260
2020/01/31 08:12:30.2	313.280	0.300	-0.020	-0.250
2020/01/31 08:12:30.3	313.270	0.300	-0.050	-0.250
2020/01/31 08:12:30.4	313.270	0.300	-0.080	-0.250
2020/01/31 08:12:30.5	313.260	0.300	-0.120	-0.250
2020/01/31 08:12:30.6	313.260	0.300	-0.160	-0.250
2020/01/31 08:12:30.7	313.260	0.290	-0.200	-0.260
2020/01/31 08:12:30.8	313.260	0.290	-0.240	-0.270
2020/01/31 08:12:30.9	313.260	0.280	-0.280	-0.270
2020/01/31 08:12:31.0	313.260	0.270	-0.330	-0.290
2020/01/31 08:12:31.1	313.260	0.260	-0.370	-0.300
2020/01/31 08:12:31.2	313.270	0.250	-0.420	-0.310
2020/01/31 08:12:31.3	313.280	0.240	-0.460	-0.330
2020/01/31 08:12:31.4	313.290	0.230	-0.510	-0.350
2020/01/31 08:12:31.5	313.300	0.220	-0.550	-0.370
2020/01/31 08:12:31.6	313.310	0.210	-0.600	-0.390
2020/01/31 08:12:31.7	313.320	0.200	-0.640	-0.420
2020/01/31 08:12:31.8	313.340	0.180	-0.690	-0.440
2020/01/31 08:12:31.9	313.350	0.170	-0.730	-0.460
2020/01/31 08:12:32.0	313.370	0.160	-0.770	-0.490
2020/01/31 08:12:32.1	313.390	0.150	-0.810	-0.510
2020/01/31 08:12:32.2	313.410	0.140	-0.850	-0.530
2020/01/31 08:12:32.3	313.430	0.120	-0.890	-0.560
2020/01/31 08:12:32.4	313.450	0.110	-0.930	-0.580
2020/01/31 08:12:32.5	313.470	0.100	-0.960	-0.600
2020/01/31 08:12:32.6	313.500	0.090	-0.990	-0.620
2020/01/31 08:12:32.7	313.520	0.080	-1.010	-0.650
2020/01/31 08:12:32.8	313.550	0.080	-1.040	-0.660
2020/01/31 08:12:32.9	313.570	0.070	-1.060	-0.680
2020/01/31 08:12:33.0	313.600	0.060	-1.080	-0.700
2020/01/31 08:12:33.1	313.620	0.060	-1.090	-0.720
2020/01/31 08:12:33.2	313.640	0.050	-1.100	-0.730
2020/01/31 08:12:33.3	313.660	0.050	-1.110	-0.750
2020/01/31 08:12:33.4	313.690	0.050	-1.110	-0.760
2020/01/31 08:12:33.5	313.700	0.050	-1.110	-0.760
2020/01/31 08:12:33.6	313.720	0.050	-1.110	-0.770
2020/01/31 08:12:33.7	313.740	0.050	-1.100	-0.770
2020/01/31 08:12:33.8	313.750	0.050	-1.090	-0.770
2020/01/31 08:12:33.9	313.760	0.050	-1.080	-0.760
2020/01/31 08:12:34.0	313.780	0.060	-1.060	-0.760
2020/01/31 08:12:34.1	313.790	0.060	-1.030	-0.750
2020/01/31 08:12:34.2	313.790	0.070	-1.010	-0.730
2020/01/31 08:12:34.3	313.800	0.080	-0.980	-0.710
2020/01/31 08:12:34.4	313.800	0.080	-0.940	-0.690
2020/01/31 08:12:34.5	313.810	0.090	-0.910	-0.670
2020/01/31 08:12:34.6	313.810	0.100	-0.870	-0.640
2020/01/31 08:12:34.7	313.820	0.110	-0.830	-0.620
2020/01/31 08:12:34.8	313.820	0.120	-0.790	-0.590
2020/01/31 08:12:34.9	313.820	0.140	-0.750	-0.550
2020/01/31 08:12:35.0	313.830	0.150	-0.700	-0.520
2020/01/31 08:12:35.1	313.830	0.160	-0.660	-0.490
2020/01/31 08:12:35.2	313.830	0.170	-0.610	-0.450
2020/01/31 08:12:35.3	313.830	0.190	-0.560	-0.410
2020/01/31 08:12:35.4	313.840	0.200	-0.520	-0.370
2020/01/31 08:12:35.5	313.840	0.210	-0.470	-0.340
2020/01/31 08:12:35.6	313.840	0.220	-0.420	-0.300
2020/01/31 08:12:35.7	313.840	0.240	-0.370	-0.260
2020/01/31 08:12:35.8	313.840	0.250	-0.320	-0.220
2020/01/31 08:12:35.9	313.840	0.260	-0.260	-0.180
2020/01/31 08:12:36.0	313.840	0.270	-0.210	-0.140
2020/01/31 08:12:36.1	313.840	0.280	-0.160	-0.100
2020/01/31 08:12:36.2	313.840	0.290	-0.110	-0.060
2020/01/31 08:12:36.3	313.850	0.300	-0.050	-0.020
2020/01/31 08:12:36.4	313.850	0.300	-0.000	0.020
2020/01/31 08:12:36.5	313.840	0.310	0.050	0.050
2020/01/31 08:12:36.6	313.840	0.310	0.100	0.090
2020/01/31 08:12:36.7	313.830	0.320	0.160	0.130
2020/01/31 08:12:36.8	313.830	0.320	0.210	0.160
2020/01/31 08:12:36.9	313.820	0.320	0.260	0.200
2020/01/31 08:12:37.0	313.810	0.320	0.310	0.230
2020/01/31 08:12:37.1	313.800	0.310	0.360	0.270
2020/01/31 08:12:37.2	313.790	0.310	0.400	0.300
2020/01/31 08:12:37.3	313.760	0.310	0.450	0.330
2020/01/31 08:12:37.4	313.740	0.300	0.490	0.360
2020/01/31 08:12:37.5	313.730	0.290	0.530	0.380
2020/01/31 08:12:37.6	313.710	0.280	0.570	0.410
2020/01/31 08:12:37.7	313.690	0.270	0.610	0.430
2020/01/31 08:12:37.8	313.670	0.260	0.640	0.450
2020/01/31 08:12:37.9	313.650	0.240	0.670	0.470
2020/01/31 08:12:38.0	313.630	0.230	0.700	0.480
2020/01/31 08:12:38.1	313.610	0.210	0.720	0.490
2020/01/31 08:12:38.2	313.590	0.190	0.740	0.500
2020/01/31 08:12:38.3	313.570	0.170	0.750	0.500
2020/01/31 08:12:38.4	313.550	0.150	0.760	0.500
2020/01/31 08:12:38.5	313.530	0.130	0.760	0.490
2020/01/31 08:12:38.6	313.520	0.110	0.750	0.480
2020/01/31 08:12:38.7	313.500	0.090	0.740	0.460
2020/01/31 08:12:38.8	313.480	0.060	0.730	0.440
2020/01/31 08:12:38.9	313.470	0.040	0.710	0.410
2020/01/31 08:12:39.0	313.450	0.010	0.680	0.380
2020/01/31 08:12:39.1	313.440	-0.010	0.650	0.340
2020/01/31 08:12:39.2	313.420	-0.030	0.620	0.310
2020/01/31 08:12:39.3	313.420	-0.060	0.570	0.260
2020/01/31 08:12:39.4	313.410	-0.080	0.530	0.220
2020/01/31 08:12:39.5	313.400	-0.110	0.480	0.170
2020/01/31 08:12:39.6	313.390	-0.130	0.430	0.120
2020/01/31 08:12:39.7	313.380	-0.160	0.370	0.060
2020/01/31 08:12:39.8	313.380	-0.180	0.310	0.010
2020/01/31 08:12:39.9	313.370	-0.210	0.250	-0.050
2020/01/31 08:12:40.0	313.370	-0.230	0.190	-0.110
2020/01/31 08:12:40.1	313.370	-0.250	0.130	-0.180
2020/01/31 08:12:40.2	313.370	-0.270	0.060	-0.240
2020/01/31 08:12:40.3	313.370	-0.290	-0.000	-0.310
2020/01/31 08:12:40.4	313.370	-0.310	-0.070	-0.380
2020/01/31 08:12:40.5	313.380	-0.330	-0.130	-0.450
2020/01/31 08:12:40.6	313.390	-0.340	-0.190	-0.510
2020/01/31 08:12:40.7	313.400	-0.360	-0.250	-0.580
2020/01/31 08:12:40.8	313.410	-0.370	-0.310	-0.640
2020/01/31 08:12:40.9	313.420	-0.380	-0.360	-0.700
2020/01/31 08:12:41.0	313.430	-0.390	-0.410	-0.760
2020/01/31 08:12:41.1	313.440	-0.400	-0.460	-0.820
2020/01/31 08:12:41.2	313.460	-0.410	-0.500	-0.870
2020/01/31 08:12:41.3	313.470	-0.410	-0.540	-0.920
2020/01/31 08:12:41.4	313.480	-0.420	-0.570	-0.970
2020/01/31 08:12:41.5	313.490	-0.420	-0.600	-1.010
2020/01/31 08:12:41.6	313.500	-0.420	-0.620	-1.050
2020/01/31 08:12:41.7	313.510	-0.420	-0.640	-1.080
2020/01/31 08:12:41.8	313.520	-0.410	-0.660	-1.110
2020/01/31 08:12:41.9	313.530	-0.410	-0.670	-1.130
2020/01/31 08:12:42.0	313.540	-0.400	-0.680	-1.150
2020/01/31 08:12:42.1	313.550	-0.390	-0.680	-1.160
2020/01/31 08:12:42.2	313.550	-0.390	-0.680	-1.170
2020/01/31 08:12:42.3	313.570	-0.370	-0.680	-1.170
2020/01/31 08:12:42.4	313.580	-0.360	-0.680	-1.170
2020/01/31 08:12:42.5	313.590	-0.350	-0.680	-1.170
2020/01/31 08:12:42.6	313.600	-0.340	-0.680	-1.160
2020/01/31 08:12:42.7	313.600	-0.320	-0.670	-1.160
2020/01/31 08:12:42.8	313.610	-0.310	-0.670	-1.150
2020/01/31 08:12:42.9	313.620	-0.290	-0.670	-1.130
2020/01/31 08:12:43.0	313.630	-0.280	-0.660	-1.120
2020/01/31 08:12:43.1	313.640	-0.260	-0.660	-1.100
2020/01/31 08:12:43.2	313.650	-0.240	-0.660	-1.090
2020/01/31 08:12:43.3	313.660	-0.230	-0.660	-1.060
2020/01/31 08:12:43.4	313.670	-0.210	-0.660	-1.040
2020/01/31 08:12:43.5	313.680	-0.190	-0.670	-1.020
2020/01/31 08:12:43.6	313.700	-0.170	-0.670	-1.000
2020/01/31 08:12:43.7	313.710	-0.150	-0.680	-0.970
2020/01/31 08:12:43.8	313.720	-0.140	-0.690	-0.950
2020/01/31 08:12:43.9	313.730	-0.120	-0.700	-0.920
2020/01/31 08:12:44.0	313.740	-0.100	-0.710	-0.890
2020/01/31 08:12:44.1	313.750	-0.080	-0.720	-0.860
2020/01/31 08:12:44.2	313.760	-0.070	-0.730	-0.830
2020/01/31 08:12:44.3	313.760	-0.050	-0.740	-0.800
2020/01/31 08:12:44.4	313.770	-0.030	-0.750	-0.770
2020/01/31 08:12:44.5	313.780	-0.020	-0.770	-0.730
2020/01/31 08:12:44.6	313.790	-0.000	-0.770	-0.700
2020/01/31 08:12:44.7	313.790	0.020	-0.780	-0.660
2020/01/31 08:12:44.8	313.800	0.030	-0.790	-0.620
2020/01/31 08:12:44.9	313.810	0.050	-0.790	-0.570
2020/01/31 08:12:45.0	313.810	0.060	-0.800	-0.530
2020/01/31 08:12:45.1	313.820	0.080	-0.790	-0.480
2020/01/31 08:12:45.2	313.830	0.090	-0.790	-0.440
2020/01/31 08:12:45.3	313.840	0.100	-0.790	-0.390
2020/01/31 08:12:45.4	313.840	0.120	-0.780	-0.340
2020/01/31 08:12:45.5	313.850	0.130	-0.760	-0.290
2020/01/31 08:12:45.6	313.860	0.150	-0.750	-0.240
2020/01/31 08:12:45.7	313.860	0.160	-0.730	-0.190
2020/01/31 08:12:45.8	313.870	0.170	-0.710	-0.140
2020/01/31 08:12:45.9	313.880	0.190	-0.690	-0.090
2020/01/31 08:12:46.0	313.890	0.200	-0.660	-0.040
2020/01/31 08:12:46.1	313.900	0.210	-0.630	0.010
2020/01/31 08:12:46.2	313.910	0.220	-0.600	0.050
2020/01/31 08:12:46.3	313.920	0.240	-0.560	0.100
2020/01/31 08:12:46.4	313.930	0.250	-0.530	0.140
2020/01/31 08:12:46.5	313.940	0.260	-0.490	0.180
2020/01/31 08:12:46.6	313.950	0.270	-0.450	0.220
2020/01/31 08:12:46.7	313.950	0.280	-0.410	0.260
2020/01/31 08:12:46.8	313.960	0.290	-0.370	0.290
2020/01/31 08:12:46.9	313.970	0.290	-0.330	0.330
2020/01/31 08:12:47.0	313.980	0.300	-0.290	0.360
2020/01/31 08:12:47.1	313.980	0.310	-0.240	0.380
2020/01/31 08:12:47.2	313.990	0.310	-0.200	0.410
2020/01/31 08:12:47.3	314.000	0.310	-0.160	0.430
2020/01/31 08:12:47.4	314.000	0.320	-0.120	0.450
2020/01/31 08:12:47.5	314.000	0.320	-0.080	0.470
2020/01/31 08:12:47.6	314.000	0.320	-0.040	0.480
2020/01/31 08:12:47.7	314.000	0.310	-0.000	0.490
2020/01/31 08:12:47.8	314.000	0.310	0.030	0.500
2020/01/31 08:12:47.9	314.000	0.300	0.060	0.500
2020/01/31 08:12:48.0	314.000	0.300	0.090	0.500
2020/01/31 08:12:48.1	314.000	0.290	0.120	0.490
2020/01/31 08:12:48.2	314.000	0.280	0.150	0.480
2020/01/31 08:12:48.3	313.990	0.270	0.170	0.470
2020/01/31 08:12:48.4	313.990	0.250	0.190	0.460
2020/01/31 08:12:48.5	313.980	0.240	0.210	0.440
2020/01/31 08:12:48.6	313.980	0.220	0.220	0.420
2020/01/31 08:12:48.7	313.970	0.210	0.230	0.390
2020/01/31 08:12:48.8	313.960	0.190	0.240	0.370
2020/01/31 08:12:48.9	313.960	0.180	0.250	0.340
2020/01/31 08:12:49.0	313.950	0.160	0.250	0.310
2020/01/31 08:12:49.1	313.940	0.140	0.250	0.280
2020/01/31 08:12:49.2	313.930	0.120	0.250	0.240
2020/01/31 08:12:49.3	313.910	0.110	0.240	0.210
2020/01/31 08:12:49.4	313.900	0.090	0.240	0.170
2020/01/31 08:12:49.5	313.890	0.070	0.230	0.130
2020/01/31 08:12:49.6	313.880	0.060	0.230	0.100
2020/01/31 08:12:49.7	313.860	0.040	0.220	0.060
2020/01/31 08:12:49.8	313.850	0.030	0.210	0.020
2020/01/31 08:12:49.9	313.830	0.020	0.200	-0.010
2020/01/31 08:12:50.0	313.820	0.000	0.200	-0.050
2020/01/31 08:12:50.1	313.800	-0.010	0.190	-0.080
2020/01/31 08:12:50.2	313.790	-0.020	0.180	-0.120
2020/01/31 08:12:50.3	313.780	-0.030	0.180	-0.150
2020/01/31 08:12:50.4	313.760	-0.040	0.180	-0.180
2020/01/31 08:12:50.5	313.740	-0.040	0.180	-0.210
2020/01/31 08:12:50.6	313.730	-0.050	0.180	-0.230
2020/01/31 08:12:50.7	313.710	-0.050	0.180	-0.260
2020/01/31 08:12:50.8	313.690	-0.060	0.180	-0.280
2020/01/31 08:12:50.9	313.680	-0.060	0.180	-0.290
2020/01/31 08:12:51.0	313.660	-0.060	0.180	-0.310
2020/01/31 08:12:51.1	313.640	-0.060	0.190	-0.320
2020/01/31 08:12:51.2	313.630	-0.060	0.190	-0.330
2020/01/31 08:12:51.3	313.600	-0.060	0.190	-0.350
2020/01/31 08:12:51.4	313.590	-0.060	0.190	-0.350
2020/01/31 08:12:51.5	313.570	-0.060	0.190	-0.360
2020/01/31 08:12:51.6	313.560	-0.060	0.190	-0.360
2020/01/31 08:12:51.7	313.540	-0.050	0.180	-0.370
2020/01/31 08:12:51.8	313.530	-0.050	0.180	-0.370
2020/01/31 08:12:51.9	313.520	-0.050	0.170	-0.370
2020/01/31 08:12:52.0	313.510	-0.040	0.160	-0.370
2020/01/31 08:12:52.1	313.510	-0.030	0.140	-0.380
2020/01/31 08:12:52.2	313.500	-0.030	0.120	-0.380
2020/01/31 08:12:52.3	313.500	-0.020	0.110	-0.380
2020/01/31 08:12:52.4	313.500	-0.020	0.090	-0.380
2020/01/31 08:12:52.5	313.500	-0.010	0.060	-0.380
2020/01/31 08:12:52.6	313.500	0.000	0.030	-0.390
2020/01/31 08:12:52.7	313.500	0.010	0.000	-0.390
2020/01/31 08:12:52.8	313.510	0.020	-0.030	-0.390
2020/01/31 08:12:52.9	313.510	0.030	-0.060	-0.400
2020/01/31 08:12:53.0	313.520	0.040	-0.090	-0.400
2020/01/31 08:12:53.1	313.530	0.050	-0.130	-0.410
2020/01/31 08:12:53.2	313.540	0.060	-0.160	-0.410
2020/01/31 08:12:53.3	313.560	0.070	-0.200	-0.420
2020/01/31 08:12:53.4	313.570	0.080	-0.230	-0.430
2020/01/31 08:12:53.5	313.580	0.090	-0.270	-0.430
2020/01/31 08:12:53.6	313.600	0.100	-0.300	-0.430
2020/01/31 08:12:53.7	313.610	0.110	-0.330	-0.440
2020/01/31 08:12:53.8	313.630	0.120	-0.370	-0.440
2020/01/31 08:12:53.9	313.640	0.130	-0.400	-0.440
2020/01/31 08:12:54.0	313.660	0.140	-0.430	-0.440
2020/01/31 08:12:54.1	313.670	0.150	-0.460	-0.440
2020/01/31 08:12:54.2	313.690	0.160	-0.490	-0.440
2020/01/31 08:12:54.3	313.710	0.170	-0.520	-0.440
2020/01/31 08:12:54.4	313.720	0.170	-0.540	-0.440
2020/01/31 08:12:54.5	313.740	0.180	-0.570	-0.430
2020/01/31 08:12:54.6	313.760	0.180	-0.590	-0.430
2020/01/31 08:12:54.7	313.770	0.190	-0.620	-0.420
2020/01/31 08:12:54.8	313.790	0.190	-0.640	-0.420
2020/01/31 08:12:54.9	313.800	0.190	-0.660	-0.410
2020/01/31 08:12:55.0	313.820	0.190	-0.680	-0.410
2020/01/31 08:12:55.1	313.830	0.190	-0.700	-0.400
2020/01/31 08:12:55.2	313.840	0.180	-0.720	-0.400
2020/01/31 08:12:55.3	313.860	0.180	-0.740	-0.390
2020/01/31 08:12:55.4	313.880	0.170	-0.760	-0.380
2020/01/31 08:12:55.5	313.890	0.170	-0.770	-0.380
2020/01/31 08:12:55.6	313.900	0.160	-0.790	-0.370
2020/01/31 08:12:55.7	313.920	0.150	-0.800	-0.370
2020/01/31 08:12:55.8	313.930	0.140	-0.810	-0.360
2020/01/31 08:12:55.9	313.940	0.130	-0.820	-0.360
2020/01/31 08:12:56.0	313.960	0.120	-0.830	-0.350
2020/01/31 08:12:56.1	313.970	0.110	-0.830	-0.350
2020/01/31 08:12:56.2	313.980	0.090	-0.840	-0.340
2020/01/31 08:12:56.3	314.000	0.080	-0.840	-0.340
2020/01/31 08:12:56.4	314.010	0.060	-0.840	-0.330
2020/01/31 08:12:56.5	314.020	0.050	-0.830	-0.330
2020/01/31 08:12:56.6	314.030	0.040	-0.830	-0.320
2020/01/31 08:12:56.7	314.040	0.020	-0.820	-0.310
2020/01/31 08:12:56.8	314.040	0.000	-0.810	-0.310
2020/01/31 08:12:56.9	314.050	-0.010	-0.790	-0.300
2020/01/31 08:12:57.0	314.050	-0.030	-0.780	-0.290
2020/01/31 08:12:57.1	314.050	-0.050	-0.760	-0.280
2020/01/31 08:12:57.2	314.050	-0.070	-0.730	-0.280
2020/01/31 08:12:57.3	314.060	-0.090	-0.710	-0.260
2020/01/31 08:12:57.4	314.060	-0.110	-0.680	-0.250
2020/01/31 08:12:57.5	314.050	-0.120	-0.650	-0.240
2020/01/31 08:12:57.6	314.050	-0.140	-0.620	-0.230
2020/01/31 08:12:57.7	314.040	-0.170	-0.590	-0.220
2020/01/31 08:12:57.8	314.030	-0.190	-0.550	-0.210
2020/01/31 08:12:57.9	314.020	-0.210	-0.520	-0.200
2020/01/31 08:12:58.0	314.010	-0.230	-0.480	-0.190
2020/01/31 08:12:58.1	314.000	-0.250	-0.450	-0.180
2020/01/31 08:12:58.2	313.990	-0.270	-0.410	-0.170
2020/01/31 08:12:58.3	313.970	-0.290	-0.370	-0.160
2020/01/31 08:12:58.4	313.960	-0.310	-0.340	-0.150
2020/01/31 08:12:58.5	313.940	-0.320	-0.300	-0.140
2020/01/31 08:12:58.6	313.930	-0.340	-0.270	-0.130
2020/01/31 08:12:58.7	313.910	-0.360	-0.230	-0.130
2020/01/31 08:12:58.8	313.900	-0.370	-0.200	-0.120
2020/01/31 08:12:58.9	313.880	-0.380	-0.170	-0.120
2020/01/31 08:12:59.0	313.870	-0.390	-0.140	-0.120
2020/01/31 08:12:59.1	313.860	-0.400	-0.110	-0.110
2020/01/31 08:12:59.2	313.850	-0.410	-0.090	-0.110
2020/01/31 08:12:59.3	313.830	-0.420	-0.060	-0.110
2020/01/31 08:12:59.4	313.820	-0.420	-0.040	-0.110
2020/01/31 08:12:59.5	313.810	-0.420	-0.020	-0.120
2020/01/31 08:12:59.6	313.800	-0.420	-0.000	-0.120
2020/01/31 08:12:59.7	313.800	-0.410	0.010	-0.120
2020/01/31 08:12:59.8	313.790	-0.410	0.030	-0.120
2020/01/31 08:12:59.9	313.790	-0.400	0.040	-0.130
2020/01/31 08:13:00.0	313.780	-0.390	0.050	-0.130
2020/01/31 08:13:00.1	313.780	-0.380	0.060	-0.130
2020/01/31 08:13:00.2	313.770	-0.370	0.070	-0.130
2020/01/31 08:13:00.3	313.770	-0.360	0.080	-0.140
2020/01/31 08:13:00.4	313.770	-0.340	0.080	-0.140
2020/01/31 08:13:00.5	313.760	-0.330	0.090	-0.140
2020/01/31 08:13:00.6	313.760	-0.310	0.100	-0.150
2020/01/31 08:13:00.7	313.760	-0.290	0.100	-0.150
2020/01/31 08:13:00.8	313.750	-0.280	0.110	-0.150
2020/01/31 08:13:00.9	313.750	-0.260	0.110	-0.160
2020/01/31 08:13:01.0	313.750	-0.240	0.110	-0.160
2020/01/31 08:13:01.1	313.750	-0.220	0.120	-0.160
2020/01/31 08:13:01.2	313.750	-0.200	0.120	-0.160
2020/01/31 08:13:01.3	313.750	-0.180	0.120	-0.160
2020/01/31 08:13:01.4	313.750	-0.160	0.130	-0.160
2020/01/31 08:13:01.5	313.750	-0.150	0.130	-0.160
2020/01/31 08:13:01.6	313.750	-0.130	0.130	-0.160
2020/01/31 08:13:01.7	313.760	-0.110	0.130	-0.160
2020/01/31 08:13:01.8	313.760	-0.090	0.130	-0.150
2020/01/31 08:13:01.9	313.760	-0.080	0.130	-0.150
2020/01/31 08:13:02.0	313.760	-0.060	0.130	-0.140
2020/01/31 08:13:02.1	313.760	-0.050	0.130	-0.130
2020/01/31 08:13:02.2	313.760	-0.030	0.130	-0.120
2020/01/31 08:13:02.3	313.770	-0.020	0.120	-0.110
2020/01/31 08:13:02.4	313.770	-0.000	0.120	-0.110
2020/01/31 08:13:02.5	313.770	0.010	0.110	-0.100
2020/01/31 08:13:02.6	313.770	0.020	0.110	-0.090
2020/01/31 08:13:02.7	313.770	0.040	0.100	-0.080
2020/01/31 08:13:02.8	313.770	0.050	0.090	-0.070
2020/01/31 08:13:02.9	313.770	0.060	0.080	-0.060
2020/01/31 08:13:03.0	313.770	0.070	0.070	-0.050
2020/01/31 08:13:03.1	313.770	0.080	0.060	-0.050
2020/01/31 08:13:03.2	313.780	0.090	0.040	-0.040
2020/01/31 08:13:03.3	313.770	0.100	0.030	-0.040
2020/01/31 08:13:03.4	313.770	0.110	0.010	-0.040
2020/01/31 08:13:03.5	313.770	0.120	-0.010	-0.040
2020/01/31 08:13:03.6	313.770	0.130	-0.030	-0.040
2020/01/31 08:13:03.7	313.770	0.140	-0.050	-0.050
2020/01/31 08:13:03.8	313.780	0.150	-0.070	-0.060
2020/01/31 08:13:03.9	313.780	0.150	-0.100	-0.070
2020/01/31 08:13:04.0	313.790	0.160	-0.120	-0.080
2020/01/31 08:13:04.1	313.790	0.170	-0.150	-0.090
2020/01/31 08:13:04.2	313.800	0.180	-0.170	-0.110
2020/01/31 08:13:04.3	313.810	0.190	-0.200	-0.130
2020/01/31 08:13:04.4	313.820	0.200	-0.230	-0.150
2020/01/31 08:13:04.5	313.830	0.210	-0.250	-0.170
2020/01/31 08:13:04.6	313.850	0.220	-0.280	-0.200
2020/01/31 08:13:04.7	313.860	0.220	-0.310	-0.220
2020/01/31 08:13:04.8	313.880	0.230	-0.330	-0.250
2020/01/31 08:13:04.9	313.900	0.240	-0.360	-0.280
2020/01/31 08:13:05.0	313.910	0.250	-0.380	-0.310
2020/01/31 08:13:05.1	313.930	0.260	-0.400	-0.340
2020/01/31 08:13:05.2	313.950	0.270	-0.420	-0.370
2020/01/31 08:13:05.3	313.980	0.280	-0.440	-0.400
2020/01/31 08:13:05.4	314.000	0.290	-0.460	-0.430
2020/01/31 08:13:05.5	314.020	0.300	-0.480	-0.450
2020/01/31 08:13:05.6	314.040	0.310	-0.490	-0.480
2020/01/31 08:13:05.7	314.060	0.320	-0.510	-0.500
2020/01/31 08:13:05.8	314.080	0.320	-0.520	-0.520
2020/01/31 08:13:05.9	314.100	0.330	-0.530	-0.540
2020/01/31 08:13:06.0	314.110	0.340	-0.540	-0.560
2020/01/31 08:13:06.1	314.130	0.340	-0.540	-0.570
2020/01/31 08:13:06.2	314.140	0.350	-0.550	-0.590
2020/01/31 08:13:06.3	314.150	0.350	-0.550	-0.600
2020/01/31 08:13:06.4	314.160	0.350	-0.550	-0.610
2020/01/31 08:13:06.5	314.170	0.360	-0.540	-0.620
2020/01/31 08:13:06.6	314.180	0.360	-0.540	-0.620
2020/01/31 08:13:06.7	314.190	0.360	-0.540	-0.630
2020/01/31 08:13:06.8	314.200	0.360	-0.530	-0.630
2020/01/31 08:13:06.9	314.200	0.350	-0.520	-0.640
2020/01/31 08:13:07.0	314.200	0.350	-0.510	-0.640
2020/01/31 08:13:07.1	314.210	0.350	-0.500	-0.640
2020/01/31 08:13:07.2	314.210	0.340	-0.490	-0.640
2020/01/31 08:13:07.3	314.220	0.340	-0.470	-0.640
2020/01/31 08:13:07.4	314.220	0.330	-0.460	-0.630
2020/01/31 08:13:07.5	314.210	0.320	-0.450	-0.630
2020/01/31 08:13:07.6	314.210	0.310	-0.430	-0.620
2020/01/31 08:13:07.7	314.210	0.300	-0.410	-0.620
2020/01/31 08:13:07.8	314.210	0.290	-0.400	-0.610
2020/01/31 08:13:07.9	314.200	0.280	-0.380	-0.600
2020/01/31 08:13:08.0	314.200	0.270	-0.360	-0.590
2020/01/31 08:13:08.1	314.190	0.260	-0.350	-0.590
2020/01/31 08:13:08.2	314.190	0.250	-0.330	-0.580
2020/01/31 08:13:08.3	314.190	0.230	-0.310	-0.570
2020/01/31 08:13:08.4	314.180	0.220	-0.290	-0.560
2020/01/31 08:13:08.5	314.170	0.200	-0.280	-0.550
2020/01/31 08:13:08.6	314.170	0.180	-0.260	-0.540
2020/01/31 08:13:08.7	314.160	0.170	-0.240	-0.530
2020/01/31 08:13:08.8	314.160	0.150	-0.230	-0.530
2020/01/31 08:13:08.9	314.160	0.130	-0.210	-0.520
2020/01/31 08:13:09.0	314.150	0.110	-0.190	-0.520
2020/01/31 08:13:09.1	314.150	0.090	-0.180	-0.510
2020/01/31 08:13:09.2	314.150	0.070	-0.170	-0.510
2020/01/31 08:13:09.3	314.150	0.050	-0.150	-0.510
2020/01/31 08:13:09.4	314.140	0.030	-0.140	-0.510
2020/01/31 08:13:09.5	314.140	0.010	-0.120	-0.510
2020/01/31 08:13:09.6	314.140	-0.010	-0.110	-0.500
2020/01/31 08:13:09.7	314.140	-0.030	-0.090	-0.510
2020/01/31 08:13:09.8	314.140	-0.060	-0.080	-0.510
2020/01/31 08:13:09.9	314.140	-0.080	-0.070	-0.500
2020/01/31 08:13:10.0	314.140	-0.100	-0.050	-0.500
2020/01/31 08:13:10.1	314.140	-0.130	-0.040	-0.500
2020/01/31 08:13:10.2	314.140	-0.150	-0.030	-0.500
2020/01/31 08:13:10.3	314.130	-0.170	-0.020	-0.500
2020/01/31 08:13:10.4	314.130	-0.200	-0.000	-0.490
2020/01/31 08:13:10.5	314.130	-0.220	0.010	-0.490
2020/01/31 08:13:10.6	314.120	-0.240	0.020	-0.480
2020/01/31 08:13:10.7	314.120	-0.270	0.030	-0.470
2020/01/31 08:13:10.8	314.110	-0.290	0.050	-0.460
2020/01/31 08:13:10.9	314.100	-0.310	0.060	-0.450
2020/01/31 08:13:11.0	314.100	-0.340	0.070	-0.440
2020/01/31 08:13:11.1	314.090	-0.360	0.080	-0.430
2020/01/31 08:13:11.2	314.080	-0.380	0.090	-0.410
2020/01/31 08:13:11.3	314.070	-0.400	0.100	-0.400
2020/01/31 08:13:11.4	314.060	-0.420	0.100	-0.390
2020/01/31 08:13:11.5	314.040	-0.430	0.110	-0.370
2020/01/31 08:13:11.6	314.030	-0.450	0.110	-0.360
2020/01/31 08:13:11.7	314.020	-0.460	0.110	-0.350
2020/01/31 08:13:11.8	314.010	-0.480	0.100	-0.330
2020/01/31 08:13:11.9	313.990	-0.490	0.100	-0.320
2020/01/31 08:13:12.0	313.980	-0.500	0.090	-0.310
2020/01/31 08:13:12.1	313.960	-0.510	0.080	-0.300
2020/01/31 08:13:12.2	313.950	-0.510	0.060	-0.290
2020/01/31 08:13:12.3	313.930	-0.520	0.050	-0.280
2020/01/31 08:13:12.4	313.910	-0.520	0.030	-0.270
2020/01/31 08:13:12.5	313.900	-0.520	0.000	-0.260
2020/01/31 08:13:12.6	313.890	-0.520	-0.020	-0.260
2020/01/31 08:13:12.7	313.870	-0.520	-0.050	-0.250
2020/01/31 08:13:12.8	313.860	-0.510	-0.080	-0.250
2020/01/31 08:13:12.9	313.850	-0.510	-0.110	-0.250
2020/01/31 08:13:13.0	313.840	-0.500	-0.150	-0.250
2020/01/31 08:13:13.1	313.840	-0.490	-0.190	-0.260
2020/01/31 08:13:13.2	313.830	-0.470	-0.230	-0.260
2020/01/31 08:13:13.3	313.820	-0.460	-0.270	-0.270
2020/01/31 08:13:13.4	313.820	-0.440	-0.310	-0.280
2020/01/31 08:13:13.5	313.820	-0.420	-0.350	-0.290
2020/01/31 08:13:13.6	313.820	-0.400	-0.400	-0.300
2020/01/31 08:13:13.7	313.820	-0.380	-0.440	-0.310
2020/01/31 08:13:13.8	313.820	-0.360	-0.490	-0.320
2020/01/31 08:13:13.9	313.830	-0.340	-0.530	-0.340
2020/01/31 08:13:14.0	313.830	-0.310	-0.570	-0.350
2020/01/31 08:13:14.1	313.840	-0.290	-0.610	-0.360
2020/01/31 08:13:14.2	313.840	-0.260	-0.650	-0.380
2020/01/31 08:13:14.3	313.850	-0.240	-0.680	-0.390
2020/01/31 08:13:14.4	313.860	-0.220	-0.710	-0.400
2020/01/31 08:13:14.5	313.860	-0.190	-0.740	-0.410
2020/01/31 08:13:14.6	313.860	-0.170	-0.760	-0.420
2020/01/31 08:13:14.7	313.870	-0.150	-0.780	-0.420
2020/01/31 08:13:14.8	313.870	-0.120	-0.800	-0.430
2020/01/31 08:13:14.9	313.870	-0.100	-0.810	-0.430
2020/01/31 08:13:15.0	313.870	-0.080	-0.820	-0.440
2020/01/31 08:13:15.1	313.870	-0.060	-0.820	-0.440
2020/01/31 08:13:15.2	313.870	-0.040	-0.820	-0.440
2020/01/31 08:13:15.3	313.860	-0.030	-0.820	-0.440
2020/01/31 08:13:15.4	313.860	-0.010	-0.810	-0.440
2020/01/31 08:13:15.5	313.860	0.000	-0.800	-0.430
2020/01/31 08:13:15.6	313.860	0.020	-0.790	-0.430
2020/01/31 08:13:15.7	313.860	0.030	-0.770	-0.430
2020/01/31 08:13:15.8	313.860	0.040	-0.750	-0.430
2020/01/31 08:13:15.9	313.860	0.050	-0.730	-0.430
2020/01/31 08:13:16.0	313.860	0.060	-0.700	-0.430
2020/01/31 08:13:16.1	313.870	0.070	-0.680	-0.420
2020/01/31 08:13:16.2	313.870	0.080	-0.650	-0.420
2020/01/31 08:13:16.3	313.870	0.080	-0.620	-0.420
2020/01/31 08:13:16.4	313.880	0.090	-0.590	-0.420
2020/01/31 08:13:16.5	313.890	0.100	-0.560	-0.430
2020/01/31 08:13:16.6	313.900	0.110	-0.530	-0.430
2020/01/31 08:13:16.7	313.920	0.110	-0.500	-0.430
2020/01/31 08:13:16.8	313.930	0.120	-0.470	-0.440
2020/01/31 08:13:16.9	313.950	0.130	-0.430	-0.440
2020/01/31 08:13:17.0	313.970	0.130	-0.400	-0.450
2020/01/31 08:13:17.1	313.990	0.140	-0.370	-0.450
2020/01/31 08:13:17.2	314.010	0.150	-0.340	-0.460
2020/01/31 08:13:17.3	314.030	0.150	-0.310	-0.460
2020/01/31 08:13:17.4	314.050	0.160	-0.280	-0.470
2020/01/31 08:13:17.5	314.080	0.170	-0.250	-0.470
2020/01/31 08:13:17.6	314.100	0.180	-0.220	-0.480
2020/01/31 08:13:17.7	314.120	0.180	-0.190	-0.480
2020/01/31 08:13:17.8	314.140	0.190	-0.160	-0.480
2020/01/31 08:13:17.9	314.160	0.200	-0.130	-0.490
2020/01/31 08:13:18.0	314.180	0.200	-0.100	-0.490
2020/01/31 08:13:18.1	314.200	0.210	-0.070	-0.490
2020/01/31 08:13:18.2	314.220	0.220	-0.040	-0.490
2020/01/31 08:13:18.3	314.250	0.220	-0.020	-0.490
2020/01/31 08:13:18.4	314.260	0.230	0.010	-0.490
2020/01/31 08:13:18.5	314.280	0.230	0.040	-0.490
2020/01/31 08:13:18.6	314.300	0.230	0.060	-0.490
2020/01/31 08:13:18.7	314.310	0.240	0.080	-0.480
2020/01/31 08:13:18.8	314.330	0.240	0.100	-0.480
2020/01/31 08:13:18.9	314.340	0.240	0.120	-0.470
2020/01/31 08:13:19.0	314.350	0.240	0.140	-0.460
2020/01/31 08:13:19.1	314.360	0.240	0.150	-0.450
2020/01/31 08:13:19.2	314.370	0.240	0.170	-0.430
2020/01/31 08:13:19.3	314.380	0.240	0.180	-0.420
2020/01/31 08:13:19.4	314.380	0.240	0.190	-0.410
2020/01/31 08:13:19.5	314.390	0.240	0.200	-0.390
2020/01/31 08:13:19.6	314.390	0.240	0.210	-0.370
2020/01/31 08:13:19.7	314.390	0.240	0.210	-0.350
2020/01/31 08:13:19.8	314.390	0.230	0.220	-0.330
2020/01/31 08:13:19.9	314.390	0.230	0.220	-0.310
2020/01/31 08:13:20.0	314.380	0.220	0.220	-0.290
2020/01/31 08:13:20.1	314.380	0.220	0.220	-0.270
2020/01/31 08:13:20.2	314.370	0.210	0.220	-0.250
2020/01/31 08:13:20.3	314.360	0.210	0.220	-0.230
2020/01/31 08:13:20.4	314.360	0.200	0.220	-0.210
2020/01/31 08:13:20.5	314.350	0.190	0.210	-0.190
2020/01/31 08:13:20.6	314.330	0.190	0.200	-0.170
2020/01/31 08:13:20.7	314.320	0.180	0.190	-0.150
2020/01/31 08:13:20.8	314.310	0.180	0.180	-0.130
2020/01/31 08:13:20.9	314.300	0.170	0.170	-0.110
2020/01/31 08:13:21.0	314.280	0.160	0.160	-0.090
2020/01/31 08:13:21.1	314.270	0.160	0.150	-0.080
2020/01/31 08:13:21.2	314.250	0.160	0.130	-0.070
2020/01/31 08:13:21.3	314.230	0.150	0.120	-0.050
2020/01/31 08:13:21.4	314.220	0.150	0.100	-0.040
2020/01/31 08:13:21.5	314.200	0.150	0.090	-0.030
2020/01/31 08:13:21.6	314.180	0.150	0.070	-0.030
2020/01/31 08:13:21.7	314.160	0.140	0.050	-0.020
2020/01/31 08:13:21.8	314.140	0.140	0.040	-0.010
2020/01/31 08:13:21.9	314.130	0.140	0.020	-0.010
2020/01/31 08:13:22.0	314.110	0.150	-0.000	-0.000
2020/01/31 08:13:22.1	314.090	0.150	-0.020	0.000
2020/01/31 08:13:22.2	314.070	0.150	-0.040	0.000
2020/01/31 08:13:22.3	314.060	0.150	-0.050	0.000
2020/01/31 08:13:22.4	314.040	0.150	-0.070	0.000
2020/01/31 08:13:22.5	314.020	0.150	-0.090	-0.000
2020/01/31 08:13:22.6	314.000	0.150	-0.110	-0.000
2020/01/31 08:13:22.7	313.980	0.150	-0.140	-0.010
2020/01/31 08:13:22.8	313.970	0.150	-0.160	-0.020
2020/01/31 08:13:22.9	313.950	0.150	-0.180	-0.030
2020/01/31 08:13:23.0	313.940	0.140	-0.200	-0.040
2020/01/31 08:13:23.1	313.930	0.140	-0.220	-0.060
2020/01/31 08:13:23.2	313.920	0.140	-0.250	-0.080
2020/01/31 08:13:23.3	313.920	0.130	-0.270	-0.100
2020/01/31 08:13:23.4	313.910	0.120	-0.300	-0.120
2020/01/31 08:13:23.5	313.910	0.120	-0.330	-0.150
2020/01/31 08:13:23.6	313.910	0.110	-0.350	-0.180
2020/01/31 08:13:23.7	313.910	0.090	-0.380	-0.210
2020/01/31 08:13:23.8	313.910	0.080	-0.410	-0.250
2020/01/31 08:13:23.9	313.920	0.070	-0.440	-0.290
2020/01/31 08:13:24.0	313.930	0.050	-0.470	-0.330
2020/01/31 08:13:24.1	313.940	0.030	-0.490	-0.370
2020/01/31 08:13:24.2	313.950	0.020	-0.520	-0.420
2020/01/31 08:13:24.3	313.960	-0.000	-0.540	-0.460
2020/01/31 08:13:24.4	313.980	-0.030	-0.570	-0.500
2020/01/31 08:13:24.5	313.990	-0.050	-0.590	-0.550
2020/01/31 08:13:24.6	314.000	-0.070	-0.610	-0.590
2020/01/31 08:13:24.7	314.020	-0.100	-0.620	-0.630
2020/01/31 08:13:24.8	314.030	-0.120	-0.630	-0.670
2020/01/31 08:13:24.9	314.040	-0.150	-0.640	-0.710
2020/01/31 08:13:25.0	314.050	-0.170	-0.650	-0.750
2020/01/31 08:13:25.1	314.060	-0.200	-0.650	-0.780
2020/01/31 08:13:25.2	314.070	-0.230	-0.650	-0.810
2020/01/31 08:13:25.3	314.080	-0.260	-0.640	-0.850
2020/01/31 08:13:25.4	314.090	-0.280	-0.620	-0.870
2020/01/31 08:13:25.5	314.090	-0.310	-0.610	-0.890
2020/01/31 08:13:25.6	314.090	-0.330	-0.590	-0.910
2020/01/31 08:13:25.7	314.080	-0.360	-0.570	-0.920
2020/01/31 08:13:25.8	314.080	-0.380	-0.540	-0.920
2020/01/31 08:13:25.9	314.070	-0.400	-0.510	-0.930
2020/01/31 08:13:26.0	314.070	-0.420	-0.470	-0.930
2020/01/31 08:13:26.1	314.060	-0.440	-0.440	-0.920
2020/01/31 08:13:26.2	314.050	-0.450	-0.400	-0.910
2020/01/31 08:13:26.3	314.030	-0.470	-0.370	-0.900
2020/01/31 08:13:26.4	314.020	-0.480	-0.330	-0.880
2020/01/31 08:13:26.5	314.010	-0.490	-0.290	-0.860
2020/01/31 08:13:26.6	314.000	-0.490	-0.250	-0.840
2020/01/31 08:13:26.7	313.980	-0.490	-0.220	-0.820
2020/01/31 08:13:26.8	313.970	-0.490	-0.180	-0.790
2020/01/31 08:13:26.9	313.960	-0.490	-0.150	-0.760
2020/01/31 08:13:27.0	313.950	-0.480	-0.120	-0.730
2020/01/31 08:13:27.1	313.940	-0.470	-0.100	-0.700
2020/01/31 08:13:27.2	313.930	-0.460	-0.080	-0.670
2020/01/31 08:13:27.3	313.910	-0.440	-0.060	-0.640
2020/01/31 08:13:27.4	313.900	-0.420	-0.050	-0.610
2020/01/31 08:13:27.5	313.900	-0.400	-0.040	-0.570
2020/01/31 08:13:27.6	313.890	-0.380	-0.040	-0.540
2020/01/31 08:13:27.7	313.890	-0.350	-0.050	-0.510
2020/01/31 08:13:27.8	313.880	-0.320	-0.050	-0.480
2020/01/31 08:13:27.9	313.880	-0.290	-0.070	-0.440
2020/01/31 08:13:28.0	313.880	-0.260	-0.080	-0.410
2020/01/31 08:13:28.1	313.880	-0.220	-0.100	-0.380
2020/01/31 08:13:28.2	313.880	-0.190	-0.130	-0.360
2020/01/31 08:13:28.3	313.880	-0.150	-0.160	-0.330
2020/01/31 08:13:28.4	313.880	-0.120	-0.190	-0.300
2020/01/31 08:13:28.5	313.880	-0.080	-0.220	-0.280
2020/01/31 08:13:28.6	313.890	-0.050	-0.250	-0.260
2020/01/31 08:13:28.7	313.890	-0.010	-0.290	-0.240
2020/01/31 08:13:28.8	313.900	0.020	-0.320	-0.220
2020/01/31 08:13:28.9	313.910	0.050	-0.360	-0.210
2020/01/31 08:13:29.0	313.920	0.080	-0.390	-0.200
2020/01/31 08:13:29.1	313.920	0.110	-0.430	-0.190
2020/01/31 08:13:29.2	313.930	0.140	-0.460	-0.180
2020/01/31 08:13:29.3	313.940	0.160	-0.490	-0.170
2020/01/31 08:13:29.4	313.950	0.180	-0.520	-0.170
2020/01/31 08:13:29.5	313.960	0.200	-0.540	-0.170
2020/01/31 08:13:29.6	313.970	0.220	-0.570	-0.160
2020/01/31 08:13:29.7	313.980	0.230	-0.590	-0.160
2020/01/31 08:13:29.8	313.990	0.240	-0.610	-0.160
2020/01/31 08:13:29.9	314.000	0.250	-0.620	-0.160
2020/01/31 08:13:30.0	314.010	0.250	-0.630	-0.170
2020/01/31 08:13:30.1	314.020	0.250	-0.640	-0.170
2020/01/31 08:13:30.2	314.030	0.250	-0.640	-0.180
2020/01/31 08:13:30.3	314.040	0.240	-0.640	-0.180
2020/01/31 08:13:30.4	314.050	0.240	-0.640	-0.180
2020/01/31 08:13:30.5	314.060	0.230	-0.630	-0.190
2020/01/31 08:13:30.6	314.080	0.210	-0.620	-0.200
2020/01/31 08:13:30.7	314.090	0.200	-0.610	-0.210
2020/01/31 08:13:30.8	314.100	0.190	-0.590	-0.220
2020/01/31 08:13:30.9	314.110	0.170	-0.570	-0.230
2020/01/31 08:13:31.0	314.120	0.150	-0.540	-0.240
2020/01/31 08:13:31.1	314.130	0.130	-0.520	-0.250
2020/01/31 08:13:31.2	314.140	0.110	-0.490	-0.260
2020/01/31 08:13:31.3	314.150	0.090	-0.460	-0.270
2020/01/31 08:13:31.4	314.150	0.070	-0.420	-0.280
2020/01/31 08:13:31.5	314.160	0.050	-0.390	-0.280
2020/01/31 08:13:31.6	314.160	0.030	-0.350	-0.290
2020/01/31 08:13:31.7	314.160	0.010	-0.310	-0.290
2020/01/31 08:13:31.8	314.160	-0.000	-0.270	-0.290
2020/01/31 08:13:31.9	314.160	-0.020	-0.230	-0.290
2020/01/31 08:13:32.0	314.150	-0.040	-0.180	-0.280
2020/01/31 08:13:32.1	314.150	-0.050	-0.140	-0.280
2020/01/31 08:13:32.2	314.140	-0.060	-0.100	-0.270
2020/01/31 08:13:32.3	314.130	-0.070	-0.050	-0.260
2020/01/31 08:13:32.4	314.110	-0.080	-0.010	-0.250
2020/01/31 08:13:32.5	314.100	-0.090	0.030	-0.240
2020/01/31 08:13:32.6	314.090	-0.090	0.060	-0.230
2020/01/31 08:13:32.7	314.070	-0.090	0.100	-0.220
2020/01/31 08:13:32.8	314.050	-0.090	0.130	-0.210
2020/01/31 08:13:32.9	314.040	-0.090	0.160	-0.200
2020/01/31 08:13:33.0	314.020	-0.090	0.190	-0.190
2020/01/31 08:13:33.1	314.000	-0.090	0.210	-0.180
2020/01/31 08:13:33.2	313.990	-0.080	0.230	-0.170
2020/01/31 08:13:33.3	313.970	-0.070	0.240	-0.160
2020/01/31 08:13:33.4	313.960	-0.070	0.250	-0.160
2020/01/31 08:13:33.5	313.940	-0.060	0.250	-0.150
2020/01/31 08:13:33.6	313.930	-0.050	0.250	-0.150
2020/01/31 08:13:33.7	313.930	-0.030	0.250	-0.150
2020/01/31 08:13:33.8	313.920	-0.020	0.230	-0.160
2020/01/31 08:13:33.9	313.920	-0.010	0.220	-0.160
2020/01/31 08:13:34.0	313.910	0.010	0.190	-0.170
2020/01/31 08:13:34.1	313.920	0.020	0.170	-0.180
2020/01/31 08:13:34.2	313.920	0.040	0.140	-0.200
2020/01/31 08:13:34.3	313.930	0.050	0.110	-0.210
2020/01/31 08:13:34.4	313.930	0.070	0.070	-0.230
2020/01/31 08:13:34.5	313.940	0.080	0.030	-0.240
2020/01/31 08:13:34.6	313.950	0.100	-0.020	-0.260
2020/01/31 08:13:34.7	313.950	0.110	-0.060	-0.280
2020/01/31 08:13:34.8	313.960	0.130	-0.110	-0.290
2020/01/31 08:13:34.9	313.970	0.140	-0.150	-0.300
2020/01/31 08:13:35.0	313.980	0.150	-0.200	-0.320
2020/01/31 08:13:35.1	313.990	0.160	-0.240	-0.330
2020/01/31 08:13:35.2	313.990	0.170	-0.290	-0.340
2020/01/31 08:13:35.3	314.010	0.180	-0.330	-0.340
2020/01/31 08:13:35.4	314.020	0.180	-0.360	-0.350
2020/01/31 08:13:35.5	314.030	0.190	-0.400	-0.350
2020/01/31 08:13:35.6	314.030	0.190	-0.430	-0.360
2020/01/31 08:13:35.7	314.030	0.190	-0.450	-0.360
2020/01/31 08:13:35.8	314.040	0.190	-0.470	-0.360
2020/01/31 08:13:35.9	314.040	0.190	-0.490	-0.360
2020/01/31 08:13:36.0	314.050	0.180	-0.500	-0.360
2020/01/31 08:13:36.1	314.050	0.180	-0.510	-0.350
2020/01/31 08:13:36.2	314.050	0.170	-0.510	-0.350
2020/01/31 08:13:36.3	314.050	0.160	-0.500	-0.350
2020/01/31 08:13:36.4	314.060	0.150	-0.490	-0.340
2020/01/31 08:13:36.5	314.060	0.140	-0.480	-0.330
2020/01/31 08:13:36.6	314.070	0.120	-0.460	-0.330
2020/01/31 08:13:36.7	314.070	0.110	-0.440	-0.320
2020/01/31 08:13:36.8	314.070	0.090	-0.420	-0.310
2020/01/31 08:13:36.9	314.070	0.080	-0.390	-0.300
2020/01/31 08:13:37.0	314.070	0.060	-0.360	-0.290
2020/01/31 08:13:37.1	314.070	0.040	-0.330	-0.280
2020/01/31 08:13:37.2	314.070	0.020	-0.290	-0.270
2020/01/31 08:13:37.3	314.080	0.000	-0.260	-0.260
2020/01/31 08:13:37.4	314.070	-0.020	-0.220	-0.250
2020/01/31 08:13:37.5	314.070	-0.040	-0.180	-0.240
2020/01/31 08:13:37.6	314.060	-0.060	-0.140	-0.230
2020/01/31 08:13:37.7	314.060	-0.070	-0.110	-0.210
2020/01/31 08:13:37.8	314.050	-0.090	-0.070	-0.200
2020/01/31 08:13:37.9	314.040	-0.110	-0.040	-0.190
2020/01/31 08:13:38.0	314.030	-0.120	-0.000	-0.180
2020/01/31 08:13:38.1	314.020	-0.140	0.030	-0.170
2020/01/31 08:13:38.2	314.010	-0.150	0.050	-0.160
2020/01/31 08:13:38.3	314.000	-0.160	0.080	-0.160
2020/01/31 08:13:38.4	313.990	-0.170	0.100	-0.150
2020/01/31 08:13:38.5	313.980	-0.180	0.120	-0.140
2020/01/31 08:13:38.6	313.970	-0.190	0.130	-0.140
2020/01/31 08:13:38.7	313.970	-0.190	0.140	-0.130
2020/01/31 08:13:38.8	313.960	-0.190	0.150	-0.120
2020/01/31 08:13:38.9	313.950	-0.190	0.150	-0.120
2020/01/31 08:13:39.0	313.940	-0.190	0.150	-0.110
2020/01/31 08:13:39.1	313.940	-0.180	0.140	-0.110
2020/01/31 08:13:39.2	313.930	-0.170	0.140	-0.110
2020/01/31 08:13:39.3	313.940	-0.160	0.130	-0.100
2020/01/31 08:13:39.4	313.930	-0.150	0.110	-0.100
2020/01/31 08:13:39.5	313.930	-0.140	0.090	-0.090
2020/01/31 08:13:39.6	313.930	-0.120	0.070	-0.090
2020/01/31 08:13:39.7	313.920	-0.100	0.050	-0.090
2020/01/31 08:13:39.8	313.920	-0.090	0.030	-0.080
2020/01/31 08:13:39.9	313.920	-0.070	0.010	-0.080
2020/01/31 08:13:40.0	313.920	-0.050	-0.020	-0.070
2020/01/31 08:13:40.1	313.910	-0.020	-0.050	-0.070
2020/01/31 08:13:40.2	313.910	-0.000	-0.070	-0.060
2020/01/31 08:13:40.3	313.910	0.020	-0.100	-0.060
2020/01/31 08:13:40.4	313.900	0.040	-0.130	-0.050
2020/01/31 08:13:40.5	313.900	0.070	-0.160	-0.040
2020/01/31 08:13:40.6	313.890	0.090	-0.190	-0.030
2020/01/31 08:13:40.7	313.880	0.110	-0.210	-0.010
2020/01/31 08:13:40.8	313.870	0.130	-0.240	0.000
2020/01/31 08:13:40.9	313.860	0.150	-0.260	0.020
2020/01/31 08:13:41.0	313.850	0.170	-0.290	0.030
2020/01/31 08:13:41.1	313.830	0.190	-0.310	0.050
2020/01/31 08:13:41.2	313.820	0.200	-0.330	0.070
2020/01/31 08:13:41.3	313.790	0.210	-0.350	0.090
2020/01/31 08:13:41.4	313.780	0.230	-0.360	0.100
2020/01/31 08:13:41.5	313.760	0.240	-0.380	0.120
2020/01/31 08:13:41.6	313.740	0.240	-0.400	0.130
2020/01/31 08:13:41.7	313.720	0.250	-0.420	0.150
2020/01/31 08:13:41.8	313.700	0.250	-0.430	0.160
2020/01/31 08:13:41.9	313.690	0.250	-0.450	0.170
2020/01/31 08:13:42.0	313.670	0.250	-0.460	0.170
2020/01/31 08:13:42.1	313.650	0.250	-0.480	0.180
2020/01/31 08:13:42.2	313.630	0.240	-0.490	0.180
2020/01/31 08:13:42.3	313.620	0.230	-0.500	0.180
2020/01/31 08:13:42.4	313.600	0.220	-0.520	0.170
2020/01/31 08:13:42.5	313.590	0.210	-0.530	0.160
2020/01/31 08:13:42.6	313.570	0.200	-0.550	0.150
2020/01/31 08:13:42.7	313.560	0.180	-0.560	0.140
2020/01/31 08:13:42.8	313.550	0.160	-0.580	0.120
2020/01/31 08:13:42.9	313.540	0.140	-0.590	0.100
2020/01/31 08:13:43.0	313.540	0.120	-0.610	0.080
2020/01/31 08:13:43.1	313.540	0.100	-0.620	0.050
2020/01/31 08:13:43.2	313.540	0.080	-0.640	0.020
2020/01/31 08:13:43.3	313.540	0.050	-0.650	-0.010
2020/01/31 08:13:43.4	313.550	0.030	-0.670	-0.050
2020/01/31 08:13:43.5	313.550	0.000	-0.680	-0.080
2020/01/31 08:13:43.6	313.560	-0.020	-0.690	-0.120
2020/01/31 08:13:43.7	313.580	-0.050	-0.700	-0.160
2020/01/31 08:13:43.8	313.590	-0.070	-0.710	-0.210
2020/01/31 08:13:43.9	313.610	-0.100	-0.720	-0.250
2020/01/31 08:13:44.0	313.620	-0.120	-0.720	-0.290
2020/01/31 08:13:44.1	313.640	-0.150	-0.720	-0.330
2020/01/31 08:13:44.2	313.660	-0.170	-0.720	-0.370
2020/01/31 08:13:44.3	313.680	-0.200	-0.710	-0.420
2020/01/31 08:13:44.4	313.700	-0.220	-0.700	-0.460
2020/01/31 08:13:44.5	313.720	-0.240	-0.690	-0.490
2020/01/31 08:13:44.6	313.730	-0.260	-0.670	-0.530
2020/01/31 08:13:44.7	313.750	-0.280	-0.650	-0.560
2020/01/31 08:13:44.8	313.770	-0.300	-0.630	-0.590
2020/01/31 08:13:44.9	313.780	-0.320	-0.600	-0.610
2020/01/31 08:13:45.0	313.790	-0.330	-0.570	-0.630
2020/01/31 08:13:45.1	313.810	-0.340	-0.540	-0.650
2020/01/31 08:13:45.2	313.820	-0.350	-0.510	-0.670
2020/01/31 08:13:45.3	313.840	-0.360	-0.480	-0.680
2020/01/31 08:13:45.4	313.850	-0.370	-0.440	-0.690
2020/01/31 08:13:45.5	313.860	-0.370	-0.410	-0.700
2020/01/31 08:13:45.6	313.870	-0.380	-0.380	-0.700
2020/01/31 08:13:45.7	313.880	-0.380	-0.340	-0.710
2020/01/31 08:13:45.8	313.890	-0.380	-0.310	-0.710
2020/01/31 08:13:45.9	313.900	-0.370	-0.280	-0.700
2020/01/31 08:13:46.0	313.910	-0.370	-0.250	-0.700
2020/01/31 08:13:46.1	313.920	-0.360	-0.230	-0.690
2020/01/31 08:13:46.2	313.930	-0.350	-0.200	-0.690
2020/01/31 08:13:46.3	313.950	-0.340	-0.180	-0.680
2020/01/31 08:13:46.4	313.970	-0.330	-0.160	-0.670
2020/01/31 08:13:46.5	313.980	-0.310	-0.150	-0.660
2020/01/31 08:13:46.6	313.990	-0.300	-0.140	-0.640
2020/01/31 08:13:46.7	314.010	-0.280	-0.130	-0.630
2020/01/31 08:13:46.8	314.020	-0.260	-0.130	-0.610
2020/01/31 08:13:46.9	314.040	-0.240	-0.130	-0.600
2020/01/31 08:13:47.0	314.050	-0.220	-0.130	-0.580
2020/01/31 08:13:47.1	314.070	-0.200	-0.140	-0.570
2020/01/31 08:13:47.2	314.080	-0.170	-0.140	-0.550
2020/01/31 08:13:47.3	314.100	-0.150	-0.150	-0.530
2020/01/31 08:13:47.4	314.110	-0.130	-0.160	-0.510
2020/01/31 08:13:47.5	314.130	-0.100	-0.170	-0.500
2020/01/31 08:13:47.6	314.140	-0.080	-0.190	-0.480
2020/01/31 08:13:47.7	314.150	-0.050	-0.200	-0.460
2020/01/31 08:13:47.8	314.170	-0.030	-0.210	-0.440
2020/01/31 08:13:47.9	314.180	-0.010	-0.220	-0.430
2020/01/31 08:13:48.0	314.190	0.020	-0.240	-0.410
2020/01/31 08:13:48.1	314.210	0.040	-0.250	-0.400
2020/01/31 08:13:48.2	314.220	0.060	-0.260	-0.380
2020/01/31 08:13:48.3	314.220	0.080	-0.270	-0.370
2020/01/31 08:13:48.4	314.230	0.100	-0.280	-0.360
2020/01/31 08:13:48.5	314.250	0.110	-0.280	-0.350
2020/01/31 08:13:48.6	314.260	0.130	-0.280	-0.340
2020/01/31 08:13:48.7	314.270	0.140	-0.280	-0.330
2020/01/31 08:13:48.8	314.280	0.150	-0.280	-0.320
2020/01/31 08:13:48.9	314.300	0.160	-0.270	-0.310
2020/01/31 08:13:49.0	314.310	0.170	-0.270	-0.300
2020/01/31 08:13:49.1	314.320	0.180	-0.250	-0.290
2020/01/31 08:13:49.2	314.320	0.180	-0.240	-0.280
2020/01/31 08:13:49.3	314.320	0.190	-0.220	-0.270
2020/01/31 08:13:49.4	314.330	0.190	-0.200	-0.260
2020/01/31 08:13:49.5	314.330	0.190	-0.180	-0.250
2020/01/31 08:13:49.6	314.330	0.180	-0.150	-0.240
2020/01/31 08:13:49.7	314.330	0.180	-0.120	-0.220
2020/01/31 08:13:49.8	314.330	0.170	-0.090	-0.210
2020/01/31 08:13:49.9	314.320	0.160	-0.050	-0.200
2020/01/31 08:13:50.0	314.320	0.150	-0.020	-0.180
2020/01/31 08:13:50.1	314.310	0.140	0.020	-0.170
2020/01/31 08:13:50.2	314.300	0.120	0.060	-0.160
2020/01/31 08:13:50.3	314.280	0.100	0.100	-0.140
2020/01/31 08:13:50.4	314.270	0.090	0.150	-0.130
2020/01/31 08:13:50.5	314.250	0.070	0.190	-0.120
2020/01/31 08:13:50.6	314.230	0.050	0.230	-0.110
2020/01/31 08:13:50.7	314.210	0.030	0.270	-0.100
2020/01/31 08:13:50.8	314.190	0.010	0.310	-0.090
2020/01/31 08:13:50.9	314.160	-0.010	0.350	-0.090
2020/01/31 08:13:51.0	314.140	-0.030	0.390	-0.080
2020/01/31 08:13:51.1	314.110	-0.050	0.420	-0.080
2020/01/31 08:13:51.2	314.080	-0.070	0.460	-0.070
2020/01/31 08:13:51.3	314.050	-0.090	0.490	-0.070
2020/01/31 08:13:51.4	314.020	-0.110	0.510	-0.070
2020/01/31 08:13:51.5	314.000	-0.130	0.540	-0.080
2020/01/31 08:13:51.6	313.970	-0.140	0.560	-0.080
2020/01/31 08:13:51.7	313.940	-0.160	0.570	-0.080
2020/01/31 08:13:51.8	313.910	-0.170	0.590	-0.090
2020/01/31 08:13:51.9	313.880	-0.180	0.600	-0.090
2020/01/31 08:13:52.0	313.850	-0.190	0.600	-0.100
2020/01/31 08:13:52.1	313.820	-0.200	0.600	-0.100
2020/01/31 08:13:52.2	313.790	-0.200	0.590	-0.110
2020/01/31 08:13:52.3	313.750	-0.200	0.590	-0.110
2020/01/31 08:13:52.4	313.720	-0.200	0.570	-0.110
2020/01/31 08:13:52.5	313.690	-0.200	0.550	-0.110
2020/01/31 08:13:52.6	313.660	-0.190	0.530	-0.120
2020/01/31 08:13:52.7	313.620	-0.180	0.500	-0.120
2020/01/31 08:13:52.8	313.590	-0.170	0.470	-0.120
2020/01/31 08:13:52.9	313.560	-0.150	0.430	-0.120
2020/01/31 08:13:53.0	313.530	-0.140	0.380	-0.110
2020/01/31 08:13:53.1	313.500	-0.120	0.340	-0.110
2020/01/31 08:13:53.2	313.470	-0.090	0.280	-0.110
2020/01/31 08:13:53.3	313.450	-0.070	0.220	-0.110
2020/01/31 08:13:53.4	313.420	-0.040	0.160	-0.100
2020/01/31 08:13:53.5	313.400	-0.010	0.100	-0.100
2020/01/31 08:13:53.6	313.370	0.020	0.030	-0.100
2020/01/31 08:13:53.7	313.350	0.050	-0.050	-0.100
2020/01/31 08:13:53.8	313.330	0.080	-0.120	-0.100
2020/01/31 08:13:53.9	313.310	0.120	-0.200	-0.100
2020/01/31 08:13:54.0	313.290	0.150	-0.280	-0.100
2020/01/31 08:13:54.1	313.280	0.190	-0.360	-0.100
2020/01/31 08:13:54.2	313.260	0.220	-0.450	-0.100
2020/01/31 08:13:54.3	313.250	0.260	-0.530	-0.100
2020/01/31 08:13:54.4	313.240	0.300	-0.610	-0.100
2020/01/31 08:13:54.5	313.230	0.330	-0.690	-0.110
2020/01/31 08:13:54.6	313.220	0.370	-0.770	-0.110
2020/01/31 08:13:54.7	313.210	0.400	-0.850	-0.120
2020/01/31 08:13:54.8	313.210	0.430	-0.920	-0.130
2020/01/31 08:13:54.9	313.200	0.460	-0.990	-0.130
2020/01/31 08:13:55.0	313.200	0.490	-1.060	-0.140
2020/01/31 08:13:55.1	313.200	0.520	-1.120	-0.150
2020/01/31 08:13:55.2	313.210	0.540	-1.180	-0.170
2020/01/31 08:13:55.3	313.210	0.560	-1.230	-0.180
2020/01/31 08:13:55.4	313.220	0.580	-1.280	-0.200
2020/01/31 08:13:55.5	313.230	0.600	-1.330	-0.210
2020/01/31 08:13:55.6	313.240	0.620	-1.360	-0.230
2020/01/31 08:13:55.7	313.250	0.630	-1.400	-0.250
2020/01/31 08:13:55.8	313.270	0.640	-1.420	-0.270
2020/01/31 08:13:55.9	313.290	0.640	-1.440	-0.290
2020/01/31 08:13:56.0	313.310	0.640	-1.460	-0.310
2020/01/31 08:13:56.1	313.340	0.640	-1.470	-0.330
2020/01/31 08:13:56.2	313.370	0.640	-1.470	-0.360
2020/01/31 08:13:56.3	313.400	0.630	-1.470	-0.380
2020/01/31 08:13:56.4	313.430	0.620	-1.460	-0.410
2020/01/31 08:13:56.5	313.460	0.610	-1.440	-0.440
2020/01/31 08:13:56.6	313.500	0.590	-1.420	-0.460
2020/01/31 08:13:56.7	313.540	0.570	-1.400	-0.490
2020/01/31 08:13:56.8	313.570	0.550	-1.370	-0.520
2020/01/31 08:13:56.9	313.610	0.520	-1.330	-0.550
2020/01/31 08:13:57.0	313.650	0.490	-1.290	-0.580
2020/01/31 08:13:57.1	313.690	0.460	-1.240	-0.610
2020/01/31 08:13:57.2	313.730	0.430	-1.190	-0.640
2020/01/31 08:13:57.3	313.760	0.390	-1.130	-0.660
2020/01/31 08:13:57.4	313.800	0.350	-1.070	-0.690
2020/01/31 08:13:57.5	313.840	0.300	-1.010	-0.720
2020/01/31 08:13:57.6	313.870	0.260	-0.940	-0.740
2020/01/31 08:13:57.7	313.910	0.210	-0.870	-0.770
2020/01/31 08:13:57.8	313.950	0.160	-0.790	-0.790
2020/01/31 08:13:57.9	313.980	0.100	-0.720	-0.810
2020/01/31 08:13:58.0	314.020	0.050	-0.640	-0.840
2020/01/31 08:13:58.1	314.050	-0.000	-0.560	-0.860
2020/01/31 08:13:58.2	314.080	-0.060	-0.480	-0.870
2020/01/31 08:13:58.3	314.110	-0.120	-0.390	-0.900
2020/01/31 08:13:58.4	314.140	-0.170	-0.310	-0.910
2020/01/31 08:13:58.5	314.170	-0.230	-0.230	-0.930
2020/01/31 08:13:58.6	314.200	-0.280	-0.150	-0.940
2020/01/31 08:13:58.7	314.220	-0.340	-0.070	-0.950
2020/01/31 08:13:58.8	314.240	-0.390	0.010	-0.960
2020/01/31 08:13:58.9	314.270	-0.440	0.090	-0.960
2020/01/31 08:13:59.0	314.290	-0.490	0.170	-0.970
2020/01/31 08:13:59.1	314.310	-0.540	0.240	-0.970
2020/01/31 08:13:59.2	314.320	-0.580	0.310	-0.970
2020/01/31 08:13:59.3	314.340	-0.620	0.380	-0.960
2020/01/31 08:13:59.4	314.360	-0.660	0.440	-0.950
2020/01/31 08:13:59.5	314.370	-0.700	0.500	-0.940
2020/01/31 08:13:59.6	314.380	-0.730	0.550	-0.930
2020/01/31 08:13:59.7	314.380	-0.750	0.610	-0.920
2020/01/31 08:13:59.8	314.390	-0.780	0.650	-0.900
2020/01/31 08:13:59.9	314.390	-0.800	0.690	-0.880
2020/01/31 08:14:00.0	314.390	-0.810	0.730	-0.850
2020/01/31 08:14:00.1	314.390	-0.820	0.760	-0.830
2020/01/31 08:14:00.2	314.380	-0.830	0.780	-0.800
2020/01/31 08:14:00.3	314.370	-0.830	0.810	-0.770
2020/01/31 08:14:00.4	314.360	-0.830	0.820	-0.740
2020/01/31 08:14:00.5	314.340	-0.830	0.830	-0.710
2020/01/31 08:14:00.6	314.330	-0.820	0.830	-0.680
2020/01/31 08:14:00.7	314.310	-0.810	0.820	-0.640
2020/01/31 08:14:00.8	314.290	-0.790	0.810	-0.610
2020/01/31 08:14:00.9	314.270	-0.780	0.800	-0.580
2020/01/31 08:14:01.0	314.250	-0.760	0.780	-0.550
2020/01/31 08:14:01.1	314.230	-0.730	0.750	-0.520
2020/01/31 08:14:01.2	314.200	-0.710	0.720	-0.480
2020/01/31 08:14:01.3	314.180	-0.680	0.680	-0.460
2020/01/31 08:14:01.4	314.150	-0.650	0.640	-0.430
2020/01/31 08:14:01.5	314.120	-0.610	0.600	-0.400
2020/01/31 08:14:01.6	314.090	-0.580	0.550	-0.380
2020/01/31 08:14:01.7	314.060	-0.540	0.500	-0.350
2020/01/31 08:14:01.8	314.030	-0.510	0.450	-0.330
2020/01/31 08:14:01.9	313.990	-0.470	0.390	-0.300
2020/01/31 08:14:02.0	313.950	-0.430	0.340	-0.280
2020/01/31 08:14:02.1	313.920	-0.400	0.280	-0.260
2020/01/31 08:14:02.2	313.880	-0.360	0.220	-0.240
2020/01/31 08:14:02.3	313.840	-0.320	0.170	-0.220
2020/01/31 08:14:02.4	313.800	-0.280	0.110	-0.200
2020/01/31 08:14:02.5	313.750	-0.240	0.060	-0.180
2020/01/31 08:14:02.6	313.710	-0.200	0.010	-0.170
2020/01/31 08:14:02.7	313.660	-0.160	-0.050	-0.150
2020/01/31 08:14:02.8	313.620	-0.130	-0.090	-0.130
2020/01/31 08:14:02.9	313.570	-0.090	-0.140	-0.110
2020/01/31 08:14:03.0	313.520	-0.060	-0.180	-0.090
2020/01/31 08:14:03.1	313.470	-0.020	-0.220	-0.070
2020/01/31 08:14:03.2	313.420	0.010	-0.260	-0.060
2020/01/31 08:14:03.3	313.380	0.050	-0.290	-0.040
2020/01/31 08:14:03.4	313.330	0.080	-0.320	-0.020
2020/01/31 08:14:03.5	313.280	0.110	-0.350	-0.000
2020/01/31 08:14:03.6	313.230	0.140	-0.380	0.020
2020/01/31 08:14:03.7	313.190	0.170	-0.400	0.030
2020/01/31 08:14:03.8	313.140	0.200	-0.420	0.050
2020/01/31 08:14:03.9	313.100	0.220	-0.430	0.070
2020/01/31 08:14:04.0	313.060	0.250	-0.440	0.080
2020/01/31 08:14:04.1	313.020	0.270	-0.460	0.090
2020/01/31 08:14:04.2	312.980	0.290	-0.470	0.100
2020/01/31 08:14:04.3	312.950	0.320	-0.470	0.110
2020/01/31 08:14:04.4	312.920	0.340	-0.480	0.120
2020/01/31 08:14:04.5	312.890	0.350	-0.490	0.120
2020/01/31 08:14:04.6	312.870	0.370	-0.490	0.120
2020/01/31 08:14:04.7	312.850	0.390	-0.500	0.110
2020/01/31 08:14:04.8	312.840	0.400	-0.510	0.110
2020/01/31 08:14:04.9	312.830	0.420	-0.510	0.100
2020/01/31 08:14:05.0	312.820	0.430	-0.520	0.080
2020/01/31 08:14:05.1	312.820	0.440	-0.530	0.070
2020/01/31 08:14:05.2	312.830	0.460	-0.540	0.040
2020/01/31 08:14:05.3	312.830	0.470	-0.550	0.020
2020/01/31 08:14:05.4	312.840	0.470	-0.560	-0.000
2020/01/31 08:14:05.5	312.850	0.480	-0.570	-0.030
2020/01/31 08:14:05.6	312.870	0.490	-0.580	-0.060
2020/01/31 08:14:05.7	312.890	0.490	-0.590	-0.090
2020/01/31 08:14:05.8	312.910	0.490	-0.600	-0.130
2020/01/31 08:14:05.9	312.930	0.490	-0.610	-0.160
2020/01/31 08:14:06.0	312.960	0.490	-0.620	-0.190
2020/01/31 08:14:06.1	312.980	0.490	-0.630	-0.230
2020/01/31 08:14:06.2	313.010	0.490	-0.640	-0.260
2020/01/31 08:14:06.3	313.040	0.490	-0.650	-0.300
2020/01/31 08:14:06.4	313.070	0.480	-0.660	-0.330
2020/01/31 08:14:06.5	313.100	0.470	-0.660	-0.360
2020/01/31 08:14:06.6	313.130	0.470	-0.670	-0.390
2020/01/31 08:14:06.7	313.160	0.460	-0.670	-0.420
2020/01/31 08:14:06.8	313.190	0.450	-0.680	-0.450
2020/01/31 08:14:06.9	313.230	0.440	-0.680	-0.470
2020/01/31 08:14:07.0	313.260	0.420	-0.680	-0.500
2020/01/31 08:14:07.1	313.290	0.410	-0.680	-0.520
2020/01/31 08:14:07.2	313.320	0.390	-0.670	-0.540
2020/01/31 08:14:07.3	313.340	0.380	-0.670	-0.550
2020/01/31 08:14:07.4	313.360	0.360	-0.670	-0.570
2020/01/31 08:14:07.5	313.390	0.340	-0.660	-0.580
2020/01/31 08:14:07.6	313.420	0.320	-0.650	-0.590
2020/01/31 08:14:07.7	313.440	0.300	-0.640	-0.600
2020/01/31 08:14:07.8	313.460	0.280	-0.630	-0.610
2020/01/31 08:14:07.9	313.490	0.260	-0.620	-0.610
2020/01/31 08:14:08.0	313.510	0.240	-0.610	-0.620
2020/01/31 08:14:08.1	313.530	0.220	-0.600	-0.620
2020/01/31 08:14:08.2	313.550	0.200	-0.580	-0.620
2020/01/31 08:14:08.3	313.560	0.180	-0.570	-0.620
2020/01/31 08:14:08.4	313.580	0.160	-0.550	-0.620
2020/01/31 08:14:08.5	313.590	0.140	-0.530	-0.620
2020/01/31 08:14:08.6	313.610	0.130	-0.510	-0.610
2020/01/31 08:14:08.7	313.620	0.110	-0.490	-0.600
2020/01/31 08:14:08.8	313.630	0.090	-0.470	-0.590
2020/01/31 08:14:08.9	313.640	0.070	-0.450	-0.570
2020/01/31 08:14:09.0	313.650	0.060	-0.420	-0.560
2020/01/31 08:14:09.1	313.660	0.040	-0.390	-0.540
2020/01/31 08:14:09.2	313.660	0.030	-0.360	-0.520
2020/01/31 08:14:09.3	313.670	0.020	-0.340	-0.490
2020/01/31 08:14:09.4	313.680	0.010	-0.310	-0.470
2020/01/31 08:14:09.5	313.680	-0.000	-0.270	-0.450
2020/01/31 08:14:09.6	313.680	-0.010	-0.240	-0.420
2020/01/31 08:14:09.7	313.680	-0.020	-0.210	-0.400
2020/01/31 08:14:09.8	313.680	-0.030	-0.180	-0.370
2020/01/31 08:14:09.9	313.680	-0.030	-0.150	-0.350
2020/01/31 08:14:10.0	313.680	-0.040	-0.110	-0.320
2020/01/31 08:14:10.1	313.680	-0.040	-0.080	-0.300
2020/01/31 08:14:10.2	313.680	-0.040	-0.050	-0.270
2020/01/31 08:14:10.3	313.680	-0.050	-0.020	-0.250
2020/01/31 08:14:10.4	313.680	-0.050	0.000	-0.230
2020/01/31 08:14:10.5	313.680	-0.050	0.030	-0.210
2020/01/31 08:14:10.6	313.690	-0.050	0.050	-0.190
2020/01/31 08:14:10.7	313.690	-0.050	0.070	-0.180
2020/01/31 08:14:10.8	313.700	-0.050	0.080	-0.170
2020/01/31 08:14:10.9	313.700	-0.050	0.090	-0.160
2020/01/31 08:14:11.0	313.710	-0.050	0.100	-0.160
2020/01/31 08:14:11.1	313.720	-0.050	0.110	-0.150
2020/01/31 08:14:11.2	313.730	-0.050	0.110	-0.150
2020/01/31 08:14:11.3	313.740	-0.050	0.110	-0.150
2020/01/31 08:14:11.4	313.750	-0.050	0.110	-0.160
2020/01/31 08:14:11.5	313.760	-0.050	0.110	-0.170
2020/01/31 08:14:11.6	313.770	-0.050	0.100	-0.170
2020/01/31 08:14:11.7	313.780	-0.050	0.100	-0.180
2020/01/31 08:14:11.8	313.790	-0.050	0.090	-0.190
2020/01/31 08:14:11.9	313.800	-0.060	0.080	-0.210
2020/01/31 08:14:12.0	313.800	-0.060	0.080	-0.220
2020/01/31 08:14:12.1	313.800	-0.060	0.070	-0.230
2020/01/31 08:14:12.2	313.800	-0.070	0.060	-0.240
2020/01/31 08:14:12.3	313.800	-0.070	0.060	-0.240
2020/01/31 08:14:12.4	313.790	-0.080	0.060	-0.250
2020/01/31 08:14:12.5	313.780	-0.090	0.050	-0.250
2020/01/31 08:14:12.6	313.770	-0.100	0.050	-0.260
2020/01/31 08:14:12.7	313.750	-0.110	0.050	-0.260
2020/01/31 08:14:12.8	313.730	-0.120	0.050	-0.260
2020/01/31 08:14:12.9	313.710	-0.130	0.060	-0.260
2020/01/31 08:14:13.0	313.690	-0.140	0.060	-0.260
2020/01/31 08:14:13.1	313.670	-0.150	0.070	-0.260
2020/01/31 08:14:13.2	313.640	-0.160	0.070	-0.260
2020/01/31 08:14:13.3	313.610	-0.170	0.080	-0.260
2020/01/31 08:14:13.4	313.590	-0.180	0.090	-0.260
2020/01/31 08:14:13.5	313.560	-0.200	0.100	-0.260
2020/01/31 08:14:13.6	313.530	-0.210	0.110	-0.260
2020/01/31 08:14:13.7	313.490	-0.220	0.110	-0.260
2020/01/31 08:14:13.8	313.460	-0.230	0.120	-0.260
2020/01/31 08:14:13.9	313.430	-0.240	0.130	-0.260
2020/01/31 08:14:14.0	313.400	-0.250	0.130	-0.260
2020/01/31 08:14:14.1	313.370	-0.250	0.130	-0.260
2020/01/31 08:14:14.2	313.330	-0.260	0.130	-0.260
2020/01/31 08:14:14.3	313.300	-0.270	0.130	-0.260
2020/01/31 08:14:14.4	313.270	-0.270	0.130	-0.260
2020/01/31 08:14:14.5	313.230	-0.270	0.130	-0.250
2020/01/31 08:14:14.6	313.200	-0.270	0.120	-0.250
2020/01/31 08:14:14.7	313.170	-0.270	0.120	-0.250
2020/01/31 08:14:14.8	313.140	-0.270	0.110	-0.250
2020/01/31 08:14:14.9	313.100	-0.260	0.100	-0.250
2020/01/31 08:14:15.0	313.070	-0.260	0.080	-0.250
2020/01/31 08:14:15.1	313.040	-0.250	0.070	-0.260
2020/01/31 08:14:15.2	313.010	-0.240	0.050	-0.260
2020/01/31 08:14:15.3	312.980	-0.230	0.030	-0.260
2020/01/31 08:14:15.4	312.950	-0.220	0.000	-0.260
2020/01/31 08:14:15.5	312.930	-0.200	-0.020	-0.270
2020/01/31 08:14:15.6	312.900	-0.190	-0.050	-0.280
2020/01/31 08:14:15.7	312.880	-0.170	-0.090	-0.290
2020/01/31 08:14:15.8	312.860	-0.150	-0.120	-0.300
2020/01/31 08:14:15.9	312.840	-0.140	-0.160	-0.320
2020/01/31 08:14:16.0	312.830	-0.120	-0.200	-0.340
2020/01/31 08:14:16.1	312.820	-0.100	-0.240	-0.360
2020/01/31 08:14:16.2	312.810	-0.080	-0.290	-0.380
2020/01/31 08:14:16.3	312.800	-0.060	-0.330	-0.410
2020/01/31 08:14:16.4	312.800	-0.040	-0.380	-0.430
2020/01/31 08:14:16.5	312.800	-0.020	-0.430	-0.460
2020/01/31 08:14:16.6	312.800	0.010	-0.470	-0.500
2020/01/31 08:14:16.7	312.810	0.030	-0.520	-0.530
2020/01/31 08:14:16.8	312.830	0.050	-0.570	-0.560
2020/01/31 08:14:16.9	312.840	0.060	-0.610	-0.600
2020/01/31 08:14:17.0	312.860	0.080	-0.650	-0.630
2020/01/31 08:14:17.1	312.880	0.100	-0.690	-0.660
2020/01/31 08:14:17.2	312.910	0.120	-0.730	-0.700
2020/01/31 08:14:17.3	312.940	0.130	-0.770	-0.730
2020/01/31 08:14:17.4	312.960	0.140	-0.800	-0.760
2020/01/31 08:14:17.5	312.990	0.160	-0.820	-0.780
2020/01/31 08:14:17.6	313.020	0.170	-0.850	-0.810
2020/01/31 08:14:17.7	313.050	0.180	-0.860	-0.830
2020/01/31 08:14:17.8	313.080	0.180	-0.880	-0.840
2020/01/31 08:14:17.9	313.110	0.190	-0.880	-0.860
2020/01/31 08:14:18.0	313.140	0.190	-0.880	-0.860
2020/01/31 08:14:18.1	313.170	0.200	-0.880	-0.870
2020/01/31 08:14:18.2	313.200	0.200	-0.870	-0.860
2020/01/31 08:14:18.3	313.230	0.200	-0.860	-0.850
2020/01/31 08:14:18.4	313.260	0.190	-0.840	-0.840
2020/01/31 08:14:18.5	313.280	0.190	-0.820	-0.820
2020/01/31 08:14:18.6	313.310	0.190	-0.790	-0.800
2020/01/31 08:14:18.7	313.330	0.180	-0.760	-0.770
2020/01/31 08:14:18.8	313.350	0.180	-0.720	-0.750
2020/01/31 08:14:18.9	313.370	0.170	-0.690	-0.710
2020/01/31 08:14:19.0	313.390	0.160	-0.650	-0.680
2020/01/31 08:14:19.1	313.410	0.160	-0.610	-0.640
2020/01/31 08:14:19.2	313.430	0.150	-0.570	-0.600
2020/01/31 08:14:19.3	313.440	0.140	-0.530	-0.560
2020/01/31 08:14:19.4	313.460	0.130	-0.490	-0.520
2020/01/31 08:14:19.5	313.480	0.120	-0.440	-0.480
2020/01/31 08:14:19.6	313.490	0.120	-0.400	-0.440
2020/01/31 08:14:19.7	313.510	0.110	-0.370	-0.400
2020/01/31 08:14:19.8	313.530	0.100	-0.330	-0.360
2020/01/31 08:14:19.9	313.540	0.100	-0.300	-0.320
2020/01/31 08:14:20.0	313.550	0.090	-0.260	-0.280
2020/01/31 08:14:20.1	313.570	0.090	-0.230	-0.240
2020/01/31 08:14:20.2	313.580	0.080	-0.210	-0.200
2020/01/31 08:14:20.3	313.600	0.080	-0.180	-0.150
2020/01/31 08:14:20.4	313.610	0.080	-0.160	-0.120
2020/01/31 08:14:20.5	313.620	0.080	-0.150	-0.080
2020/01/31 08:14:20.6	313.630	0.080	-0.130	-0.040
2020/01/31 08:14:20.7	313.640	0.080	-0.120	-0.010
2020/01/31 08:14:20.8	313.640	0.080	-0.120	0.030
2020/01/31 08:14:20.9	313.650	0.080	-0.110	0.060
2020/01/31 08:14:21.0	313.650	0.090	-0.110	0.090
2020/01/31 08:14:21.1	313.660	0.090	-0.110	0.120
2020/01/31 08:14:21.2	313.660	0.100	-0.120	0.150
2020/01/31 08:14:21.3	313.660	0.100	-0.120	0.180
2020/01/31 08:14:21.4	313.660	0.110	-0.130	0.200
2020/01/31 08:14:21.5	313.660	0.110	-0.140	0.220
2020/01/31 08:14:21.6	313.660	0.120	-0.160	0.240
2020/01/31 08:14:21.7	313.660	0.120	-0.170	0.260
2020/01/31 08:14:21.8	313.660	0.130	-0.190	0.270
2020/01/31 08:14:21.9	313.660	0.130	-0.200	0.280
2020/01/31 08:14:22.0	313.660	0.140	-0.220	0.290
2020/01/31 08:14:22.1	313.650	0.140	-0.230	0.290
2020/01/31 08:14:22.2	313.650	0.140	-0.250	0.290
2020/01/31 08:14:22.3	313.640	0.140	-0.260	0.290
2020/01/31 08:14:22.4	313.640	0.140	-0.280	0.290
2020/01/31 08:14:22.5	313.630	0.140	-0.290	0.280
2020/01/31 08:14:22.6	313.620	0.140	-0.300	0.270
2020/01/31 08:14:22.7	313.610	0.130	-0.310	0.260
2020/01/31 08:14:22.8	313.600	0.130	-0.320	0.250
2020/01/31 08:14:22.9	313.590	0.120	-0.320	0.230
2020/01/31 08:14:23.0	313.580	0.110	-0.320	0.210
2020/01/31 08:14:23.1	313.570	0.100	-0.320	0.200
2020/01/31 08:14:23.2	313.560	0.090	-0.320	0.180
2020/01/31 08:14:23.3	313.550	0.080	-0.320	0.150
2020/01/31 08:14:23.4	313.530	0.070	-0.310	0.130
2020/01/31 08:14:23.5	313.520	0.050	-0.300	0.100
2020/01/31 08:14:23.6	313.510	0.040	-0.290	0.080
2020/01/31 08:14:23.7	313.500	0.020	-0.270	0.050
2020/01/31 08:14:23.8	313.490	0.010	-0.250	0.020
2020/01/31 08:14:23.9	313.480	-0.010	-0.230	-0.010
2020/01/31 08:14:24.0	313.470	-0.030	-0.210	-0.040
2020/01/31 08:14:24.1	313.460	-0.040	-0.180	-0.080
2020/01/31 08:14:24.2	313.460	-0.060	-0.160	-0.110
2020/01/31 08:14:24.3	313.460	-0.080	-0.130	-0.140
2020/01/31 08:14:24.4	313.450	-0.090	-0.100	-0.180
2020/01/31 08:14:24.5	313.440	-0.110	-0.060	-0.210
2020/01/31 08:14:24.6	313.440	-0.130	-0.030	-0.250
2020/01/31 08:14:24.7	313.430	-0.140	0.000	-0.280
2020/01/31 08:14:24.8	313.420	-0.160	0.040	-0.310
2020/01/31 08:14:24.9	313.410	-0.180	0.070	-0.340
2020/01/31 08:14:25.0	313.400	-0.190	0.110	-0.370
2020/01/31 08:14:25.1	313.400	-0.210	0.140	-0.400
2020/01/31 08:14:25.2	313.390	-0.220	0.180	-0.430
2020/01/31 08:14:25.3	313.380	-0.230	0.210	-0.460
2020/01/31 08:14:25.4	313.380	-0.240	0.240	-0.480
2020/01/31 08:14:25.5	313.370	-0.250	0.270	-0.510
2020/01/31 08:14:25.6	313.360	-0.260	0.300	-0.530
2020/01/31 08:14:25.7	313.350	-0.270	0.330	-0.550
2020/01/31 08:14:25.8	313.340	-0.280	0.350	-0.570
2020/01/31 08:14:25.9	313.330	-0.280	0.370	-0.590
2020/01/31 08:14:26.0	313.320	-0.280	0.390	-0.610
2020/01/31 08:14:26.1	313.310	-0.290	0.400	-0.620
2020/01/31 08:14:26.2	313.300	-0.290	0.410	-0.640
2020/01/31 08:14:26.3	313.290	-0.280	0.420	-0.650
2020/01/31 08:14:26.4	313.280	-0.280	0.420	-0.660
2020/01/31 08:14:26.5	313.270	-0.270	0.410	-0.670
2020/01/31 08:14:26.6	313.260	-0.270	0.410	-0.670
2020/01/31 08:14:26.7	313.260	-0.260	0.400	-0.680
2020/01/31 08:14:26.8	313.250	-0.240	0.380	-0.680
2020/01/31 08:14:26.9	313.250	-0.230	0.360	-0.690
2020/01/31 08:14:27.0	313.240	-0.210	0.340	-0.690
2020/01/31 08:14:27.1	313.240	-0.200	0.310	-0.690
2020/01/31 08:14:27.2	313.230	-0.180	0.280	-0.690
2020/01/31 08:14:27.3	313.230	-0.150	0.240	-0.690
2020/01/31 08:14:27.4	313.220	-0.130	0.200	-0.690
2020/01/31 08:14:27.5	313.220	-0.110	0.160	-0.680
2020/01/31 08:14:27.6	313.230	-0.080	0.120	-0.670
2020/01/31 08:14:27.7	313.230	-0.050	0.070	-0.670
2020/01/31 08:14:27.8	313.230	-0.020	0.020	-0.660
2020/01/31 08:14:27.9	313.230	0.010	-0.030	-0.650
2020/01/31 08:14:28.0	313.240	0.040	-0.080	-0.630
2020/01/31 08:14:28.1	313.240	0.070	-0.130	-0.620
2020/01/31 08:14:28.2	313.250	0.100	-0.190	-0.610
2020/01/31 08:14:28.3	313.250	0.140	-0.240	-0.590
2020/01/31 08:14:28.4	313.260	0.170	-0.300	-0.580
2020/01/31 08:14:28.5	313.270	0.200	-0.360	-0.560
2020/01/31 08:14:28.6	313.270	0.230	-0.410	-0.540
2020/01/31 08:14:28.7	313.280	0.260	-0.470	-0.520
2020/01/31 08:14:28.8	313.290	0.290	-0.520	-0.510
2020/01/31 08:14:28.9	313.300	0.310	-0.570	-0.490
2020/01/31 08:14:29.0	313.310	0.340	-0.620	-0.470
2020/01/31 08:14:29.1	313.320	0.360	-0.670	-0.450
2020/01/31 08:14:29.2	313.330	0.380	-0.720	-0.430
2020/01/31 08:14:29.3	313.360	0.400	-0.760	-0.400
2020/01/31 08:14:29.4	313.370	0.420	-0.800	-0.380
2020/01/31 08:14:29.5	313.380	0.430	-0.830	-0.360
2020/01/31 08:14:29.6	313.390	0.440	-0.860	-0.340
2020/01/31 08:14:29.7	313.400	0.450	-0.890	-0.310
2020/01/31 08:14:29.8	313.410	0.450	-0.910	-0.290
2020/01/31 08:14:29.9	313.420	0.450	-0.920	-0.270
2020/01/31 08:14:30.0	313.430	0.450	-0.930	-0.250
2020/01/31 08:14:30.1	313.440	0.450	-0.940	-0.220
2020/01/31 08:14:30.2	313.450	0.440	-0.940	-0.200
2020/01/31 08:14:30.3	313.460	0.430	-0.930	-0.180
2020/01/31 08:14:30.4	313.470	0.420	-0.930	-0.160
2020/01/31 08:14:30.5	313.470	0.400	-0.910	-0.140
2020/01/31 08:14:30.6	313.480	0.380	-0.900	-0.120
2020/01/31 08:14:30.7	313.490	0.360	-0.880	-0.100
2020/01/31 08:14:30.8	313.490	0.340	-0.860	-0.080
2020/01/31 08:14:30.9	313.500	0.310	-0.830	-0.070
2020/01/31 08:14:31.0	313.500	0.290	-0.800	-0.050
2020/01/31 08:14:31.1	313.510	0.260	-0.770	-0.040
2020/01/31 08:14:31.2	313.510	0.230	-0.740	-0.030
2020/01/31 08:14:31.3	313.510	0.190	-0.710	-0.020
2020/01/31 08:14:31.4	313.510	0.160	-0.670	-0.010
2020/01/31 08:14:31.5	313.520	0.130	-0.640	-0.000
2020/01/31 08:14:31.6	313.520	0.090	-0.600	0.010
2020/01/31 08:14:31.7	313.520	0.060	-0.560	0.010
2020/01/31 08:14:31.8	313.520	0.020	-0.520	0.010
2020/01/31 08:14:31.9	313.520	-0.010	-0.480	0.020
2020/01/31 08:14:32.0	313.520	-0.040	-0.440	0.020
2020/01/31 08:14:32.1	313.520	-0.080	-0.400	0.020
2020/01/31 08:14:32.2	313.530	-0.110	-0.370	0.020
2020/01/31 08:14:32.3	313.520	-0.140	-0.320	0.010
2020/01/31 08:14:32.4	313.520	-0.170	-0.290	0.010
2020/01/31 08:14:32.5	313.520	-0.200	-0.260	0.000
2020/01/31 08:14:32.6	313.530	-0.220	-0.220	-0.010
2020/01/31 08:14:32.7	313.530	-0.250	-0.190	-0.020
2020/01/31 08:14:32.8	313.530	-0.270	-0.170	-0.030
2020/01/31 08:14:32.9	313.530	-0.290	-0.140	-0.050
2020/01/31 08:14:33.0	313.530	-0.310	-0.120	-0.060
2020/01/31 08:14:33.1	313.530	-0.330	-0.090	-0.080
2020/01/31 08:14:33.2	313.530	-0.340	-0.080	-0.100
2020/01/31 08:14:33.3	313.530	-0.350	-0.060	-0.120
2020/01/31 08:14:33.4	313.540	-0.360	-0.050	-0.140
2020/01/31 08:14:33.5	313.540	-0.370	-0.040	-0.160
2020/01/31 08:14:33.6	313.540	-0.370	-0.030	-0.180
2020/01/31 08:14:33.7	313.540	-0.370	-0.020	-0.210
2020/01/31 08:14:33.8	313.540	-0.370	-0.020	-0.230
2020/01/31 08:14:33.9	313.540	-0.370	-0.020	-0.250
2020/01/31 08:14:34.0	313.540	-0.370	-0.020	-0.270
2020/01/31 08:14:34.1	313.540	-0.360	-0.020	-0.290
2020/01/31 08:14:34.2	313.540	-0.360	-0.030	-0.310
2020/01/31 08:14:34.3	313.540	-0.350	-0.030	-0.330
2020/01/31 08:14:34.4	313.540	-0.340	-0.040	-0.350
2020/01/31 08:14:34.5	313.530	-0.330	-0.050	-0.360
2020/01/31 08:14:34.6	313.530	-0.310	-0.060	-0.380
2020/01/31 08:14:34.7	313.530	-0.300	-0.070	-0.390
2020/01/31 08:14:34.8	313.530	-0.290	-0.090	-0.400
2020/01/31 08:14:34.9	313.520	-0.270	-0.100	-0.410
2020/01/31 08:14:35.0	313.520	-0.250	-0.110	-0.420
2020/01/31 08:14:35.1	313.520	-0.240	-0.130	-0.430
2020/01/31 08:14:35.2	313.520	-0.220	-0.140	-0.430
2020/01/31 08:14:35.3	313.510	-0.210	-0.150	-0.440
2020/01/31 08:14:35.4	313.500	-0.190	-0.170	-0.440
2020/01/31 08:14:35.5	313.500	-0.170	-0.180	-0.450
2020/01/31 08:14:35.6	313.500	-0.160	-0.190	-0.450
2020/01/31 08:14:35.7	313.500	-0.140	-0.200	-0.460
2020/01/31 08:14:35.8	313.500	-0.120	-0.210	-0.460
2020/01/31 08:14:35.9	313.500	-0.110	-0.220	-0.470
2020/01/31 08:14:36.0	313.500	-0.090	-0.220	-0.470
2020/01/31 08:14:36.1	313.500	-0.080	-0.230	-0.470
2020/01/31 08:14:36.2	313.500	-0.060	-0.230	-0.470
2020/01/31 08:14:36.3	313.500	-0.050	-0.230	-0.470
2020/01/31 08:14:36.4	313.500	-0.040	-0.230	-0.470
2020/01/31 08:14:36.5	313.500	-0.020	-0.230	-0.470
2020/01/31 08:14:36.6	313.510	-0.010	-0.230	-0.470
2020/01/31 08:14:36.7	313.510	-0.000	-0.230	-0.460
2020/01/31 08:14:36.8	313.510	0.010	-0.220	-0.460
2020/01/31 08:14:36.9	313.510	0.020	-0.210	-0.460
2020/01/31 08:14:37.0	313.510	0.030	-0.200	-0.450
2020/01/31 08:14:37.1	313.520	0.030	-0.190	-0.450
2020/01/31 08:14:37.2	313.520	0.040	-0.180	-0.450
2020/01/31 08:14:37.3	313.530	0.040	-0.170	-0.440
2020/01/31 08:14:37.4	313.530	0.050	-0.160	-0.430
2020/01/31 08:14:37.5	313.530	0.050	-0.150	-0.430
2020/01/31 08:14:37.6	313.530	0.050	-0.130	-0.420
2020/01/31 08:14:37.7	313.530	0.050	-0.120	-0.420
2020/01/31 08:14:37.8	313.530	0.050	-0.100	-0.410
2020/01/31 08:14:37.9	313.530	0.050	-0.090	-0.410
2020/01/31 08:14:38.0	313.530	0.040	-0.070	-0.410
2020/01/31 08:14:38.1	313.530	0.040	-0.060	-0.400
2020/01/31 08:14:38.2	313.530	0.030	-0.050	-0.400
2020/01/31 08:14:38.3	313.550	0.030	-0.030	-0.390
2020/01/31 08:14:38.4	313.550	0.020	-0.020	-0.390
2020/01/31 08:14:38.5	313.550	0.010	-0.010	-0.380
2020/01/31 08:14:38.6	313.550	0.010	0.010	-0.380
2020/01/31 08:14:38.7	313.550	0.000	0.020	-0.370
2020/01/31 08:14:38.8	313.540	-0.010	0.030	-0.360
2020/01/31 08:14:38.9	313.540	-0.010	0.040	-0.350
2020/01/31 08:14:39.0	313.540	-0.020	0.050	-0.340
2020/01/31 08:14:39.1	313.530	-0.030	0.060	-0.330
2020/01/31 08:14:39.2	313.530	-0.040	0.070	-0.310
2020/01/31 08:14:39.3	313.510	-0.040	0.070	-0.300
2020/01/31 08:14:39.4	313.500	-0.050	0.080	-0.280
2020/01/31 08:14:39.5	313.490	-0.050	0.090	-0.250
2020/01/31 08:14:39.6	313.480	-0.060	0.090	-0.230
2020/01/31 08:14:39.7	313.470	-0.060	0.090	-0.210
2020/01/31 08:14:39.8	313.460	-0.060	0.100	-0.180
2020/01/31 08:14:39.9	313.450	-0.060	0.100	-0.150
2020/01/31 08:14:40.0	313.440	-0.060	0.100	-0.130
2020/01/31 08:14:40.1	313.430	-0.060	0.090	-0.100
2020/01/31 08:14:40.2	313.410	-0.060	0.090	-0.070
2020/01/31 08:14:40.3	313.400	-0.050	0.090	-0.030
2020/01/31 08:14:40.4	313.390	-0.040	0.090	-0.000
2020/01/31 08:14:40.5	313.370	-0.030	0.080	0.030
2020/01/31 08:14:40.6	313.360	-0.020	0.070	0.070
2020/01/31 08:14:40.7	313.350	-0.010	0.060	0.100
2020/01/31 08:14:40.8	313.330	0.010	0.050	0.130
2020/01/31 08:14:40.9	313.320	0.030	0.040	0.160
2020/01/31 08:14:41.0	313.310	0.040	0.030	0.200
2020/01/31 08:14:41.1	313.290	0.060	0.010	0.230
2020/01/31 08:14:41.2	313.280	0.080	-0.010	0.260
2020/01/31 08:14:41.3	313.280	0.110	-0.030	0.280
2020/01/31 08:14:41.4	313.270	0.130	-0.050	0.310
2020/01/31 08:14:41.5	313.260	0.150	-0.080	0.330
2020/01/31 08:14:41.6	313.250	0.180	-0.100	0.350
2020/01/31 08:14:41.7	313.240	0.200	-0.130	0.360
2020/01/31 08:14:41.8	313.230	0.230	-0.160	0.370
2020/01/31 08:14:41.9	313.220	0.250	-0.190	0.380
2020/01/31 08:14:42.0	313.210	0.270	-0.230	0.380
2020/01/31 08:14:42.1	313.200	0.300	-0.260	0.380
2020/01/31 08:14:42.2	313.200	0.320	-0.300	0.380
2020/01/31 08:14:42.3	313.200	0.340	-0.340	0.370
2020/01/31 08:14:42.4	313.190	0.360	-0.370	0.360
2020/01/31 08:14:42.5	313.190	0.370	-0.410	0.350
2020/01/31 08:14:42.6	313.190	0.390	-0.450	0.330
2020/01/31 08:14:42.7	313.180	0.400	-0.490	0.300
2020/01/31 08:14:42.8	313.180	0.410	-0.530	0.280
2020/01/31 08:14:42.9	313.180	0.420	-0.560	0.250
2020/01/31 08:14:43.0	313.180	0.430	-0.590	0.220
2020/01/31 08:14:43.1	313.180	0.440	-0.630	0.190
2020/01/31 08:14:43.2	313.180	0.440	-0.660	0.150
2020/01/31 08:14:43.3	313.190	0.440	-0.690	0.120
2020/01/31 08:14:43.4	313.190	0.440	-0.710	0.090
2020/01/31 08:14:43.5	313.190	0.440	-0.730	0.050
2020/01/31 08:14:43.6	313.190	0.430	-0.750	0.020
2020/01/31 08:14:43.7	313.190	0.430	-0.760	-0.010
2020/01/31 08:14:43.8	313.190	0.420	-0.770	-0.050
2020/01/31 08:14:43.9	313.200	0.410	-0.770	-0.080
2020/01/31 08:14:44.0	313.200	0.400	-0.770	-0.100
2020/01/31 08:14:44.1	313.200	0.390	-0.770	-0.130
2020/01/31 08:14:44.2	313.200	0.370	-0.760	-0.160
2020/01/31 08:14:44.3	313.200	0.360	-0.750	-0.180
2020/01/31 08:14:44.4	313.200	0.340	-0.740	-0.200
2020/01/31 08:14:44.5	313.210	0.330	-0.720	-0.230
2020/01/31 08:14:44.6	313.210	0.310	-0.700	-0.250
2020/01/31 08:14:44.7	313.220	0.290	-0.680	-0.260
2020/01/31 08:14:44.8	313.230	0.270	-0.660	-0.280
2020/01/31 08:14:44.9	313.240	0.250	-0.640	-0.300
2020/01/31 08:14:45.0	313.250	0.230	-0.610	-0.320
2020/01/31 08:14:45.1	313.260	0.210	-0.590	-0.330
2020/01/31 08:14:45.2	313.270	0.190	-0.570	-0.350
2020/01/31 08:14:45.3	313.270	0.170	-0.540	-0.360
2020/01/31 08:14:45.4	313.280	0.150	-0.510	-0.380
2020/01/31 08:14:45.5	313.300	0.130	-0.490	-0.400
2020/01/31 08:14:45.6	313.310	0.110	-0.470	-0.410
2020/01/31 08:14:45.7	313.330	0.090	-0.440	-0.430
2020/01/31 08:14:45.8	313.350	0.070	-0.420	-0.450
2020/01/31 08:14:45.9	313.360	0.040	-0.400	-0.470
2020/01/31 08:14:46.0	313.380	0.020	-0.380	-0.490
2020/01/31 08:14:46.1	313.400	0.000	-0.370	-0.510
2020/01/31 08:14:46.2	313.410	-0.020	-0.350	-0.530
2020/01/31 08:14:46.3	313.430	-0.040	-0.340	-0.560
2020/01/31 08:14:46.4	313.440	-0.060	-0.330	-0.580
2020/01/31 08:14:46.5	313.460	-0.070	-0.310	-0.600
2020/01/31 08:14:46.6	313.480	-0.090	-0.300	-0.620
2020/01/31 08:14:46.7	313.490	-0.110	-0.300	-0.650
2020/01/31 08:14:46.8	313.510	-0.130	-0.290	-0.670
2020/01/31 08:14:46.9	313.520	-0.150	-0.280	-0.700
2020/01/31 08:14:47.0	313.540	-0.160	-0.280	-0.720
2020/01/31 08:14:47.1	313.550	-0.180	-0.270	-0.750
2020/01/31 08:14:47.2	313.570	-0.190	-0.270	-0.770
2020/01/31 08:14:47.3	313.590	-0.210	-0.260	-0.790
2020/01/31 08:14:47.4	313.600	-0.220	-0.260	-0.820
2020/01/31 08:14:47.5	313.620	-0.240	-0.260	-0.840
2020/01/31 08:14:47.6	313.630	-0.250	-0.250	-0.860
2020/01/31 08:14:47.7	313.650	-0.270	-0.250	-0.890
2020/01/31 08:14:47.8	313.660	-0.280	-0.240	-0.910
2020/01/31 08:14:47.9	313.670	-0.290	-0.240	-0.930
2020/01/31 08:14:48.0	313.680	-0.300	-0.230	-0.950
2020/01/31 08:14:48.1	313.690	-0.320	-0.220	-0.970
2020/01/31 08:14:48.2	313.700	-0.330	-0.210	-0.980
2020/01/31 08:14:48.3	313.700	-0.340	-0.210	-1.000
2020/01/31 08:14:48.4	313.710	-0.350	-0.200	-1.020
2020/01/31 08:14:48.5	313.710	-0.360	-0.190	-1.030
2020/01/31 08:14:48.6	313.720	-0.370	-0.180	-1.040
2020/01/31 08:14:48.7	313.720	-0.380	-0.160	-1.050
2020/01/31 08:14:48.8	313.730	-0.390	-0.150	-1.060
2020/01/31 08:14:48.9	313.730	-0.400	-0.130	-1.070
2020/01/31 08:14:49.0	313.730	-0.410	-0.120	-1.070
2020/01/31 08:14:49.1	313.740	-0.420	-0.100	-1.080
2020/01/31 08:14:49.2	313.740	-0.430	-0.080	-1.080
2020/01/31 08:14:49.3	313.730	-0.440	-0.050	-1.070
2020/01/31 08:14:49.4	313.730	-0.450	-0.030	-1.070
2020/01/31 08:14:49.5	313.730	-0.460	-0.010	-1.060
2020/01/31 08:14:49.6	313.730	-0.470	0.020	-1.050
2020/01/31 08:14:49.7	313.730	-0.480	0.050	-1.040
2020/01/31 08:14:49.8	313.730	-0.480	0.070	-1.020
2020/01/31 08:14:49.9	313.730	-0.490	0.100	-1.010
2020/01/31 08:14:50.0	313.720	-0.490	0.130	-0.990
2020/01/31 08:14:50.1	313.720	-0.500	0.160	-0.960
2020/01/31 08:14:50.2	313.720	-0.500	0.190	-0.940
2020/01/31 08:14:50.3	313.710	-0.510	0.220	-0.900
2020/01/31 08:14:50.4	313.710	-0.510	0.250	-0.870
2020/01/31 08:14:50.5	313.700	-0.510	0.270	-0.840
2020/01/31 08:14:50.6	313.690	-0.500	0.300	-0.800
2020/01/31 08:14:50.7	313.680	-0.500	0.330	-0.760
2020/01/31 08:14:50.8	313.670	-0.500	0.350	-0.710
2020/01/31 08:14:50.9	313.660	-0.490	0.370	-0.670
2020/01/31 08:14:51.0	313.640	-0.480	0.390	-0.620
2020/01/31 08:14:51.1	313.630	-0.470	0.410	-0.570
2020/01/31 08:14:51.2	313.610	-0.460	0.420	-0.520
2020/01/31 08:14:51.3	313.600	-0.450	0.430	-0.470
2020/01/31 08:14:51.4	313.580	-0.430	0.440	-0.420
2020/01/31 08:14:51.5	313.560	-0.410	0.450	-0.370
2020/01/31 08:14:51.6	313.540	-0.400	0.450	-0.320
2020/01/31 08:14:51.7	313.520	-0.380	0.450	-0.270
2020/01/31 08:14:51.8	313.500	-0.350	0.440	-0.220
2020/01/31 08:14:51.9	313.480	-0.330	0.430	-0.180
2020/01/31 08:14:52.0	313.460	-0.300	0.410	-0.130
2020/01/31 08:14:52.1	313.440	-0.280	0.390	-0.090
2020/01/31 08:14:52.2	313.410	-0.250	0.370	-0.050
2020/01/31 08:14:52.3	313.400	-0.220	0.340	-0.000
2020/01/31 08:14:52.4	313.370	-0.190	0.310	0.040
2020/01/31 08:14:52.5	313.350	-0.150	0.280	0.070
2020/01/31 08:14:52.6	313.330	-0.120	0.240	0.110
2020/01/31 08:14:52.7	313.300	-0.090	0.200	0.140
2020/01/31 08:14:52.8	313.280	-0.050	0.150	0.170
2020/01/31 08:14:52.9	313.260	-0.020	0.100	0.200
2020/01/31 08:14:53.0	313.240	0.020	0.050	0.230
2020/01/31 08:14:53.1	313.220	0.060	0.000	0.250
2020/01/31 08:14:53.2	313.200	0.090	-0.050	0.280
2020/01/31 08:14:53.3	313.180	0.130	-0.110	0.290
2020/01/31 08:14:53.4	313.160	0.170	-0.170	0.310
2020/01/31 08:14:53.5	313.140	0.200	-0.220	0.330
2020/01/31 08:14:53.6	313.130	0.240	-0.280	0.350
2020/01/31 08:14:53.7	313.120	0.280	-0.340	0.360
2020/01/31 08:14:53.8	313.100	0.310	-0.400	0.370
2020/01/31 08:14:53.9	313.090	0.340	-0.450	0.380
2020/01/31 08:14:54.0	313.090	0.380	-0.510	0.390
2020/01/31 08:14:54.1	313.080	0.410	-0.560	0.390
2020/01/31 08:14:54.2	313.080	0.440	-0.610	0.390
2020/01/31 08:14:54.3	313.070	0.470	-0.660	0.390
2020/01/31 08:14:54.4	313.070	0.500	-0.710	0.390
2020/01/31 08:14:54.5	313.070	0.520	-0.750	0.390
2020/01/31 08:14:54.6	313.070	0.550	-0.790	0.380
2020/01/31 08:14:54.7	313.080	0.570	-0.830	0.370
2020/01/31 08:14:54.8	313.080	0.590	-0.870	0.360
2020/01/31 08:14:54.9	313.090	0.610	-0.900	0.340
2020/01/31 08:14:55.0	313.090	0.620	-0.920	0.320
2020/01/31 08:14:55.1	313.100	0.630	-0.950	0.310
2020/01/31 08:14:55.2	313.110	0.640	-0.970	0.290
2020/01/31 08:14:55.3	313.120	0.650	-0.980	0.260
2020/01/31 08:14:55.4	313.130	0.660	-0.990	0.240
2020/01/31 08:14:55.5	313.150	0.660	-1.000	0.210
2020/01/31 08:14:55.6	313.160	0.660	-1.010	0.190
2020/01/31 08:14:55.7	313.170	0.660	-1.010	0.160
2020/01/31 08:14:55.8	313.190	0.650	-1.010	0.130
2020/01/31 08:14:55.9	313.200	0.640	-1.010	0.100
2020/01/31 08:14:56.0	313.220	0.630	-1.000	0.060
2020/01/31 08:14:56.1	313.240	0.620	-1.000	0.030
2020/01/31 08:14:56.2	313.260	0.610	-0.990	-0.010
2020/01/31 08:14:56.3	313.280	0.590	-0.980	-0.040
2020/01/31 08:14:56.4	313.310	0.570	-0.970	-0.080
2020/01/31 08:14:56.5	313.330	0.550	-0.950	-0.130
2020/01/31 08:14:56.6	313.360	0.530	-0.940	-0.170
2020/01/31 08:14:56.7	313.390	0.500	-0.920	-0.210
2020/01/31 08:14:56.8	313.420	0.480	-0.910	-0.260
2020/01/31 08:14:56.9	313.460	0.450	-0.890	-0.310
2020/01/31 08:14:57.0	313.490	0.420	-0.870	-0.350
2020/01/31 08:14:57.1	313.530	0.390	-0.850	-0.400
2020/01/31 08:14:57.2	313.560	0.360	-0.830	-0.460
2020/01/31 08:14:57.3	313.580	0.330	-0.820	-0.510
2020/01/31 08:14:57.4	313.610	0.300	-0.790	-0.560
2020/01/31 08:14:57.5	313.650	0.270	-0.770	-0.610
2020/01/31 08:14:57.6	313.690	0.240	-0.740	-0.660
2020/01/31 08:14:57.7	313.730	0.210	-0.710	-0.710
2020/01/31 08:14:57.8	313.760	0.180	-0.680	-0.760
2020/01/31 08:14:57.9	313.800	0.140	-0.650	-0.800
2020/01/31 08:14:58.0	313.830	0.110	-0.620	-0.850
2020/01/31 08:14:58.1	313.870	0.090	-0.580	-0.880
2020/01/31 08:14:58.2	313.900	0.060	-0.540	-0.920
2020/01/31 08:14:58.3	313.930	0.030	-0.490	-0.950
2020/01/31 08:14:58.4	313.950	0.010	-0.450	-0.970
2020/01/31 08:14:58.5	313.980	-0.020	-0.400	-0.990
2020/01/31 08:14:58.6	314.000	-0.040	-0.350	-1.000
2020/01/31 08:14:58.7	314.010	-0.060	-0.290	-1.010
2020/01/31 08:14:58.8	314.030	-0.080	-0.240	-1.010
2020/01/31 08:14:58.9	314.040	-0.100	-0.180	-1.010
2020/01/31 08:14:59.0	314.050	-0.120	-0.120	-1.000
2020/01/31 08:14:59.1	314.050	-0.140	-0.060	-0.990
2020/01/31 08:14:59.2	314.060	-0.150	-0.000	-0.980
2020/01/31 08:14:59.3	314.060	-0.170	0.060	-0.960
2020/01/31 08:14:59.4	314.060	-0.180	0.110	-0.930
2020/01/31 08:14:59.5	314.050	-0.190	0.170	-0.910
2020/01/31 08:14:59.6	314.050	-0.200	0.230	-0.890
2020/01/31 08:14:59.7	314.040	-0.210	0.280	-0.860
2020/01/31 08:14:59.8	314.040	-0.220	0.330	-0.840
2020/01/31 08:14:59.9	314.030	-0.220	0.380	-0.810
2020/01/31 08:15:00.0	314.020	-0.230	0.430	-0.780
2020/01/31 08:15:00.1	314.010	-0.240	0.470	-0.760
2020/01/31 08:15:00.2	314.010	-0.240	0.500	-0.740
2020/01/31 08:15:00.3	314.000	-0.240	0.530	-0.710
2020/01/31 08:15:00.4	313.990	-0.250	0.560	-0.690
2020/01/31 08:15:00.5	313.980	-0.250	0.580	-0.670
2020/01/31 08:15:00.6	313.970	-0.260	0.590	-0.650
2020/01/31 08:15:00.7	313.960	-0.260	0.600	-0.630
2020/01/31 08:15:00.8	313.950	-0.260	0.610	-0.610
2020/01/31 08:15:00.9	313.940	-0.270	0.610	-0.590
2020/01/31 08:15:01.0	313.930	-0.270	0.600	-0.580
2020/01/31 08:15:01.1	313.910	-0.280	0.590	-0.560
2020/01/31 08:15:01.2	313.900	-0.280	0.580	-0.550
2020/01/31 08:15:01.3	313.890	-0.290	0.560	-0.540
2020/01/31 08:15:01.4	313.880	-0.290	0.540	-0.530
2020/01/31 08:15:01.5	313.870	-0.300	0.510	-0.520
2020/01/31 08:15:01.6	313.860	-0.300	0.480	-0.510
2020/01/31 08:15:01.7	313.850	-0.310	0.450	-0.500
2020/01/31 08:15:01.8	313.840	-0.320	0.420	-0.490
2020/01/31 08:15:01.9	313.830	-0.320	0.380	-0.490
2020/01/31 08:15:02.0	313.820	-0.330	0.340	-0.490
2020/01/31 08:15:02.1	313.810	-0.340	0.300	-0.490
2020/01/31 08:15:02.2	313.800	-0.350	0.260	-0.490
2020/01/31 08:15:02.3	313.790	-0.350	0.220	-0.490
2020/01/31 08:15:02.4	313.780	-0.360	0.180	-0.490
2020/01/31 08:15:02.5	313.770	-0.370	0.140	-0.490
2020/01/31 08:15:02.6	313.760	-0.370	0.100	-0.490
2020/01/31 08:15:02.7	313.750	-0.380	0.070	-0.490
2020/01/31 08:15:02.8	313.740	-0.390	0.030	-0.490
2020/01/31 08:15:02.9	313.730	-0.390	0.000	-0.500
2020/01/31 08:15:03.0	313.710	-0.400	-0.030	-0.500
2020/01/31 08:15:03.1	313.700	-0.400	-0.060	-0.500
2020/01/31 08:15:03.2	313.690	-0.400	-0.080	-0.490
2020/01/31 08:15:03.3	313.670	-0.400	-0.100	-0.490
2020/01/31 08:15:03.4	313.660	-0.400	-0.120	-0.490
2020/01/31 08:15:03.5	313.650	-0.400	-0.140	-0.490
2020/01/31 08:15:03.6	313.630	-0.400	-0.160	-0.480
2020/01/31 08:15:03.7	313.620	-0.390	-0.170	-0.480
2020/01/31 08:15:03.8	313.600	-0.380	-0.180	-0.480
2020/01/31 08:15:03.9	313.590	-0.370	-0.200	-0.470
2020/01/31 08:15:04.0	313.580	-0.360	-0.210	-0.470
2020/01/31 08:15:04.1	313.570	-0.350	-0.230	-0.470
2020/01/31 08:15:04.2	313.570	-0.330	-0.240	-0.460
2020/01/31 08:15:04.3	313.570	-0.320	-0.260	-0.460
2020/01/31 08:15:04.4	313.560	-0.300	-0.280	-0.460
2020/01/31 08:15:04.5	313.560	-0.270	-0.290	-0.460
2020/01/31 08:15:04.6	313.560	-0.250	-0.310	-0.460
2020/01/31 08:15:04.7	313.560	-0.230	-0.330	-0.470
2020/01/31 08:15:04.8	313.570	-0.200	-0.360	-0.470
2020/01/31 08:15:04.9	313.570	-0.170	-0.380	-0.470
2020/01/31 08:15:05.0	313.580	-0.140	-0.400	-0.480
2020/01/31 08:15:05.1	313.590	-0.110	-0.430	-0.480
2020/01/31 08:15:05.2	313.600	-0.080	-0.460	-0.490
2020/01/31 08:15:05.3	313.620	-0.040	-0.480	-0.490
2020/01/31 08:15:05.4	313.630	-0.010	-0.510	-0.490
2020/01/31 08:15:05.5	313.640	0.030	-0.530	-0.500
2020/01/31 08:15:05.6	313.660	0.060	-0.560	-0.500
2020/01/31 08:15:05.7	313.670	0.090	-0.590	-0.500
2020/01/31 08:15:05.8	313.690	0.130	-0.610	-0.500
2020/01/31 08:15:05.9	313.700	0.160	-0.640	-0.500
2020/01/31 08:15:06.0	313.720	0.190	-0.660	-0.490
2020/01/31 08:15:06.1	313.730	0.220	-0.680	-0.490
2020/01/31 08:15:06.2	313.750	0.250	-0.690	-0.480
2020/01/31 08:15:06.3	313.750	0.280	-0.710	-0.470
2020/01/31 08:15:06.4	313.760	0.310	-0.720	-0.450
2020/01/31 08:15:06.5	313.770	0.330	-0.720	-0.440
2020/01/31 08:15:06.6	313.780	0.360	-0.720	-0.420
2020/01/31 08:15:06.7	313.790	0.380	-0.720	-0.400
2020/01/31 08:15:06.8	313.790	0.390	-0.720	-0.390
2020/01/31 08:15:06.9	313.800	0.410	-0.710	-0.360
2020/01/31 08:15:07.0	313.800	0.420	-0.700	-0.340
2020/01/31 08:15:07.1	313.800	0.430	-0.690	-0.320
2020/01/31 08:15:07.2	313.800	0.440	-0.680	-0.300
2020/01/31 08:15:07.3	313.800	0.440	-0.660	-0.280
2020/01/31 08:15:07.4	313.800	0.440	-0.640	-0.260
2020/01/31 08:15:07.5	313.790	0.440	-0.620	-0.230
2020/01/31 08:15:07.6	313.790	0.440	-0.600	-0.220
2020/01/31 08:15:07.7	313.790	0.440	-0.580	-0.200
2020/01/31 08:15:07.8	313.790	0.430	-0.560	-0.180
2020/01/31 08:15:07.9	313.790	0.420	-0.540	-0.170
2020/01/31 08:15:08.0	313.780	0.410	-0.520	-0.150
2020/01/31 08:15:08.1	313.780	0.400	-0.500	-0.140
2020/01/31 08:15:08.2	313.780	0.380	-0.480	-0.130
2020/01/31 08:15:08.3	313.780	0.370	-0.470	-0.120
2020/01/31 08:15:08.4	313.780	0.350	-0.450	-0.110
2020/01/31 08:15:08.5	313.780	0.340	-0.440	-0.100
2020/01/31 08:15:08.6	313.780	0.320	-0.420	-0.100
2020/01/31 08:15:08.7	313.780	0.300	-0.410	-0.100
2020/01/31 08:15:08.8	313.780	0.290	-0.390	-0.100
2020/01/31 08:15:08.9	313.790	0.270	-0.380	-0.090
2020/01/31 08:15:09.0	313.790	0.250	-0.370	-0.100
2020/01/31 08:15:09.1	313.790	0.240	-0.360	-0.100
2020/01/31 08:15:09.2	313.790	0.220	-0.350	-0.100
2020/01/31 08:15:09.3	313.800	0.200	-0.350	-0.100
2020/01/31 08:15:09.4	313.800	0.190	-0.340	-0.110
2020/01/31 08:15:09.5	313.810	0.170	-0.330	-0.120
2020/01/31 08:15:09.6	313.810	0.150	-0.330	-0.120
2020/01/31 08:15:09.7	313.820	0.140	-0.320	-0.130
2020/01/31 08:15:09.8	313.820	0.120	-0.320	-0.140
2020/01/31 08:15:09.9	313.830	0.110	-0.320	-0.160
2020/01/31 08:15:10.0	313.840	0.100	-0.320	-0.170
2020/01/31 08:15:10.1	313.850	0.080	-0.310	-0.190
2020/01/31 08:15:10.2	313.860	0.070	-0.320	-0.200
2020/01/31 08:15:10.3	313.890	0.060	-0.310	-0.220
2020/01/31 08:15:10.4	313.900	0.050	-0.310	-0.240
2020/01/31 08:15:10.5	313.920	0.030	-0.320	-0.270
2020/01/31 08:15:10.6	313.930	0.020	-0.320	-0.290
2020/01/31 08:15:10.7	313.950	0.010	-0.330	-0.320
2020/01/31 08:15:10.8	313.970	0.000	-0.330	-0.340
2020/01/31 08:15:10.9	313.990	-0.010	-0.340	-0.370
2020/01/31 08:15:11.0	314.020	-0.020	-0.340	-0.400
2020/01/31 08:15:11.1	314.040	-0.030	-0.350	-0.430
2020/01/31 08:15:11.2	314.060	-0.050	-0.350	-0.460
2020/01/31 08:15:11.3	314.090	-0.060	-0.360	-0.490
2020/01/31 08:15:11.4	314.120	-0.070	-0.360	-0.530
2020/01/31 08:15:11.5	314.140	-0.080	-0.360	-0.560
2020/01/31 08:15:11.6	314.160	-0.090	-0.360	-0.590
2020/01/31 08:15:11.7	314.190	-0.110	-0.360	-0.620
2020/01/31 08:15:11.8	314.210	-0.120	-0.350	-0.640
2020/01/31 08:15:11.9	314.230	-0.130	-0.350	-0.670
2020/01/31 08:15:12.0	314.250	-0.150	-0.340	-0.700
2020/01/31 08:15:12.1	314.270	-0.160	-0.330	-0.720
2020/01/31 08:15:12.2	314.290	-0.170	-0.320	-0.740
2020/01/31 08:15:12.3	314.300	-0.190	-0.300	-0.760
2020/01/31 08:15:12.4	314.310	-0.200	-0.280	-0.770
2020/01/31 08:15:12.5	314.330	-0.210	-0.260	-0.790
2020/01/31 08:15:12.6	314.350	-0.230	-0.240	-0.800
2020/01/31 08:15:12.7	314.360	-0.240	-0.220	-0.810
2020/01/31 08:15:12.8	314.380	-0.250	-0.190	-0.810
2020/01/31 08:15:12.9	314.390	-0.260	-0.170	-0.820
2020/01/31 08:15:13.0	314.400	-0.270	-0.140	-0.820
2020/01/31 08:15:13.1	314.410	-0.280	-0.110	-0.820
2020/01/31 08:15:13.2	314.420	-0.290	-0.070	-0.820
2020/01/31 08:15:13.3	314.440	-0.300	-0.040	-0.820
2020/01/31 08:15:13.4	314.440	-0.310	-0.000	-0.810
2020/01/31 08:15:13.5	314.440	-0.310	0.030	-0.800
2020/01/31 08:15:13.6	314.450	-0.320	0.060	-0.790
2020/01/31 08:15:13.7	314.450	-0.320	0.090	-0.780
2020/01/31 08:15:13.8	314.450	-0.320	0.120	-0.770
2020/01/31 08:15:13.9	314.440	-0.330	0.150	-0.750
2020/01/31 08:15:14.0	314.440	-0.330	0.180	-0.740
2020/01/31 08:15:14.1	314.430	-0.330	0.210	-0.720
2020/01/31 08:15:14.2	314.420	-0.320	0.240	-0.700
2020/01/31 08:15:14.3	314.420	-0.320	0.260	-0.680
2020/01/31 08:15:14.4	314.410	-0.320	0.280	-0.660
2020/01/31 08:15:14.5	314.400	-0.310	0.300	-0.640
2020/01/31 08:15:14.6	314.380	-0.300	0.320	-0.610
2020/01/31 08:15:14.7	314.370	-0.290	0.340	-0.590
2020/01/31 08:15:14.8	314.360	-0.280	0.350	-0.570
2020/01/31 08:15:14.9	314.350	-0.270	0.360	-0.550
2020/01/31 08:15:15.0	314.330	-0.260	0.370	-0.520
2020/01/31 08:15:15.1	314.320	-0.250	0.370	-0.500
2020/01/31 08:15:15.2	314.300	-0.240	0.380	-0.480
2020/01/31 08:15:15.3	314.300	-0.220	0.380	-0.450
2020/01/31 08:15:15.4	314.280	-0.210	0.380	-0.430
2020/01/31 08:15:15.5	314.270	-0.190	0.380	-0.410
2020/01/31 08:15:15.6	314.250	-0.170	0.370	-0.390
2020/01/31 08:15:15.7	314.230	-0.160	0.360	-0.360
2020/01/31 08:15:15.8	314.210	-0.140	0.350	-0.340
2020/01/31 08:15:15.9	314.190	-0.120	0.340	-0.320
2020/01/31 08:15:16.0	314.170	-0.110	0.330	-0.290
2020/01/31 08:15:16.1	314.150	-0.090	0.320	-0.270
2020/01/31 08:15:16.2	314.120	-0.070	0.300	-0.250
2020/01/31 08:15:16.3	314.100	-0.050	0.290	-0.220
2020/01/31 08:15:16.4	314.080	-0.030	0.270	-0.200
2020/01/31 08:15:16.5	314.050	-0.010	0.240	-0.170
2020/01/31 08:15:16.6	314.030	0.010	0.220	-0.150
2020/01/31 08:15:16.7	314.000	0.020	0.190	-0.130
2020/01/31 08:15:16.8	313.980	0.040	0.170	-0.110
2020/01/31 08:15:16.9	313.960	0.060	0.140	-0.080
2020/01/31 08:15:17.0	313.930	0.080	0.100	-0.060
2020/01/31 08:15:17.1	313.910	0.100	0.070	-0.040
2020/01/31 08:15:17.2	313.890	0.120	0.030	-0.020
2020/01/31 08:15:17.3	313.880	0.130	-0.010	-0.000
2020/01/31 08:15:17.4	313.860	0.150	-0.050	0.010
2020/01/31 08:15:17.5	313.840	0.170	-0.090	0.030
2020/01/31 08:15:17.6	313.820	0.190	-0.130	0.050
2020/01/31 08:15:17.7	313.810	0.200	-0.180	0.060
2020/01/31 08:15:17.8	313.790	0.220	-0.230	0.070
2020/01/31 08:15:17.9	313.780	0.230	-0.280	0.080
2020/01/31 08:15:18.0	313.770	0.250	-0.320	0.090
2020/01/31 08:15:18.1	313.760	0.260	-0.370	0.100
2020/01/31 08:15:18.2	313.750	0.280	-0.420	0.110
2020/01/31 08:15:18.3	313.750	0.290	-0.470	0.110
2020/01/31 08:15:18.4	313.740	0.300	-0.520	0.110
2020/01/31 08:15:18.5	313.730	0.320	-0.560	0.120
2020/01/31 08:15:18.6	313.730	0.330	-0.610	0.120
2020/01/31 08:15:18.7	313.730	0.340	-0.650	0.110
2020/01/31 08:15:18.8	313.720	0.350	-0.700	0.110
2020/01/31 08:15:18.9	313.720	0.360	-0.740	0.110
2020/01/31 08:15:19.0	313.720	0.370	-0.780	0.100
2020/01/31 08:15:19.1	313.730	0.370	-0.810	0.090
2020/01/31 08:15:19.2	313.730	0.380	-0.840	0.090
2020/01/31 08:15:19.3	313.720	0.380	-0.870	0.080
2020/01/31 08:15:19.4	313.730	0.390	-0.900	0.060
2020/01/31 08:15:19.5	313.730	0.390	-0.930	0.050
2020/01/31 08:15:19.6	313.740	0.390	-0.950	0.040
2020/01/31 08:15:19.7	313.750	0.390	-0.970	0.020
2020/01/31 08:15:19.8	313.760	0.390	-0.990	0.000
2020/01/31 08:15:19.9	313.780	0.390	-1.000	-0.020
2020/01/31 08:15:20.0	313.790	0.390	-1.010	-0.040
2020/01/31 08:15:20.1	313.810	0.380	-1.020	-0.070
2020/01/31 08:15:20.2	313.830	0.380	-1.030	-0.100
2020/01/31 08:15:20.3	313.860	0.370	-1.030	-0.130
2020/01/31 08:15:20.4	313.880	0.360	-1.040	-0.160
2020/01/31 08:15:20.5	313.900	0.350	-1.040	-0.200
2020/01/31 08:15:20.6	313.930	0.340	-1.040	-0.240
2020/01/31 08:15:20.7	313.960	0.330	-1.030	-0.270
2020/01/31 08:15:20.8	313.990	0.320	-1.030	-0.310
2020/01/31 08:15:20.9	314.020	0.300	-1.020	-0.350
2020/01/31 08:15:21.0	314.050	0.290	-1.010	-0.390
2020/01/31 08:15:21.1	314.080	0.270	-0.990	-0.430
2020/01/31 08:15:21.2	314.110	0.260	-0.980	-0.470
2020/01/31 08:15:21.3	314.140	0.240	-0.950	-0.500
2020/01/31 08:15:21.4	314.170	0.220	-0.930	-0.540
2020/01/31 08:15:21.5	314.200	0.200	-0.900	-0.570
2020/01/31 08:15:21.6	314.230	0.180	-0.870	-0.610
2020/01/31 08:15:21.7	314.260	0.160	-0.840	-0.640
2020/01/31 08:15:21.8	314.290	0.130	-0.800	-0.670
2020/01/31 08:15:21.9	314.310	0.110	-0.760	-0.700
2020/01/31 08:15:22.0	314.340	0.080	-0.720	-0.720
2020/01/31 08:15:22.1	314.370	0.060	-0.680	-0.750
2020/01/31 08:15:22.2	314.390	0.030	-0.630	-0.770
2020/01/31 08:15:22.3	314.420	0.000	-0.580	-0.790
2020/01/31 08:15:22.4	314.440	-0.030	-0.530	-0.810
2020/01/31 08:15:22.5	314.460	-0.060	-0.470	-0.830
2020/01/31 08:15:22.6	314.480	-0.090	-0.420	-0.840
2020/01/31 08:15:22.7	314.490	-0.120	-0.360	-0.860
2020/01/31 08:15:22.8	314.510	-0.150	-0.310	-0.870
2020/01/31 08:15:22.9	314.520	-0.180	-0.250	-0.880
2020/01/31 08:15:23.0	314.530	-0.210	-0.190	-0.890
2020/01/31 08:15:23.1	314.550	-0.240	-0.140	-0.900
2020/01/31 08:15:23.2	314.560	-0.270	-0.080	-0.910
2020/01/31 08:15:23.3	314.570	-0.300	-0.020	-0.910
2020/01/31 08:15:23.4	314.580	-0.330	0.030	-0.920
2020/01/31 08:15:23.5	314.580	-0.360	0.080	-0.920
2020/01/31 08:15:23.6	314.580	-0.380	0.130	-0.920
2020/01/31 08:15:23.7	314.590	-0.410	0.180	-0.920
2020/01/31 08:15:23.8	314.590	-0.430	0.220	-0.910
2020/01/31 08:15:23.9	314.580	-0.450	0.270	-0.910
2020/01/31 08:15:24.0	314.580	-0.470	0.310	-0.900
2020/01/31 08:15:24.1	314.570	-0.490	0.350	-0.880
2020/01/31 08:15:24.2	314.560	-0.510	0.380	-0.870
2020/01/31 08:15:24.3	314.540	-0.530	0.420	-0.850
2020/01/31 08:15:24.4	314.530	-0.540	0.450	-0.830
2020/01/31 08:15:24.5	314.510	-0.550	0.480	-0.800
2020/01/31 08:15:24.6	314.490	-0.560	0.510	-0.770
2020/01/31 08:15:24.7	314.470	-0.570	0.530	-0.740
2020/01/31 08:15:24.8	314.450	-0.570	0.550	-0.710
2020/01/31 08:15:24.9	314.420	-0.580	0.570	-0.680
2020/01/31 08:15:25.0	314.400	-0.580	0.580	-0.650
2020/01/31 08:15:25.1	314.370	-0.570	0.590	-0.610
2020/01/31 08:15:25.2	314.340	-0.570	0.600	-0.570
2020/01/31 08:15:25.3	314.310	-0.560	0.600	-0.540
2020/01/31 08:15:25.4	314.280	-0.550	0.610	-0.500
2020/01/31 08:15:25.5	314.240	-0.540	0.610	-0.460
2020/01/31 08:15:25.6	314.210	-0.530	0.600	-0.420
2020/01/31 08:15:25.7	314.180	-0.510	0.600	-0.370
2020/01/31 08:15:25.8	314.140	-0.490	0.590	-0.330
2020/01/31 08:15:25.9	314.100	-0.470	0.580	-0.280
2020/01/31 08:15:26.0	314.070	-0.440	0.560	-0.230
2020/01/31 08:15:26.1	314.030	-0.420	0.540	-0.190
2020/01/31 08:15:26.2	313.990	-0.390	0.520	-0.140
2020/01/31 08:15:26.3	313.950	-0.360	0.500	-0.080
2020/01/31 08:15:26.4	313.910	-0.320	0.470	-0.030
2020/01/31 08:15:26.5	313.870	-0.290	0.440	0.020
2020/01/31 08:15:26.6	313.830	-0.250	0.410	0.070
2020/01/31 08:15:26.7	313.790	-0.220	0.380	0.120
2020/01/31 08:15:26.8	313.750	-0.180	0.340	0.170
2020/01/31 08:15:26.9	313.720	-0.140	0.300	0.220
2020/01/31 08:15:27.0	313.680	-0.100	0.250	0.260
2020/01/31 08:15:27.1	313.650	-0.060	0.200	0.300
2020/01/31 08:15:27.2	313.620	-0.020	0.150	0.340
2020/01/31 08:15:27.3	313.590	0.020	0.100	0.370
2020/01/31 08:15:27.4	313.570	0.060	0.040	0.400
2020/01/31 08:15:27.5	313.540	0.100	-0.020	0.420
2020/01/31 08:15:27.6	313.520	0.140	-0.080	0.440
2020/01/31 08:15:27.7	313.510	0.180	-0.140	0.460
2020/01/31 08:15:27.8	313.490	0.220	-0.210	0.460
2020/01/31 08:15:27.9	313.480	0.250	-0.270	0.470
2020/01/31 08:15:28.0	313.480	0.290	-0.340	0.470
2020/01/31 08:15:28.1	313.470	0.320	-0.410	0.460
2020/01/31 08:15:28.2	313.470	0.350	-0.480	0.450
2020/01/31 08:15:28.3	313.480	0.380	-0.550	0.430
2020/01/31 08:15:28.4	313.480	0.410	-0.610	0.410
2020/01/31 08:15:28.5	313.490	0.430	-0.670	0.390
2020/01/31 08:15:28.6	313.510	0.450	-0.740	0.360
2020/01/31 08:15:28.7	313.530	0.470	-0.800	0.330
2020/01/31 08:15:28.8	313.550	0.490	-0.850	0.300
2020/01/31 08:15:28.9	313.570	0.500	-0.910	0.270
2020/01/31 08:15:29.0	313.600	0.510	-0.950	0.230
2020/01/31 08:15:29.1	313.630	0.510	-1.000	0.190
2020/01/31 08:15:29.2	313.660	0.520	-1.040	0.140
2020/01/31 08:15:29.3	313.700	0.520	-1.080	0.100
2020/01/31 08:15:29.4	313.730	0.510	-1.100	0.050
2020/01/31 08:15:29.5	313.770	0.510	-1.130	0.010
2020/01/31 08:15:29.6	313.800	0.500	-1.140	-0.040
2020/01/31 08:15:29.7	313.840	0.490	-1.150	-0.090
2020/01/31 08:15:29.8	313.880	0.470	-1.160	-0.140
2020/01/31 08:15:29.9	313.910	0.450	-1.150	-0.190
2020/01/31 08:15:30.0	313.950	0.430	-1.140	-0.240
2020/01/31 08:15:30.1	313.990	0.410	-1.130	-0.290
2020/01/31 08:15:30.2	314.020	0.390	-1.100	-0.330
2020/01/31 08:15:30.3	314.050	0.360	-1.080	-0.380
2020/01/31 08:15:30.4	314.080	0.330	-1.040	-0.420
2020/01/31 08:15:30.5	314.110	0.300	-1.000	-0.460
2020/01/31 08:15:30.6	314.140	0.280	-0.950	-0.500
2020/01/31 08:15:30.7	314.160	0.240	-0.910	-0.530
2020/01/31 08:15:30.8	314.190	0.210	-0.850	-0.560
2020/01/31 08:15:30.9	314.210	0.180	-0.790	-0.590
2020/01/31 08:15:31.0	314.230	0.150	-0.730	-0.620
2020/01/31 08:15:31.1	314.250	0.120	-0.670	-0.640
2020/01/31 08:15:31.2	314.270	0.090	-0.610	-0.660
2020/01/31 08:15:31.3	314.280	0.060	-0.540	-0.680
2020/01/31 08:15:31.4	314.300	0.030	-0.480	-0.690
2020/01/31 08:15:31.5	314.310	0.000	-0.410	-0.700
2020/01/31 08:15:31.6	314.330	-0.020	-0.350	-0.710
2020/01/31 08:15:31.7	314.340	-0.050	-0.280	-0.710
2020/01/31 08:15:31.8	314.350	-0.070	-0.220	-0.710
2020/01/31 08:15:31.9	314.350	-0.090	-0.160	-0.710
2020/01/31 08:15:32.0	314.360	-0.110	-0.110	-0.700
2020/01/31 08:15:32.1	314.370	-0.130	-0.060	-0.690
2020/01/31 08:15:32.2	314.370	-0.150	-0.010	-0.680
2020/01/31 08:15:32.3	314.380	-0.160	0.040	-0.670
2020/01/31 08:15:32.4	314.380	-0.170	0.080	-0.650
2020/01/31 08:15:32.5	314.380	-0.180	0.120	-0.630
2020/01/31 08:15:32.6	314.380	-0.190	0.160	-0.610
2020/01/31 08:15:32.7	314.380	-0.190	0.190	-0.590
2020/01/31 08:15:32.8	314.380	-0.190	0.220	-0.560
2020/01/31 08:15:32.9	314.380	-0.190	0.240	-0.540
2020/01/31 08:15:33.0	314.380	-0.190	0.260	-0.510
2020/01/31 08:15:33.1	314.370	-0.180	0.270	-0.480
2020/01/31 08:15:33.2	314.370	-0.180	0.290	-0.450
2020/01/31 08:15:33.3	314.360	-0.170	0.300	-0.420
2020/01/31 08:15:33.4	314.350	-0.160	0.310	-0.390
2020/01/31 08:15:33.5	314.340	-0.140	0.310	-0.350
2020/01/31 08:15:33.6	314.320	-0.130	0.310	-0.320
2020/01/31 08:15:33.7	314.310	-0.120	0.310	-0.280
2020/01/31 08:15:33.8	314.290	-0.100	0.310	-0.240
2020/01/31 08:15:33.9	314.270	-0.080	0.310	-0.200
2020/01/31 08:15:34.0	314.250	-0.070	0.300	-0.160
2020/01/31 08:15:34.1	314.230	-0.050	0.290	-0.110
2020/01/31 08:15:34.2	314.200	-0.030	0.280	-0.070
2020/01/31 08:15:34.3	314.180	-0.020	0.270	-0.020
2020/01/31 08:15:34.4	314.150	0.000	0.260	0.020
2020/01/31 08:15:34.5	314.120	0.020	0.240	0.070
2020/01/31 08:15:34.6	314.080	0.030	0.220	0.110
2020/01/31 08:15:34.7	314.050	0.050	0.200	0.150
2020/01/31 08:15:34.8	314.010	0.060	0.180	0.190
2020/01/31 08:15:34.9	313.980	0.070	0.160	0.230
2020/01/31 08:15:35.0	313.940	0.080	0.130	0.260
2020/01/31 08:15:35.1	313.910	0.090	0.100	0.290
2020/01/31 08:15:35.2	313.880	0.100	0.070	0.320
2020/01/31 08:15:35.3	313.850	0.110	0.040	0.340
2020/01/31 08:15:35.4	313.820	0.120	0.010	0.360
2020/01/31 08:15:35.5	313.790	0.130	-0.030	0.370
2020/01/31 08:15:35.6	313.770	0.130	-0.070	0.370
2020/01/31 08:15:35.7	313.740	0.140	-0.110	0.380
2020/01/31 08:15:35.8	313.730	0.140	-0.150	0.370
2020/01/31 08:15:35.9	313.710	0.140	-0.190	0.360
2020/01/31 08:15:36.0	313.700	0.150	-0.240	0.350
2020/01/31 08:15:36.1	313.690	0.150	-0.280	0.320
2020/01/31 08:15:36.2	313.680	0.150	-0.320	0.300
2020/01/31 08:15:36.3	313.670	0.150	-0.370	0.270
2020/01/31 08:15:36.4	313.670	0.140	-0.410	0.230
2020/01/31 08:15:36.5	313.670	0.140	-0.450	0.200
2020/01/31 08:15:36.6	313.670	0.140	-0.480	0.150
2020/01/31 08:15:36.7	313.670	0.130	-0.520	0.110
2020/01/31 08:15:36.8	313.670	0.130	-0.550	0.060
2020/01/31 08:15:36.9	313.680	0.120	-0.580	0.020
2020/01/31 08:15:37.0	313.680	0.110	-0.610	-0.030
2020/01/31 08:15:37.1	313.690	0.100	-0.630	-0.090
2020/01/31 08:15:37.2	313.700	0.090	-0.650	-0.140
2020/01/31 08:15:37.3	313.700	0.080	-0.660	-0.190
2020/01/31 08:15:37.4	313.710	0.060	-0.670	-0.240
2020/01/31 08:15:37.5	313.720	0.050	-0.680	-0.300
2020/01/31 08:15:37.6	313.740	0.040	-0.680	-0.350
2020/01/31 08:15:37.7	313.750	0.020	-0.680	-0.410
2020/01/31 08:15:37.8	313.770	0.000	-0.680	-0.460
2020/01/31 08:15:37.9	313.790	-0.010	-0.670	-0.520
2020/01/31 08:15:38.0	313.810	-0.030	-0.660	-0.570
2020/01/31 08:15:38.1	313.840	-0.050	-0.650	-0.630
2020/01/31 08:15:38.2	313.860	-0.060	-0.630	-0.680
2020/01/31 08:15:38.3	313.880	-0.080	-0.610	-0.740
2020/01/31 08:15:38.4	313.910	-0.100	-0.590	-0.790
2020/01/31 08:15:38.5	313.950	-0.110	-0.570	-0.850
2020/01/31 08:15:38.6	313.980	-0.130	-0.540	-0.890
2020/01/31 08:15:38.7	314.020	-0.150	-0.510	-0.940
2020/01/31 08:15:38.8	314.060	-0.160	-0.480	-0.990
2020/01/31 08:15:38.9	314.090	-0.180	-0.450	-1.030
2020/01/31 08:15:39.0	314.130	-0.190	-0.420	-1.070
2020/01/31 08:15:39.1	314.170	-0.200	-0.390	-1.100
2020/01/31 08:15:39.2	314.210	-0.220	-0.350	-1.130
2020/01/31 08:15:39.3	314.240	-0.230	-0.320	-1.160
2020/01/31 08:15:39.4	314.280	-0.240	-0.280	-1.180
2020/01/31 08:15:39.5	314.310	-0.250	-0.240	-1.190
2020/01/31 08:15:39.6	314.340	-0.260	-0.200	-1.200
2020/01/31 08:15:39.7	314.360	-0.270	-0.160	-1.200
2020/01/31 08:15:39.8	314.390	-0.280	-0.130	-1.200
2020/01/31 08:15:39.9	314.410	-0.290	-0.090	-1.190
2020/01/31 08:15:40.0	314.420	-0.300	-0.050	-1.170
2020/01/31 08:15:40.1	314.440	-0.310	-0.020	-1.150
2020/01/31 08:15:40.2	314.450	-0.310	0.010	-1.130
2020/01/31 08:15:40.3	314.480	-0.320	0.040	-1.100
2020/01/31 08:15:40.4	314.480	-0.320	0.060	-1.060
2020/01/31 08:15:40.5	314.480	-0.320	0.090	-1.030
2020/01/31 08:15:40.6	314.480	-0.330	0.100	-0.990
2020/01/31 08:15:40.7	314.480	-0.330	0.120	-0.950
2020/01/31 08:15:40.8	314.480	-0.330	0.130	-0.910
2020/01/31 08:15:40.9	314.470	-0.320	0.130	-0.860
2020/01/31 08:15:41.0	314.460	-0.320	0.140	-0.820
2020/01/31 08:15:41.1	314.450	-0.310	0.140	-0.770
2020/01/31 08:15:41.2	314.440	-0.310	0.130	-0.720
2020/01/31 08:15:41.3	314.430	-0.300	0.120	-0.680
2020/01/31 08:15:41.4	314.420	-0.290	0.110	-0.630
2020/01/31 08:15:41.5	314.410	-0.270	0.100	-0.580
2020/01/31 08:15:41.6	314.390	-0.260	0.080	-0.520
2020/01/31 08:15:41.7	314.380	-0.240	0.060	-0.470
2020/01/31 08:15:41.8	314.360	-0.220	0.040	-0.420
2020/01/31 08:15:41.9	314.350	-0.200	0.020	-0.370
2020/01/31 08:15:42.0	314.330	-0.170	-0.010	-0.310
2020/01/31 08:15:42.1	314.320	-0.140	-0.030	-0.260
2020/01/31 08:15:42.2	314.300	-0.110	-0.060	-0.210
2020/01/31 08:15:42.3	314.290	-0.080	-0.080	-0.150
2020/01/31 08:15:42.4	314.270	-0.050	-0.110	-0.090
2020/01/31 08:15:42.5	314.260	-0.020	-0.140	-0.040
2020/01/31 08:15:42.6	314.240	0.020	-0.170	0.010
2020/01/31 08:15:42.7	314.220	0.050	-0.200	0.060
2020/01/31 08:15:42.8	314.210	0.090	-0.220	0.110
2020/01/31 08:15:42.9	314.190	0.120	-0.250	0.160
2020/01/31 08:15:43.0	314.180	0.160	-0.280	0.210
2020/01/31 08:15:43.1	314.160	0.190	-0.300	0.250
2020/01/31 08:15:43.2	314.150	0.230	-0.330	0.290
2020/01/31 08:15:43.3	314.140	0.260	-0.350	0.330
2020/01/31 08:15:43.4	314.120	0.290	-0.380	0.360
2020/01/31 08:15:43.5	314.110	0.320	-0.400	0.390
2020/01/31 08:15:43.6	314.100	0.340	-0.420	0.410
2020/01/31 08:15:43.7	314.090	0.370	-0.450	0.430
2020/01/31 08:15:43.8	314.080	0.390	-0.470	0.440
2020/01/31 08:15:43.9	314.070	0.410	-0.490	0.450
2020/01/31 08:15:44.0	314.060	0.430	-0.510	0.460
2020/01/31 08:15:44.1	314.060	0.440	-0.520	0.460
2020/01/31 08:15:44.2	314.050	0.450	-0.540	0.450
2020/01/31 08:15:44.3	314.040	0.460	-0.560	0.440
2020/01/31 08:15:44.4	314.030	0.470	-0.570	0.430
2020/01/31 08:15:44.5	314.030	0.470	-0.580	0.410
2020/01/31 08:15:44.6	314.020	0.470	-0.590	0.380
2020/01/31 08:15:44.7	314.020	0.460	-0.600	0.360
2020/01/31 08:15:44.8	314.020	0.460	-0.610	0.320
2020/01/31 08:15:44.9	314.010	0.450	-0.610	0.290
2020/01/31 08:15:45.0	314.010	0.430	-0.620	0.250
2020/01/31 08:15:45.1	314.010	0.420	-0.620	0.210
2020/01/31 08:15:45.2	314.010	0.400	-0.620	0.160
2020/01/31 08:15:45.3	314.010	0.380	-0.610	0.110
2020/01/31 08:15:45.4	314.010	0.360	-0.600	0.060
2020/01/31 08:15:45.5	314.020	0.330	-0.600	0.010
2020/01/31 08:15:45.6	314.020	0.310	-0.580	-0.040
2020/01/31 08:15:45.7	314.030	0.280	-0.570	-0.090
2020/01/31 08:15:45.8	314.040	0.250	-0.550	-0.140
2020/01/31 08:15:45.9	314.050	0.220	-0.530	-0.190
2020/01/31 08:15:46.0	314.060	0.190	-0.510	-0.240
2020/01/31 08:15:46.1	314.070	0.160	-0.490	-0.290
2020/01/31 08:15:46.2	314.080	0.120	-0.460	-0.340
2020/01/31 08:15:46.3	314.100	0.090	-0.440	-0.380
2020/01/31 08:15:46.4	314.110	0.060	-0.400	-0.430
2020/01/31 08:15:46.5	314.120	0.030	-0.370	-0.470
2020/01/31 08:15:46.6	314.130	-0.010	-0.330	-0.510
2020/01/31 08:15:46.7	314.140	-0.040	-0.300	-0.550
2020/01/31 08:15:46.8	314.160	-0.070	-0.260	-0.580
2020/01/31 08:15:46.9	314.170	-0.100	-0.220	-0.610
2020/01/31 08:15:47.0	314.180	-0.130	-0.180	-0.640
2020/01/31 08:15:47.1	314.190	-0.150	-0.140	-0.670
2020/01/31 08:15:47.2	314.200	-0.180	-0.100	-0.690
2020/01/31 08:15:47.3	314.220	-0.200	-0.050	-0.720
2020/01/31 08:15:47.4	314.230	-0.220	-0.010	-0.740
2020/01/31 08:15:47.5	314.250	-0.240	0.020	-0.750
2020/01/31 08:15:47.6	314.260	-0.260	0.060	-0.760
2020/01/31 08:15:47.7	314.270	-0.270	0.100	-0.770
2020/01/31 08:15:47.8	314.280	-0.280	0.130	-0.780
2020/01/31 08:15:47.9	314.290	-0.290	0.170	-0.790
2020/01/31 08:15:48.0	314.300	-0.300	0.200	-0.790
2020/01/31 08:15:48.1	314.300	-0.310	0.230	-0.790
2020/01/31 08:15:48.2	314.310	-0.310	0.250	-0.780
2020/01/31 08:15:48.3	314.310	-0.310	0.270	-0.770
2020/01/31 08:15:48.4	314.310	-0.310	0.290	-0.760
2020/01/31 08:15:48.5	314.320	-0.300	0.310	-0.750
2020/01/31 08:15:48.6	314.320	-0.300	0.330	-0.740
2020/01/31 08:15:48.7	314.320	-0.290	0.340	-0.720
2020/01/31 08:15:48.8	314.320	-0.280	0.340	-0.710
2020/01/31 08:15:48.9	314.320	-0.270	0.350	-0.690
2020/01/31 08:15:49.0	314.310	-0.260	0.340	-0.670
2020/01/31 08:15:49.1	314.310	-0.240	0.340	-0.660
2020/01/31 08:15:49.2	314.310	-0.230	0.330	-0.640
2020/01/31 08:15:49.3	314.310	-0.210	0.320	-0.610
2020/01/31 08:15:49.4	314.310	-0.190	0.300	-0.600
2020/01/31 08:15:49.5	314.310	-0.170	0.280	-0.580
2020/01/31 08:15:49.6	314.310	-0.160	0.250	-0.560
2020/01/31 08:15:49.7	314.310	-0.140	0.220	-0.550
2020/01/31 08:15:49.8	314.310	-0.120	0.180	-0.530
2020/01/31 08:15:49.9	314.310	-0.100	0.150	-0.520
2020/01/31 08:15:50.0	314.310	-0.080	0.100	-0.510
2020/01/31 08:15:50.1	314.310	-0.060	0.060	-0.510
2020/01/31 08:15:50.2	314.320	-0.040	0.010	-0.500
2020/01/31 08:15:50.3	314.330	-0.020	-0.040	-0.500
2020/01/31 08:15:50.4	314.330	-0.000	-0.090	-0.500
2020/01/31 08:15:50.5	314.340	0.020	-0.140	-0.500
2020/01/31 08:15:50.6	314.340	0.030	-0.190	-0.510
2020/01/31 08:15:50.7	314.350	0.050	-0.240	-0.510
2020/01/31 08:15:50.8	314.350	0.060	-0.290	-0.520
2020/01/31 08:15:50.9	314.360	0.070	-0.340	-0.520
2020/01/31 08:15:51.0	314.360	0.080	-0.380	-0.530
2020/01/31 08:15:51.1	314.360	0.090	-0.430	-0.530
2020/01/31 08:15:51.2	314.360	0.100	-0.470	-0.530
2020/01/31 08:15:51.3	314.360	0.110	-0.510	-0.540
2020/01/31 08:15:51.4	314.360	0.110	-0.540	-0.540
2020/01/31 08:15:51.5	314.360	0.120	-0.570	-0.540
2020/01/31 08:15:51.6	314.350	0.120	-0.600	-0.540
2020/01/31 08:15:51.7	314.350	0.120	-0.620	-0.530
2020/01/31 08:15:51.8	314.340	0.120	-0.640	-0.530
2020/01/31 08:15:51.9	314.330	0.110	-0.650	-0.520
2020/01/31 08:15:52.0	314.320	0.110	-0.660	-0.510
2020/01/31 08:15:52.1	314.310	0.100	-0.670	-0.500
2020/01/31 08:15:52.2	314.290	0.100	-0.670	-0.490
2020/01/31 08:15:52.3	314.280	0.090	-0.660	-0.480
2020/01/31 08:15:52.4	314.260	0.090	-0.660	-0.470
2020/01/31 08:15:52.5	314.250	0.080	-0.650	-0.460
2020/01/31 08:15:52.6	314.240	0.070	-0.640	-0.450
2020/01/31 08:15:52.7	314.230	0.060	-0.620	-0.440
2020/01/31 08:15:52.8	314.210	0.060	-0.610	-0.430
2020/01/31 08:15:52.9	314.200	0.050	-0.600	-0.430
2020/01/31 08:15:53.0	314.200	0.040	-0.580	-0.420
2020/01/31 08:15:53.1	314.190	0.040	-0.570	-0.410
2020/01/31 08:15:53.2	314.180	0.030	-0.550	-0.410
2020/01/31 08:15:53.3	314.180	0.030	-0.550	-0.410
2020/01/31 08:15:53.4	314.180	0.030	-0.530	-0.410
2020/01/31 08:15:53.5	314.180	0.030	-0.520	-0.410
2020/01/31 08:15:53.6	314.190	0.030	-0.510	-0.410
2020/01/31 08:15:53.7	314.190	0.030	-0.510	-0.420
2020/01/31 08:15:53.8	314.200	0.030	-0.500	-0.420
2020/01/31 08:15:53.9	314.210	0.030	-0.490	-0.430
2020/01/31 08:15:54.0	314.220	0.030	-0.490	-0.440
2020/01/31 08:15:54.1	314.230	0.040	-0.490	-0.450
2020/01/31 08:15:54.2	314.240	0.040	-0.490	-0.470
2020/01/31 08:15:54.3	314.250	0.040	-0.480	-0.480
2020/01/31 08:15:54.4	314.270	0.050	-0.480	-0.500
2020/01/31 08:15:54.5	314.280	0.050	-0.480	-0.520
2020/01/31 08:15:54.6	314.300	0.060	-0.480	-0.530
2020/01/31 08:15:54.7	314.320	0.060	-0.470	-0.550
2020/01/31 08:15:54.8	314.340	0.060	-0.470	-0.570
2020/01/31 08:15:54.9	314.360	0.060	-0.470	-0.580
2020/01/31 08:15:55.0	314.370	0.060	-0.460	-0.600
2020/01/31 08:15:55.1	314.390	0.060	-0.450	-0.610
2020/01/31 08:15:55.2	314.410	0.060	-0.450	-0.630
2020/01/31 08:15:55.3	314.430	0.050	-0.430	-0.640
2020/01/31 08:15:55.4	314.450	0.050	-0.420	-0.650
2020/01/31 08:15:55.5	314.460	0.040	-0.410	-0.650
2020/01/31 08:15:55.6	314.480	0.030	-0.390	-0.660
2020/01/31 08:15:55.7	314.490	0.020	-0.370	-0.660
2020/01/31 08:15:55.8	314.510	0.010	-0.350	-0.660
2020/01/31 08:15:55.9	314.520	-0.000	-0.330	-0.650
2020/01/31 08:15:56.0	314.530	-0.020	-0.300	-0.640
2020/01/31 08:15:56.1	314.540	-0.030	-0.270	-0.630
2020/01/31 08:15:56.2	314.540	-0.050	-0.240	-0.620
2020/01/31 08:15:56.3	314.550	-0.070	-0.200	-0.600
2020/01/31 08:15:56.4	314.550	-0.090	-0.170	-0.580
2020/01/31 08:15:56.5	314.550	-0.110	-0.140	-0.560
2020/01/31 08:15:56.6	314.550	-0.130	-0.100	-0.540
2020/01/31 08:15:56.7	314.550	-0.150	-0.060	-0.510
2020/01/31 08:15:56.8	314.550	-0.180	-0.030	-0.490
2020/01/31 08:15:56.9	314.550	-0.200	0.010	-0.460
2020/01/31 08:15:57.0	314.540	-0.220	0.040	-0.430
2020/01/31 08:15:57.1	314.530	-0.240	0.080	-0.400
2020/01/31 08:15:57.2	314.520	-0.260	0.110	-0.360
2020/01/31 08:15:57.3	314.510	-0.280	0.140	-0.330
2020/01/31 08:15:57.4	314.500	-0.300	0.160	-0.290
2020/01/31 08:15:57.5	314.490	-0.320	0.190	-0.260
2020/01/31 08:15:57.6	314.480	-0.330	0.210	-0.230
2020/01/31 08:15:57.7	314.470	-0.340	0.230	-0.190
2020/01/31 08:15:57.8	314.450	-0.350	0.250	-0.160
2020/01/31 08:15:57.9	314.440	-0.360	0.260	-0.130
2020/01/31 08:15:58.0	314.430	-0.360	0.270	-0.110
2020/01/31 08:15:58.1	314.420	-0.370	0.270	-0.080
2020/01/31 08:15:58.2	314.400	-0.360	0.270	-0.060
2020/01/31 08:15:58.3	314.400	-0.360	0.270	-0.040
2020/01/31 08:15:58.4	314.390	-0.350	0.260	-0.020
2020/01/31 08:15:58.5	314.390	-0.340	0.250	-0.000
2020/01/31 08:15:58.6	314.380	-0.320	0.230	0.010
2020/01/31 08:15:58.7	314.380	-0.300	0.210	0.020
2020/01/31 08:15:58.8	314.380	-0.280	0.180	0.030
2020/01/31 08:15:58.9	314.380	-0.260	0.150	0.030
2020/01/31 08:15:59.0	314.380	-0.230	0.120	0.030
2020/01/31 08:15:59.1	314.390	-0.200	0.080	0.030
2020/01/31 08:15:59.2	314.390	-0.170	0.040	0.030
2020/01/31 08:15:59.3	314.390	-0.130	-0.010	0.030
2020/01/31 08:15:59.4	314.400	-0.090	-0.050	0.030
2020/01/31 08:15:59.5	314.410	-0.060	-0.100	0.020
2020/01/31 08:15:59.6	314.420	-0.020	-0.140	0.010
2020/01/31 08:15:59.7	314.430	0.020	-0.190	0.000
2020/01/31 08:15:59.8	314.440	0.070	-0.240	-0.010
2020/01/31 08:15:59.9	314.450	0.110	-0.280	-0.020
2020/01/31 08:16:00.0	314.460	0.150	-0.330	-0.030
2020/01/31 08:16:00.1	314.470	0.190	-0.370	-0.040
2020/01/31 08:16:00.2	314.480	0.230	-0.410	-0.050
2020/01/31 08:16:00.3	314.480	0.270	-0.450	-0.070
2020/01/31 08:16:00.4	314.490	0.300	-0.480	-0.080
2020/01/31 08:16:00.5	314.490	0.340	-0.520	-0.090
2020/01/31 08:16:00.6	314.490	0.370	-0.540	-0.100
2020/01/31 08:16:00.7	314.490	0.400	-0.570	-0.110
2020/01/31 08:16:00.8	314.490	0.430	-0.580	-0.110
2020/01/31 08:16:00.9	314.490	0.460	-0.600	-0.120
2020/01/31 08:16:01.0	314.490	0.480	-0.610	-0.130
2020/01/31 08:16:01.1	314.480	0.500	-0.610	-0.130
2020/01/31 08:16:01.2	314.480	0.520	-0.610	-0.130
2020/01/31 08:16:01.3	314.460	0.530	-0.610	-0.140
2020/01/31 08:16:01.4	314.450	0.540	-0.600	-0.140
2020/01/31 08:16:01.5	314.440	0.550	-0.580	-0.140
2020/01/31 08:16:01.6	314.430	0.550	-0.560	-0.140
2020/01/31 08:16:01.7	314.420	0.550	-0.540	-0.140
2020/01/31 08:16:01.8	314.410	0.550	-0.510	-0.140
2020/01/31 08:16:01.9	314.410	0.540	-0.490	-0.140
2020/01/31 08:16:02.0	314.400	0.530	-0.450	-0.140
2020/01/31 08:16:02.1	314.390	0.520	-0.420	-0.140
2020/01/31 08:16:02.2	314.380	0.500	-0.380	-0.140
2020/01/31 08:16:02.3	314.380	0.480	-0.340	-0.130
2020/01/31 08:16:02.4	314.370	0.460	-0.300	-0.130
2020/01/31 08:16:02.5	314.370	0.440	-0.260	-0.130
2020/01/31 08:16:02.6	314.360	0.410	-0.220	-0.130
2020/01/31 08:16:02.7	314.350	0.390	-0.180	-0.120
2020/01/31 08:16:02.8	314.340	0.360	-0.140	-0.120
2020/01/31 08:16:02.9	314.340	0.330	-0.100	-0.120
2020/01/31 08:16:03.0	314.330	0.300	-0.060	-0.110
2020/01/31 08:16:03.1	314.320	0.270	-0.020	-0.110
2020/01/31 08:16:03.2	314.310	0.230	0.010	-0.110
2020/01/31 08:16:03.3	314.320	0.200	0.050	-0.100
2020/01/31 08:16:03.4	314.310	0.170	0.080	-0.100
2020/01/31 08:16:03.5	314.300	0.140	0.100	-0.100
2020/01/31 08:16:03.6	314.290	0.100	0.130	-0.100
2020/01/31 08:16:03.7	314.290	0.070	0.150	-0.110
2020/01/31 08:16:03.8	314.280	0.040	0.170	-0.110
2020/01/31 08:16:03.9	314.270	0.010	0.180	-0.110
2020/01/31 08:16:04.0	314.270	-0.020	0.190	-0.120
2020/01/31 08:16:04.1	314.260	-0.050	0.200	-0.130
2020/01/31 08:16:04.2	314.260	-0.070	0.200	-0.140
2020/01/31 08:16:04.3	314.240	-0.100	0.190	-0.150
2020/01/31 08:16:04.4	314.240	-0.120	0.190	-0.170
2020/01/31 08:16:04.5	314.240	-0.150	0.180	-0.190
2020/01/31 08:16:04.6	314.240	-0.170	0.160	-0.200
2020/01/31 08:16:04.7	314.240	-0.190	0.140	-0.230
2020/01/31 08:16:04.8	314.240	-0.200	0.120	-0.250
2020/01/31 08:16:04.9	314.250	-0.220	0.090	-0.270
2020/01/31 08:16:05.0	314.250	-0.230	0.070	-0.300
2020/01/31 08:16:05.1	314.260	-0.240	0.030	-0.330
2020/01/31 08:16:05.2	314.270	-0.250	-0.000	-0.360
2020/01/31 08:16:05.3	314.280	-0.260	-0.040	-0.390
2020/01/31 08:16:05.4	314.290	-0.270	-0.090	-0.430
2020/01/31 08:16:05.5	314.310	-0.270	-0.130	-0.460
2020/01/31 08:16:05.6	314.320	-0.270	-0.170	-0.500
2020/01/31 08:16:05.7	314.340	-0.270	-0.220	-0.540
2020/01/31 08:16:05.8	314.360	-0.270	-0.270	-0.580
2020/01/31 08:16:05.9	314.380	-0.270	-0.320	-0.610
2020/01/31 08:16:06.0	314.400	-0.270	-0.370	-0.650
2020/01/31 08:16:06.1	314.420	-0.260	-0.420	-0.690
2020/01/31 08:16:06.2	314.450	-0.260	-0.470	-0.730
2020/01/31 08:16:06.3	314.480	-0.250	-0.520	-0.760
2020/01/31 08:16:06.4	314.500	-0.250	-0.570	-0.800
2020/01/31 08:16:06.5	314.530	-0.240	-0.620	-0.840
2020/01/31 08:16:06.6	314.560	-0.230	-0.660	-0.870
2020/01/31 08:16:06.7	314.580	-0.230	-0.710	-0.900
2020/01/31 08:16:06.8	314.610	-0.220	-0.750	-0.940
2020/01/31 08:16:06.9	314.640	-0.210	-0.790	-0.970
2020/01/31 08:16:07.0	314.670	-0.210	-0.830	-0.990
2020/01/31 08:16:07.1	314.690	-0.200	-0.860	-1.020
2020/01/31 08:16:07.2	314.720	-0.190	-0.890	-1.040
2020/01/31 08:16:07.3	314.760	-0.190	-0.920	-1.060
2020/01/31 08:16:07.4	314.780	-0.180	-0.940	-1.080
2020/01/31 08:16:07.5	314.810	-0.170	-0.960	-1.100
2020/01/31 08:16:07.6	314.830	-0.170	-0.970	-1.110
2020/01/31 08:16:07.7	314.850	-0.160	-0.970	-1.120
2020/01/31 08:16:07.8	314.870	-0.160	-0.980	-1.120
2020/01/31 08:16:07.9	314.890	-0.150	-0.970	-1.120
2020/01/31 08:16:08.0	314.910	-0.150	-0.960	-1.120
2020/01/31 08:16:08.1	314.930	-0.150	-0.940	-1.120
2020/01/31 08:16:08.2	314.940	-0.140	-0.920	-1.110
2020/01/31 08:16:08.3	314.970	-0.140	-0.890	-1.090
2020/01/31 08:16:08.4	314.980	-0.140	-0.860	-1.070
2020/01/31 08:16:08.5	314.990	-0.140	-0.820	-1.050
2020/01/31 08:16:08.6	315.000	-0.140	-0.780	-1.030
2020/01/31 08:16:08.7	315.010	-0.130	-0.740	-1.010
2020/01/31 08:16:08.8	315.020	-0.130	-0.690	-0.980
2020/01/31 08:16:08.9	315.020	-0.130	-0.640	-0.950
2020/01/31 08:16:09.0	315.030	-0.130	-0.580	-0.910
2020/01/31 08:16:09.1	315.030	-0.130	-0.520	-0.880
2020/01/31 08:16:09.2	315.030	-0.130	-0.470	-0.840
2020/01/31 08:16:09.3	315.040	-0.130	-0.410	-0.810
2020/01/31 08:16:09.4	315.040	-0.130	-0.350	-0.770
2020/01/31 08:16:09.5	315.030	-0.130	-0.290	-0.730
2020/01/31 08:16:09.6	315.030	-0.130	-0.230	-0.690
2020/01/31 08:16:09.7	315.030	-0.130	-0.170	-0.660
2020/01/31 08:16:09.8	315.030	-0.130	-0.110	-0.620
2020/01/31 08:16:09.9	315.020	-0.130	-0.060	-0.580
2020/01/31 08:16:10.0	315.020	-0.130	-0.010	-0.540
2020/01/31 08:16:10.1	315.010	-0.120	0.040	-0.490
2020/01/31 08:16:10.2	315.000	-0.120	0.090	-0.450
2020/01/31 08:16:10.3	315.000	-0.120	0.130	-0.400
2020/01/31 08:16:10.4	314.990	-0.120	0.170	-0.360
2020/01/31 08:16:10.5	314.980	-0.110	0.210	-0.310
2020/01/31 08:16:10.6	314.970	-0.110	0.240	-0.270
2020/01/31 08:16:10.7	314.950	-0.100	0.270	-0.220
2020/01/31 08:16:10.8	314.940	-0.090	0.300	-0.170
2020/01/31 08:16:10.9	314.930	-0.080	0.320	-0.120
2020/01/31 08:16:11.0	314.910	-0.070	0.340	-0.070
2020/01/31 08:16:11.1	314.890	-0.060	0.350	-0.020
2020/01/31 08:16:11.2	314.880	-0.050	0.360	0.030
2020/01/31 08:16:11.3	314.850	-0.040	0.370	0.080
2020/01/31 08:16:11.4	314.830	-0.020	0.380	0.130
2020/01/31 08:16:11.5	314.810	-0.010	0.380	0.170
2020/01/31 08:16:11.6	314.790	0.010	0.380	0.220
2020/01/31 08:16:11.7	314.770	0.030	0.370	0.270
2020/01/31 08:16:11.8	314.750	0.050	0.360	0.310
2020/01/31 08:16:11.9	314.720	0.070	0.350	0.360
2020/01/31 08:16:12.0	314.700	0.090	0.340	0.400
2020/01/31 08:16:12.1	314.680	0.110	0.320	0.430
2020/01/31 08:16:12.2	314.660	0.140	0.310	0.470
2020/01/31 08:16:12.3	314.640	0.160	0.280	0.500
2020/01/31 08:16:12.4	314.620	0.180	0.260	0.530
2020/01/31 08:16:12.5	314.600	0.210	0.240	0.550
2020/01/31 08:16:12.6	314.590	0.230	0.210	0.570
2020/01/31 08:16:12.7	314.570	0.250	0.180	0.590
2020/01/31 08:16:12.8	314.560	0.280	0.150	0.600
2020/01/31 08:16:12.9	314.540	0.300	0.110	0.600
2020/01/31 08:16:13.0	314.530	0.320	0.080	0.610
2020/01/31 08:16:13.1	314.520	0.340	0.040	0.600
2020/01/31 08:16:13.2	314.510	0.350	0.000	0.600
2020/01/31 08:16:13.3	314.500	0.370	-0.030	0.590
2020/01/31 08:16:13.4	314.500	0.380	-0.070	0.570
2020/01/31 08:16:13.5	314.490	0.390	-0.110	0.550
2020/01/31 08:16:13.6	314.490	0.400	-0.150	0.530
2020/01/31 08:16:13.7	314.480	0.400	-0.190	0.500
2020/01/31 08:16:13.8	314.480	0.410	-0.230	0.470
2020/01/31 08:16:13.9	314.480	0.410	-0.260	0.440
2020/01/31 08:16:14.0	314.480	0.400	-0.300	0.400
2020/01/31 08:16:14.1	314.480	0.400	-0.330	0.370
2020/01/31 08:16:14.2	314.480	0.390	-0.360	0.320
2020/01/31 08:16:14.3	314.470	0.380	-0.390	0.280
2020/01/31 08:16:14.4	314.470	0.370	-0.420	0.230
2020/01/31 08:16:14.5	314.480	0.350	-0.440	0.190
2020/01/31 08:16:14.6	314.480	0.330	-0.460	0.140
2020/01/31 08:16:14.7	314.480	0.310	-0.480	0.090
2020/01/31 08:16:14.8	314.490	0.290	-0.490	0.030
2020/01/31 08:16:14.9	314.490	0.270	-0.510	-0.020
2020/01/31 08:16:15.0	314.500	0.240	-0.510	-0.080
2020/01/31 08:16:15.1	314.510	0.210	-0.520	-0.130
2020/01/31 08:16:15.2	314.510	0.180	-0.520	-0.190
2020/01/31 08:16:15.3	314.530	0.150	-0.520	-0.240
2020/01/31 08:16:15.4	314.540	0.120	-0.510	-0.300
2020/01/31 08:16:15.5	314.550	0.090	-0.510	-0.350
2020/01/31 08:16:15.6	314.560	0.060	-0.500	-0.400
2020/01/31 08:16:15.7	314.560	0.030	-0.490	-0.450
2020/01/31 08:16:15.8	314.570	0.000	-0.470	-0.500
2020/01/31 08:16:15.9	314.580	-0.030	-0.460	-0.550
2020/01/31 08:16:16.0	314.590	-0.060	-0.440	-0.600
2020/01/31 08:16:16.1	314.600	-0.090	-0.420	-0.640
2020/01/31 08:16:16.2	314.610	-0.110	-0.400	-0.690
2020/01/31 08:16:16.3	314.620	-0.140	-0.390	-0.730
2020/01/31 08:16:16.4	314.630	-0.160	-0.370	-0.760
2020/01/31 08:16:16.5	314.640	-0.180	-0.340	-0.800
2020/01/31 08:16:16.6	314.650	-0.210	-0.320	-0.840
2020/01/31 08:16:16.7	314.650	-0.220	-0.300	-0.870
2020/01/31 08:16:16.8	314.660	-0.240	-0.280	-0.900
2020/01/31 08:16:16.9	314.670	-0.250	-0.270	-0.930
2020/01/31 08:16:17.0	314.680	-0.270	-0.250	-0.950
2020/01/31 08:16:17.1	314.690	-0.270	-0.230	-0.970
2020/01/31 08:16:17.2	314.690	-0.280	-0.220	-0.990
2020/01/31 08:16:17.3	314.700	-0.290	-0.200	-1.010
2020/01/31 08:16:17.4	314.710	-0.290	-0.190	-1.020
2020/01/31 08:16:17.5	314.710	-0.290	-0.180	-1.030
2020/01/31 08:16:17.6	314.720	-0.280	-0.170	-1.040
2020/01/31 08:16:17.7	314.720	-0.280	-0.160	-1.050
2020/01/31 08:16:17.8	314.720	-0.270	-0.160	-1.050
2020/01/31 08:16:17.9	314.730	-0.260	-0.160	-1.050
2020/01/31 08:16:18.0	314.730	-0.250	-0.160	-1.040
2020/01/31 08:16:18.1	314.730	-0.240	-0.160	-1.040
2020/01/31 08:16:18.2	314.730	-0.230	-0.160	-1.030
2020/01/31 08:16:18.3	314.740	-0.210	-0.160	-1.020
2020/01/31 08:16:18.4	314.740	-0.190	-0.170	-1.000
2020/01/31 08:16:18.5	314.740	-0.180	-0.170	-0.990
2020/01/31 08:16:18.6	314.730	-0.160	-0.180	-0.970
2020/01/31 08:16:18.7	314.730	-0.140	-0.190	-0.950
2020/01/31 08:16:18.8	314.730	-0.130	-0.200	-0.930
2020/01/31 08:16:18.9	314.730	-0.110	-0.210	-0.900
2020/01/31 08:16:19.0	314.730	-0.090	-0.220	-0.880
2020/01/31 08:16:19.1	314.720	-0.070	-0.230	-0.850
2020/01/31 08:16:19.2	314.720	-0.060	-0.250	-0.830
2020/01/31 08:16:19.3	314.720	-0.040	-0.270	-0.800
2020/01/31 08:16:19.4	314.710	-0.030	-0.280	-0.770
2020/01/31 08:16:19.5	314.710	-0.010	-0.300	-0.740
2020/01/31 08:16:19.6	314.710	-0.000	-0.320	-0.720
2020/01/31 08:16:19.7	314.710	0.010	-0.330	-0.690
2020/01/31 08:16:19.8	314.710	0.020	-0.350	-0.660
2020/01/31 08:16:19.9	314.710	0.020	-0.370	-0.640
2020/01/31 08:16:20.0	314.710	0.030	-0.390	-0.610
2020/01/31 08:16:20.1	314.710	0.030	-0.400	-0.580
2020/01/31 08:16:20.2	314.710	0.040	-0.420	-0.560
2020/01/31 08:16:20.3	314.720	0.040	-0.440	-0.530
2020/01/31 08:16:20.4	314.720	0.040	-0.450	-0.500
2020/01/31 08:16:20.5	314.720	0.040	-0.460	-0.480
2020/01/31 08:16:20.6	314.720	0.030	-0.480	-0.450
2020/01/31 08:16:20.7	314.720	0.030	-0.490	-0.420
2020/01/31 08:16:20.8	314.720	0.020	-0.490	-0.400
2020/01/31 08:16:20.9	314.710	0.020	-0.500	-0.370
2020/01/31 08:16:21.0	314.710	0.010	-0.500	-0.340
2020/01/31 08:16:21.1	314.710	-0.000	-0.500	-0.310
2020/01/31 08:16:21.2	314.700	-0.010	-0.500	-0.290
2020/01/31 08:16:21.3	314.700	-0.020	-0.490	-0.260
2020/01/31 08:16:21.4	314.700	-0.030	-0.480	-0.230
2020/01/31 08:16:21.5	314.690	-0.050	-0.480	-0.200
2020/01/31 08:16:21.6	314.680	-0.060	-0.460	-0.180
2020/01/31 08:16:21.7	314.680	-0.070	-0.450	-0.150
2020/01/31 08:16:21.8	314.670	-0.080	-0.440	-0.130
2020/01/31 08:16:21.9	314.670	-0.090	-0.420	-0.110
2020/01/31 08:16:22.0	314.660	-0.100	-0.400	-0.090
2020/01/31 08:16:22.1	314.660	-0.110	-0.380	-0.070
2020/01/31 08:16:22.2	314.650	-0.120	-0.360	-0.050
2020/01/31 08:16:22.3	314.630	-0.130	-0.340	-0.040
2020/01/31 08:16:22.4	314.620	-0.130	-0.320	-0.030
2020/01/31 08:16:22.5	314.620	-0.140	-0.300	-0.020
2020/01/31 08:16:22.6	314.610	-0.140	-0.280	-0.010
2020/01/31 08:16:22.7	314.610	-0.140	-0.260	-0.000
2020/01/31 08:16:22.8	314.600	-0.140	-0.240	0.000
2020/01/31 08:16:22.9	314.600	-0.140	-0.230	0.010
2020/01/31 08:16:23.0	314.590	-0.140	-0.210	0.010
2020/01/31 08:16:23.1	314.590	-0.130	-0.190	0.010
2020/01/31 08:16:23.2	314.590	-0.120	-0.180	0.000
2020/01/31 08:16:23.3	314.560	-0.110	-0.160	-0.000
2020/01/31 08:16:23.4	314.560	-0.100	-0.150	-0.010
2020/01/31 08:16:23.5	314.550	-0.090	-0.140	-0.010
2020/01/31 08:16:23.6	314.550	-0.070	-0.130	-0.010
2020/01/31 08:16:23.7	314.550	-0.050	-0.120	-0.020
2020/01/31 08:16:23.8	314.540	-0.030	-0.110	-0.020
2020/01/31 08:16:23.9	314.540	-0.010	-0.100	-0.030
2020/01/31 08:16:24.0	314.530	0.010	-0.100	-0.030
2020/01/31 08:16:24.1	314.530	0.030	-0.090	-0.040
2020/01/31 08:16:24.2	314.520	0.050	-0.090	-0.040
2020/01/31 08:16:24.3	314.510	0.080	-0.090	-0.040
2020/01/31 08:16:24.4	314.500	0.100	-0.090	-0.040
2020/01/31 08:16:24.5	314.500	0.130	-0.080	-0.050
2020/01/31 08:16:24.6	314.500	0.150	-0.090	-0.050
2020/01/31 08:16:24.7	314.500	0.170	-0.090	-0.060
2020/01/31 08:16:24.8	314.490	0.200	-0.090	-0.060
2020/01/31 08:16:24.9	314.490	0.220	-0.090	-0.070
2020/01/31 08:16:25.0	314.490	0.240	-0.100	-0.070
2020/01/31 08:16:25.1	314.490	0.260	-0.100	-0.080
2020/01/31 08:16:25.2	314.490	0.280	-0.110	-0.080
2020/01/31 08:16:25.3	314.500	0.300	-0.120	-0.090
2020/01/31 08:16:25.4	314.500	0.310	-0.120	-0.100
2020/01/31 08:16:25.5	314.500	0.330	-0.130	-0.100
2020/01/31 08:16:25.6	314.490	0.340	-0.140	-0.110
2020/01/31 08:16:25.7	314.490	0.350	-0.140	-0.110
2020/01/31 08:16:25.8	314.490	0.360	-0.150	-0.120
2020/01/31 08:16:25.9	314.480	0.370	-0.160	-0.120
2020/01/31 08:16:26.0	314.480	0.370	-0.160	-0.130
2020/01/31 08:16:26.1	314.480	0.380	-0.170	-0.130
2020/01/31 08:16:26.2	314.470	0.380	-0.170	-0.140
2020/01/31 08:16:26.3	314.460	0.380	-0.180	-0.140
2020/01/31 08:16:26.4	314.460	0.370	-0.180	-0.150
2020/01/31 08:16:26.5	314.450	0.370	-0.180	-0.160
2020/01/31 08:16:26.6	314.440	0.360	-0.180	-0.170
2020/01/31 08:16:26.7	314.430	0.350	-0.190	-0.180
2020/01/31 08:16:26.8	314.420	0.340	-0.190	-0.190
2020/01/31 08:16:26.9	314.410	0.330	-0.190	-0.200
2020/01/31 08:16:27.0	314.400	0.310	-0.190	-0.210
2020/01/31 08:16:27.1	314.390	0.300	-0.180	-0.230
2020/01/31 08:16:27.2	314.380	0.280	-0.180	-0.240
2020/01/31 08:16:27.3	314.370	0.260	-0.180	-0.250
2020/01/31 08:16:27.4	314.360	0.240	-0.170	-0.260
2020/01/31 08:16:27.5	314.350	0.220	-0.170	-0.280
2020/01/31 08:16:27.6	314.340	0.200	-0.160	-0.290
2020/01/31 08:16:27.7	314.330	0.180	-0.160	-0.310
2020/01/31 08:16:27.8	314.320	0.160	-0.150	-0.320
2020/01/31 08:16:27.9	314.310	0.140	-0.140	-0.330
2020/01/31 08:16:28.0	314.300	0.120	-0.140	-0.350
2020/01/31 08:16:28.1	314.290	0.100	-0.130	-0.360
2020/01/31 08:16:28.2	314.280	0.080	-0.120	-0.380
2020/01/31 08:16:28.3	314.280	0.060	-0.110	-0.390
2020/01/31 08:16:28.4	314.280	0.040	-0.100	-0.410
2020/01/31 08:16:28.5	314.270	0.020	-0.100	-0.420
2020/01/31 08:16:28.6	314.260	-0.000	-0.090	-0.430
2020/01/31 08:16:28.7	314.260	-0.020	-0.080	-0.440
2020/01/31 08:16:28.8	314.250	-0.040	-0.070	-0.450
2020/01/31 08:16:28.9	314.240	-0.060	-0.060	-0.460
2020/01/31 08:16:29.0	314.230	-0.070	-0.060	-0.470
2020/01/31 08:16:29.1	314.220	-0.090	-0.050	-0.470
2020/01/31 08:16:29.2	314.210	-0.100	-0.040	-0.480
2020/01/31 08:16:29.3	314.210	-0.120	-0.040	-0.480
2020/01/31 08:16:29.4	314.200	-0.130	-0.040	-0.490
2020/01/31 08:16:29.5	314.190	-0.150	-0.030	-0.500
2020/01/31 08:16:29.6	314.180	-0.160	-0.030	-0.500
2020/01/31 08:16:29.7	314.180	-0.170	-0.030	-0.510
2020/01/31 08:16:29.8	314.170	-0.180	-0.040	-0.520
2020/01/31 08:16:29.9	314.160	-0.200	-0.040	-0.530
2020/01/31 08:16:30.0	314.160	-0.210	-0.050	-0.530
2020/01/31 08:16:30.1	314.160	-0.220	-0.060	-0.550
2020/01/31 08:16:30.2	314.160	-0.230	-0.070	-0.560
2020/01/31 08:16:30.3	314.170	-0.240	-0.090	-0.570
2020/01/31 08:16:30.4	314.180	-0.250	-0.100	-0.580
2020/01/31 08:16:30.5	314.180	-0.250	-0.120	-0.600
2020/01/31 08:16:30.6	314.190	-0.260	-0.150	-0.620
2020/01/31 08:16:30.7	314.200	-0.270	-0.170	-0.630
2020/01/31 08:16:30.8	314.210	-0.280	-0.200	-0.650
2020/01/31 08:16:30.9	314.230	-0.280	-0.230	-0.670
2020/01/31 08:16:31.0	314.240	-0.290	-0.250	-0.690
2020/01/31 08:16:31.1	314.260	-0.290	-0.280	-0.710
2020/01/31 08:16:31.2	314.270	-0.300	-0.310	-0.740
2020/01/31 08:16:31.3	314.290	-0.300	-0.340	-0.760
2020/01/31 08:16:31.4	314.310	-0.300	-0.370	-0.780
2020/01/31 08:16:31.5	314.330	-0.310	-0.400	-0.800
2020/01/31 08:16:31.6	314.350	-0.310	-0.430	-0.820
2020/01/31 08:16:31.7	314.380	-0.310	-0.460	-0.840
2020/01/31 08:16:31.8	314.400	-0.310	-0.490	-0.850
2020/01/31 08:16:31.9	314.420	-0.310	-0.510	-0.870
2020/01/31 08:16:32.0	314.440	-0.310	-0.530	-0.880
2020/01/31 08:16:32.1	314.460	-0.310	-0.550	-0.890
2020/01/31 08:16:32.2	314.480	-0.310	-0.570	-0.900
2020/01/31 08:16:32.3	314.510	-0.300	-0.580	-0.910
2020/01/31 08:16:32.4	314.530	-0.300	-0.590	-0.910
2020/01/31 08:16:32.5	314.550	-0.300	-0.600	-0.910
2020/01/31 08:16:32.6	314.560	-0.300	-0.600	-0.910
2020/01/31 08:16:32.7	314.580	-0.290	-0.600	-0.900
2020/01/31 08:16:32.8	314.590	-0.290	-0.600	-0.890
2020/01/31 08:16:32.9	314.610	-0.280	-0.600	-0.880
2020/01/31 08:16:33.0	314.620	-0.280	-0.590	-0.870
2020/01/31 08:16:33.1	314.630	-0.270	-0.580	-0.850
2020/01/31 08:16:33.2	314.640	-0.270	-0.560	-0.830
2020/01/31 08:16:33.3	314.660	-0.260	-0.550	-0.800
2020/01/31 08:16:33.4	314.670	-0.250	-0.530	-0.780
2020/01/31 08:16:33.5	314.680	-0.240	-0.510	-0.750
2020/01/31 08:16:33.6	314.690	-0.230	-0.490	-0.730
2020/01/31 08:16:33.7	314.700	-0.230	-0.470	-0.700
2020/01/31 08:16:33.8	314.700	-0.220	-0.450	-0.670
2020/01/31 08:16:33.9	314.710	-0.200	-0.430	-0.630
2020/01/31 08:16:34.0	314.710	-0.190	-0.400	-0.600
2020/01/31 08:16:34.1	314.720	-0.180	-0.380	-0.560
2020/01/31 08:16:34.2	314.720	-0.170	-0.360	-0.520
2020/01/31 08:16:34.3	314.720	-0.160	-0.330	-0.480
2020/01/31 08:16:34.4	314.710	-0.140	-0.310	-0.430
2020/01/31 08:16:34.5	314.710	-0.130	-0.280	-0.390
2020/01/31 08:16:34.6	314.700	-0.110	-0.260	-0.350
2020/01/31 08:16:34.7	314.690	-0.100	-0.240	-0.300
2020/01/31 08:16:34.8	314.680	-0.080	-0.210	-0.250
2020/01/31 08:16:34.9	314.670	-0.060	-0.190	-0.210
2020/01/31 08:16:35.0	314.650	-0.050	-0.170	-0.160
2020/01/31 08:16:35.1	314.630	-0.030	-0.150	-0.110
2020/01/31 08:16:35.2	314.610	-0.010	-0.130	-0.070
2020/01/31 08:16:35.3	314.590	0.010	-0.110	-0.020
2020/01/31 08:16:35.4	314.570	0.030	-0.100	0.030
2020/01/31 08:16:35.5	314.540	0.050	-0.080	0.080
2020/01/31 08:16:35.6	314.510	0.070	-0.060	0.130
2020/01/31 08:16:35.7	314.480	0.090	-0.050	0.180
2020/01/31 08:16:35.8	314.450	0.110	-0.030	0.230
2020/01/31 08:16:35.9	314.420	0.130	-0.020	0.280
2020/01/31 08:16:36.0	314.380	0.160	-0.010	0.330
2020/01/31 08:16:36.1	314.350	0.180	-0.000	0.380
2020/01/31 08:16:36.2	314.310	0.200	0.010	0.420
2020/01/31 08:16:36.3	314.260	0.220	0.020	0.470
2020/01/31 08:16:36.4	314.220	0.240	0.020	0.510
2020/01/31 08:16:36.5	314.180	0.260	0.020	0.550
2020/01/31 08:16:36.6	314.150	0.280	0.030	0.590
2020/01/31 08:16:36.7	314.110	0.300	0.030	0.630
2020/01/31 08:16:36.8	314.070	0.310	0.030	0.660
2020/01/31 08:16:36.9	314.030	0.330	0.020	0.680
2020/01/31 08:16:37.0	314.000	0.340	0.020	0.710
2020/01/31 08:16:37.1	313.970	0.360	0.010	0.730
2020/01/31 08:16:37.2	313.930	0.370	-0.000	0.750
2020/01/31 08:16:37.3	313.900	0.380	-0.010	0.760
2020/01/31 08:16:37.4	313.870	0.390	-0.030	0.760
2020/01/31 08:16:37.5	313.840	0.400	-0.040	0.760
2020/01/31 08:16:37.6	313.820	0.410	-0.060	0.760
2020/01/31 08:16:37.7	313.800	0.410	-0.080	0.750
2020/01/31 08:16:37.8	313.780	0.420	-0.110	0.740
2020/01/31 08:16:37.9	313.770	0.420	-0.130	0.720
2020/01/31 08:16:38.0	313.760	0.420	-0.160	0.700
2020/01/31 08:16:38.1	313.750	0.420	-0.190	0.680
2020/01/31 08:16:38.2	313.750	0.420	-0.220	0.650
2020/01/31 08:16:38.3	313.740	0.420	-0.250	0.620
2020/01/31 08:16:38.4	313.740	0.420	-0.280	0.590
2020/01/31 08:16:38.5	313.740	0.410	-0.310	0.550
2020/01/31 08:16:38.6	313.750	0.410	-0.340	0.510
2020/01/31 08:16:38.7	313.750	0.400	-0.370	0.480
2020/01/31 08:16:38.8	313.760	0.390	-0.400	0.440
2020/01/31 08:16:38.9	313.770	0.390	-0.430	0.400
2020/01/31 08:16:39.0	313.770	0.380	-0.460	0.350
2020/01/31 08:16:39.1	313.780	0.370	-0.490	0.310
2020/01/31 08:16:39.2	313.800	0.360	-0.520	0.270
2020/01/31 08:16:39.3	313.800	0.350	-0.540	0.220
2020/01/31 08:16:39.4	313.820	0.340	-0.570	0.180
2020/01/31 08:16:39.5	313.840	0.320	-0.590	0.130
2020/01/31 08:16:39.6	313.850	0.310	-0.610	0.080
2020/01/31 08:16:39.7	313.870	0.300	-0.630	0.030
2020/01/31 08:16:39.8	313.900	0.280	-0.650	-0.020
2020/01/31 08:16:39.9	313.920	0.270	-0.660	-0.070
2020/01/31 08:16:40.0	313.940	0.260	-0.670	-0.120
2020/01/31 08:16:40.1	313.970	0.240	-0.680	-0.170
2020/01/31 08:16:40.2	313.990	0.230	-0.690	-0.220
2020/01/31 08:16:40.3	314.030	0.210	-0.690	-0.270
2020/01/31 08:16:40.4	314.060	0.200	-0.690	-0.320
2020/01/31 08:16:40.5	314.090	0.180	-0.690	-0.370
2020/01/31 08:16:40.6	314.120	0.170	-0.680	-0.420
2020/01/31 08:16:40.7	314.150	0.150	-0.670	-0.470
2020/01/31 08:16:40.8	314.180	0.140	-0.660	-0.520
2020/01/31 08:16:40.9	314.210	0.120	-0.640	-0.560
2020/01/31 08:16:41.0	314.250	0.100	-0.620	-0.600
2020/01/31 08:16:41.1	314.280	0.090	-0.600	-0.650
2020/01/31 08:16:41.2	314.310	0.070	-0.570	-0.690
2020/01/31 08:16:41.3	314.340	0.060	-0.540	-0.720
2020/01/31 08:16:41.4	314.370	0.040	-0.510	-0.760
2020/01/31 08:16:41.5	314.400	0.020	-0.480	-0.790
2020/01/31 08:16:41.6	314.420	0.010	-0.440	-0.820
2020/01/31 08:16:41.7	314.450	-0.010	-0.400	-0.840
2020/01/31 08:16:41.8	314.470	-0.030	-0.360	-0.860
2020/01/31 08:16:41.9	314.490	-0.040	-0.320	-0.880
2020/01/31 08:16:42.0	314.510	-0.060	-0.270	-0.890
2020/01/31 08:16:42.1	314.530	-0.080	-0.230	-0.900
2020/01/31 08:16:42.2	314.550	-0.100	-0.190	-0.910
2020/01/31 08:16:42.3	314.570	-0.120	-0.140	-0.900
2020/01/31 08:16:42.4	314.580	-0.140	-0.100	-0.900
2020/01/31 08:16:42.5	314.590	-0.160	-0.060	-0.900
2020/01/31 08:16:42.6	314.590	-0.180	-0.020	-0.890
2020/01/31 08:16:42.7	314.600	-0.200	0.020	-0.890
2020/01/31 08:16:42.8	314.600	-0.220	0.060	-0.880
2020/01/31 08:16:42.9	314.610	-0.240	0.100	-0.870
2020/01/31 08:16:43.0	314.610	-0.270	0.130	-0.870
2020/01/31 08:16:43.1	314.610	-0.290	0.160	-0.860
2020/01/31 08:16:43.2	314.610	-0.310	0.180	-0.850
2020/01/31 08:16:43.3	314.610	-0.340	0.210	-0.840
2020/01/31 08:16:43.4	314.600	-0.360	0.230	-0.840
2020/01/31 08:16:43.5	314.600	-0.380	0.250	-0.840
2020/01/31 08:16:43.6	314.600	-0.410	0.270	-0.830
2020/01/31 08:16:43.7	314.600	-0.430	0.280	-0.830
2020/01/31 08:16:43.8	314.600	-0.450	0.280	-0.830
2020/01/31 08:16:43.9	314.600	-0.470	0.290	-0.830
2020/01/31 08:16:44.0	314.600	-0.490	0.290	-0.830
2020/01/31 08:16:44.1	314.600	-0.510	0.290	-0.830
2020/01/31 08:16:44.2	314.600	-0.530	0.290	-0.840
2020/01/31 08:16:44.3	314.610	-0.550	0.280	-0.840
2020/01/31 08:16:44.4	314.610	-0.570	0.270	-0.840
2020/01/31 08:16:44.5	314.610	-0.580	0.260	-0.840
2020/01/31 08:16:44.6	314.610	-0.590	0.250	-0.840
2020/01/31 08:16:44.7	314.610	-0.600	0.240	-0.840
2020/01/31 08:16:44.8	314.600	-0.610	0.220	-0.830
2020/01/31 08:16:44.9	314.600	-0.620	0.210	-0.830
2020/01/31 08:16:45.0	314.600	-0.620	0.200	-0.820
2020/01/31 08:16:45.1	314.590	-0.620	0.180	-0.810
2020/01/31 08:16:45.2	314.580	-0.620	0.170	-0.800
2020/01/31 08:16:45.3	314.570	-0.620	0.160	-0.780
2020/01/31 08:16:45.4	314.550	-0.610	0.150	-0.760
2020/01/31 08:16:45.5	314.540	-0.600	0.140	-0.740
2020/01/31 08:16:45.6	314.520	-0.590	0.120	-0.720
2020/01/31 08:16:45.7	314.500	-0.580	0.110	-0.690
2020/01/31 08:16:45.8	314.480	-0.560	0.100	-0.660
2020/01/31 08:16:45.9	314.460	-0.540	0.090	-0.630
2020/01/31 08:16:46.0	314.430	-0.520	0.090	-0.590
2020/01/31 08:16:46.1	314.410	-0.500	0.080	-0.560
2020/01/31 08:16:46.2	314.380	-0.480	0.070	-0.520
2020/01/31 08:16:46.3	314.350	-0.450	0.050	-0.480
2020/01/31 08:16:46.4	314.320	-0.420	0.040	-0.450
2020/01/31 08:16:46.5	314.280	-0.390	0.030	-0.410
2020/01/31 08:16:46.6	314.250	-0.360	0.020	-0.370
2020/01/31 08:16:46.7	314.210	-0.330	0.000	-0.330
2020/01/31 08:16:46.8	314.170	-0.300	-0.010	-0.290
2020/01/31 08:16:46.9	314.140	-0.260	-0.030	-0.250
2020/01/31 08:16:47.0	314.100	-0.230	-0.050	-0.210
2020/01/31 08:16:47.1	314.060	-0.190	-0.070	-0.170
2020/01/31 08:16:47.2	314.020	-0.160	-0.090	-0.140
2020/01/31 08:16:47.3	313.990	-0.120	-0.110	-0.100
2020/01/31 08:16:47.4	313.960	-0.080	-0.130	-0.060
2020/01/31 08:16:47.5	313.920	-0.050	-0.160	-0.030
2020/01/31 08:16:47.6	313.890	-0.010	-0.190	0.010
2020/01/31 08:16:47.7	313.850	0.030	-0.220	0.040
2020/01/31 08:16:47.8	313.820	0.060	-0.250	0.070
2020/01/31 08:16:47.9	313.790	0.100	-0.280	0.100
2020/01/31 08:16:48.0	313.760	0.140	-0.310	0.130
2020/01/31 08:16:48.1	313.730	0.180	-0.340	0.160
2020/01/31 08:16:48.2	313.710	0.210	-0.380	0.190
2020/01/31 08:16:48.3	313.680	0.250	-0.420	0.220
2020/01/31 08:16:48.4	313.660	0.290	-0.450	0.250
2020/01/31 08:16:48.5	313.640	0.320	-0.480	0.270
2020/01/31 08:16:48.6	313.630	0.360	-0.520	0.300
2020/01/31 08:16:48.7	313.620	0.390	-0.550	0.320
2020/01/31 08:16:48.8	313.610	0.430	-0.580	0.340
2020/01/31 08:16:48.9	313.600	0.460	-0.620	0.360
2020/01/31 08:16:49.0	313.590	0.490	-0.650	0.380
2020/01/31 08:16:49.1	313.590	0.530	-0.680	0.400
2020/01/31 08:16:49.2	313.590	0.560	-0.710	0.420
2020/01/31 08:16:49.3	313.580	0.590	-0.740	0.430
2020/01/31 08:16:49.4	313.590	0.610	-0.770	0.440
2020/01/31 08:16:49.5	313.590	0.640	-0.800	0.450
2020/01/31 08:16:49.6	313.600	0.660	-0.820	0.460
2020/01/31 08:16:49.7	313.620	0.680	-0.850	0.460
2020/01/31 08:16:49.8	313.630	0.700	-0.870	0.470
2020/01/31 08:16:49.9	313.640	0.720	-0.900	0.470
2020/01/31 08:16:50.0	313.660	0.730	-0.920	0.470
2020/01/31 08:16:50.1	313.670	0.740	-0.930	0.470
2020/01/31 08:16:50.2	313.690	0.750	-0.950	0.460
2020/01/31 08:16:50.3	313.700	0.750	-0.970	0.450
2020/01/31 08:16:50.4	313.720	0.750	-0.980	0.440
2020/01/31 08:16:50.5	313.740	0.750	-0.990	0.420
2020/01/31 08:16:50.6	313.760	0.740	-1.000	0.400
2020/01/31 08:16:50.7	313.780	0.730	-1.000	0.380
2020/01/31 08:16:50.8	313.810	0.710	-1.010	0.350
2020/01/31 08:16:50.9	313.830	0.690	-1.010	0.320
2020/01/31 08:16:51.0	313.860	0.670	-1.000	0.280
2020/01/31 08:16:51.1	313.890	0.640	-1.000	0.250
2020/01/31 08:16:51.2	313.920	0.610	-1.000	0.200
2020/01/31 08:16:51.3	313.950	0.580	-0.990	0.160
2020/01/31 08:16:51.4	313.980	0.540	-0.980	0.110
2020/01/31 08:16:51.5	314.010	0.500	-0.960	0.060
2020/01/31 08:16:51.6	314.050	0.460	-0.950	0.010
2020/01/31 08:16:51.7	314.080	0.420	-0.930	-0.040
2020/01/31 08:16:51.8	314.110	0.370	-0.910	-0.090
2020/01/31 08:16:51.9	314.150	0.320	-0.880	-0.150
2020/01/31 08:16:52.0	314.180	0.270	-0.850	-0.200
2020/01/31 08:16:52.1	314.210	0.210	-0.820	-0.250
2020/01/31 08:16:52.2	314.240	0.160	-0.780	-0.300
2020/01/31 08:16:52.3	314.270	0.100	-0.740	-0.350
2020/01/31 08:16:52.4	314.290	0.050	-0.700	-0.400
2020/01/31 08:16:52.5	314.320	-0.010	-0.650	-0.450
2020/01/31 08:16:52.6	314.350	-0.060	-0.600	-0.490
2020/01/31 08:16:52.7	314.370	-0.120	-0.540	-0.530
2020/01/31 08:16:52.8	314.390	-0.170	-0.480	-0.570
2020/01/31 08:16:52.9	314.420	-0.230	-0.420	-0.600
2020/01/31 08:16:53.0	314.440	-0.280	-0.360	-0.630
2020/01/31 08:16:53.1	314.450	-0.330	-0.290	-0.660
2020/01/31 08:16:53.2	314.470	-0.380	-0.220	-0.690
2020/01/31 08:16:53.3	314.500	-0.430	-0.150	-0.700
2020/01/31 08:16:53.4	314.510	-0.470	-0.080	-0.720
2020/01/31 08:16:53.5	314.530	-0.510	-0.000	-0.730
2020/01/31 08:16:53.6	314.530	-0.550	0.070	-0.740
2020/01/31 08:16:53.7	314.540	-0.580	0.150	-0.750
2020/01/31 08:16:53.8	314.540	-0.610	0.220	-0.750
2020/01/31 08:16:53.9	314.550	-0.640	0.300	-0.750
2020/01/31 08:16:54.0	314.550	-0.670	0.370	-0.750
2020/01/31 08:16:54.1	314.540	-0.690	0.440	-0.740
2020/01/31 08:16:54.2	314.540	-0.700	0.510	-0.730
2020/01/31 08:16:54.3	314.540	-0.720	0.570	-0.710
2020/01/31 08:16:54.4	314.530	-0.720	0.630	-0.700
2020/01/31 08:16:54.5	314.520	-0.730	0.680	-0.680
2020/01/31 08:16:54.6	314.500	-0.730	0.730	-0.660
2020/01/31 08:16:54.7	314.490	-0.720	0.780	-0.640
2020/01/31 08:16:54.8	314.470	-0.710	0.820	-0.620
2020/01/31 08:16:54.9	314.460	-0.700	0.850	-0.600
2020/01/31 08:16:55.0	314.440	-0.680	0.880	-0.580
2020/01/31 08:16:55.1	314.420	-0.660	0.900	-0.560
2020/01/31 08:16:55.2	314.400	-0.640	0.910	-0.540
2020/01/31 08:16:55.3	314.400	-0.620	0.920	-0.520
2020/01/31 08:16:55.4	314.390	-0.590	0.920	-0.500
2020/01/31 08:16:55.5	314.370	-0.550	0.910	-0.480
2020/01/31 08:16:55.6	314.350	-0.520	0.900	-0.470
2020/01/31 08:16:55.7	314.340	-0.480	0.870	-0.460
2020/01/31 08:16:55.8	314.320	-0.450	0.840	-0.440
2020/01/31 08:16:55.9	314.310	-0.410	0.810	-0.430
2020/01/31 08:16:56.0	314.300	-0.370	0.770	-0.420
2020/01/31 08:16:56.1	314.280	-0.330	0.720	-0.420
2020/01/31 08:16:56.2	314.270	-0.290	0.670	-0.410
2020/01/31 08:16:56.3	314.260	-0.250	0.610	-0.410
2020/01/31 08:16:56.4	314.250	-0.210	0.560	-0.400
2020/01/31 08:16:56.5	314.240	-0.170	0.490	-0.400
2020/01/31 08:16:56.6	314.220	-0.130	0.430	-0.400
2020/01/31 08:16:56.7	314.210	-0.090	0.370	-0.400
2020/01/31 08:16:56.8	314.190	-0.050	0.300	-0.400
2020/01/31 08:16:56.9	314.170	-0.020	0.230	-0.410
2020/01/31 08:16:57.0	314.150	0.010	0.170	-0.410
2020/01/31 08:16:57.1	314.130	0.040	0.100	-0.410
2020/01/31 08:16:57.2	314.110	0.070	0.040	-0.420
2020/01/31 08:16:57.3	314.080	0.100	-0.030	-0.420
2020/01/31 08:16:57.4	314.050	0.130	-0.090	-0.430
2020/01/31 08:16:57.5	314.030	0.150	-0.150	-0.430
2020/01/31 08:16:57.6	314.000	0.170	-0.210	-0.430
2020/01/31 08:16:57.7	313.970	0.190	-0.260	-0.430
2020/01/31 08:16:57.8	313.940	0.210	-0.310	-0.440
2020/01/31 08:16:57.9	313.910	0.220	-0.360	-0.440
2020/01/31 08:16:58.0	313.870	0.230	-0.410	-0.440
2020/01/31 08:16:58.1	313.840	0.250	-0.450	-0.440
2020/01/31 08:16:58.2	313.810	0.260	-0.490	-0.430
2020/01/31 08:16:58.3	313.770	0.270	-0.520	-0.440
2020/01/31 08:16:58.4	313.740	0.280	-0.550	-0.430
2020/01/31 08:16:58.5	313.710	0.290	-0.590	-0.430
2020/01/31 08:16:58.6	313.680	0.290	-0.610	-0.430
2020/01/31 08:16:58.7	313.650	0.300	-0.640	-0.420
2020/01/31 08:16:58.8	313.630	0.310	-0.660	-0.420
2020/01/31 08:16:58.9	313.600	0.320	-0.690	-0.410
2020/01/31 08:16:59.0	313.580	0.330	-0.710	-0.410
2020/01/31 08:16:59.1	313.560	0.340	-0.720	-0.400
2020/01/31 08:16:59.2	313.550	0.340	-0.740	-0.400
2020/01/31 08:16:59.3	313.530	0.350	-0.760	-0.400
2020/01/31 08:16:59.4	313.520	0.360	-0.770	-0.400
2020/01/31 08:16:59.5	313.510	0.370	-0.790	-0.400
2020/01/31 08:16:59.6	313.510	0.380	-0.800	-0.400
2020/01/31 08:16:59.7	313.510	0.390	-0.810	-0.400
2020/01/31 08:16:59.8	313.510	0.400	-0.820	-0.410
2020/01/31 08:16:59.9	313.520	0.410	-0.830	-0.420
2020/01/31 08:17:00.0	313.530	0.420	-0.830	-0.420
2020/01/31 08:17:00.1	313.540	0.430	-0.840	-0.430
2020/01/31 08:17:00.2	313.550	0.440	-0.840	-0.440
2020/01/31 08:17:00.3	313.560	0.450	-0.840	-0.450
2020/01/31 08:17:00.4	313.570	0.460	-0.840	-0.460
2020/01/31 08:17:00.5	313.590	0.460	-0.840	-0.470
2020/01/31 08:17:00.6	313.610	0.470	-0.840	-0.480
2020/01/31 08:17:00.7	313.630	0.470	-0.840	-0.490
2020/01/31 08:17:00.8	313.650	0.470	-0.830	-0.500
2020/01/31 08:17:00.9	313.680	0.470	-0.820	-0.510
2020/01/31 08:17:01.0	313.700	0.470	-0.810	-0.510
2020/01/31 08:17:01.1	313.720	0.470	-0.800	-0.520
2020/01/31 08:17:01.2	313.750	0.460	-0.790	-0.530
2020/01/31 08:17:01.3	313.770	0.450	-0.770	-0.540
2020/01/31 08:17:01.4	313.800	0.440	-0.760	-0.550
2020/01/31 08:17:01.5	313.820	0.430	-0.740	-0.560
2020/01/31 08:17:01.6	313.840	0.420	-0.720	-0.570
2020/01/31 08:17:01.7	313.870	0.400	-0.700	-0.570
2020/01/31 08:17:01.8	313.890	0.390	-0.680	-0.580
2020/01/31 08:17:01.9	313.920	0.370	-0.660	-0.590
2020/01/31 08:17:02.0	313.950	0.340	-0.640	-0.600
2020/01/31 08:17:02.1	313.970	0.320	-0.620	-0.600
2020/01/31 08:17:02.2	314.000	0.300	-0.600	-0.610
2020/01/31 08:17:02.3	314.020	0.270	-0.570	-0.610
2020/01/31 08:17:02.4	314.040	0.240	-0.550	-0.620
2020/01/31 08:17:02.5	314.070	0.210	-0.520	-0.620
2020/01/31 08:17:02.6	314.090	0.180	-0.500	-0.630
2020/01/31 08:17:02.7	314.120	0.140	-0.470	-0.630
2020/01/31 08:17:02.8	314.140	0.110	-0.450	-0.630
2020/01/31 08:17:02.9	314.160	0.070	-0.430	-0.630
2020/01/31 08:17:03.0	314.180	0.030	-0.400	-0.640
2020/01/31 08:17:03.1	314.200	-0.010	-0.380	-0.640
2020/01/31 08:17:03.2	314.220	-0.050	-0.350	-0.640
2020/01/31 08:17:03.3	314.230	-0.090	-0.330	-0.630
2020/01/31 08:17:03.4	314.250	-0.130	-0.300	-0.630
2020/01/31 08:17:03.5	314.260	-0.170	-0.280	-0.620
2020/01/31 08:17:03.6	314.270	-0.210	-0.250	-0.620
2020/01/31 08:17:03.7	314.270	-0.250	-0.220	-0.610
2020/01/31 08:17:03.8	314.280	-0.290	-0.190	-0.610
2020/01/31 08:17:03.9	314.280	-0.330	-0.160	-0.600
2020/01/31 08:17:04.0	314.280	-0.370	-0.130	-0.590
2020/01/31 08:17:04.1	314.280	-0.410	-0.100	-0.570
2020/01/31 08:17:04.2	314.270	-0.440	-0.070	-0.560
2020/01/31 08:17:04.3	314.260	-0.480	-0.030	-0.540
2020/01/31 08:17:04.4	314.250	-0.520	0.000	-0.530
2020/01/31 08:17:04.5	314.230	-0.550	0.040	-0.510
2020/01/31 08:17:04.6	314.210	-0.580	0.070	-0.490
2020/01/31 08:17:04.7	314.190	-0.610	0.110	-0.460
2020/01/31 08:17:04.8	314.170	-0.640	0.140	-0.440
2020/01/31 08:17:04.9	314.150	-0.670	0.180	-0.420
2020/01/31 08:17:05.0	314.120	-0.690	0.210	-0.390
2020/01/31 08:17:05.1	314.090	-0.710	0.240	-0.370
2020/01/31 08:17:05.2	314.060	-0.730	0.270	-0.350
2020/01/31 08:17:05.3	314.030	-0.750	0.300	-0.320
2020/01/31 08:17:05.4	314.000	-0.760	0.330	-0.290
2020/01/31 08:17:05.5	313.970	-0.770	0.350	-0.270
2020/01/31 08:17:05.6	313.930	-0.780	0.370	-0.240
2020/01/31 08:17:05.7	313.900	-0.780	0.390	-0.220
2020/01/31 08:17:05.8	313.870	-0.780	0.410	-0.200
2020/01/31 08:17:05.9	313.840	-0.780	0.420	-0.170
2020/01/31 08:17:06.0	313.810	-0.770	0.420	-0.150
2020/01/31 08:17:06.1	313.780	-0.760	0.430	-0.120
2020/01/31 08:17:06.2	313.750	-0.740	0.430	-0.100
2020/01/31 08:17:06.3	313.720	-0.730	0.420	-0.080
2020/01/31 08:17:06.4	313.690	-0.710	0.410	-0.060
2020/01/31 08:17:06.5	313.660	-0.680	0.400	-0.030
2020/01/31 08:17:06.6	313.630	-0.660	0.380	-0.010
2020/01/31 08:17:06.7	313.600	-0.630	0.360	0.020
2020/01/31 08:17:06.8	313.570	-0.590	0.340	0.040
2020/01/31 08:17:06.9	313.540	-0.560	0.320	0.070
2020/01/31 08:17:07.0	313.520	-0.520	0.290	0.090
2020/01/31 08:17:07.1	313.490	-0.480	0.260	0.120
2020/01/31 08:17:07.2	313.460	-0.430	0.230	0.150
2020/01/31 08:17:07.3	313.440	-0.390	0.200	0.170
2020/01/31 08:17:07.4	313.420	-0.340	0.160	0.200
2020/01/31 08:17:07.5	313.390	-0.300	0.120	0.220
2020/01/31 08:17:07.6	313.370	-0.250	0.080	0.240
2020/01/31 08:17:07.7	313.350	-0.200	0.040	0.260
2020/01/31 08:17:07.8	313.340	-0.140	-0.000	0.280
2020/01/31 08:17:07.9	313.320	-0.090	-0.040	0.300
2020/01/31 08:17:08.0	313.310	-0.040	-0.090	0.310
2020/01/31 08:17:08.1	313.300	0.010	-0.140	0.320
2020/01/31 08:17:08.2	313.290	0.060	-0.180	0.330
2020/01/31 08:17:08.3	313.280	0.110	-0.230	0.340
2020/01/31 08:17:08.4	313.280	0.160	-0.280	0.340
2020/01/31 08:17:08.5	313.270	0.210	-0.330	0.340
2020/01/31 08:17:08.6	313.280	0.260	-0.370	0.330
2020/01/31 08:17:08.7	313.280	0.310	-0.420	0.330
2020/01/31 08:17:08.8	313.290	0.350	-0.460	0.320
2020/01/31 08:17:08.9	313.300	0.400	-0.500	0.300
2020/01/31 08:17:09.0	313.310	0.440	-0.540	0.290
2020/01/31 08:17:09.1	313.320	0.470	-0.580	0.270
2020/01/31 08:17:09.2	313.340	0.510	-0.610	0.250
2020/01/31 08:17:09.3	313.360	0.540	-0.640	0.230
2020/01/31 08:17:09.4	313.380	0.570	-0.670	0.200
2020/01/31 08:17:09.5	313.400	0.590	-0.700	0.170
2020/01/31 08:17:09.6	313.430	0.620	-0.720	0.150
2020/01/31 08:17:09.7	313.460	0.640	-0.740	0.120
2020/01/31 08:17:09.8	313.490	0.650	-0.750	0.090
2020/01/31 08:17:09.9	313.520	0.660	-0.760	0.060
2020/01/31 08:17:10.0	313.550	0.670	-0.760	0.030
2020/01/31 08:17:10.1	313.580	0.670	-0.760	0.010
2020/01/31 08:17:10.2	313.610	0.670	-0.760	-0.020
2020/01/31 08:17:10.3	313.650	0.670	-0.760	-0.050
2020/01/31 08:17:10.4	313.690	0.670	-0.750	-0.080
2020/01/31 08:17:10.5	313.720	0.660	-0.730	-0.100
2020/01/31 08:17:10.6	313.750	0.650	-0.710	-0.120
2020/01/31 08:17:10.7	313.790	0.630	-0.690	-0.140
2020/01/31 08:17:10.8	313.820	0.610	-0.660	-0.160
2020/01/31 08:17:10.9	313.860	0.590	-0.630	-0.180
2020/01/31 08:17:11.0	313.890	0.570	-0.600	-0.200
2020/01/31 08:17:11.1	313.920	0.550	-0.560	-0.210
2020/01/31 08:17:11.2	313.960	0.520	-0.520	-0.220
2020/01/31 08:17:11.3	313.980	0.500	-0.480	-0.240
2020/01/31 08:17:11.4	314.020	0.470	-0.440	-0.250
2020/01/31 08:17:11.5	314.050	0.440	-0.400	-0.260
2020/01/31 08:17:11.6	314.080	0.410	-0.360	-0.260
2020/01/31 08:17:11.7	314.110	0.380	-0.310	-0.270
2020/01/31 08:17:11.8	314.140	0.350	-0.270	-0.280
2020/01/31 08:17:11.9	314.170	0.320	-0.230	-0.290
2020/01/31 08:17:12.0	314.200	0.290	-0.190	-0.300
2020/01/31 08:17:12.1	314.230	0.260	-0.150	-0.300
2020/01/31 08:17:12.2	314.260	0.230	-0.120	-0.310
2020/01/31 08:17:12.3	314.290	0.200	-0.090	-0.320
2020/01/31 08:17:12.4	314.310	0.180	-0.050	-0.320
2020/01/31 08:17:12.5	314.340	0.150	-0.020	-0.320
2020/01/31 08:17:12.6	314.360	0.120	0.010	-0.330
2020/01/31 08:17:12.7	314.380	0.090	0.030	-0.330
2020/01/31 08:17:12.8	314.390	0.070	0.060	-0.330
2020/01/31 08:17:12.9	314.400	0.040	0.080	-0.330
2020/01/31 08:17:13.0	314.410	0.020	0.100	-0.330
2020/01/31 08:17:13.1	314.420	-0.000	0.120	-0.320
2020/01/31 08:17:13.2	314.420	-0.020	0.130	-0.320
2020/01/31 08:17:13.3	314.430	-0.040	0.150	-0.310
2020/01/31 08:17:13.4	314.430	-0.060	0.160	-0.300
2020/01/31 08:17:13.5	314.420	-0.080	0.170	-0.290
2020/01/31 08:17:13.6	314.420	-0.100	0.170	-0.280
2020/01/31 08:17:13.7	314.400	-0.110	0.180	-0.260
2020/01/31 08:17:13.8	314.390	-0.130	0.180	-0.250
2020/01/31 08:17:13.9	314.380	-0.140	0.180	-0.240
2020/01/31 08:17:14.0	314.360	-0.150	0.170	-0.220
2020/01/31 08:17:14.1	314.340	-0.160	0.170	-0.210
2020/01/31 08:17:14.2	314.320	-0.170	0.160	-0.200
2020/01/31 08:17:14.3	314.300	-0.180	0.150	-0.190
2020/01/31 08:17:14.4	314.280	-0.190	0.130	-0.170
2020/01/31 08:17:14.5	314.250	-0.200	0.110	-0.160
2020/01/31 08:17:14.6	314.230	-0.200	0.090	-0.150
2020/01/31 08:17:14.7	314.200	-0.210	0.070	-0.150
2020/01/31 08:17:14.8	314.170	-0.210	0.040	-0.140
2020/01/31 08:17:14.9	314.150	-0.220	0.020	-0.140
2020/01/31 08:17:15.0	314.120	-0.220	-0.010	-0.130
2020/01/31 08:17:15.1	314.090	-0.220	-0.040	-0.130
2020/01/31 08:17:15.2	314.070	-0.220	-0.080	-0.130
2020/01/31 08:17:15.3	314.030	-0.220	-0.110	-0.130
2020/01/31 08:17:15.4	314.000	-0.220	-0.140	-0.130
2020/01/31 08:17:15.5	313.970	-0.220	-0.180	-0.140
2020/01/31 08:17:15.6	313.950	-0.210	-0.210	-0.140
2020/01/31 08:17:15.7	313.920	-0.210	-0.250	-0.140
2020/01/31 08:17:15.8	313.900	-0.200	-0.280	-0.140
2020/01/31 08:17:15.9	313.870	-0.190	-0.310	-0.150
2020/01/31 08:17:16.0	313.850	-0.190	-0.340	-0.150
2020/01/31 08:17:16.1	313.820	-0.180	-0.370	-0.150
2020/01/31 08:17:16.2	313.800	-0.170	-0.400	-0.150
2020/01/31 08:17:16.3	313.780	-0.160	-0.430	-0.160
2020/01/31 08:17:16.4	313.760	-0.150	-0.450	-0.160
2020/01/31 08:17:16.5	313.740	-0.140	-0.470	-0.160
2020/01/31 08:17:16.6	313.720	-0.130	-0.490	-0.160
2020/01/31 08:17:16.7	313.710	-0.120	-0.500	-0.160
2020/01/31 08:17:16.8	313.690	-0.110	-0.520	-0.160
2020/01/31 08:17:16.9	313.670	-0.100	-0.530	-0.160
2020/01/31 08:17:17.0	313.660	-0.090	-0.540	-0.160
2020/01/31 08:17:17.1	313.650	-0.080	-0.550	-0.160
2020/01/31 08:17:17.2	313.640	-0.070	-0.560	-0.170
2020/01/31 08:17:17.3	313.620	-0.060	-0.560	-0.170
2020/01/31 08:17:17.4	313.610	-0.060	-0.560	-0.180
2020/01/31 08:17:17.5	313.610	-0.050	-0.570	-0.190
2020/01/31 08:17:17.6	313.600	-0.040	-0.570	-0.200
2020/01/31 08:17:17.7	313.600	-0.040	-0.570	-0.210
2020/01/31 08:17:17.8	313.600	-0.030	-0.580	-0.220
2020/01/31 08:17:17.9	313.610	-0.030	-0.580	-0.240
2020/01/31 08:17:18.0	313.610	-0.020	-0.580	-0.260
2020/01/31 08:17:18.1	313.620	-0.020	-0.580	-0.280
2020/01/31 08:17:18.2	313.630	-0.020	-0.590	-0.300
2020/01/31 08:17:18.3	313.640	-0.020	-0.590	-0.320
2020/01/31 08:17:18.4	313.650	-0.020	-0.590	-0.350
2020/01/31 08:17:18.5	313.670	-0.010	-0.600	-0.380
2020/01/31 08:17:18.6	313.690	-0.010	-0.600	-0.400
2020/01/31 08:17:18.7	313.710	-0.010	-0.600	-0.430
2020/01/31 08:17:18.8	313.740	-0.010	-0.600	-0.460
2020/01/31 08:17:18.9	313.760	-0.010	-0.590	-0.490
2020/01/31 08:17:19.0	313.790	-0.010	-0.590	-0.520
2020/01/31 08:17:19.1	313.820	-0.010	-0.590	-0.550
2020/01/31 08:17:19.2	313.850	-0.010	-0.580	-0.580
2020/01/31 08:17:19.3	313.900	-0.010	-0.580	-0.600
2020/01/31 08:17:19.4	313.930	-0.010	-0.570	-0.630
2020/01/31 08:17:19.5	313.960	-0.010	-0.560	-0.660
2020/01/31 08:17:19.6	314.000	-0.010	-0.550	-0.690
2020/01/31 08:17:19.7	314.030	-0.010	-0.540	-0.710
2020/01/31 08:17:19.8	314.070	-0.010	-0.530	-0.740
2020/01/31 08:17:19.9	314.100	-0.010	-0.510	-0.760
2020/01/31 08:17:20.0	314.140	-0.010	-0.500	-0.780
2020/01/31 08:17:20.1	314.170	-0.010	-0.480	-0.810
2020/01/31 08:17:20.2	314.210	-0.000	-0.460	-0.830
2020/01/31 08:17:20.3	314.250	-0.000	-0.450	-0.840
2020/01/31 08:17:20.4	314.290	-0.000	-0.430	-0.860
2020/01/31 08:17:20.5	314.320	-0.000	-0.400	-0.870
2020/01/31 08:17:20.6	314.360	-0.000	-0.380	-0.880
2020/01/31 08:17:20.7	314.390	-0.000	-0.350	-0.890
2020/01/31 08:17:20.8	314.420	-0.000	-0.320	-0.900
2020/01/31 08:17:20.9	314.450	-0.000	-0.290	-0.900
2020/01/31 08:17:21.0	314.480	-0.000	-0.260	-0.910
2020/01/31 08:17:21.1	314.510	-0.010	-0.230	-0.910
2020/01/31 08:17:21.2	314.540	-0.010	-0.200	-0.900
2020/01/31 08:17:21.3	314.570	-0.010	-0.160	-0.890
2020/01/31 08:17:21.4	314.600	-0.010	-0.120	-0.890
2020/01/31 08:17:21.5	314.620	-0.020	-0.090	-0.880
2020/01/31 08:17:21.6	314.650	-0.020	-0.050	-0.860
2020/01/31 08:17:21.7	314.670	-0.020	-0.010	-0.850
2020/01/31 08:17:21.8	314.690	-0.030	0.030	-0.830
2020/01/31 08:17:21.9	314.710	-0.030	0.060	-0.820
2020/01/31 08:17:22.0	314.730	-0.040	0.100	-0.800
2020/01/31 08:17:22.1	314.740	-0.050	0.140	-0.780
2020/01/31 08:17:22.2	314.760	-0.050	0.170	-0.770
2020/01/31 08:17:22.3	314.770	-0.060	0.200	-0.750
2020/01/31 08:17:22.4	314.780	-0.070	0.240	-0.730
2020/01/31 08:17:22.5	314.790	-0.070	0.260	-0.710
2020/01/31 08:17:22.6	314.800	-0.080	0.290	-0.690
2020/01/31 08:17:22.7	314.810	-0.090	0.320	-0.670
2020/01/31 08:17:22.8	314.810	-0.100	0.340	-0.660
2020/01/31 08:17:22.9	314.820	-0.100	0.360	-0.640
2020/01/31 08:17:23.0	314.820	-0.110	0.380	-0.620
2020/01/31 08:17:23.1	314.820	-0.120	0.400	-0.600
2020/01/31 08:17:23.2	314.810	-0.130	0.410	-0.580
2020/01/31 08:17:23.3	314.810	-0.130	0.430	-0.570
2020/01/31 08:17:23.4	314.800	-0.140	0.440	-0.550
2020/01/31 08:17:23.5	314.800	-0.150	0.450	-0.530
2020/01/31 08:17:23.6	314.790	-0.150	0.450	-0.510
2020/01/31 08:17:23.7	314.770	-0.160	0.460	-0.490
2020/01/31 08:17:23.8	314.760	-0.160	0.460	-0.470
2020/01/31 08:17:23.9	314.740	-0.160	0.460	-0.450
2020/01/31 08:17:24.0	314.720	-0.160	0.450	-0.430
2020/01/31 08:17:24.1	314.700	-0.170	0.440	-0.410
2020/01/31 08:17:24.2	314.680	-0.170	0.430	-0.390
2020/01/31 08:17:24.3	314.660	-0.170	0.420	-0.370
2020/01/31 08:17:24.4	314.630	-0.170	0.400	-0.360
2020/01/31 08:17:24.5	314.600	-0.160	0.390	-0.340
2020/01/31 08:17:24.6	314.570	-0.160	0.370	-0.320
2020/01/31 08:17:24.7	314.540	-0.160	0.340	-0.300
2020/01/31 08:17:24.8	314.500	-0.150	0.310	-0.290
2020/01/31 08:17:24.9	314.470	-0.140	0.280	-0.270
2020/01/31 08:17:25.0	314.440	-0.140	0.250	-0.260
2020/01/31 08:17:25.1	314.400	-0.130	0.210	-0.250
2020/01/31 08:17:25.2	314.370	-0.120	0.170	-0.250
2020/01/31 08:17:25.3	314.330	-0.110	0.130	-0.250
2020/01/31 08:17:25.4	314.300	-0.100	0.090	-0.250
2020/01/31 08:17:25.5	314.270	-0.080	0.040	-0.250
2020/01/31 08:17:25.6	314.240	-0.070	-0.010	-0.260
2020/01/31 08:17:25.7	314.210	-0.050	-0.060	-0.270
2020/01/31 08:17:25.8	314.190	-0.040	-0.110	-0.280
2020/01/31 08:17:25.9	314.160	-0.020	-0.170	-0.300
2020/01/31 08:17:26.0	314.140	-0.010	-0.230	-0.310
2020/01/31 08:17:26.1	314.120	0.010	-0.280	-0.330
2020/01/31 08:17:26.2	314.100	0.030	-0.340	-0.350
2020/01/31 08:17:26.3	314.080	0.050	-0.400	-0.380
2020/01/31 08:17:26.4	314.070	0.060	-0.450	-0.400
2020/01/31 08:17:26.5	314.060	0.080	-0.510	-0.420
2020/01/31 08:17:26.6	314.040	0.100	-0.560	-0.450
2020/01/31 08:17:26.7	314.030	0.120	-0.610	-0.470
2020/01/31 08:17:26.8	314.030	0.130	-0.660	-0.500
2020/01/31 08:17:26.9	314.020	0.150	-0.700	-0.520
2020/01/31 08:17:27.0	314.010	0.170	-0.750	-0.540
2020/01/31 08:17:27.1	314.010	0.180	-0.790	-0.560
2020/01/31 08:17:27.2	314.010	0.200	-0.820	-0.580
2020/01/31 08:17:27.3	314.000	0.210	-0.850	-0.600
2020/01/31 08:17:27.4	314.000	0.230	-0.880	-0.620
2020/01/31 08:17:27.5	314.000	0.240	-0.900	-0.630
2020/01/31 08:17:27.6	314.000	0.250	-0.920	-0.650
2020/01/31 08:17:27.7	314.000	0.260	-0.940	-0.660
2020/01/31 08:17:27.8	314.010	0.280	-0.950	-0.670
2020/01/31 08:17:27.9	314.010	0.290	-0.950	-0.670
2020/01/31 08:17:28.0	314.020	0.300	-0.950	-0.680
2020/01/31 08:17:28.1	314.030	0.310	-0.950	-0.680
2020/01/31 08:17:28.2	314.030	0.320	-0.950	-0.680
2020/01/31 08:17:28.3	314.040	0.330	-0.940	-0.690
2020/01/31 08:17:28.4	314.050	0.340	-0.930	-0.690
2020/01/31 08:17:28.5	314.060	0.350	-0.910	-0.680
2020/01/31 08:17:28.6	314.070	0.360	-0.890	-0.680
2020/01/31 08:17:28.7	314.080	0.360	-0.870	-0.670
2020/01/31 08:17:28.8	314.100	0.370	-0.850	-0.670
2020/01/31 08:17:28.9	314.110	0.380	-0.830	-0.660
2020/01/31 08:17:29.0	314.120	0.380	-0.810	-0.650
2020/01/31 08:17:29.1	314.140	0.390	-0.780	-0.640
2020/01/31 08:17:29.2	314.160	0.400	-0.760	-0.640
2020/01/31 08:17:29.3	314.180	0.400	-0.730	-0.620
2020/01/31 08:17:29.4	314.210	0.400	-0.710	-0.620
2020/01/31 08:17:29.5	314.230	0.410	-0.690	-0.610
2020/01/31 08:17:29.6	314.250	0.410	-0.670	-0.610
2020/01/31 08:17:29.7	314.280	0.410	-0.660	-0.610
2020/01/31 08:17:29.8	314.310	0.410	-0.640	-0.610
2020/01/31 08:17:29.9	314.340	0.400	-0.630	-0.610
2020/01/31 08:17:30.0	314.370	0.400	-0.610	-0.610
2020/01/31 08:17:30.1	314.410	0.390	-0.600	-0.620
2020/01/31 08:17:30.2	314.440	0.390	-0.590	-0.630
2020/01/31 08:17:30.3	314.470	0.380	-0.590	-0.630
2020/01/31 08:17:30.4	314.500	0.370	-0.580	-0.640
2020/01/31 08:17:30.5	314.540	0.350	-0.570	-0.650
2020/01/31 08:17:30.6	314.580	0.340	-0.570	-0.670
2020/01/31 08:17:30.7	314.620	0.320	-0.560	-0.680
2020/01/31 08:17:30.8	314.660	0.310	-0.550	-0.690
2020/01/31 08:17:30.9	314.700	0.290	-0.540	-0.700
2020/01/31 08:17:31.0	314.730	0.270	-0.530	-0.710
2020/01/31 08:17:31.1	314.770	0.240	-0.510	-0.720
2020/01/31 08:17:31.2	314.800	0.220	-0.500	-0.730
2020/01/31 08:17:31.3	314.830	0.190	-0.480	-0.740
2020/01/31 08:17:31.4	314.860	0.160	-0.450	-0.740
2020/01/31 08:17:31.5	314.880	0.130	-0.430	-0.750
2020/01/31 08:17:31.6	314.910	0.100	-0.400	-0.750
2020/01/31 08:17:31.7	314.930	0.060	-0.360	-0.750
2020/01/31 08:17:31.8	314.940	0.030	-0.320	-0.740
2020/01/31 08:17:31.9	314.960	-0.010	-0.280	-0.740
2020/01/31 08:17:32.0	314.970	-0.050	-0.240	-0.730
2020/01/31 08:17:32.1	314.980	-0.080	-0.190	-0.720
2020/01/31 08:17:32.2	314.980	-0.120	-0.140	-0.710
2020/01/31 08:17:32.3	315.000	-0.160	-0.090	-0.690
2020/01/31 08:17:32.4	315.000	-0.200	-0.030	-0.680
2020/01/31 08:17:32.5	314.990	-0.240	0.020	-0.660
2020/01/31 08:17:32.6	314.990	-0.280	0.080	-0.640
2020/01/31 08:17:32.7	314.980	-0.320	0.140	-0.630
2020/01/31 08:17:32.8	314.960	-0.360	0.190	-0.600
2020/01/31 08:17:32.9	314.950	-0.400	0.250	-0.580
2020/01/31 08:17:33.0	314.930	-0.440	0.300	-0.560
2020/01/31 08:17:33.1	314.910	-0.480	0.350	-0.540
2020/01/31 08:17:33.2	314.880	-0.510	0.400	-0.520
2020/01/31 08:17:33.3	314.870	-0.540	0.450	-0.490
2020/01/31 08:17:33.4	314.840	-0.570	0.490	-0.470
2020/01/31 08:17:33.5	314.810	-0.600	0.530	-0.450
2020/01/31 08:17:33.6	314.780	-0.630	0.560	-0.420
2020/01/31 08:17:33.7	314.760	-0.650	0.590	-0.400
2020/01/31 08:17:33.8	314.730	-0.670	0.610	-0.380
2020/01/31 08:17:33.9	314.700	-0.680	0.630	-0.360
2020/01/31 08:17:34.0	314.670	-0.700	0.640	-0.340
2020/01/31 08:17:34.1	314.640	-0.710	0.640	-0.330
2020/01/31 08:17:34.2	314.610	-0.710	0.650	-0.310
2020/01/31 08:17:34.3	314.580	-0.710	0.640	-0.300
2020/01/31 08:17:34.4	314.560	-0.710	0.630	-0.290
2020/01/31 08:17:34.5	314.530	-0.700	0.610	-0.280
2020/01/31 08:17:34.6	314.510	-0.690	0.590	-0.270
2020/01/31 08:17:34.7	314.490	-0.680	0.570	-0.270
2020/01/31 08:17:34.8	314.460	-0.660	0.540	-0.260
2020/01/31 08:17:34.9	314.440	-0.640	0.500	-0.260
2020/01/31 08:17:35.0	314.420	-0.610	0.460	-0.260
2020/01/31 08:17:35.1	314.400	-0.590	0.420	-0.260
2020/01/31 08:17:35.2	314.390	-0.550	0.380	-0.260
2020/01/31 08:17:35.3	314.350	-0.520	0.330	-0.270
2020/01/31 08:17:35.4	314.340	-0.490	0.280	-0.280
2020/01/31 08:17:35.5	314.320	-0.450	0.230	-0.280
2020/01/31 08:17:35.6	314.310	-0.410	0.180	-0.290
2020/01/31 08:17:35.7	314.290	-0.370	0.130	-0.290
2020/01/31 08:17:35.8	314.280	-0.320	0.080	-0.300
2020/01/31 08:17:35.9	314.260	-0.280	0.030	-0.310
2020/01/31 08:17:36.0	314.250	-0.240	-0.020	-0.320
2020/01/31 08:17:36.1	314.240	-0.190	-0.070	-0.330
2020/01/31 08:17:36.2	314.240	-0.150	-0.120	-0.340
2020/01/31 08:17:36.3	314.230	-0.100	-0.170	-0.350
2020/01/31 08:17:36.4	314.220	-0.060	-0.210	-0.350
2020/01/31 08:17:36.5	314.220	-0.020	-0.250	-0.360
2020/01/31 08:17:36.6	314.210	0.030	-0.290	-0.370
2020/01/31 08:17:36.7	314.210	0.070	-0.330	-0.380
2020/01/31 08:17:36.8	314.210	0.110	-0.370	-0.390
2020/01/31 08:17:36.9	314.220	0.140	-0.400	-0.390
2020/01/31 08:17:37.0	314.220	0.180	-0.430	-0.400
2020/01/31 08:17:37.1	314.230	0.210	-0.460	-0.410
2020/01/31 08:17:37.2	314.240	0.250	-0.490	-0.410
2020/01/31 08:17:37.3	314.250	0.280	-0.520	-0.420
2020/01/31 08:17:37.4	314.260	0.310	-0.540	-0.430
2020/01/31 08:17:37.5	314.280	0.330	-0.560	-0.430
2020/01/31 08:17:37.6	314.300	0.360	-0.580	-0.430
2020/01/31 08:17:37.7	314.320	0.380	-0.590	-0.430
2020/01/31 08:17:37.8	314.340	0.400	-0.600	-0.440
2020/01/31 08:17:37.9	314.370	0.420	-0.620	-0.440
2020/01/31 08:17:38.0	314.390	0.430	-0.620	-0.440
2020/01/31 08:17:38.1	314.420	0.450	-0.630	-0.430
2020/01/31 08:17:38.2	314.450	0.460	-0.630	-0.430
2020/01/31 08:17:38.3	314.470	0.470	-0.630	-0.430
2020/01/31 08:17:38.4	314.500	0.470	-0.630	-0.420
2020/01/31 08:17:38.5	314.530	0.480	-0.620	-0.420
2020/01/31 08:17:38.6	314.570	0.480	-0.620	-0.420
2020/01/31 08:17:38.7	314.600	0.490	-0.610	-0.410
2020/01/31 08:17:38.8	314.630	0.490	-0.600	-0.400
2020/01/31 08:17:38.9	314.660	0.480	-0.590	-0.390
2020/01/31 08:17:39.0	314.680	0.480	-0.580	-0.380
2020/01/31 08:17:39.1	314.710	0.480	-0.570	-0.370
2020/01/31 08:17:39.2	314.740	0.470	-0.550	-0.360
2020/01/31 08:17:39.3	314.770	0.460	-0.540	-0.340
2020/01/31 08:17:39.4	314.790	0.450	-0.520	-0.330
2020/01/31 08:17:39.5	314.820	0.440	-0.510	-0.310
2020/01/31 08:17:39.6	314.840	0.430	-0.490	-0.290
2020/01/31 08:17:39.7	314.860	0.420	-0.480	-0.270
2020/01/31 08:17:39.8	314.880	0.410	-0.460	-0.250
2020/01/31 08:17:39.9	314.890	0.390	-0.440	-0.230
2020/01/31 08:17:40.0	314.910	0.380	-0.430	-0.200
2020/01/31 08:17:40.1	314.920	0.360	-0.410	-0.180
2020/01/31 08:17:40.2	314.930	0.350	-0.400	-0.160
2020/01/31 08:17:40.3	314.940	0.330	-0.380	-0.130
2020/01/31 08:17:40.4	314.940	0.310	-0.370	-0.110
2020/01/31 08:17:40.5	314.940	0.290	-0.350	-0.080
2020/01/31 08:17:40.6	314.950	0.270	-0.340	-0.060
2020/01/31 08:17:40.7	314.950	0.250	-0.330	-0.040
2020/01/31 08:17:40.8	314.950	0.230	-0.330	-0.020
2020/01/31 08:17:40.9	314.940	0.210	-0.320	-0.010
2020/01/31 08:17:41.0	314.940	0.190	-0.310	0.010
2020/01/31 08:17:41.1	314.940	0.160	-0.310	0.030
2020/01/31 08:17:41.2	314.930	0.140	-0.300	0.040
2020/01/31 08:17:41.3	314.920	0.120	-0.300	0.050
2020/01/31 08:17:41.4	314.910	0.100	-0.300	0.050
2020/01/31 08:17:41.5	314.910	0.080	-0.300	0.060
2020/01/31 08:17:41.6	314.900	0.060	-0.300	0.070
2020/01/31 08:17:41.7	314.890	0.040	-0.300	0.070
2020/01/31 08:17:41.8	314.880	0.020	-0.300	0.070
2020/01/31 08:17:41.9	314.870	0.000	-0.300	0.070
2020/01/31 08:17:42.0	314.860	-0.010	-0.300	0.060
2020/01/31 08:17:42.1	314.850	-0.030	-0.300	0.060
2020/01/31 08:17:42.2	314.840	-0.040	-0.300	0.050
2020/01/31 08:17:42.3	314.820	-0.060	-0.290	0.050
2020/01/31 08:17:42.4	314.810	-0.070	-0.290	0.040
2020/01/31 08:17:42.5	314.790	-0.080	-0.290	0.030
2020/01/31 08:17:42.6	314.780	-0.100	-0.280	0.020
2020/01/31 08:17:42.7	314.760	-0.100	-0.280	0.000
2020/01/31 08:17:42.8	314.740	-0.110	-0.270	-0.010
2020/01/31 08:17:42.9	314.730	-0.120	-0.260	-0.020
2020/01/31 08:17:43.0	314.710	-0.130	-0.260	-0.040
2020/01/31 08:17:43.1	314.690	-0.130	-0.250	-0.060
2020/01/31 08:17:43.2	314.670	-0.130	-0.240	-0.080
2020/01/31 08:17:43.3	314.660	-0.140	-0.230	-0.100
2020/01/31 08:17:43.4	314.640	-0.140	-0.220	-0.120
2020/01/31 08:17:43.5	314.630	-0.140	-0.210	-0.140
2020/01/31 08:17:43.6	314.610	-0.140	-0.210	-0.170
2020/01/31 08:17:43.7	314.600	-0.130	-0.210	-0.190
2020/01/31 08:17:43.8	314.590	-0.130	-0.210	-0.220
2020/01/31 08:17:43.9	314.580	-0.130	-0.210	-0.250
2020/01/31 08:17:44.0	314.570	-0.120	-0.210	-0.290
2020/01/31 08:17:44.1	314.570	-0.120	-0.220	-0.330
2020/01/31 08:17:44.2	314.570	-0.120	-0.230	-0.370
2020/01/31 08:17:44.3	314.570	-0.110	-0.240	-0.410
2020/01/31 08:17:44.4	314.580	-0.110	-0.250	-0.460
2020/01/31 08:17:44.5	314.590	-0.100	-0.270	-0.510
2020/01/31 08:17:44.6	314.600	-0.100	-0.290	-0.570
2020/01/31 08:17:44.7	314.620	-0.090	-0.310	-0.630
2020/01/31 08:17:44.8	314.640	-0.090	-0.330	-0.690
2020/01/31 08:17:44.9	314.660	-0.080	-0.360	-0.750
2020/01/31 08:17:45.0	314.680	-0.080	-0.380	-0.810
2020/01/31 08:17:45.1	314.700	-0.080	-0.410	-0.870
2020/01/31 08:17:45.2	314.730	-0.070	-0.430	-0.930
2020/01/31 08:17:45.3	314.750	-0.070	-0.460	-1.000
2020/01/31 08:17:45.4	314.780	-0.070	-0.480	-1.060
2020/01/31 08:17:45.5	314.810	-0.070	-0.510	-1.120
2020/01/31 08:17:45.6	314.830	-0.070	-0.530	-1.180
2020/01/31 08:17:45.7	314.860	-0.070	-0.540	-1.230
2020/01/31 08:17:45.8	314.890	-0.070	-0.560	-1.280
2020/01/31 08:17:45.9	314.920	-0.080	-0.570	-1.330
2020/01/31 08:17:46.0	314.950	-0.080	-0.580	-1.370
2020/01/31 08:17:46.1	314.970	-0.090	-0.580	-1.420
2020/01/31 08:17:46.2	315.000	-0.090	-0.590	-1.450
2020/01/31 08:17:46.3	315.030	-0.100	-0.580	-1.490
2020/01/31 08:17:46.4	315.060	-0.110	-0.580	-1.510
2020/01/31 08:17:46.5	315.080	-0.110	-0.560	-1.540
2020/01/31 08:17:46.6	315.100	-0.120	-0.550	-1.560
2020/01/31 08:17:46.7	315.120	-0.130	-0.530	-1.580
2020/01/31 08:17:46.8	315.140	-0.140	-0.510	-1.590
2020/01/31 08:17:46.9	315.170	-0.150	-0.480	-1.600
2020/01/31 08:17:47.0	315.180	-0.160	-0.450	-1.600
2020/01/31 08:17:47.1	315.200	-0.170	-0.420	-1.600
2020/01/31 08:17:47.2	315.220	-0.180	-0.380	-1.600
2020/01/31 08:17:47.3	315.250	-0.190	-0.340	-1.590
2020/01/31 08:17:47.4	315.260	-0.210	-0.300	-1.580
2020/01/31 08:17:47.5	315.280	-0.220	-0.260	-1.570
2020/01/31 08:17:47.6	315.300	-0.230	-0.210	-1.550
2020/01/31 08:17:47.7	315.320	-0.240	-0.170	-1.530
2020/01/31 08:17:47.8	315.340	-0.240	-0.120	-1.510
2020/01/31 08:17:47.9	315.360	-0.250	-0.080	-1.490
2020/01/31 08:17:48.0	315.380	-0.260	-0.030	-1.460
2020/01/31 08:17:48.1	315.400	-0.270	0.010	-1.430
2020/01/31 08:17:48.2	315.420	-0.270	0.050	-1.400
2020/01/31 08:17:48.3	315.450	-0.270	0.090	-1.360
2020/01/31 08:17:48.4	315.470	-0.280	0.140	-1.330
2020/01/31 08:17:48.5	315.480	-0.280	0.180	-1.280
2020/01/31 08:17:48.6	315.500	-0.280	0.220	-1.240
2020/01/31 08:17:48.7	315.510	-0.280	0.260	-1.190
2020/01/31 08:17:48.8	315.520	-0.280	0.290	-1.140
2020/01/31 08:17:48.9	315.530	-0.270	0.330	-1.080
2020/01/31 08:17:49.0	315.530	-0.270	0.360	-1.030
2020/01/31 08:17:49.1	315.530	-0.260	0.400	-0.970
2020/01/31 08:17:49.2	315.530	-0.260	0.430	-0.900
2020/01/31 08:17:49.3	315.530	-0.250	0.460	-0.830
2020/01/31 08:17:49.4	315.520	-0.240	0.490	-0.760
2020/01/31 08:17:49.5	315.510	-0.230	0.520	-0.690
2020/01/31 08:17:49.6	315.490	-0.220	0.540	-0.620
2020/01/31 08:17:49.7	315.470	-0.210	0.560	-0.550
2020/01/31 08:17:49.8	315.450	-0.190	0.570	-0.480
2020/01/31 08:17:49.9	315.430	-0.180	0.590	-0.400
2020/01/31 08:17:50.0	315.400	-0.160	0.600	-0.330
2020/01/31 08:17:50.1	315.380	-0.150	0.600	-0.260
2020/01/31 08:17:50.2	315.350	-0.130	0.600	-0.180
2020/01/31 08:17:50.3	315.320	-0.110	0.600	-0.110
2020/01/31 08:17:50.4	315.280	-0.090	0.590	-0.040
2020/01/31 08:17:50.5	315.250	-0.070	0.580	0.020
2020/01/31 08:17:50.6	315.210	-0.050	0.560	0.090
2020/01/31 08:17:50.7	315.180	-0.030	0.530	0.150
2020/01/31 08:17:50.8	315.140	-0.010	0.500	0.200
2020/01/31 08:17:50.9	315.110	0.010	0.460	0.260
2020/01/31 08:17:51.0	315.070	0.030	0.420	0.300
2020/01/31 08:17:51.1	315.030	0.050	0.380	0.350
2020/01/31 08:17:51.2	315.000	0.070	0.330	0.390
2020/01/31 08:17:51.3	314.970	0.100	0.270	0.420
2020/01/31 08:17:51.4	314.930	0.120	0.210	0.450
2020/01/31 08:17:51.5	314.900	0.140	0.150	0.470
2020/01/31 08:17:51.6	314.880	0.160	0.080	0.480
2020/01/31 08:17:51.7	314.850	0.190	0.010	0.490
2020/01/31 08:17:51.8	314.830	0.210	-0.060	0.500
2020/01/31 08:17:51.9	314.810	0.230	-0.130	0.500
2020/01/31 08:17:52.0	314.790	0.250	-0.210	0.490
2020/01/31 08:17:52.1	314.780	0.270	-0.280	0.480
2020/01/31 08:17:52.2	314.760	0.290	-0.360	0.470
2020/01/31 08:17:52.3	314.750	0.310	-0.440	0.450
2020/01/31 08:17:52.4	314.740	0.330	-0.510	0.430
2020/01/31 08:17:52.5	314.740	0.350	-0.580	0.400
2020/01/31 08:17:52.6	314.730	0.370	-0.650	0.380
2020/01/31 08:17:52.7	314.740	0.390	-0.720	0.350
2020/01/31 08:17:52.8	314.740	0.400	-0.780	0.320
2020/01/31 08:17:52.9	314.740	0.420	-0.840	0.290
2020/01/31 08:17:53.0	314.750	0.430	-0.890	0.250
2020/01/31 08:17:53.1	314.760	0.440	-0.940	0.220
2020/01/31 08:17:53.2	314.770	0.450	-0.980	0.180
2020/01/31 08:17:53.3	314.780	0.460	-1.020	0.140
2020/01/31 08:17:53.4	314.800	0.460	-1.050	0.100
2020/01/31 08:17:53.5	314.810	0.460	-1.070	0.060
2020/01/31 08:17:53.6	314.820	0.460	-1.090	0.020
2020/01/31 08:17:53.7	314.840	0.460	-1.100	-0.020
2020/01/31 08:17:53.8	314.850	0.460	-1.110	-0.060
2020/01/31 08:17:53.9	314.870	0.450	-1.110	-0.110
2020/01/31 08:17:54.0	314.880	0.440	-1.100	-0.150
2020/01/31 08:17:54.1	314.900	0.430	-1.090	-0.190
2020/01/31 08:17:54.2	314.910	0.420	-1.080	-0.230
2020/01/31 08:17:54.3	314.930	0.400	-1.060	-0.270
2020/01/31 08:17:54.4	314.940	0.390	-1.030	-0.320
2020/01/31 08:17:54.5	314.960	0.370	-1.010	-0.360
2020/01/31 08:17:54.6	314.970	0.340	-0.970	-0.400
2020/01/31 08:17:54.7	314.980	0.320	-0.940	-0.440
2020/01/31 08:17:54.8	315.000	0.300	-0.910	-0.470
2020/01/31 08:17:54.9	315.010	0.270	-0.870	-0.510
2020/01/31 08:17:55.0	315.030	0.240	-0.830	-0.550
2020/01/31 08:17:55.1	315.040	0.220	-0.790	-0.580
2020/01/31 08:17:55.2	315.060	0.190	-0.750	-0.620
2020/01/31 08:17:55.3	315.060	0.160	-0.700	-0.660
2020/01/31 08:17:55.4	315.080	0.130	-0.660	-0.690
2020/01/31 08:17:55.5	315.090	0.100	-0.620	-0.720
2020/01/31 08:17:55.6	315.110	0.070	-0.580	-0.750
2020/01/31 08:17:55.7	315.120	0.040	-0.540	-0.770
2020/01/31 08:17:55.8	315.140	0.010	-0.500	-0.800
2020/01/31 08:17:55.9	315.150	-0.020	-0.460	-0.820
2020/01/31 08:17:56.0	315.160	-0.040	-0.420	-0.840
2020/01/31 08:17:56.1	315.170	-0.070	-0.390	-0.850
2020/01/31 08:17:56.2	315.170	-0.100	-0.350	-0.870
2020/01/31 08:17:56.3	315.180	-0.120	-0.320	-0.880
2020/01/31 08:17:56.4	315.190	-0.150	-0.290	-0.880
2020/01/31 08:17:56.5	315.190	-0.170	-0.260	-0.890
2020/01/31 08:17:56.6	315.190	-0.190	-0.240	-0.890
2020/01/31 08:17:56.7	315.190	-0.210	-0.210	-0.890
2020/01/31 08:17:56.8	315.190	-0.230	-0.190	-0.880
2020/01/31 08:17:56.9	315.180	-0.240	-0.170	-0.870
2020/01/31 08:17:57.0	315.180	-0.260	-0.160	-0.860
2020/01/31 08:17:57.1	315.170	-0.270	-0.140	-0.850
2020/01/31 08:17:57.2	315.170	-0.280	-0.130	-0.830
2020/01/31 08:17:57.3	315.170	-0.290	-0.120	-0.820
2020/01/31 08:17:57.4	315.160	-0.300	-0.120	-0.800
2020/01/31 08:17:57.5	315.160	-0.300	-0.120	-0.790
2020/01/31 08:17:57.6	315.160	-0.310	-0.120	-0.780
2020/01/31 08:17:57.7	315.160	-0.310	-0.130	-0.760
2020/01/31 08:17:57.8	315.160	-0.310	-0.140	-0.750
2020/01/31 08:17:57.9	315.170	-0.310	-0.150	-0.740
2020/01/31 08:17:58.0	315.170	-0.310	-0.160	-0.730
2020/01/31 08:17:58.1	315.180	-0.300	-0.180	-0.730
2020/01/31 08:17:58.2	315.190	-0.300	-0.200	-0.730
2020/01/31 08:17:58.3	315.210	-0.290	-0.220	-0.730
2020/01/31 08:17:58.4	315.220	-0.280	-0.240	-0.730
2020/01/31 08:17:58.5	315.240	-0.270	-0.260	-0.730
2020/01/31 08:17:58.6	315.260	-0.260	-0.290	-0.740
2020/01/31 08:17:58.7	315.280	-0.250	-0.310	-0.740
2020/01/31 08:17:58.8	315.300	-0.240	-0.330	-0.750
2020/01/31 08:17:58.9	315.330	-0.230	-0.350	-0.760
2020/01/31 08:17:59.0	315.350	-0.220	-0.370	-0.770
2020/01/31 08:17:59.1	315.370	-0.210	-0.390	-0.770
2020/01/31 08:17:59.2	315.400	-0.200	-0.400	-0.780
2020/01/31 08:17:59.3	315.420	-0.190	-0.410	-0.780
2020/01/31 08:17:59.4	315.440	-0.180	-0.420	-0.780
2020/01/31 08:17:59.5	315.460	-0.160	-0.420	-0.780
2020/01/31 08:17:59.6	315.480	-0.150	-0.420	-0.770
2020/01/31 08:17:59.7	315.500	-0.140	-0.410	-0.760
2020/01/31 08:17:59.8	315.510	-0.140	-0.400	-0.750
2020/01/31 08:17:59.9	315.520	-0.130	-0.380	-0.740
2020/01/31 08:18:00.0	315.540	-0.120	-0.350	-0.720
2020/01/31 08:18:00.1	315.540	-0.110	-0.320	-0.700
2020/01/31 08:18:00.2	315.550	-0.100	-0.290	-0.670
2020/01/31 08:18:00.3	315.540	-0.090	-0.250	-0.650
2020/01/31 08:18:00.4	315.550	-0.090	-0.210	-0.620
2020/01/31 08:18:00.5	315.550	-0.080	-0.170	-0.590
2020/01/31 08:18:00.6	315.550	-0.080	-0.120	-0.550
2020/01/31 08:18:00.7	315.550	-0.070	-0.070	-0.520
2020/01/31 08:18:00.8	315.550	-0.070	-0.010	-0.480
2020/01/31 08:18:00.9	315.550	-0.060	0.040	-0.440
2020/01/31 08:18:01.0	315.550	-0.060	0.100	-0.400
2020/01/31 08:18:01.1	315.540	-0.050	0.150	-0.360
2020/01/31 08:18:01.2	315.540	-0.040	0.210	-0.320
2020/01/31 08:18:01.3	315.530	-0.040	0.270	-0.280
2020/01/31 08:18:01.4	315.520	-0.030	0.320	-0.240
2020/01/31 08:18:01.5	315.510	-0.030	0.370	-0.190
2020/01/31 08:18:01.6	315.490	-0.020	0.420	-0.150
2020/01/31 08:18:01.7	315.480	-0.010	0.470	-0.100
2020/01/31 08:18:01.8	315.460	-0.000	0.510	-0.060
2020/01/31 08:18:01.9	315.440	0.000	0.550	-0.010
2020/01/31 08:18:02.0	315.420	0.010	0.580	0.040
2020/01/31 08:18:02.1	315.400	0.020	0.610	0.080
2020/01/31 08:18:02.2	315.380	0.030	0.640	0.130
2020/01/31 08:18:02.3	315.360	0.040	0.660	0.180
2020/01/31 08:18:02.4	315.340	0.050	0.670	0.230
2020/01/31 08:18:02.5	315.310	0.060	0.680	0.270
2020/01/31 08:18:02.6	315.280	0.080	0.690	0.310
2020/01/31 08:18:02.7	315.250	0.090	0.690	0.350
2020/01/31 08:18:02.8	315.220	0.100	0.680	0.390
2020/01/31 08:18:02.9	315.180	0.110	0.670	0.430
2020/01/31 08:18:03.0	315.150	0.130	0.660	0.460
2020/01/31 08:18:03.1	315.110	0.140	0.630	0.490
2020/01/31 08:18:03.2	315.080	0.150	0.610	0.510
2020/01/31 08:18:03.3	315.040	0.170	0.570	0.530
2020/01/31 08:18:03.4	315.000	0.180	0.540	0.550
2020/01/31 08:18:03.5	314.970	0.190	0.490	0.560
2020/01/31 08:18:03.6	314.930	0.210	0.450	0.560
2020/01/31 08:18:03.7	314.890	0.220	0.390	0.560
2020/01/31 08:18:03.8	314.860	0.230	0.340	0.560
2020/01/31 08:18:03.9	314.820	0.240	0.280	0.550
2020/01/31 08:18:04.0	314.790	0.250	0.220	0.530
2020/01/31 08:18:04.1	314.760	0.260	0.150	0.500
2020/01/31 08:18:04.2	314.730	0.270	0.080	0.480
2020/01/31 08:18:04.3	314.690	0.280	0.010	0.440
2020/01/31 08:18:04.4	314.660	0.290	-0.070	0.400
2020/01/31 08:18:04.5	314.640	0.290	-0.140	0.350
2020/01/31 08:18:04.6	314.620	0.290	-0.220	0.310
2020/01/31 08:18:04.7	314.600	0.300	-0.290	0.250
2020/01/31 08:18:04.8	314.590	0.300	-0.370	0.200
2020/01/31 08:18:04.9	314.580	0.300	-0.450	0.140
2020/01/31 08:18:05.0	314.570	0.300	-0.530	0.070
2020/01/31 08:18:05.1	314.570	0.300	-0.600	0.010
2020/01/31 08:18:05.2	314.560	0.290	-0.670	-0.060
2020/01/31 08:18:05.3	314.560	0.290	-0.740	-0.130
2020/01/31 08:18:05.4	314.560	0.280	-0.810	-0.210
2020/01/31 08:18:05.5	314.570	0.270	-0.870	-0.280
2020/01/31 08:18:05.6	314.570	0.260	-0.930	-0.350
2020/01/31 08:18:05.7	314.580	0.250	-0.990	-0.430
2020/01/31 08:18:05.8	314.590	0.240	-1.040	-0.500
2020/01/31 08:18:05.9	314.600	0.230	-1.090	-0.570
2020/01/31 08:18:06.0	314.620	0.210	-1.130	-0.650
2020/01/31 08:18:06.1	314.630	0.200	-1.160	-0.720
2020/01/31 08:18:06.2	314.650	0.180	-1.190	-0.780
2020/01/31 08:18:06.3	314.690	0.160	-1.210	-0.850
2020/01/31 08:18:06.4	314.710	0.150	-1.230	-0.920
2020/01/31 08:18:06.5	314.730	0.130	-1.240	-0.980
2020/01/31 08:18:06.6	314.750	0.110	-1.250	-1.030
2020/01/31 08:18:06.7	314.780	0.090	-1.240	-1.090
2020/01/31 08:18:06.8	314.800	0.070	-1.240	-1.140
2020/01/31 08:18:06.9	314.830	0.050	-1.230	-1.190
2020/01/31 08:18:07.0	314.850	0.040	-1.210	-1.230
2020/01/31 08:18:07.1	314.880	0.020	-1.180	-1.270
2020/01/31 08:18:07.2	314.910	-0.000	-1.160	-1.310
2020/01/31 08:18:07.3	314.930	-0.020	-1.120	-1.340
2020/01/31 08:18:07.4	314.960	-0.040	-1.090	-1.370
2020/01/31 08:18:07.5	314.990	-0.050	-1.050	-1.390
2020/01/31 08:18:07.6	315.020	-0.070	-1.000	-1.410
2020/01/31 08:18:07.7	315.050	-0.080	-0.960	-1.430
2020/01/31 08:18:07.8	315.080	-0.100	-0.910	-1.440
2020/01/31 08:18:07.9	315.110	-0.110	-0.860	-1.450
2020/01/31 08:18:08.0	315.140	-0.130	-0.810	-1.450
2020/01/31 08:18:08.1	315.170	-0.140	-0.750	-1.450
2020/01/31 08:18:08.2	315.200	-0.160	-0.700	-1.450
2020/01/31 08:18:08.3	315.230	-0.170	-0.650	-1.440
2020/01/31 08:18:08.4	315.260	-0.190	-0.590	-1.430
2020/01/31 08:18:08.5	315.280	-0.200	-0.540	-1.410
2020/01/31 08:18:08.6	315.310	-0.210	-0.490	-1.400
2020/01/31 08:18:08.7	315.330	-0.220	-0.440	-1.380
2020/01/31 08:18:08.8	315.360	-0.240	-0.390	-1.360
2020/01/31 08:18:08.9	315.380	-0.250	-0.340	-1.330
2020/01/31 08:18:09.0	315.400	-0.260	-0.290	-1.300
2020/01/31 08:18:09.1	315.420	-0.270	-0.250	-1.270
2020/01/31 08:18:09.2	315.440	-0.280	-0.210	-1.240
2020/01/31 08:18:09.3	315.450	-0.280	-0.170	-1.210
2020/01/31 08:18:09.4	315.470	-0.290	-0.130	-1.170
2020/01/31 08:18:09.5	315.480	-0.300	-0.100	-1.140
2020/01/31 08:18:09.6	315.500	-0.300	-0.070	-1.100
2020/01/31 08:18:09.7	315.510	-0.310	-0.040	-1.060
2020/01/31 08:18:09.8	315.520	-0.310	-0.020	-1.020
2020/01/31 08:18:09.9	315.530	-0.310	0.010	-0.970
2020/01/31 08:18:10.0	315.530	-0.320	0.030	-0.930
2020/01/31 08:18:10.1	315.540	-0.310	0.040	-0.890
2020/01/31 08:18:10.2	315.540	-0.310	0.060	-0.840
2020/01/31 08:18:10.3	315.540	-0.310	0.070	-0.800
2020/01/31 08:18:10.4	315.540	-0.300	0.080	-0.760
2020/01/31 08:18:10.5	315.540	-0.300	0.090	-0.710
2020/01/31 08:18:10.6	315.540	-0.290	0.100	-0.670
2020/01/31 08:18:10.7	315.530	-0.280	0.100	-0.620
2020/01/31 08:18:10.8	315.520	-0.270	0.110	-0.570
2020/01/31 08:18:10.9	315.510	-0.260	0.110	-0.520
2020/01/31 08:18:11.0	315.500	-0.240	0.120	-0.470
2020/01/31 08:18:11.1	315.480	-0.230	0.120	-0.420
2020/01/31 08:18:11.2	315.460	-0.210	0.120	-0.370
2020/01/31 08:18:11.3	315.440	-0.190	0.130	-0.320
2020/01/31 08:18:11.4	315.420	-0.180	0.130	-0.270
2020/01/31 08:18:11.5	315.390	-0.160	0.130	-0.210
2020/01/31 08:18:11.6	315.360	-0.140	0.140	-0.160
2020/01/31 08:18:11.7	315.330	-0.120	0.140	-0.110
2020/01/31 08:18:11.8	315.300	-0.100	0.140	-0.060
2020/01/31 08:18:11.9	315.270	-0.070	0.140	-0.010
2020/01/31 08:18:12.0	315.230	-0.050	0.140	0.040
2020/01/31 08:18:12.1	315.200	-0.030	0.140	0.090
2020/01/31 08:18:12.2	315.160	-0.010	0.140	0.140
2020/01/31 08:18:12.3	315.120	0.010	0.140	0.190
2020/01/31 08:18:12.4	315.090	0.030	0.140	0.230
2020/01/31 08:18:12.5	315.050	0.060	0.140	0.270
2020/01/31 08:18:12.6	315.010	0.080	0.130	0.300
2020/01/31 08:18:12.7	314.970	0.100	0.130	0.340
2020/01/31 08:18:12.8	314.940	0.120	0.120	0.370
2020/01/31 08:18:12.9	314.900	0.140	0.110	0.390
2020/01/31 08:18:13.0	314.860	0.150	0.100	0.410
2020/01/31 08:18:13.1	314.820	0.170	0.090	0.430
2020/01/31 08:18:13.2	314.790	0.190	0.080	0.440
2020/01/31 08:18:13.3	314.750	0.200	0.070	0.450
2020/01/31 08:18:13.4	314.710	0.210	0.050	0.460
2020/01/31 08:18:13.5	314.680	0.220	0.040	0.460
2020/01/31 08:18:13.6	314.640	0.230	0.020	0.460
2020/01/31 08:18:13.7	314.610	0.240	0.000	0.450
2020/01/31 08:18:13.8	314.580	0.250	-0.010	0.440
2020/01/31 08:18:13.9	314.540	0.250	-0.030	0.430
2020/01/31 08:18:14.0	314.510	0.250	-0.060	0.410
2020/01/31 08:18:14.1	314.480	0.260	-0.080	0.390
2020/01/31 08:18:14.2	314.460	0.250	-0.100	0.360
2020/01/31 08:18:14.3	314.430	0.250	-0.130	0.330
2020/01/31 08:18:14.4	314.410	0.250	-0.150	0.300
2020/01/31 08:18:14.5	314.390	0.240	-0.180	0.260
2020/01/31 08:18:14.6	314.370	0.230	-0.200	0.220
2020/01/31 08:18:14.7	314.360	0.220	-0.230	0.180
2020/01/31 08:18:14.8	314.350	0.210	-0.250	0.140
2020/01/31 08:18:14.9	314.340	0.200	-0.280	0.090
2020/01/31 08:18:15.0	314.330	0.190	-0.310	0.040
2020/01/31 08:18:15.1	314.330	0.170	-0.330	-0.010
2020/01/31 08:18:15.2	314.330	0.160	-0.360	-0.060
2020/01/31 08:18:15.3	314.330	0.140	-0.390	-0.120
2020/01/31 08:18:15.4	314.330	0.130	-0.410	-0.170
2020/01/31 08:18:15.5	314.340	0.110	-0.430	-0.230
2020/01/31 08:18:15.6	314.350	0.090	-0.450	-0.280
2020/01/31 08:18:15.7	314.350	0.070	-0.470	-0.330
2020/01/31 08:18:15.8	314.360	0.060	-0.490	-0.380
2020/01/31 08:18:15.9	314.370	0.040	-0.500	-0.430
2020/01/31 08:18:16.0	314.380	0.020	-0.510	-0.480
2020/01/31 08:18:16.1	314.390	0.000	-0.520	-0.520
2020/01/31 08:18:16.2	314.400	-0.010	-0.530	-0.570
2020/01/31 08:18:16.3	314.420	-0.030	-0.520	-0.610
2020/01/31 08:18:16.4	314.430	-0.050	-0.520	-0.640
2020/01/31 08:18:16.5	314.450	-0.060	-0.520	-0.680
2020/01/31 08:18:16.6	314.460	-0.080	-0.520	-0.710
2020/01/31 08:18:16.7	314.470	-0.090	-0.510	-0.740
2020/01/31 08:18:16.8	314.490	-0.100	-0.500	-0.770
2020/01/31 08:18:16.9	314.500	-0.110	-0.490	-0.790
2020/01/31 08:18:17.0	314.520	-0.120	-0.480	-0.810
2020/01/31 08:18:17.1	314.530	-0.130	-0.470	-0.830
2020/01/31 08:18:17.2	314.550	-0.140	-0.450	-0.840
2020/01/31 08:18:17.3	314.560	-0.140	-0.440	-0.850
2020/01/31 08:18:17.4	314.580	-0.150	-0.420	-0.860
2020/01/31 08:18:17.5	314.590	-0.150	-0.410	-0.870
2020/01/31 08:18:17.6	314.610	-0.150	-0.390	-0.870
2020/01/31 08:18:17.7	314.620	-0.150	-0.370	-0.870
2020/01/31 08:18:17.8	314.640	-0.150	-0.350	-0.870
2020/01/31 08:18:17.9	314.650	-0.150	-0.340	-0.860
2020/01/31 08:18:18.0	314.670	-0.150	-0.320	-0.860
2020/01/31 08:18:18.1	314.680	-0.140	-0.300	-0.850
2020/01/31 08:18:18.2	314.700	-0.130	-0.290	-0.840
2020/01/31 08:18:18.3	314.710	-0.130	-0.270	-0.820
2020/01/31 08:18:18.4	314.730	-0.120	-0.250	-0.810
2020/01/31 08:18:18.5	314.740	-0.110	-0.240	-0.790
2020/01/31 08:18:18.6	314.760	-0.100	-0.230	-0.780
2020/01/31 08:18:18.7	314.770	-0.090	-0.220	-0.760
2020/01/31 08:18:18.8	314.790	-0.080	-0.210	-0.740
2020/01/31 08:18:18.9	314.800	-0.070	-0.210	-0.730
2020/01/31 08:18:19.0	314.820	-0.050	-0.210	-0.710
2020/01/31 08:18:19.1	314.830	-0.040	-0.200	-0.690
2020/01/31 08:18:19.2	314.850	-0.030	-0.200	-0.680
2020/01/31 08:18:19.3	314.870	-0.020	-0.210	-0.660
2020/01/31 08:18:19.4	314.880	-0.010	-0.210	-0.640
2020/01/31 08:18:19.5	314.900	0.000	-0.210	-0.630
2020/01/31 08:18:19.6	314.910	0.010	-0.220	-0.620
2020/01/31 08:18:19.7	314.920	0.020	-0.220	-0.600
2020/01/31 08:18:19.8	314.940	0.030	-0.230	-0.590
2020/01/31 08:18:19.9	314.950	0.040	-0.230	-0.580
2020/01/31 08:18:20.0	314.960	0.040	-0.240	-0.570
2020/01/31 08:18:20.1	314.970	0.050	-0.240	-0.560
2020/01/31 08:18:20.2	314.980	0.060	-0.250	-0.550
2020/01/31 08:18:20.3	314.980	0.060	-0.250	-0.550
2020/01/31 08:18:20.4	314.980	0.070	-0.250	-0.540
2020/01/31 08:18:20.5	314.990	0.070	-0.250	-0.530
2020/01/31 08:18:20.6	314.990	0.070	-0.250	-0.520
2020/01/31 08:18:20.7	315.000	0.070	-0.250	-0.520
2020/01/31 08:18:20.8	315.000	0.070	-0.240	-0.510
2020/01/31 08:18:20.9	315.000	0.070	-0.240	-0.500
2020/01/31 08:18:21.0	315.000	0.070	-0.230	-0.500
2020/01/31 08:18:21.1	315.000	0.070	-0.220	-0.490
2020/01/31 08:18:21.2	315.000	0.070	-0.220	-0.490
2020/01/31 08:18:21.3	314.990	0.060	-0.210	-0.480
2020/01/31 08:18:21.4	314.980	0.060	-0.200	-0.480
2020/01/31 08:18:21.5	314.980	0.060	-0.190	-0.470
2020/01/31 08:18:21.6	314.980	0.050	-0.180	-0.460
2020/01/31 08:18:21.7	314.970	0.050	-0.160	-0.460
2020/01/31 08:18:21.8	314.970	0.050	-0.150	-0.450
2020/01/31 08:18:21.9	314.960	0.040	-0.140	-0.450
2020/01/31 08:18:22.0	314.960	0.040	-0.120	-0.440
2020/01/31 08:18:22.1	314.950	0.030	-0.110	-0.430
2020/01/31 08:18:22.2	314.950	0.030	-0.100	-0.420
2020/01/31 08:18:22.3	314.940	0.030	-0.080	-0.410
2020/01/31 08:18:22.4	314.930	0.020	-0.070	-0.390
2020/01/31 08:18:22.5	314.930	0.020	-0.060	-0.380
2020/01/31 08:18:22.6	314.910	0.020	-0.050	-0.360
2020/01/31 08:18:22.7	314.900	0.010	-0.040	-0.340
2020/01/31 08:18:22.8	314.890	0.010	-0.030	-0.320
2020/01/31 08:18:22.9	314.880	0.010	-0.020	-0.300
2020/01/31 08:18:23.0	314.860	0.010	-0.010	-0.270
2020/01/31 08:18:23.1	314.840	0.010	-0.000	-0.250
2020/01/31 08:18:23.2	314.830	0.010	0.010	-0.220
2020/01/31 08:18:23.3	314.800	0.010	0.010	-0.190
2020/01/31 08:18:23.4	314.780	0.010	0.020	-0.150
2020/01/31 08:18:23.5	314.760	0.010	0.020	-0.120
2020/01/31 08:18:23.6	314.730	0.010	0.020	-0.080
2020/01/31 08:18:23.7	314.700	0.010	0.020	-0.050
2020/01/31 08:18:23.8	314.670	0.010	0.020	-0.010
2020/01/31 08:18:23.9	314.640	0.020	0.020	0.020
2020/01/31 08:18:24.0	314.610	0.020	0.020	0.060
2020/01/31 08:18:24.1	314.580	0.020	0.010	0.090
2020/01/31 08:18:24.2	314.550	0.030	-0.000	0.130
2020/01/31 08:18:24.3	314.520	0.030	-0.010	0.160
2020/01/31 08:18:24.4	314.490	0.040	-0.020	0.180
2020/01/31 08:18:24.5	314.460	0.040	-0.040	0.210
2020/01/31 08:18:24.6	314.430	0.050	-0.060	0.230
2020/01/31 08:18:24.7	314.410	0.060	-0.090	0.250
2020/01/31 08:18:24.8	314.380	0.060	-0.110	0.260
2020/01/31 08:18:24.9	314.360	0.070	-0.140	0.270
2020/01/31 08:18:25.0	314.340	0.070	-0.170	0.280
2020/01/31 08:18:25.1	314.320	0.080	-0.210	0.280
2020/01/31 08:18:25.2	314.310	0.090	-0.250	0.280
2020/01/31 08:18:25.3	314.290	0.090	-0.290	0.270
2020/01/31 08:18:25.4	314.280	0.100	-0.330	0.270
2020/01/31 08:18:25.5	314.280	0.100	-0.370	0.250
2020/01/31 08:18:25.6	314.270	0.110	-0.420	0.240
2020/01/31 08:18:25.7	314.270	0.110	-0.460	0.210
2020/01/31 08:18:25.8	314.270	0.110	-0.500	0.190
2020/01/31 08:18:25.9	314.280	0.110	-0.550	0.160
2020/01/31 08:18:26.0	314.290	0.110	-0.590	0.130
2020/01/31 08:18:26.1	314.300	0.110	-0.630	0.100
2020/01/31 08:18:26.2	314.310	0.110	-0.670	0.070
2020/01/31 08:18:26.3	314.320	0.100	-0.710	0.030
2020/01/31 08:18:26.4	314.340	0.100	-0.740	-0.010
2020/01/31 08:18:26.5	314.360	0.090	-0.770	-0.050
2020/01/31 08:18:26.6	314.380	0.080	-0.800	-0.080
2020/01/31 08:18:26.7	314.400	0.070	-0.830	-0.120
2020/01/31 08:18:26.8	314.430	0.060	-0.850	-0.160
2020/01/31 08:18:26.9	314.450	0.040	-0.860	-0.200
2020/01/31 08:18:27.0	314.470	0.030	-0.870	-0.240
2020/01/31 08:18:27.1	314.490	0.010	-0.870	-0.270
2020/01/31 08:18:27.2	314.510	-0.010	-0.870	-0.300
2020/01/31 08:18:27.3	314.520	-0.030	-0.860	-0.330
2020/01/31 08:18:27.4	314.540	-0.050	-0.850	-0.360
2020/01/31 08:18:27.5	314.550	-0.070	-0.830	-0.390
2020/01/31 08:18:27.6	314.570	-0.090	-0.810	-0.410
2020/01/31 08:18:27.7	314.580	-0.110	-0.780	-0.420
2020/01/31 08:18:27.8	314.580	-0.130	-0.740	-0.440
2020/01/31 08:18:27.9	314.590	-0.160	-0.700	-0.450
2020/01/31 08:18:28.0	314.590	-0.180	-0.660	-0.460
2020/01/31 08:18:28.1	314.600	-0.200	-0.610	-0.470
2020/01/31 08:18:28.2	314.600	-0.220	-0.560	-0.470
2020/01/31 08:18:28.3	314.590	-0.240	-0.500	-0.470
2020/01/31 08:18:28.4	314.590	-0.260	-0.450	-0.470
2020/01/31 08:18:28.5	314.590	-0.280	-0.400	-0.470
2020/01/31 08:18:28.6	314.590	-0.290	-0.340	-0.460
2020/01/31 08:18:28.7	314.580	-0.310	-0.280	-0.450
2020/01/31 08:18:28.8	314.580	-0.320	-0.230	-0.440
2020/01/31 08:18:28.9	314.570	-0.330	-0.170	-0.430
2020/01/31 08:18:29.0	314.560	-0.340	-0.110	-0.410
2020/01/31 08:18:29.1	314.560	-0.340	-0.060	-0.390
2020/01/31 08:18:29.2	314.550	-0.350	-0.010	-0.370
2020/01/31 08:18:29.3	314.530	-0.350	0.040	-0.350
2020/01/31 08:18:29.4	314.520	-0.340	0.090	-0.330
2020/01/31 08:18:29.5	314.520	-0.340	0.130	-0.310
2020/01/31 08:18:29.6	314.510	-0.330	0.170	-0.290
2020/01/31 08:18:29.7	314.500	-0.320	0.210	-0.270
2020/01/31 08:18:29.8	314.490	-0.310	0.240	-0.240
2020/01/31 08:18:29.9	314.480	-0.290	0.270	-0.220
2020/01/31 08:18:30.0	314.470	-0.270	0.300	-0.200
2020/01/31 08:18:30.1	314.460	-0.250	0.320	-0.180
2020/01/31 08:18:30.2	314.450	-0.230	0.330	-0.160
2020/01/31 08:18:30.3	314.430	-0.210	0.350	-0.150
2020/01/31 08:18:30.4	314.420	-0.180	0.360	-0.130
2020/01/31 08:18:30.5	314.420	-0.160	0.360	-0.110
2020/01/31 08:18:30.6	314.410	-0.130	0.360	-0.100
2020/01/31 08:18:30.7	314.410	-0.100	0.350	-0.090
2020/01/31 08:18:30.8	314.410	-0.070	0.340	-0.080
2020/01/31 08:18:30.9	314.410	-0.040	0.320	-0.070
2020/01/31 08:18:31.0	314.410	-0.010	0.300	-0.060
2020/01/31 08:18:31.1	314.410	0.020	0.280	-0.060
2020/01/31 08:18:31.2	314.410	0.040	0.250	-0.050
2020/01/31 08:18:31.3	314.410	0.070	0.220	-0.050
2020/01/31 08:18:31.4	314.410	0.100	0.180	-0.050
2020/01/31 08:18:31.5	314.420	0.130	0.150	-0.050
2020/01/31 08:18:31.6	314.420	0.150	0.110	-0.050
2020/01/31 08:18:31.7	314.430	0.180	0.070	-0.050
2020/01/31 08:18:31.8	314.440	0.200	0.030	-0.050
2020/01/31 08:18:31.9	314.450	0.220	-0.010	-0.050
2020/01/31 08:18:32.0	314.450	0.240	-0.050	-0.060
2020/01/31 08:18:32.1	314.460	0.260	-0.090	-0.060
2020/01/31 08:18:32.2	314.470	0.280	-0.130	-0.070
2020/01/31 08:18:32.3	314.490	0.290	-0.170	-0.070
2020/01/31 08:18:32.4	314.500	0.300	-0.210	-0.080
2020/01/31 08:18:32.5	314.510	0.310	-0.250	-0.080
2020/01/31 08:18:32.6	314.530	0.320	-0.280	-0.090
2020/01/31 08:18:32.7	314.540	0.330	-0.320	-0.100
2020/01/31 08:18:32.8	314.550	0.330	-0.350	-0.110
2020/01/31 08:18:32.9	314.560	0.330	-0.380	-0.120
2020/01/31 08:18:33.0	314.570	0.330	-0.400	-0.130
2020/01/31 08:18:33.1	314.580	0.330	-0.430	-0.140
2020/01/31 08:18:33.2	314.600	0.320	-0.450	-0.150
2020/01/31 08:18:33.3	314.610	0.320	-0.460	-0.160
2020/01/31 08:18:33.4	314.620	0.310	-0.480	-0.170
2020/01/31 08:18:33.5	314.640	0.300	-0.490	-0.180
2020/01/31 08:18:33.6	314.650	0.280	-0.500	-0.200
2020/01/31 08:18:33.7	314.660	0.270	-0.500	-0.210
2020/01/31 08:18:33.8	314.670	0.250	-0.500	-0.220
2020/01/31 08:18:33.9	314.680	0.230	-0.500	-0.240
2020/01/31 08:18:34.0	314.690	0.210	-0.500	-0.250
2020/01/31 08:18:34.1	314.700	0.190	-0.490	-0.270
2020/01/31 08:18:34.2	314.710	0.170	-0.490	-0.290
2020/01/31 08:18:34.3	314.730	0.150	-0.480	-0.310
2020/01/31 08:18:34.4	314.740	0.120	-0.460	-0.330
2020/01/31 08:18:34.5	314.750	0.100	-0.440	-0.350
2020/01/31 08:18:34.6	314.760	0.070	-0.430	-0.360
2020/01/31 08:18:34.7	314.770	0.050	-0.410	-0.380
2020/01/31 08:18:34.8	314.780	0.020	-0.380	-0.400
2020/01/31 08:18:34.9	314.800	-0.010	-0.360	-0.420
2020/01/31 08:18:35.0	314.810	-0.030	-0.330	-0.440
2020/01/31 08:18:35.1	314.820	-0.060	-0.310	-0.460
2020/01/31 08:18:35.2	314.830	-0.090	-0.280	-0.480
2020/01/31 08:18:35.3	314.850	-0.110	-0.250	-0.500
2020/01/31 08:18:35.4	314.860	-0.130	-0.220	-0.510
2020/01/31 08:18:35.5	314.870	-0.160	-0.190	-0.520
2020/01/31 08:18:35.6	314.880	-0.180	-0.170	-0.530
2020/01/31 08:18:35.7	314.890	-0.200	-0.140	-0.540
2020/01/31 08:18:35.8	314.890	-0.220	-0.110	-0.540
2020/01/31 08:18:35.9	314.900	-0.240	-0.080	-0.540
2020/01/31 08:18:36.0	314.900	-0.250	-0.060	-0.540
2020/01/31 08:18:36.1	314.900	-0.260	-0.030	-0.530
2020/01/31 08:18:36.2	314.900	-0.270	-0.010	-0.520
2020/01/31 08:18:36.3	314.900	-0.280	0.010	-0.510
2020/01/31 08:18:36.4	314.890	-0.290	0.030	-0.490
2020/01/31 08:18:36.5	314.890	-0.290	0.040	-0.470
2020/01/31 08:18:36.6	314.880	-0.290	0.060	-0.450
2020/01/31 08:18:36.7	314.880	-0.290	0.070	-0.420
2020/01/31 08:18:36.8	314.870	-0.290	0.080	-0.390
2020/01/31 08:18:36.9	314.860	-0.280	0.080	-0.360
2020/01/31 08:18:37.0	314.840	-0.270	0.080	-0.320
2020/01/31 08:18:37.1	314.830	-0.250	0.080	-0.280
2020/01/31 08:18:37.2	314.820	-0.240	0.070	-0.250
2020/01/31 08:18:37.3	314.810	-0.220	0.060	-0.210
2020/01/31 08:18:37.4	314.790	-0.200	0.050	-0.170
2020/01/31 08:18:37.5	314.780	-0.180	0.020	-0.130
2020/01/31 08:18:37.6	314.760	-0.150	-0.000	-0.090
2020/01/31 08:18:37.7	314.740	-0.120	-0.030	-0.060
2020/01/31 08:18:37.8	314.720	-0.090	-0.070	-0.030
2020/01/31 08:18:37.9	314.710	-0.060	-0.110	0.010
2020/01/31 08:18:38.0	314.690	-0.030	-0.150	0.040
2020/01/31 08:18:38.1	314.670	0.000	-0.200	0.060
2020/01/31 08:18:38.2	314.650	0.040	-0.250	0.080
2020/01/31 08:18:38.3	314.640	0.070	-0.300	0.100
2020/01/31 08:18:38.4	314.620	0.100	-0.350	0.120
2020/01/31 08:18:38.5	314.610	0.140	-0.410	0.130
2020/01/31 08:18:38.6	314.590	0.170	-0.470	0.140
2020/01/31 08:18:38.7	314.580	0.200	-0.520	0.150
2020/01/31 08:18:38.8	314.560	0.230	-0.580	0.150
2020/01/31 08:18:38.9	314.550	0.260	-0.630	0.150
2020/01/31 08:18:39.0	314.540	0.290	-0.690	0.150
2020/01/31 08:18:39.1	314.530	0.320	-0.740	0.150
2020/01/31 08:18:39.2	314.520	0.340	-0.790	0.140
2020/01/31 08:18:39.3	314.510	0.360	-0.830	0.130
2020/01/31 08:18:39.4	314.500	0.380	-0.870	0.120
2020/01/31 08:18:39.5	314.500	0.400	-0.900	0.100
2020/01/31 08:18:39.6	314.490	0.420	-0.930	0.090
2020/01/31 08:18:39.7	314.490	0.430	-0.960	0.070
2020/01/31 08:18:39.8	314.480	0.430	-0.970	0.050
2020/01/31 08:18:39.9	314.480	0.440	-0.980	0.040
2020/01/31 08:18:40.0	314.480	0.440	-0.980	0.020
2020/01/31 08:18:40.1	314.470	0.440	-0.980	-0.010
2020/01/31 08:18:40.2	314.470	0.430	-0.970	-0.030
2020/01/31 08:18:40.3	314.470	0.430	-0.950	-0.050
2020/01/31 08:18:40.4	314.470	0.410	-0.920	-0.070
2020/01/31 08:18:40.5	314.460	0.400	-0.890	-0.100
2020/01/31 08:18:40.6	314.460	0.380	-0.850	-0.120
2020/01/31 08:18:40.7	314.450	0.360	-0.810	-0.140
2020/01/31 08:18:40.8	314.450	0.340	-0.760	-0.160
2020/01/31 08:18:40.9	314.450	0.320	-0.710	-0.190
2020/01/31 08:18:41.0	314.440	0.290	-0.660	-0.210
2020/01/31 08:18:41.1	314.440	0.260	-0.600	-0.230
2020/01/31 08:18:41.2	314.440	0.230	-0.540	-0.260
2020/01/31 08:18:41.3	314.450	0.200	-0.480	-0.280
2020/01/31 08:18:41.4	314.450	0.170	-0.410	-0.300
2020/01/31 08:18:41.5	314.450	0.130	-0.350	-0.320
2020/01/31 08:18:41.6	314.460	0.100	-0.290	-0.350
2020/01/31 08:18:41.7	314.460	0.060	-0.230	-0.370
2020/01/31 08:18:41.8	314.470	0.030	-0.170	-0.390
2020/01/31 08:18:41.9	314.480	-0.010	-0.120	-0.420
2020/01/31 08:18:42.0	314.490	-0.040	-0.060	-0.440
2020/01/31 08:18:42.1	314.500	-0.070	-0.010	-0.460
2020/01/31 08:18:42.2	314.510	-0.110	0.030	-0.490
2020/01/31 08:18:42.3	314.530	-0.140	0.080	-0.510
2020/01/31 08:18:42.4	314.550	-0.170	0.120	-0.540
2020/01/31 08:18:42.5	314.560	-0.200	0.150	-0.560
2020/01/31 08:18:42.6	314.580	-0.230	0.180	-0.580
2020/01/31 08:18:42.7	314.600	-0.260	0.210	-0.610
2020/01/31 08:18:42.8	314.610	-0.290	0.230	-0.630
2020/01/31 08:18:42.9	314.630	-0.310	0.250	-0.650
2020/01/31 08:18:43.0	314.650	-0.340	0.270	-0.670
2020/01/31 08:18:43.1	314.670	-0.360	0.280	-0.690
2020/01/31 08:18:43.2	314.690	-0.380	0.280	-0.700
2020/01/31 08:18:43.3	314.710	-0.400	0.280	-0.720
2020/01/31 08:18:43.4	314.730	-0.420	0.280	-0.740
2020/01/31 08:18:43.5	314.750	-0.430	0.270	-0.750
2020/01/31 08:18:43.6	314.770	-0.440	0.260	-0.770
2020/01/31 08:18:43.7	314.790	-0.460	0.250	-0.780
2020/01/31 08:18:43.8	314.810	-0.470	0.230	-0.790
2020/01/31 08:18:43.9	314.830	-0.480	0.210	-0.810
2020/01/31 08:18:44.0	314.840	-0.480	0.190	-0.820
2020/01/31 08:18:44.1	314.860	-0.490	0.170	-0.830
2020/01/31 08:18:44.2	314.880	-0.490	0.140	-0.840
2020/01/31 08:18:44.3	314.890	-0.490	0.120	-0.840
2020/01/31 08:18:44.4	314.910	-0.490	0.090	-0.850
2020/01/31 08:18:44.5	314.920	-0.490	0.070	-0.850
2020/01/31 08:18:44.6	314.930	-0.490	0.040	-0.860
2020/01/31 08:18:44.7	314.940	-0.480	0.020	-0.860
2020/01/31 08:18:44.8	314.950	-0.470	-0.000	-0.850
2020/01/31 08:18:44.9	314.960	-0.460	-0.020	-0.850
2020/01/31 08:18:45.0	314.970	-0.450	-0.040	-0.840
2020/01/31 08:18:45.1	314.970	-0.440	-0.060	-0.830
2020/01/31 08:18:45.2	314.980	-0.430	-0.070	-0.820
2020/01/31 08:18:45.3	314.980	-0.410	-0.080	-0.800
2020/01/31 08:18:45.4	314.980	-0.400	-0.090	-0.790
2020/01/31 08:18:45.5	314.990	-0.380	-0.100	-0.770
2020/01/31 08:18:45.6	314.990	-0.360	-0.110	-0.750
2020/01/31 08:18:45.7	314.990	-0.340	-0.110	-0.720
2020/01/31 08:18:45.8	315.000	-0.320	-0.110	-0.700
2020/01/31 08:18:45.9	315.000	-0.300	-0.110	-0.670
2020/01/31 08:18:46.0	315.010	-0.270	-0.110	-0.640
2020/01/31 08:18:46.1	315.010	-0.250	-0.110	-0.610
2020/01/31 08:18:46.2	315.020	-0.230	-0.110	-0.580
2020/01/31 08:18:46.3	315.020	-0.200	-0.110	-0.550
2020/01/31 08:18:46.4	315.020	-0.180	-0.110	-0.520
2020/01/31 08:18:46.5	315.030	-0.150	-0.100	-0.490
2020/01/31 08:18:46.6	315.030	-0.130	-0.100	-0.450
2020/01/31 08:18:46.7	315.040	-0.100	-0.090	-0.420
2020/01/31 08:18:46.8	315.040	-0.080	-0.090	-0.380
2020/01/31 08:18:46.9				
2020/01/31 08:18:47.0	315.050	-0.050	-0.090	-0.340
2020/01/31 08:18:47.1	315.060	-0.000	-0.080	-0.270
2020/01/31 08:18:47.2	315.060	0.020	-0.080	-0.230
2020/01/31 08:18:47.3	315.050	0.050	-0.080	-0.190
2020/01/31 08:18:47.4	315.050	0.070	-0.080	-0.140
2020/01/31 08:18:47.5	315.060	0.100	-0.080	-0.100
2020/01/31 08:18:47.6	315.060	0.120	-0.080	-0.060
2020/01/31 08:18:47.7	315.060	0.140	-0.080	-0.020
2020/01/31 08:18:47.8	315.050	0.170	-0.090	0.030
2020/01/31 08:18:47.9	315.050	0.190	-0.090	0.070
2020/01/31 08:18:48.0	315.050	0.210	-0.100	0.110
2020/01/31 08:18:48.1	315.040	0.230	-0.100	0.150
2020/01/31 08:18:48.2	315.030	0.250	-0.110	0.190
2020/01/31 08:18:48.3	315.020	0.270	-0.120	0.230
2020/01/31 08:18:48.4	315.010	0.290	-0.130	0.270
2020/01/31 08:18:48.5	315.000	0.310	-0.140	0.310
2020/01/31 08:18:48.6	314.980	0.320	-0.160	0.340
2020/01/31 08:18:48.7	314.960	0.340	-0.170	0.370
2020/01/31 08:18:48.8	314.940	0.350	-0.180	0.400
2020/01/31 08:18:48.9	314.920	0.360	-0.200	0.430
2020/01/31 08:18:49.0	314.900	0.370	-0.220	0.460
2020/01/31 08:18:49.1	314.880	0.380	-0.240	0.480
2020/01/31 08:18:49.2	314.850	0.390	-0.260	0.490
2020/01/31 08:18:49.3	314.830	0.400	-0.270	0.510
2020/01/31 08:18:49.4	314.800	0.400	-0.290	0.520
2020/01/31 08:18:49.5	314.780	0.410	-0.320	0.530
2020/01/31 08:18:49.6	314.750	0.410	-0.340	0.530
2020/01/31 08:18:49.7	314.720	0.410	-0.360	0.530
2020/01/31 08:18:49.8	314.700	0.410	-0.390	0.530
2020/01/31 08:18:49.9	314.670	0.410	-0.410	0.520
2020/01/31 08:18:50.0	314.650	0.400	-0.430	0.510
2020/01/31 08:18:50.1	314.620	0.400	-0.460	0.500
2020/01/31 08:18:50.2	314.600	0.390	-0.480	0.480
2020/01/31 08:18:50.3	314.570	0.380	-0.510	0.460
2020/01/31 08:18:50.4	314.550	0.380	-0.530	0.430
2020/01/31 08:18:50.5	314.530	0.370	-0.560	0.400
2020/01/31 08:18:50.6	314.520	0.350	-0.580	0.370
2020/01/31 08:18:50.7	314.510	0.340	-0.600	0.340
2020/01/31 08:18:50.8	314.500	0.330	-0.630	0.300
2020/01/31 08:18:50.9	314.490	0.320	-0.650	0.260
2020/01/31 08:18:51.0	314.480	0.300	-0.670	0.220
2020/01/31 08:18:51.1	314.480	0.290	-0.700	0.170
2020/01/31 08:18:51.2	314.480	0.270	-0.720	0.130
2020/01/31 08:18:51.3	314.470	0.250	-0.740	0.080
2020/01/31 08:18:51.4	314.470	0.240	-0.760	0.030
2020/01/31 08:18:51.5	314.480	0.220	-0.780	-0.020
2020/01/31 08:18:51.6	314.490	0.200	-0.800	-0.070
2020/01/31 08:18:51.7	314.500	0.180	-0.820	-0.120
2020/01/31 08:18:51.8	314.510	0.170	-0.830	-0.170
2020/01/31 08:18:51.9	314.520	0.150	-0.840	-0.210
2020/01/31 08:18:52.0	314.540	0.130	-0.850	-0.260
2020/01/31 08:18:52.1	314.560	0.110	-0.860	-0.310
2020/01/31 08:18:52.2	314.570	0.090	-0.870	-0.350
2020/01/31 08:18:52.3	314.610	0.070	-0.870	-0.400
2020/01/31 08:18:52.4	314.630	0.050	-0.870	-0.450
2020/01/31 08:18:52.5	314.650	0.030	-0.870	-0.490
2020/01/31 08:18:52.6	314.670	0.010	-0.860	-0.530
2020/01/31 08:18:52.7	314.700	-0.010	-0.840	-0.570
2020/01/31 08:18:52.8	314.720	-0.030	-0.820	-0.600
2020/01/31 08:18:52.9	314.740	-0.050	-0.800	-0.640
2020/01/31 08:18:53.0	314.760	-0.070	-0.770	-0.670
2020/01/31 08:18:53.1	314.790	-0.090	-0.740	-0.700
2020/01/31 08:18:53.2	314.810	-0.110	-0.710	-0.730
2020/01/31 08:18:53.3	314.840	-0.130	-0.670	-0.750
2020/01/31 08:18:53.4	314.860	-0.150	-0.620	-0.780
2020/01/31 08:18:53.5	314.880	-0.170	-0.570	-0.790
2020/01/31 08:18:53.6	314.900	-0.190	-0.520	-0.810
2020/01/31 08:18:53.7	314.920	-0.200	-0.470	-0.820
2020/01/31 08:18:53.8	314.940	-0.220	-0.410	-0.830
2020/01/31 08:18:53.9	314.950	-0.240	-0.350	-0.840
2020/01/31 08:18:54.0	314.960	-0.250	-0.290	-0.850
2020/01/31 08:18:54.1	314.980	-0.270	-0.220	-0.850
2020/01/31 08:18:54.2	314.990	-0.280	-0.160	-0.850
2020/01/31 08:18:54.3	315.000	-0.290	-0.100	-0.850
2020/01/31 08:18:54.4	315.010	-0.310	-0.030	-0.840
2020/01/31 08:18:54.5	315.010	-0.320	0.030	-0.840
2020/01/31 08:18:54.6	315.020	-0.330	0.090	-0.830
2020/01/31 08:18:54.7	315.020	-0.340	0.150	-0.820
2020/01/31 08:18:54.8	315.030	-0.350	0.200	-0.810
2020/01/31 08:18:54.9	315.030	-0.350	0.250	-0.800
2020/01/31 08:18:55.0	315.030	-0.360	0.290	-0.790
2020/01/31 08:18:55.1	315.040	-0.360	0.340	-0.780
2020/01/31 08:18:55.2	315.040	-0.370	0.370	-0.770
2020/01/31 08:18:55.3	315.040	-0.370	0.400	-0.760
2020/01/31 08:18:55.4	315.040	-0.370	0.430	-0.750
2020/01/31 08:18:55.5	315.050	-0.370	0.440	-0.740
2020/01/31 08:18:55.6	315.050	-0.370	0.450	-0.740
2020/01/31 08:18:55.7	315.050	-0.360	0.460	-0.730
2020/01/31 08:18:55.8	315.060	-0.360	0.460	-0.730
2020/01/31 08:18:55.9	315.060	-0.350	0.450	-0.720
2020/01/31 08:18:56.0	315.070	-0.340	0.440	-0.710
2020/01/31 08:18:56.1	315.080	-0.330	0.420	-0.710
2020/01/31 08:18:56.2	315.090	-0.320	0.400	-0.710
2020/01/31 08:18:56.3	315.090	-0.310	0.370	-0.700
2020/01/31 08:18:56.4	315.100	-0.290	0.340	-0.700
2020/01/31 08:18:56.5	315.110	-0.280	0.310	-0.690
2020/01/31 08:18:56.6	315.120	-0.260	0.270	-0.680
2020/01/31 08:18:56.7	315.120	-0.250	0.230	-0.670
2020/01/31 08:18:56.8	315.130	-0.230	0.190	-0.660
2020/01/31 08:18:56.9	315.140	-0.210	0.140	-0.650
2020/01/31 08:18:57.0	315.140	-0.190	0.100	-0.630
2020/01/31 08:18:57.1	315.150	-0.170	0.050	-0.620
2020/01/31 08:18:57.2	315.150	-0.150	0.010	-0.600
2020/01/31 08:18:57.3	315.160	-0.130	-0.030	-0.580
2020/01/31 08:18:57.4	315.160	-0.110	-0.070	-0.560
2020/01/31 08:18:57.5	315.160	-0.100	-0.110	-0.530
2020/01/31 08:18:57.6	315.160	-0.080	-0.140	-0.510
2020/01/31 08:18:57.7	315.160	-0.060	-0.170	-0.480
2020/01/31 08:18:57.8	315.150	-0.040	-0.200	-0.450
2020/01/31 08:18:57.9	315.150	-0.020	-0.220	-0.420
2020/01/31 08:18:58.0	315.140	-0.000	-0.240	-0.380
2020/01/31 08:18:58.1	315.140	0.020	-0.260	-0.350
2020/01/31 08:18:58.2	315.130	0.030	-0.270	-0.310
2020/01/31 08:18:58.3	315.110	0.050	-0.280	-0.270
2020/01/31 08:18:58.4	315.100	0.060	-0.280	-0.230
2020/01/31 08:18:58.5	315.090	0.070	-0.280	-0.190
2020/01/31 08:18:58.6	315.080	0.090	-0.270	-0.150
2020/01/31 08:18:58.7	315.060	0.100	-0.270	-0.100
2020/01/31 08:18:58.8	315.050	0.110	-0.250	-0.060
2020/01/31 08:18:58.9	315.030	0.120	-0.240	-0.010
2020/01/31 08:18:59.0	315.010	0.130	-0.220	0.030
2020/01/31 08:18:59.1	314.990	0.130	-0.210	0.080
2020/01/31 08:18:59.2	314.960	0.140	-0.190	0.120
2020/01/31 08:18:59.3	314.940	0.140	-0.160	0.170
2020/01/31 08:18:59.4	314.920	0.150	-0.140	0.210
2020/01/31 08:18:59.5	314.890	0.150	-0.120	0.250
2020/01/31 08:18:59.6	314.860	0.150	-0.100	0.290
2020/01/31 08:18:59.7	314.840	0.150	-0.080	0.330
2020/01/31 08:18:59.8	314.810	0.160	-0.070	0.360
2020/01/31 08:18:59.9	314.790	0.160	-0.050	0.390
2020/01/31 08:19:00.0	314.760	0.160	-0.040	0.420
2020/01/31 08:19:00.1	314.740	0.160	-0.040	0.450
2020/01/31 08:19:00.2	314.720	0.160	-0.030	0.470
2020/01/31 08:19:00.3	314.700	0.160	-0.040	0.490
2020/01/31 08:19:00.4	314.680	0.160	-0.040	0.500
2020/01/31 08:19:00.5	314.660	0.160	-0.050	0.510
2020/01/31 08:19:00.6	314.650	0.160	-0.060	0.520
2020/01/31 08:19:00.7	314.640	0.160	-0.080	0.520
2020/01/31 08:19:00.8	314.630	0.160	-0.100	0.520
2020/01/31 08:19:00.9	314.630	0.160	-0.130	0.510
2020/01/31 08:19:01.0	314.620	0.160	-0.150	0.500
2020/01/31 08:19:01.1	314.620	0.160	-0.190	0.490
2020/01/31 08:19:01.2	314.620	0.160	-0.220	0.470
2020/01/31 08:19:01.3	314.620	0.170	-0.250	0.450
2020/01/31 08:19:01.4	314.630	0.170	-0.290	0.430
2020/01/31 08:19:01.5	314.630	0.170	-0.330	0.410
2020/01/31 08:19:01.6	314.640	0.170	-0.370	0.380
2020/01/31 08:19:01.7	314.640	0.180	-0.410	0.360
2020/01/31 08:19:01.8	314.650	0.180	-0.450	0.330
2020/01/31 08:19:01.9	314.650	0.180	-0.490	0.300
2020/01/31 08:19:02.0	314.660	0.180	-0.530	0.270
2020/01/31 08:19:02.1	314.670	0.190	-0.570	0.230
2020/01/31 08:19:02.2	314.680	0.190	-0.600	0.200
2020/01/31 08:19:02.3	314.690	0.190	-0.630	0.160
2020/01/31 08:19:02.4	314.700	0.190	-0.660	0.130
2020/01/31 08:19:02.5	314.700	0.190	-0.690	0.090
2020/01/31 08:19:02.6	314.710	0.190	-0.710	0.060
2020/01/31 08:19:02.7	314.710	0.180	-0.730	0.020
2020/01/31 08:19:02.8	314.720	0.180	-0.740	-0.020
2020/01/31 08:19:02.9	314.720	0.180	-0.760	-0.050
2020/01/31 08:19:03.0	314.730	0.170	-0.770	-0.090
2020/01/31 08:19:03.1	314.740	0.160	-0.770	-0.130
2020/01/31 08:19:03.2	314.740	0.160	-0.780	-0.160
2020/01/31 08:19:03.3	314.760	0.150	-0.780	-0.200
2020/01/31 08:19:03.4	314.760	0.140	-0.770	-0.240
2020/01/31 08:19:03.5	314.770	0.130	-0.770	-0.280
2020/01/31 08:19:03.6	314.780	0.120	-0.760	-0.320
2020/01/31 08:19:03.7	314.780	0.100	-0.750	-0.350
2020/01/31 08:19:03.8	314.790	0.090	-0.740	-0.390
2020/01/31 08:19:03.9	314.800	0.080	-0.730	-0.430
2020/01/31 08:19:04.0	314.810	0.060	-0.720	-0.470
2020/01/31 08:19:04.1	314.820	0.050	-0.700	-0.500
2020/01/31 08:19:04.2	314.830	0.030	-0.690	-0.540
2020/01/31 08:19:04.3	314.850	0.020	-0.670	-0.580
2020/01/31 08:19:04.4	314.860	0.000	-0.650	-0.610
2020/01/31 08:19:04.5	314.870	-0.010	-0.630	-0.650
2020/01/31 08:19:04.6	314.890	-0.020	-0.610	-0.690
2020/01/31 08:19:04.7	314.900	-0.040	-0.590	-0.720
2020/01/31 08:19:04.8	314.910	-0.050	-0.570	-0.750
2020/01/31 08:19:04.9	314.930	-0.060	-0.550	-0.780
2020/01/31 08:19:05.0	314.940	-0.070	-0.530	-0.810
2020/01/31 08:19:05.1	314.960	-0.080	-0.500	-0.840
2020/01/31 08:19:05.2	314.970	-0.080	-0.480	-0.860
2020/01/31 08:19:05.3	314.970	-0.090	-0.450	-0.880
2020/01/31 08:19:05.4	314.990	-0.090	-0.430	-0.900
2020/01/31 08:19:05.5	315.000	-0.090	-0.400	-0.910
2020/01/31 08:19:05.6	315.010	-0.090	-0.380	-0.920
2020/01/31 08:19:05.7	315.020	-0.090	-0.350	-0.920
2020/01/31 08:19:05.8	315.030	-0.090	-0.330	-0.920
2020/01/31 08:19:05.9	315.040	-0.080	-0.300	-0.920
2020/01/31 08:19:06.0	315.050	-0.070	-0.280	-0.910
2020/01/31 08:19:06.1	315.050	-0.060	-0.250	-0.890
2020/01/31 08:19:06.2	315.060	-0.050	-0.230	-0.880
2020/01/31 08:19:06.3	315.070	-0.040	-0.210	-0.860
2020/01/31 08:19:06.4	315.080	-0.030	-0.180	-0.830
2020/01/31 08:19:06.5	315.090	-0.020	-0.160	-0.810
2020/01/31 08:19:06.6	315.100	-0.000	-0.140	-0.780
2020/01/31 08:19:06.7	315.110	0.010	-0.120	-0.750
2020/01/31 08:19:06.8	315.120	0.030	-0.100	-0.710
2020/01/31 08:19:06.9	315.130	0.040	-0.080	-0.680
2020/01/31 08:19:07.0	315.140	0.050	-0.060	-0.650
2020/01/31 08:19:07.1	315.150	0.070	-0.040	-0.610
2020/01/31 08:19:07.2	315.160	0.080	-0.020	-0.570
2020/01/31 08:19:07.3	315.160	0.080	0.010	-0.530
2020/01/31 08:19:07.4	315.170	0.090	0.020	-0.490
2020/01/31 08:19:07.5	315.170	0.100	0.040	-0.460
2020/01/31 08:19:07.6	315.180	0.100	0.060	-0.420
2020/01/31 08:19:07.7	315.180	0.100	0.080	-0.380
2020/01/31 08:19:07.8	315.190	0.100	0.100	-0.340
2020/01/31 08:19:07.9	315.190	0.090	0.110	-0.300
2020/01/31 08:19:08.0	315.190	0.090	0.130	-0.260
2020/01/31 08:19:08.1	315.180	0.080	0.150	-0.220
2020/01/31 08:19:08.2	315.180	0.070	0.170	-0.180
2020/01/31 08:19:08.3	315.180	0.050	0.180	-0.140
2020/01/31 08:19:08.4	315.170	0.040	0.200	-0.100
2020/01/31 08:19:08.5	315.160	0.020	0.210	-0.070
2020/01/31 08:19:08.6	315.140	0.000	0.230	-0.030
2020/01/31 08:19:08.7	315.130	-0.020	0.250	0.010
2020/01/31 08:19:08.8	315.110	-0.040	0.260	0.040
2020/01/31 08:19:08.9	315.090	-0.070	0.280	0.080
2020/01/31 08:19:09.0	315.070	-0.090	0.290	0.110
2020/01/31 08:19:09.1	315.050	-0.120	0.300	0.140
2020/01/31 08:19:09.2	315.020	-0.140	0.310	0.180
2020/01/31 08:19:09.3	314.990	-0.170	0.330	0.210
2020/01/31 08:19:09.4	314.970	-0.190	0.340	0.230
2020/01/31 08:19:09.5	314.940	-0.220	0.350	0.260
2020/01/31 08:19:09.6	314.910	-0.240	0.350	0.280
2020/01/31 08:19:09.7	314.890	-0.270	0.360	0.300
2020/01/31 08:19:09.8	314.860	-0.290	0.360	0.320
2020/01/31 08:19:09.9	314.830	-0.310	0.360	0.330
2020/01/31 08:19:10.0	314.810	-0.330	0.350	0.340
2020/01/31 08:19:10.1	314.780	-0.340	0.350	0.350
2020/01/31 08:19:10.2	314.750	-0.360	0.340	0.360
2020/01/31 08:19:10.3	314.730	-0.370	0.320	0.360
2020/01/31 08:19:10.4	314.710	-0.370	0.310	0.350
2020/01/31 08:19:10.5	314.690	-0.380	0.290	0.350
2020/01/31 08:19:10.6	314.660	-0.380	0.270	0.340
2020/01/31 08:19:10.7	314.640	-0.380	0.240	0.330
2020/01/31 08:19:10.8	314.620	-0.380	0.210	0.310
2020/01/31 08:19:10.9	314.600	-0.370	0.180	0.300
2020/01/31 08:19:11.0	314.580	-0.360	0.150	0.280
2020/01/31 08:19:11.1	314.560	-0.350	0.110	0.260
2020/01/31 08:19:11.2	314.540	-0.330	0.080	0.240
2020/01/31 08:19:11.3	314.520	-0.320	0.040	0.210
2020/01/31 08:19:11.4	314.500	-0.300	-0.000	0.180
2020/01/31 08:19:11.5	314.480	-0.280	-0.040	0.160
2020/01/31 08:19:11.6	314.470	-0.250	-0.090	0.130
2020/01/31 08:19:11.7	314.450	-0.230	-0.130	0.100
2020/01/31 08:19:11.8	314.430	-0.200	-0.180	0.070
2020/01/31 08:19:11.9	314.410	-0.170	-0.220	0.040
2020/01/31 08:19:12.0	314.400	-0.140	-0.260	0.010
2020/01/31 08:19:12.1	314.380	-0.120	-0.310	-0.020
2020/01/31 08:19:12.2	314.370	-0.090	-0.350	-0.040
2020/01/31 08:19:12.3	314.360	-0.060	-0.400	-0.070
2020/01/31 08:19:12.4	314.350	-0.030	-0.440	-0.090
2020/01/31 08:19:12.5	314.340	0.000	-0.480	-0.120
2020/01/31 08:19:12.6	314.330	0.030	-0.520	-0.140
2020/01/31 08:19:12.7	314.320	0.060	-0.560	-0.170
2020/01/31 08:19:12.8	314.320	0.090	-0.600	-0.190
2020/01/31 08:19:12.9	314.310	0.120	-0.640	-0.210
2020/01/31 08:19:13.0	314.310	0.150	-0.670	-0.230
2020/01/31 08:19:13.1	314.310	0.170	-0.710	-0.250
2020/01/31 08:19:13.2	314.300	0.200	-0.740	-0.260
2020/01/31 08:19:13.3	314.310	0.220	-0.760	-0.280
2020/01/31 08:19:13.4	314.310	0.250	-0.790	-0.290
2020/01/31 08:19:13.5	314.310	0.270	-0.820	-0.300
2020/01/31 08:19:13.6	314.310	0.290	-0.840	-0.310
2020/01/31 08:19:13.7	314.310	0.300	-0.860	-0.320
2020/01/31 08:19:13.8	314.310	0.320	-0.870	-0.320
2020/01/31 08:19:13.9	314.310	0.330	-0.890	-0.330
2020/01/31 08:19:14.0	314.310	0.350	-0.900	-0.330
2020/01/31 08:19:14.1	314.310	0.360	-0.910	-0.330
2020/01/31 08:19:14.2	314.310	0.360	-0.910	-0.330
2020/01/31 08:19:14.3	314.330	0.370	-0.920	-0.330
2020/01/31 08:19:14.4	314.330	0.380	-0.920	-0.330
2020/01/31 08:19:14.5	314.330	0.380	-0.920	-0.320
2020/01/31 08:19:14.6	314.330	0.380	-0.910	-0.320
2020/01/31 08:19:14.7	314.340	0.380	-0.900	-0.320
2020/01/31 08:19:14.8	314.340	0.380	-0.900	-0.310
2020/01/31 08:19:14.9	314.350	0.380	-0.880	-0.310
2020/01/31 08:19:15.0	314.360	0.370	-0.870	-0.300
2020/01/31 08:19:15.1	314.370	0.370	-0.860	-0.300
2020/01/31 08:19:15.2	314.380	0.360	-0.840	-0.290
2020/01/31 08:19:15.3	314.400	0.350	-0.820	-0.290
2020/01/31 08:19:15.4	314.410	0.340	-0.800	-0.280
2020/01/31 08:19:15.5	314.420	0.330	-0.780	-0.280
2020/01/31 08:19:15.6	314.440	0.320	-0.760	-0.280
2020/01/31 08:19:15.7	314.450	0.300	-0.730	-0.270
2020/01/31 08:19:15.8	314.470	0.290	-0.710	-0.270
2020/01/31 08:19:15.9	314.480	0.270	-0.680	-0.260
2020/01/31 08:19:16.0	314.500	0.260	-0.660	-0.260
2020/01/31 08:19:16.1	314.520	0.240	-0.630	-0.260
2020/01/31 08:19:16.2	314.530	0.230	-0.600	-0.250
2020/01/31 08:19:16.3	314.550	0.210	-0.570	-0.250
2020/01/31 08:19:16.4	314.570	0.190	-0.540	-0.240
2020/01/31 08:19:16.5	314.580	0.180	-0.500	-0.230
2020/01/31 08:19:16.6	314.600	0.160	-0.470	-0.220
2020/01/31 08:19:16.7	314.610	0.150	-0.430	-0.210
2020/01/31 08:19:16.8	314.630	0.130	-0.390	-0.200
2020/01/31 08:19:16.9	314.640	0.120	-0.350	-0.180
2020/01/31 08:19:17.0	314.650	0.100	-0.310	-0.160
2020/01/31 08:19:17.1	314.650	0.090	-0.270	-0.140
2020/01/31 08:19:17.2	314.660	0.070	-0.230	-0.120
2020/01/31 08:19:17.3	314.650	0.060	-0.180	-0.100
2020/01/31 08:19:17.4	314.650	0.040	-0.140	-0.070
2020/01/31 08:19:17.5	314.650	0.030	-0.090	-0.050
2020/01/31 08:19:17.6	314.650	0.020	-0.050	-0.020
2020/01/31 08:19:17.7	314.640	0.000	-0.000	0.000
2020/01/31 08:19:17.8	314.630	-0.010	0.040	0.030
2020/01/31 08:19:17.9	314.620	-0.020	0.080	0.050
2020/01/31 08:19:18.0	314.610	-0.030	0.120	0.080
2020/01/31 08:19:18.1	314.590	-0.040	0.160	0.100
2020/01/31 08:19:18.2	314.580	-0.050	0.200	0.120
2020/01/31 08:19:18.3	314.550	-0.060	0.230	0.140
2020/01/31 08:19:18.4	314.540	-0.070	0.260	0.160
2020/01/31 08:19:18.5	314.520	-0.080	0.290	0.180
2020/01/31 08:19:18.6	314.500	-0.090	0.310	0.190
2020/01/31 08:19:18.7	314.480	-0.090	0.330	0.200
2020/01/31 08:19:18.8	314.460	-0.100	0.350	0.210
2020/01/31 08:19:18.9	314.440	-0.110	0.360	0.220
2020/01/31 08:19:19.0	314.420	-0.110	0.370	0.230
2020/01/31 08:19:19.1	314.400	-0.120	0.380	0.230
2020/01/31 08:19:19.2	314.380	-0.120	0.380	0.240
2020/01/31 08:19:19.3	314.350	-0.130	0.380	0.230
2020/01/31 08:19:19.4	314.330	-0.130	0.370	0.230
2020/01/31 08:19:19.5	314.310	-0.130	0.360	0.230
2020/01/31 08:19:19.6	314.290	-0.130	0.350	0.230
2020/01/31 08:19:19.7	314.280	-0.140	0.330	0.220
2020/01/31 08:19:19.8	314.260	-0.140	0.310	0.210
2020/01/31 08:19:19.9	314.240	-0.140	0.290	0.210
2020/01/31 08:19:20.0	314.230	-0.140	0.270	0.190
2020/01/31 08:19:20.1	314.210	-0.140	0.240	0.180
2020/01/31 08:19:20.2	314.200	-0.140	0.210	0.170
2020/01/31 08:19:20.3	314.190	-0.140	0.180	0.150
2020/01/31 08:19:20.4	314.170	-0.150	0.150	0.140
2020/01/31 08:19:20.5	314.160	-0.150	0.110	0.120
2020/01/31 08:19:20.6	314.150	-0.150	0.080	0.100
2020/01/31 08:19:20.7	314.150	-0.150	0.040	0.070
2020/01/31 08:19:20.8	314.140	-0.150	0.000	0.050
2020/01/31 08:19:20.9	314.140	-0.160	-0.030	0.030
2020/01/31 08:19:21.0	314.140	-0.160	-0.070	0.000
2020/01/31 08:19:21.1	314.140	-0.160	-0.110	-0.020
2020/01/31 08:19:21.2	314.140	-0.170	-0.140	-0.050
2020/01/31 08:19:21.3	314.150	-0.170	-0.180	-0.080
2020/01/31 08:19:21.4	314.150	-0.180	-0.210	-0.100
2020/01/31 08:19:21.5	314.160	-0.180	-0.240	-0.130
2020/01/31 08:19:21.6	314.160	-0.190	-0.270	-0.150
2020/01/31 08:19:21.7	314.170	-0.190	-0.290	-0.180
2020/01/31 08:19:21.8	314.170	-0.200	-0.320	-0.200
2020/01/31 08:19:21.9	314.180	-0.200	-0.340	-0.220
2020/01/31 08:19:22.0	314.190	-0.210	-0.350	-0.240
2020/01/31 08:19:22.1	314.190	-0.210	-0.370	-0.260
2020/01/31 08:19:22.2	314.200	-0.220	-0.380	-0.280
2020/01/31 08:19:22.3	314.210	-0.220	-0.390	-0.300
2020/01/31 08:19:22.4	314.210	-0.220	-0.390	-0.310
2020/01/31 08:19:22.5	314.210	-0.230	-0.400	-0.320
2020/01/31 08:19:22.6	314.220	-0.230	-0.400	-0.330
2020/01/31 08:19:22.7	314.220	-0.230	-0.390	-0.340
2020/01/31 08:19:22.8	314.210	-0.240	-0.390	-0.350
2020/01/31 08:19:22.9	314.210	-0.240	-0.380	-0.360
2020/01/31 08:19:23.0	314.210	-0.240	-0.370	-0.360
2020/01/31 08:19:23.1	314.200	-0.240	-0.360	-0.360
2020/01/31 08:19:23.2	314.190	-0.230	-0.350	-0.360
2020/01/31 08:19:23.3	314.180	-0.230	-0.340	-0.360
2020/01/31 08:19:23.4	314.170	-0.230	-0.330	-0.350
2020/01/31 08:19:23.5	314.160	-0.220	-0.320	-0.350
2020/01/31 08:19:23.6	314.140	-0.210	-0.300	-0.340
2020/01/31 08:19:23.7	314.130	-0.200	-0.290	-0.330
2020/01/31 08:19:23.8	314.120	-0.190	-0.280	-0.320
2020/01/31 08:19:23.9	314.100	-0.180	-0.270	-0.310
2020/01/31 08:19:24.0	314.090	-0.160	-0.260	-0.300
2020/01/31 08:19:24.1	314.070	-0.150	-0.250	-0.290
2020/01/31 08:19:24.2	314.060	-0.130	-0.250	-0.270
2020/01/31 08:19:24.3	314.030	-0.110	-0.240	-0.250
2020/01/31 08:19:24.4	314.020	-0.090	-0.230	-0.240
2020/01/31 08:19:24.5	314.000	-0.070	-0.230	-0.220
2020/01/31 08:19:24.6	313.980	-0.050	-0.230	-0.200
2020/01/31 08:19:24.7	313.970	-0.020	-0.230	-0.170
2020/01/31 08:19:24.8	313.950	0.000	-0.230	-0.150
2020/01/31 08:19:24.9	313.930	0.030	-0.240	-0.130
2020/01/31 08:19:25.0	313.920	0.050	-0.240	-0.100
2020/01/31 08:19:25.1	313.900	0.080	-0.250	-0.070
2020/01/31 08:19:25.2	313.890	0.100	-0.260	-0.040
2020/01/31 08:19:25.3	313.880	0.130	-0.270	-0.010
2020/01/31 08:19:25.4	313.860	0.150	-0.280	0.020
2020/01/31 08:19:25.5	313.850	0.180	-0.290	0.050
2020/01/31 08:19:25.6	313.840	0.200	-0.310	0.080
2020/01/31 08:19:25.7	313.830	0.220	-0.320	0.110
2020/01/31 08:19:25.8	313.820	0.240	-0.340	0.140
2020/01/31 08:19:25.9	313.810	0.260	-0.350	0.170
2020/01/31 08:19:26.0	313.800	0.280	-0.370	0.190
2020/01/31 08:19:26.1	313.800	0.300	-0.390	0.220
2020/01/31 08:19:26.2	313.800	0.320	-0.400	0.240
2020/01/31 08:19:26.3	313.810	0.330	-0.420	0.260
2020/01/31 08:19:26.4	313.810	0.340	-0.440	0.280
2020/01/31 08:19:26.5	313.820	0.350	-0.460	0.290
2020/01/31 08:19:26.6	313.820	0.360	-0.480	0.300
2020/01/31 08:19:26.7	313.830	0.360	-0.490	0.300
2020/01/31 08:19:26.8	313.840	0.370	-0.510	0.300
2020/01/31 08:19:26.9	313.850	0.370	-0.520	0.300
2020/01/31 08:19:27.0	313.870	0.360	-0.540	0.300
2020/01/31 08:19:27.1	313.880	0.360	-0.550	0.300
2020/01/31 08:19:27.2	313.890	0.350	-0.550	0.290
2020/01/31 08:19:27.3	313.900	0.350	-0.560	0.280
2020/01/31 08:19:27.4	313.920	0.340	-0.560	0.270
2020/01/31 08:19:27.5	313.930	0.320	-0.560	0.260
2020/01/31 08:19:27.6	313.950	0.310	-0.560	0.250
2020/01/31 08:19:27.7	313.960	0.290	-0.550	0.240
2020/01/31 08:19:27.8	313.970	0.270	-0.530	0.230
2020/01/31 08:19:27.9	313.980	0.250	-0.520	0.210
2020/01/31 08:19:28.0	313.990	0.230	-0.500	0.200
2020/01/31 08:19:28.1	314.000	0.210	-0.480	0.190
2020/01/31 08:19:28.2	314.010	0.180	-0.450	0.180
2020/01/31 08:19:28.3	314.020	0.160	-0.420	0.160
2020/01/31 08:19:28.4	314.030	0.130	-0.400	0.150
2020/01/31 08:19:28.5	314.040	0.100	-0.370	0.140
2020/01/31 08:19:28.6	314.050	0.070	-0.330	0.130
2020/01/31 08:19:28.7	314.050	0.050	-0.300	0.120
2020/01/31 08:19:28.8	314.060	0.020	-0.270	0.100
2020/01/31 08:19:28.9	314.070	-0.010	-0.240	0.090
2020/01/31 08:19:29.0	314.070	-0.040	-0.200	0.080
2020/01/31 08:19:29.1	314.080	-0.070	-0.170	0.070
2020/01/31 08:19:29.2	314.080	-0.100	-0.140	0.050
2020/01/31 08:19:29.3	314.090	-0.120	-0.100	0.040
2020/01/31 08:19:29.4	314.090	-0.150	-0.080	0.020
2020/01/31 08:19:29.5	314.100	-0.180	-0.050	0.010
2020/01/31 08:19:29.6	314.100	-0.200	-0.020	-0.010
2020/01/31 08:19:29.7	314.100	-0.220	0.000	-0.020
2020/01/31 08:19:29.8	314.110	-0.240	0.020	-0.040
2020/01/31 08:19:29.9	314.110	-0.270	0.040	-0.060
2020/01/31 08:19:30.0	314.110	-0.280	0.060	-0.080
2020/01/31 08:19:30.1	314.110	-0.300	0.080	-0.100
2020/01/31 08:19:30.2	314.110	-0.320	0.090	-0.120
2020/01/31 08:19:30.3	314.110	-0.330	0.100	-0.130
2020/01/31 08:19:30.4	314.110	-0.340	0.100	-0.150
2020/01/31 08:19:30.5	314.110	-0.350	0.110	-0.170
2020/01/31 08:19:30.6	314.110	-0.360	0.110	-0.200
2020/01/31 08:19:30.7	314.100	-0.370	0.110	-0.220
2020/01/31 08:19:30.8	314.100	-0.370	0.110	-0.240
2020/01/31 08:19:30.9	314.090	-0.370	0.110	-0.260
2020/01/31 08:19:31.0	314.090	-0.370	0.100	-0.280
2020/01/31 08:19:31.1	314.080	-0.370	0.100	-0.300
2020/01/31 08:19:31.2	314.070	-0.370	0.090	-0.320
2020/01/31 08:19:31.3	314.060	-0.370	0.080	-0.340
2020/01/31 08:19:31.4	314.050	-0.360	0.070	-0.360
2020/01/31 08:19:31.5	314.030	-0.350	0.060	-0.380
2020/01/31 08:19:31.6	314.020	-0.350	0.040	-0.400
2020/01/31 08:19:31.7	314.010	-0.340	0.030	-0.420
2020/01/31 08:19:31.8	314.000	-0.330	0.010	-0.440
2020/01/31 08:19:31.9	313.980	-0.310	-0.010	-0.460
2020/01/31 08:19:32.0	313.970	-0.300	-0.030	-0.470
2020/01/31 08:19:32.1	313.960	-0.290	-0.060	-0.490
2020/01/31 08:19:32.2	313.950	-0.270	-0.080	-0.500
2020/01/31 08:19:32.3	313.940	-0.250	-0.100	-0.520
2020/01/31 08:19:32.4	313.930	-0.240	-0.130	-0.530
2020/01/31 08:19:32.5	313.920	-0.220	-0.150	-0.540
2020/01/31 08:19:32.6	313.920	-0.200	-0.170	-0.540
2020/01/31 08:19:32.7	313.910	-0.180	-0.200	-0.550
2020/01/31 08:19:32.8	313.900	-0.160	-0.220	-0.550
2020/01/31 08:19:32.9	313.890	-0.140	-0.250	-0.550
2020/01/31 08:19:33.0	313.890	-0.120	-0.270	-0.550
2020/01/31 08:19:33.1	313.880	-0.100	-0.290	-0.550
2020/01/31 08:19:33.2	313.880	-0.080	-0.310	-0.540
2020/01/31 08:19:33.3	313.890	-0.050	-0.330	-0.530
2020/01/31 08:19:33.4	313.880	-0.030	-0.350	-0.520
2020/01/31 08:19:33.5	313.880	-0.010	-0.370	-0.510
2020/01/31 08:19:33.6	313.880	0.020	-0.390	-0.500
2020/01/31 08:19:33.7	313.870	0.040	-0.400	-0.480
2020/01/31 08:19:33.8	313.870	0.070	-0.420	-0.460
2020/01/31 08:19:33.9	313.870	0.090	-0.430	-0.430
2020/01/31 08:19:34.0	313.870	0.120	-0.440	-0.410
2020/01/31 08:19:34.1	313.870	0.140	-0.450	-0.380
2020/01/31 08:19:34.2	313.860	0.170	-0.460	-0.350
2020/01/31 08:19:34.3	313.870	0.190	-0.460	-0.310
2020/01/31 08:19:34.4	313.870	0.220	-0.460	-0.280
2020/01/31 08:19:34.5	313.870	0.240	-0.470	-0.240
2020/01/31 08:19:34.6	313.870	0.270	-0.470	-0.210
2020/01/31 08:19:34.7	313.870	0.290	-0.470	-0.170
2020/01/31 08:19:34.8	313.880	0.320	-0.480	-0.130
2020/01/31 08:19:34.9	313.880	0.340	-0.480	-0.100
2020/01/31 08:19:35.0	313.890	0.360	-0.480	-0.060
2020/01/31 08:19:35.1	313.900	0.380	-0.480	-0.020
2020/01/31 08:19:35.2	313.900	0.400	-0.480	0.010
2020/01/31 08:19:35.3	313.920	0.420	-0.480	0.050
2020/01/31 08:19:35.4	313.930	0.440	-0.470	0.080
2020/01/31 08:19:35.5	313.940	0.450	-0.470	0.110
2020/01/31 08:19:35.6	313.960	0.470	-0.470	0.130
2020/01/31 08:19:35.7	313.970	0.480	-0.470	0.160
2020/01/31 08:19:35.8	313.980	0.490	-0.470	0.180
2020/01/31 08:19:35.9	314.000	0.490	-0.470	0.200
2020/01/31 08:19:36.0	314.010	0.500	-0.470	0.220
2020/01/31 08:19:36.1	314.030	0.500	-0.470	0.230
2020/01/31 08:19:36.2	314.040	0.500	-0.470	0.240
2020/01/31 08:19:36.3	314.060	0.500	-0.470	0.250
2020/01/31 08:19:36.4	314.070	0.490	-0.460	0.260
2020/01/31 08:19:36.5	314.080	0.480	-0.460	0.260
2020/01/31 08:19:36.6	314.100	0.470	-0.450	0.260
2020/01/31 08:19:36.7	314.110	0.460	-0.440	0.260
2020/01/31 08:19:36.8	314.120	0.450	-0.440	0.250
2020/01/31 08:19:36.9	314.130	0.430	-0.430	0.240
2020/01/31 08:19:37.0	314.140	0.410	-0.410	0.230
2020/01/31 08:19:37.1	314.150	0.390	-0.400	0.220
2020/01/31 08:19:37.2	314.150	0.360	-0.390	0.210
2020/01/31 08:19:37.3	314.150	0.340	-0.370	0.190
2020/01/31 08:19:37.4	314.160	0.310	-0.350	0.180
2020/01/31 08:19:37.5	314.160	0.280	-0.330	0.160
2020/01/31 08:19:37.6	314.170	0.250	-0.310	0.140
2020/01/31 08:19:37.7	314.170	0.220	-0.290	0.120
2020/01/31 08:19:37.8	314.170	0.180	-0.260	0.110
2020/01/31 08:19:37.9	314.160	0.150	-0.240	0.090
2020/01/31 08:19:38.0	314.160	0.110	-0.210	0.070
2020/01/31 08:19:38.1	314.150	0.070	-0.180	0.060
2020/01/31 08:19:38.2	314.140	0.040	-0.150	0.040
2020/01/31 08:19:38.3	314.130	-0.000	-0.120	0.030
2020/01/31 08:19:38.4	314.120	-0.040	-0.090	0.010
2020/01/31 08:19:38.5	314.110	-0.080	-0.070	-0.000
2020/01/31 08:19:38.6	314.090	-0.120	-0.040	-0.020
2020/01/31 08:19:38.7	314.080	-0.150	-0.010	-0.030
2020/01/31 08:19:38.8	314.060	-0.190	0.010	-0.050
2020/01/31 08:19:38.9	314.050	-0.230	0.030	-0.060
2020/01/31 08:19:39.0	314.030	-0.260	0.050	-0.080
2020/01/31 08:19:39.1	314.020	-0.300	0.070	-0.090
2020/01/31 08:19:39.2	314.000	-0.330	0.080	-0.110
2020/01/31 08:19:39.3	313.990	-0.360	0.100	-0.130
2020/01/31 08:19:39.4				
2020/01/31 08:19:39.5	313.970	-0.380	0.110	-0.150
2020/01/31 08:19:39.6	313.940	-0.430	0.110	-0.190
2020/01/31 08:19:39.7	313.920	-0.450	0.100	-0.220
2020/01/31 08:19:39.8	313.910	-0.470	0.100	-0.240
2020/01/31 08:19:39.9	313.890	-0.490	0.080	-0.270
2020/01/31 08:19:40.0	313.880	-0.500	0.070	-0.300
2020/01/31 08:19:40.1	313.860	-0.510	0.050	-0.330
2020/01/31 08:19:40.2	313.850	-0.520	0.020	-0.360
2020/01/31 08:19:40.3	313.820	-0.520	-0.000	-0.390
2020/01/31 08:19:40.4	313.810	-0.530	-0.030	-0.430
2020/01/31 08:19:40.5	313.800	-0.530	-0.060	-0.460
2020/01/31 08:19:40.6	313.790	-0.520	-0.090	-0.490
2020/01/31 08:19:40.7	313.780	-0.520	-0.130	-0.530
2020/01/31 08:19:40.8	313.770	-0.510	-0.160	-0.560
2020/01/31 08:19:40.9	313.760	-0.500	-0.190	-0.590
2020/01/31 08:19:41.0	313.750	-0.490	-0.230	-0.620
2020/01/31 08:19:41.1	313.740	-0.480	-0.260	-0.640
2020/01/31 08:19:41.2	313.730	-0.460	-0.290	-0.660
2020/01/31 08:19:41.3	313.720	-0.440	-0.320	-0.690
2020/01/31 08:19:41.4	313.720	-0.420	-0.340	-0.710
2020/01/31 08:19:41.5	313.710	-0.400	-0.370	-0.720
2020/01/31 08:19:41.6	313.710	-0.380	-0.390	-0.730
2020/01/31 08:19:41.7	313.700	-0.360	-0.400	-0.740
2020/01/31 08:19:41.8	313.700	-0.340	-0.420	-0.740
2020/01/31 08:19:41.9	313.700	-0.320	-0.430	-0.740
2020/01/31 08:19:42.0	313.700	-0.300	-0.430	-0.740
2020/01/31 08:19:42.1	313.700	-0.270	-0.440	-0.730
2020/01/31 08:19:42.2	313.700	-0.250	-0.430	-0.720
2020/01/31 08:19:42.3	313.700	-0.230	-0.430	-0.700
2020/01/31 08:19:42.4	313.700	-0.210	-0.420	-0.690
2020/01/31 08:19:42.5	313.700	-0.180	-0.410	-0.670
2020/01/31 08:19:42.6	313.710	-0.160	-0.390	-0.650
2020/01/31 08:19:42.7	313.710	-0.140	-0.370	-0.630
2020/01/31 08:19:42.8	313.720	-0.120	-0.350	-0.610
2020/01/31 08:19:42.9	313.720	-0.100	-0.330	-0.590
2020/01/31 08:19:43.0	313.730	-0.080	-0.300	-0.560
2020/01/31 08:19:43.1	313.740	-0.070	-0.270	-0.530
2020/01/31 08:19:43.2	313.750	-0.050	-0.240	-0.510
2020/01/31 08:19:43.3	313.770	-0.030	-0.210	-0.470
2020/01/31 08:19:43.4	313.780	-0.020	-0.180	-0.440
2020/01/31 08:19:43.5	313.790	-0.000	-0.150	-0.410
2020/01/31 08:19:43.6	313.800	0.010	-0.130	-0.380
2020/01/31 08:19:43.7	313.820	0.020	-0.100	-0.350
2020/01/31 08:19:43.8	313.830	0.030	-0.070	-0.310
2020/01/31 08:19:43.9	313.840	0.040	-0.040	-0.280
2020/01/31 08:19:44.0	313.850	0.050	-0.020	-0.250
2020/01/31 08:19:44.1	313.870	0.060	0.000	-0.220
2020/01/31 08:19:44.2	313.880	0.070	0.030	-0.180
2020/01/31 08:19:44.3	313.890	0.080	0.040	-0.150
2020/01/31 08:19:44.4	313.900	0.080	0.060	-0.120
2020/01/31 08:19:44.5	313.910	0.090	0.070	-0.090
2020/01/31 08:19:44.6	313.930	0.100	0.080	-0.060
2020/01/31 08:19:44.7	313.940	0.100	0.090	-0.030
2020/01/31 08:19:44.8	313.950	0.110	0.090	-0.010
2020/01/31 08:19:44.9	313.960	0.110	0.100	0.020
2020/01/31 08:19:45.0	313.980	0.120	0.100	0.040
2020/01/31 08:19:45.1	313.990	0.130	0.090	0.070
2020/01/31 08:19:45.2	314.000	0.130	0.080	0.090
2020/01/31 08:19:45.3	314.020	0.140	0.080	0.100
2020/01/31 08:19:45.4	314.030	0.150	0.070	0.120
2020/01/31 08:19:45.5	314.050	0.160	0.050	0.140
2020/01/31 08:19:45.6	314.060	0.170	0.040	0.150
2020/01/31 08:19:45.7				
2020/01/31 08:19:45.8	314.080	0.180	0.020	0.160
2020/01/31 08:19:45.9	314.110	0.210	-0.030	0.190
2020/01/31 08:19:46.0	314.120	0.220	-0.050	0.200
2020/01/31 08:19:46.1	314.130	0.230	-0.080	0.200
2020/01/31 08:19:46.2	314.150	0.250	-0.110	0.210
2020/01/31 08:19:46.3	314.150	0.270	-0.140	0.220
2020/01/31 08:19:46.4	314.160	0.280	-0.170	0.230
2020/01/31 08:19:46.5	314.170	0.300	-0.200	0.230
2020/01/31 08:19:46.6	314.180	0.310	-0.230	0.240
2020/01/31 08:19:46.7	314.180	0.330	-0.260	0.240
2020/01/31 08:19:46.8	314.180	0.340	-0.290	0.250
2020/01/31 08:19:46.9	314.180	0.360	-0.320	0.250
2020/01/31 08:19:47.0	314.180	0.370	-0.340	0.260
2020/01/31 08:19:47.1	314.180	0.390	-0.370	0.260
2020/01/31 08:19:47.2	314.170	0.400	-0.400	0.270
2020/01/31 08:19:47.3	314.150	0.410	-0.410	0.270
2020/01/31 08:19:47.4	314.140	0.420	-0.440	0.270
2020/01/31 08:19:47.5	314.130	0.430	-0.460	0.270
2020/01/31 08:19:47.6	314.120	0.430	-0.480	0.270
2020/01/31 08:19:47.7	314.100	0.440	-0.500	0.260
2020/01/31 08:19:47.8	314.090	0.440	-0.510	0.260
2020/01/31 08:19:47.9	314.070	0.440	-0.530	0.260
2020/01/31 08:19:48.0	314.060	0.440	-0.540	0.250
2020/01/31 08:19:48.1	314.040	0.430	-0.550	0.240
2020/01/31 08:19:48.2	314.030	0.430	-0.560	0.230
2020/01/31 08:19:48.3	314.020	0.420	-0.570	0.220
2020/01/31 08:19:48.4	314.000	0.410	-0.580	0.210
2020/01/31 08:19:48.5	313.990	0.400	-0.590	0.190
2020/01/31 08:19:48.6	313.970	0.380	-0.590	0.180
2020/01/31 08:19:48.7	313.950	0.370	-0.600	0.160
2020/01/31 08:19:48.8	313.930	0.350	-0.600	0.140
2020/01/31 08:19:48.9	313.910	0.340	-0.600	0.120
2020/01/31 08:19:49.0	313.890	0.320	-0.600	0.100
2020/01/31 08:19:49.1	313.880	0.300	-0.610	0.080
2020/01/31 08:19:49.2	313.860	0.280	-0.600	0.060
2020/01/31 08:19:49.3	313.840	0.260	-0.600	0.040
2020/01/31 08:19:49.4	313.830	0.230	-0.600	0.020
2020/01/31 08:19:49.5	313.810	0.210	-0.600	-0.000
2020/01/31 08:19:49.6	313.790	0.190	-0.590	-0.020
2020/01/31 08:19:49.7	313.780	0.160	-0.590	-0.050
2020/01/31 08:19:49.8	313.760	0.140	-0.580	-0.070
2020/01/31 08:19:49.9				
2020/01/31 08:19:50.0	313.740	0.110	-0.570	-0.090
2020/01/31 08:19:50.1	313.710	0.060	-0.560	-0.140
2020/01/31 08:19:50.2	313.690	0.040	-0.550	-0.170
2020/01/31 08:19:50.3	313.680	0.010	-0.540	-0.190
2020/01/31 08:19:50.4	313.660	-0.010	-0.530	-0.220
2020/01/31 08:19:50.5	313.640	-0.030	-0.520	-0.240
2020/01/31 08:19:50.6	313.630	-0.060	-0.500	-0.270
2020/01/31 08:19:50.7	313.610	-0.080	-0.490	-0.300
2020/01/31 08:19:50.8	313.590	-0.100	-0.480	-0.320
2020/01/31 08:19:50.9	313.580	-0.120	-0.460	-0.350
2020/01/31 08:19:51.0	313.560	-0.140	-0.450	-0.380
2020/01/31 08:19:51.1	313.550	-0.160	-0.440	-0.410
2020/01/31 08:19:51.2	313.530	-0.180	-0.420	-0.430
2020/01/31 08:19:51.3	313.520	-0.200	-0.410	-0.460
2020/01/31 08:19:51.4	313.510	-0.210	-0.390	-0.490
2020/01/31 08:19:51.5	313.500	-0.230	-0.380	-0.520
2020/01/31 08:19:51.6	313.490	-0.240	-0.370	-0.550
2020/01/31 08:19:51.7	313.490	-0.260	-0.360	-0.580
2020/01/31 08:19:51.8	313.490	-0.270	-0.350	-0.610
2020/01/31 08:19:51.9	313.480	-0.280	-0.330	-0.640
2020/01/31 08:19:52.0	313.490	-0.290	-0.320	-0.670
2020/01/31 08:19:52.1	313.490	-0.300	-0.310	-0.700
2020/01/31 08:19:52.2	313.500	-0.310	-0.300	-0.720
2020/01/31 08:19:52.3	313.490	-0.310	-0.290	-0.750
2020/01/31 08:19:52.4	313.500	-0.320	-0.280	-0.780
2020/01/31 08:19:52.5	313.510	-0.320	-0.270	-0.800
2020/01/31 08:19:52.6	313.520	-0.330	-0.260	-0.830
2020/01/31 08:19:52.7	313.530	-0.330	-0.250	-0.850
2020/01/31 08:19:52.8	313.550	-0.330	-0.240	-0.870
2020/01/31 08:19:52.9	313.560	-0.330	-0.230	-0.890
2020/01/31 08:19:53.0	313.580	-0.340	-0.220	-0.910
2020/01/31 08:19:53.1	313.590	-0.340	-0.210	-0.920
2020/01/31 08:19:53.2	313.610	-0.340	-0.200	-0.940
2020/01/31 08:19:53.3	313.630	-0.340	-0.190	-0.950
2020/01/31 08:19:53.4	313.650	-0.340	-0.180	-0.960
2020/01/31 08:19:53.5	313.670	-0.340	-0.160	-0.970
2020/01/31 08:19:53.6	313.680	-0.340	-0.150	-0.980
2020/01/31 08:19:53.7	313.710	-0.330	-0.140	-0.990
2020/01/31 08:19:53.8	313.730	-0.330	-0.130	-1.000
2020/01/31 08:19:53.9	313.750	-0.330	-0.120	-1.000
2020/01/31 08:19:54.0	313.770	-0.330	-0.100	-1.000
2020/01/31 08:19:54.1	313.790	-0.330	-0.090	-1.010
2020/01/31 08:19:54.2	313.820	-0.330	-0.080	-1.010
2020/01/31 08:19:54.3	313.830	-0.330	-0.060	-1.000
2020/01/31 08:19:54.4	313.860	-0.330	-0.050	-1.000
2020/01/31 08:19:54.5	313.880	-0.330	-0.030	-1.000
2020/01/31 08:19:54.6	313.900	-0.330	-0.020	-0.990
2020/01/31 08:19:54.7	313.920	-0.330	-0.000	-0.990
2020/01/31 08:19:54.8	313.940	-0.330	0.020	-0.980
2020/01/31 08:19:54.9	313.960	-0.340	0.030	-0.960
2020/01/31 08:19:55.0	313.980	-0.340	0.050	-0.950
2020/01/31 08:19:55.1	314.000	-0.340	0.060	-0.930
2020/01/31 08:19:55.2	314.020	-0.340	0.080	-0.920
2020/01/31 08:19:55.3	314.030	-0.340	0.100	-0.900
2020/01/31 08:19:55.4	314.040	-0.350	0.120	-0.870
2020/01/31 08:19:55.5	314.060	-0.350	0.130	-0.850
2020/01/31 08:19:55.6	314.070	-0.350	0.150	-0.820
2020/01/31 08:19:55.7	314.070	-0.350	0.170	-0.790
2020/01/31 08:19:55.8	314.080	-0.350	0.180	-0.760
2020/01/31 08:19:55.9	314.080	-0.350	0.200	-0.720
2020/01/31 08:19:56.0	314.080	-0.350	0.220	-0.690
2020/01/31 08:19:56.1	314.080	-0.350	0.230	-0.650
2020/01/31 08:19:56.2				
2020/01/31 08:19:56.3	314.080	-0.350	0.250	-0.610
2020/01/31 08:19:56.4	314.050	-0.340	0.270	-0.520
2020/01/31 08:19:56.5	314.040	-0.330	0.290	-0.480
2020/01/31 08:19:56.6	314.020	-0.330	0.300	-0.430
2020/01/31 08:19:56.7	314.000	-0.320	0.310	-0.380
2020/01/31 08:19:56.8	313.980	-0.310	0.310	-0.340
2020/01/31 08:19:56.9	313.960	-0.290	0.320	-0.290
2020/01/31 08:19:57.0	313.930	-0.280	0.320	-0.240
2020/01/31 08:19:57.1	313.900	-0.260	0.330	-0.190
2020/01/31 08:19:57.2	313.870	-0.240	0.330	-0.140
2020/01/31 08:19:57.3	313.840	-0.220	0.330	-0.090
2020/01/31 08:19:57.4	313.800	-0.200	0.320	-0.050
2020/01/31 08:19:57.5	313.770	-0.180	0.310	0.000
2020/01/31 08:19:57.6	313.730	-0.150	0.300	0.050
2020/01/31 08:19:57.7	313.690	-0.130	0.290	0.090
2020/01/31 08:19:57.8	313.650	-0.100	0.270	0.130
2020/01/31 08:19:57.9	313.610	-0.070	0.250	0.170
2020/01/31 08:19:58.0	313.570	-0.040	0.230	0.210
2020/01/31 08:19:58.1	313.540	-0.010	0.200	0.240
2020/01/31 08:19:58.2	313.500	0.020	0.170	0.280
2020/01/31 08:19:58.3				
2020/01/31 08:19:58.4	313.470	0.050	0.140	0.300
2020/01/31 08:19:58.5	313.390	0.120	0.070	0.350
2020/01/31 08:19:58.6	313.360	0.150	0.030	0.370
2020/01/31 08:19:58.7	313.320	0.190	-0.020	0.380
2020/01/31 08:19:58.8	313.290	0.220	-0.060	0.400
2020/01/31 08:19:58.9	313.260	0.260	-0.110	0.400
2020/01/31 08:19:59.0	313.230	0.290	-0.150	0.410
2020/01/31 08:19:59.1	313.200	0.320	-0.200	0.410
2020/01/31 08:19:59.2	313.170	0.360	-0.250	0.410
2020/01/31 08:19:59.3	313.150	0.390	-0.300	0.410
2020/01/31 08:19:59.4	313.130	0.420	-0.340	0.410
2020/01/31 08:19:59.5	313.110	0.450	-0.390	0.400
2020/01/31 08:19:59.6	313.090	0.480	-0.430	0.390
2020/01/31 08:19:59.7	313.070	0.510	-0.470	0.380
2020/01/31 08:19:59.8	313.050	0.540	-0.520	0.370
2020/01/31 08:19:59.9	313.040	0.570	-0.550	0.360
2020/01/31 08:20:00.0	313.030	0.590	-0.590	0.350
2020/01/31 08:20:00.1	313.020	0.620	-0.620	0.340
2020/01/31 08:20:00.2	313.010	0.640	-0.650	0.320
2020/01/31 08:20:00.3	313.000	0.660	-0.680	0.310
2020/01/31 08:20:00.4				
2020/01/31 08:20:00.5	313.000	0.680	-0.710	0.290
2020/01/31 08:20:00.6	313.000	0.710	-0.750	0.270
2020/01/31 08:20:00.7	313.000	0.730	-0.770	0.250
2020/01/31 08:20:00.8	313.000	0.740	-0.790	0.240
2020/01/31 08:20:00.9	313.000	0.750	-0.800	0.230
2020/01/31 08:20:01.0	313.010	0.750	-0.810	0.210
2020/01/31 08:20:01.1	313.010	0.760	-0.820	0.200
2020/01/31 08:20:01.2	313.010	0.760	-0.830	0.190
2020/01/31 08:20:01.3	313.020	0.760	-0.840	0.180
2020/01/31 08:20:01.4	313.020	0.760	-0.840	0.170
2020/01/31 08:20:01.5	313.030	0.750	-0.840	0.160
2020/01/31 08:20:01.6	313.040	0.740	-0.840	0.150
2020/01/31 08:20:01.7	313.040	0.730	-0.840	0.140
2020/01/31 08:20:01.8	313.050	0.710	-0.840	0.120
2020/01/31 08:20:01.9	313.060	0.700	-0.830	0.110
2020/01/31 08:20:02.0	313.070	0.680	-0.830	0.100
2020/01/31 08:20:02.1	313.080	0.660	-0.820	0.080
2020/01/31 08:20:02.2	313.090	0.630	-0.820	0.070
2020/01/31 08:20:02.3	313.110	0.610	-0.810	0.050
2020/01/31 08:20:02.4	313.120	0.580	-0.810	0.030
2020/01/31 08:20:02.5				
2020/01/31 08:20:02.6	313.140	0.550	-0.800	0.010
2020/01/31 08:20:02.7	313.170	0.490	-0.790	-0.030
2020/01/31 08:20:02.8	313.180	0.450	-0.780	-0.060
2020/01/31 08:20:02.9	313.200	0.420	-0.770	-0.090
2020/01/31 08:20:03.0	313.220	0.380	-0.760	-0.120
2020/01/31 08:20:03.1	313.240	0.350	-0.760	-0.150
2020/01/31 08:20:03.2	313.260	0.310	-0.750	-0.180
2020/01/31 08:20:03.3	313.280	0.270	-0.740	-0.220
2020/01/31 08:20:03.4	313.300	0.230	-0.730	-0.260
2020/01/31 08:20:03.5	313.320	0.190	-0.720	-0.300
2020/01/31 08:20:03.6	313.340	0.150	-0.710	-0.340
2020/01/31 08:20:03.7	313.360	0.100	-0.690	-0.380
2020/01/31 08:20:03.8	313.380	0.060	-0.680	-0.420
2020/01/31 08:20:03.9	313.390	0.020	-0.660	-0.460
2020/01/31 08:20:04.0	313.410	-0.020	-0.650	-0.500
2020/01/31 08:20:04.1	313.420	-0.060	-0.630	-0.540
2020/01/31 08:20:04.2	313.440	-0.100	-0.610	-0.580
2020/01/31 08:20:04.3	313.450	-0.140	-0.580	-0.620
2020/01/31 08:20:04.4	313.460	-0.180	-0.560	-0.660
2020/01/31 08:20:04.5	313.470	-0.220	-0.530	-0.690
2020/01/31 08:20:04.6	313.480	-0.260	-0.500	-0.720
2020/01/31 08:20:04.7	313.480	-0.290	-0.470	-0.750
2020/01/31 08:20:04.8	313.490	-0.330	-0.430	-0.780
2020/01/31 08:20:04.9	313.490	-0.360	-0.400	-0.800
2020/01/31 08:20:05.0	313.490	-0.400	-0.360	-0.830
2020/01/31 08:20:05.1	313.490	-0.430	-0.320	-0.840
2020/01/31 08:20:05.2	313.490	-0.460	-0.280	-0.860
2020/01/31 08:20:05.3	313.490	-0.490	-0.240	-0.870
2020/01/31 08:20:05.4	313.490	-0.520	-0.200	-0.880
2020/01/31 08:20:05.5	313.480	-0.540	-0.150	-0.880
2020/01/31 08:20:05.6	313.480	-0.570	-0.110	-0.890
2020/01/31 08:20:05.7	313.480	-0.590	-0.070	-0.890
2020/01/31 08:20:05.8	313.470	-0.610	-0.020	-0.880
2020/01/31 08:20:05.9	313.470	-0.630	0.020	-0.880
2020/01/31 08:20:06.0	313.470	-0.650	0.060	-0.870
2020/01/31 08:20:06.1	313.460	-0.670	0.100	-0.860
2020/01/31 08:20:06.2	313.460	-0.680	0.140	-0.850
2020/01/31 08:20:06.3	313.450	-0.690	0.170	-0.840
2020/01/31 08:20:06.4	313.450	-0.700	0.210	-0.820
2020/01/31 08:20:06.5	313.440	-0.710	0.240	-0.800
2020/01/31 08:20:06.6	313.440	-0.720	0.270	-0.780
2020/01/31 08:20:06.7				
2020/01/31 08:20:06.8	313.430	-0.720	0.290	-0.760
2020/01/31 08:20:06.9	313.420	-0.730	0.340	-0.720
2020/01/31 08:20:07.0	313.410	-0.730	0.360	-0.700
2020/01/31 08:20:07.1	313.400	-0.730	0.380	-0.670
2020/01/31 08:20:07.2	313.390	-0.730	0.390	-0.640
2020/01/31 08:20:07.3	313.380	-0.720	0.400	-0.620
2020/01/31 08:20:07.4	313.370	-0.720	0.410	-0.590
2020/01/31 08:20:07.5	313.360	-0.710	0.420	-0.560
2020/01/31 08:20:07.6	313.350	-0.700	0.430	-0.530
2020/01/31 08:20:07.7	313.340	-0.690	0.430	-0.510
2020/01/31 08:20:07.8	313.330	-0.670	0.430	-0.480
2020/01/31 08:20:07.9	313.320	-0.660	0.430	-0.450
2020/01/31 08:20:08.0	313.310	-0.650	0.430	-0.430
2020/01/31 08:20:08.1	313.310	-0.630	0.430	-0.400
2020/01/31 08:20:08.2	313.300	-0.610	0.420	-0.370
2020/01/31 08:20:08.3	313.280	-0.590	0.420	-0.350
2020/01/31 08:20:08.4	313.280	-0.570	0.410	-0.330
2020/01/31 08:20:08.5	313.270	-0.550	0.400	-0.310
2020/01/31 08:20:08.6	313.260	-0.530	0.380	-0.280
2020/01/31 08:20:08.7	313.250	-0.500	0.370	-0.260
2020/01/31 08:20:08.8	313.240	-0.480	0.350	-0.250
2020/01/31 08:20:08.9	313.240	-0.450	0.330	-0.230
2020/01/31 08:20:09.0	313.230	-0.430	0.310	-0.210
2020/01/31 08:20:09.1	313.220	-0.400	0.290	-0.200
2020/01/31 08:20:09.2	313.210	-0.370	0.270	-0.190
2020/01/31 08:20:09.3	313.200	-0.340	0.240	-0.170
2020/01/31 08:20:09.4	313.190	-0.310	0.210	-0.160
2020/01/31 08:20:09.5	313.180	-0.280	0.190	-0.150
2020/01/31 08:20:09.6	313.170	-0.250	0.160	-0.140
2020/01/31 08:20:09.7	313.170	-0.210	0.130	-0.130
2020/01/31 08:20:09.8	313.160	-0.180	0.100	-0.120
2020/01/31 08:20:09.9	313.150	-0.150	0.080	-0.110
2020/01/31 08:20:10.0	313.140	-0.120	0.050	-0.110
2020/01/31 08:20:10.1	313.130	-0.090	0.020	-0.100
2020/01/31 08:20:10.2	313.120	-0.060	-0.010	-0.090
2020/01/31 08:20:10.3	313.110	-0.030	-0.030	-0.080
2020/01/31 08:20:10.4	313.100	0.000	-0.060	-0.070
2020/01/31 08:20:10.5	313.090	0.030	-0.090	-0.060
2020/01/31 08:20:10.6	313.080	0.060	-0.110	-0.050
2020/01/31 08:20:10.7	313.060	0.090	-0.140	-0.040
2020/01/31 08:20:10.8	313.050	0.120	-0.160	-0.030
2020/01/31 08:20:10.9	313.040	0.140	-0.190	-0.030
2020/01/31 08:20:11.0	313.020	0.170	-0.210	-0.020
2020/01/31 08:20:11.1	313.010	0.190	-0.230	-0.010
2020/01/31 08:20:11.2	312.990	0.220	-0.260	-0.000
2020/01/31 08:20:11.3	312.980	0.240	-0.280	0.000
2020/01/31 08:20:11.4	312.970	0.260	-0.300	0.010
2020/01/31 08:20:11.5	312.960	0.280	-0.330	0.010
2020/01/31 08:20:11.6	312.950	0.300	-0.350	0.010
2020/01/31 08:20:11.7	312.940	0.320	-0.370	0.010
2020/01/31 08:20:11.8	312.930	0.340	-0.400	0.010
2020/01/31 08:20:11.9	312.920	0.360	-0.420	0.000
2020/01/31 08:20:12.0	312.920	0.370	-0.440	-0.000
2020/01/31 08:20:12.1	312.910	0.390	-0.470	-0.010
2020/01/31 08:20:12.2	312.910	0.400	-0.490	-0.030
2020/01/31 08:20:12.3	312.920	0.420	-0.520	-0.040
2020/01/31 08:20:12.4	312.920	0.430	-0.540	-0.060
2020/01/31 08:20:12.5	312.930	0.450	-0.560	-0.070
2020/01/31 08:20:12.6	312.940	0.460	-0.590	-0.100
2020/01/31 08:20:12.7	312.950	0.470	-0.610	-0.120
2020/01/31 08:20:12.8	312.960	0.480	-0.630	-0.140
2020/01/31 08:20:12.9	312.980	0.490	-0.660	-0.170
2020/01/31 08:20:13.0				
2020/01/31 08:20:13.1	313.000	0.500	-0.680	-0.200
2020/01/31 08:20:13.2	313.050	0.520	-0.710	-0.260
2020/01/31 08:20:13.3	313.090	0.530	-0.730	-0.290
2020/01/31 08:20:13.4	313.110	0.530	-0.740	-0.320
2020/01/31 08:20:13.5	313.140	0.540	-0.750	-0.350
2020/01/31 08:20:13.6	313.170	0.550	-0.760	-0.370
2020/01/31 08:20:13.7	313.200	0.550	-0.770	-0.400
2020/01/31 08:20:13.8	313.230	0.550	-0.770	-0.430
2020/01/31 08:20:13.9	313.260	0.560	-0.770	-0.460
2020/01/31 08:20:14.0	313.290	0.560	-0.760	-0.480
2020/01/31 08:20:14.1	313.320	0.560	-0.760	-0.500
2020/01/31 08:20:14.2	313.340	0.560	-0.750	-0.520
2020/01/31 08:20:14.3	313.370	0.550	-0.730	-0.540
2020/01/31 08:20:14.4	313.390	0.550	-0.710	-0.550
2020/01/31 08:20:14.5	313.410	0.550	-0.690	-0.560
2020/01/31 08:20:14.6	313.430	0.540	-0.670	-0.570
2020/01/31 08:20:14.7	313.450	0.530	-0.650	-0.580
2020/01/31 08:20:14.8	313.460	0.520	-0.620	-0.580
2020/01/31 08:20:14.9	313.470	0.520	-0.590	-0.570
2020/01/31 08:20:15.0	313.480	0.510	-0.560	-0.560
2020/01/31 08:20:15.1				
2020/01/31 08:20:15.2	313.480	0.490	-0.530	-0.550
2020/01/31 08:20:15.3	313.490	0.470	-0.450	-0.520
2020/01/31 08:20:15.4	313.480	0.450	-0.420	-0.490
2020/01/31 08:20:15.5	313.480	0.440	-0.380	-0.470
2020/01/31 08:20:15.6	313.470	0.420	-0.350	-0.440
2020/01/31 08:20:15.7	313.460	0.410	-0.320	-0.410
2020/01/31 08:20:15.8	313.450	0.390	-0.280	-0.370
2020/01/31 08:20:15.9	313.440	0.370	-0.250	-0.340
2020/01/31 08:20:16.0	313.430	0.350	-0.220	-0.300
2020/01/31 08:20:16.1	313.420	0.340	-0.190	-0.270
2020/01/31 08:20:16.2	313.410	0.320	-0.160	-0.230
2020/01/31 08:20:16.3	313.400	0.300	-0.140	-0.190
2020/01/31 08:20:16.4	313.380	0.280	-0.110	-0.150
2020/01/31 08:20:16.5	313.370	0.260	-0.090	-0.120
2020/01/31 08:20:16.6	313.350	0.240	-0.070	-0.080
2020/01/31 08:20:16.7	313.340	0.220	-0.060	-0.040
2020/01/31 08:20:16.8	313.320	0.200	-0.050	-0.010
2020/01/31 08:20:16.9	313.300	0.180	-0.040	0.030
2020/01/31 08:20:17.0	313.290	0.170	-0.030	0.060
2020/01/31 08:20:17.1	313.270	0.150	-0.020	0.100
2020/01/31 08:20:17.2				
2020/01/31 08:20:17.3	313.250	0.130	-0.020	0.130
2020/01/31 08:20:17.4	313.220	0.100	-0.030	0.190
2020/01/31 08:20:17.5	313.200	0.080	-0.030	0.210
2020/01/31 08:20:17.6	313.190	0.060	-0.040	0.230
2020/01/31 08:20:17.7	313.170	0.050	-0.050	0.250
2020/01/31 08:20:17.8	313.160	0.030	-0.060	0.270
2020/01/31 08:20:17.9	313.140	0.010	-0.080	0.280
2020/01/31 08:20:18.0	313.130	-0.000	-0.090	0.280
2020/01/31 08:20:18.1	313.110	-0.020	-0.110	0.280
2020/01/31 08:20:18.2	313.100	-0.040	-0.130	0.280
2020/01/31 08:20:18.3	313.080	-0.050	-0.140	0.280
2020/01/31 08:20:18.4	313.070	-0.070	-0.160	0.270
2020/01/31 08:20:18.5	313.060	-0.090	-0.190	0.250
2020/01/31 08:20:18.6	313.050	-0.100	-0.210	0.230
2020/01/31 08:20:18.7	313.040	-0.120	-0.230	0.210
2020/01/31 08:20:18.8	313.030	-0.140	-0.250	0.180
2020/01/31 08:20:18.9	313.020	-0.150	-0.270	0.150
2020/01/31 08:20:19.0	313.020	-0.170	-0.300	0.120
2020/01/31 08:20:19.1	313.010	-0.190	-0.320	0.080
2020/01/31 08:20:19.2	313.010	-0.200	-0.340	0.040
2020/01/31 08:20:19.3				
2020/01/31 08:20:19.4	313.000	-0.220	-0.360	0.000
2020/01/31 08:20:19.5	312.990	-0.250	-0.400	-0.090
2020/01/31 08:20:19.6	313.000	-0.270	-0.410	-0.140
2020/01/31 08:20:19.7	313.000	-0.290	-0.430	-0.190
2020/01/31 08:20:19.8	313.000	-0.300	-0.440	-0.240
2020/01/31 08:20:19.9	313.010	-0.320	-0.450	-0.290
2020/01/31 08:20:20.0	313.010	-0.330	-0.460	-0.340
2020/01/31 08:20:20.1	313.020	-0.350	-0.470	-0.390
2020/01/31 08:20:20.2	313.030	-0.360	-0.470	-0.450
2020/01/31 08:20:20.3	313.040	-0.380	-0.470	-0.500
2020/01/31 08:20:20.4	313.050	-0.390	-0.470	-0.550
2020/01/31 08:20:20.5	313.060	-0.400	-0.470	-0.600
2020/01/31 08:20:20.6	313.070	-0.410	-0.460	-0.650
2020/01/31 08:20:20.7	313.080	-0.430	-0.460	-0.690
2020/01/31 08:20:20.8	313.100	-0.440	-0.450	-0.740
2020/01/31 08:20:20.9	313.110	-0.440	-0.440	-0.780
2020/01/31 08:20:21.0	313.120	-0.450	-0.420	-0.820
2020/01/31 08:20:21.1	313.140	-0.460	-0.410	-0.860
2020/01/31 08:20:21.2	313.150	-0.460	-0.390	-0.890
2020/01/31 08:20:21.3	313.160	-0.470	-0.370	-0.920
2020/01/31 08:20:21.4				
2020/01/31 08:20:21.5	313.170	-0.470	-0.350	-0.950
2020/01/31 08:20:21.6	313.200	-0.470	-0.300	-1.000
2020/01/31 08:20:21.7	313.210	-0.470	-0.280	-1.010
2020/01/31 08:20:21.8	313.220	-0.460	-0.250	-1.030
2020/01/31 08:20:21.9	313.240	-0.460	-0.220	-1.040
2020/01/31 08:20:22.0	313.250	-0.450	-0.190	-1.040
2020/01/31 08:20:22.1	313.260	-0.440	-0.160	-1.040
2020/01/31 08:20:22.2	313.270	-0.440	-0.130	-1.030
2020/01/31 08:20:22.3	313.270	-0.430	-0.090	-1.020
2020/01/31 08:20:22.4	313.280	-0.420	-0.060	-1.010
2020/01/31 08:20:22.5	313.290	-0.410	-0.030	-0.990
2020/01/31 08:20:22.6	313.290	-0.390	0.000	-0.970
2020/01/31 08:20:22.7	313.300	-0.380	0.040	-0.950
2020/01/31 08:20:22.8	313.310	-0.370	0.070	-0.920
2020/01/31 08:20:22.9	313.310	-0.360	0.090	-0.890
2020/01/31 08:20:23.0	313.320	-0.340	0.120	-0.860
2020/01/31 08:20:23.1	313.320	-0.330	0.140	-0.830
2020/01/31 08:20:23.2	313.330	-0.310	0.160	-0.800
2020/01/31 08:20:23.3	313.330	-0.300	0.170	-0.760
2020/01/31 08:20:23.4	313.340	-0.280	0.190	-0.730
2020/01/31 08:20:23.5				
2020/01/31 08:20:23.6	313.350	-0.270	0.190	-0.690
2020/01/31 08:20:23.7	313.360	-0.240	0.200	-0.620
2020/01/31 08:20:23.8	313.370	-0.230	0.200	-0.590
2020/01/31 08:20:23.9	313.380	-0.210	0.190	-0.550
2020/01/31 08:20:24.0	313.390	-0.200	0.180	-0.520
2020/01/31 08:20:24.1	313.400	-0.180	0.170	-0.480
2020/01/31 08:20:24.2	313.400	-0.170	0.150	-0.450
2020/01/31 08:20:24.3	313.420	-0.150	0.140	-0.410
2020/01/31 08:20:24.4	313.430	-0.140	0.120	-0.380
2020/01/31 08:20:24.5	313.440	-0.120	0.100	-0.340
2020/01/31 08:20:24.6	313.440	-0.110	0.070	-0.310
2020/01/31 08:20:24.7	313.450	-0.100	0.050	-0.270
2020/01/31 08:20:24.8	313.460	-0.080	0.020	-0.240
2020/01/31 08:20:24.9	313.470	-0.070	-0.000	-0.200
2020/01/31 08:20:25.0	313.480	-0.060	-0.030	-0.170
2020/01/31 08:20:25.1	313.490	-0.050	-0.050	-0.130
2020/01/31 08:20:25.2	313.490	-0.030	-0.070	-0.090
2020/01/31 08:20:25.3	313.490	-0.020	-0.090	-0.050
2020/01/31 08:20:25.4	313.500	-0.010	-0.110	-0.010
2020/01/31 08:20:25.5	313.500	0.000	-0.130	0.030
2020/01/31 08:20:25.6				
2020/01/31 08:20:25.7	313.500	0.010	-0.140	0.080
2020/01/31 08:20:25.8	313.490	0.030	-0.160	0.160
2020/01/31 08:20:25.9	313.480	0.040	-0.160	0.210
2020/01/31 08:20:26.0	313.480	0.050	-0.170	0.250
2020/01/31 08:20:26.1	313.470	0.070	-0.170	0.300
2020/01/31 08:20:26.2	313.460	0.080	-0.170	0.340
2020/01/31 08:20:26.3	313.450	0.080	-0.170	0.390
2020/01/31 08:20:26.4	313.440	0.090	-0.160	0.430
2020/01/31 08:20:26.5	313.430	0.100	-0.160	0.470
2020/01/31 08:20:26.6	313.410	0.110	-0.150	0.510
2020/01/31 08:20:26.7	313.390	0.120	-0.150	0.550
2020/01/31 08:20:26.8	313.370	0.130	-0.140	0.590
2020/01/31 08:20:26.9	313.350	0.140	-0.140	0.620
2020/01/31 08:20:27.0	313.330	0.150	-0.130	0.660
2020/01/31 08:20:27.1	313.310	0.160	-0.130	0.680
2020/01/31 08:20:27.2	313.290	0.170	-0.130	0.710
2020/01/31 08:20:27.3	313.270	0.170	-0.130	0.740
2020/01/31 08:20:27.4	313.240	0.180	-0.130	0.750
2020/01/31 08:20:27.5	313.220	0.190	-0.130	0.770
2020/01/31 08:20:27.6	313.200	0.200	-0.140	0.780
2020/01/31 08:20:27.7				
2020/01/31 08:20:27.8	313.180	0.210	-0.150	0.790
2020/01/31 08:20:27.9	313.150	0.230	-0.180	0.780
2020/01/31 08:20:28.0	313.130	0.250	-0.200	0.770
2020/01/31 08:20:28.1	313.120	0.260	-0.220	0.760
2020/01/31 08:20:28.2	313.100	0.270	-0.240	0.740
2020/01/31 08:20:28.3	313.090	0.290	-0.270	0.720
2020/01/31 08:20:28.4	313.080	0.300	-0.300	0.690
2020/01/31 08:20:28.5	313.070	0.310	-0.320	0.660
2020/01/31 08:20:28.6	313.060	0.330	-0.350	0.620
2020/01/31 08:20:28.7	313.050	0.340	-0.390	0.580
2020/01/31 08:20:28.8	313.040	0.360	-0.420	0.540
2020/01/31 08:20:28.9	313.040	0.370	-0.450	0.500
2020/01/31 08:20:29.0	313.030	0.390	-0.480	0.450
2020/01/31 08:20:29.1	313.030	0.400	-0.520	0.400
2020/01/31 08:20:29.2	313.020	0.420	-0.550	0.350
2020/01/31 08:20:29.3	313.020	0.430	-0.570	0.300
2020/01/31 08:20:29.4	313.010	0.450	-0.600	0.250
2020/01/31 08:20:29.5	313.010	0.460	-0.630	0.200
2020/01/31 08:20:29.6	313.020	0.480	-0.660	0.140
2020/01/31 08:20:29.7	313.020	0.490	-0.680	0.090
2020/01/31 08:20:29.8				
2020/01/31 08:20:29.9	313.020	0.500	-0.700	0.040
2020/01/31 08:20:30.0	313.040	0.520	-0.730	-0.070
2020/01/31 08:20:30.1	313.050	0.530	-0.740	-0.120
2020/01/31 08:20:30.2	313.060	0.540	-0.750	-0.170
2020/01/31 08:20:30.3	313.080	0.540	-0.760	-0.230
2020/01/31 08:20:30.4	313.090	0.540	-0.760	-0.270
2020/01/31 08:20:30.5	313.100	0.550	-0.760	-0.320
2020/01/31 08:20:30.6	313.120	0.550	-0.760	-0.360
2020/01/31 08:20:30.7	313.130	0.540	-0.750	-0.400
2020/01/31 08:20:30.8	313.140	0.540	-0.740	-0.440
2020/01/31 08:20:30.9	313.150	0.530	-0.730	-0.480
2020/01/31 08:20:31.0	313.160	0.530	-0.720	-0.510
2020/01/31 08:20:31.1	313.170	0.520	-0.700	-0.540
2020/01/31 08:20:31.2	313.180	0.500	-0.680	-0.570
2020/01/31 08:20:31.3	313.200	0.490	-0.660	-0.590
2020/01/31 08:20:31.4	313.210	0.470	-0.630	-0.610
2020/01/31 08:20:31.5	313.220	0.450	-0.610	-0.630
2020/01/31 08:20:31.6	313.220	0.430	-0.580	-0.640
2020/01/31 08:20:31.7	313.230	0.410	-0.560	-0.650
2020/01/31 08:20:31.8	313.240	0.380	-0.530	-0.670
2020/01/31 08:20:31.9				
2020/01/31 08:20:32.0	313.250	0.350	-0.500	-0.670
2020/01/31 08:20:32.1	313.270	0.300	-0.440	-0.690
2020/01/31 08:20:32.2	313.280	0.260	-0.420	-0.690
2020/01/31 08:20:32.3	313.290	0.230	-0.390	-0.690
2020/01/31 08:20:32.4	313.290	0.200	-0.360	-0.700
2020/01/31 08:20:32.5	313.300	0.160	-0.340	-0.700
2020/01/31 08:20:32.6	313.310	0.130	-0.310	-0.700
2020/01/31 08:20:32.7	313.320	0.090	-0.290	-0.700
2020/01/31 08:20:32.8	313.330	0.060	-0.270	-0.700
2020/01/31 08:20:32.9	313.330	0.020	-0.250	-0.690
2020/01/31 08:20:33.0	313.340	-0.010	-0.230	-0.690
2020/01/31 08:20:33.1	313.350	-0.050	-0.210	-0.690
2020/01/31 08:20:33.2	313.360	-0.090	-0.190	-0.680
2020/01/31 08:20:33.3	313.360	-0.120	-0.170	-0.680
2020/01/31 08:20:33.4	313.360	-0.160	-0.150	-0.670
2020/01/31 08:20:33.5	313.370	-0.200	-0.140	-0.660
2020/01/31 08:20:33.6	313.370	-0.230	-0.120	-0.650
2020/01/31 08:20:33.7	313.380	-0.270	-0.110	-0.640
2020/01/31 08:20:33.8	313.380	-0.300	-0.090	-0.630
2020/01/31 08:20:33.9	313.380	-0.340	-0.080	-0.620
2020/01/31 08:20:34.0				
2020/01/31 08:20:34.1	313.390	-0.370	-0.070	-0.610
2020/01/31 08:20:34.2	313.390	-0.430	-0.050	-0.580
2020/01/31 08:20:34.3	313.390	-0.460	-0.030	-0.570
2020/01/31 08:20:34.4	313.380	-0.490	-0.020	-0.550
2020/01/31 08:20:34.5	313.380	-0.520	-0.010	-0.530
2020/01/31 08:20:34.6	313.370	-0.540	-0.000	-0.510
2020/01/31 08:20:34.7	313.370	-0.560	0.010	-0.480
2020/01/31 08:20:34.8	313.360	-0.590	0.010	-0.460
2020/01/31 08:20:34.9	313.350	-0.610	0.020	-0.430
2020/01/31 08:20:35.0	313.340	-0.620	0.030	-0.410
2020/01/31 08:20:35.1	313.330	-0.640	0.040	-0.380
2020/01/31 08:20:35.2	313.330	-0.650	0.050	-0.350
2020/01/31 08:20:35.3	313.320	-0.660	0.050	-0.320
2020/01/31 08:20:35.4	313.310	-0.670	0.060	-0.300
2020/01/31 08:20:35.5	313.310	-0.680	0.060	-0.270
2020/01/31 08:20:35.6	313.300	-0.680	0.070	-0.240
2020/01/31 08:20:35.7	313.290	-0.680	0.070	-0.210
2020/01/31 08:20:35.8	313.280	-0.670	0.070	-0.180
2020/01/31 08:20:35.9				
2020/01/31 08:20:36.0	313.280	-0.670	0.070	-0.160
2020/01/31 08:20:36.1				
2020/01/31 08:20:36.2	313.270	-0.650	0.070	-0.100
2020/01/31 08:20:36.3				
2020/01/31 08:20:36.4	313.270	-0.620	0.070	-0.060
2020/01/31 08:20:36.5	313.270	-0.580	0.060	-0.010
2020/01/31 08:20:36.6	313.280	-0.550	0.050	0.010
2020/01/31 08:20:36.7	313.280	-0.530	0.040	0.030
2020/01/31 08:20:36.8	313.280	-0.500	0.030	0.040
2020/01/31 08:20:36.9	313.280	-0.470	0.020	0.060
2020/01/31 08:20:37.0	313.280	-0.440	0.010	0.080
2020/01/31 08:20:37.1	313.280	-0.410	-0.000	0.090
2020/01/31 08:20:37.2	313.280	-0.380	-0.010	0.110
2020/01/31 08:20:37.3	313.280	-0.340	-0.030	0.120
2020/01/31 08:20:37.4	313.280	-0.310	-0.040	0.130
2020/01/31 08:20:37.5	313.280	-0.270	-0.050	0.150
2020/01/31 08:20:37.6	313.270	-0.230	-0.060	0.160
2020/01/31 08:20:37.7	313.270	-0.200	-0.070	0.170
2020/01/31 08:20:37.8	313.260	-0.160	-0.080	0.180
2020/01/31 08:20:37.9	313.250	-0.120	-0.090	0.200
2020/01/31 08:20:38.0	313.240	-0.080	-0.100	0.210
2020/01/31 08:20:38.1	313.240	-0.040	-0.110	0.220
2020/01/31 08:20:38.2				
2020/01/31 08:20:38.3	313.230	-0.010	-0.120	0.230
2020/01/31 08:20:38.4	313.210	0.030	-0.120	0.240
2020/01/31 08:20:38.5	313.190	0.100	-0.140	0.260
2020/01/31 08:20:38.6	313.180	0.140	-0.150	0.260
2020/01/31 08:20:38.7	313.170	0.170	-0.160	0.270
2020/01/31 08:20:38.8	313.160	0.210	-0.170	0.270
2020/01/31 08:20:38.9	313.150	0.240	-0.180	0.270
2020/01/31 08:20:39.0	313.140	0.270	-0.190	0.270
2020/01/31 08:20:39.1	313.140	0.300	-0.200	0.270
2020/01/31 08:20:39.2	313.130	0.330	-0.210	0.270
2020/01/31 08:20:39.3	313.120	0.350	-0.220	0.260
2020/01/31 08:20:39.4	313.120	0.380	-0.230	0.250
2020/01/31 08:20:39.5	313.110	0.400	-0.240	0.240
2020/01/31 08:20:39.6	313.110	0.420	-0.250	0.220
2020/01/31 08:20:39.7	313.110	0.440	-0.260	0.210
2020/01/31 08:20:39.8	313.110	0.460	-0.280	0.190
2020/01/31 08:20:39.9	313.110	0.470	-0.290	0.170
2020/01/31 08:20:40.0	313.110	0.480	-0.300	0.150
2020/01/31 08:20:40.1				
2020/01/31 08:20:40.2	313.110	0.490	-0.310	0.130
2020/01/31 08:20:40.3				
2020/01/31 08:20:40.4	313.110	0.500	-0.320	0.090
2020/01/31 08:20:40.5	313.110	0.500	-0.340	0.050
2020/01/31 08:20:40.6	313.110	0.500	-0.340	0.020
2020/01/31 08:20:40.7	313.120	0.490	-0.340	0.000
2020/01/31 08:20:40.8	313.120	0.480	-0.350	-0.020
2020/01/31 08:20:40.9	313.120	0.470	-0.350	-0.040
2020/01/31 08:20:41.0	313.130	0.450	-0.350	-0.060
2020/01/31 08:20:41.1	313.130	0.440	-0.340	-0.080
2020/01/31 08:20:41.2	313.130	0.420	-0.340	-0.100
2020/01/31 08:20:41.3	313.130	0.390	-0.340	-0.120
2020/01/31 08:20:41.4	313.130	0.370	-0.330	-0.130
2020/01/31 08:20:41.5	313.130	0.340	-0.330	-0.150
2020/01/31 08:20:41.6	313.130	0.310	-0.320	-0.160
2020/01/31 08:20:41.7	313.120	0.280	-0.310	-0.180
2020/01/31 08:20:41.8	313.120	0.250	-0.300	-0.190
2020/01/31 08:20:41.9	313.120	0.210	-0.290	-0.210
2020/01/31 08:20:42.0	313.110	0.180	-0.290	-0.220
2020/01/31 08:20:42.1	313.110	0.140	-0.280	-0.230
2020/01/31 08:20:42.2	313.110	0.100	-0.270	-0.250
2020/01/31 08:20:42.3	313.100	0.070	-0.260	-0.260
2020/01/31 08:20:42.4				
2020/01/31 08:20:42.5	313.100	0.030	-0.260	-0.270
2020/01/31 08:20:42.6	313.090	-0.050	-0.240	-0.300
2020/01/31 08:20:42.7	313.090	-0.080	-0.240	-0.320
2020/01/31 08:20:42.8	313.090	-0.120	-0.240	-0.330
2020/01/31 08:20:42.9	313.090	-0.150	-0.240	-0.350
2020/01/31 08:20:43.0	313.100	-0.180	-0.240	-0.360
2020/01/31 08:20:43.1	313.100	-0.210	-0.240	-0.380
2020/01/31 08:20:43.2	313.110	-0.240	-0.240	-0.400
2020/01/31 08:20:43.3	313.100	-0.270	-0.250	-0.410
2020/01/31 08:20:43.4	313.110	-0.290	-0.250	-0.430
2020/01/31 08:20:43.5	313.120	-0.310	-0.260	-0.440
2020/01/31 08:20:43.6	313.130	-0.330	-0.270	-0.450
2020/01/31 08:20:43.7	313.140	-0.350	-0.280	-0.470
2020/01/31 08:20:43.8	313.150	-0.370	-0.290	-0.480
2020/01/31 08:20:43.9	313.160	-0.380	-0.300	-0.480
2020/01/31 08:20:44.0	313.170	-0.390	-0.310	-0.490
2020/01/31 08:20:44.1	313.180	-0.400	-0.320	-0.500
2020/01/31 08:20:44.2	313.190	-0.400	-0.330	-0.500
2020/01/31 08:20:44.3				
2020/01/31 08:20:44.4	313.200	-0.410	-0.340	-0.500
2020/01/31 08:20:44.5				
2020/01/31 08:20:44.6	313.220	-0.400	-0.370	-0.500
2020/01/31 08:20:44.7	313.240	-0.390	-0.390	-0.480
2020/01/31 08:20:44.8	313.250	-0.380	-0.400	-0.470
2020/01/31 08:20:44.9	313.260	-0.370	-0.420	-0.460
2020/01/31 08:20:45.0	313.270	-0.360	-0.430	-0.450
2020/01/31 08:20:45.1				
2020/01/31 08:20:45.2	313.280	-0.340	-0.440	-0.430
2020/01/31 08:20:45.3	313.300	-0.300	-0.460	-0.390
2020/01/31 08:20:45.4	313.310	-0.280	-0.470	-0.360
2020/01/31 08:20:45.5	313.320	-0.260	-0.470	-0.340
2020/01/31 08:20:45.6	313.320	-0.230	-0.470	-0.310
2020/01/31 08:20:45.7	313.330	-0.210	-0.480	-0.280
2020/01/31 08:20:45.8	313.340	-0.180	-0.480	-0.250
2020/01/31 08:20:45.9	313.340	-0.150	-0.480	-0.210
2020/01/31 08:20:46.0				
2020/01/31 08:20:46.1	313.350	-0.120	-0.470	-0.180
2020/01/31 08:20:46.2	313.350	-0.090	-0.470	-0.140
2020/01/31 08:20:46.3	313.350	-0.060	-0.460	-0.110
2020/01/31 08:20:46.4	313.350	-0.000	-0.440	-0.030
2020/01/31 08:20:46.5	313.350	0.030	-0.430	0.010
2020/01/31 08:20:46.6				
2020/01/31 08:20:46.7	313.350	0.050	-0.420	0.040
2020/01/31 08:20:46.8	313.340	0.110	-0.400	0.110
2020/01/31 08:20:46.9	313.340	0.140	-0.390	0.140
2020/01/31 08:20:47.0	313.330	0.170	-0.380	0.170
2020/01/31 08:20:47.1	313.330	0.190	-0.370	0.200
2020/01/31 08:20:47.2	313.320	0.220	-0.360	0.230
2020/01/31 08:20:47.3	313.320	0.240	-0.350	0.250
2020/01/31 08:20:47.4	313.320	0.260	-0.340	0.270
2020/01/31 08:20:47.5	313.310	0.280	-0.320	0.290
2020/01/31 08:20:47.6	313.310	0.300	-0.310	0.300
2020/01/31 08:20:47.7	313.300	0.310	-0.300	0.320
2020/01/31 08:20:47.8				
2020/01/31 08:20:47.9	313.300	0.330	-0.290	0.330
2020/01/31 08:20:48.0	313.290	0.350	-0.280	0.340
2020/01/31 08:20:48.1	313.290	0.360	-0.270	0.340
2020/01/31 08:20:48.2	313.280	0.370	-0.260	0.340
2020/01/31 08:20:48.3	313.290	0.370	-0.250	0.350
2020/01/31 08:20:48.4				
2020/01/31 08:20:48.5	313.290	0.380	-0.240	0.340
2020/01/31 08:20:48.6	313.290	0.380	-0.230	0.340
2020/01/31 08:20:48.7				
2020/01/31 08:20:48.8	313.290	0.380	-0.210	0.330
2020/01/31 08:20:48.9				
2020/01/31 08:20:49.0	313.290	0.370	-0.190	0.300
2020/01/31 08:20:49.1	313.300	0.360	-0.170	0.270
2020/01/31 08:20:49.2	313.300	0.350	-0.160	0.260
2020/01/31 08:20:49.3				
2020/01/31 08:20:49.4	313.310	0.340	-0.150	0.240
2020/01/31 08:20:49.5	313.310	0.320	-0.120	0.200
2020/01/31 08:20:49.6				
2020/01/31 08:20:49.7	313.320	0.300	-0.100	0.180
2020/01/31 08:20:49.8	313.320	0.270	-0.070	0.130
2020/01/31 08:20:49.9				
2020/01/31 08:20:50.0	313.320	0.260	-0.050	0.110
2020/01/31 08:20:50.1	313.320	0.240	-0.030	0.090
2020/01/31 08:20:50.2	313.320	0.220	-0.010	0.060
2020/01/31 08:20:50.3	313.320	0.180	0.030	0.020
2020/01/31 08:20:50.4	313.320	0.160	0.050	0.000
2020/01/31 08:20:50.5				
2020/01/31 08:20:50.6	313.310	0.130	0.070	-0.020
2020/01/31 08:20:50.7	313.300	0.090	0.100	-0.060
2020/01/31 08:20:50.8				
2020/01/31 08:20:50.9	313.300	0.060	0.120	-0.080
2020/01/31 08:20:51.0				
2020/01/31 08:20:51.1	313.280	0.010	0.140	-0.120
2020/01/31 08:20:51.2	313.270	-0.030	0.160	-0.160
2020/01/31 08:20:51.3	313.270	-0.060	0.160	-0.180
2020/01/31 08:20:51.4				
2020/01/31 08:20:51.5	313.260	-0.080	0.160	-0.210
2020/01/31 08:20:51.6	313.250	-0.120	0.150	-0.260
2020/01/31 08:20:51.7	313.250	-0.140	0.140	-0.290
2020/01/31 08:20:51.8				
2020/01/31 08:20:51.9	313.250	-0.160	0.130	-0.320
2020/01/31 08:20:52.0	313.250	-0.180	0.120	-0.350
2020/01/31 08:20:52.1	313.260	-0.190	0.100	-0.380
2020/01/31 08:20:52.2	313.260	-0.210	0.080	-0.410
2020/01/31 08:20:52.3	313.270	-0.220	0.050	-0.450
2020/01/31 08:20:52.4	313.280	-0.230	0.030	-0.480
2020/01/31 08:20:52.5	313.290	-0.240	-0.000	-0.520
2020/01/31 08:20:52.6	313.310	-0.240	-0.030	-0.550
2020/01/31 08:20:52.7				
2020/01/31 08:20:52.8	313.340	-0.250	-0.100	-0.620
2020/01/31 08:20:52.9				
2020/01/31 08:20:53.0	313.370	-0.250	-0.160	-0.680
2020/01/31 08:20:53.1	313.390	-0.250	-0.200	-0.710
2020/01/31 08:20:53.2	313.410	-0.250	-0.230	-0.730
2020/01/31 08:20:53.3	313.430	-0.240	-0.260	-0.760
2020/01/31 08:20:53.4	313.460	-0.230	-0.330	-0.790
2020/01/31 08:20:53.5				
2020/01/31 08:20:53.6	313.480	-0.220	-0.360	-0.800
2020/01/31 08:20:53.7	313.520	-0.200	-0.410	-0.820
2020/01/31 08:20:53.8	313.540	-0.190	-0.430	-0.820
2020/01/31 08:20:53.9	313.550	-0.180	-0.450	-0.810
2020/01/31 08:20:54.0	313.570	-0.170	-0.470	-0.800
2020/01/31 08:20:54.1				
2020/01/31 08:20:54.2	313.580	-0.160	-0.490	-0.790
2020/01/31 08:20:54.3	313.590	-0.150	-0.500	-0.770
2020/01/31 08:20:54.4				
2020/01/31 08:20:54.5	313.610	-0.130	-0.520	-0.720
2020/01/31 08:20:54.6	313.620	-0.110	-0.530	-0.650
2020/01/31 08:20:54.7				
2020/01/31 08:20:54.8	313.620	-0.100	-0.530	-0.620
2020/01/31 08:20:54.9	313.620	-0.100	-0.530	-0.580
2020/01/31 08:20:55.0				
2020/01/31 08:20:55.1	313.620	-0.080	-0.520	-0.500
2020/01/31 08:20:55.2	313.610	-0.080	-0.510	-0.450
2020/01/31 08:20:55.3	313.610	-0.070	-0.500	-0.410
2020/01/31 08:20:55.4	313.600	-0.070	-0.480	-0.360
2020/01/31 08:20:55.5	313.600	-0.070	-0.470	-0.310
2020/01/31 08:20:55.6	313.580	-0.070	-0.430	-0.220
2020/01/31 08:20:55.7	313.570	-0.070	-0.420	-0.170
2020/01/31 08:20:55.8	313.560	-0.070	-0.400	-0.120
2020/01/31 08:20:55.9				
2020/01/31 08:20:56.0	313.540	-0.070	-0.370	-0.070
2020/01/31 08:20:56.1	313.530	-0.070	-0.350	-0.030
2020/01/31 08:20:56.2				
2020/01/31 08:20:56.3	313.500	-0.070	-0.310	0.060
2020/01/31 08:20:56.4	313.470	-0.080	-0.260	0.150
2020/01/31 08:20:56.5	313.460	-0.080	-0.240	0.180
2020/01/31 08:20:56.6	313.440	-0.080	-0.210	0.220
2020/01/31 08:20:56.7				
2020/01/31 08:20:56.8	313.420	-0.090	-0.190	0.250
2020/01/31 08:20:56.9	313.400	-0.090	-0.170	0.290
2020/01/31 08:20:57.0	313.380	-0.090	-0.150	0.310
2020/01/31 08:20:57.1				
2020/01/31 08:20:57.2	313.350	-0.100	-0.120	0.360
2020/01/31 08:20:57.3	313.300	-0.100	-0.100	0.400
2020/01/31 08:20:57.4				
2020/01/31 08:20:57.5	313.290	-0.100	-0.090	0.420
2020/01/31 08:20:57.6	313.270	-0.100	-0.080	0.430
2020/01/31 08:20:57.7	313.250	-0.110	-0.070	0.430
2020/01/31 08:20:57.8	313.240	-0.110	-0.070	0.440
2020/01/31 08:20:57.9	313.210	-0.100	-0.080	0.440
2020/01/31 08:20:58.0	313.200	-0.100	-0.080	0.430
2020/01/31 08:20:58.1				
2020/01/31 08:20:58.2	313.190	-0.100	-0.090	0.420
2020/01/31 08:20:58.3	313.180	-0.100	-0.110	0.410
2020/01/31 08:20:58.4	313.160	-0.100	-0.120	0.390
2020/01/31 08:20:58.5	313.160	-0.090	-0.140	0.370
2020/01/31 08:20:58.6	313.160	-0.090	-0.160	0.350
2020/01/31 08:20:58.7	313.160	-0.080	-0.200	0.290
2020/01/31 08:20:58.8	313.160	-0.070	-0.230	0.250
2020/01/31 08:20:58.9				
2020/01/31 08:20:59.0	313.170	-0.070	-0.260	0.210
2020/01/31 08:20:59.1	313.180	-0.060	-0.290	0.170
2020/01/31 08:20:59.2	313.190	-0.050	-0.320	0.120
2020/01/31 08:20:59.3	313.210	-0.040	-0.350	0.070
2020/01/31 08:20:59.4	313.230	-0.030	-0.390	0.020
2020/01/31 08:20:59.5	313.250	-0.020	-0.420	-0.040
2020/01/31 08:20:59.6	313.280	-0.010	-0.450	-0.100
2020/01/31 08:20:59.7	313.310	-0.000	-0.480	-0.160
2020/01/31 08:20:59.8				
2020/01/31 08:20:59.9	313.370	0.020	-0.540	-0.290
2020/01/31 08:21:00.0	313.410	0.030	-0.570	-0.360
2020/01/31 08:21:00.1	313.480	0.060	-0.620	-0.490
2020/01/31 08:21:00.2	313.520	0.070	-0.640	-0.560
2020/01/31 08:21:00.3				
2020/01/31 08:21:00.4	313.560	0.080	-0.650	-0.630
2020/01/31 08:21:00.5	313.590	0.090	-0.670	-0.690
2020/01/31 08:21:00.6				
2020/01/31 08:21:00.7	313.670	0.110	-0.690	-0.820
2020/01/31 08:21:00.8				
2020/01/31 08:21:00.9	313.750	0.130	-0.690	-0.930
2020/01/31 08:21:01.0	313.780	0.140	-0.690	-0.980
2020/01/31 08:21:01.1	313.820	0.150	-0.680	-1.030
2020/01/31 08:21:01.2	313.850	0.150	-0.660	-1.070
2020/01/31 08:21:01.3				
2020/01/31 08:21:01.4	313.910	0.160	-0.620	-1.150
2020/01/31 08:21:01.5				
2020/01/31 08:21:01.6	313.960	0.170	-0.570	-1.200
2020/01/31 08:21:01.7	313.980	0.170	-0.530	-1.220
2020/01/31 08:21:01.8	314.000	0.170	-0.490	-1.230
2020/01/31 08:21:01.9	314.030	0.170	-0.410	-1.240
2020/01/31 08:21:02.0				
2020/01/31 08:21:02.1	314.040	0.160	-0.360	-1.230
2020/01/31 08:21:02.2	314.050	0.150	-0.260	-1.200
2020/01/31 08:21:02.3				
2020/01/31 08:21:02.4	314.040	0.150	-0.210	-1.170
2020/01/31 08:21:02.5	314.030	0.130	-0.090	-1.110
2020/01/31 08:21:02.6	314.030	0.120	-0.040	-1.070
2020/01/31 08:21:02.7				
2020/01/31 08:21:02.8	314.020	0.110	0.020	-1.030
2020/01/31 08:21:02.9	314.010	0.100	0.070	-0.990
2020/01/31 08:21:03.0	313.980	0.080	0.170	-0.880
2020/01/31 08:21:03.1				
2020/01/31 08:21:03.2	313.970	0.070	0.220	-0.830
2020/01/31 08:21:03.3	313.950	0.060	0.260	-0.780
2020/01/31 08:21:03.4	313.930	0.050	0.310	-0.720
2020/01/31 08:21:03.5	313.910	0.040	0.340	-0.670
2020/01/31 08:21:03.6	313.900	0.030	0.370	-0.610
2020/01/31 08:21:03.7	313.880	0.020	0.400	-0.560
2020/01/31 08:21:03.8	313.860	0.010	0.420	-0.500
2020/01/31 08:21:03.9	313.850	-0.000	0.430	-0.450
2020/01/31 08:21:04.0	313.830	-0.010	0.440	-0.400
2020/01/31 08:21:04.1	313.820	-0.020	0.450	-0.340
2020/01/31 08:21:04.2	313.800	-0.030	0.450	-0.290
2020/01/31 08:21:04.3	313.790	-0.030	0.450	-0.250
2020/01/31 08:21:04.4	313.760	-0.040	0.440	-0.190
2020/01/31 08:21:04.5	313.750	-0.050	0.430	-0.150
2020/01/31 08:21:04.6	313.730	-0.050	0.420	-0.100
2020/01/31 08:21:04.7	313.710	-0.060	0.400	-0.060
2020/01/31 08:21:04.8	313.680	-0.060	0.350	0.030
2020/01/31 08:21:04.9	313.660	-0.060	0.320	0.080
2020/01/31 08:21:05.0				
2020/01/31 08:21:05.1	313.650	-0.060	0.290	0.120
2020/01/31 08:21:05.2	313.630	-0.060	0.260	0.160
2020/01/31 08:21:05.3				
2020/01/31 08:21:05.4	313.610	-0.050	0.190	0.240
2020/01/31 08:21:05.5	313.590	-0.050	0.150	0.270
2020/01/31 08:21:05.6	313.580	-0.040	0.110	0.310
2020/01/31 08:21:05.7	313.560	-0.040	0.070	0.340
2020/01/31 08:21:05.8	313.550	-0.030	0.030	0.370
2020/01/31 08:21:05.9				
2020/01/31 08:21:06.0	313.520	-0.010	-0.050	0.430
2020/01/31 08:21:06.1	313.510	-0.000	-0.090	0.460
2020/01/31 08:21:06.2	313.490	0.010	-0.130	0.480
2020/01/31 08:21:06.3				
2020/01/31 08:21:06.4	313.480	0.040	-0.220	0.520
2020/01/31 08:21:06.5	313.460	0.050	-0.260	0.540
2020/01/31 08:21:06.6	313.450	0.070	-0.300	0.560
2020/01/31 08:21:06.7	313.440	0.080	-0.340	0.570
2020/01/31 08:21:06.8	313.430	0.100	-0.380	0.580
2020/01/31 08:21:06.9	313.430	0.110	-0.420	0.590
2020/01/31 08:21:07.0	313.420	0.130	-0.460	0.600
2020/01/31 08:21:07.1	313.410	0.140	-0.500	0.600
2020/01/31 08:21:07.2	313.410	0.160	-0.530	0.600
2020/01/31 08:21:07.3	313.400	0.170	-0.570	0.590
2020/01/31 08:21:07.4	313.410	0.180	-0.610	0.590
2020/01/31 08:21:07.5	313.410	0.200	-0.640	0.570
2020/01/31 08:21:07.6	313.410	0.210	-0.680	0.560
2020/01/31 08:21:07.7	313.420	0.220	-0.710	0.540
2020/01/31 08:21:07.8	313.420	0.230	-0.740	0.510
2020/01/31 08:21:07.9	313.430	0.230	-0.770	0.480
2020/01/31 08:21:08.0	313.440	0.240	-0.810	0.440
2020/01/31 08:21:08.1	313.450	0.240	-0.830	0.400
2020/01/31 08:21:08.2	313.460	0.250	-0.860	0.360
2020/01/31 08:21:08.3	313.480	0.250	-0.890	0.320
2020/01/31 08:21:08.4	313.500	0.250	-0.910	0.270
2020/01/31 08:21:08.5	313.520	0.240	-0.930	0.220
2020/01/31 08:21:08.6				
2020/01/31 08:21:08.7	313.560	0.230	-0.970	0.110
2020/01/31 08:21:08.8	313.590	0.220	-0.980	0.050
2020/01/31 08:21:08.9	313.610	0.210	-1.000	-0.010
2020/01/31 08:21:09.0	313.640	0.200	-1.000	-0.070
2020/01/31 08:21:09.1	313.670	0.190	-1.010	-0.130
2020/01/31 08:21:09.2	313.690	0.170	-1.010	-0.190
2020/01/31 08:21:09.3	313.720	0.160	-1.010	-0.250
2020/01/31 08:21:09.4	313.740	0.140	-1.000	-0.310
2020/01/31 08:21:09.5	313.770	0.120	-0.990	-0.370
2020/01/31 08:21:09.6	313.800	0.100	-0.970	-0.430
2020/01/31 08:21:09.7	313.820	0.070	-0.950	-0.490
2020/01/31 08:21:09.8	313.850	0.050	-0.930	-0.550
2020/01/31 08:21:09.9	313.870	0.020	-0.900	-0.610
2020/01/31 08:21:10.0	313.900	-0.000	-0.870	-0.660
2020/01/31 08:21:10.1	313.920	-0.030	-0.830	-0.720
2020/01/31 08:21:10.2	313.950	-0.050	-0.790	-0.770
2020/01/31 08:21:10.3	313.970	-0.080	-0.750	-0.820
2020/01/31 08:21:10.4	313.980	-0.110	-0.700	-0.870
2020/01/31 08:21:10.5	314.000	-0.130	-0.650	-0.910
2020/01/31 08:21:10.6	314.020	-0.160	-0.590	-0.960
2020/01/31 08:21:10.7	314.030	-0.190	-0.530	-1.000
2020/01/31 08:21:10.8	314.050	-0.210	-0.480	-1.040
2020/01/31 08:21:10.9	314.070	-0.240	-0.410	-1.070
2020/01/31 08:21:11.0	314.080	-0.260	-0.350	-1.110
2020/01/31 08:21:11.1	314.090	-0.290	-0.290	-1.140
2020/01/31 08:21:11.2	314.100	-0.310	-0.220	-1.160
2020/01/31 08:21:11.3	314.110	-0.330	-0.160	-1.180
2020/01/31 08:21:11.4	314.110	-0.350	-0.090	-1.200
2020/01/31 08:21:11.5	314.120	-0.370	-0.030	-1.210
2020/01/31 08:21:11.6	314.120	-0.390	0.040	-1.220
2020/01/31 08:21:11.7	314.120	-0.410	0.100	-1.220
2020/01/31 08:21:11.8	314.120	-0.420	0.160	-1.210
2020/01/31 08:21:11.9	314.120	-0.440	0.220	-1.200
2020/01/31 08:21:12.0	314.120	-0.450	0.280	-1.190
2020/01/31 08:21:12.1	314.110	-0.460	0.330	-1.170
2020/01/31 08:21:12.2	314.110	-0.470	0.380	-1.150
2020/01/31 08:21:12.3	314.100	-0.480	0.430	-1.120
2020/01/31 08:21:12.4	314.080	-0.480	0.480	-1.090
2020/01/31 08:21:12.5	314.060	-0.490	0.520	-1.060
2020/01/31 08:21:12.6	314.050	-0.490	0.550	-1.030
2020/01/31 08:21:12.7	314.040	-0.490	0.580	-0.990
2020/01/31 08:21:12.8	314.020	-0.490	0.610	-0.950
2020/01/31 08:21:12.9	314.010	-0.490	0.630	-0.910
2020/01/31 08:21:13.0	313.990	-0.480	0.640	-0.860
2020/01/31 08:21:13.1	313.980	-0.470	0.650	-0.820
2020/01/31 08:21:13.2	313.960	-0.460	0.660	-0.780
2020/01/31 08:21:13.3	313.950	-0.450	0.660	-0.730
2020/01/31 08:21:13.4	313.930	-0.440	0.650	-0.690
2020/01/31 08:21:13.5	313.910	-0.420	0.640	-0.640
2020/01/31 08:21:13.6	313.900	-0.400	0.620	-0.600
2020/01/31 08:21:13.7	313.890	-0.380	0.600	-0.550
2020/01/31 08:21:13.8	313.880	-0.350	0.570	-0.510
2020/01/31 08:21:13.9	313.870	-0.330	0.530	-0.470
2020/01/31 08:21:14.0	313.870	-0.300	0.500	-0.420
2020/01/31 08:21:14.1	313.860	-0.270	0.450	-0.380
2020/01/31 08:21:14.2	313.860	-0.240	0.410	-0.340
2020/01/31 08:21:14.3	313.850	-0.200	0.360	-0.300
2020/01/31 08:21:14.4	313.840	-0.170	0.310	-0.270
2020/01/31 08:21:14.5	313.840	-0.130	0.250	-0.230
2020/01/31 08:21:14.6	313.840	-0.100	0.200	-0.200
2020/01/31 08:21:14.7	313.840	-0.060	0.140	-0.160
2020/01/31 08:21:14.8	313.830	-0.020	0.080	-0.130
2020/01/31 08:21:14.9	313.830	0.020	0.030	-0.100
2020/01/31 08:21:15.0	313.830	0.060	-0.030	-0.070
2020/01/31 08:21:15.1	313.830	0.100	-0.080	-0.040
2020/01/31 08:21:15.2	313.830	0.140	-0.140	-0.010
2020/01/31 08:21:15.3	313.820	0.180	-0.190	0.020
2020/01/31 08:21:15.4	313.830	0.210	-0.240	0.050
2020/01/31 08:21:15.5	313.830	0.250	-0.280	0.070
2020/01/31 08:21:15.6	313.820	0.280	-0.320	0.100
2020/01/31 08:21:15.7	313.820	0.320	-0.360	0.120
2020/01/31 08:21:15.8	313.820	0.350	-0.400	0.140
2020/01/31 08:21:15.9	313.820	0.380	-0.430	0.170
2020/01/31 08:21:16.0	313.810	0.410	-0.460	0.190
2020/01/31 08:21:16.1	313.810	0.430	-0.490	0.210
2020/01/31 08:21:16.2	313.810	0.460	-0.510	0.230
2020/01/31 08:21:16.3	313.800	0.480	-0.530	0.250
2020/01/31 08:21:16.4	313.800	0.500	-0.540	0.270
2020/01/31 08:21:16.5	313.790	0.510	-0.560	0.280
2020/01/31 08:21:16.6	313.790	0.530	-0.570	0.300
2020/01/31 08:21:16.7	313.780	0.540	-0.580	0.320
2020/01/31 08:21:16.8	313.780	0.550	-0.580	0.330
2020/01/31 08:21:16.9	313.770	0.560	-0.580	0.350
2020/01/31 08:21:17.0	313.760	0.560	-0.590	0.360
2020/01/31 08:21:17.1	313.760	0.560	-0.590	0.370
2020/01/31 08:21:17.2	313.750	0.560	-0.590	0.380
2020/01/31 08:21:17.3	313.740	0.560	-0.590	0.390
2020/01/31 08:21:17.4	313.740	0.560	-0.580	0.400
2020/01/31 08:21:17.5	313.730	0.560	-0.580	0.400
2020/01/31 08:21:17.6	313.720	0.550	-0.570	0.410
2020/01/31 08:21:17.7	313.720	0.540	-0.570	0.410
2020/01/31 08:21:17.8	313.710	0.530	-0.560	0.410
2020/01/31 08:21:17.9	313.710	0.520	-0.560	0.400
2020/01/31 08:21:18.0	313.710	0.500	-0.560	0.400
2020/01/31 08:21:18.1	313.700	0.490	-0.550	0.390
2020/01/31 08:21:18.2	313.700	0.470	-0.550	0.380
2020/01/31 08:21:18.3	313.700	0.450	-0.540	0.360
2020/01/31 08:21:18.4	313.700	0.430	-0.540	0.340
2020/01/31 08:21:18.5	313.700	0.410	-0.540	0.320
2020/01/31 08:21:18.6	313.700	0.390	-0.540	0.300
2020/01/31 08:21:18.7	313.710	0.370	-0.530	0.270
2020/01/31 08:21:18.8	313.710	0.350	-0.530	0.230
2020/01/31 08:21:18.9	313.720	0.320	-0.530	0.200
2020/01/31 08:21:19.0	313.720	0.300	-0.530	0.160
2020/01/31 08:21:19.1	313.730	0.270	-0.530	0.120
2020/01/31 08:21:19.2	313.740	0.250	-0.520	0.070
2020/01/31 08:21:19.3	313.750	0.220	-0.520	0.030
2020/01/31 08:21:19.4	313.750	0.190	-0.520	-0.020
2020/01/31 08:21:19.5	313.760	0.170	-0.520	-0.070
2020/01/31 08:21:19.6	313.770	0.140	-0.510	-0.110
2020/01/31 08:21:19.7	313.770	0.110	-0.510	-0.160
2020/01/31 08:21:19.8	313.780	0.080	-0.500	-0.210
2020/01/31 08:21:19.9	313.780	0.050	-0.500	-0.260
2020/01/31 08:21:20.0	313.790	0.020	-0.490	-0.310
2020/01/31 08:21:20.1	313.790	-0.010	-0.480	-0.360
2020/01/31 08:21:20.2	313.790	-0.030	-0.470	-0.400
2020/01/31 08:21:20.3	313.800	-0.060	-0.460	-0.450
2020/01/31 08:21:20.4	313.800	-0.090	-0.450	-0.490
2020/01/31 08:21:20.5	313.800	-0.120	-0.430	-0.540
2020/01/31 08:21:20.6	313.800	-0.140	-0.420	-0.580
2020/01/31 08:21:20.7	313.800	-0.170	-0.400	-0.620
2020/01/31 08:21:20.8	313.800	-0.190	-0.390	-0.660
2020/01/31 08:21:20.9	313.800	-0.210	-0.370	-0.700
2020/01/31 08:21:21.0	313.800	-0.240	-0.350	-0.730
2020/01/31 08:21:21.1	313.800	-0.260	-0.340	-0.760
2020/01/31 08:21:21.2	313.800	-0.280	-0.320	-0.790
2020/01/31 08:21:21.3	313.800	-0.290	-0.300	-0.820
2020/01/31 08:21:21.4	313.800	-0.310	-0.280	-0.840
2020/01/31 08:21:21.5	313.810	-0.320	-0.260	-0.860
2020/01/31 08:21:21.6	313.810	-0.340	-0.240	-0.880
2020/01/31 08:21:21.7	313.810	-0.350	-0.220	-0.900
2020/01/31 08:21:21.8	313.810	-0.360	-0.200	-0.910
2020/01/31 08:21:21.9	313.820	-0.360	-0.190	-0.920
2020/01/31 08:21:22.0	313.820	-0.370	-0.170	-0.920
2020/01/31 08:21:22.1	313.830	-0.380	-0.160	-0.920
2020/01/31 08:21:22.2	313.830	-0.380	-0.140	-0.920
2020/01/31 08:21:22.3	313.830	-0.380	-0.130	-0.910
2020/01/31 08:21:22.4	313.840	-0.380	-0.120	-0.900
2020/01/31 08:21:22.5	313.840	-0.380	-0.110	-0.890
2020/01/31 08:21:22.6	313.850	-0.380	-0.100	-0.870
2020/01/31 08:21:22.7	313.850	-0.380	-0.100	-0.850
2020/01/31 08:21:22.8	313.850	-0.380	-0.090	-0.830
2020/01/31 08:21:22.9	313.850	-0.370	-0.090	-0.800
2020/01/31 08:21:23.0	313.850	-0.370	-0.090	-0.780
2020/01/31 08:21:23.1	313.850	-0.360	-0.090	-0.750
2020/01/31 08:21:23.2	313.850	-0.350	-0.100	-0.720
2020/01/31 08:21:23.3	313.850	-0.350	-0.100	-0.690
2020/01/31 08:21:23.4	313.840	-0.340	-0.110	-0.650
2020/01/31 08:21:23.5	313.840	-0.330	-0.110	-0.620
2020/01/31 08:21:23.6	313.840	-0.330	-0.120	-0.590
2020/01/31 08:21:23.7	313.830	-0.320	-0.130	-0.550
2020/01/31 08:21:23.8	313.830	-0.310	-0.140	-0.510
2020/01/31 08:21:23.9	313.830	-0.300	-0.150	-0.480
2020/01/31 08:21:24.0	313.820	-0.290	-0.150	-0.440
2020/01/31 08:21:24.1	313.820	-0.280	-0.160	-0.410
2020/01/31 08:21:24.2	313.810	-0.280	-0.170	-0.370
2020/01/31 08:21:24.3	313.810	-0.270	-0.180	-0.330
2020/01/31 08:21:24.4	313.810	-0.260	-0.180	-0.300
2020/01/31 08:21:24.5	313.800	-0.250	-0.190	-0.260
2020/01/31 08:21:24.6	313.800	-0.250	-0.200	-0.230
2020/01/31 08:21:24.7	313.790	-0.240	-0.210	-0.190
2020/01/31 08:21:24.8	313.780	-0.230	-0.210	-0.160
2020/01/31 08:21:24.9	313.770	-0.220	-0.210	-0.130
2020/01/31 08:21:25.0	313.760	-0.220	-0.220	-0.090
2020/01/31 08:21:25.1	313.750	-0.210	-0.220	-0.060
2020/01/31 08:21:25.2	313.740	-0.200	-0.220	-0.030
2020/01/31 08:21:25.3	313.730	-0.200	-0.220	0.000
2020/01/31 08:21:25.4	313.720	-0.190	-0.220	0.030
2020/01/31 08:21:25.5	313.720	-0.180	-0.220	0.060
2020/01/31 08:21:25.6	313.710	-0.180	-0.210	0.090
2020/01/31 08:21:25.7	313.700	-0.170	-0.200	0.110
2020/01/31 08:21:25.8	313.690	-0.160	-0.200	0.140
2020/01/31 08:21:25.9	313.690	-0.150	-0.190	0.160
2020/01/31 08:21:26.0	313.680	-0.140	-0.180	0.180
2020/01/31 08:21:26.1	313.680	-0.130	-0.170	0.200
2020/01/31 08:21:26.2	313.670	-0.120	-0.150	0.210
2020/01/31 08:21:26.3	313.670	-0.110	-0.140	0.230
2020/01/31 08:21:26.4	313.670	-0.100	-0.120	0.240
2020/01/31 08:21:26.5	313.670	-0.090	-0.110	0.260
2020/01/31 08:21:26.6	313.670	-0.080	-0.090	0.270
2020/01/31 08:21:26.7	313.670	-0.060	-0.070	0.280
2020/01/31 08:21:26.8	313.670	-0.050	-0.060	0.290
2020/01/31 08:21:26.9	313.670	-0.030	-0.040	0.300
2020/01/31 08:21:27.0	313.680	-0.020	-0.020	0.300
2020/01/31 08:21:27.1	313.680	-0.000	-0.000	0.310
2020/01/31 08:21:27.2	313.680	0.010	0.010	0.320
2020/01/31 08:21:27.3	313.680	0.030	0.030	0.320
2020/01/31 08:21:27.4	313.700	0.040	0.050	0.320
2020/01/31 08:21:27.5	313.710	0.060	0.060	0.330
2020/01/31 08:21:27.6	313.710	0.080	0.070	0.330
2020/01/31 08:21:27.7	313.720	0.090	0.090	0.330
2020/01/31 08:21:27.8	313.720	0.110	0.100	0.330
2020/01/31 08:21:27.9	313.730	0.120	0.110	0.330
2020/01/31 08:21:28.0	313.730	0.140	0.120	0.330
2020/01/31 08:21:28.1	313.740	0.150	0.120	0.320
2020/01/31 08:21:28.2	313.750	0.170	0.130	0.320
2020/01/31 08:21:28.3	313.750	0.180	0.130	0.310
2020/01/31 08:21:28.4	313.760	0.200	0.120	0.310
2020/01/31 08:21:28.5	313.760	0.210	0.120	0.310
2020/01/31 08:21:28.6	313.770	0.220	0.120	0.300
2020/01/31 08:21:28.7	313.770	0.230	0.110	0.290
2020/01/31 08:21:28.8	313.780	0.250	0.100	0.280
2020/01/31 08:21:28.9	313.780	0.260	0.090	0.270
2020/01/31 08:21:29.0	313.780	0.260	0.080	0.260
2020/01/31 08:21:29.1	313.790	0.270	0.060	0.250
2020/01/31 08:21:29.2	313.790	0.280	0.040	0.240
2020/01/31 08:21:29.3	313.800	0.290	0.020	0.220
2020/01/31 08:21:29.4	313.800	0.290	0.000	0.210
2020/01/31 08:21:29.5	313.800	0.300	-0.020	0.190
2020/01/31 08:21:29.6	313.810	0.300	-0.040	0.170
2020/01/31 08:21:29.7	313.810	0.310	-0.070	0.150
2020/01/31 08:21:29.8	313.820	0.310	-0.090	0.130
2020/01/31 08:21:29.9	313.830	0.310	-0.120	0.110
2020/01/31 08:21:30.0	313.830	0.310	-0.150	0.090
2020/01/31 08:21:30.1	313.840	0.310	-0.180	0.070
2020/01/31 08:21:30.2	313.840	0.310	-0.210	0.050
2020/01/31 08:21:30.3	313.850	0.310	-0.240	0.030
2020/01/31 08:21:30.4	313.860	0.310	-0.270	0.010
2020/01/31 08:21:30.5	313.860	0.300	-0.290	-0.010
2020/01/31 08:21:30.6	313.860	0.300	-0.320	-0.030
2020/01/31 08:21:30.7	313.860	0.290	-0.340	-0.040
2020/01/31 08:21:30.8	313.860	0.290	-0.370	-0.060
2020/01/31 08:21:30.9	313.860	0.280	-0.390	-0.070
2020/01/31 08:21:31.0	313.860	0.280	-0.410	-0.080
2020/01/31 08:21:31.1	313.860	0.270	-0.430	-0.090
2020/01/31 08:21:31.2	313.850	0.270	-0.440	-0.100
2020/01/31 08:21:31.3	313.850	0.260	-0.460	-0.110
2020/01/31 08:21:31.4	313.840	0.250	-0.470	-0.130
2020/01/31 08:21:31.5	313.830	0.240	-0.490	-0.140
2020/01/31 08:21:31.6	313.830	0.230	-0.500	-0.150
2020/01/31 08:21:31.7	313.820	0.230	-0.510	-0.160
2020/01/31 08:21:31.8	313.810	0.220	-0.520	-0.180
2020/01/31 08:21:31.9	313.810	0.210	-0.530	-0.190
2020/01/31 08:21:32.0	313.800	0.200	-0.540	-0.210
2020/01/31 08:21:32.1	313.790	0.190	-0.550	-0.220
2020/01/31 08:21:32.2	313.790	0.180	-0.560	-0.240
2020/01/31 08:21:32.3	313.780	0.170	-0.570	-0.270
2020/01/31 08:21:32.4	313.770	0.160	-0.580	-0.280
2020/01/31 08:21:32.5	313.770	0.150	-0.590	-0.310
2020/01/31 08:21:32.6	313.760	0.140	-0.600	-0.330
2020/01/31 08:21:32.7	313.760	0.130	-0.600	-0.360
2020/01/31 08:21:32.8	313.750	0.120	-0.610	-0.380
2020/01/31 08:21:32.9	313.750	0.110	-0.620	-0.410
2020/01/31 08:21:33.0	313.740	0.100	-0.620	-0.430
2020/01/31 08:21:33.1	313.730	0.090	-0.630	-0.460
2020/01/31 08:21:33.2	313.730	0.070	-0.630	-0.480
2020/01/31 08:21:33.3	313.720	0.060	-0.640	-0.510
2020/01/31 08:21:33.4	313.710	0.050	-0.640	-0.530
2020/01/31 08:21:33.5	313.700	0.040	-0.640	-0.550
2020/01/31 08:21:33.6	313.700	0.030	-0.640	-0.570
2020/01/31 08:21:33.7	313.690	0.020	-0.640	-0.590
2020/01/31 08:21:33.8	313.680	0.000	-0.640	-0.600
2020/01/31 08:21:33.9	313.670	-0.010	-0.630	-0.620
2020/01/31 08:21:34.0	313.660	-0.020	-0.630	-0.630
2020/01/31 08:21:34.1	313.650	-0.030	-0.620	-0.640
2020/01/31 08:21:34.2	313.650	-0.040	-0.610	-0.650
2020/01/31 08:21:34.3	313.640	-0.050	-0.610	-0.660
2020/01/31 08:21:34.4	313.640	-0.060	-0.590	-0.660
2020/01/31 08:21:34.5	313.640	-0.070	-0.580	-0.670
2020/01/31 08:21:34.6	313.640	-0.070	-0.570	-0.670
2020/01/31 08:21:34.7	313.640	-0.080	-0.560	-0.670
2020/01/31 08:21:34.8	313.640	-0.090	-0.540	-0.670
2020/01/31 08:21:34.9	313.640	-0.100	-0.530	-0.670
2020/01/31 08:21:35.0	313.650	-0.100	-0.520	-0.670
2020/01/31 08:21:35.1	313.650	-0.110	-0.500	-0.660
2020/01/31 08:21:35.2	313.660	-0.120	-0.480	-0.660
2020/01/31 08:21:35.3	313.670	-0.120	-0.470	-0.650
2020/01/31 08:21:35.4	313.680	-0.130	-0.460	-0.640
2020/01/31 08:21:35.5	313.690	-0.130	-0.440	-0.630
2020/01/31 08:21:35.6	313.710	-0.130	-0.420	-0.620
2020/01/31 08:21:35.7	313.720	-0.140	-0.400	-0.600
2020/01/31 08:21:35.8	313.740	-0.140	-0.390	-0.580
2020/01/31 08:21:35.9	313.750	-0.150	-0.370	-0.560
2020/01/31 08:21:36.0	313.760	-0.150	-0.350	-0.540
2020/01/31 08:21:36.1	313.780	-0.160	-0.330	-0.510
2020/01/31 08:21:36.2	313.790	-0.160	-0.310	-0.480
2020/01/31 08:21:36.3	313.800	-0.160	-0.280	-0.450
2020/01/31 08:21:36.4	313.810	-0.170	-0.260	-0.410
2020/01/31 08:21:36.5	313.820	-0.170	-0.240	-0.380
2020/01/31 08:21:36.6	313.830	-0.180	-0.210	-0.340
2020/01/31 08:21:36.7	313.840	-0.180	-0.190	-0.310
2020/01/31 08:21:36.8	313.850	-0.190	-0.160	-0.270
2020/01/31 08:21:36.9	313.860	-0.190	-0.130	-0.230
2020/01/31 08:21:37.0	313.860	-0.200	-0.110	-0.190
2020/01/31 08:21:37.1	313.870	-0.200	-0.080	-0.150
2020/01/31 08:21:37.2	313.880	-0.200	-0.060	-0.120
2020/01/31 08:21:37.3	313.880	-0.210	-0.030	-0.080
2020/01/31 08:21:37.4	313.890	-0.210	-0.010	-0.040
2020/01/31 08:21:37.5	313.890	-0.210	0.020	-0.000
2020/01/31 08:21:37.6	313.900	-0.220	0.040	0.030
2020/01/31 08:21:37.7	313.900	-0.220	0.070	0.070
2020/01/31 08:21:37.8	313.910	-0.220	0.090	0.100
2020/01/31 08:21:37.9	313.910	-0.220	0.110	0.130
2020/01/31 08:21:38.0	313.920	-0.220	0.130	0.170
2020/01/31 08:21:38.1	313.920	-0.220	0.150	0.200
2020/01/31 08:21:38.2	313.920	-0.220	0.160	0.230
2020/01/31 08:21:38.3	313.930	-0.220	0.170	0.250
2020/01/31 08:21:38.4	313.930	-0.220	0.190	0.280
2020/01/31 08:21:38.5	313.930	-0.220	0.190	0.300
2020/01/31 08:21:38.6	313.940	-0.220	0.200	0.320
2020/01/31 08:21:38.7	313.940	-0.220	0.200	0.340
2020/01/31 08:21:38.8	313.940	-0.210	0.200	0.350
2020/01/31 08:21:38.9	313.950	-0.210	0.200	0.370
2020/01/31 08:21:39.0	313.950	-0.210	0.200	0.380
2020/01/31 08:21:39.1	313.950	-0.210	0.190	0.380
2020/01/31 08:21:39.2	313.960	-0.200	0.180	0.390
2020/01/31 08:21:39.3	313.960	-0.200	0.170	0.390
2020/01/31 08:21:39.4	313.960	-0.200	0.160	0.390
2020/01/31 08:21:39.5	313.960	-0.190	0.140	0.390
2020/01/31 08:21:39.6	313.960	-0.190	0.130	0.380
2020/01/31 08:21:39.7	313.960	-0.190	0.110	0.370
2020/01/31 08:21:39.8	313.960	-0.180	0.090	0.360
2020/01/31 08:21:39.9	313.960	-0.180	0.070	0.340
2020/01/31 08:21:40.0	313.960	-0.170	0.060	0.330
2020/01/31 08:21:40.1	313.960	-0.170	0.040	0.310
2020/01/31 08:21:40.2	313.950	-0.170	0.020	0.290
2020/01/31 08:21:40.3	313.950	-0.160	-0.000	0.260
2020/01/31 08:21:40.4	313.930	-0.160	-0.020	0.240
2020/01/31 08:21:40.5	313.930	-0.150	-0.040	0.210
2020/01/31 08:21:40.6	313.920	-0.150	-0.050	0.190
2020/01/31 08:21:40.7	313.920	-0.140	-0.070	0.160
2020/01/31 08:21:40.8	313.910	-0.130	-0.090	0.130
2020/01/31 08:21:40.9	313.900	-0.130	-0.110	0.090
2020/01/31 08:21:41.0	313.900	-0.120	-0.120	0.060
2020/01/31 08:21:41.1	313.890	-0.110	-0.140	0.030
2020/01/31 08:21:41.2	313.880	-0.100	-0.150	-0.000
2020/01/31 08:21:41.3	313.880	-0.090	-0.170	-0.040
2020/01/31 08:21:41.4	313.870	-0.070	-0.190	-0.070
2020/01/31 08:21:41.5	313.860	-0.060	-0.200	-0.110
2020/01/31 08:21:41.6	313.860	-0.050	-0.220	-0.140
2020/01/31 08:21:41.7	313.850	-0.030	-0.230	-0.180
2020/01/31 08:21:41.8	313.850	-0.020	-0.250	-0.210
2020/01/31 08:21:41.9	313.840	0.000	-0.260	-0.250
2020/01/31 08:21:42.0	313.840	0.020	-0.280	-0.280
2020/01/31 08:21:42.1	313.840	0.040	-0.290	-0.310
2020/01/31 08:21:42.2	313.840	0.060	-0.310	-0.340
2020/01/31 08:21:42.3	313.830	0.080	-0.330	-0.370
2020/01/31 08:21:42.4	313.840	0.100	-0.340	-0.400
2020/01/31 08:21:42.5	313.840	0.120	-0.360	-0.430
2020/01/31 08:21:42.6	313.840	0.140	-0.370	-0.460
2020/01/31 08:21:42.7	313.840	0.160	-0.390	-0.480
2020/01/31 08:21:42.8	313.840	0.190	-0.400	-0.510
2020/01/31 08:21:42.9	313.840	0.210	-0.420	-0.530
2020/01/31 08:21:43.0	313.850	0.230	-0.430	-0.550
2020/01/31 08:21:43.1	313.850	0.250	-0.440	-0.570
2020/01/31 08:21:43.2	313.850	0.270	-0.450	-0.590
2020/01/31 08:21:43.3	313.860	0.290	-0.460	-0.600
2020/01/31 08:21:43.4	313.860	0.310	-0.460	-0.610
2020/01/31 08:21:43.5	313.860	0.320	-0.460	-0.620
2020/01/31 08:21:43.6	313.870	0.340	-0.460	-0.630
2020/01/31 08:21:43.7	313.870	0.350	-0.460	-0.640
2020/01/31 08:21:43.8	313.870	0.360	-0.460	-0.640
2020/01/31 08:21:43.9	313.870	0.370	-0.450	-0.640
2020/01/31 08:21:44.0	313.870	0.380	-0.450	-0.630
2020/01/31 08:21:44.1	313.870	0.380	-0.440	-0.630
2020/01/31 08:21:44.2	313.860	0.390	-0.420	-0.620
2020/01/31 08:21:44.3	313.860	0.390	-0.410	-0.610
2020/01/31 08:21:44.4	313.840	0.390	-0.390	-0.590
2020/01/31 08:21:44.5	313.840	0.380	-0.370	-0.580
2020/01/31 08:21:44.6	313.830	0.380	-0.360	-0.560
2020/01/31 08:21:44.7	313.820	0.370	-0.330	-0.540
2020/01/31 08:21:44.8	313.810	0.360	-0.310	-0.510
2020/01/31 08:21:44.9	313.800	0.350	-0.290	-0.490
2020/01/31 08:21:45.0	313.790	0.340	-0.270	-0.460
2020/01/31 08:21:45.1	313.790	0.320	-0.250	-0.440
2020/01/31 08:21:45.2	313.780	0.310	-0.230	-0.410
2020/01/31 08:21:45.3	313.770	0.290	-0.210	-0.390
2020/01/31 08:21:45.4	313.760	0.280	-0.190	-0.360
2020/01/31 08:21:45.5	313.750	0.260	-0.170	-0.330
2020/01/31 08:21:45.6	313.750	0.240	-0.160	-0.310
2020/01/31 08:21:45.7	313.740	0.230	-0.140	-0.280
2020/01/31 08:21:45.8	313.740	0.210	-0.130	-0.260
2020/01/31 08:21:45.9	313.730	0.190	-0.120	-0.230
2020/01/31 08:21:46.0	313.730	0.180	-0.120	-0.210
2020/01/31 08:21:46.1	313.730	0.160	-0.110	-0.180
2020/01/31 08:21:46.2	313.730	0.140	-0.110	-0.160
2020/01/31 08:21:46.3	313.730	0.130	-0.110	-0.140
2020/01/31 08:21:46.4	313.730	0.110	-0.110	-0.110
2020/01/31 08:21:46.5	313.730	0.100	-0.120	-0.100
2020/01/31 08:21:46.6	313.730	0.090	-0.120	-0.080
2020/01/31 08:21:46.7	313.740	0.070	-0.130	-0.070
2020/01/31 08:21:46.8	313.740	0.060	-0.140	-0.060
2020/01/31 08:21:46.9	313.740	0.050	-0.160	-0.050
2020/01/31 08:21:47.0	313.750	0.040	-0.170	-0.040
2020/01/31 08:21:47.1	313.750	0.030	-0.190	-0.040
2020/01/31 08:21:47.2	313.760	0.020	-0.210	-0.040
2020/01/31 08:21:47.3	313.770	0.010	-0.230	-0.040
2020/01/31 08:21:47.4	313.780	0.000	-0.250	-0.050
2020/01/31 08:21:47.5	313.790	-0.000	-0.270	-0.050
2020/01/31 08:21:47.6	313.800	-0.010	-0.300	-0.060
2020/01/31 08:21:47.7	313.820	-0.010	-0.320	-0.070
2020/01/31 08:21:47.8	313.830	-0.020	-0.350	-0.090
2020/01/31 08:21:47.9	313.840	-0.020	-0.370	-0.100
2020/01/31 08:21:48.0	313.860	-0.030	-0.400	-0.120
2020/01/31 08:21:48.1	313.870	-0.030	-0.420	-0.140
2020/01/31 08:21:48.2	313.880	-0.030	-0.440	-0.150
2020/01/31 08:21:48.3	313.900	-0.030	-0.460	-0.170
2020/01/31 08:21:48.4	313.910	-0.040	-0.490	-0.190
2020/01/31 08:21:48.5	313.930	-0.040	-0.500	-0.210
2020/01/31 08:21:48.6	313.940	-0.040	-0.520	-0.220
2020/01/31 08:21:48.7	313.950	-0.040	-0.530	-0.240
2020/01/31 08:21:48.8	313.960	-0.040	-0.550	-0.250
2020/01/31 08:21:48.9	313.970	-0.040	-0.550	-0.260
2020/01/31 08:21:49.0	313.980	-0.050	-0.560	-0.260
2020/01/31 08:21:49.1	313.980	-0.050	-0.560	-0.270
2020/01/31 08:21:49.2	313.980	-0.050	-0.560	-0.270
2020/01/31 08:21:49.3	313.990	-0.050	-0.550	-0.270
2020/01/31 08:21:49.4	313.980	-0.050	-0.540	-0.260
2020/01/31 08:21:49.5	313.980	-0.060	-0.530	-0.260
2020/01/31 08:21:49.6	313.970	-0.060	-0.520	-0.250
2020/01/31 08:21:49.7	313.960	-0.060	-0.500	-0.240
2020/01/31 08:21:49.8	313.950	-0.060	-0.470	-0.220
2020/01/31 08:21:49.9	313.940	-0.070	-0.450	-0.200
2020/01/31 08:21:50.0	313.930	-0.070	-0.420	-0.180
2020/01/31 08:21:50.1	313.910	-0.070	-0.390	-0.160
2020/01/31 08:21:50.2	313.890	-0.080	-0.360	-0.140
2020/01/31 08:21:50.3	313.880	-0.080	-0.330	-0.110
2020/01/31 08:21:50.4	313.850	-0.080	-0.290	-0.090
2020/01/31 08:21:50.5	313.830	-0.090	-0.260	-0.060
2020/01/31 08:21:50.6	313.810	-0.090	-0.220	-0.030
2020/01/31 08:21:50.7	313.790	-0.090	-0.190	-0.000
2020/01/31 08:21:50.8	313.770	-0.090	-0.160	0.030
2020/01/31 08:21:50.9	313.750	-0.100	-0.130	0.050
2020/01/31 08:21:51.0	313.730	-0.100	-0.100	0.080
2020/01/31 08:21:51.1	313.710	-0.100	-0.070	0.100
2020/01/31 08:21:51.2	313.690	-0.100	-0.050	0.130
2020/01/31 08:21:51.3	313.670	-0.100	-0.030	0.150
2020/01/31 08:21:51.4	313.670	-0.110	-0.010	0.170
2020/01/31 08:21:51.5	313.650	-0.110	0.010	0.180
2020/01/31 08:21:51.6	313.640	-0.110	0.020	0.200
2020/01/31 08:21:51.7	313.630	-0.110	0.030	0.210
2020/01/31 08:21:51.8	313.610	-0.110	0.030	0.210
2020/01/31 08:21:51.9	313.600	-0.110	0.040	0.220
2020/01/31 08:21:52.0	313.590	-0.110	0.030	0.220
2020/01/31 08:21:52.1	313.590	-0.110	0.030	0.220
2020/01/31 08:21:52.2	313.580	-0.120	0.030	0.210
2020/01/31 08:21:52.3	313.570	-0.120	0.020	0.200
2020/01/31 08:21:52.4	313.570	-0.120	0.000	0.190
2020/01/31 08:21:52.5	313.570	-0.120	-0.010	0.180
2020/01/31 08:21:52.6	313.560	-0.120	-0.020	0.160
2020/01/31 08:21:52.7	313.560	-0.130	-0.040	0.140
2020/01/31 08:21:52.8	313.560	-0.130	-0.050	0.120
2020/01/31 08:21:52.9	313.560	-0.130	-0.070	0.090
2020/01/31 08:21:53.0	313.560	-0.140	-0.090	0.060
2020/01/31 08:21:53.1	313.570	-0.140	-0.110	0.030
2020/01/31 08:21:53.2	313.570	-0.140	-0.130	-0.000
2020/01/31 08:21:53.3	313.570	-0.150	-0.150	-0.040
2020/01/31 08:21:53.4	313.580	-0.150	-0.170	-0.070
2020/01/31 08:21:53.5	313.580	-0.160	-0.190	-0.110
2020/01/31 08:21:53.6	313.590	-0.160	-0.200	-0.150
2020/01/31 08:21:53.7	313.600	-0.170	-0.220	-0.180
2020/01/31 08:21:53.8	313.610	-0.180	-0.240	-0.220
2020/01/31 08:21:53.9	313.620	-0.180	-0.250	-0.260
2020/01/31 08:21:54.0	313.620	-0.190	-0.270	-0.300
2020/01/31 08:21:54.1	313.640	-0.190	-0.280	-0.330
2020/01/31 08:21:54.2	313.650	-0.200	-0.290	-0.370
2020/01/31 08:21:54.3	313.660	-0.210	-0.300	-0.410
2020/01/31 08:21:54.4	313.660	-0.210	-0.310	-0.440
2020/01/31 08:21:54.5	313.670	-0.220	-0.310	-0.470
2020/01/31 08:21:54.6	313.680	-0.230	-0.320	-0.500
2020/01/31 08:21:54.7	313.690	-0.230	-0.320	-0.530
2020/01/31 08:21:54.8	313.700	-0.240	-0.320	-0.560
2020/01/31 08:21:54.9	313.710	-0.250	-0.320	-0.580
2020/01/31 08:21:55.0	313.710	-0.250	-0.320	-0.600
2020/01/31 08:21:55.1	313.720	-0.260	-0.310	-0.620
2020/01/31 08:21:55.2	313.730	-0.260	-0.310	-0.630
2020/01/31 08:21:55.3	313.730	-0.270	-0.300	-0.640
2020/01/31 08:21:55.4	313.720	-0.270	-0.290	-0.660
2020/01/31 08:21:55.5	313.730	-0.270	-0.280	-0.660
2020/01/31 08:21:55.6	313.730	-0.270	-0.270	-0.670
2020/01/31 08:21:55.7	313.730	-0.270	-0.260	-0.670
2020/01/31 08:21:55.8	313.730	-0.270	-0.250	-0.670
2020/01/31 08:21:55.9	313.740	-0.270	-0.240	-0.670
2020/01/31 08:21:56.0	313.740	-0.270	-0.230	-0.670
2020/01/31 08:21:56.1	313.740	-0.260	-0.220	-0.660
2020/01/31 08:21:56.2	313.730	-0.260	-0.210	-0.650
2020/01/31 08:21:56.3	313.730	-0.250	-0.190	-0.640
2020/01/31 08:21:56.4	313.730	-0.240	-0.180	-0.630
2020/01/31 08:21:56.5	313.730	-0.230	-0.170	-0.620
2020/01/31 08:21:56.6	313.730	-0.220	-0.160	-0.600
2020/01/31 08:21:56.7	313.720	-0.200	-0.150	-0.580
2020/01/31 08:21:56.8	313.720	-0.190	-0.140	-0.560
2020/01/31 08:21:56.9	313.710	-0.170	-0.130	-0.540
2020/01/31 08:21:57.0	313.710	-0.150	-0.120	-0.520
2020/01/31 08:21:57.1	313.700	-0.130	-0.110	-0.500
2020/01/31 08:21:57.2	313.700	-0.110	-0.100	-0.470
2020/01/31 08:21:57.3	313.690	-0.090	-0.100	-0.450
2020/01/31 08:21:57.4	313.680	-0.070	-0.090	-0.430
2020/01/31 08:21:57.5	313.680	-0.040	-0.090	-0.400
2020/01/31 08:21:57.6	313.670	-0.020	-0.090	-0.380
2020/01/31 08:21:57.7	313.670	0.010	-0.090	-0.360
2020/01/31 08:21:57.8	313.670	0.030	-0.090	-0.330
2020/01/31 08:21:57.9	313.670	0.060	-0.100	-0.310
2020/01/31 08:21:58.0	313.680	0.080	-0.100	-0.290
2020/01/31 08:21:58.1	313.680	0.110	-0.110	-0.260
2020/01/31 08:21:58.2	313.690	0.140	-0.120	-0.240
2020/01/31 08:21:58.3	313.690	0.170	-0.140	-0.220
2020/01/31 08:21:58.4	313.700	0.190	-0.150	-0.190
2020/01/31 08:21:58.5	313.710	0.220	-0.170	-0.170
2020/01/31 08:21:58.6	313.720	0.250	-0.180	-0.140
2020/01/31 08:21:58.7	313.730	0.270	-0.200	-0.120
2020/01/31 08:21:58.8	313.740	0.300	-0.220	-0.090
2020/01/31 08:21:58.9	313.750	0.320	-0.240	-0.060
2020/01/31 08:21:59.0	313.760	0.340	-0.250	-0.030
2020/01/31 08:21:59.1	313.770	0.360	-0.270	-0.000
2020/01/31 08:21:59.2	313.780	0.380	-0.290	0.030
2020/01/31 08:21:59.3	313.790	0.400	-0.300	0.070
2020/01/31 08:21:59.4	313.800	0.420	-0.310	0.100
2020/01/31 08:21:59.5	313.810	0.440	-0.320	0.140
2020/01/31 08:21:59.6	313.810	0.450	-0.330	0.170
2020/01/31 08:21:59.7	313.810	0.460	-0.340	0.210
2020/01/31 08:21:59.8	313.810	0.470	-0.340	0.250
2020/01/31 08:21:59.9	313.810	0.480	-0.350	0.290
2020/01/31 08:22:00.0	313.800	0.480	-0.350	0.330
2020/01/31 08:22:00.1	313.800	0.490	-0.340	0.370
2020/01/31 08:22:00.2	313.790	0.490	-0.340	0.410
2020/01/31 08:22:00.3	313.780	0.490	-0.340	0.450
2020/01/31 08:22:00.4	313.770	0.490	-0.330	0.490
2020/01/31 08:22:00.5	313.750	0.490	-0.320	0.530
2020/01/31 08:22:00.6	313.740	0.480	-0.310	0.560
2020/01/31 08:22:00.7	313.720	0.480	-0.300	0.600
2020/01/31 08:22:00.8	313.710	0.470	-0.290	0.630
2020/01/31 08:22:00.9	313.690	0.460	-0.280	0.660
2020/01/31 08:22:01.0	313.670	0.450	-0.280	0.690
2020/01/31 08:22:01.1	313.650	0.440	-0.270	0.720
2020/01/31 08:22:01.2	313.630	0.420	-0.260	0.740
2020/01/31 08:22:01.3	313.610	0.410	-0.250	0.760
2020/01/31 08:22:01.4	313.590	0.390	-0.250	0.770
2020/01/31 08:22:01.5	313.560	0.380	-0.240	0.790
2020/01/31 08:22:01.6	313.540	0.360	-0.240	0.790
2020/01/31 08:22:01.7	313.520	0.340	-0.230	0.800
2020/01/31 08:22:01.8	313.500	0.320	-0.230	0.800
2020/01/31 08:22:01.9	313.470	0.310	-0.230	0.790
2020/01/31 08:22:02.0	313.450	0.290	-0.230	0.780
2020/01/31 08:22:02.1	313.430	0.270	-0.240	0.770
2020/01/31 08:22:02.2	313.410	0.250	-0.240	0.750
2020/01/31 08:22:02.3	313.390	0.240	-0.240	0.730
2020/01/31 08:22:02.4	313.360	0.220	-0.250	0.700
2020/01/31 08:22:02.5	313.340	0.200	-0.260	0.670
2020/01/31 08:22:02.6	313.320	0.180	-0.260	0.640
2020/01/31 08:22:02.7	313.310	0.170	-0.270	0.600
2020/01/31 08:22:02.8	313.290	0.150	-0.280	0.570
2020/01/31 08:22:02.9	313.280	0.140	-0.290	0.530
2020/01/31 08:22:03.0	313.270	0.120	-0.290	0.480
2020/01/31 08:22:03.1	313.260	0.110	-0.300	0.440
2020/01/31 08:22:03.2	313.250	0.090	-0.300	0.400
2020/01/31 08:22:03.3	313.240	0.080	-0.310	0.350
2020/01/31 08:22:03.4	313.240	0.060	-0.310	0.310
2020/01/31 08:22:03.5	313.230	0.050	-0.310	0.260
2020/01/31 08:22:03.6	313.230	0.030	-0.310	0.210
2020/01/31 08:22:03.7	313.230	0.020	-0.310	0.160
2020/01/31 08:22:03.8	313.230	0.000	-0.310	0.110
2020/01/31 08:22:03.9	313.230	-0.010	-0.310	0.060
2020/01/31 08:22:04.0	313.230	-0.030	-0.300	0.010
2020/01/31 08:22:04.1	313.240	-0.050	-0.300	-0.040
2020/01/31 08:22:04.2	313.250	-0.060	-0.300	-0.090
2020/01/31 08:22:04.3	313.250	-0.080	-0.300	-0.140
2020/01/31 08:22:04.4	313.270	-0.100	-0.290	-0.200
2020/01/31 08:22:04.5	313.280	-0.120	-0.290	-0.250
2020/01/31 08:22:04.6	313.300	-0.140	-0.290	-0.310
2020/01/31 08:22:04.7	313.310	-0.160	-0.290	-0.360
2020/01/31 08:22:04.8	313.320	-0.180	-0.290	-0.410
2020/01/31 08:22:04.9	313.340	-0.200	-0.290	-0.470
2020/01/31 08:22:05.0	313.350	-0.220	-0.290	-0.520
2020/01/31 08:22:05.1	313.370	-0.240	-0.290	-0.570
2020/01/31 08:22:05.2	313.380	-0.260	-0.290	-0.620
2020/01/31 08:22:05.3	313.400	-0.280	-0.290	-0.670
2020/01/31 08:22:05.4	313.410	-0.300	-0.300	-0.720
2020/01/31 08:22:05.5	313.420	-0.320	-0.300	-0.770
2020/01/31 08:22:05.6	313.440	-0.340	-0.300	-0.810
2020/01/31 08:22:05.7	313.460	-0.360	-0.300	-0.860
2020/01/31 08:22:05.8	313.470	-0.380	-0.310	-0.900
2020/01/31 08:22:05.9	313.490	-0.400	-0.310	-0.940
2020/01/31 08:22:06.0	313.500	-0.420	-0.320	-0.970
2020/01/31 08:22:06.1	313.520	-0.430	-0.320	-1.010
2020/01/31 08:22:06.2	313.540	-0.450	-0.320	-1.040
2020/01/31 08:22:06.3	313.550	-0.460	-0.330	-1.070
2020/01/31 08:22:06.4	313.560	-0.480	-0.340	-1.090
2020/01/31 08:22:06.5	313.580	-0.490	-0.340	-1.120
2020/01/31 08:22:06.6	313.600	-0.500	-0.350	-1.140
2020/01/31 08:22:06.7	313.620	-0.510	-0.350	-1.160
2020/01/31 08:22:06.8	313.640	-0.520	-0.360	-1.170
2020/01/31 08:22:06.9	313.660	-0.520	-0.370	-1.190
2020/01/31 08:22:07.0	313.680	-0.530	-0.370	-1.200
2020/01/31 08:22:07.1	313.700	-0.530	-0.380	-1.200
2020/01/31 08:22:07.2	313.720	-0.540	-0.380	-1.210
2020/01/31 08:22:07.3	313.740	-0.540	-0.380	-1.210
2020/01/31 08:22:07.4	313.750	-0.540	-0.380	-1.210
2020/01/31 08:22:07.5	313.770	-0.540	-0.380	-1.210
2020/01/31 08:22:07.6	313.780	-0.530	-0.380	-1.200
2020/01/31 08:22:07.7	313.800	-0.530	-0.380	-1.180
2020/01/31 08:22:07.8	313.810	-0.520	-0.370	-1.170
2020/01/31 08:22:07.9	313.830	-0.510	-0.370	-1.140
2020/01/31 08:22:08.0	313.840	-0.500	-0.360	-1.120
2020/01/31 08:22:08.1	313.850	-0.490	-0.350	-1.090
2020/01/31 08:22:08.2	313.860	-0.480	-0.340	-1.060
2020/01/31 08:22:08.3	313.860	-0.470	-0.320	-1.020
2020/01/31 08:22:08.4	313.880	-0.450	-0.310	-0.970
2020/01/31 08:22:08.5	313.880	-0.440	-0.290	-0.930
2020/01/31 08:22:08.6	313.880	-0.420	-0.270	-0.880
2020/01/31 08:22:08.7	313.880	-0.400	-0.250	-0.820
2020/01/31 08:22:08.8	313.880	-0.380	-0.220	-0.760
2020/01/31 08:22:08.9	313.870	-0.360	-0.200	-0.700
2020/01/31 08:22:09.0	313.870	-0.340	-0.170	-0.640
2020/01/31 08:22:09.1	313.860	-0.310	-0.140	-0.570
2020/01/31 08:22:09.2	313.850	-0.290	-0.110	-0.500
2020/01/31 08:22:09.3	313.840	-0.270	-0.080	-0.430
2020/01/31 08:22:09.4	313.840	-0.240	-0.050	-0.360
2020/01/31 08:22:09.5	313.830	-0.210	-0.020	-0.290
2020/01/31 08:22:09.6	313.820	-0.190	0.010	-0.210
2020/01/31 08:22:09.7	313.800	-0.160	0.040	-0.140
2020/01/31 08:22:09.8	313.790	-0.130	0.070	-0.060
2020/01/31 08:22:09.9	313.780	-0.100	0.100	0.010
2020/01/31 08:22:10.0	313.760	-0.080	0.130	0.080
2020/01/31 08:22:10.1	313.740	-0.050	0.160	0.160
2020/01/31 08:22:10.2	313.730	-0.020	0.180	0.230
2020/01/31 08:22:10.3	313.710	0.010	0.210	0.300
2020/01/31 08:22:10.4	313.700	0.040	0.230	0.370
2020/01/31 08:22:10.5	313.680	0.070	0.250	0.440
2020/01/31 08:22:10.6	313.670	0.090	0.260	0.510
2020/01/31 08:22:10.7	313.650	0.120	0.280	0.570
2020/01/31 08:22:10.8	313.630	0.150	0.290	0.630
2020/01/31 08:22:10.9	313.610	0.170	0.300	0.690
2020/01/31 08:22:11.0	313.590	0.190	0.310	0.740
2020/01/31 08:22:11.1	313.580	0.220	0.310	0.790
2020/01/31 08:22:11.2	313.560	0.240	0.310	0.840
2020/01/31 08:22:11.3	313.540	0.260	0.300	0.880
2020/01/31 08:22:11.4	313.520	0.280	0.300	0.920
2020/01/31 08:22:11.5	313.510	0.300	0.290	0.960
2020/01/31 08:22:11.6	313.490	0.310	0.270	0.990
2020/01/31 08:22:11.7	313.480	0.330	0.260	1.010
2020/01/31 08:22:11.8	313.470	0.340	0.240	1.030
2020/01/31 08:22:11.9	313.450	0.350	0.210	1.040
2020/01/31 08:22:12.0	313.440	0.360	0.190	1.050
2020/01/31 08:22:12.1	313.430	0.360	0.160	1.050
2020/01/31 08:22:12.2	313.420	0.370	0.130	1.050
2020/01/31 08:22:12.3	313.400	0.370	0.100	1.050
2020/01/31 08:22:12.4	313.400	0.380	0.060	1.030
2020/01/31 08:22:12.5	313.390	0.380	0.020	1.010
2020/01/31 08:22:12.6	313.380	0.380	-0.020	0.990
2020/01/31 08:22:12.7	313.380	0.380	-0.070	0.960
2020/01/31 08:22:12.8	313.370	0.370	-0.110	0.930
2020/01/31 08:22:12.9	313.370	0.370	-0.160	0.890
2020/01/31 08:22:13.0	313.360	0.370	-0.210	0.850
2020/01/31 08:22:13.1	313.360	0.360	-0.250	0.810
2020/01/31 08:22:13.2	313.360	0.360	-0.300	0.760
2020/01/31 08:22:13.3	313.360	0.350	-0.350	0.710
2020/01/31 08:22:13.4	313.370	0.350	-0.400	0.650
2020/01/31 08:22:13.5	313.370	0.340	-0.450	0.600
2020/01/31 08:22:13.6	313.370	0.340	-0.500	0.550
2020/01/31 08:22:13.7	313.370	0.330	-0.540	0.490
2020/01/31 08:22:13.8	313.370	0.330	-0.590	0.440
2020/01/31 08:22:13.9	313.380	0.330	-0.630	0.390
2020/01/31 08:22:14.0	313.380	0.320	-0.670	0.330
2020/01/31 08:22:14.1	313.380	0.320	-0.710	0.280
2020/01/31 08:22:14.2	313.380	0.320	-0.740	0.230
2020/01/31 08:22:14.3	313.390	0.320	-0.780	0.170
2020/01/31 08:22:14.4	313.400	0.320	-0.810	0.120
2020/01/31 08:22:14.5	313.400	0.320	-0.830	0.070
2020/01/31 08:22:14.6	313.410	0.320	-0.860	0.020
2020/01/31 08:22:14.7	313.420	0.320	-0.880	-0.030
2020/01/31 08:22:14.8	313.420	0.320	-0.900	-0.080
2020/01/31 08:22:14.9	313.430	0.320	-0.920	-0.120
2020/01/31 08:22:15.0	313.440	0.330	-0.930	-0.170
2020/01/31 08:22:15.1	313.450	0.330	-0.940	-0.220
2020/01/31 08:22:15.2	313.450	0.330	-0.950	-0.260
2020/01/31 08:22:15.3	313.460	0.330	-0.960	-0.310
2020/01/31 08:22:15.4	313.470	0.330	-0.960	-0.350
2020/01/31 08:22:15.5	313.480	0.330	-0.960	-0.390
2020/01/31 08:22:15.6	313.490	0.330	-0.950	-0.430
2020/01/31 08:22:15.7	313.510	0.330	-0.950	-0.470
2020/01/31 08:22:15.8	313.520	0.330	-0.940	-0.500
2020/01/31 08:22:15.9	313.530	0.320	-0.930	-0.540
2020/01/31 08:22:16.0	313.540	0.310	-0.910	-0.570
2020/01/31 08:22:16.1	313.550	0.310	-0.900	-0.600
2020/01/31 08:22:16.2	313.570	0.300	-0.880	-0.620
2020/01/31 08:22:16.3	313.580	0.280	-0.850	-0.650
2020/01/31 08:22:16.4	313.580	0.270	-0.830	-0.670
2020/01/31 08:22:16.5	313.590	0.260	-0.800	-0.690
2020/01/31 08:22:16.6	313.600	0.240	-0.780	-0.710
2020/01/31 08:22:16.7	313.610	0.220	-0.740	-0.720
2020/01/31 08:22:16.8	313.630	0.200	-0.710	-0.730
2020/01/31 08:22:16.9	313.640	0.180	-0.680	-0.750
2020/01/31 08:22:17.0	313.650	0.150	-0.640	-0.750
2020/01/31 08:22:17.1	313.670	0.130	-0.610	-0.760
2020/01/31 08:22:17.2	313.680	0.100	-0.570	-0.770
2020/01/31 08:22:17.3	313.690	0.070	-0.530	-0.770
2020/01/31 08:22:17.4	313.690	0.040	-0.490	-0.770
2020/01/31 08:22:17.5	313.710	0.010	-0.450	-0.770
2020/01/31 08:22:17.6	313.720	-0.020	-0.410	-0.770
2020/01/31 08:22:17.7	313.740	-0.050	-0.380	-0.770
2020/01/31 08:22:17.8	313.750	-0.080	-0.340	-0.770
2020/01/31 08:22:17.9	313.770	-0.110	-0.300	-0.760
2020/01/31 08:22:18.0	313.790	-0.140	-0.260	-0.760
2020/01/31 08:22:18.1	313.800	-0.160	-0.230	-0.760
2020/01/31 08:22:18.2	313.810	-0.190	-0.190	-0.750
2020/01/31 08:22:18.3	313.830	-0.220	-0.160	-0.740
2020/01/31 08:22:18.4	313.840	-0.240	-0.120	-0.740
2020/01/31 08:22:18.5	313.850	-0.270	-0.090	-0.730
2020/01/31 08:22:18.6	313.870	-0.290	-0.050	-0.720
2020/01/31 08:22:18.7	313.880	-0.310	-0.020	-0.700
2020/01/31 08:22:18.8	313.890	-0.330	0.010	-0.690
2020/01/31 08:22:18.9	313.890	-0.350	0.040	-0.670
2020/01/31 08:22:19.0	313.900	-0.370	0.070	-0.660
2020/01/31 08:22:19.1	313.910	-0.380	0.100	-0.640
2020/01/31 08:22:19.2	313.910	-0.400	0.130	-0.620
2020/01/31 08:22:19.3	313.920	-0.410	0.160	-0.600
2020/01/31 08:22:19.4	313.900	-0.420	0.200	-0.570
2020/01/31 08:22:19.5	313.900	-0.430	0.220	-0.550
2020/01/31 08:22:19.6	313.910	-0.430	0.250	-0.520
2020/01/31 08:22:19.7	313.910	-0.440	0.280	-0.500
2020/01/31 08:22:19.8	313.910	-0.450	0.310	-0.470
2020/01/31 08:22:19.9	313.910	-0.450	0.330	-0.450
2020/01/31 08:22:20.0	313.910	-0.450	0.350	-0.420
2020/01/31 08:22:20.1	313.910	-0.450	0.380	-0.400
2020/01/31 08:22:20.2	313.900	-0.460	0.400	-0.370
2020/01/31 08:22:20.3	313.900	-0.460	0.420	-0.340
2020/01/31 08:22:20.4	313.890	-0.460	0.430	-0.320
2020/01/31 08:22:20.5	313.880	-0.450	0.450	-0.290
2020/01/31 08:22:20.6	313.880	-0.450	0.460	-0.270
2020/01/31 08:22:20.7	313.870	-0.450	0.480	-0.240
2020/01/31 08:22:20.8	313.860	-0.450	0.490	-0.210
2020/01/31 08:22:20.9	313.840	-0.450	0.500	-0.180
2020/01/31 08:22:21.0	313.830	-0.440	0.500	-0.150
2020/01/31 08:22:21.1	313.810	-0.440	0.510	-0.120
2020/01/31 08:22:21.2	313.790	-0.440	0.510	-0.090
2020/01/31 08:22:21.3	313.760	-0.430	0.510	-0.050
2020/01/31 08:22:21.4	313.730	-0.430	0.520	-0.010
2020/01/31 08:22:21.5	313.710	-0.430	0.510	0.020
2020/01/31 08:22:21.6	313.670	-0.420	0.510	0.060
2020/01/31 08:22:21.7	313.640	-0.420	0.500	0.100
2020/01/31 08:22:21.8	313.600	-0.410	0.500	0.130
2020/01/31 08:22:21.9	313.570	-0.410	0.490	0.170
2020/01/31 08:22:22.0	313.530	-0.400	0.480	0.210
2020/01/31 08:22:22.1	313.490	-0.400	0.460	0.240
2020/01/31 08:22:22.2	313.450	-0.390	0.450	0.270
2020/01/31 08:22:22.3	313.410	-0.380	0.430	0.300
2020/01/31 08:22:22.4	313.380	-0.370	0.410	0.330
2020/01/31 08:22:22.5	313.340	-0.360	0.390	0.350
2020/01/31 08:22:22.6	313.300	-0.350	0.360	0.380
2020/01/31 08:22:22.7	313.270	-0.340	0.340	0.400
2020/01/31 08:22:22.8	313.230	-0.330	0.310	0.410
2020/01/31 08:22:22.9	313.200	-0.320	0.280	0.420
2020/01/31 08:22:23.0	313.160	-0.300	0.240	0.430
2020/01/31 08:22:23.1	313.130	-0.290	0.200	0.440
2020/01/31 08:22:23.2	313.100	-0.270	0.160	0.440
2020/01/31 08:22:23.3	313.070	-0.250	0.120	0.440
2020/01/31 08:22:23.4	313.030	-0.230	0.070	0.430
2020/01/31 08:22:23.5	313.010	-0.210	0.030	0.420
2020/01/31 08:22:23.6	312.980	-0.190	-0.020	0.410
2020/01/31 08:22:23.7	312.950	-0.170	-0.080	0.400
2020/01/31 08:22:23.8	312.930	-0.150	-0.130	0.380
2020/01/31 08:22:23.9	312.910	-0.120	-0.190	0.360
2020/01/31 08:22:24.0	312.890	-0.100	-0.250	0.340
2020/01/31 08:22:24.1	312.870	-0.070	-0.310	0.320
2020/01/31 08:22:24.2	312.850	-0.050	-0.370	0.290
2020/01/31 08:22:24.3	312.840	-0.020	-0.430	0.260
2020/01/31 08:22:24.4	312.840	0.010	-0.490	0.240
2020/01/31 08:22:24.5	312.830	0.040	-0.550	0.210
2020/01/31 08:22:24.6	312.820	0.070	-0.620	0.180
2020/01/31 08:22:24.7	312.820	0.100	-0.680	0.150
2020/01/31 08:22:24.8	312.820	0.130	-0.740	0.110
2020/01/31 08:22:24.9	312.820	0.160	-0.800	0.080
2020/01/31 08:22:25.0	312.830	0.190	-0.850	0.050
2020/01/31 08:22:25.1	312.840	0.220	-0.910	0.010
2020/01/31 08:22:25.2	312.850	0.250	-0.960	-0.030
2020/01/31 08:22:25.3	312.860	0.280	-1.010	-0.060
2020/01/31 08:22:25.4	312.870	0.310	-1.060	-0.100
2020/01/31 08:22:25.5	312.890	0.330	-1.110	-0.140
2020/01/31 08:22:25.6	312.910	0.360	-1.150	-0.180
2020/01/31 08:22:25.7	312.940	0.390	-1.190	-0.220
2020/01/31 08:22:25.8	312.970	0.410	-1.220	-0.260
2020/01/31 08:22:25.9	313.000	0.440	-1.250	-0.290
2020/01/31 08:22:26.0	313.030	0.460	-1.280	-0.330
2020/01/31 08:22:26.1	313.060	0.480	-1.300	-0.370
2020/01/31 08:22:26.2	313.100	0.500	-1.320	-0.410
2020/01/31 08:22:26.3	313.130	0.510	-1.340	-0.440
2020/01/31 08:22:26.4	313.180	0.530	-1.350	-0.480
2020/01/31 08:22:26.5	313.210	0.540	-1.350	-0.510
2020/01/31 08:22:26.6	313.250	0.550	-1.350	-0.540
2020/01/31 08:22:26.7	313.290	0.560	-1.340	-0.570
2020/01/31 08:22:26.8	313.330	0.560	-1.330	-0.590
2020/01/31 08:22:26.9	313.370	0.570	-1.320	-0.610
2020/01/31 08:22:27.0	313.410	0.570	-1.300	-0.620
2020/01/31 08:22:27.1	313.440	0.570	-1.270	-0.640
2020/01/31 08:22:27.2	313.480	0.560	-1.240	-0.640
2020/01/31 08:22:27.3	313.510	0.560	-1.210	-0.650
2020/01/31 08:22:27.4	313.550	0.550	-1.170	-0.640
2020/01/31 08:22:27.5	313.590	0.550	-1.130	-0.640
2020/01/31 08:22:27.6	313.620	0.540	-1.080	-0.630
2020/01/31 08:22:27.7	313.640	0.520	-1.030	-0.610
2020/01/31 08:22:27.8	313.670	0.510	-0.980	-0.600
2020/01/31 08:22:27.9	313.690	0.490	-0.930	-0.580
2020/01/31 08:22:28.0	313.720	0.480	-0.870	-0.550
2020/01/31 08:22:28.1	313.740	0.460	-0.820	-0.530
2020/01/31 08:22:28.2	313.760	0.440	-0.760	-0.500
2020/01/31 08:22:28.3	313.780	0.420	-0.700	-0.470
2020/01/31 08:22:28.4	313.810	0.400	-0.630	-0.450
2020/01/31 08:22:28.5	313.830	0.370	-0.570	-0.420
2020/01/31 08:22:28.6	313.840	0.350	-0.510	-0.390
2020/01/31 08:22:28.7	313.860	0.330	-0.450	-0.360
2020/01/31 08:22:28.8	313.870	0.300	-0.390	-0.330
2020/01/31 08:22:28.9	313.890	0.270	-0.320	-0.300
2020/01/31 08:22:29.0	313.900	0.250	-0.260	-0.280
2020/01/31 08:22:29.1	313.920	0.220	-0.200	-0.250
2020/01/31 08:22:29.2	313.930	0.190	-0.140	-0.230
2020/01/31 08:22:29.3	313.940	0.160	-0.080	-0.210
2020/01/31 08:22:29.4	313.950	0.140	-0.020	-0.190
2020/01/31 08:22:29.5	313.960	0.110	0.040	-0.170
2020/01/31 08:22:29.6	313.960	0.080	0.100	-0.150
2020/01/31 08:22:29.7	313.970	0.050	0.150	-0.130
2020/01/31 08:22:29.8	313.970	0.020	0.210	-0.110
2020/01/31 08:22:29.9	313.970	-0.010	0.260	-0.090
2020/01/31 08:22:30.0	313.960	-0.040	0.320	-0.070
2020/01/31 08:22:30.1	313.960	-0.070	0.370	-0.050
2020/01/31 08:22:30.2	313.950	-0.100	0.420	-0.030
2020/01/31 08:22:30.3	313.930	-0.120	0.470	-0.020
2020/01/31 08:22:30.4	313.920	-0.150	0.510	0.000
2020/01/31 08:22:30.5	313.900	-0.180	0.550	0.020
2020/01/31 08:22:30.6	313.880	-0.210	0.600	0.040
2020/01/31 08:22:30.7	313.860	-0.230	0.640	0.060
2020/01/31 08:22:30.8	313.830	-0.260	0.670	0.080
2020/01/31 08:22:30.9	313.800	-0.280	0.710	0.100
2020/01/31 08:22:31.0	313.770	-0.300	0.740	0.120
2020/01/31 08:22:31.1	313.740	-0.320	0.770	0.140
2020/01/31 08:22:31.2	313.700	-0.340	0.790	0.160
2020/01/31 08:22:31.3	313.670	-0.360	0.810	0.170
2020/01/31 08:22:31.4	313.630	-0.380	0.830	0.190
2020/01/31 08:22:31.5	313.590	-0.400	0.840	0.200
2020/01/31 08:22:31.6	313.550	-0.410	0.850	0.220
2020/01/31 08:22:31.7	313.510	-0.430	0.850	0.230
2020/01/31 08:22:31.8	313.460	-0.440	0.850	0.230
2020/01/31 08:22:31.9	313.420	-0.450	0.840	0.240
2020/01/31 08:22:32.0	313.380	-0.460	0.820	0.240
2020/01/31 08:22:32.1	313.330	-0.460	0.810	0.250
2020/01/31 08:22:32.2	313.280	-0.470	0.780	0.240
2020/01/31 08:22:32.3	313.240	-0.470	0.750	0.240
2020/01/31 08:22:32.4	313.180	-0.470	0.720	0.230
2020/01/31 08:22:32.5	313.130	-0.470	0.680	0.220
2020/01/31 08:22:32.6	313.090	-0.470	0.630	0.210
2020/01/31 08:22:32.7	313.040	-0.460	0.590	0.190
2020/01/31 08:22:32.8	312.990	-0.460	0.540	0.180
2020/01/31 08:22:32.9	312.950	-0.450	0.480	0.150
2020/01/31 08:22:33.0	312.910	-0.440	0.430	0.130
2020/01/31 08:22:33.1	312.870	-0.430	0.370	0.100
2020/01/31 08:22:33.2	312.830	-0.410	0.310	0.070
2020/01/31 08:22:33.3	312.790	-0.400	0.250	0.040
2020/01/31 08:22:33.4	312.740	-0.380	0.180	0.010
2020/01/31 08:22:33.5	312.710	-0.370	0.120	-0.030
2020/01/31 08:22:33.6	312.680	-0.350	0.060	-0.060
2020/01/31 08:22:33.7	312.660	-0.330	-0.010	-0.100
2020/01/31 08:22:33.8	312.630	-0.310	-0.070	-0.130
2020/01/31 08:22:33.9	312.610	-0.290	-0.130	-0.170
2020/01/31 08:22:34.0	312.600	-0.270	-0.190	-0.210
2020/01/31 08:22:34.1	312.590	-0.250	-0.250	-0.240
2020/01/31 08:22:34.2	312.580	-0.220	-0.310	-0.280
2020/01/31 08:22:34.3	312.570	-0.200	-0.360	-0.320
2020/01/31 08:22:34.4	312.550	-0.180	-0.420	-0.350
2020/01/31 08:22:34.5	312.550	-0.160	-0.470	-0.380
2020/01/31 08:22:34.6	312.550	-0.140	-0.510	-0.410
2020/01/31 08:22:34.7	312.560	-0.120	-0.560	-0.450
2020/01/31 08:22:34.8	312.570	-0.100	-0.590	-0.480
2020/01/31 08:22:34.9	312.580	-0.080	-0.630	-0.500
2020/01/31 08:22:35.0	312.590	-0.060	-0.660	-0.530
2020/01/31 08:22:35.1	312.600	-0.040	-0.690	-0.550
2020/01/31 08:22:35.2	312.620	-0.030	-0.710	-0.570
2020/01/31 08:22:35.3	312.630	-0.010	-0.730	-0.590
2020/01/31 08:22:35.4	312.650	0.000	-0.750	-0.610
2020/01/31 08:22:35.5	312.670	0.020	-0.760	-0.620
2020/01/31 08:22:35.6	312.690	0.030	-0.770	-0.630
2020/01/31 08:22:35.7	312.710	0.040	-0.770	-0.640
2020/01/31 08:22:35.8	312.730	0.050	-0.780	-0.640
2020/01/31 08:22:35.9	312.750	0.060	-0.780	-0.650
2020/01/31 08:22:36.0	312.770	0.060	-0.780	-0.650
2020/01/31 08:22:36.1	312.800	0.070	-0.770	-0.640
2020/01/31 08:22:36.2	312.820	0.080	-0.760	-0.630
2020/01/31 08:22:36.3	312.850	0.080	-0.760	-0.630
2020/01/31 08:22:36.4	312.870	0.090	-0.740	-0.610
2020/01/31 08:22:36.5	312.890	0.090	-0.730	-0.600
2020/01/31 08:22:36.6	312.920	0.100	-0.720	-0.580
2020/01/31 08:22:36.7	312.950	0.110	-0.710	-0.560
2020/01/31 08:22:36.8	312.970	0.110	-0.700	-0.540
2020/01/31 08:22:36.9	313.000	0.120	-0.690	-0.520
2020/01/31 08:22:37.0	313.030	0.120	-0.680	-0.490
2020/01/31 08:22:37.1	313.050	0.130	-0.670	-0.460
2020/01/31 08:22:37.2	313.080	0.140	-0.660	-0.430
2020/01/31 08:22:37.3	313.100	0.150	-0.650	-0.400
2020/01/31 08:22:37.4	313.130	0.160	-0.640	-0.370
2020/01/31 08:22:37.5	313.150	0.170	-0.630	-0.330
2020/01/31 08:22:37.6	313.170	0.180	-0.620	-0.300
2020/01/31 08:22:37.7	313.190	0.190	-0.610	-0.260
2020/01/31 08:22:37.8	313.200	0.200	-0.610	-0.220
2020/01/31 08:22:37.9	313.220	0.210	-0.600	-0.180
2020/01/31 08:22:38.0	313.230	0.230	-0.590	-0.140
2020/01/31 08:22:38.1	313.240	0.240	-0.590	-0.100
2020/01/31 08:22:38.2	313.250	0.250	-0.580	-0.060
2020/01/31 08:22:38.3	313.260	0.270	-0.580	-0.020
2020/01/31 08:22:38.4	313.260	0.290	-0.570	0.030
2020/01/31 08:22:38.5	313.270	0.300	-0.570	0.070
2020/01/31 08:22:38.6	313.270	0.320	-0.560	0.110
2020/01/31 08:22:38.7	313.270	0.330	-0.560	0.150
2020/01/31 08:22:38.8	313.270	0.350	-0.560	0.190
2020/01/31 08:22:38.9	313.270	0.360	-0.550	0.230
2020/01/31 08:22:39.0	313.270	0.380	-0.550	0.270
2020/01/31 08:22:39.1	313.270	0.390	-0.540	0.310
2020/01/31 08:22:39.2	313.270	0.410	-0.540	0.350
2020/01/31 08:22:39.3	313.260	0.420	-0.530	0.390
2020/01/31 08:22:39.4	313.270	0.430	-0.530	0.420
2020/01/31 08:22:39.5	313.260	0.430	-0.520	0.460
2020/01/31 08:22:39.6	313.250	0.440	-0.510	0.490
2020/01/31 08:22:39.7	313.250	0.440	-0.510	0.510
2020/01/31 08:22:39.8	313.240	0.440	-0.500	0.540
2020/01/31 08:22:39.9	313.230	0.440	-0.490	0.560
2020/01/31 08:22:40.0	313.230	0.440	-0.480	0.570
2020/01/31 08:22:40.1	313.220	0.430	-0.480	0.580
2020/01/31 08:22:40.2	313.210	0.420	-0.470	0.590
2020/01/31 08:22:40.3	313.200	0.410	-0.450	0.590
2020/01/31 08:22:40.4	313.200	0.390	-0.440	0.590
2020/01/31 08:22:40.5	313.200	0.370	-0.430	0.590
2020/01/31 08:22:40.6	313.190	0.350	-0.420	0.580
2020/01/31 08:22:40.7	313.180	0.330	-0.400	0.560
2020/01/31 08:22:40.8	313.170	0.300	-0.380	0.550
2020/01/31 08:22:40.9	313.170	0.270	-0.360	0.530
2020/01/31 08:22:41.0	313.160	0.240	-0.340	0.500
2020/01/31 08:22:41.1	313.150	0.200	-0.320	0.480
2020/01/31 08:22:41.2	313.140	0.170	-0.300	0.450
2020/01/31 08:22:41.3	313.140	0.130	-0.270	0.420
2020/01/31 08:22:41.4	313.140	0.090	-0.250	0.400
2020/01/31 08:22:41.5	313.130	0.050	-0.220	0.370
2020/01/31 08:22:41.6	313.120	0.010	-0.190	0.330
2020/01/31 08:22:41.7	313.110	-0.040	-0.160	0.300
2020/01/31 08:22:41.8	313.100	-0.080	-0.120	0.270
2020/01/31 08:22:41.9	313.090	-0.120	-0.090	0.230
2020/01/31 08:22:42.0	313.080	-0.160	-0.050	0.200
2020/01/31 08:22:42.1	313.070	-0.210	-0.020	0.160
2020/01/31 08:22:42.2	313.060	-0.250	0.020	0.130
2020/01/31 08:22:42.3	313.050	-0.290	0.050	0.090
2020/01/31 08:22:42.4	313.050	-0.330	0.090	0.060
2020/01/31 08:22:42.5	313.040	-0.360	0.120	0.020
2020/01/31 08:22:42.6	313.030	-0.400	0.160	-0.020
2020/01/31 08:22:42.7	313.020	-0.430	0.190	-0.050
2020/01/31 08:22:42.8	313.020	-0.460	0.220	-0.090
2020/01/31 08:22:42.9	313.010	-0.490	0.250	-0.130
2020/01/31 08:22:43.0	313.000	-0.520	0.270	-0.160
2020/01/31 08:22:43.1	313.000	-0.540	0.300	-0.200
2020/01/31 08:22:43.2	312.990	-0.560	0.320	-0.230
2020/01/31 08:22:43.3	312.990	-0.580	0.340	-0.270
2020/01/31 08:22:43.4	312.970	-0.590	0.350	-0.300
2020/01/31 08:22:43.5	312.970	-0.600	0.370	-0.330
2020/01/31 08:22:43.6	312.960	-0.610	0.380	-0.360
2020/01/31 08:22:43.7	312.960	-0.610	0.390	-0.380
2020/01/31 08:22:43.8	312.950	-0.610	0.390	-0.410
2020/01/31 08:22:43.9	312.950	-0.610	0.400	-0.430
2020/01/31 08:22:44.0	312.950	-0.600	0.390	-0.440
2020/01/31 08:22:44.1	312.940	-0.590	0.390	-0.460
2020/01/31 08:22:44.2	312.940	-0.580	0.380	-0.470
2020/01/31 08:22:44.3	312.940	-0.560	0.370	-0.480
2020/01/31 08:22:44.4	312.940	-0.540	0.370	-0.480
2020/01/31 08:22:44.5	312.930	-0.520	0.350	-0.490
2020/01/31 08:22:44.6	312.920	-0.490	0.340	-0.480
2020/01/31 08:22:44.7	312.920	-0.460	0.320	-0.470
2020/01/31 08:22:44.8	312.910	-0.430	0.300	-0.460
2020/01/31 08:22:44.9	312.910	-0.400	0.270	-0.440
2020/01/31 08:22:45.0	312.900	-0.360	0.250	-0.420
2020/01/31 08:22:45.1	312.890	-0.320	0.220	-0.400
2020/01/31 08:22:45.2	312.880	-0.280	0.190	-0.380
2020/01/31 08:22:45.3	312.870	-0.240	0.160	-0.350
2020/01/31 08:22:45.4	312.870	-0.190	0.130	-0.320
2020/01/31 08:22:45.5	312.870	-0.150	0.090	-0.290
2020/01/31 08:22:45.6	312.860	-0.100	0.060	-0.250
2020/01/31 08:22:45.7	312.850	-0.060	0.020	-0.220
2020/01/31 08:22:45.8	312.840	-0.010	-0.020	-0.190
2020/01/31 08:22:45.9	312.840	0.040	-0.060	-0.160
2020/01/31 08:22:46.0	312.830	0.080	-0.100	-0.120
2020/01/31 08:22:46.1	312.830	0.130	-0.140	-0.090
2020/01/31 08:22:46.2	312.830	0.180	-0.180	-0.060
2020/01/31 08:22:46.3	312.820	0.220	-0.230	-0.030
2020/01/31 08:22:46.4	312.810	0.260	-0.270	0.000
2020/01/31 08:22:46.5	312.810	0.300	-0.310	0.030
2020/01/31 08:22:46.6	312.810	0.340	-0.350	0.060
2020/01/31 08:22:46.7	312.810	0.380	-0.390	0.080
2020/01/31 08:22:46.8	312.810	0.420	-0.430	0.100
2020/01/31 08:22:46.9	312.820	0.450	-0.470	0.120
2020/01/31 08:22:47.0	312.820	0.480	-0.510	0.140
2020/01/31 08:22:47.1	312.830	0.510	-0.540	0.160
2020/01/31 08:22:47.2	312.830	0.540	-0.570	0.180
2020/01/31 08:22:47.3	312.840	0.560	-0.600	0.190
2020/01/31 08:22:47.4	312.850	0.580	-0.630	0.200
2020/01/31 08:22:47.5	312.860	0.600	-0.650	0.210
2020/01/31 08:22:47.6	312.870	0.610	-0.670	0.220
2020/01/31 08:22:47.7	312.880	0.620	-0.680	0.230
2020/01/31 08:22:47.8	312.880	0.630	-0.690	0.240
2020/01/31 08:22:47.9	312.890	0.630	-0.700	0.240
2020/01/31 08:22:48.0	312.890	0.640	-0.700	0.250
2020/01/31 08:22:48.1	312.900	0.630	-0.700	0.260
2020/01/31 08:22:48.2	312.900	0.630	-0.690	0.260
2020/01/31 08:22:48.3	312.900	0.620	-0.680	0.270
2020/01/31 08:22:48.4	312.910	0.610	-0.660	0.280
2020/01/31 08:22:48.5	312.910	0.600	-0.640	0.280
2020/01/31 08:22:48.6	312.910	0.580	-0.610	0.290
2020/01/31 08:22:48.7	312.900	0.560	-0.590	0.300
2020/01/31 08:22:48.8	312.900	0.530	-0.560	0.300
2020/01/31 08:22:48.9	312.890	0.510	-0.530	0.310
2020/01/31 08:22:49.0	312.880	0.480	-0.500	0.310
2020/01/31 08:22:49.1	312.870	0.450	-0.470	0.310
2020/01/31 08:22:49.2	312.870	0.410	-0.430	0.310
2020/01/31 08:22:49.3	312.860	0.380	-0.400	0.320
2020/01/31 08:22:49.4	312.840	0.340	-0.370	0.320
2020/01/31 08:22:49.5	312.840	0.300	-0.330	0.310
2020/01/31 08:22:49.6	312.830	0.260	-0.300	0.310
2020/01/31 08:22:49.7	312.820	0.220	-0.270	0.300
2020/01/31 08:22:49.8	312.810	0.180	-0.240	0.290
2020/01/31 08:22:49.9	312.800	0.130	-0.210	0.280
2020/01/31 08:22:50.0	312.790	0.090	-0.190	0.270
2020/01/31 08:22:50.1	312.780	0.050	-0.160	0.260
2020/01/31 08:22:50.2	312.780	0.010	-0.140	0.240
2020/01/31 08:22:50.3	312.770	-0.030	-0.120	0.220
2020/01/31 08:22:50.4	312.750	-0.070	-0.110	0.210
2020/01/31 08:22:50.5	312.740	-0.110	-0.090	0.190
2020/01/31 08:22:50.6	312.720	-0.150	-0.080	0.170
2020/01/31 08:22:50.7	312.710	-0.190	-0.070	0.150
2020/01/31 08:22:50.8	312.700	-0.220	-0.060	0.130
2020/01/31 08:22:50.9	312.690	-0.250	-0.060	0.110
2020/01/31 08:22:51.0	312.680	-0.280	-0.060	0.090
2020/01/31 08:22:51.1	312.660	-0.300	-0.060	0.080
2020/01/31 08:22:51.2	312.650	-0.320	-0.070	0.060
2020/01/31 08:22:51.3	312.640	-0.340	-0.070	0.040
2020/01/31 08:22:51.4	312.620	-0.360	-0.090	0.020
2020/01/31 08:22:51.5	312.610	-0.370	-0.100	0.000
2020/01/31 08:22:51.6	312.600	-0.380	-0.110	-0.020
2020/01/31 08:22:51.7	312.590	-0.380	-0.130	-0.030
2020/01/31 08:22:51.8	312.580	-0.390	-0.150	-0.050
2020/01/31 08:22:51.9	312.570	-0.390	-0.170	-0.070
2020/01/31 08:22:52.0	312.560	-0.380	-0.200	-0.090
2020/01/31 08:22:52.1	312.560	-0.380	-0.230	-0.110
2020/01/31 08:22:52.2	312.550	-0.370	-0.260	-0.140
2020/01/31 08:22:52.3	312.550	-0.360	-0.290	-0.160
2020/01/31 08:22:52.4	312.550	-0.350	-0.310	-0.170
2020/01/31 08:22:52.5	312.550	-0.330	-0.350	-0.200
2020/01/31 08:22:52.6	312.560	-0.310	-0.380	-0.220
2020/01/31 08:22:52.7	312.560	-0.290	-0.410	-0.230
2020/01/31 08:22:52.8	312.560	-0.270	-0.440	-0.250
2020/01/31 08:22:52.9	312.570	-0.250	-0.480	-0.270
2020/01/31 08:22:53.0	312.580	-0.230	-0.510	-0.290
2020/01/31 08:22:53.1	312.580	-0.210	-0.540	-0.310
2020/01/31 08:22:53.2	312.590	-0.190	-0.570	-0.320
2020/01/31 08:22:53.3	312.600	-0.170	-0.590	-0.340
2020/01/31 08:22:53.4	312.620	-0.150	-0.620	-0.350
2020/01/31 08:22:53.5	312.640	-0.130	-0.640	-0.370
2020/01/31 08:22:53.6	312.650	-0.110	-0.660	-0.380
2020/01/31 08:22:53.7	312.670	-0.090	-0.670	-0.390
2020/01/31 08:22:53.8	312.680	-0.080	-0.680	-0.400
2020/01/31 08:22:53.9	312.700	-0.060	-0.690	-0.410
2020/01/31 08:22:54.0	312.720	-0.050	-0.690	-0.420
2020/01/31 08:22:54.1	312.740	-0.040	-0.690	-0.430
2020/01/31 08:22:54.2	312.760	-0.030	-0.680	-0.440
2020/01/31 08:22:54.3	312.780	-0.020	-0.670	-0.440
2020/01/31 08:22:54.4	312.800	-0.020	-0.660	-0.440
2020/01/31 08:22:54.5	312.820	-0.020	-0.640	-0.440
2020/01/31 08:22:54.6	312.850	-0.020	-0.620	-0.440
2020/01/31 08:22:54.7	312.870	-0.020	-0.600	-0.440
2020/01/31 08:22:54.8	312.890	-0.020	-0.570	-0.440
2020/01/31 08:22:54.9	312.910	-0.020	-0.540	-0.430
2020/01/31 08:22:55.0	312.930	-0.030	-0.510	-0.420
2020/01/31 08:22:55.1	312.940	-0.040	-0.470	-0.410
2020/01/31 08:22:55.2	312.960	-0.050	-0.440	-0.400
2020/01/31 08:22:55.3	312.980	-0.060	-0.400	-0.380
2020/01/31 08:22:55.4	312.990	-0.070	-0.360	-0.370
2020/01/31 08:22:55.5	313.000	-0.080	-0.310	-0.350
2020/01/31 08:22:55.6	313.010	-0.090	-0.270	-0.320
2020/01/31 08:22:55.7	313.020	-0.100	-0.230	-0.300
2020/01/31 08:22:55.8	313.030	-0.110	-0.180	-0.280
2020/01/31 08:22:55.9	313.040	-0.120	-0.140	-0.250
2020/01/31 08:22:56.0	313.040	-0.130	-0.100	-0.220
2020/01/31 08:22:56.1	313.050	-0.140	-0.060	-0.200
2020/01/31 08:22:56.2	313.050	-0.150	-0.020	-0.170
2020/01/31 08:22:56.3	313.060	-0.150	0.020	-0.140
2020/01/31 08:22:56.4	313.060	-0.160	0.050	-0.110
2020/01/31 08:22:56.5	313.070	-0.160	0.080	-0.080
2020/01/31 08:22:56.6	313.070	-0.160	0.110	-0.050
2020/01/31 08:22:56.7	313.080	-0.160	0.130	-0.030
2020/01/31 08:22:56.8	313.080	-0.160	0.150	-0.000
2020/01/31 08:22:56.9	313.080	-0.150	0.170	0.020
2020/01/31 08:22:57.0	313.080	-0.140	0.180	0.050
2020/01/31 08:22:57.1	313.080	-0.130	0.190	0.070
2020/01/31 08:22:57.2	313.090	-0.120	0.200	0.090
2020/01/31 08:22:57.3	313.090	-0.100	0.200	0.120
2020/01/31 08:22:57.4	313.100	-0.080	0.200	0.140
2020/01/31 08:22:57.5	313.100	-0.060	0.200	0.160
2020/01/31 08:22:57.6	313.100	-0.040	0.190	0.180
2020/01/31 08:22:57.7	313.100	-0.020	0.180	0.210
2020/01/31 08:22:57.8	313.100	0.010	0.170	0.230
2020/01/31 08:22:57.9	313.090	0.040	0.160	0.260
2020/01/31 08:22:58.0	313.090	0.060	0.150	0.280
2020/01/31 08:22:58.1	313.090	0.090	0.140	0.300
2020/01/31 08:22:58.2	313.080	0.120	0.120	0.330
2020/01/31 08:22:58.3	313.070	0.150	0.110	0.350
2020/01/31 08:22:58.4	313.070	0.180	0.090	0.380
2020/01/31 08:22:58.5	313.060	0.210	0.070	0.410
2020/01/31 08:22:58.6	313.050	0.240	0.060	0.430
2020/01/31 08:22:58.7	313.040	0.270	0.040	0.450
2020/01/31 08:22:58.8	313.020	0.290	0.020	0.480
2020/01/31 08:22:58.9	313.010	0.320	0.000	0.500
2020/01/31 08:22:59.0	312.990	0.340	-0.010	0.520
2020/01/31 08:22:59.1	312.970	0.370	-0.030	0.540
2020/01/31 08:22:59.2	312.960	0.390	-0.050	0.560
2020/01/31 08:22:59.3	312.940	0.410	-0.060	0.570
2020/01/31 08:22:59.4	312.910	0.420	-0.080	0.590
2020/01/31 08:22:59.5	312.890	0.440	-0.090	0.600
2020/01/31 08:22:59.6	312.870	0.450	-0.110	0.610
2020/01/31 08:22:59.7	312.850	0.460	-0.120	0.620
2020/01/31 08:22:59.8	312.830	0.470	-0.130	0.630
2020/01/31 08:22:59.9	312.810	0.470	-0.140	0.630
2020/01/31 08:23:00.0	312.790	0.470	-0.150	0.640
2020/01/31 08:23:00.1	312.770	0.470	-0.150	0.640
2020/01/31 08:23:00.2	312.740	0.470	-0.150	0.640
2020/01/31 08:23:00.3	312.720	0.470	-0.150	0.650
2020/01/31 08:23:00.4	312.690	0.460	-0.160	0.650
2020/01/31 08:23:00.5	312.670	0.460	-0.150	0.650
2020/01/31 08:23:00.6	312.650	0.440	-0.140	0.650
2020/01/31 08:23:00.7	312.620	0.430	-0.140	0.640
2020/01/31 08:23:00.8	312.600	0.420	-0.120	0.640
2020/01/31 08:23:00.9	312.570	0.400	-0.110	0.640
2020/01/31 08:23:01.0	312.550	0.390	-0.100	0.630
2020/01/31 08:23:01.1	312.530	0.370	-0.090	0.630
2020/01/31 08:23:01.2	312.500	0.350	-0.070	0.620
2020/01/31 08:23:01.3	312.480	0.330	-0.060	0.610
2020/01/31 08:23:01.4	312.440	0.310	-0.050	0.590
2020/01/31 08:23:01.5	312.420	0.280	-0.040	0.580
2020/01/31 08:23:01.6	312.410	0.260	-0.030	0.560
2020/01/31 08:23:01.7	312.390	0.240	-0.020	0.540
2020/01/31 08:23:01.8	312.370	0.210	-0.020	0.520
2020/01/31 08:23:01.9	312.360	0.190	-0.020	0.490
2020/01/31 08:23:02.0	312.350	0.160	-0.020	0.470
2020/01/31 08:23:02.1	312.340	0.140	-0.030	0.440
2020/01/31 08:23:02.2	312.330	0.120	-0.040	0.410
2020/01/31 08:23:02.3	312.320	0.090	-0.050	0.380
2020/01/31 08:23:02.4	312.310	0.070	-0.070	0.350
2020/01/31 08:23:02.5	312.310	0.050	-0.090	0.320
2020/01/31 08:23:02.6	312.310	0.030	-0.110	0.280
2020/01/31 08:23:02.7	312.310	0.010	-0.140	0.250
2020/01/31 08:23:02.8	312.300	-0.010	-0.170	0.220
2020/01/31 08:23:02.9	312.300	-0.030	-0.200	0.180
2020/01/31 08:23:03.0	312.300	-0.050	-0.240	0.150
2020/01/31 08:23:03.1	312.310	-0.060	-0.280	0.110
2020/01/31 08:23:03.2	312.310	-0.080	-0.320	0.080
2020/01/31 08:23:03.3	312.310	-0.090	-0.360	0.040
2020/01/31 08:23:03.4	312.300	-0.110	-0.400	0.010
2020/01/31 08:23:03.5	312.310	-0.120	-0.440	-0.020
2020/01/31 08:23:03.6	312.310	-0.130	-0.480	-0.060
2020/01/31 08:23:03.7	312.320	-0.140	-0.530	-0.100
2020/01/31 08:23:03.8	312.330	-0.150	-0.570	-0.130
2020/01/31 08:23:03.9	312.330	-0.160	-0.610	-0.170
2020/01/31 08:23:04.0	312.340	-0.160	-0.650	-0.200
2020/01/31 08:23:04.1	312.350	-0.170	-0.700	-0.240
2020/01/31 08:23:04.2	312.370	-0.180	-0.740	-0.270
2020/01/31 08:23:04.3	312.380	-0.180	-0.770	-0.310
2020/01/31 08:23:04.4	312.380	-0.190	-0.810	-0.350
2020/01/31 08:23:04.5	312.390	-0.190	-0.850	-0.380
2020/01/31 08:23:04.6	312.400	-0.200	-0.880	-0.410
2020/01/31 08:23:04.7	312.420	-0.200	-0.900	-0.440
2020/01/31 08:23:04.8	312.430	-0.210	-0.930	-0.470
2020/01/31 08:23:04.9	312.450	-0.210	-0.950	-0.500
2020/01/31 08:23:05.0	312.460	-0.220	-0.960	-0.520
2020/01/31 08:23:05.1	312.470	-0.220	-0.980	-0.540
2020/01/31 08:23:05.2	312.490	-0.230	-0.980	-0.560
2020/01/31 08:23:05.3	312.500	-0.230	-0.990	-0.570
2020/01/31 08:23:05.4	312.520	-0.240	-0.980	-0.590
2020/01/31 08:23:05.5	312.530	-0.250	-0.970	-0.600
2020/01/31 08:23:05.6	312.540	-0.260	-0.960	-0.600
2020/01/31 08:23:05.7	312.550	-0.260	-0.950	-0.610
2020/01/31 08:23:05.8	312.560	-0.270	-0.930	-0.610
2020/01/31 08:23:05.9	312.570	-0.280	-0.900	-0.610
2020/01/31 08:23:06.0	312.580	-0.290	-0.870	-0.610
2020/01/31 08:23:06.1	312.590	-0.300	-0.840	-0.600
2020/01/31 08:23:06.2	312.600	-0.310	-0.810	-0.600
2020/01/31 08:23:06.3	312.610	-0.320	-0.770	-0.600
2020/01/31 08:23:06.4	312.630	-0.330	-0.730	-0.590
2020/01/31 08:23:06.5	312.640	-0.340	-0.690	-0.580
2020/01/31 08:23:06.6	312.650	-0.350	-0.650	-0.580
2020/01/31 08:23:06.7	312.670	-0.360	-0.610	-0.570
2020/01/31 08:23:06.8	312.680	-0.370	-0.560	-0.570
2020/01/31 08:23:06.9	312.700	-0.380	-0.520	-0.560
2020/01/31 08:23:07.0	312.720	-0.390	-0.480	-0.560
2020/01/31 08:23:07.1	312.730	-0.390	-0.430	-0.550
2020/01/31 08:23:07.2	312.750	-0.400	-0.390	-0.550
2020/01/31 08:23:07.3	312.770	-0.400	-0.350	-0.540
2020/01/31 08:23:07.4	312.800	-0.400	-0.310	-0.530
2020/01/31 08:23:07.5	312.820	-0.400	-0.260	-0.520
2020/01/31 08:23:07.6	312.840	-0.400	-0.220	-0.520
2020/01/31 08:23:07.7	312.860	-0.400	-0.180	-0.510
2020/01/31 08:23:07.8	312.870	-0.400	-0.140	-0.500
2020/01/31 08:23:07.9	312.890	-0.390	-0.100	-0.490
2020/01/31 08:23:08.0	312.910	-0.390	-0.060	-0.480
2020/01/31 08:23:08.1	312.920	-0.380	-0.030	-0.470
2020/01/31 08:23:08.2	312.930	-0.370	0.010	-0.450
2020/01/31 08:23:08.3	312.950	-0.360	0.040	-0.440
2020/01/31 08:23:08.4	312.950	-0.350	0.080	-0.420
2020/01/31 08:23:08.5	312.960	-0.330	0.110	-0.400
2020/01/31 08:23:08.6	312.970	-0.320	0.140	-0.390
2020/01/31 08:23:08.7	312.980	-0.300	0.170	-0.370
2020/01/31 08:23:08.8	312.980	-0.280	0.190	-0.340
2020/01/31 08:23:08.9	312.980	-0.260	0.220	-0.320
2020/01/31 08:23:09.0	312.990	-0.240	0.240	-0.300
2020/01/31 08:23:09.1	312.990	-0.220	0.260	-0.270
2020/01/31 08:23:09.2	312.990	-0.200	0.280	-0.240
2020/01/31 08:23:09.3	312.980	-0.170	0.300	-0.210
2020/01/31 08:23:09.4	312.990	-0.150	0.320	-0.180
2020/01/31 08:23:09.5	312.980	-0.120	0.340	-0.150
2020/01/31 08:23:09.6	312.980	-0.090	0.350	-0.120
2020/01/31 08:23:09.7	312.970	-0.060	0.360	-0.080
2020/01/31 08:23:09.8	312.960	-0.030	0.370	-0.050
2020/01/31 08:23:09.9	312.950	-0.000	0.380	-0.010
2020/01/31 08:23:10.0	312.940	0.030	0.380	0.020
2020/01/31 08:23:10.1	312.930	0.060	0.390	0.060
2020/01/31 08:23:10.2	312.910	0.100	0.390	0.100
2020/01/31 08:23:10.3	312.900	0.130	0.390	0.140
2020/01/31 08:23:10.4	312.880	0.160	0.390	0.180
2020/01/31 08:23:10.5	312.870	0.190	0.380	0.220
2020/01/31 08:23:10.6	312.850	0.230	0.380	0.260
2020/01/31 08:23:10.7	312.840	0.260	0.370	0.300
2020/01/31 08:23:10.8	312.820	0.290	0.360	0.340
2020/01/31 08:23:10.9	312.800	0.330	0.350	0.390
2020/01/31 08:23:11.0	312.780	0.360	0.340	0.430
2020/01/31 08:23:11.1	312.760	0.390	0.320	0.470
2020/01/31 08:23:11.2	312.740	0.420	0.300	0.510
2020/01/31 08:23:11.3	312.720	0.450	0.280	0.560
2020/01/31 08:23:11.4	312.700	0.480	0.260	0.600
2020/01/31 08:23:11.5	312.680	0.510	0.240	0.630
2020/01/31 08:23:11.6	312.660	0.540	0.210	0.670
2020/01/31 08:23:11.7	312.640	0.560	0.180	0.710
2020/01/31 08:23:11.8	312.620	0.590	0.150	0.750
2020/01/31 08:23:11.9	312.600	0.610	0.120	0.780
2020/01/31 08:23:12.0	312.570	0.630	0.090	0.810
2020/01/31 08:23:12.1	312.550	0.650	0.060	0.840
2020/01/31 08:23:12.2	312.530	0.670	0.020	0.860
2020/01/31 08:23:12.3	312.510	0.680	-0.020	0.890
2020/01/31 08:23:12.4	312.490	0.700	-0.050	0.900
2020/01/31 08:23:12.5	312.470	0.710	-0.090	0.920
2020/01/31 08:23:12.6	312.450	0.720	-0.130	0.940
2020/01/31 08:23:12.7	312.440	0.720	-0.170	0.950
2020/01/31 08:23:12.8	312.420	0.730	-0.200	0.960
2020/01/31 08:23:12.9	312.400	0.730	-0.240	0.960
2020/01/31 08:23:13.0	312.390	0.730	-0.280	0.960
2020/01/31 08:23:13.1	312.370	0.730	-0.310	0.960
2020/01/31 08:23:13.2	312.360	0.720	-0.340	0.960
2020/01/31 08:23:13.3	312.340	0.710	-0.380	0.960
2020/01/31 08:23:13.4	312.320	0.700	-0.410	0.950
2020/01/31 08:23:13.5	312.310	0.680	-0.440	0.940
2020/01/31 08:23:13.6	312.300	0.670	-0.460	0.930
2020/01/31 08:23:13.7	312.280	0.650	-0.490	0.920
2020/01/31 08:23:13.8	312.270	0.620	-0.510	0.900
2020/01/31 08:23:13.9	312.260	0.600	-0.530	0.880
2020/01/31 08:23:14.0	312.250	0.570	-0.550	0.860
2020/01/31 08:23:14.1	312.240	0.540	-0.570	0.840
2020/01/31 08:23:14.2	312.230	0.500	-0.580	0.820
2020/01/31 08:23:14.3	312.220	0.470	-0.600	0.800
2020/01/31 08:23:14.4	312.220	0.430	-0.610	0.770
2020/01/31 08:23:14.5	312.210	0.390	-0.620	0.750
2020/01/31 08:23:14.6	312.210	0.350	-0.620	0.720
2020/01/31 08:23:14.7	312.200	0.310	-0.630	0.690
2020/01/31 08:23:14.8	312.190	0.260	-0.640	0.660
2020/01/31 08:23:14.9	312.190	0.220	-0.640	0.630
2020/01/31 08:23:15.0	312.180	0.170	-0.640	0.590
2020/01/31 08:23:15.1	312.170	0.130	-0.640	0.560
2020/01/31 08:23:15.2	312.170	0.090	-0.640	0.530
2020/01/31 08:23:15.3	312.160	0.040	-0.640	0.490
2020/01/31 08:23:15.4	312.170	-0.000	-0.640	0.460
2020/01/31 08:23:15.5	312.160	-0.040	-0.640	0.420
2020/01/31 08:23:15.6	312.160	-0.090	-0.630	0.390
2020/01/31 08:23:15.7	312.150	-0.130	-0.630	0.350
2020/01/31 08:23:15.8	312.150	-0.170	-0.630	0.310
2020/01/31 08:23:15.9	312.140	-0.200	-0.630	0.270
2020/01/31 08:23:16.0	312.140	-0.240	-0.630	0.230
2020/01/31 08:23:16.1	312.140	-0.270	-0.630	0.190
2020/01/31 08:23:16.2	312.140	-0.300	-0.620	0.150
2020/01/31 08:23:16.3	312.140	-0.330	-0.620	0.100
2020/01/31 08:23:16.4	312.150	-0.360	-0.630	0.060
2020/01/31 08:23:16.5	312.150	-0.390	-0.630	0.010
2020/01/31 08:23:16.6	312.150	-0.410	-0.630	-0.030
2020/01/31 08:23:16.7	312.150	-0.430	-0.630	-0.080
2020/01/31 08:23:16.8	312.160	-0.450	-0.630	-0.130
2020/01/31 08:23:16.9	312.160	-0.470	-0.620	-0.170
2020/01/31 08:23:17.0	312.170	-0.480	-0.620	-0.220
2020/01/31 08:23:17.1	312.180	-0.500	-0.620	-0.270
2020/01/31 08:23:17.2	312.190	-0.510	-0.620	-0.320
2020/01/31 08:23:17.3	312.190	-0.520	-0.620	-0.360
2020/01/31 08:23:17.4	312.200	-0.520	-0.610	-0.410
2020/01/31 08:23:17.5	312.210	-0.530	-0.610	-0.460
2020/01/31 08:23:17.6	312.220	-0.530	-0.600	-0.500
2020/01/31 08:23:17.7	312.230	-0.540	-0.600	-0.550
2020/01/31 08:23:17.8	312.250	-0.540	-0.590	-0.600
2020/01/31 08:23:17.9	312.260	-0.540	-0.580	-0.640
2020/01/31 08:23:18.0	312.280	-0.540	-0.570	-0.680
2020/01/31 08:23:18.1	312.300	-0.540	-0.560	-0.730
2020/01/31 08:23:18.2	312.310	-0.530	-0.550	-0.770
2020/01/31 08:23:18.3	312.330	-0.530	-0.530	-0.810
2020/01/31 08:23:18.4	312.350	-0.530	-0.510	-0.840
2020/01/31 08:23:18.5	312.370	-0.520	-0.490	-0.870
2020/01/31 08:23:18.6	312.390	-0.520	-0.470	-0.900
2020/01/31 08:23:18.7	312.400	-0.520	-0.450	-0.930
2020/01/31 08:23:18.8	312.420	-0.510	-0.420	-0.950
2020/01/31 08:23:18.9	312.430	-0.510	-0.400	-0.970
2020/01/31 08:23:19.0	312.450	-0.510	-0.370	-0.990
2020/01/31 08:23:19.1	312.460	-0.500	-0.340	-1.000
2020/01/31 08:23:19.2	312.470	-0.500	-0.300	-1.010
2020/01/31 08:23:19.3	312.480	-0.500	-0.270	-1.010
2020/01/31 08:23:19.4	312.490	-0.490	-0.230	-1.010
2020/01/31 08:23:19.5	312.500	-0.490	-0.190	-1.010
2020/01/31 08:23:19.6	312.500	-0.480	-0.150	-1.000
2020/01/31 08:23:19.7	312.510	-0.480	-0.110	-0.980
2020/01/31 08:23:19.8	312.520	-0.480	-0.070	-0.960
2020/01/31 08:23:19.9	312.530	-0.470	-0.040	-0.940
2020/01/31 08:23:20.0	312.530	-0.470	0.000	-0.910
2020/01/31 08:23:20.1	312.540	-0.460	0.040	-0.880
2020/01/31 08:23:20.2	312.540	-0.450	0.080	-0.850
2020/01/31 08:23:20.3	312.550	-0.450	0.110	-0.810
2020/01/31 08:23:20.4	312.550	-0.440	0.150	-0.770
2020/01/31 08:23:20.5	312.550	-0.430	0.180	-0.720
2020/01/31 08:23:20.6	312.560	-0.420	0.210	-0.680
2020/01/31 08:23:20.7	312.560	-0.400	0.230	-0.630
2020/01/31 08:23:20.8	312.570	-0.390	0.260	-0.580
2020/01/31 08:23:20.9	312.570	-0.370	0.270	-0.530
2020/01/31 08:23:21.0	312.580	-0.350	0.290	-0.470
2020/01/31 08:23:21.1	312.580	-0.330	0.300	-0.420
2020/01/31 08:23:21.2	312.590	-0.310	0.310	-0.360
2020/01/31 08:23:21.3	312.590	-0.280	0.310	-0.300
2020/01/31 08:23:21.4	312.600	-0.260	0.300	-0.240
2020/01/31 08:23:21.5	312.610	-0.230	0.300	-0.180
2020/01/31 08:23:21.6	312.610	-0.200	0.290	-0.120
2020/01/31 08:23:21.7	312.610	-0.160	0.280	-0.060
2020/01/31 08:23:21.8	312.610	-0.130	0.260	-0.000
2020/01/31 08:23:21.9	312.620	-0.090	0.250	0.060
2020/01/31 08:23:22.0	312.620	-0.050	0.220	0.120
2020/01/31 08:23:22.1	312.620	-0.010	0.200	0.180
2020/01/31 08:23:22.2	312.620	0.030	0.180	0.240
2020/01/31 08:23:22.3	312.630	0.070	0.150	0.300
2020/01/31 08:23:22.4	312.640	0.120	0.130	0.350
2020/01/31 08:23:22.5	312.640	0.160	0.100	0.410
2020/01/31 08:23:22.6	312.640	0.200	0.070	0.470
2020/01/31 08:23:22.7	312.640	0.250	0.040	0.520
2020/01/31 08:23:22.8	312.640	0.290	0.020	0.580
2020/01/31 08:23:22.9	312.640	0.340	-0.010	0.630
2020/01/31 08:23:23.0	312.640	0.380	-0.040	0.680
2020/01/31 08:23:23.1	312.640	0.420	-0.060	0.730
2020/01/31 08:23:23.2	312.640	0.470	-0.090	0.780
2020/01/31 08:23:23.3	312.630	0.500	-0.110	0.830
2020/01/31 08:23:23.4	312.620	0.540	-0.120	0.880
2020/01/31 08:23:23.5	312.620	0.580	-0.140	0.930
2020/01/31 08:23:23.6	312.610	0.610	-0.160	0.970
2020/01/31 08:23:23.7	312.600	0.640	-0.170	1.010
2020/01/31 08:23:23.8	312.590	0.670	-0.180	1.050
2020/01/31 08:23:23.9	312.580	0.690	-0.190	1.090
2020/01/31 08:23:24.0	312.570	0.710	-0.200	1.120
2020/01/31 08:23:24.1	312.560	0.730	-0.210	1.150
2020/01/31 08:23:24.2	312.550	0.740	-0.210	1.180
2020/01/31 08:23:24.3	312.540	0.760	-0.220	1.200
2020/01/31 08:23:24.4	312.520	0.760	-0.220	1.220
2020/01/31 08:23:24.5	312.500	0.770	-0.220	1.240
2020/01/31 08:23:24.6	312.490	0.770	-0.220	1.250
2020/01/31 08:23:24.7	312.470	0.770	-0.220	1.260
2020/01/31 08:23:24.8	312.450	0.760	-0.220	1.270
2020/01/31 08:23:24.9	312.430	0.750	-0.210	1.270
2020/01/31 08:23:25.0	312.410	0.740	-0.210	1.270
2020/01/31 08:23:25.1	312.400	0.720	-0.210	1.260
2020/01/31 08:23:25.2	312.380	0.710	-0.200	1.250
2020/01/31 08:23:25.3	312.360	0.690	-0.200	1.240
2020/01/31 08:23:25.4	312.340	0.670	-0.190	1.210
2020/01/31 08:23:25.5	312.320	0.640	-0.190	1.190
2020/01/31 08:23:25.6	312.300	0.620	-0.180	1.170
2020/01/31 08:23:25.7	312.280	0.590	-0.180	1.140
2020/01/31 08:23:25.8	312.270	0.560	-0.180	1.110
2020/01/31 08:23:25.9	312.250	0.540	-0.180	1.070
2020/01/31 08:23:26.0	312.230	0.510	-0.180	1.030
2020/01/31 08:23:26.1	312.220	0.480	-0.180	0.990
2020/01/31 08:23:26.2	312.210	0.450	-0.190	0.940
2020/01/31 08:23:26.3	312.190	0.420	-0.190	0.890
2020/01/31 08:23:26.4	312.180	0.390	-0.200	0.850
2020/01/31 08:23:26.5	312.160	0.360	-0.210	0.790
2020/01/31 08:23:26.6	312.150	0.330	-0.220	0.740
2020/01/31 08:23:26.7	312.140	0.300	-0.230	0.690
2020/01/31 08:23:26.8	312.130	0.270	-0.250	0.630
2020/01/31 08:23:26.9	312.120	0.250	-0.260	0.570
2020/01/31 08:23:27.0	312.110	0.220	-0.280	0.520
2020/01/31 08:23:27.1	312.100	0.190	-0.290	0.460
2020/01/31 08:23:27.2	312.090	0.170	-0.310	0.400
2020/01/31 08:23:27.3	312.080	0.150	-0.330	0.350
2020/01/31 08:23:27.4	312.070	0.120	-0.350	0.290
2020/01/31 08:23:27.5	312.060	0.100	-0.370	0.230
2020/01/31 08:23:27.6	312.050	0.080	-0.390	0.180
2020/01/31 08:23:27.7	312.050	0.060	-0.420	0.120
2020/01/31 08:23:27.8	312.040	0.050	-0.440	0.060
2020/01/31 08:23:27.9	312.030	0.030	-0.460	0.010
2020/01/31 08:23:28.0	312.030	0.010	-0.490	-0.050
2020/01/31 08:23:28.1	312.030	-0.010	-0.510	-0.100
2020/01/31 08:23:28.2	312.020	-0.020	-0.540	-0.160
2020/01/31 08:23:28.3	312.020	-0.040	-0.560	-0.220
2020/01/31 08:23:28.4	312.020	-0.050	-0.580	-0.270
2020/01/31 08:23:28.5	312.020	-0.070	-0.610	-0.330
2020/01/31 08:23:28.6	312.020	-0.080	-0.630	-0.380
2020/01/31 08:23:28.7	312.020	-0.100	-0.640	-0.440
2020/01/31 08:23:28.8	312.020	-0.110	-0.660	-0.490
2020/01/31 08:23:28.9	312.020	-0.130	-0.670	-0.540
2020/01/31 08:23:29.0	312.020	-0.140	-0.680	-0.590
2020/01/31 08:23:29.1	312.020	-0.160	-0.690	-0.640
2020/01/31 08:23:29.2	312.030	-0.180	-0.700	-0.680
2020/01/31 08:23:29.3	312.030	-0.190	-0.700	-0.720
2020/01/31 08:23:29.4	312.030	-0.210	-0.700	-0.760
2020/01/31 08:23:29.5	312.030	-0.230	-0.690	-0.800
2020/01/31 08:23:29.6	312.030	-0.250	-0.680	-0.830
2020/01/31 08:23:29.7	312.040	-0.270	-0.670	-0.860
2020/01/31 08:23:29.8	312.040	-0.290	-0.660	-0.880
2020/01/31 08:23:29.9	312.040	-0.320	-0.640	-0.900
2020/01/31 08:23:30.0	312.040	-0.340	-0.630	-0.920
2020/01/31 08:23:30.1	312.040	-0.360	-0.610	-0.940
2020/01/31 08:23:30.2	312.040	-0.390	-0.580	-0.950
2020/01/31 08:23:30.3	312.050	-0.410	-0.560	-0.960
2020/01/31 08:23:30.4	312.050	-0.430	-0.540	-0.960
2020/01/31 08:23:30.5	312.050	-0.460	-0.510	-0.960
2020/01/31 08:23:30.6	312.060	-0.480	-0.490	-0.970
2020/01/31 08:23:30.7	312.070	-0.510	-0.470	-0.960
2020/01/31 08:23:30.8	312.070	-0.530	-0.450	-0.960
2020/01/31 08:23:30.9	312.080	-0.550	-0.420	-0.960
2020/01/31 08:23:31.0	312.090	-0.570	-0.400	-0.950
2020/01/31 08:23:31.1	312.100	-0.590	-0.380	-0.940
2020/01/31 08:23:31.2	312.110	-0.610	-0.370	-0.930
2020/01/31 08:23:31.3	312.130	-0.620	-0.350	-0.920
2020/01/31 08:23:31.4	312.130	-0.640	-0.330	-0.910
2020/01/31 08:23:31.5	312.140	-0.650	-0.320	-0.900
2020/01/31 08:23:31.6	312.160	-0.660	-0.310	-0.880
2020/01/31 08:23:31.7	312.170	-0.670	-0.290	-0.870
2020/01/31 08:23:31.8	312.190	-0.670	-0.280	-0.850
2020/01/31 08:23:31.9	312.200	-0.670	-0.270	-0.840
2020/01/31 08:23:32.0	312.220	-0.670	-0.260	-0.820
2020/01/31 08:23:32.1	312.240	-0.670	-0.250	-0.800
2020/01/31 08:23:32.2	312.260	-0.660	-0.250	-0.780
2020/01/31 08:23:32.3	312.280	-0.650	-0.240	-0.760
2020/01/31 08:23:32.4	312.290	-0.640	-0.230	-0.740
2020/01/31 08:23:32.5	312.310	-0.630	-0.220	-0.720
2020/01/31 08:23:32.6	312.340	-0.610	-0.220	-0.690
2020/01/31 08:23:32.7	312.360	-0.590	-0.210	-0.660
2020/01/31 08:23:32.8	312.380	-0.570	-0.200	-0.640
2020/01/31 08:23:32.9	312.400	-0.540	-0.190	-0.600
2020/01/31 08:23:33.0	312.420	-0.510	-0.180	-0.570
2020/01/31 08:23:33.1	312.440	-0.490	-0.180	-0.530
2020/01/31 08:23:33.2	312.460	-0.460	-0.160	-0.490
2020/01/31 08:23:33.3	312.470	-0.420	-0.150	-0.450
2020/01/31 08:23:33.4	312.490	-0.390	-0.140	-0.400
2020/01/31 08:23:33.5	312.510	-0.360	-0.130	-0.360
2020/01/31 08:23:33.6	312.520	-0.320	-0.110	-0.300
2020/01/31 08:23:33.7	312.530	-0.290	-0.100	-0.250
2020/01/31 08:23:33.8	312.540	-0.250	-0.080	-0.190
2020/01/31 08:23:33.9	312.540	-0.220	-0.060	-0.140
2020/01/31 08:23:34.0	312.550	-0.180	-0.040	-0.080
2020/01/31 08:23:34.1	312.550	-0.150	-0.020	-0.020
2020/01/31 08:23:34.2	312.550	-0.110	-0.000	0.040
2020/01/31 08:23:34.3	312.560	-0.080	0.020	0.100
2020/01/31 08:23:34.4	312.550	-0.040	0.040	0.170
2020/01/31 08:23:34.5	312.550	-0.010	0.060	0.230
2020/01/31 08:23:34.6	312.550	0.020	0.080	0.290
2020/01/31 08:23:34.7	312.540	0.050	0.100	0.350
2020/01/31 08:23:34.8	312.540	0.080	0.120	0.400
2020/01/31 08:23:34.9	312.530	0.110	0.140	0.460
2020/01/31 08:23:35.0	312.530	0.140	0.150	0.510
2020/01/31 08:23:35.1	312.520	0.170	0.170	0.560
2020/01/31 08:23:35.2	312.510	0.190	0.180	0.610
2020/01/31 08:23:35.3	312.500	0.210	0.200	0.660
2020/01/31 08:23:35.4	312.490	0.230	0.210	0.700
2020/01/31 08:23:35.5	312.480	0.250	0.220	0.750
2020/01/31 08:23:35.6	312.460	0.270	0.230	0.790
2020/01/31 08:23:35.7	312.440	0.290	0.230	0.820
2020/01/31 08:23:35.8	312.430	0.300	0.240	0.860
2020/01/31 08:23:35.9	312.410	0.310	0.250	0.890
2020/01/31 08:23:36.0	312.390	0.330	0.250	0.920
2020/01/31 08:23:36.1	312.360	0.340	0.250	0.940
2020/01/31 08:23:36.2	312.340	0.350	0.250	0.970
2020/01/31 08:23:36.3	312.320	0.350	0.250	0.990
2020/01/31 08:23:36.4	312.300	0.360	0.240	1.000
2020/01/31 08:23:36.5	312.280	0.370	0.230	1.020
2020/01/31 08:23:36.6	312.260	0.370	0.220	1.030
2020/01/31 08:23:36.7	312.230	0.380	0.210	1.030
2020/01/31 08:23:36.8	312.210	0.380	0.190	1.040
2020/01/31 08:23:36.9	312.190	0.390	0.170	1.040
2020/01/31 08:23:37.0	312.170	0.390	0.150	1.030
2020/01/31 08:23:37.1	312.150	0.400	0.130	1.030
2020/01/31 08:23:37.2	312.130	0.400	0.100	1.030
2020/01/31 08:23:37.3	312.110	0.400	0.080	1.020
2020/01/31 08:23:37.4	312.090	0.410	0.050	1.000
2020/01/31 08:23:37.5	312.070	0.410	0.020	1.000
2020/01/31 08:23:37.6	312.050	0.410	-0.010	0.980
2020/01/31 08:23:37.7	312.030	0.420	-0.050	0.970
2020/01/31 08:23:37.8	312.010	0.420	-0.080	0.960
2020/01/31 08:23:37.9	311.990	0.430	-0.110	0.950
2020/01/31 08:23:38.0	311.970	0.430	-0.140	0.940
2020/01/31 08:23:38.1	311.940	0.430	-0.180	0.920
2020/01/31 08:23:38.2	311.920	0.440	-0.210	0.910
2020/01/31 08:23:38.3	311.900	0.440	-0.240	0.890
2020/01/31 08:23:38.4	311.860	0.440	-0.270	0.870
2020/01/31 08:23:38.5	311.840	0.450	-0.300	0.850
2020/01/31 08:23:38.6	311.820	0.450	-0.330	0.830
2020/01/31 08:23:38.7	311.790	0.450	-0.360	0.810
2020/01/31 08:23:38.8	311.770	0.450	-0.390	0.790
2020/01/31 08:23:38.9	311.750	0.450	-0.420	0.770
2020/01/31 08:23:39.0	311.730	0.450	-0.450	0.740
2020/01/31 08:23:39.1	311.710	0.450	-0.470	0.710
2020/01/31 08:23:39.2	311.690	0.450	-0.490	0.680
2020/01/31 08:23:39.3	311.670	0.450	-0.520	0.650
2020/01/31 08:23:39.4	311.660	0.450	-0.540	0.620
2020/01/31 08:23:39.5	311.650	0.440	-0.560	0.580
2020/01/31 08:23:39.6	311.640	0.440	-0.580	0.550
2020/01/31 08:23:39.7	311.630	0.430	-0.600	0.500
2020/01/31 08:23:39.8	311.620	0.420	-0.620	0.460
2020/01/31 08:23:39.9	311.620	0.410	-0.630	0.410
2020/01/31 08:23:40.0	311.620	0.400	-0.650	0.370
2020/01/31 08:23:40.1	311.630	0.390	-0.660	0.320
2020/01/31 08:23:40.2	311.630	0.370	-0.670	0.270
2020/01/31 08:23:40.3	311.640	0.360	-0.680	0.210
2020/01/31 08:23:40.4	311.640	0.340	-0.690	0.160
2020/01/31 08:23:40.5	311.660	0.320	-0.700	0.110
2020/01/31 08:23:40.6	311.670	0.290	-0.700	0.050
2020/01/31 08:23:40.7	311.690	0.270	-0.700	-0.000
2020/01/31 08:23:40.8	311.710	0.240	-0.700	-0.060
2020/01/31 08:23:40.9	311.730	0.220	-0.700	-0.110
2020/01/31 08:23:41.0	311.750	0.190	-0.690	-0.170
2020/01/31 08:23:41.1	311.770	0.150	-0.690	-0.220
2020/01/31 08:23:41.2	311.790	0.120	-0.680	-0.280
2020/01/31 08:23:41.3	311.820	0.090	-0.660	-0.330
2020/01/31 08:23:41.4	311.830	0.050	-0.650	-0.370
2020/01/31 08:23:41.5	311.860	0.010	-0.630	-0.420
2020/01/31 08:23:41.6	311.880	-0.020	-0.620	-0.470
2020/01/31 08:23:41.7	311.900	-0.060	-0.600	-0.510
2020/01/31 08:23:41.8	311.930	-0.100	-0.570	-0.560
2020/01/31 08:23:41.9	311.950	-0.140	-0.550	-0.590
2020/01/31 08:23:42.0	311.970	-0.180	-0.530	-0.630
2020/01/31 08:23:42.1	311.990	-0.210	-0.500	-0.670
2020/01/31 08:23:42.2	312.010	-0.250	-0.470	-0.700
2020/01/31 08:23:42.3	312.030	-0.290	-0.450	-0.730
2020/01/31 08:23:42.4	312.050	-0.320	-0.420	-0.750
2020/01/31 08:23:42.5	312.070	-0.350	-0.400	-0.780
2020/01/31 08:23:42.6	312.080	-0.390	-0.370	-0.800
2020/01/31 08:23:42.7	312.100	-0.420	-0.340	-0.810
2020/01/31 08:23:42.8	312.110	-0.440	-0.320	-0.830
2020/01/31 08:23:42.9	312.120	-0.470	-0.290	-0.840
2020/01/31 08:23:43.0	312.130	-0.490	-0.270	-0.850
2020/01/31 08:23:43.1	312.140	-0.510	-0.240	-0.850
2020/01/31 08:23:43.2	312.150	-0.530	-0.220	-0.850
2020/01/31 08:23:43.3	312.160	-0.540	-0.200	-0.850
2020/01/31 08:23:43.4	312.180	-0.550	-0.180	-0.850
2020/01/31 08:23:43.5	312.190	-0.560	-0.170	-0.840
2020/01/31 08:23:43.6	312.200	-0.560	-0.150	-0.840
2020/01/31 08:23:43.7	312.200	-0.560	-0.140	-0.830
2020/01/31 08:23:43.8	312.210	-0.560	-0.130	-0.820
2020/01/31 08:23:43.9	312.220	-0.560	-0.130	-0.810
2020/01/31 08:23:44.0	312.230	-0.550	-0.120	-0.800
2020/01/31 08:23:44.1	312.240	-0.540	-0.120	-0.780
2020/01/31 08:23:44.2	312.250	-0.520	-0.120	-0.770
2020/01/31 08:23:44.3	312.250	-0.500	-0.120	-0.750
2020/01/31 08:23:44.4	312.270	-0.490	-0.130	-0.740
2020/01/31 08:23:44.5	312.280	-0.460	-0.130	-0.720
2020/01/31 08:23:44.6	312.290	-0.440	-0.140	-0.700
2020/01/31 08:23:44.7	312.290	-0.420	-0.150	-0.670
2020/01/31 08:23:44.8	312.290	-0.390	-0.160	-0.650
2020/01/31 08:23:44.9	312.300	-0.360	-0.180	-0.620
2020/01/31 08:23:45.0	312.300	-0.330	-0.190	-0.590
2020/01/31 08:23:45.1	312.300	-0.300	-0.200	-0.560
2020/01/31 08:23:45.2	312.300	-0.280	-0.210	-0.520
2020/01/31 08:23:45.3	312.300	-0.250	-0.230	-0.490
2020/01/31 08:23:45.4	312.300	-0.220	-0.240	-0.440
2020/01/31 08:23:45.5	312.300	-0.190	-0.250	-0.400
2020/01/31 08:23:45.6	312.300	-0.160	-0.260	-0.350
2020/01/31 08:23:45.7	312.300	-0.130	-0.270	-0.310
2020/01/31 08:23:45.8	312.300	-0.110	-0.270	-0.260
2020/01/31 08:23:45.9	312.300	-0.080	-0.280	-0.210
2020/01/31 08:23:46.0	312.300	-0.060	-0.280	-0.160
2020/01/31 08:23:46.1	312.290	-0.030	-0.280	-0.100
2020/01/31 08:23:46.2	312.290	-0.010	-0.280	-0.050
2020/01/31 08:23:46.3	312.290	0.000	-0.280	0.010
2020/01/31 08:23:46.4	312.280	0.020	-0.270	0.060
2020/01/31 08:23:46.5	312.270	0.040	-0.260	0.120
2020/01/31 08:23:46.6	312.270	0.050	-0.250	0.170
2020/01/31 08:23:46.7	312.260	0.060	-0.240	0.230
2020/01/31 08:23:46.8	312.260	0.070	-0.230	0.280
2020/01/31 08:23:46.9	312.250	0.080	-0.210	0.340
2020/01/31 08:23:47.0	312.240	0.080	-0.200	0.390
2020/01/31 08:23:47.1	312.230	0.090	-0.180	0.440
2020/01/31 08:23:47.2	312.220	0.090	-0.160	0.490
2020/01/31 08:23:47.3	312.210	0.090	-0.150	0.540
2020/01/31 08:23:47.4	312.200	0.090	-0.120	0.590
2020/01/31 08:23:47.5	312.180	0.080	-0.100	0.630
2020/01/31 08:23:47.6	312.170	0.080	-0.080	0.670
2020/01/31 08:23:47.7	312.150	0.070	-0.060	0.710
2020/01/31 08:23:47.8	312.140	0.070	-0.040	0.750
2020/01/31 08:23:47.9	312.120	0.060	-0.020	0.780
2020/01/31 08:23:48.0	312.110	0.050	-0.000	0.810
2020/01/31 08:23:48.1	312.090	0.040	0.020	0.830
2020/01/31 08:23:48.2	312.080	0.030	0.030	0.860
2020/01/31 08:23:48.3	312.070	0.020	0.050	0.880
2020/01/31 08:23:48.4	312.060	0.010	0.060	0.880
2020/01/31 08:23:48.5	312.040	0.000	0.070	0.900
2020/01/31 08:23:48.6	312.030	-0.010	0.080	0.900
2020/01/31 08:23:48.7	312.020	-0.010	0.090	0.910
2020/01/31 08:23:48.8	312.010	-0.020	0.100	0.910
2020/01/31 08:23:48.9	312.000	-0.030	0.100	0.900
2020/01/31 08:23:49.0	311.990	-0.040	0.100	0.890
2020/01/31 08:23:49.1	311.990	-0.040	0.100	0.880
2020/01/31 08:23:49.2	311.980	-0.050	0.090	0.860
2020/01/31 08:23:49.3	311.980	-0.050	0.080	0.840
2020/01/31 08:23:49.4	311.990	-0.060	0.060	0.820
2020/01/31 08:23:49.5	311.990	-0.060	0.050	0.790
2020/01/31 08:23:49.6	311.990	-0.060	0.030	0.760
2020/01/31 08:23:49.7	311.990	-0.060	0.010	0.720
2020/01/31 08:23:49.8	312.000	-0.050	-0.010	0.690
2020/01/31 08:23:49.9	312.000	-0.050	-0.040	0.650
2020/01/31 08:23:50.0	312.010	-0.040	-0.060	0.600
2020/01/31 08:23:50.1	312.010	-0.040	-0.090	0.560
2020/01/31 08:23:50.2	312.020	-0.030	-0.120	0.520
2020/01/31 08:23:50.3	312.030	-0.020	-0.150	0.480
2020/01/31 08:23:50.4	312.030	-0.010	-0.180	0.440
2020/01/31 08:23:50.5	312.030	0.000	-0.210	0.390
2020/01/31 08:23:50.6	312.030	0.010	-0.240	0.350
2020/01/31 08:23:50.7	312.040	0.030	-0.270	0.310
2020/01/31 08:23:50.8	312.040	0.040	-0.300	0.270
2020/01/31 08:23:50.9	312.040	0.050	-0.330	0.230
2020/01/31 08:23:51.0	312.050	0.070	-0.360	0.200
2020/01/31 08:23:51.1	312.050	0.080	-0.380	0.170
2020/01/31 08:23:51.2	312.050	0.100	-0.400	0.130
2020/01/31 08:23:51.3	312.050	0.110	-0.420	0.100
2020/01/31 08:23:51.4	312.060	0.130	-0.440	0.070
2020/01/31 08:23:51.5	312.060	0.140	-0.460	0.040
2020/01/31 08:23:51.6	312.060	0.160	-0.470	0.020
2020/01/31 08:23:51.7	312.060	0.170	-0.490	-0.000
2020/01/31 08:23:51.8	312.050	0.180	-0.490	-0.020
2020/01/31 08:23:51.9	312.050	0.200	-0.500	-0.040
2020/01/31 08:23:52.0	312.050	0.210	-0.500	-0.060
2020/01/31 08:23:52.1	312.050	0.220	-0.510	-0.070
2020/01/31 08:23:52.2	312.050	0.230	-0.510	-0.080
2020/01/31 08:23:52.3	312.050	0.250	-0.500	-0.090
2020/01/31 08:23:52.4	312.060	0.260	-0.500	-0.090
2020/01/31 08:23:52.5	312.050	0.270	-0.490	-0.100
2020/01/31 08:23:52.6	312.050	0.270	-0.480	-0.100
2020/01/31 08:23:52.7	312.050	0.280	-0.470	-0.100
2020/01/31 08:23:52.8	312.050	0.290	-0.460	-0.100
2020/01/31 08:23:52.9	312.050	0.290	-0.450	-0.100
2020/01/31 08:23:53.0	312.050	0.300	-0.440	-0.090
2020/01/31 08:23:53.1	312.050	0.300	-0.420	-0.090
2020/01/31 08:23:53.2	312.050	0.300	-0.410	-0.080
2020/01/31 08:23:53.3	312.050	0.300	-0.400	-0.080
2020/01/31 08:23:53.4	312.040	0.300	-0.380	-0.070
2020/01/31 08:23:53.5	312.040	0.300	-0.370	-0.060
2020/01/31 08:23:53.6	312.030	0.300	-0.350	-0.050
2020/01/31 08:23:53.7	312.030	0.290	-0.340	-0.040
2020/01/31 08:23:53.8	312.020	0.280	-0.320	-0.040
2020/01/31 08:23:53.9	312.020	0.280	-0.300	-0.030
2020/01/31 08:23:54.0	312.010	0.270	-0.290	-0.020
2020/01/31 08:23:54.1	312.010	0.260	-0.270	-0.000
2020/01/31 08:23:54.2	312.000	0.250	-0.250	0.010
2020/01/31 08:23:54.3	311.990	0.240	-0.230	0.020
2020/01/31 08:23:54.4	311.970	0.230	-0.210	0.030
2020/01/31 08:23:54.5	311.960	0.220	-0.190	0.040
2020/01/31 08:23:54.6	311.950	0.210	-0.180	0.060
2020/01/31 08:23:54.7	311.950	0.190	-0.160	0.070
2020/01/31 08:23:54.8	311.940	0.180	-0.140	0.080
2020/01/31 08:23:54.9	311.930	0.170	-0.120	0.100
2020/01/31 08:23:55.0	311.930	0.150	-0.100	0.110
2020/01/31 08:23:55.1	311.920	0.140	-0.080	0.120
2020/01/31 08:23:55.2	311.920	0.130	-0.060	0.140
2020/01/31 08:23:55.3	311.910	0.120	-0.050	0.150
2020/01/31 08:23:55.4	311.920	0.100	-0.030	0.160
2020/01/31 08:23:55.5	311.910	0.090	-0.020	0.170
2020/01/31 08:23:55.6	311.910	0.080	-0.000	0.170
2020/01/31 08:23:55.7	311.910	0.070	0.010	0.180
2020/01/31 08:23:55.8	311.910	0.050	0.020	0.190
2020/01/31 08:23:55.9	311.910	0.040	0.030	0.190
2020/01/31 08:23:56.0	311.910	0.030	0.040	0.190
2020/01/31 08:23:56.1	311.910	0.020	0.040	0.190
2020/01/31 08:23:56.2	311.910	0.010	0.040	0.200
2020/01/31 08:23:56.3	311.920	-0.000	0.040	0.190
2020/01/31 08:23:56.4	311.930	-0.010	0.040	0.190
2020/01/31 08:23:56.5	311.930	-0.020	0.040	0.190
2020/01/31 08:23:56.6	311.940	-0.030	0.030	0.180
2020/01/31 08:23:56.7	311.950	-0.040	0.020	0.180
2020/01/31 08:23:56.8	311.960	-0.050	0.010	0.170
2020/01/31 08:23:56.9	311.970	-0.060	-0.010	0.160
2020/01/31 08:23:57.0	311.980	-0.070	-0.020	0.150
2020/01/31 08:23:57.1	311.990	-0.080	-0.040	0.140
2020/01/31 08:23:57.2	312.000	-0.090	-0.060	0.130
2020/01/31 08:23:57.3	312.020	-0.100	-0.090	0.120
2020/01/31 08:23:57.4	312.040	-0.100	-0.120	0.100
2020/01/31 08:23:57.5	312.050	-0.110	-0.140	0.080
2020/01/31 08:23:57.6	312.070	-0.120	-0.170	0.060
2020/01/31 08:23:57.7	312.090	-0.130	-0.210	0.040
2020/01/31 08:23:57.8	312.120	-0.130	-0.240	0.020
2020/01/31 08:23:57.9	312.140	-0.140	-0.270	-0.010
2020/01/31 08:23:58.0	312.170	-0.150	-0.310	-0.040
2020/01/31 08:23:58.1	312.190	-0.150	-0.350	-0.070
2020/01/31 08:23:58.2	312.220	-0.160	-0.380	-0.100
2020/01/31 08:23:58.3	312.240	-0.160	-0.420	-0.130
2020/01/31 08:23:58.4	312.270	-0.170	-0.450	-0.160
2020/01/31 08:23:58.5	312.300	-0.170	-0.480	-0.200
2020/01/31 08:23:58.6	312.320	-0.180	-0.520	-0.230
2020/01/31 08:23:58.7	312.350	-0.180	-0.550	-0.260
2020/01/31 08:23:58.8	312.380	-0.190	-0.570	-0.290
2020/01/31 08:23:58.9	312.400	-0.190	-0.600	-0.320
2020/01/31 08:23:59.0	312.420	-0.200	-0.620	-0.350
2020/01/31 08:23:59.1	312.450	-0.210	-0.640	-0.380
2020/01/31 08:23:59.2	312.470	-0.210	-0.660	-0.400
2020/01/31 08:23:59.3	312.490	-0.220	-0.670	-0.420
2020/01/31 08:23:59.4	312.510	-0.220	-0.680	-0.440
2020/01/31 08:23:59.5	312.530	-0.230	-0.680	-0.450
2020/01/31 08:23:59.6	312.540	-0.240	-0.690	-0.460
2020/01/31 08:23:59.7	312.550	-0.240	-0.680	-0.470
2020/01/31 08:23:59.8	312.550	-0.250	-0.680	-0.470
2020/01/31 08:23:59.9	312.560	-0.260	-0.660	-0.470
2020/01/31 08:24:00.0	312.560	-0.260	-0.650	-0.470
2020/01/31 08:24:00.1	312.550	-0.270	-0.630	-0.460
2020/01/31 08:24:00.2	312.550	-0.280	-0.610	-0.450
2020/01/31 08:24:00.3	312.540	-0.280	-0.590	-0.440
2020/01/31 08:24:00.4	312.550	-0.290	-0.560	-0.420
2020/01/31 08:24:00.5	312.540	-0.290	-0.530	-0.400
2020/01/31 08:24:00.6	312.520	-0.300	-0.500	-0.380
2020/01/31 08:24:00.7	312.510	-0.300	-0.470	-0.360
2020/01/31 08:24:00.8	312.500	-0.310	-0.430	-0.330
2020/01/31 08:24:00.9	312.480	-0.310	-0.400	-0.300
2020/01/31 08:24:01.0	312.460	-0.310	-0.370	-0.270
2020/01/31 08:24:01.1	312.450	-0.310	-0.330	-0.240
2020/01/31 08:24:01.2	312.430	-0.300	-0.300	-0.210
2020/01/31 08:24:01.3	312.410	-0.300	-0.270	-0.180
2020/01/31 08:24:01.4	312.390	-0.290	-0.240	-0.150
2020/01/31 08:24:01.5	312.370	-0.290	-0.210	-0.110
2020/01/31 08:24:01.6	312.350	-0.280	-0.180	-0.080
2020/01/31 08:24:01.7	312.340	-0.260	-0.160	-0.040
2020/01/31 08:24:01.8	312.320	-0.250	-0.130	-0.000
2020/01/31 08:24:01.9	312.310	-0.240	-0.110	0.030
2020/01/31 08:24:02.0	312.290	-0.220	-0.090	0.070
2020/01/31 08:24:02.1	312.280	-0.200	-0.070	0.100
2020/01/31 08:24:02.2	312.260	-0.180	-0.060	0.130
2020/01/31 08:24:02.3	312.250	-0.160	-0.040	0.170
2020/01/31 08:24:02.4	312.250	-0.140	-0.030	0.200
2020/01/31 08:24:02.5	312.240	-0.120	-0.020	0.230
2020/01/31 08:24:02.6	312.230	-0.100	-0.020	0.260
2020/01/31 08:24:02.7	312.220	-0.070	-0.010	0.290
2020/01/31 08:24:02.8	312.210	-0.050	-0.010	0.310
2020/01/31 08:24:02.9	312.200	-0.030	-0.000	0.340
2020/01/31 08:24:03.0	312.190	-0.000	-0.000	0.360
2020/01/31 08:24:03.1	312.180	0.020	-0.010	0.390
2020/01/31 08:24:03.2	312.170	0.040	-0.010	0.410
2020/01/31 08:24:03.3	312.160	0.060	-0.010	0.430
2020/01/31 08:24:03.4	312.140	0.090	-0.010	0.450
2020/01/31 08:24:03.5	312.130	0.110	-0.020	0.470
2020/01/31 08:24:03.6	312.120	0.130	-0.030	0.490
2020/01/31 08:24:03.7	312.110	0.140	-0.040	0.500
2020/01/31 08:24:03.8	312.100	0.160	-0.060	0.510
2020/01/31 08:24:03.9	312.090	0.180	-0.070	0.520
2020/01/31 08:24:04.0	312.090	0.190	-0.090	0.530
2020/01/31 08:24:04.1	312.080	0.210	-0.100	0.530
2020/01/31 08:24:04.2	312.070	0.220	-0.120	0.540
2020/01/31 08:24:04.3	312.070	0.230	-0.140	0.540
2020/01/31 08:24:04.4	312.050	0.240	-0.160	0.530
2020/01/31 08:24:04.5	312.050	0.250	-0.180	0.520
2020/01/31 08:24:04.6	312.050	0.260	-0.200	0.520
2020/01/31 08:24:04.7	312.050	0.270	-0.220	0.510
2020/01/31 08:24:04.8	312.050	0.280	-0.240	0.500
2020/01/31 08:24:04.9	312.050	0.280	-0.260	0.490
2020/01/31 08:24:05.0	312.050	0.290	-0.280	0.470
2020/01/31 08:24:05.1	312.050	0.290	-0.300	0.460
2020/01/31 08:24:05.2	312.060	0.300	-0.320	0.440
2020/01/31 08:24:05.3	312.060	0.300	-0.330	0.430
2020/01/31 08:24:05.4	312.060	0.300	-0.340	0.410
2020/01/31 08:24:05.5	312.070	0.300	-0.360	0.390
2020/01/31 08:24:05.6	312.070	0.300	-0.360	0.370
2020/01/31 08:24:05.7	312.070	0.300	-0.370	0.350
2020/01/31 08:24:05.8	312.080	0.300	-0.370	0.330
2020/01/31 08:24:05.9	312.080	0.300	-0.370	0.310
2020/01/31 08:24:06.0	312.090	0.300	-0.370	0.290
2020/01/31 08:24:06.1	312.090	0.290	-0.370	0.270
2020/01/31 08:24:06.2	312.090	0.290	-0.360	0.250
2020/01/31 08:24:06.3	312.100	0.280	-0.350	0.230
2020/01/31 08:24:06.4	312.090	0.280	-0.340	0.200
2020/01/31 08:24:06.5	312.100	0.270	-0.320	0.180
2020/01/31 08:24:06.6	312.100	0.260	-0.310	0.160
2020/01/31 08:24:06.7	312.100	0.250	-0.290	0.140
2020/01/31 08:24:06.8	312.110	0.240	-0.270	0.110
2020/01/31 08:24:06.9	312.110	0.230	-0.240	0.090
2020/01/31 08:24:07.0	312.120	0.210	-0.220	0.070
2020/01/31 08:24:07.1	312.120	0.200	-0.200	0.040
2020/01/31 08:24:07.2	312.130	0.180	-0.170	0.020
2020/01/31 08:24:07.3	312.130	0.170	-0.140	-0.010
2020/01/31 08:24:07.4	312.130	0.150	-0.120	-0.030
2020/01/31 08:24:07.5	312.140	0.130	-0.090	-0.050
2020/01/31 08:24:07.6	312.150	0.110	-0.070	-0.080
2020/01/31 08:24:07.7	312.160	0.090	-0.040	-0.100
2020/01/31 08:24:07.8	312.170	0.070	-0.020	-0.130
2020/01/31 08:24:07.9	312.180	0.040	0.000	-0.150
2020/01/31 08:24:08.0	312.200	0.020	0.020	-0.170
2020/01/31 08:24:08.1	312.210	-0.000	0.040	-0.200
2020/01/31 08:24:08.2	312.220	-0.020	0.060	-0.220
2020/01/31 08:24:08.3	312.230	-0.050	0.080	-0.240
2020/01/31 08:24:08.4	312.240	-0.070	0.100	-0.260
2020/01/31 08:24:08.5	312.260	-0.090	0.110	-0.280
2020/01/31 08:24:08.6	312.270	-0.110	0.120	-0.300
2020/01/31 08:24:08.7	312.280	-0.130	0.130	-0.320
2020/01/31 08:24:08.8	312.290	-0.150	0.140	-0.330
2020/01/31 08:24:08.9	312.310	-0.170	0.150	-0.340
2020/01/31 08:24:09.0	312.320	-0.190	0.150	-0.360
2020/01/31 08:24:09.1	312.330	-0.210	0.150	-0.370
2020/01/31 08:24:09.2	312.330	-0.220	0.150	-0.370
2020/01/31 08:24:09.3	312.340	-0.240	0.150	-0.380
2020/01/31 08:24:09.4	312.340	-0.250	0.150	-0.380
2020/01/31 08:24:09.5	312.350	-0.260	0.150	-0.380
2020/01/31 08:24:09.6	312.350	-0.270	0.140	-0.380
2020/01/31 08:24:09.7	312.350	-0.280	0.130	-0.370
2020/01/31 08:24:09.8	312.350	-0.290	0.120	-0.360
2020/01/31 08:24:09.9	312.350	-0.290	0.110	-0.350
2020/01/31 08:24:10.0	312.350	-0.290	0.090	-0.340
2020/01/31 08:24:10.1	312.340	-0.290	0.080	-0.320
2020/01/31 08:24:10.2	312.340	-0.290	0.060	-0.290
2020/01/31 08:24:10.3	312.330	-0.290	0.040	-0.270
2020/01/31 08:24:10.4	312.330	-0.280	0.020	-0.240
2020/01/31 08:24:10.5	312.320	-0.280	-0.010	-0.220
2020/01/31 08:24:10.6	312.320	-0.270	-0.040	-0.190
2020/01/31 08:24:10.7	312.310	-0.260	-0.070	-0.160
2020/01/31 08:24:10.8	312.310	-0.250	-0.100	-0.130
2020/01/31 08:24:10.9	312.300	-0.230	-0.140	-0.100
2020/01/31 08:24:11.0	312.300	-0.220	-0.180	-0.070
2020/01/31 08:24:11.1	312.300	-0.200	-0.220	-0.040
2020/01/31 08:24:11.2	312.300	-0.180	-0.260	-0.020
2020/01/31 08:24:11.3	312.300	-0.160	-0.300	0.010
2020/01/31 08:24:11.4	312.290	-0.140	-0.350	0.040
2020/01/31 08:24:11.5	312.290	-0.120	-0.390	0.060
2020/01/31 08:24:11.6	312.300	-0.100	-0.440	0.080
2020/01/31 08:24:11.7	312.310	-0.070	-0.490	0.100
2020/01/31 08:24:11.8	312.320	-0.050	-0.540	0.130
2020/01/31 08:24:11.9	312.330	-0.020	-0.590	0.150
2020/01/31 08:24:12.0	312.340	0.000	-0.630	0.160
2020/01/31 08:24:12.1	312.350	0.030	-0.680	0.180
2020/01/31 08:24:12.2	312.360	0.050	-0.720	0.200
2020/01/31 08:24:12.3	312.370	0.080	-0.760	0.220
2020/01/31 08:24:12.4	312.400	0.100	-0.800	0.230
2020/01/31 08:24:12.5	312.410	0.130	-0.830	0.250
2020/01/31 08:24:12.6	312.420	0.150	-0.860	0.260
2020/01/31 08:24:12.7	312.430	0.170	-0.890	0.270
2020/01/31 08:24:12.8	312.440	0.190	-0.920	0.280
2020/01/31 08:24:12.9	312.450	0.210	-0.940	0.290
2020/01/31 08:24:13.0	312.460	0.220	-0.950	0.300
2020/01/31 08:24:13.1	312.470	0.230	-0.960	0.310
2020/01/31 08:24:13.2	312.480	0.250	-0.970	0.320
2020/01/31 08:24:13.3	312.490	0.260	-0.970	0.320
2020/01/31 08:24:13.4	312.500	0.260	-0.970	0.330
2020/01/31 08:24:13.5	312.510	0.270	-0.960	0.340
2020/01/31 08:24:13.6	312.510	0.270	-0.950	0.340
2020/01/31 08:24:13.7	312.520	0.270	-0.930	0.340
2020/01/31 08:24:13.8	312.520	0.260	-0.920	0.340
2020/01/31 08:24:13.9	312.530	0.260	-0.890	0.340
2020/01/31 08:24:14.0	312.530	0.250	-0.870	0.340
2020/01/31 08:24:14.1	312.530	0.240	-0.840	0.340
2020/01/31 08:24:14.2	312.530	0.230	-0.800	0.330
2020/01/31 08:24:14.3	312.540	0.210	-0.770	0.330
2020/01/31 08:24:14.4	312.550	0.200	-0.730	0.320
2020/01/31 08:24:14.5	312.550	0.180	-0.690	0.320
2020/01/31 08:24:14.6	312.550	0.160	-0.650	0.310
2020/01/31 08:24:14.7	312.550	0.130	-0.610	0.300
2020/01/31 08:24:14.8	312.540	0.110	-0.560	0.300
2020/01/31 08:24:14.9	312.540	0.080	-0.520	0.290
2020/01/31 08:24:15.0	312.530	0.060	-0.470	0.280
2020/01/31 08:24:15.1	312.530	0.030	-0.420	0.280
2020/01/31 08:24:15.2	312.520	0.000	-0.370	0.270
2020/01/31 08:24:15.3	312.510	-0.020	-0.330	0.270
2020/01/31 08:24:15.4	312.480	-0.050	-0.280	0.270
2020/01/31 08:24:15.5	312.470	-0.080	-0.230	0.270
2020/01/31 08:24:15.6	312.450	-0.100	-0.180	0.270
2020/01/31 08:24:15.7	312.440	-0.130	-0.140	0.270
2020/01/31 08:24:15.8	312.420	-0.150	-0.090	0.270
2020/01/31 08:24:15.9	312.410	-0.180	-0.050	0.270
2020/01/31 08:24:16.0	312.390	-0.200	-0.010	0.280
2020/01/31 08:24:16.1	312.380	-0.220	0.020	0.280
2020/01/31 08:24:16.2	312.360	-0.240	0.060	0.280
2020/01/31 08:24:16.3	312.350	-0.260	0.090	0.280
2020/01/31 08:24:16.4	312.340	-0.270	0.120	0.280
2020/01/31 08:24:16.5	312.320	-0.290	0.140	0.280
2020/01/31 08:24:16.6	312.310	-0.300	0.170	0.280
2020/01/31 08:24:16.7	312.290	-0.310	0.180	0.280
2020/01/31 08:24:16.8	312.280	-0.310	0.200	0.280
2020/01/31 08:24:16.9	312.260	-0.320	0.210	0.280
2020/01/31 08:24:17.0	312.250	-0.320	0.220	0.270
2020/01/31 08:24:17.1	312.240	-0.320	0.230	0.270
2020/01/31 08:24:17.2	312.230	-0.310	0.230	0.260
2020/01/31 08:24:17.3	312.210	-0.310	0.230	0.250
2020/01/31 08:24:17.4	312.190	-0.300	0.230	0.240
2020/01/31 08:24:17.5	312.180	-0.290	0.220	0.230
2020/01/31 08:24:17.6	312.170	-0.270	0.210	0.210
2020/01/31 08:24:17.7	312.170	-0.260	0.200	0.200
2020/01/31 08:24:17.8	312.160	-0.240	0.190	0.190
2020/01/31 08:24:17.9	312.150	-0.220	0.170	0.180
2020/01/31 08:24:18.0	312.150	-0.190	0.160	0.170
2020/01/31 08:24:18.1	312.140	-0.170	0.140	0.160
2020/01/31 08:24:18.2	312.130	-0.140	0.130	0.150
2020/01/31 08:24:18.3	312.130	-0.120	0.110	0.150
2020/01/31 08:24:18.4	312.130	-0.090	0.090	0.140
2020/01/31 08:24:18.5	312.120	-0.060	0.080	0.140
2020/01/31 08:24:18.6	312.110	-0.030	0.070	0.140
2020/01/31 08:24:18.7	312.100	-0.000	0.060	0.140
2020/01/31 08:24:18.8	312.100	0.030	0.040	0.140
2020/01/31 08:24:18.9	312.090	0.050	0.030	0.140
2020/01/31 08:24:19.0	312.080	0.080	0.020	0.150
2020/01/31 08:24:19.1	312.080	0.100	0.020	0.150
2020/01/31 08:24:19.2	312.070	0.130	0.010	0.150
2020/01/31 08:24:19.3	312.070	0.150	0.000	0.150
2020/01/31 08:24:19.4	312.070	0.170	-0.000	0.160
2020/01/31 08:24:19.5	312.070	0.190	-0.010	0.160
2020/01/31 08:24:19.6	312.070	0.200	-0.020	0.160
2020/01/31 08:24:19.7	312.070	0.220	-0.020	0.160
2020/01/31 08:24:19.8	312.080	0.230	-0.030	0.160
2020/01/31 08:24:19.9	312.080	0.230	-0.040	0.150
2020/01/31 08:24:20.0	312.090	0.240	-0.040	0.150
2020/01/31 08:24:20.1	312.110	0.240	-0.050	0.140
2020/01/31 08:24:20.2	312.120	0.240	-0.060	0.140
2020/01/31 08:24:20.3	312.130	0.240	-0.070	0.130
2020/01/31 08:24:20.4	312.160	0.240	-0.090	0.120
2020/01/31 08:24:20.5	312.170	0.230	-0.100	0.110
2020/01/31 08:24:20.6	312.190	0.220	-0.110	0.100
2020/01/31 08:24:20.7	312.210	0.210	-0.120	0.090
2020/01/31 08:24:20.8	312.230	0.200	-0.130	0.080
2020/01/31 08:24:20.9	312.250	0.180	-0.150	0.070
2020/01/31 08:24:21.0	312.280	0.170	-0.160	0.070
2020/01/31 08:24:21.1	312.300	0.150	-0.170	0.060
2020/01/31 08:24:21.2	312.320	0.130	-0.180	0.050
2020/01/31 08:24:21.3	312.340	0.110	-0.190	0.040
2020/01/31 08:24:21.4	312.350	0.090	-0.210	0.030
2020/01/31 08:24:21.5	312.370	0.070	-0.210	0.030
2020/01/31 08:24:21.6	312.390	0.040	-0.220	0.020
2020/01/31 08:24:21.7	312.410	0.020	-0.230	0.010
2020/01/31 08:24:21.8	312.430	-0.000	-0.240	0.010
2020/01/31 08:24:21.9	312.440	-0.020	-0.240	0.000
2020/01/31 08:24:22.0	312.450	-0.050	-0.240	-0.000
2020/01/31 08:24:22.1	312.460	-0.070	-0.240	-0.010
2020/01/31 08:24:22.2	312.470	-0.090	-0.240	-0.010
2020/01/31 08:24:22.3	312.470	-0.110	-0.240	-0.010
2020/01/31 08:24:22.4	312.480	-0.130	-0.240	-0.010
2020/01/31 08:24:22.5	312.480	-0.150	-0.240	-0.010
2020/01/31 08:24:22.6	312.470	-0.170	-0.230	-0.000
2020/01/31 08:24:22.7	312.470	-0.180	-0.230	0.000
2020/01/31 08:24:22.8	312.470	-0.200	-0.230	0.010
2020/01/31 08:24:22.9	312.460	-0.210	-0.230	0.010
2020/01/31 08:24:23.0	312.450	-0.220	-0.220	0.020
2020/01/31 08:24:23.1	312.450	-0.230	-0.220	0.030
2020/01/31 08:24:23.2	312.440	-0.230	-0.220	0.040
2020/01/31 08:24:23.3	312.430	-0.240	-0.230	0.050
2020/01/31 08:24:23.4	312.420	-0.240	-0.230	0.060
2020/01/31 08:24:23.5	312.420	-0.240	-0.230	0.070
2020/01/31 08:24:23.6	312.410	-0.240	-0.240	0.080
2020/01/31 08:24:23.7	312.410	-0.230	-0.250	0.090
2020/01/31 08:24:23.8	312.410	-0.230	-0.270	0.100
2020/01/31 08:24:23.9	312.400	-0.220	-0.280	0.110
2020/01/31 08:24:24.0	312.400	-0.210	-0.300	0.120
2020/01/31 08:24:24.1	312.400	-0.190	-0.320	0.130
2020/01/31 08:24:24.2	312.400	-0.180	-0.340	0.140
2020/01/31 08:24:24.3	312.400	-0.160	-0.360	0.150
2020/01/31 08:24:24.4	312.390	-0.150	-0.400	0.160
2020/01/31 08:24:24.5	312.400	-0.130	-0.420	0.170
2020/01/31 08:24:24.6	312.400	-0.110	-0.450	0.170
2020/01/31 08:24:24.7	312.400	-0.090	-0.480	0.180
2020/01/31 08:24:24.8	312.410	-0.070	-0.510	0.180
2020/01/31 08:24:24.9	312.420	-0.040	-0.550	0.190
2020/01/31 08:24:25.0	312.420	-0.020	-0.580	0.190
2020/01/31 08:24:25.1	312.430	-0.000	-0.610	0.190
2020/01/31 08:24:25.2	312.440	0.020	-0.650	0.190
2020/01/31 08:24:25.3	312.450	0.040	-0.680	0.190
2020/01/31 08:24:25.4	312.460	0.060	-0.700	0.190
2020/01/31 08:24:25.5	312.470	0.080	-0.730	0.190
2020/01/31 08:24:25.6	312.480	0.100	-0.760	0.190
2020/01/31 08:24:25.7	312.500	0.120	-0.780	0.190
2020/01/31 08:24:25.8	312.510	0.140	-0.810	0.190
2020/01/31 08:24:25.9	312.520	0.160	-0.820	0.190
2020/01/31 08:24:26.0	312.530	0.170	-0.840	0.190
2020/01/31 08:24:26.1	312.540	0.180	-0.850	0.190
2020/01/31 08:24:26.2	312.550	0.200	-0.850	0.190
2020/01/31 08:24:26.3	312.560	0.210	-0.850	0.200
2020/01/31 08:24:26.4	312.560	0.210	-0.850	0.200
2020/01/31 08:24:26.5	312.570	0.220	-0.840	0.210
2020/01/31 08:24:26.6	312.580	0.230	-0.830	0.210
2020/01/31 08:24:26.7	312.580	0.230	-0.810	0.220
2020/01/31 08:24:26.8	312.590	0.230	-0.790	0.230
2020/01/31 08:24:26.9	312.590	0.230	-0.760	0.230
2020/01/31 08:24:27.0	312.590	0.230	-0.730	0.240
2020/01/31 08:24:27.1	312.590	0.230	-0.690	0.250
2020/01/31 08:24:27.2	312.600	0.220	-0.650	0.260
2020/01/31 08:24:27.3	312.600	0.220	-0.610	0.280
2020/01/31 08:24:27.4	312.580	0.210	-0.560	0.290
2020/01/31 08:24:27.5	312.580	0.200	-0.510	0.300
2020/01/31 08:24:27.6	312.580	0.200	-0.460	0.320
2020/01/31 08:24:27.7	312.580	0.190	-0.410	0.330
2020/01/31 08:24:27.8	312.570	0.180	-0.360	0.350
2020/01/31 08:24:27.9	312.570	0.170	-0.300	0.360
2020/01/31 08:24:28.0	312.570	0.160	-0.250	0.380
2020/01/31 08:24:28.1	312.560	0.150	-0.200	0.400
2020/01/31 08:24:28.2	312.560	0.130	-0.140	0.410
2020/01/31 08:24:28.3	312.550	0.120	-0.090	0.430
2020/01/31 08:24:28.4	312.550	0.110	-0.040	0.450
2020/01/31 08:24:28.5	312.540	0.100	0.000	0.470
2020/01/31 08:24:28.6	312.540	0.090	0.050	0.480
2020/01/31 08:24:28.7	312.530	0.080	0.090	0.500
2020/01/31 08:24:28.8	312.520	0.070	0.130	0.510
2020/01/31 08:24:28.9	312.520	0.060	0.170	0.530
2020/01/31 08:24:29.0	312.510	0.050	0.200	0.540
2020/01/31 08:24:29.1	312.500	0.040	0.220	0.550
2020/01/31 08:24:29.2	312.490	0.030	0.250	0.570
2020/01/31 08:24:29.3	312.480	0.020	0.260	0.580
2020/01/31 08:24:29.4	312.470	0.010	0.280	0.580
2020/01/31 08:24:29.5	312.470	0.010	0.290	0.590
2020/01/31 08:24:29.6	312.460	0.000	0.290	0.600
2020/01/31 08:24:29.7	312.450	-0.010	0.290	0.600
2020/01/31 08:24:29.8	312.440	-0.010	0.290	0.610
2020/01/31 08:24:29.9	312.430	-0.020	0.280	0.610
2020/01/31 08:24:30.0	312.430	-0.020	0.270	0.610
2020/01/31 08:24:30.1	312.420	-0.020	0.250	0.610
2020/01/31 08:24:30.2	312.410	-0.030	0.230	0.610
2020/01/31 08:24:30.3	312.410	-0.030	0.210	0.600
2020/01/31 08:24:30.4	312.420	-0.030	0.180	0.590
2020/01/31 08:24:30.5	312.410	-0.040	0.160	0.580
2020/01/31 08:24:30.6	312.410	-0.040	0.130	0.570
2020/01/31 08:24:30.7	312.410	-0.040	0.090	0.560
2020/01/31 08:24:30.8	312.410	-0.040	0.060	0.550
2020/01/31 08:24:30.9	312.410	-0.040	0.030	0.530
2020/01/31 08:24:31.0	312.410	-0.040	-0.010	0.510
2020/01/31 08:24:31.1	312.410	-0.040	-0.040	0.490
2020/01/31 08:24:31.2	312.410	-0.040	-0.080	0.470
2020/01/31 08:24:31.3	312.420	-0.040	-0.110	0.450
2020/01/31 08:24:31.4	312.430	-0.040	-0.140	0.430
2020/01/31 08:24:31.5	312.430	-0.040	-0.170	0.410
2020/01/31 08:24:31.6	312.440	-0.040	-0.200	0.390
2020/01/31 08:24:31.7	312.440	-0.040	-0.220	0.360
2020/01/31 08:24:31.8	312.450	-0.040	-0.250	0.340
2020/01/31 08:24:31.9	312.460	-0.050	-0.270	0.320
2020/01/31 08:24:32.0	312.460	-0.050	-0.280	0.300
2020/01/31 08:24:32.1	312.470	-0.050	-0.300	0.290
2020/01/31 08:24:32.2	312.480	-0.050	-0.310	0.270
2020/01/31 08:24:32.3	312.480	-0.050	-0.310	0.260
2020/01/31 08:24:32.4	312.500	-0.050	-0.320	0.240
2020/01/31 08:24:32.5	312.500	-0.060	-0.310	0.230
2020/01/31 08:24:32.6	312.500	-0.060	-0.310	0.230
2020/01/31 08:24:32.7	312.510	-0.060	-0.300	0.220
2020/01/31 08:24:32.8	312.510	-0.070	-0.280	0.210
2020/01/31 08:24:32.9	312.510	-0.070	-0.270	0.210
2020/01/31 08:24:33.0	312.510	-0.080	-0.250	0.210
2020/01/31 08:24:33.1	312.510	-0.080	-0.230	0.210
2020/01/31 08:24:33.2	312.510	-0.080	-0.210	0.210
2020/01/31 08:24:33.3	312.510	-0.090	-0.180	0.210
2020/01/31 08:24:33.4	312.510	-0.090	-0.150	0.210
2020/01/31 08:24:33.5	312.510	-0.100	-0.130	0.210
2020/01/31 08:24:33.6	312.510	-0.100	-0.110	0.210
2020/01/31 08:24:33.7	312.510	-0.110	-0.090	0.210
2020/01/31 08:24:33.8	312.510	-0.110	-0.070	0.200
2020/01/31 08:24:33.9	312.510	-0.110	-0.050	0.200
2020/01/31 08:24:34.0	312.510	-0.120	-0.030	0.200
2020/01/31 08:24:34.1	312.520	-0.120	-0.020	0.190
2020/01/31 08:24:34.2	312.520	-0.120	-0.020	0.180
2020/01/31 08:24:34.3	312.520	-0.120	-0.010	0.170
2020/01/31 08:24:34.4	312.520	-0.120	-0.010	0.160
2020/01/31 08:24:34.5	312.530	-0.120	-0.020	0.150
2020/01/31 08:24:34.6	312.540	-0.120	-0.030	0.130
2020/01/31 08:24:34.7	312.550	-0.120	-0.040	0.110
2020/01/31 08:24:34.8	312.550	-0.120	-0.050	0.100
2020/01/31 08:24:34.9	312.560	-0.120	-0.070	0.080
2020/01/31 08:24:35.0	312.580	-0.120	-0.100	0.050
2020/01/31 08:24:35.1	312.590	-0.120	-0.120	0.030
2020/01/31 08:24:35.2	312.600	-0.110	-0.150	0.010
2020/01/31 08:24:35.3	312.610	-0.110	-0.180	-0.020
2020/01/31 08:24:35.4	312.620	-0.110	-0.220	-0.040
2020/01/31 08:24:35.5	312.630	-0.100	-0.250	-0.070
2020/01/31 08:24:35.6	312.650	-0.100	-0.290	-0.100
2020/01/31 08:24:35.7	312.660	-0.100	-0.320	-0.120
2020/01/31 08:24:35.8	312.680	-0.090	-0.360	-0.150
2020/01/31 08:24:35.9	312.690	-0.090	-0.400	-0.180
2020/01/31 08:24:36.0	312.710	-0.090	-0.430	-0.210
2020/01/31 08:24:36.1	312.730	-0.090	-0.470	-0.240
2020/01/31 08:24:36.2	312.750	-0.080	-0.510	-0.270
2020/01/31 08:24:36.3	312.770	-0.080	-0.540	-0.300
2020/01/31 08:24:36.4	312.800	-0.080	-0.580	-0.340
2020/01/31 08:24:36.5	312.820	-0.070	-0.610	-0.370
2020/01/31 08:24:36.6	312.840	-0.070	-0.640	-0.400
2020/01/31 08:24:36.7	312.870	-0.070	-0.670	-0.430
2020/01/31 08:24:36.8	312.890	-0.060	-0.690	-0.460
2020/01/31 08:24:36.9	312.910	-0.060	-0.720	-0.480
2020/01/31 08:24:37.0	312.940	-0.060	-0.740	-0.510
2020/01/31 08:24:37.1	312.960	-0.050	-0.750	-0.530
2020/01/31 08:24:37.2	312.990	-0.050	-0.770	-0.550
2020/01/31 08:24:37.3	313.010	-0.040	-0.780	-0.570
2020/01/31 08:24:37.4	313.040	-0.040	-0.780	-0.580
2020/01/31 08:24:37.5	313.060	-0.030	-0.780	-0.590
2020/01/31 08:24:37.6	313.080	-0.030	-0.780	-0.600
2020/01/31 08:24:37.7	313.100	-0.020	-0.780	-0.600
2020/01/31 08:24:37.8	313.120	-0.020	-0.770	-0.590
2020/01/31 08:24:37.9	313.140	-0.010	-0.750	-0.580
2020/01/31 08:24:38.0	313.160	-0.000	-0.730	-0.570
2020/01/31 08:24:38.1	313.170	0.000	-0.710	-0.550
2020/01/31 08:24:38.2	313.180	0.010	-0.680	-0.530
2020/01/31 08:24:38.3	313.190	0.020	-0.650	-0.500
2020/01/31 08:24:38.4	313.230	0.030	-0.610	-0.460
2020/01/31 08:24:38.5	313.230	0.040	-0.580	-0.420
2020/01/31 08:24:38.6	313.240	0.040	-0.530	-0.370
2020/01/31 08:24:38.7	313.240	0.050	-0.490	-0.320
2020/01/31 08:24:38.8	313.240	0.060	-0.440	-0.270
2020/01/31 08:24:38.9	313.240	0.070	-0.390	-0.210
2020/01/31 08:24:39.0	313.230	0.080	-0.340	-0.160
2020/01/31 08:24:39.1	313.220	0.090	-0.290	-0.090
2020/01/31 08:24:39.2	313.220	0.100	-0.240	-0.030
2020/01/31 08:24:39.3	313.210	0.110	-0.190	0.030
2020/01/31 08:24:39.4	313.210	0.120	-0.140	0.100
2020/01/31 08:24:39.5	313.200	0.130	-0.090	0.170
2020/01/31 08:24:39.6	313.190	0.130	-0.040	0.230
2020/01/31 08:24:39.7	313.170	0.140	0.000	0.300
2020/01/31 08:24:39.8	313.160	0.150	0.040	0.360
2020/01/31 08:24:39.9	313.140	0.150	0.080	0.420
2020/01/31 08:24:40.0	313.120	0.160	0.120	0.470
2020/01/31 08:24:40.1	313.100	0.160	0.150	0.530
2020/01/31 08:24:40.2	313.080	0.160	0.180	0.580
2020/01/31 08:24:40.3	313.060	0.160	0.210	0.630
2020/01/31 08:24:40.4	313.040	0.160	0.230	0.670
2020/01/31 08:24:40.5	313.020	0.160	0.250	0.710
2020/01/31 08:24:40.6	313.000	0.160	0.270	0.750
2020/01/31 08:24:40.7	312.970	0.150	0.280	0.780
2020/01/31 08:24:40.8	312.950	0.140	0.290	0.810
2020/01/31 08:24:40.9	312.930	0.140	0.290	0.830
2020/01/31 08:24:41.0	312.900	0.130	0.290	0.850
2020/01/31 08:24:41.1	312.870	0.120	0.290	0.870
2020/01/31 08:24:41.2	312.850	0.100	0.280	0.880
2020/01/31 08:24:41.3	312.820	0.090	0.270	0.880
2020/01/31 08:24:41.4	312.800	0.080	0.260	0.880
2020/01/31 08:24:41.5	312.770	0.060	0.240	0.880
2020/01/31 08:24:41.6	312.750	0.050	0.220	0.870
2020/01/31 08:24:41.7	312.730	0.030	0.200	0.850
2020/01/31 08:24:41.8	312.710	0.020	0.170	0.830
2020/01/31 08:24:41.9	312.690	0.000	0.140	0.810
2020/01/31 08:24:42.0	312.680	-0.010	0.110	0.780
2020/01/31 08:24:42.1	312.660	-0.030	0.080	0.750
2020/01/31 08:24:42.2	312.660	-0.040	0.040	0.710
2020/01/31 08:24:42.3	312.650	-0.060	-0.000	0.670
2020/01/31 08:24:42.4	312.640	-0.070	-0.040	0.620
2020/01/31 08:24:42.5	312.640	-0.080	-0.090	0.580
2020/01/31 08:24:42.6	312.640	-0.090	-0.130	0.530
2020/01/31 08:24:42.7	312.650	-0.110	-0.180	0.470
2020/01/31 08:24:42.8	312.650	-0.120	-0.220	0.420
2020/01/31 08:24:42.9	312.660	-0.120	-0.270	0.360
2020/01/31 08:24:43.0	312.670	-0.130	-0.310	0.300
2020/01/31 08:24:43.1	312.690	-0.140	-0.360	0.240
2020/01/31 08:24:43.2	312.700	-0.150	-0.410	0.180
2020/01/31 08:24:43.3	312.720	-0.150	-0.450	0.120
2020/01/31 08:24:43.4	312.740	-0.160	-0.490	0.050
2020/01/31 08:24:43.5	312.760	-0.160	-0.540	-0.010
2020/01/31 08:24:43.6	312.780	-0.160	-0.570	-0.070
2020/01/31 08:24:43.7	312.800	-0.160	-0.610	-0.130
2020/01/31 08:24:43.8	312.820	-0.170	-0.640	-0.180
2020/01/31 08:24:43.9	312.840	-0.170	-0.670	-0.240
2020/01/31 08:24:44.0	312.860	-0.170	-0.700	-0.290
2020/01/31 08:24:44.1	312.890	-0.170	-0.730	-0.340
2020/01/31 08:24:44.2	312.910	-0.170	-0.740	-0.390
2020/01/31 08:24:44.3	312.930	-0.160	-0.760	-0.440
2020/01/31 08:24:44.4	312.960	-0.160	-0.770	-0.480
2020/01/31 08:24:44.5	312.980	-0.160	-0.770	-0.510
2020/01/31 08:24:44.6	313.000	-0.160	-0.770	-0.540
2020/01/31 08:24:44.7	313.020	-0.150	-0.770	-0.570
2020/01/31 08:24:44.8	313.040	-0.150	-0.760	-0.590
2020/01/31 08:24:44.9	313.060	-0.140	-0.750	-0.610
2020/01/31 08:24:45.0	313.080	-0.140	-0.740	-0.620
2020/01/31 08:24:45.1	313.100	-0.130	-0.710	-0.630
2020/01/31 08:24:45.2	313.120	-0.120	-0.690	-0.630
2020/01/31 08:24:45.3	313.130	-0.110	-0.660	-0.620
2020/01/31 08:24:45.4	313.160	-0.110	-0.630	-0.610
2020/01/31 08:24:45.5	313.170	-0.100	-0.590	-0.590
2020/01/31 08:24:45.6	313.180	-0.090	-0.550	-0.560
2020/01/31 08:24:45.7	313.200	-0.080	-0.500	-0.540
2020/01/31 08:24:45.8	313.210	-0.060	-0.460	-0.500
2020/01/31 08:24:45.9	313.210	-0.050	-0.410	-0.470
2020/01/31 08:24:46.0	313.220	-0.040	-0.350	-0.420
2020/01/31 08:24:46.1	313.220	-0.030	-0.300	-0.380
2020/01/31 08:24:46.2	313.220	-0.020	-0.250	-0.330
2020/01/31 08:24:46.3	313.220	-0.000	-0.190	-0.280
2020/01/31 08:24:46.4	313.230	0.010	-0.130	-0.220
2020/01/31 08:24:46.5	313.220	0.020	-0.080	-0.160
2020/01/31 08:24:46.6	313.220	0.030	-0.020	-0.100
2020/01/31 08:24:46.7	313.210	0.040	0.030	-0.040
2020/01/31 08:24:46.8	313.200	0.060	0.080	0.020
2020/01/31 08:24:46.9	313.180	0.070	0.120	0.090
2020/01/31 08:24:47.0	313.170	0.080	0.160	0.150
2020/01/31 08:24:47.1	313.160	0.090	0.200	0.210
2020/01/31 08:24:47.2	313.140	0.100	0.240	0.270
2020/01/31 08:24:47.3	313.130	0.110	0.270	0.330
2020/01/31 08:24:47.4	313.110	0.120	0.300	0.390
2020/01/31 08:24:47.5	313.100	0.130	0.310	0.450
2020/01/31 08:24:47.6	313.080	0.130	0.330	0.500
2020/01/31 08:24:47.7	313.070	0.140	0.340	0.540
2020/01/31 08:24:47.8	313.050	0.150	0.340	0.580
2020/01/31 08:24:47.9	313.040	0.150	0.340	0.620
2020/01/31 08:24:48.0	313.020	0.160	0.330	0.660
2020/01/31 08:24:48.1	313.010	0.160	0.310	0.680
2020/01/31 08:24:48.2	312.990	0.160	0.290	0.710
2020/01/31 08:24:48.3	312.980	0.170	0.270	0.720
2020/01/31 08:24:48.4	312.960	0.170	0.230	0.730
2020/01/31 08:24:48.5	312.950	0.170	0.200	0.740
2020/01/31 08:24:48.6	312.940	0.170	0.160	0.740
2020/01/31 08:24:48.7	312.930	0.170	0.120	0.740
2020/01/31 08:24:48.8	312.910	0.170	0.080	0.730
2020/01/31 08:24:48.9	312.900	0.160	0.030	0.720
2020/01/31 08:24:49.0	312.900	0.160	-0.020	0.700
2020/01/31 08:24:49.1	312.890	0.160	-0.070	0.680
2020/01/31 08:24:49.2	312.880	0.150	-0.130	0.660
2020/01/31 08:24:49.3	312.870	0.150	-0.180	0.630
2020/01/31 08:24:49.4	312.870	0.140	-0.230	0.610
2020/01/31 08:24:49.5	312.860	0.140	-0.280	0.570
2020/01/31 08:24:49.6	312.860	0.130	-0.340	0.540
2020/01/31 08:24:49.7	312.850	0.130	-0.390	0.510
2020/01/31 08:24:49.8	312.850	0.120	-0.440	0.470
2020/01/31 08:24:49.9	312.840	0.110	-0.490	0.430
2020/01/31 08:24:50.0	312.840	0.100	-0.540	0.390
2020/01/31 08:24:50.1	312.840	0.100	-0.580	0.360
2020/01/31 08:24:50.2	312.840	0.090	-0.620	0.320
2020/01/31 08:24:50.3	312.840	0.080	-0.660	0.280
2020/01/31 08:24:50.4	312.830	0.070	-0.700	0.240
2020/01/31 08:24:50.5	312.830	0.060	-0.730	0.200
2020/01/31 08:24:50.6	312.830	0.050	-0.760	0.160
2020/01/31 08:24:50.7	312.840	0.040	-0.790	0.120
2020/01/31 08:24:50.8	312.840	0.030	-0.810	0.090
2020/01/31 08:24:50.9	312.850	0.020	-0.820	0.050
2020/01/31 08:24:51.0	312.860	0.010	-0.840	0.010
2020/01/31 08:24:51.1	312.870	-0.000	-0.850	-0.020
2020/01/31 08:24:51.2	312.880	-0.010	-0.850	-0.050
2020/01/31 08:24:51.3	312.890	-0.020	-0.850	-0.080
2020/01/31 08:24:51.4	312.920	-0.030	-0.850	-0.110
2020/01/31 08:24:51.5	312.930	-0.040	-0.840	-0.140
2020/01/31 08:24:51.6	312.940	-0.050	-0.830	-0.160
2020/01/31 08:24:51.7	312.960	-0.060	-0.810	-0.190
2020/01/31 08:24:51.8	312.970	-0.070	-0.790	-0.210
2020/01/31 08:24:51.9	312.990	-0.080	-0.770	-0.220
2020/01/31 08:24:52.0	313.000	-0.090	-0.740	-0.240
2020/01/31 08:24:52.1	313.020	-0.100	-0.720	-0.260
2020/01/31 08:24:52.2	313.030	-0.100	-0.680	-0.270
2020/01/31 08:24:52.3	313.050	-0.110	-0.650	-0.280
2020/01/31 08:24:52.4	313.080	-0.120	-0.610	-0.290
2020/01/31 08:24:52.5	313.090	-0.130	-0.580	-0.290
2020/01/31 08:24:52.6	313.100	-0.130	-0.540	-0.300
2020/01/31 08:24:52.7	313.120	-0.140	-0.490	-0.300
2020/01/31 08:24:52.8	313.130	-0.140	-0.450	-0.300
2020/01/31 08:24:52.9	313.140	-0.150	-0.400	-0.300
2020/01/31 08:24:53.0	313.150	-0.150	-0.350	-0.300
2020/01/31 08:24:53.1	313.160	-0.160	-0.310	-0.290
2020/01/31 08:24:53.2	313.170	-0.160	-0.260	-0.290
2020/01/31 08:24:53.3	313.180	-0.170	-0.210	-0.280
2020/01/31 08:24:53.4	313.190	-0.170	-0.160	-0.270
2020/01/31 08:24:53.5	313.200	-0.170	-0.110	-0.260
2020/01/31 08:24:53.6	313.200	-0.170	-0.060	-0.240
2020/01/31 08:24:53.7	313.200	-0.180	-0.020	-0.220
2020/01/31 08:24:53.8	313.200	-0.180	0.030	-0.200
2020/01/31 08:24:53.9	313.200	-0.180	0.080	-0.180
2020/01/31 08:24:54.0	313.200	-0.180	0.120	-0.160
2020/01/31 08:24:54.1	313.200	-0.190	0.160	-0.130
2020/01/31 08:24:54.2	313.190	-0.190	0.200	-0.100
2020/01/31 08:24:54.3	313.180	-0.190	0.240	-0.080
2020/01/31 08:24:54.4	313.180	-0.190	0.280	-0.040
2020/01/31 08:24:54.5	313.170	-0.190	0.310	-0.010
2020/01/31 08:24:54.6	313.160	-0.190	0.340	0.020
2020/01/31 08:24:54.7	313.150	-0.200	0.360	0.050
2020/01/31 08:24:54.8	313.130	-0.200	0.390	0.090
2020/01/31 08:24:54.9	313.120	-0.200	0.410	0.120
2020/01/31 08:24:55.0	313.100	-0.200	0.420	0.150
2020/01/31 08:24:55.1	313.080	-0.200	0.440	0.190
2020/01/31 08:24:55.2	313.060	-0.200	0.440	0.220
2020/01/31 08:24:55.3	313.040	-0.200	0.450	0.260
2020/01/31 08:24:55.4	313.010	-0.200	0.450	0.290
2020/01/31 08:24:55.5	312.990	-0.200	0.450	0.320
2020/01/31 08:24:55.6	312.970	-0.200	0.440	0.350
2020/01/31 08:24:55.7	312.950	-0.190	0.430	0.380
2020/01/31 08:24:55.8	312.930	-0.190	0.420	0.410
2020/01/31 08:24:55.9	312.910	-0.180	0.400	0.440
2020/01/31 08:24:56.0	312.880	-0.180	0.380	0.470
2020/01/31 08:24:56.1	312.860	-0.170	0.360	0.500
2020/01/31 08:24:56.2	312.840	-0.160	0.330	0.520
2020/01/31 08:24:56.3	312.820	-0.150	0.300	0.550
2020/01/31 08:24:56.4	312.780	-0.140	0.270	0.570
2020/01/31 08:24:56.5	312.760	-0.130	0.230	0.590
2020/01/31 08:24:56.6	312.740	-0.110	0.190	0.600
2020/01/31 08:24:56.7	312.720	-0.100	0.140	0.620
2020/01/31 08:24:56.8	312.710	-0.080	0.100	0.630
2020/01/31 08:24:56.9	312.690	-0.060	0.050	0.640
2020/01/31 08:24:57.0	312.670	-0.040	0.000	0.640
2020/01/31 08:24:57.1	312.660	-0.020	-0.050	0.650
2020/01/31 08:24:57.2	312.650	-0.000	-0.100	0.650
2020/01/31 08:24:57.3	312.640	0.020	-0.150	0.640
2020/01/31 08:24:57.4	312.610	0.040	-0.200	0.640
2020/01/31 08:24:57.5	312.600	0.070	-0.250	0.630
2020/01/31 08:24:57.6	312.590	0.090	-0.310	0.620
2020/01/31 08:24:57.7	312.580	0.110	-0.360	0.600
2020/01/31 08:24:57.8	312.580	0.130	-0.400	0.590
2020/01/31 08:24:57.9	312.580	0.160	-0.450	0.570
2020/01/31 08:24:58.0	312.570	0.180	-0.500	0.550
2020/01/31 08:24:58.1	312.570	0.200	-0.540	0.520
2020/01/31 08:24:58.2	312.570	0.220	-0.580	0.500
2020/01/31 08:24:58.3	312.580	0.240	-0.610	0.470
2020/01/31 08:24:58.4	312.570	0.260	-0.650	0.440
2020/01/31 08:24:58.5	312.570	0.270	-0.680	0.400
2020/01/31 08:24:58.6	312.580	0.290	-0.700	0.370
2020/01/31 08:24:58.7	312.590	0.300	-0.730	0.340
2020/01/31 08:24:58.8	312.590	0.310	-0.750	0.300
2020/01/31 08:24:58.9	312.600	0.320	-0.760	0.270
2020/01/31 08:24:59.0	312.610	0.330	-0.780	0.230
2020/01/31 08:24:59.1	312.620	0.330	-0.790	0.190
2020/01/31 08:24:59.2	312.620	0.340	-0.790	0.160
2020/01/31 08:24:59.3	312.630	0.340	-0.800	0.120
2020/01/31 08:24:59.4	312.650	0.340	-0.800	0.080
2020/01/31 08:24:59.5	312.660	0.330	-0.790	0.050
2020/01/31 08:24:59.6	312.670	0.330	-0.790	0.020
2020/01/31 08:24:59.7	312.680	0.320	-0.780	-0.020
2020/01/31 08:24:59.8	312.690	0.320	-0.770	-0.040
2020/01/31 08:24:59.9	312.700	0.310	-0.750	-0.070
2020/01/31 08:25:00.0	312.710	0.300	-0.740	-0.100
2020/01/31 08:25:00.1	312.720	0.290	-0.720	-0.120
2020/01/31 08:25:00.2	312.730	0.280	-0.700	-0.130
2020/01/31 08:25:00.3	312.740	0.270	-0.680	-0.150
2020/01/31 08:25:00.4	312.760	0.260	-0.650	-0.160
2020/01/31 08:25:00.5	312.770	0.250	-0.630	-0.170
2020/01/31 08:25:00.6	312.780	0.240	-0.610	-0.170
2020/01/31 08:25:00.7	312.790	0.220	-0.580	-0.170
2020/01/31 08:25:00.8	312.790	0.210	-0.560	-0.170
2020/01/31 08:25:00.9	312.800	0.200	-0.530	-0.170
2020/01/31 08:25:01.0	312.810	0.190	-0.510	-0.160
2020/01/31 08:25:01.1	312.810	0.190	-0.480	-0.150
2020/01/31 08:25:01.2	312.820	0.180	-0.460	-0.140
2020/01/31 08:25:01.3	312.820	0.170	-0.440	-0.120
2020/01/31 08:25:01.4	312.840	0.160	-0.410	-0.100
2020/01/31 08:25:01.5	312.840	0.160	-0.390	-0.080
2020/01/31 08:25:01.6	312.840	0.150	-0.370	-0.060
2020/01/31 08:25:01.7	312.840	0.150	-0.350	-0.040
2020/01/31 08:25:01.8	312.840	0.140	-0.330	-0.010
2020/01/31 08:25:01.9	312.840	0.140	-0.320	0.010
2020/01/31 08:25:02.0	312.840	0.140	-0.300	0.040
2020/01/31 08:25:02.1	312.840	0.140	-0.290	0.060
2020/01/31 08:25:02.2	312.840	0.140	-0.270	0.080
2020/01/31 08:25:02.3	312.840	0.140	-0.260	0.110
2020/01/31 08:25:02.4	312.830	0.140	-0.250	0.130
2020/01/31 08:25:02.5	312.830	0.140	-0.240	0.150
2020/01/31 08:25:02.6	312.840	0.140	-0.230	0.170
2020/01/31 08:25:02.7	312.840	0.140	-0.230	0.190
2020/01/31 08:25:02.8	312.840	0.140	-0.220	0.210
2020/01/31 08:25:02.9	312.850	0.140	-0.220	0.220
2020/01/31 08:25:03.0	312.850	0.130	-0.220	0.230
2020/01/31 08:25:03.1	312.860	0.130	-0.220	0.240
2020/01/31 08:25:03.2	312.870	0.130	-0.220	0.250
2020/01/31 08:25:03.3	312.870	0.130	-0.220	0.260
2020/01/31 08:25:03.4	312.860	0.120	-0.220	0.260
2020/01/31 08:25:03.5	312.870	0.120	-0.220	0.260
2020/01/31 08:25:03.6	312.880	0.110	-0.220	0.260
2020/01/31 08:25:03.7	312.890	0.100	-0.230	0.260
2020/01/31 08:25:03.8	312.900	0.090	-0.230	0.260
2020/01/31 08:25:03.9	312.910	0.080	-0.230	0.260
2020/01/31 08:25:04.0	312.910	0.070	-0.230	0.260
2020/01/31 08:25:04.1	312.920	0.050	-0.230	0.260
2020/01/31 08:25:04.2	312.920	0.030	-0.230	0.250
2020/01/31 08:25:04.3	312.930	0.010	-0.220	0.250
2020/01/31 08:25:04.4	312.920	-0.010	-0.210	0.250
2020/01/31 08:25:04.5	312.920	-0.030	-0.210	0.250
2020/01/31 08:25:04.6	312.920	-0.060	-0.200	0.250
2020/01/31 08:25:04.7	312.920	-0.080	-0.190	0.250
2020/01/31 08:25:04.8	312.920	-0.110	-0.170	0.240
2020/01/31 08:25:04.9	312.920	-0.140	-0.160	0.240
2020/01/31 08:25:05.0	312.920	-0.180	-0.140	0.240
2020/01/31 08:25:05.1	312.910	-0.210	-0.130	0.240
2020/01/31 08:25:05.2	312.910	-0.240	-0.100	0.240
2020/01/31 08:25:05.3	312.900	-0.280	-0.080	0.240
2020/01/31 08:25:05.4	312.890	-0.310	-0.060	0.230
2020/01/31 08:25:05.5	312.880	-0.340	-0.040	0.230
2020/01/31 08:25:05.6	312.870	-0.380	-0.010	0.230
2020/01/31 08:25:05.7	312.860	-0.410	0.010	0.220
2020/01/31 08:25:05.8	312.840	-0.450	0.040	0.220
2020/01/31 08:25:05.9	312.830	-0.480	0.070	0.220
2020/01/31 08:25:06.0	312.810	-0.510	0.100	0.220
2020/01/31 08:25:06.1	312.800	-0.540	0.120	0.210
2020/01/31 08:25:06.2	312.780	-0.560	0.150	0.210
2020/01/31 08:25:06.3	312.760	-0.590	0.170	0.210
2020/01/31 08:25:06.4	312.740	-0.610	0.200	0.200
2020/01/31 08:25:06.5	312.720	-0.630	0.220	0.200
2020/01/31 08:25:06.6	312.700	-0.650	0.240	0.190
2020/01/31 08:25:06.7	312.680	-0.660	0.260	0.180
2020/01/31 08:25:06.8	312.660	-0.670	0.270	0.170
2020/01/31 08:25:06.9	312.650	-0.680	0.280	0.160
2020/01/31 08:25:07.0	312.630	-0.680	0.290	0.150
2020/01/31 08:25:07.1	312.610	-0.680	0.300	0.140
2020/01/31 08:25:07.2	312.590	-0.670	0.300	0.120
2020/01/31 08:25:07.3	312.580	-0.670	0.290	0.100
2020/01/31 08:25:07.4	312.560	-0.660	0.280	0.090
2020/01/31 08:25:07.5	312.540	-0.640	0.270	0.070
2020/01/31 08:25:07.6	312.530	-0.620	0.260	0.050
2020/01/31 08:25:07.7	312.510	-0.600	0.240	0.030
2020/01/31 08:25:07.8	312.500	-0.580	0.220	0.010
2020/01/31 08:25:07.9	312.490	-0.550	0.200	-0.010
2020/01/31 08:25:08.0	312.480	-0.520	0.180	-0.030
2020/01/31 08:25:08.1	312.470	-0.490	0.150	-0.040
2020/01/31 08:25:08.2	312.460	-0.460	0.120	-0.060
2020/01/31 08:25:08.3	312.450	-0.420	0.090	-0.070
2020/01/31 08:25:08.4	312.450	-0.380	0.060	-0.090
2020/01/31 08:25:08.5	312.450	-0.350	0.020	-0.100
2020/01/31 08:25:08.6	312.440	-0.310	-0.010	-0.110
2020/01/31 08:25:08.7	312.430	-0.260	-0.050	-0.120
2020/01/31 08:25:08.8	312.430	-0.220	-0.090	-0.130
2020/01/31 08:25:08.9	312.430	-0.180	-0.130	-0.140
2020/01/31 08:25:09.0	312.430	-0.140	-0.160	-0.150
2020/01/31 08:25:09.1	312.430	-0.100	-0.200	-0.150
2020/01/31 08:25:09.2	312.430	-0.050	-0.240	-0.160
2020/01/31 08:25:09.3	312.430	-0.010	-0.280	-0.170
2020/01/31 08:25:09.4	312.440	0.030	-0.320	-0.160
2020/01/31 08:25:09.5	312.450	0.070	-0.360	-0.170
2020/01/31 08:25:09.6	312.450	0.110	-0.390	-0.170
2020/01/31 08:25:09.7	312.460	0.140	-0.430	-0.170
2020/01/31 08:25:09.8	312.470	0.180	-0.460	-0.170
2020/01/31 08:25:09.9	312.480	0.210	-0.490	-0.170
2020/01/31 08:25:10.0	312.490	0.250	-0.520	-0.170
2020/01/31 08:25:10.1	312.510	0.280	-0.550	-0.170
2020/01/31 08:25:10.2	312.520	0.310	-0.580	-0.160
2020/01/31 08:25:10.3	312.530	0.340	-0.600	-0.160
2020/01/31 08:25:10.4	312.550	0.360	-0.620	-0.150
2020/01/31 08:25:10.5	312.570	0.390	-0.640	-0.140
2020/01/31 08:25:10.6	312.580	0.410	-0.660	-0.130
2020/01/31 08:25:10.7	312.600	0.430	-0.670	-0.110
2020/01/31 08:25:10.8	312.620	0.450	-0.690	-0.090
2020/01/31 08:25:10.9	312.630	0.460	-0.700	-0.080
2020/01/31 08:25:11.0	312.650	0.480	-0.710	-0.060
2020/01/31 08:25:11.1	312.670	0.490	-0.710	-0.030
2020/01/31 08:25:11.2	312.690	0.500	-0.710	-0.010
2020/01/31 08:25:11.3	312.700	0.510	-0.710	0.020
2020/01/31 08:25:11.4	312.730	0.520	-0.710	0.050
2020/01/31 08:25:11.5	312.740	0.530	-0.700	0.080
2020/01/31 08:25:11.6	312.760	0.540	-0.700	0.110
2020/01/31 08:25:11.7	312.770	0.540	-0.690	0.140
2020/01/31 08:25:11.8	312.780	0.550	-0.670	0.180
2020/01/31 08:25:11.9	312.800	0.550	-0.660	0.220
2020/01/31 08:25:12.0	312.810	0.550	-0.640	0.260
2020/01/31 08:25:12.1	312.810	0.550	-0.620	0.300
2020/01/31 08:25:12.2	312.820	0.550	-0.590	0.340
2020/01/31 08:25:12.3	312.830	0.550	-0.570	0.390
2020/01/31 08:25:12.4	312.830	0.550	-0.540	0.430
2020/01/31 08:25:12.5	312.840	0.550	-0.510	0.480
2020/01/31 08:25:12.6	312.840	0.540	-0.480	0.520
2020/01/31 08:25:12.7	312.840	0.540	-0.450	0.570
2020/01/31 08:25:12.8	312.840	0.530	-0.420	0.620
2020/01/31 08:25:12.9	312.840	0.530	-0.390	0.660
2020/01/31 08:25:13.0	312.840	0.520	-0.370	0.700
2020/01/31 08:25:13.1	312.830	0.510	-0.340	0.740
2020/01/31 08:25:13.2	312.830	0.500	-0.310	0.780
2020/01/31 08:25:13.3	312.820	0.490	-0.290	0.820
2020/01/31 08:25:13.4	312.800	0.480	-0.270	0.860
2020/01/31 08:25:13.5	312.790	0.470	-0.250	0.890
2020/01/31 08:25:13.6	312.790	0.450	-0.230	0.910
2020/01/31 08:25:13.7	312.780	0.440	-0.210	0.940
2020/01/31 08:25:13.8	312.760	0.420	-0.200	0.960
2020/01/31 08:25:13.9	312.750	0.400	-0.190	0.970
2020/01/31 08:25:14.0	312.740	0.390	-0.180	0.980
2020/01/31 08:25:14.1	312.730	0.370	-0.180	0.990
2020/01/31 08:25:14.2	312.720	0.350	-0.180	0.990
2020/01/31 08:25:14.3	312.710	0.330	-0.180	0.980
2020/01/31 08:25:14.4	312.700	0.310	-0.180	0.970
2020/01/31 08:25:14.5	312.690	0.280	-0.180	0.960
2020/01/31 08:25:14.6	312.680	0.260	-0.190	0.940
2020/01/31 08:25:14.7	312.670	0.240	-0.200	0.910
2020/01/31 08:25:14.8	312.660	0.210	-0.200	0.880
2020/01/31 08:25:14.9	312.660	0.190	-0.210	0.850
2020/01/31 08:25:15.0	312.650	0.160	-0.230	0.810
2020/01/31 08:25:15.1	312.650	0.140	-0.240	0.770
2020/01/31 08:25:15.2	312.650	0.110	-0.250	0.730
2020/01/31 08:25:15.3	312.650	0.080	-0.260	0.680
2020/01/31 08:25:15.4	312.660	0.050	-0.270	0.630
2020/01/31 08:25:15.5	312.670	0.020	-0.280	0.580
2020/01/31 08:25:15.6	312.670	-0.010	-0.290	0.520
2020/01/31 08:25:15.7	312.680	-0.040	-0.300	0.460
2020/01/31 08:25:15.8	312.680	-0.070	-0.310	0.410
2020/01/31 08:25:15.9	312.690	-0.100	-0.310	0.350
2020/01/31 08:25:16.0	312.700	-0.130	-0.320	0.290
2020/01/31 08:25:16.1	312.710	-0.160	-0.320	0.230
2020/01/31 08:25:16.2	312.730	-0.190	-0.310	0.170
2020/01/31 08:25:16.3	312.740	-0.230	-0.310	0.110
2020/01/31 08:25:16.4	312.770	-0.260	-0.310	0.050
2020/01/31 08:25:16.5	312.790	-0.290	-0.300	-0.010
2020/01/31 08:25:16.6	312.810	-0.320	-0.290	-0.060
2020/01/31 08:25:16.7	312.830	-0.350	-0.280	-0.120
2020/01/31 08:25:16.8	312.840	-0.380	-0.260	-0.170
2020/01/31 08:25:16.9	312.860	-0.410	-0.240	-0.220
2020/01/31 08:25:17.0	312.880	-0.440	-0.220	-0.270
2020/01/31 08:25:17.1	312.890	-0.470	-0.200	-0.320
2020/01/31 08:25:17.2	312.910	-0.500	-0.170	-0.360
2020/01/31 08:25:17.3	312.920	-0.520	-0.150	-0.400
2020/01/31 08:25:17.4	312.940	-0.540	-0.120	-0.430
2020/01/31 08:25:17.5	312.950	-0.560	-0.090	-0.470
2020/01/31 08:25:17.6	312.960	-0.580	-0.060	-0.490
2020/01/31 08:25:17.7	312.970	-0.600	-0.030	-0.520
2020/01/31 08:25:17.8	312.970	-0.620	0.000	-0.540
2020/01/31 08:25:17.9	312.980	-0.630	0.030	-0.550
2020/01/31 08:25:18.0	312.980	-0.640	0.060	-0.570
2020/01/31 08:25:18.1	312.990	-0.650	0.090	-0.570
2020/01/31 08:25:18.2	312.990	-0.650	0.120	-0.580
2020/01/31 08:25:18.3	312.990	-0.650	0.140	-0.580
2020/01/31 08:25:18.4	312.980	-0.650	0.170	-0.570
2020/01/31 08:25:18.5	312.980	-0.650	0.180	-0.570
2020/01/31 08:25:18.6	312.980	-0.640	0.200	-0.550
2020/01/31 08:25:18.7	312.970	-0.630	0.210	-0.540
2020/01/31 08:25:18.8	312.970	-0.620	0.220	-0.520
2020/01/31 08:25:18.9	312.960	-0.610	0.230	-0.490
2020/01/31 08:25:19.0	312.960	-0.590	0.230	-0.470
2020/01/31 08:25:19.1	312.950	-0.570	0.220	-0.440
2020/01/31 08:25:19.2	312.940	-0.550	0.220	-0.410
2020/01/31 08:25:19.3	312.940	-0.520	0.200	-0.380
2020/01/31 08:25:19.4	312.940	-0.490	0.180	-0.350
2020/01/31 08:25:19.5	312.940	-0.460	0.160	-0.320
2020/01/31 08:25:19.6	312.930	-0.430	0.140	-0.280
2020/01/31 08:25:19.7	312.930	-0.400	0.110	-0.250
2020/01/31 08:25:19.8	312.920	-0.370	0.080	-0.210
2020/01/31 08:25:19.9	312.920	-0.330	0.040	-0.180
2020/01/31 08:25:20.0	312.920	-0.290	0.000	-0.150
2020/01/31 08:25:20.1	312.910	-0.250	-0.030	-0.110
2020/01/31 08:25:20.2	312.910	-0.220	-0.080	-0.080
2020/01/31 08:25:20.3	312.910	-0.180	-0.120	-0.040
2020/01/31 08:25:20.4	312.930	-0.140	-0.160	-0.000
2020/01/31 08:25:20.5	312.930	-0.100	-0.200	0.030
2020/01/31 08:25:20.6	312.920	-0.060	-0.240	0.070
2020/01/31 08:25:20.7	312.920	-0.020	-0.280	0.100
2020/01/31 08:25:20.8	312.920	0.010	-0.320	0.140
2020/01/31 08:25:20.9	312.910	0.050	-0.360	0.180
2020/01/31 08:25:21.0	312.910	0.080	-0.390	0.210
2020/01/31 08:25:21.1	312.910	0.120	-0.420	0.250
2020/01/31 08:25:21.2	312.900	0.150	-0.450	0.280
2020/01/31 08:25:21.3	312.900	0.180	-0.470	0.320
2020/01/31 08:25:21.4	312.880	0.210	-0.490	0.350
2020/01/31 08:25:21.5	312.880	0.240	-0.510	0.380
2020/01/31 08:25:21.6	312.870	0.260	-0.530	0.420
2020/01/31 08:25:21.7	312.870	0.280	-0.540	0.440
2020/01/31 08:25:21.8	312.860	0.300	-0.550	0.470
2020/01/31 08:25:21.9	312.860	0.320	-0.560	0.500
2020/01/31 08:25:22.0	312.850	0.340	-0.560	0.520
2020/01/31 08:25:22.1	312.850	0.350	-0.570	0.540
2020/01/31 08:25:22.2	312.840	0.370	-0.560	0.560
2020/01/31 08:25:22.3	312.840	0.380	-0.560	0.580
2020/01/31 08:25:22.4	312.810	0.380	-0.550	0.590
2020/01/31 08:25:22.5	312.810	0.390	-0.550	0.600
2020/01/31 08:25:22.6	312.810	0.390	-0.540	0.610
2020/01/31 08:25:22.7	312.800	0.400	-0.520	0.610
2020/01/31 08:25:22.8	312.800	0.400	-0.510	0.620
2020/01/31 08:25:22.9	312.800	0.400	-0.490	0.610
2020/01/31 08:25:23.0	312.800	0.390	-0.480	0.610
2020/01/31 08:25:23.1	312.800	0.390	-0.460	0.600
2020/01/31 08:25:23.2	312.800	0.380	-0.440	0.590
2020/01/31 08:25:23.3	312.800	0.380	-0.420	0.580
2020/01/31 08:25:23.4	312.790	0.370	-0.400	0.560
2020/01/31 08:25:23.5	312.790	0.360	-0.380	0.550
2020/01/31 08:25:23.6	312.790	0.350	-0.360	0.530
2020/01/31 08:25:23.7	312.800	0.340	-0.340	0.520
2020/01/31 08:25:23.8	312.800	0.330	-0.320	0.500
2020/01/31 08:25:23.9	312.800	0.310	-0.290	0.480
2020/01/31 08:25:24.0	312.800	0.300	-0.270	0.470
2020/01/31 08:25:24.1	312.810	0.290	-0.250	0.450
2020/01/31 08:25:24.2	312.810	0.270	-0.230	0.430
2020/01/31 08:25:24.3	312.810	0.260	-0.210	0.420
2020/01/31 08:25:24.4	312.800	0.240	-0.190	0.410
2020/01/31 08:25:24.5	312.800	0.220	-0.170	0.390
2020/01/31 08:25:24.6	312.810	0.210	-0.160	0.380
2020/01/31 08:25:24.7	312.810	0.190	-0.140	0.370
2020/01/31 08:25:24.8	312.820	0.170	-0.120	0.360
2020/01/31 08:25:24.9	312.820	0.160	-0.110	0.350
2020/01/31 08:25:25.0	312.830	0.140	-0.100	0.340
2020/01/31 08:25:25.1	312.830	0.120	-0.090	0.330
2020/01/31 08:25:25.2	312.840	0.110	-0.080	0.320
2020/01/31 08:25:25.3	312.840	0.090	-0.070	0.310
2020/01/31 08:25:25.4	312.840	0.070	-0.070	0.310
2020/01/31 08:25:25.5	312.850	0.060	-0.070	0.300
2020/01/31 08:25:25.6	312.850	0.040	-0.070	0.290
2020/01/31 08:25:25.7	312.860	0.030	-0.080	0.280
2020/01/31 08:25:25.8	312.870	0.020	-0.080	0.270
2020/01/31 08:25:25.9	312.870	0.000	-0.090	0.260
2020/01/31 08:25:26.0	312.870	-0.010	-0.100	0.250
2020/01/31 08:25:26.1	312.880	-0.020	-0.110	0.240
2020/01/31 08:25:26.2	312.880	-0.030	-0.130	0.230
2020/01/31 08:25:26.3	312.880	-0.040	-0.140	0.220
2020/01/31 08:25:26.4	312.890	-0.050	-0.160	0.210
2020/01/31 08:25:26.5	312.890	-0.060	-0.180	0.190
2020/01/31 08:25:26.6	312.890	-0.060	-0.200	0.180
2020/01/31 08:25:26.7	312.890	-0.070	-0.220	0.160
2020/01/31 08:25:26.8	312.890	-0.070	-0.230	0.150
2020/01/31 08:25:26.9	312.890	-0.080	-0.250	0.140
2020/01/31 08:25:27.0	312.890	-0.080	-0.270	0.120
2020/01/31 08:25:27.1	312.890	-0.090	-0.290	0.110
2020/01/31 08:25:27.2	312.880	-0.090	-0.310	0.090
2020/01/31 08:25:27.3	312.880	-0.090	-0.330	0.080
2020/01/31 08:25:27.4	312.880	-0.090	-0.340	0.070
2020/01/31 08:25:27.5	312.880	-0.090	-0.360	0.050
2020/01/31 08:25:27.6	312.870	-0.090	-0.370	0.040
2020/01/31 08:25:27.7	312.870	-0.090	-0.390	0.030
2020/01/31 08:25:27.8	312.870	-0.090	-0.400	0.020
2020/01/31 08:25:27.9	312.870	-0.090	-0.410	0.010
2020/01/31 08:25:28.0	312.860	-0.090	-0.420	-0.000
2020/01/31 08:25:28.1	312.860	-0.090	-0.420	-0.010
2020/01/31 08:25:28.2	312.860	-0.080	-0.430	-0.020
2020/01/31 08:25:28.3	312.860	-0.080	-0.430	-0.030
2020/01/31 08:25:28.4	312.860	-0.080	-0.440	-0.040
2020/01/31 08:25:28.5	312.870	-0.070	-0.440	-0.050
2020/01/31 08:25:28.6	312.870	-0.070	-0.440	-0.060
2020/01/31 08:25:28.7	312.870	-0.060	-0.440	-0.070
2020/01/31 08:25:28.8	312.880	-0.060	-0.440	-0.070
2020/01/31 08:25:28.9	312.890	-0.050	-0.440	-0.080
2020/01/31 08:25:29.0	312.900	-0.040	-0.430	-0.090
2020/01/31 08:25:29.1	312.910	-0.040	-0.430	-0.100
2020/01/31 08:25:29.2	312.920	-0.030	-0.420	-0.110
2020/01/31 08:25:29.3	312.940	-0.020	-0.420	-0.120
2020/01/31 08:25:29.4	312.950	-0.020	-0.410	-0.130
2020/01/31 08:25:29.5	312.970	-0.010	-0.410	-0.140
2020/01/31 08:25:29.6	312.990	-0.000	-0.400	-0.150
2020/01/31 08:25:29.7	313.010	0.010	-0.390	-0.160
2020/01/31 08:25:29.8	313.030	0.010	-0.380	-0.170
2020/01/31 08:25:29.9	313.050	0.020	-0.380	-0.180
2020/01/31 08:25:30.0	313.070	0.030	-0.370	-0.190
2020/01/31 08:25:30.1	313.090	0.040	-0.360	-0.200
2020/01/31 08:25:30.2	313.120	0.050	-0.350	-0.210
2020/01/31 08:25:30.3	313.140	0.050	-0.340	-0.220
2020/01/31 08:25:30.4	313.170	0.060	-0.330	-0.220
2020/01/31 08:25:30.5	313.190	0.070	-0.320	-0.220
2020/01/31 08:25:30.6	313.210	0.070	-0.300	-0.220
2020/01/31 08:25:30.7	313.220	0.080	-0.290	-0.220
2020/01/31 08:25:30.8	313.240	0.080	-0.270	-0.220
2020/01/31 08:25:30.9	313.250	0.090	-0.260	-0.210
2020/01/31 08:25:31.0	313.260	0.090	-0.240	-0.200
2020/01/31 08:25:31.1	313.270	0.090	-0.220	-0.190
2020/01/31 08:25:31.2	313.280	0.090	-0.200	-0.180
2020/01/31 08:25:31.3	313.290	0.100	-0.180	-0.160
2020/01/31 08:25:31.4	313.300	0.100	-0.160	-0.140
2020/01/31 08:25:31.5	313.300	0.100	-0.140	-0.120
2020/01/31 08:25:31.6	313.300	0.090	-0.120	-0.090
2020/01/31 08:25:31.7	313.290	0.090	-0.100	-0.070
2020/01/31 08:25:31.8	313.290	0.090	-0.080	-0.040
2020/01/31 08:25:31.9	313.280	0.090	-0.050	-0.010
2020/01/31 08:25:32.0	313.270	0.080	-0.030	0.030
2020/01/31 08:25:32.1	313.260	0.080	-0.010	0.060
2020/01/31 08:25:32.2	313.240	0.070	0.010	0.100
2020/01/31 08:25:32.3	313.230	0.070	0.030	0.140
2020/01/31 08:25:32.4	313.210	0.060	0.040	0.170
2020/01/31 08:25:32.5	313.180	0.050	0.060	0.210
2020/01/31 08:25:32.6	313.160	0.040	0.070	0.260
2020/01/31 08:25:32.7	313.140	0.040	0.090	0.300
2020/01/31 08:25:32.8	313.110	0.030	0.100	0.340
2020/01/31 08:25:32.9	313.080	0.020	0.110	0.380
2020/01/31 08:25:33.0	313.050	0.010	0.120	0.420
2020/01/31 08:25:33.1	313.020	0.000	0.120	0.460
2020/01/31 08:25:33.2	312.980	-0.010	0.130	0.500
2020/01/31 08:25:33.3	312.950	-0.020	0.130	0.530
2020/01/31 08:25:33.4	312.920	-0.020	0.130	0.570
2020/01/31 08:25:33.5	312.880	-0.030	0.130	0.600
2020/01/31 08:25:33.6	312.850	-0.040	0.130	0.640
2020/01/31 08:25:33.7	312.810	-0.050	0.120	0.670
2020/01/31 08:25:33.8	312.780	-0.050	0.110	0.700
2020/01/31 08:25:33.9	312.740	-0.060	0.100	0.720
2020/01/31 08:25:34.0	312.710	-0.060	0.090	0.750
2020/01/31 08:25:34.1	312.680	-0.070	0.070	0.770
2020/01/31 08:25:34.2	312.640	-0.070	0.060	0.790
2020/01/31 08:25:34.3	312.610	-0.070	0.040	0.800
2020/01/31 08:25:34.4	312.580	-0.070	0.020	0.820
2020/01/31 08:25:34.5	312.550	-0.080	-0.000	0.830
2020/01/31 08:25:34.6	312.530	-0.080	-0.030	0.830
2020/01/31 08:25:34.7	312.500	-0.080	-0.050	0.840
2020/01/31 08:25:34.8	312.480	-0.080	-0.080	0.840
2020/01/31 08:25:34.9	312.450	-0.070	-0.100	0.840
2020/01/31 08:25:35.0	312.430	-0.070	-0.130	0.830
2020/01/31 08:25:35.1	312.420	-0.070	-0.160	0.820
2020/01/31 08:25:35.2	312.400	-0.070	-0.190	0.810
2020/01/31 08:25:35.3	312.390	-0.060	-0.220	0.790
2020/01/31 08:25:35.4	312.380	-0.060	-0.250	0.770
2020/01/31 08:25:35.5	312.370	-0.060	-0.280	0.750
2020/01/31 08:25:35.6	312.370	-0.050	-0.310	0.730
2020/01/31 08:25:35.7	312.370	-0.050	-0.340	0.700
2020/01/31 08:25:35.8	312.370	-0.040	-0.380	0.670
2020/01/31 08:25:35.9	312.370	-0.040	-0.410	0.640
2020/01/31 08:25:36.0	312.380	-0.040	-0.440	0.610
2020/01/31 08:25:36.1	312.380	-0.030	-0.460	0.580
2020/01/31 08:25:36.2	312.400	-0.030	-0.490	0.540
2020/01/31 08:25:36.3	312.410	-0.030	-0.520	0.500
2020/01/31 08:25:36.4	312.430	-0.030	-0.540	0.460
2020/01/31 08:25:36.5	312.440	-0.020	-0.570	0.420
2020/01/31 08:25:36.6	312.460	-0.020	-0.590	0.380
2020/01/31 08:25:36.7	312.480	-0.020	-0.610	0.340
2020/01/31 08:25:36.8	312.500	-0.020	-0.620	0.290
2020/01/31 08:25:36.9	312.520	-0.030	-0.640	0.250
2020/01/31 08:25:37.0	312.540	-0.030	-0.650	0.210
2020/01/31 08:25:37.1	312.560	-0.030	-0.660	0.160
2020/01/31 08:25:37.2	312.590	-0.030	-0.660	0.120
2020/01/31 08:25:37.3	312.610	-0.040	-0.670	0.070
2020/01/31 08:25:37.4	312.640	-0.040	-0.670	0.030
2020/01/31 08:25:37.5	312.670	-0.050	-0.660	-0.010
2020/01/31 08:25:37.6	312.700	-0.050	-0.660	-0.050
2020/01/31 08:25:37.7	312.720	-0.060	-0.650	-0.090
2020/01/31 08:25:37.8	312.750	-0.060	-0.640	-0.120
2020/01/31 08:25:37.9	312.780	-0.070	-0.620	-0.160
2020/01/31 08:25:38.0	312.810	-0.070	-0.600	-0.190
2020/01/31 08:25:38.1	312.830	-0.080	-0.580	-0.220
2020/01/31 08:25:38.2	312.860	-0.090	-0.560	-0.240
2020/01/31 08:25:38.3	312.890	-0.090	-0.540	-0.260
2020/01/31 08:25:38.4	312.910	-0.100	-0.510	-0.280
2020/01/31 08:25:38.5	312.930	-0.100	-0.480	-0.290
2020/01/31 08:25:38.6	312.960	-0.110	-0.450	-0.300
2020/01/31 08:25:38.7	312.980	-0.110	-0.420	-0.310
2020/01/31 08:25:38.8	313.000	-0.120	-0.390	-0.310
2020/01/31 08:25:38.9	313.020	-0.120	-0.360	-0.310
2020/01/31 08:25:39.0	313.040	-0.120	-0.330	-0.310
2020/01/31 08:25:39.1	313.060	-0.130	-0.310	-0.310
2020/01/31 08:25:39.2	313.080	-0.130	-0.280	-0.300
2020/01/31 08:25:39.3	313.100	-0.130	-0.250	-0.290
2020/01/31 08:25:39.4	313.120	-0.130	-0.220	-0.270
2020/01/31 08:25:39.5	313.140	-0.130	-0.200	-0.260
2020/01/31 08:25:39.6	313.150	-0.130	-0.180	-0.240
2020/01/31 08:25:39.7	313.170	-0.120	-0.160	-0.230
2020/01/31 08:25:39.8	313.180	-0.120	-0.140	-0.210
2020/01/31 08:25:39.9	313.200	-0.120	-0.120	-0.200
2020/01/31 08:25:40.0	313.210	-0.110	-0.110	-0.180
2020/01/31 08:25:40.1	313.220	-0.100	-0.100	-0.160
2020/01/31 08:25:40.2	313.230	-0.090	-0.090	-0.140
2020/01/31 08:25:40.3	313.240	-0.080	-0.080	-0.120
2020/01/31 08:25:40.4	313.260	-0.070	-0.070	-0.110
2020/01/31 08:25:40.5	313.260	-0.060	-0.070	-0.090
2020/01/31 08:25:40.6	313.270	-0.040	-0.070	-0.070
2020/01/31 08:25:40.7	313.270	-0.030	-0.070	-0.050
2020/01/31 08:25:40.8	313.280	-0.010	-0.070	-0.020
2020/01/31 08:25:40.9	313.280	0.000	-0.070	-0.000
2020/01/31 08:25:41.0	313.280	0.020	-0.080	0.020
2020/01/31 08:25:41.1	313.270	0.040	-0.080	0.050
2020/01/31 08:25:41.2	313.270	0.060	-0.090	0.080
2020/01/31 08:25:41.3	313.260	0.080	-0.100	0.110
2020/01/31 08:25:41.4	313.260	0.100	-0.100	0.140
2020/01/31 08:25:41.5	313.250	0.120	-0.110	0.170
2020/01/31 08:25:41.6	313.240	0.140	-0.120	0.200
2020/01/31 08:25:41.7	313.220	0.160	-0.130	0.240
2020/01/31 08:25:41.8	313.200	0.180	-0.140	0.270
2020/01/31 08:25:41.9	313.180	0.200	-0.150	0.310
2020/01/31 08:25:42.0	313.160	0.220	-0.150	0.350
2020/01/31 08:25:42.1	313.130	0.230	-0.160	0.390
2020/01/31 08:25:42.2	313.100	0.250	-0.160	0.420
2020/01/31 08:25:42.3	313.070	0.270	-0.170	0.460
2020/01/31 08:25:42.4	313.030	0.280	-0.170	0.500
2020/01/31 08:25:42.5	313.000	0.290	-0.170	0.540
2020/01/31 08:25:42.6	312.960	0.300	-0.170	0.580
2020/01/31 08:25:42.7	312.920	0.310	-0.170	0.620
2020/01/31 08:25:42.8	312.890	0.320	-0.170	0.660
2020/01/31 08:25:42.9	312.850	0.330	-0.160	0.690
2020/01/31 08:25:43.0	312.800	0.330	-0.160	0.730
2020/01/31 08:25:43.1	312.760	0.330	-0.150	0.760
2020/01/31 08:25:43.2	312.720	0.330	-0.150	0.790
2020/01/31 08:25:43.3	312.680	0.330	-0.140	0.810
2020/01/31 08:25:43.4	312.620	0.330	-0.130	0.830
2020/01/31 08:25:43.5	312.580	0.320	-0.120	0.850
2020/01/31 08:25:43.6	312.540	0.320	-0.110	0.870
2020/01/31 08:25:43.7	312.500	0.310	-0.110	0.880
2020/01/31 08:25:43.8	312.460	0.300	-0.110	0.880
2020/01/31 08:25:43.9	312.430	0.280	-0.100	0.880
2020/01/31 08:25:44.0	312.390	0.270	-0.100	0.880
2020/01/31 08:25:44.1	312.360	0.260	-0.100	0.870
2020/01/31 08:25:44.2	312.330	0.240	-0.100	0.850
2020/01/31 08:25:44.3	312.300	0.230	-0.100	0.830
2020/01/31 08:25:44.4	312.280	0.210	-0.110	0.810
2020/01/31 08:25:44.5	312.260	0.190	-0.120	0.780
2020/01/31 08:25:44.6	312.240	0.170	-0.130	0.750
2020/01/31 08:25:44.7	312.220	0.160	-0.140	0.720
2020/01/31 08:25:44.8	312.200	0.140	-0.150	0.680
2020/01/31 08:25:44.9	312.190	0.120	-0.160	0.640
2020/01/31 08:25:45.0	312.180	0.100	-0.170	0.600
2020/01/31 08:25:45.1	312.170	0.080	-0.190	0.560
2020/01/31 08:25:45.2	312.160	0.060	-0.210	0.520
2020/01/31 08:25:45.3	312.150	0.050	-0.220	0.470
2020/01/31 08:25:45.4	312.160	0.030	-0.240	0.430
2020/01/31 08:25:45.5	312.160	0.010	-0.250	0.380
2020/01/31 08:25:45.6	312.160	-0.010	-0.270	0.330
2020/01/31 08:25:45.7	312.160	-0.020	-0.290	0.290
2020/01/31 08:25:45.8	312.160	-0.040	-0.300	0.240
2020/01/31 08:25:45.9	312.170	-0.060	-0.320	0.190
2020/01/31 08:25:46.0	312.170	-0.070	-0.340	0.150
2020/01/31 08:25:46.1	312.180	-0.090	-0.350	0.100
2020/01/31 08:25:46.2	312.190	-0.100	-0.360	0.060
2020/01/31 08:25:46.3	312.210	-0.120	-0.380	0.020
2020/01/31 08:25:46.4	312.230	-0.130	-0.390	-0.030
2020/01/31 08:25:46.5	312.240	-0.140	-0.400	-0.070
2020/01/31 08:25:46.6	312.260	-0.160	-0.410	-0.110
2020/01/31 08:25:46.7	312.280	-0.170	-0.410	-0.150
2020/01/31 08:25:46.8	312.300	-0.180	-0.420	-0.180
2020/01/31 08:25:46.9	312.320	-0.200	-0.420	-0.220
2020/01/31 08:25:47.0	312.350	-0.210	-0.430	-0.250
2020/01/31 08:25:47.1	312.370	-0.220	-0.430	-0.280
2020/01/31 08:25:47.2	312.400	-0.230	-0.430	-0.310
2020/01/31 08:25:47.3	312.430	-0.240	-0.430	-0.340
2020/01/31 08:25:47.4	312.440	-0.250	-0.430	-0.360
2020/01/31 08:25:47.5	312.460	-0.260	-0.430	-0.380
2020/01/31 08:25:47.6	312.490	-0.270	-0.420	-0.400
2020/01/31 08:25:47.7	312.520	-0.280	-0.410	-0.420
2020/01/31 08:25:47.8	312.550	-0.290	-0.400	-0.430
2020/01/31 08:25:47.9	312.570	-0.300	-0.400	-0.440
2020/01/31 08:25:48.0	312.600	-0.310	-0.380	-0.450
2020/01/31 08:25:48.1	312.620	-0.310	-0.370	-0.450
2020/01/31 08:25:48.2	312.650	-0.320	-0.360	-0.450
2020/01/31 08:25:48.3	312.670	-0.320	-0.350	-0.450
2020/01/31 08:25:48.4	312.690	-0.330	-0.330	-0.440
2020/01/31 08:25:48.5	312.710	-0.330	-0.320	-0.430
2020/01/31 08:25:48.6	312.720	-0.330	-0.300	-0.420
2020/01/31 08:25:48.7	312.740	-0.330	-0.290	-0.400
2020/01/31 08:25:48.8	312.760	-0.330	-0.270	-0.380
2020/01/31 08:25:48.9	312.770	-0.330	-0.260	-0.360
2020/01/31 08:25:49.0	312.790	-0.330	-0.250	-0.340
2020/01/31 08:25:49.1	312.800	-0.320	-0.240	-0.310
2020/01/31 08:25:49.2	312.810	-0.310	-0.230	-0.280
2020/01/31 08:25:49.3	312.820	-0.310	-0.220	-0.260
2020/01/31 08:25:49.4	312.850	-0.300	-0.210	-0.230
2020/01/31 08:25:49.5	312.860	-0.280	-0.200	-0.200
2020/01/31 08:25:49.6	312.870	-0.270	-0.200	-0.170
2020/01/31 08:25:49.7	312.880	-0.260	-0.200	-0.140
2020/01/31 08:25:49.8	312.900	-0.240	-0.200	-0.110
2020/01/31 08:25:49.9	312.910	-0.220	-0.200	-0.080
2020/01/31 08:25:50.0	312.930	-0.200	-0.200	-0.050
2020/01/31 08:25:50.1	312.940	-0.180	-0.210	-0.020
2020/01/31 08:25:50.2	312.960	-0.160	-0.210	0.010
2020/01/31 08:25:50.3	312.970	-0.130	-0.220	0.040
2020/01/31 08:25:50.4	312.990	-0.110	-0.230	0.070
2020/01/31 08:25:50.5	313.000	-0.090	-0.240	0.100
2020/01/31 08:25:50.6	313.020	-0.060	-0.240	0.130
2020/01/31 08:25:50.7	313.030	-0.040	-0.250	0.160
2020/01/31 08:25:50.8	313.040	-0.010	-0.260	0.180
2020/01/31 08:25:50.9	313.050	0.020	-0.270	0.210
2020/01/31 08:25:51.0	313.060	0.040	-0.280	0.240
2020/01/31 08:25:51.1	313.070	0.070	-0.280	0.270
2020/01/31 08:25:51.2	313.070	0.090	-0.290	0.300
2020/01/31 08:25:51.3	313.080	0.110	-0.290	0.330
2020/01/31 08:25:51.4	313.080	0.130	-0.290	0.360
2020/01/31 08:25:51.5	313.080	0.160	-0.290	0.380
2020/01/31 08:25:51.6	313.080	0.170	-0.290	0.410
2020/01/31 08:25:51.7	313.080	0.190	-0.290	0.440
2020/01/31 08:25:51.8	313.070	0.210	-0.280	0.460
2020/01/31 08:25:51.9	313.070	0.220	-0.270	0.490
2020/01/31 08:25:52.0	313.060	0.240	-0.260	0.520
2020/01/31 08:25:52.1	313.050	0.250	-0.250	0.540
2020/01/31 08:25:52.2	313.030	0.260	-0.240	0.570
2020/01/31 08:25:52.3	313.020	0.260	-0.220	0.590
2020/01/31 08:25:52.4	312.990	0.270	-0.200	0.620
2020/01/31 08:25:52.5	312.980	0.270	-0.180	0.640
2020/01/31 08:25:52.6	312.960	0.270	-0.160	0.670
2020/01/31 08:25:52.7	312.940	0.270	-0.130	0.690
2020/01/31 08:25:52.8	312.920	0.270	-0.110	0.710
2020/01/31 08:25:52.9	312.900	0.270	-0.080	0.740
2020/01/31 08:25:53.0	312.870	0.260	-0.050	0.760
2020/01/31 08:25:53.1	312.850	0.250	-0.030	0.780
2020/01/31 08:25:53.2	312.820	0.240	0.000	0.800
2020/01/31 08:25:53.3	312.790	0.230	0.030	0.820
2020/01/31 08:25:53.4	312.760	0.220	0.050	0.840
2020/01/31 08:25:53.5	312.730	0.210	0.080	0.850
2020/01/31 08:25:53.6	312.690	0.200	0.100	0.870
2020/01/31 08:25:53.7	312.660	0.180	0.120	0.880
2020/01/31 08:25:53.8	312.630	0.170	0.140	0.890
2020/01/31 08:25:53.9	312.590	0.150	0.150	0.900
2020/01/31 08:25:54.0	312.560	0.140	0.160	0.900
2020/01/31 08:25:54.1	312.520	0.120	0.170	0.900
2020/01/31 08:25:54.2	312.490	0.110	0.180	0.900
2020/01/31 08:25:54.3	312.450	0.090	0.180	0.900
2020/01/31 08:25:54.4	312.430	0.070	0.180	0.890
2020/01/31 08:25:54.5	312.390	0.060	0.170	0.880
2020/01/31 08:25:54.6	312.360	0.050	0.170	0.870
2020/01/31 08:25:54.7	312.320	0.030	0.150	0.850
2020/01/31 08:25:54.8	312.280	0.020	0.140	0.830
2020/01/31 08:25:54.9	312.250	0.010	0.120	0.800
2020/01/31 08:25:55.0	312.220	-0.000	0.100	0.780
2020/01/31 08:25:55.1	312.190	-0.010	0.080	0.750
2020/01/31 08:25:55.2	312.160	-0.020	0.050	0.720
2020/01/31 08:25:55.3	312.130	-0.030	0.020	0.680
2020/01/31 08:25:55.4	312.100	-0.040	-0.020	0.640
2020/01/31 08:25:55.5	312.080	-0.040	-0.050	0.610
2020/01/31 08:25:55.6	312.060	-0.040	-0.090	0.570
2020/01/31 08:25:55.7	312.040	-0.040	-0.130	0.530
2020/01/31 08:25:55.8	312.020	-0.040	-0.170	0.490
2020/01/31 08:25:55.9	312.010	-0.040	-0.210	0.450
2020/01/31 08:25:56.0	312.000	-0.040	-0.260	0.410
2020/01/31 08:25:56.1	311.990	-0.030	-0.300	0.360
2020/01/31 08:25:56.2	311.980	-0.030	-0.350	0.320
2020/01/31 08:25:56.3	311.980	-0.020	-0.390	0.270
2020/01/31 08:25:56.4	311.980	-0.010	-0.440	0.220
2020/01/31 08:25:56.5	311.990	-0.000	-0.490	0.170
2020/01/31 08:25:56.6	311.990	0.010	-0.530	0.130
2020/01/31 08:25:56.7	312.000	0.020	-0.580	0.070
2020/01/31 08:25:56.8	312.010	0.030	-0.630	0.020
2020/01/31 08:25:56.9	312.020	0.040	-0.670	-0.030
2020/01/31 08:25:57.0	312.040	0.050	-0.720	-0.080
2020/01/31 08:25:57.1	312.060	0.060	-0.760	-0.130
2020/01/31 08:25:57.2	312.080	0.070	-0.800	-0.190
2020/01/31 08:25:57.3	312.100	0.080	-0.840	-0.240
2020/01/31 08:25:57.4	312.110	0.090	-0.880	-0.290
2020/01/31 08:25:57.5	312.130	0.100	-0.910	-0.340
2020/01/31 08:25:57.6	312.160	0.110	-0.930	-0.390
2020/01/31 08:25:57.7	312.190	0.110	-0.960	-0.440
2020/01/31 08:25:57.8	312.220	0.120	-0.980	-0.480
2020/01/31 08:25:57.9	312.260	0.120	-0.990	-0.530
2020/01/31 08:25:58.0	312.290	0.120	-1.000	-0.570
2020/01/31 08:25:58.1	312.330	0.120	-1.010	-0.610
2020/01/31 08:25:58.2	312.360	0.120	-1.010	-0.650
2020/01/31 08:25:58.3	312.400	0.120	-1.000	-0.680
2020/01/31 08:25:58.4	312.430	0.110	-0.990	-0.710
2020/01/31 08:25:58.5	312.470	0.110	-0.970	-0.740
2020/01/31 08:25:58.6	312.510	0.100	-0.950	-0.770
2020/01/31 08:25:58.7	312.540	0.090	-0.920	-0.790
2020/01/31 08:25:58.8	312.580	0.070	-0.880	-0.800
2020/01/31 08:25:58.9	312.610	0.060	-0.840	-0.820
2020/01/31 08:25:59.0	312.650	0.040	-0.790	-0.820
2020/01/31 08:25:59.1	312.680	0.020	-0.740	-0.830
2020/01/31 08:25:59.2	312.710	-0.000	-0.690	-0.830
2020/01/31 08:25:59.3	312.740	-0.030	-0.630	-0.820
2020/01/31 08:25:59.4	312.780	-0.050	-0.560	-0.800
2020/01/31 08:25:59.5	312.800	-0.080	-0.500	-0.790
2020/01/31 08:25:59.6	312.820	-0.100	-0.430	-0.770
2020/01/31 08:25:59.7	312.840	-0.130	-0.360	-0.740
2020/01/31 08:25:59.8	312.860	-0.160	-0.280	-0.710
2020/01/31 08:25:59.9	312.870	-0.190	-0.210	-0.680
2020/01/31 08:26:00.0	312.880	-0.220	-0.140	-0.650
2020/01/31 08:26:00.1	312.880	-0.250	-0.070	-0.610
2020/01/31 08:26:00.2	312.890	-0.280	0.000	-0.560
2020/01/31 08:26:00.3	312.890	-0.310	0.080	-0.520
2020/01/31 08:26:00.4	312.900	-0.330	0.140	-0.470
2020/01/31 08:26:00.5	312.900	-0.360	0.210	-0.420
2020/01/31 08:26:00.6	312.890	-0.380	0.270	-0.370
2020/01/31 08:26:00.7	312.880	-0.410	0.330	-0.310
2020/01/31 08:26:00.8	312.870	-0.430	0.380	-0.260
2020/01/31 08:26:00.9	312.860	-0.450	0.430	-0.210
2020/01/31 08:26:01.0	312.850	-0.460	0.470	-0.150
2020/01/31 08:26:01.1	312.840	-0.480	0.510	-0.100
2020/01/31 08:26:01.2	312.830	-0.490	0.540	-0.050
2020/01/31 08:26:01.3	312.820	-0.500	0.560	0.000
2020/01/31 08:26:01.4	312.830	-0.500	0.580	0.050
2020/01/31 08:26:01.5	312.810	-0.500	0.590	0.100
2020/01/31 08:26:01.6	312.800	-0.500	0.590	0.150
2020/01/31 08:26:01.7	312.790	-0.500	0.590	0.200
2020/01/31 08:26:01.8	312.780	-0.490	0.580	0.240
2020/01/31 08:26:01.9	312.760	-0.480	0.560	0.290
2020/01/31 08:26:02.0	312.750	-0.470	0.540	0.330
2020/01/31 08:26:02.1	312.740	-0.450	0.520	0.370
2020/01/31 08:26:02.2	312.730	-0.430	0.480	0.410
2020/01/31 08:26:02.3	312.720	-0.410	0.450	0.450
2020/01/31 08:26:02.4	312.700	-0.390	0.410	0.490
2020/01/31 08:26:02.5	312.690	-0.360	0.360	0.530
2020/01/31 08:26:02.6	312.680	-0.330	0.310	0.560
2020/01/31 08:26:02.7	312.680	-0.300	0.260	0.590
2020/01/31 08:26:02.8	312.670	-0.260	0.200	0.620
2020/01/31 08:26:02.9	312.660	-0.230	0.140	0.650
2020/01/31 08:26:03.0	312.650	-0.190	0.080	0.680
2020/01/31 08:26:03.1	312.640	-0.150	0.020	0.700
2020/01/31 08:26:03.2	312.640	-0.110	-0.040	0.720
2020/01/31 08:26:03.3	312.630	-0.070	-0.100	0.740
2020/01/31 08:26:03.4	312.610	-0.030	-0.160	0.760
2020/01/31 08:26:03.5	312.600	0.020	-0.220	0.770
2020/01/31 08:26:03.6	312.600	0.060	-0.280	0.790
2020/01/31 08:26:03.7	312.590	0.100	-0.340	0.800
2020/01/31 08:26:03.8	312.590	0.140	-0.390	0.810
2020/01/31 08:26:03.9	312.590	0.180	-0.440	0.820
2020/01/31 08:26:04.0	312.580	0.220	-0.490	0.830
2020/01/31 08:26:04.1	312.580	0.260	-0.540	0.840
2020/01/31 08:26:04.2	312.580	0.290	-0.580	0.840
2020/01/31 08:26:04.3	312.570	0.330	-0.630	0.840
2020/01/31 08:26:04.4	312.570	0.360	-0.660	0.840
2020/01/31 08:26:04.5	312.570	0.390	-0.700	0.840
2020/01/31 08:26:04.6	312.570	0.410	-0.730	0.840
2020/01/31 08:26:04.7	312.570	0.440	-0.750	0.830
2020/01/31 08:26:04.8	312.570	0.460	-0.780	0.830
2020/01/31 08:26:04.9	312.570	0.480	-0.800	0.820
2020/01/31 08:26:05.0	312.570	0.500	-0.810	0.810
2020/01/31 08:26:05.1	312.570	0.510	-0.820	0.800
2020/01/31 08:26:05.2	312.570	0.520	-0.830	0.790
2020/01/31 08:26:05.3	312.560	0.530	-0.830	0.780
2020/01/31 08:26:05.4	312.550	0.530	-0.830	0.770
2020/01/31 08:26:05.5	312.550	0.530	-0.820	0.750
2020/01/31 08:26:05.6	312.540	0.530	-0.810	0.740
2020/01/31 08:26:05.7	312.540	0.520	-0.790	0.720
2020/01/31 08:26:05.8	312.530	0.520	-0.770	0.710
2020/01/31 08:26:05.9	312.520	0.510	-0.750	0.690
2020/01/31 08:26:06.0	312.510	0.490	-0.720	0.680
2020/01/31 08:26:06.1	312.500	0.480	-0.680	0.660
2020/01/31 08:26:06.2	312.490	0.460	-0.650	0.640
2020/01/31 08:26:06.3	312.470	0.440	-0.610	0.620
2020/01/31 08:26:06.4	312.460	0.420	-0.560	0.600
2020/01/31 08:26:06.5	312.450	0.400	-0.510	0.580
2020/01/31 08:26:06.6	312.430	0.370	-0.460	0.550
2020/01/31 08:26:06.7	312.420	0.340	-0.410	0.530
2020/01/31 08:26:06.8	312.410	0.320	-0.360	0.500
2020/01/31 08:26:06.9	312.390	0.290	-0.310	0.480
2020/01/31 08:26:07.0	312.380	0.260	-0.250	0.450
2020/01/31 08:26:07.1	312.360	0.230	-0.200	0.420
2020/01/31 08:26:07.2	312.350	0.200	-0.150	0.390
2020/01/31 08:26:07.3	312.330	0.170	-0.090	0.360
2020/01/31 08:26:07.4	312.320	0.140	-0.040	0.340
2020/01/31 08:26:07.5	312.300	0.110	0.010	0.310
2020/01/31 08:26:07.6	312.290	0.080	0.060	0.280
2020/01/31 08:26:07.7	312.270	0.050	0.110	0.250
2020/01/31 08:26:07.8	312.260	0.020	0.150	0.220
2020/01/31 08:26:07.9	312.240	-0.010	0.190	0.190
2020/01/31 08:26:08.0	312.230	-0.030	0.230	0.160
2020/01/31 08:26:08.1	312.210	-0.060	0.270	0.130
2020/01/31 08:26:08.2	312.200	-0.080	0.300	0.100
2020/01/31 08:26:08.3	312.190	-0.110	0.330	0.080
2020/01/31 08:26:08.4	312.160	-0.130	0.360	0.050
2020/01/31 08:26:08.5	312.150	-0.150	0.380	0.020
2020/01/31 08:26:08.6	312.140	-0.170	0.390	-0.000
2020/01/31 08:26:08.7	312.130	-0.180	0.400	-0.030
2020/01/31 08:26:08.8	312.120	-0.200	0.400	-0.050
2020/01/31 08:26:08.9	312.110	-0.210	0.390	-0.070
2020/01/31 08:26:09.0	312.110	-0.220	0.380	-0.090
2020/01/31 08:26:09.1	312.100	-0.230	0.370	-0.110
2020/01/31 08:26:09.2	312.100	-0.230	0.340	-0.130
2020/01/31 08:26:09.3	312.100	-0.240	0.310	-0.140
2020/01/31 08:26:09.4	312.100	-0.240	0.280	-0.160
2020/01/31 08:26:09.5	312.110	-0.240	0.230	-0.180
2020/01/31 08:26:09.6	312.120	-0.230	0.190	-0.200
2020/01/31 08:26:09.7	312.130	-0.230	0.130	-0.220
2020/01/31 08:26:09.8	312.140	-0.220	0.080	-0.230
2020/01/31 08:26:09.9	312.160	-0.210	0.020	-0.250
2020/01/31 08:26:10.0	312.180	-0.200	-0.050	-0.270
2020/01/31 08:26:10.1	312.200	-0.180	-0.120	-0.290
2020/01/31 08:26:10.2	312.230	-0.170	-0.190	-0.310
2020/01/31 08:26:10.3	312.260	-0.150	-0.260	-0.330
2020/01/31 08:26:10.4	312.280	-0.140	-0.330	-0.350
2020/01/31 08:26:10.5	312.310	-0.120	-0.400	-0.360
2020/01/31 08:26:10.6	312.340	-0.100	-0.470	-0.380
2020/01/31 08:26:10.7	312.380	-0.080	-0.540	-0.390
2020/01/31 08:26:10.8	312.410	-0.060	-0.610	-0.400
2020/01/31 08:26:10.9	312.440	-0.040	-0.670	-0.400
2020/01/31 08:26:11.0	312.480	-0.020	-0.730	-0.410
2020/01/31 08:26:11.1	312.510	-0.000	-0.790	-0.410
2020/01/31 08:26:11.2	312.550	0.020	-0.840	-0.410
2020/01/31 08:26:11.3	312.580	0.030	-0.890	-0.400
2020/01/31 08:26:11.4	312.610	0.050	-0.930	-0.390
2020/01/31 08:26:11.5	312.640	0.060	-0.960	-0.380
2020/01/31 08:26:11.6	312.670	0.070	-0.990	-0.370
2020/01/31 08:26:11.7	312.700	0.080	-1.010	-0.350
2020/01/31 08:26:11.8	312.740	0.090	-1.030	-0.340
2020/01/31 08:26:11.9	312.770	0.100	-1.040	-0.320
2020/01/31 08:26:12.0	312.800	0.100	-1.050	-0.300
2020/01/31 08:26:12.1	312.830	0.100	-1.040	-0.270
2020/01/31 08:26:12.2	312.860	0.100	-1.040	-0.250
2020/01/31 08:26:12.3	312.890	0.100	-1.020	-0.220
2020/01/31 08:26:12.4	312.920	0.090	-1.000	-0.200
2020/01/31 08:26:12.5	312.950	0.090	-0.970	-0.170
2020/01/31 08:26:12.6	312.980	0.080	-0.940	-0.140
2020/01/31 08:26:12.7	313.000	0.060	-0.900	-0.110
2020/01/31 08:26:12.8	313.020	0.050	-0.860	-0.080
2020/01/31 08:26:12.9	313.040	0.040	-0.820	-0.050
2020/01/31 08:26:13.0	313.060	0.020	-0.760	-0.020
2020/01/31 08:26:13.1	313.080	0.000	-0.710	0.010
2020/01/31 08:26:13.2	313.090	-0.020	-0.650	0.040
2020/01/31 08:26:13.3	313.100	-0.040	-0.580	0.070
2020/01/31 08:26:13.4	313.110	-0.060	-0.510	0.110
2020/01/31 08:26:13.5	313.110	-0.080	-0.450	0.140
2020/01/31 08:26:13.6	313.110	-0.100	-0.370	0.180
2020/01/31 08:26:13.7	313.110	-0.120	-0.300	0.210
2020/01/31 08:26:13.8	313.110	-0.150	-0.230	0.240
2020/01/31 08:26:13.9	313.100	-0.170	-0.150	0.270
2020/01/31 08:26:14.0	313.090	-0.190	-0.080	0.310
2020/01/31 08:26:14.1	313.080	-0.210	-0.010	0.340
2020/01/31 08:26:14.2	313.070	-0.230	0.070	0.370
2020/01/31 08:26:14.3	313.050	-0.250	0.140	0.400
2020/01/31 08:26:14.4	313.040	-0.270	0.200	0.430
2020/01/31 08:26:14.5	313.020	-0.290	0.270	0.450
2020/01/31 08:26:14.6	313.000	-0.310	0.320	0.480
2020/01/31 08:26:14.7	312.980	-0.320	0.380	0.510
2020/01/31 08:26:14.8	312.960	-0.330	0.430	0.530
2020/01/31 08:26:14.9	312.940	-0.340	0.470	0.550
2020/01/31 08:26:15.0	312.920	-0.350	0.510	0.570
2020/01/31 08:26:15.1	312.900	-0.350	0.550	0.590
2020/01/31 08:26:15.2	312.870	-0.360	0.570	0.610
2020/01/31 08:26:15.3	312.850	-0.360	0.590	0.630
2020/01/31 08:26:15.4	312.820	-0.360	0.600	0.640
2020/01/31 08:26:15.5	312.790	-0.350	0.610	0.650
2020/01/31 08:26:15.6	312.770	-0.350	0.610	0.660
2020/01/31 08:26:15.7	312.740	-0.340	0.610	0.670
2020/01/31 08:26:15.8	312.720	-0.330	0.600	0.680
2020/01/31 08:26:15.9	312.700	-0.310	0.580	0.690
2020/01/31 08:26:16.0	312.670	-0.300	0.560	0.700
2020/01/31 08:26:16.1	312.650	-0.280	0.530	0.700
2020/01/31 08:26:16.2	312.620	-0.260	0.500	0.700
2020/01/31 08:26:16.3	312.600	-0.240	0.470	0.700
2020/01/31 08:26:16.4	312.570	-0.220	0.430	0.690
2020/01/31 08:26:16.5	312.550	-0.200	0.380	0.690
2020/01/31 08:26:16.6	312.530	-0.170	0.330	0.680
2020/01/31 08:26:16.7	312.510	-0.150	0.280	0.670
2020/01/31 08:26:16.8	312.490	-0.130	0.230	0.660
2020/01/31 08:26:16.9	312.480	-0.100	0.170	0.650
2020/01/31 08:26:17.0	312.460	-0.080	0.110	0.630
2020/01/31 08:26:17.1	312.440	-0.050	0.050	0.620
2020/01/31 08:26:17.2	312.430	-0.030	-0.010	0.600
2020/01/31 08:26:17.3	312.420	-0.000	-0.070	0.580
2020/01/31 08:26:17.4	312.400	0.020	-0.140	0.570
2020/01/31 08:26:17.5	312.390	0.050	-0.200	0.550
2020/01/31 08:26:17.6	312.380	0.070	-0.260	0.530
2020/01/31 08:26:17.7	312.370	0.090	-0.310	0.520
2020/01/31 08:26:17.8	312.360	0.110	-0.370	0.500
2020/01/31 08:26:17.9	312.350	0.130	-0.420	0.480
2020/01/31 08:26:18.0	312.340	0.160	-0.470	0.470
2020/01/31 08:26:18.1	312.330	0.170	-0.520	0.450
2020/01/31 08:26:18.2	312.320	0.190	-0.560	0.440
2020/01/31 08:26:18.3	312.320	0.210	-0.610	0.420
2020/01/31 08:26:18.4	312.310	0.230	-0.640	0.410
2020/01/31 08:26:18.5	312.310	0.240	-0.680	0.390
2020/01/31 08:26:18.6	312.310	0.260	-0.710	0.380
2020/01/31 08:26:18.7	312.310	0.270	-0.730	0.360
2020/01/31 08:26:18.8	312.310	0.290	-0.760	0.350
2020/01/31 08:26:18.9	312.310	0.300	-0.780	0.330
2020/01/31 08:26:19.0	312.310	0.310	-0.790	0.320
2020/01/31 08:26:19.1	312.310	0.320	-0.800	0.300
2020/01/31 08:26:19.2	312.320	0.330	-0.810	0.290
2020/01/31 08:26:19.3	312.320	0.340	-0.820	0.270
2020/01/31 08:26:19.4	312.340	0.350	-0.820	0.260
2020/01/31 08:26:19.5	312.350	0.360	-0.820	0.240
2020/01/31 08:26:19.6	312.360	0.370	-0.820	0.230
2020/01/31 08:26:19.7	312.370	0.380	-0.810	0.210
2020/01/31 08:26:19.8	312.380	0.390	-0.810	0.190
2020/01/31 08:26:19.9	312.400	0.390	-0.800	0.180
2020/01/31 08:26:20.0	312.420	0.400	-0.790	0.160
2020/01/31 08:26:20.1	312.440	0.410	-0.780	0.140
2020/01/31 08:26:20.2	312.460	0.410	-0.760	0.130
2020/01/31 08:26:20.3	312.480	0.420	-0.750	0.110
2020/01/31 08:26:20.4	312.490	0.420	-0.730	0.090
2020/01/31 08:26:20.5	312.510	0.420	-0.720	0.080
2020/01/31 08:26:20.6	312.540	0.420	-0.690	0.060
2020/01/31 08:26:20.7	312.570	0.420	-0.670	0.050
2020/01/31 08:26:20.8	312.590	0.420	-0.650	0.030
2020/01/31 08:26:20.9	312.620	0.420	-0.630	0.020
2020/01/31 08:26:21.0	312.640	0.420	-0.600	0.010
2020/01/31 08:26:21.1	312.670	0.410	-0.570	-0.010
2020/01/31 08:26:21.2	312.700	0.410	-0.540	-0.020
2020/01/31 08:26:21.3	312.720	0.400	-0.510	-0.030
2020/01/31 08:26:21.4	312.750	0.390	-0.480	-0.030
2020/01/31 08:26:21.5	312.770	0.380	-0.450	-0.040
2020/01/31 08:26:21.6	312.790	0.370	-0.420	-0.040
2020/01/31 08:26:21.7	312.810	0.360	-0.380	-0.050
2020/01/31 08:26:21.8	312.830	0.340	-0.350	-0.050
2020/01/31 08:26:21.9	312.850	0.330	-0.310	-0.050
2020/01/31 08:26:22.0	312.860	0.310	-0.270	-0.050
2020/01/31 08:26:22.1	312.870	0.300	-0.240	-0.050
2020/01/31 08:26:22.2	312.890	0.280	-0.200	-0.050
2020/01/31 08:26:22.3	312.900	0.260	-0.160	-0.040
2020/01/31 08:26:22.4	312.910	0.240	-0.120	-0.030
2020/01/31 08:26:22.5	312.920	0.220	-0.090	-0.030
2020/01/31 08:26:22.6	312.920	0.200	-0.050	-0.020
2020/01/31 08:26:22.7	312.920	0.170	-0.020	-0.010
2020/01/31 08:26:22.8	312.920	0.150	0.010	0.000
2020/01/31 08:26:22.9	312.920	0.130	0.050	0.010
2020/01/31 08:26:23.0	312.910	0.100	0.080	0.030
2020/01/31 08:26:23.1	312.900	0.080	0.100	0.040
2020/01/31 08:26:23.2	312.890	0.050	0.130	0.060
2020/01/31 08:26:23.3	312.880	0.020	0.150	0.070
2020/01/31 08:26:23.4	312.860	-0.000	0.180	0.090
2020/01/31 08:26:23.5	312.850	-0.030	0.190	0.110
2020/01/31 08:26:23.6	312.830	-0.050	0.210	0.130
2020/01/31 08:26:23.7	312.820	-0.080	0.220	0.140
2020/01/31 08:26:23.8	312.810	-0.110	0.230	0.160
2020/01/31 08:26:23.9	312.790	-0.130	0.230	0.180
2020/01/31 08:26:24.0	312.780	-0.160	0.240	0.190
2020/01/31 08:26:24.1	312.770	-0.180	0.230	0.210
2020/01/31 08:26:24.2	312.760	-0.200	0.230	0.220
2020/01/31 08:26:24.3	312.750	-0.220	0.220	0.240
2020/01/31 08:26:24.4	312.730	-0.240	0.210	0.250
2020/01/31 08:26:24.5	312.720	-0.260	0.190	0.260
2020/01/31 08:26:24.6	312.720	-0.280	0.170	0.270
2020/01/31 08:26:24.7	312.710	-0.300	0.150	0.280
2020/01/31 08:26:24.8	312.700	-0.310	0.120	0.280
2020/01/31 08:26:24.9	312.700	-0.330	0.090	0.290
2020/01/31 08:26:25.0	312.700	-0.340	0.060	0.290
2020/01/31 08:26:25.1	312.700	-0.350	0.030	0.290
2020/01/31 08:26:25.2	312.700	-0.360	-0.000	0.290
2020/01/31 08:26:25.3	312.690	-0.370	-0.040	0.290
2020/01/31 08:26:25.4	312.700	-0.380	-0.070	0.280
2020/01/31 08:26:25.5	312.700	-0.390	-0.110	0.270
2020/01/31 08:26:25.6	312.700	-0.390	-0.140	0.270
2020/01/31 08:26:25.7	312.700	-0.390	-0.180	0.260
2020/01/31 08:26:25.8	312.710	-0.400	-0.210	0.250
2020/01/31 08:26:25.9	312.710	-0.400	-0.250	0.240
2020/01/31 08:26:26.0	312.710	-0.400	-0.280	0.230
2020/01/31 08:26:26.1	312.720	-0.400	-0.310	0.220
2020/01/31 08:26:26.2	312.730	-0.390	-0.340	0.210
2020/01/31 08:26:26.3	312.730	-0.390	-0.360	0.200
2020/01/31 08:26:26.4	312.740	-0.390	-0.390	0.190
2020/01/31 08:26:26.5	312.740	-0.380	-0.410	0.180
2020/01/31 08:26:26.6	312.750	-0.380	-0.430	0.170
2020/01/31 08:26:26.7	312.750	-0.370	-0.440	0.160
2020/01/31 08:26:26.8	312.760	-0.360	-0.450	0.150
2020/01/31 08:26:26.9	312.760	-0.360	-0.460	0.150
2020/01/31 08:26:27.0	312.760	-0.350	-0.470	0.140
2020/01/31 08:26:27.1	312.750	-0.340	-0.470	0.140
2020/01/31 08:26:27.2	312.750	-0.330	-0.470	0.140
2020/01/31 08:26:27.3	312.740	-0.320	-0.470	0.150
2020/01/31 08:26:27.4	312.730	-0.310	-0.460	0.150
2020/01/31 08:26:27.5	312.720	-0.300	-0.450	0.160
2020/01/31 08:26:27.6	312.700	-0.290	-0.440	0.170
2020/01/31 08:26:27.7	312.690	-0.280	-0.430	0.180
2020/01/31 08:26:27.8	312.670	-0.260	-0.410	0.200
2020/01/31 08:26:27.9	312.650	-0.250	-0.400	0.210
2020/01/31 08:26:28.0	312.630	-0.240	-0.390	0.220
2020/01/31 08:26:28.1	312.610	-0.230	-0.370	0.240
2020/01/31 08:26:28.2	312.590	-0.210	-0.360	0.250
2020/01/31 08:26:28.3	312.570	-0.200	-0.340	0.260
2020/01/31 08:26:28.4	312.550	-0.180	-0.330	0.280
2020/01/31 08:26:28.5	312.530	-0.170	-0.320	0.290
2020/01/31 08:26:28.6	312.510	-0.150	-0.310	0.300
2020/01/31 08:26:28.7	312.490	-0.130	-0.300	0.310
2020/01/31 08:26:28.8	312.480	-0.110	-0.290	0.320
2020/01/31 08:26:28.9	312.460	-0.100	-0.290	0.320
2020/01/31 08:26:29.0	312.450	-0.080	-0.280	0.330
2020/01/31 08:26:29.1	312.440	-0.060	-0.280	0.340
2020/01/31 08:26:29.2	312.420	-0.040	-0.280	0.340
2020/01/31 08:26:29.3	312.410	-0.020	-0.280	0.340
2020/01/31 08:26:29.4	312.400	0.000	-0.280	0.350
2020/01/31 08:26:29.5	312.390	0.020	-0.280	0.350
2020/01/31 08:26:29.6	312.390	0.040	-0.280	0.350
2020/01/31 08:26:29.7	312.380	0.060	-0.290	0.350
2020/01/31 08:26:29.8	312.370	0.080	-0.290	0.360
2020/01/31 08:26:29.9	312.370	0.100	-0.290	0.360
2020/01/31 08:26:30.0	312.370	0.120	-0.290	0.360
2020/01/31 08:26:30.1	312.360	0.130	-0.290	0.370
2020/01/31 08:26:30.2	312.360	0.150	-0.280	0.370
2020/01/31 08:26:30.3	312.360	0.160	-0.280	0.380
2020/01/31 08:26:30.4	312.350	0.180	-0.270	0.390
2020/01/31 08:26:30.5	312.340	0.190	-0.260	0.390
2020/01/31 08:26:30.6	312.340	0.200	-0.250	0.400
2020/01/31 08:26:30.7	312.340	0.210	-0.240	0.410
2020/01/31 08:26:30.8	312.330	0.220	-0.230	0.420
2020/01/31 08:26:30.9	312.330	0.220	-0.220	0.440
2020/01/31 08:26:31.0	312.320	0.230	-0.200	0.450
2020/01/31 08:26:31.1	312.320	0.230	-0.190	0.460
2020/01/31 08:26:31.2	312.320	0.230	-0.170	0.470
2020/01/31 08:26:31.3	312.310	0.230	-0.160	0.490
2020/01/31 08:26:31.4	312.310	0.230	-0.140	0.500
2020/01/31 08:26:31.5	312.310	0.230	-0.120	0.510
2020/01/31 08:26:31.6	312.300	0.230	-0.110	0.520
2020/01/31 08:26:31.7	312.300	0.220	-0.090	0.530
2020/01/31 08:26:31.8	312.310	0.220	-0.080	0.540
2020/01/31 08:26:31.9	312.310	0.210	-0.060	0.550
2020/01/31 08:26:32.0	312.310	0.200	-0.050	0.560
2020/01/31 08:26:32.1	312.320	0.190	-0.040	0.570
2020/01/31 08:26:32.2	312.320	0.190	-0.030	0.580
2020/01/31 08:26:32.3	312.330	0.180	-0.020	0.580
2020/01/31 08:26:32.4	312.350	0.170	-0.010	0.590
2020/01/31 08:26:32.5	312.360	0.160	-0.000	0.590
2020/01/31 08:26:32.6	312.370	0.150	0.000	0.590
2020/01/31 08:26:32.7	312.380	0.140	0.000	0.580
2020/01/31 08:26:32.8	312.390	0.130	0.000	0.580
2020/01/31 08:26:32.9	312.410	0.130	-0.000	0.580
2020/01/31 08:26:33.0	312.420	0.120	-0.010	0.570
2020/01/31 08:26:33.1	312.430	0.110	-0.010	0.560
2020/01/31 08:26:33.2	312.440	0.100	-0.020	0.550
2020/01/31 08:26:33.3	312.450	0.100	-0.030	0.540
2020/01/31 08:26:33.4	312.460	0.090	-0.040	0.530
2020/01/31 08:26:33.5	312.470	0.090	-0.060	0.520
2020/01/31 08:26:33.6	312.480	0.090	-0.070	0.510
2020/01/31 08:26:33.7	312.490	0.080	-0.090	0.500
2020/01/31 08:26:33.8	312.490	0.080	-0.100	0.480
2020/01/31 08:26:33.9	312.500	0.080	-0.120	0.470
2020/01/31 08:26:34.0	312.510	0.090	-0.140	0.450
2020/01/31 08:26:34.1	312.520	0.090	-0.160	0.440
2020/01/31 08:26:34.2	312.530	0.090	-0.190	0.420
2020/01/31 08:26:34.3	312.540	0.100	-0.210	0.400
2020/01/31 08:26:34.4	312.550	0.100	-0.230	0.380
2020/01/31 08:26:34.5	312.570	0.110	-0.260	0.360
2020/01/31 08:26:34.6	312.580	0.120	-0.290	0.330
2020/01/31 08:26:34.7	312.590	0.130	-0.310	0.310
2020/01/31 08:26:34.8	312.600	0.140	-0.340	0.290
2020/01/31 08:26:34.9	312.610	0.150	-0.370	0.270
2020/01/31 08:26:35.0	312.620	0.170	-0.390	0.250
2020/01/31 08:26:35.1	312.630	0.180	-0.420	0.230
2020/01/31 08:26:35.2	312.640	0.190	-0.450	0.210
2020/01/31 08:26:35.3	312.650	0.210	-0.470	0.200
2020/01/31 08:26:35.4	312.650	0.220	-0.490	0.180
2020/01/31 08:26:35.5	312.660	0.240	-0.510	0.170
2020/01/31 08:26:35.6	312.670	0.250	-0.530	0.150
2020/01/31 08:26:35.7	312.670	0.260	-0.550	0.140
2020/01/31 08:26:35.8	312.680	0.280	-0.570	0.130
2020/01/31 08:26:35.9	312.680	0.290	-0.580	0.130
2020/01/31 08:26:36.0	312.680	0.300	-0.590	0.120
2020/01/31 08:26:36.1	312.680	0.310	-0.600	0.120
2020/01/31 08:26:36.2	312.680	0.320	-0.600	0.110
2020/01/31 08:26:36.3	312.680	0.320	-0.610	0.110
2020/01/31 08:26:36.4	312.680	0.330	-0.610	0.110
2020/01/31 08:26:36.5	312.670	0.330	-0.600	0.110
2020/01/31 08:26:36.6	312.660	0.340	-0.600	0.120
2020/01/31 08:26:36.7	312.650	0.340	-0.590	0.120
2020/01/31 08:26:36.8	312.640	0.340	-0.580	0.120
2020/01/31 08:26:36.9	312.630	0.330	-0.570	0.130
2020/01/31 08:26:37.0	312.620	0.330	-0.560	0.140
2020/01/31 08:26:37.1	312.610	0.320	-0.540	0.150
2020/01/31 08:26:37.2	312.590	0.310	-0.520	0.160
2020/01/31 08:26:37.3	312.580	0.300	-0.500	0.170
2020/01/31 08:26:37.4	312.570	0.290	-0.470	0.190
2020/01/31 08:26:37.5	312.550	0.280	-0.450	0.200
2020/01/31 08:26:37.6	312.530	0.260	-0.430	0.220
2020/01/31 08:26:37.7	312.500	0.240	-0.400	0.230
2020/01/31 08:26:37.8	312.480	0.230	-0.370	0.250
2020/01/31 08:26:37.9	312.450	0.200	-0.340	0.270
2020/01/31 08:26:38.0	312.430	0.180	-0.320	0.290
2020/01/31 08:26:38.1	312.400	0.160	-0.290	0.300
2020/01/31 08:26:38.2	312.370	0.140	-0.260	0.320
2020/01/31 08:26:38.3	312.340	0.110	-0.230	0.340
2020/01/31 08:26:38.4	312.310	0.080	-0.200	0.350
2020/01/31 08:26:38.5	312.280	0.060	-0.170	0.370
2020/01/31 08:26:38.6	312.250	0.030	-0.150	0.390
2020/01/31 08:26:38.7	312.220	-0.000	-0.120	0.400
2020/01/31 08:26:38.8	312.190	-0.030	-0.100	0.420
2020/01/31 08:26:38.9	312.160	-0.060	-0.070	0.430
2020/01/31 08:26:39.0	312.130	-0.090	-0.050	0.440
2020/01/31 08:26:39.1	312.100	-0.120	-0.040	0.450
2020/01/31 08:26:39.2	312.080	-0.140	-0.020	0.450
2020/01/31 08:26:39.3	312.050	-0.170	-0.010	0.460
2020/01/31 08:26:39.4	312.020	-0.200	0.000	0.460
2020/01/31 08:26:39.5	312.010	-0.220	0.010	0.450
2020/01/31 08:26:39.6	311.990	-0.250	0.010	0.450
2020/01/31 08:26:39.7	311.980	-0.270	0.010	0.440
2020/01/31 08:26:39.8	311.970	-0.300	0.010	0.420
2020/01/31 08:26:39.9	311.960	-0.320	-0.000	0.400
2020/01/31 08:26:40.0	311.950	-0.340	-0.010	0.380
2020/01/31 08:26:40.1	311.950	-0.350	-0.020	0.360
2020/01/31 08:26:40.2	311.960	-0.370	-0.040	0.330
2020/01/31 08:26:40.3	311.960	-0.390	-0.060	0.290
2020/01/31 08:26:40.4	311.990	-0.400	-0.080	0.250
2020/01/31 08:26:40.5	312.000	-0.410	-0.100	0.210
2020/01/31 08:26:40.6	312.020	-0.420	-0.130	0.170
2020/01/31 08:26:40.7	312.040	-0.430	-0.150	0.130
2020/01/31 08:26:40.8	312.060	-0.430	-0.180	0.080
2020/01/31 08:26:40.9	312.090	-0.430	-0.210	0.030
2020/01/31 08:26:41.0	312.120	-0.440	-0.240	-0.020
2020/01/31 08:26:41.1	312.150	-0.440	-0.270	-0.070
2020/01/31 08:26:41.2	312.190	-0.430	-0.290	-0.120
2020/01/31 08:26:41.3	312.230	-0.430	-0.320	-0.170
2020/01/31 08:26:41.4	312.280	-0.430	-0.350	-0.220
2020/01/31 08:26:41.5	312.330	-0.420	-0.370	-0.270
2020/01/31 08:26:41.6	312.370	-0.410	-0.380	-0.320
2020/01/31 08:26:41.7	312.420	-0.400	-0.400	-0.360
2020/01/31 08:26:41.8	312.460	-0.390	-0.410	-0.400
2020/01/31 08:26:41.9	312.510	-0.380	-0.420	-0.440
2020/01/31 08:26:42.0	312.550	-0.370	-0.420	-0.470
2020/01/31 08:26:42.1	312.600	-0.360	-0.420	-0.500
2020/01/31 08:26:42.2	312.640	-0.350	-0.420	-0.520
2020/01/31 08:26:42.3	312.690	-0.340	-0.410	-0.540
2020/01/31 08:26:42.4	312.740	-0.330	-0.390	-0.560
2020/01/31 08:26:42.5	312.780	-0.320	-0.370	-0.570
2020/01/31 08:26:42.6	312.810	-0.300	-0.360	-0.570
2020/01/31 08:26:42.7	312.850	-0.290	-0.330	-0.570
2020/01/31 08:26:42.8	312.880	-0.280	-0.310	-0.560
2020/01/31 08:26:42.9	312.910	-0.270	-0.280	-0.550
2020/01/31 08:26:43.0	312.930	-0.260	-0.250	-0.530
2020/01/31 08:26:43.1	312.950	-0.250	-0.220	-0.500
2020/01/31 08:26:43.2	312.970	-0.230	-0.190	-0.480
2020/01/31 08:26:43.3	312.990	-0.220	-0.160	-0.440
2020/01/31 08:26:43.4	313.010	-0.210	-0.120	-0.410
2020/01/31 08:26:43.5	313.020	-0.200	-0.090	-0.370
2020/01/31 08:26:43.6	313.030	-0.190	-0.060	-0.330
2020/01/31 08:26:43.7	313.030	-0.170	-0.030	-0.290
2020/01/31 08:26:43.8	313.030	-0.160	0.000	-0.240
2020/01/31 08:26:43.9	313.030	-0.150	0.030	-0.200
2020/01/31 08:26:44.0	313.030	-0.130	0.050	-0.150
2020/01/31 08:26:44.1	313.020	-0.120	0.080	-0.100
2020/01/31 08:26:44.2	313.010	-0.100	0.100	-0.050
2020/01/31 08:26:44.3	313.010	-0.090	0.120	-0.000
2020/01/31 08:26:44.4	313.000	-0.070	0.140	0.050
2020/01/31 08:26:44.5	312.990	-0.060	0.150	0.100
2020/01/31 08:26:44.6	312.970	-0.040	0.170	0.150
2020/01/31 08:26:44.7	312.960	-0.020	0.170	0.200
2020/01/31 08:26:44.8	312.940	-0.000	0.180	0.250
2020/01/31 08:26:44.9	312.930	0.020	0.180	0.300
2020/01/31 08:26:45.0	312.910	0.040	0.180	0.350
2020/01/31 08:26:45.1	312.890	0.050	0.180	0.400
2020/01/31 08:26:45.2	312.870	0.070	0.180	0.450
2020/01/31 08:26:45.3	312.850	0.100	0.170	0.500
2020/01/31 08:26:45.4	312.830	0.120	0.160	0.550
2020/01/31 08:26:45.5	312.810	0.140	0.150	0.590
2020/01/31 08:26:45.6	312.790	0.160	0.130	0.630
2020/01/31 08:26:45.7	312.770	0.170	0.120	0.670
2020/01/31 08:26:45.8	312.750	0.190	0.100	0.710
2020/01/31 08:26:45.9	312.720	0.210	0.080	0.750
2020/01/31 08:26:46.0	312.700	0.230	0.060	0.780
2020/01/31 08:26:46.1	312.680	0.250	0.030	0.810
2020/01/31 08:26:46.2	312.660	0.260	0.010	0.840
2020/01/31 08:26:46.3	312.630	0.280	-0.020	0.860
2020/01/31 08:26:46.4	312.590	0.290	-0.040	0.880
2020/01/31 08:26:46.5	312.570	0.300	-0.070	0.900
2020/01/31 08:26:46.6	312.550	0.310	-0.100	0.910
2020/01/31 08:26:46.7	312.520	0.320	-0.130	0.920
2020/01/31 08:26:46.8	312.500	0.330	-0.150	0.920
2020/01/31 08:26:46.9	312.480	0.330	-0.180	0.920
2020/01/31 08:26:47.0	312.460	0.340	-0.210	0.920
2020/01/31 08:26:47.1	312.430	0.340	-0.240	0.910
2020/01/31 08:26:47.2	312.410	0.340	-0.260	0.900
2020/01/31 08:26:47.3	312.390	0.340	-0.290	0.890
2020/01/31 08:26:47.4	312.380	0.340	-0.310	0.870
2020/01/31 08:26:47.5	312.360	0.340	-0.330	0.850
2020/01/31 08:26:47.6	312.340	0.330	-0.350	0.830
2020/01/31 08:26:47.7	312.320	0.320	-0.370	0.810
2020/01/31 08:26:47.8	312.300	0.320	-0.390	0.780
2020/01/31 08:26:47.9	312.280	0.310	-0.410	0.760
2020/01/31 08:26:48.0	312.260	0.300	-0.430	0.730
2020/01/31 08:26:48.1	312.250	0.280	-0.440	0.700
2020/01/31 08:26:48.2	312.240	0.270	-0.460	0.670
2020/01/31 08:26:48.3	312.230	0.260	-0.470	0.630
2020/01/31 08:26:48.4	312.230	0.240	-0.490	0.600
2020/01/31 08:26:48.5	312.220	0.230	-0.500	0.560
2020/01/31 08:26:48.6	312.210	0.210	-0.510	0.520
2020/01/31 08:26:48.7	312.210	0.200	-0.520	0.480
2020/01/31 08:26:48.8	312.210	0.180	-0.540	0.440
2020/01/31 08:26:48.9	312.210	0.160	-0.550	0.400
2020/01/31 08:26:49.0	312.220	0.150	-0.560	0.360
2020/01/31 08:26:49.1	312.220	0.130	-0.570	0.310
2020/01/31 08:26:49.2	312.230	0.110	-0.580	0.270
2020/01/31 08:26:49.3	312.240	0.090	-0.590	0.220
2020/01/31 08:26:49.4	312.230	0.080	-0.600	0.170
2020/01/31 08:26:49.5	312.240	0.060	-0.620	0.120
2020/01/31 08:26:49.6	312.260	0.040	-0.630	0.070
2020/01/31 08:26:49.7	312.270	0.030	-0.640	0.020
2020/01/31 08:26:49.8	312.290	0.020	-0.650	-0.030
2020/01/31 08:26:49.9	312.310	0.000	-0.660	-0.080
2020/01/31 08:26:50.0	312.330	-0.010	-0.670	-0.120
2020/01/31 08:26:50.1	312.350	-0.020	-0.680	-0.170
2020/01/31 08:26:50.2	312.380	-0.030	-0.690	-0.220
2020/01/31 08:26:50.3	312.400	-0.040	-0.700	-0.270
2020/01/31 08:26:50.4	312.420	-0.050	-0.710	-0.310
2020/01/31 08:26:50.5	312.440	-0.050	-0.720	-0.360
2020/01/31 08:26:50.6	312.470	-0.060	-0.730	-0.400
2020/01/31 08:26:50.7	312.490	-0.060	-0.730	-0.440
2020/01/31 08:26:50.8	312.520	-0.060	-0.740	-0.470
2020/01/31 08:26:50.9	312.540	-0.070	-0.750	-0.510
2020/01/31 08:26:51.0	312.570	-0.070	-0.750	-0.540
2020/01/31 08:26:51.1	312.600	-0.060	-0.760	-0.570
2020/01/31 08:26:51.2	312.620	-0.060	-0.760	-0.590
2020/01/31 08:26:51.3	312.650	-0.060	-0.760	-0.620
2020/01/31 08:26:51.4	312.680	-0.050	-0.760	-0.640
2020/01/31 08:26:51.5	312.700	-0.040	-0.760	-0.660
2020/01/31 08:26:51.6	312.730	-0.040	-0.760	-0.680
2020/01/31 08:26:51.7	312.760	-0.030	-0.750	-0.690
2020/01/31 08:26:51.8	312.790	-0.020	-0.740	-0.700
2020/01/31 08:26:51.9	312.810	-0.010	-0.730	-0.710
2020/01/31 08:26:52.0	312.840	0.000	-0.720	-0.720
2020/01/31 08:26:52.1	312.870	0.010	-0.700	-0.720
2020/01/31 08:26:52.2	312.900	0.020	-0.680	-0.720
2020/01/31 08:26:52.3	312.920	0.030	-0.660	-0.720
2020/01/31 08:26:52.4	312.960	0.040	-0.640	-0.710
2020/01/31 08:26:52.5	312.990	0.050	-0.610	-0.700
2020/01/31 08:26:52.6	313.010	0.060	-0.580	-0.690
2020/01/31 08:26:52.7	313.040	0.060	-0.560	-0.670
2020/01/31 08:26:52.8	313.060	0.070	-0.520	-0.650
2020/01/31 08:26:52.9	313.080	0.070	-0.490	-0.630
2020/01/31 08:26:53.0	313.110	0.070	-0.460	-0.610
2020/01/31 08:26:53.1	313.120	0.070	-0.420	-0.580
2020/01/31 08:26:53.2	313.140	0.070	-0.380	-0.550
2020/01/31 08:26:53.3	313.160	0.070	-0.340	-0.520
2020/01/31 08:26:53.4	313.180	0.070	-0.300	-0.480
2020/01/31 08:26:53.5	313.200	0.060	-0.250	-0.440
2020/01/31 08:26:53.6	313.210	0.050	-0.210	-0.400
2020/01/31 08:26:53.7	313.220	0.050	-0.160	-0.360
2020/01/31 08:26:53.8	313.220	0.030	-0.110	-0.320
2020/01/31 08:26:53.9	313.230	0.020	-0.060	-0.280
2020/01/31 08:26:54.0	313.230	0.010	-0.010	-0.230
2020/01/31 08:26:54.1	313.240	-0.010	0.040	-0.190
2020/01/31 08:26:54.2	313.240	-0.020	0.090	-0.140
2020/01/31 08:26:54.3	313.240	-0.040	0.140	-0.090
2020/01/31 08:26:54.4	313.230	-0.060	0.200	-0.040
2020/01/31 08:26:54.5	313.220	-0.080	0.250	0.000
2020/01/31 08:26:54.6	313.220	-0.100	0.300	0.050
2020/01/31 08:26:54.7	313.200	-0.120	0.350	0.100
2020/01/31 08:26:54.8	313.190	-0.140	0.400	0.140
2020/01/31 08:26:54.9	313.180	-0.160	0.440	0.190
2020/01/31 08:26:55.0	313.160	-0.180	0.490	0.240
2020/01/31 08:26:55.1	313.140	-0.200	0.530	0.280
2020/01/31 08:26:55.2	313.120	-0.220	0.560	0.330
2020/01/31 08:26:55.3	313.100	-0.230	0.600	0.370
2020/01/31 08:26:55.4	313.070	-0.250	0.630	0.410
2020/01/31 08:26:55.5	313.050	-0.270	0.660	0.450
2020/01/31 08:26:55.6	313.020	-0.280	0.690	0.490
2020/01/31 08:26:55.7	313.000	-0.290	0.710	0.520
2020/01/31 08:26:55.8	312.970	-0.310	0.720	0.560
2020/01/31 08:26:55.9	312.940	-0.320	0.730	0.590
2020/01/31 08:26:56.0	312.920	-0.320	0.740	0.620
2020/01/31 08:26:56.1	312.890	-0.330	0.740	0.650
2020/01/31 08:26:56.2	312.860	-0.330	0.740	0.670
2020/01/31 08:26:56.3	312.830	-0.330	0.730	0.690
2020/01/31 08:26:56.4	312.820	-0.330	0.720	0.710
2020/01/31 08:26:56.5	312.790	-0.330	0.710	0.730
2020/01/31 08:26:56.6	312.760	-0.320	0.680	0.740
2020/01/31 08:26:56.7	312.730	-0.310	0.660	0.750
2020/01/31 08:26:56.8	312.710	-0.300	0.630	0.760
2020/01/31 08:26:56.9	312.680	-0.290	0.590	0.760
2020/01/31 08:26:57.0	312.650	-0.270	0.550	0.760
2020/01/31 08:26:57.1	312.630	-0.260	0.510	0.760
2020/01/31 08:26:57.2	312.600	-0.240	0.470	0.750
2020/01/31 08:26:57.3	312.580	-0.220	0.420	0.750
2020/01/31 08:26:57.4	312.560	-0.200	0.360	0.730
2020/01/31 08:26:57.5	312.540	-0.180	0.310	0.720
2020/01/31 08:26:57.6	312.520	-0.150	0.250	0.710
2020/01/31 08:26:57.7	312.490	-0.130	0.190	0.690
2020/01/31 08:26:57.8	312.470	-0.100	0.130	0.680
2020/01/31 08:26:57.9	312.460	-0.080	0.070	0.660
2020/01/31 08:26:58.0	312.440	-0.050	0.010	0.640
2020/01/31 08:26:58.1	312.420	-0.030	-0.050	0.620
2020/01/31 08:26:58.2	312.410	-0.000	-0.110	0.600
2020/01/31 08:26:58.3	312.390	0.020	-0.160	0.580
2020/01/31 08:26:58.4	312.390	0.050	-0.220	0.550
2020/01/31 08:26:58.5	312.380	0.070	-0.270	0.530
2020/01/31 08:26:58.6	312.370	0.090	-0.330	0.510
2020/01/31 08:26:58.7	312.360	0.120	-0.380	0.480
2020/01/31 08:26:58.8	312.360	0.140	-0.430	0.450
2020/01/31 08:26:58.9	312.360	0.160	-0.480	0.420
2020/01/31 08:26:59.0	312.360	0.180	-0.520	0.390
2020/01/31 08:26:59.1	312.360	0.190	-0.570	0.360
2020/01/31 08:26:59.2	312.370	0.210	-0.610	0.330
2020/01/31 08:26:59.3	312.370	0.220	-0.640	0.290
2020/01/31 08:26:59.4	312.380	0.240	-0.680	0.260
2020/01/31 08:26:59.5	312.390	0.250	-0.710	0.230
2020/01/31 08:26:59.6	312.400	0.260	-0.740	0.190
2020/01/31 08:26:59.7	312.410	0.270	-0.770	0.150
2020/01/31 08:26:59.8	312.430	0.280	-0.790	0.120
2020/01/31 08:26:59.9	312.440	0.280	-0.820	0.080
2020/01/31 08:27:00.0	312.460	0.290	-0.840	0.050
2020/01/31 08:27:00.1	312.480	0.290	-0.850	0.020
2020/01/31 08:27:00.2	312.500	0.300	-0.870	-0.020
2020/01/31 08:27:00.3	312.520	0.300	-0.880	-0.050
2020/01/31 08:27:00.4	312.540	0.300	-0.890	-0.080
2020/01/31 08:27:00.5	312.560	0.300	-0.900	-0.110
2020/01/31 08:27:00.6	312.580	0.290	-0.900	-0.130
2020/01/31 08:27:00.7	312.610	0.290	-0.910	-0.160
2020/01/31 08:27:00.8	312.630	0.290	-0.910	-0.180
2020/01/31 08:27:00.9	312.660	0.280	-0.910	-0.200
2020/01/31 08:27:01.0	312.680	0.270	-0.910	-0.220
2020/01/31 08:27:01.1	312.710	0.270	-0.900	-0.230
2020/01/31 08:27:01.2	312.730	0.260	-0.900	-0.250
2020/01/31 08:27:01.3	312.760	0.250	-0.890	-0.260
2020/01/31 08:27:01.4	312.790	0.240	-0.890	-0.270
2020/01/31 08:27:01.5	312.820	0.230	-0.880	-0.280
2020/01/31 08:27:01.6	312.840	0.220	-0.870	-0.280
2020/01/31 08:27:01.7	312.860	0.210	-0.860	-0.290
2020/01/31 08:27:01.8	312.880	0.190	-0.840	-0.290
2020/01/31 08:27:01.9	312.900	0.180	-0.830	-0.290
2020/01/31 08:27:02.0	312.920	0.160	-0.810	-0.290
2020/01/31 08:27:02.1	312.940	0.150	-0.790	-0.290
2020/01/31 08:27:02.2	312.950	0.130	-0.780	-0.280
2020/01/31 08:27:02.3	312.970	0.110	-0.760	-0.270
2020/01/31 08:27:02.4	312.990	0.090	-0.730	-0.260
2020/01/31 08:27:02.5	313.010	0.080	-0.710	-0.250
2020/01/31 08:27:02.6	313.020	0.060	-0.690	-0.240
2020/01/31 08:27:02.7	313.030	0.040	-0.670	-0.220
2020/01/31 08:27:02.8	313.040	0.020	-0.650	-0.210
2020/01/31 08:27:02.9	313.040	0.000	-0.630	-0.190
2020/01/31 08:27:03.0	313.050	-0.020	-0.600	-0.170
2020/01/31 08:27:03.1	313.060	-0.040	-0.580	-0.150
2020/01/31 08:27:03.2	313.070	-0.060	-0.560	-0.130
2020/01/31 08:27:03.3	313.070	-0.080	-0.540	-0.120
2020/01/31 08:27:03.4	313.090	-0.090	-0.510	-0.100
2020/01/31 08:27:03.5	313.090	-0.110	-0.490	-0.080
2020/01/31 08:27:03.6	313.100	-0.130	-0.470	-0.060
2020/01/31 08:27:03.7	313.110	-0.150	-0.450	-0.050
2020/01/31 08:27:03.8	313.130	-0.160	-0.430	-0.040
2020/01/31 08:27:03.9	313.140	-0.180	-0.410	-0.030
2020/01/31 08:27:04.0	313.160	-0.190	-0.390	-0.020
2020/01/31 08:27:04.1	313.170	-0.200	-0.370	-0.010
2020/01/31 08:27:04.2	313.190	-0.220	-0.360	-0.000
2020/01/31 08:27:04.3	313.200	-0.230	-0.340	0.000
2020/01/31 08:27:04.4	313.210	-0.230	-0.330	0.000
2020/01/31 08:27:04.5	313.230	-0.240	-0.310	0.010
2020/01/31 08:27:04.6	313.240	-0.250	-0.300	0.010
2020/01/31 08:27:04.7	313.260	-0.250	-0.280	0.010
2020/01/31 08:27:04.8	313.270	-0.260	-0.270	0.020
2020/01/31 08:27:04.9	313.290	-0.260	-0.250	0.020
2020/01/31 08:27:05.0	313.300	-0.260	-0.240	0.020
2020/01/31 08:27:05.1	313.310	-0.260	-0.220	0.030
2020/01/31 08:27:05.2	313.320	-0.260	-0.210	0.040
2020/01/31 08:27:05.3	313.320	-0.260	-0.190	0.050
2020/01/31 08:27:05.4	313.320	-0.250	-0.170	0.060
2020/01/31 08:27:05.5	313.320	-0.250	-0.150	0.070
2020/01/31 08:27:05.6	313.320	-0.240	-0.130	0.080
2020/01/31 08:27:05.7	313.320	-0.230	-0.110	0.100
2020/01/31 08:27:05.8	313.320	-0.220	-0.090	0.120
2020/01/31 08:27:05.9	313.320	-0.210	-0.070	0.140
2020/01/31 08:27:06.0	313.310	-0.200	-0.050	0.160
2020/01/31 08:27:06.1	313.300	-0.190	-0.020	0.180
2020/01/31 08:27:06.2	313.300	-0.170	-0.000	0.210
2020/01/31 08:27:06.3	313.290	-0.160	0.020	0.230
2020/01/31 08:27:06.4	313.270	-0.140	0.050	0.260
2020/01/31 08:27:06.5	313.260	-0.130	0.070	0.290
2020/01/31 08:27:06.6	313.250	-0.120	0.100	0.310
2020/01/31 08:27:06.7	313.240	-0.100	0.120	0.340
2020/01/31 08:27:06.8	313.230	-0.080	0.140	0.360
2020/01/31 08:27:06.9	313.210	-0.070	0.160	0.380
2020/01/31 08:27:07.0	313.200	-0.050	0.180	0.400
2020/01/31 08:27:07.1	313.180	-0.040	0.190	0.430
2020/01/31 08:27:07.2	313.170	-0.020	0.210	0.450
2020/01/31 08:27:07.3	313.150	-0.010	0.220	0.470
2020/01/31 08:27:07.4	313.120	0.010	0.230	0.480
2020/01/31 08:27:07.5	313.100	0.020	0.240	0.500
2020/01/31 08:27:07.6	313.080	0.030	0.250	0.520
2020/01/31 08:27:07.7	313.060	0.050	0.260	0.530
2020/01/31 08:27:07.8	313.040	0.060	0.270	0.550
2020/01/31 08:27:07.9	313.020	0.070	0.270	0.570
2020/01/31 08:27:08.0	313.000	0.080	0.280	0.580
2020/01/31 08:27:08.1	312.980	0.090	0.280	0.600
2020/01/31 08:27:08.2	312.960	0.100	0.280	0.610
2020/01/31 08:27:08.3	312.940	0.110	0.280	0.630
2020/01/31 08:27:08.4	312.920	0.120	0.290	0.640
2020/01/31 08:27:08.5	312.900	0.120	0.290	0.660
2020/01/31 08:27:08.6	312.870	0.130	0.290	0.670
2020/01/31 08:27:08.7	312.850	0.130	0.290	0.680
2020/01/31 08:27:08.8	312.830	0.140	0.280	0.680
2020/01/31 08:27:08.9	312.810	0.140	0.280	0.690
2020/01/31 08:27:09.0	312.790	0.140	0.280	0.690
2020/01/31 08:27:09.1	312.770	0.150	0.270	0.690
2020/01/31 08:27:09.2	312.750	0.150	0.270	0.690
2020/01/31 08:27:09.3	312.740	0.150	0.260	0.690
2020/01/31 08:27:09.4	312.720	0.150	0.250	0.680
2020/01/31 08:27:09.5	312.710	0.150	0.240	0.660
2020/01/31 08:27:09.6	312.700	0.140	0.230	0.650
2020/01/31 08:27:09.7	312.690	0.140	0.210	0.630
2020/01/31 08:27:09.8	312.690	0.140	0.200	0.600
2020/01/31 08:27:09.9	312.680	0.140	0.180	0.570
2020/01/31 08:27:10.0	312.680	0.130	0.160	0.540
2020/01/31 08:27:10.1	312.690	0.130	0.140	0.510
2020/01/31 08:27:10.2	312.700	0.130	0.120	0.470
2020/01/31 08:27:10.3	312.710	0.120	0.090	0.430
2020/01/31 08:27:10.4	312.710	0.120	0.070	0.390
2020/01/31 08:27:10.5	312.730	0.110	0.040	0.340
2020/01/31 08:27:10.6	312.740	0.110	0.010	0.300
2020/01/31 08:27:10.7	312.760	0.100	-0.020	0.260
2020/01/31 08:27:10.8	312.770	0.100	-0.050	0.220
2020/01/31 08:27:10.9	312.790	0.090	-0.080	0.180
2020/01/31 08:27:11.0	312.800	0.080	-0.110	0.150
2020/01/31 08:27:11.1	312.810	0.080	-0.140	0.110
2020/01/31 08:27:11.2	312.830	0.070	-0.170	0.080
2020/01/31 08:27:11.3	312.840	0.060	-0.200	0.040
2020/01/31 08:27:11.4	312.850	0.050	-0.240	0.010
2020/01/31 08:27:11.5	312.850	0.040	-0.270	-0.020
2020/01/31 08:27:11.6	312.860	0.030	-0.300	-0.050
2020/01/31 08:27:11.7	312.870	0.020	-0.320	-0.080
2020/01/31 08:27:11.8	312.870	0.010	-0.350	-0.100
2020/01/31 08:27:11.9	312.880	-0.000	-0.380	-0.130
2020/01/31 08:27:12.0	312.880	-0.010	-0.410	-0.150
2020/01/31 08:27:12.1	312.890	-0.020	-0.440	-0.170
2020/01/31 08:27:12.2	312.890	-0.030	-0.460	-0.190
2020/01/31 08:27:12.3	312.890	-0.040	-0.490	-0.210
2020/01/31 08:27:12.4	312.900	-0.050	-0.510	-0.230
2020/01/31 08:27:12.5	312.900	-0.060	-0.540	-0.250
2020/01/31 08:27:12.6	312.900	-0.070	-0.560	-0.260
2020/01/31 08:27:12.7	312.910	-0.070	-0.580	-0.270
2020/01/31 08:27:12.8	312.910	-0.080	-0.610	-0.280
2020/01/31 08:27:12.9	312.920	-0.080	-0.630	-0.290
2020/01/31 08:27:13.0	312.930	-0.090	-0.650	-0.300
2020/01/31 08:27:13.1	312.930	-0.090	-0.670	-0.300
2020/01/31 08:27:13.2	312.940	-0.090	-0.690	-0.310
2020/01/31 08:27:13.3	312.950	-0.090	-0.710	-0.310
2020/01/31 08:27:13.4	312.960	-0.090	-0.730	-0.320
2020/01/31 08:27:13.5	312.970	-0.090	-0.750	-0.320
2020/01/31 08:27:13.6	312.980	-0.080	-0.770	-0.310
2020/01/31 08:27:13.7	312.990	-0.080	-0.780	-0.310
2020/01/31 08:27:13.8	312.990	-0.070	-0.800	-0.300
2020/01/31 08:27:13.9	313.000	-0.060	-0.810	-0.300
2020/01/31 08:27:14.0	313.010	-0.050	-0.820	-0.290
2020/01/31 08:27:14.1	313.010	-0.040	-0.830	-0.270
2020/01/31 08:27:14.2	313.020	-0.030	-0.830	-0.260
2020/01/31 08:27:14.3	313.020	-0.020	-0.840	-0.240
2020/01/31 08:27:14.4	313.040	-0.010	-0.840	-0.220
2020/01/31 08:27:14.5	313.040	0.000	-0.840	-0.210
2020/01/31 08:27:14.6	313.040	0.010	-0.840	-0.190
2020/01/31 08:27:14.7	313.050	0.030	-0.840	-0.170
2020/01/31 08:27:14.8	313.050	0.040	-0.840	-0.160
2020/01/31 08:27:14.9	313.060	0.050	-0.830	-0.140
2020/01/31 08:27:15.0	313.060	0.060	-0.820	-0.120
2020/01/31 08:27:15.1	313.070	0.070	-0.820	-0.110
2020/01/31 08:27:15.2	313.070	0.080	-0.810	-0.090
2020/01/31 08:27:15.3	313.080	0.090	-0.800	-0.080
2020/01/31 08:27:15.4	313.080	0.100	-0.780	-0.070
2020/01/31 08:27:15.5	313.090	0.110	-0.770	-0.060
2020/01/31 08:27:15.6	313.100	0.120	-0.760	-0.040
2020/01/31 08:27:15.7	313.110	0.120	-0.740	-0.030
2020/01/31 08:27:15.8	313.110	0.130	-0.730	-0.020
2020/01/31 08:27:15.9	313.120	0.130	-0.710	-0.010
2020/01/31 08:27:16.0	313.130	0.130	-0.690	-0.000
2020/01/31 08:27:16.1	313.140	0.130	-0.670	0.010
2020/01/31 08:27:16.2	313.150	0.130	-0.650	0.010
2020/01/31 08:27:16.3	313.160	0.130	-0.630	0.020
2020/01/31 08:27:16.4	313.170	0.120	-0.610	0.030
2020/01/31 08:27:16.5	313.180	0.120	-0.590	0.040
2020/01/31 08:27:16.6	313.190	0.110	-0.560	0.050
2020/01/31 08:27:16.7	313.200	0.100	-0.530	0.060
2020/01/31 08:27:16.8	313.210	0.090	-0.500	0.070
2020/01/31 08:27:16.9	313.230	0.090	-0.470	0.080
2020/01/31 08:27:17.0	313.240	0.070	-0.440	0.090
2020/01/31 08:27:17.1	313.250	0.060	-0.410	0.100
2020/01/31 08:27:17.2	313.260	0.050	-0.370	0.110
2020/01/31 08:27:17.3	313.280	0.040	-0.340	0.120
2020/01/31 08:27:17.4	313.290	0.020	-0.290	0.130
2020/01/31 08:27:17.5	313.300	0.010	-0.250	0.140
2020/01/31 08:27:17.6	313.310	-0.010	-0.210	0.160
2020/01/31 08:27:17.7	313.320	-0.020	-0.170	0.180
2020/01/31 08:27:17.8	313.330	-0.040	-0.130	0.200
2020/01/31 08:27:17.9	313.330	-0.050	-0.080	0.220
2020/01/31 08:27:18.0	313.340	-0.070	-0.040	0.240
2020/01/31 08:27:18.1	313.340	-0.080	0.010	0.270
2020/01/31 08:27:18.2	313.340	-0.100	0.060	0.300
2020/01/31 08:27:18.3	313.340	-0.110	0.110	0.330
2020/01/31 08:27:18.4	313.340	-0.130	0.160	0.360
2020/01/31 08:27:18.5	313.330	-0.140	0.210	0.390
2020/01/31 08:27:18.6	313.320	-0.150	0.250	0.430
2020/01/31 08:27:18.7	313.310	-0.170	0.300	0.460
2020/01/31 08:27:18.8	313.300	-0.180	0.350	0.500
2020/01/31 08:27:18.9	313.290	-0.190	0.390	0.530
2020/01/31 08:27:19.0	313.270	-0.200	0.430	0.570
2020/01/31 08:27:19.1	313.250	-0.210	0.470	0.610
2020/01/31 08:27:19.2	313.240	-0.220	0.510	0.640
2020/01/31 08:27:19.3	313.220	-0.230	0.540	0.670
2020/01/31 08:27:19.4	313.190	-0.240	0.570	0.700
2020/01/31 08:27:19.5	313.170	-0.240	0.590	0.730
2020/01/31 08:27:19.6	313.150	-0.250	0.620	0.760
2020/01/31 08:27:19.7	313.120	-0.250	0.630	0.780
2020/01/31 08:27:19.8	313.100	-0.250	0.640	0.810
2020/01/31 08:27:19.9	313.070	-0.260	0.650	0.820
2020/01/31 08:27:20.0	313.050	-0.260	0.650	0.840
2020/01/31 08:27:20.1	313.030	-0.260	0.640	0.850
2020/01/31 08:27:20.2	313.000	-0.250	0.630	0.860
2020/01/31 08:27:20.3	312.980	-0.250	0.620	0.870
2020/01/31 08:27:20.4	312.960	-0.240	0.600	0.870
2020/01/31 08:27:20.5	312.940	-0.240	0.570	0.870
2020/01/31 08:27:20.6	312.910	-0.230	0.540	0.870
2020/01/31 08:27:20.7	312.890	-0.220	0.510	0.860
2020/01/31 08:27:20.8	312.870	-0.210	0.470	0.850
2020/01/31 08:27:20.9	312.850	-0.200	0.420	0.840
2020/01/31 08:27:21.0	312.830	-0.190	0.380	0.820
2020/01/31 08:27:21.1	312.810	-0.170	0.330	0.800
2020/01/31 08:27:21.2	312.790	-0.160	0.270	0.780
2020/01/31 08:27:21.3	312.770	-0.140	0.220	0.760
2020/01/31 08:27:21.4	312.750	-0.120	0.160	0.730
2020/01/31 08:27:21.5	312.740	-0.100	0.100	0.710
2020/01/31 08:27:21.6	312.720	-0.080	0.040	0.680
2020/01/31 08:27:21.7	312.710	-0.060	-0.020	0.650
2020/01/31 08:27:21.8	312.700	-0.040	-0.080	0.620
2020/01/31 08:27:21.9	312.690	-0.020	-0.140	0.590
2020/01/31 08:27:22.0	312.690	0.010	-0.200	0.560
2020/01/31 08:27:22.1	312.680	0.030	-0.250	0.530
2020/01/31 08:27:22.2	312.670	0.050	-0.310	0.500
2020/01/31 08:27:22.3	312.660	0.080	-0.360	0.470
2020/01/31 08:27:22.4	312.660	0.100	-0.410	0.440
2020/01/31 08:27:22.5	312.650	0.120	-0.450	0.410
2020/01/31 08:27:22.6	312.650	0.140	-0.500	0.390
2020/01/31 08:27:22.7	312.640	0.170	-0.540	0.360
2020/01/31 08:27:22.8	312.640	0.190	-0.570	0.330
2020/01/31 08:27:22.9	312.630	0.210	-0.600	0.310
2020/01/31 08:27:23.0	312.630	0.230	-0.630	0.290
2020/01/31 08:27:23.1	312.630	0.250	-0.660	0.260
2020/01/31 08:27:23.2	312.630	0.270	-0.680	0.240
2020/01/31 08:27:23.3	312.630	0.280	-0.700	0.220
2020/01/31 08:27:23.4	312.630	0.300	-0.720	0.200
2020/01/31 08:27:23.5	312.640	0.310	-0.730	0.180
2020/01/31 08:27:23.6	312.640	0.330	-0.740	0.160
2020/01/31 08:27:23.7	312.650	0.340	-0.760	0.140
2020/01/31 08:27:23.8	312.660	0.350	-0.760	0.120
2020/01/31 08:27:23.9	312.670	0.360	-0.770	0.100
2020/01/31 08:27:24.0	312.680	0.370	-0.780	0.080
2020/01/31 08:27:24.1	312.690	0.370	-0.780	0.050
2020/01/31 08:27:24.2	312.700	0.380	-0.790	0.030
2020/01/31 08:27:24.3	312.720	0.380	-0.790	0.000
2020/01/31 08:27:24.4	312.740	0.390	-0.800	-0.020
2020/01/31 08:27:24.5	312.760	0.390	-0.800	-0.040
2020/01/31 08:27:24.6	312.780	0.390	-0.800	-0.070
2020/01/31 08:27:24.7	312.800	0.390	-0.800	-0.090
2020/01/31 08:27:24.8	312.820	0.390	-0.800	-0.120
2020/01/31 08:27:24.9	312.840	0.380	-0.800	-0.140
2020/01/31 08:27:25.0	312.870	0.380	-0.790	-0.160
2020/01/31 08:27:25.1	312.890	0.370	-0.790	-0.190
2020/01/31 08:27:25.2	312.910	0.360	-0.780	-0.210
2020/01/31 08:27:25.3	312.940	0.350	-0.780	-0.230
2020/01/31 08:27:25.4	312.960	0.340	-0.770	-0.250
2020/01/31 08:27:25.5	312.990	0.330	-0.760	-0.270
2020/01/31 08:27:25.6	313.010	0.310	-0.750	-0.290
2020/01/31 08:27:25.7	313.040	0.300	-0.730	-0.300
2020/01/31 08:27:25.8	313.060	0.280	-0.720	-0.320
2020/01/31 08:27:25.9	313.080	0.260	-0.700	-0.330
2020/01/31 08:27:26.0	313.100	0.250	-0.680	-0.340
2020/01/31 08:27:26.1	313.120	0.220	-0.650	-0.340
2020/01/31 08:27:26.2	313.140	0.200	-0.620	-0.350
2020/01/31 08:27:26.3	313.160	0.180	-0.600	-0.350
2020/01/31 08:27:26.4	313.170	0.150	-0.560	-0.350
2020/01/31 08:27:26.5	313.190	0.130	-0.530	-0.340
2020/01/31 08:27:26.6	313.200	0.100	-0.490	-0.340
2020/01/31 08:27:26.7	313.210	0.080	-0.460	-0.330
2020/01/31 08:27:26.8	313.220	0.050	-0.420	-0.320
2020/01/31 08:27:26.9	313.230	0.020	-0.380	-0.300
2020/01/31 08:27:27.0	313.240	-0.000	-0.340	-0.280
2020/01/31 08:27:27.1	313.240	-0.030	-0.300	-0.270
2020/01/31 08:27:27.2	313.250	-0.060	-0.260	-0.240
2020/01/31 08:27:27.3	313.260	-0.080	-0.220	-0.220
2020/01/31 08:27:27.4	313.270	-0.110	-0.180	-0.190
2020/01/31 08:27:27.5	313.270	-0.130	-0.140	-0.170
2020/01/31 08:27:27.6	313.270	-0.160	-0.110	-0.140
2020/01/31 08:27:27.7	313.280	-0.180	-0.070	-0.110
2020/01/31 08:27:27.8	313.280	-0.200	-0.040	-0.090
2020/01/31 08:27:27.9	313.280	-0.220	-0.010	-0.060
2020/01/31 08:27:28.0	313.280	-0.240	0.010	-0.030
2020/01/31 08:27:28.1	313.280	-0.250	0.030	-0.000
2020/01/31 08:27:28.2	313.280	-0.270	0.050	0.020
2020/01/31 08:27:28.3	313.290	-0.280	0.070	0.050
2020/01/31 08:27:28.4	313.280	-0.290	0.090	0.070
2020/01/31 08:27:28.5	313.280	-0.300	0.100	0.100
2020/01/31 08:27:28.6	313.280	-0.310	0.110	0.120
2020/01/31 08:27:28.7	313.280	-0.320	0.110	0.150
2020/01/31 08:27:28.8	313.270	-0.320	0.110	0.170
2020/01/31 08:27:28.9	313.270	-0.320	0.110	0.190
2020/01/31 08:27:29.0	313.270	-0.330	0.110	0.210
2020/01/31 08:27:29.1	313.270	-0.330	0.110	0.230
2020/01/31 08:27:29.2	313.260	-0.330	0.110	0.250
2020/01/31 08:27:29.3	313.260	-0.320	0.100	0.270
2020/01/31 08:27:29.4	313.250	-0.320	0.090	0.280
2020/01/31 08:27:29.5	313.250	-0.320	0.080	0.300
2020/01/31 08:27:29.6	313.240	-0.310	0.080	0.320
2020/01/31 08:27:29.7	313.240	-0.310	0.070	0.330
2020/01/31 08:27:29.8	313.230	-0.300	0.060	0.350
2020/01/31 08:27:29.9	313.230	-0.300	0.050	0.370
2020/01/31 08:27:30.0	313.220	-0.290	0.050	0.380
2020/01/31 08:27:30.1	313.220	-0.280	0.040	0.400
2020/01/31 08:27:30.2	313.220	-0.280	0.040	0.410
2020/01/31 08:27:30.3	313.210	-0.270	0.030	0.420
2020/01/31 08:27:30.4	313.200	-0.260	0.040	0.440
2020/01/31 08:27:30.5	313.200	-0.250	0.030	0.450
2020/01/31 08:27:30.6	313.190	-0.250	0.030	0.460
2020/01/31 08:27:30.7	313.190	-0.240	0.030	0.480
2020/01/31 08:27:30.8	313.180	-0.230	0.040	0.490
2020/01/31 08:27:30.9	313.180	-0.230	0.040	0.500
2020/01/31 08:27:31.0	313.170	-0.220	0.040	0.510
2020/01/31 08:27:31.1	313.170	-0.220	0.050	0.520
2020/01/31 08:27:31.2	313.160	-0.210	0.060	0.540
2020/01/31 08:27:31.3	313.150	-0.210	0.060	0.550
2020/01/31 08:27:31.4	313.140	-0.200	0.060	0.560
2020/01/31 08:27:31.5	313.130	-0.200	0.070	0.570
2020/01/31 08:27:31.6	313.120	-0.190	0.080	0.580
2020/01/31 08:27:31.7	313.110	-0.190	0.090	0.600
2020/01/31 08:27:31.8	313.090	-0.190	0.090	0.610
2020/01/31 08:27:31.9	313.080	-0.190	0.100	0.620
2020/01/31 08:27:32.0	313.060	-0.180	0.100	0.620
2020/01/31 08:27:32.1	313.050	-0.180	0.100	0.630
2020/01/31 08:27:32.2	313.030	-0.180	0.100	0.630
2020/01/31 08:27:32.3	313.010	-0.170	0.100	0.630
2020/01/31 08:27:32.4	312.990	-0.170	0.100	0.630
2020/01/31 08:27:32.5	312.980	-0.170	0.090	0.630
2020/01/31 08:27:32.6	312.960	-0.160	0.080	0.620
2020/01/31 08:27:32.7	312.940	-0.160	0.070	0.610
2020/01/31 08:27:32.8	312.920	-0.150	0.050	0.590
2020/01/31 08:27:32.9	312.910	-0.140	0.040	0.580
2020/01/31 08:27:33.0	312.890	-0.130	0.010	0.550
2020/01/31 08:27:33.1	312.880	-0.120	-0.010	0.530
2020/01/31 08:27:33.2	312.860	-0.110	-0.040	0.500
2020/01/31 08:27:33.3	312.850	-0.090	-0.070	0.480
2020/01/31 08:27:33.4	312.850	-0.080	-0.110	0.440
2020/01/31 08:27:33.5	312.840	-0.060	-0.140	0.410
2020/01/31 08:27:33.6	312.830	-0.040	-0.170	0.380
2020/01/31 08:27:33.7	312.820	-0.020	-0.210	0.350
2020/01/31 08:27:33.8	312.810	0.000	-0.250	0.310
2020/01/31 08:27:33.9	312.800	0.030	-0.280	0.280
2020/01/31 08:27:34.0	312.800	0.050	-0.320	0.250
2020/01/31 08:27:34.1	312.790	0.080	-0.360	0.220
2020/01/31 08:27:34.2	312.790	0.110	-0.390	0.190
2020/01/31 08:27:34.3	312.790	0.140	-0.430	0.160
2020/01/31 08:27:34.4	312.790	0.170	-0.460	0.140
2020/01/31 08:27:34.5	312.790	0.200	-0.490	0.110
2020/01/31 08:27:34.6	312.790	0.230	-0.520	0.090
2020/01/31 08:27:34.7	312.790	0.270	-0.550	0.070
2020/01/31 08:27:34.8	312.800	0.300	-0.580	0.050
2020/01/31 08:27:34.9	312.800	0.330	-0.600	0.030
2020/01/31 08:27:35.0	312.810	0.360	-0.620	0.020
2020/01/31 08:27:35.1	312.810	0.390	-0.640	0.010
2020/01/31 08:27:35.2	312.820	0.410	-0.660	-0.000
2020/01/31 08:27:35.3	312.830	0.440	-0.670	-0.010
2020/01/31 08:27:35.4	312.830	0.470	-0.680	-0.020
2020/01/31 08:27:35.5	312.840	0.490	-0.690	-0.020
2020/01/31 08:27:35.6	312.850	0.510	-0.700	-0.030
2020/01/31 08:27:35.7	312.870	0.530	-0.700	-0.030
2020/01/31 08:27:35.8	312.880	0.540	-0.700	-0.020
2020/01/31 08:27:35.9	312.890	0.560	-0.700	-0.020
2020/01/31 08:27:36.0	312.900	0.570	-0.700	-0.010
2020/01/31 08:27:36.1	312.910	0.570	-0.690	-0.010
2020/01/31 08:27:36.2	312.930	0.580	-0.680	0.000
2020/01/31 08:27:36.3	312.940	0.580	-0.670	0.020
2020/01/31 08:27:36.4	312.960	0.580	-0.660	0.030
2020/01/31 08:27:36.5	312.970	0.580	-0.650	0.050
2020/01/31 08:27:36.6	312.970	0.570	-0.640	0.060
2020/01/31 08:27:36.7	312.980	0.560	-0.620	0.080
2020/01/31 08:27:36.8	312.990	0.550	-0.610	0.100
2020/01/31 08:27:36.9	313.000	0.540	-0.590	0.120
2020/01/31 08:27:37.0	313.000	0.520	-0.570	0.130
2020/01/31 08:27:37.1	313.010	0.500	-0.550	0.150
2020/01/31 08:27:37.2	313.010	0.480	-0.530	0.160
2020/01/31 08:27:37.3	313.020	0.450	-0.520	0.180
2020/01/31 08:27:37.4	313.010	0.430	-0.500	0.190
2020/01/31 08:27:37.5	313.020	0.400	-0.480	0.200
2020/01/31 08:27:37.6	313.020	0.370	-0.460	0.210
2020/01/31 08:27:37.7	313.030	0.340	-0.440	0.220
2020/01/31 08:27:37.8	313.040	0.310	-0.430	0.220
2020/01/31 08:27:37.9	313.050	0.270	-0.410	0.230
2020/01/31 08:27:38.0	313.060	0.240	-0.400	0.230
2020/01/31 08:27:38.1	313.070	0.210	-0.390	0.230
2020/01/31 08:27:38.2	313.080	0.170	-0.380	0.220
2020/01/31 08:27:38.3	313.090	0.140	-0.370	0.220
2020/01/31 08:27:38.4	313.090	0.100	-0.360	0.210
2020/01/31 08:27:38.5	313.100	0.070	-0.350	0.200
2020/01/31 08:27:38.6	313.110	0.030	-0.340	0.200
2020/01/31 08:27:38.7	313.130	-0.000	-0.330	0.190
2020/01/31 08:27:38.8	313.140	-0.040	-0.320	0.190
2020/01/31 08:27:38.9	313.150	-0.070	-0.320	0.180
2020/01/31 08:27:39.0	313.160	-0.100	-0.310	0.180
2020/01/31 08:27:39.1	313.170	-0.130	-0.300	0.180
2020/01/31 08:27:39.2	313.180	-0.160	-0.300	0.170
2020/01/31 08:27:39.3	313.190	-0.190	-0.290	0.170
2020/01/31 08:27:39.4	313.200	-0.210	-0.290	0.170
2020/01/31 08:27:39.5	313.210	-0.240	-0.280	0.170
2020/01/31 08:27:39.6	313.220	-0.260	-0.270	0.160
2020/01/31 08:27:39.7	313.230	-0.290	-0.270	0.160
2020/01/31 08:27:39.8	313.240	-0.310	-0.260	0.160
2020/01/31 08:27:39.9	313.250	-0.330	-0.250	0.150
2020/01/31 08:27:40.0	313.260	-0.350	-0.250	0.150
2020/01/31 08:27:40.1	313.270	-0.360	-0.240	0.140
2020/01/31 08:27:40.2	313.290	-0.380	-0.230	0.140
2020/01/31 08:27:40.3	313.300	-0.390	-0.230	0.130
2020/01/31 08:27:40.4	313.310	-0.400	-0.220	0.120
2020/01/31 08:27:40.5	313.320	-0.410	-0.210	0.120
2020/01/31 08:27:40.6	313.330	-0.410	-0.200	0.110
2020/01/31 08:27:40.7	313.350	-0.420	-0.190	0.110
2020/01/31 08:27:40.8	313.360	-0.420	-0.180	0.100
2020/01/31 08:27:40.9	313.370	-0.430	-0.170	0.100
2020/01/31 08:27:41.0	313.370	-0.430	-0.160	0.090
2020/01/31 08:27:41.1	313.380	-0.430	-0.140	0.090
2020/01/31 08:27:41.2	313.380	-0.430	-0.130	0.090
2020/01/31 08:27:41.3	313.390	-0.420	-0.110	0.090
2020/01/31 08:27:41.4	313.380	-0.420	-0.100	0.090
2020/01/31 08:27:41.5	313.380	-0.420	-0.080	0.090
2020/01/31 08:27:41.6	313.380	-0.410	-0.060	0.090
2020/01/31 08:27:41.7	313.380	-0.400	-0.030	0.100
2020/01/31 08:27:41.8	313.370	-0.400	-0.010	0.100
2020/01/31 08:27:41.9	313.360	-0.390	0.020	0.110
2020/01/31 08:27:42.0	313.350	-0.380	0.040	0.120
2020/01/31 08:27:42.1	313.340	-0.370	0.070	0.120
2020/01/31 08:27:42.2	313.330	-0.360	0.090	0.130
2020/01/31 08:27:42.3	313.310	-0.350	0.120	0.140
2020/01/31 08:27:42.4	313.290	-0.340	0.150	0.150
2020/01/31 08:27:42.5	313.270	-0.320	0.170	0.170
2020/01/31 08:27:42.6	313.250	-0.310	0.190	0.180
2020/01/31 08:27:42.7	313.230	-0.300	0.210	0.190
2020/01/31 08:27:42.8	313.210	-0.290	0.230	0.210
2020/01/31 08:27:42.9	313.190	-0.270	0.240	0.220
2020/01/31 08:27:43.0	313.160	-0.260	0.260	0.230
2020/01/31 08:27:43.1	313.140	-0.240	0.270	0.250
2020/01/31 08:27:43.2	313.110	-0.230	0.280	0.260
2020/01/31 08:27:43.3	313.090	-0.220	0.290	0.270
2020/01/31 08:27:43.4	313.060	-0.200	0.290	0.280
2020/01/31 08:27:43.5	313.030	-0.180	0.290	0.290
2020/01/31 08:27:43.6	313.010	-0.170	0.290	0.300
2020/01/31 08:27:43.7	312.980	-0.150	0.290	0.310
2020/01/31 08:27:43.8	312.960	-0.140	0.280	0.310
2020/01/31 08:27:43.9	312.930	-0.120	0.280	0.320
2020/01/31 08:27:44.0	312.910	-0.100	0.270	0.320
2020/01/31 08:27:44.1	312.890	-0.090	0.250	0.320
2020/01/31 08:27:44.2	312.870	-0.070	0.240	0.320
2020/01/31 08:27:44.3	312.850	-0.050	0.220	0.320
2020/01/31 08:27:44.4	312.840	-0.040	0.200	0.310
2020/01/31 08:27:44.5	312.830	-0.020	0.180	0.310
2020/01/31 08:27:44.6	312.820	-0.000	0.160	0.300
2020/01/31 08:27:44.7	312.800	0.020	0.130	0.290
2020/01/31 08:27:44.8	312.800	0.030	0.110	0.280
2020/01/31 08:27:44.9	312.790	0.050	0.080	0.270
2020/01/31 08:27:45.0	312.780	0.070	0.050	0.260
2020/01/31 08:27:45.1	312.780	0.080	0.020	0.240
2020/01/31 08:27:45.2	312.770	0.100	-0.010	0.230
2020/01/31 08:27:45.3	312.770	0.110	-0.040	0.210
2020/01/31 08:27:45.4	312.770	0.130	-0.070	0.200
2020/01/31 08:27:45.5	312.770	0.140	-0.100	0.180
2020/01/31 08:27:45.6	312.760	0.150	-0.130	0.160
2020/01/31 08:27:45.7	312.760	0.160	-0.160	0.140
2020/01/31 08:27:45.8	312.760	0.170	-0.190	0.130
2020/01/31 08:27:45.9	312.760	0.180	-0.220	0.110
2020/01/31 08:27:46.0	312.760	0.190	-0.240	0.090
2020/01/31 08:27:46.1	312.750	0.200	-0.270	0.080
2020/01/31 08:27:46.2	312.750	0.210	-0.290	0.060
2020/01/31 08:27:46.3	312.750	0.210	-0.310	0.040
2020/01/31 08:27:46.4	312.740	0.220	-0.330	0.030
2020/01/31 08:27:46.5	312.740	0.220	-0.350	0.010
2020/01/31 08:27:46.6	312.740	0.230	-0.370	-0.000
2020/01/31 08:27:46.7	312.730	0.230	-0.380	-0.010
2020/01/31 08:27:46.8	312.730	0.230	-0.400	-0.020
2020/01/31 08:27:46.9	312.730	0.230	-0.410	-0.030
2020/01/31 08:27:47.0	312.720	0.230	-0.420	-0.040
2020/01/31 08:27:47.1	312.720	0.230	-0.420	-0.040
2020/01/31 08:27:47.2	312.710	0.230	-0.430	-0.040
2020/01/31 08:27:47.3	312.710	0.230	-0.440	-0.040
2020/01/31 08:27:47.4	312.710	0.230	-0.440	-0.040
2020/01/31 08:27:47.5	312.700	0.230	-0.450	-0.040
2020/01/31 08:27:47.6	312.700	0.230	-0.450	-0.030
2020/01/31 08:27:47.7	312.690	0.230	-0.460	-0.030
2020/01/31 08:27:47.8	312.690	0.230	-0.460	-0.020
2020/01/31 08:27:47.9	312.680	0.230	-0.470	-0.010
2020/01/31 08:27:48.0	312.680	0.230	-0.480	-0.010
2020/01/31 08:27:48.1	312.670	0.240	-0.490	0.000
2020/01/31 08:27:48.2	312.670	0.240	-0.500	0.010
2020/01/31 08:27:48.3	312.670	0.240	-0.510	0.020
2020/01/31 08:27:48.4	312.680	0.240	-0.530	0.020
2020/01/31 08:27:48.5	312.680	0.240	-0.550	0.030
2020/01/31 08:27:48.6	312.680	0.250	-0.570	0.040
2020/01/31 08:27:48.7	312.680	0.250	-0.590	0.040
2020/01/31 08:27:48.8	312.690	0.260	-0.610	0.050
2020/01/31 08:27:48.9	312.690	0.260	-0.630	0.050
2020/01/31 08:27:49.0	312.700	0.260	-0.660	0.060
2020/01/31 08:27:49.1	312.710	0.270	-0.680	0.060
2020/01/31 08:27:49.2	312.720	0.270	-0.710	0.060
2020/01/31 08:27:49.3	312.740	0.280	-0.730	0.060
2020/01/31 08:27:49.4	312.770	0.280	-0.760	0.060
2020/01/31 08:27:49.5	312.780	0.280	-0.780	0.050
2020/01/31 08:27:49.6	312.800	0.290	-0.800	0.050
2020/01/31 08:27:49.7	312.820	0.290	-0.830	0.040
2020/01/31 08:27:49.8	312.850	0.290	-0.850	0.030
2020/01/31 08:27:49.9	312.870	0.280	-0.870	0.020
2020/01/31 08:27:50.0	312.900	0.280	-0.880	0.010
2020/01/31 08:27:50.1	312.920	0.280	-0.890	0.000
2020/01/31 08:27:50.2	312.950	0.270	-0.900	-0.010
2020/01/31 08:27:50.3	312.980	0.260	-0.910	-0.020
2020/01/31 08:27:50.4	313.000	0.250	-0.910	-0.030
2020/01/31 08:27:50.5	313.030	0.240	-0.910	-0.040
2020/01/31 08:27:50.6	313.060	0.230	-0.900	-0.040
2020/01/31 08:27:50.7	313.090	0.210	-0.890	-0.050
2020/01/31 08:27:50.8	313.120	0.190	-0.870	-0.060
2020/01/31 08:27:50.9	313.150	0.170	-0.850	-0.060
2020/01/31 08:27:51.0	313.180	0.150	-0.830	-0.060
2020/01/31 08:27:51.1	313.210	0.130	-0.800	-0.060
2020/01/31 08:27:51.2	313.230	0.110	-0.770	-0.060
2020/01/31 08:27:51.3	313.260	0.080	-0.730	-0.060
2020/01/31 08:27:51.4	313.280	0.050	-0.690	-0.050
2020/01/31 08:27:51.5	313.300	0.020	-0.640	-0.040
2020/01/31 08:27:51.6	313.320	-0.010	-0.590	-0.030
2020/01/31 08:27:51.7	313.340	-0.040	-0.540	-0.020
2020/01/31 08:27:51.8	313.350	-0.070	-0.490	-0.000
2020/01/31 08:27:51.9	313.370	-0.100	-0.430	0.010
2020/01/31 08:27:52.0	313.380	-0.130	-0.370	0.030
2020/01/31 08:27:52.1	313.390	-0.160	-0.310	0.050
2020/01/31 08:27:52.2	313.390	-0.190	-0.250	0.080
2020/01/31 08:27:52.3	313.400	-0.220	-0.190	0.100
2020/01/31 08:27:52.4	313.400	-0.250	-0.130	0.130
2020/01/31 08:27:52.5	313.400	-0.280	-0.070	0.160
2020/01/31 08:27:52.6	313.390	-0.310	-0.020	0.190
2020/01/31 08:27:52.7	313.390	-0.330	0.040	0.210
2020/01/31 08:27:52.8	313.380	-0.360	0.090	0.240
2020/01/31 08:27:52.9	313.370	-0.380	0.140	0.270
2020/01/31 08:27:53.0	313.350	-0.390	0.190	0.310
2020/01/31 08:27:53.1	313.340	-0.410	0.230	0.340
2020/01/31 08:27:53.2	313.320	-0.420	0.270	0.370
2020/01/31 08:27:53.3	313.290	-0.430	0.300	0.400
2020/01/31 08:27:53.4	313.260	-0.440	0.330	0.430
2020/01/31 08:27:53.5	313.230	-0.440	0.360	0.470
2020/01/31 08:27:53.6	313.200	-0.440	0.390	0.500
2020/01/31 08:27:53.7	313.170	-0.440	0.410	0.530
2020/01/31 08:27:53.8	313.140	-0.440	0.420	0.570
2020/01/31 08:27:53.9	313.100	-0.430	0.430	0.600
2020/01/31 08:27:54.0	313.070	-0.410	0.440	0.630
2020/01/31 08:27:54.1	313.030	-0.400	0.440	0.650
2020/01/31 08:27:54.2	313.000	-0.380	0.440	0.680
2020/01/31 08:27:54.3	312.960	-0.360	0.430	0.700
2020/01/31 08:27:54.4	312.920	-0.340	0.420	0.720
2020/01/31 08:27:54.5	312.880	-0.310	0.400	0.740
2020/01/31 08:27:54.6	312.850	-0.290	0.380	0.760
2020/01/31 08:27:54.7	312.810	-0.260	0.360	0.770
2020/01/31 08:27:54.8	312.780	-0.230	0.330	0.780
2020/01/31 08:27:54.9	312.750	-0.200	0.300	0.780
2020/01/31 08:27:55.0	312.720	-0.170	0.270	0.780
2020/01/31 08:27:55.1	312.690	-0.140	0.230	0.780
2020/01/31 08:27:55.2	312.670	-0.110	0.190	0.770
2020/01/31 08:27:55.3	312.640	-0.080	0.150	0.760
2020/01/31 08:27:55.4	312.620	-0.050	0.120	0.750
2020/01/31 08:27:55.5	312.590	-0.020	0.080	0.740
2020/01/31 08:27:55.6	312.570	0.010	0.040	0.720
2020/01/31 08:27:55.7	312.550	0.040	0.000	0.700
2020/01/31 08:27:55.8	312.530	0.060	-0.040	0.680
2020/01/31 08:27:55.9	312.510	0.080	-0.070	0.650
2020/01/31 08:27:56.0	312.490	0.100	-0.100	0.620
2020/01/31 08:27:56.1	312.480	0.120	-0.140	0.600
2020/01/31 08:27:56.2	312.460	0.140	-0.160	0.560
2020/01/31 08:27:56.3	312.450	0.150	-0.190	0.530
2020/01/31 08:27:56.4	312.450	0.160	-0.210	0.500
2020/01/31 08:27:56.5	312.430	0.170	-0.230	0.470
2020/01/31 08:27:56.6	312.420	0.170	-0.250	0.430
2020/01/31 08:27:56.7	312.410	0.170	-0.260	0.400
2020/01/31 08:27:56.8	312.410	0.170	-0.270	0.360
2020/01/31 08:27:56.9	312.400	0.170	-0.280	0.320
2020/01/31 08:27:57.0	312.390	0.170	-0.280	0.290
2020/01/31 08:27:57.1	312.390	0.160	-0.280	0.250
2020/01/31 08:27:57.2	312.390	0.150	-0.280	0.220
2020/01/31 08:27:57.3	312.390	0.140	-0.280	0.180
2020/01/31 08:27:57.4	312.390	0.130	-0.270	0.150
2020/01/31 08:27:57.5	312.390	0.110	-0.260	0.110
2020/01/31 08:27:57.6	312.390	0.100	-0.250	0.080
2020/01/31 08:27:57.7	312.400	0.090	-0.230	0.050
2020/01/31 08:27:57.8	312.400	0.070	-0.220	0.020
2020/01/31 08:27:57.9	312.410	0.050	-0.210	-0.010
2020/01/31 08:27:58.0	312.410	0.040	-0.190	-0.040
2020/01/31 08:27:58.1	312.420	0.020	-0.180	-0.070
2020/01/31 08:27:58.2	312.430	0.000	-0.170	-0.100
2020/01/31 08:27:58.3	312.440	-0.010	-0.150	-0.120
2020/01/31 08:27:58.4	312.460	-0.030	-0.140	-0.150
2020/01/31 08:27:58.5	312.470	-0.050	-0.130	-0.170
2020/01/31 08:27:58.6	312.480	-0.060	-0.120	-0.200
2020/01/31 08:27:58.7	312.500	-0.070	-0.110	-0.220
2020/01/31 08:27:58.8	312.510	-0.090	-0.110	-0.240
2020/01/31 08:27:58.9	312.530	-0.100	-0.100	-0.260
2020/01/31 08:27:59.0	312.550	-0.110	-0.100	-0.280
2020/01/31 08:27:59.1	312.570	-0.110	-0.100	-0.300
2020/01/31 08:27:59.2	312.590	-0.120	-0.100	-0.320
2020/01/31 08:27:59.3	312.620	-0.120	-0.110	-0.340
2020/01/31 08:27:59.4	312.640	-0.130	-0.120	-0.360
2020/01/31 08:27:59.5	312.670	-0.130	-0.130	-0.380
2020/01/31 08:27:59.6	312.700	-0.130	-0.140	-0.390
2020/01/31 08:27:59.7	312.730	-0.120	-0.150	-0.410
2020/01/31 08:27:59.8	312.760	-0.120	-0.170	-0.420
2020/01/31 08:27:59.9	312.790	-0.110	-0.190	-0.430
2020/01/31 08:28:00.0	312.820	-0.100	-0.210	-0.430
2020/01/31 08:28:00.1	312.850	-0.090	-0.230	-0.430
2020/01/31 08:28:00.2	312.870	-0.070	-0.250	-0.430
2020/01/31 08:28:00.3	312.900	-0.060	-0.270	-0.420
2020/01/31 08:28:00.4	312.940	-0.040	-0.290	-0.410
2020/01/31 08:28:00.5	312.960	-0.030	-0.310	-0.400
2020/01/31 08:28:00.6	312.990	-0.010	-0.330	-0.380
2020/01/31 08:28:00.7	313.010	0.010	-0.350	-0.360
2020/01/31 08:28:00.8	313.030	0.030	-0.370	-0.330
2020/01/31 08:28:00.9	313.050	0.050	-0.390	-0.300
2020/01/31 08:28:01.0	313.060	0.070	-0.400	-0.270
2020/01/31 08:28:01.1	313.080	0.090	-0.420	-0.230
2020/01/31 08:28:01.2	313.090	0.110	-0.430	-0.190
2020/01/31 08:28:01.3	313.100	0.130	-0.440	-0.150
2020/01/31 08:28:01.4	313.100	0.140	-0.450	-0.110
2020/01/31 08:28:01.5	313.110	0.160	-0.460	-0.060
2020/01/31 08:28:01.6	313.110	0.180	-0.470	-0.010
2020/01/31 08:28:01.7	313.110	0.190	-0.480	0.040
2020/01/31 08:28:01.8	313.120	0.210	-0.490	0.080
2020/01/31 08:28:01.9	313.120	0.220	-0.490	0.130
2020/01/31 08:28:02.0	313.110	0.230	-0.500	0.180
2020/01/31 08:28:02.1	313.110	0.240	-0.510	0.230
2020/01/31 08:28:02.2	313.110	0.250	-0.510	0.280
2020/01/31 08:28:02.3	313.110	0.260	-0.520	0.320
2020/01/31 08:28:02.4	313.100	0.260	-0.520	0.370
2020/01/31 08:28:02.5	313.090	0.260	-0.530	0.410
2020/01/31 08:28:02.6	313.090	0.270	-0.530	0.450
2020/01/31 08:28:02.7	313.090	0.260	-0.540	0.490
2020/01/31 08:28:02.8	313.080	0.260	-0.540	0.530
2020/01/31 08:28:02.9	313.080	0.260	-0.540	0.560
2020/01/31 08:28:03.0	313.070	0.250	-0.550	0.590
2020/01/31 08:28:03.1	313.070	0.240	-0.550	0.620
2020/01/31 08:28:03.2	313.070	0.230	-0.550	0.650
2020/01/31 08:28:03.3	313.070	0.220	-0.550	0.670
2020/01/31 08:28:03.4	313.060	0.210	-0.550	0.690
2020/01/31 08:28:03.5	313.060	0.200	-0.550	0.710
2020/01/31 08:28:03.6	313.060	0.180	-0.550	0.720
2020/01/31 08:28:03.7	313.060	0.170	-0.550	0.740
2020/01/31 08:28:03.8	313.060	0.150	-0.550	0.740
2020/01/31 08:28:03.9	313.050	0.130	-0.550	0.750
2020/01/31 08:28:04.0	313.050	0.110	-0.550	0.760
2020/01/31 08:28:04.1	313.050	0.090	-0.550	0.760
2020/01/31 08:28:04.2	313.040	0.070	-0.540	0.760
2020/01/31 08:28:04.3	313.040	0.050	-0.540	0.760
2020/01/31 08:28:04.4	313.040	0.030	-0.540	0.750
2020/01/31 08:28:04.5	313.040	0.010	-0.540	0.750
2020/01/31 08:28:04.6	313.030	-0.010	-0.530	0.740
2020/01/31 08:28:04.7	313.030	-0.030	-0.530	0.730
2020/01/31 08:28:04.8	313.020	-0.050	-0.520	0.720
2020/01/31 08:28:04.9	313.020	-0.070	-0.520	0.700
2020/01/31 08:28:05.0	313.010	-0.090	-0.510	0.680
2020/01/31 08:28:05.1	313.010	-0.110	-0.510	0.660
2020/01/31 08:28:05.2	313.010	-0.130	-0.510	0.640
2020/01/31 08:28:05.3	313.010	-0.150	-0.500	0.610
2020/01/31 08:28:05.4	313.020	-0.160	-0.500	0.590
2020/01/31 08:28:05.5	313.020	-0.180	-0.500	0.550
2020/01/31 08:28:05.6	313.020	-0.190	-0.500	0.520
2020/01/31 08:28:05.7	313.030	-0.210	-0.490	0.490
2020/01/31 08:28:05.8	313.030	-0.220	-0.490	0.450
2020/01/31 08:28:05.9	313.040	-0.230	-0.490	0.410
2020/01/31 08:28:06.0	313.050	-0.240	-0.490	0.370
2020/01/31 08:28:06.1	313.060	-0.240	-0.490	0.330
2020/01/31 08:28:06.2	313.070	-0.250	-0.480	0.290
2020/01/31 08:28:06.3	313.070	-0.250	-0.470	0.250
2020/01/31 08:28:06.4	313.080	-0.260	-0.470	0.220
2020/01/31 08:28:06.5	313.080	-0.260	-0.460	0.180
2020/01/31 08:28:06.6	313.090	-0.260	-0.450	0.150
2020/01/31 08:28:06.7	313.090	-0.260	-0.430	0.110
2020/01/31 08:28:06.8	313.100	-0.260	-0.420	0.080
2020/01/31 08:28:06.9	313.100	-0.260	-0.390	0.050
2020/01/31 08:28:07.0	313.100	-0.250	-0.370	0.030
2020/01/31 08:28:07.1	313.100	-0.250	-0.350	0.000
2020/01/31 08:28:07.2	313.100	-0.240	-0.320	-0.020
2020/01/31 08:28:07.3	313.100	-0.240	-0.280	-0.040
2020/01/31 08:28:07.4	313.100	-0.230	-0.250	-0.060
2020/01/31 08:28:07.5	313.100	-0.220	-0.210	-0.070
2020/01/31 08:28:07.6	313.090	-0.210	-0.170	-0.090
2020/01/31 08:28:07.7	313.080	-0.200	-0.130	-0.100
2020/01/31 08:28:07.8	313.080	-0.190	-0.090	-0.100
2020/01/31 08:28:07.9	313.070	-0.180	-0.040	-0.110
2020/01/31 08:28:08.0	313.060	-0.160	0.010	-0.110
2020/01/31 08:28:08.1	313.060	-0.150	0.050	-0.110
2020/01/31 08:28:08.2	313.050	-0.140	0.100	-0.110
2020/01/31 08:28:08.3	313.040	-0.120	0.150	-0.100
2020/01/31 08:28:08.4	313.030	-0.110	0.200	-0.090
2020/01/31 08:28:08.5	313.020	-0.090	0.250	-0.080
2020/01/31 08:28:08.6	313.010	-0.080	0.290	-0.070
2020/01/31 08:28:08.7	313.000	-0.060	0.340	-0.050
2020/01/31 08:28:08.8	312.990	-0.040	0.380	-0.030
2020/01/31 08:28:08.9	312.980	-0.030	0.420	-0.020
2020/01/31 08:28:09.0	312.970	-0.020	0.460	0.010
2020/01/31 08:28:09.1	312.960	-0.000	0.490	0.030
2020/01/31 08:28:09.2	312.950	0.010	0.530	0.050
2020/01/31 08:28:09.3	312.940	0.030	0.550	0.080
2020/01/31 08:28:09.4	312.930	0.040	0.580	0.100
2020/01/31 08:28:09.5	312.920	0.050	0.600	0.130
2020/01/31 08:28:09.6	312.910	0.060	0.620	0.160
2020/01/31 08:28:09.7	312.900	0.070	0.630	0.180
2020/01/31 08:28:09.8	312.890	0.080	0.640	0.210
2020/01/31 08:28:09.9	312.890	0.090	0.640	0.230
2020/01/31 08:28:10.0	312.880	0.090	0.640	0.250
2020/01/31 08:28:10.1	312.870	0.100	0.640	0.280
2020/01/31 08:28:10.2	312.870	0.110	0.620	0.300
2020/01/31 08:28:10.3	312.870	0.110	0.610	0.310
2020/01/31 08:28:10.4	312.860	0.120	0.590	0.330
2020/01/31 08:28:10.5	312.860	0.120	0.560	0.340
2020/01/31 08:28:10.6	312.860	0.120	0.530	0.350
2020/01/31 08:28:10.7	312.870	0.120	0.500	0.370
2020/01/31 08:28:10.8	312.870	0.130	0.460	0.370
2020/01/31 08:28:10.9	312.880	0.130	0.420	0.380
2020/01/31 08:28:11.0	312.890	0.130	0.370	0.380
2020/01/31 08:28:11.1	312.900	0.130	0.320	0.380
2020/01/31 08:28:11.2	312.910	0.130	0.270	0.380
2020/01/31 08:28:11.3	312.920	0.130	0.220	0.380
2020/01/31 08:28:11.4	312.930	0.130	0.160	0.370
2020/01/31 08:28:11.5	312.950	0.130	0.100	0.370
2020/01/31 08:28:11.6	312.960	0.120	0.050	0.360
2020/01/31 08:28:11.7	312.970	0.120	-0.010	0.350
2020/01/31 08:28:11.8	312.980	0.120	-0.070	0.350
2020/01/31 08:28:11.9	312.990	0.120	-0.130	0.340
2020/01/31 08:28:12.0	313.000	0.120	-0.190	0.330
2020/01/31 08:28:12.1	313.010	0.110	-0.250	0.310
2020/01/31 08:28:12.2	313.020	0.110	-0.310	0.300
2020/01/31 08:28:12.3	313.030	0.110	-0.360	0.290
2020/01/31 08:28:12.4	313.040	0.100	-0.420	0.280
2020/01/31 08:28:12.5	313.050	0.100	-0.470	0.260
2020/01/31 08:28:12.6	313.050	0.100	-0.520	0.240
2020/01/31 08:28:12.7	313.060	0.090	-0.570	0.230
2020/01/31 08:28:12.8	313.060	0.090	-0.610	0.210
2020/01/31 08:28:12.9	313.070	0.090	-0.650	0.180
2020/01/31 08:28:13.0	313.070	0.080	-0.690	0.160
2020/01/31 08:28:13.1	313.080	0.080	-0.730	0.140
2020/01/31 08:28:13.2	313.080	0.070	-0.760	0.120
2020/01/31 08:28:13.3	313.090	0.070	-0.790	0.090
2020/01/31 08:28:13.4	313.110	0.070	-0.810	0.070
2020/01/31 08:28:13.5	313.110	0.060	-0.830	0.040
2020/01/31 08:28:13.6	313.120	0.060	-0.850	0.020
2020/01/31 08:28:13.7	313.140	0.060	-0.870	-0.000
2020/01/31 08:28:13.8	313.150	0.050	-0.880	-0.030
2020/01/31 08:28:13.9	313.160	0.050	-0.890	-0.050
2020/01/31 08:28:14.0	313.170	0.050	-0.890	-0.070
2020/01/31 08:28:14.1	313.190	0.040	-0.900	-0.090
2020/01/31 08:28:14.2	313.200	0.040	-0.890	-0.110
2020/01/31 08:28:14.3	313.210	0.040	-0.890	-0.130
2020/01/31 08:28:14.4	313.230	0.030	-0.890	-0.140
2020/01/31 08:28:14.5	313.250	0.030	-0.880	-0.160
2020/01/31 08:28:14.6	313.260	0.020	-0.870	-0.170
2020/01/31 08:28:14.7	313.270	0.020	-0.850	-0.180
2020/01/31 08:28:14.8	313.280	0.010	-0.830	-0.180
2020/01/31 08:28:14.9	313.280	0.010	-0.820	-0.190
2020/01/31 08:28:15.0	313.290	0.000	-0.800	-0.190
2020/01/31 08:28:15.1	313.300	-0.000	-0.770	-0.190
2020/01/31 08:28:15.2	313.300	-0.010	-0.750	-0.190
2020/01/31 08:28:15.3	313.300	-0.020	-0.730	-0.180
2020/01/31 08:28:15.4	313.310	-0.020	-0.700	-0.170
2020/01/31 08:28:15.5	313.310	-0.030	-0.680	-0.170
2020/01/31 08:28:15.6	313.310	-0.040	-0.650	-0.150
2020/01/31 08:28:15.7	313.310	-0.040	-0.630	-0.140
2020/01/31 08:28:15.8	313.310	-0.050	-0.600	-0.130
2020/01/31 08:28:15.9	313.300	-0.060	-0.580	-0.110
2020/01/31 08:28:16.0	313.300	-0.060	-0.550	-0.090
2020/01/31 08:28:16.1	313.300	-0.070	-0.530	-0.080
2020/01/31 08:28:16.2	313.290	-0.070	-0.510	-0.060
2020/01/31 08:28:16.3	313.290	-0.080	-0.490	-0.030
2020/01/31 08:28:16.4	313.280	-0.080	-0.460	-0.010
2020/01/31 08:28:16.5	313.270	-0.090	-0.440	0.010
2020/01/31 08:28:16.6	313.260	-0.090	-0.420	0.040
2020/01/31 08:28:16.7	313.260	-0.100	-0.410	0.070
2020/01/31 08:28:16.8	313.250	-0.100	-0.390	0.090
2020/01/31 08:28:16.9	313.240	-0.100	-0.370	0.120
2020/01/31 08:28:17.0	313.230	-0.100	-0.360	0.150
2020/01/31 08:28:17.1	313.220	-0.100	-0.350	0.180
2020/01/31 08:28:17.2	313.220	-0.100	-0.330	0.210
2020/01/31 08:28:17.3	313.210	-0.100	-0.320	0.240
2020/01/31 08:28:17.4	313.200	-0.100	-0.310	0.270
2020/01/31 08:28:17.5	313.190	-0.090	-0.300	0.300
2020/01/31 08:28:17.6	313.180	-0.090	-0.290	0.320
2020/01/31 08:28:17.7	313.180	-0.080	-0.280	0.350
2020/01/31 08:28:17.8	313.170	-0.070	-0.270	0.380
2020/01/31 08:28:17.9	313.160	-0.070	-0.260	0.410
2020/01/31 08:28:18.0	313.160	-0.060	-0.260	0.430
2020/01/31 08:28:18.1	313.150	-0.050	-0.250	0.460
2020/01/31 08:28:18.2	313.150	-0.040	-0.240	0.490
2020/01/31 08:28:18.3	313.140	-0.030	-0.230	0.510
2020/01/31 08:28:18.4	313.120	-0.010	-0.230	0.530
2020/01/31 08:28:18.5	313.120	-0.000	-0.220	0.560
2020/01/31 08:28:18.6	313.110	0.010	-0.210	0.580
2020/01/31 08:28:18.7	313.110	0.020	-0.210	0.600
2020/01/31 08:28:18.8	313.100	0.040	-0.200	0.620
2020/01/31 08:28:18.9	313.100	0.050	-0.190	0.630
2020/01/31 08:28:19.0	313.090	0.060	-0.190	0.650
2020/01/31 08:28:19.1	313.090	0.070	-0.180	0.660
2020/01/31 08:28:19.2	313.080	0.090	-0.180	0.670
2020/01/31 08:28:19.3	313.080	0.100	-0.180	0.670
2020/01/31 08:28:19.4	313.060	0.110	-0.180	0.680
2020/01/31 08:28:19.5	313.060	0.120	-0.180	0.670
2020/01/31 08:28:19.6	313.060	0.130	-0.180	0.670
2020/01/31 08:28:19.7	313.060	0.140	-0.180	0.660
2020/01/31 08:28:19.8	313.060	0.140	-0.180	0.650
2020/01/31 08:28:19.9	313.060	0.150	-0.190	0.640
2020/01/31 08:28:20.0	313.070	0.150	-0.190	0.620
2020/01/31 08:28:20.1	313.070	0.160	-0.200	0.600
2020/01/31 08:28:20.2	313.080	0.160	-0.210	0.580
2020/01/31 08:28:20.3	313.090	0.160	-0.210	0.550
2020/01/31 08:28:20.4	313.110	0.160	-0.220	0.520
2020/01/31 08:28:20.5	313.120	0.160	-0.230	0.480
2020/01/31 08:28:20.6	313.140	0.150	-0.240	0.450
2020/01/31 08:28:20.7	313.160	0.150	-0.250	0.410
2020/01/31 08:28:20.8	313.180	0.140	-0.250	0.370
2020/01/31 08:28:20.9	313.200	0.130	-0.260	0.330
2020/01/31 08:28:21.0	313.220	0.120	-0.260	0.290
2020/01/31 08:28:21.1	313.240	0.110	-0.260	0.240
2020/01/31 08:28:21.2	313.260	0.090	-0.260	0.200
2020/01/31 08:28:21.3	313.280	0.070	-0.260	0.160
2020/01/31 08:28:21.4	313.290	0.060	-0.250	0.120
2020/01/31 08:28:21.5	313.310	0.040	-0.240	0.080
2020/01/31 08:28:21.6	313.320	0.020	-0.230	0.040
2020/01/31 08:28:21.7	313.340	-0.000	-0.210	0.000
2020/01/31 08:28:21.8	313.350	-0.030	-0.190	-0.030
2020/01/31 08:28:21.9	313.360	-0.050	-0.160	-0.060
2020/01/31 08:28:22.0	313.360	-0.070	-0.130	-0.090
2020/01/31 08:28:22.1	313.360	-0.090	-0.100	-0.110
2020/01/31 08:28:22.2	313.370	-0.120	-0.070	-0.130
2020/01/31 08:28:22.3	313.360	-0.140	-0.030	-0.140
2020/01/31 08:28:22.4	313.360	-0.160	0.020	-0.150
2020/01/31 08:28:22.5	313.350	-0.180	0.060	-0.150
2020/01/31 08:28:22.6	313.340	-0.200	0.110	-0.150
2020/01/31 08:28:22.7	313.330	-0.220	0.160	-0.140
2020/01/31 08:28:22.8	313.320	-0.240	0.210	-0.130
2020/01/31 08:28:22.9	313.300	-0.260	0.260	-0.120
2020/01/31 08:28:23.0	313.280	-0.270	0.310	-0.100
2020/01/31 08:28:23.1	313.260	-0.280	0.360	-0.080
2020/01/31 08:28:23.2	313.240	-0.300	0.410	-0.050
2020/01/31 08:28:23.3	313.220	-0.300	0.460	-0.020
2020/01/31 08:28:23.4	313.210	-0.310	0.500	0.010
2020/01/31 08:28:23.5	313.180	-0.310	0.540	0.040
2020/01/31 08:28:23.6	313.160	-0.320	0.570	0.080
2020/01/31 08:28:23.7	313.130	-0.320	0.600	0.110
2020/01/31 08:28:23.8	313.110	-0.310	0.620	0.140
2020/01/31 08:28:23.9	313.080	-0.310	0.640	0.180
2020/01/31 08:28:24.0	313.060	-0.300	0.650	0.210
2020/01/31 08:28:24.1	313.030	-0.290	0.650	0.240
2020/01/31 08:28:24.2	313.010	-0.280	0.650	0.270
2020/01/31 08:28:24.3	312.980	-0.260	0.640	0.300
2020/01/31 08:28:24.4	312.970	-0.240	0.620	0.330
2020/01/31 08:28:24.5	312.950	-0.220	0.600	0.360
2020/01/31 08:28:24.6	312.930	-0.200	0.570	0.380
2020/01/31 08:28:24.7	312.910	-0.180	0.530	0.410
2020/01/31 08:28:24.8	312.890	-0.160	0.480	0.420
2020/01/31 08:28:24.9	312.880	-0.130	0.430	0.440
2020/01/31 08:28:25.0	312.860	-0.100	0.380	0.450
2020/01/31 08:28:25.1	312.850	-0.080	0.310	0.470
2020/01/31 08:28:25.2	312.840	-0.050	0.250	0.470
2020/01/31 08:28:25.3	312.830	-0.020	0.180	0.480
2020/01/31 08:28:25.4	312.830	0.010	0.100	0.480
2020/01/31 08:28:25.5	312.830	0.040	0.020	0.480
2020/01/31 08:28:25.6	312.820	0.070	-0.060	0.470
2020/01/31 08:28:25.7	312.820	0.100	-0.130	0.470
2020/01/31 08:28:25.8	312.820	0.120	-0.210	0.460
2020/01/31 08:28:25.9	312.810	0.150	-0.290	0.450
2020/01/31 08:28:26.0	312.810	0.170	-0.370	0.440
2020/01/31 08:28:26.1	312.820	0.200	-0.450	0.420
2020/01/31 08:28:26.2	312.820	0.220	-0.520	0.410
2020/01/31 08:28:26.3	312.820	0.240	-0.590	0.390
2020/01/31 08:28:26.4	312.820	0.260	-0.660	0.370
2020/01/31 08:28:26.5	312.830	0.280	-0.720	0.350
2020/01/31 08:28:26.6	312.830	0.290	-0.780	0.330
2020/01/31 08:28:26.7	312.840	0.300	-0.840	0.310
2020/01/31 08:28:26.8	312.850	0.310	-0.880	0.280
2020/01/31 08:28:26.9	312.860	0.320	-0.930	0.260
2020/01/31 08:28:27.0	312.870	0.320	-0.960	0.230
2020/01/31 08:28:27.1	312.880	0.320	-1.000	0.210
2020/01/31 08:28:27.2	312.890	0.320	-1.020	0.180
2020/01/31 08:28:27.3	312.900	0.310	-1.040	0.160
2020/01/31 08:28:27.4	312.910	0.310	-1.060	0.130
2020/01/31 08:28:27.5	312.920	0.300	-1.060	0.100
2020/01/31 08:28:27.6	312.940	0.290	-1.070	0.080
2020/01/31 08:28:27.7	312.950	0.280	-1.060	0.050
2020/01/31 08:28:27.8	312.960	0.260	-1.060	0.020
2020/01/31 08:28:27.9	312.980	0.240	-1.040	-0.000
2020/01/31 08:28:28.0	312.990	0.230	-1.030	-0.030
2020/01/31 08:28:28.1	313.010	0.210	-1.010	-0.050
2020/01/31 08:28:28.2	313.020	0.190	-0.980	-0.070
2020/01/31 08:28:28.3	313.040	0.160	-0.960	-0.100
2020/01/31 08:28:28.4	313.050	0.140	-0.930	-0.120
2020/01/31 08:28:28.5	313.060	0.120	-0.900	-0.140
2020/01/31 08:28:28.6	313.080	0.100	-0.860	-0.160
2020/01/31 08:28:28.7	313.100	0.070	-0.830	-0.180
2020/01/31 08:28:28.8	313.120	0.050	-0.800	-0.200
2020/01/31 08:28:28.9	313.140	0.030	-0.760	-0.220
2020/01/31 08:28:29.0	313.160	0.010	-0.730	-0.240
2020/01/31 08:28:29.1	313.180	-0.010	-0.690	-0.260
2020/01/31 08:28:29.2	313.200	-0.040	-0.660	-0.280
2020/01/31 08:28:29.3	313.230	-0.060	-0.620	-0.290
2020/01/31 08:28:29.4	313.240	-0.070	-0.590	-0.310
2020/01/31 08:28:29.5	313.270	-0.090	-0.560	-0.320
2020/01/31 08:28:29.6	313.290	-0.110	-0.530	-0.340
2020/01/31 08:28:29.7	313.320	-0.120	-0.500	-0.350
2020/01/31 08:28:29.8	313.340	-0.140	-0.480	-0.370
2020/01/31 08:28:29.9	313.370	-0.150	-0.450	-0.380
2020/01/31 08:28:30.0	313.400	-0.160	-0.430	-0.390
2020/01/31 08:28:30.1	313.420	-0.170	-0.410	-0.400
2020/01/31 08:28:30.2	313.450	-0.180	-0.390	-0.410
2020/01/31 08:28:30.3	313.470	-0.190	-0.380	-0.420
2020/01/31 08:28:30.4	313.490	-0.200	-0.360	-0.420
2020/01/31 08:28:30.5	313.510	-0.200	-0.350	-0.430
2020/01/31 08:28:30.6	313.530	-0.210	-0.330	-0.430
2020/01/31 08:28:30.7	313.550	-0.210	-0.320	-0.430
2020/01/31 08:28:30.8	313.560	-0.220	-0.310	-0.420
2020/01/31 08:28:30.9	313.570	-0.220	-0.300	-0.420
2020/01/31 08:28:31.0	313.580	-0.220	-0.290	-0.410
2020/01/31 08:28:31.1	313.590	-0.220	-0.280	-0.390
2020/01/31 08:28:31.2	313.600	-0.230	-0.260	-0.380
2020/01/31 08:28:31.3	313.600	-0.230	-0.250	-0.360
2020/01/31 08:28:31.4	313.600	-0.230	-0.240	-0.340
2020/01/31 08:28:31.5	313.600	-0.230	-0.230	-0.320
2020/01/31 08:28:31.6	313.590	-0.230	-0.220	-0.290
2020/01/31 08:28:31.7	313.580	-0.230	-0.200	-0.260
2020/01/31 08:28:31.8	313.570	-0.230	-0.190	-0.240
2020/01/31 08:28:31.9	313.560	-0.230	-0.170	-0.200
2020/01/31 08:28:32.0	313.540	-0.220	-0.160	-0.170
2020/01/31 08:28:32.1	313.530	-0.220	-0.140	-0.130
2020/01/31 08:28:32.2	313.510	-0.220	-0.120	-0.090
2020/01/31 08:28:32.3	313.480	-0.220	-0.110	-0.050
2020/01/31 08:28:32.4	313.450	-0.210	-0.090	-0.010
2020/01/31 08:28:32.5	313.430	-0.210	-0.070	0.030
2020/01/31 08:28:32.6	313.400	-0.200	-0.050	0.070
2020/01/31 08:28:32.7	313.370	-0.200	-0.020	0.120
2020/01/31 08:28:32.8	313.340	-0.190	-0.000	0.160
2020/01/31 08:28:32.9	313.310	-0.190	0.020	0.210
2020/01/31 08:28:33.0	313.280	-0.180	0.040	0.250
2020/01/31 08:28:33.1	313.250	-0.170	0.060	0.300
2020/01/31 08:28:33.2	313.210	-0.160	0.080	0.340
2020/01/31 08:28:33.3	313.180	-0.150	0.100	0.390
2020/01/31 08:28:33.4	313.130	-0.140	0.120	0.430
2020/01/31 08:28:33.5	313.100	-0.130	0.140	0.470
2020/01/31 08:28:33.6	313.060	-0.110	0.150	0.510
2020/01/31 08:28:33.7	313.030	-0.100	0.160	0.550
2020/01/31 08:28:33.8	312.990	-0.080	0.180	0.590
2020/01/31 08:28:33.9	312.950	-0.070	0.190	0.630
2020/01/31 08:28:34.0	312.920	-0.050	0.190	0.670
2020/01/31 08:28:34.1	312.880	-0.030	0.200	0.710
2020/01/31 08:28:34.2	312.840	-0.010	0.210	0.740
2020/01/31 08:28:34.3	312.810	0.010	0.210	0.770
2020/01/31 08:28:34.4	312.760	0.030	0.210	0.800
2020/01/31 08:28:34.5	312.730	0.050	0.210	0.830
2020/01/31 08:28:34.6	312.700	0.080	0.200	0.860
2020/01/31 08:28:34.7	312.670	0.100	0.200	0.890
2020/01/31 08:28:34.8	312.640	0.120	0.190	0.910
2020/01/31 08:28:34.9	312.610	0.150	0.180	0.930
2020/01/31 08:28:35.0	312.590	0.170	0.170	0.950
2020/01/31 08:28:35.1	312.570	0.200	0.160	0.970
2020/01/31 08:28:35.2	312.540	0.220	0.150	0.980
2020/01/31 08:28:35.3	312.520	0.250	0.130	0.990
2020/01/31 08:28:35.4	312.500	0.270	0.120	1.000
2020/01/31 08:28:35.5	312.480	0.300	0.110	1.010
2020/01/31 08:28:35.6	312.460	0.320	0.090	1.020
2020/01/31 08:28:35.7	312.450	0.340	0.070	1.020
2020/01/31 08:28:35.8	312.440	0.360	0.050	1.020
2020/01/31 08:28:35.9	312.430	0.380	0.030	1.010
2020/01/31 08:28:36.0	312.420	0.400	0.010	1.010
2020/01/31 08:28:36.1	312.410	0.420	-0.010	1.000
2020/01/31 08:28:36.2	312.410	0.440	-0.040	0.990
2020/01/31 08:28:36.3	312.400	0.450	-0.060	0.970
2020/01/31 08:28:36.4	312.400	0.460	-0.080	0.950
2020/01/31 08:28:36.5	312.400	0.470	-0.110	0.930
2020/01/31 08:28:36.6	312.410	0.480	-0.130	0.910
2020/01/31 08:28:36.7	312.410	0.490	-0.160	0.880
2020/01/31 08:28:36.8	312.420	0.490	-0.190	0.850
2020/01/31 08:28:36.9	312.430	0.490	-0.220	0.820
2020/01/31 08:28:37.0	312.440	0.490	-0.250	0.780
2020/01/31 08:28:37.1	312.460	0.490	-0.280	0.750
2020/01/31 08:28:37.2	312.480	0.490	-0.300	0.710
2020/01/31 08:28:37.3	312.490	0.480	-0.330	0.660
2020/01/31 08:28:37.4	312.530	0.470	-0.360	0.620
2020/01/31 08:28:37.5	312.550	0.460	-0.390	0.580
2020/01/31 08:28:37.6	312.570	0.440	-0.420	0.530
2020/01/31 08:28:37.7	312.590	0.420	-0.440	0.480
2020/01/31 08:28:37.8	312.610	0.400	-0.460	0.440
2020/01/31 08:28:37.9	312.640	0.380	-0.480	0.390
2020/01/31 08:28:38.0	312.660	0.350	-0.500	0.340
2020/01/31 08:28:38.1	312.680	0.320	-0.510	0.280
2020/01/31 08:28:38.2	312.710	0.290	-0.520	0.230
2020/01/31 08:28:38.3	312.730	0.260	-0.530	0.180
2020/01/31 08:28:38.4	312.770	0.230	-0.540	0.130
2020/01/31 08:28:38.5	312.790	0.190	-0.540	0.070
2020/01/31 08:28:38.6	312.820	0.160	-0.550	0.010
2020/01/31 08:28:38.7	312.840	0.120	-0.550	-0.040
2020/01/31 08:28:38.8	312.870	0.080	-0.550	-0.100
2020/01/31 08:28:38.9	312.900	0.040	-0.550	-0.160
2020/01/31 08:28:39.0	312.920	-0.000	-0.550	-0.220
2020/01/31 08:28:39.1	312.950	-0.040	-0.540	-0.280
2020/01/31 08:28:39.2	312.980	-0.080	-0.530	-0.330
2020/01/31 08:28:39.3	313.010	-0.130	-0.530	-0.390
2020/01/31 08:28:39.4	313.040	-0.170	-0.520	-0.440
2020/01/31 08:28:39.5	313.070	-0.200	-0.510	-0.500
2020/01/31 08:28:39.6	313.100	-0.240	-0.490	-0.550
2020/01/31 08:28:39.7	313.130	-0.280	-0.480	-0.590
2020/01/31 08:28:39.8	313.150	-0.320	-0.460	-0.630
2020/01/31 08:28:39.9	313.180	-0.350	-0.440	-0.670
2020/01/31 08:28:40.0	313.200	-0.380	-0.420	-0.700
2020/01/31 08:28:40.1	313.220	-0.420	-0.390	-0.730
2020/01/31 08:28:40.2	313.240	-0.440	-0.370	-0.750
2020/01/31 08:28:40.3	313.260	-0.470	-0.340	-0.770
2020/01/31 08:28:40.4	313.270	-0.490	-0.310	-0.780
2020/01/31 08:28:40.5	313.290	-0.520	-0.280	-0.790
2020/01/31 08:28:40.6	313.300	-0.540	-0.250	-0.790
2020/01/31 08:28:40.7	313.310	-0.550	-0.220	-0.780
2020/01/31 08:28:40.8	313.310	-0.560	-0.190	-0.770
2020/01/31 08:28:40.9	313.320	-0.580	-0.160	-0.760
2020/01/31 08:28:41.0	313.320	-0.580	-0.130	-0.740
2020/01/31 08:28:41.1	313.320	-0.590	-0.100	-0.720
2020/01/31 08:28:41.2	313.320	-0.590	-0.070	-0.690
2020/01/31 08:28:41.3	313.310	-0.590	-0.040	-0.660
2020/01/31 08:28:41.4	313.320	-0.580	-0.010	-0.630
2020/01/31 08:28:41.5	313.310	-0.570	0.010	-0.600
2020/01/31 08:28:41.6	313.310	-0.560	0.030	-0.560
2020/01/31 08:28:41.7	313.300	-0.550	0.040	-0.530
2020/01/31 08:28:41.8	313.290	-0.530	0.060	-0.490
2020/01/31 08:28:41.9	313.280	-0.520	0.060	-0.450
2020/01/31 08:28:42.0	313.270	-0.490	0.070	-0.420
2020/01/31 08:28:42.1	313.270	-0.470	0.070	-0.380
2020/01/31 08:28:42.2	313.260	-0.450	0.060	-0.340
2020/01/31 08:28:42.3	313.250	-0.420	0.050	-0.300
2020/01/31 08:28:42.4	313.240	-0.390	0.040	-0.260
2020/01/31 08:28:42.5	313.230	-0.360	0.030	-0.220
2020/01/31 08:28:42.6	313.220	-0.330	0.010	-0.180
2020/01/31 08:28:42.7	313.210	-0.290	-0.020	-0.140
2020/01/31 08:28:42.8	313.200	-0.260	-0.050	-0.100
2020/01/31 08:28:42.9	313.180	-0.220	-0.080	-0.060
2020/01/31 08:28:43.0	313.170	-0.190	-0.110	-0.030
2020/01/31 08:28:43.1	313.160	-0.150	-0.140	0.010
2020/01/31 08:28:43.2	313.140	-0.120	-0.180	0.050
2020/01/31 08:28:43.3	313.130	-0.080	-0.220	0.090
2020/01/31 08:28:43.4	313.110	-0.050	-0.260	0.120
2020/01/31 08:28:43.5	313.090	-0.010	-0.300	0.160
2020/01/31 08:28:43.6	313.070	0.020	-0.340	0.190
2020/01/31 08:28:43.7	313.060	0.060	-0.380	0.220
2020/01/31 08:28:43.8	313.040	0.090	-0.420	0.250
2020/01/31 08:28:43.9	313.030	0.120	-0.460	0.290
2020/01/31 08:28:44.0	313.010	0.150	-0.500	0.320
2020/01/31 08:28:44.1	313.000	0.180	-0.540	0.340
2020/01/31 08:28:44.2	312.980	0.200	-0.570	0.370
2020/01/31 08:28:44.3	312.970	0.230	-0.610	0.400
2020/01/31 08:28:44.4	312.950	0.250	-0.640	0.420
2020/01/31 08:28:44.5	312.940	0.270	-0.670	0.450
2020/01/31 08:28:44.6	312.930	0.290	-0.690	0.470
2020/01/31 08:28:44.7	312.910	0.310	-0.710	0.490
2020/01/31 08:28:44.8	312.900	0.330	-0.730	0.510
2020/01/31 08:28:44.9	312.900	0.340	-0.750	0.530
2020/01/31 08:28:45.0	312.890	0.350	-0.760	0.540
2020/01/31 08:28:45.1	312.880	0.360	-0.770	0.560
2020/01/31 08:28:45.2	312.880	0.370	-0.780	0.570
2020/01/31 08:28:45.3	312.880	0.370	-0.780	0.580
2020/01/31 08:28:45.4	312.870	0.380	-0.780	0.590
2020/01/31 08:28:45.5	312.870	0.380	-0.780	0.600
2020/01/31 08:28:45.6	312.870	0.380	-0.770	0.610
2020/01/31 08:28:45.7	312.880	0.370	-0.760	0.610
2020/01/31 08:28:45.8	312.880	0.370	-0.750	0.620
2020/01/31 08:28:45.9	312.880	0.360	-0.740	0.620
2020/01/31 08:28:46.0	312.890	0.350	-0.720	0.620
2020/01/31 08:28:46.1	312.890	0.340	-0.700	0.630
2020/01/31 08:28:46.2	312.890	0.330	-0.670	0.630
2020/01/31 08:28:46.3	312.900	0.320	-0.640	0.630
2020/01/31 08:28:46.4	312.900	0.300	-0.610	0.630
2020/01/31 08:28:46.5	312.910	0.290	-0.580	0.640
2020/01/31 08:28:46.6	312.910	0.270	-0.540	0.640
2020/01/31 08:28:46.7	312.910	0.250	-0.500	0.640
2020/01/31 08:28:46.8	312.910	0.230	-0.460	0.650
2020/01/31 08:28:46.9	312.910	0.210	-0.410	0.650
2020/01/31 08:28:47.0	312.900	0.190	-0.360	0.650
2020/01/31 08:28:47.1	312.900	0.160	-0.310	0.660
2020/01/31 08:28:47.2	312.900	0.140	-0.260	0.660
2020/01/31 08:28:47.3	312.890	0.120	-0.210	0.670
2020/01/31 08:28:47.4	312.880	0.100	-0.160	0.670
2020/01/31 08:28:47.5	312.880	0.070	-0.100	0.680
2020/01/31 08:28:47.6	312.870	0.050	-0.050	0.680
2020/01/31 08:28:47.7	312.870	0.030	0.000	0.680
2020/01/31 08:28:47.8	312.860	0.000	0.050	0.680
2020/01/31 08:28:47.9	312.850	-0.020	0.110	0.680
2020/01/31 08:28:48.0	312.850	-0.040	0.150	0.680
2020/01/31 08:28:48.1	312.840	-0.060	0.200	0.670
2020/01/31 08:28:48.2	312.830	-0.080	0.250	0.670
2020/01/31 08:28:48.3	312.820	-0.100	0.290	0.660
2020/01/31 08:28:48.4	312.800	-0.120	0.320	0.650
2020/01/31 08:28:48.5	312.790	-0.140	0.360	0.640
2020/01/31 08:28:48.6	312.790	-0.150	0.390	0.630
2020/01/31 08:28:48.7	312.780	-0.160	0.420	0.620
2020/01/31 08:28:48.8	312.770	-0.180	0.440	0.600
2020/01/31 08:28:48.9	312.760	-0.190	0.460	0.590
2020/01/31 08:28:49.0	312.760	-0.190	0.480	0.570
2020/01/31 08:28:49.1	312.750	-0.200	0.490	0.550
2020/01/31 08:28:49.2	312.750	-0.200	0.500	0.530
2020/01/31 08:28:49.3	312.750	-0.210	0.500	0.500
2020/01/31 08:28:49.4	312.740	-0.210	0.500	0.480
2020/01/31 08:28:49.5	312.740	-0.200	0.500	0.450
2020/01/31 08:28:49.6	312.740	-0.200	0.490	0.420
2020/01/31 08:28:49.7	312.740	-0.190	0.480	0.390
2020/01/31 08:28:49.8	312.740	-0.190	0.470	0.370
2020/01/31 08:28:49.9	312.740	-0.180	0.450	0.340
2020/01/31 08:28:50.0	312.740	-0.170	0.430	0.310
2020/01/31 08:28:50.1	312.750	-0.150	0.410	0.280
2020/01/31 08:28:50.2	312.750	-0.140	0.390	0.250
2020/01/31 08:28:50.3	312.750	-0.120	0.360	0.220
2020/01/31 08:28:50.4	312.750	-0.100	0.330	0.190
2020/01/31 08:28:50.5	312.760	-0.090	0.300	0.160
2020/01/31 08:28:50.6	312.770	-0.070	0.260	0.130
2020/01/31 08:28:50.7	312.780	-0.050	0.220	0.090
2020/01/31 08:28:50.8	312.780	-0.030	0.190	0.060
2020/01/31 08:28:50.9	312.790	-0.000	0.150	0.030
2020/01/31 08:28:51.0	312.800	0.020	0.100	-0.000
2020/01/31 08:28:51.1	312.810	0.040	0.060	-0.040
2020/01/31 08:28:51.2	312.820	0.060	0.020	-0.070
2020/01/31 08:28:51.3	312.830	0.090	-0.030	-0.100
2020/01/31 08:28:51.4	312.840	0.110	-0.080	-0.140
2020/01/31 08:28:51.5	312.850	0.130	-0.130	-0.170
2020/01/31 08:28:51.6	312.870	0.150	-0.180	-0.200
2020/01/31 08:28:51.7	312.880	0.180	-0.220	-0.230
2020/01/31 08:28:51.8	312.900	0.200	-0.270	-0.260
2020/01/31 08:28:51.9	312.910	0.220	-0.320	-0.290
2020/01/31 08:28:52.0	312.920	0.240	-0.370	-0.320
2020/01/31 08:28:52.1	312.940	0.250	-0.420	-0.350
2020/01/31 08:28:52.2	312.950	0.270	-0.460	-0.370
2020/01/31 08:28:52.3	312.970	0.290	-0.510	-0.390
2020/01/31 08:28:52.4	312.980	0.300	-0.550	-0.420
2020/01/31 08:28:52.5	313.000	0.310	-0.590	-0.430
2020/01/31 08:28:52.6	313.020	0.320	-0.640	-0.450
2020/01/31 08:28:52.7	313.030	0.330	-0.680	-0.460
2020/01/31 08:28:52.8	313.050	0.340	-0.710	-0.470
2020/01/31 08:28:52.9	313.070	0.350	-0.750	-0.480
2020/01/31 08:28:53.0	313.090	0.350	-0.780	-0.490
2020/01/31 08:28:53.1	313.110	0.350	-0.810	-0.500
2020/01/31 08:28:53.2	313.120	0.350	-0.840	-0.500
2020/01/31 08:28:53.3	313.140	0.350	-0.870	-0.500
2020/01/31 08:28:53.4	313.160	0.350	-0.890	-0.500
2020/01/31 08:28:53.5	313.180	0.350	-0.910	-0.490
2020/01/31 08:28:53.6	313.200	0.340	-0.930	-0.480
2020/01/31 08:28:53.7	313.220	0.330	-0.940	-0.470
2020/01/31 08:28:53.8	313.230	0.320	-0.950	-0.460
2020/01/31 08:28:53.9	313.250	0.310	-0.960	-0.450
2020/01/31 08:28:54.0	313.260	0.290	-0.960	-0.430
2020/01/31 08:28:54.1	313.280	0.270	-0.960	-0.420
2020/01/31 08:28:54.2	313.290	0.260	-0.950	-0.400
2020/01/31 08:28:54.3	313.300	0.240	-0.940	-0.380
2020/01/31 08:28:54.4	313.320	0.210	-0.930	-0.350
2020/01/31 08:28:54.5	313.320	0.190	-0.910	-0.330
2020/01/31 08:28:54.6	313.330	0.170	-0.890	-0.300
2020/01/31 08:28:54.7	313.340	0.140	-0.870	-0.270
2020/01/31 08:28:54.8	313.340	0.110	-0.850	-0.250
2020/01/31 08:28:54.9	313.340	0.080	-0.820	-0.220
2020/01/31 08:28:55.0	313.340	0.060	-0.780	-0.180
2020/01/31 08:28:55.1	313.340	0.020	-0.750	-0.150
2020/01/31 08:28:55.2	313.340	-0.010	-0.710	-0.120
2020/01/31 08:28:55.3	313.330	-0.040	-0.670	-0.090
2020/01/31 08:28:55.4	313.330	-0.070	-0.620	-0.050
2020/01/31 08:28:55.5	313.320	-0.110	-0.580	-0.010
2020/01/31 08:28:55.6	313.300	-0.140	-0.530	0.020
2020/01/31 08:28:55.7	313.290	-0.180	-0.480	0.060
2020/01/31 08:28:55.8	313.270	-0.220	-0.440	0.090
2020/01/31 08:28:55.9	313.260	-0.250	-0.390	0.130
2020/01/31 08:28:56.0	313.240	-0.290	-0.340	0.160
2020/01/31 08:28:56.1	313.210	-0.320	-0.290	0.200
2020/01/31 08:28:56.2	313.190	-0.360	-0.250	0.230
2020/01/31 08:28:56.3	313.170	-0.390	-0.200	0.260
2020/01/31 08:28:56.4	313.140	-0.420	-0.160	0.290
2020/01/31 08:28:56.5	313.110	-0.460	-0.110	0.320
2020/01/31 08:28:56.6	313.080	-0.490	-0.070	0.350
2020/01/31 08:28:56.7	313.060	-0.520	-0.030	0.380
2020/01/31 08:28:56.8	313.030	-0.540	0.010	0.410
2020/01/31 08:28:56.9	313.000	-0.570	0.040	0.430
2020/01/31 08:28:57.0	312.970	-0.590	0.070	0.460
2020/01/31 08:28:57.1	312.940	-0.610	0.110	0.480
2020/01/31 08:28:57.2	312.920	-0.630	0.130	0.500
2020/01/31 08:28:57.3	312.890	-0.640	0.160	0.520
2020/01/31 08:28:57.4	312.860	-0.650	0.180	0.530
2020/01/31 08:28:57.5	312.830	-0.660	0.200	0.540
2020/01/31 08:28:57.6	312.810	-0.670	0.210	0.550
2020/01/31 08:28:57.7	312.790	-0.670	0.220	0.560
2020/01/31 08:28:57.8	312.760	-0.670	0.230	0.570
2020/01/31 08:28:57.9	312.740	-0.660	0.240	0.570
2020/01/31 08:28:58.0	312.720	-0.660	0.240	0.570
2020/01/31 08:28:58.1	312.710	-0.650	0.240	0.570
2020/01/31 08:28:58.2	312.690	-0.630	0.230	0.570
2020/01/31 08:28:58.3	312.670	-0.610	0.230	0.560
2020/01/31 08:28:58.4	312.660	-0.590	0.210	0.550
2020/01/31 08:28:58.5	312.650	-0.570	0.200	0.540
2020/01/31 08:28:58.6	312.630	-0.540	0.180	0.530
2020/01/31 08:28:58.7	312.620	-0.520	0.170	0.520
2020/01/31 08:28:58.8	312.610	-0.490	0.150	0.510
2020/01/31 08:28:58.9	312.600	-0.450	0.130	0.490
2020/01/31 08:28:59.0	312.590	-0.420	0.120	0.480
2020/01/31 08:28:59.1	312.580	-0.380	0.100	0.460
2020/01/31 08:28:59.2	312.580	-0.340	0.080	0.450
2020/01/31 08:28:59.3	312.570	-0.300	0.060	0.440
2020/01/31 08:28:59.4	312.560	-0.260	0.040	0.430
2020/01/31 08:28:59.5	312.560	-0.220	0.020	0.410
2020/01/31 08:28:59.6	312.550	-0.180	-0.000	0.400
2020/01/31 08:28:59.7	312.540	-0.140	-0.020	0.390
2020/01/31 08:28:59.8	312.540	-0.100	-0.040	0.380
2020/01/31 08:28:59.9	312.530	-0.060	-0.060	0.370
2020/01/31 08:29:00.0	312.530	-0.020	-0.070	0.370
2020/01/31 08:29:00.1	312.520	0.020	-0.090	0.360
2020/01/31 08:29:00.2	312.520	0.060	-0.100	0.350
2020/01/31 08:29:00.3	312.520	0.100	-0.120	0.340
2020/01/31 08:29:00.4	312.520	0.140	-0.140	0.340
2020/01/31 08:29:00.5	312.520	0.170	-0.150	0.330
2020/01/31 08:29:00.6	312.520	0.210	-0.160	0.330
2020/01/31 08:29:00.7	312.530	0.240	-0.170	0.320
2020/01/31 08:29:00.8	312.530	0.270	-0.170	0.320
2020/01/31 08:29:00.9	312.540	0.300	-0.180	0.320
2020/01/31 08:29:01.0	312.550	0.340	-0.190	0.320
2020/01/31 08:29:01.1	312.560	0.360	-0.190	0.320
2020/01/31 08:29:01.2	312.570	0.390	-0.190	0.320
2020/01/31 08:29:01.3	312.590	0.420	-0.200	0.320
2020/01/31 08:29:01.4	312.600	0.440	-0.200	0.320
2020/01/31 08:29:01.5	312.620	0.470	-0.200	0.330
2020/01/31 08:29:01.6	312.640	0.490	-0.210	0.330
2020/01/31 08:29:01.7	312.660	0.510	-0.210	0.340
2020/01/31 08:29:01.8	312.680	0.530	-0.210	0.340
2020/01/31 08:29:01.9	312.700	0.550	-0.220	0.350
2020/01/31 08:29:02.0	312.730	0.560	-0.230	0.350
2020/01/31 08:29:02.1	312.750	0.580	-0.230	0.360
2020/01/31 08:29:02.2	312.780	0.590	-0.240	0.360
2020/01/31 08:29:02.3	312.810	0.610	-0.250	0.370
2020/01/31 08:29:02.4	312.840	0.620	-0.260	0.370
2020/01/31 08:29:02.5	312.870	0.630	-0.270	0.370
2020/01/31 08:29:02.6	312.900	0.640	-0.280	0.370
2020/01/31 08:29:02.7	312.930	0.640	-0.300	0.370
2020/01/31 08:29:02.8	312.960	0.650	-0.310	0.370
2020/01/31 08:29:02.9	312.980	0.650	-0.320	0.370
2020/01/31 08:29:03.0	313.010	0.650	-0.340	0.370
2020/01/31 08:29:03.1	313.030	0.650	-0.350	0.370
2020/01/31 08:29:03.2	313.060	0.650	-0.360	0.360
2020/01/31 08:29:03.3	313.080	0.640	-0.380	0.360
2020/01/31 08:29:03.4	313.100	0.640	-0.390	0.350
2020/01/31 08:29:03.5	313.120	0.630	-0.400	0.350
2020/01/31 08:29:03.6	313.140	0.620	-0.410	0.340
2020/01/31 08:29:03.7	313.150	0.600	-0.420	0.340
2020/01/31 08:29:03.8	313.170	0.590	-0.430	0.330
2020/01/31 08:29:03.9	313.180	0.570	-0.440	0.320
2020/01/31 08:29:04.0	313.190	0.550	-0.450	0.310
2020/01/31 08:29:04.1	313.200	0.530	-0.460	0.310
2020/01/31 08:29:04.2	313.200	0.510	-0.470	0.300
2020/01/31 08:29:04.3	313.200	0.480	-0.470	0.290
2020/01/31 08:29:04.4	313.210	0.460	-0.480	0.280
2020/01/31 08:29:04.5	313.210	0.430	-0.480	0.270
2020/01/31 08:29:04.6	313.210	0.400	-0.480	0.260
2020/01/31 08:29:04.7	313.210	0.370	-0.480	0.250
2020/01/31 08:29:04.8	313.200	0.340	-0.480	0.240
2020/01/31 08:29:04.9	313.190	0.300	-0.480	0.230
2020/01/31 08:29:05.0	313.190	0.270	-0.480	0.210
2020/01/31 08:29:05.1	313.170	0.230	-0.480	0.200
2020/01/31 08:29:05.2	313.160	0.190	-0.470	0.190
2020/01/31 08:29:05.3	313.150	0.150	-0.460	0.180
2020/01/31 08:29:05.4	313.140	0.110	-0.460	0.170
2020/01/31 08:29:05.5	313.120	0.070	-0.450	0.160
2020/01/31 08:29:05.6	313.100	0.030	-0.430	0.150
2020/01/31 08:29:05.7	313.080	-0.010	-0.420	0.140
2020/01/31 08:29:05.8	313.050	-0.050	-0.400	0.130
2020/01/31 08:29:05.9	313.020	-0.090	-0.380	0.130
2020/01/31 08:29:06.0	312.990	-0.130	-0.360	0.120
2020/01/31 08:29:06.1	312.960	-0.170	-0.340	0.110
2020/01/31 08:29:06.2	312.930	-0.210	-0.320	0.110
2020/01/31 08:29:06.3	312.900	-0.250	-0.300	0.100
2020/01/31 08:29:06.4	312.870	-0.290	-0.270	0.100
2020/01/31 08:29:06.5	312.830	-0.330	-0.250	0.090
2020/01/31 08:29:06.6	312.800	-0.370	-0.230	0.080
2020/01/31 08:29:06.7	312.770	-0.410	-0.200	0.070
2020/01/31 08:29:06.8	312.730	-0.440	-0.180	0.060
2020/01/31 08:29:06.9	312.700	-0.480	-0.160	0.050
2020/01/31 08:29:07.0	312.670	-0.510	-0.140	0.040
2020/01/31 08:29:07.1	312.650	-0.540	-0.120	0.020
2020/01/31 08:29:07.2	312.620	-0.570	-0.100	0.010
2020/01/31 08:29:07.3	312.600	-0.600	-0.080	-0.010
2020/01/31 08:29:07.4	312.580	-0.630	-0.060	-0.030
2020/01/31 08:29:07.5	312.560	-0.650	-0.050	-0.050
2020/01/31 08:29:07.6	312.540	-0.670	-0.040	-0.070
2020/01/31 08:29:07.7	312.530	-0.690	-0.030	-0.100
2020/01/31 08:29:07.8	312.510	-0.700	-0.020	-0.120
2020/01/31 08:29:07.9	312.500	-0.720	-0.020	-0.150
2020/01/31 08:29:08.0	312.500	-0.720	-0.010	-0.170
2020/01/31 08:29:08.1	312.490	-0.730	-0.010	-0.200
2020/01/31 08:29:08.2	312.490	-0.730	-0.010	-0.230
2020/01/31 08:29:08.3	312.500	-0.730	-0.020	-0.250
2020/01/31 08:29:08.4	312.490	-0.730	-0.030	-0.280
2020/01/31 08:29:08.5	312.500	-0.720	-0.040	-0.310
2020/01/31 08:29:08.6	312.510	-0.710	-0.050	-0.330
2020/01/31 08:29:08.7	312.520	-0.700	-0.060	-0.350
2020/01/31 08:29:08.8	312.530	-0.680	-0.070	-0.380
2020/01/31 08:29:08.9	312.550	-0.670	-0.090	-0.400
2020/01/31 08:29:09.0	312.570	-0.640	-0.110	-0.420
2020/01/31 08:29:09.1	312.580	-0.620	-0.120	-0.430
2020/01/31 08:29:09.2	312.600	-0.590	-0.140	-0.450
2020/01/31 08:29:09.3	312.620	-0.560	-0.160	-0.460
2020/01/31 08:29:09.4	312.650	-0.530	-0.170	-0.470
2020/01/31 08:29:09.5	312.670	-0.500	-0.190	-0.480
2020/01/31 08:29:09.6	312.690	-0.460	-0.210	-0.480
2020/01/31 08:29:09.7	312.710	-0.430	-0.230	-0.480
2020/01/31 08:29:09.8	312.730	-0.390	-0.250	-0.470
2020/01/31 08:29:09.9	312.750	-0.350	-0.270	-0.470
2020/01/31 08:29:10.0	312.770	-0.310	-0.290	-0.450
2020/01/31 08:29:10.1	312.780	-0.270	-0.310	-0.440
2020/01/31 08:29:10.2	312.800	-0.230	-0.330	-0.420
2020/01/31 08:29:10.3	312.810	-0.190	-0.340	-0.400
2020/01/31 08:29:10.4	312.850	-0.150	-0.360	-0.370
2020/01/31 08:29:10.5	312.870	-0.100	-0.380	-0.340
2020/01/31 08:29:10.6	312.880	-0.060	-0.400	-0.320
2020/01/31 08:29:10.7	312.890	-0.020	-0.410	-0.280
2020/01/31 08:29:10.8	312.910	0.020	-0.420	-0.250
2020/01/31 08:29:10.9	312.920	0.060	-0.440	-0.220
2020/01/31 08:29:11.0	312.930	0.100	-0.450	-0.180
2020/01/31 08:29:11.1	312.940	0.140	-0.460	-0.140
2020/01/31 08:29:11.2	312.950	0.180	-0.470	-0.110
2020/01/31 08:29:11.3	312.960	0.210	-0.480	-0.070
2020/01/31 08:29:11.4	312.970	0.250	-0.480	-0.030
2020/01/31 08:29:11.5	312.980	0.280	-0.490	0.010
2020/01/31 08:29:11.6	312.990	0.310	-0.500	0.050
2020/01/31 08:29:11.7	313.000	0.350	-0.500	0.090
2020/01/31 08:29:11.8	313.010	0.370	-0.500	0.130
2020/01/31 08:29:11.9	313.010	0.400	-0.500	0.170
2020/01/31 08:29:12.0	313.020	0.430	-0.500	0.200
2020/01/31 08:29:12.1	313.030	0.450	-0.490	0.240
2020/01/31 08:29:12.2	313.030	0.470	-0.490	0.280
2020/01/31 08:29:12.3	313.040	0.490	-0.480	0.320
2020/01/31 08:29:12.4	313.040	0.500	-0.470	0.360
2020/01/31 08:29:12.5	313.040	0.510	-0.450	0.390
2020/01/31 08:29:12.6	313.040	0.520	-0.440	0.430
2020/01/31 08:29:12.7	313.040	0.530	-0.420	0.470
2020/01/31 08:29:12.8	313.040	0.530	-0.400	0.500
2020/01/31 08:29:12.9	313.050	0.540	-0.380	0.530
2020/01/31 08:29:13.0	313.040	0.540	-0.360	0.570
2020/01/31 08:29:13.1	313.040	0.530	-0.330	0.600
2020/01/31 08:29:13.2	313.040	0.530	-0.300	0.630
2020/01/31 08:29:13.3	313.040	0.520	-0.270	0.660
2020/01/31 08:29:13.4	313.020	0.510	-0.240	0.680
2020/01/31 08:29:13.5	313.020	0.490	-0.210	0.710
2020/01/31 08:29:13.6	313.010	0.480	-0.180	0.730
2020/01/31 08:29:13.7	313.010	0.460	-0.140	0.750
2020/01/31 08:29:13.8	313.000	0.440	-0.110	0.760
2020/01/31 08:29:13.9	313.000	0.420	-0.080	0.780
2020/01/31 08:29:14.0	312.990	0.400	-0.040	0.790
2020/01/31 08:29:14.1	312.990	0.380	-0.010	0.800
2020/01/31 08:29:14.2	312.980	0.360	0.020	0.800
2020/01/31 08:29:14.3	312.970	0.330	0.060	0.810
2020/01/31 08:29:14.4	312.970	0.310	0.080	0.800
2020/01/31 08:29:14.5	312.960	0.280	0.110	0.800
2020/01/31 08:29:14.6	312.960	0.250	0.140	0.800
2020/01/31 08:29:14.7	312.950	0.230	0.170	0.790
2020/01/31 08:29:14.8	312.940	0.200	0.190	0.790
2020/01/31 08:29:14.9	312.930	0.170	0.220	0.780
2020/01/31 08:29:15.0	312.920	0.150	0.240	0.770
2020/01/31 08:29:15.1	312.910	0.120	0.250	0.760
2020/01/31 08:29:15.2	312.900	0.100	0.270	0.740
2020/01/31 08:29:15.3	312.890	0.070	0.280	0.730
2020/01/31 08:29:15.4	312.880	0.050	0.290	0.720
2020/01/31 08:29:15.5	312.870	0.030	0.300	0.700
2020/01/31 08:29:15.6	312.860	0.010	0.300	0.690
2020/01/31 08:29:15.7	312.850	-0.010	0.300	0.670
2020/01/31 08:29:15.8	312.840	-0.030	0.300	0.650
2020/01/31 08:29:15.9	312.830	-0.050	0.290	0.630
2020/01/31 08:29:16.0	312.820	-0.070	0.280	0.610
2020/01/31 08:29:16.1	312.810	-0.080	0.270	0.580
2020/01/31 08:29:16.2	312.800	-0.100	0.250	0.560
2020/01/31 08:29:16.3	312.790	-0.110	0.230	0.530
2020/01/31 08:29:16.4	312.780	-0.120	0.210	0.500
2020/01/31 08:29:16.5	312.770	-0.130	0.180	0.470
2020/01/31 08:29:16.6	312.770	-0.140	0.150	0.440
2020/01/31 08:29:16.7	312.760	-0.150	0.120	0.410
2020/01/31 08:29:16.8	312.760	-0.150	0.090	0.380
2020/01/31 08:29:16.9	312.750	-0.160	0.050	0.350
2020/01/31 08:29:17.0	312.750	-0.160	0.010	0.320
2020/01/31 08:29:17.1	312.750	-0.160	-0.030	0.280
2020/01/31 08:29:17.2	312.750	-0.160	-0.070	0.250
2020/01/31 08:29:17.3	312.760	-0.160	-0.110	0.220
2020/01/31 08:29:17.4	312.750	-0.160	-0.160	0.180
2020/01/31 08:29:17.5	312.760	-0.160	-0.200	0.150
2020/01/31 08:29:17.6	312.760	-0.150	-0.250	0.110
2020/01/31 08:29:17.7	312.770	-0.150	-0.290	0.080
2020/01/31 08:29:17.8	312.770	-0.150	-0.340	0.050
2020/01/31 08:29:17.9	312.780	-0.140	-0.390	0.010
2020/01/31 08:29:18.0	312.790	-0.140	-0.430	-0.020
2020/01/31 08:29:18.1	312.800	-0.130	-0.470	-0.050
2020/01/31 08:29:18.2	312.800	-0.120	-0.520	-0.080
2020/01/31 08:29:18.3	312.810	-0.120	-0.560	-0.120
2020/01/31 08:29:18.4	312.800	-0.110	-0.600	-0.140
2020/01/31 08:29:18.5	312.810	-0.110	-0.640	-0.180
2020/01/31 08:29:18.6	312.820	-0.100	-0.670	-0.210
2020/01/31 08:29:18.7	312.830	-0.100	-0.710	-0.240
2020/01/31 08:29:18.8	312.840	-0.090	-0.740	-0.260
2020/01/31 08:29:18.9	312.850	-0.090	-0.760	-0.290
2020/01/31 08:29:19.0	312.860	-0.080	-0.790	-0.320
2020/01/31 08:29:19.1	312.860	-0.070	-0.810	-0.340
2020/01/31 08:29:19.2	312.870	-0.070	-0.830	-0.360
2020/01/31 08:29:19.3	312.880	-0.070	-0.840	-0.380
2020/01/31 08:29:19.4	312.880	-0.060	-0.850	-0.400
2020/01/31 08:29:19.5	312.890	-0.060	-0.850	-0.420
2020/01/31 08:29:19.6	312.900	-0.050	-0.850	-0.430
2020/01/31 08:29:19.7	312.900	-0.050	-0.850	-0.440
2020/01/31 08:29:19.8	312.910	-0.040	-0.840	-0.440
2020/01/31 08:29:19.9	312.910	-0.040	-0.830	-0.440
2020/01/31 08:29:20.0	312.920	-0.040	-0.820	-0.440
2020/01/31 08:29:20.1	312.920	-0.040	-0.800	-0.440
2020/01/31 08:29:20.2	312.920	-0.030	-0.780	-0.430
2020/01/31 08:29:20.3	312.920	-0.030	-0.750	-0.420
2020/01/31 08:29:20.4	312.920	-0.030	-0.720	-0.400
2020/01/31 08:29:20.5	312.920	-0.030	-0.690	-0.380
2020/01/31 08:29:20.6	312.910	-0.020	-0.650	-0.360
2020/01/31 08:29:20.7	312.910	-0.020	-0.610	-0.330
2020/01/31 08:29:20.8	312.900	-0.020	-0.570	-0.300
2020/01/31 08:29:20.9	312.890	-0.020	-0.530	-0.270
2020/01/31 08:29:21.0	312.890	-0.010	-0.480	-0.240
2020/01/31 08:29:21.1	312.880	-0.010	-0.440	-0.210
2020/01/31 08:29:21.2	312.880	-0.010	-0.390	-0.180
2020/01/31 08:29:21.3	312.870	-0.010	-0.350	-0.140
2020/01/31 08:29:21.4	312.880	-0.000	-0.300	-0.110
2020/01/31 08:29:21.5	312.880	0.000	-0.260	-0.070
2020/01/31 08:29:21.6	312.870	0.010	-0.220	-0.040
2020/01/31 08:29:21.7	312.870	0.010	-0.180	-0.010
2020/01/31 08:29:21.8	312.870	0.020	-0.140	0.020
2020/01/31 08:29:21.9	312.870	0.020	-0.110	0.050
2020/01/31 08:29:22.0	312.870	0.030	-0.070	0.080
2020/01/31 08:29:22.1	312.880	0.040	-0.050	0.110
2020/01/31 08:29:22.2	312.880	0.050	-0.030	0.140
2020/01/31 08:29:22.3	312.890	0.060	-0.010	0.170
2020/01/31 08:29:22.4	312.900	0.060	0.010	0.190
2020/01/31 08:29:22.5	312.910	0.070	0.020	0.220
2020/01/31 08:29:22.6	312.920	0.080	0.020	0.240
2020/01/31 08:29:22.7	312.930	0.090	0.030	0.260
2020/01/31 08:29:22.8	312.940	0.090	0.020	0.280
2020/01/31 08:29:22.9	312.950	0.100	0.010	0.290
2020/01/31 08:29:23.0	312.960	0.110	0.000	0.300
2020/01/31 08:29:23.1	312.970	0.110	-0.020	0.310
2020/01/31 08:29:23.2	312.990	0.110	-0.030	0.320
2020/01/31 08:29:23.3	313.000	0.120	-0.060	0.330
2020/01/31 08:29:23.4	313.020	0.120	-0.080	0.330
2020/01/31 08:29:23.5	313.030	0.120	-0.110	0.330
2020/01/31 08:29:23.6	313.050	0.120	-0.140	0.330
2020/01/31 08:29:23.7	313.070	0.120	-0.170	0.320
2020/01/31 08:29:23.8	313.090	0.110	-0.200	0.310
2020/01/31 08:29:23.9	313.100	0.110	-0.230	0.310
2020/01/31 08:29:24.0	313.120	0.100	-0.260	0.300
2020/01/31 08:29:24.1	313.140	0.090	-0.290	0.290
2020/01/31 08:29:24.2	313.160	0.080	-0.320	0.280
2020/01/31 08:29:24.3	313.170	0.070	-0.340	0.270
2020/01/31 08:29:24.4	313.190	0.060	-0.360	0.260
2020/01/31 08:29:24.5	313.210	0.050	-0.380	0.250
2020/01/31 08:29:24.6	313.220	0.030	-0.390	0.250
2020/01/31 08:29:24.7	313.240	0.020	-0.400	0.240
2020/01/31 08:29:24.8	313.250	0.000	-0.410	0.230
2020/01/31 08:29:24.9	313.260	-0.010	-0.410	0.230
2020/01/31 08:29:25.0	313.270	-0.030	-0.410	0.230
2020/01/31 08:29:25.1	313.280	-0.050	-0.400	0.220
2020/01/31 08:29:25.2	313.290	-0.070	-0.390	0.220
2020/01/31 08:29:25.3	313.300	-0.090	-0.380	0.220
2020/01/31 08:29:25.4	313.300	-0.110	-0.360	0.220
2020/01/31 08:29:25.5	313.310	-0.130	-0.340	0.220
2020/01/31 08:29:25.6	313.310	-0.150	-0.310	0.220
2020/01/31 08:29:25.7	313.310	-0.170	-0.290	0.220
2020/01/31 08:29:25.8	313.310	-0.190	-0.260	0.230
2020/01/31 08:29:25.9	313.310	-0.210	-0.220	0.230
2020/01/31 08:29:26.0	313.300	-0.230	-0.190	0.240
2020/01/31 08:29:26.1	313.300	-0.240	-0.150	0.250
2020/01/31 08:29:26.2	313.290	-0.260	-0.110	0.260
2020/01/31 08:29:26.3	313.280	-0.280	-0.070	0.270
2020/01/31 08:29:26.4	313.260	-0.300	-0.040	0.280
2020/01/31 08:29:26.5	313.250	-0.310	0.000	0.290
2020/01/31 08:29:26.6	313.240	-0.330	0.040	0.300
2020/01/31 08:29:26.7	313.220	-0.340	0.080	0.310
2020/01/31 08:29:26.8	313.210	-0.350	0.110	0.330
2020/01/31 08:29:26.9	313.190	-0.360	0.150	0.340
2020/01/31 08:29:27.0	313.170	-0.370	0.180	0.350
2020/01/31 08:29:27.1	313.150	-0.370	0.210	0.370
2020/01/31 08:29:27.2	313.140	-0.380	0.240	0.380
2020/01/31 08:29:27.3	313.120	-0.380	0.260	0.390
2020/01/31 08:29:27.4	313.100	-0.380	0.280	0.410
2020/01/31 08:29:27.5	313.070	-0.380	0.300	0.420
2020/01/31 08:29:27.6	313.050	-0.370	0.320	0.430
2020/01/31 08:29:27.7	313.030	-0.370	0.330	0.450
2020/01/31 08:29:27.8	313.010	-0.360	0.340	0.460
2020/01/31 08:29:27.9	312.990	-0.340	0.350	0.470
2020/01/31 08:29:28.0	312.960	-0.330	0.350	0.490
2020/01/31 08:29:28.1	312.940	-0.310	0.350	0.500
2020/01/31 08:29:28.2	312.910	-0.290	0.350	0.510
2020/01/31 08:29:28.3	312.890	-0.270	0.340	0.530
2020/01/31 08:29:28.4	312.850	-0.250	0.330	0.540
2020/01/31 08:29:28.5	312.830	-0.220	0.310	0.550
2020/01/31 08:29:28.6	312.800	-0.200	0.290	0.560
2020/01/31 08:29:28.7	312.780	-0.170	0.270	0.570
2020/01/31 08:29:28.8	312.750	-0.130	0.250	0.580
2020/01/31 08:29:28.9	312.730	-0.100	0.220	0.590
2020/01/31 08:29:29.0	312.700	-0.070	0.190	0.590
2020/01/31 08:29:29.1	312.680	-0.030	0.150	0.600
2020/01/31 08:29:29.2	312.660	0.010	0.110	0.600
2020/01/31 08:29:29.3	312.650	0.050	0.070	0.600
2020/01/31 08:29:29.4	312.640	0.090	0.030	0.600
2020/01/31 08:29:29.5	312.620	0.130	-0.020	0.600
2020/01/31 08:29:29.6	312.610	0.170	-0.070	0.590
2020/01/31 08:29:29.7	312.600	0.220	-0.120	0.590
2020/01/31 08:29:29.8	312.600	0.260	-0.170	0.580
2020/01/31 08:29:29.9	312.590	0.300	-0.220	0.570
2020/01/31 08:29:30.0	312.590	0.340	-0.280	0.560
2020/01/31 08:29:30.1	312.590	0.390	-0.330	0.550
2020/01/31 08:29:30.2	312.600	0.430	-0.380	0.530
2020/01/31 08:29:30.3	312.600	0.470	-0.430	0.520
2020/01/31 08:29:30.4	312.600	0.500	-0.490	0.500
2020/01/31 08:29:30.5	312.610	0.540	-0.540	0.490
2020/01/31 08:29:30.6	312.620	0.570	-0.580	0.470
2020/01/31 08:29:30.7	312.640	0.600	-0.630	0.450
2020/01/31 08:29:30.8	312.650	0.630	-0.670	0.440
2020/01/31 08:29:30.9	312.670	0.660	-0.710	0.420
2020/01/31 08:29:31.0	312.690	0.680	-0.750	0.400
2020/01/31 08:29:31.1	312.710	0.700	-0.780	0.390
2020/01/31 08:29:31.2	312.730	0.720	-0.810	0.370
2020/01/31 08:29:31.3	312.740	0.730	-0.830	0.360
2020/01/31 08:29:31.4	312.760	0.740	-0.850	0.340
2020/01/31 08:29:31.5	312.780	0.740	-0.870	0.330
2020/01/31 08:29:31.6	312.800	0.740	-0.880	0.320
2020/01/31 08:29:31.7	312.810	0.740	-0.890	0.310
2020/01/31 08:29:31.8	312.830	0.730	-0.890	0.290
2020/01/31 08:29:31.9	312.840	0.730	-0.890	0.280
2020/01/31 08:29:32.0	312.860	0.710	-0.880	0.270
2020/01/31 08:29:32.1	312.870	0.700	-0.880	0.260
2020/01/31 08:29:32.2	312.890	0.680	-0.860	0.250
2020/01/31 08:29:32.3	312.900	0.650	-0.850	0.230
2020/01/31 08:29:32.4	312.910	0.630	-0.830	0.230
2020/01/31 08:29:32.5	312.920	0.600	-0.810	0.220
2020/01/31 08:29:32.6	312.930	0.570	-0.790	0.210
2020/01/31 08:29:32.7	312.940	0.540	-0.760	0.190
2020/01/31 08:29:32.8	312.950	0.500	-0.730	0.180
2020/01/31 08:29:32.9	312.960	0.470	-0.700	0.170
2020/01/31 08:29:33.0	312.970	0.430	-0.670	0.160
2020/01/31 08:29:33.1	312.980	0.390	-0.640	0.150
2020/01/31 08:29:33.2	312.990	0.350	-0.610	0.140
2020/01/31 08:29:33.3	313.000	0.310	-0.570	0.130
2020/01/31 08:29:33.4	313.000	0.270	-0.540	0.120
2020/01/31 08:29:33.5	313.010	0.230	-0.500	0.100
2020/01/31 08:29:33.6	313.030	0.190	-0.470	0.090
2020/01/31 08:29:33.7	313.040	0.150	-0.440	0.080
2020/01/31 08:29:33.8	313.050	0.110	-0.410	0.070
2020/01/31 08:29:33.9	313.060	0.070	-0.380	0.050
2020/01/31 08:29:34.0	313.070	0.030	-0.350	0.040
2020/01/31 08:29:34.1	313.080	-0.010	-0.330	0.020
2020/01/31 08:29:34.2	313.090	-0.040	-0.300	0.010
2020/01/31 08:29:34.3	313.090	-0.080	-0.280	-0.000
2020/01/31 08:29:34.4	313.100	-0.120	-0.250	-0.020
2020/01/31 08:29:34.5	313.110	-0.150	-0.230	-0.030
2020/01/31 08:29:34.6	313.110	-0.180	-0.220	-0.050
2020/01/31 08:29:34.7	313.120	-0.220	-0.200	-0.060
2020/01/31 08:29:34.8	313.130	-0.250	-0.180	-0.070
2020/01/31 08:29:34.9	313.140	-0.280	-0.170	-0.080
2020/01/31 08:29:35.0	313.140	-0.300	-0.160	-0.090
2020/01/31 08:29:35.1	313.150	-0.330	-0.140	-0.100
2020/01/31 08:29:35.2	313.150	-0.360	-0.130	-0.110
2020/01/31 08:29:35.3	313.150	-0.380	-0.120	-0.110
2020/01/31 08:29:35.4	313.150	-0.400	-0.120	-0.120
2020/01/31 08:29:35.5	313.150	-0.420	-0.110	-0.120
2020/01/31 08:29:35.6	313.160	-0.440	-0.100	-0.120
2020/01/31 08:29:35.7	313.160	-0.460	-0.090	-0.120
2020/01/31 08:29:35.8	313.160	-0.470	-0.090	-0.120
2020/01/31 08:29:35.9	313.160	-0.490	-0.080	-0.120
2020/01/31 08:29:36.0	313.160	-0.500	-0.070	-0.120
2020/01/31 08:29:36.1	313.150	-0.510	-0.060	-0.110
2020/01/31 08:29:36.2	313.150	-0.520	-0.050	-0.100
2020/01/31 08:29:36.3	313.140	-0.530	-0.040	-0.090
2020/01/31 08:29:36.4	313.120	-0.540	-0.030	-0.080
2020/01/31 08:29:36.5	313.110	-0.550	-0.020	-0.060
2020/01/31 08:29:36.6	313.090	-0.550	-0.010	-0.040
2020/01/31 08:29:36.7	313.080	-0.560	0.000	-0.020
2020/01/31 08:29:36.8	313.060	-0.560	0.010	0.000
2020/01/31 08:29:36.9	313.040	-0.560	0.020	0.030
2020/01/31 08:29:37.0	313.020	-0.560	0.040	0.050
2020/01/31 08:29:37.1	313.000	-0.560	0.050	0.080
2020/01/31 08:29:37.2	312.980	-0.560	0.060	0.110
2020/01/31 08:29:37.3	312.960	-0.560	0.070	0.140
2020/01/31 08:29:37.4	312.930	-0.560	0.080	0.170
2020/01/31 08:29:37.5	312.910	-0.560	0.090	0.200
2020/01/31 08:29:37.6	312.880	-0.550	0.100	0.230
2020/01/31 08:29:37.7	312.860	-0.550	0.110	0.260
2020/01/31 08:29:37.8	312.840	-0.540	0.110	0.290
2020/01/31 08:29:37.9	312.820	-0.540	0.120	0.310
2020/01/31 08:29:38.0	312.800	-0.530	0.120	0.340
2020/01/31 08:29:38.1	312.780	-0.520	0.120	0.370
2020/01/31 08:29:38.2	312.760	-0.510	0.120	0.390
2020/01/31 08:29:38.3	312.740	-0.500	0.120	0.420
2020/01/31 08:29:38.4	312.730	-0.480	0.110	0.440
2020/01/31 08:29:38.5	312.710	-0.470	0.110	0.460
2020/01/31 08:29:38.6	312.690	-0.450	0.100	0.480
2020/01/31 08:29:38.7	312.670	-0.430	0.090	0.500
2020/01/31 08:29:38.8	312.660	-0.420	0.080	0.530
2020/01/31 08:29:38.9	312.640	-0.390	0.070	0.550
2020/01/31 08:29:39.0	312.620	-0.370	0.060	0.570
2020/01/31 08:29:39.1	312.610	-0.350	0.050	0.590
2020/01/31 08:29:39.2	312.590	-0.320	0.040	0.610
2020/01/31 08:29:39.3	312.580	-0.300	0.020	0.630
2020/01/31 08:29:39.4	312.550	-0.270	0.010	0.650
2020/01/31 08:29:39.5	312.540	-0.240	-0.010	0.670
2020/01/31 08:29:39.6	312.530	-0.210	-0.030	0.690
2020/01/31 08:29:39.7	312.520	-0.180	-0.050	0.710
2020/01/31 08:29:39.8	312.510	-0.150	-0.070	0.720
2020/01/31 08:29:39.9	312.500	-0.120	-0.090	0.740
2020/01/31 08:29:40.0	312.500	-0.080	-0.120	0.750
2020/01/31 08:29:40.1	312.500	-0.050	-0.140	0.750
2020/01/31 08:29:40.2	312.500	-0.010	-0.170	0.760
2020/01/31 08:29:40.3	312.500	0.020	-0.200	0.760
2020/01/31 08:29:40.4	312.500	0.060	-0.220	0.760
2020/01/31 08:29:40.5	312.500	0.090	-0.250	0.750
2020/01/31 08:29:40.6	312.510	0.130	-0.290	0.750
2020/01/31 08:29:40.7	312.520	0.160	-0.320	0.740
2020/01/31 08:29:40.8	312.530	0.200	-0.350	0.720
2020/01/31 08:29:40.9	312.540	0.230	-0.380	0.710
2020/01/31 08:29:41.0	312.550	0.270	-0.420	0.690
2020/01/31 08:29:41.1	312.560	0.300	-0.450	0.670
2020/01/31 08:29:41.2	312.580	0.330	-0.480	0.640
2020/01/31 08:29:41.3	312.590	0.360	-0.510	0.620
2020/01/31 08:29:41.4	312.610	0.390	-0.540	0.590
2020/01/31 08:29:41.5	312.630	0.420	-0.570	0.570
2020/01/31 08:29:41.6	312.640	0.450	-0.590	0.540
2020/01/31 08:29:41.7	312.660	0.470	-0.620	0.510
2020/01/31 08:29:41.8	312.680	0.500	-0.640	0.490
2020/01/31 08:29:41.9	312.690	0.520	-0.650	0.460
2020/01/31 08:29:42.0	312.710	0.540	-0.670	0.430
2020/01/31 08:29:42.1	312.730	0.560	-0.680	0.410
2020/01/31 08:29:42.2	312.750	0.570	-0.680	0.390
2020/01/31 08:29:42.3	312.760	0.590	-0.690	0.360
2020/01/31 08:29:42.4	312.790	0.600	-0.690	0.350
2020/01/31 08:29:42.5	312.800	0.610	-0.680	0.330
2020/01/31 08:29:42.6	312.820	0.610	-0.670	0.310
2020/01/31 08:29:42.7	312.840	0.620	-0.660	0.300
2020/01/31 08:29:42.8	312.860	0.620	-0.640	0.280
2020/01/31 08:29:42.9	312.870	0.620	-0.620	0.270
2020/01/31 08:29:43.0	312.890	0.610	-0.590	0.260
2020/01/31 08:29:43.1	312.900	0.610	-0.560	0.250
2020/01/31 08:29:43.2	312.920	0.600	-0.530	0.240
2020/01/31 08:29:43.3	312.930	0.590	-0.490	0.240
2020/01/31 08:29:43.4	312.960	0.570	-0.450	0.240
2020/01/31 08:29:43.5	312.970	0.550	-0.410	0.230
2020/01/31 08:29:43.6	312.980	0.530	-0.370	0.230
2020/01/31 08:29:43.7	312.990	0.510	-0.320	0.240
2020/01/31 08:29:43.8	313.000	0.490	-0.280	0.240
2020/01/31 08:29:43.9	313.000	0.460	-0.230	0.250
2020/01/31 08:29:44.0	313.010	0.430	-0.180	0.260
2020/01/31 08:29:44.1	313.010	0.400	-0.130	0.270
2020/01/31 08:29:44.2	313.010	0.370	-0.080	0.280
2020/01/31 08:29:44.3	313.000	0.330	-0.040	0.300
2020/01/31 08:29:44.4	313.000	0.300	0.010	0.320
2020/01/31 08:29:44.5	313.000	0.260	0.060	0.330
2020/01/31 08:29:44.6	312.990	0.220	0.100	0.350
2020/01/31 08:29:44.7	312.980	0.190	0.140	0.370
2020/01/31 08:29:44.8	312.970	0.150	0.180	0.390
2020/01/31 08:29:44.9	312.950	0.110	0.210	0.410
2020/01/31 08:29:45.0	312.940	0.070	0.240	0.430
2020/01/31 08:29:45.1	312.930	0.030	0.270	0.450
2020/01/31 08:29:45.2	312.920	-0.010	0.290	0.460
2020/01/31 08:29:45.3	312.900	-0.040	0.300	0.470
2020/01/31 08:29:45.4	312.890	-0.080	0.310	0.480
2020/01/31 08:29:45.5	312.880	-0.120	0.320	0.480
2020/01/31 08:29:45.6	312.870	-0.150	0.310	0.480
2020/01/31 08:29:45.7	312.860	-0.190	0.310	0.480
2020/01/31 08:29:45.8	312.850	-0.220	0.290	0.470
2020/01/31 08:29:45.9	312.840	-0.250	0.280	0.450
2020/01/31 08:29:46.0	312.830	-0.280	0.250	0.440
2020/01/31 08:29:46.1	312.830	-0.300	0.230	0.420
2020/01/31 08:29:46.2	312.820	-0.330	0.200	0.400
2020/01/31 08:29:46.3	312.820	-0.350	0.160	0.370
2020/01/31 08:29:46.4	312.830	-0.370	0.120	0.340
2020/01/31 08:29:46.5	312.820	-0.390	0.080	0.300
2020/01/31 08:29:46.6	312.820	-0.400	0.040	0.270
2020/01/31 08:29:46.7	312.820	-0.410	-0.010	0.230
2020/01/31 08:29:46.8	312.820	-0.420	-0.050	0.200
2020/01/31 08:29:46.9	312.820	-0.430	-0.100	0.160
2020/01/31 08:29:47.0	312.820	-0.440	-0.150	0.120
2020/01/31 08:29:47.1	312.830	-0.440	-0.200	0.080
2020/01/31 08:29:47.2	312.830	-0.440	-0.240	0.040
2020/01/31 08:29:47.3	312.830	-0.440	-0.290	-0.000
2020/01/31 08:29:47.4	312.840	-0.430	-0.330	-0.040
2020/01/31 08:29:47.5	312.850	-0.430	-0.380	-0.080
2020/01/31 08:29:47.6	312.860	-0.420	-0.420	-0.120
2020/01/31 08:29:47.7	312.860	-0.400	-0.450	-0.160
2020/01/31 08:29:47.8	312.870	-0.390	-0.490	-0.190
2020/01/31 08:29:47.9	312.880	-0.380	-0.520	-0.230
2020/01/31 08:29:48.0	312.890	-0.360	-0.560	-0.260
2020/01/31 08:29:48.1	312.900	-0.340	-0.580	-0.290
2020/01/31 08:29:48.2	312.910	-0.320	-0.610	-0.320
2020/01/31 08:29:48.3	312.920	-0.300	-0.630	-0.350
2020/01/31 08:29:48.4	312.920	-0.270	-0.650	-0.380
2020/01/31 08:29:48.5	312.930	-0.250	-0.670	-0.400
2020/01/31 08:29:48.6	312.940	-0.220	-0.680	-0.420
2020/01/31 08:29:48.7	312.950	-0.190	-0.690	-0.430
2020/01/31 08:29:48.8	312.970	-0.170	-0.700	-0.440
2020/01/31 08:29:48.9	312.980	-0.140	-0.700	-0.450
2020/01/31 08:29:49.0	312.990	-0.110	-0.700	-0.460
2020/01/31 08:29:49.1	313.000	-0.080	-0.700	-0.460
2020/01/31 08:29:49.2	313.010	-0.050	-0.700	-0.450
2020/01/31 08:29:49.3	313.020	-0.030	-0.690	-0.450
2020/01/31 08:29:49.4	313.050	0.000	-0.690	-0.430
2020/01/31 08:29:49.5	313.060	0.030	-0.680	-0.420
2020/01/31 08:29:49.6	313.070	0.060	-0.660	-0.400
2020/01/31 08:29:49.7	313.070	0.080	-0.650	-0.370
2020/01/31 08:29:49.8	313.080	0.100	-0.630	-0.350
2020/01/31 08:29:49.9	313.090	0.130	-0.620	-0.310
2020/01/31 08:29:50.0	313.090	0.150	-0.600	-0.280
2020/01/31 08:29:50.1	313.090	0.170	-0.570	-0.250
2020/01/31 08:29:50.2	313.100	0.190	-0.550	-0.210
2020/01/31 08:29:50.3	313.100	0.200	-0.530	-0.170
2020/01/31 08:29:50.4	313.120	0.220	-0.500	-0.120
2020/01/31 08:29:50.5	313.110	0.230	-0.480	-0.080
2020/01/31 08:29:50.6	313.110	0.240	-0.450	-0.040
2020/01/31 08:29:50.7	313.110	0.250	-0.430	0.010
2020/01/31 08:29:50.8	313.100	0.260	-0.400	0.050
2020/01/31 08:29:50.9	313.100	0.270	-0.380	0.100
2020/01/31 08:29:51.0	313.090	0.270	-0.350	0.140
2020/01/31 08:29:51.1	313.090	0.270	-0.330	0.190
2020/01/31 08:29:51.2	313.080	0.280	-0.310	0.230
2020/01/31 08:29:51.3	313.070	0.270	-0.280	0.270
2020/01/31 08:29:51.4	313.080	0.270	-0.260	0.310
2020/01/31 08:29:51.5	313.070	0.270	-0.240	0.360
2020/01/31 08:29:51.6	313.060	0.260	-0.220	0.400
2020/01/31 08:29:51.7	313.050	0.250	-0.200	0.430
2020/01/31 08:29:51.8	313.040	0.240	-0.180	0.470
2020/01/31 08:29:51.9	313.040	0.230	-0.170	0.510
2020/01/31 08:29:52.0	313.030	0.220	-0.150	0.540
2020/01/31 08:29:52.1	313.020	0.210	-0.140	0.570
2020/01/31 08:29:52.2	313.010	0.200	-0.120	0.600
2020/01/31 08:29:52.3	313.010	0.180	-0.110	0.630
2020/01/31 08:29:52.4	312.980	0.160	-0.100	0.660
2020/01/31 08:29:52.5	312.970	0.150	-0.090	0.680
2020/01/31 08:29:52.6	312.970	0.130	-0.090	0.700
2020/01/31 08:29:52.7	312.970	0.110	-0.080	0.720
2020/01/31 08:29:52.8	312.960	0.090	-0.080	0.740
2020/01/31 08:29:52.9	312.960	0.070	-0.080	0.750
2020/01/31 08:29:53.0	312.960	0.050	-0.080	0.760
2020/01/31 08:29:53.1	312.960	0.030	-0.080	0.760
2020/01/31 08:29:53.2	312.970	0.000	-0.080	0.760
2020/01/31 08:29:53.3	312.970	-0.020	-0.090	0.760
2020/01/31 08:29:53.4	312.970	-0.040	-0.090	0.750
2020/01/31 08:29:53.5	312.980	-0.060	-0.100	0.730
2020/01/31 08:29:53.6	312.980	-0.090	-0.100	0.720
2020/01/31 08:29:53.7	312.990	-0.110	-0.110	0.700
2020/01/31 08:29:53.8	313.010	-0.130	-0.120	0.680
2020/01/31 08:29:53.9	313.020	-0.150	-0.130	0.650
2020/01/31 08:29:54.0	313.030	-0.170	-0.140	0.630
2020/01/31 08:29:54.1	313.040	-0.200	-0.150	0.600
2020/01/31 08:29:54.2	313.060	-0.220	-0.160	0.570
2020/01/31 08:29:54.3	313.070	-0.230	-0.170	0.530
2020/01/31 08:29:54.4	313.090	-0.250	-0.180	0.500
2020/01/31 08:29:54.5	313.110	-0.270	-0.190	0.460
2020/01/31 08:29:54.6	313.120	-0.290	-0.200	0.420
2020/01/31 08:29:54.7	313.140	-0.300	-0.200	0.380
2020/01/31 08:29:54.8	313.150	-0.320	-0.210	0.340
2020/01/31 08:29:54.9	313.170	-0.330	-0.220	0.300
2020/01/31 08:29:55.0	313.190	-0.340	-0.220	0.260
2020/01/31 08:29:55.1	313.200	-0.350	-0.220	0.220
2020/01/31 08:29:55.2	313.220	-0.360	-0.220	0.180
2020/01/31 08:29:55.3	313.230	-0.370	-0.220	0.140
2020/01/31 08:29:55.4	313.250	-0.380	-0.220	0.110
2020/01/31 08:29:55.5	313.260	-0.380	-0.220	0.070
2020/01/31 08:29:55.6	313.280	-0.390	-0.220	0.030
2020/01/31 08:29:55.7	313.290	-0.390	-0.210	0.000
2020/01/31 08:29:55.8	313.310	-0.390	-0.200	-0.030
2020/01/31 08:29:55.9	313.320	-0.390	-0.200	-0.060
2020/01/31 08:29:56.0	313.330	-0.380	-0.190	-0.080
2020/01/31 08:29:56.1	313.330	-0.380	-0.180	-0.100
2020/01/31 08:29:56.2	313.340	-0.370	-0.170	-0.120
2020/01/31 08:29:56.3	313.350	-0.370	-0.150	-0.140
2020/01/31 08:29:56.4	313.330	-0.360	-0.140	-0.150
2020/01/31 08:29:56.5	313.330	-0.350	-0.130	-0.160
2020/01/31 08:29:56.6	313.330	-0.340	-0.110	-0.160
2020/01/31 08:29:56.7	313.320	-0.320	-0.100	-0.160
2020/01/31 08:29:56.8	313.320	-0.310	-0.080	-0.160
2020/01/31 08:29:56.9	313.310	-0.290	-0.060	-0.150
2020/01/31 08:29:57.0	313.300	-0.280	-0.050	-0.140
2020/01/31 08:29:57.1	313.290	-0.260	-0.030	-0.120
2020/01/31 08:29:57.2	313.270	-0.240	-0.010	-0.100
2020/01/31 08:29:57.3	313.260	-0.220	0.000	-0.080
2020/01/31 08:29:57.4	313.250	-0.200	0.020	-0.060
2020/01/31 08:29:57.5	313.230	-0.170	0.030	-0.030
2020/01/31 08:29:57.6	313.210	-0.150	0.040	0.000
2020/01/31 08:29:57.7	313.200	-0.120	0.050	0.030
2020/01/31 08:29:57.8	313.180	-0.100	0.060	0.070
2020/01/31 08:29:57.9	313.160	-0.070	0.070	0.100
2020/01/31 08:29:58.0	313.140	-0.040	0.080	0.140
2020/01/31 08:29:58.1	313.130	-0.010	0.080	0.170
2020/01/31 08:29:58.2	313.110	0.020	0.080	0.210
2020/01/31 08:29:58.3	313.090	0.050	0.080	0.250
2020/01/31 08:29:58.4	313.080	0.080	0.070	0.290
2020/01/31 08:29:58.5	313.060	0.110	0.070	0.320
2020/01/31 08:29:58.6	313.050	0.140	0.060	0.360
2020/01/31 08:29:58.7	313.030	0.170	0.040	0.390
2020/01/31 08:29:58.8	313.020	0.210	0.030	0.420
2020/01/31 08:29:58.9	313.010	0.240	0.010	0.450
2020/01/31 08:29:59.0	312.990	0.270	-0.010	0.480
2020/01/31 08:29:59.1	312.980	0.300	-0.040	0.510
2020/01/31 08:29:59.2	312.970	0.330	-0.060	0.530
2020/01/31 08:29:59.3	312.960	0.370	-0.090	0.560
2020/01/31 08:29:59.4	312.940	0.400	-0.110	0.580
2020/01/31 08:29:59.5	312.930	0.420	-0.150	0.600
2020/01/31 08:29:59.6	312.930	0.450	-0.180	0.620
2020/01/31 08:29:59.7	312.920	0.480	-0.210	0.630
2020/01/31 08:29:59.8	312.910	0.500	-0.240	0.640
2020/01/31 08:29:59.9	312.900	0.520	-0.270	0.650
2020/01/31 08:30:00.0	312.900	0.540	-0.310	0.660
2020/01/31 08:30:00.1	312.890	0.560	-0.340	0.670
2020/01/31 08:30:00.2	312.890	0.580	-0.370	0.670
2020/01/31 08:30:00.3	312.890	0.590	-0.400	0.670
2020/01/31 08:30:00.4	312.870	0.600	-0.420	0.670
2020/01/31 08:30:00.5	312.870	0.600	-0.450	0.670
2020/01/31 08:30:00.6	312.860	0.610	-0.470	0.670
2020/01/31 08:30:00.7	312.860	0.600	-0.490	0.660
2020/01/31 08:30:00.8	312.860	0.600	-0.510	0.650
2020/01/31 08:30:00.9	312.860	0.590	-0.530	0.640
2020/01/31 08:30:01.0	312.870	0.580	-0.540	0.630
2020/01/31 08:30:01.1	312.870	0.570	-0.550	0.620
2020/01/31 08:30:01.2	312.870	0.550	-0.560	0.610
2020/01/31 08:30:01.3	312.880	0.530	-0.570	0.590
2020/01/31 08:30:01.4	312.880	0.510	-0.570	0.580
2020/01/31 08:30:01.5	312.890	0.480	-0.570	0.560
2020/01/31 08:30:01.6	312.890	0.450	-0.570	0.540
2020/01/31 08:30:01.7	312.900	0.420	-0.560	0.520
2020/01/31 08:30:01.8	312.900	0.380	-0.560	0.500
2020/01/31 08:30:01.9	312.910	0.340	-0.550	0.480
2020/01/31 08:30:02.0	312.910	0.300	-0.540	0.460
2020/01/31 08:30:02.1	312.920	0.260	-0.520	0.450
2020/01/31 08:30:02.2	312.920	0.220	-0.510	0.430
2020/01/31 08:30:02.3	312.920	0.180	-0.490	0.410
2020/01/31 08:30:02.4	312.920	0.130	-0.460	0.390
2020/01/31 08:30:02.5	312.930	0.090	-0.440	0.370
2020/01/31 08:30:02.6	312.930	0.040	-0.420	0.350
2020/01/31 08:30:02.7	312.930	-0.000	-0.400	0.340
2020/01/31 08:30:02.8	312.920	-0.050	-0.380	0.320
2020/01/31 08:30:02.9	312.920	-0.090	-0.350	0.310
2020/01/31 08:30:03.0	312.920	-0.130	-0.330	0.290
2020/01/31 08:30:03.1	312.920	-0.170	-0.310	0.280
2020/01/31 08:30:03.2	312.910	-0.210	-0.280	0.270
2020/01/31 08:30:03.3	312.910	-0.250	-0.260	0.250
2020/01/31 08:30:03.4	312.900	-0.280	-0.250	0.240
2020/01/31 08:30:03.5	312.900	-0.310	-0.230	0.220
2020/01/31 08:30:03.6	312.900	-0.340	-0.220	0.210
2020/01/31 08:30:03.7	312.890	-0.370	-0.200	0.200
2020/01/31 08:30:03.8	312.890	-0.390	-0.190	0.180
2020/01/31 08:30:03.9	312.890	-0.410	-0.180	0.160
2020/01/31 08:30:04.0	312.880	-0.430	-0.180	0.150
2020/01/31 08:30:04.1	312.880	-0.440	-0.170	0.130
2020/01/31 08:30:04.2	312.880	-0.450	-0.170	0.110
2020/01/31 08:30:04.3	312.880	-0.460	-0.180	0.090
2020/01/31 08:30:04.4	312.880	-0.470	-0.180	0.070
2020/01/31 08:30:04.5	312.880	-0.470	-0.180	0.050
2020/01/31 08:30:04.6	312.880	-0.470	-0.200	0.020
2020/01/31 08:30:04.7	312.880	-0.470	-0.210	-0.000
2020/01/31 08:30:04.8	312.880	-0.470	-0.220	-0.030
2020/01/31 08:30:04.9	312.880	-0.470	-0.240	-0.050
2020/01/31 08:30:05.0	312.870	-0.460	-0.250	-0.080
2020/01/31 08:30:05.1	312.870	-0.450	-0.270	-0.100
2020/01/31 08:30:05.2	312.870	-0.440	-0.290	-0.130
2020/01/31 08:30:05.3	312.870	-0.430	-0.310	-0.150
2020/01/31 08:30:05.4	312.860	-0.420	-0.330	-0.180
2020/01/31 08:30:05.5	312.860	-0.400	-0.340	-0.200
2020/01/31 08:30:05.6	312.860	-0.390	-0.360	-0.220
2020/01/31 08:30:05.7	312.860	-0.370	-0.370	-0.240
2020/01/31 08:30:05.8	312.850	-0.360	-0.380	-0.260
2020/01/31 08:30:05.9	312.850	-0.340	-0.390	-0.280
2020/01/31 08:30:06.0	312.850	-0.330	-0.400	-0.300
2020/01/31 08:30:06.1	312.840	-0.310	-0.400	-0.310
2020/01/31 08:30:06.2	312.840	-0.290	-0.410	-0.320
2020/01/31 08:30:06.3	312.840	-0.270	-0.410	-0.330
2020/01/31 08:30:06.4	312.830	-0.260	-0.400	-0.350
2020/01/31 08:30:06.5	312.830	-0.240	-0.400	-0.350
2020/01/31 08:30:06.6	312.830	-0.220	-0.390	-0.360
2020/01/31 08:30:06.7	312.830	-0.200	-0.390	-0.360
2020/01/31 08:30:06.8	312.830	-0.190	-0.380	-0.360
2020/01/31 08:30:06.9	312.830	-0.170	-0.370	-0.360
2020/01/31 08:30:07.0	312.830	-0.150	-0.370	-0.360
2020/01/31 08:30:07.1	312.830	-0.140	-0.360	-0.350
2020/01/31 08:30:07.2	312.830	-0.120	-0.350	-0.350
2020/01/31 08:30:07.3	312.830	-0.100	-0.340	-0.340
2020/01/31 08:30:07.4	312.840	-0.090	-0.330	-0.320
2020/01/31 08:30:07.5	312.840	-0.070	-0.330	-0.310
2020/01/31 08:30:07.6	312.850	-0.060	-0.320	-0.290
2020/01/31 08:30:07.7	312.850	-0.040	-0.310	-0.280
2020/01/31 08:30:07.8	312.850	-0.030	-0.310	-0.260
2020/01/31 08:30:07.9	312.850	-0.020	-0.300	-0.240
2020/01/31 08:30:08.0	312.850	-0.000	-0.300	-0.210
2020/01/31 08:30:08.1	312.850	0.010	-0.290	-0.190
2020/01/31 08:30:08.2	312.850	0.020	-0.290	-0.160
2020/01/31 08:30:08.3	312.850	0.030	-0.280	-0.130
2020/01/31 08:30:08.4	312.860	0.050	-0.270	-0.090
2020/01/31 08:30:08.5	312.860	0.060	-0.270	-0.050
2020/01/31 08:30:08.6	312.850	0.070	-0.260	-0.010
2020/01/31 08:30:08.7	312.850	0.080	-0.250	0.030
2020/01/31 08:30:08.8	312.840	0.090	-0.240	0.070
2020/01/31 08:30:08.9	312.840	0.090	-0.230	0.110
2020/01/31 08:30:09.0	312.830	0.100	-0.220	0.160
2020/01/31 08:30:09.1	312.830	0.110	-0.210	0.210
2020/01/31 08:30:09.2	312.820	0.120	-0.200	0.250
2020/01/31 08:30:09.3	312.810	0.120	-0.190	0.300
2020/01/31 08:30:09.4	312.820	0.130	-0.180	0.350
2020/01/31 08:30:09.5	312.810	0.130	-0.170	0.400
2020/01/31 08:30:09.6	312.810	0.130	-0.160	0.450
2020/01/31 08:30:09.7	312.800	0.140	-0.150	0.490
2020/01/31 08:30:09.8	312.800	0.140	-0.140	0.540
2020/01/31 08:30:09.9	312.790	0.140	-0.130	0.580
2020/01/31 08:30:10.0	312.790	0.140	-0.120	0.620
2020/01/31 08:30:10.1	312.790	0.140	-0.120	0.650
2020/01/31 08:30:10.2	312.790	0.140	-0.110	0.690
2020/01/31 08:30:10.3	312.790	0.140	-0.100	0.720
2020/01/31 08:30:10.4	312.780	0.140	-0.080	0.750
2020/01/31 08:30:10.5	312.780	0.140	-0.080	0.780
2020/01/31 08:30:10.6	312.780	0.140	-0.070	0.800
2020/01/31 08:30:10.7	312.780	0.140	-0.060	0.830
2020/01/31 08:30:10.8	312.780	0.140	-0.050	0.850
2020/01/31 08:30:10.9	312.780	0.130	-0.030	0.870
2020/01/31 08:30:11.0	312.790	0.130	-0.020	0.890
2020/01/31 08:30:11.1	312.790	0.130	-0.010	0.910
2020/01/31 08:30:11.2	312.790	0.130	0.000	0.930
2020/01/31 08:30:11.3	312.790	0.130	0.020	0.940
2020/01/31 08:30:11.4	312.780	0.130	0.030	0.950
2020/01/31 08:30:11.5	312.780	0.130	0.040	0.960
2020/01/31 08:30:11.6	312.780	0.120	0.060	0.980
2020/01/31 08:30:11.7	312.780	0.120	0.070	0.990
2020/01/31 08:30:11.8	312.770	0.130	0.090	1.000
2020/01/31 08:30:11.9	312.770	0.130	0.100	1.020
2020/01/31 08:30:12.0	312.760	0.130	0.110	1.030
2020/01/31 08:30:12.1	312.750	0.130	0.130	1.040
2020/01/31 08:30:12.2	312.750	0.130	0.140	1.040
2020/01/31 08:30:12.3	312.740	0.130	0.150	1.050
2020/01/31 08:30:12.4	312.720	0.140	0.150	1.060
2020/01/31 08:30:12.5	312.710	0.140	0.160	1.060
2020/01/31 08:30:12.6	312.690	0.140	0.160	1.070
2020/01/31 08:30:12.7	312.680	0.150	0.160	1.060
2020/01/31 08:30:12.8	312.670	0.150	0.160	1.060
2020/01/31 08:30:12.9	312.650	0.150	0.150	1.060
2020/01/31 08:30:13.0	312.640	0.150	0.140	1.040
2020/01/31 08:30:13.1	312.630	0.160	0.130	1.030
2020/01/31 08:30:13.2	312.620	0.160	0.110	1.010
2020/01/31 08:30:13.3	312.600	0.160	0.090	0.990
2020/01/31 08:30:13.4	312.590	0.160	0.060	0.960
2020/01/31 08:30:13.5	312.590	0.170	0.030	0.930
2020/01/31 08:30:13.6	312.580	0.170	-0.000	0.890
2020/01/31 08:30:13.7	312.570	0.170	-0.040	0.860
2020/01/31 08:30:13.8	312.570	0.170	-0.090	0.810
2020/01/31 08:30:13.9	312.570	0.170	-0.130	0.760
2020/01/31 08:30:14.0	312.570	0.170	-0.180	0.710
2020/01/31 08:30:14.1	312.570	0.170	-0.230	0.660
2020/01/31 08:30:14.2	312.570	0.170	-0.290	0.600
2020/01/31 08:30:14.3	312.580	0.170	-0.340	0.540
2020/01/31 08:30:14.4	312.590	0.170	-0.400	0.480
2020/01/31 08:30:14.5	312.590	0.170	-0.460	0.410
2020/01/31 08:30:14.6	312.600	0.160	-0.510	0.350
2020/01/31 08:30:14.7	312.610	0.160	-0.560	0.290
2020/01/31 08:30:14.8	312.620	0.150	-0.620	0.230
2020/01/31 08:30:14.9	312.630	0.150	-0.660	0.160
2020/01/31 08:30:15.0	312.640	0.140	-0.710	0.100
2020/01/31 08:30:15.1	312.660	0.130	-0.750	0.040
2020/01/31 08:30:15.2	312.670	0.120	-0.780	-0.020
2020/01/31 08:30:15.3	312.680	0.110	-0.820	-0.070
2020/01/31 08:30:15.4	312.690	0.100	-0.840	-0.130
2020/01/31 08:30:15.5	312.710	0.080	-0.860	-0.180
2020/01/31 08:30:15.6	312.720	0.070	-0.870	-0.230
2020/01/31 08:30:15.7	312.740	0.060	-0.880	-0.280
2020/01/31 08:30:15.8	312.750	0.040	-0.880	-0.330
2020/01/31 08:30:15.9	312.770	0.020	-0.870	-0.370
2020/01/31 08:30:16.0	312.780	0.010	-0.860	-0.410
2020/01/31 08:30:16.1	312.800	-0.010	-0.840	-0.450
2020/01/31 08:30:16.2	312.810	-0.030	-0.820	-0.480
2020/01/31 08:30:16.3	312.830	-0.050	-0.790	-0.510
2020/01/31 08:30:16.4	312.840	-0.070	-0.760	-0.530
2020/01/31 08:30:16.5	312.850	-0.090	-0.720	-0.550
2020/01/31 08:30:16.6	312.860	-0.120	-0.680	-0.570
2020/01/31 08:30:16.7	312.870	-0.140	-0.640	-0.590
2020/01/31 08:30:16.8	312.880	-0.160	-0.590	-0.600
2020/01/31 08:30:16.9	312.890	-0.180	-0.540	-0.610
2020/01/31 08:30:17.0	312.900	-0.200	-0.490	-0.610
2020/01/31 08:30:17.1	312.910	-0.230	-0.440	-0.610
2020/01/31 08:30:17.2	312.920	-0.250	-0.390	-0.620
2020/01/31 08:30:17.3	312.930	-0.270	-0.340	-0.610
2020/01/31 08:30:17.4	312.960	-0.290	-0.280	-0.610
2020/01/31 08:30:17.5	312.970	-0.300	-0.230	-0.610
2020/01/31 08:30:17.6	312.980	-0.320	-0.190	-0.600
2020/01/31 08:30:17.7	312.990	-0.340	-0.140	-0.590
2020/01/31 08:30:17.8	313.010	-0.350	-0.100	-0.580
2020/01/31 08:30:17.9	313.020	-0.360	-0.050	-0.570
2020/01/31 08:30:18.0	313.030	-0.370	-0.020	-0.560
2020/01/31 08:30:18.1	313.040	-0.380	0.020	-0.540
2020/01/31 08:30:18.2	313.050	-0.390	0.060	-0.520
2020/01/31 08:30:18.3	313.060	-0.390	0.090	-0.500
2020/01/31 08:30:18.4	313.080	-0.390	0.120	-0.480
2020/01/31 08:30:18.5	313.090	-0.390	0.140	-0.450
2020/01/31 08:30:18.6	313.100	-0.390	0.170	-0.420
2020/01/31 08:30:18.7	313.100	-0.380	0.190	-0.390
2020/01/31 08:30:18.8	313.100	-0.370	0.210	-0.350
2020/01/31 08:30:18.9	313.110	-0.360	0.230	-0.310
2020/01/31 08:30:19.0	313.110	-0.340	0.240	-0.260
2020/01/31 08:30:19.1	313.110	-0.320	0.260	-0.210
2020/01/31 08:30:19.2	313.100	-0.300	0.270	-0.160
2020/01/31 08:30:19.3	313.100	-0.280	0.270	-0.110
2020/01/31 08:30:19.4	313.110	-0.250	0.280	-0.060
2020/01/31 08:30:19.5	313.110	-0.230	0.280	-0.000
2020/01/31 08:30:19.6	313.100	-0.200	0.280	0.050
2020/01/31 08:30:19.7	313.100	-0.170	0.270	0.110
2020/01/31 08:30:19.8	313.100	-0.140	0.260	0.160
2020/01/31 08:30:19.9	313.090	-0.110	0.250	0.220
2020/01/31 08:30:20.0	313.090	-0.070	0.230	0.270
2020/01/31 08:30:20.1	313.080	-0.040	0.210	0.320
2020/01/31 08:30:20.2	313.080	-0.010	0.180	0.370
2020/01/31 08:30:20.3	313.080	0.020	0.150	0.420
2020/01/31 08:30:20.4	313.070	0.060	0.120	0.470
2020/01/31 08:30:20.5	313.070	0.090	0.080	0.510
2020/01/31 08:30:20.6	313.070	0.120	0.040	0.550
2020/01/31 08:30:20.7	313.070	0.150	-0.010	0.590
2020/01/31 08:30:20.8	313.070	0.170	-0.060	0.620
2020/01/31 08:30:20.9	313.060	0.200	-0.110	0.650
2020/01/31 08:30:21.0	313.060	0.220	-0.160	0.680
2020/01/31 08:30:21.1	313.060	0.240	-0.210	0.710
2020/01/31 08:30:21.2	313.060	0.260	-0.270	0.730
2020/01/31 08:30:21.3	313.050	0.280	-0.330	0.750
2020/01/31 08:30:21.4	313.040	0.300	-0.380	0.770
2020/01/31 08:30:21.5	313.030	0.310	-0.430	0.780
2020/01/31 08:30:21.6	313.030	0.320	-0.490	0.790
2020/01/31 08:30:21.7	313.030	0.320	-0.540	0.800
2020/01/31 08:30:21.8	313.020	0.330	-0.590	0.800
2020/01/31 08:30:21.9	313.020	0.330	-0.640	0.800
2020/01/31 08:30:22.0	313.010	0.330	-0.680	0.800
2020/01/31 08:30:22.1	313.010	0.320	-0.720	0.800
2020/01/31 08:30:22.2	313.000	0.320	-0.750	0.790
2020/01/31 08:30:22.3	312.990	0.310	-0.780	0.790
2020/01/31 08:30:22.4	312.990	0.300	-0.810	0.780
2020/01/31 08:30:22.5	312.980	0.280	-0.820	0.770
2020/01/31 08:30:22.6	312.970	0.270	-0.840	0.760
2020/01/31 08:30:22.7	312.960	0.250	-0.850	0.760
2020/01/31 08:30:22.8	312.950	0.240	-0.850	0.750
2020/01/31 08:30:22.9	312.940	0.220	-0.840	0.740
2020/01/31 08:30:23.0	312.930	0.200	-0.840	0.730
2020/01/31 08:30:23.1	312.920	0.180	-0.820	0.720
2020/01/31 08:30:23.2	312.910	0.160	-0.800	0.710
2020/01/31 08:30:23.3	312.900	0.130	-0.780	0.700
2020/01/31 08:30:23.4	312.880	0.110	-0.750	0.680
2020/01/31 08:30:23.5	312.860	0.090	-0.720	0.670
2020/01/31 08:30:23.6	312.850	0.060	-0.690	0.650
2020/01/31 08:30:23.7	312.840	0.040	-0.650	0.640
2020/01/31 08:30:23.8	312.830	0.010	-0.620	0.620
2020/01/31 08:30:23.9	312.820	-0.010	-0.580	0.600
2020/01/31 08:30:24.0	312.810	-0.030	-0.530	0.580
2020/01/31 08:30:24.1	312.800	-0.060	-0.490	0.560
2020/01/31 08:30:24.2	312.780	-0.080	-0.450	0.540
2020/01/31 08:30:24.3	312.770	-0.100	-0.410	0.510
2020/01/31 08:30:24.4	312.750	-0.120	-0.360	0.490
2020/01/31 08:30:24.5	312.740	-0.150	-0.320	0.460
2020/01/31 08:30:24.6	312.730	-0.160	-0.280	0.430
2020/01/31 08:30:24.7	312.720	-0.180	-0.240	0.400
2020/01/31 08:30:24.8	312.710	-0.200	-0.200	0.380
2020/01/31 08:30:24.9	312.700	-0.220	-0.170	0.340
2020/01/31 08:30:25.0	312.700	-0.230	-0.140	0.310
2020/01/31 08:30:25.1	312.690	-0.240	-0.110	0.280
2020/01/31 08:30:25.2	312.690	-0.250	-0.090	0.250
2020/01/31 08:30:25.3	312.680	-0.260	-0.060	0.210
2020/01/31 08:30:25.4	312.680	-0.270	-0.050	0.180
2020/01/31 08:30:25.5	312.680	-0.270	-0.030	0.140
2020/01/31 08:30:25.6	312.690	-0.280	-0.020	0.110
2020/01/31 08:30:25.7	312.690	-0.280	-0.020	0.070
2020/01/31 08:30:25.8	312.700	-0.270	-0.010	0.030
2020/01/31 08:30:25.9	312.710	-0.270	-0.020	-0.000
2020/01/31 08:30:26.0	312.730	-0.260	-0.020	-0.040
2020/01/31 08:30:26.1	312.740	-0.260	-0.030	-0.080
2020/01/31 08:30:26.2	312.760	-0.250	-0.040	-0.110
2020/01/31 08:30:26.3	312.770	-0.240	-0.050	-0.150
2020/01/31 08:30:26.4	312.800	-0.220	-0.060	-0.180
2020/01/31 08:30:26.5	312.820	-0.210	-0.080	-0.210
2020/01/31 08:30:26.6	312.840	-0.190	-0.100	-0.240
2020/01/31 08:30:26.7	312.860	-0.180	-0.120	-0.270
2020/01/31 08:30:26.8	312.880	-0.160	-0.140	-0.300
2020/01/31 08:30:26.9	312.900	-0.140	-0.160	-0.330
2020/01/31 08:30:27.0	312.930	-0.120	-0.180	-0.350
2020/01/31 08:30:27.1	312.950	-0.100	-0.200	-0.370
2020/01/31 08:30:27.2	312.970	-0.080	-0.220	-0.390
2020/01/31 08:30:27.3	313.000	-0.060	-0.240	-0.410
2020/01/31 08:30:27.4	313.020	-0.040	-0.250	-0.420
2020/01/31 08:30:27.5	313.040	-0.010	-0.270	-0.430
2020/01/31 08:30:27.6	313.070	0.010	-0.280	-0.440
2020/01/31 08:30:27.7	313.090	0.030	-0.290	-0.450
2020/01/31 08:30:27.8	313.110	0.050	-0.300	-0.450
2020/01/31 08:30:27.9	313.130	0.070	-0.310	-0.460
2020/01/31 08:30:28.0	313.160	0.090	-0.310	-0.460
2020/01/31 08:30:28.1	313.180	0.100	-0.310	-0.460
2020/01/31 08:30:28.2	313.200	0.120	-0.310	-0.450
2020/01/31 08:30:28.3	313.220	0.140	-0.310	-0.440
2020/01/31 08:30:28.4	313.240	0.150	-0.300	-0.430
2020/01/31 08:30:28.5	313.260	0.160	-0.290	-0.420
2020/01/31 08:30:28.6	313.280	0.170	-0.270	-0.400
2020/01/31 08:30:28.7	313.300	0.190	-0.250	-0.380
2020/01/31 08:30:28.8	313.310	0.190	-0.230	-0.360
2020/01/31 08:30:28.9	313.330	0.200	-0.210	-0.340
2020/01/31 08:30:29.0	313.340	0.210	-0.180	-0.310
2020/01/31 08:30:29.1	313.350	0.210	-0.150	-0.290
2020/01/31 08:30:29.2	313.360	0.210	-0.120	-0.260
2020/01/31 08:30:29.3	313.360	0.210	-0.090	-0.230
2020/01/31 08:30:29.4	313.370	0.210	-0.050	-0.190
2020/01/31 08:30:29.5	313.370	0.210	-0.010	-0.160
2020/01/31 08:30:29.6	313.380	0.210	0.020	-0.130
2020/01/31 08:30:29.7	313.380	0.200	0.060	-0.090
2020/01/31 08:30:29.8	313.370	0.190	0.100	-0.060
2020/01/31 08:30:29.9	313.370	0.180	0.130	-0.020
2020/01/31 08:30:30.0	313.370	0.170	0.170	0.020
2020/01/31 08:30:30.1	313.360	0.160	0.200	0.050
2020/01/31 08:30:30.2	313.350	0.150	0.230	0.090
2020/01/31 08:30:30.3	313.340	0.140	0.260	0.130
2020/01/31 08:30:30.4	313.330	0.120	0.290	0.160
2020/01/31 08:30:30.5	313.320	0.110	0.310	0.200
2020/01/31 08:30:30.6	313.300	0.090	0.340	0.230
2020/01/31 08:30:30.7	313.290	0.080	0.350	0.270
2020/01/31 08:30:30.8	313.280	0.060	0.370	0.300
2020/01/31 08:30:30.9	313.260	0.050	0.380	0.340
2020/01/31 08:30:31.0	313.250	0.030	0.390	0.370
2020/01/31 08:30:31.1	313.230	0.010	0.390	0.400
2020/01/31 08:30:31.2	313.210	-0.000	0.390	0.430
2020/01/31 08:30:31.3	313.200	-0.020	0.390	0.460
2020/01/31 08:30:31.4	313.170	-0.030	0.390	0.490
2020/01/31 08:30:31.5	313.150	-0.050	0.380	0.510
2020/01/31 08:30:31.6	313.130	-0.060	0.360	0.540
2020/01/31 08:30:31.7	313.110	-0.080	0.340	0.560
2020/01/31 08:30:31.8	313.090	-0.090	0.320	0.570
2020/01/31 08:30:31.9	313.070	-0.100	0.300	0.590
2020/01/31 08:30:32.0	313.050	-0.110	0.270	0.610
2020/01/31 08:30:32.1	313.030	-0.120	0.240	0.620
2020/01/31 08:30:32.2	313.010	-0.130	0.210	0.620
2020/01/31 08:30:32.3	312.980	-0.140	0.170	0.630
2020/01/31 08:30:32.4	312.970	-0.150	0.130	0.640
2020/01/31 08:30:32.5	312.950	-0.160	0.080	0.640
2020/01/31 08:30:32.6	312.930	-0.160	0.040	0.630
2020/01/31 08:30:32.7	312.900	-0.170	-0.010	0.630
2020/01/31 08:30:32.8	312.880	-0.170	-0.060	0.630
2020/01/31 08:30:32.9	312.860	-0.180	-0.110	0.620
2020/01/31 08:30:33.0	312.840	-0.180	-0.160	0.610
2020/01/31 08:30:33.1	312.820	-0.180	-0.220	0.600
2020/01/31 08:30:33.2	312.800	-0.180	-0.270	0.590
2020/01/31 08:30:33.3	312.780	-0.180	-0.330	0.570
2020/01/31 08:30:33.4	312.770	-0.170	-0.390	0.560
2020/01/31 08:30:33.5	312.760	-0.170	-0.440	0.540
2020/01/31 08:30:33.6	312.740	-0.160	-0.500	0.530
2020/01/31 08:30:33.7	312.720	-0.160	-0.560	0.510
2020/01/31 08:30:33.8	312.710	-0.150	-0.610	0.490
2020/01/31 08:30:33.9	312.700	-0.140	-0.670	0.470
2020/01/31 08:30:34.0	312.690	-0.130	-0.720	0.450
2020/01/31 08:30:34.1	312.680	-0.120	-0.780	0.420
2020/01/31 08:30:34.2	312.670	-0.110	-0.830	0.400
2020/01/31 08:30:34.3	312.660	-0.100	-0.880	0.370
2020/01/31 08:30:34.4	312.660	-0.090	-0.930	0.340
2020/01/31 08:30:34.5	312.660	-0.080	-0.970	0.310
2020/01/31 08:30:34.6	312.660	-0.060	-1.020	0.280
2020/01/31 08:30:34.7	312.660	-0.050	-1.060	0.250
2020/01/31 08:30:34.8	312.660	-0.030	-1.100	0.220
2020/01/31 08:30:34.9	312.670	-0.020	-1.130	0.190
2020/01/31 08:30:35.0	312.670	-0.010	-1.160	0.160
2020/01/31 08:30:35.1	312.680	0.010	-1.190	0.130
2020/01/31 08:30:35.2	312.690	0.020	-1.210	0.100
2020/01/31 08:30:35.3	312.690	0.030	-1.230	0.070
2020/01/31 08:30:35.4	312.690	0.050	-1.250	0.040
2020/01/31 08:30:35.5	312.700	0.060	-1.250	0.020
2020/01/31 08:30:35.6	312.710	0.070	-1.260	-0.010
2020/01/31 08:30:35.7	312.730	0.080	-1.250	-0.040
2020/01/31 08:30:35.8	312.740	0.090	-1.250	-0.060
2020/01/31 08:30:35.9	312.750	0.090	-1.230	-0.080
2020/01/31 08:30:36.0	312.760	0.100	-1.210	-0.100
2020/01/31 08:30:36.1	312.760	0.110	-1.190	-0.120
2020/01/31 08:30:36.2	312.770	0.110	-1.160	-0.130
2020/01/31 08:30:36.3	312.780	0.110	-1.130	-0.140
2020/01/31 08:30:36.4	312.790	0.110	-1.090	-0.150
2020/01/31 08:30:36.5	312.790	0.110	-1.040	-0.160
2020/01/31 08:30:36.6	312.790	0.110	-0.990	-0.160
2020/01/31 08:30:36.7	312.800	0.110	-0.940	-0.150
2020/01/31 08:30:36.8	312.800	0.100	-0.880	-0.150
2020/01/31 08:30:36.9	312.800	0.100	-0.820	-0.140
2020/01/31 08:30:37.0	312.800	0.090	-0.760	-0.120
2020/01/31 08:30:37.1	312.790	0.080	-0.690	-0.110
2020/01/31 08:30:37.2	312.790	0.070	-0.620	-0.080
2020/01/31 08:30:37.3	312.790	0.060	-0.550	-0.060
2020/01/31 08:30:37.4	312.790	0.050	-0.480	-0.030
2020/01/31 08:30:37.5	312.780	0.040	-0.410	-0.000
2020/01/31 08:30:37.6	312.780	0.020	-0.330	0.030
2020/01/31 08:30:37.7	312.780	0.010	-0.260	0.060
2020/01/31 08:30:37.8	312.770	-0.010	-0.190	0.090
2020/01/31 08:30:37.9	312.770	-0.020	-0.130	0.120
2020/01/31 08:30:38.0	312.770	-0.040	-0.070	0.150
2020/01/31 08:30:38.1	312.770	-0.050	-0.010	0.180
2020/01/31 08:30:38.2	312.760	-0.070	0.050	0.210
2020/01/31 08:30:38.3	312.770	-0.080	0.100	0.240
2020/01/31 08:30:38.4	312.770	-0.100	0.160	0.260
2020/01/31 08:30:38.5	312.770	-0.110	0.200	0.280
2020/01/31 08:30:38.6	312.770	-0.120	0.240	0.310
2020/01/31 08:30:38.7	312.770	-0.140	0.270	0.330
2020/01/31 08:30:38.8	312.780	-0.150	0.290	0.350
2020/01/31 08:30:38.9	312.780	-0.160	0.310	0.370
2020/01/31 08:30:39.0	312.790	-0.170	0.330	0.380
2020/01/31 08:30:39.1	312.800	-0.170	0.340	0.400
2020/01/31 08:30:39.2	312.800	-0.180	0.340	0.410
2020/01/31 08:30:39.3	312.810	-0.180	0.340	0.430
2020/01/31 08:30:39.4	312.830	-0.180	0.330	0.440
2020/01/31 08:30:39.5	312.850	-0.180	0.320	0.450
2020/01/31 08:30:39.6	312.860	-0.180	0.310	0.460
2020/01/31 08:30:39.7	312.870	-0.180	0.290	0.470
2020/01/31 08:30:39.8	312.890	-0.170	0.280	0.480
2020/01/31 08:30:39.9	312.900	-0.170	0.250	0.480
2020/01/31 08:30:40.0	312.920	-0.160	0.230	0.490
2020/01/31 08:30:40.1	312.940	-0.150	0.210	0.490
2020/01/31 08:30:40.2	312.960	-0.140	0.180	0.500
2020/01/31 08:30:40.3	312.980	-0.120	0.160	0.500
2020/01/31 08:30:40.4	313.000	-0.110	0.140	0.510
2020/01/31 08:30:40.5	313.020	-0.100	0.110	0.510
2020/01/31 08:30:40.6	313.040	-0.080	0.090	0.510
2020/01/31 08:30:40.7	313.060	-0.060	0.070	0.510
2020/01/31 08:30:40.8	313.070	-0.050	0.050	0.510
2020/01/31 08:30:40.9	313.090	-0.030	0.040	0.510
2020/01/31 08:30:41.0	313.110	-0.010	0.020	0.520
2020/01/31 08:30:41.1	313.120	0.010	0.010	0.520
2020/01/31 08:30:41.2	313.140	0.020	0.010	0.530
2020/01/31 08:30:41.3	313.150	0.040	0.000	0.530
2020/01/31 08:30:41.4	313.160	0.060	0.000	0.530
2020/01/31 08:30:41.5	313.170	0.070	0.010	0.540
2020/01/31 08:30:41.6	313.180	0.090	0.010	0.550
2020/01/31 08:30:41.7	313.180	0.100	0.020	0.550
2020/01/31 08:30:41.8	313.190	0.110	0.030	0.560
2020/01/31 08:30:41.9	313.190	0.130	0.050	0.560
2020/01/31 08:30:42.0	313.200	0.140	0.070	0.570
2020/01/31 08:30:42.1	313.200	0.150	0.090	0.580
2020/01/31 08:30:42.2	313.200	0.160	0.110	0.580
2020/01/31 08:30:42.3	313.200	0.160	0.130	0.580
2020/01/31 08:30:42.4	313.210	0.170	0.160	0.590
2020/01/31 08:30:42.5	313.210	0.170	0.180	0.590
2020/01/31 08:30:42.6	313.210	0.180	0.200	0.590
2020/01/31 08:30:42.7	313.210	0.180	0.230	0.580
2020/01/31 08:30:42.8	313.210	0.180	0.250	0.570
2020/01/31 08:30:42.9	313.200	0.180	0.270	0.560
2020/01/31 08:30:43.0	313.200	0.180	0.290	0.550
2020/01/31 08:30:43.1	313.190	0.180	0.310	0.530
2020/01/31 08:30:43.2	313.190	0.180	0.320	0.510
2020/01/31 08:30:43.3	313.180	0.170	0.330	0.490
2020/01/31 08:30:43.4	313.170	0.170	0.350	0.470
2020/01/31 08:30:43.5	313.160	0.160	0.350	0.440
2020/01/31 08:30:43.6	313.150	0.160	0.360	0.420
2020/01/31 08:30:43.7	313.140	0.150	0.360	0.390
2020/01/31 08:30:43.8	313.130	0.140	0.360	0.360
2020/01/31 08:30:43.9	313.120	0.140	0.350	0.340
2020/01/31 08:30:44.0	313.100	0.130	0.350	0.310
2020/01/31 08:30:44.1	313.080	0.120	0.340	0.290
2020/01/31 08:30:44.2	313.060	0.120	0.330	0.260
2020/01/31 08:30:44.3	313.040	0.110	0.310	0.240
2020/01/31 08:30:44.4	313.010	0.100	0.290	0.220
2020/01/31 08:30:44.5	312.990	0.090	0.270	0.200
2020/01/31 08:30:44.6	312.960	0.090	0.250	0.180
2020/01/31 08:30:44.7	312.930	0.080	0.220	0.170
2020/01/31 08:30:44.8	312.900	0.070	0.200	0.160
2020/01/31 08:30:44.9	312.870	0.070	0.170	0.150
2020/01/31 08:30:45.0	312.830	0.060	0.140	0.140
2020/01/31 08:30:45.1	312.800	0.060	0.100	0.130
2020/01/31 08:30:45.2	312.760	0.050	0.060	0.120
2020/01/31 08:30:45.3	312.720	0.050	0.020	0.120
2020/01/31 08:30:45.4	312.690	0.050	-0.020	0.110
2020/01/31 08:30:45.5	312.650	0.050	-0.070	0.110
2020/01/31 08:30:45.6	312.620	0.050	-0.120	0.110
2020/01/31 08:30:45.7	312.580	0.050	-0.170	0.100
2020/01/31 08:30:45.8	312.550	0.050	-0.230	0.100
2020/01/31 08:30:45.9	312.520	0.050	-0.290	0.100
2020/01/31 08:30:46.0	312.490	0.050	-0.350	0.090
2020/01/31 08:30:46.1	312.470	0.060	-0.420	0.090
2020/01/31 08:30:46.2	312.440	0.060	-0.490	0.080
2020/01/31 08:30:46.3	312.420	0.070	-0.560	0.070
2020/01/31 08:30:46.4	312.400	0.080	-0.640	0.060
2020/01/31 08:30:46.5	312.390	0.080	-0.710	0.050
2020/01/31 08:30:46.6	312.380	0.090	-0.790	0.040
2020/01/31 08:30:46.7	312.370	0.100	-0.870	0.030
2020/01/31 08:30:46.8	312.370	0.110	-0.950	0.010
2020/01/31 08:30:46.9	312.370	0.120	-1.020	-0.000
2020/01/31 08:30:47.0	312.380	0.130	-1.090	-0.020
2020/01/31 08:30:47.1	312.390	0.140	-1.170	-0.030
2020/01/31 08:30:47.2	312.400	0.150	-1.240	-0.050
2020/01/31 08:30:47.3	312.410	0.160	-1.300	-0.070
2020/01/31 08:30:47.4	312.410	0.170	-1.360	-0.090
2020/01/31 08:30:47.5	312.420	0.180	-1.420	-0.110
2020/01/31 08:30:47.6	312.440	0.180	-1.470	-0.130
2020/01/31 08:30:47.7	312.460	0.190	-1.520	-0.150
2020/01/31 08:30:47.8	312.480	0.190	-1.560	-0.170
2020/01/31 08:30:47.9	312.500	0.190	-1.590	-0.190
2020/01/31 08:30:48.0	312.520	0.190	-1.620	-0.210
2020/01/31 08:30:48.1	312.550	0.190	-1.630	-0.230
2020/01/31 08:30:48.2	312.570	0.180	-1.640	-0.250
2020/01/31 08:30:48.3	312.590	0.170	-1.650	-0.260
2020/01/31 08:30:48.4	312.620	0.160	-1.640	-0.280
2020/01/31 08:30:48.5	312.640	0.150	-1.620	-0.290
2020/01/31 08:30:48.6	312.670	0.140	-1.600	-0.300
2020/01/31 08:30:48.7	312.690	0.120	-1.580	-0.300
2020/01/31 08:30:48.8	312.700	0.110	-1.540	-0.300
2020/01/31 08:30:48.9	312.720	0.090	-1.500	-0.310
2020/01/31 08:30:49.0	312.740	0.060	-1.450	-0.300
2020/01/31 08:30:49.1	312.760	0.040	-1.400	-0.300
2020/01/31 08:30:49.2	312.780	0.020	-1.340	-0.290
2020/01/31 08:30:49.3	312.800	-0.010	-1.270	-0.280
2020/01/31 08:30:49.4	312.820	-0.030	-1.200	-0.270
2020/01/31 08:30:49.5	312.830	-0.060	-1.130	-0.250
2020/01/31 08:30:49.6	312.850	-0.090	-1.060	-0.240
2020/01/31 08:30:49.7	312.870	-0.110	-0.980	-0.220
2020/01/31 08:30:49.8	312.890	-0.140	-0.900	-0.210
2020/01/31 08:30:49.9	312.910	-0.170	-0.820	-0.190
2020/01/31 08:30:50.0	312.940	-0.190	-0.740	-0.170
2020/01/31 08:30:50.1	312.960	-0.220	-0.660	-0.160
2020/01/31 08:30:50.2	312.980	-0.240	-0.580	-0.140
2020/01/31 08:30:50.3	313.000	-0.270	-0.500	-0.120
2020/01/31 08:30:50.4	313.030	-0.290	-0.420	-0.110
2020/01/31 08:30:50.5	313.060	-0.310	-0.350	-0.090
2020/01/31 08:30:50.6	313.080	-0.330	-0.280	-0.070
2020/01/31 08:30:50.7	313.100	-0.350	-0.210	-0.050
2020/01/31 08:30:50.8	313.130	-0.360	-0.140	-0.040
2020/01/31 08:30:50.9	313.150	-0.380	-0.080	-0.020
2020/01/31 08:30:51.0	313.170	-0.390	-0.020	-0.000
2020/01/31 08:30:51.1	313.190	-0.400	0.040	0.020
2020/01/31 08:30:51.2	313.220	-0.410	0.090	0.040
2020/01/31 08:30:51.3	313.240	-0.410	0.140	0.050
2020/01/31 08:30:51.4	313.260	-0.410	0.180	0.070
2020/01/31 08:30:51.5	313.280	-0.420	0.230	0.090
2020/01/31 08:30:51.6	313.310	-0.420	0.270	0.100
2020/01/31 08:30:51.7	313.320	-0.410	0.300	0.120
2020/01/31 08:30:51.8	313.340	-0.410	0.330	0.140
2020/01/31 08:30:51.9	313.360	-0.410	0.370	0.150
2020/01/31 08:30:52.0	313.380	-0.400	0.400	0.170
2020/01/31 08:30:52.1	313.390	-0.390	0.420	0.180
2020/01/31 08:30:52.2	313.410	-0.380	0.450	0.190
2020/01/31 08:30:52.3	313.420	-0.370	0.470	0.210
2020/01/31 08:30:52.4	313.420	-0.360	0.490	0.220
2020/01/31 08:30:52.5	313.430	-0.350	0.520	0.230
2020/01/31 08:30:52.6	313.440	-0.340	0.540	0.250
2020/01/31 08:30:52.7	313.440	-0.330	0.560	0.260
2020/01/31 08:30:52.8	313.440	-0.310	0.580	0.270
2020/01/31 08:30:52.9	313.440	-0.300	0.600	0.290
2020/01/31 08:30:53.0	313.440	-0.280	0.620	0.300
2020/01/31 08:30:53.1	313.430	-0.270	0.650	0.320
2020/01/31 08:30:53.2	313.420	-0.250	0.670	0.330
2020/01/31 08:30:53.3	313.410	-0.240	0.690	0.350
2020/01/31 08:30:53.4	313.390	-0.220	0.720	0.370
2020/01/31 08:30:53.5	313.380	-0.200	0.740	0.390
2020/01/31 08:30:53.6	313.360	-0.190	0.770	0.410
2020/01/31 08:30:53.7	313.340	-0.170	0.790	0.430
2020/01/31 08:30:53.8	313.320	-0.160	0.810	0.450
2020/01/31 08:30:53.9	313.290	-0.140	0.840	0.480
2020/01/31 08:30:54.0	313.270	-0.130	0.860	0.500
2020/01/31 08:30:54.1	313.240	-0.110	0.880	0.520
2020/01/31 08:30:54.2	313.210	-0.090	0.890	0.540
2020/01/31 08:30:54.3	313.180	-0.080	0.910	0.560
2020/01/31 08:30:54.4	313.160	-0.060	0.920	0.580
2020/01/31 08:30:54.5	313.120	-0.050	0.930	0.600
2020/01/31 08:30:54.6	313.090	-0.030	0.930	0.610
2020/01/31 08:30:54.7	313.060	-0.020	0.930	0.630
2020/01/31 08:30:54.8	313.030	-0.000	0.930	0.640
2020/01/31 08:30:54.9	312.990	0.010	0.920	0.650
2020/01/31 08:30:55.0	312.960	0.030	0.910	0.660
2020/01/31 08:30:55.1	312.930	0.040	0.890	0.660
2020/01/31 08:30:55.2	312.900	0.060	0.860	0.670
2020/01/31 08:30:55.3	312.860	0.080	0.830	0.670
2020/01/31 08:30:55.4	312.840	0.090	0.800	0.660
2020/01/31 08:30:55.5	312.800	0.110	0.760	0.650
2020/01/31 08:30:55.6	312.780	0.120	0.710	0.640
2020/01/31 08:30:55.7	312.750	0.140	0.660	0.630
2020/01/31 08:30:55.8	312.720	0.160	0.600	0.610
2020/01/31 08:30:55.9	312.690	0.170	0.530	0.600
2020/01/31 08:30:56.0	312.660	0.190	0.470	0.570
2020/01/31 08:30:56.1	312.640	0.200	0.390	0.550
2020/01/31 08:30:56.2	312.610	0.220	0.320	0.520
2020/01/31 08:30:56.3	312.590	0.230	0.240	0.490
2020/01/31 08:30:56.4	312.560	0.250	0.150	0.460
2020/01/31 08:30:56.5	312.540	0.260	0.060	0.430
2020/01/31 08:30:56.6	312.520	0.280	-0.030	0.390
2020/01/31 08:30:56.7	312.500	0.290	-0.120	0.350
2020/01/31 08:30:56.8	312.480	0.300	-0.210	0.310
2020/01/31 08:30:56.9	312.460	0.310	-0.300	0.270
2020/01/31 08:30:57.0	312.440	0.320	-0.390	0.230
2020/01/31 08:30:57.1	312.420	0.330	-0.480	0.180
2020/01/31 08:30:57.2	312.410	0.340	-0.570	0.140
2020/01/31 08:30:57.3	312.400	0.350	-0.650	0.090
2020/01/31 08:30:57.4	312.380	0.360	-0.730	0.040
2020/01/31 08:30:57.5	312.370	0.370	-0.810	-0.000
2020/01/31 08:30:57.6	312.360	0.380	-0.890	-0.050
2020/01/31 08:30:57.7	312.350	0.380	-0.960	-0.090
2020/01/31 08:30:57.8	312.350	0.390	-1.030	-0.140
2020/01/31 08:30:57.9	312.340	0.390	-1.100	-0.180
2020/01/31 08:30:58.0	312.340	0.400	-1.160	-0.230
2020/01/31 08:30:58.1	312.330	0.400	-1.220	-0.270
2020/01/31 08:30:58.2	312.330	0.400	-1.270	-0.310
2020/01/31 08:30:58.3	312.340	0.400	-1.320	-0.350
2020/01/31 08:30:58.4	312.350	0.410	-1.360	-0.390
2020/01/31 08:30:58.5	312.350	0.410	-1.390	-0.430
2020/01/31 08:30:58.6	312.360	0.400	-1.430	-0.470
2020/01/31 08:30:58.7	312.370	0.400	-1.450	-0.510
2020/01/31 08:30:58.8	312.390	0.400	-1.480	-0.540
2020/01/31 08:30:58.9	312.400	0.400	-1.500	-0.570
2020/01/31 08:30:59.0	312.420	0.390	-1.510	-0.600
2020/01/31 08:30:59.1	312.440	0.390	-1.520	-0.630
2020/01/31 08:30:59.2	312.470	0.380	-1.520	-0.660
2020/01/31 08:30:59.3	312.490	0.380	-1.530	-0.690
2020/01/31 08:30:59.4	312.520	0.370	-1.520	-0.710
2020/01/31 08:30:59.5	312.550	0.360	-1.520	-0.730
2020/01/31 08:30:59.6	312.580	0.350	-1.510	-0.750
2020/01/31 08:30:59.7	312.620	0.340	-1.490	-0.760
2020/01/31 08:30:59.8	312.650	0.330	-1.470	-0.780
2020/01/31 08:30:59.9	312.690	0.320	-1.450	-0.790
2020/01/31 08:31:00.0	312.730	0.310	-1.430	-0.800
2020/01/31 08:31:00.1	312.760	0.300	-1.400	-0.800
2020/01/31 08:31:00.2	312.800	0.290	-1.370	-0.810
2020/01/31 08:31:00.3	312.840	0.270	-1.330	-0.810
2020/01/31 08:31:00.4	312.900	0.260	-1.290	-0.800
2020/01/31 08:31:00.5	312.940	0.240	-1.260	-0.800
2020/01/31 08:31:00.6	312.970	0.230	-1.210	-0.790
2020/01/31 08:31:00.7	313.010	0.210	-1.170	-0.780
2020/01/31 08:31:00.8	313.050	0.190	-1.120	-0.770
2020/01/31 08:31:00.9	313.090	0.180	-1.070	-0.750
2020/01/31 08:31:01.0	313.120	0.160	-1.020	-0.730
2020/01/31 08:31:01.1	313.160	0.140	-0.960	-0.710
2020/01/31 08:31:01.2	313.190	0.120	-0.910	-0.680
2020/01/31 08:31:01.3	313.220	0.100	-0.850	-0.660
2020/01/31 08:31:01.4	313.260	0.080	-0.790	-0.630
2020/01/31 08:31:01.5	313.290	0.060	-0.730	-0.600
2020/01/31 08:31:01.6	313.310	0.030	-0.670	-0.560
2020/01/31 08:31:01.7	313.330	0.010	-0.600	-0.530
2020/01/31 08:31:01.8	313.360	-0.020	-0.540	-0.490
2020/01/31 08:31:01.9	313.370	-0.040	-0.480	-0.450
2020/01/31 08:31:02.0	313.390	-0.070	-0.410	-0.410
2020/01/31 08:31:02.1	313.400	-0.090	-0.350	-0.360
2020/01/31 08:31:02.2	313.410	-0.120	-0.290	-0.320
2020/01/31 08:31:02.3	313.420	-0.150	-0.220	-0.270
2020/01/31 08:31:02.4	313.420	-0.180	-0.160	-0.220
2020/01/31 08:31:02.5	313.420	-0.200	-0.090	-0.180
2020/01/31 08:31:02.6	313.420	-0.230	-0.030	-0.130
2020/01/31 08:31:02.7	313.410	-0.260	0.030	-0.080
2020/01/31 08:31:02.8	313.410	-0.290	0.090	-0.030
2020/01/31 08:31:02.9	313.400	-0.320	0.150	0.020
2020/01/31 08:31:03.0	313.390	-0.340	0.210	0.070
2020/01/31 08:31:03.1	313.370	-0.370	0.270	0.120
2020/01/31 08:31:03.2	313.360	-0.390	0.320	0.170
2020/01/31 08:31:03.3	313.340	-0.420	0.370	0.220
2020/01/31 08:31:03.4	313.310	-0.440	0.430	0.270
2020/01/31 08:31:03.5	313.290	-0.460	0.480	0.320
2020/01/31 08:31:03.6	313.270	-0.490	0.520	0.370
2020/01/31 08:31:03.7	313.240	-0.500	0.570	0.420
2020/01/31 08:31:03.8	313.220	-0.520	0.610	0.470
2020/01/31 08:31:03.9	313.190	-0.540	0.640	0.510
2020/01/31 08:31:04.0	313.160	-0.550	0.680	0.560
2020/01/31 08:31:04.1	313.130	-0.560	0.710	0.600
2020/01/31 08:31:04.2	313.100	-0.570	0.730	0.640
2020/01/31 08:31:04.3	313.070	-0.580	0.760	0.680
2020/01/31 08:31:04.4	313.030	-0.590	0.780	0.710
2020/01/31 08:31:04.5	313.000	-0.590	0.790	0.740
2020/01/31 08:31:04.6	312.970	-0.600	0.800	0.770
2020/01/31 08:31:04.7	312.940	-0.600	0.810	0.800
2020/01/31 08:31:04.8	312.900	-0.600	0.810	0.820
2020/01/31 08:31:04.9	312.870	-0.590	0.810	0.840
2020/01/31 08:31:05.0	312.840	-0.590	0.800	0.860
2020/01/31 08:31:05.1	312.810	-0.580	0.790	0.870
2020/01/31 08:31:05.2	312.780	-0.570	0.780	0.880
2020/01/31 08:31:05.3	312.740	-0.560	0.760	0.880
2020/01/31 08:31:05.4	312.700	-0.550	0.740	0.890
2020/01/31 08:31:05.5	312.670	-0.530	0.710	0.890
2020/01/31 08:31:05.6	312.630	-0.520	0.690	0.880
2020/01/31 08:31:05.7	312.600	-0.500	0.660	0.870
2020/01/31 08:31:05.8	312.560	-0.480	0.630	0.860
2020/01/31 08:31:05.9	312.530	-0.460	0.590	0.850
2020/01/31 08:31:06.0	312.490	-0.430	0.550	0.840
2020/01/31 08:31:06.1	312.460	-0.410	0.510	0.820
2020/01/31 08:31:06.2	312.420	-0.380	0.470	0.800
2020/01/31 08:31:06.3	312.380	-0.350	0.420	0.770
2020/01/31 08:31:06.4	312.350	-0.320	0.380	0.740
2020/01/31 08:31:06.5	312.320	-0.290	0.330	0.710
2020/01/31 08:31:06.6	312.290	-0.260	0.280	0.670
2020/01/31 08:31:06.7	312.250	-0.220	0.220	0.640
2020/01/31 08:31:06.8	312.220	-0.190	0.170	0.600
2020/01/31 08:31:06.9	312.200	-0.150	0.120	0.560
2020/01/31 08:31:07.0	312.170	-0.110	0.060	0.520
2020/01/31 08:31:07.1	312.140	-0.070	0.010	0.470
2020/01/31 08:31:07.2	312.120	-0.030	-0.040	0.430
2020/01/31 08:31:07.3	312.100	0.010	-0.100	0.390
2020/01/31 08:31:07.4	312.080	0.050	-0.150	0.340
2020/01/31 08:31:07.5	312.070	0.090	-0.210	0.300
2020/01/31 08:31:07.6	312.050	0.130	-0.260	0.250
2020/01/31 08:31:07.7	312.050	0.170	-0.310	0.210
2020/01/31 08:31:07.8	312.040	0.210	-0.360	0.160
2020/01/31 08:31:07.9	312.040	0.250	-0.410	0.120
2020/01/31 08:31:08.0	312.040	0.280	-0.460	0.070
2020/01/31 08:31:08.1	312.040	0.320	-0.510	0.030
2020/01/31 08:31:08.2	312.050	0.360	-0.550	-0.010
2020/01/31 08:31:08.3	312.070	0.390	-0.600	-0.050
2020/01/31 08:31:08.4	312.080	0.420	-0.640	-0.090
2020/01/31 08:31:08.5	312.100	0.450	-0.680	-0.130
2020/01/31 08:31:08.6	312.120	0.480	-0.710	-0.170
2020/01/31 08:31:08.7	312.140	0.500	-0.740	-0.210
2020/01/31 08:31:08.8	312.170	0.520	-0.770	-0.240
2020/01/31 08:31:08.9	312.200	0.540	-0.800	-0.280
2020/01/31 08:31:09.0	312.230	0.560	-0.820	-0.310
2020/01/31 08:31:09.1	312.270	0.570	-0.840	-0.340
2020/01/31 08:31:09.2	312.300	0.590	-0.850	-0.360
2020/01/31 08:31:09.3	312.340	0.590	-0.860	-0.390
2020/01/31 08:31:09.4	312.370	0.600	-0.860	-0.410
2020/01/31 08:31:09.5	312.410	0.600	-0.860	-0.420
2020/01/31 08:31:09.6	312.440	0.600	-0.850	-0.440
2020/01/31 08:31:09.7	312.480	0.590	-0.840	-0.450
2020/01/31 08:31:09.8	312.520	0.590	-0.830	-0.450
2020/01/31 08:31:09.9	312.550	0.580	-0.810	-0.460
2020/01/31 08:31:10.0	312.580	0.560	-0.790	-0.450
2020/01/31 08:31:10.1	312.620	0.550	-0.760	-0.450
2020/01/31 08:31:10.2	312.650	0.530	-0.730	-0.440
2020/01/31 08:31:10.3	312.680	0.510	-0.700	-0.430
2020/01/31 08:31:10.4	312.730	0.490	-0.670	-0.410
2020/01/31 08:31:10.5	312.750	0.460	-0.630	-0.390
2020/01/31 08:31:10.6	312.780	0.440	-0.600	-0.370
2020/01/31 08:31:10.7	312.810	0.410	-0.560	-0.350
2020/01/31 08:31:10.8	312.830	0.380	-0.520	-0.330
2020/01/31 08:31:10.9	312.850	0.350	-0.480	-0.310
2020/01/31 08:31:11.0	312.880	0.320	-0.440	-0.290
2020/01/31 08:31:11.1	312.900	0.280	-0.400	-0.260
2020/01/31 08:31:11.2	312.920	0.250	-0.370	-0.240
2020/01/31 08:31:11.3	312.930	0.220	-0.330	-0.210
2020/01/31 08:31:11.4	312.950	0.190	-0.290	-0.190
2020/01/31 08:31:11.5	312.960	0.150	-0.260	-0.160
2020/01/31 08:31:11.6	312.980	0.120	-0.230	-0.130
2020/01/31 08:31:11.7	312.990	0.090	-0.200	-0.100
2020/01/31 08:31:11.8	313.000	0.060	-0.170	-0.080
2020/01/31 08:31:11.9	313.010	0.030	-0.140	-0.050
2020/01/31 08:31:12.0	313.010	0.000	-0.120	-0.010
2020/01/31 08:31:12.1	313.020	-0.020	-0.100	0.020
2020/01/31 08:31:12.2	313.020	-0.050	-0.080	0.050
2020/01/31 08:31:12.3	313.020	-0.070	-0.070	0.080
2020/01/31 08:31:12.4	313.020	-0.090	-0.060	0.120
2020/01/31 08:31:12.5	313.020	-0.110	-0.050	0.150
2020/01/31 08:31:12.6	313.010	-0.120	-0.050	0.190
2020/01/31 08:31:12.7	313.000	-0.140	-0.040	0.220
2020/01/31 08:31:12.8	313.000	-0.150	-0.050	0.260
2020/01/31 08:31:12.9	312.990	-0.160	-0.050	0.290
2020/01/31 08:31:13.0	312.970	-0.170	-0.060	0.330
2020/01/31 08:31:13.1	312.960	-0.170	-0.070	0.360
2020/01/31 08:31:13.2	312.950	-0.180	-0.090	0.380
2020/01/31 08:31:13.3	312.940	-0.180	-0.110	0.410
2020/01/31 08:31:13.4	312.930	-0.180	-0.130	0.430
2020/01/31 08:31:13.5	312.920	-0.180	-0.150	0.450
2020/01/31 08:31:13.6	312.900	-0.180	-0.180	0.470
2020/01/31 08:31:13.7	312.890	-0.170	-0.200	0.480
2020/01/31 08:31:13.8	312.880	-0.170	-0.230	0.490
2020/01/31 08:31:13.9	312.870	-0.160	-0.270	0.490
2020/01/31 08:31:14.0	312.860	-0.160	-0.300	0.490
2020/01/31 08:31:14.1	312.850	-0.150	-0.330	0.490
2020/01/31 08:31:14.2	312.850	-0.140	-0.360	0.480
2020/01/31 08:31:14.3	312.840	-0.140	-0.400	0.470
2020/01/31 08:31:14.4	312.810	-0.130	-0.430	0.450
2020/01/31 08:31:14.5	312.810	-0.120	-0.460	0.440
2020/01/31 08:31:14.6	312.800	-0.110	-0.490	0.420
2020/01/31 08:31:14.7	312.790	-0.100	-0.520	0.400
2020/01/31 08:31:14.8	312.790	-0.100	-0.540	0.370
2020/01/31 08:31:14.9	312.780	-0.090	-0.560	0.350
2020/01/31 08:31:15.0	312.770	-0.080	-0.580	0.330
2020/01/31 08:31:15.1	312.770	-0.080	-0.600	0.300
2020/01/31 08:31:15.2	312.760	-0.070	-0.610	0.280
2020/01/31 08:31:15.3	312.750	-0.070	-0.620	0.250
2020/01/31 08:31:15.4	312.740	-0.060	-0.620	0.230
2020/01/31 08:31:15.5	312.730	-0.060	-0.620	0.210
2020/01/31 08:31:15.6	312.730	-0.060	-0.620	0.180
2020/01/31 08:31:15.7	312.720	-0.060	-0.610	0.160
2020/01/31 08:31:15.8	312.710	-0.060	-0.600	0.140
2020/01/31 08:31:15.9	312.710	-0.060	-0.590	0.120
2020/01/31 08:31:16.0	312.700	-0.060	-0.570	0.100
2020/01/31 08:31:16.1	312.700	-0.070	-0.540	0.080
2020/01/31 08:31:16.2	312.690	-0.070	-0.520	0.060
2020/01/31 08:31:16.3	312.690	-0.070	-0.490	0.050
2020/01/31 08:31:16.4	312.690	-0.080	-0.450	0.030
2020/01/31 08:31:16.5	312.690	-0.080	-0.410	0.020
2020/01/31 08:31:16.6	312.680	-0.090	-0.370	0.010
2020/01/31 08:31:16.7	312.670	-0.090	-0.330	0.000
2020/01/31 08:31:16.8	312.670	-0.090	-0.290	-0.000
2020/01/31 08:31:16.9	312.660	-0.100	-0.240	-0.010
2020/01/31 08:31:17.0	312.650	-0.100	-0.190	-0.010
2020/01/31 08:31:17.1	312.650	-0.100	-0.150	-0.000
2020/01/31 08:31:17.2	312.640	-0.110	-0.100	-0.000
2020/01/31 08:31:17.3	312.630	-0.110	-0.050	0.010
2020/01/31 08:31:17.4	312.630	-0.110	-0.000	0.010
2020/01/31 08:31:17.5	312.620	-0.110	0.050	0.030
2020/01/31 08:31:17.6	312.610	-0.110	0.090	0.040
2020/01/31 08:31:17.7	312.600	-0.110	0.140	0.060
2020/01/31 08:31:17.8	312.590	-0.100	0.180	0.070
2020/01/31 08:31:17.9	312.580	-0.100	0.220	0.090
2020/01/31 08:31:18.0	312.570	-0.090	0.260	0.110
2020/01/31 08:31:18.1	312.570	-0.090	0.290	0.130
2020/01/31 08:31:18.2	312.560	-0.080	0.320	0.150
2020/01/31 08:31:18.3	312.550	-0.070	0.340	0.180
2020/01/31 08:31:18.4	312.560	-0.060	0.370	0.200
2020/01/31 08:31:18.5	312.550	-0.050	0.380	0.220
2020/01/31 08:31:18.6	312.550	-0.040	0.390	0.240
2020/01/31 08:31:18.7	312.550	-0.020	0.400	0.260
2020/01/31 08:31:18.8	312.550	-0.010	0.400	0.280
2020/01/31 08:31:18.9	312.550	0.000	0.390	0.300
2020/01/31 08:31:19.0	312.550	0.020	0.380	0.310
2020/01/31 08:31:19.1	312.560	0.030	0.370	0.330
2020/01/31 08:31:19.2	312.560	0.050	0.350	0.340
2020/01/31 08:31:19.3	312.570	0.060	0.320	0.350
2020/01/31 08:31:19.4	312.570	0.080	0.290	0.360
2020/01/31 08:31:19.5	312.580	0.090	0.260	0.370
2020/01/31 08:31:19.6	312.590	0.110	0.220	0.370
2020/01/31 08:31:19.7	312.600	0.120	0.180	0.370
2020/01/31 08:31:19.8	312.620	0.140	0.140	0.370
2020/01/31 08:31:19.9	312.630	0.150	0.090	0.360
2020/01/31 08:31:20.0	312.650	0.160	0.050	0.350
2020/01/31 08:31:20.1	312.670	0.170	-0.000	0.340
2020/01/31 08:31:20.2	312.690	0.180	-0.050	0.330
2020/01/31 08:31:20.3	312.710	0.190	-0.110	0.310
2020/01/31 08:31:20.4	312.720	0.200	-0.160	0.290
2020/01/31 08:31:20.5	312.740	0.210	-0.210	0.260
2020/01/31 08:31:20.6	312.770	0.210	-0.260	0.240
2020/01/31 08:31:20.7	312.790	0.220	-0.310	0.210
2020/01/31 08:31:20.8	312.810	0.220	-0.350	0.180
2020/01/31 08:31:20.9	312.840	0.220	-0.400	0.150
2020/01/31 08:31:21.0	312.860	0.220	-0.440	0.120
2020/01/31 08:31:21.1	312.880	0.220	-0.480	0.090
2020/01/31 08:31:21.2	312.900	0.220	-0.520	0.050
2020/01/31 08:31:21.3	312.930	0.220	-0.560	0.020
2020/01/31 08:31:21.4	312.950	0.210	-0.580	-0.020
2020/01/31 08:31:21.5	312.970	0.200	-0.610	-0.050
2020/01/31 08:31:21.6	313.000	0.200	-0.630	-0.080
2020/01/31 08:31:21.7	313.020	0.190	-0.650	-0.110
2020/01/31 08:31:21.8	313.040	0.180	-0.660	-0.140
2020/01/31 08:31:21.9	313.060	0.170	-0.670	-0.170
2020/01/31 08:31:22.0	313.090	0.160	-0.680	-0.200
2020/01/31 08:31:22.1	313.110	0.150	-0.680	-0.230
2020/01/31 08:31:22.2	313.130	0.140	-0.680	-0.260
2020/01/31 08:31:22.3	313.150	0.130	-0.680	-0.280
2020/01/31 08:31:22.4	313.160	0.110	-0.670	-0.300
2020/01/31 08:31:22.5	313.190	0.100	-0.660	-0.330
2020/01/31 08:31:22.6	313.210	0.090	-0.650	-0.350
2020/01/31 08:31:22.7	313.230	0.080	-0.630	-0.360
2020/01/31 08:31:22.8	313.250	0.070	-0.610	-0.380
2020/01/31 08:31:22.9	313.270	0.060	-0.590	-0.390
2020/01/31 08:31:23.0	313.290	0.040	-0.570	-0.400
2020/01/31 08:31:23.1	313.310	0.030	-0.540	-0.410
2020/01/31 08:31:23.2	313.330	0.020	-0.510	-0.410
2020/01/31 08:31:23.3	313.340	0.010	-0.480	-0.410
2020/01/31 08:31:23.4	313.370	0.000	-0.450	-0.410
2020/01/31 08:31:23.5	313.380	-0.000	-0.410	-0.400
2020/01/31 08:31:23.6	313.390	-0.010	-0.380	-0.390
2020/01/31 08:31:23.7	313.400	-0.020	-0.340	-0.370
2020/01/31 08:31:23.8	313.410	-0.030	-0.300	-0.350
2020/01/31 08:31:23.9	313.410	-0.030	-0.260	-0.330
2020/01/31 08:31:24.0	313.410	-0.040	-0.220	-0.300
2020/01/31 08:31:24.1	313.410	-0.050	-0.180	-0.270
2020/01/31 08:31:24.2	313.410	-0.050	-0.140	-0.230
2020/01/31 08:31:24.3	313.400	-0.060	-0.100	-0.200
2020/01/31 08:31:24.4	313.410	-0.060	-0.060	-0.160
2020/01/31 08:31:24.5	313.400	-0.060	-0.020	-0.120
2020/01/31 08:31:24.6	313.390	-0.070	0.020	-0.080
2020/01/31 08:31:24.7	313.380	-0.070	0.060	-0.040
2020/01/31 08:31:24.8	313.360	-0.080	0.090	0.000
2020/01/31 08:31:24.9	313.350	-0.080	0.130	0.040
2020/01/31 08:31:25.0	313.330	-0.080	0.160	0.080
2020/01/31 08:31:25.1	313.320	-0.090	0.180	0.120
2020/01/31 08:31:25.2	313.300	-0.090	0.210	0.160
2020/01/31 08:31:25.3	313.280	-0.090	0.230	0.200
2020/01/31 08:31:25.4	313.260	-0.090	0.250	0.230
2020/01/31 08:31:25.5	313.240	-0.100	0.260	0.260
2020/01/31 08:31:25.6	313.220	-0.100	0.270	0.290
2020/01/31 08:31:25.7	313.200	-0.100	0.270	0.320
2020/01/31 08:31:25.8	313.170	-0.110	0.270	0.350
2020/01/31 08:31:25.9	313.150	-0.110	0.260	0.370
2020/01/31 08:31:26.0	313.130	-0.110	0.250	0.390
2020/01/31 08:31:26.1	313.100	-0.110	0.240	0.410
2020/01/31 08:31:26.2	313.080	-0.120	0.220	0.430
2020/01/31 08:31:26.3	313.060	-0.120	0.190	0.440
2020/01/31 08:31:26.4	313.030	-0.120	0.160	0.460
2020/01/31 08:31:26.5	313.000	-0.120	0.130	0.470
2020/01/31 08:31:26.6	312.980	-0.120	0.100	0.480
2020/01/31 08:31:26.7	312.960	-0.120	0.060	0.480
2020/01/31 08:31:26.8	312.930	-0.120	0.020	0.490
2020/01/31 08:31:26.9	312.910	-0.120	-0.030	0.490
2020/01/31 08:31:27.0	312.890	-0.120	-0.070	0.490
2020/01/31 08:31:27.1	312.870	-0.120	-0.120	0.490
2020/01/31 08:31:27.2	312.860	-0.110	-0.170	0.490
2020/01/31 08:31:27.3	312.840	-0.110	-0.220	0.480
2020/01/31 08:31:27.4	312.820	-0.110	-0.280	0.470
2020/01/31 08:31:27.5	312.810	-0.100	-0.330	0.450
2020/01/31 08:31:27.6	312.800	-0.100	-0.380	0.440
2020/01/31 08:31:27.7	312.790	-0.090	-0.440	0.420
2020/01/31 08:31:27.8	312.780	-0.080	-0.500	0.400
2020/01/31 08:31:27.9	312.780	-0.070	-0.550	0.380
2020/01/31 08:31:28.0	312.770	-0.060	-0.600	0.360
2020/01/31 08:31:28.1	312.770	-0.050	-0.660	0.340
2020/01/31 08:31:28.2	312.770	-0.040	-0.710	0.310
2020/01/31 08:31:28.3	312.780	-0.030	-0.760	0.280
2020/01/31 08:31:28.4	312.770	-0.020	-0.810	0.260
2020/01/31 08:31:28.5	312.780	-0.010	-0.850	0.230
2020/01/31 08:31:28.6	312.790	0.000	-0.890	0.200
2020/01/31 08:31:28.7	312.800	0.020	-0.930	0.160
2020/01/31 08:31:28.8	312.810	0.030	-0.960	0.130
2020/01/31 08:31:28.9	312.830	0.040	-0.990	0.100
2020/01/31 08:31:29.0	312.840	0.060	-1.020	0.060
2020/01/31 08:31:29.1	312.860	0.070	-1.050	0.020
2020/01/31 08:31:29.2	312.880	0.080	-1.060	-0.010
2020/01/31 08:31:29.3	312.900	0.100	-1.080	-0.050
2020/01/31 08:31:29.4	312.920	0.110	-1.080	-0.090
2020/01/31 08:31:29.5	312.950	0.120	-1.090	-0.120
2020/01/31 08:31:29.6	312.980	0.130	-1.090	-0.160
2020/01/31 08:31:29.7	313.010	0.140	-1.090	-0.200
2020/01/31 08:31:29.8	313.040	0.150	-1.080	-0.230
2020/01/31 08:31:29.9	313.070	0.160	-1.060	-0.270
2020/01/31 08:31:30.0	313.110	0.170	-1.040	-0.300
2020/01/31 08:31:30.1	313.140	0.180	-1.020	-0.330
2020/01/31 08:31:30.2	313.180	0.180	-0.990	-0.360
2020/01/31 08:31:30.3	313.210	0.180	-0.950	-0.380
2020/01/31 08:31:30.4	313.260	0.190	-0.920	-0.400
2020/01/31 08:31:30.5	313.290	0.190	-0.870	-0.420
2020/01/31 08:31:30.6	313.330	0.180	-0.820	-0.430
2020/01/31 08:31:30.7	313.360	0.180	-0.770	-0.450
2020/01/31 08:31:30.8	313.390	0.180	-0.710	-0.450
2020/01/31 08:31:30.9	313.430	0.170	-0.650	-0.460
2020/01/31 08:31:31.0	313.460	0.160	-0.580	-0.460
2020/01/31 08:31:31.1	313.490	0.150	-0.510	-0.450
2020/01/31 08:31:31.2	313.520	0.140	-0.440	-0.450
2020/01/31 08:31:31.3	313.550	0.130	-0.360	-0.430
2020/01/31 08:31:31.4	313.580	0.110	-0.280	-0.420
2020/01/31 08:31:31.5	313.610	0.100	-0.200	-0.400
2020/01/31 08:31:31.6	313.630	0.080	-0.120	-0.370
2020/01/31 08:31:31.7	313.650	0.060	-0.050	-0.350
2020/01/31 08:31:31.8	313.670	0.040	0.030	-0.320
2020/01/31 08:31:31.9	313.680	0.030	0.110	-0.290
2020/01/31 08:31:32.0	313.700	0.010	0.180	-0.250
2020/01/31 08:31:32.1	313.710	-0.020	0.260	-0.220
2020/01/31 08:31:32.2	313.720	-0.040	0.330	-0.180
2020/01/31 08:31:32.3	313.720	-0.060	0.390	-0.150
2020/01/31 08:31:32.4	313.750	-0.080	0.450	-0.100
2020/01/31 08:31:32.5	313.750	-0.100	0.510	-0.070
2020/01/31 08:31:32.6	313.750	-0.120	0.570	-0.030
2020/01/31 08:31:32.7	313.740	-0.140	0.610	0.010
2020/01/31 08:31:32.8	313.740	-0.150	0.660	0.050
2020/01/31 08:31:32.9	313.730	-0.170	0.690	0.080
2020/01/31 08:31:33.0	313.730	-0.190	0.730	0.120
2020/01/31 08:31:33.1	313.720	-0.200	0.750	0.150
2020/01/31 08:31:33.2	313.700	-0.220	0.770	0.180
2020/01/31 08:31:33.3	313.690	-0.230	0.780	0.210
2020/01/31 08:31:33.4	313.680	-0.240	0.790	0.230
2020/01/31 08:31:33.5	313.660	-0.250	0.790	0.260
2020/01/31 08:31:33.6	313.650	-0.260	0.790	0.280
2020/01/31 08:31:33.7	313.630	-0.260	0.780	0.300
2020/01/31 08:31:33.8	313.610	-0.270	0.760	0.320
2020/01/31 08:31:33.9	313.600	-0.270	0.740	0.340
2020/01/31 08:31:34.0	313.580	-0.270	0.710	0.350
2020/01/31 08:31:34.1	313.560	-0.270	0.680	0.370
2020/01/31 08:31:34.2	313.540	-0.270	0.640	0.380
2020/01/31 08:31:34.3	313.520	-0.260	0.600	0.390
2020/01/31 08:31:34.4	313.500	-0.260	0.560	0.400
2020/01/31 08:31:34.5	313.480	-0.250	0.510	0.410
2020/01/31 08:31:34.6	313.460	-0.240	0.470	0.420
2020/01/31 08:31:34.7	313.440	-0.230	0.410	0.420
2020/01/31 08:31:34.8	313.410	-0.220	0.360	0.430
2020/01/31 08:31:34.9	313.390	-0.210	0.310	0.430
2020/01/31 08:31:35.0	313.370	-0.190	0.260	0.430
2020/01/31 08:31:35.1	313.340	-0.170	0.200	0.440
2020/01/31 08:31:35.2	313.320	-0.160	0.150	0.440
2020/01/31 08:31:35.3	313.300	-0.140	0.100	0.440
2020/01/31 08:31:35.4	313.270	-0.120	0.050	0.440
2020/01/31 08:31:35.5	313.250	-0.100	-0.000	0.440
2020/01/31 08:31:35.6	313.220	-0.070	-0.050	0.440
2020/01/31 08:31:35.7	313.200	-0.050	-0.090	0.440
2020/01/31 08:31:35.8	313.170	-0.030	-0.130	0.440
2020/01/31 08:31:35.9	313.150	-0.010	-0.170	0.440
2020/01/31 08:31:36.0	313.120	0.020	-0.200	0.450
2020/01/31 08:31:36.1	313.090	0.040	-0.240	0.450
2020/01/31 08:31:36.2	313.060	0.060	-0.260	0.450
2020/01/31 08:31:36.3	313.040	0.090	-0.290	0.460
2020/01/31 08:31:36.4	312.990	0.110	-0.310	0.460
2020/01/31 08:31:36.5	312.960	0.130	-0.320	0.470
2020/01/31 08:31:36.6	312.930	0.150	-0.340	0.470
2020/01/31 08:31:36.7	312.900	0.170	-0.350	0.480
2020/01/31 08:31:36.8	312.880	0.200	-0.360	0.480
2020/01/31 08:31:36.9	312.850	0.220	-0.380	0.490
2020/01/31 08:31:37.0	312.820	0.240	-0.380	0.490
2020/01/31 08:31:37.1	312.800	0.260	-0.390	0.500
2020/01/31 08:31:37.2	312.780	0.270	-0.400	0.500
2020/01/31 08:31:37.3	312.760	0.290	-0.410	0.490
2020/01/31 08:31:37.4	312.730	0.310	-0.430	0.490
2020/01/31 08:31:37.5	312.710	0.330	-0.440	0.480
2020/01/31 08:31:37.6	312.700	0.340	-0.450	0.470
2020/01/31 08:31:37.7	312.690	0.350	-0.470	0.460
2020/01/31 08:31:37.8	312.680	0.370	-0.490	0.450
2020/01/31 08:31:37.9	312.670	0.380	-0.510	0.430
2020/01/31 08:31:38.0	312.670	0.390	-0.530	0.400
2020/01/31 08:31:38.1	312.670	0.400	-0.550	0.380
2020/01/31 08:31:38.2	312.670	0.410	-0.580	0.350
2020/01/31 08:31:38.3	312.680	0.420	-0.610	0.320
2020/01/31 08:31:38.4	312.690	0.430	-0.650	0.280
2020/01/31 08:31:38.5	312.700	0.440	-0.680	0.240
2020/01/31 08:31:38.6	312.720	0.440	-0.720	0.200
2020/01/31 08:31:38.7	312.740	0.450	-0.760	0.160
2020/01/31 08:31:38.8	312.760	0.450	-0.810	0.120
2020/01/31 08:31:38.9	312.790	0.460	-0.850	0.070
2020/01/31 08:31:39.0	312.820	0.460	-0.900	0.020
2020/01/31 08:31:39.1	312.850	0.460	-0.950	-0.030
2020/01/31 08:31:39.2	312.890	0.460	-1.000	-0.080
2020/01/31 08:31:39.3	312.920	0.460	-1.040	-0.130
2020/01/31 08:31:39.4	312.940	0.450	-1.090	-0.190
2020/01/31 08:31:39.5	312.990	0.450	-1.130	-0.240
2020/01/31 08:31:39.6	313.030	0.440	-1.180	-0.290
2020/01/31 08:31:39.7	313.080	0.440	-1.210	-0.350
2020/01/31 08:31:39.8	313.130	0.430	-1.250	-0.400
2020/01/31 08:31:39.9	313.180	0.420	-1.280	-0.450
2020/01/31 08:31:40.0	313.230	0.410	-1.310	-0.500
2020/01/31 08:31:40.1	313.280	0.390	-1.330	-0.550
2020/01/31 08:31:40.2	313.330	0.380	-1.350	-0.590
2020/01/31 08:31:40.3	313.390	0.360	-1.360	-0.630
2020/01/31 08:31:40.4	313.430	0.340	-1.360	-0.670
2020/01/31 08:31:40.5	313.480	0.320	-1.350	-0.710
2020/01/31 08:31:40.6	313.530	0.290	-1.340	-0.740
2020/01/31 08:31:40.7	313.580	0.270	-1.320	-0.760
2020/01/31 08:31:40.8	313.620	0.240	-1.290	-0.790
2020/01/31 08:31:40.9	313.670	0.210	-1.260	-0.810
2020/01/31 08:31:41.0	313.710	0.180	-1.220	-0.820
2020/01/31 08:31:41.1	313.760	0.140	-1.170	-0.830
2020/01/31 08:31:41.2	313.800	0.110	-1.110	-0.830
2020/01/31 08:31:41.3	313.830	0.070	-1.050	-0.830
2020/01/31 08:31:41.4	313.880	0.030	-0.980	-0.820
2020/01/31 08:31:41.5	313.910	-0.010	-0.910	-0.820
2020/01/31 08:31:41.6	313.940	-0.050	-0.830	-0.800
2020/01/31 08:31:41.7	313.970	-0.090	-0.740	-0.790
2020/01/31 08:31:41.8	313.990	-0.130	-0.650	-0.770
2020/01/31 08:31:41.9	314.020	-0.170	-0.560	-0.750
2020/01/31 08:31:42.0	314.040	-0.210	-0.470	-0.730
2020/01/31 08:31:42.1	314.050	-0.260	-0.370	-0.700
2020/01/31 08:31:42.2	314.070	-0.300	-0.270	-0.670
2020/01/31 08:31:42.3	314.080	-0.340	-0.170	-0.640
2020/01/31 08:31:42.4	314.100	-0.380	-0.070	-0.610
2020/01/31 08:31:42.5	314.110	-0.420	0.020	-0.570
2020/01/31 08:31:42.6	314.110	-0.460	0.120	-0.540
2020/01/31 08:31:42.7	314.110	-0.500	0.220	-0.500
2020/01/31 08:31:42.8	314.100	-0.540	0.310	-0.450
2020/01/31 08:31:42.9	314.090	-0.570	0.400	-0.410
2020/01/31 08:31:43.0	314.080	-0.600	0.480	-0.370
2020/01/31 08:31:43.1	314.070	-0.630	0.570	-0.320
2020/01/31 08:31:43.2	314.050	-0.660	0.640	-0.270
2020/01/31 08:31:43.3	314.030	-0.690	0.720	-0.230
2020/01/31 08:31:43.4	314.020	-0.710	0.790	-0.180
2020/01/31 08:31:43.5	313.990	-0.730	0.850	-0.120
2020/01/31 08:31:43.6	313.960	-0.750	0.910	-0.070
2020/01/31 08:31:43.7	313.930	-0.770	0.960	-0.020
2020/01/31 08:31:43.8	313.890	-0.780	1.000	0.030
2020/01/31 08:31:43.9	313.860	-0.790	1.040	0.090
2020/01/31 08:31:44.0	313.820	-0.800	1.070	0.140
2020/01/31 08:31:44.1	313.780	-0.800	1.090	0.190
2020/01/31 08:31:44.2	313.730	-0.800	1.110	0.240
2020/01/31 08:31:44.3	313.690	-0.800	1.120	0.290
2020/01/31 08:31:44.4	313.660	-0.800	1.120	0.340
2020/01/31 08:31:44.5	313.620	-0.790	1.120	0.390
2020/01/31 08:31:44.6	313.570	-0.780	1.110	0.430
2020/01/31 08:31:44.7	313.530	-0.760	1.090	0.480
2020/01/31 08:31:44.8	313.490	-0.740	1.060	0.520
2020/01/31 08:31:44.9	313.450	-0.720	1.030	0.560
2020/01/31 08:31:45.0	313.410	-0.700	0.990	0.600
2020/01/31 08:31:45.1	313.370	-0.670	0.950	0.630
2020/01/31 08:31:45.2	313.330	-0.640	0.890	0.660
2020/01/31 08:31:45.3	313.290	-0.610	0.840	0.680
2020/01/31 08:31:45.4	313.260	-0.570	0.780	0.710
2020/01/31 08:31:45.5	313.230	-0.540	0.710	0.720
2020/01/31 08:31:45.6	313.200	-0.500	0.640	0.740
2020/01/31 08:31:45.7	313.170	-0.460	0.570	0.750
2020/01/31 08:31:45.8	313.140	-0.410	0.490	0.750
2020/01/31 08:31:45.9	313.120	-0.370	0.410	0.750
2020/01/31 08:31:46.0	313.100	-0.320	0.330	0.750
2020/01/31 08:31:46.1	313.080	-0.280	0.250	0.740
2020/01/31 08:31:46.2	313.060	-0.230	0.160	0.730
2020/01/31 08:31:46.3	313.040	-0.180	0.080	0.720
2020/01/31 08:31:46.4	313.030	-0.130	-0.010	0.700
2020/01/31 08:31:46.5	313.020	-0.080	-0.090	0.690
2020/01/31 08:31:46.6	313.010	-0.030	-0.170	0.670
2020/01/31 08:31:46.7	313.000	0.020	-0.250	0.640
2020/01/31 08:31:46.8	312.990	0.070	-0.320	0.620
2020/01/31 08:31:46.9	312.990	0.120	-0.400	0.600
2020/01/31 08:31:47.0	312.980	0.170	-0.460	0.570
2020/01/31 08:31:47.1	312.980	0.220	-0.530	0.550
2020/01/31 08:31:47.2	312.980	0.270	-0.590	0.520
2020/01/31 08:31:47.3	312.980	0.320	-0.640	0.500
2020/01/31 08:31:47.4	312.980	0.360	-0.690	0.470
2020/01/31 08:31:47.5	312.980	0.410	-0.740	0.450
2020/01/31 08:31:47.6	312.990	0.450	-0.780	0.430
2020/01/31 08:31:47.7	312.990	0.490	-0.810	0.410
2020/01/31 08:31:47.8	313.000	0.520	-0.840	0.390
2020/01/31 08:31:47.9	313.010	0.560	-0.860	0.370
2020/01/31 08:31:48.0	313.010	0.590	-0.870	0.360
2020/01/31 08:31:48.1	313.020	0.620	-0.880	0.340
2020/01/31 08:31:48.2	313.030	0.640	-0.890	0.330
2020/01/31 08:31:48.3	313.040	0.670	-0.890	0.320
2020/01/31 08:31:48.4	313.050	0.690	-0.890	0.320
2020/01/31 08:31:48.5	313.050	0.700	-0.880	0.310
2020/01/31 08:31:48.6	313.060	0.720	-0.860	0.310
2020/01/31 08:31:48.7	313.070	0.730	-0.850	0.300
2020/01/31 08:31:48.8	313.080	0.740	-0.830	0.300
2020/01/31 08:31:48.9	313.090	0.740	-0.810	0.300
2020/01/31 08:31:49.0	313.100	0.740	-0.790	0.290
2020/01/31 08:31:49.1	313.120	0.740	-0.770	0.290
2020/01/31 08:31:49.2	313.130	0.740	-0.740	0.290
2020/01/31 08:31:49.3	313.140	0.740	-0.720	0.290
2020/01/31 08:31:49.4	313.160	0.730	-0.690	0.280
2020/01/31 08:31:49.5	313.170	0.720	-0.670	0.280
2020/01/31 08:31:49.6	313.180	0.710	-0.650	0.280
2020/01/31 08:31:49.7	313.200	0.700	-0.630	0.280
2020/01/31 08:31:49.8	313.220	0.680	-0.610	0.270
2020/01/31 08:31:49.9	313.230	0.660	-0.590	0.270
2020/01/31 08:31:50.0	313.250	0.650	-0.580	0.260
2020/01/31 08:31:50.1	313.270	0.630	-0.570	0.260
2020/01/31 08:31:50.2	313.290	0.610	-0.560	0.260
2020/01/31 08:31:50.3	313.310	0.590	-0.550	0.250
2020/01/31 08:31:50.4	313.320	0.570	-0.540	0.250
2020/01/31 08:31:50.5	313.340	0.550	-0.540	0.240
2020/01/31 08:31:50.6	313.360	0.530	-0.530	0.240
2020/01/31 08:31:50.7	313.380	0.510	-0.530	0.240
2020/01/31 08:31:50.8	313.400	0.490	-0.530	0.230
2020/01/31 08:31:50.9	313.420	0.470	-0.540	0.230
2020/01/31 08:31:51.0	313.430	0.440	-0.540	0.230
2020/01/31 08:31:51.1	313.450	0.420	-0.540	0.220
2020/01/31 08:31:51.2	313.470	0.400	-0.550	0.220
2020/01/31 08:31:51.3	313.490	0.380	-0.550	0.210
2020/01/31 08:31:51.4	313.500	0.350	-0.560	0.210
2020/01/31 08:31:51.5	313.520	0.330	-0.570	0.200
2020/01/31 08:31:51.6	313.540	0.300	-0.570	0.190
2020/01/31 08:31:51.7	313.560	0.280	-0.580	0.180
2020/01/31 08:31:51.8	313.580	0.260	-0.580	0.170
2020/01/31 08:31:51.9	313.600	0.230	-0.590	0.160
2020/01/31 08:31:52.0	313.620	0.200	-0.590	0.150
2020/01/31 08:31:52.1	313.640	0.180	-0.590	0.140
2020/01/31 08:31:52.2	313.650	0.150	-0.590	0.130
2020/01/31 08:31:52.3	313.670	0.130	-0.590	0.110
2020/01/31 08:31:52.4	313.690	0.100	-0.580	0.090
2020/01/31 08:31:52.5	313.710	0.070	-0.570	0.080
2020/01/31 08:31:52.6	313.730	0.050	-0.560	0.070
2020/01/31 08:31:52.7	313.740	0.020	-0.550	0.050
2020/01/31 08:31:52.8	313.760	-0.010	-0.530	0.040
2020/01/31 08:31:52.9	313.780	-0.030	-0.510	0.030
2020/01/31 08:31:53.0	313.790	-0.060	-0.490	0.020
2020/01/31 08:31:53.1	313.810	-0.090	-0.460	0.010
2020/01/31 08:31:53.2	313.820	-0.110	-0.430	0.000
2020/01/31 08:31:53.3	313.830	-0.140	-0.400	-0.000
2020/01/31 08:31:53.4	313.840	-0.160	-0.360	-0.000
2020/01/31 08:31:53.5	313.850	-0.190	-0.310	-0.000
2020/01/31 08:31:53.6	313.850	-0.210	-0.270	0.000
2020/01/31 08:31:53.7	313.850	-0.230	-0.220	0.010
2020/01/31 08:31:53.8	313.850	-0.250	-0.160	0.020
2020/01/31 08:31:53.9	313.850	-0.270	-0.110	0.040
2020/01/31 08:31:54.0	313.840	-0.290	-0.050	0.060
2020/01/31 08:31:54.1	313.830	-0.310	0.000	0.080
2020/01/31 08:31:54.2	313.820	-0.330	0.060	0.100
2020/01/31 08:31:54.3	313.800	-0.350	0.120	0.130
2020/01/31 08:31:54.4	313.790	-0.360	0.180	0.150
2020/01/31 08:31:54.5	313.770	-0.380	0.240	0.180
2020/01/31 08:31:54.6	313.750	-0.390	0.290	0.220
2020/01/31 08:31:54.7	313.730	-0.400	0.350	0.250
2020/01/31 08:31:54.8	313.710	-0.410	0.400	0.280
2020/01/31 08:31:54.9	313.690	-0.420	0.440	0.310
2020/01/31 08:31:55.0	313.660	-0.420	0.480	0.330
2020/01/31 08:31:55.1	313.640	-0.430	0.520	0.360
2020/01/31 08:31:55.2	313.610	-0.430	0.550	0.380
2020/01/31 08:31:55.3	313.590	-0.430	0.570	0.410
2020/01/31 08:31:55.4	313.580	-0.430	0.590	0.430
2020/01/31 08:31:55.5	313.550	-0.430	0.600	0.450
2020/01/31 08:31:55.6	313.530	-0.430	0.610	0.460
2020/01/31 08:31:55.7	313.510	-0.430	0.610	0.470
2020/01/31 08:31:55.8	313.480	-0.420	0.600	0.480
2020/01/31 08:31:55.9	313.460	-0.410	0.590	0.490
2020/01/31 08:31:56.0	313.440	-0.400	0.570	0.490
2020/01/31 08:31:56.1	313.420	-0.390	0.540	0.500
2020/01/31 08:31:56.2	313.400	-0.380	0.510	0.500
2020/01/31 08:31:56.3	313.370	-0.370	0.480	0.490
2020/01/31 08:31:56.4	313.360	-0.360	0.430	0.480
2020/01/31 08:31:56.5	313.340	-0.340	0.390	0.480
2020/01/31 08:31:56.6	313.320	-0.330	0.340	0.470
2020/01/31 08:31:56.7	313.300	-0.320	0.290	0.460
2020/01/31 08:31:56.8	313.280	-0.300	0.230	0.440
2020/01/31 08:31:56.9	313.260	-0.290	0.170	0.430
2020/01/31 08:31:57.0	313.240	-0.270	0.120	0.410
2020/01/31 08:31:57.1	313.220	-0.260	0.060	0.390
2020/01/31 08:31:57.2	313.200	-0.240	-0.000	0.370
2020/01/31 08:31:57.3	313.180	-0.230	-0.060	0.350
2020/01/31 08:31:57.4	313.150	-0.220	-0.110	0.330
2020/01/31 08:31:57.5	313.130	-0.200	-0.170	0.300
2020/01/31 08:31:57.6	313.110	-0.190	-0.220	0.280
2020/01/31 08:31:57.7	313.100	-0.180	-0.270	0.260
2020/01/31 08:31:57.8	313.080	-0.170	-0.320	0.230
2020/01/31 08:31:57.9	313.070	-0.160	-0.370	0.210
2020/01/31 08:31:58.0	313.060	-0.160	-0.410	0.190
2020/01/31 08:31:58.1	313.040	-0.150	-0.450	0.170
2020/01/31 08:31:58.2	313.030	-0.140	-0.490	0.140
2020/01/31 08:31:58.3	313.020	-0.140	-0.520	0.120
2020/01/31 08:31:58.4	313.000	-0.130	-0.550	0.100
2020/01/31 08:31:58.5	312.990	-0.130	-0.580	0.080
2020/01/31 08:31:58.6	312.980	-0.130	-0.600	0.060
2020/01/31 08:31:58.7	312.980	-0.130	-0.610	0.050
2020/01/31 08:31:58.8	312.970	-0.130	-0.630	0.030
2020/01/31 08:31:58.9	312.970	-0.130	-0.640	0.020
2020/01/31 08:31:59.0	312.960	-0.130	-0.640	0.010
2020/01/31 08:31:59.1	312.960	-0.130	-0.650	-0.000
2020/01/31 08:31:59.2	312.960	-0.130	-0.650	-0.010
2020/01/31 08:31:59.3	312.950	-0.140	-0.650	-0.020
2020/01/31 08:31:59.4	312.940	-0.140	-0.640	-0.020
2020/01/31 08:31:59.5	312.950	-0.140	-0.640	-0.030
2020/01/31 08:31:59.6	312.950	-0.140	-0.630	-0.030
2020/01/31 08:31:59.7	312.950	-0.140	-0.620	-0.030
2020/01/31 08:31:59.8	312.960	-0.140	-0.610	-0.030
2020/01/31 08:31:59.9	312.960	-0.140	-0.600	-0.030
2020/01/31 08:32:00.0	312.970	-0.140	-0.600	-0.030
2020/01/31 08:32:00.1	312.980	-0.130	-0.590	-0.030
2020/01/31 08:32:00.2	312.990	-0.130	-0.580	-0.020
2020/01/31 08:32:00.3	313.000	-0.120	-0.570	-0.020
2020/01/31 08:32:00.4	313.020	-0.110	-0.570	-0.020
2020/01/31 08:32:00.5	313.040	-0.100	-0.560	-0.020
2020/01/31 08:32:00.6	313.060	-0.090	-0.560	-0.010
2020/01/31 08:32:00.7	313.080	-0.070	-0.550	-0.010
2020/01/31 08:32:00.8	313.100	-0.050	-0.550	-0.010
2020/01/31 08:32:00.9	313.130	-0.030	-0.550	-0.010
2020/01/31 08:32:01.0	313.150	-0.010	-0.540	-0.000
2020/01/31 08:32:01.1	313.180	0.020	-0.540	0.000
2020/01/31 08:32:01.2	313.200	0.040	-0.540	0.010
2020/01/31 08:32:01.3	313.230	0.070	-0.540	0.010
2020/01/31 08:32:01.4	313.270	0.100	-0.540	0.020
2020/01/31 08:32:01.5	313.300	0.130	-0.540	0.030
2020/01/31 08:32:01.6	313.330	0.170	-0.530	0.040
2020/01/31 08:32:01.7	313.360	0.200	-0.530	0.060
2020/01/31 08:32:01.8	313.380	0.240	-0.530	0.080
2020/01/31 08:32:01.9	313.410	0.270	-0.520	0.100
2020/01/31 08:32:02.0	313.430	0.310	-0.520	0.120
2020/01/31 08:32:02.1	313.460	0.350	-0.510	0.150
2020/01/31 08:32:02.2	313.480	0.380	-0.500	0.180
2020/01/31 08:32:02.3	313.500	0.420	-0.490	0.210
2020/01/31 08:32:02.4	313.530	0.450	-0.480	0.250
2020/01/31 08:32:02.5	313.550	0.480	-0.470	0.280
2020/01/31 08:32:02.6	313.570	0.510	-0.450	0.320
2020/01/31 08:32:02.7	313.580	0.540	-0.430	0.360
2020/01/31 08:32:02.8	313.600	0.560	-0.410	0.400
2020/01/31 08:32:02.9	313.610	0.590	-0.390	0.440
2020/01/31 08:32:03.0	313.620	0.610	-0.370	0.480
2020/01/31 08:32:03.1	313.630	0.620	-0.350	0.520
2020/01/31 08:32:03.2	313.640	0.640	-0.330	0.560
2020/01/31 08:32:03.3	313.650	0.650	-0.300	0.600
2020/01/31 08:32:03.4	313.650	0.650	-0.270	0.640
2020/01/31 08:32:03.5	313.660	0.660	-0.250	0.670
2020/01/31 08:32:03.6	313.660	0.660	-0.220	0.710
2020/01/31 08:32:03.7	313.660	0.650	-0.190	0.740
2020/01/31 08:32:03.8	313.660	0.640	-0.160	0.770
2020/01/31 08:32:03.9	313.660	0.630	-0.130	0.800
2020/01/31 08:32:04.0	313.650	0.620	-0.100	0.830
2020/01/31 08:32:04.1	313.650	0.600	-0.070	0.850
2020/01/31 08:32:04.2	313.640	0.580	-0.040	0.880
2020/01/31 08:32:04.3	313.630	0.560	-0.010	0.900
2020/01/31 08:32:04.4	313.620	0.530	0.020	0.910
2020/01/31 08:32:04.5	313.610	0.500	0.050	0.920
2020/01/31 08:32:04.6	313.600	0.470	0.070	0.930
2020/01/31 08:32:04.7	313.580	0.440	0.100	0.940
2020/01/31 08:32:04.8	313.570	0.400	0.130	0.940
2020/01/31 08:32:04.9	313.550	0.360	0.150	0.940
2020/01/31 08:32:05.0	313.540	0.320	0.170	0.930
2020/01/31 08:32:05.1	313.520	0.280	0.190	0.930
2020/01/31 08:32:05.2	313.510	0.240	0.210	0.920
2020/01/31 08:32:05.3	313.490	0.200	0.230	0.900
2020/01/31 08:32:05.4	313.480	0.160	0.240	0.880
2020/01/31 08:32:05.5	313.460	0.120	0.250	0.860
2020/01/31 08:32:05.6	313.440	0.080	0.260	0.830
2020/01/31 08:32:05.7	313.430	0.040	0.270	0.810
2020/01/31 08:32:05.8	313.410	-0.000	0.280	0.780
2020/01/31 08:32:05.9	313.390	-0.040	0.290	0.750
2020/01/31 08:32:06.0	313.380	-0.080	0.290	0.710
2020/01/31 08:32:06.1	313.360	-0.110	0.290	0.680
2020/01/31 08:32:06.2	313.340	-0.150	0.290	0.640
2020/01/31 08:32:06.3	313.330	-0.180	0.290	0.600
2020/01/31 08:32:06.4	313.310	-0.210	0.280	0.570
2020/01/31 08:32:06.5	313.300	-0.240	0.270	0.530
2020/01/31 08:32:06.6	313.280	-0.260	0.260	0.490
2020/01/31 08:32:06.7	313.260	-0.280	0.250	0.450
2020/01/31 08:32:06.8	313.240	-0.300	0.240	0.420
2020/01/31 08:32:06.9	313.220	-0.320	0.230	0.380
2020/01/31 08:32:07.0	313.200	-0.330	0.210	0.340
2020/01/31 08:32:07.1	313.180	-0.350	0.190	0.310
2020/01/31 08:32:07.2	313.160	-0.360	0.170	0.280
2020/01/31 08:32:07.3	313.140	-0.360	0.150	0.250
2020/01/31 08:32:07.4	313.110	-0.370	0.130	0.210
2020/01/31 08:32:07.5	313.080	-0.370	0.100	0.180
2020/01/31 08:32:07.6	313.060	-0.370	0.070	0.150
2020/01/31 08:32:07.7	313.040	-0.370	0.040	0.130
2020/01/31 08:32:07.8	313.020	-0.360	0.010	0.100
2020/01/31 08:32:07.9	312.990	-0.360	-0.020	0.080
2020/01/31 08:32:08.0	312.970	-0.350	-0.060	0.050
2020/01/31 08:32:08.1	312.960	-0.340	-0.100	0.030
2020/01/31 08:32:08.2	312.940	-0.330	-0.140	0.000
2020/01/31 08:32:08.3	312.920	-0.320	-0.180	-0.030
2020/01/31 08:32:08.4	312.890	-0.300	-0.230	-0.050
2020/01/31 08:32:08.5	312.880	-0.290	-0.270	-0.080
2020/01/31 08:32:08.6	312.870	-0.270	-0.320	-0.110
2020/01/31 08:32:08.7	312.870	-0.260	-0.370	-0.130
2020/01/31 08:32:08.8	312.860	-0.240	-0.420	-0.160
2020/01/31 08:32:08.9	312.860	-0.220	-0.470	-0.190
2020/01/31 08:32:09.0	312.860	-0.200	-0.530	-0.220
2020/01/31 08:32:09.1	312.870	-0.180	-0.580	-0.250
2020/01/31 08:32:09.2	312.870	-0.170	-0.630	-0.270
2020/01/31 08:32:09.3	312.880	-0.150	-0.680	-0.300
2020/01/31 08:32:09.4	312.890	-0.130	-0.730	-0.330
2020/01/31 08:32:09.5	312.900	-0.110	-0.780	-0.360
2020/01/31 08:32:09.6	312.920	-0.100	-0.820	-0.380
2020/01/31 08:32:09.7	312.930	-0.080	-0.870	-0.400
2020/01/31 08:32:09.8	312.950	-0.070	-0.910	-0.430
2020/01/31 08:32:09.9	312.970	-0.050	-0.950	-0.450
2020/01/31 08:32:10.0	312.990	-0.040	-0.980	-0.460
2020/01/31 08:32:10.1	313.010	-0.030	-1.010	-0.480
2020/01/31 08:32:10.2	313.030	-0.030	-1.030	-0.490
2020/01/31 08:32:10.3	313.050	-0.020	-1.050	-0.500
2020/01/31 08:32:10.4	313.060	-0.020	-1.060	-0.500
2020/01/31 08:32:10.5	313.080	-0.010	-1.070	-0.500
2020/01/31 08:32:10.6	313.100	-0.010	-1.070	-0.500
2020/01/31 08:32:10.7	313.120	-0.010	-1.070	-0.490
2020/01/31 08:32:10.8	313.140	-0.020	-1.060	-0.480
2020/01/31 08:32:10.9	313.160	-0.020	-1.040	-0.470
2020/01/31 08:32:11.0	313.170	-0.030	-1.020	-0.450
2020/01/31 08:32:11.1	313.190	-0.030	-0.990	-0.430
2020/01/31 08:32:11.2	313.200	-0.040	-0.960	-0.400
2020/01/31 08:32:11.3	313.210	-0.050	-0.920	-0.370
2020/01/31 08:32:11.4	313.220	-0.060	-0.870	-0.340
2020/01/31 08:32:11.5	313.230	-0.070	-0.820	-0.310
2020/01/31 08:32:11.6	313.240	-0.090	-0.770	-0.270
2020/01/31 08:32:11.7	313.240	-0.100	-0.720	-0.230
2020/01/31 08:32:11.8	313.250	-0.110	-0.660	-0.190
2020/01/31 08:32:11.9	313.250	-0.120	-0.590	-0.150
2020/01/31 08:32:12.0	313.260	-0.140	-0.530	-0.100
2020/01/31 08:32:12.1	313.260	-0.150	-0.460	-0.060
2020/01/31 08:32:12.2	313.260	-0.160	-0.390	-0.010
2020/01/31 08:32:12.3	313.260	-0.170	-0.320	0.040
2020/01/31 08:32:12.4	313.270	-0.180	-0.250	0.090
2020/01/31 08:32:12.5	313.270	-0.190	-0.180	0.140
2020/01/31 08:32:12.6	313.260	-0.200	-0.110	0.190
2020/01/31 08:32:12.7	313.260	-0.210	-0.040	0.240
2020/01/31 08:32:12.8	313.250	-0.210	0.030	0.290
2020/01/31 08:32:12.9	313.240	-0.220	0.100	0.350
2020/01/31 08:32:13.0	313.230	-0.220	0.160	0.400
2020/01/31 08:32:13.1	313.210	-0.230	0.220	0.450
2020/01/31 08:32:13.2	313.200	-0.230	0.280	0.500
2020/01/31 08:32:13.3	313.180	-0.230	0.330	0.550
2020/01/31 08:32:13.4	313.170	-0.230	0.380	0.600
2020/01/31 08:32:13.5	313.150	-0.230	0.430	0.650
2020/01/31 08:32:13.6	313.130	-0.230	0.470	0.690
2020/01/31 08:32:13.7	313.110	-0.230	0.500	0.730
2020/01/31 08:32:13.8	313.090	-0.220	0.530	0.770
2020/01/31 08:32:13.9	313.070	-0.220	0.550	0.810
2020/01/31 08:32:14.0	313.060	-0.210	0.560	0.840
2020/01/31 08:32:14.1	313.040	-0.200	0.570	0.870
2020/01/31 08:32:14.2	313.020	-0.190	0.570	0.890
2020/01/31 08:32:14.3	313.010	-0.180	0.570	0.910
2020/01/31 08:32:14.4	313.020	-0.170	0.550	0.930
2020/01/31 08:32:14.5	313.010	-0.160	0.540	0.930
2020/01/31 08:32:14.6	313.000	-0.140	0.510	0.940
2020/01/31 08:32:14.7	313.000	-0.130	0.480	0.930
2020/01/31 08:32:14.8	313.000	-0.110	0.450	0.930
2020/01/31 08:32:14.9	313.000	-0.100	0.410	0.910
2020/01/31 08:32:15.0	313.000	-0.080	0.370	0.890
2020/01/31 08:32:15.1	313.010	-0.060	0.320	0.870
2020/01/31 08:32:15.2	313.020	-0.040	0.270	0.850
2020/01/31 08:32:15.3	313.030	-0.020	0.220	0.820
2020/01/31 08:32:15.4	313.050	-0.000	0.160	0.780
2020/01/31 08:32:15.5	313.060	0.020	0.110	0.750
2020/01/31 08:32:15.6	313.080	0.040	0.050	0.710
2020/01/31 08:32:15.7	313.090	0.060	-0.010	0.670
2020/01/31 08:32:15.8	313.110	0.080	-0.060	0.630
2020/01/31 08:32:15.9	313.120	0.100	-0.120	0.590
2020/01/31 08:32:16.0	313.140	0.120	-0.170	0.550
2020/01/31 08:32:16.1	313.150	0.130	-0.230	0.510
2020/01/31 08:32:16.2	313.160	0.150	-0.270	0.480
2020/01/31 08:32:16.3	313.180	0.170	-0.320	0.440
2020/01/31 08:32:16.4	313.180	0.180	-0.360	0.410
2020/01/31 08:32:16.5	313.190	0.200	-0.410	0.370
2020/01/31 08:32:16.6	313.200	0.210	-0.440	0.340
2020/01/31 08:32:16.7	313.200	0.230	-0.480	0.310
2020/01/31 08:32:16.8	313.210	0.240	-0.510	0.290
2020/01/31 08:32:16.9	313.220	0.250	-0.530	0.260
2020/01/31 08:32:17.0	313.220	0.260	-0.560	0.240
2020/01/31 08:32:17.1	313.230	0.270	-0.580	0.220
2020/01/31 08:32:17.2	313.230	0.270	-0.590	0.200
2020/01/31 08:32:17.3	313.230	0.280	-0.600	0.190
2020/01/31 08:32:17.4	313.220	0.280	-0.610	0.180
2020/01/31 08:32:17.5	313.220	0.290	-0.620	0.170
2020/01/31 08:32:17.6	313.220	0.290	-0.620	0.160
2020/01/31 08:32:17.7	313.220	0.290	-0.620	0.160
2020/01/31 08:32:17.8	313.220	0.300	-0.620	0.150
2020/01/31 08:32:17.9	313.220	0.300	-0.620	0.150
2020/01/31 08:32:18.0	313.220	0.300	-0.610	0.150
2020/01/31 08:32:18.1	313.220	0.300	-0.600	0.160
2020/01/31 08:32:18.2	313.220	0.290	-0.590	0.160
2020/01/31 08:32:18.3	313.220	0.290	-0.580	0.170
2020/01/31 08:32:18.4	313.210	0.290	-0.570	0.180
2020/01/31 08:32:18.5	313.210	0.290	-0.560	0.190
2020/01/31 08:32:18.6	313.200	0.280	-0.540	0.200
2020/01/31 08:32:18.7	313.200	0.280	-0.530	0.210
2020/01/31 08:32:18.8	313.190	0.270	-0.510	0.220
2020/01/31 08:32:18.9	313.190	0.260	-0.490	0.230
2020/01/31 08:32:19.0	313.180	0.260	-0.470	0.240
2020/01/31 08:32:19.1	313.170	0.250	-0.460	0.250
2020/01/31 08:32:19.2	313.170	0.240	-0.440	0.260
2020/01/31 08:32:19.3	313.160	0.230	-0.420	0.270
2020/01/31 08:32:19.4	313.140	0.220	-0.400	0.290
2020/01/31 08:32:19.5	313.130	0.210	-0.380	0.300
2020/01/31 08:32:19.6	313.120	0.190	-0.360	0.310
2020/01/31 08:32:19.7	313.120	0.180	-0.350	0.320
2020/01/31 08:32:19.8	313.110	0.170	-0.330	0.330
2020/01/31 08:32:19.9	313.100	0.160	-0.310	0.340
2020/01/31 08:32:20.0	313.100	0.140	-0.300	0.350
2020/01/31 08:32:20.1	313.090	0.130	-0.280	0.360
2020/01/31 08:32:20.2	313.080	0.120	-0.270	0.380
2020/01/31 08:32:20.3	313.080	0.100	-0.250	0.390
2020/01/31 08:32:20.4	313.060	0.090	-0.230	0.400
2020/01/31 08:32:20.5	313.050	0.070	-0.220	0.410
2020/01/31 08:32:20.6	313.040	0.060	-0.200	0.420
2020/01/31 08:32:20.7	313.030	0.050	-0.190	0.430
2020/01/31 08:32:20.8	313.020	0.030	-0.170	0.440
2020/01/31 08:32:20.9	313.010	0.020	-0.160	0.450
2020/01/31 08:32:21.0	313.000	0.010	-0.140	0.460
2020/01/31 08:32:21.1	312.990	-0.010	-0.130	0.470
2020/01/31 08:32:21.2	312.980	-0.020	-0.120	0.480
2020/01/31 08:32:21.3	312.960	-0.030	-0.100	0.490
2020/01/31 08:32:21.4	312.950	-0.040	-0.090	0.500
2020/01/31 08:32:21.5	312.940	-0.050	-0.080	0.510
2020/01/31 08:32:21.6	312.930	-0.060	-0.070	0.510
2020/01/31 08:32:21.7	312.910	-0.070	-0.060	0.520
2020/01/31 08:32:21.8	312.900	-0.070	-0.050	0.530
2020/01/31 08:32:21.9	312.890	-0.080	-0.040	0.530
2020/01/31 08:32:22.0	312.880	-0.090	-0.030	0.530
2020/01/31 08:32:22.1	312.870	-0.090	-0.020	0.530
2020/01/31 08:32:22.2	312.860	-0.100	-0.020	0.530
2020/01/31 08:32:22.3	312.850	-0.100	-0.010	0.530
2020/01/31 08:32:22.4	312.840	-0.100	-0.000	0.520
2020/01/31 08:32:22.5	312.840	-0.110	-0.000	0.520
2020/01/31 08:32:22.6	312.840	-0.110	-0.000	0.510
2020/01/31 08:32:22.7	312.840	-0.110	-0.000	0.490
2020/01/31 08:32:22.8	312.840	-0.110	-0.010	0.470
2020/01/31 08:32:22.9	312.850	-0.110	-0.010	0.450
2020/01/31 08:32:23.0	312.850	-0.110	-0.020	0.430
2020/01/31 08:32:23.1	312.860	-0.120	-0.020	0.400
2020/01/31 08:32:23.2	312.870	-0.120	-0.030	0.370
2020/01/31 08:32:23.3	312.890	-0.120	-0.040	0.330
2020/01/31 08:32:23.4	312.900	-0.120	-0.060	0.300
2020/01/31 08:32:23.5	312.920	-0.120	-0.070	0.260
2020/01/31 08:32:23.6	312.940	-0.120	-0.080	0.220
2020/01/31 08:32:23.7	312.960	-0.120	-0.100	0.180
2020/01/31 08:32:23.8	312.970	-0.130	-0.110	0.140
2020/01/31 08:32:23.9	312.990	-0.130	-0.130	0.100
2020/01/31 08:32:24.0	313.010	-0.130	-0.140	0.060
2020/01/31 08:32:24.1	313.030	-0.140	-0.160	0.020
2020/01/31 08:32:24.2	313.040	-0.140	-0.170	-0.010
2020/01/31 08:32:24.3	313.060	-0.150	-0.190	-0.050
2020/01/31 08:32:24.4	313.070	-0.150	-0.200	-0.080
2020/01/31 08:32:24.5	313.090	-0.160	-0.220	-0.110
2020/01/31 08:32:24.6	313.100	-0.160	-0.230	-0.140
2020/01/31 08:32:24.7	313.110	-0.170	-0.240	-0.170
2020/01/31 08:32:24.8	313.120	-0.170	-0.250	-0.200
2020/01/31 08:32:24.9	313.130	-0.180	-0.260	-0.220
2020/01/31 08:32:25.0	313.140	-0.180	-0.270	-0.250
2020/01/31 08:32:25.1	313.150	-0.190	-0.270	-0.270
2020/01/31 08:32:25.2	313.160	-0.190	-0.280	-0.280
2020/01/31 08:32:25.3	313.160	-0.190	-0.290	-0.300
2020/01/31 08:32:25.4	313.180	-0.200	-0.300	-0.320
2020/01/31 08:32:25.5	313.190	-0.200	-0.300	-0.330
2020/01/31 08:32:25.6	313.190	-0.200	-0.310	-0.340
2020/01/31 08:32:25.7	313.200	-0.200	-0.310	-0.350
2020/01/31 08:32:25.8	313.200	-0.190	-0.320	-0.360
2020/01/31 08:32:25.9	313.210	-0.190	-0.330	-0.370
2020/01/31 08:32:26.0	313.210	-0.190	-0.330	-0.380
2020/01/31 08:32:26.1	313.220	-0.180	-0.340	-0.380
2020/01/31 08:32:26.2	313.220	-0.170	-0.350	-0.380
2020/01/31 08:32:26.3	313.230	-0.160	-0.350	-0.380
2020/01/31 08:32:26.4	313.240	-0.150	-0.360	-0.380
2020/01/31 08:32:26.5	313.240	-0.140	-0.360	-0.380
2020/01/31 08:32:26.6	313.250	-0.130	-0.370	-0.370
2020/01/31 08:32:26.7	313.250	-0.120	-0.380	-0.360
2020/01/31 08:32:26.8	313.260	-0.110	-0.390	-0.350
2020/01/31 08:32:26.9	313.270	-0.090	-0.390	-0.340
2020/01/31 08:32:27.0	313.270	-0.080	-0.400	-0.330
2020/01/31 08:32:27.1	313.280	-0.060	-0.410	-0.310
2020/01/31 08:32:27.2	313.280	-0.050	-0.420	-0.290
2020/01/31 08:32:27.3	313.290	-0.030	-0.420	-0.270
2020/01/31 08:32:27.4	313.310	-0.020	-0.430	-0.250
2020/01/31 08:32:27.5	313.320	-0.010	-0.430	-0.230
2020/01/31 08:32:27.6	313.320	0.010	-0.440	-0.210
2020/01/31 08:32:27.7	313.330	0.020	-0.440	-0.180
2020/01/31 08:32:27.8	313.330	0.030	-0.440	-0.160
2020/01/31 08:32:27.9	313.330	0.040	-0.440	-0.130
2020/01/31 08:32:28.0	313.340	0.060	-0.440	-0.110
2020/01/31 08:32:28.1	313.340	0.070	-0.440	-0.080
2020/01/31 08:32:28.2	313.350	0.070	-0.440	-0.060
2020/01/31 08:32:28.3	313.350	0.080	-0.430	-0.030
2020/01/31 08:32:28.4	313.360	0.090	-0.420	-0.010
2020/01/31 08:32:28.5	313.360	0.100	-0.410	0.020
2020/01/31 08:32:28.6	313.360	0.100	-0.410	0.050
2020/01/31 08:32:28.7	313.360	0.100	-0.400	0.080
2020/01/31 08:32:28.8	313.360	0.110	-0.380	0.110
2020/01/31 08:32:28.9	313.350	0.110	-0.370	0.140
2020/01/31 08:32:29.0	313.350	0.110	-0.360	0.180
2020/01/31 08:32:29.1	313.340	0.110	-0.340	0.210
2020/01/31 08:32:29.2	313.330	0.110	-0.320	0.250
2020/01/31 08:32:29.3	313.320	0.110	-0.310	0.280
2020/01/31 08:32:29.4	313.320	0.110	-0.290	0.320
2020/01/31 08:32:29.5	313.300	0.110	-0.270	0.360
2020/01/31 08:32:29.6	313.290	0.110	-0.250	0.400
2020/01/31 08:32:29.7	313.280	0.100	-0.230	0.440
2020/01/31 08:32:29.8	313.270	0.100	-0.200	0.480
2020/01/31 08:32:29.9	313.250	0.100	-0.180	0.510
2020/01/31 08:32:30.0	313.240	0.090	-0.160	0.550
2020/01/31 08:32:30.1	313.230	0.090	-0.140	0.590
2020/01/31 08:32:30.2	313.210	0.080	-0.120	0.620
2020/01/31 08:32:30.3	313.200	0.080	-0.100	0.660
2020/01/31 08:32:30.4	313.190	0.070	-0.080	0.690
2020/01/31 08:32:30.5	313.180	0.070	-0.070	0.720
2020/01/31 08:32:30.6	313.170	0.070	-0.060	0.750
2020/01/31 08:32:30.7	313.160	0.060	-0.040	0.770
2020/01/31 08:32:30.8	313.150	0.060	-0.040	0.800
2020/01/31 08:32:30.9	313.140	0.050	-0.030	0.820
2020/01/31 08:32:31.0	313.140	0.050	-0.020	0.840
2020/01/31 08:32:31.1	313.130	0.050	-0.020	0.860
2020/01/31 08:32:31.2	313.130	0.040	-0.020	0.880
2020/01/31 08:32:31.3	313.130	0.040	-0.020	0.890
2020/01/31 08:32:31.4	313.110	0.040	-0.030	0.890
2020/01/31 08:32:31.5	313.110	0.040	-0.030	0.900
2020/01/31 08:32:31.6	313.100	0.040	-0.040	0.910
2020/01/31 08:32:31.7	313.100	0.040	-0.050	0.910
2020/01/31 08:32:31.8	313.100	0.040	-0.060	0.920
2020/01/31 08:32:31.9	313.100	0.040	-0.070	0.920
2020/01/31 08:32:32.0	313.100	0.040	-0.090	0.910
2020/01/31 08:32:32.1	313.090	0.040	-0.100	0.910
2020/01/31 08:32:32.2	313.090	0.040	-0.120	0.900
2020/01/31 08:32:32.3	313.090	0.040	-0.130	0.890
2020/01/31 08:32:32.4	313.090	0.040	-0.150	0.880
2020/01/31 08:32:32.5	313.090	0.050	-0.170	0.870
2020/01/31 08:32:32.6	313.090	0.050	-0.190	0.850
2020/01/31 08:32:32.7	313.090	0.050	-0.200	0.830
2020/01/31 08:32:32.8	313.090	0.050	-0.220	0.810
2020/01/31 08:32:32.9	313.090	0.050	-0.240	0.790
2020/01/31 08:32:33.0	313.090	0.060	-0.250	0.760
2020/01/31 08:32:33.1	313.090	0.060	-0.270	0.730
2020/01/31 08:32:33.2	313.090	0.060	-0.290	0.700
2020/01/31 08:32:33.3	313.090	0.060	-0.300	0.670
2020/01/31 08:32:33.4	313.090	0.060	-0.310	0.640
2020/01/31 08:32:33.5	313.090	0.060	-0.320	0.600
2020/01/31 08:32:33.6	313.090	0.060	-0.340	0.560
2020/01/31 08:32:33.7	313.090	0.060	-0.350	0.520
2020/01/31 08:32:33.8	313.090	0.060	-0.360	0.480
2020/01/31 08:32:33.9	313.090	0.060	-0.370	0.440
2020/01/31 08:32:34.0	313.090	0.050	-0.380	0.390
2020/01/31 08:32:34.1	313.090	0.050	-0.380	0.350
2020/01/31 08:32:34.2	313.090	0.040	-0.390	0.300
2020/01/31 08:32:34.3	313.090	0.040	-0.390	0.250
2020/01/31 08:32:34.4	313.110	0.030	-0.390	0.210
2020/01/31 08:32:34.5	313.110	0.020	-0.390	0.160
2020/01/31 08:32:34.6	313.110	0.010	-0.390	0.110
2020/01/31 08:32:34.7	313.110	0.000	-0.390	0.060
2020/01/31 08:32:34.8	313.120	-0.010	-0.380	0.020
2020/01/31 08:32:34.9	313.120	-0.020	-0.370	-0.030
2020/01/31 08:32:35.0	313.120	-0.040	-0.360	-0.070
2020/01/31 08:32:35.1	313.120	-0.050	-0.350	-0.110
2020/01/31 08:32:35.2	313.120	-0.070	-0.330	-0.150
2020/01/31 08:32:35.3	313.130	-0.080	-0.320	-0.190
2020/01/31 08:32:35.4	313.120	-0.100	-0.300	-0.230
2020/01/31 08:32:35.5	313.120	-0.120	-0.280	-0.260
2020/01/31 08:32:35.6	313.120	-0.130	-0.250	-0.290
2020/01/31 08:32:35.7	313.120	-0.150	-0.230	-0.320
2020/01/31 08:32:35.8	313.120	-0.170	-0.200	-0.340
2020/01/31 08:32:35.9	313.120	-0.180	-0.170	-0.360
2020/01/31 08:32:36.0	313.110	-0.200	-0.140	-0.380
2020/01/31 08:32:36.1	313.110	-0.210	-0.110	-0.390
2020/01/31 08:32:36.2	313.110	-0.230	-0.080	-0.400
2020/01/31 08:32:36.3	313.110	-0.240	-0.050	-0.400
2020/01/31 08:32:36.4	313.110	-0.250	-0.030	-0.400
2020/01/31 08:32:36.5	313.110	-0.260	0.010	-0.400
2020/01/31 08:32:36.6	313.100	-0.270	0.030	-0.400
2020/01/31 08:32:36.7	313.100	-0.280	0.060	-0.390
2020/01/31 08:32:36.8	313.090	-0.290	0.090	-0.370
2020/01/31 08:32:36.9	313.080	-0.300	0.110	-0.360
2020/01/31 08:32:37.0	313.070	-0.300	0.140	-0.340
2020/01/31 08:32:37.1	313.070	-0.310	0.160	-0.310
2020/01/31 08:32:37.2	313.060	-0.310	0.180	-0.290
2020/01/31 08:32:37.3	313.050	-0.310	0.190	-0.260
2020/01/31 08:32:37.4	313.050	-0.310	0.200	-0.230
2020/01/31 08:32:37.5	313.040	-0.310	0.210	-0.200
2020/01/31 08:32:37.6	313.020	-0.310	0.220	-0.170
2020/01/31 08:32:37.7	313.010	-0.300	0.220	-0.140
2020/01/31 08:32:37.8	313.000	-0.300	0.220	-0.100
2020/01/31 08:32:37.9	312.990	-0.290	0.220	-0.070
2020/01/31 08:32:38.0	312.980	-0.280	0.210	-0.040
2020/01/31 08:32:38.1	312.970	-0.280	0.190	-0.000
2020/01/31 08:32:38.2	312.960	-0.270	0.180	0.030
2020/01/31 08:32:38.3	312.960	-0.260	0.160	0.060
2020/01/31 08:32:38.4	312.960	-0.250	0.130	0.090
2020/01/31 08:32:38.5	312.950	-0.230	0.100	0.120
2020/01/31 08:32:38.6	312.940	-0.220	0.070	0.150
2020/01/31 08:32:38.7	312.940	-0.210	0.040	0.180
2020/01/31 08:32:38.8	312.930	-0.200	0.000	0.210
2020/01/31 08:32:38.9	312.930	-0.180	-0.040	0.230
2020/01/31 08:32:39.0	312.930	-0.170	-0.080	0.260
2020/01/31 08:32:39.1	312.930	-0.150	-0.120	0.280
2020/01/31 08:32:39.2	312.920	-0.140	-0.170	0.300
2020/01/31 08:32:39.3	312.920	-0.120	-0.210	0.320
2020/01/31 08:32:39.4	312.930	-0.100	-0.250	0.340
2020/01/31 08:32:39.5	312.930	-0.090	-0.300	0.360
2020/01/31 08:32:39.6	312.930	-0.070	-0.350	0.380
2020/01/31 08:32:39.7	312.930	-0.050	-0.390	0.390
2020/01/31 08:32:39.8	312.930	-0.040	-0.430	0.410
2020/01/31 08:32:39.9	312.930	-0.020	-0.470	0.420
2020/01/31 08:32:40.0	312.930	-0.000	-0.510	0.430
2020/01/31 08:32:40.1	312.940	0.010	-0.550	0.440
2020/01/31 08:32:40.2	312.940	0.030	-0.590	0.450
2020/01/31 08:32:40.3	312.950	0.050	-0.620	0.450
2020/01/31 08:32:40.4	312.940	0.060	-0.650	0.460
2020/01/31 08:32:40.5	312.940	0.080	-0.680	0.460
2020/01/31 08:32:40.6	312.950	0.100	-0.700	0.470
2020/01/31 08:32:40.7	312.960	0.110	-0.720	0.470
2020/01/31 08:32:40.8	312.970	0.130	-0.740	0.470
2020/01/31 08:32:40.9	312.990	0.150	-0.750	0.470
2020/01/31 08:32:41.0	313.000	0.160	-0.760	0.470
2020/01/31 08:32:41.1	313.020	0.180	-0.770	0.460
2020/01/31 08:32:41.2	313.030	0.190	-0.770	0.460
2020/01/31 08:32:41.3	313.050	0.210	-0.770	0.460
2020/01/31 08:32:41.4	313.080	0.220	-0.770	0.450
2020/01/31 08:32:41.5	313.100	0.240	-0.760	0.440
2020/01/31 08:32:41.6	313.110	0.250	-0.760	0.440
2020/01/31 08:32:41.7	313.130	0.260	-0.750	0.440
2020/01/31 08:32:41.8	313.150	0.280	-0.730	0.430
2020/01/31 08:32:41.9	313.170	0.290	-0.720	0.430
2020/01/31 08:32:42.0	313.190	0.300	-0.700	0.430
2020/01/31 08:32:42.1	313.200	0.320	-0.680	0.430
2020/01/31 08:32:42.2	313.220	0.330	-0.660	0.430
2020/01/31 08:32:42.3	313.230	0.340	-0.640	0.430
2020/01/31 08:32:42.4	313.240	0.350	-0.620	0.440
2020/01/31 08:32:42.5	313.250	0.360	-0.590	0.440
2020/01/31 08:32:42.6	313.270	0.370	-0.570	0.450
2020/01/31 08:32:42.7	313.270	0.370	-0.540	0.450
2020/01/31 08:32:42.8	313.280	0.380	-0.510	0.460
2020/01/31 08:32:42.9	313.290	0.390	-0.490	0.460
2020/01/31 08:32:43.0	313.290	0.390	-0.460	0.470
2020/01/31 08:32:43.1	313.300	0.400	-0.430	0.480
2020/01/31 08:32:43.2	313.300	0.400	-0.410	0.480
2020/01/31 08:32:43.3	313.300	0.410	-0.380	0.490
2020/01/31 08:32:43.4	313.300	0.410	-0.350	0.500
2020/01/31 08:32:43.5	313.300	0.410	-0.330	0.510
2020/01/31 08:32:43.6	313.300	0.410	-0.310	0.510
2020/01/31 08:32:43.7	313.290	0.410	-0.280	0.520
2020/01/31 08:32:43.8	313.280	0.410	-0.260	0.540
2020/01/31 08:32:43.9	313.270	0.410	-0.240	0.550
2020/01/31 08:32:44.0	313.260	0.410	-0.220	0.560
2020/01/31 08:32:44.1	313.250	0.400	-0.200	0.570
2020/01/31 08:32:44.2	313.240	0.400	-0.180	0.590
2020/01/31 08:32:44.3	313.220	0.390	-0.160	0.600
2020/01/31 08:32:44.4	313.200	0.390	-0.150	0.610
2020/01/31 08:32:44.5	313.190	0.380	-0.140	0.630
2020/01/31 08:32:44.6	313.170	0.370	-0.120	0.640
2020/01/31 08:32:44.7	313.160	0.360	-0.110	0.660
2020/01/31 08:32:44.8	313.140	0.340	-0.100	0.670
2020/01/31 08:32:44.9	313.120	0.330	-0.090	0.680
2020/01/31 08:32:45.0	313.110	0.320	-0.080	0.690
2020/01/31 08:32:45.1	313.090	0.300	-0.070	0.690
2020/01/31 08:32:45.2	313.080	0.280	-0.070	0.700
2020/01/31 08:32:45.3	313.060	0.260	-0.060	0.700
2020/01/31 08:32:45.4	313.050	0.240	-0.050	0.700
2020/01/31 08:32:45.5	313.030	0.220	-0.050	0.690
2020/01/31 08:32:45.6	313.020	0.200	-0.050	0.690
2020/01/31 08:32:45.7	313.010	0.170	-0.050	0.680
2020/01/31 08:32:45.8	312.990	0.150	-0.050	0.660
2020/01/31 08:32:45.9	312.980	0.120	-0.060	0.650
2020/01/31 08:32:46.0	312.970	0.090	-0.060	0.630
2020/01/31 08:32:46.1	312.960	0.060	-0.060	0.600
2020/01/31 08:32:46.2	312.950	0.030	-0.070	0.580
2020/01/31 08:32:46.3	312.930	0.000	-0.070	0.550
2020/01/31 08:32:46.4	312.920	-0.030	-0.080	0.520
2020/01/31 08:32:46.5	312.910	-0.060	-0.080	0.480
2020/01/31 08:32:46.6	312.900	-0.100	-0.090	0.450
2020/01/31 08:32:46.7	312.890	-0.130	-0.100	0.410
2020/01/31 08:32:46.8	312.880	-0.170	-0.100	0.370
2020/01/31 08:32:46.9	312.870	-0.200	-0.110	0.330
2020/01/31 08:32:47.0	312.850	-0.240	-0.110	0.290
2020/01/31 08:32:47.1	312.840	-0.280	-0.120	0.240
2020/01/31 08:32:47.2	312.830	-0.310	-0.120	0.200
2020/01/31 08:32:47.3	312.820	-0.350	-0.130	0.160
2020/01/31 08:32:47.4	312.810	-0.380	-0.130	0.110
2020/01/31 08:32:47.5	312.810	-0.420	-0.140	0.060
2020/01/31 08:32:47.6	312.800	-0.460	-0.140	0.010
2020/01/31 08:32:47.7	312.800	-0.490	-0.150	-0.030
2020/01/31 08:32:47.8	312.790	-0.520	-0.150	-0.080
2020/01/31 08:32:47.9	312.790	-0.550	-0.160	-0.140
2020/01/31 08:32:48.0	312.790	-0.590	-0.160	-0.190
2020/01/31 08:32:48.1	312.790	-0.620	-0.170	-0.240
2020/01/31 08:32:48.2	312.790	-0.640	-0.180	-0.290
2020/01/31 08:32:48.3	312.790	-0.670	-0.180	-0.340
2020/01/31 08:32:48.4	312.800	-0.690	-0.190	-0.390
2020/01/31 08:32:48.5	312.800	-0.720	-0.190	-0.440
2020/01/31 08:32:48.6	312.800	-0.740	-0.200	-0.490
2020/01/31 08:32:48.7	312.810	-0.750	-0.200	-0.530
2020/01/31 08:32:48.8	312.810	-0.770	-0.200	-0.570
2020/01/31 08:32:48.9	312.820	-0.780	-0.200	-0.610
2020/01/31 08:32:49.0	312.820	-0.790	-0.200	-0.640
2020/01/31 08:32:49.1	312.830	-0.800	-0.200	-0.670
2020/01/31 08:32:49.2	312.830	-0.810	-0.200	-0.700
2020/01/31 08:32:49.3	312.840	-0.810	-0.200	-0.720
2020/01/31 08:32:49.4	312.850	-0.810	-0.200	-0.730
2020/01/31 08:32:49.5	312.850	-0.810	-0.190	-0.740
2020/01/31 08:32:49.6	312.870	-0.800	-0.180	-0.750
2020/01/31 08:32:49.7	312.880	-0.790	-0.170	-0.760
2020/01/31 08:32:49.8	312.890	-0.780	-0.160	-0.760
2020/01/31 08:32:49.9	312.900	-0.770	-0.150	-0.750
2020/01/31 08:32:50.0	312.920	-0.750	-0.140	-0.750
2020/01/31 08:32:50.1	312.930	-0.740	-0.130	-0.730
2020/01/31 08:32:50.2	312.940	-0.720	-0.110	-0.710
2020/01/31 08:32:50.3	312.960	-0.690	-0.100	-0.690
2020/01/31 08:32:50.4	313.000	-0.670	-0.080	-0.670
2020/01/31 08:32:50.5	313.010	-0.640	-0.060	-0.640
2020/01/31 08:32:50.6	313.020	-0.620	-0.040	-0.600
2020/01/31 08:32:50.7	313.040	-0.590	-0.020	-0.560
2020/01/31 08:32:50.8	313.050	-0.560	-0.000	-0.520
2020/01/31 08:32:50.9	313.060	-0.520	0.020	-0.470
2020/01/31 08:32:51.0	313.070	-0.490	0.040	-0.420
2020/01/31 08:32:51.1	313.070	-0.450	0.060	-0.360
2020/01/31 08:32:51.2	313.080	-0.420	0.080	-0.300
2020/01/31 08:32:51.3	313.080	-0.380	0.100	-0.240
2020/01/31 08:32:51.4	313.100	-0.340	0.120	-0.180
2020/01/31 08:32:51.5	313.100	-0.300	0.140	-0.110
2020/01/31 08:32:51.6	313.100	-0.270	0.160	-0.040
2020/01/31 08:32:51.7	313.100	-0.230	0.170	0.030
2020/01/31 08:32:51.8	313.100	-0.190	0.190	0.100
2020/01/31 08:32:51.9	313.090	-0.150	0.200	0.170
2020/01/31 08:32:52.0	313.090	-0.110	0.200	0.250
2020/01/31 08:32:52.1	313.080	-0.070	0.210	0.320
2020/01/31 08:32:52.2	313.070	-0.030	0.210	0.390
2020/01/31 08:32:52.3	313.060	0.010	0.210	0.460
2020/01/31 08:32:52.4	313.050	0.040	0.200	0.530
2020/01/31 08:32:52.5	313.040	0.080	0.190	0.590
2020/01/31 08:32:52.6	313.030	0.120	0.180	0.660
2020/01/31 08:32:52.7	313.020	0.150	0.160	0.710
2020/01/31 08:32:52.8	313.010	0.180	0.140	0.770
2020/01/31 08:32:52.9	313.000	0.220	0.120	0.820
2020/01/31 08:32:53.0	312.990	0.250	0.100	0.870
2020/01/31 08:32:53.1	312.980	0.280	0.070	0.920
2020/01/31 08:32:53.2	312.960	0.310	0.040	0.960
2020/01/31 08:32:53.3	312.950	0.340	0.000	0.990
2020/01/31 08:32:53.4	312.920	0.370	-0.030	1.020
2020/01/31 08:32:53.5	312.910	0.400	-0.070	1.060
2020/01/31 08:32:53.6	312.900	0.420	-0.110	1.090
2020/01/31 08:32:53.7	312.880	0.450	-0.150	1.110
2020/01/31 08:32:53.8	312.870	0.470	-0.190	1.140
2020/01/31 08:32:53.9	312.850	0.500	-0.230	1.160
2020/01/31 08:32:54.0	312.830	0.520	-0.270	1.190
2020/01/31 08:32:54.1	312.810	0.540	-0.310	1.210
2020/01/31 08:32:54.2	312.790	0.560	-0.350	1.230
2020/01/31 08:32:54.3	312.770	0.580	-0.390	1.240
2020/01/31 08:32:54.4	312.760	0.600	-0.420	1.250
2020/01/31 08:32:54.5	312.740	0.620	-0.460	1.270
2020/01/31 08:32:54.6	312.720	0.640	-0.490	1.270
2020/01/31 08:32:54.7	312.700	0.650	-0.530	1.280
2020/01/31 08:32:54.8	312.680	0.670	-0.560	1.280
2020/01/31 08:32:54.9	312.660	0.680	-0.590	1.280
2020/01/31 08:32:55.0	312.640	0.700	-0.620	1.270
2020/01/31 08:32:55.1	312.620	0.710	-0.640	1.260
2020/01/31 08:32:55.2	312.610	0.720	-0.670	1.240
2020/01/31 08:32:55.3	312.590	0.730	-0.700	1.230
2020/01/31 08:32:55.4	312.570	0.730	-0.720	1.200
2020/01/31 08:32:55.5	312.560	0.740	-0.740	1.180
2020/01/31 08:32:55.6	312.550	0.740	-0.760	1.150
2020/01/31 08:32:55.7	312.540	0.750	-0.780	1.110
2020/01/31 08:32:55.8	312.530	0.750	-0.800	1.080
2020/01/31 08:32:55.9	312.520	0.750	-0.820	1.040
2020/01/31 08:32:56.0	312.520	0.750	-0.830	0.990
2020/01/31 08:32:56.1	312.510	0.740	-0.850	0.950
2020/01/31 08:32:56.2	312.510	0.740	-0.870	0.900
2020/01/31 08:32:56.3	312.510	0.730	-0.880	0.850
2020/01/31 08:32:56.4	312.500	0.720	-0.890	0.800
2020/01/31 08:32:56.5	312.500	0.710	-0.900	0.740
2020/01/31 08:32:56.6	312.510	0.690	-0.910	0.690
2020/01/31 08:32:56.7	312.510	0.680	-0.920	0.630
2020/01/31 08:32:56.8	312.510	0.660	-0.920	0.570
2020/01/31 08:32:56.9	312.520	0.640	-0.930	0.520
2020/01/31 08:32:57.0	312.530	0.620	-0.930	0.460
2020/01/31 08:32:57.1	312.530	0.600	-0.930	0.400
2020/01/31 08:32:57.2	312.540	0.580	-0.930	0.350
2020/01/31 08:32:57.3	312.550	0.550	-0.920	0.290
2020/01/31 08:32:57.4	312.560	0.520	-0.920	0.230
2020/01/31 08:32:57.5	312.570	0.490	-0.910	0.180
2020/01/31 08:32:57.6	312.580	0.470	-0.900	0.120
2020/01/31 08:32:57.7	312.600	0.430	-0.890	0.070
2020/01/31 08:32:57.8	312.610	0.400	-0.870	0.020
2020/01/31 08:32:57.9	312.630	0.370	-0.860	-0.040
2020/01/31 08:32:58.0	312.640	0.340	-0.840	-0.090
2020/01/31 08:32:58.1	312.660	0.300	-0.820	-0.140
2020/01/31 08:32:58.2	312.680	0.270	-0.800	-0.190
2020/01/31 08:32:58.3	312.700	0.230	-0.770	-0.240
2020/01/31 08:32:58.4	312.700	0.200	-0.750	-0.280
2020/01/31 08:32:58.5	312.720	0.160	-0.720	-0.330
2020/01/31 08:32:58.6	312.750	0.130	-0.690	-0.370
2020/01/31 08:32:58.7	312.770	0.100	-0.660	-0.410
2020/01/31 08:32:58.8	312.790	0.060	-0.630	-0.450
2020/01/31 08:32:58.9	312.820	0.030	-0.600	-0.480
2020/01/31 08:32:59.0	312.840	-0.010	-0.560	-0.510
2020/01/31 08:32:59.1	312.870	-0.040	-0.520	-0.540
2020/01/31 08:32:59.2	312.890	-0.070	-0.490	-0.560
2020/01/31 08:32:59.3	312.910	-0.100	-0.450	-0.580
2020/01/31 08:32:59.4	312.930	-0.130	-0.410	-0.600
2020/01/31 08:32:59.5	312.950	-0.170	-0.360	-0.610
2020/01/31 08:32:59.6	312.970	-0.200	-0.320	-0.620
2020/01/31 08:32:59.7	312.990	-0.230	-0.280	-0.620
2020/01/31 08:32:59.8	313.010	-0.260	-0.230	-0.620
2020/01/31 08:32:59.9	313.030	-0.280	-0.180	-0.620
2020/01/31 08:33:00.0	313.040	-0.310	-0.140	-0.610
2020/01/31 08:33:00.1	313.060	-0.340	-0.090	-0.600
2020/01/31 08:33:00.2	313.070	-0.370	-0.050	-0.590
2020/01/31 08:33:00.3	313.080	-0.400	-0.000	-0.580
2020/01/31 08:33:00.4	313.100	-0.420	0.040	-0.560
2020/01/31 08:33:00.5	313.110	-0.450	0.080	-0.540
2020/01/31 08:33:00.6	313.120	-0.480	0.120	-0.520
2020/01/31 08:33:00.7	313.120	-0.500	0.160	-0.490
2020/01/31 08:33:00.8	313.130	-0.520	0.200	-0.470
2020/01/31 08:33:00.9	313.130	-0.550	0.230	-0.450
2020/01/31 08:33:01.0	313.130	-0.570	0.260	-0.420
2020/01/31 08:33:01.1	313.130	-0.590	0.290	-0.390
2020/01/31 08:33:01.2	313.130	-0.620	0.320	-0.360
2020/01/31 08:33:01.3	313.130	-0.640	0.350	-0.330
2020/01/31 08:33:01.4	313.130	-0.660	0.370	-0.300
2020/01/31 08:33:01.5	313.130	-0.680	0.390	-0.260
2020/01/31 08:33:01.6	313.120	-0.690	0.400	-0.230
2020/01/31 08:33:01.7	313.120	-0.710	0.420	-0.200
2020/01/31 08:33:01.8	313.110	-0.730	0.430	-0.170
2020/01/31 08:33:01.9	313.100	-0.740	0.440	-0.140
2020/01/31 08:33:02.0	313.100	-0.750	0.450	-0.110
2020/01/31 08:33:02.1	313.090	-0.770	0.460	-0.090
2020/01/31 08:33:02.2	313.080	-0.780	0.470	-0.060
2020/01/31 08:33:02.3	313.070	-0.780	0.470	-0.030
2020/01/31 08:33:02.4	313.060	-0.790	0.480	-0.010
2020/01/31 08:33:02.5	313.040	-0.800	0.490	0.010
2020/01/31 08:33:02.6	313.030	-0.800	0.490	0.030
2020/01/31 08:33:02.7	313.020	-0.800	0.490	0.060
2020/01/31 08:33:02.8	313.010	-0.800	0.500	0.080
2020/01/31 08:33:02.9	312.990	-0.800	0.500	0.100
2020/01/31 08:33:03.0	312.970	-0.790	0.510	0.120
2020/01/31 08:33:03.1	312.960	-0.790	0.520	0.140
2020/01/31 08:33:03.2	312.940	-0.780	0.520	0.160
2020/01/31 08:33:03.3	312.910	-0.770	0.530	0.190
2020/01/31 08:33:03.4	312.890	-0.750	0.540	0.210
2020/01/31 08:33:03.5	312.860	-0.740	0.550	0.230
2020/01/31 08:33:03.6	312.840	-0.720	0.560	0.260
2020/01/31 08:33:03.7	312.810	-0.700	0.560	0.280
2020/01/31 08:33:03.8	312.790	-0.680	0.570	0.310
2020/01/31 08:33:03.9	312.760	-0.660	0.570	0.330
2020/01/31 08:33:04.0	312.730	-0.630	0.570	0.360
2020/01/31 08:33:04.1	312.700	-0.600	0.570	0.380
2020/01/31 08:33:04.2	312.670	-0.570	0.570	0.410
2020/01/31 08:33:04.3	312.640	-0.540	0.570	0.430
2020/01/31 08:33:04.4	312.610	-0.500	0.560	0.460
2020/01/31 08:33:04.5	312.580	-0.470	0.540	0.490
2020/01/31 08:33:04.6	312.550	-0.430	0.530	0.510
2020/01/31 08:33:04.7	312.520	-0.390	0.500	0.540
2020/01/31 08:33:04.8	312.490	-0.340	0.480	0.560
2020/01/31 08:33:04.9	312.460	-0.300	0.450	0.580
2020/01/31 08:33:05.0	312.430	-0.260	0.420	0.610
2020/01/31 08:33:05.1	312.400	-0.210	0.380	0.630
2020/01/31 08:33:05.2	312.380	-0.160	0.340	0.650
2020/01/31 08:33:05.3	312.350	-0.110	0.290	0.670
2020/01/31 08:33:05.4	312.320	-0.070	0.240	0.690
2020/01/31 08:33:05.5	312.300	-0.020	0.180	0.710
2020/01/31 08:33:05.6	312.270	0.030	0.130	0.730
2020/01/31 08:33:05.7	312.250	0.080	0.060	0.740
2020/01/31 08:33:05.8	312.230	0.130	0.000	0.760
2020/01/31 08:33:05.9	312.210	0.180	-0.070	0.770
2020/01/31 08:33:06.0	312.190	0.220	-0.140	0.780
2020/01/31 08:33:06.1	312.170	0.270	-0.210	0.790
2020/01/31 08:33:06.2	312.150	0.310	-0.280	0.790
2020/01/31 08:33:06.3	312.140	0.360	-0.360	0.790
2020/01/31 08:33:06.4	312.130	0.400	-0.430	0.790
2020/01/31 08:33:06.5	312.120	0.440	-0.510	0.790
2020/01/31 08:33:06.6	312.110	0.480	-0.580	0.780
2020/01/31 08:33:06.7	312.100	0.510	-0.660	0.770
2020/01/31 08:33:06.8	312.090	0.540	-0.730	0.750
2020/01/31 08:33:06.9	312.090	0.580	-0.810	0.740
2020/01/31 08:33:07.0	312.080	0.600	-0.880	0.720
2020/01/31 08:33:07.1	312.080	0.630	-0.950	0.700
2020/01/31 08:33:07.2	312.080	0.660	-1.010	0.670
2020/01/31 08:33:07.3	312.080	0.680	-1.070	0.650
2020/01/31 08:33:07.4	312.090	0.700	-1.130	0.620
2020/01/31 08:33:07.5	312.090	0.710	-1.180	0.590
2020/01/31 08:33:07.6	312.100	0.730	-1.230	0.560
2020/01/31 08:33:07.7	312.100	0.740	-1.270	0.540
2020/01/31 08:33:07.8	312.110	0.750	-1.300	0.510
2020/01/31 08:33:07.9	312.130	0.760	-1.340	0.480
2020/01/31 08:33:08.0	312.140	0.760	-1.360	0.450
2020/01/31 08:33:08.1	312.160	0.760	-1.380	0.420
2020/01/31 08:33:08.2	312.170	0.760	-1.400	0.380
2020/01/31 08:33:08.3	312.190	0.760	-1.400	0.350
2020/01/31 08:33:08.4	312.230	0.750	-1.410	0.330
2020/01/31 08:33:08.5	312.250	0.750	-1.410	0.300
2020/01/31 08:33:08.6	312.270	0.740	-1.400	0.270
2020/01/31 08:33:08.7	312.300	0.730	-1.390	0.240
2020/01/31 08:33:08.8	312.320	0.710	-1.380	0.210
2020/01/31 08:33:08.9	312.350	0.700	-1.360	0.180
2020/01/31 08:33:09.0	312.380	0.680	-1.330	0.160
2020/01/31 08:33:09.1	312.410	0.660	-1.310	0.130
2020/01/31 08:33:09.2	312.440	0.640	-1.270	0.100
2020/01/31 08:33:09.3	312.470	0.610	-1.240	0.080
2020/01/31 08:33:09.4	312.510	0.590	-1.200	0.050
2020/01/31 08:33:09.5	312.540	0.560	-1.160	0.030
2020/01/31 08:33:09.6	312.570	0.540	-1.120	0.010
2020/01/31 08:33:09.7	312.610	0.510	-1.080	-0.010
2020/01/31 08:33:09.8	312.640	0.480	-1.030	-0.030
2020/01/31 08:33:09.9	312.670	0.450	-0.980	-0.050
2020/01/31 08:33:10.0	312.700	0.410	-0.930	-0.070
2020/01/31 08:33:10.1	312.720	0.380	-0.870	-0.090
2020/01/31 08:33:10.2	312.750	0.350	-0.820	-0.100
2020/01/31 08:33:10.3	312.780	0.310	-0.760	-0.110
2020/01/31 08:33:10.4	312.790	0.280	-0.700	-0.120
2020/01/31 08:33:10.5	312.820	0.240	-0.650	-0.130
2020/01/31 08:33:10.6	312.840	0.200	-0.590	-0.130
2020/01/31 08:33:10.7	312.860	0.170	-0.530	-0.140
2020/01/31 08:33:10.8	312.870	0.130	-0.470	-0.140
2020/01/31 08:33:10.9	312.890	0.090	-0.410	-0.130
2020/01/31 08:33:11.0	312.900	0.050	-0.350	-0.130
2020/01/31 08:33:11.1	312.910	0.020	-0.290	-0.120
2020/01/31 08:33:11.2	312.920	-0.020	-0.230	-0.110
2020/01/31 08:33:11.3	312.930	-0.050	-0.180	-0.100
2020/01/31 08:33:11.4	312.930	-0.090	-0.120	-0.090
2020/01/31 08:33:11.5	312.940	-0.120	-0.070	-0.080
2020/01/31 08:33:11.6	312.940	-0.160	-0.020	-0.060
2020/01/31 08:33:11.7	312.940	-0.190	0.030	-0.050
2020/01/31 08:33:11.8	312.940	-0.220	0.080	-0.030
2020/01/31 08:33:11.9	312.940	-0.250	0.120	-0.010
2020/01/31 08:33:12.0	312.940	-0.270	0.160	0.010
2020/01/31 08:33:12.1	312.940	-0.300	0.200	0.020
2020/01/31 08:33:12.2	312.940	-0.320	0.240	0.040
2020/01/31 08:33:12.3	312.940	-0.340	0.270	0.060
2020/01/31 08:33:12.4	312.930	-0.360	0.300	0.070
2020/01/31 08:33:12.5	312.930	-0.380	0.320	0.080
2020/01/31 08:33:12.6	312.930	-0.390	0.340	0.100
2020/01/31 08:33:12.7	312.930	-0.410	0.360	0.110
2020/01/31 08:33:12.8	312.920	-0.420	0.380	0.120
2020/01/31 08:33:12.9	312.920	-0.420	0.390	0.130
2020/01/31 08:33:13.0	312.920	-0.430	0.400	0.150
2020/01/31 08:33:13.1	312.920	-0.430	0.410	0.160
2020/01/31 08:33:13.2	312.910	-0.440	0.420	0.170
2020/01/31 08:33:13.3	312.900	-0.440	0.420	0.190
2020/01/31 08:33:13.4	312.910	-0.430	0.430	0.200
2020/01/31 08:33:13.5	312.900	-0.430	0.430	0.210
2020/01/31 08:33:13.6	312.890	-0.430	0.420	0.230
2020/01/31 08:33:13.7	312.880	-0.420	0.420	0.250
2020/01/31 08:33:13.8	312.870	-0.410	0.410	0.270
2020/01/31 08:33:13.9	312.850	-0.400	0.410	0.290
2020/01/31 08:33:14.0	312.840	-0.390	0.400	0.310
2020/01/31 08:33:14.1	312.820	-0.380	0.390	0.330
2020/01/31 08:33:14.2	312.800	-0.370	0.380	0.350
2020/01/31 08:33:14.3	312.780	-0.350	0.370	0.370
2020/01/31 08:33:14.4	312.740	-0.340	0.350	0.390
2020/01/31 08:33:14.5	312.720	-0.320	0.340	0.420
2020/01/31 08:33:14.6	312.700	-0.310	0.320	0.440
2020/01/31 08:33:14.7	312.680	-0.290	0.310	0.460
2020/01/31 08:33:14.8	312.650	-0.270	0.290	0.490
2020/01/31 08:33:14.9	312.630	-0.260	0.280	0.510
2020/01/31 08:33:15.0	312.600	-0.240	0.270	0.530
2020/01/31 08:33:15.1	312.580	-0.230	0.250	0.560
2020/01/31 08:33:15.2	312.550	-0.210	0.240	0.580
2020/01/31 08:33:15.3	312.530	-0.190	0.220	0.600
2020/01/31 08:33:15.4	312.480	-0.180	0.220	0.620
2020/01/31 08:33:15.5	312.460	-0.160	0.200	0.640
2020/01/31 08:33:15.6	312.430	-0.150	0.190	0.660
2020/01/31 08:33:15.7	312.400	-0.130	0.180	0.680
2020/01/31 08:33:15.8	312.370	-0.120	0.170	0.700
2020/01/31 08:33:15.9	312.350	-0.100	0.160	0.710
2020/01/31 08:33:16.0	312.320	-0.090	0.150	0.730
2020/01/31 08:33:16.1	312.290	-0.080	0.130	0.740
2020/01/31 08:33:16.2	312.270	-0.060	0.120	0.750
2020/01/31 08:33:16.3	312.240	-0.050	0.110	0.760
2020/01/31 08:33:16.4	312.210	-0.040	0.090	0.760
2020/01/31 08:33:16.5	312.190	-0.030	0.080	0.770
2020/01/31 08:33:16.6	312.170	-0.020	0.070	0.770
2020/01/31 08:33:16.7	312.150	-0.010	0.050	0.760
2020/01/31 08:33:16.8	312.130	-0.000	0.030	0.750
2020/01/31 08:33:16.9	312.110	0.010	0.010	0.740
2020/01/31 08:33:17.0	312.100	0.010	-0.010	0.720
2020/01/31 08:33:17.1	312.090	0.020	-0.030	0.700
2020/01/31 08:33:17.2	312.070	0.030	-0.050	0.680
2020/01/31 08:33:17.3	312.060	0.030	-0.080	0.650
2020/01/31 08:33:17.4	312.070	0.040	-0.100	0.620
2020/01/31 08:33:17.5	312.060	0.040	-0.130	0.580
2020/01/31 08:33:17.6	312.060	0.040	-0.160	0.540
2020/01/31 08:33:17.7	312.050	0.050	-0.190	0.500
2020/01/31 08:33:17.8	312.050	0.050	-0.220	0.460
2020/01/31 08:33:17.9	312.050	0.050	-0.250	0.410
2020/01/31 08:33:18.0	312.050	0.050	-0.280	0.370
2020/01/31 08:33:18.1	312.060	0.050	-0.320	0.320
2020/01/31 08:33:18.2	312.060	0.050	-0.350	0.270
2020/01/31 08:33:18.3	312.060	0.050	-0.380	0.220
2020/01/31 08:33:18.4	312.080	0.040	-0.410	0.170
2020/01/31 08:33:18.5	312.090	0.040	-0.440	0.130
2020/01/31 08:33:18.6	312.090	0.040	-0.470	0.080
2020/01/31 08:33:18.7	312.100	0.040	-0.500	0.040
2020/01/31 08:33:18.8	312.100	0.030	-0.520	-0.000
2020/01/31 08:33:18.9	312.110	0.030	-0.550	-0.040
2020/01/31 08:33:19.0	312.120	0.020	-0.570	-0.080
2020/01/31 08:33:19.1	312.130	0.020	-0.590	-0.120
2020/01/31 08:33:19.2	312.130	0.020	-0.610	-0.150
2020/01/31 08:33:19.3	312.140	0.010	-0.630	-0.180
2020/01/31 08:33:19.4	312.160	0.010	-0.650	-0.210
2020/01/31 08:33:19.5	312.170	0.010	-0.660	-0.240
2020/01/31 08:33:19.6	312.190	0.000	-0.680	-0.260
2020/01/31 08:33:19.7	312.200	-0.000	-0.690	-0.290
2020/01/31 08:33:19.8	312.210	-0.000	-0.700	-0.300
2020/01/31 08:33:19.9	312.220	-0.010	-0.700	-0.320
2020/01/31 08:33:20.0	312.240	-0.010	-0.710	-0.340
2020/01/31 08:33:20.1	312.250	-0.010	-0.720	-0.350
2020/01/31 08:33:20.2	312.270	-0.010	-0.720	-0.360
2020/01/31 08:33:20.3	312.280	-0.010	-0.720	-0.360
2020/01/31 08:33:20.4	312.310	-0.010	-0.720	-0.360
2020/01/31 08:33:20.5	312.330	-0.000	-0.710	-0.360
2020/01/31 08:33:20.6	312.340	0.000	-0.710	-0.350
2020/01/31 08:33:20.7	312.360	0.000	-0.700	-0.340
2020/01/31 08:33:20.8	312.370	0.010	-0.690	-0.320
2020/01/31 08:33:20.9	312.380	0.020	-0.680	-0.300
2020/01/31 08:33:21.0	312.390	0.020	-0.670	-0.280
2020/01/31 08:33:21.1	312.400	0.030	-0.650	-0.260
2020/01/31 08:33:21.2	312.420	0.040	-0.640	-0.230
2020/01/31 08:33:21.3	312.430	0.050	-0.620	-0.200
2020/01/31 08:33:21.4	312.450	0.050	-0.600	-0.160
2020/01/31 08:33:21.5	312.460	0.060	-0.580	-0.120
2020/01/31 08:33:21.6	312.470	0.070	-0.560	-0.090
2020/01/31 08:33:21.7	312.480	0.080	-0.540	-0.050
2020/01/31 08:33:21.8	312.480	0.090	-0.520	-0.010
2020/01/31 08:33:21.9	312.490	0.100	-0.500	0.030
2020/01/31 08:33:22.0	312.500	0.110	-0.470	0.070
2020/01/31 08:33:22.1	312.510	0.120	-0.450	0.100
2020/01/31 08:33:22.2	312.520	0.130	-0.430	0.140
2020/01/31 08:33:22.3	312.530	0.140	-0.400	0.180
2020/01/31 08:33:22.4	312.550	0.150	-0.380	0.220
2020/01/31 08:33:22.5	312.560	0.160	-0.360	0.250
2020/01/31 08:33:22.6	312.570	0.170	-0.330	0.290
2020/01/31 08:33:22.7	312.580	0.180	-0.310	0.320
2020/01/31 08:33:22.8	312.590	0.180	-0.290	0.350
2020/01/31 08:33:22.9	312.610	0.190	-0.280	0.380
2020/01/31 08:33:23.0	312.620	0.190	-0.260	0.410
2020/01/31 08:33:23.1	312.630	0.200	-0.240	0.440
2020/01/31 08:33:23.2	312.640	0.200	-0.230	0.470
2020/01/31 08:33:23.3	312.650	0.210	-0.210	0.500
2020/01/31 08:33:23.4	312.640	0.210	-0.200	0.520
2020/01/31 08:33:23.5	312.650	0.210	-0.190	0.540
2020/01/31 08:33:23.6	312.660	0.210	-0.180	0.560
2020/01/31 08:33:23.7	312.670	0.210	-0.170	0.580
2020/01/31 08:33:23.8	312.680	0.210	-0.160	0.600
2020/01/31 08:33:23.9	312.680	0.200	-0.150	0.620
2020/01/31 08:33:24.0	312.690	0.200	-0.150	0.630
2020/01/31 08:33:24.1	312.690	0.190	-0.140	0.640
2020/01/31 08:33:24.2	312.700	0.180	-0.140	0.650
2020/01/31 08:33:24.3	312.700	0.180	-0.140	0.660
2020/01/31 08:33:24.4	312.690	0.170	-0.140	0.660
2020/01/31 08:33:24.5	312.690	0.160	-0.140	0.670
2020/01/31 08:33:24.6	312.690	0.140	-0.140	0.670
2020/01/31 08:33:24.7	312.690	0.130	-0.140	0.670
2020/01/31 08:33:24.8	312.700	0.120	-0.140	0.660
2020/01/31 08:33:24.9	312.700	0.100	-0.140	0.660
2020/01/31 08:33:25.0	312.700	0.090	-0.130	0.650
2020/01/31 08:33:25.1	312.690	0.080	-0.130	0.650
2020/01/31 08:33:25.2	312.690	0.060	-0.130	0.640
2020/01/31 08:33:25.3	312.690	0.040	-0.130	0.630
2020/01/31 08:33:25.4	312.680	0.030	-0.120	0.610
2020/01/31 08:33:25.5	312.670	0.010	-0.120	0.600
2020/01/31 08:33:25.6	312.670	-0.000	-0.110	0.590
2020/01/31 08:33:25.7	312.670	-0.020	-0.110	0.570
2020/01/31 08:33:25.8	312.660	-0.030	-0.100	0.560
2020/01/31 08:33:25.9	312.660	-0.050	-0.100	0.540
2020/01/31 08:33:26.0	312.650	-0.060	-0.090	0.530
2020/01/31 08:33:26.1	312.650	-0.070	-0.090	0.510
2020/01/31 08:33:26.2	312.640	-0.080	-0.080	0.500
2020/01/31 08:33:26.3	312.640	-0.090	-0.070	0.480
2020/01/31 08:33:26.4	312.620	-0.100	-0.070	0.460
2020/01/31 08:33:26.5	312.610	-0.110	-0.070	0.450
2020/01/31 08:33:26.6	312.610	-0.120	-0.060	0.430
2020/01/31 08:33:26.7	312.600	-0.130	-0.060	0.410
2020/01/31 08:33:26.8	312.600	-0.130	-0.060	0.390
2020/01/31 08:33:26.9	312.600	-0.130	-0.060	0.370
2020/01/31 08:33:27.0	312.590	-0.140	-0.060	0.350
2020/01/31 08:33:27.1	312.590	-0.140	-0.060	0.330
2020/01/31 08:33:27.2	312.590	-0.140	-0.060	0.310
2020/01/31 08:33:27.3	312.590	-0.130	-0.070	0.290
2020/01/31 08:33:27.4	312.570	-0.130	-0.070	0.270
2020/01/31 08:33:27.5	312.570	-0.130	-0.080	0.250
2020/01/31 08:33:27.6	312.570	-0.120	-0.090	0.230
2020/01/31 08:33:27.7	312.570	-0.120	-0.100	0.210
2020/01/31 08:33:27.8	312.580	-0.110	-0.110	0.190
2020/01/31 08:33:27.9	312.580	-0.100	-0.130	0.160
2020/01/31 08:33:28.0	312.580	-0.090	-0.150	0.140
2020/01/31 08:33:28.1	312.580	-0.080	-0.160	0.110
2020/01/31 08:33:28.2	312.580	-0.070	-0.180	0.080
2020/01/31 08:33:28.3	312.590	-0.060	-0.200	0.060
2020/01/31 08:33:28.4	312.590	-0.050	-0.220	0.030
2020/01/31 08:33:28.5	312.600	-0.040	-0.240	0.000
2020/01/31 08:33:28.6	312.600	-0.030	-0.260	-0.030
2020/01/31 08:33:28.7	312.600	-0.020	-0.280	-0.050
2020/01/31 08:33:28.8	312.600	-0.010	-0.300	-0.080
2020/01/31 08:33:28.9	312.600	-0.000	-0.320	-0.110
2020/01/31 08:33:29.0	312.600	0.010	-0.340	-0.130
2020/01/31 08:33:29.1	312.610	0.020	-0.350	-0.160
2020/01/31 08:33:29.2	312.610	0.030	-0.370	-0.180
2020/01/31 08:33:29.3	312.610	0.040	-0.380	-0.200
2020/01/31 08:33:29.4	312.610	0.050	-0.390	-0.220
2020/01/31 08:33:29.5	312.610	0.060	-0.400	-0.240
2020/01/31 08:33:29.6	312.610	0.070	-0.410	-0.250
2020/01/31 08:33:29.7	312.610	0.080	-0.410	-0.270
2020/01/31 08:33:29.8	312.610	0.090	-0.410	-0.280
2020/01/31 08:33:29.9	312.600	0.100	-0.410	-0.290
2020/01/31 08:33:30.0	312.600	0.110	-0.410	-0.290
2020/01/31 08:33:30.1	312.600	0.120	-0.400	-0.290
2020/01/31 08:33:30.2	312.590	0.130	-0.390	-0.290
2020/01/31 08:33:30.3	312.590	0.140	-0.380	-0.280
2020/01/31 08:33:30.4	312.610	0.150	-0.360	-0.270
2020/01/31 08:33:30.5	312.600	0.160	-0.340	-0.260
2020/01/31 08:33:30.6	312.600	0.170	-0.320	-0.240
2020/01/31 08:33:30.7	312.590	0.180	-0.300	-0.220
2020/01/31 08:33:30.8	312.590	0.180	-0.280	-0.200
2020/01/31 08:33:30.9	312.580	0.190	-0.250	-0.180
2020/01/31 08:33:31.0	312.570	0.200	-0.230	-0.150
2020/01/31 08:33:31.1	312.570	0.210	-0.200	-0.120
2020/01/31 08:33:31.2	312.560	0.210	-0.170	-0.080
2020/01/31 08:33:31.3	312.550	0.220	-0.150	-0.050
2020/01/31 08:33:31.4	312.560	0.220	-0.120	-0.010
2020/01/31 08:33:31.5	312.550	0.220	-0.100	0.030
2020/01/31 08:33:31.6	312.550	0.230	-0.080	0.060
2020/01/31 08:33:31.7	312.540	0.230	-0.060	0.100
2020/01/31 08:33:31.8	312.540	0.230	-0.040	0.130
2020/01/31 08:33:31.9	312.540	0.230	-0.030	0.170
2020/01/31 08:33:32.0	312.530	0.230	-0.010	0.200
2020/01/31 08:33:32.1	312.530	0.230	-0.000	0.240
2020/01/31 08:33:32.2	312.520	0.220	0.000	0.270
2020/01/31 08:33:32.3	312.520	0.220	0.010	0.300
2020/01/31 08:33:32.4	312.520	0.210	0.010	0.330
2020/01/31 08:33:32.5	312.520	0.200	0.010	0.360
2020/01/31 08:33:32.6	312.510	0.200	0.010	0.380
2020/01/31 08:33:32.7	312.510	0.190	-0.000	0.400
2020/01/31 08:33:32.8	312.510	0.180	-0.010	0.430
2020/01/31 08:33:32.9	312.500	0.160	-0.030	0.440
2020/01/31 08:33:33.0	312.500	0.150	-0.040	0.460
2020/01/31 08:33:33.1	312.500	0.140	-0.060	0.470
2020/01/31 08:33:33.2	312.490	0.120	-0.080	0.480
2020/01/31 08:33:33.3	312.490	0.110	-0.100	0.490
2020/01/31 08:33:33.4	312.490	0.090	-0.120	0.490
2020/01/31 08:33:33.5	312.490	0.070	-0.150	0.490
2020/01/31 08:33:33.6	312.490	0.060	-0.170	0.480
2020/01/31 08:33:33.7	312.500	0.040	-0.200	0.480
2020/01/31 08:33:33.8	312.500	0.020	-0.220	0.470
2020/01/31 08:33:33.9	312.510	0.000	-0.250	0.460
2020/01/31 08:33:34.0	312.520	-0.010	-0.280	0.440
2020/01/31 08:33:34.1	312.530	-0.030	-0.300	0.420
2020/01/31 08:33:34.2	312.550	-0.050	-0.330	0.400
2020/01/31 08:33:34.3	312.560	-0.070	-0.360	0.380
2020/01/31 08:33:34.4	312.590	-0.080	-0.380	0.350
2020/01/31 08:33:34.5	312.610	-0.100	-0.400	0.320
2020/01/31 08:33:34.6	312.630	-0.120	-0.420	0.290
2020/01/31 08:33:34.7	312.650	-0.130	-0.440	0.260
2020/01/31 08:33:34.8	312.680	-0.150	-0.460	0.230
2020/01/31 08:33:34.9	312.700	-0.160	-0.470	0.200
2020/01/31 08:33:35.0	312.720	-0.180	-0.480	0.170
2020/01/31 08:33:35.1	312.740	-0.190	-0.490	0.140
2020/01/31 08:33:35.2	312.770	-0.210	-0.490	0.110
2020/01/31 08:33:35.3	312.790	-0.220	-0.490	0.080
2020/01/31 08:33:35.4	312.820	-0.230	-0.490	0.050
2020/01/31 08:33:35.5	312.840	-0.240	-0.490	0.020
2020/01/31 08:33:35.6	312.860	-0.250	-0.480	-0.000
2020/01/31 08:33:35.7	312.880	-0.260	-0.470	-0.030
2020/01/31 08:33:35.8	312.890	-0.270	-0.460	-0.050
2020/01/31 08:33:35.9	312.910	-0.280	-0.440	-0.070
2020/01/31 08:33:36.0	312.930	-0.280	-0.430	-0.090
2020/01/31 08:33:36.1	312.940	-0.290	-0.410	-0.100
2020/01/31 08:33:36.2	312.950	-0.290	-0.380	-0.110
2020/01/31 08:33:36.3	312.960	-0.290	-0.360	-0.120
2020/01/31 08:33:36.4	312.960	-0.290	-0.340	-0.130
2020/01/31 08:33:36.5	312.970	-0.290	-0.310	-0.130
2020/01/31 08:33:36.6	312.980	-0.290	-0.290	-0.130
2020/01/31 08:33:36.7	312.980	-0.290	-0.260	-0.130
2020/01/31 08:33:36.8	312.990	-0.280	-0.240	-0.130
2020/01/31 08:33:36.9	312.990	-0.280	-0.210	-0.120
2020/01/31 08:33:37.0	313.000	-0.270	-0.190	-0.110
2020/01/31 08:33:37.1	313.000	-0.260	-0.170	-0.100
2020/01/31 08:33:37.2	313.000	-0.250	-0.150	-0.090
2020/01/31 08:33:37.3	313.000	-0.240	-0.130	-0.080
2020/01/31 08:33:37.4	313.000	-0.230	-0.120	-0.060
2020/01/31 08:33:37.5	312.990	-0.220	-0.100	-0.050
2020/01/31 08:33:37.6	312.990	-0.210	-0.090	-0.030
2020/01/31 08:33:37.7	312.990	-0.190	-0.090	-0.020
2020/01/31 08:33:37.8	312.990	-0.180	-0.080	0.000
2020/01/31 08:33:37.9	312.990	-0.160	-0.080	0.020
2020/01/31 08:33:38.0	312.990	-0.150	-0.080	0.030
2020/01/31 08:33:38.1	312.990	-0.130	-0.080	0.050
2020/01/31 08:33:38.2	312.990	-0.120	-0.080	0.060
2020/01/31 08:33:38.3	312.990	-0.100	-0.090	0.080
2020/01/31 08:33:38.4	312.990	-0.090	-0.090	0.090
2020/01/31 08:33:38.5	312.990	-0.070	-0.100	0.110
2020/01/31 08:33:38.6	312.980	-0.050	-0.110	0.130
2020/01/31 08:33:38.7	312.980	-0.040	-0.120	0.150
2020/01/31 08:33:38.8	312.970	-0.020	-0.130	0.170
2020/01/31 08:33:38.9	312.970	-0.010	-0.130	0.190
2020/01/31 08:33:39.0	312.960	0.000	-0.140	0.220
2020/01/31 08:33:39.1	312.950	0.010	-0.150	0.240
2020/01/31 08:33:39.2	312.940	0.020	-0.150	0.270
2020/01/31 08:33:39.3	312.920	0.030	-0.160	0.290
2020/01/31 08:33:39.4	312.900	0.040	-0.160	0.330
2020/01/31 08:33:39.5	312.880	0.050	-0.160	0.360
2020/01/31 08:33:39.6	312.860	0.050	-0.160	0.390
2020/01/31 08:33:39.7	312.840	0.060	-0.160	0.420
2020/01/31 08:33:39.8	312.810	0.060	-0.160	0.450
2020/01/31 08:33:39.9	312.780	0.060	-0.150	0.480
2020/01/31 08:33:40.0	312.760	0.070	-0.150	0.510
2020/01/31 08:33:40.1	312.730	0.070	-0.140	0.540
2020/01/31 08:33:40.2	312.700	0.060	-0.130	0.570
2020/01/31 08:33:40.3	312.670	0.060	-0.130	0.600
2020/01/31 08:33:40.4	312.630	0.060	-0.120	0.620
2020/01/31 08:33:40.5	312.600	0.060	-0.110	0.650
2020/01/31 08:33:40.6	312.570	0.050	-0.110	0.670
2020/01/31 08:33:40.7	312.540	0.050	-0.100	0.690
2020/01/31 08:33:40.8	312.510	0.050	-0.100	0.710
2020/01/31 08:33:40.9	312.490	0.050	-0.100	0.730
2020/01/31 08:33:41.0	312.460	0.040	-0.100	0.750
2020/01/31 08:33:41.1	312.440	0.040	-0.110	0.760
2020/01/31 08:33:41.2	312.410	0.040	-0.110	0.770
2020/01/31 08:33:41.3	312.390	0.040	-0.120	0.780
2020/01/31 08:33:41.4	312.360	0.040	-0.130	0.790
2020/01/31 08:33:41.5	312.340	0.040	-0.140	0.800
2020/01/31 08:33:41.6	312.320	0.040	-0.150	0.800
2020/01/31 08:33:41.7	312.300	0.050	-0.170	0.800
2020/01/31 08:33:41.8	312.290	0.050	-0.190	0.800
2020/01/31 08:33:41.9	312.280	0.060	-0.210	0.800
2020/01/31 08:33:42.0	312.270	0.070	-0.230	0.790
2020/01/31 08:33:42.1	312.260	0.080	-0.260	0.790
2020/01/31 08:33:42.2	312.250	0.090	-0.280	0.780
2020/01/31 08:33:42.3	312.250	0.100	-0.310	0.770
2020/01/31 08:33:42.4	312.250	0.110	-0.340	0.750
2020/01/31 08:33:42.5	312.250	0.120	-0.370	0.740
2020/01/31 08:33:42.6	312.260	0.130	-0.400	0.720
2020/01/31 08:33:42.7	312.260	0.150	-0.430	0.700
2020/01/31 08:33:42.8	312.270	0.160	-0.460	0.680
2020/01/31 08:33:42.9	312.270	0.180	-0.490	0.660
2020/01/31 08:33:43.0	312.280	0.190	-0.520	0.640
2020/01/31 08:33:43.1	312.300	0.200	-0.540	0.620
2020/01/31 08:33:43.2	312.310	0.220	-0.570	0.590
2020/01/31 08:33:43.3	312.330	0.230	-0.600	0.570
2020/01/31 08:33:43.4	312.330	0.250	-0.620	0.540
2020/01/31 08:33:43.5	312.350	0.260	-0.640	0.520
2020/01/31 08:33:43.6	312.370	0.270	-0.660	0.500
2020/01/31 08:33:43.7	312.390	0.280	-0.680	0.470
2020/01/31 08:33:43.8	312.400	0.290	-0.690	0.450
2020/01/31 08:33:43.9	312.420	0.300	-0.700	0.430
2020/01/31 08:33:44.0	312.440	0.310	-0.710	0.400
2020/01/31 08:33:44.1	312.460	0.320	-0.720	0.380
2020/01/31 08:33:44.2	312.480	0.320	-0.720	0.360
2020/01/31 08:33:44.3	312.500	0.330	-0.730	0.340
2020/01/31 08:33:44.4	312.520	0.330	-0.720	0.320
2020/01/31 08:33:44.5	312.540	0.330	-0.720	0.300
2020/01/31 08:33:44.6	312.570	0.330	-0.710	0.280
2020/01/31 08:33:44.7	312.590	0.330	-0.710	0.260
2020/01/31 08:33:44.8	312.610	0.330	-0.700	0.250
2020/01/31 08:33:44.9	312.630	0.330	-0.690	0.230
2020/01/31 08:33:45.0	312.660	0.320	-0.670	0.220
2020/01/31 08:33:45.1	312.680	0.320	-0.660	0.200
2020/01/31 08:33:45.2	312.700	0.310	-0.640	0.190
2020/01/31 08:33:45.3	312.730	0.300	-0.620	0.180
2020/01/31 08:33:45.4	312.760	0.290	-0.600	0.170
2020/01/31 08:33:45.5	312.780	0.280	-0.580	0.150
2020/01/31 08:33:45.6	312.810	0.270	-0.560	0.140
2020/01/31 08:33:45.7	312.830	0.260	-0.540	0.130
2020/01/31 08:33:45.8	312.860	0.240	-0.520	0.130
2020/01/31 08:33:45.9	312.880	0.230	-0.490	0.120
2020/01/31 08:33:46.0	312.900	0.210	-0.470	0.110
2020/01/31 08:33:46.1	312.930	0.200	-0.440	0.100
2020/01/31 08:33:46.2	312.950	0.180	-0.410	0.100
2020/01/31 08:33:46.3	312.970	0.160	-0.380	0.090
2020/01/31 08:33:46.4	312.990	0.140	-0.350	0.090
2020/01/31 08:33:46.5	313.010	0.120	-0.320	0.080
2020/01/31 08:33:46.6	313.030	0.100	-0.280	0.080
2020/01/31 08:33:46.7	313.050	0.080	-0.250	0.080
2020/01/31 08:33:46.8	313.070	0.060	-0.220	0.080
2020/01/31 08:33:46.9	313.080	0.040	-0.180	0.080
2020/01/31 08:33:47.0	313.100	0.020	-0.140	0.080
2020/01/31 08:33:47.1	313.110	-0.000	-0.110	0.080
2020/01/31 08:33:47.2	313.120	-0.020	-0.070	0.090
2020/01/31 08:33:47.3	313.130	-0.040	-0.030	0.090
2020/01/31 08:33:47.4	313.130	-0.060	0.010	0.100
2020/01/31 08:33:47.5	313.130	-0.090	0.050	0.100
2020/01/31 08:33:47.6	313.130	-0.110	0.090	0.110
2020/01/31 08:33:47.7	313.130	-0.130	0.130	0.120
2020/01/31 08:33:47.8	313.130	-0.140	0.170	0.130
2020/01/31 08:33:47.9	313.120	-0.160	0.210	0.140
2020/01/31 08:33:48.0	313.110	-0.180	0.250	0.150
2020/01/31 08:33:48.1	313.090	-0.200	0.290	0.170
2020/01/31 08:33:48.2	313.070	-0.210	0.330	0.180
2020/01/31 08:33:48.3	313.050	-0.230	0.360	0.200
2020/01/31 08:33:48.4	313.040	-0.240	0.400	0.220
2020/01/31 08:33:48.5	313.020	-0.260	0.430	0.240
2020/01/31 08:33:48.6	312.990	-0.270	0.460	0.260
2020/01/31 08:33:48.7	312.960	-0.280	0.490	0.280
2020/01/31 08:33:48.8	312.930	-0.290	0.510	0.300
2020/01/31 08:33:48.9	312.900	-0.300	0.530	0.320
2020/01/31 08:33:49.0	312.860	-0.300	0.550	0.340
2020/01/31 08:33:49.1	312.830	-0.310	0.560	0.360
2020/01/31 08:33:49.2	312.800	-0.310	0.570	0.380
2020/01/31 08:33:49.3	312.760	-0.310	0.580	0.390
2020/01/31 08:33:49.4	312.730	-0.310	0.580	0.410
2020/01/31 08:33:49.5	312.700	-0.310	0.580	0.420
2020/01/31 08:33:49.6	312.660	-0.310	0.570	0.430
2020/01/31 08:33:49.7	312.630	-0.300	0.550	0.440
2020/01/31 08:33:49.8	312.600	-0.300	0.530	0.450
2020/01/31 08:33:49.9	312.580	-0.290	0.510	0.460
2020/01/31 08:33:50.0	312.550	-0.280	0.480	0.460
2020/01/31 08:33:50.1	312.520	-0.270	0.450	0.460
2020/01/31 08:33:50.2	312.500	-0.260	0.410	0.460
2020/01/31 08:33:50.3	312.470	-0.250	0.370	0.460
2020/01/31 08:33:50.4	312.460	-0.240	0.330	0.460
2020/01/31 08:33:50.5	312.440	-0.220	0.280	0.450
2020/01/31 08:33:50.6	312.420	-0.210	0.230	0.440
2020/01/31 08:33:50.7	312.400	-0.200	0.180	0.430
2020/01/31 08:33:50.8	312.380	-0.180	0.120	0.420
2020/01/31 08:33:50.9	312.360	-0.170	0.070	0.410
2020/01/31 08:33:51.0	312.340	-0.150	0.010	0.400
2020/01/31 08:33:51.1	312.320	-0.140	-0.040	0.380
2020/01/31 08:33:51.2	312.300	-0.130	-0.100	0.370
2020/01/31 08:33:51.3	312.290	-0.120	-0.160	0.350
2020/01/31 08:33:51.4	312.260	-0.100	-0.210	0.340
2020/01/31 08:33:51.5	312.250	-0.090	-0.270	0.320
2020/01/31 08:33:51.6	312.230	-0.080	-0.320	0.300
2020/01/31 08:33:51.7	312.220	-0.080	-0.370	0.280
2020/01/31 08:33:51.8	312.200	-0.070	-0.420	0.260
2020/01/31 08:33:51.9	312.190	-0.060	-0.470	0.240
2020/01/31 08:33:52.0	312.180	-0.060	-0.520	0.220
2020/01/31 08:33:52.1	312.170	-0.050	-0.560	0.200
2020/01/31 08:33:52.2	312.160	-0.050	-0.600	0.180
2020/01/31 08:33:52.3	312.150	-0.050	-0.640	0.160
2020/01/31 08:33:52.4	312.160	-0.040	-0.670	0.140
2020/01/31 08:33:52.5	312.150	-0.040	-0.710	0.110
2020/01/31 08:33:52.6	312.150	-0.040	-0.740	0.090
2020/01/31 08:33:52.7	312.140	-0.050	-0.770	0.070
2020/01/31 08:33:52.8	312.140	-0.050	-0.790	0.040
2020/01/31 08:33:52.9	312.140	-0.050	-0.820	0.020
2020/01/31 08:33:53.0	312.140	-0.060	-0.830	0.000
2020/01/31 08:33:53.1	312.140	-0.060	-0.850	-0.020
2020/01/31 08:33:53.2	312.140	-0.060	-0.860	-0.040
2020/01/31 08:33:53.3	312.140	-0.070	-0.870	-0.060
2020/01/31 08:33:53.4	312.150	-0.070	-0.880	-0.080
2020/01/31 08:33:53.5	312.160	-0.080	-0.890	-0.100
2020/01/31 08:33:53.6	312.170	-0.080	-0.890	-0.110
2020/01/31 08:33:53.7	312.180	-0.090	-0.890	-0.130
2020/01/31 08:33:53.8	312.190	-0.090	-0.880	-0.140
2020/01/31 08:33:53.9	312.200	-0.100	-0.880	-0.160
2020/01/31 08:33:54.0	312.210	-0.100	-0.860	-0.170
2020/01/31 08:33:54.1	312.220	-0.110	-0.850	-0.180
2020/01/31 08:33:54.2	312.240	-0.110	-0.840	-0.190
2020/01/31 08:33:54.3	312.260	-0.110	-0.820	-0.190
2020/01/31 08:33:54.4	312.290	-0.110	-0.800	-0.200
2020/01/31 08:33:54.5	312.300	-0.120	-0.780	-0.200
2020/01/31 08:33:54.6	312.320	-0.120	-0.760	-0.200
2020/01/31 08:33:54.7	312.340	-0.120	-0.730	-0.200
2020/01/31 08:33:54.8	312.360	-0.110	-0.710	-0.200
2020/01/31 08:33:54.9	312.380	-0.110	-0.680	-0.190
2020/01/31 08:33:55.0	312.410	-0.110	-0.650	-0.190
2020/01/31 08:33:55.1	312.430	-0.100	-0.620	-0.180
2020/01/31 08:33:55.2	312.450	-0.100	-0.600	-0.170
2020/01/31 08:33:55.3	312.480	-0.090	-0.570	-0.160
2020/01/31 08:33:55.4	312.520	-0.090	-0.540	-0.150
2020/01/31 08:33:55.5	312.540	-0.080	-0.520	-0.140
2020/01/31 08:33:55.6	312.570	-0.070	-0.500	-0.130
2020/01/31 08:33:55.7	312.600	-0.060	-0.470	-0.120
2020/01/31 08:33:55.8	312.630	-0.050	-0.450	-0.110
2020/01/31 08:33:55.9	312.660	-0.040	-0.440	-0.100
2020/01/31 08:33:56.0	312.690	-0.030	-0.420	-0.090
2020/01/31 08:33:56.1	312.730	-0.020	-0.400	-0.080
2020/01/31 08:33:56.2	312.760	-0.010	-0.390	-0.070
2020/01/31 08:33:56.3	312.790	0.010	-0.380	-0.060
2020/01/31 08:33:56.4	312.810	0.020	-0.360	-0.040
2020/01/31 08:33:56.5	312.840	0.030	-0.360	-0.030
2020/01/31 08:33:56.6	312.870	0.050	-0.350	-0.010
2020/01/31 08:33:56.7	312.900	0.060	-0.340	0.010
2020/01/31 08:33:56.8	312.920	0.080	-0.330	0.030
2020/01/31 08:33:56.9	312.950	0.090	-0.330	0.050
2020/01/31 08:33:57.0	312.970	0.110	-0.320	0.070
2020/01/31 08:33:57.1	312.990	0.120	-0.310	0.090
2020/01/31 08:33:57.2	313.010	0.130	-0.310	0.110
2020/01/31 08:33:57.3	313.030	0.150	-0.300	0.130
2020/01/31 08:33:57.4	313.050	0.160	-0.300	0.160
2020/01/31 08:33:57.5	313.070	0.170	-0.290	0.180
2020/01/31 08:33:57.6	313.080	0.190	-0.290	0.210
2020/01/31 08:33:57.7	313.090	0.200	-0.280	0.230
2020/01/31 08:33:57.8	313.100	0.210	-0.270	0.260
2020/01/31 08:33:57.9	313.110	0.220	-0.260	0.290
2020/01/31 08:33:58.0	313.110	0.230	-0.250	0.310
2020/01/31 08:33:58.1	313.120	0.240	-0.230	0.340
2020/01/31 08:33:58.2	313.120	0.250	-0.220	0.360
2020/01/31 08:33:58.3	313.120	0.260	-0.210	0.390
2020/01/31 08:33:58.4	313.110	0.270	-0.180	0.410
2020/01/31 08:33:58.5	313.110	0.270	-0.170	0.440
2020/01/31 08:33:58.6	313.100	0.280	-0.150	0.460
2020/01/31 08:33:58.7	313.100	0.280	-0.130	0.480
2020/01/31 08:33:58.8	313.090	0.280	-0.110	0.500
2020/01/31 08:33:58.9	313.080	0.280	-0.090	0.520
2020/01/31 08:33:59.0	313.070	0.280	-0.060	0.540
2020/01/31 08:33:59.1	313.060	0.280	-0.040	0.560
2020/01/31 08:33:59.2	313.050	0.280	-0.020	0.580
2020/01/31 08:33:59.3	313.030	0.280	0.000	0.600
2020/01/31 08:33:59.4	312.990	0.270	0.030	0.610
2020/01/31 08:33:59.5	312.980	0.270	0.050	0.630
2020/01/31 08:33:59.6	312.960	0.260	0.070	0.640
2020/01/31 08:33:59.7	312.940	0.250	0.090	0.650
2020/01/31 08:33:59.8	312.920	0.240	0.110	0.660
2020/01/31 08:33:59.9	312.900	0.230	0.130	0.670
2020/01/31 08:34:00.0	312.880	0.220	0.140	0.680
2020/01/31 08:34:00.1	312.860	0.210	0.160	0.680
2020/01/31 08:34:00.2	312.840	0.200	0.170	0.680
2020/01/31 08:34:00.3	312.820	0.180	0.180	0.680
2020/01/31 08:34:00.4	312.790	0.170	0.190	0.680
2020/01/31 08:34:00.5	312.770	0.160	0.200	0.670
2020/01/31 08:34:00.6	312.750	0.140	0.200	0.660
2020/01/31 08:34:00.7	312.730	0.130	0.200	0.650
2020/01/31 08:34:00.8	312.710	0.110	0.210	0.630
2020/01/31 08:34:00.9	312.690	0.090	0.210	0.610
2020/01/31 08:34:01.0	312.670	0.080	0.200	0.590
2020/01/31 08:34:01.1	312.640	0.060	0.200	0.570
2020/01/31 08:34:01.2	312.620	0.040	0.200	0.550
2020/01/31 08:34:01.3	312.600	0.030	0.190	0.520
2020/01/31 08:34:01.4	312.580	0.010	0.180	0.490
2020/01/31 08:34:01.5	312.560	-0.000	0.180	0.470
2020/01/31 08:34:01.6	312.530	-0.020	0.170	0.440
2020/01/31 08:34:01.7	312.510	-0.030	0.160	0.410
2020/01/31 08:34:01.8	312.490	-0.040	0.150	0.380
2020/01/31 08:34:01.9	312.460	-0.060	0.140	0.360
2020/01/31 08:34:02.0	312.440	-0.070	0.130	0.330
2020/01/31 08:34:02.1	312.420	-0.080	0.120	0.310
2020/01/31 08:34:02.2	312.390	-0.090	0.110	0.280
2020/01/31 08:34:02.3	312.370	-0.100	0.100	0.260
2020/01/31 08:34:02.4	312.350	-0.110	0.090	0.230
2020/01/31 08:34:02.5	312.330	-0.120	0.080	0.210
2020/01/31 08:34:02.6	312.310	-0.120	0.070	0.180
2020/01/31 08:34:02.7	312.290	-0.130	0.050	0.160
2020/01/31 08:34:02.8	312.280	-0.130	0.040	0.140
2020/01/31 08:34:02.9	312.260	-0.140	0.030	0.110
2020/01/31 08:34:03.0	312.250	-0.140	0.010	0.090
2020/01/31 08:34:03.1	312.230	-0.140	-0.010	0.070
2020/01/31 08:34:03.2	312.220	-0.150	-0.020	0.040
2020/01/31 08:34:03.3	312.210	-0.150	-0.040	0.020
2020/01/31 08:34:03.4	312.190	-0.150	-0.060	-0.010
2020/01/31 08:34:03.5	312.180	-0.150	-0.080	-0.030
2020/01/31 08:34:03.6	312.170	-0.150	-0.110	-0.050
2020/01/31 08:34:03.7	312.170	-0.140	-0.130	-0.070
2020/01/31 08:34:03.8	312.160	-0.140	-0.150	-0.100
2020/01/31 08:34:03.9	312.150	-0.140	-0.180	-0.120
2020/01/31 08:34:04.0	312.150	-0.140	-0.200	-0.140
2020/01/31 08:34:04.1	312.150	-0.140	-0.220	-0.160
2020/01/31 08:34:04.2	312.140	-0.130	-0.250	-0.180
2020/01/31 08:34:04.3	312.140	-0.130	-0.270	-0.190
2020/01/31 08:34:04.4	312.120	-0.130	-0.300	-0.210
2020/01/31 08:34:04.5	312.120	-0.130	-0.320	-0.220
2020/01/31 08:34:04.6	312.120	-0.130	-0.340	-0.230
2020/01/31 08:34:04.7	312.120	-0.120	-0.360	-0.240
2020/01/31 08:34:04.8	312.120	-0.120	-0.380	-0.250
2020/01/31 08:34:04.9	312.120	-0.120	-0.400	-0.250
2020/01/31 08:34:05.0	312.120	-0.120	-0.410	-0.260
2020/01/31 08:34:05.1	312.130	-0.120	-0.430	-0.260
2020/01/31 08:34:05.2	312.130	-0.120	-0.440	-0.260
2020/01/31 08:34:05.3	312.130	-0.120	-0.460	-0.260
2020/01/31 08:34:05.4	312.140	-0.120	-0.470	-0.250
2020/01/31 08:34:05.5	312.140	-0.130	-0.480	-0.250
2020/01/31 08:34:05.6	312.150	-0.130	-0.490	-0.240
2020/01/31 08:34:05.7	312.150	-0.130	-0.500	-0.230
2020/01/31 08:34:05.8	312.160	-0.130	-0.510	-0.230
2020/01/31 08:34:05.9	312.160	-0.140	-0.510	-0.220
2020/01/31 08:34:06.0	312.170	-0.140	-0.520	-0.200
2020/01/31 08:34:06.1	312.180	-0.140	-0.530	-0.190
2020/01/31 08:34:06.2	312.190	-0.150	-0.540	-0.180
2020/01/31 08:34:06.3	312.200	-0.150	-0.550	-0.160
2020/01/31 08:34:06.4	312.220	-0.150	-0.560	-0.140
2020/01/31 08:34:06.5	312.230	-0.160	-0.570	-0.130
2020/01/31 08:34:06.6	312.250	-0.160	-0.570	-0.110
2020/01/31 08:34:06.7	312.260	-0.160	-0.580	-0.100
2020/01/31 08:34:06.8	312.280	-0.160	-0.590	-0.090
2020/01/31 08:34:06.9	312.300	-0.160	-0.600	-0.070
2020/01/31 08:34:07.0	312.320	-0.160	-0.610	-0.060
2020/01/31 08:34:07.1	312.350	-0.160	-0.620	-0.040
2020/01/31 08:34:07.2	312.370	-0.160	-0.630	-0.030
2020/01/31 08:34:07.3	312.400	-0.160	-0.640	-0.020
2020/01/31 08:34:07.4	312.430	-0.150	-0.640	-0.010
2020/01/31 08:34:07.5	312.450	-0.150	-0.650	0.010
2020/01/31 08:34:07.6	312.480	-0.140	-0.660	0.020
2020/01/31 08:34:07.7	312.510	-0.140	-0.670	0.040
2020/01/31 08:34:07.8	312.540	-0.130	-0.670	0.050
2020/01/31 08:34:07.9	312.570	-0.130	-0.680	0.070
2020/01/31 08:34:08.0	312.590	-0.120	-0.680	0.090
2020/01/31 08:34:08.1	312.620	-0.110	-0.680	0.110
2020/01/31 08:34:08.2	312.650	-0.100	-0.680	0.130
2020/01/31 08:34:08.3	312.670	-0.090	-0.680	0.150
2020/01/31 08:34:08.4	312.720	-0.080	-0.680	0.170
2020/01/31 08:34:08.5	312.740	-0.070	-0.670	0.200
2020/01/31 08:34:08.6	312.770	-0.060	-0.660	0.220
2020/01/31 08:34:08.7	312.790	-0.050	-0.660	0.240
2020/01/31 08:34:08.8	312.810	-0.040	-0.650	0.270
2020/01/31 08:34:08.9	312.830	-0.030	-0.640	0.290
2020/01/31 08:34:09.0	312.860	-0.020	-0.620	0.320
2020/01/31 08:34:09.1	312.880	-0.010	-0.610	0.350
2020/01/31 08:34:09.2	312.900	0.010	-0.600	0.370
2020/01/31 08:34:09.3	312.920	0.020	-0.580	0.390
2020/01/31 08:34:09.4	312.950	0.030	-0.560	0.420
2020/01/31 08:34:09.5	312.970	0.040	-0.540	0.440
2020/01/31 08:34:09.6	312.990	0.050	-0.520	0.470
2020/01/31 08:34:09.7	313.010	0.060	-0.500	0.490
2020/01/31 08:34:09.8	313.020	0.070	-0.480	0.510
2020/01/31 08:34:09.9	313.040	0.080	-0.450	0.530
2020/01/31 08:34:10.0	313.060	0.090	-0.430	0.550
2020/01/31 08:34:10.1	313.080	0.100	-0.400	0.570
2020/01/31 08:34:10.2	313.090	0.110	-0.370	0.590
2020/01/31 08:34:10.3	313.100	0.120	-0.350	0.610
2020/01/31 08:34:10.4	313.100	0.130	-0.320	0.630
2020/01/31 08:34:10.5	313.110	0.130	-0.290	0.650
2020/01/31 08:34:10.6	313.120	0.140	-0.260	0.670
2020/01/31 08:34:10.7	313.130	0.140	-0.230	0.690
2020/01/31 08:34:10.8	313.130	0.150	-0.200	0.720
2020/01/31 08:34:10.9	313.140	0.150	-0.170	0.740
2020/01/31 08:34:11.0	313.140	0.150	-0.130	0.760
2020/01/31 08:34:11.1	313.140	0.150	-0.100	0.780
2020/01/31 08:34:11.2	313.130	0.150	-0.070	0.800
2020/01/31 08:34:11.3	313.130	0.150	-0.040	0.820
2020/01/31 08:34:11.4	313.120	0.150	-0.000	0.840
2020/01/31 08:34:11.5	313.110	0.150	0.030	0.870
2020/01/31 08:34:11.6	313.090	0.150	0.070	0.890
2020/01/31 08:34:11.7	313.080	0.140	0.100	0.910
2020/01/31 08:34:11.8	313.060	0.140	0.130	0.930
2020/01/31 08:34:11.9	313.040	0.130	0.170	0.950
2020/01/31 08:34:12.0	313.010	0.130	0.200	0.980
2020/01/31 08:34:12.1	312.980	0.120	0.230	1.000
2020/01/31 08:34:12.2	312.950	0.110	0.260	1.020
2020/01/31 08:34:12.3	312.920	0.110	0.290	1.040
2020/01/31 08:34:12.4	312.880	0.100	0.320	1.060
2020/01/31 08:34:12.5	312.850	0.090	0.350	1.080
2020/01/31 08:34:12.6	312.810	0.080	0.370	1.100
2020/01/31 08:34:12.7	312.760	0.070	0.390	1.110
2020/01/31 08:34:12.8	312.720	0.060	0.410	1.130
2020/01/31 08:34:12.9	312.680	0.060	0.430	1.150
2020/01/31 08:34:13.0	312.630	0.050	0.450	1.160
2020/01/31 08:34:13.1	312.580	0.040	0.460	1.170
2020/01/31 08:34:13.2	312.540	0.030	0.460	1.180
2020/01/31 08:34:13.3	312.490	0.020	0.470	1.190
2020/01/31 08:34:13.4	312.440	0.020	0.470	1.190
2020/01/31 08:34:13.5	312.390	0.010	0.460	1.190
2020/01/31 08:34:13.6	312.350	0.000	0.450	1.190
2020/01/31 08:34:13.7	312.310	-0.000	0.440	1.180
2020/01/31 08:34:13.8	312.270	-0.010	0.420	1.170
2020/01/31 08:34:13.9	312.230	-0.010	0.400	1.150
2020/01/31 08:34:14.0	312.190	-0.010	0.380	1.130
2020/01/31 08:34:14.1	312.160	-0.010	0.340	1.100
2020/01/31 08:34:14.2	312.130	-0.020	0.310	1.070
2020/01/31 08:34:14.3	312.100	-0.020	0.270	1.030
2020/01/31 08:34:14.4	312.100	-0.010	0.220	0.990
2020/01/31 08:34:14.5	312.080	-0.010	0.170	0.940
2020/01/31 08:34:14.6	312.060	-0.010	0.120	0.890
2020/01/31 08:34:14.7	312.050	-0.010	0.060	0.830
2020/01/31 08:34:14.8	312.040	-0.000	-0.000	0.770
2020/01/31 08:34:14.9	312.030	0.000	-0.060	0.710
2020/01/31 08:34:15.0	312.030	0.010	-0.130	0.640
2020/01/31 08:34:15.1	312.030	0.020	-0.190	0.570
2020/01/31 08:34:15.2	312.030	0.020	-0.260	0.500
2020/01/31 08:34:15.3	312.040	0.030	-0.330	0.430
2020/01/31 08:34:15.4	312.050	0.030	-0.400	0.360
2020/01/31 08:34:15.5	312.060	0.040	-0.460	0.280
2020/01/31 08:34:15.6	312.080	0.050	-0.530	0.210
2020/01/31 08:34:15.7	312.090	0.050	-0.590	0.140
2020/01/31 08:34:15.8	312.110	0.060	-0.650	0.070
2020/01/31 08:34:15.9	312.120	0.060	-0.710	-0.000
2020/01/31 08:34:16.0	312.140	0.060	-0.760	-0.070
2020/01/31 08:34:16.1	312.160	0.070	-0.800	-0.140
2020/01/31 08:34:16.2	312.180	0.070	-0.850	-0.200
2020/01/31 08:34:16.3	312.200	0.070	-0.880	-0.270
2020/01/31 08:34:16.4	312.240	0.070	-0.910	-0.330
2020/01/31 08:34:16.5	312.260	0.070	-0.940	-0.390
2020/01/31 08:34:16.6	312.290	0.070	-0.960	-0.440
2020/01/31 08:34:16.7	312.320	0.060	-0.970	-0.500
2020/01/31 08:34:16.8	312.340	0.060	-0.980	-0.550
2020/01/31 08:34:16.9	312.370	0.050	-0.980	-0.600
2020/01/31 08:34:17.0	312.400	0.040	-0.970	-0.650
2020/01/31 08:34:17.1	312.430	0.030	-0.960	-0.700
2020/01/31 08:34:17.2	312.470	0.020	-0.940	-0.740
2020/01/31 08:34:17.3	312.500	0.010	-0.920	-0.780
2020/01/31 08:34:17.4	312.550	0.000	-0.900	-0.810
2020/01/31 08:34:17.5	312.580	-0.010	-0.870	-0.840
2020/01/31 08:34:17.6	312.610	-0.020	-0.830	-0.870
2020/01/31 08:34:17.7	312.640	-0.030	-0.790	-0.900
2020/01/31 08:34:17.8	312.680	-0.050	-0.750	-0.910
2020/01/31 08:34:17.9	312.710	-0.060	-0.700	-0.930
2020/01/31 08:34:18.0	312.740	-0.080	-0.650	-0.940
2020/01/31 08:34:18.1	312.760	-0.090	-0.600	-0.940
2020/01/31 08:34:18.2	312.790	-0.110	-0.540	-0.940
2020/01/31 08:34:18.3	312.820	-0.120	-0.490	-0.930
2020/01/31 08:34:18.4	312.860	-0.140	-0.430	-0.920
2020/01/31 08:34:18.5	312.880	-0.150	-0.370	-0.900
2020/01/31 08:34:18.6	312.900	-0.170	-0.310	-0.880
2020/01/31 08:34:18.7	312.920	-0.180	-0.250	-0.850
2020/01/31 08:34:18.8	312.930	-0.190	-0.200	-0.820
2020/01/31 08:34:18.9	312.950	-0.210	-0.140	-0.790
2020/01/31 08:34:19.0	312.960	-0.220	-0.090	-0.750
2020/01/31 08:34:19.1	312.970	-0.230	-0.040	-0.710
2020/01/31 08:34:19.2	312.980	-0.240	0.010	-0.670
2020/01/31 08:34:19.3	312.990	-0.250	0.060	-0.620
2020/01/31 08:34:19.4	313.000	-0.260	0.110	-0.570
2020/01/31 08:34:19.5	313.010	-0.270	0.140	-0.520
2020/01/31 08:34:19.6	313.010	-0.280	0.180	-0.470
2020/01/31 08:34:19.7	313.010	-0.280	0.210	-0.420
2020/01/31 08:34:19.8	313.020	-0.290	0.240	-0.360
2020/01/31 08:34:19.9	313.020	-0.290	0.260	-0.310
2020/01/31 08:34:20.0	313.010	-0.290	0.280	-0.260
2020/01/31 08:34:20.1	313.010	-0.290	0.290	-0.200
2020/01/31 08:34:20.2	313.010	-0.290	0.300	-0.150
2020/01/31 08:34:20.3	313.010	-0.290	0.300	-0.090
2020/01/31 08:34:20.4	313.000	-0.280	0.300	-0.040
2020/01/31 08:34:20.5	312.990	-0.280	0.300	0.010
2020/01/31 08:34:20.6	312.990	-0.270	0.290	0.060
2020/01/31 08:34:20.7	312.990	-0.260	0.270	0.110
2020/01/31 08:34:20.8	312.980	-0.250	0.260	0.160
2020/01/31 08:34:20.9	312.970	-0.230	0.240	0.210
2020/01/31 08:34:21.0	312.970	-0.220	0.220	0.250
2020/01/31 08:34:21.1	312.960	-0.200	0.190	0.300
2020/01/31 08:34:21.2	312.950	-0.190	0.170	0.340
2020/01/31 08:34:21.3	312.940	-0.170	0.140	0.380
2020/01/31 08:34:21.4	312.930	-0.150	0.110	0.420
2020/01/31 08:34:21.5	312.920	-0.130	0.080	0.460
2020/01/31 08:34:21.6	312.910	-0.100	0.040	0.500
2020/01/31 08:34:21.7	312.890	-0.080	0.010	0.530
2020/01/31 08:34:21.8	312.880	-0.060	-0.030	0.570
2020/01/31 08:34:21.9	312.870	-0.030	-0.060	0.600
2020/01/31 08:34:22.0	312.860	-0.010	-0.100	0.630
2020/01/31 08:34:22.1	312.850	0.020	-0.130	0.650
2020/01/31 08:34:22.2	312.840	0.040	-0.160	0.680
2020/01/31 08:34:22.3	312.820	0.060	-0.200	0.700
2020/01/31 08:34:22.4	312.770	0.090	-0.230	0.720
2020/01/31 08:34:22.5	312.760	0.110	-0.270	0.740
2020/01/31 08:34:22.6	312.750	0.140	-0.300	0.750
2020/01/31 08:34:22.7	312.740	0.160	-0.330	0.760
2020/01/31 08:34:22.8	312.730	0.180	-0.360	0.770
2020/01/31 08:34:22.9	312.720	0.200	-0.390	0.780
2020/01/31 08:34:23.0	312.710	0.220	-0.420	0.780
2020/01/31 08:34:23.1	312.700	0.240	-0.440	0.790
2020/01/31 08:34:23.2	312.690	0.260	-0.470	0.790
2020/01/31 08:34:23.3	312.680	0.270	-0.490	0.780
2020/01/31 08:34:23.4	312.670	0.290	-0.510	0.780
2020/01/31 08:34:23.5	312.670	0.300	-0.530	0.770
2020/01/31 08:34:23.6	312.660	0.310	-0.550	0.770
2020/01/31 08:34:23.7	312.650	0.320	-0.570	0.760
2020/01/31 08:34:23.8	312.640	0.320	-0.580	0.750
2020/01/31 08:34:23.9	312.630	0.330	-0.600	0.740
2020/01/31 08:34:24.0	312.630	0.330	-0.610	0.730
2020/01/31 08:34:24.1	312.620	0.340	-0.630	0.720
2020/01/31 08:34:24.2	312.610	0.340	-0.640	0.710
2020/01/31 08:34:24.3	312.600	0.340	-0.650	0.700
2020/01/31 08:34:24.4	312.590	0.330	-0.660	0.690
2020/01/31 08:34:24.5	312.590	0.330	-0.660	0.680
2020/01/31 08:34:24.6	312.580	0.320	-0.670	0.660
2020/01/31 08:34:24.7	312.580	0.320	-0.670	0.650
2020/01/31 08:34:24.8	312.570	0.310	-0.680	0.630
2020/01/31 08:34:24.9	312.560	0.300	-0.680	0.620
2020/01/31 08:34:25.0	312.560	0.290	-0.680	0.600
2020/01/31 08:34:25.1	312.550	0.280	-0.680	0.580
2020/01/31 08:34:25.2	312.550	0.270	-0.670	0.560
2020/01/31 08:34:25.3	312.540	0.250	-0.670	0.550
2020/01/31 08:34:25.4	312.530	0.240	-0.660	0.530
2020/01/31 08:34:25.5	312.530	0.220	-0.650	0.510
2020/01/31 08:34:25.6	312.520	0.210	-0.640	0.490
2020/01/31 08:34:25.7	312.510	0.190	-0.630	0.470
2020/01/31 08:34:25.8	312.510	0.170	-0.610	0.450
2020/01/31 08:34:25.9	312.500	0.150	-0.600	0.430
2020/01/31 08:34:26.0	312.500	0.140	-0.580	0.420
2020/01/31 08:34:26.1	312.490	0.120	-0.560	0.400
2020/01/31 08:34:26.2	312.480	0.100	-0.530	0.380
2020/01/31 08:34:26.3	312.480	0.080	-0.510	0.360
2020/01/31 08:34:26.4	312.470	0.060	-0.480	0.340
2020/01/31 08:34:26.5	312.470	0.040	-0.460	0.320
2020/01/31 08:34:26.6	312.470	0.030	-0.430	0.300
2020/01/31 08:34:26.7	312.470	0.010	-0.400	0.280
2020/01/31 08:34:26.8	312.460	-0.010	-0.370	0.260
2020/01/31 08:34:26.9	312.470	-0.030	-0.350	0.240
2020/01/31 08:34:27.0	312.470	-0.040	-0.320	0.210
2020/01/31 08:34:27.1	312.480	-0.060	-0.290	0.190
2020/01/31 08:34:27.2	312.480	-0.080	-0.260	0.160
2020/01/31 08:34:27.3	312.490	-0.090	-0.230	0.140
2020/01/31 08:34:27.4	312.490	-0.110	-0.210	0.120
2020/01/31 08:34:27.5	312.500	-0.120	-0.180	0.090
2020/01/31 08:34:27.6	312.520	-0.130	-0.150	0.060
2020/01/31 08:34:27.7	312.530	-0.140	-0.120	0.040
2020/01/31 08:34:27.8	312.550	-0.150	-0.090	0.010
2020/01/31 08:34:27.9	312.570	-0.160	-0.060	-0.010
2020/01/31 08:34:28.0	312.590	-0.170	-0.040	-0.040
2020/01/31 08:34:28.1	312.610	-0.180	-0.010	-0.060
2020/01/31 08:34:28.2	312.630	-0.190	0.020	-0.080
2020/01/31 08:34:28.3	312.650	-0.200	0.040	-0.100
2020/01/31 08:34:28.4	312.670	-0.200	0.080	-0.120
2020/01/31 08:34:28.5	312.690	-0.210	0.100	-0.130
2020/01/31 08:34:28.6	312.710	-0.220	0.130	-0.150
2020/01/31 08:34:28.7	312.720	-0.220	0.150	-0.160
2020/01/31 08:34:28.8	312.740	-0.230	0.180	-0.160
2020/01/31 08:34:28.9	312.750	-0.230	0.200	-0.170
2020/01/31 08:34:29.0	312.760	-0.230	0.220	-0.170
2020/01/31 08:34:29.1	312.770	-0.240	0.240	-0.170
2020/01/31 08:34:29.2	312.780	-0.240	0.260	-0.160
2020/01/31 08:34:29.3	312.790	-0.240	0.280	-0.160
2020/01/31 08:34:29.4	312.820	-0.240	0.290	-0.150
2020/01/31 08:34:29.5	312.820	-0.240	0.300	-0.130
2020/01/31 08:34:29.6	312.830	-0.240	0.310	-0.120
2020/01/31 08:34:29.7	312.830	-0.240	0.320	-0.100
2020/01/31 08:34:29.8	312.830	-0.240	0.330	-0.090
2020/01/31 08:34:29.9	312.830	-0.240	0.330	-0.070
2020/01/31 08:34:30.0	312.830	-0.240	0.320	-0.050
2020/01/31 08:34:30.1	312.830	-0.240	0.320	-0.030
2020/01/31 08:34:30.2	312.830	-0.230	0.310	-0.010
2020/01/31 08:34:30.3	312.830	-0.230	0.290	0.010
2020/01/31 08:34:30.4	312.830	-0.230	0.280	0.030
2020/01/31 08:34:30.5	312.830	-0.220	0.250	0.050
2020/01/31 08:34:30.6	312.830	-0.220	0.230	0.060
2020/01/31 08:34:30.7	312.820	-0.210	0.200	0.080
2020/01/31 08:34:30.8	312.820	-0.210	0.160	0.100
2020/01/31 08:34:30.9	312.820	-0.200	0.130	0.110
2020/01/31 08:34:31.0	312.810	-0.190	0.090	0.120
2020/01/31 08:34:31.1	312.800	-0.190	0.050	0.130
2020/01/31 08:34:31.2	312.800	-0.180	0.000	0.150
2020/01/31 08:34:31.3	312.790	-0.170	-0.040	0.160
2020/01/31 08:34:31.4	312.780	-0.160	-0.090	0.170
2020/01/31 08:34:31.5	312.780	-0.150	-0.130	0.180
2020/01/31 08:34:31.6	312.770	-0.140	-0.180	0.180
2020/01/31 08:34:31.7	312.760	-0.130	-0.230	0.190
2020/01/31 08:34:31.8	312.750	-0.120	-0.280	0.200
2020/01/31 08:34:31.9	312.740	-0.110	-0.330	0.210
2020/01/31 08:34:32.0	312.730	-0.100	-0.370	0.210
2020/01/31 08:34:32.1	312.720	-0.080	-0.410	0.220
2020/01/31 08:34:32.2	312.710	-0.070	-0.450	0.220
2020/01/31 08:34:32.3	312.700	-0.060	-0.490	0.230
2020/01/31 08:34:32.4	312.680	-0.050	-0.530	0.230
2020/01/31 08:34:32.5	312.670	-0.040	-0.560	0.230
2020/01/31 08:34:32.6	312.660	-0.030	-0.580	0.240
2020/01/31 08:34:32.7	312.650	-0.020	-0.600	0.240
2020/01/31 08:34:32.8	312.630	-0.010	-0.620	0.240
2020/01/31 08:34:32.9	312.620	0.000	-0.640	0.250
2020/01/31 08:34:33.0	312.600	0.010	-0.650	0.250
2020/01/31 08:34:33.1	312.580	0.020	-0.650	0.260
2020/01/31 08:34:33.2	312.570	0.030	-0.650	0.260
2020/01/31 08:34:33.3	312.550	0.040	-0.650	0.260
2020/01/31 08:34:33.4	312.550	0.040	-0.640	0.270
2020/01/31 08:34:33.5	312.530	0.050	-0.630	0.270
2020/01/31 08:34:33.6	312.510	0.050	-0.610	0.270
2020/01/31 08:34:33.7	312.500	0.060	-0.600	0.280
2020/01/31 08:34:33.8	312.480	0.060	-0.580	0.280
2020/01/31 08:34:33.9	312.460	0.070	-0.560	0.280
2020/01/31 08:34:34.0	312.450	0.070	-0.540	0.270
2020/01/31 08:34:34.1	312.440	0.070	-0.510	0.270
2020/01/31 08:34:34.2	312.430	0.070	-0.490	0.270
2020/01/31 08:34:34.3	312.420	0.080	-0.460	0.260
2020/01/31 08:34:34.4	312.410	0.080	-0.440	0.250
2020/01/31 08:34:34.5	312.400	0.080	-0.420	0.250
2020/01/31 08:34:34.6	312.390	0.080	-0.390	0.240
2020/01/31 08:34:34.7	312.390	0.080	-0.370	0.230
2020/01/31 08:34:34.8	312.390	0.080	-0.350	0.220
2020/01/31 08:34:34.9	312.380	0.090	-0.320	0.210
2020/01/31 08:34:35.0	312.380	0.090	-0.300	0.200
2020/01/31 08:34:35.1	312.380	0.090	-0.280	0.180
2020/01/31 08:34:35.2	312.390	0.090	-0.260	0.170
2020/01/31 08:34:35.3	312.390	0.090	-0.240	0.160
2020/01/31 08:34:35.4	312.390	0.100	-0.220	0.150
2020/01/31 08:34:35.5	312.400	0.100	-0.200	0.140
2020/01/31 08:34:35.6	312.400	0.100	-0.180	0.130
2020/01/31 08:34:35.7	312.410	0.110	-0.160	0.130
2020/01/31 08:34:35.8	312.420	0.110	-0.140	0.120
2020/01/31 08:34:35.9	312.420	0.110	-0.120	0.120
2020/01/31 08:34:36.0	312.430	0.120	-0.110	0.110
2020/01/31 08:34:36.1	312.440	0.120	-0.090	0.110
2020/01/31 08:34:36.2	312.440	0.130	-0.070	0.110
2020/01/31 08:34:36.3	312.450	0.130	-0.060	0.110
2020/01/31 08:34:36.4	312.460	0.130	-0.040	0.110
2020/01/31 08:34:36.5	312.470	0.140	-0.030	0.120
2020/01/31 08:34:36.6	312.470	0.140	-0.020	0.120
2020/01/31 08:34:36.7	312.480	0.140	-0.010	0.130
2020/01/31 08:34:36.8	312.490	0.150	0.000	0.140
2020/01/31 08:34:36.9	312.490	0.150	0.010	0.150
2020/01/31 08:34:37.0	312.500	0.150	0.010	0.160
2020/01/31 08:34:37.1	312.500	0.150	0.010	0.170
2020/01/31 08:34:37.2	312.500	0.160	0.010	0.180
2020/01/31 08:34:37.3	312.510	0.160	0.010	0.190
2020/01/31 08:34:37.4	312.520	0.160	0.000	0.200
2020/01/31 08:34:37.5	312.520	0.150	-0.010	0.210
2020/01/31 08:34:37.6	312.520	0.150	-0.020	0.220
2020/01/31 08:34:37.7	312.530	0.150	-0.030	0.240
2020/01/31 08:34:37.8	312.530	0.150	-0.050	0.250
2020/01/31 08:34:37.9	312.540	0.150	-0.080	0.260
2020/01/31 08:34:38.0	312.540	0.140	-0.100	0.270
2020/01/31 08:34:38.1	312.550	0.140	-0.130	0.280
2020/01/31 08:34:38.2	312.560	0.140	-0.160	0.290
2020/01/31 08:34:38.3	312.570	0.130	-0.190	0.290
2020/01/31 08:34:38.4	312.570	0.130	-0.220	0.300
2020/01/31 08:34:38.5	312.580	0.130	-0.260	0.300
2020/01/31 08:34:38.6	312.590	0.120	-0.300	0.310
2020/01/31 08:34:38.7	312.600	0.120	-0.330	0.310
2020/01/31 08:34:38.8	312.610	0.110	-0.370	0.320
2020/01/31 08:34:38.9	312.620	0.110	-0.410	0.320
2020/01/31 08:34:39.0	312.630	0.100	-0.450	0.320
2020/01/31 08:34:39.1	312.640	0.100	-0.490	0.330
2020/01/31 08:34:39.2	312.650	0.090	-0.520	0.330
2020/01/31 08:34:39.3	312.660	0.090	-0.560	0.330
2020/01/31 08:34:39.4	312.660	0.080	-0.590	0.330
2020/01/31 08:34:39.5	312.670	0.070	-0.620	0.340
2020/01/31 08:34:39.6	312.670	0.070	-0.640	0.340
2020/01/31 08:34:39.7	312.680	0.060	-0.660	0.340
2020/01/31 08:34:39.8	312.680	0.050	-0.680	0.340
2020/01/31 08:34:39.9	312.680	0.040	-0.690	0.350
2020/01/31 08:34:40.0	312.680	0.030	-0.700	0.350
2020/01/31 08:34:40.1	312.680	0.020	-0.710	0.350
2020/01/31 08:34:40.2	312.670	0.010	-0.710	0.360
2020/01/31 08:34:40.3	312.670	0.000	-0.710	0.360
2020/01/31 08:34:40.4	312.660	-0.010	-0.700	0.360
2020/01/31 08:34:40.5	312.650	-0.020	-0.690	0.360
2020/01/31 08:34:40.6	312.650	-0.040	-0.680	0.350
2020/01/31 08:34:40.7	312.640	-0.050	-0.660	0.350
2020/01/31 08:34:40.8	312.640	-0.070	-0.640	0.340
2020/01/31 08:34:40.9	312.640	-0.080	-0.620	0.330
2020/01/31 08:34:41.0	312.640	-0.100	-0.590	0.320
2020/01/31 08:34:41.1	312.630	-0.120	-0.570	0.310
2020/01/31 08:34:41.2	312.630	-0.140	-0.540	0.300
2020/01/31 08:34:41.3	312.630	-0.150	-0.510	0.280
2020/01/31 08:34:41.4	312.650	-0.170	-0.470	0.270
2020/01/31 08:34:41.5	312.650	-0.190	-0.440	0.250
2020/01/31 08:34:41.6	312.660	-0.210	-0.410	0.230
2020/01/31 08:34:41.7	312.660	-0.220	-0.380	0.210
2020/01/31 08:34:41.8	312.670	-0.240	-0.340	0.190
2020/01/31 08:34:41.9	312.680	-0.250	-0.310	0.160
2020/01/31 08:34:42.0	312.690	-0.270	-0.280	0.140
2020/01/31 08:34:42.1	312.700	-0.280	-0.250	0.120
2020/01/31 08:34:42.2	312.710	-0.300	-0.210	0.090
2020/01/31 08:34:42.3	312.720	-0.310	-0.180	0.070
2020/01/31 08:34:42.4	312.730	-0.320	-0.150	0.050
2020/01/31 08:34:42.5	312.740	-0.330	-0.120	0.030
2020/01/31 08:34:42.6	312.750	-0.340	-0.090	0.010
2020/01/31 08:34:42.7	312.770	-0.350	-0.060	-0.000
2020/01/31 08:34:42.8	312.780	-0.350	-0.020	-0.020
2020/01/31 08:34:42.9	312.780	-0.360	0.010	-0.030
2020/01/31 08:34:43.0	312.790	-0.360	0.040	-0.040
2020/01/31 08:34:43.1	312.800	-0.360	0.070	-0.050
2020/01/31 08:34:43.2	312.800	-0.360	0.090	-0.050
2020/01/31 08:34:43.3	312.800	-0.360	0.120	-0.060
2020/01/31 08:34:43.4	312.800	-0.350	0.150	-0.060
2020/01/31 08:34:43.5	312.800	-0.350	0.170	-0.050
2020/01/31 08:34:43.6	312.800	-0.340	0.190	-0.050
2020/01/31 08:34:43.7	312.790	-0.330	0.210	-0.040
2020/01/31 08:34:43.8	312.790	-0.320	0.230	-0.040
2020/01/31 08:34:43.9	312.780	-0.310	0.240	-0.030
2020/01/31 08:34:44.0	312.770	-0.290	0.260	-0.010
2020/01/31 08:34:44.1	312.770	-0.280	0.270	0.000
2020/01/31 08:34:44.2	312.760	-0.260	0.270	0.020
2020/01/31 08:34:44.3	312.750	-0.240	0.280	0.040
2020/01/31 08:34:44.4	312.750	-0.220	0.280	0.060
2020/01/31 08:34:44.5	312.740	-0.200	0.280	0.080
2020/01/31 08:34:44.6	312.730	-0.180	0.280	0.100
2020/01/31 08:34:44.7	312.720	-0.160	0.270	0.130
2020/01/31 08:34:44.8	312.710	-0.130	0.260	0.150
2020/01/31 08:34:44.9	312.700	-0.110	0.250	0.180
2020/01/31 08:34:45.0	312.690	-0.080	0.230	0.210
2020/01/31 08:34:45.1	312.680	-0.050	0.210	0.240
2020/01/31 08:34:45.2	312.670	-0.030	0.190	0.270
2020/01/31 08:34:45.3	312.670	0.000	0.170	0.300
2020/01/31 08:34:45.4	312.680	0.030	0.150	0.330
2020/01/31 08:34:45.5	312.670	0.060	0.120	0.360
2020/01/31 08:34:45.6	312.660	0.090	0.100	0.390
2020/01/31 08:34:45.7	312.650	0.110	0.070	0.420
2020/01/31 08:34:45.8	312.640	0.140	0.040	0.450
2020/01/31 08:34:45.9	312.630	0.170	0.010	0.480
2020/01/31 08:34:46.0	312.620	0.190	-0.020	0.520
2020/01/31 08:34:46.1	312.610	0.220	-0.040	0.550
2020/01/31 08:34:46.2	312.600	0.240	-0.070	0.580
2020/01/31 08:34:46.3	312.590	0.260	-0.100	0.610
2020/01/31 08:34:46.4	312.570	0.280	-0.130	0.640
2020/01/31 08:34:46.5	312.560	0.300	-0.160	0.660
2020/01/31 08:34:46.6	312.540	0.310	-0.190	0.690
2020/01/31 08:34:46.7	312.530	0.330	-0.220	0.710
2020/01/31 08:34:46.8	312.510	0.340	-0.240	0.740
2020/01/31 08:34:46.9	312.500	0.350	-0.270	0.760
2020/01/31 08:34:47.0	312.490	0.360	-0.290	0.780
2020/01/31 08:34:47.1	312.470	0.360	-0.320	0.790
2020/01/31 08:34:47.2	312.460	0.360	-0.340	0.800
2020/01/31 08:34:47.3	312.450	0.370	-0.370	0.810
2020/01/31 08:34:47.4	312.440	0.360	-0.390	0.820
2020/01/31 08:34:47.5	312.430	0.360	-0.410	0.820
2020/01/31 08:34:47.6	312.430	0.360	-0.430	0.820
2020/01/31 08:34:47.7	312.430	0.350	-0.450	0.820
2020/01/31 08:34:47.8	312.430	0.340	-0.470	0.810
2020/01/31 08:34:47.9	312.430	0.330	-0.490	0.810
2020/01/31 08:34:48.0	312.430	0.320	-0.510	0.790
2020/01/31 08:34:48.1	312.440	0.310	-0.530	0.780
2020/01/31 08:34:48.2	312.440	0.300	-0.540	0.770
2020/01/31 08:34:48.3	312.450	0.280	-0.560	0.750
2020/01/31 08:34:48.4	312.450	0.270	-0.570	0.720
2020/01/31 08:34:48.5	312.460	0.250	-0.580	0.700
2020/01/31 08:34:48.6	312.470	0.230	-0.580	0.680
2020/01/31 08:34:48.7	312.490	0.220	-0.590	0.650
2020/01/31 08:34:48.8	312.500	0.200	-0.600	0.630
2020/01/31 08:34:48.9	312.510	0.180	-0.600	0.600
2020/01/31 08:34:49.0	312.530	0.170	-0.600	0.580
2020/01/31 08:34:49.1	312.540	0.150	-0.600	0.550
2020/01/31 08:34:49.2	312.560	0.130	-0.590	0.520
2020/01/31 08:34:49.3	312.570	0.110	-0.590	0.490
2020/01/31 08:34:49.4	312.590	0.100	-0.580	0.470
2020/01/31 08:34:49.5	312.610	0.080	-0.570	0.440
2020/01/31 08:34:49.6	312.630	0.070	-0.560	0.410
2020/01/31 08:34:49.7	312.650	0.050	-0.540	0.380
2020/01/31 08:34:49.8	312.670	0.040	-0.530	0.360
2020/01/31 08:34:49.9	312.680	0.020	-0.510	0.330
2020/01/31 08:34:50.0	312.700	0.010	-0.490	0.300
2020/01/31 08:34:50.1	312.720	-0.000	-0.470	0.270
2020/01/31 08:34:50.2	312.740	-0.010	-0.450	0.250
2020/01/31 08:34:50.3	312.760	-0.020	-0.430	0.220
2020/01/31 08:34:50.4	312.770	-0.040	-0.410	0.200
2020/01/31 08:34:50.5	312.790	-0.050	-0.390	0.180
2020/01/31 08:34:50.6	312.810	-0.050	-0.370	0.160
2020/01/31 08:34:50.7	312.820	-0.060	-0.350	0.140
2020/01/31 08:34:50.8	312.840	-0.070	-0.330	0.110
2020/01/31 08:34:50.9	312.850	-0.080	-0.310	0.100
2020/01/31 08:34:51.0	312.870	-0.090	-0.290	0.080
2020/01/31 08:34:51.1	312.880	-0.100	-0.270	0.060
2020/01/31 08:34:51.2	312.890	-0.110	-0.250	0.040
2020/01/31 08:34:51.3	312.900	-0.110	-0.240	0.030
2020/01/31 08:34:51.4	312.900	-0.120	-0.230	0.010
2020/01/31 08:34:51.5	312.910	-0.130	-0.210	-0.000
2020/01/31 08:34:51.6	312.920	-0.140	-0.200	-0.010
2020/01/31 08:34:51.7	312.920	-0.140	-0.190	-0.020
2020/01/31 08:34:51.8	312.930	-0.150	-0.180	-0.030
2020/01/31 08:34:51.9	312.930	-0.160	-0.170	-0.040
2020/01/31 08:34:52.0	312.930	-0.170	-0.160	-0.050
2020/01/31 08:34:52.1	312.930	-0.170	-0.150	-0.060
2020/01/31 08:34:52.2	312.930	-0.180	-0.150	-0.060
2020/01/31 08:34:52.3	312.920	-0.190	-0.140	-0.060
2020/01/31 08:34:52.4	312.920	-0.200	-0.130	-0.060
2020/01/31 08:34:52.5	312.910	-0.210	-0.130	-0.070
2020/01/31 08:34:52.6	312.900	-0.210	-0.130	-0.070
2020/01/31 08:34:52.7	312.890	-0.220	-0.120	-0.070
2020/01/31 08:34:52.8	312.880	-0.230	-0.120	-0.060
2020/01/31 08:34:52.9	312.870	-0.230	-0.120	-0.060
2020/01/31 08:34:53.0	312.860	-0.240	-0.120	-0.060
2020/01/31 08:34:53.1	312.850	-0.250	-0.120	-0.060
2020/01/31 08:34:53.2	312.840	-0.250	-0.130	-0.050
2020/01/31 08:34:53.3	312.830	-0.250	-0.130	-0.050
2020/01/31 08:34:53.4	312.820	-0.260	-0.130	-0.050
2020/01/31 08:34:53.5	312.810	-0.260	-0.140	-0.040
2020/01/31 08:34:53.6	312.800	-0.260	-0.150	-0.040
2020/01/31 08:34:53.7	312.790	-0.260	-0.160	-0.030
2020/01/31 08:34:53.8	312.780	-0.260	-0.170	-0.020
2020/01/31 08:34:53.9	312.770	-0.250	-0.180	-0.010
2020/01/31 08:34:54.0	312.760	-0.250	-0.190	-0.000
2020/01/31 08:34:54.1	312.750	-0.240	-0.200	0.010
2020/01/31 08:34:54.2	312.740	-0.230	-0.210	0.020
2020/01/31 08:34:54.3	312.740	-0.220	-0.230	0.040
2020/01/31 08:34:54.4	312.750	-0.210	-0.240	0.060
2020/01/31 08:34:54.5	312.740	-0.200	-0.250	0.070
2020/01/31 08:34:54.6	312.730	-0.190	-0.260	0.100
2020/01/31 08:34:54.7	312.720	-0.170	-0.280	0.120
2020/01/31 08:34:54.8	312.720	-0.160	-0.290	0.140
2020/01/31 08:34:54.9	312.710	-0.140	-0.300	0.170
2020/01/31 08:34:55.0	312.710	-0.120	-0.310	0.190
2020/01/31 08:34:55.1	312.700	-0.100	-0.320	0.220
2020/01/31 08:34:55.2	312.700	-0.080	-0.330	0.250
2020/01/31 08:34:55.3	312.690	-0.060	-0.330	0.280
2020/01/31 08:34:55.4	312.690	-0.040	-0.340	0.310
2020/01/31 08:34:55.5	312.680	-0.020	-0.350	0.340
2020/01/31 08:34:55.6	312.680	0.000	-0.360	0.370
2020/01/31 08:34:55.7	312.680	0.030	-0.360	0.400
2020/01/31 08:34:55.8	312.680	0.050	-0.370	0.420
2020/01/31 08:34:55.9	312.680	0.070	-0.370	0.450
2020/01/31 08:34:56.0	312.690	0.090	-0.370	0.480
2020/01/31 08:34:56.1	312.690	0.120	-0.370	0.500
2020/01/31 08:34:56.2	312.690	0.140	-0.380	0.530
2020/01/31 08:34:56.3	312.700	0.160	-0.380	0.550
2020/01/31 08:34:56.4	312.690	0.180	-0.370	0.570
2020/01/31 08:34:56.5	312.690	0.200	-0.370	0.590
2020/01/31 08:34:56.6	312.690	0.220	-0.370	0.620
2020/01/31 08:34:56.7	312.700	0.230	-0.360	0.640
2020/01/31 08:34:56.8	312.700	0.250	-0.360	0.660
2020/01/31 08:34:56.9	312.700	0.260	-0.350	0.680
2020/01/31 08:34:57.0	312.700	0.270	-0.340	0.700
2020/01/31 08:34:57.1	312.700	0.280	-0.330	0.720
2020/01/31 08:34:57.2	312.700	0.290	-0.320	0.740
2020/01/31 08:34:57.3	312.700	0.300	-0.310	0.760
2020/01/31 08:34:57.4	312.700	0.300	-0.300	0.780
2020/01/31 08:34:57.5	312.700	0.310	-0.280	0.800
2020/01/31 08:34:57.6	312.700	0.310	-0.270	0.810
2020/01/31 08:34:57.7	312.690	0.310	-0.250	0.820
2020/01/31 08:34:57.8	312.690	0.300	-0.230	0.840
2020/01/31 08:34:57.9	312.680	0.300	-0.210	0.840
2020/01/31 08:34:58.0	312.680	0.300	-0.190	0.850
2020/01/31 08:34:58.1	312.670	0.290	-0.170	0.860
2020/01/31 08:34:58.2	312.670	0.280	-0.150	0.860
2020/01/31 08:34:58.3	312.660	0.270	-0.130	0.860
2020/01/31 08:34:58.4	312.640	0.260	-0.110	0.860
2020/01/31 08:34:58.5	312.640	0.250	-0.080	0.850
2020/01/31 08:34:58.6	312.630	0.240	-0.060	0.840
2020/01/31 08:34:58.7	312.630	0.230	-0.040	0.830
2020/01/31 08:34:58.8	312.620	0.220	-0.020	0.820
2020/01/31 08:34:58.9	312.620	0.210	0.010	0.810
2020/01/31 08:34:59.0	312.620	0.200	0.030	0.790
2020/01/31 08:34:59.1	312.620	0.180	0.050	0.770
2020/01/31 08:34:59.2	312.610	0.170	0.070	0.760
2020/01/31 08:34:59.3	312.610	0.160	0.090	0.740
2020/01/31 08:34:59.4	312.610	0.150	0.110	0.710
2020/01/31 08:34:59.5	312.610	0.130	0.130	0.690
2020/01/31 08:34:59.6	312.610	0.120	0.150	0.670
2020/01/31 08:34:59.7	312.600	0.110	0.160	0.650
2020/01/31 08:34:59.8	312.600	0.100	0.180	0.620
2020/01/31 08:34:59.9	312.600	0.090	0.190	0.600
2020/01/31 08:35:00.0	312.600	0.070	0.200	0.580
2020/01/31 08:35:00.1	312.600	0.060	0.210	0.550
2020/01/31 08:35:00.2	312.600	0.050	0.210	0.530
2020/01/31 08:35:00.3	312.600	0.040	0.210	0.500
2020/01/31 08:35:00.4	312.600	0.030	0.210	0.480
2020/01/31 08:35:00.5	312.600	0.020	0.210	0.450
2020/01/31 08:35:00.6	312.600	0.010	0.200	0.420
2020/01/31 08:35:00.7	312.600	-0.000	0.190	0.390
2020/01/31 08:35:00.8	312.600	-0.010	0.180	0.360
2020/01/31 08:35:00.9	312.610	-0.020	0.160	0.330
2020/01/31 08:35:01.0	312.610	-0.040	0.140	0.300
2020/01/31 08:35:01.1	312.610	-0.050	0.110	0.270
2020/01/31 08:35:01.2	312.620	-0.060	0.090	0.240
2020/01/31 08:35:01.3	312.620	-0.070	0.060	0.210
2020/01/31 08:35:01.4	312.620	-0.080	0.030	0.170
2020/01/31 08:35:01.5	312.620	-0.090	-0.010	0.140
2020/01/31 08:35:01.6	312.630	-0.090	-0.040	0.110
2020/01/31 08:35:01.7	312.640	-0.100	-0.080	0.070
2020/01/31 08:35:01.8	312.640	-0.110	-0.120	0.040
2020/01/31 08:35:01.9	312.650	-0.120	-0.160	0.010
2020/01/31 08:35:02.0	312.660	-0.130	-0.200	-0.030
2020/01/31 08:35:02.1	312.670	-0.140	-0.250	-0.060
2020/01/31 08:35:02.2	312.680	-0.140	-0.290	-0.090
2020/01/31 08:35:02.3	312.680	-0.150	-0.330	-0.120
2020/01/31 08:35:02.4	312.700	-0.160	-0.370	-0.150
2020/01/31 08:35:02.5	312.710	-0.160	-0.410	-0.180
2020/01/31 08:35:02.6	312.720	-0.170	-0.450	-0.210
2020/01/31 08:35:02.7	312.720	-0.170	-0.480	-0.230
2020/01/31 08:35:02.8	312.730	-0.170	-0.510	-0.260
2020/01/31 08:35:02.9	312.740	-0.180	-0.540	-0.280
2020/01/31 08:35:03.0	312.750	-0.180	-0.570	-0.300
2020/01/31 08:35:03.1	312.760	-0.180	-0.590	-0.320
2020/01/31 08:35:03.2	312.770	-0.180	-0.620	-0.340
2020/01/31 08:35:03.3	312.780	-0.180	-0.630	-0.350
2020/01/31 08:35:03.4	312.790	-0.180	-0.650	-0.360
2020/01/31 08:35:03.5	312.800	-0.180	-0.660	-0.380
2020/01/31 08:35:03.6	312.810	-0.180	-0.670	-0.390
2020/01/31 08:35:03.7	312.830	-0.170	-0.680	-0.400
2020/01/31 08:35:03.8	312.840	-0.170	-0.690	-0.400
2020/01/31 08:35:03.9	312.850	-0.170	-0.690	-0.410
2020/01/31 08:35:04.0	312.870	-0.160	-0.700	-0.410
2020/01/31 08:35:04.1	312.880	-0.160	-0.700	-0.410
2020/01/31 08:35:04.2	312.900	-0.160	-0.690	-0.410
2020/01/31 08:35:04.3	312.920	-0.150	-0.690	-0.400
2020/01/31 08:35:04.4	312.950	-0.150	-0.680	-0.390
2020/01/31 08:35:04.5	312.970	-0.140	-0.680	-0.380
2020/01/31 08:35:04.6	312.980	-0.140	-0.670	-0.370
2020/01/31 08:35:04.7	313.000	-0.130	-0.660	-0.350
2020/01/31 08:35:04.8	313.020	-0.130	-0.650	-0.330
2020/01/31 08:35:04.9	313.030	-0.130	-0.640	-0.300
2020/01/31 08:35:05.0	313.050	-0.120	-0.630	-0.270
2020/01/31 08:35:05.1	313.060	-0.120	-0.610	-0.240
2020/01/31 08:35:05.2	313.080	-0.120	-0.590	-0.210
2020/01/31 08:35:05.3	313.090	-0.110	-0.580	-0.170
2020/01/31 08:35:05.4	313.110	-0.110	-0.560	-0.130
2020/01/31 08:35:05.5	313.120	-0.110	-0.540	-0.090
2020/01/31 08:35:05.6	313.130	-0.110	-0.520	-0.040
2020/01/31 08:35:05.7	313.140	-0.110	-0.500	0.000
2020/01/31 08:35:05.8	313.150	-0.110	-0.470	0.050
2020/01/31 08:35:05.9	313.150	-0.110	-0.450	0.100
2020/01/31 08:35:06.0	313.150	-0.110	-0.420	0.140
2020/01/31 08:35:06.1	313.150	-0.110	-0.400	0.190
2020/01/31 08:35:06.2	313.150	-0.100	-0.370	0.240
2020/01/31 08:35:06.3	313.150	-0.100	-0.340	0.290
2020/01/31 08:35:06.4	313.150	-0.100	-0.320	0.350
2020/01/31 08:35:06.5	313.140	-0.100	-0.290	0.400
2020/01/31 08:35:06.6	313.130	-0.100	-0.260	0.450
2020/01/31 08:35:06.7	313.120	-0.090	-0.240	0.500
2020/01/31 08:35:06.8	313.100	-0.090	-0.210	0.550
2020/01/31 08:35:06.9	313.090	-0.090	-0.190	0.600
2020/01/31 08:35:07.0	313.070	-0.080	-0.160	0.650
2020/01/31 08:35:07.1	313.050	-0.070	-0.140	0.690
2020/01/31 08:35:07.2	313.020	-0.070	-0.120	0.740
2020/01/31 08:35:07.3	313.000	-0.060	-0.100	0.780
2020/01/31 08:35:07.4	312.970	-0.050	-0.080	0.820
2020/01/31 08:35:07.5	312.950	-0.040	-0.070	0.860
2020/01/31 08:35:07.6	312.930	-0.020	-0.060	0.890
2020/01/31 08:35:07.7	312.910	-0.010	-0.060	0.920
2020/01/31 08:35:07.8	312.880	0.010	-0.060	0.950
2020/01/31 08:35:07.9	312.860	0.020	-0.060	0.970
2020/01/31 08:35:08.0	312.840	0.040	-0.060	0.990
2020/01/31 08:35:08.1	312.820	0.060	-0.070	1.010
2020/01/31 08:35:08.2	312.810	0.080	-0.080	1.020
2020/01/31 08:35:08.3	312.790	0.100	-0.100	1.030
2020/01/31 08:35:08.4	312.750	0.120	-0.110	1.030
2020/01/31 08:35:08.5	312.740	0.140	-0.130	1.030
2020/01/31 08:35:08.6	312.730	0.170	-0.160	1.030
2020/01/31 08:35:08.7	312.710	0.190	-0.180	1.020
2020/01/31 08:35:08.8	312.700	0.210	-0.200	1.000
2020/01/31 08:35:08.9	312.690	0.230	-0.230	0.990
2020/01/31 08:35:09.0	312.680	0.250	-0.260	0.970
2020/01/31 08:35:09.1	312.670	0.270	-0.280	0.950
2020/01/31 08:35:09.2	312.660	0.290	-0.310	0.940
2020/01/31 08:35:09.3	312.660	0.310	-0.330	0.910
2020/01/31 08:35:09.4	312.650	0.320	-0.360	0.890
2020/01/31 08:35:09.5	312.650	0.330	-0.380	0.870
2020/01/31 08:35:09.6	312.640	0.350	-0.400	0.840
2020/01/31 08:35:09.7	312.640	0.350	-0.420	0.820
2020/01/31 08:35:09.8	312.640	0.360	-0.430	0.800
2020/01/31 08:35:09.9	312.650	0.360	-0.440	0.770
2020/01/31 08:35:10.0	312.650	0.370	-0.450	0.750
2020/01/31 08:35:10.1	312.660	0.360	-0.450	0.720
2020/01/31 08:35:10.2	312.660	0.360	-0.450	0.700
2020/01/31 08:35:10.3	312.670	0.350	-0.450	0.670
2020/01/31 08:35:10.4	312.700	0.340	-0.440	0.650
2020/01/31 08:35:10.5	312.710	0.330	-0.430	0.620
2020/01/31 08:35:10.6	312.720	0.310	-0.420	0.600
2020/01/31 08:35:10.7	312.740	0.290	-0.400	0.570
2020/01/31 08:35:10.8	312.750	0.270	-0.380	0.540
2020/01/31 08:35:10.9	312.760	0.250	-0.360	0.520
2020/01/31 08:35:11.0	312.780	0.220	-0.330	0.490
2020/01/31 08:35:11.1	312.790	0.200	-0.300	0.460
2020/01/31 08:35:11.2	312.810	0.170	-0.270	0.440
2020/01/31 08:35:11.3	312.820	0.140	-0.230	0.420
2020/01/31 08:35:11.4	312.830	0.110	-0.200	0.400
2020/01/31 08:35:11.5	312.840	0.070	-0.150	0.370
2020/01/31 08:35:11.6	312.850	0.040	-0.110	0.350
2020/01/31 08:35:11.7	312.860	0.000	-0.060	0.330
2020/01/31 08:35:11.8	312.860	-0.030	-0.010	0.320
2020/01/31 08:35:11.9	312.870	-0.060	0.030	0.300
2020/01/31 08:35:12.0	312.870	-0.100	0.090	0.290
2020/01/31 08:35:12.1	312.870	-0.130	0.140	0.270
2020/01/31 08:35:12.2	312.870	-0.160	0.190	0.260
2020/01/31 08:35:12.3	312.870	-0.190	0.240	0.250
2020/01/31 08:35:12.4	312.850	-0.220	0.290	0.240
2020/01/31 08:35:12.5	312.840	-0.250	0.340	0.230
2020/01/31 08:35:12.6	312.840	-0.270	0.390	0.230
2020/01/31 08:35:12.7	312.830	-0.290	0.430	0.220
2020/01/31 08:35:12.8	312.820	-0.310	0.470	0.220
2020/01/31 08:35:12.9	312.810	-0.330	0.510	0.220
2020/01/31 08:35:13.0	312.800	-0.350	0.540	0.210
2020/01/31 08:35:13.1	312.790	-0.360	0.570	0.210
2020/01/31 08:35:13.2	312.780	-0.370	0.590	0.210
2020/01/31 08:35:13.3	312.770	-0.370	0.610	0.210
2020/01/31 08:35:13.4	312.750	-0.380	0.620	0.210
2020/01/31 08:35:13.5	312.740	-0.380	0.620	0.210
2020/01/31 08:35:13.6	312.730	-0.370	0.620	0.210
2020/01/31 08:35:13.7	312.720	-0.370	0.610	0.210
2020/01/31 08:35:13.8	312.720	-0.360	0.590	0.200
2020/01/31 08:35:13.9	312.710	-0.350	0.570	0.200
2020/01/31 08:35:14.0	312.710	-0.330	0.540	0.190
2020/01/31 08:35:14.1	312.710	-0.320	0.500	0.180
2020/01/31 08:35:14.2	312.700	-0.300	0.460	0.170
2020/01/31 08:35:14.3	312.700	-0.270	0.410	0.160
2020/01/31 08:35:14.4	312.710	-0.250	0.360	0.150
2020/01/31 08:35:14.5	312.710	-0.220	0.300	0.130
2020/01/31 08:35:14.6	312.720	-0.200	0.230	0.120
2020/01/31 08:35:14.7	312.720	-0.170	0.160	0.100
2020/01/31 08:35:14.8	312.730	-0.140	0.090	0.080
2020/01/31 08:35:14.9	312.740	-0.110	0.010	0.060
2020/01/31 08:35:15.0	312.750	-0.070	-0.070	0.040
2020/01/31 08:35:15.1	312.770	-0.040	-0.150	0.020
2020/01/31 08:35:15.2	312.780	-0.010	-0.230	-0.000
2020/01/31 08:35:15.3	312.790	0.020	-0.310	-0.020
2020/01/31 08:35:15.4	312.820	0.050	-0.390	-0.040
2020/01/31 08:35:15.5	312.830	0.080	-0.460	-0.060
2020/01/31 08:35:15.6	312.850	0.110	-0.540	-0.080
2020/01/31 08:35:15.7	312.860	0.140	-0.610	-0.100
2020/01/31 08:35:15.8	312.880	0.170	-0.670	-0.120
2020/01/31 08:35:15.9	312.890	0.190	-0.730	-0.140
2020/01/31 08:35:16.0	312.900	0.220	-0.790	-0.150
2020/01/31 08:35:16.1	312.920	0.240	-0.840	-0.170
2020/01/31 08:35:16.2	312.930	0.260	-0.880	-0.180
2020/01/31 08:35:16.3	312.940	0.270	-0.920	-0.180
2020/01/31 08:35:16.4	312.950	0.290	-0.950	-0.190
2020/01/31 08:35:16.5	312.960	0.300	-0.970	-0.190
2020/01/31 08:35:16.6	312.970	0.310	-0.990	-0.190
2020/01/31 08:35:16.7	312.980	0.320	-1.000	-0.180
2020/01/31 08:35:16.8	312.990	0.330	-1.000	-0.180
2020/01/31 08:35:16.9	312.990	0.330	-0.990	-0.160
2020/01/31 08:35:17.0	313.000	0.330	-0.980	-0.150
2020/01/31 08:35:17.1	313.000	0.340	-0.970	-0.130
2020/01/31 08:35:17.2	313.000	0.330	-0.950	-0.110
2020/01/31 08:35:17.3	313.000	0.330	-0.920	-0.080
2020/01/31 08:35:17.4	313.020	0.330	-0.890	-0.040
2020/01/31 08:35:17.5	313.020	0.320	-0.860	-0.010
2020/01/31 08:35:17.6	313.020	0.320	-0.820	0.020
2020/01/31 08:35:17.7	313.010	0.310	-0.780	0.060
2020/01/31 08:35:17.8	313.010	0.300	-0.740	0.100
2020/01/31 08:35:17.9	313.000	0.290	-0.700	0.140
2020/01/31 08:35:18.0	313.000	0.280	-0.660	0.180
2020/01/31 08:35:18.1	312.990	0.270	-0.620	0.220
2020/01/31 08:35:18.2	312.980	0.260	-0.580	0.270
2020/01/31 08:35:18.3	312.980	0.250	-0.540	0.310
2020/01/31 08:35:18.4	312.980	0.240	-0.500	0.350
2020/01/31 08:35:18.5	312.970	0.230	-0.460	0.390
2020/01/31 08:35:18.6	312.960	0.210	-0.430	0.440
2020/01/31 08:35:18.7	312.950	0.200	-0.400	0.480
2020/01/31 08:35:18.8	312.940	0.190	-0.370	0.510
2020/01/31 08:35:18.9	312.930	0.170	-0.350	0.550
2020/01/31 08:35:19.0	312.920	0.160	-0.330	0.590
2020/01/31 08:35:19.1	312.910	0.140	-0.320	0.620
2020/01/31 08:35:19.2	312.900	0.130	-0.310	0.650
2020/01/31 08:35:19.3	312.890	0.110	-0.300	0.680
2020/01/31 08:35:19.4	312.860	0.100	-0.300	0.710
2020/01/31 08:35:19.5	312.850	0.080	-0.300	0.730
2020/01/31 08:35:19.6	312.840	0.060	-0.300	0.750
2020/01/31 08:35:19.7	312.830	0.050	-0.310	0.770
2020/01/31 08:35:19.8	312.820	0.030	-0.320	0.780
2020/01/31 08:35:19.9	312.810	0.010	-0.330	0.790
2020/01/31 08:35:20.0	312.810	-0.010	-0.350	0.790
2020/01/31 08:35:20.1	312.800	-0.030	-0.360	0.790
2020/01/31 08:35:20.2	312.790	-0.050	-0.380	0.790
2020/01/31 08:35:20.3	312.780	-0.080	-0.390	0.780
2020/01/31 08:35:20.4	312.760	-0.100	-0.410	0.770
2020/01/31 08:35:20.5	312.750	-0.120	-0.420	0.760
2020/01/31 08:35:20.6	312.740	-0.150	-0.430	0.740
2020/01/31 08:35:20.7	312.740	-0.180	-0.450	0.720
2020/01/31 08:35:20.8	312.730	-0.200	-0.460	0.700
2020/01/31 08:35:20.9	312.720	-0.230	-0.460	0.680
2020/01/31 08:35:21.0	312.710	-0.260	-0.470	0.660
2020/01/31 08:35:21.1	312.700	-0.290	-0.470	0.630
2020/01/31 08:35:21.2	312.690	-0.320	-0.470	0.610
2020/01/31 08:35:21.3	312.680	-0.340	-0.470	0.580
2020/01/31 08:35:21.4	312.670	-0.370	-0.460	0.560
2020/01/31 08:35:21.5	312.660	-0.400	-0.450	0.530
2020/01/31 08:35:21.6	312.650	-0.430	-0.440	0.500
2020/01/31 08:35:21.7	312.640	-0.460	-0.420	0.480
2020/01/31 08:35:21.8	312.630	-0.480	-0.400	0.460
2020/01/31 08:35:21.9	312.620	-0.510	-0.380	0.430
2020/01/31 08:35:22.0	312.610	-0.530	-0.360	0.410
2020/01/31 08:35:22.1	312.610	-0.550	-0.330	0.390
2020/01/31 08:35:22.2	312.600	-0.570	-0.300	0.370
2020/01/31 08:35:22.3	312.590	-0.590	-0.280	0.340
2020/01/31 08:35:22.4	312.590	-0.600	-0.250	0.330
2020/01/31 08:35:22.5	312.580	-0.620	-0.220	0.310
2020/01/31 08:35:22.6	312.570	-0.630	-0.190	0.290
2020/01/31 08:35:22.7	312.570	-0.630	-0.170	0.260
2020/01/31 08:35:22.8	312.570	-0.630	-0.140	0.240
2020/01/31 08:35:22.9	312.570	-0.630	-0.110	0.220
2020/01/31 08:35:23.0	312.570	-0.630	-0.090	0.200
2020/01/31 08:35:23.1	312.570	-0.620	-0.070	0.180
2020/01/31 08:35:23.2	312.580	-0.610	-0.050	0.150
2020/01/31 08:35:23.3	312.580	-0.590	-0.030	0.130
2020/01/31 08:35:23.4	312.590	-0.570	-0.030	0.100
2020/01/31 08:35:23.5	312.600	-0.540	-0.010	0.070
2020/01/31 08:35:23.6	312.620	-0.510	-0.010	0.050
2020/01/31 08:35:23.7	312.640	-0.480	-0.000	0.020
2020/01/31 08:35:23.8	312.660	-0.450	-0.000	-0.010
2020/01/31 08:35:23.9	312.680	-0.410	-0.000	-0.040
2020/01/31 08:35:24.0	312.710	-0.360	-0.000	-0.060
2020/01/31 08:35:24.1	312.730	-0.320	-0.010	-0.090
2020/01/31 08:35:24.2	312.760	-0.270	-0.010	-0.110
2020/01/31 08:35:24.3	312.790	-0.220	-0.020	-0.130
2020/01/31 08:35:24.4	312.800	-0.170	-0.030	-0.150
2020/01/31 08:35:24.5	312.830	-0.120	-0.040	-0.170
2020/01/31 08:35:24.6	312.860	-0.070	-0.050	-0.180
2020/01/31 08:35:24.7	312.890	-0.020	-0.060	-0.190
2020/01/31 08:35:24.8	312.910	0.040	-0.070	-0.200
2020/01/31 08:35:24.9	312.940	0.090	-0.080	-0.200
2020/01/31 08:35:25.0	312.960	0.140	-0.090	-0.200
2020/01/31 08:35:25.1	312.980	0.190	-0.090	-0.200
2020/01/31 08:35:25.2	313.010	0.240	-0.100	-0.200
2020/01/31 08:35:25.3	313.030	0.280	-0.100	-0.190
2020/01/31 08:35:25.4	313.050	0.330	-0.090	-0.180
2020/01/31 08:35:25.5	313.070	0.370	-0.090	-0.160
2020/01/31 08:35:25.6	313.080	0.410	-0.080	-0.150
2020/01/31 08:35:25.7	313.100	0.440	-0.070	-0.130
2020/01/31 08:35:25.8	313.110	0.480	-0.060	-0.110
2020/01/31 08:35:25.9	313.120	0.500	-0.040	-0.080
2020/01/31 08:35:26.0	313.130	0.530	-0.020	-0.050
2020/01/31 08:35:26.1	313.140	0.550	-0.000	-0.020
2020/01/31 08:35:26.2	313.150	0.570	0.020	0.010
2020/01/31 08:35:26.3	313.150	0.580	0.050	0.040
2020/01/31 08:35:26.4	313.170	0.590	0.090	0.080
2020/01/31 08:35:26.5	313.170	0.600	0.120	0.120
2020/01/31 08:35:26.6	313.170	0.600	0.150	0.160
2020/01/31 08:35:26.7	313.170	0.600	0.190	0.200
2020/01/31 08:35:26.8	313.170	0.590	0.220	0.250
2020/01/31 08:35:26.9	313.170	0.590	0.260	0.290
2020/01/31 08:35:27.0	313.160	0.580	0.290	0.340
2020/01/31 08:35:27.1	313.160	0.560	0.330	0.390
2020/01/31 08:35:27.2	313.150	0.540	0.370	0.440
2020/01/31 08:35:27.3	313.140	0.520	0.400	0.490
2020/01/31 08:35:27.4	313.110	0.500	0.440	0.540
2020/01/31 08:35:27.5	313.090	0.480	0.470	0.590
2020/01/31 08:35:27.6	313.070	0.450	0.500	0.640
2020/01/31 08:35:27.7	313.050	0.420	0.520	0.690
2020/01/31 08:35:27.8	313.030	0.390	0.540	0.730
2020/01/31 08:35:27.9	313.010	0.360	0.560	0.780
2020/01/31 08:35:28.0	312.980	0.320	0.570	0.820
2020/01/31 08:35:28.1	312.950	0.290	0.580	0.860
2020/01/31 08:35:28.2	312.930	0.260	0.580	0.890
2020/01/31 08:35:28.3	312.900	0.220	0.580	0.920
2020/01/31 08:35:28.4	312.860	0.190	0.570	0.940
2020/01/31 08:35:28.5	312.830	0.160	0.560	0.960
2020/01/31 08:35:28.6	312.800	0.120	0.530	0.980
2020/01/31 08:35:28.7	312.770	0.090	0.510	0.990
2020/01/31 08:35:28.8	312.740	0.060	0.470	0.990
2020/01/31 08:35:28.9	312.710	0.030	0.430	0.990
2020/01/31 08:35:29.0	312.680	0.010	0.380	0.990
2020/01/31 08:35:29.1	312.650	-0.020	0.330	0.970
2020/01/31 08:35:29.2	312.620	-0.040	0.270	0.960
2020/01/31 08:35:29.3	312.600	-0.060	0.200	0.940
2020/01/31 08:35:29.4	312.590	-0.080	0.130	0.910
2020/01/31 08:35:29.5	312.570	-0.100	0.050	0.880
2020/01/31 08:35:29.6	312.550	-0.110	-0.030	0.840
2020/01/31 08:35:29.7	312.530	-0.130	-0.110	0.800
2020/01/31 08:35:29.8	312.510	-0.130	-0.200	0.750
2020/01/31 08:35:29.9	312.500	-0.140	-0.280	0.710
2020/01/31 08:35:30.0	312.490	-0.150	-0.370	0.650
2020/01/31 08:35:30.1	312.480	-0.150	-0.470	0.600
2020/01/31 08:35:30.2	312.470	-0.150	-0.560	0.540
2020/01/31 08:35:30.3	312.460	-0.150	-0.650	0.480
2020/01/31 08:35:30.4	312.470	-0.150	-0.740	0.420
2020/01/31 08:35:30.5	312.470	-0.140	-0.830	0.350
2020/01/31 08:35:30.6	312.470	-0.140	-0.910	0.290
2020/01/31 08:35:30.7	312.470	-0.130	-0.990	0.230
2020/01/31 08:35:30.8	312.480	-0.120	-1.070	0.160
2020/01/31 08:35:30.9	312.490	-0.110	-1.150	0.100
2020/01/31 08:35:31.0	312.490	-0.100	-1.220	0.040
2020/01/31 08:35:31.1	312.500	-0.090	-1.280	-0.020
2020/01/31 08:35:31.2	312.520	-0.080	-1.340	-0.080
2020/01/31 08:35:31.3	312.530	-0.070	-1.390	-0.130
2020/01/31 08:35:31.4	312.530	-0.050	-1.440	-0.180
2020/01/31 08:35:31.5	312.550	-0.040	-1.480	-0.230
2020/01/31 08:35:31.6	312.570	-0.030	-1.510	-0.270
2020/01/31 08:35:31.7	312.590	-0.020	-1.530	-0.320
2020/01/31 08:35:31.8	312.610	-0.010	-1.550	-0.350
2020/01/31 08:35:31.9	312.630	-0.000	-1.560	-0.390
2020/01/31 08:35:32.0	312.650	0.010	-1.570	-0.420
2020/01/31 08:35:32.1	312.680	0.020	-1.560	-0.440
2020/01/31 08:35:32.2	312.700	0.020	-1.550	-0.460
2020/01/31 08:35:32.3	312.730	0.030	-1.540	-0.480
2020/01/31 08:35:32.4	312.750	0.030	-1.510	-0.490
2020/01/31 08:35:32.5	312.780	0.040	-1.490	-0.500
2020/01/31 08:35:32.6	312.810	0.040	-1.450	-0.500
2020/01/31 08:35:32.7	312.830	0.050	-1.410	-0.500
2020/01/31 08:35:32.8	312.860	0.050	-1.370	-0.490
2020/01/31 08:35:32.9	312.880	0.050	-1.320	-0.490
2020/01/31 08:35:33.0	312.910	0.050	-1.270	-0.470
2020/01/31 08:35:33.1	312.930	0.040	-1.210	-0.460
2020/01/31 08:35:33.2	312.950	0.040	-1.150	-0.440
2020/01/31 08:35:33.3	312.970	0.040	-1.080	-0.420
2020/01/31 08:35:33.4	312.990	0.030	-1.020	-0.390
2020/01/31 08:35:33.5	313.010	0.030	-0.950	-0.360
2020/01/31 08:35:33.6	313.030	0.020	-0.880	-0.330
2020/01/31 08:35:33.7	313.040	0.020	-0.800	-0.300
2020/01/31 08:35:33.8	313.060	0.010	-0.730	-0.260
2020/01/31 08:35:33.9	313.070	0.000	-0.660	-0.220
2020/01/31 08:35:34.0	313.080	-0.010	-0.580	-0.180
2020/01/31 08:35:34.1	313.080	-0.020	-0.510	-0.140
2020/01/31 08:35:34.2	313.090	-0.030	-0.440	-0.100
2020/01/31 08:35:34.3	313.090	-0.040	-0.370	-0.060
2020/01/31 08:35:34.4	313.100	-0.050	-0.300	-0.020
2020/01/31 08:35:34.5	313.100	-0.060	-0.230	0.030
2020/01/31 08:35:34.6	313.100	-0.070	-0.170	0.070
2020/01/31 08:35:34.7	313.090	-0.080	-0.100	0.110
2020/01/31 08:35:34.8	313.090	-0.090	-0.040	0.150
2020/01/31 08:35:34.9	313.080	-0.100	0.010	0.190
2020/01/31 08:35:35.0	313.070	-0.110	0.070	0.230
2020/01/31 08:35:35.1	313.060	-0.120	0.120	0.260
2020/01/31 08:35:35.2	313.050	-0.130	0.170	0.290
2020/01/31 08:35:35.3	313.040	-0.140	0.210	0.320
2020/01/31 08:35:35.4	313.020	-0.150	0.250	0.350
2020/01/31 08:35:35.5	313.010	-0.160	0.290	0.370
2020/01/31 08:35:35.6	312.990	-0.170	0.320	0.400
2020/01/31 08:35:35.7	312.980	-0.180	0.360	0.420
2020/01/31 08:35:35.8	312.960	-0.190	0.380	0.440
2020/01/31 08:35:35.9	312.950	-0.190	0.410	0.450
2020/01/31 08:35:36.0	312.930	-0.200	0.430	0.470
2020/01/31 08:35:36.1	312.920	-0.200	0.450	0.480
2020/01/31 08:35:36.2	312.900	-0.200	0.470	0.500
2020/01/31 08:35:36.3	312.890	-0.200	0.480	0.510
2020/01/31 08:35:36.4	312.870	-0.210	0.490	0.520
2020/01/31 08:35:36.5	312.850	-0.200	0.500	0.520
2020/01/31 08:35:36.6	312.840	-0.200	0.510	0.530
2020/01/31 08:35:36.7	312.830	-0.200	0.510	0.530
2020/01/31 08:35:36.8	312.810	-0.200	0.510	0.540
2020/01/31 08:35:36.9	312.800	-0.190	0.510	0.540
2020/01/31 08:35:37.0	312.790	-0.190	0.510	0.540
2020/01/31 08:35:37.1	312.780	-0.180	0.500	0.530
2020/01/31 08:35:37.2	312.770	-0.170	0.500	0.530
2020/01/31 08:35:37.3	312.760	-0.170	0.490	0.520
2020/01/31 08:35:37.4	312.750	-0.160	0.480	0.520
2020/01/31 08:35:37.5	312.740	-0.150	0.470	0.510
2020/01/31 08:35:37.6	312.730	-0.140	0.460	0.500
2020/01/31 08:35:37.7	312.720	-0.130	0.450	0.480
2020/01/31 08:35:37.8	312.720	-0.120	0.430	0.470
2020/01/31 08:35:37.9	312.710	-0.110	0.420	0.460
2020/01/31 08:35:38.0	312.710	-0.100	0.400	0.450
2020/01/31 08:35:38.1	312.700	-0.090	0.390	0.430
2020/01/31 08:35:38.2	312.700	-0.080	0.370	0.420
2020/01/31 08:35:38.3	312.690	-0.070	0.350	0.410
2020/01/31 08:35:38.4	312.680	-0.060	0.340	0.390
2020/01/31 08:35:38.5	312.680	-0.050	0.320	0.380
2020/01/31 08:35:38.6	312.680	-0.040	0.300	0.370
2020/01/31 08:35:38.7	312.680	-0.030	0.280	0.350
2020/01/31 08:35:38.8	312.690	-0.020	0.260	0.340
2020/01/31 08:35:38.9	312.690	-0.010	0.240	0.320
2020/01/31 08:35:39.0	312.700	-0.000	0.220	0.310
2020/01/31 08:35:39.1	312.700	0.010	0.200	0.290
2020/01/31 08:35:39.2	312.710	0.020	0.180	0.280
2020/01/31 08:35:39.3	312.720	0.030	0.160	0.260
2020/01/31 08:35:39.4	312.710	0.040	0.140	0.240
2020/01/31 08:35:39.5	312.720	0.040	0.110	0.230
2020/01/31 08:35:39.6	312.730	0.050	0.090	0.210
2020/01/31 08:35:39.7	312.740	0.060	0.060	0.200
2020/01/31 08:35:39.8	312.750	0.070	0.040	0.180
2020/01/31 08:35:39.9	312.750	0.080	0.010	0.170
2020/01/31 08:35:40.0	312.760	0.080	-0.010	0.160
2020/01/31 08:35:40.1	312.770	0.090	-0.040	0.150
2020/01/31 08:35:40.2	312.780	0.100	-0.060	0.140
2020/01/31 08:35:40.3	312.780	0.100	-0.090	0.130
2020/01/31 08:35:40.4	312.770	0.110	-0.120	0.120
2020/01/31 08:35:40.5	312.780	0.120	-0.140	0.120
2020/01/31 08:35:40.6	312.790	0.120	-0.170	0.110
2020/01/31 08:35:40.7	312.790	0.130	-0.190	0.110
2020/01/31 08:35:40.8	312.800	0.130	-0.220	0.100
2020/01/31 08:35:40.9	312.810	0.140	-0.240	0.100
2020/01/31 08:35:41.0	312.820	0.150	-0.270	0.100
2020/01/31 08:35:41.1	312.830	0.150	-0.290	0.100
2020/01/31 08:35:41.2	312.840	0.160	-0.320	0.100
2020/01/31 08:35:41.3	312.850	0.160	-0.340	0.100
2020/01/31 08:35:41.4	312.860	0.170	-0.370	0.100
2020/01/31 08:35:41.5	312.870	0.180	-0.390	0.100
2020/01/31 08:35:41.6	312.880	0.190	-0.420	0.110
2020/01/31 08:35:41.7	312.900	0.190	-0.440	0.110
2020/01/31 08:35:41.8	312.910	0.200	-0.460	0.120
2020/01/31 08:35:41.9	312.920	0.210	-0.490	0.120
2020/01/31 08:35:42.0	312.930	0.210	-0.510	0.130
2020/01/31 08:35:42.1	312.940	0.220	-0.530	0.140
2020/01/31 08:35:42.2	312.950	0.230	-0.550	0.150
2020/01/31 08:35:42.3	312.960	0.230	-0.580	0.160
2020/01/31 08:35:42.4	312.990	0.240	-0.590	0.170
2020/01/31 08:35:42.5	313.000	0.240	-0.610	0.180
2020/01/31 08:35:42.6	313.000	0.250	-0.630	0.190
2020/01/31 08:35:42.7	313.010	0.250	-0.640	0.200
2020/01/31 08:35:42.8	313.020	0.250	-0.660	0.220
2020/01/31 08:35:42.9	313.020	0.260	-0.670	0.230
2020/01/31 08:35:43.0	313.020	0.260	-0.680	0.250
2020/01/31 08:35:43.1	313.020	0.260	-0.690	0.270
2020/01/31 08:35:43.2	313.030	0.260	-0.700	0.290
2020/01/31 08:35:43.3	313.020	0.260	-0.700	0.310
2020/01/31 08:35:43.4	313.030	0.260	-0.710	0.330
2020/01/31 08:35:43.5	313.020	0.250	-0.710	0.350
2020/01/31 08:35:43.6	313.020	0.250	-0.710	0.370
2020/01/31 08:35:43.7	313.020	0.250	-0.700	0.390
2020/01/31 08:35:43.8	313.010	0.240	-0.700	0.420
2020/01/31 08:35:43.9	313.000	0.230	-0.690	0.440
2020/01/31 08:35:44.0	312.990	0.230	-0.680	0.470
2020/01/31 08:35:44.1	312.990	0.220	-0.680	0.490
2020/01/31 08:35:44.2	312.980	0.210	-0.670	0.510
2020/01/31 08:35:44.3	312.970	0.200	-0.660	0.530
2020/01/31 08:35:44.4	312.960	0.190	-0.640	0.550
2020/01/31 08:35:44.5	312.950	0.170	-0.630	0.570
2020/01/31 08:35:44.6	312.950	0.160	-0.620	0.580
2020/01/31 08:35:44.7	312.940	0.150	-0.610	0.600
2020/01/31 08:35:44.8	312.930	0.130	-0.600	0.610
2020/01/31 08:35:44.9	312.930	0.120	-0.590	0.610
2020/01/31 08:35:45.0	312.930	0.110	-0.590	0.620
2020/01/31 08:35:45.1	312.930	0.090	-0.580	0.620
2020/01/31 08:35:45.2	312.920	0.080	-0.570	0.620
2020/01/31 08:35:45.3	312.920	0.060	-0.570	0.620
2020/01/31 08:35:45.4	312.920	0.050	-0.570	0.620
2020/01/31 08:35:45.5	312.920	0.040	-0.560	0.620
2020/01/31 08:35:45.6	312.920	0.030	-0.560	0.610
2020/01/31 08:35:45.7	312.930	0.010	-0.560	0.600
2020/01/31 08:35:45.8	312.930	0.000	-0.560	0.590
2020/01/31 08:35:45.9	312.930	-0.010	-0.550	0.580
2020/01/31 08:35:46.0	312.930	-0.020	-0.550	0.560
2020/01/31 08:35:46.1	312.940	-0.030	-0.550	0.550
2020/01/31 08:35:46.2	312.940	-0.030	-0.550	0.530
2020/01/31 08:35:46.3	312.940	-0.040	-0.540	0.520
2020/01/31 08:35:46.4	312.950	-0.050	-0.540	0.500
2020/01/31 08:35:46.5	312.950	-0.050	-0.530	0.490
2020/01/31 08:35:46.6	312.950	-0.050	-0.530	0.470
2020/01/31 08:35:46.7	312.950	-0.060	-0.520	0.460
2020/01/31 08:35:46.8	312.950	-0.060	-0.510	0.440
2020/01/31 08:35:46.9	312.950	-0.060	-0.500	0.430
2020/01/31 08:35:47.0	312.940	-0.060	-0.490	0.420
2020/01/31 08:35:47.1	312.940	-0.050	-0.470	0.410
2020/01/31 08:35:47.2	312.940	-0.050	-0.460	0.400
2020/01/31 08:35:47.3	312.940	-0.050	-0.440	0.390
2020/01/31 08:35:47.4	312.920	-0.040	-0.420	0.380
2020/01/31 08:35:47.5	312.920	-0.040	-0.400	0.380
2020/01/31 08:35:47.6	312.920	-0.030	-0.390	0.370
2020/01/31 08:35:47.7	312.920	-0.030	-0.370	0.360
2020/01/31 08:35:47.8	312.920	-0.020	-0.350	0.360
2020/01/31 08:35:47.9	312.920	-0.010	-0.330	0.360
2020/01/31 08:35:48.0	312.920	-0.010	-0.310	0.360
2020/01/31 08:35:48.1	312.930	-0.000	-0.280	0.350
2020/01/31 08:35:48.2	312.930	0.000	-0.260	0.350
2020/01/31 08:35:48.3	312.930	0.010	-0.240	0.360
2020/01/31 08:35:48.4	312.940	0.010	-0.220	0.360
2020/01/31 08:35:48.5	312.950	0.020	-0.200	0.360
2020/01/31 08:35:48.6	312.950	0.020	-0.170	0.360
2020/01/31 08:35:48.7	312.960	0.020	-0.150	0.370
2020/01/31 08:35:48.8	312.960	0.020	-0.120	0.370
2020/01/31 08:35:48.9	312.960	0.020	-0.100	0.380
2020/01/31 08:35:49.0	312.970	0.010	-0.070	0.390
2020/01/31 08:35:49.1	312.970	0.010	-0.040	0.400
2020/01/31 08:35:49.2	312.970	-0.000	-0.010	0.400
2020/01/31 08:35:49.3	312.970	-0.010	0.020	0.410
2020/01/31 08:35:49.4	312.960	-0.020	0.050	0.420
2020/01/31 08:35:49.5	312.960	-0.030	0.080	0.430
2020/01/31 08:35:49.6	312.960	-0.050	0.110	0.440
2020/01/31 08:35:49.7	312.950	-0.060	0.150	0.450
2020/01/31 08:35:49.8	312.950	-0.080	0.180	0.460
2020/01/31 08:35:49.9	312.940	-0.100	0.210	0.470
2020/01/31 08:35:50.0	312.940	-0.120	0.240	0.480
2020/01/31 08:35:50.1	312.930	-0.140	0.270	0.480
2020/01/31 08:35:50.2	312.930	-0.160	0.300	0.490
2020/01/31 08:35:50.3	312.920	-0.190	0.330	0.500
2020/01/31 08:35:50.4	312.920	-0.210	0.360	0.500
2020/01/31 08:35:50.5	312.910	-0.240	0.380	0.510
2020/01/31 08:35:50.6	312.910	-0.260	0.400	0.510
2020/01/31 08:35:50.7	312.900	-0.280	0.420	0.510
2020/01/31 08:35:50.8	312.900	-0.310	0.440	0.510
2020/01/31 08:35:50.9	312.900	-0.330	0.450	0.510
2020/01/31 08:35:51.0	312.900	-0.350	0.460	0.510
2020/01/31 08:35:51.1	312.890	-0.370	0.460	0.510
2020/01/31 08:35:51.2	312.890	-0.390	0.470	0.500
2020/01/31 08:35:51.3	312.890	-0.410	0.470	0.500
2020/01/31 08:35:51.4	312.890	-0.430	0.460	0.500
2020/01/31 08:35:51.5	312.890	-0.440	0.450	0.490
2020/01/31 08:35:51.6	312.890	-0.460	0.440	0.480
2020/01/31 08:35:51.7	312.890	-0.460	0.430	0.480
2020/01/31 08:35:51.8	312.890	-0.470	0.410	0.470
2020/01/31 08:35:51.9	312.890	-0.480	0.400	0.460
2020/01/31 08:35:52.0	312.890	-0.480	0.380	0.450
2020/01/31 08:35:52.1	312.890	-0.480	0.350	0.440
2020/01/31 08:35:52.2	312.890	-0.470	0.330	0.430
2020/01/31 08:35:52.3	312.890	-0.460	0.300	0.430
2020/01/31 08:35:52.4	312.890	-0.450	0.270	0.410
2020/01/31 08:35:52.5	312.890	-0.430	0.240	0.410
2020/01/31 08:35:52.6	312.890	-0.420	0.210	0.400
2020/01/31 08:35:52.7	312.890	-0.390	0.180	0.390
2020/01/31 08:35:52.8	312.890	-0.370	0.150	0.390
2020/01/31 08:35:52.9	312.890	-0.340	0.120	0.380
2020/01/31 08:35:53.0	312.890	-0.310	0.080	0.370
2020/01/31 08:35:53.1	312.890	-0.280	0.050	0.370
2020/01/31 08:35:53.2	312.890	-0.240	0.010	0.360
2020/01/31 08:35:53.3	312.900	-0.200	-0.030	0.350
2020/01/31 08:35:53.4	312.900	-0.160	-0.070	0.340
2020/01/31 08:35:53.5	312.900	-0.120	-0.110	0.340
2020/01/31 08:35:53.6	312.900	-0.070	-0.150	0.330
2020/01/31 08:35:53.7	312.910	-0.030	-0.190	0.320
2020/01/31 08:35:53.8	312.910	0.020	-0.230	0.310
2020/01/31 08:35:53.9	312.920	0.060	-0.270	0.290
2020/01/31 08:35:54.0	312.930	0.110	-0.310	0.280
2020/01/31 08:35:54.1	312.940	0.160	-0.350	0.270
2020/01/31 08:35:54.2	312.940	0.200	-0.390	0.260
2020/01/31 08:35:54.3	312.950	0.250	-0.430	0.240
2020/01/31 08:35:54.4	312.970	0.290	-0.460	0.230
2020/01/31 08:35:54.5	312.970	0.330	-0.500	0.220
2020/01/31 08:35:54.6	312.980	0.370	-0.530	0.200
2020/01/31 08:35:54.7	312.990	0.410	-0.570	0.190
2020/01/31 08:35:54.8	313.000	0.440	-0.600	0.180
2020/01/31 08:35:54.9	313.010	0.480	-0.620	0.170
2020/01/31 08:35:55.0	313.010	0.510	-0.650	0.160
2020/01/31 08:35:55.1	313.020	0.530	-0.670	0.160
2020/01/31 08:35:55.2	313.020	0.560	-0.690	0.150
2020/01/31 08:35:55.3	313.020	0.580	-0.710	0.150
2020/01/31 08:35:55.4	313.030	0.600	-0.730	0.160
2020/01/31 08:35:55.5	313.030	0.610	-0.740	0.160
2020/01/31 08:35:55.6	313.040	0.630	-0.750	0.160
2020/01/31 08:35:55.7	313.040	0.640	-0.760	0.170
2020/01/31 08:35:55.8	313.040	0.640	-0.760	0.180
2020/01/31 08:35:55.9	313.040	0.650	-0.760	0.190
2020/01/31 08:35:56.0	313.040	0.650	-0.760	0.200
2020/01/31 08:35:56.1	313.050	0.640	-0.760	0.220
2020/01/31 08:35:56.2	313.050	0.640	-0.760	0.230
2020/01/31 08:35:56.3	313.050	0.630	-0.760	0.240
2020/01/31 08:35:56.4	313.060	0.620	-0.760	0.260
2020/01/31 08:35:56.5	313.070	0.610	-0.750	0.270
2020/01/31 08:35:56.6	313.070	0.590	-0.750	0.280
2020/01/31 08:35:56.7	313.080	0.570	-0.740	0.290
2020/01/31 08:35:56.8	313.090	0.550	-0.730	0.300
2020/01/31 08:35:56.9	313.100	0.530	-0.730	0.300
2020/01/31 08:35:57.0	313.100	0.510	-0.720	0.310
2020/01/31 08:35:57.1	313.110	0.480	-0.710	0.310
2020/01/31 08:35:57.2	313.120	0.460	-0.710	0.310
2020/01/31 08:35:57.3	313.130	0.430	-0.700	0.310
2020/01/31 08:35:57.4	313.150	0.400	-0.690	0.300
2020/01/31 08:35:57.5	313.150	0.370	-0.690	0.300
2020/01/31 08:35:57.6	313.160	0.340	-0.680	0.290
2020/01/31 08:35:57.7	313.170	0.310	-0.670	0.290
2020/01/31 08:35:57.8	313.180	0.280	-0.660	0.280
2020/01/31 08:35:57.9	313.180	0.240	-0.660	0.270
2020/01/31 08:35:58.0	313.190	0.210	-0.650	0.250
2020/01/31 08:35:58.1	313.190	0.180	-0.640	0.240
2020/01/31 08:35:58.2	313.190	0.140	-0.630	0.230
2020/01/31 08:35:58.3	313.190	0.110	-0.620	0.210
2020/01/31 08:35:58.4	313.200	0.080	-0.600	0.200
2020/01/31 08:35:58.5	313.200	0.050	-0.590	0.180
2020/01/31 08:35:58.6	313.200	0.020	-0.580	0.170
2020/01/31 08:35:58.7	313.190	-0.020	-0.560	0.150
2020/01/31 08:35:58.8	313.190	-0.040	-0.540	0.140
2020/01/31 08:35:58.9	313.180	-0.070	-0.520	0.120
2020/01/31 08:35:59.0	313.180	-0.100	-0.500	0.110
2020/01/31 08:35:59.1	313.170	-0.130	-0.480	0.100
2020/01/31 08:35:59.2	313.160	-0.150	-0.450	0.090
2020/01/31 08:35:59.3	313.150	-0.170	-0.430	0.080
2020/01/31 08:35:59.4	313.150	-0.200	-0.390	0.080
2020/01/31 08:35:59.5	313.140	-0.210	-0.370	0.080
2020/01/31 08:35:59.6	313.130	-0.230	-0.340	0.080
2020/01/31 08:35:59.7	313.120	-0.250	-0.310	0.080
2020/01/31 08:35:59.8	313.110	-0.260	-0.270	0.080
2020/01/31 08:35:59.9	313.100	-0.270	-0.240	0.080
2020/01/31 08:36:00.0	313.090	-0.290	-0.210	0.090
2020/01/31 08:36:00.1	313.080	-0.290	-0.180	0.090
2020/01/31 08:36:00.2	313.070	-0.300	-0.150	0.100
2020/01/31 08:36:00.3	313.060	-0.310	-0.120	0.110
2020/01/31 08:36:00.4	313.050	-0.310	-0.090	0.120
2020/01/31 08:36:00.5	313.040	-0.310	-0.050	0.130
2020/01/31 08:36:00.6	313.040	-0.310	-0.020	0.140
2020/01/31 08:36:00.7	313.030	-0.310	0.000	0.150
2020/01/31 08:36:00.8	313.020	-0.310	0.030	0.170
2020/01/31 08:36:00.9	313.020	-0.310	0.060	0.180
2020/01/31 08:36:01.0	313.010	-0.300	0.090	0.200
2020/01/31 08:36:01.1	313.010	-0.300	0.110	0.220
2020/01/31 08:36:01.2	313.010	-0.290	0.130	0.240
2020/01/31 08:36:01.3	313.000	-0.280	0.160	0.260
2020/01/31 08:36:01.4	313.010	-0.280	0.170	0.280
2020/01/31 08:36:01.5	313.000	-0.270	0.190	0.290
2020/01/31 08:36:01.6	313.000	-0.260	0.210	0.310
2020/01/31 08:36:01.7	313.000	-0.250	0.220	0.330
2020/01/31 08:36:01.8	313.000	-0.240	0.230	0.350
2020/01/31 08:36:01.9	313.000	-0.230	0.240	0.370
2020/01/31 08:36:02.0	312.990	-0.230	0.240	0.380
2020/01/31 08:36:02.1	313.000	-0.220	0.240	0.390
2020/01/31 08:36:02.2	313.000	-0.210	0.240	0.400
2020/01/31 08:36:02.3	313.000	-0.200	0.240	0.410
2020/01/31 08:36:02.4	312.990	-0.200	0.230	0.410
2020/01/31 08:36:02.5	312.990	-0.190	0.220	0.410
2020/01/31 08:36:02.6	312.990	-0.180	0.210	0.410
2020/01/31 08:36:02.7	312.990	-0.180	0.200	0.410
2020/01/31 08:36:02.8	313.000	-0.170	0.190	0.400
2020/01/31 08:36:02.9	313.000	-0.170	0.170	0.390
2020/01/31 08:36:03.0	313.000	-0.160	0.150	0.380
2020/01/31 08:36:03.1	313.000	-0.160	0.140	0.370
2020/01/31 08:36:03.2	313.000	-0.160	0.120	0.360
2020/01/31 08:36:03.3	312.990	-0.150	0.100	0.340
2020/01/31 08:36:03.4	312.990	-0.150	0.080	0.320
2020/01/31 08:36:03.5	312.990	-0.150	0.060	0.310
2020/01/31 08:36:03.6	312.990	-0.150	0.040	0.290
2020/01/31 08:36:03.7	312.990	-0.140	0.020	0.270
2020/01/31 08:36:03.8	312.980	-0.140	0.000	0.250
2020/01/31 08:36:03.9	312.980	-0.140	-0.010	0.230
2020/01/31 08:36:04.0	312.980	-0.140	-0.030	0.210
2020/01/31 08:36:04.1	312.980	-0.140	-0.050	0.190
2020/01/31 08:36:04.2	312.980	-0.140	-0.060	0.170
2020/01/31 08:36:04.3	312.980	-0.140	-0.080	0.150
2020/01/31 08:36:04.4	312.980	-0.140	-0.090	0.130
2020/01/31 08:36:04.5	312.980	-0.140	-0.110	0.100
2020/01/31 08:36:04.6	312.990	-0.140	-0.130	0.080
2020/01/31 08:36:04.7	313.000	-0.130	-0.140	0.050
2020/01/31 08:36:04.8	313.010	-0.130	-0.160	0.020
2020/01/31 08:36:04.9	313.020	-0.130	-0.170	-0.010
2020/01/31 08:36:05.0	313.030	-0.130	-0.190	-0.040
2020/01/31 08:36:05.1	313.040	-0.130	-0.200	-0.070
2020/01/31 08:36:05.2	313.060	-0.120	-0.220	-0.100
2020/01/31 08:36:05.3	313.070	-0.120	-0.230	-0.130
2020/01/31 08:36:05.4	313.100	-0.120	-0.250	-0.170
2020/01/31 08:36:05.5	313.110	-0.110	-0.260	-0.200
2020/01/31 08:36:05.6	313.130	-0.110	-0.270	-0.220
2020/01/31 08:36:05.7	313.140	-0.110	-0.280	-0.250
2020/01/31 08:36:05.8	313.150	-0.100	-0.290	-0.270
2020/01/31 08:36:05.9	313.170	-0.100	-0.300	-0.290
2020/01/31 08:36:06.0	313.180	-0.090	-0.300	-0.310
2020/01/31 08:36:06.1	313.190	-0.090	-0.310	-0.320
2020/01/31 08:36:06.2	313.200	-0.080	-0.310	-0.330
2020/01/31 08:36:06.3	313.210	-0.070	-0.310	-0.340
2020/01/31 08:36:06.4	313.220	-0.070	-0.310	-0.340
2020/01/31 08:36:06.5	313.230	-0.060	-0.310	-0.340
2020/01/31 08:36:06.6	313.240	-0.050	-0.310	-0.340
2020/01/31 08:36:06.7	313.240	-0.040	-0.300	-0.340
2020/01/31 08:36:06.8	313.250	-0.030	-0.300	-0.330
2020/01/31 08:36:06.9	313.250	-0.020	-0.290	-0.310
2020/01/31 08:36:07.0	313.260	-0.020	-0.290	-0.300
2020/01/31 08:36:07.1	313.260	-0.000	-0.290	-0.280
2020/01/31 08:36:07.2	313.270	0.010	-0.280	-0.260
2020/01/31 08:36:07.3	313.270	0.020	-0.280	-0.230
2020/01/31 08:36:07.4	313.260	0.030	-0.270	-0.200
2020/01/31 08:36:07.5	313.260	0.040	-0.270	-0.170
2020/01/31 08:36:07.6	313.260	0.050	-0.270	-0.140
2020/01/31 08:36:07.7	313.250	0.060	-0.270	-0.100
2020/01/31 08:36:07.8	313.240	0.070	-0.270	-0.070
2020/01/31 08:36:07.9	313.240	0.080	-0.270	-0.030
2020/01/31 08:36:08.0	313.230	0.090	-0.270	0.010
2020/01/31 08:36:08.1	313.210	0.100	-0.270	0.040
2020/01/31 08:36:08.2	313.200	0.110	-0.270	0.080
2020/01/31 08:36:08.3	313.190	0.120	-0.280	0.120
2020/01/31 08:36:08.4	313.180	0.140	-0.280	0.170
2020/01/31 08:36:08.5	313.160	0.150	-0.290	0.210
2020/01/31 08:36:08.6	313.150	0.160	-0.300	0.250
2020/01/31 08:36:08.7	313.140	0.170	-0.310	0.290
2020/01/31 08:36:08.8	313.120	0.180	-0.320	0.330
2020/01/31 08:36:08.9	313.110	0.190	-0.330	0.370
2020/01/31 08:36:09.0	313.100	0.190	-0.340	0.400
2020/01/31 08:36:09.1	313.090	0.200	-0.350	0.440
2020/01/31 08:36:09.2	313.080	0.210	-0.370	0.480
2020/01/31 08:36:09.3	313.070	0.220	-0.380	0.520
2020/01/31 08:36:09.4	313.070	0.230	-0.390	0.550
2020/01/31 08:36:09.5	313.060	0.240	-0.410	0.580
2020/01/31 08:36:09.6	313.050	0.250	-0.420	0.620
2020/01/31 08:36:09.7	313.050	0.250	-0.440	0.650
2020/01/31 08:36:09.8	313.040	0.260	-0.450	0.670
2020/01/31 08:36:09.9	313.040	0.270	-0.460	0.700
2020/01/31 08:36:10.0	313.030	0.270	-0.470	0.720
2020/01/31 08:36:10.1	313.030	0.270	-0.490	0.750
2020/01/31 08:36:10.2	313.030	0.280	-0.490	0.760
2020/01/31 08:36:10.3	313.030	0.280	-0.500	0.780
2020/01/31 08:36:10.4	313.030	0.280	-0.510	0.790
2020/01/31 08:36:10.5	313.030	0.280	-0.520	0.800
2020/01/31 08:36:10.6	313.030	0.280	-0.520	0.810
2020/01/31 08:36:10.7	313.020	0.280	-0.520	0.820
2020/01/31 08:36:10.8	313.020	0.280	-0.520	0.820
2020/01/31 08:36:10.9	313.020	0.270	-0.520	0.820
2020/01/31 08:36:11.0	313.020	0.270	-0.520	0.820
2020/01/31 08:36:11.1	313.010	0.260	-0.510	0.810
2020/01/31 08:36:11.2	313.010	0.250	-0.500	0.800
2020/01/31 08:36:11.3	313.000	0.240	-0.490	0.790
2020/01/31 08:36:11.4	313.000	0.230	-0.480	0.780
2020/01/31 08:36:11.5	312.990	0.220	-0.470	0.770
2020/01/31 08:36:11.6	312.980	0.200	-0.450	0.750
2020/01/31 08:36:11.7	312.970	0.190	-0.430	0.740
2020/01/31 08:36:11.8	312.960	0.170	-0.410	0.720
2020/01/31 08:36:11.9	312.950	0.150	-0.390	0.710
2020/01/31 08:36:12.0	312.940	0.130	-0.370	0.690
2020/01/31 08:36:12.1	312.920	0.110	-0.350	0.670
2020/01/31 08:36:12.2	312.910	0.090	-0.330	0.650
2020/01/31 08:36:12.3	312.900	0.070	-0.310	0.630
2020/01/31 08:36:12.4	312.880	0.050	-0.290	0.610
2020/01/31 08:36:12.5	312.870	0.030	-0.270	0.590
2020/01/31 08:36:12.6	312.850	0.010	-0.240	0.570
2020/01/31 08:36:12.7	312.840	-0.010	-0.220	0.550
2020/01/31 08:36:12.8	312.820	-0.030	-0.210	0.530
2020/01/31 08:36:12.9	312.810	-0.050	-0.190	0.510
2020/01/31 08:36:13.0	312.800	-0.070	-0.170	0.490
2020/01/31 08:36:13.1	312.790	-0.080	-0.150	0.470
2020/01/31 08:36:13.2	312.770	-0.100	-0.140	0.450
2020/01/31 08:36:13.3	312.760	-0.110	-0.130	0.440
2020/01/31 08:36:13.4	312.750	-0.120	-0.120	0.420
2020/01/31 08:36:13.5	312.740	-0.130	-0.110	0.400
2020/01/31 08:36:13.6	312.740	-0.140	-0.100	0.380
2020/01/31 08:36:13.7	312.730	-0.150	-0.090	0.360
2020/01/31 08:36:13.8	312.730	-0.150	-0.090	0.350
2020/01/31 08:36:13.9	312.720	-0.150	-0.090	0.340
2020/01/31 08:36:14.0	312.720	-0.150	-0.080	0.320
2020/01/31 08:36:14.1	312.720	-0.150	-0.080	0.310
2020/01/31 08:36:14.2	312.720	-0.140	-0.080	0.300
2020/01/31 08:36:14.3	312.720	-0.130	-0.080	0.280
2020/01/31 08:36:14.4	312.720	-0.130	-0.090	0.270
2020/01/31 08:36:14.5	312.720	-0.110	-0.090	0.260
2020/01/31 08:36:14.6	312.720	-0.100	-0.100	0.250
2020/01/31 08:36:14.7	312.730	-0.090	-0.100	0.240
2020/01/31 08:36:14.8	312.740	-0.070	-0.110	0.230
2020/01/31 08:36:14.9	312.740	-0.060	-0.110	0.230
2020/01/31 08:36:15.0	312.750	-0.040	-0.120	0.220
2020/01/31 08:36:15.1	312.760	-0.020	-0.130	0.210
2020/01/31 08:36:15.2	312.770	-0.010	-0.140	0.200
2020/01/31 08:36:15.3	312.790	0.010	-0.150	0.190
2020/01/31 08:36:15.4	312.800	0.030	-0.160	0.180
2020/01/31 08:36:15.5	312.820	0.040	-0.170	0.170
2020/01/31 08:36:15.6	312.840	0.060	-0.180	0.150
2020/01/31 08:36:15.7	312.850	0.080	-0.200	0.140
2020/01/31 08:36:15.8	312.870	0.090	-0.210	0.130
2020/01/31 08:36:15.9	312.890	0.100	-0.220	0.110
2020/01/31 08:36:16.0	312.910	0.120	-0.240	0.100
2020/01/31 08:36:16.1	312.930	0.130	-0.260	0.080
2020/01/31 08:36:16.2	312.950	0.130	-0.270	0.070
2020/01/31 08:36:16.3	312.970	0.140	-0.290	0.050
2020/01/31 08:36:16.4	312.980	0.150	-0.310	0.040
2020/01/31 08:36:16.5	313.000	0.150	-0.320	0.020
2020/01/31 08:36:16.6	313.020	0.150	-0.340	0.000
2020/01/31 08:36:16.7	313.040	0.150	-0.350	-0.010
2020/01/31 08:36:16.8	313.060	0.150	-0.360	-0.030
2020/01/31 08:36:16.9	313.080	0.140	-0.380	-0.040
2020/01/31 08:36:17.0	313.090	0.140	-0.390	-0.060
2020/01/31 08:36:17.1	313.110	0.130	-0.390	-0.070
2020/01/31 08:36:17.2	313.120	0.120	-0.400	-0.090
2020/01/31 08:36:17.3	313.130	0.110	-0.400	-0.100
2020/01/31 08:36:17.4	313.140	0.100	-0.410	-0.120
2020/01/31 08:36:17.5	313.150	0.090	-0.410	-0.130
2020/01/31 08:36:17.6	313.160	0.070	-0.400	-0.140
2020/01/31 08:36:17.7	313.170	0.060	-0.390	-0.150
2020/01/31 08:36:17.8	313.180	0.040	-0.380	-0.150
2020/01/31 08:36:17.9	313.180	0.020	-0.370	-0.160
2020/01/31 08:36:18.0	313.190	0.000	-0.350	-0.160
2020/01/31 08:36:18.1	313.190	-0.010	-0.330	-0.160
2020/01/31 08:36:18.2	313.200	-0.030	-0.310	-0.160
2020/01/31 08:36:18.3	313.200	-0.050	-0.280	-0.160
2020/01/31 08:36:18.4	313.190	-0.070	-0.250	-0.150
2020/01/31 08:36:18.5	313.190	-0.080	-0.220	-0.140
2020/01/31 08:36:18.6	313.190	-0.100	-0.190	-0.130
2020/01/31 08:36:18.7	313.190	-0.120	-0.150	-0.120
2020/01/31 08:36:18.8	313.180	-0.130	-0.120	-0.110
2020/01/31 08:36:18.9	313.180	-0.140	-0.080	-0.090
2020/01/31 08:36:19.0	313.170	-0.160	-0.050	-0.080
2020/01/31 08:36:19.1	313.160	-0.170	-0.010	-0.060
2020/01/31 08:36:19.2	313.160	-0.180	0.020	-0.040
2020/01/31 08:36:19.3	313.150	-0.190	0.050	-0.020
2020/01/31 08:36:19.4	313.150	-0.200	0.080	0.000
2020/01/31 08:36:19.5	313.140	-0.210	0.110	0.020
2020/01/31 08:36:19.6	313.130	-0.220	0.140	0.050
2020/01/31 08:36:19.7	313.120	-0.220	0.160	0.070
2020/01/31 08:36:19.8	313.110	-0.220	0.190	0.090
2020/01/31 08:36:19.9	313.100	-0.230	0.200	0.110
2020/01/31 08:36:20.0	313.080	-0.230	0.220	0.140
2020/01/31 08:36:20.1	313.070	-0.230	0.230	0.160
2020/01/31 08:36:20.2	313.060	-0.230	0.240	0.180
2020/01/31 08:36:20.3	313.050	-0.220	0.240	0.210
2020/01/31 08:36:20.4	313.040	-0.220	0.240	0.230
2020/01/31 08:36:20.5	313.030	-0.210	0.240	0.250
2020/01/31 08:36:20.6	313.010	-0.210	0.240	0.270
2020/01/31 08:36:20.7	313.000	-0.200	0.230	0.300
2020/01/31 08:36:20.8	312.980	-0.190	0.220	0.320
2020/01/31 08:36:20.9	312.960	-0.180	0.210	0.350
2020/01/31 08:36:21.0	312.950	-0.170	0.190	0.370
2020/01/31 08:36:21.1	312.930	-0.160	0.170	0.400
2020/01/31 08:36:21.2	312.910	-0.150	0.150	0.430
2020/01/31 08:36:21.3	312.890	-0.130	0.130	0.450
2020/01/31 08:36:21.4	312.870	-0.120	0.110	0.490
2020/01/31 08:36:21.5	312.840	-0.110	0.090	0.520
2020/01/31 08:36:21.6	312.820	-0.090	0.060	0.550
2020/01/31 08:36:21.7	312.800	-0.070	0.040	0.580
2020/01/31 08:36:21.8	312.770	-0.060	0.010	0.610
2020/01/31 08:36:21.9	312.750	-0.040	-0.020	0.650
2020/01/31 08:36:22.0	312.720	-0.020	-0.050	0.680
2020/01/31 08:36:22.1	312.700	-0.010	-0.080	0.710
2020/01/31 08:36:22.2	312.670	0.010	-0.110	0.750
2020/01/31 08:36:22.3	312.650	0.030	-0.140	0.780
2020/01/31 08:36:22.4	312.630	0.050	-0.170	0.800
2020/01/31 08:36:22.5	312.610	0.070	-0.200	0.830
2020/01/31 08:36:22.6	312.590	0.090	-0.230	0.860
2020/01/31 08:36:22.7	312.570	0.110	-0.270	0.890
2020/01/31 08:36:22.8	312.550	0.130	-0.300	0.910
2020/01/31 08:36:22.9	312.540	0.150	-0.330	0.930
2020/01/31 08:36:23.0	312.520	0.170	-0.360	0.950
2020/01/31 08:36:23.1	312.510	0.190	-0.390	0.970
2020/01/31 08:36:23.2	312.500	0.210	-0.420	0.980
2020/01/31 08:36:23.3	312.490	0.230	-0.450	0.990
2020/01/31 08:36:23.4	312.480	0.250	-0.470	1.010
2020/01/31 08:36:23.5	312.470	0.270	-0.500	1.010
2020/01/31 08:36:23.6	312.460	0.280	-0.530	1.020
2020/01/31 08:36:23.7	312.450	0.300	-0.550	1.020
2020/01/31 08:36:23.8	312.450	0.310	-0.570	1.020
2020/01/31 08:36:23.9	312.440	0.330	-0.590	1.010
2020/01/31 08:36:24.0	312.440	0.340	-0.620	1.010
2020/01/31 08:36:24.1	312.430	0.350	-0.630	1.000
2020/01/31 08:36:24.2	312.430	0.360	-0.650	0.990
2020/01/31 08:36:24.3	312.430	0.360	-0.670	0.970
2020/01/31 08:36:24.4	312.420	0.360	-0.680	0.950
2020/01/31 08:36:24.5	312.420	0.370	-0.690	0.930
2020/01/31 08:36:24.6	312.420	0.370	-0.700	0.910
2020/01/31 08:36:24.7	312.420	0.360	-0.710	0.880
2020/01/31 08:36:24.8	312.420	0.360	-0.720	0.850
2020/01/31 08:36:24.9	312.420	0.350	-0.730	0.820
2020/01/31 08:36:25.0	312.420	0.340	-0.730	0.790
2020/01/31 08:36:25.1	312.430	0.330	-0.740	0.750
2020/01/31 08:36:25.2	312.430	0.310	-0.740	0.710
2020/01/31 08:36:25.3	312.440	0.300	-0.740	0.660
2020/01/31 08:36:25.4	312.440	0.280	-0.750	0.620
2020/01/31 08:36:25.5	312.450	0.260	-0.750	0.570
2020/01/31 08:36:25.6	312.460	0.230	-0.750	0.520
2020/01/31 08:36:25.7	312.470	0.210	-0.740	0.470
2020/01/31 08:36:25.8	312.490	0.180	-0.740	0.420
2020/01/31 08:36:25.9	312.500	0.160	-0.730	0.370
2020/01/31 08:36:26.0	312.520	0.130	-0.720	0.320
2020/01/31 08:36:26.1	312.530	0.100	-0.710	0.270
2020/01/31 08:36:26.2	312.550	0.070	-0.700	0.220
2020/01/31 08:36:26.3	312.570	0.040	-0.690	0.170
2020/01/31 08:36:26.4	312.580	0.010	-0.670	0.120
2020/01/31 08:36:26.5	312.600	-0.020	-0.660	0.070
2020/01/31 08:36:26.6	312.620	-0.050	-0.640	0.030
2020/01/31 08:36:26.7	312.640	-0.080	-0.620	-0.020
2020/01/31 08:36:26.8	312.660	-0.100	-0.600	-0.060
2020/01/31 08:36:26.9	312.690	-0.130	-0.590	-0.100
2020/01/31 08:36:27.0	312.710	-0.160	-0.560	-0.140
2020/01/31 08:36:27.1	312.730	-0.180	-0.540	-0.180
2020/01/31 08:36:27.2	312.750	-0.210	-0.520	-0.210
2020/01/31 08:36:27.3	312.780	-0.230	-0.500	-0.250
2020/01/31 08:36:27.4	312.790	-0.250	-0.480	-0.280
2020/01/31 08:36:27.5	312.810	-0.270	-0.460	-0.310
2020/01/31 08:36:27.6	312.830	-0.290	-0.440	-0.330
2020/01/31 08:36:27.7	312.860	-0.310	-0.420	-0.360
2020/01/31 08:36:27.8	312.880	-0.320	-0.390	-0.380
2020/01/31 08:36:27.9	312.900	-0.340	-0.370	-0.400
2020/01/31 08:36:28.0	312.930	-0.350	-0.350	-0.410
2020/01/31 08:36:28.1	312.950	-0.360	-0.320	-0.430
2020/01/31 08:36:28.2	312.970	-0.360	-0.300	-0.440
2020/01/31 08:36:28.3	313.000	-0.370	-0.280	-0.450
2020/01/31 08:36:28.4	313.030	-0.380	-0.250	-0.460
2020/01/31 08:36:28.5	313.050	-0.380	-0.230	-0.460
2020/01/31 08:36:28.6	313.070	-0.380	-0.210	-0.460
2020/01/31 08:36:28.7	313.090	-0.380	-0.190	-0.460
2020/01/31 08:36:28.8	313.110	-0.380	-0.170	-0.450
2020/01/31 08:36:28.9	313.130	-0.380	-0.150	-0.440
2020/01/31 08:36:29.0	313.150	-0.370	-0.130	-0.430
2020/01/31 08:36:29.1	313.170	-0.370	-0.100	-0.410
2020/01/31 08:36:29.2	313.190	-0.360	-0.080	-0.400
2020/01/31 08:36:29.3	313.210	-0.360	-0.060	-0.380
2020/01/31 08:36:29.4	313.230	-0.350	-0.040	-0.350
2020/01/31 08:36:29.5	313.240	-0.340	-0.010	-0.330
2020/01/31 08:36:29.6	313.260	-0.340	0.010	-0.300
2020/01/31 08:36:29.7	313.270	-0.330	0.030	-0.270
2020/01/31 08:36:29.8	313.280	-0.320	0.050	-0.240
2020/01/31 08:36:29.9	313.290	-0.310	0.080	-0.210
2020/01/31 08:36:30.0	313.300	-0.300	0.100	-0.180
2020/01/31 08:36:30.1	313.310	-0.280	0.130	-0.140
2020/01/31 08:36:30.2	313.310	-0.270	0.150	-0.100
2020/01/31 08:36:30.3	313.310	-0.260	0.180	-0.070
2020/01/31 08:36:30.4	313.310	-0.250	0.210	-0.030
2020/01/31 08:36:30.5	313.310	-0.230	0.230	0.020
2020/01/31 08:36:30.6	313.310	-0.220	0.260	0.060
2020/01/31 08:36:30.7	313.310	-0.200	0.290	0.100
2020/01/31 08:36:30.8	313.300	-0.190	0.310	0.150
2020/01/31 08:36:30.9	313.290	-0.170	0.340	0.190
2020/01/31 08:36:31.0	313.280	-0.160	0.360	0.240
2020/01/31 08:36:31.1	313.270	-0.140	0.380	0.290
2020/01/31 08:36:31.2	313.260	-0.120	0.400	0.340
2020/01/31 08:36:31.3	313.250	-0.100	0.420	0.380
2020/01/31 08:36:31.4	313.240	-0.090	0.440	0.430
2020/01/31 08:36:31.5	313.220	-0.070	0.460	0.480
2020/01/31 08:36:31.6	313.210	-0.050	0.470	0.530
2020/01/31 08:36:31.7	313.180	-0.030	0.480	0.570
2020/01/31 08:36:31.8	313.160	-0.010	0.490	0.620
2020/01/31 08:36:31.9	313.140	0.010	0.490	0.660
2020/01/31 08:36:32.0	313.110	0.030	0.490	0.700
2020/01/31 08:36:32.1	313.080	0.060	0.490	0.740
2020/01/31 08:36:32.2	313.050	0.080	0.490	0.780
2020/01/31 08:36:32.3	313.020	0.100	0.480	0.820
2020/01/31 08:36:32.4	313.000	0.120	0.470	0.850
2020/01/31 08:36:32.5	312.970	0.140	0.460	0.880
2020/01/31 08:36:32.6	312.930	0.160	0.440	0.910
2020/01/31 08:36:32.7	312.900	0.180	0.420	0.940
2020/01/31 08:36:32.8	312.860	0.200	0.400	0.960
2020/01/31 08:36:32.9	312.820	0.220	0.380	0.980
2020/01/31 08:36:33.0	312.780	0.240	0.350	1.000
2020/01/31 08:36:33.1	312.730	0.260	0.330	1.010
2020/01/31 08:36:33.2	312.690	0.280	0.300	1.020
2020/01/31 08:36:33.3	312.650	0.300	0.260	1.030
2020/01/31 08:36:33.4	312.610	0.320	0.230	1.030
2020/01/31 08:36:33.5	312.560	0.330	0.190	1.030
2020/01/31 08:36:33.6	312.520	0.350	0.150	1.030
2020/01/31 08:36:33.7	312.470	0.360	0.110	1.020
2020/01/31 08:36:33.8	312.430	0.370	0.070	1.010
2020/01/31 08:36:33.9	312.390	0.380	0.030	1.000
2020/01/31 08:36:34.0	312.350	0.390	-0.020	0.980
2020/01/31 08:36:34.1	312.310	0.400	-0.070	0.950
2020/01/31 08:36:34.2	312.270	0.410	-0.120	0.930
2020/01/31 08:36:34.3	312.240	0.420	-0.170	0.890
2020/01/31 08:36:34.4	312.210	0.420	-0.220	0.860
2020/01/31 08:36:34.5	312.180	0.420	-0.280	0.820
2020/01/31 08:36:34.6	312.150	0.420	-0.330	0.780
2020/01/31 08:36:34.7	312.130	0.420	-0.390	0.730
2020/01/31 08:36:34.8	312.110	0.420	-0.440	0.680
2020/01/31 08:36:34.9	312.100	0.420	-0.500	0.620
2020/01/31 08:36:35.0	312.090	0.420	-0.560	0.570
2020/01/31 08:36:35.1	312.080	0.410	-0.610	0.510
2020/01/31 08:36:35.2	312.070	0.410	-0.670	0.440
2020/01/31 08:36:35.3	312.070	0.400	-0.730	0.380
2020/01/31 08:36:35.4	312.070	0.390	-0.780	0.310
2020/01/31 08:36:35.5	312.070	0.380	-0.840	0.240
2020/01/31 08:36:35.6	312.080	0.370	-0.880	0.180
2020/01/31 08:36:35.7	312.080	0.360	-0.930	0.120
2020/01/31 08:36:35.8	312.090	0.350	-0.970	0.050
2020/01/31 08:36:35.9	312.110	0.330	-1.010	-0.010
2020/01/31 08:36:36.0	312.120	0.320	-1.050	-0.070
2020/01/31 08:36:36.1	312.130	0.300	-1.080	-0.130
2020/01/31 08:36:36.2	312.150	0.290	-1.110	-0.180
2020/01/31 08:36:36.3	312.170	0.270	-1.130	-0.230
2020/01/31 08:36:36.4	312.170	0.250	-1.150	-0.280
2020/01/31 08:36:36.5	312.190	0.230	-1.170	-0.330
2020/01/31 08:36:36.6	312.220	0.220	-1.180	-0.370
2020/01/31 08:36:36.7	312.240	0.200	-1.180	-0.410
2020/01/31 08:36:36.8	312.270	0.180	-1.190	-0.450
2020/01/31 08:36:36.9	312.290	0.160	-1.190	-0.490
2020/01/31 08:36:37.0	312.320	0.140	-1.180	-0.520
2020/01/31 08:36:37.1	312.350	0.120	-1.170	-0.550
2020/01/31 08:36:37.2	312.390	0.110	-1.160	-0.580
2020/01/31 08:36:37.3	312.420	0.090	-1.150	-0.600
2020/01/31 08:36:37.4	312.460	0.070	-1.130	-0.630
2020/01/31 08:36:37.5	312.490	0.050	-1.120	-0.650
2020/01/31 08:36:37.6	312.530	0.030	-1.100	-0.660
2020/01/31 08:36:37.7	312.570	0.020	-1.070	-0.670
2020/01/31 08:36:37.8	312.620	0.000	-1.050	-0.680
2020/01/31 08:36:37.9	312.660	-0.020	-1.020	-0.690
2020/01/31 08:36:38.0	312.700	-0.030	-0.990	-0.690
2020/01/31 08:36:38.1	312.750	-0.050	-0.960	-0.690
2020/01/31 08:36:38.2	312.790	-0.060	-0.930	-0.690
2020/01/31 08:36:38.3	312.830	-0.080	-0.900	-0.680
2020/01/31 08:36:38.4	312.890	-0.090	-0.860	-0.670
2020/01/31 08:36:38.5	312.940	-0.100	-0.830	-0.660
2020/01/31 08:36:38.6	312.980	-0.120	-0.790	-0.640
2020/01/31 08:36:38.7	313.020	-0.130	-0.750	-0.620
2020/01/31 08:36:38.8	313.060	-0.140	-0.710	-0.600
2020/01/31 08:36:38.9	313.090	-0.150	-0.670	-0.570
2020/01/31 08:36:39.0	313.130	-0.170	-0.620	-0.540
2020/01/31 08:36:39.1	313.160	-0.180	-0.580	-0.510
2020/01/31 08:36:39.2	313.190	-0.190	-0.530	-0.480
2020/01/31 08:36:39.3	313.210	-0.200	-0.480	-0.440
2020/01/31 08:36:39.4	313.250	-0.220	-0.430	-0.390
2020/01/31 08:36:39.5	313.270	-0.230	-0.380	-0.350
2020/01/31 08:36:39.6	313.280	-0.240	-0.330	-0.300
2020/01/31 08:36:39.7	313.300	-0.250	-0.270	-0.250
2020/01/31 08:36:39.8	313.310	-0.270	-0.220	-0.200
2020/01/31 08:36:39.9	313.310	-0.280	-0.160	-0.150
2020/01/31 08:36:40.0	313.320	-0.300	-0.110	-0.100
2020/01/31 08:36:40.1	313.320	-0.310	-0.060	-0.050
2020/01/31 08:36:40.2	313.320	-0.330	-0.000	0.000
2020/01/31 08:36:40.3	313.320	-0.340	0.050	0.050
2020/01/31 08:36:40.4	313.300	-0.360	0.110	0.110
2020/01/31 08:36:40.5	313.290	-0.370	0.160	0.160
2020/01/31 08:36:40.6	313.280	-0.390	0.210	0.200
2020/01/31 08:36:40.7	313.260	-0.410	0.260	0.250
2020/01/31 08:36:40.8	313.250	-0.420	0.300	0.290
2020/01/31 08:36:40.9	313.230	-0.440	0.340	0.340
2020/01/31 08:36:41.0	313.210	-0.460	0.390	0.380
2020/01/31 08:36:41.1	313.180	-0.470	0.430	0.420
2020/01/31 08:36:41.2	313.160	-0.490	0.460	0.450
2020/01/31 08:36:41.3	313.130	-0.510	0.500	0.490
2020/01/31 08:36:41.4	313.100	-0.520	0.530	0.520
2020/01/31 08:36:41.5	313.070	-0.530	0.560	0.550
2020/01/31 08:36:41.6	313.030	-0.550	0.580	0.580
2020/01/31 08:36:41.7	313.000	-0.560	0.610	0.600
2020/01/31 08:36:41.8	312.960	-0.570	0.630	0.630
2020/01/31 08:36:41.9	312.920	-0.570	0.650	0.650
2020/01/31 08:36:42.0	312.880	-0.580	0.670	0.670
2020/01/31 08:36:42.1	312.830	-0.580	0.680	0.680
2020/01/31 08:36:42.2	312.790	-0.590	0.690	0.700
2020/01/31 08:36:42.3	312.740	-0.590	0.700	0.710
2020/01/31 08:36:42.4	312.670	-0.580	0.710	0.720
2020/01/31 08:36:42.5	312.630	-0.580	0.710	0.730
2020/01/31 08:36:42.6	312.580	-0.570	0.710	0.740
2020/01/31 08:36:42.7	312.530	-0.560	0.710	0.750
2020/01/31 08:36:42.8	312.480	-0.540	0.700	0.750
2020/01/31 08:36:42.9	312.430	-0.530	0.690	0.750
2020/01/31 08:36:43.0	312.380	-0.510	0.680	0.750
2020/01/31 08:36:43.1	312.330	-0.490	0.660	0.750
2020/01/31 08:36:43.2	312.290	-0.460	0.640	0.750
2020/01/31 08:36:43.3	312.240	-0.440	0.610	0.750
2020/01/31 08:36:43.4	312.190	-0.410	0.580	0.740
2020/01/31 08:36:43.5	312.150	-0.370	0.540	0.730
2020/01/31 08:36:43.6	312.110	-0.340	0.510	0.720
2020/01/31 08:36:43.7	312.080	-0.300	0.460	0.710
2020/01/31 08:36:43.8	312.040	-0.270	0.420	0.690
2020/01/31 08:36:43.9	312.010	-0.230	0.370	0.670
2020/01/31 08:36:44.0	311.980	-0.190	0.310	0.660
2020/01/31 08:36:44.1	311.960	-0.150	0.260	0.630
2020/01/31 08:36:44.2	311.940	-0.100	0.200	0.610
2020/01/31 08:36:44.3	311.920	-0.060	0.140	0.590
2020/01/31 08:36:44.4	311.900	-0.020	0.080	0.560
2020/01/31 08:36:44.5	311.890	0.030	0.010	0.530
2020/01/31 08:36:44.6	311.880	0.070	-0.050	0.500
2020/01/31 08:36:44.7	311.870	0.110	-0.110	0.470
2020/01/31 08:36:44.8	311.870	0.160	-0.170	0.430
2020/01/31 08:36:44.9	311.870	0.200	-0.230	0.400
2020/01/31 08:36:45.0	311.870	0.240	-0.290	0.360
2020/01/31 08:36:45.1	311.870	0.280	-0.350	0.330
2020/01/31 08:36:45.2	311.880	0.320	-0.410	0.290
2020/01/31 08:36:45.3	311.900	0.350	-0.460	0.250
2020/01/31 08:36:45.4	311.890	0.390	-0.510	0.220
2020/01/31 08:36:45.5	311.900	0.420	-0.560	0.180
2020/01/31 08:36:45.6	311.920	0.450	-0.610	0.140
2020/01/31 08:36:45.7	311.940	0.480	-0.650	0.100
2020/01/31 08:36:45.8	311.970	0.510	-0.680	0.070
2020/01/31 08:36:45.9	311.990	0.530	-0.720	0.030
2020/01/31 08:36:46.0	312.020	0.550	-0.750	-0.000
2020/01/31 08:36:46.1	312.050	0.570	-0.770	-0.030
2020/01/31 08:36:46.2	312.070	0.590	-0.800	-0.060
2020/01/31 08:36:46.3	312.100	0.600	-0.810	-0.090
2020/01/31 08:36:46.4	312.140	0.610	-0.830	-0.120
2020/01/31 08:36:46.5	312.170	0.620	-0.840	-0.140
2020/01/31 08:36:46.6	312.200	0.630	-0.850	-0.160
2020/01/31 08:36:46.7	312.230	0.630	-0.850	-0.180
2020/01/31 08:36:46.8	312.260	0.630	-0.860	-0.200
2020/01/31 08:36:46.9	312.290	0.630	-0.850	-0.210
2020/01/31 08:36:47.0	312.320	0.620	-0.850	-0.220
2020/01/31 08:36:47.1	312.350	0.620	-0.850	-0.230
2020/01/31 08:36:47.2	312.380	0.610	-0.840	-0.240
2020/01/31 08:36:47.3	312.410	0.600	-0.830	-0.240
2020/01/31 08:36:47.4	312.450	0.590	-0.820	-0.240
2020/01/31 08:36:47.5	312.480	0.570	-0.810	-0.240
2020/01/31 08:36:47.6	312.500	0.560	-0.800	-0.230
2020/01/31 08:36:47.7	312.530	0.540	-0.790	-0.230
2020/01/31 08:36:47.8	312.560	0.530	-0.770	-0.220
2020/01/31 08:36:47.9	312.590	0.510	-0.760	-0.210
2020/01/31 08:36:48.0	312.620	0.490	-0.740	-0.200
2020/01/31 08:36:48.1	312.640	0.470	-0.730	-0.180
2020/01/31 08:36:48.2	312.670	0.450	-0.710	-0.170
2020/01/31 08:36:48.3	312.690	0.430	-0.690	-0.150
2020/01/31 08:36:48.4	312.730	0.410	-0.670	-0.120
2020/01/31 08:36:48.5	312.750	0.390	-0.650	-0.100
2020/01/31 08:36:48.6	312.770	0.370	-0.630	-0.070
2020/01/31 08:36:48.7	312.790	0.350	-0.600	-0.030
2020/01/31 08:36:48.8	312.800	0.340	-0.580	0.000
2020/01/31 08:36:48.9	312.810	0.320	-0.550	0.040
2020/01/31 08:36:49.0	312.820	0.300	-0.520	0.080
2020/01/31 08:36:49.1	312.820	0.280	-0.500	0.120
2020/01/31 08:36:49.2	312.830	0.260	-0.470	0.170
2020/01/31 08:36:49.3	312.830	0.250	-0.440	0.210
2020/01/31 08:36:49.4	312.840	0.230	-0.410	0.260
2020/01/31 08:36:49.5	312.840	0.210	-0.380	0.310
2020/01/31 08:36:49.6	312.830	0.200	-0.350	0.350
2020/01/31 08:36:49.7	312.830	0.180	-0.320	0.400
2020/01/31 08:36:49.8	312.830	0.170	-0.300	0.440
2020/01/31 08:36:49.9	312.820	0.150	-0.270	0.490
2020/01/31 08:36:50.0	312.820	0.140	-0.250	0.530
2020/01/31 08:36:50.1	312.810	0.130	-0.230	0.560
2020/01/31 08:36:50.2	312.810	0.110	-0.210	0.600
2020/01/31 08:36:50.3	312.800	0.100	-0.190	0.630
2020/01/31 08:36:50.4	312.800	0.080	-0.170	0.660
2020/01/31 08:36:50.5	312.800	0.070	-0.160	0.680
2020/01/31 08:36:50.6	312.790	0.060	-0.150	0.700
2020/01/31 08:36:50.7	312.790	0.040	-0.140	0.720
2020/01/31 08:36:50.8	312.780	0.030	-0.130	0.740
2020/01/31 08:36:50.9	312.780	0.010	-0.130	0.750
2020/01/31 08:36:51.0	312.770	-0.000	-0.130	0.760
2020/01/31 08:36:51.1	312.770	-0.020	-0.120	0.770
2020/01/31 08:36:51.2	312.760	-0.030	-0.120	0.780
2020/01/31 08:36:51.3	312.760	-0.050	-0.120	0.780
2020/01/31 08:36:51.4	312.750	-0.070	-0.120	0.770
2020/01/31 08:36:51.5	312.740	-0.080	-0.130	0.770
2020/01/31 08:36:51.6	312.730	-0.100	-0.130	0.760
2020/01/31 08:36:51.7	312.730	-0.120	-0.130	0.750
2020/01/31 08:36:51.8	312.720	-0.140	-0.140	0.740
2020/01/31 08:36:51.9	312.710	-0.160	-0.140	0.720
2020/01/31 08:36:52.0	312.710	-0.180	-0.140	0.700
2020/01/31 08:36:52.1	312.700	-0.200	-0.150	0.680
2020/01/31 08:36:52.2	312.690	-0.220	-0.150	0.660
2020/01/31 08:36:52.3	312.690	-0.250	-0.160	0.630
2020/01/31 08:36:52.4	312.690	-0.270	-0.160	0.610
2020/01/31 08:36:52.5	312.690	-0.290	-0.170	0.580
2020/01/31 08:36:52.6	312.680	-0.310	-0.170	0.550
2020/01/31 08:36:52.7	312.670	-0.340	-0.180	0.510
2020/01/31 08:36:52.8	312.670	-0.360	-0.180	0.480
2020/01/31 08:36:52.9	312.660	-0.380	-0.180	0.450
2020/01/31 08:36:53.0	312.650	-0.400	-0.180	0.410
2020/01/31 08:36:53.1	312.650	-0.430	-0.190	0.370
2020/01/31 08:36:53.2	312.640	-0.450	-0.190	0.340
2020/01/31 08:36:53.3	312.640	-0.470	-0.190	0.300
2020/01/31 08:36:53.4	312.630	-0.490	-0.190	0.270
2020/01/31 08:36:53.5	312.620	-0.510	-0.190	0.230
2020/01/31 08:36:53.6	312.620	-0.530	-0.180	0.200
2020/01/31 08:36:53.7	312.610	-0.550	-0.180	0.160
2020/01/31 08:36:53.8	312.610	-0.560	-0.180	0.130
2020/01/31 08:36:53.9	312.600	-0.580	-0.170	0.090
2020/01/31 08:36:54.0	312.600	-0.590	-0.170	0.060
2020/01/31 08:36:54.1	312.600	-0.600	-0.160	0.030
2020/01/31 08:36:54.2	312.590	-0.610	-0.150	0.000
2020/01/31 08:36:54.3	312.590	-0.620	-0.150	-0.030
2020/01/31 08:36:54.4	312.580	-0.620	-0.140	-0.060
2020/01/31 08:36:54.5	312.580	-0.630	-0.130	-0.080
2020/01/31 08:36:54.6	312.570	-0.630	-0.120	-0.100
2020/01/31 08:36:54.7	312.570	-0.620	-0.110	-0.120
2020/01/31 08:36:54.8	312.560	-0.620	-0.100	-0.140
2020/01/31 08:36:54.9	312.550	-0.610	-0.090	-0.160
2020/01/31 08:36:55.0	312.540	-0.600	-0.070	-0.170
2020/01/31 08:36:55.1	312.530	-0.590	-0.060	-0.180
2020/01/31 08:36:55.2	312.520	-0.570	-0.050	-0.190
2020/01/31 08:36:55.3	312.510	-0.550	-0.030	-0.190
2020/01/31 08:36:55.4	312.490	-0.530	-0.020	-0.190
2020/01/31 08:36:55.5	312.470	-0.500	-0.010	-0.180
2020/01/31 08:36:55.6	312.460	-0.480	0.010	-0.170
2020/01/31 08:36:55.7	312.440	-0.450	0.020	-0.160
2020/01/31 08:36:55.8	312.420	-0.420	0.040	-0.140
2020/01/31 08:36:55.9	312.410	-0.380	0.050	-0.120
2020/01/31 08:36:56.0	312.390	-0.350	0.070	-0.090
2020/01/31 08:36:56.1	312.370	-0.310	0.080	-0.070
2020/01/31 08:36:56.2	312.350	-0.270	0.090	-0.040
2020/01/31 08:36:56.3	312.330	-0.230	0.100	-0.010
2020/01/31 08:36:56.4	312.320	-0.190	0.120	0.020
2020/01/31 08:36:56.5	312.310	-0.150	0.120	0.050
2020/01/31 08:36:56.6	312.290	-0.100	0.130	0.080
2020/01/31 08:36:56.7	312.280	-0.060	0.140	0.120
2020/01/31 08:36:56.8	312.260	-0.020	0.140	0.150
2020/01/31 08:36:56.9	312.250	0.020	0.140	0.180
2020/01/31 08:36:57.0	312.240	0.070	0.130	0.210
2020/01/31 08:36:57.1	312.230	0.110	0.130	0.240
2020/01/31 08:36:57.2	312.220	0.150	0.120	0.270
2020/01/31 08:36:57.3	312.210	0.190	0.120	0.300
2020/01/31 08:36:57.4	312.210	0.230	0.110	0.330
2020/01/31 08:36:57.5	312.200	0.260	0.090	0.360
2020/01/31 08:36:57.6	312.200	0.300	0.080	0.380
2020/01/31 08:36:57.7	312.190	0.330	0.060	0.410
2020/01/31 08:36:57.8	312.190	0.360	0.050	0.430
2020/01/31 08:36:57.9	312.180	0.390	0.030	0.450
2020/01/31 08:36:58.0	312.180	0.420	0.010	0.480
2020/01/31 08:36:58.1	312.180	0.450	-0.010	0.500
2020/01/31 08:36:58.2	312.170	0.470	-0.030	0.520
2020/01/31 08:36:58.3	312.170	0.490	-0.060	0.540
2020/01/31 08:36:58.4	312.170	0.500	-0.080	0.550
2020/01/31 08:36:58.5	312.170	0.520	-0.100	0.570
2020/01/31 08:36:58.6	312.170	0.530	-0.130	0.580
2020/01/31 08:36:58.7	312.170	0.540	-0.150	0.600
2020/01/31 08:36:58.8	312.180	0.550	-0.180	0.610
2020/01/31 08:36:58.9	312.180	0.560	-0.200	0.620
2020/01/31 08:36:59.0	312.190	0.560	-0.230	0.630
2020/01/31 08:36:59.1	312.200	0.560	-0.260	0.640
2020/01/31 08:36:59.2	312.210	0.560	-0.290	0.640
2020/01/31 08:36:59.3	312.220	0.560	-0.320	0.640
2020/01/31 08:36:59.4	312.210	0.550	-0.350	0.650
2020/01/31 08:36:59.5	312.220	0.550	-0.380	0.650
2020/01/31 08:36:59.6	312.240	0.540	-0.410	0.640
2020/01/31 08:36:59.7	312.260	0.530	-0.440	0.630
2020/01/31 08:36:59.8	312.280	0.520	-0.470	0.630
2020/01/31 08:36:59.9	312.300	0.510	-0.500	0.610
2020/01/31 08:37:00.0	312.330	0.500	-0.530	0.600
2020/01/31 08:37:00.1	312.360	0.490	-0.560	0.580
2020/01/31 08:37:00.2	312.390	0.480	-0.600	0.570
2020/01/31 08:37:00.3	312.420	0.470	-0.630	0.550
2020/01/31 08:37:00.4	312.460	0.450	-0.650	0.520
2020/01/31 08:37:00.5	312.490	0.440	-0.680	0.500
2020/01/31 08:37:00.6	312.530	0.430	-0.710	0.470
2020/01/31 08:37:00.7	312.570	0.410	-0.730	0.450
2020/01/31 08:37:00.8	312.610	0.400	-0.760	0.430
2020/01/31 08:37:00.9	312.640	0.390	-0.780	0.400
2020/01/31 08:37:01.0	312.680	0.370	-0.800	0.380
2020/01/31 08:37:01.1	312.720	0.360	-0.810	0.360
2020/01/31 08:37:01.2	312.760	0.340	-0.820	0.330
2020/01/31 08:37:01.3	312.790	0.330	-0.830	0.310
2020/01/31 08:37:01.4	312.830	0.310	-0.840	0.300
2020/01/31 08:37:01.5	312.870	0.300	-0.840	0.280
2020/01/31 08:37:01.6	312.900	0.280	-0.840	0.260
2020/01/31 08:37:01.7	312.930	0.260	-0.840	0.250
2020/01/31 08:37:01.8	312.960	0.250	-0.830	0.240
2020/01/31 08:37:01.9	312.990	0.230	-0.820	0.230
2020/01/31 08:37:02.0	313.010	0.220	-0.800	0.220
2020/01/31 08:37:02.1	313.040	0.200	-0.780	0.210
2020/01/31 08:37:02.2	313.060	0.180	-0.760	0.210
2020/01/31 08:37:02.3	313.080	0.170	-0.740	0.210
2020/01/31 08:37:02.4	313.110	0.150	-0.710	0.210
2020/01/31 08:37:02.5	313.120	0.130	-0.680	0.210
2020/01/31 08:37:02.6	313.130	0.120	-0.650	0.220
2020/01/31 08:37:02.7	313.140	0.100	-0.610	0.230
2020/01/31 08:37:02.8	313.150	0.080	-0.580	0.230
2020/01/31 08:37:02.9	313.150	0.070	-0.540	0.240
2020/01/31 08:37:03.0	313.150	0.050	-0.500	0.260
2020/01/31 08:37:03.1	313.150	0.030	-0.460	0.270
2020/01/31 08:37:03.2	313.150	0.010	-0.410	0.280
2020/01/31 08:37:03.3	313.140	-0.010	-0.370	0.300
2020/01/31 08:37:03.4	313.120	-0.020	-0.330	0.320
2020/01/31 08:37:03.5	313.110	-0.040	-0.290	0.330
2020/01/31 08:37:03.6	313.090	-0.060	-0.250	0.350
2020/01/31 08:37:03.7	313.070	-0.080	-0.200	0.370
2020/01/31 08:37:03.8	313.050	-0.100	-0.160	0.390
2020/01/31 08:37:03.9	313.030	-0.120	-0.120	0.410
2020/01/31 08:37:04.0	313.000	-0.140	-0.080	0.430
2020/01/31 08:37:04.1	312.970	-0.150	-0.040	0.450
2020/01/31 08:37:04.2	312.940	-0.170	-0.000	0.470
2020/01/31 08:37:04.3	312.910	-0.190	0.030	0.490
2020/01/31 08:37:04.4	312.880	-0.210	0.070	0.510
2020/01/31 08:37:04.5	312.850	-0.230	0.100	0.530
2020/01/31 08:37:04.6	312.810	-0.250	0.140	0.550
2020/01/31 08:37:04.7	312.770	-0.260	0.160	0.560
2020/01/31 08:37:04.8	312.730	-0.280	0.190	0.580
2020/01/31 08:37:04.9	312.690	-0.300	0.210	0.600
2020/01/31 08:37:05.0	312.650	-0.320	0.240	0.610
2020/01/31 08:37:05.1	312.610	-0.330	0.250	0.630
2020/01/31 08:37:05.2	312.570	-0.350	0.270	0.640
2020/01/31 08:37:05.3	312.530	-0.360	0.280	0.650
2020/01/31 08:37:05.4	312.470	-0.380	0.290	0.660
2020/01/31 08:37:05.5	312.430	-0.390	0.300	0.670
2020/01/31 08:37:05.6	312.380	-0.410	0.300	0.680
2020/01/31 08:37:05.7	312.340	-0.420	0.300	0.680
2020/01/31 08:37:05.8	312.290	-0.430	0.300	0.690
2020/01/31 08:37:05.9	312.250	-0.440	0.300	0.690
2020/01/31 08:37:06.0	312.210	-0.450	0.290	0.690
2020/01/31 08:37:06.1	312.170	-0.460	0.280	0.680
2020/01/31 08:37:06.2	312.130	-0.470	0.260	0.680
2020/01/31 08:37:06.3	312.090	-0.480	0.250	0.670
2020/01/31 08:37:06.4	312.060	-0.480	0.230	0.660
2020/01/31 08:37:06.5	312.020	-0.490	0.210	0.640
2020/01/31 08:37:06.6	311.990	-0.490	0.180	0.630
2020/01/31 08:37:06.7	311.960	-0.490	0.160	0.610
2020/01/31 08:37:06.8	311.930	-0.500	0.130	0.590
2020/01/31 08:37:06.9	311.900	-0.500	0.100	0.570
2020/01/31 08:37:07.0	311.880	-0.490	0.070	0.550
2020/01/31 08:37:07.1	311.850	-0.490	0.030	0.530
2020/01/31 08:37:07.2	311.830	-0.490	-0.000	0.500
2020/01/31 08:37:07.3	311.810	-0.480	-0.040	0.480
2020/01/31 08:37:07.4	311.790	-0.480	-0.080	0.450
2020/01/31 08:37:07.5	311.780	-0.470	-0.110	0.420
2020/01/31 08:37:07.6	311.770	-0.460	-0.150	0.390
2020/01/31 08:37:07.7	311.760	-0.450	-0.180	0.360
2020/01/31 08:37:07.8	311.750	-0.440	-0.210	0.330
2020/01/31 08:37:07.9	311.750	-0.420	-0.240	0.300
2020/01/31 08:37:08.0	311.750	-0.410	-0.270	0.260
2020/01/31 08:37:08.1	311.750	-0.390	-0.300	0.230
2020/01/31 08:37:08.2	311.760	-0.380	-0.320	0.200
2020/01/31 08:37:08.3	311.760	-0.360	-0.350	0.170
2020/01/31 08:37:08.4	311.770	-0.340	-0.360	0.140
2020/01/31 08:37:08.5	311.780	-0.320	-0.380	0.110
2020/01/31 08:37:08.6	311.790	-0.300	-0.390	0.070
2020/01/31 08:37:08.7	311.800	-0.280	-0.400	0.050
2020/01/31 08:37:08.8	311.820	-0.260	-0.410	0.020
2020/01/31 08:37:08.9	311.840	-0.240	-0.420	-0.010
2020/01/31 08:37:09.0	311.860	-0.220	-0.420	-0.040
2020/01/31 08:37:09.1	311.880	-0.200	-0.420	-0.060
2020/01/31 08:37:09.2	311.910	-0.170	-0.420	-0.090
2020/01/31 08:37:09.3	311.930	-0.150	-0.420	-0.110
2020/01/31 08:37:09.4	311.960	-0.130	-0.410	-0.130
2020/01/31 08:37:09.5	311.990	-0.100	-0.410	-0.150
2020/01/31 08:37:09.6	312.020	-0.080	-0.400	-0.170
2020/01/31 08:37:09.7	312.050	-0.050	-0.400	-0.190
2020/01/31 08:37:09.8	312.080	-0.030	-0.390	-0.200
2020/01/31 08:37:09.9	312.110	-0.000	-0.380	-0.210
2020/01/31 08:37:10.0	312.140	0.020	-0.370	-0.220
2020/01/31 08:37:10.1	312.170	0.050	-0.360	-0.220
2020/01/31 08:37:10.2	312.210	0.070	-0.350	-0.220
2020/01/31 08:37:10.3	312.240	0.100	-0.340	-0.220
2020/01/31 08:37:10.4	312.290	0.120	-0.330	-0.210
2020/01/31 08:37:10.5	312.320	0.150	-0.320	-0.200
2020/01/31 08:37:10.6	312.350	0.180	-0.310	-0.180
2020/01/31 08:37:10.7	312.390	0.200	-0.300	-0.170
2020/01/31 08:37:10.8	312.420	0.220	-0.280	-0.150
2020/01/31 08:37:10.9	312.450	0.250	-0.280	-0.120
2020/01/31 08:37:11.0	312.470	0.270	-0.270	-0.090
2020/01/31 08:37:11.1	312.500	0.300	-0.260	-0.060
2020/01/31 08:37:11.2	312.530	0.320	-0.250	-0.030
2020/01/31 08:37:11.3	312.560	0.340	-0.250	0.000
2020/01/31 08:37:11.4	312.590	0.360	-0.240	0.040
2020/01/31 08:37:11.5	312.610	0.380	-0.240	0.080
2020/01/31 08:37:11.6	312.640	0.400	-0.240	0.120
2020/01/31 08:37:11.7	312.660	0.420	-0.240	0.150
2020/01/31 08:37:11.8	312.680	0.430	-0.240	0.190
2020/01/31 08:37:11.9	312.700	0.450	-0.240	0.230
2020/01/31 08:37:12.0	312.730	0.470	-0.250	0.260
2020/01/31 08:37:12.1	312.750	0.480	-0.250	0.300
2020/01/31 08:37:12.2	312.770	0.490	-0.260	0.330
2020/01/31 08:37:12.3	312.790	0.500	-0.270	0.360
2020/01/31 08:37:12.4	312.810	0.510	-0.280	0.390
2020/01/31 08:37:12.5	312.830	0.520	-0.300	0.420
2020/01/31 08:37:12.6	312.850	0.530	-0.310	0.450
2020/01/31 08:37:12.7	312.870	0.540	-0.320	0.480
2020/01/31 08:37:12.8	312.890	0.540	-0.340	0.500
2020/01/31 08:37:12.9	312.910	0.550	-0.350	0.530
2020/01/31 08:37:13.0	312.920	0.550	-0.370	0.550
2020/01/31 08:37:13.1	312.940	0.550	-0.380	0.570
2020/01/31 08:37:13.2	312.950	0.560	-0.400	0.600
2020/01/31 08:37:13.3	312.970	0.550	-0.410	0.620
2020/01/31 08:37:13.4	312.970	0.550	-0.420	0.630
2020/01/31 08:37:13.5	312.980	0.550	-0.430	0.650
2020/01/31 08:37:13.6	312.990	0.540	-0.440	0.660
2020/01/31 08:37:13.7	313.000	0.540	-0.450	0.670
2020/01/31 08:37:13.8	313.000	0.530	-0.450	0.690
2020/01/31 08:37:13.9	313.010	0.520	-0.450	0.690
2020/01/31 08:37:14.0	313.010	0.510	-0.460	0.700
2020/01/31 08:37:14.1	313.010	0.500	-0.460	0.710
2020/01/31 08:37:14.2	313.020	0.490	-0.450	0.710
2020/01/31 08:37:14.3	313.010	0.470	-0.450	0.710
2020/01/31 08:37:14.4	313.000	0.460	-0.440	0.710
2020/01/31 08:37:14.5	313.000	0.440	-0.430	0.710
2020/01/31 08:37:14.6	313.000	0.420	-0.420	0.700
2020/01/31 08:37:14.7	312.990	0.400	-0.410	0.700
2020/01/31 08:37:14.8	312.980	0.380	-0.390	0.690
2020/01/31 08:37:14.9	312.970	0.360	-0.380	0.680
2020/01/31 08:37:15.0	312.950	0.340	-0.360	0.670
2020/01/31 08:37:15.1	312.940	0.310	-0.340	0.670
2020/01/31 08:37:15.2	312.920	0.290	-0.310	0.660
2020/01/31 08:37:15.3	312.900	0.260	-0.290	0.650
2020/01/31 08:37:15.4	312.870	0.230	-0.270	0.640
2020/01/31 08:37:15.5	312.850	0.200	-0.240	0.630
2020/01/31 08:37:15.6	312.820	0.170	-0.210	0.620
2020/01/31 08:37:15.7	312.790	0.140	-0.180	0.610
2020/01/31 08:37:15.8	312.760	0.110	-0.150	0.590
2020/01/31 08:37:15.9	312.730	0.080	-0.120	0.580
2020/01/31 08:37:16.0	312.700	0.050	-0.100	0.570
2020/01/31 08:37:16.1	312.670	0.020	-0.070	0.560
2020/01/31 08:37:16.2	312.630	-0.020	-0.040	0.540
2020/01/31 08:37:16.3	312.600	-0.050	-0.020	0.530
2020/01/31 08:37:16.4	312.570	-0.080	0.010	0.510
2020/01/31 08:37:16.5	312.540	-0.110	0.030	0.490
2020/01/31 08:37:16.6	312.510	-0.140	0.050	0.470
2020/01/31 08:37:16.7	312.480	-0.170	0.070	0.440
2020/01/31 08:37:16.8	312.450	-0.200	0.080	0.420
2020/01/31 08:37:16.9	312.420	-0.230	0.090	0.390
2020/01/31 08:37:17.0	312.400	-0.260	0.100	0.350
2020/01/31 08:37:17.1	312.370	-0.290	0.100	0.320
2020/01/31 08:37:17.2	312.350	-0.310	0.100	0.280
2020/01/31 08:37:17.3	312.330	-0.340	0.100	0.250
2020/01/31 08:37:17.4	312.310	-0.360	0.090	0.200
2020/01/31 08:37:17.5	312.290	-0.380	0.080	0.160
2020/01/31 08:37:17.6	312.270	-0.400	0.070	0.120
2020/01/31 08:37:17.7	312.250	-0.420	0.060	0.080
2020/01/31 08:37:17.8	312.240	-0.440	0.050	0.040
2020/01/31 08:37:17.9	312.220	-0.450	0.030	-0.000
2020/01/31 08:37:18.0	312.210	-0.470	0.010	-0.050
2020/01/31 08:37:18.1	312.200	-0.480	-0.010	-0.090
2020/01/31 08:37:18.2	312.190	-0.490	-0.030	-0.130
2020/01/31 08:37:18.3	312.180	-0.500	-0.050	-0.160
2020/01/31 08:37:18.4	312.160	-0.500	-0.070	-0.200
2020/01/31 08:37:18.5	312.150	-0.510	-0.090	-0.240
2020/01/31 08:37:18.6	312.150	-0.510	-0.110	-0.270
2020/01/31 08:37:18.7	312.150	-0.510	-0.130	-0.300
2020/01/31 08:37:18.8	312.150	-0.510	-0.150	-0.330
2020/01/31 08:37:18.9	312.150	-0.510	-0.180	-0.360
2020/01/31 08:37:19.0	312.160	-0.500	-0.200	-0.380
2020/01/31 08:37:19.1	312.160	-0.500	-0.220	-0.400
2020/01/31 08:37:19.2	312.170	-0.490	-0.240	-0.430
2020/01/31 08:37:19.3	312.180	-0.490	-0.260	-0.450
2020/01/31 08:37:19.4	312.190	-0.480	-0.280	-0.460
2020/01/31 08:37:19.5	312.210	-0.470	-0.300	-0.480
2020/01/31 08:37:19.6	312.220	-0.450	-0.320	-0.490
2020/01/31 08:37:19.7	312.240	-0.440	-0.340	-0.500
2020/01/31 08:37:19.8	312.260	-0.430	-0.350	-0.520
2020/01/31 08:37:19.9	312.280	-0.420	-0.370	-0.530
2020/01/31 08:37:20.0	312.300	-0.400	-0.390	-0.530
2020/01/31 08:37:20.1	312.320	-0.390	-0.410	-0.540
2020/01/31 08:37:20.2	312.350	-0.370	-0.420	-0.540
2020/01/31 08:37:20.3	312.380	-0.360	-0.440	-0.550
2020/01/31 08:37:20.4	312.420	-0.340	-0.450	-0.550
2020/01/31 08:37:20.5	312.450	-0.320	-0.470	-0.550
2020/01/31 08:37:20.6	312.480	-0.310	-0.480	-0.540
2020/01/31 08:37:20.7	312.510	-0.290	-0.500	-0.540
2020/01/31 08:37:20.8	312.550	-0.280	-0.510	-0.540
2020/01/31 08:37:20.9	312.580	-0.260	-0.530	-0.530
2020/01/31 08:37:21.0	312.610	-0.240	-0.540	-0.520
2020/01/31 08:37:21.1	312.650	-0.230	-0.550	-0.500
2020/01/31 08:37:21.2	312.690	-0.210	-0.560	-0.490
2020/01/31 08:37:21.3	312.720	-0.200	-0.570	-0.470
2020/01/31 08:37:21.4	312.770	-0.180	-0.570	-0.450
2020/01/31 08:37:21.5	312.810	-0.170	-0.580	-0.420
2020/01/31 08:37:21.6	312.840	-0.150	-0.580	-0.400
2020/01/31 08:37:21.7	312.870	-0.140	-0.570	-0.370
2020/01/31 08:37:21.8	312.910	-0.120	-0.570	-0.330
2020/01/31 08:37:21.9	312.940	-0.110	-0.560	-0.300
2020/01/31 08:37:22.0	312.960	-0.100	-0.550	-0.260
2020/01/31 08:37:22.1	312.990	-0.090	-0.540	-0.220
2020/01/31 08:37:22.2	313.010	-0.070	-0.530	-0.170
2020/01/31 08:37:22.3	313.040	-0.060	-0.510	-0.130
2020/01/31 08:37:22.4	313.070	-0.050	-0.490	-0.080
2020/01/31 08:37:22.5	313.080	-0.040	-0.470	-0.030
2020/01/31 08:37:22.6	313.100	-0.030	-0.440	0.030
2020/01/31 08:37:22.7	313.110	-0.020	-0.420	0.080
2020/01/31 08:37:22.8	313.120	-0.010	-0.390	0.130
2020/01/31 08:37:22.9	313.130	-0.000	-0.360	0.190
2020/01/31 08:37:23.0	313.140	0.010	-0.330	0.240
2020/01/31 08:37:23.1	313.140	0.010	-0.310	0.300
2020/01/31 08:37:23.2	313.140	0.020	-0.280	0.360
2020/01/31 08:37:23.3	313.140	0.030	-0.250	0.410
2020/01/31 08:37:23.4	313.140	0.040	-0.220	0.470
2020/01/31 08:37:23.5	313.140	0.050	-0.190	0.530
2020/01/31 08:37:23.6	313.130	0.050	-0.160	0.580
2020/01/31 08:37:23.7	313.130	0.060	-0.130	0.630
2020/01/31 08:37:23.8	313.120	0.070	-0.100	0.690
2020/01/31 08:37:23.9	313.110	0.080	-0.070	0.740
2020/01/31 08:37:24.0	313.100	0.090	-0.040	0.790
2020/01/31 08:37:24.1	313.090	0.090	-0.020	0.830
2020/01/31 08:37:24.2	313.080	0.100	0.010	0.880
2020/01/31 08:37:24.3	313.060	0.110	0.030	0.920
2020/01/31 08:37:24.4	313.040	0.120	0.050	0.960
2020/01/31 08:37:24.5	313.030	0.130	0.070	1.000
2020/01/31 08:37:24.6	313.010	0.140	0.090	1.040
2020/01/31 08:37:24.7	313.000	0.150	0.110	1.070
2020/01/31 08:37:24.8	312.980	0.150	0.130	1.110
2020/01/31 08:37:24.9	312.960	0.160	0.140	1.140
2020/01/31 08:37:25.0	312.940	0.170	0.150	1.160
2020/01/31 08:37:25.1	312.920	0.180	0.170	1.190
2020/01/31 08:37:25.2	312.900	0.190	0.180	1.210
2020/01/31 08:37:25.3	312.880	0.200	0.190	1.230
2020/01/31 08:37:25.4	312.860	0.210	0.200	1.250
2020/01/31 08:37:25.5	312.840	0.220	0.200	1.270
2020/01/31 08:37:25.6	312.820	0.230	0.210	1.280
2020/01/31 08:37:25.7	312.790	0.240	0.210	1.290
2020/01/31 08:37:25.8	312.760	0.250	0.210	1.290
2020/01/31 08:37:25.9	312.740	0.250	0.210	1.300
2020/01/31 08:37:26.0	312.710	0.260	0.210	1.290
2020/01/31 08:37:26.1	312.680	0.270	0.200	1.290
2020/01/31 08:37:26.2	312.650	0.270	0.190	1.280
2020/01/31 08:37:26.3	312.630	0.270	0.180	1.270
2020/01/31 08:37:26.4	312.590	0.280	0.160	1.250
2020/01/31 08:37:26.5	312.570	0.280	0.150	1.230
2020/01/31 08:37:26.6	312.540	0.280	0.130	1.210
2020/01/31 08:37:26.7	312.520	0.290	0.110	1.180
2020/01/31 08:37:26.8	312.500	0.290	0.080	1.140
2020/01/31 08:37:26.9	312.480	0.290	0.050	1.110
2020/01/31 08:37:27.0	312.460	0.290	0.020	1.070
2020/01/31 08:37:27.1	312.440	0.280	-0.020	1.020
2020/01/31 08:37:27.2	312.430	0.280	-0.050	0.970
2020/01/31 08:37:27.3	312.420	0.280	-0.090	0.910
2020/01/31 08:37:27.4	312.420	0.280	-0.130	0.850
2020/01/31 08:37:27.5	312.410	0.270	-0.180	0.790
2020/01/31 08:37:27.6	312.410	0.270	-0.220	0.720
2020/01/31 08:37:27.7	312.420	0.260	-0.270	0.650
2020/01/31 08:37:27.8	312.420	0.260	-0.320	0.580
2020/01/31 08:37:27.9	312.430	0.250	-0.370	0.500
2020/01/31 08:37:28.0	312.450	0.250	-0.420	0.430
2020/01/31 08:37:28.1	312.460	0.240	-0.460	0.350
2020/01/31 08:37:28.2	312.480	0.230	-0.510	0.270
2020/01/31 08:37:28.3	312.500	0.220	-0.560	0.190
2020/01/31 08:37:28.4	312.510	0.220	-0.610	0.120
2020/01/31 08:37:28.5	312.530	0.210	-0.650	0.050
2020/01/31 08:37:28.6	312.550	0.200	-0.680	-0.030
2020/01/31 08:37:28.7	312.580	0.190	-0.720	-0.090
2020/01/31 08:37:28.8	312.600	0.180	-0.750	-0.160
2020/01/31 08:37:28.9	312.630	0.170	-0.780	-0.220
2020/01/31 08:37:29.0	312.660	0.160	-0.800	-0.280
2020/01/31 08:37:29.1	312.690	0.150	-0.820	-0.340
2020/01/31 08:37:29.2	312.710	0.140	-0.840	-0.390
2020/01/31 08:37:29.3	312.740	0.130	-0.850	-0.430
2020/01/31 08:37:29.4	312.760	0.120	-0.850	-0.470
2020/01/31 08:37:29.5	312.790	0.110	-0.850	-0.510
2020/01/31 08:37:29.6	312.810	0.100	-0.850	-0.540
2020/01/31 08:37:29.7	312.830	0.090	-0.840	-0.570
2020/01/31 08:37:29.8	312.860	0.090	-0.830	-0.590
2020/01/31 08:37:29.9	312.880	0.080	-0.810	-0.610
2020/01/31 08:37:30.0	312.900	0.070	-0.790	-0.630
2020/01/31 08:37:30.1	312.920	0.060	-0.760	-0.630
2020/01/31 08:37:30.2	312.940	0.050	-0.740	-0.640
2020/01/31 08:37:30.3	312.950	0.040	-0.710	-0.640
2020/01/31 08:37:30.4	312.980	0.040	-0.670	-0.640
2020/01/31 08:37:30.5	312.990	0.030	-0.640	-0.630
2020/01/31 08:37:30.6	313.010	0.020	-0.600	-0.620
2020/01/31 08:37:30.7	313.030	0.020	-0.570	-0.610
2020/01/31 08:37:30.8	313.040	0.010	-0.530	-0.590
2020/01/31 08:37:30.9	313.060	0.010	-0.490	-0.570
2020/01/31 08:37:31.0	313.070	0.000	-0.450	-0.550
2020/01/31 08:37:31.1	313.090	-0.000	-0.410	-0.530
2020/01/31 08:37:31.2	313.100	-0.010	-0.370	-0.510
2020/01/31 08:37:31.3	313.110	-0.010	-0.340	-0.480
2020/01/31 08:37:31.4	313.120	-0.020	-0.300	-0.450
2020/01/31 08:37:31.5	313.130	-0.020	-0.270	-0.420
2020/01/31 08:37:31.6	313.140	-0.020	-0.230	-0.390
2020/01/31 08:37:31.7	313.150	-0.030	-0.200	-0.360
2020/01/31 08:37:31.8	313.150	-0.030	-0.180	-0.330
2020/01/31 08:37:31.9	313.160	-0.040	-0.150	-0.290
2020/01/31 08:37:32.0	313.170	-0.040	-0.120	-0.260
2020/01/31 08:37:32.1	313.170	-0.050	-0.100	-0.220
2020/01/31 08:37:32.2	313.170	-0.060	-0.080	-0.190
2020/01/31 08:37:32.3	313.170	-0.060	-0.060	-0.150
2020/01/31 08:37:32.4	313.170	-0.070	-0.040	-0.110
2020/01/31 08:37:32.5	313.170	-0.080	-0.020	-0.080
2020/01/31 08:37:32.6	313.160	-0.090	-0.010	-0.040
2020/01/31 08:37:32.7	313.150	-0.100	0.010	0.000
2020/01/31 08:37:32.8	313.140	-0.120	0.030	0.040
2020/01/31 08:37:32.9	313.130	-0.130	0.040	0.080
2020/01/31 08:37:33.0	313.110	-0.140	0.060	0.120
2020/01/31 08:37:33.1	313.090	-0.160	0.070	0.160
2020/01/31 08:37:33.2	313.070	-0.170	0.090	0.200
2020/01/31 08:37:33.3	313.050	-0.190	0.100	0.250
2020/01/31 08:37:33.4	313.010	-0.200	0.120	0.290
2020/01/31 08:37:33.5	312.990	-0.220	0.140	0.330
2020/01/31 08:37:33.6	312.960	-0.230	0.150	0.370
2020/01/31 08:37:33.7	312.930	-0.250	0.170	0.410
2020/01/31 08:37:33.8	312.890	-0.270	0.180	0.450
2020/01/31 08:37:33.9	312.860	-0.280	0.190	0.490
2020/01/31 08:37:34.0	312.830	-0.300	0.210	0.530
2020/01/31 08:37:34.1	312.790	-0.310	0.220	0.570
2020/01/31 08:37:34.2	312.760	-0.330	0.220	0.600
2020/01/31 08:37:34.3	312.730	-0.340	0.230	0.640
2020/01/31 08:37:34.4	312.680	-0.350	0.240	0.670
2020/01/31 08:37:34.5	312.650	-0.360	0.240	0.690
2020/01/31 08:37:34.6	312.620	-0.370	0.240	0.720
2020/01/31 08:37:34.7	312.590	-0.380	0.230	0.740
2020/01/31 08:37:34.8	312.560	-0.390	0.230	0.760
2020/01/31 08:37:34.9	312.540	-0.390	0.220	0.770
2020/01/31 08:37:35.0	312.520	-0.390	0.200	0.780
2020/01/31 08:37:35.1	312.490	-0.390	0.190	0.790
2020/01/31 08:37:35.2	312.470	-0.390	0.170	0.800
2020/01/31 08:37:35.3	312.460	-0.390	0.150	0.800
2020/01/31 08:37:35.4	312.440	-0.380	0.120	0.790
2020/01/31 08:37:35.5	312.420	-0.380	0.090	0.790
2020/01/31 08:37:35.6	312.410	-0.370	0.060	0.780
2020/01/31 08:37:35.7	312.400	-0.360	0.030	0.770
2020/01/31 08:37:35.8	312.390	-0.350	-0.000	0.750
2020/01/31 08:37:35.9	312.380	-0.330	-0.040	0.740
2020/01/31 08:37:36.0	312.370	-0.320	-0.070	0.720
2020/01/31 08:37:36.1	312.370	-0.300	-0.110	0.700
2020/01/31 08:37:36.2	312.370	-0.280	-0.150	0.670
2020/01/31 08:37:36.3	312.370	-0.260	-0.200	0.650
2020/01/31 08:37:36.4	312.360	-0.240	-0.240	0.620
2020/01/31 08:37:36.5	312.360	-0.220	-0.280	0.590
2020/01/31 08:37:36.6	312.370	-0.200	-0.320	0.560
2020/01/31 08:37:36.7	312.370	-0.170	-0.360	0.530
2020/01/31 08:37:36.8	312.380	-0.150	-0.400	0.500
2020/01/31 08:37:36.9	312.390	-0.130	-0.440	0.460
2020/01/31 08:37:37.0	312.400	-0.100	-0.480	0.430
2020/01/31 08:37:37.1	312.410	-0.080	-0.520	0.400
2020/01/31 08:37:37.2	312.420	-0.060	-0.550	0.370
2020/01/31 08:37:37.3	312.430	-0.040	-0.580	0.340
2020/01/31 08:37:37.4	312.420	-0.010	-0.610	0.320
2020/01/31 08:37:37.5	312.430	0.010	-0.630	0.290
2020/01/31 08:37:37.6	312.440	0.030	-0.650	0.260
2020/01/31 08:37:37.7	312.450	0.050	-0.670	0.240
2020/01/31 08:37:37.8	312.460	0.060	-0.680	0.220
2020/01/31 08:37:37.9	312.470	0.080	-0.690	0.200
2020/01/31 08:37:38.0	312.480	0.100	-0.700	0.180
2020/01/31 08:37:38.1	312.490	0.110	-0.700	0.170
2020/01/31 08:37:38.2	312.500	0.120	-0.690	0.160
2020/01/31 08:37:38.3	312.510	0.130	-0.690	0.150
2020/01/31 08:37:38.4	312.510	0.140	-0.670	0.140
2020/01/31 08:37:38.5	312.520	0.150	-0.660	0.130
2020/01/31 08:37:38.6	312.530	0.160	-0.640	0.130
2020/01/31 08:37:38.7	312.530	0.160	-0.620	0.130
2020/01/31 08:37:38.8	312.540	0.170	-0.600	0.120
2020/01/31 08:37:38.9	312.550	0.170	-0.580	0.130
2020/01/31 08:37:39.0	312.560	0.170	-0.560	0.130
2020/01/31 08:37:39.1	312.570	0.170	-0.530	0.130
2020/01/31 08:37:39.2	312.580	0.170	-0.510	0.130
2020/01/31 08:37:39.3	312.590	0.170	-0.480	0.130
2020/01/31 08:37:39.4	312.600	0.170	-0.450	0.140
2020/01/31 08:37:39.5	312.620	0.170	-0.430	0.140
2020/01/31 08:37:39.6	312.630	0.160	-0.400	0.140
2020/01/31 08:37:39.7	312.650	0.160	-0.380	0.150
2020/01/31 08:37:39.8	312.670	0.160	-0.360	0.150
2020/01/31 08:37:39.9	312.690	0.150	-0.340	0.150
2020/01/31 08:37:40.0	312.710	0.150	-0.320	0.150
2020/01/31 08:37:40.1	312.730	0.140	-0.300	0.150
2020/01/31 08:37:40.2	312.750	0.140	-0.280	0.150
2020/01/31 08:37:40.3	312.780	0.130	-0.270	0.150
2020/01/31 08:37:40.4	312.800	0.130	-0.260	0.140
2020/01/31 08:37:40.5	312.830	0.120	-0.240	0.140
2020/01/31 08:37:40.6	312.850	0.120	-0.230	0.140
2020/01/31 08:37:40.7	312.880	0.110	-0.220	0.140
2020/01/31 08:37:40.8	312.900	0.110	-0.210	0.130
2020/01/31 08:37:40.9	312.930	0.100	-0.200	0.130
2020/01/31 08:37:41.0	312.950	0.100	-0.200	0.130
2020/01/31 08:37:41.1	312.980	0.090	-0.190	0.140
2020/01/31 08:37:41.2	313.000	0.090	-0.190	0.140
2020/01/31 08:37:41.3	313.020	0.080	-0.180	0.150
2020/01/31 08:37:41.4	313.040	0.080	-0.170	0.160
2020/01/31 08:37:41.5	313.060	0.070	-0.170	0.170
2020/01/31 08:37:41.6	313.070	0.070	-0.160	0.180
2020/01/31 08:37:41.7	313.080	0.060	-0.150	0.190
2020/01/31 08:37:41.8	313.090	0.050	-0.150	0.210
2020/01/31 08:37:41.9	313.090	0.050	-0.140	0.230
2020/01/31 08:37:42.0	313.090	0.040	-0.130	0.250
2020/01/31 08:37:42.1	313.090	0.030	-0.130	0.270
2020/01/31 08:37:42.2	313.090	0.030	-0.120	0.300
2020/01/31 08:37:42.3	313.080	0.020	-0.110	0.320
2020/01/31 08:37:42.4	313.070	0.010	-0.090	0.350
2020/01/31 08:37:42.5	313.060	0.000	-0.080	0.370
2020/01/31 08:37:42.6	313.050	-0.010	-0.070	0.400
2020/01/31 08:37:42.7	313.030	-0.020	-0.050	0.430
2020/01/31 08:37:42.8	313.010	-0.020	-0.040	0.450
2020/01/31 08:37:42.9	312.990	-0.030	-0.020	0.480
2020/01/31 08:37:43.0	312.970	-0.040	-0.000	0.510
2020/01/31 08:37:43.1	312.950	-0.050	0.010	0.540
2020/01/31 08:37:43.2	312.920	-0.050	0.030	0.570
2020/01/31 08:37:43.3	312.890	-0.060	0.050	0.600
2020/01/31 08:37:43.4	312.850	-0.060	0.070	0.630
2020/01/31 08:37:43.5	312.820	-0.070	0.080	0.660
2020/01/31 08:37:43.6	312.790	-0.070	0.100	0.700
2020/01/31 08:37:43.7	312.760	-0.080	0.110	0.730
2020/01/31 08:37:43.8	312.720	-0.080	0.130	0.760
2020/01/31 08:37:43.9	312.690	-0.080	0.140	0.790
2020/01/31 08:37:44.0	312.650	-0.080	0.150	0.820
2020/01/31 08:37:44.1	312.610	-0.090	0.160	0.850
2020/01/31 08:37:44.2	312.570	-0.090	0.160	0.870
2020/01/31 08:37:44.3	312.540	-0.090	0.170	0.900
2020/01/31 08:37:44.4	312.490	-0.080	0.170	0.920
2020/01/31 08:37:44.5	312.450	-0.080	0.170	0.940
2020/01/31 08:37:44.6	312.410	-0.080	0.160	0.960
2020/01/31 08:37:44.7	312.370	-0.080	0.150	0.980
2020/01/31 08:37:44.8	312.340	-0.070	0.140	0.990
2020/01/31 08:37:44.9	312.300	-0.060	0.130	1.000
2020/01/31 08:37:45.0	312.260	-0.060	0.110	1.000
2020/01/31 08:37:45.1	312.230	-0.050	0.080	1.010
2020/01/31 08:37:45.2	312.200	-0.040	0.060	1.010
2020/01/31 08:37:45.3	312.170	-0.030	0.030	1.000
2020/01/31 08:37:45.4	312.150	-0.020	-0.010	0.990
2020/01/31 08:37:45.5	312.120	-0.010	-0.040	0.970
2020/01/31 08:37:45.6	312.100	0.000	-0.080	0.960
2020/01/31 08:37:45.7	312.080	0.020	-0.120	0.930
2020/01/31 08:37:45.8	312.060	0.030	-0.170	0.910
2020/01/31 08:37:45.9	312.050	0.050	-0.220	0.880
2020/01/31 08:37:46.0	312.040	0.060	-0.260	0.850
2020/01/31 08:37:46.1	312.030	0.080	-0.310	0.820
2020/01/31 08:37:46.2	312.030	0.100	-0.360	0.780
2020/01/31 08:37:46.3	312.020	0.120	-0.410	0.740
2020/01/31 08:37:46.4	312.040	0.140	-0.470	0.710
2020/01/31 08:37:46.5	312.040	0.160	-0.520	0.670
2020/01/31 08:37:46.6	312.050	0.180	-0.570	0.630
2020/01/31 08:37:46.7	312.060	0.200	-0.610	0.590
2020/01/31 08:37:46.8	312.080	0.220	-0.660	0.550
2020/01/31 08:37:46.9	312.090	0.240	-0.700	0.510
2020/01/31 08:37:47.0	312.110	0.260	-0.740	0.470
2020/01/31 08:37:47.1	312.130	0.280	-0.780	0.430
2020/01/31 08:37:47.2	312.150	0.300	-0.810	0.390
2020/01/31 08:37:47.3	312.170	0.310	-0.840	0.350
2020/01/31 08:37:47.4	312.200	0.330	-0.870	0.320
2020/01/31 08:37:47.5	312.220	0.340	-0.890	0.290
2020/01/31 08:37:47.6	312.240	0.360	-0.900	0.250
2020/01/31 08:37:47.7	312.270	0.370	-0.910	0.230
2020/01/31 08:37:47.8	312.290	0.380	-0.910	0.200
2020/01/31 08:37:47.9	312.310	0.380	-0.910	0.170
2020/01/31 08:37:48.0	312.330	0.390	-0.900	0.150
2020/01/31 08:37:48.1	312.360	0.390	-0.890	0.130
2020/01/31 08:37:48.2	312.380	0.390	-0.870	0.120
2020/01/31 08:37:48.3	312.400	0.390	-0.850	0.100
2020/01/31 08:37:48.4	312.430	0.380	-0.820	0.090
2020/01/31 08:37:48.5	312.450	0.380	-0.790	0.080
2020/01/31 08:37:48.6	312.460	0.370	-0.750	0.070
2020/01/31 08:37:48.7	312.480	0.360	-0.710	0.070
2020/01/31 08:37:48.8	312.500	0.340	-0.670	0.060
2020/01/31 08:37:48.9	312.510	0.330	-0.630	0.060
2020/01/31 08:37:49.0	312.530	0.310	-0.580	0.060
2020/01/31 08:37:49.1	312.540	0.290	-0.530	0.060
2020/01/31 08:37:49.2	312.550	0.260	-0.480	0.060
2020/01/31 08:37:49.3	312.560	0.240	-0.430	0.070
2020/01/31 08:37:49.4	312.580	0.210	-0.380	0.070
2020/01/31 08:37:49.5	312.600	0.180	-0.320	0.080
2020/01/31 08:37:49.6	312.600	0.150	-0.270	0.080
2020/01/31 08:37:49.7	312.610	0.120	-0.230	0.090
2020/01/31 08:37:49.8	312.620	0.090	-0.180	0.100
2020/01/31 08:37:49.9	312.630	0.060	-0.130	0.100
2020/01/31 08:37:50.0	312.630	0.020	-0.090	0.110
2020/01/31 08:37:50.1	312.640	-0.010	-0.040	0.120
2020/01/31 08:37:50.2	312.640	-0.050	-0.010	0.120
2020/01/31 08:37:50.3	312.640	-0.090	0.030	0.130
2020/01/31 08:37:50.4	312.640	-0.120	0.060	0.130
2020/01/31 08:37:50.5	312.640	-0.160	0.090	0.140
2020/01/31 08:37:50.6	312.640	-0.190	0.120	0.140
2020/01/31 08:37:50.7	312.650	-0.230	0.140	0.140
2020/01/31 08:37:50.8	312.650	-0.260	0.160	0.140
2020/01/31 08:37:50.9	312.650	-0.290	0.170	0.140
2020/01/31 08:37:51.0	312.650	-0.330	0.180	0.140
2020/01/31 08:37:51.1	312.650	-0.360	0.180	0.130
2020/01/31 08:37:51.2	312.660	-0.390	0.180	0.120
2020/01/31 08:37:51.3	312.660	-0.410	0.180	0.110
2020/01/31 08:37:51.4	312.660	-0.440	0.170	0.100
2020/01/31 08:37:51.5	312.660	-0.460	0.160	0.090
2020/01/31 08:37:51.6	312.670	-0.480	0.150	0.080
2020/01/31 08:37:51.7	312.670	-0.500	0.130	0.060
2020/01/31 08:37:51.8	312.680	-0.520	0.110	0.050
2020/01/31 08:37:51.9	312.680	-0.530	0.090	0.030
2020/01/31 08:37:52.0	312.690	-0.540	0.070	0.010
2020/01/31 08:37:52.1	312.700	-0.560	0.050	-0.000
2020/01/31 08:37:52.2	312.710	-0.560	0.030	-0.020
2020/01/31 08:37:52.3	312.710	-0.570	0.000	-0.040
2020/01/31 08:37:52.4	312.720	-0.570	-0.020	-0.060
2020/01/31 08:37:52.5	312.730	-0.580	-0.040	-0.070
2020/01/31 08:37:52.6	312.730	-0.580	-0.060	-0.090
2020/01/31 08:37:52.7	312.740	-0.580	-0.080	-0.100
2020/01/31 08:37:52.8	312.740	-0.580	-0.090	-0.110
2020/01/31 08:37:52.9	312.750	-0.570	-0.110	-0.120
2020/01/31 08:37:53.0	312.750	-0.570	-0.120	-0.120
2020/01/31 08:37:53.1	312.750	-0.560	-0.130	-0.130
2020/01/31 08:37:53.2	312.750	-0.550	-0.140	-0.130
2020/01/31 08:37:53.3	312.750	-0.550	-0.140	-0.120
2020/01/31 08:37:53.4	312.740	-0.540	-0.140	-0.110
2020/01/31 08:37:53.5	312.730	-0.530	-0.140	-0.100
2020/01/31 08:37:53.6	312.730	-0.520	-0.140	-0.090
2020/01/31 08:37:53.7	312.720	-0.510	-0.130	-0.080
2020/01/31 08:37:53.8	312.710	-0.500	-0.120	-0.060
2020/01/31 08:37:53.9	312.700	-0.480	-0.100	-0.040
2020/01/31 08:37:54.0	312.690	-0.470	-0.090	-0.010
2020/01/31 08:37:54.1	312.670	-0.460	-0.070	0.010
2020/01/31 08:37:54.2	312.660	-0.450	-0.050	0.040
2020/01/31 08:37:54.3	312.640	-0.430	-0.030	0.070
2020/01/31 08:37:54.4	312.620	-0.420	-0.010	0.100
2020/01/31 08:37:54.5	312.600	-0.410	0.010	0.130
2020/01/31 08:37:54.6	312.580	-0.400	0.030	0.160
2020/01/31 08:37:54.7	312.550	-0.380	0.050	0.200
2020/01/31 08:37:54.8	312.530	-0.370	0.070	0.230
2020/01/31 08:37:54.9	312.510	-0.350	0.090	0.260
2020/01/31 08:37:55.0	312.480	-0.340	0.100	0.300
2020/01/31 08:37:55.1	312.460	-0.320	0.120	0.330
2020/01/31 08:37:55.2	312.430	-0.300	0.130	0.370
2020/01/31 08:37:55.3	312.410	-0.280	0.140	0.400
2020/01/31 08:37:55.4	312.380	-0.260	0.150	0.440
2020/01/31 08:37:55.5	312.350	-0.240	0.150	0.470
2020/01/31 08:37:55.6	312.330	-0.220	0.150	0.500
2020/01/31 08:37:55.7	312.310	-0.200	0.150	0.530
2020/01/31 08:37:55.8	312.280	-0.170	0.140	0.560
2020/01/31 08:37:55.9	312.260	-0.150	0.130	0.590
2020/01/31 08:37:56.0	312.250	-0.120	0.120	0.620
2020/01/31 08:37:56.1	312.230	-0.090	0.100	0.640
2020/01/31 08:37:56.2	312.210	-0.060	0.080	0.660
2020/01/31 08:37:56.3	312.200	-0.020	0.060	0.690
2020/01/31 08:37:56.4	312.200	0.010	0.020	0.700
2020/01/31 08:37:56.5	312.190	0.050	-0.010	0.720
2020/01/31 08:37:56.6	312.190	0.080	-0.050	0.730
2020/01/31 08:37:56.7	312.180	0.120	-0.090	0.740
2020/01/31 08:37:56.8	312.180	0.160	-0.130	0.740
2020/01/31 08:37:56.9	312.180	0.200	-0.180	0.750
2020/01/31 08:37:57.0	312.180	0.250	-0.230	0.750
2020/01/31 08:37:57.1	312.180	0.290	-0.280	0.740
2020/01/31 08:37:57.2	312.190	0.330	-0.340	0.740
2020/01/31 08:37:57.3	312.200	0.370	-0.390	0.730
2020/01/31 08:37:57.4	312.210	0.420	-0.450	0.720
2020/01/31 08:37:57.5	312.220	0.460	-0.510	0.700
2020/01/31 08:37:57.6	312.240	0.500	-0.560	0.680
2020/01/31 08:37:57.7	312.250	0.540	-0.620	0.670
2020/01/31 08:37:57.8	312.270	0.580	-0.670	0.650
2020/01/31 08:37:57.9	312.290	0.620	-0.720	0.630
2020/01/31 08:37:58.0	312.310	0.650	-0.760	0.600
2020/01/31 08:37:58.1	312.330	0.690	-0.810	0.580
2020/01/31 08:37:58.2	312.360	0.720	-0.840	0.560
2020/01/31 08:37:58.3	312.380	0.750	-0.880	0.540
2020/01/31 08:37:58.4	312.390	0.770	-0.900	0.520
2020/01/31 08:37:58.5	312.420	0.790	-0.930	0.500
2020/01/31 08:37:58.6	312.440	0.810	-0.950	0.480
2020/01/31 08:37:58.7	312.470	0.820	-0.960	0.460
2020/01/31 08:37:58.8	312.490	0.830	-0.970	0.440
2020/01/31 08:37:58.9	312.510	0.840	-0.970	0.430
2020/01/31 08:37:59.0	312.530	0.840	-0.960	0.410
2020/01/31 08:37:59.1	312.560	0.830	-0.950	0.400
2020/01/31 08:37:59.2	312.570	0.830	-0.940	0.390
2020/01/31 08:37:59.3	312.590	0.820	-0.910	0.390
2020/01/31 08:37:59.4	312.610	0.800	-0.890	0.390
2020/01/31 08:37:59.5	312.630	0.780	-0.850	0.380
2020/01/31 08:37:59.6	312.640	0.760	-0.820	0.380
2020/01/31 08:37:59.7	312.650	0.730	-0.770	0.390
2020/01/31 08:37:59.8	312.660	0.700	-0.730	0.390
2020/01/31 08:37:59.9	312.660	0.670	-0.680	0.400
2020/01/31 08:38:00.0	312.660	0.630	-0.630	0.400
2020/01/31 08:38:00.1	312.660	0.590	-0.580	0.410
2020/01/31 08:38:00.2	312.660	0.550	-0.530	0.420
2020/01/31 08:38:00.3	312.660	0.510	-0.470	0.430
2020/01/31 08:38:00.4	312.670	0.470	-0.420	0.440
2020/01/31 08:38:00.5	312.670	0.420	-0.370	0.450
2020/01/31 08:38:00.6	312.660	0.370	-0.320	0.450
2020/01/31 08:38:00.7	312.660	0.330	-0.270	0.460
2020/01/31 08:38:00.8	312.650	0.280	-0.220	0.460
2020/01/31 08:38:00.9	312.650	0.230	-0.180	0.470
2020/01/31 08:38:01.0	312.640	0.180	-0.140	0.470
2020/01/31 08:38:01.1	312.640	0.140	-0.110	0.470
2020/01/31 08:38:01.2	312.630	0.090	-0.080	0.460
2020/01/31 08:38:01.3	312.630	0.050	-0.060	0.460
2020/01/31 08:38:01.4	312.610	0.010	-0.040	0.450
2020/01/31 08:38:01.5	312.610	-0.030	-0.030	0.440
2020/01/31 08:38:01.6	312.610	-0.070	-0.020	0.430
2020/01/31 08:38:01.7	312.610	-0.110	-0.010	0.410
2020/01/31 08:38:01.8	312.610	-0.140	-0.010	0.390
2020/01/31 08:38:01.9	312.610	-0.180	-0.020	0.370
2020/01/31 08:38:02.0	312.610	-0.210	-0.030	0.350
2020/01/31 08:38:02.1	312.620	-0.230	-0.040	0.330
2020/01/31 08:38:02.2	312.620	-0.260	-0.060	0.300
2020/01/31 08:38:02.3	312.620	-0.280	-0.080	0.280
2020/01/31 08:38:02.4	312.620	-0.300	-0.100	0.250
2020/01/31 08:38:02.5	312.630	-0.320	-0.120	0.230
2020/01/31 08:38:02.6	312.630	-0.340	-0.150	0.200
2020/01/31 08:38:02.7	312.630	-0.350	-0.170	0.180
2020/01/31 08:38:02.8	312.630	-0.360	-0.200	0.150
2020/01/31 08:38:02.9	312.640	-0.370	-0.220	0.130
2020/01/31 08:38:03.0	312.640	-0.380	-0.250	0.110
2020/01/31 08:38:03.1	312.640	-0.380	-0.270	0.090
2020/01/31 08:38:03.2	312.640	-0.390	-0.300	0.070
2020/01/31 08:38:03.3	312.640	-0.390	-0.320	0.050
2020/01/31 08:38:03.4	312.630	-0.390	-0.340	0.030
2020/01/31 08:38:03.5	312.630	-0.390	-0.350	0.020
2020/01/31 08:38:03.6	312.630	-0.390	-0.360	0.010
2020/01/31 08:38:03.7	312.620	-0.390	-0.370	0.000
2020/01/31 08:38:03.8	312.620	-0.390	-0.380	-0.000
2020/01/31 08:38:03.9	312.610	-0.380	-0.380	-0.010
2020/01/31 08:38:04.0	312.610	-0.380	-0.380	-0.010
2020/01/31 08:38:04.1	312.600	-0.370	-0.370	-0.010
2020/01/31 08:38:04.2	312.590	-0.360	-0.360	-0.010
2020/01/31 08:38:04.3	312.580	-0.360	-0.350	-0.010
2020/01/31 08:38:04.4	312.580	-0.350	-0.330	-0.000
2020/01/31 08:38:04.5	312.570	-0.340	-0.310	0.000
2020/01/31 08:38:04.6	312.560	-0.330	-0.290	0.010
2020/01/31 08:38:04.7	312.550	-0.320	-0.270	0.020
2020/01/31 08:38:04.8	312.540	-0.310	-0.240	0.030
2020/01/31 08:38:04.9	312.530	-0.300	-0.210	0.050
2020/01/31 08:38:05.0	312.520	-0.290	-0.180	0.060
2020/01/31 08:38:05.1	312.510	-0.280	-0.140	0.080
2020/01/31 08:38:05.2	312.510	-0.270	-0.110	0.090
2020/01/31 08:38:05.3	312.500	-0.260	-0.070	0.110
2020/01/31 08:38:05.4	312.490	-0.260	-0.030	0.130
2020/01/31 08:38:05.5	312.480	-0.250	0.000	0.150
2020/01/31 08:38:05.6	312.470	-0.240	0.040	0.180
2020/01/31 08:38:05.7	312.460	-0.230	0.080	0.200
2020/01/31 08:38:05.8	312.450	-0.220	0.120	0.230
2020/01/31 08:38:05.9	312.440	-0.210	0.150	0.260
2020/01/31 08:38:06.0	312.420	-0.210	0.190	0.290
2020/01/31 08:38:06.1	312.410	-0.200	0.230	0.320
2020/01/31 08:38:06.2	312.400	-0.190	0.260	0.350
2020/01/31 08:38:06.3	312.390	-0.190	0.290	0.380
2020/01/31 08:38:06.4	312.380	-0.180	0.320	0.410
2020/01/31 08:38:06.5	312.370	-0.180	0.350	0.440
2020/01/31 08:38:06.6	312.350	-0.170	0.370	0.470
2020/01/31 08:38:06.7	312.340	-0.170	0.390	0.500
2020/01/31 08:38:06.8	312.330	-0.160	0.410	0.520
2020/01/31 08:38:06.9	312.320	-0.160	0.420	0.550
2020/01/31 08:38:07.0	312.310	-0.160	0.430	0.570
2020/01/31 08:38:07.1	312.300	-0.150	0.440	0.590
2020/01/31 08:38:07.2	312.290	-0.150	0.440	0.610
2020/01/31 08:38:07.3	312.280	-0.150	0.440	0.630
2020/01/31 08:38:07.4	312.270	-0.140	0.430	0.640
2020/01/31 08:38:07.5	312.260	-0.140	0.420	0.650
2020/01/31 08:38:07.6	312.260	-0.130	0.410	0.660
2020/01/31 08:38:07.7	312.250	-0.130	0.390	0.670
2020/01/31 08:38:07.8	312.240	-0.130	0.370	0.670
2020/01/31 08:38:07.9	312.230	-0.120	0.350	0.670
2020/01/31 08:38:08.0	312.220	-0.120	0.320	0.670
2020/01/31 08:38:08.1	312.220	-0.110	0.290	0.670
2020/01/31 08:38:08.2	312.210	-0.110	0.260	0.670
2020/01/31 08:38:08.3	312.200	-0.100	0.220	0.660
2020/01/31 08:38:08.4	312.190	-0.100	0.180	0.650
2020/01/31 08:38:08.5	312.190	-0.090	0.140	0.640
2020/01/31 08:38:08.6	312.180	-0.080	0.100	0.630
2020/01/31 08:38:08.7	312.180	-0.080	0.050	0.620
2020/01/31 08:38:08.8	312.170	-0.070	0.010	0.600
2020/01/31 08:38:08.9	312.170	-0.060	-0.040	0.590
2020/01/31 08:38:09.0	312.170	-0.060	-0.090	0.570
2020/01/31 08:38:09.1	312.170	-0.050	-0.130	0.560
2020/01/31 08:38:09.2	312.170	-0.040	-0.180	0.540
2020/01/31 08:38:09.3	312.170	-0.040	-0.230	0.520
2020/01/31 08:38:09.4	312.170	-0.030	-0.280	0.500
2020/01/31 08:38:09.5	312.170	-0.020	-0.330	0.480
2020/01/31 08:38:09.6	312.170	-0.020	-0.370	0.460
2020/01/31 08:38:09.7	312.170	-0.010	-0.420	0.450
2020/01/31 08:38:09.8	312.170	-0.000	-0.460	0.430
2020/01/31 08:38:09.9	312.170	0.000	-0.510	0.410
2020/01/31 08:38:10.0	312.180	0.010	-0.550	0.390
2020/01/31 08:38:10.1	312.180	0.020	-0.590	0.370
2020/01/31 08:38:10.2	312.180	0.020	-0.630	0.350
2020/01/31 08:38:10.3	312.180	0.030	-0.670	0.330
2020/01/31 08:38:10.4	312.170	0.030	-0.710	0.300
2020/01/31 08:38:10.5	312.180	0.040	-0.740	0.280
2020/01/31 08:38:10.6	312.180	0.040	-0.770	0.260
2020/01/31 08:38:10.7	312.180	0.050	-0.800	0.240
2020/01/31 08:38:10.8	312.190	0.050	-0.830	0.220
2020/01/31 08:38:10.9	312.190	0.060	-0.860	0.200
2020/01/31 08:38:11.0	312.200	0.060	-0.880	0.170
2020/01/31 08:38:11.1	312.210	0.060	-0.910	0.150
2020/01/31 08:38:11.2	312.210	0.070	-0.930	0.130
2020/01/31 08:38:11.3	312.220	0.070	-0.940	0.100
2020/01/31 08:38:11.4	312.230	0.070	-0.960	0.080
2020/01/31 08:38:11.5	312.240	0.080	-0.970	0.060
2020/01/31 08:38:11.6	312.250	0.080	-0.980	0.030
2020/01/31 08:38:11.7	312.260	0.080	-0.990	0.010
2020/01/31 08:38:11.8	312.280	0.090	-0.990	-0.010
2020/01/31 08:38:11.9	312.300	0.090	-0.990	-0.030
2020/01/31 08:38:12.0	312.310	0.100	-0.990	-0.050
2020/01/31 08:38:12.1	312.330	0.100	-0.990	-0.070
2020/01/31 08:38:12.2	312.350	0.100	-0.990	-0.090
2020/01/31 08:38:12.3	312.380	0.110	-0.980	-0.110
2020/01/31 08:38:12.4	312.390	0.110	-0.970	-0.120
2020/01/31 08:38:12.5	312.410	0.120	-0.950	-0.140
2020/01/31 08:38:12.6	312.440	0.120	-0.940	-0.150
2020/01/31 08:38:12.7	312.460	0.130	-0.920	-0.160
2020/01/31 08:38:12.8	312.480	0.130	-0.890	-0.160
2020/01/31 08:38:12.9	312.500	0.140	-0.870	-0.170
2020/01/31 08:38:13.0	312.520	0.140	-0.840	-0.170
2020/01/31 08:38:13.1	312.540	0.140	-0.800	-0.170
2020/01/31 08:38:13.2	312.560	0.150	-0.770	-0.160
2020/01/31 08:38:13.3	312.580	0.150	-0.730	-0.160
2020/01/31 08:38:13.4	312.610	0.150	-0.680	-0.140
2020/01/31 08:38:13.5	312.620	0.150	-0.640	-0.130
2020/01/31 08:38:13.6	312.630	0.150	-0.590	-0.110
2020/01/31 08:38:13.7	312.640	0.150	-0.540	-0.090
2020/01/31 08:38:13.8	312.650	0.160	-0.490	-0.060
2020/01/31 08:38:13.9	312.660	0.160	-0.440	-0.040
2020/01/31 08:38:14.0	312.660	0.160	-0.390	-0.000
2020/01/31 08:38:14.1	312.660	0.160	-0.330	0.030
2020/01/31 08:38:14.2	312.660	0.160	-0.280	0.070
2020/01/31 08:38:14.3	312.660	0.160	-0.220	0.110
2020/01/31 08:38:14.4	312.670	0.150	-0.170	0.150
2020/01/31 08:38:14.5	312.660	0.150	-0.110	0.200
2020/01/31 08:38:14.6	312.660	0.150	-0.060	0.240
2020/01/31 08:38:14.7	312.650	0.150	-0.010	0.290
2020/01/31 08:38:14.8	312.650	0.160	0.040	0.340
2020/01/31 08:38:14.9	312.640	0.160	0.080	0.390
2020/01/31 08:38:15.0	312.630	0.160	0.130	0.440
2020/01/31 08:38:15.1	312.620	0.160	0.170	0.490
2020/01/31 08:38:15.2	312.610	0.160	0.210	0.540
2020/01/31 08:38:15.3	312.600	0.170	0.240	0.600
2020/01/31 08:38:15.4	312.600	0.170	0.270	0.650
2020/01/31 08:38:15.5	312.590	0.170	0.300	0.700
2020/01/31 08:38:15.6	312.570	0.180	0.330	0.750
2020/01/31 08:38:15.7	312.560	0.190	0.350	0.800
2020/01/31 08:38:15.8	312.540	0.190	0.370	0.850
2020/01/31 08:38:15.9	312.520	0.200	0.380	0.890
2020/01/31 08:38:16.0	312.500	0.210	0.390	0.930
2020/01/31 08:38:16.1	312.480	0.210	0.400	0.980
2020/01/31 08:38:16.2	312.460	0.220	0.400	1.010
2020/01/31 08:38:16.3	312.440	0.230	0.400	1.050
2020/01/31 08:38:16.4	312.420	0.240	0.390	1.080
2020/01/31 08:38:16.5	312.400	0.250	0.380	1.110
2020/01/31 08:38:16.6	312.380	0.260	0.370	1.130
2020/01/31 08:38:16.7	312.360	0.260	0.350	1.150
2020/01/31 08:38:16.8	312.340	0.270	0.330	1.170
2020/01/31 08:38:16.9	312.320	0.280	0.310	1.180
2020/01/31 08:38:17.0	312.300	0.290	0.280	1.180
2020/01/31 08:38:17.1	312.280	0.290	0.250	1.180
2020/01/31 08:38:17.2	312.260	0.300	0.210	1.180
2020/01/31 08:38:17.3	312.250	0.300	0.180	1.160
2020/01/31 08:38:17.4	312.230	0.310	0.140	1.150
2020/01/31 08:38:17.5	312.220	0.310	0.090	1.120
2020/01/31 08:38:17.6	312.210	0.310	0.050	1.090
2020/01/31 08:38:17.7	312.210	0.310	0.010	1.060
2020/01/31 08:38:17.8	312.200	0.310	-0.040	1.020
2020/01/31 08:38:17.9	312.200	0.310	-0.080	0.980
2020/01/31 08:38:18.0	312.200	0.300	-0.120	0.930
2020/01/31 08:38:18.1	312.200	0.300	-0.170	0.880
2020/01/31 08:38:18.2	312.200	0.290	-0.210	0.830
2020/01/31 08:38:18.3	312.200	0.280	-0.250	0.770
2020/01/31 08:38:18.4	312.210	0.280	-0.280	0.710
2020/01/31 08:38:18.5	312.210	0.260	-0.320	0.650
2020/01/31 08:38:18.6	312.220	0.250	-0.350	0.590
2020/01/31 08:38:18.7	312.230	0.240	-0.380	0.530
2020/01/31 08:38:18.8	312.240	0.220	-0.400	0.460
2020/01/31 08:38:18.9	312.240	0.200	-0.420	0.400
2020/01/31 08:38:19.0	312.250	0.180	-0.440	0.340
2020/01/31 08:38:19.1	312.260	0.160	-0.450	0.280
2020/01/31 08:38:19.2	312.270	0.140	-0.460	0.220
2020/01/31 08:38:19.3	312.270	0.110	-0.470	0.160
2020/01/31 08:38:19.4	312.280	0.090	-0.470	0.110
2020/01/31 08:38:19.5	312.280	0.060	-0.460	0.050
2020/01/31 08:38:19.6	312.280	0.030	-0.450	0.000
2020/01/31 08:38:19.7	312.280	-0.000	-0.440	-0.040
2020/01/31 08:38:19.8	312.280	-0.030	-0.430	-0.090
2020/01/31 08:38:19.9	312.280	-0.060	-0.410	-0.130
2020/01/31 08:38:20.0	312.280	-0.100	-0.390	-0.160
2020/01/31 08:38:20.1	312.270	-0.130	-0.370	-0.200
2020/01/31 08:38:20.2	312.270	-0.160	-0.350	-0.230
2020/01/31 08:38:20.3	312.270	-0.200	-0.330	-0.260
2020/01/31 08:38:20.4	312.260	-0.230	-0.300	-0.280
2020/01/31 08:38:20.5	312.260	-0.260	-0.280	-0.310
2020/01/31 08:38:20.6	312.260	-0.300	-0.260	-0.330
2020/01/31 08:38:20.7	312.250	-0.330	-0.230	-0.350
2020/01/31 08:38:20.8	312.250	-0.360	-0.210	-0.360
2020/01/31 08:38:20.9	312.250	-0.390	-0.190	-0.380
2020/01/31 08:38:21.0	312.240	-0.420	-0.180	-0.390
2020/01/31 08:38:21.1	312.240	-0.450	-0.160	-0.410
2020/01/31 08:38:21.2	312.240	-0.470	-0.150	-0.420
2020/01/31 08:38:21.3	312.240	-0.500	-0.140	-0.430
2020/01/31 08:38:21.4	312.240	-0.520	-0.130	-0.430
2020/01/31 08:38:21.5	312.240	-0.540	-0.130	-0.440
2020/01/31 08:38:21.6	312.240	-0.560	-0.120	-0.450
2020/01/31 08:38:21.7	312.240	-0.580	-0.120	-0.450
2020/01/31 08:38:21.8	312.240	-0.590	-0.120	-0.450
2020/01/31 08:38:21.9	312.240	-0.600	-0.130	-0.450
2020/01/31 08:38:22.0	312.240	-0.610	-0.130	-0.460
2020/01/31 08:38:22.1	312.240	-0.620	-0.140	-0.460
2020/01/31 08:38:22.2	312.240	-0.630	-0.150	-0.450
2020/01/31 08:38:22.3	312.240	-0.630	-0.170	-0.450
2020/01/31 08:38:22.4	312.240	-0.630	-0.180	-0.450
2020/01/31 08:38:22.5	312.240	-0.630	-0.200	-0.450
2020/01/31 08:38:22.6	312.240	-0.630	-0.210	-0.440
2020/01/31 08:38:22.7	312.250	-0.620	-0.230	-0.440
2020/01/31 08:38:22.8	312.250	-0.610	-0.250	-0.430
2020/01/31 08:38:22.9	312.260	-0.600	-0.270	-0.420
2020/01/31 08:38:23.0	312.260	-0.590	-0.290	-0.410
2020/01/31 08:38:23.1	312.270	-0.580	-0.310	-0.410
2020/01/31 08:38:23.2	312.270	-0.560	-0.320	-0.400
2020/01/31 08:38:23.3	312.280	-0.540	-0.340	-0.390
2020/01/31 08:38:23.4	312.300	-0.520	-0.360	-0.370
2020/01/31 08:38:23.5	312.310	-0.500	-0.380	-0.360
2020/01/31 08:38:23.6	312.320	-0.470	-0.400	-0.350
2020/01/31 08:38:23.7	312.330	-0.450	-0.420	-0.340
2020/01/31 08:38:23.8	312.340	-0.420	-0.430	-0.320
2020/01/31 08:38:23.9	312.350	-0.390	-0.450	-0.310
2020/01/31 08:38:24.0	312.370	-0.360	-0.470	-0.290
2020/01/31 08:38:24.1	312.380	-0.330	-0.480	-0.280
2020/01/31 08:38:24.2	312.400	-0.300	-0.490	-0.260
2020/01/31 08:38:24.3	312.420	-0.270	-0.500	-0.240
2020/01/31 08:38:24.4	312.450	-0.240	-0.510	-0.220
2020/01/31 08:38:24.5	312.470	-0.210	-0.520	-0.200
2020/01/31 08:38:24.6	312.480	-0.170	-0.520	-0.170
2020/01/31 08:38:24.7	312.500	-0.140	-0.530	-0.150
2020/01/31 08:38:24.8	312.520	-0.110	-0.530	-0.120
2020/01/31 08:38:24.9	312.540	-0.080	-0.530	-0.090
2020/01/31 08:38:25.0	312.560	-0.050	-0.530	-0.060
2020/01/31 08:38:25.1	312.580	-0.020	-0.520	-0.030
2020/01/31 08:38:25.2	312.600	0.010	-0.510	0.010
2020/01/31 08:38:25.3	312.610	0.030	-0.500	0.040
2020/01/31 08:38:25.4	312.650	0.060	-0.490	0.080
2020/01/31 08:38:25.5	312.660	0.080	-0.470	0.120
2020/01/31 08:38:25.6	312.670	0.110	-0.460	0.170
2020/01/31 08:38:25.7	312.680	0.130	-0.440	0.210
2020/01/31 08:38:25.8	312.690	0.150	-0.410	0.260
2020/01/31 08:38:25.9	312.700	0.170	-0.390	0.300
2020/01/31 08:38:26.0	312.710	0.190	-0.370	0.350
2020/01/31 08:38:26.1	312.710	0.210	-0.340	0.400
2020/01/31 08:38:26.2	312.710	0.220	-0.310	0.440
2020/01/31 08:38:26.3	312.720	0.240	-0.280	0.490
2020/01/31 08:38:26.4	312.710	0.250	-0.250	0.530
2020/01/31 08:38:26.5	312.710	0.270	-0.220	0.580
2020/01/31 08:38:26.6	312.710	0.280	-0.190	0.620
2020/01/31 08:38:26.7	312.710	0.290	-0.170	0.660
2020/01/31 08:38:26.8	312.710	0.300	-0.140	0.700
2020/01/31 08:38:26.9	312.710	0.310	-0.110	0.740
2020/01/31 08:38:27.0	312.700	0.320	-0.080	0.780
2020/01/31 08:38:27.1	312.700	0.330	-0.060	0.810
2020/01/31 08:38:27.2	312.690	0.340	-0.030	0.850
2020/01/31 08:38:27.3	312.680	0.340	-0.010	0.880
2020/01/31 08:38:27.4	312.670	0.350	0.010	0.910
2020/01/31 08:38:27.5	312.660	0.350	0.030	0.940
2020/01/31 08:38:27.6	312.650	0.360	0.040	0.970
2020/01/31 08:38:27.7	312.640	0.370	0.060	0.990
2020/01/31 08:38:27.8	312.620	0.370	0.070	1.020
2020/01/31 08:38:27.9	312.600	0.370	0.090	1.040
2020/01/31 08:38:28.0	312.590	0.380	0.090	1.060
2020/01/31 08:38:28.1	312.570	0.380	0.100	1.080
2020/01/31 08:38:28.2	312.540	0.390	0.100	1.100
2020/01/31 08:38:28.3	312.520	0.390	0.110	1.110
2020/01/31 08:38:28.4	312.480	0.390	0.100	1.120
2020/01/31 08:38:28.5	312.460	0.400	0.100	1.130
2020/01/31 08:38:28.6	312.430	0.400	0.090	1.140
2020/01/31 08:38:28.7	312.410	0.400	0.080	1.140
2020/01/31 08:38:28.8	312.390	0.410	0.070	1.140
2020/01/31 08:38:28.9	312.360	0.410	0.060	1.130
2020/01/31 08:38:29.0	312.340	0.410	0.040	1.120
2020/01/31 08:38:29.1	312.310	0.410	0.020	1.110
2020/01/31 08:38:29.2	312.290	0.410	-0.000	1.090
2020/01/31 08:38:29.3	312.270	0.410	-0.030	1.070
2020/01/31 08:38:29.4	312.240	0.410	-0.050	1.040
2020/01/31 08:38:29.5	312.220	0.410	-0.080	1.020
2020/01/31 08:38:29.6	312.200	0.410	-0.110	0.990
2020/01/31 08:38:29.7	312.180	0.410	-0.140	0.960
2020/01/31 08:38:29.8	312.160	0.410	-0.160	0.920
2020/01/31 08:38:29.9	312.150	0.400	-0.190	0.890
2020/01/31 08:38:30.0	312.130	0.400	-0.220	0.850
2020/01/31 08:38:30.1	312.120	0.390	-0.250	0.810
2020/01/31 08:38:30.2	312.110	0.390	-0.280	0.770
2020/01/31 08:38:30.3	312.100	0.380	-0.310	0.730
2020/01/31 08:38:30.4	312.110	0.370	-0.340	0.680
2020/01/31 08:38:30.5	312.100	0.360	-0.370	0.640
2020/01/31 08:38:30.6	312.100	0.350	-0.390	0.590
2020/01/31 08:38:30.7	312.110	0.340	-0.410	0.540
2020/01/31 08:38:30.8	312.110	0.320	-0.440	0.490
2020/01/31 08:38:30.9	312.120	0.310	-0.460	0.440
2020/01/31 08:38:31.0	312.130	0.290	-0.470	0.390
2020/01/31 08:38:31.1	312.140	0.280	-0.490	0.340
2020/01/31 08:38:31.2	312.150	0.260	-0.500	0.290
2020/01/31 08:38:31.3	312.170	0.240	-0.510	0.240
2020/01/31 08:38:31.4	312.180	0.220	-0.520	0.180
2020/01/31 08:38:31.5	312.200	0.200	-0.520	0.130
2020/01/31 08:38:31.6	312.210	0.170	-0.520	0.080
2020/01/31 08:38:31.7	312.230	0.150	-0.520	0.040
2020/01/31 08:38:31.8	312.250	0.120	-0.510	-0.010
2020/01/31 08:38:31.9	312.260	0.100	-0.500	-0.050
2020/01/31 08:38:32.0	312.280	0.070	-0.490	-0.090
2020/01/31 08:38:32.1	312.290	0.050	-0.470	-0.130
2020/01/31 08:38:32.2	312.310	0.020	-0.460	-0.160
2020/01/31 08:38:32.3	312.320	-0.000	-0.440	-0.190
2020/01/31 08:38:32.4	312.330	-0.030	-0.420	-0.220
2020/01/31 08:38:32.5	312.340	-0.060	-0.400	-0.240
2020/01/31 08:38:32.6	312.360	-0.080	-0.380	-0.260
2020/01/31 08:38:32.7	312.370	-0.110	-0.350	-0.280
2020/01/31 08:38:32.8	312.380	-0.130	-0.330	-0.300
2020/01/31 08:38:32.9	312.390	-0.160	-0.300	-0.310
2020/01/31 08:38:33.0	312.410	-0.180	-0.280	-0.330
2020/01/31 08:38:33.1	312.420	-0.200	-0.260	-0.340
2020/01/31 08:38:33.2	312.430	-0.220	-0.240	-0.340
2020/01/31 08:38:33.3	312.450	-0.240	-0.220	-0.350
2020/01/31 08:38:33.4	312.460	-0.260	-0.200	-0.360
2020/01/31 08:38:33.5	312.480	-0.280	-0.190	-0.360
2020/01/31 08:38:33.6	312.500	-0.290	-0.170	-0.370
2020/01/31 08:38:33.7	312.520	-0.310	-0.160	-0.370
2020/01/31 08:38:33.8	312.540	-0.320	-0.150	-0.380
2020/01/31 08:38:33.9	312.560	-0.330	-0.150	-0.380
2020/01/31 08:38:34.0	312.590	-0.330	-0.150	-0.380
2020/01/31 08:38:34.1	312.610	-0.340	-0.150	-0.390
2020/01/31 08:38:34.2	312.640	-0.340	-0.150	-0.390
2020/01/31 08:38:34.3	312.670	-0.350	-0.150	-0.390
2020/01/31 08:38:34.4	312.710	-0.350	-0.160	-0.400
2020/01/31 08:38:34.5	312.740	-0.340	-0.160	-0.400
2020/01/31 08:38:34.6	312.770	-0.340	-0.170	-0.390
2020/01/31 08:38:34.7	312.800	-0.330	-0.180	-0.390
2020/01/31 08:38:34.8	312.830	-0.330	-0.190	-0.390
2020/01/31 08:38:34.9	312.860	-0.320	-0.200	-0.380
2020/01/31 08:38:35.0	312.880	-0.310	-0.210	-0.370
2020/01/31 08:38:35.1	312.910	-0.300	-0.210	-0.360
2020/01/31 08:38:35.2	312.930	-0.300	-0.220	-0.340
2020/01/31 08:38:35.3	312.950	-0.290	-0.220	-0.320
2020/01/31 08:38:35.4	312.970	-0.270	-0.230	-0.300
2020/01/31 08:38:35.5	312.990	-0.260	-0.230	-0.270
2020/01/31 08:38:35.6	313.000	-0.250	-0.230	-0.240
2020/01/31 08:38:35.7	313.010	-0.240	-0.230	-0.210
2020/01/31 08:38:35.8	313.020	-0.230	-0.220	-0.170
2020/01/31 08:38:35.9	313.030	-0.220	-0.220	-0.130
2020/01/31 08:38:36.0	313.030	-0.210	-0.210	-0.090
2020/01/31 08:38:36.1	313.030	-0.200	-0.200	-0.040
2020/01/31 08:38:36.2	313.020	-0.190	-0.190	0.000
2020/01/31 08:38:36.3	313.020	-0.180	-0.170	0.050
2020/01/31 08:38:36.4	313.010	-0.170	-0.160	0.100
2020/01/31 08:38:36.5	313.000	-0.170	-0.140	0.150
2020/01/31 08:38:36.6	312.990	-0.160	-0.130	0.200
2020/01/31 08:38:36.7	312.970	-0.150	-0.110	0.250
2020/01/31 08:38:36.8	312.950	-0.140	-0.100	0.300
2020/01/31 08:38:36.9	312.940	-0.140	-0.080	0.350
2020/01/31 08:38:37.0	312.910	-0.130	-0.070	0.390
2020/01/31 08:38:37.1	312.890	-0.120	-0.050	0.440
2020/01/31 08:38:37.2	312.870	-0.120	-0.040	0.490
2020/01/31 08:38:37.3	312.840	-0.110	-0.030	0.530
2020/01/31 08:38:37.4	312.810	-0.100	-0.030	0.580
2020/01/31 08:38:37.5	312.780	-0.100	-0.020	0.610
2020/01/31 08:38:37.6	312.750	-0.090	-0.020	0.650
2020/01/31 08:38:37.7	312.730	-0.090	-0.020	0.690
2020/01/31 08:38:37.8	312.700	-0.080	-0.020	0.720
2020/01/31 08:38:37.9	312.670	-0.080	-0.020	0.750
2020/01/31 08:38:38.0	312.640	-0.070	-0.030	0.770
2020/01/31 08:38:38.1	312.610	-0.070	-0.040	0.790
2020/01/31 08:38:38.2	312.580	-0.060	-0.060	0.810
2020/01/31 08:38:38.3	312.550	-0.060	-0.070	0.830
2020/01/31 08:38:38.4	312.500	-0.060	-0.090	0.830
2020/01/31 08:38:38.5	312.470	-0.050	-0.110	0.840
2020/01/31 08:38:38.6	312.440	-0.050	-0.130	0.840
2020/01/31 08:38:38.7	312.420	-0.040	-0.160	0.830
2020/01/31 08:38:38.8	312.390	-0.040	-0.180	0.830
2020/01/31 08:38:38.9	312.370	-0.040	-0.210	0.820
2020/01/31 08:38:39.0	312.340	-0.040	-0.240	0.800
2020/01/31 08:38:39.1	312.320	-0.030	-0.270	0.780
2020/01/31 08:38:39.2	312.300	-0.030	-0.300	0.760
2020/01/31 08:38:39.3	312.290	-0.030	-0.320	0.730
2020/01/31 08:38:39.4	312.270	-0.030	-0.360	0.700
2020/01/31 08:38:39.5	312.250	-0.020	-0.390	0.670
2020/01/31 08:38:39.6	312.240	-0.020	-0.410	0.640
2020/01/31 08:38:39.7	312.230	-0.020	-0.440	0.610
2020/01/31 08:38:39.8	312.220	-0.010	-0.460	0.570
2020/01/31 08:38:39.9	312.210	-0.010	-0.480	0.540
2020/01/31 08:38:40.0	312.200	-0.010	-0.500	0.510
2020/01/31 08:38:40.1	312.190	-0.000	-0.510	0.470
2020/01/31 08:38:40.2	312.190	-0.000	-0.530	0.440
2020/01/31 08:38:40.3	312.180	0.000	-0.540	0.410
2020/01/31 08:38:40.4	312.170	0.010	-0.540	0.380
2020/01/31 08:38:40.5	312.170	0.010	-0.550	0.350
2020/01/31 08:38:40.6	312.170	0.020	-0.550	0.320
2020/01/31 08:38:40.7	312.170	0.020	-0.540	0.290
2020/01/31 08:38:40.8	312.170	0.030	-0.540	0.270
2020/01/31 08:38:40.9	312.170	0.040	-0.530	0.250
2020/01/31 08:38:41.0	312.170	0.040	-0.510	0.230
2020/01/31 08:38:41.1	312.170	0.050	-0.500	0.210
2020/01/31 08:38:41.2	312.170	0.060	-0.480	0.190
2020/01/31 08:38:41.3	312.180	0.070	-0.460	0.180
2020/01/31 08:38:41.4	312.190	0.070	-0.440	0.160
2020/01/31 08:38:41.5	312.190	0.080	-0.410	0.150
2020/01/31 08:38:41.6	312.200	0.090	-0.390	0.140
2020/01/31 08:38:41.7	312.210	0.100	-0.360	0.130
2020/01/31 08:38:41.8	312.220	0.100	-0.340	0.120
2020/01/31 08:38:41.9	312.230	0.110	-0.310	0.110
2020/01/31 08:38:42.0	312.250	0.120	-0.290	0.100
2020/01/31 08:38:42.1	312.260	0.120	-0.270	0.090
2020/01/31 08:38:42.2	312.280	0.130	-0.240	0.080
2020/01/31 08:38:42.3	312.300	0.140	-0.220	0.070
2020/01/31 08:38:42.4	312.330	0.140	-0.210	0.060
2020/01/31 08:38:42.5	312.350	0.150	-0.190	0.050
2020/01/31 08:38:42.6	312.380	0.150	-0.180	0.040
2020/01/31 08:38:42.7	312.410	0.160	-0.160	0.030
2020/01/31 08:38:42.8	312.440	0.160	-0.150	0.030
2020/01/31 08:38:42.9	312.470	0.170	-0.140	0.020
2020/01/31 08:38:43.0	312.500	0.170	-0.140	0.010
2020/01/31 08:38:43.1	312.530	0.180	-0.130	0.000
2020/01/31 08:38:43.2	312.560	0.180	-0.130	-0.010
2020/01/31 08:38:43.3	312.590	0.180	-0.130	-0.010
2020/01/31 08:38:43.4	312.630	0.180	-0.140	-0.020
2020/01/31 08:38:43.5	312.660	0.190	-0.140	-0.030
2020/01/31 08:38:43.6	312.700	0.190	-0.150	-0.030
2020/01/31 08:38:43.7	312.730	0.190	-0.160	-0.040
2020/01/31 08:38:43.8	312.760	0.190	-0.170	-0.040
2020/01/31 08:38:43.9	312.790	0.190	-0.190	-0.050
2020/01/31 08:38:44.0	312.820	0.190	-0.200	-0.050
2020/01/31 08:38:44.1	312.850	0.190	-0.220	-0.050
2020/01/31 08:38:44.2	312.880	0.190	-0.230	-0.050
2020/01/31 08:38:44.3	312.910	0.190	-0.250	-0.050
2020/01/31 08:38:44.4	312.940	0.180	-0.280	-0.050
2020/01/31 08:38:44.5	312.970	0.180	-0.290	-0.050
2020/01/31 08:38:44.6	312.990	0.180	-0.310	-0.050
2020/01/31 08:38:44.7	313.010	0.170	-0.330	-0.040
2020/01/31 08:38:44.8	313.030	0.170	-0.340	-0.030
2020/01/31 08:38:44.9	313.050	0.170	-0.350	-0.030
2020/01/31 08:38:45.0	313.070	0.160	-0.360	-0.020
2020/01/31 08:38:45.1	313.090	0.160	-0.370	-0.000
2020/01/31 08:38:45.2	313.100	0.150	-0.380	0.010
2020/01/31 08:38:45.3	313.110	0.150	-0.380	0.020
2020/01/31 08:38:45.4	313.120	0.140	-0.370	0.040
2020/01/31 08:38:45.5	313.130	0.130	-0.360	0.060
2020/01/31 08:38:45.6	313.130	0.130	-0.350	0.080
2020/01/31 08:38:45.7	313.140	0.120	-0.340	0.110
2020/01/31 08:38:45.8	313.140	0.110	-0.320	0.130
2020/01/31 08:38:45.9	313.130	0.100	-0.300	0.160
2020/01/31 08:38:46.0	313.130	0.090	-0.280	0.190
2020/01/31 08:38:46.1	313.120	0.080	-0.250	0.220
2020/01/31 08:38:46.2	313.110	0.080	-0.220	0.260
2020/01/31 08:38:46.3	313.090	0.070	-0.190	0.290
2020/01/31 08:38:46.4	313.070	0.060	-0.160	0.330
2020/01/31 08:38:46.5	313.050	0.050	-0.120	0.370
2020/01/31 08:38:46.6	313.030	0.040	-0.080	0.400
2020/01/31 08:38:46.7	313.000	0.030	-0.040	0.440
2020/01/31 08:38:46.8	312.970	0.010	0.000	0.480
2020/01/31 08:38:46.9	312.940	0.000	0.040	0.510
2020/01/31 08:38:47.0	312.910	-0.010	0.080	0.550
2020/01/31 08:38:47.1	312.880	-0.020	0.120	0.580
2020/01/31 08:38:47.2	312.840	-0.030	0.150	0.610
2020/01/31 08:38:47.3	312.800	-0.040	0.190	0.640
2020/01/31 08:38:47.4	312.750	-0.050	0.220	0.670
2020/01/31 08:38:47.5	312.710	-0.060	0.240	0.690
2020/01/31 08:38:47.6	312.670	-0.060	0.270	0.710
2020/01/31 08:38:47.7	312.630	-0.070	0.290	0.730
2020/01/31 08:38:47.8	312.590	-0.080	0.300	0.750
2020/01/31 08:38:47.9	312.550	-0.080	0.310	0.760
2020/01/31 08:38:48.0	312.510	-0.090	0.320	0.770
2020/01/31 08:38:48.1	312.480	-0.090	0.320	0.770
2020/01/31 08:38:48.2	312.440	-0.100	0.310	0.770
2020/01/31 08:38:48.3	312.400	-0.100	0.300	0.770
2020/01/31 08:38:48.4	312.380	-0.100	0.280	0.760
2020/01/31 08:38:48.5	312.340	-0.100	0.260	0.750
2020/01/31 08:38:48.6	312.310	-0.100	0.240	0.730
2020/01/31 08:38:48.7	312.290	-0.090	0.210	0.710
2020/01/31 08:38:48.8	312.260	-0.090	0.170	0.690
2020/01/31 08:38:48.9	312.240	-0.090	0.140	0.670
2020/01/31 08:38:49.0	312.210	-0.080	0.090	0.650
2020/01/31 08:38:49.1	312.200	-0.070	0.050	0.620
2020/01/31 08:38:49.2	312.180	-0.060	-0.000	0.590
2020/01/31 08:38:49.3	312.170	-0.060	-0.050	0.560
2020/01/31 08:38:49.4	312.150	-0.050	-0.100	0.520
2020/01/31 08:38:49.5	312.140	-0.040	-0.160	0.490
2020/01/31 08:38:49.6	312.130	-0.030	-0.210	0.450
2020/01/31 08:38:49.7	312.130	-0.010	-0.270	0.420
2020/01/31 08:38:49.8	312.130	-0.000	-0.320	0.380
2020/01/31 08:38:49.9	312.130	0.010	-0.380	0.350
2020/01/31 08:38:50.0	312.130	0.020	-0.430	0.310
2020/01/31 08:38:50.1	312.130	0.030	-0.480	0.280
2020/01/31 08:38:50.2	312.140	0.040	-0.530	0.250
2020/01/31 08:38:50.3	312.140	0.050	-0.580	0.210
2020/01/31 08:38:50.4	312.150	0.060	-0.630	0.180
2020/01/31 08:38:50.5	312.160	0.070	-0.670	0.150
2020/01/31 08:38:50.6	312.170	0.080	-0.710	0.110
2020/01/31 08:38:50.7	312.190	0.080	-0.740	0.080
2020/01/31 08:38:50.8	312.200	0.090	-0.780	0.050
2020/01/31 08:38:50.9	312.210	0.090	-0.800	0.020
2020/01/31 08:38:51.0	312.230	0.100	-0.830	-0.010
2020/01/31 08:38:51.1	312.240	0.100	-0.850	-0.040
2020/01/31 08:38:51.2	312.260	0.100	-0.860	-0.070
2020/01/31 08:38:51.3	312.280	0.090	-0.870	-0.100
2020/01/31 08:38:51.4	312.300	0.090	-0.880	-0.130
2020/01/31 08:38:51.5	312.320	0.080	-0.890	-0.150
2020/01/31 08:38:51.6	312.340	0.080	-0.880	-0.180
2020/01/31 08:38:51.7	312.360	0.070	-0.880	-0.200
2020/01/31 08:38:51.8	312.380	0.050	-0.870	-0.230
2020/01/31 08:38:51.9	312.410	0.040	-0.860	-0.250
2020/01/31 08:38:52.0	312.430	0.030	-0.840	-0.270
2020/01/31 08:38:52.1	312.450	0.010	-0.820	-0.290
2020/01/31 08:38:52.2	312.470	-0.000	-0.800	-0.310
2020/01/31 08:38:52.3	312.500	-0.020	-0.770	-0.330
2020/01/31 08:38:52.4	312.530	-0.040	-0.750	-0.340
2020/01/31 08:38:52.5	312.560	-0.060	-0.720	-0.360
2020/01/31 08:38:52.6	312.580	-0.080	-0.680	-0.380
2020/01/31 08:38:52.7	312.600	-0.100	-0.640	-0.390
2020/01/31 08:38:52.8	312.630	-0.120	-0.610	-0.410
2020/01/31 08:38:52.9	312.650	-0.150	-0.570	-0.420
2020/01/31 08:38:53.0	312.680	-0.170	-0.530	-0.430
2020/01/31 08:38:53.1	312.710	-0.190	-0.480	-0.440
2020/01/31 08:38:53.2	312.730	-0.210	-0.440	-0.450
2020/01/31 08:38:53.3	312.760	-0.230	-0.400	-0.460
2020/01/31 08:38:53.4	312.790	-0.250	-0.360	-0.470
2020/01/31 08:38:53.5	312.810	-0.270	-0.310	-0.470
2020/01/31 08:38:53.6	312.840	-0.290	-0.270	-0.470
2020/01/31 08:38:53.7	312.860	-0.300	-0.230	-0.470
2020/01/31 08:38:53.8	312.890	-0.320	-0.190	-0.470
2020/01/31 08:38:53.9	312.910	-0.330	-0.150	-0.470
2020/01/31 08:38:54.0	312.940	-0.340	-0.110	-0.460
2020/01/31 08:38:54.1	312.960	-0.350	-0.070	-0.450
2020/01/31 08:38:54.2	312.980	-0.350	-0.040	-0.430
2020/01/31 08:38:54.3	313.000	-0.360	-0.000	-0.420
2020/01/31 08:38:54.4	313.030	-0.360	0.030	-0.390
2020/01/31 08:38:54.5	313.050	-0.350	0.060	-0.370
2020/01/31 08:38:54.6	313.070	-0.350	0.080	-0.340
2020/01/31 08:38:54.7	313.090	-0.340	0.100	-0.310
2020/01/31 08:38:54.8	313.100	-0.330	0.130	-0.270
2020/01/31 08:38:54.9	313.120	-0.320	0.140	-0.230
2020/01/31 08:38:55.0	313.130	-0.300	0.160	-0.190
2020/01/31 08:38:55.1	313.140	-0.290	0.170	-0.150
2020/01/31 08:38:55.2	313.150	-0.270	0.180	-0.110
2020/01/31 08:38:55.3	313.160	-0.240	0.190	-0.060
2020/01/31 08:38:55.4	313.160	-0.220	0.190	-0.020
2020/01/31 08:38:55.5	313.160	-0.190	0.190	0.030
2020/01/31 08:38:55.6	313.170	-0.160	0.190	0.080
2020/01/31 08:38:55.7	313.170	-0.130	0.190	0.130
2020/01/31 08:38:55.8	313.170	-0.100	0.180	0.180
2020/01/31 08:38:55.9	313.170	-0.070	0.170	0.230
2020/01/31 08:38:56.0	313.170	-0.040	0.160	0.280
2020/01/31 08:38:56.1	313.160	-0.000	0.150	0.330
2020/01/31 08:38:56.2	313.160	0.030	0.140	0.390
2020/01/31 08:38:56.3	313.150	0.070	0.120	0.440
2020/01/31 08:38:56.4	313.130	0.110	0.100	0.490
2020/01/31 08:38:56.5	313.120	0.140	0.090	0.550
2020/01/31 08:38:56.6	313.110	0.180	0.070	0.600
2020/01/31 08:38:56.7	313.100	0.210	0.050	0.660
2020/01/31 08:38:56.8	313.090	0.240	0.030	0.710
2020/01/31 08:38:56.9	313.070	0.270	0.010	0.760
2020/01/31 08:38:57.0	313.060	0.300	-0.010	0.820
2020/01/31 08:38:57.1	313.040	0.330	-0.030	0.870
2020/01/31 08:38:57.2	313.020	0.350	-0.050	0.920
2020/01/31 08:38:57.3	313.000	0.380	-0.070	0.960
2020/01/31 08:38:57.4	312.960	0.400	-0.090	1.010
2020/01/31 08:38:57.5	312.940	0.410	-0.110	1.050
2020/01/31 08:38:57.6	312.920	0.430	-0.130	1.080
2020/01/31 08:38:57.7	312.890	0.440	-0.140	1.110
2020/01/31 08:38:57.8	312.870	0.450	-0.160	1.140
2020/01/31 08:38:57.9	312.850	0.450	-0.170	1.170
2020/01/31 08:38:58.0	312.830	0.450	-0.190	1.180
2020/01/31 08:38:58.1	312.800	0.450	-0.200	1.200
2020/01/31 08:38:58.2	312.780	0.450	-0.210	1.200
2020/01/31 08:38:58.3	312.760	0.440	-0.220	1.210
2020/01/31 08:38:58.4	312.750	0.430	-0.230	1.200
2020/01/31 08:38:58.5	312.730	0.420	-0.240	1.190
2020/01/31 08:38:58.6	312.710	0.400	-0.250	1.180
2020/01/31 08:38:58.7	312.700	0.380	-0.250	1.160
2020/01/31 08:38:58.8	312.680	0.370	-0.260	1.130
2020/01/31 08:38:58.9	312.670	0.340	-0.260	1.100
2020/01/31 08:38:59.0	312.650	0.320	-0.270	1.070
2020/01/31 08:38:59.1	312.640	0.300	-0.270	1.030
2020/01/31 08:38:59.2	312.630	0.270	-0.270	0.990
2020/01/31 08:38:59.3	312.620	0.240	-0.280	0.950
2020/01/31 08:38:59.4	312.620	0.210	-0.280	0.900
2020/01/31 08:38:59.5	312.620	0.180	-0.280	0.850
2020/01/31 08:38:59.6	312.620	0.160	-0.290	0.800
2020/01/31 08:38:59.7	312.610	0.130	-0.290	0.750
2020/01/31 08:38:59.8	312.610	0.100	-0.290	0.690
2020/01/31 08:38:59.9	312.610	0.070	-0.290	0.630
2020/01/31 08:39:00.0	312.610	0.040	-0.290	0.570
2020/01/31 08:39:00.1	312.620	0.010	-0.290	0.510
2020/01/31 08:39:00.2	312.620	-0.020	-0.290	0.450
2020/01/31 08:39:00.3	312.630	-0.050	-0.300	0.380
2020/01/31 08:39:00.4	312.630	-0.070	-0.300	0.320
2020/01/31 08:39:00.5	312.640	-0.100	-0.300	0.250
2020/01/31 08:39:00.6	312.650	-0.120	-0.300	0.180
2020/01/31 08:39:00.7	312.660	-0.150	-0.300	0.120
2020/01/31 08:39:00.8	312.670	-0.170	-0.310	0.050
2020/01/31 08:39:00.9	312.680	-0.190	-0.310	-0.010
2020/01/31 08:39:01.0	312.690	-0.210	-0.310	-0.080
2020/01/31 08:39:01.1	312.700	-0.220	-0.320	-0.140
2020/01/31 08:39:01.2	312.710	-0.240	-0.320	-0.200
2020/01/31 08:39:01.3	312.730	-0.250	-0.320	-0.260
2020/01/31 08:39:01.4	312.740	-0.270	-0.330	-0.320
2020/01/31 08:39:01.5	312.750	-0.280	-0.340	-0.380
2020/01/31 08:39:01.6	312.760	-0.290	-0.340	-0.430
2020/01/31 08:39:01.7	312.780	-0.290	-0.340	-0.480
2020/01/31 08:39:01.8	312.790	-0.300	-0.350	-0.530
2020/01/31 08:39:01.9	312.800	-0.300	-0.350	-0.570
2020/01/31 08:39:02.0	312.810	-0.310	-0.350	-0.620
2020/01/31 08:39:02.1	312.820	-0.310	-0.360	-0.660
2020/01/31 08:39:02.2	312.830	-0.310	-0.360	-0.690
2020/01/31 08:39:02.3	312.830	-0.310	-0.360	-0.720
2020/01/31 08:39:02.4	312.840	-0.310	-0.370	-0.750
2020/01/31 08:39:02.5	312.850	-0.300	-0.370	-0.780
2020/01/31 08:39:02.6	312.860	-0.300	-0.370	-0.800
2020/01/31 08:39:02.7	312.870	-0.290	-0.370	-0.820
2020/01/31 08:39:02.8	312.870	-0.290	-0.380	-0.830
2020/01/31 08:39:02.9	312.880	-0.280	-0.380	-0.840
2020/01/31 08:39:03.0	312.890	-0.270	-0.380	-0.850
2020/01/31 08:39:03.1	312.900	-0.260	-0.390	-0.850
2020/01/31 08:39:03.2	312.910	-0.250	-0.390	-0.850
2020/01/31 08:39:03.3	312.910	-0.240	-0.390	-0.840
2020/01/31 08:39:03.4	312.930	-0.230	-0.390	-0.830
2020/01/31 08:39:03.5	312.940	-0.220	-0.390	-0.820
2020/01/31 08:39:03.6	312.950	-0.200	-0.390	-0.800
2020/01/31 08:39:03.7	312.960	-0.190	-0.390	-0.780
2020/01/31 08:39:03.8	312.960	-0.180	-0.390	-0.760
2020/01/31 08:39:03.9	312.970	-0.170	-0.390	-0.730
2020/01/31 08:39:04.0	312.980	-0.150	-0.390	-0.700
2020/01/31 08:39:04.1	312.980	-0.140	-0.380	-0.670
2020/01/31 08:39:04.2	312.990	-0.130	-0.370	-0.630
2020/01/31 08:39:04.3	312.990	-0.120	-0.370	-0.590
2020/01/31 08:39:04.4	313.000	-0.100	-0.350	-0.550
2020/01/31 08:39:04.5	313.000	-0.090	-0.340	-0.500
2020/01/31 08:39:04.6	313.000	-0.080	-0.330	-0.450
2020/01/31 08:39:04.7	313.000	-0.070	-0.320	-0.400
2020/01/31 08:39:04.8	313.000	-0.060	-0.300	-0.350
2020/01/31 08:39:04.9	313.000	-0.050	-0.280	-0.290
2020/01/31 08:39:05.0	313.000	-0.040	-0.270	-0.230
2020/01/31 08:39:05.1	313.000	-0.020	-0.250	-0.160
2020/01/31 08:39:05.2	312.990	-0.010	-0.230	-0.100
2020/01/31 08:39:05.3	312.990	-0.000	-0.210	-0.030
2020/01/31 08:39:05.4	312.980	0.010	-0.190	0.040
2020/01/31 08:39:05.5	312.980	0.020	-0.170	0.100
2020/01/31 08:39:05.6	312.970	0.040	-0.160	0.170
2020/01/31 08:39:05.7	312.970	0.050	-0.140	0.240
2020/01/31 08:39:05.8	312.960	0.060	-0.130	0.310
2020/01/31 08:39:05.9	312.960	0.070	-0.120	0.370
2020/01/31 08:39:06.0	312.950	0.090	-0.110	0.430
2020/01/31 08:39:06.1	312.950	0.100	-0.100	0.490
2020/01/31 08:39:06.2	312.940	0.120	-0.100	0.550
2020/01/31 08:39:06.3	312.940	0.130	-0.100	0.600
2020/01/31 08:39:06.4	312.920	0.140	-0.100	0.660
2020/01/31 08:39:06.5	312.920	0.160	-0.100	0.700
2020/01/31 08:39:06.6	312.920	0.170	-0.110	0.750
2020/01/31 08:39:06.7	312.910	0.190	-0.120	0.790
2020/01/31 08:39:06.8	312.910	0.200	-0.140	0.820
2020/01/31 08:39:06.9	312.910	0.220	-0.150	0.850
2020/01/31 08:39:07.0	312.910	0.230	-0.170	0.880
2020/01/31 08:39:07.1	312.900	0.250	-0.190	0.900
2020/01/31 08:39:07.2	312.900	0.260	-0.210	0.920
2020/01/31 08:39:07.3	312.900	0.280	-0.230	0.930
2020/01/31 08:39:07.4	312.890	0.290	-0.250	0.940
2020/01/31 08:39:07.5	312.880	0.300	-0.280	0.950
2020/01/31 08:39:07.6	312.880	0.320	-0.300	0.950
2020/01/31 08:39:07.7	312.880	0.330	-0.320	0.940
2020/01/31 08:39:07.8	312.880	0.340	-0.350	0.940
2020/01/31 08:39:07.9	312.870	0.350	-0.370	0.930
2020/01/31 08:39:08.0	312.870	0.360	-0.390	0.910
2020/01/31 08:39:08.1	312.870	0.360	-0.410	0.890
2020/01/31 08:39:08.2	312.870	0.370	-0.430	0.870
2020/01/31 08:39:08.3	312.880	0.370	-0.450	0.840
2020/01/31 08:39:08.4	312.880	0.370	-0.470	0.810
2020/01/31 08:39:08.5	312.880	0.370	-0.480	0.780
2020/01/31 08:39:08.6	312.880	0.370	-0.490	0.740
2020/01/31 08:39:08.7	312.890	0.370	-0.500	0.700
2020/01/31 08:39:08.8	312.890	0.360	-0.510	0.660
2020/01/31 08:39:08.9	312.900	0.360	-0.520	0.620
2020/01/31 08:39:09.0	312.910	0.350	-0.520	0.570
2020/01/31 08:39:09.1	312.920	0.340	-0.520	0.520
2020/01/31 08:39:09.2	312.930	0.320	-0.510	0.470
2020/01/31 08:39:09.3	312.930	0.310	-0.510	0.420
2020/01/31 08:39:09.4	312.950	0.290	-0.500	0.370
2020/01/31 08:39:09.5	312.960	0.280	-0.490	0.310
2020/01/31 08:39:09.6	312.970	0.260	-0.470	0.260
2020/01/31 08:39:09.7	312.980	0.240	-0.450	0.210
2020/01/31 08:39:09.8	312.990	0.220	-0.440	0.160
2020/01/31 08:39:09.9	313.000	0.200	-0.410	0.110
2020/01/31 08:39:10.0	313.010	0.170	-0.390	0.060
2020/01/31 08:39:10.1	313.020	0.150	-0.360	0.010
2020/01/31 08:39:10.2	313.030	0.120	-0.340	-0.040
2020/01/31 08:39:10.3	313.040	0.100	-0.310	-0.080
2020/01/31 08:39:10.4	313.050	0.070	-0.280	-0.120
2020/01/31 08:39:10.5	313.060	0.040	-0.250	-0.150
2020/01/31 08:39:10.6	313.060	0.010	-0.220	-0.190
2020/01/31 08:39:10.7	313.070	-0.010	-0.190	-0.220
2020/01/31 08:39:10.8	313.080	-0.040	-0.160	-0.250
2020/01/31 08:39:10.9	313.080	-0.070	-0.130	-0.280
2020/01/31 08:39:11.0	313.090	-0.100	-0.100	-0.310
2020/01/31 08:39:11.1	313.100	-0.130	-0.070	-0.330
2020/01/31 08:39:11.2	313.100	-0.150	-0.050	-0.350
2020/01/31 08:39:11.3	313.110	-0.180	-0.020	-0.370
2020/01/31 08:39:11.4	313.120	-0.210	0.000	-0.390
2020/01/31 08:39:11.5	313.120	-0.230	0.030	-0.410
2020/01/31 08:39:11.6	313.130	-0.260	0.050	-0.420
2020/01/31 08:39:11.7	313.130	-0.280	0.070	-0.430
2020/01/31 08:39:11.8	313.140	-0.300	0.080	-0.440
2020/01/31 08:39:11.9	313.140	-0.320	0.100	-0.450
2020/01/31 08:39:12.0	313.140	-0.340	0.110	-0.450
2020/01/31 08:39:12.1	313.140	-0.360	0.130	-0.460
2020/01/31 08:39:12.2	313.140	-0.380	0.140	-0.460
2020/01/31 08:39:12.3	313.140	-0.390	0.150	-0.460
2020/01/31 08:39:12.4	313.150	-0.400	0.160	-0.460
2020/01/31 08:39:12.5	313.150	-0.410	0.160	-0.460
2020/01/31 08:39:12.6	313.140	-0.420	0.170	-0.460
2020/01/31 08:39:12.7	313.140	-0.430	0.180	-0.450
2020/01/31 08:39:12.8	313.130	-0.440	0.190	-0.440
2020/01/31 08:39:12.9	313.120	-0.440	0.190	-0.440
2020/01/31 08:39:13.0	313.120	-0.440	0.200	-0.420
2020/01/31 08:39:13.1	313.110	-0.440	0.200	-0.410
2020/01/31 08:39:13.2	313.100	-0.440	0.210	-0.400
2020/01/31 08:39:13.3	313.080	-0.430	0.220	-0.380
2020/01/31 08:39:13.4	313.050	-0.430	0.220	-0.360
2020/01/31 08:39:13.5	313.040	-0.420	0.230	-0.330
2020/01/31 08:39:13.6	313.020	-0.410	0.230	-0.310
2020/01/31 08:39:13.7	313.010	-0.400	0.240	-0.280
2020/01/31 08:39:13.8	312.990	-0.390	0.250	-0.260
2020/01/31 08:39:13.9	312.980	-0.380	0.250	-0.230
2020/01/31 08:39:14.0	312.960	-0.370	0.260	-0.190
2020/01/31 08:39:14.1	312.940	-0.350	0.260	-0.160
2020/01/31 08:39:14.2	312.920	-0.340	0.260	-0.130
2020/01/31 08:39:14.3	312.900	-0.320	0.260	-0.090
2020/01/31 08:39:14.4	312.880	-0.310	0.270	-0.060
2020/01/31 08:39:14.5	312.860	-0.290	0.260	-0.020
2020/01/31 08:39:14.6	312.840	-0.270	0.260	0.010
2020/01/31 08:39:14.7	312.820	-0.250	0.250	0.050
2020/01/31 08:39:14.8	312.810	-0.230	0.240	0.080
2020/01/31 08:39:14.9	312.790	-0.210	0.230	0.120
2020/01/31 08:39:15.0	312.770	-0.190	0.220	0.150
2020/01/31 08:39:15.1	312.760	-0.170	0.200	0.180
2020/01/31 08:39:15.2	312.740	-0.150	0.180	0.210
2020/01/31 08:39:15.3	312.730	-0.130	0.150	0.240
2020/01/31 08:39:15.4	312.710	-0.110	0.120	0.260
2020/01/31 08:39:15.5	312.700	-0.080	0.090	0.290
2020/01/31 08:39:15.6	312.690	-0.060	0.050	0.310
2020/01/31 08:39:15.7	312.690	-0.030	0.010	0.330
2020/01/31 08:39:15.8	312.680	-0.010	-0.030	0.350
2020/01/31 08:39:15.9	312.680	0.010	-0.080	0.370
2020/01/31 08:39:16.0	312.680	0.040	-0.130	0.380
2020/01/31 08:39:16.1	312.680	0.060	-0.180	0.390
2020/01/31 08:39:16.2	312.680	0.090	-0.240	0.400
2020/01/31 08:39:16.3	312.690	0.110	-0.290	0.410
2020/01/31 08:39:16.4	312.710	0.140	-0.350	0.420
2020/01/31 08:39:16.5	312.720	0.160	-0.410	0.420
2020/01/31 08:39:16.6	312.740	0.180	-0.470	0.420
2020/01/31 08:39:16.7	312.760	0.210	-0.530	0.410
2020/01/31 08:39:16.8	312.770	0.230	-0.590	0.410
2020/01/31 08:39:16.9	312.790	0.250	-0.650	0.400
2020/01/31 08:39:17.0	312.820	0.270	-0.700	0.390
2020/01/31 08:39:17.1	312.840	0.290	-0.760	0.390
2020/01/31 08:39:17.2	312.860	0.310	-0.810	0.380
2020/01/31 08:39:17.3	312.890	0.320	-0.860	0.370
2020/01/31 08:39:17.4	312.910	0.340	-0.900	0.360
2020/01/31 08:39:17.5	312.930	0.350	-0.940	0.360
2020/01/31 08:39:17.6	312.950	0.360	-0.980	0.350
2020/01/31 08:39:17.7	312.970	0.370	-1.020	0.350
2020/01/31 08:39:17.8	312.990	0.380	-1.040	0.350
2020/01/31 08:39:17.9	313.010	0.390	-1.070	0.350
2020/01/31 08:39:18.0	313.030	0.390	-1.090	0.350
2020/01/31 08:39:18.1	313.050	0.400	-1.100	0.360
2020/01/31 08:39:18.2	313.060	0.400	-1.110	0.370
2020/01/31 08:39:18.3	313.080	0.400	-1.110	0.380
2020/01/31 08:39:18.4	313.080	0.390	-1.110	0.390
2020/01/31 08:39:18.5	313.090	0.390	-1.110	0.410
2020/01/31 08:39:18.6	313.110	0.390	-1.100	0.420
2020/01/31 08:39:18.7	313.120	0.380	-1.080	0.440
2020/01/31 08:39:18.8	313.140	0.370	-1.070	0.450
2020/01/31 08:39:18.9	313.150	0.360	-1.050	0.470
2020/01/31 08:39:19.0	313.160	0.350	-1.020	0.490
2020/01/31 08:39:19.1	313.170	0.340	-1.000	0.500
2020/01/31 08:39:19.2	313.190	0.320	-0.970	0.520
2020/01/31 08:39:19.3	313.200	0.310	-0.940	0.540
2020/01/31 08:39:19.4	313.200	0.290	-0.920	0.550
2020/01/31 08:39:19.5	313.210	0.280	-0.880	0.570
2020/01/31 08:39:19.6	313.220	0.260	-0.850	0.580
2020/01/31 08:39:19.7	313.230	0.240	-0.810	0.590
2020/01/31 08:39:19.8	313.240	0.230	-0.780	0.600
2020/01/31 08:39:19.9	313.250	0.210	-0.740	0.600
2020/01/31 08:39:20.0	313.260	0.190	-0.710	0.610
2020/01/31 08:39:20.1	313.270	0.170	-0.670	0.610
2020/01/31 08:39:20.2	313.280	0.150	-0.640	0.610
2020/01/31 08:39:20.3	313.290	0.140	-0.600	0.600
2020/01/31 08:39:20.4	313.300	0.120	-0.560	0.590
2020/01/31 08:39:20.5	313.300	0.100	-0.530	0.580
2020/01/31 08:39:20.6	313.310	0.090	-0.500	0.570
2020/01/31 08:39:20.7	313.320	0.070	-0.460	0.560
2020/01/31 08:39:20.8	313.330	0.050	-0.430	0.540
2020/01/31 08:39:20.9	313.350	0.040	-0.400	0.530
2020/01/31 08:39:21.0	313.360	0.030	-0.370	0.510
2020/01/31 08:39:21.1	313.370	0.010	-0.340	0.480
2020/01/31 08:39:21.2	313.380	-0.000	-0.310	0.460
2020/01/31 08:39:21.3	313.400	-0.010	-0.280	0.430
2020/01/31 08:39:21.4	313.400	-0.020	-0.250	0.410
2020/01/31 08:39:21.5	313.420	-0.030	-0.220	0.380
2020/01/31 08:39:21.6	313.430	-0.040	-0.200	0.350
2020/01/31 08:39:21.7	313.450	-0.050	-0.170	0.330
2020/01/31 08:39:21.8	313.460	-0.060	-0.140	0.300
2020/01/31 08:39:21.9	313.480	-0.070	-0.110	0.270
2020/01/31 08:39:22.0	313.490	-0.080	-0.090	0.240
2020/01/31 08:39:22.1	313.510	-0.090	-0.060	0.210
2020/01/31 08:39:22.2	313.520	-0.100	-0.030	0.190
2020/01/31 08:39:22.3	313.530	-0.100	-0.010	0.160
2020/01/31 08:39:22.4	313.530	-0.110	0.020	0.140
2020/01/31 08:39:22.5	313.540	-0.120	0.040	0.120
2020/01/31 08:39:22.6	313.550	-0.120	0.070	0.100
2020/01/31 08:39:22.7	313.550	-0.130	0.100	0.080
2020/01/31 08:39:22.8	313.560	-0.130	0.120	0.060
2020/01/31 08:39:22.9	313.560	-0.140	0.150	0.050
2020/01/31 08:39:23.0	313.560	-0.140	0.180	0.030
2020/01/31 08:39:23.1	313.550	-0.150	0.200	0.020
2020/01/31 08:39:23.2	313.550	-0.150	0.230	0.010
2020/01/31 08:39:23.3	313.540	-0.150	0.260	0.010
2020/01/31 08:39:23.4	313.520	-0.150	0.290	-0.000
2020/01/31 08:39:23.5	313.510	-0.160	0.310	-0.000
2020/01/31 08:39:23.6	313.500	-0.160	0.340	-0.000
2020/01/31 08:39:23.7	313.490	-0.160	0.360	-0.000
2020/01/31 08:39:23.8	313.470	-0.160	0.390	0.000
2020/01/31 08:39:23.9	313.460	-0.150	0.410	0.010
2020/01/31 08:39:24.0	313.440	-0.150	0.430	0.010
2020/01/31 08:39:24.1	313.420	-0.150	0.450	0.020
2020/01/31 08:39:24.2	313.400	-0.140	0.470	0.030
2020/01/31 08:39:24.3	313.390	-0.140	0.480	0.040
2020/01/31 08:39:24.4	313.370	-0.130	0.490	0.050
2020/01/31 08:39:24.5	313.350	-0.130	0.500	0.070
2020/01/31 08:39:24.6	313.330	-0.120	0.510	0.080
2020/01/31 08:39:24.7	313.300	-0.110	0.520	0.100
2020/01/31 08:39:24.8	313.280	-0.100	0.520	0.110
2020/01/31 08:39:24.9	313.250	-0.090	0.520	0.130
2020/01/31 08:39:25.0	313.230	-0.080	0.520	0.140
2020/01/31 08:39:25.1	313.200	-0.070	0.510	0.160
2020/01/31 08:39:25.2	313.170	-0.060	0.510	0.180
2020/01/31 08:39:25.3	313.150	-0.050	0.500	0.190
2020/01/31 08:39:25.4	313.120	-0.030	0.480	0.210
2020/01/31 08:39:25.5	313.090	-0.020	0.470	0.220
2020/01/31 08:39:25.6	313.060	-0.000	0.450	0.240
2020/01/31 08:39:25.7	313.030	0.010	0.430	0.250
2020/01/31 08:39:25.8	313.010	0.030	0.410	0.270
2020/01/31 08:39:25.9	312.980	0.040	0.390	0.280
2020/01/31 08:39:26.0	312.960	0.050	0.360	0.290
2020/01/31 08:39:26.1	312.930	0.070	0.330	0.300
2020/01/31 08:39:26.2	312.910	0.080	0.300	0.310
2020/01/31 08:39:26.3	312.880	0.090	0.270	0.320
2020/01/31 08:39:26.4	312.860	0.100	0.230	0.320
2020/01/31 08:39:26.5	312.840	0.110	0.200	0.330
2020/01/31 08:39:26.6	312.830	0.120	0.160	0.330
2020/01/31 08:39:26.7	312.810	0.130	0.120	0.320
2020/01/31 08:39:26.8	312.790	0.130	0.080	0.320
2020/01/31 08:39:26.9	312.780	0.140	0.030	0.310
2020/01/31 08:39:27.0	312.770	0.140	-0.010	0.300
2020/01/31 08:39:27.1	312.770	0.140	-0.060	0.280
2020/01/31 08:39:27.2	312.760	0.140	-0.110	0.260
2020/01/31 08:39:27.3	312.760	0.140	-0.160	0.240
2020/01/31 08:39:27.4	312.770	0.130	-0.210	0.210
2020/01/31 08:39:27.5	312.780	0.130	-0.260	0.180
2020/01/31 08:39:27.6	312.780	0.120	-0.310	0.150
2020/01/31 08:39:27.7	312.800	0.110	-0.360	0.120
2020/01/31 08:39:27.8	312.810	0.100	-0.410	0.080
2020/01/31 08:39:27.9	312.830	0.090	-0.450	0.040
2020/01/31 08:39:28.0	312.850	0.080	-0.500	0.000
2020/01/31 08:39:28.1	312.870	0.070	-0.550	-0.040
2020/01/31 08:39:28.2	312.890	0.050	-0.590	-0.080
2020/01/31 08:39:28.3	312.910	0.040	-0.630	-0.120
2020/01/31 08:39:28.4	312.950	0.030	-0.670	-0.160
2020/01/31 08:39:28.5	312.980	0.010	-0.710	-0.200
2020/01/31 08:39:28.6	313.010	-0.010	-0.740	-0.240
2020/01/31 08:39:28.7	313.040	-0.020	-0.770	-0.280
2020/01/31 08:39:28.8	313.070	-0.040	-0.790	-0.320
2020/01/31 08:39:28.9	313.100	-0.050	-0.820	-0.350
2020/01/31 08:39:29.0	313.130	-0.070	-0.830	-0.380
2020/01/31 08:39:29.1	313.160	-0.080	-0.850	-0.410
2020/01/31 08:39:29.2	313.200	-0.100	-0.860	-0.440
2020/01/31 08:39:29.3	313.230	-0.120	-0.870	-0.470
2020/01/31 08:39:29.4	313.270	-0.130	-0.870	-0.480
2020/01/31 08:39:29.5	313.300	-0.150	-0.870	-0.500
2020/01/31 08:39:29.6	313.340	-0.160	-0.870	-0.520
2020/01/31 08:39:29.7	313.370	-0.170	-0.870	-0.540
2020/01/31 08:39:29.8	313.410	-0.190	-0.860	-0.550
2020/01/31 08:39:29.9	313.440	-0.200	-0.850	-0.560
2020/01/31 08:39:30.0	313.470	-0.210	-0.840	-0.570
2020/01/31 08:39:30.1	313.510	-0.220	-0.820	-0.570
2020/01/31 08:39:30.2	313.540	-0.230	-0.810	-0.570
2020/01/31 08:39:30.3	313.570	-0.240	-0.790	-0.570
2020/01/31 08:39:30.4	313.610	-0.250	-0.770	-0.570
2020/01/31 08:39:30.5	313.640	-0.260	-0.750	-0.560
2020/01/31 08:39:30.6	313.670	-0.270	-0.730	-0.550
2020/01/31 08:39:30.7	313.700	-0.270	-0.700	-0.530
2020/01/31 08:39:30.8	313.730	-0.280	-0.680	-0.510
2020/01/31 08:39:30.9	313.750	-0.280	-0.650	-0.490
2020/01/31 08:39:31.0	313.770	-0.280	-0.630	-0.470
2020/01/31 08:39:31.1	313.790	-0.280	-0.600	-0.440
2020/01/31 08:39:31.2	313.810	-0.280	-0.580	-0.410
2020/01/31 08:39:31.3	313.830	-0.280	-0.550	-0.380
2020/01/31 08:39:31.4	313.850	-0.280	-0.510	-0.340
2020/01/31 08:39:31.5	313.860	-0.280	-0.490	-0.300
2020/01/31 08:39:31.6	313.860	-0.280	-0.460	-0.260
2020/01/31 08:39:31.7	313.860	-0.270	-0.430	-0.220
2020/01/31 08:39:31.8	313.860	-0.260	-0.400	-0.180
2020/01/31 08:39:31.9	313.860	-0.260	-0.370	-0.140
2020/01/31 08:39:32.0	313.850	-0.250	-0.350	-0.100
2020/01/31 08:39:32.1	313.840	-0.240	-0.320	-0.050
2020/01/31 08:39:32.2	313.830	-0.230	-0.300	-0.010
2020/01/31 08:39:32.3	313.810	-0.220	-0.280	0.030
2020/01/31 08:39:32.4	313.790	-0.210	-0.260	0.080
2020/01/31 08:39:32.5	313.770	-0.200	-0.240	0.120
2020/01/31 08:39:32.6	313.760	-0.190	-0.220	0.160
2020/01/31 08:39:32.7	313.740	-0.180	-0.210	0.200
2020/01/31 08:39:32.8	313.720	-0.160	-0.200	0.240
2020/01/31 08:39:32.9	313.700	-0.150	-0.190	0.280
2020/01/31 08:39:33.0	313.680	-0.140	-0.190	0.320
2020/01/31 08:39:33.1	313.660	-0.120	-0.190	0.350
2020/01/31 08:39:33.2	313.640	-0.100	-0.190	0.380
2020/01/31 08:39:33.3	313.620	-0.090	-0.190	0.410
2020/01/31 08:39:33.4	313.600	-0.070	-0.190	0.440
2020/01/31 08:39:33.5	313.580	-0.050	-0.200	0.470
2020/01/31 08:39:33.6	313.560	-0.040	-0.210	0.490
2020/01/31 08:39:33.7	313.540	-0.020	-0.220	0.510
2020/01/31 08:39:33.8	313.530	0.000	-0.240	0.530
2020/01/31 08:39:33.9	313.510	0.020	-0.250	0.550
2020/01/31 08:39:34.0	313.490	0.040	-0.260	0.570
2020/01/31 08:39:34.1	313.480	0.060	-0.280	0.580
2020/01/31 08:39:34.2	313.460	0.080	-0.290	0.590
2020/01/31 08:39:34.3	313.440	0.100	-0.300	0.600
2020/01/31 08:39:34.4	313.420	0.120	-0.320	0.610
2020/01/31 08:39:34.5	313.410	0.140	-0.330	0.620
2020/01/31 08:39:34.6	313.390	0.160	-0.340	0.620
2020/01/31 08:39:34.7	313.380	0.180	-0.350	0.630
2020/01/31 08:39:34.8	313.360	0.200	-0.350	0.630
2020/01/31 08:39:34.9	313.350	0.220	-0.360	0.630
2020/01/31 08:39:35.0	313.340	0.230	-0.360	0.630
2020/01/31 08:39:35.1	313.330	0.250	-0.360	0.630
2020/01/31 08:39:35.2	313.320	0.270	-0.360	0.620
2020/01/31 08:39:35.3	313.310	0.280	-0.350	0.610
2020/01/31 08:39:35.4	313.310	0.300	-0.350	0.600
2020/01/31 08:39:35.5	313.300	0.310	-0.340	0.590
2020/01/31 08:39:35.6	313.300	0.320	-0.330	0.580
2020/01/31 08:39:35.7	313.300	0.340	-0.330	0.570
2020/01/31 08:39:35.8	313.300	0.350	-0.320	0.550
2020/01/31 08:39:35.9	313.310	0.360	-0.310	0.530
2020/01/31 08:39:36.0	313.310	0.370	-0.290	0.520
2020/01/31 08:39:36.1	313.320	0.370	-0.280	0.500
2020/01/31 08:39:36.2	313.330	0.380	-0.270	0.480
2020/01/31 08:39:36.3	313.330	0.380	-0.250	0.460
2020/01/31 08:39:36.4	313.350	0.390	-0.240	0.440
2020/01/31 08:39:36.5	313.360	0.390	-0.220	0.420
2020/01/31 08:39:36.6	313.370	0.390	-0.200	0.410
2020/01/31 08:39:36.7	313.380	0.390	-0.180	0.390
2020/01/31 08:39:36.8	313.390	0.380	-0.160	0.370
2020/01/31 08:39:36.9	313.390	0.380	-0.140	0.360
2020/01/31 08:39:37.0	313.400	0.370	-0.120	0.340
2020/01/31 08:39:37.1	313.400	0.370	-0.090	0.330
2020/01/31 08:39:37.2	313.410	0.360	-0.070	0.320
2020/01/31 08:39:37.3	313.410	0.350	-0.040	0.310
2020/01/31 08:39:37.4	313.410	0.340	-0.020	0.300
2020/01/31 08:39:37.5	313.410	0.330	0.010	0.290
2020/01/31 08:39:37.6	313.410	0.310	0.040	0.280
2020/01/31 08:39:37.7	313.420	0.300	0.070	0.280
2020/01/31 08:39:37.8	313.420	0.290	0.100	0.280
2020/01/31 08:39:37.9	313.420	0.270	0.130	0.270
2020/01/31 08:39:38.0	313.420	0.260	0.160	0.270
2020/01/31 08:39:38.1	313.410	0.250	0.190	0.270
2020/01/31 08:39:38.2	313.410	0.230	0.220	0.270
2020/01/31 08:39:38.3	313.410	0.220	0.240	0.270
2020/01/31 08:39:38.4	313.390	0.200	0.270	0.280
2020/01/31 08:39:38.5	313.380	0.190	0.300	0.280
2020/01/31 08:39:38.6	313.380	0.170	0.320	0.280
2020/01/31 08:39:38.7	313.370	0.160	0.340	0.290
2020/01/31 08:39:38.8	313.370	0.140	0.360	0.290
2020/01/31 08:39:38.9	313.360	0.130	0.380	0.290
2020/01/31 08:39:39.0	313.360	0.110	0.390	0.300
2020/01/31 08:39:39.1	313.350	0.100	0.400	0.300
2020/01/31 08:39:39.2	313.340	0.090	0.410	0.300
2020/01/31 08:39:39.3	313.340	0.070	0.420	0.300
2020/01/31 08:39:39.4	313.330	0.060	0.420	0.300
2020/01/31 08:39:39.5	313.320	0.050	0.410	0.300
2020/01/31 08:39:39.6	313.310	0.040	0.410	0.300
2020/01/31 08:39:39.7	313.310	0.020	0.400	0.300
2020/01/31 08:39:39.8	313.300	0.010	0.380	0.290
2020/01/31 08:39:39.9	313.290	-0.000	0.370	0.290
2020/01/31 08:39:40.0	313.280	-0.010	0.340	0.290
2020/01/31 08:39:40.1	313.280	-0.020	0.320	0.280
2020/01/31 08:39:40.2	313.270	-0.030	0.290	0.270
2020/01/31 08:39:40.3	313.260	-0.040	0.260	0.260
2020/01/31 08:39:40.4	313.260	-0.050	0.220	0.250
2020/01/31 08:39:40.5	313.260	-0.060	0.190	0.240
2020/01/31 08:39:40.6	313.250	-0.070	0.150	0.230
2020/01/31 08:39:40.7	313.240	-0.080	0.110	0.210
2020/01/31 08:39:40.8	313.240	-0.090	0.060	0.200
2020/01/31 08:39:40.9	313.230	-0.090	0.010	0.180
2020/01/31 08:39:41.0	313.230	-0.100	-0.030	0.150
2020/01/31 08:39:41.1	313.230	-0.110	-0.080	0.130
2020/01/31 08:39:41.2	313.220	-0.110	-0.130	0.110
2020/01/31 08:39:41.3	313.220	-0.120	-0.180	0.080
2020/01/31 08:39:41.4	313.220	-0.130	-0.240	0.050
2020/01/31 08:39:41.5	313.220	-0.130	-0.290	0.020
2020/01/31 08:39:41.6	313.230	-0.130	-0.340	-0.010
2020/01/31 08:39:41.7	313.230	-0.140	-0.390	-0.040
2020/01/31 08:39:41.8	313.240	-0.140	-0.440	-0.070
2020/01/31 08:39:41.9	313.240	-0.150	-0.490	-0.110
2020/01/31 08:39:42.0	313.250	-0.150	-0.540	-0.140
2020/01/31 08:39:42.1	313.250	-0.150	-0.590	-0.180
2020/01/31 08:39:42.2	313.260	-0.150	-0.630	-0.210
2020/01/31 08:39:42.3	313.270	-0.150	-0.680	-0.250
2020/01/31 08:39:42.4	313.270	-0.160	-0.720	-0.280
2020/01/31 08:39:42.5	313.270	-0.160	-0.760	-0.320
2020/01/31 08:39:42.6	313.280	-0.160	-0.800	-0.350
2020/01/31 08:39:42.7	313.290	-0.160	-0.840	-0.390
2020/01/31 08:39:42.8	313.300	-0.160	-0.870	-0.420
2020/01/31 08:39:42.9	313.310	-0.160	-0.900	-0.460
2020/01/31 08:39:43.0	313.320	-0.170	-0.930	-0.500
2020/01/31 08:39:43.1	313.340	-0.170	-0.960	-0.530
2020/01/31 08:39:43.2	313.350	-0.170	-0.990	-0.570
2020/01/31 08:39:43.3	313.360	-0.170	-1.010	-0.600
2020/01/31 08:39:43.4	313.380	-0.170	-1.030	-0.640
2020/01/31 08:39:43.5	313.400	-0.180	-1.040	-0.670
2020/01/31 08:39:43.6	313.420	-0.180	-1.060	-0.700
2020/01/31 08:39:43.7	313.440	-0.180	-1.070	-0.730
2020/01/31 08:39:43.8	313.460	-0.190	-1.080	-0.760
2020/01/31 08:39:43.9	313.480	-0.190	-1.080	-0.790
2020/01/31 08:39:44.0	313.500	-0.200	-1.090	-0.820
2020/01/31 08:39:44.1	313.520	-0.200	-1.090	-0.840
2020/01/31 08:39:44.2	313.540	-0.210	-1.080	-0.860
2020/01/31 08:39:44.3	313.570	-0.210	-1.070	-0.880
2020/01/31 08:39:44.4	313.600	-0.220	-1.060	-0.890
2020/01/31 08:39:44.5	313.620	-0.220	-1.050	-0.910
2020/01/31 08:39:44.6	313.640	-0.230	-1.030	-0.920
2020/01/31 08:39:44.7	313.660	-0.240	-1.000	-0.920
2020/01/31 08:39:44.8	313.680	-0.250	-0.980	-0.930
2020/01/31 08:39:44.9	313.690	-0.250	-0.940	-0.920
2020/01/31 08:39:45.0	313.710	-0.260	-0.910	-0.920
2020/01/31 08:39:45.1	313.720	-0.270	-0.870	-0.910
2020/01/31 08:39:45.2	313.720	-0.280	-0.820	-0.890
2020/01/31 08:39:45.3	313.730	-0.290	-0.770	-0.870
2020/01/31 08:39:45.4	313.750	-0.300	-0.710	-0.840
2020/01/31 08:39:45.5	313.750	-0.300	-0.650	-0.810
2020/01/31 08:39:45.6	313.740	-0.310	-0.590	-0.770
2020/01/31 08:39:45.7	313.740	-0.320	-0.530	-0.720
2020/01/31 08:39:45.8	313.730	-0.330	-0.460	-0.680
2020/01/31 08:39:45.9	313.720	-0.330	-0.390	-0.620
2020/01/31 08:39:46.0	313.710	-0.340	-0.320	-0.570
2020/01/31 08:39:46.1	313.690	-0.340	-0.250	-0.510
2020/01/31 08:39:46.2	313.670	-0.340	-0.170	-0.440
2020/01/31 08:39:46.3	313.650	-0.340	-0.100	-0.370
2020/01/31 08:39:46.4	313.630	-0.340	-0.020	-0.300
2020/01/31 08:39:46.5	313.600	-0.340	0.050	-0.220
2020/01/31 08:39:46.6	313.580	-0.340	0.130	-0.150
2020/01/31 08:39:46.7	313.550	-0.330	0.200	-0.070
2020/01/31 08:39:46.8	313.520	-0.330	0.270	0.010
2020/01/31 08:39:46.9	313.490	-0.320	0.340	0.090
2020/01/31 08:39:47.0	313.460	-0.310	0.410	0.180
2020/01/31 08:39:47.1	313.430	-0.290	0.470	0.260
2020/01/31 08:39:47.2	313.390	-0.280	0.530	0.350
2020/01/31 08:39:47.3	313.360	-0.260	0.580	0.430
2020/01/31 08:39:47.4	313.330	-0.240	0.630	0.510
2020/01/31 08:39:47.5	313.290	-0.220	0.670	0.590
2020/01/31 08:39:47.6	313.250	-0.200	0.710	0.670
2020/01/31 08:39:47.7	313.220	-0.170	0.740	0.750
2020/01/31 08:39:47.8	313.180	-0.150	0.760	0.830
2020/01/31 08:39:47.9	313.140	-0.120	0.770	0.900
2020/01/31 08:39:48.0	313.110	-0.090	0.780	0.970
2020/01/31 08:39:48.1	313.070	-0.060	0.780	1.040
2020/01/31 08:39:48.2	313.040	-0.020	0.770	1.100
2020/01/31 08:39:48.3	313.010	0.010	0.760	1.160
2020/01/31 08:39:48.4	312.990	0.050	0.730	1.210
2020/01/31 08:39:48.5	312.960	0.080	0.700	1.260
2020/01/31 08:39:48.6	312.930	0.120	0.660	1.300
2020/01/31 08:39:48.7	312.910	0.160	0.620	1.340
2020/01/31 08:39:48.8	312.880	0.190	0.570	1.370
2020/01/31 08:39:48.9	312.860	0.230	0.510	1.400
2020/01/31 08:39:49.0	312.850	0.270	0.450	1.420
2020/01/31 08:39:49.1	312.830	0.300	0.380	1.430
2020/01/31 08:39:49.2	312.820	0.340	0.300	1.440
2020/01/31 08:39:49.3	312.810	0.370	0.230	1.440
2020/01/31 08:39:49.4	312.830	0.400	0.140	1.440
2020/01/31 08:39:49.5	312.820	0.440	0.060	1.430
2020/01/31 08:39:49.6	312.830	0.460	-0.020	1.410
2020/01/31 08:39:49.7	312.830	0.490	-0.110	1.390
2020/01/31 08:39:49.8	312.840	0.520	-0.200	1.360
2020/01/31 08:39:49.9	312.850	0.540	-0.280	1.330
2020/01/31 08:39:50.0	312.870	0.560	-0.370	1.280
2020/01/31 08:39:50.1	312.880	0.580	-0.450	1.240
2020/01/31 08:39:50.2	312.910	0.590	-0.540	1.190
2020/01/31 08:39:50.3	312.930	0.600	-0.610	1.130
2020/01/31 08:39:50.4	312.960	0.610	-0.690	1.070
2020/01/31 08:39:50.5	312.990	0.620	-0.760	1.000
2020/01/31 08:39:50.6	313.020	0.620	-0.830	0.930
2020/01/31 08:39:50.7	313.060	0.620	-0.890	0.850
2020/01/31 08:39:50.8	313.090	0.610	-0.940	0.770
2020/01/31 08:39:50.9	313.130	0.610	-0.990	0.690
2020/01/31 08:39:51.0	313.160	0.600	-1.020	0.610
2020/01/31 08:39:51.1	313.200	0.580	-1.060	0.530
2020/01/31 08:39:51.2	313.240	0.570	-1.080	0.450
2020/01/31 08:39:51.3	313.270	0.550	-1.090	0.370
2020/01/31 08:39:51.4	313.310	0.530	-1.100	0.280
2020/01/31 08:39:51.5	313.340	0.500	-1.100	0.200
2020/01/31 08:39:51.6	313.370	0.480	-1.090	0.130
2020/01/31 08:39:51.7	313.400	0.450	-1.080	0.050
2020/01/31 08:39:51.8	313.430	0.420	-1.050	-0.020
2020/01/31 08:39:51.9	313.460	0.390	-1.020	-0.090
2020/01/31 08:39:52.0	313.480	0.360	-0.990	-0.150
2020/01/31 08:39:52.1	313.510	0.330	-0.940	-0.210
2020/01/31 08:39:52.2	313.530	0.300	-0.890	-0.270
2020/01/31 08:39:52.3	313.550	0.260	-0.840	-0.330
2020/01/31 08:39:52.4	313.580	0.230	-0.780	-0.380
2020/01/31 08:39:52.5	313.600	0.190	-0.720	-0.430
2020/01/31 08:39:52.6	313.620	0.160	-0.660	-0.470
2020/01/31 08:39:52.7	313.640	0.130	-0.590	-0.510
2020/01/31 08:39:52.8	313.650	0.090	-0.530	-0.550
2020/01/31 08:39:52.9	313.660	0.060	-0.460	-0.580
2020/01/31 08:39:53.0	313.680	0.030	-0.400	-0.610
2020/01/31 08:39:53.1	313.690	0.000	-0.330	-0.640
2020/01/31 08:39:53.2	313.700	-0.020	-0.270	-0.660
2020/01/31 08:39:53.3	313.710	-0.050	-0.210	-0.680
2020/01/31 08:39:53.4	313.700	-0.070	-0.160	-0.700
2020/01/31 08:39:53.5	313.710	-0.090	-0.110	-0.710
2020/01/31 08:39:53.6	313.720	-0.110	-0.060	-0.720
2020/01/31 08:39:53.7	313.720	-0.130	-0.020	-0.730
2020/01/31 08:39:53.8	313.730	-0.150	0.020	-0.740
2020/01/31 08:39:53.9	313.730	-0.160	0.050	-0.740
2020/01/31 08:39:54.0	313.730	-0.180	0.080	-0.740
2020/01/31 08:39:54.1	313.730	-0.190	0.110	-0.740
2020/01/31 08:39:54.2	313.730	-0.200	0.130	-0.740
2020/01/31 08:39:54.3	313.730	-0.200	0.140	-0.730
2020/01/31 08:39:54.4	313.720	-0.210	0.150	-0.720
2020/01/31 08:39:54.5	313.720	-0.210	0.160	-0.710
2020/01/31 08:39:54.6	313.720	-0.220	0.160	-0.690
2020/01/31 08:39:54.7	313.710	-0.220	0.150	-0.670
2020/01/31 08:39:54.8	313.710	-0.220	0.150	-0.660
2020/01/31 08:39:54.9	313.700	-0.220	0.140	-0.640
2020/01/31 08:39:55.0	313.690	-0.220	0.130	-0.610
2020/01/31 08:39:55.1	313.680	-0.220	0.110	-0.590
2020/01/31 08:39:55.2	313.680	-0.220	0.100	-0.560
2020/01/31 08:39:55.3	313.670	-0.220	0.080	-0.530
2020/01/31 08:39:55.4	313.650	-0.220	0.060	-0.510
2020/01/31 08:39:55.5	313.630	-0.220	0.040	-0.480
2020/01/31 08:39:55.6	313.620	-0.220	0.020	-0.450
2020/01/31 08:39:55.7	313.610	-0.220	-0.010	-0.410
2020/01/31 08:39:55.8	313.600	-0.220	-0.030	-0.380
2020/01/31 08:39:55.9	313.580	-0.220	-0.050	-0.340
2020/01/31 08:39:56.0	313.570	-0.220	-0.070	-0.310
2020/01/31 08:39:56.1	313.550	-0.220	-0.100	-0.270
2020/01/31 08:39:56.2	313.540	-0.220	-0.120	-0.230
2020/01/31 08:39:56.3	313.520	-0.220	-0.140	-0.200
2020/01/31 08:39:56.4	313.490	-0.220	-0.150	-0.160
2020/01/31 08:39:56.5	313.470	-0.220	-0.170	-0.120
2020/01/31 08:39:56.6	313.450	-0.220	-0.190	-0.080
2020/01/31 08:39:56.7	313.430	-0.220	-0.200	-0.040
2020/01/31 08:39:56.8	313.420	-0.220	-0.210	-0.000
2020/01/31 08:39:56.9	313.400	-0.220	-0.230	0.040
2020/01/31 08:39:57.0	313.380	-0.220	-0.230	0.070
2020/01/31 08:39:57.1	313.360	-0.220	-0.240	0.110
2020/01/31 08:39:57.2	313.340	-0.220	-0.250	0.150
2020/01/31 08:39:57.3	313.320	-0.220	-0.250	0.190
2020/01/31 08:39:57.4	313.280	-0.210	-0.260	0.220
2020/01/31 08:39:57.5	313.260	-0.210	-0.260	0.260
2020/01/31 08:39:57.6	313.240	-0.210	-0.260	0.300
2020/01/31 08:39:57.7	313.220	-0.200	-0.250	0.330
2020/01/31 08:39:57.8	313.200	-0.190	-0.250	0.370
2020/01/31 08:39:57.9	313.180	-0.190	-0.250	0.400
2020/01/31 08:39:58.0	313.160	-0.180	-0.240	0.430
2020/01/31 08:39:58.1	313.140	-0.170	-0.240	0.470
2020/01/31 08:39:58.2	313.120	-0.160	-0.230	0.490
2020/01/31 08:39:58.3	313.110	-0.150	-0.220	0.520
2020/01/31 08:39:58.4	313.100	-0.140	-0.210	0.550
2020/01/31 08:39:58.5	313.090	-0.130	-0.200	0.580
2020/01/31 08:39:58.6	313.070	-0.120	-0.200	0.600
2020/01/31 08:39:58.7	313.060	-0.100	-0.190	0.630
2020/01/31 08:39:58.8	313.040	-0.090	-0.180	0.650
2020/01/31 08:39:58.9	313.030	-0.080	-0.160	0.670
2020/01/31 08:39:59.0	313.010	-0.060	-0.150	0.690
2020/01/31 08:39:59.1	313.000	-0.050	-0.140	0.710
2020/01/31 08:39:59.2	312.990	-0.030	-0.130	0.730
2020/01/31 08:39:59.3	312.970	-0.020	-0.120	0.740
2020/01/31 08:39:59.4	312.940	-0.010	-0.110	0.760
2020/01/31 08:39:59.5	312.930	0.010	-0.100	0.780
2020/01/31 08:39:59.6	312.910	0.020	-0.090	0.790
2020/01/31 08:39:59.7	312.900	0.030	-0.080	0.800
2020/01/31 08:39:59.8	312.880	0.040	-0.070	0.810
2020/01/31 08:39:59.9	312.870	0.050	-0.060	0.820
2020/01/31 08:40:00.0	312.850	0.060	-0.050	0.830
2020/01/31 08:40:00.1	312.840	0.070	-0.050	0.840
2020/01/31 08:40:00.2	312.830	0.080	-0.040	0.840
2020/01/31 08:40:00.3	312.810	0.090	-0.030	0.840
2020/01/31 08:40:00.4	312.810	0.100	-0.030	0.840
2020/01/31 08:40:00.5	312.790	0.100	-0.030	0.830
2020/01/31 08:40:00.6	312.780	0.110	-0.030	0.820
2020/01/31 08:40:00.7	312.770	0.110	-0.030	0.810
2020/01/31 08:40:00.8	312.770	0.110	-0.040	0.800
2020/01/31 08:40:00.9	312.760	0.110	-0.040	0.780
2020/01/31 08:40:01.0	312.750	0.110	-0.050	0.760
2020/01/31 08:40:01.1	312.750	0.110	-0.060	0.740
2020/01/31 08:40:01.2	312.750	0.110	-0.080	0.710
2020/01/31 08:40:01.3	312.750	0.110	-0.090	0.680
2020/01/31 08:40:01.4	312.760	0.110	-0.110	0.640
2020/01/31 08:40:01.5	312.760	0.100	-0.140	0.610
2020/01/31 08:40:01.6	312.770	0.100	-0.160	0.570
2020/01/31 08:40:01.7	312.780	0.090	-0.180	0.530
2020/01/31 08:40:01.8	312.790	0.090	-0.210	0.480
2020/01/31 08:40:01.9	312.800	0.080	-0.240	0.440
2020/01/31 08:40:02.0	312.810	0.080	-0.270	0.390
2020/01/31 08:40:02.1	312.830	0.070	-0.300	0.340
2020/01/31 08:40:02.2	312.840	0.060	-0.330	0.290
2020/01/31 08:40:02.3	312.860	0.050	-0.360	0.240
2020/01/31 08:40:02.4	312.880	0.040	-0.390	0.180
2020/01/31 08:40:02.5	312.900	0.030	-0.420	0.130
2020/01/31 08:40:02.6	312.920	0.030	-0.450	0.070
2020/01/31 08:40:02.7	312.950	0.020	-0.480	0.020
2020/01/31 08:40:02.8	312.980	0.010	-0.510	-0.040
2020/01/31 08:40:02.9	313.010	0.000	-0.540	-0.100
2020/01/31 08:40:03.0	313.040	-0.010	-0.570	-0.150
2020/01/31 08:40:03.1	313.070	-0.020	-0.590	-0.210
2020/01/31 08:40:03.2	313.100	-0.020	-0.610	-0.270
2020/01/31 08:40:03.3	313.140	-0.030	-0.630	-0.320
2020/01/31 08:40:03.4	313.170	-0.040	-0.650	-0.370
2020/01/31 08:40:03.5	313.210	-0.040	-0.670	-0.420
2020/01/31 08:40:03.6	313.240	-0.050	-0.680	-0.470
2020/01/31 08:40:03.7	313.280	-0.050	-0.690	-0.520
2020/01/31 08:40:03.8	313.320	-0.050	-0.700	-0.560
2020/01/31 08:40:03.9	313.360	-0.050	-0.700	-0.600
2020/01/31 08:40:04.0	313.400	-0.060	-0.700	-0.630
2020/01/31 08:40:04.1	313.430	-0.060	-0.700	-0.660
2020/01/31 08:40:04.2	313.470	-0.060	-0.700	-0.680
2020/01/31 08:40:04.3	313.500	-0.060	-0.690	-0.700
2020/01/31 08:40:04.4	313.530	-0.050	-0.680	-0.710
2020/01/31 08:40:04.5	313.560	-0.050	-0.670	-0.720
2020/01/31 08:40:04.6	313.590	-0.050	-0.660	-0.720
2020/01/31 08:40:04.7	313.620	-0.050	-0.640	-0.710
2020/01/31 08:40:04.8	313.640	-0.040	-0.620	-0.700
2020/01/31 08:40:04.9	313.660	-0.040	-0.590	-0.680
2020/01/31 08:40:05.0	313.680	-0.030	-0.570	-0.660
2020/01/31 08:40:05.1	313.700	-0.030	-0.540	-0.630
2020/01/31 08:40:05.2	313.710	-0.020	-0.510	-0.600
2020/01/31 08:40:05.3	313.720	-0.020	-0.480	-0.560
2020/01/31 08:40:05.4	313.730	-0.010	-0.450	-0.510
2020/01/31 08:40:05.5	313.740	-0.010	-0.410	-0.460
2020/01/31 08:40:05.6	313.730	-0.000	-0.380	-0.410
2020/01/31 08:40:05.7	313.730	0.010	-0.340	-0.350
2020/01/31 08:40:05.8	313.720	0.010	-0.300	-0.280
2020/01/31 08:40:05.9	313.700	0.020	-0.270	-0.220
2020/01/31 08:40:06.0	313.690	0.030	-0.230	-0.150
2020/01/31 08:40:06.1	313.670	0.040	-0.190	-0.070
2020/01/31 08:40:06.2	313.650	0.050	-0.160	0.000
2020/01/31 08:40:06.3	313.620	0.060	-0.130	0.080
2020/01/31 08:40:06.4	313.580	0.060	-0.090	0.160
2020/01/31 08:40:06.5	313.550	0.070	-0.060	0.230
2020/01/31 08:40:06.6	313.530	0.080	-0.030	0.310
2020/01/31 08:40:06.7	313.490	0.090	-0.010	0.390
2020/01/31 08:40:06.8	313.460	0.110	0.020	0.460
2020/01/31 08:40:06.9	313.430	0.120	0.040	0.540
2020/01/31 08:40:07.0	313.400	0.130	0.050	0.610
2020/01/31 08:40:07.1	313.370	0.140	0.070	0.680
2020/01/31 08:40:07.2	313.340	0.150	0.070	0.740
2020/01/31 08:40:07.3	313.310	0.160	0.080	0.800
2020/01/31 08:40:07.4	313.290	0.180	0.080	0.850
2020/01/31 08:40:07.5	313.270	0.190	0.080	0.900
2020/01/31 08:40:07.6	313.240	0.200	0.080	0.940
2020/01/31 08:40:07.7	313.220	0.210	0.070	0.980
2020/01/31 08:40:07.8	313.190	0.220	0.050	1.020
2020/01/31 08:40:07.9	313.170	0.230	0.040	1.050
2020/01/31 08:40:08.0	313.140	0.240	0.020	1.070
2020/01/31 08:40:08.1	313.120	0.250	-0.000	1.090
2020/01/31 08:40:08.2	313.100	0.250	-0.020	1.100
2020/01/31 08:40:08.3	313.080	0.250	-0.050	1.110
2020/01/31 08:40:08.4	313.070	0.250	-0.070	1.120
2020/01/31 08:40:08.5	313.050	0.250	-0.100	1.120
2020/01/31 08:40:08.6	313.030	0.250	-0.130	1.110
2020/01/31 08:40:08.7	313.010	0.240	-0.160	1.100
2020/01/31 08:40:08.8	312.990	0.240	-0.190	1.090
2020/01/31 08:40:08.9	312.980	0.230	-0.220	1.070
2020/01/31 08:40:09.0	312.960	0.210	-0.240	1.040
2020/01/31 08:40:09.1	312.950	0.200	-0.270	1.010
2020/01/31 08:40:09.2	312.930	0.180	-0.300	0.980
2020/01/31 08:40:09.3	312.920	0.160	-0.330	0.940
2020/01/31 08:40:09.4	312.920	0.140	-0.350	0.900
2020/01/31 08:40:09.5	312.910	0.120	-0.380	0.850
2020/01/31 08:40:09.6	312.910	0.090	-0.400	0.790
2020/01/31 08:40:09.7	312.910	0.070	-0.420	0.740
2020/01/31 08:40:09.8	312.910	0.040	-0.440	0.670
2020/01/31 08:40:09.9	312.920	0.010	-0.450	0.610
2020/01/31 08:40:10.0	312.920	-0.020	-0.470	0.540
2020/01/31 08:40:10.1	312.930	-0.050	-0.480	0.470
2020/01/31 08:40:10.2	312.950	-0.080	-0.490	0.400
2020/01/31 08:40:10.3	312.960	-0.110	-0.500	0.330
2020/01/31 08:40:10.4	312.980	-0.140	-0.500	0.250
2020/01/31 08:40:10.5	313.000	-0.170	-0.500	0.170
2020/01/31 08:40:10.6	313.020	-0.190	-0.490	0.100
2020/01/31 08:40:10.7	313.040	-0.220	-0.480	0.030
2020/01/31 08:40:10.8	313.060	-0.250	-0.470	-0.040
2020/01/31 08:40:10.9	313.090	-0.270	-0.460	-0.110
2020/01/31 08:40:11.0	313.110	-0.300	-0.440	-0.180
2020/01/31 08:40:11.1	313.130	-0.320	-0.410	-0.240
2020/01/31 08:40:11.2	313.150	-0.340	-0.390	-0.300
2020/01/31 08:40:11.3	313.170	-0.360	-0.360	-0.360
2020/01/31 08:40:11.4	313.180	-0.370	-0.330	-0.410
2020/01/31 08:40:11.5	313.200	-0.390	-0.290	-0.450
2020/01/31 08:40:11.6	313.220	-0.400	-0.260	-0.490
2020/01/31 08:40:11.7	313.240	-0.410	-0.220	-0.530
2020/01/31 08:40:11.8	313.250	-0.410	-0.180	-0.560
2020/01/31 08:40:11.9	313.270	-0.420	-0.140	-0.590
2020/01/31 08:40:12.0	313.280	-0.420	-0.100	-0.620
2020/01/31 08:40:12.1	313.300	-0.410	-0.060	-0.640
2020/01/31 08:40:12.2	313.310	-0.410	-0.030	-0.650
2020/01/31 08:40:12.3	313.320	-0.400	0.010	-0.660
2020/01/31 08:40:12.4	313.330	-0.390	0.040	-0.670
2020/01/31 08:40:12.5	313.340	-0.380	0.070	-0.670
2020/01/31 08:40:12.6	313.350	-0.360	0.100	-0.670
2020/01/31 08:40:12.7	313.360	-0.350	0.130	-0.670
2020/01/31 08:40:12.8	313.370	-0.330	0.160	-0.660
2020/01/31 08:40:12.9	313.370	-0.310	0.180	-0.650
2020/01/31 08:40:13.0	313.380	-0.280	0.200	-0.640
2020/01/31 08:40:13.1	313.380	-0.260	0.220	-0.620
2020/01/31 08:40:13.2	313.380	-0.230	0.230	-0.590
2020/01/31 08:40:13.3	313.380	-0.200	0.240	-0.570
2020/01/31 08:40:13.4	313.390	-0.180	0.260	-0.540
2020/01/31 08:40:13.5	313.380	-0.150	0.260	-0.500
2020/01/31 08:40:13.6	313.380	-0.120	0.260	-0.470
2020/01/31 08:40:13.7	313.370	-0.080	0.260	-0.430
2020/01/31 08:40:13.8	313.370	-0.050	0.260	-0.380
2020/01/31 08:40:13.9	313.360	-0.020	0.260	-0.340
2020/01/31 08:40:14.0	313.350	0.010	0.250	-0.290
2020/01/31 08:40:14.1	313.340	0.040	0.240	-0.240
2020/01/31 08:40:14.2	313.330	0.070	0.220	-0.190
2020/01/31 08:40:14.3	313.330	0.100	0.200	-0.140
2020/01/31 08:40:14.4	313.330	0.120	0.190	-0.090
2020/01/31 08:40:14.5	313.320	0.150	0.160	-0.040
2020/01/31 08:40:14.6	313.310	0.170	0.140	0.010
2020/01/31 08:40:14.7	313.310	0.200	0.110	0.060
2020/01/31 08:40:14.8	313.300	0.220	0.080	0.110
2020/01/31 08:40:14.9	313.300	0.240	0.050	0.150
2020/01/31 08:40:15.0	313.290	0.250	0.020	0.200
2020/01/31 08:40:15.1	313.290	0.270	-0.010	0.240
2020/01/31 08:40:15.2	313.290	0.280	-0.040	0.280
2020/01/31 08:40:15.3	313.290	0.290	-0.080	0.320
2020/01/31 08:40:15.4	313.280	0.300	-0.120	0.360
2020/01/31 08:40:15.5	313.280	0.300	-0.150	0.400
2020/01/31 08:40:15.6	313.280	0.310	-0.190	0.430
2020/01/31 08:40:15.7	313.280	0.310	-0.220	0.470
2020/01/31 08:40:15.8	313.280	0.310	-0.260	0.500
2020/01/31 08:40:15.9	313.280	0.300	-0.290	0.530
2020/01/31 08:40:16.0	313.280	0.300	-0.320	0.560
2020/01/31 08:40:16.1	313.280	0.290	-0.350	0.580
2020/01/31 08:40:16.2	313.280	0.280	-0.370	0.610
2020/01/31 08:40:16.3	313.270	0.270	-0.400	0.630
2020/01/31 08:40:16.4	313.280	0.260	-0.410	0.650
2020/01/31 08:40:16.5	313.270	0.240	-0.430	0.670
2020/01/31 08:40:16.6	313.270	0.220	-0.450	0.690
2020/01/31 08:40:16.7	313.260	0.210	-0.470	0.700
2020/01/31 08:40:16.8	313.250	0.190	-0.480	0.720
2020/01/31 08:40:16.9	313.250	0.170	-0.490	0.730
2020/01/31 08:40:17.0	313.240	0.140	-0.500	0.730
2020/01/31 08:40:17.1	313.230	0.120	-0.500	0.740
2020/01/31 08:40:17.2	313.220	0.100	-0.510	0.740
2020/01/31 08:40:17.3	313.210	0.080	-0.510	0.740
2020/01/31 08:40:17.4	313.210	0.060	-0.510	0.730
2020/01/31 08:40:17.5	313.200	0.030	-0.510	0.730
2020/01/31 08:40:17.6	313.190	0.010	-0.510	0.720
2020/01/31 08:40:17.7	313.180	-0.010	-0.510	0.710
2020/01/31 08:40:17.8	313.160	-0.030	-0.510	0.690
2020/01/31 08:40:17.9	313.150	-0.060	-0.510	0.680
2020/01/31 08:40:18.0	313.140	-0.080	-0.510	0.660
2020/01/31 08:40:18.1	313.130	-0.100	-0.510	0.640
2020/01/31 08:40:18.2	313.120	-0.120	-0.510	0.620
2020/01/31 08:40:18.3	313.110	-0.130	-0.510	0.600
2020/01/31 08:40:18.4	313.100	-0.150	-0.510	0.570
2020/01/31 08:40:18.5	313.090	-0.170	-0.510	0.550
2020/01/31 08:40:18.6	313.080	-0.180	-0.510	0.520
2020/01/31 08:40:18.7	313.070	-0.200	-0.510	0.490
2020/01/31 08:40:18.8	313.060	-0.210	-0.520	0.470
2020/01/31 08:40:18.9	313.060	-0.220	-0.520	0.440
2020/01/31 08:40:19.0	313.050	-0.230	-0.530	0.410
2020/01/31 08:40:19.1	313.050	-0.230	-0.540	0.390
2020/01/31 08:40:19.2	313.040	-0.240	-0.550	0.360
2020/01/31 08:40:19.3	313.040	-0.240	-0.560	0.330
2020/01/31 08:40:19.4	313.040	-0.250	-0.570	0.310
2020/01/31 08:40:19.5	313.030	-0.250	-0.580	0.280
2020/01/31 08:40:19.6	313.030	-0.240	-0.590	0.260
2020/01/31 08:40:19.7	313.030	-0.240	-0.610	0.230
2020/01/31 08:40:19.8	313.030	-0.230	-0.620	0.200
2020/01/31 08:40:19.9	313.030	-0.230	-0.630	0.180
2020/01/31 08:40:20.0	313.030	-0.220	-0.640	0.150
2020/01/31 08:40:20.1	313.030	-0.200	-0.660	0.130
2020/01/31 08:40:20.2	313.030	-0.190	-0.670	0.110
2020/01/31 08:40:20.3	313.030	-0.170	-0.680	0.080
2020/01/31 08:40:20.4	313.030	-0.160	-0.690	0.060
2020/01/31 08:40:20.5	313.030	-0.140	-0.700	0.040
2020/01/31 08:40:20.6	313.040	-0.120	-0.710	0.020
2020/01/31 08:40:20.7	313.040	-0.090	-0.710	0.000
2020/01/31 08:40:20.8	313.050	-0.070	-0.720	-0.020
2020/01/31 08:40:20.9	313.060	-0.040	-0.720	-0.030
2020/01/31 08:40:21.0	313.070	-0.020	-0.720	-0.050
2020/01/31 08:40:21.1	313.080	0.010	-0.720	-0.060
2020/01/31 08:40:21.2	313.090	0.040	-0.720	-0.070
2020/01/31 08:40:21.3	313.100	0.060	-0.720	-0.080
2020/01/31 08:40:21.4	313.130	0.090	-0.710	-0.090
2020/01/31 08:40:21.5	313.140	0.120	-0.700	-0.090
2020/01/31 08:40:21.6	313.160	0.150	-0.690	-0.100
2020/01/31 08:40:21.7	313.170	0.180	-0.670	-0.100
2020/01/31 08:40:21.8	313.190	0.200	-0.660	-0.100
2020/01/31 08:40:21.9	313.200	0.230	-0.640	-0.100
2020/01/31 08:40:22.0	313.220	0.260	-0.610	-0.100
2020/01/31 08:40:22.1	313.230	0.280	-0.590	-0.090
2020/01/31 08:40:22.2	313.250	0.300	-0.560	-0.090
2020/01/31 08:40:22.3	313.270	0.330	-0.530	-0.080
2020/01/31 08:40:22.4	313.290	0.350	-0.500	-0.070
2020/01/31 08:40:22.5	313.310	0.370	-0.470	-0.060
2020/01/31 08:40:22.6	313.330	0.380	-0.440	-0.050
2020/01/31 08:40:22.7	313.350	0.400	-0.400	-0.030
2020/01/31 08:40:22.8	313.370	0.410	-0.360	-0.010
2020/01/31 08:40:22.9	313.380	0.420	-0.330	0.010
2020/01/31 08:40:23.0	313.400	0.430	-0.290	0.030
2020/01/31 08:40:23.1	313.410	0.440	-0.250	0.050
2020/01/31 08:40:23.2	313.430	0.440	-0.210	0.080
2020/01/31 08:40:23.3	313.440	0.440	-0.170	0.110
2020/01/31 08:40:23.4	313.440	0.440	-0.130	0.140
2020/01/31 08:40:23.5	313.450	0.440	-0.090	0.170
2020/01/31 08:40:23.6	313.460	0.430	-0.050	0.200
2020/01/31 08:40:23.7	313.460	0.420	-0.000	0.230
2020/01/31 08:40:23.8	313.470	0.410	0.030	0.270
2020/01/31 08:40:23.9	313.470	0.400	0.070	0.300
2020/01/31 08:40:24.0	313.480	0.390	0.110	0.330
2020/01/31 08:40:24.1	313.480	0.370	0.150	0.360
2020/01/31 08:40:24.2	313.480	0.350	0.180	0.400
2020/01/31 08:40:24.3	313.480	0.330	0.220	0.420
2020/01/31 08:40:24.4	313.470	0.310	0.250	0.450
2020/01/31 08:40:24.5	313.470	0.280	0.280	0.480
2020/01/31 08:40:24.6	313.470	0.260	0.310	0.510
2020/01/31 08:40:24.7	313.460	0.230	0.340	0.530
2020/01/31 08:40:24.8	313.460	0.200	0.370	0.550
2020/01/31 08:40:24.9	313.460	0.180	0.390	0.570
2020/01/31 08:40:25.0	313.450	0.150	0.410	0.580
2020/01/31 08:40:25.1	313.450	0.120	0.440	0.600
2020/01/31 08:40:25.2	313.440	0.090	0.450	0.610
2020/01/31 08:40:25.3	313.430	0.060	0.470	0.620
2020/01/31 08:40:25.4	313.430	0.030	0.490	0.630
2020/01/31 08:40:25.5	313.420	-0.000	0.510	0.640
2020/01/31 08:40:25.6	313.400	-0.030	0.520	0.640
2020/01/31 08:40:25.7	313.390	-0.060	0.530	0.650
2020/01/31 08:40:25.8	313.380	-0.090	0.540	0.650
2020/01/31 08:40:25.9	313.360	-0.120	0.550	0.660
2020/01/31 08:40:26.0	313.340	-0.150	0.560	0.660
2020/01/31 08:40:26.1	313.320	-0.180	0.570	0.660
2020/01/31 08:40:26.2	313.300	-0.200	0.570	0.660
2020/01/31 08:40:26.3	313.280	-0.230	0.580	0.660
2020/01/31 08:40:26.4	313.240	-0.260	0.570	0.660
2020/01/31 08:40:26.5	313.210	-0.280	0.570	0.660
2020/01/31 08:40:26.6	313.190	-0.300	0.570	0.650
2020/01/31 08:40:26.7	313.160	-0.330	0.560	0.640
2020/01/31 08:40:26.8	313.130	-0.350	0.560	0.630
2020/01/31 08:40:26.9	313.100	-0.370	0.550	0.620
2020/01/31 08:40:27.0	313.070	-0.380	0.530	0.600
2020/01/31 08:40:27.1	313.040	-0.400	0.510	0.580
2020/01/31 08:40:27.2	313.000	-0.420	0.490	0.550
2020/01/31 08:40:27.3	312.970	-0.430	0.470	0.520
2020/01/31 08:40:27.4	312.940	-0.440	0.450	0.490
2020/01/31 08:40:27.5	312.900	-0.450	0.420	0.460
2020/01/31 08:40:27.6	312.870	-0.460	0.380	0.420
2020/01/31 08:40:27.7	312.840	-0.470	0.340	0.390
2020/01/31 08:40:27.8	312.810	-0.470	0.300	0.350
2020/01/31 08:40:27.9	312.770	-0.480	0.260	0.300
2020/01/31 08:40:28.0	312.740	-0.480	0.210	0.260
2020/01/31 08:40:28.1	312.710	-0.480	0.160	0.210
2020/01/31 08:40:28.2	312.680	-0.480	0.110	0.170
2020/01/31 08:40:28.3	312.660	-0.470	0.050	0.120
2020/01/31 08:40:28.4	312.630	-0.470	-0.010	0.070
2020/01/31 08:40:28.5	312.600	-0.460	-0.060	0.030
2020/01/31 08:40:28.6	312.580	-0.450	-0.120	-0.020
2020/01/31 08:40:28.7	312.560	-0.440	-0.180	-0.070
2020/01/31 08:40:28.8	312.540	-0.430	-0.250	-0.110
2020/01/31 08:40:28.9	312.520	-0.420	-0.310	-0.150
2020/01/31 08:40:29.0	312.500	-0.400	-0.370	-0.200
2020/01/31 08:40:29.1	312.480	-0.380	-0.430	-0.240
2020/01/31 08:40:29.2	312.470	-0.370	-0.490	-0.280
2020/01/31 08:40:29.3	312.460	-0.350	-0.560	-0.320
2020/01/31 08:40:29.4	312.470	-0.330	-0.620	-0.360
2020/01/31 08:40:29.5	312.460	-0.300	-0.680	-0.400
2020/01/31 08:40:29.6	312.460	-0.280	-0.740	-0.440
2020/01/31 08:40:29.7	312.460	-0.260	-0.790	-0.470
2020/01/31 08:40:29.8	312.470	-0.240	-0.850	-0.510
2020/01/31 08:40:29.9	312.470	-0.210	-0.900	-0.540
2020/01/31 08:40:30.0	312.480	-0.190	-0.950	-0.570
2020/01/31 08:40:30.1	312.500	-0.160	-1.000	-0.600
2020/01/31 08:40:30.2	312.510	-0.140	-1.050	-0.630
2020/01/31 08:40:30.3	312.530	-0.110	-1.090	-0.650
2020/01/31 08:40:30.4	312.550	-0.090	-1.130	-0.670
2020/01/31 08:40:30.5	312.580	-0.070	-1.160	-0.690
2020/01/31 08:40:30.6	312.600	-0.040	-1.190	-0.700
2020/01/31 08:40:30.7	312.630	-0.020	-1.220	-0.710
2020/01/31 08:40:30.8	312.650	0.000	-1.240	-0.720
2020/01/31 08:40:30.9	312.680	0.020	-1.250	-0.720
2020/01/31 08:40:31.0	312.710	0.040	-1.260	-0.710
2020/01/31 08:40:31.1	312.740	0.060	-1.260	-0.700
2020/01/31 08:40:31.2	312.760	0.080	-1.260	-0.690
2020/01/31 08:40:31.3	312.790	0.100	-1.250	-0.670
2020/01/31 08:40:31.4	312.830	0.110	-1.240	-0.640
2020/01/31 08:40:31.5	312.850	0.120	-1.220	-0.610
2020/01/31 08:40:31.6	312.880	0.140	-1.190	-0.580
2020/01/31 08:40:31.7	312.900	0.150	-1.160	-0.540
2020/01/31 08:40:31.8	312.920	0.150	-1.120	-0.500
2020/01/31 08:40:31.9	312.940	0.160	-1.080	-0.450
2020/01/31 08:40:32.0	312.960	0.170	-1.040	-0.410
2020/01/31 08:40:32.1	312.980	0.170	-0.990	-0.360
2020/01/31 08:40:32.2	312.990	0.180	-0.940	-0.310
2020/01/31 08:40:32.3	313.010	0.180	-0.880	-0.250
2020/01/31 08:40:32.4	313.050	0.180	-0.820	-0.190
2020/01/31 08:40:32.5	313.070	0.180	-0.760	-0.130
2020/01/31 08:40:32.6	313.080	0.180	-0.700	-0.070
2020/01/31 08:40:32.7	313.090	0.180	-0.640	-0.010
2020/01/31 08:40:32.8	313.110	0.180	-0.580	0.050
2020/01/31 08:40:32.9	313.120	0.180	-0.520	0.110
2020/01/31 08:40:33.0	313.130	0.180	-0.460	0.170
2020/01/31 08:40:33.1	313.140	0.180	-0.400	0.230
2020/01/31 08:40:33.2	313.150	0.180	-0.340	0.290
2020/01/31 08:40:33.3	313.160	0.180	-0.290	0.350
2020/01/31 08:40:33.4	313.160	0.170	-0.230	0.410
2020/01/31 08:40:33.5	313.170	0.170	-0.180	0.470
2020/01/31 08:40:33.6	313.170	0.170	-0.130	0.530
2020/01/31 08:40:33.7	313.180	0.170	-0.080	0.590
2020/01/31 08:40:33.8	313.180	0.170	-0.040	0.640
2020/01/31 08:40:33.9	313.180	0.170	-0.000	0.700
2020/01/31 08:40:34.0	313.180	0.170	0.030	0.750
2020/01/31 08:40:34.1	313.180	0.170	0.060	0.800
2020/01/31 08:40:34.2	313.180	0.170	0.090	0.840
2020/01/31 08:40:34.3	313.180	0.170	0.110	0.880
2020/01/31 08:40:34.4	313.170	0.170	0.130	0.920
2020/01/31 08:40:34.5	313.160	0.170	0.140	0.960
2020/01/31 08:40:34.6	313.160	0.170	0.160	0.990
2020/01/31 08:40:34.7	313.160	0.180	0.160	1.010
2020/01/31 08:40:34.8	313.160	0.180	0.170	1.030
2020/01/31 08:40:34.9	313.150	0.190	0.170	1.050
2020/01/31 08:40:35.0	313.150	0.190	0.170	1.060
2020/01/31 08:40:35.1	313.150	0.200	0.170	1.060
2020/01/31 08:40:35.2	313.140	0.200	0.170	1.060
2020/01/31 08:40:35.3	313.130	0.210	0.160	1.060
2020/01/31 08:40:35.4	313.120	0.220	0.160	1.050
2020/01/31 08:40:35.5	313.110	0.220	0.150	1.040
2020/01/31 08:40:35.6	313.100	0.230	0.140	1.030
2020/01/31 08:40:35.7	313.090	0.240	0.130	1.020
2020/01/31 08:40:35.8	313.080	0.240	0.130	1.000
2020/01/31 08:40:35.9	313.060	0.250	0.120	0.990
2020/01/31 08:40:36.0	313.050	0.260	0.110	0.970
2020/01/31 08:40:36.1	313.030	0.260	0.110	0.950
2020/01/31 08:40:36.2	313.020	0.270	0.100	0.930
2020/01/31 08:40:36.3	313.000	0.270	0.100	0.910
2020/01/31 08:40:36.4	312.980	0.270	0.090	0.880
2020/01/31 08:40:36.5	312.960	0.280	0.090	0.860
2020/01/31 08:40:36.6	312.940	0.280	0.090	0.840
2020/01/31 08:40:36.7	312.920	0.280	0.090	0.820
2020/01/31 08:40:36.8	312.900	0.280	0.090	0.800
2020/01/31 08:40:36.9	312.880	0.280	0.090	0.780
2020/01/31 08:40:37.0	312.860	0.280	0.090	0.760
2020/01/31 08:40:37.1	312.840	0.280	0.090	0.740
2020/01/31 08:40:37.2	312.820	0.270	0.090	0.720
2020/01/31 08:40:37.3	312.800	0.270	0.090	0.700
2020/01/31 08:40:37.4	312.770	0.270	0.090	0.680
2020/01/31 08:40:37.5	312.760	0.260	0.090	0.660
2020/01/31 08:40:37.6	312.740	0.250	0.090	0.640
2020/01/31 08:40:37.7	312.720	0.240	0.090	0.620
2020/01/31 08:40:37.8	312.700	0.240	0.080	0.600
2020/01/31 08:40:37.9	312.680	0.230	0.070	0.580
2020/01/31 08:40:38.0	312.660	0.220	0.060	0.560
2020/01/31 08:40:38.1	312.650	0.210	0.050	0.540
2020/01/31 08:40:38.2	312.630	0.190	0.040	0.510
2020/01/31 08:40:38.3	312.620	0.180	0.020	0.490
2020/01/31 08:40:38.4	312.610	0.170	-0.000	0.460
2020/01/31 08:40:38.5	312.600	0.150	-0.020	0.420
2020/01/31 08:40:38.6	312.590	0.140	-0.050	0.390
2020/01/31 08:40:38.7	312.580	0.130	-0.080	0.350
2020/01/31 08:40:38.8	312.580	0.110	-0.110	0.320
2020/01/31 08:40:38.9	312.580	0.100	-0.140	0.280
2020/01/31 08:40:39.0	312.580	0.080	-0.170	0.230
2020/01/31 08:40:39.1	312.580	0.070	-0.210	0.190
2020/01/31 08:40:39.2	312.590	0.050	-0.240	0.140
2020/01/31 08:40:39.3	312.600	0.040	-0.280	0.090
2020/01/31 08:40:39.4	312.600	0.030	-0.310	0.040
2020/01/31 08:40:39.5	312.610	0.010	-0.350	-0.010
2020/01/31 08:40:39.6	312.620	-0.000	-0.390	-0.060
2020/01/31 08:40:39.7	312.630	-0.010	-0.420	-0.110
2020/01/31 08:40:39.8	312.650	-0.030	-0.450	-0.160
2020/01/31 08:40:39.9	312.670	-0.040	-0.480	-0.210
2020/01/31 08:40:40.0	312.680	-0.050	-0.510	-0.260
2020/01/31 08:40:40.1	312.700	-0.070	-0.540	-0.300
2020/01/31 08:40:40.2	312.720	-0.080	-0.560	-0.350
2020/01/31 08:40:40.3	312.740	-0.090	-0.580	-0.390
2020/01/31 08:40:40.4	312.770	-0.100	-0.590	-0.430
2020/01/31 08:40:40.5	312.790	-0.120	-0.600	-0.460
2020/01/31 08:40:40.6	312.800	-0.130	-0.610	-0.490
2020/01/31 08:40:40.7	312.820	-0.140	-0.610	-0.520
2020/01/31 08:40:40.8	312.840	-0.150	-0.600	-0.540
2020/01/31 08:40:40.9	312.850	-0.160	-0.590	-0.560
2020/01/31 08:40:41.0	312.870	-0.170	-0.580	-0.570
2020/01/31 08:40:41.1	312.880	-0.180	-0.560	-0.580
2020/01/31 08:40:41.2	312.890	-0.190	-0.540	-0.580
2020/01/31 08:40:41.3	312.900	-0.200	-0.510	-0.580
2020/01/31 08:40:41.4	312.900	-0.210	-0.480	-0.570
2020/01/31 08:40:41.5	312.910	-0.220	-0.450	-0.560
2020/01/31 08:40:41.6	312.910	-0.230	-0.410	-0.550
2020/01/31 08:40:41.7	312.910	-0.240	-0.380	-0.530
2020/01/31 08:40:41.8	312.910	-0.250	-0.340	-0.500
2020/01/31 08:40:41.9	312.910	-0.250	-0.300	-0.480
2020/01/31 08:40:42.0	312.900	-0.260	-0.260	-0.450
2020/01/31 08:40:42.1	312.890	-0.270	-0.220	-0.410
2020/01/31 08:40:42.2	312.890	-0.270	-0.190	-0.380
2020/01/31 08:40:42.3	312.880	-0.280	-0.150	-0.340
2020/01/31 08:40:42.4	312.870	-0.280	-0.120	-0.290
2020/01/31 08:40:42.5	312.860	-0.290	-0.090	-0.260
2020/01/31 08:40:42.6	312.850	-0.290	-0.060	-0.220
2020/01/31 08:40:42.7	312.830	-0.290	-0.040	-0.180
2020/01/31 08:40:42.8	312.820	-0.290	-0.020	-0.140
2020/01/31 08:40:42.9	312.810	-0.290	-0.000	-0.100
2020/01/31 08:40:43.0	312.790	-0.290	0.010	-0.060
2020/01/31 08:40:43.1	312.780	-0.290	0.020	-0.020
2020/01/31 08:40:43.2	312.770	-0.280	0.020	0.010
2020/01/31 08:40:43.3	312.760	-0.280	0.020	0.050
2020/01/31 08:40:43.4	312.750	-0.270	0.020	0.080
2020/01/31 08:40:43.5	312.740	-0.260	0.010	0.110
2020/01/31 08:40:43.6	312.730	-0.260	-0.000	0.130
2020/01/31 08:40:43.7	312.730	-0.250	-0.020	0.160
2020/01/31 08:40:43.8	312.730	-0.240	-0.040	0.180
2020/01/31 08:40:43.9	312.720	-0.230	-0.060	0.200
2020/01/31 08:40:44.0	312.720	-0.220	-0.080	0.210
2020/01/31 08:40:44.1	312.730	-0.200	-0.110	0.230
2020/01/31 08:40:44.2	312.730	-0.190	-0.140	0.240
2020/01/31 08:40:44.3	312.740	-0.180	-0.170	0.240
2020/01/31 08:40:44.4	312.750	-0.160	-0.200	0.250
2020/01/31 08:40:44.5	312.760	-0.150	-0.230	0.250
2020/01/31 08:40:44.6	312.770	-0.130	-0.260	0.250
2020/01/31 08:40:44.7	312.780	-0.120	-0.290	0.250
2020/01/31 08:40:44.8	312.790	-0.100	-0.310	0.250
2020/01/31 08:40:44.9	312.810	-0.090	-0.340	0.240
2020/01/31 08:40:45.0	312.820	-0.080	-0.360	0.230
2020/01/31 08:40:45.1	312.830	-0.060	-0.390	0.220
2020/01/31 08:40:45.2	312.840	-0.050	-0.410	0.210
2020/01/31 08:40:45.3	312.850	-0.040	-0.420	0.200
2020/01/31 08:40:45.4	312.850	-0.030	-0.430	0.190
2020/01/31 08:40:45.5	312.860	-0.020	-0.440	0.180
2020/01/31 08:40:45.6	312.870	-0.010	-0.450	0.170
2020/01/31 08:40:45.7	312.880	0.000	-0.450	0.160
2020/01/31 08:40:45.8	312.880	0.010	-0.460	0.150
2020/01/31 08:40:45.9	312.880	0.010	-0.450	0.140
2020/01/31 08:40:46.0	312.880	0.020	-0.450	0.130
2020/01/31 08:40:46.1	312.880	0.020	-0.440	0.120
2020/01/31 08:40:46.2	312.880	0.030	-0.430	0.110
2020/01/31 08:40:46.3	312.880	0.030	-0.420	0.100
2020/01/31 08:40:46.4	312.870	0.030	-0.410	0.090
2020/01/31 08:40:46.5	312.860	0.030	-0.390	0.090
2020/01/31 08:40:46.6	312.860	0.030	-0.370	0.080
2020/01/31 08:40:46.7	312.850	0.030	-0.360	0.070
2020/01/31 08:40:46.8	312.840	0.020	-0.340	0.070
2020/01/31 08:40:46.9	312.830	0.020	-0.320	0.060
2020/01/31 08:40:47.0	312.830	0.020	-0.310	0.050
2020/01/31 08:40:47.1	312.820	0.010	-0.290	0.050
2020/01/31 08:40:47.2	312.810	0.010	-0.280	0.040
2020/01/31 08:40:47.3	312.810	0.000	-0.270	0.030
2020/01/31 08:40:47.4	312.810	0.000	-0.260	0.030
2020/01/31 08:40:47.5	312.810	-0.000	-0.250	0.020
2020/01/31 08:40:47.6	312.800	-0.010	-0.240	0.020
2020/01/31 08:40:47.7	312.800	-0.010	-0.240	0.010
2020/01/31 08:40:47.8	312.800	-0.010	-0.240	0.010
2020/01/31 08:40:47.9	312.800	-0.010	-0.240	0.010
2020/01/31 08:40:48.0	312.810	-0.010	-0.240	0.000
2020/01/31 08:40:48.1	312.810	-0.020	-0.250	0.000
2020/01/31 08:40:48.2	312.810	-0.020	-0.250	0.000
2020/01/31 08:40:48.3	312.820	-0.020	-0.260	0.000
2020/01/31 08:40:48.4	312.830	-0.020	-0.270	0.010
2020/01/31 08:40:48.5	312.830	-0.020	-0.280	0.010
2020/01/31 08:40:48.6	312.840	-0.010	-0.290	0.020
2020/01/31 08:40:48.7	312.840	-0.010	-0.290	0.030
2020/01/31 08:40:48.8	312.850	-0.010	-0.300	0.040
2020/01/31 08:40:48.9	312.860	-0.010	-0.300	0.060
2020/01/31 08:40:49.0	312.860	-0.010	-0.300	0.070
2020/01/31 08:40:49.1	312.870	-0.010	-0.310	0.090
2020/01/31 08:40:49.2	312.870	-0.000	-0.310	0.110
2020/01/31 08:40:49.3	312.880	-0.000	-0.300	0.130
2020/01/31 08:40:49.4	312.890	-0.000	-0.300	0.160
2020/01/31 08:40:49.5	312.890	0.000	-0.290	0.190
2020/01/31 08:40:49.6	312.890	0.000	-0.290	0.220
2020/01/31 08:40:49.7	312.890	0.010	-0.280	0.250
2020/01/31 08:40:49.8	312.890	0.010	-0.270	0.280
2020/01/31 08:40:49.9	312.890	0.010	-0.260	0.320
2020/01/31 08:40:50.0	312.890	0.010	-0.240	0.350
2020/01/31 08:40:50.1	312.880	0.020	-0.230	0.390
2020/01/31 08:40:50.2	312.880	0.020	-0.210	0.430
2020/01/31 08:40:50.3	312.870	0.020	-0.200	0.470
2020/01/31 08:40:50.4	312.850	0.020	-0.180	0.510
2020/01/31 08:40:50.5	312.840	0.030	-0.170	0.550
2020/01/31 08:40:50.6	312.840	0.030	-0.150	0.590
2020/01/31 08:40:50.7	312.830	0.030	-0.140	0.620
2020/01/31 08:40:50.8	312.820	0.040	-0.120	0.660
2020/01/31 08:40:50.9	312.820	0.040	-0.110	0.690
2020/01/31 08:40:51.0	312.810	0.050	-0.100	0.720
2020/01/31 08:40:51.1	312.810	0.050	-0.090	0.750
2020/01/31 08:40:51.2	312.800	0.060	-0.080	0.780
2020/01/31 08:40:51.3	312.800	0.060	-0.070	0.800
2020/01/31 08:40:51.4	312.800	0.070	-0.060	0.820
2020/01/31 08:40:51.5	312.800	0.080	-0.060	0.840
2020/01/31 08:40:51.6	312.800	0.080	-0.050	0.850
2020/01/31 08:40:51.7	312.790	0.090	-0.050	0.860
2020/01/31 08:40:51.8	312.790	0.100	-0.050	0.870
2020/01/31 08:40:51.9	312.790	0.110	-0.050	0.880
2020/01/31 08:40:52.0	312.790	0.120	-0.050	0.880
2020/01/31 08:40:52.1	312.790	0.130	-0.060	0.890
2020/01/31 08:40:52.2	312.790	0.130	-0.060	0.890
2020/01/31 08:40:52.3	312.780	0.140	-0.060	0.880
2020/01/31 08:40:52.4	312.790	0.150	-0.070	0.880
2020/01/31 08:40:52.5	312.780	0.160	-0.070	0.870
2020/01/31 08:40:52.6	312.780	0.170	-0.080	0.870
2020/01/31 08:40:52.7	312.770	0.180	-0.090	0.860
2020/01/31 08:40:52.8	312.770	0.190	-0.090	0.850
2020/01/31 08:40:52.9	312.760	0.200	-0.100	0.830
2020/01/31 08:40:53.0	312.760	0.200	-0.110	0.810
2020/01/31 08:40:53.1	312.750	0.210	-0.120	0.800
2020/01/31 08:40:53.2	312.740	0.220	-0.130	0.780
2020/01/31 08:40:53.3	312.740	0.230	-0.140	0.750
2020/01/31 08:40:53.4	312.730	0.230	-0.150	0.730
2020/01/31 08:40:53.5	312.720	0.240	-0.160	0.700
2020/01/31 08:40:53.6	312.720	0.240	-0.170	0.670
2020/01/31 08:40:53.7	312.720	0.250	-0.190	0.640
2020/01/31 08:40:53.8	312.710	0.250	-0.200	0.610
2020/01/31 08:40:53.9	312.710	0.250	-0.210	0.570
2020/01/31 08:40:54.0	312.710	0.260	-0.220	0.540
2020/01/31 08:40:54.1	312.710	0.260	-0.240	0.500
2020/01/31 08:40:54.2	312.710	0.260	-0.250	0.460
2020/01/31 08:40:54.3	312.720	0.260	-0.260	0.410
2020/01/31 08:40:54.4	312.730	0.260	-0.280	0.370
2020/01/31 08:40:54.5	312.730	0.260	-0.290	0.320
2020/01/31 08:40:54.6	312.730	0.250	-0.300	0.280
2020/01/31 08:40:54.7	312.740	0.250	-0.310	0.230
2020/01/31 08:40:54.8	312.740	0.250	-0.330	0.180
2020/01/31 08:40:54.9	312.750	0.240	-0.340	0.140
2020/01/31 08:40:55.0	312.750	0.240	-0.350	0.090
2020/01/31 08:40:55.1	312.760	0.230	-0.360	0.040
2020/01/31 08:40:55.2	312.760	0.220	-0.370	-0.000
2020/01/31 08:40:55.3	312.770	0.210	-0.380	-0.050
2020/01/31 08:40:55.4	312.760	0.200	-0.390	-0.090
2020/01/31 08:40:55.5	312.760	0.190	-0.390	-0.140
2020/01/31 08:40:55.6	312.770	0.180	-0.400	-0.180
2020/01/31 08:40:55.7	312.780	0.170	-0.410	-0.220
2020/01/31 08:40:55.8	312.780	0.160	-0.410	-0.260
2020/01/31 08:40:55.9	312.790	0.150	-0.420	-0.290
2020/01/31 08:40:56.0	312.790	0.140	-0.420	-0.330
2020/01/31 08:40:56.1	312.800	0.130	-0.430	-0.360
2020/01/31 08:40:56.2	312.800	0.110	-0.430	-0.390
2020/01/31 08:40:56.3	312.810	0.100	-0.430	-0.420
2020/01/31 08:40:56.4	312.800	0.080	-0.430	-0.450
2020/01/31 08:40:56.5	312.800	0.070	-0.430	-0.470
2020/01/31 08:40:56.6	312.810	0.050	-0.420	-0.490
2020/01/31 08:40:56.7	312.810	0.040	-0.420	-0.510
2020/01/31 08:40:56.8	312.810	0.020	-0.410	-0.520
2020/01/31 08:40:56.9	312.800	0.010	-0.400	-0.530
2020/01/31 08:40:57.0	312.800	-0.010	-0.390	-0.540
2020/01/31 08:40:57.1	312.800	-0.030	-0.380	-0.540
2020/01/31 08:40:57.2	312.790	-0.040	-0.370	-0.540
2020/01/31 08:40:57.3	312.790	-0.060	-0.350	-0.540
2020/01/31 08:40:57.4	312.780	-0.080	-0.340	-0.530
2020/01/31 08:40:57.5	312.770	-0.100	-0.320	-0.520
2020/01/31 08:40:57.6	312.760	-0.110	-0.300	-0.510
2020/01/31 08:40:57.7	312.750	-0.130	-0.280	-0.500
2020/01/31 08:40:57.8	312.750	-0.150	-0.260	-0.480
2020/01/31 08:40:57.9	312.740	-0.170	-0.230	-0.460
2020/01/31 08:40:58.0	312.730	-0.190	-0.210	-0.450
2020/01/31 08:40:58.1	312.720	-0.200	-0.190	-0.430
2020/01/31 08:40:58.2	312.710	-0.220	-0.160	-0.410
2020/01/31 08:40:58.3	312.700	-0.240	-0.140	-0.380
2020/01/31 08:40:58.4	312.700	-0.260	-0.120	-0.360
2020/01/31 08:40:58.5	312.690	-0.270	-0.100	-0.340
2020/01/31 08:40:58.6	312.690	-0.290	-0.080	-0.310
2020/01/31 08:40:58.7	312.680	-0.300	-0.060	-0.290
2020/01/31 08:40:58.8	312.670	-0.320	-0.040	-0.260
2020/01/31 08:40:58.9	312.670	-0.330	-0.020	-0.240
2020/01/31 08:40:59.0	312.670	-0.340	-0.000	-0.210
2020/01/31 08:40:59.1	312.660	-0.350	0.010	-0.190
2020/01/31 08:40:59.2	312.660	-0.360	0.020	-0.160
2020/01/31 08:40:59.3	312.660	-0.370	0.040	-0.140
2020/01/31 08:40:59.4	312.660	-0.380	0.060	-0.110
2020/01/31 08:40:59.5	312.660	-0.380	0.060	-0.080
2020/01/31 08:40:59.6	312.650	-0.380	0.070	-0.050
2020/01/31 08:40:59.7	312.650	-0.390	0.070	-0.020
2020/01/31 08:40:59.8	312.650	-0.390	0.070	0.010
2020/01/31 08:40:59.9	312.640	-0.390	0.070	0.040
2020/01/31 08:41:00.0	312.640	-0.380	0.060	0.070
2020/01/31 08:41:00.1	312.630	-0.380	0.060	0.100
2020/01/31 08:41:00.2	312.630	-0.370	0.050	0.130
2020/01/31 08:41:00.3	312.620	-0.360	0.030	0.160
2020/01/31 08:41:00.4	312.620	-0.350	0.010	0.200
2020/01/31 08:41:00.5	312.610	-0.340	-0.010	0.230
2020/01/31 08:41:00.6	312.610	-0.330	-0.030	0.260
2020/01/31 08:41:00.7	312.600	-0.320	-0.050	0.280
2020/01/31 08:41:00.8	312.590	-0.300	-0.080	0.310
2020/01/31 08:41:00.9	312.590	-0.280	-0.110	0.340
2020/01/31 08:41:01.0	312.580	-0.260	-0.140	0.360
2020/01/31 08:41:01.1	312.570	-0.240	-0.170	0.380
2020/01/31 08:41:01.2	312.560	-0.220	-0.200	0.410
2020/01/31 08:41:01.3	312.560	-0.200	-0.230	0.430
2020/01/31 08:41:01.4	312.550	-0.170	-0.270	0.450
2020/01/31 08:41:01.5	312.540	-0.150	-0.300	0.470
2020/01/31 08:41:01.6	312.540	-0.120	-0.340	0.490
2020/01/31 08:41:01.7	312.530	-0.100	-0.370	0.510
2020/01/31 08:41:01.8	312.520	-0.070	-0.410	0.530
2020/01/31 08:41:01.9	312.520	-0.040	-0.440	0.550
2020/01/31 08:41:02.0	312.510	-0.010	-0.480	0.560
2020/01/31 08:41:02.1	312.510	0.020	-0.510	0.580
2020/01/31 08:41:02.2	312.500	0.040	-0.540	0.590
2020/01/31 08:41:02.3	312.500	0.070	-0.570	0.610
2020/01/31 08:41:02.4	312.500	0.100	-0.590	0.620
2020/01/31 08:41:02.5	312.500	0.130	-0.610	0.630
2020/01/31 08:41:02.6	312.500	0.150	-0.640	0.640
2020/01/31 08:41:02.7	312.500	0.180	-0.660	0.650
2020/01/31 08:41:02.8	312.500	0.200	-0.670	0.660
2020/01/31 08:41:02.9	312.510	0.230	-0.690	0.670
2020/01/31 08:41:03.0	312.510	0.250	-0.700	0.670
2020/01/31 08:41:03.1	312.510	0.260	-0.700	0.670
2020/01/31 08:41:03.2	312.520	0.280	-0.710	0.680
2020/01/31 08:41:03.3	312.520	0.300	-0.710	0.680
2020/01/31 08:41:03.4	312.520	0.310	-0.700	0.680
2020/01/31 08:41:03.5	312.530	0.320	-0.700	0.670
2020/01/31 08:41:03.6	312.540	0.330	-0.690	0.670
2020/01/31 08:41:03.7	312.540	0.330	-0.680	0.660
2020/01/31 08:41:03.8	312.550	0.330	-0.660	0.650
2020/01/31 08:41:03.9	312.560	0.330	-0.640	0.640
2020/01/31 08:41:04.0	312.570	0.330	-0.620	0.630
2020/01/31 08:41:04.1	312.570	0.320	-0.590	0.610
2020/01/31 08:41:04.2	312.580	0.310	-0.560	0.600
2020/01/31 08:41:04.3	312.590	0.300	-0.530	0.580
2020/01/31 08:41:04.4	312.600	0.280	-0.500	0.560
2020/01/31 08:41:04.5	312.610	0.260	-0.460	0.550
2020/01/31 08:41:04.6	312.610	0.240	-0.430	0.530
2020/01/31 08:41:04.7	312.620	0.220	-0.390	0.510
2020/01/31 08:41:04.8	312.620	0.190	-0.340	0.490
2020/01/31 08:41:04.9	312.620	0.160	-0.300	0.470
2020/01/31 08:41:05.0	312.620	0.130	-0.260	0.450
2020/01/31 08:41:05.1	312.620	0.100	-0.210	0.430
2020/01/31 08:41:05.2	312.620	0.070	-0.160	0.400
2020/01/31 08:41:05.3	312.620	0.030	-0.120	0.380
2020/01/31 08:41:05.4	312.610	-0.000	-0.070	0.360
2020/01/31 08:41:05.5	312.610	-0.040	-0.030	0.340
2020/01/31 08:41:05.6	312.610	-0.080	0.020	0.310
2020/01/31 08:41:05.7	312.600	-0.110	0.060	0.290
2020/01/31 08:41:05.8	312.590	-0.150	0.100	0.270
2020/01/31 08:41:05.9	312.590	-0.190	0.150	0.240
2020/01/31 08:41:06.0	312.580	-0.220	0.180	0.220
2020/01/31 08:41:06.1	312.570	-0.250	0.220	0.200
2020/01/31 08:41:06.2	312.560	-0.280	0.250	0.170
2020/01/31 08:41:06.3	312.550	-0.310	0.280	0.150
2020/01/31 08:41:06.4	312.540	-0.340	0.310	0.130
2020/01/31 08:41:06.5	312.530	-0.360	0.330	0.110
2020/01/31 08:41:06.6	312.520	-0.390	0.350	0.090
2020/01/31 08:41:06.7	312.510	-0.400	0.370	0.080
2020/01/31 08:41:06.8	312.500	-0.420	0.380	0.060
2020/01/31 08:41:06.9	312.490	-0.430	0.390	0.050
2020/01/31 08:41:07.0	312.480	-0.440	0.400	0.040
2020/01/31 08:41:07.1	312.470	-0.440	0.400	0.030
2020/01/31 08:41:07.2	312.460	-0.440	0.400	0.020
2020/01/31 08:41:07.3	312.450	-0.440	0.390	0.010
2020/01/31 08:41:07.4	312.450	-0.440	0.380	0.010
2020/01/31 08:41:07.5	312.440	-0.430	0.360	0.010
2020/01/31 08:41:07.6	312.430	-0.410	0.340	0.010
2020/01/31 08:41:07.7	312.420	-0.400	0.320	0.010
2020/01/31 08:41:07.8	312.410	-0.380	0.300	0.010
2020/01/31 08:41:07.9	312.400	-0.350	0.270	0.020
2020/01/31 08:41:08.0	312.390	-0.330	0.230	0.020
2020/01/31 08:41:08.1	312.380	-0.300	0.200	0.030
2020/01/31 08:41:08.2	312.370	-0.270	0.160	0.040
2020/01/31 08:41:08.3	312.360	-0.240	0.120	0.050
2020/01/31 08:41:08.4	312.360	-0.210	0.080	0.060
2020/01/31 08:41:08.5	312.350	-0.170	0.030	0.080
2020/01/31 08:41:08.6	312.340	-0.140	-0.020	0.090
2020/01/31 08:41:08.7	312.320	-0.100	-0.060	0.110
2020/01/31 08:41:08.8	312.310	-0.060	-0.110	0.130
2020/01/31 08:41:08.9	312.300	-0.020	-0.160	0.150
2020/01/31 08:41:09.0	312.280	0.020	-0.210	0.170
2020/01/31 08:41:09.1	312.270	0.050	-0.260	0.190
2020/01/31 08:41:09.2	312.250	0.090	-0.310	0.220
2020/01/31 08:41:09.3	312.240	0.130	-0.350	0.240
2020/01/31 08:41:09.4	312.240	0.170	-0.400	0.260
2020/01/31 08:41:09.5	312.220	0.200	-0.440	0.280
2020/01/31 08:41:09.6	312.210	0.230	-0.490	0.300
2020/01/31 08:41:09.7	312.200	0.270	-0.530	0.320
2020/01/31 08:41:09.8	312.180	0.300	-0.570	0.340
2020/01/31 08:41:09.9	312.170	0.330	-0.600	0.360
2020/01/31 08:41:10.0	312.160	0.360	-0.640	0.370
2020/01/31 08:41:10.1	312.150	0.380	-0.670	0.390
2020/01/31 08:41:10.2	312.140	0.400	-0.700	0.400
2020/01/31 08:41:10.3	312.140	0.430	-0.720	0.410
2020/01/31 08:41:10.4	312.120	0.440	-0.740	0.420
2020/01/31 08:41:10.5	312.120	0.460	-0.760	0.420
2020/01/31 08:41:10.6	312.120	0.480	-0.780	0.430
2020/01/31 08:41:10.7	312.120	0.490	-0.790	0.440
2020/01/31 08:41:10.8	312.130	0.500	-0.800	0.440
2020/01/31 08:41:10.9	312.130	0.500	-0.800	0.440
2020/01/31 08:41:11.0	312.140	0.510	-0.800	0.440
2020/01/31 08:41:11.1	312.150	0.510	-0.800	0.440
2020/01/31 08:41:11.2	312.160	0.510	-0.800	0.440
2020/01/31 08:41:11.3	312.170	0.500	-0.790	0.440
2020/01/31 08:41:11.4	312.180	0.500	-0.780	0.440
2020/01/31 08:41:11.5	312.200	0.490	-0.760	0.430
2020/01/31 08:41:11.6	312.210	0.480	-0.740	0.430
2020/01/31 08:41:11.7	312.220	0.460	-0.720	0.420
2020/01/31 08:41:11.8	312.240	0.450	-0.700	0.410
2020/01/31 08:41:11.9	312.250	0.430	-0.670	0.410
2020/01/31 08:41:12.0	312.270	0.410	-0.650	0.400
2020/01/31 08:41:12.1	312.280	0.390	-0.620	0.390
2020/01/31 08:41:12.2	312.300	0.370	-0.590	0.380
2020/01/31 08:41:12.3	312.310	0.340	-0.560	0.370
2020/01/31 08:41:12.4	312.330	0.320	-0.520	0.350
2020/01/31 08:41:12.5	312.340	0.290	-0.490	0.340
2020/01/31 08:41:12.6	312.360	0.270	-0.460	0.330
2020/01/31 08:41:12.7	312.370	0.240	-0.430	0.310
2020/01/31 08:41:12.8	312.390	0.210	-0.390	0.300
2020/01/31 08:41:12.9	312.400	0.190	-0.360	0.290
2020/01/31 08:41:13.0	312.420	0.160	-0.330	0.270
2020/01/31 08:41:13.1	312.430	0.130	-0.300	0.250
2020/01/31 08:41:13.2	312.440	0.110	-0.270	0.240
2020/01/31 08:41:13.3	312.450	0.080	-0.250	0.220
2020/01/31 08:41:13.4	312.460	0.050	-0.230	0.200
2020/01/31 08:41:13.5	312.470	0.030	-0.200	0.180
2020/01/31 08:41:13.6	312.480	0.000	-0.180	0.170
2020/01/31 08:41:13.7	312.490	-0.020	-0.160	0.150
2020/01/31 08:41:13.8	312.490	-0.040	-0.140	0.130
2020/01/31 08:41:13.9	312.500	-0.060	-0.130	0.110
2020/01/31 08:41:14.0	312.500	-0.080	-0.120	0.080
2020/01/31 08:41:14.1	312.500	-0.100	-0.100	0.060
2020/01/31 08:41:14.2	312.500	-0.120	-0.100	0.040
2020/01/31 08:41:14.3	312.500	-0.140	-0.090	0.020
2020/01/31 08:41:14.4	312.500	-0.150	-0.080	-0.000
2020/01/31 08:41:14.5	312.500	-0.170	-0.080	-0.030
2020/01/31 08:41:14.6	312.490	-0.180	-0.070	-0.050
2020/01/31 08:41:14.7	312.490	-0.200	-0.070	-0.070
2020/01/31 08:41:14.8	312.490	-0.210	-0.080	-0.090
2020/01/31 08:41:14.9	312.480	-0.220	-0.080	-0.110
2020/01/31 08:41:15.0	312.480	-0.230	-0.080	-0.130
2020/01/31 08:41:15.1	312.470	-0.240	-0.080	-0.150
2020/01/31 08:41:15.2	312.470	-0.240	-0.090	-0.170
2020/01/31 08:41:15.3	312.460	-0.250	-0.090	-0.190
2020/01/31 08:41:15.4	312.450	-0.260	-0.090	-0.210
2020/01/31 08:41:15.5	312.440	-0.260	-0.100	-0.220
2020/01/31 08:41:15.6	312.440	-0.260	-0.100	-0.240
2020/01/31 08:41:15.7	312.430	-0.270	-0.100	-0.250
2020/01/31 08:41:15.8	312.420	-0.270	-0.100	-0.270
2020/01/31 08:41:15.9	312.410	-0.270	-0.100	-0.280
2020/01/31 08:41:16.0	312.400	-0.270	-0.100	-0.290
2020/01/31 08:41:16.1	312.390	-0.280	-0.100	-0.300
2020/01/31 08:41:16.2	312.380	-0.280	-0.090	-0.310
2020/01/31 08:41:16.3	312.370	-0.280	-0.090	-0.310
2020/01/31 08:41:16.4	312.350	-0.280	-0.080	-0.310
2020/01/31 08:41:16.5	312.340	-0.280	-0.080	-0.310
2020/01/31 08:41:16.6	312.320	-0.280	-0.070	-0.300
2020/01/31 08:41:16.7	312.310	-0.280	-0.060	-0.300
2020/01/31 08:41:16.8	312.300	-0.270	-0.040	-0.290
2020/01/31 08:41:16.9	312.280	-0.270	-0.030	-0.270
2020/01/31 08:41:17.0	312.270	-0.270	-0.020	-0.260
2020/01/31 08:41:17.1	312.250	-0.270	-0.000	-0.240
2020/01/31 08:41:17.2	312.240	-0.270	0.010	-0.220
2020/01/31 08:41:17.3	312.220	-0.270	0.030	-0.190
2020/01/31 08:41:17.4	312.200	-0.270	0.040	-0.170
2020/01/31 08:41:17.5	312.190	-0.260	0.050	-0.140
2020/01/31 08:41:17.6	312.170	-0.260	0.070	-0.110
2020/01/31 08:41:17.7	312.160	-0.260	0.080	-0.080
2020/01/31 08:41:17.8	312.150	-0.260	0.090	-0.050
2020/01/31 08:41:17.9	312.130	-0.250	0.100	-0.020
2020/01/31 08:41:18.0	312.120	-0.250	0.100	0.010
2020/01/31 08:41:18.1	312.110	-0.250	0.110	0.040
2020/01/31 08:41:18.2	312.100	-0.240	0.110	0.070
2020/01/31 08:41:18.3	312.090	-0.240	0.110	0.100
2020/01/31 08:41:18.4	312.090	-0.240	0.110	0.130
2020/01/31 08:41:18.5	312.080	-0.230	0.100	0.160
2020/01/31 08:41:18.6	312.080	-0.230	0.100	0.190
2020/01/31 08:41:18.7	312.070	-0.220	0.090	0.220
2020/01/31 08:41:18.8	312.060	-0.210	0.080	0.240
2020/01/31 08:41:18.9	312.060	-0.210	0.070	0.270
2020/01/31 08:41:19.0	312.050	-0.200	0.060	0.300
2020/01/31 08:41:19.1	312.040	-0.190	0.050	0.320
2020/01/31 08:41:19.2	312.040	-0.190	0.030	0.350
2020/01/31 08:41:19.3	312.030	-0.180	0.020	0.380
2020/01/31 08:41:19.4	312.020	-0.170	0.000	0.400
2020/01/31 08:41:19.5	312.020	-0.160	-0.010	0.430
2020/01/31 08:41:19.6	312.010	-0.160	-0.030	0.460
2020/01/31 08:41:19.7	312.000	-0.150	-0.040	0.480
2020/01/31 08:41:19.8	311.990	-0.140	-0.060	0.510
2020/01/31 08:41:19.9	311.980	-0.130	-0.080	0.530
2020/01/31 08:41:20.0	311.970	-0.120	-0.090	0.560
2020/01/31 08:41:20.1	311.950	-0.110	-0.110	0.590
2020/01/31 08:41:20.2	311.940	-0.110	-0.120	0.610
2020/01/31 08:41:20.3	311.930	-0.100	-0.140	0.640
2020/01/31 08:41:20.4	311.910	-0.090	-0.160	0.660
2020/01/31 08:41:20.5	311.890	-0.080	-0.170	0.680
2020/01/31 08:41:20.6	311.880	-0.070	-0.190	0.710
2020/01/31 08:41:20.7	311.870	-0.060	-0.200	0.730
2020/01/31 08:41:20.8	311.850	-0.050	-0.220	0.740
2020/01/31 08:41:20.9	311.840	-0.040	-0.230	0.760
2020/01/31 08:41:21.0	311.830	-0.030	-0.250	0.770
2020/01/31 08:41:21.1	311.820	-0.020	-0.270	0.790
2020/01/31 08:41:21.2	311.810	-0.010	-0.290	0.790
2020/01/31 08:41:21.3	311.800	-0.000	-0.310	0.800
2020/01/31 08:41:21.4	311.800	0.010	-0.330	0.800
2020/01/31 08:41:21.5	311.800	0.020	-0.350	0.800
2020/01/31 08:41:21.6	311.800	0.030	-0.370	0.790
2020/01/31 08:41:21.7	311.800	0.040	-0.400	0.790
2020/01/31 08:41:21.8	311.810	0.050	-0.420	0.770
2020/01/31 08:41:21.9	311.820	0.060	-0.450	0.760
2020/01/31 08:41:22.0	311.830	0.070	-0.480	0.740
2020/01/31 08:41:22.1	311.850	0.080	-0.500	0.720
2020/01/31 08:41:22.2	311.870	0.090	-0.530	0.690
2020/01/31 08:41:22.3	311.890	0.100	-0.560	0.670
2020/01/31 08:41:22.4	311.910	0.110	-0.580	0.630
2020/01/31 08:41:22.5	311.930	0.120	-0.610	0.610
2020/01/31 08:41:22.6	311.960	0.130	-0.630	0.580
2020/01/31 08:41:22.7	311.980	0.130	-0.650	0.550
2020/01/31 08:41:22.8	312.010	0.140	-0.670	0.510
2020/01/31 08:41:22.9	312.040	0.150	-0.690	0.480
2020/01/31 08:41:23.0	312.060	0.150	-0.700	0.450
2020/01/31 08:41:23.1	312.090	0.160	-0.710	0.420
2020/01/31 08:41:23.2	312.120	0.160	-0.720	0.400
2020/01/31 08:41:23.3	312.140	0.170	-0.730	0.370
2020/01/31 08:41:23.4	312.160	0.170	-0.730	0.340
2020/01/31 08:41:23.5	312.180	0.170	-0.730	0.320
2020/01/31 08:41:23.6	312.200	0.170	-0.730	0.290
2020/01/31 08:41:23.7	312.220	0.180	-0.730	0.270
2020/01/31 08:41:23.8	312.240	0.180	-0.720	0.250
2020/01/31 08:41:23.9	312.260	0.180	-0.710	0.230
2020/01/31 08:41:24.0	312.280	0.180	-0.700	0.210
2020/01/31 08:41:24.1	312.300	0.180	-0.690	0.200
2020/01/31 08:41:24.2	312.310	0.180	-0.680	0.180
2020/01/31 08:41:24.3	312.330	0.180	-0.660	0.170
2020/01/31 08:41:24.4	312.350	0.180	-0.640	0.160
2020/01/31 08:41:24.5	312.370	0.180	-0.630	0.150
2020/01/31 08:41:24.6	312.380	0.180	-0.610	0.140
2020/01/31 08:41:24.7	312.390	0.180	-0.590	0.130
2020/01/31 08:41:24.8	312.400	0.180	-0.560	0.120
2020/01/31 08:41:24.9	312.410	0.180	-0.540	0.120
2020/01/31 08:41:25.0	312.420	0.180	-0.520	0.120
2020/01/31 08:41:25.1	312.430	0.190	-0.500	0.110
2020/01/31 08:41:25.2	312.440	0.190	-0.480	0.110
2020/01/31 08:41:25.3	312.450	0.200	-0.450	0.110
2020/01/31 08:41:25.4	312.460	0.200	-0.430	0.110
2020/01/31 08:41:25.5	312.470	0.210	-0.410	0.110
2020/01/31 08:41:25.6	312.470	0.210	-0.380	0.110
2020/01/31 08:41:25.7	312.480	0.220	-0.360	0.110
2020/01/31 08:41:25.8	312.480	0.220	-0.330	0.120
2020/01/31 08:41:25.9	312.490	0.230	-0.310	0.120
2020/01/31 08:41:26.0	312.490	0.230	-0.290	0.120
2020/01/31 08:41:26.1	312.490	0.240	-0.260	0.130
2020/01/31 08:41:26.2	312.490	0.250	-0.240	0.130
2020/01/31 08:41:26.3	312.490	0.250	-0.220	0.130
2020/01/31 08:41:26.4	312.480	0.250	-0.190	0.140
2020/01/31 08:41:26.5	312.480	0.250	-0.170	0.140
2020/01/31 08:41:26.6	312.480	0.260	-0.150	0.150
2020/01/31 08:41:26.7	312.480	0.250	-0.130	0.150
2020/01/31 08:41:26.8	312.480	0.250	-0.110	0.160
2020/01/31 08:41:26.9	312.470	0.250	-0.080	0.160
2020/01/31 08:41:27.0	312.470	0.240	-0.060	0.170
2020/01/31 08:41:27.1	312.460	0.230	-0.040	0.180
2020/01/31 08:41:27.2	312.460	0.230	-0.020	0.190
2020/01/31 08:41:27.3	312.450	0.210	-0.000	0.190
2020/01/31 08:41:27.4	312.440	0.200	0.020	0.200
2020/01/31 08:41:27.5	312.430	0.190	0.040	0.210
2020/01/31 08:41:27.6	312.420	0.170	0.060	0.220
2020/01/31 08:41:27.7	312.410	0.150	0.070	0.230
2020/01/31 08:41:27.8	312.390	0.130	0.090	0.240
2020/01/31 08:41:27.9	312.380	0.110	0.110	0.250
2020/01/31 08:41:28.0	312.360	0.080	0.130	0.270
2020/01/31 08:41:28.1	312.340	0.060	0.140	0.280
2020/01/31 08:41:28.2	312.320	0.030	0.160	0.290
2020/01/31 08:41:28.3	312.290	0.010	0.180	0.300
2020/01/31 08:41:28.4	312.260	-0.020	0.200	0.310
2020/01/31 08:41:28.5	312.240	-0.050	0.210	0.320
2020/01/31 08:41:28.6	312.210	-0.080	0.220	0.330
2020/01/31 08:41:28.7	312.180	-0.100	0.240	0.350
2020/01/31 08:41:28.8	312.160	-0.130	0.250	0.360
2020/01/31 08:41:28.9	312.130	-0.160	0.260	0.370
2020/01/31 08:41:29.0	312.100	-0.180	0.270	0.380
2020/01/31 08:41:29.1	312.070	-0.210	0.270	0.390
2020/01/31 08:41:29.2	312.040	-0.230	0.280	0.400
2020/01/31 08:41:29.3	312.010	-0.250	0.280	0.420
2020/01/31 08:41:29.4	311.980	-0.270	0.280	0.430
2020/01/31 08:41:29.5	311.950	-0.280	0.280	0.430
2020/01/31 08:41:29.6	311.920	-0.300	0.270	0.440
2020/01/31 08:41:29.7	311.900	-0.310	0.260	0.450
2020/01/31 08:41:29.8	311.870	-0.320	0.250	0.450
2020/01/31 08:41:29.9	311.840	-0.330	0.230	0.460
2020/01/31 08:41:30.0	311.820	-0.340	0.210	0.460
2020/01/31 08:41:30.1	311.800	-0.340	0.190	0.460
2020/01/31 08:41:30.2	311.780	-0.340	0.160	0.460
2020/01/31 08:41:30.3	311.760	-0.340	0.140	0.460
2020/01/31 08:41:30.4	311.740	-0.340	0.100	0.460
2020/01/31 08:41:30.5	311.720	-0.330	0.070	0.450
2020/01/31 08:41:30.6	311.710	-0.330	0.030	0.450
2020/01/31 08:41:30.7	311.690	-0.320	-0.010	0.450
2020/01/31 08:41:30.8	311.680	-0.300	-0.060	0.440
2020/01/31 08:41:30.9	311.670	-0.290	-0.100	0.440
2020/01/31 08:41:31.0	311.660	-0.270	-0.150	0.440
2020/01/31 08:41:31.1	311.650	-0.260	-0.200	0.430
2020/01/31 08:41:31.2	311.640	-0.240	-0.250	0.430
2020/01/31 08:41:31.3	311.630	-0.220	-0.290	0.430
2020/01/31 08:41:31.4	311.640	-0.190	-0.340	0.420
2020/01/31 08:41:31.5	311.640	-0.170	-0.390	0.420
2020/01/31 08:41:31.6	311.640	-0.140	-0.440	0.420
2020/01/31 08:41:31.7	311.640	-0.120	-0.490	0.420
2020/01/31 08:41:31.8	311.640	-0.090	-0.530	0.420
2020/01/31 08:41:31.9	311.650	-0.070	-0.570	0.420
2020/01/31 08:41:32.0	311.650	-0.040	-0.610	0.420
2020/01/31 08:41:32.1	311.660	-0.010	-0.650	0.420
2020/01/31 08:41:32.2	311.680	0.010	-0.680	0.420
2020/01/31 08:41:32.3	311.690	0.040	-0.710	0.420
2020/01/31 08:41:32.4	311.700	0.060	-0.740	0.420
2020/01/31 08:41:32.5	311.710	0.080	-0.760	0.420
2020/01/31 08:41:32.6	311.730	0.110	-0.780	0.420
2020/01/31 08:41:32.7	311.750	0.130	-0.790	0.420
2020/01/31 08:41:32.8	311.770	0.140	-0.800	0.420
2020/01/31 08:41:32.9	311.790	0.160	-0.810	0.410
2020/01/31 08:41:33.0	311.810	0.170	-0.810	0.410
2020/01/31 08:41:33.1	311.840	0.190	-0.810	0.410
2020/01/31 08:41:33.2	311.860	0.200	-0.800	0.400
2020/01/31 08:41:33.3	311.880	0.210	-0.780	0.400
2020/01/31 08:41:33.4	311.900	0.210	-0.770	0.390
2020/01/31 08:41:33.5	311.930	0.220	-0.740	0.390
2020/01/31 08:41:33.6	311.950	0.220	-0.720	0.380
2020/01/31 08:41:33.7	311.970	0.220	-0.690	0.380
2020/01/31 08:41:33.8	311.990	0.210	-0.660	0.370
2020/01/31 08:41:33.9	312.020	0.210	-0.630	0.370
2020/01/31 08:41:34.0	312.040	0.200	-0.590	0.360
2020/01/31 08:41:34.1	312.060	0.200	-0.550	0.360
2020/01/31 08:41:34.2	312.080	0.190	-0.510	0.360
2020/01/31 08:41:34.3	312.100	0.170	-0.460	0.350
2020/01/31 08:41:34.4	312.130	0.160	-0.410	0.350
2020/01/31 08:41:34.5	312.150	0.150	-0.360	0.350
2020/01/31 08:41:34.6	312.160	0.130	-0.310	0.340
2020/01/31 08:41:34.7	312.180	0.120	-0.260	0.340
2020/01/31 08:41:34.8	312.190	0.100	-0.210	0.340
2020/01/31 08:41:34.9	312.200	0.080	-0.160	0.330
2020/01/31 08:41:35.0	312.200	0.070	-0.100	0.330
2020/01/31 08:41:35.1	312.210	0.050	-0.050	0.330
2020/01/31 08:41:35.2	312.210	0.030	-0.000	0.320
2020/01/31 08:41:35.3	312.220	0.010	0.050	0.320
2020/01/31 08:41:35.4	312.220	-0.010	0.090	0.320
2020/01/31 08:41:35.5	312.210	-0.030	0.140	0.310
2020/01/31 08:41:35.6	312.210	-0.050	0.170	0.310
2020/01/31 08:41:35.7	312.210	-0.060	0.210	0.300
2020/01/31 08:41:35.8	312.200	-0.080	0.240	0.290
2020/01/31 08:41:35.9	312.200	-0.100	0.270	0.280
2020/01/31 08:41:36.0	312.190	-0.110	0.290	0.270
2020/01/31 08:41:36.1	312.180	-0.130	0.310	0.260
2020/01/31 08:41:36.2	312.180	-0.140	0.320	0.250
2020/01/31 08:41:36.3	312.170	-0.150	0.320	0.230
2020/01/31 08:41:36.4	312.170	-0.160	0.320	0.220
2020/01/31 08:41:36.5	312.160	-0.170	0.320	0.200
2020/01/31 08:41:36.6	312.160	-0.180	0.310	0.190
2020/01/31 08:41:36.7	312.150	-0.190	0.290	0.170
2020/01/31 08:41:36.8	312.150	-0.190	0.280	0.150
2020/01/31 08:41:36.9	312.140	-0.190	0.250	0.140
2020/01/31 08:41:37.0	312.130	-0.200	0.230	0.120
2020/01/31 08:41:37.1	312.130	-0.200	0.200	0.100
2020/01/31 08:41:37.2	312.120	-0.190	0.160	0.090
2020/01/31 08:41:37.3	312.110	-0.190	0.130	0.070
2020/01/31 08:41:37.4	312.100	-0.190	0.090	0.050
2020/01/31 08:41:37.5	312.090	-0.180	0.050	0.030
2020/01/31 08:41:37.6	312.080	-0.170	0.000	0.020
2020/01/31 08:41:37.7	312.070	-0.160	-0.040	0.000
2020/01/31 08:41:37.8	312.060	-0.150	-0.080	-0.010
2020/01/31 08:41:37.9	312.050	-0.140	-0.130	-0.030
2020/01/31 08:41:38.0	312.040	-0.130	-0.170	-0.040
2020/01/31 08:41:38.1	312.020	-0.120	-0.210	-0.050
2020/01/31 08:41:38.2	312.010	-0.100	-0.250	-0.060
2020/01/31 08:41:38.3	311.990	-0.090	-0.290	-0.070
2020/01/31 08:41:38.4	311.980	-0.080	-0.330	-0.080
2020/01/31 08:41:38.5	311.970	-0.060	-0.370	-0.090
2020/01/31 08:41:38.6	311.950	-0.050	-0.400	-0.090
2020/01/31 08:41:38.7	311.930	-0.030	-0.430	-0.090
2020/01/31 08:41:38.8	311.910	-0.020	-0.450	-0.100
2020/01/31 08:41:38.9	311.890	-0.000	-0.480	-0.100
2020/01/31 08:41:39.0	311.870	0.010	-0.500	-0.100
2020/01/31 08:41:39.1	311.850	0.020	-0.510	-0.110
2020/01/31 08:41:39.2	311.840	0.030	-0.530	-0.110
2020/01/31 08:41:39.3	311.820	0.040	-0.540	-0.110
2020/01/31 08:41:39.4	311.820	0.050	-0.550	-0.110
2020/01/31 08:41:39.5	311.800	0.060	-0.560	-0.120
2020/01/31 08:41:39.6	311.790	0.070	-0.570	-0.120
2020/01/31 08:41:39.7	311.780	0.070	-0.570	-0.130
2020/01/31 08:41:39.8	311.770	0.080	-0.580	-0.140
2020/01/31 08:41:39.9	311.760	0.080	-0.580	-0.150
2020/01/31 08:41:40.0	311.760	0.090	-0.570	-0.170
2020/01/31 08:41:40.1	311.760	0.090	-0.570	-0.180
2020/01/31 08:41:40.2	311.760	0.090	-0.570	-0.200
2020/01/31 08:41:40.3	311.770	0.090	-0.560	-0.210
2020/01/31 08:41:40.4	311.760	0.080	-0.560	-0.230
2020/01/31 08:41:40.5	311.770	0.080	-0.550	-0.250
2020/01/31 08:41:40.6	311.780	0.080	-0.540	-0.270
2020/01/31 08:41:40.7	311.800	0.070	-0.530	-0.300
2020/01/31 08:41:40.8	311.810	0.070	-0.520	-0.320
2020/01/31 08:41:40.9	311.830	0.060	-0.510	-0.340
2020/01/31 08:41:41.0	311.850	0.050	-0.500	-0.360
2020/01/31 08:41:41.1	311.870	0.040	-0.480	-0.390
2020/01/31 08:41:41.2	311.890	0.040	-0.470	-0.410
2020/01/31 08:41:41.3	311.910	0.030	-0.450	-0.420
2020/01/31 08:41:41.4	311.930	0.020	-0.440	-0.440
2020/01/31 08:41:41.5	311.950	0.010	-0.430	-0.460
2020/01/31 08:41:41.6	311.970	-0.000	-0.410	-0.470
2020/01/31 08:41:41.7	311.990	-0.020	-0.390	-0.480
2020/01/31 08:41:41.8	312.010	-0.030	-0.380	-0.490
2020/01/31 08:41:41.9	312.030	-0.040	-0.360	-0.500
2020/01/31 08:41:42.0	312.050	-0.050	-0.350	-0.510
2020/01/31 08:41:42.1	312.070	-0.060	-0.330	-0.510
2020/01/31 08:41:42.2	312.090	-0.070	-0.310	-0.510
2020/01/31 08:41:42.3	312.110	-0.080	-0.300	-0.500
2020/01/31 08:41:42.4	312.120	-0.090	-0.280	-0.490
2020/01/31 08:41:42.5	312.140	-0.090	-0.270	-0.480
2020/01/31 08:41:42.6	312.150	-0.100	-0.250	-0.470
2020/01/31 08:41:42.7	312.170	-0.100	-0.240	-0.450
2020/01/31 08:41:42.8	312.180	-0.110	-0.230	-0.420
2020/01/31 08:41:42.9	312.190	-0.110	-0.220	-0.400
2020/01/31 08:41:43.0	312.200	-0.110	-0.200	-0.370
2020/01/31 08:41:43.1	312.210	-0.110	-0.190	-0.330
2020/01/31 08:41:43.2	312.210	-0.110	-0.180	-0.300
2020/01/31 08:41:43.3	312.220	-0.100	-0.180	-0.260
2020/01/31 08:41:43.4	312.220	-0.100	-0.170	-0.220
2020/01/31 08:41:43.5	312.230	-0.090	-0.170	-0.170
2020/01/31 08:41:43.6	312.230	-0.090	-0.160	-0.120
2020/01/31 08:41:43.7	312.230	-0.080	-0.160	-0.080
2020/01/31 08:41:43.8	312.230	-0.070	-0.160	-0.030
2020/01/31 08:41:43.9	312.230	-0.050	-0.160	0.020
2020/01/31 08:41:44.0	312.230	-0.040	-0.160	0.060
2020/01/31 08:41:44.1	312.230	-0.030	-0.160	0.110
2020/01/31 08:41:44.2	312.230	-0.010	-0.170	0.160
2020/01/31 08:41:44.3	312.230	0.000	-0.180	0.200
2020/01/31 08:41:44.4	312.230	0.020	-0.180	0.240
2020/01/31 08:41:44.5	312.230	0.030	-0.190	0.290
2020/01/31 08:41:44.6	312.230	0.050	-0.200	0.330
2020/01/31 08:41:44.7	312.230	0.060	-0.210	0.360
2020/01/31 08:41:44.8	312.230	0.080	-0.220	0.400
2020/01/31 08:41:44.9	312.220	0.100	-0.230	0.440
2020/01/31 08:41:45.0	312.220	0.110	-0.240	0.470
2020/01/31 08:41:45.1	312.210	0.130	-0.240	0.510
2020/01/31 08:41:45.2	312.210	0.140	-0.250	0.540
2020/01/31 08:41:45.3	312.200	0.150	-0.250	0.570
2020/01/31 08:41:45.4	312.200	0.160	-0.260	0.600
2020/01/31 08:41:45.5	312.190	0.170	-0.260	0.630
2020/01/31 08:41:45.6	312.180	0.180	-0.260	0.670
2020/01/31 08:41:45.7	312.160	0.190	-0.250	0.700
2020/01/31 08:41:45.8	312.150	0.190	-0.250	0.730
2020/01/31 08:41:45.9	312.140	0.200	-0.240	0.760
2020/01/31 08:41:46.0	312.120	0.200	-0.230	0.790
2020/01/31 08:41:46.1	312.110	0.200	-0.210	0.820
2020/01/31 08:41:46.2	312.090	0.200	-0.200	0.840
2020/01/31 08:41:46.3	312.070	0.200	-0.180	0.870
2020/01/31 08:41:46.4	312.040	0.200	-0.150	0.890
2020/01/31 08:41:46.5	312.020	0.190	-0.130	0.910
2020/01/31 08:41:46.6	312.000	0.180	-0.110	0.930
2020/01/31 08:41:46.7	311.980	0.180	-0.090	0.950
2020/01/31 08:41:46.8	311.960	0.170	-0.060	0.960
2020/01/31 08:41:46.9	311.940	0.160	-0.040	0.970
2020/01/31 08:41:47.0	311.920	0.140	-0.010	0.980
2020/01/31 08:41:47.1	311.900	0.130	0.010	0.980
2020/01/31 08:41:47.2	311.880	0.120	0.030	0.980
2020/01/31 08:41:47.3	311.860	0.110	0.060	0.970
2020/01/31 08:41:47.4	311.850	0.090	0.070	0.960
2020/01/31 08:41:47.5	311.840	0.080	0.090	0.940
2020/01/31 08:41:47.6	311.820	0.070	0.100	0.920
2020/01/31 08:41:47.7	311.810	0.050	0.110	0.900
2020/01/31 08:41:47.8	311.800	0.040	0.120	0.870
2020/01/31 08:41:47.9	311.790	0.030	0.120	0.840
2020/01/31 08:41:48.0	311.790	0.020	0.120	0.810
2020/01/31 08:41:48.1	311.790	0.010	0.120	0.770
2020/01/31 08:41:48.2	311.790	-0.000	0.110	0.730
2020/01/31 08:41:48.3	311.790	-0.010	0.090	0.680
2020/01/31 08:41:48.4	311.810	-0.020	0.070	0.630
2020/01/31 08:41:48.5	311.820	-0.020	0.050	0.580
2020/01/31 08:41:48.6	311.830	-0.030	0.020	0.520
2020/01/31 08:41:48.7	311.840	-0.030	-0.000	0.470
2020/01/31 08:41:48.8	311.850	-0.040	-0.030	0.410
2020/01/31 08:41:48.9	311.870	-0.040	-0.060	0.340
2020/01/31 08:41:49.0	311.890	-0.050	-0.090	0.280
2020/01/31 08:41:49.1	311.910	-0.050	-0.130	0.220
2020/01/31 08:41:49.2	311.930	-0.050	-0.160	0.150
2020/01/31 08:41:49.3	311.950	-0.060	-0.200	0.080
2020/01/31 08:41:49.4	311.970	-0.060	-0.230	0.020
2020/01/31 08:41:49.5	311.990	-0.060	-0.260	-0.050
2020/01/31 08:41:49.6	312.010	-0.070	-0.300	-0.110
2020/01/31 08:41:49.7	312.040	-0.070	-0.330	-0.180
2020/01/31 08:41:49.8	312.060	-0.070	-0.360	-0.240
2020/01/31 08:41:49.9	312.090	-0.080	-0.390	-0.300
2020/01/31 08:41:50.0	312.120	-0.080	-0.410	-0.360
2020/01/31 08:41:50.1	312.140	-0.090	-0.430	-0.410
2020/01/31 08:41:50.2	312.170	-0.090	-0.450	-0.470
2020/01/31 08:41:50.3	312.190	-0.090	-0.470	-0.520
2020/01/31 08:41:50.4	312.210	-0.100	-0.490	-0.570
2020/01/31 08:41:50.5	312.240	-0.110	-0.500	-0.620
2020/01/31 08:41:50.6	312.260	-0.110	-0.500	-0.660
2020/01/31 08:41:50.7	312.280	-0.120	-0.500	-0.700
2020/01/31 08:41:50.8	312.300	-0.130	-0.500	-0.730
2020/01/31 08:41:50.9	312.330	-0.130	-0.490	-0.760
2020/01/31 08:41:51.0	312.340	-0.140	-0.480	-0.780
2020/01/31 08:41:51.1	312.360	-0.150	-0.460	-0.800
2020/01/31 08:41:51.2	312.380	-0.150	-0.440	-0.810
2020/01/31 08:41:51.3	312.390	-0.160	-0.410	-0.820
2020/01/31 08:41:51.4	312.400	-0.170	-0.380	-0.820
2020/01/31 08:41:51.5	312.410	-0.180	-0.350	-0.810
2020/01/31 08:41:51.6	312.420	-0.180	-0.310	-0.800
2020/01/31 08:41:51.7	312.430	-0.190	-0.280	-0.790
2020/01/31 08:41:51.8	312.430	-0.200	-0.240	-0.770
2020/01/31 08:41:51.9	312.430	-0.210	-0.200	-0.750
2020/01/31 08:41:52.0	312.430	-0.210	-0.160	-0.730
2020/01/31 08:41:52.1	312.430	-0.220	-0.120	-0.700
2020/01/31 08:41:52.2	312.430	-0.220	-0.080	-0.660
2020/01/31 08:41:52.3	312.420	-0.230	-0.040	-0.630
2020/01/31 08:41:52.4	312.400	-0.230	-0.010	-0.590
2020/01/31 08:41:52.5	312.400	-0.240	0.030	-0.550
2020/01/31 08:41:52.6	312.390	-0.240	0.060	-0.500
2020/01/31 08:41:52.7	312.380	-0.240	0.090	-0.460
2020/01/31 08:41:52.8	312.380	-0.240	0.110	-0.410
2020/01/31 08:41:52.9	312.370	-0.250	0.130	-0.370
2020/01/31 08:41:53.0	312.360	-0.250	0.150	-0.320
2020/01/31 08:41:53.1	312.350	-0.250	0.160	-0.270
2020/01/31 08:41:53.2	312.350	-0.240	0.160	-0.230
2020/01/31 08:41:53.3	312.340	-0.240	0.170	-0.190
2020/01/31 08:41:53.4	312.340	-0.240	0.170	-0.140
2020/01/31 08:41:53.5	312.330	-0.240	0.160	-0.100
2020/01/31 08:41:53.6	312.330	-0.230	0.150	-0.060
2020/01/31 08:41:53.7	312.320	-0.230	0.130	-0.020
2020/01/31 08:41:53.8	312.310	-0.220	0.110	0.010
2020/01/31 08:41:53.9	312.300	-0.210	0.080	0.050
2020/01/31 08:41:54.0	312.300	-0.200	0.050	0.080
2020/01/31 08:41:54.1	312.290	-0.190	0.020	0.110
2020/01/31 08:41:54.2	312.280	-0.180	-0.020	0.140
2020/01/31 08:41:54.3	312.280	-0.170	-0.060	0.160
2020/01/31 08:41:54.4	312.270	-0.160	-0.100	0.190
2020/01/31 08:41:54.5	312.270	-0.140	-0.150	0.210
2020/01/31 08:41:54.6	312.260	-0.120	-0.200	0.230
2020/01/31 08:41:54.7	312.250	-0.110	-0.250	0.260
2020/01/31 08:41:54.8	312.250	-0.090	-0.300	0.280
2020/01/31 08:41:54.9	312.240	-0.070	-0.350	0.300
2020/01/31 08:41:55.0	312.240	-0.040	-0.400	0.310
2020/01/31 08:41:55.1	312.240	-0.020	-0.460	0.330
2020/01/31 08:41:55.2	312.230	0.000	-0.510	0.350
2020/01/31 08:41:55.3	312.230	0.030	-0.560	0.360
2020/01/31 08:41:55.4	312.210	0.050	-0.610	0.370
2020/01/31 08:41:55.5	312.210	0.080	-0.660	0.390
2020/01/31 08:41:55.6	312.200	0.110	-0.710	0.400
2020/01/31 08:41:55.7	312.200	0.140	-0.760	0.420
2020/01/31 08:41:55.8	312.190	0.170	-0.800	0.430
2020/01/31 08:41:55.9	312.190	0.200	-0.840	0.440
2020/01/31 08:41:56.0	312.190	0.220	-0.870	0.450
2020/01/31 08:41:56.1	312.180	0.250	-0.910	0.470
2020/01/31 08:41:56.2	312.180	0.280	-0.940	0.480
2020/01/31 08:41:56.3	312.180	0.310	-0.960	0.490
2020/01/31 08:41:56.4	312.170	0.340	-0.980	0.500
2020/01/31 08:41:56.5	312.170	0.360	-1.000	0.510
2020/01/31 08:41:56.6	312.170	0.380	-1.010	0.520
2020/01/31 08:41:56.7	312.170	0.410	-1.010	0.530
2020/01/31 08:41:56.8	312.170	0.430	-1.010	0.530
2020/01/31 08:41:56.9	312.170	0.440	-1.010	0.540
2020/01/31 08:41:57.0	312.170	0.460	-1.000	0.540
2020/01/31 08:41:57.1	312.170	0.470	-0.990	0.540
2020/01/31 08:41:57.2	312.180	0.480	-0.970	0.540
2020/01/31 08:41:57.3	312.180	0.490	-0.950	0.540
2020/01/31 08:41:57.4	312.180	0.490	-0.920	0.540
2020/01/31 08:41:57.5	312.190	0.490	-0.890	0.530
2020/01/31 08:41:57.6	312.200	0.490	-0.850	0.530
2020/01/31 08:41:57.7	312.210	0.480	-0.810	0.520
2020/01/31 08:41:57.8	312.210	0.470	-0.770	0.510
2020/01/31 08:41:57.9	312.220	0.460	-0.720	0.490
2020/01/31 08:41:58.0	312.230	0.440	-0.670	0.480
2020/01/31 08:41:58.1	312.250	0.420	-0.620	0.460
2020/01/31 08:41:58.2	312.260	0.400	-0.570	0.450
2020/01/31 08:41:58.3	312.270	0.370	-0.510	0.430
2020/01/31 08:41:58.4	312.270	0.340	-0.450	0.420
2020/01/31 08:41:58.5	312.290	0.310	-0.390	0.400
2020/01/31 08:41:58.6	312.300	0.280	-0.330	0.380
2020/01/31 08:41:58.7	312.310	0.240	-0.270	0.360
2020/01/31 08:41:58.8	312.320	0.200	-0.210	0.340
2020/01/31 08:41:58.9	312.340	0.170	-0.150	0.310
2020/01/31 08:41:59.0	312.350	0.130	-0.090	0.290
2020/01/31 08:41:59.1	312.360	0.090	-0.030	0.270
2020/01/31 08:41:59.2	312.370	0.050	0.030	0.250
2020/01/31 08:41:59.3	312.390	0.010	0.080	0.230
2020/01/31 08:41:59.4	312.400	-0.030	0.130	0.210
2020/01/31 08:41:59.5	312.410	-0.070	0.180	0.190
2020/01/31 08:41:59.6	312.420	-0.110	0.230	0.170
2020/01/31 08:41:59.7	312.430	-0.140	0.270	0.160
2020/01/31 08:41:59.8	312.440	-0.180	0.310	0.140
2020/01/31 08:41:59.9	312.450	-0.210	0.350	0.120
2020/01/31 08:42:00.0	312.460	-0.240	0.380	0.110
2020/01/31 08:42:00.1	312.460	-0.260	0.410	0.100
2020/01/31 08:42:00.2	312.470	-0.290	0.440	0.080
2020/01/31 08:42:00.3	312.470	-0.310	0.460	0.070
2020/01/31 08:42:00.4	312.480	-0.330	0.470	0.070
2020/01/31 08:42:00.5	312.480	-0.340	0.480	0.060
2020/01/31 08:42:00.6	312.480	-0.350	0.490	0.050
2020/01/31 08:42:00.7	312.480	-0.360	0.500	0.050
2020/01/31 08:42:00.8	312.480	-0.370	0.500	0.040
2020/01/31 08:42:00.9	312.480	-0.370	0.490	0.040
2020/01/31 08:42:01.0	312.480	-0.370	0.480	0.040
2020/01/31 08:42:01.1	312.480	-0.360	0.470	0.040
2020/01/31 08:42:01.2	312.480	-0.350	0.460	0.040
2020/01/31 08:42:01.3	312.480	-0.340	0.440	0.040
2020/01/31 08:42:01.4	312.470	-0.330	0.410	0.040
2020/01/31 08:42:01.5	312.470	-0.310	0.390	0.040
2020/01/31 08:42:01.6	312.470	-0.290	0.360	0.050
2020/01/31 08:42:01.7	312.460	-0.270	0.330	0.060
2020/01/31 08:42:01.8	312.460	-0.250	0.290	0.060
2020/01/31 08:42:01.9	312.450	-0.230	0.260	0.070
2020/01/31 08:42:02.0	312.450	-0.200	0.220	0.080
2020/01/31 08:42:02.1	312.440	-0.170	0.190	0.090
2020/01/31 08:42:02.2	312.440	-0.150	0.150	0.100
2020/01/31 08:42:02.3	312.430	-0.120	0.110	0.110
2020/01/31 08:42:02.4	312.420	-0.090	0.070	0.120
2020/01/31 08:42:02.5	312.410	-0.070	0.040	0.130
2020/01/31 08:42:02.6	312.410	-0.040	-0.000	0.140
2020/01/31 08:42:02.7	312.400	-0.010	-0.030	0.160
2020/01/31 08:42:02.8	312.390	0.020	-0.070	0.170
2020/01/31 08:42:02.9	312.380	0.040	-0.100	0.180
2020/01/31 08:42:03.0	312.360	0.060	-0.130	0.190
2020/01/31 08:42:03.1	312.350	0.090	-0.150	0.210
2020/01/31 08:42:03.2	312.340	0.110	-0.180	0.220
2020/01/31 08:42:03.3	312.320	0.130	-0.200	0.230
2020/01/31 08:42:03.4	312.300	0.150	-0.210	0.240
2020/01/31 08:42:03.5	312.280	0.160	-0.230	0.250
2020/01/31 08:42:03.6	312.270	0.180	-0.240	0.260
2020/01/31 08:42:03.7	312.250	0.190	-0.250	0.270
2020/01/31 08:42:03.8	312.230	0.200	-0.260	0.280
2020/01/31 08:42:03.9	312.210	0.210	-0.270	0.300
2020/01/31 08:42:04.0	312.190	0.220	-0.270	0.310
2020/01/31 08:42:04.1	312.180	0.220	-0.270	0.320
2020/01/31 08:42:04.2	312.160	0.220	-0.270	0.330
2020/01/31 08:42:04.3	312.140	0.230	-0.270	0.340
2020/01/31 08:42:04.4	312.110	0.220	-0.260	0.350
2020/01/31 08:42:04.5	312.090	0.220	-0.260	0.350
2020/01/31 08:42:04.6	312.080	0.220	-0.260	0.360
2020/01/31 08:42:04.7	312.060	0.210	-0.250	0.370
2020/01/31 08:42:04.8	312.040	0.210	-0.250	0.370
2020/01/31 08:42:04.9	312.030	0.200	-0.240	0.380
2020/01/31 08:42:05.0	312.010	0.190	-0.240	0.380
2020/01/31 08:42:05.1	312.000	0.180	-0.240	0.380
2020/01/31 08:42:05.2	311.990	0.170	-0.240	0.370
2020/01/31 08:42:05.3	311.990	0.160	-0.240	0.370
2020/01/31 08:42:05.4	311.970	0.140	-0.250	0.360
2020/01/31 08:42:05.5	311.970	0.130	-0.250	0.350
2020/01/31 08:42:05.6	311.970	0.120	-0.260	0.330
2020/01/31 08:42:05.7	311.970	0.100	-0.280	0.320
2020/01/31 08:42:05.8	311.970	0.090	-0.290	0.300
2020/01/31 08:42:05.9	311.980	0.080	-0.310	0.280
2020/01/31 08:42:06.0	311.990	0.060	-0.330	0.260
2020/01/31 08:42:06.1	312.010	0.050	-0.350	0.230
2020/01/31 08:42:06.2	312.030	0.040	-0.370	0.200
2020/01/31 08:42:06.3	312.050	0.020	-0.390	0.180
2020/01/31 08:42:06.4	312.070	0.010	-0.420	0.140
2020/01/31 08:42:06.5	312.100	-0.000	-0.440	0.110
2020/01/31 08:42:06.6	312.120	-0.010	-0.470	0.080
2020/01/31 08:42:06.7	312.150	-0.030	-0.490	0.050
2020/01/31 08:42:06.8	312.180	-0.040	-0.520	0.020
2020/01/31 08:42:06.9	312.200	-0.050	-0.540	-0.010
2020/01/31 08:42:07.0	312.230	-0.060	-0.560	-0.040
2020/01/31 08:42:07.1	312.260	-0.070	-0.580	-0.070
2020/01/31 08:42:07.2	312.290	-0.080	-0.600	-0.090
2020/01/31 08:42:07.3	312.310	-0.090	-0.620	-0.120
2020/01/31 08:42:07.4	312.340	-0.100	-0.640	-0.150
2020/01/31 08:42:07.5	312.370	-0.110	-0.650	-0.170
2020/01/31 08:42:07.6	312.390	-0.120	-0.670	-0.190
2020/01/31 08:42:07.7	312.420	-0.120	-0.680	-0.210
2020/01/31 08:42:07.8	312.440	-0.130	-0.690	-0.230
2020/01/31 08:42:07.9	312.470	-0.140	-0.700	-0.240
2020/01/31 08:42:08.0	312.490	-0.140	-0.700	-0.260
2020/01/31 08:42:08.1	312.510	-0.150	-0.710	-0.270
2020/01/31 08:42:08.2	312.530	-0.150	-0.710	-0.280
2020/01/31 08:42:08.3	312.550	-0.160	-0.710	-0.280
2020/01/31 08:42:08.4	312.560	-0.160	-0.710	-0.280
2020/01/31 08:42:08.5	312.580	-0.160	-0.700	-0.290
2020/01/31 08:42:08.6	312.600	-0.160	-0.690	-0.290
2020/01/31 08:42:08.7	312.610	-0.160	-0.690	-0.280
2020/01/31 08:42:08.8	312.630	-0.160	-0.680	-0.280
2020/01/31 08:42:08.9	312.640	-0.160	-0.660	-0.270
2020/01/31 08:42:09.0	312.650	-0.150	-0.650	-0.260
2020/01/31 08:42:09.1	312.660	-0.150	-0.630	-0.240
2020/01/31 08:42:09.2	312.670	-0.140	-0.610	-0.220
2020/01/31 08:42:09.3	312.680	-0.140	-0.590	-0.200
2020/01/31 08:42:09.4	312.690	-0.130	-0.570	-0.180
2020/01/31 08:42:09.5	312.690	-0.120	-0.540	-0.160
2020/01/31 08:42:09.6	312.700	-0.110	-0.510	-0.130
2020/01/31 08:42:09.7	312.700	-0.100	-0.480	-0.100
2020/01/31 08:42:09.8	312.700	-0.090	-0.450	-0.060
2020/01/31 08:42:09.9	312.690	-0.080	-0.420	-0.020
2020/01/31 08:42:10.0	312.690	-0.070	-0.390	0.010
2020/01/31 08:42:10.1	312.680	-0.050	-0.360	0.050
2020/01/31 08:42:10.2	312.680	-0.040	-0.330	0.100
2020/01/31 08:42:10.3	312.670	-0.030	-0.300	0.140
2020/01/31 08:42:10.4	312.670	-0.020	-0.260	0.180
2020/01/31 08:42:10.5	312.660	-0.000	-0.230	0.220
2020/01/31 08:42:10.6	312.650	0.010	-0.210	0.260
2020/01/31 08:42:10.7	312.640	0.020	-0.180	0.300
2020/01/31 08:42:10.8	312.630	0.030	-0.150	0.340
2020/01/31 08:42:10.9	312.620	0.040	-0.130	0.380
2020/01/31 08:42:11.0	312.610	0.050	-0.110	0.420
2020/01/31 08:42:11.1	312.600	0.070	-0.090	0.450
2020/01/31 08:42:11.2	312.580	0.080	-0.070	0.480
2020/01/31 08:42:11.3	312.570	0.080	-0.050	0.510
2020/01/31 08:42:11.4	312.570	0.090	-0.040	0.540
2020/01/31 08:42:11.5	312.560	0.100	-0.020	0.570
2020/01/31 08:42:11.6	312.550	0.110	-0.010	0.590
2020/01/31 08:42:11.7	312.540	0.110	-0.010	0.610
2020/01/31 08:42:11.8	312.530	0.120	-0.000	0.630
2020/01/31 08:42:11.9	312.520	0.120	0.000	0.640
2020/01/31 08:42:12.0	312.510	0.130	0.010	0.650
2020/01/31 08:42:12.1	312.500	0.130	0.010	0.660
2020/01/31 08:42:12.2	312.490	0.130	0.010	0.660
2020/01/31 08:42:12.3	312.490	0.140	0.000	0.660
2020/01/31 08:42:12.4	312.490	0.140	0.000	0.650
2020/01/31 08:42:12.5	312.480	0.140	-0.000	0.650
2020/01/31 08:42:12.6	312.480	0.140	-0.010	0.630
2020/01/31 08:42:12.7	312.480	0.130	-0.010	0.620
2020/01/31 08:42:12.8	312.480	0.130	-0.020	0.600
2020/01/31 08:42:12.9	312.480	0.130	-0.020	0.580
2020/01/31 08:42:13.0	312.480	0.130	-0.030	0.560
2020/01/31 08:42:13.1	312.480	0.120	-0.040	0.540
2020/01/31 08:42:13.2	312.480	0.120	-0.040	0.520
2020/01/31 08:42:13.3	312.490	0.110	-0.050	0.490
2020/01/31 08:42:13.4	312.490	0.110	-0.060	0.460
2020/01/31 08:42:13.5	312.490	0.100	-0.060	0.440
2020/01/31 08:42:13.6	312.500	0.090	-0.070	0.410
2020/01/31 08:42:13.7	312.500	0.090	-0.070	0.380
2020/01/31 08:42:13.8	312.500	0.080	-0.070	0.360
2020/01/31 08:42:13.9	312.510	0.070	-0.070	0.330
2020/01/31 08:42:14.0	312.510	0.060	-0.070	0.310
2020/01/31 08:42:14.1	312.510	0.050	-0.070	0.280
2020/01/31 08:42:14.2	312.510	0.040	-0.070	0.250
2020/01/31 08:42:14.3	312.510	0.030	-0.070	0.230
2020/01/31 08:42:14.4	312.510	0.020	-0.070	0.200
2020/01/31 08:42:14.5	312.510	0.010	-0.060	0.180
2020/01/31 08:42:14.6	312.510	-0.000	-0.050	0.150
2020/01/31 08:42:14.7	312.500	-0.020	-0.050	0.130
2020/01/31 08:42:14.8	312.500	-0.030	-0.040	0.100
2020/01/31 08:42:14.9	312.500	-0.040	-0.040	0.080
2020/01/31 08:42:15.0	312.500	-0.050	-0.030	0.060
2020/01/31 08:42:15.1	312.490	-0.060	-0.020	0.040
2020/01/31 08:42:15.2	312.490	-0.070	-0.010	0.020
2020/01/31 08:42:15.3	312.490	-0.080	-0.010	-0.000
2020/01/31 08:42:15.4	312.490	-0.080	-0.010	-0.020
2020/01/31 08:42:15.5	312.480	-0.090	0.000	-0.040
2020/01/31 08:42:15.6	312.480	-0.100	0.000	-0.060
2020/01/31 08:42:15.7	312.480	-0.100	0.010	-0.080
2020/01/31 08:42:15.8	312.470	-0.110	0.010	-0.090
2020/01/31 08:42:15.9	312.470	-0.110	0.010	-0.110
2020/01/31 08:42:16.0	312.470	-0.110	0.020	-0.120
2020/01/31 08:42:16.1	312.460	-0.110	0.020	-0.140
2020/01/31 08:42:16.2	312.460	-0.110	0.020	-0.150
2020/01/31 08:42:16.3	312.460	-0.110	0.010	-0.160
2020/01/31 08:42:16.4	312.450	-0.110	0.010	-0.170
2020/01/31 08:42:16.5	312.440	-0.100	0.010	-0.180
2020/01/31 08:42:16.6	312.440	-0.100	0.000	-0.190
2020/01/31 08:42:16.7	312.440	-0.090	-0.000	-0.190
2020/01/31 08:42:16.8	312.440	-0.090	-0.010	-0.190
2020/01/31 08:42:16.9	312.430	-0.080	-0.010	-0.200
2020/01/31 08:42:17.0	312.430	-0.070	-0.020	-0.190
2020/01/31 08:42:17.1	312.430	-0.060	-0.030	-0.190
2020/01/31 08:42:17.2	312.430	-0.050	-0.040	-0.180
2020/01/31 08:42:17.3	312.430	-0.040	-0.050	-0.170
2020/01/31 08:42:17.4	312.430	-0.020	-0.060	-0.160
2020/01/31 08:42:17.5	312.430	-0.010	-0.070	-0.150
2020/01/31 08:42:17.6	312.430	0.000	-0.090	-0.130
2020/01/31 08:42:17.7	312.430	0.020	-0.100	-0.120
2020/01/31 08:42:17.8	312.430	0.030	-0.110	-0.100
2020/01/31 08:42:17.9	312.430	0.050	-0.130	-0.070
2020/01/31 08:42:18.0	312.430	0.060	-0.140	-0.050
2020/01/31 08:42:18.1	312.440	0.080	-0.160	-0.020
2020/01/31 08:42:18.2	312.440	0.090	-0.170	0.000
2020/01/31 08:42:18.3	312.440	0.110	-0.190	0.030
2020/01/31 08:42:18.4	312.450	0.120	-0.210	0.060
2020/01/31 08:42:18.5	312.460	0.140	-0.230	0.090
2020/01/31 08:42:18.6	312.460	0.160	-0.250	0.110
2020/01/31 08:42:18.7	312.470	0.170	-0.270	0.140
2020/01/31 08:42:18.8	312.470	0.190	-0.290	0.160
2020/01/31 08:42:18.9	312.480	0.200	-0.310	0.180
2020/01/31 08:42:19.0	312.490	0.220	-0.340	0.200
2020/01/31 08:42:19.1	312.500	0.230	-0.370	0.220
2020/01/31 08:42:19.2	312.510	0.240	-0.390	0.240
2020/01/31 08:42:19.3	312.520	0.260	-0.420	0.250
2020/01/31 08:42:19.4	312.540	0.270	-0.450	0.260
2020/01/31 08:42:19.5	312.550	0.280	-0.480	0.260
2020/01/31 08:42:19.6	312.570	0.290	-0.510	0.270
2020/01/31 08:42:19.7	312.580	0.300	-0.540	0.270
2020/01/31 08:42:19.8	312.600	0.300	-0.570	0.270
2020/01/31 08:42:19.9	312.620	0.310	-0.600	0.270
2020/01/31 08:42:20.0	312.640	0.310	-0.630	0.260
2020/01/31 08:42:20.1	312.660	0.310	-0.660	0.250
2020/01/31 08:42:20.2	312.690	0.310	-0.680	0.240
2020/01/31 08:42:20.3	312.710	0.310	-0.710	0.230
2020/01/31 08:42:20.4	312.730	0.300	-0.730	0.210
2020/01/31 08:42:20.5	312.750	0.300	-0.750	0.200
2020/01/31 08:42:20.6	312.770	0.290	-0.770	0.180
2020/01/31 08:42:20.7	312.790	0.280	-0.790	0.160
2020/01/31 08:42:20.8	312.810	0.260	-0.800	0.140
2020/01/31 08:42:20.9	312.830	0.250	-0.810	0.120
2020/01/31 08:42:21.0	312.850	0.230	-0.820	0.100
2020/01/31 08:42:21.1	312.870	0.210	-0.820	0.080
2020/01/31 08:42:21.2	312.890	0.190	-0.820	0.070
2020/01/31 08:42:21.3	312.900	0.160	-0.820	0.050
2020/01/31 08:42:21.4	312.920	0.140	-0.810	0.030
2020/01/31 08:42:21.5	312.930	0.110	-0.800	0.020
2020/01/31 08:42:21.6	312.940	0.080	-0.780	0.000
2020/01/31 08:42:21.7	312.950	0.060	-0.760	-0.010
2020/01/31 08:42:21.8	312.950	0.030	-0.740	-0.020
2020/01/31 08:42:21.9	312.960	-0.000	-0.710	-0.040
2020/01/31 08:42:22.0	312.960	-0.030	-0.680	-0.050
2020/01/31 08:42:22.1	312.960	-0.060	-0.650	-0.050
2020/01/31 08:42:22.2	312.960	-0.090	-0.610	-0.060
2020/01/31 08:42:22.3	312.960	-0.120	-0.570	-0.060
2020/01/31 08:42:22.4	312.940	-0.150	-0.530	-0.070
2020/01/31 08:42:22.5	312.930	-0.180	-0.490	-0.070
2020/01/31 08:42:22.6	312.920	-0.210	-0.440	-0.070
2020/01/31 08:42:22.7	312.910	-0.240	-0.390	-0.070
2020/01/31 08:42:22.8	312.900	-0.270	-0.350	-0.070
2020/01/31 08:42:22.9	312.880	-0.290	-0.300	-0.060
2020/01/31 08:42:23.0	312.870	-0.310	-0.250	-0.050
2020/01/31 08:42:23.1	312.850	-0.340	-0.200	-0.040
2020/01/31 08:42:23.2	312.840	-0.360	-0.150	-0.030
2020/01/31 08:42:23.3	312.820	-0.370	-0.100	-0.020
2020/01/31 08:42:23.4	312.800	-0.390	-0.060	-0.010
2020/01/31 08:42:23.5	312.780	-0.400	-0.010	0.010
2020/01/31 08:42:23.6	312.760	-0.410	0.030	0.020
2020/01/31 08:42:23.7	312.740	-0.420	0.060	0.040
2020/01/31 08:42:23.8	312.720	-0.430	0.100	0.050
2020/01/31 08:42:23.9	312.690	-0.430	0.130	0.070
2020/01/31 08:42:24.0	312.670	-0.430	0.160	0.080
2020/01/31 08:42:24.1	312.660	-0.430	0.180	0.090
2020/01/31 08:42:24.2	312.640	-0.430	0.200	0.110
2020/01/31 08:42:24.3	312.620	-0.420	0.210	0.110
2020/01/31 08:42:24.4	312.610	-0.420	0.220	0.120
2020/01/31 08:42:24.5	312.590	-0.410	0.220	0.130
2020/01/31 08:42:24.6	312.580	-0.400	0.220	0.130
2020/01/31 08:42:24.7	312.570	-0.380	0.220	0.130
2020/01/31 08:42:24.8	312.560	-0.370	0.210	0.120
2020/01/31 08:42:24.9	312.560	-0.350	0.200	0.120
2020/01/31 08:42:25.0	312.560	-0.330	0.180	0.110
2020/01/31 08:42:25.1	312.550	-0.310	0.160	0.100
2020/01/31 08:42:25.2	312.560	-0.290	0.140	0.080
2020/01/31 08:42:25.3	312.560	-0.270	0.110	0.070
2020/01/31 08:42:25.4	312.560	-0.250	0.090	0.050
2020/01/31 08:42:25.5	312.570	-0.230	0.060	0.030
2020/01/31 08:42:25.6	312.580	-0.200	0.020	0.020
2020/01/31 08:42:25.7	312.590	-0.180	-0.010	0.000
2020/01/31 08:42:25.8	312.600	-0.160	-0.040	-0.020
2020/01/31 08:42:25.9	312.610	-0.130	-0.070	-0.030
2020/01/31 08:42:26.0	312.620	-0.110	-0.100	-0.040
2020/01/31 08:42:26.1	312.630	-0.080	-0.130	-0.050
2020/01/31 08:42:26.2	312.640	-0.060	-0.150	-0.060
2020/01/31 08:42:26.3	312.650	-0.040	-0.180	-0.060
2020/01/31 08:42:26.4	312.640	-0.020	-0.200	-0.070
2020/01/31 08:42:26.5	312.650	0.000	-0.220	-0.070
2020/01/31 08:42:26.6	312.650	0.020	-0.230	-0.060
2020/01/31 08:42:26.7	312.660	0.040	-0.240	-0.050
2020/01/31 08:42:26.8	312.660	0.060	-0.240	-0.040
2020/01/31 08:42:26.9	312.670	0.080	-0.240	-0.020
2020/01/31 08:42:27.0	312.670	0.090	-0.230	0.000
2020/01/31 08:42:27.1	312.670	0.100	-0.220	0.020
2020/01/31 08:42:27.2	312.670	0.120	-0.210	0.050
2020/01/31 08:42:27.3	312.660	0.130	-0.190	0.080
2020/01/31 08:42:27.4	312.670	0.140	-0.170	0.120
2020/01/31 08:42:27.5	312.660	0.150	-0.150	0.160
2020/01/31 08:42:27.6	312.660	0.160	-0.130	0.190
2020/01/31 08:42:27.7	312.660	0.160	-0.100	0.230
2020/01/31 08:42:27.8	312.660	0.170	-0.070	0.280
2020/01/31 08:42:27.9	312.650	0.180	-0.050	0.320
2020/01/31 08:42:28.0	312.650	0.190	-0.020	0.360
2020/01/31 08:42:28.1	312.650	0.190	0.000	0.400
2020/01/31 08:42:28.2	312.650	0.200	0.030	0.440
2020/01/31 08:42:28.3	312.650	0.200	0.050	0.480
2020/01/31 08:42:28.4	312.670	0.210	0.070	0.520
2020/01/31 08:42:28.5	312.670	0.220	0.080	0.560
2020/01/31 08:42:28.6	312.670	0.220	0.100	0.590
2020/01/31 08:42:28.7	312.670	0.230	0.110	0.630
2020/01/31 08:42:28.8	312.670	0.240	0.120	0.660
2020/01/31 08:42:28.9	312.670	0.250	0.120	0.690
2020/01/31 08:42:29.0	312.670	0.250	0.120	0.720
2020/01/31 08:42:29.1	312.680	0.260	0.120	0.750
2020/01/31 08:42:29.2	312.680	0.270	0.110	0.770
2020/01/31 08:42:29.3	312.680	0.280	0.100	0.790
2020/01/31 08:42:29.4	312.690	0.290	0.080	0.810
2020/01/31 08:42:29.5	312.690	0.290	0.070	0.830
2020/01/31 08:42:29.6	312.690	0.300	0.040	0.840
2020/01/31 08:42:29.7	312.690	0.310	0.020	0.850
2020/01/31 08:42:29.8	312.690	0.320	-0.010	0.860
2020/01/31 08:42:29.9	312.690	0.320	-0.030	0.860
2020/01/31 08:42:30.0	312.690	0.330	-0.070	0.870
2020/01/31 08:42:30.1	312.690	0.340	-0.100	0.860
2020/01/31 08:42:30.2	312.700	0.340	-0.140	0.860
2020/01/31 08:42:30.3	312.700	0.350	-0.170	0.850
2020/01/31 08:42:30.4	312.700	0.350	-0.210	0.830
2020/01/31 08:42:30.5	312.700	0.350	-0.250	0.820
2020/01/31 08:42:30.6	312.710	0.350	-0.300	0.800
2020/01/31 08:42:30.7	312.710	0.350	-0.340	0.770
2020/01/31 08:42:30.8	312.720	0.350	-0.380	0.740
2020/01/31 08:42:30.9	312.730	0.340	-0.420	0.710
2020/01/31 08:42:31.0	312.740	0.340	-0.470	0.680
2020/01/31 08:42:31.1	312.750	0.330	-0.510	0.640
2020/01/31 08:42:31.2	312.760	0.320	-0.550	0.600
2020/01/31 08:42:31.3	312.780	0.310	-0.590	0.550
2020/01/31 08:42:31.4	312.790	0.300	-0.630	0.500
2020/01/31 08:42:31.5	312.810	0.290	-0.670	0.450
2020/01/31 08:42:31.6	312.830	0.270	-0.700	0.390
2020/01/31 08:42:31.7	312.850	0.250	-0.740	0.340
2020/01/31 08:42:31.8	312.870	0.230	-0.770	0.280
2020/01/31 08:42:31.9	312.890	0.210	-0.800	0.220
2020/01/31 08:42:32.0	312.910	0.190	-0.830	0.170
2020/01/31 08:42:32.1	312.930	0.170	-0.850	0.110
2020/01/31 08:42:32.2	312.960	0.150	-0.870	0.050
2020/01/31 08:42:32.3	312.980	0.120	-0.880	-0.010
2020/01/31 08:42:32.4	313.000	0.090	-0.890	-0.060
2020/01/31 08:42:32.5	313.020	0.070	-0.890	-0.110
2020/01/31 08:42:32.6	313.040	0.040	-0.890	-0.160
2020/01/31 08:42:32.7	313.060	0.010	-0.890	-0.220
2020/01/31 08:42:32.8	313.070	-0.020	-0.880	-0.260
2020/01/31 08:42:32.9	313.090	-0.050	-0.860	-0.310
2020/01/31 08:42:33.0	313.100	-0.090	-0.850	-0.360
2020/01/31 08:42:33.1	313.110	-0.120	-0.820	-0.400
2020/01/31 08:42:33.2	313.120	-0.150	-0.800	-0.440
2020/01/31 08:42:33.3	313.130	-0.180	-0.760	-0.480
2020/01/31 08:42:33.4	313.140	-0.210	-0.730	-0.530
2020/01/31 08:42:33.5	313.150	-0.240	-0.690	-0.560
2020/01/31 08:42:33.6	313.150	-0.270	-0.650	-0.590
2020/01/31 08:42:33.7	313.160	-0.300	-0.610	-0.620
2020/01/31 08:42:33.8	313.160	-0.330	-0.560	-0.650
2020/01/31 08:42:33.9	313.160	-0.360	-0.520	-0.670
2020/01/31 08:42:34.0	313.160	-0.380	-0.470	-0.690
2020/01/31 08:42:34.1	313.160	-0.410	-0.420	-0.700
2020/01/31 08:42:34.2	313.160	-0.430	-0.370	-0.720
2020/01/31 08:42:34.3	313.160	-0.450	-0.320	-0.730
2020/01/31 08:42:34.4	313.140	-0.470	-0.270	-0.730
2020/01/31 08:42:34.5	313.140	-0.490	-0.220	-0.730
2020/01/31 08:42:34.6	313.130	-0.500	-0.170	-0.730
2020/01/31 08:42:34.7	313.120	-0.510	-0.120	-0.730
2020/01/31 08:42:34.8	313.110	-0.520	-0.070	-0.720
2020/01/31 08:42:34.9	313.110	-0.530	-0.030	-0.710
2020/01/31 08:42:35.0	313.100	-0.530	0.020	-0.690
2020/01/31 08:42:35.1	313.080	-0.530	0.060	-0.670
2020/01/31 08:42:35.2	313.070	-0.530	0.090	-0.650
2020/01/31 08:42:35.3	313.060	-0.530	0.130	-0.630
2020/01/31 08:42:35.4	313.040	-0.520	0.160	-0.610
2020/01/31 08:42:35.5	313.030	-0.510	0.180	-0.580
2020/01/31 08:42:35.6	313.010	-0.500	0.210	-0.550
2020/01/31 08:42:35.7	312.990	-0.480	0.230	-0.520
2020/01/31 08:42:35.8	312.980	-0.470	0.250	-0.490
2020/01/31 08:42:35.9	312.960	-0.450	0.260	-0.460
2020/01/31 08:42:36.0	312.950	-0.430	0.270	-0.420
2020/01/31 08:42:36.1	312.930	-0.400	0.270	-0.390
2020/01/31 08:42:36.2	312.910	-0.380	0.270	-0.350
2020/01/31 08:42:36.3	312.900	-0.350	0.270	-0.310
2020/01/31 08:42:36.4	312.880	-0.320	0.260	-0.270
2020/01/31 08:42:36.5	312.870	-0.290	0.250	-0.240
2020/01/31 08:42:36.6	312.860	-0.250	0.240	-0.200
2020/01/31 08:42:36.7	312.840	-0.220	0.220	-0.160
2020/01/31 08:42:36.8	312.830	-0.190	0.200	-0.120
2020/01/31 08:42:36.9	312.820	-0.150	0.180	-0.080
2020/01/31 08:42:37.0	312.810	-0.110	0.150	-0.040
2020/01/31 08:42:37.1	312.800	-0.070	0.130	0.000
2020/01/31 08:42:37.2	312.800	-0.040	0.100	0.040
2020/01/31 08:42:37.3	312.790	0.000	0.070	0.080
2020/01/31 08:42:37.4	312.780	0.040	0.050	0.130
2020/01/31 08:42:37.5	312.770	0.080	0.020	0.170
2020/01/31 08:42:37.6	312.770	0.110	-0.010	0.210
2020/01/31 08:42:37.7	312.760	0.150	-0.040	0.250
2020/01/31 08:42:37.8	312.760	0.180	-0.070	0.300
2020/01/31 08:42:37.9	312.750	0.220	-0.100	0.340
2020/01/31 08:42:38.0	312.750	0.250	-0.130	0.380
2020/01/31 08:42:38.1	312.740	0.280	-0.150	0.420
2020/01/31 08:42:38.2	312.740	0.300	-0.180	0.460
2020/01/31 08:42:38.3	312.730	0.330	-0.200	0.510
2020/01/31 08:42:38.4	312.720	0.350	-0.220	0.550
2020/01/31 08:42:38.5	312.720	0.380	-0.240	0.590
2020/01/31 08:42:38.6	312.710	0.400	-0.250	0.630
2020/01/31 08:42:38.7	312.710	0.410	-0.270	0.670
2020/01/31 08:42:38.8	312.700	0.430	-0.280	0.710
2020/01/31 08:42:38.9	312.700	0.440	-0.290	0.750
2020/01/31 08:42:39.0	312.690	0.450	-0.300	0.780
2020/01/31 08:42:39.1	312.690	0.460	-0.310	0.820
2020/01/31 08:42:39.2	312.680	0.460	-0.310	0.850
2020/01/31 08:42:39.3	312.680	0.470	-0.320	0.880
2020/01/31 08:42:39.4	312.680	0.470	-0.320	0.910
2020/01/31 08:42:39.5	312.680	0.470	-0.330	0.930
2020/01/31 08:42:39.6	312.680	0.470	-0.330	0.950
2020/01/31 08:42:39.7	312.690	0.460	-0.340	0.970
2020/01/31 08:42:39.8	312.690	0.460	-0.350	0.980
2020/01/31 08:42:39.9	312.690	0.450	-0.350	0.990
2020/01/31 08:42:40.0	312.700	0.440	-0.360	0.990
2020/01/31 08:42:40.1	312.700	0.430	-0.370	0.990
2020/01/31 08:42:40.2	312.710	0.420	-0.380	0.980
2020/01/31 08:42:40.3	312.720	0.410	-0.390	0.980
2020/01/31 08:42:40.4	312.720	0.400	-0.400	0.960
2020/01/31 08:42:40.5	312.730	0.380	-0.410	0.940
2020/01/31 08:42:40.6	312.740	0.370	-0.420	0.920
2020/01/31 08:42:40.7	312.750	0.350	-0.430	0.900
2020/01/31 08:42:40.8	312.760	0.330	-0.440	0.870
2020/01/31 08:42:40.9	312.770	0.320	-0.450	0.840
2020/01/31 08:42:41.0	312.780	0.300	-0.460	0.810
2020/01/31 08:42:41.1	312.800	0.280	-0.470	0.780
2020/01/31 08:42:41.2	312.810	0.260	-0.470	0.740
2020/01/31 08:42:41.3	312.820	0.240	-0.480	0.710
2020/01/31 08:42:41.4	312.840	0.220	-0.490	0.670
2020/01/31 08:42:41.5	312.850	0.200	-0.490	0.630
2020/01/31 08:42:41.6	312.860	0.180	-0.490	0.590
2020/01/31 08:42:41.7	312.870	0.160	-0.480	0.560
2020/01/31 08:42:41.8	312.880	0.130	-0.480	0.520
2020/01/31 08:42:41.9	312.890	0.110	-0.470	0.480
2020/01/31 08:42:42.0	312.900	0.090	-0.460	0.440
2020/01/31 08:42:42.1	312.900	0.060	-0.440	0.400
2020/01/31 08:42:42.2	312.910	0.040	-0.420	0.370
2020/01/31 08:42:42.3	312.910	0.010	-0.400	0.330
2020/01/31 08:42:42.4	312.930	-0.020	-0.380	0.290
2020/01/31 08:42:42.5	312.930	-0.040	-0.360	0.260
2020/01/31 08:42:42.6	312.930	-0.070	-0.330	0.220
2020/01/31 08:42:42.7	312.940	-0.100	-0.300	0.190
2020/01/31 08:42:42.8	312.940	-0.120	-0.270	0.150
2020/01/31 08:42:42.9	312.940	-0.150	-0.230	0.120
2020/01/31 08:42:43.0	312.940	-0.170	-0.200	0.090
2020/01/31 08:42:43.1	312.940	-0.200	-0.170	0.060
2020/01/31 08:42:43.2	312.940	-0.220	-0.140	0.030
2020/01/31 08:42:43.3	312.940	-0.250	-0.110	-0.000
2020/01/31 08:42:43.4	312.930	-0.270	-0.070	-0.030
2020/01/31 08:42:43.5	312.930	-0.290	-0.040	-0.050
2020/01/31 08:42:43.6	312.920	-0.310	-0.010	-0.080
2020/01/31 08:42:43.7	312.920	-0.330	0.020	-0.100
2020/01/31 08:42:43.8	312.920	-0.340	0.040	-0.120
2020/01/31 08:42:43.9	312.920	-0.360	0.060	-0.140
2020/01/31 08:42:44.0	312.920	-0.370	0.080	-0.160
2020/01/31 08:42:44.1	312.910	-0.380	0.100	-0.180
2020/01/31 08:42:44.2	312.910	-0.390	0.120	-0.190
2020/01/31 08:42:44.3	312.910	-0.390	0.130	-0.210
2020/01/31 08:42:44.4	312.910	-0.400	0.130	-0.230
2020/01/31 08:42:44.5	312.920	-0.400	0.140	-0.240
2020/01/31 08:42:44.6	312.920	-0.390	0.140	-0.250
2020/01/31 08:42:44.7	312.920	-0.390	0.140	-0.260
2020/01/31 08:42:44.8	312.920	-0.380	0.140	-0.270
2020/01/31 08:42:44.9	312.930	-0.370	0.130	-0.280
2020/01/31 08:42:45.0	312.930	-0.360	0.110	-0.290
2020/01/31 08:42:45.1	312.940	-0.350	0.100	-0.300
2020/01/31 08:42:45.2	312.940	-0.330	0.080	-0.300
2020/01/31 08:42:45.3	312.950	-0.320	0.060	-0.300
2020/01/31 08:42:45.4	312.950	-0.300	0.030	-0.310
2020/01/31 08:42:45.5	312.960	-0.280	0.000	-0.310
2020/01/31 08:42:45.6	312.970	-0.250	-0.030	-0.310
2020/01/31 08:42:45.7	312.970	-0.230	-0.060	-0.300
2020/01/31 08:42:45.8	312.980	-0.200	-0.100	-0.300
2020/01/31 08:42:45.9	312.990	-0.180	-0.130	-0.300
2020/01/31 08:42:46.0	313.000	-0.150	-0.170	-0.290
2020/01/31 08:42:46.1	313.010	-0.130	-0.210	-0.290
2020/01/31 08:42:46.2	313.020	-0.100	-0.260	-0.280
2020/01/31 08:42:46.3	313.030	-0.070	-0.300	-0.280
2020/01/31 08:42:46.4	313.040	-0.040	-0.340	-0.270
2020/01/31 08:42:46.5	313.060	-0.010	-0.380	-0.270
2020/01/31 08:42:46.6	313.070	0.010	-0.430	-0.260
2020/01/31 08:42:46.7	313.090	0.040	-0.470	-0.250
2020/01/31 08:42:46.8	313.100	0.070	-0.510	-0.250
2020/01/31 08:42:46.9	313.120	0.090	-0.550	-0.240
2020/01/31 08:42:47.0	313.140	0.120	-0.580	-0.240
2020/01/31 08:42:47.1	313.160	0.140	-0.620	-0.230
2020/01/31 08:42:47.2	313.180	0.170	-0.650	-0.220
2020/01/31 08:42:47.3	313.200	0.190	-0.680	-0.220
2020/01/31 08:42:47.4	313.220	0.210	-0.700	-0.210
2020/01/31 08:42:47.5	313.240	0.230	-0.730	-0.210
2020/01/31 08:42:47.6	313.270	0.250	-0.740	-0.200
2020/01/31 08:42:47.7	313.290	0.270	-0.760	-0.190
2020/01/31 08:42:47.8	313.310	0.280	-0.760	-0.180
2020/01/31 08:42:47.9	313.340	0.300	-0.770	-0.170
2020/01/31 08:42:48.0	313.360	0.310	-0.770	-0.150
2020/01/31 08:42:48.1	313.390	0.320	-0.770	-0.140
2020/01/31 08:42:48.2	313.410	0.330	-0.760	-0.130
2020/01/31 08:42:48.3	313.430	0.330	-0.740	-0.110
2020/01/31 08:42:48.4	313.450	0.330	-0.720	-0.090
2020/01/31 08:42:48.5	313.470	0.330	-0.700	-0.080
2020/01/31 08:42:48.6	313.490	0.330	-0.680	-0.060
2020/01/31 08:42:48.7	313.510	0.330	-0.650	-0.040
2020/01/31 08:42:48.8	313.530	0.320	-0.610	-0.020
2020/01/31 08:42:48.9	313.550	0.310	-0.580	0.000
2020/01/31 08:42:49.0	313.560	0.300	-0.540	0.020
2020/01/31 08:42:49.1	313.580	0.290	-0.490	0.050
2020/01/31 08:42:49.2	313.590	0.270	-0.450	0.070
2020/01/31 08:42:49.3	313.610	0.260	-0.400	0.100
2020/01/31 08:42:49.4	313.610	0.240	-0.350	0.120
2020/01/31 08:42:49.5	313.620	0.220	-0.300	0.140
2020/01/31 08:42:49.6	313.630	0.200	-0.250	0.170
2020/01/31 08:42:49.7	313.630	0.170	-0.190	0.200
2020/01/31 08:42:49.8	313.640	0.150	-0.140	0.230
2020/01/31 08:42:49.9	313.640	0.130	-0.080	0.260
2020/01/31 08:42:50.0	313.640	0.100	-0.030	0.290
2020/01/31 08:42:50.1	313.640	0.080	0.020	0.310
2020/01/31 08:42:50.2	313.640	0.050	0.070	0.340
2020/01/31 08:42:50.3	313.630	0.020	0.120	0.370
2020/01/31 08:42:50.4	313.620	-0.000	0.170	0.410
2020/01/31 08:42:50.5	313.610	-0.030	0.210	0.440
2020/01/31 08:42:50.6	313.590	-0.060	0.250	0.460
2020/01/31 08:42:50.7	313.580	-0.080	0.290	0.490
2020/01/31 08:42:50.8	313.550	-0.110	0.320	0.520
2020/01/31 08:42:50.9	313.530	-0.130	0.350	0.550
2020/01/31 08:42:51.0	313.500	-0.150	0.380	0.570
2020/01/31 08:42:51.1	313.470	-0.180	0.400	0.600
2020/01/31 08:42:51.2	313.440	-0.200	0.410	0.620
2020/01/31 08:42:51.3	313.410	-0.220	0.430	0.640
2020/01/31 08:42:51.4	313.370	-0.240	0.430	0.650
2020/01/31 08:42:51.5	313.340	-0.250	0.430	0.670
2020/01/31 08:42:51.6	313.300	-0.270	0.430	0.680
2020/01/31 08:42:51.7	313.260	-0.280	0.420	0.690
2020/01/31 08:42:51.8	313.220	-0.290	0.410	0.700
2020/01/31 08:42:51.9	313.180	-0.300	0.390	0.710
2020/01/31 08:42:52.0	313.140	-0.310	0.370	0.710
2020/01/31 08:42:52.1	313.100	-0.320	0.340	0.710
2020/01/31 08:42:52.2	313.060	-0.320	0.310	0.710
2020/01/31 08:42:52.3	313.030	-0.320	0.270	0.700
2020/01/31 08:42:52.4	312.990	-0.320	0.230	0.690
2020/01/31 08:42:52.5	312.960	-0.310	0.190	0.680
2020/01/31 08:42:52.6	312.930	-0.310	0.140	0.670
2020/01/31 08:42:52.7	312.900	-0.300	0.090	0.650
2020/01/31 08:42:52.8	312.870	-0.290	0.040	0.640
2020/01/31 08:42:52.9	312.840	-0.280	-0.020	0.620
2020/01/31 08:42:53.0	312.820	-0.260	-0.070	0.590
2020/01/31 08:42:53.1	312.800	-0.240	-0.130	0.570
2020/01/31 08:42:53.2	312.770	-0.230	-0.190	0.540
2020/01/31 08:42:53.3	312.760	-0.210	-0.250	0.510
2020/01/31 08:42:53.4	312.740	-0.180	-0.310	0.480
2020/01/31 08:42:53.5	312.730	-0.160	-0.360	0.450
2020/01/31 08:42:53.6	312.720	-0.140	-0.420	0.420
2020/01/31 08:42:53.7	312.710	-0.110	-0.470	0.390
2020/01/31 08:42:53.8	312.700	-0.090	-0.530	0.360
2020/01/31 08:42:53.9	312.690	-0.060	-0.580	0.320
2020/01/31 08:42:54.0	312.680	-0.040	-0.620	0.290
2020/01/31 08:42:54.1	312.680	-0.010	-0.660	0.260
2020/01/31 08:42:54.2	312.680	0.010	-0.700	0.220
2020/01/31 08:42:54.3	312.680	0.030	-0.730	0.190
2020/01/31 08:42:54.4	312.670	0.060	-0.760	0.160
2020/01/31 08:42:54.5	312.670	0.080	-0.790	0.130
2020/01/31 08:42:54.6	312.670	0.100	-0.800	0.110
2020/01/31 08:42:54.7	312.680	0.120	-0.820	0.080
2020/01/31 08:42:54.8	312.680	0.140	-0.820	0.050
2020/01/31 08:42:54.9	312.690	0.160	-0.830	0.030
2020/01/31 08:42:55.0	312.700	0.180	-0.820	0.000
2020/01/31 08:42:55.1	312.710	0.200	-0.820	-0.020
2020/01/31 08:42:55.2	312.730	0.210	-0.810	-0.040
2020/01/31 08:42:55.3	312.740	0.220	-0.790	-0.060
2020/01/31 08:42:55.4	312.760	0.230	-0.770	-0.080
2020/01/31 08:42:55.5	312.780	0.240	-0.750	-0.100
2020/01/31 08:42:55.6	312.800	0.250	-0.730	-0.120
2020/01/31 08:42:55.7	312.830	0.260	-0.710	-0.130
2020/01/31 08:42:55.8	312.860	0.260	-0.690	-0.150
2020/01/31 08:42:55.9	312.880	0.260	-0.660	-0.170
2020/01/31 08:42:56.0	312.920	0.270	-0.640	-0.180
2020/01/31 08:42:56.1	312.950	0.270	-0.610	-0.200
2020/01/31 08:42:56.2	312.980	0.270	-0.580	-0.210
2020/01/31 08:42:56.3	313.020	0.260	-0.560	-0.230
2020/01/31 08:42:56.4	313.060	0.260	-0.540	-0.240
2020/01/31 08:42:56.5	313.090	0.260	-0.510	-0.250
2020/01/31 08:42:56.6	313.130	0.250	-0.490	-0.270
2020/01/31 08:42:56.7	313.170	0.240	-0.460	-0.280
2020/01/31 08:42:56.8	313.210	0.240	-0.440	-0.290
2020/01/31 08:42:56.9	313.250	0.230	-0.420	-0.290
2020/01/31 08:42:57.0	313.280	0.220	-0.390	-0.300
2020/01/31 08:42:57.1	313.320	0.210	-0.370	-0.300
2020/01/31 08:42:57.2	313.350	0.200	-0.350	-0.310
2020/01/31 08:42:57.3	313.390	0.190	-0.320	-0.310
2020/01/31 08:42:57.4	313.430	0.180	-0.300	-0.310
2020/01/31 08:42:57.5	313.470	0.160	-0.280	-0.300
2020/01/31 08:42:57.6	313.500	0.150	-0.260	-0.300
2020/01/31 08:42:57.7	313.530	0.140	-0.240	-0.300
2020/01/31 08:42:57.8	313.560	0.120	-0.220	-0.290
2020/01/31 08:42:57.9	313.590	0.110	-0.200	-0.280
2020/01/31 08:42:58.0	313.620	0.100	-0.180	-0.270
2020/01/31 08:42:58.1	313.640	0.080	-0.160	-0.260
2020/01/31 08:42:58.2	313.670	0.070	-0.140	-0.250
2020/01/31 08:42:58.3	313.690	0.050	-0.120	-0.240
2020/01/31 08:42:58.4	313.730	0.040	-0.100	-0.220
2020/01/31 08:42:58.5	313.740	0.020	-0.080	-0.210
2020/01/31 08:42:58.6	313.760	0.010	-0.060	-0.190
2020/01/31 08:42:58.7	313.770	-0.010	-0.040	-0.170
2020/01/31 08:42:58.8	313.780	-0.020	-0.020	-0.150
2020/01/31 08:42:58.9	313.780	-0.040	0.010	-0.120
2020/01/31 08:42:59.0	313.790	-0.050	0.030	-0.100
2020/01/31 08:42:59.1	313.790	-0.070	0.050	-0.080
2020/01/31 08:42:59.2	313.790	-0.080	0.070	-0.050
2020/01/31 08:42:59.3	313.780	-0.100	0.090	-0.030
2020/01/31 08:42:59.4	313.780	-0.110	0.110	-0.010
2020/01/31 08:42:59.5	313.770	-0.120	0.130	0.020
2020/01/31 08:42:59.6	313.760	-0.140	0.150	0.040
2020/01/31 08:42:59.7	313.750	-0.150	0.160	0.070
2020/01/31 08:42:59.8	313.730	-0.160	0.180	0.090
2020/01/31 08:42:59.9	313.720	-0.180	0.200	0.120
2020/01/31 08:43:00.0	313.700	-0.190	0.210	0.140
2020/01/31 08:43:00.1	313.680	-0.200	0.220	0.170
2020/01/31 08:43:00.2	313.660	-0.210	0.230	0.190
2020/01/31 08:43:00.3	313.630	-0.220	0.240	0.210
2020/01/31 08:43:00.4	313.600	-0.230	0.250	0.240
2020/01/31 08:43:00.5	313.570	-0.240	0.260	0.260
2020/01/31 08:43:00.6	313.540	-0.240	0.260	0.280
2020/01/31 08:43:00.7	313.510	-0.250	0.260	0.300
2020/01/31 08:43:00.8	313.470	-0.250	0.260	0.320
2020/01/31 08:43:00.9	313.440	-0.260	0.250	0.350
2020/01/31 08:43:01.0	313.400	-0.260	0.250	0.360
2020/01/31 08:43:01.1	313.360	-0.260	0.240	0.380
2020/01/31 08:43:01.2	313.320	-0.260	0.230	0.400
2020/01/31 08:43:01.3	313.280	-0.260	0.220	0.410
2020/01/31 08:43:01.4	313.240	-0.260	0.200	0.430
2020/01/31 08:43:01.5	313.200	-0.250	0.180	0.440
2020/01/31 08:43:01.6	313.160	-0.250	0.160	0.450
2020/01/31 08:43:01.7	313.120	-0.250	0.140	0.450
2020/01/31 08:43:01.8	313.080	-0.240	0.110	0.460
2020/01/31 08:43:01.9	313.050	-0.230	0.090	0.460
2020/01/31 08:43:02.0	313.010	-0.220	0.060	0.460
2020/01/31 08:43:02.1	312.980	-0.220	0.030	0.460
2020/01/31 08:43:02.2	312.950	-0.210	-0.010	0.450
2020/01/31 08:43:02.3	312.920	-0.200	-0.040	0.440
2020/01/31 08:43:02.4	312.880	-0.180	-0.080	0.430
2020/01/31 08:43:02.5	312.860	-0.170	-0.120	0.420
2020/01/31 08:43:02.6	312.840	-0.160	-0.160	0.400
2020/01/31 08:43:02.7	312.820	-0.150	-0.200	0.380
2020/01/31 08:43:02.8	312.800	-0.130	-0.240	0.360
2020/01/31 08:43:02.9	312.780	-0.120	-0.270	0.340
2020/01/31 08:43:03.0	312.770	-0.110	-0.310	0.310
2020/01/31 08:43:03.1	312.760	-0.090	-0.350	0.290
2020/01/31 08:43:03.2	312.750	-0.080	-0.390	0.260
2020/01/31 08:43:03.3	312.740	-0.070	-0.430	0.230
2020/01/31 08:43:03.4	312.730	-0.060	-0.470	0.200
2020/01/31 08:43:03.5	312.730	-0.040	-0.500	0.180
2020/01/31 08:43:03.6	312.720	-0.030	-0.530	0.150
2020/01/31 08:43:03.7	312.720	-0.020	-0.560	0.120
2020/01/31 08:43:03.8	312.730	-0.010	-0.590	0.090
2020/01/31 08:43:03.9	312.730	-0.000	-0.610	0.070
2020/01/31 08:43:04.0	312.730	0.010	-0.630	0.040
2020/01/31 08:43:04.1	312.740	0.010	-0.650	0.020
2020/01/31 08:43:04.2	312.740	0.020	-0.660	-0.000
2020/01/31 08:43:04.3	312.750	0.030	-0.670	-0.020
2020/01/31 08:43:04.4	312.750	0.030	-0.670	-0.040
2020/01/31 08:43:04.5	312.760	0.030	-0.680	-0.050
2020/01/31 08:43:04.6	312.770	0.030	-0.670	-0.060
2020/01/31 08:43:04.7	312.770	0.040	-0.670	-0.070
2020/01/31 08:43:04.8	312.780	0.040	-0.660	-0.070
2020/01/31 08:43:04.9	312.790	0.030	-0.640	-0.070
2020/01/31 08:43:05.0	312.790	0.030	-0.630	-0.070
2020/01/31 08:43:05.1	312.800	0.030	-0.610	-0.060
2020/01/31 08:43:05.2	312.800	0.020	-0.580	-0.050
2020/01/31 08:43:05.3	312.810	0.020	-0.560	-0.040
2020/01/31 08:43:05.4	312.810	0.010	-0.530	-0.020
2020/01/31 08:43:05.5	312.810	0.010	-0.500	0.000
2020/01/31 08:43:05.6	312.810	0.000	-0.470	0.020
2020/01/31 08:43:05.7	312.820	-0.000	-0.440	0.040
2020/01/31 08:43:05.8	312.820	-0.010	-0.420	0.060
2020/01/31 08:43:05.9	312.820	-0.010	-0.390	0.090
2020/01/31 08:43:06.0	312.830	-0.020	-0.360	0.110
2020/01/31 08:43:06.1	312.830	-0.020	-0.330	0.140
2020/01/31 08:43:06.2	312.830	-0.030	-0.310	0.160
2020/01/31 08:43:06.3	312.840	-0.030	-0.290	0.180
2020/01/31 08:43:06.4	312.840	-0.030	-0.270	0.200
2020/01/31 08:43:06.5	312.840	-0.040	-0.260	0.230
2020/01/31 08:43:06.6	312.840	-0.040	-0.250	0.250
2020/01/31 08:43:06.7	312.850	-0.040	-0.240	0.270
2020/01/31 08:43:06.8	312.850	-0.030	-0.240	0.280
2020/01/31 08:43:06.9	312.860	-0.030	-0.240	0.300
2020/01/31 08:43:07.0	312.870	-0.030	-0.240	0.320
2020/01/31 08:43:07.1	312.870	-0.020	-0.250	0.330
2020/01/31 08:43:07.2	312.880	-0.010	-0.260	0.340
2020/01/31 08:43:07.3	312.890	-0.000	-0.280	0.350
2020/01/31 08:43:07.4	312.890	0.010	-0.300	0.360
2020/01/31 08:43:07.5	312.900	0.020	-0.320	0.370
2020/01/31 08:43:07.6	312.920	0.030	-0.340	0.370
2020/01/31 08:43:07.7	312.930	0.040	-0.370	0.370
2020/01/31 08:43:07.8	312.950	0.060	-0.400	0.360
2020/01/31 08:43:07.9	312.960	0.070	-0.430	0.360
2020/01/31 08:43:08.0	312.980	0.090	-0.460	0.350
2020/01/31 08:43:08.1	313.000	0.100	-0.490	0.330
2020/01/31 08:43:08.2	313.030	0.120	-0.530	0.320
2020/01/31 08:43:08.3	313.050	0.140	-0.560	0.300
2020/01/31 08:43:08.4	313.080	0.160	-0.590	0.270
2020/01/31 08:43:08.5	313.110	0.170	-0.620	0.240
2020/01/31 08:43:08.6	313.140	0.190	-0.650	0.210
2020/01/31 08:43:08.7	313.170	0.200	-0.670	0.180
2020/01/31 08:43:08.8	313.210	0.220	-0.690	0.140
2020/01/31 08:43:08.9	313.250	0.230	-0.710	0.110
2020/01/31 08:43:09.0	313.280	0.250	-0.730	0.070
2020/01/31 08:43:09.1	313.320	0.260	-0.730	0.030
2020/01/31 08:43:09.2	313.360	0.270	-0.740	-0.000
2020/01/31 08:43:09.3	313.400	0.280	-0.730	-0.040
2020/01/31 08:43:09.4	313.440	0.290	-0.730	-0.070
2020/01/31 08:43:09.5	313.480	0.290	-0.710	-0.100
2020/01/31 08:43:09.6	313.510	0.300	-0.690	-0.130
2020/01/31 08:43:09.7	313.540	0.300	-0.660	-0.150
2020/01/31 08:43:09.8	313.570	0.300	-0.620	-0.170
2020/01/31 08:43:09.9	313.590	0.290	-0.580	-0.190
2020/01/31 08:43:10.0	313.610	0.290	-0.530	-0.200
2020/01/31 08:43:10.1	313.630	0.280	-0.470	-0.200
2020/01/31 08:43:10.2	313.640	0.270	-0.410	-0.200
2020/01/31 08:43:10.3	313.650	0.260	-0.340	-0.200
2020/01/31 08:43:10.4	313.660	0.250	-0.260	-0.190
2020/01/31 08:43:10.5	313.660	0.240	-0.190	-0.180
2020/01/31 08:43:10.6	313.660	0.220	-0.110	-0.160
2020/01/31 08:43:10.7	313.660	0.200	-0.020	-0.140
2020/01/31 08:43:10.8	313.650	0.190	0.060	-0.120
2020/01/31 08:43:10.9	313.640	0.170	0.150	-0.090
2020/01/31 08:43:11.0	313.630	0.150	0.230	-0.060
2020/01/31 08:43:11.1	313.610	0.130	0.310	-0.030
2020/01/31 08:43:11.2	313.600	0.110	0.390	-0.000
2020/01/31 08:43:11.3	313.580	0.090	0.470	0.030
2020/01/31 08:43:11.4	313.570	0.070	0.540	0.060
2020/01/31 08:43:11.5	313.540	0.050	0.600	0.090
2020/01/31 08:43:11.6	313.520	0.030	0.660	0.130
2020/01/31 08:43:11.7	313.490	0.010	0.720	0.150
2020/01/31 08:43:11.8	313.460	-0.010	0.760	0.180
2020/01/31 08:43:11.9	313.430	-0.030	0.800	0.210
2020/01/31 08:43:12.0	313.400	-0.040	0.830	0.240
2020/01/31 08:43:12.1	313.370	-0.060	0.850	0.260
2020/01/31 08:43:12.2	313.330	-0.070	0.860	0.280
2020/01/31 08:43:12.3	313.300	-0.080	0.870	0.300
2020/01/31 08:43:12.4	313.270	-0.090	0.860	0.320
2020/01/31 08:43:12.5	313.230	-0.100	0.850	0.340
2020/01/31 08:43:12.6	313.190	-0.110	0.830	0.360
2020/01/31 08:43:12.7	313.160	-0.110	0.810	0.370
2020/01/31 08:43:12.8	313.110	-0.120	0.780	0.390
2020/01/31 08:43:12.9	313.070	-0.120	0.740	0.400
2020/01/31 08:43:13.0	313.030	-0.120	0.690	0.410
2020/01/31 08:43:13.1	312.990	-0.130	0.640	0.420
2020/01/31 08:43:13.2	312.950	-0.130	0.590	0.420
2020/01/31 08:43:13.3	312.900	-0.130	0.530	0.430
2020/01/31 08:43:13.4	312.860	-0.120	0.460	0.420
2020/01/31 08:43:13.5	312.820	-0.120	0.390	0.420
2020/01/31 08:43:13.6	312.780	-0.120	0.320	0.420
2020/01/31 08:43:13.7	312.740	-0.110	0.250	0.420
2020/01/31 08:43:13.8	312.700	-0.110	0.180	0.410
2020/01/31 08:43:13.9	312.660	-0.110	0.110	0.400
2020/01/31 08:43:14.0	312.630	-0.100	0.040	0.380
2020/01/31 08:43:14.1	312.590	-0.100	-0.030	0.370
2020/01/31 08:43:14.2	312.560	-0.090	-0.110	0.350
2020/01/31 08:43:14.3	312.530	-0.090	-0.180	0.330
2020/01/31 08:43:14.4	312.500	-0.080	-0.240	0.300
2020/01/31 08:43:14.5	312.470	-0.080	-0.310	0.280
2020/01/31 08:43:14.6	312.450	-0.080	-0.370	0.250
2020/01/31 08:43:14.7	312.430	-0.070	-0.430	0.220
2020/01/31 08:43:14.8	312.420	-0.070	-0.490	0.200
2020/01/31 08:43:14.9	312.400	-0.070	-0.550	0.160
2020/01/31 08:43:15.0	312.390	-0.060	-0.600	0.130
2020/01/31 08:43:15.1	312.390	-0.060	-0.650	0.100
2020/01/31 08:43:15.2	312.380	-0.060	-0.700	0.070
2020/01/31 08:43:15.3	312.380	-0.060	-0.740	0.030
2020/01/31 08:43:15.4	312.380	-0.060	-0.780	-0.000
2020/01/31 08:43:15.5	312.380	-0.060	-0.810	-0.040
2020/01/31 08:43:15.6	312.390	-0.070	-0.850	-0.070
2020/01/31 08:43:15.7	312.400	-0.070	-0.880	-0.110
2020/01/31 08:43:15.8	312.410	-0.070	-0.900	-0.140
2020/01/31 08:43:15.9	312.420	-0.080	-0.930	-0.180
2020/01/31 08:43:16.0	312.430	-0.080	-0.950	-0.220
2020/01/31 08:43:16.1	312.450	-0.090	-0.970	-0.250
2020/01/31 08:43:16.2	312.460	-0.100	-0.990	-0.290
2020/01/31 08:43:16.3	312.480	-0.110	-1.000	-0.330
2020/01/31 08:43:16.4	312.510	-0.120	-1.010	-0.360
2020/01/31 08:43:16.5	312.530	-0.120	-1.020	-0.390
2020/01/31 08:43:16.6	312.560	-0.130	-1.030	-0.430
2020/01/31 08:43:16.7	312.590	-0.140	-1.040	-0.460
2020/01/31 08:43:16.8	312.620	-0.150	-1.040	-0.500
2020/01/31 08:43:16.9	312.650	-0.160	-1.040	-0.530
2020/01/31 08:43:17.0	312.690	-0.170	-1.040	-0.570
2020/01/31 08:43:17.1	312.730	-0.180	-1.040	-0.600
2020/01/31 08:43:17.2	312.760	-0.190	-1.040	-0.630
2020/01/31 08:43:17.3	312.800	-0.200	-1.040	-0.660
2020/01/31 08:43:17.4	312.840	-0.210	-1.030	-0.690
2020/01/31 08:43:17.5	312.880	-0.220	-1.020	-0.710
2020/01/31 08:43:17.6	312.930	-0.220	-1.010	-0.730
2020/01/31 08:43:17.7	312.970	-0.230	-1.000	-0.750
2020/01/31 08:43:17.8	313.010	-0.230	-0.990	-0.770
2020/01/31 08:43:17.9	313.050	-0.230	-0.980	-0.780
2020/01/31 08:43:18.0	313.090	-0.230	-0.960	-0.790
2020/01/31 08:43:18.1	313.130	-0.230	-0.940	-0.790
2020/01/31 08:43:18.2	313.170	-0.230	-0.920	-0.790
2020/01/31 08:43:18.3	313.210	-0.230	-0.900	-0.780
2020/01/31 08:43:18.4	313.240	-0.220	-0.870	-0.770
2020/01/31 08:43:18.5	313.270	-0.210	-0.840	-0.760
2020/01/31 08:43:18.6	313.300	-0.200	-0.810	-0.740
2020/01/31 08:43:18.7	313.330	-0.190	-0.770	-0.720
2020/01/31 08:43:18.8	313.350	-0.180	-0.730	-0.690
2020/01/31 08:43:18.9	313.370	-0.170	-0.690	-0.650
2020/01/31 08:43:19.0	313.390	-0.150	-0.640	-0.610
2020/01/31 08:43:19.1	313.400	-0.140	-0.590	-0.570
2020/01/31 08:43:19.2	313.410	-0.120	-0.540	-0.530
2020/01/31 08:43:19.3	313.420	-0.100	-0.490	-0.480
2020/01/31 08:43:19.4	313.440	-0.080	-0.440	-0.420
2020/01/31 08:43:19.5	313.440	-0.060	-0.380	-0.370
2020/01/31 08:43:19.6	313.450	-0.040	-0.320	-0.310
2020/01/31 08:43:19.7	313.450	-0.020	-0.260	-0.250
2020/01/31 08:43:19.8	313.450	-0.000	-0.200	-0.190
2020/01/31 08:43:19.9	313.450	0.020	-0.150	-0.130
2020/01/31 08:43:20.0	313.440	0.040	-0.090	-0.070
2020/01/31 08:43:20.1	313.440	0.060	-0.030	-0.000
2020/01/31 08:43:20.2	313.440	0.080	0.020	0.060
2020/01/31 08:43:20.3	313.430	0.090	0.070	0.120
2020/01/31 08:43:20.4	313.430	0.110	0.120	0.180
2020/01/31 08:43:20.5	313.430	0.130	0.170	0.240
2020/01/31 08:43:20.6	313.420	0.140	0.210	0.300
2020/01/31 08:43:20.7	313.420	0.150	0.250	0.350
2020/01/31 08:43:20.8	313.410	0.170	0.280	0.400
2020/01/31 08:43:20.9	313.410	0.180	0.310	0.450
2020/01/31 08:43:21.0	313.400	0.180	0.340	0.500
2020/01/31 08:43:21.1	313.400	0.190	0.360	0.540
2020/01/31 08:43:21.2	313.390	0.200	0.380	0.580
2020/01/31 08:43:21.3	313.380	0.200	0.390	0.610
2020/01/31 08:43:21.4	313.370	0.200	0.410	0.640
2020/01/31 08:43:21.5	313.360	0.200	0.410	0.670
2020/01/31 08:43:21.6	313.350	0.200	0.420	0.700
2020/01/31 08:43:21.7	313.340	0.200	0.420	0.720
2020/01/31 08:43:21.8	313.330	0.190	0.420	0.740
2020/01/31 08:43:21.9	313.320	0.180	0.410	0.750
2020/01/31 08:43:22.0	313.300	0.180	0.410	0.770
2020/01/31 08:43:22.1	313.290	0.170	0.400	0.770
2020/01/31 08:43:22.2	313.270	0.160	0.390	0.780
2020/01/31 08:43:22.3	313.260	0.150	0.380	0.780
2020/01/31 08:43:22.4	313.240	0.140	0.360	0.770
2020/01/31 08:43:22.5	313.230	0.130	0.350	0.770
2020/01/31 08:43:22.6	313.210	0.110	0.330	0.760
2020/01/31 08:43:22.7	313.190	0.100	0.320	0.750
2020/01/31 08:43:22.8	313.170	0.090	0.300	0.740
2020/01/31 08:43:22.9	313.150	0.070	0.290	0.730
2020/01/31 08:43:23.0	313.130	0.060	0.270	0.710
2020/01/31 08:43:23.1	313.110	0.040	0.250	0.690
2020/01/31 08:43:23.2	313.090	0.030	0.230	0.680
2020/01/31 08:43:23.3	313.070	0.020	0.210	0.660
2020/01/31 08:43:23.4	313.060	0.000	0.190	0.640
2020/01/31 08:43:23.5	313.030	-0.010	0.170	0.610
2020/01/31 08:43:23.6	313.010	-0.020	0.150	0.590
2020/01/31 08:43:23.7	312.990	-0.030	0.130	0.570
2020/01/31 08:43:23.8	312.970	-0.050	0.110	0.540
2020/01/31 08:43:23.9	312.950	-0.060	0.090	0.510
2020/01/31 08:43:24.0	312.920	-0.070	0.070	0.490
2020/01/31 08:43:24.1	312.900	-0.070	0.040	0.460
2020/01/31 08:43:24.2	312.880	-0.080	0.020	0.430
2020/01/31 08:43:24.3	312.860	-0.090	-0.000	0.400
2020/01/31 08:43:24.4	312.830	-0.090	-0.020	0.360
2020/01/31 08:43:24.5	312.810	-0.090	-0.040	0.330
2020/01/31 08:43:24.6	312.790	-0.100	-0.060	0.300
2020/01/31 08:43:24.7	312.770	-0.100	-0.090	0.270
2020/01/31 08:43:24.8	312.750	-0.100	-0.110	0.240
2020/01/31 08:43:24.9	312.730	-0.090	-0.130	0.210
2020/01/31 08:43:25.0	312.710	-0.090	-0.150	0.180
2020/01/31 08:43:25.1	312.700	-0.080	-0.170	0.150
2020/01/31 08:43:25.2	312.680	-0.080	-0.190	0.120
2020/01/31 08:43:25.3	312.670	-0.070	-0.210	0.090
2020/01/31 08:43:25.4	312.650	-0.060	-0.240	0.070
2020/01/31 08:43:25.5	312.630	-0.050	-0.260	0.040
2020/01/31 08:43:25.6	312.620	-0.030	-0.270	0.020
2020/01/31 08:43:25.7	312.610	-0.020	-0.290	-0.010
2020/01/31 08:43:25.8	312.600	-0.010	-0.300	-0.030
2020/01/31 08:43:25.9	312.590	0.010	-0.320	-0.050
2020/01/31 08:43:26.0	312.590	0.020	-0.330	-0.070
2020/01/31 08:43:26.1	312.580	0.040	-0.340	-0.090
2020/01/31 08:43:26.2	312.570	0.050	-0.360	-0.110
2020/01/31 08:43:26.3	312.570	0.070	-0.370	-0.130
2020/01/31 08:43:26.4	312.570	0.080	-0.380	-0.140
2020/01/31 08:43:26.5	312.570	0.100	-0.390	-0.160
2020/01/31 08:43:26.6	312.570	0.110	-0.400	-0.170
2020/01/31 08:43:26.7	312.570	0.120	-0.410	-0.190
2020/01/31 08:43:26.8	312.570	0.140	-0.420	-0.200
2020/01/31 08:43:26.9	312.580	0.150	-0.430	-0.210
2020/01/31 08:43:27.0	312.590	0.160	-0.430	-0.220
2020/01/31 08:43:27.1	312.600	0.170	-0.440	-0.230
2020/01/31 08:43:27.2	312.610	0.180	-0.450	-0.240
2020/01/31 08:43:27.3	312.620	0.180	-0.460	-0.250
2020/01/31 08:43:27.4	312.630	0.190	-0.470	-0.260
2020/01/31 08:43:27.5	312.640	0.190	-0.480	-0.260
2020/01/31 08:43:27.6	312.660	0.200	-0.490	-0.270
2020/01/31 08:43:27.7	312.670	0.200	-0.490	-0.270
2020/01/31 08:43:27.8	312.680	0.200	-0.500	-0.270
2020/01/31 08:43:27.9	312.700	0.200	-0.500	-0.270
2020/01/31 08:43:28.0	312.710	0.190	-0.510	-0.270
2020/01/31 08:43:28.1	312.730	0.190	-0.510	-0.270
2020/01/31 08:43:28.2	312.740	0.180	-0.520	-0.270
2020/01/31 08:43:28.3	312.750	0.180	-0.520	-0.270
2020/01/31 08:43:28.4	312.750	0.170	-0.520	-0.260
2020/01/31 08:43:28.5	312.770	0.160	-0.520	-0.260
2020/01/31 08:43:28.6	312.770	0.150	-0.520	-0.250
2020/01/31 08:43:28.7	312.780	0.140	-0.520	-0.240
2020/01/31 08:43:28.8	312.790	0.130	-0.520	-0.230
2020/01/31 08:43:28.9	312.800	0.120	-0.520	-0.220
2020/01/31 08:43:29.0	312.810	0.100	-0.520	-0.210
2020/01/31 08:43:29.1	312.810	0.090	-0.520	-0.200
2020/01/31 08:43:29.2	312.820	0.070	-0.520	-0.190
2020/01/31 08:43:29.3	312.820	0.060	-0.520	-0.180
2020/01/31 08:43:29.4	312.810	0.040	-0.510	-0.170
2020/01/31 08:43:29.5	312.820	0.030	-0.510	-0.160
2020/01/31 08:43:29.6	312.820	0.010	-0.510	-0.140
2020/01/31 08:43:29.7	312.820	-0.010	-0.510	-0.130
2020/01/31 08:43:29.8	312.830	-0.020	-0.510	-0.120
2020/01/31 08:43:29.9	312.830	-0.040	-0.520	-0.100
2020/01/31 08:43:30.0	312.830	-0.060	-0.520	-0.090
2020/01/31 08:43:30.1	312.830	-0.080	-0.520	-0.080
2020/01/31 08:43:30.2	312.830	-0.090	-0.520	-0.070
2020/01/31 08:43:30.3	312.830	-0.110	-0.520	-0.060
2020/01/31 08:43:30.4	312.820	-0.130	-0.520	-0.050
2020/01/31 08:43:30.5	312.820	-0.140	-0.530	-0.040
2020/01/31 08:43:30.6	312.820	-0.160	-0.530	-0.030
2020/01/31 08:43:30.7	312.820	-0.180	-0.530	-0.020
2020/01/31 08:43:30.8	312.820	-0.190	-0.530	-0.020
2020/01/31 08:43:30.9	312.830	-0.200	-0.530	-0.010
2020/01/31 08:43:31.0	312.830	-0.220	-0.530	-0.010
2020/01/31 08:43:31.1	312.830	-0.230	-0.530	-0.000
2020/01/31 08:43:31.2	312.830	-0.240	-0.530	0.000
2020/01/31 08:43:31.3	312.840	-0.250	-0.530	0.010
2020/01/31 08:43:31.4	312.850	-0.260	-0.520	0.010
2020/01/31 08:43:31.5	312.850	-0.270	-0.520	0.010
2020/01/31 08:43:31.6	312.860	-0.280	-0.510	0.020
2020/01/31 08:43:31.7	312.870	-0.280	-0.500	0.020
2020/01/31 08:43:31.8	312.870	-0.290	-0.490	0.030
2020/01/31 08:43:31.9	312.880	-0.290	-0.480	0.040
2020/01/31 08:43:32.0	312.890	-0.290	-0.460	0.040
2020/01/31 08:43:32.1	312.890	-0.290	-0.450	0.050
2020/01/31 08:43:32.2	312.900	-0.290	-0.430	0.060
2020/01/31 08:43:32.3	312.900	-0.290	-0.410	0.070
2020/01/31 08:43:32.4	312.920	-0.290	-0.390	0.090
2020/01/31 08:43:32.5	312.920	-0.290	-0.360	0.110
2020/01/31 08:43:32.6	312.930	-0.280	-0.340	0.130
2020/01/31 08:43:32.7	312.930	-0.280	-0.310	0.150
2020/01/31 08:43:32.8	312.930	-0.270	-0.280	0.180
2020/01/31 08:43:32.9	312.920	-0.270	-0.240	0.200
2020/01/31 08:43:33.0	312.920	-0.260	-0.210	0.230
2020/01/31 08:43:33.1	312.910	-0.260	-0.170	0.270
2020/01/31 08:43:33.2	312.900	-0.250	-0.130	0.300
2020/01/31 08:43:33.3	312.890	-0.240	-0.090	0.340
2020/01/31 08:43:33.4	312.880	-0.230	-0.060	0.380
2020/01/31 08:43:33.5	312.870	-0.230	-0.020	0.420
2020/01/31 08:43:33.6	312.850	-0.220	0.020	0.460
2020/01/31 08:43:33.7	312.840	-0.210	0.060	0.510
2020/01/31 08:43:33.8	312.820	-0.200	0.100	0.550
2020/01/31 08:43:33.9	312.800	-0.190	0.130	0.590
2020/01/31 08:43:34.0	312.780	-0.180	0.170	0.640
2020/01/31 08:43:34.1	312.760	-0.170	0.200	0.680
2020/01/31 08:43:34.2	312.740	-0.150	0.240	0.730
2020/01/31 08:43:34.3	312.710	-0.140	0.260	0.770
2020/01/31 08:43:34.4	312.700	-0.130	0.290	0.810
2020/01/31 08:43:34.5	312.680	-0.110	0.310	0.840
2020/01/31 08:43:34.6	312.660	-0.100	0.330	0.880
2020/01/31 08:43:34.7	312.630	-0.080	0.350	0.910
2020/01/31 08:43:34.8	312.610	-0.060	0.360	0.950
2020/01/31 08:43:34.9	312.590	-0.050	0.370	0.970
2020/01/31 08:43:35.0	312.570	-0.030	0.380	1.000
2020/01/31 08:43:35.1	312.550	-0.010	0.380	1.020
2020/01/31 08:43:35.2	312.530	0.020	0.380	1.040
2020/01/31 08:43:35.3	312.510	0.040	0.370	1.060
2020/01/31 08:43:35.4	312.480	0.060	0.360	1.070
2020/01/31 08:43:35.5	312.460	0.080	0.340	1.080
2020/01/31 08:43:35.6	312.440	0.110	0.330	1.080
2020/01/31 08:43:35.7	312.430	0.130	0.300	1.090
2020/01/31 08:43:35.8	312.410	0.160	0.280	1.090
2020/01/31 08:43:35.9	312.390	0.180	0.250	1.080
2020/01/31 08:43:36.0	312.380	0.210	0.210	1.070
2020/01/31 08:43:36.1	312.360	0.230	0.180	1.060
2020/01/31 08:43:36.2	312.350	0.260	0.140	1.040
2020/01/31 08:43:36.3	312.340	0.280	0.100	1.020
2020/01/31 08:43:36.4	312.330	0.310	0.050	1.000
2020/01/31 08:43:36.5	312.330	0.330	0.000	0.970
2020/01/31 08:43:36.6	312.320	0.350	-0.050	0.940
2020/01/31 08:43:36.7	312.320	0.370	-0.100	0.910
2020/01/31 08:43:36.8	312.310	0.400	-0.150	0.870
2020/01/31 08:43:36.9	312.320	0.420	-0.210	0.830
2020/01/31 08:43:37.0	312.320	0.430	-0.260	0.790
2020/01/31 08:43:37.1	312.320	0.450	-0.310	0.750
2020/01/31 08:43:37.2	312.330	0.470	-0.370	0.710
2020/01/31 08:43:37.3	312.340	0.480	-0.420	0.660
2020/01/31 08:43:37.4	312.350	0.500	-0.460	0.610
2020/01/31 08:43:37.5	312.360	0.510	-0.510	0.560
2020/01/31 08:43:37.6	312.380	0.520	-0.560	0.510
2020/01/31 08:43:37.7	312.390	0.520	-0.600	0.460
2020/01/31 08:43:37.8	312.410	0.530	-0.630	0.410
2020/01/31 08:43:37.9	312.420	0.530	-0.660	0.360
2020/01/31 08:43:38.0	312.440	0.530	-0.690	0.310
2020/01/31 08:43:38.1	312.460	0.530	-0.710	0.260
2020/01/31 08:43:38.2	312.470	0.520	-0.730	0.210
2020/01/31 08:43:38.3	312.490	0.520	-0.740	0.160
2020/01/31 08:43:38.4	312.520	0.500	-0.740	0.110
2020/01/31 08:43:38.5	312.530	0.490	-0.740	0.060
2020/01/31 08:43:38.6	312.550	0.470	-0.730	0.010
2020/01/31 08:43:38.7	312.570	0.450	-0.720	-0.030
2020/01/31 08:43:38.8	312.590	0.430	-0.700	-0.070
2020/01/31 08:43:38.9	312.610	0.400	-0.680	-0.110
2020/01/31 08:43:39.0	312.630	0.370	-0.650	-0.150
2020/01/31 08:43:39.1	312.640	0.340	-0.610	-0.190
2020/01/31 08:43:39.2	312.660	0.300	-0.570	-0.220
2020/01/31 08:43:39.3	312.680	0.270	-0.520	-0.260
2020/01/31 08:43:39.4	312.690	0.230	-0.470	-0.290
2020/01/31 08:43:39.5	312.710	0.180	-0.420	-0.310
2020/01/31 08:43:39.6	312.720	0.140	-0.360	-0.330
2020/01/31 08:43:39.7	312.730	0.090	-0.310	-0.350
2020/01/31 08:43:39.8	312.740	0.040	-0.250	-0.370
2020/01/31 08:43:39.9	312.740	-0.010	-0.180	-0.390
2020/01/31 08:43:40.0	312.750	-0.060	-0.120	-0.400
2020/01/31 08:43:40.1	312.750	-0.110	-0.060	-0.410
2020/01/31 08:43:40.2	312.750	-0.170	0.000	-0.410
2020/01/31 08:43:40.3	312.760	-0.220	0.060	-0.420
2020/01/31 08:43:40.4	312.750	-0.270	0.120	-0.420
2020/01/31 08:43:40.5	312.750	-0.330	0.170	-0.420
2020/01/31 08:43:40.6	312.750	-0.380	0.230	-0.420
2020/01/31 08:43:40.7	312.740	-0.430	0.270	-0.420
2020/01/31 08:43:40.8	312.730	-0.480	0.310	-0.410
2020/01/31 08:43:40.9	312.730	-0.530	0.350	-0.410
2020/01/31 08:43:41.0	312.720	-0.580	0.380	-0.400
2020/01/31 08:43:41.1	312.710	-0.620	0.410	-0.400
2020/01/31 08:43:41.2	312.700	-0.660	0.430	-0.390
2020/01/31 08:43:41.3	312.690	-0.700	0.440	-0.390
2020/01/31 08:43:41.4	312.680	-0.740	0.440	-0.390
2020/01/31 08:43:41.5	312.670	-0.770	0.440	-0.380
2020/01/31 08:43:41.6	312.650	-0.790	0.440	-0.380
2020/01/31 08:43:41.7	312.640	-0.820	0.420	-0.370
2020/01/31 08:43:41.8	312.630	-0.830	0.400	-0.370
2020/01/31 08:43:41.9	312.620	-0.850	0.380	-0.370
2020/01/31 08:43:42.0	312.620	-0.860	0.350	-0.360
2020/01/31 08:43:42.1	312.610	-0.860	0.310	-0.360
2020/01/31 08:43:42.2	312.600	-0.860	0.270	-0.360
2020/01/31 08:43:42.3	312.590	-0.850	0.220	-0.350
2020/01/31 08:43:42.4	312.590	-0.840	0.170	-0.360
2020/01/31 08:43:42.5	312.580	-0.820	0.120	-0.350
2020/01/31 08:43:42.6	312.580	-0.800	0.060	-0.350
2020/01/31 08:43:42.7	312.570	-0.780	-0.000	-0.340
2020/01/31 08:43:42.8	312.570	-0.750	-0.060	-0.330
2020/01/31 08:43:42.9	312.560	-0.720	-0.130	-0.320
2020/01/31 08:43:43.0	312.560	-0.680	-0.190	-0.310
2020/01/31 08:43:43.1	312.560	-0.640	-0.260	-0.290
2020/01/31 08:43:43.2	312.550	-0.590	-0.330	-0.280
2020/01/31 08:43:43.3	312.550	-0.550	-0.390	-0.260
2020/01/31 08:43:43.4	312.540	-0.500	-0.450	-0.230
2020/01/31 08:43:43.5	312.540	-0.440	-0.510	-0.200
2020/01/31 08:43:43.6	312.530	-0.390	-0.570	-0.180
2020/01/31 08:43:43.7	312.530	-0.330	-0.630	-0.140
2020/01/31 08:43:43.8	312.520	-0.270	-0.690	-0.110
2020/01/31 08:43:43.9	312.520	-0.210	-0.740	-0.070
2020/01/31 08:43:44.0	312.510	-0.150	-0.780	-0.030
2020/01/31 08:43:44.1	312.510	-0.090	-0.830	0.020
2020/01/31 08:43:44.2	312.500	-0.030	-0.870	0.070
2020/01/31 08:43:44.3	312.500	0.030	-0.900	0.120
2020/01/31 08:43:44.4	312.490	0.090	-0.930	0.170
2020/01/31 08:43:44.5	312.480	0.150	-0.960	0.230
2020/01/31 08:43:44.6	312.480	0.210	-0.980	0.280
2020/01/31 08:43:44.7	312.470	0.260	-1.000	0.340
2020/01/31 08:43:44.8	312.470	0.320	-1.010	0.400
2020/01/31 08:43:44.9	312.470	0.370	-1.020	0.460
2020/01/31 08:43:45.0	312.460	0.420	-1.030	0.520
2020/01/31 08:43:45.1	312.460	0.470	-1.030	0.580
2020/01/31 08:43:45.2	312.460	0.520	-1.030	0.640
2020/01/31 08:43:45.3	312.460	0.560	-1.020	0.690
2020/01/31 08:43:45.4	312.460	0.600	-1.010	0.750
2020/01/31 08:43:45.5	312.470	0.640	-0.990	0.810
2020/01/31 08:43:45.6	312.470	0.670	-0.980	0.860
2020/01/31 08:43:45.7	312.470	0.700	-0.960	0.910
2020/01/31 08:43:45.8	312.470	0.730	-0.930	0.960
2020/01/31 08:43:45.9	312.480	0.750	-0.910	1.000
2020/01/31 08:43:46.0	312.480	0.770	-0.880	1.040
2020/01/31 08:43:46.1	312.490	0.790	-0.840	1.080
2020/01/31 08:43:46.2	312.490	0.800	-0.810	1.120
2020/01/31 08:43:46.3	312.490	0.810	-0.770	1.150
2020/01/31 08:43:46.4	312.500	0.820	-0.730	1.180
2020/01/31 08:43:46.5	312.500	0.820	-0.690	1.210
2020/01/31 08:43:46.6	312.510	0.820	-0.640	1.230
2020/01/31 08:43:46.7	312.510	0.820	-0.600	1.250
2020/01/31 08:43:46.8	312.520	0.810	-0.550	1.270
2020/01/31 08:43:46.9	312.520	0.810	-0.500	1.280
2020/01/31 08:43:47.0	312.530	0.790	-0.450	1.290
2020/01/31 08:43:47.1	312.530	0.780	-0.400	1.290
2020/01/31 08:43:47.2	312.540	0.760	-0.350	1.290
2020/01/31 08:43:47.3	312.550	0.740	-0.290	1.290
2020/01/31 08:43:47.4	312.550	0.710	-0.240	1.280
2020/01/31 08:43:47.5	312.560	0.690	-0.190	1.270
2020/01/31 08:43:47.6	312.570	0.660	-0.140	1.260
2020/01/31 08:43:47.7	312.580	0.630	-0.090	1.240
2020/01/31 08:43:47.8	312.590	0.600	-0.040	1.220
2020/01/31 08:43:47.9	312.600	0.570	0.000	1.190
2020/01/31 08:43:48.0	312.610	0.530	0.050	1.160
2020/01/31 08:43:48.1	312.630	0.500	0.090	1.130
2020/01/31 08:43:48.2	312.640	0.460	0.130	1.090
2020/01/31 08:43:48.3	312.660	0.420	0.160	1.050
2020/01/31 08:43:48.4	312.680	0.390	0.190	1.010
2020/01/31 08:43:48.5	312.700	0.350	0.220	0.960
2020/01/31 08:43:48.6	312.720	0.310	0.250	0.910
2020/01/31 08:43:48.7	312.730	0.270	0.280	0.860
2020/01/31 08:43:48.8	312.750	0.230	0.300	0.810
2020/01/31 08:43:48.9	312.770	0.190	0.310	0.750
2020/01/31 08:43:49.0	312.790	0.150	0.330	0.690
2020/01/31 08:43:49.1	312.810	0.110	0.340	0.640
2020/01/31 08:43:49.2	312.830	0.080	0.350	0.580
2020/01/31 08:43:49.3	312.840	0.040	0.360	0.520
2020/01/31 08:43:49.4	312.870	0.000	0.360	0.460
2020/01/31 08:43:49.5	312.890	-0.040	0.370	0.400
2020/01/31 08:43:49.6	312.900	-0.070	0.370	0.350
2020/01/31 08:43:49.7	312.920	-0.110	0.370	0.290
2020/01/31 08:43:49.8	312.930	-0.140	0.360	0.240
2020/01/31 08:43:49.9	312.940	-0.170	0.360	0.190
2020/01/31 08:43:50.0	312.950	-0.210	0.350	0.140
2020/01/31 08:43:50.1	312.960	-0.240	0.340	0.090
2020/01/31 08:43:50.2	312.960	-0.270	0.340	0.050
2020/01/31 08:43:50.3	312.970	-0.290	0.330	0.000
2020/01/31 08:43:50.4	312.970	-0.320	0.320	-0.040
2020/01/31 08:43:50.5	312.970	-0.350	0.310	-0.080
2020/01/31 08:43:50.6	312.970	-0.370	0.300	-0.120
2020/01/31 08:43:50.7	312.970	-0.400	0.280	-0.150
2020/01/31 08:43:50.8	312.960	-0.420	0.270	-0.180
2020/01/31 08:43:50.9	312.960	-0.440	0.250	-0.210
2020/01/31 08:43:51.0	312.950	-0.460	0.240	-0.240
2020/01/31 08:43:51.1	312.940	-0.480	0.220	-0.270
2020/01/31 08:43:51.2	312.930	-0.490	0.200	-0.290
2020/01/31 08:43:51.3	312.920	-0.510	0.180	-0.320
2020/01/31 08:43:51.4	312.890	-0.520	0.160	-0.340
2020/01/31 08:43:51.5	312.880	-0.540	0.140	-0.360
2020/01/31 08:43:51.6	312.870	-0.550	0.120	-0.380
2020/01/31 08:43:51.7	312.850	-0.560	0.100	-0.390
2020/01/31 08:43:51.8	312.840	-0.570	0.070	-0.410
2020/01/31 08:43:51.9	312.830	-0.570	0.050	-0.420
2020/01/31 08:43:52.0	312.810	-0.580	0.020	-0.440
2020/01/31 08:43:52.1	312.800	-0.590	-0.010	-0.450
2020/01/31 08:43:52.2	312.790	-0.590	-0.040	-0.470
2020/01/31 08:43:52.3	312.780	-0.590	-0.070	-0.480
2020/01/31 08:43:52.4	312.760	-0.590	-0.100	-0.500
2020/01/31 08:43:52.5	312.750	-0.590	-0.140	-0.520
2020/01/31 08:43:52.6	312.750	-0.590	-0.180	-0.540
2020/01/31 08:43:52.7	312.740	-0.590	-0.210	-0.560
2020/01/31 08:43:52.8	312.740	-0.590	-0.250	-0.580
2020/01/31 08:43:52.9	312.750	-0.580	-0.290	-0.600
2020/01/31 08:43:53.0	312.750	-0.580	-0.320	-0.620
2020/01/31 08:43:53.1	312.760	-0.570	-0.360	-0.640
2020/01/31 08:43:53.2	312.770	-0.560	-0.400	-0.660
2020/01/31 08:43:53.3	312.770	-0.550	-0.430	-0.680
2020/01/31 08:43:53.4	312.780	-0.540	-0.470	-0.690
2020/01/31 08:43:53.5	312.790	-0.530	-0.500	-0.710
2020/01/31 08:43:53.6	312.800	-0.520	-0.530	-0.720
2020/01/31 08:43:53.7	312.810	-0.500	-0.560	-0.730
2020/01/31 08:43:53.8	312.820	-0.490	-0.580	-0.740
2020/01/31 08:43:53.9	312.830	-0.480	-0.600	-0.750
2020/01/31 08:43:54.0	312.840	-0.460	-0.620	-0.750
2020/01/31 08:43:54.1	312.850	-0.440	-0.630	-0.750
2020/01/31 08:43:54.2	312.860	-0.420	-0.640	-0.740
2020/01/31 08:43:54.3	312.870	-0.400	-0.650	-0.730
2020/01/31 08:43:54.4	312.880	-0.380	-0.650	-0.720
2020/01/31 08:43:54.5	312.890	-0.360	-0.650	-0.700
2020/01/31 08:43:54.6	312.890	-0.340	-0.640	-0.680
2020/01/31 08:43:54.7	312.900	-0.320	-0.630	-0.650
2020/01/31 08:43:54.8	312.900	-0.290	-0.620	-0.630
2020/01/31 08:43:54.9	312.900	-0.270	-0.610	-0.590
2020/01/31 08:43:55.0	312.900	-0.240	-0.590	-0.560
2020/01/31 08:43:55.1	312.900	-0.210	-0.570	-0.520
2020/01/31 08:43:55.2	312.900	-0.190	-0.550	-0.480
2020/01/31 08:43:55.3	312.900	-0.160	-0.520	-0.430
2020/01/31 08:43:55.4	312.900	-0.130	-0.490	-0.390
2020/01/31 08:43:55.5	312.890	-0.100	-0.470	-0.340
2020/01/31 08:43:55.6	312.890	-0.070	-0.440	-0.280
2020/01/31 08:43:55.7	312.890	-0.030	-0.410	-0.230
2020/01/31 08:43:55.8	312.880	-0.000	-0.390	-0.170
2020/01/31 08:43:55.9	312.870	0.030	-0.360	-0.110
2020/01/31 08:43:56.0	312.870	0.070	-0.340	-0.050
2020/01/31 08:43:56.1	312.860	0.100	-0.310	0.010
2020/01/31 08:43:56.2	312.850	0.130	-0.290	0.070
2020/01/31 08:43:56.3	312.850	0.170	-0.270	0.140
2020/01/31 08:43:56.4	312.840	0.200	-0.250	0.210
2020/01/31 08:43:56.5	312.840	0.240	-0.230	0.270
2020/01/31 08:43:56.6	312.830	0.270	-0.210	0.330
2020/01/31 08:43:56.7	312.820	0.300	-0.200	0.400
2020/01/31 08:43:56.8	312.810	0.330	-0.190	0.460
2020/01/31 08:43:56.9	312.810	0.360	-0.180	0.520
2020/01/31 08:43:57.0	312.800	0.390	-0.180	0.580
2020/01/31 08:43:57.1	312.800	0.420	-0.170	0.630
2020/01/31 08:43:57.2	312.790	0.450	-0.170	0.680
2020/01/31 08:43:57.3	312.790	0.470	-0.170	0.730
2020/01/31 08:43:57.4	312.780	0.500	-0.180	0.780
2020/01/31 08:43:57.5	312.780	0.520	-0.180	0.820
2020/01/31 08:43:57.6	312.780	0.540	-0.190	0.860
2020/01/31 08:43:57.7	312.790	0.560	-0.190	0.900
2020/01/31 08:43:57.8	312.790	0.580	-0.200	0.930
2020/01/31 08:43:57.9	312.790	0.600	-0.210	0.960
2020/01/31 08:43:58.0	312.800	0.610	-0.220	0.990
2020/01/31 08:43:58.1	312.800	0.620	-0.230	1.020
2020/01/31 08:43:58.2	312.810	0.630	-0.240	1.050
2020/01/31 08:43:58.3	312.810	0.640	-0.250	1.070
2020/01/31 08:43:58.4	312.810	0.650	-0.260	1.090
2020/01/31 08:43:58.5	312.810	0.650	-0.260	1.110
2020/01/31 08:43:58.6	312.810	0.660	-0.270	1.130
2020/01/31 08:43:58.7	312.810	0.660	-0.280	1.140
2020/01/31 08:43:58.8	312.810	0.650	-0.280	1.160
2020/01/31 08:43:58.9	312.810	0.650	-0.290	1.170
2020/01/31 08:43:59.0	312.810	0.650	-0.290	1.180
2020/01/31 08:43:59.1	312.810	0.640	-0.290	1.180
2020/01/31 08:43:59.2	312.800	0.630	-0.300	1.180
2020/01/31 08:43:59.3	312.800	0.620	-0.300	1.180
2020/01/31 08:43:59.4	312.800	0.610	-0.300	1.170
2020/01/31 08:43:59.5	312.800	0.590	-0.300	1.160
2020/01/31 08:43:59.6	312.800	0.580	-0.310	1.150
2020/01/31 08:43:59.7	312.800	0.560	-0.310	1.130
2020/01/31 08:43:59.8	312.800	0.540	-0.320	1.110
2020/01/31 08:43:59.9	312.800	0.520	-0.320	1.080
2020/01/31 08:44:00.0	312.800	0.500	-0.330	1.050
2020/01/31 08:44:00.1	312.810	0.480	-0.340	1.010
2020/01/31 08:44:00.2	312.810	0.450	-0.350	0.970
2020/01/31 08:44:00.3	312.820	0.430	-0.360	0.920
2020/01/31 08:44:00.4	312.830	0.400	-0.370	0.870
2020/01/31 08:44:00.5	312.840	0.380	-0.380	0.820
2020/01/31 08:44:00.6	312.850	0.350	-0.390	0.760
2020/01/31 08:44:00.7	312.870	0.320	-0.410	0.700
2020/01/31 08:44:00.8	312.880	0.300	-0.420	0.630
2020/01/31 08:44:00.9	312.890	0.270	-0.430	0.570
2020/01/31 08:44:01.0	312.910	0.240	-0.440	0.500
2020/01/31 08:44:01.1	312.930	0.210	-0.450	0.430
2020/01/31 08:44:01.2	312.940	0.180	-0.460	0.360
2020/01/31 08:44:01.3	312.960	0.150	-0.470	0.290
2020/01/31 08:44:01.4	313.000	0.120	-0.480	0.220
2020/01/31 08:44:01.5	313.020	0.090	-0.480	0.140
2020/01/31 08:44:01.6	313.040	0.060	-0.490	0.070
2020/01/31 08:44:01.7	313.060	0.030	-0.490	0.000
2020/01/31 08:44:01.8	313.080	0.000	-0.490	-0.070
2020/01/31 08:44:01.9	313.100	-0.030	-0.490	-0.140
2020/01/31 08:44:02.0	313.120	-0.050	-0.480	-0.210
2020/01/31 08:44:02.1	313.140	-0.080	-0.470	-0.270
2020/01/31 08:44:02.2	313.150	-0.110	-0.460	-0.330
2020/01/31 08:44:02.3	313.170	-0.140	-0.450	-0.390
2020/01/31 08:44:02.4	313.170	-0.170	-0.430	-0.450
2020/01/31 08:44:02.5	313.190	-0.200	-0.410	-0.500
2020/01/31 08:44:02.6	313.200	-0.220	-0.390	-0.550
2020/01/31 08:44:02.7	313.210	-0.250	-0.360	-0.590
2020/01/31 08:44:02.8	313.220	-0.270	-0.330	-0.630
2020/01/31 08:44:02.9	313.230	-0.300	-0.300	-0.660
2020/01/31 08:44:03.0	313.240	-0.320	-0.270	-0.690
2020/01/31 08:44:03.1	313.240	-0.340	-0.230	-0.710
2020/01/31 08:44:03.2	313.250	-0.360	-0.200	-0.730
2020/01/31 08:44:03.3	313.250	-0.380	-0.160	-0.740
2020/01/31 08:44:03.4	313.250	-0.400	-0.120	-0.750
2020/01/31 08:44:03.5	313.250	-0.420	-0.080	-0.750
2020/01/31 08:44:03.6	313.250	-0.440	-0.040	-0.750
2020/01/31 08:44:03.7	313.250	-0.450	0.000	-0.750
2020/01/31 08:44:03.8	313.250	-0.460	0.040	-0.740
2020/01/31 08:44:03.9	313.250	-0.480	0.080	-0.730
2020/01/31 08:44:04.0	313.240	-0.480	0.120	-0.710
2020/01/31 08:44:04.1	313.240	-0.490	0.160	-0.690
2020/01/31 08:44:04.2	313.230	-0.500	0.200	-0.670
2020/01/31 08:44:04.3	313.220	-0.500	0.240	-0.640
2020/01/31 08:44:04.4	313.220	-0.510	0.270	-0.620
2020/01/31 08:44:04.5	313.200	-0.510	0.310	-0.580
2020/01/31 08:44:04.6	313.190	-0.510	0.340	-0.540
2020/01/31 08:44:04.7	313.170	-0.510	0.360	-0.500
2020/01/31 08:44:04.8	313.150	-0.500	0.390	-0.450
2020/01/31 08:44:04.9	313.120	-0.500	0.410	-0.400
2020/01/31 08:44:05.0	313.100	-0.490	0.430	-0.350
2020/01/31 08:44:05.1	313.070	-0.480	0.450	-0.290
2020/01/31 08:44:05.2	313.040	-0.470	0.460	-0.230
2020/01/31 08:44:05.3	313.000	-0.460	0.470	-0.170
2020/01/31 08:44:05.4	312.970	-0.440	0.480	-0.100
2020/01/31 08:44:05.5	312.940	-0.430	0.480	-0.040
2020/01/31 08:44:05.6	312.900	-0.410	0.470	0.030
2020/01/31 08:44:05.7	312.870	-0.400	0.460	0.090
2020/01/31 08:44:05.8	312.830	-0.380	0.450	0.150
2020/01/31 08:44:05.9	312.800	-0.360	0.430	0.220
2020/01/31 08:44:06.0	312.760	-0.340	0.400	0.270
2020/01/31 08:44:06.1	312.730	-0.320	0.370	0.330
2020/01/31 08:44:06.2	312.700	-0.290	0.330	0.380
2020/01/31 08:44:06.3	312.670	-0.270	0.290	0.430
2020/01/31 08:44:06.4	312.630	-0.250	0.250	0.470
2020/01/31 08:44:06.5	312.600	-0.220	0.200	0.510
2020/01/31 08:44:06.6	312.580	-0.200	0.150	0.550
2020/01/31 08:44:06.7	312.550	-0.170	0.090	0.580
2020/01/31 08:44:06.8	312.530	-0.150	0.030	0.600
2020/01/31 08:44:06.9	312.510	-0.120	-0.030	0.630
2020/01/31 08:44:07.0	312.490	-0.100	-0.100	0.640
2020/01/31 08:44:07.1	312.480	-0.080	-0.160	0.650
2020/01/31 08:44:07.2	312.460	-0.050	-0.230	0.660
2020/01/31 08:44:07.3	312.450	-0.030	-0.290	0.660
2020/01/31 08:44:07.4	312.440	-0.010	-0.360	0.660
2020/01/31 08:44:07.5	312.430	0.020	-0.420	0.660
2020/01/31 08:44:07.6	312.430	0.040	-0.480	0.650
2020/01/31 08:44:07.7	312.420	0.060	-0.540	0.640
2020/01/31 08:44:07.8	312.420	0.070	-0.600	0.620
2020/01/31 08:44:07.9	312.420	0.090	-0.650	0.610
2020/01/31 08:44:08.0	312.430	0.110	-0.700	0.590
2020/01/31 08:44:08.1	312.430	0.120	-0.750	0.570
2020/01/31 08:44:08.2	312.440	0.130	-0.790	0.550
2020/01/31 08:44:08.3	312.450	0.150	-0.830	0.520
2020/01/31 08:44:08.4	312.460	0.160	-0.860	0.490
2020/01/31 08:44:08.5	312.480	0.160	-0.890	0.460
2020/01/31 08:44:08.6	312.490	0.170	-0.910	0.430
2020/01/31 08:44:08.7	312.510	0.180	-0.930	0.400
2020/01/31 08:44:08.8	312.530	0.180	-0.940	0.370
2020/01/31 08:44:08.9	312.560	0.180	-0.950	0.340
2020/01/31 08:44:09.0	312.580	0.180	-0.960	0.300
2020/01/31 08:44:09.1	312.610	0.180	-0.960	0.260
2020/01/31 08:44:09.2	312.640	0.180	-0.950	0.230
2020/01/31 08:44:09.3	312.670	0.180	-0.950	0.190
2020/01/31 08:44:09.4	312.690	0.180	-0.940	0.150
2020/01/31 08:44:09.5	312.720	0.180	-0.920	0.110
2020/01/31 08:44:09.6	312.760	0.170	-0.910	0.070
2020/01/31 08:44:09.7	312.800	0.170	-0.890	0.030
2020/01/31 08:44:09.8	312.840	0.160	-0.860	-0.010
2020/01/31 08:44:09.9	312.880	0.160	-0.840	-0.040
2020/01/31 08:44:10.0	312.920	0.150	-0.810	-0.080
2020/01/31 08:44:10.1	312.960	0.150	-0.780	-0.120
2020/01/31 08:44:10.2	313.000	0.140	-0.750	-0.160
2020/01/31 08:44:10.3	313.040	0.130	-0.720	-0.190
2020/01/31 08:44:10.4	313.080	0.130	-0.690	-0.230
2020/01/31 08:44:10.5	313.120	0.120	-0.650	-0.260
2020/01/31 08:44:10.6	313.160	0.110	-0.620	-0.290
2020/01/31 08:44:10.7	313.200	0.110	-0.580	-0.310
2020/01/31 08:44:10.8	313.230	0.100	-0.540	-0.340
2020/01/31 08:44:10.9	313.260	0.100	-0.510	-0.360
2020/01/31 08:44:11.0	313.300	0.090	-0.470	-0.380
2020/01/31 08:44:11.1	313.330	0.090	-0.440	-0.390
2020/01/31 08:44:11.2	313.360	0.080	-0.400	-0.400
2020/01/31 08:44:11.3	313.380	0.080	-0.360	-0.410
2020/01/31 08:44:11.4	313.400	0.080	-0.330	-0.410
2020/01/31 08:44:11.5	313.430	0.070	-0.300	-0.410
2020/01/31 08:44:11.6	313.450	0.070	-0.260	-0.400
2020/01/31 08:44:11.7	313.470	0.070	-0.230	-0.400
2020/01/31 08:44:11.8	313.490	0.070	-0.200	-0.390
2020/01/31 08:44:11.9	313.500	0.070	-0.170	-0.370
2020/01/31 08:44:12.0	313.520	0.070	-0.140	-0.360
2020/01/31 08:44:12.1	313.530	0.070	-0.110	-0.340
2020/01/31 08:44:12.2	313.540	0.070	-0.080	-0.320
2020/01/31 08:44:12.3	313.550	0.080	-0.060	-0.290
2020/01/31 08:44:12.4	313.570	0.080	-0.030	-0.270
2020/01/31 08:44:12.5	313.570	0.080	-0.010	-0.240
2020/01/31 08:44:12.6	313.580	0.090	0.020	-0.220
2020/01/31 08:44:12.7	313.580	0.090	0.040	-0.190
2020/01/31 08:44:12.8	313.580	0.100	0.060	-0.160
2020/01/31 08:44:12.9	313.580	0.100	0.080	-0.130
2020/01/31 08:44:13.0	313.580	0.110	0.100	-0.090
2020/01/31 08:44:13.1	313.580	0.110	0.120	-0.060
2020/01/31 08:44:13.2	313.570	0.120	0.130	-0.030
2020/01/31 08:44:13.3	313.560	0.120	0.150	0.010
2020/01/31 08:44:13.4	313.570	0.120	0.170	0.050
2020/01/31 08:44:13.5	313.560	0.120	0.180	0.080
2020/01/31 08:44:13.6	313.540	0.120	0.190	0.120
2020/01/31 08:44:13.7	313.530	0.120	0.210	0.160
2020/01/31 08:44:13.8	313.510	0.120	0.220	0.200
2020/01/31 08:44:13.9	313.490	0.120	0.230	0.240
2020/01/31 08:44:14.0	313.470	0.110	0.240	0.280
2020/01/31 08:44:14.1	313.450	0.100	0.250	0.310
2020/01/31 08:44:14.2	313.430	0.100	0.250	0.350
2020/01/31 08:44:14.3	313.400	0.090	0.260	0.390
2020/01/31 08:44:14.4	313.370	0.080	0.270	0.420
2020/01/31 08:44:14.5	313.350	0.070	0.270	0.460
2020/01/31 08:44:14.6	313.320	0.050	0.280	0.500
2020/01/31 08:44:14.7	313.290	0.040	0.280	0.530
2020/01/31 08:44:14.8	313.250	0.030	0.280	0.570
2020/01/31 08:44:14.9	313.220	0.010	0.280	0.600
2020/01/31 08:44:15.0	313.190	-0.000	0.280	0.630
2020/01/31 08:44:15.1	313.150	-0.020	0.280	0.660
2020/01/31 08:44:15.2	313.120	-0.030	0.280	0.690
2020/01/31 08:44:15.3	313.080	-0.050	0.280	0.720
2020/01/31 08:44:15.4	313.030	-0.070	0.280	0.740
2020/01/31 08:44:15.5	312.990	-0.080	0.280	0.770
2020/01/31 08:44:15.6	312.950	-0.100	0.270	0.790
2020/01/31 08:44:15.7	312.910	-0.110	0.260	0.810
2020/01/31 08:44:15.8	312.870	-0.120	0.250	0.830
2020/01/31 08:44:15.9	312.820	-0.140	0.230	0.850
2020/01/31 08:44:16.0	312.780	-0.150	0.220	0.860
2020/01/31 08:44:16.1	312.740	-0.160	0.200	0.870
2020/01/31 08:44:16.2	312.690	-0.170	0.180	0.880
2020/01/31 08:44:16.3	312.650	-0.170	0.150	0.880
2020/01/31 08:44:16.4	312.600	-0.180	0.120	0.880
2020/01/31 08:44:16.5	312.560	-0.180	0.090	0.870
2020/01/31 08:44:16.6	312.520	-0.180	0.060	0.870
2020/01/31 08:44:16.7	312.480	-0.180	0.030	0.850
2020/01/31 08:44:16.8	312.450	-0.180	-0.010	0.840
2020/01/31 08:44:16.9	312.420	-0.180	-0.050	0.810
2020/01/31 08:44:17.0	312.390	-0.170	-0.090	0.790
2020/01/31 08:44:17.1	312.360	-0.170	-0.130	0.760
2020/01/31 08:44:17.2	312.330	-0.160	-0.170	0.730
2020/01/31 08:44:17.3	312.310	-0.150	-0.220	0.700
2020/01/31 08:44:17.4	312.290	-0.130	-0.260	0.660
2020/01/31 08:44:17.5	312.270	-0.120	-0.310	0.620
2020/01/31 08:44:17.6	312.260	-0.110	-0.360	0.580
2020/01/31 08:44:17.7	312.250	-0.090	-0.400	0.540
2020/01/31 08:44:17.8	312.240	-0.070	-0.450	0.500
2020/01/31 08:44:17.9	312.230	-0.050	-0.500	0.450
2020/01/31 08:44:18.0	312.230	-0.030	-0.540	0.400
2020/01/31 08:44:18.1	312.230	-0.010	-0.590	0.350
2020/01/31 08:44:18.2	312.230	0.010	-0.630	0.300
2020/01/31 08:44:18.3	312.240	0.030	-0.670	0.250
2020/01/31 08:44:18.4	312.230	0.050	-0.710	0.190
2020/01/31 08:44:18.5	312.240	0.070	-0.750	0.140
2020/01/31 08:44:18.6	312.260	0.090	-0.780	0.080
2020/01/31 08:44:18.7	312.270	0.100	-0.810	0.030
2020/01/31 08:44:18.8	312.290	0.120	-0.840	-0.030
2020/01/31 08:44:18.9	312.300	0.140	-0.860	-0.080
2020/01/31 08:44:19.0	312.320	0.160	-0.880	-0.130
2020/01/31 08:44:19.1	312.340	0.170	-0.900	-0.190
2020/01/31 08:44:19.2	312.370	0.180	-0.910	-0.240
2020/01/31 08:44:19.3	312.390	0.200	-0.930	-0.290
2020/01/31 08:44:19.4	312.410	0.210	-0.940	-0.340
2020/01/31 08:44:19.5	312.430	0.220	-0.940	-0.390
2020/01/31 08:44:19.6	312.460	0.220	-0.950	-0.430
2020/01/31 08:44:19.7	312.490	0.230	-0.950	-0.480
2020/01/31 08:44:19.8	312.530	0.230	-0.950	-0.520
2020/01/31 08:44:19.9	312.560	0.240	-0.950	-0.560
2020/01/31 08:44:20.0	312.600	0.240	-0.940	-0.610
2020/01/31 08:44:20.1	312.630	0.240	-0.940	-0.650
2020/01/31 08:44:20.2	312.670	0.230	-0.930	-0.690
2020/01/31 08:44:20.3	312.710	0.230	-0.920	-0.720
2020/01/31 08:44:20.4	312.770	0.220	-0.920	-0.750
2020/01/31 08:44:20.5	312.810	0.220	-0.900	-0.790
2020/01/31 08:44:20.6	312.850	0.210	-0.890	-0.820
2020/01/31 08:44:20.7	312.900	0.190	-0.880	-0.850
2020/01/31 08:44:20.8	312.940	0.180	-0.860	-0.880
2020/01/31 08:44:20.9	312.990	0.170	-0.840	-0.910
2020/01/31 08:44:21.0	313.040	0.150	-0.820	-0.930
2020/01/31 08:44:21.1	313.090	0.130	-0.800	-0.960
2020/01/31 08:44:21.2	313.140	0.120	-0.780	-0.980
2020/01/31 08:44:21.3	313.190	0.100	-0.760	-1.000
2020/01/31 08:44:21.4	313.250	0.080	-0.730	-1.010
2020/01/31 08:44:21.5	313.300	0.060	-0.700	-1.030
2020/01/31 08:44:21.6	313.350	0.040	-0.670	-1.040
2020/01/31 08:44:21.7	313.390	0.010	-0.640	-1.040
2020/01/31 08:44:21.8	313.440	-0.010	-0.600	-1.040
2020/01/31 08:44:21.9	313.490	-0.030	-0.570	-1.040
2020/01/31 08:44:22.0	313.530	-0.060	-0.520	-1.030
2020/01/31 08:44:22.1	313.580	-0.080	-0.480	-1.020
2020/01/31 08:44:22.2	313.620	-0.100	-0.430	-1.010
2020/01/31 08:44:22.3	313.650	-0.130	-0.390	-0.990
2020/01/31 08:44:22.4	313.700	-0.150	-0.330	-0.960
2020/01/31 08:44:22.5	313.730	-0.180	-0.280	-0.930
2020/01/31 08:44:22.6	313.750	-0.200	-0.230	-0.890
2020/01/31 08:44:22.7	313.780	-0.220	-0.170	-0.850
2020/01/31 08:44:22.8	313.800	-0.240	-0.110	-0.810
2020/01/31 08:44:22.9	313.810	-0.260	-0.050	-0.750
2020/01/31 08:44:23.0	313.820	-0.290	0.010	-0.700
2020/01/31 08:44:23.1	313.830	-0.310	0.070	-0.640
2020/01/31 08:44:23.2	313.840	-0.320	0.140	-0.580
2020/01/31 08:44:23.3	313.840	-0.340	0.200	-0.520
2020/01/31 08:44:23.4	313.840	-0.360	0.260	-0.440
2020/01/31 08:44:23.5	313.840	-0.370	0.320	-0.370
2020/01/31 08:44:23.6	313.830	-0.380	0.380	-0.300
2020/01/31 08:44:23.7	313.820	-0.400	0.440	-0.230
2020/01/31 08:44:23.8	313.800	-0.410	0.490	-0.160
2020/01/31 08:44:23.9	313.790	-0.410	0.540	-0.080
2020/01/31 08:44:24.0	313.770	-0.420	0.590	-0.000
2020/01/31 08:44:24.1	313.740	-0.420	0.640	0.070
2020/01/31 08:44:24.2	313.710	-0.420	0.680	0.150
2020/01/31 08:44:24.3	313.680	-0.420	0.720	0.230
2020/01/31 08:44:24.4	313.650	-0.420	0.760	0.300
2020/01/31 08:44:24.5	313.620	-0.410	0.790	0.380
2020/01/31 08:44:24.6	313.580	-0.410	0.810	0.450
2020/01/31 08:44:24.7	313.540	-0.400	0.840	0.520
2020/01/31 08:44:24.8	313.500	-0.390	0.850	0.600
2020/01/31 08:44:24.9	313.450	-0.370	0.870	0.670
2020/01/31 08:44:25.0	313.410	-0.360	0.870	0.740
2020/01/31 08:44:25.1	313.360	-0.340	0.880	0.800
2020/01/31 08:44:25.2	313.310	-0.320	0.870	0.870
2020/01/31 08:44:25.3	313.260	-0.300	0.860	0.930
2020/01/31 08:44:25.4	313.210	-0.270	0.850	0.990
2020/01/31 08:44:25.5	313.150	-0.250	0.830	1.040
2020/01/31 08:44:25.6	313.100	-0.220	0.810	1.100
2020/01/31 08:44:25.7	313.040	-0.200	0.780	1.140
2020/01/31 08:44:25.8	312.980	-0.170	0.750	1.190
2020/01/31 08:44:25.9	312.920	-0.140	0.710	1.230
2020/01/31 08:44:26.0	312.870	-0.110	0.660	1.260
2020/01/31 08:44:26.1	312.810	-0.080	0.610	1.290
2020/01/31 08:44:26.2	312.750	-0.050	0.560	1.310
2020/01/31 08:44:26.3	312.700	-0.010	0.500	1.330
2020/01/31 08:44:26.4	312.640	0.020	0.440	1.330
2020/01/31 08:44:26.5	312.590	0.050	0.370	1.340
2020/01/31 08:44:26.6	312.540	0.090	0.300	1.330
2020/01/31 08:44:26.7	312.490	0.120	0.230	1.330
2020/01/31 08:44:26.8	312.440	0.150	0.150	1.310
2020/01/31 08:44:26.9	312.400	0.190	0.080	1.290
2020/01/31 08:44:27.0	312.360	0.220	-0.000	1.260
2020/01/31 08:44:27.1	312.320	0.250	-0.080	1.230
2020/01/31 08:44:27.2	312.290	0.280	-0.160	1.190
2020/01/31 08:44:27.3	312.260	0.320	-0.250	1.150
2020/01/31 08:44:27.4	312.240	0.350	-0.330	1.100
2020/01/31 08:44:27.5	312.220	0.380	-0.410	1.050
2020/01/31 08:44:27.6	312.200	0.400	-0.490	0.990
2020/01/31 08:44:27.7	312.190	0.430	-0.570	0.920
2020/01/31 08:44:27.8	312.180	0.450	-0.650	0.860
2020/01/31 08:44:27.9	312.170	0.480	-0.720	0.790
2020/01/31 08:44:28.0	312.170	0.500	-0.800	0.710
2020/01/31 08:44:28.1	312.170	0.520	-0.860	0.640
2020/01/31 08:44:28.2	312.180	0.530	-0.930	0.560
2020/01/31 08:44:28.3	312.190	0.550	-0.990	0.480
2020/01/31 08:44:28.4	312.190	0.560	-1.050	0.410
2020/01/31 08:44:28.5	312.200	0.570	-1.100	0.330
2020/01/31 08:44:28.6	312.210	0.580	-1.140	0.250
2020/01/31 08:44:28.7	312.230	0.580	-1.180	0.170
2020/01/31 08:44:28.8	312.250	0.580	-1.210	0.090
2020/01/31 08:44:28.9	312.270	0.580	-1.230	0.020
2020/01/31 08:44:29.0	312.290	0.570	-1.250	-0.060
2020/01/31 08:44:29.1	312.310	0.560	-1.250	-0.130
2020/01/31 08:44:29.2	312.330	0.550	-1.260	-0.200
2020/01/31 08:44:29.3	312.350	0.540	-1.250	-0.260
2020/01/31 08:44:29.4	312.380	0.520	-1.240	-0.330
2020/01/31 08:44:29.5	312.400	0.500	-1.220	-0.390
2020/01/31 08:44:29.6	312.430	0.480	-1.200	-0.450
2020/01/31 08:44:29.7	312.450	0.460	-1.170	-0.500
2020/01/31 08:44:29.8	312.480	0.430	-1.130	-0.560
2020/01/31 08:44:29.9	312.500	0.410	-1.090	-0.600
2020/01/31 08:44:30.0	312.520	0.380	-1.050	-0.650
2020/01/31 08:44:30.1	312.550	0.350	-1.000	-0.690
2020/01/31 08:44:30.2	312.570	0.320	-0.950	-0.730
2020/01/31 08:44:30.3	312.600	0.280	-0.900	-0.760
2020/01/31 08:44:30.4	312.620	0.250	-0.840	-0.790
2020/01/31 08:44:30.5	312.650	0.210	-0.790	-0.810
2020/01/31 08:44:30.6	312.670	0.180	-0.730	-0.840
2020/01/31 08:44:30.7	312.700	0.140	-0.670	-0.860
2020/01/31 08:44:30.8	312.720	0.110	-0.620	-0.870
2020/01/31 08:44:30.9	312.750	0.070	-0.560	-0.880
2020/01/31 08:44:31.0	312.780	0.040	-0.510	-0.890
2020/01/31 08:44:31.1	312.800	0.010	-0.450	-0.900
2020/01/31 08:44:31.2	312.830	-0.030	-0.400	-0.900
2020/01/31 08:44:31.3	312.850	-0.060	-0.350	-0.900
2020/01/31 08:44:31.4	312.880	-0.090	-0.300	-0.900
2020/01/31 08:44:31.5	312.900	-0.130	-0.260	-0.890
2020/01/31 08:44:31.6	312.930	-0.160	-0.210	-0.880
2020/01/31 08:44:31.7	312.950	-0.190	-0.180	-0.870
2020/01/31 08:44:31.8	312.980	-0.210	-0.140	-0.860
2020/01/31 08:44:31.9	313.000	-0.240	-0.110	-0.840
2020/01/31 08:44:32.0	313.020	-0.270	-0.080	-0.830
2020/01/31 08:44:32.1	313.050	-0.290	-0.060	-0.810
2020/01/31 08:44:32.2	313.070	-0.310	-0.040	-0.790
2020/01/31 08:44:32.3	313.100	-0.340	-0.030	-0.770
2020/01/31 08:44:32.4	313.120	-0.360	-0.020	-0.750
2020/01/31 08:44:32.5	313.150	-0.380	-0.010	-0.730
2020/01/31 08:44:32.6	313.170	-0.390	-0.000	-0.710
2020/01/31 08:44:32.7	313.200	-0.410	0.000	-0.690
2020/01/31 08:44:32.8	313.220	-0.430	0.000	-0.670
2020/01/31 08:44:32.9	313.250	-0.440	-0.000	-0.650
2020/01/31 08:44:33.0	313.270	-0.450	-0.010	-0.620
2020/01/31 08:44:33.1	313.290	-0.470	-0.010	-0.600
2020/01/31 08:44:33.2	313.320	-0.480	-0.020	-0.580
2020/01/31 08:44:33.3	313.340	-0.490	-0.030	-0.560
2020/01/31 08:44:33.4	313.360	-0.500	-0.030	-0.540
2020/01/31 08:44:33.5	313.380	-0.510	-0.040	-0.520
2020/01/31 08:44:33.6	313.400	-0.520	-0.050	-0.490
2020/01/31 08:44:33.7	313.410	-0.530	-0.060	-0.470
2020/01/31 08:44:33.8	313.430	-0.530	-0.060	-0.450
2020/01/31 08:44:33.9	313.450	-0.540	-0.070	-0.420
2020/01/31 08:44:34.0	313.460	-0.540	-0.080	-0.400
2020/01/31 08:44:34.1	313.470	-0.550	-0.080	-0.370
2020/01/31 08:44:34.2	313.480	-0.550	-0.080	-0.350
2020/01/31 08:44:34.3	313.490	-0.550	-0.080	-0.320
2020/01/31 08:44:34.4	313.490	-0.550	-0.080	-0.300
2020/01/31 08:44:34.5	313.500	-0.550	-0.080	-0.270
2020/01/31 08:44:34.6	313.500	-0.550	-0.070	-0.240
2020/01/31 08:44:34.7	313.490	-0.550	-0.060	-0.200
2020/01/31 08:44:34.8	313.490	-0.550	-0.050	-0.170
2020/01/31 08:44:34.9	313.480	-0.540	-0.040	-0.130
2020/01/31 08:44:35.0	313.470	-0.540	-0.020	-0.090
2020/01/31 08:44:35.1	313.460	-0.530	-0.010	-0.050
2020/01/31 08:44:35.2	313.440	-0.520	0.010	-0.010
2020/01/31 08:44:35.3	313.420	-0.510	0.030	0.040
2020/01/31 08:44:35.4	313.390	-0.500	0.050	0.090
2020/01/31 08:44:35.5	313.360	-0.480	0.070	0.140
2020/01/31 08:44:35.6	313.330	-0.460	0.090	0.190
2020/01/31 08:44:35.7	313.300	-0.450	0.110	0.240
2020/01/31 08:44:35.8	313.270	-0.430	0.130	0.300
2020/01/31 08:44:35.9	313.230	-0.400	0.140	0.350
2020/01/31 08:44:36.0	313.190	-0.380	0.160	0.410
2020/01/31 08:44:36.1	313.150	-0.350	0.170	0.470
2020/01/31 08:44:36.2	313.110	-0.320	0.180	0.520
2020/01/31 08:44:36.3	313.070	-0.290	0.190	0.580
2020/01/31 08:44:36.4	313.030	-0.250	0.190	0.630
2020/01/31 08:44:36.5	312.980	-0.220	0.190	0.690
2020/01/31 08:44:36.6	312.940	-0.180	0.190	0.750
2020/01/31 08:44:36.7	312.900	-0.130	0.190	0.800
2020/01/31 08:44:36.8	312.850	-0.090	0.180	0.850
2020/01/31 08:44:36.9	312.810	-0.040	0.160	0.900
2020/01/31 08:44:37.0	312.770	0.010	0.150	0.940
2020/01/31 08:44:37.1	312.730	0.060	0.130	0.990
2020/01/31 08:44:37.2	312.690	0.110	0.100	1.030
2020/01/31 08:44:37.3	312.650	0.160	0.080	1.060
2020/01/31 08:44:37.4	312.610	0.210	0.040	1.090
2020/01/31 08:44:37.5	312.570	0.270	0.010	1.120
2020/01/31 08:44:37.6	312.540	0.320	-0.030	1.140
2020/01/31 08:44:37.7	312.500	0.380	-0.060	1.160
2020/01/31 08:44:37.8	312.470	0.430	-0.100	1.180
2020/01/31 08:44:37.9	312.440	0.480	-0.140	1.190
2020/01/31 08:44:38.0	312.410	0.530	-0.190	1.190
2020/01/31 08:44:38.1	312.390	0.580	-0.230	1.190
2020/01/31 08:44:38.2	312.360	0.620	-0.270	1.180
2020/01/31 08:44:38.3	312.340	0.660	-0.310	1.180
2020/01/31 08:44:38.4	312.330	0.700	-0.350	1.160
2020/01/31 08:44:38.5	312.310	0.730	-0.390	1.140
2020/01/31 08:44:38.6	312.290	0.770	-0.430	1.120
2020/01/31 08:44:38.7	312.280	0.790	-0.470	1.100
2020/01/31 08:44:38.8	312.270	0.810	-0.500	1.070
2020/01/31 08:44:38.9	312.260	0.830	-0.530	1.030
2020/01/31 08:44:39.0	312.250	0.840	-0.560	1.000
2020/01/31 08:44:39.1	312.250	0.850	-0.590	0.960
2020/01/31 08:44:39.2	312.240	0.850	-0.610	0.910
2020/01/31 08:44:39.3	312.240	0.850	-0.630	0.870
2020/01/31 08:44:39.4	312.240	0.850	-0.650	0.820
2020/01/31 08:44:39.5	312.250	0.830	-0.660	0.770
2020/01/31 08:44:39.6	312.250	0.820	-0.670	0.710
2020/01/31 08:44:39.7	312.250	0.800	-0.670	0.650
2020/01/31 08:44:39.8	312.260	0.770	-0.670	0.590
2020/01/31 08:44:39.9	312.270	0.740	-0.670	0.520
2020/01/31 08:44:40.0	312.280	0.710	-0.660	0.460
2020/01/31 08:44:40.1	312.290	0.670	-0.650	0.390
2020/01/31 08:44:40.2	312.300	0.630	-0.640	0.320
2020/01/31 08:44:40.3	312.310	0.590	-0.620	0.250
2020/01/31 08:44:40.4	312.310	0.550	-0.600	0.180
2020/01/31 08:44:40.5	312.320	0.500	-0.580	0.110
2020/01/31 08:44:40.6	312.330	0.450	-0.550	0.040
2020/01/31 08:44:40.7	312.350	0.400	-0.520	-0.030
2020/01/31 08:44:40.8	312.360	0.350	-0.480	-0.090
2020/01/31 08:44:40.9	312.370	0.300	-0.450	-0.160
2020/01/31 08:44:41.0	312.390	0.240	-0.410	-0.220
2020/01/31 08:44:41.1	312.400	0.190	-0.370	-0.280
2020/01/31 08:44:41.2	312.420	0.140	-0.330	-0.340
2020/01/31 08:44:41.3	312.430	0.090	-0.290	-0.390
2020/01/31 08:44:41.4	312.440	0.040	-0.240	-0.450
2020/01/31 08:44:41.5	312.450	-0.010	-0.200	-0.500
2020/01/31 08:44:41.6	312.470	-0.060	-0.150	-0.540
2020/01/31 08:44:41.7	312.480	-0.100	-0.110	-0.590
2020/01/31 08:44:41.8	312.500	-0.150	-0.070	-0.630
2020/01/31 08:44:41.9	312.510	-0.190	-0.030	-0.660
2020/01/31 08:44:42.0	312.520	-0.230	0.000	-0.700
2020/01/31 08:44:42.1	312.540	-0.260	0.040	-0.730
2020/01/31 08:44:42.2	312.550	-0.300	0.070	-0.760
2020/01/31 08:44:42.3	312.570	-0.330	0.090	-0.780
2020/01/31 08:44:42.4	312.590	-0.360	0.110	-0.800
2020/01/31 08:44:42.5	312.600	-0.380	0.130	-0.820
2020/01/31 08:44:42.6	312.620	-0.410	0.140	-0.830
2020/01/31 08:44:42.7	312.630	-0.430	0.150	-0.840
2020/01/31 08:44:42.8	312.650	-0.440	0.160	-0.850
2020/01/31 08:44:42.9	312.660	-0.460	0.160	-0.860
2020/01/31 08:44:43.0	312.680	-0.470	0.160	-0.860
2020/01/31 08:44:43.1	312.690	-0.470	0.150	-0.860
2020/01/31 08:44:43.2	312.710	-0.480	0.130	-0.860
2020/01/31 08:44:43.3	312.720	-0.480	0.120	-0.850
2020/01/31 08:44:43.4	312.750	-0.470	0.100	-0.840
2020/01/31 08:44:43.5	312.760	-0.470	0.070	-0.830
2020/01/31 08:44:43.6	312.780	-0.460	0.050	-0.820
2020/01/31 08:44:43.7	312.790	-0.450	0.020	-0.810
2020/01/31 08:44:43.8	312.810	-0.440	-0.020	-0.800
2020/01/31 08:44:43.9	312.830	-0.420	-0.050	-0.790
2020/01/31 08:44:44.0	312.840	-0.410	-0.090	-0.770
2020/01/31 08:44:44.1	312.860	-0.390	-0.130	-0.760
2020/01/31 08:44:44.2	312.880	-0.370	-0.160	-0.740
2020/01/31 08:44:44.3	312.890	-0.350	-0.200	-0.720
2020/01/31 08:44:44.4	312.910	-0.320	-0.240	-0.700
2020/01/31 08:44:44.5	312.920	-0.300	-0.280	-0.680
2020/01/31 08:44:44.6	312.940	-0.280	-0.310	-0.660
2020/01/31 08:44:44.7	312.950	-0.260	-0.350	-0.630
2020/01/31 08:44:44.8	312.960	-0.230	-0.380	-0.610
2020/01/31 08:44:44.9	312.970	-0.210	-0.410	-0.580
2020/01/31 08:44:45.0	312.980	-0.190	-0.440	-0.550
2020/01/31 08:44:45.1	312.980	-0.160	-0.460	-0.520
2020/01/31 08:44:45.2	312.990	-0.140	-0.480	-0.490
2020/01/31 08:44:45.3	313.000	-0.120	-0.490	-0.460
2020/01/31 08:44:45.4	313.000	-0.100	-0.500	-0.430
2020/01/31 08:44:45.5	313.010	-0.080	-0.510	-0.390
2020/01/31 08:44:45.6	313.010	-0.060	-0.520	-0.360
2020/01/31 08:44:45.7	313.010	-0.050	-0.520	-0.320
2020/01/31 08:44:45.8	313.000	-0.030	-0.510	-0.280
2020/01/31 08:44:45.9	313.000	-0.020	-0.500	-0.230
2020/01/31 08:44:46.0	312.990	-0.000	-0.490	-0.190
2020/01/31 08:44:46.1	312.990	0.010	-0.480	-0.140
2020/01/31 08:44:46.2	312.980	0.020	-0.460	-0.100
2020/01/31 08:44:46.3	312.970	0.020	-0.430	-0.040
2020/01/31 08:44:46.4	312.950	0.030	-0.410	0.010
2020/01/31 08:44:46.5	312.930	0.040	-0.380	0.060
2020/01/31 08:44:46.6	312.910	0.040	-0.350	0.120
2020/01/31 08:44:46.7	312.890	0.040	-0.310	0.180
2020/01/31 08:44:46.8	312.870	0.040	-0.280	0.230
2020/01/31 08:44:46.9	312.850	0.050	-0.240	0.290
2020/01/31 08:44:47.0	312.830	0.050	-0.210	0.350
2020/01/31 08:44:47.1	312.800	0.040	-0.170	0.410
2020/01/31 08:44:47.2	312.780	0.040	-0.140	0.470
2020/01/31 08:44:47.3	312.750	0.040	-0.100	0.520
2020/01/31 08:44:47.4	312.730	0.040	-0.070	0.570
2020/01/31 08:44:47.5	312.700	0.040	-0.040	0.620
2020/01/31 08:44:47.6	312.680	0.040	-0.020	0.670
2020/01/31 08:44:47.7	312.650	0.040	0.010	0.710
2020/01/31 08:44:47.8	312.630	0.030	0.030	0.750
2020/01/31 08:44:47.9	312.600	0.030	0.040	0.780
2020/01/31 08:44:48.0	312.580	0.030	0.050	0.810
2020/01/31 08:44:48.1	312.550	0.030	0.060	0.840
2020/01/31 08:44:48.2	312.530	0.030	0.060	0.860
2020/01/31 08:44:48.3	312.510	0.030	0.060	0.880
2020/01/31 08:44:48.4	312.480	0.030	0.050	0.890
2020/01/31 08:44:48.5	312.460	0.030	0.040	0.890
2020/01/31 08:44:48.6	312.440	0.030	0.020	0.900
2020/01/31 08:44:48.7	312.420	0.040	0.000	0.890
2020/01/31 08:44:48.8	312.410	0.040	-0.020	0.890
2020/01/31 08:44:48.9	312.400	0.040	-0.050	0.880
2020/01/31 08:44:49.0	312.390	0.050	-0.080	0.870
2020/01/31 08:44:49.1	312.380	0.050	-0.120	0.850
2020/01/31 08:44:49.2	312.370	0.060	-0.150	0.830
2020/01/31 08:44:49.3	312.370	0.060	-0.190	0.810
2020/01/31 08:44:49.4	312.360	0.070	-0.240	0.780
2020/01/31 08:44:49.5	312.360	0.080	-0.280	0.750
2020/01/31 08:44:49.6	312.370	0.080	-0.330	0.720
2020/01/31 08:44:49.7	312.370	0.090	-0.380	0.680
2020/01/31 08:44:49.8	312.380	0.100	-0.430	0.640
2020/01/31 08:44:49.9	312.390	0.110	-0.480	0.600
2020/01/31 08:44:50.0	312.410	0.110	-0.530	0.560
2020/01/31 08:44:50.1	312.420	0.120	-0.580	0.510
2020/01/31 08:44:50.2	312.440	0.130	-0.630	0.470
2020/01/31 08:44:50.3	312.460	0.140	-0.670	0.420
2020/01/31 08:44:50.4	312.470	0.140	-0.710	0.370
2020/01/31 08:44:50.5	312.490	0.150	-0.760	0.320
2020/01/31 08:44:50.6	312.510	0.160	-0.790	0.280
2020/01/31 08:44:50.7	312.530	0.160	-0.830	0.230
2020/01/31 08:44:50.8	312.550	0.170	-0.850	0.190
2020/01/31 08:44:50.9	312.560	0.180	-0.880	0.150
2020/01/31 08:44:51.0	312.580	0.180	-0.900	0.110
2020/01/31 08:44:51.1	312.590	0.180	-0.910	0.070
2020/01/31 08:44:51.2	312.610	0.180	-0.920	0.040
2020/01/31 08:44:51.3	312.620	0.190	-0.920	0.010
2020/01/31 08:44:51.4	312.630	0.190	-0.910	-0.020
2020/01/31 08:44:51.5	312.640	0.190	-0.900	-0.050
2020/01/31 08:44:51.6	312.650	0.190	-0.880	-0.070
2020/01/31 08:44:51.7	312.650	0.180	-0.860	-0.090
2020/01/31 08:44:51.8	312.660	0.180	-0.830	-0.100
2020/01/31 08:44:51.9	312.670	0.170	-0.790	-0.120
2020/01/31 08:44:52.0	312.670	0.170	-0.750	-0.120
2020/01/31 08:44:52.1	312.670	0.160	-0.700	-0.130
2020/01/31 08:44:52.2	312.670	0.150	-0.650	-0.130
2020/01/31 08:44:52.3	312.670	0.150	-0.600	-0.130
2020/01/31 08:44:52.4	312.680	0.140	-0.540	-0.130
2020/01/31 08:44:52.5	312.670	0.130	-0.480	-0.120
2020/01/31 08:44:52.6	312.670	0.110	-0.410	-0.100
2020/01/31 08:44:52.7	312.670	0.100	-0.350	-0.090
2020/01/31 08:44:52.8	312.660	0.090	-0.280	-0.070
2020/01/31 08:44:52.9	312.660	0.080	-0.210	-0.050
2020/01/31 08:44:53.0	312.660	0.060	-0.150	-0.030
2020/01/31 08:44:53.1	312.650	0.050	-0.080	-0.010
2020/01/31 08:44:53.2	312.650	0.030	-0.010	0.010
2020/01/31 08:44:53.3	312.640	0.020	0.050	0.030
2020/01/31 08:44:53.4	312.650	0.000	0.110	0.050
2020/01/31 08:44:53.5	312.640	-0.010	0.170	0.070
2020/01/31 08:44:53.6	312.640	-0.030	0.220	0.090
2020/01/31 08:44:53.7	312.640	-0.040	0.270	0.100
2020/01/31 08:44:53.8	312.630	-0.060	0.320	0.120
2020/01/31 08:44:53.9	312.630	-0.070	0.360	0.130
2020/01/31 08:44:54.0	312.630	-0.090	0.400	0.140
2020/01/31 08:44:54.1	312.620	-0.100	0.430	0.150
2020/01/31 08:44:54.2	312.620	-0.120	0.450	0.160
2020/01/31 08:44:54.3	312.620	-0.130	0.470	0.170
2020/01/31 08:44:54.4	312.630	-0.140	0.490	0.170
2020/01/31 08:44:54.5	312.630	-0.150	0.500	0.170
2020/01/31 08:44:54.6	312.630	-0.160	0.500	0.170
2020/01/31 08:44:54.7	312.630	-0.170	0.500	0.160
2020/01/31 08:44:54.8	312.640	-0.180	0.500	0.160
2020/01/31 08:44:54.9	312.640	-0.190	0.490	0.150
2020/01/31 08:44:55.0	312.640	-0.190	0.470	0.140
2020/01/31 08:44:55.1	312.650	-0.190	0.460	0.130
2020/01/31 08:44:55.2	312.660	-0.200	0.430	0.120
2020/01/31 08:44:55.3	312.660	-0.200	0.410	0.110
2020/01/31 08:44:55.4	312.670	-0.200	0.380	0.090
2020/01/31 08:44:55.5	312.670	-0.190	0.350	0.070
2020/01/31 08:44:55.6	312.680	-0.190	0.320	0.050
2020/01/31 08:44:55.7	312.690	-0.190	0.280	0.030
2020/01/31 08:44:55.8	312.700	-0.180	0.240	0.010
2020/01/31 08:44:55.9	312.710	-0.170	0.200	-0.010
2020/01/31 08:44:56.0	312.730	-0.160	0.170	-0.040
2020/01/31 08:44:56.1	312.740	-0.150	0.120	-0.060
2020/01/31 08:44:56.2	312.750	-0.140	0.080	-0.090
2020/01/31 08:44:56.3	312.770	-0.130	0.040	-0.120
2020/01/31 08:44:56.4	312.790	-0.120	0.010	-0.140
2020/01/31 08:44:56.5	312.800	-0.110	-0.030	-0.170
2020/01/31 08:44:56.6	312.820	-0.090	-0.070	-0.190
2020/01/31 08:44:56.7	312.830	-0.080	-0.110	-0.220
2020/01/31 08:44:56.8	312.850	-0.070	-0.150	-0.250
2020/01/31 08:44:56.9	312.860	-0.050	-0.180	-0.270
2020/01/31 08:44:57.0	312.880	-0.040	-0.210	-0.300
2020/01/31 08:44:57.1	312.890	-0.020	-0.250	-0.320
2020/01/31 08:44:57.2	312.910	-0.010	-0.280	-0.340
2020/01/31 08:44:57.3	312.930	0.000	-0.300	-0.360
2020/01/31 08:44:57.4	312.930	0.010	-0.330	-0.380
2020/01/31 08:44:57.5	312.950	0.020	-0.360	-0.400
2020/01/31 08:44:57.6	312.960	0.040	-0.380	-0.420
2020/01/31 08:44:57.7	312.980	0.040	-0.400	-0.440
2020/01/31 08:44:57.8	312.990	0.050	-0.420	-0.450
2020/01/31 08:44:57.9	313.000	0.060	-0.430	-0.460
2020/01/31 08:44:58.0	313.020	0.070	-0.450	-0.470
2020/01/31 08:44:58.1	313.030	0.070	-0.460	-0.480
2020/01/31 08:44:58.2	313.040	0.080	-0.470	-0.490
2020/01/31 08:44:58.3	313.060	0.080	-0.470	-0.500
2020/01/31 08:44:58.4	313.070	0.080	-0.480	-0.510
2020/01/31 08:44:58.5	313.080	0.090	-0.480	-0.510
2020/01/31 08:44:58.6	313.090	0.090	-0.480	-0.510
2020/01/31 08:44:58.7	313.100	0.090	-0.480	-0.510
2020/01/31 08:44:58.8	313.110	0.090	-0.480	-0.510
2020/01/31 08:44:58.9	313.120	0.090	-0.470	-0.500
2020/01/31 08:44:59.0	313.130	0.090	-0.470	-0.490
2020/01/31 08:44:59.1	313.140	0.090	-0.460	-0.480
2020/01/31 08:44:59.2	313.140	0.090	-0.450	-0.460
2020/01/31 08:44:59.3	313.150	0.080	-0.440	-0.450
2020/01/31 08:44:59.4	313.150	0.080	-0.430	-0.420
2020/01/31 08:44:59.5	313.150	0.080	-0.410	-0.390
2020/01/31 08:44:59.6	313.150	0.080	-0.400	-0.360
2020/01/31 08:44:59.7	313.140	0.080	-0.380	-0.330
2020/01/31 08:44:59.8	313.130	0.080	-0.360	-0.290
2020/01/31 08:44:59.9	313.120	0.080	-0.340	-0.250
2020/01/31 08:45:00.0	313.110	0.080	-0.320	-0.200
2020/01/31 08:45:00.1	313.090	0.080	-0.300	-0.150
2020/01/31 08:45:00.2	313.080	0.080	-0.280	-0.100
2020/01/31 08:45:00.3	313.050	0.080	-0.260	-0.050
2020/01/31 08:45:00.4	313.040	0.080	-0.250	0.010
2020/01/31 08:45:00.5	313.010	0.080	-0.230	0.060
2020/01/31 08:45:00.6	312.990	0.080	-0.220	0.120
2020/01/31 08:45:00.7	312.960	0.080	-0.200	0.170
2020/01/31 08:45:00.8	312.930	0.090	-0.190	0.230
2020/01/31 08:45:00.9	312.900	0.090	-0.180	0.280
2020/01/31 08:45:01.0	312.870	0.090	-0.180	0.330
2020/01/31 08:45:01.1	312.850	0.090	-0.170	0.380
2020/01/31 08:45:01.2	312.820	0.090	-0.170	0.430
2020/01/31 08:45:01.3	312.790	0.090	-0.170	0.480
2020/01/31 08:45:01.4	312.760	0.100	-0.180	0.520
2020/01/31 08:45:01.5	312.730	0.100	-0.180	0.560
2020/01/31 08:45:01.6	312.710	0.100	-0.190	0.590
2020/01/31 08:45:01.7	312.680	0.100	-0.210	0.630
2020/01/31 08:45:01.8	312.660	0.110	-0.220	0.660
2020/01/31 08:45:01.9	312.640	0.110	-0.240	0.690
2020/01/31 08:45:02.0	312.610	0.110	-0.260	0.710
2020/01/31 08:45:02.1	312.590	0.110	-0.280	0.730
2020/01/31 08:45:02.2	312.570	0.110	-0.300	0.750
2020/01/31 08:45:02.3	312.560	0.120	-0.330	0.770
2020/01/31 08:45:02.4	312.540	0.120	-0.350	0.780
2020/01/31 08:45:02.5	312.520	0.120	-0.380	0.790
2020/01/31 08:45:02.6	312.500	0.120	-0.410	0.790
2020/01/31 08:45:02.7	312.490	0.120	-0.430	0.800
2020/01/31 08:45:02.8	312.470	0.120	-0.460	0.800
2020/01/31 08:45:02.9	312.460	0.110	-0.480	0.800
2020/01/31 08:45:03.0	312.450	0.110	-0.510	0.790
2020/01/31 08:45:03.1	312.440	0.110	-0.530	0.790
2020/01/31 08:45:03.2	312.430	0.100	-0.560	0.780
2020/01/31 08:45:03.3	312.430	0.100	-0.580	0.770
2020/01/31 08:45:03.4	312.420	0.090	-0.590	0.760
2020/01/31 08:45:03.5	312.420	0.090	-0.610	0.740
2020/01/31 08:45:03.6	312.420	0.080	-0.630	0.730
2020/01/31 08:45:03.7	312.420	0.070	-0.640	0.710
2020/01/31 08:45:03.8	312.430	0.070	-0.650	0.690
2020/01/31 08:45:03.9	312.440	0.060	-0.660	0.670
2020/01/31 08:45:04.0	312.450	0.050	-0.670	0.650
2020/01/31 08:45:04.1	312.460	0.040	-0.680	0.630
2020/01/31 08:45:04.2	312.480	0.030	-0.680	0.600
2020/01/31 08:45:04.3	312.490	0.020	-0.680	0.580
2020/01/31 08:45:04.4	312.510	0.010	-0.680	0.550
2020/01/31 08:45:04.5	312.530	-0.010	-0.670	0.520
2020/01/31 08:45:04.6	312.560	-0.020	-0.670	0.490
2020/01/31 08:45:04.7	312.580	-0.030	-0.660	0.460
2020/01/31 08:45:04.8	312.610	-0.040	-0.650	0.430
2020/01/31 08:45:04.9	312.640	-0.060	-0.640	0.400
2020/01/31 08:45:05.0	312.670	-0.070	-0.620	0.360
2020/01/31 08:45:05.1	312.700	-0.080	-0.610	0.330
2020/01/31 08:45:05.2	312.730	-0.090	-0.590	0.300
2020/01/31 08:45:05.3	312.760	-0.110	-0.570	0.270
2020/01/31 08:45:05.4	312.780	-0.120	-0.550	0.230
2020/01/31 08:45:05.5	312.810	-0.130	-0.520	0.200
2020/01/31 08:45:05.6	312.840	-0.140	-0.500	0.170
2020/01/31 08:45:05.7	312.870	-0.150	-0.470	0.140
2020/01/31 08:45:05.8	312.890	-0.160	-0.440	0.110
2020/01/31 08:45:05.9	312.920	-0.180	-0.410	0.080
2020/01/31 08:45:06.0	312.940	-0.190	-0.380	0.050
2020/01/31 08:45:06.1	312.960	-0.200	-0.350	0.020
2020/01/31 08:45:06.2	312.980	-0.200	-0.320	-0.000
2020/01/31 08:45:06.3	313.000	-0.210	-0.280	-0.030
2020/01/31 08:45:06.4	313.000	-0.220	-0.250	-0.060
2020/01/31 08:45:06.5	313.020	-0.220	-0.220	-0.080
2020/01/31 08:45:06.6	313.030	-0.230	-0.180	-0.100
2020/01/31 08:45:06.7	313.040	-0.230	-0.150	-0.120
2020/01/31 08:45:06.8	313.050	-0.240	-0.110	-0.140
2020/01/31 08:45:06.9	313.060	-0.240	-0.080	-0.150
2020/01/31 08:45:07.0	313.060	-0.240	-0.050	-0.170
2020/01/31 08:45:07.1	313.070	-0.240	-0.020	-0.180
2020/01/31 08:45:07.2	313.070	-0.230	0.010	-0.190
2020/01/31 08:45:07.3	313.080	-0.230	0.040	-0.200
2020/01/31 08:45:07.4	313.070	-0.230	0.070	-0.210
2020/01/31 08:45:07.5	313.070	-0.220	0.090	-0.220
2020/01/31 08:45:07.6	313.080	-0.210	0.120	-0.230
2020/01/31 08:45:07.7	313.070	-0.200	0.140	-0.230
2020/01/31 08:45:07.8	313.070	-0.190	0.160	-0.240
2020/01/31 08:45:07.9	313.070	-0.180	0.180	-0.240
2020/01/31 08:45:08.0	313.070	-0.170	0.190	-0.240
2020/01/31 08:45:08.1	313.070	-0.160	0.200	-0.240
2020/01/31 08:45:08.2	313.070	-0.150	0.220	-0.240
2020/01/31 08:45:08.3	313.070	-0.140	0.220	-0.240
2020/01/31 08:45:08.4	313.070	-0.120	0.230	-0.240
2020/01/31 08:45:08.5	313.070	-0.110	0.240	-0.240
2020/01/31 08:45:08.6	313.070	-0.100	0.240	-0.240
2020/01/31 08:45:08.7	313.070	-0.080	0.240	-0.230
2020/01/31 08:45:08.8	313.070	-0.070	0.240	-0.230
2020/01/31 08:45:08.9	313.080	-0.050	0.230	-0.220
2020/01/31 08:45:09.0	313.080	-0.040	0.230	-0.220
2020/01/31 08:45:09.1	313.080	-0.030	0.220	-0.210
2020/01/31 08:45:09.2	313.080	-0.020	0.220	-0.200
2020/01/31 08:45:09.3	313.090	-0.000	0.210	-0.200
2020/01/31 08:45:09.4	313.090	0.010	0.200	-0.190
2020/01/31 08:45:09.5	313.100	0.020	0.190	-0.180
2020/01/31 08:45:09.6	313.100	0.030	0.180	-0.170
2020/01/31 08:45:09.7	313.100	0.040	0.170	-0.160
2020/01/31 08:45:09.8	313.110	0.050	0.160	-0.140
2020/01/31 08:45:09.9	313.110	0.050	0.150	-0.130
2020/01/31 08:45:10.0	313.110	0.060	0.140	-0.120
2020/01/31 08:45:10.1	313.120	0.070	0.130	-0.100
2020/01/31 08:45:10.2	313.120	0.070	0.120	-0.090
2020/01/31 08:45:10.3	313.120	0.080	0.110	-0.070
2020/01/31 08:45:10.4	313.120	0.080	0.100	-0.050
2020/01/31 08:45:10.5	313.120	0.080	0.100	-0.030
2020/01/31 08:45:10.6	313.120	0.090	0.090	-0.010
2020/01/31 08:45:10.7	313.110	0.090	0.080	0.010
2020/01/31 08:45:10.8	313.110	0.090	0.080	0.030
2020/01/31 08:45:10.9	313.100	0.090	0.070	0.060
2020/01/31 08:45:11.0	313.100	0.100	0.070	0.090
2020/01/31 08:45:11.1	313.090	0.100	0.070	0.110
2020/01/31 08:45:11.2	313.080	0.100	0.070	0.150
2020/01/31 08:45:11.3	313.070	0.100	0.070	0.180
2020/01/31 08:45:11.4	313.070	0.100	0.060	0.210
2020/01/31 08:45:11.5	313.050	0.110	0.060	0.240
2020/01/31 08:45:11.6	313.040	0.110	0.060	0.280
2020/01/31 08:45:11.7	313.020	0.110	0.070	0.320
2020/01/31 08:45:11.8	313.000	0.120	0.070	0.360
2020/01/31 08:45:11.9	312.990	0.120	0.070	0.400
2020/01/31 08:45:12.0	312.970	0.120	0.070	0.440
2020/01/31 08:45:12.1	312.940	0.130	0.070	0.480
2020/01/31 08:45:12.2	312.920	0.140	0.060	0.530
2020/01/31 08:45:12.3	312.900	0.140	0.060	0.570
2020/01/31 08:45:12.4	312.880	0.150	0.060	0.610
2020/01/31 08:45:12.5	312.850	0.160	0.050	0.660
2020/01/31 08:45:12.6	312.820	0.160	0.040	0.700
2020/01/31 08:45:12.7	312.790	0.170	0.030	0.740
2020/01/31 08:45:12.8	312.760	0.180	0.020	0.780
2020/01/31 08:45:12.9	312.730	0.190	0.010	0.820
2020/01/31 08:45:13.0	312.700	0.200	-0.010	0.860
2020/01/31 08:45:13.1	312.670	0.210	-0.030	0.900
2020/01/31 08:45:13.2	312.640	0.220	-0.050	0.930
2020/01/31 08:45:13.3	312.610	0.230	-0.080	0.960
2020/01/31 08:45:13.4	312.580	0.240	-0.100	0.990
2020/01/31 08:45:13.5	312.550	0.250	-0.140	1.010
2020/01/31 08:45:13.6	312.520	0.260	-0.170	1.030
2020/01/31 08:45:13.7	312.500	0.280	-0.210	1.040
2020/01/31 08:45:13.8	312.470	0.290	-0.250	1.050
2020/01/31 08:45:13.9	312.450	0.300	-0.290	1.060
2020/01/31 08:45:14.0	312.430	0.310	-0.330	1.060
2020/01/31 08:45:14.1	312.410	0.320	-0.380	1.050
2020/01/31 08:45:14.2	312.400	0.320	-0.430	1.050
2020/01/31 08:45:14.3	312.380	0.330	-0.480	1.030
2020/01/31 08:45:14.4	312.380	0.340	-0.530	1.010
2020/01/31 08:45:14.5	312.360	0.340	-0.580	0.990
2020/01/31 08:45:14.6	312.350	0.350	-0.630	0.960
2020/01/31 08:45:14.7	312.350	0.350	-0.680	0.930
2020/01/31 08:45:14.8	312.340	0.350	-0.730	0.890
2020/01/31 08:45:14.9	312.340	0.350	-0.780	0.850
2020/01/31 08:45:15.0	312.340	0.350	-0.830	0.800
2020/01/31 08:45:15.1	312.340	0.340	-0.870	0.760
2020/01/31 08:45:15.2	312.340	0.340	-0.910	0.700
2020/01/31 08:45:15.3	312.350	0.330	-0.950	0.650
2020/01/31 08:45:15.4	312.350	0.320	-0.990	0.580
2020/01/31 08:45:15.5	312.360	0.300	-1.020	0.520
2020/01/31 08:45:15.6	312.380	0.290	-1.050	0.450
2020/01/31 08:45:15.7	312.400	0.270	-1.080	0.380
2020/01/31 08:45:15.8	312.420	0.250	-1.100	0.310
2020/01/31 08:45:15.9	312.440	0.230	-1.120	0.240
2020/01/31 08:45:16.0	312.460	0.200	-1.130	0.160
2020/01/31 08:45:16.1	312.490	0.180	-1.140	0.090
2020/01/31 08:45:16.2	312.520	0.150	-1.150	0.010
2020/01/31 08:45:16.3	312.550	0.120	-1.150	-0.070
2020/01/31 08:45:16.4	312.590	0.090	-1.150	-0.150
2020/01/31 08:45:16.5	312.620	0.050	-1.140	-0.220
2020/01/31 08:45:16.6	312.660	0.020	-1.130	-0.300
2020/01/31 08:45:16.7	312.700	-0.020	-1.110	-0.370
2020/01/31 08:45:16.8	312.730	-0.050	-1.090	-0.440
2020/01/31 08:45:16.9	312.770	-0.090	-1.070	-0.500
2020/01/31 08:45:17.0	312.800	-0.130	-1.040	-0.560
2020/01/31 08:45:17.1	312.840	-0.160	-1.010	-0.620
2020/01/31 08:45:17.2	312.870	-0.200	-0.970	-0.680
2020/01/31 08:45:17.3	312.900	-0.240	-0.930	-0.720
2020/01/31 08:45:17.4	312.940	-0.270	-0.890	-0.770
2020/01/31 08:45:17.5	312.970	-0.310	-0.840	-0.810
2020/01/31 08:45:17.6	312.990	-0.350	-0.790	-0.840
2020/01/31 08:45:17.7	313.020	-0.380	-0.740	-0.860
2020/01/31 08:45:17.8	313.040	-0.410	-0.690	-0.880
2020/01/31 08:45:17.9	313.060	-0.440	-0.630	-0.900
2020/01/31 08:45:18.0	313.080	-0.470	-0.580	-0.910
2020/01/31 08:45:18.1	313.090	-0.500	-0.530	-0.910
2020/01/31 08:45:18.2	313.110	-0.520	-0.470	-0.910
2020/01/31 08:45:18.3	313.120	-0.550	-0.420	-0.900
2020/01/31 08:45:18.4	313.130	-0.570	-0.370	-0.890
2020/01/31 08:45:18.5	313.140	-0.590	-0.320	-0.880
2020/01/31 08:45:18.6	313.150	-0.600	-0.280	-0.860
2020/01/31 08:45:18.7	313.160	-0.610	-0.230	-0.840
2020/01/31 08:45:18.8	313.160	-0.620	-0.190	-0.820
2020/01/31 08:45:18.9	313.170	-0.630	-0.150	-0.790
2020/01/31 08:45:19.0	313.170	-0.630	-0.110	-0.760
2020/01/31 08:45:19.1	313.170	-0.630	-0.080	-0.730
2020/01/31 08:45:19.2	313.170	-0.630	-0.050	-0.700
2020/01/31 08:45:19.3	313.170	-0.620	-0.020	-0.670
2020/01/31 08:45:19.4	313.180	-0.620	0.010	-0.630
2020/01/31 08:45:19.5	313.170	-0.600	0.030	-0.590
2020/01/31 08:45:19.6	313.170	-0.590	0.050	-0.550
2020/01/31 08:45:19.7	313.170	-0.570	0.060	-0.510
2020/01/31 08:45:19.8	313.170	-0.550	0.080	-0.470
2020/01/31 08:45:19.9	313.170	-0.530	0.090	-0.430
2020/01/31 08:45:20.0	313.170	-0.510	0.100	-0.390
2020/01/31 08:45:20.1	313.160	-0.480	0.110	-0.350
2020/01/31 08:45:20.2	313.160	-0.450	0.120	-0.310
2020/01/31 08:45:20.3	313.160	-0.430	0.130	-0.260
2020/01/31 08:45:20.4	313.160	-0.400	0.130	-0.220
2020/01/31 08:45:20.5	313.160	-0.360	0.140	-0.180
2020/01/31 08:45:20.6	313.160	-0.330	0.150	-0.140
2020/01/31 08:45:20.7	313.160	-0.300	0.150	-0.090
2020/01/31 08:45:20.8	313.160	-0.270	0.160	-0.050
2020/01/31 08:45:20.9	313.150	-0.230	0.180	-0.000
2020/01/31 08:45:21.0	313.150	-0.200	0.190	0.040
2020/01/31 08:45:21.1	313.150	-0.170	0.200	0.080
2020/01/31 08:45:21.2	313.140	-0.140	0.220	0.130
2020/01/31 08:45:21.3	313.130	-0.110	0.240	0.170
2020/01/31 08:45:21.4	313.130	-0.080	0.260	0.220
2020/01/31 08:45:21.5	313.120	-0.050	0.280	0.270
2020/01/31 08:45:21.6	313.110	-0.030	0.300	0.310
2020/01/31 08:45:21.7	313.100	-0.010	0.330	0.360
2020/01/31 08:45:21.8	313.080	0.020	0.350	0.400
2020/01/31 08:45:21.9	313.070	0.040	0.380	0.440
2020/01/31 08:45:22.0	313.050	0.050	0.410	0.490
2020/01/31 08:45:22.1	313.040	0.070	0.440	0.530
2020/01/31 08:45:22.2	313.020	0.090	0.470	0.570
2020/01/31 08:45:22.3	312.990	0.100	0.500	0.610
2020/01/31 08:45:22.4	312.970	0.110	0.530	0.660
2020/01/31 08:45:22.5	312.950	0.120	0.560	0.700
2020/01/31 08:45:22.6	312.920	0.130	0.590	0.730
2020/01/31 08:45:22.7	312.900	0.130	0.610	0.770
2020/01/31 08:45:22.8	312.870	0.140	0.640	0.810
2020/01/31 08:45:22.9	312.840	0.140	0.660	0.840
2020/01/31 08:45:23.0	312.810	0.140	0.680	0.870
2020/01/31 08:45:23.1	312.780	0.150	0.690	0.900
2020/01/31 08:45:23.2	312.750	0.150	0.700	0.930
2020/01/31 08:45:23.3	312.720	0.150	0.710	0.950
2020/01/31 08:45:23.4	312.690	0.150	0.710	0.970
2020/01/31 08:45:23.5	312.660	0.150	0.700	0.990
2020/01/31 08:45:23.6	312.630	0.160	0.690	1.000
2020/01/31 08:45:23.7	312.600	0.160	0.680	1.010
2020/01/31 08:45:23.8	312.580	0.160	0.660	1.020
2020/01/31 08:45:23.9	312.550	0.170	0.630	1.020
2020/01/31 08:45:24.0	312.530	0.170	0.590	1.010
2020/01/31 08:45:24.1	312.510	0.180	0.550	1.000
2020/01/31 08:45:24.2	312.490	0.180	0.510	0.990
2020/01/31 08:45:24.3	312.470	0.190	0.450	0.970
2020/01/31 08:45:24.4	312.460	0.200	0.390	0.950
2020/01/31 08:45:24.5	312.450	0.220	0.330	0.920
2020/01/31 08:45:24.6	312.440	0.230	0.260	0.890
2020/01/31 08:45:24.7	312.430	0.240	0.180	0.850
2020/01/31 08:45:24.8	312.420	0.260	0.100	0.820
2020/01/31 08:45:24.9	312.420	0.270	0.020	0.780
2020/01/31 08:45:25.0	312.420	0.290	-0.070	0.740
2020/01/31 08:45:25.1	312.420	0.310	-0.160	0.690
2020/01/31 08:45:25.2	312.420	0.330	-0.250	0.650
2020/01/31 08:45:25.3	312.420	0.350	-0.340	0.600
2020/01/31 08:45:25.4	312.440	0.370	-0.440	0.550
2020/01/31 08:45:25.5	312.450	0.390	-0.530	0.500
2020/01/31 08:45:25.6	312.460	0.410	-0.620	0.450
2020/01/31 08:45:25.7	312.470	0.430	-0.710	0.400
2020/01/31 08:45:25.8	312.480	0.450	-0.800	0.360
2020/01/31 08:45:25.9	312.490	0.470	-0.880	0.310
2020/01/31 08:45:26.0	312.500	0.490	-0.960	0.270
2020/01/31 08:45:26.1	312.510	0.510	-1.030	0.230
2020/01/31 08:45:26.2	312.530	0.520	-1.110	0.190
2020/01/31 08:45:26.3	312.540	0.540	-1.170	0.150
2020/01/31 08:45:26.4	312.540	0.550	-1.230	0.110
2020/01/31 08:45:26.5	312.550	0.560	-1.280	0.080
2020/01/31 08:45:26.6	312.560	0.570	-1.330	0.040
2020/01/31 08:45:26.7	312.580	0.570	-1.370	0.010
2020/01/31 08:45:26.8	312.590	0.570	-1.400	-0.030
2020/01/31 08:45:26.9	312.590	0.570	-1.420	-0.060
2020/01/31 08:45:27.0	312.600	0.570	-1.440	-0.090
2020/01/31 08:45:27.1	312.610	0.560	-1.450	-0.110
2020/01/31 08:45:27.2	312.620	0.550	-1.450	-0.140
2020/01/31 08:45:27.3	312.630	0.540	-1.450	-0.170
2020/01/31 08:45:27.4	312.640	0.530	-1.430	-0.190
2020/01/31 08:45:27.5	312.650	0.510	-1.410	-0.210
2020/01/31 08:45:27.6	312.650	0.490	-1.390	-0.230
2020/01/31 08:45:27.7	312.660	0.470	-1.360	-0.250
2020/01/31 08:45:27.8	312.670	0.440	-1.320	-0.270
2020/01/31 08:45:27.9	312.680	0.420	-1.280	-0.280
2020/01/31 08:45:28.0	312.690	0.390	-1.230	-0.290
2020/01/31 08:45:28.1	312.700	0.360	-1.180	-0.300
2020/01/31 08:45:28.2	312.710	0.320	-1.120	-0.300
2020/01/31 08:45:28.3	312.710	0.290	-1.060	-0.310
2020/01/31 08:45:28.4	312.730	0.260	-1.000	-0.310
2020/01/31 08:45:28.5	312.740	0.220	-0.930	-0.300
2020/01/31 08:45:28.6	312.750	0.180	-0.870	-0.300
2020/01/31 08:45:28.7	312.760	0.140	-0.800	-0.300
2020/01/31 08:45:28.8	312.770	0.110	-0.740	-0.290
2020/01/31 08:45:28.9	312.780	0.070	-0.670	-0.290
2020/01/31 08:45:29.0	312.790	0.030	-0.600	-0.280
2020/01/31 08:45:29.1	312.810	-0.010	-0.540	-0.280
2020/01/31 08:45:29.2	312.820	-0.040	-0.480	-0.270
2020/01/31 08:45:29.3	312.840	-0.080	-0.420	-0.260
2020/01/31 08:45:29.4	312.860	-0.120	-0.360	-0.260
2020/01/31 08:45:29.5	312.880	-0.150	-0.310	-0.250
2020/01/31 08:45:29.6	312.900	-0.190	-0.260	-0.250
2020/01/31 08:45:29.7	312.920	-0.220	-0.210	-0.250
2020/01/31 08:45:29.8	312.940	-0.250	-0.170	-0.240
2020/01/31 08:45:29.9	312.960	-0.290	-0.130	-0.240
2020/01/31 08:45:30.0	312.980	-0.320	-0.100	-0.250
2020/01/31 08:45:30.1	313.000	-0.350	-0.070	-0.250
2020/01/31 08:45:30.2	313.020	-0.370	-0.040	-0.250
2020/01/31 08:45:30.3	313.040	-0.400	-0.020	-0.250
2020/01/31 08:45:30.4	313.060	-0.430	-0.000	-0.260
2020/01/31 08:45:30.5	313.080	-0.450	0.010	-0.260
2020/01/31 08:45:30.6	313.100	-0.470	0.020	-0.270
2020/01/31 08:45:30.7	313.120	-0.500	0.030	-0.270
2020/01/31 08:45:30.8	313.140	-0.520	0.030	-0.270
2020/01/31 08:45:30.9	313.150	-0.540	0.040	-0.280
2020/01/31 08:45:31.0	313.170	-0.560	0.040	-0.280
2020/01/31 08:45:31.1	313.180	-0.580	0.040	-0.280
2020/01/31 08:45:31.2	313.200	-0.590	0.040	-0.280
2020/01/31 08:45:31.3	313.210	-0.610	0.040	-0.290
2020/01/31 08:45:31.4	313.220	-0.630	0.030	-0.280
2020/01/31 08:45:31.5	313.220	-0.640	0.030	-0.290
2020/01/31 08:45:31.6	313.230	-0.650	0.030	-0.280
2020/01/31 08:45:31.7	313.230	-0.670	0.030	-0.280
2020/01/31 08:45:31.8	313.230	-0.680	0.030	-0.280
2020/01/31 08:45:31.9	313.230	-0.690	0.030	-0.280
2020/01/31 08:45:32.0	313.230	-0.700	0.030	-0.270
2020/01/31 08:45:32.1	313.230	-0.710	0.040	-0.260
2020/01/31 08:45:32.2	313.220	-0.710	0.050	-0.260
2020/01/31 08:45:32.3	313.220	-0.720	0.060	-0.240
2020/01/31 08:45:32.4	313.200	-0.720	0.080	-0.230
2020/01/31 08:45:32.5	313.190	-0.720	0.100	-0.220
2020/01/31 08:45:32.6	313.180	-0.720	0.120	-0.200
2020/01/31 08:45:32.7	313.170	-0.720	0.140	-0.180
2020/01/31 08:45:32.8	313.150	-0.720	0.160	-0.160
2020/01/31 08:45:32.9	313.130	-0.710	0.190	-0.140
2020/01/31 08:45:33.0	313.110	-0.700	0.220	-0.110
2020/01/31 08:45:33.1	313.090	-0.690	0.250	-0.080
2020/01/31 08:45:33.2	313.060	-0.680	0.280	-0.050
2020/01/31 08:45:33.3	313.040	-0.670	0.310	-0.010
2020/01/31 08:45:33.4	313.010	-0.650	0.340	0.020
2020/01/31 08:45:33.5	312.980	-0.630	0.370	0.060
2020/01/31 08:45:33.6	312.950	-0.610	0.400	0.100
2020/01/31 08:45:33.7	312.920	-0.590	0.430	0.140
2020/01/31 08:45:33.8	312.880	-0.560	0.460	0.180
2020/01/31 08:45:33.9	312.850	-0.530	0.490	0.220
2020/01/31 08:45:34.0	312.810	-0.500	0.510	0.270
2020/01/31 08:45:34.1	312.770	-0.470	0.530	0.310
2020/01/31 08:45:34.2	312.740	-0.430	0.540	0.350
2020/01/31 08:45:34.3	312.700	-0.400	0.550	0.400
2020/01/31 08:45:34.4	312.660	-0.360	0.560	0.440
2020/01/31 08:45:34.5	312.620	-0.310	0.560	0.480
2020/01/31 08:45:34.6	312.580	-0.270	0.560	0.520
2020/01/31 08:45:34.7	312.540	-0.220	0.550	0.570
2020/01/31 08:45:34.8	312.500	-0.180	0.540	0.610
2020/01/31 08:45:34.9	312.470	-0.130	0.520	0.640
2020/01/31 08:45:35.0	312.430	-0.080	0.490	0.680
2020/01/31 08:45:35.1	312.400	-0.020	0.460	0.710
2020/01/31 08:45:35.2	312.360	0.030	0.430	0.740
2020/01/31 08:45:35.3	312.330	0.080	0.390	0.770
2020/01/31 08:45:35.4	312.300	0.140	0.340	0.790
2020/01/31 08:45:35.5	312.280	0.200	0.290	0.810
2020/01/31 08:45:35.6	312.250	0.250	0.230	0.830
2020/01/31 08:45:35.7	312.230	0.310	0.170	0.840
2020/01/31 08:45:35.8	312.220	0.360	0.110	0.850
2020/01/31 08:45:35.9	312.200	0.420	0.040	0.860
2020/01/31 08:45:36.0	312.190	0.470	-0.030	0.860
2020/01/31 08:45:36.1	312.180	0.520	-0.100	0.860
2020/01/31 08:45:36.2	312.170	0.570	-0.170	0.860
2020/01/31 08:45:36.3	312.170	0.620	-0.250	0.850
2020/01/31 08:45:36.4	312.170	0.660	-0.320	0.840
2020/01/31 08:45:36.5	312.170	0.710	-0.390	0.820
2020/01/31 08:45:36.6	312.170	0.750	-0.470	0.810
2020/01/31 08:45:36.7	312.180	0.780	-0.540	0.790
2020/01/31 08:45:36.8	312.190	0.820	-0.610	0.770
2020/01/31 08:45:36.9	312.200	0.850	-0.670	0.750
2020/01/31 08:45:37.0	312.220	0.870	-0.730	0.730
2020/01/31 08:45:37.1	312.230	0.900	-0.790	0.700
2020/01/31 08:45:37.2	312.250	0.910	-0.840	0.680
2020/01/31 08:45:37.3	312.270	0.930	-0.880	0.660
2020/01/31 08:45:37.4	312.280	0.940	-0.920	0.630
2020/01/31 08:45:37.5	312.300	0.940	-0.950	0.610
2020/01/31 08:45:37.6	312.320	0.950	-0.980	0.580
2020/01/31 08:45:37.7	312.330	0.940	-1.000	0.560
2020/01/31 08:45:37.8	312.350	0.930	-1.010	0.540
2020/01/31 08:45:37.9	312.360	0.920	-1.010	0.510
2020/01/31 08:45:38.0	312.380	0.900	-1.010	0.490
2020/01/31 08:45:38.1	312.390	0.880	-1.000	0.470
2020/01/31 08:45:38.2	312.400	0.860	-0.980	0.440
2020/01/31 08:45:38.3	312.410	0.830	-0.960	0.420
2020/01/31 08:45:38.4	312.430	0.800	-0.930	0.400
2020/01/31 08:45:38.5	312.440	0.760	-0.900	0.370
2020/01/31 08:45:38.6	312.450	0.720	-0.860	0.350
2020/01/31 08:45:38.7	312.450	0.680	-0.820	0.330
2020/01/31 08:45:38.8	312.460	0.630	-0.780	0.300
2020/01/31 08:45:38.9	312.460	0.590	-0.730	0.270
2020/01/31 08:45:39.0	312.470	0.540	-0.680	0.250
2020/01/31 08:45:39.1	312.470	0.490	-0.640	0.220
2020/01/31 08:45:39.2	312.480	0.430	-0.590	0.190
2020/01/31 08:45:39.3	312.480	0.380	-0.550	0.150
2020/01/31 08:45:39.4	312.480	0.330	-0.510	0.110
2020/01/31 08:45:39.5	312.490	0.270	-0.470	0.080
2020/01/31 08:45:39.6	312.500	0.220	-0.430	0.040
2020/01/31 08:45:39.7	312.510	0.170	-0.400	-0.010
2020/01/31 08:45:39.8	312.520	0.120	-0.370	-0.050
2020/01/31 08:45:39.9	312.530	0.060	-0.350	-0.100
2020/01/31 08:45:40.0	312.540	0.010	-0.330	-0.150
2020/01/31 08:45:40.1	312.560	-0.030	-0.320	-0.200
2020/01/31 08:45:40.2	312.580	-0.080	-0.310	-0.260
2020/01/31 08:45:40.3	312.600	-0.130	-0.310	-0.310
2020/01/31 08:45:40.4	312.620	-0.170	-0.310	-0.370
2020/01/31 08:45:40.5	312.650	-0.210	-0.310	-0.430
2020/01/31 08:45:40.6	312.670	-0.250	-0.320	-0.490
2020/01/31 08:45:40.7	312.700	-0.290	-0.330	-0.550
2020/01/31 08:45:40.8	312.730	-0.320	-0.350	-0.610
2020/01/31 08:45:40.9	312.760	-0.360	-0.360	-0.670
2020/01/31 08:45:41.0	312.790	-0.390	-0.380	-0.730
2020/01/31 08:45:41.1	312.820	-0.420	-0.400	-0.780
2020/01/31 08:45:41.2	312.850	-0.440	-0.430	-0.840
2020/01/31 08:45:41.3	312.890	-0.470	-0.450	-0.890
2020/01/31 08:45:41.4	312.920	-0.490	-0.470	-0.940
2020/01/31 08:45:41.5	312.960	-0.510	-0.490	-0.980
2020/01/31 08:45:41.6	313.000	-0.520	-0.510	-1.030
2020/01/31 08:45:41.7	313.030	-0.540	-0.530	-1.060
2020/01/31 08:45:41.8	313.070	-0.550	-0.550	-1.100
2020/01/31 08:45:41.9	313.100	-0.560	-0.560	-1.130
2020/01/31 08:45:42.0	313.140	-0.570	-0.570	-1.150
2020/01/31 08:45:42.1	313.170	-0.580	-0.570	-1.170
2020/01/31 08:45:42.2	313.200	-0.580	-0.580	-1.190
2020/01/31 08:45:42.3	313.230	-0.580	-0.570	-1.200
2020/01/31 08:45:42.4	313.260	-0.590	-0.560	-1.200
2020/01/31 08:45:42.5	313.290	-0.580	-0.550	-1.200
2020/01/31 08:45:42.6	313.310	-0.580	-0.540	-1.190
2020/01/31 08:45:42.7	313.340	-0.580	-0.520	-1.180
2020/01/31 08:45:42.8	313.350	-0.570	-0.490	-1.160
2020/01/31 08:45:42.9	313.370	-0.570	-0.470	-1.130
2020/01/31 08:45:43.0	313.390	-0.560	-0.430	-1.110
2020/01/31 08:45:43.1	313.400	-0.550	-0.400	-1.070
2020/01/31 08:45:43.2	313.400	-0.540	-0.360	-1.030
2020/01/31 08:45:43.3	313.410	-0.530	-0.310	-0.990
2020/01/31 08:45:43.4	313.410	-0.510	-0.270	-0.940
2020/01/31 08:45:43.5	313.410	-0.500	-0.220	-0.890
2020/01/31 08:45:43.6	313.400	-0.480	-0.160	-0.840
2020/01/31 08:45:43.7	313.400	-0.470	-0.110	-0.780
2020/01/31 08:45:43.8	313.380	-0.450	-0.060	-0.720
2020/01/31 08:45:43.9	313.370	-0.430	-0.000	-0.650
2020/01/31 08:45:44.0	313.350	-0.410	0.050	-0.580
2020/01/31 08:45:44.1	313.330	-0.390	0.110	-0.510
2020/01/31 08:45:44.2	313.310	-0.370	0.160	-0.440
2020/01/31 08:45:44.3	313.280	-0.340	0.220	-0.360
2020/01/31 08:45:44.4	313.260	-0.320	0.270	-0.280
2020/01/31 08:45:44.5	313.220	-0.290	0.320	-0.200
2020/01/31 08:45:44.6	313.190	-0.270	0.370	-0.120
2020/01/31 08:45:44.7	313.160	-0.240	0.410	-0.040
2020/01/31 08:45:44.8	313.120	-0.210	0.460	0.040
2020/01/31 08:45:44.9	313.080	-0.190	0.490	0.130
2020/01/31 08:45:45.0	313.040	-0.160	0.530	0.210
2020/01/31 08:45:45.1	313.000	-0.130	0.560	0.290
2020/01/31 08:45:45.2	312.950	-0.100	0.580	0.370
2020/01/31 08:45:45.3	312.910	-0.070	0.600	0.450
2020/01/31 08:45:45.4	312.870	-0.040	0.620	0.520
2020/01/31 08:45:45.5	312.830	-0.010	0.630	0.600
2020/01/31 08:45:45.6	312.780	0.020	0.640	0.660
2020/01/31 08:45:45.7	312.740	0.060	0.640	0.730
2020/01/31 08:45:45.8	312.700	0.090	0.630	0.790
2020/01/31 08:45:45.9	312.660	0.120	0.620	0.850
2020/01/31 08:45:46.0	312.620	0.150	0.610	0.900
2020/01/31 08:45:46.1	312.580	0.170	0.590	0.940
2020/01/31 08:45:46.2	312.550	0.200	0.560	0.990
2020/01/31 08:45:46.3	312.510	0.230	0.530	1.020
2020/01/31 08:45:46.4	312.480	0.260	0.490	1.050
2020/01/31 08:45:46.5	312.450	0.280	0.450	1.070
2020/01/31 08:45:46.6	312.420	0.310	0.410	1.090
2020/01/31 08:45:46.7	312.400	0.330	0.370	1.100
2020/01/31 08:45:46.8	312.370	0.360	0.320	1.110
2020/01/31 08:45:46.9	312.350	0.380	0.270	1.110
2020/01/31 08:45:47.0	312.330	0.400	0.210	1.110
2020/01/31 08:45:47.1	312.310	0.410	0.160	1.100
2020/01/31 08:45:47.2	312.290	0.430	0.100	1.090
2020/01/31 08:45:47.3	312.280	0.450	0.040	1.070
2020/01/31 08:45:47.4	312.280	0.460	-0.010	1.050
2020/01/31 08:45:47.5	312.270	0.470	-0.070	1.030
2020/01/31 08:45:47.6	312.260	0.480	-0.120	1.000
2020/01/31 08:45:47.7	312.260	0.480	-0.180	0.970
2020/01/31 08:45:47.8	312.260	0.490	-0.230	0.940
2020/01/31 08:45:47.9	312.260	0.490	-0.280	0.910
2020/01/31 08:45:48.0	312.260	0.490	-0.330	0.870
2020/01/31 08:45:48.1	312.270	0.490	-0.370	0.830
2020/01/31 08:45:48.2	312.270	0.490	-0.420	0.790
2020/01/31 08:45:48.3	312.290	0.480	-0.460	0.740
2020/01/31 08:45:48.4	312.300	0.470	-0.490	0.690
2020/01/31 08:45:48.5	312.310	0.460	-0.530	0.650
2020/01/31 08:45:48.6	312.330	0.450	-0.560	0.600
2020/01/31 08:45:48.7	312.350	0.430	-0.590	0.550
2020/01/31 08:45:48.8	312.370	0.410	-0.620	0.500
2020/01/31 08:45:48.9	312.400	0.400	-0.640	0.440
2020/01/31 08:45:49.0	312.430	0.380	-0.670	0.390
2020/01/31 08:45:49.1	312.450	0.350	-0.690	0.330
2020/01/31 08:45:49.2	312.480	0.330	-0.710	0.280
2020/01/31 08:45:49.3	312.520	0.310	-0.720	0.220
2020/01/31 08:45:49.4	312.550	0.280	-0.740	0.160
2020/01/31 08:45:49.5	312.590	0.250	-0.760	0.110
2020/01/31 08:45:49.6	312.620	0.230	-0.770	0.050
2020/01/31 08:45:49.7	312.660	0.200	-0.780	-0.010
2020/01/31 08:45:49.8	312.700	0.170	-0.790	-0.060
2020/01/31 08:45:49.9	312.730	0.150	-0.800	-0.120
2020/01/31 08:45:50.0	312.770	0.120	-0.810	-0.170
2020/01/31 08:45:50.1	312.810	0.090	-0.820	-0.220
2020/01/31 08:45:50.2	312.850	0.060	-0.830	-0.270
2020/01/31 08:45:50.3	312.880	0.040	-0.830	-0.320
2020/01/31 08:45:50.4	312.920	0.010	-0.840	-0.370
2020/01/31 08:45:50.5	312.960	-0.010	-0.840	-0.420
2020/01/31 08:45:50.6	312.990	-0.040	-0.850	-0.460
2020/01/31 08:45:50.7	313.020	-0.060	-0.850	-0.500
2020/01/31 08:45:50.8	313.060	-0.080	-0.850	-0.530
2020/01/31 08:45:50.9	313.090	-0.100	-0.860	-0.570
2020/01/31 08:45:51.0	313.120	-0.120	-0.860	-0.600
2020/01/31 08:45:51.1	313.140	-0.140	-0.850	-0.630
2020/01/31 08:45:51.2	313.170	-0.150	-0.850	-0.650
2020/01/31 08:45:51.3	313.200	-0.170	-0.850	-0.680
2020/01/31 08:45:51.4	313.220	-0.180	-0.840	-0.690
2020/01/31 08:45:51.5	313.240	-0.190	-0.830	-0.710
2020/01/31 08:45:51.6	313.260	-0.200	-0.820	-0.720
2020/01/31 08:45:51.7	313.280	-0.210	-0.810	-0.730
2020/01/31 08:45:51.8	313.300	-0.220	-0.800	-0.740
2020/01/31 08:45:51.9	313.310	-0.220	-0.780	-0.740
2020/01/31 08:45:52.0	313.330	-0.230	-0.760	-0.730
2020/01/31 08:45:52.1	313.340	-0.230	-0.740	-0.720
2020/01/31 08:45:52.2	313.350	-0.230	-0.710	-0.710
2020/01/31 08:45:52.3	313.360	-0.230	-0.690	-0.700
2020/01/31 08:45:52.4	313.370	-0.230	-0.660	-0.680
2020/01/31 08:45:52.5	313.370	-0.230	-0.630	-0.650
2020/01/31 08:45:52.6	313.370	-0.230	-0.600	-0.630
2020/01/31 08:45:52.7	313.370	-0.220	-0.560	-0.600
2020/01/31 08:45:52.8	313.370	-0.220	-0.530	-0.560
2020/01/31 08:45:52.9	313.360	-0.220	-0.490	-0.520
2020/01/31 08:45:53.0	313.350	-0.210	-0.450	-0.490
2020/01/31 08:45:53.1	313.330	-0.210	-0.410	-0.440
2020/01/31 08:45:53.2	313.320	-0.200	-0.370	-0.400
2020/01/31 08:45:53.3	313.300	-0.200	-0.330	-0.350
2020/01/31 08:45:53.4	313.280	-0.190	-0.290	-0.300
2020/01/31 08:45:53.5	313.260	-0.190	-0.250	-0.250
2020/01/31 08:45:53.6	313.240	-0.180	-0.210	-0.200
2020/01/31 08:45:53.7	313.210	-0.170	-0.170	-0.150
2020/01/31 08:45:53.8	313.190	-0.170	-0.130	-0.100
2020/01/31 08:45:53.9	313.160	-0.160	-0.100	-0.040
2020/01/31 08:45:54.0	313.130	-0.160	-0.060	0.010
2020/01/31 08:45:54.1	313.110	-0.150	-0.020	0.070
2020/01/31 08:45:54.2	313.080	-0.140	0.010	0.120
2020/01/31 08:45:54.3	313.050	-0.140	0.040	0.170
2020/01/31 08:45:54.4	313.020	-0.130	0.070	0.230
2020/01/31 08:45:54.5	313.000	-0.120	0.100	0.280
2020/01/31 08:45:54.6	312.970	-0.110	0.120	0.330
2020/01/31 08:45:54.7	312.940	-0.100	0.140	0.380
2020/01/31 08:45:54.8	312.920	-0.100	0.160	0.420
2020/01/31 08:45:54.9	312.890	-0.090	0.170	0.470
2020/01/31 08:45:55.0	312.870	-0.080	0.180	0.510
2020/01/31 08:45:55.1	312.850	-0.070	0.190	0.550
2020/01/31 08:45:55.2	312.830	-0.060	0.200	0.590
2020/01/31 08:45:55.3	312.810	-0.050	0.210	0.620
2020/01/31 08:45:55.4	312.790	-0.040	0.210	0.650
2020/01/31 08:45:55.5	312.780	-0.020	0.210	0.680
2020/01/31 08:45:55.6	312.760	-0.010	0.210	0.710
2020/01/31 08:45:55.7	312.740	-0.000	0.210	0.730
2020/01/31 08:45:55.8	312.730	0.010	0.200	0.760
2020/01/31 08:45:55.9	312.710	0.020	0.200	0.780
2020/01/31 08:45:56.0	312.700	0.030	0.190	0.790
2020/01/31 08:45:56.1	312.690	0.040	0.190	0.810
2020/01/31 08:45:56.2	312.670	0.060	0.180	0.820
2020/01/31 08:45:56.3	312.660	0.070	0.180	0.830
2020/01/31 08:45:56.4	312.640	0.080	0.170	0.840
2020/01/31 08:45:56.5	312.630	0.090	0.160	0.850
2020/01/31 08:45:56.6	312.620	0.100	0.160	0.850
2020/01/31 08:45:56.7	312.620	0.110	0.150	0.860
2020/01/31 08:45:56.8	312.610	0.120	0.140	0.860
2020/01/31 08:45:56.9	312.600	0.130	0.130	0.860
2020/01/31 08:45:57.0	312.600	0.140	0.130	0.850
2020/01/31 08:45:57.1	312.600	0.150	0.120	0.850
2020/01/31 08:45:57.2	312.590	0.160	0.110	0.840
2020/01/31 08:45:57.3	312.590	0.160	0.100	0.830
2020/01/31 08:45:57.4	312.590	0.170	0.090	0.810
2020/01/31 08:45:57.5	312.590	0.180	0.080	0.800
2020/01/31 08:45:57.6	312.590	0.180	0.070	0.780
2020/01/31 08:45:57.7	312.600	0.190	0.060	0.750
2020/01/31 08:45:57.8	312.610	0.190	0.040	0.730
2020/01/31 08:45:57.9	312.620	0.200	0.030	0.700
2020/01/31 08:45:58.0	312.630	0.200	0.020	0.680
2020/01/31 08:45:58.1	312.640	0.200	0.000	0.640
2020/01/31 08:45:58.2	312.650	0.210	-0.010	0.610
2020/01/31 08:45:58.3	312.660	0.210	-0.030	0.580
2020/01/31 08:45:58.4	312.680	0.210	-0.040	0.550
2020/01/31 08:45:58.5	312.690	0.210	-0.060	0.520
2020/01/31 08:45:58.6	312.710	0.200	-0.070	0.480
2020/01/31 08:45:58.7	312.720	0.200	-0.090	0.450
2020/01/31 08:45:58.8	312.740	0.200	-0.100	0.410
2020/01/31 08:45:58.9	312.750	0.190	-0.110	0.370
2020/01/31 08:45:59.0	312.770	0.190	-0.120	0.340
2020/01/31 08:45:59.1	312.780	0.180	-0.140	0.300
2020/01/31 08:45:59.2	312.800	0.170	-0.150	0.260
2020/01/31 08:45:59.3	312.810	0.160	-0.160	0.230
2020/01/31 08:45:59.4	312.820	0.150	-0.170	0.190
2020/01/31 08:45:59.5	312.840	0.140	-0.170	0.150
2020/01/31 08:45:59.6	312.850	0.130	-0.180	0.120
2020/01/31 08:45:59.7	312.860	0.120	-0.190	0.090
2020/01/31 08:45:59.8	312.870	0.110	-0.200	0.060
2020/01/31 08:45:59.9	312.870	0.090	-0.200	0.030
2020/01/31 08:46:00.0	312.880	0.080	-0.200	0.000
2020/01/31 08:46:00.1	312.890	0.070	-0.210	-0.030
2020/01/31 08:46:00.2	312.890	0.050	-0.210	-0.050
2020/01/31 08:46:00.3	312.890	0.040	-0.210	-0.080
2020/01/31 08:46:00.4	312.890	0.020	-0.220	-0.100
2020/01/31 08:46:00.5	312.890	0.010	-0.220	-0.120
2020/01/31 08:46:00.6	312.890	-0.000	-0.220	-0.140
2020/01/31 08:46:00.7	312.890	-0.020	-0.220	-0.160
2020/01/31 08:46:00.8	312.880	-0.030	-0.220	-0.180
2020/01/31 08:46:00.9	312.880	-0.040	-0.220	-0.190
2020/01/31 08:46:01.0	312.870	-0.050	-0.220	-0.210
2020/01/31 08:46:01.1	312.860	-0.070	-0.220	-0.220
2020/01/31 08:46:01.2	312.850	-0.080	-0.230	-0.240
2020/01/31 08:46:01.3	312.840	-0.080	-0.230	-0.250
2020/01/31 08:46:01.4	312.830	-0.090	-0.240	-0.260
2020/01/31 08:46:01.5	312.820	-0.100	-0.250	-0.270
2020/01/31 08:46:01.6	312.810	-0.110	-0.250	-0.280
2020/01/31 08:46:01.7	312.790	-0.110	-0.260	-0.290
2020/01/31 08:46:01.8	312.780	-0.120	-0.280	-0.300
2020/01/31 08:46:01.9	312.770	-0.120	-0.290	-0.310
2020/01/31 08:46:02.0	312.760	-0.120	-0.310	-0.320
2020/01/31 08:46:02.1	312.740	-0.120	-0.330	-0.330
2020/01/31 08:46:02.2	312.730	-0.130	-0.350	-0.330
2020/01/31 08:46:02.3	312.720	-0.120	-0.370	-0.340
2020/01/31 08:46:02.4	312.700	-0.120	-0.390	-0.340
2020/01/31 08:46:02.5	312.680	-0.120	-0.420	-0.340
2020/01/31 08:46:02.6	312.670	-0.120	-0.440	-0.340
2020/01/31 08:46:02.7	312.650	-0.110	-0.470	-0.340
2020/01/31 08:46:02.8	312.640	-0.110	-0.500	-0.340
2020/01/31 08:46:02.9	312.620	-0.100	-0.520	-0.330
2020/01/31 08:46:03.0	312.600	-0.090	-0.550	-0.320
2020/01/31 08:46:03.1	312.590	-0.090	-0.570	-0.310
2020/01/31 08:46:03.2	312.570	-0.080	-0.600	-0.300
2020/01/31 08:46:03.3	312.550	-0.070	-0.620	-0.280
2020/01/31 08:46:03.4	312.530	-0.060	-0.640	-0.270
2020/01/31 08:46:03.5	312.520	-0.050	-0.660	-0.240
2020/01/31 08:46:03.6	312.500	-0.040	-0.680	-0.220
2020/01/31 08:46:03.7	312.490	-0.030	-0.700	-0.190
2020/01/31 08:46:03.8	312.470	-0.010	-0.710	-0.170
2020/01/31 08:46:03.9	312.460	-0.000	-0.720	-0.130
2020/01/31 08:46:04.0	312.440	0.010	-0.730	-0.100
2020/01/31 08:46:04.1	312.430	0.020	-0.730	-0.070
2020/01/31 08:46:04.2	312.420	0.040	-0.730	-0.030
2020/01/31 08:46:04.3	312.410	0.050	-0.730	0.010
2020/01/31 08:46:04.4	312.410	0.070	-0.720	0.050
2020/01/31 08:46:04.5	312.400	0.080	-0.710	0.090
2020/01/31 08:46:04.6	312.390	0.090	-0.700	0.130
2020/01/31 08:46:04.7	312.380	0.110	-0.690	0.170
2020/01/31 08:46:04.8	312.380	0.120	-0.670	0.210
2020/01/31 08:46:04.9	312.370	0.140	-0.650	0.250
2020/01/31 08:46:05.0	312.370	0.150	-0.630	0.290
2020/01/31 08:46:05.1	312.370	0.160	-0.600	0.330
2020/01/31 08:46:05.2	312.360	0.180	-0.580	0.370
2020/01/31 08:46:05.3	312.360	0.190	-0.550	0.410
2020/01/31 08:46:05.4	312.370	0.200	-0.520	0.450
2020/01/31 08:46:05.5	312.380	0.210	-0.500	0.490
2020/01/31 08:46:05.6	312.380	0.220	-0.470	0.520
2020/01/31 08:46:05.7	312.380	0.230	-0.440	0.560
2020/01/31 08:46:05.8	312.390	0.240	-0.420	0.590
2020/01/31 08:46:05.9	312.400	0.250	-0.390	0.620
2020/01/31 08:46:06.0	312.400	0.260	-0.370	0.650
2020/01/31 08:46:06.1	312.410	0.270	-0.340	0.670
2020/01/31 08:46:06.2	312.420	0.270	-0.320	0.700
2020/01/31 08:46:06.3	312.430	0.270	-0.300	0.720
2020/01/31 08:46:06.4	312.430	0.280	-0.280	0.740
2020/01/31 08:46:06.5	312.430	0.280	-0.260	0.750
2020/01/31 08:46:06.6	312.440	0.280	-0.240	0.770
2020/01/31 08:46:06.7	312.450	0.280	-0.220	0.780
2020/01/31 08:46:06.8	312.460	0.270	-0.210	0.780
2020/01/31 08:46:06.9	312.460	0.270	-0.190	0.790
2020/01/31 08:46:07.0	312.470	0.260	-0.180	0.790
2020/01/31 08:46:07.1	312.470	0.260	-0.160	0.790
2020/01/31 08:46:07.2	312.480	0.250	-0.150	0.790
2020/01/31 08:46:07.3	312.480	0.240	-0.140	0.780
2020/01/31 08:46:07.4	312.480	0.230	-0.130	0.770
2020/01/31 08:46:07.5	312.480	0.220	-0.120	0.760
2020/01/31 08:46:07.6	312.490	0.200	-0.110	0.740
2020/01/31 08:46:07.7	312.490	0.190	-0.100	0.730
2020/01/31 08:46:07.8	312.500	0.170	-0.090	0.710
2020/01/31 08:46:07.9	312.500	0.150	-0.090	0.690
2020/01/31 08:46:08.0	312.510	0.140	-0.080	0.660
2020/01/31 08:46:08.1	312.520	0.120	-0.080	0.640
2020/01/31 08:46:08.2	312.520	0.100	-0.070	0.610
2020/01/31 08:46:08.3	312.530	0.070	-0.070	0.570
2020/01/31 08:46:08.4	312.560	0.050	-0.070	0.540
2020/01/31 08:46:08.5	312.570	0.030	-0.060	0.500
2020/01/31 08:46:08.6	312.580	0.010	-0.060	0.460
2020/01/31 08:46:08.7	312.590	-0.020	-0.060	0.420
2020/01/31 08:46:08.8	312.600	-0.040	-0.060	0.370
2020/01/31 08:46:08.9	312.620	-0.070	-0.050	0.330
2020/01/31 08:46:09.0	312.630	-0.090	-0.050	0.280
2020/01/31 08:46:09.1	312.650	-0.120	-0.050	0.230
2020/01/31 08:46:09.2	312.660	-0.150	-0.040	0.190
2020/01/31 08:46:09.3	312.670	-0.170	-0.040	0.140
2020/01/31 08:46:09.4	312.680	-0.200	-0.030	0.090
2020/01/31 08:46:09.5	312.690	-0.230	-0.030	0.040
2020/01/31 08:46:09.6	312.710	-0.250	-0.020	-0.000
2020/01/31 08:46:09.7	312.720	-0.280	-0.010	-0.040
2020/01/31 08:46:09.8	312.720	-0.310	-0.000	-0.080
2020/01/31 08:46:09.9	312.730	-0.330	0.000	-0.130
2020/01/31 08:46:10.0	312.740	-0.360	0.010	-0.160
2020/01/31 08:46:10.1	312.750	-0.390	0.020	-0.200
2020/01/31 08:46:10.2	312.750	-0.410	0.030	-0.240
2020/01/31 08:46:10.3	312.760	-0.440	0.040	-0.270
2020/01/31 08:46:10.4	312.760	-0.460	0.050	-0.300
2020/01/31 08:46:10.5	312.760	-0.480	0.070	-0.330
2020/01/31 08:46:10.6	312.760	-0.510	0.080	-0.350
2020/01/31 08:46:10.7	312.760	-0.530	0.090	-0.370
2020/01/31 08:46:10.8	312.760	-0.540	0.100	-0.390
2020/01/31 08:46:10.9	312.760	-0.560	0.110	-0.410
2020/01/31 08:46:11.0	312.760	-0.580	0.130	-0.420
2020/01/31 08:46:11.1	312.760	-0.590	0.140	-0.430
2020/01/31 08:46:11.2	312.760	-0.600	0.150	-0.440
2020/01/31 08:46:11.3	312.750	-0.610	0.160	-0.440
2020/01/31 08:46:11.4	312.740	-0.610	0.170	-0.450
2020/01/31 08:46:11.5	312.740	-0.620	0.180	-0.440
2020/01/31 08:46:11.6	312.730	-0.620	0.190	-0.430
2020/01/31 08:46:11.7	312.720	-0.610	0.200	-0.420
2020/01/31 08:46:11.8	312.710	-0.610	0.200	-0.400
2020/01/31 08:46:11.9	312.700	-0.600	0.210	-0.380
2020/01/31 08:46:12.0	312.690	-0.590	0.220	-0.360
2020/01/31 08:46:12.1	312.680	-0.570	0.220	-0.330
2020/01/31 08:46:12.2	312.660	-0.560	0.220	-0.300
2020/01/31 08:46:12.3	312.650	-0.530	0.230	-0.270
2020/01/31 08:46:12.4	312.640	-0.510	0.220	-0.230
2020/01/31 08:46:12.5	312.630	-0.480	0.220	-0.190
2020/01/31 08:46:12.6	312.610	-0.460	0.210	-0.150
2020/01/31 08:46:12.7	312.590	-0.420	0.210	-0.110
2020/01/31 08:46:12.8	312.570	-0.390	0.190	-0.070
2020/01/31 08:46:12.9	312.560	-0.350	0.180	-0.020
2020/01/31 08:46:13.0	312.540	-0.320	0.160	0.020
2020/01/31 08:46:13.1	312.520	-0.280	0.140	0.060
2020/01/31 08:46:13.2	312.500	-0.230	0.120	0.110
2020/01/31 08:46:13.3	312.480	-0.190	0.090	0.150
2020/01/31 08:46:13.4	312.470	-0.150	0.060	0.190
2020/01/31 08:46:13.5	312.450	-0.100	0.030	0.240
2020/01/31 08:46:13.6	312.430	-0.060	-0.010	0.280
2020/01/31 08:46:13.7	312.410	-0.010	-0.050	0.320
2020/01/31 08:46:13.8	312.400	0.030	-0.090	0.350
2020/01/31 08:46:13.9	312.380	0.080	-0.130	0.390
2020/01/31 08:46:14.0	312.360	0.120	-0.180	0.430
2020/01/31 08:46:14.1	312.350	0.170	-0.220	0.460
2020/01/31 08:46:14.2	312.330	0.210	-0.270	0.490
2020/01/31 08:46:14.3	312.320	0.250	-0.310	0.520
2020/01/31 08:46:14.4	312.310	0.290	-0.360	0.550
2020/01/31 08:46:14.5	312.300	0.330	-0.410	0.580
2020/01/31 08:46:14.6	312.290	0.370	-0.450	0.600
2020/01/31 08:46:14.7	312.280	0.410	-0.500	0.620
2020/01/31 08:46:14.8	312.270	0.440	-0.540	0.640
2020/01/31 08:46:14.9	312.260	0.470	-0.580	0.660
2020/01/31 08:46:15.0	312.260	0.510	-0.620	0.680
2020/01/31 08:46:15.1	312.250	0.530	-0.650	0.700
2020/01/31 08:46:15.2	312.250	0.560	-0.680	0.710
2020/01/31 08:46:15.3	312.240	0.580	-0.710	0.720
2020/01/31 08:46:15.4	312.230	0.600	-0.730	0.730
2020/01/31 08:46:15.5	312.230	0.620	-0.750	0.740
2020/01/31 08:46:15.6	312.230	0.640	-0.770	0.750
2020/01/31 08:46:15.7	312.230	0.650	-0.780	0.760
2020/01/31 08:46:15.8	312.230	0.660	-0.790	0.760
2020/01/31 08:46:15.9	312.230	0.670	-0.800	0.760
2020/01/31 08:46:16.0	312.230	0.680	-0.800	0.760
2020/01/31 08:46:16.1	312.240	0.680	-0.800	0.760
2020/01/31 08:46:16.2	312.240	0.680	-0.800	0.750
2020/01/31 08:46:16.3	312.250	0.680	-0.800	0.750
2020/01/31 08:46:16.4	312.270	0.680	-0.790	0.740
2020/01/31 08:46:16.5	312.280	0.670	-0.780	0.720
2020/01/31 08:46:16.6	312.290	0.670	-0.780	0.710
2020/01/31 08:46:16.7	312.300	0.660	-0.770	0.690
2020/01/31 08:46:16.8	312.320	0.650	-0.760	0.670
2020/01/31 08:46:16.9	312.330	0.630	-0.740	0.650
2020/01/31 08:46:17.0	312.350	0.620	-0.730	0.620
2020/01/31 08:46:17.1	312.370	0.600	-0.720	0.590
2020/01/31 08:46:17.2	312.380	0.580	-0.710	0.570
2020/01/31 08:46:17.3	312.400	0.560	-0.690	0.530
2020/01/31 08:46:17.4	312.420	0.530	-0.680	0.500
2020/01/31 08:46:17.5	312.440	0.510	-0.670	0.470
2020/01/31 08:46:17.6	312.450	0.480	-0.650	0.430
2020/01/31 08:46:17.7	312.470	0.450	-0.630	0.400
2020/01/31 08:46:17.8	312.490	0.430	-0.620	0.370
2020/01/31 08:46:17.9	312.500	0.390	-0.600	0.330
2020/01/31 08:46:18.0	312.510	0.360	-0.580	0.300
2020/01/31 08:46:18.1	312.530	0.330	-0.560	0.260
2020/01/31 08:46:18.2	312.540	0.290	-0.530	0.230
2020/01/31 08:46:18.3	312.550	0.260	-0.510	0.200
2020/01/31 08:46:18.4	312.560	0.220	-0.490	0.170
2020/01/31 08:46:18.5	312.560	0.190	-0.470	0.140
2020/01/31 08:46:18.6	312.570	0.150	-0.440	0.120
2020/01/31 08:46:18.7	312.580	0.110	-0.410	0.100
2020/01/31 08:46:18.8	312.580	0.070	-0.380	0.070
2020/01/31 08:46:18.9	312.590	0.040	-0.360	0.050
2020/01/31 08:46:19.0	312.590	-0.000	-0.330	0.040
2020/01/31 08:46:19.1	312.590	-0.040	-0.300	0.020
2020/01/31 08:46:19.2	312.590	-0.070	-0.270	0.010
2020/01/31 08:46:19.3	312.590	-0.110	-0.240	-0.000
2020/01/31 08:46:19.4	312.580	-0.150	-0.210	-0.020
2020/01/31 08:46:19.5	312.580	-0.180	-0.170	-0.030
2020/01/31 08:46:19.6	312.580	-0.210	-0.140	-0.030
2020/01/31 08:46:19.7	312.570	-0.240	-0.110	-0.040
2020/01/31 08:46:19.8	312.570	-0.270	-0.080	-0.040
2020/01/31 08:46:19.9	312.560	-0.300	-0.060	-0.040
2020/01/31 08:46:20.0	312.560	-0.330	-0.030	-0.040
2020/01/31 08:46:20.1	312.550	-0.350	-0.000	-0.030
2020/01/31 08:46:20.2	312.540	-0.380	0.020	-0.030
2020/01/31 08:46:20.3	312.530	-0.400	0.050	-0.020
2020/01/31 08:46:20.4	312.530	-0.410	0.070	-0.020
2020/01/31 08:46:20.5	312.520	-0.430	0.090	-0.010
2020/01/31 08:46:20.6	312.510	-0.440	0.110	0.000
2020/01/31 08:46:20.7	312.500	-0.460	0.120	0.010
2020/01/31 08:46:20.8	312.500	-0.460	0.130	0.020
2020/01/31 08:46:20.9	312.490	-0.470	0.140	0.030
2020/01/31 08:46:21.0	312.490	-0.480	0.150	0.030
2020/01/31 08:46:21.1	312.480	-0.480	0.160	0.040
2020/01/31 08:46:21.2	312.480	-0.480	0.160	0.050
2020/01/31 08:46:21.3	312.480	-0.480	0.160	0.050
2020/01/31 08:46:21.4	312.480	-0.470	0.150	0.050
2020/01/31 08:46:21.5	312.480	-0.470	0.150	0.060
2020/01/31 08:46:21.6	312.480	-0.460	0.140	0.060
2020/01/31 08:46:21.7	312.480	-0.450	0.120	0.060
2020/01/31 08:46:21.8	312.490	-0.450	0.110	0.050
2020/01/31 08:46:21.9	312.500	-0.440	0.090	0.050
2020/01/31 08:46:22.0	312.500	-0.420	0.080	0.050
2020/01/31 08:46:22.1	312.510	-0.410	0.060	0.040
2020/01/31 08:46:22.2	312.520	-0.400	0.040	0.040
2020/01/31 08:46:22.3	312.530	-0.390	0.010	0.030
2020/01/31 08:46:22.4	312.540	-0.370	-0.010	0.020
2020/01/31 08:46:22.5	312.550	-0.360	-0.030	0.020
2020/01/31 08:46:22.6	312.560	-0.350	-0.050	0.010
2020/01/31 08:46:22.7	312.580	-0.330	-0.070	0.010
2020/01/31 08:46:22.8	312.590	-0.320	-0.090	0.000
2020/01/31 08:46:22.9	312.600	-0.310	-0.110	-0.000
2020/01/31 08:46:23.0	312.610	-0.300	-0.130	-0.010
2020/01/31 08:46:23.1	312.630	-0.280	-0.150	-0.010
2020/01/31 08:46:23.2	312.640	-0.270	-0.170	-0.010
2020/01/31 08:46:23.3	312.650	-0.260	-0.180	-0.010
2020/01/31 08:46:23.4	312.650	-0.250	-0.190	-0.010
2020/01/31 08:46:23.5	312.660	-0.240	-0.200	-0.000
2020/01/31 08:46:23.6	312.670	-0.240	-0.200	0.000
2020/01/31 08:46:23.7	312.680	-0.230	-0.210	0.010
2020/01/31 08:46:23.8	312.680	-0.220	-0.210	0.020
2020/01/31 08:46:23.9	312.690	-0.210	-0.200	0.040
2020/01/31 08:46:24.0	312.690	-0.210	-0.200	0.050
2020/01/31 08:46:24.1	312.700	-0.200	-0.190	0.070
2020/01/31 08:46:24.2	312.700	-0.200	-0.180	0.090
2020/01/31 08:46:24.3	312.700	-0.200	-0.170	0.110
2020/01/31 08:46:24.4	312.700	-0.190	-0.150	0.130
2020/01/31 08:46:24.5	312.700	-0.190	-0.140	0.150
2020/01/31 08:46:24.6	312.690	-0.190	-0.120	0.180
2020/01/31 08:46:24.7	312.690	-0.190	-0.100	0.200
2020/01/31 08:46:24.8	312.680	-0.190	-0.080	0.230
2020/01/31 08:46:24.9	312.670	-0.180	-0.060	0.250
2020/01/31 08:46:25.0	312.660	-0.180	-0.040	0.270
2020/01/31 08:46:25.1	312.650	-0.180	-0.020	0.300
2020/01/31 08:46:25.2	312.640	-0.180	0.000	0.320
2020/01/31 08:46:25.3	312.630	-0.180	0.030	0.340
2020/01/31 08:46:25.4	312.610	-0.170	0.050	0.370
2020/01/31 08:46:25.5	312.600	-0.170	0.070	0.390
2020/01/31 08:46:25.6	312.580	-0.160	0.090	0.410
2020/01/31 08:46:25.7	312.560	-0.160	0.100	0.430
2020/01/31 08:46:25.8	312.540	-0.150	0.120	0.450
2020/01/31 08:46:25.9	312.520	-0.140	0.140	0.470
2020/01/31 08:46:26.0	312.500	-0.140	0.150	0.480
2020/01/31 08:46:26.1	312.480	-0.120	0.160	0.500
2020/01/31 08:46:26.2	312.460	-0.110	0.170	0.510
2020/01/31 08:46:26.3	312.440	-0.100	0.170	0.520
2020/01/31 08:46:26.4	312.420	-0.090	0.180	0.540
2020/01/31 08:46:26.5	312.390	-0.070	0.170	0.540
2020/01/31 08:46:26.6	312.370	-0.050	0.170	0.550
2020/01/31 08:46:26.7	312.350	-0.030	0.160	0.560
2020/01/31 08:46:26.8	312.340	-0.010	0.150	0.560
2020/01/31 08:46:26.9	312.320	0.010	0.130	0.560
2020/01/31 08:46:27.0	312.300	0.030	0.110	0.570
2020/01/31 08:46:27.1	312.280	0.050	0.090	0.560
2020/01/31 08:46:27.2	312.260	0.070	0.060	0.560
2020/01/31 08:46:27.3	312.250	0.100	0.030	0.550
2020/01/31 08:46:27.4	312.240	0.120	-0.010	0.540
2020/01/31 08:46:27.5	312.230	0.150	-0.050	0.530
2020/01/31 08:46:27.6	312.210	0.170	-0.090	0.520
2020/01/31 08:46:27.7	312.200	0.200	-0.130	0.510
2020/01/31 08:46:27.8	312.190	0.220	-0.180	0.490
2020/01/31 08:46:27.9	312.190	0.240	-0.230	0.470
2020/01/31 08:46:28.0	312.180	0.270	-0.280	0.450
2020/01/31 08:46:28.1	312.180	0.290	-0.340	0.430
2020/01/31 08:46:28.2	312.170	0.310	-0.390	0.400
2020/01/31 08:46:28.3	312.170	0.330	-0.450	0.380
2020/01/31 08:46:28.4	312.170	0.350	-0.500	0.350
2020/01/31 08:46:28.5	312.180	0.370	-0.560	0.330
2020/01/31 08:46:28.6	312.180	0.380	-0.620	0.300
2020/01/31 08:46:28.7	312.180	0.400	-0.680	0.270
2020/01/31 08:46:28.8	312.190	0.410	-0.730	0.250
2020/01/31 08:46:28.9	312.200	0.420	-0.780	0.220
2020/01/31 08:46:29.0	312.210	0.430	-0.840	0.200
2020/01/31 08:46:29.1	312.220	0.440	-0.890	0.170
2020/01/31 08:46:29.2	312.230	0.440	-0.930	0.150
2020/01/31 08:46:29.3	312.240	0.440	-0.970	0.130
2020/01/31 08:46:29.4	312.250	0.450	-1.020	0.110
2020/01/31 08:46:29.5	312.260	0.450	-1.050	0.090
2020/01/31 08:46:29.6	312.280	0.440	-1.080	0.070
2020/01/31 08:46:29.7	312.290	0.440	-1.110	0.060
2020/01/31 08:46:29.8	312.310	0.430	-1.130	0.050
2020/01/31 08:46:29.9	312.320	0.430	-1.150	0.030
2020/01/31 08:46:30.0	312.330	0.420	-1.160	0.020
2020/01/31 08:46:30.1	312.350	0.410	-1.160	0.020
2020/01/31 08:46:30.2	312.360	0.400	-1.160	0.010
2020/01/31 08:46:30.3	312.370	0.380	-1.160	0.010
2020/01/31 08:46:30.4	312.390	0.370	-1.150	0.000
2020/01/31 08:46:30.5	312.400	0.350	-1.130	0.000
2020/01/31 08:46:30.6	312.420	0.330	-1.110	0.000
2020/01/31 08:46:30.7	312.430	0.310	-1.090	0.000
2020/01/31 08:46:30.8	312.440	0.290	-1.060	0.010
2020/01/31 08:46:30.9	312.450	0.270	-1.030	0.010
2020/01/31 08:46:31.0	312.460	0.250	-1.000	0.010
2020/01/31 08:46:31.1	312.470	0.230	-0.960	0.020
2020/01/31 08:46:31.2	312.490	0.200	-0.920	0.020
2020/01/31 08:46:31.3	312.500	0.180	-0.870	0.030
2020/01/31 08:46:31.4	312.520	0.150	-0.830	0.030
2020/01/31 08:46:31.5	312.540	0.130	-0.780	0.040
2020/01/31 08:46:31.6	312.550	0.100	-0.740	0.040
2020/01/31 08:46:31.7	312.570	0.080	-0.690	0.050
2020/01/31 08:46:31.8	312.590	0.050	-0.640	0.050
2020/01/31 08:46:31.9	312.600	0.030	-0.590	0.050
2020/01/31 08:46:32.0	312.620	0.000	-0.540	0.060
2020/01/31 08:46:32.1	312.650	-0.020	-0.490	0.060
2020/01/31 08:46:32.2	312.670	-0.050	-0.440	0.060
2020/01/31 08:46:32.3	312.690	-0.070	-0.390	0.060
2020/01/31 08:46:32.4	312.720	-0.100	-0.340	0.060
2020/01/31 08:46:32.5	312.740	-0.120	-0.290	0.060
2020/01/31 08:46:32.6	312.770	-0.140	-0.240	0.060
2020/01/31 08:46:32.7	312.790	-0.160	-0.190	0.050
2020/01/31 08:46:32.8	312.820	-0.190	-0.150	0.050
2020/01/31 08:46:32.9	312.840	-0.210	-0.100	0.050
2020/01/31 08:46:33.0	312.860	-0.220	-0.060	0.050
2020/01/31 08:46:33.1	312.890	-0.240	-0.010	0.050
2020/01/31 08:46:33.2	312.910	-0.260	0.030	0.050
2020/01/31 08:46:33.3	312.930	-0.280	0.080	0.060
2020/01/31 08:46:33.4	312.940	-0.290	0.120	0.060
2020/01/31 08:46:33.5	312.960	-0.310	0.160	0.060
2020/01/31 08:46:33.6	312.980	-0.320	0.200	0.070
2020/01/31 08:46:33.7	312.990	-0.330	0.250	0.080
2020/01/31 08:46:33.8	313.000	-0.340	0.290	0.090
2020/01/31 08:46:33.9	313.010	-0.350	0.340	0.100
2020/01/31 08:46:34.0	313.020	-0.350	0.380	0.110
2020/01/31 08:46:34.1	313.020	-0.360	0.420	0.130
2020/01/31 08:46:34.2	313.020	-0.360	0.470	0.150
2020/01/31 08:46:34.3	313.020	-0.370	0.510	0.170
2020/01/31 08:46:34.4	313.020	-0.370	0.550	0.180
2020/01/31 08:46:34.5	313.010	-0.370	0.590	0.210
2020/01/31 08:46:34.6	313.000	-0.370	0.630	0.230
2020/01/31 08:46:34.7	312.980	-0.360	0.660	0.260
2020/01/31 08:46:34.8	312.960	-0.360	0.690	0.290
2020/01/31 08:46:34.9	312.940	-0.350	0.720	0.320
2020/01/31 08:46:35.0	312.920	-0.350	0.750	0.350
2020/01/31 08:46:35.1	312.890	-0.340	0.770	0.380
2020/01/31 08:46:35.2	312.860	-0.330	0.790	0.420
2020/01/31 08:46:35.3	312.830	-0.320	0.810	0.450
2020/01/31 08:46:35.4	312.790	-0.310	0.820	0.480
2020/01/31 08:46:35.5	312.750	-0.300	0.830	0.510
2020/01/31 08:46:35.6	312.710	-0.280	0.830	0.540
2020/01/31 08:46:35.7	312.670	-0.270	0.830	0.560
2020/01/31 08:46:35.8	312.630	-0.260	0.820	0.590
2020/01/31 08:46:35.9	312.590	-0.250	0.800	0.610
2020/01/31 08:46:36.0	312.550	-0.230	0.780	0.620
2020/01/31 08:46:36.1	312.510	-0.220	0.750	0.640
2020/01/31 08:46:36.2	312.460	-0.200	0.720	0.640
2020/01/31 08:46:36.3	312.420	-0.190	0.690	0.650
2020/01/31 08:46:36.4	312.390	-0.180	0.640	0.650
2020/01/31 08:46:36.5	312.350	-0.160	0.600	0.640
2020/01/31 08:46:36.6	312.320	-0.150	0.550	0.630
2020/01/31 08:46:36.7	312.290	-0.140	0.490	0.620
2020/01/31 08:46:36.8	312.250	-0.120	0.430	0.600
2020/01/31 08:46:36.9	312.230	-0.110	0.370	0.580
2020/01/31 08:46:37.0	312.200	-0.100	0.300	0.550
2020/01/31 08:46:37.1	312.170	-0.090	0.230	0.520
2020/01/31 08:46:37.2	312.150	-0.070	0.170	0.480
2020/01/31 08:46:37.3	312.130	-0.060	0.090	0.450
2020/01/31 08:46:37.4	312.110	-0.050	0.020	0.410
2020/01/31 08:46:37.5	312.100	-0.040	-0.050	0.360
2020/01/31 08:46:37.6	312.080	-0.030	-0.120	0.320
2020/01/31 08:46:37.7	312.070	-0.020	-0.190	0.280
2020/01/31 08:46:37.8	312.060	-0.010	-0.260	0.230
2020/01/31 08:46:37.9	312.050	-0.010	-0.330	0.190
2020/01/31 08:46:38.0	312.050	0.000	-0.390	0.150
2020/01/31 08:46:38.1	312.040	0.010	-0.450	0.100
2020/01/31 08:46:38.2	312.030	0.020	-0.510	0.060
2020/01/31 08:46:38.3	312.030	0.020	-0.560	0.020
2020/01/31 08:46:38.4	312.020	0.030	-0.610	-0.020
2020/01/31 08:46:38.5	312.020	0.030	-0.650	-0.060
2020/01/31 08:46:38.6	312.020	0.040	-0.690	-0.090
2020/01/31 08:46:38.7	312.020	0.040	-0.730	-0.130
2020/01/31 08:46:38.8	312.020	0.050	-0.760	-0.160
2020/01/31 08:46:38.9	312.030	0.050	-0.790	-0.190
2020/01/31 08:46:39.0	312.030	0.060	-0.810	-0.220
2020/01/31 08:46:39.1	312.040	0.060	-0.830	-0.250
2020/01/31 08:46:39.2	312.050	0.070	-0.850	-0.270
2020/01/31 08:46:39.3	312.060	0.070	-0.870	-0.300
2020/01/31 08:46:39.4	312.080	0.080	-0.890	-0.310
2020/01/31 08:46:39.5	312.100	0.080	-0.900	-0.340
2020/01/31 08:46:39.6	312.110	0.090	-0.910	-0.350
2020/01/31 08:46:39.7	312.130	0.100	-0.920	-0.370
2020/01/31 08:46:39.8	312.140	0.100	-0.920	-0.380
2020/01/31 08:46:39.9	312.160	0.110	-0.930	-0.400
2020/01/31 08:46:40.0	312.180	0.120	-0.930	-0.410
2020/01/31 08:46:40.1	312.200	0.130	-0.940	-0.410
2020/01/31 08:46:40.2	312.220	0.140	-0.940	-0.420
2020/01/31 08:46:40.3	312.240	0.150	-0.940	-0.420
2020/01/31 08:46:40.4	312.270	0.160	-0.950	-0.420
2020/01/31 08:46:40.5	312.290	0.170	-0.950	-0.410
2020/01/31 08:46:40.6	312.310	0.180	-0.950	-0.400
2020/01/31 08:46:40.7	312.340	0.190	-0.950	-0.390
2020/01/31 08:46:40.8	312.360	0.200	-0.950	-0.380
2020/01/31 08:46:40.9	312.380	0.220	-0.950	-0.360
2020/01/31 08:46:41.0	312.400	0.230	-0.940	-0.340
2020/01/31 08:46:41.1	312.420	0.240	-0.940	-0.310
2020/01/31 08:46:41.2	312.440	0.260	-0.940	-0.290
2020/01/31 08:46:41.3	312.470	0.270	-0.930	-0.260
2020/01/31 08:46:41.4	312.500	0.280	-0.930	-0.240
2020/01/31 08:46:41.5	312.520	0.300	-0.920	-0.210
2020/01/31 08:46:41.6	312.540	0.310	-0.920	-0.180
2020/01/31 08:46:41.7	312.570	0.320	-0.910	-0.150
2020/01/31 08:46:41.8	312.590	0.330	-0.910	-0.120
2020/01/31 08:46:41.9	312.620	0.340	-0.900	-0.090
2020/01/31 08:46:42.0	312.650	0.350	-0.890	-0.060
2020/01/31 08:46:42.1	312.670	0.360	-0.880	-0.030
2020/01/31 08:46:42.2	312.700	0.360	-0.870	-0.000
2020/01/31 08:46:42.3	312.730	0.370	-0.860	0.020
2020/01/31 08:46:42.4	312.770	0.370	-0.850	0.050
2020/01/31 08:46:42.5	312.800	0.370	-0.840	0.070
2020/01/31 08:46:42.6	312.830	0.370	-0.820	0.100
2020/01/31 08:46:42.7	312.860	0.370	-0.800	0.120
2020/01/31 08:46:42.8	312.880	0.360	-0.790	0.140
2020/01/31 08:46:42.9	312.910	0.350	-0.770	0.160
2020/01/31 08:46:43.0	312.940	0.340	-0.740	0.180
2020/01/31 08:46:43.1	312.960	0.330	-0.720	0.200
2020/01/31 08:46:43.2	312.990	0.320	-0.690	0.210
2020/01/31 08:46:43.3	313.010	0.300	-0.660	0.230
2020/01/31 08:46:43.4	313.030	0.280	-0.620	0.250
2020/01/31 08:46:43.5	313.040	0.250	-0.580	0.260
2020/01/31 08:46:43.6	313.060	0.230	-0.540	0.280
2020/01/31 08:46:43.7	313.070	0.200	-0.500	0.290
2020/01/31 08:46:43.8	313.080	0.170	-0.450	0.300
2020/01/31 08:46:43.9	313.090	0.140	-0.400	0.320
2020/01/31 08:46:44.0	313.100	0.100	-0.350	0.330
2020/01/31 08:46:44.1	313.100	0.070	-0.290	0.350
2020/01/31 08:46:44.2	313.100	0.030	-0.240	0.360
2020/01/31 08:46:44.3	313.100	-0.010	-0.180	0.370
2020/01/31 08:46:44.4	313.090	-0.050	-0.120	0.380
2020/01/31 08:46:44.5	313.090	-0.090	-0.050	0.390
2020/01/31 08:46:44.6	313.080	-0.130	0.010	0.400
2020/01/31 08:46:44.7	313.070	-0.170	0.080	0.410
2020/01/31 08:46:44.8	313.060	-0.210	0.140	0.420
2020/01/31 08:46:44.9	313.050	-0.250	0.210	0.430
2020/01/31 08:46:45.0	313.040	-0.300	0.270	0.440
2020/01/31 08:46:45.1	313.020	-0.330	0.340	0.440
2020/01/31 08:46:45.2	313.010	-0.370	0.400	0.450
2020/01/31 08:46:45.3	312.990	-0.410	0.460	0.450
2020/01/31 08:46:45.4	312.970	-0.450	0.520	0.450
2020/01/31 08:46:45.5	312.950	-0.480	0.580	0.460
2020/01/31 08:46:45.6	312.930	-0.510	0.630	0.460
2020/01/31 08:46:45.7	312.910	-0.540	0.680	0.460
2020/01/31 08:46:45.8	312.880	-0.570	0.730	0.470
2020/01/31 08:46:45.9	312.860	-0.590	0.770	0.470
2020/01/31 08:46:46.0	312.840	-0.610	0.810	0.470
2020/01/31 08:46:46.1	312.810	-0.620	0.840	0.470
2020/01/31 08:46:46.2	312.790	-0.640	0.870	0.470
2020/01/31 08:46:46.3	312.760	-0.650	0.890	0.470
2020/01/31 08:46:46.4	312.730	-0.650	0.910	0.470
2020/01/31 08:46:46.5	312.700	-0.660	0.920	0.470
2020/01/31 08:46:46.6	312.670	-0.650	0.920	0.470
2020/01/31 08:46:46.7	312.650	-0.650	0.920	0.460
2020/01/31 08:46:46.8	312.620	-0.640	0.910	0.460
2020/01/31 08:46:46.9	312.600	-0.630	0.900	0.460
2020/01/31 08:46:47.0	312.570	-0.610	0.880	0.450
2020/01/31 08:46:47.1	312.540	-0.590	0.850	0.450
2020/01/31 08:46:47.2	312.520	-0.570	0.820	0.440
2020/01/31 08:46:47.3	312.490	-0.540	0.790	0.440
2020/01/31 08:46:47.4	312.470	-0.510	0.740	0.430
2020/01/31 08:46:47.5	312.450	-0.480	0.700	0.420
2020/01/31 08:46:47.6	312.420	-0.450	0.650	0.410
2020/01/31 08:46:47.7	312.400	-0.420	0.600	0.410
2020/01/31 08:46:47.8	312.370	-0.380	0.550	0.400
2020/01/31 08:46:47.9	312.350	-0.340	0.490	0.390
2020/01/31 08:46:48.0	312.320	-0.300	0.430	0.390
2020/01/31 08:46:48.1	312.300	-0.260	0.370	0.380
2020/01/31 08:46:48.2	312.280	-0.220	0.300	0.370
2020/01/31 08:46:48.3	312.260	-0.180	0.240	0.360
2020/01/31 08:46:48.4	312.240	-0.140	0.170	0.350
2020/01/31 08:46:48.5	312.220	-0.100	0.100	0.330
2020/01/31 08:46:48.6	312.200	-0.060	0.030	0.320
2020/01/31 08:46:48.7	312.180	-0.020	-0.040	0.300
2020/01/31 08:46:48.8	312.170	0.020	-0.110	0.280
2020/01/31 08:46:48.9	312.150	0.060	-0.180	0.260
2020/01/31 08:46:49.0	312.140	0.100	-0.250	0.230
2020/01/31 08:46:49.1	312.140	0.130	-0.320	0.210
2020/01/31 08:46:49.2	312.130	0.160	-0.390	0.180
2020/01/31 08:46:49.3	312.130	0.190	-0.450	0.160
2020/01/31 08:46:49.4	312.100	0.220	-0.520	0.130
2020/01/31 08:46:49.5	312.100	0.250	-0.580	0.100
2020/01/31 08:46:49.6	312.110	0.270	-0.640	0.070
2020/01/31 08:46:49.7	312.110	0.290	-0.700	0.040
2020/01/31 08:46:49.8	312.120	0.310	-0.750	0.010
2020/01/31 08:46:49.9	312.120	0.320	-0.800	-0.010
2020/01/31 08:46:50.0	312.130	0.340	-0.840	-0.040
2020/01/31 08:46:50.1	312.140	0.350	-0.880	-0.070
2020/01/31 08:46:50.2	312.150	0.360	-0.920	-0.090
2020/01/31 08:46:50.3	312.160	0.360	-0.950	-0.110
2020/01/31 08:46:50.4	312.170	0.360	-0.980	-0.140
2020/01/31 08:46:50.5	312.180	0.370	-1.000	-0.160
2020/01/31 08:46:50.6	312.200	0.360	-1.020	-0.170
2020/01/31 08:46:50.7	312.210	0.360	-1.030	-0.190
2020/01/31 08:46:50.8	312.220	0.360	-1.040	-0.200
2020/01/31 08:46:50.9	312.240	0.350	-1.040	-0.220
2020/01/31 08:46:51.0	312.250	0.340	-1.030	-0.230
2020/01/31 08:46:51.1	312.260	0.330	-1.030	-0.230
2020/01/31 08:46:51.2	312.280	0.320	-1.020	-0.240
2020/01/31 08:46:51.3	312.290	0.310	-1.000	-0.250
2020/01/31 08:46:51.4	312.310	0.290	-0.980	-0.250
2020/01/31 08:46:51.5	312.330	0.280	-0.960	-0.250
2020/01/31 08:46:51.6	312.340	0.260	-0.940	-0.250
2020/01/31 08:46:51.7	312.360	0.250	-0.910	-0.250
2020/01/31 08:46:51.8	312.380	0.230	-0.880	-0.250
2020/01/31 08:46:51.9	312.390	0.220	-0.850	-0.260
2020/01/31 08:46:52.0	312.410	0.200	-0.820	-0.260
2020/01/31 08:46:52.1	312.430	0.180	-0.790	-0.260
2020/01/31 08:46:52.2	312.450	0.170	-0.750	-0.260
2020/01/31 08:46:52.3	312.470	0.150	-0.720	-0.250
2020/01/31 08:46:52.4	312.490	0.140	-0.680	-0.250
2020/01/31 08:46:52.5	312.510	0.120	-0.650	-0.250
2020/01/31 08:46:52.6	312.530	0.110	-0.610	-0.250
2020/01/31 08:46:52.7	312.550	0.100	-0.580	-0.250
2020/01/31 08:46:52.8	312.570	0.080	-0.540	-0.240
2020/01/31 08:46:52.9	312.590	0.070	-0.510	-0.240
2020/01/31 08:46:53.0	312.610	0.060	-0.480	-0.240
2020/01/31 08:46:53.1	312.630	0.040	-0.450	-0.230
2020/01/31 08:46:53.2	312.650	0.030	-0.420	-0.230
2020/01/31 08:46:53.3	312.670	0.020	-0.390	-0.220
2020/01/31 08:46:53.4	312.690	0.010	-0.360	-0.210
2020/01/31 08:46:53.5	312.710	-0.000	-0.340	-0.210
2020/01/31 08:46:53.6	312.730	-0.010	-0.310	-0.200
2020/01/31 08:46:53.7	312.740	-0.020	-0.290	-0.190
2020/01/31 08:46:53.8	312.760	-0.030	-0.270	-0.180
2020/01/31 08:46:53.9	312.780	-0.040	-0.250	-0.170
2020/01/31 08:46:54.0	312.800	-0.050	-0.230	-0.160
2020/01/31 08:46:54.1	312.820	-0.060	-0.220	-0.150
2020/01/31 08:46:54.2	312.840	-0.070	-0.200	-0.140
2020/01/31 08:46:54.3	312.850	-0.080	-0.190	-0.120
2020/01/31 08:46:54.4	312.860	-0.080	-0.180	-0.110
2020/01/31 08:46:54.5	312.880	-0.090	-0.170	-0.090
2020/01/31 08:46:54.6	312.890	-0.100	-0.150	-0.070
2020/01/31 08:46:54.7	312.910	-0.100	-0.140	-0.050
2020/01/31 08:46:54.8	312.920	-0.110	-0.130	-0.030
2020/01/31 08:46:54.9	312.930	-0.110	-0.120	-0.010
2020/01/31 08:46:55.0	312.950	-0.120	-0.110	0.010
2020/01/31 08:46:55.1	312.960	-0.120	-0.100	0.040
2020/01/31 08:46:55.2	312.970	-0.130	-0.080	0.060
2020/01/31 08:46:55.3	312.980	-0.130	-0.070	0.090
2020/01/31 08:46:55.4	312.980	-0.130	-0.050	0.120
2020/01/31 08:46:55.5	312.990	-0.130	-0.040	0.150
2020/01/31 08:46:55.6	313.000	-0.130	-0.020	0.180
2020/01/31 08:46:55.7	313.000	-0.130	-0.000	0.210
2020/01/31 08:46:55.8	313.010	-0.130	0.010	0.250
2020/01/31 08:46:55.9	313.010	-0.130	0.030	0.280
2020/01/31 08:46:56.0	313.010	-0.120	0.050	0.320
2020/01/31 08:46:56.1	313.010	-0.120	0.070	0.350
2020/01/31 08:46:56.2	313.010	-0.110	0.090	0.390
2020/01/31 08:46:56.3	313.000	-0.100	0.100	0.430
2020/01/31 08:46:56.4	312.990	-0.100	0.120	0.460
2020/01/31 08:46:56.5	312.980	-0.090	0.140	0.510
2020/01/31 08:46:56.6	312.970	-0.080	0.150	0.550
2020/01/31 08:46:56.7	312.960	-0.070	0.160	0.590
2020/01/31 08:46:56.8	312.950	-0.060	0.180	0.630
2020/01/31 08:46:56.9	312.930	-0.040	0.190	0.670
2020/01/31 08:46:57.0	312.910	-0.030	0.190	0.710
2020/01/31 08:46:57.1	312.900	-0.020	0.200	0.750
2020/01/31 08:46:57.2	312.880	-0.000	0.200	0.780
2020/01/31 08:46:57.3	312.860	0.010	0.200	0.820
2020/01/31 08:46:57.4	312.830	0.020	0.200	0.850
2020/01/31 08:46:57.5	312.810	0.040	0.190	0.870
2020/01/31 08:46:57.6	312.790	0.050	0.180	0.900
2020/01/31 08:46:57.7	312.760	0.070	0.170	0.920
2020/01/31 08:46:57.8	312.740	0.080	0.150	0.940
2020/01/31 08:46:57.9	312.720	0.100	0.130	0.950
2020/01/31 08:46:58.0	312.700	0.110	0.110	0.960
2020/01/31 08:46:58.1	312.680	0.130	0.090	0.970
2020/01/31 08:46:58.2	312.660	0.140	0.060	0.970
2020/01/31 08:46:58.3	312.640	0.160	0.040	0.970
2020/01/31 08:46:58.4	312.630	0.170	0.010	0.970
2020/01/31 08:46:58.5	312.610	0.180	-0.020	0.960
2020/01/31 08:46:58.6	312.590	0.190	-0.050	0.960
2020/01/31 08:46:58.7	312.570	0.200	-0.080	0.950
2020/01/31 08:46:58.8	312.550	0.210	-0.110	0.940
2020/01/31 08:46:58.9	312.530	0.210	-0.140	0.920
2020/01/31 08:46:59.0	312.520	0.220	-0.170	0.910
2020/01/31 08:46:59.1	312.500	0.220	-0.200	0.890
2020/01/31 08:46:59.2	312.480	0.220	-0.230	0.870
2020/01/31 08:46:59.3	312.460	0.220	-0.250	0.850
2020/01/31 08:46:59.4	312.450	0.220	-0.280	0.820
2020/01/31 08:46:59.5	312.430	0.220	-0.300	0.800
2020/01/31 08:46:59.6	312.420	0.210	-0.320	0.770
2020/01/31 08:46:59.7	312.410	0.200	-0.340	0.740
2020/01/31 08:46:59.8	312.390	0.200	-0.360	0.710
2020/01/31 08:46:59.9	312.390	0.190	-0.380	0.680
2020/01/31 08:47:00.0	312.380	0.170	-0.390	0.640
2020/01/31 08:47:00.1	312.370	0.160	-0.400	0.610
2020/01/31 08:47:00.2	312.370	0.150	-0.410	0.570
2020/01/31 08:47:00.3	312.360	0.130	-0.420	0.530
2020/01/31 08:47:00.4	312.360	0.120	-0.430	0.490
2020/01/31 08:47:00.5	312.360	0.100	-0.440	0.450
2020/01/31 08:47:00.6	312.360	0.090	-0.440	0.410
2020/01/31 08:47:00.7	312.370	0.070	-0.440	0.370
2020/01/31 08:47:00.8	312.370	0.050	-0.440	0.330
2020/01/31 08:47:00.9	312.380	0.040	-0.440	0.290
2020/01/31 08:47:01.0	312.380	0.020	-0.440	0.250
2020/01/31 08:47:01.1	312.390	-0.000	-0.440	0.220
2020/01/31 08:47:01.2	312.390	-0.020	-0.430	0.180
2020/01/31 08:47:01.3	312.400	-0.040	-0.430	0.140
2020/01/31 08:47:01.4	312.400	-0.050	-0.420	0.100
2020/01/31 08:47:01.5	312.400	-0.070	-0.410	0.060
2020/01/31 08:47:01.6	312.410	-0.090	-0.410	0.020
2020/01/31 08:47:01.7	312.420	-0.110	-0.400	-0.020
2020/01/31 08:47:01.8	312.420	-0.120	-0.390	-0.060
2020/01/31 08:47:01.9	312.430	-0.140	-0.380	-0.100
2020/01/31 08:47:02.0	312.440	-0.160	-0.370	-0.140
2020/01/31 08:47:02.1	312.440	-0.170	-0.360	-0.170
2020/01/31 08:47:02.2	312.450	-0.190	-0.360	-0.210
2020/01/31 08:47:02.3	312.460	-0.200	-0.350	-0.240
2020/01/31 08:47:02.4	312.470	-0.210	-0.340	-0.280
2020/01/31 08:47:02.5	312.480	-0.230	-0.340	-0.320
2020/01/31 08:47:02.6	312.490	-0.240	-0.330	-0.350
2020/01/31 08:47:02.7	312.500	-0.250	-0.330	-0.380
2020/01/31 08:47:02.8	312.510	-0.260	-0.320	-0.410
2020/01/31 08:47:02.9	312.530	-0.270	-0.320	-0.430
2020/01/31 08:47:03.0	312.540	-0.280	-0.320	-0.460
2020/01/31 08:47:03.1	312.550	-0.280	-0.310	-0.480
2020/01/31 08:47:03.2	312.560	-0.290	-0.310	-0.500
2020/01/31 08:47:03.3	312.580	-0.290	-0.310	-0.510
2020/01/31 08:47:03.4	312.590	-0.300	-0.310	-0.530
2020/01/31 08:47:03.5	312.600	-0.300	-0.310	-0.540
2020/01/31 08:47:03.6	312.610	-0.300	-0.320	-0.550
2020/01/31 08:47:03.7	312.630	-0.310	-0.320	-0.550
2020/01/31 08:47:03.8	312.640	-0.310	-0.320	-0.560
2020/01/31 08:47:03.9	312.660	-0.310	-0.320	-0.560
2020/01/31 08:47:04.0	312.680	-0.310	-0.320	-0.560
2020/01/31 08:47:04.1	312.690	-0.300	-0.320	-0.550
2020/01/31 08:47:04.2	312.710	-0.300	-0.330	-0.550
2020/01/31 08:47:04.3	312.730	-0.300	-0.330	-0.540
2020/01/31 08:47:04.4	312.740	-0.290	-0.330	-0.530
2020/01/31 08:47:04.5	312.760	-0.290	-0.330	-0.510
2020/01/31 08:47:04.6	312.780	-0.280	-0.330	-0.500
2020/01/31 08:47:04.7	312.800	-0.280	-0.330	-0.490
2020/01/31 08:47:04.8	312.820	-0.270	-0.330	-0.470
2020/01/31 08:47:04.9	312.840	-0.260	-0.330	-0.460
2020/01/31 08:47:05.0	312.860	-0.250	-0.330	-0.440
2020/01/31 08:47:05.1	312.880	-0.240	-0.330	-0.420
2020/01/31 08:47:05.2	312.900	-0.230	-0.330	-0.400
2020/01/31 08:47:05.3	312.920	-0.220	-0.330	-0.380
2020/01/31 08:47:05.4	312.930	-0.210	-0.320	-0.360
2020/01/31 08:47:05.5	312.950	-0.200	-0.320	-0.340
2020/01/31 08:47:05.6	312.970	-0.190	-0.310	-0.310
2020/01/31 08:47:05.7	312.980	-0.170	-0.300	-0.280
2020/01/31 08:47:05.8	312.990	-0.160	-0.290	-0.250
2020/01/31 08:47:05.9	313.010	-0.140	-0.280	-0.220
2020/01/31 08:47:06.0	313.020	-0.130	-0.270	-0.190
2020/01/31 08:47:06.1	313.030	-0.110	-0.250	-0.150
2020/01/31 08:47:06.2	313.030	-0.100	-0.240	-0.110
2020/01/31 08:47:06.3	313.040	-0.080	-0.230	-0.080
2020/01/31 08:47:06.4	313.050	-0.070	-0.210	-0.030
2020/01/31 08:47:06.5	313.050	-0.050	-0.190	0.010
2020/01/31 08:47:06.6	313.050	-0.030	-0.180	0.050
2020/01/31 08:47:06.7	313.060	-0.020	-0.160	0.090
2020/01/31 08:47:06.8	313.060	0.000	-0.150	0.130
2020/01/31 08:47:06.9	313.060	0.020	-0.130	0.170
2020/01/31 08:47:07.0	313.060	0.040	-0.110	0.210
2020/01/31 08:47:07.1	313.060	0.050	-0.100	0.250
2020/01/31 08:47:07.2	313.050	0.070	-0.080	0.290
2020/01/31 08:47:07.3	313.050	0.090	-0.070	0.330
2020/01/31 08:47:07.4	313.070	0.110	-0.050	0.370
2020/01/31 08:47:07.5	313.060	0.130	-0.040	0.400
2020/01/31 08:47:07.6	313.060	0.140	-0.030	0.440
2020/01/31 08:47:07.7	313.050	0.160	-0.020	0.470
2020/01/31 08:47:07.8	313.050	0.180	-0.010	0.510
2020/01/31 08:47:07.9	313.040	0.190	0.000	0.540
2020/01/31 08:47:08.0	313.040	0.210	0.010	0.570
2020/01/31 08:47:08.1	313.030	0.230	0.020	0.600
2020/01/31 08:47:08.2	313.020	0.240	0.020	0.630
2020/01/31 08:47:08.3	313.010	0.260	0.030	0.660
2020/01/31 08:47:08.4	313.010	0.270	0.030	0.680
2020/01/31 08:47:08.5	313.000	0.280	0.040	0.710
2020/01/31 08:47:08.6	312.990	0.300	0.040	0.740
2020/01/31 08:47:08.7	312.970	0.310	0.040	0.760
2020/01/31 08:47:08.8	312.960	0.320	0.040	0.780
2020/01/31 08:47:08.9	312.940	0.330	0.040	0.800
2020/01/31 08:47:09.0	312.930	0.340	0.040	0.820
2020/01/31 08:47:09.1	312.910	0.340	0.040	0.840
2020/01/31 08:47:09.2	312.890	0.350	0.030	0.850
2020/01/31 08:47:09.3	312.870	0.350	0.020	0.870
2020/01/31 08:47:09.4	312.840	0.350	0.020	0.880
2020/01/31 08:47:09.5	312.820	0.360	0.010	0.880
2020/01/31 08:47:09.6	312.800	0.360	-0.000	0.890
2020/01/31 08:47:09.7	312.780	0.350	-0.010	0.890
2020/01/31 08:47:09.8	312.760	0.350	-0.030	0.890
2020/01/31 08:47:09.9	312.740	0.350	-0.040	0.890
2020/01/31 08:47:10.0	312.710	0.340	-0.060	0.880
2020/01/31 08:47:10.1	312.690	0.330	-0.080	0.880
2020/01/31 08:47:10.2	312.680	0.330	-0.100	0.860
2020/01/31 08:47:10.3	312.660	0.320	-0.120	0.850
2020/01/31 08:47:10.4	312.650	0.310	-0.140	0.830
2020/01/31 08:47:10.5	312.630	0.300	-0.160	0.820
2020/01/31 08:47:10.6	312.620	0.290	-0.180	0.790
2020/01/31 08:47:10.7	312.600	0.280	-0.210	0.770
2020/01/31 08:47:10.8	312.590	0.260	-0.230	0.740
2020/01/31 08:47:10.9	312.590	0.250	-0.260	0.720
2020/01/31 08:47:11.0	312.580	0.240	-0.280	0.690
2020/01/31 08:47:11.1	312.580	0.220	-0.310	0.650
2020/01/31 08:47:11.2	312.570	0.210	-0.330	0.620
2020/01/31 08:47:11.3	312.570	0.200	-0.360	0.590
2020/01/31 08:47:11.4	312.570	0.190	-0.380	0.540
2020/01/31 08:47:11.5	312.570	0.170	-0.400	0.510
2020/01/31 08:47:11.6	312.580	0.160	-0.430	0.470
2020/01/31 08:47:11.7	312.580	0.150	-0.450	0.430
2020/01/31 08:47:11.8	312.590	0.140	-0.470	0.390
2020/01/31 08:47:11.9	312.600	0.130	-0.480	0.350
2020/01/31 08:47:12.0	312.610	0.120	-0.490	0.310
2020/01/31 08:47:12.1	312.620	0.110	-0.510	0.280
2020/01/31 08:47:12.2	312.630	0.100	-0.520	0.240
2020/01/31 08:47:12.3	312.640	0.090	-0.520	0.200
2020/01/31 08:47:12.4	312.650	0.080	-0.520	0.160
2020/01/31 08:47:12.5	312.660	0.070	-0.530	0.130
2020/01/31 08:47:12.6	312.670	0.070	-0.530	0.100
2020/01/31 08:47:12.7	312.680	0.060	-0.520	0.060
2020/01/31 08:47:12.8	312.690	0.050	-0.520	0.030
2020/01/31 08:47:12.9	312.700	0.050	-0.510	0.000
2020/01/31 08:47:13.0	312.710	0.040	-0.500	-0.030
2020/01/31 08:47:13.1	312.720	0.030	-0.490	-0.050
2020/01/31 08:47:13.2	312.720	0.030	-0.470	-0.080
2020/01/31 08:47:13.3	312.730	0.020	-0.460	-0.110
2020/01/31 08:47:13.4	312.750	0.010	-0.450	-0.130
2020/01/31 08:47:13.5	312.750	0.000	-0.440	-0.160
2020/01/31 08:47:13.6	312.760	-0.010	-0.420	-0.180
2020/01/31 08:47:13.7	312.760	-0.020	-0.410	-0.200
2020/01/31 08:47:13.8	312.760	-0.030	-0.390	-0.220
2020/01/31 08:47:13.9	312.760	-0.040	-0.370	-0.240
2020/01/31 08:47:14.0	312.760	-0.050	-0.360	-0.250
2020/01/31 08:47:14.1	312.760	-0.060	-0.350	-0.270
2020/01/31 08:47:14.2	312.760	-0.080	-0.330	-0.290
2020/01/31 08:47:14.3	312.750	-0.100	-0.320	-0.300
2020/01/31 08:47:14.4	312.750	-0.110	-0.310	-0.310
2020/01/31 08:47:14.5	312.750	-0.130	-0.300	-0.320
2020/01/31 08:47:14.6	312.740	-0.150	-0.290	-0.330
2020/01/31 08:47:14.7	312.740	-0.170	-0.280	-0.340
2020/01/31 08:47:14.8	312.740	-0.190	-0.270	-0.350
2020/01/31 08:47:14.9	312.730	-0.210	-0.260	-0.350
2020/01/31 08:47:15.0	312.730	-0.230	-0.260	-0.360
2020/01/31 08:47:15.1	312.730	-0.250	-0.250	-0.360
2020/01/31 08:47:15.2	312.730	-0.270	-0.250	-0.370
2020/01/31 08:47:15.3	312.730	-0.290	-0.240	-0.370
2020/01/31 08:47:15.4	312.730	-0.310	-0.240	-0.380
2020/01/31 08:47:15.5	312.730	-0.330	-0.240	-0.380
2020/01/31 08:47:15.6	312.730	-0.350	-0.240	-0.380
2020/01/31 08:47:15.7	312.740	-0.360	-0.230	-0.370
2020/01/31 08:47:15.8	312.740	-0.380	-0.230	-0.370
2020/01/31 08:47:15.9	312.750	-0.390	-0.230	-0.360
2020/01/31 08:47:16.0	312.750	-0.400	-0.220	-0.350
2020/01/31 08:47:16.1	312.760	-0.420	-0.220	-0.340
2020/01/31 08:47:16.2	312.770	-0.420	-0.210	-0.330
2020/01/31 08:47:16.3	312.770	-0.430	-0.210	-0.320
2020/01/31 08:47:16.4	312.780	-0.430	-0.200	-0.300
2020/01/31 08:47:16.5	312.790	-0.440	-0.190	-0.280
2020/01/31 08:47:16.6	312.800	-0.440	-0.190	-0.260
2020/01/31 08:47:16.7	312.810	-0.430	-0.180	-0.240
2020/01/31 08:47:16.8	312.820	-0.430	-0.170	-0.210
2020/01/31 08:47:16.9	312.820	-0.420	-0.160	-0.190
2020/01/31 08:47:17.0	312.830	-0.410	-0.150	-0.160
2020/01/31 08:47:17.1	312.840	-0.400	-0.140	-0.130
2020/01/31 08:47:17.2	312.850	-0.390	-0.130	-0.100
2020/01/31 08:47:17.3	312.850	-0.370	-0.120	-0.070
2020/01/31 08:47:17.4	312.860	-0.350	-0.110	-0.030
2020/01/31 08:47:17.5	312.870	-0.330	-0.100	0.000
2020/01/31 08:47:17.6	312.880	-0.310	-0.090	0.040
2020/01/31 08:47:17.7	312.880	-0.290	-0.080	0.080
2020/01/31 08:47:17.8	312.890	-0.260	-0.080	0.110
2020/01/31 08:47:17.9	312.890	-0.230	-0.070	0.150
2020/01/31 08:47:18.0	312.900	-0.210	-0.060	0.190
2020/01/31 08:47:18.1	312.900	-0.180	-0.060	0.230
2020/01/31 08:47:18.2	312.910	-0.150	-0.060	0.270
2020/01/31 08:47:18.3	312.910	-0.120	-0.050	0.310
2020/01/31 08:47:18.4	312.910	-0.090	-0.050	0.350
2020/01/31 08:47:18.5	312.920	-0.060	-0.050	0.390
2020/01/31 08:47:18.6	312.920	-0.030	-0.060	0.430
2020/01/31 08:47:18.7	312.920	-0.000	-0.060	0.460
2020/01/31 08:47:18.8	312.920	0.030	-0.070	0.500
2020/01/31 08:47:18.9	312.920	0.050	-0.070	0.540
2020/01/31 08:47:19.0	312.910	0.080	-0.080	0.570
2020/01/31 08:47:19.1	312.910	0.110	-0.090	0.610
2020/01/31 08:47:19.2	312.910	0.130	-0.100	0.640
2020/01/31 08:47:19.3	312.900	0.160	-0.110	0.670
2020/01/31 08:47:19.4	312.900	0.180	-0.130	0.700
2020/01/31 08:47:19.5	312.890	0.200	-0.140	0.730
2020/01/31 08:47:19.6	312.880	0.220	-0.150	0.750
2020/01/31 08:47:19.7	312.870	0.230	-0.160	0.770
2020/01/31 08:47:19.8	312.870	0.250	-0.180	0.800
2020/01/31 08:47:19.9	312.860	0.260	-0.190	0.810
2020/01/31 08:47:20.0	312.850	0.270	-0.200	0.830
2020/01/31 08:47:20.1	312.840	0.280	-0.220	0.840
2020/01/31 08:47:20.2	312.830	0.280	-0.230	0.860
2020/01/31 08:47:20.3	312.820	0.290	-0.240	0.870
2020/01/31 08:47:20.4	312.810	0.290	-0.250	0.870
2020/01/31 08:47:20.5	312.800	0.290	-0.260	0.870
2020/01/31 08:47:20.6	312.790	0.290	-0.270	0.880
2020/01/31 08:47:20.7	312.780	0.280	-0.280	0.870
2020/01/31 08:47:20.8	312.770	0.270	-0.290	0.870
2020/01/31 08:47:20.9	312.760	0.260	-0.300	0.860
2020/01/31 08:47:21.0	312.750	0.250	-0.300	0.860
2020/01/31 08:47:21.1	312.740	0.240	-0.310	0.840
2020/01/31 08:47:21.2	312.730	0.230	-0.320	0.830
2020/01/31 08:47:21.3	312.720	0.210	-0.320	0.810
2020/01/31 08:47:21.4	312.720	0.190	-0.320	0.790
2020/01/31 08:47:21.5	312.710	0.180	-0.330	0.760
2020/01/31 08:47:21.6	312.700	0.160	-0.330	0.740
2020/01/31 08:47:21.7	312.700	0.140	-0.330	0.710
2020/01/31 08:47:21.8	312.700	0.120	-0.340	0.680
2020/01/31 08:47:21.9	312.700	0.100	-0.340	0.650
2020/01/31 08:47:22.0	312.700	0.090	-0.340	0.610
2020/01/31 08:47:22.1	312.700	0.070	-0.340	0.570
2020/01/31 08:47:22.2	312.700	0.050	-0.340	0.530
2020/01/31 08:47:22.3	312.700	0.030	-0.340	0.490
2020/01/31 08:47:22.4	312.710	0.020	-0.340	0.450
2020/01/31 08:47:22.5	312.710	0.000	-0.340	0.410
2020/01/31 08:47:22.6	312.720	-0.010	-0.330	0.370
2020/01/31 08:47:22.7	312.720	-0.030	-0.330	0.320
2020/01/31 08:47:22.8	312.730	-0.040	-0.330	0.280
2020/01/31 08:47:22.9	312.730	-0.050	-0.320	0.240
2020/01/31 08:47:23.0	312.740	-0.060	-0.320	0.200
2020/01/31 08:47:23.1	312.740	-0.070	-0.320	0.160
2020/01/31 08:47:23.2	312.750	-0.080	-0.310	0.120
2020/01/31 08:47:23.3	312.750	-0.080	-0.310	0.080
2020/01/31 08:47:23.4	312.750	-0.090	-0.300	0.050
2020/01/31 08:47:23.5	312.760	-0.090	-0.300	0.010
2020/01/31 08:47:23.6	312.760	-0.100	-0.290	-0.020
2020/01/31 08:47:23.7	312.760	-0.100	-0.280	-0.050
2020/01/31 08:47:23.8	312.760	-0.100	-0.280	-0.080
2020/01/31 08:47:23.9	312.760	-0.100	-0.270	-0.100
2020/01/31 08:47:24.0	312.760	-0.100	-0.270	-0.120
2020/01/31 08:47:24.1	312.760	-0.100	-0.260	-0.140
2020/01/31 08:47:24.2	312.760	-0.100	-0.260	-0.160
2020/01/31 08:47:24.3	312.760	-0.100	-0.250	-0.180
2020/01/31 08:47:24.4	312.750	-0.100	-0.250	-0.190
2020/01/31 08:47:24.5	312.750	-0.100	-0.240	-0.200
2020/01/31 08:47:24.6	312.740	-0.100	-0.240	-0.210
2020/01/31 08:47:24.7	312.740	-0.100	-0.240	-0.220
2020/01/31 08:47:24.8	312.730	-0.100	-0.230	-0.220
2020/01/31 08:47:24.9	312.730	-0.100	-0.230	-0.220
2020/01/31 08:47:25.0	312.720	-0.090	-0.230	-0.220
2020/01/31 08:47:25.1	312.710	-0.090	-0.220	-0.220
2020/01/31 08:47:25.2	312.710	-0.090	-0.220	-0.210
2020/01/31 08:47:25.3	312.700	-0.090	-0.220	-0.200
2020/01/31 08:47:25.4	312.690	-0.090	-0.220	-0.190
2020/01/31 08:47:25.5	312.690	-0.080	-0.220	-0.180
2020/01/31 08:47:25.6	312.680	-0.080	-0.210	-0.160
2020/01/31 08:47:25.7	312.670	-0.080	-0.210	-0.150
2020/01/31 08:47:25.8	312.660	-0.080	-0.210	-0.130
2020/01/31 08:47:25.9	312.660	-0.070	-0.210	-0.110
2020/01/31 08:47:26.0	312.650	-0.070	-0.210	-0.080
2020/01/31 08:47:26.1	312.640	-0.060	-0.210	-0.060
2020/01/31 08:47:26.2	312.630	-0.050	-0.200	-0.030
2020/01/31 08:47:26.3	312.620	-0.050	-0.200	-0.010
2020/01/31 08:47:26.4	312.630	-0.040	-0.200	0.030
2020/01/31 08:47:26.5	312.620	-0.030	-0.200	0.060
2020/01/31 08:47:26.6	312.610	-0.020	-0.190	0.090
2020/01/31 08:47:26.7	312.600	-0.000	-0.190	0.120
2020/01/31 08:47:26.8	312.590	0.010	-0.190	0.160
2020/01/31 08:47:26.9	312.580	0.020	-0.180	0.190
2020/01/31 08:47:27.0	312.570	0.040	-0.180	0.230
2020/01/31 08:47:27.1	312.560	0.060	-0.180	0.260
2020/01/31 08:47:27.2	312.550	0.070	-0.170	0.300
2020/01/31 08:47:27.3	312.540	0.090	-0.170	0.340
2020/01/31 08:47:27.4	312.530	0.110	-0.170	0.380
2020/01/31 08:47:27.5	312.520	0.130	-0.160	0.410
2020/01/31 08:47:27.6	312.510	0.150	-0.160	0.450
2020/01/31 08:47:27.7	312.500	0.170	-0.160	0.480
2020/01/31 08:47:27.8	312.490	0.180	-0.160	0.510
2020/01/31 08:47:27.9	312.490	0.200	-0.160	0.540
2020/01/31 08:47:28.0	312.480	0.220	-0.160	0.570
2020/01/31 08:47:28.1	312.480	0.240	-0.160	0.600
2020/01/31 08:47:28.2	312.480	0.250	-0.160	0.620
2020/01/31 08:47:28.3	312.480	0.270	-0.160	0.640
2020/01/31 08:47:28.4	312.470	0.280	-0.170	0.660
2020/01/31 08:47:28.5	312.470	0.290	-0.180	0.670
2020/01/31 08:47:28.6	312.480	0.300	-0.190	0.680
2020/01/31 08:47:28.7	312.490	0.310	-0.200	0.690
2020/01/31 08:47:28.8	312.500	0.320	-0.210	0.690
2020/01/31 08:47:28.9	312.510	0.320	-0.230	0.680
2020/01/31 08:47:29.0	312.530	0.330	-0.240	0.670
2020/01/31 08:47:29.1	312.550	0.330	-0.260	0.660
2020/01/31 08:47:29.2	312.560	0.330	-0.280	0.640
2020/01/31 08:47:29.3	312.590	0.320	-0.300	0.620
2020/01/31 08:47:29.4	312.610	0.320	-0.310	0.590
2020/01/31 08:47:29.5	312.640	0.310	-0.330	0.570
2020/01/31 08:47:29.6	312.660	0.300	-0.350	0.540
2020/01/31 08:47:29.7	312.690	0.290	-0.370	0.510
2020/01/31 08:47:29.8	312.720	0.280	-0.390	0.480
2020/01/31 08:47:29.9	312.750	0.260	-0.410	0.440
2020/01/31 08:47:30.0	312.780	0.240	-0.420	0.410
2020/01/31 08:47:30.1	312.800	0.230	-0.440	0.370
2020/01/31 08:47:30.2	312.830	0.210	-0.450	0.340
2020/01/31 08:47:30.3	312.860	0.180	-0.460	0.310
2020/01/31 08:47:30.4	312.880	0.160	-0.470	0.270
2020/01/31 08:47:30.5	312.910	0.140	-0.470	0.240
2020/01/31 08:47:30.6	312.930	0.110	-0.470	0.210
2020/01/31 08:47:30.7	312.950	0.090	-0.470	0.180
2020/01/31 08:47:30.8	312.970	0.060	-0.460	0.160
2020/01/31 08:47:30.9	312.990	0.030	-0.460	0.130
2020/01/31 08:47:31.0	313.000	0.000	-0.440	0.110
2020/01/31 08:47:31.1	313.010	-0.030	-0.430	0.090
2020/01/31 08:47:31.2	313.020	-0.060	-0.410	0.070
2020/01/31 08:47:31.3	313.030	-0.090	-0.390	0.050
2020/01/31 08:47:31.4	313.020	-0.120	-0.370	0.030
2020/01/31 08:47:31.5	313.030	-0.150	-0.340	0.020
2020/01/31 08:47:31.6	313.030	-0.170	-0.320	0.000
2020/01/31 08:47:31.7	313.020	-0.200	-0.290	-0.010
2020/01/31 08:47:31.8	313.020	-0.230	-0.260	-0.010
2020/01/31 08:47:31.9	313.010	-0.260	-0.230	-0.020
2020/01/31 08:47:32.0	313.000	-0.280	-0.200	-0.020
2020/01/31 08:47:32.1	312.980	-0.310	-0.170	-0.030
2020/01/31 08:47:32.2	312.970	-0.330	-0.130	-0.030
2020/01/31 08:47:32.3	312.950	-0.350	-0.100	-0.030
2020/01/31 08:47:32.4	312.930	-0.370	-0.070	-0.020
2020/01/31 08:47:32.5	312.900	-0.390	-0.040	-0.010
2020/01/31 08:47:32.6	312.880	-0.400	-0.010	-0.010
2020/01/31 08:47:32.7	312.850	-0.420	0.030	0.000
2020/01/31 08:47:32.8	312.820	-0.430	0.060	0.020
2020/01/31 08:47:32.9	312.790	-0.440	0.080	0.030
2020/01/31 08:47:33.0	312.760	-0.450	0.110	0.050
2020/01/31 08:47:33.1	312.730	-0.450	0.140	0.070
2020/01/31 08:47:33.2	312.690	-0.450	0.160	0.090
2020/01/31 08:47:33.3	312.660	-0.460	0.180	0.110
2020/01/31 08:47:33.4	312.620	-0.450	0.200	0.130
2020/01/31 08:47:33.5	312.580	-0.450	0.220	0.150
2020/01/31 08:47:33.6	312.550	-0.450	0.230	0.180
2020/01/31 08:47:33.7	312.510	-0.440	0.240	0.200
2020/01/31 08:47:33.8	312.480	-0.430	0.250	0.220
2020/01/31 08:47:33.9	312.440	-0.420	0.260	0.250
2020/01/31 08:47:34.0	312.410	-0.410	0.260	0.270
2020/01/31 08:47:34.1	312.380	-0.390	0.260	0.290
2020/01/31 08:47:34.2	312.350	-0.380	0.250	0.310
2020/01/31 08:47:34.3	312.320	-0.360	0.240	0.330
2020/01/31 08:47:34.4	312.290	-0.340	0.240	0.350
2020/01/31 08:47:34.5	312.270	-0.320	0.220	0.360
2020/01/31 08:47:34.6	312.240	-0.300	0.200	0.380
2020/01/31 08:47:34.7	312.220	-0.270	0.180	0.390
2020/01/31 08:47:34.8	312.200	-0.250	0.150	0.400
2020/01/31 08:47:34.9	312.180	-0.220	0.130	0.410
2020/01/31 08:47:35.0	312.160	-0.200	0.100	0.420
2020/01/31 08:47:35.1	312.150	-0.170	0.060	0.420
2020/01/31 08:47:35.2	312.140	-0.150	0.030	0.430
2020/01/31 08:47:35.3	312.130	-0.120	-0.010	0.430
2020/01/31 08:47:35.4	312.120	-0.090	-0.050	0.430
2020/01/31 08:47:35.5	312.110	-0.060	-0.100	0.420
2020/01/31 08:47:35.6	312.110	-0.030	-0.140	0.420
2020/01/31 08:47:35.7	312.110	-0.010	-0.180	0.410
2020/01/31 08:47:35.8	312.110	0.020	-0.230	0.400
2020/01/31 08:47:35.9	312.110	0.050	-0.270	0.390
2020/01/31 08:47:36.0	312.120	0.080	-0.320	0.380
2020/01/31 08:47:36.1	312.120	0.110	-0.360	0.370
2020/01/31 08:47:36.2	312.130	0.130	-0.400	0.350
2020/01/31 08:47:36.3	312.140	0.160	-0.450	0.340
2020/01/31 08:47:36.4	312.140	0.180	-0.490	0.330
2020/01/31 08:47:36.5	312.150	0.210	-0.530	0.310
2020/01/31 08:47:36.6	312.160	0.230	-0.560	0.300
2020/01/31 08:47:36.7	312.180	0.250	-0.600	0.290
2020/01/31 08:47:36.8	312.190	0.280	-0.630	0.270
2020/01/31 08:47:36.9	312.210	0.300	-0.660	0.260
2020/01/31 08:47:37.0	312.220	0.310	-0.690	0.240
2020/01/31 08:47:37.1	312.240	0.330	-0.720	0.230
2020/01/31 08:47:37.2	312.260	0.350	-0.740	0.220
2020/01/31 08:47:37.3	312.280	0.360	-0.760	0.210
2020/01/31 08:47:37.4	312.310	0.370	-0.780	0.190
2020/01/31 08:47:37.5	312.330	0.380	-0.800	0.180
2020/01/31 08:47:37.6	312.350	0.390	-0.810	0.170
2020/01/31 08:47:37.7	312.370	0.400	-0.820	0.160
2020/01/31 08:47:37.8	312.390	0.400	-0.820	0.160
2020/01/31 08:47:37.9	312.410	0.400	-0.830	0.150
2020/01/31 08:47:38.0	312.430	0.410	-0.830	0.150
2020/01/31 08:47:38.1	312.450	0.410	-0.820	0.150
2020/01/31 08:47:38.2	312.470	0.400	-0.820	0.140
2020/01/31 08:47:38.3	312.500	0.400	-0.810	0.140
2020/01/31 08:47:38.4	312.520	0.390	-0.800	0.140
2020/01/31 08:47:38.5	312.550	0.390	-0.790	0.150
2020/01/31 08:47:38.6	312.570	0.380	-0.770	0.150
2020/01/31 08:47:38.7	312.590	0.370	-0.750	0.150
2020/01/31 08:47:38.8	312.610	0.360	-0.730	0.150
2020/01/31 08:47:38.9	312.630	0.340	-0.710	0.150
2020/01/31 08:47:39.0	312.650	0.330	-0.690	0.160
2020/01/31 08:47:39.1	312.670	0.320	-0.660	0.160
2020/01/31 08:47:39.2	312.690	0.300	-0.630	0.170
2020/01/31 08:47:39.3	312.710	0.280	-0.600	0.170
2020/01/31 08:47:39.4	312.720	0.270	-0.570	0.180
2020/01/31 08:47:39.5	312.740	0.250	-0.540	0.190
2020/01/31 08:47:39.6	312.750	0.230	-0.510	0.200
2020/01/31 08:47:39.7	312.770	0.210	-0.470	0.210
2020/01/31 08:47:39.8	312.780	0.190	-0.440	0.220
2020/01/31 08:47:39.9	312.790	0.170	-0.410	0.230
2020/01/31 08:47:40.0	312.800	0.150	-0.370	0.230
2020/01/31 08:47:40.1	312.810	0.120	-0.330	0.240
2020/01/31 08:47:40.2	312.820	0.100	-0.300	0.250
2020/01/31 08:47:40.3	312.830	0.080	-0.260	0.260
2020/01/31 08:47:40.4	312.830	0.060	-0.220	0.270
2020/01/31 08:47:40.5	312.840	0.030	-0.190	0.280
2020/01/31 08:47:40.6	312.850	0.010	-0.150	0.280
2020/01/31 08:47:40.7	312.850	-0.020	-0.120	0.290
2020/01/31 08:47:40.8	312.850	-0.040	-0.080	0.300
2020/01/31 08:47:40.9	312.850	-0.060	-0.050	0.300
2020/01/31 08:47:41.0	312.860	-0.090	-0.010	0.310
2020/01/31 08:47:41.1	312.860	-0.110	0.020	0.320
2020/01/31 08:47:41.2	312.860	-0.140	0.050	0.320
2020/01/31 08:47:41.3	312.850	-0.160	0.080	0.330
2020/01/31 08:47:41.4	312.850	-0.180	0.110	0.340
2020/01/31 08:47:41.5	312.840	-0.200	0.140	0.340
2020/01/31 08:47:41.6	312.840	-0.230	0.170	0.350
2020/01/31 08:47:41.7	312.830	-0.250	0.190	0.360
2020/01/31 08:47:41.8	312.820	-0.270	0.210	0.370
2020/01/31 08:47:41.9	312.810	-0.290	0.240	0.380
2020/01/31 08:47:42.0	312.800	-0.300	0.260	0.390
2020/01/31 08:47:42.1	312.790	-0.320	0.280	0.390
2020/01/31 08:47:42.2	312.770	-0.330	0.290	0.400
2020/01/31 08:47:42.3	312.760	-0.350	0.310	0.410
2020/01/31 08:47:42.4	312.740	-0.360	0.320	0.420
2020/01/31 08:47:42.5	312.730	-0.370	0.330	0.430
2020/01/31 08:47:42.6	312.710	-0.380	0.340	0.450
2020/01/31 08:47:42.7	312.690	-0.380	0.350	0.460
2020/01/31 08:47:42.8	312.670	-0.390	0.350	0.470
2020/01/31 08:47:42.9	312.650	-0.390	0.350	0.480
2020/01/31 08:47:43.0	312.630	-0.390	0.350	0.500
2020/01/31 08:47:43.1	312.610	-0.380	0.350	0.510
2020/01/31 08:47:43.2	312.580	-0.380	0.350	0.520
2020/01/31 08:47:43.3	312.560	-0.370	0.340	0.540
2020/01/31 08:47:43.4	312.530	-0.360	0.340	0.550
2020/01/31 08:47:43.5	312.510	-0.350	0.330	0.560
2020/01/31 08:47:43.6	312.480	-0.340	0.310	0.580
2020/01/31 08:47:43.7	312.460	-0.330	0.300	0.600
2020/01/31 08:47:43.8	312.430	-0.310	0.280	0.610
2020/01/31 08:47:43.9	312.410	-0.290	0.260	0.630
2020/01/31 08:47:44.0	312.390	-0.270	0.240	0.640
2020/01/31 08:47:44.1	312.360	-0.250	0.220	0.660
2020/01/31 08:47:44.2	312.340	-0.230	0.190	0.670
2020/01/31 08:47:44.3	312.320	-0.200	0.160	0.690
2020/01/31 08:47:44.4	312.300	-0.170	0.130	0.700
2020/01/31 08:47:44.5	312.280	-0.150	0.100	0.710
2020/01/31 08:47:44.6	312.270	-0.120	0.060	0.720
2020/01/31 08:47:44.7	312.250	-0.090	0.020	0.730
2020/01/31 08:47:44.8	312.240	-0.060	-0.020	0.740
2020/01/31 08:47:44.9	312.230	-0.030	-0.060	0.740
2020/01/31 08:47:45.0	312.220	-0.000	-0.110	0.740
2020/01/31 08:47:45.1	312.210	0.030	-0.160	0.740
2020/01/31 08:47:45.2	312.210	0.060	-0.200	0.740
2020/01/31 08:47:45.3	312.210	0.090	-0.250	0.730
2020/01/31 08:47:45.4	312.210	0.120	-0.300	0.720
2020/01/31 08:47:45.5	312.210	0.150	-0.350	0.710
2020/01/31 08:47:45.6	312.220	0.180	-0.400	0.690
2020/01/31 08:47:45.7	312.220	0.210	-0.450	0.680
2020/01/31 08:47:45.8	312.230	0.240	-0.500	0.660
2020/01/31 08:47:45.9	312.240	0.270	-0.550	0.640
2020/01/31 08:47:46.0	312.260	0.290	-0.590	0.610
2020/01/31 08:47:46.1	312.270	0.320	-0.640	0.590
2020/01/31 08:47:46.2	312.280	0.340	-0.670	0.570
2020/01/31 08:47:46.3	312.300	0.360	-0.710	0.540
2020/01/31 08:47:46.4	312.310	0.380	-0.750	0.520
2020/01/31 08:47:46.5	312.320	0.400	-0.780	0.490
2020/01/31 08:47:46.6	312.340	0.420	-0.800	0.460
2020/01/31 08:47:46.7	312.350	0.430	-0.830	0.430
2020/01/31 08:47:46.8	312.370	0.450	-0.840	0.410
2020/01/31 08:47:46.9	312.380	0.460	-0.860	0.380
2020/01/31 08:47:47.0	312.390	0.470	-0.870	0.350
2020/01/31 08:47:47.1	312.410	0.470	-0.870	0.320
2020/01/31 08:47:47.2	312.420	0.480	-0.880	0.290
2020/01/31 08:47:47.3	312.430	0.480	-0.870	0.270
2020/01/31 08:47:47.4	312.440	0.480	-0.870	0.240
2020/01/31 08:47:47.5	312.460	0.480	-0.860	0.210
2020/01/31 08:47:47.6	312.470	0.480	-0.840	0.180
2020/01/31 08:47:47.7	312.480	0.480	-0.830	0.160
2020/01/31 08:47:47.8	312.500	0.470	-0.800	0.130
2020/01/31 08:47:47.9	312.510	0.460	-0.780	0.100
2020/01/31 08:47:48.0	312.520	0.450	-0.750	0.080
2020/01/31 08:47:48.1	312.540	0.440	-0.720	0.050
2020/01/31 08:47:48.2	312.550	0.430	-0.690	0.030
2020/01/31 08:47:48.3	312.570	0.420	-0.660	0.000
2020/01/31 08:47:48.4	312.590	0.400	-0.630	-0.020
2020/01/31 08:47:48.5	312.610	0.380	-0.590	-0.040
2020/01/31 08:47:48.6	312.630	0.370	-0.560	-0.070
2020/01/31 08:47:48.7	312.650	0.350	-0.520	-0.090
2020/01/31 08:47:48.8	312.670	0.330	-0.480	-0.110
2020/01/31 08:47:48.9	312.690	0.310	-0.450	-0.130
2020/01/31 08:47:49.0	312.710	0.290	-0.410	-0.150
2020/01/31 08:47:49.1	312.730	0.260	-0.380	-0.170
2020/01/31 08:47:49.2	312.750	0.240	-0.340	-0.190
2020/01/31 08:47:49.3	312.770	0.220	-0.310	-0.210
2020/01/31 08:47:49.4	312.800	0.190	-0.280	-0.220
2020/01/31 08:47:49.5	312.820	0.170	-0.240	-0.240
2020/01/31 08:47:49.6	312.830	0.140	-0.210	-0.250
2020/01/31 08:47:49.7	312.850	0.120	-0.180	-0.260
2020/01/31 08:47:49.8	312.870	0.090	-0.150	-0.260
2020/01/31 08:47:49.9	312.880	0.070	-0.120	-0.270
2020/01/31 08:47:50.0	312.900	0.040	-0.090	-0.270
2020/01/31 08:47:50.1	312.910	0.010	-0.060	-0.270
2020/01/31 08:47:50.2	312.920	-0.010	-0.030	-0.260
2020/01/31 08:47:50.3	312.930	-0.040	-0.000	-0.260
2020/01/31 08:47:50.4	312.930	-0.070	0.020	-0.250
2020/01/31 08:47:50.5	312.940	-0.090	0.050	-0.240
2020/01/31 08:47:50.6	312.950	-0.120	0.070	-0.230
2020/01/31 08:47:50.7	312.950	-0.140	0.090	-0.220
2020/01/31 08:47:50.8	312.960	-0.170	0.110	-0.200
2020/01/31 08:47:50.9	312.960	-0.190	0.130	-0.180
2020/01/31 08:47:51.0	312.970	-0.220	0.140	-0.170
2020/01/31 08:47:51.1	312.970	-0.240	0.160	-0.150
2020/01/31 08:47:51.2	312.980	-0.260	0.170	-0.130
2020/01/31 08:47:51.3	312.980	-0.280	0.170	-0.110
2020/01/31 08:47:51.4	312.980	-0.300	0.180	-0.080
2020/01/31 08:47:51.5	312.990	-0.320	0.180	-0.070
2020/01/31 08:47:51.6	312.990	-0.340	0.180	-0.050
2020/01/31 08:47:51.7	312.990	-0.360	0.180	-0.030
2020/01/31 08:47:51.8	313.000	-0.380	0.180	-0.010
2020/01/31 08:47:51.9	313.000	-0.390	0.170	0.010
2020/01/31 08:47:52.0	313.010	-0.410	0.160	0.020
2020/01/31 08:47:52.1	313.010	-0.420	0.150	0.040
2020/01/31 08:47:52.2	313.010	-0.440	0.140	0.050
2020/01/31 08:47:52.3	313.020	-0.450	0.130	0.070
2020/01/31 08:47:52.4	313.010	-0.460	0.120	0.080
2020/01/31 08:47:52.5	313.010	-0.470	0.100	0.090
2020/01/31 08:47:52.6	313.010	-0.480	0.080	0.100
2020/01/31 08:47:52.7	313.010	-0.490	0.070	0.110
2020/01/31 08:47:52.8	313.010	-0.500	0.050	0.130
2020/01/31 08:47:52.9	313.000	-0.500	0.030	0.140
2020/01/31 08:47:53.0	312.990	-0.500	0.010	0.150
2020/01/31 08:47:53.1	312.980	-0.510	-0.000	0.170
2020/01/31 08:47:53.2	312.970	-0.510	-0.020	0.180
2020/01/31 08:47:53.3	312.960	-0.510	-0.040	0.200
2020/01/31 08:47:53.4	312.930	-0.510	-0.060	0.220
2020/01/31 08:47:53.5	312.920	-0.510	-0.070	0.230
2020/01/31 08:47:53.6	312.900	-0.500	-0.090	0.250
2020/01/31 08:47:53.7	312.870	-0.500	-0.100	0.270
2020/01/31 08:47:53.8	312.850	-0.490	-0.110	0.290
2020/01/31 08:47:53.9	312.830	-0.480	-0.130	0.320
2020/01/31 08:47:54.0	312.800	-0.470	-0.140	0.340
2020/01/31 08:47:54.1	312.770	-0.460	-0.150	0.360
2020/01/31 08:47:54.2	312.740	-0.440	-0.160	0.390
2020/01/31 08:47:54.3	312.710	-0.430	-0.160	0.410
2020/01/31 08:47:54.4	312.670	-0.410	-0.170	0.440
2020/01/31 08:47:54.5	312.640	-0.390	-0.180	0.460
2020/01/31 08:47:54.6	312.610	-0.380	-0.180	0.490
2020/01/31 08:47:54.7	312.580	-0.350	-0.190	0.520
2020/01/31 08:47:54.8	312.550	-0.330	-0.200	0.540
2020/01/31 08:47:54.9	312.520	-0.310	-0.210	0.570
2020/01/31 08:47:55.0	312.490	-0.280	-0.210	0.590
2020/01/31 08:47:55.1	312.460	-0.250	-0.220	0.610
2020/01/31 08:47:55.2	312.430	-0.220	-0.230	0.630
2020/01/31 08:47:55.3	312.400	-0.200	-0.240	0.650
2020/01/31 08:47:55.4	312.370	-0.160	-0.250	0.670
2020/01/31 08:47:55.5	312.350	-0.130	-0.260	0.690
2020/01/31 08:47:55.6	312.330	-0.100	-0.270	0.700
2020/01/31 08:47:55.7	312.300	-0.070	-0.280	0.720
2020/01/31 08:47:55.8	312.280	-0.030	-0.290	0.730
2020/01/31 08:47:55.9	312.260	-0.000	-0.300	0.740
2020/01/31 08:47:56.0	312.240	0.030	-0.320	0.740
2020/01/31 08:47:56.1	312.230	0.070	-0.330	0.750
2020/01/31 08:47:56.2	312.210	0.100	-0.340	0.750
2020/01/31 08:47:56.3	312.190	0.140	-0.360	0.760
2020/01/31 08:47:56.4	312.180	0.170	-0.370	0.760
2020/01/31 08:47:56.5	312.160	0.200	-0.390	0.760
2020/01/31 08:47:56.6	312.150	0.240	-0.400	0.760
2020/01/31 08:47:56.7	312.140	0.270	-0.420	0.750
2020/01/31 08:47:56.8	312.130	0.300	-0.430	0.750
2020/01/31 08:47:56.9	312.120	0.330	-0.450	0.740
2020/01/31 08:47:57.0	312.120	0.360	-0.460	0.730
2020/01/31 08:47:57.1	312.110	0.390	-0.480	0.720
2020/01/31 08:47:57.2	312.110	0.410	-0.490	0.700
2020/01/31 08:47:57.3	312.110	0.440	-0.510	0.680
2020/01/31 08:47:57.4	312.120	0.460	-0.520	0.660
2020/01/31 08:47:57.5	312.120	0.480	-0.540	0.640
2020/01/31 08:47:57.6	312.120	0.500	-0.550	0.610
2020/01/31 08:47:57.7	312.130	0.520	-0.570	0.580
2020/01/31 08:47:57.8	312.140	0.530	-0.580	0.550
2020/01/31 08:47:57.9	312.160	0.550	-0.590	0.510
2020/01/31 08:47:58.0	312.180	0.560	-0.610	0.480
2020/01/31 08:47:58.1	312.200	0.570	-0.620	0.430
2020/01/31 08:47:58.2	312.220	0.580	-0.630	0.390
2020/01/31 08:47:58.3	312.240	0.580	-0.650	0.350
2020/01/31 08:47:58.4	312.270	0.590	-0.660	0.300
2020/01/31 08:47:58.5	312.300	0.590	-0.670	0.250
2020/01/31 08:47:58.6	312.330	0.580	-0.680	0.200
2020/01/31 08:47:58.7	312.370	0.580	-0.690	0.150
2020/01/31 08:47:58.8	312.400	0.570	-0.690	0.100
2020/01/31 08:47:58.9	312.430	0.570	-0.690	0.050
2020/01/31 08:47:59.0	312.470	0.560	-0.690	0.000
2020/01/31 08:47:59.1	312.500	0.540	-0.690	-0.050
2020/01/31 08:47:59.2	312.540	0.530	-0.690	-0.090
2020/01/31 08:47:59.3	312.570	0.510	-0.680	-0.140
2020/01/31 08:47:59.4	312.610	0.490	-0.670	-0.180
2020/01/31 08:47:59.5	312.640	0.470	-0.650	-0.230
2020/01/31 08:47:59.6	312.680	0.440	-0.630	-0.270
2020/01/31 08:47:59.7	312.710	0.420	-0.610	-0.310
2020/01/31 08:47:59.8	312.750	0.390	-0.590	-0.350
2020/01/31 08:47:59.9	312.780	0.360	-0.560	-0.380
2020/01/31 08:48:00.0	312.810	0.330	-0.530	-0.420
2020/01/31 08:48:00.1	312.840	0.300	-0.490	-0.450
2020/01/31 08:48:00.2	312.870	0.270	-0.460	-0.480
2020/01/31 08:48:00.3	312.900	0.240	-0.420	-0.500
2020/01/31 08:48:00.4	312.940	0.200	-0.380	-0.520
2020/01/31 08:48:00.5	312.970	0.170	-0.330	-0.540
2020/01/31 08:48:00.6	312.990	0.130	-0.290	-0.560
2020/01/31 08:48:00.7	313.020	0.100	-0.240	-0.570
2020/01/31 08:48:00.8	313.040	0.070	-0.190	-0.580
2020/01/31 08:48:00.9	313.060	0.030	-0.140	-0.590
2020/01/31 08:48:01.0	313.080	-0.000	-0.090	-0.590
2020/01/31 08:48:01.1	313.100	-0.030	-0.040	-0.580
2020/01/31 08:48:01.2	313.110	-0.070	0.020	-0.570
2020/01/31 08:48:01.3	313.120	-0.100	0.070	-0.560
2020/01/31 08:48:01.4	313.140	-0.130	0.120	-0.550
2020/01/31 08:48:01.5	313.150	-0.150	0.170	-0.530
2020/01/31 08:48:01.6	313.150	-0.180	0.220	-0.510
2020/01/31 08:48:01.7	313.160	-0.210	0.260	-0.490
2020/01/31 08:48:01.8	313.160	-0.230	0.310	-0.460
2020/01/31 08:48:01.9	313.170	-0.250	0.350	-0.430
2020/01/31 08:48:02.0	313.170	-0.270	0.390	-0.400
2020/01/31 08:48:02.1	313.170	-0.290	0.420	-0.360
2020/01/31 08:48:02.2	313.160	-0.310	0.450	-0.330
2020/01/31 08:48:02.3	313.160	-0.320	0.480	-0.290
2020/01/31 08:48:02.4	313.150	-0.340	0.500	-0.250
2020/01/31 08:48:02.5	313.140	-0.350	0.520	-0.200
2020/01/31 08:48:02.6	313.130	-0.360	0.540	-0.160
2020/01/31 08:48:02.7	313.120	-0.360	0.550	-0.120
2020/01/31 08:48:02.8	313.110	-0.370	0.560	-0.070
2020/01/31 08:48:02.9	313.090	-0.370	0.560	-0.030
2020/01/31 08:48:03.0	313.080	-0.370	0.560	0.020
2020/01/31 08:48:03.1	313.060	-0.370	0.550	0.060
2020/01/31 08:48:03.2	313.050	-0.370	0.540	0.110
2020/01/31 08:48:03.3	313.030	-0.360	0.520	0.150
2020/01/31 08:48:03.4	313.010	-0.350	0.500	0.200
2020/01/31 08:48:03.5	312.990	-0.350	0.480	0.240
2020/01/31 08:48:03.6	312.970	-0.340	0.450	0.290
2020/01/31 08:48:03.7	312.950	-0.320	0.420	0.330
2020/01/31 08:48:03.8	312.920	-0.310	0.380	0.370
2020/01/31 08:48:03.9	312.900	-0.300	0.340	0.420
2020/01/31 08:48:04.0	312.870	-0.280	0.290	0.460
2020/01/31 08:48:04.1	312.840	-0.260	0.250	0.500
2020/01/31 08:48:04.2	312.810	-0.250	0.200	0.530
2020/01/31 08:48:04.3	312.780	-0.230	0.140	0.570
2020/01/31 08:48:04.4	312.750	-0.210	0.090	0.610
2020/01/31 08:48:04.5	312.720	-0.190	0.030	0.640
2020/01/31 08:48:04.6	312.690	-0.170	-0.030	0.670
2020/01/31 08:48:04.7	312.670	-0.150	-0.090	0.700
2020/01/31 08:48:04.8	312.640	-0.130	-0.150	0.730
2020/01/31 08:48:04.9	312.610	-0.110	-0.210	0.750
2020/01/31 08:48:05.0	312.580	-0.090	-0.270	0.770
2020/01/31 08:48:05.1	312.560	-0.070	-0.340	0.780
2020/01/31 08:48:05.2	312.540	-0.050	-0.400	0.800
2020/01/31 08:48:05.3	312.510	-0.030	-0.460	0.800
2020/01/31 08:48:05.4	312.500	-0.020	-0.520	0.810
2020/01/31 08:48:05.5	312.480	0.000	-0.580	0.810
2020/01/31 08:48:05.6	312.460	0.020	-0.640	0.810
2020/01/31 08:48:05.7	312.440	0.030	-0.700	0.800
2020/01/31 08:48:05.8	312.430	0.040	-0.760	0.790
2020/01/31 08:48:05.9	312.410	0.060	-0.810	0.770
2020/01/31 08:48:06.0	312.400	0.070	-0.860	0.750
2020/01/31 08:48:06.1	312.380	0.080	-0.910	0.730
2020/01/31 08:48:06.2	312.370	0.090	-0.960	0.710
2020/01/31 08:48:06.3	312.360	0.100	-1.000	0.680
2020/01/31 08:48:06.4	312.360	0.100	-1.040	0.650
2020/01/31 08:48:06.5	312.350	0.110	-1.070	0.620
2020/01/31 08:48:06.6	312.340	0.110	-1.100	0.590
2020/01/31 08:48:06.7	312.330	0.110	-1.120	0.560
2020/01/31 08:48:06.8	312.330	0.120	-1.140	0.530
2020/01/31 08:48:06.9	312.320	0.120	-1.150	0.490
2020/01/31 08:48:07.0	312.320	0.120	-1.150	0.460
2020/01/31 08:48:07.1	312.310	0.110	-1.150	0.430
2020/01/31 08:48:07.2	312.310	0.110	-1.150	0.400
2020/01/31 08:48:07.3	312.310	0.110	-1.140	0.370
2020/01/31 08:48:07.4	312.310	0.100	-1.120	0.340
2020/01/31 08:48:07.5	312.310	0.090	-1.100	0.310
2020/01/31 08:48:07.6	312.310	0.090	-1.070	0.280
2020/01/31 08:48:07.7	312.300	0.080	-1.030	0.250
2020/01/31 08:48:07.8	312.300	0.070	-0.990	0.230
2020/01/31 08:48:07.9	312.300	0.060	-0.950	0.200
2020/01/31 08:48:08.0	312.300	0.050	-0.900	0.180
2020/01/31 08:48:08.1	312.300	0.030	-0.850	0.160
2020/01/31 08:48:08.2	312.300	0.020	-0.790	0.130
2020/01/31 08:48:08.3	312.300	0.010	-0.730	0.110
2020/01/31 08:48:08.4	312.310	-0.000	-0.670	0.090
2020/01/31 08:48:08.5	312.310	-0.020	-0.600	0.080
2020/01/31 08:48:08.6	312.310	-0.030	-0.540	0.060
2020/01/31 08:48:08.7	312.310	-0.050	-0.470	0.040
2020/01/31 08:48:08.8	312.300	-0.060	-0.400	0.030
2020/01/31 08:48:08.9	312.300	-0.070	-0.330	0.020
2020/01/31 08:48:09.0	312.300	-0.090	-0.260	0.010
2020/01/31 08:48:09.1	312.300	-0.100	-0.190	0.010
2020/01/31 08:48:09.2	312.290	-0.110	-0.120	0.010
2020/01/31 08:48:09.3	312.290	-0.120	-0.050	0.010
2020/01/31 08:48:09.4	312.280	-0.130	0.010	0.010
2020/01/31 08:48:09.5	312.270	-0.140	0.080	0.010
2020/01/31 08:48:09.6	312.270	-0.140	0.140	0.020
2020/01/31 08:48:09.7	312.260	-0.150	0.200	0.030
2020/01/31 08:48:09.8	312.250	-0.150	0.250	0.040
2020/01/31 08:48:09.9	312.250	-0.150	0.300	0.060
2020/01/31 08:48:10.0	312.240	-0.150	0.350	0.070
2020/01/31 08:48:10.1	312.240	-0.140	0.390	0.090
2020/01/31 08:48:10.2	312.230	-0.140	0.420	0.110
2020/01/31 08:48:10.3	312.230	-0.130	0.450	0.130
2020/01/31 08:48:10.4	312.230	-0.120	0.470	0.150
2020/01/31 08:48:10.5	312.230	-0.110	0.490	0.170
2020/01/31 08:48:10.6	312.230	-0.090	0.500	0.190
2020/01/31 08:48:10.7	312.240	-0.070	0.510	0.210
2020/01/31 08:48:10.8	312.240	-0.050	0.510	0.230
2020/01/31 08:48:10.9	312.250	-0.030	0.500	0.240
2020/01/31 08:48:11.0	312.250	-0.010	0.480	0.260
2020/01/31 08:48:11.1	312.270	0.010	0.460	0.270
2020/01/31 08:48:11.2	312.280	0.040	0.440	0.280
2020/01/31 08:48:11.3	312.300	0.070	0.410	0.290
2020/01/31 08:48:11.4	312.320	0.090	0.370	0.290
2020/01/31 08:48:11.5	312.340	0.120	0.330	0.290
2020/01/31 08:48:11.6	312.360	0.150	0.290	0.290
2020/01/31 08:48:11.7	312.390	0.170	0.240	0.290
2020/01/31 08:48:11.8	312.420	0.200	0.200	0.290
2020/01/31 08:48:11.9	312.450	0.220	0.140	0.280
2020/01/31 08:48:12.0	312.480	0.250	0.090	0.280
2020/01/31 08:48:12.1	312.510	0.270	0.040	0.270
2020/01/31 08:48:12.2	312.550	0.290	-0.010	0.260
2020/01/31 08:48:12.3	312.580	0.310	-0.060	0.250
2020/01/31 08:48:12.4	312.610	0.320	-0.110	0.240
2020/01/31 08:48:12.5	312.650	0.330	-0.160	0.220
2020/01/31 08:48:12.6	312.680	0.340	-0.200	0.210
2020/01/31 08:48:12.7	312.720	0.340	-0.240	0.200
2020/01/31 08:48:12.8	312.750	0.350	-0.280	0.180
2020/01/31 08:48:12.9	312.790	0.340	-0.320	0.170
2020/01/31 08:48:13.0	312.820	0.340	-0.350	0.150
2020/01/31 08:48:13.1	312.860	0.330	-0.370	0.140
2020/01/31 08:48:13.2	312.890	0.320	-0.390	0.120
2020/01/31 08:48:13.3	312.920	0.300	-0.410	0.110
2020/01/31 08:48:13.4	312.950	0.280	-0.420	0.090
2020/01/31 08:48:13.5	312.980	0.250	-0.420	0.080
2020/01/31 08:48:13.6	313.000	0.230	-0.430	0.070
2020/01/31 08:48:13.7	313.020	0.200	-0.420	0.050
2020/01/31 08:48:13.8	313.040	0.170	-0.420	0.040
2020/01/31 08:48:13.9	313.060	0.130	-0.400	0.030
2020/01/31 08:48:14.0	313.080	0.100	-0.390	0.020
2020/01/31 08:48:14.1	313.090	0.060	-0.370	0.020
2020/01/31 08:48:14.2	313.100	0.020	-0.350	0.010
2020/01/31 08:48:14.3	313.100	-0.010	-0.320	0.010
2020/01/31 08:48:14.4	313.110	-0.050	-0.290	0.010
2020/01/31 08:48:14.5	313.110	-0.090	-0.270	0.010
2020/01/31 08:48:14.6	313.110	-0.130	-0.230	0.010
2020/01/31 08:48:14.7	313.110	-0.160	-0.200	0.020
2020/01/31 08:48:14.8	313.110	-0.200	-0.170	0.020
2020/01/31 08:48:14.9	313.100	-0.230	-0.140	0.030
2020/01/31 08:48:15.0	313.090	-0.260	-0.110	0.040
2020/01/31 08:48:15.1	313.080	-0.280	-0.080	0.050
2020/01/31 08:48:15.2	313.070	-0.310	-0.060	0.060
2020/01/31 08:48:15.3	313.060	-0.330	-0.040	0.070
2020/01/31 08:48:15.4	313.040	-0.350	-0.020	0.080
2020/01/31 08:48:15.5	313.020	-0.360	0.000	0.100
2020/01/31 08:48:15.6	313.000	-0.370	0.010	0.110
2020/01/31 08:48:15.7	312.980	-0.370	0.020	0.130
2020/01/31 08:48:15.8	312.960	-0.370	0.030	0.150
2020/01/31 08:48:15.9	312.930	-0.370	0.030	0.170
2020/01/31 08:48:16.0	312.900	-0.360	0.030	0.190
2020/01/31 08:48:16.1	312.870	-0.350	0.020	0.210
2020/01/31 08:48:16.2	312.840	-0.340	0.010	0.230
2020/01/31 08:48:16.3	312.800	-0.320	-0.010	0.260
2020/01/31 08:48:16.4	312.770	-0.300	-0.030	0.280
2020/01/31 08:48:16.5	312.730	-0.280	-0.050	0.300
2020/01/31 08:48:16.6	312.690	-0.250	-0.080	0.320
2020/01/31 08:48:16.7	312.650	-0.220	-0.120	0.340
2020/01/31 08:48:16.8	312.610	-0.190	-0.150	0.360
2020/01/31 08:48:16.9	312.570	-0.160	-0.190	0.380
2020/01/31 08:48:17.0	312.530	-0.120	-0.230	0.400
2020/01/31 08:48:17.1	312.490	-0.090	-0.280	0.410
2020/01/31 08:48:17.2	312.460	-0.050	-0.330	0.420
2020/01/31 08:48:17.3	312.420	-0.020	-0.380	0.430
2020/01/31 08:48:17.4	312.380	0.020	-0.430	0.440
2020/01/31 08:48:17.5	312.350	0.060	-0.480	0.440
2020/01/31 08:48:17.6	312.310	0.090	-0.530	0.440
2020/01/31 08:48:17.7	312.280	0.130	-0.580	0.440
2020/01/31 08:48:17.8	312.250	0.160	-0.640	0.440
2020/01/31 08:48:17.9	312.220	0.190	-0.690	0.430
2020/01/31 08:48:18.0	312.200	0.220	-0.730	0.420
2020/01/31 08:48:18.1	312.170	0.250	-0.780	0.410
2020/01/31 08:48:18.2	312.150	0.280	-0.820	0.400
2020/01/31 08:48:18.3	312.130	0.300	-0.860	0.380
2020/01/31 08:48:18.4	312.110	0.320	-0.890	0.370
2020/01/31 08:48:18.5	312.090	0.340	-0.920	0.350
2020/01/31 08:48:18.6	312.080	0.360	-0.950	0.340
2020/01/31 08:48:18.7	312.060	0.370	-0.970	0.320
2020/01/31 08:48:18.8	312.050	0.380	-0.990	0.300
2020/01/31 08:48:18.9	312.040	0.380	-0.990	0.280
2020/01/31 08:48:19.0	312.030	0.390	-1.000	0.260
2020/01/31 08:48:19.1	312.020	0.390	-1.000	0.240
2020/01/31 08:48:19.2	312.010	0.380	-0.990	0.230
2020/01/31 08:48:19.3	312.010	0.380	-0.970	0.210
2020/01/31 08:48:19.4	312.010	0.370	-0.960	0.190
2020/01/31 08:48:19.5	312.010	0.350	-0.930	0.170
2020/01/31 08:48:19.6	312.010	0.340	-0.900	0.160
2020/01/31 08:48:19.7	312.020	0.320	-0.870	0.140
2020/01/31 08:48:19.8	312.020	0.300	-0.830	0.130
2020/01/31 08:48:19.9	312.030	0.280	-0.790	0.110
2020/01/31 08:48:20.0	312.040	0.260	-0.740	0.090
2020/01/31 08:48:20.1	312.040	0.240	-0.690	0.080
2020/01/31 08:48:20.2	312.060	0.210	-0.640	0.060
2020/01/31 08:48:20.3	312.070	0.190	-0.590	0.050
2020/01/31 08:48:20.4	312.080	0.160	-0.540	0.040
2020/01/31 08:48:20.5	312.100	0.140	-0.480	0.030
2020/01/31 08:48:20.6	312.110	0.110	-0.430	0.010
2020/01/31 08:48:20.7	312.130	0.080	-0.370	-0.000
2020/01/31 08:48:20.8	312.150	0.060	-0.320	-0.010
2020/01/31 08:48:20.9	312.170	0.030	-0.260	-0.030
2020/01/31 08:48:21.0	312.190	0.010	-0.210	-0.040
2020/01/31 08:48:21.1	312.210	-0.010	-0.160	-0.050
2020/01/31 08:48:21.2	312.230	-0.040	-0.110	-0.060
2020/01/31 08:48:21.3	312.250	-0.060	-0.060	-0.080
2020/01/31 08:48:21.4	312.270	-0.080	-0.020	-0.090
2020/01/31 08:48:21.5	312.290	-0.090	0.020	-0.100
2020/01/31 08:48:21.6	312.320	-0.110	0.060	-0.110
2020/01/31 08:48:21.7	312.340	-0.120	0.100	-0.120
2020/01/31 08:48:21.8	312.360	-0.130	0.130	-0.130
2020/01/31 08:48:21.9	312.390	-0.140	0.160	-0.130
2020/01/31 08:48:22.0	312.410	-0.150	0.180	-0.140
2020/01/31 08:48:22.1	312.440	-0.160	0.210	-0.150
2020/01/31 08:48:22.2	312.460	-0.160	0.230	-0.150
2020/01/31 08:48:22.3	312.490	-0.160	0.240	-0.160
2020/01/31 08:48:22.4	312.500	-0.160	0.250	-0.160
2020/01/31 08:48:22.5	312.530	-0.160	0.270	-0.160
2020/01/31 08:48:22.6	312.550	-0.160	0.270	-0.170
2020/01/31 08:48:22.7	312.570	-0.160	0.280	-0.170
2020/01/31 08:48:22.8	312.600	-0.150	0.280	-0.170
2020/01/31 08:48:22.9	312.620	-0.150	0.280	-0.170
2020/01/31 08:48:23.0	312.640	-0.140	0.280	-0.170
2020/01/31 08:48:23.1	312.660	-0.130	0.280	-0.170
2020/01/31 08:48:23.2	312.680	-0.130	0.280	-0.170
2020/01/31 08:48:23.3	312.700	-0.120	0.280	-0.170
2020/01/31 08:48:23.4	312.710	-0.110	0.270	-0.160
2020/01/31 08:48:23.5	312.730	-0.100	0.270	-0.160
2020/01/31 08:48:23.6	312.750	-0.100	0.260	-0.150
2020/01/31 08:48:23.7	312.760	-0.090	0.260	-0.150
2020/01/31 08:48:23.8	312.780	-0.080	0.250	-0.140
2020/01/31 08:48:23.9	312.790	-0.070	0.250	-0.130
2020/01/31 08:48:24.0	312.800	-0.070	0.250	-0.120
2020/01/31 08:48:24.1	312.800	-0.070	0.240	-0.100
2020/01/31 08:48:24.2	312.810	-0.060	0.240	-0.090
2020/01/31 08:48:24.3	312.810	-0.060	0.240	-0.070
2020/01/31 08:48:24.4	312.810	-0.060	0.230	-0.050
2020/01/31 08:48:24.5	312.810	-0.060	0.230	-0.030
2020/01/31 08:48:24.6	312.800	-0.060	0.230	-0.020
2020/01/31 08:48:24.7	312.800	-0.060	0.230	0.010
2020/01/31 08:48:24.8	312.790	-0.070	0.230	0.030
2020/01/31 08:48:24.9	312.780	-0.070	0.230	0.050
2020/01/31 08:48:25.0	312.770	-0.080	0.230	0.070
2020/01/31 08:48:25.1	312.760	-0.080	0.230	0.100
2020/01/31 08:48:25.2	312.750	-0.090	0.230	0.120
2020/01/31 08:48:25.3	312.730	-0.090	0.230	0.150
2020/01/31 08:48:25.4	312.700	-0.100	0.230	0.180
2020/01/31 08:48:25.5	312.690	-0.110	0.220	0.210
2020/01/31 08:48:25.6	312.670	-0.120	0.220	0.230
2020/01/31 08:48:25.7	312.650	-0.130	0.220	0.260
2020/01/31 08:48:25.8	312.630	-0.130	0.210	0.290
2020/01/31 08:48:25.9	312.610	-0.140	0.200	0.320
2020/01/31 08:48:26.0	312.580	-0.150	0.190	0.350
2020/01/31 08:48:26.1	312.560	-0.150	0.170	0.370
2020/01/31 08:48:26.2	312.540	-0.160	0.150	0.390
2020/01/31 08:48:26.3	312.520	-0.160	0.130	0.420
2020/01/31 08:48:26.4	312.480	-0.170	0.110	0.430
2020/01/31 08:48:26.5	312.460	-0.170	0.090	0.450
2020/01/31 08:48:26.6	312.440	-0.170	0.050	0.460
2020/01/31 08:48:26.7	312.420	-0.170	0.020	0.480
2020/01/31 08:48:26.8	312.400	-0.170	-0.020	0.490
2020/01/31 08:48:26.9	312.390	-0.160	-0.070	0.490
2020/01/31 08:48:27.0	312.370	-0.160	-0.110	0.500
2020/01/31 08:48:27.1	312.350	-0.150	-0.160	0.500
2020/01/31 08:48:27.2	312.340	-0.140	-0.220	0.500
2020/01/31 08:48:27.3	312.320	-0.130	-0.270	0.500
2020/01/31 08:48:27.4	312.300	-0.120	-0.330	0.490
2020/01/31 08:48:27.5	312.290	-0.110	-0.390	0.490
2020/01/31 08:48:27.6	312.280	-0.100	-0.450	0.480
2020/01/31 08:48:27.7	312.270	-0.080	-0.520	0.470
2020/01/31 08:48:27.8	312.260	-0.060	-0.580	0.460
2020/01/31 08:48:27.9	312.250	-0.050	-0.640	0.450
2020/01/31 08:48:28.0	312.250	-0.030	-0.700	0.440
2020/01/31 08:48:28.1	312.240	-0.010	-0.760	0.430
2020/01/31 08:48:28.2	312.230	0.010	-0.810	0.420
2020/01/31 08:48:28.3	312.230	0.040	-0.870	0.400
2020/01/31 08:48:28.4	312.230	0.060	-0.920	0.390
2020/01/31 08:48:28.5	312.230	0.080	-0.970	0.370
2020/01/31 08:48:28.6	312.230	0.100	-1.010	0.360
2020/01/31 08:48:28.7	312.230	0.130	-1.050	0.340
2020/01/31 08:48:28.8	312.230	0.150	-1.080	0.330
2020/01/31 08:48:28.9	312.230	0.170	-1.110	0.310
2020/01/31 08:48:29.0	312.230	0.190	-1.140	0.290
2020/01/31 08:48:29.1	312.240	0.210	-1.160	0.280
2020/01/31 08:48:29.2	312.240	0.230	-1.170	0.260
2020/01/31 08:48:29.3	312.250	0.240	-1.180	0.240
2020/01/31 08:48:29.4	312.260	0.260	-1.180	0.230
2020/01/31 08:48:29.5	312.270	0.270	-1.180	0.210
2020/01/31 08:48:29.6	312.280	0.290	-1.160	0.200
2020/01/31 08:48:29.7	312.280	0.300	-1.150	0.180
2020/01/31 08:48:29.8	312.290	0.310	-1.130	0.160
2020/01/31 08:48:29.9	312.300	0.310	-1.100	0.150
2020/01/31 08:48:30.0	312.310	0.320	-1.070	0.130
2020/01/31 08:48:30.1	312.320	0.320	-1.030	0.110
2020/01/31 08:48:30.2	312.340	0.320	-0.990	0.090
2020/01/31 08:48:30.3	312.350	0.310	-0.940	0.070
2020/01/31 08:48:30.4	312.370	0.310	-0.890	0.050
2020/01/31 08:48:30.5	312.380	0.300	-0.840	0.030
2020/01/31 08:48:30.6	312.400	0.290	-0.790	0.010
2020/01/31 08:48:30.7	312.410	0.280	-0.730	-0.010
2020/01/31 08:48:30.8	312.430	0.270	-0.670	-0.030
2020/01/31 08:48:30.9	312.440	0.250	-0.610	-0.040
2020/01/31 08:48:31.0	312.460	0.230	-0.550	-0.060
2020/01/31 08:48:31.1	312.480	0.210	-0.480	-0.080
2020/01/31 08:48:31.2	312.490	0.190	-0.420	-0.100
2020/01/31 08:48:31.3	312.510	0.170	-0.360	-0.110
2020/01/31 08:48:31.4	312.530	0.150	-0.290	-0.130
2020/01/31 08:48:31.5	312.550	0.120	-0.230	-0.140
2020/01/31 08:48:31.6	312.570	0.100	-0.180	-0.160
2020/01/31 08:48:31.7	312.590	0.070	-0.120	-0.170
2020/01/31 08:48:31.8	312.610	0.050	-0.060	-0.180
2020/01/31 08:48:31.9	312.620	0.020	-0.010	-0.190
2020/01/31 08:48:32.0	312.640	-0.000	0.040	-0.190
2020/01/31 08:48:32.1	312.660	-0.030	0.090	-0.200
2020/01/31 08:48:32.2	312.670	-0.050	0.130	-0.200
2020/01/31 08:48:32.3	312.690	-0.080	0.180	-0.200
2020/01/31 08:48:32.4	312.700	-0.100	0.210	-0.200
2020/01/31 08:48:32.5	312.710	-0.120	0.250	-0.200
2020/01/31 08:48:32.6	312.720	-0.140	0.280	-0.190
2020/01/31 08:48:32.7	312.730	-0.160	0.310	-0.190
2020/01/31 08:48:32.8	312.740	-0.180	0.340	-0.180
2020/01/31 08:48:32.9	312.740	-0.190	0.360	-0.170
2020/01/31 08:48:33.0	312.750	-0.200	0.380	-0.150
2020/01/31 08:48:33.1	312.750	-0.210	0.390	-0.140
2020/01/31 08:48:33.2	312.750	-0.220	0.400	-0.120
2020/01/31 08:48:33.3	312.750	-0.230	0.410	-0.100
2020/01/31 08:48:33.4	312.750	-0.230	0.410	-0.080
2020/01/31 08:48:33.5	312.740	-0.230	0.410	-0.060
2020/01/31 08:48:33.6	312.740	-0.230	0.410	-0.040
2020/01/31 08:48:33.7	312.740	-0.220	0.400	-0.010
2020/01/31 08:48:33.8	312.730	-0.210	0.390	0.010
2020/01/31 08:48:33.9	312.730	-0.200	0.380	0.040
2020/01/31 08:48:34.0	312.720	-0.190	0.360	0.070
2020/01/31 08:48:34.1	312.710	-0.180	0.340	0.090
2020/01/31 08:48:34.2	312.710	-0.160	0.320	0.120
2020/01/31 08:48:34.3	312.700	-0.140	0.300	0.140
2020/01/31 08:48:34.4	312.700	-0.120	0.270	0.170
2020/01/31 08:48:34.5	312.690	-0.100	0.240	0.200
2020/01/31 08:48:34.6	312.690	-0.080	0.210	0.220
2020/01/31 08:48:34.7	312.680	-0.050	0.180	0.240
2020/01/31 08:48:34.8	312.680	-0.030	0.140	0.260
2020/01/31 08:48:34.9	312.670	0.000	0.100	0.280
2020/01/31 08:48:35.0	312.670	0.030	0.070	0.290
2020/01/31 08:48:35.1	312.660	0.060	0.030	0.310
2020/01/31 08:48:35.2	312.660	0.080	-0.010	0.320
2020/01/31 08:48:35.3	312.660	0.110	-0.050	0.330
2020/01/31 08:48:35.4	312.650	0.140	-0.090	0.340
2020/01/31 08:48:35.5	312.650	0.160	-0.130	0.340
2020/01/31 08:48:35.6	312.650	0.190	-0.160	0.350
2020/01/31 08:48:35.7	312.640	0.210	-0.200	0.350
2020/01/31 08:48:35.8	312.640	0.230	-0.230	0.350
2020/01/31 08:48:35.9	312.640	0.250	-0.260	0.350
2020/01/31 08:48:36.0	312.640	0.270	-0.290	0.350
2020/01/31 08:48:36.1	312.640	0.280	-0.320	0.350
2020/01/31 08:48:36.2	312.630	0.300	-0.350	0.350
2020/01/31 08:48:36.3	312.630	0.310	-0.370	0.350
2020/01/31 08:48:36.4	312.620	0.310	-0.390	0.340
2020/01/31 08:48:36.5	312.620	0.320	-0.400	0.340
2020/01/31 08:48:36.6	312.620	0.320	-0.410	0.330
2020/01/31 08:48:36.7	312.610	0.320	-0.420	0.330
2020/01/31 08:48:36.8	312.600	0.320	-0.430	0.330
2020/01/31 08:48:36.9	312.600	0.310	-0.430	0.320
2020/01/31 08:48:37.0	312.590	0.300	-0.430	0.320
2020/01/31 08:48:37.1	312.580	0.290	-0.430	0.320
2020/01/31 08:48:37.2	312.570	0.270	-0.420	0.310
2020/01/31 08:48:37.3	312.560	0.250	-0.410	0.310
2020/01/31 08:48:37.4	312.560	0.230	-0.400	0.310
2020/01/31 08:48:37.5	312.550	0.210	-0.390	0.310
2020/01/31 08:48:37.6	312.540	0.190	-0.370	0.300
2020/01/31 08:48:37.7	312.530	0.160	-0.360	0.300
2020/01/31 08:48:37.8	312.520	0.130	-0.340	0.300
2020/01/31 08:48:37.9	312.510	0.100	-0.320	0.300
2020/01/31 08:48:38.0	312.500	0.070	-0.310	0.300
2020/01/31 08:48:38.1	312.500	0.040	-0.290	0.290
2020/01/31 08:48:38.2	312.490	0.010	-0.270	0.290
2020/01/31 08:48:38.3	312.480	-0.020	-0.260	0.280
2020/01/31 08:48:38.4	312.470	-0.050	-0.250	0.270
2020/01/31 08:48:38.5	312.470	-0.080	-0.230	0.270
2020/01/31 08:48:38.6	312.460	-0.110	-0.220	0.260
2020/01/31 08:48:38.7	312.460	-0.140	-0.210	0.240
2020/01/31 08:48:38.8	312.450	-0.170	-0.200	0.230
2020/01/31 08:48:38.9	312.450	-0.190	-0.190	0.210
2020/01/31 08:48:39.0	312.450	-0.220	-0.190	0.200
2020/01/31 08:48:39.1	312.450	-0.240	-0.180	0.180
2020/01/31 08:48:39.2	312.450	-0.260	-0.180	0.160
2020/01/31 08:48:39.3	312.450	-0.280	-0.180	0.140
2020/01/31 08:48:39.4	312.450	-0.300	-0.180	0.120
2020/01/31 08:48:39.5	312.450	-0.310	-0.180	0.100
2020/01/31 08:48:39.6	312.460	-0.320	-0.180	0.080
2020/01/31 08:48:39.7	312.460	-0.330	-0.180	0.060
2020/01/31 08:48:39.8	312.460	-0.340	-0.190	0.050
2020/01/31 08:48:39.9	312.460	-0.340	-0.190	0.030
2020/01/31 08:48:40.0	312.460	-0.340	-0.200	0.020
2020/01/31 08:48:40.1	312.460	-0.340	-0.200	0.010
2020/01/31 08:48:40.2	312.450	-0.340	-0.200	0.010
2020/01/31 08:48:40.3	312.450	-0.330	-0.210	0.010
2020/01/31 08:48:40.4	312.440	-0.330	-0.220	0.000
2020/01/31 08:48:40.5	312.430	-0.320	-0.220	0.010
2020/01/31 08:48:40.6	312.420	-0.310	-0.220	0.010
2020/01/31 08:48:40.7	312.410	-0.290	-0.230	0.020
2020/01/31 08:48:40.8	312.390	-0.280	-0.230	0.030
2020/01/31 08:48:40.9	312.380	-0.260	-0.240	0.040
2020/01/31 08:48:41.0	312.360	-0.240	-0.240	0.060
2020/01/31 08:48:41.1	312.340	-0.220	-0.250	0.070
2020/01/31 08:48:41.2	312.330	-0.200	-0.250	0.080
2020/01/31 08:48:41.3	312.310	-0.180	-0.260	0.100
2020/01/31 08:48:41.4	312.280	-0.160	-0.270	0.110
2020/01/31 08:48:41.5	312.270	-0.140	-0.280	0.120
2020/01/31 08:48:41.6	312.250	-0.120	-0.290	0.130
2020/01/31 08:48:41.7	312.240	-0.090	-0.300	0.140
2020/01/31 08:48:41.8	312.220	-0.070	-0.310	0.140
2020/01/31 08:48:41.9	312.210	-0.050	-0.330	0.150
2020/01/31 08:48:42.0	312.200	-0.030	-0.350	0.150
2020/01/31 08:48:42.1	312.190	-0.010	-0.370	0.150
2020/01/31 08:48:42.2	312.180	0.010	-0.390	0.150
2020/01/31 08:48:42.3	312.180	0.040	-0.410	0.140
2020/01/31 08:48:42.4	312.160	0.050	-0.430	0.130
2020/01/31 08:48:42.5	312.160	0.070	-0.450	0.120
2020/01/31 08:48:42.6	312.150	0.090	-0.470	0.110
2020/01/31 08:48:42.7	312.150	0.110	-0.490	0.090
2020/01/31 08:48:42.8	312.160	0.120	-0.520	0.080
2020/01/31 08:48:42.9	312.160	0.140	-0.540	0.060
2020/01/31 08:48:43.0	312.160	0.150	-0.560	0.040
2020/01/31 08:48:43.1	312.170	0.170	-0.580	0.020
2020/01/31 08:48:43.2	312.180	0.180	-0.600	0.000
2020/01/31 08:48:43.3	312.190	0.190	-0.610	-0.020
2020/01/31 08:48:43.4	312.200	0.200	-0.620	-0.040
2020/01/31 08:48:43.5	312.210	0.200	-0.630	-0.060
2020/01/31 08:48:43.6	312.230	0.210	-0.640	-0.080
2020/01/31 08:48:43.7	312.240	0.210	-0.650	-0.100
2020/01/31 08:48:43.8	312.260	0.220	-0.650	-0.120
2020/01/31 08:48:43.9	312.290	0.220	-0.650	-0.140
2020/01/31 08:48:44.0	312.310	0.220	-0.650	-0.160
2020/01/31 08:48:44.1	312.340	0.220	-0.650	-0.180
2020/01/31 08:48:44.2	312.360	0.220	-0.640	-0.200
2020/01/31 08:48:44.3	312.390	0.220	-0.630	-0.220
2020/01/31 08:48:44.4	312.430	0.220	-0.620	-0.240
2020/01/31 08:48:44.5	312.460	0.210	-0.600	-0.250
2020/01/31 08:48:44.6	312.490	0.210	-0.580	-0.260
2020/01/31 08:48:44.7	312.530	0.210	-0.560	-0.280
2020/01/31 08:48:44.8	312.560	0.200	-0.530	-0.290
2020/01/31 08:48:44.9	312.600	0.190	-0.510	-0.290
2020/01/31 08:48:45.0	312.630	0.190	-0.480	-0.300
2020/01/31 08:48:45.1	312.670	0.180	-0.440	-0.300
2020/01/31 08:48:45.2	312.700	0.170	-0.410	-0.300
2020/01/31 08:48:45.3	312.730	0.170	-0.370	-0.290
2020/01/31 08:48:45.4	312.760	0.160	-0.330	-0.280
2020/01/31 08:48:45.5	312.790	0.150	-0.290	-0.270
2020/01/31 08:48:45.6	312.810	0.140	-0.240	-0.250
2020/01/31 08:48:45.7	312.840	0.130	-0.200	-0.230
2020/01/31 08:48:45.8	312.860	0.120	-0.150	-0.210
2020/01/31 08:48:45.9	312.880	0.110	-0.100	-0.180
2020/01/31 08:48:46.0	312.890	0.100	-0.050	-0.150
2020/01/31 08:48:46.1	312.900	0.090	-0.010	-0.120
2020/01/31 08:48:46.2	312.910	0.080	0.040	-0.080
2020/01/31 08:48:46.3	312.920	0.060	0.090	-0.050
2020/01/31 08:48:46.4	312.920	0.050	0.140	-0.010
2020/01/31 08:48:46.5	312.930	0.040	0.180	0.040
2020/01/31 08:48:46.6	312.920	0.030	0.220	0.080
2020/01/31 08:48:46.7	312.920	0.020	0.260	0.120
2020/01/31 08:48:46.8	312.910	0.010	0.300	0.160
2020/01/31 08:48:46.9	312.910	-0.010	0.340	0.200
2020/01/31 08:48:47.0	312.900	-0.020	0.370	0.250
2020/01/31 08:48:47.1	312.890	-0.030	0.390	0.290
2020/01/31 08:48:47.2	312.870	-0.040	0.420	0.330
2020/01/31 08:48:47.3	312.860	-0.050	0.440	0.370
2020/01/31 08:48:47.4	312.840	-0.060	0.450	0.410
2020/01/31 08:48:47.5	312.820	-0.070	0.460	0.440
2020/01/31 08:48:47.6	312.800	-0.080	0.470	0.480
2020/01/31 08:48:47.7	312.780	-0.090	0.470	0.510
2020/01/31 08:48:47.8	312.760	-0.100	0.470	0.550
2020/01/31 08:48:47.9	312.730	-0.110	0.460	0.580
2020/01/31 08:48:48.0	312.710	-0.120	0.440	0.600
2020/01/31 08:48:48.1	312.690	-0.130	0.420	0.630
2020/01/31 08:48:48.2	312.660	-0.130	0.400	0.650
2020/01/31 08:48:48.3	312.640	-0.140	0.370	0.670
2020/01/31 08:48:48.4	312.620	-0.150	0.340	0.680
2020/01/31 08:48:48.5	312.590	-0.150	0.300	0.700
2020/01/31 08:48:48.6	312.570	-0.150	0.270	0.710
2020/01/31 08:48:48.7	312.550	-0.160	0.220	0.720
2020/01/31 08:48:48.8	312.520	-0.160	0.180	0.720
2020/01/31 08:48:48.9	312.500	-0.160	0.130	0.730
2020/01/31 08:48:49.0	312.480	-0.160	0.080	0.720
2020/01/31 08:48:49.1	312.460	-0.150	0.030	0.720
2020/01/31 08:48:49.2	312.440	-0.150	-0.020	0.710
2020/01/31 08:48:49.3	312.420	-0.150	-0.070	0.700
2020/01/31 08:48:49.4	312.410	-0.140	-0.130	0.690
2020/01/31 08:48:49.5	312.390	-0.130	-0.180	0.680
2020/01/31 08:48:49.6	312.380	-0.130	-0.230	0.660
2020/01/31 08:48:49.7	312.360	-0.120	-0.280	0.650
2020/01/31 08:48:49.8	312.350	-0.110	-0.330	0.630
2020/01/31 08:48:49.9	312.330	-0.100	-0.380	0.610
2020/01/31 08:48:50.0	312.320	-0.090	-0.430	0.590
2020/01/31 08:48:50.1	312.310	-0.070	-0.470	0.560
2020/01/31 08:48:50.2	312.300	-0.060	-0.510	0.540
2020/01/31 08:48:50.3	312.290	-0.050	-0.550	0.520
2020/01/31 08:48:50.4	312.280	-0.030	-0.580	0.490
2020/01/31 08:48:50.5	312.270	-0.020	-0.610	0.470
2020/01/31 08:48:50.6	312.270	-0.000	-0.640	0.440
2020/01/31 08:48:50.7	312.260	0.010	-0.670	0.420
2020/01/31 08:48:50.8	312.250	0.030	-0.690	0.390
2020/01/31 08:48:50.9	312.250	0.040	-0.710	0.370
2020/01/31 08:48:51.0	312.250	0.060	-0.720	0.340
2020/01/31 08:48:51.1	312.240	0.080	-0.730	0.320
2020/01/31 08:48:51.2	312.240	0.090	-0.740	0.300
2020/01/31 08:48:51.3	312.240	0.110	-0.740	0.270
2020/01/31 08:48:51.4	312.250	0.120	-0.740	0.250
2020/01/31 08:48:51.5	312.240	0.130	-0.730	0.230
2020/01/31 08:48:51.6	312.240	0.150	-0.730	0.210
2020/01/31 08:48:51.7	312.240	0.160	-0.710	0.190
2020/01/31 08:48:51.8	312.240	0.170	-0.700	0.170
2020/01/31 08:48:51.9	312.240	0.180	-0.680	0.160
2020/01/31 08:48:52.0	312.240	0.190	-0.660	0.140
2020/01/31 08:48:52.1	312.240	0.200	-0.640	0.130
2020/01/31 08:48:52.2	312.230	0.200	-0.620	0.110
2020/01/31 08:48:52.3	312.230	0.210	-0.590	0.100
2020/01/31 08:48:52.4	312.230	0.210	-0.570	0.090
2020/01/31 08:48:52.5	312.220	0.220	-0.540	0.080
2020/01/31 08:48:52.6	312.220	0.220	-0.510	0.070
2020/01/31 08:48:52.7	312.210	0.220	-0.480	0.070
2020/01/31 08:48:52.8	312.200	0.220	-0.450	0.060
2020/01/31 08:48:52.9	312.190	0.220	-0.420	0.060
2020/01/31 08:48:53.0	312.190	0.220	-0.380	0.050
2020/01/31 08:48:53.1	312.180	0.210	-0.350	0.050
2020/01/31 08:48:53.2	312.170	0.210	-0.320	0.050
2020/01/31 08:48:53.3	312.160	0.200	-0.300	0.050
2020/01/31 08:48:53.4	312.160	0.200	-0.270	0.040
2020/01/31 08:48:53.5	312.150	0.190	-0.240	0.040
2020/01/31 08:48:53.6	312.150	0.180	-0.220	0.040
2020/01/31 08:48:53.7	312.140	0.170	-0.190	0.040
2020/01/31 08:48:53.8	312.140	0.160	-0.170	0.040
2020/01/31 08:48:53.9	312.140	0.160	-0.150	0.040
2020/01/31 08:48:54.0	312.140	0.150	-0.140	0.040
2020/01/31 08:48:54.1	312.140	0.140	-0.120	0.040
2020/01/31 08:48:54.2	312.140	0.130	-0.110	0.040
2020/01/31 08:48:54.3	312.140	0.120	-0.100	0.040
2020/01/31 08:48:54.4	312.150	0.110	-0.090	0.040
2020/01/31 08:48:54.5	312.150	0.100	-0.090	0.040
2020/01/31 08:48:54.6	312.160	0.080	-0.080	0.040
2020/01/31 08:48:54.7	312.170	0.070	-0.080	0.040
2020/01/31 08:48:54.8	312.170	0.060	-0.080	0.050
2020/01/31 08:48:54.9	312.180	0.050	-0.080	0.050
2020/01/31 08:48:55.0	312.190	0.040	-0.080	0.050
2020/01/31 08:48:55.1	312.200	0.030	-0.080	0.050
2020/01/31 08:48:55.2	312.210	0.020	-0.080	0.050
2020/01/31 08:48:55.3	312.230	0.010	-0.090	0.050
2020/01/31 08:48:55.4	312.240	0.010	-0.090	0.050
2020/01/31 08:48:55.5	312.250	-0.000	-0.100	0.040
2020/01/31 08:48:55.6	312.260	-0.010	-0.110	0.040
2020/01/31 08:48:55.7	312.270	-0.020	-0.120	0.040
2020/01/31 08:48:55.8	312.290	-0.030	-0.130	0.040
2020/01/31 08:48:55.9	312.300	-0.040	-0.140	0.040
2020/01/31 08:48:56.0	312.310	-0.040	-0.150	0.040
2020/01/31 08:48:56.1	312.320	-0.050	-0.160	0.040
2020/01/31 08:48:56.2	312.340	-0.050	-0.170	0.040
2020/01/31 08:48:56.3	312.350	-0.060	-0.190	0.040
2020/01/31 08:48:56.4	312.350	-0.060	-0.200	0.040
2020/01/31 08:48:56.5	312.370	-0.070	-0.210	0.050
2020/01/31 08:48:56.6	312.380	-0.070	-0.220	0.050
2020/01/31 08:48:56.7	312.400	-0.070	-0.230	0.060
2020/01/31 08:48:56.8	312.410	-0.070	-0.250	0.060
2020/01/31 08:48:56.9	312.420	-0.070	-0.260	0.070
2020/01/31 08:48:57.0	312.440	-0.070	-0.270	0.070
2020/01/31 08:48:57.1	312.450	-0.070	-0.280	0.080
2020/01/31 08:48:57.2	312.470	-0.060	-0.290	0.090
2020/01/31 08:48:57.3	312.480	-0.060	-0.300	0.100
2020/01/31 08:48:57.4	312.500	-0.060	-0.300	0.110
2020/01/31 08:48:57.5	312.510	-0.050	-0.310	0.120
2020/01/31 08:48:57.6	312.520	-0.050	-0.320	0.130
2020/01/31 08:48:57.7	312.540	-0.040	-0.320	0.140
2020/01/31 08:48:57.8	312.550	-0.030	-0.330	0.150
2020/01/31 08:48:57.9	312.570	-0.020	-0.330	0.170
2020/01/31 08:48:58.0	312.580	-0.020	-0.340	0.180
2020/01/31 08:48:58.1	312.600	-0.010	-0.340	0.200
2020/01/31 08:48:58.2	312.610	0.000	-0.340	0.220
2020/01/31 08:48:58.3	312.630	0.010	-0.340	0.240
2020/01/31 08:48:58.4	312.640	0.020	-0.340	0.260
2020/01/31 08:48:58.5	312.650	0.040	-0.330	0.280
2020/01/31 08:48:58.6	312.660	0.050	-0.330	0.300
2020/01/31 08:48:58.7	312.680	0.060	-0.330	0.320
2020/01/31 08:48:58.8	312.690	0.070	-0.320	0.350
2020/01/31 08:48:58.9	312.700	0.080	-0.310	0.370
2020/01/31 08:48:59.0	312.720	0.090	-0.310	0.400
2020/01/31 08:48:59.1	312.730	0.100	-0.300	0.420
2020/01/31 08:48:59.2	312.740	0.110	-0.290	0.440
2020/01/31 08:48:59.3	312.750	0.120	-0.280	0.470
2020/01/31 08:48:59.4	312.750	0.130	-0.280	0.500
2020/01/31 08:48:59.5	312.760	0.140	-0.270	0.520
2020/01/31 08:48:59.6	312.770	0.140	-0.260	0.540
2020/01/31 08:48:59.7	312.770	0.150	-0.240	0.570
2020/01/31 08:48:59.8	312.770	0.150	-0.230	0.590
2020/01/31 08:48:59.9	312.780	0.160	-0.220	0.620
2020/01/31 08:49:00.0	312.780	0.160	-0.210	0.640
2020/01/31 08:49:00.1	312.770	0.160	-0.200	0.670
2020/01/31 08:49:00.2	312.770	0.160	-0.180	0.690
2020/01/31 08:49:00.3	312.770	0.160	-0.170	0.720
2020/01/31 08:49:00.4	312.760	0.160	-0.160	0.740
2020/01/31 08:49:00.5	312.760	0.150	-0.140	0.770
2020/01/31 08:49:00.6	312.740	0.150	-0.130	0.790
2020/01/31 08:49:00.7	312.730	0.140	-0.110	0.820
2020/01/31 08:49:00.8	312.720	0.140	-0.100	0.840
2020/01/31 08:49:00.9	312.700	0.130	-0.080	0.870
2020/01/31 08:49:01.0	312.680	0.120	-0.070	0.890
2020/01/31 08:49:01.1	312.660	0.110	-0.050	0.910
2020/01/31 08:49:01.2	312.640	0.100	-0.040	0.940
2020/01/31 08:49:01.3	312.610	0.090	-0.030	0.960
2020/01/31 08:49:01.4	312.590	0.080	-0.010	0.970
2020/01/31 08:49:01.5	312.570	0.070	-0.000	0.990
2020/01/31 08:49:01.6	312.540	0.050	0.010	1.010
2020/01/31 08:49:01.7	312.510	0.040	0.020	1.020
2020/01/31 08:49:01.8	312.480	0.030	0.030	1.030
2020/01/31 08:49:01.9	312.460	0.020	0.030	1.040
2020/01/31 08:49:02.0	312.430	0.010	0.040	1.040
2020/01/31 08:49:02.1	312.400	-0.000	0.040	1.050
2020/01/31 08:49:02.2	312.370	-0.010	0.040	1.050
2020/01/31 08:49:02.3	312.350	-0.020	0.040	1.040
2020/01/31 08:49:02.4	312.320	-0.030	0.030	1.030
2020/01/31 08:49:02.5	312.300	-0.040	0.030	1.020
2020/01/31 08:49:02.6	312.270	-0.050	0.020	1.010
2020/01/31 08:49:02.7	312.250	-0.050	0.010	0.990
2020/01/31 08:49:02.8	312.230	-0.060	-0.010	0.970
2020/01/31 08:49:02.9	312.210	-0.060	-0.020	0.940
2020/01/31 08:49:03.0	312.190	-0.060	-0.040	0.910
2020/01/31 08:49:03.1	312.170	-0.070	-0.060	0.880
2020/01/31 08:49:03.2	312.150	-0.070	-0.080	0.840
2020/01/31 08:49:03.3	312.140	-0.070	-0.110	0.810
2020/01/31 08:49:03.4	312.130	-0.070	-0.130	0.760
2020/01/31 08:49:03.5	312.110	-0.070	-0.160	0.720
2020/01/31 08:49:03.6	312.100	-0.070	-0.190	0.670
2020/01/31 08:49:03.7	312.090	-0.070	-0.220	0.620
2020/01/31 08:49:03.8	312.080	-0.070	-0.250	0.570
2020/01/31 08:49:03.9	312.070	-0.070	-0.280	0.520
2020/01/31 08:49:04.0	312.070	-0.070	-0.310	0.470
2020/01/31 08:49:04.1	312.060	-0.070	-0.340	0.410
2020/01/31 08:49:04.2	312.060	-0.070	-0.370	0.360
2020/01/31 08:49:04.3	312.050	-0.070	-0.400	0.300
2020/01/31 08:49:04.4	312.060	-0.070	-0.430	0.240
2020/01/31 08:49:04.5	312.060	-0.070	-0.460	0.190
2020/01/31 08:49:04.6	312.060	-0.070	-0.480	0.130
2020/01/31 08:49:04.7	312.060	-0.070	-0.510	0.080
2020/01/31 08:49:04.8	312.060	-0.070	-0.530	0.020
2020/01/31 08:49:04.9	312.070	-0.080	-0.550	-0.030
2020/01/31 08:49:05.0	312.070	-0.080	-0.570	-0.080
2020/01/31 08:49:05.1	312.080	-0.080	-0.580	-0.130
2020/01/31 08:49:05.2	312.090	-0.090	-0.590	-0.180
2020/01/31 08:49:05.3	312.100	-0.100	-0.600	-0.220
2020/01/31 08:49:05.4	312.100	-0.100	-0.600	-0.260
2020/01/31 08:49:05.5	312.110	-0.110	-0.600	-0.300
2020/01/31 08:49:05.6	312.120	-0.120	-0.600	-0.330
2020/01/31 08:49:05.7	312.130	-0.130	-0.600	-0.360
2020/01/31 08:49:05.8	312.150	-0.140	-0.580	-0.390
2020/01/31 08:49:05.9	312.160	-0.150	-0.570	-0.410
2020/01/31 08:49:06.0	312.170	-0.160	-0.550	-0.430
2020/01/31 08:49:06.1	312.180	-0.170	-0.530	-0.440
2020/01/31 08:49:06.2	312.190	-0.180	-0.510	-0.440
2020/01/31 08:49:06.3	312.200	-0.190	-0.480	-0.450
2020/01/31 08:49:06.4	312.220	-0.200	-0.450	-0.450
2020/01/31 08:49:06.5	312.230	-0.210	-0.410	-0.440
2020/01/31 08:49:06.6	312.240	-0.230	-0.380	-0.430
2020/01/31 08:49:06.7	312.240	-0.240	-0.340	-0.410
2020/01/31 08:49:06.8	312.240	-0.250	-0.300	-0.390
2020/01/31 08:49:06.9	312.240	-0.260	-0.260	-0.360
2020/01/31 08:49:07.0	312.240	-0.270	-0.220	-0.340
2020/01/31 08:49:07.1	312.240	-0.290	-0.180	-0.310
2020/01/31 08:49:07.2	312.230	-0.300	-0.140	-0.270
2020/01/31 08:49:07.3	312.230	-0.310	-0.100	-0.240
2020/01/31 08:49:07.4	312.230	-0.310	-0.050	-0.200
2020/01/31 08:49:07.5	312.220	-0.320	-0.020	-0.170
2020/01/31 08:49:07.6	312.210	-0.330	0.020	-0.130
2020/01/31 08:49:07.7	312.200	-0.340	0.050	-0.100
2020/01/31 08:49:07.8	312.190	-0.340	0.080	-0.060
2020/01/31 08:49:07.9	312.180	-0.340	0.100	-0.030
2020/01/31 08:49:08.0	312.170	-0.350	0.120	-0.000
2020/01/31 08:49:08.1	312.170	-0.350	0.140	0.030
2020/01/31 08:49:08.2	312.160	-0.340	0.150	0.050
2020/01/31 08:49:08.3	312.150	-0.340	0.160	0.080
2020/01/31 08:49:08.4	312.140	-0.340	0.160	0.100
2020/01/31 08:49:08.5	312.130	-0.330	0.150	0.120
2020/01/31 08:49:08.6	312.130	-0.320	0.140	0.130
2020/01/31 08:49:08.7	312.140	-0.310	0.130	0.140
2020/01/31 08:49:08.8	312.140	-0.300	0.110	0.150
2020/01/31 08:49:08.9	312.150	-0.280	0.090	0.160
2020/01/31 08:49:09.0	312.160	-0.260	0.060	0.160
2020/01/31 08:49:09.1	312.170	-0.240	0.030	0.160
2020/01/31 08:49:09.2	312.180	-0.220	-0.000	0.160
2020/01/31 08:49:09.3	312.190	-0.200	-0.040	0.160
2020/01/31 08:49:09.4	312.210	-0.170	-0.080	0.150
2020/01/31 08:49:09.5	312.230	-0.140	-0.120	0.140
2020/01/31 08:49:09.6	312.250	-0.120	-0.160	0.140
2020/01/31 08:49:09.7	312.270	-0.090	-0.210	0.130
2020/01/31 08:49:09.8	312.300	-0.050	-0.250	0.120
2020/01/31 08:49:09.9	312.320	-0.020	-0.300	0.110
2020/01/31 08:49:10.0	312.350	0.010	-0.340	0.100
2020/01/31 08:49:10.1	312.380	0.040	-0.380	0.100
2020/01/31 08:49:10.2	312.410	0.080	-0.420	0.090
2020/01/31 08:49:10.3	312.440	0.110	-0.460	0.090
2020/01/31 08:49:10.4	312.460	0.150	-0.500	0.080
2020/01/31 08:49:10.5	312.490	0.180	-0.530	0.080
2020/01/31 08:49:10.6	312.520	0.210	-0.560	0.080
2020/01/31 08:49:10.7	312.550	0.250	-0.590	0.080
2020/01/31 08:49:10.8	312.580	0.280	-0.610	0.080
2020/01/31 08:49:10.9	312.620	0.310	-0.620	0.090
2020/01/31 08:49:11.0	312.650	0.340	-0.630	0.100
2020/01/31 08:49:11.1	312.680	0.370	-0.640	0.110
2020/01/31 08:49:11.2	312.710	0.400	-0.640	0.120
2020/01/31 08:49:11.3	312.740	0.420	-0.640	0.140
2020/01/31 08:49:11.4	312.760	0.450	-0.630	0.160
2020/01/31 08:49:11.5	312.790	0.470	-0.620	0.180
2020/01/31 08:49:11.6	312.810	0.500	-0.600	0.210
2020/01/31 08:49:11.7	312.840	0.520	-0.580	0.240
2020/01/31 08:49:11.8	312.860	0.540	-0.560	0.260
2020/01/31 08:49:11.9	312.880	0.550	-0.530	0.300
2020/01/31 08:49:12.0	312.900	0.570	-0.510	0.330
2020/01/31 08:49:12.1	312.920	0.580	-0.470	0.360
2020/01/31 08:49:12.2	312.930	0.590	-0.440	0.390
2020/01/31 08:49:12.3	312.950	0.600	-0.410	0.430
2020/01/31 08:49:12.4	312.970	0.610	-0.370	0.460
2020/01/31 08:49:12.5	312.980	0.610	-0.330	0.500
2020/01/31 08:49:12.6	312.990	0.620	-0.300	0.530
2020/01/31 08:49:12.7	313.000	0.620	-0.260	0.570
2020/01/31 08:49:12.8	313.000	0.620	-0.220	0.600
2020/01/31 08:49:12.9	313.010	0.610	-0.180	0.630
2020/01/31 08:49:13.0	313.010	0.610	-0.150	0.660
2020/01/31 08:49:13.1	313.010	0.600	-0.110	0.690
2020/01/31 08:49:13.2	313.000	0.590	-0.080	0.720
2020/01/31 08:49:13.3	313.000	0.580	-0.040	0.750
2020/01/31 08:49:13.4	312.980	0.570	-0.010	0.780
2020/01/31 08:49:13.5	312.970	0.560	0.020	0.810
2020/01/31 08:49:13.6	312.950	0.540	0.050	0.830
2020/01/31 08:49:13.7	312.940	0.520	0.070	0.860
2020/01/31 08:49:13.8	312.920	0.500	0.090	0.880
2020/01/31 08:49:13.9	312.890	0.480	0.110	0.900
2020/01/31 08:49:14.0	312.870	0.460	0.130	0.920
2020/01/31 08:49:14.1	312.840	0.430	0.150	0.930
2020/01/31 08:49:14.2	312.810	0.400	0.160	0.940
2020/01/31 08:49:14.3	312.780	0.380	0.170	0.950
2020/01/31 08:49:14.4	312.750	0.350	0.170	0.950
2020/01/31 08:49:14.5	312.720	0.320	0.170	0.960
2020/01/31 08:49:14.6	312.680	0.290	0.170	0.960
2020/01/31 08:49:14.7	312.650	0.250	0.170	0.950
2020/01/31 08:49:14.8	312.610	0.220	0.160	0.940
2020/01/31 08:49:14.9	312.580	0.180	0.150	0.930
2020/01/31 08:49:15.0	312.540	0.150	0.130	0.920
2020/01/31 08:49:15.1	312.500	0.110	0.120	0.900
2020/01/31 08:49:15.2	312.470	0.080	0.100	0.870
2020/01/31 08:49:15.3	312.430	0.040	0.070	0.840
2020/01/31 08:49:15.4	312.400	0.000	0.050	0.810
2020/01/31 08:49:15.5	312.370	-0.040	0.020	0.770
2020/01/31 08:49:15.6	312.340	-0.070	-0.010	0.730
2020/01/31 08:49:15.7	312.310	-0.110	-0.050	0.680
2020/01/31 08:49:15.8	312.280	-0.150	-0.090	0.630
2020/01/31 08:49:15.9	312.260	-0.180	-0.130	0.580
2020/01/31 08:49:16.0	312.230	-0.220	-0.170	0.520
2020/01/31 08:49:16.1	312.210	-0.260	-0.210	0.460
2020/01/31 08:49:16.2	312.190	-0.290	-0.250	0.400
2020/01/31 08:49:16.3	312.180	-0.320	-0.300	0.330
2020/01/31 08:49:16.4	312.170	-0.360	-0.350	0.260
2020/01/31 08:49:16.5	312.160	-0.390	-0.390	0.190
2020/01/31 08:49:16.6	312.150	-0.420	-0.440	0.120
2020/01/31 08:49:16.7	312.140	-0.450	-0.480	0.040
2020/01/31 08:49:16.8	312.140	-0.470	-0.520	-0.030
2020/01/31 08:49:16.9	312.130	-0.500	-0.570	-0.100
2020/01/31 08:49:17.0	312.130	-0.520	-0.610	-0.170
2020/01/31 08:49:17.1	312.130	-0.550	-0.640	-0.240
2020/01/31 08:49:17.2	312.130	-0.570	-0.680	-0.300
2020/01/31 08:49:17.3	312.130	-0.590	-0.710	-0.370
2020/01/31 08:49:17.4	312.130	-0.600	-0.740	-0.430
2020/01/31 08:49:17.5	312.140	-0.620	-0.760	-0.490
2020/01/31 08:49:17.6	312.150	-0.630	-0.790	-0.540
2020/01/31 08:49:17.7	312.160	-0.640	-0.800	-0.600
2020/01/31 08:49:17.8	312.170	-0.650	-0.820	-0.650
2020/01/31 08:49:17.9	312.180	-0.660	-0.830	-0.690
2020/01/31 08:49:18.0	312.200	-0.660	-0.830	-0.730
2020/01/31 08:49:18.1	312.210	-0.660	-0.830	-0.770
2020/01/31 08:49:18.2	312.230	-0.660	-0.830	-0.800
2020/01/31 08:49:18.3	312.250	-0.660	-0.830	-0.830
2020/01/31 08:49:18.4	312.270	-0.650	-0.820	-0.850
2020/01/31 08:49:18.5	312.290	-0.650	-0.810	-0.870
2020/01/31 08:49:18.6	312.320	-0.640	-0.790	-0.880
2020/01/31 08:49:18.7	312.340	-0.630	-0.770	-0.890
2020/01/31 08:49:18.8	312.360	-0.610	-0.740	-0.900
2020/01/31 08:49:18.9	312.390	-0.600	-0.720	-0.900
2020/01/31 08:49:19.0	312.420	-0.580	-0.690	-0.890
2020/01/31 08:49:19.1	312.440	-0.560	-0.660	-0.890
2020/01/31 08:49:19.2	312.470	-0.540	-0.620	-0.870
2020/01/31 08:49:19.3	312.500	-0.520	-0.580	-0.860
2020/01/31 08:49:19.4	312.520	-0.490	-0.540	-0.840
2020/01/31 08:49:19.5	312.550	-0.470	-0.500	-0.820
2020/01/31 08:49:19.6	312.570	-0.440	-0.450	-0.790
2020/01/31 08:49:19.7	312.600	-0.420	-0.410	-0.760
2020/01/31 08:49:19.8	312.620	-0.390	-0.360	-0.720
2020/01/31 08:49:19.9	312.640	-0.360	-0.310	-0.680
2020/01/31 08:49:20.0	312.660	-0.340	-0.260	-0.640
2020/01/31 08:49:20.1	312.680	-0.310	-0.210	-0.590
2020/01/31 08:49:20.2	312.700	-0.280	-0.160	-0.540
2020/01/31 08:49:20.3	312.720	-0.250	-0.110	-0.480
2020/01/31 08:49:20.4	312.730	-0.230	-0.060	-0.420
2020/01/31 08:49:20.5	312.740	-0.200	-0.010	-0.360
2020/01/31 08:49:20.6	312.760	-0.170	0.040	-0.300
2020/01/31 08:49:20.7	312.770	-0.150	0.090	-0.230
2020/01/31 08:49:20.8	312.780	-0.120	0.130	-0.160
2020/01/31 08:49:20.9	312.780	-0.100	0.180	-0.100
2020/01/31 08:49:21.0	312.790	-0.070	0.220	-0.030
2020/01/31 08:49:21.1	312.790	-0.050	0.260	0.040
2020/01/31 08:49:21.2	312.800	-0.030	0.300	0.110
2020/01/31 08:49:21.3	312.800	-0.010	0.330	0.170
2020/01/31 08:49:21.4	312.800	0.010	0.360	0.240
2020/01/31 08:49:21.5	312.800	0.030	0.390	0.300
2020/01/31 08:49:21.6	312.800	0.050	0.410	0.370
2020/01/31 08:49:21.7	312.790	0.060	0.430	0.430
2020/01/31 08:49:21.8	312.790	0.080	0.450	0.480
2020/01/31 08:49:21.9	312.790	0.090	0.460	0.540
2020/01/31 08:49:22.0	312.780	0.100	0.470	0.590
2020/01/31 08:49:22.1	312.780	0.110	0.470	0.630
2020/01/31 08:49:22.2	312.770	0.130	0.470	0.680
2020/01/31 08:49:22.3	312.760	0.140	0.470	0.710
2020/01/31 08:49:22.4	312.750	0.140	0.460	0.740
2020/01/31 08:49:22.5	312.740	0.150	0.450	0.770
2020/01/31 08:49:22.6	312.730	0.160	0.430	0.800
2020/01/31 08:49:22.7	312.730	0.160	0.410	0.820
2020/01/31 08:49:22.8	312.720	0.170	0.390	0.830
2020/01/31 08:49:22.9	312.710	0.180	0.360	0.840
2020/01/31 08:49:23.0	312.710	0.180	0.330	0.840
2020/01/31 08:49:23.1	312.700	0.180	0.300	0.840
2020/01/31 08:49:23.2	312.700	0.190	0.260	0.830
2020/01/31 08:49:23.3	312.700	0.190	0.220	0.820
2020/01/31 08:49:23.4	312.700	0.190	0.180	0.800
2020/01/31 08:49:23.5	312.690	0.190	0.140	0.780
2020/01/31 08:49:23.6	312.690	0.200	0.100	0.760
2020/01/31 08:49:23.7	312.690	0.200	0.050	0.730
2020/01/31 08:49:23.8	312.690	0.200	0.000	0.700
2020/01/31 08:49:23.9	312.690	0.200	-0.050	0.660
2020/01/31 08:49:24.0	312.700	0.200	-0.100	0.620
2020/01/31 08:49:24.1	312.700	0.200	-0.150	0.580
2020/01/31 08:49:24.2	312.700	0.200	-0.190	0.540
2020/01/31 08:49:24.3	312.700	0.210	-0.240	0.490
2020/01/31 08:49:24.4	312.710	0.210	-0.300	0.440
2020/01/31 08:49:24.5	312.710	0.210	-0.340	0.390
2020/01/31 08:49:24.6	312.720	0.210	-0.390	0.340
2020/01/31 08:49:24.7	312.720	0.210	-0.430	0.290
2020/01/31 08:49:24.8	312.730	0.210	-0.480	0.240
2020/01/31 08:49:24.9	312.740	0.220	-0.520	0.190
2020/01/31 08:49:25.0	312.750	0.220	-0.560	0.140
2020/01/31 08:49:25.1	312.760	0.220	-0.600	0.090
2020/01/31 08:49:25.2	312.770	0.220	-0.630	0.040
2020/01/31 08:49:25.3	312.780	0.220	-0.660	-0.010
2020/01/31 08:49:25.4	312.790	0.230	-0.690	-0.050
2020/01/31 08:49:25.5	312.800	0.230	-0.720	-0.100
2020/01/31 08:49:25.6	312.820	0.230	-0.750	-0.140
2020/01/31 08:49:25.7	312.830	0.230	-0.770	-0.170
2020/01/31 08:49:25.8	312.850	0.230	-0.790	-0.210
2020/01/31 08:49:25.9	312.860	0.230	-0.810	-0.240
2020/01/31 08:49:26.0	312.870	0.230	-0.820	-0.270
2020/01/31 08:49:26.1	312.890	0.230	-0.830	-0.290
2020/01/31 08:49:26.2	312.900	0.230	-0.840	-0.310
2020/01/31 08:49:26.3	312.920	0.230	-0.850	-0.330
2020/01/31 08:49:26.4	312.930	0.230	-0.850	-0.340
2020/01/31 08:49:26.5	312.940	0.230	-0.850	-0.350
2020/01/31 08:49:26.6	312.950	0.220	-0.850	-0.360
2020/01/31 08:49:26.7	312.960	0.220	-0.840	-0.360
2020/01/31 08:49:26.8	312.970	0.210	-0.840	-0.360
2020/01/31 08:49:26.9	312.980	0.210	-0.830	-0.350
2020/01/31 08:49:27.0	312.990	0.200	-0.810	-0.350
2020/01/31 08:49:27.1	313.000	0.200	-0.800	-0.340
2020/01/31 08:49:27.2	313.000	0.190	-0.780	-0.320
2020/01/31 08:49:27.3	313.010	0.180	-0.760	-0.310
2020/01/31 08:49:27.4	313.010	0.170	-0.740	-0.290
2020/01/31 08:49:27.5	313.010	0.160	-0.710	-0.270
2020/01/31 08:49:27.6	313.010	0.150	-0.690	-0.250
2020/01/31 08:49:27.7	313.010	0.130	-0.660	-0.230
2020/01/31 08:49:27.8	313.010	0.120	-0.640	-0.210
2020/01/31 08:49:27.9	313.000	0.110	-0.610	-0.180
2020/01/31 08:49:28.0	313.000	0.100	-0.580	-0.160
2020/01/31 08:49:28.1	312.990	0.080	-0.550	-0.130
2020/01/31 08:49:28.2	312.980	0.070	-0.510	-0.100
2020/01/31 08:49:28.3	312.970	0.050	-0.480	-0.070
2020/01/31 08:49:28.4	312.960	0.040	-0.450	-0.040
2020/01/31 08:49:28.5	312.950	0.020	-0.410	-0.010
2020/01/31 08:49:28.6	312.930	0.000	-0.370	0.030
2020/01/31 08:49:28.7	312.910	-0.010	-0.340	0.070
2020/01/31 08:49:28.8	312.890	-0.030	-0.300	0.100
2020/01/31 08:49:28.9	312.870	-0.050	-0.260	0.140
2020/01/31 08:49:29.0	312.850	-0.060	-0.220	0.180
2020/01/31 08:49:29.1	312.820	-0.080	-0.180	0.220
2020/01/31 08:49:29.2	312.790	-0.100	-0.150	0.270
2020/01/31 08:49:29.3	312.770	-0.110	-0.110	0.310
2020/01/31 08:49:29.4	312.730	-0.130	-0.080	0.350
2020/01/31 08:49:29.5	312.700	-0.140	-0.040	0.390
2020/01/31 08:49:29.6	312.670	-0.150	-0.010	0.430
2020/01/31 08:49:29.7	312.650	-0.170	0.020	0.470
2020/01/31 08:49:29.8	312.620	-0.180	0.050	0.510
2020/01/31 08:49:29.9	312.590	-0.190	0.070	0.550
2020/01/31 08:49:30.0	312.570	-0.200	0.090	0.590
2020/01/31 08:49:30.1	312.540	-0.200	0.110	0.620
2020/01/31 08:49:30.2	312.520	-0.210	0.130	0.650
2020/01/31 08:49:30.3	312.490	-0.210	0.140	0.680
2020/01/31 08:49:30.4	312.460	-0.220	0.150	0.710
2020/01/31 08:49:30.5	312.440	-0.220	0.160	0.730
2020/01/31 08:49:30.6	312.420	-0.220	0.160	0.750
2020/01/31 08:49:30.7	312.400	-0.220	0.160	0.770
2020/01/31 08:49:30.8	312.390	-0.210	0.160	0.790
2020/01/31 08:49:30.9	312.370	-0.210	0.150	0.800
2020/01/31 08:49:31.0	312.360	-0.200	0.150	0.810
2020/01/31 08:49:31.1	312.350	-0.200	0.140	0.820
2020/01/31 08:49:31.2	312.340	-0.190	0.120	0.830
2020/01/31 08:49:31.3	312.320	-0.180	0.110	0.840
2020/01/31 08:49:31.4	312.320	-0.170	0.100	0.840
2020/01/31 08:49:31.5	312.310	-0.160	0.080	0.840
2020/01/31 08:49:31.6	312.300	-0.150	0.060	0.840
2020/01/31 08:49:31.7	312.290	-0.130	0.040	0.830
2020/01/31 08:49:31.8	312.280	-0.120	0.020	0.830
2020/01/31 08:49:31.9	312.270	-0.110	-0.000	0.820
2020/01/31 08:49:32.0	312.260	-0.090	-0.020	0.810
2020/01/31 08:49:32.1	312.250	-0.080	-0.050	0.800
2020/01/31 08:49:32.2	312.240	-0.070	-0.070	0.790
2020/01/31 08:49:32.3	312.240	-0.060	-0.090	0.780
2020/01/31 08:49:32.4	312.230	-0.040	-0.120	0.760
2020/01/31 08:49:32.5	312.230	-0.030	-0.140	0.740
2020/01/31 08:49:32.6	312.220	-0.020	-0.160	0.720
2020/01/31 08:49:32.7	312.220	-0.010	-0.180	0.700
2020/01/31 08:49:32.8	312.220	-0.000	-0.200	0.680
2020/01/31 08:49:32.9	312.220	0.000	-0.220	0.650
2020/01/31 08:49:33.0	312.220	0.010	-0.240	0.620
2020/01/31 08:49:33.1	312.220	0.020	-0.260	0.590
2020/01/31 08:49:33.2	312.230	0.020	-0.280	0.560
2020/01/31 08:49:33.3	312.230	0.020	-0.290	0.530
2020/01/31 08:49:33.4	312.250	0.030	-0.310	0.490
2020/01/31 08:49:33.5	312.260	0.030	-0.320	0.450
2020/01/31 08:49:33.6	312.270	0.020	-0.330	0.410
2020/01/31 08:49:33.7	312.280	0.020	-0.340	0.370
2020/01/31 08:49:33.8	312.300	0.020	-0.350	0.320
2020/01/31 08:49:33.9	312.310	0.010	-0.350	0.280
2020/01/31 08:49:34.0	312.330	0.010	-0.360	0.230
2020/01/31 08:49:34.1	312.350	0.000	-0.360	0.190
2020/01/31 08:49:34.2	312.370	-0.010	-0.360	0.140
2020/01/31 08:49:34.3	312.400	-0.020	-0.360	0.090
2020/01/31 08:49:34.4	312.410	-0.030	-0.360	0.040
2020/01/31 08:49:34.5	312.440	-0.040	-0.350	-0.000
2020/01/31 08:49:34.6	312.470	-0.050	-0.350	-0.050
2020/01/31 08:49:34.7	312.500	-0.060	-0.340	-0.090
2020/01/31 08:49:34.8	312.530	-0.070	-0.330	-0.130
2020/01/31 08:49:34.9	312.560	-0.080	-0.320	-0.180
2020/01/31 08:49:35.0	312.590	-0.090	-0.300	-0.220
2020/01/31 08:49:35.1	312.620	-0.110	-0.290	-0.250
2020/01/31 08:49:35.2	312.650	-0.120	-0.270	-0.290
2020/01/31 08:49:35.3	312.680	-0.130	-0.260	-0.320
2020/01/31 08:49:35.4	312.700	-0.140	-0.240	-0.350
2020/01/31 08:49:35.5	312.730	-0.150	-0.220	-0.380
2020/01/31 08:49:35.6	312.760	-0.160	-0.200	-0.400
2020/01/31 08:49:35.7	312.790	-0.170	-0.170	-0.420
2020/01/31 08:49:35.8	312.810	-0.180	-0.150	-0.440
2020/01/31 08:49:35.9	312.830	-0.190	-0.130	-0.450
2020/01/31 08:49:36.0	312.860	-0.200	-0.110	-0.460
2020/01/31 08:49:36.1	312.880	-0.200	-0.080	-0.470
2020/01/31 08:49:36.2	312.900	-0.210	-0.060	-0.480
2020/01/31 08:49:36.3	312.910	-0.210	-0.040	-0.480
2020/01/31 08:49:36.4	312.940	-0.210	-0.020	-0.480
2020/01/31 08:49:36.5	312.950	-0.210	0.000	-0.480
2020/01/31 08:49:36.6	312.970	-0.210	0.020	-0.470
2020/01/31 08:49:36.7	312.980	-0.210	0.030	-0.460
2020/01/31 08:49:36.8	313.000	-0.210	0.040	-0.460
2020/01/31 08:49:36.9	313.010	-0.200	0.050	-0.440
2020/01/31 08:49:37.0	313.030	-0.200	0.060	-0.430
2020/01/31 08:49:37.1	313.040	-0.190	0.060	-0.420
2020/01/31 08:49:37.2	313.050	-0.180	0.060	-0.400
2020/01/31 08:49:37.3	313.070	-0.170	0.060	-0.380
2020/01/31 08:49:37.4	313.090	-0.160	0.050	-0.370
2020/01/31 08:49:37.5	313.100	-0.140	0.050	-0.340
2020/01/31 08:49:37.6	313.110	-0.130	0.030	-0.320
2020/01/31 08:49:37.7	313.120	-0.120	0.020	-0.300
2020/01/31 08:49:37.8	313.130	-0.100	0.010	-0.270
2020/01/31 08:49:37.9	313.140	-0.080	-0.010	-0.240
2020/01/31 08:49:38.0	313.140	-0.060	-0.030	-0.210
2020/01/31 08:49:38.1	313.150	-0.050	-0.050	-0.180
2020/01/31 08:49:38.2	313.150	-0.030	-0.070	-0.140
2020/01/31 08:49:38.3	313.150	-0.010	-0.090	-0.110
2020/01/31 08:49:38.4	313.150	0.010	-0.110	-0.060
2020/01/31 08:49:38.5	313.150	0.030	-0.140	-0.020
2020/01/31 08:49:38.6	313.140	0.050	-0.160	0.030
2020/01/31 08:49:38.7	313.130	0.070	-0.180	0.070
2020/01/31 08:49:38.8	313.120	0.090	-0.210	0.120
2020/01/31 08:49:38.9	313.100	0.110	-0.230	0.180
2020/01/31 08:49:39.0	313.080	0.130	-0.250	0.230
2020/01/31 08:49:39.1	313.060	0.140	-0.270	0.280
2020/01/31 08:49:39.2	313.040	0.160	-0.290	0.340
2020/01/31 08:49:39.3	313.010	0.180	-0.310	0.390
2020/01/31 08:49:39.4	312.970	0.190	-0.330	0.450
2020/01/31 08:49:39.5	312.940	0.210	-0.350	0.500
2020/01/31 08:49:39.6	312.910	0.220	-0.370	0.560
2020/01/31 08:49:39.7	312.880	0.240	-0.380	0.620
2020/01/31 08:49:39.8	312.840	0.250	-0.400	0.670
2020/01/31 08:49:39.9	312.800	0.260	-0.410	0.730
2020/01/31 08:49:40.0	312.760	0.270	-0.430	0.780
2020/01/31 08:49:40.1	312.720	0.280	-0.440	0.830
2020/01/31 08:49:40.2	312.680	0.280	-0.450	0.870
2020/01/31 08:49:40.3	312.640	0.290	-0.460	0.920
2020/01/31 08:49:40.4	312.590	0.300	-0.470	0.960
2020/01/31 08:49:40.5	312.550	0.300	-0.480	1.000
2020/01/31 08:49:40.6	312.510	0.300	-0.490	1.030
2020/01/31 08:49:40.7	312.470	0.310	-0.500	1.070
2020/01/31 08:49:40.8	312.430	0.310	-0.510	1.090
2020/01/31 08:49:40.9	312.390	0.310	-0.510	1.120
2020/01/31 08:49:41.0	312.350	0.310	-0.520	1.140
2020/01/31 08:49:41.1	312.320	0.300	-0.530	1.160
2020/01/31 08:49:41.2	312.280	0.300	-0.530	1.170
2020/01/31 08:49:41.3	312.250	0.300	-0.540	1.190
2020/01/31 08:49:41.4	312.220	0.290	-0.540	1.190
2020/01/31 08:49:41.5	312.200	0.290	-0.550	1.200
2020/01/31 08:49:41.6	312.170	0.280	-0.550	1.200
2020/01/31 08:49:41.7	312.150	0.280	-0.560	1.190
2020/01/31 08:49:41.8	312.130	0.270	-0.560	1.190
2020/01/31 08:49:41.9	312.110	0.270	-0.570	1.180
2020/01/31 08:49:42.0	312.090	0.260	-0.570	1.170
2020/01/31 08:49:42.1	312.080	0.250	-0.580	1.160
2020/01/31 08:49:42.2	312.060	0.240	-0.580	1.140
2020/01/31 08:49:42.3	312.050	0.230	-0.580	1.120
2020/01/31 08:49:42.4	312.040	0.220	-0.580	1.090
2020/01/31 08:49:42.5	312.040	0.210	-0.580	1.070
2020/01/31 08:49:42.6	312.030	0.200	-0.590	1.050
2020/01/31 08:49:42.7	312.030	0.190	-0.590	1.020
2020/01/31 08:49:42.8	312.020	0.180	-0.580	1.000
2020/01/31 08:49:42.9	312.020	0.170	-0.580	0.970
2020/01/31 08:49:43.0	312.020	0.160	-0.580	0.940
2020/01/31 08:49:43.1	312.020	0.150	-0.570	0.910
2020/01/31 08:49:43.2	312.020	0.140	-0.570	0.880
2020/01/31 08:49:43.3	312.030	0.120	-0.560	0.840
2020/01/31 08:49:43.4	312.020	0.110	-0.550	0.820
2020/01/31 08:49:43.5	312.020	0.090	-0.540	0.780
2020/01/31 08:49:43.6	312.030	0.080	-0.530	0.750
2020/01/31 08:49:43.7	312.030	0.060	-0.520	0.710
2020/01/31 08:49:43.8	312.040	0.040	-0.510	0.670
2020/01/31 08:49:43.9	312.040	0.030	-0.490	0.640
2020/01/31 08:49:44.0	312.050	0.010	-0.480	0.600
2020/01/31 08:49:44.1	312.060	-0.010	-0.460	0.560
2020/01/31 08:49:44.2	312.070	-0.030	-0.450	0.510
2020/01/31 08:49:44.3	312.080	-0.050	-0.430	0.470
2020/01/31 08:49:44.4	312.100	-0.070	-0.410	0.430
2020/01/31 08:49:44.5	312.110	-0.090	-0.390	0.380
2020/01/31 08:49:44.6	312.130	-0.110	-0.370	0.340
2020/01/31 08:49:44.7	312.140	-0.130	-0.350	0.290
2020/01/31 08:49:44.8	312.160	-0.150	-0.330	0.250
2020/01/31 08:49:44.9	312.170	-0.170	-0.310	0.200
2020/01/31 08:49:45.0	312.190	-0.190	-0.290	0.160
2020/01/31 08:49:45.1	312.210	-0.200	-0.260	0.110
2020/01/31 08:49:45.2	312.230	-0.220	-0.240	0.070
2020/01/31 08:49:45.3	312.250	-0.240	-0.210	0.020
2020/01/31 08:49:45.4	312.260	-0.260	-0.190	-0.020
2020/01/31 08:49:45.5	312.280	-0.270	-0.160	-0.060
2020/01/31 08:49:45.6	312.300	-0.290	-0.140	-0.100
2020/01/31 08:49:45.7	312.310	-0.300	-0.110	-0.140
2020/01/31 08:49:45.8	312.330	-0.320	-0.080	-0.180
2020/01/31 08:49:45.9	312.350	-0.330	-0.050	-0.210
2020/01/31 08:49:46.0	312.360	-0.340	-0.020	-0.240
2020/01/31 08:49:46.1	312.380	-0.350	0.010	-0.280
2020/01/31 08:49:46.2	312.390	-0.370	0.050	-0.300
2020/01/31 08:49:46.3	312.400	-0.380	0.080	-0.330
2020/01/31 08:49:46.4	312.410	-0.380	0.110	-0.350
2020/01/31 08:49:46.5	312.420	-0.390	0.140	-0.370
2020/01/31 08:49:46.6	312.430	-0.400	0.170	-0.390
2020/01/31 08:49:46.7	312.440	-0.400	0.200	-0.410
2020/01/31 08:49:46.8	312.440	-0.410	0.230	-0.420
2020/01/31 08:49:46.9	312.450	-0.410	0.250	-0.430
2020/01/31 08:49:47.0	312.460	-0.410	0.280	-0.440
2020/01/31 08:49:47.1	312.460	-0.410	0.300	-0.440
2020/01/31 08:49:47.2	312.470	-0.410	0.320	-0.450
2020/01/31 08:49:47.3	312.480	-0.410	0.340	-0.450
2020/01/31 08:49:47.4	312.480	-0.400	0.360	-0.450
2020/01/31 08:49:47.5	312.490	-0.400	0.370	-0.450
2020/01/31 08:49:47.6	312.490	-0.390	0.380	-0.440
2020/01/31 08:49:47.7	312.500	-0.390	0.380	-0.430
2020/01/31 08:49:47.8	312.510	-0.380	0.390	-0.420
2020/01/31 08:49:47.9	312.510	-0.370	0.380	-0.410
2020/01/31 08:49:48.0	312.520	-0.350	0.380	-0.400
2020/01/31 08:49:48.1	312.520	-0.340	0.370	-0.380
2020/01/31 08:49:48.2	312.530	-0.320	0.360	-0.370
2020/01/31 08:49:48.3	312.540	-0.310	0.340	-0.350
2020/01/31 08:49:48.4	312.540	-0.290	0.320	-0.330
2020/01/31 08:49:48.5	312.550	-0.270	0.300	-0.310
2020/01/31 08:49:48.6	312.560	-0.250	0.270	-0.300
2020/01/31 08:49:48.7	312.570	-0.230	0.240	-0.280
2020/01/31 08:49:48.8	312.580	-0.210	0.210	-0.260
2020/01/31 08:49:48.9	312.580	-0.190	0.180	-0.230
2020/01/31 08:49:49.0	312.590	-0.160	0.150	-0.210
2020/01/31 08:49:49.1	312.600	-0.140	0.110	-0.190
2020/01/31 08:49:49.2	312.600	-0.110	0.080	-0.160
2020/01/31 08:49:49.3	312.610	-0.090	0.040	-0.140
2020/01/31 08:49:49.4	312.620	-0.060	0.010	-0.110
2020/01/31 08:49:49.5	312.630	-0.040	-0.030	-0.080
2020/01/31 08:49:49.6	312.630	-0.010	-0.060	-0.050
2020/01/31 08:49:49.7	312.630	0.010	-0.090	-0.020
2020/01/31 08:49:49.8	312.630	0.040	-0.130	0.020
2020/01/31 08:49:49.9	312.630	0.060	-0.160	0.050
2020/01/31 08:49:50.0	312.630	0.090	-0.190	0.090
2020/01/31 08:49:50.1	312.630	0.110	-0.220	0.120
2020/01/31 08:49:50.2	312.630	0.130	-0.250	0.150
2020/01/31 08:49:50.3	312.630	0.150	-0.270	0.190
2020/01/31 08:49:50.4	312.620	0.170	-0.300	0.230
2020/01/31 08:49:50.5	312.620	0.190	-0.320	0.260
2020/01/31 08:49:50.6	312.610	0.210	-0.350	0.290
2020/01/31 08:49:50.7	312.610	0.220	-0.370	0.320
2020/01/31 08:49:50.8	312.600	0.240	-0.390	0.350
2020/01/31 08:49:50.9	312.600	0.250	-0.410	0.380
2020/01/31 08:49:51.0	312.600	0.260	-0.430	0.410
2020/01/31 08:49:51.1	312.590	0.270	-0.440	0.430
2020/01/31 08:49:51.2	312.590	0.280	-0.460	0.460
2020/01/31 08:49:51.3	312.580	0.280	-0.470	0.480
2020/01/31 08:49:51.4	312.580	0.280	-0.480	0.500
2020/01/31 08:49:51.5	312.570	0.280	-0.490	0.520
2020/01/31 08:49:51.6	312.560	0.280	-0.500	0.540
2020/01/31 08:49:51.7	312.560	0.280	-0.510	0.550
2020/01/31 08:49:51.8	312.550	0.280	-0.510	0.560
2020/01/31 08:49:51.9	312.540	0.270	-0.520	0.580
2020/01/31 08:49:52.0	312.540	0.260	-0.520	0.590
2020/01/31 08:49:52.1	312.530	0.260	-0.520	0.590
2020/01/31 08:49:52.2	312.520	0.250	-0.520	0.600
2020/01/31 08:49:52.3	312.510	0.240	-0.520	0.610
2020/01/31 08:49:52.4	312.500	0.220	-0.520	0.610
2020/01/31 08:49:52.5	312.490	0.210	-0.510	0.610
2020/01/31 08:49:52.6	312.480	0.200	-0.510	0.620
2020/01/31 08:49:52.7	312.470	0.190	-0.500	0.620
2020/01/31 08:49:52.8	312.450	0.180	-0.490	0.620
2020/01/31 08:49:52.9	312.440	0.160	-0.480	0.620
2020/01/31 08:49:53.0	312.430	0.150	-0.470	0.620
2020/01/31 08:49:53.1	312.420	0.140	-0.460	0.620
2020/01/31 08:49:53.2	312.410	0.130	-0.450	0.620
2020/01/31 08:49:53.3	312.390	0.120	-0.440	0.620
2020/01/31 08:49:53.4	312.390	0.110	-0.430	0.620
2020/01/31 08:49:53.5	312.370	0.100	-0.420	0.620
2020/01/31 08:49:53.6	312.360	0.100	-0.420	0.610
2020/01/31 08:49:53.7	312.350	0.090	-0.410	0.610
2020/01/31 08:49:53.8	312.340	0.090	-0.400	0.610
2020/01/31 08:49:53.9	312.330	0.080	-0.400	0.610
2020/01/31 08:49:54.0	312.310	0.080	-0.390	0.610
2020/01/31 08:49:54.1	312.300	0.080	-0.390	0.610
2020/01/31 08:49:54.2	312.290	0.080	-0.390	0.610
2020/01/31 08:49:54.3	312.270	0.080	-0.390	0.610
2020/01/31 08:49:54.4	312.250	0.090	-0.400	0.610
2020/01/31 08:49:54.5	312.230	0.090	-0.400	0.610
2020/01/31 08:49:54.6	312.210	0.090	-0.400	0.620
2020/01/31 08:49:54.7	312.200	0.100	-0.410	0.620
2020/01/31 08:49:54.8	312.180	0.110	-0.410	0.630
2020/01/31 08:49:54.9	312.160	0.110	-0.420	0.640
2020/01/31 08:49:55.0	312.140	0.120	-0.430	0.640
2020/01/31 08:49:55.1	312.120	0.130	-0.430	0.650
2020/01/31 08:49:55.2	312.100	0.140	-0.440	0.650
2020/01/31 08:49:55.3	312.080	0.140	-0.440	0.660
2020/01/31 08:49:55.4	312.070	0.150	-0.450	0.660
2020/01/31 08:49:55.5	312.050	0.160	-0.460	0.660
2020/01/31 08:49:55.6	312.030	0.170	-0.460	0.660
2020/01/31 08:49:55.7	312.020	0.170	-0.470	0.660
2020/01/31 08:49:55.8	312.000	0.180	-0.470	0.650
2020/01/31 08:49:55.9	311.990	0.190	-0.480	0.650
2020/01/31 08:49:56.0	311.980	0.190	-0.480	0.640
2020/01/31 08:49:56.1	311.960	0.200	-0.490	0.630
2020/01/31 08:49:56.2	311.960	0.200	-0.490	0.610
2020/01/31 08:49:56.3	311.950	0.200	-0.490	0.600
2020/01/31 08:49:56.4	311.920	0.200	-0.490	0.580
2020/01/31 08:49:56.5	311.920	0.200	-0.490	0.560
2020/01/31 08:49:56.6	311.920	0.200	-0.490	0.540
2020/01/31 08:49:56.7	311.920	0.200	-0.490	0.510
2020/01/31 08:49:56.8	311.920	0.200	-0.490	0.490
2020/01/31 08:49:56.9	311.920	0.190	-0.480	0.460
2020/01/31 08:49:57.0	311.930	0.190	-0.480	0.440
2020/01/31 08:49:57.1	311.930	0.180	-0.480	0.410
2020/01/31 08:49:57.2	311.940	0.170	-0.470	0.380
2020/01/31 08:49:57.3	311.950	0.160	-0.460	0.350
2020/01/31 08:49:57.4	311.950	0.150	-0.460	0.320
2020/01/31 08:49:57.5	311.960	0.140	-0.450	0.290
2020/01/31 08:49:57.6	311.970	0.130	-0.430	0.260
2020/01/31 08:49:57.7	311.980	0.110	-0.420	0.230
2020/01/31 08:49:57.8	311.990	0.100	-0.400	0.200
2020/01/31 08:49:57.9	312.010	0.080	-0.390	0.180
2020/01/31 08:49:58.0	312.020	0.060	-0.370	0.150
2020/01/31 08:49:58.1	312.030	0.040	-0.340	0.120
2020/01/31 08:49:58.2	312.040	0.020	-0.320	0.090
2020/01/31 08:49:58.3	312.060	0.000	-0.300	0.070
2020/01/31 08:49:58.4	312.100	-0.020	-0.270	0.040
2020/01/31 08:49:58.5	312.110	-0.050	-0.250	0.020
2020/01/31 08:49:58.6	312.120	-0.070	-0.220	-0.010
2020/01/31 08:49:58.7	312.140	-0.090	-0.190	-0.030
2020/01/31 08:49:58.8	312.150	-0.120	-0.160	-0.060
2020/01/31 08:49:58.9	312.170	-0.140	-0.130	-0.080
2020/01/31 08:49:59.0	312.180	-0.170	-0.100	-0.100
2020/01/31 08:49:59.1	312.190	-0.190	-0.070	-0.120
2020/01/31 08:49:59.2	312.210	-0.220	-0.040	-0.140
2020/01/31 08:49:59.3	312.220	-0.250	-0.010	-0.160
2020/01/31 08:49:59.4	312.220	-0.270	0.030	-0.180
2020/01/31 08:49:59.5	312.230	-0.300	0.060	-0.190
2020/01/31 08:49:59.6	312.250	-0.320	0.080	-0.210
2020/01/31 08:49:59.7	312.260	-0.350	0.110	-0.230
2020/01/31 08:49:59.8	312.270	-0.370	0.140	-0.250
2020/01/31 08:49:59.9	312.280	-0.390	0.160	-0.260
2020/01/31 08:50:00.0	312.290	-0.420	0.190	-0.280
2020/01/31 08:50:00.1	312.300	-0.440	0.210	-0.290
2020/01/31 08:50:00.2	312.310	-0.460	0.230	-0.300
2020/01/31 08:50:00.3	312.320	-0.470	0.250	-0.310
2020/01/31 08:50:00.4	312.330	-0.490	0.260	-0.330
2020/01/31 08:50:00.5	312.340	-0.510	0.270	-0.340
2020/01/31 08:50:00.6	312.340	-0.520	0.290	-0.340
2020/01/31 08:50:00.7	312.350	-0.530	0.300	-0.350
2020/01/31 08:50:00.8	312.360	-0.540	0.310	-0.350
2020/01/31 08:50:00.9	312.360	-0.550	0.310	-0.350
2020/01/31 08:50:01.0	312.370	-0.560	0.320	-0.350
2020/01/31 08:50:01.1	312.370	-0.570	0.320	-0.350
2020/01/31 08:50:01.2	312.370	-0.570	0.320	-0.340
2020/01/31 08:50:01.3	312.380	-0.570	0.320	-0.330
2020/01/31 08:50:01.4	312.380	-0.570	0.320	-0.320
2020/01/31 08:50:01.5	312.380	-0.570	0.320	-0.310
2020/01/31 08:50:01.6	312.380	-0.560	0.310	-0.290
2020/01/31 08:50:01.7	312.380	-0.550	0.300	-0.270
2020/01/31 08:50:01.8	312.380	-0.540	0.290	-0.250
2020/01/31 08:50:01.9	312.370	-0.530	0.270	-0.230
2020/01/31 08:50:02.0	312.370	-0.520	0.250	-0.200
2020/01/31 08:50:02.1	312.370	-0.500	0.230	-0.170
2020/01/31 08:50:02.2	312.370	-0.480	0.210	-0.140
2020/01/31 08:50:02.3	312.360	-0.460	0.190	-0.110
2020/01/31 08:50:02.4	312.360	-0.430	0.160	-0.080
2020/01/31 08:50:02.5	312.350	-0.410	0.140	-0.040
2020/01/31 08:50:02.6	312.350	-0.380	0.110	-0.000
2020/01/31 08:50:02.7	312.340	-0.350	0.080	0.040
2020/01/31 08:50:02.8	312.340	-0.310	0.050	0.080
2020/01/31 08:50:02.9	312.330	-0.280	0.010	0.120
2020/01/31 08:50:03.0	312.320	-0.240	-0.020	0.160
2020/01/31 08:50:03.1	312.320	-0.200	-0.060	0.200
2020/01/31 08:50:03.2	312.310	-0.170	-0.100	0.240
2020/01/31 08:50:03.3	312.310	-0.120	-0.130	0.280
2020/01/31 08:50:03.4	312.300	-0.080	-0.170	0.320
2020/01/31 08:50:03.5	312.300	-0.040	-0.210	0.360
2020/01/31 08:50:03.6	312.290	0.000	-0.250	0.400
2020/01/31 08:50:03.7	312.290	0.050	-0.290	0.440
2020/01/31 08:50:03.8	312.290	0.090	-0.330	0.470
2020/01/31 08:50:03.9	312.280	0.130	-0.370	0.510
2020/01/31 08:50:04.0	312.280	0.180	-0.410	0.540
2020/01/31 08:50:04.1	312.280	0.220	-0.450	0.570
2020/01/31 08:50:04.2	312.280	0.260	-0.490	0.600
2020/01/31 08:50:04.3	312.280	0.300	-0.530	0.630
2020/01/31 08:50:04.4	312.280	0.340	-0.560	0.660
2020/01/31 08:50:04.5	312.280	0.380	-0.600	0.680
2020/01/31 08:50:04.6	312.280	0.410	-0.630	0.700
2020/01/31 08:50:04.7	312.280	0.440	-0.660	0.720
2020/01/31 08:50:04.8	312.280	0.470	-0.690	0.740
2020/01/31 08:50:04.9	312.280	0.500	-0.710	0.750
2020/01/31 08:50:05.0	312.280	0.520	-0.730	0.760
2020/01/31 08:50:05.1	312.280	0.540	-0.750	0.770
2020/01/31 08:50:05.2	312.280	0.560	-0.770	0.780
2020/01/31 08:50:05.3	312.280	0.580	-0.780	0.790
2020/01/31 08:50:05.4	312.280	0.590	-0.780	0.790
2020/01/31 08:50:05.5	312.270	0.590	-0.790	0.800
2020/01/31 08:50:05.6	312.270	0.600	-0.780	0.800
2020/01/31 08:50:05.7	312.270	0.600	-0.780	0.800
2020/01/31 08:50:05.8	312.270	0.600	-0.770	0.800
2020/01/31 08:50:05.9	312.260	0.590	-0.760	0.800
2020/01/31 08:50:06.0	312.260	0.580	-0.750	0.790
2020/01/31 08:50:06.1	312.260	0.570	-0.730	0.780
2020/01/31 08:50:06.2	312.250	0.560	-0.710	0.780
2020/01/31 08:50:06.3	312.250	0.540	-0.680	0.770
2020/01/31 08:50:06.4	312.250	0.520	-0.660	0.760
2020/01/31 08:50:06.5	312.250	0.500	-0.630	0.740
2020/01/31 08:50:06.6	312.250	0.480	-0.600	0.730
2020/01/31 08:50:06.7	312.250	0.460	-0.570	0.720
2020/01/31 08:50:06.8	312.250	0.430	-0.540	0.700
2020/01/31 08:50:06.9	312.250	0.410	-0.500	0.680
2020/01/31 08:50:07.0	312.250	0.380	-0.470	0.670
2020/01/31 08:50:07.1	312.250	0.350	-0.430	0.650
2020/01/31 08:50:07.2	312.250	0.320	-0.400	0.630
2020/01/31 08:50:07.3	312.260	0.290	-0.360	0.610
2020/01/31 08:50:07.4	312.250	0.260	-0.330	0.590
2020/01/31 08:50:07.5	312.250	0.230	-0.290	0.570
2020/01/31 08:50:07.6	312.250	0.200	-0.260	0.550
2020/01/31 08:50:07.7	312.250	0.170	-0.220	0.530
2020/01/31 08:50:07.8	312.250	0.140	-0.190	0.500
2020/01/31 08:50:07.9	312.250	0.110	-0.160	0.480
2020/01/31 08:50:08.0	312.240	0.090	-0.130	0.460
2020/01/31 08:50:08.1	312.240	0.060	-0.100	0.430
2020/01/31 08:50:08.2	312.240	0.030	-0.070	0.410
2020/01/31 08:50:08.3	312.230	0.010	-0.050	0.380
2020/01/31 08:50:08.4	312.220	-0.020	-0.030	0.350
2020/01/31 08:50:08.5	312.220	-0.040	-0.010	0.330
2020/01/31 08:50:08.6	312.210	-0.060	0.010	0.300
2020/01/31 08:50:08.7	312.200	-0.080	0.020	0.270
2020/01/31 08:50:08.8	312.200	-0.100	0.030	0.240
2020/01/31 08:50:08.9	312.190	-0.120	0.040	0.210
2020/01/31 08:50:09.0	312.180	-0.140	0.050	0.180
2020/01/31 08:50:09.1	312.180	-0.150	0.050	0.150
2020/01/31 08:50:09.2	312.170	-0.170	0.050	0.130
2020/01/31 08:50:09.3	312.160	-0.180	0.040	0.100
2020/01/31 08:50:09.4	312.160	-0.190	0.040	0.070
2020/01/31 08:50:09.5	312.160	-0.210	0.030	0.040
2020/01/31 08:50:09.6	312.150	-0.220	0.020	0.020
2020/01/31 08:50:09.7	312.140	-0.220	0.000	-0.000
2020/01/31 08:50:09.8	312.130	-0.230	-0.010	-0.020
2020/01/31 08:50:09.9	312.120	-0.240	-0.030	-0.040
2020/01/31 08:50:10.0	312.110	-0.250	-0.050	-0.060
2020/01/31 08:50:10.1	312.100	-0.250	-0.070	-0.080
2020/01/31 08:50:10.2	312.090	-0.260	-0.100	-0.090
2020/01/31 08:50:10.3	312.080	-0.260	-0.120	-0.110
2020/01/31 08:50:10.4	312.070	-0.260	-0.140	-0.120
2020/01/31 08:50:10.5	312.060	-0.270	-0.170	-0.130
2020/01/31 08:50:10.6	312.050	-0.270	-0.190	-0.140
2020/01/31 08:50:10.7	312.050	-0.270	-0.220	-0.150
2020/01/31 08:50:10.8	312.040	-0.270	-0.240	-0.160
2020/01/31 08:50:10.9	312.030	-0.280	-0.260	-0.170
2020/01/31 08:50:11.0	312.030	-0.280	-0.290	-0.170
2020/01/31 08:50:11.1	312.020	-0.280	-0.310	-0.180
2020/01/31 08:50:11.2	312.020	-0.280	-0.330	-0.180
2020/01/31 08:50:11.3	312.020	-0.280	-0.340	-0.190
2020/01/31 08:50:11.4	312.010	-0.280	-0.360	-0.200
2020/01/31 08:50:11.5	312.000	-0.280	-0.370	-0.200
2020/01/31 08:50:11.6	312.000	-0.280	-0.380	-0.200
2020/01/31 08:50:11.7	312.000	-0.280	-0.390	-0.200
2020/01/31 08:50:11.8	312.000	-0.280	-0.400	-0.200
2020/01/31 08:50:11.9	312.000	-0.280	-0.400	-0.200
2020/01/31 08:50:12.0	312.000	-0.280	-0.400	-0.200
2020/01/31 08:50:12.1	312.000	-0.280	-0.400	-0.200
2020/01/31 08:50:12.2	312.000	-0.280	-0.400	-0.200
2020/01/31 08:50:12.3	312.000	-0.280	-0.390	-0.190
2020/01/31 08:50:12.4	312.000	-0.280	-0.380	-0.180
2020/01/31 08:50:12.5	312.000	-0.280	-0.370	-0.170
2020/01/31 08:50:12.6	311.990	-0.280	-0.350	-0.160
2020/01/31 08:50:12.7	311.990	-0.270	-0.340	-0.150
2020/01/31 08:50:12.8	311.990	-0.270	-0.320	-0.130
2020/01/31 08:50:12.9	311.990	-0.260	-0.300	-0.110
2020/01/31 08:50:13.0	311.980	-0.260	-0.270	-0.090
2020/01/31 08:50:13.1	311.980	-0.250	-0.250	-0.070
2020/01/31 08:50:13.2	311.980	-0.240	-0.230	-0.050
2020/01/31 08:50:13.3	311.970	-0.230	-0.200	-0.020
2020/01/31 08:50:13.4	311.980	-0.220	-0.180	0.000
2020/01/31 08:50:13.5	311.980	-0.210	-0.150	0.030
2020/01/31 08:50:13.6	311.970	-0.200	-0.130	0.060
2020/01/31 08:50:13.7	311.970	-0.180	-0.110	0.090
2020/01/31 08:50:13.8	311.970	-0.170	-0.090	0.110
2020/01/31 08:50:13.9	311.970	-0.150	-0.070	0.140
2020/01/31 08:50:14.0	311.970	-0.130	-0.050	0.170
2020/01/31 08:50:14.1	311.970	-0.110	-0.040	0.190
2020/01/31 08:50:14.2	311.970	-0.090	-0.030	0.210
2020/01/31 08:50:14.3	311.970	-0.070	-0.020	0.240
2020/01/31 08:50:14.4	311.980	-0.050	-0.010	0.260
2020/01/31 08:50:14.5	311.990	-0.030	-0.010	0.280
2020/01/31 08:50:14.6	312.000	-0.000	-0.010	0.300
2020/01/31 08:50:14.7	312.010	0.020	-0.020	0.320
2020/01/31 08:50:14.8	312.020	0.050	-0.020	0.330
2020/01/31 08:50:14.9	312.030	0.070	-0.030	0.350
2020/01/31 08:50:15.0	312.040	0.090	-0.050	0.360
2020/01/31 08:50:15.1	312.060	0.120	-0.060	0.370
2020/01/31 08:50:15.2	312.080	0.140	-0.080	0.380
2020/01/31 08:50:15.3	312.100	0.170	-0.100	0.390
2020/01/31 08:50:15.4	312.120	0.190	-0.120	0.390
2020/01/31 08:50:15.5	312.150	0.210	-0.140	0.390
2020/01/31 08:50:15.6	312.170	0.230	-0.160	0.400
2020/01/31 08:50:15.7	312.190	0.250	-0.180	0.400
2020/01/31 08:50:15.8	312.220	0.270	-0.200	0.400
2020/01/31 08:50:15.9	312.240	0.280	-0.220	0.400
2020/01/31 08:50:16.0	312.270	0.300	-0.240	0.400
2020/01/31 08:50:16.1	312.300	0.310	-0.260	0.390
2020/01/31 08:50:16.2	312.320	0.320	-0.280	0.390
2020/01/31 08:50:16.3	312.350	0.330	-0.290	0.390
2020/01/31 08:50:16.4	312.370	0.330	-0.310	0.390
2020/01/31 08:50:16.5	312.400	0.340	-0.320	0.390
2020/01/31 08:50:16.6	312.420	0.340	-0.320	0.380
2020/01/31 08:50:16.7	312.450	0.340	-0.330	0.380
2020/01/31 08:50:16.8	312.470	0.340	-0.330	0.380
2020/01/31 08:50:16.9	312.490	0.330	-0.330	0.380
2020/01/31 08:50:17.0	312.510	0.330	-0.320	0.380
2020/01/31 08:50:17.1	312.520	0.320	-0.310	0.390
2020/01/31 08:50:17.2	312.530	0.310	-0.300	0.390
2020/01/31 08:50:17.3	312.540	0.290	-0.290	0.390
2020/01/31 08:50:17.4	312.560	0.280	-0.270	0.400
2020/01/31 08:50:17.5	312.560	0.260	-0.250	0.400
2020/01/31 08:50:17.6	312.560	0.250	-0.220	0.410
2020/01/31 08:50:17.7	312.560	0.230	-0.200	0.420
2020/01/31 08:50:17.8	312.550	0.210	-0.170	0.430
2020/01/31 08:50:17.9	312.550	0.190	-0.150	0.430
2020/01/31 08:50:18.0	312.530	0.170	-0.120	0.440
2020/01/31 08:50:18.1	312.520	0.140	-0.090	0.450
2020/01/31 08:50:18.2	312.510	0.120	-0.060	0.460
2020/01/31 08:50:18.3	312.490	0.100	-0.040	0.470
2020/01/31 08:50:18.4	312.470	0.080	-0.010	0.470
2020/01/31 08:50:18.5	312.450	0.060	0.010	0.480
2020/01/31 08:50:18.6	312.430	0.040	0.030	0.480
2020/01/31 08:50:18.7	312.410	0.020	0.040	0.480
2020/01/31 08:50:18.8	312.390	0.010	0.050	0.480
2020/01/31 08:50:18.9	312.370	-0.010	0.060	0.480
2020/01/31 08:50:19.0	312.350	-0.020	0.060	0.470
2020/01/31 08:50:19.1	312.330	-0.040	0.050	0.470
2020/01/31 08:50:19.2	312.310	-0.050	0.040	0.460
2020/01/31 08:50:19.3	312.290	-0.060	0.030	0.450
2020/01/31 08:50:19.4	312.270	-0.060	0.010	0.430
2020/01/31 08:50:19.5	312.250	-0.070	-0.010	0.420
2020/01/31 08:50:19.6	312.230	-0.070	-0.040	0.400
2020/01/31 08:50:19.7	312.220	-0.070	-0.070	0.390
2020/01/31 08:50:19.8	312.200	-0.070	-0.100	0.370
2020/01/31 08:50:19.9	312.180	-0.070	-0.140	0.350
2020/01/31 08:50:20.0	312.170	-0.070	-0.180	0.330
2020/01/31 08:50:20.1	312.150	-0.060	-0.220	0.320
2020/01/31 08:50:20.2	312.130	-0.060	-0.260	0.300
2020/01/31 08:50:20.3	312.120	-0.050	-0.310	0.280
2020/01/31 08:50:20.4	312.080	-0.040	-0.360	0.260
2020/01/31 08:50:20.5	312.070	-0.030	-0.400	0.250
2020/01/31 08:50:20.6	312.050	-0.020	-0.440	0.240
2020/01/31 08:50:20.7	312.030	-0.010	-0.490	0.230
2020/01/31 08:50:20.8	312.010	0.000	-0.530	0.220
2020/01/31 08:50:20.9	311.990	0.020	-0.570	0.210
2020/01/31 08:50:21.0	311.970	0.030	-0.600	0.200
2020/01/31 08:50:21.1	311.950	0.040	-0.640	0.190
2020/01/31 08:50:21.2	311.940	0.060	-0.660	0.190
2020/01/31 08:50:21.3	311.920	0.070	-0.690	0.190
2020/01/31 08:50:21.4	311.900	0.080	-0.720	0.190
2020/01/31 08:50:21.5	311.880	0.100	-0.740	0.190
2020/01/31 08:50:21.6	311.860	0.110	-0.750	0.190
2020/01/31 08:50:21.7	311.840	0.120	-0.760	0.190
2020/01/31 08:50:21.8	311.830	0.130	-0.770	0.190
2020/01/31 08:50:21.9	311.810	0.140	-0.780	0.190
2020/01/31 08:50:22.0	311.790	0.140	-0.780	0.200
2020/01/31 08:50:22.1	311.770	0.150	-0.770	0.200
2020/01/31 08:50:22.2	311.760	0.150	-0.760	0.210
2020/01/31 08:50:22.3	311.740	0.150	-0.750	0.210
2020/01/31 08:50:22.4	311.750	0.160	-0.740	0.220
2020/01/31 08:50:22.5	311.740	0.150	-0.720	0.230
2020/01/31 08:50:22.6	311.720	0.150	-0.700	0.230
2020/01/31 08:50:22.7	311.720	0.140	-0.680	0.230
2020/01/31 08:50:22.8	311.710	0.140	-0.660	0.230
2020/01/31 08:50:22.9	311.700	0.130	-0.630	0.220
2020/01/31 08:50:23.0	311.700	0.110	-0.610	0.220
2020/01/31 08:50:23.1	311.700	0.100	-0.580	0.210
2020/01/31 08:50:23.2	311.700	0.090	-0.550	0.200
2020/01/31 08:50:23.3	311.710	0.070	-0.520	0.180
2020/01/31 08:50:23.4	311.720	0.050	-0.480	0.170
2020/01/31 08:50:23.5	311.720	0.030	-0.450	0.150
2020/01/31 08:50:23.6	311.740	0.010	-0.420	0.130
2020/01/31 08:50:23.7	311.750	-0.010	-0.380	0.100
2020/01/31 08:50:23.8	311.760	-0.040	-0.350	0.080
2020/01/31 08:50:23.9	311.780	-0.060	-0.320	0.050
2020/01/31 08:50:24.0	311.800	-0.090	-0.280	0.030
2020/01/31 08:50:24.1	311.810	-0.110	-0.250	0.000
2020/01/31 08:50:24.2	311.830	-0.140	-0.210	-0.020
2020/01/31 08:50:24.3	311.860	-0.160	-0.180	-0.050
2020/01/31 08:50:24.4	311.870	-0.190	-0.150	-0.070
2020/01/31 08:50:24.5	311.900	-0.210	-0.110	-0.100
2020/01/31 08:50:24.6	311.920	-0.240	-0.080	-0.120
2020/01/31 08:50:24.7	311.950	-0.260	-0.040	-0.140
2020/01/31 08:50:24.8	311.970	-0.280	-0.010	-0.170
2020/01/31 08:50:24.9	311.990	-0.300	0.030	-0.180
2020/01/31 08:50:25.0	312.020	-0.330	0.070	-0.200
2020/01/31 08:50:25.1	312.040	-0.340	0.100	-0.220
2020/01/31 08:50:25.2	312.060	-0.360	0.130	-0.230
2020/01/31 08:50:25.3	312.080	-0.380	0.170	-0.240
2020/01/31 08:50:25.4	312.090	-0.390	0.200	-0.260
2020/01/31 08:50:25.5	312.110	-0.400	0.230	-0.260
2020/01/31 08:50:25.6	312.130	-0.410	0.260	-0.270
2020/01/31 08:50:25.7	312.150	-0.420	0.290	-0.270
2020/01/31 08:50:25.8	312.160	-0.430	0.320	-0.270
2020/01/31 08:50:25.9	312.180	-0.430	0.340	-0.270
2020/01/31 08:50:26.0	312.190	-0.430	0.370	-0.260
2020/01/31 08:50:26.1	312.200	-0.430	0.390	-0.260
2020/01/31 08:50:26.2	312.220	-0.420	0.410	-0.240
2020/01/31 08:50:26.3	312.230	-0.420	0.420	-0.230
2020/01/31 08:50:26.4	312.230	-0.410	0.430	-0.220
2020/01/31 08:50:26.5	312.240	-0.400	0.440	-0.200
2020/01/31 08:50:26.6	312.250	-0.380	0.440	-0.180
2020/01/31 08:50:26.7	312.260	-0.370	0.440	-0.150
2020/01/31 08:50:26.8	312.260	-0.350	0.440	-0.130
2020/01/31 08:50:26.9	312.270	-0.330	0.430	-0.100
2020/01/31 08:50:27.0	312.280	-0.310	0.420	-0.070
2020/01/31 08:50:27.1	312.280	-0.280	0.400	-0.050
2020/01/31 08:50:27.2	312.290	-0.260	0.380	-0.020
2020/01/31 08:50:27.3	312.290	-0.230	0.360	0.020
2020/01/31 08:50:27.4	312.300	-0.200	0.330	0.050
2020/01/31 08:50:27.5	312.310	-0.170	0.300	0.080
2020/01/31 08:50:27.6	312.310	-0.130	0.260	0.110
2020/01/31 08:50:27.7	312.320	-0.100	0.220	0.140
2020/01/31 08:50:27.8	312.330	-0.060	0.170	0.170
2020/01/31 08:50:27.9	312.330	-0.030	0.120	0.200
2020/01/31 08:50:28.0	312.340	0.010	0.070	0.230
2020/01/31 08:50:28.1	312.350	0.050	0.020	0.250
2020/01/31 08:50:28.2	312.360	0.090	-0.040	0.280
2020/01/31 08:50:28.3	312.370	0.130	-0.090	0.300
2020/01/31 08:50:28.4	312.390	0.170	-0.160	0.330
2020/01/31 08:50:28.5	312.400	0.200	-0.210	0.350
2020/01/31 08:50:28.6	312.410	0.240	-0.270	0.370
2020/01/31 08:50:28.7	312.420	0.280	-0.330	0.390
2020/01/31 08:50:28.8	312.440	0.320	-0.390	0.410
2020/01/31 08:50:28.9	312.450	0.350	-0.450	0.430
2020/01/31 08:50:29.0	312.460	0.390	-0.500	0.450
2020/01/31 08:50:29.1	312.470	0.420	-0.550	0.470
2020/01/31 08:50:29.2	312.480	0.450	-0.600	0.480
2020/01/31 08:50:29.3	312.490	0.480	-0.640	0.500
2020/01/31 08:50:29.4	312.470	0.510	-0.680	0.520
2020/01/31 08:50:29.5	312.480	0.530	-0.710	0.540
2020/01/31 08:50:29.6	312.490	0.550	-0.750	0.560
2020/01/31 08:50:29.7	312.500	0.570	-0.770	0.580
2020/01/31 08:50:29.8	312.500	0.580	-0.800	0.590
2020/01/31 08:50:29.9	312.500	0.600	-0.810	0.610
2020/01/31 08:50:30.0	312.510	0.600	-0.830	0.630
2020/01/31 08:50:30.1	312.510	0.610	-0.840	0.640
2020/01/31 08:50:30.2	312.510	0.610	-0.840	0.660
2020/01/31 08:50:30.3	312.510	0.610	-0.840	0.670
2020/01/31 08:50:30.4	312.520	0.610	-0.840	0.680
2020/01/31 08:50:30.5	312.520	0.600	-0.830	0.690
2020/01/31 08:50:30.6	312.520	0.590	-0.820	0.700
2020/01/31 08:50:30.7	312.510	0.580	-0.810	0.710
2020/01/31 08:50:30.8	312.510	0.560	-0.790	0.710
2020/01/31 08:50:30.9	312.500	0.540	-0.770	0.720
2020/01/31 08:50:31.0	312.490	0.520	-0.740	0.720
2020/01/31 08:50:31.1	312.480	0.500	-0.710	0.720
2020/01/31 08:50:31.2	312.470	0.470	-0.680	0.720
2020/01/31 08:50:31.3	312.460	0.440	-0.650	0.710
2020/01/31 08:50:31.4	312.450	0.410	-0.620	0.710
2020/01/31 08:50:31.5	312.440	0.380	-0.580	0.700
2020/01/31 08:50:31.6	312.420	0.350	-0.550	0.690
2020/01/31 08:50:31.7	312.400	0.320	-0.510	0.680
2020/01/31 08:50:31.8	312.380	0.280	-0.470	0.670
2020/01/31 08:50:31.9	312.370	0.250	-0.430	0.660
2020/01/31 08:50:32.0	312.350	0.210	-0.390	0.650
2020/01/31 08:50:32.1	312.320	0.180	-0.350	0.640
2020/01/31 08:50:32.2	312.300	0.140	-0.310	0.620
2020/01/31 08:50:32.3	312.280	0.110	-0.270	0.610
2020/01/31 08:50:32.4	312.270	0.070	-0.230	0.590
2020/01/31 08:50:32.5	312.240	0.030	-0.190	0.580
2020/01/31 08:50:32.6	312.220	0.000	-0.150	0.560
2020/01/31 08:50:32.7	312.190	-0.030	-0.110	0.540
2020/01/31 08:50:32.8	312.170	-0.070	-0.080	0.530
2020/01/31 08:50:32.9	312.140	-0.100	-0.050	0.510
2020/01/31 08:50:33.0	312.120	-0.130	-0.020	0.490
2020/01/31 08:50:33.1	312.090	-0.160	0.000	0.470
2020/01/31 08:50:33.2	312.070	-0.190	0.030	0.450
2020/01/31 08:50:33.3	312.040	-0.210	0.040	0.430
2020/01/31 08:50:33.4	312.020	-0.230	0.050	0.410
2020/01/31 08:50:33.5	311.990	-0.260	0.060	0.380
2020/01/31 08:50:33.6	311.970	-0.280	0.070	0.360
2020/01/31 08:50:33.7	311.950	-0.290	0.070	0.330
2020/01/31 08:50:33.8	311.930	-0.310	0.060	0.310
2020/01/31 08:50:33.9	311.920	-0.320	0.060	0.280
2020/01/31 08:50:34.0	311.900	-0.330	0.040	0.250
2020/01/31 08:50:34.1	311.890	-0.340	0.030	0.220
2020/01/31 08:50:34.2	311.880	-0.350	0.000	0.190
2020/01/31 08:50:34.3	311.870	-0.350	-0.020	0.150
2020/01/31 08:50:34.4	311.870	-0.350	-0.050	0.110
2020/01/31 08:50:34.5	311.870	-0.350	-0.080	0.070
2020/01/31 08:50:34.6	311.870	-0.350	-0.110	0.040
2020/01/31 08:50:34.7	311.870	-0.340	-0.150	-0.000
2020/01/31 08:50:34.8	311.880	-0.330	-0.180	-0.040
2020/01/31 08:50:34.9	311.880	-0.330	-0.220	-0.080
2020/01/31 08:50:35.0	311.890	-0.320	-0.260	-0.110
2020/01/31 08:50:35.1	311.900	-0.300	-0.300	-0.150
2020/01/31 08:50:35.2	311.920	-0.290	-0.330	-0.190
2020/01/31 08:50:35.3	311.930	-0.280	-0.370	-0.220
2020/01/31 08:50:35.4	311.940	-0.260	-0.400	-0.250
2020/01/31 08:50:35.5	311.960	-0.250	-0.430	-0.280
2020/01/31 08:50:35.6	311.980	-0.240	-0.460	-0.310
2020/01/31 08:50:35.7	312.000	-0.220	-0.480	-0.340
2020/01/31 08:50:35.8	312.030	-0.210	-0.500	-0.360
2020/01/31 08:50:35.9	312.050	-0.190	-0.520	-0.390
2020/01/31 08:50:36.0	312.080	-0.180	-0.530	-0.410
2020/01/31 08:50:36.1	312.100	-0.170	-0.530	-0.420
2020/01/31 08:50:36.2	312.130	-0.160	-0.540	-0.440
2020/01/31 08:50:36.3	312.160	-0.140	-0.530	-0.450
2020/01/31 08:50:36.4	312.190	-0.130	-0.520	-0.460
2020/01/31 08:50:36.5	312.220	-0.130	-0.510	-0.470
2020/01/31 08:50:36.6	312.250	-0.120	-0.500	-0.470
2020/01/31 08:50:36.7	312.280	-0.110	-0.470	-0.470
2020/01/31 08:50:36.8	312.310	-0.110	-0.450	-0.470
2020/01/31 08:50:36.9	312.340	-0.100	-0.420	-0.470
2020/01/31 08:50:37.0	312.370	-0.100	-0.390	-0.460
2020/01/31 08:50:37.1	312.400	-0.100	-0.350	-0.450
2020/01/31 08:50:37.2	312.430	-0.100	-0.310	-0.440
2020/01/31 08:50:37.3	312.460	-0.100	-0.270	-0.420
2020/01/31 08:50:37.4	312.490	-0.100	-0.230	-0.400
2020/01/31 08:50:37.5	312.510	-0.100	-0.180	-0.380
2020/01/31 08:50:37.6	312.540	-0.110	-0.140	-0.360
2020/01/31 08:50:37.7	312.570	-0.110	-0.090	-0.330
2020/01/31 08:50:37.8	312.590	-0.120	-0.040	-0.300
2020/01/31 08:50:37.9	312.620	-0.120	0.000	-0.270
2020/01/31 08:50:38.0	312.640	-0.130	0.050	-0.240
2020/01/31 08:50:38.1	312.660	-0.130	0.090	-0.210
2020/01/31 08:50:38.2	312.680	-0.140	0.140	-0.170
2020/01/31 08:50:38.3	312.700	-0.150	0.180	-0.140
2020/01/31 08:50:38.4	312.730	-0.150	0.210	-0.100
2020/01/31 08:50:38.5	312.750	-0.160	0.250	-0.060
2020/01/31 08:50:38.6	312.770	-0.170	0.280	-0.030
2020/01/31 08:50:38.7	312.790	-0.170	0.300	0.010
2020/01/31 08:50:38.8	312.800	-0.180	0.330	0.050
2020/01/31 08:50:38.9	312.820	-0.190	0.340	0.080
2020/01/31 08:50:39.0	312.830	-0.190	0.350	0.120
2020/01/31 08:50:39.1	312.840	-0.200	0.360	0.150
2020/01/31 08:50:39.2	312.850	-0.200	0.370	0.180
2020/01/31 08:50:39.3	312.860	-0.210	0.360	0.210
2020/01/31 08:50:39.4	312.860	-0.210	0.360	0.240
2020/01/31 08:50:39.5	312.870	-0.210	0.350	0.260
2020/01/31 08:50:39.6	312.870	-0.210	0.330	0.290
2020/01/31 08:50:39.7	312.870	-0.210	0.310	0.310
2020/01/31 08:50:39.8	312.870	-0.210	0.290	0.330
2020/01/31 08:50:39.9	312.870	-0.210	0.270	0.350
2020/01/31 08:50:40.0	312.860	-0.210	0.240	0.360
2020/01/31 08:50:40.1	312.850	-0.200	0.210	0.380
2020/01/31 08:50:40.2	312.840	-0.200	0.170	0.390
2020/01/31 08:50:40.3	312.830	-0.190	0.130	0.400
2020/01/31 08:50:40.4	312.820	-0.180	0.090	0.410
2020/01/31 08:50:40.5	312.810	-0.170	0.050	0.420
2020/01/31 08:50:40.6	312.800	-0.150	0.010	0.420
2020/01/31 08:50:40.7	312.780	-0.140	-0.030	0.430
2020/01/31 08:50:40.8	312.770	-0.120	-0.080	0.430
2020/01/31 08:50:40.9	312.750	-0.100	-0.120	0.430
2020/01/31 08:50:41.0	312.740	-0.080	-0.170	0.440
2020/01/31 08:50:41.1	312.720	-0.060	-0.220	0.440
2020/01/31 08:50:41.2	312.700	-0.030	-0.260	0.440
2020/01/31 08:50:41.3	312.690	-0.000	-0.300	0.440
2020/01/31 08:50:41.4	312.650	0.020	-0.350	0.430
2020/01/31 08:50:41.5	312.640	0.050	-0.390	0.430
2020/01/31 08:50:41.6	312.620	0.080	-0.430	0.430
2020/01/31 08:50:41.7	312.610	0.120	-0.480	0.420
2020/01/31 08:50:41.8	312.600	0.150	-0.510	0.420
2020/01/31 08:50:41.9	312.590	0.180	-0.550	0.420
2020/01/31 08:50:42.0	312.580	0.210	-0.590	0.410
2020/01/31 08:50:42.1	312.570	0.250	-0.620	0.400
2020/01/31 08:50:42.2	312.560	0.280	-0.650	0.400
2020/01/31 08:50:42.3	312.550	0.310	-0.680	0.390
2020/01/31 08:50:42.4	312.530	0.350	-0.710	0.380
2020/01/31 08:50:42.5	312.530	0.380	-0.730	0.370
2020/01/31 08:50:42.6	312.530	0.410	-0.760	0.370
2020/01/31 08:50:42.7	312.520	0.440	-0.780	0.360
2020/01/31 08:50:42.8	312.520	0.470	-0.800	0.360
2020/01/31 08:50:42.9	312.530	0.490	-0.810	0.350
2020/01/31 08:50:43.0	312.530	0.520	-0.820	0.350
2020/01/31 08:50:43.1	312.530	0.540	-0.830	0.340
2020/01/31 08:50:43.2	312.530	0.570	-0.840	0.340
2020/01/31 08:50:43.3	312.540	0.580	-0.840	0.340
2020/01/31 08:50:43.4	312.550	0.600	-0.840	0.340
2020/01/31 08:50:43.5	312.550	0.620	-0.840	0.350
2020/01/31 08:50:43.6	312.550	0.630	-0.830	0.350
2020/01/31 08:50:43.7	312.550	0.640	-0.820	0.360
2020/01/31 08:50:43.8	312.550	0.640	-0.810	0.370
2020/01/31 08:50:43.9	312.550	0.650	-0.790	0.380
2020/01/31 08:50:44.0	312.550	0.650	-0.770	0.390
2020/01/31 08:50:44.1	312.550	0.650	-0.750	0.400
2020/01/31 08:50:44.2	312.540	0.640	-0.720	0.420
2020/01/31 08:50:44.3	312.530	0.630	-0.690	0.430
2020/01/31 08:50:44.4	312.540	0.620	-0.660	0.450
2020/01/31 08:50:44.5	312.530	0.610	-0.620	0.470
2020/01/31 08:50:44.6	312.520	0.590	-0.580	0.480
2020/01/31 08:50:44.7	312.510	0.570	-0.550	0.500
2020/01/31 08:50:44.8	312.490	0.550	-0.510	0.520
2020/01/31 08:50:44.9	312.470	0.530	-0.470	0.540
2020/01/31 08:50:45.0	312.460	0.500	-0.420	0.560
2020/01/31 08:50:45.1	312.440	0.470	-0.380	0.580
2020/01/31 08:50:45.2	312.420	0.440	-0.340	0.600
2020/01/31 08:50:45.3	312.400	0.410	-0.300	0.610
2020/01/31 08:50:45.4	312.380	0.380	-0.260	0.630
2020/01/31 08:50:45.5	312.360	0.340	-0.220	0.640
2020/01/31 08:50:45.6	312.340	0.300	-0.180	0.650
2020/01/31 08:50:45.7	312.320	0.270	-0.150	0.650
2020/01/31 08:50:45.8	312.290	0.230	-0.110	0.660
2020/01/31 08:50:45.9	312.270	0.190	-0.080	0.660
2020/01/31 08:50:46.0	312.250	0.150	-0.050	0.650
2020/01/31 08:50:46.1	312.230	0.110	-0.030	0.650
2020/01/31 08:50:46.2	312.210	0.080	-0.010	0.640
2020/01/31 08:50:46.3	312.200	0.040	0.010	0.620
2020/01/31 08:50:46.4	312.200	0.000	0.020	0.600
2020/01/31 08:50:46.5	312.190	-0.040	0.030	0.580
2020/01/31 08:50:46.6	312.180	-0.070	0.040	0.550
2020/01/31 08:50:46.7	312.170	-0.110	0.050	0.520
2020/01/31 08:50:46.8	312.170	-0.140	0.050	0.490
2020/01/31 08:50:46.9	312.170	-0.170	0.050	0.450
2020/01/31 08:50:47.0	312.170	-0.200	0.040	0.410
2020/01/31 08:50:47.1	312.170	-0.230	0.030	0.370
2020/01/31 08:50:47.2	312.180	-0.260	0.030	0.330
2020/01/31 08:50:47.3	312.190	-0.280	0.010	0.280
2020/01/31 08:50:47.4	312.200	-0.310	0.000	0.240
2020/01/31 08:50:47.5	312.210	-0.330	-0.010	0.190
2020/01/31 08:50:47.6	312.230	-0.350	-0.020	0.140
2020/01/31 08:50:47.7	312.240	-0.370	-0.040	0.100
2020/01/31 08:50:47.8	312.250	-0.380	-0.050	0.060
2020/01/31 08:50:47.9	312.270	-0.400	-0.060	0.010
2020/01/31 08:50:48.0	312.290	-0.410	-0.070	-0.030
2020/01/31 08:50:48.1	312.300	-0.420	-0.080	-0.070
2020/01/31 08:50:48.2	312.320	-0.430	-0.080	-0.110
2020/01/31 08:50:48.3	312.330	-0.440	-0.090	-0.140
2020/01/31 08:50:48.4	312.340	-0.450	-0.090	-0.170
2020/01/31 08:50:48.5	312.360	-0.450	-0.090	-0.210
2020/01/31 08:50:48.6	312.370	-0.460	-0.090	-0.240
2020/01/31 08:50:48.7	312.390	-0.460	-0.090	-0.260
2020/01/31 08:50:48.8	312.400	-0.470	-0.090	-0.290
2020/01/31 08:50:48.9	312.420	-0.470	-0.080	-0.320
2020/01/31 08:50:49.0	312.430	-0.470	-0.080	-0.340
2020/01/31 08:50:49.1	312.450	-0.480	-0.070	-0.360
2020/01/31 08:50:49.2	312.460	-0.480	-0.060	-0.390
2020/01/31 08:50:49.3	312.480	-0.480	-0.050	-0.410
2020/01/31 08:50:49.4	312.480	-0.480	-0.050	-0.430
2020/01/31 08:50:49.5	312.500	-0.490	-0.040	-0.450
2020/01/31 08:50:49.6	312.520	-0.490	-0.030	-0.470
2020/01/31 08:50:49.7	312.530	-0.490	-0.020	-0.490
2020/01/31 08:50:49.8	312.550	-0.490	-0.010	-0.500
2020/01/31 08:50:49.9	312.570	-0.490	-0.010	-0.510
2020/01/31 08:50:50.0	312.580	-0.490	0.000	-0.530
2020/01/31 08:50:50.1	312.600	-0.490	0.010	-0.530
2020/01/31 08:50:50.2	312.620	-0.490	0.010	-0.540
2020/01/31 08:50:50.3	312.640	-0.490	0.020	-0.540
2020/01/31 08:50:50.4	312.640	-0.490	0.020	-0.550
2020/01/31 08:50:50.5	312.660	-0.490	0.030	-0.550
2020/01/31 08:50:50.6	312.680	-0.490	0.030	-0.540
2020/01/31 08:50:50.7	312.700	-0.490	0.030	-0.530
2020/01/31 08:50:50.8	312.710	-0.480	0.040	-0.510
2020/01/31 08:50:50.9	312.730	-0.480	0.040	-0.500
2020/01/31 08:50:51.0	312.740	-0.470	0.040	-0.480
2020/01/31 08:50:51.1	312.760	-0.460	0.040	-0.450
2020/01/31 08:50:51.2	312.770	-0.450	0.040	-0.420
2020/01/31 08:50:51.3	312.790	-0.440	0.050	-0.390
2020/01/31 08:50:51.4	312.800	-0.430	0.050	-0.350
2020/01/31 08:50:51.5	312.810	-0.420	0.050	-0.310
2020/01/31 08:50:51.6	312.820	-0.400	0.050	-0.270
2020/01/31 08:50:51.7	312.830	-0.380	0.050	-0.230
2020/01/31 08:50:51.8	312.840	-0.370	0.040	-0.180
2020/01/31 08:50:51.9	312.840	-0.350	0.040	-0.130
2020/01/31 08:50:52.0	312.850	-0.320	0.040	-0.080
2020/01/31 08:50:52.1	312.850	-0.300	0.030	-0.030
2020/01/31 08:50:52.2	312.850	-0.280	0.020	0.020
2020/01/31 08:50:52.3	312.850	-0.250	0.020	0.080
2020/01/31 08:50:52.4	312.860	-0.220	0.010	0.140
2020/01/31 08:50:52.5	312.850	-0.190	-0.000	0.200
2020/01/31 08:50:52.6	312.850	-0.160	-0.020	0.250
2020/01/31 08:50:52.7	312.840	-0.130	-0.030	0.310
2020/01/31 08:50:52.8	312.830	-0.100	-0.050	0.370
2020/01/31 08:50:52.9	312.830	-0.070	-0.070	0.430
2020/01/31 08:50:53.0	312.810	-0.040	-0.090	0.490
2020/01/31 08:50:53.1	312.800	-0.010	-0.110	0.550
2020/01/31 08:50:53.2	312.790	0.030	-0.130	0.600
2020/01/31 08:50:53.3	312.780	0.060	-0.160	0.660
2020/01/31 08:50:53.4	312.770	0.090	-0.180	0.710
2020/01/31 08:50:53.5	312.750	0.120	-0.210	0.760
2020/01/31 08:50:53.6	312.730	0.160	-0.240	0.810
2020/01/31 08:50:53.7	312.720	0.190	-0.270	0.860
2020/01/31 08:50:53.8	312.700	0.220	-0.310	0.900
2020/01/31 08:50:53.9	312.680	0.250	-0.340	0.940
2020/01/31 08:50:54.0	312.660	0.280	-0.380	0.980
2020/01/31 08:50:54.1	312.630	0.300	-0.410	1.010
2020/01/31 08:50:54.2	312.610	0.330	-0.450	1.040
2020/01/31 08:50:54.3	312.590	0.360	-0.480	1.060
2020/01/31 08:50:54.4	312.570	0.380	-0.510	1.090
2020/01/31 08:50:54.5	312.540	0.400	-0.550	1.100
2020/01/31 08:50:54.6	312.520	0.420	-0.590	1.120
2020/01/31 08:50:54.7	312.500	0.440	-0.620	1.130
2020/01/31 08:50:54.8	312.480	0.460	-0.650	1.130
2020/01/31 08:50:54.9	312.460	0.470	-0.690	1.130
2020/01/31 08:50:55.0	312.440	0.490	-0.720	1.130
2020/01/31 08:50:55.1	312.420	0.500	-0.750	1.130
2020/01/31 08:50:55.2	312.400	0.510	-0.780	1.120
2020/01/31 08:50:55.3	312.380	0.520	-0.810	1.110
2020/01/31 08:50:55.4	312.380	0.530	-0.830	1.100
2020/01/31 08:50:55.5	312.370	0.530	-0.850	1.080
2020/01/31 08:50:55.6	312.350	0.540	-0.870	1.060
2020/01/31 08:50:55.7	312.340	0.540	-0.890	1.040
2020/01/31 08:50:55.8	312.330	0.540	-0.910	1.020
2020/01/31 08:50:55.9	312.330	0.540	-0.920	0.990
2020/01/31 08:50:56.0	312.320	0.540	-0.930	0.960
2020/01/31 08:50:56.1	312.320	0.540	-0.930	0.930
2020/01/31 08:50:56.2	312.310	0.540	-0.930	0.900
2020/01/31 08:50:56.3	312.310	0.530	-0.930	0.870
2020/01/31 08:50:56.4	312.300	0.520	-0.930	0.830
2020/01/31 08:50:56.5	312.300	0.520	-0.920	0.800
2020/01/31 08:50:56.6	312.300	0.510	-0.910	0.760
2020/01/31 08:50:56.7	312.310	0.500	-0.890	0.720
2020/01/31 08:50:56.8	312.310	0.490	-0.870	0.680
2020/01/31 08:50:56.9	312.310	0.480	-0.850	0.640
2020/01/31 08:50:57.0	312.310	0.470	-0.820	0.600
2020/01/31 08:50:57.1	312.310	0.460	-0.790	0.560
2020/01/31 08:50:57.2	312.320	0.440	-0.760	0.520
2020/01/31 08:50:57.3	312.320	0.430	-0.720	0.490
2020/01/31 08:50:57.4	312.320	0.420	-0.690	0.450
2020/01/31 08:50:57.5	312.320	0.410	-0.650	0.410
2020/01/31 08:50:57.6	312.320	0.390	-0.600	0.380
2020/01/31 08:50:57.7	312.330	0.380	-0.560	0.340
2020/01/31 08:50:57.8	312.330	0.370	-0.510	0.310
2020/01/31 08:50:57.9	312.330	0.360	-0.470	0.280
2020/01/31 08:50:58.0	312.330	0.340	-0.420	0.260
2020/01/31 08:50:58.1	312.330	0.330	-0.370	0.230
2020/01/31 08:50:58.2	312.330	0.320	-0.320	0.200
2020/01/31 08:50:58.3	312.330	0.310	-0.280	0.180
2020/01/31 08:50:58.4	312.340	0.300	-0.230	0.160
2020/01/31 08:50:58.5	312.340	0.280	-0.190	0.140
2020/01/31 08:50:58.6	312.340	0.270	-0.150	0.120
2020/01/31 08:50:58.7	312.350	0.260	-0.110	0.100
2020/01/31 08:50:58.8	312.350	0.250	-0.080	0.080
2020/01/31 08:50:58.9	312.360	0.240	-0.040	0.060
2020/01/31 08:50:59.0	312.360	0.230	-0.010	0.040
2020/01/31 08:50:59.1	312.370	0.220	0.010	0.030
2020/01/31 08:50:59.2	312.370	0.210	0.030	0.010
2020/01/31 08:50:59.3	312.380	0.190	0.050	-0.000
2020/01/31 08:50:59.4	312.390	0.180	0.070	-0.020
2020/01/31 08:50:59.5	312.400	0.170	0.080	-0.030
2020/01/31 08:50:59.6	312.410	0.160	0.090	-0.040
2020/01/31 08:50:59.7	312.420	0.140	0.100	-0.060
2020/01/31 08:50:59.8	312.430	0.130	0.100	-0.070
2020/01/31 08:50:59.9	312.450	0.110	0.110	-0.080
2020/01/31 08:51:00.0	312.470	0.100	0.110	-0.090
2020/01/31 08:51:00.1	312.480	0.080	0.100	-0.110
2020/01/31 08:51:00.2	312.500	0.060	0.100	-0.120
2020/01/31 08:51:00.3	312.520	0.050	0.090	-0.130
2020/01/31 08:51:00.4	312.520	0.030	0.090	-0.140
2020/01/31 08:51:00.5	312.540	0.010	0.080	-0.150
2020/01/31 08:51:00.6	312.560	-0.020	0.070	-0.150
2020/01/31 08:51:00.7	312.580	-0.040	0.070	-0.160
2020/01/31 08:51:00.8	312.600	-0.060	0.060	-0.170
2020/01/31 08:51:00.9	312.620	-0.090	0.050	-0.170
2020/01/31 08:51:01.0	312.640	-0.110	0.050	-0.180
2020/01/31 08:51:01.1	312.660	-0.140	0.050	-0.180
2020/01/31 08:51:01.2	312.680	-0.160	0.050	-0.190
2020/01/31 08:51:01.3	312.700	-0.190	0.050	-0.190
2020/01/31 08:51:01.4	312.710	-0.220	0.050	-0.190
2020/01/31 08:51:01.5	312.730	-0.250	0.060	-0.190
2020/01/31 08:51:01.6	312.750	-0.270	0.060	-0.190
2020/01/31 08:51:01.7	312.760	-0.300	0.070	-0.190
2020/01/31 08:51:01.8	312.780	-0.330	0.080	-0.190
2020/01/31 08:51:01.9	312.800	-0.360	0.100	-0.180
2020/01/31 08:51:02.0	312.810	-0.380	0.110	-0.180
2020/01/31 08:51:02.1	312.830	-0.410	0.130	-0.170
2020/01/31 08:51:02.2	312.840	-0.440	0.150	-0.160
2020/01/31 08:51:02.3	312.850	-0.460	0.170	-0.150
2020/01/31 08:51:02.4	312.840	-0.490	0.190	-0.140
2020/01/31 08:51:02.5	312.850	-0.510	0.210	-0.120
2020/01/31 08:51:02.6	312.850	-0.530	0.240	-0.100
2020/01/31 08:51:02.7	312.850	-0.550	0.270	-0.080
2020/01/31 08:51:02.8	312.850	-0.570	0.290	-0.060
2020/01/31 08:51:02.9	312.840	-0.590	0.320	-0.030
2020/01/31 08:51:03.0	312.840	-0.610	0.350	-0.000
2020/01/31 08:51:03.1	312.830	-0.630	0.370	0.030
2020/01/31 08:51:03.2	312.810	-0.640	0.400	0.060
2020/01/31 08:51:03.3	312.800	-0.650	0.420	0.090
2020/01/31 08:51:03.4	312.780	-0.660	0.450	0.130
2020/01/31 08:51:03.5	312.760	-0.670	0.470	0.170
2020/01/31 08:51:03.6	312.730	-0.680	0.490	0.200
2020/01/31 08:51:03.7	312.700	-0.690	0.500	0.240
2020/01/31 08:51:03.8	312.680	-0.690	0.520	0.270
2020/01/31 08:51:03.9	312.640	-0.690	0.530	0.300
2020/01/31 08:51:04.0	312.610	-0.690	0.530	0.340
2020/01/31 08:51:04.1	312.580	-0.690	0.530	0.370
2020/01/31 08:51:04.2	312.540	-0.690	0.520	0.390
2020/01/31 08:51:04.3	312.510	-0.680	0.510	0.420
2020/01/31 08:51:04.4	312.460	-0.670	0.500	0.440
2020/01/31 08:51:04.5	312.420	-0.660	0.480	0.460
2020/01/31 08:51:04.6	312.380	-0.640	0.450	0.480
2020/01/31 08:51:04.7	312.350	-0.630	0.420	0.500
2020/01/31 08:51:04.8	312.310	-0.610	0.390	0.510
2020/01/31 08:51:04.9	312.280	-0.590	0.350	0.530
2020/01/31 08:51:05.0	312.240	-0.570	0.300	0.540
2020/01/31 08:51:05.1	312.200	-0.540	0.250	0.540
2020/01/31 08:51:05.2	312.170	-0.510	0.200	0.550
2020/01/31 08:51:05.3	312.130	-0.480	0.140	0.560
2020/01/31 08:51:05.4	312.120	-0.450	0.080	0.550
2020/01/31 08:51:05.5	312.080	-0.420	0.010	0.560
2020/01/31 08:51:05.6	312.050	-0.380	-0.050	0.560
2020/01/31 08:51:05.7	312.020	-0.340	-0.120	0.560
2020/01/31 08:51:05.8	311.980	-0.300	-0.190	0.560
2020/01/31 08:51:05.9	311.950	-0.260	-0.260	0.560
2020/01/31 08:51:06.0	311.920	-0.220	-0.330	0.560
2020/01/31 08:51:06.1	311.880	-0.180	-0.400	0.560
2020/01/31 08:51:06.2	311.850	-0.130	-0.470	0.560
2020/01/31 08:51:06.3	311.820	-0.090	-0.530	0.560
2020/01/31 08:51:06.4	311.810	-0.040	-0.600	0.560
2020/01/31 08:51:06.5	311.780	0.000	-0.670	0.560
2020/01/31 08:51:06.6	311.750	0.050	-0.730	0.560
2020/01/31 08:51:06.7	311.730	0.090	-0.800	0.550
2020/01/31 08:51:06.8	311.710	0.140	-0.860	0.550
2020/01/31 08:51:06.9	311.680	0.180	-0.920	0.540
2020/01/31 08:51:07.0	311.670	0.220	-0.980	0.530
2020/01/31 08:51:07.1	311.650	0.260	-1.040	0.520
2020/01/31 08:51:07.2	311.640	0.300	-1.090	0.510
2020/01/31 08:51:07.3	311.630	0.340	-1.140	0.500
2020/01/31 08:51:07.4	311.620	0.380	-1.190	0.490
2020/01/31 08:51:07.5	311.610	0.410	-1.230	0.480
2020/01/31 08:51:07.6	311.610	0.450	-1.270	0.470
2020/01/31 08:51:07.7	311.610	0.480	-1.310	0.460
2020/01/31 08:51:07.8	311.610	0.510	-1.340	0.440
2020/01/31 08:51:07.9	311.610	0.540	-1.370	0.430
2020/01/31 08:51:08.0	311.620	0.560	-1.400	0.420
2020/01/31 08:51:08.1	311.630	0.590	-1.410	0.410
2020/01/31 08:51:08.2	311.640	0.610	-1.430	0.390
2020/01/31 08:51:08.3	311.660	0.630	-1.440	0.380
2020/01/31 08:51:08.4	311.690	0.640	-1.440	0.370
2020/01/31 08:51:08.5	311.710	0.660	-1.440	0.360
2020/01/31 08:51:08.6	311.730	0.670	-1.440	0.350
2020/01/31 08:51:08.7	311.760	0.680	-1.430	0.350
2020/01/31 08:51:08.8	311.780	0.680	-1.410	0.340
2020/01/31 08:51:08.9	311.810	0.690	-1.390	0.340
2020/01/31 08:51:09.0	311.830	0.690	-1.360	0.330
2020/01/31 08:51:09.1	311.860	0.690	-1.330	0.330
2020/01/31 08:51:09.2	311.880	0.690	-1.300	0.340
2020/01/31 08:51:09.3	311.910	0.680	-1.260	0.340
2020/01/31 08:51:09.4	311.960	0.680	-1.210	0.350
2020/01/31 08:51:09.5	311.980	0.670	-1.160	0.360
2020/01/31 08:51:09.6	312.010	0.660	-1.110	0.370
2020/01/31 08:51:09.7	312.040	0.650	-1.050	0.380
2020/01/31 08:51:09.8	312.060	0.630	-1.000	0.400
2020/01/31 08:51:09.9	312.090	0.620	-0.930	0.410
2020/01/31 08:51:10.0	312.110	0.600	-0.870	0.430
2020/01/31 08:51:10.1	312.130	0.580	-0.810	0.450
2020/01/31 08:51:10.2	312.150	0.560	-0.750	0.470
2020/01/31 08:51:10.3	312.180	0.540	-0.690	0.480
2020/01/31 08:51:10.4	312.210	0.510	-0.620	0.500
2020/01/31 08:51:10.5	312.230	0.490	-0.560	0.520
2020/01/31 08:51:10.6	312.250	0.470	-0.500	0.540
2020/01/31 08:51:10.7	312.280	0.440	-0.440	0.550
2020/01/31 08:51:10.8	312.300	0.410	-0.380	0.560
2020/01/31 08:51:10.9	312.320	0.390	-0.320	0.580
2020/01/31 08:51:11.0	312.340	0.360	-0.270	0.590
2020/01/31 08:51:11.1	312.360	0.340	-0.220	0.590
2020/01/31 08:51:11.2	312.380	0.310	-0.170	0.600
2020/01/31 08:51:11.3	312.400	0.280	-0.120	0.600
2020/01/31 08:51:11.4	312.420	0.250	-0.080	0.600
2020/01/31 08:51:11.5	312.450	0.230	-0.040	0.600
2020/01/31 08:51:11.6	312.470	0.200	0.000	0.600
2020/01/31 08:51:11.7	312.490	0.180	0.040	0.590
2020/01/31 08:51:11.8	312.520	0.150	0.080	0.590
2020/01/31 08:51:11.9	312.540	0.120	0.110	0.580
2020/01/31 08:51:12.0	312.560	0.100	0.140	0.570
2020/01/31 08:51:12.1	312.590	0.070	0.170	0.560
2020/01/31 08:51:12.2	312.610	0.050	0.200	0.540
2020/01/31 08:51:12.3	312.640	0.020	0.230	0.530
2020/01/31 08:51:12.4	312.660	-0.000	0.250	0.520
2020/01/31 08:51:12.5	312.680	-0.030	0.280	0.500
2020/01/31 08:51:12.6	312.700	-0.050	0.310	0.480
2020/01/31 08:51:12.7	312.720	-0.070	0.330	0.470
2020/01/31 08:51:12.8	312.740	-0.100	0.360	0.450
2020/01/31 08:51:12.9	312.760	-0.120	0.380	0.430
2020/01/31 08:51:13.0	312.780	-0.150	0.410	0.410
2020/01/31 08:51:13.1	312.790	-0.170	0.430	0.390
2020/01/31 08:51:13.2	312.810	-0.190	0.460	0.370
2020/01/31 08:51:13.3	312.820	-0.210	0.480	0.360
2020/01/31 08:51:13.4	312.820	-0.230	0.510	0.340
2020/01/31 08:51:13.5	312.830	-0.260	0.530	0.320
2020/01/31 08:51:13.6	312.830	-0.280	0.560	0.300
2020/01/31 08:51:13.7	312.830	-0.300	0.580	0.290
2020/01/31 08:51:13.8	312.830	-0.320	0.610	0.280
2020/01/31 08:51:13.9	312.830	-0.330	0.630	0.260
2020/01/31 08:51:14.0	312.820	-0.350	0.660	0.250
2020/01/31 08:51:14.1	312.810	-0.370	0.680	0.240
2020/01/31 08:51:14.2	312.800	-0.390	0.700	0.230
2020/01/31 08:51:14.3	312.790	-0.400	0.730	0.220
2020/01/31 08:51:14.4	312.770	-0.420	0.740	0.210
2020/01/31 08:51:14.5	312.750	-0.430	0.770	0.200
2020/01/31 08:51:14.6	312.730	-0.440	0.780	0.190
2020/01/31 08:51:14.7	312.710	-0.450	0.800	0.180
2020/01/31 08:51:14.8	312.680	-0.460	0.810	0.180
2020/01/31 08:51:14.9	312.650	-0.470	0.830	0.170
2020/01/31 08:51:15.0	312.630	-0.480	0.840	0.160
2020/01/31 08:51:15.1	312.600	-0.480	0.840	0.150
2020/01/31 08:51:15.2	312.560	-0.480	0.840	0.140
2020/01/31 08:51:15.3	312.530	-0.490	0.840	0.130
2020/01/31 08:51:15.4	312.490	-0.490	0.840	0.120
2020/01/31 08:51:15.5	312.450	-0.490	0.830	0.110
2020/01/31 08:51:15.6	312.410	-0.480	0.820	0.100
2020/01/31 08:51:15.7	312.370	-0.480	0.810	0.090
2020/01/31 08:51:15.8	312.320	-0.470	0.790	0.080
2020/01/31 08:51:15.9	312.280	-0.470	0.770	0.070
2020/01/31 08:51:16.0	312.240	-0.460	0.740	0.050
2020/01/31 08:51:16.1	312.190	-0.450	0.710	0.040
2020/01/31 08:51:16.2	312.150	-0.440	0.680	0.030
2020/01/31 08:51:16.3	312.100	-0.420	0.640	0.010
2020/01/31 08:51:16.4	312.050	-0.410	0.590	-0.010
2020/01/31 08:51:16.5	312.000	-0.400	0.550	-0.020
2020/01/31 08:51:16.6	311.960	-0.380	0.500	-0.030
2020/01/31 08:51:16.7	311.920	-0.360	0.440	-0.050
2020/01/31 08:51:16.8	311.880	-0.340	0.390	-0.060
2020/01/31 08:51:16.9	311.830	-0.320	0.330	-0.070
2020/01/31 08:51:17.0	311.790	-0.300	0.260	-0.080
2020/01/31 08:51:17.1	311.760	-0.280	0.200	-0.090
2020/01/31 08:51:17.2	311.720	-0.250	0.130	-0.100
2020/01/31 08:51:17.3	311.680	-0.230	0.060	-0.110
2020/01/31 08:51:17.4	311.650	-0.200	-0.020	-0.120
2020/01/31 08:51:17.5	311.610	-0.180	-0.090	-0.130
2020/01/31 08:51:17.6	311.580	-0.150	-0.160	-0.140
2020/01/31 08:51:17.7	311.550	-0.120	-0.240	-0.150
2020/01/31 08:51:17.8	311.530	-0.090	-0.310	-0.160
2020/01/31 08:51:17.9	311.500	-0.060	-0.390	-0.160
2020/01/31 08:51:18.0	311.480	-0.030	-0.460	-0.170
2020/01/31 08:51:18.1	311.460	-0.000	-0.540	-0.170
2020/01/31 08:51:18.2	311.440	0.030	-0.610	-0.180
2020/01/31 08:51:18.3	311.420	0.060	-0.680	-0.180
2020/01/31 08:51:18.4	311.400	0.090	-0.750	-0.180
2020/01/31 08:51:18.5	311.390	0.120	-0.810	-0.170
2020/01/31 08:51:18.6	311.380	0.150	-0.870	-0.170
2020/01/31 08:51:18.7	311.370	0.170	-0.930	-0.160
2020/01/31 08:51:18.8	311.360	0.200	-0.990	-0.150
2020/01/31 08:51:18.9	311.350	0.230	-1.040	-0.140
2020/01/31 08:51:19.0	311.350	0.250	-1.090	-0.120
2020/01/31 08:51:19.1	311.350	0.280	-1.130	-0.110
2020/01/31 08:51:19.2	311.350	0.300	-1.180	-0.090
2020/01/31 08:51:19.3	311.350	0.320	-1.210	-0.070
2020/01/31 08:51:19.4	311.370	0.340	-1.240	-0.040
2020/01/31 08:51:19.5	311.370	0.360	-1.270	-0.020
2020/01/31 08:51:19.6	311.370	0.370	-1.290	0.010
2020/01/31 08:51:19.7	311.380	0.380	-1.310	0.040
2020/01/31 08:51:19.8	311.380	0.390	-1.320	0.060
2020/01/31 08:51:19.9	311.390	0.400	-1.330	0.090
2020/01/31 08:51:20.0	311.400	0.410	-1.340	0.120
2020/01/31 08:51:20.1	311.410	0.410	-1.340	0.150
2020/01/31 08:51:20.2	311.430	0.410	-1.340	0.180
2020/01/31 08:51:20.3	311.440	0.410	-1.340	0.210
2020/01/31 08:51:20.4	311.460	0.400	-1.330	0.250
2020/01/31 08:51:20.5	311.480	0.400	-1.320	0.270
2020/01/31 08:51:20.6	311.500	0.390	-1.300	0.300
2020/01/31 08:51:20.7	311.520	0.370	-1.290	0.330
2020/01/31 08:51:20.8	311.550	0.360	-1.270	0.360
2020/01/31 08:51:20.9	311.570	0.350	-1.250	0.380
2020/01/31 08:51:21.0	311.600	0.330	-1.230	0.410
2020/01/31 08:51:21.1	311.630	0.310	-1.210	0.430
2020/01/31 08:51:21.2	311.660	0.290	-1.190	0.450
2020/01/31 08:51:21.3	311.690	0.270	-1.160	0.470
2020/01/31 08:51:21.4	311.710	0.250	-1.140	0.490
2020/01/31 08:51:21.5	311.740	0.220	-1.120	0.500
2020/01/31 08:51:21.6	311.780	0.200	-1.090	0.520
2020/01/31 08:51:21.7	311.810	0.180	-1.070	0.530
2020/01/31 08:51:21.8	311.850	0.150	-1.040	0.540
2020/01/31 08:51:21.9	311.890	0.130	-1.020	0.550
2020/01/31 08:51:22.0	311.930	0.100	-0.990	0.560
2020/01/31 08:51:22.1	311.970	0.080	-0.970	0.560
2020/01/31 08:51:22.2	312.010	0.060	-0.950	0.570
2020/01/31 08:51:22.3	312.050	0.040	-0.920	0.570
2020/01/31 08:51:22.4	312.080	0.010	-0.900	0.570
2020/01/31 08:51:22.5	312.130	-0.010	-0.870	0.560
2020/01/31 08:51:22.6	312.170	-0.020	-0.850	0.560
2020/01/31 08:51:22.7	312.220	-0.040	-0.820	0.550
2020/01/31 08:51:22.8	312.270	-0.060	-0.800	0.540
2020/01/31 08:51:22.9	312.310	-0.070	-0.780	0.530
2020/01/31 08:51:23.0	312.360	-0.080	-0.750	0.510
2020/01/31 08:51:23.1	312.410	-0.100	-0.720	0.500
2020/01/31 08:51:23.2	312.450	-0.110	-0.700	0.480
2020/01/31 08:51:23.3	312.500	-0.110	-0.670	0.460
2020/01/31 08:51:23.4	312.530	-0.120	-0.640	0.440
2020/01/31 08:51:23.5	312.570	-0.130	-0.610	0.420
2020/01/31 08:51:23.6	312.620	-0.130	-0.580	0.400
2020/01/31 08:51:23.7	312.660	-0.140	-0.540	0.380
2020/01/31 08:51:23.8	312.710	-0.140	-0.510	0.350
2020/01/31 08:51:23.9	312.750	-0.140	-0.470	0.330
2020/01/31 08:51:24.0	312.790	-0.140	-0.430	0.310
2020/01/31 08:51:24.1	312.830	-0.150	-0.390	0.290
2020/01/31 08:51:24.2	312.870	-0.150	-0.340	0.270
2020/01/31 08:51:24.3	312.900	-0.150	-0.300	0.250
2020/01/31 08:51:24.4	312.920	-0.150	-0.250	0.230
2020/01/31 08:51:24.5	312.950	-0.150	-0.200	0.210
2020/01/31 08:51:24.6	312.970	-0.150	-0.150	0.200
2020/01/31 08:51:24.7	313.000	-0.150	-0.090	0.190
2020/01/31 08:51:24.8	313.010	-0.160	-0.040	0.180
2020/01/31 08:51:24.9	313.030	-0.160	0.020	0.170
2020/01/31 08:51:25.0	313.040	-0.170	0.080	0.160
2020/01/31 08:51:25.1	313.040	-0.170	0.140	0.160
2020/01/31 08:51:25.2	313.040	-0.180	0.200	0.160
2020/01/31 08:51:25.3	313.040	-0.180	0.260	0.160
2020/01/31 08:51:25.4	313.040	-0.190	0.330	0.170
2020/01/31 08:51:25.5	313.030	-0.200	0.390	0.170
2020/01/31 08:51:25.6	313.020	-0.210	0.450	0.180
2020/01/31 08:51:25.7	313.000	-0.220	0.520	0.190
2020/01/31 08:51:25.8	312.980	-0.230	0.580	0.200
2020/01/31 08:51:25.9	312.960	-0.250	0.640	0.210
2020/01/31 08:51:26.0	312.940	-0.260	0.700	0.230
2020/01/31 08:51:26.1	312.910	-0.270	0.760	0.240
2020/01/31 08:51:26.2	312.890	-0.280	0.810	0.260
2020/01/31 08:51:26.3	312.860	-0.290	0.860	0.280
2020/01/31 08:51:26.4	312.820	-0.310	0.910	0.290
2020/01/31 08:51:26.5	312.780	-0.320	0.950	0.310
2020/01/31 08:51:26.6	312.750	-0.330	0.990	0.330
2020/01/31 08:51:26.7	312.710	-0.340	1.030	0.350
2020/01/31 08:51:26.8	312.670	-0.350	1.060	0.370
2020/01/31 08:51:26.9	312.640	-0.350	1.090	0.380
2020/01/31 08:51:27.0	312.600	-0.360	1.110	0.400
2020/01/31 08:51:27.1	312.560	-0.360	1.120	0.420
2020/01/31 08:51:27.2	312.520	-0.360	1.130	0.440
2020/01/31 08:51:27.3	312.480	-0.360	1.140	0.450
2020/01/31 08:51:27.4	312.440	-0.360	1.140	0.460
2020/01/31 08:51:27.5	312.390	-0.350	1.140	0.480
2020/01/31 08:51:27.6	312.350	-0.340	1.130	0.490
2020/01/31 08:51:27.7	312.310	-0.330	1.120	0.510
2020/01/31 08:51:27.8	312.270	-0.320	1.100	0.520
2020/01/31 08:51:27.9	312.220	-0.300	1.070	0.540
2020/01/31 08:51:28.0	312.180	-0.280	1.050	0.550
2020/01/31 08:51:28.1	312.140	-0.260	1.020	0.570
2020/01/31 08:51:28.2	312.090	-0.240	0.980	0.580
2020/01/31 08:51:28.3	312.050	-0.220	0.940	0.590
2020/01/31 08:51:28.4	312.010	-0.190	0.900	0.600
2020/01/31 08:51:28.5	311.960	-0.160	0.850	0.620
2020/01/31 08:51:28.6	311.920	-0.130	0.800	0.620
2020/01/31 08:51:28.7	311.880	-0.100	0.740	0.630
2020/01/31 08:51:28.8	311.830	-0.060	0.690	0.640
2020/01/31 08:51:28.9	311.790	-0.030	0.620	0.650
2020/01/31 08:51:29.0	311.750	0.010	0.560	0.650
2020/01/31 08:51:29.1	311.710	0.040	0.490	0.650
2020/01/31 08:51:29.2	311.680	0.080	0.420	0.650
2020/01/31 08:51:29.3	311.640	0.120	0.350	0.650
2020/01/31 08:51:29.4	311.610	0.150	0.280	0.640
2020/01/31 08:51:29.5	311.580	0.190	0.200	0.640
2020/01/31 08:51:29.6	311.560	0.230	0.120	0.630
2020/01/31 08:51:29.7	311.530	0.260	0.040	0.610
2020/01/31 08:51:29.8	311.510	0.290	-0.040	0.600
2020/01/31 08:51:29.9	311.500	0.330	-0.130	0.580
2020/01/31 08:51:30.0	311.490	0.360	-0.210	0.550
2020/01/31 08:51:30.1	311.480	0.390	-0.300	0.530
2020/01/31 08:51:30.2	311.470	0.410	-0.380	0.500
2020/01/31 08:51:30.3	311.460	0.440	-0.460	0.470
2020/01/31 08:51:30.4	311.460	0.460	-0.550	0.440
2020/01/31 08:51:30.5	311.460	0.490	-0.630	0.410
2020/01/31 08:51:30.6	311.470	0.500	-0.710	0.370
2020/01/31 08:51:30.7	311.470	0.520	-0.790	0.340
2020/01/31 08:51:30.8	311.470	0.530	-0.860	0.300
2020/01/31 08:51:30.9	311.480	0.550	-0.930	0.270
2020/01/31 08:51:31.0	311.490	0.550	-0.990	0.240
2020/01/31 08:51:31.1	311.500	0.560	-1.050	0.200
2020/01/31 08:51:31.2	311.510	0.560	-1.110	0.170
2020/01/31 08:51:31.3	311.520	0.560	-1.160	0.140
2020/01/31 08:51:31.4	311.540	0.560	-1.210	0.110
2020/01/31 08:51:31.5	311.550	0.550	-1.250	0.080
2020/01/31 08:51:31.6	311.560	0.550	-1.280	0.050
2020/01/31 08:51:31.7	311.580	0.540	-1.310	0.030
2020/01/31 08:51:31.8	311.600	0.520	-1.340	0.000
2020/01/31 08:51:31.9	311.610	0.510	-1.360	-0.020
2020/01/31 08:51:32.0	311.630	0.490	-1.370	-0.040
2020/01/31 08:51:32.1	311.650	0.470	-1.380	-0.060
2020/01/31 08:51:32.2	311.680	0.450	-1.380	-0.080
2020/01/31 08:51:32.3	311.700	0.420	-1.380	-0.100
2020/01/31 08:51:32.4	311.740	0.400	-1.380	-0.110
2020/01/31 08:51:32.5	311.770	0.370	-1.370	-0.130
2020/01/31 08:51:32.6	311.800	0.340	-1.350	-0.140
2020/01/31 08:51:32.7	311.820	0.310	-1.330	-0.160
2020/01/31 08:51:32.8	311.850	0.280	-1.310	-0.170
2020/01/31 08:51:32.9	311.880	0.250	-1.290	-0.190
2020/01/31 08:51:33.0	311.910	0.210	-1.260	-0.200
2020/01/31 08:51:33.1	311.950	0.180	-1.240	-0.210
2020/01/31 08:51:33.2	311.980	0.150	-1.210	-0.230
2020/01/31 08:51:33.3	312.010	0.110	-1.170	-0.240
2020/01/31 08:51:33.4	312.050	0.080	-1.140	-0.250
2020/01/31 08:51:33.5	312.080	0.050	-1.100	-0.260
2020/01/31 08:51:33.6	312.110	0.020	-1.070	-0.270
2020/01/31 08:51:33.7	312.150	-0.020	-1.030	-0.280
2020/01/31 08:51:33.8	312.180	-0.050	-1.000	-0.280
2020/01/31 08:51:33.9	312.210	-0.080	-0.960	-0.290
2020/01/31 08:51:34.0	312.250	-0.110	-0.930	-0.290
2020/01/31 08:51:34.1	312.280	-0.130	-0.890	-0.300
2020/01/31 08:51:34.2	312.310	-0.160	-0.860	-0.300
2020/01/31 08:51:34.3	312.340	-0.190	-0.820	-0.300
2020/01/31 08:51:34.4	312.380	-0.210	-0.790	-0.300
2020/01/31 08:51:34.5	312.410	-0.230	-0.760	-0.300
2020/01/31 08:51:34.6	312.440	-0.250	-0.730	-0.290
2020/01/31 08:51:34.7	312.470	-0.270	-0.700	-0.290
2020/01/31 08:51:34.8	312.500	-0.290	-0.670	-0.280
2020/01/31 08:51:34.9	312.520	-0.310	-0.640	-0.270
2020/01/31 08:51:35.0	312.550	-0.320	-0.610	-0.260
2020/01/31 08:51:35.1	312.570	-0.340	-0.590	-0.250
2020/01/31 08:51:35.2	312.600	-0.350	-0.560	-0.240
2020/01/31 08:51:35.3	312.620	-0.360	-0.540	-0.220
2020/01/31 08:51:35.4	312.630	-0.370	-0.520	-0.210
2020/01/31 08:51:35.5	312.650	-0.380	-0.500	-0.190
2020/01/31 08:51:35.6	312.670	-0.380	-0.470	-0.170
2020/01/31 08:51:35.7	312.690	-0.380	-0.450	-0.160
2020/01/31 08:51:35.8	312.710	-0.390	-0.430	-0.140
2020/01/31 08:51:35.9	312.720	-0.390	-0.410	-0.120
2020/01/31 08:51:36.0	312.740	-0.390	-0.380	-0.090
2020/01/31 08:51:36.1	312.750	-0.380	-0.360	-0.070
2020/01/31 08:51:36.2	312.770	-0.380	-0.330	-0.050
2020/01/31 08:51:36.3	312.780	-0.380	-0.310	-0.020
2020/01/31 08:51:36.4	312.770	-0.370	-0.270	0.000
2020/01/31 08:51:36.5	312.780	-0.360	-0.240	0.030
2020/01/31 08:51:36.6	312.790	-0.350	-0.210	0.060
2020/01/31 08:51:36.7	312.800	-0.340	-0.170	0.090
2020/01/31 08:51:36.8	312.800	-0.330	-0.140	0.120
2020/01/31 08:51:36.9	312.800	-0.320	-0.100	0.150
2020/01/31 08:51:37.0	312.800	-0.310	-0.060	0.190
2020/01/31 08:51:37.1	312.800	-0.290	-0.010	0.220
2020/01/31 08:51:37.2	312.800	-0.280	0.030	0.260
2020/01/31 08:51:37.3	312.800	-0.270	0.080	0.300
2020/01/31 08:51:37.4	312.800	-0.250	0.130	0.340
2020/01/31 08:51:37.5	312.790	-0.240	0.180	0.380
2020/01/31 08:51:37.6	312.780	-0.230	0.230	0.420
2020/01/31 08:51:37.7	312.770	-0.210	0.280	0.460
2020/01/31 08:51:37.8	312.760	-0.200	0.330	0.500
2020/01/31 08:51:37.9	312.740	-0.190	0.380	0.540
2020/01/31 08:51:38.0	312.720	-0.170	0.430	0.580
2020/01/31 08:51:38.1	312.700	-0.160	0.480	0.620
2020/01/31 08:51:38.2	312.680	-0.150	0.530	0.660
2020/01/31 08:51:38.3	312.660	-0.140	0.580	0.690
2020/01/31 08:51:38.4	312.630	-0.130	0.620	0.730
2020/01/31 08:51:38.5	312.600	-0.120	0.670	0.760
2020/01/31 08:51:38.6	312.580	-0.110	0.700	0.790
2020/01/31 08:51:38.7	312.550	-0.110	0.740	0.820
2020/01/31 08:51:38.8	312.520	-0.100	0.770	0.850
2020/01/31 08:51:38.9	312.500	-0.090	0.800	0.870
2020/01/31 08:51:39.0	312.470	-0.090	0.820	0.900
2020/01/31 08:51:39.1	312.440	-0.080	0.840	0.920
2020/01/31 08:51:39.2	312.410	-0.070	0.850	0.930
2020/01/31 08:51:39.3	312.380	-0.070	0.860	0.950
2020/01/31 08:51:39.4	312.360	-0.060	0.860	0.960
2020/01/31 08:51:39.5	312.330	-0.060	0.860	0.970
2020/01/31 08:51:39.6	312.310	-0.050	0.850	0.970
2020/01/31 08:51:39.7	312.280	-0.050	0.840	0.980
2020/01/31 08:51:39.8	312.250	-0.040	0.820	0.970
2020/01/31 08:51:39.9	312.220	-0.040	0.800	0.970
2020/01/31 08:51:40.0	312.190	-0.030	0.770	0.960
2020/01/31 08:51:40.1	312.170	-0.030	0.740	0.950
2020/01/31 08:51:40.2	312.140	-0.020	0.700	0.930
2020/01/31 08:51:40.3	312.120	-0.010	0.660	0.910
2020/01/31 08:51:40.4	312.110	-0.010	0.610	0.880
2020/01/31 08:51:40.5	312.080	0.000	0.550	0.850
2020/01/31 08:51:40.6	312.060	0.010	0.500	0.830
2020/01/31 08:51:40.7	312.040	0.020	0.440	0.790
2020/01/31 08:51:40.8	312.030	0.030	0.380	0.760
2020/01/31 08:51:40.9	312.010	0.040	0.310	0.720
2020/01/31 08:51:41.0	312.000	0.050	0.250	0.680
2020/01/31 08:51:41.1	311.990	0.060	0.180	0.640
2020/01/31 08:51:41.2	311.970	0.080	0.110	0.600
2020/01/31 08:51:41.3	311.970	0.090	0.030	0.550
2020/01/31 08:51:41.4	311.980	0.100	-0.040	0.510
2020/01/31 08:51:41.5	311.980	0.110	-0.120	0.460
2020/01/31 08:51:41.6	311.970	0.120	-0.190	0.410
2020/01/31 08:51:41.7	311.970	0.130	-0.260	0.360
2020/01/31 08:51:41.8	311.970	0.140	-0.340	0.310
2020/01/31 08:51:41.9	311.970	0.150	-0.410	0.260
2020/01/31 08:51:42.0	311.970	0.160	-0.470	0.210
2020/01/31 08:51:42.1	311.980	0.170	-0.540	0.160
2020/01/31 08:51:42.2	311.980	0.170	-0.600	0.110
2020/01/31 08:51:42.3	311.990	0.180	-0.660	0.060
2020/01/31 08:51:42.4	311.980	0.180	-0.720	0.010
2020/01/31 08:51:42.5	311.990	0.180	-0.780	-0.040
2020/01/31 08:51:42.6	312.000	0.180	-0.830	-0.090
2020/01/31 08:51:42.7	312.010	0.180	-0.870	-0.130
2020/01/31 08:51:42.8	312.030	0.180	-0.920	-0.180
2020/01/31 08:51:42.9	312.040	0.180	-0.950	-0.220
2020/01/31 08:51:43.0	312.060	0.170	-0.990	-0.260
2020/01/31 08:51:43.1	312.080	0.170	-1.020	-0.300
2020/01/31 08:51:43.2	312.100	0.160	-1.040	-0.340
2020/01/31 08:51:43.3	312.120	0.150	-1.060	-0.380
2020/01/31 08:51:43.4	312.140	0.150	-1.080	-0.410
2020/01/31 08:51:43.5	312.170	0.140	-1.090	-0.440
2020/01/31 08:51:43.6	312.200	0.130	-1.100	-0.470
2020/01/31 08:51:43.7	312.220	0.120	-1.100	-0.500
2020/01/31 08:51:43.8	312.250	0.100	-1.100	-0.530
2020/01/31 08:51:43.9	312.280	0.090	-1.090	-0.550
2020/01/31 08:51:44.0	312.310	0.080	-1.080	-0.570
2020/01/31 08:51:44.1	312.340	0.070	-1.070	-0.590
2020/01/31 08:51:44.2	312.370	0.060	-1.050	-0.600
2020/01/31 08:51:44.3	312.390	0.050	-1.030	-0.610
2020/01/31 08:51:44.4	312.430	0.040	-1.010	-0.620
2020/01/31 08:51:44.5	312.460	0.030	-0.980	-0.630
2020/01/31 08:51:44.6	312.490	0.020	-0.950	-0.630
2020/01/31 08:51:44.7	312.510	0.010	-0.920	-0.620
2020/01/31 08:51:44.8	312.540	0.000	-0.890	-0.620
2020/01/31 08:51:44.9	312.560	-0.000	-0.850	-0.600
2020/01/31 08:51:45.0	312.580	-0.010	-0.810	-0.590
2020/01/31 08:51:45.1	312.600	-0.010	-0.780	-0.560
2020/01/31 08:51:45.2	312.620	-0.010	-0.740	-0.540
2020/01/31 08:51:45.3	312.640	-0.010	-0.700	-0.510
2020/01/31 08:51:45.4	312.670	-0.010	-0.660	-0.480
2020/01/31 08:51:45.5	312.690	-0.010	-0.630	-0.440
2020/01/31 08:51:45.6	312.700	-0.000	-0.590	-0.410
2020/01/31 08:51:45.7	312.710	0.000	-0.560	-0.370
2020/01/31 08:51:45.8	312.720	0.010	-0.530	-0.330
2020/01/31 08:51:45.9	312.730	0.020	-0.500	-0.300
2020/01/31 08:51:46.0	312.740	0.030	-0.470	-0.260
2020/01/31 08:51:46.1	312.750	0.040	-0.450	-0.220
2020/01/31 08:51:46.2	312.760	0.050	-0.420	-0.180
2020/01/31 08:51:46.3	312.770	0.070	-0.400	-0.140
2020/01/31 08:51:46.4	312.770	0.080	-0.380	-0.100
2020/01/31 08:51:46.5	312.780	0.100	-0.370	-0.070
2020/01/31 08:51:46.6	312.790	0.110	-0.350	-0.030
2020/01/31 08:51:46.7	312.790	0.130	-0.340	0.000
2020/01/31 08:51:46.8	312.800	0.140	-0.320	0.030
2020/01/31 08:51:46.9	312.800	0.160	-0.310	0.060
2020/01/31 08:51:47.0	312.800	0.180	-0.300	0.090
2020/01/31 08:51:47.1	312.810	0.190	-0.290	0.120
2020/01/31 08:51:47.2	312.810	0.210	-0.270	0.150
2020/01/31 08:51:47.3	312.810	0.220	-0.260	0.170
2020/01/31 08:51:47.4	312.810	0.230	-0.240	0.190
2020/01/31 08:51:47.5	312.810	0.240	-0.230	0.210
2020/01/31 08:51:47.6	312.810	0.250	-0.210	0.230
2020/01/31 08:51:47.7	312.810	0.260	-0.190	0.250
2020/01/31 08:51:47.8	312.810	0.270	-0.170	0.260
2020/01/31 08:51:47.9	312.810	0.270	-0.150	0.280
2020/01/31 08:51:48.0	312.810	0.270	-0.130	0.290
2020/01/31 08:51:48.1	312.810	0.270	-0.100	0.310
2020/01/31 08:51:48.2	312.810	0.270	-0.070	0.320
2020/01/31 08:51:48.3	312.810	0.260	-0.040	0.330
2020/01/31 08:51:48.4	312.800	0.250	-0.010	0.340
2020/01/31 08:51:48.5	312.790	0.240	0.030	0.360
2020/01/31 08:51:48.6	312.790	0.220	0.060	0.370
2020/01/31 08:51:48.7	312.780	0.200	0.100	0.380
2020/01/31 08:51:48.8	312.770	0.180	0.140	0.390
2020/01/31 08:51:48.9	312.760	0.160	0.190	0.400
2020/01/31 08:51:49.0	312.750	0.130	0.230	0.410
2020/01/31 08:51:49.1	312.730	0.100	0.270	0.420
2020/01/31 08:51:49.2	312.720	0.070	0.320	0.430
2020/01/31 08:51:49.3	312.710	0.040	0.360	0.440
2020/01/31 08:51:49.4	312.700	0.010	0.400	0.450
2020/01/31 08:51:49.5	312.680	-0.030	0.440	0.450
2020/01/31 08:51:49.6	312.670	-0.060	0.480	0.450
2020/01/31 08:51:49.7	312.650	-0.100	0.520	0.450
2020/01/31 08:51:49.8	312.640	-0.140	0.550	0.440
2020/01/31 08:51:49.9	312.620	-0.180	0.580	0.430
2020/01/31 08:51:50.0	312.610	-0.210	0.610	0.430
2020/01/31 08:51:50.1	312.600	-0.250	0.630	0.410
2020/01/31 08:51:50.2	312.580	-0.290	0.640	0.400
2020/01/31 08:51:50.3	312.570	-0.320	0.650	0.380
2020/01/31 08:51:50.4	312.570	-0.350	0.660	0.360
2020/01/31 08:51:50.5	312.560	-0.380	0.660	0.340
2020/01/31 08:51:50.6	312.550	-0.410	0.650	0.320
2020/01/31 08:51:50.7	312.540	-0.430	0.640	0.300
2020/01/31 08:51:50.8	312.540	-0.460	0.620	0.290
2020/01/31 08:51:50.9	312.530	-0.480	0.600	0.260
2020/01/31 08:51:51.0	312.530	-0.490	0.570	0.240
2020/01/31 08:51:51.1	312.530	-0.500	0.540	0.220
2020/01/31 08:51:51.2	312.530	-0.510	0.500	0.200
2020/01/31 08:51:51.3	312.520	-0.520	0.460	0.180
2020/01/31 08:51:51.4	312.520	-0.520	0.410	0.160
2020/01/31 08:51:51.5	312.510	-0.510	0.350	0.150
2020/01/31 08:51:51.6	312.510	-0.510	0.300	0.130
2020/01/31 08:51:51.7	312.510	-0.500	0.230	0.110
2020/01/31 08:51:51.8	312.510	-0.480	0.170	0.100
2020/01/31 08:51:51.9	312.510	-0.460	0.100	0.080
2020/01/31 08:51:52.0	312.510	-0.440	0.040	0.070
2020/01/31 08:51:52.1	312.500	-0.420	-0.040	0.050
2020/01/31 08:51:52.2	312.500	-0.390	-0.110	0.040
2020/01/31 08:51:52.3	312.490	-0.360	-0.180	0.030
2020/01/31 08:51:52.4	312.470	-0.330	-0.260	0.020
2020/01/31 08:51:52.5	312.460	-0.290	-0.330	0.020
2020/01/31 08:51:52.6	312.460	-0.250	-0.400	0.010
2020/01/31 08:51:52.7	312.450	-0.220	-0.470	0.010
2020/01/31 08:51:52.8	312.440	-0.180	-0.540	0.010
2020/01/31 08:51:52.9	312.430	-0.130	-0.600	0.010
2020/01/31 08:51:53.0	312.420	-0.090	-0.670	0.010
2020/01/31 08:51:53.1	312.410	-0.050	-0.730	0.010
2020/01/31 08:51:53.2	312.400	-0.010	-0.780	0.020
2020/01/31 08:51:53.3	312.390	0.030	-0.830	0.020
2020/01/31 08:51:53.4	312.360	0.070	-0.880	0.030
2020/01/31 08:51:53.5	312.350	0.110	-0.920	0.040
2020/01/31 08:51:53.6	312.330	0.150	-0.960	0.060
2020/01/31 08:51:53.7	312.320	0.190	-0.990	0.070
2020/01/31 08:51:53.8	312.300	0.220	-1.020	0.090
2020/01/31 08:51:53.9	312.280	0.250	-1.050	0.110
2020/01/31 08:51:54.0	312.270	0.280	-1.060	0.130
2020/01/31 08:51:54.1	312.250	0.310	-1.080	0.150
2020/01/31 08:51:54.2	312.230	0.330	-1.080	0.170
2020/01/31 08:51:54.3	312.220	0.350	-1.090	0.190
2020/01/31 08:51:54.4	312.220	0.370	-1.080	0.220
2020/01/31 08:51:54.5	312.200	0.380	-1.080	0.250
2020/01/31 08:51:54.6	312.190	0.390	-1.070	0.270
2020/01/31 08:51:54.7	312.170	0.400	-1.050	0.290
2020/01/31 08:51:54.8	312.160	0.410	-1.030	0.310
2020/01/31 08:51:54.9	312.150	0.400	-1.010	0.330
2020/01/31 08:51:55.0	312.140	0.400	-0.990	0.350
2020/01/31 08:51:55.1	312.140	0.390	-0.960	0.360
2020/01/31 08:51:55.2	312.130	0.380	-0.930	0.380
2020/01/31 08:51:55.3	312.130	0.370	-0.890	0.390
2020/01/31 08:51:55.4	312.130	0.360	-0.860	0.390
2020/01/31 08:51:55.5	312.130	0.340	-0.820	0.400
2020/01/31 08:51:55.6	312.140	0.320	-0.780	0.400
2020/01/31 08:51:55.7	312.140	0.290	-0.740	0.400
2020/01/31 08:51:55.8	312.150	0.270	-0.700	0.400
2020/01/31 08:51:55.9	312.160	0.240	-0.650	0.390
2020/01/31 08:51:56.0	312.170	0.210	-0.610	0.380
2020/01/31 08:51:56.1	312.190	0.180	-0.560	0.370
2020/01/31 08:51:56.2	312.200	0.150	-0.520	0.360
2020/01/31 08:51:56.3	312.220	0.120	-0.470	0.350
2020/01/31 08:51:56.4	312.240	0.090	-0.430	0.330
2020/01/31 08:51:56.5	312.260	0.060	-0.380	0.320
2020/01/31 08:51:56.6	312.280	0.020	-0.340	0.300
2020/01/31 08:51:56.7	312.290	-0.010	-0.290	0.280
2020/01/31 08:51:56.8	312.310	-0.040	-0.250	0.260
2020/01/31 08:51:56.9	312.330	-0.070	-0.210	0.230
2020/01/31 08:51:57.0	312.350	-0.100	-0.170	0.210
2020/01/31 08:51:57.1	312.370	-0.130	-0.140	0.190
2020/01/31 08:51:57.2	312.390	-0.160	-0.100	0.160
2020/01/31 08:51:57.3	312.410	-0.180	-0.070	0.140
2020/01/31 08:51:57.4	312.430	-0.210	-0.040	0.110
2020/01/31 08:51:57.5	312.450	-0.230	-0.020	0.090
2020/01/31 08:51:57.6	312.480	-0.250	0.000	0.070
2020/01/31 08:51:57.7	312.500	-0.270	0.020	0.040
2020/01/31 08:51:57.8	312.520	-0.280	0.040	0.020
2020/01/31 08:51:57.9	312.540	-0.290	0.050	0.000
2020/01/31 08:51:58.0	312.560	-0.300	0.060	-0.020
2020/01/31 08:51:58.1	312.580	-0.310	0.070	-0.040
2020/01/31 08:51:58.2	312.600	-0.310	0.070	-0.060
2020/01/31 08:51:58.3	312.620	-0.310	0.070	-0.070
2020/01/31 08:51:58.4	312.630	-0.310	0.060	-0.090
2020/01/31 08:51:58.5	312.640	-0.310	0.060	-0.100
2020/01/31 08:51:58.6	312.670	-0.300	0.050	-0.120
2020/01/31 08:51:58.7	312.680	-0.300	0.030	-0.130
2020/01/31 08:51:58.8	312.700	-0.290	0.020	-0.140
2020/01/31 08:51:58.9	312.720	-0.270	0.000	-0.150
2020/01/31 08:51:59.0	312.740	-0.260	-0.010	-0.160
2020/01/31 08:51:59.1	312.760	-0.250	-0.030	-0.170
2020/01/31 08:51:59.2	312.780	-0.230	-0.050	-0.180
2020/01/31 08:51:59.3	312.790	-0.210	-0.070	-0.180
2020/01/31 08:51:59.4	312.810	-0.190	-0.090	-0.190
2020/01/31 08:51:59.5	312.820	-0.170	-0.110	-0.190
2020/01/31 08:51:59.6	312.830	-0.150	-0.130	-0.190
2020/01/31 08:51:59.7	312.850	-0.130	-0.140	-0.190
2020/01/31 08:51:59.8	312.860	-0.110	-0.160	-0.190
2020/01/31 08:51:59.9	312.870	-0.090	-0.170	-0.190
2020/01/31 08:52:00.0	312.880	-0.070	-0.180	-0.180
2020/01/31 08:52:00.1	312.880	-0.050	-0.190	-0.180
2020/01/31 08:52:00.2	312.890	-0.030	-0.190	-0.170
2020/01/31 08:52:00.3	312.890	-0.010	-0.200	-0.160
2020/01/31 08:52:00.4	312.880	0.010	-0.190	-0.150
2020/01/31 08:52:00.5	312.880	0.030	-0.190	-0.130
2020/01/31 08:52:00.6	312.880	0.040	-0.180	-0.110
2020/01/31 08:52:00.7	312.880	0.060	-0.170	-0.090
2020/01/31 08:52:00.8	312.870	0.070	-0.150	-0.070
2020/01/31 08:52:00.9	312.860	0.080	-0.130	-0.040
2020/01/31 08:52:01.0	312.850	0.090	-0.110	-0.010
2020/01/31 08:52:01.1	312.840	0.100	-0.080	0.020
2020/01/31 08:52:01.2	312.820	0.110	-0.060	0.050
2020/01/31 08:52:01.3	312.810	0.110	-0.030	0.090
2020/01/31 08:52:01.4	312.790	0.110	0.010	0.130
2020/01/31 08:52:01.5	312.770	0.120	0.040	0.170
2020/01/31 08:52:01.6	312.750	0.110	0.080	0.210
2020/01/31 08:52:01.7	312.730	0.110	0.110	0.250
2020/01/31 08:52:01.8	312.710	0.110	0.150	0.300
2020/01/31 08:52:01.9	312.680	0.100	0.180	0.340
2020/01/31 08:52:02.0	312.650	0.100	0.220	0.380
2020/01/31 08:52:02.1	312.630	0.090	0.260	0.420
2020/01/31 08:52:02.2	312.600	0.080	0.290	0.470
2020/01/31 08:52:02.3	312.570	0.070	0.320	0.500
2020/01/31 08:52:02.4	312.550	0.060	0.350	0.540
2020/01/31 08:52:02.5	312.520	0.060	0.380	0.580
2020/01/31 08:52:02.6	312.490	0.050	0.400	0.610
2020/01/31 08:52:02.7	312.450	0.040	0.420	0.640
2020/01/31 08:52:02.8	312.420	0.030	0.440	0.670
2020/01/31 08:52:02.9	312.390	0.020	0.450	0.700
2020/01/31 08:52:03.0	312.360	0.010	0.460	0.730
2020/01/31 08:52:03.1	312.320	0.010	0.470	0.750
2020/01/31 08:52:03.2	312.290	0.000	0.470	0.770
2020/01/31 08:52:03.3	312.260	-0.000	0.470	0.790
2020/01/31 08:52:03.4	312.230	-0.000	0.460	0.800
2020/01/31 08:52:03.5	312.200	-0.000	0.460	0.810
2020/01/31 08:52:03.6	312.160	-0.000	0.440	0.830
2020/01/31 08:52:03.7	312.130	0.000	0.430	0.830
2020/01/31 08:52:03.8	312.100	0.010	0.410	0.840
2020/01/31 08:52:03.9	312.070	0.010	0.380	0.850
2020/01/31 08:52:04.0	312.040	0.020	0.360	0.850
2020/01/31 08:52:04.1	312.010	0.030	0.330	0.850
2020/01/31 08:52:04.2	311.980	0.050	0.290	0.850
2020/01/31 08:52:04.3	311.950	0.060	0.260	0.850
2020/01/31 08:52:04.4	311.940	0.070	0.220	0.850
2020/01/31 08:52:04.5	311.910	0.090	0.170	0.840
2020/01/31 08:52:04.6	311.890	0.110	0.130	0.830
2020/01/31 08:52:04.7	311.860	0.130	0.080	0.820
2020/01/31 08:52:04.8	311.840	0.150	0.030	0.810
2020/01/31 08:52:04.9	311.830	0.160	-0.030	0.790
2020/01/31 08:52:05.0	311.810	0.180	-0.080	0.770
2020/01/31 08:52:05.1	311.800	0.200	-0.140	0.750
2020/01/31 08:52:05.2	311.790	0.220	-0.200	0.730
2020/01/31 08:52:05.3	311.780	0.240	-0.260	0.710
2020/01/31 08:52:05.4	311.780	0.250	-0.330	0.680
2020/01/31 08:52:05.5	311.780	0.270	-0.390	0.650
2020/01/31 08:52:05.6	311.780	0.280	-0.450	0.610
2020/01/31 08:52:05.7	311.780	0.300	-0.510	0.580
2020/01/31 08:52:05.8	311.790	0.310	-0.570	0.540
2020/01/31 08:52:05.9	311.790	0.320	-0.640	0.500
2020/01/31 08:52:06.0	311.800	0.320	-0.700	0.460
2020/01/31 08:52:06.1	311.820	0.330	-0.750	0.420
2020/01/31 08:52:06.2	311.830	0.330	-0.810	0.380
2020/01/31 08:52:06.3	311.850	0.330	-0.860	0.330
2020/01/31 08:52:06.4	311.870	0.330	-0.910	0.290
2020/01/31 08:52:06.5	311.890	0.320	-0.960	0.240
2020/01/31 08:52:06.6	311.910	0.320	-1.000	0.200
2020/01/31 08:52:06.7	311.940	0.310	-1.040	0.150
2020/01/31 08:52:06.8	311.960	0.300	-1.070	0.110
2020/01/31 08:52:06.9	311.990	0.280	-1.100	0.060
2020/01/31 08:52:07.0	312.020	0.270	-1.130	0.020
2020/01/31 08:52:07.1	312.050	0.250	-1.150	-0.030
2020/01/31 08:52:07.2	312.090	0.230	-1.160	-0.070
2020/01/31 08:52:07.3	312.120	0.210	-1.170	-0.120
2020/01/31 08:52:07.4	312.160	0.190	-1.180	-0.160
2020/01/31 08:52:07.5	312.200	0.170	-1.180	-0.200
2020/01/31 08:52:07.6	312.230	0.150	-1.180	-0.240
2020/01/31 08:52:07.7	312.270	0.120	-1.160	-0.270
2020/01/31 08:52:07.8	312.300	0.100	-1.150	-0.310
2020/01/31 08:52:07.9	312.330	0.080	-1.130	-0.340
2020/01/31 08:52:08.0	312.370	0.050	-1.100	-0.370
2020/01/31 08:52:08.1	312.400	0.030	-1.070	-0.390
2020/01/31 08:52:08.2	312.430	0.000	-1.030	-0.410
2020/01/31 08:52:08.3	312.460	-0.020	-1.000	-0.430
2020/01/31 08:52:08.4	312.500	-0.040	-0.950	-0.450
2020/01/31 08:52:08.5	312.530	-0.070	-0.910	-0.460
2020/01/31 08:52:08.6	312.550	-0.090	-0.860	-0.470
2020/01/31 08:52:08.7	312.580	-0.110	-0.820	-0.480
2020/01/31 08:52:08.8	312.600	-0.130	-0.770	-0.490
2020/01/31 08:52:08.9	312.630	-0.150	-0.720	-0.490
2020/01/31 08:52:09.0	312.650	-0.160	-0.670	-0.490
2020/01/31 08:52:09.1	312.670	-0.180	-0.620	-0.490
2020/01/31 08:52:09.2	312.700	-0.190	-0.580	-0.480
2020/01/31 08:52:09.3	312.720	-0.200	-0.530	-0.480
2020/01/31 08:52:09.4	312.720	-0.210	-0.490	-0.470
2020/01/31 08:52:09.5	312.740	-0.220	-0.450	-0.460
2020/01/31 08:52:09.6	312.760	-0.230	-0.410	-0.450
2020/01/31 08:52:09.7	312.780	-0.230	-0.370	-0.430
2020/01/31 08:52:09.8	312.790	-0.240	-0.340	-0.410
2020/01/31 08:52:09.9	312.810	-0.240	-0.300	-0.400
2020/01/31 08:52:10.0	312.820	-0.240	-0.270	-0.380
2020/01/31 08:52:10.1	312.840	-0.240	-0.250	-0.350
2020/01/31 08:52:10.2	312.850	-0.240	-0.220	-0.330
2020/01/31 08:52:10.3	312.860	-0.240	-0.200	-0.310
2020/01/31 08:52:10.4	312.860	-0.230	-0.180	-0.280
2020/01/31 08:52:10.5	312.870	-0.230	-0.160	-0.260
2020/01/31 08:52:10.6	312.880	-0.220	-0.150	-0.230
2020/01/31 08:52:10.7	312.890	-0.210	-0.140	-0.200
2020/01/31 08:52:10.8	312.890	-0.200	-0.130	-0.170
2020/01/31 08:52:10.9	312.900	-0.190	-0.120	-0.140
2020/01/31 08:52:11.0	312.900	-0.180	-0.120	-0.120
2020/01/31 08:52:11.1	312.910	-0.170	-0.110	-0.090
2020/01/31 08:52:11.2	312.910	-0.160	-0.110	-0.060
2020/01/31 08:52:11.3	312.920	-0.150	-0.110	-0.030
2020/01/31 08:52:11.4	312.920	-0.140	-0.110	-0.010
2020/01/31 08:52:11.5	312.930	-0.130	-0.110	0.020
2020/01/31 08:52:11.6	312.930	-0.130	-0.110	0.050
2020/01/31 08:52:11.7	312.930	-0.120	-0.110	0.070
2020/01/31 08:52:11.8	312.920	-0.110	-0.110	0.100
2020/01/31 08:52:11.9	312.920	-0.100	-0.110	0.130
2020/01/31 08:52:12.0	312.910	-0.090	-0.100	0.160
2020/01/31 08:52:12.1	312.910	-0.090	-0.100	0.180
2020/01/31 08:52:12.2	312.900	-0.090	-0.100	0.210
2020/01/31 08:52:12.3	312.880	-0.080	-0.090	0.240
2020/01/31 08:52:12.4	312.860	-0.080	-0.080	0.270
2020/01/31 08:52:12.5	312.840	-0.080	-0.070	0.300
2020/01/31 08:52:12.6	312.820	-0.090	-0.060	0.330
2020/01/31 08:52:12.7	312.800	-0.090	-0.050	0.360
2020/01/31 08:52:12.8	312.770	-0.100	-0.030	0.390
2020/01/31 08:52:12.9	312.750	-0.110	-0.010	0.410
2020/01/31 08:52:13.0	312.720	-0.110	0.000	0.440
2020/01/31 08:52:13.1	312.690	-0.130	0.020	0.470
2020/01/31 08:52:13.2	312.660	-0.140	0.040	0.490
2020/01/31 08:52:13.3	312.630	-0.150	0.060	0.510
2020/01/31 08:52:13.4	312.590	-0.170	0.090	0.530
2020/01/31 08:52:13.5	312.550	-0.180	0.110	0.550
2020/01/31 08:52:13.6	312.520	-0.200	0.130	0.560
2020/01/31 08:52:13.7	312.490	-0.210	0.150	0.580
2020/01/31 08:52:13.8	312.460	-0.230	0.170	0.590
2020/01/31 08:52:13.9	312.430	-0.250	0.190	0.590
2020/01/31 08:52:14.0	312.400	-0.260	0.200	0.600
2020/01/31 08:52:14.1	312.370	-0.280	0.220	0.600
2020/01/31 08:52:14.2	312.340	-0.290	0.230	0.600
2020/01/31 08:52:14.3	312.310	-0.300	0.240	0.590
2020/01/31 08:52:14.4	312.300	-0.310	0.250	0.580
2020/01/31 08:52:14.5	312.280	-0.320	0.250	0.570
2020/01/31 08:52:14.6	312.260	-0.330	0.260	0.560
2020/01/31 08:52:14.7	312.240	-0.330	0.260	0.550
2020/01/31 08:52:14.8	312.220	-0.340	0.270	0.530
2020/01/31 08:52:14.9	312.200	-0.340	0.270	0.520
2020/01/31 08:52:15.0	312.180	-0.340	0.270	0.510
2020/01/31 08:52:15.1	312.170	-0.330	0.260	0.490
2020/01/31 08:52:15.2	312.150	-0.330	0.260	0.480
2020/01/31 08:52:15.3	312.140	-0.320	0.260	0.470
2020/01/31 08:52:15.4	312.130	-0.310	0.250	0.460
2020/01/31 08:52:15.5	312.120	-0.300	0.250	0.450
2020/01/31 08:52:15.6	312.110	-0.280	0.240	0.440
2020/01/31 08:52:15.7	312.090	-0.260	0.230	0.430
2020/01/31 08:52:15.8	312.080	-0.250	0.220	0.420
2020/01/31 08:52:15.9	312.060	-0.230	0.220	0.420
2020/01/31 08:52:16.0	312.050	-0.200	0.210	0.410
2020/01/31 08:52:16.1	312.040	-0.180	0.200	0.410
2020/01/31 08:52:16.2	312.030	-0.150	0.180	0.400
2020/01/31 08:52:16.3	312.020	-0.130	0.170	0.400
2020/01/31 08:52:16.4	312.010	-0.100	0.160	0.400
2020/01/31 08:52:16.5	312.000	-0.070	0.150	0.400
2020/01/31 08:52:16.6	311.990	-0.040	0.130	0.390
2020/01/31 08:52:16.7	311.990	-0.010	0.120	0.390
2020/01/31 08:52:16.8	311.980	0.020	0.100	0.380
2020/01/31 08:52:16.9	311.980	0.060	0.090	0.380
2020/01/31 08:52:17.0	311.970	0.090	0.070	0.370
2020/01/31 08:52:17.1	311.970	0.120	0.050	0.370
2020/01/31 08:52:17.2	311.970	0.160	0.030	0.360
2020/01/31 08:52:17.3	311.970	0.190	0.010	0.360
2020/01/31 08:52:17.4	311.970	0.220	-0.010	0.340
2020/01/31 08:52:17.5	311.970	0.260	-0.030	0.340
2020/01/31 08:52:17.6	311.970	0.290	-0.040	0.330
2020/01/31 08:52:17.7	311.980	0.320	-0.060	0.330
2020/01/31 08:52:17.8	311.980	0.350	-0.080	0.320
2020/01/31 08:52:17.9	311.980	0.380	-0.100	0.320
2020/01/31 08:52:18.0	311.990	0.410	-0.120	0.310
2020/01/31 08:52:18.1	312.000	0.440	-0.140	0.300
2020/01/31 08:52:18.2	312.000	0.470	-0.160	0.300
2020/01/31 08:52:18.3	312.010	0.490	-0.170	0.290
2020/01/31 08:52:18.4	311.990	0.510	-0.190	0.290
2020/01/31 08:52:18.5	312.000	0.530	-0.210	0.290
2020/01/31 08:52:18.6	312.010	0.550	-0.220	0.280
2020/01/31 08:52:18.7	312.020	0.570	-0.240	0.270
2020/01/31 08:52:18.8	312.020	0.580	-0.250	0.270
2020/01/31 08:52:18.9	312.030	0.590	-0.260	0.260
2020/01/31 08:52:19.0	312.040	0.600	-0.280	0.250
2020/01/31 08:52:19.1	312.050	0.610	-0.290	0.240
2020/01/31 08:52:19.2	312.060	0.610	-0.300	0.230
2020/01/31 08:52:19.3	312.060	0.610	-0.310	0.220
2020/01/31 08:52:19.4	312.060	0.610	-0.330	0.210
2020/01/31 08:52:19.5	312.070	0.610	-0.340	0.200
2020/01/31 08:52:19.6	312.080	0.600	-0.350	0.180
2020/01/31 08:52:19.7	312.090	0.590	-0.360	0.170
2020/01/31 08:52:19.8	312.100	0.580	-0.370	0.160
2020/01/31 08:52:19.9	312.110	0.560	-0.390	0.140
2020/01/31 08:52:20.0	312.130	0.550	-0.400	0.130
2020/01/31 08:52:20.1	312.140	0.530	-0.410	0.110
2020/01/31 08:52:20.2	312.150	0.510	-0.430	0.090
2020/01/31 08:52:20.3	312.170	0.490	-0.440	0.070
2020/01/31 08:52:20.4	312.190	0.470	-0.460	0.060
2020/01/31 08:52:20.5	312.210	0.440	-0.480	0.030
2020/01/31 08:52:20.6	312.230	0.420	-0.500	0.010
2020/01/31 08:52:20.7	312.250	0.390	-0.520	-0.010
2020/01/31 08:52:20.8	312.270	0.360	-0.550	-0.030
2020/01/31 08:52:20.9	312.290	0.330	-0.570	-0.060
2020/01/31 08:52:21.0	312.310	0.310	-0.600	-0.090
2020/01/31 08:52:21.1	312.330	0.280	-0.630	-0.110
2020/01/31 08:52:21.2	312.350	0.250	-0.650	-0.140
2020/01/31 08:52:21.3	312.380	0.220	-0.680	-0.170
2020/01/31 08:52:21.4	312.390	0.190	-0.710	-0.190
2020/01/31 08:52:21.5	312.410	0.160	-0.740	-0.220
2020/01/31 08:52:21.6	312.430	0.130	-0.770	-0.250
2020/01/31 08:52:21.7	312.460	0.110	-0.800	-0.280
2020/01/31 08:52:21.8	312.480	0.080	-0.830	-0.300
2020/01/31 08:52:21.9	312.500	0.050	-0.860	-0.330
2020/01/31 08:52:22.0	312.530	0.030	-0.890	-0.350
2020/01/31 08:52:22.1	312.550	0.010	-0.920	-0.380
2020/01/31 08:52:22.2	312.570	-0.020	-0.940	-0.400
2020/01/31 08:52:22.3	312.600	-0.040	-0.960	-0.420
2020/01/31 08:52:22.4	312.620	-0.060	-0.980	-0.440
2020/01/31 08:52:22.5	312.640	-0.080	-1.000	-0.460
2020/01/31 08:52:22.6	312.670	-0.100	-1.010	-0.470
2020/01/31 08:52:22.7	312.690	-0.110	-1.020	-0.490
2020/01/31 08:52:22.8	312.710	-0.130	-1.030	-0.490
2020/01/31 08:52:22.9	312.720	-0.150	-1.030	-0.500
2020/01/31 08:52:23.0	312.740	-0.160	-1.020	-0.500
2020/01/31 08:52:23.1	312.760	-0.170	-1.010	-0.500
2020/01/31 08:52:23.2	312.770	-0.190	-1.000	-0.500
2020/01/31 08:52:23.3	312.780	-0.200	-0.980	-0.490
2020/01/31 08:52:23.4	312.800	-0.210	-0.960	-0.480
2020/01/31 08:52:23.5	312.800	-0.230	-0.930	-0.460
2020/01/31 08:52:23.6	312.810	-0.240	-0.900	-0.450
2020/01/31 08:52:23.7	312.810	-0.250	-0.860	-0.430
2020/01/31 08:52:23.8	312.810	-0.260	-0.820	-0.400
2020/01/31 08:52:23.9	312.810	-0.280	-0.770	-0.370
2020/01/31 08:52:24.0	312.800	-0.290	-0.720	-0.350
2020/01/31 08:52:24.1	312.800	-0.300	-0.660	-0.310
2020/01/31 08:52:24.2	312.790	-0.310	-0.610	-0.280
2020/01/31 08:52:24.3	312.780	-0.320	-0.540	-0.240
2020/01/31 08:52:24.4	312.790	-0.330	-0.480	-0.200
2020/01/31 08:52:24.5	312.770	-0.340	-0.420	-0.160
2020/01/31 08:52:24.6	312.760	-0.350	-0.350	-0.120
2020/01/31 08:52:24.7	312.750	-0.360	-0.280	-0.080
2020/01/31 08:52:24.8	312.730	-0.370	-0.220	-0.030
2020/01/31 08:52:24.9	312.710	-0.380	-0.150	0.010
2020/01/31 08:52:25.0	312.690	-0.380	-0.080	0.060
2020/01/31 08:52:25.1	312.670	-0.390	-0.020	0.100
2020/01/31 08:52:25.2	312.650	-0.400	0.050	0.150
2020/01/31 08:52:25.3	312.630	-0.400	0.110	0.190
2020/01/31 08:52:25.4	312.620	-0.400	0.170	0.240
2020/01/31 08:52:25.5	312.600	-0.400	0.230	0.290
2020/01/31 08:52:25.6	312.570	-0.400	0.280	0.330
2020/01/31 08:52:25.7	312.550	-0.400	0.340	0.370
2020/01/31 08:52:25.8	312.520	-0.400	0.380	0.410
2020/01/31 08:52:25.9	312.500	-0.400	0.430	0.450
2020/01/31 08:52:26.0	312.470	-0.390	0.470	0.490
2020/01/31 08:52:26.1	312.440	-0.390	0.500	0.530
2020/01/31 08:52:26.2	312.410	-0.380	0.530	0.560
2020/01/31 08:52:26.3	312.390	-0.370	0.550	0.600
2020/01/31 08:52:26.4	312.360	-0.360	0.570	0.620
2020/01/31 08:52:26.5	312.330	-0.350	0.590	0.650
2020/01/31 08:52:26.6	312.300	-0.330	0.600	0.680
2020/01/31 08:52:26.7	312.270	-0.320	0.600	0.700
2020/01/31 08:52:26.8	312.240	-0.300	0.600	0.730
2020/01/31 08:52:26.9	312.210	-0.290	0.600	0.750
2020/01/31 08:52:27.0	312.190	-0.270	0.590	0.770
2020/01/31 08:52:27.1	312.160	-0.250	0.570	0.790
2020/01/31 08:52:27.2	312.130	-0.240	0.550	0.800
2020/01/31 08:52:27.3	312.110	-0.220	0.520	0.810
2020/01/31 08:52:27.4	312.100	-0.200	0.500	0.830
2020/01/31 08:52:27.5	312.070	-0.180	0.460	0.830
2020/01/31 08:52:27.6	312.050	-0.160	0.430	0.840
2020/01/31 08:52:27.7	312.030	-0.140	0.390	0.840
2020/01/31 08:52:27.8	312.020	-0.120	0.340	0.850
2020/01/31 08:52:27.9	312.000	-0.100	0.300	0.840
2020/01/31 08:52:28.0	311.990	-0.080	0.250	0.840
2020/01/31 08:52:28.1	311.980	-0.060	0.200	0.840
2020/01/31 08:52:28.2	311.970	-0.040	0.150	0.830
2020/01/31 08:52:28.3	311.960	-0.020	0.090	0.820
2020/01/31 08:52:28.4	311.950	0.000	0.040	0.800
2020/01/31 08:52:28.5	311.950	0.020	-0.020	0.790
2020/01/31 08:52:28.6	311.950	0.040	-0.070	0.780
2020/01/31 08:52:28.7	311.950	0.060	-0.120	0.760
2020/01/31 08:52:28.8	311.950	0.080	-0.170	0.750
2020/01/31 08:52:28.9	311.950	0.100	-0.220	0.740
2020/01/31 08:52:29.0	311.960	0.120	-0.270	0.720
2020/01/31 08:52:29.1	311.970	0.130	-0.310	0.700
2020/01/31 08:52:29.2	311.980	0.150	-0.350	0.690
2020/01/31 08:52:29.3	311.990	0.170	-0.390	0.670
2020/01/31 08:52:29.4	312.010	0.180	-0.430	0.650
2020/01/31 08:52:29.5	312.020	0.200	-0.460	0.630
2020/01/31 08:52:29.6	312.040	0.210	-0.490	0.610
2020/01/31 08:52:29.7	312.050	0.230	-0.520	0.580
2020/01/31 08:52:29.8	312.070	0.240	-0.540	0.560
2020/01/31 08:52:29.9	312.090	0.250	-0.560	0.530
2020/01/31 08:52:30.0	312.110	0.260	-0.580	0.500
2020/01/31 08:52:30.1	312.130	0.270	-0.600	0.480
2020/01/31 08:52:30.2	312.160	0.280	-0.610	0.440
2020/01/31 08:52:30.3	312.180	0.280	-0.620	0.410
2020/01/31 08:52:30.4	312.200	0.290	-0.630	0.380
2020/01/31 08:52:30.5	312.220	0.290	-0.630	0.350
2020/01/31 08:52:30.6	312.240	0.300	-0.630	0.310
2020/01/31 08:52:30.7	312.260	0.300	-0.630	0.280
2020/01/31 08:52:30.8	312.280	0.300	-0.630	0.250
2020/01/31 08:52:30.9	312.300	0.300	-0.620	0.210
2020/01/31 08:52:31.0	312.310	0.300	-0.610	0.180
2020/01/31 08:52:31.1	312.330	0.300	-0.600	0.150
2020/01/31 08:52:31.2	312.350	0.300	-0.590	0.110
2020/01/31 08:52:31.3	312.370	0.290	-0.570	0.080
2020/01/31 08:52:31.4	312.370	0.290	-0.550	0.040
2020/01/31 08:52:31.5	312.390	0.290	-0.540	0.010
2020/01/31 08:52:31.6	312.410	0.280	-0.520	-0.020
2020/01/31 08:52:31.7	312.420	0.270	-0.490	-0.050
2020/01/31 08:52:31.8	312.440	0.270	-0.470	-0.080
2020/01/31 08:52:31.9	312.460	0.260	-0.450	-0.110
2020/01/31 08:52:32.0	312.480	0.250	-0.420	-0.140
2020/01/31 08:52:32.1	312.490	0.240	-0.400	-0.170
2020/01/31 08:52:32.2	312.510	0.230	-0.380	-0.200
2020/01/31 08:52:32.3	312.530	0.230	-0.350	-0.230
2020/01/31 08:52:32.4	312.540	0.220	-0.330	-0.260
2020/01/31 08:52:32.5	312.560	0.210	-0.310	-0.280
2020/01/31 08:52:32.6	312.580	0.200	-0.280	-0.300
2020/01/31 08:52:32.7	312.600	0.180	-0.250	-0.320
2020/01/31 08:52:32.8	312.620	0.170	-0.230	-0.340
2020/01/31 08:52:32.9	312.630	0.160	-0.200	-0.350
2020/01/31 08:52:33.0	312.650	0.150	-0.170	-0.360
2020/01/31 08:52:33.1	312.660	0.140	-0.150	-0.370
2020/01/31 08:52:33.2	312.680	0.120	-0.120	-0.370
2020/01/31 08:52:33.3	312.690	0.110	-0.100	-0.370
2020/01/31 08:52:33.4	312.710	0.100	-0.070	-0.360
2020/01/31 08:52:33.5	312.710	0.080	-0.050	-0.350
2020/01/31 08:52:33.6	312.720	0.070	-0.030	-0.340
2020/01/31 08:52:33.7	312.720	0.050	-0.010	-0.330
2020/01/31 08:52:33.8	312.730	0.040	0.010	-0.320
2020/01/31 08:52:33.9	312.730	0.020	0.030	-0.300
2020/01/31 08:52:34.0	312.730	0.010	0.040	-0.290
2020/01/31 08:52:34.1	312.730	-0.010	0.050	-0.270
2020/01/31 08:52:34.2	312.730	-0.020	0.060	-0.250
2020/01/31 08:52:34.3	312.730	-0.030	0.070	-0.230
2020/01/31 08:52:34.4	312.730	-0.050	0.080	-0.220
2020/01/31 08:52:34.5	312.730	-0.060	0.080	-0.210
2020/01/31 08:52:34.6	312.730	-0.070	0.080	-0.190
2020/01/31 08:52:34.7	312.730	-0.080	0.080	-0.180
2020/01/31 08:52:34.8	312.730	-0.100	0.070	-0.160
2020/01/31 08:52:34.9	312.740	-0.110	0.060	-0.150
2020/01/31 08:52:35.0	312.740	-0.110	0.050	-0.140
2020/01/31 08:52:35.1	312.750	-0.120	0.030	-0.130
2020/01/31 08:52:35.2	312.750	-0.130	0.020	-0.130
2020/01/31 08:52:35.3	312.760	-0.140	-0.000	-0.120
2020/01/31 08:52:35.4	312.770	-0.140	-0.020	-0.110
2020/01/31 08:52:35.5	312.780	-0.150	-0.040	-0.110
2020/01/31 08:52:35.6	312.790	-0.150	-0.060	-0.110
2020/01/31 08:52:35.7	312.790	-0.150	-0.090	-0.100
2020/01/31 08:52:35.8	312.800	-0.150	-0.110	-0.100
2020/01/31 08:52:35.9	312.800	-0.150	-0.140	-0.090
2020/01/31 08:52:36.0	312.800	-0.150	-0.160	-0.080
2020/01/31 08:52:36.1	312.800	-0.150	-0.180	-0.080
2020/01/31 08:52:36.2	312.800	-0.150	-0.200	-0.070
2020/01/31 08:52:36.3	312.800	-0.150	-0.220	-0.060
2020/01/31 08:52:36.4	312.790	-0.150	-0.240	-0.040
2020/01/31 08:52:36.5	312.780	-0.140	-0.260	-0.030
2020/01/31 08:52:36.6	312.780	-0.140	-0.280	-0.010
2020/01/31 08:52:36.7	312.770	-0.130	-0.290	0.000
2020/01/31 08:52:36.8	312.760	-0.120	-0.300	0.020
2020/01/31 08:52:36.9	312.750	-0.110	-0.310	0.040
2020/01/31 08:52:37.0	312.740	-0.110	-0.320	0.070
2020/01/31 08:52:37.1	312.730	-0.100	-0.330	0.090
2020/01/31 08:52:37.2	312.720	-0.090	-0.330	0.110
2020/01/31 08:52:37.3	312.710	-0.080	-0.340	0.140
2020/01/31 08:52:37.4	312.700	-0.070	-0.340	0.170
2020/01/31 08:52:37.5	312.680	-0.050	-0.340	0.200
2020/01/31 08:52:37.6	312.660	-0.040	-0.330	0.230
2020/01/31 08:52:37.7	312.650	-0.030	-0.330	0.260
2020/01/31 08:52:37.8	312.630	-0.020	-0.330	0.290
2020/01/31 08:52:37.9	312.610	-0.000	-0.320	0.330
2020/01/31 08:52:38.0	312.590	0.010	-0.320	0.360
2020/01/31 08:52:38.1	312.570	0.030	-0.310	0.390
2020/01/31 08:52:38.2	312.550	0.040	-0.300	0.430
2020/01/31 08:52:38.3	312.530	0.060	-0.300	0.460
2020/01/31 08:52:38.4	312.500	0.070	-0.290	0.500
2020/01/31 08:52:38.5	312.480	0.090	-0.290	0.530
2020/01/31 08:52:38.6	312.460	0.100	-0.280	0.570
2020/01/31 08:52:38.7	312.440	0.120	-0.270	0.600
2020/01/31 08:52:38.8	312.420	0.130	-0.260	0.630
2020/01/31 08:52:38.9	312.400	0.150	-0.260	0.660
2020/01/31 08:52:39.0	312.380	0.160	-0.250	0.690
2020/01/31 08:52:39.1	312.360	0.180	-0.240	0.710
2020/01/31 08:52:39.2	312.350	0.190	-0.240	0.740
2020/01/31 08:52:39.3	312.330	0.200	-0.230	0.760
2020/01/31 08:52:39.4	312.300	0.210	-0.230	0.790
2020/01/31 08:52:39.5	312.280	0.220	-0.220	0.800
2020/01/31 08:52:39.6	312.270	0.230	-0.220	0.820
2020/01/31 08:52:39.7	312.250	0.240	-0.220	0.830
2020/01/31 08:52:39.8	312.240	0.250	-0.220	0.840
2020/01/31 08:52:39.9	312.230	0.250	-0.220	0.850
2020/01/31 08:52:40.0	312.210	0.250	-0.220	0.860
2020/01/31 08:52:40.1	312.200	0.260	-0.230	0.860
2020/01/31 08:52:40.2	312.190	0.260	-0.230	0.850
2020/01/31 08:52:40.3	312.180	0.260	-0.240	0.850
2020/01/31 08:52:40.4	312.170	0.250	-0.250	0.840
2020/01/31 08:52:40.5	312.170	0.250	-0.260	0.830
2020/01/31 08:52:40.6	312.160	0.250	-0.270	0.810
2020/01/31 08:52:40.7	312.160	0.240	-0.280	0.790
2020/01/31 08:52:40.8	312.160	0.230	-0.290	0.770
2020/01/31 08:52:40.9	312.160	0.220	-0.310	0.750
2020/01/31 08:52:41.0	312.160	0.210	-0.320	0.720
2020/01/31 08:52:41.1	312.160	0.200	-0.340	0.690
2020/01/31 08:52:41.2	312.170	0.190	-0.350	0.660
2020/01/31 08:52:41.3	312.170	0.170	-0.370	0.630
2020/01/31 08:52:41.4	312.170	0.160	-0.390	0.600
2020/01/31 08:52:41.5	312.180	0.140	-0.410	0.560
2020/01/31 08:52:41.6	312.190	0.120	-0.430	0.530
2020/01/31 08:52:41.7	312.200	0.110	-0.440	0.500
2020/01/31 08:52:41.8	312.210	0.090	-0.460	0.460
2020/01/31 08:52:41.9	312.220	0.070	-0.480	0.430
2020/01/31 08:52:42.0	312.230	0.050	-0.490	0.400
2020/01/31 08:52:42.1	312.240	0.030	-0.510	0.370
2020/01/31 08:52:42.2	312.250	0.010	-0.520	0.330
2020/01/31 08:52:42.3	312.260	-0.010	-0.530	0.300
2020/01/31 08:52:42.4	312.270	-0.030	-0.540	0.270
2020/01/31 08:52:42.5	312.280	-0.050	-0.550	0.240
2020/01/31 08:52:42.6	312.290	-0.070	-0.560	0.220
2020/01/31 08:52:42.7	312.300	-0.100	-0.560	0.190
2020/01/31 08:52:42.8	312.310	-0.120	-0.570	0.170
2020/01/31 08:52:42.9	312.320	-0.140	-0.570	0.140
2020/01/31 08:52:43.0	312.330	-0.160	-0.570	0.120
2020/01/31 08:52:43.1	312.340	-0.180	-0.570	0.090
2020/01/31 08:52:43.2	312.350	-0.200	-0.570	0.070
2020/01/31 08:52:43.3	312.360	-0.220	-0.560	0.040
2020/01/31 08:52:43.4	312.370	-0.240	-0.560	0.020
2020/01/31 08:52:43.5	312.390	-0.260	-0.550	-0.010
2020/01/31 08:52:43.6	312.400	-0.270	-0.550	-0.030
2020/01/31 08:52:43.7	312.420	-0.290	-0.540	-0.060
2020/01/31 08:52:43.8	312.430	-0.310	-0.530	-0.090
2020/01/31 08:52:43.9	312.450	-0.320	-0.520	-0.130
2020/01/31 08:52:44.0	312.470	-0.340	-0.510	-0.160
2020/01/31 08:52:44.1	312.490	-0.360	-0.500	-0.190
2020/01/31 08:52:44.2	312.520	-0.370	-0.490	-0.230
2020/01/31 08:52:44.3	312.540	-0.380	-0.480	-0.260
2020/01/31 08:52:44.4	312.570	-0.400	-0.470	-0.310
2020/01/31 08:52:44.5	312.600	-0.410	-0.450	-0.340
2020/01/31 08:52:44.6	312.620	-0.420	-0.440	-0.380
2020/01/31 08:52:44.7	312.650	-0.430	-0.420	-0.420
2020/01/31 08:52:44.8	312.680	-0.440	-0.410	-0.460
2020/01/31 08:52:44.9	312.710	-0.440	-0.390	-0.490
2020/01/31 08:52:45.0	312.750	-0.450	-0.370	-0.530
2020/01/31 08:52:45.1	312.780	-0.460	-0.350	-0.560
2020/01/31 08:52:45.2	312.810	-0.460	-0.330	-0.590
2020/01/31 08:52:45.3	312.840	-0.460	-0.310	-0.620
2020/01/31 08:52:45.4	312.860	-0.470	-0.290	-0.650
2020/01/31 08:52:45.5	312.890	-0.470	-0.260	-0.670
2020/01/31 08:52:45.6	312.910	-0.470	-0.230	-0.690
2020/01/31 08:52:45.7	312.940	-0.460	-0.210	-0.710
2020/01/31 08:52:45.8	312.960	-0.460	-0.180	-0.720
2020/01/31 08:52:45.9	312.980	-0.460	-0.140	-0.730
2020/01/31 08:52:46.0	313.010	-0.450	-0.110	-0.740
2020/01/31 08:52:46.1	313.020	-0.450	-0.080	-0.740
2020/01/31 08:52:46.2	313.040	-0.440	-0.040	-0.730
2020/01/31 08:52:46.3	313.060	-0.430	-0.000	-0.720
2020/01/31 08:52:46.4	313.090	-0.420	0.030	-0.710
2020/01/31 08:52:46.5	313.100	-0.400	0.070	-0.690
2020/01/31 08:52:46.6	313.110	-0.390	0.110	-0.670
2020/01/31 08:52:46.7	313.120	-0.380	0.150	-0.650
2020/01/31 08:52:46.8	313.130	-0.360	0.180	-0.620
2020/01/31 08:52:46.9	313.130	-0.340	0.220	-0.580
2020/01/31 08:52:47.0	313.130	-0.320	0.260	-0.550
2020/01/31 08:52:47.1	313.130	-0.300	0.290	-0.510
2020/01/31 08:52:47.2	313.130	-0.280	0.320	-0.460
2020/01/31 08:52:47.3	313.120	-0.260	0.350	-0.410
2020/01/31 08:52:47.4	313.130	-0.240	0.380	-0.360
2020/01/31 08:52:47.5	313.120	-0.210	0.410	-0.310
2020/01/31 08:52:47.6	313.110	-0.190	0.440	-0.250
2020/01/31 08:52:47.7	313.090	-0.160	0.460	-0.200
2020/01/31 08:52:47.8	313.070	-0.130	0.480	-0.140
2020/01/31 08:52:47.9	313.060	-0.110	0.490	-0.070
2020/01/31 08:52:48.0	313.030	-0.080	0.510	-0.010
2020/01/31 08:52:48.1	313.010	-0.050	0.510	0.050
2020/01/31 08:52:48.2	312.990	-0.020	0.520	0.120
2020/01/31 08:52:48.3	312.960	0.010	0.520	0.180
2020/01/31 08:52:48.4	312.930	0.040	0.520	0.240
2020/01/31 08:52:48.5	312.910	0.070	0.520	0.310
2020/01/31 08:52:48.6	312.880	0.090	0.510	0.370
2020/01/31 08:52:48.7	312.850	0.120	0.490	0.430
2020/01/31 08:52:48.8	312.820	0.150	0.480	0.490
2020/01/31 08:52:48.9	312.790	0.180	0.460	0.540
2020/01/31 08:52:49.0	312.760	0.210	0.430	0.600
2020/01/31 08:52:49.1	312.730	0.230	0.400	0.650
2020/01/31 08:52:49.2	312.700	0.260	0.370	0.700
2020/01/31 08:52:49.3	312.670	0.290	0.340	0.740
2020/01/31 08:52:49.4	312.640	0.310	0.300	0.780
2020/01/31 08:52:49.5	312.610	0.330	0.260	0.820
2020/01/31 08:52:49.6	312.580	0.350	0.220	0.850
2020/01/31 08:52:49.7	312.560	0.370	0.170	0.880
2020/01/31 08:52:49.8	312.530	0.390	0.130	0.900
2020/01/31 08:52:49.9	312.510	0.410	0.080	0.920
2020/01/31 08:52:50.0	312.490	0.430	0.020	0.940
2020/01/31 08:52:50.1	312.470	0.440	-0.030	0.950
2020/01/31 08:52:50.2	312.460	0.450	-0.080	0.950
2020/01/31 08:52:50.3	312.450	0.470	-0.140	0.950
2020/01/31 08:52:50.4	312.450	0.480	-0.200	0.950
2020/01/31 08:52:50.5	312.440	0.490	-0.250	0.940
2020/01/31 08:52:50.6	312.430	0.490	-0.310	0.930
2020/01/31 08:52:50.7	312.430	0.500	-0.370	0.920
2020/01/31 08:52:50.8	312.430	0.510	-0.430	0.900
2020/01/31 08:52:50.9	312.420	0.510	-0.480	0.890
2020/01/31 08:52:51.0	312.430	0.520	-0.540	0.870
2020/01/31 08:52:51.1	312.430	0.520	-0.590	0.840
2020/01/31 08:52:51.2	312.430	0.520	-0.640	0.820
2020/01/31 08:52:51.3	312.430	0.520	-0.690	0.800
2020/01/31 08:52:51.4	312.450	0.520	-0.730	0.770
2020/01/31 08:52:51.5	312.460	0.520	-0.770	0.740
2020/01/31 08:52:51.6	312.460	0.520	-0.810	0.710
2020/01/31 08:52:51.7	312.470	0.520	-0.850	0.680
2020/01/31 08:52:51.8	312.470	0.520	-0.880	0.660
2020/01/31 08:52:51.9	312.480	0.510	-0.910	0.630
2020/01/31 08:52:52.0	312.490	0.510	-0.930	0.600
2020/01/31 08:52:52.1	312.490	0.510	-0.950	0.570
2020/01/31 08:52:52.2	312.500	0.500	-0.970	0.540
2020/01/31 08:52:52.3	312.510	0.500	-0.980	0.510
2020/01/31 08:52:52.4	312.510	0.500	-0.990	0.480
2020/01/31 08:52:52.5	312.520	0.490	-1.000	0.450
2020/01/31 08:52:52.6	312.520	0.490	-1.000	0.420
2020/01/31 08:52:52.7	312.530	0.480	-0.990	0.400
2020/01/31 08:52:52.8	312.540	0.470	-0.990	0.370
2020/01/31 08:52:52.9	312.540	0.470	-0.980	0.350
2020/01/31 08:52:53.0	312.550	0.460	-0.960	0.330
2020/01/31 08:52:53.1	312.550	0.450	-0.950	0.300
2020/01/31 08:52:53.2	312.550	0.440	-0.930	0.290
2020/01/31 08:52:53.3	312.560	0.430	-0.900	0.270
2020/01/31 08:52:53.4	312.560	0.420	-0.880	0.250
2020/01/31 08:52:53.5	312.570	0.400	-0.850	0.240
2020/01/31 08:52:53.6	312.570	0.390	-0.820	0.230
2020/01/31 08:52:53.7	312.570	0.370	-0.780	0.220
2020/01/31 08:52:53.8	312.570	0.360	-0.750	0.210
2020/01/31 08:52:53.9	312.570	0.340	-0.710	0.200
2020/01/31 08:52:54.0	312.570	0.320	-0.670	0.190
2020/01/31 08:52:54.1	312.570	0.300	-0.630	0.190
2020/01/31 08:52:54.2	312.560	0.270	-0.590	0.180
2020/01/31 08:52:54.3	312.560	0.250	-0.550	0.180
2020/01/31 08:52:54.4	312.550	0.220	-0.500	0.180
2020/01/31 08:52:54.5	312.550	0.200	-0.460	0.180
2020/01/31 08:52:54.6	312.540	0.170	-0.410	0.180
2020/01/31 08:52:54.7	312.530	0.140	-0.370	0.190
2020/01/31 08:52:54.8	312.530	0.110	-0.320	0.190
2020/01/31 08:52:54.9	312.520	0.080	-0.280	0.190
2020/01/31 08:52:55.0	312.510	0.050	-0.230	0.200
2020/01/31 08:52:55.1	312.500	0.010	-0.190	0.210
2020/01/31 08:52:55.2	312.490	-0.020	-0.150	0.210
2020/01/31 08:52:55.3	312.480	-0.050	-0.110	0.220
2020/01/31 08:52:55.4	312.470	-0.090	-0.070	0.230
2020/01/31 08:52:55.5	312.460	-0.120	-0.040	0.240
2020/01/31 08:52:55.6	312.450	-0.150	-0.010	0.240
2020/01/31 08:52:55.7	312.440	-0.190	0.020	0.250
2020/01/31 08:52:55.8	312.430	-0.220	0.050	0.260
2020/01/31 08:52:55.9	312.420	-0.250	0.070	0.260
2020/01/31 08:52:56.0	312.410	-0.280	0.090	0.270
2020/01/31 08:52:56.1	312.400	-0.310	0.110	0.270
2020/01/31 08:52:56.2	312.390	-0.340	0.120	0.270
2020/01/31 08:52:56.3	312.390	-0.370	0.130	0.270
2020/01/31 08:52:56.4	312.390	-0.400	0.130	0.270
2020/01/31 08:52:56.5	312.390	-0.430	0.130	0.260
2020/01/31 08:52:56.6	312.390	-0.450	0.130	0.260
2020/01/31 08:52:56.7	312.390	-0.470	0.130	0.250
2020/01/31 08:52:56.8	312.390	-0.490	0.120	0.240
2020/01/31 08:52:56.9	312.390	-0.510	0.110	0.230
2020/01/31 08:52:57.0	312.400	-0.520	0.090	0.220
2020/01/31 08:52:57.1	312.400	-0.540	0.070	0.200
2020/01/31 08:52:57.2	312.410	-0.550	0.060	0.190
2020/01/31 08:52:57.3	312.420	-0.560	0.040	0.170
2020/01/31 08:52:57.4	312.420	-0.560	0.010	0.150
2020/01/31 08:52:57.5	312.430	-0.570	-0.010	0.140
2020/01/31 08:52:57.6	312.440	-0.570	-0.030	0.120
2020/01/31 08:52:57.7	312.460	-0.570	-0.060	0.100
2020/01/31 08:52:57.8	312.480	-0.570	-0.080	0.080
2020/01/31 08:52:57.9	312.490	-0.570	-0.110	0.060
2020/01/31 08:52:58.0	312.510	-0.570	-0.130	0.040
2020/01/31 08:52:58.1	312.530	-0.560	-0.150	0.020
2020/01/31 08:52:58.2	312.560	-0.560	-0.170	-0.000
2020/01/31 08:52:58.3	312.580	-0.550	-0.200	-0.030
2020/01/31 08:52:58.4	312.600	-0.540	-0.210	-0.040
2020/01/31 08:52:58.5	312.630	-0.540	-0.230	-0.060
2020/01/31 08:52:58.6	312.650	-0.530	-0.250	-0.080
2020/01/31 08:52:58.7	312.680	-0.520	-0.260	-0.100
2020/01/31 08:52:58.8	312.710	-0.510	-0.280	-0.120
2020/01/31 08:52:58.9	312.740	-0.500	-0.290	-0.140
2020/01/31 08:52:59.0	312.770	-0.490	-0.290	-0.160
2020/01/31 08:52:59.1	312.800	-0.480	-0.300	-0.180
2020/01/31 08:52:59.2	312.830	-0.470	-0.300	-0.190
2020/01/31 08:52:59.3	312.860	-0.460	-0.300	-0.200
2020/01/31 08:52:59.4	312.880	-0.450	-0.300	-0.220
2020/01/31 08:52:59.5	312.900	-0.440	-0.290	-0.220
2020/01/31 08:52:59.6	312.930	-0.430	-0.290	-0.230
2020/01/31 08:52:59.7	312.950	-0.420	-0.270	-0.240
2020/01/31 08:52:59.8	312.970	-0.410	-0.260	-0.240
2020/01/31 08:52:59.9	312.980	-0.410	-0.240	-0.240
2020/01/31 08:53:00.0	313.000	-0.400	-0.220	-0.230
2020/01/31 08:53:00.1	313.010	-0.390	-0.200	-0.230
2020/01/31 08:53:00.2	313.020	-0.390	-0.180	-0.220
2020/01/31 08:53:00.3	313.020	-0.380	-0.160	-0.200
2020/01/31 08:53:00.4	313.040	-0.370	-0.130	-0.190
2020/01/31 08:53:00.5	313.040	-0.360	-0.100	-0.170
2020/01/31 08:53:00.6	313.030	-0.360	-0.080	-0.150
2020/01/31 08:53:00.7	313.030	-0.350	-0.050	-0.120
2020/01/31 08:53:00.8	313.020	-0.340	-0.020	-0.090
2020/01/31 08:53:00.9	313.010	-0.330	0.010	-0.060
2020/01/31 08:53:01.0	312.990	-0.320	0.030	-0.030
2020/01/31 08:53:01.1	312.970	-0.310	0.060	0.010
2020/01/31 08:53:01.2	312.950	-0.300	0.090	0.050
2020/01/31 08:53:01.3	312.930	-0.280	0.110	0.090
2020/01/31 08:53:01.4	312.910	-0.270	0.130	0.130
2020/01/31 08:53:01.5	312.880	-0.250	0.150	0.170
2020/01/31 08:53:01.6	312.850	-0.230	0.160	0.210
2020/01/31 08:53:01.7	312.820	-0.220	0.170	0.240
2020/01/31 08:53:01.8	312.790	-0.190	0.180	0.280
2020/01/31 08:53:01.9	312.760	-0.170	0.180	0.320
2020/01/31 08:53:02.0	312.730	-0.150	0.180	0.350
2020/01/31 08:53:02.1	312.690	-0.120	0.180	0.390
2020/01/31 08:53:02.2	312.660	-0.100	0.170	0.420
2020/01/31 08:53:02.3	312.630	-0.070	0.160	0.450
2020/01/31 08:53:02.4	312.580	-0.040	0.140	0.470
2020/01/31 08:53:02.5	312.560	-0.010	0.120	0.500
2020/01/31 08:53:02.6	312.530	0.030	0.090	0.520
2020/01/31 08:53:02.7	312.500	0.060	0.060	0.540
2020/01/31 08:53:02.8	312.480	0.100	0.020	0.560
2020/01/31 08:53:02.9	312.460	0.130	-0.010	0.570
2020/01/31 08:53:03.0	312.440	0.170	-0.050	0.580
2020/01/31 08:53:03.1	312.410	0.210	-0.100	0.590
2020/01/31 08:53:03.2	312.400	0.250	-0.150	0.600
2020/01/31 08:53:03.3	312.380	0.280	-0.190	0.610
2020/01/31 08:53:03.4	312.360	0.320	-0.240	0.610
2020/01/31 08:53:03.5	312.350	0.360	-0.290	0.620
2020/01/31 08:53:03.6	312.330	0.400	-0.350	0.620
2020/01/31 08:53:03.7	312.320	0.440	-0.400	0.620
2020/01/31 08:53:03.8	312.310	0.470	-0.450	0.620
2020/01/31 08:53:03.9	312.290	0.510	-0.500	0.620
2020/01/31 08:53:04.0	312.280	0.540	-0.540	0.620
2020/01/31 08:53:04.1	312.270	0.570	-0.590	0.620
2020/01/31 08:53:04.2	312.260	0.600	-0.630	0.630
2020/01/31 08:53:04.3	312.250	0.630	-0.670	0.630
2020/01/31 08:53:04.4	312.270	0.660	-0.710	0.630
2020/01/31 08:53:04.5	312.260	0.680	-0.740	0.630
2020/01/31 08:53:04.6	312.250	0.700	-0.770	0.640
2020/01/31 08:53:04.7	312.250	0.720	-0.790	0.640
2020/01/31 08:53:04.8	312.240	0.740	-0.810	0.650
2020/01/31 08:53:04.9	312.240	0.750	-0.830	0.650
2020/01/31 08:53:05.0	312.230	0.760	-0.830	0.660
2020/01/31 08:53:05.1	312.220	0.770	-0.840	0.660
2020/01/31 08:53:05.2	312.220	0.770	-0.830	0.670
2020/01/31 08:53:05.3	312.220	0.780	-0.830	0.680
2020/01/31 08:53:05.4	312.230	0.770	-0.820	0.680
2020/01/31 08:53:05.5	312.220	0.770	-0.800	0.690
2020/01/31 08:53:05.6	312.220	0.760	-0.780	0.700
2020/01/31 08:53:05.7	312.220	0.750	-0.750	0.700
2020/01/31 08:53:05.8	312.220	0.740	-0.720	0.710
2020/01/31 08:53:05.9	312.220	0.720	-0.690	0.710
2020/01/31 08:53:06.0	312.220	0.700	-0.650	0.710
2020/01/31 08:53:06.1	312.220	0.680	-0.610	0.710
2020/01/31 08:53:06.2	312.220	0.650	-0.570	0.710
2020/01/31 08:53:06.3	312.220	0.630	-0.530	0.710
2020/01/31 08:53:06.4	312.230	0.600	-0.490	0.700
2020/01/31 08:53:06.5	312.240	0.570	-0.440	0.690
2020/01/31 08:53:06.6	312.240	0.530	-0.400	0.680
2020/01/31 08:53:06.7	312.250	0.500	-0.360	0.670
2020/01/31 08:53:06.8	312.260	0.460	-0.310	0.650
2020/01/31 08:53:06.9	312.260	0.430	-0.270	0.640
2020/01/31 08:53:07.0	312.270	0.390	-0.230	0.620
2020/01/31 08:53:07.1	312.280	0.350	-0.180	0.600
2020/01/31 08:53:07.2	312.290	0.310	-0.140	0.570
2020/01/31 08:53:07.3	312.300	0.270	-0.110	0.550
2020/01/31 08:53:07.4	312.300	0.240	-0.070	0.520
2020/01/31 08:53:07.5	312.310	0.200	-0.040	0.490
2020/01/31 08:53:07.6	312.320	0.160	-0.000	0.470
2020/01/31 08:53:07.7	312.330	0.120	0.030	0.440
2020/01/31 08:53:07.8	312.330	0.090	0.060	0.410
2020/01/31 08:53:07.9	312.340	0.050	0.080	0.380
2020/01/31 08:53:08.0	312.350	0.020	0.100	0.350
2020/01/31 08:53:08.1	312.350	-0.010	0.120	0.320
2020/01/31 08:53:08.2	312.360	-0.050	0.140	0.290
2020/01/31 08:53:08.3	312.370	-0.080	0.150	0.260
2020/01/31 08:53:08.4	312.360	-0.100	0.160	0.230
2020/01/31 08:53:08.5	312.370	-0.130	0.160	0.200
2020/01/31 08:53:08.6	312.380	-0.160	0.160	0.170
2020/01/31 08:53:08.7	312.380	-0.180	0.160	0.130
2020/01/31 08:53:08.8	312.390	-0.210	0.160	0.100
2020/01/31 08:53:08.9	312.400	-0.230	0.150	0.060
2020/01/31 08:53:09.0	312.410	-0.250	0.140	0.020
2020/01/31 08:53:09.1	312.420	-0.270	0.120	-0.020
2020/01/31 08:53:09.2	312.440	-0.290	0.110	-0.060
2020/01/31 08:53:09.3	312.450	-0.300	0.090	-0.100
2020/01/31 08:53:09.4	312.470	-0.320	0.060	-0.150
2020/01/31 08:53:09.5	312.490	-0.330	0.040	-0.190
2020/01/31 08:53:09.6	312.500	-0.350	0.010	-0.230
2020/01/31 08:53:09.7	312.520	-0.360	-0.020	-0.280
2020/01/31 08:53:09.8	312.540	-0.370	-0.040	-0.320
2020/01/31 08:53:09.9	312.570	-0.380	-0.070	-0.360
2020/01/31 08:53:10.0	312.590	-0.390	-0.100	-0.410
2020/01/31 08:53:10.1	312.610	-0.400	-0.130	-0.450
2020/01/31 08:53:10.2	312.630	-0.410	-0.150	-0.490
2020/01/31 08:53:10.3	312.660	-0.420	-0.180	-0.530
2020/01/31 08:53:10.4	312.670	-0.420	-0.200	-0.560
2020/01/31 08:53:10.5	312.700	-0.430	-0.220	-0.600
2020/01/31 08:53:10.6	312.720	-0.430	-0.240	-0.630
2020/01/31 08:53:10.7	312.740	-0.440	-0.260	-0.660
2020/01/31 08:53:10.8	312.750	-0.440	-0.270	-0.690
2020/01/31 08:53:10.9	312.770	-0.450	-0.280	-0.710
2020/01/31 08:53:11.0	312.780	-0.450	-0.280	-0.730
2020/01/31 08:53:11.1	312.790	-0.460	-0.280	-0.740
2020/01/31 08:53:11.2	312.800	-0.460	-0.280	-0.750
2020/01/31 08:53:11.3	312.810	-0.470	-0.270	-0.760
2020/01/31 08:53:11.4	312.820	-0.470	-0.260	-0.760
2020/01/31 08:53:11.5	312.820	-0.470	-0.250	-0.750
2020/01/31 08:53:11.6	312.820	-0.480	-0.240	-0.740
2020/01/31 08:53:11.7	312.820	-0.480	-0.220	-0.730
2020/01/31 08:53:11.8	312.810	-0.480	-0.200	-0.710
2020/01/31 08:53:11.9	312.810	-0.480	-0.180	-0.690
2020/01/31 08:53:12.0	312.800	-0.490	-0.160	-0.660
2020/01/31 08:53:12.1	312.790	-0.490	-0.130	-0.630
2020/01/31 08:53:12.2	312.770	-0.490	-0.110	-0.600
2020/01/31 08:53:12.3	312.760	-0.490	-0.090	-0.570
2020/01/31 08:53:12.4	312.760	-0.490	-0.070	-0.530
2020/01/31 08:53:12.5	312.740	-0.490	-0.050	-0.490
2020/01/31 08:53:12.6	312.720	-0.480	-0.040	-0.460
2020/01/31 08:53:12.7	312.710	-0.480	-0.020	-0.420
2020/01/31 08:53:12.8	312.690	-0.480	-0.010	-0.380
2020/01/31 08:53:12.9	312.670	-0.470	0.000	-0.340
2020/01/31 08:53:13.0	312.650	-0.470	0.010	-0.300
2020/01/31 08:53:13.1	312.630	-0.460	0.010	-0.260
2020/01/31 08:53:13.2	312.620	-0.450	0.010	-0.220
2020/01/31 08:53:13.3	312.600	-0.440	0.000	-0.180
2020/01/31 08:53:13.4	312.580	-0.420	-0.000	-0.140
2020/01/31 08:53:13.5	312.560	-0.410	-0.020	-0.100
2020/01/31 08:53:13.6	312.550	-0.390	-0.030	-0.060
2020/01/31 08:53:13.7	312.540	-0.370	-0.050	-0.030
2020/01/31 08:53:13.8	312.530	-0.360	-0.070	0.010
2020/01/31 08:53:13.9	312.520	-0.330	-0.100	0.040
2020/01/31 08:53:14.0	312.510	-0.310	-0.120	0.070
2020/01/31 08:53:14.1	312.500	-0.290	-0.150	0.100
2020/01/31 08:53:14.2	312.490	-0.270	-0.180	0.130
2020/01/31 08:53:14.3	312.490	-0.240	-0.220	0.160
2020/01/31 08:53:14.4	312.480	-0.220	-0.250	0.190
2020/01/31 08:53:14.5	312.480	-0.190	-0.290	0.210
2020/01/31 08:53:14.6	312.470	-0.160	-0.330	0.240
2020/01/31 08:53:14.7	312.470	-0.140	-0.360	0.260
2020/01/31 08:53:14.8	312.460	-0.110	-0.390	0.280
2020/01/31 08:53:14.9	312.460	-0.090	-0.430	0.310
2020/01/31 08:53:15.0	312.450	-0.060	-0.460	0.330
2020/01/31 08:53:15.1	312.450	-0.040	-0.490	0.350
2020/01/31 08:53:15.2	312.450	-0.010	-0.520	0.370
2020/01/31 08:53:15.3	312.450	0.010	-0.550	0.390
2020/01/31 08:53:15.4	312.430	0.030	-0.570	0.410
2020/01/31 08:53:15.5	312.430	0.060	-0.590	0.430
2020/01/31 08:53:15.6	312.430	0.080	-0.610	0.450
2020/01/31 08:53:15.7	312.430	0.100	-0.630	0.470
2020/01/31 08:53:15.8	312.440	0.120	-0.650	0.480
2020/01/31 08:53:15.9	312.440	0.140	-0.660	0.500
2020/01/31 08:53:16.0	312.440	0.150	-0.670	0.520
2020/01/31 08:53:16.1	312.450	0.170	-0.670	0.530
2020/01/31 08:53:16.2	312.450	0.190	-0.680	0.550
2020/01/31 08:53:16.3	312.460	0.200	-0.680	0.560
2020/01/31 08:53:16.4	312.460	0.210	-0.670	0.570
2020/01/31 08:53:16.5	312.470	0.230	-0.670	0.580
2020/01/31 08:53:16.6	312.480	0.240	-0.660	0.590
2020/01/31 08:53:16.7	312.490	0.250	-0.650	0.600
2020/01/31 08:53:16.8	312.510	0.270	-0.640	0.610
2020/01/31 08:53:16.9	312.520	0.280	-0.630	0.620
2020/01/31 08:53:17.0	312.530	0.290	-0.620	0.620
2020/01/31 08:53:17.1	312.550	0.300	-0.600	0.630
2020/01/31 08:53:17.2	312.570	0.310	-0.590	0.630
2020/01/31 08:53:17.3	312.580	0.320	-0.570	0.630
2020/01/31 08:53:17.4	312.620	0.330	-0.560	0.630
2020/01/31 08:53:17.5	312.630	0.340	-0.540	0.630
2020/01/31 08:53:17.6	312.650	0.350	-0.520	0.630
2020/01/31 08:53:17.7	312.670	0.360	-0.500	0.630
2020/01/31 08:53:17.8	312.690	0.370	-0.480	0.620
2020/01/31 08:53:17.9	312.710	0.380	-0.450	0.620
2020/01/31 08:53:18.0	312.720	0.390	-0.430	0.610
2020/01/31 08:53:18.1	312.740	0.400	-0.410	0.610
2020/01/31 08:53:18.2	312.760	0.410	-0.390	0.600
2020/01/31 08:53:18.3	312.780	0.420	-0.370	0.590
2020/01/31 08:53:18.4	312.790	0.420	-0.350	0.580
2020/01/31 08:53:18.5	312.800	0.430	-0.330	0.570
2020/01/31 08:53:18.6	312.820	0.440	-0.310	0.550
2020/01/31 08:53:18.7	312.840	0.440	-0.290	0.540
2020/01/31 08:53:18.8	312.860	0.450	-0.270	0.530
2020/01/31 08:53:18.9	312.870	0.450	-0.250	0.510
2020/01/31 08:53:19.0	312.880	0.450	-0.230	0.500
2020/01/31 08:53:19.1	312.900	0.450	-0.210	0.480
2020/01/31 08:53:19.2	312.910	0.450	-0.190	0.470
2020/01/31 08:53:19.3	312.920	0.450	-0.170	0.450
2020/01/31 08:53:19.4	312.920	0.450	-0.160	0.430
2020/01/31 08:53:19.5	312.920	0.450	-0.140	0.410
2020/01/31 08:53:19.6	312.930	0.440	-0.120	0.400
2020/01/31 08:53:19.7	312.930	0.440	-0.100	0.380
2020/01/31 08:53:19.8	312.940	0.430	-0.080	0.360
2020/01/31 08:53:19.9	312.940	0.420	-0.060	0.340
2020/01/31 08:53:20.0	312.940	0.400	-0.050	0.320
2020/01/31 08:53:20.1	312.940	0.390	-0.030	0.300
2020/01/31 08:53:20.2	312.940	0.380	-0.010	0.280
2020/01/31 08:53:20.3	312.940	0.360	0.010	0.250
2020/01/31 08:53:20.4	312.920	0.340	0.020	0.230
2020/01/31 08:53:20.5	312.920	0.320	0.040	0.210
2020/01/31 08:53:20.6	312.910	0.300	0.060	0.190
2020/01/31 08:53:20.7	312.910	0.280	0.070	0.160
2020/01/31 08:53:20.8	312.900	0.260	0.090	0.140
2020/01/31 08:53:20.9	312.890	0.230	0.100	0.120
2020/01/31 08:53:21.0	312.880	0.210	0.120	0.100
2020/01/31 08:53:21.1	312.870	0.180	0.140	0.080
2020/01/31 08:53:21.2	312.860	0.160	0.150	0.060
2020/01/31 08:53:21.3	312.850	0.130	0.160	0.050
2020/01/31 08:53:21.4	312.820	0.100	0.180	0.030
2020/01/31 08:53:21.5	312.810	0.080	0.190	0.010
2020/01/31 08:53:21.6	312.800	0.050	0.200	-0.010
2020/01/31 08:53:21.7	312.790	0.020	0.210	-0.030
2020/01/31 08:53:21.8	312.780	-0.010	0.220	-0.050
2020/01/31 08:53:21.9	312.760	-0.040	0.230	-0.070
2020/01/31 08:53:22.0	312.750	-0.060	0.230	-0.090
2020/01/31 08:53:22.1	312.740	-0.090	0.240	-0.100
2020/01/31 08:53:22.2	312.730	-0.120	0.240	-0.120
2020/01/31 08:53:22.3	312.720	-0.140	0.240	-0.140
2020/01/31 08:53:22.4	312.710	-0.170	0.240	-0.160
2020/01/31 08:53:22.5	312.700	-0.190	0.240	-0.180
2020/01/31 08:53:22.6	312.690	-0.210	0.230	-0.190
2020/01/31 08:53:22.7	312.680	-0.240	0.230	-0.210
2020/01/31 08:53:22.8	312.670	-0.260	0.220	-0.220
2020/01/31 08:53:22.9	312.660	-0.280	0.210	-0.230
2020/01/31 08:53:23.0	312.650	-0.290	0.200	-0.240
2020/01/31 08:53:23.1	312.640	-0.310	0.190	-0.250
2020/01/31 08:53:23.2	312.630	-0.320	0.170	-0.260
2020/01/31 08:53:23.3	312.610	-0.340	0.160	-0.270
2020/01/31 08:53:23.4	312.590	-0.350	0.140	-0.270
2020/01/31 08:53:23.5	312.580	-0.360	0.120	-0.270
2020/01/31 08:53:23.6	312.570	-0.360	0.100	-0.270
2020/01/31 08:53:23.7	312.560	-0.370	0.080	-0.270
2020/01/31 08:53:23.8	312.550	-0.380	0.060	-0.270
2020/01/31 08:53:23.9	312.540	-0.380	0.040	-0.270
2020/01/31 08:53:24.0	312.530	-0.380	0.010	-0.260
2020/01/31 08:53:24.1	312.520	-0.380	-0.010	-0.260
2020/01/31 08:53:24.2	312.510	-0.380	-0.040	-0.250
2020/01/31 08:53:24.3	312.500	-0.370	-0.070	-0.240
2020/01/31 08:53:24.4	312.480	-0.370	-0.100	-0.230
2020/01/31 08:53:24.5	312.480	-0.360	-0.130	-0.220
2020/01/31 08:53:24.6	312.470	-0.350	-0.170	-0.210
2020/01/31 08:53:24.7	312.460	-0.340	-0.200	-0.200
2020/01/31 08:53:24.8	312.460	-0.330	-0.240	-0.190
2020/01/31 08:53:24.9	312.460	-0.320	-0.280	-0.180
2020/01/31 08:53:25.0	312.450	-0.310	-0.310	-0.170
2020/01/31 08:53:25.1	312.450	-0.290	-0.350	-0.150
2020/01/31 08:53:25.2	312.450	-0.280	-0.390	-0.140
2020/01/31 08:53:25.3	312.460	-0.260	-0.430	-0.130
2020/01/31 08:53:25.4	312.470	-0.240	-0.470	-0.110
2020/01/31 08:53:25.5	312.480	-0.230	-0.510	-0.100
2020/01/31 08:53:25.6	312.480	-0.210	-0.550	-0.080
2020/01/31 08:53:25.7	312.500	-0.190	-0.590	-0.060
2020/01/31 08:53:25.8	312.510	-0.170	-0.620	-0.040
2020/01/31 08:53:25.9	312.520	-0.160	-0.660	-0.020
2020/01/31 08:53:26.0	312.530	-0.140	-0.690	-0.000
2020/01/31 08:53:26.1	312.540	-0.120	-0.720	0.020
2020/01/31 08:53:26.2	312.560	-0.100	-0.750	0.040
2020/01/31 08:53:26.3	312.570	-0.080	-0.780	0.060
2020/01/31 08:53:26.4	312.600	-0.070	-0.800	0.090
2020/01/31 08:53:26.5	312.610	-0.050	-0.820	0.110
2020/01/31 08:53:26.6	312.620	-0.030	-0.840	0.130
2020/01/31 08:53:26.7	312.640	-0.020	-0.860	0.150
2020/01/31 08:53:26.8	312.660	-0.000	-0.880	0.180
2020/01/31 08:53:26.9	312.670	0.010	-0.890	0.200
2020/01/31 08:53:27.0	312.690	0.030	-0.900	0.230
2020/01/31 08:53:27.1	312.700	0.040	-0.910	0.250
2020/01/31 08:53:27.2	312.710	0.050	-0.910	0.270
2020/01/31 08:53:27.3	312.730	0.060	-0.910	0.300
2020/01/31 08:53:27.4	312.740	0.070	-0.900	0.320
2020/01/31 08:53:27.5	312.750	0.080	-0.890	0.340
2020/01/31 08:53:27.6	312.760	0.080	-0.880	0.370
2020/01/31 08:53:27.7	312.780	0.090	-0.870	0.390
2020/01/31 08:53:27.8	312.790	0.090	-0.850	0.420
2020/01/31 08:53:27.9	312.800	0.100	-0.820	0.440
2020/01/31 08:53:28.0	312.810	0.100	-0.800	0.460
2020/01/31 08:53:28.1	312.810	0.100	-0.760	0.480
2020/01/31 08:53:28.2	312.820	0.100	-0.730	0.510
2020/01/31 08:53:28.3	312.820	0.090	-0.690	0.530
2020/01/31 08:53:28.4	312.850	0.090	-0.650	0.550
2020/01/31 08:53:28.5	312.850	0.080	-0.610	0.570
2020/01/31 08:53:28.6	312.850	0.070	-0.560	0.590
2020/01/31 08:53:28.7	312.850	0.060	-0.510	0.600
2020/01/31 08:53:28.8	312.860	0.050	-0.460	0.620
2020/01/31 08:53:28.9	312.860	0.040	-0.410	0.630
2020/01/31 08:53:29.0	312.860	0.020	-0.360	0.640
2020/01/31 08:53:29.1	312.850	0.010	-0.310	0.650
2020/01/31 08:53:29.2	312.850	-0.010	-0.250	0.660
2020/01/31 08:53:29.3	312.850	-0.030	-0.200	0.670
2020/01/31 08:53:29.4	312.850	-0.050	-0.140	0.670
2020/01/31 08:53:29.5	312.850	-0.070	-0.090	0.680
2020/01/31 08:53:29.6	312.840	-0.090	-0.040	0.680
2020/01/31 08:53:29.7	312.840	-0.110	0.010	0.680
2020/01/31 08:53:29.8	312.840	-0.130	0.060	0.670
2020/01/31 08:53:29.9	312.830	-0.150	0.110	0.670
2020/01/31 08:53:30.0	312.830	-0.170	0.150	0.660
2020/01/31 08:53:30.1	312.820	-0.190	0.190	0.650
2020/01/31 08:53:30.2	312.820	-0.210	0.230	0.640
2020/01/31 08:53:30.3	312.810	-0.230	0.260	0.630
2020/01/31 08:53:30.4	312.810	-0.240	0.290	0.620
2020/01/31 08:53:30.5	312.810	-0.260	0.320	0.600
2020/01/31 08:53:30.6	312.800	-0.270	0.340	0.590
2020/01/31 08:53:30.7	312.800	-0.290	0.360	0.570
2020/01/31 08:53:30.8	312.800	-0.300	0.370	0.550
2020/01/31 08:53:30.9	312.790	-0.300	0.380	0.530
2020/01/31 08:53:31.0	312.790	-0.310	0.390	0.510
2020/01/31 08:53:31.1	312.790	-0.310	0.390	0.490
2020/01/31 08:53:31.2	312.790	-0.310	0.390	0.470
2020/01/31 08:53:31.3	312.790	-0.310	0.380	0.450
2020/01/31 08:53:31.4	312.800	-0.300	0.370	0.430
2020/01/31 08:53:31.5	312.800	-0.290	0.360	0.410
2020/01/31 08:53:31.6	312.800	-0.280	0.340	0.390
2020/01/31 08:53:31.7	312.800	-0.260	0.310	0.370
2020/01/31 08:53:31.8	312.810	-0.240	0.290	0.350
2020/01/31 08:53:31.9	312.810	-0.220	0.260	0.330
2020/01/31 08:53:32.0	312.820	-0.190	0.220	0.310
2020/01/31 08:53:32.1	312.820	-0.160	0.190	0.290
2020/01/31 08:53:32.2	312.830	-0.130	0.150	0.270
2020/01/31 08:53:32.3	312.840	-0.090	0.110	0.250
2020/01/31 08:53:32.4	312.850	-0.050	0.060	0.230
2020/01/31 08:53:32.5	312.860	-0.010	0.020	0.210
2020/01/31 08:53:32.6	312.870	0.030	-0.030	0.200
2020/01/31 08:53:32.7	312.880	0.070	-0.070	0.180
2020/01/31 08:53:32.8	312.890	0.110	-0.120	0.170
2020/01/31 08:53:32.9	312.910	0.160	-0.170	0.160
2020/01/31 08:53:33.0	312.920	0.210	-0.210	0.150
2020/01/31 08:53:33.1	312.930	0.250	-0.260	0.140
2020/01/31 08:53:33.2	312.950	0.300	-0.300	0.130
2020/01/31 08:53:33.3	312.960	0.340	-0.340	0.130
2020/01/31 08:53:33.4	312.970	0.390	-0.380	0.130
2020/01/31 08:53:33.5	312.980	0.430	-0.420	0.130
2020/01/31 08:53:33.6	312.990	0.470	-0.460	0.130
2020/01/31 08:53:33.7	313.010	0.510	-0.490	0.130
2020/01/31 08:53:33.8	313.020	0.550	-0.520	0.130
2020/01/31 08:53:33.9	313.030	0.580	-0.550	0.140
2020/01/31 08:53:34.0	313.050	0.610	-0.570	0.140
2020/01/31 08:53:34.1	313.060	0.640	-0.590	0.150
2020/01/31 08:53:34.2	313.070	0.670	-0.610	0.160
2020/01/31 08:53:34.3	313.070	0.690	-0.620	0.170
2020/01/31 08:53:34.4	313.080	0.710	-0.630	0.180
2020/01/31 08:53:34.5	313.080	0.730	-0.630	0.200
2020/01/31 08:53:34.6	313.090	0.740	-0.630	0.210
2020/01/31 08:53:34.7	313.090	0.750	-0.620	0.220
2020/01/31 08:53:34.8	313.090	0.750	-0.610	0.240
2020/01/31 08:53:34.9	313.090	0.750	-0.600	0.260
2020/01/31 08:53:35.0	313.080	0.750	-0.580	0.270
2020/01/31 08:53:35.1	313.080	0.740	-0.560	0.290
2020/01/31 08:53:35.2	313.070	0.730	-0.540	0.310
2020/01/31 08:53:35.3	313.070	0.720	-0.510	0.330
2020/01/31 08:53:35.4	313.070	0.710	-0.490	0.350
2020/01/31 08:53:35.5	313.060	0.690	-0.460	0.370
2020/01/31 08:53:35.6	313.050	0.670	-0.420	0.390
2020/01/31 08:53:35.7	313.040	0.640	-0.390	0.410
2020/01/31 08:53:35.8	313.020	0.620	-0.360	0.430
2020/01/31 08:53:35.9	313.010	0.590	-0.320	0.450
2020/01/31 08:53:36.0	312.990	0.560	-0.290	0.470
2020/01/31 08:53:36.1	312.980	0.520	-0.250	0.490
2020/01/31 08:53:36.2	312.960	0.490	-0.220	0.510
2020/01/31 08:53:36.3	312.940	0.460	-0.190	0.530
2020/01/31 08:53:36.4	312.910	0.420	-0.160	0.550
2020/01/31 08:53:36.5	312.890	0.380	-0.130	0.560
2020/01/31 08:53:36.6	312.880	0.340	-0.100	0.580
2020/01/31 08:53:36.7	312.860	0.300	-0.080	0.590
2020/01/31 08:53:36.8	312.840	0.260	-0.050	0.610
2020/01/31 08:53:36.9	312.820	0.220	-0.030	0.620
2020/01/31 08:53:37.0	312.800	0.180	-0.010	0.630
2020/01/31 08:53:37.1	312.780	0.140	0.000	0.640
2020/01/31 08:53:37.2	312.760	0.100	0.010	0.650
2020/01/31 08:53:37.3	312.740	0.060	0.030	0.650
2020/01/31 08:53:37.4	312.720	0.020	0.030	0.650
2020/01/31 08:53:37.5	312.700	-0.020	0.040	0.660
2020/01/31 08:53:37.6	312.680	-0.060	0.040	0.660
2020/01/31 08:53:37.7	312.660	-0.100	0.050	0.660
2020/01/31 08:53:37.8	312.640	-0.140	0.050	0.650
2020/01/31 08:53:37.9	312.620	-0.180	0.040	0.650
2020/01/31 08:53:38.0	312.610	-0.220	0.040	0.640
2020/01/31 08:53:38.1	312.590	-0.250	0.030	0.630
2020/01/31 08:53:38.2	312.570	-0.280	0.020	0.610
2020/01/31 08:53:38.3	312.560	-0.320	0.010	0.590
2020/01/31 08:53:38.4	312.550	-0.350	-0.010	0.580
2020/01/31 08:53:38.5	312.540	-0.380	-0.020	0.550
2020/01/31 08:53:38.6	312.540	-0.400	-0.040	0.530
2020/01/31 08:53:38.7	312.530	-0.430	-0.060	0.500
2020/01/31 08:53:38.8	312.520	-0.450	-0.080	0.470
2020/01/31 08:53:38.9	312.520	-0.480	-0.100	0.430
2020/01/31 08:53:39.0	312.520	-0.500	-0.130	0.390
2020/01/31 08:53:39.1	312.530	-0.520	-0.150	0.360
2020/01/31 08:53:39.2	312.530	-0.530	-0.180	0.310
2020/01/31 08:53:39.3	312.540	-0.550	-0.210	0.270
2020/01/31 08:53:39.4	312.560	-0.560	-0.240	0.220
2020/01/31 08:53:39.5	312.570	-0.570	-0.270	0.170
2020/01/31 08:53:39.6	312.590	-0.580	-0.300	0.120
2020/01/31 08:53:39.7	312.610	-0.590	-0.330	0.070
2020/01/31 08:53:39.8	312.630	-0.590	-0.360	0.020
2020/01/31 08:53:39.9	312.650	-0.600	-0.390	-0.030
2020/01/31 08:53:40.0	312.670	-0.600	-0.420	-0.080
2020/01/31 08:53:40.1	312.700	-0.600	-0.440	-0.140
2020/01/31 08:53:40.2	312.730	-0.600	-0.470	-0.190
2020/01/31 08:53:40.3	312.760	-0.600	-0.500	-0.250
2020/01/31 08:53:40.4	312.780	-0.600	-0.520	-0.300
2020/01/31 08:53:40.5	312.820	-0.600	-0.550	-0.350
2020/01/31 08:53:40.6	312.850	-0.590	-0.560	-0.410
2020/01/31 08:53:40.7	312.890	-0.580	-0.580	-0.460
2020/01/31 08:53:40.8	312.920	-0.580	-0.600	-0.510
2020/01/31 08:53:40.9	312.960	-0.570	-0.610	-0.560
2020/01/31 08:53:41.0	313.000	-0.560	-0.620	-0.610
2020/01/31 08:53:41.1	313.040	-0.550	-0.620	-0.660
2020/01/31 08:53:41.2	313.070	-0.540	-0.630	-0.700
2020/01/31 08:53:41.3	313.110	-0.530	-0.620	-0.740
2020/01/31 08:53:41.4	313.140	-0.520	-0.620	-0.770
2020/01/31 08:53:41.5	313.170	-0.510	-0.620	-0.800
2020/01/31 08:53:41.6	313.200	-0.490	-0.600	-0.820
2020/01/31 08:53:41.7	313.230	-0.480	-0.590	-0.840
2020/01/31 08:53:41.8	313.260	-0.470	-0.570	-0.860
2020/01/31 08:53:41.9	313.290	-0.450	-0.540	-0.870
2020/01/31 08:53:42.0	313.310	-0.440	-0.510	-0.870
2020/01/31 08:53:42.1	313.330	-0.420	-0.480	-0.870
2020/01/31 08:53:42.2	313.350	-0.410	-0.450	-0.860
2020/01/31 08:53:42.3	313.370	-0.390	-0.410	-0.850
2020/01/31 08:53:42.4	313.390	-0.380	-0.370	-0.830
2020/01/31 08:53:42.5	313.400	-0.360	-0.320	-0.810
2020/01/31 08:53:42.6	313.410	-0.340	-0.280	-0.780
2020/01/31 08:53:42.7	313.420	-0.330	-0.230	-0.740
2020/01/31 08:53:42.8	313.420	-0.310	-0.180	-0.700
2020/01/31 08:53:42.9	313.420	-0.290	-0.130	-0.660
2020/01/31 08:53:43.0	313.420	-0.270	-0.080	-0.610
2020/01/31 08:53:43.1	313.420	-0.260	-0.030	-0.560
2020/01/31 08:53:43.2	313.410	-0.240	0.020	-0.500
2020/01/31 08:53:43.3	313.400	-0.220	0.070	-0.440
2020/01/31 08:53:43.4	313.390	-0.200	0.120	-0.380
2020/01/31 08:53:43.5	313.380	-0.180	0.170	-0.310
2020/01/31 08:53:43.6	313.360	-0.160	0.210	-0.240
2020/01/31 08:53:43.7	313.340	-0.140	0.250	-0.170
2020/01/31 08:53:43.8	313.320	-0.120	0.290	-0.100
2020/01/31 08:53:43.9	313.290	-0.100	0.330	-0.030
2020/01/31 08:53:44.0	313.270	-0.070	0.360	0.050
2020/01/31 08:53:44.1	313.240	-0.050	0.380	0.120
2020/01/31 08:53:44.2	313.210	-0.030	0.410	0.200
2020/01/31 08:53:44.3	313.180	-0.000	0.420	0.280
2020/01/31 08:53:44.4	313.150	0.020	0.440	0.350
2020/01/31 08:53:44.5	313.120	0.040	0.440	0.430
2020/01/31 08:53:44.6	313.090	0.070	0.450	0.510
2020/01/31 08:53:44.7	313.050	0.090	0.440	0.580
2020/01/31 08:53:44.8	313.020	0.120	0.430	0.650
2020/01/31 08:53:44.9	312.980	0.150	0.420	0.720
2020/01/31 08:53:45.0	312.940	0.170	0.400	0.790
2020/01/31 08:53:45.1	312.910	0.200	0.380	0.860
2020/01/31 08:53:45.2	312.870	0.230	0.350	0.930
2020/01/31 08:53:45.3	312.830	0.260	0.310	0.990
2020/01/31 08:53:45.4	312.790	0.280	0.280	1.050
2020/01/31 08:53:45.5	312.750	0.310	0.240	1.110
2020/01/31 08:53:45.6	312.720	0.340	0.190	1.160
2020/01/31 08:53:45.7	312.690	0.370	0.150	1.210
2020/01/31 08:53:45.8	312.660	0.400	0.090	1.260
2020/01/31 08:53:45.9	312.630	0.430	0.040	1.300
2020/01/31 08:53:46.0	312.600	0.460	-0.010	1.340
2020/01/31 08:53:46.1	312.570	0.480	-0.070	1.380
2020/01/31 08:53:46.2	312.540	0.510	-0.130	1.410
2020/01/31 08:53:46.3	312.520	0.540	-0.180	1.430
2020/01/31 08:53:46.4	312.490	0.560	-0.240	1.450
2020/01/31 08:53:46.5	312.480	0.590	-0.300	1.470
2020/01/31 08:53:46.6	312.460	0.610	-0.360	1.470
2020/01/31 08:53:46.7	312.450	0.640	-0.410	1.480
2020/01/31 08:53:46.8	312.440	0.660	-0.470	1.480
2020/01/31 08:53:46.9	312.430	0.680	-0.520	1.470
2020/01/31 08:53:47.0	312.420	0.700	-0.570	1.460
2020/01/31 08:53:47.1	312.420	0.710	-0.620	1.440
2020/01/31 08:53:47.2	312.420	0.730	-0.670	1.420
2020/01/31 08:53:47.3	312.430	0.740	-0.710	1.390
2020/01/31 08:53:47.4	312.440	0.750	-0.750	1.360
2020/01/31 08:53:47.5	312.450	0.760	-0.790	1.320
2020/01/31 08:53:47.6	312.460	0.760	-0.830	1.270
2020/01/31 08:53:47.7	312.470	0.760	-0.860	1.220
2020/01/31 08:53:47.8	312.490	0.760	-0.890	1.170
2020/01/31 08:53:47.9	312.500	0.750	-0.920	1.110
2020/01/31 08:53:48.0	312.520	0.750	-0.940	1.050
2020/01/31 08:53:48.1	312.540	0.740	-0.960	0.980
2020/01/31 08:53:48.2	312.570	0.720	-0.980	0.910
2020/01/31 08:53:48.3	312.590	0.700	-0.990	0.840
2020/01/31 08:53:48.4	312.620	0.680	-1.010	0.760
2020/01/31 08:53:48.5	312.650	0.660	-1.010	0.680
2020/01/31 08:53:48.6	312.680	0.630	-1.020	0.600
2020/01/31 08:53:48.7	312.710	0.600	-1.020	0.510
2020/01/31 08:53:48.8	312.740	0.570	-1.020	0.420
2020/01/31 08:53:48.9	312.770	0.540	-1.010	0.330
2020/01/31 08:53:49.0	312.800	0.500	-1.000	0.240
2020/01/31 08:53:49.1	312.840	0.470	-0.990	0.150
2020/01/31 08:53:49.2	312.870	0.430	-0.980	0.060
2020/01/31 08:53:49.3	312.910	0.390	-0.960	-0.030
2020/01/31 08:53:49.4	312.940	0.350	-0.940	-0.120
2020/01/31 08:53:49.5	312.970	0.310	-0.910	-0.200
2020/01/31 08:53:49.6	313.010	0.260	-0.890	-0.290
2020/01/31 08:53:49.7	313.040	0.220	-0.860	-0.380
2020/01/31 08:53:49.8	313.080	0.180	-0.830	-0.460
2020/01/31 08:53:49.9	313.110	0.140	-0.790	-0.540
2020/01/31 08:53:50.0	313.150	0.090	-0.760	-0.610
2020/01/31 08:53:50.1	313.180	0.050	-0.720	-0.680
2020/01/31 08:53:50.2	313.210	0.010	-0.680	-0.750
2020/01/31 08:53:50.3	313.250	-0.030	-0.640	-0.810
2020/01/31 08:53:50.4	313.260	-0.070	-0.590	-0.870
2020/01/31 08:53:50.5	313.290	-0.110	-0.550	-0.910
2020/01/31 08:53:50.6	313.310	-0.140	-0.500	-0.960
2020/01/31 08:53:50.7	313.340	-0.180	-0.450	-0.990
2020/01/31 08:53:50.8	313.360	-0.210	-0.390	-1.020
2020/01/31 08:53:50.9	313.380	-0.240	-0.340	-1.040
2020/01/31 08:53:51.0	313.390	-0.270	-0.290	-1.060
2020/01/31 08:53:51.1	313.410	-0.300	-0.230	-1.070
2020/01/31 08:53:51.2	313.420	-0.330	-0.180	-1.070
2020/01/31 08:53:51.3	313.430	-0.360	-0.120	-1.070
2020/01/31 08:53:51.4	313.460	-0.380	-0.070	-1.060
2020/01/31 08:53:51.5	313.460	-0.410	-0.010	-1.050
2020/01/31 08:53:51.6	313.470	-0.430	0.040	-1.030
2020/01/31 08:53:51.7	313.470	-0.450	0.090	-1.010
2020/01/31 08:53:51.8	313.480	-0.470	0.140	-0.990
2020/01/31 08:53:51.9	313.480	-0.490	0.180	-0.960
2020/01/31 08:53:52.0	313.480	-0.500	0.230	-0.930
2020/01/31 08:53:52.1	313.480	-0.520	0.270	-0.900
2020/01/31 08:53:52.2	313.470	-0.530	0.300	-0.860
2020/01/31 08:53:52.3	313.470	-0.550	0.340	-0.820
2020/01/31 08:53:52.4	313.470	-0.560	0.370	-0.780
2020/01/31 08:53:52.5	313.460	-0.560	0.400	-0.740
2020/01/31 08:53:52.6	313.460	-0.570	0.420	-0.690
2020/01/31 08:53:52.7	313.450	-0.580	0.450	-0.650
2020/01/31 08:53:52.8	313.440	-0.580	0.470	-0.600
2020/01/31 08:53:52.9	313.430	-0.580	0.480	-0.550
2020/01/31 08:53:53.0	313.410	-0.580	0.490	-0.500
2020/01/31 08:53:53.1	313.400	-0.580	0.500	-0.440
2020/01/31 08:53:53.2	313.380	-0.580	0.510	-0.390
2020/01/31 08:53:53.3	313.370	-0.570	0.520	-0.330
2020/01/31 08:53:53.4	313.360	-0.570	0.520	-0.280
2020/01/31 08:53:53.5	313.340	-0.560	0.520	-0.230
2020/01/31 08:53:53.6	313.320	-0.550	0.520	-0.170
2020/01/31 08:53:53.7	313.290	-0.540	0.510	-0.120
2020/01/31 08:53:53.8	313.270	-0.530	0.500	-0.070
2020/01/31 08:53:53.9	313.250	-0.520	0.490	-0.020
2020/01/31 08:53:54.0	313.220	-0.500	0.480	0.030
2020/01/31 08:53:54.1	313.200	-0.490	0.460	0.080
2020/01/31 08:53:54.2	313.170	-0.470	0.440	0.120
2020/01/31 08:53:54.3	313.150	-0.450	0.420	0.170
2020/01/31 08:53:54.4	313.100	-0.430	0.400	0.200
2020/01/31 08:53:54.5	313.080	-0.410	0.370	0.240
2020/01/31 08:53:54.6	313.050	-0.390	0.340	0.280
2020/01/31 08:53:54.7	313.020	-0.370	0.310	0.310
2020/01/31 08:53:54.8	312.990	-0.350	0.280	0.340
2020/01/31 08:53:54.9	312.960	-0.330	0.240	0.360
2020/01/31 08:53:55.0	312.930	-0.300	0.200	0.390
2020/01/31 08:53:55.1	312.900	-0.280	0.170	0.410
2020/01/31 08:53:55.2	312.870	-0.260	0.130	0.430
2020/01/31 08:53:55.3	312.840	-0.230	0.090	0.440
2020/01/31 08:53:55.4	312.800	-0.210	0.050	0.460
2020/01/31 08:53:55.5	312.780	-0.180	0.010	0.470
2020/01/31 08:53:55.6	312.750	-0.160	-0.030	0.470
2020/01/31 08:53:55.7	312.720	-0.130	-0.060	0.480
2020/01/31 08:53:55.8	312.700	-0.110	-0.100	0.480
2020/01/31 08:53:55.9	312.680	-0.090	-0.130	0.490
2020/01/31 08:53:56.0	312.650	-0.060	-0.170	0.490
2020/01/31 08:53:56.1	312.630	-0.040	-0.200	0.490
2020/01/31 08:53:56.2	312.610	-0.020	-0.230	0.490
2020/01/31 08:53:56.3	312.590	0.000	-0.250	0.480
2020/01/31 08:53:56.4	312.560	0.020	-0.280	0.480
2020/01/31 08:53:56.5	312.540	0.040	-0.300	0.480
2020/01/31 08:53:56.6	312.530	0.060	-0.320	0.470
2020/01/31 08:53:56.7	312.520	0.080	-0.340	0.470
2020/01/31 08:53:56.8	312.500	0.100	-0.350	0.460
2020/01/31 08:53:56.9	312.490	0.120	-0.360	0.450
2020/01/31 08:53:57.0	312.480	0.130	-0.370	0.450
2020/01/31 08:53:57.1	312.470	0.140	-0.380	0.440
2020/01/31 08:53:57.2	312.460	0.160	-0.390	0.440
2020/01/31 08:53:57.3	312.460	0.170	-0.390	0.430
2020/01/31 08:53:57.4	312.450	0.180	-0.390	0.420
2020/01/31 08:53:57.5	312.440	0.190	-0.390	0.420
2020/01/31 08:53:57.6	312.440	0.200	-0.390	0.410
2020/01/31 08:53:57.7	312.440	0.200	-0.390	0.400
2020/01/31 08:53:57.8	312.440	0.210	-0.380	0.400
2020/01/31 08:53:57.9	312.440	0.210	-0.380	0.390
2020/01/31 08:53:58.0	312.440	0.210	-0.370	0.380
2020/01/31 08:53:58.1	312.440	0.210	-0.370	0.380
2020/01/31 08:53:58.2	312.450	0.210	-0.360	0.370
2020/01/31 08:53:58.3	312.450	0.200	-0.360	0.360
2020/01/31 08:53:58.4	312.460	0.200	-0.360	0.350
2020/01/31 08:53:58.5	312.470	0.190	-0.350	0.340
2020/01/31 08:53:58.6	312.480	0.180	-0.350	0.320
2020/01/31 08:53:58.7	312.490	0.180	-0.350	0.310
2020/01/31 08:53:58.8	312.500	0.170	-0.350	0.300
2020/01/31 08:53:58.9	312.520	0.160	-0.350	0.280
2020/01/31 08:53:59.0	312.530	0.150	-0.360	0.270
2020/01/31 08:53:59.1	312.550	0.130	-0.360	0.250
2020/01/31 08:53:59.2	312.570	0.120	-0.370	0.230
2020/01/31 08:53:59.3	312.590	0.110	-0.380	0.210
2020/01/31 08:53:59.4	312.600	0.100	-0.400	0.190
2020/01/31 08:53:59.5	312.620	0.090	-0.410	0.170
2020/01/31 08:53:59.6	312.640	0.080	-0.430	0.150
2020/01/31 08:53:59.7	312.670	0.070	-0.450	0.130
2020/01/31 08:53:59.8	312.700	0.060	-0.470	0.110
2020/01/31 08:53:59.9	312.720	0.050	-0.490	0.090
2020/01/31 08:54:00.0	312.750	0.050	-0.510	0.060
2020/01/31 08:54:00.1	312.790	0.040	-0.540	0.040
2020/01/31 08:54:00.2	312.820	0.040	-0.570	0.020
2020/01/31 08:54:00.3	312.850	0.040	-0.590	-0.010
2020/01/31 08:54:00.4	312.890	0.040	-0.620	-0.030
2020/01/31 08:54:00.5	312.920	0.040	-0.650	-0.060
2020/01/31 08:54:00.6	312.960	0.040	-0.680	-0.080
2020/01/31 08:54:00.7	313.000	0.040	-0.710	-0.110
2020/01/31 08:54:00.8	313.040	0.050	-0.740	-0.130
2020/01/31 08:54:00.9	313.080	0.050	-0.770	-0.150
2020/01/31 08:54:01.0	313.110	0.060	-0.790	-0.180
2020/01/31 08:54:01.1	313.150	0.070	-0.820	-0.200
2020/01/31 08:54:01.2	313.180	0.080	-0.840	-0.210
2020/01/31 08:54:01.3	313.220	0.090	-0.860	-0.230
2020/01/31 08:54:01.4	313.240	0.100	-0.870	-0.250
2020/01/31 08:54:01.5	313.270	0.120	-0.890	-0.260
2020/01/31 08:54:01.6	313.300	0.130	-0.900	-0.270
2020/01/31 08:54:01.7	313.330	0.140	-0.900	-0.280
2020/01/31 08:54:01.8	313.360	0.160	-0.910	-0.280
2020/01/31 08:54:01.9	313.380	0.170	-0.900	-0.290
2020/01/31 08:54:02.0	313.400	0.180	-0.900	-0.290
2020/01/31 08:54:02.1	313.430	0.200	-0.890	-0.290
2020/01/31 08:54:02.2	313.450	0.210	-0.880	-0.290
2020/01/31 08:54:02.3	313.460	0.220	-0.860	-0.290
2020/01/31 08:54:02.4	313.480	0.230	-0.840	-0.280
2020/01/31 08:54:02.5	313.490	0.240	-0.820	-0.270
2020/01/31 08:54:02.6	313.510	0.250	-0.790	-0.260
2020/01/31 08:54:02.7	313.520	0.260	-0.760	-0.250
2020/01/31 08:54:02.8	313.530	0.270	-0.730	-0.230
2020/01/31 08:54:02.9	313.540	0.280	-0.690	-0.220
2020/01/31 08:54:03.0	313.540	0.280	-0.660	-0.200
2020/01/31 08:54:03.1	313.550	0.290	-0.620	-0.180
2020/01/31 08:54:03.2	313.550	0.290	-0.570	-0.160
2020/01/31 08:54:03.3	313.550	0.290	-0.530	-0.140
2020/01/31 08:54:03.4	313.560	0.290	-0.480	-0.110
2020/01/31 08:54:03.5	313.560	0.290	-0.440	-0.080
2020/01/31 08:54:03.6	313.550	0.290	-0.390	-0.060
2020/01/31 08:54:03.7	313.540	0.290	-0.340	-0.030
2020/01/31 08:54:03.8	313.540	0.280	-0.290	0.010
2020/01/31 08:54:03.9	313.530	0.280	-0.240	0.040
2020/01/31 08:54:04.0	313.520	0.270	-0.190	0.070
2020/01/31 08:54:04.1	313.500	0.260	-0.140	0.100
2020/01/31 08:54:04.2	313.490	0.260	-0.090	0.140
2020/01/31 08:54:04.3	313.470	0.250	-0.040	0.170
2020/01/31 08:54:04.4	313.470	0.240	0.010	0.210
2020/01/31 08:54:04.5	313.450	0.230	0.050	0.250
2020/01/31 08:54:04.6	313.430	0.220	0.100	0.280
2020/01/31 08:54:04.7	313.410	0.210	0.140	0.320
2020/01/31 08:54:04.8	313.390	0.200	0.180	0.350
2020/01/31 08:54:04.9	313.370	0.190	0.220	0.390
2020/01/31 08:54:05.0	313.350	0.180	0.260	0.420
2020/01/31 08:54:05.1	313.330	0.170	0.300	0.460
2020/01/31 08:54:05.2	313.300	0.170	0.330	0.490
2020/01/31 08:54:05.3	313.280	0.160	0.360	0.520
2020/01/31 08:54:05.4	313.270	0.150	0.380	0.550
2020/01/31 08:54:05.5	313.240	0.140	0.410	0.580
2020/01/31 08:54:05.6	313.220	0.130	0.430	0.610
2020/01/31 08:54:05.7	313.200	0.120	0.440	0.640
2020/01/31 08:54:05.8	313.180	0.110	0.460	0.660
2020/01/31 08:54:05.9	313.160	0.100	0.460	0.680
2020/01/31 08:54:06.0	313.130	0.090	0.470	0.700
2020/01/31 08:54:06.1	313.110	0.090	0.470	0.710
2020/01/31 08:54:06.2	313.090	0.080	0.470	0.730
2020/01/31 08:54:06.3	313.070	0.070	0.470	0.740
2020/01/31 08:54:06.4	313.050	0.060	0.460	0.740
2020/01/31 08:54:06.5	313.020	0.050	0.450	0.750
2020/01/31 08:54:06.6	313.000	0.040	0.440	0.750
2020/01/31 08:54:06.7	312.980	0.030	0.420	0.750
2020/01/31 08:54:06.8	312.960	0.020	0.400	0.750
2020/01/31 08:54:06.9	312.940	0.010	0.380	0.740
2020/01/31 08:54:07.0	312.920	0.000	0.360	0.730
2020/01/31 08:54:07.1	312.900	-0.010	0.340	0.720
2020/01/31 08:54:07.2	312.880	-0.020	0.310	0.710
2020/01/31 08:54:07.3	312.860	-0.030	0.290	0.690
2020/01/31 08:54:07.4	312.840	-0.040	0.260	0.680
2020/01/31 08:54:07.5	312.830	-0.060	0.230	0.660
2020/01/31 08:54:07.6	312.810	-0.070	0.200	0.640
2020/01/31 08:54:07.7	312.790	-0.080	0.170	0.620
2020/01/31 08:54:07.8	312.770	-0.100	0.140	0.600
2020/01/31 08:54:07.9	312.750	-0.110	0.120	0.580
2020/01/31 08:54:08.0	312.730	-0.120	0.090	0.560
2020/01/31 08:54:08.1	312.720	-0.140	0.060	0.540
2020/01/31 08:54:08.2	312.700	-0.150	0.030	0.520
2020/01/31 08:54:08.3	312.680	-0.170	0.010	0.500
2020/01/31 08:54:08.4	312.670	-0.190	-0.020	0.470
2020/01/31 08:54:08.5	312.660	-0.200	-0.040	0.450
2020/01/31 08:54:08.6	312.640	-0.220	-0.070	0.430
2020/01/31 08:54:08.7	312.630	-0.240	-0.090	0.400
2020/01/31 08:54:08.8	312.610	-0.250	-0.110	0.380
2020/01/31 08:54:08.9	312.600	-0.270	-0.130	0.350
2020/01/31 08:54:09.0	312.580	-0.290	-0.150	0.330
2020/01/31 08:54:09.1	312.570	-0.300	-0.160	0.300
2020/01/31 08:54:09.2	312.550	-0.320	-0.180	0.280
2020/01/31 08:54:09.3	312.540	-0.340	-0.200	0.250
2020/01/31 08:54:09.4	312.530	-0.350	-0.210	0.220
2020/01/31 08:54:09.5	312.520	-0.370	-0.230	0.190
2020/01/31 08:54:09.6	312.510	-0.380	-0.240	0.170
2020/01/31 08:54:09.7	312.500	-0.390	-0.250	0.140
2020/01/31 08:54:09.8	312.480	-0.410	-0.260	0.120
2020/01/31 08:54:09.9	312.470	-0.420	-0.270	0.090
2020/01/31 08:54:10.0	312.470	-0.430	-0.280	0.070
2020/01/31 08:54:10.1	312.460	-0.430	-0.290	0.040
2020/01/31 08:54:10.2	312.450	-0.440	-0.310	0.010
2020/01/31 08:54:10.3	312.440	-0.440	-0.320	-0.010
2020/01/31 08:54:10.4	312.430	-0.450	-0.330	-0.040
2020/01/31 08:54:10.5	312.430	-0.450	-0.340	-0.060
2020/01/31 08:54:10.6	312.420	-0.450	-0.360	-0.090
2020/01/31 08:54:10.7	312.420	-0.440	-0.370	-0.110
2020/01/31 08:54:10.8	312.430	-0.440	-0.380	-0.130
2020/01/31 08:54:10.9	312.430	-0.430	-0.400	-0.160
2020/01/31 08:54:11.0	312.430	-0.420	-0.420	-0.180
2020/01/31 08:54:11.1	312.440	-0.410	-0.430	-0.210
2020/01/31 08:54:11.2	312.450	-0.400	-0.450	-0.230
2020/01/31 08:54:11.3	312.460	-0.380	-0.470	-0.260
2020/01/31 08:54:11.4	312.470	-0.360	-0.490	-0.280
2020/01/31 08:54:11.5	312.480	-0.350	-0.510	-0.300
2020/01/31 08:54:11.6	312.500	-0.330	-0.530	-0.330
2020/01/31 08:54:11.7	312.510	-0.310	-0.560	-0.350
2020/01/31 08:54:11.8	312.530	-0.290	-0.580	-0.370
2020/01/31 08:54:11.9	312.550	-0.260	-0.600	-0.400
2020/01/31 08:54:12.0	312.570	-0.240	-0.620	-0.420
2020/01/31 08:54:12.1	312.590	-0.220	-0.640	-0.440
2020/01/31 08:54:12.2	312.610	-0.200	-0.660	-0.460
2020/01/31 08:54:12.3	312.630	-0.170	-0.680	-0.480
2020/01/31 08:54:12.4	312.650	-0.150	-0.700	-0.490
2020/01/31 08:54:12.5	312.680	-0.130	-0.710	-0.510
2020/01/31 08:54:12.6	312.700	-0.100	-0.730	-0.520
2020/01/31 08:54:12.7	312.730	-0.080	-0.740	-0.530
2020/01/31 08:54:12.8	312.750	-0.060	-0.750	-0.540
2020/01/31 08:54:12.9	312.780	-0.040	-0.760	-0.550
2020/01/31 08:54:13.0	312.810	-0.020	-0.770	-0.560
2020/01/31 08:54:13.1	312.840	0.000	-0.770	-0.560
2020/01/31 08:54:13.2	312.870	0.020	-0.780	-0.570
2020/01/31 08:54:13.3	312.900	0.040	-0.780	-0.570
2020/01/31 08:54:13.4	312.930	0.060	-0.780	-0.570
2020/01/31 08:54:13.5	312.960	0.080	-0.770	-0.560
2020/01/31 08:54:13.6	312.990	0.090	-0.770	-0.560
2020/01/31 08:54:13.7	313.020	0.110	-0.760	-0.550
2020/01/31 08:54:13.8	313.060	0.130	-0.750	-0.540
2020/01/31 08:54:13.9	313.090	0.140	-0.740	-0.530
2020/01/31 08:54:14.0	313.120	0.150	-0.720	-0.520
2020/01/31 08:54:14.1	313.150	0.170	-0.710	-0.500
2020/01/31 08:54:14.2	313.190	0.180	-0.690	-0.480
2020/01/31 08:54:14.3	313.220	0.190	-0.660	-0.460
2020/01/31 08:54:14.4	313.270	0.200	-0.640	-0.430
2020/01/31 08:54:14.5	313.300	0.210	-0.620	-0.400
2020/01/31 08:54:14.6	313.330	0.220	-0.590	-0.370
2020/01/31 08:54:14.7	313.360	0.230	-0.560	-0.340
2020/01/31 08:54:14.8	313.390	0.240	-0.530	-0.310
2020/01/31 08:54:14.9	313.420	0.250	-0.490	-0.270
2020/01/31 08:54:15.0	313.440	0.250	-0.460	-0.230
2020/01/31 08:54:15.1	313.470	0.260	-0.420	-0.190
2020/01/31 08:54:15.2	313.490	0.260	-0.390	-0.140
2020/01/31 08:54:15.3	313.520	0.270	-0.350	-0.090
2020/01/31 08:54:15.4	313.540	0.270	-0.310	-0.040
2020/01/31 08:54:15.5	313.560	0.270	-0.260	0.010
2020/01/31 08:54:15.6	313.570	0.280	-0.220	0.070
2020/01/31 08:54:15.7	313.580	0.280	-0.180	0.120
2020/01/31 08:54:15.8	313.590	0.280	-0.140	0.180
2020/01/31 08:54:15.9	313.600	0.280	-0.090	0.240
2020/01/31 08:54:16.0	313.600	0.280	-0.050	0.300
2020/01/31 08:54:16.1	313.600	0.270	-0.010	0.360
2020/01/31 08:54:16.2	313.590	0.270	0.040	0.430
2020/01/31 08:54:16.3	313.580	0.270	0.080	0.490
2020/01/31 08:54:16.4	313.560	0.260	0.120	0.550
2020/01/31 08:54:16.5	313.540	0.260	0.160	0.610
2020/01/31 08:54:16.6	313.520	0.250	0.200	0.680
2020/01/31 08:54:16.7	313.500	0.250	0.240	0.730
2020/01/31 08:54:16.8	313.480	0.240	0.270	0.790
2020/01/31 08:54:16.9	313.450	0.240	0.310	0.850
2020/01/31 08:54:17.0	313.420	0.230	0.340	0.900
2020/01/31 08:54:17.1	313.390	0.230	0.370	0.960
2020/01/31 08:54:17.2	313.360	0.220	0.390	1.010
2020/01/31 08:54:17.3	313.320	0.220	0.410	1.050
2020/01/31 08:54:17.4	313.270	0.220	0.430	1.100
2020/01/31 08:54:17.5	313.230	0.210	0.440	1.140
2020/01/31 08:54:17.6	313.190	0.210	0.460	1.180
2020/01/31 08:54:17.7	313.150	0.210	0.470	1.220
2020/01/31 08:54:17.8	313.110	0.200	0.470	1.250
2020/01/31 08:54:17.9	313.070	0.200	0.470	1.280
2020/01/31 08:54:18.0	313.020	0.200	0.470	1.300
2020/01/31 08:54:18.1	312.980	0.200	0.460	1.320
2020/01/31 08:54:18.2	312.940	0.210	0.450	1.340
2020/01/31 08:54:18.3	312.890	0.210	0.430	1.350
2020/01/31 08:54:18.4	312.850	0.210	0.410	1.350
2020/01/31 08:54:18.5	312.810	0.210	0.390	1.350
2020/01/31 08:54:18.6	312.770	0.220	0.360	1.340
2020/01/31 08:54:18.7	312.730	0.220	0.330	1.330
2020/01/31 08:54:18.8	312.690	0.230	0.290	1.320
2020/01/31 08:54:18.9	312.650	0.230	0.250	1.300
2020/01/31 08:54:19.0	312.620	0.240	0.200	1.270
2020/01/31 08:54:19.1	312.580	0.250	0.150	1.240
2020/01/31 08:54:19.2	312.550	0.250	0.100	1.210
2020/01/31 08:54:19.3	312.530	0.260	0.050	1.170
2020/01/31 08:54:19.4	312.490	0.260	-0.010	1.120
2020/01/31 08:54:19.5	312.470	0.270	-0.070	1.080
2020/01/31 08:54:19.6	312.450	0.270	-0.130	1.020
2020/01/31 08:54:19.7	312.430	0.270	-0.190	0.970
2020/01/31 08:54:19.8	312.420	0.270	-0.250	0.910
2020/01/31 08:54:19.9	312.410	0.280	-0.310	0.850
2020/01/31 08:54:20.0	312.400	0.270	-0.370	0.790
2020/01/31 08:54:20.1	312.390	0.270	-0.430	0.720
2020/01/31 08:54:20.2	312.380	0.270	-0.490	0.650
2020/01/31 08:54:20.3	312.380	0.260	-0.550	0.580
2020/01/31 08:54:20.4	312.390	0.260	-0.610	0.520
2020/01/31 08:54:20.5	312.390	0.250	-0.660	0.450
2020/01/31 08:54:20.6	312.390	0.240	-0.710	0.380
2020/01/31 08:54:20.7	312.400	0.230	-0.750	0.310
2020/01/31 08:54:20.8	312.410	0.220	-0.790	0.240
2020/01/31 08:54:20.9	312.420	0.210	-0.830	0.170
2020/01/31 08:54:21.0	312.420	0.190	-0.860	0.100
2020/01/31 08:54:21.1	312.440	0.180	-0.890	0.040
2020/01/31 08:54:21.2	312.450	0.160	-0.910	-0.020
2020/01/31 08:54:21.3	312.460	0.140	-0.930	-0.080
2020/01/31 08:54:21.4	312.480	0.130	-0.940	-0.140
2020/01/31 08:54:21.5	312.500	0.110	-0.950	-0.200
2020/01/31 08:54:21.6	312.520	0.090	-0.950	-0.250
2020/01/31 08:54:21.7	312.540	0.070	-0.950	-0.300
2020/01/31 08:54:21.8	312.560	0.050	-0.940	-0.350
2020/01/31 08:54:21.9	312.580	0.040	-0.930	-0.390
2020/01/31 08:54:22.0	312.600	0.020	-0.910	-0.430
2020/01/31 08:54:22.1	312.620	0.000	-0.890	-0.470
2020/01/31 08:54:22.2	312.640	-0.020	-0.870	-0.500
2020/01/31 08:54:22.3	312.670	-0.030	-0.840	-0.530
2020/01/31 08:54:22.4	312.690	-0.050	-0.810	-0.550
2020/01/31 08:54:22.5	312.710	-0.060	-0.770	-0.570
2020/01/31 08:54:22.6	312.730	-0.080	-0.730	-0.590
2020/01/31 08:54:22.7	312.750	-0.090	-0.690	-0.600
2020/01/31 08:54:22.8	312.770	-0.100	-0.650	-0.600
2020/01/31 08:54:22.9	312.790	-0.120	-0.610	-0.610
2020/01/31 08:54:23.0	312.800	-0.130	-0.560	-0.610
2020/01/31 08:54:23.1	312.820	-0.140	-0.520	-0.600
2020/01/31 08:54:23.2	312.830	-0.140	-0.470	-0.600
2020/01/31 08:54:23.3	312.850	-0.150	-0.430	-0.590
2020/01/31 08:54:23.4	312.870	-0.160	-0.380	-0.570
2020/01/31 08:54:23.5	312.880	-0.170	-0.340	-0.560
2020/01/31 08:54:23.6	312.890	-0.170	-0.290	-0.540
2020/01/31 08:54:23.7	312.900	-0.180	-0.250	-0.530
2020/01/31 08:54:23.8	312.910	-0.180	-0.220	-0.510
2020/01/31 08:54:23.9	312.910	-0.190	-0.180	-0.490
2020/01/31 08:54:24.0	312.920	-0.190	-0.150	-0.470
2020/01/31 08:54:24.1	312.930	-0.190	-0.120	-0.450
2020/01/31 08:54:24.2	312.930	-0.200	-0.090	-0.430
2020/01/31 08:54:24.3	312.940	-0.200	-0.060	-0.410
2020/01/31 08:54:24.4	312.940	-0.210	-0.040	-0.390
2020/01/31 08:54:24.5	312.940	-0.210	-0.020	-0.370
2020/01/31 08:54:24.6	312.950	-0.220	-0.010	-0.350
2020/01/31 08:54:24.7	312.960	-0.220	0.010	-0.330
2020/01/31 08:54:24.8	312.960	-0.230	0.020	-0.310
2020/01/31 08:54:24.9	312.970	-0.240	0.030	-0.280
2020/01/31 08:54:25.0	312.980	-0.240	0.040	-0.260
2020/01/31 08:54:25.1	312.980	-0.250	0.050	-0.240
2020/01/31 08:54:25.2	312.990	-0.260	0.060	-0.220
2020/01/31 08:54:25.3	312.990	-0.270	0.060	-0.190
2020/01/31 08:54:25.4	312.990	-0.280	0.070	-0.170
2020/01/31 08:54:25.5	312.990	-0.290	0.070	-0.140
2020/01/31 08:54:25.6	313.000	-0.300	0.080	-0.120
2020/01/31 08:54:25.7	313.000	-0.310	0.090	-0.090
2020/01/31 08:54:25.8	313.000	-0.320	0.090	-0.070
2020/01/31 08:54:25.9	313.010	-0.340	0.100	-0.040
2020/01/31 08:54:26.0	313.010	-0.350	0.110	-0.020
2020/01/31 08:54:26.1	313.010	-0.360	0.120	0.010
2020/01/31 08:54:26.2	313.010	-0.370	0.130	0.040
2020/01/31 08:54:26.3	313.010	-0.390	0.140	0.070
2020/01/31 08:54:26.4	313.000	-0.400	0.160	0.110
2020/01/31 08:54:26.5	313.000	-0.410	0.170	0.140
2020/01/31 08:54:26.6	313.000	-0.420	0.180	0.170
2020/01/31 08:54:26.7	313.000	-0.430	0.200	0.200
2020/01/31 08:54:26.8	313.000	-0.430	0.210	0.240
2020/01/31 08:54:26.9	312.990	-0.440	0.230	0.270
2020/01/31 08:54:27.0	312.990	-0.440	0.240	0.300
2020/01/31 08:54:27.1	312.990	-0.450	0.260	0.340
2020/01/31 08:54:27.2	312.980	-0.450	0.270	0.370
2020/01/31 08:54:27.3	312.970	-0.450	0.290	0.400
2020/01/31 08:54:27.4	312.950	-0.450	0.300	0.430
2020/01/31 08:54:27.5	312.940	-0.440	0.310	0.470
2020/01/31 08:54:27.6	312.930	-0.440	0.310	0.500
2020/01/31 08:54:27.7	312.910	-0.430	0.320	0.530
2020/01/31 08:54:27.8	312.900	-0.420	0.320	0.550
2020/01/31 08:54:27.9	312.880	-0.410	0.320	0.580
2020/01/31 08:54:28.0	312.870	-0.390	0.320	0.610
2020/01/31 08:54:28.1	312.850	-0.380	0.310	0.630
2020/01/31 08:54:28.2	312.830	-0.360	0.300	0.650
2020/01/31 08:54:28.3	312.810	-0.340	0.280	0.670
2020/01/31 08:54:28.4	312.770	-0.320	0.260	0.680
2020/01/31 08:54:28.5	312.750	-0.290	0.240	0.700
2020/01/31 08:54:28.6	312.730	-0.270	0.210	0.710
2020/01/31 08:54:28.7	312.700	-0.240	0.180	0.720
2020/01/31 08:54:28.8	312.680	-0.210	0.140	0.730
2020/01/31 08:54:28.9	312.660	-0.180	0.100	0.740
2020/01/31 08:54:29.0	312.640	-0.150	0.060	0.740
2020/01/31 08:54:29.1	312.630	-0.110	0.010	0.750
2020/01/31 08:54:29.2	312.610	-0.080	-0.040	0.750
2020/01/31 08:54:29.3	312.590	-0.040	-0.090	0.750
2020/01/31 08:54:29.4	312.570	-0.000	-0.150	0.750
2020/01/31 08:54:29.5	312.560	0.030	-0.210	0.750
2020/01/31 08:54:29.6	312.550	0.070	-0.270	0.750
2020/01/31 08:54:29.7	312.530	0.110	-0.330	0.740
2020/01/31 08:54:29.8	312.520	0.160	-0.390	0.740
2020/01/31 08:54:29.9	312.510	0.200	-0.450	0.740
2020/01/31 08:54:30.0	312.500	0.240	-0.510	0.730
2020/01/31 08:54:30.1	312.500	0.280	-0.570	0.730
2020/01/31 08:54:30.2	312.490	0.320	-0.630	0.720
2020/01/31 08:54:30.3	312.480	0.360	-0.690	0.710
2020/01/31 08:54:30.4	312.470	0.410	-0.750	0.710
2020/01/31 08:54:30.5	312.460	0.450	-0.800	0.710
2020/01/31 08:54:30.6	312.460	0.480	-0.850	0.700
2020/01/31 08:54:30.7	312.460	0.520	-0.900	0.690
2020/01/31 08:54:30.8	312.450	0.560	-0.940	0.680
2020/01/31 08:54:30.9	312.450	0.590	-0.980	0.670
2020/01/31 08:54:31.0	312.450	0.620	-1.010	0.660
2020/01/31 08:54:31.1	312.450	0.650	-1.040	0.660
2020/01/31 08:54:31.2	312.450	0.680	-1.060	0.650
2020/01/31 08:54:31.3	312.450	0.700	-1.080	0.640
2020/01/31 08:54:31.4	312.440	0.720	-1.090	0.620
2020/01/31 08:54:31.5	312.440	0.740	-1.090	0.610
2020/01/31 08:54:31.6	312.440	0.750	-1.100	0.600
2020/01/31 08:54:31.7	312.450	0.760	-1.090	0.580
2020/01/31 08:54:31.8	312.460	0.770	-1.080	0.570
2020/01/31 08:54:31.9	312.460	0.770	-1.060	0.560
2020/01/31 08:54:32.0	312.470	0.760	-1.040	0.540
2020/01/31 08:54:32.1	312.480	0.760	-1.020	0.530
2020/01/31 08:54:32.2	312.490	0.750	-0.990	0.510
2020/01/31 08:54:32.3	312.490	0.730	-0.950	0.490
2020/01/31 08:54:32.4	312.530	0.710	-0.910	0.480
2020/01/31 08:54:32.5	312.540	0.690	-0.870	0.460
2020/01/31 08:54:32.6	312.550	0.660	-0.820	0.440
2020/01/31 08:54:32.7	312.560	0.630	-0.770	0.420
2020/01/31 08:54:32.8	312.570	0.600	-0.720	0.400
2020/01/31 08:54:32.9	312.580	0.560	-0.670	0.380
2020/01/31 08:54:33.0	312.590	0.520	-0.610	0.350
2020/01/31 08:54:33.1	312.610	0.480	-0.550	0.330
2020/01/31 08:54:33.2	312.620	0.430	-0.490	0.300
2020/01/31 08:54:33.3	312.630	0.380	-0.440	0.270
2020/01/31 08:54:33.4	312.630	0.340	-0.380	0.240
2020/01/31 08:54:33.5	312.650	0.290	-0.320	0.210
2020/01/31 08:54:33.6	312.660	0.240	-0.260	0.170
2020/01/31 08:54:33.7	312.680	0.180	-0.210	0.140
2020/01/31 08:54:33.8	312.700	0.130	-0.150	0.110
2020/01/31 08:54:33.9	312.720	0.080	-0.100	0.070
2020/01/31 08:54:34.0	312.740	0.030	-0.050	0.030
2020/01/31 08:54:34.1	312.760	-0.020	-0.010	-0.000
2020/01/31 08:54:34.2	312.770	-0.070	0.040	-0.040
2020/01/31 08:54:34.3	312.790	-0.120	0.080	-0.070
2020/01/31 08:54:34.4	312.790	-0.160	0.120	-0.110
2020/01/31 08:54:34.5	312.800	-0.210	0.150	-0.140
2020/01/31 08:54:34.6	312.820	-0.250	0.180	-0.170
2020/01/31 08:54:34.7	312.830	-0.290	0.210	-0.200
2020/01/31 08:54:34.8	312.850	-0.330	0.240	-0.220
2020/01/31 08:54:34.9	312.860	-0.360	0.270	-0.250
2020/01/31 08:54:35.0	312.870	-0.400	0.290	-0.270
2020/01/31 08:54:35.1	312.870	-0.430	0.310	-0.290
2020/01/31 08:54:35.2	312.880	-0.450	0.320	-0.300
2020/01/31 08:54:35.3	312.880	-0.480	0.330	-0.320
2020/01/31 08:54:35.4	312.870	-0.500	0.340	-0.330
2020/01/31 08:54:35.5	312.870	-0.520	0.350	-0.330
2020/01/31 08:54:35.6	312.870	-0.530	0.360	-0.340
2020/01/31 08:54:35.7	312.860	-0.550	0.360	-0.340
2020/01/31 08:54:35.8	312.860	-0.560	0.360	-0.330
2020/01/31 08:54:35.9	312.850	-0.570	0.360	-0.330
2020/01/31 08:54:36.0	312.840	-0.570	0.350	-0.320
2020/01/31 08:54:36.1	312.830	-0.570	0.340	-0.310
2020/01/31 08:54:36.2	312.820	-0.570	0.330	-0.300
2020/01/31 08:54:36.3	312.810	-0.570	0.320	-0.280
2020/01/31 08:54:36.4	312.800	-0.560	0.310	-0.260
2020/01/31 08:54:36.5	312.790	-0.550	0.290	-0.240
2020/01/31 08:54:36.6	312.770	-0.540	0.270	-0.220
2020/01/31 08:54:36.7	312.760	-0.530	0.260	-0.200
2020/01/31 08:54:36.8	312.750	-0.510	0.230	-0.170
2020/01/31 08:54:36.9	312.730	-0.500	0.210	-0.150
2020/01/31 08:54:37.0	312.720	-0.480	0.190	-0.120
2020/01/31 08:54:37.1	312.710	-0.460	0.160	-0.100
2020/01/31 08:54:37.2	312.690	-0.440	0.140	-0.070
2020/01/31 08:54:37.3	312.680	-0.410	0.110	-0.040
2020/01/31 08:54:37.4	312.680	-0.390	0.080	-0.010
2020/01/31 08:54:37.5	312.660	-0.360	0.060	0.020
2020/01/31 08:54:37.6	312.650	-0.330	0.030	0.050
2020/01/31 08:54:37.7	312.640	-0.310	-0.000	0.080
2020/01/31 08:54:37.8	312.620	-0.280	-0.030	0.120
2020/01/31 08:54:37.9	312.610	-0.250	-0.050	0.150
2020/01/31 08:54:38.0	312.600	-0.220	-0.080	0.180
2020/01/31 08:54:38.1	312.580	-0.190	-0.110	0.220
2020/01/31 08:54:38.2	312.570	-0.160	-0.130	0.260
2020/01/31 08:54:38.3	312.550	-0.130	-0.160	0.290
2020/01/31 08:54:38.4	312.540	-0.100	-0.180	0.330
2020/01/31 08:54:38.5	312.530	-0.070	-0.200	0.370
2020/01/31 08:54:38.6	312.520	-0.040	-0.220	0.410
2020/01/31 08:54:38.7	312.500	-0.010	-0.250	0.440
2020/01/31 08:54:38.8	312.490	0.020	-0.270	0.480
2020/01/31 08:54:38.9	312.480	0.050	-0.290	0.520
2020/01/31 08:54:39.0	312.470	0.080	-0.310	0.550
2020/01/31 08:54:39.1	312.460	0.100	-0.320	0.590
2020/01/31 08:54:39.2	312.450	0.130	-0.340	0.620
2020/01/31 08:54:39.3	312.440	0.150	-0.360	0.650
2020/01/31 08:54:39.4	312.440	0.180	-0.380	0.680
2020/01/31 08:54:39.5	312.430	0.200	-0.400	0.710
2020/01/31 08:54:39.6	312.430	0.220	-0.420	0.730
2020/01/31 08:54:39.7	312.430	0.240	-0.440	0.750
2020/01/31 08:54:39.8	312.430	0.260	-0.460	0.770
2020/01/31 08:54:39.9	312.430	0.280	-0.470	0.790
2020/01/31 08:54:40.0	312.430	0.290	-0.490	0.800
2020/01/31 08:54:40.1	312.440	0.310	-0.510	0.810
2020/01/31 08:54:40.2	312.440	0.320	-0.530	0.820
2020/01/31 08:54:40.3	312.450	0.340	-0.550	0.830
2020/01/31 08:54:40.4	312.450	0.350	-0.560	0.830
2020/01/31 08:54:40.5	312.460	0.350	-0.580	0.830
2020/01/31 08:54:40.6	312.470	0.360	-0.600	0.830
2020/01/31 08:54:40.7	312.480	0.370	-0.610	0.830
2020/01/31 08:54:40.8	312.490	0.370	-0.630	0.820
2020/01/31 08:54:40.9	312.500	0.370	-0.640	0.820
2020/01/31 08:54:41.0	312.510	0.370	-0.650	0.810
2020/01/31 08:54:41.1	312.520	0.370	-0.660	0.790
2020/01/31 08:54:41.2	312.530	0.370	-0.670	0.780
2020/01/31 08:54:41.3	312.540	0.360	-0.680	0.770
2020/01/31 08:54:41.4	312.550	0.350	-0.690	0.750
2020/01/31 08:54:41.5	312.560	0.350	-0.690	0.740
2020/01/31 08:54:41.6	312.560	0.340	-0.700	0.720
2020/01/31 08:54:41.7	312.570	0.320	-0.700	0.700
2020/01/31 08:54:41.8	312.580	0.310	-0.690	0.680
2020/01/31 08:54:41.9	312.590	0.300	-0.690	0.660
2020/01/31 08:54:42.0	312.590	0.280	-0.680	0.630
2020/01/31 08:54:42.1	312.600	0.260	-0.670	0.610
2020/01/31 08:54:42.2	312.600	0.240	-0.660	0.580
2020/01/31 08:54:42.3	312.600	0.220	-0.650	0.560
2020/01/31 08:54:42.4	312.610	0.200	-0.640	0.530
2020/01/31 08:54:42.5	312.610	0.180	-0.620	0.500
2020/01/31 08:54:42.6	312.620	0.160	-0.600	0.470
2020/01/31 08:54:42.7	312.620	0.130	-0.570	0.440
2020/01/31 08:54:42.8	312.620	0.110	-0.550	0.420
2020/01/31 08:54:42.9	312.620	0.080	-0.520	0.390
2020/01/31 08:54:43.0	312.620	0.050	-0.490	0.360
2020/01/31 08:54:43.1	312.620	0.020	-0.460	0.330
2020/01/31 08:54:43.2	312.620	-0.010	-0.420	0.300
2020/01/31 08:54:43.3	312.620	-0.040	-0.390	0.270
2020/01/31 08:54:43.4	312.610	-0.070	-0.350	0.240
2020/01/31 08:54:43.5	312.610	-0.100	-0.320	0.210
2020/01/31 08:54:43.6	312.610	-0.130	-0.280	0.180
2020/01/31 08:54:43.7	312.610	-0.160	-0.240	0.140
2020/01/31 08:54:43.8	312.610	-0.190	-0.200	0.110
2020/01/31 08:54:43.9	312.620	-0.220	-0.170	0.080
2020/01/31 08:54:44.0	312.620	-0.260	-0.130	0.050
2020/01/31 08:54:44.1	312.620	-0.290	-0.090	0.020
2020/01/31 08:54:44.2	312.620	-0.320	-0.060	-0.020
2020/01/31 08:54:44.3	312.630	-0.350	-0.020	-0.050
2020/01/31 08:54:44.4	312.620	-0.380	0.020	-0.090
2020/01/31 08:54:44.5	312.630	-0.400	0.050	-0.120
2020/01/31 08:54:44.6	312.630	-0.430	0.080	-0.160
2020/01/31 08:54:44.7	312.640	-0.460	0.110	-0.190
2020/01/31 08:54:44.8	312.650	-0.480	0.140	-0.220
2020/01/31 08:54:44.9	312.650	-0.500	0.160	-0.250
2020/01/31 08:54:45.0	312.660	-0.520	0.190	-0.280
2020/01/31 08:54:45.1	312.660	-0.540	0.210	-0.310
2020/01/31 08:54:45.2	312.670	-0.550	0.230	-0.340
2020/01/31 08:54:45.3	312.670	-0.560	0.250	-0.360
2020/01/31 08:54:45.4	312.680	-0.570	0.270	-0.380
2020/01/31 08:54:45.5	312.680	-0.580	0.280	-0.400
2020/01/31 08:54:45.6	312.680	-0.580	0.290	-0.420
2020/01/31 08:54:45.7	312.680	-0.580	0.310	-0.430
2020/01/31 08:54:45.8	312.680	-0.580	0.310	-0.440
2020/01/31 08:54:45.9	312.680	-0.580	0.320	-0.450
2020/01/31 08:54:46.0	312.680	-0.570	0.330	-0.450
2020/01/31 08:54:46.1	312.670	-0.550	0.330	-0.450
2020/01/31 08:54:46.2	312.670	-0.540	0.330	-0.450
2020/01/31 08:54:46.3	312.660	-0.520	0.330	-0.440
2020/01/31 08:54:46.4	312.670	-0.500	0.330	-0.440
2020/01/31 08:54:46.5	312.660	-0.470	0.320	-0.420
2020/01/31 08:54:46.6	312.660	-0.440	0.310	-0.410
2020/01/31 08:54:46.7	312.650	-0.410	0.300	-0.390
2020/01/31 08:54:46.8	312.650	-0.380	0.290	-0.360
2020/01/31 08:54:46.9	312.640	-0.340	0.270	-0.340
2020/01/31 08:54:47.0	312.640	-0.300	0.250	-0.310
2020/01/31 08:54:47.1	312.630	-0.260	0.230	-0.290
2020/01/31 08:54:47.2	312.630	-0.220	0.210	-0.260
2020/01/31 08:54:47.3	312.630	-0.180	0.190	-0.230
2020/01/31 08:54:47.4	312.630	-0.130	0.160	-0.190
2020/01/31 08:54:47.5	312.620	-0.090	0.130	-0.160
2020/01/31 08:54:47.6	312.620	-0.040	0.100	-0.130
2020/01/31 08:54:47.7	312.620	0.000	0.070	-0.090
2020/01/31 08:54:47.8	312.630	0.050	0.040	-0.050
2020/01/31 08:54:47.9	312.630	0.090	0.010	-0.020
2020/01/31 08:54:48.0	312.630	0.140	-0.030	0.020
2020/01/31 08:54:48.1	312.630	0.180	-0.060	0.060
2020/01/31 08:54:48.2	312.630	0.220	-0.100	0.100
2020/01/31 08:54:48.3	312.630	0.260	-0.140	0.140
2020/01/31 08:54:48.4	312.650	0.300	-0.170	0.180
2020/01/31 08:54:48.5	312.660	0.330	-0.210	0.210
2020/01/31 08:54:48.6	312.660	0.370	-0.250	0.250
2020/01/31 08:54:48.7	312.670	0.400	-0.280	0.280
2020/01/31 08:54:48.8	312.670	0.420	-0.320	0.320
2020/01/31 08:54:48.9	312.680	0.450	-0.350	0.350
2020/01/31 08:54:49.0	312.690	0.470	-0.390	0.380
2020/01/31 08:54:49.1	312.700	0.490	-0.420	0.410
2020/01/31 08:54:49.2	312.710	0.510	-0.460	0.440
2020/01/31 08:54:49.3	312.720	0.520	-0.490	0.470
2020/01/31 08:54:49.4	312.730	0.530	-0.520	0.500
2020/01/31 08:54:49.5	312.740	0.530	-0.550	0.530
2020/01/31 08:54:49.6	312.760	0.540	-0.580	0.550
2020/01/31 08:54:49.7	312.770	0.540	-0.600	0.570
2020/01/31 08:54:49.8	312.780	0.540	-0.630	0.600
2020/01/31 08:54:49.9	312.800	0.530	-0.650	0.620
2020/01/31 08:54:50.0	312.810	0.520	-0.670	0.630
2020/01/31 08:54:50.1	312.820	0.510	-0.680	0.650
2020/01/31 08:54:50.2	312.830	0.500	-0.690	0.670
2020/01/31 08:54:50.3	312.840	0.490	-0.700	0.680
2020/01/31 08:54:50.4	312.840	0.470	-0.700	0.690
2020/01/31 08:54:50.5	312.850	0.450	-0.710	0.700
2020/01/31 08:54:50.6	312.850	0.430	-0.710	0.720
2020/01/31 08:54:50.7	312.860	0.400	-0.710	0.730
2020/01/31 08:54:50.8	312.860	0.380	-0.700	0.740
2020/01/31 08:54:50.9	312.860	0.350	-0.690	0.750
2020/01/31 08:54:51.0	312.860	0.320	-0.680	0.760
2020/01/31 08:54:51.1	312.860	0.300	-0.670	0.760
2020/01/31 08:54:51.2	312.860	0.270	-0.660	0.770
2020/01/31 08:54:51.3	312.850	0.240	-0.640	0.780
2020/01/31 08:54:51.4	312.840	0.210	-0.630	0.790
2020/01/31 08:54:51.5	312.830	0.170	-0.610	0.790
2020/01/31 08:54:51.6	312.820	0.140	-0.590	0.800
2020/01/31 08:54:51.7	312.810	0.110	-0.570	0.800
2020/01/31 08:54:51.8	312.800	0.080	-0.550	0.800
2020/01/31 08:54:51.9	312.780	0.050	-0.530	0.800
2020/01/31 08:54:52.0	312.770	0.020	-0.510	0.800
2020/01/31 08:54:52.1	312.750	-0.000	-0.490	0.800
2020/01/31 08:54:52.2	312.740	-0.030	-0.480	0.800
2020/01/31 08:54:52.3	312.720	-0.060	-0.460	0.790
2020/01/31 08:54:52.4	312.700	-0.080	-0.450	0.780
2020/01/31 08:54:52.5	312.690	-0.100	-0.430	0.770
2020/01/31 08:54:52.6	312.670	-0.130	-0.420	0.750
2020/01/31 08:54:52.7	312.660	-0.140	-0.420	0.740
2020/01/31 08:54:52.8	312.650	-0.160	-0.410	0.720
2020/01/31 08:54:52.9	312.630	-0.180	-0.400	0.700
2020/01/31 08:54:53.0	312.620	-0.190	-0.400	0.670
2020/01/31 08:54:53.1	312.610	-0.210	-0.400	0.650
2020/01/31 08:54:53.2	312.600	-0.220	-0.400	0.620
2020/01/31 08:54:53.3	312.590	-0.230	-0.400	0.590
2020/01/31 08:54:53.4	312.590	-0.230	-0.410	0.560
2020/01/31 08:54:53.5	312.580	-0.240	-0.410	0.520
2020/01/31 08:54:53.6	312.570	-0.240	-0.420	0.490
2020/01/31 08:54:53.7	312.560	-0.240	-0.430	0.460
2020/01/31 08:54:53.8	312.560	-0.240	-0.430	0.420
2020/01/31 08:54:53.9	312.550	-0.240	-0.440	0.390
2020/01/31 08:54:54.0	312.540	-0.230	-0.450	0.350
2020/01/31 08:54:54.1	312.540	-0.230	-0.460	0.320
2020/01/31 08:54:54.2	312.530	-0.220	-0.460	0.280
2020/01/31 08:54:54.3	312.530	-0.210	-0.470	0.250
2020/01/31 08:54:54.4	312.520	-0.200	-0.480	0.210
2020/01/31 08:54:54.5	312.520	-0.190	-0.480	0.170
2020/01/31 08:54:54.6	312.520	-0.180	-0.490	0.140
2020/01/31 08:54:54.7	312.520	-0.170	-0.490	0.100
2020/01/31 08:54:54.8	312.530	-0.160	-0.490	0.070
2020/01/31 08:54:54.9	312.530	-0.140	-0.490	0.030
2020/01/31 08:54:55.0	312.540	-0.130	-0.480	-0.000
2020/01/31 08:54:55.1	312.540	-0.110	-0.480	-0.040
2020/01/31 08:54:55.2	312.550	-0.100	-0.470	-0.070
2020/01/31 08:54:55.3	312.560	-0.090	-0.460	-0.100
2020/01/31 08:54:55.4	312.570	-0.070	-0.440	-0.130
2020/01/31 08:54:55.5	312.580	-0.060	-0.430	-0.160
2020/01/31 08:54:55.6	312.590	-0.050	-0.400	-0.190
2020/01/31 08:54:55.7	312.590	-0.040	-0.380	-0.220
2020/01/31 08:54:55.8	312.600	-0.030	-0.350	-0.240
2020/01/31 08:54:55.9	312.610	-0.030	-0.320	-0.270
2020/01/31 08:54:56.0	312.610	-0.020	-0.290	-0.290
2020/01/31 08:54:56.1	312.620	-0.020	-0.250	-0.310
2020/01/31 08:54:56.2	312.620	-0.020	-0.210	-0.320
2020/01/31 08:54:56.3	312.620	-0.020	-0.170	-0.340
2020/01/31 08:54:56.4	312.630	-0.020	-0.130	-0.350
2020/01/31 08:54:56.5	312.630	-0.020	-0.080	-0.360
2020/01/31 08:54:56.6	312.630	-0.020	-0.040	-0.370
2020/01/31 08:54:56.7	312.620	-0.030	0.010	-0.380
2020/01/31 08:54:56.8	312.620	-0.040	0.060	-0.380
2020/01/31 08:54:56.9	312.610	-0.050	0.100	-0.380
2020/01/31 08:54:57.0	312.610	-0.060	0.150	-0.370
2020/01/31 08:54:57.1	312.600	-0.070	0.200	-0.370
2020/01/31 08:54:57.2	312.600	-0.080	0.250	-0.360
2020/01/31 08:54:57.3	312.590	-0.100	0.290	-0.350
2020/01/31 08:54:57.4	312.590	-0.110	0.340	-0.330
2020/01/31 08:54:57.5	312.590	-0.130	0.380	-0.310
2020/01/31 08:54:57.6	312.580	-0.140	0.420	-0.290
2020/01/31 08:54:57.7	312.580	-0.150	0.460	-0.270
2020/01/31 08:54:57.8	312.570	-0.170	0.490	-0.250
2020/01/31 08:54:57.9	312.570	-0.180	0.520	-0.230
2020/01/31 08:54:58.0	312.560	-0.190	0.550	-0.200
2020/01/31 08:54:58.1	312.560	-0.210	0.570	-0.180
2020/01/31 08:54:58.2	312.560	-0.220	0.590	-0.150
2020/01/31 08:54:58.3	312.550	-0.230	0.610	-0.130
2020/01/31 08:54:58.4	312.560	-0.230	0.620	-0.100
2020/01/31 08:54:58.5	312.550	-0.240	0.630	-0.070
2020/01/31 08:54:58.6	312.550	-0.240	0.640	-0.040
2020/01/31 08:54:58.7	312.550	-0.250	0.640	-0.010
2020/01/31 08:54:58.8	312.550	-0.250	0.630	0.020
2020/01/31 08:54:58.9	312.550	-0.240	0.620	0.050
2020/01/31 08:54:59.0	312.550	-0.240	0.610	0.080
2020/01/31 08:54:59.1	312.550	-0.230	0.600	0.110
2020/01/31 08:54:59.2	312.560	-0.220	0.580	0.140
2020/01/31 08:54:59.3	312.560	-0.210	0.560	0.170
2020/01/31 08:54:59.4	312.570	-0.200	0.530	0.200
2020/01/31 08:54:59.5	312.570	-0.180	0.500	0.230
2020/01/31 08:54:59.6	312.570	-0.170	0.470	0.260
2020/01/31 08:54:59.7	312.570	-0.140	0.440	0.290
2020/01/31 08:54:59.8	312.570	-0.120	0.410	0.320
2020/01/31 08:54:59.9	312.570	-0.100	0.370	0.350
2020/01/31 08:55:00.0	312.560	-0.070	0.330	0.390
2020/01/31 08:55:00.1	312.560	-0.050	0.290	0.420
2020/01/31 08:55:00.2	312.560	-0.020	0.240	0.450
2020/01/31 08:55:00.3	312.550	0.010	0.200	0.490
2020/01/31 08:55:00.4	312.540	0.040	0.150	0.520
2020/01/31 08:55:00.5	312.530	0.070	0.100	0.550
2020/01/31 08:55:00.6	312.530	0.100	0.050	0.580
2020/01/31 08:55:00.7	312.520	0.130	0.000	0.610
2020/01/31 08:55:00.8	312.510	0.160	-0.050	0.640
2020/01/31 08:55:00.9	312.510	0.180	-0.110	0.670
2020/01/31 08:55:01.0	312.500	0.210	-0.160	0.690
2020/01/31 08:55:01.1	312.500	0.240	-0.210	0.720
2020/01/31 08:55:01.2	312.500	0.260	-0.270	0.740
2020/01/31 08:55:01.3	312.490	0.290	-0.330	0.760
2020/01/31 08:55:01.4	312.480	0.310	-0.380	0.770
2020/01/31 08:55:01.5	312.470	0.330	-0.440	0.780
2020/01/31 08:55:01.6	312.470	0.350	-0.490	0.790
2020/01/31 08:55:01.7	312.470	0.360	-0.550	0.800
2020/01/31 08:55:01.8	312.480	0.380	-0.600	0.800
2020/01/31 08:55:01.9	312.480	0.390	-0.650	0.800
2020/01/31 08:55:02.0	312.480	0.400	-0.710	0.790
2020/01/31 08:55:02.1	312.490	0.410	-0.760	0.790
2020/01/31 08:55:02.2	312.490	0.410	-0.800	0.780
2020/01/31 08:55:02.3	312.500	0.410	-0.850	0.760
2020/01/31 08:55:02.4	312.510	0.420	-0.890	0.750
2020/01/31 08:55:02.5	312.510	0.410	-0.930	0.730
2020/01/31 08:55:02.6	312.520	0.410	-0.970	0.720
2020/01/31 08:55:02.7	312.530	0.410	-1.000	0.700
2020/01/31 08:55:02.8	312.530	0.400	-1.020	0.680
2020/01/31 08:55:02.9	312.540	0.390	-1.050	0.660
2020/01/31 08:55:03.0	312.540	0.380	-1.060	0.640
2020/01/31 08:55:03.1	312.550	0.370	-1.080	0.620
2020/01/31 08:55:03.2	312.550	0.360	-1.080	0.610
2020/01/31 08:55:03.3	312.550	0.340	-1.080	0.590
2020/01/31 08:55:03.4	312.570	0.320	-1.080	0.580
2020/01/31 08:55:03.5	312.560	0.310	-1.080	0.560
2020/01/31 08:55:03.6	312.560	0.290	-1.060	0.550
2020/01/31 08:55:03.7	312.550	0.270	-1.050	0.540
2020/01/31 08:55:03.8	312.550	0.250	-1.030	0.530
2020/01/31 08:55:03.9	312.540	0.230	-1.000	0.510
2020/01/31 08:55:04.0	312.530	0.200	-0.980	0.500
2020/01/31 08:55:04.1	312.520	0.180	-0.950	0.490
2020/01/31 08:55:04.2	312.510	0.160	-0.920	0.480
2020/01/31 08:55:04.3	312.500	0.130	-0.890	0.460
2020/01/31 08:55:04.4	312.500	0.110	-0.850	0.450
2020/01/31 08:55:04.5	312.490	0.080	-0.820	0.430
2020/01/31 08:55:04.6	312.480	0.060	-0.790	0.410
2020/01/31 08:55:04.7	312.470	0.030	-0.750	0.390
2020/01/31 08:55:04.8	312.460	0.010	-0.720	0.370
2020/01/31 08:55:04.9	312.450	-0.020	-0.690	0.350
2020/01/31 08:55:05.0	312.440	-0.040	-0.660	0.320
2020/01/31 08:55:05.1	312.430	-0.060	-0.630	0.290
2020/01/31 08:55:05.2	312.430	-0.090	-0.600	0.260
2020/01/31 08:55:05.3	312.420	-0.110	-0.570	0.230
2020/01/31 08:55:05.4	312.410	-0.130	-0.550	0.200
2020/01/31 08:55:05.5	312.410	-0.150	-0.530	0.160
2020/01/31 08:55:05.6	312.410	-0.170	-0.500	0.130
2020/01/31 08:55:05.7	312.420	-0.190	-0.480	0.090
2020/01/31 08:55:05.8	312.420	-0.210	-0.470	0.060
2020/01/31 08:55:05.9	312.430	-0.220	-0.450	0.020
2020/01/31 08:55:06.0	312.430	-0.240	-0.430	-0.020
2020/01/31 08:55:06.1	312.440	-0.260	-0.420	-0.060
2020/01/31 08:55:06.2	312.450	-0.270	-0.410	-0.090
2020/01/31 08:55:06.3	312.460	-0.290	-0.390	-0.130
2020/01/31 08:55:06.4	312.460	-0.300	-0.380	-0.170
2020/01/31 08:55:06.5	312.470	-0.310	-0.370	-0.200
2020/01/31 08:55:06.6	312.480	-0.320	-0.360	-0.230
2020/01/31 08:55:06.7	312.490	-0.330	-0.350	-0.260
2020/01/31 08:55:06.8	312.510	-0.340	-0.330	-0.290
2020/01/31 08:55:06.9	312.520	-0.350	-0.320	-0.310
2020/01/31 08:55:07.0	312.530	-0.350	-0.300	-0.330
2020/01/31 08:55:07.1	312.540	-0.360	-0.280	-0.350
2020/01/31 08:55:07.2	312.550	-0.360	-0.260	-0.370
2020/01/31 08:55:07.3	312.560	-0.370	-0.240	-0.380
2020/01/31 08:55:07.4	312.570	-0.370	-0.220	-0.380
2020/01/31 08:55:07.5	312.570	-0.370	-0.200	-0.390
2020/01/31 08:55:07.6	312.580	-0.370	-0.170	-0.390
2020/01/31 08:55:07.7	312.580	-0.370	-0.140	-0.380
2020/01/31 08:55:07.8	312.590	-0.360	-0.110	-0.370
2020/01/31 08:55:07.9	312.590	-0.360	-0.080	-0.360
2020/01/31 08:55:08.0	312.590	-0.360	-0.040	-0.350
2020/01/31 08:55:08.1	312.590	-0.350	-0.010	-0.320
2020/01/31 08:55:08.2	312.590	-0.340	0.030	-0.300
2020/01/31 08:55:08.3	312.590	-0.330	0.060	-0.270
2020/01/31 08:55:08.4	312.590	-0.320	0.100	-0.240
2020/01/31 08:55:08.5	312.580	-0.310	0.140	-0.200
2020/01/31 08:55:08.6	312.580	-0.290	0.180	-0.160
2020/01/31 08:55:08.7	312.570	-0.280	0.220	-0.120
2020/01/31 08:55:08.8	312.560	-0.260	0.250	-0.080
2020/01/31 08:55:08.9	312.540	-0.250	0.290	-0.030
2020/01/31 08:55:09.0	312.530	-0.230	0.320	0.020
2020/01/31 08:55:09.1	312.520	-0.210	0.360	0.070
2020/01/31 08:55:09.2	312.500	-0.190	0.390	0.120
2020/01/31 08:55:09.3	312.480	-0.160	0.410	0.170
2020/01/31 08:55:09.4	312.460	-0.140	0.440	0.230
2020/01/31 08:55:09.5	312.440	-0.120	0.460	0.290
2020/01/31 08:55:09.6	312.420	-0.090	0.480	0.340
2020/01/31 08:55:09.7	312.400	-0.060	0.490	0.400
2020/01/31 08:55:09.8	312.380	-0.040	0.500	0.450
2020/01/31 08:55:09.9	312.360	-0.010	0.510	0.510
2020/01/31 08:55:10.0	312.330	0.020	0.510	0.560
2020/01/31 08:55:10.1	312.310	0.050	0.510	0.620
2020/01/31 08:55:10.2	312.280	0.080	0.500	0.670
2020/01/31 08:55:10.3	312.260	0.110	0.490	0.720
2020/01/31 08:55:10.4	312.240	0.140	0.470	0.770
2020/01/31 08:55:10.5	312.210	0.170	0.450	0.820
2020/01/31 08:55:10.6	312.190	0.200	0.430	0.860
2020/01/31 08:55:10.7	312.170	0.230	0.400	0.910
2020/01/31 08:55:10.8	312.150	0.260	0.360	0.950
2020/01/31 08:55:10.9	312.130	0.290	0.330	0.980
2020/01/31 08:55:11.0	312.120	0.320	0.280	1.020
2020/01/31 08:55:11.1	312.100	0.340	0.240	1.050
2020/01/31 08:55:11.2	312.090	0.370	0.200	1.070
2020/01/31 08:55:11.3	312.080	0.390	0.150	1.090
2020/01/31 08:55:11.4	312.070	0.420	0.100	1.110
2020/01/31 08:55:11.5	312.070	0.440	0.050	1.130
2020/01/31 08:55:11.6	312.060	0.460	-0.010	1.140
2020/01/31 08:55:11.7	312.060	0.470	-0.060	1.140
2020/01/31 08:55:11.8	312.060	0.490	-0.120	1.140
2020/01/31 08:55:11.9	312.060	0.500	-0.170	1.140
2020/01/31 08:55:12.0	312.060	0.510	-0.220	1.130
2020/01/31 08:55:12.1	312.070	0.520	-0.280	1.110
2020/01/31 08:55:12.2	312.080	0.520	-0.330	1.100
2020/01/31 08:55:12.3	312.090	0.530	-0.380	1.070
2020/01/31 08:55:12.4	312.100	0.520	-0.430	1.050
2020/01/31 08:55:12.5	312.110	0.520	-0.480	1.020
2020/01/31 08:55:12.6	312.130	0.510	-0.520	0.990
2020/01/31 08:55:12.7	312.140	0.500	-0.560	0.950
2020/01/31 08:55:12.8	312.160	0.490	-0.600	0.910
2020/01/31 08:55:12.9	312.180	0.470	-0.630	0.860
2020/01/31 08:55:13.0	312.200	0.450	-0.660	0.810
2020/01/31 08:55:13.1	312.220	0.430	-0.690	0.760
2020/01/31 08:55:13.2	312.240	0.400	-0.710	0.700
2020/01/31 08:55:13.3	312.260	0.380	-0.730	0.640
2020/01/31 08:55:13.4	312.300	0.340	-0.750	0.580
2020/01/31 08:55:13.5	312.330	0.310	-0.760	0.520
2020/01/31 08:55:13.6	312.350	0.280	-0.760	0.450
2020/01/31 08:55:13.7	312.380	0.240	-0.770	0.380
2020/01/31 08:55:13.8	312.400	0.200	-0.770	0.310
2020/01/31 08:55:13.9	312.430	0.150	-0.760	0.240
2020/01/31 08:55:14.0	312.450	0.110	-0.750	0.170
2020/01/31 08:55:14.1	312.480	0.070	-0.740	0.100
2020/01/31 08:55:14.2	312.500	0.020	-0.720	0.030
2020/01/31 08:55:14.3	312.520	-0.030	-0.700	-0.040
2020/01/31 08:55:14.4	312.540	-0.070	-0.680	-0.110
2020/01/31 08:55:14.5	312.560	-0.120	-0.650	-0.180
2020/01/31 08:55:14.6	312.580	-0.170	-0.620	-0.240
2020/01/31 08:55:14.7	312.600	-0.210	-0.590	-0.300
2020/01/31 08:55:14.8	312.610	-0.260	-0.550	-0.360
2020/01/31 08:55:14.9	312.620	-0.300	-0.510	-0.410
2020/01/31 08:55:15.0	312.630	-0.350	-0.470	-0.470
2020/01/31 08:55:15.1	312.640	-0.390	-0.420	-0.520
2020/01/31 08:55:15.2	312.650	-0.430	-0.380	-0.560
2020/01/31 08:55:15.3	312.650	-0.470	-0.330	-0.600
2020/01/31 08:55:15.4	312.660	-0.500	-0.290	-0.630
2020/01/31 08:55:15.5	312.660	-0.530	-0.240	-0.670
2020/01/31 08:55:15.6	312.670	-0.560	-0.200	-0.690
2020/01/31 08:55:15.7	312.670	-0.580	-0.150	-0.720
2020/01/31 08:55:15.8	312.670	-0.610	-0.110	-0.730
2020/01/31 08:55:15.9	312.670	-0.620	-0.060	-0.750
2020/01/31 08:55:16.0	312.670	-0.640	-0.020	-0.760
2020/01/31 08:55:16.1	312.660	-0.650	0.010	-0.760
2020/01/31 08:55:16.2	312.660	-0.650	0.050	-0.760
2020/01/31 08:55:16.3	312.660	-0.650	0.080	-0.760
2020/01/31 08:55:16.4	312.660	-0.650	0.110	-0.750
2020/01/31 08:55:16.5	312.660	-0.640	0.140	-0.740
2020/01/31 08:55:16.6	312.650	-0.630	0.160	-0.720
2020/01/31 08:55:16.7	312.650	-0.610	0.180	-0.700
2020/01/31 08:55:16.8	312.640	-0.590	0.190	-0.670
2020/01/31 08:55:16.9	312.630	-0.570	0.200	-0.650
2020/01/31 08:55:17.0	312.620	-0.540	0.210	-0.610
2020/01/31 08:55:17.1	312.620	-0.510	0.210	-0.580
2020/01/31 08:55:17.2	312.610	-0.480	0.210	-0.540
2020/01/31 08:55:17.3	312.600	-0.440	0.210	-0.500
2020/01/31 08:55:17.4	312.600	-0.400	0.200	-0.450
2020/01/31 08:55:17.5	312.590	-0.360	0.190	-0.400
2020/01/31 08:55:17.6	312.580	-0.320	0.170	-0.350
2020/01/31 08:55:17.7	312.570	-0.270	0.150	-0.290
2020/01/31 08:55:17.8	312.560	-0.230	0.130	-0.240
2020/01/31 08:55:17.9	312.550	-0.180	0.100	-0.180
2020/01/31 08:55:18.0	312.530	-0.130	0.080	-0.120
2020/01/31 08:55:18.1	312.520	-0.090	0.050	-0.060
2020/01/31 08:55:18.2	312.510	-0.040	0.020	0.010
2020/01/31 08:55:18.3	312.490	0.010	-0.010	0.070
2020/01/31 08:55:18.4	312.480	0.050	-0.050	0.140
2020/01/31 08:55:18.5	312.460	0.090	-0.080	0.200
2020/01/31 08:55:18.6	312.450	0.140	-0.110	0.270
2020/01/31 08:55:18.7	312.430	0.180	-0.150	0.340
2020/01/31 08:55:18.8	312.420	0.210	-0.190	0.400
2020/01/31 08:55:18.9	312.400	0.250	-0.220	0.470
2020/01/31 08:55:19.0	312.390	0.280	-0.260	0.530
2020/01/31 08:55:19.1	312.370	0.310	-0.290	0.590
2020/01/31 08:55:19.2	312.360	0.340	-0.330	0.650
2020/01/31 08:55:19.3	312.340	0.360	-0.360	0.710
2020/01/31 08:55:19.4	312.320	0.390	-0.390	0.770
2020/01/31 08:55:19.5	312.310	0.400	-0.430	0.830
2020/01/31 08:55:19.6	312.300	0.420	-0.460	0.880
2020/01/31 08:55:19.7	312.290	0.430	-0.490	0.920
2020/01/31 08:55:19.8	312.280	0.440	-0.520	0.970
2020/01/31 08:55:19.9	312.270	0.450	-0.550	1.010
2020/01/31 08:55:20.0	312.260	0.460	-0.580	1.040
2020/01/31 08:55:20.1	312.250	0.460	-0.610	1.070
2020/01/31 08:55:20.2	312.240	0.460	-0.640	1.100
2020/01/31 08:55:20.3	312.230	0.460	-0.660	1.120
2020/01/31 08:55:20.4	312.200	0.450	-0.680	1.140
2020/01/31 08:55:20.5	312.200	0.450	-0.700	1.150
2020/01/31 08:55:20.6	312.190	0.440	-0.720	1.160
2020/01/31 08:55:20.7	312.190	0.430	-0.740	1.170
2020/01/31 08:55:20.8	312.180	0.420	-0.760	1.170
2020/01/31 08:55:20.9	312.170	0.400	-0.770	1.170
2020/01/31 08:55:21.0	312.170	0.390	-0.790	1.160
2020/01/31 08:55:21.1	312.170	0.370	-0.800	1.150
2020/01/31 08:55:21.2	312.160	0.350	-0.800	1.140
2020/01/31 08:55:21.3	312.160	0.330	-0.810	1.120
2020/01/31 08:55:21.4	312.160	0.310	-0.810	1.100
2020/01/31 08:55:21.5	312.160	0.290	-0.810	1.080
2020/01/31 08:55:21.6	312.160	0.270	-0.810	1.060
2020/01/31 08:55:21.7	312.160	0.250	-0.800	1.030
2020/01/31 08:55:21.8	312.160	0.230	-0.790	1.000
2020/01/31 08:55:21.9	312.170	0.200	-0.780	0.970
2020/01/31 08:55:22.0	312.170	0.180	-0.770	0.940
2020/01/31 08:55:22.1	312.170	0.160	-0.750	0.900
2020/01/31 08:55:22.2	312.170	0.140	-0.740	0.870
2020/01/31 08:55:22.3	312.180	0.110	-0.710	0.830
2020/01/31 08:55:22.4	312.180	0.090	-0.690	0.800
2020/01/31 08:55:22.5	312.190	0.070	-0.670	0.760
2020/01/31 08:55:22.6	312.190	0.050	-0.640	0.720
2020/01/31 08:55:22.7	312.200	0.030	-0.610	0.690
2020/01/31 08:55:22.8	312.210	0.010	-0.580	0.650
2020/01/31 08:55:22.9	312.220	-0.010	-0.550	0.620
2020/01/31 08:55:23.0	312.230	-0.030	-0.510	0.590
2020/01/31 08:55:23.1	312.240	-0.050	-0.480	0.550
2020/01/31 08:55:23.2	312.250	-0.070	-0.440	0.520
2020/01/31 08:55:23.3	312.260	-0.080	-0.400	0.490
2020/01/31 08:55:23.4	312.260	-0.100	-0.360	0.460
2020/01/31 08:55:23.5	312.280	-0.110	-0.320	0.430
2020/01/31 08:55:23.6	312.290	-0.120	-0.280	0.400
2020/01/31 08:55:23.7	312.300	-0.140	-0.240	0.370
2020/01/31 08:55:23.8	312.310	-0.150	-0.200	0.330
2020/01/31 08:55:23.9	312.330	-0.160	-0.170	0.300
2020/01/31 08:55:24.0	312.340	-0.170	-0.130	0.270
2020/01/31 08:55:24.1	312.350	-0.180	-0.090	0.240
2020/01/31 08:55:24.2	312.370	-0.180	-0.060	0.210
2020/01/31 08:55:24.3	312.380	-0.190	-0.020	0.180
2020/01/31 08:55:24.4	312.380	-0.200	0.010	0.150
2020/01/31 08:55:24.5	312.400	-0.200	0.040	0.120
2020/01/31 08:55:24.6	312.410	-0.210	0.070	0.090
2020/01/31 08:55:24.7	312.420	-0.210	0.090	0.060
2020/01/31 08:55:24.8	312.440	-0.220	0.110	0.030
2020/01/31 08:55:24.9	312.450	-0.220	0.140	0.010
2020/01/31 08:55:25.0	312.460	-0.220	0.160	-0.020
2020/01/31 08:55:25.1	312.470	-0.220	0.170	-0.050
2020/01/31 08:55:25.2	312.480	-0.220	0.190	-0.070
2020/01/31 08:55:25.3	312.490	-0.230	0.200	-0.100
2020/01/31 08:55:25.4	312.500	-0.230	0.210	-0.120
2020/01/31 08:55:25.5	312.510	-0.220	0.210	-0.150
2020/01/31 08:55:25.6	312.520	-0.220	0.220	-0.170
2020/01/31 08:55:25.7	312.520	-0.220	0.220	-0.190
2020/01/31 08:55:25.8	312.530	-0.220	0.230	-0.210
2020/01/31 08:55:25.9	312.540	-0.220	0.230	-0.230
2020/01/31 08:55:26.0	312.540	-0.210	0.230	-0.250
2020/01/31 08:55:26.1	312.550	-0.210	0.220	-0.260
2020/01/31 08:55:26.2	312.550	-0.200	0.220	-0.280
2020/01/31 08:55:26.3	312.560	-0.200	0.210	-0.290
2020/01/31 08:55:26.4	312.560	-0.190	0.210	-0.310
2020/01/31 08:55:26.5	312.570	-0.190	0.200	-0.320
2020/01/31 08:55:26.6	312.570	-0.180	0.190	-0.330
2020/01/31 08:55:26.7	312.580	-0.180	0.180	-0.340
2020/01/31 08:55:26.8	312.580	-0.170	0.170	-0.350
2020/01/31 08:55:26.9	312.590	-0.160	0.160	-0.360
2020/01/31 08:55:27.0	312.590	-0.160	0.150	-0.370
2020/01/31 08:55:27.1	312.600	-0.150	0.140	-0.370
2020/01/31 08:55:27.2	312.610	-0.140	0.130	-0.370
2020/01/31 08:55:27.3	312.610	-0.140	0.110	-0.370
2020/01/31 08:55:27.4	312.610	-0.130	0.100	-0.370
2020/01/31 08:55:27.5	312.610	-0.120	0.090	-0.360
2020/01/31 08:55:27.6	312.620	-0.120	0.080	-0.360
2020/01/31 08:55:27.7	312.620	-0.110	0.070	-0.350
2020/01/31 08:55:27.8	312.620	-0.110	0.060	-0.340
2020/01/31 08:55:27.9	312.620	-0.100	0.050	-0.320
2020/01/31 08:55:28.0	312.620	-0.100	0.040	-0.300
2020/01/31 08:55:28.1	312.610	-0.090	0.030	-0.280
2020/01/31 08:55:28.2	312.610	-0.090	0.030	-0.260
2020/01/31 08:55:28.3	312.600	-0.080	0.020	-0.230
2020/01/31 08:55:28.4	312.590	-0.080	0.020	-0.200
2020/01/31 08:55:28.5	312.580	-0.080	0.020	-0.170
2020/01/31 08:55:28.6	312.570	-0.070	0.020	-0.140
2020/01/31 08:55:28.7	312.560	-0.070	0.020	-0.110
2020/01/31 08:55:28.8	312.550	-0.070	0.020	-0.070
2020/01/31 08:55:28.9	312.530	-0.070	0.020	-0.030
2020/01/31 08:55:29.0	312.520	-0.070	0.020	0.000
2020/01/31 08:55:29.1	312.500	-0.060	0.020	0.040
2020/01/31 08:55:29.2	312.480	-0.060	0.030	0.080
2020/01/31 08:55:29.3	312.470	-0.060	0.030	0.120
2020/01/31 08:55:29.4	312.440	-0.060	0.030	0.150
2020/01/31 08:55:29.5	312.420	-0.050	0.040	0.190
2020/01/31 08:55:29.6	312.400	-0.050	0.030	0.230
2020/01/31 08:55:29.7	312.380	-0.050	0.030	0.260
2020/01/31 08:55:29.8	312.360	-0.050	0.030	0.300
2020/01/31 08:55:29.9	312.340	-0.040	0.020	0.330
2020/01/31 08:55:30.0	312.330	-0.040	0.020	0.370
2020/01/31 08:55:30.1	312.310	-0.040	0.010	0.400
2020/01/31 08:55:30.2	312.290	-0.030	-0.010	0.430
2020/01/31 08:55:30.3	312.270	-0.030	-0.020	0.460
2020/01/31 08:55:30.4	312.250	-0.020	-0.040	0.490
2020/01/31 08:55:30.5	312.230	-0.010	-0.060	0.520
2020/01/31 08:55:30.6	312.210	-0.010	-0.080	0.550
2020/01/31 08:55:30.7	312.200	-0.000	-0.100	0.570
2020/01/31 08:55:30.8	312.180	0.010	-0.120	0.600
2020/01/31 08:55:30.9	312.170	0.020	-0.150	0.620
2020/01/31 08:55:31.0	312.150	0.030	-0.180	0.640
2020/01/31 08:55:31.1	312.140	0.040	-0.210	0.660
2020/01/31 08:55:31.2	312.130	0.050	-0.240	0.680
2020/01/31 08:55:31.3	312.120	0.060	-0.270	0.700
2020/01/31 08:55:31.4	312.110	0.070	-0.310	0.720
2020/01/31 08:55:31.5	312.100	0.080	-0.340	0.740
2020/01/31 08:55:31.6	312.090	0.090	-0.380	0.750
2020/01/31 08:55:31.7	312.080	0.110	-0.410	0.770
2020/01/31 08:55:31.8	312.070	0.120	-0.450	0.780
2020/01/31 08:55:31.9	312.070	0.130	-0.480	0.790
2020/01/31 08:55:32.0	312.060	0.140	-0.520	0.800
2020/01/31 08:55:32.1	312.060	0.150	-0.550	0.810
2020/01/31 08:55:32.2	312.050	0.160	-0.590	0.820
2020/01/31 08:55:32.3	312.050	0.180	-0.620	0.820
2020/01/31 08:55:32.4	312.040	0.190	-0.660	0.830
2020/01/31 08:55:32.5	312.040	0.200	-0.690	0.830
2020/01/31 08:55:32.6	312.040	0.210	-0.720	0.830
2020/01/31 08:55:32.7	312.040	0.210	-0.750	0.830
2020/01/31 08:55:32.8	312.040	0.220	-0.780	0.830
2020/01/31 08:55:32.9	312.050	0.230	-0.810	0.820
2020/01/31 08:55:33.0	312.050	0.230	-0.830	0.820
2020/01/31 08:55:33.1	312.060	0.240	-0.860	0.810
2020/01/31 08:55:33.2	312.070	0.240	-0.880	0.800
2020/01/31 08:55:33.3	312.080	0.240	-0.890	0.790
2020/01/31 08:55:33.4	312.080	0.240	-0.910	0.780
2020/01/31 08:55:33.5	312.090	0.240	-0.920	0.760
2020/01/31 08:55:33.6	312.090	0.240	-0.930	0.740
2020/01/31 08:55:33.7	312.100	0.230	-0.930	0.730
2020/01/31 08:55:33.8	312.110	0.230	-0.940	0.700
2020/01/31 08:55:33.9	312.120	0.220	-0.940	0.680
2020/01/31 08:55:34.0	312.140	0.220	-0.940	0.660
2020/01/31 08:55:34.1	312.150	0.210	-0.930	0.630
2020/01/31 08:55:34.2	312.160	0.200	-0.930	0.600
2020/01/31 08:55:34.3	312.170	0.190	-0.920	0.570
2020/01/31 08:55:34.4	312.190	0.180	-0.900	0.540
2020/01/31 08:55:34.5	312.200	0.160	-0.890	0.510
2020/01/31 08:55:34.6	312.220	0.150	-0.870	0.470
2020/01/31 08:55:34.7	312.240	0.140	-0.850	0.440
2020/01/31 08:55:34.8	312.250	0.120	-0.830	0.410
2020/01/31 08:55:34.9	312.270	0.110	-0.810	0.370
2020/01/31 08:55:35.0	312.280	0.090	-0.780	0.340
2020/01/31 08:55:35.1	312.300	0.080	-0.750	0.310
2020/01/31 08:55:35.2	312.310	0.060	-0.720	0.270
2020/01/31 08:55:35.3	312.320	0.050	-0.690	0.240
2020/01/31 08:55:35.4	312.340	0.030	-0.660	0.210
2020/01/31 08:55:35.5	312.350	0.020	-0.630	0.180
2020/01/31 08:55:35.6	312.360	0.000	-0.590	0.150
2020/01/31 08:55:35.7	312.370	-0.010	-0.560	0.120
2020/01/31 08:55:35.8	312.380	-0.030	-0.520	0.100
2020/01/31 08:55:35.9	312.390	-0.040	-0.480	0.070
2020/01/31 08:55:36.0	312.400	-0.060	-0.450	0.050
2020/01/31 08:55:36.1	312.400	-0.070	-0.410	0.020
2020/01/31 08:55:36.2	312.410	-0.080	-0.370	-0.000
2020/01/31 08:55:36.3	312.420	-0.090	-0.330	-0.020
2020/01/31 08:55:36.4	312.420	-0.110	-0.290	-0.050
2020/01/31 08:55:36.5	312.430	-0.120	-0.250	-0.070
2020/01/31 08:55:36.6	312.440	-0.120	-0.220	-0.090
2020/01/31 08:55:36.7	312.440	-0.130	-0.180	-0.100
2020/01/31 08:55:36.8	312.450	-0.140	-0.140	-0.120
2020/01/31 08:55:36.9	312.450	-0.140	-0.110	-0.130
2020/01/31 08:55:37.0	312.450	-0.150	-0.070	-0.140
2020/01/31 08:55:37.1	312.460	-0.150	-0.030	-0.150
2020/01/31 08:55:37.2	312.460	-0.160	0.000	-0.160
2020/01/31 08:55:37.3	312.460	-0.160	0.040	-0.160
2020/01/31 08:55:37.4	312.470	-0.160	0.070	-0.160
2020/01/31 08:55:37.5	312.470	-0.160	0.100	-0.160
2020/01/31 08:55:37.6	312.470	-0.150	0.140	-0.150
2020/01/31 08:55:37.7	312.470	-0.150	0.170	-0.140
2020/01/31 08:55:37.8	312.460	-0.150	0.200	-0.130
2020/01/31 08:55:37.9	312.460	-0.140	0.220	-0.120
2020/01/31 08:55:38.0	312.460	-0.130	0.250	-0.110
2020/01/31 08:55:38.1	312.460	-0.130	0.270	-0.090
2020/01/31 08:55:38.2	312.450	-0.120	0.290	-0.080
2020/01/31 08:55:38.3	312.450	-0.110	0.310	-0.060
2020/01/31 08:55:38.4	312.450	-0.100	0.330	-0.040
2020/01/31 08:55:38.5	312.450	-0.090	0.340	-0.020
2020/01/31 08:55:38.6	312.450	-0.080	0.350	-0.010
2020/01/31 08:55:38.7	312.450	-0.070	0.350	0.010
2020/01/31 08:55:38.8	312.460	-0.060	0.360	0.030
2020/01/31 08:55:38.9	312.460	-0.050	0.360	0.050
2020/01/31 08:55:39.0	312.460	-0.030	0.350	0.060
2020/01/31 08:55:39.1	312.470	-0.020	0.350	0.080
2020/01/31 08:55:39.2	312.470	-0.010	0.340	0.090
2020/01/31 08:55:39.3	312.480	0.000	0.330	0.100
2020/01/31 08:55:39.4	312.490	0.010	0.320	0.120
2020/01/31 08:55:39.5	312.500	0.030	0.310	0.130
2020/01/31 08:55:39.6	312.510	0.040	0.290	0.140
2020/01/31 08:55:39.7	312.520	0.050	0.270	0.150
2020/01/31 08:55:39.8	312.540	0.060	0.250	0.160
2020/01/31 08:55:39.9	312.550	0.070	0.230	0.170
2020/01/31 08:55:40.0	312.560	0.080	0.220	0.180
2020/01/31 08:55:40.1	312.570	0.090	0.200	0.200
2020/01/31 08:55:40.2	312.580	0.090	0.180	0.210
2020/01/31 08:55:40.3	312.590	0.100	0.160	0.220
2020/01/31 08:55:40.4	312.600	0.100	0.140	0.230
2020/01/31 08:55:40.5	312.610	0.100	0.130	0.250
2020/01/31 08:55:40.6	312.620	0.110	0.110	0.260
2020/01/31 08:55:40.7	312.630	0.100	0.100	0.280
2020/01/31 08:55:40.8	312.630	0.100	0.090	0.300
2020/01/31 08:55:40.9	312.640	0.100	0.080	0.320
2020/01/31 08:55:41.0	312.640	0.090	0.070	0.330
2020/01/31 08:55:41.1	312.640	0.080	0.060	0.350
2020/01/31 08:55:41.2	312.640	0.080	0.050	0.370
2020/01/31 08:55:41.3	312.640	0.070	0.050	0.390
2020/01/31 08:55:41.4	312.640	0.050	0.040	0.410
2020/01/31 08:55:41.5	312.640	0.040	0.040	0.430
2020/01/31 08:55:41.6	312.630	0.020	0.030	0.450
2020/01/31 08:55:41.7	312.630	0.010	0.030	0.460
2020/01/31 08:55:41.8	312.620	-0.010	0.020	0.480
2020/01/31 08:55:41.9	312.620	-0.030	0.020	0.490
2020/01/31 08:55:42.0	312.610	-0.050	0.010	0.510
2020/01/31 08:55:42.1	312.600	-0.070	0.000	0.520
2020/01/31 08:55:42.2	312.590	-0.090	-0.010	0.530
2020/01/31 08:55:42.3	312.580	-0.110	-0.020	0.540
2020/01/31 08:55:42.4	312.550	-0.140	-0.030	0.550
2020/01/31 08:55:42.5	312.530	-0.160	-0.040	0.560
2020/01/31 08:55:42.6	312.520	-0.180	-0.050	0.560
2020/01/31 08:55:42.7	312.500	-0.200	-0.070	0.570
2020/01/31 08:55:42.8	312.480	-0.220	-0.080	0.580
2020/01/31 08:55:42.9	312.460	-0.240	-0.100	0.580
2020/01/31 08:55:43.0	312.440	-0.260	-0.110	0.580
2020/01/31 08:55:43.1	312.410	-0.280	-0.130	0.580
2020/01/31 08:55:43.2	312.390	-0.290	-0.150	0.590
2020/01/31 08:55:43.3	312.360	-0.310	-0.170	0.580
2020/01/31 08:55:43.4	312.330	-0.320	-0.190	0.580
2020/01/31 08:55:43.5	312.310	-0.340	-0.210	0.580
2020/01/31 08:55:43.6	312.280	-0.350	-0.230	0.570
2020/01/31 08:55:43.7	312.260	-0.350	-0.260	0.560
2020/01/31 08:55:43.8	312.240	-0.360	-0.280	0.550
2020/01/31 08:55:43.9	312.210	-0.360	-0.310	0.530
2020/01/31 08:55:44.0	312.190	-0.360	-0.340	0.520
2020/01/31 08:55:44.1	312.170	-0.360	-0.370	0.500
2020/01/31 08:55:44.2	312.150	-0.360	-0.400	0.480
2020/01/31 08:55:44.3	312.140	-0.350	-0.440	0.450
2020/01/31 08:55:44.4	312.120	-0.340	-0.470	0.430
2020/01/31 08:55:44.5	312.100	-0.330	-0.510	0.400
2020/01/31 08:55:44.6	312.090	-0.320	-0.540	0.370
2020/01/31 08:55:44.7	312.080	-0.300	-0.580	0.340
2020/01/31 08:55:44.8	312.070	-0.280	-0.620	0.310
2020/01/31 08:55:44.9	312.070	-0.260	-0.660	0.280
2020/01/31 08:55:45.0	312.060	-0.240	-0.700	0.250
2020/01/31 08:55:45.1	312.050	-0.210	-0.740	0.220
2020/01/31 08:55:45.2	312.050	-0.190	-0.780	0.190
2020/01/31 08:55:45.3	312.050	-0.160	-0.810	0.160
2020/01/31 08:55:45.4	312.030	-0.130	-0.850	0.130
2020/01/31 08:55:45.5	312.030	-0.100	-0.890	0.110
2020/01/31 08:55:45.6	312.030	-0.070	-0.920	0.080
2020/01/31 08:55:45.7	312.030	-0.030	-0.950	0.060
2020/01/31 08:55:45.8	312.040	0.000	-0.980	0.040
2020/01/31 08:55:45.9	312.040	0.040	-1.010	0.020
2020/01/31 08:55:46.0	312.050	0.070	-1.030	0.010
2020/01/31 08:55:46.1	312.050	0.100	-1.050	-0.010
2020/01/31 08:55:46.2	312.060	0.140	-1.070	-0.020
2020/01/31 08:55:46.3	312.070	0.170	-1.080	-0.030
2020/01/31 08:55:46.4	312.090	0.210	-1.090	-0.040
2020/01/31 08:55:46.5	312.110	0.240	-1.100	-0.050
2020/01/31 08:55:46.6	312.120	0.270	-1.100	-0.060
2020/01/31 08:55:46.7	312.140	0.310	-1.110	-0.070
2020/01/31 08:55:46.8	312.160	0.340	-1.110	-0.080
2020/01/31 08:55:46.9	312.180	0.360	-1.100	-0.090
2020/01/31 08:55:47.0	312.210	0.390	-1.090	-0.100
2020/01/31 08:55:47.1	312.230	0.420	-1.080	-0.100
2020/01/31 08:55:47.2	312.260	0.440	-1.070	-0.110
2020/01/31 08:55:47.3	312.290	0.460	-1.050	-0.110
2020/01/31 08:55:47.4	312.340	0.480	-1.020	-0.110
2020/01/31 08:55:47.5	312.370	0.500	-1.000	-0.120
2020/01/31 08:55:47.6	312.400	0.510	-0.970	-0.110
2020/01/31 08:55:47.7	312.430	0.520	-0.940	-0.110
2020/01/31 08:55:47.8	312.460	0.530	-0.900	-0.110
2020/01/31 08:55:47.9	312.490	0.530	-0.860	-0.100
2020/01/31 08:55:48.0	312.520	0.530	-0.810	-0.090
2020/01/31 08:55:48.1	312.550	0.530	-0.770	-0.080
2020/01/31 08:55:48.2	312.570	0.530	-0.710	-0.060
2020/01/31 08:55:48.3	312.600	0.520	-0.660	-0.050
2020/01/31 08:55:48.4	312.630	0.500	-0.600	-0.030
2020/01/31 08:55:48.5	312.650	0.490	-0.540	-0.010
2020/01/31 08:55:48.6	312.670	0.470	-0.480	0.010
2020/01/31 08:55:48.7	312.690	0.450	-0.410	0.030
2020/01/31 08:55:48.8	312.710	0.420	-0.340	0.050
2020/01/31 08:55:48.9	312.720	0.390	-0.270	0.070
2020/01/31 08:55:49.0	312.730	0.360	-0.200	0.100
2020/01/31 08:55:49.1	312.750	0.330	-0.130	0.120
2020/01/31 08:55:49.2	312.760	0.300	-0.060	0.140
2020/01/31 08:55:49.3	312.770	0.260	0.010	0.160
2020/01/31 08:55:49.4	312.770	0.220	0.080	0.180
2020/01/31 08:55:49.5	312.780	0.180	0.150	0.200
2020/01/31 08:55:49.6	312.780	0.140	0.220	0.220
2020/01/31 08:55:49.7	312.790	0.100	0.280	0.240
2020/01/31 08:55:49.8	312.790	0.060	0.340	0.260
2020/01/31 08:55:49.9	312.800	0.010	0.400	0.280
2020/01/31 08:55:50.0	312.800	-0.030	0.460	0.290
2020/01/31 08:55:50.1	312.800	-0.070	0.510	0.310
2020/01/31 08:55:50.2	312.800	-0.110	0.560	0.320
2020/01/31 08:55:50.3	312.800	-0.150	0.610	0.330
2020/01/31 08:55:50.4	312.790	-0.190	0.650	0.340
2020/01/31 08:55:50.5	312.790	-0.230	0.680	0.350
2020/01/31 08:55:50.6	312.780	-0.260	0.710	0.360
2020/01/31 08:55:50.7	312.780	-0.290	0.740	0.360
2020/01/31 08:55:50.8	312.780	-0.320	0.760	0.360
2020/01/31 08:55:50.9	312.770	-0.350	0.780	0.360
2020/01/31 08:55:51.0	312.770	-0.380	0.790	0.360
2020/01/31 08:55:51.1	312.760	-0.400	0.800	0.350
2020/01/31 08:55:51.2	312.760	-0.420	0.800	0.350
2020/01/31 08:55:51.3	312.750	-0.440	0.800	0.340
2020/01/31 08:55:51.4	312.750	-0.450	0.790	0.330
2020/01/31 08:55:51.5	312.740	-0.460	0.770	0.330
2020/01/31 08:55:51.6	312.730	-0.470	0.760	0.320
2020/01/31 08:55:51.7	312.730	-0.470	0.740	0.310
2020/01/31 08:55:51.8	312.720	-0.470	0.710	0.300
2020/01/31 08:55:51.9	312.710	-0.470	0.680	0.290
2020/01/31 08:55:52.0	312.700	-0.470	0.650	0.280
2020/01/31 08:55:52.1	312.690	-0.460	0.620	0.270
2020/01/31 08:55:52.2	312.670	-0.450	0.580	0.260
2020/01/31 08:55:52.3	312.660	-0.440	0.550	0.250
2020/01/31 08:55:52.4	312.640	-0.420	0.510	0.230
2020/01/31 08:55:52.5	312.630	-0.410	0.470	0.230
2020/01/31 08:55:52.6	312.610	-0.390	0.430	0.220
2020/01/31 08:55:52.7	312.590	-0.370	0.390	0.210
2020/01/31 08:55:52.8	312.570	-0.350	0.350	0.210
2020/01/31 08:55:52.9	312.550	-0.320	0.310	0.200
2020/01/31 08:55:53.0	312.530	-0.300	0.270	0.190
2020/01/31 08:55:53.1	312.510	-0.270	0.230	0.190
2020/01/31 08:55:53.2	312.490	-0.250	0.190	0.190
2020/01/31 08:55:53.3	312.470	-0.220	0.160	0.180
2020/01/31 08:55:53.4	312.450	-0.200	0.120	0.180
2020/01/31 08:55:53.5	312.420	-0.170	0.090	0.180
2020/01/31 08:55:53.6	312.400	-0.150	0.050	0.180
2020/01/31 08:55:53.7	312.370	-0.120	0.020	0.180
2020/01/31 08:55:53.8	312.350	-0.100	-0.020	0.180
2020/01/31 08:55:53.9	312.330	-0.070	-0.050	0.180
2020/01/31 08:55:54.0	312.310	-0.050	-0.080	0.180
2020/01/31 08:55:54.1	312.290	-0.030	-0.110	0.180
2020/01/31 08:55:54.2	312.270	-0.010	-0.140	0.180
2020/01/31 08:55:54.3	312.250	0.010	-0.170	0.180
2020/01/31 08:55:54.4	312.240	0.030	-0.200	0.180
2020/01/31 08:55:54.5	312.220	0.050	-0.230	0.180
2020/01/31 08:55:54.6	312.210	0.060	-0.260	0.180
2020/01/31 08:55:54.7	312.190	0.080	-0.280	0.180
2020/01/31 08:55:54.8	312.180	0.090	-0.310	0.180
2020/01/31 08:55:54.9	312.170	0.100	-0.340	0.190
2020/01/31 08:55:55.0	312.160	0.110	-0.360	0.190
2020/01/31 08:55:55.1	312.150	0.120	-0.390	0.190
2020/01/31 08:55:55.2	312.150	0.130	-0.410	0.190
2020/01/31 08:55:55.3	312.140	0.140	-0.440	0.190
2020/01/31 08:55:55.4	312.130	0.140	-0.470	0.190
2020/01/31 08:55:55.5	312.130	0.140	-0.490	0.190
2020/01/31 08:55:55.6	312.130	0.150	-0.520	0.190
2020/01/31 08:55:55.7	312.120	0.150	-0.540	0.190
2020/01/31 08:55:55.8	312.120	0.150	-0.570	0.190
2020/01/31 08:55:55.9	312.120	0.150	-0.600	0.190
2020/01/31 08:55:56.0	312.120	0.150	-0.630	0.190
2020/01/31 08:55:56.1	312.110	0.140	-0.650	0.180
2020/01/31 08:55:56.2	312.110	0.140	-0.680	0.180
2020/01/31 08:55:56.3	312.110	0.140	-0.710	0.180
2020/01/31 08:55:56.4	312.110	0.130	-0.730	0.170
2020/01/31 08:55:56.5	312.100	0.130	-0.760	0.170
2020/01/31 08:55:56.6	312.100	0.120	-0.790	0.160
2020/01/31 08:55:56.7	312.100	0.120	-0.820	0.150
2020/01/31 08:55:56.8	312.100	0.120	-0.840	0.140
2020/01/31 08:55:56.9	312.110	0.110	-0.870	0.120
2020/01/31 08:55:57.0	312.110	0.110	-0.890	0.110
2020/01/31 08:55:57.1	312.110	0.110	-0.920	0.090
2020/01/31 08:55:57.2	312.120	0.100	-0.940	0.070
2020/01/31 08:55:57.3	312.120	0.100	-0.970	0.050
2020/01/31 08:55:57.4	312.130	0.100	-0.990	0.030
2020/01/31 08:55:57.5	312.140	0.100	-1.010	0.010
2020/01/31 08:55:57.6	312.150	0.100	-1.030	-0.010
2020/01/31 08:55:57.7	312.160	0.100	-1.050	-0.040
2020/01/31 08:55:57.8	312.180	0.110	-1.060	-0.060
2020/01/31 08:55:57.9	312.190	0.110	-1.080	-0.090
2020/01/31 08:55:58.0	312.200	0.110	-1.090	-0.110
2020/01/31 08:55:58.1	312.220	0.120	-1.100	-0.130
2020/01/31 08:55:58.2	312.240	0.120	-1.100	-0.150
2020/01/31 08:55:58.3	312.250	0.120	-1.110	-0.170
2020/01/31 08:55:58.4	312.260	0.130	-1.110	-0.190
2020/01/31 08:55:58.5	312.280	0.130	-1.110	-0.210
2020/01/31 08:55:58.6	312.300	0.130	-1.100	-0.220
2020/01/31 08:55:58.7	312.310	0.140	-1.090	-0.230
2020/01/31 08:55:58.8	312.330	0.140	-1.080	-0.240
2020/01/31 08:55:58.9	312.340	0.140	-1.070	-0.240
2020/01/31 08:55:59.0	312.350	0.150	-1.050	-0.250
2020/01/31 08:55:59.1	312.370	0.150	-1.040	-0.250
2020/01/31 08:55:59.2	312.380	0.150	-1.010	-0.240
2020/01/31 08:55:59.3	312.390	0.150	-0.990	-0.240
2020/01/31 08:55:59.4	312.410	0.150	-0.960	-0.230
2020/01/31 08:55:59.5	312.420	0.150	-0.940	-0.220
2020/01/31 08:55:59.6	312.430	0.150	-0.900	-0.210
2020/01/31 08:55:59.7	312.440	0.150	-0.870	-0.190
2020/01/31 08:55:59.8	312.450	0.150	-0.840	-0.170
2020/01/31 08:55:59.9	312.460	0.150	-0.800	-0.150
2020/01/31 08:56:00.0	312.470	0.140	-0.760	-0.130
2020/01/31 08:56:00.1	312.480	0.140	-0.720	-0.110
2020/01/31 08:56:00.2	312.490	0.140	-0.680	-0.080
2020/01/31 08:56:00.3	312.500	0.130	-0.630	-0.050
2020/01/31 08:56:00.4	312.520	0.130	-0.580	-0.020
2020/01/31 08:56:00.5	312.530	0.130	-0.540	0.010
2020/01/31 08:56:00.6	312.540	0.120	-0.490	0.040
2020/01/31 08:56:00.7	312.550	0.120	-0.440	0.070
2020/01/31 08:56:00.8	312.560	0.110	-0.390	0.100
2020/01/31 08:56:00.9	312.570	0.110	-0.340	0.130
2020/01/31 08:56:01.0	312.580	0.100	-0.280	0.170
2020/01/31 08:56:01.1	312.590	0.090	-0.230	0.200
2020/01/31 08:56:01.2	312.600	0.090	-0.180	0.230
2020/01/31 08:56:01.3	312.610	0.080	-0.130	0.260
2020/01/31 08:56:01.4	312.630	0.080	-0.070	0.290
2020/01/31 08:56:01.5	312.640	0.070	-0.020	0.320
2020/01/31 08:56:01.6	312.640	0.060	0.030	0.350
2020/01/31 08:56:01.7	312.650	0.050	0.080	0.380
2020/01/31 08:56:01.8	312.660	0.040	0.140	0.410
2020/01/31 08:56:01.9	312.670	0.030	0.190	0.440
2020/01/31 08:56:02.0	312.670	0.020	0.240	0.470
2020/01/31 08:56:02.1	312.680	0.010	0.290	0.500
2020/01/31 08:56:02.2	312.680	-0.000	0.340	0.530
2020/01/31 08:56:02.3	312.680	-0.020	0.390	0.550
2020/01/31 08:56:02.4	312.680	-0.030	0.430	0.580
2020/01/31 08:56:02.5	312.680	-0.040	0.480	0.610
2020/01/31 08:56:02.6	312.680	-0.060	0.520	0.630
2020/01/31 08:56:02.7	312.680	-0.070	0.570	0.660
2020/01/31 08:56:02.8	312.680	-0.090	0.610	0.680
2020/01/31 08:56:02.9	312.670	-0.110	0.640	0.700
2020/01/31 08:56:03.0	312.670	-0.120	0.680	0.720
2020/01/31 08:56:03.1	312.660	-0.140	0.710	0.740
2020/01/31 08:56:03.2	312.660	-0.160	0.740	0.760
2020/01/31 08:56:03.3	312.650	-0.170	0.770	0.770
2020/01/31 08:56:03.4	312.640	-0.190	0.790	0.780
2020/01/31 08:56:03.5	312.630	-0.210	0.810	0.790
2020/01/31 08:56:03.6	312.620	-0.220	0.830	0.800
2020/01/31 08:56:03.7	312.610	-0.240	0.840	0.810
2020/01/31 08:56:03.8	312.610	-0.250	0.850	0.810
2020/01/31 08:56:03.9	312.600	-0.270	0.860	0.820
2020/01/31 08:56:04.0	312.590	-0.280	0.860	0.820
2020/01/31 08:56:04.1	312.580	-0.290	0.860	0.810
2020/01/31 08:56:04.2	312.570	-0.310	0.850	0.810
2020/01/31 08:56:04.3	312.560	-0.320	0.840	0.800
2020/01/31 08:56:04.4	312.540	-0.330	0.820	0.790
2020/01/31 08:56:04.5	312.530	-0.330	0.800	0.780
2020/01/31 08:56:04.6	312.520	-0.340	0.780	0.760
2020/01/31 08:56:04.7	312.500	-0.350	0.750	0.750
2020/01/31 08:56:04.8	312.490	-0.350	0.720	0.730
2020/01/31 08:56:04.9	312.470	-0.360	0.690	0.710
2020/01/31 08:56:05.0	312.450	-0.360	0.650	0.680
2020/01/31 08:56:05.1	312.440	-0.360	0.610	0.660
2020/01/31 08:56:05.2	312.410	-0.360	0.560	0.640
2020/01/31 08:56:05.3	312.390	-0.360	0.520	0.610
2020/01/31 08:56:05.4	312.370	-0.350	0.470	0.580
2020/01/31 08:56:05.5	312.350	-0.350	0.420	0.560
2020/01/31 08:56:05.6	312.330	-0.340	0.360	0.530
2020/01/31 08:56:05.7	312.300	-0.330	0.310	0.500
2020/01/31 08:56:05.8	312.280	-0.320	0.250	0.470
2020/01/31 08:56:05.9	312.250	-0.310	0.190	0.450
2020/01/31 08:56:06.0	312.230	-0.290	0.130	0.420
2020/01/31 08:56:06.1	312.210	-0.280	0.070	0.390
2020/01/31 08:56:06.2	312.180	-0.260	0.010	0.370
2020/01/31 08:56:06.3	312.160	-0.240	-0.050	0.340
2020/01/31 08:56:06.4	312.150	-0.220	-0.100	0.310
2020/01/31 08:56:06.5	312.130	-0.200	-0.160	0.290
2020/01/31 08:56:06.6	312.110	-0.180	-0.220	0.260
2020/01/31 08:56:06.7	312.090	-0.150	-0.270	0.230
2020/01/31 08:56:06.8	312.080	-0.120	-0.330	0.200
2020/01/31 08:56:06.9	312.070	-0.100	-0.380	0.170
2020/01/31 08:56:07.0	312.060	-0.070	-0.430	0.140
2020/01/31 08:56:07.1	312.050	-0.040	-0.480	0.110
2020/01/31 08:56:07.2	312.050	-0.010	-0.530	0.080
2020/01/31 08:56:07.3	312.040	0.020	-0.580	0.050
2020/01/31 08:56:07.4	312.030	0.050	-0.620	0.020
2020/01/31 08:56:07.5	312.030	0.080	-0.670	-0.010
2020/01/31 08:56:07.6	312.040	0.110	-0.710	-0.040
2020/01/31 08:56:07.7	312.040	0.140	-0.740	-0.070
2020/01/31 08:56:07.8	312.050	0.170	-0.780	-0.090
2020/01/31 08:56:07.9	312.060	0.200	-0.810	-0.120
2020/01/31 08:56:08.0	312.070	0.230	-0.840	-0.140
2020/01/31 08:56:08.1	312.080	0.260	-0.870	-0.170
2020/01/31 08:56:08.2	312.090	0.290	-0.890	-0.180
2020/01/31 08:56:08.3	312.100	0.310	-0.910	-0.200
2020/01/31 08:56:08.4	312.120	0.330	-0.930	-0.220
2020/01/31 08:56:08.5	312.130	0.360	-0.940	-0.230
2020/01/31 08:56:08.6	312.140	0.380	-0.960	-0.240
2020/01/31 08:56:08.7	312.160	0.400	-0.970	-0.250
2020/01/31 08:56:08.8	312.170	0.410	-0.980	-0.250
2020/01/31 08:56:08.9	312.180	0.430	-0.980	-0.250
2020/01/31 08:56:09.0	312.200	0.440	-0.980	-0.250
2020/01/31 08:56:09.1	312.210	0.450	-0.980	-0.250
2020/01/31 08:56:09.2	312.230	0.460	-0.980	-0.240
2020/01/31 08:56:09.3	312.240	0.460	-0.980	-0.240
2020/01/31 08:56:09.4	312.270	0.460	-0.970	-0.220
2020/01/31 08:56:09.5	312.290	0.460	-0.960	-0.210
2020/01/31 08:56:09.6	312.310	0.460	-0.950	-0.200
2020/01/31 08:56:09.7	312.320	0.460	-0.940	-0.190
2020/01/31 08:56:09.8	312.340	0.450	-0.920	-0.180
2020/01/31 08:56:09.9	312.360	0.440	-0.910	-0.160
2020/01/31 08:56:10.0	312.380	0.420	-0.900	-0.150
2020/01/31 08:56:10.1	312.400	0.410	-0.880	-0.130
2020/01/31 08:56:10.2	312.420	0.390	-0.860	-0.120
2020/01/31 08:56:10.3	312.430	0.370	-0.850	-0.100
2020/01/31 08:56:10.4	312.450	0.350	-0.830	-0.090
2020/01/31 08:56:10.5	312.470	0.320	-0.810	-0.080
2020/01/31 08:56:10.6	312.480	0.300	-0.790	-0.060
2020/01/31 08:56:10.7	312.490	0.270	-0.770	-0.040
2020/01/31 08:56:10.8	312.500	0.240	-0.750	-0.030
2020/01/31 08:56:10.9	312.510	0.210	-0.730	-0.010
2020/01/31 08:56:11.0	312.520	0.170	-0.710	0.000
2020/01/31 08:56:11.1	312.530	0.140	-0.690	0.020
2020/01/31 08:56:11.2	312.530	0.110	-0.670	0.040
2020/01/31 08:56:11.3	312.540	0.080	-0.650	0.050
2020/01/31 08:56:11.4	312.530	0.040	-0.620	0.070
2020/01/31 08:56:11.5	312.530	0.010	-0.600	0.090
2020/01/31 08:56:11.6	312.530	-0.020	-0.580	0.100
2020/01/31 08:56:11.7	312.530	-0.050	-0.550	0.110
2020/01/31 08:56:11.8	312.530	-0.080	-0.530	0.130
2020/01/31 08:56:11.9	312.530	-0.110	-0.510	0.140
2020/01/31 08:56:12.0	312.530	-0.130	-0.490	0.150
2020/01/31 08:56:12.1	312.530	-0.160	-0.470	0.160
2020/01/31 08:56:12.2	312.530	-0.180	-0.450	0.170
2020/01/31 08:56:12.3	312.540	-0.200	-0.430	0.180
2020/01/31 08:56:12.4	312.530	-0.220	-0.410	0.180
2020/01/31 08:56:12.5	312.530	-0.230	-0.390	0.190
2020/01/31 08:56:12.6	312.540	-0.250	-0.370	0.190
2020/01/31 08:56:12.7	312.540	-0.260	-0.350	0.200
2020/01/31 08:56:12.8	312.550	-0.270	-0.340	0.200
2020/01/31 08:56:12.9	312.550	-0.270	-0.320	0.200
2020/01/31 08:56:13.0	312.560	-0.280	-0.300	0.200
2020/01/31 08:56:13.1	312.570	-0.280	-0.290	0.200
2020/01/31 08:56:13.2	312.580	-0.280	-0.270	0.200
2020/01/31 08:56:13.3	312.580	-0.280	-0.250	0.210
2020/01/31 08:56:13.4	312.590	-0.270	-0.240	0.210
2020/01/31 08:56:13.5	312.600	-0.270	-0.220	0.210
2020/01/31 08:56:13.6	312.600	-0.260	-0.200	0.220
2020/01/31 08:56:13.7	312.610	-0.250	-0.190	0.220
2020/01/31 08:56:13.8	312.610	-0.240	-0.170	0.230
2020/01/31 08:56:13.9	312.620	-0.230	-0.150	0.240
2020/01/31 08:56:14.0	312.620	-0.220	-0.140	0.250
2020/01/31 08:56:14.1	312.620	-0.200	-0.120	0.260
2020/01/31 08:56:14.2	312.620	-0.190	-0.100	0.280
2020/01/31 08:56:14.3	312.620	-0.180	-0.080	0.300
2020/01/31 08:56:14.4	312.610	-0.160	-0.060	0.320
2020/01/31 08:56:14.5	312.610	-0.150	-0.040	0.340
2020/01/31 08:56:14.6	312.600	-0.140	-0.020	0.370
2020/01/31 08:56:14.7	312.600	-0.120	0.010	0.390
2020/01/31 08:56:14.8	312.590	-0.110	0.030	0.420
2020/01/31 08:56:14.9	312.580	-0.100	0.060	0.450
2020/01/31 08:56:15.0	312.570	-0.080	0.080	0.480
2020/01/31 08:56:15.1	312.560	-0.070	0.100	0.510
2020/01/31 08:56:15.2	312.550	-0.060	0.130	0.540
2020/01/31 08:56:15.3	312.540	-0.050	0.150	0.570
2020/01/31 08:56:15.4	312.540	-0.040	0.180	0.600
2020/01/31 08:56:15.5	312.530	-0.030	0.210	0.630
2020/01/31 08:56:15.6	312.520	-0.020	0.230	0.660
2020/01/31 08:56:15.7	312.510	-0.010	0.250	0.690
2020/01/31 08:56:15.8	312.500	-0.000	0.270	0.710
2020/01/31 08:56:15.9	312.490	0.000	0.290	0.740
2020/01/31 08:56:16.0	312.470	0.010	0.310	0.770
2020/01/31 08:56:16.1	312.460	0.020	0.330	0.790
2020/01/31 08:56:16.2	312.440	0.020	0.350	0.820
2020/01/31 08:56:16.3	312.430	0.030	0.370	0.840
2020/01/31 08:56:16.4	312.410	0.030	0.380	0.860
2020/01/31 08:56:16.5	312.390	0.040	0.390	0.880
2020/01/31 08:56:16.6	312.380	0.040	0.400	0.890
2020/01/31 08:56:16.7	312.360	0.050	0.400	0.900
2020/01/31 08:56:16.8	312.340	0.050	0.410	0.910
2020/01/31 08:56:16.9	312.330	0.060	0.410	0.920
2020/01/31 08:56:17.0	312.310	0.060	0.410	0.920
2020/01/31 08:56:17.1	312.300	0.060	0.400	0.910
2020/01/31 08:56:17.2	312.280	0.070	0.390	0.910
2020/01/31 08:56:17.3	312.270	0.070	0.380	0.900
2020/01/31 08:56:17.4	312.260	0.070	0.370	0.880
2020/01/31 08:56:17.5	312.240	0.070	0.360	0.860
2020/01/31 08:56:17.6	312.240	0.080	0.340	0.840
2020/01/31 08:56:17.7	312.230	0.080	0.320	0.810
2020/01/31 08:56:17.8	312.220	0.080	0.290	0.780
2020/01/31 08:56:17.9	312.220	0.080	0.270	0.750
2020/01/31 08:56:18.0	312.210	0.080	0.240	0.710
2020/01/31 08:56:18.1	312.210	0.080	0.220	0.680
2020/01/31 08:56:18.2	312.210	0.080	0.190	0.640
2020/01/31 08:56:18.3	312.210	0.080	0.160	0.600
2020/01/31 08:56:18.4	312.210	0.080	0.130	0.550
2020/01/31 08:56:18.5	312.210	0.080	0.100	0.510
2020/01/31 08:56:18.6	312.210	0.070	0.070	0.460
2020/01/31 08:56:18.7	312.220	0.070	0.040	0.420
2020/01/31 08:56:18.8	312.220	0.060	0.010	0.370
2020/01/31 08:56:18.9	312.220	0.060	-0.020	0.320
2020/01/31 08:56:19.0	312.230	0.050	-0.050	0.270
2020/01/31 08:56:19.1	312.240	0.050	-0.080	0.210
2020/01/31 08:56:19.2	312.240	0.040	-0.110	0.160
2020/01/31 08:56:19.3	312.250	0.030	-0.140	0.110
2020/01/31 08:56:19.4	312.260	0.020	-0.180	0.050
2020/01/31 08:56:19.5	312.270	0.010	-0.210	-0.000
2020/01/31 08:56:19.6	312.280	0.010	-0.240	-0.060
2020/01/31 08:56:19.7	312.290	-0.000	-0.270	-0.110
2020/01/31 08:56:19.8	312.300	-0.010	-0.300	-0.170
2020/01/31 08:56:19.9	312.310	-0.020	-0.330	-0.220
2020/01/31 08:56:20.0	312.330	-0.030	-0.360	-0.280
2020/01/31 08:56:20.1	312.340	-0.040	-0.380	-0.330
2020/01/31 08:56:20.2	312.360	-0.050	-0.410	-0.380
2020/01/31 08:56:20.3	312.370	-0.060	-0.440	-0.430
2020/01/31 08:56:20.4	312.380	-0.070	-0.470	-0.480
2020/01/31 08:56:20.5	312.400	-0.070	-0.500	-0.530
2020/01/31 08:56:20.6	312.420	-0.080	-0.520	-0.570
2020/01/31 08:56:20.7	312.430	-0.090	-0.550	-0.610
2020/01/31 08:56:20.8	312.450	-0.090	-0.570	-0.650
2020/01/31 08:56:20.9	312.470	-0.100	-0.590	-0.680
2020/01/31 08:56:21.0	312.480	-0.100	-0.610	-0.710
2020/01/31 08:56:21.1	312.500	-0.110	-0.630	-0.740
2020/01/31 08:56:21.2	312.510	-0.110	-0.640	-0.760
2020/01/31 08:56:21.3	312.530	-0.110	-0.660	-0.780
2020/01/31 08:56:21.4	312.550	-0.110	-0.670	-0.790
2020/01/31 08:56:21.5	312.560	-0.110	-0.680	-0.790
2020/01/31 08:56:21.6	312.570	-0.110	-0.690	-0.790
2020/01/31 08:56:21.7	312.580	-0.110	-0.690	-0.790
2020/01/31 08:56:21.8	312.590	-0.100	-0.700	-0.780
2020/01/31 08:56:21.9	312.590	-0.100	-0.700	-0.770
2020/01/31 08:56:22.0	312.590	-0.090	-0.700	-0.750
2020/01/31 08:56:22.1	312.590	-0.090	-0.690	-0.730
2020/01/31 08:56:22.2	312.590	-0.080	-0.690	-0.700
2020/01/31 08:56:22.3	312.590	-0.070	-0.680	-0.670
2020/01/31 08:56:22.4	312.590	-0.070	-0.670	-0.630
2020/01/31 08:56:22.5	312.580	-0.060	-0.660	-0.590
2020/01/31 08:56:22.6	312.570	-0.050	-0.650	-0.550
2020/01/31 08:56:22.7	312.560	-0.040	-0.640	-0.500
2020/01/31 08:56:22.8	312.540	-0.030	-0.630	-0.450
2020/01/31 08:56:22.9	312.530	-0.020	-0.620	-0.400
2020/01/31 08:56:23.0	312.510	-0.010	-0.610	-0.350
2020/01/31 08:56:23.1	312.490	0.000	-0.590	-0.290
2020/01/31 08:56:23.2	312.470	0.010	-0.580	-0.230
2020/01/31 08:56:23.3	312.450	0.030	-0.570	-0.170
2020/01/31 08:56:23.4	312.450	0.040	-0.550	-0.100
2020/01/31 08:56:23.5	312.430	0.050	-0.540	-0.030
2020/01/31 08:56:23.6	312.410	0.060	-0.520	0.030
2020/01/31 08:56:23.7	312.390	0.070	-0.510	0.100
2020/01/31 08:56:23.8	312.370	0.090	-0.500	0.170
2020/01/31 08:56:23.9	312.350	0.100	-0.480	0.230
2020/01/31 08:56:24.0	312.330	0.110	-0.470	0.300
2020/01/31 08:56:24.1	312.310	0.120	-0.460	0.360
2020/01/31 08:56:24.2	312.300	0.130	-0.450	0.430
2020/01/31 08:56:24.3	312.280	0.140	-0.440	0.490
2020/01/31 08:56:24.4	312.270	0.160	-0.430	0.550
2020/01/31 08:56:24.5	312.260	0.170	-0.420	0.600
2020/01/31 08:56:24.6	312.250	0.180	-0.410	0.650
2020/01/31 08:56:24.7	312.240	0.190	-0.410	0.700
2020/01/31 08:56:24.8	312.240	0.190	-0.400	0.750
2020/01/31 08:56:24.9	312.230	0.200	-0.400	0.780
2020/01/31 08:56:25.0	312.230	0.210	-0.390	0.820
2020/01/31 08:56:25.1	312.230	0.220	-0.390	0.850
2020/01/31 08:56:25.2	312.230	0.230	-0.390	0.880
2020/01/31 08:56:25.3	312.230	0.230	-0.380	0.900
2020/01/31 08:56:25.4	312.220	0.240	-0.380	0.920
2020/01/31 08:56:25.5	312.220	0.240	-0.380	0.930
2020/01/31 08:56:25.6	312.220	0.250	-0.370	0.950
2020/01/31 08:56:25.7	312.230	0.250	-0.370	0.950
2020/01/31 08:56:25.8	312.230	0.250	-0.370	0.960
2020/01/31 08:56:25.9	312.240	0.250	-0.370	0.960
2020/01/31 08:56:26.0	312.240	0.260	-0.360	0.960
2020/01/31 08:56:26.1	312.250	0.260	-0.360	0.950
2020/01/31 08:56:26.2	312.250	0.250	-0.350	0.940
2020/01/31 08:56:26.3	312.260	0.250	-0.350	0.940
2020/01/31 08:56:26.4	312.270	0.250	-0.340	0.930
2020/01/31 08:56:26.5	312.270	0.250	-0.330	0.920
2020/01/31 08:56:26.6	312.280	0.240	-0.330	0.900
2020/01/31 08:56:26.7	312.290	0.230	-0.320	0.880
2020/01/31 08:56:26.8	312.300	0.230	-0.310	0.860
2020/01/31 08:56:26.9	312.310	0.220	-0.300	0.840
2020/01/31 08:56:27.0	312.320	0.210	-0.290	0.820
2020/01/31 08:56:27.1	312.340	0.200	-0.280	0.800
2020/01/31 08:56:27.2	312.350	0.190	-0.270	0.770
2020/01/31 08:56:27.3	312.360	0.180	-0.250	0.750
2020/01/31 08:56:27.4	312.370	0.160	-0.240	0.720
2020/01/31 08:56:27.5	312.390	0.150	-0.230	0.700
2020/01/31 08:56:27.6	312.400	0.130	-0.210	0.670
2020/01/31 08:56:27.7	312.410	0.120	-0.190	0.650
2020/01/31 08:56:27.8	312.420	0.100	-0.180	0.620
2020/01/31 08:56:27.9	312.430	0.090	-0.160	0.600
2020/01/31 08:56:28.0	312.430	0.070	-0.140	0.580
2020/01/31 08:56:28.1	312.440	0.050	-0.110	0.560
2020/01/31 08:56:28.2	312.440	0.030	-0.090	0.550
2020/01/31 08:56:28.3	312.440	0.020	-0.060	0.530
2020/01/31 08:56:28.4	312.430	-0.000	-0.040	0.520
2020/01/31 08:56:28.5	312.420	-0.020	-0.010	0.510
2020/01/31 08:56:28.6	312.420	-0.040	0.020	0.500
2020/01/31 08:56:28.7	312.410	-0.060	0.050	0.490
2020/01/31 08:56:28.8	312.400	-0.080	0.080	0.490
2020/01/31 08:56:28.9	312.390	-0.090	0.110	0.480
2020/01/31 08:56:29.0	312.380	-0.110	0.140	0.480
2020/01/31 08:56:29.1	312.360	-0.130	0.160	0.470
2020/01/31 08:56:29.2	312.350	-0.150	0.190	0.470
2020/01/31 08:56:29.3	312.330	-0.160	0.220	0.460
2020/01/31 08:56:29.4	312.300	-0.180	0.240	0.450
2020/01/31 08:56:29.5	312.290	-0.190	0.260	0.450
2020/01/31 08:56:29.6	312.270	-0.200	0.280	0.440
2020/01/31 08:56:29.7	312.260	-0.220	0.300	0.430
2020/01/31 08:56:29.8	312.250	-0.230	0.310	0.410
2020/01/31 08:56:29.9	312.230	-0.240	0.320	0.400
2020/01/31 08:56:30.0	312.220	-0.240	0.330	0.380
2020/01/31 08:56:30.1	312.210	-0.250	0.330	0.370
2020/01/31 08:56:30.2	312.200	-0.250	0.330	0.350
2020/01/31 08:56:30.3	312.200	-0.260	0.330	0.330
2020/01/31 08:56:30.4	312.200	-0.260	0.320	0.300
2020/01/31 08:56:30.5	312.190	-0.260	0.310	0.280
2020/01/31 08:56:30.6	312.190	-0.260	0.290	0.250
2020/01/31 08:56:30.7	312.200	-0.250	0.270	0.220
2020/01/31 08:56:30.8	312.200	-0.250	0.250	0.190
2020/01/31 08:56:30.9	312.200	-0.240	0.230	0.160
2020/01/31 08:56:31.0	312.210	-0.230	0.200	0.130
2020/01/31 08:56:31.1	312.220	-0.220	0.170	0.100
2020/01/31 08:56:31.2	312.230	-0.210	0.140	0.070
2020/01/31 08:56:31.3	312.240	-0.200	0.110	0.030
2020/01/31 08:56:31.4	312.260	-0.190	0.080	0.000
2020/01/31 08:56:31.5	312.270	-0.180	0.040	-0.030
2020/01/31 08:56:31.6	312.290	-0.160	0.010	-0.060
2020/01/31 08:56:31.7	312.300	-0.150	-0.030	-0.090
2020/01/31 08:56:31.8	312.310	-0.140	-0.060	-0.110
2020/01/31 08:56:31.9	312.330	-0.120	-0.090	-0.140
2020/01/31 08:56:32.0	312.340	-0.110	-0.130	-0.160
2020/01/31 08:56:32.1	312.360	-0.090	-0.160	-0.180
2020/01/31 08:56:32.2	312.370	-0.080	-0.190	-0.190
2020/01/31 08:56:32.3	312.380	-0.070	-0.220	-0.210
2020/01/31 08:56:32.4	312.390	-0.060	-0.240	-0.220
2020/01/31 08:56:32.5	312.400	-0.040	-0.270	-0.220
2020/01/31 08:56:32.6	312.410	-0.030	-0.290	-0.230
2020/01/31 08:56:32.7	312.420	-0.020	-0.310	-0.230
2020/01/31 08:56:32.8	312.430	-0.010	-0.330	-0.220
2020/01/31 08:56:32.9	312.430	-0.000	-0.350	-0.220
2020/01/31 08:56:33.0	312.440	0.010	-0.360	-0.210
2020/01/31 08:56:33.1	312.440	0.010	-0.380	-0.190
2020/01/31 08:56:33.2	312.450	0.020	-0.390	-0.170
2020/01/31 08:56:33.3	312.450	0.030	-0.400	-0.150
2020/01/31 08:56:33.4	312.460	0.030	-0.410	-0.130
2020/01/31 08:56:33.5	312.460	0.040	-0.420	-0.100
2020/01/31 08:56:33.6	312.450	0.040	-0.430	-0.070
2020/01/31 08:56:33.7	312.450	0.040	-0.440	-0.040
2020/01/31 08:56:33.8	312.450	0.050	-0.440	-0.000
2020/01/31 08:56:33.9	312.450	0.050	-0.450	0.030
2020/01/31 08:56:34.0	312.440	0.050	-0.450	0.060
2020/01/31 08:56:34.1	312.440	0.050	-0.460	0.100
2020/01/31 08:56:34.2	312.430	0.060	-0.470	0.140
2020/01/31 08:56:34.3	312.420	0.060	-0.470	0.170
2020/01/31 08:56:34.4	312.430	0.060	-0.480	0.210
2020/01/31 08:56:34.5	312.420	0.060	-0.480	0.240
2020/01/31 08:56:34.6	312.410	0.060	-0.490	0.280
2020/01/31 08:56:34.7	312.400	0.060	-0.490	0.310
2020/01/31 08:56:34.8	312.390	0.070	-0.500	0.350
2020/01/31 08:56:34.9	312.380	0.070	-0.500	0.380
2020/01/31 08:56:35.0	312.370	0.070	-0.510	0.410
2020/01/31 08:56:35.1	312.350	0.070	-0.510	0.450
2020/01/31 08:56:35.2	312.340	0.080	-0.520	0.480
2020/01/31 08:56:35.3	312.320	0.080	-0.520	0.510
2020/01/31 08:56:35.4	312.310	0.080	-0.520	0.540
2020/01/31 08:56:35.5	312.300	0.080	-0.530	0.570
2020/01/31 08:56:35.6	312.290	0.090	-0.530	0.590
2020/01/31 08:56:35.7	312.280	0.090	-0.540	0.620
2020/01/31 08:56:35.8	312.260	0.090	-0.540	0.640
2020/01/31 08:56:35.9	312.250	0.100	-0.540	0.670
2020/01/31 08:56:36.0	312.250	0.100	-0.550	0.690
2020/01/31 08:56:36.1	312.240	0.100	-0.550	0.700
2020/01/31 08:56:36.2	312.230	0.110	-0.550	0.720
2020/01/31 08:56:36.3	312.230	0.110	-0.550	0.730
2020/01/31 08:56:36.4	312.210	0.120	-0.550	0.740
2020/01/31 08:56:36.5	312.210	0.120	-0.560	0.750
2020/01/31 08:56:36.6	312.210	0.120	-0.560	0.760
2020/01/31 08:56:36.7	312.210	0.130	-0.560	0.760
2020/01/31 08:56:36.8	312.210	0.130	-0.560	0.760
2020/01/31 08:56:36.9	312.210	0.140	-0.550	0.760
2020/01/31 08:56:37.0	312.210	0.140	-0.550	0.760
2020/01/31 08:56:37.1	312.210	0.140	-0.550	0.760
2020/01/31 08:56:37.2	312.210	0.150	-0.540	0.750
2020/01/31 08:56:37.3	312.210	0.150	-0.540	0.740
2020/01/31 08:56:37.4	312.200	0.150	-0.530	0.740
2020/01/31 08:56:37.5	312.210	0.150	-0.530	0.730
2020/01/31 08:56:37.6	312.210	0.150	-0.520	0.720
2020/01/31 08:56:37.7	312.210	0.160	-0.510	0.710
2020/01/31 08:56:37.8	312.210	0.160	-0.490	0.700
2020/01/31 08:56:37.9	312.220	0.160	-0.480	0.690
2020/01/31 08:56:38.0	312.220	0.150	-0.470	0.680
2020/01/31 08:56:38.1	312.220	0.150	-0.450	0.660
2020/01/31 08:56:38.2	312.230	0.150	-0.430	0.650
2020/01/31 08:56:38.3	312.230	0.150	-0.420	0.640
2020/01/31 08:56:38.4	312.230	0.140	-0.400	0.620
2020/01/31 08:56:38.5	312.230	0.140	-0.380	0.610
2020/01/31 08:56:38.6	312.230	0.130	-0.360	0.600
2020/01/31 08:56:38.7	312.230	0.130	-0.340	0.590
2020/01/31 08:56:38.8	312.230	0.120	-0.320	0.570
2020/01/31 08:56:38.9	312.230	0.110	-0.290	0.560
2020/01/31 08:56:39.0	312.230	0.100	-0.270	0.550
2020/01/31 08:56:39.1	312.230	0.090	-0.250	0.540
2020/01/31 08:56:39.2	312.230	0.080	-0.230	0.520
2020/01/31 08:56:39.3	312.230	0.070	-0.210	0.510
2020/01/31 08:56:39.4	312.230	0.060	-0.190	0.500
2020/01/31 08:56:39.5	312.230	0.040	-0.170	0.490
2020/01/31 08:56:39.6	312.230	0.030	-0.150	0.470
2020/01/31 08:56:39.7	312.230	0.020	-0.130	0.460
2020/01/31 08:56:39.8	312.230	0.000	-0.110	0.450
2020/01/31 08:56:39.9	312.240	-0.010	-0.090	0.430
2020/01/31 08:56:40.0	312.240	-0.030	-0.080	0.410
2020/01/31 08:56:40.1	312.240	-0.040	-0.060	0.400
2020/01/31 08:56:40.2	312.250	-0.050	-0.050	0.380
2020/01/31 08:56:40.3	312.250	-0.070	-0.040	0.360
2020/01/31 08:56:40.4	312.260	-0.080	-0.030	0.340
2020/01/31 08:56:40.5	312.270	-0.090	-0.020	0.320
2020/01/31 08:56:40.6	312.270	-0.100	-0.010	0.310
2020/01/31 08:56:40.7	312.280	-0.120	-0.010	0.290
2020/01/31 08:56:40.8	312.290	-0.130	-0.000	0.270
2020/01/31 08:56:40.9	312.290	-0.140	0.000	0.260
2020/01/31 08:56:41.0	312.300	-0.140	0.010	0.240
2020/01/31 08:56:41.1	312.300	-0.150	0.010	0.230
2020/01/31 08:56:41.2	312.310	-0.160	0.010	0.210
2020/01/31 08:56:41.3	312.310	-0.160	0.020	0.200
2020/01/31 08:56:41.4	312.310	-0.170	0.020	0.180
2020/01/31 08:56:41.5	312.320	-0.170	0.020	0.170
2020/01/31 08:56:41.6	312.320	-0.170	0.020	0.160
2020/01/31 08:56:41.7	312.320	-0.170	0.030	0.150
2020/01/31 08:56:41.8	312.320	-0.170	0.030	0.140
2020/01/31 08:56:41.9	312.320	-0.170	0.030	0.130
2020/01/31 08:56:42.0	312.320	-0.170	0.030	0.120
2020/01/31 08:56:42.1	312.320	-0.160	0.030	0.110
2020/01/31 08:56:42.2	312.320	-0.160	0.030	0.090
2020/01/31 08:56:42.3	312.310	-0.150	0.030	0.080
2020/01/31 08:56:42.4	312.310	-0.140	0.030	0.080
2020/01/31 08:56:42.5	312.310	-0.130	0.030	0.070
2020/01/31 08:56:42.6	312.310	-0.120	0.030	0.060
2020/01/31 08:56:42.7	312.310	-0.110	0.030	0.050
2020/01/31 08:56:42.8	312.310	-0.100	0.030	0.040
2020/01/31 08:56:42.9	312.310	-0.080	0.030	0.030
2020/01/31 08:56:43.0	312.310	-0.070	0.030	0.030
2020/01/31 08:56:43.1	312.310	-0.050	0.020	0.020
2020/01/31 08:56:43.2	312.310	-0.040	0.020	0.010
2020/01/31 08:56:43.3	312.310	-0.020	0.020	0.010
2020/01/31 08:56:43.4	312.310	-0.010	0.020	0.010
2020/01/31 08:56:43.5	312.310	0.010	0.020	0.010
2020/01/31 08:56:43.6	312.310	0.030	0.020	0.020
2020/01/31 08:56:43.7	312.310	0.040	0.020	0.020
2020/01/31 08:56:43.8	312.310	0.060	0.020	0.030
2020/01/31 08:56:43.9	312.300	0.070	0.010	0.040
2020/01/31 08:56:44.0	312.290	0.080	0.020	0.050
2020/01/31 08:56:44.1	312.290	0.100	0.010	0.070
2020/01/31 08:56:44.2	312.280	0.110	0.010	0.090
2020/01/31 08:56:44.3	312.270	0.120	0.010	0.110
2020/01/31 08:56:44.4	312.270	0.130	0.010	0.130
2020/01/31 08:56:44.5	312.270	0.130	0.000	0.150
2020/01/31 08:56:44.6	312.250	0.140	-0.000	0.180
2020/01/31 08:56:44.7	312.240	0.150	-0.010	0.200
2020/01/31 08:56:44.8	312.230	0.150	-0.020	0.220
2020/01/31 08:56:44.9	312.220	0.150	-0.030	0.240
2020/01/31 08:56:45.0	312.210	0.150	-0.050	0.270
2020/01/31 08:56:45.1	312.200	0.150	-0.060	0.290
2020/01/31 08:56:45.2	312.190	0.150	-0.080	0.310
2020/01/31 08:56:45.3	312.180	0.150	-0.100	0.330
2020/01/31 08:56:45.4	312.180	0.150	-0.130	0.350
2020/01/31 08:56:45.5	312.170	0.140	-0.150	0.370
2020/01/31 08:56:45.6	312.170	0.140	-0.180	0.380
2020/01/31 08:56:45.7	312.160	0.130	-0.210	0.390
2020/01/31 08:56:45.8	312.160	0.120	-0.240	0.400
2020/01/31 08:56:45.9	312.150	0.120	-0.270	0.410
2020/01/31 08:56:46.0	312.150	0.110	-0.310	0.420
2020/01/31 08:56:46.1	312.150	0.100	-0.340	0.420
2020/01/31 08:56:46.2	312.150	0.090	-0.380	0.430
2020/01/31 08:56:46.3	312.150	0.080	-0.410	0.430
2020/01/31 08:56:46.4	312.160	0.070	-0.450	0.420
2020/01/31 08:56:46.5	312.160	0.060	-0.490	0.420
2020/01/31 08:56:46.6	312.170	0.050	-0.520	0.410
2020/01/31 08:56:46.7	312.170	0.040	-0.560	0.410
2020/01/31 08:56:46.8	312.180	0.030	-0.590	0.400
2020/01/31 08:56:46.9	312.190	0.020	-0.620	0.380
2020/01/31 08:56:47.0	312.200	0.010	-0.650	0.370
2020/01/31 08:56:47.1	312.210	-0.000	-0.680	0.360
2020/01/31 08:56:47.2	312.220	-0.020	-0.700	0.340
2020/01/31 08:56:47.3	312.230	-0.030	-0.730	0.320
2020/01/31 08:56:47.4	312.240	-0.040	-0.740	0.310
2020/01/31 08:56:47.5	312.250	-0.050	-0.760	0.290
2020/01/31 08:56:47.6	312.270	-0.070	-0.770	0.270
2020/01/31 08:56:47.7	312.280	-0.080	-0.780	0.250
2020/01/31 08:56:47.8	312.290	-0.090	-0.780	0.230
2020/01/31 08:56:47.9	312.290	-0.100	-0.780	0.210
2020/01/31 08:56:48.0	312.300	-0.120	-0.780	0.200
2020/01/31 08:56:48.1	312.310	-0.130	-0.780	0.180
2020/01/31 08:56:48.2	312.310	-0.140	-0.770	0.160
2020/01/31 08:56:48.3	312.310	-0.160	-0.750	0.150
2020/01/31 08:56:48.4	312.320	-0.170	-0.740	0.130
2020/01/31 08:56:48.5	312.320	-0.180	-0.720	0.120
2020/01/31 08:56:48.6	312.320	-0.190	-0.690	0.110
2020/01/31 08:56:48.7	312.320	-0.200	-0.670	0.100
2020/01/31 08:56:48.8	312.310	-0.210	-0.640	0.090
2020/01/31 08:56:48.9	312.310	-0.220	-0.610	0.080
2020/01/31 08:56:49.0	312.300	-0.230	-0.580	0.080
2020/01/31 08:56:49.1	312.290	-0.240	-0.550	0.080
2020/01/31 08:56:49.2	312.280	-0.240	-0.510	0.080
2020/01/31 08:56:49.3	312.270	-0.250	-0.480	0.080
2020/01/31 08:56:49.4	312.260	-0.250	-0.440	0.080
2020/01/31 08:56:49.5	312.250	-0.250	-0.400	0.090
2020/01/31 08:56:49.6	312.230	-0.250	-0.370	0.090
2020/01/31 08:56:49.7	312.220	-0.250	-0.340	0.100
2020/01/31 08:56:49.8	312.200	-0.250	-0.300	0.110
2020/01/31 08:56:49.9	312.180	-0.240	-0.270	0.120
2020/01/31 08:56:50.0	312.160	-0.230	-0.240	0.140
2020/01/31 08:56:50.1	312.140	-0.220	-0.210	0.150
2020/01/31 08:56:50.2	312.120	-0.210	-0.180	0.160
2020/01/31 08:56:50.3	312.100	-0.200	-0.160	0.180
2020/01/31 08:56:50.4	312.090	-0.190	-0.140	0.190
2020/01/31 08:56:50.5	312.070	-0.170	-0.120	0.210
2020/01/31 08:56:50.6	312.050	-0.160	-0.100	0.230
2020/01/31 08:56:50.7	312.030	-0.140	-0.090	0.250
2020/01/31 08:56:50.8	312.010	-0.120	-0.070	0.270
2020/01/31 08:56:50.9	311.990	-0.100	-0.060	0.280
2020/01/31 08:56:51.0	311.970	-0.080	-0.050	0.300
2020/01/31 08:56:51.1	311.960	-0.060	-0.040	0.320
2020/01/31 08:56:51.2	311.940	-0.030	-0.040	0.340
2020/01/31 08:56:51.3	311.930	-0.010	-0.030	0.360
2020/01/31 08:56:51.4	311.920	0.010	-0.030	0.380
2020/01/31 08:56:51.5	311.910	0.040	-0.020	0.400
2020/01/31 08:56:51.6	311.900	0.060	-0.020	0.420
2020/01/31 08:56:51.7	311.880	0.080	-0.020	0.440
2020/01/31 08:56:51.8	311.870	0.100	-0.020	0.460
2020/01/31 08:56:51.9	311.860	0.120	-0.020	0.480
2020/01/31 08:56:52.0	311.850	0.140	-0.010	0.500
2020/01/31 08:56:52.1	311.850	0.160	-0.010	0.530
2020/01/31 08:56:52.2	311.840	0.180	-0.010	0.550
2020/01/31 08:56:52.3	311.830	0.200	-0.000	0.570
2020/01/31 08:56:52.4	311.820	0.210	0.010	0.600
2020/01/31 08:56:52.5	311.810	0.230	0.020	0.620
2020/01/31 08:56:52.6	311.800	0.240	0.020	0.640
2020/01/31 08:56:52.7	311.790	0.250	0.030	0.670
2020/01/31 08:56:52.8	311.780	0.260	0.040	0.690
2020/01/31 08:56:52.9	311.770	0.270	0.050	0.710
2020/01/31 08:56:53.0	311.770	0.270	0.060	0.740
2020/01/31 08:56:53.1	311.760	0.280	0.070	0.760
2020/01/31 08:56:53.2	311.750	0.280	0.080	0.780
2020/01/31 08:56:53.3	311.750	0.280	0.090	0.800
2020/01/31 08:56:53.4	311.730	0.280	0.090	0.820
2020/01/31 08:56:53.5	311.730	0.270	0.100	0.830
2020/01/31 08:56:53.6	311.730	0.270	0.100	0.840
2020/01/31 08:56:53.7	311.730	0.260	0.100	0.850
2020/01/31 08:56:53.8	311.740	0.260	0.100	0.860
2020/01/31 08:56:53.9	311.740	0.250	0.090	0.860
2020/01/31 08:56:54.0	311.750	0.240	0.090	0.860
2020/01/31 08:56:54.1	311.760	0.230	0.080	0.860
2020/01/31 08:56:54.2	311.770	0.220	0.070	0.860
2020/01/31 08:56:54.3	311.780	0.200	0.050	0.850
2020/01/31 08:56:54.4	311.790	0.190	0.040	0.840
2020/01/31 08:56:54.5	311.800	0.180	0.020	0.830
2020/01/31 08:56:54.6	311.810	0.160	-0.000	0.810
2020/01/31 08:56:54.7	311.830	0.150	-0.020	0.800
2020/01/31 08:56:54.8	311.840	0.130	-0.040	0.780
2020/01/31 08:56:54.9	311.850	0.110	-0.060	0.760
2020/01/31 08:56:55.0	311.860	0.100	-0.080	0.740
2020/01/31 08:56:55.1	311.870	0.080	-0.100	0.720
2020/01/31 08:56:55.2	311.880	0.060	-0.130	0.690
2020/01/31 08:56:55.3	311.890	0.040	-0.150	0.670
2020/01/31 08:56:55.4	311.910	0.030	-0.170	0.640
2020/01/31 08:56:55.5	311.920	0.010	-0.190	0.610
2020/01/31 08:56:55.6	311.930	-0.010	-0.200	0.580
2020/01/31 08:56:55.7	311.940	-0.020	-0.220	0.550
2020/01/31 08:56:55.8	311.940	-0.040	-0.230	0.520
2020/01/31 08:56:55.9	311.950	-0.050	-0.240	0.490
2020/01/31 08:56:56.0	311.960	-0.070	-0.260	0.460
2020/01/31 08:56:56.1	311.970	-0.080	-0.270	0.420
2020/01/31 08:56:56.2	311.980	-0.100	-0.280	0.390
2020/01/31 08:56:56.3	311.990	-0.110	-0.280	0.350
2020/01/31 08:56:56.4	312.000	-0.120	-0.290	0.320
2020/01/31 08:56:56.5	312.010	-0.130	-0.300	0.280
2020/01/31 08:56:56.6	312.020	-0.140	-0.310	0.250
2020/01/31 08:56:56.7	312.020	-0.150	-0.310	0.210
2020/01/31 08:56:56.8	312.030	-0.150	-0.320	0.180
2020/01/31 08:56:56.9	312.040	-0.160	-0.330	0.150
2020/01/31 08:56:57.0	312.040	-0.170	-0.340	0.120
2020/01/31 08:56:57.1	312.050	-0.170	-0.340	0.090
2020/01/31 08:56:57.2	312.050	-0.170	-0.350	0.060
2020/01/31 08:56:57.3	312.050	-0.180	-0.360	0.040
2020/01/31 08:56:57.4	312.050	-0.180	-0.370	0.010
2020/01/31 08:56:57.5	312.050	-0.180	-0.380	-0.010
2020/01/31 08:56:57.6	312.050	-0.170	-0.400	-0.030
2020/01/31 08:56:57.7	312.050	-0.170	-0.410	-0.040
2020/01/31 08:56:57.8	312.050	-0.170	-0.420	-0.060
2020/01/31 08:56:57.9	312.040	-0.160	-0.440	-0.070
2020/01/31 08:56:58.0	312.040	-0.150	-0.450	-0.080
2020/01/31 08:56:58.1	312.030	-0.150	-0.470	-0.090
2020/01/31 08:56:58.2	312.030	-0.140	-0.490	-0.100
2020/01/31 08:56:58.3	312.020	-0.130	-0.510	-0.110
2020/01/31 08:56:58.4	312.020	-0.120	-0.530	-0.120
2020/01/31 08:56:58.5	312.020	-0.100	-0.560	-0.120
2020/01/31 08:56:58.6	312.010	-0.090	-0.580	-0.120
2020/01/31 08:56:58.7	312.000	-0.080	-0.600	-0.120
2020/01/31 08:56:58.8	312.000	-0.060	-0.620	-0.120
2020/01/31 08:56:58.9	311.990	-0.050	-0.650	-0.120
2020/01/31 08:56:59.0	311.990	-0.030	-0.670	-0.120
2020/01/31 08:56:59.1	311.980	-0.020	-0.690	-0.110
2020/01/31 08:56:59.2	311.980	0.000	-0.720	-0.110
2020/01/31 08:56:59.3	311.980	0.020	-0.740	-0.100
2020/01/31 08:56:59.4	311.980	0.030	-0.750	-0.090
2020/01/31 08:56:59.5	311.980	0.050	-0.770	-0.080
2020/01/31 08:56:59.6	311.980	0.060	-0.790	-0.070
2020/01/31 08:56:59.7	311.980	0.080	-0.800	-0.060
2020/01/31 08:56:59.8	311.980	0.090	-0.810	-0.050
2020/01/31 08:56:59.9	311.990	0.110	-0.810	-0.040
2020/01/31 08:57:00.0	311.990	0.120	-0.810	-0.030
2020/01/31 08:57:00.1	311.990	0.130	-0.810	-0.010
2020/01/31 08:57:00.2	312.000	0.140	-0.810	-0.000
2020/01/31 08:57:00.3	312.000	0.150	-0.800	0.010
2020/01/31 08:57:00.4	312.030	0.160	-0.780	0.030
2020/01/31 08:57:00.5	312.030	0.160	-0.770	0.040
2020/01/31 08:57:00.6	312.040	0.160	-0.740	0.060
2020/01/31 08:57:00.7	312.050	0.170	-0.720	0.070
2020/01/31 08:57:00.8	312.060	0.170	-0.690	0.090
2020/01/31 08:57:00.9	312.070	0.160	-0.650	0.110
2020/01/31 08:57:01.0	312.080	0.160	-0.610	0.130
2020/01/31 08:57:01.1	312.090	0.150	-0.570	0.150
2020/01/31 08:57:01.2	312.100	0.150	-0.520	0.170
2020/01/31 08:57:01.3	312.110	0.140	-0.470	0.200
2020/01/31 08:57:01.4	312.130	0.120	-0.410	0.220
2020/01/31 08:57:01.5	312.130	0.110	-0.360	0.250
2020/01/31 08:57:01.6	312.140	0.090	-0.300	0.280
2020/01/31 08:57:01.7	312.150	0.080	-0.230	0.300
2020/01/31 08:57:01.8	312.150	0.060	-0.170	0.330
2020/01/31 08:57:01.9	312.150	0.040	-0.110	0.360
2020/01/31 08:57:02.0	312.160	0.020	-0.040	0.390
2020/01/31 08:57:02.1	312.160	-0.010	0.020	0.420
2020/01/31 08:57:02.2	312.160	-0.030	0.090	0.440
2020/01/31 08:57:02.3	312.160	-0.050	0.150	0.470
2020/01/31 08:57:02.4	312.150	-0.080	0.210	0.500
2020/01/31 08:57:02.5	312.150	-0.100	0.270	0.530
2020/01/31 08:57:02.6	312.150	-0.120	0.330	0.550
2020/01/31 08:57:02.7	312.140	-0.140	0.380	0.580
2020/01/31 08:57:02.8	312.130	-0.170	0.430	0.610
2020/01/31 08:57:02.9	312.130	-0.190	0.470	0.630
2020/01/31 08:57:03.0	312.120	-0.210	0.520	0.650
2020/01/31 08:57:03.1	312.110	-0.220	0.550	0.670
2020/01/31 08:57:03.2	312.090	-0.240	0.580	0.700
2020/01/31 08:57:03.3	312.080	-0.250	0.610	0.710
2020/01/31 08:57:03.4	312.070	-0.270	0.630	0.730
2020/01/31 08:57:03.5	312.060	-0.280	0.640	0.750
2020/01/31 08:57:03.6	312.040	-0.290	0.650	0.760
2020/01/31 08:57:03.7	312.030	-0.290	0.650	0.770
2020/01/31 08:57:03.8	312.020	-0.300	0.650	0.780
2020/01/31 08:57:03.9	312.000	-0.300	0.640	0.790
2020/01/31 08:57:04.0	311.980	-0.300	0.630	0.800
2020/01/31 08:57:04.1	311.970	-0.300	0.610	0.800
2020/01/31 08:57:04.2	311.950	-0.290	0.580	0.810
2020/01/31 08:57:04.3	311.930	-0.280	0.550	0.810
2020/01/31 08:57:04.4	311.920	-0.270	0.510	0.800
2020/01/31 08:57:04.5	311.910	-0.260	0.470	0.800
2020/01/31 08:57:04.6	311.890	-0.250	0.420	0.790
2020/01/31 08:57:04.7	311.870	-0.240	0.370	0.780
2020/01/31 08:57:04.8	311.860	-0.220	0.320	0.760
2020/01/31 08:57:04.9	311.850	-0.200	0.260	0.750
2020/01/31 08:57:05.0	311.830	-0.180	0.210	0.730
2020/01/31 08:57:05.1	311.820	-0.160	0.140	0.700
2020/01/31 08:57:05.2	311.810	-0.140	0.080	0.680
2020/01/31 08:57:05.3	311.800	-0.120	0.020	0.660
2020/01/31 08:57:05.4	311.800	-0.100	-0.050	0.630
2020/01/31 08:57:05.5	311.790	-0.080	-0.110	0.600
2020/01/31 08:57:05.6	311.790	-0.060	-0.170	0.570
2020/01/31 08:57:05.7	311.780	-0.030	-0.230	0.540
2020/01/31 08:57:05.8	311.780	-0.010	-0.300	0.510
2020/01/31 08:57:05.9	311.780	0.010	-0.350	0.480
2020/01/31 08:57:06.0	311.780	0.030	-0.410	0.450
2020/01/31 08:57:06.1	311.780	0.060	-0.470	0.420
2020/01/31 08:57:06.2	311.780	0.080	-0.520	0.390
2020/01/31 08:57:06.3	311.790	0.100	-0.570	0.360
2020/01/31 08:57:06.4	311.790	0.110	-0.610	0.330
2020/01/31 08:57:06.5	311.800	0.130	-0.660	0.300
2020/01/31 08:57:06.6	311.800	0.150	-0.690	0.270
2020/01/31 08:57:06.7	311.810	0.160	-0.730	0.240
2020/01/31 08:57:06.8	311.820	0.180	-0.760	0.220
2020/01/31 08:57:06.9	311.830	0.190	-0.780	0.190
2020/01/31 08:57:07.0	311.840	0.200	-0.800	0.170
2020/01/31 08:57:07.1	311.850	0.210	-0.820	0.140
2020/01/31 08:57:07.2	311.870	0.220	-0.830	0.120
2020/01/31 08:57:07.3	311.880	0.230	-0.840	0.100
2020/01/31 08:57:07.4	311.900	0.230	-0.850	0.080
2020/01/31 08:57:07.5	311.910	0.240	-0.840	0.060
2020/01/31 08:57:07.6	311.930	0.240	-0.840	0.040
2020/01/31 08:57:07.7	311.940	0.240	-0.830	0.020
2020/01/31 08:57:07.8	311.960	0.240	-0.820	0.000
2020/01/31 08:57:07.9	311.980	0.240	-0.810	-0.010
2020/01/31 08:57:08.0	312.000	0.240	-0.790	-0.030
2020/01/31 08:57:08.1	312.010	0.230	-0.770	-0.050
2020/01/31 08:57:08.2	312.030	0.230	-0.750	-0.060
2020/01/31 08:57:08.3	312.050	0.220	-0.720	-0.080
2020/01/31 08:57:08.4	312.080	0.220	-0.700	-0.090
2020/01/31 08:57:08.5	312.100	0.210	-0.670	-0.100
2020/01/31 08:57:08.6	312.120	0.200	-0.650	-0.110
2020/01/31 08:57:08.7	312.140	0.190	-0.620	-0.130
2020/01/31 08:57:08.8	312.160	0.180	-0.590	-0.140
2020/01/31 08:57:08.9	312.190	0.170	-0.560	-0.150
2020/01/31 08:57:09.0	312.210	0.160	-0.530	-0.160
2020/01/31 08:57:09.1	312.230	0.140	-0.500	-0.170
2020/01/31 08:57:09.2	312.250	0.130	-0.470	-0.170
2020/01/31 08:57:09.3	312.270	0.120	-0.440	-0.180
2020/01/31 08:57:09.4	312.300	0.100	-0.410	-0.190
2020/01/31 08:57:09.5	312.320	0.090	-0.390	-0.190
2020/01/31 08:57:09.6	312.340	0.080	-0.360	-0.190
2020/01/31 08:57:09.7	312.370	0.060	-0.340	-0.190
2020/01/31 08:57:09.8	312.390	0.050	-0.310	-0.190
2020/01/31 08:57:09.9	312.410	0.040	-0.290	-0.190
2020/01/31 08:57:10.0	312.440	0.020	-0.260	-0.190
2020/01/31 08:57:10.1	312.460	0.010	-0.240	-0.180
2020/01/31 08:57:10.2	312.480	-0.000	-0.220	-0.170
2020/01/31 08:57:10.3	312.500	-0.020	-0.200	-0.160
2020/01/31 08:57:10.4	312.520	-0.030	-0.180	-0.150
2020/01/31 08:57:10.5	312.530	-0.040	-0.160	-0.130
2020/01/31 08:57:10.6	312.550	-0.050	-0.140	-0.120
2020/01/31 08:57:10.7	312.560	-0.060	-0.120	-0.090
2020/01/31 08:57:10.8	312.570	-0.070	-0.100	-0.070
2020/01/31 08:57:10.9	312.580	-0.080	-0.080	-0.040
2020/01/31 08:57:11.0	312.590	-0.080	-0.060	-0.020
2020/01/31 08:57:11.1	312.600	-0.090	-0.040	0.010
2020/01/31 08:57:11.2	312.600	-0.100	-0.010	0.050
2020/01/31 08:57:11.3	312.600	-0.100	0.010	0.080
2020/01/31 08:57:11.4	312.590	-0.110	0.030	0.110
2020/01/31 08:57:11.5	312.590	-0.110	0.050	0.150
2020/01/31 08:57:11.6	312.590	-0.120	0.070	0.180
2020/01/31 08:57:11.7	312.580	-0.120	0.090	0.220
2020/01/31 08:57:11.8	312.570	-0.130	0.110	0.250
2020/01/31 08:57:11.9	312.560	-0.130	0.130	0.280
2020/01/31 08:57:12.0	312.550	-0.130	0.150	0.310
2020/01/31 08:57:12.1	312.540	-0.130	0.160	0.340
2020/01/31 08:57:12.2	312.520	-0.140	0.170	0.370
2020/01/31 08:57:12.3	312.510	-0.140	0.180	0.400
2020/01/31 08:57:12.4	312.480	-0.140	0.190	0.420
2020/01/31 08:57:12.5	312.460	-0.140	0.200	0.450
2020/01/31 08:57:12.6	312.440	-0.140	0.200	0.460
2020/01/31 08:57:12.7	312.420	-0.140	0.200	0.480
2020/01/31 08:57:12.8	312.410	-0.140	0.200	0.500
2020/01/31 08:57:12.9	312.390	-0.140	0.190	0.510
2020/01/31 08:57:13.0	312.370	-0.140	0.190	0.520
2020/01/31 08:57:13.1	312.350	-0.140	0.170	0.530
2020/01/31 08:57:13.2	312.330	-0.140	0.160	0.530
2020/01/31 08:57:13.3	312.310	-0.140	0.140	0.540
2020/01/31 08:57:13.4	312.280	-0.140	0.120	0.540
2020/01/31 08:57:13.5	312.260	-0.140	0.100	0.540
2020/01/31 08:57:13.6	312.240	-0.140	0.070	0.540
2020/01/31 08:57:13.7	312.220	-0.140	0.040	0.540
2020/01/31 08:57:13.8	312.200	-0.130	0.020	0.540
2020/01/31 08:57:13.9	312.180	-0.130	-0.020	0.530
2020/01/31 08:57:14.0	312.160	-0.130	-0.050	0.530
2020/01/31 08:57:14.1	312.140	-0.120	-0.080	0.520
2020/01/31 08:57:14.2	312.120	-0.120	-0.120	0.510
2020/01/31 08:57:14.3	312.110	-0.120	-0.160	0.500
2020/01/31 08:57:14.4	312.070	-0.110	-0.200	0.490
2020/01/31 08:57:14.5	312.060	-0.110	-0.240	0.480
2020/01/31 08:57:14.6	312.040	-0.100	-0.280	0.470
2020/01/31 08:57:14.7	312.020	-0.090	-0.320	0.460
2020/01/31 08:57:14.8	312.010	-0.090	-0.360	0.440
2020/01/31 08:57:14.9	312.000	-0.080	-0.400	0.430
2020/01/31 08:57:15.0	311.980	-0.070	-0.440	0.410
2020/01/31 08:57:15.1	311.970	-0.060	-0.480	0.400
2020/01/31 08:57:15.2	311.960	-0.050	-0.510	0.380
2020/01/31 08:57:15.3	311.950	-0.040	-0.550	0.370
2020/01/31 08:57:15.4	311.940	-0.030	-0.580	0.350
2020/01/31 08:57:15.5	311.930	-0.020	-0.620	0.330
2020/01/31 08:57:15.6	311.930	-0.010	-0.640	0.320
2020/01/31 08:57:15.7	311.920	-0.000	-0.670	0.300
2020/01/31 08:57:15.8	311.920	0.010	-0.700	0.280
2020/01/31 08:57:15.9	311.920	0.020	-0.720	0.270
2020/01/31 08:57:16.0	311.920	0.030	-0.740	0.250
2020/01/31 08:57:16.1	311.920	0.040	-0.750	0.230
2020/01/31 08:57:16.2	311.920	0.050	-0.770	0.210
2020/01/31 08:57:16.3	311.920	0.060	-0.770	0.200
2020/01/31 08:57:16.4	311.910	0.070	-0.780	0.180
2020/01/31 08:57:16.5	311.920	0.070	-0.780	0.170
2020/01/31 08:57:16.6	311.920	0.080	-0.780	0.150
2020/01/31 08:57:16.7	311.930	0.090	-0.780	0.130
2020/01/31 08:57:16.8	311.930	0.090	-0.770	0.120
2020/01/31 08:57:16.9	311.940	0.100	-0.770	0.100
2020/01/31 08:57:17.0	311.950	0.100	-0.750	0.090
2020/01/31 08:57:17.1	311.960	0.110	-0.740	0.080
2020/01/31 08:57:17.2	311.960	0.110	-0.720	0.070
2020/01/31 08:57:17.3	311.970	0.110	-0.700	0.060
2020/01/31 08:57:17.4	311.990	0.110	-0.690	0.050
2020/01/31 08:57:17.5	312.000	0.120	-0.660	0.040
2020/01/31 08:57:17.6	312.010	0.120	-0.640	0.040
2020/01/31 08:57:17.7	312.020	0.120	-0.610	0.030
2020/01/31 08:57:17.8	312.030	0.110	-0.580	0.030
2020/01/31 08:57:17.9	312.040	0.110	-0.550	0.030
2020/01/31 08:57:18.0	312.050	0.110	-0.510	0.030
2020/01/31 08:57:18.1	312.060	0.110	-0.480	0.030
2020/01/31 08:57:18.2	312.070	0.110	-0.440	0.030
2020/01/31 08:57:18.3	312.080	0.100	-0.400	0.040
2020/01/31 08:57:18.4	312.110	0.100	-0.370	0.050
2020/01/31 08:57:18.5	312.110	0.090	-0.330	0.060
2020/01/31 08:57:18.6	312.120	0.090	-0.280	0.070
2020/01/31 08:57:18.7	312.130	0.080	-0.240	0.080
2020/01/31 08:57:18.8	312.140	0.080	-0.200	0.090
2020/01/31 08:57:18.9	312.140	0.070	-0.160	0.100
2020/01/31 08:57:19.0	312.150	0.070	-0.120	0.120
2020/01/31 08:57:19.1	312.150	0.060	-0.080	0.130
2020/01/31 08:57:19.2	312.150	0.050	-0.040	0.150
2020/01/31 08:57:19.3	312.160	0.050	0.000	0.170
2020/01/31 08:57:19.4	312.160	0.040	0.040	0.190
2020/01/31 08:57:19.5	312.160	0.030	0.070	0.210
2020/01/31 08:57:19.6	312.160	0.020	0.110	0.230
2020/01/31 08:57:19.7	312.150	0.020	0.140	0.250
2020/01/31 08:57:19.8	312.150	0.010	0.170	0.270
2020/01/31 08:57:19.9	312.150	0.000	0.200	0.290
2020/01/31 08:57:20.0	312.140	-0.010	0.230	0.310
2020/01/31 08:57:20.1	312.140	-0.010	0.250	0.330
2020/01/31 08:57:20.2	312.130	-0.020	0.270	0.350
2020/01/31 08:57:20.3	312.130	-0.030	0.280	0.370
2020/01/31 08:57:20.4	312.110	-0.040	0.300	0.390
2020/01/31 08:57:20.5	312.110	-0.040	0.310	0.400
2020/01/31 08:57:20.6	312.100	-0.050	0.310	0.420
2020/01/31 08:57:20.7	312.100	-0.060	0.320	0.440
2020/01/31 08:57:20.8	312.090	-0.070	0.320	0.450
2020/01/31 08:57:20.9	312.080	-0.070	0.310	0.470
2020/01/31 08:57:21.0	312.080	-0.080	0.310	0.480
2020/01/31 08:57:21.1	312.070	-0.090	0.300	0.490
2020/01/31 08:57:21.2	312.070	-0.090	0.290	0.500
2020/01/31 08:57:21.3	312.060	-0.100	0.280	0.510
2020/01/31 08:57:21.4	312.060	-0.100	0.270	0.520
2020/01/31 08:57:21.5	312.060	-0.110	0.250	0.520
2020/01/31 08:57:21.6	312.050	-0.110	0.240	0.530
2020/01/31 08:57:21.7	312.050	-0.120	0.220	0.530
2020/01/31 08:57:21.8	312.050	-0.120	0.200	0.530
2020/01/31 08:57:21.9	312.040	-0.130	0.180	0.540
2020/01/31 08:57:22.0	312.040	-0.130	0.160	0.530
2020/01/31 08:57:22.1	312.040	-0.130	0.140	0.530
2020/01/31 08:57:22.2	312.040	-0.140	0.120	0.530
2020/01/31 08:57:22.3	312.050	-0.140	0.090	0.520
2020/01/31 08:57:22.4	312.040	-0.140	0.070	0.510
2020/01/31 08:57:22.5	312.040	-0.140	0.050	0.500
2020/01/31 08:57:22.6	312.040	-0.140	0.020	0.490
2020/01/31 08:57:22.7	312.050	-0.140	-0.010	0.480
2020/01/31 08:57:22.8	312.050	-0.140	-0.030	0.460
2020/01/31 08:57:22.9	312.060	-0.140	-0.060	0.450
2020/01/31 08:57:23.0	312.070	-0.140	-0.090	0.430
2020/01/31 08:57:23.1	312.080	-0.140	-0.110	0.420
2020/01/31 08:57:23.2	312.090	-0.130	-0.140	0.400
2020/01/31 08:57:23.3	312.100	-0.130	-0.170	0.380
2020/01/31 08:57:23.4	312.090	-0.120	-0.200	0.360
2020/01/31 08:57:23.5	312.100	-0.120	-0.230	0.340
2020/01/31 08:57:23.6	312.110	-0.110	-0.260	0.320
2020/01/31 08:57:23.7	312.120	-0.110	-0.280	0.300
2020/01/31 08:57:23.8	312.130	-0.100	-0.310	0.280
2020/01/31 08:57:23.9	312.140	-0.090	-0.340	0.260
2020/01/31 08:57:24.0	312.160	-0.090	-0.360	0.240
2020/01/31 08:57:24.1	312.170	-0.080	-0.390	0.220
2020/01/31 08:57:24.2	312.180	-0.070	-0.410	0.200
2020/01/31 08:57:24.3	312.190	-0.060	-0.440	0.180
2020/01/31 08:57:24.4	312.200	-0.050	-0.460	0.160
2020/01/31 08:57:24.5	312.210	-0.050	-0.480	0.140
2020/01/31 08:57:24.6	312.220	-0.040	-0.500	0.120
2020/01/31 08:57:24.7	312.230	-0.030	-0.520	0.110
2020/01/31 08:57:24.8	312.240	-0.020	-0.540	0.090
2020/01/31 08:57:24.9	312.250	-0.010	-0.560	0.080
2020/01/31 08:57:25.0	312.260	-0.000	-0.570	0.060
2020/01/31 08:57:25.1	312.260	0.000	-0.590	0.050
2020/01/31 08:57:25.2	312.270	0.010	-0.600	0.040
2020/01/31 08:57:25.3	312.270	0.020	-0.610	0.030
2020/01/31 08:57:25.4	312.280	0.030	-0.620	0.020
2020/01/31 08:57:25.5	312.280	0.030	-0.630	0.020
2020/01/31 08:57:25.6	312.280	0.040	-0.640	0.010
2020/01/31 08:57:25.7	312.280	0.040	-0.640	0.010
2020/01/31 08:57:25.8	312.280	0.050	-0.650	0.010
2020/01/31 08:57:25.9	312.270	0.050	-0.650	0.000
2020/01/31 08:57:26.0	312.270	0.050	-0.650	0.000
2020/01/31 08:57:26.1	312.260	0.060	-0.640	0.010
2020/01/31 08:57:26.2	312.260	0.060	-0.640	0.010
2020/01/31 08:57:26.3	312.250	0.060	-0.640	0.020
2020/01/31 08:57:26.4	312.240	0.060	-0.630	0.030
2020/01/31 08:57:26.5	312.230	0.060	-0.620	0.030
2020/01/31 08:57:26.6	312.220	0.070	-0.610	0.050
2020/01/31 08:57:26.7	312.210	0.070	-0.600	0.060
2020/01/31 08:57:26.8	312.200	0.070	-0.580	0.070
2020/01/31 08:57:26.9	312.180	0.070	-0.570	0.090
2020/01/31 08:57:27.0	312.170	0.070	-0.550	0.110
2020/01/31 08:57:27.1	312.150	0.070	-0.530	0.130
2020/01/31 08:57:27.2	312.140	0.070	-0.510	0.150
2020/01/31 08:57:27.3	312.120	0.070	-0.490	0.180
2020/01/31 08:57:27.4	312.110	0.070	-0.470	0.210
2020/01/31 08:57:27.5	312.100	0.070	-0.450	0.230
2020/01/31 08:57:27.6	312.080	0.070	-0.420	0.260
2020/01/31 08:57:27.7	312.060	0.070	-0.400	0.300
2020/01/31 08:57:27.8	312.040	0.070	-0.370	0.330
2020/01/31 08:57:27.9	312.020	0.070	-0.350	0.360
2020/01/31 08:57:28.0	312.000	0.070	-0.320	0.400
2020/01/31 08:57:28.1	311.980	0.080	-0.290	0.440
2020/01/31 08:57:28.2	311.960	0.080	-0.260	0.470
2020/01/31 08:57:28.3	311.930	0.080	-0.240	0.510
2020/01/31 08:57:28.4	311.920	0.080	-0.210	0.550
2020/01/31 08:57:28.5	311.890	0.080	-0.180	0.590
2020/01/31 08:57:28.6	311.870	0.080	-0.150	0.630
2020/01/31 08:57:28.7	311.850	0.090	-0.130	0.670
2020/01/31 08:57:28.8	311.820	0.090	-0.100	0.710
2020/01/31 08:57:28.9	311.800	0.090	-0.080	0.750
2020/01/31 08:57:29.0	311.780	0.100	-0.060	0.790
2020/01/31 08:57:29.1	311.750	0.100	-0.040	0.830
2020/01/31 08:57:29.2	311.730	0.110	-0.020	0.870
2020/01/31 08:57:29.3	311.710	0.110	-0.010	0.900
2020/01/31 08:57:29.4	311.690	0.120	0.010	0.930
2020/01/31 08:57:29.5	311.670	0.120	0.020	0.970
2020/01/31 08:57:29.6	311.650	0.130	0.030	1.000
2020/01/31 08:57:29.7	311.630	0.130	0.030	1.020
2020/01/31 08:57:29.8	311.620	0.140	0.030	1.050
2020/01/31 08:57:29.9	311.600	0.150	0.030	1.070
2020/01/31 08:57:30.0	311.590	0.160	0.030	1.090
2020/01/31 08:57:30.1	311.580	0.160	0.020	1.100
2020/01/31 08:57:30.2	311.570	0.170	0.010	1.110
2020/01/31 08:57:30.3	311.570	0.180	-0.010	1.120
2020/01/31 08:57:30.4	311.570	0.190	-0.020	1.120
2020/01/31 08:57:30.5	311.570	0.200	-0.040	1.120
2020/01/31 08:57:30.6	311.570	0.210	-0.060	1.110
2020/01/31 08:57:30.7	311.570	0.210	-0.090	1.100
2020/01/31 08:57:30.8	311.580	0.220	-0.110	1.090
2020/01/31 08:57:30.9	311.580	0.230	-0.140	1.070
2020/01/31 08:57:31.0	311.590	0.240	-0.170	1.050
2020/01/31 08:57:31.1	311.600	0.240	-0.200	1.030
2020/01/31 08:57:31.2	311.610	0.250	-0.230	1.000
2020/01/31 08:57:31.3	311.620	0.250	-0.260	0.970
2020/01/31 08:57:31.4	311.640	0.260	-0.300	0.940
2020/01/31 08:57:31.5	311.650	0.260	-0.330	0.910
2020/01/31 08:57:31.6	311.660	0.260	-0.350	0.880
2020/01/31 08:57:31.7	311.680	0.260	-0.380	0.840
2020/01/31 08:57:31.8	311.690	0.260	-0.410	0.800
2020/01/31 08:57:31.9	311.710	0.250	-0.430	0.770
2020/01/31 08:57:32.0	311.730	0.250	-0.450	0.730
2020/01/31 08:57:32.1	311.740	0.240	-0.470	0.690
2020/01/31 08:57:32.2	311.760	0.230	-0.490	0.650
2020/01/31 08:57:32.3	311.780	0.230	-0.510	0.610
2020/01/31 08:57:32.4	311.800	0.210	-0.520	0.570
2020/01/31 08:57:32.5	311.830	0.200	-0.530	0.520
2020/01/31 08:57:32.6	311.850	0.190	-0.530	0.480
2020/01/31 08:57:32.7	311.870	0.170	-0.540	0.440
2020/01/31 08:57:32.8	311.890	0.150	-0.540	0.390
2020/01/31 08:57:32.9	311.910	0.130	-0.530	0.350
2020/01/31 08:57:33.0	311.940	0.110	-0.530	0.310
2020/01/31 08:57:33.1	311.960	0.090	-0.520	0.260
2020/01/31 08:57:33.2	311.980	0.070	-0.500	0.220
2020/01/31 08:57:33.3	312.010	0.050	-0.490	0.170
2020/01/31 08:57:33.4	312.030	0.020	-0.470	0.130
2020/01/31 08:57:33.5	312.060	-0.000	-0.440	0.080
2020/01/31 08:57:33.6	312.090	-0.030	-0.420	0.040
2020/01/31 08:57:33.7	312.110	-0.050	-0.390	-0.000
2020/01/31 08:57:33.8	312.140	-0.080	-0.360	-0.050
2020/01/31 08:57:33.9	312.170	-0.100	-0.330	-0.090
2020/01/31 08:57:34.0	312.190	-0.130	-0.300	-0.130
2020/01/31 08:57:34.1	312.220	-0.160	-0.260	-0.170
2020/01/31 08:57:34.2	312.250	-0.180	-0.230	-0.210
2020/01/31 08:57:34.3	312.270	-0.210	-0.190	-0.250
2020/01/31 08:57:34.4	312.300	-0.230	-0.160	-0.280
2020/01/31 08:57:34.5	312.320	-0.250	-0.120	-0.310
2020/01/31 08:57:34.6	312.340	-0.280	-0.080	-0.340
2020/01/31 08:57:34.7	312.360	-0.300	-0.050	-0.370
2020/01/31 08:57:34.8	312.380	-0.320	-0.010	-0.390
2020/01/31 08:57:34.9	312.400	-0.340	0.020	-0.410
2020/01/31 08:57:35.0	312.410	-0.360	0.050	-0.430
2020/01/31 08:57:35.1	312.430	-0.380	0.080	-0.440
2020/01/31 08:57:35.2	312.440	-0.390	0.110	-0.450
2020/01/31 08:57:35.3	312.450	-0.410	0.130	-0.450
2020/01/31 08:57:35.4	312.460	-0.420	0.160	-0.460
2020/01/31 08:57:35.5	312.460	-0.430	0.180	-0.460
2020/01/31 08:57:35.6	312.470	-0.440	0.190	-0.450
2020/01/31 08:57:35.7	312.470	-0.450	0.210	-0.440
2020/01/31 08:57:35.8	312.470	-0.460	0.220	-0.430
2020/01/31 08:57:35.9	312.470	-0.460	0.230	-0.410
2020/01/31 08:57:36.0	312.470	-0.460	0.230	-0.400
2020/01/31 08:57:36.1	312.460	-0.460	0.230	-0.380
2020/01/31 08:57:36.2	312.460	-0.460	0.230	-0.350
2020/01/31 08:57:36.3	312.450	-0.460	0.230	-0.330
2020/01/31 08:57:36.4	312.440	-0.460	0.220	-0.300
2020/01/31 08:57:36.5	312.430	-0.450	0.210	-0.280
2020/01/31 08:57:36.6	312.420	-0.440	0.200	-0.250
2020/01/31 08:57:36.7	312.400	-0.440	0.190	-0.220
2020/01/31 08:57:36.8	312.380	-0.430	0.170	-0.190
2020/01/31 08:57:36.9	312.360	-0.410	0.160	-0.150
2020/01/31 08:57:37.0	312.340	-0.400	0.140	-0.120
2020/01/31 08:57:37.1	312.320	-0.390	0.120	-0.090
2020/01/31 08:57:37.2	312.300	-0.370	0.100	-0.050
2020/01/31 08:57:37.3	312.270	-0.350	0.080	-0.010
2020/01/31 08:57:37.4	312.250	-0.340	0.060	0.030
2020/01/31 08:57:37.5	312.220	-0.320	0.030	0.070
2020/01/31 08:57:37.6	312.190	-0.300	0.010	0.110
2020/01/31 08:57:37.7	312.160	-0.280	-0.010	0.160
2020/01/31 08:57:37.8	312.130	-0.260	-0.030	0.200
2020/01/31 08:57:37.9	312.090	-0.230	-0.050	0.250
2020/01/31 08:57:38.0	312.060	-0.210	-0.060	0.300
2020/01/31 08:57:38.1	312.030	-0.190	-0.080	0.350
2020/01/31 08:57:38.2	311.990	-0.160	-0.100	0.400
2020/01/31 08:57:38.3	311.960	-0.140	-0.120	0.450
2020/01/31 08:57:38.4	311.920	-0.110	-0.130	0.500
2020/01/31 08:57:38.5	311.890	-0.090	-0.150	0.550
2020/01/31 08:57:38.6	311.850	-0.060	-0.160	0.600
2020/01/31 08:57:38.7	311.820	-0.040	-0.170	0.650
2020/01/31 08:57:38.8	311.780	-0.010	-0.190	0.690
2020/01/31 08:57:38.9	311.740	0.010	-0.200	0.740
2020/01/31 08:57:39.0	311.710	0.040	-0.210	0.780
2020/01/31 08:57:39.1	311.680	0.060	-0.230	0.820
2020/01/31 08:57:39.2	311.640	0.080	-0.240	0.860
2020/01/31 08:57:39.3	311.610	0.110	-0.250	0.890
2020/01/31 08:57:39.4	311.580	0.130	-0.270	0.920
2020/01/31 08:57:39.5	311.550	0.150	-0.280	0.950
2020/01/31 08:57:39.6	311.520	0.170	-0.290	0.980
2020/01/31 08:57:39.7	311.490	0.190	-0.310	1.000
2020/01/31 08:57:39.8	311.470	0.210	-0.330	1.030
2020/01/31 08:57:39.9	311.440	0.230	-0.340	1.050
2020/01/31 08:57:40.0	311.420	0.250	-0.360	1.060
2020/01/31 08:57:40.1	311.400	0.270	-0.380	1.080
2020/01/31 08:57:40.2	311.390	0.290	-0.400	1.090
2020/01/31 08:57:40.3	311.370	0.300	-0.420	1.100
2020/01/31 08:57:40.4	311.350	0.320	-0.440	1.110
2020/01/31 08:57:40.5	311.340	0.330	-0.460	1.120
2020/01/31 08:57:40.6	311.330	0.350	-0.480	1.120
2020/01/31 08:57:40.7	311.320	0.360	-0.510	1.120
2020/01/31 08:57:40.8	311.320	0.380	-0.530	1.120
2020/01/31 08:57:40.9	311.320	0.390	-0.550	1.120
2020/01/31 08:57:41.0	311.320	0.400	-0.570	1.110
2020/01/31 08:57:41.1	311.330	0.410	-0.600	1.110
2020/01/31 08:57:41.2	311.340	0.420	-0.620	1.100
2020/01/31 08:57:41.3	311.350	0.430	-0.640	1.090
2020/01/31 08:57:41.4	311.350	0.430	-0.670	1.080
2020/01/31 08:57:41.5	311.370	0.440	-0.690	1.060
2020/01/31 08:57:41.6	311.380	0.440	-0.710	1.050
2020/01/31 08:57:41.7	311.400	0.440	-0.720	1.030
2020/01/31 08:57:41.8	311.410	0.440	-0.740	1.010
2020/01/31 08:57:41.9	311.430	0.440	-0.760	0.990
2020/01/31 08:57:42.0	311.450	0.440	-0.770	0.970
2020/01/31 08:57:42.1	311.470	0.430	-0.780	0.950
2020/01/31 08:57:42.2	311.500	0.430	-0.790	0.920
2020/01/31 08:57:42.3	311.520	0.420	-0.800	0.890
2020/01/31 08:57:42.4	311.530	0.410	-0.810	0.860
2020/01/31 08:57:42.5	311.560	0.390	-0.820	0.830
2020/01/31 08:57:42.6	311.590	0.380	-0.820	0.800
2020/01/31 08:57:42.7	311.620	0.360	-0.820	0.760
2020/01/31 08:57:42.8	311.640	0.340	-0.820	0.720
2020/01/31 08:57:42.9	311.680	0.320	-0.820	0.680
2020/01/31 08:57:43.0	311.710	0.290	-0.810	0.640
2020/01/31 08:57:43.1	311.740	0.270	-0.810	0.590
2020/01/31 08:57:43.2	311.770	0.240	-0.800	0.550
2020/01/31 08:57:43.3	311.800	0.210	-0.790	0.500
2020/01/31 08:57:43.4	311.840	0.180	-0.780	0.450
2020/01/31 08:57:43.5	311.880	0.150	-0.760	0.400
2020/01/31 08:57:43.6	311.910	0.120	-0.740	0.350
2020/01/31 08:57:43.7	311.950	0.090	-0.720	0.300
2020/01/31 08:57:43.8	311.980	0.050	-0.690	0.250
2020/01/31 08:57:43.9	312.020	0.020	-0.670	0.200
2020/01/31 08:57:44.0	312.050	-0.020	-0.640	0.150
2020/01/31 08:57:44.1	312.090	-0.050	-0.600	0.100
2020/01/31 08:57:44.2	312.120	-0.090	-0.570	0.060
2020/01/31 08:57:44.3	312.150	-0.120	-0.530	0.010
2020/01/31 08:57:44.4	312.190	-0.150	-0.500	-0.040
2020/01/31 08:57:44.5	312.220	-0.180	-0.450	-0.080
2020/01/31 08:57:44.6	312.250	-0.220	-0.410	-0.120
2020/01/31 08:57:44.7	312.270	-0.250	-0.370	-0.160
2020/01/31 08:57:44.8	312.300	-0.270	-0.320	-0.190
2020/01/31 08:57:44.9	312.320	-0.300	-0.280	-0.230
2020/01/31 08:57:45.0	312.340	-0.330	-0.230	-0.260
2020/01/31 08:57:45.1	312.360	-0.350	-0.180	-0.280
2020/01/31 08:57:45.2	312.380	-0.370	-0.130	-0.300
2020/01/31 08:57:45.3	312.390	-0.390	-0.080	-0.320
2020/01/31 08:57:45.4	312.400	-0.400	-0.040	-0.340
2020/01/31 08:57:45.5	312.410	-0.420	0.010	-0.350
2020/01/31 08:57:45.6	312.420	-0.430	0.060	-0.360
2020/01/31 08:57:45.7	312.420	-0.430	0.100	-0.370
2020/01/31 08:57:45.8	312.430	-0.440	0.150	-0.370
2020/01/31 08:57:45.9	312.430	-0.440	0.190	-0.360
2020/01/31 08:57:46.0	312.430	-0.440	0.230	-0.360
2020/01/31 08:57:46.1	312.430	-0.440	0.270	-0.350
2020/01/31 08:57:46.2	312.420	-0.430	0.310	-0.330
2020/01/31 08:57:46.3	312.420	-0.420	0.340	-0.320
2020/01/31 08:57:46.4	312.410	-0.410	0.380	-0.290
2020/01/31 08:57:46.5	312.400	-0.390	0.410	-0.270
2020/01/31 08:57:46.6	312.390	-0.370	0.440	-0.240
2020/01/31 08:57:46.7	312.380	-0.350	0.460	-0.210
2020/01/31 08:57:46.8	312.360	-0.330	0.490	-0.170
2020/01/31 08:57:46.9	312.340	-0.300	0.510	-0.140
2020/01/31 08:57:47.0	312.330	-0.270	0.530	-0.100
2020/01/31 08:57:47.1	312.310	-0.240	0.540	-0.060
2020/01/31 08:57:47.2	312.280	-0.210	0.550	-0.010
2020/01/31 08:57:47.3	312.260	-0.180	0.570	0.030
2020/01/31 08:57:47.4	312.230	-0.140	0.570	0.080
2020/01/31 08:57:47.5	312.210	-0.110	0.570	0.130
2020/01/31 08:57:47.6	312.180	-0.070	0.580	0.180
2020/01/31 08:57:47.7	312.150	-0.030	0.570	0.230
2020/01/31 08:57:47.8	312.120	0.000	0.570	0.290
2020/01/31 08:57:47.9	312.090	0.040	0.560	0.340
2020/01/31 08:57:48.0	312.050	0.070	0.550	0.390
2020/01/31 08:57:48.1	312.020	0.110	0.530	0.440
2020/01/31 08:57:48.2	311.990	0.140	0.510	0.480
2020/01/31 08:57:48.3	311.960	0.170	0.490	0.530
2020/01/31 08:57:48.4	311.920	0.210	0.460	0.570
2020/01/31 08:57:48.5	311.890	0.230	0.430	0.610
2020/01/31 08:57:48.6	311.860	0.260	0.400	0.650
2020/01/31 08:57:48.7	311.830	0.290	0.360	0.690
2020/01/31 08:57:48.8	311.800	0.310	0.320	0.720
2020/01/31 08:57:48.9	311.780	0.330	0.270	0.740
2020/01/31 08:57:49.0	311.750	0.350	0.230	0.770
2020/01/31 08:57:49.1	311.730	0.370	0.180	0.790
2020/01/31 08:57:49.2	311.710	0.380	0.120	0.800
2020/01/31 08:57:49.3	311.690	0.390	0.070	0.810
2020/01/31 08:57:49.4	311.670	0.400	0.020	0.820
2020/01/31 08:57:49.5	311.650	0.400	-0.040	0.820
2020/01/31 08:57:49.6	311.640	0.410	-0.100	0.820
2020/01/31 08:57:49.7	311.630	0.400	-0.150	0.810
2020/01/31 08:57:49.8	311.620	0.400	-0.210	0.810
2020/01/31 08:57:49.9	311.610	0.400	-0.260	0.790
2020/01/31 08:57:50.0	311.600	0.390	-0.320	0.780
2020/01/31 08:57:50.1	311.600	0.380	-0.370	0.760
2020/01/31 08:57:50.2	311.590	0.360	-0.420	0.740
2020/01/31 08:57:50.3	311.590	0.350	-0.460	0.720
2020/01/31 08:57:50.4	311.590	0.330	-0.510	0.690
2020/01/31 08:57:50.5	311.600	0.310	-0.550	0.670
2020/01/31 08:57:50.6	311.600	0.290	-0.580	0.640
2020/01/31 08:57:50.7	311.610	0.260	-0.620	0.610
2020/01/31 08:57:50.8	311.610	0.240	-0.640	0.590
2020/01/31 08:57:50.9	311.620	0.210	-0.670	0.560
2020/01/31 08:57:51.0	311.620	0.180	-0.690	0.530
2020/01/31 08:57:51.1	311.630	0.150	-0.700	0.500
2020/01/31 08:57:51.2	311.640	0.120	-0.720	0.470
2020/01/31 08:57:51.3	311.650	0.090	-0.720	0.450
2020/01/31 08:57:51.4	311.660	0.060	-0.730	0.420
2020/01/31 08:57:51.5	311.670	0.030	-0.730	0.400
2020/01/31 08:57:51.6	311.680	-0.010	-0.730	0.370
2020/01/31 08:57:51.7	311.690	-0.040	-0.720	0.350
2020/01/31 08:57:51.8	311.700	-0.070	-0.720	0.320
2020/01/31 08:57:51.9	311.710	-0.100	-0.710	0.300
2020/01/31 08:57:52.0	311.720	-0.130	-0.690	0.270
2020/01/31 08:57:52.1	311.730	-0.160	-0.680	0.250
2020/01/31 08:57:52.2	311.740	-0.180	-0.670	0.230
2020/01/31 08:57:52.3	311.750	-0.210	-0.650	0.210
2020/01/31 08:57:52.4	311.760	-0.230	-0.630	0.190
2020/01/31 08:57:52.5	311.770	-0.260	-0.620	0.170
2020/01/31 08:57:52.6	311.780	-0.280	-0.600	0.140
2020/01/31 08:57:52.7	311.790	-0.300	-0.580	0.120
2020/01/31 08:57:52.8	311.800	-0.320	-0.570	0.100
2020/01/31 08:57:52.9	311.810	-0.330	-0.560	0.080
2020/01/31 08:57:53.0	311.820	-0.340	-0.540	0.060
2020/01/31 08:57:53.1	311.820	-0.350	-0.530	0.040
2020/01/31 08:57:53.2	311.830	-0.360	-0.520	0.030
2020/01/31 08:57:53.3	311.840	-0.370	-0.520	0.010
2020/01/31 08:57:53.4	311.850	-0.370	-0.510	-0.020
2020/01/31 08:57:53.5	311.860	-0.370	-0.510	-0.030
2020/01/31 08:57:53.6	311.870	-0.370	-0.510	-0.050
2020/01/31 08:57:53.7	311.870	-0.370	-0.510	-0.070
2020/01/31 08:57:53.8	311.880	-0.370	-0.520	-0.080
2020/01/31 08:57:53.9	311.900	-0.360	-0.520	-0.100
2020/01/31 08:57:54.0	311.910	-0.350	-0.530	-0.120
2020/01/31 08:57:54.1	311.920	-0.340	-0.530	-0.130
2020/01/31 08:57:54.2	311.930	-0.330	-0.540	-0.140
2020/01/31 08:57:54.3	311.940	-0.320	-0.550	-0.160
2020/01/31 08:57:54.4	311.950	-0.300	-0.570	-0.170
2020/01/31 08:57:54.5	311.960	-0.280	-0.580	-0.180
2020/01/31 08:57:54.6	311.970	-0.270	-0.590	-0.190
2020/01/31 08:57:54.7	311.990	-0.250	-0.600	-0.200
2020/01/31 08:57:54.8	312.000	-0.230	-0.610	-0.210
2020/01/31 08:57:54.9	312.010	-0.210	-0.620	-0.210
2020/01/31 08:57:55.0	312.010	-0.190	-0.630	-0.210
2020/01/31 08:57:55.1	312.020	-0.170	-0.640	-0.210
2020/01/31 08:57:55.2	312.030	-0.150	-0.640	-0.210
2020/01/31 08:57:55.3	312.040	-0.130	-0.650	-0.200
2020/01/31 08:57:55.4	312.060	-0.110	-0.650	-0.190
2020/01/31 08:57:55.5	312.070	-0.090	-0.650	-0.180
2020/01/31 08:57:55.6	312.080	-0.070	-0.640	-0.160
2020/01/31 08:57:55.7	312.090	-0.050	-0.640	-0.140
2020/01/31 08:57:55.8	312.090	-0.030	-0.630	-0.120
2020/01/31 08:57:55.9	312.100	-0.010	-0.610	-0.100
2020/01/31 08:57:56.0	312.110	0.010	-0.600	-0.070
2020/01/31 08:57:56.1	312.110	0.020	-0.580	-0.040
2020/01/31 08:57:56.2	312.120	0.040	-0.560	-0.000
2020/01/31 08:57:56.3	312.120	0.050	-0.530	0.040
2020/01/31 08:57:56.4	312.140	0.070	-0.510	0.070
2020/01/31 08:57:56.5	312.140	0.080	-0.470	0.120
2020/01/31 08:57:56.6	312.140	0.090	-0.440	0.160
2020/01/31 08:57:56.7	312.150	0.100	-0.410	0.210
2020/01/31 08:57:56.8	312.150	0.110	-0.370	0.260
2020/01/31 08:57:56.9	312.150	0.120	-0.330	0.300
2020/01/31 08:57:57.0	312.150	0.120	-0.290	0.350
2020/01/31 08:57:57.1	312.150	0.130	-0.240	0.400
2020/01/31 08:57:57.2	312.140	0.130	-0.200	0.460
2020/01/31 08:57:57.3	312.140	0.130	-0.150	0.510
2020/01/31 08:57:57.4	312.150	0.140	-0.110	0.560
2020/01/31 08:57:57.5	312.150	0.140	-0.060	0.610
2020/01/31 08:57:57.6	312.140	0.140	-0.020	0.660
2020/01/31 08:57:57.7	312.140	0.140	0.030	0.710
2020/01/31 08:57:57.8	312.130	0.140	0.070	0.750
2020/01/31 08:57:57.9	312.130	0.140	0.110	0.800
2020/01/31 08:57:58.0	312.120	0.140	0.150	0.840
2020/01/31 08:57:58.1	312.120	0.130	0.190	0.880
2020/01/31 08:57:58.2	312.110	0.130	0.220	0.920
2020/01/31 08:57:58.3	312.100	0.130	0.260	0.950
2020/01/31 08:57:58.4	312.080	0.130	0.290	0.980
2020/01/31 08:57:58.5	312.070	0.120	0.310	1.010
2020/01/31 08:57:58.6	312.070	0.120	0.340	1.040
2020/01/31 08:57:58.7	312.060	0.110	0.360	1.060
2020/01/31 08:57:58.8	312.050	0.110	0.380	1.080
2020/01/31 08:57:58.9	312.040	0.110	0.390	1.100
2020/01/31 08:57:59.0	312.030	0.100	0.410	1.110
2020/01/31 08:57:59.1	312.020	0.100	0.410	1.120
2020/01/31 08:57:59.2	312.010	0.090	0.420	1.120
2020/01/31 08:57:59.3	312.000	0.090	0.420	1.130
2020/01/31 08:57:59.4	311.990	0.080	0.420	1.120
2020/01/31 08:57:59.5	311.990	0.080	0.410	1.120
2020/01/31 08:57:59.6	311.980	0.070	0.400	1.110
2020/01/31 08:57:59.7	311.980	0.070	0.390	1.100
2020/01/31 08:57:59.8	311.970	0.060	0.380	1.090
2020/01/31 08:57:59.9	311.970	0.060	0.360	1.070
2020/01/31 08:58:00.0	311.960	0.050	0.340	1.060
2020/01/31 08:58:00.1	311.960	0.050	0.320	1.040
2020/01/31 08:58:00.2	311.960	0.040	0.300	1.010
2020/01/31 08:58:00.3	311.960	0.040	0.280	0.990
2020/01/31 08:58:00.4	311.960	0.040	0.250	0.960
2020/01/31 08:58:00.5	311.960	0.030	0.230	0.930
2020/01/31 08:58:00.6	311.960	0.030	0.200	0.900
2020/01/31 08:58:00.7	311.960	0.020	0.180	0.870
2020/01/31 08:58:00.8	311.970	0.020	0.160	0.840
2020/01/31 08:58:00.9	311.970	0.010	0.140	0.810
2020/01/31 08:58:01.0	311.970	0.010	0.110	0.770
2020/01/31 08:58:01.1	311.980	0.010	0.090	0.740
2020/01/31 08:58:01.2	311.980	0.000	0.070	0.700
2020/01/31 08:58:01.3	311.990	-0.000	0.050	0.670
2020/01/31 08:58:01.4	311.990	-0.000	0.040	0.630
2020/01/31 08:58:01.5	312.000	-0.010	0.020	0.600
2020/01/31 08:58:01.6	312.010	-0.010	0.000	0.560
2020/01/31 08:58:01.7	312.010	-0.020	-0.010	0.520
2020/01/31 08:58:01.8	312.020	-0.020	-0.030	0.490
2020/01/31 08:58:01.9	312.030	-0.020	-0.040	0.450
2020/01/31 08:58:02.0	312.030	-0.030	-0.060	0.410
2020/01/31 08:58:02.1	312.040	-0.030	-0.070	0.370
2020/01/31 08:58:02.2	312.050	-0.030	-0.080	0.340
2020/01/31 08:58:02.3	312.050	-0.040	-0.100	0.300
2020/01/31 08:58:02.4	312.050	-0.040	-0.110	0.260
2020/01/31 08:58:02.5	312.060	-0.040	-0.120	0.230
2020/01/31 08:58:02.6	312.060	-0.050	-0.140	0.190
2020/01/31 08:58:02.7	312.060	-0.050	-0.150	0.150
2020/01/31 08:58:02.8	312.060	-0.050	-0.160	0.120
2020/01/31 08:58:02.9	312.060	-0.060	-0.180	0.080
2020/01/31 08:58:03.0	312.060	-0.060	-0.190	0.050
2020/01/31 08:58:03.1	312.060	-0.060	-0.210	0.010
2020/01/31 08:58:03.2	312.050	-0.060	-0.230	-0.020
2020/01/31 08:58:03.3	312.050	-0.060	-0.240	-0.060
2020/01/31 08:58:03.4	312.030	-0.060	-0.260	-0.090
2020/01/31 08:58:03.5	312.030	-0.060	-0.280	-0.120
2020/01/31 08:58:03.6	312.020	-0.060	-0.300	-0.150
2020/01/31 08:58:03.7	312.010	-0.060	-0.320	-0.180
2020/01/31 08:58:03.8	312.000	-0.060	-0.350	-0.210
2020/01/31 08:58:03.9	311.990	-0.060	-0.370	-0.230
2020/01/31 08:58:04.0	311.990	-0.050	-0.400	-0.260
2020/01/31 08:58:04.1	311.980	-0.050	-0.420	-0.280
2020/01/31 08:58:04.2	311.970	-0.040	-0.450	-0.300
2020/01/31 08:58:04.3	311.960	-0.030	-0.480	-0.310
2020/01/31 08:58:04.4	311.960	-0.030	-0.510	-0.330
2020/01/31 08:58:04.5	311.950	-0.020	-0.540	-0.340
2020/01/31 08:58:04.6	311.940	-0.010	-0.570	-0.350
2020/01/31 08:58:04.7	311.940	0.000	-0.600	-0.350
2020/01/31 08:58:04.8	311.930	0.010	-0.630	-0.350
2020/01/31 08:58:04.9	311.920	0.020	-0.660	-0.350
2020/01/31 08:58:05.0	311.920	0.040	-0.690	-0.350
2020/01/31 08:58:05.1	311.910	0.050	-0.710	-0.340
2020/01/31 08:58:05.2	311.910	0.060	-0.740	-0.330
2020/01/31 08:58:05.3	311.900	0.070	-0.770	-0.320
2020/01/31 08:58:05.4	311.900	0.080	-0.790	-0.300
2020/01/31 08:58:05.5	311.900	0.100	-0.820	-0.290
2020/01/31 08:58:05.6	311.900	0.110	-0.840	-0.270
2020/01/31 08:58:05.7	311.900	0.120	-0.870	-0.260
2020/01/31 08:58:05.8	311.900	0.130	-0.890	-0.240
2020/01/31 08:58:05.9	311.910	0.140	-0.910	-0.220
2020/01/31 08:58:06.0	311.910	0.150	-0.930	-0.200
2020/01/31 08:58:06.1	311.920	0.160	-0.950	-0.190
2020/01/31 08:58:06.2	311.930	0.170	-0.960	-0.170
2020/01/31 08:58:06.3	311.940	0.180	-0.980	-0.150
2020/01/31 08:58:06.4	311.970	0.180	-0.990	-0.130
2020/01/31 08:58:06.5	311.990	0.190	-1.000	-0.110
2020/01/31 08:58:06.6	312.010	0.190	-1.000	-0.090
2020/01/31 08:58:06.7	312.030	0.200	-1.000	-0.070
2020/01/31 08:58:06.8	312.050	0.200	-1.000	-0.050
2020/01/31 08:58:06.9	312.070	0.200	-1.000	-0.030
2020/01/31 08:58:07.0	312.090	0.200	-0.990	-0.010
2020/01/31 08:58:07.1	312.120	0.190	-0.980	0.010
2020/01/31 08:58:07.2	312.140	0.190	-0.970	0.030
2020/01/31 08:58:07.3	312.170	0.180	-0.950	0.050
2020/01/31 08:58:07.4	312.200	0.180	-0.930	0.080
2020/01/31 08:58:07.5	312.230	0.170	-0.900	0.100
2020/01/31 08:58:07.6	312.250	0.160	-0.870	0.120
2020/01/31 08:58:07.7	312.280	0.150	-0.840	0.140
2020/01/31 08:58:07.8	312.310	0.130	-0.810	0.160
2020/01/31 08:58:07.9	312.330	0.120	-0.770	0.180
2020/01/31 08:58:08.0	312.360	0.110	-0.730	0.200
2020/01/31 08:58:08.1	312.380	0.090	-0.690	0.220
2020/01/31 08:58:08.2	312.410	0.080	-0.640	0.240
2020/01/31 08:58:08.3	312.430	0.060	-0.590	0.260
2020/01/31 08:58:08.4	312.460	0.040	-0.550	0.280
2020/01/31 08:58:08.5	312.480	0.030	-0.500	0.300
2020/01/31 08:58:08.6	312.500	0.010	-0.450	0.320
2020/01/31 08:58:08.7	312.520	-0.010	-0.390	0.340
2020/01/31 08:58:08.8	312.540	-0.020	-0.340	0.360
2020/01/31 08:58:08.9	312.550	-0.040	-0.290	0.370
2020/01/31 08:58:09.0	312.570	-0.060	-0.240	0.390
2020/01/31 08:58:09.1	312.580	-0.070	-0.190	0.410
2020/01/31 08:58:09.2	312.590	-0.090	-0.140	0.420
2020/01/31 08:58:09.3	312.610	-0.100	-0.090	0.440
2020/01/31 08:58:09.4	312.610	-0.110	-0.040	0.460
2020/01/31 08:58:09.5	312.620	-0.120	0.000	0.470
2020/01/31 08:58:09.6	312.620	-0.140	0.050	0.480
2020/01/31 08:58:09.7	312.630	-0.150	0.090	0.500
2020/01/31 08:58:09.8	312.630	-0.160	0.130	0.510
2020/01/31 08:58:09.9	312.630	-0.170	0.170	0.520
2020/01/31 08:58:10.0	312.640	-0.170	0.210	0.520
2020/01/31 08:58:10.1	312.640	-0.180	0.240	0.530
2020/01/31 08:58:10.2	312.630	-0.190	0.270	0.540
2020/01/31 08:58:10.3	312.630	-0.190	0.300	0.540
2020/01/31 08:58:10.4	312.620	-0.200	0.330	0.540
2020/01/31 08:58:10.5	312.610	-0.210	0.350	0.540
2020/01/31 08:58:10.6	312.610	-0.210	0.380	0.540
2020/01/31 08:58:10.7	312.600	-0.210	0.400	0.540
2020/01/31 08:58:10.8	312.590	-0.220	0.410	0.530
2020/01/31 08:58:10.9	312.580	-0.220	0.430	0.530
2020/01/31 08:58:11.0	312.580	-0.230	0.440	0.520
2020/01/31 08:58:11.1	312.570	-0.230	0.450	0.510
2020/01/31 08:58:11.2	312.550	-0.240	0.460	0.500
2020/01/31 08:58:11.3	312.540	-0.240	0.470	0.490
2020/01/31 08:58:11.4	312.520	-0.240	0.480	0.470
2020/01/31 08:58:11.5	312.510	-0.250	0.480	0.460
2020/01/31 08:58:11.6	312.490	-0.250	0.490	0.440
2020/01/31 08:58:11.7	312.480	-0.260	0.490	0.430
2020/01/31 08:58:11.8	312.460	-0.260	0.500	0.420
2020/01/31 08:58:11.9	312.450	-0.260	0.510	0.400
2020/01/31 08:58:12.0	312.430	-0.270	0.510	0.390
2020/01/31 08:58:12.1	312.410	-0.270	0.520	0.370
2020/01/31 08:58:12.2	312.400	-0.270	0.520	0.360
2020/01/31 08:58:12.3	312.380	-0.270	0.530	0.350
2020/01/31 08:58:12.4	312.350	-0.270	0.530	0.330
2020/01/31 08:58:12.5	312.330	-0.270	0.530	0.320
2020/01/31 08:58:12.6	312.310	-0.270	0.540	0.300
2020/01/31 08:58:12.7	312.280	-0.270	0.540	0.290
2020/01/31 08:58:12.8	312.260	-0.270	0.540	0.280
2020/01/31 08:58:12.9	312.240	-0.260	0.540	0.270
2020/01/31 08:58:13.0	312.220	-0.260	0.540	0.260
2020/01/31 08:58:13.1	312.190	-0.250	0.530	0.250
2020/01/31 08:58:13.2	312.170	-0.250	0.520	0.240
2020/01/31 08:58:13.3	312.150	-0.240	0.510	0.230
2020/01/31 08:58:13.4	312.120	-0.230	0.500	0.220
2020/01/31 08:58:13.5	312.090	-0.220	0.480	0.210
2020/01/31 08:58:13.6	312.070	-0.210	0.460	0.200
2020/01/31 08:58:13.7	312.040	-0.190	0.430	0.190
2020/01/31 08:58:13.8	312.020	-0.180	0.400	0.180
2020/01/31 08:58:13.9	312.000	-0.160	0.370	0.180
2020/01/31 08:58:14.0	311.980	-0.140	0.330	0.170
2020/01/31 08:58:14.1	311.960	-0.130	0.290	0.160
2020/01/31 08:58:14.2	311.940	-0.110	0.240	0.150
2020/01/31 08:58:14.3	311.920	-0.080	0.190	0.140
2020/01/31 08:58:14.4	311.910	-0.060	0.140	0.130
2020/01/31 08:58:14.5	311.890	-0.040	0.080	0.130
2020/01/31 08:58:14.6	311.880	-0.010	0.020	0.120
2020/01/31 08:58:14.7	311.870	0.010	-0.040	0.110
2020/01/31 08:58:14.8	311.860	0.040	-0.110	0.100
2020/01/31 08:58:14.9	311.860	0.060	-0.170	0.090
2020/01/31 08:58:15.0	311.850	0.090	-0.240	0.090
2020/01/31 08:58:15.1	311.850	0.110	-0.310	0.080
2020/01/31 08:58:15.2	311.850	0.140	-0.380	0.070
2020/01/31 08:58:15.3	311.850	0.170	-0.440	0.060
2020/01/31 08:58:15.4	311.850	0.190	-0.510	0.050
2020/01/31 08:58:15.5	311.860	0.220	-0.580	0.040
2020/01/31 08:58:15.6	311.860	0.250	-0.640	0.030
2020/01/31 08:58:15.7	311.870	0.270	-0.710	0.020
2020/01/31 08:58:15.8	311.880	0.290	-0.770	0.010
2020/01/31 08:58:15.9	311.890	0.320	-0.820	0.000
2020/01/31 08:58:16.0	311.900	0.340	-0.880	-0.010
2020/01/31 08:58:16.1	311.910	0.360	-0.930	-0.020
2020/01/31 08:58:16.2	311.920	0.380	-0.970	-0.030
2020/01/31 08:58:16.3	311.930	0.390	-1.020	-0.040
2020/01/31 08:58:16.4	311.950	0.410	-1.050	-0.050
2020/01/31 08:58:16.5	311.970	0.420	-1.090	-0.060
2020/01/31 08:58:16.6	311.990	0.430	-1.110	-0.070
2020/01/31 08:58:16.7	312.000	0.440	-1.140	-0.080
2020/01/31 08:58:16.8	312.030	0.440	-1.160	-0.090
2020/01/31 08:58:16.9	312.050	0.450	-1.180	-0.100
2020/01/31 08:58:17.0	312.070	0.450	-1.190	-0.110
2020/01/31 08:58:17.1	312.100	0.450	-1.190	-0.120
2020/01/31 08:58:17.2	312.120	0.450	-1.200	-0.120
2020/01/31 08:58:17.3	312.150	0.440	-1.190	-0.130
2020/01/31 08:58:17.4	312.190	0.430	-1.180	-0.140
2020/01/31 08:58:17.5	312.220	0.420	-1.170	-0.150
2020/01/31 08:58:17.6	312.250	0.410	-1.160	-0.160
2020/01/31 08:58:17.7	312.280	0.400	-1.140	-0.160
2020/01/31 08:58:17.8	312.310	0.380	-1.120	-0.170
2020/01/31 08:58:17.9	312.340	0.370	-1.090	-0.170
2020/01/31 08:58:18.0	312.370	0.350	-1.070	-0.170
2020/01/31 08:58:18.1	312.400	0.320	-1.040	-0.180
2020/01/31 08:58:18.2	312.420	0.300	-1.000	-0.180
2020/01/31 08:58:18.3	312.450	0.280	-0.970	-0.170
2020/01/31 08:58:18.4	312.480	0.260	-0.930	-0.170
2020/01/31 08:58:18.5	312.500	0.230	-0.890	-0.170
2020/01/31 08:58:18.6	312.530	0.210	-0.850	-0.160
2020/01/31 08:58:18.7	312.550	0.180	-0.810	-0.150
2020/01/31 08:58:18.8	312.570	0.150	-0.760	-0.140
2020/01/31 08:58:18.9	312.600	0.130	-0.720	-0.130
2020/01/31 08:58:19.0	312.620	0.100	-0.680	-0.120
2020/01/31 08:58:19.1	312.640	0.080	-0.630	-0.110
2020/01/31 08:58:19.2	312.660	0.050	-0.590	-0.090
2020/01/31 08:58:19.3	312.680	0.030	-0.550	-0.080
2020/01/31 08:58:19.4	312.680	0.000	-0.510	-0.070
2020/01/31 08:58:19.5	312.700	-0.020	-0.470	-0.050
2020/01/31 08:58:19.6	312.720	-0.040	-0.430	-0.040
2020/01/31 08:58:19.7	312.730	-0.060	-0.400	-0.030
2020/01/31 08:58:19.8	312.750	-0.080	-0.370	-0.010
2020/01/31 08:58:19.9	312.760	-0.100	-0.340	-0.000
2020/01/31 08:58:20.0	312.780	-0.120	-0.310	0.010
2020/01/31 08:58:20.1	312.790	-0.130	-0.280	0.020
2020/01/31 08:58:20.2	312.800	-0.140	-0.260	0.030
2020/01/31 08:58:20.3	312.810	-0.160	-0.240	0.040
2020/01/31 08:58:20.4	312.810	-0.170	-0.220	0.060
2020/01/31 08:58:20.5	312.810	-0.180	-0.200	0.070
2020/01/31 08:58:20.6	312.820	-0.180	-0.190	0.080
2020/01/31 08:58:20.7	312.820	-0.190	-0.170	0.100
2020/01/31 08:58:20.8	312.830	-0.190	-0.160	0.110
2020/01/31 08:58:20.9	312.830	-0.200	-0.140	0.130
2020/01/31 08:58:21.0	312.820	-0.200	-0.130	0.140
2020/01/31 08:58:21.1	312.820	-0.200	-0.110	0.160
2020/01/31 08:58:21.2	312.820	-0.200	-0.100	0.180
2020/01/31 08:58:21.3	312.810	-0.200	-0.080	0.210
2020/01/31 08:58:21.4	312.790	-0.200	-0.070	0.230
2020/01/31 08:58:21.5	312.780	-0.200	-0.050	0.250
2020/01/31 08:58:21.6	312.770	-0.190	-0.040	0.280
2020/01/31 08:58:21.7	312.750	-0.190	-0.020	0.300
2020/01/31 08:58:21.8	312.740	-0.190	-0.000	0.330
2020/01/31 08:58:21.9	312.720	-0.180	0.020	0.360
2020/01/31 08:58:22.0	312.700	-0.180	0.040	0.390
2020/01/31 08:58:22.1	312.680	-0.170	0.060	0.420
2020/01/31 08:58:22.2	312.650	-0.170	0.080	0.450
2020/01/31 08:58:22.3	312.630	-0.170	0.100	0.480
2020/01/31 08:58:22.4	312.590	-0.160	0.120	0.510
2020/01/31 08:58:22.5	312.570	-0.160	0.140	0.540
2020/01/31 08:58:22.6	312.540	-0.160	0.160	0.570
2020/01/31 08:58:22.7	312.510	-0.150	0.180	0.600
2020/01/31 08:58:22.8	312.470	-0.150	0.200	0.620
2020/01/31 08:58:22.9	312.440	-0.150	0.220	0.650
2020/01/31 08:58:23.0	312.410	-0.150	0.240	0.670
2020/01/31 08:58:23.1	312.380	-0.140	0.260	0.700
2020/01/31 08:58:23.2	312.350	-0.140	0.280	0.720
2020/01/31 08:58:23.3	312.310	-0.140	0.290	0.730
2020/01/31 08:58:23.4	312.260	-0.140	0.310	0.750
2020/01/31 08:58:23.5	312.230	-0.140	0.320	0.760
2020/01/31 08:58:23.6	312.200	-0.140	0.330	0.770
2020/01/31 08:58:23.7	312.180	-0.140	0.340	0.770
2020/01/31 08:58:23.8	312.150	-0.140	0.340	0.770
2020/01/31 08:58:23.9	312.130	-0.150	0.350	0.770
2020/01/31 08:58:24.0	312.100	-0.150	0.350	0.770
2020/01/31 08:58:24.1	312.080	-0.150	0.350	0.760
2020/01/31 08:58:24.2	312.070	-0.150	0.340	0.750
2020/01/31 08:58:24.3	312.050	-0.150	0.340	0.740
2020/01/31 08:58:24.4	312.030	-0.150	0.330	0.720
2020/01/31 08:58:24.5	312.020	-0.150	0.320	0.700
2020/01/31 08:58:24.6	312.010	-0.150	0.300	0.680
2020/01/31 08:58:24.7	312.000	-0.140	0.290	0.660
2020/01/31 08:58:24.8	311.990	-0.140	0.270	0.630
2020/01/31 08:58:24.9	311.990	-0.140	0.260	0.600
2020/01/31 08:58:25.0	311.980	-0.140	0.240	0.580
2020/01/31 08:58:25.1	311.980	-0.130	0.220	0.550
2020/01/31 08:58:25.2	311.980	-0.130	0.200	0.510
2020/01/31 08:58:25.3	311.980	-0.120	0.170	0.480
2020/01/31 08:58:25.4	312.000	-0.120	0.150	0.450
2020/01/31 08:58:25.5	312.000	-0.110	0.120	0.420
2020/01/31 08:58:25.6	312.010	-0.100	0.100	0.390
2020/01/31 08:58:25.7	312.020	-0.100	0.070	0.360
2020/01/31 08:58:25.8	312.030	-0.090	0.050	0.330
2020/01/31 08:58:25.9	312.040	-0.080	0.020	0.300
2020/01/31 08:58:26.0	312.050	-0.070	-0.010	0.270
2020/01/31 08:58:26.1	312.070	-0.050	-0.030	0.240
2020/01/31 08:58:26.2	312.080	-0.040	-0.060	0.220
2020/01/31 08:58:26.3	312.100	-0.030	-0.080	0.190
2020/01/31 08:58:26.4	312.120	-0.010	-0.110	0.170
2020/01/31 08:58:26.5	312.130	0.000	-0.140	0.140
2020/01/31 08:58:26.6	312.150	0.020	-0.160	0.120
2020/01/31 08:58:26.7	312.170	0.030	-0.180	0.100
2020/01/31 08:58:26.8	312.190	0.050	-0.210	0.080
2020/01/31 08:58:26.9	312.210	0.060	-0.230	0.060
2020/01/31 08:58:27.0	312.230	0.080	-0.250	0.040
2020/01/31 08:58:27.1	312.250	0.090	-0.270	0.030
2020/01/31 08:58:27.2	312.270	0.110	-0.280	0.020
2020/01/31 08:58:27.3	312.280	0.120	-0.300	0.010
2020/01/31 08:58:27.4	312.300	0.140	-0.310	0.000
2020/01/31 08:58:27.5	312.320	0.150	-0.330	-0.000
2020/01/31 08:58:27.6	312.330	0.160	-0.340	-0.010
2020/01/31 08:58:27.7	312.340	0.180	-0.340	-0.010
2020/01/31 08:58:27.8	312.350	0.190	-0.350	-0.000
2020/01/31 08:58:27.9	312.350	0.200	-0.360	0.010
2020/01/31 08:58:28.0	312.360	0.210	-0.360	0.020
2020/01/31 08:58:28.1	312.360	0.220	-0.360	0.030
2020/01/31 08:58:28.2	312.360	0.230	-0.370	0.050
2020/01/31 08:58:28.3	312.360	0.230	-0.370	0.060
2020/01/31 08:58:28.4	312.360	0.240	-0.370	0.090
2020/01/31 08:58:28.5	312.350	0.240	-0.360	0.110
2020/01/31 08:58:28.6	312.340	0.250	-0.360	0.140
2020/01/31 08:58:28.7	312.330	0.250	-0.360	0.170
2020/01/31 08:58:28.8	312.320	0.260	-0.360	0.200
2020/01/31 08:58:28.9	312.300	0.260	-0.360	0.240
2020/01/31 08:58:29.0	312.290	0.260	-0.350	0.270
2020/01/31 08:58:29.1	312.270	0.260	-0.350	0.310
2020/01/31 08:58:29.2	312.250	0.260	-0.350	0.340
2020/01/31 08:58:29.3	312.230	0.260	-0.350	0.380
2020/01/31 08:58:29.4	312.220	0.260	-0.350	0.420
2020/01/31 08:58:29.5	312.200	0.260	-0.350	0.450
2020/01/31 08:58:29.6	312.180	0.260	-0.360	0.480
2020/01/31 08:58:29.7	312.160	0.260	-0.370	0.520
2020/01/31 08:58:29.8	312.140	0.260	-0.370	0.550
2020/01/31 08:58:29.9	312.120	0.250	-0.380	0.570
2020/01/31 08:58:30.0	312.100	0.250	-0.400	0.600
2020/01/31 08:58:30.1	312.080	0.250	-0.410	0.620
2020/01/31 08:58:30.2	312.070	0.250	-0.430	0.640
2020/01/31 08:58:30.3	312.050	0.250	-0.440	0.660
2020/01/31 08:58:30.4	312.040	0.250	-0.470	0.680
2020/01/31 08:58:30.5	312.030	0.250	-0.490	0.690
2020/01/31 08:58:30.6	312.020	0.250	-0.510	0.700
2020/01/31 08:58:30.7	312.010	0.240	-0.530	0.700
2020/01/31 08:58:30.8	312.000	0.240	-0.560	0.700
2020/01/31 08:58:30.9	312.000	0.240	-0.590	0.700
2020/01/31 08:58:31.0	311.990	0.240	-0.610	0.700
2020/01/31 08:58:31.1	311.990	0.230	-0.640	0.690
2020/01/31 08:58:31.2	311.990	0.230	-0.670	0.670
2020/01/31 08:58:31.3	311.990	0.220	-0.690	0.660
2020/01/31 08:58:31.4	312.010	0.210	-0.710	0.640
2020/01/31 08:58:31.5	312.020	0.210	-0.740	0.610
2020/01/31 08:58:31.6	312.020	0.200	-0.760	0.590
2020/01/31 08:58:31.7	312.030	0.190	-0.780	0.560
2020/01/31 08:58:31.8	312.040	0.180	-0.800	0.530
2020/01/31 08:58:31.9	312.040	0.170	-0.820	0.500
2020/01/31 08:58:32.0	312.050	0.160	-0.830	0.470
2020/01/31 08:58:32.1	312.060	0.150	-0.840	0.440
2020/01/31 08:58:32.2	312.070	0.130	-0.850	0.400
2020/01/31 08:58:32.3	312.080	0.120	-0.860	0.370
2020/01/31 08:58:32.4	312.110	0.110	-0.860	0.340
2020/01/31 08:58:32.5	312.120	0.090	-0.850	0.300
2020/01/31 08:58:32.6	312.130	0.070	-0.850	0.270
2020/01/31 08:58:32.7	312.140	0.060	-0.840	0.230
2020/01/31 08:58:32.8	312.160	0.040	-0.830	0.200
2020/01/31 08:58:32.9	312.170	0.020	-0.810	0.160
2020/01/31 08:58:33.0	312.190	0.000	-0.790	0.130
2020/01/31 08:58:33.1	312.200	-0.020	-0.770	0.100
2020/01/31 08:58:33.2	312.220	-0.030	-0.740	0.070
2020/01/31 08:58:33.3	312.240	-0.050	-0.720	0.040
2020/01/31 08:58:33.4	312.260	-0.070	-0.690	0.010
2020/01/31 08:58:33.5	312.280	-0.090	-0.650	-0.010
2020/01/31 08:58:33.6	312.290	-0.110	-0.620	-0.030
2020/01/31 08:58:33.7	312.300	-0.120	-0.580	-0.050
2020/01/31 08:58:33.8	312.320	-0.140	-0.540	-0.070
2020/01/31 08:58:33.9	312.330	-0.150	-0.500	-0.090
2020/01/31 08:58:34.0	312.340	-0.170	-0.460	-0.100
2020/01/31 08:58:34.1	312.350	-0.180	-0.420	-0.110
2020/01/31 08:58:34.2	312.360	-0.200	-0.370	-0.110
2020/01/31 08:58:34.3	312.360	-0.210	-0.330	-0.120
2020/01/31 08:58:34.4	312.380	-0.220	-0.280	-0.120
2020/01/31 08:58:34.5	312.380	-0.230	-0.230	-0.110
2020/01/31 08:58:34.6	312.390	-0.240	-0.190	-0.100
2020/01/31 08:58:34.7	312.390	-0.240	-0.140	-0.090
2020/01/31 08:58:34.8	312.390	-0.250	-0.090	-0.070
2020/01/31 08:58:34.9	312.390	-0.260	-0.050	-0.060
2020/01/31 08:58:35.0	312.390	-0.260	-0.000	-0.030
2020/01/31 08:58:35.1	312.390	-0.260	0.040	-0.010
2020/01/31 08:58:35.2	312.390	-0.270	0.080	0.020
2020/01/31 08:58:35.3	312.380	-0.270	0.120	0.050
2020/01/31 08:58:35.4	312.390	-0.270	0.160	0.080
2020/01/31 08:58:35.5	312.380	-0.270	0.200	0.110
2020/01/31 08:58:35.6	312.370	-0.270	0.240	0.140
2020/01/31 08:58:35.7	312.360	-0.270	0.270	0.170
2020/01/31 08:58:35.8	312.350	-0.270	0.300	0.210
2020/01/31 08:58:35.9	312.340	-0.270	0.330	0.240
2020/01/31 08:58:36.0	312.330	-0.270	0.360	0.280
2020/01/31 08:58:36.1	312.320	-0.270	0.380	0.310
2020/01/31 08:58:36.2	312.300	-0.270	0.400	0.350
2020/01/31 08:58:36.3	312.290	-0.270	0.410	0.380
2020/01/31 08:58:36.4	312.270	-0.260	0.430	0.410
2020/01/31 08:58:36.5	312.260	-0.260	0.440	0.440
2020/01/31 08:58:36.6	312.240	-0.260	0.450	0.480
2020/01/31 08:58:36.7	312.230	-0.250	0.450	0.510
2020/01/31 08:58:36.8	312.210	-0.250	0.450	0.540
2020/01/31 08:58:36.9	312.200	-0.240	0.440	0.570
2020/01/31 08:58:37.0	312.180	-0.240	0.430	0.590
2020/01/31 08:58:37.1	312.170	-0.230	0.420	0.620
2020/01/31 08:58:37.2	312.160	-0.220	0.410	0.640
2020/01/31 08:58:37.3	312.140	-0.210	0.380	0.660
2020/01/31 08:58:37.4	312.130	-0.200	0.360	0.680
2020/01/31 08:58:37.5	312.120	-0.190	0.330	0.700
2020/01/31 08:58:37.6	312.110	-0.180	0.300	0.720
2020/01/31 08:58:37.7	312.100	-0.170	0.260	0.730
2020/01/31 08:58:37.8	312.090	-0.150	0.230	0.740
2020/01/31 08:58:37.9	312.080	-0.130	0.180	0.750
2020/01/31 08:58:38.0	312.070	-0.120	0.140	0.760
2020/01/31 08:58:38.1	312.070	-0.100	0.090	0.770
2020/01/31 08:58:38.2	312.070	-0.080	0.040	0.770
2020/01/31 08:58:38.3	312.060	-0.060	-0.000	0.770
2020/01/31 08:58:38.4	312.060	-0.030	-0.050	0.770
2020/01/31 08:58:38.5	312.060	-0.010	-0.110	0.770
2020/01/31 08:58:38.6	312.060	0.010	-0.160	0.760
2020/01/31 08:58:38.7	312.060	0.040	-0.210	0.760
2020/01/31 08:58:38.8	312.070	0.070	-0.260	0.750
2020/01/31 08:58:38.9	312.070	0.090	-0.300	0.740
2020/01/31 08:58:39.0	312.080	0.120	-0.350	0.730
2020/01/31 08:58:39.1	312.090	0.150	-0.390	0.710
2020/01/31 08:58:39.2	312.090	0.170	-0.430	0.700
2020/01/31 08:58:39.3	312.100	0.200	-0.470	0.690
2020/01/31 08:58:39.4	312.110	0.220	-0.500	0.670
2020/01/31 08:58:39.5	312.120	0.240	-0.540	0.660
2020/01/31 08:58:39.6	312.130	0.260	-0.560	0.640
2020/01/31 08:58:39.7	312.140	0.280	-0.580	0.630
2020/01/31 08:58:39.8	312.150	0.300	-0.600	0.610
2020/01/31 08:58:39.9	312.150	0.320	-0.610	0.590
2020/01/31 08:58:40.0	312.160	0.330	-0.620	0.580
2020/01/31 08:58:40.1	312.160	0.340	-0.620	0.560
2020/01/31 08:58:40.2	312.160	0.350	-0.620	0.540
2020/01/31 08:58:40.3	312.170	0.350	-0.620	0.520
2020/01/31 08:58:40.4	312.170	0.360	-0.610	0.510
2020/01/31 08:58:40.5	312.170	0.360	-0.590	0.490
2020/01/31 08:58:40.6	312.160	0.350	-0.580	0.470
2020/01/31 08:58:40.7	312.160	0.350	-0.560	0.450
2020/01/31 08:58:40.8	312.150	0.340	-0.530	0.430
2020/01/31 08:58:40.9	312.150	0.330	-0.500	0.410
2020/01/31 08:58:41.0	312.140	0.310	-0.470	0.380
2020/01/31 08:58:41.1	312.130	0.300	-0.440	0.360
2020/01/31 08:58:41.2	312.120	0.280	-0.410	0.340
2020/01/31 08:58:41.3	312.110	0.260	-0.370	0.320
2020/01/31 08:58:41.4	312.100	0.240	-0.330	0.300
2020/01/31 08:58:41.5	312.090	0.210	-0.290	0.270
2020/01/31 08:58:41.6	312.080	0.190	-0.250	0.250
2020/01/31 08:58:41.7	312.070	0.170	-0.210	0.230
2020/01/31 08:58:41.8	312.060	0.140	-0.170	0.210
2020/01/31 08:58:41.9	312.060	0.110	-0.140	0.180
2020/01/31 08:58:42.0	312.050	0.090	-0.100	0.160
2020/01/31 08:58:42.1	312.040	0.060	-0.060	0.140
2020/01/31 08:58:42.2	312.030	0.030	-0.030	0.110
2020/01/31 08:58:42.3	312.030	0.010	0.010	0.090
2020/01/31 08:58:42.4	312.010	-0.020	0.040	0.060
2020/01/31 08:58:42.5	312.010	-0.040	0.070	0.040
2020/01/31 08:58:42.6	312.000	-0.070	0.090	0.020
2020/01/31 08:58:42.7	312.000	-0.090	0.120	-0.000
2020/01/31 08:58:42.8	311.990	-0.110	0.140	-0.020
2020/01/31 08:58:42.9	311.980	-0.130	0.160	-0.040
2020/01/31 08:58:43.0	311.980	-0.150	0.180	-0.060
2020/01/31 08:58:43.1	311.970	-0.170	0.190	-0.070
2020/01/31 08:58:43.2	311.960	-0.180	0.200	-0.090
2020/01/31 08:58:43.3	311.960	-0.200	0.210	-0.100
2020/01/31 08:58:43.4	311.950	-0.210	0.210	-0.110
2020/01/31 08:58:43.5	311.940	-0.230	0.210	-0.120
2020/01/31 08:58:43.6	311.930	-0.240	0.210	-0.120
2020/01/31 08:58:43.7	311.920	-0.250	0.200	-0.120
2020/01/31 08:58:43.8	311.910	-0.250	0.190	-0.120
2020/01/31 08:58:43.9	311.900	-0.260	0.180	-0.120
2020/01/31 08:58:44.0	311.890	-0.270	0.170	-0.110
2020/01/31 08:58:44.1	311.880	-0.270	0.150	-0.100
2020/01/31 08:58:44.2	311.870	-0.270	0.130	-0.090
2020/01/31 08:58:44.3	311.860	-0.270	0.110	-0.080
2020/01/31 08:58:44.4	311.850	-0.270	0.080	-0.060
2020/01/31 08:58:44.5	311.830	-0.270	0.050	-0.050
2020/01/31 08:58:44.6	311.820	-0.270	0.020	-0.030
2020/01/31 08:58:44.7	311.810	-0.260	-0.010	-0.010
2020/01/31 08:58:44.8	311.800	-0.250	-0.050	0.020
2020/01/31 08:58:44.9	311.790	-0.250	-0.090	0.040
2020/01/31 08:58:45.0	311.780	-0.240	-0.140	0.060
2020/01/31 08:58:45.1	311.780	-0.230	-0.180	0.090
2020/01/31 08:58:45.2	311.770	-0.220	-0.230	0.110
2020/01/31 08:58:45.3	311.760	-0.210	-0.280	0.130
2020/01/31 08:58:45.4	311.760	-0.200	-0.330	0.160
2020/01/31 08:58:45.5	311.760	-0.180	-0.380	0.180
2020/01/31 08:58:45.6	311.750	-0.170	-0.430	0.210
2020/01/31 08:58:45.7	311.750	-0.160	-0.480	0.230
2020/01/31 08:58:45.8	311.750	-0.140	-0.530	0.250
2020/01/31 08:58:45.9	311.740	-0.130	-0.580	0.270
2020/01/31 08:58:46.0	311.740	-0.110	-0.630	0.290
2020/01/31 08:58:46.1	311.740	-0.100	-0.680	0.310
2020/01/31 08:58:46.2	311.730	-0.080	-0.730	0.330
2020/01/31 08:58:46.3	311.730	-0.070	-0.770	0.350
2020/01/31 08:58:46.4	311.720	-0.050	-0.810	0.370
2020/01/31 08:58:46.5	311.720	-0.040	-0.850	0.380
2020/01/31 08:58:46.6	311.720	-0.020	-0.880	0.400
2020/01/31 08:58:46.7	311.710	-0.000	-0.910	0.420
2020/01/31 08:58:46.8	311.710	0.010	-0.940	0.430
2020/01/31 08:58:46.9	311.720	0.030	-0.960	0.450
2020/01/31 08:58:47.0	311.720	0.040	-0.980	0.470
2020/01/31 08:58:47.1	311.720	0.060	-1.000	0.480
2020/01/31 08:58:47.2	311.730	0.080	-1.010	0.490
2020/01/31 08:58:47.3	311.730	0.090	-1.020	0.510
2020/01/31 08:58:47.4	311.740	0.110	-1.020	0.520
2020/01/31 08:58:47.5	311.750	0.120	-1.030	0.530
2020/01/31 08:58:47.6	311.770	0.140	-1.020	0.540
2020/01/31 08:58:47.7	311.780	0.150	-1.020	0.540
2020/01/31 08:58:47.8	311.800	0.170	-1.010	0.550
2020/01/31 08:58:47.9	311.810	0.180	-1.000	0.550
2020/01/31 08:58:48.0	311.830	0.190	-0.990	0.550
2020/01/31 08:58:48.1	311.850	0.210	-0.970	0.560
2020/01/31 08:58:48.2	311.880	0.220	-0.950	0.560
2020/01/31 08:58:48.3	311.900	0.230	-0.930	0.550
2020/01/31 08:58:48.4	311.940	0.240	-0.910	0.550
2020/01/31 08:58:48.5	311.960	0.250	-0.880	0.550
2020/01/31 08:58:48.6	311.990	0.260	-0.850	0.540
2020/01/31 08:58:48.7	312.020	0.270	-0.820	0.540
2020/01/31 08:58:48.8	312.040	0.280	-0.790	0.530
2020/01/31 08:58:48.9	312.070	0.280	-0.760	0.530
2020/01/31 08:58:49.0	312.100	0.290	-0.720	0.520
2020/01/31 08:58:49.1	312.130	0.290	-0.690	0.510
2020/01/31 08:58:49.2	312.150	0.300	-0.650	0.500
2020/01/31 08:58:49.3	312.180	0.300	-0.610	0.500
2020/01/31 08:58:49.4	312.210	0.300	-0.570	0.490
2020/01/31 08:58:49.5	312.230	0.300	-0.530	0.480
2020/01/31 08:58:49.6	312.260	0.300	-0.480	0.470
2020/01/31 08:58:49.7	312.280	0.290	-0.440	0.460
2020/01/31 08:58:49.8	312.300	0.290	-0.390	0.450
2020/01/31 08:58:49.9	312.320	0.280	-0.350	0.440
2020/01/31 08:58:50.0	312.340	0.280	-0.300	0.440
2020/01/31 08:58:50.1	312.360	0.270	-0.250	0.430
2020/01/31 08:58:50.2	312.370	0.260	-0.200	0.420
2020/01/31 08:58:50.3	312.380	0.250	-0.150	0.410
2020/01/31 08:58:50.4	312.380	0.240	-0.090	0.400
2020/01/31 08:58:50.5	312.390	0.230	-0.040	0.400
2020/01/31 08:58:50.6	312.400	0.210	0.010	0.390
2020/01/31 08:58:50.7	312.400	0.200	0.060	0.390
2020/01/31 08:58:50.8	312.400	0.180	0.120	0.380
2020/01/31 08:58:50.9	312.400	0.170	0.170	0.380
2020/01/31 08:58:51.0	312.390	0.150	0.220	0.370
2020/01/31 08:58:51.1	312.390	0.130	0.260	0.370
2020/01/31 08:58:51.2	312.390	0.110	0.310	0.360
2020/01/31 08:58:51.3	312.380	0.090	0.350	0.360
2020/01/31 08:58:51.4	312.370	0.070	0.390	0.350
2020/01/31 08:58:51.5	312.360	0.040	0.430	0.340
2020/01/31 08:58:51.6	312.350	0.020	0.460	0.330
2020/01/31 08:58:51.7	312.350	0.000	0.490	0.320
2020/01/31 08:58:51.8	312.340	-0.020	0.520	0.310
2020/01/31 08:58:51.9	312.330	-0.040	0.540	0.290
2020/01/31 08:58:52.0	312.330	-0.070	0.550	0.280
2020/01/31 08:58:52.1	312.320	-0.090	0.570	0.260
2020/01/31 08:58:52.2	312.310	-0.110	0.580	0.250
2020/01/31 08:58:52.3	312.300	-0.130	0.580	0.230
2020/01/31 08:58:52.4	312.280	-0.150	0.580	0.220
2020/01/31 08:58:52.5	312.270	-0.170	0.580	0.200
2020/01/31 08:58:52.6	312.260	-0.190	0.570	0.180
2020/01/31 08:58:52.7	312.240	-0.210	0.560	0.170
2020/01/31 08:58:52.8	312.220	-0.230	0.550	0.150
2020/01/31 08:58:52.9	312.210	-0.250	0.530	0.140
2020/01/31 08:58:53.0	312.190	-0.260	0.520	0.120
2020/01/31 08:58:53.1	312.170	-0.280	0.500	0.110
2020/01/31 08:58:53.2	312.140	-0.290	0.470	0.100
2020/01/31 08:58:53.3	312.120	-0.310	0.450	0.090
2020/01/31 08:58:53.4	312.100	-0.320	0.430	0.080
2020/01/31 08:58:53.5	312.080	-0.330	0.400	0.070
2020/01/31 08:58:53.6	312.050	-0.340	0.370	0.060
2020/01/31 08:58:53.7	312.020	-0.360	0.340	0.050
2020/01/31 08:58:53.8	312.000	-0.370	0.310	0.040
2020/01/31 08:58:53.9	311.970	-0.370	0.280	0.030
2020/01/31 08:58:54.0	311.940	-0.380	0.250	0.030
2020/01/31 08:58:54.1	311.920	-0.390	0.220	0.020
2020/01/31 08:58:54.2	311.890	-0.400	0.190	0.010
2020/01/31 08:58:54.3	311.870	-0.400	0.160	0.010
2020/01/31 08:58:54.4	311.850	-0.410	0.130	0.000
2020/01/31 08:58:54.5	311.820	-0.410	0.090	-0.000
2020/01/31 08:58:54.6	311.800	-0.410	0.060	-0.010
2020/01/31 08:58:54.7	311.780	-0.410	0.030	-0.010
2020/01/31 08:58:54.8	311.760	-0.410	-0.000	-0.010
2020/01/31 08:58:54.9	311.740	-0.410	-0.030	-0.010
2020/01/31 08:58:55.0	311.720	-0.410	-0.060	-0.010
2020/01/31 08:58:55.1	311.700	-0.410	-0.090	-0.010
2020/01/31 08:58:55.2	311.680	-0.400	-0.120	-0.000
2020/01/31 08:58:55.3	311.670	-0.400	-0.140	0.000
2020/01/31 08:58:55.4	311.660	-0.390	-0.170	0.010
2020/01/31 08:58:55.5	311.640	-0.380	-0.190	0.020
2020/01/31 08:58:55.6	311.620	-0.370	-0.220	0.030
2020/01/31 08:58:55.7	311.600	-0.360	-0.240	0.050
2020/01/31 08:58:55.8	311.590	-0.350	-0.260	0.060
2020/01/31 08:58:55.9	311.570	-0.340	-0.270	0.080
2020/01/31 08:58:56.0	311.550	-0.330	-0.290	0.100
2020/01/31 08:58:56.1	311.530	-0.310	-0.310	0.120
2020/01/31 08:58:56.2	311.520	-0.300	-0.320	0.140
2020/01/31 08:58:56.3	311.500	-0.280	-0.330	0.170
2020/01/31 08:58:56.4	311.490	-0.260	-0.350	0.190
2020/01/31 08:58:56.5	311.470	-0.240	-0.360	0.220
2020/01/31 08:58:56.6	311.460	-0.220	-0.370	0.250
2020/01/31 08:58:56.7	311.450	-0.200	-0.380	0.280
2020/01/31 08:58:56.8	311.440	-0.170	-0.390	0.310
2020/01/31 08:58:56.9	311.420	-0.150	-0.410	0.340
2020/01/31 08:58:57.0	311.410	-0.120	-0.420	0.370
2020/01/31 08:58:57.1	311.410	-0.100	-0.430	0.410
2020/01/31 08:58:57.2	311.400	-0.070	-0.450	0.440
2020/01/31 08:58:57.3	311.400	-0.040	-0.460	0.470
2020/01/31 08:58:57.4	311.400	-0.010	-0.480	0.500
2020/01/31 08:58:57.5	311.400	0.020	-0.510	0.530
2020/01/31 08:58:57.6	311.400	0.060	-0.530	0.560
2020/01/31 08:58:57.7	311.400	0.090	-0.550	0.590
2020/01/31 08:58:57.8	311.400	0.120	-0.580	0.610
2020/01/31 08:58:57.9	311.410	0.160	-0.610	0.630
2020/01/31 08:58:58.0	311.420	0.190	-0.640	0.650
2020/01/31 08:58:58.1	311.430	0.230	-0.680	0.670
2020/01/31 08:58:58.2	311.450	0.260	-0.710	0.680
2020/01/31 08:58:58.3	311.460	0.300	-0.750	0.690
2020/01/31 08:58:58.4	311.480	0.330	-0.790	0.700
2020/01/31 08:58:58.5	311.500	0.370	-0.830	0.700
2020/01/31 08:58:58.6	311.520	0.400	-0.870	0.700
2020/01/31 08:58:58.7	311.540	0.440	-0.920	0.700
2020/01/31 08:58:58.8	311.570	0.470	-0.960	0.690
2020/01/31 08:58:58.9	311.590	0.500	-1.000	0.690
2020/01/31 08:58:59.0	311.620	0.530	-1.050	0.680
2020/01/31 08:58:59.1	311.650	0.560	-1.090	0.660
2020/01/31 08:58:59.2	311.690	0.590	-1.130	0.650
2020/01/31 08:58:59.3	311.720	0.610	-1.170	0.630
2020/01/31 08:58:59.4	311.750	0.630	-1.200	0.610
2020/01/31 08:58:59.5	311.780	0.650	-1.230	0.590
2020/01/31 08:58:59.6	311.820	0.670	-1.260	0.570
2020/01/31 08:58:59.7	311.860	0.690	-1.280	0.550
2020/01/31 08:58:59.8	311.900	0.700	-1.300	0.530
2020/01/31 08:58:59.9	311.940	0.700	-1.310	0.510
2020/01/31 08:59:00.0	311.980	0.710	-1.310	0.490
2020/01/31 08:59:00.1	312.020	0.710	-1.310	0.460
2020/01/31 08:59:00.2	312.060	0.710	-1.300	0.440
2020/01/31 08:59:00.3	312.090	0.700	-1.280	0.420
2020/01/31 08:59:00.4	312.140	0.690	-1.260	0.410
2020/01/31 08:59:00.5	312.170	0.670	-1.220	0.390
2020/01/31 08:59:00.6	312.210	0.650	-1.180	0.370
2020/01/31 08:59:00.7	312.240	0.630	-1.130	0.360
2020/01/31 08:59:00.8	312.270	0.600	-1.080	0.340
2020/01/31 08:59:00.9	312.300	0.570	-1.020	0.330
2020/01/31 08:59:01.0	312.320	0.540	-0.950	0.320
2020/01/31 08:59:01.1	312.350	0.500	-0.870	0.310
2020/01/31 08:59:01.2	312.370	0.460	-0.790	0.300
2020/01/31 08:59:01.3	312.390	0.410	-0.710	0.300
2020/01/31 08:59:01.4	312.410	0.360	-0.620	0.300
2020/01/31 08:59:01.5	312.420	0.320	-0.520	0.300
2020/01/31 08:59:01.6	312.430	0.260	-0.420	0.300
2020/01/31 08:59:01.7	312.440	0.210	-0.320	0.300
2020/01/31 08:59:01.8	312.450	0.150	-0.220	0.300
2020/01/31 08:59:01.9	312.450	0.100	-0.120	0.300
2020/01/31 08:59:02.0	312.450	0.040	-0.010	0.310
2020/01/31 08:59:02.1	312.450	-0.020	0.090	0.310
2020/01/31 08:59:02.2	312.440	-0.070	0.190	0.320
2020/01/31 08:59:02.3	312.440	-0.130	0.290	0.330
2020/01/31 08:59:02.4	312.410	-0.190	0.380	0.330
2020/01/31 08:59:02.5	312.400	-0.240	0.470	0.340
2020/01/31 08:59:02.6	312.390	-0.300	0.560	0.350
2020/01/31 08:59:02.7	312.380	-0.350	0.640	0.350
2020/01/31 08:59:02.8	312.360	-0.400	0.720	0.360
2020/01/31 08:59:02.9	312.340	-0.450	0.780	0.360
2020/01/31 08:59:03.0	312.320	-0.490	0.850	0.360
2020/01/31 08:59:03.1	312.300	-0.540	0.900	0.370
2020/01/31 08:59:03.2	312.280	-0.580	0.950	0.370
2020/01/31 08:59:03.3	312.260	-0.610	0.990	0.370
2020/01/31 08:59:03.4	312.220	-0.640	1.020	0.370
2020/01/31 08:59:03.5	312.200	-0.670	1.050	0.370
2020/01/31 08:59:03.6	312.170	-0.700	1.070	0.370
2020/01/31 08:59:03.7	312.150	-0.720	1.080	0.370
2020/01/31 08:59:03.8	312.120	-0.730	1.080	0.370
2020/01/31 08:59:03.9	312.090	-0.750	1.080	0.370
2020/01/31 08:59:04.0	312.060	-0.760	1.070	0.360
2020/01/31 08:59:04.1	312.030	-0.760	1.050	0.360
2020/01/31 08:59:04.2	312.000	-0.760	1.030	0.360
2020/01/31 08:59:04.3	311.980	-0.760	1.000	0.360
2020/01/31 08:59:04.4	311.940	-0.760	0.970	0.350
2020/01/31 08:59:04.5	311.910	-0.750	0.930	0.350
2020/01/31 08:59:04.6	311.880	-0.730	0.890	0.340
2020/01/31 08:59:04.7	311.860	-0.720	0.840	0.340
2020/01/31 08:59:04.8	311.830	-0.700	0.790	0.330
2020/01/31 08:59:04.9	311.800	-0.680	0.740	0.330
2020/01/31 08:59:05.0	311.780	-0.660	0.680	0.320
2020/01/31 08:59:05.1	311.750	-0.640	0.620	0.320
2020/01/31 08:59:05.2	311.730	-0.610	0.560	0.310
2020/01/31 08:59:05.3	311.700	-0.580	0.490	0.300
2020/01/31 08:59:05.4	311.690	-0.560	0.420	0.300
2020/01/31 08:59:05.5	311.660	-0.530	0.350	0.290
2020/01/31 08:59:05.6	311.650	-0.500	0.290	0.280
2020/01/31 08:59:05.7	311.630	-0.470	0.220	0.270
2020/01/31 08:59:05.8	311.610	-0.430	0.150	0.260
2020/01/31 08:59:05.9	311.600	-0.400	0.080	0.250
2020/01/31 08:59:06.0	311.590	-0.370	0.010	0.240
2020/01/31 08:59:06.1	311.570	-0.340	-0.060	0.230
2020/01/31 08:59:06.2	311.560	-0.310	-0.120	0.220
2020/01/31 08:59:06.3	311.550	-0.280	-0.190	0.210
2020/01/31 08:59:06.4	311.550	-0.250	-0.240	0.210
2020/01/31 08:59:06.5	311.540	-0.220	-0.300	0.200
2020/01/31 08:59:06.6	311.540	-0.190	-0.360	0.190
2020/01/31 08:59:06.7	311.540	-0.160	-0.420	0.190
2020/01/31 08:59:06.8	311.540	-0.130	-0.470	0.180
2020/01/31 08:59:06.9	311.540	-0.100	-0.520	0.180
2020/01/31 08:59:07.0	311.540	-0.070	-0.560	0.170
2020/01/31 08:59:07.1	311.540	-0.050	-0.610	0.170
2020/01/31 08:59:07.2	311.550	-0.020	-0.650	0.170
2020/01/31 08:59:07.3	311.560	0.010	-0.680	0.170
2020/01/31 08:59:07.4	311.570	0.030	-0.720	0.170
2020/01/31 08:59:07.5	311.580	0.060	-0.750	0.180
2020/01/31 08:59:07.6	311.590	0.090	-0.770	0.190
2020/01/31 08:59:07.7	311.600	0.110	-0.800	0.200
2020/01/31 08:59:07.8	311.620	0.140	-0.820	0.210
2020/01/31 08:59:07.9	311.630	0.170	-0.830	0.220
2020/01/31 08:59:08.0	311.650	0.190	-0.840	0.240
2020/01/31 08:59:08.1	311.670	0.220	-0.850	0.260
2020/01/31 08:59:08.2	311.690	0.240	-0.860	0.280
2020/01/31 08:59:08.3	311.700	0.270	-0.870	0.300
2020/01/31 08:59:08.4	311.730	0.300	-0.870	0.330
2020/01/31 08:59:08.5	311.750	0.320	-0.870	0.360
2020/01/31 08:59:08.6	311.770	0.350	-0.870	0.390
2020/01/31 08:59:08.7	311.790	0.380	-0.860	0.420
2020/01/31 08:59:08.8	311.810	0.400	-0.860	0.450
2020/01/31 08:59:08.9	311.820	0.430	-0.850	0.480
2020/01/31 08:59:09.0	311.840	0.460	-0.840	0.520
2020/01/31 08:59:09.1	311.860	0.480	-0.830	0.560
2020/01/31 08:59:09.2	311.870	0.510	-0.820	0.590
2020/01/31 08:59:09.3	311.890	0.530	-0.810	0.630
2020/01/31 08:59:09.4	311.920	0.550	-0.800	0.660
2020/01/31 08:59:09.5	311.930	0.580	-0.790	0.700
2020/01/31 08:59:09.6	311.950	0.600	-0.780	0.730
2020/01/31 08:59:09.7	311.960	0.620	-0.770	0.770
2020/01/31 08:59:09.8	311.970	0.640	-0.760	0.800
2020/01/31 08:59:09.9	311.990	0.660	-0.750	0.830
2020/01/31 08:59:10.0	312.000	0.680	-0.740	0.860
2020/01/31 08:59:10.1	312.010	0.690	-0.730	0.900
2020/01/31 08:59:10.2	312.020	0.710	-0.720	0.930
2020/01/31 08:59:10.3	312.030	0.720	-0.710	0.950
2020/01/31 08:59:10.4	312.030	0.730	-0.700	0.980
2020/01/31 08:59:10.5	312.040	0.740	-0.690	1.010
2020/01/31 08:59:10.6	312.040	0.740	-0.690	1.030
2020/01/31 08:59:10.7	312.050	0.750	-0.680	1.060
2020/01/31 08:59:10.8	312.060	0.750	-0.670	1.080
2020/01/31 08:59:10.9	312.060	0.750	-0.670	1.100
2020/01/31 08:59:11.0	312.060	0.740	-0.660	1.120
2020/01/31 08:59:11.1	312.070	0.740	-0.650	1.140
2020/01/31 08:59:11.2	312.070	0.730	-0.640	1.150
2020/01/31 08:59:11.3	312.070	0.710	-0.630	1.160
2020/01/31 08:59:11.4	312.060	0.700	-0.620	1.170
2020/01/31 08:59:11.5	312.060	0.680	-0.610	1.170
2020/01/31 08:59:11.6	312.060	0.660	-0.600	1.170
2020/01/31 08:59:11.7	312.070	0.640	-0.580	1.170
2020/01/31 08:59:11.8	312.060	0.610	-0.570	1.170
2020/01/31 08:59:11.9	312.060	0.580	-0.550	1.160
2020/01/31 08:59:12.0	312.060	0.550	-0.540	1.150
2020/01/31 08:59:12.1	312.060	0.520	-0.520	1.140
2020/01/31 08:59:12.2	312.060	0.480	-0.500	1.120
2020/01/31 08:59:12.3	312.060	0.450	-0.480	1.100
2020/01/31 08:59:12.4	312.050	0.410	-0.460	1.080
2020/01/31 08:59:12.5	312.040	0.370	-0.430	1.050
2020/01/31 08:59:12.6	312.040	0.320	-0.410	1.030
2020/01/31 08:59:12.7	312.040	0.280	-0.380	1.000
2020/01/31 08:59:12.8	312.040	0.230	-0.350	0.960
2020/01/31 08:59:12.9	312.030	0.190	-0.320	0.930
2020/01/31 08:59:13.0	312.030	0.140	-0.290	0.900
2020/01/31 08:59:13.1	312.030	0.090	-0.260	0.860
2020/01/31 08:59:13.2	312.020	0.040	-0.230	0.820
2020/01/31 08:59:13.3	312.020	-0.010	-0.200	0.780
2020/01/31 08:59:13.4	312.030	-0.060	-0.170	0.740
2020/01/31 08:59:13.5	312.020	-0.110	-0.130	0.700
2020/01/31 08:59:13.6	312.020	-0.170	-0.100	0.650
2020/01/31 08:59:13.7	312.020	-0.220	-0.070	0.610
2020/01/31 08:59:13.8	312.010	-0.270	-0.030	0.560
2020/01/31 08:59:13.9	312.010	-0.320	-0.000	0.510
2020/01/31 08:59:14.0	312.010	-0.370	0.030	0.460
2020/01/31 08:59:14.1	312.010	-0.420	0.060	0.410
2020/01/31 08:59:14.2	312.010	-0.460	0.090	0.350
2020/01/31 08:59:14.3	312.010	-0.510	0.120	0.290
2020/01/31 08:59:14.4	312.010	-0.550	0.150	0.240
2020/01/31 08:59:14.5	312.010	-0.600	0.180	0.180
2020/01/31 08:59:14.6	312.020	-0.640	0.200	0.120
2020/01/31 08:59:14.7	312.020	-0.670	0.220	0.060
2020/01/31 08:59:14.8	312.020	-0.710	0.240	-0.010
2020/01/31 08:59:14.9	312.030	-0.740	0.260	-0.070
2020/01/31 08:59:15.0	312.030	-0.770	0.270	-0.130
2020/01/31 08:59:15.1	312.040	-0.800	0.280	-0.190
2020/01/31 08:59:15.2	312.050	-0.820	0.300	-0.250
2020/01/31 08:59:15.3	312.050	-0.840	0.300	-0.310
2020/01/31 08:59:15.4	312.060	-0.860	0.310	-0.370
2020/01/31 08:59:15.5	312.070	-0.870	0.310	-0.420
2020/01/31 08:59:15.6	312.080	-0.880	0.310	-0.470
2020/01/31 08:59:15.7	312.090	-0.880	0.310	-0.520
2020/01/31 08:59:15.8	312.090	-0.890	0.310	-0.570
2020/01/31 08:59:15.9	312.100	-0.880	0.310	-0.610
2020/01/31 08:59:16.0	312.100	-0.880	0.300	-0.650
2020/01/31 08:59:16.1	312.110	-0.870	0.300	-0.680
2020/01/31 08:59:16.2	312.110	-0.850	0.290	-0.710
2020/01/31 08:59:16.3	312.120	-0.840	0.280	-0.730
2020/01/31 08:59:16.4	312.120	-0.820	0.280	-0.750
2020/01/31 08:59:16.5	312.120	-0.800	0.270	-0.760
2020/01/31 08:59:16.6	312.120	-0.770	0.260	-0.770
2020/01/31 08:59:16.7	312.120	-0.740	0.250	-0.780
2020/01/31 08:59:16.8	312.130	-0.710	0.240	-0.780
2020/01/31 08:59:16.9	312.130	-0.680	0.230	-0.770
2020/01/31 08:59:17.0	312.130	-0.640	0.220	-0.760
2020/01/31 08:59:17.1	312.130	-0.610	0.210	-0.750
2020/01/31 08:59:17.2	312.130	-0.570	0.200	-0.730
2020/01/31 08:59:17.3	312.130	-0.530	0.190	-0.710
2020/01/31 08:59:17.4	312.130	-0.480	0.180	-0.680
2020/01/31 08:59:17.5	312.130	-0.440	0.170	-0.640
2020/01/31 08:59:17.6	312.120	-0.400	0.160	-0.610
2020/01/31 08:59:17.7	312.120	-0.350	0.150	-0.570
2020/01/31 08:59:17.8	312.120	-0.310	0.140	-0.530
2020/01/31 08:59:17.9	312.120	-0.260	0.140	-0.480
2020/01/31 08:59:18.0	312.110	-0.210	0.130	-0.430
2020/01/31 08:59:18.1	312.110	-0.170	0.130	-0.370
2020/01/31 08:59:18.2	312.110	-0.120	0.120	-0.310
2020/01/31 08:59:18.3	312.100	-0.080	0.120	-0.250
2020/01/31 08:59:18.4	312.100	-0.030	0.110	-0.190
2020/01/31 08:59:18.5	312.090	0.010	0.110	-0.120
2020/01/31 08:59:18.6	312.080	0.050	0.100	-0.050
2020/01/31 08:59:18.7	312.070	0.090	0.100	0.030
2020/01/31 08:59:18.8	312.060	0.130	0.090	0.100
2020/01/31 08:59:18.9	312.050	0.170	0.090	0.170
2020/01/31 08:59:19.0	312.040	0.200	0.080	0.250
2020/01/31 08:59:19.1	312.030	0.240	0.070	0.320
2020/01/31 08:59:19.2	312.010	0.270	0.060	0.400
2020/01/31 08:59:19.3	312.000	0.300	0.050	0.470
2020/01/31 08:59:19.4	311.980	0.330	0.040	0.540
2020/01/31 08:59:19.5	311.970	0.360	0.030	0.610
2020/01/31 08:59:19.6	311.960	0.390	0.010	0.680
2020/01/31 08:59:19.7	311.950	0.410	-0.010	0.750
2020/01/31 08:59:19.8	311.940	0.430	-0.030	0.810
2020/01/31 08:59:19.9	311.930	0.450	-0.050	0.870
2020/01/31 08:59:20.0	311.920	0.470	-0.080	0.920
2020/01/31 08:59:20.1	311.910	0.490	-0.110	0.970
2020/01/31 08:59:20.2	311.900	0.510	-0.140	1.020
2020/01/31 08:59:20.3	311.890	0.520	-0.170	1.060
2020/01/31 08:59:20.4	311.890	0.540	-0.210	1.090
2020/01/31 08:59:20.5	311.880	0.550	-0.250	1.130
2020/01/31 08:59:20.6	311.880	0.560	-0.300	1.150
2020/01/31 08:59:20.7	311.880	0.570	-0.340	1.170
2020/01/31 08:59:20.8	311.880	0.580	-0.390	1.190
2020/01/31 08:59:20.9	311.870	0.590	-0.440	1.200
2020/01/31 08:59:21.0	311.870	0.600	-0.490	1.210
2020/01/31 08:59:21.1	311.870	0.600	-0.540	1.210
2020/01/31 08:59:21.2	311.880	0.610	-0.590	1.210
2020/01/31 08:59:21.3	311.880	0.610	-0.640	1.210
2020/01/31 08:59:21.4	311.890	0.610	-0.690	1.200
2020/01/31 08:59:21.5	311.890	0.610	-0.730	1.190
2020/01/31 08:59:21.6	311.890	0.610	-0.780	1.180
2020/01/31 08:59:21.7	311.890	0.610	-0.830	1.160
2020/01/31 08:59:21.8	311.890	0.610	-0.870	1.140
2020/01/31 08:59:21.9	311.900	0.600	-0.910	1.130
2020/01/31 08:59:22.0	311.900	0.590	-0.950	1.100
2020/01/31 08:59:22.1	311.900	0.590	-0.990	1.080
2020/01/31 08:59:22.2	311.910	0.580	-1.020	1.050
2020/01/31 08:59:22.3	311.910	0.560	-1.050	1.020
2020/01/31 08:59:22.4	311.920	0.550	-1.090	1.000
2020/01/31 08:59:22.5	311.930	0.530	-1.110	0.960
2020/01/31 08:59:22.6	311.930	0.510	-1.140	0.930
2020/01/31 08:59:22.7	311.940	0.490	-1.160	0.890
2020/01/31 08:59:22.8	311.940	0.470	-1.170	0.850
2020/01/31 08:59:22.9	311.950	0.440	-1.180	0.810
2020/01/31 08:59:23.0	311.950	0.420	-1.190	0.770
2020/01/31 08:59:23.1	311.950	0.390	-1.200	0.730
2020/01/31 08:59:23.2	311.960	0.360	-1.200	0.690
2020/01/31 08:59:23.3	311.960	0.320	-1.200	0.640
2020/01/31 08:59:23.4	311.970	0.290	-1.200	0.590
2020/01/31 08:59:23.5	311.970	0.250	-1.190	0.550
2020/01/31 08:59:23.6	311.980	0.220	-1.170	0.500
2020/01/31 08:59:23.7	311.980	0.180	-1.160	0.460
2020/01/31 08:59:23.8	311.980	0.140	-1.140	0.410
2020/01/31 08:59:23.9	311.990	0.090	-1.120	0.360
2020/01/31 08:59:24.0	311.990	0.050	-1.090	0.310
2020/01/31 08:59:24.1	311.990	0.010	-1.060	0.270
2020/01/31 08:59:24.2	312.000	-0.040	-1.030	0.220
2020/01/31 08:59:24.3	312.000	-0.080	-0.990	0.170
2020/01/31 08:59:24.4	312.010	-0.120	-0.960	0.130
2020/01/31 08:59:24.5	312.020	-0.160	-0.920	0.080
2020/01/31 08:59:24.6	312.030	-0.210	-0.870	0.030
2020/01/31 08:59:24.7	312.040	-0.250	-0.830	-0.010
2020/01/31 08:59:24.8	312.050	-0.290	-0.780	-0.060
2020/01/31 08:59:24.9	312.060	-0.330	-0.730	-0.100
2020/01/31 08:59:25.0	312.070	-0.360	-0.680	-0.140
2020/01/31 08:59:25.1	312.080	-0.400	-0.630	-0.180
2020/01/31 08:59:25.2	312.090	-0.430	-0.580	-0.210
2020/01/31 08:59:25.3	312.110	-0.460	-0.520	-0.250
2020/01/31 08:59:25.4	312.110	-0.490	-0.470	-0.280
2020/01/31 08:59:25.5	312.130	-0.520	-0.410	-0.310
2020/01/31 08:59:25.6	312.140	-0.540	-0.350	-0.340
2020/01/31 08:59:25.7	312.150	-0.560	-0.290	-0.360
2020/01/31 08:59:25.8	312.160	-0.580	-0.230	-0.380
2020/01/31 08:59:25.9	312.170	-0.590	-0.170	-0.390
2020/01/31 08:59:26.0	312.180	-0.600	-0.120	-0.410
2020/01/31 08:59:26.1	312.190	-0.610	-0.060	-0.410
2020/01/31 08:59:26.2	312.200	-0.620	-0.010	-0.420
2020/01/31 08:59:26.3	312.200	-0.620	0.050	-0.420
2020/01/31 08:59:26.4	312.190	-0.620	0.100	-0.420
2020/01/31 08:59:26.5	312.200	-0.610	0.140	-0.410
2020/01/31 08:59:26.6	312.200	-0.600	0.190	-0.410
2020/01/31 08:59:26.7	312.210	-0.590	0.230	-0.390
2020/01/31 08:59:26.8	312.210	-0.570	0.270	-0.380
2020/01/31 08:59:26.9	312.210	-0.550	0.300	-0.360
2020/01/31 08:59:27.0	312.220	-0.530	0.330	-0.350
2020/01/31 08:59:27.1	312.220	-0.510	0.360	-0.320
2020/01/31 08:59:27.2	312.220	-0.480	0.380	-0.300
2020/01/31 08:59:27.3	312.230	-0.450	0.390	-0.280
2020/01/31 08:59:27.4	312.230	-0.420	0.410	-0.260
2020/01/31 08:59:27.5	312.230	-0.380	0.410	-0.230
2020/01/31 08:59:27.6	312.240	-0.350	0.420	-0.210
2020/01/31 08:59:27.7	312.240	-0.310	0.420	-0.190
2020/01/31 08:59:27.8	312.250	-0.270	0.420	-0.160
2020/01/31 08:59:27.9	312.260	-0.230	0.410	-0.140
2020/01/31 08:59:28.0	312.260	-0.190	0.410	-0.110
2020/01/31 08:59:28.1	312.270	-0.150	0.400	-0.080
2020/01/31 08:59:28.2	312.280	-0.110	0.390	-0.060
2020/01/31 08:59:28.3	312.290	-0.070	0.380	-0.030
2020/01/31 08:59:28.4	312.300	-0.030	0.370	0.010
2020/01/31 08:59:28.5	312.310	0.010	0.360	0.040
2020/01/31 08:59:28.6	312.320	0.050	0.350	0.070
2020/01/31 08:59:28.7	312.320	0.080	0.340	0.100
2020/01/31 08:59:28.8	312.330	0.120	0.340	0.140
2020/01/31 08:59:28.9	312.330	0.150	0.330	0.180
2020/01/31 08:59:29.0	312.330	0.180	0.330	0.210
2020/01/31 08:59:29.1	312.330	0.200	0.330	0.250
2020/01/31 08:59:29.2	312.320	0.230	0.330	0.290
2020/01/31 08:59:29.3	312.310	0.250	0.340	0.340
2020/01/31 08:59:29.4	312.290	0.260	0.350	0.380
2020/01/31 08:59:29.5	312.280	0.280	0.360	0.430
2020/01/31 08:59:29.6	312.260	0.290	0.380	0.470
2020/01/31 08:59:29.7	312.240	0.300	0.390	0.520
2020/01/31 08:59:29.8	312.220	0.300	0.410	0.560
2020/01/31 08:59:29.9	312.200	0.300	0.430	0.610
2020/01/31 08:59:30.0	312.170	0.300	0.450	0.650
2020/01/31 08:59:30.1	312.150	0.300	0.480	0.700
2020/01/31 08:59:30.2	312.120	0.290	0.500	0.740
2020/01/31 08:59:30.3	312.090	0.280	0.520	0.780
2020/01/31 08:59:30.4	312.030	0.270	0.550	0.820
2020/01/31 08:59:30.5	312.000	0.260	0.570	0.850
2020/01/31 08:59:30.6	311.970	0.240	0.590	0.890
2020/01/31 08:59:30.7	311.930	0.230	0.600	0.920
2020/01/31 08:59:30.8	311.900	0.210	0.610	0.950
2020/01/31 08:59:30.9	311.870	0.200	0.620	0.970
2020/01/31 08:59:31.0	311.830	0.180	0.620	0.990
2020/01/31 08:59:31.1	311.800	0.160	0.620	1.000
2020/01/31 08:59:31.2	311.770	0.150	0.610	1.010
2020/01/31 08:59:31.3	311.740	0.130	0.600	1.020
2020/01/31 08:59:31.4	311.720	0.120	0.580	1.020
2020/01/31 08:59:31.5	311.700	0.110	0.550	1.010
2020/01/31 08:59:31.6	311.670	0.100	0.520	1.000
2020/01/31 08:59:31.7	311.650	0.090	0.480	0.990
2020/01/31 08:59:31.8	311.630	0.080	0.440	0.970
2020/01/31 08:59:31.9	311.610	0.070	0.390	0.940
2020/01/31 08:59:32.0	311.590	0.070	0.340	0.910
2020/01/31 08:59:32.1	311.580	0.070	0.280	0.880
2020/01/31 08:59:32.2	311.570	0.070	0.210	0.850
2020/01/31 08:59:32.3	311.550	0.070	0.140	0.810
2020/01/31 08:59:32.4	311.550	0.080	0.070	0.770
2020/01/31 08:59:32.5	311.550	0.090	-0.010	0.730
2020/01/31 08:59:32.6	311.540	0.100	-0.090	0.690
2020/01/31 08:59:32.7	311.540	0.110	-0.170	0.640
2020/01/31 08:59:32.8	311.540	0.120	-0.260	0.590
2020/01/31 08:59:32.9	311.550	0.130	-0.350	0.540
2020/01/31 08:59:33.0	311.550	0.150	-0.430	0.490
2020/01/31 08:59:33.1	311.560	0.160	-0.520	0.440
2020/01/31 08:59:33.2	311.570	0.180	-0.610	0.390
2020/01/31 08:59:33.3	311.580	0.190	-0.690	0.340
2020/01/31 08:59:33.4	311.590	0.210	-0.780	0.290
2020/01/31 08:59:33.5	311.610	0.220	-0.860	0.230
2020/01/31 08:59:33.6	311.620	0.240	-0.940	0.180
2020/01/31 08:59:33.7	311.640	0.250	-1.020	0.130
2020/01/31 08:59:33.8	311.650	0.270	-1.090	0.080
2020/01/31 08:59:33.9	311.670	0.280	-1.150	0.030
2020/01/31 08:59:34.0	311.690	0.290	-1.220	-0.020
2020/01/31 08:59:34.1	311.700	0.290	-1.270	-0.070
2020/01/31 08:59:34.2	311.720	0.300	-1.320	-0.110
2020/01/31 08:59:34.3	311.730	0.300	-1.370	-0.160
2020/01/31 08:59:34.4	311.770	0.300	-1.410	-0.200
2020/01/31 08:59:34.5	311.780	0.300	-1.440	-0.240
2020/01/31 08:59:34.6	311.800	0.300	-1.470	-0.280
2020/01/31 08:59:34.7	311.810	0.290	-1.490	-0.320
2020/01/31 08:59:34.8	311.830	0.280	-1.510	-0.350
2020/01/31 08:59:34.9	311.840	0.270	-1.520	-0.380
2020/01/31 08:59:35.0	311.860	0.260	-1.530	-0.420
2020/01/31 08:59:35.1	311.880	0.240	-1.530	-0.440
2020/01/31 08:59:35.2	311.890	0.230	-1.520	-0.470
2020/01/31 08:59:35.3	311.910	0.210	-1.510	-0.500
2020/01/31 08:59:35.4	311.960	0.180	-1.500	-0.510
2020/01/31 08:59:35.5	311.980	0.160	-1.480	-0.530
2020/01/31 08:59:35.6	311.990	0.130	-1.450	-0.550
2020/01/31 08:59:35.7	312.010	0.110	-1.430	-0.570
2020/01/31 08:59:35.8	312.040	0.080	-1.400	-0.580
2020/01/31 08:59:35.9	312.060	0.050	-1.370	-0.590
2020/01/31 08:59:36.0	312.080	0.020	-1.330	-0.590
2020/01/31 08:59:36.1	312.110	-0.010	-1.290	-0.600
2020/01/31 08:59:36.2	312.130	-0.040	-1.250	-0.600
2020/01/31 08:59:36.3	312.150	-0.070	-1.200	-0.600
2020/01/31 08:59:36.4	312.200	-0.100	-1.160	-0.590
2020/01/31 08:59:36.5	312.220	-0.130	-1.110	-0.580
2020/01/31 08:59:36.6	312.250	-0.160	-1.060	-0.570
2020/01/31 08:59:36.7	312.270	-0.190	-1.010	-0.560
2020/01/31 08:59:36.8	312.300	-0.210	-0.950	-0.540
2020/01/31 08:59:36.9	312.320	-0.240	-0.900	-0.520
2020/01/31 08:59:37.0	312.340	-0.270	-0.840	-0.500
2020/01/31 08:59:37.1	312.360	-0.290	-0.780	-0.470
2020/01/31 08:59:37.2	312.380	-0.320	-0.720	-0.440
2020/01/31 08:59:37.3	312.390	-0.340	-0.660	-0.410
2020/01/31 08:59:37.4	312.400	-0.370	-0.600	-0.370
2020/01/31 08:59:37.5	312.410	-0.390	-0.540	-0.330
2020/01/31 08:59:37.6	312.410	-0.410	-0.470	-0.290
2020/01/31 08:59:37.7	312.420	-0.430	-0.410	-0.250
2020/01/31 08:59:37.8	312.420	-0.450	-0.350	-0.200
2020/01/31 08:59:37.9	312.420	-0.460	-0.280	-0.150
2020/01/31 08:59:38.0	312.410	-0.480	-0.220	-0.100
2020/01/31 08:59:38.1	312.410	-0.490	-0.160	-0.050
2020/01/31 08:59:38.2	312.400	-0.500	-0.090	-0.000
2020/01/31 08:59:38.3	312.390	-0.520	-0.030	0.050
2020/01/31 08:59:38.4	312.360	-0.520	0.030	0.100
2020/01/31 08:59:38.5	312.350	-0.530	0.080	0.160
2020/01/31 08:59:38.6	312.340	-0.540	0.140	0.210
2020/01/31 08:59:38.7	312.320	-0.550	0.190	0.260
2020/01/31 08:59:38.8	312.310	-0.550	0.250	0.310
2020/01/31 08:59:38.9	312.290	-0.550	0.290	0.360
2020/01/31 08:59:39.0	312.270	-0.550	0.340	0.410
2020/01/31 08:59:39.1	312.260	-0.550	0.380	0.460
2020/01/31 08:59:39.2	312.240	-0.550	0.420	0.510
2020/01/31 08:59:39.3	312.220	-0.540	0.460	0.550
2020/01/31 08:59:39.4	312.180	-0.540	0.490	0.590
2020/01/31 08:59:39.5	312.160	-0.530	0.520	0.630
2020/01/31 08:59:39.6	312.140	-0.520	0.540	0.660
2020/01/31 08:59:39.7	312.130	-0.510	0.560	0.700
2020/01/31 08:59:39.8	312.110	-0.500	0.570	0.730
2020/01/31 08:59:39.9	312.090	-0.480	0.590	0.750
2020/01/31 08:59:40.0	312.080	-0.460	0.590	0.780
2020/01/31 08:59:40.1	312.070	-0.450	0.600	0.800
2020/01/31 08:59:40.2	312.050	-0.420	0.590	0.820
2020/01/31 08:59:40.3	312.040	-0.400	0.590	0.830
2020/01/31 08:59:40.4	312.020	-0.380	0.580	0.840
2020/01/31 08:59:40.5	312.010	-0.350	0.570	0.850
2020/01/31 08:59:40.6	312.010	-0.320	0.550	0.860
2020/01/31 08:59:40.7	312.000	-0.290	0.540	0.870
2020/01/31 08:59:40.8	311.990	-0.260	0.520	0.870
2020/01/31 08:59:40.9	311.980	-0.230	0.490	0.880
2020/01/31 08:59:41.0	311.980	-0.200	0.470	0.880
2020/01/31 08:59:41.1	311.970	-0.160	0.450	0.880
2020/01/31 08:59:41.2	311.970	-0.120	0.420	0.880
2020/01/31 08:59:41.3	311.960	-0.090	0.390	0.880
2020/01/31 08:59:41.4	311.960	-0.050	0.370	0.880
2020/01/31 08:59:41.5	311.960	-0.010	0.340	0.870
2020/01/31 08:59:41.6	311.950	0.030	0.310	0.870
2020/01/31 08:59:41.7	311.950	0.070	0.280	0.870
2020/01/31 08:59:41.8	311.950	0.100	0.250	0.860
2020/01/31 08:59:41.9	311.950	0.140	0.220	0.850
2020/01/31 08:59:42.0	311.950	0.180	0.200	0.850
2020/01/31 08:59:42.1	311.950	0.220	0.170	0.840
2020/01/31 08:59:42.2	311.960	0.260	0.140	0.830
2020/01/31 08:59:42.3	311.960	0.290	0.110	0.820
2020/01/31 08:59:42.4	311.940	0.330	0.080	0.810
2020/01/31 08:59:42.5	311.940	0.360	0.060	0.800
2020/01/31 08:59:42.6	311.950	0.390	0.030	0.790
2020/01/31 08:59:42.7	311.950	0.430	0.010	0.780
2020/01/31 08:59:42.8	311.950	0.450	-0.020	0.770
2020/01/31 08:59:42.9	311.950	0.480	-0.050	0.760
2020/01/31 08:59:43.0	311.950	0.510	-0.070	0.740
2020/01/31 08:59:43.1	311.950	0.530	-0.090	0.720
2020/01/31 08:59:43.2	311.950	0.550	-0.120	0.700
2020/01/31 08:59:43.3	311.950	0.570	-0.140	0.680
2020/01/31 08:59:43.4	311.930	0.590	-0.160	0.660
2020/01/31 08:59:43.5	311.930	0.610	-0.190	0.640
2020/01/31 08:59:43.6	311.930	0.620	-0.210	0.610
2020/01/31 08:59:43.7	311.940	0.630	-0.230	0.580
2020/01/31 08:59:43.8	311.940	0.640	-0.250	0.550
2020/01/31 08:59:43.9	311.950	0.640	-0.270	0.510
2020/01/31 08:59:44.0	311.960	0.650	-0.290	0.480
2020/01/31 08:59:44.1	311.970	0.650	-0.300	0.440
2020/01/31 08:59:44.2	311.980	0.650	-0.320	0.400
2020/01/31 08:59:44.3	311.990	0.640	-0.330	0.360
2020/01/31 08:59:44.4	312.010	0.640	-0.350	0.320
2020/01/31 08:59:44.5	312.030	0.630	-0.360	0.280
2020/01/31 08:59:44.6	312.040	0.620	-0.370	0.230
2020/01/31 08:59:44.7	312.060	0.610	-0.370	0.190
2020/01/31 08:59:44.8	312.070	0.590	-0.370	0.140
2020/01/31 08:59:44.9	312.090	0.580	-0.380	0.100
2020/01/31 08:59:45.0	312.110	0.560	-0.370	0.060
2020/01/31 08:59:45.1	312.120	0.540	-0.370	0.020
2020/01/31 08:59:45.2	312.140	0.510	-0.370	-0.020
2020/01/31 08:59:45.3	312.160	0.490	-0.360	-0.060
2020/01/31 08:59:45.4	312.170	0.460	-0.350	-0.100
2020/01/31 08:59:45.5	312.180	0.440	-0.340	-0.140
2020/01/31 08:59:45.6	312.200	0.410	-0.320	-0.170
2020/01/31 08:59:45.7	312.210	0.380	-0.310	-0.210
2020/01/31 08:59:45.8	312.230	0.350	-0.290	-0.240
2020/01/31 08:59:45.9	312.240	0.320	-0.270	-0.270
2020/01/31 08:59:46.0	312.250	0.280	-0.260	-0.290
2020/01/31 08:59:46.1	312.260	0.250	-0.240	-0.320
2020/01/31 08:59:46.2	312.270	0.220	-0.220	-0.340
2020/01/31 08:59:46.3	312.280	0.180	-0.200	-0.350
2020/01/31 08:59:46.4	312.280	0.150	-0.180	-0.360
2020/01/31 08:59:46.5	312.280	0.110	-0.160	-0.370
2020/01/31 08:59:46.6	312.290	0.080	-0.140	-0.380
2020/01/31 08:59:46.7	312.290	0.050	-0.130	-0.380
2020/01/31 08:59:46.8	312.290	0.020	-0.110	-0.370
2020/01/31 08:59:46.9	312.280	-0.010	-0.100	-0.370
2020/01/31 08:59:47.0	312.280	-0.040	-0.080	-0.360
2020/01/31 08:59:47.1	312.270	-0.070	-0.070	-0.350
2020/01/31 08:59:47.2	312.260	-0.100	-0.060	-0.330
2020/01/31 08:59:47.3	312.250	-0.130	-0.060	-0.310
2020/01/31 08:59:47.4	312.260	-0.150	-0.060	-0.290
2020/01/31 08:59:47.5	312.240	-0.170	-0.050	-0.260
2020/01/31 08:59:47.6	312.230	-0.190	-0.060	-0.240
2020/01/31 08:59:47.7	312.210	-0.210	-0.060	-0.210
2020/01/31 08:59:47.8	312.200	-0.230	-0.070	-0.180
2020/01/31 08:59:47.9	312.180	-0.250	-0.080	-0.150
2020/01/31 08:59:48.0	312.160	-0.260	-0.090	-0.120
2020/01/31 08:59:48.1	312.150	-0.280	-0.110	-0.090
2020/01/31 08:59:48.2	312.130	-0.290	-0.130	-0.060
2020/01/31 08:59:48.3	312.110	-0.300	-0.150	-0.030
2020/01/31 08:59:48.4	312.100	-0.310	-0.170	-0.000
2020/01/31 08:59:48.5	312.090	-0.310	-0.200	0.030
2020/01/31 08:59:48.6	312.070	-0.320	-0.230	0.050
2020/01/31 08:59:48.7	312.050	-0.320	-0.260	0.080
2020/01/31 08:59:48.8	312.030	-0.320	-0.300	0.100
2020/01/31 08:59:48.9	312.020	-0.320	-0.340	0.120
2020/01/31 08:59:49.0	312.000	-0.320	-0.380	0.150
2020/01/31 08:59:49.1	311.990	-0.320	-0.420	0.170
2020/01/31 08:59:49.2	311.970	-0.320	-0.460	0.190
2020/01/31 08:59:49.3	311.960	-0.310	-0.500	0.200
2020/01/31 08:59:49.4	311.940	-0.300	-0.540	0.220
2020/01/31 08:59:49.5	311.930	-0.300	-0.590	0.240
2020/01/31 08:59:49.6	311.920	-0.290	-0.630	0.250
2020/01/31 08:59:49.7	311.910	-0.280	-0.670	0.270
2020/01/31 08:59:49.8	311.910	-0.270	-0.720	0.280
2020/01/31 08:59:49.9	311.900	-0.260	-0.760	0.290
2020/01/31 08:59:50.0	311.900	-0.250	-0.800	0.300
2020/01/31 08:59:50.1	311.890	-0.240	-0.840	0.310
2020/01/31 08:59:50.2	311.890	-0.230	-0.880	0.320
2020/01/31 08:59:50.3	311.890	-0.220	-0.910	0.320
2020/01/31 08:59:50.4	311.890	-0.210	-0.950	0.330
2020/01/31 08:59:50.5	311.890	-0.200	-0.980	0.330
2020/01/31 08:59:50.6	311.890	-0.190	-1.010	0.330
2020/01/31 08:59:50.7	311.900	-0.180	-1.030	0.320
2020/01/31 08:59:50.8	311.900	-0.170	-1.060	0.310
2020/01/31 08:59:50.9	311.910	-0.160	-1.080	0.300
2020/01/31 08:59:51.0	311.930	-0.160	-1.100	0.290
2020/01/31 08:59:51.1	311.940	-0.150	-1.110	0.280
2020/01/31 08:59:51.2	311.960	-0.140	-1.120	0.260
2020/01/31 08:59:51.3	311.980	-0.140	-1.130	0.230
2020/01/31 08:59:51.4	312.010	-0.140	-1.130	0.210
2020/01/31 08:59:51.5	312.030	-0.140	-1.130	0.180
2020/01/31 08:59:51.6	312.060	-0.130	-1.130	0.150
2020/01/31 08:59:51.7	312.090	-0.130	-1.120	0.120
2020/01/31 08:59:51.8	312.130	-0.130	-1.110	0.090
2020/01/31 08:59:51.9	312.160	-0.130	-1.100	0.060
2020/01/31 08:59:52.0	312.200	-0.140	-1.080	0.020
2020/01/31 08:59:52.1	312.240	-0.140	-1.060	-0.010
2020/01/31 08:59:52.2	312.280	-0.140	-1.030	-0.040
2020/01/31 08:59:52.3	312.320	-0.150	-1.000	-0.070
2020/01/31 08:59:52.4	312.360	-0.150	-0.970	-0.100
2020/01/31 08:59:52.5	312.400	-0.160	-0.930	-0.130
2020/01/31 08:59:52.6	312.440	-0.160	-0.890	-0.150
2020/01/31 08:59:52.7	312.480	-0.170	-0.840	-0.180
2020/01/31 08:59:52.8	312.520	-0.170	-0.790	-0.200
2020/01/31 08:59:52.9	312.560	-0.180	-0.730	-0.210
2020/01/31 08:59:53.0	312.600	-0.190	-0.670	-0.230
2020/01/31 08:59:53.1	312.630	-0.190	-0.610	-0.240
2020/01/31 08:59:53.2	312.670	-0.200	-0.540	-0.250
2020/01/31 08:59:53.3	312.700	-0.210	-0.470	-0.250
2020/01/31 08:59:53.4	312.730	-0.210	-0.400	-0.250
2020/01/31 08:59:53.5	312.760	-0.220	-0.330	-0.250
2020/01/31 08:59:53.6	312.790	-0.230	-0.260	-0.250
2020/01/31 08:59:53.7	312.810	-0.230	-0.180	-0.240
2020/01/31 08:59:53.8	312.830	-0.230	-0.110	-0.230
2020/01/31 08:59:53.9	312.850	-0.240	-0.030	-0.210
2020/01/31 08:59:54.0	312.870	-0.240	0.040	-0.190
2020/01/31 08:59:54.1	312.880	-0.240	0.110	-0.170
2020/01/31 08:59:54.2	312.890	-0.240	0.190	-0.150
2020/01/31 08:59:54.3	312.900	-0.230	0.260	-0.120
2020/01/31 08:59:54.4	312.900	-0.230	0.320	-0.090
2020/01/31 08:59:54.5	312.900	-0.220	0.390	-0.060
2020/01/31 08:59:54.6	312.900	-0.220	0.450	-0.020
2020/01/31 08:59:54.7	312.900	-0.210	0.500	0.020
2020/01/31 08:59:54.8	312.900	-0.190	0.560	0.060
2020/01/31 08:59:54.9	312.890	-0.180	0.610	0.100
2020/01/31 08:59:55.0	312.880	-0.160	0.650	0.140
2020/01/31 08:59:55.1	312.870	-0.150	0.690	0.190
2020/01/31 08:59:55.2	312.860	-0.130	0.720	0.230
2020/01/31 08:59:55.3	312.850	-0.100	0.750	0.280
2020/01/31 08:59:55.4	312.840	-0.080	0.770	0.320
2020/01/31 08:59:55.5	312.820	-0.050	0.790	0.360
2020/01/31 08:59:55.6	312.800	-0.030	0.800	0.410
2020/01/31 08:59:55.7	312.790	0.000	0.800	0.450
2020/01/31 08:59:55.8	312.770	0.030	0.800	0.500
2020/01/31 08:59:55.9	312.750	0.070	0.800	0.540
2020/01/31 08:59:56.0	312.730	0.100	0.790	0.590
2020/01/31 08:59:56.1	312.720	0.130	0.770	0.630
2020/01/31 08:59:56.2	312.700	0.170	0.750	0.670
2020/01/31 08:59:56.3	312.680	0.200	0.730	0.710
2020/01/31 08:59:56.4	312.660	0.240	0.700	0.750
2020/01/31 08:59:56.5	312.640	0.270	0.670	0.780
2020/01/31 08:59:56.6	312.620	0.310	0.640	0.820
2020/01/31 08:59:56.7	312.600	0.340	0.610	0.850
2020/01/31 08:59:56.8	312.580	0.380	0.570	0.880
2020/01/31 08:59:56.9	312.560	0.410	0.530	0.910
2020/01/31 08:59:57.0	312.540	0.440	0.500	0.930
2020/01/31 08:59:57.1	312.520	0.470	0.460	0.960
2020/01/31 08:59:57.2	312.500	0.500	0.420	0.980
2020/01/31 08:59:57.3	312.480	0.530	0.380	1.000
2020/01/31 08:59:57.4	312.440	0.550	0.350	1.010
2020/01/31 08:59:57.5	312.420	0.570	0.310	1.020
2020/01/31 08:59:57.6	312.400	0.590	0.270	1.040
2020/01/31 08:59:57.7	312.380	0.610	0.240	1.040
2020/01/31 08:59:57.8	312.360	0.620	0.210	1.050
2020/01/31 08:59:57.9	312.340	0.630	0.180	1.060
2020/01/31 08:59:58.0	312.330	0.640	0.150	1.060
2020/01/31 08:59:58.1	312.310	0.640	0.120	1.060
2020/01/31 08:59:58.2	312.290	0.650	0.100	1.050
2020/01/31 08:59:58.3	312.280	0.640	0.070	1.040
2020/01/31 08:59:58.4	312.260	0.640	0.050	1.040
2020/01/31 08:59:58.5	312.240	0.630	0.030	1.020
2020/01/31 08:59:58.6	312.230	0.620	0.000	1.010
2020/01/31 08:59:58.7	312.220	0.610	-0.020	0.990
2020/01/31 08:59:58.8	312.210	0.590	-0.040	0.970
2020/01/31 08:59:58.9	312.200	0.570	-0.070	0.940
2020/01/31 08:59:59.0	312.190	0.540	-0.090	0.910
2020/01/31 08:59:59.1	312.180	0.520	-0.110	0.880
2020/01/31 08:59:59.2	312.170	0.490	-0.140	0.840
2020/01/31 08:59:59.3	312.170	0.460	-0.160	0.800
2020/01/31 08:59:59.4	312.180	0.430	-0.190	0.740
2020/01/31 08:59:59.5	312.180	0.400	-0.220	0.690
2020/01/31 08:59:59.6	312.180	0.360	-0.250	0.640
2020/01/31 08:59:59.7	312.180	0.330	-0.280	0.580
2020/01/31 08:59:59.8	312.180	0.290	-0.320	0.520
2020/01/31 08:59:59.9	312.180	0.250	-0.350	0.450
2020/01/31 09:00:00.0	312.180	0.210	-0.390	0.380
2020/01/31 09:00:00.1	312.180	0.180	-0.430	0.310
2020/01/31 09:00:00.2	312.190	0.140	-0.460	0.230
2020/01/31 09:00:00.3	312.190	0.100	-0.500	0.160
2020/01/31 09:00:00.4	312.210	0.070	-0.550	0.080
2020/01/31 09:00:00.5	312.220	0.030	-0.590	0.000
2020/01/31 09:00:00.6	312.230	0.000	-0.630	-0.070
2020/01/31 09:00:00.7	312.230	-0.030	-0.670	-0.150
2020/01/31 09:00:00.8	312.240	-0.060	-0.710	-0.220
2020/01/31 09:00:00.9	312.250	-0.090	-0.750	-0.300
2020/01/31 09:00:01.0	312.260	-0.120	-0.790	-0.370
2020/01/31 09:00:01.1	312.270	-0.140	-0.830	-0.440
2020/01/31 09:00:01.2	312.280	-0.160	-0.860	-0.510
2020/01/31 09:00:01.3	312.300	-0.180	-0.900	-0.580
2020/01/31 09:00:01.4	312.320	-0.200	-0.940	-0.650
2020/01/31 09:00:01.5	312.340	-0.220	-0.970	-0.710
2020/01/31 09:00:01.6	312.350	-0.230	-1.000	-0.770
2020/01/31 09:00:01.7	312.360	-0.240	-1.020	-0.820
2020/01/31 09:00:01.8	312.380	-0.250	-1.050	-0.870
2020/01/31 09:00:01.9	312.390	-0.260	-1.070	-0.920
2020/01/31 09:00:02.0	312.410	-0.260	-1.090	-0.960
2020/01/31 09:00:02.1	312.420	-0.270	-1.110	-1.000
2020/01/31 09:00:02.2	312.440	-0.270	-1.120	-1.040
2020/01/31 09:00:02.3	312.460	-0.270	-1.130	-1.070
2020/01/31 09:00:02.4	312.480	-0.270	-1.130	-1.090
2020/01/31 09:00:02.5	312.490	-0.270	-1.140	-1.110
2020/01/31 09:00:02.6	312.510	-0.270	-1.140	-1.130
2020/01/31 09:00:02.7	312.530	-0.270	-1.130	-1.140
2020/01/31 09:00:02.8	312.550	-0.270	-1.130	-1.150
2020/01/31 09:00:02.9	312.570	-0.270	-1.120	-1.150
2020/01/31 09:00:03.0	312.590	-0.270	-1.100	-1.150
2020/01/31 09:00:03.1	312.610	-0.260	-1.090	-1.150
2020/01/31 09:00:03.2	312.630	-0.260	-1.060	-1.140
2020/01/31 09:00:03.3	312.650	-0.260	-1.040	-1.130
2020/01/31 09:00:03.4	312.690	-0.260	-1.010	-1.110
2020/01/31 09:00:03.5	312.710	-0.260	-0.990	-1.090
2020/01/31 09:00:03.6	312.730	-0.260	-0.950	-1.070
2020/01/31 09:00:03.7	312.750	-0.260	-0.920	-1.050
2020/01/31 09:00:03.8	312.780	-0.260	-0.880	-1.020
2020/01/31 09:00:03.9	312.800	-0.260	-0.840	-0.990
2020/01/31 09:00:04.0	312.820	-0.260	-0.790	-0.960
2020/01/31 09:00:04.1	312.840	-0.260	-0.750	-0.920
2020/01/31 09:00:04.2	312.850	-0.260	-0.700	-0.880
2020/01/31 09:00:04.3	312.870	-0.260	-0.650	-0.840
2020/01/31 09:00:04.4	312.900	-0.260	-0.590	-0.790
2020/01/31 09:00:04.5	312.920	-0.270	-0.540	-0.740
2020/01/31 09:00:04.6	312.930	-0.270	-0.490	-0.690
2020/01/31 09:00:04.7	312.950	-0.270	-0.440	-0.640
2020/01/31 09:00:04.8	312.960	-0.270	-0.380	-0.590
2020/01/31 09:00:04.9	312.980	-0.270	-0.330	-0.540
2020/01/31 09:00:05.0	312.990	-0.270	-0.280	-0.480
2020/01/31 09:00:05.1	313.010	-0.270	-0.230	-0.430
2020/01/31 09:00:05.2	313.020	-0.270	-0.180	-0.370
2020/01/31 09:00:05.3	313.040	-0.270	-0.140	-0.310
2020/01/31 09:00:05.4	313.050	-0.260	-0.090	-0.250
2020/01/31 09:00:05.5	313.060	-0.260	-0.050	-0.200
2020/01/31 09:00:05.6	313.070	-0.260	-0.020	-0.140
2020/01/31 09:00:05.7	313.080	-0.250	0.020	-0.080
2020/01/31 09:00:05.8	313.100	-0.240	0.050	-0.020
2020/01/31 09:00:05.9	313.110	-0.230	0.080	0.030
2020/01/31 09:00:06.0	313.110	-0.230	0.110	0.090
2020/01/31 09:00:06.1	313.120	-0.220	0.130	0.140
2020/01/31 09:00:06.2	313.130	-0.210	0.150	0.200
2020/01/31 09:00:06.3	313.130	-0.200	0.170	0.250
2020/01/31 09:00:06.4	313.120	-0.180	0.190	0.310
2020/01/31 09:00:06.5	313.120	-0.170	0.200	0.360
2020/01/31 09:00:06.6	313.120	-0.160	0.220	0.410
2020/01/31 09:00:06.7	313.110	-0.150	0.230	0.460
2020/01/31 09:00:06.8	313.110	-0.130	0.240	0.510
2020/01/31 09:00:06.9	313.100	-0.120	0.250	0.560
2020/01/31 09:00:07.0	313.090	-0.110	0.260	0.610
2020/01/31 09:00:07.1	313.080	-0.090	0.270	0.650
2020/01/31 09:00:07.2	313.070	-0.080	0.280	0.700
2020/01/31 09:00:07.3	313.050	-0.060	0.280	0.740
2020/01/31 09:00:07.4	313.010	-0.050	0.300	0.780
2020/01/31 09:00:07.5	312.990	-0.040	0.300	0.820
2020/01/31 09:00:07.6	312.980	-0.020	0.310	0.850
2020/01/31 09:00:07.7	312.960	-0.010	0.310	0.890
2020/01/31 09:00:07.8	312.940	0.000	0.320	0.920
2020/01/31 09:00:07.9	312.920	0.020	0.320	0.950
2020/01/31 09:00:08.0	312.900	0.030	0.330	0.980
2020/01/31 09:00:08.1	312.880	0.040	0.330	1.000
2020/01/31 09:00:08.2	312.850	0.060	0.330	1.030
2020/01/31 09:00:08.3	312.830	0.070	0.330	1.050
2020/01/31 09:00:08.4	312.780	0.080	0.340	1.070
2020/01/31 09:00:08.5	312.760	0.090	0.340	1.090
2020/01/31 09:00:08.6	312.730	0.100	0.340	1.100
2020/01/31 09:00:08.7	312.700	0.110	0.340	1.120
2020/01/31 09:00:08.8	312.660	0.120	0.340	1.130
2020/01/31 09:00:08.9	312.630	0.130	0.340	1.150
2020/01/31 09:00:09.0	312.600	0.140	0.330	1.160
2020/01/31 09:00:09.1	312.560	0.150	0.330	1.170
2020/01/31 09:00:09.2	312.530	0.160	0.330	1.170
2020/01/31 09:00:09.3	312.490	0.170	0.320	1.180
2020/01/31 09:00:09.4	312.450	0.180	0.320	1.180
2020/01/31 09:00:09.5	312.410	0.190	0.310	1.180
2020/01/31 09:00:09.6	312.370	0.200	0.310	1.180
2020/01/31 09:00:09.7	312.340	0.210	0.300	1.180
2020/01/31 09:00:09.8	312.300	0.220	0.290	1.170
2020/01/31 09:00:09.9	312.270	0.230	0.270	1.170
2020/01/31 09:00:10.0	312.240	0.230	0.260	1.150
2020/01/31 09:00:10.1	312.210	0.240	0.240	1.140
2020/01/31 09:00:10.2	312.180	0.250	0.220	1.120
2020/01/31 09:00:10.3	312.160	0.260	0.200	1.090
2020/01/31 09:00:10.4	312.140	0.260	0.170	1.070
2020/01/31 09:00:10.5	312.120	0.270	0.140	1.030
2020/01/31 09:00:10.6	312.100	0.280	0.100	1.000
2020/01/31 09:00:10.7	312.080	0.280	0.070	0.960
2020/01/31 09:00:10.8	312.060	0.290	0.030	0.920
2020/01/31 09:00:10.9	312.050	0.290	-0.020	0.870
2020/01/31 09:00:11.0	312.040	0.300	-0.060	0.820
2020/01/31 09:00:11.1	312.020	0.300	-0.110	0.770
2020/01/31 09:00:11.2	312.010	0.300	-0.160	0.710
2020/01/31 09:00:11.3	312.010	0.300	-0.210	0.650
2020/01/31 09:00:11.4	312.010	0.310	-0.270	0.580
2020/01/31 09:00:11.5	312.010	0.310	-0.330	0.510
2020/01/31 09:00:11.6	312.010	0.310	-0.390	0.440
2020/01/31 09:00:11.7	312.010	0.310	-0.450	0.360
2020/01/31 09:00:11.8	312.020	0.300	-0.510	0.290
2020/01/31 09:00:11.9	312.020	0.300	-0.580	0.200
2020/01/31 09:00:12.0	312.040	0.300	-0.640	0.120
2020/01/31 09:00:12.1	312.050	0.300	-0.700	0.040
2020/01/31 09:00:12.2	312.070	0.290	-0.770	-0.050
2020/01/31 09:00:12.3	312.090	0.290	-0.830	-0.140
2020/01/31 09:00:12.4	312.140	0.280	-0.890	-0.230
2020/01/31 09:00:12.5	312.170	0.270	-0.940	-0.320
2020/01/31 09:00:12.6	312.200	0.270	-1.000	-0.400
2020/01/31 09:00:12.7	312.240	0.260	-1.050	-0.490
2020/01/31 09:00:12.8	312.270	0.250	-1.100	-0.580
2020/01/31 09:00:12.9	312.310	0.240	-1.140	-0.660
2020/01/31 09:00:13.0	312.360	0.230	-1.180	-0.740
2020/01/31 09:00:13.1	312.400	0.220	-1.210	-0.820
2020/01/31 09:00:13.2	312.440	0.200	-1.240	-0.900
2020/01/31 09:00:13.3	312.490	0.190	-1.260	-0.970
2020/01/31 09:00:13.4	312.550	0.180	-1.280	-1.050
2020/01/31 09:00:13.5	312.600	0.160	-1.290	-1.110
2020/01/31 09:00:13.6	312.650	0.140	-1.290	-1.170
2020/01/31 09:00:13.7	312.700	0.120	-1.290	-1.230
2020/01/31 09:00:13.8	312.750	0.100	-1.280	-1.280
2020/01/31 09:00:13.9	312.800	0.080	-1.270	-1.330
2020/01/31 09:00:14.0	312.850	0.060	-1.240	-1.370
2020/01/31 09:00:14.1	312.900	0.040	-1.220	-1.410
2020/01/31 09:00:14.2	312.950	0.010	-1.180	-1.440
2020/01/31 09:00:14.3	313.000	-0.010	-1.140	-1.470
2020/01/31 09:00:14.4	313.060	-0.040	-1.100	-1.480
2020/01/31 09:00:14.5	313.100	-0.070	-1.050	-1.490
2020/01/31 09:00:14.6	313.140	-0.100	-0.990	-1.500
2020/01/31 09:00:14.7	313.180	-0.120	-0.930	-1.490
2020/01/31 09:00:14.8	313.220	-0.150	-0.870	-1.490
2020/01/31 09:00:14.9	313.250	-0.180	-0.800	-1.470
2020/01/31 09:00:15.0	313.280	-0.210	-0.730	-1.450
2020/01/31 09:00:15.1	313.310	-0.240	-0.650	-1.420
2020/01/31 09:00:15.2	313.330	-0.260	-0.570	-1.390
2020/01/31 09:00:15.3	313.350	-0.290	-0.500	-1.350
2020/01/31 09:00:15.4	313.380	-0.320	-0.410	-1.300
2020/01/31 09:00:15.5	313.390	-0.340	-0.330	-1.250
2020/01/31 09:00:15.6	313.400	-0.370	-0.250	-1.200
2020/01/31 09:00:15.7	313.410	-0.390	-0.170	-1.140
2020/01/31 09:00:15.8	313.410	-0.410	-0.100	-1.080
2020/01/31 09:00:15.9	313.410	-0.430	-0.020	-1.020
2020/01/31 09:00:16.0	313.410	-0.440	0.050	-0.950
2020/01/31 09:00:16.1	313.410	-0.460	0.120	-0.880
2020/01/31 09:00:16.2	313.400	-0.470	0.190	-0.810
2020/01/31 09:00:16.3	313.390	-0.480	0.260	-0.730
2020/01/31 09:00:16.4	313.360	-0.490	0.310	-0.660
2020/01/31 09:00:16.5	313.350	-0.490	0.370	-0.580
2020/01/31 09:00:16.6	313.330	-0.490	0.420	-0.490
2020/01/31 09:00:16.7	313.310	-0.490	0.470	-0.410
2020/01/31 09:00:16.8	313.280	-0.490	0.510	-0.320
2020/01/31 09:00:16.9	313.260	-0.480	0.550	-0.240
2020/01/31 09:00:17.0	313.230	-0.470	0.580	-0.150
2020/01/31 09:00:17.1	313.200	-0.450	0.610	-0.060
2020/01/31 09:00:17.2	313.170	-0.430	0.630	0.030
2020/01/31 09:00:17.3	313.140	-0.410	0.650	0.120
2020/01/31 09:00:17.4	313.090	-0.390	0.660	0.210
2020/01/31 09:00:17.5	313.060	-0.360	0.670	0.290
2020/01/31 09:00:17.6	313.020	-0.340	0.670	0.380
2020/01/31 09:00:17.7	312.990	-0.300	0.670	0.470
2020/01/31 09:00:17.8	312.950	-0.270	0.660	0.550
2020/01/31 09:00:17.9	312.920	-0.240	0.650	0.630
2020/01/31 09:00:18.0	312.890	-0.200	0.630	0.710
2020/01/31 09:00:18.1	312.850	-0.160	0.600	0.780
2020/01/31 09:00:18.2	312.820	-0.120	0.580	0.850
2020/01/31 09:00:18.3	312.780	-0.080	0.540	0.920
2020/01/31 09:00:18.4	312.750	-0.040	0.510	0.980
2020/01/31 09:00:18.5	312.720	0.000	0.460	1.040
2020/01/31 09:00:18.6	312.690	0.040	0.420	1.100
2020/01/31 09:00:18.7	312.660	0.080	0.370	1.150
2020/01/31 09:00:18.8	312.630	0.120	0.320	1.190
2020/01/31 09:00:18.9	312.610	0.160	0.270	1.230
2020/01/31 09:00:19.0	312.590	0.200	0.210	1.260
2020/01/31 09:00:19.1	312.570	0.240	0.160	1.280
2020/01/31 09:00:19.2	312.550	0.270	0.100	1.300
2020/01/31 09:00:19.3	312.530	0.300	0.040	1.310
2020/01/31 09:00:19.4	312.510	0.330	-0.010	1.320
2020/01/31 09:00:19.5	312.490	0.360	-0.070	1.320
2020/01/31 09:00:19.6	312.480	0.390	-0.130	1.320
2020/01/31 09:00:19.7	312.470	0.410	-0.180	1.310
2020/01/31 09:00:19.8	312.450	0.430	-0.230	1.300
2020/01/31 09:00:19.9	312.440	0.440	-0.280	1.290
2020/01/31 09:00:20.0	312.430	0.450	-0.330	1.270
2020/01/31 09:00:20.1	312.420	0.460	-0.370	1.250
2020/01/31 09:00:20.2	312.410	0.470	-0.410	1.220
2020/01/31 09:00:20.3	312.390	0.470	-0.450	1.190
2020/01/31 09:00:20.4	312.390	0.470	-0.480	1.160
2020/01/31 09:00:20.5	312.370	0.460	-0.500	1.130
2020/01/31 09:00:20.6	312.360	0.450	-0.520	1.090
2020/01/31 09:00:20.7	312.340	0.440	-0.540	1.060
2020/01/31 09:00:20.8	312.330	0.420	-0.550	1.020
2020/01/31 09:00:20.9	312.320	0.410	-0.560	0.980
2020/01/31 09:00:21.0	312.300	0.380	-0.560	0.940
2020/01/31 09:00:21.1	312.290	0.360	-0.570	0.890
2020/01/31 09:00:21.2	312.270	0.330	-0.560	0.850
2020/01/31 09:00:21.3	312.260	0.310	-0.560	0.800
2020/01/31 09:00:21.4	312.240	0.270	-0.550	0.750
2020/01/31 09:00:21.5	312.230	0.240	-0.540	0.700
2020/01/31 09:00:21.6	312.220	0.210	-0.530	0.650
2020/01/31 09:00:21.7	312.210	0.170	-0.520	0.590
2020/01/31 09:00:21.8	312.200	0.140	-0.500	0.540
2020/01/31 09:00:21.9	312.190	0.100	-0.490	0.480
2020/01/31 09:00:22.0	312.190	0.070	-0.480	0.420
2020/01/31 09:00:22.1	312.180	0.040	-0.460	0.350
2020/01/31 09:00:22.2	312.180	0.000	-0.450	0.290
2020/01/31 09:00:22.3	312.180	-0.030	-0.440	0.220
2020/01/31 09:00:22.4	312.190	-0.060	-0.430	0.150
2020/01/31 09:00:22.5	312.200	-0.090	-0.420	0.090
2020/01/31 09:00:22.6	312.200	-0.120	-0.420	0.020
2020/01/31 09:00:22.7	312.210	-0.140	-0.420	-0.050
2020/01/31 09:00:22.8	312.220	-0.170	-0.410	-0.110
2020/01/31 09:00:22.9	312.240	-0.190	-0.420	-0.180
2020/01/31 09:00:23.0	312.250	-0.210	-0.420	-0.240
2020/01/31 09:00:23.1	312.270	-0.220	-0.430	-0.310
2020/01/31 09:00:23.2	312.290	-0.230	-0.430	-0.370
2020/01/31 09:00:23.3	312.310	-0.240	-0.440	-0.430
2020/01/31 09:00:23.4	312.340	-0.250	-0.460	-0.490
2020/01/31 09:00:23.5	312.360	-0.250	-0.470	-0.540
2020/01/31 09:00:23.6	312.390	-0.260	-0.490	-0.600
2020/01/31 09:00:23.7	312.430	-0.260	-0.500	-0.650
2020/01/31 09:00:23.8	312.460	-0.250	-0.520	-0.700
2020/01/31 09:00:23.9	312.490	-0.250	-0.540	-0.740
2020/01/31 09:00:24.0	312.530	-0.240	-0.550	-0.780
2020/01/31 09:00:24.1	312.570	-0.230	-0.570	-0.820
2020/01/31 09:00:24.2	312.610	-0.220	-0.590	-0.860
2020/01/31 09:00:24.3	312.650	-0.210	-0.600	-0.890
2020/01/31 09:00:24.4	312.700	-0.200	-0.620	-0.920
2020/01/31 09:00:24.5	312.740	-0.190	-0.630	-0.940
2020/01/31 09:00:24.6	312.770	-0.180	-0.650	-0.960
2020/01/31 09:00:24.7	312.810	-0.170	-0.660	-0.970
2020/01/31 09:00:24.8	312.850	-0.150	-0.660	-0.980
2020/01/31 09:00:24.9	312.880	-0.140	-0.670	-0.980
2020/01/31 09:00:25.0	312.910	-0.130	-0.670	-0.980
2020/01/31 09:00:25.1	312.950	-0.120	-0.670	-0.980
2020/01/31 09:00:25.2	312.980	-0.110	-0.670	-0.970
2020/01/31 09:00:25.3	313.010	-0.110	-0.660	-0.960
2020/01/31 09:00:25.4	313.030	-0.100	-0.650	-0.940
2020/01/31 09:00:25.5	313.060	-0.090	-0.640	-0.920
2020/01/31 09:00:25.6	313.090	-0.090	-0.630	-0.900
2020/01/31 09:00:25.7	313.110	-0.090	-0.610	-0.870
2020/01/31 09:00:25.8	313.140	-0.090	-0.590	-0.840
2020/01/31 09:00:25.9	313.160	-0.090	-0.570	-0.810
2020/01/31 09:00:26.0	313.180	-0.090	-0.540	-0.780
2020/01/31 09:00:26.1	313.200	-0.090	-0.520	-0.740
2020/01/31 09:00:26.2	313.230	-0.090	-0.490	-0.700
2020/01/31 09:00:26.3	313.240	-0.090	-0.460	-0.660
2020/01/31 09:00:26.4	313.280	-0.100	-0.420	-0.610
2020/01/31 09:00:26.5	313.300	-0.100	-0.380	-0.560
2020/01/31 09:00:26.6	313.310	-0.110	-0.350	-0.510
2020/01/31 09:00:26.7	313.320	-0.120	-0.310	-0.460
2020/01/31 09:00:26.8	313.330	-0.120	-0.270	-0.400
2020/01/31 09:00:26.9	313.340	-0.130	-0.230	-0.340
2020/01/31 09:00:27.0	313.350	-0.140	-0.190	-0.280
2020/01/31 09:00:27.1	313.350	-0.140	-0.150	-0.220
2020/01/31 09:00:27.2	313.350	-0.150	-0.110	-0.150
2020/01/31 09:00:27.3	313.350	-0.160	-0.070	-0.090
2020/01/31 09:00:27.4	313.340	-0.160	-0.020	-0.020
2020/01/31 09:00:27.5	313.330	-0.170	0.020	0.050
2020/01/31 09:00:27.6	313.330	-0.170	0.060	0.120
2020/01/31 09:00:27.7	313.320	-0.180	0.090	0.200
2020/01/31 09:00:27.8	313.310	-0.180	0.130	0.270
2020/01/31 09:00:27.9	313.300	-0.180	0.160	0.340
2020/01/31 09:00:28.0	313.290	-0.180	0.190	0.410
2020/01/31 09:00:28.1	313.270	-0.170	0.220	0.480
2020/01/31 09:00:28.2	313.260	-0.170	0.240	0.560
2020/01/31 09:00:28.3	313.240	-0.160	0.270	0.620
2020/01/31 09:00:28.4	313.220	-0.160	0.290	0.690
2020/01/31 09:00:28.5	313.200	-0.150	0.300	0.760
2020/01/31 09:00:28.6	313.180	-0.130	0.310	0.820
2020/01/31 09:00:28.7	313.160	-0.120	0.320	0.880
2020/01/31 09:00:28.8	313.140	-0.110	0.330	0.940
2020/01/31 09:00:28.9	313.120	-0.090	0.330	1.000
2020/01/31 09:00:29.0	313.090	-0.070	0.330	1.050
2020/01/31 09:00:29.1	313.070	-0.050	0.330	1.110
2020/01/31 09:00:29.2	313.040	-0.030	0.320	1.150
2020/01/31 09:00:29.3	313.010	-0.010	0.320	1.200
2020/01/31 09:00:29.4	312.970	0.020	0.310	1.240
2020/01/31 09:00:29.5	312.940	0.040	0.290	1.270
2020/01/31 09:00:29.6	312.910	0.070	0.280	1.310
2020/01/31 09:00:29.7	312.880	0.090	0.260	1.330
2020/01/31 09:00:29.8	312.850	0.120	0.240	1.360
2020/01/31 09:00:29.9	312.810	0.140	0.220	1.380
2020/01/31 09:00:30.0	312.780	0.170	0.200	1.390
2020/01/31 09:00:30.1	312.740	0.200	0.180	1.410
2020/01/31 09:00:30.2	312.710	0.220	0.150	1.410
2020/01/31 09:00:30.3	312.670	0.250	0.130	1.420
2020/01/31 09:00:30.4	312.640	0.270	0.100	1.410
2020/01/31 09:00:30.5	312.600	0.290	0.070	1.410
2020/01/31 09:00:30.6	312.560	0.310	0.040	1.400
2020/01/31 09:00:30.7	312.530	0.330	0.010	1.380
2020/01/31 09:00:30.8	312.500	0.350	-0.020	1.360
2020/01/31 09:00:30.9	312.460	0.360	-0.060	1.340
2020/01/31 09:00:31.0	312.430	0.380	-0.090	1.310
2020/01/31 09:00:31.1	312.400	0.390	-0.130	1.270
2020/01/31 09:00:31.2	312.380	0.400	-0.170	1.230
2020/01/31 09:00:31.3	312.350	0.410	-0.200	1.190
2020/01/31 09:00:31.4	312.320	0.420	-0.250	1.130
2020/01/31 09:00:31.5	312.290	0.420	-0.280	1.080
2020/01/31 09:00:31.6	312.280	0.430	-0.320	1.020
2020/01/31 09:00:31.7	312.260	0.430	-0.360	0.960
2020/01/31 09:00:31.8	312.250	0.430	-0.400	0.890
2020/01/31 09:00:31.9	312.240	0.420	-0.430	0.820
2020/01/31 09:00:32.0	312.230	0.420	-0.470	0.750
2020/01/31 09:00:32.1	312.230	0.410	-0.500	0.670
2020/01/31 09:00:32.2	312.230	0.400	-0.540	0.600
2020/01/31 09:00:32.3	312.240	0.390	-0.570	0.520
2020/01/31 09:00:32.4	312.270	0.380	-0.590	0.440
2020/01/31 09:00:32.5	312.280	0.370	-0.620	0.360
2020/01/31 09:00:32.6	312.300	0.360	-0.640	0.280
2020/01/31 09:00:32.7	312.310	0.340	-0.660	0.200
2020/01/31 09:00:32.8	312.330	0.330	-0.680	0.120
2020/01/31 09:00:32.9	312.350	0.310	-0.700	0.040
2020/01/31 09:00:33.0	312.380	0.290	-0.710	-0.040
2020/01/31 09:00:33.1	312.400	0.270	-0.720	-0.110
2020/01/31 09:00:33.2	312.430	0.250	-0.720	-0.190
2020/01/31 09:00:33.3	312.460	0.230	-0.720	-0.260
2020/01/31 09:00:33.4	312.500	0.210	-0.720	-0.330
2020/01/31 09:00:33.5	312.540	0.190	-0.710	-0.390
2020/01/31 09:00:33.6	312.570	0.170	-0.700	-0.460
2020/01/31 09:00:33.7	312.610	0.150	-0.690	-0.520
2020/01/31 09:00:33.8	312.650	0.120	-0.670	-0.570
2020/01/31 09:00:33.9	312.680	0.100	-0.650	-0.630
2020/01/31 09:00:34.0	312.720	0.080	-0.630	-0.680
2020/01/31 09:00:34.1	312.760	0.050	-0.600	-0.720
2020/01/31 09:00:34.2	312.800	0.030	-0.580	-0.760
2020/01/31 09:00:34.3	312.840	0.010	-0.540	-0.800
2020/01/31 09:00:34.4	312.880	-0.020	-0.510	-0.830
2020/01/31 09:00:34.5	312.920	-0.040	-0.480	-0.860
2020/01/31 09:00:34.6	312.950	-0.070	-0.440	-0.890
2020/01/31 09:00:34.7	312.990	-0.090	-0.400	-0.910
2020/01/31 09:00:34.8	313.030	-0.120	-0.360	-0.920
2020/01/31 09:00:34.9	313.060	-0.140	-0.320	-0.930
2020/01/31 09:00:35.0	313.090	-0.160	-0.280	-0.940
2020/01/31 09:00:35.1	313.120	-0.190	-0.240	-0.940
2020/01/31 09:00:35.2	313.160	-0.210	-0.200	-0.940
2020/01/31 09:00:35.3	313.180	-0.230	-0.160	-0.930
2020/01/31 09:00:35.4	313.210	-0.250	-0.120	-0.920
2020/01/31 09:00:35.5	313.240	-0.280	-0.080	-0.910
2020/01/31 09:00:35.6	313.260	-0.300	-0.050	-0.890
2020/01/31 09:00:35.7	313.290	-0.320	-0.010	-0.870
2020/01/31 09:00:35.8	313.310	-0.330	0.020	-0.840
2020/01/31 09:00:35.9	313.330	-0.350	0.050	-0.820
2020/01/31 09:00:36.0	313.350	-0.370	0.080	-0.790
2020/01/31 09:00:36.1	313.360	-0.380	0.100	-0.750
2020/01/31 09:00:36.2	313.380	-0.400	0.120	-0.720
2020/01/31 09:00:36.3	313.390	-0.410	0.140	-0.680
2020/01/31 09:00:36.4	313.390	-0.420	0.160	-0.640
2020/01/31 09:00:36.5	313.400	-0.430	0.170	-0.590
2020/01/31 09:00:36.6	313.410	-0.440	0.180	-0.540
2020/01/31 09:00:36.7	313.410	-0.440	0.180	-0.500
2020/01/31 09:00:36.8	313.410	-0.450	0.180	-0.450
2020/01/31 09:00:36.9	313.410	-0.450	0.180	-0.400
2020/01/31 09:00:37.0	313.410	-0.450	0.180	-0.350
2020/01/31 09:00:37.1	313.400	-0.450	0.170	-0.300
2020/01/31 09:00:37.2	313.390	-0.450	0.150	-0.250
2020/01/31 09:00:37.3	313.390	-0.450	0.140	-0.200
2020/01/31 09:00:37.4	313.360	-0.440	0.120	-0.150
2020/01/31 09:00:37.5	313.350	-0.440	0.100	-0.110
2020/01/31 09:00:37.6	313.340	-0.430	0.070	-0.070
2020/01/31 09:00:37.7	313.330	-0.420	0.040	-0.030
2020/01/31 09:00:37.8	313.320	-0.400	0.020	0.010
2020/01/31 09:00:37.9	313.310	-0.390	-0.020	0.050
2020/01/31 09:00:38.0	313.300	-0.370	-0.050	0.080
2020/01/31 09:00:38.1	313.290	-0.360	-0.080	0.120
2020/01/31 09:00:38.2	313.280	-0.340	-0.120	0.150
2020/01/31 09:00:38.3	313.260	-0.320	-0.150	0.180
2020/01/31 09:00:38.4	313.220	-0.290	-0.190	0.200
2020/01/31 09:00:38.5	313.210	-0.270	-0.220	0.230
2020/01/31 09:00:38.6	313.200	-0.250	-0.260	0.250
2020/01/31 09:00:38.7	313.180	-0.220	-0.290	0.280
2020/01/31 09:00:38.8	313.170	-0.190	-0.320	0.310
2020/01/31 09:00:38.9	313.160	-0.160	-0.350	0.330
2020/01/31 09:00:39.0	313.140	-0.140	-0.380	0.360
2020/01/31 09:00:39.1	313.130	-0.110	-0.400	0.380
2020/01/31 09:00:39.2	313.110	-0.080	-0.430	0.410
2020/01/31 09:00:39.3	313.100	-0.050	-0.450	0.440
2020/01/31 09:00:39.4	313.070	-0.020	-0.460	0.460
2020/01/31 09:00:39.5	313.060	0.010	-0.480	0.490
2020/01/31 09:00:39.6	313.040	0.040	-0.490	0.510
2020/01/31 09:00:39.7	313.020	0.070	-0.500	0.540
2020/01/31 09:00:39.8	313.000	0.090	-0.500	0.560
2020/01/31 09:00:39.9	312.990	0.120	-0.510	0.590
2020/01/31 09:00:40.0	312.970	0.140	-0.510	0.610
2020/01/31 09:00:40.1	312.950	0.160	-0.510	0.630
2020/01/31 09:00:40.2	312.930	0.190	-0.500	0.650
2020/01/31 09:00:40.3	312.910	0.210	-0.500	0.670
2020/01/31 09:00:40.4	312.890	0.220	-0.500	0.690
2020/01/31 09:00:40.5	312.880	0.240	-0.490	0.700
2020/01/31 09:00:40.6	312.860	0.260	-0.490	0.710
2020/01/31 09:00:40.7	312.850	0.270	-0.480	0.720
2020/01/31 09:00:40.8	312.830	0.280	-0.470	0.720
2020/01/31 09:00:40.9	312.820	0.290	-0.470	0.720
2020/01/31 09:00:41.0	312.810	0.300	-0.470	0.720
2020/01/31 09:00:41.1	312.800	0.310	-0.460	0.710
2020/01/31 09:00:41.2	312.800	0.320	-0.460	0.710
2020/01/31 09:00:41.3	312.790	0.320	-0.460	0.690
2020/01/31 09:00:41.4	312.790	0.320	-0.460	0.680
2020/01/31 09:00:41.5	312.790	0.330	-0.460	0.660
2020/01/31 09:00:41.6	312.790	0.330	-0.470	0.640
2020/01/31 09:00:41.7	312.800	0.330	-0.470	0.610
2020/01/31 09:00:41.8	312.810	0.330	-0.480	0.580
2020/01/31 09:00:41.9	312.820	0.320	-0.490	0.550
2020/01/31 09:00:42.0	312.830	0.320	-0.500	0.510
2020/01/31 09:00:42.1	312.850	0.320	-0.510	0.480
2020/01/31 09:00:42.2	312.870	0.310	-0.520	0.440
2020/01/31 09:00:42.3	312.890	0.310	-0.530	0.390
2020/01/31 09:00:42.4	312.920	0.300	-0.540	0.350
2020/01/31 09:00:42.5	312.940	0.290	-0.550	0.300
2020/01/31 09:00:42.6	312.970	0.280	-0.550	0.260
2020/01/31 09:00:42.7	313.000	0.270	-0.560	0.210
2020/01/31 09:00:42.8	313.040	0.260	-0.560	0.160
2020/01/31 09:00:42.9	313.070	0.250	-0.570	0.110
2020/01/31 09:00:43.0	313.110	0.240	-0.560	0.060
2020/01/31 09:00:43.1	313.140	0.220	-0.560	0.010
2020/01/31 09:00:43.2	313.180	0.210	-0.550	-0.040
2020/01/31 09:00:43.3	313.210	0.190	-0.540	-0.090
2020/01/31 09:00:43.4	313.240	0.170	-0.530	-0.130
2020/01/31 09:00:43.5	313.270	0.160	-0.510	-0.180
2020/01/31 09:00:43.6	313.310	0.130	-0.480	-0.220
2020/01/31 09:00:43.7	313.340	0.110	-0.460	-0.260
2020/01/31 09:00:43.8	313.370	0.090	-0.430	-0.300
2020/01/31 09:00:43.9	313.400	0.070	-0.390	-0.330
2020/01/31 09:00:44.0	313.430	0.040	-0.360	-0.370
2020/01/31 09:00:44.1	313.460	0.020	-0.320	-0.400
2020/01/31 09:00:44.2	313.480	-0.010	-0.270	-0.420
2020/01/31 09:00:44.3	313.500	-0.030	-0.230	-0.450
2020/01/31 09:00:44.4	313.530	-0.060	-0.180	-0.470
2020/01/31 09:00:44.5	313.550	-0.080	-0.130	-0.490
2020/01/31 09:00:44.6	313.570	-0.110	-0.080	-0.500
2020/01/31 09:00:44.7	313.580	-0.130	-0.030	-0.510
2020/01/31 09:00:44.8	313.590	-0.160	0.020	-0.520
2020/01/31 09:00:44.9	313.600	-0.180	0.070	-0.520
2020/01/31 09:00:45.0	313.600	-0.210	0.120	-0.520
2020/01/31 09:00:45.1	313.600	-0.230	0.170	-0.520
2020/01/31 09:00:45.2	313.610	-0.250	0.220	-0.520
2020/01/31 09:00:45.3	313.600	-0.270	0.260	-0.510
2020/01/31 09:00:45.4	313.610	-0.290	0.310	-0.490
2020/01/31 09:00:45.5	313.600	-0.310	0.350	-0.480
2020/01/31 09:00:45.6	313.600	-0.320	0.380	-0.470
2020/01/31 09:00:45.7	313.590	-0.330	0.410	-0.450
2020/01/31 09:00:45.8	313.580	-0.340	0.440	-0.430
2020/01/31 09:00:45.9	313.570	-0.350	0.470	-0.410
2020/01/31 09:00:46.0	313.560	-0.350	0.490	-0.390
2020/01/31 09:00:46.1	313.540	-0.360	0.500	-0.370
2020/01/31 09:00:46.2	313.530	-0.360	0.510	-0.340
2020/01/31 09:00:46.3	313.520	-0.350	0.520	-0.320
2020/01/31 09:00:46.4	313.500	-0.350	0.520	-0.290
2020/01/31 09:00:46.5	313.480	-0.340	0.510	-0.260
2020/01/31 09:00:46.6	313.470	-0.330	0.510	-0.230
2020/01/31 09:00:46.7	313.450	-0.320	0.500	-0.190
2020/01/31 09:00:46.8	313.430	-0.310	0.480	-0.150
2020/01/31 09:00:46.9	313.410	-0.290	0.460	-0.120
2020/01/31 09:00:47.0	313.380	-0.270	0.440	-0.080
2020/01/31 09:00:47.1	313.360	-0.250	0.410	-0.040
2020/01/31 09:00:47.2	313.340	-0.230	0.380	0.010
2020/01/31 09:00:47.3	313.310	-0.210	0.350	0.050
2020/01/31 09:00:47.4	313.280	-0.190	0.310	0.090
2020/01/31 09:00:47.5	313.250	-0.160	0.270	0.140
2020/01/31 09:00:47.6	313.230	-0.130	0.230	0.180
2020/01/31 09:00:47.7	313.200	-0.110	0.190	0.230
2020/01/31 09:00:47.8	313.170	-0.080	0.150	0.270
2020/01/31 09:00:47.9	313.150	-0.050	0.100	0.310
2020/01/31 09:00:48.0	313.120	-0.020	0.050	0.360
2020/01/31 09:00:48.1	313.100	0.000	0.000	0.400
2020/01/31 09:00:48.2	313.070	0.030	-0.050	0.440
2020/01/31 09:00:48.3	313.050	0.060	-0.090	0.480
2020/01/31 09:00:48.4	313.040	0.090	-0.140	0.510
2020/01/31 09:00:48.5	313.020	0.120	-0.190	0.550
2020/01/31 09:00:48.6	313.000	0.140	-0.240	0.580
2020/01/31 09:00:48.7	312.990	0.170	-0.290	0.610
2020/01/31 09:00:48.8	312.980	0.190	-0.340	0.640
2020/01/31 09:00:48.9	312.970	0.220	-0.380	0.660
2020/01/31 09:00:49.0	312.960	0.240	-0.430	0.680
2020/01/31 09:00:49.1	312.960	0.260	-0.470	0.700
2020/01/31 09:00:49.2	312.950	0.280	-0.510	0.720
2020/01/31 09:00:49.3	312.950	0.300	-0.550	0.730
2020/01/31 09:00:49.4	312.950	0.310	-0.590	0.740
2020/01/31 09:00:49.5	312.950	0.330	-0.620	0.740
2020/01/31 09:00:49.6	312.960	0.340	-0.660	0.740
2020/01/31 09:00:49.7	312.970	0.350	-0.690	0.740
2020/01/31 09:00:49.8	312.980	0.360	-0.710	0.730
2020/01/31 09:00:49.9	312.990	0.360	-0.740	0.720
2020/01/31 09:00:50.0	313.000	0.370	-0.760	0.710
2020/01/31 09:00:50.1	313.010	0.370	-0.780	0.690
2020/01/31 09:00:50.2	313.030	0.370	-0.790	0.680
2020/01/31 09:00:50.3	313.040	0.370	-0.810	0.660
2020/01/31 09:00:50.4	313.050	0.370	-0.820	0.630
2020/01/31 09:00:50.5	313.070	0.360	-0.830	0.610
2020/01/31 09:00:50.6	313.080	0.360	-0.830	0.580
2020/01/31 09:00:50.7	313.100	0.350	-0.830	0.550
2020/01/31 09:00:50.8	313.120	0.340	-0.840	0.530
2020/01/31 09:00:50.9	313.130	0.330	-0.830	0.500
2020/01/31 09:00:51.0	313.150	0.320	-0.830	0.470
2020/01/31 09:00:51.1	313.170	0.300	-0.820	0.430
2020/01/31 09:00:51.2	313.180	0.290	-0.810	0.400
2020/01/31 09:00:51.3	313.200	0.270	-0.800	0.370
2020/01/31 09:00:51.4	313.230	0.260	-0.790	0.340
2020/01/31 09:00:51.5	313.240	0.240	-0.770	0.310
2020/01/31 09:00:51.6	313.260	0.220	-0.760	0.280
2020/01/31 09:00:51.7	313.270	0.210	-0.740	0.250
2020/01/31 09:00:51.8	313.290	0.190	-0.720	0.220
2020/01/31 09:00:51.9	313.300	0.170	-0.690	0.190
2020/01/31 09:00:52.0	313.310	0.150	-0.670	0.160
2020/01/31 09:00:52.1	313.320	0.140	-0.650	0.140
2020/01/31 09:00:52.2	313.330	0.120	-0.620	0.110
2020/01/31 09:00:52.3	313.340	0.100	-0.590	0.080
2020/01/31 09:00:52.4	313.340	0.080	-0.570	0.060
2020/01/31 09:00:52.5	313.350	0.070	-0.540	0.040
2020/01/31 09:00:52.6	313.360	0.050	-0.510	0.010
2020/01/31 09:00:52.7	313.370	0.030	-0.480	-0.010
2020/01/31 09:00:52.8	313.370	0.020	-0.450	-0.030
2020/01/31 09:00:52.9	313.380	0.000	-0.420	-0.050
2020/01/31 09:00:53.0	313.390	-0.020	-0.390	-0.070
2020/01/31 09:00:53.1	313.390	-0.030	-0.360	-0.080
2020/01/31 09:00:53.2	313.390	-0.050	-0.320	-0.100
2020/01/31 09:00:53.3	313.400	-0.060	-0.290	-0.110
2020/01/31 09:00:53.4	313.400	-0.080	-0.260	-0.130
2020/01/31 09:00:53.5	313.410	-0.090	-0.230	-0.140
2020/01/31 09:00:53.6	313.410	-0.100	-0.200	-0.150
2020/01/31 09:00:53.7	313.410	-0.120	-0.170	-0.160
2020/01/31 09:00:53.8	313.410	-0.130	-0.140	-0.170
2020/01/31 09:00:53.9	313.420	-0.150	-0.110	-0.180
2020/01/31 09:00:54.0	313.420	-0.160	-0.090	-0.180
2020/01/31 09:00:54.1	313.420	-0.170	-0.060	-0.190
2020/01/31 09:00:54.2	313.420	-0.180	-0.040	-0.200
2020/01/31 09:00:54.3	313.430	-0.200	-0.020	-0.210
2020/01/31 09:00:54.4	313.430	-0.210	-0.000	-0.210
2020/01/31 09:00:54.5	313.440	-0.220	0.020	-0.220
2020/01/31 09:00:54.6	313.440	-0.230	0.030	-0.230
2020/01/31 09:00:54.7	313.450	-0.250	0.040	-0.240
2020/01/31 09:00:54.8	313.450	-0.260	0.050	-0.250
2020/01/31 09:00:54.9	313.460	-0.270	0.060	-0.260
2020/01/31 09:00:55.0	313.460	-0.280	0.070	-0.270
2020/01/31 09:00:55.1	313.470	-0.290	0.070	-0.280
2020/01/31 09:00:55.2	313.480	-0.300	0.080	-0.290
2020/01/31 09:00:55.3	313.480	-0.310	0.080	-0.300
2020/01/31 09:00:55.4	313.500	-0.320	0.080	-0.310
2020/01/31 09:00:55.5	313.500	-0.330	0.080	-0.310
2020/01/31 09:00:55.6	313.510	-0.340	0.070	-0.320
2020/01/31 09:00:55.7	313.510	-0.350	0.070	-0.320
2020/01/31 09:00:55.8	313.510	-0.360	0.060	-0.320
2020/01/31 09:00:55.9	313.510	-0.370	0.060	-0.310
2020/01/31 09:00:56.0	313.510	-0.370	0.050	-0.310
2020/01/31 09:00:56.1	313.510	-0.380	0.040	-0.300
2020/01/31 09:00:56.2	313.510	-0.390	0.040	-0.280
2020/01/31 09:00:56.3	313.500	-0.390	0.030	-0.270
2020/01/31 09:00:56.4	313.500	-0.390	0.030	-0.250
2020/01/31 09:00:56.5	313.490	-0.400	0.020	-0.230
2020/01/31 09:00:56.6	313.480	-0.400	0.010	-0.210
2020/01/31 09:00:56.7	313.470	-0.400	0.010	-0.180
2020/01/31 09:00:56.8	313.460	-0.400	0.000	-0.150
2020/01/31 09:00:56.9	313.450	-0.400	-0.010	-0.110
2020/01/31 09:00:57.0	313.440	-0.400	-0.010	-0.080
2020/01/31 09:00:57.1	313.430	-0.390	-0.020	-0.040
2020/01/31 09:00:57.2	313.410	-0.380	-0.020	-0.000
2020/01/31 09:00:57.3	313.400	-0.380	-0.030	0.040
2020/01/31 09:00:57.4	313.380	-0.370	-0.030	0.080
2020/01/31 09:00:57.5	313.360	-0.350	-0.040	0.120
2020/01/31 09:00:57.6	313.350	-0.340	-0.040	0.170
2020/01/31 09:00:57.7	313.330	-0.330	-0.050	0.210
2020/01/31 09:00:57.8	313.310	-0.310	-0.050	0.260
2020/01/31 09:00:57.9	313.290	-0.290	-0.050	0.310
2020/01/31 09:00:58.0	313.270	-0.270	-0.060	0.370
2020/01/31 09:00:58.1	313.240	-0.250	-0.060	0.420
2020/01/31 09:00:58.2	313.220	-0.220	-0.060	0.480
2020/01/31 09:00:58.3	313.200	-0.200	-0.070	0.530
2020/01/31 09:00:58.4	313.170	-0.170	-0.070	0.600
2020/01/31 09:00:58.5	313.150	-0.140	-0.070	0.650
2020/01/31 09:00:58.6	313.120	-0.110	-0.070	0.710
2020/01/31 09:00:58.7	313.090	-0.090	-0.080	0.770
2020/01/31 09:00:58.8	313.070	-0.050	-0.080	0.830
2020/01/31 09:00:58.9	313.040	-0.020	-0.090	0.880
2020/01/31 09:00:59.0	313.010	0.010	-0.090	0.930
2020/01/31 09:00:59.1	312.990	0.040	-0.100	0.980
2020/01/31 09:00:59.2	312.960	0.070	-0.110	1.020
2020/01/31 09:00:59.3	312.940	0.110	-0.130	1.070
2020/01/31 09:00:59.4	312.940	0.140	-0.140	1.100
2020/01/31 09:00:59.5	312.920	0.170	-0.150	1.130
2020/01/31 09:00:59.6	312.900	0.200	-0.170	1.160
2020/01/31 09:00:59.7	312.890	0.240	-0.190	1.180
2020/01/31 09:00:59.8	312.880	0.270	-0.210	1.190
2020/01/31 09:00:59.9	312.870	0.300	-0.240	1.200
2020/01/31 09:01:00.0	312.860	0.330	-0.260	1.200
2020/01/31 09:01:00.1	312.860	0.360	-0.290	1.190
2020/01/31 09:01:00.2	312.860	0.380	-0.320	1.180
2020/01/31 09:01:00.3	312.870	0.410	-0.350	1.160
2020/01/31 09:01:00.4	312.880	0.430	-0.380	1.140
2020/01/31 09:01:00.5	312.890	0.460	-0.410	1.110
2020/01/31 09:01:00.6	312.900	0.480	-0.440	1.080
2020/01/31 09:01:00.7	312.910	0.500	-0.470	1.050
2020/01/31 09:01:00.8	312.930	0.510	-0.500	1.010
2020/01/31 09:01:00.9	312.950	0.530	-0.530	0.970
2020/01/31 09:01:01.0	312.970	0.540	-0.560	0.920
2020/01/31 09:01:01.1	313.000	0.540	-0.580	0.870
2020/01/31 09:01:01.2	313.020	0.550	-0.610	0.820
2020/01/31 09:01:01.3	313.050	0.550	-0.630	0.770
2020/01/31 09:01:01.4	313.080	0.550	-0.640	0.720
2020/01/31 09:01:01.5	313.110	0.550	-0.660	0.670
2020/01/31 09:01:01.6	313.140	0.540	-0.660	0.610
2020/01/31 09:01:01.7	313.170	0.530	-0.670	0.560
2020/01/31 09:01:01.8	313.190	0.520	-0.660	0.510
2020/01/31 09:01:01.9	313.220	0.510	-0.660	0.460
2020/01/31 09:01:02.0	313.250	0.490	-0.640	0.410
2020/01/31 09:01:02.1	313.280	0.470	-0.630	0.360
2020/01/31 09:01:02.2	313.310	0.440	-0.600	0.310
2020/01/31 09:01:02.3	313.330	0.410	-0.580	0.270
2020/01/31 09:01:02.4	313.360	0.390	-0.540	0.230
2020/01/31 09:01:02.5	313.380	0.350	-0.510	0.190
2020/01/31 09:01:02.6	313.400	0.320	-0.470	0.150
2020/01/31 09:01:02.7	313.420	0.280	-0.420	0.120
2020/01/31 09:01:02.8	313.440	0.250	-0.370	0.090
2020/01/31 09:01:02.9	313.450	0.210	-0.320	0.060
2020/01/31 09:01:03.0	313.460	0.170	-0.270	0.040
2020/01/31 09:01:03.1	313.470	0.130	-0.210	0.030
2020/01/31 09:01:03.2	313.470	0.090	-0.160	0.010
2020/01/31 09:01:03.3	313.470	0.050	-0.100	0.000
2020/01/31 09:01:03.4	313.480	0.010	-0.040	0.000
2020/01/31 09:01:03.5	313.480	-0.030	0.010	-0.000
2020/01/31 09:01:03.6	313.470	-0.060	0.070	0.000
2020/01/31 09:01:03.7	313.460	-0.100	0.120	0.010
2020/01/31 09:01:03.8	313.450	-0.140	0.170	0.010
2020/01/31 09:01:03.9	313.430	-0.170	0.220	0.020
2020/01/31 09:01:04.0	313.410	-0.200	0.260	0.040
2020/01/31 09:01:04.1	313.400	-0.230	0.300	0.050
2020/01/31 09:01:04.2	313.380	-0.260	0.330	0.060
2020/01/31 09:01:04.3	313.350	-0.280	0.350	0.070
2020/01/31 09:01:04.4	313.340	-0.300	0.370	0.080
2020/01/31 09:01:04.5	313.320	-0.320	0.390	0.090
2020/01/31 09:01:04.6	313.300	-0.340	0.390	0.100
2020/01/31 09:01:04.7	313.280	-0.350	0.390	0.110
2020/01/31 09:01:04.8	313.250	-0.360	0.380	0.120
2020/01/31 09:01:04.9	313.230	-0.370	0.370	0.130
2020/01/31 09:01:05.0	313.210	-0.370	0.340	0.130
2020/01/31 09:01:05.1	313.180	-0.370	0.320	0.130
2020/01/31 09:01:05.2	313.160	-0.370	0.280	0.140
2020/01/31 09:01:05.3	313.140	-0.370	0.240	0.140
2020/01/31 09:01:05.4	313.120	-0.360	0.200	0.140
2020/01/31 09:01:05.5	313.100	-0.350	0.150	0.140
2020/01/31 09:01:05.6	313.080	-0.340	0.090	0.140
2020/01/31 09:01:05.7	313.050	-0.320	0.040	0.130
2020/01/31 09:01:05.8	313.030	-0.300	-0.020	0.130
2020/01/31 09:01:05.9	313.010	-0.280	-0.080	0.130
2020/01/31 09:01:06.0	312.990	-0.260	-0.150	0.120
2020/01/31 09:01:06.1	312.980	-0.240	-0.210	0.120
2020/01/31 09:01:06.2	312.960	-0.220	-0.280	0.110
2020/01/31 09:01:06.3	312.940	-0.190	-0.340	0.110
2020/01/31 09:01:06.4	312.930	-0.170	-0.400	0.110
2020/01/31 09:01:06.5	312.920	-0.140	-0.470	0.100
2020/01/31 09:01:06.6	312.910	-0.120	-0.520	0.100
2020/01/31 09:01:06.7	312.900	-0.090	-0.580	0.090
2020/01/31 09:01:06.8	312.890	-0.060	-0.640	0.090
2020/01/31 09:01:06.9	312.880	-0.040	-0.690	0.080
2020/01/31 09:01:07.0	312.870	-0.020	-0.730	0.080
2020/01/31 09:01:07.1	312.870	0.010	-0.780	0.080
2020/01/31 09:01:07.2	312.870	0.030	-0.820	0.070
2020/01/31 09:01:07.3	312.870	0.050	-0.850	0.060
2020/01/31 09:01:07.4	312.870	0.070	-0.880	0.060
2020/01/31 09:01:07.5	312.870	0.080	-0.910	0.050
2020/01/31 09:01:07.6	312.880	0.100	-0.930	0.040
2020/01/31 09:01:07.7	312.900	0.110	-0.950	0.030
2020/01/31 09:01:07.8	312.910	0.120	-0.970	0.020
2020/01/31 09:01:07.9	312.930	0.130	-0.970	0.010
2020/01/31 09:01:08.0	312.950	0.140	-0.980	0.000
2020/01/31 09:01:08.1	312.970	0.150	-0.980	-0.010
2020/01/31 09:01:08.2	313.000	0.150	-0.970	-0.020
2020/01/31 09:01:08.3	313.020	0.150	-0.960	-0.030
2020/01/31 09:01:08.4	313.060	0.150	-0.950	-0.040
2020/01/31 09:01:08.5	313.090	0.150	-0.930	-0.060
2020/01/31 09:01:08.6	313.120	0.150	-0.910	-0.070
2020/01/31 09:01:08.7	313.150	0.150	-0.880	-0.070
2020/01/31 09:01:08.8	313.180	0.140	-0.860	-0.080
2020/01/31 09:01:08.9	313.210	0.140	-0.820	-0.090
2020/01/31 09:01:09.0	313.240	0.130	-0.790	-0.090
2020/01/31 09:01:09.1	313.270	0.130	-0.750	-0.090
2020/01/31 09:01:09.2	313.300	0.120	-0.710	-0.100
2020/01/31 09:01:09.3	313.330	0.110	-0.660	-0.090
2020/01/31 09:01:09.4	313.360	0.100	-0.620	-0.090
2020/01/31 09:01:09.5	313.380	0.090	-0.570	-0.080
2020/01/31 09:01:09.6	313.410	0.090	-0.520	-0.070
2020/01/31 09:01:09.7	313.430	0.080	-0.470	-0.060
2020/01/31 09:01:09.8	313.450	0.070	-0.410	-0.050
2020/01/31 09:01:09.9	313.470	0.060	-0.360	-0.040
2020/01/31 09:01:10.0	313.480	0.050	-0.310	-0.020
2020/01/31 09:01:10.1	313.500	0.040	-0.260	-0.000
2020/01/31 09:01:10.2	313.510	0.030	-0.200	0.020
2020/01/31 09:01:10.3	313.520	0.020	-0.150	0.030
2020/01/31 09:01:10.4	313.520	0.010	-0.100	0.060
2020/01/31 09:01:10.5	313.530	-0.000	-0.050	0.080
2020/01/31 09:01:10.6	313.530	-0.010	-0.000	0.100
2020/01/31 09:01:10.7	313.540	-0.020	0.040	0.120
2020/01/31 09:01:10.8	313.540	-0.030	0.090	0.140
2020/01/31 09:01:10.9	313.540	-0.040	0.130	0.160
2020/01/31 09:01:11.0	313.540	-0.050	0.170	0.190
2020/01/31 09:01:11.1	313.540	-0.060	0.200	0.210
2020/01/31 09:01:11.2	313.530	-0.070	0.240	0.230
2020/01/31 09:01:11.3	313.530	-0.080	0.270	0.260
2020/01/31 09:01:11.4	313.500	-0.090	0.290	0.280
2020/01/31 09:01:11.5	313.490	-0.100	0.320	0.310
2020/01/31 09:01:11.6	313.480	-0.110	0.340	0.340
2020/01/31 09:01:11.7	313.470	-0.110	0.360	0.360
2020/01/31 09:01:11.8	313.450	-0.120	0.380	0.390
2020/01/31 09:01:11.9	313.430	-0.130	0.400	0.430
2020/01/31 09:01:12.0	313.410	-0.140	0.410	0.460
2020/01/31 09:01:12.1	313.380	-0.140	0.420	0.490
2020/01/31 09:01:12.2	313.360	-0.150	0.430	0.520
2020/01/31 09:01:12.3	313.330	-0.160	0.430	0.550
2020/01/31 09:01:12.4	313.280	-0.160	0.440	0.590
2020/01/31 09:01:12.5	313.250	-0.170	0.440	0.620
2020/01/31 09:01:12.6	313.220	-0.180	0.440	0.660
2020/01/31 09:01:12.7	313.180	-0.180	0.430	0.690
2020/01/31 09:01:12.8	313.150	-0.180	0.430	0.720
2020/01/31 09:01:12.9	313.110	-0.190	0.420	0.760
2020/01/31 09:01:13.0	313.080	-0.190	0.410	0.790
2020/01/31 09:01:13.1	313.040	-0.190	0.400	0.820
2020/01/31 09:01:13.2	313.000	-0.190	0.390	0.850
2020/01/31 09:01:13.3	312.960	-0.200	0.370	0.880
2020/01/31 09:01:13.4	312.920	-0.200	0.360	0.900
2020/01/31 09:01:13.5	312.880	-0.200	0.340	0.930
2020/01/31 09:01:13.6	312.840	-0.190	0.320	0.950
2020/01/31 09:01:13.7	312.800	-0.190	0.290	0.970
2020/01/31 09:01:13.8	312.760	-0.190	0.270	0.980
2020/01/31 09:01:13.9	312.720	-0.190	0.240	1.000
2020/01/31 09:01:14.0	312.690	-0.180	0.210	1.010
2020/01/31 09:01:14.1	312.650	-0.180	0.180	1.010
2020/01/31 09:01:14.2	312.620	-0.170	0.150	1.010
2020/01/31 09:01:14.3	312.580	-0.160	0.110	1.010
2020/01/31 09:01:14.4	312.550	-0.150	0.070	1.000
2020/01/31 09:01:14.5	312.520	-0.150	0.030	0.980
2020/01/31 09:01:14.6	312.490	-0.140	-0.010	0.970
2020/01/31 09:01:14.7	312.470	-0.130	-0.060	0.940
2020/01/31 09:01:14.8	312.440	-0.110	-0.100	0.920
2020/01/31 09:01:14.9	312.430	-0.100	-0.150	0.890
2020/01/31 09:01:15.0	312.410	-0.090	-0.200	0.850
2020/01/31 09:01:15.1	312.400	-0.070	-0.260	0.810
2020/01/31 09:01:15.2	312.390	-0.060	-0.310	0.770
2020/01/31 09:01:15.3	312.380	-0.040	-0.370	0.720
2020/01/31 09:01:15.4	312.390	-0.030	-0.420	0.680
2020/01/31 09:01:15.5	312.400	-0.010	-0.480	0.630
2020/01/31 09:01:15.6	312.400	0.010	-0.530	0.580
2020/01/31 09:01:15.7	312.420	0.020	-0.580	0.520
2020/01/31 09:01:15.8	312.430	0.040	-0.640	0.470
2020/01/31 09:01:15.9	312.450	0.060	-0.680	0.420
2020/01/31 09:01:16.0	312.470	0.070	-0.730	0.360
2020/01/31 09:01:16.1	312.490	0.090	-0.770	0.310
2020/01/31 09:01:16.2	312.520	0.110	-0.810	0.250
2020/01/31 09:01:16.3	312.550	0.120	-0.850	0.200
2020/01/31 09:01:16.4	312.580	0.140	-0.880	0.150
2020/01/31 09:01:16.5	312.610	0.150	-0.900	0.100
2020/01/31 09:01:16.6	312.650	0.160	-0.920	0.060
2020/01/31 09:01:16.7	312.680	0.180	-0.940	0.010
2020/01/31 09:01:16.8	312.720	0.190	-0.940	-0.030
2020/01/31 09:01:16.9	312.760	0.200	-0.950	-0.070
2020/01/31 09:01:17.0	312.800	0.200	-0.940	-0.100
2020/01/31 09:01:17.1	312.840	0.210	-0.930	-0.130
2020/01/31 09:01:17.2	312.870	0.220	-0.920	-0.160
2020/01/31 09:01:17.3	312.910	0.220	-0.900	-0.180
2020/01/31 09:01:17.4	312.970	0.220	-0.870	-0.200
2020/01/31 09:01:17.5	313.000	0.220	-0.840	-0.210
2020/01/31 09:01:17.6	313.040	0.220	-0.810	-0.210
2020/01/31 09:01:17.7	313.070	0.220	-0.770	-0.220
2020/01/31 09:01:17.8	313.090	0.210	-0.720	-0.210
2020/01/31 09:01:17.9	313.120	0.210	-0.670	-0.200
2020/01/31 09:01:18.0	313.140	0.200	-0.620	-0.190
2020/01/31 09:01:18.1	313.160	0.190	-0.570	-0.170
2020/01/31 09:01:18.2	313.180	0.180	-0.510	-0.150
2020/01/31 09:01:18.3	313.190	0.170	-0.460	-0.130
2020/01/31 09:01:18.4	313.220	0.160	-0.400	-0.100
2020/01/31 09:01:18.5	313.230	0.150	-0.340	-0.070
2020/01/31 09:01:18.6	313.230	0.140	-0.290	-0.040
2020/01/31 09:01:18.7	313.240	0.120	-0.230	-0.010
2020/01/31 09:01:18.8	313.240	0.110	-0.180	0.030
2020/01/31 09:01:18.9	313.240	0.100	-0.130	0.060
2020/01/31 09:01:19.0	313.240	0.090	-0.090	0.100
2020/01/31 09:01:19.1	313.240	0.070	-0.040	0.140
2020/01/31 09:01:19.2	313.230	0.060	-0.010	0.180
2020/01/31 09:01:19.3	313.230	0.050	0.030	0.210
2020/01/31 09:01:19.4	313.220	0.040	0.060	0.250
2020/01/31 09:01:19.5	313.210	0.030	0.080	0.290
2020/01/31 09:01:19.6	313.200	0.020	0.100	0.330
2020/01/31 09:01:19.7	313.190	0.010	0.110	0.370
2020/01/31 09:01:19.8	313.180	0.010	0.120	0.400
2020/01/31 09:01:19.9	313.160	0.000	0.120	0.440
2020/01/31 09:01:20.0	313.150	-0.000	0.120	0.480
2020/01/31 09:01:20.1	313.130	-0.000	0.110	0.510
2020/01/31 09:01:20.2	313.120	-0.000	0.100	0.540
2020/01/31 09:01:20.3	313.100	-0.000	0.080	0.580
2020/01/31 09:01:20.4	313.070	-0.000	0.060	0.610
2020/01/31 09:01:20.5	313.060	0.000	0.040	0.630
2020/01/31 09:01:20.6	313.040	0.010	0.010	0.660
2020/01/31 09:01:20.7	313.030	0.010	-0.030	0.680
2020/01/31 09:01:20.8	313.010	0.020	-0.060	0.700
2020/01/31 09:01:20.9	313.000	0.030	-0.100	0.710
2020/01/31 09:01:21.0	312.990	0.030	-0.150	0.720
2020/01/31 09:01:21.1	312.980	0.040	-0.190	0.730
2020/01/31 09:01:21.2	312.970	0.050	-0.240	0.730
2020/01/31 09:01:21.3	312.970	0.060	-0.280	0.730
2020/01/31 09:01:21.4	312.960	0.070	-0.330	0.730
2020/01/31 09:01:21.5	312.960	0.080	-0.380	0.720
2020/01/31 09:01:21.6	312.950	0.090	-0.420	0.700
2020/01/31 09:01:21.7	312.950	0.100	-0.470	0.690
2020/01/31 09:01:21.8	312.960	0.110	-0.510	0.670
2020/01/31 09:01:21.9	312.960	0.120	-0.560	0.650
2020/01/31 09:01:22.0	312.960	0.130	-0.600	0.620
2020/01/31 09:01:22.1	312.970	0.130	-0.630	0.590
2020/01/31 09:01:22.2	312.980	0.140	-0.670	0.570
2020/01/31 09:01:22.3	312.980	0.140	-0.690	0.540
2020/01/31 09:01:22.4	313.000	0.150	-0.720	0.510
2020/01/31 09:01:22.5	313.010	0.150	-0.740	0.470
2020/01/31 09:01:22.6	313.020	0.150	-0.760	0.440
2020/01/31 09:01:22.7	313.030	0.150	-0.770	0.410
2020/01/31 09:01:22.8	313.040	0.140	-0.770	0.370
2020/01/31 09:01:22.9	313.050	0.140	-0.780	0.340
2020/01/31 09:01:23.0	313.070	0.130	-0.770	0.300
2020/01/31 09:01:23.1	313.080	0.120	-0.760	0.270
2020/01/31 09:01:23.2	313.090	0.110	-0.750	0.230
2020/01/31 09:01:23.3	313.110	0.100	-0.730	0.200
2020/01/31 09:01:23.4	313.110	0.090	-0.700	0.170
2020/01/31 09:01:23.5	313.130	0.080	-0.670	0.140
2020/01/31 09:01:23.6	313.140	0.060	-0.640	0.110
2020/01/31 09:01:23.7	313.150	0.040	-0.600	0.080
2020/01/31 09:01:23.8	313.170	0.020	-0.560	0.050
2020/01/31 09:01:23.9	313.180	0.010	-0.510	0.030
2020/01/31 09:01:24.0	313.190	-0.010	-0.460	0.000
2020/01/31 09:01:24.1	313.200	-0.030	-0.410	-0.020
2020/01/31 09:01:24.2	313.210	-0.060	-0.360	-0.040
2020/01/31 09:01:24.3	313.220	-0.080	-0.300	-0.060
2020/01/31 09:01:24.4	313.240	-0.100	-0.240	-0.080
2020/01/31 09:01:24.5	313.250	-0.120	-0.180	-0.090
2020/01/31 09:01:24.6	313.250	-0.140	-0.130	-0.100
2020/01/31 09:01:24.7	313.260	-0.160	-0.070	-0.110
2020/01/31 09:01:24.8	313.270	-0.180	-0.010	-0.120
2020/01/31 09:01:24.9	313.280	-0.190	0.040	-0.120
2020/01/31 09:01:25.0	313.280	-0.210	0.090	-0.130
2020/01/31 09:01:25.1	313.290	-0.220	0.140	-0.130
2020/01/31 09:01:25.2	313.290	-0.240	0.190	-0.120
2020/01/31 09:01:25.3	313.300	-0.250	0.230	-0.120
2020/01/31 09:01:25.4	313.300	-0.260	0.270	-0.110
2020/01/31 09:01:25.5	313.310	-0.260	0.310	-0.100
2020/01/31 09:01:25.6	313.310	-0.270	0.340	-0.080
2020/01/31 09:01:25.7	313.310	-0.270	0.370	-0.070
2020/01/31 09:01:25.8	313.310	-0.270	0.390	-0.050
2020/01/31 09:01:25.9	313.320	-0.270	0.410	-0.030
2020/01/31 09:01:26.0	313.320	-0.270	0.430	-0.010
2020/01/31 09:01:26.1	313.320	-0.260	0.440	0.020
2020/01/31 09:01:26.2	313.320	-0.250	0.450	0.040
2020/01/31 09:01:26.3	313.320	-0.240	0.460	0.070
2020/01/31 09:01:26.4	313.330	-0.230	0.460	0.100
2020/01/31 09:01:26.5	313.320	-0.220	0.460	0.130
2020/01/31 09:01:26.6	313.320	-0.200	0.460	0.160
2020/01/31 09:01:26.7	313.320	-0.180	0.450	0.190
2020/01/31 09:01:26.8	313.310	-0.170	0.440	0.220
2020/01/31 09:01:26.9	313.310	-0.150	0.430	0.250
2020/01/31 09:01:27.0	313.300	-0.130	0.420	0.290
2020/01/31 09:01:27.1	313.290	-0.110	0.410	0.320
2020/01/31 09:01:27.2	313.280	-0.090	0.400	0.360
2020/01/31 09:01:27.3	313.270	-0.060	0.380	0.390
2020/01/31 09:01:27.4	313.250	-0.040	0.370	0.430
2020/01/31 09:01:27.5	313.230	-0.020	0.350	0.470
2020/01/31 09:01:27.6	313.210	-0.000	0.340	0.510
2020/01/31 09:01:27.7	313.190	0.020	0.320	0.550
2020/01/31 09:01:27.8	313.170	0.040	0.300	0.590
2020/01/31 09:01:27.9	313.150	0.060	0.290	0.620
2020/01/31 09:01:28.0	313.130	0.070	0.270	0.670
2020/01/31 09:01:28.1	313.100	0.090	0.260	0.710
2020/01/31 09:01:28.2	313.080	0.110	0.240	0.750
2020/01/31 09:01:28.3	313.050	0.120	0.230	0.790
2020/01/31 09:01:28.4	313.000	0.130	0.210	0.830
2020/01/31 09:01:28.5	312.970	0.140	0.190	0.870
2020/01/31 09:01:28.6	312.940	0.150	0.180	0.910
2020/01/31 09:01:28.7	312.910	0.150	0.160	0.940
2020/01/31 09:01:28.8	312.880	0.160	0.140	0.980
2020/01/31 09:01:28.9	312.850	0.160	0.130	1.010
2020/01/31 09:01:29.0	312.820	0.160	0.110	1.040
2020/01/31 09:01:29.1	312.790	0.160	0.080	1.070
2020/01/31 09:01:29.2	312.760	0.160	0.060	1.090
2020/01/31 09:01:29.3	312.730	0.160	0.040	1.110
2020/01/31 09:01:29.4	312.690	0.150	0.010	1.130
2020/01/31 09:01:29.5	312.660	0.150	-0.020	1.140
2020/01/31 09:01:29.6	312.640	0.140	-0.050	1.140
2020/01/31 09:01:29.7	312.620	0.130	-0.090	1.140
2020/01/31 09:01:29.8	312.600	0.120	-0.120	1.140
2020/01/31 09:01:29.9	312.580	0.110	-0.160	1.120
2020/01/31 09:01:30.0	312.560	0.100	-0.210	1.110
2020/01/31 09:01:30.1	312.550	0.090	-0.250	1.080
2020/01/31 09:01:30.2	312.540	0.080	-0.300	1.060
2020/01/31 09:01:30.3	312.540	0.070	-0.350	1.020
2020/01/31 09:01:30.4	312.530	0.050	-0.410	0.980
2020/01/31 09:01:30.5	312.530	0.040	-0.460	0.940
2020/01/31 09:01:30.6	312.540	0.030	-0.520	0.890
2020/01/31 09:01:30.7	312.540	0.020	-0.580	0.840
2020/01/31 09:01:30.8	312.550	0.000	-0.640	0.780
2020/01/31 09:01:30.9	312.570	-0.010	-0.700	0.730
2020/01/31 09:01:31.0	312.580	-0.020	-0.750	0.670
2020/01/31 09:01:31.1	312.600	-0.030	-0.810	0.610
2020/01/31 09:01:31.2	312.630	-0.040	-0.870	0.540
2020/01/31 09:01:31.3	312.650	-0.050	-0.930	0.480
2020/01/31 09:01:31.4	312.690	-0.060	-0.990	0.410
2020/01/31 09:01:31.5	312.720	-0.070	-1.040	0.340
2020/01/31 09:01:31.6	312.760	-0.080	-1.090	0.280
2020/01/31 09:01:31.7	312.790	-0.080	-1.140	0.210
2020/01/31 09:01:31.8	312.830	-0.090	-1.180	0.140
2020/01/31 09:01:31.9	312.860	-0.100	-1.220	0.080
2020/01/31 09:01:32.0	312.900	-0.100	-1.260	0.010
2020/01/31 09:01:32.1	312.950	-0.110	-1.300	-0.050
2020/01/31 09:01:32.2	312.990	-0.110	-1.330	-0.120
2020/01/31 09:01:32.3	313.030	-0.110	-1.350	-0.180
2020/01/31 09:01:32.4	313.070	-0.120	-1.370	-0.230
2020/01/31 09:01:32.5	313.120	-0.120	-1.390	-0.280
2020/01/31 09:01:32.6	313.160	-0.120	-1.400	-0.340
2020/01/31 09:01:32.7	313.210	-0.120	-1.410	-0.390
2020/01/31 09:01:32.8	313.250	-0.120	-1.410	-0.430
2020/01/31 09:01:32.9	313.290	-0.120	-1.410	-0.470
2020/01/31 09:01:33.0	313.340	-0.110	-1.400	-0.510
2020/01/31 09:01:33.1	313.380	-0.110	-1.390	-0.540
2020/01/31 09:01:33.2	313.420	-0.110	-1.370	-0.570
2020/01/31 09:01:33.3	313.460	-0.100	-1.350	-0.600
2020/01/31 09:01:33.4	313.510	-0.100	-1.330	-0.620
2020/01/31 09:01:33.5	313.550	-0.090	-1.300	-0.640
2020/01/31 09:01:33.6	313.590	-0.090	-1.270	-0.640
2020/01/31 09:01:33.7	313.620	-0.080	-1.230	-0.650
2020/01/31 09:01:33.8	313.650	-0.080	-1.180	-0.650
2020/01/31 09:01:33.9	313.680	-0.070	-1.130	-0.640
2020/01/31 09:01:34.0	313.710	-0.060	-1.080	-0.630
2020/01/31 09:01:34.1	313.730	-0.060	-1.030	-0.610
2020/01/31 09:01:34.2	313.760	-0.050	-0.970	-0.590
2020/01/31 09:01:34.3	313.780	-0.040	-0.900	-0.560
2020/01/31 09:01:34.4	313.800	-0.040	-0.830	-0.530
2020/01/31 09:01:34.5	313.820	-0.030	-0.760	-0.490
2020/01/31 09:01:34.6	313.830	-0.020	-0.690	-0.450
2020/01/31 09:01:34.7	313.840	-0.020	-0.620	-0.410
2020/01/31 09:01:34.8	313.840	-0.010	-0.550	-0.370
2020/01/31 09:01:34.9	313.850	-0.010	-0.470	-0.320
2020/01/31 09:01:35.0	313.850	-0.000	-0.400	-0.260
2020/01/31 09:01:35.1	313.850	-0.000	-0.320	-0.210
2020/01/31 09:01:35.2	313.850	0.000	-0.250	-0.150
2020/01/31 09:01:35.3	313.840	0.000	-0.170	-0.090
2020/01/31 09:01:35.4	313.830	0.010	-0.100	-0.030
2020/01/31 09:01:35.5	313.820	0.010	-0.030	0.030
2020/01/31 09:01:35.6	313.810	0.010	0.040	0.090
2020/01/31 09:01:35.7	313.800	0.010	0.110	0.150
2020/01/31 09:01:35.8	313.790	0.010	0.170	0.210
2020/01/31 09:01:35.9	313.780	0.010	0.240	0.260
2020/01/31 09:01:36.0	313.770	0.010	0.300	0.320
2020/01/31 09:01:36.1	313.750	0.010	0.350	0.380
2020/01/31 09:01:36.2	313.740	0.010	0.400	0.440
2020/01/31 09:01:36.3	313.730	0.010	0.450	0.490
2020/01/31 09:01:36.4	313.690	0.010	0.500	0.550
2020/01/31 09:01:36.5	313.670	0.010	0.540	0.600
2020/01/31 09:01:36.6	313.660	0.000	0.580	0.650
2020/01/31 09:01:36.7	313.640	0.000	0.620	0.700
2020/01/31 09:01:36.8	313.630	0.000	0.650	0.740
2020/01/31 09:01:36.9	313.610	-0.000	0.680	0.780
2020/01/31 09:01:37.0	313.590	-0.000	0.710	0.820
2020/01/31 09:01:37.1	313.580	-0.010	0.730	0.860
2020/01/31 09:01:37.2	313.560	-0.010	0.750	0.890
2020/01/31 09:01:37.3	313.540	-0.010	0.760	0.920
2020/01/31 09:01:37.4	313.510	-0.010	0.780	0.950
2020/01/31 09:01:37.5	313.490	-0.010	0.790	0.980
2020/01/31 09:01:37.6	313.480	-0.020	0.800	1.000
2020/01/31 09:01:37.7	313.460	-0.020	0.800	1.020
2020/01/31 09:01:37.8	313.440	-0.020	0.800	1.030
2020/01/31 09:01:37.9	313.430	-0.030	0.800	1.040
2020/01/31 09:01:38.0	313.410	-0.030	0.800	1.050
2020/01/31 09:01:38.1	313.400	-0.030	0.790	1.060
2020/01/31 09:01:38.2	313.380	-0.030	0.780	1.060
2020/01/31 09:01:38.3	313.370	-0.040	0.770	1.060
2020/01/31 09:01:38.4	313.350	-0.040	0.760	1.060
2020/01/31 09:01:38.5	313.340	-0.040	0.740	1.050
2020/01/31 09:01:38.6	313.330	-0.040	0.730	1.040
2020/01/31 09:01:38.7	313.320	-0.040	0.710	1.030
2020/01/31 09:01:38.8	313.310	-0.050	0.690	1.010
2020/01/31 09:01:38.9	313.300	-0.050	0.660	1.000
2020/01/31 09:01:39.0	313.290	-0.050	0.640	0.980
2020/01/31 09:01:39.1	313.290	-0.050	0.610	0.950
2020/01/31 09:01:39.2	313.280	-0.050	0.580	0.930
2020/01/31 09:01:39.3	313.280	-0.040	0.550	0.900
2020/01/31 09:01:39.4	313.280	-0.040	0.520	0.870
2020/01/31 09:01:39.5	313.280	-0.040	0.480	0.840
2020/01/31 09:01:39.6	313.280	-0.040	0.450	0.800
2020/01/31 09:01:39.7	313.280	-0.030	0.410	0.760
2020/01/31 09:01:39.8	313.280	-0.030	0.370	0.720
2020/01/31 09:01:39.9	313.280	-0.020	0.330	0.680
2020/01/31 09:01:40.0	313.290	-0.010	0.280	0.640
2020/01/31 09:01:40.1	313.290	-0.000	0.240	0.600
2020/01/31 09:01:40.2	313.300	0.000	0.190	0.550
2020/01/31 09:01:40.3	313.300	0.010	0.140	0.510
2020/01/31 09:01:40.4	313.290	0.020	0.090	0.460
2020/01/31 09:01:40.5	313.300	0.030	0.040	0.420
2020/01/31 09:01:40.6	313.310	0.050	-0.010	0.380
2020/01/31 09:01:40.7	313.310	0.060	-0.060	0.330
2020/01/31 09:01:40.8	313.320	0.070	-0.110	0.290
2020/01/31 09:01:40.9	313.330	0.080	-0.160	0.250
2020/01/31 09:01:41.0	313.340	0.100	-0.210	0.210
2020/01/31 09:01:41.1	313.350	0.110	-0.260	0.170
2020/01/31 09:01:41.2	313.360	0.130	-0.310	0.130
2020/01/31 09:01:41.3	313.370	0.140	-0.360	0.100
2020/01/31 09:01:41.4	313.370	0.150	-0.410	0.060
2020/01/31 09:01:41.5	313.380	0.170	-0.460	0.030
2020/01/31 09:01:41.6	313.390	0.180	-0.510	-0.000
2020/01/31 09:01:41.7	313.400	0.200	-0.560	-0.030
2020/01/31 09:01:41.8	313.420	0.210	-0.610	-0.060
2020/01/31 09:01:41.9	313.430	0.220	-0.650	-0.080
2020/01/31 09:01:42.0	313.440	0.240	-0.700	-0.100
2020/01/31 09:01:42.1	313.450	0.250	-0.740	-0.120
2020/01/31 09:01:42.2	313.460	0.260	-0.780	-0.140
2020/01/31 09:01:42.3	313.470	0.280	-0.820	-0.150
2020/01/31 09:01:42.4	313.480	0.290	-0.860	-0.160
2020/01/31 09:01:42.5	313.490	0.300	-0.900	-0.170
2020/01/31 09:01:42.6	313.490	0.310	-0.930	-0.180
2020/01/31 09:01:42.7	313.500	0.320	-0.960	-0.180
2020/01/31 09:01:42.8	313.510	0.320	-0.990	-0.180
2020/01/31 09:01:42.9	313.520	0.330	-1.010	-0.180
2020/01/31 09:01:43.0	313.520	0.340	-1.040	-0.180
2020/01/31 09:01:43.1	313.530	0.340	-1.050	-0.180
2020/01/31 09:01:43.2	313.540	0.340	-1.070	-0.170
2020/01/31 09:01:43.3	313.540	0.340	-1.080	-0.160
2020/01/31 09:01:43.4	313.580	0.340	-1.090	-0.150
2020/01/31 09:01:43.5	313.590	0.330	-1.100	-0.140
2020/01/31 09:01:43.6	313.600	0.320	-1.100	-0.130
2020/01/31 09:01:43.7	313.610	0.310	-1.100	-0.120
2020/01/31 09:01:43.8	313.620	0.300	-1.100	-0.100
2020/01/31 09:01:43.9	313.630	0.290	-1.100	-0.090
2020/01/31 09:01:44.0	313.640	0.270	-1.090	-0.080
2020/01/31 09:01:44.1	313.650	0.250	-1.080	-0.060
2020/01/31 09:01:44.2	313.660	0.230	-1.060	-0.040
2020/01/31 09:01:44.3	313.680	0.210	-1.050	-0.030
2020/01/31 09:01:44.4	313.710	0.190	-1.030	-0.010
2020/01/31 09:01:44.5	313.720	0.160	-1.010	0.010
2020/01/31 09:01:44.6	313.740	0.130	-0.980	0.030
2020/01/31 09:01:44.7	313.750	0.100	-0.960	0.040
2020/01/31 09:01:44.8	313.770	0.060	-0.930	0.060
2020/01/31 09:01:44.9	313.780	0.030	-0.900	0.070
2020/01/31 09:01:45.0	313.800	-0.010	-0.870	0.090
2020/01/31 09:01:45.1	313.820	-0.040	-0.840	0.100
2020/01/31 09:01:45.2	313.830	-0.080	-0.800	0.110
2020/01/31 09:01:45.3	313.850	-0.120	-0.770	0.130
2020/01/31 09:01:45.4	313.860	-0.160	-0.730	0.130
2020/01/31 09:01:45.5	313.880	-0.200	-0.690	0.150
2020/01/31 09:01:45.6	313.890	-0.250	-0.650	0.160
2020/01/31 09:01:45.7	313.900	-0.290	-0.610	0.170
2020/01/31 09:01:45.8	313.910	-0.330	-0.570	0.180
2020/01/31 09:01:45.9	313.920	-0.370	-0.530	0.180
2020/01/31 09:01:46.0	313.920	-0.410	-0.490	0.190
2020/01/31 09:01:46.1	313.930	-0.450	-0.450	0.200
2020/01/31 09:01:46.2	313.930	-0.490	-0.410	0.210
2020/01/31 09:01:46.3	313.940	-0.520	-0.380	0.220
2020/01/31 09:01:46.4	313.930	-0.560	-0.340	0.230
2020/01/31 09:01:46.5	313.930	-0.590	-0.300	0.240
2020/01/31 09:01:46.6	313.930	-0.620	-0.270	0.240
2020/01/31 09:01:46.7	313.930	-0.650	-0.240	0.240
2020/01/31 09:01:46.8	313.930	-0.680	-0.210	0.250
2020/01/31 09:01:46.9	313.940	-0.700	-0.180	0.250
2020/01/31 09:01:47.0	313.940	-0.730	-0.150	0.250
2020/01/31 09:01:47.1	313.950	-0.740	-0.130	0.240
2020/01/31 09:01:47.2	313.950	-0.760	-0.110	0.240
2020/01/31 09:01:47.3	313.960	-0.770	-0.090	0.230
2020/01/31 09:01:47.4	313.970	-0.780	-0.080	0.220
2020/01/31 09:01:47.5	313.980	-0.790	-0.070	0.210
2020/01/31 09:01:47.6	313.990	-0.800	-0.060	0.190
2020/01/31 09:01:47.7	314.010	-0.800	-0.050	0.180
2020/01/31 09:01:47.8	314.030	-0.790	-0.050	0.160
2020/01/31 09:01:47.9	314.040	-0.790	-0.050	0.140
2020/01/31 09:01:48.0	314.060	-0.780	-0.050	0.130
2020/01/31 09:01:48.1	314.080	-0.770	-0.050	0.110
2020/01/31 09:01:48.2	314.100	-0.750	-0.050	0.090
2020/01/31 09:01:48.3	314.120	-0.730	-0.050	0.070
2020/01/31 09:01:48.4	314.120	-0.710	-0.060	0.050
2020/01/31 09:01:48.5	314.140	-0.690	-0.070	0.040
2020/01/31 09:01:48.6	314.160	-0.670	-0.070	0.020
2020/01/31 09:01:48.7	314.180	-0.640	-0.080	0.010
2020/01/31 09:01:48.8	314.200	-0.610	-0.080	-0.010
2020/01/31 09:01:48.9	314.210	-0.580	-0.080	-0.020
2020/01/31 09:01:49.0	314.230	-0.540	-0.080	-0.020
2020/01/31 09:01:49.1	314.240	-0.510	-0.080	-0.030
2020/01/31 09:01:49.2	314.260	-0.470	-0.080	-0.030
2020/01/31 09:01:49.3	314.270	-0.430	-0.080	-0.040
2020/01/31 09:01:49.4	314.290	-0.390	-0.070	-0.040
2020/01/31 09:01:49.5	314.300	-0.350	-0.060	-0.030
2020/01/31 09:01:49.6	314.310	-0.310	-0.050	-0.030
2020/01/31 09:01:49.7	314.320	-0.260	-0.040	-0.020
2020/01/31 09:01:49.8	314.340	-0.220	-0.020	-0.010
2020/01/31 09:01:49.9	314.350	-0.180	-0.000	0.010
2020/01/31 09:01:50.0	314.360	-0.130	0.020	0.030
2020/01/31 09:01:50.1	314.360	-0.090	0.040	0.050
2020/01/31 09:01:50.2	314.370	-0.050	0.070	0.070
2020/01/31 09:01:50.3	314.380	-0.010	0.090	0.100
2020/01/31 09:01:50.4	314.400	0.040	0.120	0.130
2020/01/31 09:01:50.5	314.410	0.080	0.150	0.160
2020/01/31 09:01:50.6	314.410	0.120	0.180	0.190
2020/01/31 09:01:50.7	314.410	0.160	0.210	0.220
2020/01/31 09:01:50.8	314.420	0.200	0.240	0.260
2020/01/31 09:01:50.9	314.420	0.230	0.270	0.290
2020/01/31 09:01:51.0	314.420	0.270	0.300	0.330
2020/01/31 09:01:51.1	314.420	0.300	0.320	0.370
2020/01/31 09:01:51.2	314.420	0.340	0.350	0.400
2020/01/31 09:01:51.3	314.420	0.370	0.370	0.440
2020/01/31 09:01:51.4	314.410	0.400	0.390	0.480
2020/01/31 09:01:51.5	314.410	0.430	0.410	0.520
2020/01/31 09:01:51.6	314.420	0.460	0.430	0.550
2020/01/31 09:01:51.7	314.420	0.490	0.440	0.580
2020/01/31 09:01:51.8	314.420	0.510	0.450	0.610
2020/01/31 09:01:51.9	314.420	0.540	0.450	0.640
2020/01/31 09:01:52.0	314.420	0.560	0.450	0.670
2020/01/31 09:01:52.1	314.420	0.590	0.450	0.700
2020/01/31 09:01:52.2	314.430	0.610	0.440	0.720
2020/01/31 09:01:52.3	314.430	0.630	0.440	0.740
2020/01/31 09:01:52.4	314.420	0.650	0.420	0.760
2020/01/31 09:01:52.5	314.420	0.670	0.400	0.770
2020/01/31 09:01:52.6	314.420	0.680	0.380	0.780
2020/01/31 09:01:52.7	314.430	0.700	0.360	0.790
2020/01/31 09:01:52.8	314.430	0.720	0.330	0.800
2020/01/31 09:01:52.9	314.440	0.730	0.300	0.810
2020/01/31 09:01:53.0	314.440	0.740	0.270	0.810
2020/01/31 09:01:53.1	314.450	0.760	0.230	0.810
2020/01/31 09:01:53.2	314.450	0.770	0.200	0.800
2020/01/31 09:01:53.3	314.450	0.780	0.160	0.800
2020/01/31 09:01:53.4	314.460	0.780	0.110	0.790
2020/01/31 09:01:53.5	314.460	0.790	0.070	0.780
2020/01/31 09:01:53.6	314.470	0.800	0.030	0.770
2020/01/31 09:01:53.7	314.470	0.800	-0.020	0.750
2020/01/31 09:01:53.8	314.480	0.800	-0.070	0.740
2020/01/31 09:01:53.9	314.480	0.800	-0.110	0.720
2020/01/31 09:01:54.0	314.490	0.800	-0.160	0.700
2020/01/31 09:01:54.1	314.500	0.800	-0.210	0.680
2020/01/31 09:01:54.2	314.510	0.790	-0.260	0.650
2020/01/31 09:01:54.3	314.510	0.790	-0.300	0.630
2020/01/31 09:01:54.4	314.520	0.780	-0.350	0.610
2020/01/31 09:01:54.5	314.530	0.760	-0.390	0.580
2020/01/31 09:01:54.6	314.540	0.750	-0.440	0.560
2020/01/31 09:01:54.7	314.550	0.730	-0.480	0.530
2020/01/31 09:01:54.8	314.550	0.710	-0.510	0.500
2020/01/31 09:01:54.9	314.560	0.690	-0.550	0.470
2020/01/31 09:01:55.0	314.560	0.660	-0.580	0.440
2020/01/31 09:01:55.1	314.560	0.640	-0.610	0.410
2020/01/31 09:01:55.2	314.570	0.610	-0.640	0.380
2020/01/31 09:01:55.3	314.570	0.570	-0.660	0.350
2020/01/31 09:01:55.4	314.560	0.540	-0.680	0.320
2020/01/31 09:01:55.5	314.560	0.500	-0.690	0.280
2020/01/31 09:01:55.6	314.550	0.450	-0.710	0.250
2020/01/31 09:01:55.7	314.550	0.410	-0.720	0.220
2020/01/31 09:01:55.8	314.540	0.360	-0.720	0.180
2020/01/31 09:01:55.9	314.530	0.320	-0.720	0.150
2020/01/31 09:01:56.0	314.520	0.270	-0.720	0.110
2020/01/31 09:01:56.1	314.520	0.210	-0.720	0.070
2020/01/31 09:01:56.2	314.500	0.160	-0.710	0.040
2020/01/31 09:01:56.3	314.490	0.110	-0.700	-0.000
2020/01/31 09:01:56.4	314.480	0.050	-0.700	-0.040
2020/01/31 09:01:56.5	314.470	-0.000	-0.690	-0.080
2020/01/31 09:01:56.6	314.460	-0.060	-0.670	-0.120
2020/01/31 09:01:56.7	314.450	-0.120	-0.660	-0.160
2020/01/31 09:01:56.8	314.440	-0.170	-0.650	-0.200
2020/01/31 09:01:56.9	314.430	-0.230	-0.630	-0.240
2020/01/31 09:01:57.0	314.430	-0.280	-0.620	-0.270
2020/01/31 09:01:57.1	314.420	-0.340	-0.610	-0.310
2020/01/31 09:01:57.2	314.420	-0.390	-0.600	-0.350
2020/01/31 09:01:57.3	314.420	-0.440	-0.590	-0.390
2020/01/31 09:01:57.4	314.420	-0.490	-0.580	-0.440
2020/01/31 09:01:57.5	314.420	-0.530	-0.570	-0.480
2020/01/31 09:01:57.6	314.430	-0.580	-0.560	-0.520
2020/01/31 09:01:57.7	314.440	-0.620	-0.560	-0.550
2020/01/31 09:01:57.8	314.450	-0.660	-0.550	-0.590
2020/01/31 09:01:57.9	314.460	-0.690	-0.550	-0.630
2020/01/31 09:01:58.0	314.470	-0.730	-0.550	-0.670
2020/01/31 09:01:58.1	314.490	-0.760	-0.550	-0.710
2020/01/31 09:01:58.2	314.500	-0.780	-0.560	-0.740
2020/01/31 09:01:58.3	314.520	-0.810	-0.560	-0.780
2020/01/31 09:01:58.4	314.560	-0.830	-0.570	-0.810
2020/01/31 09:01:58.5	314.580	-0.840	-0.580	-0.840
2020/01/31 09:01:58.6	314.600	-0.860	-0.590	-0.870
2020/01/31 09:01:58.7	314.620	-0.870	-0.600	-0.900
2020/01/31 09:01:58.8	314.650	-0.870	-0.600	-0.920
2020/01/31 09:01:58.9	314.670	-0.880	-0.610	-0.940
2020/01/31 09:01:59.0	314.690	-0.880	-0.620	-0.960
2020/01/31 09:01:59.1	314.720	-0.880	-0.630	-0.970
2020/01/31 09:01:59.2	314.740	-0.870	-0.640	-0.980
2020/01/31 09:01:59.3	314.770	-0.860	-0.650	-0.990
2020/01/31 09:01:59.4	314.800	-0.850	-0.660	-0.990
2020/01/31 09:01:59.5	314.820	-0.840	-0.670	-0.990
2020/01/31 09:01:59.6	314.840	-0.830	-0.670	-0.990
2020/01/31 09:01:59.7	314.860	-0.810	-0.680	-0.980
2020/01/31 09:01:59.8	314.880	-0.790	-0.680	-0.970
2020/01/31 09:01:59.9	314.900	-0.770	-0.680	-0.950
2020/01/31 09:02:00.0	314.920	-0.740	-0.680	-0.930
2020/01/31 09:02:00.1	314.940	-0.720	-0.670	-0.910
2020/01/31 09:02:00.2	314.950	-0.690	-0.670	-0.880
2020/01/31 09:02:00.3	314.960	-0.670	-0.650	-0.840
2020/01/31 09:02:00.4	314.990	-0.640	-0.640	-0.810
2020/01/31 09:02:00.5	315.000	-0.610	-0.620	-0.760
2020/01/31 09:02:00.6	315.010	-0.580	-0.600	-0.720
2020/01/31 09:02:00.7	315.010	-0.560	-0.570	-0.670
2020/01/31 09:02:00.8	315.010	-0.530	-0.540	-0.620
2020/01/31 09:02:00.9	315.010	-0.500	-0.510	-0.560
2020/01/31 09:02:01.0	315.010	-0.470	-0.470	-0.510
2020/01/31 09:02:01.1	315.000	-0.450	-0.430	-0.450
2020/01/31 09:02:01.2	315.000	-0.420	-0.390	-0.380
2020/01/31 09:02:01.3	314.990	-0.390	-0.340	-0.320
2020/01/31 09:02:01.4	314.980	-0.370	-0.290	-0.250
2020/01/31 09:02:01.5	314.970	-0.340	-0.240	-0.180
2020/01/31 09:02:01.6	314.960	-0.320	-0.190	-0.110
2020/01/31 09:02:01.7	314.940	-0.300	-0.140	-0.050
2020/01/31 09:02:01.8	314.930	-0.280	-0.090	0.020
2020/01/31 09:02:01.9	314.920	-0.260	-0.040	0.090
2020/01/31 09:02:02.0	314.910	-0.240	0.020	0.150
2020/01/31 09:02:02.1	314.900	-0.220	0.070	0.210
2020/01/31 09:02:02.2	314.890	-0.200	0.110	0.270
2020/01/31 09:02:02.3	314.890	-0.180	0.160	0.330
2020/01/31 09:02:02.4	314.880	-0.170	0.210	0.380
2020/01/31 09:02:02.5	314.880	-0.150	0.250	0.430
2020/01/31 09:02:02.6	314.880	-0.140	0.290	0.480
2020/01/31 09:02:02.7	314.880	-0.120	0.320	0.520
2020/01/31 09:02:02.8	314.890	-0.100	0.350	0.550
2020/01/31 09:02:02.9	314.890	-0.090	0.380	0.580
2020/01/31 09:02:03.0	314.900	-0.070	0.400	0.610
2020/01/31 09:02:03.1	314.910	-0.060	0.420	0.630
2020/01/31 09:02:03.2	314.920	-0.040	0.430	0.650
2020/01/31 09:02:03.3	314.930	-0.030	0.440	0.670
2020/01/31 09:02:03.4	314.920	-0.010	0.450	0.680
2020/01/31 09:02:03.5	314.930	0.010	0.460	0.700
2020/01/31 09:02:03.6	314.940	0.030	0.460	0.710
2020/01/31 09:02:03.7	314.960	0.050	0.460	0.720
2020/01/31 09:02:03.8	314.970	0.070	0.460	0.740
2020/01/31 09:02:03.9	314.980	0.090	0.450	0.750
2020/01/31 09:02:04.0	314.990	0.110	0.440	0.770
2020/01/31 09:02:04.1	315.000	0.130	0.430	0.780
2020/01/31 09:02:04.2	315.010	0.160	0.420	0.800
2020/01/31 09:02:04.3	315.030	0.180	0.410	0.810
2020/01/31 09:02:04.4	315.020	0.210	0.390	0.820
2020/01/31 09:02:04.5	315.020	0.230	0.370	0.840
2020/01/31 09:02:04.6	315.030	0.260	0.350	0.850
2020/01/31 09:02:04.7	315.040	0.290	0.330	0.870
2020/01/31 09:02:04.8	315.050	0.310	0.310	0.880
2020/01/31 09:02:04.9	315.060	0.340	0.290	0.890
2020/01/31 09:02:05.0	315.070	0.370	0.260	0.900
2020/01/31 09:02:05.1	315.070	0.400	0.230	0.910
2020/01/31 09:02:05.2	315.080	0.430	0.210	0.920
2020/01/31 09:02:05.3	315.090	0.450	0.180	0.920
2020/01/31 09:02:05.4	315.080	0.480	0.150	0.920
2020/01/31 09:02:05.5	315.090	0.510	0.120	0.930
2020/01/31 09:02:05.6	315.090	0.540	0.090	0.930
2020/01/31 09:02:05.7	315.100	0.560	0.060	0.920
2020/01/31 09:02:05.8	315.100	0.590	0.030	0.920
2020/01/31 09:02:05.9	315.100	0.610	-0.000	0.920
2020/01/31 09:02:06.0	315.100	0.640	-0.030	0.910
2020/01/31 09:02:06.1	315.100	0.660	-0.060	0.910
2020/01/31 09:02:06.2	315.100	0.680	-0.090	0.900
2020/01/31 09:02:06.3	315.100	0.700	-0.120	0.900
2020/01/31 09:02:06.4	315.090	0.720	-0.140	0.900
2020/01/31 09:02:06.5	315.090	0.730	-0.170	0.890
2020/01/31 09:02:06.6	315.080	0.750	-0.190	0.890
2020/01/31 09:02:06.7	315.070	0.760	-0.210	0.880
2020/01/31 09:02:06.8	315.060	0.770	-0.230	0.880
2020/01/31 09:02:06.9	315.050	0.780	-0.250	0.870
2020/01/31 09:02:07.0	315.040	0.780	-0.260	0.870
2020/01/31 09:02:07.1	315.030	0.790	-0.270	0.860
2020/01/31 09:02:07.2	315.020	0.790	-0.280	0.860
2020/01/31 09:02:07.3	315.000	0.790	-0.290	0.850
2020/01/31 09:02:07.4	314.970	0.780	-0.300	0.840
2020/01/31 09:02:07.5	314.960	0.780	-0.310	0.830
2020/01/31 09:02:07.6	314.940	0.770	-0.320	0.810
2020/01/31 09:02:07.7	314.930	0.760	-0.320	0.800
2020/01/31 09:02:07.8	314.910	0.750	-0.330	0.780
2020/01/31 09:02:07.9	314.900	0.730	-0.330	0.770
2020/01/31 09:02:08.0	314.880	0.720	-0.340	0.750
2020/01/31 09:02:08.1	314.870	0.700	-0.340	0.730
2020/01/31 09:02:08.2	314.850	0.680	-0.350	0.700
2020/01/31 09:02:08.3	314.840	0.660	-0.350	0.680
2020/01/31 09:02:08.4	314.830	0.640	-0.360	0.650
2020/01/31 09:02:08.5	314.820	0.610	-0.370	0.630
2020/01/31 09:02:08.6	314.800	0.590	-0.380	0.600
2020/01/31 09:02:08.7	314.790	0.560	-0.390	0.560
2020/01/31 09:02:08.8	314.780	0.530	-0.400	0.530
2020/01/31 09:02:08.9	314.770	0.500	-0.410	0.500
2020/01/31 09:02:09.0	314.760	0.470	-0.420	0.460
2020/01/31 09:02:09.1	314.750	0.440	-0.440	0.420
2020/01/31 09:02:09.2	314.750	0.410	-0.450	0.380
2020/01/31 09:02:09.3	314.740	0.380	-0.470	0.340
2020/01/31 09:02:09.4	314.750	0.350	-0.490	0.290
2020/01/31 09:02:09.5	314.750	0.310	-0.510	0.250
2020/01/31 09:02:09.6	314.750	0.280	-0.530	0.200
2020/01/31 09:02:09.7	314.750	0.240	-0.550	0.150
2020/01/31 09:02:09.8	314.750	0.210	-0.580	0.100
2020/01/31 09:02:09.9	314.760	0.170	-0.600	0.040
2020/01/31 09:02:10.0	314.770	0.130	-0.630	-0.010
2020/01/31 09:02:10.1	314.780	0.090	-0.650	-0.070
2020/01/31 09:02:10.2	314.790	0.060	-0.680	-0.130
2020/01/31 09:02:10.3	314.800	0.020	-0.700	-0.180
2020/01/31 09:02:10.4	314.820	-0.020	-0.730	-0.240
2020/01/31 09:02:10.5	314.840	-0.050	-0.760	-0.300
2020/01/31 09:02:10.6	314.860	-0.090	-0.780	-0.360
2020/01/31 09:02:10.7	314.880	-0.130	-0.800	-0.420
2020/01/31 09:02:10.8	314.910	-0.160	-0.830	-0.470
2020/01/31 09:02:10.9	314.940	-0.200	-0.850	-0.530
2020/01/31 09:02:11.0	314.960	-0.230	-0.870	-0.590
2020/01/31 09:02:11.1	314.990	-0.270	-0.880	-0.650
2020/01/31 09:02:11.2	315.030	-0.300	-0.900	-0.700
2020/01/31 09:02:11.3	315.060	-0.330	-0.910	-0.750
2020/01/31 09:02:11.4	315.110	-0.370	-0.920	-0.800
2020/01/31 09:02:11.5	315.140	-0.400	-0.930	-0.850
2020/01/31 09:02:11.6	315.170	-0.430	-0.940	-0.900
2020/01/31 09:02:11.7	315.200	-0.450	-0.940	-0.940
2020/01/31 09:02:11.8	315.230	-0.480	-0.940	-0.970
2020/01/31 09:02:11.9	315.260	-0.510	-0.930	-1.010
2020/01/31 09:02:12.0	315.290	-0.530	-0.920	-1.030
2020/01/31 09:02:12.1	315.310	-0.550	-0.910	-1.060
2020/01/31 09:02:12.2	315.340	-0.570	-0.890	-1.080
2020/01/31 09:02:12.3	315.360	-0.590	-0.870	-1.090
2020/01/31 09:02:12.4	315.390	-0.610	-0.840	-1.100
2020/01/31 09:02:12.5	315.400	-0.630	-0.810	-1.100
2020/01/31 09:02:12.6	315.420	-0.640	-0.780	-1.100
2020/01/31 09:02:12.7	315.430	-0.650	-0.740	-1.090
2020/01/31 09:02:12.8	315.440	-0.660	-0.700	-1.080
2020/01/31 09:02:12.9	315.450	-0.670	-0.650	-1.060
2020/01/31 09:02:13.0	315.460	-0.680	-0.600	-1.040
2020/01/31 09:02:13.1	315.460	-0.680	-0.550	-1.020
2020/01/31 09:02:13.2	315.470	-0.680	-0.490	-0.990
2020/01/31 09:02:13.3	315.470	-0.680	-0.440	-0.960
2020/01/31 09:02:13.4	315.490	-0.680	-0.370	-0.920
2020/01/31 09:02:13.5	315.490	-0.680	-0.310	-0.890
2020/01/31 09:02:13.6	315.490	-0.670	-0.250	-0.850
2020/01/31 09:02:13.7	315.490	-0.660	-0.190	-0.800
2020/01/31 09:02:13.8	315.490	-0.650	-0.120	-0.760
2020/01/31 09:02:13.9	315.490	-0.640	-0.060	-0.710
2020/01/31 09:02:14.0	315.500	-0.630	-0.000	-0.660
2020/01/31 09:02:14.1	315.500	-0.610	0.060	-0.610
2020/01/31 09:02:14.2	315.500	-0.600	0.110	-0.560
2020/01/31 09:02:14.3	315.500	-0.580	0.170	-0.500
2020/01/31 09:02:14.4	315.510	-0.560	0.220	-0.440
2020/01/31 09:02:14.5	315.510	-0.540	0.270	-0.390
2020/01/31 09:02:14.6	315.510	-0.520	0.310	-0.330
2020/01/31 09:02:14.7	315.510	-0.500	0.350	-0.280
2020/01/31 09:02:14.8	315.510	-0.480	0.390	-0.220
2020/01/31 09:02:14.9	315.510	-0.450	0.420	-0.170
2020/01/31 09:02:15.0	315.510	-0.430	0.450	-0.110
2020/01/31 09:02:15.1	315.500	-0.410	0.480	-0.060
2020/01/31 09:02:15.2	315.500	-0.390	0.500	-0.010
2020/01/31 09:02:15.3	315.500	-0.360	0.510	0.040
2020/01/31 09:02:15.4	315.490	-0.340	0.530	0.090
2020/01/31 09:02:15.5	315.480	-0.320	0.540	0.140
2020/01/31 09:02:15.6	315.480	-0.300	0.540	0.190
2020/01/31 09:02:15.7	315.480	-0.280	0.540	0.230
2020/01/31 09:02:15.8	315.470	-0.270	0.540	0.270
2020/01/31 09:02:15.9	315.470	-0.250	0.530	0.310
2020/01/31 09:02:16.0	315.460	-0.230	0.530	0.350
2020/01/31 09:02:16.1	315.460	-0.220	0.510	0.380
2020/01/31 09:02:16.2	315.450	-0.200	0.500	0.420
2020/01/31 09:02:16.3	315.450	-0.190	0.480	0.450
2020/01/31 09:02:16.4	315.430	-0.180	0.460	0.480
2020/01/31 09:02:16.5	315.420	-0.170	0.440	0.500
2020/01/31 09:02:16.6	315.420	-0.160	0.420	0.520
2020/01/31 09:02:16.7	315.410	-0.150	0.390	0.540
2020/01/31 09:02:16.8	315.410	-0.140	0.360	0.560
2020/01/31 09:02:16.9	315.400	-0.130	0.340	0.570
2020/01/31 09:02:17.0	315.400	-0.120	0.310	0.580
2020/01/31 09:02:17.1	315.390	-0.110	0.280	0.590
2020/01/31 09:02:17.2	315.390	-0.110	0.250	0.600
2020/01/31 09:02:17.3	315.390	-0.100	0.220	0.600
2020/01/31 09:02:17.4	315.370	-0.090	0.190	0.600
2020/01/31 09:02:17.5	315.370	-0.080	0.160	0.600
2020/01/31 09:02:17.6	315.370	-0.070	0.120	0.600
2020/01/31 09:02:17.7	315.360	-0.060	0.090	0.600
2020/01/31 09:02:17.8	315.360	-0.040	0.070	0.600
2020/01/31 09:02:17.9	315.350	-0.030	0.040	0.600
2020/01/31 09:02:18.0	315.350	-0.010	0.010	0.610
2020/01/31 09:02:18.1	315.340	0.000	-0.010	0.610
2020/01/31 09:02:18.2	315.340	0.020	-0.040	0.610
2020/01/31 09:02:18.3	315.330	0.040	-0.060	0.620
2020/01/31 09:02:18.4	315.320	0.060	-0.090	0.630
2020/01/31 09:02:18.5	315.310	0.080	-0.110	0.640
2020/01/31 09:02:18.6	315.300	0.110	-0.120	0.640
2020/01/31 09:02:18.7	315.290	0.140	-0.140	0.660
2020/01/31 09:02:18.8	315.280	0.160	-0.160	0.670
2020/01/31 09:02:18.9	315.280	0.190	-0.170	0.680
2020/01/31 09:02:19.0	315.270	0.220	-0.190	0.700
2020/01/31 09:02:19.1	315.250	0.250	-0.210	0.710
2020/01/31 09:02:19.2	315.250	0.290	-0.220	0.730
2020/01/31 09:02:19.3	315.240	0.320	-0.240	0.740
2020/01/31 09:02:19.4	315.220	0.350	-0.260	0.760
2020/01/31 09:02:19.5	315.210	0.390	-0.270	0.770
2020/01/31 09:02:19.6	315.210	0.420	-0.290	0.790
2020/01/31 09:02:19.7	315.200	0.460	-0.310	0.800
2020/01/31 09:02:19.8	315.190	0.490	-0.340	0.810
2020/01/31 09:02:19.9	315.190	0.520	-0.360	0.830
2020/01/31 09:02:20.0	315.180	0.560	-0.390	0.840
2020/01/31 09:02:20.1	315.180	0.590	-0.410	0.850
2020/01/31 09:02:20.2	315.170	0.620	-0.440	0.850
2020/01/31 09:02:20.3	315.170	0.640	-0.470	0.860
2020/01/31 09:02:20.4	315.150	0.670	-0.500	0.860
2020/01/31 09:02:20.5	315.150	0.690	-0.530	0.860
2020/01/31 09:02:20.6	315.150	0.710	-0.560	0.860
2020/01/31 09:02:20.7	315.150	0.730	-0.590	0.860
2020/01/31 09:02:20.8	315.150	0.750	-0.620	0.850
2020/01/31 09:02:20.9	315.150	0.760	-0.650	0.850
2020/01/31 09:02:21.0	315.160	0.770	-0.680	0.840
2020/01/31 09:02:21.1	315.160	0.780	-0.710	0.830
2020/01/31 09:02:21.2	315.160	0.780	-0.740	0.810
2020/01/31 09:02:21.3	315.170	0.780	-0.770	0.790
2020/01/31 09:02:21.4	315.170	0.780	-0.800	0.770
2020/01/31 09:02:21.5	315.180	0.780	-0.820	0.750
2020/01/31 09:02:21.6	315.190	0.770	-0.850	0.730
2020/01/31 09:02:21.7	315.200	0.750	-0.870	0.700
2020/01/31 09:02:21.8	315.210	0.740	-0.900	0.670
2020/01/31 09:02:21.9	315.220	0.720	-0.920	0.640
2020/01/31 09:02:22.0	315.240	0.700	-0.940	0.600
2020/01/31 09:02:22.1	315.260	0.680	-0.960	0.560
2020/01/31 09:02:22.2	315.280	0.660	-0.980	0.520
2020/01/31 09:02:22.3	315.300	0.630	-0.990	0.470
2020/01/31 09:02:22.4	315.330	0.600	-1.010	0.430
2020/01/31 09:02:22.5	315.360	0.570	-1.020	0.380
2020/01/31 09:02:22.6	315.390	0.540	-1.020	0.330
2020/01/31 09:02:22.7	315.420	0.510	-1.030	0.270
2020/01/31 09:02:22.8	315.450	0.480	-1.040	0.220
2020/01/31 09:02:22.9	315.490	0.440	-1.040	0.160
2020/01/31 09:02:23.0	315.520	0.410	-1.030	0.100
2020/01/31 09:02:23.1	315.560	0.370	-1.030	0.040
2020/01/31 09:02:23.2	315.590	0.340	-1.020	-0.010
2020/01/31 09:02:23.3	315.630	0.300	-1.010	-0.070
2020/01/31 09:02:23.4	315.670	0.270	-0.990	-0.130
2020/01/31 09:02:23.5	315.710	0.240	-0.980	-0.180
2020/01/31 09:02:23.6	315.740	0.200	-0.950	-0.240
2020/01/31 09:02:23.7	315.780	0.170	-0.920	-0.290
2020/01/31 09:02:23.8	315.820	0.140	-0.890	-0.340
2020/01/31 09:02:23.9	315.850	0.110	-0.860	-0.390
2020/01/31 09:02:24.0	315.890	0.080	-0.820	-0.430
2020/01/31 09:02:24.1	315.920	0.050	-0.780	-0.470
2020/01/31 09:02:24.2	315.950	0.020	-0.730	-0.510
2020/01/31 09:02:24.3	315.980	-0.010	-0.680	-0.550
2020/01/31 09:02:24.4	316.030	-0.030	-0.630	-0.580
2020/01/31 09:02:24.5	316.060	-0.060	-0.570	-0.610
2020/01/31 09:02:24.6	316.080	-0.080	-0.510	-0.640
2020/01/31 09:02:24.7	316.110	-0.110	-0.450	-0.660
2020/01/31 09:02:24.8	316.120	-0.130	-0.380	-0.670
2020/01/31 09:02:24.9	316.140	-0.150	-0.320	-0.690
2020/01/31 09:02:25.0	316.150	-0.170	-0.250	-0.690
2020/01/31 09:02:25.1	316.160	-0.200	-0.180	-0.700
2020/01/31 09:02:25.2	316.170	-0.220	-0.110	-0.700
2020/01/31 09:02:25.3	316.170	-0.240	-0.040	-0.700
2020/01/31 09:02:25.4	316.190	-0.260	0.030	-0.690
2020/01/31 09:02:25.5	316.180	-0.280	0.100	-0.680
2020/01/31 09:02:25.6	316.180	-0.300	0.170	-0.670
2020/01/31 09:02:25.7	316.170	-0.310	0.240	-0.650
2020/01/31 09:02:25.8	316.170	-0.330	0.310	-0.640
2020/01/31 09:02:25.9	316.160	-0.350	0.370	-0.620
2020/01/31 09:02:26.0	316.150	-0.370	0.430	-0.590
2020/01/31 09:02:26.1	316.130	-0.390	0.490	-0.570
2020/01/31 09:02:26.2	316.120	-0.400	0.550	-0.550
2020/01/31 09:02:26.3	316.110	-0.420	0.600	-0.520
2020/01/31 09:02:26.4	316.110	-0.430	0.650	-0.490
2020/01/31 09:02:26.5	316.090	-0.450	0.690	-0.460
2020/01/31 09:02:26.6	316.080	-0.460	0.730	-0.430
2020/01/31 09:02:26.7	316.060	-0.480	0.760	-0.400
2020/01/31 09:02:26.8	316.050	-0.490	0.790	-0.370
2020/01/31 09:02:26.9	316.030	-0.500	0.810	-0.340
2020/01/31 09:02:27.0	316.020	-0.510	0.830	-0.310
2020/01/31 09:02:27.1	316.000	-0.510	0.850	-0.280
2020/01/31 09:02:27.2	315.980	-0.520	0.850	-0.250
2020/01/31 09:02:27.3	315.970	-0.520	0.860	-0.220
2020/01/31 09:02:27.4	315.940	-0.530	0.860	-0.190
2020/01/31 09:02:27.5	315.920	-0.530	0.850	-0.160
2020/01/31 09:02:27.6	315.900	-0.530	0.840	-0.130
2020/01/31 09:02:27.7	315.890	-0.530	0.830	-0.100
2020/01/31 09:02:27.8	315.870	-0.520	0.810	-0.060
2020/01/31 09:02:27.9	315.850	-0.520	0.780	-0.030
2020/01/31 09:02:28.0	315.830	-0.510	0.760	0.000
2020/01/31 09:02:28.1	315.810	-0.500	0.730	0.040
2020/01/31 09:02:28.2	315.780	-0.480	0.690	0.070
2020/01/31 09:02:28.3	315.760	-0.470	0.660	0.110
2020/01/31 09:02:28.4	315.740	-0.450	0.620	0.140
2020/01/31 09:02:28.5	315.710	-0.440	0.580	0.180
2020/01/31 09:02:28.6	315.690	-0.420	0.530	0.210
2020/01/31 09:02:28.7	315.660	-0.390	0.490	0.250
2020/01/31 09:02:28.8	315.640	-0.370	0.440	0.280
2020/01/31 09:02:28.9	315.610	-0.350	0.390	0.320
2020/01/31 09:02:29.0	315.590	-0.320	0.340	0.360
2020/01/31 09:02:29.1	315.560	-0.290	0.280	0.390
2020/01/31 09:02:29.2	315.540	-0.270	0.230	0.420
2020/01/31 09:02:29.3	315.520	-0.240	0.170	0.450
2020/01/31 09:02:29.4	315.490	-0.210	0.110	0.480
2020/01/31 09:02:29.5	315.470	-0.180	0.050	0.510
2020/01/31 09:02:29.6	315.450	-0.150	-0.010	0.540
2020/01/31 09:02:29.7	315.440	-0.120	-0.080	0.560
2020/01/31 09:02:29.8	315.420	-0.090	-0.140	0.580
2020/01/31 09:02:29.9	315.410	-0.060	-0.200	0.600
2020/01/31 09:02:30.0	315.400	-0.030	-0.270	0.610
2020/01/31 09:02:30.1	315.390	-0.000	-0.330	0.620
2020/01/31 09:02:30.2	315.380	0.020	-0.400	0.630
2020/01/31 09:02:30.3	315.370	0.050	-0.460	0.630
2020/01/31 09:02:30.4	315.360	0.070	-0.520	0.640
2020/01/31 09:02:30.5	315.360	0.090	-0.580	0.640
2020/01/31 09:02:30.6	315.360	0.110	-0.640	0.630
2020/01/31 09:02:30.7	315.360	0.130	-0.700	0.620
2020/01/31 09:02:30.8	315.360	0.140	-0.750	0.610
2020/01/31 09:02:30.9	315.360	0.160	-0.810	0.600
2020/01/31 09:02:31.0	315.360	0.170	-0.860	0.580
2020/01/31 09:02:31.1	315.370	0.180	-0.900	0.560
2020/01/31 09:02:31.2	315.370	0.180	-0.940	0.540
2020/01/31 09:02:31.3	315.380	0.180	-0.980	0.520
2020/01/31 09:02:31.4	315.390	0.190	-1.020	0.500
2020/01/31 09:02:31.5	315.400	0.190	-1.040	0.470
2020/01/31 09:02:31.6	315.410	0.180	-1.070	0.450
2020/01/31 09:02:31.7	315.420	0.180	-1.090	0.420
2020/01/31 09:02:31.8	315.440	0.170	-1.100	0.400
2020/01/31 09:02:31.9	315.450	0.160	-1.110	0.370
2020/01/31 09:02:32.0	315.470	0.150	-1.110	0.350
2020/01/31 09:02:32.1	315.480	0.140	-1.110	0.320
2020/01/31 09:02:32.2	315.500	0.130	-1.110	0.300
2020/01/31 09:02:32.3	315.510	0.110	-1.100	0.280
2020/01/31 09:02:32.4	315.550	0.100	-1.090	0.260
2020/01/31 09:02:32.5	315.560	0.080	-1.070	0.240
2020/01/31 09:02:32.6	315.580	0.070	-1.040	0.220
2020/01/31 09:02:32.7	315.600	0.050	-1.010	0.200
2020/01/31 09:02:32.8	315.610	0.030	-0.980	0.180
2020/01/31 09:02:32.9	315.630	0.020	-0.950	0.170
2020/01/31 09:02:33.0	315.650	0.000	-0.920	0.150
2020/01/31 09:02:33.1	315.660	-0.020	-0.880	0.140
2020/01/31 09:02:33.2	315.680	-0.030	-0.840	0.130
2020/01/31 09:02:33.3	315.690	-0.050	-0.800	0.110
2020/01/31 09:02:33.4	315.710	-0.060	-0.760	0.110
2020/01/31 09:02:33.5	315.720	-0.070	-0.720	0.100
2020/01/31 09:02:33.6	315.730	-0.080	-0.680	0.090
2020/01/31 09:02:33.7	315.740	-0.090	-0.640	0.080
2020/01/31 09:02:33.8	315.750	-0.100	-0.600	0.080
2020/01/31 09:02:33.9	315.760	-0.110	-0.570	0.070
2020/01/31 09:02:34.0	315.770	-0.120	-0.530	0.070
2020/01/31 09:02:34.1	315.780	-0.120	-0.500	0.070
2020/01/31 09:02:34.2	315.780	-0.120	-0.470	0.060
2020/01/31 09:02:34.3	315.790	-0.120	-0.440	0.060
2020/01/31 09:02:34.4	315.800	-0.120	-0.420	0.060
2020/01/31 09:02:34.5	315.800	-0.120	-0.390	0.060
2020/01/31 09:02:34.6	315.810	-0.110	-0.380	0.060
2020/01/31 09:02:34.7	315.810	-0.110	-0.360	0.060
2020/01/31 09:02:34.8	315.820	-0.100	-0.350	0.050
2020/01/31 09:02:34.9	315.830	-0.090	-0.340	0.050
2020/01/31 09:02:35.0	315.840	-0.070	-0.330	0.050
2020/01/31 09:02:35.1	315.850	-0.060	-0.320	0.050
2020/01/31 09:02:35.2	315.860	-0.040	-0.320	0.040
2020/01/31 09:02:35.3	315.880	-0.030	-0.320	0.040
2020/01/31 09:02:35.4	315.900	-0.010	-0.330	0.030
2020/01/31 09:02:35.5	315.920	0.010	-0.330	0.030
2020/01/31 09:02:35.6	315.940	0.030	-0.340	0.020
2020/01/31 09:02:35.7	315.960	0.050	-0.340	0.020
2020/01/31 09:02:35.8	315.980	0.070	-0.350	0.010
2020/01/31 09:02:35.9	316.000	0.090	-0.360	0.010
2020/01/31 09:02:36.0	316.020	0.120	-0.370	0.000
2020/01/31 09:02:36.1	316.050	0.140	-0.380	0.000
2020/01/31 09:02:36.2	316.070	0.160	-0.380	-0.000
2020/01/31 09:02:36.3	316.090	0.190	-0.390	-0.000
2020/01/31 09:02:36.4	316.110	0.210	-0.390	-0.000
2020/01/31 09:02:36.5	316.140	0.230	-0.400	-0.000
2020/01/31 09:02:36.6	316.160	0.250	-0.400	0.000
2020/01/31 09:02:36.7	316.180	0.280	-0.400	0.010
2020/01/31 09:02:36.8	316.210	0.300	-0.390	0.020
2020/01/31 09:02:36.9	316.230	0.320	-0.380	0.030
2020/01/31 09:02:37.0	316.250	0.340	-0.370	0.050
2020/01/31 09:02:37.1	316.270	0.360	-0.360	0.060
2020/01/31 09:02:37.2	316.290	0.380	-0.350	0.080
2020/01/31 09:02:37.3	316.310	0.390	-0.330	0.100
2020/01/31 09:02:37.4	316.320	0.410	-0.310	0.130
2020/01/31 09:02:37.5	316.330	0.420	-0.280	0.150
2020/01/31 09:02:37.6	316.350	0.440	-0.250	0.180
2020/01/31 09:02:37.7	316.360	0.450	-0.220	0.200
2020/01/31 09:02:37.8	316.370	0.460	-0.190	0.230
2020/01/31 09:02:37.9	316.380	0.470	-0.150	0.260
2020/01/31 09:02:38.0	316.390	0.480	-0.120	0.290
2020/01/31 09:02:38.1	316.400	0.490	-0.080	0.320
2020/01/31 09:02:38.2	316.410	0.490	-0.040	0.350
2020/01/31 09:02:38.3	316.420	0.490	0.010	0.370
2020/01/31 09:02:38.4	316.420	0.500	0.050	0.400
2020/01/31 09:02:38.5	316.420	0.500	0.090	0.420
2020/01/31 09:02:38.6	316.420	0.500	0.140	0.450
2020/01/31 09:02:38.7	316.420	0.490	0.180	0.470
2020/01/31 09:02:38.8	316.420	0.490	0.230	0.490
2020/01/31 09:02:38.9	316.420	0.480	0.270	0.510
2020/01/31 09:02:39.0	316.420	0.470	0.320	0.530
2020/01/31 09:02:39.1	316.420	0.460	0.360	0.550
2020/01/31 09:02:39.2	316.410	0.450	0.400	0.570
2020/01/31 09:02:39.3	316.400	0.440	0.440	0.580
2020/01/31 09:02:39.4	316.380	0.420	0.480	0.600
2020/01/31 09:02:39.5	316.370	0.410	0.520	0.610
2020/01/31 09:02:39.6	316.360	0.390	0.550	0.620
2020/01/31 09:02:39.7	316.340	0.370	0.590	0.620
2020/01/31 09:02:39.8	316.330	0.340	0.620	0.630
2020/01/31 09:02:39.9	316.320	0.320	0.650	0.630
2020/01/31 09:02:40.0	316.300	0.300	0.670	0.630
2020/01/31 09:02:40.1	316.290	0.270	0.690	0.630
2020/01/31 09:02:40.2	316.270	0.240	0.710	0.630
2020/01/31 09:02:40.3	316.250	0.210	0.730	0.620
2020/01/31 09:02:40.4	316.220	0.180	0.740	0.610
2020/01/31 09:02:40.5	316.200	0.150	0.750	0.600
2020/01/31 09:02:40.6	316.180	0.120	0.750	0.580
2020/01/31 09:02:40.7	316.160	0.090	0.760	0.570
2020/01/31 09:02:40.8	316.150	0.060	0.750	0.550
2020/01/31 09:02:40.9	316.130	0.020	0.750	0.530
2020/01/31 09:02:41.0	316.110	-0.010	0.740	0.510
2020/01/31 09:02:41.1	316.090	-0.040	0.730	0.490
2020/01/31 09:02:41.2	316.070	-0.070	0.710	0.470
2020/01/31 09:02:41.3	316.050	-0.100	0.690	0.440
2020/01/31 09:02:41.4	316.030	-0.130	0.660	0.420
2020/01/31 09:02:41.5	316.020	-0.150	0.630	0.390
2020/01/31 09:02:41.6	316.000	-0.180	0.600	0.370
2020/01/31 09:02:41.7	315.980	-0.200	0.570	0.340
2020/01/31 09:02:41.8	315.960	-0.230	0.530	0.310
2020/01/31 09:02:41.9	315.940	-0.250	0.490	0.280
2020/01/31 09:02:42.0	315.920	-0.260	0.440	0.250
2020/01/31 09:02:42.1	315.890	-0.280	0.390	0.220
2020/01/31 09:02:42.2	315.870	-0.300	0.340	0.200
2020/01/31 09:02:42.3	315.850	-0.310	0.290	0.170
2020/01/31 09:02:42.4	315.820	-0.320	0.230	0.140
2020/01/31 09:02:42.5	315.800	-0.330	0.170	0.110
2020/01/31 09:02:42.6	315.770	-0.330	0.110	0.090
2020/01/31 09:02:42.7	315.750	-0.340	0.050	0.060
2020/01/31 09:02:42.8	315.720	-0.340	-0.020	0.030
2020/01/31 09:02:42.9	315.700	-0.340	-0.080	0.000
2020/01/31 09:02:43.0	315.670	-0.340	-0.150	-0.020
2020/01/31 09:02:43.1	315.650	-0.340	-0.220	-0.050
2020/01/31 09:02:43.2	315.630	-0.330	-0.300	-0.080
2020/01/31 09:02:43.3	315.610	-0.330	-0.370	-0.110
2020/01/31 09:02:43.4	315.590	-0.320	-0.450	-0.140
2020/01/31 09:02:43.5	315.570	-0.310	-0.530	-0.170
2020/01/31 09:02:43.6	315.560	-0.300	-0.610	-0.210
2020/01/31 09:02:43.7	315.540	-0.290	-0.690	-0.240
2020/01/31 09:02:43.8	315.530	-0.280	-0.770	-0.270
2020/01/31 09:02:43.9	315.520	-0.260	-0.850	-0.310
2020/01/31 09:02:44.0	315.520	-0.250	-0.920	-0.340
2020/01/31 09:02:44.1	315.520	-0.230	-1.000	-0.380
2020/01/31 09:02:44.2	315.510	-0.220	-1.080	-0.410
2020/01/31 09:02:44.3	315.510	-0.210	-1.150	-0.440
2020/01/31 09:02:44.4	315.520	-0.190	-1.220	-0.470
2020/01/31 09:02:44.5	315.530	-0.180	-1.290	-0.500
2020/01/31 09:02:44.6	315.530	-0.170	-1.350	-0.530
2020/01/31 09:02:44.7	315.540	-0.150	-1.410	-0.560
2020/01/31 09:02:44.8	315.550	-0.140	-1.460	-0.590
2020/01/31 09:02:44.9	315.560	-0.130	-1.510	-0.610
2020/01/31 09:02:45.0	315.570	-0.120	-1.550	-0.630
2020/01/31 09:02:45.1	315.590	-0.110	-1.580	-0.650
2020/01/31 09:02:45.2	315.600	-0.110	-1.610	-0.670
2020/01/31 09:02:45.3	315.610	-0.100	-1.630	-0.680
2020/01/31 09:02:45.4	315.660	-0.100	-1.640	-0.690
2020/01/31 09:02:45.5	315.670	-0.100	-1.640	-0.700
2020/01/31 09:02:45.6	315.690	-0.100	-1.640	-0.710
2020/01/31 09:02:45.7	315.710	-0.100	-1.630	-0.710
2020/01/31 09:02:45.8	315.730	-0.100	-1.610	-0.710
2020/01/31 09:02:45.9	315.750	-0.100	-1.590	-0.710
2020/01/31 09:02:46.0	315.770	-0.110	-1.560	-0.710
2020/01/31 09:02:46.1	315.790	-0.110	-1.520	-0.700
2020/01/31 09:02:46.2	315.810	-0.120	-1.480	-0.690
2020/01/31 09:02:46.3	315.840	-0.120	-1.430	-0.680
2020/01/31 09:02:46.4	315.890	-0.130	-1.380	-0.660
2020/01/31 09:02:46.5	315.920	-0.140	-1.320	-0.640
2020/01/31 09:02:46.6	315.950	-0.150	-1.260	-0.630
2020/01/31 09:02:46.7	315.970	-0.150	-1.200	-0.610
2020/01/31 09:02:46.8	316.000	-0.160	-1.130	-0.580
2020/01/31 09:02:46.9	316.030	-0.170	-1.070	-0.560
2020/01/31 09:02:47.0	316.070	-0.170	-1.000	-0.540
2020/01/31 09:02:47.1	316.100	-0.180	-0.930	-0.510
2020/01/31 09:02:47.2	316.130	-0.180	-0.860	-0.490
2020/01/31 09:02:47.3	316.160	-0.190	-0.800	-0.460
2020/01/31 09:02:47.4	316.210	-0.190	-0.730	-0.430
2020/01/31 09:02:47.5	316.250	-0.190	-0.660	-0.410
2020/01/31 09:02:47.6	316.280	-0.190	-0.590	-0.380
2020/01/31 09:02:47.7	316.310	-0.190	-0.530	-0.350
2020/01/31 09:02:47.8	316.350	-0.190	-0.470	-0.320
2020/01/31 09:02:47.9	316.380	-0.190	-0.410	-0.290
2020/01/31 09:02:48.0	316.420	-0.180	-0.350	-0.270
2020/01/31 09:02:48.1	316.450	-0.180	-0.300	-0.240
2020/01/31 09:02:48.2	316.480	-0.170	-0.240	-0.210
2020/01/31 09:02:48.3	316.510	-0.160	-0.190	-0.180
2020/01/31 09:02:48.4	316.540	-0.150	-0.140	-0.150
2020/01/31 09:02:48.5	316.570	-0.140	-0.090	-0.120
2020/01/31 09:02:48.6	316.600	-0.130	-0.050	-0.090
2020/01/31 09:02:48.7	316.620	-0.120	-0.010	-0.070
2020/01/31 09:02:48.8	316.640	-0.110	0.030	-0.040
2020/01/31 09:02:48.9	316.670	-0.090	0.070	-0.010
2020/01/31 09:02:49.0	316.690	-0.080	0.110	0.020
2020/01/31 09:02:49.1	316.700	-0.060	0.150	0.050
2020/01/31 09:02:49.2	316.720	-0.050	0.180	0.080
2020/01/31 09:02:49.3	316.740	-0.030	0.220	0.120
2020/01/31 09:02:49.4	316.740	-0.010	0.250	0.140
2020/01/31 09:02:49.5	316.750	0.000	0.280	0.180
2020/01/31 09:02:49.6	316.760	0.020	0.310	0.210
2020/01/31 09:02:49.7	316.770	0.040	0.340	0.240
2020/01/31 09:02:49.8	316.770	0.050	0.370	0.280
2020/01/31 09:02:49.9	316.780	0.070	0.400	0.310
2020/01/31 09:02:50.0	316.780	0.090	0.430	0.340
2020/01/31 09:02:50.1	316.780	0.100	0.450	0.380
2020/01/31 09:02:50.2	316.780	0.120	0.480	0.410
2020/01/31 09:02:50.3	316.780	0.130	0.500	0.440
2020/01/31 09:02:50.4	316.760	0.150	0.530	0.470
2020/01/31 09:02:50.5	316.760	0.160	0.550	0.500
2020/01/31 09:02:50.6	316.750	0.170	0.570	0.520
2020/01/31 09:02:50.7	316.740	0.180	0.590	0.550
2020/01/31 09:02:50.8	316.730	0.190	0.610	0.570
2020/01/31 09:02:50.9	316.720	0.200	0.620	0.590
2020/01/31 09:02:51.0	316.710	0.200	0.630	0.600
2020/01/31 09:02:51.1	316.690	0.210	0.650	0.620
2020/01/31 09:02:51.2	316.680	0.220	0.660	0.630
2020/01/31 09:02:51.3	316.660	0.220	0.660	0.630
2020/01/31 09:02:51.4	316.630	0.220	0.670	0.640
2020/01/31 09:02:51.5	316.610	0.220	0.680	0.640
2020/01/31 09:02:51.6	316.590	0.220	0.680	0.640
2020/01/31 09:02:51.7	316.570	0.220	0.680	0.630
2020/01/31 09:02:51.8	316.550	0.220	0.680	0.630
2020/01/31 09:02:51.9	316.520	0.220	0.670	0.610
2020/01/31 09:02:52.0	316.500	0.220	0.670	0.600
2020/01/31 09:02:52.1	316.480	0.220	0.660	0.580
2020/01/31 09:02:52.2	316.460	0.210	0.650	0.560
2020/01/31 09:02:52.3	316.430	0.210	0.640	0.540
2020/01/31 09:02:52.4	316.400	0.210	0.620	0.510
2020/01/31 09:02:52.5	316.370	0.200	0.600	0.480
2020/01/31 09:02:52.6	316.350	0.200	0.580	0.450
2020/01/31 09:02:52.7	316.330	0.200	0.560	0.420
2020/01/31 09:02:52.8	316.310	0.200	0.530	0.380
2020/01/31 09:02:52.9	316.290	0.200	0.500	0.340
2020/01/31 09:02:53.0	316.270	0.200	0.470	0.300
2020/01/31 09:02:53.1	316.250	0.200	0.440	0.260
2020/01/31 09:02:53.2	316.240	0.200	0.400	0.220
2020/01/31 09:02:53.3	316.220	0.200	0.350	0.180
2020/01/31 09:02:53.4	316.210	0.200	0.310	0.130
2020/01/31 09:02:53.5	316.190	0.210	0.260	0.090
2020/01/31 09:02:53.6	316.180	0.210	0.210	0.040
2020/01/31 09:02:53.7	316.170	0.220	0.160	-0.010
2020/01/31 09:02:53.8	316.170	0.220	0.100	-0.050
2020/01/31 09:02:53.9	316.160	0.230	0.040	-0.100
2020/01/31 09:02:54.0	316.150	0.240	-0.020	-0.140
2020/01/31 09:02:54.1	316.150	0.240	-0.080	-0.180
2020/01/31 09:02:54.2	316.140	0.250	-0.140	-0.230
2020/01/31 09:02:54.3	316.140	0.260	-0.200	-0.270
2020/01/31 09:02:54.4	316.140	0.270	-0.270	-0.310
2020/01/31 09:02:54.5	316.130	0.280	-0.330	-0.340
2020/01/31 09:02:54.6	316.130	0.290	-0.390	-0.370
2020/01/31 09:02:54.7	316.120	0.290	-0.440	-0.400
2020/01/31 09:02:54.8	316.110	0.300	-0.500	-0.430
2020/01/31 09:02:54.9	316.110	0.310	-0.550	-0.450
2020/01/31 09:02:55.0	316.100	0.310	-0.600	-0.470
2020/01/31 09:02:55.1	316.090	0.320	-0.650	-0.490
2020/01/31 09:02:55.2	316.080	0.320	-0.690	-0.500
2020/01/31 09:02:55.3	316.080	0.320	-0.730	-0.510
2020/01/31 09:02:55.4	316.070	0.320	-0.770	-0.520
2020/01/31 09:02:55.5	316.070	0.320	-0.800	-0.520
2020/01/31 09:02:55.6	316.060	0.310	-0.830	-0.520
2020/01/31 09:02:55.7	316.050	0.310	-0.860	-0.520
2020/01/31 09:02:55.8	316.050	0.300	-0.880	-0.520
2020/01/31 09:02:55.9	316.040	0.290	-0.900	-0.510
2020/01/31 09:02:56.0	316.040	0.280	-0.920	-0.510
2020/01/31 09:02:56.1	316.030	0.270	-0.930	-0.500
2020/01/31 09:02:56.2	316.030	0.250	-0.940	-0.490
2020/01/31 09:02:56.3	316.030	0.240	-0.950	-0.480
2020/01/31 09:02:56.4	316.030	0.220	-0.960	-0.470
2020/01/31 09:02:56.5	316.030	0.200	-0.960	-0.460
2020/01/31 09:02:56.6	316.040	0.180	-0.970	-0.450
2020/01/31 09:02:56.7	316.040	0.160	-0.970	-0.440
2020/01/31 09:02:56.8	316.040	0.140	-0.960	-0.430
2020/01/31 09:02:56.9	316.050	0.120	-0.960	-0.420
2020/01/31 09:02:57.0	316.050	0.100	-0.960	-0.410
2020/01/31 09:02:57.1	316.060	0.070	-0.950	-0.400
2020/01/31 09:02:57.2	316.070	0.050	-0.940	-0.380
2020/01/31 09:02:57.3	316.080	0.030	-0.930	-0.370
2020/01/31 09:02:57.4	316.100	0.000	-0.920	-0.360
2020/01/31 09:02:57.5	316.110	-0.020	-0.910	-0.350
2020/01/31 09:02:57.6	316.130	-0.040	-0.900	-0.340
2020/01/31 09:02:57.7	316.140	-0.070	-0.880	-0.330
2020/01/31 09:02:57.8	316.150	-0.090	-0.870	-0.320
2020/01/31 09:02:57.9	316.160	-0.110	-0.850	-0.310
2020/01/31 09:02:58.0	316.180	-0.130	-0.830	-0.300
2020/01/31 09:02:58.1	316.190	-0.160	-0.820	-0.290
2020/01/31 09:02:58.2	316.210	-0.180	-0.800	-0.270
2020/01/31 09:02:58.3	316.220	-0.200	-0.780	-0.260
2020/01/31 09:02:58.4	316.230	-0.220	-0.760	-0.240
2020/01/31 09:02:58.5	316.250	-0.240	-0.740	-0.230
2020/01/31 09:02:58.6	316.260	-0.250	-0.720	-0.220
2020/01/31 09:02:58.7	316.270	-0.270	-0.700	-0.210
2020/01/31 09:02:58.8	316.280	-0.290	-0.680	-0.190
2020/01/31 09:02:58.9	316.300	-0.300	-0.660	-0.180
2020/01/31 09:02:59.0	316.310	-0.310	-0.640	-0.170
2020/01/31 09:02:59.1	316.320	-0.330	-0.620	-0.160
2020/01/31 09:02:59.2	316.330	-0.340	-0.600	-0.140
2020/01/31 09:02:59.3	316.350	-0.350	-0.590	-0.130
2020/01/31 09:02:59.4	316.360	-0.360	-0.570	-0.130
2020/01/31 09:02:59.5	316.380	-0.370	-0.550	-0.120
2020/01/31 09:02:59.6	316.390	-0.380	-0.530	-0.110
2020/01/31 09:02:59.7	316.410	-0.380	-0.520	-0.110
2020/01/31 09:02:59.8	316.430	-0.390	-0.500	-0.110
2020/01/31 09:02:59.9	316.450	-0.390	-0.480	-0.110
2020/01/31 09:03:00.0	316.470	-0.390	-0.470	-0.110
2020/01/31 09:03:00.1	316.490	-0.400	-0.450	-0.110
2020/01/31 09:03:00.2	316.510	-0.400	-0.430	-0.120
2020/01/31 09:03:00.3	316.530	-0.400	-0.410	-0.120
2020/01/31 09:03:00.4	316.530	-0.400	-0.400	-0.130
2020/01/31 09:03:00.5	316.550	-0.390	-0.380	-0.130
2020/01/31 09:03:00.6	316.570	-0.390	-0.360	-0.140
2020/01/31 09:03:00.7	316.590	-0.390	-0.340	-0.140
2020/01/31 09:03:00.8	316.610	-0.390	-0.320	-0.150
2020/01/31 09:03:00.9	316.630	-0.380	-0.290	-0.160
2020/01/31 09:03:01.0	316.650	-0.380	-0.270	-0.160
2020/01/31 09:03:01.1	316.670	-0.380	-0.240	-0.170
2020/01/31 09:03:01.2	316.690	-0.370	-0.210	-0.170
2020/01/31 09:03:01.3	316.700	-0.370	-0.190	-0.180
2020/01/31 09:03:01.4	316.710	-0.360	-0.150	-0.190
2020/01/31 09:03:01.5	316.720	-0.360	-0.120	-0.200
2020/01/31 09:03:01.6	316.730	-0.360	-0.090	-0.200
2020/01/31 09:03:01.7	316.740	-0.360	-0.050	-0.200
2020/01/31 09:03:01.8	316.750	-0.350	-0.010	-0.210
2020/01/31 09:03:01.9	316.760	-0.350	0.020	-0.210
2020/01/31 09:03:02.0	316.770	-0.350	0.060	-0.210
2020/01/31 09:03:02.1	316.770	-0.350	0.100	-0.210
2020/01/31 09:03:02.2	316.770	-0.350	0.140	-0.210
2020/01/31 09:03:02.3	316.770	-0.350	0.180	-0.210
2020/01/31 09:03:02.4	316.780	-0.350	0.220	-0.210
2020/01/31 09:03:02.5	316.770	-0.350	0.260	-0.200
2020/01/31 09:03:02.6	316.770	-0.350	0.300	-0.200
2020/01/31 09:03:02.7	316.760	-0.350	0.350	-0.190
2020/01/31 09:03:02.8	316.750	-0.350	0.390	-0.190
2020/01/31 09:03:02.9	316.750	-0.360	0.430	-0.180
2020/01/31 09:03:03.0	316.730	-0.360	0.460	-0.170
2020/01/31 09:03:03.1	316.720	-0.360	0.500	-0.160
2020/01/31 09:03:03.2	316.710	-0.360	0.540	-0.150
2020/01/31 09:03:03.3	316.690	-0.360	0.570	-0.140
2020/01/31 09:03:03.4	316.680	-0.350	0.600	-0.120
2020/01/31 09:03:03.5	316.670	-0.350	0.630	-0.110
2020/01/31 09:03:03.6	316.650	-0.350	0.650	-0.100
2020/01/31 09:03:03.7	316.630	-0.340	0.670	-0.080
2020/01/31 09:03:03.8	316.610	-0.330	0.690	-0.060
2020/01/31 09:03:03.9	316.590	-0.320	0.700	-0.050
2020/01/31 09:03:04.0	316.570	-0.310	0.700	-0.030
2020/01/31 09:03:04.1	316.550	-0.290	0.710	-0.010
2020/01/31 09:03:04.2	316.530	-0.280	0.700	0.010
2020/01/31 09:03:04.3	316.500	-0.260	0.700	0.030
2020/01/31 09:03:04.4	316.490	-0.230	0.680	0.050
2020/01/31 09:03:04.5	316.470	-0.210	0.670	0.070
2020/01/31 09:03:04.6	316.450	-0.180	0.640	0.090
2020/01/31 09:03:04.7	316.430	-0.150	0.620	0.110
2020/01/31 09:03:04.8	316.410	-0.120	0.580	0.130
2020/01/31 09:03:04.9	316.390	-0.080	0.550	0.150
2020/01/31 09:03:05.0	316.370	-0.040	0.510	0.170
2020/01/31 09:03:05.1	316.350	-0.010	0.460	0.190
2020/01/31 09:03:05.2	316.330	0.040	0.410	0.210
2020/01/31 09:03:05.3	316.310	0.080	0.360	0.230
2020/01/31 09:03:05.4	316.300	0.120	0.300	0.240
2020/01/31 09:03:05.5	316.280	0.170	0.240	0.260
2020/01/31 09:03:05.6	316.260	0.220	0.180	0.270
2020/01/31 09:03:05.7	316.250	0.260	0.110	0.280
2020/01/31 09:03:05.8	316.240	0.310	0.050	0.290
2020/01/31 09:03:05.9	316.230	0.360	-0.020	0.300
2020/01/31 09:03:06.0	316.220	0.400	-0.090	0.310
2020/01/31 09:03:06.1	316.210	0.450	-0.160	0.320
2020/01/31 09:03:06.2	316.200	0.500	-0.220	0.320
2020/01/31 09:03:06.3	316.200	0.540	-0.290	0.330
2020/01/31 09:03:06.4	316.190	0.580	-0.360	0.330
2020/01/31 09:03:06.5	316.190	0.630	-0.420	0.330
2020/01/31 09:03:06.6	316.190	0.660	-0.490	0.330
2020/01/31 09:03:06.7	316.190	0.700	-0.550	0.330
2020/01/31 09:03:06.8	316.190	0.740	-0.600	0.320
2020/01/31 09:03:06.9	316.200	0.770	-0.660	0.320
2020/01/31 09:03:07.0	316.200	0.800	-0.710	0.310
2020/01/31 09:03:07.1	316.200	0.820	-0.750	0.310
2020/01/31 09:03:07.2	316.210	0.840	-0.790	0.310
2020/01/31 09:03:07.3	316.210	0.860	-0.830	0.300
2020/01/31 09:03:07.4	316.200	0.880	-0.860	0.290
2020/01/31 09:03:07.5	316.200	0.890	-0.890	0.280
2020/01/31 09:03:07.6	316.210	0.890	-0.910	0.280
2020/01/31 09:03:07.7	316.210	0.900	-0.930	0.270
2020/01/31 09:03:07.8	316.220	0.890	-0.940	0.270
2020/01/31 09:03:07.9	316.220	0.890	-0.950	0.260
2020/01/31 09:03:08.0	316.230	0.880	-0.950	0.250
2020/01/31 09:03:08.1	316.230	0.870	-0.950	0.250
2020/01/31 09:03:08.2	316.240	0.850	-0.940	0.240
2020/01/31 09:03:08.3	316.250	0.830	-0.930	0.230
2020/01/31 09:03:08.4	316.260	0.800	-0.920	0.220
2020/01/31 09:03:08.5	316.270	0.770	-0.900	0.210
2020/01/31 09:03:08.6	316.280	0.740	-0.880	0.190
2020/01/31 09:03:08.7	316.280	0.710	-0.860	0.180
2020/01/31 09:03:08.8	316.290	0.670	-0.830	0.170
2020/01/31 09:03:08.9	316.300	0.630	-0.810	0.150
2020/01/31 09:03:09.0	316.310	0.580	-0.780	0.140
2020/01/31 09:03:09.1	316.320	0.540	-0.750	0.120
2020/01/31 09:03:09.2	316.330	0.490	-0.710	0.110
2020/01/31 09:03:09.3	316.340	0.440	-0.680	0.090
2020/01/31 09:03:09.4	316.330	0.390	-0.640	0.070
2020/01/31 09:03:09.5	316.330	0.340	-0.600	0.050
2020/01/31 09:03:09.6	316.340	0.280	-0.560	0.040
2020/01/31 09:03:09.7	316.340	0.230	-0.530	0.020
2020/01/31 09:03:09.8	316.350	0.170	-0.490	0.000
2020/01/31 09:03:09.9	316.350	0.120	-0.450	-0.020
2020/01/31 09:03:10.0	316.350	0.070	-0.410	-0.030
2020/01/31 09:03:10.1	316.350	0.010	-0.370	-0.050
2020/01/31 09:03:10.2	316.350	-0.040	-0.340	-0.070
2020/01/31 09:03:10.3	316.350	-0.090	-0.300	-0.090
2020/01/31 09:03:10.4	316.340	-0.140	-0.270	-0.120
2020/01/31 09:03:10.5	316.340	-0.190	-0.240	-0.140
2020/01/31 09:03:10.6	316.340	-0.230	-0.220	-0.160
2020/01/31 09:03:10.7	316.340	-0.280	-0.190	-0.190
2020/01/31 09:03:10.8	316.340	-0.320	-0.170	-0.210
2020/01/31 09:03:10.9	316.340	-0.350	-0.150	-0.230
2020/01/31 09:03:11.0	316.350	-0.390	-0.130	-0.260
2020/01/31 09:03:11.1	316.350	-0.420	-0.120	-0.280
2020/01/31 09:03:11.2	316.350	-0.450	-0.110	-0.310
2020/01/31 09:03:11.3	316.350	-0.480	-0.100	-0.330
2020/01/31 09:03:11.4	316.350	-0.500	-0.100	-0.350
2020/01/31 09:03:11.5	316.350	-0.520	-0.100	-0.370
2020/01/31 09:03:11.6	316.360	-0.530	-0.100	-0.390
2020/01/31 09:03:11.7	316.360	-0.540	-0.100	-0.410
2020/01/31 09:03:11.8	316.360	-0.550	-0.100	-0.430
2020/01/31 09:03:11.9	316.360	-0.560	-0.110	-0.440
2020/01/31 09:03:12.0	316.370	-0.560	-0.120	-0.460
2020/01/31 09:03:12.1	316.370	-0.560	-0.130	-0.470
2020/01/31 09:03:12.2	316.370	-0.550	-0.140	-0.480
2020/01/31 09:03:12.3	316.370	-0.550	-0.160	-0.490
2020/01/31 09:03:12.4	316.390	-0.540	-0.170	-0.500
2020/01/31 09:03:12.5	316.390	-0.530	-0.180	-0.510
2020/01/31 09:03:12.6	316.390	-0.510	-0.200	-0.520
2020/01/31 09:03:12.7	316.390	-0.500	-0.210	-0.520
2020/01/31 09:03:12.8	316.390	-0.480	-0.230	-0.520
2020/01/31 09:03:12.9	316.390	-0.470	-0.240	-0.520
2020/01/31 09:03:13.0	316.390	-0.450	-0.250	-0.520
2020/01/31 09:03:13.1	316.390	-0.430	-0.270	-0.520
2020/01/31 09:03:13.2	316.390	-0.410	-0.280	-0.520
2020/01/31 09:03:13.3	316.390	-0.390	-0.290	-0.520
2020/01/31 09:03:13.4	316.390	-0.370	-0.300	-0.510
2020/01/31 09:03:13.5	316.390	-0.350	-0.300	-0.510
2020/01/31 09:03:13.6	316.390	-0.330	-0.310	-0.500
2020/01/31 09:03:13.7	316.390	-0.310	-0.310	-0.490
2020/01/31 09:03:13.8	316.380	-0.290	-0.310	-0.480
2020/01/31 09:03:13.9	316.390	-0.280	-0.310	-0.470
2020/01/31 09:03:14.0	316.390	-0.260	-0.310	-0.460
2020/01/31 09:03:14.1	316.390	-0.250	-0.310	-0.450
2020/01/31 09:03:14.2	316.390	-0.230	-0.300	-0.440
2020/01/31 09:03:14.3	316.390	-0.220	-0.300	-0.430
2020/01/31 09:03:14.4	316.410	-0.210	-0.290	-0.410
2020/01/31 09:03:14.5	316.410	-0.200	-0.280	-0.400
2020/01/31 09:03:14.6	316.420	-0.190	-0.270	-0.380
2020/01/31 09:03:14.7	316.430	-0.180	-0.260	-0.370
2020/01/31 09:03:14.8	316.430	-0.170	-0.250	-0.350
2020/01/31 09:03:14.9	316.440	-0.160	-0.240	-0.330
2020/01/31 09:03:15.0	316.450	-0.160	-0.230	-0.300
2020/01/31 09:03:15.1	316.460	-0.150	-0.210	-0.280
2020/01/31 09:03:15.2	316.460	-0.150	-0.200	-0.250
2020/01/31 09:03:15.3	316.470	-0.140	-0.190	-0.230
2020/01/31 09:03:15.4	316.480	-0.140	-0.170	-0.200
2020/01/31 09:03:15.5	316.490	-0.130	-0.160	-0.170
2020/01/31 09:03:15.6	316.500	-0.130	-0.140	-0.140
2020/01/31 09:03:15.7	316.500	-0.120	-0.130	-0.110
2020/01/31 09:03:15.8	316.510	-0.120	-0.110	-0.070
2020/01/31 09:03:15.9	316.520	-0.110	-0.100	-0.040
2020/01/31 09:03:16.0	316.530	-0.110	-0.090	-0.010
2020/01/31 09:03:16.1	316.540	-0.100	-0.070	0.020
2020/01/31 09:03:16.2	316.550	-0.090	-0.060	0.060
2020/01/31 09:03:16.3	316.560	-0.080	-0.050	0.090
2020/01/31 09:03:16.4	316.560	-0.070	-0.040	0.120
2020/01/31 09:03:16.5	316.570	-0.060	-0.020	0.150
2020/01/31 09:03:16.6	316.580	-0.050	-0.010	0.180
2020/01/31 09:03:16.7	316.590	-0.040	0.000	0.220
2020/01/31 09:03:16.8	316.600	-0.030	0.010	0.250
2020/01/31 09:03:16.9	316.600	-0.010	0.020	0.280
2020/01/31 09:03:17.0	316.610	0.000	0.040	0.310
2020/01/31 09:03:17.1	316.620	0.020	0.050	0.340
2020/01/31 09:03:17.2	316.630	0.030	0.060	0.370
2020/01/31 09:03:17.3	316.630	0.050	0.070	0.400
2020/01/31 09:03:17.4	316.630	0.060	0.080	0.430
2020/01/31 09:03:17.5	316.640	0.080	0.090	0.460
2020/01/31 09:03:17.6	316.640	0.090	0.100	0.490
2020/01/31 09:03:17.7	316.640	0.110	0.110	0.520
2020/01/31 09:03:17.8	316.640	0.130	0.120	0.560
2020/01/31 09:03:17.9	316.640	0.140	0.130	0.590
2020/01/31 09:03:18.0	316.640	0.160	0.140	0.620
2020/01/31 09:03:18.1	316.640	0.170	0.140	0.650
2020/01/31 09:03:18.2	316.630	0.180	0.150	0.680
2020/01/31 09:03:18.3	316.620	0.190	0.150	0.710
2020/01/31 09:03:18.4	316.610	0.210	0.150	0.740
2020/01/31 09:03:18.5	316.600	0.220	0.160	0.770
2020/01/31 09:03:18.6	316.590	0.220	0.160	0.800
2020/01/31 09:03:18.7	316.580	0.230	0.160	0.830
2020/01/31 09:03:18.8	316.570	0.240	0.150	0.850
2020/01/31 09:03:18.9	316.550	0.240	0.150	0.880
2020/01/31 09:03:19.0	316.540	0.250	0.140	0.900
2020/01/31 09:03:19.1	316.520	0.250	0.130	0.920
2020/01/31 09:03:19.2	316.510	0.250	0.120	0.930
2020/01/31 09:03:19.3	316.500	0.250	0.110	0.940
2020/01/31 09:03:19.4	316.470	0.250	0.100	0.950
2020/01/31 09:03:19.5	316.460	0.250	0.080	0.950
2020/01/31 09:03:19.6	316.450	0.240	0.060	0.950
2020/01/31 09:03:19.7	316.440	0.240	0.040	0.950
2020/01/31 09:03:19.8	316.430	0.230	0.020	0.940
2020/01/31 09:03:19.9	316.420	0.230	-0.000	0.930
2020/01/31 09:03:20.0	316.410	0.220	-0.030	0.910
2020/01/31 09:03:20.1	316.400	0.210	-0.050	0.880
2020/01/31 09:03:20.2	316.390	0.210	-0.080	0.860
2020/01/31 09:03:20.3	316.380	0.200	-0.110	0.830
2020/01/31 09:03:20.4	316.380	0.190	-0.150	0.800
2020/01/31 09:03:20.5	316.370	0.180	-0.180	0.760
2020/01/31 09:03:20.6	316.360	0.170	-0.210	0.730
2020/01/31 09:03:20.7	316.360	0.160	-0.240	0.690
2020/01/31 09:03:20.8	316.350	0.160	-0.280	0.650
2020/01/31 09:03:20.9	316.340	0.150	-0.310	0.600
2020/01/31 09:03:21.0	316.330	0.140	-0.340	0.560
2020/01/31 09:03:21.1	316.320	0.130	-0.380	0.510
2020/01/31 09:03:21.2	316.320	0.120	-0.410	0.470
2020/01/31 09:03:21.3	316.310	0.110	-0.440	0.420
2020/01/31 09:03:21.4	316.310	0.100	-0.470	0.370
2020/01/31 09:03:21.5	316.310	0.100	-0.500	0.320
2020/01/31 09:03:21.6	316.310	0.090	-0.530	0.270
2020/01/31 09:03:21.7	316.300	0.080	-0.560	0.210
2020/01/31 09:03:21.8	316.300	0.080	-0.590	0.160
2020/01/31 09:03:21.9	316.300	0.070	-0.620	0.110
2020/01/31 09:03:22.0	316.300	0.060	-0.650	0.050
2020/01/31 09:03:22.1	316.300	0.060	-0.670	-0.000
2020/01/31 09:03:22.2	316.310	0.060	-0.690	-0.060
2020/01/31 09:03:22.3	316.310	0.050	-0.720	-0.110
2020/01/31 09:03:22.4	316.330	0.050	-0.740	-0.160
2020/01/31 09:03:22.5	316.330	0.050	-0.760	-0.220
2020/01/31 09:03:22.6	316.340	0.050	-0.770	-0.270
2020/01/31 09:03:22.7	316.340	0.040	-0.790	-0.320
2020/01/31 09:03:22.8	316.350	0.040	-0.800	-0.360
2020/01/31 09:03:22.9	316.360	0.040	-0.810	-0.410
2020/01/31 09:03:23.0	316.370	0.050	-0.820	-0.450
2020/01/31 09:03:23.1	316.370	0.050	-0.820	-0.490
2020/01/31 09:03:23.2	316.380	0.050	-0.820	-0.530
2020/01/31 09:03:23.3	316.390	0.050	-0.820	-0.570
2020/01/31 09:03:23.4	316.410	0.050	-0.820	-0.600
2020/01/31 09:03:23.5	316.420	0.060	-0.810	-0.630
2020/01/31 09:03:23.6	316.430	0.060	-0.800	-0.660
2020/01/31 09:03:23.7	316.450	0.070	-0.790	-0.680
2020/01/31 09:03:23.8	316.460	0.070	-0.780	-0.700
2020/01/31 09:03:23.9	316.470	0.070	-0.760	-0.720
2020/01/31 09:03:24.0	316.490	0.080	-0.750	-0.730
2020/01/31 09:03:24.1	316.510	0.080	-0.730	-0.750
2020/01/31 09:03:24.2	316.520	0.090	-0.710	-0.750
2020/01/31 09:03:24.3	316.540	0.090	-0.680	-0.760
2020/01/31 09:03:24.4	316.580	0.100	-0.660	-0.760
2020/01/31 09:03:24.5	316.600	0.100	-0.640	-0.770
2020/01/31 09:03:24.6	316.620	0.110	-0.610	-0.760
2020/01/31 09:03:24.7	316.650	0.110	-0.580	-0.760
2020/01/31 09:03:24.8	316.670	0.120	-0.560	-0.750
2020/01/31 09:03:24.9	316.700	0.120	-0.530	-0.750
2020/01/31 09:03:25.0	316.720	0.120	-0.500	-0.740
2020/01/31 09:03:25.1	316.750	0.120	-0.470	-0.720
2020/01/31 09:03:25.2	316.780	0.120	-0.440	-0.710
2020/01/31 09:03:25.3	316.800	0.120	-0.410	-0.690
2020/01/31 09:03:25.4	316.840	0.120	-0.370	-0.670
2020/01/31 09:03:25.5	316.860	0.120	-0.340	-0.650
2020/01/31 09:03:25.6	316.890	0.120	-0.310	-0.630
2020/01/31 09:03:25.7	316.910	0.110	-0.280	-0.600
2020/01/31 09:03:25.8	316.930	0.110	-0.250	-0.570
2020/01/31 09:03:25.9	316.950	0.100	-0.210	-0.540
2020/01/31 09:03:26.0	316.970	0.090	-0.180	-0.500
2020/01/31 09:03:26.1	316.980	0.080	-0.150	-0.470
2020/01/31 09:03:26.2	317.000	0.070	-0.120	-0.430
2020/01/31 09:03:26.3	317.010	0.060	-0.080	-0.390
2020/01/31 09:03:26.4	317.010	0.050	-0.050	-0.340
2020/01/31 09:03:26.5	317.020	0.040	-0.020	-0.300
2020/01/31 09:03:26.6	317.030	0.020	0.010	-0.250
2020/01/31 09:03:26.7	317.040	0.010	0.030	-0.210
2020/01/31 09:03:26.8	317.040	-0.010	0.060	-0.160
2020/01/31 09:03:26.9	317.050	-0.020	0.090	-0.120
2020/01/31 09:03:27.0	317.050	-0.040	0.110	-0.070
2020/01/31 09:03:27.1	317.050	-0.050	0.130	-0.020
2020/01/31 09:03:27.2	317.050	-0.070	0.160	0.020
2020/01/31 09:03:27.3	317.050	-0.080	0.170	0.060
2020/01/31 09:03:27.4	317.020	-0.100	0.200	0.110
2020/01/31 09:03:27.5	317.020	-0.110	0.210	0.150
2020/01/31 09:03:27.6	317.010	-0.130	0.220	0.190
2020/01/31 09:03:27.7	317.010	-0.140	0.240	0.230
2020/01/31 09:03:27.8	317.000	-0.160	0.250	0.270
2020/01/31 09:03:27.9	316.990	-0.170	0.250	0.300
2020/01/31 09:03:28.0	316.980	-0.180	0.260	0.330
2020/01/31 09:03:28.1	316.960	-0.200	0.260	0.370
2020/01/31 09:03:28.2	316.950	-0.210	0.260	0.400
2020/01/31 09:03:28.3	316.940	-0.220	0.260	0.420
2020/01/31 09:03:28.4	316.920	-0.230	0.260	0.450
2020/01/31 09:03:28.5	316.900	-0.230	0.260	0.470
2020/01/31 09:03:28.6	316.880	-0.240	0.260	0.500
2020/01/31 09:03:28.7	316.860	-0.250	0.250	0.520
2020/01/31 09:03:28.8	316.840	-0.250	0.250	0.540
2020/01/31 09:03:28.9	316.810	-0.260	0.240	0.550
2020/01/31 09:03:29.0	316.790	-0.260	0.230	0.570
2020/01/31 09:03:29.1	316.770	-0.270	0.220	0.580
2020/01/31 09:03:29.2	316.740	-0.270	0.210	0.590
2020/01/31 09:03:29.3	316.720	-0.270	0.200	0.590
2020/01/31 09:03:29.4	316.690	-0.270	0.190	0.590
2020/01/31 09:03:29.5	316.670	-0.270	0.180	0.590
2020/01/31 09:03:29.6	316.650	-0.270	0.170	0.580
2020/01/31 09:03:29.7	316.630	-0.270	0.160	0.570
2020/01/31 09:03:29.8	316.610	-0.270	0.140	0.560
2020/01/31 09:03:29.9	316.590	-0.270	0.130	0.550
2020/01/31 09:03:30.0	316.570	-0.260	0.110	0.530
2020/01/31 09:03:30.1	316.550	-0.260	0.100	0.510
2020/01/31 09:03:30.2	316.540	-0.260	0.080	0.490
2020/01/31 09:03:30.3	316.530	-0.250	0.070	0.460
2020/01/31 09:03:30.4	316.520	-0.250	0.050	0.440
2020/01/31 09:03:30.5	316.510	-0.240	0.030	0.410
2020/01/31 09:03:30.6	316.500	-0.230	0.010	0.380
2020/01/31 09:03:30.7	316.490	-0.230	-0.010	0.350
2020/01/31 09:03:30.8	316.480	-0.220	-0.030	0.330
2020/01/31 09:03:30.9	316.470	-0.210	-0.050	0.300
2020/01/31 09:03:31.0	316.460	-0.200	-0.070	0.270
2020/01/31 09:03:31.1	316.450	-0.200	-0.090	0.250
2020/01/31 09:03:31.2	316.440	-0.190	-0.110	0.230
2020/01/31 09:03:31.3	316.430	-0.180	-0.130	0.210
2020/01/31 09:03:31.4	316.410	-0.170	-0.160	0.190
2020/01/31 09:03:31.5	316.400	-0.150	-0.180	0.180
2020/01/31 09:03:31.6	316.390	-0.140	-0.200	0.160
2020/01/31 09:03:31.7	316.380	-0.130	-0.220	0.150
2020/01/31 09:03:31.8	316.370	-0.120	-0.250	0.140
2020/01/31 09:03:31.9	316.360	-0.100	-0.270	0.130
2020/01/31 09:03:32.0	316.350	-0.090	-0.290	0.130
2020/01/31 09:03:32.1	316.340	-0.070	-0.320	0.120
2020/01/31 09:03:32.2	316.330	-0.060	-0.340	0.120
2020/01/31 09:03:32.3	316.330	-0.040	-0.370	0.110
2020/01/31 09:03:32.4	316.330	-0.020	-0.390	0.110
2020/01/31 09:03:32.5	316.320	-0.000	-0.420	0.110
2020/01/31 09:03:32.6	316.320	0.020	-0.450	0.100
2020/01/31 09:03:32.7	316.320	0.040	-0.470	0.100
2020/01/31 09:03:32.8	316.320	0.060	-0.500	0.100
2020/01/31 09:03:32.9	316.320	0.080	-0.530	0.090
2020/01/31 09:03:33.0	316.320	0.100	-0.560	0.090
2020/01/31 09:03:33.1	316.320	0.130	-0.580	0.080
2020/01/31 09:03:33.2	316.330	0.150	-0.610	0.070
2020/01/31 09:03:33.3	316.340	0.170	-0.640	0.060
2020/01/31 09:03:33.4	316.360	0.200	-0.670	0.060
2020/01/31 09:03:33.5	316.370	0.220	-0.690	0.050
2020/01/31 09:03:33.6	316.380	0.250	-0.720	0.040
2020/01/31 09:03:33.7	316.400	0.270	-0.740	0.030
2020/01/31 09:03:33.8	316.410	0.300	-0.770	0.020
2020/01/31 09:03:33.9	316.430	0.320	-0.790	0.010
2020/01/31 09:03:34.0	316.440	0.340	-0.810	-0.000
2020/01/31 09:03:34.1	316.460	0.360	-0.830	-0.010
2020/01/31 09:03:34.2	316.480	0.380	-0.840	-0.020
2020/01/31 09:03:34.3	316.500	0.400	-0.860	-0.030
2020/01/31 09:03:34.4	316.520	0.420	-0.870	-0.040
2020/01/31 09:03:34.5	316.540	0.430	-0.870	-0.040
2020/01/31 09:03:34.6	316.560	0.440	-0.880	-0.050
2020/01/31 09:03:34.7	316.590	0.450	-0.880	-0.050
2020/01/31 09:03:34.8	316.610	0.460	-0.880	-0.050
2020/01/31 09:03:34.9	316.630	0.470	-0.870	-0.060
2020/01/31 09:03:35.0	316.660	0.470	-0.860	-0.060
2020/01/31 09:03:35.1	316.690	0.470	-0.850	-0.060
2020/01/31 09:03:35.2	316.710	0.470	-0.830	-0.060
2020/01/31 09:03:35.3	316.740	0.460	-0.810	-0.060
2020/01/31 09:03:35.4	316.770	0.460	-0.790	-0.060
2020/01/31 09:03:35.5	316.800	0.450	-0.760	-0.060
2020/01/31 09:03:35.6	316.820	0.430	-0.740	-0.060
2020/01/31 09:03:35.7	316.850	0.420	-0.700	-0.060
2020/01/31 09:03:35.8	316.880	0.400	-0.670	-0.060
2020/01/31 09:03:35.9	316.910	0.380	-0.630	-0.060
2020/01/31 09:03:36.0	316.930	0.360	-0.590	-0.050
2020/01/31 09:03:36.1	316.950	0.330	-0.540	-0.050
2020/01/31 09:03:36.2	316.980	0.300	-0.500	-0.050
2020/01/31 09:03:36.3	316.990	0.280	-0.450	-0.040
2020/01/31 09:03:36.4	317.010	0.250	-0.400	-0.030
2020/01/31 09:03:36.5	317.020	0.210	-0.340	-0.020
2020/01/31 09:03:36.6	317.030	0.180	-0.290	-0.010
2020/01/31 09:03:36.7	317.040	0.150	-0.230	0.000
2020/01/31 09:03:36.8	317.040	0.120	-0.180	0.020
2020/01/31 09:03:36.9	317.040	0.090	-0.120	0.030
2020/01/31 09:03:37.0	317.040	0.050	-0.060	0.050
2020/01/31 09:03:37.1	317.040	0.020	-0.010	0.070
2020/01/31 09:03:37.2	317.030	-0.010	0.050	0.100
2020/01/31 09:03:37.3	317.020	-0.040	0.100	0.120
2020/01/31 09:03:37.4	317.020	-0.070	0.160	0.140
2020/01/31 09:03:37.5	317.000	-0.100	0.210	0.170
2020/01/31 09:03:37.6	316.990	-0.120	0.260	0.200
2020/01/31 09:03:37.7	316.970	-0.150	0.300	0.220
2020/01/31 09:03:37.8	316.960	-0.170	0.340	0.250
2020/01/31 09:03:37.9	316.940	-0.190	0.380	0.270
2020/01/31 09:03:38.0	316.920	-0.210	0.410	0.290
2020/01/31 09:03:38.1	316.910	-0.220	0.430	0.310
2020/01/31 09:03:38.2	316.890	-0.240	0.450	0.330
2020/01/31 09:03:38.3	316.870	-0.250	0.470	0.340
2020/01/31 09:03:38.4	316.850	-0.260	0.480	0.360
2020/01/31 09:03:38.5	316.830	-0.260	0.490	0.370
2020/01/31 09:03:38.6	316.820	-0.270	0.490	0.380
2020/01/31 09:03:38.7	316.800	-0.270	0.480	0.380
2020/01/31 09:03:38.8	316.790	-0.270	0.470	0.390
2020/01/31 09:03:38.9	316.770	-0.270	0.460	0.390
2020/01/31 09:03:39.0	316.760	-0.260	0.440	0.390
2020/01/31 09:03:39.1	316.750	-0.260	0.420	0.390
2020/01/31 09:03:39.2	316.730	-0.250	0.390	0.380
2020/01/31 09:03:39.3	316.720	-0.240	0.360	0.380
2020/01/31 09:03:39.4	316.720	-0.230	0.320	0.370
2020/01/31 09:03:39.5	316.700	-0.220	0.280	0.360
2020/01/31 09:03:39.6	316.690	-0.210	0.240	0.350
2020/01/31 09:03:39.7	316.680	-0.200	0.200	0.340
2020/01/31 09:03:39.8	316.670	-0.190	0.160	0.330
2020/01/31 09:03:39.9	316.670	-0.180	0.110	0.310
2020/01/31 09:03:40.0	316.660	-0.160	0.070	0.300
2020/01/31 09:03:40.1	316.650	-0.150	0.020	0.280
2020/01/31 09:03:40.2	316.650	-0.140	-0.030	0.260
2020/01/31 09:03:40.3	316.650	-0.130	-0.070	0.240
2020/01/31 09:03:40.4	316.640	-0.120	-0.120	0.220
2020/01/31 09:03:40.5	316.640	-0.110	-0.160	0.200
2020/01/31 09:03:40.6	316.640	-0.100	-0.210	0.180
2020/01/31 09:03:40.7	316.640	-0.090	-0.250	0.150
2020/01/31 09:03:40.8	316.640	-0.080	-0.300	0.130
2020/01/31 09:03:40.9	316.650	-0.070	-0.330	0.110
2020/01/31 09:03:41.0	316.650	-0.070	-0.370	0.090
2020/01/31 09:03:41.1	316.650	-0.060	-0.410	0.070
2020/01/31 09:03:41.2	316.650	-0.060	-0.440	0.050
2020/01/31 09:03:41.3	316.660	-0.050	-0.460	0.030
2020/01/31 09:03:41.4	316.660	-0.050	-0.490	0.010
2020/01/31 09:03:41.5	316.660	-0.050	-0.510	0.000
2020/01/31 09:03:41.6	316.660	-0.050	-0.520	-0.010
2020/01/31 09:03:41.7	316.650	-0.050	-0.530	-0.020
2020/01/31 09:03:41.8	316.650	-0.050	-0.540	-0.020
2020/01/31 09:03:41.9	316.640	-0.050	-0.540	-0.020
2020/01/31 09:03:42.0	316.640	-0.060	-0.540	-0.020
2020/01/31 09:03:42.1	316.630	-0.060	-0.530	-0.020
2020/01/31 09:03:42.2	316.620	-0.070	-0.520	-0.010
2020/01/31 09:03:42.3	316.600	-0.070	-0.510	-0.000
2020/01/31 09:03:42.4	316.600	-0.080	-0.500	0.010
2020/01/31 09:03:42.5	316.580	-0.090	-0.480	0.020
2020/01/31 09:03:42.6	316.570	-0.090	-0.460	0.030
2020/01/31 09:03:42.7	316.550	-0.100	-0.440	0.050
2020/01/31 09:03:42.8	316.530	-0.110	-0.420	0.070
2020/01/31 09:03:42.9	316.510	-0.120	-0.390	0.090
2020/01/31 09:03:43.0	316.490	-0.120	-0.370	0.110
2020/01/31 09:03:43.1	316.470	-0.130	-0.340	0.130
2020/01/31 09:03:43.2	316.450	-0.140	-0.320	0.150
2020/01/31 09:03:43.3	316.430	-0.140	-0.300	0.170
2020/01/31 09:03:43.4	316.420	-0.150	-0.270	0.190
2020/01/31 09:03:43.5	316.400	-0.150	-0.250	0.210
2020/01/31 09:03:43.6	316.380	-0.160	-0.230	0.230
2020/01/31 09:03:43.7	316.360	-0.160	-0.220	0.250
2020/01/31 09:03:43.8	316.340	-0.170	-0.200	0.270
2020/01/31 09:03:43.9	316.330	-0.170	-0.190	0.280
2020/01/31 09:03:44.0	316.310	-0.170	-0.180	0.300
2020/01/31 09:03:44.1	316.300	-0.170	-0.170	0.310
2020/01/31 09:03:44.2	316.290	-0.170	-0.170	0.320
2020/01/31 09:03:44.3	316.280	-0.170	-0.160	0.330
2020/01/31 09:03:44.4	316.280	-0.170	-0.170	0.330
2020/01/31 09:03:44.5	316.280	-0.170	-0.170	0.340
2020/01/31 09:03:44.6	316.270	-0.160	-0.180	0.340
2020/01/31 09:03:44.7	316.270	-0.160	-0.190	0.340
2020/01/31 09:03:44.8	316.270	-0.150	-0.200	0.340
2020/01/31 09:03:44.9	316.270	-0.140	-0.210	0.340
2020/01/31 09:03:45.0	316.280	-0.140	-0.230	0.340
2020/01/31 09:03:45.1	316.290	-0.130	-0.240	0.330
2020/01/31 09:03:45.2	316.300	-0.120	-0.260	0.320
2020/01/31 09:03:45.3	316.310	-0.110	-0.280	0.310
2020/01/31 09:03:45.4	316.330	-0.100	-0.300	0.300
2020/01/31 09:03:45.5	316.340	-0.090	-0.320	0.280
2020/01/31 09:03:45.6	316.360	-0.080	-0.350	0.270
2020/01/31 09:03:45.7	316.380	-0.070	-0.370	0.250
2020/01/31 09:03:45.8	316.400	-0.050	-0.390	0.230
2020/01/31 09:03:45.9	316.420	-0.040	-0.410	0.210
2020/01/31 09:03:46.0	316.440	-0.030	-0.430	0.180
2020/01/31 09:03:46.1	316.470	-0.020	-0.440	0.160
2020/01/31 09:03:46.2	316.490	-0.010	-0.460	0.130
2020/01/31 09:03:46.3	316.510	-0.000	-0.470	0.110
2020/01/31 09:03:46.4	316.520	0.010	-0.480	0.080
2020/01/31 09:03:46.5	316.550	0.020	-0.490	0.050
2020/01/31 09:03:46.6	316.570	0.030	-0.500	0.020
2020/01/31 09:03:46.7	316.600	0.030	-0.500	-0.010
2020/01/31 09:03:46.8	316.620	0.040	-0.510	-0.040
2020/01/31 09:03:46.9	316.650	0.050	-0.500	-0.070
2020/01/31 09:03:47.0	316.670	0.050	-0.500	-0.090
2020/01/31 09:03:47.1	316.690	0.060	-0.490	-0.120
2020/01/31 09:03:47.2	316.710	0.060	-0.480	-0.150
2020/01/31 09:03:47.3	316.730	0.070	-0.470	-0.170
2020/01/31 09:03:47.4	316.760	0.070	-0.450	-0.200
2020/01/31 09:03:47.5	316.780	0.080	-0.430	-0.220
2020/01/31 09:03:47.6	316.790	0.080	-0.410	-0.240
2020/01/31 09:03:47.7	316.810	0.080	-0.390	-0.260
2020/01/31 09:03:47.8	316.820	0.090	-0.360	-0.280
2020/01/31 09:03:47.9	316.830	0.090	-0.340	-0.290
2020/01/31 09:03:48.0	316.840	0.090	-0.310	-0.300
2020/01/31 09:03:48.1	316.850	0.100	-0.280	-0.300
2020/01/31 09:03:48.2	316.860	0.100	-0.260	-0.300
2020/01/31 09:03:48.3	316.860	0.100	-0.230	-0.300
2020/01/31 09:03:48.4	316.860	0.110	-0.200	-0.290
2020/01/31 09:03:48.5	316.860	0.110	-0.170	-0.290
2020/01/31 09:03:48.6	316.860	0.120	-0.150	-0.270
2020/01/31 09:03:48.7	316.860	0.120	-0.130	-0.260
2020/01/31 09:03:48.8	316.860	0.130	-0.100	-0.240
2020/01/31 09:03:48.9	316.850	0.140	-0.080	-0.210
2020/01/31 09:03:49.0	316.840	0.140	-0.070	-0.190
2020/01/31 09:03:49.1	316.840	0.150	-0.050	-0.160
2020/01/31 09:03:49.2	316.820	0.160	-0.040	-0.130
2020/01/31 09:03:49.3	316.810	0.170	-0.030	-0.100
2020/01/31 09:03:49.4	316.820	0.170	-0.020	-0.060
2020/01/31 09:03:49.5	316.810	0.180	-0.020	-0.030
2020/01/31 09:03:49.6	316.800	0.190	-0.020	0.000
2020/01/31 09:03:49.7	316.780	0.200	-0.020	0.030
2020/01/31 09:03:49.8	316.770	0.210	-0.020	0.070
2020/01/31 09:03:49.9	316.750	0.220	-0.030	0.100
2020/01/31 09:03:50.0	316.740	0.230	-0.040	0.130
2020/01/31 09:03:50.1	316.730	0.240	-0.050	0.160
2020/01/31 09:03:50.2	316.710	0.250	-0.060	0.190
2020/01/31 09:03:50.3	316.700	0.260	-0.080	0.220
2020/01/31 09:03:50.4	316.680	0.260	-0.100	0.250
2020/01/31 09:03:50.5	316.660	0.270	-0.120	0.270
2020/01/31 09:03:50.6	316.650	0.280	-0.140	0.300
2020/01/31 09:03:50.7	316.640	0.280	-0.160	0.320
2020/01/31 09:03:50.8	316.630	0.290	-0.180	0.340
2020/01/31 09:03:50.9	316.620	0.290	-0.200	0.360
2020/01/31 09:03:51.0	316.600	0.290	-0.220	0.380
2020/01/31 09:03:51.1	316.590	0.290	-0.250	0.390
2020/01/31 09:03:51.2	316.580	0.290	-0.270	0.410
2020/01/31 09:03:51.3	316.560	0.280	-0.280	0.420
2020/01/31 09:03:51.4	316.530	0.280	-0.300	0.430
2020/01/31 09:03:51.5	316.510	0.270	-0.320	0.440
2020/01/31 09:03:51.6	316.500	0.260	-0.330	0.440
2020/01/31 09:03:51.7	316.480	0.250	-0.340	0.450
2020/01/31 09:03:51.8	316.470	0.230	-0.350	0.450
2020/01/31 09:03:51.9	316.450	0.210	-0.360	0.450
2020/01/31 09:03:52.0	316.440	0.200	-0.360	0.450
2020/01/31 09:03:52.1	316.420	0.180	-0.370	0.440
2020/01/31 09:03:52.2	316.410	0.150	-0.370	0.440
2020/01/31 09:03:52.3	316.390	0.130	-0.360	0.430
2020/01/31 09:03:52.4	316.380	0.110	-0.350	0.420
2020/01/31 09:03:52.5	316.360	0.080	-0.340	0.420
2020/01/31 09:03:52.6	316.350	0.050	-0.330	0.410
2020/01/31 09:03:52.7	316.340	0.030	-0.320	0.400
2020/01/31 09:03:52.8	316.330	-0.000	-0.310	0.390
2020/01/31 09:03:52.9	316.330	-0.030	-0.290	0.380
2020/01/31 09:03:53.0	316.320	-0.060	-0.270	0.360
2020/01/31 09:03:53.1	316.320	-0.090	-0.250	0.350
2020/01/31 09:03:53.2	316.310	-0.120	-0.230	0.340
2020/01/31 09:03:53.3	316.310	-0.150	-0.210	0.320
2020/01/31 09:03:53.4	316.300	-0.180	-0.190	0.310
2020/01/31 09:03:53.5	316.300	-0.210	-0.170	0.290
2020/01/31 09:03:53.6	316.300	-0.230	-0.150	0.280
2020/01/31 09:03:53.7	316.310	-0.260	-0.130	0.260
2020/01/31 09:03:53.8	316.310	-0.280	-0.110	0.240
2020/01/31 09:03:53.9	316.320	-0.310	-0.090	0.230
2020/01/31 09:03:54.0	316.320	-0.330	-0.080	0.210
2020/01/31 09:03:54.1	316.330	-0.350	-0.060	0.190
2020/01/31 09:03:54.2	316.330	-0.360	-0.050	0.180
2020/01/31 09:03:54.3	316.340	-0.380	-0.040	0.160
2020/01/31 09:03:54.4	316.350	-0.390	-0.030	0.150
2020/01/31 09:03:54.5	316.360	-0.400	-0.030	0.130
2020/01/31 09:03:54.6	316.360	-0.410	-0.020	0.120
2020/01/31 09:03:54.7	316.370	-0.410	-0.020	0.110
2020/01/31 09:03:54.8	316.370	-0.410	-0.010	0.100
2020/01/31 09:03:54.9	316.380	-0.410	-0.010	0.090
2020/01/31 09:03:55.0	316.380	-0.410	-0.010	0.080
2020/01/31 09:03:55.1	316.390	-0.410	-0.020	0.070
2020/01/31 09:03:55.2	316.390	-0.400	-0.020	0.060
2020/01/31 09:03:55.3	316.400	-0.390	-0.030	0.050
2020/01/31 09:03:55.4	316.420	-0.380	-0.040	0.040
2020/01/31 09:03:55.5	316.420	-0.360	-0.050	0.030
2020/01/31 09:03:55.6	316.430	-0.340	-0.060	0.030
2020/01/31 09:03:55.7	316.440	-0.330	-0.070	0.020
2020/01/31 09:03:55.8	316.440	-0.310	-0.090	0.010
2020/01/31 09:03:55.9	316.450	-0.290	-0.100	-0.000
2020/01/31 09:03:56.0	316.460	-0.260	-0.120	-0.010
2020/01/31 09:03:56.1	316.460	-0.240	-0.140	-0.020
2020/01/31 09:03:56.2	316.470	-0.220	-0.160	-0.030
2020/01/31 09:03:56.3	316.470	-0.190	-0.170	-0.030
2020/01/31 09:03:56.4	316.500	-0.170	-0.200	-0.040
2020/01/31 09:03:56.5	316.500	-0.140	-0.210	-0.040
2020/01/31 09:03:56.6	316.500	-0.120	-0.230	-0.050
2020/01/31 09:03:56.7	316.500	-0.100	-0.250	-0.050
2020/01/31 09:03:56.8	316.510	-0.070	-0.260	-0.060
2020/01/31 09:03:56.9	316.510	-0.050	-0.280	-0.060
2020/01/31 09:03:57.0	316.500	-0.030	-0.290	-0.060
2020/01/31 09:03:57.1	316.500	-0.010	-0.300	-0.060
2020/01/31 09:03:57.2	316.500	0.010	-0.310	-0.060
2020/01/31 09:03:57.3	316.500	0.020	-0.320	-0.060
2020/01/31 09:03:57.4	316.500	0.040	-0.320	-0.050
2020/01/31 09:03:57.5	316.500	0.050	-0.330	-0.050
2020/01/31 09:03:57.6	316.490	0.060	-0.330	-0.040
2020/01/31 09:03:57.7	316.490	0.070	-0.330	-0.040
2020/01/31 09:03:57.8	316.490	0.080	-0.330	-0.030
2020/01/31 09:03:57.9	316.480	0.090	-0.330	-0.020
2020/01/31 09:03:58.0	316.480	0.090	-0.320	-0.010
2020/01/31 09:03:58.1	316.470	0.100	-0.310	0.000
2020/01/31 09:03:58.2	316.470	0.100	-0.310	0.020
2020/01/31 09:03:58.3	316.470	0.100	-0.300	0.030
2020/01/31 09:03:58.4	316.470	0.100	-0.290	0.040
2020/01/31 09:03:58.5	316.460	0.090	-0.280	0.060
2020/01/31 09:03:58.6	316.450	0.090	-0.260	0.080
2020/01/31 09:03:58.7	316.450	0.080	-0.250	0.100
2020/01/31 09:03:58.8	316.440	0.070	-0.240	0.110
2020/01/31 09:03:58.9	316.430	0.060	-0.230	0.130
2020/01/31 09:03:59.0	316.420	0.050	-0.220	0.150
2020/01/31 09:03:59.1	316.410	0.040	-0.200	0.170
2020/01/31 09:03:59.2	316.400	0.030	-0.190	0.190
2020/01/31 09:03:59.3	316.390	0.020	-0.190	0.210
2020/01/31 09:03:59.4	316.370	0.000	-0.180	0.230
2020/01/31 09:03:59.5	316.360	-0.010	-0.170	0.240
2020/01/31 09:03:59.6	316.350	-0.020	-0.170	0.250
2020/01/31 09:03:59.7	316.340	-0.040	-0.170	0.260
2020/01/31 09:03:59.8	316.330	-0.050	-0.170	0.270
2020/01/31 09:03:59.9	316.330	-0.060	-0.170	0.280
2020/01/31 09:04:00.0	316.320	-0.070	-0.180	0.290
2020/01/31 09:04:00.1	316.320	-0.080	-0.190	0.290
2020/01/31 09:04:00.2	316.320	-0.090	-0.200	0.290
2020/01/31 09:04:00.3	316.320	-0.100	-0.210	0.290
2020/01/31 09:04:00.4	316.300	-0.110	-0.230	0.280
2020/01/31 09:04:00.5	316.300	-0.110	-0.250	0.270
2020/01/31 09:04:00.6	316.310	-0.110	-0.270	0.270
2020/01/31 09:04:00.7	316.320	-0.120	-0.290	0.260
2020/01/31 09:04:00.8	316.330	-0.120	-0.310	0.240
2020/01/31 09:04:00.9	316.340	-0.120	-0.330	0.230
2020/01/31 09:04:01.0	316.350	-0.110	-0.350	0.220
2020/01/31 09:04:01.1	316.360	-0.110	-0.380	0.210
2020/01/31 09:04:01.2	316.380	-0.100	-0.400	0.200
2020/01/31 09:04:01.3	316.390	-0.090	-0.420	0.190
2020/01/31 09:04:01.4	316.410	-0.080	-0.440	0.170
2020/01/31 09:04:01.5	316.420	-0.070	-0.460	0.160
2020/01/31 09:04:01.6	316.440	-0.060	-0.480	0.160
2020/01/31 09:04:01.7	316.460	-0.050	-0.490	0.150
2020/01/31 09:04:01.8	316.480	-0.040	-0.500	0.140
2020/01/31 09:04:01.9	316.500	-0.020	-0.510	0.140
2020/01/31 09:04:02.0	316.510	-0.010	-0.520	0.140
2020/01/31 09:04:02.1	316.530	0.010	-0.520	0.150
2020/01/31 09:04:02.2	316.550	0.020	-0.520	0.150
2020/01/31 09:04:02.3	316.560	0.040	-0.520	0.160
2020/01/31 09:04:02.4	316.570	0.050	-0.520	0.180
2020/01/31 09:04:02.5	316.590	0.070	-0.510	0.190
2020/01/31 09:04:02.6	316.600	0.080	-0.500	0.210
2020/01/31 09:04:02.7	316.600	0.100	-0.490	0.230
2020/01/31 09:04:02.8	316.610	0.110	-0.470	0.250
2020/01/31 09:04:02.9	316.620	0.130	-0.460	0.270
2020/01/31 09:04:03.0	316.620	0.140	-0.440	0.300
2020/01/31 09:04:03.1	316.620	0.150	-0.420	0.330
2020/01/31 09:04:03.2	316.620	0.170	-0.400	0.360
2020/01/31 09:04:03.3	316.620	0.180	-0.380	0.380
2020/01/31 09:04:03.4	316.630	0.190	-0.360	0.420
2020/01/31 09:04:03.5	316.630	0.200	-0.330	0.450
2020/01/31 09:04:03.6	316.620	0.210	-0.310	0.480
2020/01/31 09:04:03.7	316.620	0.220	-0.290	0.510
2020/01/31 09:04:03.8	316.610	0.220	-0.270	0.530
2020/01/31 09:04:03.9	316.600	0.230	-0.250	0.560
2020/01/31 09:04:04.0	316.590	0.240	-0.230	0.590
2020/01/31 09:04:04.1	316.580	0.240	-0.210	0.620
2020/01/31 09:04:04.2	316.570	0.250	-0.190	0.640
2020/01/31 09:04:04.3	316.550	0.250	-0.180	0.660
2020/01/31 09:04:04.4	316.530	0.260	-0.170	0.690
2020/01/31 09:04:04.5	316.520	0.260	-0.150	0.710
2020/01/31 09:04:04.6	316.510	0.260	-0.140	0.720
2020/01/31 09:04:04.7	316.500	0.260	-0.130	0.730
2020/01/31 09:04:04.8	316.480	0.260	-0.130	0.740
2020/01/31 09:04:04.9	316.470	0.260	-0.120	0.750
2020/01/31 09:04:05.0	316.460	0.260	-0.120	0.750
2020/01/31 09:04:05.1	316.450	0.260	-0.120	0.750
2020/01/31 09:04:05.2	316.450	0.260	-0.120	0.750
2020/01/31 09:04:05.3	316.440	0.260	-0.130	0.740
2020/01/31 09:04:05.4	316.430	0.250	-0.130	0.720
2020/01/31 09:04:05.5	316.420	0.250	-0.140	0.700
2020/01/31 09:04:05.6	316.420	0.240	-0.150	0.680
2020/01/31 09:04:05.7	316.410	0.230	-0.160	0.650
2020/01/31 09:04:05.8	316.410	0.220	-0.170	0.620
2020/01/31 09:04:05.9	316.410	0.210	-0.180	0.590
2020/01/31 09:04:06.0	316.410	0.200	-0.200	0.550
2020/01/31 09:04:06.1	316.410	0.180	-0.210	0.510
2020/01/31 09:04:06.2	316.410	0.170	-0.230	0.460
2020/01/31 09:04:06.3	316.420	0.150	-0.240	0.420
2020/01/31 09:04:06.4	316.400	0.130	-0.260	0.370
2020/01/31 09:04:06.5	316.410	0.110	-0.270	0.320
2020/01/31 09:04:06.6	316.410	0.090	-0.280	0.270
2020/01/31 09:04:06.7	316.410	0.070	-0.290	0.220
2020/01/31 09:04:06.8	316.420	0.050	-0.290	0.170
2020/01/31 09:04:06.9	316.420	0.020	-0.300	0.110
2020/01/31 09:04:07.0	316.420	-0.000	-0.300	0.060
2020/01/31 09:04:07.1	316.420	-0.030	-0.300	0.010
2020/01/31 09:04:07.2	316.430	-0.060	-0.290	-0.040
2020/01/31 09:04:07.3	316.430	-0.090	-0.280	-0.090
2020/01/31 09:04:07.4	316.440	-0.110	-0.270	-0.130
2020/01/31 09:04:07.5	316.450	-0.140	-0.260	-0.180
2020/01/31 09:04:07.6	316.450	-0.170	-0.240	-0.220
2020/01/31 09:04:07.7	316.450	-0.200	-0.220	-0.260
2020/01/31 09:04:07.8	316.450	-0.230	-0.190	-0.300
2020/01/31 09:04:07.9	316.450	-0.260	-0.160	-0.340
2020/01/31 09:04:08.0	316.460	-0.290	-0.130	-0.370
2020/01/31 09:04:08.1	316.460	-0.320	-0.100	-0.400
2020/01/31 09:04:08.2	316.460	-0.350	-0.060	-0.430
2020/01/31 09:04:08.3	316.460	-0.370	-0.020	-0.450
2020/01/31 09:04:08.4	316.490	-0.400	0.010	-0.480
2020/01/31 09:04:08.5	316.490	-0.430	0.050	-0.500
2020/01/31 09:04:08.6	316.490	-0.450	0.090	-0.510
2020/01/31 09:04:08.7	316.480	-0.470	0.130	-0.520
2020/01/31 09:04:08.8	316.480	-0.490	0.170	-0.530
2020/01/31 09:04:08.9	316.480	-0.510	0.210	-0.530
2020/01/31 09:04:09.0	316.480	-0.530	0.240	-0.530
2020/01/31 09:04:09.1	316.480	-0.540	0.280	-0.530
2020/01/31 09:04:09.2	316.480	-0.550	0.310	-0.520
2020/01/31 09:04:09.3	316.480	-0.560	0.330	-0.510
2020/01/31 09:04:09.4	316.490	-0.570	0.350	-0.490
2020/01/31 09:04:09.5	316.490	-0.570	0.370	-0.470
2020/01/31 09:04:09.6	316.480	-0.570	0.390	-0.450
2020/01/31 09:04:09.7	316.480	-0.570	0.390	-0.420
2020/01/31 09:04:09.8	316.480	-0.560	0.400	-0.390
2020/01/31 09:04:09.9	316.480	-0.550	0.390	-0.370
2020/01/31 09:04:10.0	316.470	-0.540	0.390	-0.340
2020/01/31 09:04:10.1	316.470	-0.520	0.370	-0.300
2020/01/31 09:04:10.2	316.470	-0.500	0.350	-0.270
2020/01/31 09:04:10.3	316.470	-0.480	0.330	-0.240
2020/01/31 09:04:10.4	316.470	-0.450	0.300	-0.200
2020/01/31 09:04:10.5	316.460	-0.420	0.260	-0.160
2020/01/31 09:04:10.6	316.460	-0.390	0.220	-0.130
2020/01/31 09:04:10.7	316.460	-0.360	0.180	-0.090
2020/01/31 09:04:10.8	316.460	-0.320	0.130	-0.050
2020/01/31 09:04:10.9	316.460	-0.280	0.080	-0.010
2020/01/31 09:04:11.0	316.460	-0.240	0.030	0.020
2020/01/31 09:04:11.1	316.460	-0.200	-0.020	0.060
2020/01/31 09:04:11.2	316.460	-0.150	-0.080	0.100
2020/01/31 09:04:11.3	316.460	-0.110	-0.140	0.140
2020/01/31 09:04:11.4	316.460	-0.060	-0.200	0.170
2020/01/31 09:04:11.5	316.460	-0.020	-0.260	0.210
2020/01/31 09:04:11.6	316.460	0.020	-0.320	0.240
2020/01/31 09:04:11.7	316.460	0.070	-0.380	0.280
2020/01/31 09:04:11.8	316.460	0.110	-0.440	0.310
2020/01/31 09:04:11.9	316.460	0.150	-0.500	0.340
2020/01/31 09:04:12.0	316.460	0.190	-0.560	0.370
2020/01/31 09:04:12.1	316.470	0.230	-0.610	0.400
2020/01/31 09:04:12.2	316.470	0.260	-0.660	0.430
2020/01/31 09:04:12.3	316.470	0.290	-0.710	0.460
2020/01/31 09:04:12.4	316.460	0.320	-0.750	0.480
2020/01/31 09:04:12.5	316.470	0.350	-0.790	0.500
2020/01/31 09:04:12.6	316.480	0.370	-0.830	0.520
2020/01/31 09:04:12.7	316.480	0.400	-0.860	0.540
2020/01/31 09:04:12.8	316.490	0.410	-0.890	0.560
2020/01/31 09:04:12.9	316.500	0.430	-0.910	0.570
2020/01/31 09:04:13.0	316.510	0.440	-0.920	0.580
2020/01/31 09:04:13.1	316.510	0.450	-0.930	0.590
2020/01/31 09:04:13.2	316.520	0.450	-0.940	0.600
2020/01/31 09:04:13.3	316.530	0.450	-0.940	0.600
2020/01/31 09:04:13.4	316.550	0.450	-0.930	0.600
2020/01/31 09:04:13.5	316.560	0.440	-0.920	0.600
2020/01/31 09:04:13.6	316.570	0.440	-0.910	0.600
2020/01/31 09:04:13.7	316.580	0.430	-0.890	0.600
2020/01/31 09:04:13.8	316.580	0.410	-0.870	0.590
2020/01/31 09:04:13.9	316.590	0.400	-0.850	0.580
2020/01/31 09:04:14.0	316.600	0.380	-0.820	0.570
2020/01/31 09:04:14.1	316.610	0.360	-0.790	0.550
2020/01/31 09:04:14.2	316.620	0.340	-0.760	0.540
2020/01/31 09:04:14.3	316.630	0.320	-0.730	0.520
2020/01/31 09:04:14.4	316.630	0.300	-0.700	0.500
2020/01/31 09:04:14.5	316.640	0.270	-0.660	0.480
2020/01/31 09:04:14.6	316.650	0.250	-0.630	0.460
2020/01/31 09:04:14.7	316.660	0.230	-0.600	0.440
2020/01/31 09:04:14.8	316.670	0.200	-0.560	0.410
2020/01/31 09:04:14.9	316.680	0.180	-0.530	0.390
2020/01/31 09:04:15.0	316.690	0.160	-0.500	0.370
2020/01/31 09:04:15.1	316.700	0.140	-0.460	0.350
2020/01/31 09:04:15.2	316.710	0.120	-0.430	0.320
2020/01/31 09:04:15.3	316.710	0.100	-0.400	0.300
2020/01/31 09:04:15.4	316.710	0.080	-0.370	0.280
2020/01/31 09:04:15.5	316.710	0.060	-0.340	0.260
2020/01/31 09:04:15.6	316.720	0.040	-0.320	0.250
2020/01/31 09:04:15.7	316.720	0.020	-0.290	0.230
2020/01/31 09:04:15.8	316.710	0.010	-0.260	0.220
2020/01/31 09:04:15.9	316.710	-0.000	-0.230	0.210
2020/01/31 09:04:16.0	316.710	-0.020	-0.210	0.200
2020/01/31 09:04:16.1	316.700	-0.030	-0.180	0.190
2020/01/31 09:04:16.2	316.690	-0.040	-0.160	0.180
2020/01/31 09:04:16.3	316.680	-0.050	-0.130	0.180
2020/01/31 09:04:16.4	316.650	-0.050	-0.110	0.180
2020/01/31 09:04:16.5	316.640	-0.060	-0.090	0.190
2020/01/31 09:04:16.6	316.620	-0.070	-0.070	0.190
2020/01/31 09:04:16.7	316.600	-0.070	-0.050	0.200
2020/01/31 09:04:16.8	316.590	-0.070	-0.030	0.210
2020/01/31 09:04:16.9	316.570	-0.080	-0.010	0.210
2020/01/31 09:04:17.0	316.550	-0.080	0.010	0.220
2020/01/31 09:04:17.1	316.530	-0.080	0.020	0.230
2020/01/31 09:04:17.2	316.510	-0.080	0.040	0.250
2020/01/31 09:04:17.3	316.500	-0.080	0.050	0.260
2020/01/31 09:04:17.4	316.480	-0.080	0.060	0.270
2020/01/31 09:04:17.5	316.460	-0.080	0.070	0.280
2020/01/31 09:04:17.6	316.450	-0.080	0.070	0.280
2020/01/31 09:04:17.7	316.440	-0.080	0.070	0.290
2020/01/31 09:04:17.8	316.420	-0.080	0.070	0.300
2020/01/31 09:04:17.9	316.410	-0.080	0.070	0.300
2020/01/31 09:04:18.0	316.410	-0.070	0.070	0.300
2020/01/31 09:04:18.1	316.400	-0.070	0.060	0.300
2020/01/31 09:04:18.2	316.400	-0.070	0.060	0.300
2020/01/31 09:04:18.3	316.390	-0.070	0.050	0.300
2020/01/31 09:04:18.4	316.390	-0.070	0.040	0.300
2020/01/31 09:04:18.5	316.390	-0.070	0.020	0.290
2020/01/31 09:04:18.6	316.390	-0.070	0.010	0.290
2020/01/31 09:04:18.7	316.400	-0.070	-0.000	0.280
2020/01/31 09:04:18.8	316.400	-0.070	-0.020	0.280
2020/01/31 09:04:18.9	316.410	-0.070	-0.030	0.270
2020/01/31 09:04:19.0	316.420	-0.070	-0.050	0.270
2020/01/31 09:04:19.1	316.430	-0.070	-0.060	0.260
2020/01/31 09:04:19.2	316.440	-0.080	-0.080	0.250
2020/01/31 09:04:19.3	316.450	-0.080	-0.100	0.240
2020/01/31 09:04:19.4	316.450	-0.080	-0.110	0.230
2020/01/31 09:04:19.5	316.470	-0.090	-0.130	0.220
2020/01/31 09:04:19.6	316.480	-0.090	-0.140	0.210
2020/01/31 09:04:19.7	316.500	-0.100	-0.150	0.200
2020/01/31 09:04:19.8	316.510	-0.110	-0.160	0.190
2020/01/31 09:04:19.9	316.530	-0.110	-0.170	0.170
2020/01/31 09:04:20.0	316.550	-0.120	-0.180	0.160
2020/01/31 09:04:20.1	316.560	-0.130	-0.190	0.140
2020/01/31 09:04:20.2	316.580	-0.130	-0.190	0.130
2020/01/31 09:04:20.3	316.600	-0.140	-0.200	0.110
2020/01/31 09:04:20.4	316.620	-0.150	-0.200	0.090
2020/01/31 09:04:20.5	316.640	-0.160	-0.200	0.080
2020/01/31 09:04:20.6	316.650	-0.160	-0.190	0.060
2020/01/31 09:04:20.7	316.660	-0.170	-0.190	0.050
2020/01/31 09:04:20.8	316.680	-0.180	-0.180	0.030
2020/01/31 09:04:20.9	316.690	-0.190	-0.180	0.020
2020/01/31 09:04:21.0	316.700	-0.190	-0.170	0.010
2020/01/31 09:04:21.1	316.710	-0.200	-0.160	-0.000
2020/01/31 09:04:21.2	316.710	-0.210	-0.140	-0.010
2020/01/31 09:04:21.3	316.720	-0.210	-0.130	-0.020
2020/01/31 09:04:21.4	316.730	-0.220	-0.110	-0.020
2020/01/31 09:04:21.5	316.740	-0.220	-0.090	-0.020
2020/01/31 09:04:21.6	316.730	-0.230	-0.070	-0.020
2020/01/31 09:04:21.7	316.730	-0.230	-0.050	-0.020
2020/01/31 09:04:21.8	316.730	-0.230	-0.030	-0.020
2020/01/31 09:04:21.9	316.720	-0.240	-0.010	-0.010
2020/01/31 09:04:22.0	316.710	-0.240	0.010	-0.000
2020/01/31 09:04:22.1	316.700	-0.240	0.030	0.000
2020/01/31 09:04:22.2	316.690	-0.240	0.050	0.020
2020/01/31 09:04:22.3	316.680	-0.240	0.070	0.030
2020/01/31 09:04:22.4	316.660	-0.240	0.080	0.040
2020/01/31 09:04:22.5	316.640	-0.240	0.090	0.060
2020/01/31 09:04:22.6	316.620	-0.240	0.110	0.080
2020/01/31 09:04:22.7	316.610	-0.240	0.120	0.100
2020/01/31 09:04:22.8	316.590	-0.240	0.120	0.120
2020/01/31 09:04:22.9	316.570	-0.240	0.130	0.140
2020/01/31 09:04:23.0	316.550	-0.230	0.130	0.160
2020/01/31 09:04:23.1	316.530	-0.230	0.130	0.180
2020/01/31 09:04:23.2	316.510	-0.220	0.120	0.200
2020/01/31 09:04:23.3	316.500	-0.220	0.110	0.220
2020/01/31 09:04:23.4	316.490	-0.210	0.100	0.240
2020/01/31 09:04:23.5	316.470	-0.200	0.080	0.250
2020/01/31 09:04:23.6	316.460	-0.190	0.060	0.270
2020/01/31 09:04:23.7	316.440	-0.180	0.030	0.290
2020/01/31 09:04:23.8	316.430	-0.170	0.000	0.300
2020/01/31 09:04:23.9	316.420	-0.150	-0.030	0.310
2020/01/31 09:04:24.0	316.400	-0.130	-0.060	0.330
2020/01/31 09:04:24.1	316.390	-0.120	-0.100	0.340
2020/01/31 09:04:24.2	316.380	-0.100	-0.140	0.350
2020/01/31 09:04:24.3	316.370	-0.080	-0.180	0.360
2020/01/31 09:04:24.4	316.360	-0.050	-0.220	0.370
2020/01/31 09:04:24.5	316.350	-0.030	-0.260	0.380
2020/01/31 09:04:24.6	316.330	-0.000	-0.300	0.400
2020/01/31 09:04:24.7	316.320	0.020	-0.350	0.410
2020/01/31 09:04:24.8	316.310	0.050	-0.390	0.420
2020/01/31 09:04:24.9	316.290	0.080	-0.430	0.430
2020/01/31 09:04:25.0	316.280	0.110	-0.470	0.450
2020/01/31 09:04:25.1	316.260	0.140	-0.500	0.460
2020/01/31 09:04:25.2	316.250	0.170	-0.540	0.480
2020/01/31 09:04:25.3	316.230	0.200	-0.570	0.500
2020/01/31 09:04:25.4	316.220	0.240	-0.600	0.510
2020/01/31 09:04:25.5	316.210	0.270	-0.630	0.530
2020/01/31 09:04:25.6	316.190	0.300	-0.660	0.550
2020/01/31 09:04:25.7	316.180	0.330	-0.680	0.570
2020/01/31 09:04:25.8	316.170	0.360	-0.700	0.590
2020/01/31 09:04:25.9	316.160	0.390	-0.720	0.610
2020/01/31 09:04:26.0	316.150	0.420	-0.740	0.620
2020/01/31 09:04:26.1	316.140	0.450	-0.750	0.640
2020/01/31 09:04:26.2	316.130	0.470	-0.770	0.660
2020/01/31 09:04:26.3	316.120	0.490	-0.780	0.670
2020/01/31 09:04:26.4	316.120	0.520	-0.790	0.690
2020/01/31 09:04:26.5	316.110	0.530	-0.790	0.700
2020/01/31 09:04:26.6	316.110	0.550	-0.800	0.710
2020/01/31 09:04:26.7	316.120	0.560	-0.810	0.710
2020/01/31 09:04:26.8	316.120	0.580	-0.810	0.720
2020/01/31 09:04:26.9	316.120	0.580	-0.810	0.720
2020/01/31 09:04:27.0	316.130	0.590	-0.810	0.720
2020/01/31 09:04:27.1	316.140	0.590	-0.810	0.710
2020/01/31 09:04:27.2	316.150	0.590	-0.810	0.710
2020/01/31 09:04:27.3	316.160	0.580	-0.800	0.700
2020/01/31 09:04:27.4	316.160	0.570	-0.790	0.690
2020/01/31 09:04:27.5	316.180	0.560	-0.780	0.680
2020/01/31 09:04:27.6	316.190	0.540	-0.770	0.660
2020/01/31 09:04:27.7	316.210	0.530	-0.760	0.650
2020/01/31 09:04:27.8	316.220	0.500	-0.740	0.630
2020/01/31 09:04:27.9	316.240	0.480	-0.720	0.610
2020/01/31 09:04:28.0	316.260	0.450	-0.700	0.580
2020/01/31 09:04:28.1	316.280	0.420	-0.680	0.560
2020/01/31 09:04:28.2	316.300	0.380	-0.650	0.530
2020/01/31 09:04:28.3	316.320	0.340	-0.620	0.500
2020/01/31 09:04:28.4	316.340	0.310	-0.590	0.470
2020/01/31 09:04:28.5	316.360	0.260	-0.560	0.440
2020/01/31 09:04:28.6	316.380	0.220	-0.520	0.410
2020/01/31 09:04:28.7	316.410	0.180	-0.480	0.370
2020/01/31 09:04:28.8	316.430	0.130	-0.440	0.340
2020/01/31 09:04:28.9	316.440	0.080	-0.390	0.310
2020/01/31 09:04:29.0	316.460	0.030	-0.350	0.280
2020/01/31 09:04:29.1	316.480	-0.010	-0.300	0.250
2020/01/31 09:04:29.2	316.490	-0.060	-0.250	0.220
2020/01/31 09:04:29.3	316.500	-0.110	-0.200	0.200
2020/01/31 09:04:29.4	316.510	-0.160	-0.140	0.170
2020/01/31 09:04:29.5	316.520	-0.200	-0.090	0.150
2020/01/31 09:04:29.6	316.530	-0.250	-0.040	0.130
2020/01/31 09:04:29.7	316.530	-0.290	0.020	0.110
2020/01/31 09:04:29.8	316.540	-0.340	0.070	0.090
2020/01/31 09:04:29.9	316.540	-0.380	0.120	0.070
2020/01/31 09:04:30.0	316.540	-0.420	0.170	0.050
2020/01/31 09:04:30.1	316.540	-0.450	0.210	0.030
2020/01/31 09:04:30.2	316.540	-0.480	0.250	0.010
2020/01/31 09:04:30.3	316.540	-0.510	0.290	-0.010
2020/01/31 09:04:30.4	316.530	-0.540	0.330	-0.030
2020/01/31 09:04:30.5	316.530	-0.560	0.360	-0.050
2020/01/31 09:04:30.6	316.530	-0.580	0.390	-0.070
2020/01/31 09:04:30.7	316.530	-0.600	0.410	-0.090
2020/01/31 09:04:30.8	316.530	-0.610	0.430	-0.110
2020/01/31 09:04:30.9	316.530	-0.620	0.440	-0.130
2020/01/31 09:04:31.0	316.530	-0.630	0.450	-0.150
2020/01/31 09:04:31.1	316.530	-0.630	0.460	-0.170
2020/01/31 09:04:31.2	316.530	-0.630	0.450	-0.180
2020/01/31 09:04:31.3	316.530	-0.630	0.450	-0.200
2020/01/31 09:04:31.4	316.540	-0.620	0.430	-0.220
2020/01/31 09:04:31.5	316.540	-0.610	0.420	-0.230
2020/01/31 09:04:31.6	316.540	-0.590	0.400	-0.250
2020/01/31 09:04:31.7	316.540	-0.570	0.370	-0.260
2020/01/31 09:04:31.8	316.530	-0.550	0.340	-0.270
2020/01/31 09:04:31.9	316.530	-0.530	0.310	-0.280
2020/01/31 09:04:32.0	316.530	-0.510	0.280	-0.290
2020/01/31 09:04:32.1	316.530	-0.480	0.240	-0.290
2020/01/31 09:04:32.2	316.520	-0.450	0.200	-0.300
2020/01/31 09:04:32.3	316.520	-0.420	0.160	-0.300
2020/01/31 09:04:32.4	316.520	-0.390	0.110	-0.300
2020/01/31 09:04:32.5	316.510	-0.360	0.070	-0.300
2020/01/31 09:04:32.6	316.510	-0.330	0.020	-0.290
2020/01/31 09:04:32.7	316.500	-0.300	-0.020	-0.290
2020/01/31 09:04:32.8	316.500	-0.270	-0.070	-0.280
2020/01/31 09:04:32.9	316.490	-0.230	-0.110	-0.280
2020/01/31 09:04:33.0	316.480	-0.200	-0.160	-0.270
2020/01/31 09:04:33.1	316.480	-0.170	-0.200	-0.250
2020/01/31 09:04:33.2	316.470	-0.140	-0.240	-0.240
2020/01/31 09:04:33.3	316.460	-0.110	-0.280	-0.220
2020/01/31 09:04:33.4	316.450	-0.080	-0.310	-0.200
2020/01/31 09:04:33.5	316.440	-0.050	-0.350	-0.180
2020/01/31 09:04:33.6	316.430	-0.030	-0.380	-0.160
2020/01/31 09:04:33.7	316.420	-0.000	-0.410	-0.130
2020/01/31 09:04:33.8	316.410	0.020	-0.430	-0.110
2020/01/31 09:04:33.9	316.400	0.040	-0.450	-0.080
2020/01/31 09:04:34.0	316.380	0.060	-0.470	-0.050
2020/01/31 09:04:34.1	316.370	0.080	-0.490	-0.010
2020/01/31 09:04:34.2	316.350	0.100	-0.500	0.020
2020/01/31 09:04:34.3	316.340	0.120	-0.500	0.060
2020/01/31 09:04:34.4	316.330	0.130	-0.510	0.090
2020/01/31 09:04:34.5	316.320	0.140	-0.510	0.130
2020/01/31 09:04:34.6	316.300	0.150	-0.500	0.170
2020/01/31 09:04:34.7	316.280	0.160	-0.490	0.210
2020/01/31 09:04:34.8	316.260	0.170	-0.480	0.250
2020/01/31 09:04:34.9	316.240	0.170	-0.470	0.290
2020/01/31 09:04:35.0	316.220	0.180	-0.450	0.330
2020/01/31 09:04:35.1	316.200	0.180	-0.430	0.370
2020/01/31 09:04:35.2	316.180	0.180	-0.410	0.410
2020/01/31 09:04:35.3	316.160	0.180	-0.390	0.460
2020/01/31 09:04:35.4	316.150	0.190	-0.360	0.500
2020/01/31 09:04:35.5	316.130	0.190	-0.330	0.540
2020/01/31 09:04:35.6	316.110	0.190	-0.310	0.580
2020/01/31 09:04:35.7	316.100	0.190	-0.280	0.610
2020/01/31 09:04:35.8	316.080	0.190	-0.250	0.650
2020/01/31 09:04:35.9	316.060	0.190	-0.220	0.680
2020/01/31 09:04:36.0	316.050	0.190	-0.200	0.710
2020/01/31 09:04:36.1	316.040	0.190	-0.170	0.740
2020/01/31 09:04:36.2	316.030	0.190	-0.150	0.770
2020/01/31 09:04:36.3	316.020	0.190	-0.130	0.790
2020/01/31 09:04:36.4	316.010	0.190	-0.100	0.820
2020/01/31 09:04:36.5	316.000	0.200	-0.080	0.840
2020/01/31 09:04:36.6	316.000	0.200	-0.070	0.850
2020/01/31 09:04:36.7	315.990	0.200	-0.050	0.870
2020/01/31 09:04:36.8	315.990	0.210	-0.040	0.880
2020/01/31 09:04:36.9	315.990	0.210	-0.030	0.880
2020/01/31 09:04:37.0	315.990	0.220	-0.030	0.890
2020/01/31 09:04:37.1	315.990	0.220	-0.030	0.890
2020/01/31 09:04:37.2	316.000	0.230	-0.030	0.880
2020/01/31 09:04:37.3	316.000	0.240	-0.030	0.880
2020/01/31 09:04:37.4	316.010	0.240	-0.050	0.870
2020/01/31 09:04:37.5	316.020	0.250	-0.060	0.860
2020/01/31 09:04:37.6	316.020	0.260	-0.070	0.840
2020/01/31 09:04:37.7	316.030	0.260	-0.090	0.830
2020/01/31 09:04:37.8	316.040	0.270	-0.110	0.810
2020/01/31 09:04:37.9	316.040	0.270	-0.130	0.790
2020/01/31 09:04:38.0	316.050	0.280	-0.160	0.780
2020/01/31 09:04:38.1	316.060	0.280	-0.190	0.750
2020/01/31 09:04:38.2	316.070	0.280	-0.220	0.730
2020/01/31 09:04:38.3	316.080	0.290	-0.250	0.710
2020/01/31 09:04:38.4	316.100	0.290	-0.280	0.690
2020/01/31 09:04:38.5	316.110	0.290	-0.310	0.660
2020/01/31 09:04:38.6	316.120	0.290	-0.350	0.640
2020/01/31 09:04:38.7	316.140	0.290	-0.380	0.610
2020/01/31 09:04:38.8	316.150	0.290	-0.410	0.580
2020/01/31 09:04:38.9	316.160	0.290	-0.450	0.560
2020/01/31 09:04:39.0	316.180	0.280	-0.480	0.530
2020/01/31 09:04:39.1	316.190	0.280	-0.510	0.510
2020/01/31 09:04:39.2	316.200	0.270	-0.540	0.490
2020/01/31 09:04:39.3	316.220	0.270	-0.560	0.460
2020/01/31 09:04:39.4	316.240	0.260	-0.590	0.440
2020/01/31 09:04:39.5	316.260	0.250	-0.610	0.420
2020/01/31 09:04:39.6	316.270	0.250	-0.630	0.400
2020/01/31 09:04:39.7	316.280	0.240	-0.650	0.390
2020/01/31 09:04:39.8	316.290	0.230	-0.660	0.370
2020/01/31 09:04:39.9	316.310	0.220	-0.670	0.360
2020/01/31 09:04:40.0	316.320	0.210	-0.680	0.340
2020/01/31 09:04:40.1	316.320	0.200	-0.680	0.330
2020/01/31 09:04:40.2	316.330	0.190	-0.680	0.330
2020/01/31 09:04:40.3	316.340	0.180	-0.680	0.320
2020/01/31 09:04:40.4	316.360	0.170	-0.670	0.310
2020/01/31 09:04:40.5	316.360	0.160	-0.660	0.310
2020/01/31 09:04:40.6	316.360	0.150	-0.650	0.300
2020/01/31 09:04:40.7	316.360	0.140	-0.630	0.300
2020/01/31 09:04:40.8	316.360	0.130	-0.610	0.300
2020/01/31 09:04:40.9	316.360	0.120	-0.590	0.300
2020/01/31 09:04:41.0	316.350	0.110	-0.560	0.300
2020/01/31 09:04:41.1	316.350	0.090	-0.530	0.290
2020/01/31 09:04:41.2	316.340	0.080	-0.500	0.290
2020/01/31 09:04:41.3	316.340	0.060	-0.470	0.290
2020/01/31 09:04:41.4	316.340	0.050	-0.450	0.280
2020/01/31 09:04:41.5	316.330	0.030	-0.410	0.270
2020/01/31 09:04:41.6	316.320	0.010	-0.380	0.260
2020/01/31 09:04:41.7	316.320	-0.010	-0.350	0.250
2020/01/31 09:04:41.8	316.320	-0.030	-0.320	0.240
2020/01/31 09:04:41.9	316.310	-0.050	-0.290	0.220
2020/01/31 09:04:42.0	316.310	-0.070	-0.260	0.200
2020/01/31 09:04:42.1	316.310	-0.090	-0.230	0.170
2020/01/31 09:04:42.2	316.310	-0.110	-0.210	0.150
2020/01/31 09:04:42.3	316.320	-0.140	-0.180	0.120
2020/01/31 09:04:42.4	316.320	-0.160	-0.160	0.090
2020/01/31 09:04:42.5	316.330	-0.190	-0.140	0.060
2020/01/31 09:04:42.6	316.330	-0.210	-0.120	0.020
2020/01/31 09:04:42.7	316.340	-0.240	-0.100	-0.020
2020/01/31 09:04:42.8	316.350	-0.270	-0.090	-0.050
2020/01/31 09:04:42.9	316.360	-0.290	-0.070	-0.090
2020/01/31 09:04:43.0	316.380	-0.320	-0.060	-0.130
2020/01/31 09:04:43.1	316.390	-0.350	-0.050	-0.170
2020/01/31 09:04:43.2	316.400	-0.370	-0.040	-0.210
2020/01/31 09:04:43.3	316.420	-0.400	-0.030	-0.250
2020/01/31 09:04:43.4	316.440	-0.420	-0.020	-0.290
2020/01/31 09:04:43.5	316.450	-0.450	-0.010	-0.320
2020/01/31 09:04:43.6	316.470	-0.470	-0.000	-0.360
2020/01/31 09:04:43.7	316.480	-0.490	0.000	-0.390
2020/01/31 09:04:43.8	316.500	-0.510	0.010	-0.420
2020/01/31 09:04:43.9	316.510	-0.530	0.020	-0.450
2020/01/31 09:04:44.0	316.520	-0.550	0.020	-0.480
2020/01/31 09:04:44.1	316.530	-0.560	0.030	-0.500
2020/01/31 09:04:44.2	316.540	-0.580	0.040	-0.520
2020/01/31 09:04:44.3	316.550	-0.590	0.050	-0.540
2020/01/31 09:04:44.4	316.560	-0.600	0.050	-0.550
2020/01/31 09:04:44.5	316.560	-0.600	0.060	-0.560
2020/01/31 09:04:44.6	316.570	-0.600	0.070	-0.570
2020/01/31 09:04:44.7	316.580	-0.600	0.080	-0.570
2020/01/31 09:04:44.8	316.580	-0.600	0.090	-0.560
2020/01/31 09:04:44.9	316.580	-0.600	0.100	-0.550
2020/01/31 09:04:45.0	316.580	-0.590	0.110	-0.540
2020/01/31 09:04:45.1	316.580	-0.580	0.120	-0.520
2020/01/31 09:04:45.2	316.570	-0.560	0.140	-0.490
2020/01/31 09:04:45.3	316.560	-0.550	0.150	-0.460
2020/01/31 09:04:45.4	316.570	-0.530	0.160	-0.420
2020/01/31 09:04:45.5	316.560	-0.510	0.170	-0.380
2020/01/31 09:04:45.6	316.540	-0.480	0.180	-0.330
2020/01/31 09:04:45.7	316.520	-0.460	0.190	-0.280
2020/01/31 09:04:45.8	316.500	-0.430	0.200	-0.230
2020/01/31 09:04:45.9	316.480	-0.400	0.210	-0.170
2020/01/31 09:04:46.0	316.450	-0.370	0.210	-0.120
2020/01/31 09:04:46.1	316.430	-0.340	0.220	-0.060
2020/01/31 09:04:46.2	316.400	-0.300	0.220	0.010
2020/01/31 09:04:46.3	316.370	-0.270	0.210	0.070
2020/01/31 09:04:46.4	316.350	-0.230	0.210	0.140
2020/01/31 09:04:46.5	316.320	-0.190	0.200	0.200
2020/01/31 09:04:46.6	316.290	-0.150	0.190	0.260
2020/01/31 09:04:46.7	316.260	-0.110	0.170	0.320
2020/01/31 09:04:46.8	316.220	-0.070	0.160	0.380
2020/01/31 09:04:46.9	316.190	-0.040	0.130	0.440
2020/01/31 09:04:47.0	316.160	0.000	0.110	0.490
2020/01/31 09:04:47.1	316.130	0.040	0.080	0.540
2020/01/31 09:04:47.2	316.110	0.080	0.050	0.590
2020/01/31 09:04:47.3	316.080	0.120	0.020	0.640
2020/01/31 09:04:47.4	316.040	0.160	-0.020	0.690
2020/01/31 09:04:47.5	316.020	0.190	-0.060	0.730
2020/01/31 09:04:47.6	316.000	0.230	-0.100	0.770
2020/01/31 09:04:47.7	315.980	0.260	-0.140	0.800
2020/01/31 09:04:47.8	315.960	0.300	-0.180	0.840
2020/01/31 09:04:47.9	315.940	0.330	-0.230	0.870
2020/01/31 09:04:48.0	315.930	0.360	-0.270	0.900
2020/01/31 09:04:48.1	315.920	0.390	-0.310	0.920
2020/01/31 09:04:48.2	315.900	0.410	-0.360	0.950
2020/01/31 09:04:48.3	315.890	0.440	-0.400	0.970
2020/01/31 09:04:48.4	315.880	0.460	-0.430	0.990
2020/01/31 09:04:48.5	315.870	0.480	-0.470	1.010
2020/01/31 09:04:48.6	315.870	0.500	-0.510	1.020
2020/01/31 09:04:48.7	315.860	0.520	-0.540	1.040
2020/01/31 09:04:48.8	315.860	0.530	-0.570	1.050
2020/01/31 09:04:48.9	315.850	0.540	-0.600	1.060
2020/01/31 09:04:49.0	315.850	0.550	-0.620	1.070
2020/01/31 09:04:49.1	315.850	0.560	-0.650	1.080
2020/01/31 09:04:49.2	315.850	0.570	-0.660	1.090
2020/01/31 09:04:49.3	315.850	0.570	-0.680	1.090
2020/01/31 09:04:49.4	315.840	0.570	-0.690	1.090
2020/01/31 09:04:49.5	315.840	0.570	-0.700	1.090
2020/01/31 09:04:49.6	315.840	0.570	-0.710	1.090
2020/01/31 09:04:49.7	315.850	0.570	-0.720	1.080
2020/01/31 09:04:49.8	315.860	0.560	-0.720	1.070
2020/01/31 09:04:49.9	315.860	0.560	-0.720	1.060
2020/01/31 09:04:50.0	315.870	0.550	-0.720	1.040
2020/01/31 09:04:50.1	315.880	0.540	-0.720	1.020
2020/01/31 09:04:50.2	315.900	0.530	-0.720	1.000
2020/01/31 09:04:50.3	315.910	0.510	-0.710	0.970
2020/01/31 09:04:50.4	315.930	0.500	-0.710	0.940
2020/01/31 09:04:50.5	315.950	0.490	-0.700	0.910
2020/01/31 09:04:50.6	315.970	0.470	-0.690	0.870
2020/01/31 09:04:50.7	315.980	0.450	-0.690	0.830
2020/01/31 09:04:50.8	316.000	0.430	-0.680	0.790
2020/01/31 09:04:50.9	316.020	0.420	-0.670	0.740
2020/01/31 09:04:51.0	316.040	0.400	-0.660	0.700
2020/01/31 09:04:51.1	316.060	0.380	-0.650	0.650
2020/01/31 09:04:51.2	316.080	0.350	-0.640	0.590
2020/01/31 09:04:51.3	316.110	0.330	-0.630	0.540
2020/01/31 09:04:51.4	316.140	0.310	-0.610	0.490
2020/01/31 09:04:51.5	316.170	0.290	-0.600	0.430
2020/01/31 09:04:51.6	316.190	0.270	-0.590	0.370
2020/01/31 09:04:51.7	316.220	0.240	-0.570	0.310
2020/01/31 09:04:51.8	316.250	0.220	-0.560	0.250
2020/01/31 09:04:51.9	316.270	0.200	-0.540	0.190
2020/01/31 09:04:52.0	316.300	0.180	-0.520	0.130
2020/01/31 09:04:52.1	316.330	0.150	-0.500	0.070
2020/01/31 09:04:52.2	316.360	0.130	-0.480	0.010
2020/01/31 09:04:52.3	316.390	0.110	-0.460	-0.050
2020/01/31 09:04:52.4	316.430	0.090	-0.440	-0.100
2020/01/31 09:04:52.5	316.450	0.060	-0.420	-0.150
2020/01/31 09:04:52.6	316.470	0.040	-0.390	-0.200
2020/01/31 09:04:52.7	316.500	0.020	-0.370	-0.240
2020/01/31 09:04:52.8	316.520	-0.010	-0.340	-0.280
2020/01/31 09:04:52.9	316.530	-0.030	-0.310	-0.320
2020/01/31 09:04:53.0	316.550	-0.050	-0.290	-0.350
2020/01/31 09:04:53.1	316.560	-0.070	-0.260	-0.380
2020/01/31 09:04:53.2	316.570	-0.100	-0.230	-0.400
2020/01/31 09:04:53.3	316.580	-0.120	-0.200	-0.430
2020/01/31 09:04:53.4	316.590	-0.140	-0.170	-0.440
2020/01/31 09:04:53.5	316.590	-0.160	-0.140	-0.450
2020/01/31 09:04:53.6	316.590	-0.190	-0.110	-0.460
2020/01/31 09:04:53.7	316.600	-0.210	-0.080	-0.470
2020/01/31 09:04:53.8	316.590	-0.230	-0.060	-0.470
2020/01/31 09:04:53.9	316.590	-0.250	-0.030	-0.480
2020/01/31 09:04:54.0	316.590	-0.270	-0.000	-0.470
2020/01/31 09:04:54.1	316.580	-0.290	0.020	-0.470
2020/01/31 09:04:54.2	316.580	-0.300	0.040	-0.470
2020/01/31 09:04:54.3	316.570	-0.320	0.060	-0.460
2020/01/31 09:04:54.4	316.570	-0.340	0.080	-0.460
2020/01/31 09:04:54.5	316.560	-0.350	0.100	-0.450
2020/01/31 09:04:54.6	316.540	-0.360	0.120	-0.440
2020/01/31 09:04:54.7	316.530	-0.370	0.130	-0.430
2020/01/31 09:04:54.8	316.520	-0.380	0.140	-0.410
2020/01/31 09:04:54.9	316.500	-0.390	0.150	-0.400
2020/01/31 09:04:55.0	316.490	-0.400	0.150	-0.380
2020/01/31 09:04:55.1	316.480	-0.400	0.160	-0.370
2020/01/31 09:04:55.2	316.460	-0.400	0.160	-0.350
2020/01/31 09:04:55.3	316.450	-0.400	0.160	-0.330
2020/01/31 09:04:55.4	316.440	-0.400	0.160	-0.310
2020/01/31 09:04:55.5	316.430	-0.390	0.150	-0.290
2020/01/31 09:04:55.6	316.420	-0.390	0.150	-0.270
2020/01/31 09:04:55.7	316.410	-0.380	0.140	-0.250
2020/01/31 09:04:55.8	316.400	-0.370	0.130	-0.230
2020/01/31 09:04:55.9	316.390	-0.360	0.120	-0.210
2020/01/31 09:04:56.0	316.380	-0.350	0.110	-0.190
2020/01/31 09:04:56.1	316.380	-0.330	0.090	-0.170
2020/01/31 09:04:56.2	316.370	-0.320	0.080	-0.150
2020/01/31 09:04:56.3	316.370	-0.300	0.070	-0.130
2020/01/31 09:04:56.4	316.360	-0.280	0.050	-0.110
2020/01/31 09:04:56.5	316.360	-0.260	0.030	-0.090
2020/01/31 09:04:56.6	316.370	-0.240	0.010	-0.070
2020/01/31 09:04:56.7	316.370	-0.220	-0.000	-0.050
2020/01/31 09:04:56.8	316.370	-0.200	-0.020	-0.030
2020/01/31 09:04:56.9	316.380	-0.180	-0.040	-0.010
2020/01/31 09:04:57.0	316.380	-0.160	-0.050	0.010
2020/01/31 09:04:57.1	316.390	-0.140	-0.070	0.030
2020/01/31 09:04:57.2	316.400	-0.120	-0.080	0.050
2020/01/31 09:04:57.3	316.410	-0.090	-0.100	0.060
2020/01/31 09:04:57.4	316.400	-0.070	-0.110	0.080
2020/01/31 09:04:57.5	316.410	-0.050	-0.120	0.100
2020/01/31 09:04:57.6	316.420	-0.040	-0.130	0.120
2020/01/31 09:04:57.7	316.430	-0.020	-0.140	0.140
2020/01/31 09:04:57.8	316.430	-0.000	-0.150	0.160
2020/01/31 09:04:57.9	316.440	0.010	-0.160	0.180
2020/01/31 09:04:58.0	316.450	0.030	-0.160	0.200
2020/01/31 09:04:58.1	316.460	0.040	-0.170	0.220
2020/01/31 09:04:58.2	316.460	0.060	-0.170	0.250
2020/01/31 09:04:58.3	316.470	0.070	-0.170	0.270
2020/01/31 09:04:58.4	316.470	0.080	-0.170	0.300
2020/01/31 09:04:58.5	316.480	0.090	-0.170	0.330
2020/01/31 09:04:58.6	316.480	0.090	-0.170	0.360
2020/01/31 09:04:58.7	316.480	0.100	-0.160	0.390
2020/01/31 09:04:58.8	316.480	0.100	-0.160	0.420
2020/01/31 09:04:58.9	316.480	0.110	-0.150	0.450
2020/01/31 09:04:59.0	316.480	0.110	-0.150	0.480
2020/01/31 09:04:59.1	316.480	0.110	-0.140	0.510
2020/01/31 09:04:59.2	316.470	0.110	-0.140	0.540
2020/01/31 09:04:59.3	316.470	0.110	-0.130	0.580
2020/01/31 09:04:59.4	316.450	0.100	-0.120	0.610
2020/01/31 09:04:59.5	316.440	0.100	-0.120	0.640
2020/01/31 09:04:59.6	316.430	0.100	-0.120	0.670
2020/01/31 09:04:59.7	316.420	0.090	-0.110	0.700
2020/01/31 09:04:59.8	316.400	0.090	-0.110	0.730
2020/01/31 09:04:59.9	316.390	0.080	-0.110	0.750
2020/01/31 09:05:00.0	316.370	0.070	-0.110	0.780
2020/01/31 09:05:00.1	316.350	0.070	-0.110	0.800
2020/01/31 09:05:00.2	316.330	0.060	-0.110	0.830
2020/01/31 09:05:00.3	316.310	0.050	-0.110	0.850
2020/01/31 09:05:00.4	316.280	0.050	-0.120	0.870
2020/01/31 09:05:00.5	316.260	0.040	-0.120	0.890
2020/01/31 09:05:00.6	316.230	0.030	-0.130	0.900
2020/01/31 09:05:00.7	316.200	0.030	-0.130	0.920
2020/01/31 09:05:00.8	316.170	0.020	-0.140	0.930
2020/01/31 09:05:00.9	316.130	0.020	-0.150	0.940
2020/01/31 09:05:01.0	316.100	0.010	-0.160	0.950
2020/01/31 09:05:01.1	316.070	0.010	-0.170	0.960
2020/01/31 09:05:01.2	316.030	0.000	-0.180	0.960
2020/01/31 09:05:01.3	316.000	-0.000	-0.190	0.960
2020/01/31 09:05:01.4	315.940	-0.000	-0.210	0.960
2020/01/31 09:05:01.5	315.910	-0.010	-0.220	0.960
2020/01/31 09:05:01.6	315.870	-0.010	-0.240	0.950
2020/01/31 09:05:01.7	315.840	-0.010	-0.250	0.940
2020/01/31 09:05:01.8	315.800	-0.010	-0.270	0.930
2020/01/31 09:05:01.9	315.770	-0.010	-0.290	0.910
2020/01/31 09:05:02.0	315.740	-0.010	-0.310	0.890
2020/01/31 09:05:02.1	315.710	-0.010	-0.320	0.870
2020/01/31 09:05:02.2	315.680	-0.010	-0.340	0.850
2020/01/31 09:05:02.3	315.650	-0.010	-0.360	0.820
2020/01/31 09:05:02.4	315.620	-0.010	-0.390	0.790
2020/01/31 09:05:02.5	315.590	-0.010	-0.410	0.760
2020/01/31 09:05:02.6	315.570	-0.010	-0.430	0.730
2020/01/31 09:05:02.7	315.550	-0.010	-0.450	0.690
2020/01/31 09:05:02.8	315.530	-0.000	-0.470	0.650
2020/01/31 09:05:02.9	315.520	0.000	-0.490	0.610
2020/01/31 09:05:03.0	315.500	0.000	-0.510	0.570
2020/01/31 09:05:03.1	315.490	0.010	-0.530	0.530
2020/01/31 09:05:03.2	315.490	0.010	-0.550	0.490
2020/01/31 09:05:03.3	315.480	0.010	-0.570	0.440
2020/01/31 09:05:03.4	315.500	0.020	-0.590	0.400
2020/01/31 09:05:03.5	315.500	0.020	-0.610	0.350
2020/01/31 09:05:03.6	315.510	0.030	-0.630	0.300
2020/01/31 09:05:03.7	315.520	0.030	-0.640	0.250
2020/01/31 09:05:03.8	315.530	0.040	-0.660	0.200
2020/01/31 09:05:03.9	315.540	0.040	-0.670	0.140
2020/01/31 09:05:04.0	315.560	0.040	-0.690	0.090
2020/01/31 09:05:04.1	315.580	0.050	-0.700	0.040
2020/01/31 09:05:04.2	315.610	0.050	-0.710	-0.010
2020/01/31 09:05:04.3	315.630	0.060	-0.720	-0.070
2020/01/31 09:05:04.4	315.660	0.060	-0.730	-0.120
2020/01/31 09:05:04.5	315.700	0.060	-0.740	-0.170
2020/01/31 09:05:04.6	315.730	0.070	-0.740	-0.220
2020/01/31 09:05:04.7	315.770	0.070	-0.750	-0.270
2020/01/31 09:05:04.8	315.810	0.070	-0.750	-0.310
2020/01/31 09:05:04.9	315.850	0.080	-0.760	-0.360
2020/01/31 09:05:05.0	315.900	0.080	-0.760	-0.400
2020/01/31 09:05:05.1	315.940	0.080	-0.760	-0.440
2020/01/31 09:05:05.2	315.990	0.080	-0.750	-0.480
2020/01/31 09:05:05.3	316.040	0.080	-0.750	-0.520
2020/01/31 09:05:05.4	316.110	0.080	-0.750	-0.550
2020/01/31 09:05:05.5	316.160	0.080	-0.740	-0.590
2020/01/31 09:05:05.6	316.210	0.080	-0.730	-0.620
2020/01/31 09:05:05.7	316.260	0.080	-0.710	-0.640
2020/01/31 09:05:05.8	316.310	0.070	-0.700	-0.670
2020/01/31 09:05:05.9	316.360	0.070	-0.680	-0.690
2020/01/31 09:05:06.0	316.410	0.070	-0.660	-0.710
2020/01/31 09:05:06.1	316.460	0.060	-0.630	-0.720
2020/01/31 09:05:06.2	316.500	0.060	-0.600	-0.730
2020/01/31 09:05:06.3	316.550	0.050	-0.570	-0.730
2020/01/31 09:05:06.4	316.620	0.040	-0.540	-0.730
2020/01/31 09:05:06.5	316.660	0.030	-0.500	-0.720
2020/01/31 09:05:06.6	316.690	0.020	-0.460	-0.710
2020/01/31 09:05:06.7	316.720	0.010	-0.420	-0.700
2020/01/31 09:05:06.8	316.750	0.000	-0.380	-0.680
2020/01/31 09:05:06.9	316.770	-0.010	-0.330	-0.650
2020/01/31 09:05:07.0	316.800	-0.020	-0.290	-0.620
2020/01/31 09:05:07.1	316.810	-0.030	-0.240	-0.590
2020/01/31 09:05:07.2	316.830	-0.040	-0.190	-0.560
2020/01/31 09:05:07.3	316.840	-0.050	-0.140	-0.520
2020/01/31 09:05:07.4	316.860	-0.060	-0.100	-0.470
2020/01/31 09:05:07.5	316.860	-0.070	-0.050	-0.420
2020/01/31 09:05:07.6	316.870	-0.090	-0.000	-0.380
2020/01/31 09:05:07.7	316.870	-0.100	0.040	-0.330
2020/01/31 09:05:07.8	316.870	-0.110	0.090	-0.280
2020/01/31 09:05:07.9	316.870	-0.120	0.130	-0.230
2020/01/31 09:05:08.0	316.870	-0.130	0.170	-0.180
2020/01/31 09:05:08.1	316.860	-0.130	0.200	-0.130
2020/01/31 09:05:08.2	316.860	-0.140	0.240	-0.090
2020/01/31 09:05:08.3	316.850	-0.150	0.270	-0.040
2020/01/31 09:05:08.4	316.850	-0.160	0.300	0.000
2020/01/31 09:05:08.5	316.840	-0.160	0.320	0.050
2020/01/31 09:05:08.6	316.840	-0.170	0.340	0.090
2020/01/31 09:05:08.7	316.830	-0.170	0.360	0.130
2020/01/31 09:05:08.8	316.820	-0.170	0.370	0.160
2020/01/31 09:05:08.9	316.810	-0.170	0.390	0.200
2020/01/31 09:05:09.0	316.800	-0.170	0.390	0.230
2020/01/31 09:05:09.1	316.780	-0.170	0.400	0.270
2020/01/31 09:05:09.2	316.770	-0.170	0.410	0.300
2020/01/31 09:05:09.3	316.750	-0.170	0.410	0.330
2020/01/31 09:05:09.4	316.710	-0.160	0.410	0.350
2020/01/31 09:05:09.5	316.690	-0.160	0.410	0.380
2020/01/31 09:05:09.6	316.670	-0.150	0.410	0.400
2020/01/31 09:05:09.7	316.650	-0.140	0.400	0.430
2020/01/31 09:05:09.8	316.620	-0.130	0.400	0.450
2020/01/31 09:05:09.9	316.590	-0.130	0.390	0.480
2020/01/31 09:05:10.0	316.560	-0.120	0.390	0.500
2020/01/31 09:05:10.1	316.530	-0.110	0.380	0.520
2020/01/31 09:05:10.2	316.500	-0.100	0.380	0.540
2020/01/31 09:05:10.3	316.470	-0.090	0.370	0.560
2020/01/31 09:05:10.4	316.430	-0.080	0.360	0.570
2020/01/31 09:05:10.5	316.390	-0.070	0.350	0.590
2020/01/31 09:05:10.6	316.350	-0.060	0.350	0.600
2020/01/31 09:05:10.7	316.310	-0.050	0.340	0.610
2020/01/31 09:05:10.8	316.270	-0.040	0.330	0.620
2020/01/31 09:05:10.9	316.230	-0.030	0.320	0.630
2020/01/31 09:05:11.0	316.180	-0.020	0.310	0.630
2020/01/31 09:05:11.1	316.140	-0.010	0.300	0.640
2020/01/31 09:05:11.2	316.100	0.000	0.280	0.640
2020/01/31 09:05:11.3	316.050	0.010	0.270	0.640
2020/01/31 09:05:11.4	316.000	0.020	0.260	0.640
2020/01/31 09:05:11.5	315.950	0.030	0.240	0.640
2020/01/31 09:05:11.6	315.910	0.040	0.220	0.640
2020/01/31 09:05:11.7	315.870	0.050	0.210	0.630
2020/01/31 09:05:11.8	315.820	0.060	0.190	0.630
2020/01/31 09:05:11.9	315.780	0.070	0.170	0.620
2020/01/31 09:05:12.0	315.730	0.080	0.150	0.610
2020/01/31 09:05:12.1	315.690	0.090	0.130	0.610
2020/01/31 09:05:12.2	315.650	0.110	0.100	0.600
2020/01/31 09:05:12.3	315.610	0.120	0.080	0.590
2020/01/31 09:05:12.4	315.560	0.130	0.040	0.580
2020/01/31 09:05:12.5	315.520	0.140	0.010	0.560
2020/01/31 09:05:12.6	315.490	0.150	-0.020	0.550
2020/01/31 09:05:12.7	315.460	0.160	-0.050	0.540
2020/01/31 09:05:12.8	315.430	0.170	-0.080	0.520
2020/01/31 09:05:12.9	315.400	0.180	-0.120	0.510
2020/01/31 09:05:13.0	315.370	0.190	-0.160	0.490
2020/01/31 09:05:13.1	315.350	0.200	-0.200	0.470
2020/01/31 09:05:13.2	315.330	0.210	-0.240	0.460
2020/01/31 09:05:13.3	315.310	0.220	-0.280	0.430
2020/01/31 09:05:13.4	315.300	0.230	-0.330	0.410
2020/01/31 09:05:13.5	315.290	0.240	-0.370	0.390
2020/01/31 09:05:13.6	315.280	0.240	-0.420	0.370
2020/01/31 09:05:13.7	315.280	0.250	-0.460	0.340
2020/01/31 09:05:13.8	315.280	0.250	-0.510	0.320
2020/01/31 09:05:13.9	315.280	0.250	-0.560	0.290
2020/01/31 09:05:14.0	315.290	0.260	-0.600	0.260
2020/01/31 09:05:14.1	315.300	0.260	-0.650	0.230
2020/01/31 09:05:14.2	315.310	0.260	-0.700	0.200
2020/01/31 09:05:14.3	315.320	0.250	-0.740	0.180
2020/01/31 09:05:14.4	315.360	0.250	-0.790	0.150
2020/01/31 09:05:14.5	315.380	0.250	-0.830	0.120
2020/01/31 09:05:14.6	315.410	0.240	-0.870	0.090
2020/01/31 09:05:14.7	315.430	0.240	-0.910	0.060
2020/01/31 09:05:14.8	315.460	0.230	-0.950	0.030
2020/01/31 09:05:14.9	315.480	0.220	-0.980	0.000
2020/01/31 09:05:15.0	315.510	0.210	-1.010	-0.020
2020/01/31 09:05:15.1	315.540	0.200	-1.030	-0.050
2020/01/31 09:05:15.2	315.570	0.190	-1.060	-0.080
2020/01/31 09:05:15.3	315.610	0.170	-1.080	-0.100
2020/01/31 09:05:15.4	315.670	0.160	-1.090	-0.120
2020/01/31 09:05:15.5	315.700	0.140	-1.100	-0.150
2020/01/31 09:05:15.6	315.730	0.130	-1.110	-0.170
2020/01/31 09:05:15.7	315.770	0.110	-1.120	-0.190
2020/01/31 09:05:15.8	315.800	0.100	-1.120	-0.210
2020/01/31 09:05:15.9	315.840	0.080	-1.120	-0.240
2020/01/31 09:05:16.0	315.870	0.060	-1.110	-0.260
2020/01/31 09:05:16.1	315.910	0.040	-1.100	-0.280
2020/01/31 09:05:16.2	315.950	0.030	-1.090	-0.300
2020/01/31 09:05:16.3	315.990	0.010	-1.080	-0.310
2020/01/31 09:05:16.4	316.040	-0.010	-1.060	-0.340
2020/01/31 09:05:16.5	316.080	-0.030	-1.040	-0.350
2020/01/31 09:05:16.6	316.110	-0.040	-1.020	-0.370
2020/01/31 09:05:16.7	316.150	-0.060	-0.990	-0.390
2020/01/31 09:05:16.8	316.190	-0.080	-0.970	-0.410
2020/01/31 09:05:16.9	316.230	-0.090	-0.940	-0.430
2020/01/31 09:05:17.0	316.270	-0.110	-0.910	-0.450
2020/01/31 09:05:17.1	316.300	-0.120	-0.870	-0.470
2020/01/31 09:05:17.2	316.340	-0.140	-0.840	-0.480
2020/01/31 09:05:17.3	316.380	-0.150	-0.810	-0.500
2020/01/31 09:05:17.4	316.440	-0.170	-0.770	-0.510
2020/01/31 09:05:17.5	316.470	-0.180	-0.730	-0.520
2020/01/31 09:05:17.6	316.500	-0.190	-0.690	-0.530
2020/01/31 09:05:17.7	316.540	-0.210	-0.650	-0.540
2020/01/31 09:05:17.8	316.570	-0.220	-0.610	-0.550
2020/01/31 09:05:17.9	316.590	-0.230	-0.570	-0.560
2020/01/31 09:05:18.0	316.620	-0.240	-0.520	-0.560
2020/01/31 09:05:18.1	316.650	-0.260	-0.470	-0.560
2020/01/31 09:05:18.2	316.670	-0.270	-0.430	-0.560
2020/01/31 09:05:18.3	316.690	-0.280	-0.380	-0.560
2020/01/31 09:05:18.4	316.700	-0.290	-0.330	-0.550
2020/01/31 09:05:18.5	316.710	-0.310	-0.280	-0.540
2020/01/31 09:05:18.6	316.730	-0.320	-0.220	-0.530
2020/01/31 09:05:18.7	316.740	-0.330	-0.170	-0.520
2020/01/31 09:05:18.8	316.750	-0.340	-0.120	-0.500
2020/01/31 09:05:18.9	316.750	-0.350	-0.070	-0.480
2020/01/31 09:05:19.0	316.760	-0.370	-0.010	-0.450
2020/01/31 09:05:19.1	316.760	-0.380	0.040	-0.420
2020/01/31 09:05:19.2	316.750	-0.390	0.090	-0.390
2020/01/31 09:05:19.3	316.750	-0.400	0.150	-0.350
2020/01/31 09:05:19.4	316.740	-0.410	0.200	-0.310
2020/01/31 09:05:19.5	316.730	-0.420	0.250	-0.270
2020/01/31 09:05:19.6	316.710	-0.430	0.300	-0.230
2020/01/31 09:05:19.7	316.690	-0.430	0.350	-0.180
2020/01/31 09:05:19.8	316.670	-0.440	0.400	-0.130
2020/01/31 09:05:19.9	316.650	-0.450	0.440	-0.080
2020/01/31 09:05:20.0	316.630	-0.450	0.490	-0.030
2020/01/31 09:05:20.1	316.600	-0.460	0.530	0.020
2020/01/31 09:05:20.2	316.570	-0.460	0.570	0.080
2020/01/31 09:05:20.3	316.540	-0.460	0.610	0.140
2020/01/31 09:05:20.4	316.500	-0.460	0.640	0.190
2020/01/31 09:05:20.5	316.470	-0.450	0.670	0.250
2020/01/31 09:05:20.6	316.430	-0.450	0.700	0.310
2020/01/31 09:05:20.7	316.390	-0.440	0.720	0.360
2020/01/31 09:05:20.8	316.360	-0.430	0.740	0.420
2020/01/31 09:05:20.9	316.320	-0.420	0.750	0.470
2020/01/31 09:05:21.0	316.290	-0.410	0.750	0.530
2020/01/31 09:05:21.1	316.250	-0.390	0.760	0.580
2020/01/31 09:05:21.2	316.210	-0.370	0.750	0.630
2020/01/31 09:05:21.3	316.180	-0.350	0.740	0.670
2020/01/31 09:05:21.4	316.140	-0.330	0.720	0.720
2020/01/31 09:05:21.5	316.100	-0.300	0.700	0.760
2020/01/31 09:05:21.6	316.070	-0.280	0.670	0.790
2020/01/31 09:05:21.7	316.040	-0.250	0.640	0.830
2020/01/31 09:05:21.8	316.000	-0.220	0.610	0.860
2020/01/31 09:05:21.9	315.970	-0.180	0.570	0.890
2020/01/31 09:05:22.0	315.940	-0.150	0.520	0.910
2020/01/31 09:05:22.1	315.910	-0.110	0.480	0.930
2020/01/31 09:05:22.2	315.880	-0.070	0.420	0.950
2020/01/31 09:05:22.3	315.850	-0.030	0.370	0.970
2020/01/31 09:05:22.4	315.810	0.010	0.320	0.980
2020/01/31 09:05:22.5	315.780	0.050	0.260	1.000
2020/01/31 09:05:22.6	315.750	0.100	0.200	1.010
2020/01/31 09:05:22.7	315.730	0.140	0.140	1.020
2020/01/31 09:05:22.8	315.700	0.180	0.090	1.020
2020/01/31 09:05:22.9	315.670	0.230	0.030	1.030
2020/01/31 09:05:23.0	315.650	0.270	-0.030	1.030
2020/01/31 09:05:23.1	315.630	0.310	-0.080	1.030
2020/01/31 09:05:23.2	315.610	0.350	-0.130	1.030
2020/01/31 09:05:23.3	315.580	0.400	-0.180	1.030
2020/01/31 09:05:23.4	315.540	0.440	-0.230	1.030
2020/01/31 09:05:23.5	315.520	0.470	-0.280	1.020
2020/01/31 09:05:23.6	315.510	0.510	-0.320	1.020
2020/01/31 09:05:23.7	315.500	0.550	-0.360	1.010
2020/01/31 09:05:23.8	315.480	0.580	-0.400	1.000
2020/01/31 09:05:23.9	315.480	0.610	-0.430	0.990
2020/01/31 09:05:24.0	315.470	0.640	-0.470	0.980
2020/01/31 09:05:24.1	315.470	0.670	-0.490	0.960
2020/01/31 09:05:24.2	315.470	0.690	-0.520	0.940
2020/01/31 09:05:24.3	315.470	0.720	-0.540	0.920
2020/01/31 09:05:24.4	315.470	0.740	-0.570	0.910
2020/01/31 09:05:24.5	315.470	0.750	-0.590	0.880
2020/01/31 09:05:24.6	315.480	0.770	-0.610	0.860
2020/01/31 09:05:24.7	315.490	0.780	-0.620	0.830
2020/01/31 09:05:24.8	315.510	0.780	-0.640	0.800
2020/01/31 09:05:24.9	315.520	0.790	-0.650	0.760
2020/01/31 09:05:25.0	315.540	0.790	-0.660	0.730
2020/01/31 09:05:25.1	315.560	0.780	-0.670	0.690
2020/01/31 09:05:25.2	315.580	0.770	-0.670	0.650
2020/01/31 09:05:25.3	315.600	0.760	-0.680	0.610
2020/01/31 09:05:25.4	315.630	0.750	-0.680	0.560
2020/01/31 09:05:25.5	315.650	0.730	-0.690	0.510
2020/01/31 09:05:25.6	315.680	0.710	-0.690	0.460
2020/01/31 09:05:25.7	315.710	0.680	-0.690	0.410
2020/01/31 09:05:25.8	315.730	0.660	-0.690	0.360
2020/01/31 09:05:25.9	315.760	0.620	-0.690	0.310
2020/01/31 09:05:26.0	315.790	0.590	-0.690	0.250
2020/01/31 09:05:26.1	315.820	0.550	-0.690	0.190
2020/01/31 09:05:26.2	315.860	0.510	-0.690	0.130
2020/01/31 09:05:26.3	315.890	0.470	-0.690	0.070
2020/01/31 09:05:26.4	315.930	0.430	-0.690	0.010
2020/01/31 09:05:26.5	315.970	0.380	-0.690	-0.060
2020/01/31 09:05:26.6	316.010	0.330	-0.680	-0.120
2020/01/31 09:05:26.7	316.040	0.280	-0.680	-0.190
2020/01/31 09:05:26.8	316.080	0.230	-0.670	-0.250
2020/01/31 09:05:26.9	316.120	0.180	-0.660	-0.310
2020/01/31 09:05:27.0	316.160	0.130	-0.660	-0.380
2020/01/31 09:05:27.1	316.200	0.070	-0.650	-0.440
2020/01/31 09:05:27.2	316.230	0.020	-0.640	-0.500
2020/01/31 09:05:27.3	316.270	-0.030	-0.630	-0.550
2020/01/31 09:05:27.4	316.310	-0.080	-0.620	-0.600
2020/01/31 09:05:27.5	316.340	-0.140	-0.600	-0.660
2020/01/31 09:05:27.6	316.370	-0.190	-0.580	-0.700
2020/01/31 09:05:27.7	316.410	-0.240	-0.570	-0.740
2020/01/31 09:05:27.8	316.440	-0.290	-0.540	-0.780
2020/01/31 09:05:27.9	316.470	-0.340	-0.520	-0.820
2020/01/31 09:05:28.0	316.490	-0.390	-0.500	-0.840
2020/01/31 09:05:28.1	316.520	-0.430	-0.470	-0.870
2020/01/31 09:05:28.2	316.540	-0.480	-0.440	-0.880
2020/01/31 09:05:28.3	316.550	-0.520	-0.410	-0.900
2020/01/31 09:05:28.4	316.580	-0.560	-0.380	-0.900
2020/01/31 09:05:28.5	316.590	-0.590	-0.340	-0.900
2020/01/31 09:05:28.6	316.600	-0.630	-0.310	-0.900
2020/01/31 09:05:28.7	316.610	-0.660	-0.280	-0.890
2020/01/31 09:05:28.8	316.610	-0.680	-0.240	-0.870
2020/01/31 09:05:28.9	316.610	-0.710	-0.210	-0.850
2020/01/31 09:05:29.0	316.610	-0.730	-0.180	-0.830
2020/01/31 09:05:29.1	316.600	-0.750	-0.150	-0.800
2020/01/31 09:05:29.2	316.600	-0.760	-0.120	-0.760
2020/01/31 09:05:29.3	316.580	-0.770	-0.090	-0.730
2020/01/31 09:05:29.4	316.570	-0.780	-0.060	-0.680
2020/01/31 09:05:29.5	316.560	-0.790	-0.040	-0.630
2020/01/31 09:05:29.6	316.540	-0.790	-0.010	-0.590
2020/01/31 09:05:29.7	316.520	-0.780	0.000	-0.540
2020/01/31 09:05:29.8	316.500	-0.780	0.020	-0.490
2020/01/31 09:05:29.9	316.480	-0.770	0.030	-0.430
2020/01/31 09:05:30.0	316.450	-0.750	0.040	-0.380
2020/01/31 09:05:30.1	316.430	-0.730	0.040	-0.330
2020/01/31 09:05:30.2	316.400	-0.710	0.050	-0.270
2020/01/31 09:05:30.3	316.380	-0.690	0.040	-0.210
2020/01/31 09:05:30.4	316.350	-0.660	0.040	-0.160
2020/01/31 09:05:30.5	316.330	-0.640	0.030	-0.100
2020/01/31 09:05:30.6	316.300	-0.600	0.020	-0.040
2020/01/31 09:05:30.7	316.270	-0.570	0.010	0.020
2020/01/31 09:05:30.8	316.250	-0.540	-0.010	0.070
2020/01/31 09:05:30.9	316.220	-0.500	-0.030	0.130
2020/01/31 09:05:31.0	316.200	-0.460	-0.050	0.190
2020/01/31 09:05:31.1	316.170	-0.420	-0.080	0.240
2020/01/31 09:05:31.2	316.150	-0.380	-0.100	0.300
2020/01/31 09:05:31.3	316.130	-0.340	-0.120	0.350
2020/01/31 09:05:31.4	316.110	-0.290	-0.150	0.400
2020/01/31 09:05:31.5	316.090	-0.250	-0.170	0.450
2020/01/31 09:05:31.6	316.070	-0.210	-0.200	0.500
2020/01/31 09:05:31.7	316.050	-0.170	-0.220	0.550
2020/01/31 09:05:31.8	316.030	-0.130	-0.240	0.600
2020/01/31 09:05:31.9	316.020	-0.080	-0.260	0.640
2020/01/31 09:05:32.0	316.000	-0.040	-0.280	0.680
2020/01/31 09:05:32.1	315.990	-0.010	-0.300	0.720
2020/01/31 09:05:32.2	315.980	0.030	-0.310	0.760
2020/01/31 09:05:32.3	315.960	0.070	-0.320	0.800
2020/01/31 09:05:32.4	315.940	0.100	-0.330	0.830
2020/01/31 09:05:32.5	315.930	0.130	-0.330	0.870
2020/01/31 09:05:32.6	315.910	0.160	-0.340	0.890
2020/01/31 09:05:32.7	315.900	0.190	-0.330	0.920
2020/01/31 09:05:32.8	315.890	0.210	-0.330	0.940
2020/01/31 09:05:32.9	315.880	0.240	-0.320	0.960
2020/01/31 09:05:33.0	315.870	0.260	-0.320	0.980
2020/01/31 09:05:33.1	315.860	0.280	-0.300	0.990
2020/01/31 09:05:33.2	315.850	0.290	-0.290	1.000
2020/01/31 09:05:33.3	315.840	0.310	-0.270	1.010
2020/01/31 09:05:33.4	315.840	0.320	-0.260	1.020
2020/01/31 09:05:33.5	315.830	0.330	-0.240	1.020
2020/01/31 09:05:33.6	315.820	0.340	-0.220	1.020
2020/01/31 09:05:33.7	315.820	0.350	-0.200	1.020
2020/01/31 09:05:33.8	315.820	0.350	-0.170	1.020
2020/01/31 09:05:33.9	315.810	0.350	-0.150	1.010
2020/01/31 09:05:34.0	315.810	0.360	-0.130	1.000
2020/01/31 09:05:34.1	315.810	0.360	-0.100	0.990
2020/01/31 09:05:34.2	315.810	0.350	-0.080	0.980
2020/01/31 09:05:34.3	315.820	0.350	-0.050	0.970
2020/01/31 09:05:34.4	315.820	0.340	-0.030	0.950
2020/01/31 09:05:34.5	315.820	0.340	-0.010	0.930
2020/01/31 09:05:34.6	315.820	0.330	0.010	0.910
2020/01/31 09:05:34.7	315.830	0.320	0.040	0.890
2020/01/31 09:05:34.8	315.840	0.310	0.050	0.870
2020/01/31 09:05:34.9	315.850	0.300	0.070	0.840
2020/01/31 09:05:35.0	315.860	0.290	0.090	0.810
2020/01/31 09:05:35.1	315.870	0.280	0.100	0.780
2020/01/31 09:05:35.2	315.880	0.270	0.120	0.750
2020/01/31 09:05:35.3	315.900	0.260	0.120	0.710
2020/01/31 09:05:35.4	315.890	0.240	0.130	0.670
2020/01/31 09:05:35.5	315.910	0.230	0.130	0.640
2020/01/31 09:05:35.6	315.920	0.220	0.140	0.600
2020/01/31 09:05:35.7	315.940	0.210	0.140	0.560
2020/01/31 09:05:35.8	315.950	0.200	0.130	0.520
2020/01/31 09:05:35.9	315.970	0.190	0.130	0.490
2020/01/31 09:05:36.0	315.990	0.190	0.120	0.450
2020/01/31 09:05:36.1	316.000	0.180	0.110	0.410
2020/01/31 09:05:36.2	316.020	0.170	0.100	0.370
2020/01/31 09:05:36.3	316.040	0.170	0.080	0.340
2020/01/31 09:05:36.4	316.060	0.170	0.060	0.300
2020/01/31 09:05:36.5	316.070	0.160	0.040	0.270
2020/01/31 09:05:36.6	316.090	0.160	0.020	0.240
2020/01/31 09:05:36.7	316.100	0.160	-0.000	0.200
2020/01/31 09:05:36.8	316.120	0.170	-0.030	0.170
2020/01/31 09:05:36.9	316.130	0.170	-0.050	0.140
2020/01/31 09:05:37.0	316.140	0.170	-0.080	0.110
2020/01/31 09:05:37.1	316.160	0.180	-0.110	0.090
2020/01/31 09:05:37.2	316.170	0.180	-0.140	0.060
2020/01/31 09:05:37.3	316.180	0.190	-0.170	0.040
2020/01/31 09:05:37.4	316.190	0.200	-0.200	0.010
2020/01/31 09:05:37.5	316.210	0.200	-0.230	-0.010
2020/01/31 09:05:37.6	316.220	0.210	-0.260	-0.040
2020/01/31 09:05:37.7	316.230	0.220	-0.290	-0.060
2020/01/31 09:05:37.8	316.250	0.230	-0.320	-0.090
2020/01/31 09:05:37.9	316.260	0.230	-0.360	-0.110
2020/01/31 09:05:38.0	316.270	0.240	-0.390	-0.140
2020/01/31 09:05:38.1	316.290	0.250	-0.420	-0.160
2020/01/31 09:05:38.2	316.300	0.250	-0.450	-0.180
2020/01/31 09:05:38.3	316.320	0.260	-0.470	-0.210
2020/01/31 09:05:38.4	316.320	0.260	-0.500	-0.230
2020/01/31 09:05:38.5	316.330	0.270	-0.520	-0.250
2020/01/31 09:05:38.6	316.350	0.270	-0.550	-0.270
2020/01/31 09:05:38.7	316.360	0.270	-0.570	-0.280
2020/01/31 09:05:38.8	316.370	0.270	-0.580	-0.300
2020/01/31 09:05:38.9	316.380	0.270	-0.590	-0.310
2020/01/31 09:05:39.0	316.390	0.260	-0.600	-0.320
2020/01/31 09:05:39.1	316.400	0.250	-0.610	-0.330
2020/01/31 09:05:39.2	316.410	0.250	-0.610	-0.330
2020/01/31 09:05:39.3	316.420	0.230	-0.610	-0.340
2020/01/31 09:05:39.4	316.440	0.220	-0.610	-0.330
2020/01/31 09:05:39.5	316.440	0.210	-0.600	-0.330
2020/01/31 09:05:39.6	316.440	0.190	-0.580	-0.320
2020/01/31 09:05:39.7	316.440	0.170	-0.570	-0.310
2020/01/31 09:05:39.8	316.430	0.150	-0.550	-0.300
2020/01/31 09:05:39.9	316.430	0.120	-0.530	-0.280
2020/01/31 09:05:40.0	316.430	0.100	-0.500	-0.260
2020/01/31 09:05:40.1	316.420	0.070	-0.470	-0.240
2020/01/31 09:05:40.2	316.410	0.050	-0.440	-0.220
2020/01/31 09:05:40.3	316.400	0.020	-0.410	-0.200
2020/01/31 09:05:40.4	316.410	-0.010	-0.380	-0.160
2020/01/31 09:05:40.5	316.400	-0.040	-0.340	-0.140
2020/01/31 09:05:40.6	316.390	-0.080	-0.300	-0.110
2020/01/31 09:05:40.7	316.380	-0.110	-0.270	-0.080
2020/01/31 09:05:40.8	316.360	-0.140	-0.230	-0.050
2020/01/31 09:05:40.9	316.350	-0.170	-0.190	-0.020
2020/01/31 09:05:41.0	316.340	-0.200	-0.160	0.010
2020/01/31 09:05:41.1	316.320	-0.230	-0.120	0.040
2020/01/31 09:05:41.2	316.310	-0.260	-0.090	0.070
2020/01/31 09:05:41.3	316.290	-0.290	-0.060	0.100
2020/01/31 09:05:41.4	316.280	-0.320	-0.020	0.130
2020/01/31 09:05:41.5	316.270	-0.340	0.000	0.160
2020/01/31 09:05:41.6	316.250	-0.370	0.020	0.190
2020/01/31 09:05:41.7	316.240	-0.390	0.040	0.210
2020/01/31 09:05:41.8	316.230	-0.410	0.060	0.240
2020/01/31 09:05:41.9	316.220	-0.420	0.070	0.260
2020/01/31 09:05:42.0	316.210	-0.440	0.070	0.280
2020/01/31 09:05:42.1	316.200	-0.450	0.070	0.310
2020/01/31 09:05:42.2	316.190	-0.460	0.070	0.320
2020/01/31 09:05:42.3	316.180	-0.460	0.060	0.340
2020/01/31 09:05:42.4	316.160	-0.470	0.050	0.360
2020/01/31 09:05:42.5	316.150	-0.470	0.030	0.370
2020/01/31 09:05:42.6	316.140	-0.460	0.010	0.390
2020/01/31 09:05:42.7	316.130	-0.460	-0.020	0.400
2020/01/31 09:05:42.8	316.120	-0.450	-0.050	0.410
2020/01/31 09:05:42.9	316.110	-0.440	-0.080	0.430
2020/01/31 09:05:43.0	316.100	-0.430	-0.110	0.440
2020/01/31 09:05:43.1	316.090	-0.410	-0.150	0.450
2020/01/31 09:05:43.2	316.080	-0.400	-0.190	0.460
2020/01/31 09:05:43.3	316.060	-0.380	-0.240	0.470
2020/01/31 09:05:43.4	316.060	-0.360	-0.280	0.480
2020/01/31 09:05:43.5	316.050	-0.340	-0.320	0.490
2020/01/31 09:05:43.6	316.040	-0.320	-0.370	0.500
2020/01/31 09:05:43.7	316.020	-0.290	-0.410	0.500
2020/01/31 09:05:43.8	316.010	-0.270	-0.450	0.500
2020/01/31 09:05:43.9	316.000	-0.240	-0.500	0.510
2020/01/31 09:05:44.0	315.990	-0.220	-0.540	0.510
2020/01/31 09:05:44.1	315.980	-0.190	-0.580	0.510
2020/01/31 09:05:44.2	315.970	-0.170	-0.610	0.510
2020/01/31 09:05:44.3	315.960	-0.150	-0.650	0.500
2020/01/31 09:05:44.4	315.960	-0.120	-0.680	0.500
2020/01/31 09:05:44.5	315.950	-0.100	-0.710	0.490
2020/01/31 09:05:44.6	315.950	-0.080	-0.730	0.490
2020/01/31 09:05:44.7	315.940	-0.050	-0.750	0.480
2020/01/31 09:05:44.8	315.940	-0.030	-0.770	0.480
2020/01/31 09:05:44.9	315.940	-0.020	-0.780	0.470
2020/01/31 09:05:45.0	315.930	0.000	-0.790	0.470
2020/01/31 09:05:45.1	315.940	0.020	-0.790	0.460
2020/01/31 09:05:45.2	315.940	0.030	-0.790	0.450
2020/01/31 09:05:45.3	315.940	0.040	-0.780	0.450
2020/01/31 09:05:45.4	315.950	0.060	-0.770	0.440
2020/01/31 09:05:45.5	315.950	0.060	-0.760	0.440
2020/01/31 09:05:45.6	315.960	0.070	-0.740	0.430
2020/01/31 09:05:45.7	315.970	0.080	-0.710	0.420
2020/01/31 09:05:45.8	315.980	0.080	-0.690	0.420
2020/01/31 09:05:45.9	315.990	0.080	-0.660	0.410
2020/01/31 09:05:46.0	316.000	0.080	-0.620	0.400
2020/01/31 09:05:46.1	316.010	0.080	-0.580	0.400
2020/01/31 09:05:46.2	316.020	0.080	-0.550	0.390
2020/01/31 09:05:46.3	316.040	0.070	-0.500	0.380
2020/01/31 09:05:46.4	316.060	0.070	-0.470	0.370
2020/01/31 09:05:46.5	316.080	0.060	-0.420	0.360
2020/01/31 09:05:46.6	316.100	0.050	-0.370	0.350
2020/01/31 09:05:46.7	316.120	0.040	-0.330	0.340
2020/01/31 09:05:46.8	316.130	0.040	-0.280	0.330
2020/01/31 09:05:46.9	316.150	0.030	-0.230	0.320
2020/01/31 09:05:47.0	316.180	0.020	-0.180	0.300
2020/01/31 09:05:47.1	316.200	0.010	-0.130	0.290
2020/01/31 09:05:47.2	316.220	0.010	-0.090	0.270
2020/01/31 09:05:47.3	316.240	-0.000	-0.040	0.260
2020/01/31 09:05:47.4	316.270	-0.010	0.000	0.240
2020/01/31 09:05:47.5	316.290	-0.010	0.050	0.230
2020/01/31 09:05:47.6	316.310	-0.010	0.090	0.220
2020/01/31 09:05:47.7	316.340	-0.020	0.130	0.210
2020/01/31 09:05:47.8	316.360	-0.020	0.170	0.200
2020/01/31 09:05:47.9	316.370	-0.020	0.200	0.190
2020/01/31 09:05:48.0	316.390	-0.020	0.240	0.180
2020/01/31 09:05:48.1	316.410	-0.020	0.270	0.180
2020/01/31 09:05:48.2	316.420	-0.010	0.310	0.180
2020/01/31 09:05:48.3	316.430	-0.010	0.340	0.180
2020/01/31 09:05:48.4	316.440	0.000	0.360	0.190
2020/01/31 09:05:48.5	316.440	0.010	0.390	0.200
2020/01/31 09:05:48.6	316.450	0.020	0.410	0.210
2020/01/31 09:05:48.7	316.450	0.030	0.430	0.230
2020/01/31 09:05:48.8	316.450	0.050	0.450	0.240
2020/01/31 09:05:48.9	316.460	0.060	0.460	0.260
2020/01/31 09:05:49.0	316.460	0.080	0.470	0.280
2020/01/31 09:05:49.1	316.460	0.100	0.480	0.300
2020/01/31 09:05:49.2	316.450	0.120	0.490	0.330
2020/01/31 09:05:49.3	316.450	0.140	0.490	0.350
2020/01/31 09:05:49.4	316.450	0.160	0.490	0.380
2020/01/31 09:05:49.5	316.450	0.180	0.480	0.400
2020/01/31 09:05:49.6	316.450	0.200	0.470	0.430
2020/01/31 09:05:49.7	316.440	0.230	0.450	0.450
2020/01/31 09:05:49.8	316.440	0.250	0.430	0.480
2020/01/31 09:05:49.9	316.440	0.270	0.410	0.500
2020/01/31 09:05:50.0	316.430	0.290	0.380	0.520
2020/01/31 09:05:50.1	316.420	0.320	0.350	0.540
2020/01/31 09:05:50.2	316.420	0.340	0.320	0.560
2020/01/31 09:05:50.3	316.410	0.360	0.290	0.580
2020/01/31 09:05:50.4	316.390	0.380	0.250	0.600
2020/01/31 09:05:50.5	316.380	0.400	0.220	0.610
2020/01/31 09:05:50.6	316.360	0.420	0.180	0.620
2020/01/31 09:05:50.7	316.350	0.430	0.140	0.640
2020/01/31 09:05:50.8	316.340	0.450	0.100	0.640
2020/01/31 09:05:50.9	316.320	0.460	0.070	0.650
2020/01/31 09:05:51.0	316.300	0.470	0.030	0.660
2020/01/31 09:05:51.1	316.280	0.480	-0.000	0.660
2020/01/31 09:05:51.2	316.260	0.480	-0.040	0.660
2020/01/31 09:05:51.3	316.240	0.480	-0.070	0.660
2020/01/31 09:05:51.4	316.190	0.480	-0.100	0.660
2020/01/31 09:05:51.5	316.170	0.480	-0.130	0.660
2020/01/31 09:05:51.6	316.140	0.470	-0.160	0.650
2020/01/31 09:05:51.7	316.120	0.460	-0.190	0.640
2020/01/31 09:05:51.8	316.090	0.450	-0.220	0.630
2020/01/31 09:05:51.9	316.070	0.440	-0.240	0.620
2020/01/31 09:05:52.0	316.040	0.420	-0.270	0.600
2020/01/31 09:05:52.1	316.020	0.400	-0.290	0.580
2020/01/31 09:05:52.2	315.990	0.380	-0.310	0.560
2020/01/31 09:05:52.3	315.970	0.360	-0.330	0.530
2020/01/31 09:05:52.4	315.950	0.330	-0.360	0.510
2020/01/31 09:05:52.5	315.930	0.310	-0.380	0.480
2020/01/31 09:05:52.6	315.910	0.280	-0.400	0.450
2020/01/31 09:05:52.7	315.890	0.250	-0.420	0.410
2020/01/31 09:05:52.8	315.870	0.220	-0.440	0.380
2020/01/31 09:05:52.9	315.860	0.190	-0.460	0.340
2020/01/31 09:05:53.0	315.840	0.160	-0.480	0.300
2020/01/31 09:05:53.1	315.830	0.130	-0.500	0.260
2020/01/31 09:05:53.2	315.820	0.100	-0.520	0.220
2020/01/31 09:05:53.3	315.810	0.070	-0.540	0.180
2020/01/31 09:05:53.4	315.800	0.040	-0.560	0.130
2020/01/31 09:05:53.5	315.800	0.010	-0.580	0.090
2020/01/31 09:05:53.6	315.790	-0.010	-0.600	0.050
2020/01/31 09:05:53.7	315.790	-0.040	-0.620	0.000
2020/01/31 09:05:53.8	315.790	-0.060	-0.640	-0.040
2020/01/31 09:05:53.9	315.790	-0.090	-0.650	-0.080
2020/01/31 09:05:54.0	315.790	-0.110	-0.670	-0.120
2020/01/31 09:05:54.1	315.790	-0.130	-0.690	-0.170
2020/01/31 09:05:54.2	315.790	-0.150	-0.710	-0.200
2020/01/31 09:05:54.3	315.800	-0.170	-0.720	-0.240
2020/01/31 09:05:54.4	315.810	-0.190	-0.740	-0.280
2020/01/31 09:05:54.5	315.810	-0.200	-0.750	-0.310
2020/01/31 09:05:54.6	315.820	-0.210	-0.770	-0.350
2020/01/31 09:05:54.7	315.830	-0.220	-0.780	-0.380
2020/01/31 09:05:54.8	315.840	-0.230	-0.790	-0.410
2020/01/31 09:05:54.9	315.860	-0.240	-0.800	-0.430
2020/01/31 09:05:55.0	315.870	-0.240	-0.810	-0.460
2020/01/31 09:05:55.1	315.890	-0.240	-0.820	-0.480
2020/01/31 09:05:55.2	315.900	-0.240	-0.830	-0.500
2020/01/31 09:05:55.3	315.920	-0.240	-0.830	-0.520
2020/01/31 09:05:55.4	315.950	-0.240	-0.840	-0.530
2020/01/31 09:05:55.5	315.970	-0.240	-0.850	-0.550
2020/01/31 09:05:55.6	315.990	-0.240	-0.850	-0.560
2020/01/31 09:05:55.7	316.000	-0.230	-0.850	-0.560
2020/01/31 09:05:55.8	316.020	-0.230	-0.850	-0.570
2020/01/31 09:05:55.9	316.040	-0.220	-0.840	-0.570
2020/01/31 09:05:56.0	316.060	-0.210	-0.840	-0.570
2020/01/31 09:05:56.1	316.070	-0.200	-0.830	-0.570
2020/01/31 09:05:56.2	316.090	-0.200	-0.820	-0.560
2020/01/31 09:05:56.3	316.110	-0.190	-0.810	-0.550
2020/01/31 09:05:56.4	316.150	-0.180	-0.800	-0.540
2020/01/31 09:05:56.5	316.160	-0.170	-0.780	-0.530
2020/01/31 09:05:56.6	316.180	-0.170	-0.760	-0.520
2020/01/31 09:05:56.7	316.200	-0.160	-0.740	-0.500
2020/01/31 09:05:56.8	316.220	-0.150	-0.720	-0.490
2020/01/31 09:05:56.9	316.240	-0.150	-0.690	-0.470
2020/01/31 09:05:57.0	316.250	-0.140	-0.670	-0.450
2020/01/31 09:05:57.1	316.270	-0.130	-0.640	-0.430
2020/01/31 09:05:57.2	316.290	-0.130	-0.600	-0.400
2020/01/31 09:05:57.3	316.300	-0.130	-0.570	-0.380
2020/01/31 09:05:57.4	316.330	-0.130	-0.530	-0.350
2020/01/31 09:05:57.5	316.340	-0.120	-0.500	-0.320
2020/01/31 09:05:57.6	316.360	-0.120	-0.450	-0.290
2020/01/31 09:05:57.7	316.370	-0.130	-0.410	-0.250
2020/01/31 09:05:57.8	316.380	-0.130	-0.370	-0.220
2020/01/31 09:05:57.9	316.390	-0.130	-0.320	-0.190
2020/01/31 09:05:58.0	316.400	-0.130	-0.270	-0.150
2020/01/31 09:05:58.1	316.400	-0.140	-0.220	-0.110
2020/01/31 09:05:58.2	316.410	-0.140	-0.180	-0.080
2020/01/31 09:05:58.3	316.410	-0.150	-0.130	-0.040
2020/01/31 09:05:58.4	316.410	-0.160	-0.080	-0.000
2020/01/31 09:05:58.5	316.410	-0.160	-0.030	0.030
2020/01/31 09:05:58.6	316.410	-0.170	0.020	0.070
2020/01/31 09:05:58.7	316.410	-0.180	0.070	0.110
2020/01/31 09:05:58.8	316.410	-0.180	0.110	0.140
2020/01/31 09:05:58.9	316.410	-0.190	0.160	0.180
2020/01/31 09:05:59.0	316.400	-0.200	0.200	0.220
2020/01/31 09:05:59.1	316.400	-0.200	0.240	0.260
2020/01/31 09:05:59.2	316.390	-0.200	0.280	0.300
2020/01/31 09:05:59.3	316.380	-0.210	0.320	0.330
2020/01/31 09:05:59.4	316.350	-0.210	0.350	0.370
2020/01/31 09:05:59.5	316.340	-0.210	0.390	0.410
2020/01/31 09:05:59.6	316.320	-0.210	0.420	0.460
2020/01/31 09:05:59.7	316.310	-0.210	0.450	0.500
2020/01/31 09:05:59.8	316.290	-0.210	0.470	0.540
2020/01/31 09:05:59.9	316.270	-0.210	0.490	0.580
2020/01/31 09:06:00.0	316.250	-0.210	0.510	0.620
2020/01/31 09:06:00.1	316.230	-0.200	0.530	0.660
2020/01/31 09:06:00.2	316.210	-0.200	0.540	0.700
2020/01/31 09:06:00.3	316.180	-0.190	0.550	0.740
2020/01/31 09:06:00.4	316.140	-0.180	0.550	0.780
2020/01/31 09:06:00.5	316.110	-0.170	0.550	0.810
2020/01/31 09:06:00.6	316.090	-0.160	0.540	0.840
2020/01/31 09:06:00.7	316.070	-0.150	0.530	0.870
2020/01/31 09:06:00.8	316.040	-0.130	0.520	0.900
2020/01/31 09:06:00.9	316.020	-0.120	0.500	0.920
2020/01/31 09:06:01.0	316.000	-0.100	0.480	0.950
2020/01/31 09:06:01.1	315.980	-0.080	0.460	0.960
2020/01/31 09:06:01.2	315.960	-0.060	0.430	0.980
2020/01/31 09:06:01.3	315.940	-0.040	0.400	0.990
2020/01/31 09:06:01.4	315.900	-0.020	0.360	1.000
2020/01/31 09:06:01.5	315.890	0.000	0.330	1.010
2020/01/31 09:06:01.6	315.870	0.020	0.290	1.020
2020/01/31 09:06:01.7	315.850	0.050	0.250	1.020
2020/01/31 09:06:01.8	315.830	0.070	0.210	1.020
2020/01/31 09:06:01.9	315.810	0.100	0.170	1.020
2020/01/31 09:06:02.0	315.800	0.120	0.130	1.020
2020/01/31 09:06:02.1	315.780	0.150	0.090	1.010
2020/01/31 09:06:02.2	315.760	0.170	0.050	1.000
2020/01/31 09:06:02.3	315.750	0.200	0.010	1.000
2020/01/31 09:06:02.4	315.730	0.220	-0.030	0.990
2020/01/31 09:06:02.5	315.710	0.250	-0.060	0.980
2020/01/31 09:06:02.6	315.700	0.270	-0.100	0.970
2020/01/31 09:06:02.7	315.680	0.290	-0.130	0.960
2020/01/31 09:06:02.8	315.670	0.310	-0.160	0.950
2020/01/31 09:06:02.9	315.660	0.330	-0.190	0.940
2020/01/31 09:06:03.0	315.650	0.350	-0.220	0.920
2020/01/31 09:06:03.1	315.640	0.370	-0.240	0.910
2020/01/31 09:06:03.2	315.630	0.380	-0.270	0.890
2020/01/31 09:06:03.3	315.620	0.400	-0.290	0.870
2020/01/31 09:06:03.4	315.610	0.410	-0.310	0.850
2020/01/31 09:06:03.5	315.610	0.420	-0.330	0.830
2020/01/31 09:06:03.6	315.610	0.430	-0.350	0.800
2020/01/31 09:06:03.7	315.610	0.430	-0.360	0.770
2020/01/31 09:06:03.8	315.610	0.430	-0.380	0.740
2020/01/31 09:06:03.9	315.620	0.440	-0.400	0.710
2020/01/31 09:06:04.0	315.630	0.440	-0.410	0.670
2020/01/31 09:06:04.1	315.640	0.430	-0.430	0.640
2020/01/31 09:06:04.2	315.650	0.430	-0.440	0.600
2020/01/31 09:06:04.3	315.670	0.420	-0.450	0.560
2020/01/31 09:06:04.4	315.690	0.410	-0.470	0.520
2020/01/31 09:06:04.5	315.700	0.400	-0.480	0.490
2020/01/31 09:06:04.6	315.720	0.390	-0.490	0.450
2020/01/31 09:06:04.7	315.740	0.380	-0.500	0.410
2020/01/31 09:06:04.8	315.750	0.370	-0.510	0.370
2020/01/31 09:06:04.9	315.770	0.360	-0.520	0.330
2020/01/31 09:06:05.0	315.790	0.340	-0.520	0.300
2020/01/31 09:06:05.1	315.810	0.330	-0.530	0.260
2020/01/31 09:06:05.2	315.820	0.310	-0.540	0.230
2020/01/31 09:06:05.3	315.840	0.290	-0.540	0.200
2020/01/31 09:06:05.4	315.850	0.280	-0.540	0.160
2020/01/31 09:06:05.5	315.860	0.260	-0.550	0.140
2020/01/31 09:06:05.6	315.880	0.250	-0.550	0.110
2020/01/31 09:06:05.7	315.890	0.230	-0.550	0.090
2020/01/31 09:06:05.8	315.900	0.220	-0.560	0.070
2020/01/31 09:06:05.9	315.920	0.200	-0.560	0.050
2020/01/31 09:06:06.0	315.930	0.190	-0.560	0.030
2020/01/31 09:06:06.1	315.940	0.180	-0.560	0.010
2020/01/31 09:06:06.2	315.950	0.170	-0.560	0.000
2020/01/31 09:06:06.3	315.950	0.150	-0.560	-0.010
2020/01/31 09:06:06.4	315.970	0.140	-0.570	-0.010
2020/01/31 09:06:06.5	315.970	0.130	-0.570	-0.020
2020/01/31 09:06:06.6	315.980	0.120	-0.560	-0.030
2020/01/31 09:06:06.7	315.980	0.120	-0.560	-0.030
2020/01/31 09:06:06.8	315.980	0.110	-0.560	-0.030
2020/01/31 09:06:06.9	315.980	0.100	-0.560	-0.030
2020/01/31 09:06:07.0	315.970	0.090	-0.560	-0.030
2020/01/31 09:06:07.1	315.970	0.080	-0.560	-0.030
2020/01/31 09:06:07.2	315.960	0.080	-0.560	-0.030
2020/01/31 09:06:07.3	315.960	0.070	-0.550	-0.020
2020/01/31 09:06:07.4	315.960	0.060	-0.550	-0.010
2020/01/31 09:06:07.5	315.950	0.050	-0.540	0.000
2020/01/31 09:06:07.6	315.930	0.040	-0.530	0.010
2020/01/31 09:06:07.7	315.920	0.040	-0.530	0.020
2020/01/31 09:06:07.8	315.910	0.030	-0.520	0.030
2020/01/31 09:06:07.9	315.890	0.020	-0.500	0.050
2020/01/31 09:06:08.0	315.880	0.010	-0.490	0.060
2020/01/31 09:06:08.1	315.860	-0.000	-0.480	0.080
2020/01/31 09:06:08.2	315.850	-0.020	-0.460	0.090
2020/01/31 09:06:08.3	315.830	-0.030	-0.450	0.110
2020/01/31 09:06:08.4	315.820	-0.040	-0.430	0.130
2020/01/31 09:06:08.5	315.800	-0.060	-0.410	0.150
2020/01/31 09:06:08.6	315.790	-0.070	-0.400	0.170
2020/01/31 09:06:08.7	315.770	-0.090	-0.380	0.190
2020/01/31 09:06:08.8	315.750	-0.100	-0.360	0.210
2020/01/31 09:06:08.9	315.740	-0.120	-0.340	0.230
2020/01/31 09:06:09.0	315.720	-0.140	-0.320	0.250
2020/01/31 09:06:09.1	315.710	-0.160	-0.300	0.270
2020/01/31 09:06:09.2	315.690	-0.170	-0.280	0.290
2020/01/31 09:06:09.3	315.680	-0.190	-0.260	0.310
2020/01/31 09:06:09.4	315.670	-0.210	-0.250	0.330
2020/01/31 09:06:09.5	315.660	-0.230	-0.230	0.350
2020/01/31 09:06:09.6	315.650	-0.250	-0.220	0.360
2020/01/31 09:06:09.7	315.640	-0.260	-0.210	0.370
2020/01/31 09:06:09.8	315.640	-0.280	-0.210	0.380
2020/01/31 09:06:09.9	315.630	-0.290	-0.210	0.390
2020/01/31 09:06:10.0	315.630	-0.310	-0.200	0.400
2020/01/31 09:06:10.1	315.630	-0.320	-0.200	0.400
2020/01/31 09:06:10.2	315.640	-0.330	-0.210	0.410
2020/01/31 09:06:10.3	315.640	-0.350	-0.210	0.410
2020/01/31 09:06:10.4	315.650	-0.350	-0.220	0.400
2020/01/31 09:06:10.5	315.660	-0.360	-0.230	0.400
2020/01/31 09:06:10.6	315.660	-0.370	-0.240	0.400
2020/01/31 09:06:10.7	315.670	-0.370	-0.250	0.390
2020/01/31 09:06:10.8	315.680	-0.370	-0.260	0.390
2020/01/31 09:06:10.9	315.690	-0.370	-0.270	0.390
2020/01/31 09:06:11.0	315.700	-0.370	-0.280	0.380
2020/01/31 09:06:11.1	315.720	-0.370	-0.290	0.380
2020/01/31 09:06:11.2	315.730	-0.360	-0.300	0.370
2020/01/31 09:06:11.3	315.740	-0.350	-0.310	0.370
2020/01/31 09:06:11.4	315.750	-0.340	-0.320	0.370
2020/01/31 09:06:11.5	315.770	-0.330	-0.320	0.360
2020/01/31 09:06:11.6	315.780	-0.320	-0.330	0.360
2020/01/31 09:06:11.7	315.800	-0.310	-0.330	0.350
2020/01/31 09:06:11.8	315.820	-0.290	-0.330	0.350
2020/01/31 09:06:11.9	315.840	-0.280	-0.330	0.340
2020/01/31 09:06:12.0	315.850	-0.260	-0.330	0.340
2020/01/31 09:06:12.1	315.870	-0.250	-0.320	0.330
2020/01/31 09:06:12.2	315.890	-0.230	-0.310	0.330
2020/01/31 09:06:12.3	315.900	-0.220	-0.300	0.320
2020/01/31 09:06:12.4	315.920	-0.200	-0.280	0.320
2020/01/31 09:06:12.5	315.930	-0.180	-0.270	0.320
2020/01/31 09:06:12.6	315.940	-0.170	-0.250	0.320
2020/01/31 09:06:12.7	315.950	-0.160	-0.220	0.320
2020/01/31 09:06:12.8	315.960	-0.140	-0.200	0.320
2020/01/31 09:06:12.9	315.970	-0.130	-0.170	0.320
2020/01/31 09:06:13.0	315.980	-0.120	-0.140	0.320
2020/01/31 09:06:13.1	315.980	-0.110	-0.110	0.320
2020/01/31 09:06:13.2	315.990	-0.100	-0.080	0.320
2020/01/31 09:06:13.3	315.990	-0.090	-0.040	0.320
2020/01/31 09:06:13.4	315.980	-0.080	-0.010	0.320
2020/01/31 09:06:13.5	315.980	-0.080	0.030	0.330
2020/01/31 09:06:13.6	315.980	-0.070	0.060	0.330
2020/01/31 09:06:13.7	315.980	-0.070	0.100	0.340
2020/01/31 09:06:13.8	315.970	-0.060	0.140	0.340
2020/01/31 09:06:13.9	315.970	-0.060	0.170	0.350
2020/01/31 09:06:14.0	315.960	-0.060	0.210	0.360
2020/01/31 09:06:14.1	315.960	-0.060	0.240	0.360
2020/01/31 09:06:14.2	315.950	-0.050	0.280	0.370
2020/01/31 09:06:14.3	315.940	-0.050	0.310	0.380
2020/01/31 09:06:14.4	315.920	-0.050	0.340	0.390
2020/01/31 09:06:14.5	315.920	-0.050	0.370	0.400
2020/01/31 09:06:14.6	315.900	-0.050	0.390	0.410
2020/01/31 09:06:14.7	315.890	-0.040	0.420	0.420
2020/01/31 09:06:14.8	315.880	-0.040	0.440	0.430
2020/01/31 09:06:14.9	315.870	-0.040	0.460	0.440
2020/01/31 09:06:15.0	315.860	-0.030	0.470	0.450
2020/01/31 09:06:15.1	315.840	-0.030	0.480	0.460
2020/01/31 09:06:15.2	315.830	-0.020	0.490	0.470
2020/01/31 09:06:15.3	315.810	-0.010	0.500	0.490
2020/01/31 09:06:15.4	315.800	-0.010	0.500	0.500
2020/01/31 09:06:15.5	315.780	0.000	0.490	0.510
2020/01/31 09:06:15.6	315.770	0.010	0.490	0.530
2020/01/31 09:06:15.7	315.750	0.020	0.480	0.540
2020/01/31 09:06:15.8	315.730	0.030	0.460	0.550
2020/01/31 09:06:15.9	315.710	0.040	0.440	0.560
2020/01/31 09:06:16.0	315.690	0.050	0.420	0.570
2020/01/31 09:06:16.1	315.680	0.070	0.390	0.580
2020/01/31 09:06:16.2	315.660	0.080	0.360	0.580
2020/01/31 09:06:16.3	315.640	0.100	0.330	0.590
2020/01/31 09:06:16.4	315.620	0.110	0.290	0.590
2020/01/31 09:06:16.5	315.600	0.130	0.240	0.590
2020/01/31 09:06:16.6	315.590	0.140	0.200	0.590
2020/01/31 09:06:16.7	315.570	0.160	0.150	0.580
2020/01/31 09:06:16.8	315.550	0.180	0.100	0.580
2020/01/31 09:06:16.9	315.540	0.190	0.050	0.570
2020/01/31 09:06:17.0	315.530	0.210	-0.010	0.560
2020/01/31 09:06:17.1	315.510	0.230	-0.070	0.550
2020/01/31 09:06:17.2	315.500	0.250	-0.120	0.540
2020/01/31 09:06:17.3	315.490	0.270	-0.180	0.520
2020/01/31 09:06:17.4	315.490	0.290	-0.240	0.510
2020/01/31 09:06:17.5	315.480	0.310	-0.300	0.500
2020/01/31 09:06:17.6	315.470	0.330	-0.360	0.480
2020/01/31 09:06:17.7	315.470	0.340	-0.410	0.470
2020/01/31 09:06:17.8	315.460	0.360	-0.470	0.450
2020/01/31 09:06:17.9	315.460	0.380	-0.520	0.440
2020/01/31 09:06:18.0	315.450	0.400	-0.580	0.420
2020/01/31 09:06:18.1	315.450	0.420	-0.630	0.400
2020/01/31 09:06:18.2	315.460	0.440	-0.680	0.390
2020/01/31 09:06:18.3	315.460	0.460	-0.720	0.370
2020/01/31 09:06:18.4	315.470	0.480	-0.770	0.360
2020/01/31 09:06:18.5	315.480	0.500	-0.810	0.340
2020/01/31 09:06:18.6	315.490	0.520	-0.850	0.320
2020/01/31 09:06:18.7	315.500	0.530	-0.890	0.310
2020/01/31 09:06:18.8	315.510	0.550	-0.920	0.290
2020/01/31 09:06:18.9	315.530	0.560	-0.950	0.270
2020/01/31 09:06:19.0	315.550	0.580	-0.980	0.250
2020/01/31 09:06:19.1	315.570	0.590	-1.010	0.230
2020/01/31 09:06:19.2	315.590	0.600	-1.030	0.210
2020/01/31 09:06:19.3	315.610	0.610	-1.050	0.190
2020/01/31 09:06:19.4	315.650	0.610	-1.070	0.180
2020/01/31 09:06:19.5	315.680	0.620	-1.080	0.170
2020/01/31 09:06:19.6	315.700	0.620	-1.090	0.150
2020/01/31 09:06:19.7	315.720	0.620	-1.100	0.140
2020/01/31 09:06:19.8	315.750	0.610	-1.100	0.120
2020/01/31 09:06:19.9	315.770	0.600	-1.090	0.110
2020/01/31 09:06:20.0	315.790	0.590	-1.090	0.100
2020/01/31 09:06:20.1	315.810	0.580	-1.080	0.090
2020/01/31 09:06:20.2	315.830	0.560	-1.060	0.080
2020/01/31 09:06:20.3	315.850	0.540	-1.050	0.070
2020/01/31 09:06:20.4	315.880	0.520	-1.020	0.070
2020/01/31 09:06:20.5	315.890	0.490	-1.000	0.060
2020/01/31 09:06:20.6	315.910	0.460	-0.970	0.060
2020/01/31 09:06:20.7	315.920	0.430	-0.940	0.050
2020/01/31 09:06:20.8	315.930	0.390	-0.910	0.050
2020/01/31 09:06:20.9	315.940	0.350	-0.880	0.050
2020/01/31 09:06:21.0	315.950	0.310	-0.840	0.050
2020/01/31 09:06:21.1	315.960	0.270	-0.800	0.040
2020/01/31 09:06:21.2	315.960	0.220	-0.760	0.040
2020/01/31 09:06:21.3	315.970	0.170	-0.720	0.040
2020/01/31 09:06:21.4	315.980	0.120	-0.680	0.040
2020/01/31 09:06:21.5	315.980	0.070	-0.640	0.040
2020/01/31 09:06:21.6	315.990	0.020	-0.590	0.040
2020/01/31 09:06:21.7	315.990	-0.040	-0.540	0.050
2020/01/31 09:06:21.8	315.990	-0.090	-0.490	0.050
2020/01/31 09:06:21.9	315.990	-0.140	-0.440	0.050
2020/01/31 09:06:22.0	315.990	-0.200	-0.390	0.050
2020/01/31 09:06:22.1	315.980	-0.250	-0.340	0.060
2020/01/31 09:06:22.2	315.980	-0.300	-0.290	0.060
2020/01/31 09:06:22.3	315.970	-0.360	-0.240	0.070
2020/01/31 09:06:22.4	315.980	-0.410	-0.180	0.080
2020/01/31 09:06:22.5	315.970	-0.450	-0.130	0.090
2020/01/31 09:06:22.6	315.970	-0.500	-0.080	0.100
2020/01/31 09:06:22.7	315.960	-0.540	-0.030	0.120
2020/01/31 09:06:22.8	315.950	-0.580	0.020	0.130
2020/01/31 09:06:22.9	315.930	-0.620	0.070	0.150
2020/01/31 09:06:23.0	315.920	-0.660	0.120	0.160
2020/01/31 09:06:23.1	315.910	-0.690	0.160	0.180
2020/01/31 09:06:23.2	315.900	-0.720	0.210	0.200
2020/01/31 09:06:23.3	315.880	-0.740	0.250	0.220
2020/01/31 09:06:23.4	315.870	-0.760	0.280	0.250
2020/01/31 09:06:23.5	315.860	-0.780	0.320	0.270
2020/01/31 09:06:23.6	315.850	-0.790	0.350	0.290
2020/01/31 09:06:23.7	315.830	-0.810	0.370	0.310
2020/01/31 09:06:23.8	315.820	-0.810	0.400	0.330
2020/01/31 09:06:23.9	315.800	-0.820	0.420	0.350
2020/01/31 09:06:24.0	315.790	-0.820	0.440	0.370
2020/01/31 09:06:24.1	315.780	-0.820	0.450	0.390
2020/01/31 09:06:24.2	315.760	-0.820	0.460	0.410
2020/01/31 09:06:24.3	315.750	-0.810	0.460	0.430
2020/01/31 09:06:24.4	315.750	-0.800	0.470	0.440
2020/01/31 09:06:24.5	315.730	-0.790	0.470	0.460
2020/01/31 09:06:24.6	315.720	-0.770	0.460	0.470
2020/01/31 09:06:24.7	315.700	-0.760	0.450	0.480
2020/01/31 09:06:24.8	315.690	-0.740	0.440	0.500
2020/01/31 09:06:24.9	315.670	-0.710	0.420	0.510
2020/01/31 09:06:25.0	315.660	-0.690	0.400	0.510
2020/01/31 09:06:25.1	315.640	-0.670	0.380	0.520
2020/01/31 09:06:25.2	315.630	-0.640	0.360	0.530
2020/01/31 09:06:25.3	315.610	-0.610	0.330	0.540
2020/01/31 09:06:25.4	315.570	-0.580	0.310	0.550
2020/01/31 09:06:25.5	315.560	-0.550	0.280	0.560
2020/01/31 09:06:25.6	315.540	-0.520	0.250	0.570
2020/01/31 09:06:25.7	315.520	-0.480	0.230	0.580
2020/01/31 09:06:25.8	315.500	-0.450	0.200	0.590
2020/01/31 09:06:25.9	315.480	-0.410	0.170	0.600
2020/01/31 09:06:26.0	315.460	-0.370	0.140	0.610
2020/01/31 09:06:26.1	315.440	-0.340	0.110	0.620
2020/01/31 09:06:26.2	315.420	-0.300	0.080	0.630
2020/01/31 09:06:26.3	315.400	-0.260	0.060	0.640
2020/01/31 09:06:26.4	315.370	-0.220	0.020	0.650
2020/01/31 09:06:26.5	315.350	-0.180	-0.000	0.670
2020/01/31 09:06:26.6	315.330	-0.130	-0.030	0.680
2020/01/31 09:06:26.7	315.320	-0.090	-0.060	0.690
2020/01/31 09:06:26.8	315.300	-0.050	-0.090	0.700
2020/01/31 09:06:26.9	315.290	-0.010	-0.110	0.710
2020/01/31 09:06:27.0	315.270	0.030	-0.140	0.720
2020/01/31 09:06:27.1	315.260	0.070	-0.170	0.730
2020/01/31 09:06:27.2	315.250	0.110	-0.190	0.740
2020/01/31 09:06:27.3	315.240	0.150	-0.220	0.740
2020/01/31 09:06:27.4	315.210	0.180	-0.250	0.750
2020/01/31 09:06:27.5	315.210	0.220	-0.280	0.750
2020/01/31 09:06:27.6	315.210	0.250	-0.300	0.750
2020/01/31 09:06:27.7	315.220	0.290	-0.330	0.750
2020/01/31 09:06:27.8	315.220	0.320	-0.360	0.750
2020/01/31 09:06:27.9	315.230	0.340	-0.380	0.750
2020/01/31 09:06:28.0	315.240	0.370	-0.410	0.740
2020/01/31 09:06:28.1	315.260	0.390	-0.430	0.730
2020/01/31 09:06:28.2	315.270	0.420	-0.460	0.730
2020/01/31 09:06:28.3	315.290	0.430	-0.480	0.720
2020/01/31 09:06:28.4	315.320	0.450	-0.510	0.710
2020/01/31 09:06:28.5	315.340	0.460	-0.530	0.690
2020/01/31 09:06:28.6	315.370	0.480	-0.550	0.680
2020/01/31 09:06:28.7	315.400	0.480	-0.560	0.660
2020/01/31 09:06:28.8	315.430	0.490	-0.580	0.650
2020/01/31 09:06:28.9	315.460	0.490	-0.590	0.630
2020/01/31 09:06:29.0	315.490	0.490	-0.600	0.610
2020/01/31 09:06:29.1	315.530	0.490	-0.610	0.590
2020/01/31 09:06:29.2	315.560	0.490	-0.620	0.570
2020/01/31 09:06:29.3	315.590	0.480	-0.620	0.550
2020/01/31 09:06:29.4	315.620	0.470	-0.620	0.530
2020/01/31 09:06:29.5	315.650	0.460	-0.620	0.510
2020/01/31 09:06:29.6	315.690	0.450	-0.610	0.490
2020/01/31 09:06:29.7	315.720	0.440	-0.600	0.470
2020/01/31 09:06:29.8	315.750	0.420	-0.590	0.450
2020/01/31 09:06:29.9	315.770	0.400	-0.570	0.440
2020/01/31 09:06:30.0	315.800	0.390	-0.550	0.420
2020/01/31 09:06:30.1	315.820	0.370	-0.530	0.410
2020/01/31 09:06:30.2	315.850	0.350	-0.500	0.400
2020/01/31 09:06:30.3	315.870	0.330	-0.470	0.390
2020/01/31 09:06:30.4	315.900	0.310	-0.450	0.380
2020/01/31 09:06:30.5	315.920	0.290	-0.420	0.370
2020/01/31 09:06:30.6	315.940	0.270	-0.380	0.370
2020/01/31 09:06:30.7	315.950	0.250	-0.350	0.370
2020/01/31 09:06:30.8	315.960	0.230	-0.320	0.370
2020/01/31 09:06:30.9	315.960	0.220	-0.280	0.370
2020/01/31 09:06:31.0	315.970	0.200	-0.250	0.370
2020/01/31 09:06:31.1	315.970	0.180	-0.210	0.380
2020/01/31 09:06:31.2	315.970	0.170	-0.180	0.390
2020/01/31 09:06:31.3	315.970	0.160	-0.150	0.400
2020/01/31 09:06:31.4	315.970	0.140	-0.120	0.410
2020/01/31 09:06:31.5	315.960	0.130	-0.090	0.420
2020/01/31 09:06:31.6	315.950	0.130	-0.070	0.430
2020/01/31 09:06:31.7	315.940	0.120	-0.040	0.440
2020/01/31 09:06:31.8	315.930	0.110	-0.020	0.460
2020/01/31 09:06:31.9	315.910	0.110	-0.000	0.470
2020/01/31 09:06:32.0	315.900	0.110	0.010	0.490
2020/01/31 09:06:32.1	315.880	0.110	0.020	0.500
2020/01/31 09:06:32.2	315.860	0.110	0.030	0.520
2020/01/31 09:06:32.3	315.830	0.110	0.040	0.530
2020/01/31 09:06:32.4	315.820	0.110	0.040	0.550
2020/01/31 09:06:32.5	315.790	0.110	0.040	0.570
2020/01/31 09:06:32.6	315.760	0.120	0.030	0.580
2020/01/31 09:06:32.7	315.730	0.120	0.030	0.600
2020/01/31 09:06:32.8	315.710	0.130	0.020	0.610
2020/01/31 09:06:32.9	315.680	0.140	0.010	0.620
2020/01/31 09:06:33.0	315.650	0.140	-0.010	0.640
2020/01/31 09:06:33.1	315.620	0.150	-0.030	0.650
2020/01/31 09:06:33.2	315.590	0.160	-0.040	0.660
2020/01/31 09:06:33.3	315.560	0.160	-0.060	0.660
2020/01/31 09:06:33.4	315.540	0.170	-0.090	0.670
2020/01/31 09:06:33.5	315.510	0.170	-0.110	0.680
2020/01/31 09:06:33.6	315.480	0.180	-0.140	0.680
2020/01/31 09:06:33.7	315.460	0.180	-0.160	0.680
2020/01/31 09:06:33.8	315.430	0.180	-0.190	0.680
2020/01/31 09:06:33.9	315.410	0.180	-0.210	0.670
2020/01/31 09:06:34.0	315.380	0.180	-0.240	0.670
2020/01/31 09:06:34.1	315.360	0.170	-0.270	0.660
2020/01/31 09:06:34.2	315.340	0.170	-0.290	0.650
2020/01/31 09:06:34.3	315.320	0.160	-0.320	0.640
2020/01/31 09:06:34.4	315.290	0.150	-0.340	0.630
2020/01/31 09:06:34.5	315.280	0.140	-0.360	0.610
2020/01/31 09:06:34.6	315.260	0.120	-0.380	0.590
2020/01/31 09:06:34.7	315.250	0.110	-0.400	0.570
2020/01/31 09:06:34.8	315.240	0.090	-0.420	0.540
2020/01/31 09:06:34.9	315.230	0.070	-0.440	0.520
2020/01/31 09:06:35.0	315.220	0.050	-0.450	0.490
2020/01/31 09:06:35.1	315.220	0.030	-0.460	0.450
2020/01/31 09:06:35.2	315.220	0.010	-0.470	0.420
2020/01/31 09:06:35.3	315.220	-0.020	-0.480	0.390
2020/01/31 09:06:35.4	315.220	-0.040	-0.480	0.350
2020/01/31 09:06:35.5	315.230	-0.070	-0.490	0.310
2020/01/31 09:06:35.6	315.230	-0.090	-0.490	0.270
2020/01/31 09:06:35.7	315.240	-0.120	-0.490	0.230
2020/01/31 09:06:35.8	315.250	-0.140	-0.480	0.190
2020/01/31 09:06:35.9	315.260	-0.170	-0.480	0.150
2020/01/31 09:06:36.0	315.270	-0.190	-0.470	0.110
2020/01/31 09:06:36.1	315.280	-0.220	-0.460	0.070
2020/01/31 09:06:36.2	315.290	-0.240	-0.450	0.030
2020/01/31 09:06:36.3	315.300	-0.260	-0.430	-0.010
2020/01/31 09:06:36.4	315.310	-0.280	-0.420	-0.030
2020/01/31 09:06:36.5	315.330	-0.300	-0.400	-0.070
2020/01/31 09:06:36.6	315.340	-0.320	-0.380	-0.100
2020/01/31 09:06:36.7	315.350	-0.340	-0.360	-0.130
2020/01/31 09:06:36.8	315.370	-0.350	-0.340	-0.160
2020/01/31 09:06:36.9	315.380	-0.360	-0.320	-0.190
2020/01/31 09:06:37.0	315.400	-0.370	-0.300	-0.210
2020/01/31 09:06:37.1	315.410	-0.380	-0.280	-0.240
2020/01/31 09:06:37.2	315.430	-0.390	-0.260	-0.260
2020/01/31 09:06:37.3	315.440	-0.390	-0.240	-0.270
2020/01/31 09:06:37.4	315.460	-0.390	-0.230	-0.300
2020/01/31 09:06:37.5	315.470	-0.390	-0.210	-0.310
2020/01/31 09:06:37.6	315.480	-0.390	-0.190	-0.310
2020/01/31 09:06:37.7	315.500	-0.380	-0.170	-0.320
2020/01/31 09:06:37.8	315.510	-0.380	-0.150	-0.320
2020/01/31 09:06:37.9	315.530	-0.370	-0.140	-0.310
2020/01/31 09:06:38.0	315.540	-0.360	-0.120	-0.300
2020/01/31 09:06:38.1	315.550	-0.350	-0.110	-0.290
2020/01/31 09:06:38.2	315.560	-0.330	-0.100	-0.270
2020/01/31 09:06:38.3	315.580	-0.320	-0.090	-0.250
2020/01/31 09:06:38.4	315.590	-0.300	-0.080	-0.230
2020/01/31 09:06:38.5	315.600	-0.280	-0.070	-0.200
2020/01/31 09:06:38.6	315.620	-0.260	-0.060	-0.170
2020/01/31 09:06:38.7	315.630	-0.240	-0.050	-0.140
2020/01/31 09:06:38.8	315.640	-0.220	-0.050	-0.100
2020/01/31 09:06:38.9	315.650	-0.200	-0.050	-0.060
2020/01/31 09:06:39.0	315.670	-0.170	-0.050	-0.030
2020/01/31 09:06:39.1	315.680	-0.150	-0.050	0.010
2020/01/31 09:06:39.2	315.690	-0.120	-0.050	0.060
2020/01/31 09:06:39.3	315.710	-0.100	-0.050	0.100
2020/01/31 09:06:39.4	315.730	-0.080	-0.060	0.140
2020/01/31 09:06:39.5	315.740	-0.050	-0.060	0.180
2020/01/31 09:06:39.6	315.750	-0.030	-0.070	0.220
2020/01/31 09:06:39.7	315.770	-0.000	-0.080	0.260
2020/01/31 09:06:39.8	315.780	0.020	-0.090	0.310
2020/01/31 09:06:39.9	315.800	0.040	-0.110	0.350
2020/01/31 09:06:40.0	315.810	0.060	-0.120	0.390
2020/01/31 09:06:40.1	315.820	0.080	-0.140	0.430
2020/01/31 09:06:40.2	315.830	0.100	-0.150	0.470
2020/01/31 09:06:40.3	315.840	0.120	-0.170	0.510
2020/01/31 09:06:40.4	315.850	0.130	-0.180	0.550
2020/01/31 09:06:40.5	315.860	0.150	-0.200	0.590
2020/01/31 09:06:40.6	315.870	0.160	-0.210	0.630
2020/01/31 09:06:40.7	315.880	0.170	-0.230	0.660
2020/01/31 09:06:40.8	315.880	0.180	-0.240	0.690
2020/01/31 09:06:40.9	315.890	0.190	-0.260	0.730
2020/01/31 09:06:41.0	315.890	0.190	-0.270	0.760
2020/01/31 09:06:41.1	315.900	0.200	-0.280	0.780
2020/01/31 09:06:41.2	315.900	0.200	-0.290	0.810
2020/01/31 09:06:41.3	315.900	0.200	-0.300	0.830
2020/01/31 09:06:41.4	315.880	0.200	-0.310	0.850
2020/01/31 09:06:41.5	315.880	0.200	-0.310	0.870
2020/01/31 09:06:41.6	315.870	0.190	-0.320	0.890
2020/01/31 09:06:41.7	315.870	0.180	-0.320	0.910
2020/01/31 09:06:41.8	315.860	0.180	-0.320	0.920
2020/01/31 09:06:41.9	315.850	0.170	-0.320	0.930
2020/01/31 09:06:42.0	315.840	0.160	-0.320	0.940
2020/01/31 09:06:42.1	315.830	0.140	-0.320	0.950
2020/01/31 09:06:42.2	315.820	0.130	-0.310	0.960
2020/01/31 09:06:42.3	315.810	0.120	-0.310	0.960
2020/01/31 09:06:42.4	315.790	0.100	-0.300	0.960
2020/01/31 09:06:42.5	315.770	0.090	-0.290	0.960
2020/01/31 09:06:42.6	315.760	0.070	-0.280	0.960
2020/01/31 09:06:42.7	315.740	0.050	-0.270	0.960
2020/01/31 09:06:42.8	315.730	0.040	-0.260	0.950
2020/01/31 09:06:42.9	315.710	0.020	-0.250	0.940
2020/01/31 09:06:43.0	315.700	0.010	-0.240	0.930
2020/01/31 09:06:43.1	315.680	-0.010	-0.230	0.920
2020/01/31 09:06:43.2	315.670	-0.020	-0.220	0.900
2020/01/31 09:06:43.3	315.660	-0.040	-0.210	0.880
2020/01/31 09:06:43.4	315.640	-0.050	-0.200	0.860
2020/01/31 09:06:43.5	315.630	-0.060	-0.190	0.840
2020/01/31 09:06:43.6	315.610	-0.070	-0.190	0.820
2020/01/31 09:06:43.7	315.600	-0.080	-0.180	0.800
2020/01/31 09:06:43.8	315.590	-0.090	-0.180	0.780
2020/01/31 09:06:43.9	315.580	-0.100	-0.170	0.750
2020/01/31 09:06:44.0	315.570	-0.100	-0.170	0.730
2020/01/31 09:06:44.1	315.560	-0.110	-0.160	0.700
2020/01/31 09:06:44.2	315.550	-0.110	-0.160	0.680
2020/01/31 09:06:44.3	315.540	-0.110	-0.160	0.650
2020/01/31 09:06:44.4	315.530	-0.110	-0.170	0.630
2020/01/31 09:06:44.5	315.520	-0.110	-0.170	0.600
2020/01/31 09:06:44.6	315.520	-0.110	-0.170	0.580
2020/01/31 09:06:44.7	315.510	-0.110	-0.170	0.560
2020/01/31 09:06:44.8	315.500	-0.100	-0.170	0.530
2020/01/31 09:06:44.9	315.500	-0.100	-0.170	0.510
2020/01/31 09:06:45.0	315.490	-0.090	-0.170	0.490
2020/01/31 09:06:45.1	315.480	-0.090	-0.160	0.470
2020/01/31 09:06:45.2	315.480	-0.080	-0.160	0.460
2020/01/31 09:06:45.3	315.470	-0.080	-0.160	0.440
2020/01/31 09:06:45.4	315.440	-0.070	-0.160	0.420
2020/01/31 09:06:45.5	315.440	-0.060	-0.160	0.410
2020/01/31 09:06:45.6	315.430	-0.060	-0.150	0.390
2020/01/31 09:06:45.7	315.420	-0.050	-0.150	0.370
2020/01/31 09:06:45.8	315.410	-0.050	-0.140	0.360
2020/01/31 09:06:45.9	315.410	-0.040	-0.140	0.340
2020/01/31 09:06:46.0	315.400	-0.040	-0.140	0.320
2020/01/31 09:06:46.1	315.400	-0.030	-0.130	0.300
2020/01/31 09:06:46.2	315.390	-0.030	-0.130	0.280
2020/01/31 09:06:46.3	315.390	-0.030	-0.130	0.260
2020/01/31 09:06:46.4	315.370	-0.030	-0.120	0.240
2020/01/31 09:06:46.5	315.370	-0.030	-0.120	0.220
2020/01/31 09:06:46.6	315.370	-0.030	-0.130	0.200
2020/01/31 09:06:46.7	315.370	-0.030	-0.130	0.180
2020/01/31 09:06:46.8	315.380	-0.030	-0.130	0.150
2020/01/31 09:06:46.9	315.380	-0.030	-0.140	0.130
2020/01/31 09:06:47.0	315.390	-0.030	-0.150	0.100
2020/01/31 09:06:47.1	315.400	-0.030	-0.160	0.080
2020/01/31 09:06:47.2	315.420	-0.030	-0.170	0.050
2020/01/31 09:06:47.3	315.430	-0.040	-0.180	0.020
2020/01/31 09:06:47.4	315.460	-0.040	-0.200	-0.000
2020/01/31 09:06:47.5	315.480	-0.040	-0.220	-0.030
2020/01/31 09:06:47.6	315.500	-0.040	-0.230	-0.050
2020/01/31 09:06:47.7	315.520	-0.040	-0.250	-0.080
2020/01/31 09:06:47.8	315.540	-0.040	-0.270	-0.100
2020/01/31 09:06:47.9	315.570	-0.040	-0.290	-0.130
2020/01/31 09:06:48.0	315.590	-0.040	-0.310	-0.150
2020/01/31 09:06:48.1	315.620	-0.030	-0.320	-0.170
2020/01/31 09:06:48.2	315.640	-0.030	-0.340	-0.190
2020/01/31 09:06:48.3	315.660	-0.030	-0.350	-0.200
2020/01/31 09:06:48.4	315.680	-0.020	-0.370	-0.210
2020/01/31 09:06:48.5	315.710	-0.020	-0.380	-0.220
2020/01/31 09:06:48.6	315.730	-0.010	-0.380	-0.220
2020/01/31 09:06:48.7	315.750	-0.000	-0.390	-0.220
2020/01/31 09:06:48.8	315.760	0.010	-0.390	-0.220
2020/01/31 09:06:48.9	315.780	0.020	-0.390	-0.220
2020/01/31 09:06:49.0	315.790	0.030	-0.390	-0.210
2020/01/31 09:06:49.1	315.810	0.040	-0.380	-0.200
2020/01/31 09:06:49.2	315.820	0.050	-0.370	-0.180
2020/01/31 09:06:49.3	315.830	0.070	-0.360	-0.160
2020/01/31 09:06:49.4	315.840	0.080	-0.350	-0.130
2020/01/31 09:06:49.5	315.850	0.090	-0.330	-0.110
2020/01/31 09:06:49.6	315.850	0.110	-0.320	-0.080
2020/01/31 09:06:49.7	315.860	0.120	-0.300	-0.040
2020/01/31 09:06:49.8	315.860	0.140	-0.280	-0.000
2020/01/31 09:06:49.9	315.860	0.150	-0.260	0.040
2020/01/31 09:06:50.0	315.860	0.170	-0.240	0.080
2020/01/31 09:06:50.1	315.850	0.180	-0.220	0.120
2020/01/31 09:06:50.2	315.850	0.200	-0.200	0.170
2020/01/31 09:06:50.3	315.840	0.210	-0.180	0.210
2020/01/31 09:06:50.4	315.850	0.220	-0.160	0.260
2020/01/31 09:06:50.5	315.840	0.240	-0.150	0.300
2020/01/31 09:06:50.6	315.830	0.250	-0.130	0.350
2020/01/31 09:06:50.7	315.820	0.260	-0.120	0.390
2020/01/31 09:06:50.8	315.820	0.270	-0.100	0.430
2020/01/31 09:06:50.9	315.810	0.270	-0.100	0.460
2020/01/31 09:06:51.0	315.800	0.280	-0.090	0.500
2020/01/31 09:06:51.1	315.790	0.280	-0.080	0.530
2020/01/31 09:06:51.2	315.790	0.290	-0.080	0.560
2020/01/31 09:06:51.3	315.780	0.290	-0.080	0.590
2020/01/31 09:06:51.4	315.760	0.290	-0.080	0.620
2020/01/31 09:06:51.5	315.750	0.290	-0.090	0.640
2020/01/31 09:06:51.6	315.750	0.290	-0.100	0.650
2020/01/31 09:06:51.7	315.750	0.280	-0.110	0.670
2020/01/31 09:06:51.8	315.750	0.280	-0.120	0.680
2020/01/31 09:06:51.9	315.750	0.270	-0.130	0.690
2020/01/31 09:06:52.0	315.750	0.260	-0.150	0.690
2020/01/31 09:06:52.1	315.750	0.250	-0.170	0.690
2020/01/31 09:06:52.2	315.750	0.240	-0.190	0.690
2020/01/31 09:06:52.3	315.750	0.230	-0.200	0.680
2020/01/31 09:06:52.4	315.760	0.210	-0.220	0.680
2020/01/31 09:06:52.5	315.760	0.200	-0.240	0.670
2020/01/31 09:06:52.6	315.760	0.180	-0.270	0.660
2020/01/31 09:06:52.7	315.770	0.170	-0.290	0.640
2020/01/31 09:06:52.8	315.770	0.150	-0.310	0.630
2020/01/31 09:06:52.9	315.780	0.130	-0.320	0.620
2020/01/31 09:06:53.0	315.780	0.110	-0.340	0.600
2020/01/31 09:06:53.1	315.790	0.090	-0.360	0.590
2020/01/31 09:06:53.2	315.800	0.070	-0.370	0.580
2020/01/31 09:06:53.3	315.800	0.050	-0.380	0.560
2020/01/31 09:06:53.4	315.790	0.030	-0.390	0.550
2020/01/31 09:06:53.5	315.800	0.010	-0.400	0.540
2020/01/31 09:06:53.6	315.810	-0.010	-0.410	0.520
2020/01/31 09:06:53.7	315.810	-0.030	-0.410	0.510
2020/01/31 09:06:53.8	315.820	-0.050	-0.410	0.500
2020/01/31 09:06:53.9	315.820	-0.070	-0.410	0.490
2020/01/31 09:06:54.0	315.830	-0.090	-0.410	0.480
2020/01/31 09:06:54.1	315.830	-0.110	-0.410	0.470
2020/01/31 09:06:54.2	315.840	-0.130	-0.400	0.460
2020/01/31 09:06:54.3	315.840	-0.150	-0.390	0.450
2020/01/31 09:06:54.4	315.850	-0.170	-0.390	0.440
2020/01/31 09:06:54.5	315.850	-0.190	-0.370	0.440
2020/01/31 09:06:54.6	315.850	-0.210	-0.360	0.430
2020/01/31 09:06:54.7	315.840	-0.240	-0.350	0.420
2020/01/31 09:06:54.8	315.840	-0.260	-0.340	0.420
2020/01/31 09:06:54.9	315.830	-0.280	-0.320	0.410
2020/01/31 09:06:55.0	315.830	-0.300	-0.310	0.410
2020/01/31 09:06:55.1	315.820	-0.320	-0.290	0.400
2020/01/31 09:06:55.2	315.810	-0.330	-0.270	0.400
2020/01/31 09:06:55.3	315.800	-0.350	-0.260	0.400
2020/01/31 09:06:55.4	315.800	-0.370	-0.240	0.390
2020/01/31 09:06:55.5	315.780	-0.390	-0.230	0.390
2020/01/31 09:06:55.6	315.770	-0.400	-0.210	0.390
2020/01/31 09:06:55.7	315.760	-0.420	-0.190	0.390
2020/01/31 09:06:55.8	315.740	-0.430	-0.180	0.390
2020/01/31 09:06:55.9	315.730	-0.450	-0.170	0.390
2020/01/31 09:06:56.0	315.710	-0.460	-0.150	0.390
2020/01/31 09:06:56.1	315.700	-0.470	-0.140	0.380
2020/01/31 09:06:56.2	315.690	-0.480	-0.130	0.380
2020/01/31 09:06:56.3	315.670	-0.490	-0.120	0.380
2020/01/31 09:06:56.4	315.660	-0.490	-0.120	0.380
2020/01/31 09:06:56.5	315.650	-0.500	-0.110	0.370
2020/01/31 09:06:56.6	315.640	-0.500	-0.110	0.370
2020/01/31 09:06:56.7	315.630	-0.500	-0.110	0.360
2020/01/31 09:06:56.8	315.620	-0.490	-0.110	0.350
2020/01/31 09:06:56.9	315.620	-0.490	-0.110	0.350
2020/01/31 09:06:57.0	315.610	-0.480	-0.120	0.340
2020/01/31 09:06:57.1	315.610	-0.470	-0.120	0.330
2020/01/31 09:06:57.2	315.610	-0.460	-0.130	0.320
2020/01/31 09:06:57.3	315.600	-0.440	-0.140	0.310
2020/01/31 09:06:57.4	315.610	-0.430	-0.160	0.310
2020/01/31 09:06:57.5	315.610	-0.410	-0.170	0.300
2020/01/31 09:06:57.6	315.610	-0.390	-0.190	0.290
2020/01/31 09:06:57.7	315.610	-0.360	-0.200	0.290
2020/01/31 09:06:57.8	315.610	-0.340	-0.220	0.290
2020/01/31 09:06:57.9	315.610	-0.310	-0.230	0.280
2020/01/31 09:06:58.0	315.610	-0.280	-0.250	0.290
2020/01/31 09:06:58.1	315.610	-0.250	-0.260	0.290
2020/01/31 09:06:58.2	315.610	-0.220	-0.280	0.290
2020/01/31 09:06:58.3	315.610	-0.190	-0.290	0.300
2020/01/31 09:06:58.4	315.630	-0.160	-0.310	0.300
2020/01/31 09:06:58.5	315.630	-0.120	-0.330	0.310
2020/01/31 09:06:58.6	315.630	-0.090	-0.340	0.320
2020/01/31 09:06:58.7	315.630	-0.050	-0.350	0.330
2020/01/31 09:06:58.8	315.630	-0.020	-0.360	0.340
2020/01/31 09:06:58.9	315.620	0.010	-0.370	0.350
2020/01/31 09:06:59.0	315.620	0.050	-0.380	0.360
2020/01/31 09:06:59.1	315.620	0.080	-0.390	0.370
2020/01/31 09:06:59.2	315.620	0.110	-0.400	0.380
2020/01/31 09:06:59.3	315.620	0.140	-0.400	0.390
2020/01/31 09:06:59.4	315.620	0.170	-0.400	0.400
2020/01/31 09:06:59.5	315.620	0.190	-0.400	0.410
2020/01/31 09:06:59.6	315.630	0.220	-0.400	0.410
2020/01/31 09:06:59.7	315.630	0.240	-0.400	0.410
2020/01/31 09:06:59.8	315.640	0.260	-0.400	0.420
2020/01/31 09:06:59.9	315.640	0.280	-0.400	0.420
2020/01/31 09:07:00.0	315.650	0.290	-0.390	0.420
2020/01/31 09:07:00.1	315.660	0.300	-0.380	0.420
2020/01/31 09:07:00.2	315.670	0.320	-0.370	0.410
2020/01/31 09:07:00.3	315.690	0.320	-0.360	0.410
2020/01/31 09:07:00.4	315.690	0.330	-0.350	0.400
2020/01/31 09:07:00.5	315.700	0.330	-0.340	0.400
2020/01/31 09:07:00.6	315.720	0.340	-0.320	0.390
2020/01/31 09:07:00.7	315.740	0.340	-0.310	0.380
2020/01/31 09:07:00.8	315.760	0.330	-0.290	0.380
2020/01/31 09:07:00.9	315.780	0.330	-0.270	0.370
2020/01/31 09:07:01.0	315.810	0.330	-0.250	0.360
2020/01/31 09:07:01.1	315.830	0.320	-0.230	0.350
2020/01/31 09:07:01.2	315.850	0.310	-0.210	0.340
2020/01/31 09:07:01.3	315.880	0.300	-0.190	0.340
2020/01/31 09:07:01.4	315.890	0.290	-0.170	0.330
2020/01/31 09:07:01.5	315.920	0.280	-0.140	0.320
2020/01/31 09:07:01.6	315.940	0.270	-0.120	0.310
2020/01/31 09:07:01.7	315.960	0.250	-0.090	0.310
2020/01/31 09:07:01.8	315.990	0.240	-0.070	0.300
2020/01/31 09:07:01.9	316.010	0.230	-0.050	0.300
2020/01/31 09:07:02.0	316.030	0.220	-0.020	0.300
2020/01/31 09:07:02.1	316.050	0.200	0.000	0.300
2020/01/31 09:07:02.2	316.070	0.190	0.020	0.300
2020/01/31 09:07:02.3	316.090	0.180	0.050	0.300
2020/01/31 09:07:02.4	316.110	0.170	0.060	0.310
2020/01/31 09:07:02.5	316.130	0.160	0.080	0.310
2020/01/31 09:07:02.6	316.140	0.150	0.100	0.320
2020/01/31 09:07:02.7	316.150	0.150	0.120	0.330
2020/01/31 09:07:02.8	316.170	0.140	0.130	0.340
2020/01/31 09:07:02.9	316.180	0.140	0.140	0.350
2020/01/31 09:07:03.0	316.180	0.130	0.150	0.370
2020/01/31 09:07:03.1	316.190	0.130	0.160	0.380
2020/01/31 09:07:03.2	316.200	0.130	0.170	0.400
2020/01/31 09:07:03.3	316.200	0.140	0.170	0.420
2020/01/31 09:07:03.4	316.210	0.140	0.170	0.440
2020/01/31 09:07:03.5	316.210	0.140	0.170	0.460
2020/01/31 09:07:03.6	316.210	0.150	0.160	0.480
2020/01/31 09:07:03.7	316.210	0.160	0.150	0.500
2020/01/31 09:07:03.8	316.210	0.160	0.140	0.530
2020/01/31 09:07:03.9	316.200	0.170	0.120	0.550
2020/01/31 09:07:04.0	316.200	0.180	0.110	0.580
2020/01/31 09:07:04.1	316.190	0.190	0.090	0.600
2020/01/31 09:07:04.2	316.180	0.200	0.060	0.620
2020/01/31 09:07:04.3	316.170	0.210	0.040	0.650
2020/01/31 09:07:04.4	316.160	0.220	0.010	0.670
2020/01/31 09:07:04.5	316.150	0.220	-0.020	0.690
2020/01/31 09:07:04.6	316.140	0.230	-0.040	0.710
2020/01/31 09:07:04.7	316.130	0.240	-0.070	0.730
2020/01/31 09:07:04.8	316.110	0.240	-0.100	0.750
2020/01/31 09:07:04.9	316.100	0.240	-0.140	0.770
2020/01/31 09:07:05.0	316.080	0.250	-0.170	0.780
2020/01/31 09:07:05.1	316.060	0.250	-0.200	0.790
2020/01/31 09:07:05.2	316.040	0.240	-0.230	0.800
2020/01/31 09:07:05.3	316.020	0.240	-0.260	0.810
2020/01/31 09:07:05.4	316.010	0.230	-0.290	0.820
2020/01/31 09:07:05.5	315.990	0.230	-0.310	0.820
2020/01/31 09:07:05.6	315.970	0.220	-0.340	0.830
2020/01/31 09:07:05.7	315.950	0.210	-0.370	0.830
2020/01/31 09:07:05.8	315.930	0.190	-0.390	0.820
2020/01/31 09:07:05.9	315.910	0.180	-0.420	0.820
2020/01/31 09:07:06.0	315.890	0.160	-0.440	0.810
2020/01/31 09:07:06.1	315.870	0.140	-0.460	0.800
2020/01/31 09:07:06.2	315.860	0.120	-0.480	0.790
2020/01/31 09:07:06.3	315.840	0.100	-0.490	0.780
2020/01/31 09:07:06.4	315.840	0.080	-0.510	0.760
2020/01/31 09:07:06.5	315.820	0.060	-0.520	0.750
2020/01/31 09:07:06.6	315.810	0.030	-0.530	0.730
2020/01/31 09:07:06.7	315.790	0.010	-0.540	0.700
2020/01/31 09:07:06.8	315.780	-0.020	-0.550	0.680
2020/01/31 09:07:06.9	315.770	-0.040	-0.550	0.650
2020/01/31 09:07:07.0	315.760	-0.070	-0.550	0.630
2020/01/31 09:07:07.1	315.750	-0.100	-0.560	0.590
2020/01/31 09:07:07.2	315.740	-0.130	-0.560	0.560
2020/01/31 09:07:07.3	315.730	-0.150	-0.550	0.530
2020/01/31 09:07:07.4	315.720	-0.180	-0.550	0.490
2020/01/31 09:07:07.5	315.710	-0.210	-0.550	0.450
2020/01/31 09:07:07.6	315.710	-0.230	-0.550	0.420
2020/01/31 09:07:07.7	315.710	-0.260	-0.540	0.380
2020/01/31 09:07:07.8	315.710	-0.280	-0.530	0.340
2020/01/31 09:07:07.9	315.710	-0.310	-0.530	0.300
2020/01/31 09:07:08.0	315.710	-0.330	-0.520	0.260
2020/01/31 09:07:08.1	315.710	-0.350	-0.510	0.220
2020/01/31 09:07:08.2	315.710	-0.370	-0.500	0.180
2020/01/31 09:07:08.3	315.710	-0.390	-0.490	0.140
2020/01/31 09:07:08.4	315.710	-0.410	-0.480	0.110
2020/01/31 09:07:08.5	315.710	-0.420	-0.460	0.070
2020/01/31 09:07:08.6	315.720	-0.440	-0.450	0.040
2020/01/31 09:07:08.7	315.720	-0.450	-0.440	0.010
2020/01/31 09:07:08.8	315.730	-0.460	-0.420	-0.020
2020/01/31 09:07:08.9	315.740	-0.470	-0.410	-0.050
2020/01/31 09:07:09.0	315.750	-0.470	-0.390	-0.070
2020/01/31 09:07:09.1	315.760	-0.480	-0.370	-0.090
2020/01/31 09:07:09.2	315.760	-0.480	-0.350	-0.120
2020/01/31 09:07:09.3	315.770	-0.480	-0.340	-0.130
2020/01/31 09:07:09.4	315.790	-0.480	-0.320	-0.150
2020/01/31 09:07:09.5	315.800	-0.480	-0.300	-0.160
2020/01/31 09:07:09.6	315.810	-0.470	-0.280	-0.170
2020/01/31 09:07:09.7	315.810	-0.470	-0.260	-0.170
2020/01/31 09:07:09.8	315.820	-0.460	-0.240	-0.180
2020/01/31 09:07:09.9	315.820	-0.450	-0.220	-0.170
2020/01/31 09:07:10.0	315.820	-0.430	-0.200	-0.170
2020/01/31 09:07:10.1	315.820	-0.420	-0.180	-0.160
2020/01/31 09:07:10.2	315.820	-0.400	-0.160	-0.140
2020/01/31 09:07:10.3	315.820	-0.390	-0.140	-0.130
2020/01/31 09:07:10.4	315.810	-0.370	-0.120	-0.110
2020/01/31 09:07:10.5	315.810	-0.350	-0.100	-0.080
2020/01/31 09:07:10.6	315.800	-0.330	-0.080	-0.060
2020/01/31 09:07:10.7	315.800	-0.310	-0.070	-0.030
2020/01/31 09:07:10.8	315.790	-0.290	-0.050	-0.010
2020/01/31 09:07:10.9	315.780	-0.260	-0.040	0.020
2020/01/31 09:07:11.0	315.770	-0.240	-0.030	0.050
2020/01/31 09:07:11.1	315.770	-0.220	-0.020	0.070
2020/01/31 09:07:11.2	315.760	-0.200	-0.010	0.100
2020/01/31 09:07:11.3	315.750	-0.180	-0.010	0.120
2020/01/31 09:07:11.4	315.760	-0.160	-0.000	0.160
2020/01/31 09:07:11.5	315.760	-0.140	-0.000	0.180
2020/01/31 09:07:11.6	315.750	-0.120	-0.000	0.200
2020/01/31 09:07:11.7	315.750	-0.100	-0.010	0.220
2020/01/31 09:07:11.8	315.750	-0.080	-0.020	0.240
2020/01/31 09:07:11.9	315.750	-0.070	-0.020	0.260
2020/01/31 09:07:12.0	315.750	-0.050	-0.030	0.270
2020/01/31 09:07:12.1	315.760	-0.040	-0.040	0.290
2020/01/31 09:07:12.2	315.760	-0.020	-0.060	0.310
2020/01/31 09:07:12.3	315.760	-0.010	-0.070	0.320
2020/01/31 09:07:12.4	315.770	0.000	-0.080	0.330
2020/01/31 09:07:12.5	315.780	0.010	-0.100	0.350
2020/01/31 09:07:12.6	315.780	0.020	-0.110	0.370
2020/01/31 09:07:12.7	315.790	0.030	-0.130	0.390
2020/01/31 09:07:12.8	315.800	0.030	-0.140	0.410
2020/01/31 09:07:12.9	315.810	0.040	-0.160	0.430
2020/01/31 09:07:13.0	315.810	0.040	-0.170	0.450
2020/01/31 09:07:13.1	315.820	0.050	-0.190	0.470
2020/01/31 09:07:13.2	315.820	0.050	-0.200	0.490
2020/01/31 09:07:13.3	315.830	0.060	-0.210	0.520
2020/01/31 09:07:13.4	315.820	0.060	-0.220	0.550
2020/01/31 09:07:13.5	315.830	0.060	-0.230	0.570
2020/01/31 09:07:13.6	315.830	0.070	-0.240	0.600
2020/01/31 09:07:13.7	315.840	0.070	-0.250	0.620
2020/01/31 09:07:13.8	315.840	0.070	-0.250	0.650
2020/01/31 09:07:13.9	315.850	0.070	-0.260	0.670
2020/01/31 09:07:14.0	315.860	0.080	-0.260	0.690
2020/01/31 09:07:14.1	315.860	0.080	-0.270	0.710
2020/01/31 09:07:14.2	315.870	0.080	-0.270	0.730
2020/01/31 09:07:14.3	315.880	0.090	-0.270	0.750
2020/01/31 09:07:14.4	315.870	0.090	-0.280	0.770
2020/01/31 09:07:14.5	315.880	0.100	-0.290	0.780
2020/01/31 09:07:14.6	315.890	0.110	-0.290	0.790
2020/01/31 09:07:14.7	315.910	0.110	-0.290	0.800
2020/01/31 09:07:14.8	315.920	0.120	-0.290	0.810
2020/01/31 09:07:14.9	315.940	0.130	-0.300	0.820
2020/01/31 09:07:15.0	315.950	0.140	-0.300	0.820
2020/01/31 09:07:15.1	315.970	0.150	-0.310	0.820
2020/01/31 09:07:15.2	315.990	0.160	-0.310	0.820
2020/01/31 09:07:15.3	316.000	0.170	-0.320	0.820
2020/01/31 09:07:15.4	316.000	0.180	-0.320	0.820
2020/01/31 09:07:15.5	316.020	0.190	-0.330	0.820
2020/01/31 09:07:15.6	316.040	0.200	-0.340	0.810
2020/01/31 09:07:15.7	316.060	0.210	-0.350	0.800
2020/01/31 09:07:15.8	316.080	0.220	-0.360	0.800
2020/01/31 09:07:15.9	316.100	0.230	-0.370	0.790
2020/01/31 09:07:16.0	316.110	0.240	-0.370	0.780
2020/01/31 09:07:16.1	316.130	0.250	-0.380	0.770
2020/01/31 09:07:16.2	316.150	0.260	-0.390	0.750
2020/01/31 09:07:16.3	316.160	0.270	-0.400	0.740
2020/01/31 09:07:16.4	316.170	0.280	-0.410	0.730
2020/01/31 09:07:16.5	316.180	0.280	-0.410	0.710
2020/01/31 09:07:16.6	316.190	0.290	-0.420	0.700
2020/01/31 09:07:16.7	316.210	0.290	-0.420	0.680
2020/01/31 09:07:16.8	316.220	0.300	-0.420	0.660
2020/01/31 09:07:16.9	316.230	0.300	-0.420	0.640
2020/01/31 09:07:17.0	316.240	0.300	-0.410	0.620
2020/01/31 09:07:17.1	316.250	0.300	-0.410	0.600
2020/01/31 09:07:17.2	316.260	0.300	-0.400	0.590
2020/01/31 09:07:17.3	316.260	0.300	-0.390	0.570
2020/01/31 09:07:17.4	316.260	0.300	-0.380	0.550
2020/01/31 09:07:17.5	316.270	0.300	-0.360	0.530
2020/01/31 09:07:17.6	316.270	0.290	-0.350	0.510
2020/01/31 09:07:17.7	316.280	0.290	-0.330	0.500
2020/01/31 09:07:17.8	316.280	0.280	-0.310	0.480
2020/01/31 09:07:17.9	316.280	0.270	-0.290	0.470
2020/01/31 09:07:18.0	316.280	0.270	-0.260	0.460
2020/01/31 09:07:18.1	316.280	0.260	-0.230	0.450
2020/01/31 09:07:18.2	316.280	0.250	-0.210	0.440
2020/01/31 09:07:18.3	316.280	0.240	-0.180	0.430
2020/01/31 09:07:18.4	316.280	0.230	-0.150	0.430
2020/01/31 09:07:18.5	316.270	0.220	-0.120	0.420
2020/01/31 09:07:18.6	316.260	0.210	-0.090	0.420
2020/01/31 09:07:18.7	316.250	0.200	-0.050	0.420
2020/01/31 09:07:18.8	316.230	0.190	-0.020	0.420
2020/01/31 09:07:18.9	316.220	0.180	0.010	0.410
2020/01/31 09:07:19.0	316.200	0.160	0.040	0.420
2020/01/31 09:07:19.1	316.180	0.150	0.070	0.420
2020/01/31 09:07:19.2	316.150	0.140	0.100	0.420
2020/01/31 09:07:19.3	316.130	0.130	0.130	0.420
2020/01/31 09:07:19.4	316.120	0.110	0.150	0.420
2020/01/31 09:07:19.5	316.090	0.100	0.180	0.430
2020/01/31 09:07:19.6	316.060	0.090	0.200	0.430
2020/01/31 09:07:19.7	316.020	0.080	0.220	0.440
2020/01/31 09:07:19.8	315.990	0.070	0.240	0.450
2020/01/31 09:07:19.9	315.950	0.060	0.250	0.450
2020/01/31 09:07:20.0	315.910	0.050	0.260	0.460
2020/01/31 09:07:20.1	315.870	0.030	0.270	0.470
2020/01/31 09:07:20.2	315.830	0.020	0.280	0.480
2020/01/31 09:07:20.3	315.780	0.010	0.280	0.490
2020/01/31 09:07:20.4	315.730	0.000	0.290	0.500
2020/01/31 09:07:20.5	315.680	-0.010	0.290	0.510
2020/01/31 09:07:20.6	315.630	-0.020	0.280	0.520
2020/01/31 09:07:20.7	315.580	-0.030	0.280	0.540
2020/01/31 09:07:20.8	315.530	-0.040	0.270	0.550
2020/01/31 09:07:20.9	315.480	-0.050	0.260	0.560
2020/01/31 09:07:21.0	315.430	-0.060	0.250	0.570
2020/01/31 09:07:21.1	315.380	-0.080	0.230	0.590
2020/01/31 09:07:21.2	315.330	-0.090	0.220	0.600
2020/01/31 09:07:21.3	315.280	-0.100	0.190	0.610
2020/01/31 09:07:21.4	315.230	-0.110	0.170	0.620
2020/01/31 09:07:21.5	315.180	-0.120	0.140	0.630
2020/01/31 09:07:21.6	315.140	-0.130	0.110	0.630
2020/01/31 09:07:21.7	315.100	-0.150	0.080	0.630
2020/01/31 09:07:21.8	315.060	-0.160	0.040	0.630
2020/01/31 09:07:21.9	315.030	-0.170	-0.000	0.630
2020/01/31 09:07:22.0	315.000	-0.180	-0.040	0.630
2020/01/31 09:07:22.1	314.970	-0.190	-0.090	0.620
2020/01/31 09:07:22.2	314.950	-0.200	-0.140	0.600
2020/01/31 09:07:22.3	314.930	-0.210	-0.190	0.590
2020/01/31 09:07:22.4	314.910	-0.210	-0.240	0.570
2020/01/31 09:07:22.5	314.900	-0.220	-0.290	0.550
2020/01/31 09:07:22.6	314.900	-0.230	-0.350	0.520
2020/01/31 09:07:22.7	314.900	-0.230	-0.400	0.490
2020/01/31 09:07:22.8	314.900	-0.240	-0.450	0.460
2020/01/31 09:07:22.9	314.910	-0.240	-0.510	0.430
2020/01/31 09:07:23.0	314.920	-0.250	-0.560	0.400
2020/01/31 09:07:23.1	314.930	-0.250	-0.610	0.360
2020/01/31 09:07:23.2	314.940	-0.250	-0.660	0.320
2020/01/31 09:07:23.3	314.960	-0.260	-0.700	0.290
2020/01/31 09:07:23.4	314.990	-0.260	-0.750	0.250
2020/01/31 09:07:23.5	315.010	-0.260	-0.790	0.210
2020/01/31 09:07:23.6	315.040	-0.260	-0.820	0.180
2020/01/31 09:07:23.7	315.060	-0.260	-0.860	0.140
2020/01/31 09:07:23.8	315.090	-0.270	-0.890	0.110
2020/01/31 09:07:23.9	315.120	-0.270	-0.910	0.070
2020/01/31 09:07:24.0	315.150	-0.270	-0.930	0.040
2020/01/31 09:07:24.1	315.190	-0.270	-0.950	0.010
2020/01/31 09:07:24.2	315.220	-0.280	-0.960	-0.020
2020/01/31 09:07:24.3	315.260	-0.280	-0.960	-0.050
2020/01/31 09:07:24.4	315.310	-0.280	-0.970	-0.070
2020/01/31 09:07:24.5	315.340	-0.280	-0.970	-0.100
2020/01/31 09:07:24.6	315.380	-0.290	-0.960	-0.120
2020/01/31 09:07:24.7	315.420	-0.290	-0.950	-0.130
2020/01/31 09:07:24.8	315.450	-0.290	-0.930	-0.140
2020/01/31 09:07:24.9	315.490	-0.290	-0.910	-0.150
2020/01/31 09:07:25.0	315.530	-0.300	-0.880	-0.160
2020/01/31 09:07:25.1	315.560	-0.300	-0.850	-0.160
2020/01/31 09:07:25.2	315.600	-0.300	-0.820	-0.160
2020/01/31 09:07:25.3	315.630	-0.300	-0.790	-0.160
2020/01/31 09:07:25.4	315.680	-0.300	-0.750	-0.150
2020/01/31 09:07:25.5	315.710	-0.300	-0.710	-0.130
2020/01/31 09:07:25.6	315.750	-0.290	-0.670	-0.120
2020/01/31 09:07:25.7	315.780	-0.290	-0.630	-0.100
2020/01/31 09:07:25.8	315.810	-0.280	-0.590	-0.070
2020/01/31 09:07:25.9	315.840	-0.280	-0.540	-0.050
2020/01/31 09:07:26.0	315.860	-0.270	-0.500	-0.020
2020/01/31 09:07:26.1	315.890	-0.260	-0.460	0.010
2020/01/31 09:07:26.2	315.910	-0.240	-0.420	0.050
2020/01/31 09:07:26.3	315.940	-0.230	-0.380	0.080
2020/01/31 09:07:26.4	315.980	-0.220	-0.340	0.120
2020/01/31 09:07:26.5	316.000	-0.200	-0.310	0.160
2020/01/31 09:07:26.6	316.020	-0.180	-0.280	0.200
2020/01/31 09:07:26.7	316.030	-0.160	-0.250	0.240
2020/01/31 09:07:26.8	316.050	-0.150	-0.220	0.280
2020/01/31 09:07:26.9	316.060	-0.120	-0.190	0.310
2020/01/31 09:07:27.0	316.070	-0.100	-0.170	0.350
2020/01/31 09:07:27.1	316.090	-0.080	-0.160	0.380
2020/01/31 09:07:27.2	316.100	-0.060	-0.140	0.410
2020/01/31 09:07:27.3	316.110	-0.030	-0.130	0.440
2020/01/31 09:07:27.4	316.130	-0.010	-0.120	0.480
2020/01/31 09:07:27.5	316.140	0.020	-0.120	0.500
2020/01/31 09:07:27.6	316.150	0.040	-0.120	0.530
2020/01/31 09:07:27.7	316.160	0.070	-0.120	0.550
2020/01/31 09:07:27.8	316.170	0.090	-0.120	0.570
2020/01/31 09:07:27.9	316.180	0.110	-0.130	0.590
2020/01/31 09:07:28.0	316.190	0.140	-0.130	0.610
2020/01/31 09:07:28.1	316.200	0.160	-0.140	0.620
2020/01/31 09:07:28.2	316.210	0.180	-0.150	0.640
2020/01/31 09:07:28.3	316.210	0.200	-0.160	0.650
2020/01/31 09:07:28.4	316.220	0.220	-0.170	0.660
2020/01/31 09:07:28.5	316.230	0.230	-0.180	0.670
2020/01/31 09:07:28.6	316.230	0.250	-0.180	0.680
2020/01/31 09:07:28.7	316.240	0.260	-0.190	0.690
2020/01/31 09:07:28.8	316.240	0.270	-0.190	0.700
2020/01/31 09:07:28.9	316.250	0.280	-0.190	0.700
2020/01/31 09:07:29.0	316.250	0.290	-0.190	0.710
2020/01/31 09:07:29.1	316.260	0.290	-0.190	0.710
2020/01/31 09:07:29.2	316.260	0.300	-0.180	0.720
2020/01/31 09:07:29.3	316.260	0.300	-0.170	0.720
2020/01/31 09:07:29.4	316.250	0.290	-0.160	0.730
2020/01/31 09:07:29.5	316.250	0.290	-0.140	0.730
2020/01/31 09:07:29.6	316.250	0.280	-0.120	0.740
2020/01/31 09:07:29.7	316.240	0.270	-0.100	0.740
2020/01/31 09:07:29.8	316.230	0.260	-0.070	0.740
2020/01/31 09:07:29.9	316.220	0.240	-0.040	0.750
2020/01/31 09:07:30.0	316.210	0.230	-0.000	0.750
2020/01/31 09:07:30.1	316.200	0.210	0.040	0.760
2020/01/31 09:07:30.2	316.180	0.190	0.080	0.760
2020/01/31 09:07:30.3	316.170	0.160	0.120	0.770
2020/01/31 09:07:30.4	316.140	0.140	0.160	0.770
2020/01/31 09:07:30.5	316.120	0.110	0.210	0.770
2020/01/31 09:07:30.6	316.090	0.090	0.260	0.780
2020/01/31 09:07:30.7	316.070	0.060	0.300	0.780
2020/01/31 09:07:30.8	316.040	0.030	0.350	0.790
2020/01/31 09:07:30.9	316.010	0.000	0.400	0.800
2020/01/31 09:07:31.0	315.980	-0.020	0.440	0.800
2020/01/31 09:07:31.1	315.950	-0.050	0.490	0.810
2020/01/31 09:07:31.2	315.920	-0.080	0.530	0.810
2020/01/31 09:07:31.3	315.880	-0.110	0.570	0.820
2020/01/31 09:07:31.4	315.840	-0.140	0.600	0.820
2020/01/31 09:07:31.5	315.800	-0.160	0.630	0.820
2020/01/31 09:07:31.6	315.760	-0.190	0.660	0.820
2020/01/31 09:07:31.7	315.710	-0.210	0.690	0.820
2020/01/31 09:07:31.8	315.670	-0.230	0.700	0.820
2020/01/31 09:07:31.9	315.630	-0.250	0.720	0.820
2020/01/31 09:07:32.0	315.580	-0.270	0.730	0.810
2020/01/31 09:07:32.1	315.540	-0.280	0.730	0.810
2020/01/31 09:07:32.2	315.500	-0.290	0.720	0.800
2020/01/31 09:07:32.3	315.450	-0.300	0.710	0.790
2020/01/31 09:07:32.4	315.410	-0.310	0.690	0.770
2020/01/31 09:07:32.5	315.370	-0.310	0.660	0.750
2020/01/31 09:07:32.6	315.330	-0.310	0.630	0.740
2020/01/31 09:07:32.7	315.290	-0.310	0.590	0.720
2020/01/31 09:07:32.8	315.260	-0.300	0.540	0.700
2020/01/31 09:07:32.9	315.220	-0.300	0.490	0.670
2020/01/31 09:07:33.0	315.190	-0.280	0.430	0.650
2020/01/31 09:07:33.1	315.160	-0.270	0.370	0.620
2020/01/31 09:07:33.2	315.130	-0.250	0.300	0.600
2020/01/31 09:07:33.3	315.110	-0.230	0.230	0.570
2020/01/31 09:07:33.4	315.080	-0.210	0.140	0.530
2020/01/31 09:07:33.5	315.060	-0.190	0.060	0.500
2020/01/31 09:07:33.6	315.040	-0.160	-0.020	0.470
2020/01/31 09:07:33.7	315.020	-0.130	-0.100	0.440
2020/01/31 09:07:33.8	315.010	-0.100	-0.190	0.410
2020/01/31 09:07:33.9	315.000	-0.070	-0.270	0.370
2020/01/31 09:07:34.0	314.990	-0.040	-0.360	0.340
2020/01/31 09:07:34.1	314.980	-0.000	-0.440	0.310
2020/01/31 09:07:34.2	314.980	0.030	-0.520	0.280
2020/01/31 09:07:34.3	314.980	0.070	-0.600	0.250
2020/01/31 09:07:34.4	314.980	0.100	-0.670	0.220
2020/01/31 09:07:34.5	314.980	0.130	-0.750	0.190
2020/01/31 09:07:34.6	314.980	0.170	-0.810	0.160
2020/01/31 09:07:34.7	314.990	0.200	-0.880	0.130
2020/01/31 09:07:34.8	315.000	0.230	-0.940	0.100
2020/01/31 09:07:34.9	315.010	0.260	-0.990	0.070
2020/01/31 09:07:35.0	315.020	0.290	-1.040	0.050
2020/01/31 09:07:35.1	315.030	0.320	-1.090	0.020
2020/01/31 09:07:35.2	315.050	0.350	-1.120	-0.000
2020/01/31 09:07:35.3	315.070	0.370	-1.160	-0.020
2020/01/31 09:07:35.4	315.080	0.390	-1.190	-0.040
2020/01/31 09:07:35.5	315.110	0.410	-1.210	-0.060
2020/01/31 09:07:35.6	315.130	0.430	-1.230	-0.080
2020/01/31 09:07:35.7	315.160	0.450	-1.250	-0.100
2020/01/31 09:07:35.8	315.180	0.460	-1.250	-0.120
2020/01/31 09:07:35.9	315.210	0.480	-1.260	-0.140
2020/01/31 09:07:36.0	315.240	0.490	-1.260	-0.160
2020/01/31 09:07:36.1	315.280	0.490	-1.260	-0.170
2020/01/31 09:07:36.2	315.310	0.500	-1.250	-0.190
2020/01/31 09:07:36.3	315.340	0.500	-1.240	-0.200
2020/01/31 09:07:36.4	315.390	0.500	-1.220	-0.210
2020/01/31 09:07:36.5	315.420	0.490	-1.200	-0.220
2020/01/31 09:07:36.6	315.460	0.490	-1.180	-0.230
2020/01/31 09:07:36.7	315.500	0.480	-1.160	-0.240
2020/01/31 09:07:36.8	315.540	0.470	-1.140	-0.250
2020/01/31 09:07:36.9	315.580	0.460	-1.110	-0.250
2020/01/31 09:07:37.0	315.620	0.440	-1.080	-0.260
2020/01/31 09:07:37.1	315.660	0.430	-1.050	-0.270
2020/01/31 09:07:37.2	315.710	0.410	-1.020	-0.270
2020/01/31 09:07:37.3	315.750	0.390	-0.990	-0.270
2020/01/31 09:07:37.4	315.810	0.370	-0.950	-0.270
2020/01/31 09:07:37.5	315.850	0.350	-0.910	-0.270
2020/01/31 09:07:37.6	315.900	0.330	-0.880	-0.270
2020/01/31 09:07:37.7	315.950	0.300	-0.840	-0.270
2020/01/31 09:07:37.8	316.000	0.280	-0.800	-0.260
2020/01/31 09:07:37.9	316.040	0.250	-0.760	-0.250
2020/01/31 09:07:38.0	316.090	0.230	-0.720	-0.240
2020/01/31 09:07:38.1	316.140	0.200	-0.680	-0.230
2020/01/31 09:07:38.2	316.180	0.170	-0.640	-0.220
2020/01/31 09:07:38.3	316.230	0.150	-0.600	-0.200
2020/01/31 09:07:38.4	316.290	0.120	-0.560	-0.180
2020/01/31 09:07:38.5	316.330	0.090	-0.510	-0.160
2020/01/31 09:07:38.6	316.370	0.070	-0.470	-0.140
2020/01/31 09:07:38.7	316.410	0.040	-0.420	-0.110
2020/01/31 09:07:38.8	316.450	0.010	-0.370	-0.080
2020/01/31 09:07:38.9	316.480	-0.010	-0.320	-0.050
2020/01/31 09:07:39.0	316.510	-0.040	-0.270	-0.020
2020/01/31 09:07:39.1	316.540	-0.060	-0.220	0.020
2020/01/31 09:07:39.2	316.560	-0.090	-0.170	0.060
2020/01/31 09:07:39.3	316.580	-0.110	-0.120	0.100
2020/01/31 09:07:39.4	316.590	-0.130	-0.070	0.150
2020/01/31 09:07:39.5	316.600	-0.160	-0.010	0.190
2020/01/31 09:07:39.6	316.620	-0.180	0.040	0.230
2020/01/31 09:07:39.7	316.620	-0.200	0.090	0.280
2020/01/31 09:07:39.8	316.630	-0.220	0.140	0.320
2020/01/31 09:07:39.9	316.630	-0.240	0.190	0.370
2020/01/31 09:07:40.0	316.630	-0.250	0.240	0.420
2020/01/31 09:07:40.1	316.620	-0.270	0.290	0.470
2020/01/31 09:07:40.2	316.610	-0.290	0.340	0.530
2020/01/31 09:07:40.3	316.600	-0.300	0.380	0.580
2020/01/31 09:07:40.4	316.570	-0.320	0.430	0.640
2020/01/31 09:07:40.5	316.550	-0.330	0.470	0.690
2020/01/31 09:07:40.6	316.530	-0.340	0.510	0.750
2020/01/31 09:07:40.7	316.500	-0.360	0.550	0.810
2020/01/31 09:07:40.8	316.470	-0.370	0.590	0.870
2020/01/31 09:07:40.9	316.430	-0.380	0.620	0.930
2020/01/31 09:07:41.0	316.400	-0.390	0.650	0.980
2020/01/31 09:07:41.1	316.360	-0.400	0.680	1.040
2020/01/31 09:07:41.2	316.320	-0.400	0.710	1.090
2020/01/31 09:07:41.3	316.280	-0.410	0.730	1.150
2020/01/31 09:07:41.4	316.220	-0.410	0.740	1.200
2020/01/31 09:07:41.5	316.170	-0.420	0.760	1.250
2020/01/31 09:07:41.6	316.130	-0.420	0.770	1.290
2020/01/31 09:07:41.7	316.080	-0.420	0.770	1.330
2020/01/31 09:07:41.8	316.040	-0.430	0.770	1.360
2020/01/31 09:07:41.9	315.990	-0.430	0.760	1.390
2020/01/31 09:07:42.0	315.950	-0.430	0.750	1.420
2020/01/31 09:07:42.1	315.900	-0.420	0.740	1.440
2020/01/31 09:07:42.2	315.860	-0.420	0.720	1.450
2020/01/31 09:07:42.3	315.810	-0.420	0.690	1.460
2020/01/31 09:07:42.4	315.770	-0.410	0.660	1.460
2020/01/31 09:07:42.5	315.730	-0.410	0.630	1.460
2020/01/31 09:07:42.6	315.690	-0.400	0.590	1.450
2020/01/31 09:07:42.7	315.650	-0.390	0.550	1.440
2020/01/31 09:07:42.8	315.620	-0.380	0.500	1.430
2020/01/31 09:07:42.9	315.580	-0.370	0.450	1.400
2020/01/31 09:07:43.0	315.550	-0.360	0.390	1.380
2020/01/31 09:07:43.1	315.520	-0.350	0.340	1.350
2020/01/31 09:07:43.2	315.500	-0.330	0.270	1.310
2020/01/31 09:07:43.3	315.470	-0.320	0.210	1.270
2020/01/31 09:07:43.4	315.460	-0.310	0.140	1.220
2020/01/31 09:07:43.5	315.440	-0.290	0.080	1.170
2020/01/31 09:07:43.6	315.430	-0.280	0.010	1.120
2020/01/31 09:07:43.7	315.410	-0.260	-0.060	1.060
2020/01/31 09:07:43.8	315.400	-0.250	-0.130	0.990
2020/01/31 09:07:43.9	315.400	-0.240	-0.200	0.930
2020/01/31 09:07:44.0	315.390	-0.220	-0.270	0.860
2020/01/31 09:07:44.1	315.390	-0.210	-0.340	0.780
2020/01/31 09:07:44.2	315.390	-0.190	-0.400	0.700
2020/01/31 09:07:44.3	315.400	-0.180	-0.470	0.620
2020/01/31 09:07:44.4	315.420	-0.160	-0.530	0.540
2020/01/31 09:07:44.5	315.420	-0.150	-0.590	0.460
2020/01/31 09:07:44.6	315.430	-0.140	-0.650	0.370
2020/01/31 09:07:44.7	315.450	-0.120	-0.700	0.290
2020/01/31 09:07:44.8	315.460	-0.110	-0.740	0.210
2020/01/31 09:07:44.9	315.470	-0.100	-0.780	0.120
2020/01/31 09:07:45.0	315.490	-0.090	-0.820	0.040
2020/01/31 09:07:45.1	315.510	-0.080	-0.850	-0.030
2020/01/31 09:07:45.2	315.530	-0.070	-0.870	-0.110
2020/01/31 09:07:45.3	315.540	-0.060	-0.890	-0.180
2020/01/31 09:07:45.4	315.570	-0.050	-0.900	-0.250
2020/01/31 09:07:45.5	315.590	-0.040	-0.910	-0.310
2020/01/31 09:07:45.6	315.610	-0.030	-0.910	-0.370
2020/01/31 09:07:45.7	315.630	-0.020	-0.910	-0.430
2020/01/31 09:07:45.8	315.650	-0.010	-0.900	-0.480
2020/01/31 09:07:45.9	315.680	-0.000	-0.890	-0.520
2020/01/31 09:07:46.0	315.700	0.010	-0.870	-0.570
2020/01/31 09:07:46.1	315.720	0.020	-0.850	-0.610
2020/01/31 09:07:46.2	315.750	0.020	-0.830	-0.640
2020/01/31 09:07:46.3	315.770	0.030	-0.800	-0.670
2020/01/31 09:07:46.4	315.800	0.040	-0.780	-0.690
2020/01/31 09:07:46.5	315.820	0.050	-0.750	-0.710
2020/01/31 09:07:46.6	315.850	0.050	-0.720	-0.730
2020/01/31 09:07:46.7	315.870	0.060	-0.680	-0.740
2020/01/31 09:07:46.8	315.900	0.070	-0.650	-0.740
2020/01/31 09:07:46.9	315.920	0.080	-0.620	-0.750
2020/01/31 09:07:47.0	315.950	0.090	-0.580	-0.740
2020/01/31 09:07:47.1	315.970	0.090	-0.550	-0.740
2020/01/31 09:07:47.2	315.990	0.100	-0.520	-0.730
2020/01/31 09:07:47.3	316.010	0.110	-0.490	-0.720
2020/01/31 09:07:47.4	316.040	0.120	-0.460	-0.700
2020/01/31 09:07:47.5	316.060	0.140	-0.430	-0.680
2020/01/31 09:07:47.6	316.080	0.150	-0.400	-0.650
2020/01/31 09:07:47.7	316.090	0.160	-0.380	-0.620
2020/01/31 09:07:47.8	316.110	0.170	-0.360	-0.590
2020/01/31 09:07:47.9	316.130	0.190	-0.340	-0.550
2020/01/31 09:07:48.0	316.140	0.200	-0.320	-0.510
2020/01/31 09:07:48.1	316.160	0.220	-0.310	-0.460
2020/01/31 09:07:48.2	316.170	0.240	-0.300	-0.410
2020/01/31 09:07:48.3	316.180	0.250	-0.280	-0.360
2020/01/31 09:07:48.4	316.200	0.270	-0.270	-0.310
2020/01/31 09:07:48.5	316.220	0.290	-0.270	-0.250
2020/01/31 09:07:48.6	316.230	0.310	-0.260	-0.190
2020/01/31 09:07:48.7	316.240	0.330	-0.260	-0.130
2020/01/31 09:07:48.8	316.250	0.350	-0.250	-0.060
2020/01/31 09:07:48.9	316.260	0.370	-0.250	0.000
2020/01/31 09:07:49.0	316.270	0.400	-0.250	0.070
2020/01/31 09:07:49.1	316.280	0.420	-0.250	0.130
2020/01/31 09:07:49.2	316.290	0.440	-0.250	0.200
2020/01/31 09:07:49.3	316.290	0.460	-0.250	0.270
2020/01/31 09:07:49.4	316.300	0.480	-0.250	0.340
2020/01/31 09:07:49.5	316.310	0.490	-0.250	0.410
2020/01/31 09:07:49.6	316.310	0.510	-0.250	0.480
2020/01/31 09:07:49.7	316.310	0.530	-0.250	0.540
2020/01/31 09:07:49.8	316.320	0.540	-0.250	0.610
2020/01/31 09:07:49.9	316.320	0.550	-0.250	0.680
2020/01/31 09:07:50.0	316.320	0.560	-0.240	0.740
2020/01/31 09:07:50.1	316.320	0.570	-0.240	0.800
2020/01/31 09:07:50.2	316.310	0.580	-0.240	0.860
2020/01/31 09:07:50.3	316.310	0.580	-0.230	0.920
2020/01/31 09:07:50.4	316.280	0.580	-0.220	0.980
2020/01/31 09:07:50.5	316.270	0.580	-0.220	1.030
2020/01/31 09:07:50.6	316.260	0.570	-0.210	1.080
2020/01/31 09:07:50.7	316.260	0.570	-0.200	1.130
2020/01/31 09:07:50.8	316.250	0.560	-0.200	1.170
2020/01/31 09:07:50.9	316.230	0.540	-0.190	1.210
2020/01/31 09:07:51.0	316.220	0.530	-0.180	1.240
2020/01/31 09:07:51.1	316.210	0.510	-0.170	1.280
2020/01/31 09:07:51.2	316.200	0.490	-0.160	1.300
2020/01/31 09:07:51.3	316.180	0.460	-0.150	1.320
2020/01/31 09:07:51.4	316.160	0.440	-0.140	1.340
2020/01/31 09:07:51.5	316.150	0.410	-0.130	1.350
2020/01/31 09:07:51.6	316.130	0.380	-0.130	1.360
2020/01/31 09:07:51.7	316.120	0.350	-0.120	1.360
2020/01/31 09:07:51.8	316.110	0.310	-0.110	1.350
2020/01/31 09:07:51.9	316.100	0.280	-0.110	1.340
2020/01/31 09:07:52.0	316.090	0.240	-0.100	1.330
2020/01/31 09:07:52.1	316.080	0.200	-0.100	1.310
2020/01/31 09:07:52.2	316.070	0.160	-0.100	1.290
2020/01/31 09:07:52.3	316.060	0.130	-0.100	1.260
2020/01/31 09:07:52.4	316.060	0.090	-0.100	1.230
2020/01/31 09:07:52.5	316.050	0.050	-0.100	1.190
2020/01/31 09:07:52.6	316.040	0.010	-0.100	1.160
2020/01/31 09:07:52.7	316.030	-0.030	-0.100	1.110
2020/01/31 09:07:52.8	316.030	-0.060	-0.110	1.070
2020/01/31 09:07:52.9	316.020	-0.100	-0.110	1.020
2020/01/31 09:07:53.0	316.020	-0.140	-0.120	0.970
2020/01/31 09:07:53.1	316.010	-0.170	-0.120	0.910
2020/01/31 09:07:53.2	316.010	-0.200	-0.130	0.860
2020/01/31 09:07:53.3	316.000	-0.230	-0.130	0.800
2020/01/31 09:07:53.4	316.000	-0.260	-0.140	0.740
2020/01/31 09:07:53.5	316.000	-0.290	-0.150	0.680
2020/01/31 09:07:53.6	315.990	-0.320	-0.150	0.620
2020/01/31 09:07:53.7	315.980	-0.340	-0.150	0.560
2020/01/31 09:07:53.8	315.980	-0.360	-0.150	0.500
2020/01/31 09:07:53.9	315.970	-0.380	-0.150	0.440
2020/01/31 09:07:54.0	315.960	-0.400	-0.150	0.380
2020/01/31 09:07:54.1	315.960	-0.420	-0.150	0.320
2020/01/31 09:07:54.2	315.950	-0.430	-0.150	0.260
2020/01/31 09:07:54.3	315.940	-0.450	-0.150	0.210
2020/01/31 09:07:54.4	315.940	-0.460	-0.140	0.150
2020/01/31 09:07:54.5	315.930	-0.460	-0.140	0.100
2020/01/31 09:07:54.6	315.920	-0.470	-0.130	0.050
2020/01/31 09:07:54.7	315.920	-0.470	-0.120	-0.000
2020/01/31 09:07:54.8	315.910	-0.480	-0.110	-0.050
2020/01/31 09:07:54.9	315.910	-0.480	-0.100	-0.100
2020/01/31 09:07:55.0	315.900	-0.480	-0.090	-0.140
2020/01/31 09:07:55.1	315.900	-0.470	-0.090	-0.190
2020/01/31 09:07:55.2	315.890	-0.470	-0.080	-0.230
2020/01/31 09:07:55.3	315.890	-0.460	-0.070	-0.270
2020/01/31 09:07:55.4	315.870	-0.450	-0.060	-0.300
2020/01/31 09:07:55.5	315.870	-0.440	-0.050	-0.340
2020/01/31 09:07:55.6	315.870	-0.430	-0.040	-0.370
2020/01/31 09:07:55.7	315.870	-0.420	-0.030	-0.390
2020/01/31 09:07:55.8	315.870	-0.410	-0.020	-0.420
2020/01/31 09:07:55.9	315.870	-0.390	-0.020	-0.440
2020/01/31 09:07:56.0	315.880	-0.380	-0.010	-0.460
2020/01/31 09:07:56.1	315.880	-0.360	-0.010	-0.470
2020/01/31 09:07:56.2	315.880	-0.340	-0.000	-0.480
2020/01/31 09:07:56.3	315.880	-0.320	-0.000	-0.480
2020/01/31 09:07:56.4	315.880	-0.300	0.000	-0.480
2020/01/31 09:07:56.5	315.890	-0.280	0.000	-0.480
2020/01/31 09:07:56.6	315.890	-0.260	0.000	-0.470
2020/01/31 09:07:56.7	315.890	-0.240	0.000	-0.460
2020/01/31 09:07:56.8	315.890	-0.220	-0.000	-0.440
2020/01/31 09:07:56.9	315.890	-0.190	-0.000	-0.420
2020/01/31 09:07:57.0	315.890	-0.170	-0.010	-0.400
2020/01/31 09:07:57.1	315.890	-0.150	-0.020	-0.370
2020/01/31 09:07:57.2	315.890	-0.130	-0.020	-0.340
2020/01/31 09:07:57.3	315.890	-0.110	-0.030	-0.300
2020/01/31 09:07:57.4	315.890	-0.090	-0.040	-0.260
2020/01/31 09:07:57.5	315.890	-0.070	-0.050	-0.220
2020/01/31 09:07:57.6	315.890	-0.050	-0.060	-0.180
2020/01/31 09:07:57.7	315.890	-0.030	-0.080	-0.140
2020/01/31 09:07:57.8	315.890	-0.010	-0.090	-0.090
2020/01/31 09:07:57.9	315.890	0.000	-0.110	-0.050
2020/01/31 09:07:58.0	315.890	0.020	-0.130	-0.000
2020/01/31 09:07:58.1	315.890	0.030	-0.150	0.040
2020/01/31 09:07:58.2	315.890	0.040	-0.170	0.080
2020/01/31 09:07:58.3	315.900	0.050	-0.200	0.120
2020/01/31 09:07:58.4	315.930	0.060	-0.220	0.170
2020/01/31 09:07:58.5	315.930	0.070	-0.250	0.210
2020/01/31 09:07:58.6	315.940	0.070	-0.280	0.240
2020/01/31 09:07:58.7	315.960	0.080	-0.310	0.280
2020/01/31 09:07:58.8	315.970	0.080	-0.340	0.310
2020/01/31 09:07:58.9	315.980	0.080	-0.380	0.340
2020/01/31 09:07:59.0	315.990	0.080	-0.410	0.370
2020/01/31 09:07:59.1	316.010	0.080	-0.450	0.390
2020/01/31 09:07:59.2	316.020	0.080	-0.480	0.410
2020/01/31 09:07:59.3	316.040	0.070	-0.510	0.440
2020/01/31 09:07:59.4	316.060	0.070	-0.540	0.460
2020/01/31 09:07:59.5	316.070	0.060	-0.570	0.470
2020/01/31 09:07:59.6	316.090	0.060	-0.600	0.490
2020/01/31 09:07:59.7	316.100	0.050	-0.620	0.500
2020/01/31 09:07:59.8	316.120	0.040	-0.650	0.510
2020/01/31 09:07:59.9	316.130	0.030	-0.670	0.520
2020/01/31 09:08:00.0	316.150	0.020	-0.680	0.530
2020/01/31 09:08:00.1	316.160	0.020	-0.690	0.540
2020/01/31 09:08:00.2	316.170	0.010	-0.700	0.550
2020/01/31 09:08:00.3	316.180	-0.000	-0.710	0.560
2020/01/31 09:08:00.4	316.200	-0.010	-0.710	0.560
2020/01/31 09:08:00.5	316.210	-0.020	-0.710	0.570
2020/01/31 09:08:00.6	316.210	-0.030	-0.700	0.580
2020/01/31 09:08:00.7	316.220	-0.030	-0.690	0.590
2020/01/31 09:08:00.8	316.230	-0.040	-0.680	0.600
2020/01/31 09:08:00.9	316.240	-0.040	-0.660	0.610
2020/01/31 09:08:01.0	316.240	-0.050	-0.650	0.630
2020/01/31 09:08:01.1	316.250	-0.050	-0.630	0.640
2020/01/31 09:08:01.2	316.250	-0.050	-0.600	0.650
2020/01/31 09:08:01.3	316.260	-0.050	-0.580	0.660
2020/01/31 09:08:01.4	316.270	-0.040	-0.560	0.680
2020/01/31 09:08:01.5	316.270	-0.040	-0.530	0.690
2020/01/31 09:08:01.6	316.270	-0.030	-0.500	0.700
2020/01/31 09:08:01.7	316.280	-0.030	-0.480	0.710
2020/01/31 09:08:01.8	316.280	-0.020	-0.450	0.720
2020/01/31 09:08:01.9	316.280	-0.010	-0.420	0.740
2020/01/31 09:08:02.0	316.280	0.010	-0.390	0.750
2020/01/31 09:08:02.1	316.270	0.020	-0.360	0.760
2020/01/31 09:08:02.2	316.270	0.040	-0.340	0.770
2020/01/31 09:08:02.3	316.260	0.050	-0.310	0.780
2020/01/31 09:08:02.4	316.250	0.070	-0.290	0.800
2020/01/31 09:08:02.5	316.240	0.090	-0.260	0.810
2020/01/31 09:08:02.6	316.230	0.110	-0.240	0.820
2020/01/31 09:08:02.7	316.220	0.130	-0.210	0.830
2020/01/31 09:08:02.8	316.200	0.150	-0.190	0.840
2020/01/31 09:08:02.9	316.180	0.170	-0.170	0.850
2020/01/31 09:08:03.0	316.160	0.200	-0.150	0.860
2020/01/31 09:08:03.1	316.140	0.220	-0.130	0.860
2020/01/31 09:08:03.2	316.120	0.240	-0.120	0.860
2020/01/31 09:08:03.3	316.100	0.260	-0.100	0.870
2020/01/31 09:08:03.4	316.080	0.280	-0.090	0.870
2020/01/31 09:08:03.5	316.060	0.310	-0.080	0.870
2020/01/31 09:08:03.6	316.030	0.330	-0.070	0.860
2020/01/31 09:08:03.7	316.010	0.340	-0.060	0.860
2020/01/31 09:08:03.8	315.990	0.360	-0.060	0.850
2020/01/31 09:08:03.9	315.960	0.380	-0.050	0.840
2020/01/31 09:08:04.0	315.940	0.400	-0.050	0.830
2020/01/31 09:08:04.1	315.920	0.410	-0.050	0.820
2020/01/31 09:08:04.2	315.900	0.420	-0.050	0.810
2020/01/31 09:08:04.3	315.890	0.430	-0.050	0.790
2020/01/31 09:08:04.4	315.860	0.440	-0.050	0.780
2020/01/31 09:08:04.5	315.850	0.450	-0.050	0.760
2020/01/31 09:08:04.6	315.840	0.450	-0.060	0.740
2020/01/31 09:08:04.7	315.830	0.450	-0.060	0.720
2020/01/31 09:08:04.8	315.820	0.450	-0.070	0.690
2020/01/31 09:08:04.9	315.810	0.450	-0.080	0.670
2020/01/31 09:08:05.0	315.810	0.450	-0.080	0.640
2020/01/31 09:08:05.1	315.810	0.440	-0.090	0.610
2020/01/31 09:08:05.2	315.810	0.430	-0.100	0.580
2020/01/31 09:08:05.3	315.810	0.420	-0.110	0.550
2020/01/31 09:08:05.4	315.810	0.400	-0.120	0.510
2020/01/31 09:08:05.5	315.810	0.380	-0.120	0.480
2020/01/31 09:08:05.6	315.820	0.360	-0.130	0.450
2020/01/31 09:08:05.7	315.830	0.340	-0.140	0.420
2020/01/31 09:08:05.8	315.830	0.310	-0.150	0.380
2020/01/31 09:08:05.9	315.840	0.290	-0.150	0.350
2020/01/31 09:08:06.0	315.850	0.260	-0.160	0.320
2020/01/31 09:08:06.1	315.860	0.230	-0.160	0.290
2020/01/31 09:08:06.2	315.870	0.200	-0.160	0.250
2020/01/31 09:08:06.3	315.880	0.160	-0.170	0.220
2020/01/31 09:08:06.4	315.900	0.130	-0.170	0.190
2020/01/31 09:08:06.5	315.910	0.090	-0.170	0.160
2020/01/31 09:08:06.6	315.930	0.060	-0.170	0.140
2020/01/31 09:08:06.7	315.940	0.020	-0.160	0.110
2020/01/31 09:08:06.8	315.950	-0.020	-0.160	0.080
2020/01/31 09:08:06.9	315.970	-0.050	-0.150	0.060
2020/01/31 09:08:07.0	315.980	-0.090	-0.140	0.030
2020/01/31 09:08:07.1	315.990	-0.130	-0.140	0.010
2020/01/31 09:08:07.2	316.000	-0.160	-0.130	-0.010
2020/01/31 09:08:07.3	316.020	-0.200	-0.110	-0.030
2020/01/31 09:08:07.4	316.030	-0.230	-0.100	-0.050
2020/01/31 09:08:07.5	316.040	-0.260	-0.090	-0.060
2020/01/31 09:08:07.6	316.050	-0.290	-0.080	-0.070
2020/01/31 09:08:07.7	316.070	-0.320	-0.060	-0.080
2020/01/31 09:08:07.8	316.080	-0.340	-0.050	-0.090
2020/01/31 09:08:07.9	316.090	-0.360	-0.030	-0.100
2020/01/31 09:08:08.0	316.100	-0.380	-0.020	-0.100
2020/01/31 09:08:08.1	316.110	-0.400	-0.000	-0.100
2020/01/31 09:08:08.2	316.120	-0.420	0.010	-0.090
2020/01/31 09:08:08.3	316.130	-0.430	0.030	-0.090
2020/01/31 09:08:08.4	316.140	-0.440	0.040	-0.080
2020/01/31 09:08:08.5	316.150	-0.440	0.050	-0.070
2020/01/31 09:08:08.6	316.160	-0.450	0.060	-0.060
2020/01/31 09:08:08.7	316.170	-0.440	0.070	-0.040
2020/01/31 09:08:08.8	316.180	-0.440	0.080	-0.020
2020/01/31 09:08:08.9	316.180	-0.440	0.090	-0.000
2020/01/31 09:08:09.0	316.190	-0.430	0.100	0.020
2020/01/31 09:08:09.1	316.190	-0.420	0.100	0.040
2020/01/31 09:08:09.2	316.190	-0.400	0.110	0.070
2020/01/31 09:08:09.3	316.190	-0.390	0.110	0.100
2020/01/31 09:08:09.4	316.200	-0.370	0.100	0.130
2020/01/31 09:08:09.5	316.200	-0.350	0.100	0.160
2020/01/31 09:08:09.6	316.190	-0.330	0.090	0.190
2020/01/31 09:08:09.7	316.190	-0.310	0.080	0.220
2020/01/31 09:08:09.8	316.180	-0.290	0.070	0.250
2020/01/31 09:08:09.9	316.170	-0.270	0.060	0.290
2020/01/31 09:08:10.0	316.160	-0.240	0.040	0.320
2020/01/31 09:08:10.1	316.150	-0.220	0.020	0.350
2020/01/31 09:08:10.2	316.140	-0.200	-0.000	0.380
2020/01/31 09:08:10.3	316.130	-0.170	-0.030	0.410
2020/01/31 09:08:10.4	316.120	-0.150	-0.050	0.440
2020/01/31 09:08:10.5	316.110	-0.130	-0.080	0.470
2020/01/31 09:08:10.6	316.100	-0.100	-0.110	0.500
2020/01/31 09:08:10.7	316.080	-0.080	-0.140	0.520
2020/01/31 09:08:10.8	316.070	-0.060	-0.170	0.550
2020/01/31 09:08:10.9	316.060	-0.040	-0.210	0.570
2020/01/31 09:08:11.0	316.050	-0.020	-0.240	0.590
2020/01/31 09:08:11.1	316.040	-0.000	-0.270	0.600
2020/01/31 09:08:11.2	316.030	0.010	-0.310	0.620
2020/01/31 09:08:11.3	316.020	0.030	-0.340	0.630
2020/01/31 09:08:11.4	316.020	0.040	-0.370	0.640
2020/01/31 09:08:11.5	316.010	0.060	-0.410	0.650
2020/01/31 09:08:11.6	316.010	0.070	-0.440	0.660
2020/01/31 09:08:11.7	316.000	0.080	-0.470	0.670
2020/01/31 09:08:11.8	316.000	0.090	-0.500	0.670
2020/01/31 09:08:11.9	316.000	0.100	-0.530	0.680
2020/01/31 09:08:12.0	315.990	0.110	-0.550	0.680
2020/01/31 09:08:12.1	315.990	0.120	-0.580	0.680
2020/01/31 09:08:12.2	315.990	0.130	-0.600	0.690
2020/01/31 09:08:12.3	315.990	0.130	-0.620	0.690
2020/01/31 09:08:12.4	315.980	0.140	-0.640	0.690
2020/01/31 09:08:12.5	315.980	0.140	-0.660	0.690
2020/01/31 09:08:12.6	315.980	0.150	-0.670	0.690
2020/01/31 09:08:12.7	315.980	0.150	-0.680	0.700
2020/01/31 09:08:12.8	315.970	0.160	-0.680	0.700
2020/01/31 09:08:12.9	315.970	0.160	-0.680	0.700
2020/01/31 09:08:13.0	315.960	0.160	-0.680	0.700
2020/01/31 09:08:13.1	315.960	0.160	-0.680	0.700
2020/01/31 09:08:13.2	315.950	0.160	-0.670	0.700
2020/01/31 09:08:13.3	315.940	0.160	-0.660	0.700
2020/01/31 09:08:13.4	315.940	0.160	-0.650	0.700
2020/01/31 09:08:13.5	315.930	0.160	-0.630	0.690
2020/01/31 09:08:13.6	315.920	0.160	-0.620	0.690
2020/01/31 09:08:13.7	315.920	0.160	-0.600	0.680
2020/01/31 09:08:13.8	315.910	0.160	-0.580	0.670
2020/01/31 09:08:13.9	315.900	0.160	-0.560	0.660
2020/01/31 09:08:14.0	315.900	0.150	-0.540	0.650
2020/01/31 09:08:14.1	315.890	0.150	-0.520	0.630
2020/01/31 09:08:14.2	315.890	0.150	-0.500	0.620
2020/01/31 09:08:14.3	315.880	0.150	-0.490	0.600
2020/01/31 09:08:14.4	315.870	0.140	-0.470	0.580
2020/01/31 09:08:14.5	315.870	0.140	-0.450	0.560
2020/01/31 09:08:14.6	315.870	0.140	-0.440	0.530
2020/01/31 09:08:14.7	315.870	0.140	-0.420	0.510
2020/01/31 09:08:14.8	315.870	0.130	-0.410	0.480
2020/01/31 09:08:14.9	315.870	0.130	-0.400	0.450
2020/01/31 09:08:15.0	315.880	0.130	-0.390	0.420
2020/01/31 09:08:15.1	315.880	0.120	-0.390	0.390
2020/01/31 09:08:15.2	315.890	0.120	-0.380	0.360
2020/01/31 09:08:15.3	315.900	0.120	-0.380	0.320
2020/01/31 09:08:15.4	315.900	0.120	-0.380	0.290
2020/01/31 09:08:15.5	315.910	0.110	-0.380	0.250
2020/01/31 09:08:15.6	315.930	0.110	-0.380	0.220
2020/01/31 09:08:15.7	315.940	0.110	-0.380	0.190
2020/01/31 09:08:15.8	315.960	0.100	-0.380	0.150
2020/01/31 09:08:15.9	315.980	0.100	-0.380	0.120
2020/01/31 09:08:16.0	316.000	0.090	-0.380	0.090
2020/01/31 09:08:16.1	316.020	0.090	-0.380	0.060
2020/01/31 09:08:16.2	316.040	0.080	-0.380	0.030
2020/01/31 09:08:16.3	316.060	0.080	-0.370	-0.000
2020/01/31 09:08:16.4	316.080	0.070	-0.370	-0.030
2020/01/31 09:08:16.5	316.100	0.060	-0.370	-0.050
2020/01/31 09:08:16.6	316.120	0.060	-0.360	-0.070
2020/01/31 09:08:16.7	316.140	0.050	-0.350	-0.080
2020/01/31 09:08:16.8	316.160	0.040	-0.330	-0.090
2020/01/31 09:08:16.9	316.180	0.030	-0.320	-0.100
2020/01/31 09:08:17.0	316.190	0.020	-0.300	-0.110
2020/01/31 09:08:17.1	316.200	0.010	-0.270	-0.100
2020/01/31 09:08:17.2	316.220	-0.000	-0.240	-0.100
2020/01/31 09:08:17.3	316.230	-0.010	-0.210	-0.090
2020/01/31 09:08:17.4	316.240	-0.030	-0.180	-0.070
2020/01/31 09:08:17.5	316.250	-0.040	-0.140	-0.050
2020/01/31 09:08:17.6	316.250	-0.050	-0.100	-0.030
2020/01/31 09:08:17.7	316.250	-0.060	-0.060	-0.000
2020/01/31 09:08:17.8	316.250	-0.080	-0.020	0.030
2020/01/31 09:08:17.9	316.240	-0.090	0.030	0.060
2020/01/31 09:08:18.0	316.240	-0.110	0.080	0.100
2020/01/31 09:08:18.1	316.230	-0.120	0.130	0.140
2020/01/31 09:08:18.2	316.220	-0.140	0.180	0.180
2020/01/31 09:08:18.3	316.210	-0.150	0.220	0.230
2020/01/31 09:08:18.4	316.190	-0.160	0.270	0.280
2020/01/31 09:08:18.5	316.180	-0.180	0.320	0.320
2020/01/31 09:08:18.6	316.160	-0.190	0.360	0.370
2020/01/31 09:08:18.7	316.150	-0.200	0.400	0.420
2020/01/31 09:08:18.8	316.130	-0.210	0.440	0.460
2020/01/31 09:08:18.9	316.110	-0.220	0.470	0.510
2020/01/31 09:08:19.0	316.090	-0.230	0.500	0.550
2020/01/31 09:08:19.1	316.080	-0.240	0.520	0.600
2020/01/31 09:08:19.2	316.060	-0.250	0.540	0.640
2020/01/31 09:08:19.3	316.040	-0.260	0.550	0.680
2020/01/31 09:08:19.4	316.040	-0.260	0.560	0.720
2020/01/31 09:08:19.5	316.020	-0.270	0.560	0.750
2020/01/31 09:08:19.6	316.010	-0.270	0.550	0.790
2020/01/31 09:08:19.7	315.990	-0.270	0.540	0.820
2020/01/31 09:08:19.8	315.980	-0.270	0.520	0.840
2020/01/31 09:08:19.9	315.960	-0.270	0.490	0.860
2020/01/31 09:08:20.0	315.950	-0.270	0.460	0.880
2020/01/31 09:08:20.1	315.940	-0.260	0.430	0.900
2020/01/31 09:08:20.2	315.930	-0.250	0.390	0.910
2020/01/31 09:08:20.3	315.920	-0.250	0.340	0.920
2020/01/31 09:08:20.4	315.900	-0.240	0.300	0.920
2020/01/31 09:08:20.5	315.900	-0.230	0.240	0.920
2020/01/31 09:08:20.6	315.890	-0.220	0.180	0.920
2020/01/31 09:08:20.7	315.880	-0.200	0.120	0.910
2020/01/31 09:08:20.8	315.880	-0.190	0.060	0.900
2020/01/31 09:08:20.9	315.870	-0.170	-0.000	0.890
2020/01/31 09:08:21.0	315.870	-0.150	-0.070	0.870
2020/01/31 09:08:21.1	315.860	-0.130	-0.130	0.860
2020/01/31 09:08:21.2	315.850	-0.110	-0.200	0.840
2020/01/31 09:08:21.3	315.850	-0.090	-0.260	0.810
2020/01/31 09:08:21.4	315.850	-0.070	-0.330	0.790
2020/01/31 09:08:21.5	315.850	-0.050	-0.390	0.770
2020/01/31 09:08:21.6	315.840	-0.030	-0.450	0.740
2020/01/31 09:08:21.7	315.840	-0.000	-0.500	0.720
2020/01/31 09:08:21.8	315.830	0.020	-0.550	0.690
2020/01/31 09:08:21.9	315.830	0.050	-0.600	0.670
2020/01/31 09:08:22.0	315.830	0.070	-0.650	0.640
2020/01/31 09:08:22.1	315.820	0.100	-0.690	0.620
2020/01/31 09:08:22.2	315.820	0.120	-0.730	0.590
2020/01/31 09:08:22.3	315.820	0.150	-0.770	0.570
2020/01/31 09:08:22.4	315.820	0.170	-0.800	0.540
2020/01/31 09:08:22.5	315.820	0.200	-0.820	0.510
2020/01/31 09:08:22.6	315.820	0.220	-0.840	0.480
2020/01/31 09:08:22.7	315.820	0.240	-0.860	0.460
2020/01/31 09:08:22.8	315.830	0.260	-0.870	0.430
2020/01/31 09:08:22.9	315.830	0.280	-0.880	0.400
2020/01/31 09:08:23.0	315.840	0.300	-0.880	0.370
2020/01/31 09:08:23.1	315.840	0.320	-0.880	0.330
2020/01/31 09:08:23.2	315.850	0.330	-0.880	0.300
2020/01/31 09:08:23.3	315.860	0.350	-0.870	0.270
2020/01/31 09:08:23.4	315.880	0.360	-0.860	0.230
2020/01/31 09:08:23.5	315.890	0.370	-0.850	0.200
2020/01/31 09:08:23.6	315.910	0.370	-0.830	0.160
2020/01/31 09:08:23.7	315.920	0.380	-0.810	0.130
2020/01/31 09:08:23.8	315.930	0.380	-0.780	0.090
2020/01/31 09:08:23.9	315.940	0.380	-0.750	0.050
2020/01/31 09:08:24.0	315.960	0.380	-0.720	0.020
2020/01/31 09:08:24.1	315.970	0.380	-0.690	-0.020
2020/01/31 09:08:24.2	315.990	0.370	-0.660	-0.050
2020/01/31 09:08:24.3	316.000	0.360	-0.620	-0.080
2020/01/31 09:08:24.4	316.030	0.360	-0.580	-0.110
2020/01/31 09:08:24.5	316.050	0.340	-0.540	-0.140
2020/01/31 09:08:24.6	316.060	0.330	-0.500	-0.160
2020/01/31 09:08:24.7	316.080	0.320	-0.450	-0.180
2020/01/31 09:08:24.8	316.090	0.300	-0.410	-0.200
2020/01/31 09:08:24.9	316.110	0.280	-0.360	-0.220
2020/01/31 09:08:25.0	316.120	0.260	-0.320	-0.240
2020/01/31 09:08:25.1	316.130	0.240	-0.270	-0.250
2020/01/31 09:08:25.2	316.140	0.210	-0.220	-0.250
2020/01/31 09:08:25.3	316.150	0.190	-0.180	-0.260
2020/01/31 09:08:25.4	316.170	0.160	-0.130	-0.260
2020/01/31 09:08:25.5	316.180	0.140	-0.090	-0.260
2020/01/31 09:08:25.6	316.190	0.110	-0.050	-0.250
2020/01/31 09:08:25.7	316.190	0.080	-0.000	-0.240
2020/01/31 09:08:25.8	316.190	0.050	0.030	-0.230
2020/01/31 09:08:25.9	316.200	0.030	0.070	-0.220
2020/01/31 09:08:26.0	316.200	-0.000	0.100	-0.200
2020/01/31 09:08:26.1	316.190	-0.030	0.140	-0.180
2020/01/31 09:08:26.2	316.190	-0.060	0.160	-0.160
2020/01/31 09:08:26.3	316.190	-0.080	0.190	-0.130
2020/01/31 09:08:26.4	316.180	-0.110	0.210	-0.100
2020/01/31 09:08:26.5	316.170	-0.130	0.220	-0.070
2020/01/31 09:08:26.6	316.160	-0.160	0.240	-0.030
2020/01/31 09:08:26.7	316.150	-0.180	0.250	0.000
2020/01/31 09:08:26.8	316.140	-0.200	0.260	0.040
2020/01/31 09:08:26.9	316.130	-0.210	0.270	0.090
2020/01/31 09:08:27.0	316.110	-0.230	0.270	0.130
2020/01/31 09:08:27.1	316.100	-0.240	0.270	0.180
2020/01/31 09:08:27.2	316.090	-0.250	0.270	0.230
2020/01/31 09:08:27.3	316.070	-0.260	0.260	0.280
2020/01/31 09:08:27.4	316.040	-0.270	0.250	0.340
2020/01/31 09:08:27.5	316.020	-0.270	0.230	0.390
2020/01/31 09:08:27.6	316.010	-0.270	0.210	0.440
2020/01/31 09:08:27.7	315.990	-0.270	0.190	0.500
2020/01/31 09:08:27.8	315.970	-0.260	0.170	0.550
2020/01/31 09:08:27.9	315.950	-0.260	0.140	0.610
2020/01/31 09:08:28.0	315.940	-0.250	0.100	0.660
2020/01/31 09:08:28.1	315.920	-0.240	0.070	0.710
2020/01/31 09:08:28.2	315.900	-0.220	0.030	0.760
2020/01/31 09:08:28.3	315.890	-0.210	-0.010	0.810
2020/01/31 09:08:28.4	315.870	-0.190	-0.050	0.850
2020/01/31 09:08:28.5	315.860	-0.170	-0.100	0.900
2020/01/31 09:08:28.6	315.850	-0.150	-0.140	0.940
2020/01/31 09:08:28.7	315.830	-0.130	-0.190	0.980
2020/01/31 09:08:28.8	315.820	-0.110	-0.230	1.010
2020/01/31 09:08:28.9	315.810	-0.090	-0.280	1.040
2020/01/31 09:08:29.0	315.810	-0.060	-0.320	1.070
2020/01/31 09:08:29.1	315.800	-0.040	-0.360	1.100
2020/01/31 09:08:29.2	315.800	-0.020	-0.410	1.120
2020/01/31 09:08:29.3	315.790	0.000	-0.450	1.130
2020/01/31 09:08:29.4	315.780	0.030	-0.490	1.150
2020/01/31 09:08:29.5	315.780	0.050	-0.520	1.160
2020/01/31 09:08:29.6	315.780	0.070	-0.560	1.170
2020/01/31 09:08:29.7	315.780	0.090	-0.590	1.170
2020/01/31 09:08:29.8	315.790	0.100	-0.610	1.170
2020/01/31 09:08:29.9	315.790	0.120	-0.640	1.170
2020/01/31 09:08:30.0	315.800	0.130	-0.660	1.170
2020/01/31 09:08:30.1	315.800	0.140	-0.670	1.160
2020/01/31 09:08:30.2	315.810	0.150	-0.690	1.150
2020/01/31 09:08:30.3	315.820	0.160	-0.690	1.140
2020/01/31 09:08:30.4	315.840	0.160	-0.700	1.120
2020/01/31 09:08:30.5	315.850	0.160	-0.700	1.110
2020/01/31 09:08:30.6	315.860	0.160	-0.690	1.090
2020/01/31 09:08:30.7	315.860	0.160	-0.680	1.060
2020/01/31 09:08:30.8	315.870	0.160	-0.670	1.040
2020/01/31 09:08:30.9	315.880	0.150	-0.650	1.010
2020/01/31 09:08:31.0	315.880	0.140	-0.630	0.980
2020/01/31 09:08:31.1	315.890	0.130	-0.610	0.950
2020/01/31 09:08:31.2	315.890	0.120	-0.580	0.920
2020/01/31 09:08:31.3	315.900	0.100	-0.550	0.890
2020/01/31 09:08:31.4	315.910	0.080	-0.520	0.860
2020/01/31 09:08:31.5	315.910	0.070	-0.490	0.820
2020/01/31 09:08:31.6	315.910	0.050	-0.450	0.780
2020/01/31 09:08:31.7	315.910	0.030	-0.410	0.750
2020/01/31 09:08:31.8	315.920	0.010	-0.370	0.710
2020/01/31 09:08:31.9	315.920	-0.010	-0.330	0.670
2020/01/31 09:08:32.0	315.920	-0.030	-0.290	0.630
2020/01/31 09:08:32.1	315.930	-0.060	-0.250	0.600
2020/01/31 09:08:32.2	315.930	-0.080	-0.210	0.560
2020/01/31 09:08:32.3	315.930	-0.100	-0.170	0.520
2020/01/31 09:08:32.4	315.920	-0.120	-0.130	0.490
2020/01/31 09:08:32.5	315.930	-0.140	-0.090	0.450
2020/01/31 09:08:32.6	315.930	-0.150	-0.060	0.410
2020/01/31 09:08:32.7	315.930	-0.170	-0.020	0.380
2020/01/31 09:08:32.8	315.940	-0.190	0.010	0.340
2020/01/31 09:08:32.9	315.940	-0.200	0.040	0.310
2020/01/31 09:08:33.0	315.950	-0.210	0.070	0.280
2020/01/31 09:08:33.1	315.950	-0.220	0.090	0.250
2020/01/31 09:08:33.2	315.960	-0.230	0.110	0.210
2020/01/31 09:08:33.3	315.960	-0.240	0.130	0.180
2020/01/31 09:08:33.4	315.950	-0.250	0.140	0.150
2020/01/31 09:08:33.5	315.960	-0.250	0.150	0.120
2020/01/31 09:08:33.6	315.960	-0.250	0.160	0.090
2020/01/31 09:08:33.7	315.970	-0.250	0.160	0.060
2020/01/31 09:08:33.8	315.970	-0.250	0.160	0.040
2020/01/31 09:08:33.9	315.980	-0.250	0.160	0.010
2020/01/31 09:08:34.0	315.980	-0.240	0.150	-0.010
2020/01/31 09:08:34.1	315.990	-0.240	0.140	-0.030
2020/01/31 09:08:34.2	315.990	-0.230	0.130	-0.050
2020/01/31 09:08:34.3	316.000	-0.220	0.110	-0.070
2020/01/31 09:08:34.4	316.000	-0.210	0.090	-0.080
2020/01/31 09:08:34.5	316.000	-0.190	0.070	-0.090
2020/01/31 09:08:34.6	316.010	-0.180	0.050	-0.100
2020/01/31 09:08:34.7	316.010	-0.160	0.020	-0.110
2020/01/31 09:08:34.8	316.010	-0.140	-0.010	-0.120
2020/01/31 09:08:34.9	316.020	-0.120	-0.030	-0.120
2020/01/31 09:08:35.0	316.020	-0.100	-0.060	-0.120
2020/01/31 09:08:35.1	316.020	-0.080	-0.090	-0.120
2020/01/31 09:08:35.2	316.020	-0.060	-0.120	-0.120
2020/01/31 09:08:35.3	316.020	-0.040	-0.140	-0.110
2020/01/31 09:08:35.4	316.020	-0.020	-0.170	-0.100
2020/01/31 09:08:35.5	316.020	0.010	-0.200	-0.090
2020/01/31 09:08:35.6	316.020	0.030	-0.220	-0.070
2020/01/31 09:08:35.7	316.020	0.050	-0.240	-0.050
2020/01/31 09:08:35.8	316.020	0.080	-0.270	-0.030
2020/01/31 09:08:35.9	316.010	0.100	-0.290	-0.010
2020/01/31 09:08:36.0	316.010	0.120	-0.300	0.010
2020/01/31 09:08:36.1	316.010	0.140	-0.320	0.040
2020/01/31 09:08:36.2	316.010	0.160	-0.330	0.070
2020/01/31 09:08:36.3	316.000	0.180	-0.350	0.100
2020/01/31 09:08:36.4	316.020	0.200	-0.350	0.130
2020/01/31 09:08:36.5	316.010	0.210	-0.360	0.160
2020/01/31 09:08:36.6	316.010	0.230	-0.360	0.200
2020/01/31 09:08:36.7	316.010	0.240	-0.370	0.230
2020/01/31 09:08:36.8	316.000	0.250	-0.370	0.260
2020/01/31 09:08:36.9	316.000	0.260	-0.370	0.300
2020/01/31 09:08:37.0	316.000	0.270	-0.360	0.330
2020/01/31 09:08:37.1	315.990	0.280	-0.360	0.370
2020/01/31 09:08:37.2	315.990	0.280	-0.350	0.400
2020/01/31 09:08:37.3	315.990	0.280	-0.350	0.430
2020/01/31 09:08:37.4	315.990	0.280	-0.340	0.470
2020/01/31 09:08:37.5	315.990	0.280	-0.330	0.500
2020/01/31 09:08:37.6	315.980	0.270	-0.320	0.540
2020/01/31 09:08:37.7	315.970	0.270	-0.310	0.570
2020/01/31 09:08:37.8	315.970	0.260	-0.300	0.600
2020/01/31 09:08:37.9	315.960	0.250	-0.280	0.640
2020/01/31 09:08:38.0	315.950	0.230	-0.270	0.670
2020/01/31 09:08:38.1	315.940	0.220	-0.260	0.700
2020/01/31 09:08:38.2	315.930	0.200	-0.240	0.730
2020/01/31 09:08:38.3	315.920	0.180	-0.230	0.760
2020/01/31 09:08:38.4	315.900	0.170	-0.210	0.800
2020/01/31 09:08:38.5	315.890	0.150	-0.200	0.830
2020/01/31 09:08:38.6	315.880	0.130	-0.180	0.850
2020/01/31 09:08:38.7	315.870	0.110	-0.170	0.880
2020/01/31 09:08:38.8	315.850	0.080	-0.150	0.910
2020/01/31 09:08:38.9	315.840	0.060	-0.140	0.930
2020/01/31 09:08:39.0	315.830	0.040	-0.130	0.950
2020/01/31 09:08:39.1	315.820	0.020	-0.110	0.970
2020/01/31 09:08:39.2	315.810	-0.000	-0.100	0.980
2020/01/31 09:08:39.3	315.800	-0.020	-0.090	1.000
2020/01/31 09:08:39.4	315.770	-0.040	-0.080	1.010
2020/01/31 09:08:39.5	315.760	-0.060	-0.080	1.020
2020/01/31 09:08:39.6	315.750	-0.080	-0.070	1.020
2020/01/31 09:08:39.7	315.740	-0.100	-0.060	1.030
2020/01/31 09:08:39.8	315.740	-0.120	-0.060	1.030
2020/01/31 09:08:39.9	315.730	-0.130	-0.060	1.020
2020/01/31 09:08:40.0	315.720	-0.140	-0.050	1.020
2020/01/31 09:08:40.1	315.720	-0.150	-0.060	1.010
2020/01/31 09:08:40.2	315.710	-0.160	-0.060	1.000
2020/01/31 09:08:40.3	315.710	-0.170	-0.060	0.990
2020/01/31 09:08:40.4	315.710	-0.180	-0.070	0.980
2020/01/31 09:08:40.5	315.710	-0.180	-0.070	0.960
2020/01/31 09:08:40.6	315.710	-0.180	-0.080	0.940
2020/01/31 09:08:40.7	315.710	-0.180	-0.090	0.920
2020/01/31 09:08:40.8	315.710	-0.180	-0.110	0.900
2020/01/31 09:08:40.9	315.710	-0.180	-0.120	0.880
2020/01/31 09:08:41.0	315.720	-0.170	-0.140	0.860
2020/01/31 09:08:41.1	315.730	-0.160	-0.150	0.830
2020/01/31 09:08:41.2	315.730	-0.150	-0.170	0.810
2020/01/31 09:08:41.3	315.740	-0.140	-0.190	0.780
2020/01/31 09:08:41.4	315.750	-0.130	-0.220	0.750
2020/01/31 09:08:41.5	315.760	-0.110	-0.240	0.720
2020/01/31 09:08:41.6	315.780	-0.090	-0.270	0.690
2020/01/31 09:08:41.7	315.790	-0.080	-0.290	0.650
2020/01/31 09:08:41.8	315.810	-0.060	-0.320	0.620
2020/01/31 09:08:41.9	315.820	-0.040	-0.350	0.580
2020/01/31 09:08:42.0	315.840	-0.020	-0.380	0.540
2020/01/31 09:08:42.1	315.860	0.010	-0.410	0.500
2020/01/31 09:08:42.2	315.880	0.030	-0.440	0.460
2020/01/31 09:08:42.3	315.910	0.050	-0.470	0.420
2020/01/31 09:08:42.4	315.920	0.070	-0.500	0.380
2020/01/31 09:08:42.5	315.950	0.100	-0.530	0.340
2020/01/31 09:08:42.6	315.970	0.120	-0.560	0.300
2020/01/31 09:08:42.7	316.000	0.140	-0.590	0.260
2020/01/31 09:08:42.8	316.020	0.160	-0.620	0.210
2020/01/31 09:08:42.9	316.050	0.180	-0.650	0.170
2020/01/31 09:08:43.0	316.070	0.200	-0.670	0.130
2020/01/31 09:08:43.1	316.100	0.210	-0.690	0.090
2020/01/31 09:08:43.2	316.120	0.230	-0.710	0.050
2020/01/31 09:08:43.3	316.140	0.240	-0.730	0.010
2020/01/31 09:08:43.4	316.180	0.250	-0.740	-0.020
2020/01/31 09:08:43.5	316.200	0.260	-0.750	-0.050
2020/01/31 09:08:43.6	316.220	0.270	-0.760	-0.080
2020/01/31 09:08:43.7	316.240	0.280	-0.760	-0.110
2020/01/31 09:08:43.8	316.260	0.280	-0.750	-0.130
2020/01/31 09:08:43.9	316.280	0.280	-0.740	-0.150
2020/01/31 09:08:44.0	316.300	0.280	-0.730	-0.170
2020/01/31 09:08:44.1	316.310	0.280	-0.710	-0.180
2020/01/31 09:08:44.2	316.330	0.270	-0.690	-0.190
2020/01/31 09:08:44.3	316.340	0.260	-0.670	-0.200
2020/01/31 09:08:44.4	316.350	0.250	-0.640	-0.200
2020/01/31 09:08:44.5	316.360	0.240	-0.600	-0.200
2020/01/31 09:08:44.6	316.370	0.220	-0.560	-0.190
2020/01/31 09:08:44.7	316.380	0.210	-0.520	-0.190
2020/01/31 09:08:44.8	316.380	0.190	-0.480	-0.180
2020/01/31 09:08:44.9	316.390	0.170	-0.430	-0.160
2020/01/31 09:08:45.0	316.390	0.140	-0.380	-0.150
2020/01/31 09:08:45.1	316.390	0.120	-0.330	-0.130
2020/01/31 09:08:45.2	316.380	0.090	-0.280	-0.110
2020/01/31 09:08:45.3	316.380	0.070	-0.230	-0.080
2020/01/31 09:08:45.4	316.370	0.040	-0.170	-0.060
2020/01/31 09:08:45.5	316.360	0.010	-0.120	-0.030
2020/01/31 09:08:45.6	316.350	-0.020	-0.060	0.000
2020/01/31 09:08:45.7	316.330	-0.050	-0.000	0.030
2020/01/31 09:08:45.8	316.310	-0.080	0.050	0.070
2020/01/31 09:08:45.9	316.290	-0.110	0.110	0.110
2020/01/31 09:08:46.0	316.270	-0.140	0.160	0.140
2020/01/31 09:08:46.1	316.240	-0.170	0.210	0.180
2020/01/31 09:08:46.2	316.210	-0.200	0.260	0.220
2020/01/31 09:08:46.3	316.180	-0.220	0.310	0.270
2020/01/31 09:08:46.4	316.170	-0.250	0.360	0.320
2020/01/31 09:08:46.5	316.130	-0.270	0.400	0.360
2020/01/31 09:08:46.6	316.100	-0.300	0.430	0.400
2020/01/31 09:08:46.7	316.060	-0.320	0.460	0.440
2020/01/31 09:08:46.8	316.030	-0.330	0.490	0.480
2020/01/31 09:08:46.9	315.990	-0.350	0.510	0.520
2020/01/31 09:08:47.0	315.950	-0.370	0.530	0.560
2020/01/31 09:08:47.1	315.920	-0.380	0.540	0.600
2020/01/31 09:08:47.2	315.880	-0.390	0.550	0.630
2020/01/31 09:08:47.3	315.850	-0.390	0.550	0.660
2020/01/31 09:08:47.4	315.830	-0.400	0.540	0.690
2020/01/31 09:08:47.5	315.790	-0.400	0.530	0.720
2020/01/31 09:08:47.6	315.760	-0.400	0.510	0.740
2020/01/31 09:08:47.7	315.730	-0.400	0.490	0.770
2020/01/31 09:08:47.8	315.700	-0.390	0.460	0.780
2020/01/31 09:08:47.9	315.680	-0.380	0.430	0.800
2020/01/31 09:08:48.0	315.650	-0.370	0.390	0.810
2020/01/31 09:08:48.1	315.630	-0.360	0.350	0.820
2020/01/31 09:08:48.2	315.610	-0.340	0.300	0.820
2020/01/31 09:08:48.3	315.590	-0.320	0.250	0.820
2020/01/31 09:08:48.4	315.570	-0.300	0.200	0.820
2020/01/31 09:08:48.5	315.560	-0.280	0.140	0.810
2020/01/31 09:08:48.6	315.550	-0.260	0.080	0.810
2020/01/31 09:08:48.7	315.540	-0.230	0.020	0.800
2020/01/31 09:08:48.8	315.530	-0.200	-0.040	0.790
2020/01/31 09:08:48.9	315.530	-0.180	-0.100	0.780
2020/01/31 09:08:49.0	315.530	-0.150	-0.160	0.770
2020/01/31 09:08:49.1	315.530	-0.110	-0.220	0.750
2020/01/31 09:08:49.2	315.530	-0.080	-0.280	0.740
2020/01/31 09:08:49.3	315.540	-0.050	-0.340	0.720
2020/01/31 09:08:49.4	315.550	-0.020	-0.390	0.700
2020/01/31 09:08:49.5	315.560	0.010	-0.450	0.690
2020/01/31 09:08:49.6	315.570	0.040	-0.500	0.670
2020/01/31 09:08:49.7	315.580	0.070	-0.540	0.650
2020/01/31 09:08:49.8	315.600	0.100	-0.590	0.630
2020/01/31 09:08:49.9	315.620	0.130	-0.630	0.600
2020/01/31 09:08:50.0	315.640	0.160	-0.670	0.580
2020/01/31 09:08:50.1	315.660	0.190	-0.700	0.560
2020/01/31 09:08:50.2	315.680	0.210	-0.730	0.530
2020/01/31 09:08:50.3	315.710	0.240	-0.750	0.510
2020/01/31 09:08:50.4	315.730	0.260	-0.770	0.490
2020/01/31 09:08:50.5	315.760	0.280	-0.790	0.460
2020/01/31 09:08:50.6	315.790	0.300	-0.800	0.440
2020/01/31 09:08:50.7	315.820	0.320	-0.810	0.410
2020/01/31 09:08:50.8	315.850	0.330	-0.820	0.390
2020/01/31 09:08:50.9	315.880	0.340	-0.820	0.360
2020/01/31 09:08:51.0	315.910	0.350	-0.820	0.340
2020/01/31 09:08:51.1	315.940	0.360	-0.810	0.320
2020/01/31 09:08:51.2	315.970	0.370	-0.800	0.300
2020/01/31 09:08:51.3	315.990	0.370	-0.790	0.280
2020/01/31 09:08:51.4	316.030	0.370	-0.780	0.270
2020/01/31 09:08:51.5	316.060	0.370	-0.760	0.250
2020/01/31 09:08:51.6	316.080	0.370	-0.740	0.240
2020/01/31 09:08:51.7	316.100	0.370	-0.710	0.220
2020/01/31 09:08:51.8	316.120	0.360	-0.690	0.210
2020/01/31 09:08:51.9	316.140	0.360	-0.660	0.200
2020/01/31 09:08:52.0	316.160	0.350	-0.630	0.200
2020/01/31 09:08:52.1	316.180	0.340	-0.600	0.190
2020/01/31 09:08:52.2	316.190	0.330	-0.560	0.190
2020/01/31 09:08:52.3	316.210	0.310	-0.520	0.190
2020/01/31 09:08:52.4	316.240	0.300	-0.490	0.190
2020/01/31 09:08:52.5	316.250	0.280	-0.450	0.200
2020/01/31 09:08:52.6	316.260	0.270	-0.410	0.200
2020/01/31 09:08:52.7	316.270	0.250	-0.370	0.210
2020/01/31 09:08:52.8	316.270	0.230	-0.330	0.220
2020/01/31 09:08:52.9	316.280	0.220	-0.290	0.230
2020/01/31 09:08:53.0	316.280	0.200	-0.250	0.240
2020/01/31 09:08:53.1	316.280	0.180	-0.210	0.260
2020/01/31 09:08:53.2	316.280	0.160	-0.180	0.270
2020/01/31 09:08:53.3	316.280	0.140	-0.140	0.290
2020/01/31 09:08:53.4	316.250	0.130	-0.110	0.310
2020/01/31 09:08:53.5	316.250	0.110	-0.070	0.330
2020/01/31 09:08:53.6	316.240	0.090	-0.040	0.350
2020/01/31 09:08:53.7	316.230	0.070	-0.010	0.380
2020/01/31 09:08:53.8	316.210	0.050	0.020	0.410
2020/01/31 09:08:53.9	316.200	0.040	0.040	0.430
2020/01/31 09:08:54.0	316.180	0.020	0.060	0.460
2020/01/31 09:08:54.1	316.170	0.010	0.080	0.490
2020/01/31 09:08:54.2	316.150	-0.010	0.100	0.520
2020/01/31 09:08:54.3	316.130	-0.020	0.120	0.540
2020/01/31 09:08:54.4	316.090	-0.040	0.130	0.570
2020/01/31 09:08:54.5	316.070	-0.050	0.140	0.600
2020/01/31 09:08:54.6	316.040	-0.060	0.150	0.620
2020/01/31 09:08:54.7	316.020	-0.070	0.160	0.640
2020/01/31 09:08:54.8	315.990	-0.080	0.170	0.660
2020/01/31 09:08:54.9	315.970	-0.090	0.170	0.680
2020/01/31 09:08:55.0	315.940	-0.100	0.170	0.700
2020/01/31 09:08:55.1	315.910	-0.110	0.170	0.720
2020/01/31 09:08:55.2	315.880	-0.120	0.170	0.740
2020/01/31 09:08:55.3	315.850	-0.130	0.170	0.750
2020/01/31 09:08:55.4	315.810	-0.130	0.160	0.760
2020/01/31 09:08:55.5	315.780	-0.140	0.150	0.770
2020/01/31 09:08:55.6	315.750	-0.140	0.150	0.780
2020/01/31 09:08:55.7	315.720	-0.150	0.140	0.790
2020/01/31 09:08:55.8	315.690	-0.150	0.130	0.790
2020/01/31 09:08:55.9	315.660	-0.160	0.120	0.800
2020/01/31 09:08:56.0	315.630	-0.160	0.110	0.800
2020/01/31 09:08:56.1	315.600	-0.160	0.100	0.800
2020/01/31 09:08:56.2	315.570	-0.160	0.090	0.800
2020/01/31 09:08:56.3	315.540	-0.170	0.080	0.800
2020/01/31 09:08:56.4	315.500	-0.170	0.070	0.790
2020/01/31 09:08:56.5	315.480	-0.170	0.050	0.790
2020/01/31 09:08:56.6	315.450	-0.170	0.040	0.780
2020/01/31 09:08:56.7	315.430	-0.170	0.020	0.770
2020/01/31 09:08:56.8	315.410	-0.170	0.000	0.750
2020/01/31 09:08:56.9	315.390	-0.170	-0.010	0.740
2020/01/31 09:08:57.0	315.370	-0.170	-0.030	0.720
2020/01/31 09:08:57.1	315.360	-0.170	-0.060	0.700
2020/01/31 09:08:57.2	315.340	-0.160	-0.080	0.680
2020/01/31 09:08:57.3	315.340	-0.160	-0.100	0.660
2020/01/31 09:08:57.4	315.310	-0.160	-0.130	0.630
2020/01/31 09:08:57.5	315.310	-0.160	-0.160	0.610
2020/01/31 09:08:57.6	315.310	-0.160	-0.190	0.580
2020/01/31 09:08:57.7	315.320	-0.150	-0.220	0.550
2020/01/31 09:08:57.8	315.320	-0.150	-0.250	0.530
2020/01/31 09:08:57.9	315.330	-0.150	-0.280	0.500
2020/01/31 09:08:58.0	315.340	-0.140	-0.310	0.470
2020/01/31 09:08:58.1	315.360	-0.140	-0.350	0.440
2020/01/31 09:08:58.2	315.370	-0.140	-0.380	0.400
2020/01/31 09:08:58.3	315.390	-0.130	-0.410	0.370
2020/01/31 09:08:58.4	315.420	-0.130	-0.440	0.340
2020/01/31 09:08:58.5	315.440	-0.130	-0.480	0.310
2020/01/31 09:08:58.6	315.470	-0.120	-0.510	0.280
2020/01/31 09:08:58.7	315.490	-0.120	-0.540	0.250
2020/01/31 09:08:58.8	315.520	-0.120	-0.570	0.210
2020/01/31 09:08:58.9	315.550	-0.120	-0.590	0.180
2020/01/31 09:08:59.0	315.580	-0.110	-0.620	0.150
2020/01/31 09:08:59.1	315.620	-0.110	-0.640	0.120
2020/01/31 09:08:59.2	315.650	-0.110	-0.660	0.090
2020/01/31 09:08:59.3	315.680	-0.100	-0.680	0.060
2020/01/31 09:08:59.4	315.700	-0.100	-0.700	0.030
2020/01/31 09:08:59.5	315.740	-0.100	-0.710	0.010
2020/01/31 09:08:59.6	315.770	-0.090	-0.720	-0.010
2020/01/31 09:08:59.7	315.800	-0.090	-0.730	-0.030
2020/01/31 09:08:59.8	315.830	-0.080	-0.730	-0.040
2020/01/31 09:08:59.9	315.850	-0.080	-0.730	-0.050
2020/01/31 09:09:00.0	315.880	-0.070	-0.730	-0.060
2020/01/31 09:09:00.1	315.900	-0.070	-0.720	-0.060
2020/01/31 09:09:00.2	315.920	-0.060	-0.710	-0.060
2020/01/31 09:09:00.3	315.940	-0.060	-0.690	-0.050
2020/01/31 09:09:00.4	315.950	-0.050	-0.680	-0.030
2020/01/31 09:09:00.5	315.960	-0.050	-0.650	-0.020
2020/01/31 09:09:00.6	315.970	-0.040	-0.630	0.000
2020/01/31 09:09:00.7	315.970	-0.030	-0.610	0.030
2020/01/31 09:09:00.8	315.980	-0.020	-0.580	0.050
2020/01/31 09:09:00.9	315.970	-0.020	-0.550	0.080
2020/01/31 09:09:01.0	315.970	-0.010	-0.520	0.110
2020/01/31 09:09:01.1	315.960	0.000	-0.490	0.150
2020/01/31 09:09:01.2	315.950	0.010	-0.450	0.190
2020/01/31 09:09:01.3	315.940	0.020	-0.420	0.230
2020/01/31 09:09:01.4	315.940	0.030	-0.390	0.270
2020/01/31 09:09:01.5	315.920	0.040	-0.350	0.310
2020/01/31 09:09:01.6	315.900	0.050	-0.320	0.360
2020/01/31 09:09:01.7	315.880	0.060	-0.290	0.400
2020/01/31 09:09:01.8	315.860	0.070	-0.250	0.450
2020/01/31 09:09:01.9	315.840	0.080	-0.220	0.490
2020/01/31 09:09:02.0	315.810	0.090	-0.190	0.540
2020/01/31 09:09:02.1	315.790	0.100	-0.160	0.580
2020/01/31 09:09:02.2	315.760	0.110	-0.140	0.630
2020/01/31 09:09:02.3	315.740	0.120	-0.110	0.670
2020/01/31 09:09:02.4	315.710	0.130	-0.090	0.710
2020/01/31 09:09:02.5	315.680	0.140	-0.060	0.750
2020/01/31 09:09:02.6	315.650	0.150	-0.040	0.790
2020/01/31 09:09:02.7	315.630	0.160	-0.030	0.820
2020/01/31 09:09:02.8	315.600	0.160	-0.010	0.850
2020/01/31 09:09:02.9	315.580	0.170	0.010	0.870
2020/01/31 09:09:03.0	315.550	0.180	0.020	0.900
2020/01/31 09:09:03.1	315.530	0.180	0.030	0.920
2020/01/31 09:09:03.2	315.510	0.190	0.040	0.930
2020/01/31 09:09:03.3	315.500	0.190	0.040	0.940
2020/01/31 09:09:03.4	315.480	0.200	0.050	0.950
2020/01/31 09:09:03.5	315.460	0.200	0.050	0.950
2020/01/31 09:09:03.6	315.450	0.210	0.050	0.960
2020/01/31 09:09:03.7	315.440	0.210	0.050	0.950
2020/01/31 09:09:03.8	315.430	0.210	0.050	0.950
2020/01/31 09:09:03.9	315.420	0.210	0.050	0.940
2020/01/31 09:09:04.0	315.420	0.210	0.040	0.940
2020/01/31 09:09:04.1	315.410	0.210	0.040	0.930
2020/01/31 09:09:04.2	315.410	0.210	0.040	0.920
2020/01/31 09:09:04.3	315.410	0.200	0.030	0.900
2020/01/31 09:09:04.4	315.400	0.200	0.030	0.890
2020/01/31 09:09:04.5	315.400	0.190	0.020	0.880
2020/01/31 09:09:04.6	315.400	0.190	0.020	0.870
2020/01/31 09:09:04.7	315.390	0.180	0.020	0.850
2020/01/31 09:09:04.8	315.390	0.170	0.020	0.840
2020/01/31 09:09:04.9	315.390	0.170	0.020	0.830
2020/01/31 09:09:05.0	315.390	0.160	0.020	0.820
2020/01/31 09:09:05.1	315.390	0.150	0.020	0.800
2020/01/31 09:09:05.2	315.390	0.130	0.030	0.790
2020/01/31 09:09:05.3	315.390	0.120	0.030	0.780
2020/01/31 09:09:05.4	315.390	0.110	0.030	0.760
2020/01/31 09:09:05.5	315.390	0.100	0.030	0.750
2020/01/31 09:09:05.6	315.390	0.080	0.030	0.740
2020/01/31 09:09:05.7	315.380	0.070	0.030	0.720
2020/01/31 09:09:05.8	315.380	0.050	0.030	0.710
2020/01/31 09:09:05.9	315.370	0.040	0.020	0.700
2020/01/31 09:09:06.0	315.370	0.020	0.020	0.680
2020/01/31 09:09:06.1	315.360	0.010	0.020	0.670
2020/01/31 09:09:06.2	315.350	-0.010	0.010	0.650
2020/01/31 09:09:06.3	315.350	-0.020	-0.000	0.630
2020/01/31 09:09:06.4	315.360	-0.040	-0.010	0.610
2020/01/31 09:09:06.5	315.350	-0.050	-0.020	0.600
2020/01/31 09:09:06.6	315.340	-0.070	-0.040	0.580
2020/01/31 09:09:06.7	315.330	-0.080	-0.050	0.550
2020/01/31 09:09:06.8	315.320	-0.090	-0.070	0.530
2020/01/31 09:09:06.9	315.320	-0.100	-0.080	0.510
2020/01/31 09:09:07.0	315.310	-0.110	-0.100	0.490
2020/01/31 09:09:07.1	315.300	-0.120	-0.120	0.470
2020/01/31 09:09:07.2	315.290	-0.130	-0.140	0.440
2020/01/31 09:09:07.3	315.280	-0.140	-0.170	0.420
2020/01/31 09:09:07.4	315.280	-0.140	-0.190	0.390
2020/01/31 09:09:07.5	315.270	-0.150	-0.210	0.370
2020/01/31 09:09:07.6	315.270	-0.150	-0.240	0.350
2020/01/31 09:09:07.7	315.260	-0.150	-0.260	0.320
2020/01/31 09:09:07.8	315.260	-0.150	-0.290	0.300
2020/01/31 09:09:07.9	315.260	-0.150	-0.310	0.280
2020/01/31 09:09:08.0	315.260	-0.150	-0.340	0.250
2020/01/31 09:09:08.1	315.260	-0.140	-0.360	0.230
2020/01/31 09:09:08.2	315.260	-0.140	-0.390	0.210
2020/01/31 09:09:08.3	315.270	-0.130	-0.410	0.190
2020/01/31 09:09:08.4	315.250	-0.120	-0.440	0.160
2020/01/31 09:09:08.5	315.260	-0.110	-0.460	0.140
2020/01/31 09:09:08.6	315.270	-0.100	-0.480	0.120
2020/01/31 09:09:08.7	315.280	-0.090	-0.500	0.100
2020/01/31 09:09:08.8	315.290	-0.080	-0.520	0.070
2020/01/31 09:09:08.9	315.310	-0.060	-0.540	0.050
2020/01/31 09:09:09.0	315.330	-0.050	-0.560	0.030
2020/01/31 09:09:09.1	315.350	-0.040	-0.570	0.010
2020/01/31 09:09:09.2	315.370	-0.020	-0.580	-0.010
2020/01/31 09:09:09.3	315.390	-0.010	-0.590	-0.020
2020/01/31 09:09:09.4	315.430	0.000	-0.600	-0.040
2020/01/31 09:09:09.5	315.460	0.020	-0.600	-0.050
2020/01/31 09:09:09.6	315.480	0.030	-0.600	-0.060
2020/01/31 09:09:09.7	315.500	0.040	-0.600	-0.080
2020/01/31 09:09:09.8	315.530	0.050	-0.590	-0.080
2020/01/31 09:09:09.9	315.550	0.060	-0.580	-0.090
2020/01/31 09:09:10.0	315.570	0.070	-0.570	-0.090
2020/01/31 09:09:10.1	315.590	0.070	-0.550	-0.090
2020/01/31 09:09:10.2	315.610	0.080	-0.540	-0.080
2020/01/31 09:09:10.3	315.630	0.080	-0.510	-0.080
2020/01/31 09:09:10.4	315.650	0.080	-0.490	-0.060
2020/01/31 09:09:10.5	315.660	0.080	-0.470	-0.050
2020/01/31 09:09:10.6	315.670	0.080	-0.440	-0.040
2020/01/31 09:09:10.7	315.680	0.080	-0.410	-0.020
2020/01/31 09:09:10.8	315.690	0.070	-0.380	-0.000
2020/01/31 09:09:10.9	315.700	0.070	-0.350	0.020
2020/01/31 09:09:11.0	315.710	0.060	-0.310	0.040
2020/01/31 09:09:11.1	315.710	0.050	-0.280	0.060
2020/01/31 09:09:11.2	315.710	0.040	-0.250	0.080
2020/01/31 09:09:11.3	315.720	0.020	-0.210	0.110
2020/01/31 09:09:11.4	315.720	0.010	-0.180	0.130
2020/01/31 09:09:11.5	315.720	-0.000	-0.150	0.160
2020/01/31 09:09:11.6	315.720	-0.020	-0.120	0.180
2020/01/31 09:09:11.7	315.710	-0.030	-0.090	0.210
2020/01/31 09:09:11.8	315.710	-0.050	-0.060	0.240
2020/01/31 09:09:11.9	315.700	-0.060	-0.030	0.260
2020/01/31 09:09:12.0	315.700	-0.080	-0.000	0.290
2020/01/31 09:09:12.1	315.690	-0.090	0.020	0.320
2020/01/31 09:09:12.2	315.680	-0.110	0.040	0.340
2020/01/31 09:09:12.3	315.670	-0.120	0.060	0.370
2020/01/31 09:09:12.4	315.660	-0.130	0.080	0.400
2020/01/31 09:09:12.5	315.640	-0.150	0.100	0.430
2020/01/31 09:09:12.6	315.630	-0.160	0.110	0.450
2020/01/31 09:09:12.7	315.610	-0.160	0.120	0.480
2020/01/31 09:09:12.8	315.600	-0.170	0.140	0.510
2020/01/31 09:09:12.9	315.580	-0.180	0.140	0.540
2020/01/31 09:09:13.0	315.560	-0.180	0.150	0.580
2020/01/31 09:09:13.1	315.550	-0.180	0.150	0.610
2020/01/31 09:09:13.2	315.530	-0.180	0.160	0.640
2020/01/31 09:09:13.3	315.510	-0.180	0.150	0.670
2020/01/31 09:09:13.4	315.490	-0.170	0.150	0.700
2020/01/31 09:09:13.5	315.470	-0.170	0.150	0.730
2020/01/31 09:09:13.6	315.450	-0.160	0.140	0.770
2020/01/31 09:09:13.7	315.430	-0.150	0.130	0.800
2020/01/31 09:09:13.8	315.410	-0.140	0.120	0.820
2020/01/31 09:09:13.9	315.390	-0.130	0.100	0.850
2020/01/31 09:09:14.0	315.370	-0.110	0.080	0.880
2020/01/31 09:09:14.1	315.350	-0.100	0.060	0.900
2020/01/31 09:09:14.2	315.340	-0.080	0.030	0.920
2020/01/31 09:09:14.3	315.320	-0.070	0.000	0.930
2020/01/31 09:09:14.4	315.310	-0.050	-0.030	0.950
2020/01/31 09:09:14.5	315.300	-0.030	-0.060	0.960
2020/01/31 09:09:14.6	315.300	-0.010	-0.100	0.960
2020/01/31 09:09:14.7	315.290	0.010	-0.140	0.960
2020/01/31 09:09:14.8	315.290	0.030	-0.180	0.960
2020/01/31 09:09:14.9	315.290	0.050	-0.220	0.950
2020/01/31 09:09:15.0	315.290	0.070	-0.270	0.940
2020/01/31 09:09:15.1	315.290	0.090	-0.310	0.930
2020/01/31 09:09:15.2	315.300	0.110	-0.350	0.920
2020/01/31 09:09:15.3	315.300	0.130	-0.400	0.900
2020/01/31 09:09:15.4	315.320	0.150	-0.440	0.880
2020/01/31 09:09:15.5	315.330	0.160	-0.490	0.860
2020/01/31 09:09:15.6	315.340	0.180	-0.530	0.840
2020/01/31 09:09:15.7	315.340	0.190	-0.570	0.830
2020/01/31 09:09:15.8	315.350	0.200	-0.610	0.810
2020/01/31 09:09:15.9	315.360	0.210	-0.640	0.790
2020/01/31 09:09:16.0	315.370	0.220	-0.670	0.770
2020/01/31 09:09:16.1	315.380	0.230	-0.700	0.750
2020/01/31 09:09:16.2	315.390	0.240	-0.730	0.730
2020/01/31 09:09:16.3	315.400	0.240	-0.750	0.710
2020/01/31 09:09:16.4	315.400	0.240	-0.770	0.690
2020/01/31 09:09:16.5	315.410	0.240	-0.790	0.670
2020/01/31 09:09:16.6	315.420	0.240	-0.800	0.650
2020/01/31 09:09:16.7	315.430	0.230	-0.800	0.630
2020/01/31 09:09:16.8	315.440	0.230	-0.810	0.620
2020/01/31 09:09:16.9	315.440	0.220	-0.810	0.600
2020/01/31 09:09:17.0	315.450	0.210	-0.800	0.580
2020/01/31 09:09:17.1	315.460	0.200	-0.790	0.560
2020/01/31 09:09:17.2	315.460	0.190	-0.780	0.550
2020/01/31 09:09:17.3	315.470	0.170	-0.770	0.530
2020/01/31 09:09:17.4	315.480	0.160	-0.750	0.510
2020/01/31 09:09:17.5	315.490	0.140	-0.730	0.500
2020/01/31 09:09:17.6	315.490	0.130	-0.710	0.480
2020/01/31 09:09:17.7	315.500	0.110	-0.680	0.470
2020/01/31 09:09:17.8	315.510	0.100	-0.650	0.450
2020/01/31 09:09:17.9	315.510	0.080	-0.620	0.440
2020/01/31 09:09:18.0	315.520	0.060	-0.590	0.420
2020/01/31 09:09:18.1	315.530	0.050	-0.560	0.400
2020/01/31 09:09:18.2	315.540	0.030	-0.520	0.390
2020/01/31 09:09:18.3	315.540	0.010	-0.480	0.380
2020/01/31 09:09:18.4	315.560	-0.000	-0.450	0.360
2020/01/31 09:09:18.5	315.570	-0.020	-0.410	0.350
2020/01/31 09:09:18.6	315.570	-0.030	-0.370	0.340
2020/01/31 09:09:18.7	315.580	-0.040	-0.330	0.320
2020/01/31 09:09:18.8	315.590	-0.050	-0.290	0.310
2020/01/31 09:09:18.9	315.590	-0.060	-0.250	0.300
2020/01/31 09:09:19.0	315.590	-0.070	-0.210	0.290
2020/01/31 09:09:19.1	315.600	-0.080	-0.160	0.280
2020/01/31 09:09:19.2	315.600	-0.090	-0.130	0.280
2020/01/31 09:09:19.3	315.600	-0.100	-0.090	0.270
2020/01/31 09:09:19.4	315.590	-0.100	-0.050	0.260
2020/01/31 09:09:19.5	315.590	-0.110	-0.010	0.260
2020/01/31 09:09:19.6	315.590	-0.110	0.020	0.260
2020/01/31 09:09:19.7	315.590	-0.120	0.060	0.250
2020/01/31 09:09:19.8	315.580	-0.120	0.090	0.250
2020/01/31 09:09:19.9	315.580	-0.120	0.120	0.240
2020/01/31 09:09:20.0	315.580	-0.130	0.140	0.240
2020/01/31 09:09:20.1	315.580	-0.130	0.170	0.240
2020/01/31 09:09:20.2	315.570	-0.130	0.190	0.230
2020/01/31 09:09:20.3	315.570	-0.130	0.210	0.230
2020/01/31 09:09:20.4	315.560	-0.140	0.220	0.230
2020/01/31 09:09:20.5	315.560	-0.140	0.240	0.230
2020/01/31 09:09:20.6	315.550	-0.140	0.240	0.230
2020/01/31 09:09:20.7	315.550	-0.140	0.250	0.220
2020/01/31 09:09:20.8	315.540	-0.140	0.260	0.220
2020/01/31 09:09:20.9	315.540	-0.140	0.260	0.220
2020/01/31 09:09:21.0	315.540	-0.140	0.260	0.220
2020/01/31 09:09:21.1	315.530	-0.140	0.260	0.220
2020/01/31 09:09:21.2	315.530	-0.140	0.250	0.220
2020/01/31 09:09:21.3	315.530	-0.140	0.250	0.220
2020/01/31 09:09:21.4	315.520	-0.140	0.230	0.220
2020/01/31 09:09:21.5	315.520	-0.140	0.230	0.230
2020/01/31 09:09:21.6	315.510	-0.140	0.220	0.240
2020/01/31 09:09:21.7	315.510	-0.140	0.210	0.250
2020/01/31 09:09:21.8	315.510	-0.130	0.190	0.260
2020/01/31 09:09:21.9	315.500	-0.130	0.180	0.270
2020/01/31 09:09:22.0	315.500	-0.130	0.170	0.290
2020/01/31 09:09:22.1	315.490	-0.120	0.160	0.310
2020/01/31 09:09:22.2	315.480	-0.120	0.150	0.340
2020/01/31 09:09:22.3	315.480	-0.110	0.140	0.360
2020/01/31 09:09:22.4	315.470	-0.110	0.130	0.390
2020/01/31 09:09:22.5	315.460	-0.100	0.120	0.420
2020/01/31 09:09:22.6	315.450	-0.090	0.110	0.450
2020/01/31 09:09:22.7	315.440	-0.090	0.100	0.490
2020/01/31 09:09:22.8	315.430	-0.080	0.100	0.520
2020/01/31 09:09:22.9	315.410	-0.070	0.090	0.560
2020/01/31 09:09:23.0	315.400	-0.070	0.080	0.590
2020/01/31 09:09:23.1	315.390	-0.060	0.080	0.630
2020/01/31 09:09:23.2	315.370	-0.060	0.070	0.660
2020/01/31 09:09:23.3	315.360	-0.050	0.060	0.700
2020/01/31 09:09:23.4	315.340	-0.040	0.050	0.730
2020/01/31 09:09:23.5	315.330	-0.040	0.040	0.760
2020/01/31 09:09:23.6	315.320	-0.030	0.030	0.780
2020/01/31 09:09:23.7	315.310	-0.030	0.020	0.800
2020/01/31 09:09:23.8	315.310	-0.020	0.000	0.820
2020/01/31 09:09:23.9	315.310	-0.020	-0.020	0.830
2020/01/31 09:09:24.0	315.300	-0.020	-0.040	0.840
2020/01/31 09:09:24.1	315.310	-0.010	-0.060	0.840
2020/01/31 09:09:24.2	315.310	-0.010	-0.090	0.840
2020/01/31 09:09:24.3	315.320	-0.010	-0.120	0.830
2020/01/31 09:09:24.4	315.330	-0.010	-0.150	0.820
2020/01/31 09:09:24.5	315.340	-0.000	-0.180	0.810
2020/01/31 09:09:24.6	315.360	-0.000	-0.220	0.790
2020/01/31 09:09:24.7	315.370	0.000	-0.260	0.770
2020/01/31 09:09:24.8	315.390	0.000	-0.300	0.740
2020/01/31 09:09:24.9	315.410	0.000	-0.340	0.720
2020/01/31 09:09:25.0	315.420	0.010	-0.380	0.690
2020/01/31 09:09:25.1	315.440	0.010	-0.420	0.650
2020/01/31 09:09:25.2	315.460	0.010	-0.460	0.620
2020/01/31 09:09:25.3	315.480	0.010	-0.500	0.590
2020/01/31 09:09:25.4	315.500	0.010	-0.550	0.560
2020/01/31 09:09:25.5	315.520	0.010	-0.590	0.520
2020/01/31 09:09:25.6	315.540	0.010	-0.630	0.490
2020/01/31 09:09:25.7	315.560	0.010	-0.660	0.460
2020/01/31 09:09:25.8	315.580	0.010	-0.690	0.430
2020/01/31 09:09:25.9	315.600	0.020	-0.720	0.400
2020/01/31 09:09:26.0	315.610	0.020	-0.750	0.370
2020/01/31 09:09:26.1	315.630	0.020	-0.770	0.340
2020/01/31 09:09:26.2	315.650	0.020	-0.780	0.320
2020/01/31 09:09:26.3	315.660	0.020	-0.790	0.290
2020/01/31 09:09:26.4	315.670	0.020	-0.800	0.270
2020/01/31 09:09:26.5	315.680	0.030	-0.800	0.250
2020/01/31 09:09:26.6	315.690	0.030	-0.800	0.240
2020/01/31 09:09:26.7	315.700	0.030	-0.800	0.230
2020/01/31 09:09:26.8	315.710	0.030	-0.790	0.210
2020/01/31 09:09:26.9	315.720	0.030	-0.770	0.210
2020/01/31 09:09:27.0	315.730	0.040	-0.760	0.200
2020/01/31 09:09:27.1	315.730	0.040	-0.740	0.200
2020/01/31 09:09:27.2	315.740	0.040	-0.710	0.200
2020/01/31 09:09:27.3	315.740	0.040	-0.690	0.200
2020/01/31 09:09:27.4	315.760	0.050	-0.660	0.200
2020/01/31 09:09:27.5	315.760	0.050	-0.630	0.210
2020/01/31 09:09:27.6	315.760	0.050	-0.600	0.210
2020/01/31 09:09:27.7	315.760	0.060	-0.570	0.220
2020/01/31 09:09:27.8	315.760	0.060	-0.530	0.230
2020/01/31 09:09:27.9	315.760	0.060	-0.500	0.240
2020/01/31 09:09:28.0	315.750	0.060	-0.460	0.250
2020/01/31 09:09:28.1	315.750	0.070	-0.430	0.270
2020/01/31 09:09:28.2	315.740	0.070	-0.400	0.280
2020/01/31 09:09:28.3	315.730	0.070	-0.360	0.300
2020/01/31 09:09:28.4	315.730	0.070	-0.330	0.320
2020/01/31 09:09:28.5	315.720	0.070	-0.300	0.330
2020/01/31 09:09:28.6	315.710	0.080	-0.270	0.350
2020/01/31 09:09:28.7	315.700	0.080	-0.250	0.370
2020/01/31 09:09:28.8	315.690	0.080	-0.220	0.380
2020/01/31 09:09:28.9	315.680	0.080	-0.200	0.400
2020/01/31 09:09:29.0	315.660	0.080	-0.180	0.420
2020/01/31 09:09:29.1	315.650	0.080	-0.160	0.430
2020/01/31 09:09:29.2	315.640	0.080	-0.140	0.450
2020/01/31 09:09:29.3	315.630	0.080	-0.130	0.460
2020/01/31 09:09:29.4	315.620	0.090	-0.120	0.480
2020/01/31 09:09:29.5	315.610	0.090	-0.110	0.490
2020/01/31 09:09:29.6	315.600	0.080	-0.110	0.500
2020/01/31 09:09:29.7	315.590	0.080	-0.100	0.510
2020/01/31 09:09:29.8	315.580	0.080	-0.100	0.520
2020/01/31 09:09:29.9	315.580	0.080	-0.110	0.530
2020/01/31 09:09:30.0	315.570	0.080	-0.110	0.540
2020/01/31 09:09:30.1	315.570	0.080	-0.120	0.540
2020/01/31 09:09:30.2	315.570	0.080	-0.120	0.550
2020/01/31 09:09:30.3	315.570	0.070	-0.130	0.560
2020/01/31 09:09:30.4	315.570	0.070	-0.140	0.560
2020/01/31 09:09:30.5	315.570	0.070	-0.150	0.570
2020/01/31 09:09:30.6	315.570	0.060	-0.160	0.580
2020/01/31 09:09:30.7	315.570	0.060	-0.170	0.580
2020/01/31 09:09:30.8	315.580	0.060	-0.170	0.590
2020/01/31 09:09:30.9	315.580	0.050	-0.180	0.590
2020/01/31 09:09:31.0	315.580	0.040	-0.190	0.600
2020/01/31 09:09:31.1	315.590	0.040	-0.190	0.600
2020/01/31 09:09:31.2	315.590	0.030	-0.190	0.610
2020/01/31 09:09:31.3	315.590	0.030	-0.190	0.610
2020/01/31 09:09:31.4	315.600	0.020	-0.190	0.620
2020/01/31 09:09:31.5	315.600	0.010	-0.190	0.620
2020/01/31 09:09:31.6	315.610	0.000	-0.180	0.630
2020/01/31 09:09:31.7	315.610	-0.000	-0.180	0.630
2020/01/31 09:09:31.8	315.620	-0.010	-0.170	0.640
2020/01/31 09:09:31.9	315.630	-0.020	-0.160	0.640
2020/01/31 09:09:32.0	315.630	-0.030	-0.160	0.640
2020/01/31 09:09:32.1	315.640	-0.040	-0.150	0.650
2020/01/31 09:09:32.2	315.650	-0.050	-0.140	0.650
2020/01/31 09:09:32.3	315.650	-0.050	-0.130	0.650
2020/01/31 09:09:32.4	315.660	-0.060	-0.120	0.650
2020/01/31 09:09:32.5	315.670	-0.070	-0.110	0.650
2020/01/31 09:09:32.6	315.670	-0.080	-0.100	0.650
2020/01/31 09:09:32.7	315.680	-0.090	-0.090	0.640
2020/01/31 09:09:32.8	315.690	-0.100	-0.090	0.640
2020/01/31 09:09:32.9	315.690	-0.100	-0.080	0.630
2020/01/31 09:09:33.0	315.700	-0.110	-0.070	0.630
2020/01/31 09:09:33.1	315.700	-0.120	-0.060	0.620
2020/01/31 09:09:33.2	315.710	-0.130	-0.050	0.610
2020/01/31 09:09:33.3	315.710	-0.140	-0.050	0.600
2020/01/31 09:09:33.4	315.720	-0.140	-0.050	0.590
2020/01/31 09:09:33.5	315.720	-0.150	-0.040	0.580
2020/01/31 09:09:33.6	315.720	-0.160	-0.030	0.570
2020/01/31 09:09:33.7	315.710	-0.160	-0.030	0.560
2020/01/31 09:09:33.8	315.710	-0.170	-0.020	0.540
2020/01/31 09:09:33.9	315.710	-0.180	-0.020	0.530
2020/01/31 09:09:34.0	315.700	-0.180	-0.010	0.510
2020/01/31 09:09:34.1	315.700	-0.190	-0.010	0.490
2020/01/31 09:09:34.2	315.690	-0.190	-0.000	0.470
2020/01/31 09:09:34.3	315.680	-0.190	0.000	0.460
2020/01/31 09:09:34.4	315.670	-0.200	0.010	0.430
2020/01/31 09:09:34.5	315.660	-0.200	0.010	0.410
2020/01/31 09:09:34.6	315.650	-0.200	0.010	0.400
2020/01/31 09:09:34.7	315.650	-0.200	0.020	0.380
2020/01/31 09:09:34.8	315.640	-0.200	0.020	0.360
2020/01/31 09:09:34.9	315.630	-0.200	0.020	0.340
2020/01/31 09:09:35.0	315.630	-0.190	0.020	0.320
2020/01/31 09:09:35.1	315.620	-0.190	0.020	0.310
2020/01/31 09:09:35.2	315.610	-0.180	0.020	0.290
2020/01/31 09:09:35.3	315.600	-0.180	0.020	0.280
2020/01/31 09:09:35.4	315.590	-0.170	0.020	0.260
2020/01/31 09:09:35.5	315.580	-0.160	0.020	0.250
2020/01/31 09:09:35.6	315.580	-0.150	0.010	0.240
2020/01/31 09:09:35.7	315.570	-0.130	0.010	0.230
2020/01/31 09:09:35.8	315.560	-0.120	-0.000	0.220
2020/01/31 09:09:35.9	315.560	-0.110	-0.010	0.210
2020/01/31 09:09:36.0	315.550	-0.090	-0.020	0.210
2020/01/31 09:09:36.1	315.550	-0.070	-0.030	0.200
2020/01/31 09:09:36.2	315.540	-0.060	-0.050	0.200
2020/01/31 09:09:36.3	315.540	-0.040	-0.060	0.190
2020/01/31 09:09:36.4	315.540	-0.020	-0.080	0.200
2020/01/31 09:09:36.5	315.530	0.000	-0.100	0.190
2020/01/31 09:09:36.6	315.530	0.020	-0.130	0.190
2020/01/31 09:09:36.7	315.530	0.040	-0.150	0.190
2020/01/31 09:09:36.8	315.520	0.060	-0.170	0.190
2020/01/31 09:09:36.9	315.520	0.080	-0.200	0.190
2020/01/31 09:09:37.0	315.520	0.100	-0.230	0.190
2020/01/31 09:09:37.1	315.520	0.120	-0.260	0.190
2020/01/31 09:09:37.2	315.520	0.140	-0.290	0.180
2020/01/31 09:09:37.3	315.520	0.160	-0.320	0.180
2020/01/31 09:09:37.4	315.530	0.180	-0.360	0.180
2020/01/31 09:09:37.5	315.530	0.200	-0.390	0.170
2020/01/31 09:09:37.6	315.530	0.220	-0.420	0.160
2020/01/31 09:09:37.7	315.540	0.230	-0.460	0.160
2020/01/31 09:09:37.8	315.540	0.240	-0.490	0.150
2020/01/31 09:09:37.9	315.550	0.260	-0.530	0.140
2020/01/31 09:09:38.0	315.560	0.270	-0.560	0.130
2020/01/31 09:09:38.1	315.560	0.280	-0.590	0.120
2020/01/31 09:09:38.2	315.570	0.290	-0.620	0.110
2020/01/31 09:09:38.3	315.580	0.290	-0.640	0.100
2020/01/31 09:09:38.4	315.580	0.300	-0.670	0.100
2020/01/31 09:09:38.5	315.590	0.300	-0.690	0.090
2020/01/31 09:09:38.6	315.600	0.300	-0.710	0.080
2020/01/31 09:09:38.7	315.610	0.300	-0.720	0.070
2020/01/31 09:09:38.8	315.630	0.300	-0.730	0.060
2020/01/31 09:09:38.9	315.640	0.300	-0.740	0.050
2020/01/31 09:09:39.0	315.650	0.290	-0.750	0.040
2020/01/31 09:09:39.1	315.660	0.280	-0.750	0.040
2020/01/31 09:09:39.2	315.670	0.270	-0.740	0.030
2020/01/31 09:09:39.3	315.680	0.260	-0.740	0.030
2020/01/31 09:09:39.4	315.700	0.250	-0.730	0.030
2020/01/31 09:09:39.5	315.720	0.240	-0.710	0.030
2020/01/31 09:09:39.6	315.730	0.230	-0.690	0.030
2020/01/31 09:09:39.7	315.740	0.210	-0.670	0.030
2020/01/31 09:09:39.8	315.740	0.190	-0.640	0.040
2020/01/31 09:09:39.9	315.750	0.180	-0.620	0.040
2020/01/31 09:09:40.0	315.760	0.160	-0.580	0.050
2020/01/31 09:09:40.1	315.770	0.140	-0.550	0.060
2020/01/31 09:09:40.2	315.770	0.120	-0.510	0.080
2020/01/31 09:09:40.3	315.780	0.100	-0.470	0.090
2020/01/31 09:09:40.4	315.790	0.080	-0.430	0.110
2020/01/31 09:09:40.5	315.790	0.050	-0.390	0.120
2020/01/31 09:09:40.6	315.790	0.030	-0.350	0.140
2020/01/31 09:09:40.7	315.790	0.010	-0.300	0.160
2020/01/31 09:09:40.8	315.790	-0.010	-0.260	0.190
2020/01/31 09:09:40.9	315.790	-0.030	-0.220	0.210
2020/01/31 09:09:41.0	315.790	-0.060	-0.170	0.230
2020/01/31 09:09:41.1	315.790	-0.080	-0.130	0.250
2020/01/31 09:09:41.2	315.780	-0.100	-0.090	0.280
2020/01/31 09:09:41.3	315.780	-0.120	-0.060	0.300
2020/01/31 09:09:41.4	315.790	-0.140	-0.020	0.330
2020/01/31 09:09:41.5	315.790	-0.170	0.010	0.350
2020/01/31 09:09:41.6	315.790	-0.190	0.040	0.370
2020/01/31 09:09:41.7	315.780	-0.210	0.060	0.380
2020/01/31 09:09:41.8	315.780	-0.230	0.080	0.400
2020/01/31 09:09:41.9	315.780	-0.240	0.100	0.410
2020/01/31 09:09:42.0	315.780	-0.260	0.110	0.430
2020/01/31 09:09:42.1	315.790	-0.280	0.120	0.440
2020/01/31 09:09:42.2	315.790	-0.290	0.130	0.450
2020/01/31 09:09:42.3	315.790	-0.310	0.130	0.450
2020/01/31 09:09:42.4	315.790	-0.320	0.120	0.460
2020/01/31 09:09:42.5	315.800	-0.330	0.110	0.460
2020/01/31 09:09:42.6	315.800	-0.340	0.100	0.470
2020/01/31 09:09:42.7	315.810	-0.350	0.090	0.470
2020/01/31 09:09:42.8	315.810	-0.360	0.080	0.470
2020/01/31 09:09:42.9	315.820	-0.370	0.060	0.470
2020/01/31 09:09:43.0	315.820	-0.370	0.040	0.470
2020/01/31 09:09:43.1	315.830	-0.380	0.020	0.470
2020/01/31 09:09:43.2	315.830	-0.380	0.000	0.470
2020/01/31 09:09:43.3	315.830	-0.380	-0.020	0.480
2020/01/31 09:09:43.4	315.830	-0.380	-0.030	0.480
2020/01/31 09:09:43.5	315.840	-0.380	-0.050	0.480
2020/01/31 09:09:43.6	315.840	-0.380	-0.070	0.480
2020/01/31 09:09:43.7	315.830	-0.370	-0.080	0.480
2020/01/31 09:09:43.8	315.830	-0.370	-0.100	0.490
2020/01/31 09:09:43.9	315.830	-0.360	-0.110	0.490
2020/01/31 09:09:44.0	315.820	-0.350	-0.120	0.490
2020/01/31 09:09:44.1	315.820	-0.350	-0.120	0.500
2020/01/31 09:09:44.2	315.810	-0.340	-0.120	0.510
2020/01/31 09:09:44.3	315.800	-0.330	-0.130	0.520
2020/01/31 09:09:44.4	315.790	-0.310	-0.130	0.530
2020/01/31 09:09:44.5	315.780	-0.300	-0.130	0.550
2020/01/31 09:09:44.6	315.770	-0.290	-0.120	0.560
2020/01/31 09:09:44.7	315.750	-0.280	-0.110	0.570
2020/01/31 09:09:44.8	315.740	-0.260	-0.100	0.590
2020/01/31 09:09:44.9	315.720	-0.250	-0.090	0.610
2020/01/31 09:09:45.0	315.710	-0.230	-0.080	0.630
2020/01/31 09:09:45.1	315.690	-0.220	-0.060	0.640
2020/01/31 09:09:45.2	315.670	-0.200	-0.050	0.660
2020/01/31 09:09:45.3	315.650	-0.190	-0.040	0.680
2020/01/31 09:09:45.4	315.640	-0.170	-0.030	0.700
2020/01/31 09:09:45.5	315.620	-0.160	-0.020	0.720
2020/01/31 09:09:45.6	315.600	-0.140	-0.010	0.730
2020/01/31 09:09:45.7	315.580	-0.130	-0.000	0.740
2020/01/31 09:09:45.8	315.560	-0.110	0.010	0.750
2020/01/31 09:09:45.9	315.530	-0.100	0.010	0.760
2020/01/31 09:09:46.0	315.510	-0.080	0.010	0.770
2020/01/31 09:09:46.1	315.490	-0.070	0.010	0.770
2020/01/31 09:09:46.2	315.470	-0.060	0.010	0.770
2020/01/31 09:09:46.3	315.460	-0.040	-0.000	0.760
2020/01/31 09:09:46.4	315.430	-0.030	-0.010	0.750
2020/01/31 09:09:46.5	315.420	-0.020	-0.020	0.740
2020/01/31 09:09:46.6	315.410	-0.000	-0.040	0.730
2020/01/31 09:09:46.7	315.390	0.010	-0.060	0.710
2020/01/31 09:09:46.8	315.390	0.030	-0.080	0.690
2020/01/31 09:09:46.9	315.380	0.040	-0.110	0.670
2020/01/31 09:09:47.0	315.370	0.050	-0.130	0.640
2020/01/31 09:09:47.1	315.370	0.070	-0.160	0.610
2020/01/31 09:09:47.2	315.370	0.090	-0.200	0.580
2020/01/31 09:09:47.3	315.370	0.100	-0.230	0.550
2020/01/31 09:09:47.4	315.370	0.120	-0.260	0.520
2020/01/31 09:09:47.5	315.370	0.140	-0.300	0.490
2020/01/31 09:09:47.6	315.380	0.160	-0.340	0.460
2020/01/31 09:09:47.7	315.390	0.170	-0.370	0.430
2020/01/31 09:09:47.8	315.400	0.190	-0.410	0.400
2020/01/31 09:09:47.9	315.410	0.210	-0.440	0.370
2020/01/31 09:09:48.0	315.420	0.230	-0.480	0.340
2020/01/31 09:09:48.1	315.440	0.260	-0.510	0.320
2020/01/31 09:09:48.2	315.450	0.280	-0.540	0.290
2020/01/31 09:09:48.3	315.470	0.300	-0.570	0.270
2020/01/31 09:09:48.4	315.470	0.320	-0.600	0.250
2020/01/31 09:09:48.5	315.490	0.340	-0.630	0.230
2020/01/31 09:09:48.6	315.510	0.360	-0.650	0.210
2020/01/31 09:09:48.7	315.530	0.380	-0.670	0.200
2020/01/31 09:09:48.8	315.550	0.410	-0.680	0.180
2020/01/31 09:09:48.9	315.570	0.430	-0.700	0.170
2020/01/31 09:09:49.0	315.590	0.440	-0.710	0.170
2020/01/31 09:09:49.1	315.610	0.460	-0.710	0.160
2020/01/31 09:09:49.2	315.630	0.480	-0.720	0.160
2020/01/31 09:09:49.3	315.660	0.500	-0.710	0.160
2020/01/31 09:09:49.4	315.690	0.510	-0.700	0.160
2020/01/31 09:09:49.5	315.710	0.520	-0.690	0.160
2020/01/31 09:09:49.6	315.730	0.530	-0.680	0.170
2020/01/31 09:09:49.7	315.760	0.540	-0.670	0.180
2020/01/31 09:09:49.8	315.780	0.550	-0.650	0.190
2020/01/31 09:09:49.9	315.800	0.550	-0.630	0.200
2020/01/31 09:09:50.0	315.820	0.550	-0.610	0.210
2020/01/31 09:09:50.1	315.840	0.550	-0.580	0.230
2020/01/31 09:09:50.2	315.860	0.540	-0.560	0.250
2020/01/31 09:09:50.3	315.880	0.540	-0.530	0.270
2020/01/31 09:09:50.4	315.900	0.530	-0.510	0.290
2020/01/31 09:09:50.5	315.910	0.520	-0.470	0.310
2020/01/31 09:09:50.6	315.930	0.500	-0.440	0.340
2020/01/31 09:09:50.7	315.940	0.490	-0.410	0.360
2020/01/31 09:09:50.8	315.960	0.470	-0.370	0.390
2020/01/31 09:09:50.9	315.970	0.450	-0.340	0.420
2020/01/31 09:09:51.0	315.970	0.420	-0.300	0.450
2020/01/31 09:09:51.1	315.980	0.400	-0.270	0.470
2020/01/31 09:09:51.2	315.990	0.370	-0.240	0.500
2020/01/31 09:09:51.3	315.990	0.340	-0.200	0.530
2020/01/31 09:09:51.4	315.970	0.310	-0.170	0.560
2020/01/31 09:09:51.5	315.970	0.280	-0.140	0.590
2020/01/31 09:09:51.6	315.970	0.250	-0.110	0.610
2020/01/31 09:09:51.7	315.970	0.210	-0.080	0.630
2020/01/31 09:09:51.8	315.960	0.180	-0.060	0.660
2020/01/31 09:09:51.9	315.960	0.140	-0.030	0.670
2020/01/31 09:09:52.0	315.950	0.110	-0.010	0.690
2020/01/31 09:09:52.1	315.950	0.070	0.010	0.700
2020/01/31 09:09:52.2	315.940	0.030	0.020	0.710
2020/01/31 09:09:52.3	315.940	-0.010	0.030	0.710
2020/01/31 09:09:52.4	315.940	-0.040	0.040	0.720
2020/01/31 09:09:52.5	315.940	-0.080	0.050	0.720
2020/01/31 09:09:52.6	315.930	-0.120	0.050	0.710
2020/01/31 09:09:52.7	315.930	-0.150	0.050	0.700
2020/01/31 09:09:52.8	315.920	-0.190	0.050	0.680
2020/01/31 09:09:52.9	315.920	-0.220	0.040	0.670
2020/01/31 09:09:53.0	315.920	-0.260	0.040	0.640
2020/01/31 09:09:53.1	315.920	-0.290	0.030	0.620
2020/01/31 09:09:53.2	315.920	-0.330	0.020	0.590
2020/01/31 09:09:53.3	315.920	-0.360	0.010	0.560
2020/01/31 09:09:53.4	315.940	-0.390	-0.010	0.520
2020/01/31 09:09:53.5	315.940	-0.420	-0.030	0.490
2020/01/31 09:09:53.6	315.940	-0.450	-0.040	0.450
2020/01/31 09:09:53.7	315.940	-0.470	-0.060	0.410
2020/01/31 09:09:53.8	315.950	-0.500	-0.080	0.360
2020/01/31 09:09:53.9	315.950	-0.520	-0.100	0.320
2020/01/31 09:09:54.0	315.950	-0.550	-0.110	0.280
2020/01/31 09:09:54.1	315.960	-0.570	-0.130	0.240
2020/01/31 09:09:54.2	315.960	-0.590	-0.140	0.200
2020/01/31 09:09:54.3	315.960	-0.600	-0.160	0.160
2020/01/31 09:09:54.4	315.980	-0.620	-0.170	0.120
2020/01/31 09:09:54.5	315.980	-0.630	-0.180	0.090
2020/01/31 09:09:54.6	315.980	-0.640	-0.190	0.050
2020/01/31 09:09:54.7	315.980	-0.650	-0.200	0.020
2020/01/31 09:09:54.8	315.980	-0.660	-0.210	-0.000
2020/01/31 09:09:54.9	315.980	-0.660	-0.210	-0.030
2020/01/31 09:09:55.0	315.980	-0.670	-0.210	-0.050
2020/01/31 09:09:55.1	315.980	-0.670	-0.210	-0.070
2020/01/31 09:09:55.2	315.980	-0.670	-0.210	-0.080
2020/01/31 09:09:55.3	315.970	-0.660	-0.210	-0.090
2020/01/31 09:09:55.4	315.960	-0.660	-0.200	-0.100
2020/01/31 09:09:55.5	315.950	-0.650	-0.200	-0.110
2020/01/31 09:09:55.6	315.950	-0.640	-0.190	-0.110
2020/01/31 09:09:55.7	315.950	-0.630	-0.180	-0.100
2020/01/31 09:09:55.8	315.940	-0.610	-0.170	-0.100
2020/01/31 09:09:55.9	315.940	-0.600	-0.160	-0.090
2020/01/31 09:09:56.0	315.930	-0.580	-0.150	-0.080
2020/01/31 09:09:56.1	315.920	-0.560	-0.140	-0.060
2020/01/31 09:09:56.2	315.910	-0.530	-0.130	-0.040
2020/01/31 09:09:56.3	315.900	-0.510	-0.110	-0.010
2020/01/31 09:09:56.4	315.900	-0.480	-0.100	0.020
2020/01/31 09:09:56.5	315.890	-0.450	-0.090	0.050
2020/01/31 09:09:56.6	315.870	-0.430	-0.080	0.090
2020/01/31 09:09:56.7	315.850	-0.400	-0.070	0.130
2020/01/31 09:09:56.8	315.830	-0.360	-0.050	0.170
2020/01/31 09:09:56.9	315.810	-0.330	-0.040	0.210
2020/01/31 09:09:57.0	315.790	-0.300	-0.030	0.260
2020/01/31 09:09:57.1	315.760	-0.260	-0.020	0.300
2020/01/31 09:09:57.2	315.740	-0.230	-0.010	0.350
2020/01/31 09:09:57.3	315.710	-0.190	-0.010	0.400
2020/01/31 09:09:57.4	315.680	-0.160	-0.010	0.460
2020/01/31 09:09:57.5	315.660	-0.120	-0.000	0.510
2020/01/31 09:09:57.6	315.630	-0.090	0.000	0.560
2020/01/31 09:09:57.7	315.600	-0.050	0.000	0.610
2020/01/31 09:09:57.8	315.570	-0.010	-0.000	0.660
2020/01/31 09:09:57.9	315.540	0.020	-0.010	0.700
2020/01/31 09:09:58.0	315.510	0.060	-0.010	0.750
2020/01/31 09:09:58.1	315.480	0.100	-0.020	0.790
2020/01/31 09:09:58.2	315.450	0.130	-0.030	0.830
2020/01/31 09:09:58.3	315.430	0.170	-0.040	0.870
2020/01/31 09:09:58.4	315.420	0.200	-0.060	0.910
2020/01/31 09:09:58.5	315.390	0.240	-0.080	0.940
2020/01/31 09:09:58.6	315.370	0.270	-0.100	0.970
2020/01/31 09:09:58.7	315.350	0.310	-0.120	1.000
2020/01/31 09:09:58.8	315.340	0.340	-0.140	1.020
2020/01/31 09:09:58.9	315.320	0.370	-0.160	1.030
2020/01/31 09:09:59.0	315.310	0.400	-0.190	1.050
2020/01/31 09:09:59.1	315.300	0.420	-0.210	1.060
2020/01/31 09:09:59.2	315.290	0.450	-0.240	1.060
2020/01/31 09:09:59.3	315.290	0.470	-0.270	1.060
2020/01/31 09:09:59.4	315.300	0.500	-0.290	1.070
2020/01/31 09:09:59.5	315.300	0.510	-0.310	1.060
2020/01/31 09:09:59.6	315.300	0.530	-0.340	1.060
2020/01/31 09:09:59.7	315.300	0.550	-0.360	1.050
2020/01/31 09:09:59.8	315.300	0.560	-0.380	1.040
2020/01/31 09:09:59.9	315.310	0.570	-0.400	1.030
2020/01/31 09:10:00.0	315.320	0.570	-0.420	1.020
2020/01/31 09:10:00.1	315.330	0.580	-0.430	1.010
2020/01/31 09:10:00.2	315.340	0.580	-0.450	0.990
2020/01/31 09:10:00.3	315.350	0.570	-0.460	0.970
2020/01/31 09:10:00.4	315.360	0.570	-0.470	0.960
2020/01/31 09:10:00.5	315.370	0.560	-0.490	0.940
2020/01/31 09:10:00.6	315.390	0.550	-0.490	0.920
2020/01/31 09:10:00.7	315.410	0.540	-0.500	0.890
2020/01/31 09:10:00.8	315.430	0.520	-0.510	0.870
2020/01/31 09:10:00.9	315.450	0.510	-0.520	0.840
2020/01/31 09:10:01.0	315.470	0.490	-0.520	0.820
2020/01/31 09:10:01.1	315.500	0.470	-0.530	0.790
2020/01/31 09:10:01.2	315.520	0.440	-0.530	0.760
2020/01/31 09:10:01.3	315.550	0.420	-0.530	0.730
2020/01/31 09:10:01.4	315.580	0.400	-0.540	0.690
2020/01/31 09:10:01.5	315.610	0.370	-0.540	0.660
2020/01/31 09:10:01.6	315.640	0.340	-0.540	0.630
2020/01/31 09:10:01.7	315.670	0.320	-0.550	0.590
2020/01/31 09:10:01.8	315.700	0.290	-0.550	0.550
2020/01/31 09:10:01.9	315.730	0.260	-0.550	0.520
2020/01/31 09:10:02.0	315.770	0.240	-0.550	0.480
2020/01/31 09:10:02.1	315.800	0.210	-0.550	0.440
2020/01/31 09:10:02.2	315.830	0.190	-0.540	0.400
2020/01/31 09:10:02.3	315.870	0.160	-0.540	0.360
2020/01/31 09:10:02.4	315.900	0.140	-0.540	0.330
2020/01/31 09:10:02.5	315.940	0.110	-0.530	0.290
2020/01/31 09:10:02.6	315.970	0.090	-0.520	0.260
2020/01/31 09:10:02.7	316.000	0.070	-0.510	0.220
2020/01/31 09:10:02.8	316.030	0.050	-0.500	0.190
2020/01/31 09:10:02.9	316.060	0.030	-0.490	0.160
2020/01/31 09:10:03.0	316.090	0.010	-0.470	0.140
2020/01/31 09:10:03.1	316.120	-0.000	-0.460	0.110
2020/01/31 09:10:03.2	316.140	-0.020	-0.440	0.090
2020/01/31 09:10:03.3	316.170	-0.030	-0.420	0.070
2020/01/31 09:10:03.4	316.170	-0.050	-0.400	0.060
2020/01/31 09:10:03.5	316.190	-0.060	-0.380	0.050
2020/01/31 09:10:03.6	316.210	-0.070	-0.360	0.040
2020/01/31 09:10:03.7	316.230	-0.080	-0.340	0.030
2020/01/31 09:10:03.8	316.240	-0.090	-0.310	0.030
2020/01/31 09:10:03.9	316.250	-0.100	-0.290	0.030
2020/01/31 09:10:04.0	316.250	-0.110	-0.260	0.040
2020/01/31 09:10:04.1	316.260	-0.110	-0.240	0.050
2020/01/31 09:10:04.2	316.260	-0.120	-0.210	0.060
2020/01/31 09:10:04.3	316.260	-0.130	-0.180	0.070
2020/01/31 09:10:04.4	316.250	-0.130	-0.160	0.090
2020/01/31 09:10:04.5	316.240	-0.140	-0.130	0.110
2020/01/31 09:10:04.6	316.230	-0.140	-0.110	0.130
2020/01/31 09:10:04.7	316.210	-0.150	-0.080	0.160
2020/01/31 09:10:04.8	316.200	-0.150	-0.050	0.190
2020/01/31 09:10:04.9	316.180	-0.160	-0.030	0.210
2020/01/31 09:10:05.0	316.160	-0.160	-0.000	0.240
2020/01/31 09:10:05.1	316.130	-0.170	0.020	0.270
2020/01/31 09:10:05.2	316.100	-0.170	0.040	0.300
2020/01/31 09:10:05.3	316.080	-0.180	0.060	0.330
2020/01/31 09:10:05.4	316.060	-0.180	0.080	0.370
2020/01/31 09:10:05.5	316.030	-0.190	0.100	0.400
2020/01/31 09:10:05.6	315.990	-0.190	0.120	0.430
2020/01/31 09:10:05.7	315.960	-0.200	0.130	0.460
2020/01/31 09:10:05.8	315.920	-0.200	0.140	0.490
2020/01/31 09:10:05.9	315.880	-0.210	0.150	0.510
2020/01/31 09:10:06.0	315.850	-0.220	0.160	0.540
2020/01/31 09:10:06.1	315.810	-0.220	0.160	0.560
2020/01/31 09:10:06.2	315.770	-0.230	0.170	0.590
2020/01/31 09:10:06.3	315.740	-0.230	0.170	0.610
2020/01/31 09:10:06.4	315.690	-0.240	0.160	0.630
2020/01/31 09:10:06.5	315.660	-0.240	0.150	0.640
2020/01/31 09:10:06.6	315.620	-0.250	0.150	0.660
2020/01/31 09:10:06.7	315.590	-0.250	0.130	0.670
2020/01/31 09:10:06.8	315.560	-0.260	0.120	0.670
2020/01/31 09:10:06.9	315.530	-0.260	0.100	0.680
2020/01/31 09:10:07.0	315.510	-0.270	0.080	0.680
2020/01/31 09:10:07.1	315.480	-0.270	0.060	0.680
2020/01/31 09:10:07.2	315.460	-0.270	0.040	0.670
2020/01/31 09:10:07.3	315.440	-0.270	0.010	0.670
2020/01/31 09:10:07.4	315.420	-0.280	-0.020	0.660
2020/01/31 09:10:07.5	315.400	-0.280	-0.040	0.640
2020/01/31 09:10:07.6	315.380	-0.280	-0.070	0.630
2020/01/31 09:10:07.7	315.370	-0.270	-0.100	0.610
2020/01/31 09:10:07.8	315.350	-0.270	-0.130	0.600
2020/01/31 09:10:07.9	315.340	-0.270	-0.160	0.580
2020/01/31 09:10:08.0	315.330	-0.260	-0.190	0.560
2020/01/31 09:10:08.1	315.320	-0.260	-0.220	0.540
2020/01/31 09:10:08.2	315.310	-0.250	-0.250	0.530
2020/01/31 09:10:08.3	315.300	-0.250	-0.270	0.510
2020/01/31 09:10:08.4	315.280	-0.240	-0.300	0.490
2020/01/31 09:10:08.5	315.270	-0.230	-0.320	0.480
2020/01/31 09:10:08.6	315.260	-0.220	-0.340	0.470
2020/01/31 09:10:08.7	315.250	-0.210	-0.360	0.460
2020/01/31 09:10:08.8	315.240	-0.190	-0.370	0.460
2020/01/31 09:10:08.9	315.230	-0.180	-0.380	0.460
2020/01/31 09:10:09.0	315.220	-0.160	-0.390	0.450
2020/01/31 09:10:09.1	315.210	-0.150	-0.400	0.450
2020/01/31 09:10:09.2	315.210	-0.130	-0.410	0.450
2020/01/31 09:10:09.3	315.200	-0.120	-0.410	0.460
2020/01/31 09:10:09.4	315.200	-0.100	-0.410	0.460
2020/01/31 09:10:09.5	315.200	-0.090	-0.410	0.470
2020/01/31 09:10:09.6	315.190	-0.070	-0.410	0.470
2020/01/31 09:10:09.7	315.190	-0.050	-0.410	0.480
2020/01/31 09:10:09.8	315.180	-0.030	-0.410	0.480
2020/01/31 09:10:09.9	315.180	-0.020	-0.400	0.480
2020/01/31 09:10:10.0	315.180	0.000	-0.390	0.490
2020/01/31 09:10:10.1	315.180	0.020	-0.390	0.490
2020/01/31 09:10:10.2	315.190	0.040	-0.380	0.490
2020/01/31 09:10:10.3	315.190	0.050	-0.370	0.500
2020/01/31 09:10:10.4	315.190	0.070	-0.370	0.490
2020/01/31 09:10:10.5	315.200	0.090	-0.360	0.500
2020/01/31 09:10:10.6	315.200	0.100	-0.350	0.500
2020/01/31 09:10:10.7	315.210	0.120	-0.340	0.500
2020/01/31 09:10:10.8	315.220	0.130	-0.330	0.500
2020/01/31 09:10:10.9	315.230	0.150	-0.320	0.490
2020/01/31 09:10:11.0	315.240	0.160	-0.310	0.490
2020/01/31 09:10:11.1	315.260	0.170	-0.290	0.490
2020/01/31 09:10:11.2	315.270	0.180	-0.280	0.490
2020/01/31 09:10:11.3	315.280	0.190	-0.270	0.490
2020/01/31 09:10:11.4	315.290	0.200	-0.260	0.490
2020/01/31 09:10:11.5	315.300	0.210	-0.250	0.490
2020/01/31 09:10:11.6	315.320	0.220	-0.240	0.480
2020/01/31 09:10:11.7	315.330	0.220	-0.230	0.480
2020/01/31 09:10:11.8	315.340	0.220	-0.220	0.480
2020/01/31 09:10:11.9	315.360	0.230	-0.210	0.470
2020/01/31 09:10:12.0	315.370	0.230	-0.200	0.470
2020/01/31 09:10:12.1	315.390	0.230	-0.190	0.470
2020/01/31 09:10:12.2	315.410	0.220	-0.180	0.460
2020/01/31 09:10:12.3	315.420	0.220	-0.170	0.460
2020/01/31 09:10:12.4	315.450	0.220	-0.160	0.460
2020/01/31 09:10:12.5	315.470	0.210	-0.150	0.450
2020/01/31 09:10:12.6	315.490	0.210	-0.140	0.450
2020/01/31 09:10:12.7	315.500	0.200	-0.140	0.440
2020/01/31 09:10:12.8	315.520	0.190	-0.130	0.440
2020/01/31 09:10:12.9	315.540	0.180	-0.120	0.440
2020/01/31 09:10:13.0	315.560	0.170	-0.120	0.440
2020/01/31 09:10:13.1	315.570	0.160	-0.110	0.440
2020/01/31 09:10:13.2	315.590	0.150	-0.110	0.440
2020/01/31 09:10:13.3	315.610	0.140	-0.100	0.440
2020/01/31 09:10:13.4	315.620	0.130	-0.100	0.450
2020/01/31 09:10:13.5	315.630	0.120	-0.090	0.450
2020/01/31 09:10:13.6	315.640	0.110	-0.090	0.460
2020/01/31 09:10:13.7	315.660	0.100	-0.090	0.470
2020/01/31 09:10:13.8	315.670	0.090	-0.080	0.480
2020/01/31 09:10:13.9	315.680	0.080	-0.080	0.490
2020/01/31 09:10:14.0	315.690	0.070	-0.080	0.510
2020/01/31 09:10:14.1	315.700	0.060	-0.080	0.520
2020/01/31 09:10:14.2	315.710	0.050	-0.080	0.540
2020/01/31 09:10:14.3	315.720	0.040	-0.080	0.550
2020/01/31 09:10:14.4	315.730	0.030	-0.080	0.570
2020/01/31 09:10:14.5	315.740	0.020	-0.090	0.590
2020/01/31 09:10:14.6	315.750	0.020	-0.090	0.610
2020/01/31 09:10:14.7	315.750	0.010	-0.100	0.630
2020/01/31 09:10:14.8	315.760	0.010	-0.100	0.640
2020/01/31 09:10:14.9	315.760	0.000	-0.110	0.660
2020/01/31 09:10:15.0	315.760	-0.000	-0.120	0.680
2020/01/31 09:10:15.1	315.760	-0.000	-0.130	0.690
2020/01/31 09:10:15.2	315.770	-0.000	-0.140	0.710
2020/01/31 09:10:15.3	315.760	-0.000	-0.160	0.730
2020/01/31 09:10:15.4	315.760	0.000	-0.170	0.740
2020/01/31 09:10:15.5	315.760	0.000	-0.190	0.760
2020/01/31 09:10:15.6	315.760	0.010	-0.200	0.770
2020/01/31 09:10:15.7	315.760	0.010	-0.220	0.780
2020/01/31 09:10:15.8	315.750	0.020	-0.240	0.800
2020/01/31 09:10:15.9	315.750	0.020	-0.250	0.810
2020/01/31 09:10:16.0	315.740	0.030	-0.270	0.810
2020/01/31 09:10:16.1	315.740	0.030	-0.290	0.820
2020/01/31 09:10:16.2	315.730	0.040	-0.320	0.830
2020/01/31 09:10:16.3	315.730	0.050	-0.340	0.830
2020/01/31 09:10:16.4	315.720	0.060	-0.360	0.840
2020/01/31 09:10:16.5	315.720	0.060	-0.380	0.840
2020/01/31 09:10:16.6	315.710	0.070	-0.400	0.840
2020/01/31 09:10:16.7	315.710	0.080	-0.430	0.840
2020/01/31 09:10:16.8	315.700	0.080	-0.450	0.840
2020/01/31 09:10:16.9	315.690	0.090	-0.470	0.830
2020/01/31 09:10:17.0	315.690	0.100	-0.500	0.830
2020/01/31 09:10:17.1	315.690	0.100	-0.520	0.820
2020/01/31 09:10:17.2	315.680	0.110	-0.540	0.810
2020/01/31 09:10:17.3	315.680	0.110	-0.560	0.800
2020/01/31 09:10:17.4	315.670	0.110	-0.590	0.790
2020/01/31 09:10:17.5	315.670	0.120	-0.600	0.780
2020/01/31 09:10:17.6	315.670	0.120	-0.620	0.770
2020/01/31 09:10:17.7	315.660	0.120	-0.630	0.750
2020/01/31 09:10:17.8	315.660	0.120	-0.650	0.730
2020/01/31 09:10:17.9	315.650	0.110	-0.660	0.720
2020/01/31 09:10:18.0	315.650	0.110	-0.660	0.700
2020/01/31 09:10:18.1	315.650	0.110	-0.670	0.680
2020/01/31 09:10:18.2	315.640	0.100	-0.670	0.670
2020/01/31 09:10:18.3	315.630	0.090	-0.660	0.650
2020/01/31 09:10:18.4	315.640	0.080	-0.660	0.630
2020/01/31 09:10:18.5	315.630	0.080	-0.650	0.610
2020/01/31 09:10:18.6	315.630	0.060	-0.640	0.600
2020/01/31 09:10:18.7	315.620	0.050	-0.620	0.580
2020/01/31 09:10:18.8	315.610	0.040	-0.600	0.560
2020/01/31 09:10:18.9	315.600	0.030	-0.580	0.540
2020/01/31 09:10:19.0	315.600	0.010	-0.550	0.530
2020/01/31 09:10:19.1	315.590	0.000	-0.520	0.510
2020/01/31 09:10:19.2	315.580	-0.010	-0.490	0.490
2020/01/31 09:10:19.3	315.570	-0.030	-0.450	0.480
2020/01/31 09:10:19.4	315.570	-0.050	-0.420	0.460
2020/01/31 09:10:19.5	315.570	-0.060	-0.380	0.450
2020/01/31 09:10:19.6	315.560	-0.080	-0.340	0.430
2020/01/31 09:10:19.7	315.550	-0.090	-0.300	0.420
2020/01/31 09:10:19.8	315.540	-0.110	-0.250	0.410
2020/01/31 09:10:19.9	315.520	-0.120	-0.210	0.400
2020/01/31 09:10:20.0	315.510	-0.130	-0.160	0.390
2020/01/31 09:10:20.1	315.500	-0.150	-0.120	0.390
2020/01/31 09:10:20.2	315.490	-0.160	-0.070	0.380
2020/01/31 09:10:20.3	315.480	-0.170	-0.030	0.380
2020/01/31 09:10:20.4	315.490	-0.180	0.020	0.380
2020/01/31 09:10:20.5	315.470	-0.190	0.060	0.380
2020/01/31 09:10:20.6	315.460	-0.190	0.100	0.380
2020/01/31 09:10:20.7	315.450	-0.200	0.140	0.380
2020/01/31 09:10:20.8	315.440	-0.210	0.170	0.390
2020/01/31 09:10:20.9	315.430	-0.210	0.210	0.390
2020/01/31 09:10:21.0	315.420	-0.210	0.240	0.400
2020/01/31 09:10:21.1	315.400	-0.210	0.270	0.410
2020/01/31 09:10:21.2	315.390	-0.210	0.290	0.420
2020/01/31 09:10:21.3	315.380	-0.210	0.320	0.420
2020/01/31 09:10:21.4	315.370	-0.210	0.330	0.430
2020/01/31 09:10:21.5	315.360	-0.200	0.340	0.440
2020/01/31 09:10:21.6	315.350	-0.200	0.350	0.460
2020/01/31 09:10:21.7	315.340	-0.190	0.360	0.470
2020/01/31 09:10:21.8	315.330	-0.180	0.360	0.480
2020/01/31 09:10:21.9	315.320	-0.170	0.360	0.490
2020/01/31 09:10:22.0	315.310	-0.160	0.350	0.510
2020/01/31 09:10:22.1	315.310	-0.150	0.340	0.520
2020/01/31 09:10:22.2	315.300	-0.140	0.330	0.530
2020/01/31 09:10:22.3	315.290	-0.130	0.320	0.550
2020/01/31 09:10:22.4	315.290	-0.120	0.300	0.550
2020/01/31 09:10:22.5	315.280	-0.110	0.270	0.570
2020/01/31 09:10:22.6	315.280	-0.090	0.250	0.580
2020/01/31 09:10:22.7	315.280	-0.080	0.220	0.580
2020/01/31 09:10:22.8	315.280	-0.070	0.190	0.590
2020/01/31 09:10:22.9	315.270	-0.060	0.160	0.600
2020/01/31 09:10:23.0	315.270	-0.040	0.130	0.610
2020/01/31 09:10:23.1	315.270	-0.030	0.090	0.610
2020/01/31 09:10:23.2	315.280	-0.020	0.060	0.620
2020/01/31 09:10:23.3	315.280	-0.010	0.020	0.620
2020/01/31 09:10:23.4	315.290	0.000	-0.010	0.630
2020/01/31 09:10:23.5	315.290	0.010	-0.050	0.630
2020/01/31 09:10:23.6	315.300	0.020	-0.090	0.630
2020/01/31 09:10:23.7	315.300	0.030	-0.130	0.620
2020/01/31 09:10:23.8	315.310	0.040	-0.170	0.620
2020/01/31 09:10:23.9	315.320	0.040	-0.210	0.620
2020/01/31 09:10:24.0	315.330	0.050	-0.240	0.610
2020/01/31 09:10:24.1	315.340	0.060	-0.280	0.600
2020/01/31 09:10:24.2	315.360	0.060	-0.320	0.590
2020/01/31 09:10:24.3	315.370	0.070	-0.350	0.590
2020/01/31 09:10:24.4	315.390	0.070	-0.380	0.570
2020/01/31 09:10:24.5	315.410	0.070	-0.420	0.560
2020/01/31 09:10:24.6	315.430	0.070	-0.450	0.540
2020/01/31 09:10:24.7	315.450	0.080	-0.480	0.530
2020/01/31 09:10:24.8	315.470	0.080	-0.500	0.510
2020/01/31 09:10:24.9	315.500	0.080	-0.530	0.490
2020/01/31 09:10:25.0	315.520	0.070	-0.550	0.480
2020/01/31 09:10:25.1	315.550	0.070	-0.570	0.460
2020/01/31 09:10:25.2	315.570	0.070	-0.580	0.440
2020/01/31 09:10:25.3	315.600	0.070	-0.600	0.420
2020/01/31 09:10:25.4	315.610	0.060	-0.610	0.400
2020/01/31 09:10:25.5	315.640	0.060	-0.620	0.380
2020/01/31 09:10:25.6	315.670	0.060	-0.630	0.350
2020/01/31 09:10:25.7	315.690	0.050	-0.630	0.330
2020/01/31 09:10:25.8	315.720	0.040	-0.630	0.310
2020/01/31 09:10:25.9	315.740	0.040	-0.620	0.290
2020/01/31 09:10:26.0	315.760	0.030	-0.620	0.280
2020/01/31 09:10:26.1	315.780	0.030	-0.610	0.260
2020/01/31 09:10:26.2	315.800	0.020	-0.590	0.250
2020/01/31 09:10:26.3	315.820	0.010	-0.580	0.240
2020/01/31 09:10:26.4	315.830	0.000	-0.560	0.230
2020/01/31 09:10:26.5	315.850	-0.000	-0.540	0.220
2020/01/31 09:10:26.6	315.860	-0.010	-0.510	0.220
2020/01/31 09:10:26.7	315.870	-0.020	-0.480	0.220
2020/01/31 09:10:26.8	315.870	-0.020	-0.460	0.220
2020/01/31 09:10:26.9	315.870	-0.030	-0.430	0.230
2020/01/31 09:10:27.0	315.870	-0.030	-0.390	0.240
2020/01/31 09:10:27.1	315.870	-0.040	-0.360	0.250
2020/01/31 09:10:27.2	315.870	-0.040	-0.330	0.270
2020/01/31 09:10:27.3	315.860	-0.050	-0.290	0.290
2020/01/31 09:10:27.4	315.860	-0.050	-0.260	0.320
2020/01/31 09:10:27.5	315.850	-0.050	-0.230	0.340
2020/01/31 09:10:27.6	315.840	-0.050	-0.200	0.370
2020/01/31 09:10:27.7	315.820	-0.050	-0.170	0.400
2020/01/31 09:10:27.8	315.810	-0.050	-0.140	0.430
2020/01/31 09:10:27.9	315.790	-0.050	-0.110	0.460
2020/01/31 09:10:28.0	315.770	-0.040	-0.090	0.490
2020/01/31 09:10:28.1	315.750	-0.040	-0.070	0.520
2020/01/31 09:10:28.2	315.730	-0.030	-0.050	0.560
2020/01/31 09:10:28.3	315.710	-0.020	-0.030	0.590
2020/01/31 09:10:28.4	315.700	-0.010	-0.030	0.630
2020/01/31 09:10:28.5	315.680	0.000	-0.020	0.660
2020/01/31 09:10:28.6	315.660	0.010	-0.020	0.690
2020/01/31 09:10:28.7	315.640	0.030	-0.020	0.720
2020/01/31 09:10:28.8	315.620	0.040	-0.030	0.750
2020/01/31 09:10:28.9	315.600	0.060	-0.040	0.780
2020/01/31 09:10:29.0	315.590	0.070	-0.060	0.800
2020/01/31 09:10:29.1	315.570	0.090	-0.080	0.820
2020/01/31 09:10:29.2	315.560	0.110	-0.100	0.840
2020/01/31 09:10:29.3	315.540	0.120	-0.130	0.860
2020/01/31 09:10:29.4	315.540	0.140	-0.160	0.880
2020/01/31 09:10:29.5	315.520	0.160	-0.190	0.890
2020/01/31 09:10:29.6	315.510	0.180	-0.220	0.900
2020/01/31 09:10:29.7	315.500	0.190	-0.260	0.910
2020/01/31 09:10:29.8	315.500	0.210	-0.290	0.910
2020/01/31 09:10:29.9	315.490	0.220	-0.330	0.920
2020/01/31 09:10:30.0	315.480	0.240	-0.370	0.920
2020/01/31 09:10:30.1	315.480	0.250	-0.400	0.910
2020/01/31 09:10:30.2	315.480	0.260	-0.440	0.910
2020/01/31 09:10:30.3	315.470	0.270	-0.470	0.900
2020/01/31 09:10:30.4	315.470	0.270	-0.500	0.890
2020/01/31 09:10:30.5	315.470	0.280	-0.530	0.870
2020/01/31 09:10:30.6	315.470	0.280	-0.560	0.860
2020/01/31 09:10:30.7	315.470	0.280	-0.580	0.840
2020/01/31 09:10:30.8	315.470	0.280	-0.600	0.820
2020/01/31 09:10:30.9	315.470	0.270	-0.620	0.800
2020/01/31 09:10:31.0	315.480	0.260	-0.630	0.780
2020/01/31 09:10:31.1	315.480	0.250	-0.640	0.750
2020/01/31 09:10:31.2	315.480	0.240	-0.650	0.730
2020/01/31 09:10:31.3	315.480	0.230	-0.650	0.700
2020/01/31 09:10:31.4	315.480	0.210	-0.650	0.680
2020/01/31 09:10:31.5	315.490	0.190	-0.640	0.650
2020/01/31 09:10:31.6	315.490	0.170	-0.630	0.630
2020/01/31 09:10:31.7	315.490	0.150	-0.620	0.600
2020/01/31 09:10:31.8	315.490	0.130	-0.600	0.580
2020/01/31 09:10:31.9	315.490	0.100	-0.580	0.550
2020/01/31 09:10:32.0	315.490	0.070	-0.550	0.530
2020/01/31 09:10:32.1	315.490	0.050	-0.520	0.500
2020/01/31 09:10:32.2	315.480	0.020	-0.490	0.480
2020/01/31 09:10:32.3	315.480	-0.010	-0.460	0.460
2020/01/31 09:10:32.4	315.480	-0.040	-0.420	0.440
2020/01/31 09:10:32.5	315.480	-0.070	-0.390	0.420
2020/01/31 09:10:32.6	315.470	-0.090	-0.350	0.400
2020/01/31 09:10:32.7	315.470	-0.120	-0.310	0.390
2020/01/31 09:10:32.8	315.470	-0.150	-0.270	0.370
2020/01/31 09:10:32.9	315.470	-0.170	-0.220	0.360
2020/01/31 09:10:33.0	315.470	-0.200	-0.180	0.350
2020/01/31 09:10:33.1	315.460	-0.220	-0.140	0.330
2020/01/31 09:10:33.2	315.460	-0.240	-0.100	0.330
2020/01/31 09:10:33.3	315.460	-0.260	-0.060	0.320
2020/01/31 09:10:33.4	315.450	-0.280	-0.020	0.310
2020/01/31 09:10:33.5	315.450	-0.290	0.020	0.300
2020/01/31 09:10:33.6	315.440	-0.300	0.060	0.300
2020/01/31 09:10:33.7	315.440	-0.320	0.100	0.300
2020/01/31 09:10:33.8	315.440	-0.330	0.130	0.300
2020/01/31 09:10:33.9	315.440	-0.330	0.160	0.300
2020/01/31 09:10:34.0	315.440	-0.340	0.190	0.300
2020/01/31 09:10:34.1	315.440	-0.340	0.220	0.300
2020/01/31 09:10:34.2	315.440	-0.340	0.240	0.300
2020/01/31 09:10:34.3	315.440	-0.340	0.260	0.310
2020/01/31 09:10:34.4	315.440	-0.340	0.270	0.310
2020/01/31 09:10:34.5	315.440	-0.340	0.280	0.320
2020/01/31 09:10:34.6	315.440	-0.340	0.290	0.330
2020/01/31 09:10:34.7	315.440	-0.330	0.300	0.340
2020/01/31 09:10:34.8	315.430	-0.330	0.310	0.350
2020/01/31 09:10:34.9	315.430	-0.320	0.310	0.360
2020/01/31 09:10:35.0	315.420	-0.310	0.300	0.370
2020/01/31 09:10:35.1	315.420	-0.310	0.300	0.380
2020/01/31 09:10:35.2	315.410	-0.300	0.290	0.390
2020/01/31 09:10:35.3	315.410	-0.290	0.280	0.400
2020/01/31 09:10:35.4	315.400	-0.280	0.270	0.410
2020/01/31 09:10:35.5	315.400	-0.270	0.250	0.420
2020/01/31 09:10:35.6	315.400	-0.260	0.230	0.420
2020/01/31 09:10:35.7	315.390	-0.260	0.210	0.430
2020/01/31 09:10:35.8	315.400	-0.250	0.190	0.430
2020/01/31 09:10:35.9	315.400	-0.240	0.160	0.440
2020/01/31 09:10:36.0	315.400	-0.230	0.140	0.440
2020/01/31 09:10:36.1	315.410	-0.220	0.110	0.440
2020/01/31 09:10:36.2	315.410	-0.220	0.080	0.430
2020/01/31 09:10:36.3	315.410	-0.210	0.040	0.430
2020/01/31 09:10:36.4	315.420	-0.200	0.010	0.420
2020/01/31 09:10:36.5	315.430	-0.190	-0.020	0.420
2020/01/31 09:10:36.6	315.450	-0.190	-0.060	0.410
2020/01/31 09:10:36.7	315.460	-0.180	-0.090	0.410
2020/01/31 09:10:36.8	315.470	-0.170	-0.120	0.400
2020/01/31 09:10:36.9	315.490	-0.160	-0.160	0.390
2020/01/31 09:10:37.0	315.500	-0.150	-0.190	0.380
2020/01/31 09:10:37.1	315.510	-0.150	-0.220	0.380
2020/01/31 09:10:37.2	315.530	-0.140	-0.250	0.370
2020/01/31 09:10:37.3	315.540	-0.130	-0.270	0.370
2020/01/31 09:10:37.4	315.550	-0.120	-0.290	0.370
2020/01/31 09:10:37.5	315.560	-0.110	-0.310	0.370
2020/01/31 09:10:37.6	315.570	-0.100	-0.330	0.370
2020/01/31 09:10:37.7	315.580	-0.090	-0.350	0.370
2020/01/31 09:10:37.8	315.590	-0.080	-0.360	0.370
2020/01/31 09:10:37.9	315.600	-0.060	-0.370	0.380
2020/01/31 09:10:38.0	315.600	-0.050	-0.380	0.390
2020/01/31 09:10:38.1	315.610	-0.040	-0.380	0.410
2020/01/31 09:10:38.2	315.610	-0.020	-0.390	0.430
2020/01/31 09:10:38.3	315.610	-0.010	-0.390	0.450
2020/01/31 09:10:38.4	315.620	0.010	-0.390	0.460
2020/01/31 09:10:38.5	315.620	0.030	-0.390	0.490
2020/01/31 09:10:38.6	315.620	0.040	-0.380	0.520
2020/01/31 09:10:38.7	315.620	0.060	-0.380	0.550
2020/01/31 09:10:38.8	315.620	0.080	-0.370	0.580
2020/01/31 09:10:38.9	315.620	0.100	-0.370	0.610
2020/01/31 09:10:39.0	315.610	0.130	-0.360	0.650
2020/01/31 09:10:39.1	315.610	0.150	-0.360	0.680
2020/01/31 09:10:39.2	315.610	0.170	-0.350	0.720
2020/01/31 09:10:39.3	315.610	0.190	-0.350	0.760
2020/01/31 09:10:39.4	315.600	0.220	-0.340	0.800
2020/01/31 09:10:39.5	315.600	0.240	-0.340	0.830
2020/01/31 09:10:39.6	315.600	0.260	-0.340	0.860
2020/01/31 09:10:39.7	315.590	0.290	-0.340	0.900
2020/01/31 09:10:39.8	315.590	0.310	-0.340	0.930
2020/01/31 09:10:39.9	315.580	0.330	-0.340	0.960
2020/01/31 09:10:40.0	315.580	0.360	-0.340	0.990
2020/01/31 09:10:40.1	315.570	0.380	-0.350	1.010
2020/01/31 09:10:40.2	315.560	0.400	-0.350	1.030
2020/01/31 09:10:40.3	315.560	0.420	-0.360	1.060
2020/01/31 09:10:40.4	315.550	0.440	-0.370	1.070
2020/01/31 09:10:40.5	315.540	0.460	-0.380	1.080
2020/01/31 09:10:40.6	315.530	0.480	-0.390	1.100
2020/01/31 09:10:40.7	315.530	0.490	-0.400	1.100
2020/01/31 09:10:40.8	315.520	0.500	-0.410	1.110
2020/01/31 09:10:40.9	315.520	0.510	-0.420	1.110
2020/01/31 09:10:41.0	315.510	0.520	-0.430	1.110
2020/01/31 09:10:41.1	315.510	0.530	-0.440	1.100
2020/01/31 09:10:41.2	315.500	0.530	-0.450	1.090
2020/01/31 09:10:41.3	315.500	0.530	-0.460	1.080
2020/01/31 09:10:41.4	315.490	0.530	-0.470	1.070
2020/01/31 09:10:41.5	315.490	0.520	-0.480	1.050
2020/01/31 09:10:41.6	315.490	0.510	-0.480	1.030
2020/01/31 09:10:41.7	315.490	0.500	-0.490	1.010
2020/01/31 09:10:41.8	315.480	0.490	-0.490	0.980
2020/01/31 09:10:41.9	315.480	0.480	-0.500	0.950
2020/01/31 09:10:42.0	315.480	0.460	-0.500	0.920
2020/01/31 09:10:42.1	315.470	0.440	-0.500	0.890
2020/01/31 09:10:42.2	315.470	0.410	-0.500	0.860
2020/01/31 09:10:42.3	315.470	0.390	-0.500	0.820
2020/01/31 09:10:42.4	315.470	0.360	-0.490	0.790
2020/01/31 09:10:42.5	315.470	0.330	-0.490	0.760
2020/01/31 09:10:42.6	315.460	0.300	-0.480	0.720
2020/01/31 09:10:42.7	315.450	0.260	-0.470	0.680
2020/01/31 09:10:42.8	315.440	0.230	-0.460	0.650
2020/01/31 09:10:42.9	315.440	0.190	-0.440	0.610
2020/01/31 09:10:43.0	315.430	0.150	-0.430	0.570
2020/01/31 09:10:43.1	315.420	0.120	-0.410	0.530
2020/01/31 09:10:43.2	315.420	0.080	-0.400	0.500
2020/01/31 09:10:43.3	315.410	0.040	-0.380	0.460
2020/01/31 09:10:43.4	315.410	-0.000	-0.360	0.420
2020/01/31 09:10:43.5	315.410	-0.040	-0.340	0.380
2020/01/31 09:10:43.6	315.400	-0.080	-0.330	0.340
2020/01/31 09:10:43.7	315.400	-0.120	-0.310	0.300
2020/01/31 09:10:43.8	315.410	-0.150	-0.290	0.260
2020/01/31 09:10:43.9	315.410	-0.190	-0.270	0.210
2020/01/31 09:10:44.0	315.420	-0.220	-0.260	0.170
2020/01/31 09:10:44.1	315.430	-0.250	-0.240	0.130
2020/01/31 09:10:44.2	315.440	-0.280	-0.230	0.090
2020/01/31 09:10:44.3	315.450	-0.310	-0.220	0.050
2020/01/31 09:10:44.4	315.440	-0.340	-0.200	0.010
2020/01/31 09:10:44.5	315.460	-0.360	-0.190	-0.030
2020/01/31 09:10:44.6	315.480	-0.380	-0.180	-0.070
2020/01/31 09:10:44.7	315.490	-0.400	-0.170	-0.100
2020/01/31 09:10:44.8	315.510	-0.420	-0.160	-0.140
2020/01/31 09:10:44.9	315.530	-0.430	-0.150	-0.170
2020/01/31 09:10:45.0	315.540	-0.440	-0.140	-0.190
2020/01/31 09:10:45.1	315.560	-0.450	-0.130	-0.220
2020/01/31 09:10:45.2	315.570	-0.460	-0.130	-0.240
2020/01/31 09:10:45.3	315.580	-0.470	-0.120	-0.250
2020/01/31 09:10:45.4	315.600	-0.470	-0.110	-0.260
2020/01/31 09:10:45.5	315.610	-0.470	-0.100	-0.270
2020/01/31 09:10:45.6	315.610	-0.470	-0.090	-0.280
2020/01/31 09:10:45.7	315.620	-0.470	-0.090	-0.280
2020/01/31 09:10:45.8	315.630	-0.460	-0.080	-0.270
2020/01/31 09:10:45.9	315.630	-0.460	-0.070	-0.270
2020/01/31 09:10:46.0	315.640	-0.450	-0.060	-0.260
2020/01/31 09:10:46.1	315.640	-0.440	-0.050	-0.250
2020/01/31 09:10:46.2	315.640	-0.430	-0.050	-0.230
2020/01/31 09:10:46.3	315.650	-0.420	-0.040	-0.210
2020/01/31 09:10:46.4	315.650	-0.400	-0.030	-0.200
2020/01/31 09:10:46.5	315.650	-0.390	-0.030	-0.180
2020/01/31 09:10:46.6	315.660	-0.370	-0.030	-0.160
2020/01/31 09:10:46.7	315.660	-0.360	-0.030	-0.140
2020/01/31 09:10:46.8	315.660	-0.340	-0.030	-0.120
2020/01/31 09:10:46.9	315.670	-0.320	-0.030	-0.100
2020/01/31 09:10:47.0	315.670	-0.300	-0.030	-0.090
2020/01/31 09:10:47.1	315.680	-0.280	-0.040	-0.070
2020/01/31 09:10:47.2	315.680	-0.260	-0.040	-0.040
2020/01/31 09:10:47.3	315.690	-0.250	-0.050	-0.020
2020/01/31 09:10:47.4	315.700	-0.230	-0.060	-0.000
2020/01/31 09:10:47.5	315.710	-0.210	-0.070	0.020
2020/01/31 09:10:47.6	315.710	-0.190	-0.080	0.040
2020/01/31 09:10:47.7	315.720	-0.170	-0.090	0.070
2020/01/31 09:10:47.8	315.720	-0.150	-0.100	0.090
2020/01/31 09:10:47.9	315.730	-0.140	-0.110	0.120
2020/01/31 09:10:48.0	315.730	-0.120	-0.120	0.140
2020/01/31 09:10:48.1	315.730	-0.110	-0.130	0.170
2020/01/31 09:10:48.2	315.730	-0.090	-0.140	0.190
2020/01/31 09:10:48.3	315.730	-0.080	-0.150	0.220
2020/01/31 09:10:48.4	315.730	-0.070	-0.160	0.250
2020/01/31 09:10:48.5	315.730	-0.060	-0.170	0.280
2020/01/31 09:10:48.6	315.730	-0.040	-0.180	0.310
2020/01/31 09:10:48.7	315.720	-0.030	-0.190	0.330
2020/01/31 09:10:48.8	315.720	-0.030	-0.200	0.360
2020/01/31 09:10:48.9	315.720	-0.020	-0.200	0.390
2020/01/31 09:10:49.0	315.720	-0.010	-0.210	0.420
2020/01/31 09:10:49.1	315.720	-0.000	-0.210	0.450
2020/01/31 09:10:49.2	315.720	0.000	-0.210	0.480
2020/01/31 09:10:49.3	315.720	0.010	-0.210	0.500
2020/01/31 09:10:49.4	315.710	0.010	-0.220	0.530
2020/01/31 09:10:49.5	315.710	0.010	-0.220	0.550
2020/01/31 09:10:49.6	315.710	0.020	-0.220	0.580
2020/01/31 09:10:49.7	315.710	0.020	-0.210	0.600
2020/01/31 09:10:49.8	315.710	0.020	-0.210	0.620
2020/01/31 09:10:49.9	315.710	0.020	-0.210	0.640
2020/01/31 09:10:50.0	315.710	0.020	-0.200	0.660
2020/01/31 09:10:50.1	315.700	0.020	-0.190	0.680
2020/01/31 09:10:50.2	315.700	0.020	-0.190	0.700
2020/01/31 09:10:50.3	315.700	0.020	-0.180	0.720
2020/01/31 09:10:50.4	315.690	0.020	-0.170	0.740
2020/01/31 09:10:50.5	315.690	0.020	-0.160	0.760
2020/01/31 09:10:50.6	315.680	0.020	-0.150	0.770
2020/01/31 09:10:50.7	315.680	0.020	-0.140	0.790
2020/01/31 09:10:50.8	315.670	0.020	-0.130	0.800
2020/01/31 09:10:50.9	315.660	0.020	-0.120	0.820
2020/01/31 09:10:51.0	315.650	0.020	-0.110	0.830
2020/01/31 09:10:51.1	315.630	0.020	-0.100	0.850
2020/01/31 09:10:51.2	315.620	0.020	-0.090	0.860
2020/01/31 09:10:51.3	315.610	0.020	-0.080	0.870
2020/01/31 09:10:51.4	315.590	0.010	-0.080	0.880
2020/01/31 09:10:51.5	315.570	0.010	-0.070	0.890
2020/01/31 09:10:51.6	315.560	0.010	-0.070	0.900
2020/01/31 09:10:51.7	315.540	0.010	-0.070	0.900
2020/01/31 09:10:51.8	315.530	0.010	-0.070	0.910
2020/01/31 09:10:51.9	315.510	0.010	-0.070	0.910
2020/01/31 09:10:52.0	315.500	0.020	-0.070	0.900
2020/01/31 09:10:52.1	315.480	0.020	-0.080	0.900
2020/01/31 09:10:52.2	315.470	0.020	-0.090	0.890
2020/01/31 09:10:52.3	315.450	0.020	-0.100	0.880
2020/01/31 09:10:52.4	315.440	0.030	-0.120	0.860
2020/01/31 09:10:52.5	315.430	0.030	-0.130	0.840
2020/01/31 09:10:52.6	315.420	0.040	-0.150	0.820
2020/01/31 09:10:52.7	315.410	0.050	-0.170	0.800
2020/01/31 09:10:52.8	315.410	0.050	-0.190	0.780
2020/01/31 09:10:52.9	315.400	0.060	-0.210	0.750
2020/01/31 09:10:53.0	315.400	0.070	-0.240	0.720
2020/01/31 09:10:53.1	315.390	0.080	-0.260	0.700
2020/01/31 09:10:53.2	315.390	0.090	-0.290	0.670
2020/01/31 09:10:53.3	315.390	0.100	-0.310	0.640
2020/01/31 09:10:53.4	315.390	0.110	-0.340	0.600
2020/01/31 09:10:53.5	315.390	0.120	-0.370	0.570
2020/01/31 09:10:53.6	315.390	0.130	-0.390	0.540
2020/01/31 09:10:53.7	315.390	0.140	-0.410	0.510
2020/01/31 09:10:53.8	315.390	0.150	-0.440	0.470
2020/01/31 09:10:53.9	315.400	0.160	-0.460	0.440
2020/01/31 09:10:54.0	315.400	0.170	-0.480	0.410
2020/01/31 09:10:54.1	315.410	0.170	-0.490	0.380
2020/01/31 09:10:54.2	315.410	0.180	-0.510	0.350
2020/01/31 09:10:54.3	315.420	0.190	-0.520	0.320
2020/01/31 09:10:54.4	315.420	0.200	-0.530	0.290
2020/01/31 09:10:54.5	315.430	0.200	-0.530	0.260
2020/01/31 09:10:54.6	315.440	0.210	-0.540	0.240
2020/01/31 09:10:54.7	315.450	0.210	-0.540	0.210
2020/01/31 09:10:54.8	315.460	0.210	-0.540	0.190
2020/01/31 09:10:54.9	315.470	0.220	-0.530	0.180
2020/01/31 09:10:55.0	315.480	0.220	-0.520	0.160
2020/01/31 09:10:55.1	315.490	0.220	-0.510	0.150
2020/01/31 09:10:55.2	315.510	0.220	-0.490	0.130
2020/01/31 09:10:55.3	315.520	0.220	-0.480	0.120
2020/01/31 09:10:55.4	315.540	0.220	-0.460	0.120
2020/01/31 09:10:55.5	315.550	0.220	-0.430	0.120
2020/01/31 09:10:55.6	315.560	0.210	-0.410	0.110
2020/01/31 09:10:55.7	315.580	0.210	-0.380	0.110
2020/01/31 09:10:55.8	315.590	0.210	-0.350	0.110
2020/01/31 09:10:55.9	315.610	0.200	-0.320	0.120
2020/01/31 09:10:56.0	315.620	0.200	-0.300	0.120
2020/01/31 09:10:56.1	315.640	0.190	-0.270	0.130
2020/01/31 09:10:56.2	315.650	0.190	-0.240	0.140
2020/01/31 09:10:56.3	315.660	0.180	-0.210	0.150
2020/01/31 09:10:56.4	315.690	0.170	-0.190	0.160
2020/01/31 09:10:56.5	315.710	0.170	-0.160	0.180
2020/01/31 09:10:56.6	315.720	0.160	-0.130	0.190
2020/01/31 09:10:56.7	315.740	0.150	-0.110	0.210
2020/01/31 09:10:56.8	315.750	0.150	-0.090	0.230
2020/01/31 09:10:56.9	315.760	0.140	-0.070	0.250
2020/01/31 09:10:57.0	315.770	0.130	-0.060	0.270
2020/01/31 09:10:57.1	315.780	0.120	-0.040	0.300
2020/01/31 09:10:57.2	315.790	0.120	-0.030	0.320
2020/01/31 09:10:57.3	315.800	0.110	-0.020	0.340
2020/01/31 09:10:57.4	315.820	0.100	-0.020	0.370
2020/01/31 09:10:57.5	315.830	0.100	-0.020	0.400
2020/01/31 09:10:57.6	315.840	0.090	-0.020	0.430
2020/01/31 09:10:57.7	315.840	0.080	-0.020	0.450
2020/01/31 09:10:57.8	315.850	0.070	-0.030	0.480
2020/01/31 09:10:57.9	315.860	0.070	-0.040	0.500
2020/01/31 09:10:58.0	315.860	0.060	-0.050	0.530
2020/01/31 09:10:58.1	315.860	0.050	-0.060	0.550
2020/01/31 09:10:58.2	315.870	0.050	-0.070	0.570
2020/01/31 09:10:58.3	315.870	0.040	-0.090	0.590
2020/01/31 09:10:58.4	315.870	0.030	-0.100	0.610
2020/01/31 09:10:58.5	315.870	0.030	-0.120	0.630
2020/01/31 09:10:58.6	315.880	0.020	-0.140	0.640
2020/01/31 09:10:58.7	315.880	0.010	-0.160	0.660
2020/01/31 09:10:58.8	315.880	0.010	-0.180	0.670
2020/01/31 09:10:58.9	315.880	0.000	-0.200	0.680
2020/01/31 09:10:59.0	315.880	-0.010	-0.220	0.690
2020/01/31 09:10:59.1	315.870	-0.010	-0.240	0.690
2020/01/31 09:10:59.2	315.870	-0.020	-0.250	0.700
2020/01/31 09:10:59.3	315.870	-0.020	-0.270	0.700
2020/01/31 09:10:59.4	315.870	-0.030	-0.290	0.700
2020/01/31 09:10:59.5	315.860	-0.030	-0.300	0.700
2020/01/31 09:10:59.6	315.850	-0.040	-0.320	0.700
2020/01/31 09:10:59.7	315.840	-0.040	-0.330	0.690
2020/01/31 09:10:59.8	315.830	-0.050	-0.330	0.690
2020/01/31 09:10:59.9	315.820	-0.050	-0.340	0.680
2020/01/31 09:11:00.0	315.810	-0.050	-0.350	0.670
2020/01/31 09:11:00.1	315.790	-0.060	-0.350	0.660
2020/01/31 09:11:00.2	315.780	-0.060	-0.350	0.650
2020/01/31 09:11:00.3	315.760	-0.060	-0.350	0.640
2020/01/31 09:11:00.4	315.740	-0.060	-0.350	0.630
2020/01/31 09:11:00.5	315.730	-0.070	-0.340	0.610
2020/01/31 09:11:00.6	315.710	-0.070	-0.340	0.600
2020/01/31 09:11:00.7	315.690	-0.070	-0.340	0.580
2020/01/31 09:11:00.8	315.680	-0.070	-0.330	0.560
2020/01/31 09:11:00.9	315.660	-0.070	-0.330	0.540
2020/01/31 09:11:01.0	315.650	-0.080	-0.320	0.510
2020/01/31 09:11:01.1	315.630	-0.080	-0.320	0.490
2020/01/31 09:11:01.2	315.620	-0.080	-0.310	0.460
2020/01/31 09:11:01.3	315.610	-0.080	-0.310	0.440
2020/01/31 09:11:01.4	315.590	-0.080	-0.310	0.410
2020/01/31 09:11:01.5	315.580	-0.080	-0.300	0.380
2020/01/31 09:11:01.6	315.570	-0.080	-0.300	0.350
2020/01/31 09:11:01.7	315.560	-0.080	-0.300	0.320
2020/01/31 09:11:01.8	315.560	-0.080	-0.290	0.290
2020/01/31 09:11:01.9	315.550	-0.080	-0.290	0.260
2020/01/31 09:11:02.0	315.540	-0.080	-0.290	0.230
2020/01/31 09:11:02.1	315.530	-0.080	-0.280	0.210
2020/01/31 09:11:02.2	315.520	-0.080	-0.280	0.180
2020/01/31 09:11:02.3	315.510	-0.080	-0.280	0.160
2020/01/31 09:11:02.4	315.500	-0.080	-0.270	0.140
2020/01/31 09:11:02.5	315.490	-0.080	-0.270	0.120
2020/01/31 09:11:02.6	315.480	-0.090	-0.260	0.100
2020/01/31 09:11:02.7	315.470	-0.090	-0.250	0.080
2020/01/31 09:11:02.8	315.460	-0.090	-0.250	0.070
2020/01/31 09:11:02.9	315.450	-0.100	-0.240	0.060
2020/01/31 09:11:03.0	315.440	-0.100	-0.230	0.040
2020/01/31 09:11:03.1	315.430	-0.100	-0.220	0.040
2020/01/31 09:11:03.2	315.420	-0.110	-0.210	0.030
2020/01/31 09:11:03.3	315.410	-0.120	-0.210	0.020
2020/01/31 09:11:03.4	315.400	-0.120	-0.200	0.020
2020/01/31 09:11:03.5	315.400	-0.130	-0.190	0.010
2020/01/31 09:11:03.6	315.390	-0.140	-0.180	0.010
2020/01/31 09:11:03.7	315.380	-0.140	-0.170	0.020
2020/01/31 09:11:03.8	315.380	-0.150	-0.160	0.020
2020/01/31 09:11:03.9	315.370	-0.160	-0.150	0.020
2020/01/31 09:11:04.0	315.370	-0.170	-0.150	0.030
2020/01/31 09:11:04.1	315.370	-0.180	-0.140	0.040
2020/01/31 09:11:04.2	315.370	-0.190	-0.130	0.050
2020/01/31 09:11:04.3	315.360	-0.200	-0.120	0.060
2020/01/31 09:11:04.4	315.370	-0.200	-0.120	0.070
2020/01/31 09:11:04.5	315.370	-0.210	-0.110	0.090
2020/01/31 09:11:04.6	315.370	-0.220	-0.100	0.100
2020/01/31 09:11:04.7	315.380	-0.230	-0.100	0.120
2020/01/31 09:11:04.8	315.380	-0.240	-0.090	0.140
2020/01/31 09:11:04.9	315.380	-0.250	-0.090	0.160
2020/01/31 09:11:05.0	315.380	-0.260	-0.080	0.180
2020/01/31 09:11:05.1	315.390	-0.270	-0.070	0.200
2020/01/31 09:11:05.2	315.390	-0.280	-0.060	0.220
2020/01/31 09:11:05.3	315.400	-0.280	-0.060	0.240
2020/01/31 09:11:05.4	315.400	-0.290	-0.050	0.260
2020/01/31 09:11:05.5	315.410	-0.300	-0.050	0.280
2020/01/31 09:11:05.6	315.420	-0.300	-0.040	0.300
2020/01/31 09:11:05.7	315.430	-0.310	-0.040	0.320
2020/01/31 09:11:05.8	315.440	-0.310	-0.030	0.350
2020/01/31 09:11:05.9	315.450	-0.320	-0.030	0.370
2020/01/31 09:11:06.0	315.460	-0.320	-0.030	0.390
2020/01/31 09:11:06.1	315.470	-0.320	-0.030	0.400
2020/01/31 09:11:06.2	315.490	-0.320	-0.040	0.420
2020/01/31 09:11:06.3	315.500	-0.320	-0.040	0.440
2020/01/31 09:11:06.4	315.530	-0.320	-0.050	0.460
2020/01/31 09:11:06.5	315.540	-0.310	-0.060	0.470
2020/01/31 09:11:06.6	315.560	-0.300	-0.070	0.490
2020/01/31 09:11:06.7	315.580	-0.300	-0.080	0.500
2020/01/31 09:11:06.8	315.590	-0.290	-0.100	0.510
2020/01/31 09:11:06.9	315.610	-0.280	-0.120	0.520
2020/01/31 09:11:07.0	315.620	-0.260	-0.140	0.530
2020/01/31 09:11:07.1	315.640	-0.250	-0.160	0.540
2020/01/31 09:11:07.2	315.660	-0.230	-0.180	0.550
2020/01/31 09:11:07.3	315.670	-0.210	-0.210	0.550
2020/01/31 09:11:07.4	315.680	-0.190	-0.240	0.550
2020/01/31 09:11:07.5	315.690	-0.170	-0.270	0.560
2020/01/31 09:11:07.6	315.710	-0.150	-0.290	0.560
2020/01/31 09:11:07.7	315.720	-0.130	-0.320	0.560
2020/01/31 09:11:07.8	315.740	-0.100	-0.350	0.550
2020/01/31 09:11:07.9	315.750	-0.070	-0.380	0.550
2020/01/31 09:11:08.0	315.760	-0.050	-0.410	0.540
2020/01/31 09:11:08.1	315.780	-0.020	-0.440	0.530
2020/01/31 09:11:08.2	315.790	0.010	-0.470	0.520
2020/01/31 09:11:08.3	315.800	0.040	-0.500	0.510
2020/01/31 09:11:08.4	315.810	0.080	-0.520	0.500
2020/01/31 09:11:08.5	315.820	0.110	-0.540	0.490
2020/01/31 09:11:08.6	315.840	0.140	-0.570	0.470
2020/01/31 09:11:08.7	315.850	0.170	-0.590	0.460
2020/01/31 09:11:08.8	315.860	0.200	-0.610	0.450
2020/01/31 09:11:08.9	315.870	0.230	-0.620	0.440
2020/01/31 09:11:09.0	315.880	0.260	-0.630	0.420
2020/01/31 09:11:09.1	315.890	0.290	-0.640	0.410
2020/01/31 09:11:09.2	315.900	0.320	-0.650	0.410
2020/01/31 09:11:09.3	315.910	0.350	-0.650	0.400
2020/01/31 09:11:09.4	315.920	0.380	-0.650	0.390
2020/01/31 09:11:09.5	315.920	0.410	-0.650	0.390
2020/01/31 09:11:09.6	315.930	0.430	-0.640	0.390
2020/01/31 09:11:09.7	315.940	0.450	-0.620	0.380
2020/01/31 09:11:09.8	315.940	0.480	-0.610	0.390
2020/01/31 09:11:09.9	315.950	0.500	-0.590	0.390
2020/01/31 09:11:10.0	315.960	0.520	-0.570	0.390
2020/01/31 09:11:10.1	315.960	0.530	-0.540	0.400
2020/01/31 09:11:10.2	315.970	0.550	-0.510	0.400
2020/01/31 09:11:10.3	315.970	0.560	-0.480	0.410
2020/01/31 09:11:10.4	315.980	0.570	-0.450	0.420
2020/01/31 09:11:10.5	315.980	0.570	-0.410	0.430
2020/01/31 09:11:10.6	315.980	0.580	-0.370	0.450
2020/01/31 09:11:10.7	315.970	0.580	-0.330	0.460
2020/01/31 09:11:10.8	315.970	0.580	-0.290	0.480
2020/01/31 09:11:10.9	315.960	0.570	-0.240	0.490
2020/01/31 09:11:11.0	315.950	0.570	-0.200	0.510
2020/01/31 09:11:11.1	315.950	0.560	-0.150	0.530
2020/01/31 09:11:11.2	315.930	0.550	-0.110	0.550
2020/01/31 09:11:11.3	315.920	0.530	-0.060	0.570
2020/01/31 09:11:11.4	315.920	0.520	-0.020	0.590
2020/01/31 09:11:11.5	315.910	0.500	0.030	0.610
2020/01/31 09:11:11.6	315.890	0.480	0.070	0.630
2020/01/31 09:11:11.7	315.870	0.450	0.110	0.650
2020/01/31 09:11:11.8	315.850	0.430	0.150	0.670
2020/01/31 09:11:11.9	315.830	0.400	0.190	0.690
2020/01/31 09:11:12.0	315.810	0.370	0.220	0.710
2020/01/31 09:11:12.1	315.790	0.340	0.260	0.720
2020/01/31 09:11:12.2	315.760	0.310	0.290	0.740
2020/01/31 09:11:12.3	315.740	0.280	0.310	0.750
2020/01/31 09:11:12.4	315.710	0.240	0.330	0.760
2020/01/31 09:11:12.5	315.690	0.210	0.350	0.770
2020/01/31 09:11:12.6	315.670	0.170	0.370	0.780
2020/01/31 09:11:12.7	315.650	0.140	0.380	0.780
2020/01/31 09:11:12.8	315.630	0.110	0.380	0.780
2020/01/31 09:11:12.9	315.610	0.070	0.380	0.780
2020/01/31 09:11:13.0	315.590	0.040	0.380	0.780
2020/01/31 09:11:13.1	315.570	0.010	0.380	0.780
2020/01/31 09:11:13.2	315.560	-0.020	0.360	0.770
2020/01/31 09:11:13.3	315.540	-0.050	0.350	0.760
2020/01/31 09:11:13.4	315.530	-0.080	0.330	0.750
2020/01/31 09:11:13.5	315.520	-0.100	0.310	0.740
2020/01/31 09:11:13.6	315.500	-0.130	0.280	0.730
2020/01/31 09:11:13.7	315.490	-0.150	0.250	0.710
2020/01/31 09:11:13.8	315.480	-0.170	0.220	0.700
2020/01/31 09:11:13.9	315.470	-0.190	0.190	0.680
2020/01/31 09:11:14.0	315.460	-0.200	0.150	0.660
2020/01/31 09:11:14.1	315.450	-0.210	0.110	0.640
2020/01/31 09:11:14.2	315.440	-0.220	0.060	0.620
2020/01/31 09:11:14.3	315.430	-0.230	0.020	0.600
2020/01/31 09:11:14.4	315.430	-0.240	-0.030	0.580
2020/01/31 09:11:14.5	315.430	-0.240	-0.080	0.560
2020/01/31 09:11:14.6	315.430	-0.240	-0.130	0.540
2020/01/31 09:11:14.7	315.430	-0.240	-0.180	0.510
2020/01/31 09:11:14.8	315.430	-0.240	-0.230	0.490
2020/01/31 09:11:14.9	315.440	-0.240	-0.270	0.460
2020/01/31 09:11:15.0	315.440	-0.230	-0.320	0.440
2020/01/31 09:11:15.1	315.450	-0.220	-0.370	0.410
2020/01/31 09:11:15.2	315.460	-0.210	-0.420	0.380
2020/01/31 09:11:15.3	315.480	-0.200	-0.470	0.350
2020/01/31 09:11:15.4	315.490	-0.190	-0.510	0.320
2020/01/31 09:11:15.5	315.510	-0.180	-0.550	0.290
2020/01/31 09:11:15.6	315.530	-0.170	-0.600	0.260
2020/01/31 09:11:15.7	315.550	-0.160	-0.630	0.230
2020/01/31 09:11:15.8	315.580	-0.150	-0.670	0.200
2020/01/31 09:11:15.9	315.600	-0.130	-0.700	0.180
2020/01/31 09:11:16.0	315.620	-0.120	-0.730	0.150
2020/01/31 09:11:16.1	315.650	-0.110	-0.760	0.120
2020/01/31 09:11:16.2	315.670	-0.100	-0.780	0.090
2020/01/31 09:11:16.3	315.700	-0.090	-0.790	0.070
2020/01/31 09:11:16.4	315.710	-0.090	-0.810	0.040
2020/01/31 09:11:16.5	315.730	-0.080	-0.820	0.020
2020/01/31 09:11:16.6	315.750	-0.080	-0.820	0.000
2020/01/31 09:11:16.7	315.770	-0.070	-0.820	-0.020
2020/01/31 09:11:16.8	315.790	-0.070	-0.820	-0.030
2020/01/31 09:11:16.9	315.800	-0.070	-0.820	-0.040
2020/01/31 09:11:17.0	315.820	-0.070	-0.810	-0.060
2020/01/31 09:11:17.1	315.830	-0.070	-0.800	-0.070
2020/01/31 09:11:17.2	315.840	-0.080	-0.780	-0.080
2020/01/31 09:11:17.3	315.850	-0.080	-0.760	-0.080
2020/01/31 09:11:17.4	315.870	-0.090	-0.740	-0.090
2020/01/31 09:11:17.5	315.880	-0.090	-0.720	-0.090
2020/01/31 09:11:17.6	315.890	-0.100	-0.690	-0.100
2020/01/31 09:11:17.7	315.900	-0.110	-0.670	-0.100
2020/01/31 09:11:17.8	315.900	-0.120	-0.640	-0.110
2020/01/31 09:11:17.9	315.910	-0.130	-0.620	-0.110
2020/01/31 09:11:18.0	315.920	-0.140	-0.590	-0.120
2020/01/31 09:11:18.1	315.930	-0.150	-0.560	-0.120
2020/01/31 09:11:18.2	315.940	-0.160	-0.540	-0.120
2020/01/31 09:11:18.3	315.950	-0.170	-0.510	-0.120
2020/01/31 09:11:18.4	315.970	-0.180	-0.490	-0.130
2020/01/31 09:11:18.5	315.990	-0.190	-0.460	-0.130
2020/01/31 09:11:18.6	316.000	-0.200	-0.440	-0.130
2020/01/31 09:11:18.7	316.010	-0.210	-0.410	-0.130
2020/01/31 09:11:18.8	316.030	-0.220	-0.390	-0.140
2020/01/31 09:11:18.9	316.040	-0.230	-0.370	-0.140
2020/01/31 09:11:19.0	316.050	-0.240	-0.350	-0.140
2020/01/31 09:11:19.1	316.070	-0.250	-0.330	-0.130
2020/01/31 09:11:19.2	316.080	-0.260	-0.310	-0.130
2020/01/31 09:11:19.3	316.100	-0.260	-0.290	-0.130
2020/01/31 09:11:19.4	316.110	-0.270	-0.280	-0.120
2020/01/31 09:11:19.5	316.130	-0.280	-0.260	-0.110
2020/01/31 09:11:19.6	316.140	-0.280	-0.240	-0.100
2020/01/31 09:11:19.7	316.160	-0.280	-0.220	-0.090
2020/01/31 09:11:19.8	316.170	-0.290	-0.210	-0.080
2020/01/31 09:11:19.9	316.180	-0.290	-0.190	-0.060
2020/01/31 09:11:20.0	316.200	-0.290	-0.170	-0.050
2020/01/31 09:11:20.1	316.210	-0.290	-0.150	-0.030
2020/01/31 09:11:20.2	316.220	-0.290	-0.120	-0.010
2020/01/31 09:11:20.3	316.220	-0.290	-0.100	0.020
2020/01/31 09:11:20.4	316.230	-0.280	-0.080	0.050
2020/01/31 09:11:20.5	316.230	-0.280	-0.050	0.080
2020/01/31 09:11:20.6	316.240	-0.270	-0.030	0.110
2020/01/31 09:11:20.7	316.240	-0.260	0.000	0.150
2020/01/31 09:11:20.8	316.240	-0.260	0.030	0.180
2020/01/31 09:11:20.9	316.240	-0.250	0.060	0.220
2020/01/31 09:11:21.0	316.240	-0.240	0.090	0.260
2020/01/31 09:11:21.1	316.240	-0.230	0.120	0.300
2020/01/31 09:11:21.2	316.230	-0.210	0.150	0.340
2020/01/31 09:11:21.3	316.220	-0.200	0.180	0.380
2020/01/31 09:11:21.4	316.210	-0.180	0.200	0.430
2020/01/31 09:11:21.5	316.200	-0.170	0.230	0.470
2020/01/31 09:11:21.6	316.190	-0.150	0.260	0.520
2020/01/31 09:11:21.7	316.180	-0.130	0.280	0.560
2020/01/31 09:11:21.8	316.160	-0.110	0.300	0.610
2020/01/31 09:11:21.9	316.150	-0.090	0.320	0.660
2020/01/31 09:11:22.0	316.130	-0.070	0.340	0.700
2020/01/31 09:11:22.1	316.110	-0.040	0.350	0.740
2020/01/31 09:11:22.2	316.100	-0.020	0.360	0.790
2020/01/31 09:11:22.3	316.080	0.010	0.370	0.830
2020/01/31 09:11:22.4	316.070	0.030	0.370	0.870
2020/01/31 09:11:22.5	316.050	0.060	0.370	0.910
2020/01/31 09:11:22.6	316.040	0.080	0.370	0.940
2020/01/31 09:11:22.7	316.020	0.110	0.360	0.980
2020/01/31 09:11:22.8	316.000	0.140	0.350	1.010
2020/01/31 09:11:22.9	315.980	0.160	0.330	1.030
2020/01/31 09:11:23.0	315.960	0.190	0.310	1.060
2020/01/31 09:11:23.1	315.950	0.220	0.290	1.080
2020/01/31 09:11:23.2	315.930	0.240	0.270	1.090
2020/01/31 09:11:23.3	315.910	0.270	0.240	1.110
2020/01/31 09:11:23.4	315.910	0.300	0.210	1.110
2020/01/31 09:11:23.5	315.890	0.320	0.170	1.120
2020/01/31 09:11:23.6	315.880	0.340	0.140	1.130
2020/01/31 09:11:23.7	315.870	0.370	0.100	1.130
2020/01/31 09:11:23.8	315.860	0.390	0.060	1.130
2020/01/31 09:11:23.9	315.850	0.410	0.010	1.120
2020/01/31 09:11:24.0	315.840	0.430	-0.030	1.110
2020/01/31 09:11:24.1	315.830	0.440	-0.080	1.100
2020/01/31 09:11:24.2	315.820	0.460	-0.120	1.090
2020/01/31 09:11:24.3	315.820	0.470	-0.170	1.080
2020/01/31 09:11:24.4	315.830	0.490	-0.220	1.060
2020/01/31 09:11:24.5	315.830	0.500	-0.270	1.040
2020/01/31 09:11:24.6	315.830	0.500	-0.320	1.020
2020/01/31 09:11:24.7	315.830	0.510	-0.370	0.990
2020/01/31 09:11:24.8	315.840	0.510	-0.410	0.970
2020/01/31 09:11:24.9	315.840	0.510	-0.460	0.940
2020/01/31 09:11:25.0	315.850	0.510	-0.500	0.910
2020/01/31 09:11:25.1	315.860	0.510	-0.550	0.870
2020/01/31 09:11:25.2	315.870	0.500	-0.590	0.840
2020/01/31 09:11:25.3	315.880	0.490	-0.630	0.800
2020/01/31 09:11:25.4	315.890	0.480	-0.660	0.760
2020/01/31 09:11:25.5	315.910	0.460	-0.690	0.710
2020/01/31 09:11:25.6	315.930	0.450	-0.720	0.670
2020/01/31 09:11:25.7	315.940	0.430	-0.750	0.630
2020/01/31 09:11:25.8	315.960	0.410	-0.780	0.590
2020/01/31 09:11:25.9	315.980	0.380	-0.800	0.540
2020/01/31 09:11:26.0	316.000	0.360	-0.820	0.500
2020/01/31 09:11:26.1	316.020	0.330	-0.830	0.460
2020/01/31 09:11:26.2	316.040	0.300	-0.840	0.410
2020/01/31 09:11:26.3	316.060	0.270	-0.840	0.370
2020/01/31 09:11:26.4	316.070	0.240	-0.850	0.330
2020/01/31 09:11:26.5	316.090	0.210	-0.850	0.300
2020/01/31 09:11:26.6	316.100	0.180	-0.840	0.260
2020/01/31 09:11:26.7	316.120	0.140	-0.820	0.230
2020/01/31 09:11:26.8	316.130	0.110	-0.800	0.200
2020/01/31 09:11:26.9	316.140	0.070	-0.780	0.170
2020/01/31 09:11:27.0	316.150	0.040	-0.750	0.150
2020/01/31 09:11:27.1	316.160	0.000	-0.720	0.120
2020/01/31 09:11:27.2	316.170	-0.030	-0.680	0.100
2020/01/31 09:11:27.3	316.170	-0.070	-0.640	0.090
2020/01/31 09:11:27.4	316.170	-0.100	-0.600	0.070
2020/01/31 09:11:27.5	316.170	-0.130	-0.550	0.060
2020/01/31 09:11:27.6	316.170	-0.160	-0.500	0.050
2020/01/31 09:11:27.7	316.170	-0.190	-0.450	0.040
2020/01/31 09:11:27.8	316.160	-0.220	-0.400	0.040
2020/01/31 09:11:27.9	316.150	-0.250	-0.350	0.040
2020/01/31 09:11:28.0	316.140	-0.270	-0.290	0.040
2020/01/31 09:11:28.1	316.130	-0.300	-0.240	0.040
2020/01/31 09:11:28.2	316.120	-0.320	-0.180	0.040
2020/01/31 09:11:28.3	316.110	-0.330	-0.130	0.040
2020/01/31 09:11:28.4	316.110	-0.350	-0.090	0.050
2020/01/31 09:11:28.5	316.100	-0.360	-0.040	0.050
2020/01/31 09:11:28.6	316.080	-0.370	0.010	0.060
2020/01/31 09:11:28.7	316.070	-0.380	0.060	0.070
2020/01/31 09:11:28.8	316.060	-0.380	0.100	0.080
2020/01/31 09:11:28.9	316.050	-0.390	0.140	0.090
2020/01/31 09:11:29.0	316.030	-0.390	0.170	0.100
2020/01/31 09:11:29.1	316.020	-0.380	0.200	0.110
2020/01/31 09:11:29.2	316.000	-0.370	0.230	0.120
2020/01/31 09:11:29.3	315.990	-0.370	0.250	0.140
2020/01/31 09:11:29.4	315.980	-0.350	0.270	0.150
2020/01/31 09:11:29.5	315.960	-0.340	0.290	0.170
2020/01/31 09:11:29.6	315.950	-0.320	0.300	0.190
2020/01/31 09:11:29.7	315.930	-0.310	0.300	0.200
2020/01/31 09:11:29.8	315.910	-0.290	0.300	0.220
2020/01/31 09:11:29.9	315.900	-0.260	0.300	0.240
2020/01/31 09:11:30.0	315.880	-0.240	0.290	0.260
2020/01/31 09:11:30.1	315.860	-0.220	0.270	0.280
2020/01/31 09:11:30.2	315.850	-0.190	0.260	0.300
2020/01/31 09:11:30.3	315.830	-0.160	0.230	0.330
2020/01/31 09:11:30.4	315.820	-0.140	0.210	0.350
2020/01/31 09:11:30.5	315.810	-0.110	0.180	0.370
2020/01/31 09:11:30.6	315.800	-0.080	0.140	0.390
2020/01/31 09:11:30.7	315.780	-0.050	0.110	0.410
2020/01/31 09:11:30.8	315.770	-0.030	0.060	0.430
2020/01/31 09:11:30.9	315.760	0.000	0.020	0.450
2020/01/31 09:11:31.0	315.750	0.030	-0.030	0.470
2020/01/31 09:11:31.1	315.750	0.060	-0.080	0.490
2020/01/31 09:11:31.2	315.740	0.080	-0.130	0.510
2020/01/31 09:11:31.3	315.740	0.110	-0.180	0.520
2020/01/31 09:11:31.4	315.730	0.130	-0.230	0.540
2020/01/31 09:11:31.5	315.730	0.150	-0.290	0.550
2020/01/31 09:11:31.6	315.730	0.170	-0.350	0.560
2020/01/31 09:11:31.7	315.730	0.190	-0.400	0.570
2020/01/31 09:11:31.8	315.730	0.200	-0.460	0.570
2020/01/31 09:11:31.9	315.740	0.220	-0.510	0.580
2020/01/31 09:11:32.0	315.740	0.230	-0.570	0.580
2020/01/31 09:11:32.1	315.750	0.240	-0.620	0.580
2020/01/31 09:11:32.2	315.760	0.250	-0.670	0.570
2020/01/31 09:11:32.3	315.770	0.260	-0.720	0.570
2020/01/31 09:11:32.4	315.770	0.260	-0.760	0.560
2020/01/31 09:11:32.5	315.780	0.270	-0.800	0.550
2020/01/31 09:11:32.6	315.800	0.270	-0.840	0.530
2020/01/31 09:11:32.7	315.810	0.270	-0.880	0.520
2020/01/31 09:11:32.8	315.830	0.260	-0.910	0.500
2020/01/31 09:11:32.9	315.850	0.260	-0.930	0.480
2020/01/31 09:11:33.0	315.860	0.250	-0.950	0.460
2020/01/31 09:11:33.1	315.880	0.240	-0.960	0.440
2020/01/31 09:11:33.2	315.900	0.230	-0.970	0.420
2020/01/31 09:11:33.3	315.920	0.210	-0.970	0.400
2020/01/31 09:11:33.4	315.940	0.200	-0.970	0.380
2020/01/31 09:11:33.5	315.960	0.180	-0.950	0.360
2020/01/31 09:11:33.6	315.970	0.160	-0.930	0.340
2020/01/31 09:11:33.7	315.990	0.140	-0.910	0.320
2020/01/31 09:11:33.8	316.000	0.110	-0.870	0.300
2020/01/31 09:11:33.9	316.020	0.090	-0.830	0.290
2020/01/31 09:11:34.0	316.030	0.060	-0.780	0.270
2020/01/31 09:11:34.1	316.030	0.030	-0.730	0.260
2020/01/31 09:11:34.2	316.040	0.000	-0.670	0.250
2020/01/31 09:11:34.3	316.050	-0.030	-0.600	0.240
2020/01/31 09:11:34.4	316.040	-0.060	-0.530	0.240
2020/01/31 09:11:34.5	316.040	-0.090	-0.460	0.230
2020/01/31 09:11:34.6	316.040	-0.120	-0.380	0.230
2020/01/31 09:11:34.7	316.040	-0.160	-0.300	0.230
2020/01/31 09:11:34.8	316.040	-0.190	-0.220	0.230
2020/01/31 09:11:34.9	316.040	-0.220	-0.130	0.230
2020/01/31 09:11:35.0	316.030	-0.250	-0.050	0.230
2020/01/31 09:11:35.1	316.030	-0.290	0.030	0.230
2020/01/31 09:11:35.2	316.020	-0.320	0.110	0.230
2020/01/31 09:11:35.3	316.020	-0.340	0.190	0.230
2020/01/31 09:11:35.4	316.010	-0.370	0.270	0.240
2020/01/31 09:11:35.5	316.010	-0.400	0.340	0.240
2020/01/31 09:11:35.6	316.000	-0.420	0.410	0.240
2020/01/31 09:11:35.7	316.000	-0.440	0.470	0.250
2020/01/31 09:11:35.8	315.990	-0.460	0.520	0.250
2020/01/31 09:11:35.9	315.980	-0.480	0.570	0.260
2020/01/31 09:11:36.0	315.970	-0.490	0.620	0.270
2020/01/31 09:11:36.1	315.960	-0.500	0.650	0.270
2020/01/31 09:11:36.2	315.960	-0.510	0.680	0.280
2020/01/31 09:11:36.3	315.950	-0.520	0.700	0.290
2020/01/31 09:11:36.4	315.940	-0.520	0.710	0.300
2020/01/31 09:11:36.5	315.930	-0.510	0.720	0.300
2020/01/31 09:11:36.6	315.920	-0.510	0.710	0.310
2020/01/31 09:11:36.7	315.910	-0.500	0.710	0.320
2020/01/31 09:11:36.8	315.900	-0.480	0.690	0.330
2020/01/31 09:11:36.9	315.890	-0.470	0.670	0.340
2020/01/31 09:11:37.0	315.870	-0.450	0.640	0.340
2020/01/31 09:11:37.1	315.860	-0.420	0.610	0.350
2020/01/31 09:11:37.2	315.850	-0.400	0.570	0.360
2020/01/31 09:11:37.3	315.840	-0.370	0.530	0.370
2020/01/31 09:11:37.4	315.830	-0.330	0.480	0.380
2020/01/31 09:11:37.5	315.820	-0.300	0.430	0.390
2020/01/31 09:11:37.6	315.820	-0.260	0.370	0.400
2020/01/31 09:11:37.7	315.810	-0.220	0.310	0.400
2020/01/31 09:11:37.8	315.800	-0.180	0.250	0.410
2020/01/31 09:11:37.9	315.790	-0.130	0.190	0.420
2020/01/31 09:11:38.0	315.790	-0.090	0.120	0.430
2020/01/31 09:11:38.1	315.780	-0.040	0.060	0.440
2020/01/31 09:11:38.2	315.780	0.000	-0.010	0.450
2020/01/31 09:11:38.3	315.780	0.050	-0.080	0.460
2020/01/31 09:11:38.4	315.780	0.100	-0.140	0.480
2020/01/31 09:11:38.5	315.780	0.140	-0.210	0.490
2020/01/31 09:11:38.6	315.790	0.190	-0.270	0.500
2020/01/31 09:11:38.7	315.790	0.230	-0.330	0.510
2020/01/31 09:11:38.8	315.800	0.270	-0.390	0.520
2020/01/31 09:11:38.9	315.800	0.310	-0.450	0.530
2020/01/31 09:11:39.0	315.810	0.350	-0.500	0.540
2020/01/31 09:11:39.1	315.820	0.390	-0.550	0.550
2020/01/31 09:11:39.2	315.830	0.420	-0.590	0.560
2020/01/31 09:11:39.3	315.840	0.450	-0.630	0.570
2020/01/31 09:11:39.4	315.850	0.480	-0.670	0.580
2020/01/31 09:11:39.5	315.860	0.500	-0.700	0.590
2020/01/31 09:11:39.6	315.880	0.530	-0.730	0.600
2020/01/31 09:11:39.7	315.890	0.540	-0.750	0.620
2020/01/31 09:11:39.8	315.900	0.560	-0.770	0.630
2020/01/31 09:11:39.9	315.910	0.570	-0.780	0.650
2020/01/31 09:11:40.0	315.930	0.580	-0.790	0.660
2020/01/31 09:11:40.1	315.940	0.580	-0.800	0.680
2020/01/31 09:11:40.2	315.950	0.580	-0.800	0.690
2020/01/31 09:11:40.3	315.960	0.580	-0.790	0.710
2020/01/31 09:11:40.4	315.960	0.580	-0.790	0.730
2020/01/31 09:11:40.5	315.970	0.570	-0.780	0.750
2020/01/31 09:11:40.6	315.980	0.560	-0.760	0.780
2020/01/31 09:11:40.7	315.980	0.550	-0.740	0.800
2020/01/31 09:11:40.8	315.980	0.530	-0.720	0.820
2020/01/31 09:11:40.9	315.990	0.510	-0.700	0.840
2020/01/31 09:11:41.0	315.990	0.490	-0.670	0.860
2020/01/31 09:11:41.1	315.980	0.470	-0.640	0.890
2020/01/31 09:11:41.2	315.980	0.450	-0.610	0.910
2020/01/31 09:11:41.3	315.970	0.430	-0.580	0.930
2020/01/31 09:11:41.4	315.960	0.410	-0.550	0.960
2020/01/31 09:11:41.5	315.950	0.380	-0.520	0.980
2020/01/31 09:11:41.6	315.940	0.360	-0.480	1.000
2020/01/31 09:11:41.7	315.920	0.330	-0.450	1.020
2020/01/31 09:11:41.8	315.910	0.310	-0.420	1.030
2020/01/31 09:11:41.9	315.890	0.290	-0.390	1.050
2020/01/31 09:11:42.0	315.880	0.260	-0.360	1.060
2020/01/31 09:11:42.1	315.860	0.240	-0.340	1.080
2020/01/31 09:11:42.2	315.850	0.220	-0.310	1.090
2020/01/31 09:11:42.3	315.830	0.190	-0.290	1.100
2020/01/31 09:11:42.4	315.810	0.170	-0.280	1.100
2020/01/31 09:11:42.5	315.800	0.150	-0.260	1.100
2020/01/31 09:11:42.6	315.780	0.130	-0.250	1.110
2020/01/31 09:11:42.7	315.770	0.120	-0.230	1.110
2020/01/31 09:11:42.8	315.750	0.100	-0.220	1.110
2020/01/31 09:11:42.9	315.740	0.080	-0.220	1.100
2020/01/31 09:11:43.0	315.720	0.070	-0.210	1.090
2020/01/31 09:11:43.1	315.710	0.050	-0.210	1.090
2020/01/31 09:11:43.2	315.700	0.040	-0.210	1.080
2020/01/31 09:11:43.3	315.680	0.020	-0.210	1.070
2020/01/31 09:11:43.4	315.670	0.010	-0.210	1.050
2020/01/31 09:11:43.5	315.660	-0.000	-0.220	1.040
2020/01/31 09:11:43.6	315.650	-0.010	-0.220	1.020
2020/01/31 09:11:43.7	315.640	-0.020	-0.230	1.010
2020/01/31 09:11:43.8	315.630	-0.040	-0.240	0.990
2020/01/31 09:11:43.9	315.620	-0.050	-0.250	0.970
2020/01/31 09:11:44.0	315.610	-0.060	-0.260	0.950
2020/01/31 09:11:44.1	315.610	-0.070	-0.270	0.920
2020/01/31 09:11:44.2	315.600	-0.080	-0.280	0.900
2020/01/31 09:11:44.3	315.600	-0.090	-0.290	0.870
2020/01/31 09:11:44.4	315.590	-0.100	-0.300	0.850
2020/01/31 09:11:44.5	315.590	-0.110	-0.310	0.820
2020/01/31 09:11:44.6	315.590	-0.120	-0.320	0.790
2020/01/31 09:11:44.7	315.600	-0.130	-0.330	0.760
2020/01/31 09:11:44.8	315.600	-0.140	-0.330	0.730
2020/01/31 09:11:44.9	315.610	-0.150	-0.340	0.700
2020/01/31 09:11:45.0	315.610	-0.150	-0.340	0.670
2020/01/31 09:11:45.1	315.620	-0.160	-0.340	0.640
2020/01/31 09:11:45.2	315.630	-0.170	-0.350	0.610
2020/01/31 09:11:45.3	315.640	-0.180	-0.340	0.580
2020/01/31 09:11:45.4	315.650	-0.190	-0.340	0.560
2020/01/31 09:11:45.5	315.670	-0.190	-0.340	0.530
2020/01/31 09:11:45.6	315.680	-0.200	-0.330	0.500
2020/01/31 09:11:45.7	315.700	-0.210	-0.330	0.470
2020/01/31 09:11:45.8	315.720	-0.220	-0.320	0.440
2020/01/31 09:11:45.9	315.740	-0.220	-0.310	0.410
2020/01/31 09:11:46.0	315.760	-0.230	-0.300	0.380
2020/01/31 09:11:46.1	315.780	-0.230	-0.290	0.350
2020/01/31 09:11:46.2	315.810	-0.240	-0.280	0.320
2020/01/31 09:11:46.3	315.840	-0.240	-0.270	0.290
2020/01/31 09:11:46.4	315.860	-0.250	-0.250	0.260
2020/01/31 09:11:46.5	315.890	-0.250	-0.240	0.230
2020/01/31 09:11:46.6	315.920	-0.260	-0.230	0.200
2020/01/31 09:11:46.7	315.950	-0.260	-0.220	0.170
2020/01/31 09:11:46.8	315.980	-0.260	-0.200	0.140
2020/01/31 09:11:46.9	316.010	-0.260	-0.190	0.110
2020/01/31 09:11:47.0	316.040	-0.270	-0.180	0.080
2020/01/31 09:11:47.1	316.070	-0.270	-0.160	0.060
2020/01/31 09:11:47.2	316.110	-0.270	-0.150	0.030
2020/01/31 09:11:47.3	316.140	-0.270	-0.140	0.010
2020/01/31 09:11:47.4	316.160	-0.270	-0.120	-0.010
2020/01/31 09:11:47.5	316.190	-0.270	-0.110	-0.030
2020/01/31 09:11:47.6	316.220	-0.260	-0.100	-0.050
2020/01/31 09:11:47.7	316.250	-0.260	-0.080	-0.070
2020/01/31 09:11:47.8	316.280	-0.260	-0.070	-0.080
2020/01/31 09:11:47.9	316.310	-0.260	-0.050	-0.100
2020/01/31 09:11:48.0	316.340	-0.260	-0.040	-0.110
2020/01/31 09:11:48.1	316.370	-0.250	-0.020	-0.120
2020/01/31 09:11:48.2	316.400	-0.250	-0.000	-0.120
2020/01/31 09:11:48.3	316.430	-0.250	0.010	-0.130
2020/01/31 09:11:48.4	316.450	-0.240	0.020	-0.130
2020/01/31 09:11:48.5	316.480	-0.240	0.040	-0.130
2020/01/31 09:11:48.6	316.500	-0.240	0.060	-0.130
2020/01/31 09:11:48.7	316.530	-0.230	0.070	-0.120
2020/01/31 09:11:48.8	316.550	-0.230	0.090	-0.120
2020/01/31 09:11:48.9	316.570	-0.230	0.100	-0.110
2020/01/31 09:11:49.0	316.590	-0.220	0.120	-0.100
2020/01/31 09:11:49.1	316.610	-0.220	0.140	-0.090
2020/01/31 09:11:49.2	316.620	-0.220	0.150	-0.080
2020/01/31 09:11:49.3	316.630	-0.210	0.170	-0.060
2020/01/31 09:11:49.4	316.650	-0.210	0.180	-0.040
2020/01/31 09:11:49.5	316.650	-0.200	0.190	-0.020
2020/01/31 09:11:49.6	316.660	-0.200	0.210	0.010
2020/01/31 09:11:49.7	316.660	-0.200	0.220	0.030
2020/01/31 09:11:49.8	316.650	-0.190	0.230	0.060
2020/01/31 09:11:49.9	316.650	-0.190	0.240	0.090
2020/01/31 09:11:50.0	316.640	-0.190	0.250	0.120
2020/01/31 09:11:50.1	316.630	-0.180	0.260	0.160
2020/01/31 09:11:50.2	316.610	-0.180	0.270	0.190
2020/01/31 09:11:50.3	316.590	-0.170	0.270	0.230
2020/01/31 09:11:50.4	316.570	-0.170	0.280	0.270
2020/01/31 09:11:50.5	316.550	-0.160	0.280	0.310
2020/01/31 09:11:50.6	316.520	-0.160	0.280	0.340
2020/01/31 09:11:50.7	316.500	-0.150	0.280	0.390
2020/01/31 09:11:50.8	316.470	-0.140	0.270	0.430
2020/01/31 09:11:50.9	316.430	-0.130	0.260	0.470
2020/01/31 09:11:51.0	316.400	-0.130	0.250	0.510
2020/01/31 09:11:51.1	316.370	-0.120	0.240	0.550
2020/01/31 09:11:51.2	316.330	-0.110	0.220	0.590
2020/01/31 09:11:51.3	316.290	-0.100	0.210	0.630
2020/01/31 09:11:51.4	316.260	-0.080	0.180	0.670
2020/01/31 09:11:51.5	316.220	-0.070	0.160	0.710
2020/01/31 09:11:51.6	316.180	-0.060	0.130	0.750
2020/01/31 09:11:51.7	316.140	-0.040	0.090	0.780
2020/01/31 09:11:51.8	316.110	-0.030	0.060	0.810
2020/01/31 09:11:51.9	316.070	-0.010	0.020	0.840
2020/01/31 09:11:52.0	316.030	0.010	-0.030	0.870
2020/01/31 09:11:52.1	315.990	0.030	-0.070	0.890
2020/01/31 09:11:52.2	315.960	0.050	-0.120	0.920
2020/01/31 09:11:52.3	315.920	0.070	-0.170	0.940
2020/01/31 09:11:52.4	315.890	0.090	-0.220	0.950
2020/01/31 09:11:52.5	315.860	0.110	-0.270	0.970
2020/01/31 09:11:52.6	315.820	0.130	-0.330	0.980
2020/01/31 09:11:52.7	315.790	0.150	-0.380	0.990
2020/01/31 09:11:52.8	315.760	0.180	-0.430	0.990
2020/01/31 09:11:52.9	315.730	0.200	-0.490	1.000
2020/01/31 09:11:53.0	315.700	0.230	-0.540	1.000
2020/01/31 09:11:53.1	315.680	0.250	-0.590	1.000
2020/01/31 09:11:53.2	315.660	0.280	-0.650	0.990
2020/01/31 09:11:53.3	315.640	0.300	-0.700	0.990
2020/01/31 09:11:53.4	315.630	0.330	-0.740	0.980
2020/01/31 09:11:53.5	315.610	0.350	-0.790	0.970
2020/01/31 09:11:53.6	315.600	0.380	-0.830	0.960
2020/01/31 09:11:53.7	315.590	0.400	-0.870	0.950
2020/01/31 09:11:53.8	315.590	0.430	-0.910	0.940
2020/01/31 09:11:53.9	315.580	0.450	-0.940	0.920
2020/01/31 09:11:54.0	315.590	0.480	-0.970	0.910
2020/01/31 09:11:54.1	315.590	0.500	-0.990	0.890
2020/01/31 09:11:54.2	315.600	0.520	-1.020	0.870
2020/01/31 09:11:54.3	315.600	0.540	-1.030	0.850
2020/01/31 09:11:54.4	315.620	0.560	-1.050	0.820
2020/01/31 09:11:54.5	315.630	0.580	-1.060	0.800
2020/01/31 09:11:54.6	315.650	0.600	-1.070	0.780
2020/01/31 09:11:54.7	315.670	0.610	-1.070	0.750
2020/01/31 09:11:54.8	315.690	0.630	-1.070	0.730
2020/01/31 09:11:54.9	315.710	0.640	-1.060	0.700
2020/01/31 09:11:55.0	315.740	0.640	-1.050	0.670
2020/01/31 09:11:55.1	315.770	0.650	-1.040	0.650
2020/01/31 09:11:55.2	315.800	0.650	-1.020	0.620
2020/01/31 09:11:55.3	315.830	0.650	-1.000	0.590
2020/01/31 09:11:55.4	315.860	0.650	-0.980	0.560
2020/01/31 09:11:55.5	315.900	0.650	-0.950	0.530
2020/01/31 09:11:55.6	315.930	0.640	-0.930	0.500
2020/01/31 09:11:55.7	315.970	0.630	-0.900	0.470
2020/01/31 09:11:55.8	316.010	0.610	-0.860	0.440
2020/01/31 09:11:55.9	316.050	0.600	-0.830	0.410
2020/01/31 09:11:56.0	316.090	0.580	-0.790	0.380
2020/01/31 09:11:56.1	316.130	0.560	-0.760	0.350
2020/01/31 09:11:56.2	316.170	0.530	-0.720	0.320
2020/01/31 09:11:56.3	316.210	0.510	-0.680	0.280
2020/01/31 09:11:56.4	316.260	0.480	-0.640	0.250
2020/01/31 09:11:56.5	316.310	0.450	-0.600	0.220
2020/01/31 09:11:56.6	316.350	0.420	-0.560	0.180
2020/01/31 09:11:56.7	316.400	0.380	-0.520	0.140
2020/01/31 09:11:56.8	316.440	0.350	-0.480	0.110
2020/01/31 09:11:56.9	316.480	0.310	-0.440	0.070
2020/01/31 09:11:57.0	316.520	0.270	-0.390	0.040
2020/01/31 09:11:57.1	316.560	0.240	-0.350	0.000
2020/01/31 09:11:57.2	316.600	0.200	-0.310	-0.030
2020/01/31 09:11:57.3	316.640	0.160	-0.270	-0.060
2020/01/31 09:11:57.4	316.660	0.110	-0.230	-0.090
2020/01/31 09:11:57.5	316.690	0.070	-0.180	-0.120
2020/01/31 09:11:57.6	316.720	0.030	-0.140	-0.150
2020/01/31 09:11:57.7	316.750	-0.010	-0.090	-0.170
2020/01/31 09:11:57.8	316.770	-0.050	-0.050	-0.190
2020/01/31 09:11:57.9	316.790	-0.090	-0.000	-0.210
2020/01/31 09:11:58.0	316.810	-0.130	0.040	-0.220
2020/01/31 09:11:58.1	316.820	-0.170	0.090	-0.240
2020/01/31 09:11:58.2	316.830	-0.200	0.140	-0.240
2020/01/31 09:11:58.3	316.830	-0.240	0.180	-0.250
2020/01/31 09:11:58.4	316.840	-0.280	0.230	-0.250
2020/01/31 09:11:58.5	316.840	-0.310	0.280	-0.250
2020/01/31 09:11:58.6	316.830	-0.340	0.330	-0.240
2020/01/31 09:11:58.7	316.820	-0.370	0.380	-0.230
2020/01/31 09:11:58.8	316.810	-0.400	0.420	-0.210
2020/01/31 09:11:58.9	316.790	-0.430	0.470	-0.190
2020/01/31 09:11:59.0	316.770	-0.450	0.520	-0.160
2020/01/31 09:11:59.1	316.750	-0.470	0.560	-0.140
2020/01/31 09:11:59.2	316.720	-0.490	0.600	-0.100
2020/01/31 09:11:59.3	316.690	-0.510	0.640	-0.070
2020/01/31 09:11:59.4	316.660	-0.530	0.680	-0.030
2020/01/31 09:11:59.5	316.630	-0.540	0.710	0.010
2020/01/31 09:11:59.6	316.590	-0.560	0.740	0.050
2020/01/31 09:11:59.7	316.550	-0.570	0.760	0.090
2020/01/31 09:11:59.8	316.510	-0.570	0.780	0.130
2020/01/31 09:11:59.9	316.460	-0.580	0.800	0.170
2020/01/31 09:12:00.0	316.420	-0.580	0.800	0.210
2020/01/31 09:12:00.1	316.380	-0.590	0.810	0.250
2020/01/31 09:12:00.2	316.340	-0.590	0.800	0.290
2020/01/31 09:12:00.3	316.300	-0.580	0.790	0.330
2020/01/31 09:12:00.4	316.250	-0.580	0.770	0.360
2020/01/31 09:12:00.5	316.210	-0.570	0.750	0.390
2020/01/31 09:12:00.6	316.180	-0.570	0.710	0.420
2020/01/31 09:12:00.7	316.140	-0.560	0.670	0.440
2020/01/31 09:12:00.8	316.110	-0.550	0.630	0.460
2020/01/31 09:12:00.9	316.080	-0.540	0.580	0.480
2020/01/31 09:12:01.0	316.050	-0.520	0.520	0.500
2020/01/31 09:12:01.1	316.030	-0.510	0.450	0.510
2020/01/31 09:12:01.2	316.010	-0.490	0.390	0.520
2020/01/31 09:12:01.3	315.990	-0.480	0.310	0.520
2020/01/31 09:12:01.4	315.970	-0.460	0.240	0.520
2020/01/31 09:12:01.5	315.950	-0.440	0.160	0.520
2020/01/31 09:12:01.6	315.930	-0.420	0.080	0.520
2020/01/31 09:12:01.7	315.920	-0.400	-0.000	0.520
2020/01/31 09:12:01.8	315.910	-0.380	-0.080	0.510
2020/01/31 09:12:01.9	315.900	-0.360	-0.170	0.510
2020/01/31 09:12:02.0	315.890	-0.350	-0.240	0.500
2020/01/31 09:12:02.1	315.880	-0.330	-0.320	0.490
2020/01/31 09:12:02.2	315.880	-0.310	-0.400	0.480
2020/01/31 09:12:02.3	315.870	-0.290	-0.470	0.470
2020/01/31 09:12:02.4	315.870	-0.270	-0.530	0.460
2020/01/31 09:12:02.5	315.870	-0.260	-0.600	0.450
2020/01/31 09:12:02.6	315.870	-0.240	-0.660	0.440
2020/01/31 09:12:02.7	315.870	-0.220	-0.710	0.430
2020/01/31 09:12:02.8	315.870	-0.210	-0.760	0.420
2020/01/31 09:12:02.9	315.870	-0.190	-0.800	0.410
2020/01/31 09:12:03.0	315.870	-0.180	-0.830	0.400
2020/01/31 09:12:03.1	315.870	-0.170	-0.860	0.400
2020/01/31 09:12:03.2	315.870	-0.150	-0.890	0.390
2020/01/31 09:12:03.3	315.880	-0.140	-0.900	0.390
2020/01/31 09:12:03.4	315.880	-0.130	-0.920	0.400
2020/01/31 09:12:03.5	315.890	-0.120	-0.920	0.390
2020/01/31 09:12:03.6	315.890	-0.110	-0.920	0.400
2020/01/31 09:12:03.7	315.890	-0.100	-0.910	0.400
2020/01/31 09:12:03.8	315.900	-0.100	-0.900	0.400
2020/01/31 09:12:03.9	315.900	-0.090	-0.880	0.410
2020/01/31 09:12:04.0	315.900	-0.080	-0.860	0.410
2020/01/31 09:12:04.1	315.910	-0.070	-0.840	0.420
2020/01/31 09:12:04.2	315.910	-0.060	-0.810	0.430
2020/01/31 09:12:04.3	315.920	-0.060	-0.780	0.440
2020/01/31 09:12:04.4	315.930	-0.050	-0.750	0.440
2020/01/31 09:12:04.5	315.940	-0.040	-0.710	0.450
2020/01/31 09:12:04.6	315.940	-0.030	-0.680	0.460
2020/01/31 09:12:04.7	315.950	-0.020	-0.640	0.470
2020/01/31 09:12:04.8	315.960	-0.010	-0.610	0.480
2020/01/31 09:12:04.9	315.970	-0.000	-0.570	0.480
2020/01/31 09:12:05.0	315.970	0.010	-0.540	0.490
2020/01/31 09:12:05.1	315.980	0.020	-0.500	0.500
2020/01/31 09:12:05.2	315.990	0.030	-0.470	0.500
2020/01/31 09:12:05.3	316.010	0.040	-0.430	0.510
2020/01/31 09:12:05.4	316.010	0.050	-0.400	0.510
2020/01/31 09:12:05.5	316.020	0.060	-0.370	0.520
2020/01/31 09:12:05.6	316.020	0.070	-0.340	0.520
2020/01/31 09:12:05.7	316.030	0.090	-0.310	0.530
2020/01/31 09:12:05.8	316.030	0.100	-0.290	0.540
2020/01/31 09:12:05.9	316.030	0.110	-0.260	0.540
2020/01/31 09:12:06.0	316.040	0.130	-0.240	0.550
2020/01/31 09:12:06.1	316.040	0.140	-0.220	0.560
2020/01/31 09:12:06.2	316.040	0.150	-0.200	0.570
2020/01/31 09:12:06.3	316.040	0.170	-0.190	0.580
2020/01/31 09:12:06.4	316.040	0.180	-0.180	0.590
2020/01/31 09:12:06.5	316.040	0.200	-0.160	0.600
2020/01/31 09:12:06.6	316.040	0.210	-0.150	0.610
2020/01/31 09:12:06.7	316.040	0.230	-0.140	0.620
2020/01/31 09:12:06.8	316.040	0.240	-0.130	0.640
2020/01/31 09:12:06.9	316.040	0.260	-0.120	0.650
2020/01/31 09:12:07.0	316.030	0.270	-0.110	0.670
2020/01/31 09:12:07.1	316.030	0.290	-0.100	0.680
2020/01/31 09:12:07.2	316.030	0.300	-0.100	0.690
2020/01/31 09:12:07.3	316.030	0.320	-0.090	0.710
2020/01/31 09:12:07.4	316.030	0.330	-0.090	0.720
2020/01/31 09:12:07.5	316.030	0.340	-0.090	0.730
2020/01/31 09:12:07.6	316.030	0.360	-0.090	0.740
2020/01/31 09:12:07.7	316.030	0.370	-0.090	0.760
2020/01/31 09:12:07.8	316.030	0.380	-0.100	0.770
2020/01/31 09:12:07.9	316.030	0.390	-0.100	0.780
2020/01/31 09:12:08.0	316.030	0.410	-0.110	0.790
2020/01/31 09:12:08.1	316.030	0.420	-0.120	0.790
2020/01/31 09:12:08.2	316.030	0.430	-0.130	0.800
2020/01/31 09:12:08.3	316.030	0.430	-0.140	0.800
2020/01/31 09:12:08.4	316.030	0.440	-0.150	0.800
2020/01/31 09:12:08.5	316.040	0.450	-0.160	0.810
2020/01/31 09:12:08.6	316.040	0.450	-0.170	0.800
2020/01/31 09:12:08.7	316.050	0.460	-0.190	0.800
2020/01/31 09:12:08.8	316.060	0.460	-0.210	0.800
2020/01/31 09:12:08.9	316.070	0.460	-0.220	0.790
2020/01/31 09:12:09.0	316.080	0.460	-0.240	0.780
2020/01/31 09:12:09.1	316.090	0.460	-0.250	0.770
2020/01/31 09:12:09.2	316.110	0.460	-0.270	0.760
2020/01/31 09:12:09.3	316.120	0.460	-0.290	0.750
2020/01/31 09:12:09.4	316.140	0.450	-0.300	0.730
2020/01/31 09:12:09.5	316.150	0.450	-0.320	0.720
2020/01/31 09:12:09.6	316.170	0.440	-0.330	0.700
2020/01/31 09:12:09.7	316.200	0.430	-0.350	0.680
2020/01/31 09:12:09.8	316.220	0.420	-0.360	0.670
2020/01/31 09:12:09.9	316.240	0.410	-0.370	0.650
2020/01/31 09:12:10.0	316.270	0.400	-0.380	0.630
2020/01/31 09:12:10.1	316.290	0.380	-0.390	0.610
2020/01/31 09:12:10.2	316.320	0.370	-0.390	0.590
2020/01/31 09:12:10.3	316.350	0.350	-0.400	0.560
2020/01/31 09:12:10.4	316.370	0.340	-0.400	0.540
2020/01/31 09:12:10.5	316.400	0.320	-0.410	0.520
2020/01/31 09:12:10.6	316.430	0.300	-0.400	0.500
2020/01/31 09:12:10.7	316.450	0.280	-0.400	0.480
2020/01/31 09:12:10.8	316.480	0.260	-0.390	0.450
2020/01/31 09:12:10.9	316.510	0.240	-0.380	0.430
2020/01/31 09:12:11.0	316.530	0.220	-0.370	0.420
2020/01/31 09:12:11.1	316.550	0.190	-0.360	0.400
2020/01/31 09:12:11.2	316.570	0.170	-0.340	0.380
2020/01/31 09:12:11.3	316.590	0.150	-0.330	0.370
2020/01/31 09:12:11.4	316.600	0.120	-0.310	0.360
2020/01/31 09:12:11.5	316.610	0.100	-0.290	0.350
2020/01/31 09:12:11.6	316.620	0.080	-0.270	0.350
2020/01/31 09:12:11.7	316.630	0.050	-0.250	0.340
2020/01/31 09:12:11.8	316.640	0.030	-0.230	0.340
2020/01/31 09:12:11.9	316.640	0.010	-0.200	0.340
2020/01/31 09:12:12.0	316.650	-0.010	-0.180	0.340
2020/01/31 09:12:12.1	316.650	-0.030	-0.160	0.350
2020/01/31 09:12:12.2	316.650	-0.060	-0.140	0.350
2020/01/31 09:12:12.3	316.640	-0.080	-0.130	0.360
2020/01/31 09:12:12.4	316.630	-0.100	-0.110	0.360
2020/01/31 09:12:12.5	316.620	-0.110	-0.090	0.370
2020/01/31 09:12:12.6	316.610	-0.130	-0.080	0.380
2020/01/31 09:12:12.7	316.600	-0.150	-0.070	0.390
2020/01/31 09:12:12.8	316.590	-0.160	-0.060	0.390
2020/01/31 09:12:12.9	316.580	-0.170	-0.050	0.400
2020/01/31 09:12:13.0	316.570	-0.180	-0.050	0.410
2020/01/31 09:12:13.1	316.560	-0.190	-0.040	0.410
2020/01/31 09:12:13.2	316.550	-0.200	-0.040	0.420
2020/01/31 09:12:13.3	316.530	-0.210	-0.040	0.430
2020/01/31 09:12:13.4	316.510	-0.210	-0.050	0.430
2020/01/31 09:12:13.5	316.500	-0.210	-0.060	0.440
2020/01/31 09:12:13.6	316.480	-0.210	-0.060	0.440
2020/01/31 09:12:13.7	316.470	-0.210	-0.070	0.450
2020/01/31 09:12:13.8	316.450	-0.210	-0.080	0.460
2020/01/31 09:12:13.9	316.430	-0.200	-0.090	0.470
2020/01/31 09:12:14.0	316.410	-0.200	-0.100	0.470
2020/01/31 09:12:14.1	316.400	-0.190	-0.110	0.480
2020/01/31 09:12:14.2	316.380	-0.180	-0.120	0.490
2020/01/31 09:12:14.3	316.360	-0.170	-0.130	0.500
2020/01/31 09:12:14.4	316.340	-0.160	-0.150	0.510
2020/01/31 09:12:14.5	316.320	-0.160	-0.160	0.520
2020/01/31 09:12:14.6	316.300	-0.150	-0.170	0.530
2020/01/31 09:12:14.7	316.280	-0.140	-0.180	0.540
2020/01/31 09:12:14.8	316.260	-0.130	-0.190	0.550
2020/01/31 09:12:14.9	316.240	-0.120	-0.200	0.560
2020/01/31 09:12:15.0	316.220	-0.110	-0.210	0.570
2020/01/31 09:12:15.1	316.200	-0.100	-0.210	0.580
2020/01/31 09:12:15.2	316.180	-0.090	-0.220	0.590
2020/01/31 09:12:15.3	316.160	-0.090	-0.220	0.600
2020/01/31 09:12:15.4	316.140	-0.080	-0.220	0.610
2020/01/31 09:12:15.5	316.120	-0.080	-0.220	0.610
2020/01/31 09:12:15.6	316.100	-0.080	-0.220	0.620
2020/01/31 09:12:15.7	316.090	-0.080	-0.210	0.630
2020/01/31 09:12:15.8	316.070	-0.080	-0.210	0.630
2020/01/31 09:12:15.9	316.050	-0.090	-0.200	0.640
2020/01/31 09:12:16.0	316.030	-0.090	-0.180	0.640
2020/01/31 09:12:16.1	316.010	-0.100	-0.170	0.650
2020/01/31 09:12:16.2	315.990	-0.110	-0.160	0.650
2020/01/31 09:12:16.3	315.970	-0.130	-0.140	0.660
2020/01/31 09:12:16.4	315.940	-0.140	-0.120	0.670
2020/01/31 09:12:16.5	315.920	-0.150	-0.110	0.670
2020/01/31 09:12:16.6	315.900	-0.170	-0.090	0.680
2020/01/31 09:12:16.7	315.880	-0.190	-0.070	0.690
2020/01/31 09:12:16.8	315.870	-0.210	-0.050	0.690
2020/01/31 09:12:16.9	315.850	-0.230	-0.030	0.700
2020/01/31 09:12:17.0	315.830	-0.250	-0.010	0.700
2020/01/31 09:12:17.1	315.820	-0.270	0.010	0.700
2020/01/31 09:12:17.2	315.810	-0.290	0.030	0.700
2020/01/31 09:12:17.3	315.800	-0.310	0.040	0.700
2020/01/31 09:12:17.4	315.790	-0.330	0.060	0.710
2020/01/31 09:12:17.5	315.780	-0.350	0.070	0.700
2020/01/31 09:12:17.6	315.770	-0.370	0.080	0.700
2020/01/31 09:12:17.7	315.770	-0.380	0.080	0.700
2020/01/31 09:12:17.8	315.770	-0.400	0.080	0.690
2020/01/31 09:12:17.9	315.770	-0.420	0.080	0.680
2020/01/31 09:12:18.0	315.780	-0.430	0.080	0.670
2020/01/31 09:12:18.1	315.780	-0.440	0.080	0.660
2020/01/31 09:12:18.2	315.790	-0.450	0.070	0.640
2020/01/31 09:12:18.3	315.800	-0.450	0.050	0.630
2020/01/31 09:12:18.4	315.820	-0.460	0.040	0.610
2020/01/31 09:12:18.5	315.830	-0.460	0.020	0.590
2020/01/31 09:12:18.6	315.850	-0.460	-0.000	0.570
2020/01/31 09:12:18.7	315.870	-0.460	-0.030	0.550
2020/01/31 09:12:18.8	315.890	-0.450	-0.050	0.520
2020/01/31 09:12:18.9	315.920	-0.450	-0.080	0.500
2020/01/31 09:12:19.0	315.940	-0.440	-0.110	0.480
2020/01/31 09:12:19.1	315.970	-0.420	-0.140	0.450
2020/01/31 09:12:19.2	316.000	-0.410	-0.170	0.420
2020/01/31 09:12:19.3	316.040	-0.400	-0.210	0.400
2020/01/31 09:12:19.4	316.070	-0.380	-0.240	0.370
2020/01/31 09:12:19.5	316.110	-0.360	-0.280	0.340
2020/01/31 09:12:19.6	316.150	-0.340	-0.310	0.310
2020/01/31 09:12:19.7	316.180	-0.310	-0.340	0.280
2020/01/31 09:12:19.8	316.220	-0.290	-0.380	0.260
2020/01/31 09:12:19.9	316.260	-0.260	-0.410	0.230
2020/01/31 09:12:20.0	316.300	-0.230	-0.440	0.200
2020/01/31 09:12:20.1	316.340	-0.210	-0.470	0.180
2020/01/31 09:12:20.2	316.380	-0.180	-0.490	0.160
2020/01/31 09:12:20.3	316.420	-0.150	-0.510	0.140
2020/01/31 09:12:20.4	316.460	-0.120	-0.530	0.120
2020/01/31 09:12:20.5	316.500	-0.090	-0.550	0.100
2020/01/31 09:12:20.6	316.530	-0.060	-0.560	0.090
2020/01/31 09:12:20.7	316.570	-0.030	-0.570	0.080
2020/01/31 09:12:20.8	316.600	-0.000	-0.570	0.070
2020/01/31 09:12:20.9	316.630	0.030	-0.570	0.070
2020/01/31 09:12:21.0	316.650	0.050	-0.560	0.070
2020/01/31 09:12:21.1	316.680	0.080	-0.560	0.070
2020/01/31 09:12:21.2	316.700	0.110	-0.540	0.080
2020/01/31 09:12:21.3	316.720	0.130	-0.530	0.090
2020/01/31 09:12:21.4	316.740	0.150	-0.510	0.110
2020/01/31 09:12:21.5	316.750	0.180	-0.490	0.130
2020/01/31 09:12:21.6	316.760	0.200	-0.460	0.150
2020/01/31 09:12:21.7	316.770	0.220	-0.430	0.180
2020/01/31 09:12:21.8	316.780	0.240	-0.400	0.210
2020/01/31 09:12:21.9	316.780	0.260	-0.370	0.250
2020/01/31 09:12:22.0	316.770	0.280	-0.340	0.280
2020/01/31 09:12:22.1	316.770	0.290	-0.300	0.330
2020/01/31 09:12:22.2	316.760	0.310	-0.270	0.370
2020/01/31 09:12:22.3	316.750	0.320	-0.230	0.410
2020/01/31 09:12:22.4	316.740	0.340	-0.200	0.460
2020/01/31 09:12:22.5	316.720	0.350	-0.160	0.510
2020/01/31 09:12:22.6	316.710	0.360	-0.130	0.550
2020/01/31 09:12:22.7	316.690	0.370	-0.110	0.600
2020/01/31 09:12:22.8	316.670	0.380	-0.080	0.650
2020/01/31 09:12:22.9	316.650	0.390	-0.060	0.700
2020/01/31 09:12:23.0	316.630	0.400	-0.040	0.740
2020/01/31 09:12:23.1	316.600	0.410	-0.030	0.790
2020/01/31 09:12:23.2	316.580	0.420	-0.020	0.830
2020/01/31 09:12:23.3	316.560	0.430	-0.010	0.870
2020/01/31 09:12:23.4	316.540	0.440	-0.020	0.920
2020/01/31 09:12:23.5	316.520	0.440	-0.020	0.950
2020/01/31 09:12:23.6	316.500	0.450	-0.030	0.980
2020/01/31 09:12:23.7	316.480	0.460	-0.040	1.010
2020/01/31 09:12:23.8	316.460	0.470	-0.060	1.030
2020/01/31 09:12:23.9	316.440	0.470	-0.080	1.050
2020/01/31 09:12:24.0	316.420	0.480	-0.110	1.070
2020/01/31 09:12:24.1	316.410	0.480	-0.140	1.080
2020/01/31 09:12:24.2	316.400	0.490	-0.180	1.090
2020/01/31 09:12:24.3	316.390	0.490	-0.220	1.090
2020/01/31 09:12:24.4	316.390	0.500	-0.260	1.080
2020/01/31 09:12:24.5	316.380	0.500	-0.300	1.070
2020/01/31 09:12:24.6	316.380	0.500	-0.340	1.060
2020/01/31 09:12:24.7	316.370	0.500	-0.390	1.040
2020/01/31 09:12:24.8	316.370	0.500	-0.440	1.020
2020/01/31 09:12:24.9	316.380	0.500	-0.490	1.000
2020/01/31 09:12:25.0	316.380	0.500	-0.530	0.970
2020/01/31 09:12:25.1	316.390	0.490	-0.580	0.940
2020/01/31 09:12:25.2	316.400	0.480	-0.620	0.910
2020/01/31 09:12:25.3	316.400	0.470	-0.670	0.870
2020/01/31 09:12:25.4	316.420	0.460	-0.710	0.840
2020/01/31 09:12:25.5	316.430	0.450	-0.750	0.800
2020/01/31 09:12:25.6	316.440	0.430	-0.790	0.760
2020/01/31 09:12:25.7	316.460	0.420	-0.820	0.720
2020/01/31 09:12:25.8	316.470	0.400	-0.850	0.670
2020/01/31 09:12:25.9	316.490	0.380	-0.880	0.630
2020/01/31 09:12:26.0	316.500	0.350	-0.900	0.590
2020/01/31 09:12:26.1	316.520	0.330	-0.920	0.540
2020/01/31 09:12:26.2	316.530	0.300	-0.930	0.500
2020/01/31 09:12:26.3	316.540	0.270	-0.940	0.460
2020/01/31 09:12:26.4	316.560	0.240	-0.940	0.420
2020/01/31 09:12:26.5	316.570	0.210	-0.940	0.380
2020/01/31 09:12:26.6	316.580	0.180	-0.930	0.340
2020/01/31 09:12:26.7	316.600	0.140	-0.920	0.300
2020/01/31 09:12:26.8	316.610	0.110	-0.900	0.260
2020/01/31 09:12:26.9	316.620	0.070	-0.880	0.230
2020/01/31 09:12:27.0	316.630	0.030	-0.850	0.200
2020/01/31 09:12:27.1	316.640	-0.000	-0.820	0.170
2020/01/31 09:12:27.2	316.640	-0.040	-0.780	0.140
2020/01/31 09:12:27.3	316.650	-0.080	-0.730	0.110
2020/01/31 09:12:27.4	316.650	-0.120	-0.680	0.090
2020/01/31 09:12:27.5	316.650	-0.150	-0.630	0.070
2020/01/31 09:12:27.6	316.650	-0.190	-0.580	0.060
2020/01/31 09:12:27.7	316.650	-0.220	-0.520	0.040
2020/01/31 09:12:27.8	316.650	-0.260	-0.450	0.030
2020/01/31 09:12:27.9	316.640	-0.290	-0.390	0.020
2020/01/31 09:12:28.0	316.640	-0.320	-0.320	0.020
2020/01/31 09:12:28.1	316.630	-0.350	-0.250	0.010
2020/01/31 09:12:28.2	316.630	-0.380	-0.180	0.010
2020/01/31 09:12:28.3	316.620	-0.400	-0.110	0.010
2020/01/31 09:12:28.4	316.610	-0.430	-0.040	0.020
2020/01/31 09:12:28.5	316.600	-0.450	0.020	0.020
2020/01/31 09:12:28.6	316.580	-0.470	0.090	0.030
2020/01/31 09:12:28.7	316.570	-0.480	0.160	0.050
2020/01/31 09:12:28.8	316.550	-0.500	0.220	0.060
2020/01/31 09:12:28.9	316.540	-0.510	0.280	0.080
2020/01/31 09:12:29.0	316.520	-0.520	0.340	0.100
2020/01/31 09:12:29.1	316.500	-0.530	0.390	0.120
2020/01/31 09:12:29.2	316.480	-0.530	0.440	0.140
2020/01/31 09:12:29.3	316.460	-0.530	0.490	0.160
2020/01/31 09:12:29.4	316.440	-0.530	0.530	0.180
2020/01/31 09:12:29.5	316.420	-0.520	0.570	0.200
2020/01/31 09:12:29.6	316.400	-0.520	0.600	0.220
2020/01/31 09:12:29.7	316.380	-0.510	0.630	0.240
2020/01/31 09:12:29.8	316.360	-0.500	0.650	0.260
2020/01/31 09:12:29.9	316.350	-0.480	0.670	0.280
2020/01/31 09:12:30.0	316.330	-0.460	0.680	0.300
2020/01/31 09:12:30.1	316.320	-0.450	0.680	0.310
2020/01/31 09:12:30.2	316.300	-0.430	0.690	0.330
2020/01/31 09:12:30.3	316.290	-0.400	0.680	0.340
2020/01/31 09:12:30.4	316.290	-0.380	0.670	0.360
2020/01/31 09:12:30.5	316.290	-0.350	0.660	0.370
2020/01/31 09:12:30.6	316.280	-0.330	0.640	0.380
2020/01/31 09:12:30.7	316.280	-0.300	0.620	0.390
2020/01/31 09:12:30.8	316.290	-0.270	0.600	0.390
2020/01/31 09:12:30.9	316.290	-0.240	0.570	0.400
2020/01/31 09:12:31.0	316.290	-0.210	0.540	0.410
2020/01/31 09:12:31.1	316.300	-0.180	0.500	0.410
2020/01/31 09:12:31.2	316.310	-0.150	0.470	0.410
2020/01/31 09:12:31.3	316.320	-0.120	0.430	0.420
2020/01/31 09:12:31.4	316.340	-0.090	0.390	0.420
2020/01/31 09:12:31.5	316.350	-0.060	0.350	0.420
2020/01/31 09:12:31.6	316.370	-0.040	0.310	0.420
2020/01/31 09:12:31.7	316.380	-0.010	0.270	0.430
2020/01/31 09:12:31.8	316.390	0.010	0.230	0.430
2020/01/31 09:12:31.9	316.410	0.040	0.190	0.430
2020/01/31 09:12:32.0	316.420	0.050	0.150	0.430
2020/01/31 09:12:32.1	316.430	0.070	0.110	0.440
2020/01/31 09:12:32.2	316.440	0.090	0.070	0.440
2020/01/31 09:12:32.3	316.450	0.100	0.030	0.440
2020/01/31 09:12:32.4	316.450	0.110	-0.000	0.450
2020/01/31 09:12:32.5	316.450	0.120	-0.040	0.450
2020/01/31 09:12:32.6	316.460	0.120	-0.070	0.460
2020/01/31 09:12:32.7	316.460	0.130	-0.100	0.460
2020/01/31 09:12:32.8	316.460	0.130	-0.130	0.470
2020/01/31 09:12:32.9	316.460	0.130	-0.150	0.470
2020/01/31 09:12:33.0	316.450	0.120	-0.180	0.480
2020/01/31 09:12:33.1	316.440	0.110	-0.200	0.480
2020/01/31 09:12:33.2	316.440	0.110	-0.220	0.490
2020/01/31 09:12:33.3	316.430	0.100	-0.240	0.490
2020/01/31 09:12:33.4	316.410	0.080	-0.250	0.500
2020/01/31 09:12:33.5	316.400	0.070	-0.270	0.500
2020/01/31 09:12:33.6	316.390	0.060	-0.280	0.500
2020/01/31 09:12:33.7	316.370	0.040	-0.290	0.510
2020/01/31 09:12:33.8	316.360	0.020	-0.310	0.510
2020/01/31 09:12:33.9	316.340	0.010	-0.320	0.510
2020/01/31 09:12:34.0	316.330	-0.010	-0.330	0.510
2020/01/31 09:12:34.1	316.320	-0.030	-0.340	0.500
2020/01/31 09:12:34.2	316.300	-0.040	-0.350	0.500
2020/01/31 09:12:34.3	316.290	-0.060	-0.370	0.500
2020/01/31 09:12:34.4	316.270	-0.070	-0.390	0.490
2020/01/31 09:12:34.5	316.260	-0.090	-0.400	0.480
2020/01/31 09:12:34.6	316.250	-0.100	-0.420	0.470
2020/01/31 09:12:34.7	316.240	-0.120	-0.430	0.460
2020/01/31 09:12:34.8	316.230	-0.130	-0.450	0.450
2020/01/31 09:12:34.9	316.220	-0.140	-0.470	0.440
2020/01/31 09:12:35.0	316.210	-0.150	-0.490	0.420
2020/01/31 09:12:35.1	316.210	-0.160	-0.510	0.400
2020/01/31 09:12:35.2	316.210	-0.160	-0.530	0.380
2020/01/31 09:12:35.3	316.200	-0.170	-0.550	0.360
2020/01/31 09:12:35.4	316.200	-0.170	-0.580	0.330
2020/01/31 09:12:35.5	316.210	-0.170	-0.600	0.310
2020/01/31 09:12:35.6	316.210	-0.180	-0.620	0.280
2020/01/31 09:12:35.7	316.210	-0.170	-0.650	0.260
2020/01/31 09:12:35.8	316.220	-0.170	-0.670	0.230
2020/01/31 09:12:35.9	316.230	-0.170	-0.690	0.200
2020/01/31 09:12:36.0	316.240	-0.160	-0.710	0.170
2020/01/31 09:12:36.1	316.250	-0.160	-0.730	0.140
2020/01/31 09:12:36.2	316.260	-0.150	-0.750	0.110
2020/01/31 09:12:36.3	316.270	-0.140	-0.770	0.080
2020/01/31 09:12:36.4	316.290	-0.140	-0.790	0.050
2020/01/31 09:12:36.5	316.310	-0.130	-0.810	0.020
2020/01/31 09:12:36.6	316.320	-0.120	-0.820	-0.000
2020/01/31 09:12:36.7	316.340	-0.110	-0.830	-0.030
2020/01/31 09:12:36.8	316.360	-0.100	-0.840	-0.060
2020/01/31 09:12:36.9	316.380	-0.080	-0.850	-0.090
2020/01/31 09:12:37.0	316.400	-0.070	-0.860	-0.110
2020/01/31 09:12:37.1	316.420	-0.060	-0.860	-0.140
2020/01/31 09:12:37.2	316.440	-0.050	-0.860	-0.160
2020/01/31 09:12:37.3	316.450	-0.040	-0.860	-0.180
2020/01/31 09:12:37.4	316.470	-0.030	-0.860	-0.210
2020/01/31 09:12:37.5	316.490	-0.010	-0.860	-0.230
2020/01/31 09:12:37.6	316.510	-0.000	-0.850	-0.250
2020/01/31 09:12:37.7	316.530	0.010	-0.850	-0.260
2020/01/31 09:12:37.8	316.540	0.020	-0.840	-0.280
2020/01/31 09:12:37.9	316.560	0.030	-0.830	-0.290
2020/01/31 09:12:38.0	316.580	0.050	-0.820	-0.310
2020/01/31 09:12:38.1	316.600	0.060	-0.810	-0.320
2020/01/31 09:12:38.2	316.620	0.070	-0.800	-0.330
2020/01/31 09:12:38.3	316.640	0.080	-0.790	-0.340
2020/01/31 09:12:38.4	316.650	0.100	-0.770	-0.340
2020/01/31 09:12:38.5	316.670	0.110	-0.760	-0.340
2020/01/31 09:12:38.6	316.690	0.120	-0.740	-0.340
2020/01/31 09:12:38.7	316.700	0.140	-0.720	-0.330
2020/01/31 09:12:38.8	316.710	0.150	-0.700	-0.330
2020/01/31 09:12:38.9	316.730	0.160	-0.680	-0.320
2020/01/31 09:12:39.0	316.740	0.180	-0.660	-0.300
2020/01/31 09:12:39.1	316.740	0.190	-0.640	-0.280
2020/01/31 09:12:39.2	316.750	0.210	-0.620	-0.260
2020/01/31 09:12:39.3	316.750	0.220	-0.590	-0.230
2020/01/31 09:12:39.4	316.760	0.240	-0.570	-0.200
2020/01/31 09:12:39.5	316.760	0.250	-0.540	-0.160
2020/01/31 09:12:39.6	316.760	0.260	-0.510	-0.120
2020/01/31 09:12:39.7	316.750	0.280	-0.490	-0.080
2020/01/31 09:12:39.8	316.740	0.290	-0.460	-0.030
2020/01/31 09:12:39.9	316.730	0.310	-0.430	0.020
2020/01/31 09:12:40.0	316.720	0.320	-0.400	0.070
2020/01/31 09:12:40.1	316.710	0.340	-0.370	0.120
2020/01/31 09:12:40.2	316.700	0.350	-0.350	0.180
2020/01/31 09:12:40.3	316.680	0.360	-0.320	0.240
2020/01/31 09:12:40.4	316.670	0.370	-0.290	0.300
2020/01/31 09:12:40.5	316.650	0.380	-0.260	0.350
2020/01/31 09:12:40.6	316.630	0.400	-0.230	0.410
2020/01/31 09:12:40.7	316.620	0.400	-0.200	0.470
2020/01/31 09:12:40.8	316.600	0.410	-0.170	0.530
2020/01/31 09:12:40.9	316.580	0.420	-0.140	0.590
2020/01/31 09:12:41.0	316.560	0.430	-0.110	0.660
2020/01/31 09:12:41.1	316.540	0.430	-0.080	0.710
2020/01/31 09:12:41.2	316.530	0.430	-0.050	0.770
2020/01/31 09:12:41.3	316.510	0.430	-0.020	0.830
2020/01/31 09:12:41.4	316.490	0.430	0.010	0.890
2020/01/31 09:12:41.5	316.470	0.430	0.050	0.950
2020/01/31 09:12:41.6	316.450	0.420	0.080	1.000
2020/01/31 09:12:41.7	316.430	0.410	0.110	1.060
2020/01/31 09:12:41.8	316.410	0.400	0.150	1.110
2020/01/31 09:12:41.9	316.380	0.390	0.190	1.160
2020/01/31 09:12:42.0	316.360	0.380	0.220	1.210
2020/01/31 09:12:42.1	316.340	0.360	0.260	1.250
2020/01/31 09:12:42.2	316.320	0.340	0.290	1.300
2020/01/31 09:12:42.3	316.290	0.320	0.330	1.340
2020/01/31 09:12:42.4	316.280	0.300	0.360	1.370
2020/01/31 09:12:42.5	316.260	0.280	0.390	1.410
2020/01/31 09:12:42.6	316.240	0.250	0.420	1.430
2020/01/31 09:12:42.7	316.220	0.230	0.450	1.460
2020/01/31 09:12:42.8	316.200	0.200	0.480	1.480
2020/01/31 09:12:42.9	316.180	0.170	0.500	1.490
2020/01/31 09:12:43.0	316.170	0.140	0.520	1.500
2020/01/31 09:12:43.1	316.150	0.110	0.540	1.500
2020/01/31 09:12:43.2	316.130	0.070	0.550	1.500
2020/01/31 09:12:43.3	316.120	0.040	0.570	1.490
2020/01/31 09:12:43.4	316.120	0.010	0.570	1.480
2020/01/31 09:12:43.5	316.110	-0.030	0.580	1.460
2020/01/31 09:12:43.6	316.100	-0.060	0.580	1.440
2020/01/31 09:12:43.7	316.090	-0.100	0.580	1.410
2020/01/31 09:12:43.8	316.080	-0.130	0.570	1.380
2020/01/31 09:12:43.9	316.070	-0.160	0.570	1.340
2020/01/31 09:12:44.0	316.060	-0.190	0.550	1.300
2020/01/31 09:12:44.1	316.060	-0.220	0.540	1.260
2020/01/31 09:12:44.2	316.050	-0.250	0.520	1.220
2020/01/31 09:12:44.3	316.050	-0.280	0.500	1.170
2020/01/31 09:12:44.4	316.060	-0.310	0.480	1.120
2020/01/31 09:12:44.5	316.050	-0.330	0.450	1.070
2020/01/31 09:12:44.6	316.050	-0.360	0.430	1.020
2020/01/31 09:12:44.7	316.050	-0.380	0.400	0.960
2020/01/31 09:12:44.8	316.050	-0.400	0.370	0.910
2020/01/31 09:12:44.9	316.050	-0.410	0.340	0.850
2020/01/31 09:12:45.0	316.060	-0.430	0.300	0.790
2020/01/31 09:12:45.1	316.060	-0.440	0.260	0.730
2020/01/31 09:12:45.2	316.070	-0.450	0.230	0.670
2020/01/31 09:12:45.3	316.070	-0.460	0.190	0.620
2020/01/31 09:12:45.4	316.080	-0.460	0.140	0.560
2020/01/31 09:12:45.5	316.090	-0.470	0.100	0.500
2020/01/31 09:12:45.6	316.090	-0.470	0.060	0.440
2020/01/31 09:12:45.7	316.100	-0.460	0.010	0.380
2020/01/31 09:12:45.8	316.100	-0.460	-0.030	0.330
2020/01/31 09:12:45.9	316.110	-0.450	-0.080	0.270
2020/01/31 09:12:46.0	316.120	-0.450	-0.120	0.220
2020/01/31 09:12:46.1	316.120	-0.440	-0.170	0.160
2020/01/31 09:12:46.2	316.130	-0.420	-0.210	0.110
2020/01/31 09:12:46.3	316.140	-0.410	-0.260	0.060
2020/01/31 09:12:46.4	316.150	-0.400	-0.300	0.010
2020/01/31 09:12:46.5	316.150	-0.380	-0.350	-0.040
2020/01/31 09:12:46.6	316.160	-0.360	-0.390	-0.080
2020/01/31 09:12:46.7	316.170	-0.350	-0.440	-0.130
2020/01/31 09:12:46.8	316.180	-0.330	-0.480	-0.170
2020/01/31 09:12:46.9	316.180	-0.310	-0.520	-0.210
2020/01/31 09:12:47.0	316.190	-0.290	-0.550	-0.240
2020/01/31 09:12:47.1	316.200	-0.270	-0.590	-0.280
2020/01/31 09:12:47.2	316.210	-0.250	-0.620	-0.310
2020/01/31 09:12:47.3	316.210	-0.230	-0.650	-0.340
2020/01/31 09:12:47.4	316.220	-0.210	-0.680	-0.360
2020/01/31 09:12:47.5	316.220	-0.190	-0.710	-0.380
2020/01/31 09:12:47.6	316.230	-0.170	-0.730	-0.400
2020/01/31 09:12:47.7	316.230	-0.150	-0.750	-0.420
2020/01/31 09:12:47.8	316.240	-0.140	-0.760	-0.430
2020/01/31 09:12:47.9	316.240	-0.120	-0.770	-0.430
2020/01/31 09:12:48.0	316.250	-0.100	-0.780	-0.440
2020/01/31 09:12:48.1	316.250	-0.080	-0.790	-0.440
2020/01/31 09:12:48.2	316.250	-0.060	-0.790	-0.430
2020/01/31 09:12:48.3	316.250	-0.050	-0.780	-0.420
2020/01/31 09:12:48.4	316.250	-0.030	-0.780	-0.410
2020/01/31 09:12:48.5	316.250	-0.010	-0.770	-0.390
2020/01/31 09:12:48.6	316.250	0.000	-0.760	-0.370
2020/01/31 09:12:48.7	316.250	0.020	-0.750	-0.350
2020/01/31 09:12:48.8	316.240	0.030	-0.730	-0.320
2020/01/31 09:12:48.9	316.240	0.040	-0.720	-0.300
2020/01/31 09:12:49.0	316.240	0.060	-0.700	-0.270
2020/01/31 09:12:49.1	316.230	0.070	-0.680	-0.230
2020/01/31 09:12:49.2	316.230	0.080	-0.660	-0.200
2020/01/31 09:12:49.3	316.220	0.090	-0.640	-0.160
2020/01/31 09:12:49.4	316.220	0.100	-0.610	-0.120
2020/01/31 09:12:49.5	316.210	0.110	-0.590	-0.080
2020/01/31 09:12:49.6	316.210	0.120	-0.570	-0.040
2020/01/31 09:12:49.7	316.200	0.130	-0.550	0.000
2020/01/31 09:12:49.8	316.190	0.140	-0.530	0.050
2020/01/31 09:12:49.9	316.180	0.150	-0.510	0.090
2020/01/31 09:12:50.0	316.170	0.150	-0.490	0.130
2020/01/31 09:12:50.1	316.160	0.160	-0.470	0.180
2020/01/31 09:12:50.2	316.150	0.170	-0.450	0.220
2020/01/31 09:12:50.3	316.150	0.170	-0.430	0.270
2020/01/31 09:12:50.4	316.140	0.170	-0.410	0.310
2020/01/31 09:12:50.5	316.130	0.180	-0.400	0.360
2020/01/31 09:12:50.6	316.130	0.180	-0.390	0.400
2020/01/31 09:12:50.7	316.120	0.180	-0.370	0.440
2020/01/31 09:12:50.8	316.110	0.190	-0.360	0.480
2020/01/31 09:12:50.9	316.110	0.190	-0.360	0.520
2020/01/31 09:12:51.0	316.110	0.190	-0.350	0.560
2020/01/31 09:12:51.1	316.110	0.190	-0.350	0.600
2020/01/31 09:12:51.2	316.110	0.190	-0.350	0.630
2020/01/31 09:12:51.3	316.110	0.190	-0.350	0.670
2020/01/31 09:12:51.4	316.120	0.190	-0.350	0.700
2020/01/31 09:12:51.5	316.120	0.190	-0.350	0.730
2020/01/31 09:12:51.6	316.130	0.190	-0.360	0.760
2020/01/31 09:12:51.7	316.140	0.190	-0.360	0.790
2020/01/31 09:12:51.8	316.150	0.190	-0.370	0.810
2020/01/31 09:12:51.9	316.160	0.190	-0.380	0.840
2020/01/31 09:12:52.0	316.170	0.190	-0.380	0.860
2020/01/31 09:12:52.1	316.180	0.190	-0.390	0.880
2020/01/31 09:12:52.2	316.190	0.190	-0.400	0.900
2020/01/31 09:12:52.3	316.210	0.190	-0.400	0.920
2020/01/31 09:12:52.4	316.220	0.190	-0.410	0.930
2020/01/31 09:12:52.5	316.230	0.190	-0.410	0.950
2020/01/31 09:12:52.6	316.240	0.190	-0.410	0.970
2020/01/31 09:12:52.7	316.260	0.190	-0.410	0.980
2020/01/31 09:12:52.8	316.270	0.190	-0.410	1.000
2020/01/31 09:12:52.9	316.280	0.190	-0.410	1.010
2020/01/31 09:12:53.0	316.290	0.190	-0.400	1.030
2020/01/31 09:12:53.1	316.300	0.190	-0.390	1.050
2020/01/31 09:12:53.2	316.310	0.190	-0.380	1.060
2020/01/31 09:12:53.3	316.320	0.190	-0.370	1.080
2020/01/31 09:12:53.4	316.330	0.190	-0.360	1.100
2020/01/31 09:12:53.5	316.330	0.190	-0.340	1.110
2020/01/31 09:12:53.6	316.340	0.190	-0.320	1.130
2020/01/31 09:12:53.7	316.340	0.190	-0.300	1.140
2020/01/31 09:12:53.8	316.340	0.190	-0.280	1.150
2020/01/31 09:12:53.9	316.340	0.180	-0.250	1.160
2020/01/31 09:12:54.0	316.340	0.180	-0.230	1.170
2020/01/31 09:12:54.1	316.340	0.180	-0.200	1.170
2020/01/31 09:12:54.2	316.340	0.180	-0.180	1.180
2020/01/31 09:12:54.3	316.340	0.170	-0.150	1.180
2020/01/31 09:12:54.4	316.340	0.170	-0.130	1.170
2020/01/31 09:12:54.5	316.340	0.160	-0.110	1.170
2020/01/31 09:12:54.6	316.340	0.150	-0.090	1.150
2020/01/31 09:12:54.7	316.340	0.150	-0.070	1.140
2020/01/31 09:12:54.8	316.340	0.140	-0.050	1.120
2020/01/31 09:12:54.9	316.340	0.130	-0.040	1.090
2020/01/31 09:12:55.0	316.350	0.120	-0.020	1.060
2020/01/31 09:12:55.1	316.360	0.110	-0.010	1.030
2020/01/31 09:12:55.2	316.360	0.100	-0.000	1.000
2020/01/31 09:12:55.3	316.370	0.090	0.000	0.960
2020/01/31 09:12:55.4	316.390	0.080	0.010	0.910
2020/01/31 09:12:55.5	316.390	0.060	0.010	0.870
2020/01/31 09:12:55.6	316.410	0.050	0.010	0.820
2020/01/31 09:12:55.7	316.420	0.040	0.010	0.780
2020/01/31 09:12:55.8	316.430	0.030	0.000	0.730
2020/01/31 09:12:55.9	316.440	0.020	-0.000	0.680
2020/01/31 09:12:56.0	316.450	0.010	-0.010	0.630
2020/01/31 09:12:56.1	316.460	-0.010	-0.020	0.580
2020/01/31 09:12:56.2	316.470	-0.020	-0.030	0.530
2020/01/31 09:12:56.3	316.480	-0.030	-0.030	0.480
2020/01/31 09:12:56.4	316.490	-0.040	-0.040	0.440
2020/01/31 09:12:56.5	316.490	-0.050	-0.050	0.390
2020/01/31 09:12:56.6	316.500	-0.060	-0.050	0.360
2020/01/31 09:12:56.7	316.500	-0.060	-0.060	0.320
2020/01/31 09:12:56.8	316.500	-0.070	-0.060	0.290
2020/01/31 09:12:56.9	316.500	-0.080	-0.060	0.260
2020/01/31 09:12:57.0	316.490	-0.090	-0.050	0.230
2020/01/31 09:12:57.1	316.480	-0.090	-0.050	0.210
2020/01/31 09:12:57.2	316.470	-0.100	-0.040	0.190
2020/01/31 09:12:57.3	316.460	-0.100	-0.030	0.180
2020/01/31 09:12:57.4	316.440	-0.110	-0.030	0.170
2020/01/31 09:12:57.5	316.420	-0.110	-0.010	0.170
2020/01/31 09:12:57.6	316.400	-0.120	0.000	0.160
2020/01/31 09:12:57.7	316.380	-0.120	0.020	0.170
2020/01/31 09:12:57.8	316.360	-0.120	0.030	0.170
2020/01/31 09:12:57.9	316.330	-0.120	0.040	0.180
2020/01/31 09:12:58.0	316.310	-0.120	0.060	0.190
2020/01/31 09:12:58.1	316.280	-0.130	0.070	0.200
2020/01/31 09:12:58.2	316.250	-0.130	0.090	0.210
2020/01/31 09:12:58.3	316.230	-0.130	0.100	0.230
2020/01/31 09:12:58.4	316.200	-0.130	0.110	0.240
2020/01/31 09:12:58.5	316.170	-0.130	0.120	0.260
2020/01/31 09:12:58.6	316.140	-0.130	0.120	0.270
2020/01/31 09:12:58.7	316.120	-0.130	0.120	0.280
2020/01/31 09:12:58.8	316.090	-0.130	0.120	0.290
2020/01/31 09:12:58.9	316.060	-0.130	0.120	0.300
2020/01/31 09:12:59.0	316.040	-0.120	0.110	0.310
2020/01/31 09:12:59.1	316.010	-0.120	0.110	0.310
2020/01/31 09:12:59.2	315.990	-0.120	0.090	0.320
2020/01/31 09:12:59.3	315.970	-0.120	0.080	0.320
2020/01/31 09:12:59.4	315.950	-0.120	0.060	0.320
2020/01/31 09:12:59.5	315.930	-0.120	0.040	0.320
2020/01/31 09:12:59.6	315.910	-0.120	0.020	0.310
2020/01/31 09:12:59.7	315.890	-0.120	-0.010	0.300
2020/01/31 09:12:59.8	315.880	-0.120	-0.040	0.290
2020/01/31 09:12:59.9	315.860	-0.120	-0.060	0.280
2020/01/31 09:13:00.0	315.850	-0.120	-0.090	0.260
2020/01/31 09:13:00.1	315.840	-0.120	-0.120	0.250
2020/01/31 09:13:00.2	315.830	-0.120	-0.160	0.230
2020/01/31 09:13:00.3	315.830	-0.120	-0.190	0.210
2020/01/31 09:13:00.4	315.820	-0.120	-0.220	0.180
2020/01/31 09:13:00.5	315.820	-0.120	-0.250	0.160
2020/01/31 09:13:00.6	315.820	-0.120	-0.280	0.140
2020/01/31 09:13:00.7	315.820	-0.120	-0.310	0.110
2020/01/31 09:13:00.8	315.820	-0.120	-0.340	0.090
2020/01/31 09:13:00.9	315.830	-0.120	-0.360	0.060
2020/01/31 09:13:01.0	315.830	-0.130	-0.390	0.030
2020/01/31 09:13:01.1	315.840	-0.130	-0.410	0.010
2020/01/31 09:13:01.2	315.850	-0.130	-0.430	-0.020
2020/01/31 09:13:01.3	315.860	-0.130	-0.450	-0.040
2020/01/31 09:13:01.4	315.870	-0.140	-0.470	-0.060
2020/01/31 09:13:01.5	315.890	-0.140	-0.480	-0.090
2020/01/31 09:13:01.6	315.910	-0.140	-0.490	-0.110
2020/01/31 09:13:01.7	315.930	-0.150	-0.500	-0.130
2020/01/31 09:13:01.8	315.950	-0.150	-0.500	-0.160
2020/01/31 09:13:01.9	315.980	-0.150	-0.510	-0.180
2020/01/31 09:13:02.0	316.010	-0.150	-0.510	-0.200
2020/01/31 09:13:02.1	316.040	-0.160	-0.500	-0.220
2020/01/31 09:13:02.2	316.070	-0.160	-0.500	-0.240
2020/01/31 09:13:02.3	316.100	-0.160	-0.490	-0.250
2020/01/31 09:13:02.4	316.130	-0.160	-0.490	-0.270
2020/01/31 09:13:02.5	316.170	-0.160	-0.480	-0.280
2020/01/31 09:13:02.6	316.200	-0.160	-0.470	-0.290
2020/01/31 09:13:02.7	316.240	-0.160	-0.450	-0.300
2020/01/31 09:13:02.8	316.270	-0.170	-0.430	-0.300
2020/01/31 09:13:02.9	316.310	-0.160	-0.410	-0.310
2020/01/31 09:13:03.0	316.340	-0.160	-0.390	-0.300
2020/01/31 09:13:03.1	316.370	-0.160	-0.370	-0.300
2020/01/31 09:13:03.2	316.400	-0.160	-0.350	-0.290
2020/01/31 09:13:03.3	316.430	-0.160	-0.320	-0.280
2020/01/31 09:13:03.4	316.450	-0.150	-0.300	-0.260
2020/01/31 09:13:03.5	316.470	-0.150	-0.270	-0.240
2020/01/31 09:13:03.6	316.490	-0.150	-0.240	-0.210
2020/01/31 09:13:03.7	316.510	-0.140	-0.210	-0.180
2020/01/31 09:13:03.8	316.520	-0.130	-0.190	-0.150
2020/01/31 09:13:03.9	316.530	-0.130	-0.160	-0.110
2020/01/31 09:13:04.0	316.540	-0.120	-0.130	-0.060
2020/01/31 09:13:04.1	316.540	-0.110	-0.100	-0.020
2020/01/31 09:13:04.2	316.540	-0.100	-0.080	0.030
2020/01/31 09:13:04.3	316.530	-0.090	-0.050	0.090
2020/01/31 09:13:04.4	316.520	-0.080	-0.030	0.150
2020/01/31 09:13:04.5	316.510	-0.060	-0.010	0.200
2020/01/31 09:13:04.6	316.500	-0.050	0.000	0.260
2020/01/31 09:13:04.7	316.480	-0.030	0.020	0.320
2020/01/31 09:13:04.8	316.460	-0.020	0.020	0.380
2020/01/31 09:13:04.9	316.440	-0.000	0.030	0.440
2020/01/31 09:13:05.0	316.420	0.020	0.030	0.500
2020/01/31 09:13:05.1	316.400	0.030	0.030	0.560
2020/01/31 09:13:05.2	316.370	0.050	0.030	0.610
2020/01/31 09:13:05.3	316.350	0.070	0.020	0.670
2020/01/31 09:13:05.4	316.330	0.090	0.000	0.730
2020/01/31 09:13:05.5	316.300	0.110	-0.020	0.780
2020/01/31 09:13:05.6	316.280	0.130	-0.040	0.820
2020/01/31 09:13:05.7	316.250	0.160	-0.060	0.870
2020/01/31 09:13:05.8	316.230	0.180	-0.090	0.910
2020/01/31 09:13:05.9	316.200	0.200	-0.120	0.950
2020/01/31 09:13:06.0	316.180	0.220	-0.160	0.990
2020/01/31 09:13:06.1	316.150	0.240	-0.200	1.020
2020/01/31 09:13:06.2	316.130	0.260	-0.240	1.050
2020/01/31 09:13:06.3	316.100	0.280	-0.280	1.070
2020/01/31 09:13:06.4	316.080	0.300	-0.330	1.090
2020/01/31 09:13:06.5	316.060	0.310	-0.370	1.100
2020/01/31 09:13:06.6	316.040	0.330	-0.420	1.110
2020/01/31 09:13:06.7	316.020	0.340	-0.460	1.110
2020/01/31 09:13:06.8	316.000	0.350	-0.510	1.110
2020/01/31 09:13:06.9	315.980	0.360	-0.550	1.100
2020/01/31 09:13:07.0	315.960	0.370	-0.600	1.090
2020/01/31 09:13:07.1	315.940	0.370	-0.640	1.080
2020/01/31 09:13:07.2	315.930	0.380	-0.680	1.060
2020/01/31 09:13:07.3	315.920	0.380	-0.720	1.040
2020/01/31 09:13:07.4	315.910	0.380	-0.750	1.010
2020/01/31 09:13:07.5	315.890	0.370	-0.790	0.980
2020/01/31 09:13:07.6	315.880	0.370	-0.810	0.950
2020/01/31 09:13:07.7	315.870	0.360	-0.840	0.910
2020/01/31 09:13:07.8	315.860	0.350	-0.860	0.880
2020/01/31 09:13:07.9	315.860	0.330	-0.880	0.840
2020/01/31 09:13:08.0	315.850	0.320	-0.890	0.800
2020/01/31 09:13:08.1	315.850	0.300	-0.900	0.760
2020/01/31 09:13:08.2	315.850	0.280	-0.900	0.720
2020/01/31 09:13:08.3	315.840	0.260	-0.900	0.670
2020/01/31 09:13:08.4	315.850	0.240	-0.890	0.630
2020/01/31 09:13:08.5	315.850	0.220	-0.890	0.590
2020/01/31 09:13:08.6	315.850	0.200	-0.870	0.550
2020/01/31 09:13:08.7	315.860	0.170	-0.860	0.510
2020/01/31 09:13:08.8	315.870	0.150	-0.840	0.460
2020/01/31 09:13:08.9	315.880	0.120	-0.810	0.420
2020/01/31 09:13:09.0	315.890	0.100	-0.780	0.380
2020/01/31 09:13:09.1	315.910	0.070	-0.760	0.340
2020/01/31 09:13:09.2	315.920	0.050	-0.720	0.300
2020/01/31 09:13:09.3	315.940	0.030	-0.690	0.260
2020/01/31 09:13:09.4	315.960	0.000	-0.650	0.220
2020/01/31 09:13:09.5	315.980	-0.020	-0.610	0.180
2020/01/31 09:13:09.6	316.000	-0.040	-0.570	0.140
2020/01/31 09:13:09.7	316.020	-0.060	-0.530	0.110
2020/01/31 09:13:09.8	316.050	-0.080	-0.480	0.080
2020/01/31 09:13:09.9	316.070	-0.100	-0.440	0.050
2020/01/31 09:13:10.0	316.090	-0.120	-0.390	0.020
2020/01/31 09:13:10.1	316.120	-0.130	-0.340	0.000
2020/01/31 09:13:10.2	316.140	-0.150	-0.290	-0.020
2020/01/31 09:13:10.3	316.160	-0.160	-0.240	-0.030
2020/01/31 09:13:10.4	316.180	-0.170	-0.200	-0.040
2020/01/31 09:13:10.5	316.200	-0.190	-0.150	-0.050
2020/01/31 09:13:10.6	316.220	-0.190	-0.100	-0.060
2020/01/31 09:13:10.7	316.230	-0.200	-0.050	-0.060
2020/01/31 09:13:10.8	316.250	-0.210	0.000	-0.060
2020/01/31 09:13:10.9	316.270	-0.220	0.050	-0.060
2020/01/31 09:13:11.0	316.280	-0.220	0.100	-0.050
2020/01/31 09:13:11.1	316.290	-0.230	0.150	-0.040
2020/01/31 09:13:11.2	316.310	-0.230	0.190	-0.030
2020/01/31 09:13:11.3	316.320	-0.230	0.240	-0.020
2020/01/31 09:13:11.4	316.340	-0.230	0.280	-0.010
2020/01/31 09:13:11.5	316.350	-0.230	0.320	0.000
2020/01/31 09:13:11.6	316.360	-0.230	0.350	0.020
2020/01/31 09:13:11.7	316.370	-0.230	0.390	0.030
2020/01/31 09:13:11.8	316.380	-0.230	0.410	0.040
2020/01/31 09:13:11.9	316.390	-0.230	0.440	0.060
2020/01/31 09:13:12.0	316.390	-0.230	0.460	0.070
2020/01/31 09:13:12.1	316.400	-0.230	0.480	0.090
2020/01/31 09:13:12.2	316.400	-0.220	0.500	0.100
2020/01/31 09:13:12.3	316.410	-0.220	0.520	0.120
2020/01/31 09:13:12.4	316.410	-0.220	0.520	0.140
2020/01/31 09:13:12.5	316.410	-0.210	0.530	0.150
2020/01/31 09:13:12.6	316.400	-0.210	0.540	0.160
2020/01/31 09:13:12.7	316.400	-0.210	0.540	0.180
2020/01/31 09:13:12.8	316.390	-0.200	0.540	0.190
2020/01/31 09:13:12.9	316.380	-0.200	0.540	0.200
2020/01/31 09:13:13.0	316.370	-0.190	0.530	0.220
2020/01/31 09:13:13.1	316.360	-0.190	0.520	0.230
2020/01/31 09:13:13.2	316.350	-0.180	0.520	0.240
2020/01/31 09:13:13.3	316.330	-0.180	0.500	0.250
2020/01/31 09:13:13.4	316.310	-0.170	0.490	0.260
2020/01/31 09:13:13.5	316.290	-0.160	0.480	0.270
2020/01/31 09:13:13.6	316.270	-0.150	0.460	0.280
2020/01/31 09:13:13.7	316.240	-0.150	0.440	0.290
2020/01/31 09:13:13.8	316.220	-0.140	0.420	0.290
2020/01/31 09:13:13.9	316.200	-0.130	0.390	0.300
2020/01/31 09:13:14.0	316.170	-0.120	0.370	0.310
2020/01/31 09:13:14.1	316.150	-0.110	0.340	0.310
2020/01/31 09:13:14.2	316.120	-0.090	0.310	0.320
2020/01/31 09:13:14.3	316.090	-0.080	0.280	0.330
2020/01/31 09:13:14.4	316.060	-0.070	0.250	0.330
2020/01/31 09:13:14.5	316.030	-0.060	0.220	0.340
2020/01/31 09:13:14.6	316.000	-0.040	0.190	0.350
2020/01/31 09:13:14.7	315.970	-0.030	0.160	0.360
2020/01/31 09:13:14.8	315.940	-0.010	0.130	0.370
2020/01/31 09:13:14.9	315.910	0.000	0.100	0.380
2020/01/31 09:13:15.0	315.880	0.020	0.060	0.400
2020/01/31 09:13:15.1	315.840	0.030	0.030	0.410
2020/01/31 09:13:15.2	315.810	0.050	0.000	0.430
2020/01/31 09:13:15.3	315.770	0.060	-0.030	0.450
2020/01/31 09:13:15.4	315.730	0.080	-0.060	0.470
2020/01/31 09:13:15.5	315.690	0.090	-0.090	0.490
2020/01/31 09:13:15.6	315.660	0.100	-0.120	0.510
2020/01/31 09:13:15.7	315.620	0.120	-0.150	0.530
2020/01/31 09:13:15.8	315.590	0.130	-0.190	0.550
2020/01/31 09:13:15.9	315.550	0.140	-0.220	0.570
2020/01/31 09:13:16.0	315.520	0.160	-0.250	0.590
2020/01/31 09:13:16.1	315.490	0.170	-0.280	0.610
2020/01/31 09:13:16.2	315.460	0.180	-0.310	0.620
2020/01/31 09:13:16.3	315.430	0.190	-0.340	0.640
2020/01/31 09:13:16.4	315.400	0.200	-0.370	0.650
2020/01/31 09:13:16.5	315.380	0.210	-0.410	0.660
2020/01/31 09:13:16.6	315.360	0.220	-0.440	0.670
2020/01/31 09:13:16.7	315.340	0.220	-0.470	0.680
2020/01/31 09:13:16.8	315.330	0.230	-0.500	0.680
2020/01/31 09:13:16.9	315.310	0.240	-0.540	0.690
2020/01/31 09:13:17.0	315.300	0.240	-0.570	0.680
2020/01/31 09:13:17.1	315.290	0.250	-0.600	0.680
2020/01/31 09:13:17.2	315.290	0.250	-0.640	0.680
2020/01/31 09:13:17.3	315.280	0.250	-0.670	0.670
2020/01/31 09:13:17.4	315.280	0.250	-0.700	0.670
2020/01/31 09:13:17.5	315.280	0.250	-0.730	0.660
2020/01/31 09:13:17.6	315.280	0.250	-0.760	0.650
2020/01/31 09:13:17.7	315.290	0.250	-0.780	0.640
2020/01/31 09:13:17.8	315.290	0.250	-0.800	0.620
2020/01/31 09:13:17.9	315.300	0.250	-0.830	0.610
2020/01/31 09:13:18.0	315.310	0.240	-0.850	0.600
2020/01/31 09:13:18.1	315.320	0.240	-0.860	0.590
2020/01/31 09:13:18.2	315.330	0.230	-0.880	0.570
2020/01/31 09:13:18.3	315.340	0.220	-0.890	0.560
2020/01/31 09:13:18.4	315.360	0.210	-0.900	0.540
2020/01/31 09:13:18.5	315.380	0.200	-0.920	0.520
2020/01/31 09:13:18.6	315.400	0.190	-0.930	0.500
2020/01/31 09:13:18.7	315.420	0.180	-0.930	0.480
2020/01/31 09:13:18.8	315.440	0.170	-0.940	0.460
2020/01/31 09:13:18.9	315.460	0.160	-0.950	0.440
2020/01/31 09:13:19.0	315.490	0.150	-0.950	0.410
2020/01/31 09:13:19.1	315.510	0.140	-0.960	0.390
2020/01/31 09:13:19.2	315.540	0.120	-0.960	0.360
2020/01/31 09:13:19.3	315.560	0.110	-0.960	0.330
2020/01/31 09:13:19.4	315.590	0.100	-0.960	0.310
2020/01/31 09:13:19.5	315.610	0.080	-0.960	0.280
2020/01/31 09:13:19.6	315.640	0.070	-0.960	0.250
2020/01/31 09:13:19.7	315.660	0.060	-0.960	0.220
2020/01/31 09:13:19.8	315.680	0.040	-0.950	0.190
2020/01/31 09:13:19.9	315.700	0.030	-0.950	0.170
2020/01/31 09:13:20.0	315.730	0.020	-0.940	0.140
2020/01/31 09:13:20.1	315.740	0.010	-0.930	0.110
2020/01/31 09:13:20.2	315.760	-0.000	-0.910	0.090
2020/01/31 09:13:20.3	315.780	-0.020	-0.900	0.060
2020/01/31 09:13:20.4	315.790	-0.030	-0.880	0.040
2020/01/31 09:13:20.5	315.810	-0.040	-0.860	0.010
2020/01/31 09:13:20.6	315.820	-0.050	-0.840	-0.010
2020/01/31 09:13:20.7	315.840	-0.060	-0.810	-0.030
2020/01/31 09:13:20.8	315.850	-0.070	-0.790	-0.050
2020/01/31 09:13:20.9	315.860	-0.080	-0.760	-0.060
2020/01/31 09:13:21.0	315.870	-0.090	-0.720	-0.080
2020/01/31 09:13:21.1	315.880	-0.100	-0.690	-0.100
2020/01/31 09:13:21.2	315.890	-0.110	-0.660	-0.120
2020/01/31 09:13:21.3	315.900	-0.120	-0.620	-0.130
2020/01/31 09:13:21.4	315.910	-0.120	-0.580	-0.140
2020/01/31 09:13:21.5	315.920	-0.130	-0.540	-0.160
2020/01/31 09:13:21.6	315.930	-0.140	-0.490	-0.170
2020/01/31 09:13:21.7	315.940	-0.150	-0.450	-0.180
2020/01/31 09:13:21.8	315.950	-0.160	-0.410	-0.190
2020/01/31 09:13:21.9	315.960	-0.170	-0.360	-0.200
2020/01/31 09:13:22.0	315.970	-0.180	-0.310	-0.210
2020/01/31 09:13:22.1	315.980	-0.190	-0.270	-0.220
2020/01/31 09:13:22.2	315.990	-0.200	-0.220	-0.230
2020/01/31 09:13:22.3	315.990	-0.210	-0.170	-0.230
2020/01/31 09:13:22.4	316.010	-0.210	-0.120	-0.230
2020/01/31 09:13:22.5	316.010	-0.220	-0.070	-0.230
2020/01/31 09:13:22.6	316.020	-0.230	-0.020	-0.230
2020/01/31 09:13:22.7	316.020	-0.240	0.030	-0.230
2020/01/31 09:13:22.8	316.030	-0.250	0.080	-0.230
2020/01/31 09:13:22.9	316.030	-0.250	0.130	-0.220
2020/01/31 09:13:23.0	316.030	-0.260	0.180	-0.210
2020/01/31 09:13:23.1	316.030	-0.270	0.240	-0.200
2020/01/31 09:13:23.2	316.030	-0.270	0.290	-0.180
2020/01/31 09:13:23.3	316.030	-0.280	0.340	-0.160
2020/01/31 09:13:23.4	316.020	-0.280	0.390	-0.140
2020/01/31 09:13:23.5	316.020	-0.290	0.440	-0.120
2020/01/31 09:13:23.6	316.010	-0.300	0.490	-0.090
2020/01/31 09:13:23.7	316.000	-0.300	0.540	-0.060
2020/01/31 09:13:23.8	315.980	-0.300	0.590	-0.030
2020/01/31 09:13:23.9	315.970	-0.310	0.640	0.010
2020/01/31 09:13:24.0	315.950	-0.310	0.680	0.040
2020/01/31 09:13:24.1	315.930	-0.320	0.720	0.080
2020/01/31 09:13:24.2	315.910	-0.320	0.760	0.130
2020/01/31 09:13:24.3	315.890	-0.320	0.800	0.170
2020/01/31 09:13:24.4	315.880	-0.320	0.830	0.220
2020/01/31 09:13:24.5	315.860	-0.320	0.860	0.260
2020/01/31 09:13:24.6	315.830	-0.320	0.890	0.310
2020/01/31 09:13:24.7	315.810	-0.320	0.910	0.360
2020/01/31 09:13:24.8	315.780	-0.320	0.920	0.400
2020/01/31 09:13:24.9	315.760	-0.310	0.930	0.450
2020/01/31 09:13:25.0	315.730	-0.310	0.940	0.500
2020/01/31 09:13:25.1	315.710	-0.300	0.940	0.550
2020/01/31 09:13:25.2	315.680	-0.300	0.930	0.590
2020/01/31 09:13:25.3	315.650	-0.290	0.920	0.640
2020/01/31 09:13:25.4	315.630	-0.280	0.900	0.690
2020/01/31 09:13:25.5	315.600	-0.270	0.880	0.730
2020/01/31 09:13:25.6	315.580	-0.250	0.860	0.780
2020/01/31 09:13:25.7	315.550	-0.240	0.830	0.820
2020/01/31 09:13:25.8	315.530	-0.220	0.790	0.870
2020/01/31 09:13:25.9	315.510	-0.210	0.750	0.910
2020/01/31 09:13:26.0	315.490	-0.190	0.710	0.950
2020/01/31 09:13:26.1	315.470	-0.170	0.660	0.990
2020/01/31 09:13:26.2	315.450	-0.150	0.610	1.030
2020/01/31 09:13:26.3	315.430	-0.120	0.550	1.070
2020/01/31 09:13:26.4	315.420	-0.100	0.490	1.100
2020/01/31 09:13:26.5	315.410	-0.080	0.420	1.130
2020/01/31 09:13:26.6	315.390	-0.050	0.350	1.160
2020/01/31 09:13:26.7	315.380	-0.020	0.270	1.190
2020/01/31 09:13:26.8	315.380	0.000	0.200	1.200
2020/01/31 09:13:26.9	315.370	0.030	0.120	1.220
2020/01/31 09:13:27.0	315.370	0.060	0.030	1.230
2020/01/31 09:13:27.1	315.370	0.090	-0.050	1.240
2020/01/31 09:13:27.2	315.370	0.120	-0.130	1.240
2020/01/31 09:13:27.3	315.370	0.150	-0.220	1.240
2020/01/31 09:13:27.4	315.380	0.180	-0.310	1.230
2020/01/31 09:13:27.5	315.390	0.220	-0.390	1.220
2020/01/31 09:13:27.6	315.400	0.250	-0.470	1.210
2020/01/31 09:13:27.7	315.410	0.280	-0.550	1.190
2020/01/31 09:13:27.8	315.420	0.310	-0.630	1.170
2020/01/31 09:13:27.9	315.440	0.340	-0.700	1.140
2020/01/31 09:13:28.0	315.450	0.370	-0.770	1.120
2020/01/31 09:13:28.1	315.470	0.400	-0.840	1.090
2020/01/31 09:13:28.2	315.490	0.420	-0.900	1.060
2020/01/31 09:13:28.3	315.510	0.450	-0.960	1.030
2020/01/31 09:13:28.4	315.540	0.480	-1.010	0.990
2020/01/31 09:13:28.5	315.560	0.500	-1.050	0.960
2020/01/31 09:13:28.6	315.590	0.530	-1.090	0.930
2020/01/31 09:13:28.7	315.610	0.550	-1.130	0.890
2020/01/31 09:13:28.8	315.630	0.570	-1.160	0.850
2020/01/31 09:13:28.9	315.650	0.590	-1.180	0.820
2020/01/31 09:13:29.0	315.680	0.600	-1.200	0.780
2020/01/31 09:13:29.1	315.700	0.620	-1.210	0.750
2020/01/31 09:13:29.2	315.720	0.630	-1.220	0.710
2020/01/31 09:13:29.3	315.750	0.640	-1.220	0.680
2020/01/31 09:13:29.4	315.770	0.650	-1.220	0.650
2020/01/31 09:13:29.5	315.790	0.660	-1.220	0.610
2020/01/31 09:13:29.6	315.820	0.660	-1.210	0.580
2020/01/31 09:13:29.7	315.840	0.660	-1.200	0.550
2020/01/31 09:13:29.8	315.860	0.660	-1.180	0.520
2020/01/31 09:13:29.9	315.880	0.650	-1.170	0.490
2020/01/31 09:13:30.0	315.900	0.650	-1.150	0.470
2020/01/31 09:13:30.1	315.920	0.640	-1.130	0.440
2020/01/31 09:13:30.2	315.940	0.620	-1.100	0.410
2020/01/31 09:13:30.3	315.960	0.610	-1.080	0.390
2020/01/31 09:13:30.4	315.980	0.590	-1.050	0.360
2020/01/31 09:13:30.5	315.990	0.570	-1.020	0.340
2020/01/31 09:13:30.6	316.010	0.540	-0.990	0.310
2020/01/31 09:13:30.7	316.030	0.520	-0.960	0.290
2020/01/31 09:13:30.8	316.040	0.490	-0.930	0.260
2020/01/31 09:13:30.9	316.050	0.450	-0.900	0.230
2020/01/31 09:13:31.0	316.070	0.420	-0.870	0.210
2020/01/31 09:13:31.1	316.080	0.380	-0.830	0.180
2020/01/31 09:13:31.2	316.100	0.340	-0.800	0.160
2020/01/31 09:13:31.3	316.100	0.300	-0.760	0.130
2020/01/31 09:13:31.4	316.110	0.260	-0.720	0.100
2020/01/31 09:13:31.5	316.130	0.210	-0.690	0.080
2020/01/31 09:13:31.6	316.140	0.160	-0.650	0.050
2020/01/31 09:13:31.7	316.140	0.120	-0.610	0.030
2020/01/31 09:13:31.8	316.150	0.070	-0.570	0.010
2020/01/31 09:13:31.9	316.160	0.020	-0.530	-0.010
2020/01/31 09:13:32.0	316.160	-0.030	-0.480	-0.030
2020/01/31 09:13:32.1	316.170	-0.080	-0.440	-0.050
2020/01/31 09:13:32.2	316.170	-0.130	-0.400	-0.070
2020/01/31 09:13:32.3	316.170	-0.180	-0.350	-0.090
2020/01/31 09:13:32.4	316.170	-0.230	-0.310	-0.110
2020/01/31 09:13:32.5	316.170	-0.280	-0.260	-0.120
2020/01/31 09:13:32.6	316.170	-0.330	-0.220	-0.140
2020/01/31 09:13:32.7	316.170	-0.370	-0.170	-0.150
2020/01/31 09:13:32.8	316.170	-0.410	-0.130	-0.160
2020/01/31 09:13:32.9	316.170	-0.460	-0.080	-0.180
2020/01/31 09:13:33.0	316.170	-0.500	-0.040	-0.190
2020/01/31 09:13:33.1	316.180	-0.530	0.000	-0.200
2020/01/31 09:13:33.2	316.180	-0.570	0.040	-0.210
2020/01/31 09:13:33.3	316.180	-0.600	0.080	-0.220
2020/01/31 09:13:33.4	316.180	-0.630	0.110	-0.220
2020/01/31 09:13:33.5	316.180	-0.650	0.150	-0.230
2020/01/31 09:13:33.6	316.190	-0.670	0.180	-0.230
2020/01/31 09:13:33.7	316.190	-0.690	0.210	-0.240
2020/01/31 09:13:33.8	316.200	-0.710	0.240	-0.230
2020/01/31 09:13:33.9	316.200	-0.720	0.270	-0.230
2020/01/31 09:13:34.0	316.200	-0.730	0.290	-0.230
2020/01/31 09:13:34.1	316.210	-0.730	0.310	-0.220
2020/01/31 09:13:34.2	316.210	-0.740	0.330	-0.210
2020/01/31 09:13:34.3	316.210	-0.740	0.350	-0.190
2020/01/31 09:13:34.4	316.210	-0.730	0.370	-0.170
2020/01/31 09:13:34.5	316.210	-0.730	0.380	-0.150
2020/01/31 09:13:34.6	316.210	-0.720	0.390	-0.130
2020/01/31 09:13:34.7	316.210	-0.710	0.400	-0.100
2020/01/31 09:13:34.8	316.210	-0.700	0.410	-0.070
2020/01/31 09:13:34.9	316.200	-0.690	0.410	-0.040
2020/01/31 09:13:35.0	316.200	-0.670	0.410	-0.010
2020/01/31 09:13:35.1	316.200	-0.650	0.410	0.020
2020/01/31 09:13:35.2	316.190	-0.630	0.400	0.060
2020/01/31 09:13:35.3	316.190	-0.610	0.390	0.100
2020/01/31 09:13:35.4	316.190	-0.590	0.380	0.140
2020/01/31 09:13:35.5	316.180	-0.560	0.370	0.180
2020/01/31 09:13:35.6	316.180	-0.530	0.360	0.220
2020/01/31 09:13:35.7	316.170	-0.510	0.340	0.260
2020/01/31 09:13:35.8	316.170	-0.480	0.320	0.310
2020/01/31 09:13:35.9	316.160	-0.450	0.310	0.350
2020/01/31 09:13:36.0	316.160	-0.420	0.290	0.390
2020/01/31 09:13:36.1	316.150	-0.390	0.260	0.440
2020/01/31 09:13:36.2	316.150	-0.360	0.240	0.480
2020/01/31 09:13:36.3	316.140	-0.320	0.220	0.520
2020/01/31 09:13:36.4	316.140	-0.290	0.200	0.570
2020/01/31 09:13:36.5	316.130	-0.260	0.180	0.610
2020/01/31 09:13:36.6	316.120	-0.220	0.150	0.660
2020/01/31 09:13:36.7	316.110	-0.190	0.130	0.700
2020/01/31 09:13:36.8	316.100	-0.150	0.110	0.750
2020/01/31 09:13:36.9	316.080	-0.120	0.090	0.800
2020/01/31 09:13:37.0	316.070	-0.080	0.070	0.840
2020/01/31 09:13:37.1	316.060	-0.040	0.050	0.890
2020/01/31 09:13:37.2	316.040	-0.010	0.030	0.930
2020/01/31 09:13:37.3	316.020	0.020	0.010	0.980
2020/01/31 09:13:37.4	316.010	0.060	-0.010	1.020
2020/01/31 09:13:37.5	315.990	0.090	-0.030	1.060
2020/01/31 09:13:37.6	315.970	0.130	-0.050	1.100
2020/01/31 09:13:37.7	315.950	0.160	-0.060	1.140
2020/01/31 09:13:37.8	315.940	0.190	-0.080	1.180
2020/01/31 09:13:37.9	315.920	0.220	-0.100	1.210
2020/01/31 09:13:38.0	315.910	0.250	-0.120	1.230
2020/01/31 09:13:38.1	315.890	0.270	-0.140	1.250
2020/01/31 09:13:38.2	315.880	0.300	-0.170	1.270
2020/01/31 09:13:38.3	315.870	0.320	-0.190	1.290
2020/01/31 09:13:38.4	315.860	0.340	-0.210	1.290
2020/01/31 09:13:38.5	315.860	0.370	-0.240	1.290
2020/01/31 09:13:38.6	315.860	0.380	-0.270	1.280
2020/01/31 09:13:38.7	315.860	0.400	-0.300	1.270
2020/01/31 09:13:38.8	315.860	0.420	-0.330	1.250
2020/01/31 09:13:38.9	315.870	0.430	-0.360	1.220
2020/01/31 09:13:39.0	315.870	0.440	-0.390	1.190
2020/01/31 09:13:39.1	315.880	0.450	-0.420	1.150
2020/01/31 09:13:39.2	315.900	0.460	-0.450	1.100
2020/01/31 09:13:39.3	315.910	0.470	-0.480	1.050
2020/01/31 09:13:39.4	315.940	0.470	-0.520	1.000
2020/01/31 09:13:39.5	315.960	0.470	-0.550	0.940
2020/01/31 09:13:39.6	315.980	0.470	-0.580	0.870
2020/01/31 09:13:39.7	316.000	0.470	-0.600	0.810
2020/01/31 09:13:39.8	316.020	0.470	-0.630	0.740
2020/01/31 09:13:39.9	316.050	0.470	-0.650	0.670
2020/01/31 09:13:40.0	316.070	0.460	-0.670	0.600
2020/01/31 09:13:40.1	316.100	0.450	-0.680	0.530
2020/01/31 09:13:40.2	316.120	0.440	-0.700	0.460
2020/01/31 09:13:40.3	316.140	0.430	-0.710	0.390
2020/01/31 09:13:40.4	316.170	0.420	-0.720	0.320
2020/01/31 09:13:40.5	316.190	0.410	-0.720	0.250
2020/01/31 09:13:40.6	316.220	0.390	-0.720	0.180
2020/01/31 09:13:40.7	316.240	0.380	-0.710	0.120
2020/01/31 09:13:40.8	316.260	0.360	-0.700	0.060
2020/01/31 09:13:40.9	316.280	0.340	-0.690	0.000
2020/01/31 09:13:41.0	316.300	0.330	-0.680	-0.050
2020/01/31 09:13:41.1	316.320	0.310	-0.660	-0.100
2020/01/31 09:13:41.2	316.340	0.290	-0.640	-0.150
2020/01/31 09:13:41.3	316.360	0.270	-0.610	-0.190
2020/01/31 09:13:41.4	316.380	0.250	-0.590	-0.230
2020/01/31 09:13:41.5	316.390	0.230	-0.570	-0.270
2020/01/31 09:13:41.6	316.410	0.210	-0.540	-0.300
2020/01/31 09:13:41.7	316.430	0.200	-0.510	-0.330
2020/01/31 09:13:41.8	316.450	0.180	-0.470	-0.350
2020/01/31 09:13:41.9	316.470	0.160	-0.440	-0.370
2020/01/31 09:13:42.0	316.490	0.140	-0.410	-0.390
2020/01/31 09:13:42.1	316.500	0.130	-0.380	-0.410
2020/01/31 09:13:42.2	316.520	0.110	-0.350	-0.420
2020/01/31 09:13:42.3	316.540	0.100	-0.320	-0.430
2020/01/31 09:13:42.4	316.560	0.090	-0.290	-0.430
2020/01/31 09:13:42.5	316.580	0.070	-0.270	-0.440
2020/01/31 09:13:42.6	316.600	0.060	-0.250	-0.440
2020/01/31 09:13:42.7	316.610	0.050	-0.220	-0.430
2020/01/31 09:13:42.8	316.630	0.040	-0.210	-0.430
2020/01/31 09:13:42.9	316.640	0.030	-0.190	-0.420
2020/01/31 09:13:43.0	316.660	0.030	-0.170	-0.410
2020/01/31 09:13:43.1	316.670	0.020	-0.160	-0.400
2020/01/31 09:13:43.2	316.680	0.010	-0.150	-0.380
2020/01/31 09:13:43.3	316.680	0.010	-0.140	-0.360
2020/01/31 09:13:43.4	316.690	0.000	-0.130	-0.330
2020/01/31 09:13:43.5	316.690	-0.000	-0.130	-0.310
2020/01/31 09:13:43.6	316.690	-0.010	-0.120	-0.280
2020/01/31 09:13:43.7	316.690	-0.010	-0.120	-0.250
2020/01/31 09:13:43.8	316.690	-0.010	-0.120	-0.220
2020/01/31 09:13:43.9	316.690	-0.020	-0.120	-0.180
2020/01/31 09:13:44.0	316.680	-0.020	-0.120	-0.150
2020/01/31 09:13:44.1	316.680	-0.020	-0.120	-0.110
2020/01/31 09:13:44.2	316.670	-0.020	-0.120	-0.070
2020/01/31 09:13:44.3	316.660	-0.020	-0.130	-0.030
2020/01/31 09:13:44.4	316.650	-0.030	-0.130	0.020
2020/01/31 09:13:44.5	316.640	-0.030	-0.140	0.060
2020/01/31 09:13:44.6	316.620	-0.030	-0.150	0.100
2020/01/31 09:13:44.7	316.610	-0.030	-0.160	0.150
2020/01/31 09:13:44.8	316.600	-0.030	-0.170	0.190
2020/01/31 09:13:44.9	316.580	-0.040	-0.180	0.230
2020/01/31 09:13:45.0	316.570	-0.040	-0.190	0.270
2020/01/31 09:13:45.1	316.550	-0.040	-0.200	0.310
2020/01/31 09:13:45.2	316.530	-0.050	-0.210	0.350
2020/01/31 09:13:45.3	316.510	-0.050	-0.230	0.390
2020/01/31 09:13:45.4	316.500	-0.060	-0.240	0.430
2020/01/31 09:13:45.5	316.480	-0.070	-0.250	0.460
2020/01/31 09:13:45.6	316.460	-0.070	-0.260	0.490
2020/01/31 09:13:45.7	316.450	-0.080	-0.260	0.520
2020/01/31 09:13:45.8	316.430	-0.090	-0.270	0.550
2020/01/31 09:13:45.9	316.420	-0.100	-0.270	0.580
2020/01/31 09:13:46.0	316.400	-0.110	-0.280	0.600
2020/01/31 09:13:46.1	316.380	-0.120	-0.280	0.630
2020/01/31 09:13:46.2	316.370	-0.130	-0.270	0.650
2020/01/31 09:13:46.3	316.350	-0.140	-0.270	0.670
2020/01/31 09:13:46.4	316.330	-0.150	-0.260	0.690
2020/01/31 09:13:46.5	316.320	-0.160	-0.250	0.700
2020/01/31 09:13:46.6	316.300	-0.170	-0.230	0.720
2020/01/31 09:13:46.7	316.290	-0.180	-0.220	0.730
2020/01/31 09:13:46.8	316.270	-0.190	-0.200	0.740
2020/01/31 09:13:46.9	316.260	-0.210	-0.170	0.760
2020/01/31 09:13:47.0	316.240	-0.220	-0.150	0.770
2020/01/31 09:13:47.1	316.230	-0.230	-0.120	0.780
2020/01/31 09:13:47.2	316.210	-0.240	-0.100	0.790
2020/01/31 09:13:47.3	316.200	-0.250	-0.070	0.800
2020/01/31 09:13:47.4	316.180	-0.260	-0.040	0.810
2020/01/31 09:13:47.5	316.170	-0.270	-0.010	0.820
2020/01/31 09:13:47.6	316.150	-0.270	0.010	0.820
2020/01/31 09:13:47.7	316.140	-0.280	0.040	0.830
2020/01/31 09:13:47.8	316.130	-0.290	0.070	0.840
2020/01/31 09:13:47.9	316.110	-0.290	0.090	0.840
2020/01/31 09:13:48.0	316.100	-0.300	0.110	0.840
2020/01/31 09:13:48.1	316.090	-0.300	0.130	0.840
2020/01/31 09:13:48.2	316.080	-0.300	0.150	0.840
2020/01/31 09:13:48.3	316.080	-0.300	0.160	0.830
2020/01/31 09:13:48.4	316.070	-0.300	0.170	0.830
2020/01/31 09:13:48.5	316.060	-0.300	0.170	0.810
2020/01/31 09:13:48.6	316.060	-0.290	0.170	0.800
2020/01/31 09:13:48.7	316.050	-0.290	0.160	0.780
2020/01/31 09:13:48.8	316.050	-0.280	0.150	0.760
2020/01/31 09:13:48.9	316.050	-0.270	0.140	0.740
2020/01/31 09:13:49.0	316.050	-0.260	0.120	0.710
2020/01/31 09:13:49.1	316.050	-0.250	0.100	0.680
2020/01/31 09:13:49.2	316.050	-0.240	0.070	0.650
2020/01/31 09:13:49.3	316.050	-0.230	0.040	0.620
2020/01/31 09:13:49.4	316.060	-0.210	0.000	0.590
2020/01/31 09:13:49.5	316.060	-0.200	-0.030	0.550
2020/01/31 09:13:49.6	316.070	-0.180	-0.070	0.520
2020/01/31 09:13:49.7	316.070	-0.160	-0.110	0.480
2020/01/31 09:13:49.8	316.080	-0.140	-0.150	0.450
2020/01/31 09:13:49.9	316.090	-0.120	-0.190	0.410
2020/01/31 09:13:50.0	316.100	-0.110	-0.230	0.380
2020/01/31 09:13:50.1	316.110	-0.090	-0.270	0.340
2020/01/31 09:13:50.2	316.120	-0.070	-0.310	0.300
2020/01/31 09:13:50.3	316.130	-0.050	-0.350	0.270
2020/01/31 09:13:50.4	316.140	-0.030	-0.390	0.240
2020/01/31 09:13:50.5	316.160	-0.010	-0.430	0.200
2020/01/31 09:13:50.6	316.170	0.000	-0.470	0.160
2020/01/31 09:13:50.7	316.190	0.020	-0.500	0.120
2020/01/31 09:13:50.8	316.210	0.040	-0.530	0.090
2020/01/31 09:13:50.9	316.230	0.050	-0.560	0.050
2020/01/31 09:13:51.0	316.250	0.060	-0.580	0.010
2020/01/31 09:13:51.1	316.280	0.070	-0.610	-0.030
2020/01/31 09:13:51.2	316.300	0.080	-0.630	-0.070
2020/01/31 09:13:51.3	316.330	0.090	-0.640	-0.110
2020/01/31 09:13:51.4	316.350	0.090	-0.650	-0.150
2020/01/31 09:13:51.5	316.380	0.100	-0.660	-0.190
2020/01/31 09:13:51.6	316.400	0.100	-0.660	-0.230
2020/01/31 09:13:51.7	316.430	0.100	-0.670	-0.270
2020/01/31 09:13:51.8	316.460	0.100	-0.660	-0.310
2020/01/31 09:13:51.9	316.490	0.100	-0.660	-0.340
2020/01/31 09:13:52.0	316.520	0.100	-0.650	-0.380
2020/01/31 09:13:52.1	316.550	0.090	-0.640	-0.410
2020/01/31 09:13:52.2	316.580	0.090	-0.620	-0.430
2020/01/31 09:13:52.3	316.610	0.080	-0.610	-0.460
2020/01/31 09:13:52.4	316.640	0.080	-0.590	-0.480
2020/01/31 09:13:52.5	316.670	0.070	-0.570	-0.490
2020/01/31 09:13:52.6	316.690	0.060	-0.540	-0.510
2020/01/31 09:13:52.7	316.720	0.060	-0.510	-0.510
2020/01/31 09:13:52.8	316.750	0.050	-0.480	-0.520
2020/01/31 09:13:52.9	316.780	0.040	-0.450	-0.510
2020/01/31 09:13:53.0	316.800	0.040	-0.410	-0.510
2020/01/31 09:13:53.1	316.820	0.030	-0.370	-0.500
2020/01/31 09:13:53.2	316.850	0.030	-0.330	-0.480
2020/01/31 09:13:53.3	316.870	0.020	-0.300	-0.460
2020/01/31 09:13:53.4	316.890	0.020	-0.250	-0.430
2020/01/31 09:13:53.5	316.910	0.020	-0.210	-0.410
2020/01/31 09:13:53.6	316.920	0.020	-0.170	-0.370
2020/01/31 09:13:53.7	316.940	0.020	-0.140	-0.340
2020/01/31 09:13:53.8	316.950	0.030	-0.100	-0.300
2020/01/31 09:13:53.9	316.960	0.030	-0.070	-0.250
2020/01/31 09:13:54.0	316.970	0.040	-0.030	-0.210
2020/01/31 09:13:54.1	316.980	0.050	-0.000	-0.160
2020/01/31 09:13:54.2	316.990	0.060	0.020	-0.110
2020/01/31 09:13:54.3	316.990	0.070	0.050	-0.060
2020/01/31 09:13:54.4	317.000	0.080	0.060	-0.010
2020/01/31 09:13:54.5	317.000	0.100	0.080	0.050
2020/01/31 09:13:54.6	317.000	0.110	0.100	0.100
2020/01/31 09:13:54.7	316.990	0.130	0.110	0.160
2020/01/31 09:13:54.8	316.980	0.150	0.120	0.220
2020/01/31 09:13:54.9	316.970	0.160	0.130	0.270
2020/01/31 09:13:55.0	316.960	0.180	0.130	0.330
2020/01/31 09:13:55.1	316.940	0.200	0.130	0.390
2020/01/31 09:13:55.2	316.920	0.220	0.130	0.450
2020/01/31 09:13:55.3	316.920	0.240	0.130	0.510
2020/01/31 09:13:55.4	316.890	0.260	0.120	0.570
2020/01/31 09:13:55.5	316.870	0.280	0.120	0.620
2020/01/31 09:13:55.6	316.840	0.290	0.110	0.680
2020/01/31 09:13:55.7	316.810	0.310	0.090	0.730
2020/01/31 09:13:55.8	316.780	0.320	0.080	0.780
2020/01/31 09:13:55.9	316.750	0.340	0.070	0.830
2020/01/31 09:13:56.0	316.710	0.350	0.050	0.880
2020/01/31 09:13:56.1	316.680	0.360	0.030	0.930
2020/01/31 09:13:56.2	316.640	0.370	0.010	0.970
2020/01/31 09:13:56.3	316.600	0.380	-0.000	1.010
2020/01/31 09:13:56.4	316.570	0.380	-0.020	1.050
2020/01/31 09:13:56.5	316.530	0.390	-0.040	1.090
2020/01/31 09:13:56.6	316.490	0.390	-0.060	1.120
2020/01/31 09:13:56.7	316.450	0.390	-0.080	1.150
2020/01/31 09:13:56.8	316.410	0.390	-0.100	1.180
2020/01/31 09:13:56.9	316.370	0.380	-0.120	1.200
2020/01/31 09:13:57.0	316.340	0.380	-0.140	1.220
2020/01/31 09:13:57.1	316.300	0.370	-0.160	1.240
2020/01/31 09:13:57.2	316.260	0.360	-0.180	1.250
2020/01/31 09:13:57.3	316.230	0.350	-0.200	1.260
2020/01/31 09:13:57.4	316.200	0.330	-0.220	1.260
2020/01/31 09:13:57.5	316.170	0.320	-0.240	1.260
2020/01/31 09:13:57.6	316.140	0.300	-0.260	1.250
2020/01/31 09:13:57.7	316.110	0.290	-0.280	1.240
2020/01/31 09:13:57.8	316.090	0.270	-0.300	1.230
2020/01/31 09:13:57.9	316.070	0.250	-0.320	1.210
2020/01/31 09:13:58.0	316.050	0.230	-0.340	1.190
2020/01/31 09:13:58.1	316.040	0.210	-0.360	1.160
2020/01/31 09:13:58.2	316.030	0.190	-0.370	1.120
2020/01/31 09:13:58.3	316.020	0.160	-0.390	1.090
2020/01/31 09:13:58.4	316.020	0.140	-0.410	1.040
2020/01/31 09:13:58.5	316.020	0.120	-0.430	1.000
2020/01/31 09:13:58.6	316.020	0.090	-0.450	0.950
2020/01/31 09:13:58.7	316.020	0.070	-0.460	0.890
2020/01/31 09:13:58.8	316.030	0.040	-0.480	0.840
2020/01/31 09:13:58.9	316.040	0.020	-0.490	0.780
2020/01/31 09:13:59.0	316.060	-0.010	-0.510	0.710
2020/01/31 09:13:59.1	316.070	-0.030	-0.530	0.650
2020/01/31 09:13:59.2	316.090	-0.060	-0.540	0.580
2020/01/31 09:13:59.3	316.110	-0.090	-0.550	0.510
2020/01/31 09:13:59.4	316.130	-0.110	-0.570	0.440
2020/01/31 09:13:59.5	316.160	-0.140	-0.580	0.360
2020/01/31 09:13:59.6	316.190	-0.170	-0.590	0.290
2020/01/31 09:13:59.7	316.220	-0.190	-0.610	0.210
2020/01/31 09:13:59.8	316.250	-0.220	-0.620	0.130
2020/01/31 09:13:59.9	316.280	-0.240	-0.620	0.050
2020/01/31 09:14:00.0	316.320	-0.270	-0.630	-0.030
2020/01/31 09:14:00.1	316.360	-0.290	-0.640	-0.110
2020/01/31 09:14:00.2	316.390	-0.310	-0.640	-0.190
2020/01/31 09:14:00.3	316.430	-0.340	-0.650	-0.270
2020/01/31 09:14:00.4	316.470	-0.360	-0.650	-0.350
2020/01/31 09:14:00.5	316.510	-0.380	-0.650	-0.420
2020/01/31 09:14:00.6	316.560	-0.400	-0.650	-0.500
2020/01/31 09:14:00.7	316.600	-0.420	-0.640	-0.570
2020/01/31 09:14:00.8	316.640	-0.430	-0.640	-0.640
2020/01/31 09:14:00.9	316.690	-0.450	-0.630	-0.710
2020/01/31 09:14:01.0	316.730	-0.460	-0.620	-0.780
2020/01/31 09:14:01.1	316.770	-0.470	-0.600	-0.840
2020/01/31 09:14:01.2	316.820	-0.480	-0.580	-0.890
2020/01/31 09:14:01.3	316.860	-0.490	-0.560	-0.950
2020/01/31 09:14:01.4	316.900	-0.490	-0.540	-0.990
2020/01/31 09:14:01.5	316.940	-0.500	-0.520	-1.030
2020/01/31 09:14:01.6	316.970	-0.500	-0.490	-1.070
2020/01/31 09:14:01.7	317.010	-0.500	-0.450	-1.090
2020/01/31 09:14:01.8	317.040	-0.500	-0.410	-1.110
2020/01/31 09:14:01.9	317.070	-0.490	-0.370	-1.120
2020/01/31 09:14:02.0	317.100	-0.490	-0.330	-1.130
2020/01/31 09:14:02.1	317.120	-0.480	-0.290	-1.130
2020/01/31 09:14:02.2	317.140	-0.470	-0.240	-1.120
2020/01/31 09:14:02.3	317.160	-0.460	-0.190	-1.100
2020/01/31 09:14:02.4	317.170	-0.450	-0.140	-1.070
2020/01/31 09:14:02.5	317.180	-0.430	-0.090	-1.040
2020/01/31 09:14:02.6	317.190	-0.420	-0.040	-1.010
2020/01/31 09:14:02.7	317.190	-0.400	0.010	-0.970
2020/01/31 09:14:02.8	317.190	-0.380	0.060	-0.920
2020/01/31 09:14:02.9	317.190	-0.360	0.110	-0.870
2020/01/31 09:14:03.0	317.190	-0.340	0.150	-0.810
2020/01/31 09:14:03.1	317.180	-0.320	0.190	-0.760
2020/01/31 09:14:03.2	317.170	-0.290	0.230	-0.700
2020/01/31 09:14:03.3	317.160	-0.270	0.270	-0.630
2020/01/31 09:14:03.4	317.150	-0.240	0.300	-0.560
2020/01/31 09:14:03.5	317.140	-0.210	0.320	-0.490
2020/01/31 09:14:03.6	317.120	-0.180	0.340	-0.430
2020/01/31 09:14:03.7	317.110	-0.150	0.360	-0.360
2020/01/31 09:14:03.8	317.090	-0.120	0.380	-0.290
2020/01/31 09:14:03.9	317.080	-0.100	0.380	-0.220
2020/01/31 09:14:04.0	317.060	-0.070	0.390	-0.160
2020/01/31 09:14:04.1	317.050	-0.040	0.390	-0.090
2020/01/31 09:14:04.2	317.030	-0.010	0.380	-0.030
2020/01/31 09:14:04.3	317.010	0.020	0.380	0.040
2020/01/31 09:14:04.4	316.990	0.050	0.360	0.100
2020/01/31 09:14:04.5	316.980	0.080	0.350	0.160
2020/01/31 09:14:04.6	316.960	0.100	0.330	0.230
2020/01/31 09:14:04.7	316.940	0.130	0.310	0.290
2020/01/31 09:14:04.8	316.920	0.150	0.290	0.350
2020/01/31 09:14:04.9	316.900	0.170	0.270	0.410
2020/01/31 09:14:05.0	316.880	0.190	0.240	0.460
2020/01/31 09:14:05.1	316.850	0.210	0.220	0.520
2020/01/31 09:14:05.2	316.830	0.220	0.190	0.580
2020/01/31 09:14:05.3	316.810	0.230	0.170	0.630
2020/01/31 09:14:05.4	316.790	0.240	0.140	0.690
2020/01/31 09:14:05.5	316.760	0.250	0.120	0.740
2020/01/31 09:14:05.6	316.740	0.260	0.090	0.790
2020/01/31 09:14:05.7	316.710	0.260	0.070	0.840
2020/01/31 09:14:05.8	316.680	0.260	0.050	0.890
2020/01/31 09:14:05.9	316.660	0.260	0.030	0.930
2020/01/31 09:14:06.0	316.630	0.260	0.010	0.970
2020/01/31 09:14:06.1	316.600	0.250	-0.010	1.010
2020/01/31 09:14:06.2	316.570	0.240	-0.030	1.050
2020/01/31 09:14:06.3	316.540	0.230	-0.050	1.090
2020/01/31 09:14:06.4	316.500	0.220	-0.060	1.130
2020/01/31 09:14:06.5	316.470	0.210	-0.080	1.160
2020/01/31 09:14:06.6	316.440	0.200	-0.090	1.190
2020/01/31 09:14:06.7	316.410	0.180	-0.100	1.210
2020/01/31 09:14:06.8	316.370	0.170	-0.110	1.240
2020/01/31 09:14:06.9	316.340	0.160	-0.130	1.250
2020/01/31 09:14:07.0	316.310	0.140	-0.140	1.270
2020/01/31 09:14:07.1	316.280	0.130	-0.150	1.280
2020/01/31 09:14:07.2	316.260	0.120	-0.170	1.290
2020/01/31 09:14:07.3	316.230	0.100	-0.180	1.290
2020/01/31 09:14:07.4	316.220	0.090	-0.200	1.290
2020/01/31 09:14:07.5	316.200	0.080	-0.220	1.280
2020/01/31 09:14:07.6	316.180	0.080	-0.240	1.270
2020/01/31 09:14:07.7	316.160	0.070	-0.260	1.260
2020/01/31 09:14:07.8	316.150	0.070	-0.280	1.240
2020/01/31 09:14:07.9	316.130	0.070	-0.310	1.220
2020/01/31 09:14:08.0	316.120	0.070	-0.340	1.190
2020/01/31 09:14:08.1	316.120	0.070	-0.370	1.170
2020/01/31 09:14:08.2	316.110	0.070	-0.410	1.130
2020/01/31 09:14:08.3	316.110	0.080	-0.440	1.100
2020/01/31 09:14:08.4	316.120	0.090	-0.490	1.060
2020/01/31 09:14:08.5	316.120	0.100	-0.520	1.020
2020/01/31 09:14:08.6	316.120	0.120	-0.570	0.970
2020/01/31 09:14:08.7	316.130	0.130	-0.610	0.930
2020/01/31 09:14:08.8	316.140	0.150	-0.650	0.880
2020/01/31 09:14:08.9	316.140	0.160	-0.690	0.830
2020/01/31 09:14:09.0	316.160	0.180	-0.730	0.780
2020/01/31 09:14:09.1	316.170	0.200	-0.780	0.730
2020/01/31 09:14:09.2	316.190	0.220	-0.820	0.680
2020/01/31 09:14:09.3	316.200	0.240	-0.860	0.630
2020/01/31 09:14:09.4	316.220	0.260	-0.900	0.580
2020/01/31 09:14:09.5	316.240	0.280	-0.940	0.520
2020/01/31 09:14:09.6	316.270	0.300	-0.970	0.470
2020/01/31 09:14:09.7	316.290	0.320	-1.000	0.420
2020/01/31 09:14:09.8	316.320	0.340	-1.030	0.360
2020/01/31 09:14:09.9	316.350	0.360	-1.060	0.310
2020/01/31 09:14:10.0	316.380	0.380	-1.080	0.260
2020/01/31 09:14:10.1	316.410	0.390	-1.100	0.210
2020/01/31 09:14:10.2	316.450	0.410	-1.120	0.170
2020/01/31 09:14:10.3	316.480	0.420	-1.130	0.120
2020/01/31 09:14:10.4	316.510	0.430	-1.140	0.080
2020/01/31 09:14:10.5	316.540	0.440	-1.140	0.040
2020/01/31 09:14:10.6	316.580	0.440	-1.130	0.010
2020/01/31 09:14:10.7	316.610	0.440	-1.120	-0.030
2020/01/31 09:14:10.8	316.640	0.440	-1.110	-0.060
2020/01/31 09:14:10.9	316.680	0.440	-1.090	-0.080
2020/01/31 09:14:11.0	316.710	0.430	-1.070	-0.110
2020/01/31 09:14:11.1	316.740	0.420	-1.040	-0.130
2020/01/31 09:14:11.2	316.770	0.410	-1.000	-0.140
2020/01/31 09:14:11.3	316.790	0.400	-0.970	-0.150
2020/01/31 09:14:11.4	316.820	0.380	-0.920	-0.160
2020/01/31 09:14:11.5	316.850	0.360	-0.880	-0.170
2020/01/31 09:14:11.6	316.870	0.340	-0.830	-0.170
2020/01/31 09:14:11.7	316.890	0.310	-0.780	-0.170
2020/01/31 09:14:11.8	316.910	0.280	-0.720	-0.170
2020/01/31 09:14:11.9	316.930	0.260	-0.660	-0.160
2020/01/31 09:14:12.0	316.940	0.220	-0.600	-0.160
2020/01/31 09:14:12.1	316.960	0.190	-0.540	-0.150
2020/01/31 09:14:12.2	316.970	0.160	-0.470	-0.140
2020/01/31 09:14:12.3	316.980	0.120	-0.410	-0.130
2020/01/31 09:14:12.4	316.980	0.090	-0.340	-0.120
2020/01/31 09:14:12.5	316.990	0.050	-0.280	-0.110
2020/01/31 09:14:12.6	316.990	0.010	-0.210	-0.090
2020/01/31 09:14:12.7	316.990	-0.030	-0.150	-0.080
2020/01/31 09:14:12.8	316.990	-0.060	-0.080	-0.070
2020/01/31 09:14:12.9	316.990	-0.100	-0.010	-0.050
2020/01/31 09:14:13.0	316.990	-0.140	0.050	-0.040
2020/01/31 09:14:13.1	316.980	-0.180	0.110	-0.020
2020/01/31 09:14:13.2	316.970	-0.210	0.170	-0.010
2020/01/31 09:14:13.3	316.960	-0.250	0.230	0.010
2020/01/31 09:14:13.4	316.940	-0.280	0.290	0.020
2020/01/31 09:14:13.5	316.930	-0.320	0.350	0.040
2020/01/31 09:14:13.6	316.910	-0.350	0.400	0.060
2020/01/31 09:14:13.7	316.890	-0.380	0.450	0.080
2020/01/31 09:14:13.8	316.870	-0.410	0.500	0.100
2020/01/31 09:14:13.9	316.840	-0.440	0.540	0.120
2020/01/31 09:14:14.0	316.820	-0.470	0.580	0.130
2020/01/31 09:14:14.1	316.790	-0.490	0.620	0.150
2020/01/31 09:14:14.2	316.760	-0.520	0.650	0.170
2020/01/31 09:14:14.3	316.730	-0.540	0.690	0.190
2020/01/31 09:14:14.4	316.710	-0.560	0.710	0.210
2020/01/31 09:14:14.5	316.680	-0.580	0.730	0.230
2020/01/31 09:14:14.6	316.650	-0.590	0.750	0.250
2020/01/31 09:14:14.7	316.620	-0.610	0.770	0.270
2020/01/31 09:14:14.8	316.580	-0.620	0.780	0.280
2020/01/31 09:14:14.9	316.550	-0.630	0.790	0.300
2020/01/31 09:14:15.0	316.520	-0.640	0.800	0.320
2020/01/31 09:14:15.1	316.480	-0.650	0.800	0.330
2020/01/31 09:14:15.2	316.450	-0.660	0.800	0.350
2020/01/31 09:14:15.3	316.420	-0.660	0.790	0.360
2020/01/31 09:14:15.4	316.390	-0.660	0.780	0.370
2020/01/31 09:14:15.5	316.360	-0.660	0.770	0.380
2020/01/31 09:14:15.6	316.330	-0.650	0.750	0.400
2020/01/31 09:14:15.7	316.300	-0.650	0.730	0.410
2020/01/31 09:14:15.8	316.270	-0.640	0.710	0.420
2020/01/31 09:14:15.9	316.240	-0.630	0.690	0.420
2020/01/31 09:14:16.0	316.210	-0.610	0.660	0.430
2020/01/31 09:14:16.1	316.190	-0.600	0.630	0.440
2020/01/31 09:14:16.2	316.160	-0.580	0.600	0.450
2020/01/31 09:14:16.3	316.140	-0.560	0.560	0.450
2020/01/31 09:14:16.4	316.120	-0.540	0.520	0.460
2020/01/31 09:14:16.5	316.100	-0.520	0.480	0.460
2020/01/31 09:14:16.6	316.080	-0.490	0.440	0.470
2020/01/31 09:14:16.7	316.060	-0.460	0.400	0.470
2020/01/31 09:14:16.8	316.040	-0.430	0.350	0.480
2020/01/31 09:14:16.9	316.020	-0.400	0.310	0.490
2020/01/31 09:14:17.0	316.000	-0.370	0.260	0.490
2020/01/31 09:14:17.1	315.990	-0.330	0.210	0.500
2020/01/31 09:14:17.2	315.970	-0.300	0.160	0.510
2020/01/31 09:14:17.3	315.950	-0.260	0.110	0.520
2020/01/31 09:14:17.4	315.940	-0.220	0.060	0.540
2020/01/31 09:14:17.5	315.930	-0.180	0.010	0.550
2020/01/31 09:14:17.6	315.910	-0.140	-0.040	0.560
2020/01/31 09:14:17.7	315.900	-0.100	-0.090	0.580
2020/01/31 09:14:17.8	315.880	-0.060	-0.140	0.590
2020/01/31 09:14:17.9	315.870	-0.020	-0.190	0.600
2020/01/31 09:14:18.0	315.860	0.020	-0.240	0.620
2020/01/31 09:14:18.1	315.850	0.060	-0.290	0.630
2020/01/31 09:14:18.2	315.840	0.110	-0.340	0.650
2020/01/31 09:14:18.3	315.830	0.150	-0.390	0.660
2020/01/31 09:14:18.4	315.820	0.190	-0.430	0.670
2020/01/31 09:14:18.5	315.810	0.230	-0.480	0.680
2020/01/31 09:14:18.6	315.810	0.270	-0.530	0.690
2020/01/31 09:14:18.7	315.810	0.300	-0.580	0.700
2020/01/31 09:14:18.8	315.810	0.340	-0.620	0.700
2020/01/31 09:14:18.9	315.810	0.380	-0.670	0.710
2020/01/31 09:14:19.0	315.820	0.410	-0.710	0.710
2020/01/31 09:14:19.1	315.830	0.440	-0.760	0.710
2020/01/31 09:14:19.2	315.840	0.480	-0.800	0.710
2020/01/31 09:14:19.3	315.850	0.510	-0.850	0.700
2020/01/31 09:14:19.4	315.870	0.530	-0.890	0.700
2020/01/31 09:14:19.5	315.880	0.560	-0.930	0.690
2020/01/31 09:14:19.6	315.910	0.580	-0.960	0.680
2020/01/31 09:14:19.7	315.930	0.610	-1.000	0.670
2020/01/31 09:14:19.8	315.950	0.630	-1.030	0.660
2020/01/31 09:14:19.9	315.980	0.650	-1.060	0.650
2020/01/31 09:14:20.0	316.010	0.660	-1.090	0.640
2020/01/31 09:14:20.1	316.040	0.680	-1.120	0.630
2020/01/31 09:14:20.2	316.070	0.690	-1.140	0.610
2020/01/31 09:14:20.3	316.100	0.700	-1.160	0.600
2020/01/31 09:14:20.4	316.140	0.710	-1.190	0.590
2020/01/31 09:14:20.5	316.170	0.720	-1.200	0.580
2020/01/31 09:14:20.6	316.200	0.720	-1.210	0.560
2020/01/31 09:14:20.7	316.240	0.720	-1.220	0.550
2020/01/31 09:14:20.8	316.270	0.720	-1.220	0.540
2020/01/31 09:14:20.9	316.300	0.720	-1.220	0.520
2020/01/31 09:14:21.0	316.330	0.710	-1.220	0.510
2020/01/31 09:14:21.1	316.360	0.700	-1.210	0.490
2020/01/31 09:14:21.2	316.390	0.690	-1.200	0.480
2020/01/31 09:14:21.3	316.420	0.670	-1.180	0.460
2020/01/31 09:14:21.4	316.450	0.660	-1.170	0.450
2020/01/31 09:14:21.5	316.470	0.640	-1.140	0.430
2020/01/31 09:14:21.6	316.490	0.620	-1.110	0.420
2020/01/31 09:14:21.7	316.520	0.590	-1.080	0.410
2020/01/31 09:14:21.8	316.540	0.570	-1.050	0.390
2020/01/31 09:14:21.9	316.550	0.540	-1.010	0.380
2020/01/31 09:14:22.0	316.570	0.510	-0.960	0.370
2020/01/31 09:14:22.1	316.580	0.480	-0.920	0.370
2020/01/31 09:14:22.2	316.600	0.440	-0.870	0.360
2020/01/31 09:14:22.3	316.600	0.410	-0.810	0.350
2020/01/31 09:14:22.4	316.610	0.370	-0.760	0.350
2020/01/31 09:14:22.5	316.610	0.330	-0.700	0.350
2020/01/31 09:14:22.6	316.610	0.290	-0.640	0.350
2020/01/31 09:14:22.7	316.610	0.250	-0.580	0.360
2020/01/31 09:14:22.8	316.610	0.210	-0.510	0.360
2020/01/31 09:14:22.9	316.600	0.170	-0.450	0.370
2020/01/31 09:14:23.0	316.600	0.130	-0.380	0.380
2020/01/31 09:14:23.1	316.580	0.090	-0.310	0.390
2020/01/31 09:14:23.2	316.570	0.050	-0.250	0.400
2020/01/31 09:14:23.3	316.560	0.010	-0.180	0.410
2020/01/31 09:14:23.4	316.540	-0.030	-0.110	0.430
2020/01/31 09:14:23.5	316.520	-0.070	-0.050	0.440
2020/01/31 09:14:23.6	316.500	-0.100	0.010	0.460
2020/01/31 09:14:23.7	316.480	-0.140	0.070	0.470
2020/01/31 09:14:23.8	316.450	-0.180	0.130	0.480
2020/01/31 09:14:23.9	316.430	-0.210	0.180	0.490
2020/01/31 09:14:24.0	316.410	-0.240	0.230	0.500
2020/01/31 09:14:24.1	316.390	-0.280	0.280	0.510
2020/01/31 09:14:24.2	316.370	-0.310	0.320	0.520
2020/01/31 09:14:24.3	316.350	-0.330	0.360	0.520
2020/01/31 09:14:24.4	316.330	-0.360	0.390	0.530
2020/01/31 09:14:24.5	316.310	-0.380	0.420	0.530
2020/01/31 09:14:24.6	316.290	-0.410	0.440	0.530
2020/01/31 09:14:24.7	316.270	-0.430	0.460	0.530
2020/01/31 09:14:24.8	316.250	-0.450	0.480	0.520
2020/01/31 09:14:24.9	316.230	-0.460	0.490	0.520
2020/01/31 09:14:25.0	316.220	-0.480	0.490	0.510
2020/01/31 09:14:25.1	316.200	-0.490	0.500	0.510
2020/01/31 09:14:25.2	316.180	-0.500	0.500	0.500
2020/01/31 09:14:25.3	316.170	-0.510	0.490	0.490
2020/01/31 09:14:25.4	316.150	-0.520	0.480	0.480
2020/01/31 09:14:25.5	316.130	-0.530	0.470	0.480
2020/01/31 09:14:25.6	316.120	-0.530	0.450	0.470
2020/01/31 09:14:25.7	316.100	-0.530	0.440	0.460
2020/01/31 09:14:25.8	316.080	-0.530	0.420	0.450
2020/01/31 09:14:25.9	316.070	-0.530	0.400	0.450
2020/01/31 09:14:26.0	316.050	-0.530	0.380	0.440
2020/01/31 09:14:26.1	316.040	-0.530	0.350	0.440
2020/01/31 09:14:26.2	316.020	-0.520	0.330	0.430
2020/01/31 09:14:26.3	316.010	-0.510	0.300	0.430
2020/01/31 09:14:26.4	316.000	-0.500	0.280	0.430
2020/01/31 09:14:26.5	315.990	-0.490	0.250	0.420
2020/01/31 09:14:26.6	315.970	-0.480	0.220	0.420
2020/01/31 09:14:26.7	315.960	-0.470	0.200	0.430
2020/01/31 09:14:26.8	315.950	-0.450	0.170	0.430
2020/01/31 09:14:26.9	315.940	-0.440	0.140	0.430
2020/01/31 09:14:27.0	315.930	-0.420	0.120	0.440
2020/01/31 09:14:27.1	315.930	-0.400	0.090	0.440
2020/01/31 09:14:27.2	315.920	-0.380	0.070	0.450
2020/01/31 09:14:27.3	315.910	-0.360	0.040	0.460
2020/01/31 09:14:27.4	315.910	-0.340	0.010	0.470
2020/01/31 09:14:27.5	315.910	-0.320	-0.010	0.480
2020/01/31 09:14:27.6	315.900	-0.300	-0.030	0.490
2020/01/31 09:14:27.7	315.900	-0.280	-0.060	0.500
2020/01/31 09:14:27.8	315.900	-0.260	-0.080	0.520
2020/01/31 09:14:27.9	315.900	-0.230	-0.100	0.530
2020/01/31 09:14:28.0	315.900	-0.210	-0.120	0.550
2020/01/31 09:14:28.1	315.900	-0.190	-0.140	0.570
2020/01/31 09:14:28.2	315.900	-0.160	-0.160	0.590
2020/01/31 09:14:28.3	315.910	-0.140	-0.180	0.610
2020/01/31 09:14:28.4	315.910	-0.120	-0.190	0.620
2020/01/31 09:14:28.5	315.920	-0.090	-0.210	0.640
2020/01/31 09:14:28.6	315.930	-0.070	-0.220	0.660
2020/01/31 09:14:28.7	315.930	-0.050	-0.230	0.680
2020/01/31 09:14:28.8	315.950	-0.020	-0.250	0.700
2020/01/31 09:14:28.9	315.960	0.000	-0.260	0.720
2020/01/31 09:14:29.0	315.970	0.020	-0.260	0.740
2020/01/31 09:14:29.1	315.980	0.040	-0.270	0.750
2020/01/31 09:14:29.2	315.990	0.060	-0.270	0.770
2020/01/31 09:14:29.3	316.010	0.080	-0.280	0.790
2020/01/31 09:14:29.4	316.020	0.100	-0.280	0.810
2020/01/31 09:14:29.5	316.030	0.120	-0.280	0.820
2020/01/31 09:14:29.6	316.050	0.140	-0.280	0.840
2020/01/31 09:14:29.7	316.060	0.150	-0.270	0.860
2020/01/31 09:14:29.8	316.070	0.170	-0.270	0.870
2020/01/31 09:14:29.9	316.080	0.180	-0.260	0.890
2020/01/31 09:14:30.0	316.090	0.190	-0.250	0.900
2020/01/31 09:14:30.1	316.100	0.200	-0.240	0.920
2020/01/31 09:14:30.2	316.110	0.210	-0.230	0.940
2020/01/31 09:14:30.3	316.120	0.220	-0.220	0.950
2020/01/31 09:14:30.4	316.120	0.230	-0.210	0.970
2020/01/31 09:14:30.5	316.130	0.230	-0.200	0.980
2020/01/31 09:14:30.6	316.130	0.230	-0.190	0.990
2020/01/31 09:14:30.7	316.140	0.240	-0.180	1.000
2020/01/31 09:14:30.8	316.140	0.240	-0.170	1.010
2020/01/31 09:14:30.9	316.140	0.240	-0.160	1.020
2020/01/31 09:14:31.0	316.150	0.230	-0.150	1.020
2020/01/31 09:14:31.1	316.150	0.230	-0.140	1.030
2020/01/31 09:14:31.2	316.150	0.230	-0.140	1.030
2020/01/31 09:14:31.3	316.150	0.220	-0.130	1.030
2020/01/31 09:14:31.4	316.150	0.220	-0.130	1.030
2020/01/31 09:14:31.5	316.150	0.210	-0.130	1.030
2020/01/31 09:14:31.6	316.140	0.200	-0.130	1.020
2020/01/31 09:14:31.7	316.140	0.200	-0.140	1.010
2020/01/31 09:14:31.8	316.140	0.190	-0.140	1.010
2020/01/31 09:14:31.9	316.140	0.180	-0.150	1.000
2020/01/31 09:14:32.0	316.130	0.170	-0.160	0.980
2020/01/31 09:14:32.1	316.130	0.160	-0.180	0.970
2020/01/31 09:14:32.2	316.120	0.160	-0.190	0.960
2020/01/31 09:14:32.3	316.120	0.150	-0.210	0.940
2020/01/31 09:14:32.4	316.110	0.140	-0.230	0.920
2020/01/31 09:14:32.5	316.100	0.130	-0.250	0.910
2020/01/31 09:14:32.6	316.100	0.130	-0.270	0.890
2020/01/31 09:14:32.7	316.090	0.120	-0.290	0.870
2020/01/31 09:14:32.8	316.080	0.120	-0.310	0.850
2020/01/31 09:14:32.9	316.080	0.120	-0.340	0.820
2020/01/31 09:14:33.0	316.070	0.110	-0.370	0.800
2020/01/31 09:14:33.1	316.070	0.110	-0.390	0.770
2020/01/31 09:14:33.2	316.060	0.110	-0.420	0.750
2020/01/31 09:14:33.3	316.060	0.110	-0.450	0.720
2020/01/31 09:14:33.4	316.050	0.110	-0.480	0.690
2020/01/31 09:14:33.5	316.050	0.110	-0.510	0.670
2020/01/31 09:14:33.6	316.040	0.120	-0.530	0.640
2020/01/31 09:14:33.7	316.040	0.120	-0.560	0.610
2020/01/31 09:14:33.8	316.030	0.120	-0.590	0.590
2020/01/31 09:14:33.9	316.020	0.130	-0.620	0.560
2020/01/31 09:14:34.0	316.020	0.140	-0.640	0.530
2020/01/31 09:14:34.1	316.020	0.140	-0.670	0.510
2020/01/31 09:14:34.2	316.010	0.150	-0.690	0.480
2020/01/31 09:14:34.3	316.010	0.160	-0.720	0.460
2020/01/31 09:14:34.4	316.000	0.170	-0.740	0.440
2020/01/31 09:14:34.5	315.990	0.180	-0.760	0.430
2020/01/31 09:14:34.6	315.990	0.190	-0.780	0.410
2020/01/31 09:14:34.7	315.980	0.200	-0.800	0.390
2020/01/31 09:14:34.8	315.980	0.210	-0.810	0.380
2020/01/31 09:14:34.9	315.980	0.220	-0.820	0.370
2020/01/31 09:14:35.0	315.980	0.230	-0.840	0.360
2020/01/31 09:14:35.1	315.980	0.240	-0.840	0.350
2020/01/31 09:14:35.2	315.980	0.250	-0.850	0.340
2020/01/31 09:14:35.3	315.980	0.250	-0.850	0.340
2020/01/31 09:14:35.4	315.980	0.260	-0.860	0.340
2020/01/31 09:14:35.5	315.990	0.270	-0.860	0.340
2020/01/31 09:14:35.6	315.990	0.270	-0.850	0.340
2020/01/31 09:14:35.7	316.000	0.280	-0.850	0.340
2020/01/31 09:14:35.8	316.010	0.280	-0.840	0.350
2020/01/31 09:14:35.9	316.020	0.280	-0.830	0.360
2020/01/31 09:14:36.0	316.020	0.290	-0.810	0.370
2020/01/31 09:14:36.1	316.030	0.290	-0.800	0.380
2020/01/31 09:14:36.2	316.050	0.280	-0.770	0.390
2020/01/31 09:14:36.3	316.060	0.280	-0.750	0.400
2020/01/31 09:14:36.4	316.070	0.270	-0.720	0.420
2020/01/31 09:14:36.5	316.080	0.270	-0.690	0.440
2020/01/31 09:14:36.6	316.100	0.260	-0.660	0.460
2020/01/31 09:14:36.7	316.110	0.240	-0.620	0.480
2020/01/31 09:14:36.8	316.120	0.230	-0.570	0.500
2020/01/31 09:14:36.9	316.130	0.210	-0.530	0.520
2020/01/31 09:14:37.0	316.140	0.200	-0.470	0.550
2020/01/31 09:14:37.1	316.140	0.180	-0.420	0.570
2020/01/31 09:14:37.2	316.150	0.150	-0.360	0.600
2020/01/31 09:14:37.3	316.150	0.130	-0.300	0.620
2020/01/31 09:14:37.4	316.160	0.100	-0.240	0.650
2020/01/31 09:14:37.5	316.160	0.080	-0.180	0.680
2020/01/31 09:14:37.6	316.160	0.050	-0.110	0.700
2020/01/31 09:14:37.7	316.160	0.020	-0.040	0.730
2020/01/31 09:14:37.8	316.150	-0.010	0.020	0.750
2020/01/31 09:14:37.9	316.150	-0.050	0.090	0.770
2020/01/31 09:14:38.0	316.140	-0.080	0.150	0.790
2020/01/31 09:14:38.1	316.130	-0.110	0.220	0.810
2020/01/31 09:14:38.2	316.130	-0.150	0.280	0.830
2020/01/31 09:14:38.3	316.120	-0.180	0.330	0.840
2020/01/31 09:14:38.4	316.110	-0.220	0.390	0.850
2020/01/31 09:14:38.5	316.090	-0.250	0.440	0.860
2020/01/31 09:14:38.6	316.080	-0.280	0.480	0.870
2020/01/31 09:14:38.7	316.070	-0.310	0.520	0.870
2020/01/31 09:14:38.8	316.060	-0.340	0.560	0.870
2020/01/31 09:14:38.9	316.040	-0.370	0.590	0.870
2020/01/31 09:14:39.0	316.030	-0.400	0.610	0.860
2020/01/31 09:14:39.1	316.010	-0.420	0.630	0.850
2020/01/31 09:14:39.2	316.000	-0.440	0.640	0.830
2020/01/31 09:14:39.3	315.990	-0.460	0.640	0.810
2020/01/31 09:14:39.4	315.980	-0.480	0.640	0.790
2020/01/31 09:14:39.5	315.960	-0.490	0.630	0.760
2020/01/31 09:14:39.6	315.950	-0.500	0.620	0.730
2020/01/31 09:14:39.7	315.940	-0.500	0.600	0.700
2020/01/31 09:14:39.8	315.930	-0.500	0.580	0.660
2020/01/31 09:14:39.9	315.920	-0.500	0.550	0.620
2020/01/31 09:14:40.0	315.920	-0.500	0.520	0.580
2020/01/31 09:14:40.1	315.910	-0.490	0.480	0.530
2020/01/31 09:14:40.2	315.910	-0.470	0.440	0.490
2020/01/31 09:14:40.3	315.910	-0.460	0.390	0.430
2020/01/31 09:14:40.4	315.910	-0.440	0.340	0.380
2020/01/31 09:14:40.5	315.910	-0.420	0.290	0.330
2020/01/31 09:14:40.6	315.920	-0.390	0.230	0.290
2020/01/31 09:14:40.7	315.920	-0.360	0.180	0.240
2020/01/31 09:14:40.8	315.930	-0.330	0.130	0.190
2020/01/31 09:14:40.9	315.930	-0.300	0.070	0.140
2020/01/31 09:14:41.0	315.940	-0.260	0.020	0.100
2020/01/31 09:14:41.1	315.950	-0.230	-0.040	0.050
2020/01/31 09:14:41.2	315.950	-0.190	-0.090	0.010
2020/01/31 09:14:41.3	315.960	-0.150	-0.140	-0.020
2020/01/31 09:14:41.4	315.970	-0.120	-0.180	-0.060
2020/01/31 09:14:41.5	315.970	-0.080	-0.230	-0.090
2020/01/31 09:14:41.6	315.980	-0.040	-0.270	-0.120
2020/01/31 09:14:41.7	315.990	-0.010	-0.310	-0.150
2020/01/31 09:14:41.8	315.990	0.030	-0.340	-0.170
2020/01/31 09:14:41.9	315.990	0.060	-0.370	-0.190
2020/01/31 09:14:42.0	315.990	0.100	-0.400	-0.210
2020/01/31 09:14:42.1	316.000	0.130	-0.420	-0.220
2020/01/31 09:14:42.2	316.000	0.150	-0.440	-0.220
2020/01/31 09:14:42.3	315.990	0.180	-0.450	-0.220
2020/01/31 09:14:42.4	316.000	0.200	-0.460	-0.220
2020/01/31 09:14:42.5	315.990	0.220	-0.470	-0.220
2020/01/31 09:14:42.6	315.990	0.240	-0.470	-0.210
2020/01/31 09:14:42.7	315.980	0.250	-0.470	-0.200
2020/01/31 09:14:42.8	315.980	0.260	-0.470	-0.180
2020/01/31 09:14:42.9	315.970	0.270	-0.460	-0.160
2020/01/31 09:14:43.0	315.960	0.270	-0.450	-0.140
2020/01/31 09:14:43.1	315.950	0.280	-0.440	-0.120
2020/01/31 09:14:43.2	315.940	0.270	-0.420	-0.090
2020/01/31 09:14:43.3	315.940	0.270	-0.400	-0.060
2020/01/31 09:14:43.4	315.930	0.260	-0.380	-0.030
2020/01/31 09:14:43.5	315.910	0.250	-0.360	-0.000
2020/01/31 09:14:43.6	315.900	0.240	-0.340	0.030
2020/01/31 09:14:43.7	315.890	0.220	-0.320	0.060
2020/01/31 09:14:43.8	315.870	0.200	-0.300	0.100
2020/01/31 09:14:43.9	315.860	0.190	-0.270	0.130
2020/01/31 09:14:44.0	315.840	0.160	-0.250	0.160
2020/01/31 09:14:44.1	315.830	0.140	-0.230	0.200
2020/01/31 09:14:44.2	315.810	0.120	-0.210	0.230
2020/01/31 09:14:44.3	315.790	0.100	-0.190	0.270
2020/01/31 09:14:44.4	315.780	0.070	-0.170	0.300
2020/01/31 09:14:44.5	315.770	0.050	-0.160	0.340
2020/01/31 09:14:44.6	315.750	0.020	-0.150	0.370
2020/01/31 09:14:44.7	315.730	-0.000	-0.140	0.400
2020/01/31 09:14:44.8	315.720	-0.020	-0.130	0.430
2020/01/31 09:14:44.9	315.710	-0.050	-0.120	0.460
2020/01/31 09:14:45.0	315.700	-0.070	-0.120	0.490
2020/01/31 09:14:45.1	315.690	-0.090	-0.130	0.510
2020/01/31 09:14:45.2	315.680	-0.110	-0.130	0.530
2020/01/31 09:14:45.3	315.670	-0.130	-0.140	0.550
2020/01/31 09:14:45.4	315.660	-0.150	-0.160	0.560
2020/01/31 09:14:45.5	315.660	-0.160	-0.170	0.570
2020/01/31 09:14:45.6	315.650	-0.180	-0.200	0.580
2020/01/31 09:14:45.7	315.650	-0.190	-0.220	0.590
2020/01/31 09:14:45.8	315.650	-0.200	-0.240	0.590
2020/01/31 09:14:45.9	315.660	-0.210	-0.270	0.590
2020/01/31 09:14:46.0	315.660	-0.220	-0.300	0.590
2020/01/31 09:14:46.1	315.660	-0.220	-0.330	0.580
2020/01/31 09:14:46.2	315.670	-0.230	-0.370	0.580
2020/01/31 09:14:46.3	315.680	-0.230	-0.400	0.570
2020/01/31 09:14:46.4	315.680	-0.230	-0.440	0.550
2020/01/31 09:14:46.5	315.690	-0.230	-0.480	0.540
2020/01/31 09:14:46.6	315.710	-0.220	-0.510	0.530
2020/01/31 09:14:46.7	315.720	-0.220	-0.550	0.510
2020/01/31 09:14:46.8	315.740	-0.210	-0.580	0.500
2020/01/31 09:14:46.9	315.760	-0.200	-0.620	0.480
2020/01/31 09:14:47.0	315.780	-0.190	-0.650	0.460
2020/01/31 09:14:47.1	315.800	-0.180	-0.680	0.450
2020/01/31 09:14:47.2	315.820	-0.160	-0.710	0.430
2020/01/31 09:14:47.3	315.840	-0.150	-0.730	0.420
2020/01/31 09:14:47.4	315.860	-0.130	-0.760	0.400
2020/01/31 09:14:47.5	315.890	-0.110	-0.780	0.390
2020/01/31 09:14:47.6	315.920	-0.090	-0.790	0.380
2020/01/31 09:14:47.7	315.940	-0.070	-0.810	0.370
2020/01/31 09:14:47.8	315.970	-0.050	-0.820	0.360
2020/01/31 09:14:47.9	315.990	-0.030	-0.820	0.350
2020/01/31 09:14:48.0	316.020	-0.000	-0.830	0.350
2020/01/31 09:14:48.1	316.050	0.020	-0.830	0.350
2020/01/31 09:14:48.2	316.070	0.040	-0.820	0.350
2020/01/31 09:14:48.3	316.090	0.060	-0.810	0.350
2020/01/31 09:14:48.4	316.110	0.090	-0.800	0.360
2020/01/31 09:14:48.5	316.130	0.110	-0.780	0.370
2020/01/31 09:14:48.6	316.150	0.130	-0.760	0.370
2020/01/31 09:14:48.7	316.160	0.150	-0.740	0.390
2020/01/31 09:14:48.8	316.180	0.170	-0.710	0.400
2020/01/31 09:14:48.9	316.190	0.180	-0.680	0.410
2020/01/31 09:14:49.0	316.200	0.200	-0.650	0.430
2020/01/31 09:14:49.1	316.210	0.210	-0.620	0.450
2020/01/31 09:14:49.2	316.220	0.230	-0.580	0.470
2020/01/31 09:14:49.3	316.230	0.240	-0.540	0.480
2020/01/31 09:14:49.4	316.230	0.250	-0.510	0.510
2020/01/31 09:14:49.5	316.230	0.250	-0.460	0.520
2020/01/31 09:14:49.6	316.240	0.260	-0.420	0.540
2020/01/31 09:14:49.7	316.240	0.260	-0.380	0.560
2020/01/31 09:14:49.8	316.240	0.260	-0.340	0.580
2020/01/31 09:14:49.9	316.240	0.260	-0.290	0.590
2020/01/31 09:14:50.0	316.240	0.260	-0.250	0.600
2020/01/31 09:14:50.1	316.230	0.250	-0.210	0.620
2020/01/31 09:14:50.2	316.230	0.250	-0.160	0.630
2020/01/31 09:14:50.3	316.230	0.240	-0.120	0.650
2020/01/31 09:14:50.4	316.220	0.230	-0.080	0.660
2020/01/31 09:14:50.5	316.210	0.210	-0.040	0.670
2020/01/31 09:14:50.6	316.210	0.200	0.000	0.680
2020/01/31 09:14:50.7	316.200	0.180	0.040	0.680
2020/01/31 09:14:50.8	316.190	0.170	0.080	0.690
2020/01/31 09:14:50.9	316.180	0.150	0.110	0.690
2020/01/31 09:14:51.0	316.170	0.130	0.150	0.700
2020/01/31 09:14:51.1	316.160	0.110	0.180	0.700
2020/01/31 09:14:51.2	316.160	0.090	0.220	0.700
2020/01/31 09:14:51.3	316.150	0.060	0.250	0.700
2020/01/31 09:14:51.4	316.140	0.040	0.280	0.700
2020/01/31 09:14:51.5	316.130	0.020	0.300	0.690
2020/01/31 09:14:51.6	316.120	-0.010	0.330	0.690
2020/01/31 09:14:51.7	316.110	-0.030	0.350	0.680
2020/01/31 09:14:51.8	316.100	-0.050	0.370	0.670
2020/01/31 09:14:51.9	316.090	-0.070	0.390	0.660
2020/01/31 09:14:52.0	316.080	-0.100	0.410	0.650
2020/01/31 09:14:52.1	316.070	-0.120	0.420	0.640
2020/01/31 09:14:52.2	316.070	-0.140	0.430	0.630
2020/01/31 09:14:52.3	316.060	-0.150	0.440	0.620
2020/01/31 09:14:52.4	316.050	-0.170	0.450	0.600
2020/01/31 09:14:52.5	316.040	-0.190	0.450	0.590
2020/01/31 09:14:52.6	316.030	-0.200	0.460	0.580
2020/01/31 09:14:52.7	316.020	-0.210	0.460	0.570
2020/01/31 09:14:52.8	316.010	-0.220	0.460	0.560
2020/01/31 09:14:52.9	315.990	-0.230	0.450	0.550
2020/01/31 09:14:53.0	315.980	-0.240	0.450	0.550
2020/01/31 09:14:53.1	315.970	-0.240	0.440	0.540
2020/01/31 09:14:53.2	315.950	-0.250	0.430	0.530
2020/01/31 09:14:53.3	315.940	-0.250	0.420	0.530
2020/01/31 09:14:53.4	315.920	-0.250	0.410	0.530
2020/01/31 09:14:53.5	315.910	-0.250	0.390	0.530
2020/01/31 09:14:53.6	315.890	-0.240	0.370	0.520
2020/01/31 09:14:53.7	315.870	-0.240	0.350	0.520
2020/01/31 09:14:53.8	315.850	-0.230	0.330	0.520
2020/01/31 09:14:53.9	315.830	-0.230	0.310	0.520
2020/01/31 09:14:54.0	315.810	-0.220	0.280	0.520
2020/01/31 09:14:54.1	315.790	-0.210	0.260	0.520
2020/01/31 09:14:54.2	315.770	-0.200	0.230	0.520
2020/01/31 09:14:54.3	315.750	-0.180	0.200	0.530
2020/01/31 09:14:54.4	315.730	-0.170	0.160	0.520
2020/01/31 09:14:54.5	315.710	-0.160	0.130	0.530
2020/01/31 09:14:54.6	315.690	-0.150	0.090	0.530
2020/01/31 09:14:54.7	315.670	-0.130	0.060	0.530
2020/01/31 09:14:54.8	315.660	-0.120	0.020	0.530
2020/01/31 09:14:54.9	315.640	-0.100	-0.030	0.530
2020/01/31 09:14:55.0	315.620	-0.090	-0.070	0.540
2020/01/31 09:14:55.1	315.610	-0.070	-0.110	0.540
2020/01/31 09:14:55.2	315.590	-0.060	-0.160	0.540
2020/01/31 09:14:55.3	315.580	-0.040	-0.200	0.540
2020/01/31 09:14:55.4	315.570	-0.020	-0.250	0.540
2020/01/31 09:14:55.5	315.560	-0.000	-0.290	0.540
2020/01/31 09:14:55.6	315.550	0.010	-0.340	0.540
2020/01/31 09:14:55.7	315.540	0.030	-0.390	0.540
2020/01/31 09:14:55.8	315.540	0.050	-0.440	0.540
2020/01/31 09:14:55.9	315.530	0.070	-0.480	0.540
2020/01/31 09:14:56.0	315.530	0.090	-0.530	0.530
2020/01/31 09:14:56.1	315.530	0.100	-0.570	0.530
2020/01/31 09:14:56.2	315.530	0.120	-0.620	0.520
2020/01/31 09:14:56.3	315.540	0.140	-0.660	0.520
2020/01/31 09:14:56.4	315.540	0.160	-0.700	0.510
2020/01/31 09:14:56.5	315.550	0.180	-0.740	0.500
2020/01/31 09:14:56.6	315.560	0.200	-0.770	0.490
2020/01/31 09:14:56.7	315.570	0.220	-0.810	0.480
2020/01/31 09:14:56.8	315.580	0.240	-0.840	0.470
2020/01/31 09:14:56.9	315.600	0.260	-0.870	0.460
2020/01/31 09:14:57.0	315.610	0.270	-0.890	0.450
2020/01/31 09:14:57.1	315.630	0.290	-0.920	0.430
2020/01/31 09:14:57.2	315.650	0.310	-0.940	0.420
2020/01/31 09:14:57.3	315.670	0.330	-0.960	0.410
2020/01/31 09:14:57.4	315.700	0.340	-0.970	0.390
2020/01/31 09:14:57.5	315.720	0.350	-0.980	0.380
2020/01/31 09:14:57.6	315.740	0.370	-0.990	0.370
2020/01/31 09:14:57.7	315.760	0.380	-0.990	0.350
2020/01/31 09:14:57.8	315.790	0.390	-0.990	0.340
2020/01/31 09:14:57.9	315.810	0.390	-0.980	0.330
2020/01/31 09:14:58.0	315.830	0.400	-0.980	0.320
2020/01/31 09:14:58.1	315.860	0.400	-0.960	0.310
2020/01/31 09:14:58.2	315.880	0.400	-0.950	0.300
2020/01/31 09:14:58.3	315.900	0.400	-0.930	0.290
2020/01/31 09:14:58.4	315.920	0.400	-0.910	0.290
2020/01/31 09:14:58.5	315.940	0.390	-0.890	0.280
2020/01/31 09:14:58.6	315.970	0.390	-0.860	0.270
2020/01/31 09:14:58.7	315.990	0.380	-0.830	0.270
2020/01/31 09:14:58.8	316.010	0.360	-0.800	0.260
2020/01/31 09:14:58.9	316.030	0.350	-0.770	0.250
2020/01/31 09:14:59.0	316.050	0.330	-0.740	0.250
2020/01/31 09:14:59.1	316.070	0.310	-0.700	0.240
2020/01/31 09:14:59.2	316.090	0.290	-0.670	0.240
2020/01/31 09:14:59.3	316.110	0.260	-0.630	0.240
2020/01/31 09:14:59.4	316.120	0.240	-0.600	0.240
2020/01/31 09:14:59.5	316.140	0.210	-0.570	0.230
2020/01/31 09:14:59.6	316.160	0.180	-0.530	0.230
2020/01/31 09:14:59.7	316.180	0.150	-0.500	0.230
2020/01/31 09:14:59.8	316.200	0.120	-0.460	0.230
2020/01/31 09:14:59.9	316.220	0.090	-0.430	0.230
2020/01/31 09:15:00.0	316.240	0.060	-0.400	0.230
2020/01/31 09:15:00.1	316.270	0.020	-0.370	0.230
2020/01/31 09:15:00.2	316.290	-0.010	-0.330	0.230
2020/01/31 09:15:00.3	316.310	-0.040	-0.300	0.230
2020/01/31 09:15:00.4	316.320	-0.080	-0.280	0.220
2020/01/31 09:15:00.5	316.340	-0.110	-0.250	0.230
2020/01/31 09:15:00.6	316.350	-0.150	-0.220	0.230
2020/01/31 09:15:00.7	316.370	-0.180	-0.190	0.230
2020/01/31 09:15:00.8	316.390	-0.210	-0.160	0.230
2020/01/31 09:15:00.9	316.400	-0.250	-0.130	0.220
2020/01/31 09:15:01.0	316.420	-0.280	-0.100	0.220
2020/01/31 09:15:01.1	316.430	-0.310	-0.070	0.220
2020/01/31 09:15:01.2	316.440	-0.340	-0.040	0.220
2020/01/31 09:15:01.3	316.450	-0.370	-0.010	0.220
2020/01/31 09:15:01.4	316.460	-0.400	0.020	0.220
2020/01/31 09:15:01.5	316.470	-0.420	0.050	0.220
2020/01/31 09:15:01.6	316.470	-0.450	0.080	0.220
2020/01/31 09:15:01.7	316.480	-0.470	0.120	0.220
2020/01/31 09:15:01.8	316.480	-0.490	0.150	0.210
2020/01/31 09:15:01.9	316.480	-0.510	0.180	0.210
2020/01/31 09:15:02.0	316.470	-0.520	0.220	0.210
2020/01/31 09:15:02.1	316.470	-0.540	0.260	0.210
2020/01/31 09:15:02.2	316.460	-0.550	0.290	0.220
2020/01/31 09:15:02.3	316.450	-0.560	0.330	0.220
2020/01/31 09:15:02.4	316.440	-0.570	0.360	0.220
2020/01/31 09:15:02.5	316.420	-0.570	0.400	0.230
2020/01/31 09:15:02.6	316.400	-0.580	0.430	0.240
2020/01/31 09:15:02.7	316.380	-0.580	0.460	0.250
2020/01/31 09:15:02.8	316.350	-0.580	0.490	0.260
2020/01/31 09:15:02.9	316.330	-0.570	0.520	0.270
2020/01/31 09:15:03.0	316.300	-0.570	0.550	0.280
2020/01/31 09:15:03.1	316.270	-0.560	0.570	0.300
2020/01/31 09:15:03.2	316.230	-0.550	0.590	0.310
2020/01/31 09:15:03.3	316.200	-0.540	0.610	0.330
2020/01/31 09:15:03.4	316.170	-0.520	0.620	0.350
2020/01/31 09:15:03.5	316.130	-0.510	0.630	0.360
2020/01/31 09:15:03.6	316.090	-0.490	0.640	0.380
2020/01/31 09:15:03.7	316.050	-0.470	0.640	0.400
2020/01/31 09:15:03.8	316.010	-0.450	0.630	0.430
2020/01/31 09:15:03.9	315.970	-0.420	0.630	0.450
2020/01/31 09:15:04.0	315.930	-0.400	0.610	0.470
2020/01/31 09:15:04.1	315.890	-0.370	0.590	0.490
2020/01/31 09:15:04.2	315.840	-0.340	0.570	0.520
2020/01/31 09:15:04.3	315.810	-0.310	0.540	0.540
2020/01/31 09:15:04.4	315.770	-0.280	0.510	0.570
2020/01/31 09:15:04.5	315.730	-0.250	0.470	0.600
2020/01/31 09:15:04.6	315.690	-0.220	0.430	0.620
2020/01/31 09:15:04.7	315.650	-0.180	0.390	0.650
2020/01/31 09:15:04.8	315.610	-0.150	0.340	0.670
2020/01/31 09:15:04.9	315.570	-0.120	0.290	0.700
2020/01/31 09:15:05.0	315.530	-0.080	0.240	0.720
2020/01/31 09:15:05.1	315.490	-0.050	0.190	0.750
2020/01/31 09:15:05.2	315.460	-0.010	0.130	0.770
2020/01/31 09:15:05.3	315.420	0.020	0.070	0.790
2020/01/31 09:15:05.4	315.400	0.060	0.010	0.810
2020/01/31 09:15:05.5	315.370	0.090	-0.050	0.830
2020/01/31 09:15:05.6	315.340	0.120	-0.110	0.850
2020/01/31 09:15:05.7	315.310	0.150	-0.170	0.870
2020/01/31 09:15:05.8	315.290	0.180	-0.230	0.880
2020/01/31 09:15:05.9	315.270	0.210	-0.290	0.900
2020/01/31 09:15:06.0	315.250	0.230	-0.350	0.910
2020/01/31 09:15:06.1	315.240	0.260	-0.400	0.920
2020/01/31 09:15:06.2	315.230	0.280	-0.460	0.930
2020/01/31 09:15:06.3	315.220	0.300	-0.520	0.930
2020/01/31 09:15:06.4	315.210	0.320	-0.570	0.930
2020/01/31 09:15:06.5	315.210	0.340	-0.620	0.930
2020/01/31 09:15:06.6	315.210	0.360	-0.660	0.930
2020/01/31 09:15:06.7	315.210	0.370	-0.710	0.930
2020/01/31 09:15:06.8	315.220	0.380	-0.750	0.920
2020/01/31 09:15:06.9	315.220	0.390	-0.790	0.920
2020/01/31 09:15:07.0	315.240	0.400	-0.820	0.910
2020/01/31 09:15:07.1	315.250	0.400	-0.850	0.900
2020/01/31 09:15:07.2	315.270	0.410	-0.880	0.890
2020/01/31 09:15:07.3	315.280	0.410	-0.900	0.880
2020/01/31 09:15:07.4	315.300	0.410	-0.920	0.870
2020/01/31 09:15:07.5	315.320	0.410	-0.930	0.850
2020/01/31 09:15:07.6	315.350	0.410	-0.940	0.840
2020/01/31 09:15:07.7	315.370	0.400	-0.940	0.830
2020/01/31 09:15:07.8	315.390	0.400	-0.940	0.810
2020/01/31 09:15:07.9	315.420	0.390	-0.930	0.800
2020/01/31 09:15:08.0	315.440	0.380	-0.920	0.790
2020/01/31 09:15:08.1	315.460	0.380	-0.910	0.780
2020/01/31 09:15:08.2	315.480	0.370	-0.890	0.770
2020/01/31 09:15:08.3	315.500	0.360	-0.870	0.770
2020/01/31 09:15:08.4	315.530	0.350	-0.850	0.760
2020/01/31 09:15:08.5	315.550	0.340	-0.820	0.760
2020/01/31 09:15:08.6	315.560	0.330	-0.790	0.760
2020/01/31 09:15:08.7	315.580	0.320	-0.750	0.760
2020/01/31 09:15:08.8	315.590	0.300	-0.720	0.760
2020/01/31 09:15:08.9	315.600	0.290	-0.690	0.760
2020/01/31 09:15:09.0	315.610	0.280	-0.650	0.760
2020/01/31 09:15:09.1	315.620	0.270	-0.620	0.760
2020/01/31 09:15:09.2	315.630	0.260	-0.580	0.770
2020/01/31 09:15:09.3	315.640	0.250	-0.550	0.770
2020/01/31 09:15:09.4	315.640	0.240	-0.520	0.760
2020/01/31 09:15:09.5	315.650	0.230	-0.490	0.760
2020/01/31 09:15:09.6	315.650	0.230	-0.470	0.760
2020/01/31 09:15:09.7	315.660	0.220	-0.440	0.760
2020/01/31 09:15:09.8	315.660	0.210	-0.430	0.750
2020/01/31 09:15:09.9	315.670	0.210	-0.410	0.740
2020/01/31 09:15:10.0	315.670	0.200	-0.400	0.730
2020/01/31 09:15:10.1	315.680	0.200	-0.390	0.720
2020/01/31 09:15:10.2	315.690	0.190	-0.390	0.710
2020/01/31 09:15:10.3	315.690	0.190	-0.390	0.690
2020/01/31 09:15:10.4	315.700	0.190	-0.390	0.670
2020/01/31 09:15:10.5	315.710	0.190	-0.400	0.650
2020/01/31 09:15:10.6	315.720	0.190	-0.400	0.630
2020/01/31 09:15:10.7	315.730	0.190	-0.410	0.600
2020/01/31 09:15:10.8	315.740	0.190	-0.430	0.580
2020/01/31 09:15:10.9	315.740	0.190	-0.440	0.550
2020/01/31 09:15:11.0	315.750	0.190	-0.450	0.520
2020/01/31 09:15:11.1	315.760	0.190	-0.470	0.490
2020/01/31 09:15:11.2	315.780	0.190	-0.480	0.460
2020/01/31 09:15:11.3	315.790	0.190	-0.490	0.420
2020/01/31 09:15:11.4	315.800	0.190	-0.500	0.390
2020/01/31 09:15:11.5	315.810	0.190	-0.510	0.360
2020/01/31 09:15:11.6	315.820	0.190	-0.510	0.330
2020/01/31 09:15:11.7	315.830	0.190	-0.510	0.300
2020/01/31 09:15:11.8	315.840	0.180	-0.510	0.270
2020/01/31 09:15:11.9	315.850	0.180	-0.500	0.240
2020/01/31 09:15:12.0	315.860	0.170	-0.490	0.220
2020/01/31 09:15:12.1	315.870	0.170	-0.480	0.190
2020/01/31 09:15:12.2	315.870	0.160	-0.460	0.160
2020/01/31 09:15:12.3	315.880	0.150	-0.440	0.140
2020/01/31 09:15:12.4	315.880	0.140	-0.420	0.110
2020/01/31 09:15:12.5	315.890	0.120	-0.390	0.090
2020/01/31 09:15:12.6	315.900	0.110	-0.360	0.070
2020/01/31 09:15:12.7	315.900	0.090	-0.320	0.040
2020/01/31 09:15:12.8	315.900	0.070	-0.280	0.020
2020/01/31 09:15:12.9	315.910	0.050	-0.240	-0.000
2020/01/31 09:15:13.0	315.910	0.030	-0.200	-0.020
2020/01/31 09:15:13.1	315.910	0.010	-0.160	-0.040
2020/01/31 09:15:13.2	315.920	-0.020	-0.110	-0.060
2020/01/31 09:15:13.3	315.920	-0.050	-0.060	-0.080
2020/01/31 09:15:13.4	315.920	-0.070	-0.010	-0.100
2020/01/31 09:15:13.5	315.920	-0.100	0.040	-0.120
2020/01/31 09:15:13.6	315.930	-0.130	0.090	-0.140
2020/01/31 09:15:13.7	315.930	-0.160	0.140	-0.150
2020/01/31 09:15:13.8	315.930	-0.190	0.190	-0.170
2020/01/31 09:15:13.9	315.930	-0.220	0.240	-0.180
2020/01/31 09:15:14.0	315.920	-0.250	0.290	-0.190
2020/01/31 09:15:14.1	315.920	-0.280	0.330	-0.200
2020/01/31 09:15:14.2	315.920	-0.300	0.380	-0.210
2020/01/31 09:15:14.3	315.920	-0.330	0.410	-0.210
2020/01/31 09:15:14.4	315.920	-0.360	0.460	-0.220
2020/01/31 09:15:14.5	315.910	-0.380	0.490	-0.210
2020/01/31 09:15:14.6	315.900	-0.410	0.530	-0.210
2020/01/31 09:15:14.7	315.890	-0.430	0.560	-0.200
2020/01/31 09:15:14.8	315.880	-0.450	0.590	-0.190
2020/01/31 09:15:14.9	315.870	-0.470	0.610	-0.170
2020/01/31 09:15:15.0	315.860	-0.490	0.630	-0.150
2020/01/31 09:15:15.1	315.840	-0.510	0.650	-0.130
2020/01/31 09:15:15.2	315.830	-0.520	0.660	-0.110
2020/01/31 09:15:15.3	315.810	-0.530	0.670	-0.080
2020/01/31 09:15:15.4	315.800	-0.540	0.670	-0.050
2020/01/31 09:15:15.5	315.790	-0.550	0.670	-0.020
2020/01/31 09:15:15.6	315.770	-0.550	0.660	0.020
2020/01/31 09:15:15.7	315.750	-0.550	0.650	0.050
2020/01/31 09:15:15.8	315.730	-0.550	0.630	0.090
2020/01/31 09:15:15.9	315.710	-0.550	0.610	0.120
2020/01/31 09:15:16.0	315.690	-0.540	0.580	0.160
2020/01/31 09:15:16.1	315.670	-0.530	0.540	0.200
2020/01/31 09:15:16.2	315.650	-0.520	0.510	0.240
2020/01/31 09:15:16.3	315.630	-0.510	0.470	0.280
2020/01/31 09:15:16.4	315.610	-0.490	0.420	0.310
2020/01/31 09:15:16.5	315.590	-0.480	0.370	0.350
2020/01/31 09:15:16.6	315.570	-0.460	0.320	0.390
2020/01/31 09:15:16.7	315.550	-0.430	0.270	0.430
2020/01/31 09:15:16.8	315.540	-0.410	0.210	0.470
2020/01/31 09:15:16.9	315.520	-0.380	0.150	0.510
2020/01/31 09:15:17.0	315.510	-0.350	0.090	0.550
2020/01/31 09:15:17.1	315.490	-0.320	0.040	0.590
2020/01/31 09:15:17.2	315.480	-0.290	-0.020	0.620
2020/01/31 09:15:17.3	315.470	-0.260	-0.080	0.660
2020/01/31 09:15:17.4	315.450	-0.230	-0.140	0.690
2020/01/31 09:15:17.5	315.450	-0.190	-0.190	0.730
2020/01/31 09:15:17.6	315.440	-0.160	-0.250	0.760
2020/01/31 09:15:17.7	315.430	-0.130	-0.300	0.790
2020/01/31 09:15:17.8	315.420	-0.090	-0.350	0.820
2020/01/31 09:15:17.9	315.410	-0.060	-0.400	0.850
2020/01/31 09:15:18.0	315.410	-0.030	-0.440	0.880
2020/01/31 09:15:18.1	315.400	0.000	-0.480	0.900
2020/01/31 09:15:18.2	315.400	0.030	-0.520	0.930
2020/01/31 09:15:18.3	315.400	0.060	-0.560	0.950
2020/01/31 09:15:18.4	315.390	0.090	-0.590	0.980
2020/01/31 09:15:18.5	315.390	0.110	-0.620	1.000
2020/01/31 09:15:18.6	315.390	0.140	-0.640	1.010
2020/01/31 09:15:18.7	315.380	0.160	-0.670	1.030
2020/01/31 09:15:18.8	315.380	0.180	-0.690	1.040
2020/01/31 09:15:18.9	315.380	0.190	-0.700	1.050
2020/01/31 09:15:19.0	315.380	0.210	-0.720	1.050
2020/01/31 09:15:19.1	315.390	0.220	-0.730	1.060
2020/01/31 09:15:19.2	315.390	0.230	-0.730	1.060
2020/01/31 09:15:19.3	315.390	0.240	-0.740	1.060
2020/01/31 09:15:19.4	315.400	0.240	-0.740	1.050
2020/01/31 09:15:19.5	315.400	0.250	-0.740	1.040
2020/01/31 09:15:19.6	315.410	0.250	-0.740	1.030
2020/01/31 09:15:19.7	315.410	0.250	-0.740	1.020
2020/01/31 09:15:19.8	315.420	0.250	-0.730	1.010
2020/01/31 09:15:19.9	315.430	0.240	-0.730	0.990
2020/01/31 09:15:20.0	315.430	0.240	-0.720	0.970
2020/01/31 09:15:20.1	315.440	0.230	-0.710	0.950
2020/01/31 09:15:20.2	315.450	0.220	-0.700	0.920
2020/01/31 09:15:20.3	315.460	0.220	-0.690	0.900
2020/01/31 09:15:20.4	315.480	0.210	-0.680	0.880
2020/01/31 09:15:20.5	315.490	0.200	-0.670	0.850
2020/01/31 09:15:20.6	315.510	0.190	-0.650	0.820
2020/01/31 09:15:20.7	315.520	0.180	-0.640	0.790
2020/01/31 09:15:20.8	315.530	0.170	-0.630	0.750
2020/01/31 09:15:20.9	315.550	0.160	-0.620	0.720
2020/01/31 09:15:21.0	315.560	0.150	-0.610	0.690
2020/01/31 09:15:21.1	315.580	0.140	-0.600	0.650
2020/01/31 09:15:21.2	315.590	0.140	-0.590	0.620
2020/01/31 09:15:21.3	315.610	0.130	-0.580	0.580
2020/01/31 09:15:21.4	315.630	0.120	-0.570	0.540
2020/01/31 09:15:21.5	315.650	0.120	-0.560	0.500
2020/01/31 09:15:21.6	315.670	0.110	-0.560	0.470
2020/01/31 09:15:21.7	315.680	0.110	-0.550	0.440
2020/01/31 09:15:21.8	315.700	0.110	-0.540	0.400
2020/01/31 09:15:21.9	315.720	0.110	-0.540	0.370
2020/01/31 09:15:22.0	315.740	0.110	-0.530	0.340
2020/01/31 09:15:22.1	315.760	0.110	-0.530	0.310
2020/01/31 09:15:22.2	315.770	0.110	-0.520	0.280
2020/01/31 09:15:22.3	315.790	0.110	-0.520	0.250
2020/01/31 09:15:22.4	315.810	0.110	-0.510	0.220
2020/01/31 09:15:22.5	315.820	0.110	-0.510	0.200
2020/01/31 09:15:22.6	315.840	0.120	-0.500	0.180
2020/01/31 09:15:22.7	315.850	0.120	-0.490	0.160
2020/01/31 09:15:22.8	315.870	0.120	-0.480	0.140
2020/01/31 09:15:22.9	315.880	0.130	-0.480	0.120
2020/01/31 09:15:23.0	315.900	0.130	-0.470	0.110
2020/01/31 09:15:23.1	315.910	0.130	-0.460	0.090
2020/01/31 09:15:23.2	315.920	0.140	-0.450	0.080
2020/01/31 09:15:23.3	315.930	0.140	-0.440	0.080
2020/01/31 09:15:23.4	315.930	0.140	-0.430	0.070
2020/01/31 09:15:23.5	315.940	0.140	-0.410	0.070
2020/01/31 09:15:23.6	315.950	0.150	-0.400	0.070
2020/01/31 09:15:23.7	315.960	0.150	-0.390	0.070
2020/01/31 09:15:23.8	315.960	0.150	-0.370	0.080
2020/01/31 09:15:23.9	315.970	0.150	-0.360	0.080
2020/01/31 09:15:24.0	315.970	0.150	-0.350	0.090
2020/01/31 09:15:24.1	315.970	0.150	-0.330	0.110
2020/01/31 09:15:24.2	315.980	0.150	-0.320	0.120
2020/01/31 09:15:24.3	315.980	0.150	-0.300	0.140
2020/01/31 09:15:24.4	315.980	0.150	-0.280	0.160
2020/01/31 09:15:24.5	315.990	0.150	-0.270	0.180
2020/01/31 09:15:24.6	315.990	0.150	-0.250	0.200
2020/01/31 09:15:24.7	315.990	0.140	-0.240	0.220
2020/01/31 09:15:24.8	316.000	0.140	-0.220	0.240
2020/01/31 09:15:24.9	316.000	0.140	-0.200	0.260
2020/01/31 09:15:25.0	316.010	0.140	-0.190	0.280
2020/01/31 09:15:25.1	316.010	0.130	-0.170	0.300
2020/01/31 09:15:25.2	316.020	0.130	-0.150	0.320
2020/01/31 09:15:25.3	316.030	0.120	-0.130	0.340
2020/01/31 09:15:25.4	316.030	0.120	-0.110	0.360
2020/01/31 09:15:25.5	316.040	0.110	-0.090	0.380
2020/01/31 09:15:25.6	316.050	0.110	-0.070	0.390
2020/01/31 09:15:25.7	316.050	0.100	-0.050	0.410
2020/01/31 09:15:25.8	316.060	0.100	-0.030	0.430
2020/01/31 09:15:25.9	316.060	0.090	-0.010	0.450
2020/01/31 09:15:26.0	316.070	0.080	0.010	0.470
2020/01/31 09:15:26.1	316.070	0.080	0.040	0.490
2020/01/31 09:15:26.2	316.070	0.070	0.060	0.520
2020/01/31 09:15:26.3	316.070	0.060	0.090	0.540
2020/01/31 09:15:26.4	316.070	0.050	0.110	0.560
2020/01/31 09:15:26.5	316.060	0.040	0.140	0.590
2020/01/31 09:15:26.6	316.060	0.030	0.170	0.620
2020/01/31 09:15:26.7	316.050	0.020	0.190	0.640
2020/01/31 09:15:26.8	316.040	0.010	0.220	0.670
2020/01/31 09:15:26.9	316.020	-0.000	0.250	0.700
2020/01/31 09:15:27.0	316.010	-0.020	0.280	0.730
2020/01/31 09:15:27.1	315.990	-0.030	0.300	0.760
2020/01/31 09:15:27.2	315.970	-0.040	0.330	0.780
2020/01/31 09:15:27.3	315.960	-0.050	0.350	0.810
2020/01/31 09:15:27.4	315.940	-0.070	0.360	0.830
2020/01/31 09:15:27.5	315.920	-0.080	0.380	0.850
2020/01/31 09:15:27.6	315.890	-0.090	0.390	0.870
2020/01/31 09:15:27.7	315.870	-0.100	0.400	0.890
2020/01/31 09:15:27.8	315.850	-0.110	0.410	0.900
2020/01/31 09:15:27.9	315.830	-0.120	0.410	0.910
2020/01/31 09:15:28.0	315.810	-0.130	0.410	0.910
2020/01/31 09:15:28.1	315.780	-0.140	0.400	0.920
2020/01/31 09:15:28.2	315.760	-0.150	0.390	0.910
2020/01/31 09:15:28.3	315.740	-0.160	0.380	0.910
2020/01/31 09:15:28.4	315.730	-0.160	0.360	0.890
2020/01/31 09:15:28.5	315.710	-0.170	0.330	0.880
2020/01/31 09:15:28.6	315.700	-0.170	0.300	0.860
2020/01/31 09:15:28.7	315.680	-0.170	0.270	0.830
2020/01/31 09:15:28.8	315.670	-0.170	0.240	0.800
2020/01/31 09:15:28.9	315.660	-0.170	0.200	0.770
2020/01/31 09:15:29.0	315.650	-0.170	0.160	0.740
2020/01/31 09:15:29.1	315.650	-0.170	0.110	0.700
2020/01/31 09:15:29.2	315.640	-0.160	0.070	0.670
2020/01/31 09:15:29.3	315.640	-0.160	0.020	0.630
2020/01/31 09:15:29.4	315.640	-0.150	-0.020	0.580
2020/01/31 09:15:29.5	315.630	-0.150	-0.070	0.540
2020/01/31 09:15:29.6	315.630	-0.140	-0.110	0.500
2020/01/31 09:15:29.7	315.630	-0.140	-0.150	0.450
2020/01/31 09:15:29.8	315.630	-0.130	-0.190	0.410
2020/01/31 09:15:29.9	315.620	-0.130	-0.230	0.370
2020/01/31 09:15:30.0	315.620	-0.120	-0.260	0.320
2020/01/31 09:15:30.1	315.620	-0.120	-0.290	0.280
2020/01/31 09:15:30.2	315.620	-0.110	-0.310	0.240
2020/01/31 09:15:30.3	315.620	-0.110	-0.340	0.200
2020/01/31 09:15:30.4	315.620	-0.100	-0.360	0.160
2020/01/31 09:15:30.5	315.610	-0.100	-0.370	0.130
2020/01/31 09:15:30.6	315.610	-0.100	-0.380	0.090
2020/01/31 09:15:30.7	315.610	-0.100	-0.390	0.050
2020/01/31 09:15:30.8	315.610	-0.100	-0.400	0.020
2020/01/31 09:15:30.9	315.610	-0.100	-0.400	-0.010
2020/01/31 09:15:31.0	315.600	-0.110	-0.400	-0.040
2020/01/31 09:15:31.1	315.600	-0.110	-0.390	-0.070
2020/01/31 09:15:31.2	315.600	-0.120	-0.390	-0.090
2020/01/31 09:15:31.3	315.600	-0.120	-0.380	-0.120
2020/01/31 09:15:31.4	315.600	-0.130	-0.380	-0.140
2020/01/31 09:15:31.5	315.600	-0.130	-0.370	-0.150
2020/01/31 09:15:31.6	315.600	-0.140	-0.360	-0.170
2020/01/31 09:15:31.7	315.610	-0.150	-0.350	-0.180
2020/01/31 09:15:31.8	315.610	-0.150	-0.340	-0.190
2020/01/31 09:15:31.9	315.610	-0.160	-0.330	-0.200
2020/01/31 09:15:32.0	315.620	-0.160	-0.330	-0.200
2020/01/31 09:15:32.1	315.630	-0.170	-0.320	-0.210
2020/01/31 09:15:32.2	315.640	-0.170	-0.320	-0.200
2020/01/31 09:15:32.3	315.650	-0.180	-0.320	-0.200
2020/01/31 09:15:32.4	315.660	-0.180	-0.320	-0.200
2020/01/31 09:15:32.5	315.670	-0.180	-0.330	-0.190
2020/01/31 09:15:32.6	315.690	-0.180	-0.330	-0.180
2020/01/31 09:15:32.7	315.700	-0.180	-0.340	-0.160
2020/01/31 09:15:32.8	315.710	-0.170	-0.350	-0.150
2020/01/31 09:15:32.9	315.720	-0.170	-0.360	-0.130
2020/01/31 09:15:33.0	315.740	-0.160	-0.380	-0.110
2020/01/31 09:15:33.1	315.750	-0.160	-0.390	-0.090
2020/01/31 09:15:33.2	315.760	-0.150	-0.410	-0.060
2020/01/31 09:15:33.3	315.770	-0.140	-0.430	-0.040
2020/01/31 09:15:33.4	315.780	-0.130	-0.450	-0.010
2020/01/31 09:15:33.5	315.790	-0.120	-0.470	0.030
2020/01/31 09:15:33.6	315.790	-0.100	-0.490	0.060
2020/01/31 09:15:33.7	315.800	-0.090	-0.510	0.090
2020/01/31 09:15:33.8	315.800	-0.070	-0.530	0.130
2020/01/31 09:15:33.9	315.790	-0.060	-0.550	0.170
2020/01/31 09:15:34.0	315.790	-0.040	-0.570	0.210
2020/01/31 09:15:34.1	315.780	-0.030	-0.580	0.260
2020/01/31 09:15:34.2	315.780	-0.010	-0.600	0.300
2020/01/31 09:15:34.3	315.770	0.010	-0.610	0.350
2020/01/31 09:15:34.4	315.750	0.020	-0.620	0.400
2020/01/31 09:15:34.5	315.740	0.040	-0.630	0.450
2020/01/31 09:15:34.6	315.730	0.060	-0.640	0.500
2020/01/31 09:15:34.7	315.710	0.070	-0.650	0.550
2020/01/31 09:15:34.8	315.700	0.090	-0.650	0.600
2020/01/31 09:15:34.9	315.680	0.100	-0.660	0.650
2020/01/31 09:15:35.0	315.670	0.110	-0.660	0.700
2020/01/31 09:15:35.1	315.650	0.130	-0.660	0.750
2020/01/31 09:15:35.2	315.640	0.140	-0.660	0.800
2020/01/31 09:15:35.3	315.620	0.150	-0.650	0.850
2020/01/31 09:15:35.4	315.610	0.160	-0.650	0.900
2020/01/31 09:15:35.5	315.600	0.170	-0.640	0.940
2020/01/31 09:15:35.6	315.590	0.170	-0.640	0.990
2020/01/31 09:15:35.7	315.580	0.180	-0.630	1.030
2020/01/31 09:15:35.8	315.570	0.180	-0.620	1.060
2020/01/31 09:15:35.9	315.560	0.190	-0.610	1.100
2020/01/31 09:15:36.0	315.550	0.190	-0.600	1.130
2020/01/31 09:15:36.1	315.550	0.190	-0.590	1.160
2020/01/31 09:15:36.2	315.550	0.190	-0.580	1.180
2020/01/31 09:15:36.3	315.550	0.190	-0.570	1.200
2020/01/31 09:15:36.4	315.540	0.190	-0.550	1.220
2020/01/31 09:15:36.5	315.540	0.190	-0.530	1.240
2020/01/31 09:15:36.6	315.540	0.180	-0.520	1.250
2020/01/31 09:15:36.7	315.540	0.180	-0.500	1.250
2020/01/31 09:15:36.8	315.550	0.170	-0.480	1.260
2020/01/31 09:15:36.9	315.550	0.160	-0.460	1.260
2020/01/31 09:15:37.0	315.560	0.150	-0.440	1.250
2020/01/31 09:15:37.1	315.570	0.140	-0.420	1.250
2020/01/31 09:15:37.2	315.570	0.130	-0.400	1.240
2020/01/31 09:15:37.3	315.580	0.120	-0.370	1.230
2020/01/31 09:15:37.4	315.590	0.110	-0.350	1.210
2020/01/31 09:15:37.5	315.600	0.100	-0.320	1.190
2020/01/31 09:15:37.6	315.610	0.080	-0.300	1.180
2020/01/31 09:15:37.7	315.620	0.070	-0.270	1.160
2020/01/31 09:15:37.8	315.630	0.060	-0.240	1.130
2020/01/31 09:15:37.9	315.640	0.040	-0.200	1.110
2020/01/31 09:15:38.0	315.660	0.030	-0.170	1.090
2020/01/31 09:15:38.1	315.670	0.010	-0.140	1.060
2020/01/31 09:15:38.2	315.680	0.000	-0.110	1.030
2020/01/31 09:15:38.3	315.700	-0.010	-0.070	1.000
2020/01/31 09:15:38.4	315.710	-0.020	-0.040	0.970
2020/01/31 09:15:38.5	315.730	-0.040	-0.010	0.940
2020/01/31 09:15:38.6	315.740	-0.050	0.030	0.900
2020/01/31 09:15:38.7	315.760	-0.060	0.060	0.860
2020/01/31 09:15:38.8	315.780	-0.070	0.090	0.830
2020/01/31 09:15:38.9	315.800	-0.080	0.130	0.790
2020/01/31 09:15:39.0	315.820	-0.090	0.160	0.750
2020/01/31 09:15:39.1	315.840	-0.090	0.190	0.710
2020/01/31 09:15:39.2	315.860	-0.100	0.210	0.670
2020/01/31 09:15:39.3	315.880	-0.100	0.240	0.620
2020/01/31 09:15:39.4	315.900	-0.100	0.260	0.580
2020/01/31 09:15:39.5	315.920	-0.110	0.290	0.540
2020/01/31 09:15:39.6	315.930	-0.110	0.310	0.490
2020/01/31 09:15:39.7	315.950	-0.110	0.330	0.450
2020/01/31 09:15:39.8	315.960	-0.110	0.350	0.420
2020/01/31 09:15:39.9	315.980	-0.100	0.370	0.380
2020/01/31 09:15:40.0	315.980	-0.100	0.380	0.350
2020/01/31 09:15:40.1	315.990	-0.100	0.400	0.320
2020/01/31 09:15:40.2	315.990	-0.090	0.410	0.290
2020/01/31 09:15:40.3	315.990	-0.090	0.420	0.270
2020/01/31 09:15:40.4	315.980	-0.080	0.420	0.250
2020/01/31 09:15:40.5	315.970	-0.080	0.430	0.230
2020/01/31 09:15:40.6	315.960	-0.070	0.430	0.220
2020/01/31 09:15:40.7	315.950	-0.060	0.430	0.210
2020/01/31 09:15:40.8	315.930	-0.050	0.430	0.200
2020/01/31 09:15:40.9	315.910	-0.050	0.430	0.200
2020/01/31 09:15:41.0	315.890	-0.040	0.420	0.190
2020/01/31 09:15:41.1	315.860	-0.030	0.410	0.190
2020/01/31 09:15:41.2	315.840	-0.020	0.400	0.200
2020/01/31 09:15:41.3	315.820	-0.010	0.380	0.200
2020/01/31 09:15:41.4	315.800	-0.010	0.360	0.210
2020/01/31 09:15:41.5	315.770	0.000	0.340	0.210
2020/01/31 09:15:41.6	315.740	0.010	0.310	0.220
2020/01/31 09:15:41.7	315.720	0.020	0.280	0.230
2020/01/31 09:15:41.8	315.690	0.030	0.250	0.240
2020/01/31 09:15:41.9	315.670	0.040	0.220	0.240
2020/01/31 09:15:42.0	315.640	0.050	0.180	0.250
2020/01/31 09:15:42.1	315.620	0.060	0.140	0.260
2020/01/31 09:15:42.2	315.600	0.070	0.100	0.260
2020/01/31 09:15:42.3	315.580	0.080	0.060	0.260
2020/01/31 09:15:42.4	315.560	0.100	0.010	0.270
2020/01/31 09:15:42.5	315.540	0.110	-0.030	0.270
2020/01/31 09:15:42.6	315.530	0.120	-0.080	0.280
2020/01/31 09:15:42.7	315.510	0.130	-0.130	0.280
2020/01/31 09:15:42.8	315.500	0.150	-0.170	0.280
2020/01/31 09:15:42.9	315.480	0.160	-0.220	0.290
2020/01/31 09:15:43.0	315.470	0.170	-0.270	0.290
2020/01/31 09:15:43.1	315.460	0.190	-0.320	0.300
2020/01/31 09:15:43.2	315.450	0.200	-0.360	0.300
2020/01/31 09:15:43.3	315.440	0.210	-0.410	0.310
2020/01/31 09:15:43.4	315.420	0.220	-0.450	0.310
2020/01/31 09:15:43.5	315.420	0.230	-0.490	0.320
2020/01/31 09:15:43.6	315.410	0.240	-0.530	0.320
2020/01/31 09:15:43.7	315.400	0.250	-0.570	0.320
2020/01/31 09:15:43.8	315.400	0.260	-0.610	0.320
2020/01/31 09:15:43.9	315.390	0.260	-0.650	0.320
2020/01/31 09:15:44.0	315.390	0.270	-0.680	0.320
2020/01/31 09:15:44.1	315.390	0.270	-0.710	0.320
2020/01/31 09:15:44.2	315.390	0.270	-0.740	0.310
2020/01/31 09:15:44.3	315.390	0.270	-0.770	0.300
2020/01/31 09:15:44.4	315.390	0.270	-0.790	0.300
2020/01/31 09:15:44.5	315.400	0.270	-0.820	0.290
2020/01/31 09:15:44.6	315.410	0.260	-0.840	0.280
2020/01/31 09:15:44.7	315.420	0.250	-0.860	0.260
2020/01/31 09:15:44.8	315.430	0.240	-0.870	0.250
2020/01/31 09:15:44.9	315.440	0.230	-0.880	0.230
2020/01/31 09:15:45.0	315.460	0.220	-0.900	0.220
2020/01/31 09:15:45.1	315.480	0.200	-0.900	0.200
2020/01/31 09:15:45.2	315.500	0.190	-0.910	0.180
2020/01/31 09:15:45.3	315.510	0.170	-0.910	0.160
2020/01/31 09:15:45.4	315.530	0.150	-0.910	0.140
2020/01/31 09:15:45.5	315.560	0.130	-0.910	0.130
2020/01/31 09:15:45.6	315.580	0.110	-0.900	0.110
2020/01/31 09:15:45.7	315.600	0.080	-0.890	0.090
2020/01/31 09:15:45.8	315.620	0.060	-0.870	0.070
2020/01/31 09:15:45.9	315.640	0.030	-0.860	0.050
2020/01/31 09:15:46.0	315.670	0.010	-0.840	0.040
2020/01/31 09:15:46.1	315.690	-0.020	-0.810	0.020
2020/01/31 09:15:46.2	315.710	-0.050	-0.790	0.010
2020/01/31 09:15:46.3	315.730	-0.080	-0.760	-0.010
2020/01/31 09:15:46.4	315.750	-0.100	-0.720	-0.020
2020/01/31 09:15:46.5	315.770	-0.130	-0.690	-0.030
2020/01/31 09:15:46.6	315.790	-0.160	-0.650	-0.040
2020/01/31 09:15:46.7	315.800	-0.190	-0.620	-0.050
2020/01/31 09:15:46.8	315.820	-0.210	-0.580	-0.050
2020/01/31 09:15:46.9	315.830	-0.240	-0.530	-0.050
2020/01/31 09:15:47.0	315.840	-0.260	-0.490	-0.050
2020/01/31 09:15:47.1	315.850	-0.290	-0.440	-0.040
2020/01/31 09:15:47.2	315.850	-0.310	-0.400	-0.030
2020/01/31 09:15:47.3	315.850	-0.330	-0.350	-0.020
2020/01/31 09:15:47.4	315.850	-0.350	-0.300	-0.000
2020/01/31 09:15:47.5	315.850	-0.370	-0.250	0.020
2020/01/31 09:15:47.6	315.840	-0.390	-0.200	0.040
2020/01/31 09:15:47.7	315.820	-0.400	-0.150	0.070
2020/01/31 09:15:47.8	315.810	-0.420	-0.110	0.100
2020/01/31 09:15:47.9	315.790	-0.430	-0.060	0.130
2020/01/31 09:15:48.0	315.770	-0.440	-0.010	0.160
2020/01/31 09:15:48.1	315.740	-0.450	0.030	0.190
2020/01/31 09:15:48.2	315.720	-0.460	0.080	0.220
2020/01/31 09:15:48.3	315.700	-0.460	0.120	0.260
2020/01/31 09:15:48.4	315.670	-0.470	0.160	0.290
2020/01/31 09:15:48.5	315.640	-0.470	0.190	0.320
2020/01/31 09:15:48.6	315.620	-0.470	0.230	0.350
2020/01/31 09:15:48.7	315.590	-0.470	0.260	0.380
2020/01/31 09:15:48.8	315.560	-0.470	0.280	0.410
2020/01/31 09:15:48.9	315.540	-0.460	0.300	0.440
2020/01/31 09:15:49.0	315.510	-0.460	0.320	0.470
2020/01/31 09:15:49.1	315.490	-0.450	0.340	0.490
2020/01/31 09:15:49.2	315.470	-0.440	0.350	0.510
2020/01/31 09:15:49.3	315.450	-0.420	0.350	0.530
2020/01/31 09:15:49.4	315.430	-0.410	0.350	0.550
2020/01/31 09:15:49.5	315.420	-0.390	0.350	0.570
2020/01/31 09:15:49.6	315.400	-0.370	0.340	0.580
2020/01/31 09:15:49.7	315.380	-0.350	0.330	0.600
2020/01/31 09:15:49.8	315.370	-0.330	0.310	0.610
2020/01/31 09:15:49.9	315.360	-0.310	0.300	0.620
2020/01/31 09:15:50.0	315.350	-0.290	0.280	0.630
2020/01/31 09:15:50.1	315.340	-0.260	0.250	0.640
2020/01/31 09:15:50.2	315.330	-0.240	0.230	0.650
2020/01/31 09:15:50.3	315.320	-0.210	0.200	0.660
2020/01/31 09:15:50.4	315.320	-0.180	0.170	0.660
2020/01/31 09:15:50.5	315.310	-0.160	0.140	0.670
2020/01/31 09:15:50.6	315.310	-0.130	0.110	0.680
2020/01/31 09:15:50.7	315.300	-0.100	0.080	0.680
2020/01/31 09:15:50.8	315.300	-0.070	0.040	0.690
2020/01/31 09:15:50.9	315.300	-0.040	0.010	0.700
2020/01/31 09:15:51.0	315.300	-0.010	-0.020	0.700
2020/01/31 09:15:51.1	315.300	0.010	-0.050	0.710
2020/01/31 09:15:51.2	315.300	0.040	-0.080	0.720
2020/01/31 09:15:51.3	315.300	0.070	-0.110	0.720
2020/01/31 09:15:51.4	315.310	0.090	-0.140	0.720
2020/01/31 09:15:51.5	315.320	0.120	-0.160	0.730
2020/01/31 09:15:51.6	315.320	0.140	-0.190	0.730
2020/01/31 09:15:51.7	315.330	0.160	-0.210	0.730
2020/01/31 09:15:51.8	315.340	0.190	-0.230	0.730
2020/01/31 09:15:51.9	315.350	0.210	-0.250	0.720
2020/01/31 09:15:52.0	315.360	0.230	-0.270	0.720
2020/01/31 09:15:52.1	315.370	0.240	-0.290	0.710
2020/01/31 09:15:52.2	315.390	0.260	-0.310	0.710
2020/01/31 09:15:52.3	315.400	0.280	-0.330	0.700
2020/01/31 09:15:52.4	315.410	0.290	-0.340	0.690
2020/01/31 09:15:52.5	315.430	0.300	-0.350	0.680
2020/01/31 09:15:52.6	315.440	0.310	-0.370	0.670
2020/01/31 09:15:52.7	315.460	0.320	-0.380	0.650
2020/01/31 09:15:52.8	315.480	0.330	-0.390	0.640
2020/01/31 09:15:52.9	315.490	0.330	-0.400	0.620
2020/01/31 09:15:53.0	315.510	0.340	-0.410	0.600
2020/01/31 09:15:53.1	315.530	0.340	-0.420	0.580
2020/01/31 09:15:53.2	315.550	0.340	-0.430	0.560
2020/01/31 09:15:53.3	315.570	0.340	-0.430	0.540
2020/01/31 09:15:53.4	315.580	0.340	-0.450	0.510
2020/01/31 09:15:53.5	315.600	0.340	-0.450	0.490
2020/01/31 09:15:53.6	315.610	0.330	-0.460	0.460
2020/01/31 09:15:53.7	315.630	0.330	-0.460	0.440
2020/01/31 09:15:53.8	315.650	0.320	-0.460	0.410
2020/01/31 09:15:53.9	315.670	0.310	-0.460	0.380
2020/01/31 09:15:54.0	315.680	0.300	-0.460	0.350
2020/01/31 09:15:54.1	315.700	0.290	-0.460	0.330
2020/01/31 09:15:54.2	315.710	0.280	-0.460	0.300
2020/01/31 09:15:54.3	315.720	0.270	-0.460	0.270
2020/01/31 09:15:54.4	315.740	0.250	-0.450	0.250
2020/01/31 09:15:54.5	315.750	0.240	-0.440	0.220
2020/01/31 09:15:54.6	315.760	0.230	-0.430	0.200
2020/01/31 09:15:54.7	315.760	0.220	-0.420	0.180
2020/01/31 09:15:54.8	315.770	0.200	-0.410	0.160
2020/01/31 09:15:54.9	315.770	0.190	-0.400	0.140
2020/01/31 09:15:55.0	315.780	0.180	-0.390	0.120
2020/01/31 09:15:55.1	315.780	0.170	-0.370	0.110
2020/01/31 09:15:55.2	315.780	0.150	-0.360	0.100
2020/01/31 09:15:55.3	315.780	0.140	-0.340	0.080
2020/01/31 09:15:55.4	315.780	0.130	-0.320	0.080
2020/01/31 09:15:55.5	315.780	0.120	-0.310	0.070
2020/01/31 09:15:55.6	315.780	0.110	-0.290	0.060
2020/01/31 09:15:55.7	315.770	0.100	-0.270	0.060
2020/01/31 09:15:55.8	315.770	0.090	-0.250	0.060
2020/01/31 09:15:55.9	315.770	0.080	-0.230	0.060
2020/01/31 09:15:56.0	315.760	0.070	-0.220	0.060
2020/01/31 09:15:56.1	315.760	0.070	-0.200	0.060
2020/01/31 09:15:56.2	315.760	0.060	-0.180	0.060
2020/01/31 09:15:56.3	315.760	0.050	-0.170	0.070
2020/01/31 09:15:56.4	315.760	0.050	-0.160	0.070
2020/01/31 09:15:56.5	315.750	0.040	-0.150	0.080
2020/01/31 09:15:56.6	315.750	0.030	-0.140	0.090
2020/01/31 09:15:56.7	315.750	0.030	-0.130	0.100
2020/01/31 09:15:56.8	315.750	0.020	-0.120	0.110
2020/01/31 09:15:56.9	315.750	0.020	-0.110	0.120
2020/01/31 09:15:57.0	315.750	0.010	-0.110	0.140
2020/01/31 09:15:57.1	315.760	0.010	-0.100	0.150
2020/01/31 09:15:57.2	315.760	0.000	-0.100	0.170
2020/01/31 09:15:57.3	315.760	-0.000	-0.100	0.190
2020/01/31 09:15:57.4	315.760	-0.010	-0.100	0.210
2020/01/31 09:15:57.5	315.760	-0.010	-0.110	0.240
2020/01/31 09:15:57.6	315.760	-0.020	-0.110	0.260
2020/01/31 09:15:57.7	315.760	-0.020	-0.110	0.280
2020/01/31 09:15:57.8	315.750	-0.030	-0.120	0.310
2020/01/31 09:15:57.9	315.750	-0.030	-0.130	0.340
2020/01/31 09:15:58.0	315.740	-0.040	-0.130	0.360
2020/01/31 09:15:58.1	315.740	-0.040	-0.140	0.390
2020/01/31 09:15:58.2	315.730	-0.050	-0.150	0.420
2020/01/31 09:15:58.3	315.720	-0.050	-0.160	0.450
2020/01/31 09:15:58.4	315.710	-0.060	-0.170	0.480
2020/01/31 09:15:58.5	315.690	-0.060	-0.170	0.510
2020/01/31 09:15:58.6	315.680	-0.070	-0.190	0.550
2020/01/31 09:15:58.7	315.660	-0.070	-0.190	0.580
2020/01/31 09:15:58.8	315.650	-0.070	-0.210	0.610
2020/01/31 09:15:58.9	315.630	-0.080	-0.220	0.640
2020/01/31 09:15:59.0	315.610	-0.080	-0.230	0.680
2020/01/31 09:15:59.1	315.590	-0.080	-0.240	0.710
2020/01/31 09:15:59.2	315.570	-0.090	-0.250	0.740
2020/01/31 09:15:59.3	315.550	-0.090	-0.270	0.780
2020/01/31 09:15:59.4	315.530	-0.090	-0.280	0.810
2020/01/31 09:15:59.5	315.510	-0.090	-0.290	0.830
2020/01/31 09:15:59.6	315.490	-0.090	-0.310	0.860
2020/01/31 09:15:59.7	315.470	-0.090	-0.330	0.890
2020/01/31 09:15:59.8	315.450	-0.090	-0.340	0.910
2020/01/31 09:15:59.9	315.440	-0.090	-0.360	0.930
2020/01/31 09:16:00.0	315.420	-0.090	-0.380	0.950
2020/01/31 09:16:00.1	315.400	-0.090	-0.400	0.970
2020/01/31 09:16:00.2	315.390	-0.090	-0.410	0.980
2020/01/31 09:16:00.3	315.370	-0.090	-0.430	0.990
2020/01/31 09:16:00.4	315.360	-0.090	-0.450	1.000
2020/01/31 09:16:00.5	315.350	-0.090	-0.460	1.000
2020/01/31 09:16:00.6	315.340	-0.090	-0.470	1.000
2020/01/31 09:16:00.7	315.330	-0.090	-0.490	1.000
2020/01/31 09:16:00.8	315.320	-0.090	-0.500	0.990
2020/01/31 09:16:00.9	315.320	-0.090	-0.510	0.980
2020/01/31 09:16:01.0	315.310	-0.090	-0.510	0.970
2020/01/31 09:16:01.1	315.310	-0.090	-0.510	0.950
2020/01/31 09:16:01.2	315.310	-0.090	-0.510	0.940
2020/01/31 09:16:01.3	315.310	-0.100	-0.510	0.920
2020/01/31 09:16:01.4	315.310	-0.100	-0.510	0.890
2020/01/31 09:16:01.5	315.310	-0.100	-0.500	0.870
2020/01/31 09:16:01.6	315.310	-0.110	-0.490	0.840
2020/01/31 09:16:01.7	315.320	-0.110	-0.480	0.810
2020/01/31 09:16:01.8	315.330	-0.120	-0.460	0.780
2020/01/31 09:16:01.9	315.330	-0.120	-0.440	0.750
2020/01/31 09:16:02.0	315.340	-0.130	-0.410	0.720
2020/01/31 09:16:02.1	315.350	-0.140	-0.390	0.690
2020/01/31 09:16:02.2	315.360	-0.150	-0.360	0.660
2020/01/31 09:16:02.3	315.370	-0.160	-0.320	0.620
2020/01/31 09:16:02.4	315.380	-0.170	-0.290	0.590
2020/01/31 09:16:02.5	315.390	-0.180	-0.260	0.550
2020/01/31 09:16:02.6	315.400	-0.190	-0.220	0.520
2020/01/31 09:16:02.7	315.420	-0.210	-0.180	0.490
2020/01/31 09:16:02.8	315.430	-0.220	-0.150	0.460
2020/01/31 09:16:02.9	315.440	-0.230	-0.110	0.430
2020/01/31 09:16:03.0	315.450	-0.240	-0.070	0.400
2020/01/31 09:16:03.1	315.460	-0.260	-0.030	0.370
2020/01/31 09:16:03.2	315.470	-0.270	0.010	0.340
2020/01/31 09:16:03.3	315.470	-0.280	0.040	0.310
2020/01/31 09:16:03.4	315.480	-0.290	0.080	0.290
2020/01/31 09:16:03.5	315.490	-0.300	0.110	0.260
2020/01/31 09:16:03.6	315.490	-0.310	0.140	0.240
2020/01/31 09:16:03.7	315.500	-0.320	0.170	0.220
2020/01/31 09:16:03.8	315.510	-0.330	0.200	0.200
2020/01/31 09:16:03.9	315.510	-0.340	0.220	0.180
2020/01/31 09:16:04.0	315.520	-0.340	0.250	0.160
2020/01/31 09:16:04.1	315.530	-0.340	0.270	0.150
2020/01/31 09:16:04.2	315.530	-0.350	0.280	0.130
2020/01/31 09:16:04.3	315.540	-0.340	0.290	0.120
2020/01/31 09:16:04.4	315.550	-0.340	0.300	0.100
2020/01/31 09:16:04.5	315.560	-0.340	0.310	0.100
2020/01/31 09:16:04.6	315.560	-0.330	0.310	0.090
2020/01/31 09:16:04.7	315.570	-0.320	0.310	0.080
2020/01/31 09:16:04.8	315.580	-0.310	0.300	0.080
2020/01/31 09:16:04.9	315.590	-0.300	0.290	0.080
2020/01/31 09:16:05.0	315.600	-0.280	0.280	0.070
2020/01/31 09:16:05.1	315.610	-0.260	0.270	0.080
2020/01/31 09:16:05.2	315.620	-0.240	0.250	0.080
2020/01/31 09:16:05.3	315.630	-0.220	0.220	0.080
2020/01/31 09:16:05.4	315.650	-0.190	0.200	0.090
2020/01/31 09:16:05.5	315.660	-0.170	0.170	0.100
2020/01/31 09:16:05.6	315.670	-0.140	0.140	0.110
2020/01/31 09:16:05.7	315.680	-0.110	0.100	0.120
2020/01/31 09:16:05.8	315.690	-0.080	0.070	0.130
2020/01/31 09:16:05.9	315.700	-0.050	0.030	0.150
2020/01/31 09:16:06.0	315.720	-0.010	-0.010	0.170
2020/01/31 09:16:06.1	315.730	0.020	-0.050	0.190
2020/01/31 09:16:06.2	315.740	0.050	-0.090	0.210
2020/01/31 09:16:06.3	315.750	0.090	-0.130	0.230
2020/01/31 09:16:06.4	315.760	0.120	-0.170	0.250
2020/01/31 09:16:06.5	315.770	0.160	-0.210	0.280
2020/01/31 09:16:06.6	315.780	0.190	-0.250	0.310
2020/01/31 09:16:06.7	315.790	0.220	-0.280	0.330
2020/01/31 09:16:06.8	315.800	0.250	-0.320	0.360
2020/01/31 09:16:06.9	315.800	0.290	-0.350	0.390
2020/01/31 09:16:07.0	315.810	0.310	-0.390	0.420
2020/01/31 09:16:07.1	315.810	0.340	-0.420	0.450
2020/01/31 09:16:07.2	315.810	0.370	-0.440	0.480
2020/01/31 09:16:07.3	315.820	0.390	-0.470	0.510
2020/01/31 09:16:07.4	315.810	0.410	-0.490	0.540
2020/01/31 09:16:07.5	315.820	0.430	-0.510	0.570
2020/01/31 09:16:07.6	315.820	0.440	-0.530	0.600
2020/01/31 09:16:07.7	315.810	0.450	-0.550	0.630
2020/01/31 09:16:07.8	315.810	0.470	-0.560	0.660
2020/01/31 09:16:07.9	315.810	0.470	-0.570	0.680
2020/01/31 09:16:08.0	315.810	0.480	-0.580	0.710
2020/01/31 09:16:08.1	315.810	0.480	-0.590	0.740
2020/01/31 09:16:08.2	315.800	0.480	-0.590	0.760
2020/01/31 09:16:08.3	315.800	0.480	-0.590	0.790
2020/01/31 09:16:08.4	315.790	0.480	-0.590	0.810
2020/01/31 09:16:08.5	315.790	0.470	-0.590	0.830
2020/01/31 09:16:08.6	315.790	0.460	-0.590	0.850
2020/01/31 09:16:08.7	315.790	0.450	-0.590	0.870
2020/01/31 09:16:08.8	315.790	0.440	-0.580	0.890
2020/01/31 09:16:08.9	315.790	0.430	-0.580	0.900
2020/01/31 09:16:09.0	315.790	0.410	-0.570	0.910
2020/01/31 09:16:09.1	315.790	0.390	-0.560	0.920
2020/01/31 09:16:09.2	315.790	0.380	-0.550	0.920
2020/01/31 09:16:09.3	315.790	0.360	-0.550	0.920
2020/01/31 09:16:09.4	315.800	0.340	-0.540	0.920
2020/01/31 09:16:09.5	315.800	0.320	-0.530	0.920
2020/01/31 09:16:09.6	315.800	0.300	-0.520	0.910
2020/01/31 09:16:09.7	315.810	0.270	-0.510	0.900
2020/01/31 09:16:09.8	315.810	0.250	-0.490	0.890
2020/01/31 09:16:09.9	315.810	0.230	-0.480	0.880
2020/01/31 09:16:10.0	315.820	0.210	-0.470	0.860
2020/01/31 09:16:10.1	315.820	0.180	-0.460	0.840
2020/01/31 09:16:10.2	315.820	0.160	-0.440	0.830
2020/01/31 09:16:10.3	315.820	0.140	-0.430	0.810
2020/01/31 09:16:10.4	315.820	0.120	-0.420	0.790
2020/01/31 09:16:10.5	315.820	0.090	-0.400	0.760
2020/01/31 09:16:10.6	315.820	0.070	-0.380	0.740
2020/01/31 09:16:10.7	315.820	0.050	-0.370	0.720
2020/01/31 09:16:10.8	315.820	0.030	-0.350	0.700
2020/01/31 09:16:10.9	315.810	0.010	-0.330	0.680
2020/01/31 09:16:11.0	315.810	-0.010	-0.310	0.650
2020/01/31 09:16:11.1	315.800	-0.020	-0.290	0.630
2020/01/31 09:16:11.2	315.790	-0.040	-0.270	0.620
2020/01/31 09:16:11.3	315.780	-0.060	-0.240	0.600
2020/01/31 09:16:11.4	315.760	-0.070	-0.220	0.580
2020/01/31 09:16:11.5	315.750	-0.090	-0.200	0.570
2020/01/31 09:16:11.6	315.740	-0.100	-0.170	0.550
2020/01/31 09:16:11.7	315.720	-0.110	-0.150	0.540
2020/01/31 09:16:11.8	315.700	-0.120	-0.120	0.540
2020/01/31 09:16:11.9	315.680	-0.130	-0.100	0.530
2020/01/31 09:16:12.0	315.650	-0.140	-0.080	0.530
2020/01/31 09:16:12.1	315.630	-0.150	-0.060	0.520
2020/01/31 09:16:12.2	315.600	-0.160	-0.030	0.520
2020/01/31 09:16:12.3	315.570	-0.160	-0.020	0.520
2020/01/31 09:16:12.4	315.540	-0.170	-0.000	0.520
2020/01/31 09:16:12.5	315.510	-0.170	0.020	0.520
2020/01/31 09:16:12.6	315.480	-0.180	0.030	0.530
2020/01/31 09:16:12.7	315.450	-0.180	0.050	0.530
2020/01/31 09:16:12.8	315.420	-0.180	0.060	0.540
2020/01/31 09:16:12.9	315.380	-0.180	0.060	0.550
2020/01/31 09:16:13.0	315.350	-0.180	0.070	0.550
2020/01/31 09:16:13.1	315.320	-0.180	0.070	0.560
2020/01/31 09:16:13.2	315.290	-0.180	0.070	0.570
2020/01/31 09:16:13.3	315.250	-0.170	0.060	0.580
2020/01/31 09:16:13.4	315.220	-0.170	0.060	0.590
2020/01/31 09:16:13.5	315.190	-0.160	0.050	0.590
2020/01/31 09:16:13.6	315.160	-0.160	0.030	0.600
2020/01/31 09:16:13.7	315.130	-0.150	0.010	0.610
2020/01/31 09:16:13.8	315.100	-0.140	-0.010	0.610
2020/01/31 09:16:13.9	315.070	-0.140	-0.030	0.620
2020/01/31 09:16:14.0	315.050	-0.130	-0.060	0.620
2020/01/31 09:16:14.1	315.020	-0.120	-0.090	0.620
2020/01/31 09:16:14.2	315.000	-0.110	-0.120	0.620
2020/01/31 09:16:14.3	314.990	-0.100	-0.160	0.610
2020/01/31 09:16:14.4	314.980	-0.090	-0.200	0.610
2020/01/31 09:16:14.5	314.960	-0.090	-0.240	0.600
2020/01/31 09:16:14.6	314.960	-0.080	-0.280	0.590
2020/01/31 09:16:14.7	314.950	-0.070	-0.320	0.570
2020/01/31 09:16:14.8	314.950	-0.060	-0.370	0.560
2020/01/31 09:16:14.9	314.960	-0.050	-0.410	0.540
2020/01/31 09:16:15.0	314.970	-0.040	-0.450	0.510
2020/01/31 09:16:15.1	314.980	-0.030	-0.490	0.490
2020/01/31 09:16:15.2	315.000	-0.020	-0.530	0.460
2020/01/31 09:16:15.3	315.020	-0.010	-0.570	0.430
2020/01/31 09:16:15.4	315.030	-0.000	-0.600	0.400
2020/01/31 09:16:15.5	315.060	0.010	-0.640	0.360
2020/01/31 09:16:15.6	315.090	0.010	-0.670	0.330
2020/01/31 09:16:15.7	315.120	0.020	-0.690	0.290
2020/01/31 09:16:15.8	315.160	0.030	-0.720	0.260
2020/01/31 09:16:15.9	315.200	0.030	-0.730	0.220
2020/01/31 09:16:16.0	315.240	0.040	-0.750	0.190
2020/01/31 09:16:16.1	315.280	0.040	-0.760	0.150
2020/01/31 09:16:16.2	315.320	0.040	-0.760	0.120
2020/01/31 09:16:16.3	315.370	0.040	-0.760	0.080
2020/01/31 09:16:16.4	315.410	0.040	-0.760	0.050
2020/01/31 09:16:16.5	315.460	0.040	-0.740	0.020
2020/01/31 09:16:16.6	315.510	0.040	-0.730	-0.010
2020/01/31 09:16:16.7	315.560	0.030	-0.710	-0.030
2020/01/31 09:16:16.8	315.610	0.030	-0.680	-0.060
2020/01/31 09:16:16.9	315.650	0.020	-0.650	-0.080
2020/01/31 09:16:17.0	315.700	0.020	-0.620	-0.100
2020/01/31 09:16:17.1	315.750	0.010	-0.580	-0.110
2020/01/31 09:16:17.2	315.800	-0.000	-0.540	-0.130
2020/01/31 09:16:17.3	315.840	-0.010	-0.490	-0.140
2020/01/31 09:16:17.4	315.900	-0.020	-0.440	-0.140
2020/01/31 09:16:17.5	315.940	-0.030	-0.390	-0.140
2020/01/31 09:16:17.6	315.980	-0.040	-0.340	-0.140
2020/01/31 09:16:17.7	316.030	-0.060	-0.280	-0.140
2020/01/31 09:16:17.8	316.070	-0.070	-0.220	-0.130
2020/01/31 09:16:17.9	316.110	-0.080	-0.160	-0.130
2020/01/31 09:16:18.0	316.140	-0.090	-0.110	-0.110
2020/01/31 09:16:18.1	316.180	-0.110	-0.040	-0.100
2020/01/31 09:16:18.2	316.210	-0.120	0.010	-0.080
2020/01/31 09:16:18.3	316.240	-0.140	0.070	-0.060
2020/01/31 09:16:18.4	316.270	-0.150	0.130	-0.030
2020/01/31 09:16:18.5	316.300	-0.160	0.190	-0.000
2020/01/31 09:16:18.6	316.320	-0.180	0.250	0.030
2020/01/31 09:16:18.7	316.340	-0.190	0.300	0.060
2020/01/31 09:16:18.8	316.350	-0.200	0.350	0.100
2020/01/31 09:16:18.9	316.370	-0.220	0.400	0.140
2020/01/31 09:16:19.0	316.370	-0.230	0.450	0.180
2020/01/31 09:16:19.1	316.380	-0.240	0.500	0.220
2020/01/31 09:16:19.2	316.380	-0.250	0.540	0.270
2020/01/31 09:16:19.3	316.370	-0.260	0.580	0.310
2020/01/31 09:16:19.4	316.360	-0.270	0.610	0.360
2020/01/31 09:16:19.5	316.350	-0.270	0.640	0.420
2020/01/31 09:16:19.6	316.330	-0.280	0.670	0.470
2020/01/31 09:16:19.7	316.310	-0.290	0.700	0.520
2020/01/31 09:16:19.8	316.290	-0.290	0.720	0.580
2020/01/31 09:16:19.9	316.260	-0.290	0.730	0.640
2020/01/31 09:16:20.0	316.230	-0.290	0.750	0.700
2020/01/31 09:16:20.1	316.190	-0.290	0.750	0.750
2020/01/31 09:16:20.2	316.150	-0.290	0.750	0.810
2020/01/31 09:16:20.3	316.110	-0.280	0.750	0.870
2020/01/31 09:16:20.4	316.060	-0.270	0.750	0.930
2020/01/31 09:16:20.5	316.010	-0.260	0.730	0.980
2020/01/31 09:16:20.6	315.960	-0.250	0.720	1.030
2020/01/31 09:16:20.7	315.900	-0.240	0.690	1.090
2020/01/31 09:16:20.8	315.850	-0.230	0.660	1.130
2020/01/31 09:16:20.9	315.790	-0.210	0.630	1.180
2020/01/31 09:16:21.0	315.730	-0.190	0.590	1.220
2020/01/31 09:16:21.1	315.670	-0.170	0.550	1.260
2020/01/31 09:16:21.2	315.610	-0.150	0.490	1.290
2020/01/31 09:16:21.3	315.540	-0.130	0.440	1.320
2020/01/31 09:16:21.4	315.490	-0.110	0.370	1.350
2020/01/31 09:16:21.5	315.430	-0.080	0.310	1.360
2020/01/31 09:16:21.6	315.370	-0.050	0.230	1.370
2020/01/31 09:16:21.7	315.320	-0.030	0.160	1.370
2020/01/31 09:16:21.8	315.270	0.000	0.080	1.370
2020/01/31 09:16:21.9	315.220	0.030	-0.010	1.360
2020/01/31 09:16:22.0	315.170	0.060	-0.090	1.340
2020/01/31 09:16:22.1	315.130	0.090	-0.180	1.320
2020/01/31 09:16:22.2	315.090	0.120	-0.280	1.280
2020/01/31 09:16:22.3	315.050	0.150	-0.370	1.250
2020/01/31 09:16:22.4	315.020	0.170	-0.460	1.200
2020/01/31 09:16:22.5	314.990	0.200	-0.560	1.150
2020/01/31 09:16:22.6	314.970	0.230	-0.650	1.090
2020/01/31 09:16:22.7	314.950	0.260	-0.740	1.030
2020/01/31 09:16:22.8	314.930	0.280	-0.840	0.970
2020/01/31 09:16:22.9	314.920	0.300	-0.920	0.900
2020/01/31 09:16:23.0	314.910	0.320	-1.010	0.840
2020/01/31 09:16:23.1	314.910	0.340	-1.090	0.760
2020/01/31 09:16:23.2	314.910	0.360	-1.160	0.690
2020/01/31 09:16:23.3	314.920	0.370	-1.240	0.610
2020/01/31 09:16:23.4	314.920	0.380	-1.300	0.540
2020/01/31 09:16:23.5	314.940	0.390	-1.350	0.460
2020/01/31 09:16:23.6	314.950	0.390	-1.400	0.380
2020/01/31 09:16:23.7	314.970	0.400	-1.440	0.310
2020/01/31 09:16:23.8	314.990	0.390	-1.470	0.230
2020/01/31 09:16:23.9	315.020	0.390	-1.500	0.160
2020/01/31 09:16:24.0	315.040	0.380	-1.510	0.090
2020/01/31 09:16:24.1	315.070	0.370	-1.520	0.020
2020/01/31 09:16:24.2	315.100	0.360	-1.510	-0.050
2020/01/31 09:16:24.3	315.130	0.350	-1.500	-0.110
2020/01/31 09:16:24.4	315.170	0.330	-1.480	-0.170
2020/01/31 09:16:24.5	315.210	0.310	-1.460	-0.220
2020/01/31 09:16:24.6	315.240	0.290	-1.420	-0.280
2020/01/31 09:16:24.7	315.280	0.270	-1.370	-0.320
2020/01/31 09:16:24.8	315.320	0.240	-1.320	-0.370
2020/01/31 09:16:24.9	315.360	0.210	-1.270	-0.400
2020/01/31 09:16:25.0	315.390	0.190	-1.200	-0.440
2020/01/31 09:16:25.1	315.430	0.160	-1.140	-0.470
2020/01/31 09:16:25.2	315.470	0.130	-1.060	-0.500
2020/01/31 09:16:25.3	315.500	0.100	-0.990	-0.520
2020/01/31 09:16:25.4	315.540	0.070	-0.900	-0.530
2020/01/31 09:16:25.5	315.580	0.040	-0.820	-0.550
2020/01/31 09:16:25.6	315.610	0.010	-0.740	-0.550
2020/01/31 09:16:25.7	315.650	-0.020	-0.650	-0.560
2020/01/31 09:16:25.8	315.680	-0.050	-0.570	-0.560
2020/01/31 09:16:25.9	315.710	-0.080	-0.480	-0.550
2020/01/31 09:16:26.0	315.740	-0.100	-0.400	-0.540
2020/01/31 09:16:26.1	315.760	-0.130	-0.320	-0.530
2020/01/31 09:16:26.2	315.790	-0.150	-0.240	-0.510
2020/01/31 09:16:26.3	315.810	-0.170	-0.160	-0.490
2020/01/31 09:16:26.4	315.830	-0.190	-0.090	-0.460
2020/01/31 09:16:26.5	315.850	-0.210	-0.010	-0.430
2020/01/31 09:16:26.6	315.860	-0.220	0.050	-0.400
2020/01/31 09:16:26.7	315.880	-0.230	0.120	-0.360
2020/01/31 09:16:26.8	315.880	-0.240	0.180	-0.320
2020/01/31 09:16:26.9	315.890	-0.250	0.230	-0.280
2020/01/31 09:16:27.0	315.890	-0.260	0.280	-0.230
2020/01/31 09:16:27.1	315.900	-0.260	0.320	-0.180
2020/01/31 09:16:27.2	315.900	-0.260	0.360	-0.130
2020/01/31 09:16:27.3	315.890	-0.260	0.390	-0.080
2020/01/31 09:16:27.4	315.890	-0.250	0.420	-0.020
2020/01/31 09:16:27.5	315.880	-0.250	0.440	0.040
2020/01/31 09:16:27.6	315.880	-0.240	0.450	0.090
2020/01/31 09:16:27.7	315.870	-0.220	0.460	0.150
2020/01/31 09:16:27.8	315.860	-0.210	0.460	0.200
2020/01/31 09:16:27.9	315.850	-0.190	0.460	0.260
2020/01/31 09:16:28.0	315.840	-0.170	0.450	0.310
2020/01/31 09:16:28.1	315.830	-0.150	0.440	0.360
2020/01/31 09:16:28.2	315.820	-0.130	0.420	0.410
2020/01/31 09:16:28.3	315.810	-0.110	0.390	0.460
2020/01/31 09:16:28.4	315.800	-0.080	0.360	0.510
2020/01/31 09:16:28.5	315.790	-0.050	0.330	0.550
2020/01/31 09:16:28.6	315.780	-0.020	0.290	0.590
2020/01/31 09:16:28.7	315.770	0.010	0.250	0.630
2020/01/31 09:16:28.8	315.760	0.030	0.210	0.670
2020/01/31 09:16:28.9	315.760	0.070	0.170	0.710
2020/01/31 09:16:29.0	315.750	0.100	0.120	0.740
2020/01/31 09:16:29.1	315.740	0.130	0.070	0.770
2020/01/31 09:16:29.2	315.740	0.160	0.030	0.800
2020/01/31 09:16:29.3	315.730	0.190	-0.020	0.820
2020/01/31 09:16:29.4	315.730	0.210	-0.070	0.840
2020/01/31 09:16:29.5	315.730	0.240	-0.110	0.860
2020/01/31 09:16:29.6	315.720	0.270	-0.150	0.880
2020/01/31 09:16:29.7	315.720	0.290	-0.190	0.890
2020/01/31 09:16:29.8	315.720	0.310	-0.230	0.900
2020/01/31 09:16:29.9	315.720	0.330	-0.260	0.910
2020/01/31 09:16:30.0	315.720	0.350	-0.290	0.920
2020/01/31 09:16:30.1	315.720	0.370	-0.320	0.920
2020/01/31 09:16:30.2	315.720	0.380	-0.340	0.930
2020/01/31 09:16:30.3	315.720	0.390	-0.350	0.930
2020/01/31 09:16:30.4	315.710	0.400	-0.360	0.930
2020/01/31 09:16:30.5	315.710	0.400	-0.370	0.920
2020/01/31 09:16:30.6	315.710	0.410	-0.370	0.920
2020/01/31 09:16:30.7	315.710	0.410	-0.370	0.910
2020/01/31 09:16:30.8	315.710	0.400	-0.360	0.900
2020/01/31 09:16:30.9	315.710	0.400	-0.350	0.890
2020/01/31 09:16:31.0	315.710	0.390	-0.330	0.870
2020/01/31 09:16:31.1	315.710	0.380	-0.310	0.860
2020/01/31 09:16:31.2	315.710	0.360	-0.290	0.840
2020/01/31 09:16:31.3	315.710	0.350	-0.260	0.830
2020/01/31 09:16:31.4	315.700	0.330	-0.240	0.810
2020/01/31 09:16:31.5	315.700	0.310	-0.210	0.790
2020/01/31 09:16:31.6	315.710	0.290	-0.180	0.770
2020/01/31 09:16:31.7	315.710	0.270	-0.150	0.750
2020/01/31 09:16:31.8	315.710	0.250	-0.110	0.720
2020/01/31 09:16:31.9	315.710	0.230	-0.080	0.700
2020/01/31 09:16:32.0	315.710	0.200	-0.050	0.680
2020/01/31 09:16:32.1	315.710	0.180	-0.010	0.650
2020/01/31 09:16:32.2	315.710	0.150	0.020	0.620
2020/01/31 09:16:32.3	315.710	0.130	0.040	0.590
2020/01/31 09:16:32.4	315.710	0.100	0.070	0.560
2020/01/31 09:16:32.5	315.710	0.080	0.090	0.530
2020/01/31 09:16:32.6	315.720	0.050	0.110	0.500
2020/01/31 09:16:32.7	315.720	0.030	0.130	0.470
2020/01/31 09:16:32.8	315.720	0.000	0.140	0.430
2020/01/31 09:16:32.9	315.720	-0.020	0.150	0.400
2020/01/31 09:16:33.0	315.720	-0.040	0.160	0.370
2020/01/31 09:16:33.1	315.720	-0.060	0.160	0.330
2020/01/31 09:16:33.2	315.730	-0.080	0.160	0.300
2020/01/31 09:16:33.3	315.720	-0.100	0.140	0.270
2020/01/31 09:16:33.4	315.720	-0.120	0.140	0.240
2020/01/31 09:16:33.5	315.730	-0.140	0.120	0.210
2020/01/31 09:16:33.6	315.730	-0.150	0.110	0.180
2020/01/31 09:16:33.7	315.730	-0.160	0.090	0.150
2020/01/31 09:16:33.8	315.730	-0.180	0.070	0.130
2020/01/31 09:16:33.9	315.730	-0.190	0.040	0.100
2020/01/31 09:16:34.0	315.720	-0.200	0.020	0.080
2020/01/31 09:16:34.1	315.720	-0.210	-0.010	0.060
2020/01/31 09:16:34.2	315.720	-0.220	-0.040	0.040
2020/01/31 09:16:34.3	315.720	-0.220	-0.070	0.030
2020/01/31 09:16:34.4	315.710	-0.230	-0.100	0.010
2020/01/31 09:16:34.5	315.700	-0.240	-0.130	0.000
2020/01/31 09:16:34.6	315.700	-0.240	-0.160	-0.000
2020/01/31 09:16:34.7	315.690	-0.250	-0.190	-0.010
2020/01/31 09:16:34.8	315.680	-0.250	-0.220	-0.010
2020/01/31 09:16:34.9	315.680	-0.250	-0.260	-0.010
2020/01/31 09:16:35.0	315.670	-0.260	-0.290	-0.010
2020/01/31 09:16:35.1	315.660	-0.260	-0.310	-0.000
2020/01/31 09:16:35.2	315.650	-0.270	-0.340	0.000
2020/01/31 09:16:35.3	315.640	-0.270	-0.370	0.010
2020/01/31 09:16:35.4	315.620	-0.270	-0.390	0.020
2020/01/31 09:16:35.5	315.610	-0.280	-0.420	0.030
2020/01/31 09:16:35.6	315.600	-0.280	-0.440	0.040
2020/01/31 09:16:35.7	315.590	-0.290	-0.460	0.060
2020/01/31 09:16:35.8	315.580	-0.290	-0.480	0.070
2020/01/31 09:16:35.9	315.570	-0.300	-0.490	0.090
2020/01/31 09:16:36.0	315.560	-0.300	-0.510	0.100
2020/01/31 09:16:36.1	315.550	-0.310	-0.520	0.120
2020/01/31 09:16:36.2	315.540	-0.310	-0.530	0.140
2020/01/31 09:16:36.3	315.530	-0.320	-0.540	0.160
2020/01/31 09:16:36.4	315.520	-0.320	-0.540	0.180
2020/01/31 09:16:36.5	315.510	-0.330	-0.550	0.200
2020/01/31 09:16:36.6	315.510	-0.330	-0.550	0.220
2020/01/31 09:16:36.7	315.500	-0.340	-0.550	0.240
2020/01/31 09:16:36.8	315.490	-0.340	-0.550	0.260
2020/01/31 09:16:36.9	315.490	-0.350	-0.540	0.270
2020/01/31 09:16:37.0	315.480	-0.350	-0.540	0.290
2020/01/31 09:16:37.1	315.480	-0.350	-0.530	0.310
2020/01/31 09:16:37.2	315.480	-0.360	-0.520	0.330
2020/01/31 09:16:37.3	315.480	-0.360	-0.510	0.340
2020/01/31 09:16:37.4	315.470	-0.360	-0.510	0.360
2020/01/31 09:16:37.5	315.470	-0.360	-0.490	0.370
2020/01/31 09:16:37.6	315.480	-0.360	-0.480	0.380
2020/01/31 09:16:37.7	315.480	-0.360	-0.470	0.390
2020/01/31 09:16:37.8	315.480	-0.360	-0.460	0.400
2020/01/31 09:16:37.9	315.480	-0.360	-0.450	0.410
2020/01/31 09:16:38.0	315.490	-0.360	-0.430	0.420
2020/01/31 09:16:38.1	315.490	-0.360	-0.420	0.430
2020/01/31 09:16:38.2	315.500	-0.350	-0.410	0.440
2020/01/31 09:16:38.3	315.500	-0.350	-0.400	0.440
2020/01/31 09:16:38.4	315.510	-0.340	-0.390	0.450
2020/01/31 09:16:38.5	315.510	-0.330	-0.380	0.460
2020/01/31 09:16:38.6	315.520	-0.330	-0.370	0.460
2020/01/31 09:16:38.7	315.520	-0.320	-0.360	0.460
2020/01/31 09:16:38.8	315.530	-0.310	-0.350	0.470
2020/01/31 09:16:38.9	315.540	-0.290	-0.340	0.470
2020/01/31 09:16:39.0	315.550	-0.280	-0.340	0.470
2020/01/31 09:16:39.1	315.560	-0.270	-0.330	0.480
2020/01/31 09:16:39.2	315.570	-0.250	-0.320	0.480
2020/01/31 09:16:39.3	315.570	-0.230	-0.320	0.480
2020/01/31 09:16:39.4	315.580	-0.210	-0.310	0.480
2020/01/31 09:16:39.5	315.590	-0.190	-0.310	0.470
2020/01/31 09:16:39.6	315.610	-0.170	-0.300	0.470
2020/01/31 09:16:39.7	315.620	-0.150	-0.300	0.470
2020/01/31 09:16:39.8	315.630	-0.120	-0.300	0.470
2020/01/31 09:16:39.9	315.640	-0.100	-0.290	0.470
2020/01/31 09:16:40.0	315.660	-0.070	-0.290	0.470
2020/01/31 09:16:40.1	315.670	-0.040	-0.280	0.470
2020/01/31 09:16:40.2	315.680	-0.020	-0.280	0.460
2020/01/31 09:16:40.3	315.700	0.010	-0.270	0.460
2020/01/31 09:16:40.4	315.710	0.040	-0.270	0.460
2020/01/31 09:16:40.5	315.720	0.070	-0.260	0.460
2020/01/31 09:16:40.6	315.730	0.100	-0.250	0.460
2020/01/31 09:16:40.7	315.750	0.130	-0.250	0.460
2020/01/31 09:16:40.8	315.760	0.160	-0.240	0.460
2020/01/31 09:16:40.9	315.770	0.190	-0.230	0.460
2020/01/31 09:16:41.0	315.780	0.220	-0.220	0.460
2020/01/31 09:16:41.1	315.800	0.250	-0.210	0.460
2020/01/31 09:16:41.2	315.810	0.280	-0.210	0.460
2020/01/31 09:16:41.3	315.820	0.310	-0.200	0.460
2020/01/31 09:16:41.4	315.840	0.340	-0.190	0.460
2020/01/31 09:16:41.5	315.860	0.370	-0.190	0.460
2020/01/31 09:16:41.6	315.870	0.390	-0.180	0.460
2020/01/31 09:16:41.7	315.890	0.420	-0.180	0.450
2020/01/31 09:16:41.8	315.900	0.440	-0.170	0.450
2020/01/31 09:16:41.9	315.920	0.460	-0.170	0.450
2020/01/31 09:16:42.0	315.940	0.480	-0.160	0.440
2020/01/31 09:16:42.1	315.960	0.500	-0.160	0.440
2020/01/31 09:16:42.2	315.970	0.520	-0.160	0.430
2020/01/31 09:16:42.3	315.990	0.540	-0.150	0.430
2020/01/31 09:16:42.4	316.010	0.550	-0.150	0.420
2020/01/31 09:16:42.5	316.030	0.570	-0.150	0.420
2020/01/31 09:16:42.6	316.050	0.580	-0.150	0.410
2020/01/31 09:16:42.7	316.070	0.590	-0.140	0.410
2020/01/31 09:16:42.8	316.090	0.600	-0.140	0.410
2020/01/31 09:16:42.9	316.100	0.600	-0.140	0.410
2020/01/31 09:16:43.0	316.120	0.610	-0.140	0.410
2020/01/31 09:16:43.1	316.140	0.610	-0.130	0.420
2020/01/31 09:16:43.2	316.160	0.610	-0.130	0.420
2020/01/31 09:16:43.3	316.180	0.610	-0.130	0.430
2020/01/31 09:16:43.4	316.190	0.610	-0.120	0.440
2020/01/31 09:16:43.5	316.210	0.610	-0.120	0.440
2020/01/31 09:16:43.6	316.220	0.600	-0.120	0.450
2020/01/31 09:16:43.7	316.230	0.590	-0.110	0.460
2020/01/31 09:16:43.8	316.240	0.580	-0.100	0.470
2020/01/31 09:16:43.9	316.250	0.570	-0.100	0.480
2020/01/31 09:16:44.0	316.260	0.560	-0.090	0.500
2020/01/31 09:16:44.1	316.260	0.550	-0.080	0.510
2020/01/31 09:16:44.2	316.270	0.530	-0.070	0.520
2020/01/31 09:16:44.3	316.270	0.510	-0.060	0.540
2020/01/31 09:16:44.4	316.260	0.490	-0.050	0.550
2020/01/31 09:16:44.5	316.260	0.470	-0.040	0.570
2020/01/31 09:16:44.6	316.260	0.450	-0.030	0.580
2020/01/31 09:16:44.7	316.260	0.430	-0.020	0.590
2020/01/31 09:16:44.8	316.260	0.410	-0.010	0.610
2020/01/31 09:16:44.9	316.250	0.380	0.000	0.620
2020/01/31 09:16:45.0	316.240	0.360	0.010	0.630
2020/01/31 09:16:45.1	316.230	0.330	0.020	0.640
2020/01/31 09:16:45.2	316.220	0.300	0.030	0.650
2020/01/31 09:16:45.3	316.210	0.280	0.030	0.660
2020/01/31 09:16:45.4	316.200	0.250	0.040	0.670
2020/01/31 09:16:45.5	316.180	0.220	0.040	0.680
2020/01/31 09:16:45.6	316.170	0.200	0.040	0.680
2020/01/31 09:16:45.7	316.160	0.170	0.040	0.680
2020/01/31 09:16:45.8	316.140	0.140	0.030	0.680
2020/01/31 09:16:45.9	316.130	0.120	0.030	0.680
2020/01/31 09:16:46.0	316.120	0.090	0.020	0.670
2020/01/31 09:16:46.1	316.100	0.070	0.010	0.660
2020/01/31 09:16:46.2	316.090	0.040	-0.010	0.650
2020/01/31 09:16:46.3	316.070	0.020	-0.030	0.640
2020/01/31 09:16:46.4	316.050	-0.010	-0.050	0.620
2020/01/31 09:16:46.5	316.040	-0.030	-0.070	0.600
2020/01/31 09:16:46.6	316.020	-0.050	-0.090	0.580
2020/01/31 09:16:46.7	316.010	-0.070	-0.120	0.560
2020/01/31 09:16:46.8	315.990	-0.090	-0.140	0.530
2020/01/31 09:16:46.9	315.980	-0.110	-0.170	0.500
2020/01/31 09:16:47.0	315.970	-0.130	-0.200	0.470
2020/01/31 09:16:47.1	315.950	-0.150	-0.230	0.440
2020/01/31 09:16:47.2	315.940	-0.170	-0.260	0.400
2020/01/31 09:16:47.3	315.920	-0.180	-0.290	0.360
2020/01/31 09:16:47.4	315.910	-0.200	-0.320	0.330
2020/01/31 09:16:47.5	315.900	-0.210	-0.350	0.290
2020/01/31 09:16:47.6	315.880	-0.230	-0.380	0.240
2020/01/31 09:16:47.7	315.870	-0.240	-0.400	0.200
2020/01/31 09:16:47.8	315.860	-0.250	-0.430	0.160
2020/01/31 09:16:47.9	315.850	-0.260	-0.460	0.110
2020/01/31 09:16:48.0	315.840	-0.280	-0.480	0.070
2020/01/31 09:16:48.1	315.830	-0.290	-0.500	0.030
2020/01/31 09:16:48.2	315.820	-0.300	-0.520	-0.010
2020/01/31 09:16:48.3	315.810	-0.300	-0.540	-0.060
2020/01/31 09:16:48.4	315.800	-0.310	-0.560	-0.090
2020/01/31 09:16:48.5	315.790	-0.320	-0.570	-0.130
2020/01/31 09:16:48.6	315.790	-0.330	-0.580	-0.170
2020/01/31 09:16:48.7	315.780	-0.340	-0.590	-0.210
2020/01/31 09:16:48.8	315.780	-0.340	-0.600	-0.240
2020/01/31 09:16:48.9	315.780	-0.350	-0.600	-0.280
2020/01/31 09:16:49.0	315.780	-0.350	-0.600	-0.310
2020/01/31 09:16:49.1	315.780	-0.360	-0.600	-0.340
2020/01/31 09:16:49.2	315.780	-0.360	-0.600	-0.360
2020/01/31 09:16:49.3	315.780	-0.370	-0.590	-0.380
2020/01/31 09:16:49.4	315.770	-0.370	-0.580	-0.400
2020/01/31 09:16:49.5	315.770	-0.380	-0.570	-0.420
2020/01/31 09:16:49.6	315.770	-0.380	-0.550	-0.430
2020/01/31 09:16:49.7	315.770	-0.380	-0.530	-0.440
2020/01/31 09:16:49.8	315.770	-0.390	-0.510	-0.450
2020/01/31 09:16:49.9	315.770	-0.390	-0.490	-0.450
2020/01/31 09:16:50.0	315.770	-0.390	-0.460	-0.450
2020/01/31 09:16:50.1	315.770	-0.390	-0.430	-0.440
2020/01/31 09:16:50.2	315.770	-0.390	-0.400	-0.430
2020/01/31 09:16:50.3	315.770	-0.390	-0.370	-0.420
2020/01/31 09:16:50.4	315.770	-0.390	-0.340	-0.400
2020/01/31 09:16:50.5	315.770	-0.390	-0.300	-0.380
2020/01/31 09:16:50.6	315.760	-0.390	-0.260	-0.350
2020/01/31 09:16:50.7	315.760	-0.390	-0.230	-0.320
2020/01/31 09:16:50.8	315.760	-0.380	-0.190	-0.280
2020/01/31 09:16:50.9	315.750	-0.380	-0.150	-0.250
2020/01/31 09:16:51.0	315.750	-0.370	-0.120	-0.210
2020/01/31 09:16:51.1	315.750	-0.370	-0.080	-0.170
2020/01/31 09:16:51.2	315.750	-0.360	-0.050	-0.120
2020/01/31 09:16:51.3	315.740	-0.350	-0.020	-0.070
2020/01/31 09:16:51.4	315.750	-0.340	0.010	-0.020
2020/01/31 09:16:51.5	315.750	-0.330	0.040	0.030
2020/01/31 09:16:51.6	315.750	-0.320	0.060	0.070
2020/01/31 09:16:51.7	315.750	-0.310	0.080	0.120
2020/01/31 09:16:51.8	315.760	-0.290	0.090	0.170
2020/01/31 09:16:51.9	315.760	-0.280	0.100	0.220
2020/01/31 09:16:52.0	315.770	-0.260	0.110	0.260
2020/01/31 09:16:52.1	315.780	-0.240	0.110	0.310
2020/01/31 09:16:52.2	315.790	-0.230	0.110	0.350
2020/01/31 09:16:52.3	315.800	-0.210	0.100	0.390
2020/01/31 09:16:52.4	315.820	-0.190	0.090	0.430
2020/01/31 09:16:52.5	315.830	-0.170	0.080	0.460
2020/01/31 09:16:52.6	315.840	-0.140	0.060	0.490
2020/01/31 09:16:52.7	315.860	-0.120	0.040	0.520
2020/01/31 09:16:52.8	315.880	-0.100	0.020	0.550
2020/01/31 09:16:52.9	315.900	-0.080	-0.000	0.570
2020/01/31 09:16:53.0	315.920	-0.060	-0.030	0.590
2020/01/31 09:16:53.1	315.940	-0.030	-0.060	0.600
2020/01/31 09:16:53.2	315.970	-0.010	-0.090	0.620
2020/01/31 09:16:53.3	316.000	0.010	-0.120	0.630
2020/01/31 09:16:53.4	316.030	0.030	-0.150	0.630
2020/01/31 09:16:53.5	316.060	0.050	-0.180	0.630
2020/01/31 09:16:53.6	316.090	0.070	-0.220	0.630
2020/01/31 09:16:53.7	316.120	0.090	-0.250	0.630
2020/01/31 09:16:53.8	316.150	0.110	-0.280	0.620
2020/01/31 09:16:53.9	316.190	0.130	-0.310	0.610
2020/01/31 09:16:54.0	316.220	0.140	-0.330	0.600
2020/01/31 09:16:54.1	316.260	0.150	-0.360	0.590
2020/01/31 09:16:54.2	316.290	0.160	-0.380	0.570
2020/01/31 09:16:54.3	316.320	0.170	-0.400	0.560
2020/01/31 09:16:54.4	316.350	0.180	-0.420	0.540
2020/01/31 09:16:54.5	316.390	0.190	-0.430	0.530
2020/01/31 09:16:54.6	316.420	0.190	-0.440	0.510
2020/01/31 09:16:54.7	316.440	0.190	-0.440	0.490
2020/01/31 09:16:54.8	316.470	0.190	-0.440	0.480
2020/01/31 09:16:54.9	316.500	0.190	-0.440	0.460
2020/01/31 09:16:55.0	316.520	0.180	-0.440	0.440
2020/01/31 09:16:55.1	316.540	0.170	-0.430	0.420
2020/01/31 09:16:55.2	316.570	0.170	-0.420	0.410
2020/01/31 09:16:55.3	316.580	0.160	-0.400	0.390
2020/01/31 09:16:55.4	316.600	0.140	-0.390	0.370
2020/01/31 09:16:55.5	316.620	0.130	-0.370	0.360
2020/01/31 09:16:55.6	316.630	0.120	-0.340	0.340
2020/01/31 09:16:55.7	316.640	0.100	-0.320	0.330
2020/01/31 09:16:55.8	316.650	0.090	-0.290	0.320
2020/01/31 09:16:55.9	316.660	0.070	-0.270	0.300
2020/01/31 09:16:56.0	316.660	0.060	-0.240	0.300
2020/01/31 09:16:56.1	316.660	0.040	-0.200	0.290
2020/01/31 09:16:56.2	316.660	0.030	-0.170	0.280
2020/01/31 09:16:56.3	316.660	0.010	-0.140	0.280
2020/01/31 09:16:56.4	316.650	0.000	-0.110	0.280
2020/01/31 09:16:56.5	316.640	-0.010	-0.070	0.280
2020/01/31 09:16:56.6	316.630	-0.020	-0.040	0.290
2020/01/31 09:16:56.7	316.610	-0.030	-0.010	0.300
2020/01/31 09:16:56.8	316.600	-0.040	0.020	0.310
2020/01/31 09:16:56.9	316.580	-0.040	0.050	0.320
2020/01/31 09:16:57.0	316.550	-0.040	0.080	0.340
2020/01/31 09:16:57.1	316.530	-0.040	0.110	0.360
2020/01/31 09:16:57.2	316.500	-0.040	0.130	0.380
2020/01/31 09:16:57.3	316.480	-0.030	0.150	0.410
2020/01/31 09:16:57.4	316.440	-0.030	0.160	0.430
2020/01/31 09:16:57.5	316.410	-0.020	0.180	0.460
2020/01/31 09:16:57.6	316.380	-0.000	0.190	0.500
2020/01/31 09:16:57.7	316.340	0.010	0.200	0.530
2020/01/31 09:16:57.8	316.300	0.030	0.210	0.570
2020/01/31 09:16:57.9	316.270	0.050	0.210	0.610
2020/01/31 09:16:58.0	316.230	0.080	0.210	0.660
2020/01/31 09:16:58.1	316.190	0.100	0.210	0.700
2020/01/31 09:16:58.2	316.150	0.130	0.200	0.740
2020/01/31 09:16:58.3	316.110	0.160	0.180	0.790
2020/01/31 09:16:58.4	316.070	0.190	0.170	0.830
2020/01/31 09:16:58.5	316.030	0.220	0.150	0.880
2020/01/31 09:16:58.6	315.990	0.260	0.130	0.920
2020/01/31 09:16:58.7	315.950	0.290	0.100	0.970
2020/01/31 09:16:58.8	315.910	0.330	0.070	1.010
2020/01/31 09:16:58.9	315.870	0.360	0.040	1.050
2020/01/31 09:16:59.0	315.830	0.400	-0.000	1.090
2020/01/31 09:16:59.1	315.790	0.430	-0.040	1.130
2020/01/31 09:16:59.2	315.760	0.470	-0.080	1.160
2020/01/31 09:16:59.3	315.720	0.500	-0.130	1.190
2020/01/31 09:16:59.4	315.690	0.530	-0.180	1.220
2020/01/31 09:16:59.5	315.660	0.560	-0.220	1.250
2020/01/31 09:16:59.6	315.630	0.590	-0.270	1.270
2020/01/31 09:16:59.7	315.600	0.610	-0.320	1.290
2020/01/31 09:16:59.8	315.580	0.630	-0.380	1.300
2020/01/31 09:16:59.9	315.550	0.650	-0.430	1.310
2020/01/31 09:17:00.0	315.540	0.670	-0.480	1.310
2020/01/31 09:17:00.1	315.520	0.680	-0.530	1.310
2020/01/31 09:17:00.2	315.500	0.690	-0.580	1.300
2020/01/31 09:17:00.3	315.500	0.690	-0.630	1.290
2020/01/31 09:17:00.4	315.490	0.700	-0.670	1.270
2020/01/31 09:17:00.5	315.480	0.690	-0.720	1.250
2020/01/31 09:17:00.6	315.480	0.690	-0.760	1.220
2020/01/31 09:17:00.7	315.470	0.680	-0.800	1.190
2020/01/31 09:17:00.8	315.480	0.670	-0.840	1.160
2020/01/31 09:17:00.9	315.480	0.650	-0.870	1.120
2020/01/31 09:17:01.0	315.480	0.630	-0.910	1.090
2020/01/31 09:17:01.1	315.490	0.600	-0.930	1.040
2020/01/31 09:17:01.2	315.500	0.570	-0.960	1.000
2020/01/31 09:17:01.3	315.500	0.540	-0.980	0.950
2020/01/31 09:17:01.4	315.520	0.500	-1.000	0.910
2020/01/31 09:17:01.5	315.540	0.470	-1.010	0.860
2020/01/31 09:17:01.6	315.550	0.420	-1.020	0.810
2020/01/31 09:17:01.7	315.570	0.380	-1.020	0.750
2020/01/31 09:17:01.8	315.580	0.340	-1.020	0.700
2020/01/31 09:17:01.9	315.600	0.290	-1.020	0.650
2020/01/31 09:17:02.0	315.630	0.240	-1.010	0.590
2020/01/31 09:17:02.1	315.650	0.190	-1.000	0.540
2020/01/31 09:17:02.2	315.680	0.130	-0.990	0.480
2020/01/31 09:17:02.3	315.710	0.080	-0.970	0.420
2020/01/31 09:17:02.4	315.730	0.030	-0.960	0.360
2020/01/31 09:17:02.5	315.770	-0.030	-0.930	0.310
2020/01/31 09:17:02.6	315.800	-0.080	-0.910	0.250
2020/01/31 09:17:02.7	315.840	-0.130	-0.880	0.190
2020/01/31 09:17:02.8	315.880	-0.180	-0.850	0.130
2020/01/31 09:17:02.9	315.920	-0.240	-0.820	0.080
2020/01/31 09:17:03.0	315.960	-0.290	-0.780	0.020
2020/01/31 09:17:03.1	316.010	-0.340	-0.740	-0.030
2020/01/31 09:17:03.2	316.050	-0.380	-0.700	-0.080
2020/01/31 09:17:03.3	316.090	-0.430	-0.660	-0.120
2020/01/31 09:17:03.4	316.120	-0.470	-0.610	-0.160
2020/01/31 09:17:03.5	316.160	-0.520	-0.560	-0.200
2020/01/31 09:17:03.6	316.190	-0.560	-0.500	-0.230
2020/01/31 09:17:03.7	316.220	-0.600	-0.450	-0.250
2020/01/31 09:17:03.8	316.250	-0.640	-0.390	-0.270
2020/01/31 09:17:03.9	316.270	-0.670	-0.320	-0.280
2020/01/31 09:17:04.0	316.290	-0.700	-0.260	-0.290
2020/01/31 09:17:04.1	316.300	-0.740	-0.190	-0.290
2020/01/31 09:17:04.2	316.310	-0.760	-0.120	-0.280
2020/01/31 09:17:04.3	316.310	-0.790	-0.050	-0.270
2020/01/31 09:17:04.4	316.310	-0.810	0.020	-0.250
2020/01/31 09:17:04.5	316.310	-0.830	0.100	-0.230
2020/01/31 09:17:04.6	316.300	-0.850	0.170	-0.210
2020/01/31 09:17:04.7	316.290	-0.870	0.250	-0.180
2020/01/31 09:17:04.8	316.270	-0.880	0.320	-0.150
2020/01/31 09:17:04.9	316.250	-0.890	0.400	-0.110
2020/01/31 09:17:05.0	316.230	-0.900	0.470	-0.080
2020/01/31 09:17:05.1	316.200	-0.900	0.540	-0.040
2020/01/31 09:17:05.2	316.180	-0.900	0.600	-0.000
2020/01/31 09:17:05.3	316.150	-0.900	0.660	0.040
2020/01/31 09:17:05.4	316.120	-0.900	0.720	0.080
2020/01/31 09:17:05.5	316.090	-0.890	0.770	0.120
2020/01/31 09:17:05.6	316.060	-0.880	0.820	0.160
2020/01/31 09:17:05.7	316.020	-0.860	0.860	0.200
2020/01/31 09:17:05.8	315.990	-0.850	0.900	0.240
2020/01/31 09:17:05.9	315.950	-0.830	0.930	0.280
2020/01/31 09:17:06.0	315.920	-0.800	0.950	0.320
2020/01/31 09:17:06.1	315.890	-0.780	0.970	0.360
2020/01/31 09:17:06.2	315.850	-0.750	0.980	0.390
2020/01/31 09:17:06.3	315.820	-0.720	0.980	0.430
2020/01/31 09:17:06.4	315.790	-0.690	0.980	0.460
2020/01/31 09:17:06.5	315.760	-0.650	0.960	0.490
2020/01/31 09:17:06.6	315.730	-0.610	0.950	0.520
2020/01/31 09:17:06.7	315.710	-0.570	0.920	0.550
2020/01/31 09:17:06.8	315.680	-0.530	0.890	0.570
2020/01/31 09:17:06.9	315.660	-0.480	0.850	0.600
2020/01/31 09:17:07.0	315.640	-0.430	0.810	0.620
2020/01/31 09:17:07.1	315.620	-0.390	0.760	0.630
2020/01/31 09:17:07.2	315.600	-0.340	0.710	0.650
2020/01/31 09:17:07.3	315.600	-0.290	0.650	0.660
2020/01/31 09:17:07.4	315.590	-0.230	0.590	0.670
2020/01/31 09:17:07.5	315.580	-0.180	0.520	0.670
2020/01/31 09:17:07.6	315.570	-0.130	0.450	0.680
2020/01/31 09:17:07.7	315.570	-0.080	0.380	0.680
2020/01/31 09:17:07.8	315.570	-0.030	0.300	0.680
2020/01/31 09:17:07.9	315.570	0.030	0.230	0.670
2020/01/31 09:17:08.0	315.570	0.080	0.150	0.670
2020/01/31 09:17:08.1	315.580	0.130	0.070	0.660
2020/01/31 09:17:08.2	315.580	0.180	-0.010	0.660
2020/01/31 09:17:08.3	315.590	0.220	-0.080	0.650
2020/01/31 09:17:08.4	315.600	0.270	-0.160	0.650
2020/01/31 09:17:08.5	315.620	0.310	-0.230	0.640
2020/01/31 09:17:08.6	315.630	0.350	-0.300	0.630
2020/01/31 09:17:08.7	315.640	0.390	-0.370	0.630
2020/01/31 09:17:08.8	315.660	0.430	-0.440	0.620
2020/01/31 09:17:08.9	315.670	0.460	-0.500	0.620
2020/01/31 09:17:09.0	315.690	0.500	-0.560	0.620
2020/01/31 09:17:09.1	315.700	0.530	-0.610	0.610
2020/01/31 09:17:09.2	315.720	0.550	-0.660	0.610
2020/01/31 09:17:09.3	315.740	0.580	-0.700	0.610
2020/01/31 09:17:09.4	315.750	0.600	-0.740	0.610
2020/01/31 09:17:09.5	315.770	0.620	-0.780	0.620
2020/01/31 09:17:09.6	315.780	0.630	-0.810	0.620
2020/01/31 09:17:09.7	315.800	0.650	-0.840	0.630
2020/01/31 09:17:09.8	315.820	0.660	-0.860	0.640
2020/01/31 09:17:09.9	315.840	0.670	-0.880	0.650
2020/01/31 09:17:10.0	315.850	0.680	-0.890	0.660
2020/01/31 09:17:10.1	315.870	0.680	-0.900	0.680
2020/01/31 09:17:10.2	315.890	0.680	-0.910	0.690
2020/01/31 09:17:10.3	315.900	0.680	-0.910	0.710
2020/01/31 09:17:10.4	315.910	0.680	-0.920	0.740
2020/01/31 09:17:10.5	315.920	0.680	-0.920	0.760
2020/01/31 09:17:10.6	315.930	0.680	-0.910	0.780
2020/01/31 09:17:10.7	315.940	0.670	-0.910	0.800
2020/01/31 09:17:10.8	315.950	0.670	-0.900	0.820
2020/01/31 09:17:10.9	315.960	0.660	-0.890	0.850
2020/01/31 09:17:11.0	315.960	0.650	-0.880	0.870
2020/01/31 09:17:11.1	315.970	0.640	-0.870	0.900
2020/01/31 09:17:11.2	315.970	0.630	-0.860	0.920
2020/01/31 09:17:11.3	315.970	0.620	-0.850	0.940
2020/01/31 09:17:11.4	315.970	0.610	-0.840	0.960
2020/01/31 09:17:11.5	315.970	0.590	-0.820	0.980
2020/01/31 09:17:11.6	315.970	0.580	-0.810	1.000
2020/01/31 09:17:11.7	315.970	0.570	-0.800	1.020
2020/01/31 09:17:11.8	315.960	0.550	-0.780	1.040
2020/01/31 09:17:11.9	315.960	0.540	-0.770	1.050
2020/01/31 09:17:12.0	315.950	0.530	-0.760	1.060
2020/01/31 09:17:12.1	315.950	0.510	-0.740	1.070
2020/01/31 09:17:12.2	315.940	0.500	-0.730	1.080
2020/01/31 09:17:12.3	315.930	0.480	-0.720	1.080
2020/01/31 09:17:12.4	315.920	0.460	-0.700	1.090
2020/01/31 09:17:12.5	315.910	0.450	-0.690	1.090
2020/01/31 09:17:12.6	315.900	0.430	-0.670	1.080
2020/01/31 09:17:12.7	315.900	0.410	-0.660	1.080
2020/01/31 09:17:12.8	315.890	0.400	-0.650	1.070
2020/01/31 09:17:12.9	315.880	0.380	-0.630	1.060
2020/01/31 09:17:13.0	315.880	0.360	-0.620	1.040
2020/01/31 09:17:13.1	315.870	0.340	-0.600	1.020
2020/01/31 09:17:13.2	315.860	0.320	-0.590	1.000
2020/01/31 09:17:13.3	315.860	0.300	-0.570	0.980
2020/01/31 09:17:13.4	315.850	0.280	-0.560	0.950
2020/01/31 09:17:13.5	315.850	0.260	-0.540	0.920
2020/01/31 09:17:13.6	315.850	0.240	-0.520	0.890
2020/01/31 09:17:13.7	315.850	0.220	-0.510	0.860
2020/01/31 09:17:13.8	315.850	0.190	-0.490	0.820
2020/01/31 09:17:13.9	315.850	0.170	-0.470	0.780
2020/01/31 09:17:14.0	315.860	0.150	-0.450	0.740
2020/01/31 09:17:14.1	315.860	0.120	-0.440	0.700
2020/01/31 09:17:14.2	315.870	0.100	-0.420	0.660
2020/01/31 09:17:14.3	315.870	0.070	-0.400	0.610
2020/01/31 09:17:14.4	315.880	0.050	-0.380	0.570
2020/01/31 09:17:14.5	315.890	0.020	-0.360	0.520
2020/01/31 09:17:14.6	315.910	-0.000	-0.340	0.470
2020/01/31 09:17:14.7	315.920	-0.030	-0.320	0.420
2020/01/31 09:17:14.8	315.940	-0.050	-0.290	0.380
2020/01/31 09:17:14.9	315.960	-0.080	-0.270	0.330
2020/01/31 09:17:15.0	315.970	-0.100	-0.250	0.280
2020/01/31 09:17:15.1	315.990	-0.130	-0.220	0.240
2020/01/31 09:17:15.2	316.010	-0.150	-0.200	0.190
2020/01/31 09:17:15.3	316.030	-0.180	-0.170	0.150
2020/01/31 09:17:15.4	316.040	-0.200	-0.140	0.100
2020/01/31 09:17:15.5	316.050	-0.230	-0.120	0.060
2020/01/31 09:17:15.6	316.070	-0.250	-0.090	0.030
2020/01/31 09:17:15.7	316.080	-0.270	-0.060	-0.010
2020/01/31 09:17:15.8	316.100	-0.300	-0.030	-0.040
2020/01/31 09:17:15.9	316.110	-0.320	0.000	-0.070
2020/01/31 09:17:16.0	316.120	-0.340	0.040	-0.090
2020/01/31 09:17:16.1	316.130	-0.370	0.070	-0.120
2020/01/31 09:17:16.2	316.140	-0.390	0.100	-0.140
2020/01/31 09:17:16.3	316.150	-0.410	0.130	-0.150
2020/01/31 09:17:16.4	316.150	-0.430	0.160	-0.170
2020/01/31 09:17:16.5	316.160	-0.450	0.190	-0.180
2020/01/31 09:17:16.6	316.170	-0.470	0.220	-0.180
2020/01/31 09:17:16.7	316.170	-0.480	0.250	-0.190
2020/01/31 09:17:16.8	316.180	-0.500	0.280	-0.190
2020/01/31 09:17:16.9	316.180	-0.510	0.310	-0.190
2020/01/31 09:17:17.0	316.180	-0.530	0.340	-0.180
2020/01/31 09:17:17.1	316.180	-0.540	0.360	-0.170
2020/01/31 09:17:17.2	316.190	-0.550	0.380	-0.160
2020/01/31 09:17:17.3	316.180	-0.560	0.400	-0.140
2020/01/31 09:17:17.4	316.180	-0.570	0.420	-0.130
2020/01/31 09:17:17.5	316.180	-0.580	0.440	-0.110
2020/01/31 09:17:17.6	316.180	-0.580	0.450	-0.090
2020/01/31 09:17:17.7	316.180	-0.580	0.460	-0.070
2020/01/31 09:17:17.8	316.180	-0.580	0.460	-0.040
2020/01/31 09:17:17.9	316.180	-0.580	0.460	-0.020
2020/01/31 09:17:18.0	316.180	-0.580	0.460	0.000
2020/01/31 09:17:18.1	316.180	-0.570	0.460	0.030
2020/01/31 09:17:18.2	316.180	-0.570	0.450	0.050
2020/01/31 09:17:18.3	316.180	-0.560	0.440	0.080
2020/01/31 09:17:18.4	316.180	-0.550	0.430	0.110
2020/01/31 09:17:18.5	316.180	-0.530	0.410	0.130
2020/01/31 09:17:18.6	316.180	-0.520	0.390	0.160
2020/01/31 09:17:18.7	316.180	-0.500	0.370	0.180
2020/01/31 09:17:18.8	316.180	-0.480	0.350	0.210
2020/01/31 09:17:18.9	316.180	-0.460	0.320	0.240
2020/01/31 09:17:19.0	316.170	-0.440	0.290	0.260
2020/01/31 09:17:19.1	316.170	-0.420	0.260	0.290
2020/01/31 09:17:19.2	316.170	-0.390	0.230	0.310
2020/01/31 09:17:19.3	316.170	-0.370	0.190	0.340
2020/01/31 09:17:19.4	316.170	-0.340	0.160	0.370
2020/01/31 09:17:19.5	316.160	-0.310	0.120	0.390
2020/01/31 09:17:19.6	316.160	-0.290	0.080	0.420
2020/01/31 09:17:19.7	316.150	-0.260	0.050	0.440
2020/01/31 09:17:19.8	316.150	-0.230	0.010	0.470
2020/01/31 09:17:19.9	316.140	-0.200	-0.030	0.490
2020/01/31 09:17:20.0	316.140	-0.170	-0.070	0.520
2020/01/31 09:17:20.1	316.130	-0.140	-0.110	0.540
2020/01/31 09:17:20.2	316.130	-0.110	-0.150	0.560
2020/01/31 09:17:20.3	316.120	-0.080	-0.190	0.580
2020/01/31 09:17:20.4	316.120	-0.050	-0.230	0.600
2020/01/31 09:17:20.5	316.110	-0.020	-0.270	0.620
2020/01/31 09:17:20.6	316.110	0.010	-0.310	0.640
2020/01/31 09:17:20.7	316.110	0.040	-0.340	0.650
2020/01/31 09:17:20.8	316.110	0.070	-0.380	0.670
2020/01/31 09:17:20.9	316.110	0.100	-0.410	0.680
2020/01/31 09:17:21.0	316.110	0.130	-0.440	0.690
2020/01/31 09:17:21.1	316.110	0.150	-0.470	0.710
2020/01/31 09:17:21.2	316.110	0.180	-0.500	0.720
2020/01/31 09:17:21.3	316.110	0.210	-0.530	0.730
2020/01/31 09:17:21.4	316.110	0.230	-0.550	0.730
2020/01/31 09:17:21.5	316.110	0.260	-0.580	0.740
2020/01/31 09:17:21.6	316.110	0.280	-0.600	0.750
2020/01/31 09:17:21.7	316.120	0.300	-0.610	0.750
2020/01/31 09:17:21.8	316.120	0.320	-0.630	0.760
2020/01/31 09:17:21.9	316.130	0.340	-0.640	0.760
2020/01/31 09:17:22.0	316.140	0.360	-0.650	0.760
2020/01/31 09:17:22.1	316.150	0.380	-0.660	0.760
2020/01/31 09:17:22.2	316.160	0.390	-0.670	0.760
2020/01/31 09:17:22.3	316.170	0.410	-0.670	0.760
2020/01/31 09:17:22.4	316.170	0.420	-0.680	0.760
2020/01/31 09:17:22.5	316.190	0.430	-0.680	0.750
2020/01/31 09:17:22.6	316.200	0.440	-0.680	0.750
2020/01/31 09:17:22.7	316.220	0.440	-0.680	0.740
2020/01/31 09:17:22.8	316.230	0.450	-0.670	0.730
2020/01/31 09:17:22.9	316.250	0.450	-0.670	0.720
2020/01/31 09:17:23.0	316.260	0.450	-0.660	0.710
2020/01/31 09:17:23.1	316.280	0.440	-0.650	0.700
2020/01/31 09:17:23.2	316.300	0.440	-0.640	0.690
2020/01/31 09:17:23.3	316.320	0.430	-0.620	0.680
2020/01/31 09:17:23.4	316.330	0.420	-0.610	0.670
2020/01/31 09:17:23.5	316.350	0.400	-0.590	0.660
2020/01/31 09:17:23.6	316.370	0.390	-0.570	0.650
2020/01/31 09:17:23.7	316.390	0.370	-0.550	0.640
2020/01/31 09:17:23.8	316.400	0.350	-0.530	0.630
2020/01/31 09:17:23.9	316.420	0.330	-0.510	0.620
2020/01/31 09:17:24.0	316.440	0.310	-0.490	0.610
2020/01/31 09:17:24.1	316.450	0.280	-0.460	0.600
2020/01/31 09:17:24.2	316.470	0.260	-0.430	0.600
2020/01/31 09:17:24.3	316.480	0.230	-0.410	0.590
2020/01/31 09:17:24.4	316.490	0.200	-0.380	0.580
2020/01/31 09:17:24.5	316.500	0.170	-0.350	0.570
2020/01/31 09:17:24.6	316.520	0.130	-0.320	0.570
2020/01/31 09:17:24.7	316.530	0.100	-0.290	0.570
2020/01/31 09:17:24.8	316.540	0.070	-0.260	0.560
2020/01/31 09:17:24.9	316.550	0.040	-0.230	0.560
2020/01/31 09:17:25.0	316.560	0.000	-0.200	0.560
2020/01/31 09:17:25.1	316.570	-0.030	-0.170	0.560
2020/01/31 09:17:25.2	316.580	-0.060	-0.140	0.560
2020/01/31 09:17:25.3	316.590	-0.090	-0.110	0.570
2020/01/31 09:17:25.4	316.590	-0.120	-0.090	0.570
2020/01/31 09:17:25.5	316.600	-0.150	-0.060	0.580
2020/01/31 09:17:25.6	316.610	-0.180	-0.030	0.590
2020/01/31 09:17:25.7	316.620	-0.200	-0.010	0.600
2020/01/31 09:17:25.8	316.620	-0.230	0.010	0.610
2020/01/31 09:17:25.9	316.630	-0.250	0.030	0.620
2020/01/31 09:17:26.0	316.640	-0.270	0.040	0.630
2020/01/31 09:17:26.1	316.650	-0.290	0.050	0.630
2020/01/31 09:17:26.2	316.660	-0.300	0.060	0.640
2020/01/31 09:17:26.3	316.680	-0.310	0.070	0.650
2020/01/31 09:17:26.4	316.690	-0.320	0.070	0.650
2020/01/31 09:17:26.5	316.710	-0.330	0.060	0.650
2020/01/31 09:17:26.6	316.720	-0.340	0.050	0.650
2020/01/31 09:17:26.7	316.740	-0.340	0.040	0.650
2020/01/31 09:17:26.8	316.760	-0.330	0.030	0.650
2020/01/31 09:17:26.9	316.790	-0.330	0.010	0.650
2020/01/31 09:17:27.0	316.810	-0.320	-0.020	0.650
2020/01/31 09:17:27.1	316.840	-0.310	-0.040	0.650
2020/01/31 09:17:27.2	316.870	-0.300	-0.070	0.640
2020/01/31 09:17:27.3	316.900	-0.290	-0.100	0.640
2020/01/31 09:17:27.4	316.930	-0.270	-0.140	0.640
2020/01/31 09:17:27.5	316.970	-0.250	-0.170	0.630
2020/01/31 09:17:27.6	317.000	-0.230	-0.210	0.630
2020/01/31 09:17:27.7	317.040	-0.200	-0.250	0.630
2020/01/31 09:17:27.8	317.080	-0.180	-0.290	0.620
2020/01/31 09:17:27.9	317.120	-0.150	-0.320	0.620
2020/01/31 09:17:28.0	317.170	-0.120	-0.360	0.620
2020/01/31 09:17:28.1	317.210	-0.090	-0.400	0.620
2020/01/31 09:17:28.2	317.260	-0.060	-0.430	0.630
2020/01/31 09:17:28.3	317.310	-0.030	-0.470	0.620
2020/01/31 09:17:28.4	317.360	0.010	-0.500	0.630
2020/01/31 09:17:28.5	317.400	0.040	-0.520	0.640
2020/01/31 09:17:28.6	317.450	0.070	-0.550	0.650
2020/01/31 09:17:28.7	317.500	0.100	-0.570	0.660
2020/01/31 09:17:28.8	317.550	0.140	-0.590	0.670
2020/01/31 09:17:28.9	317.600	0.170	-0.600	0.680
2020/01/31 09:17:29.0	317.650	0.200	-0.610	0.700
2020/01/31 09:17:29.1	317.700	0.230	-0.620	0.720
2020/01/31 09:17:29.2	317.750	0.260	-0.630	0.740
2020/01/31 09:17:29.3	317.800	0.290	-0.630	0.760
2020/01/31 09:17:29.4	317.860	0.310	-0.620	0.780
2020/01/31 09:17:29.5	317.910	0.340	-0.610	0.810
2020/01/31 09:17:29.6	317.970	0.360	-0.600	0.830
2020/01/31 09:17:29.7	318.020	0.380	-0.590	0.850
2020/01/31 09:17:29.8	318.080	0.400	-0.570	0.880
2020/01/31 09:17:29.9	318.130	0.420	-0.550	0.900
2020/01/31 09:17:30.0	318.190	0.430	-0.530	0.930
2020/01/31 09:17:30.1	318.250	0.440	-0.510	0.950
2020/01/31 09:17:30.2	318.310	0.450	-0.490	0.980
2020/01/31 09:17:30.3	318.370	0.460	-0.460	1.010
2020/01/31 09:17:30.4	318.430	0.470	-0.440	1.030
2020/01/31 09:17:30.5	318.500	0.470	-0.410	1.060
2020/01/31 09:17:30.6	318.570	0.470	-0.380	1.080
2020/01/31 09:17:30.7	318.630	0.470	-0.350	1.100
2020/01/31 09:17:30.8	318.700	0.460	-0.320	1.120
2020/01/31 09:17:30.9	318.770	0.460	-0.290	1.140
2020/01/31 09:17:31.0	318.840	0.450	-0.260	1.160
2020/01/31 09:17:31.1	318.910	0.430	-0.230	1.180
2020/01/31 09:17:31.2	318.980	0.420	-0.190	1.190
2020/01/31 09:17:31.3	319.060	0.400	-0.160	1.210
2020/01/31 09:17:31.4	319.130	0.390	-0.130	1.220
2020/01/31 09:17:31.5	319.210	0.370	-0.100	1.230
2020/01/31 09:17:31.6	319.280	0.340	-0.070	1.240
2020/01/31 09:17:31.7	319.350	0.320	-0.040	1.240
2020/01/31 09:17:31.8	319.430	0.290	-0.010	1.240
2020/01/31 09:17:31.9	319.500	0.270	0.030	1.240
2020/01/31 09:17:32.0	319.580	0.240	0.060	1.240
2020/01/31 09:17:32.1	319.650	0.210	0.090	1.240
2020/01/31 09:17:32.2	319.720	0.170	0.120	1.230
2020/01/31 09:17:32.3	319.800	0.140	0.140	1.230
2020/01/31 09:17:32.4	319.870	0.110	0.170	1.220
2020/01/31 09:17:32.5	319.940	0.080	0.200	1.210
2020/01/31 09:17:32.6	320.010	0.040	0.230	1.200
2020/01/31 09:17:32.7	320.080	0.010	0.250	1.180
2020/01/31 09:17:32.8	320.140	-0.030	0.280	1.170
2020/01/31 09:17:32.9	320.210	-0.060	0.310	1.160
2020/01/31 09:17:33.0	320.280	-0.100	0.330	1.140
2020/01/31 09:17:33.1	320.340	-0.130	0.350	1.120
2020/01/31 09:17:33.2	320.400	-0.170	0.370	1.100
2020/01/31 09:17:33.3	320.470	-0.200	0.380	1.080
2020/01/31 09:17:33.4	320.540	-0.240	0.400	1.060
2020/01/31 09:17:33.5	320.600	-0.270	0.410	1.040
2020/01/31 09:17:33.6	320.660	-0.300	0.410	1.010
2020/01/31 09:17:33.7	320.720	-0.330	0.420	0.980
2020/01/31 09:17:33.8	320.780	-0.360	0.420	0.950
2020/01/31 09:17:33.9	320.840	-0.380	0.410	0.920
2020/01/31 09:17:34.0	320.900	-0.410	0.400	0.880
2020/01/31 09:17:34.1	320.960	-0.430	0.390	0.850
2020/01/31 09:17:34.2	321.020	-0.450	0.370	0.810
2020/01/31 09:17:34.3	321.080	-0.470	0.350	0.770
2020/01/31 09:17:34.4	321.140	-0.490	0.320	0.730
2020/01/31 09:17:34.5	321.200	-0.510	0.290	0.680
2020/01/31 09:17:34.6	321.260	-0.520	0.260	0.640
2020/01/31 09:17:34.7	321.320	-0.530	0.220	0.590
2020/01/31 09:17:34.8	321.380	-0.540	0.180	0.540
2020/01/31 09:17:34.9	321.450	-0.540	0.140	0.490
2020/01/31 09:17:35.0	321.510	-0.540	0.090	0.430
2020/01/31 09:17:35.1	321.570	-0.540	0.040	0.380
2020/01/31 09:17:35.2	321.640	-0.540	-0.010	0.330
2020/01/31 09:17:35.3	321.710	-0.530	-0.060	0.270
2020/01/31 09:17:35.4	321.770	-0.530	-0.120	0.210
2020/01/31 09:17:35.5	321.840	-0.520	-0.170	0.160
2020/01/31 09:17:35.6	321.910	-0.500	-0.230	0.100
2020/01/31 09:17:35.7	321.980	-0.490	-0.280	0.050
2020/01/31 09:17:35.8	322.060	-0.470	-0.340	-0.000
2020/01/31 09:17:35.9	322.130	-0.450	-0.390	-0.060
2020/01/31 09:17:36.0	322.210	-0.430	-0.450	-0.110
2020/01/31 09:17:36.1	322.290	-0.410	-0.500	-0.160
2020/01/31 09:17:36.2	322.370	-0.380	-0.540	-0.200
2020/01/31 09:17:36.3	322.450	-0.360	-0.590	-0.250
2020/01/31 09:17:36.4	322.520	-0.330	-0.630	-0.290
2020/01/31 09:17:36.5	322.610	-0.300	-0.670	-0.330
2020/01/31 09:17:36.6	322.700	-0.270	-0.700	-0.370
2020/01/31 09:17:36.7	322.790	-0.240	-0.730	-0.400
2020/01/31 09:17:36.8	322.880	-0.210	-0.760	-0.430
2020/01/31 09:17:36.9	322.970	-0.180	-0.780	-0.460
2020/01/31 09:17:37.0	323.070	-0.150	-0.790	-0.490
2020/01/31 09:17:37.1	323.160	-0.120	-0.800	-0.510
2020/01/31 09:17:37.2	323.260	-0.100	-0.800	-0.530
2020/01/31 09:17:37.3	323.350	-0.070	-0.800	-0.540
2020/01/31 09:17:37.4	323.450	-0.050	-0.790	-0.560
2020/01/31 09:17:37.5	323.550	-0.020	-0.780	-0.570
2020/01/31 09:17:37.6	323.650	-0.000	-0.770	-0.580
2020/01/31 09:17:37.7	323.750	0.020	-0.750	-0.580
2020/01/31 09:17:37.8	323.860	0.040	-0.730	-0.580
2020/01/31 09:17:37.9	323.960	0.050	-0.700	-0.580
2020/01/31 09:17:38.0	324.070	0.070	-0.670	-0.580
2020/01/31 09:17:38.1	324.180	0.080	-0.640	-0.570
2020/01/31 09:17:38.2	324.280	0.090	-0.610	-0.560
2020/01/31 09:17:38.3	324.390	0.100	-0.580	-0.540
2020/01/31 09:17:38.4	324.500	0.100	-0.540	-0.530
2020/01/31 09:17:38.5	324.610	0.110	-0.510	-0.520
2020/01/31 09:17:38.6	324.720	0.110	-0.470	-0.500
2020/01/31 09:17:38.7	324.830	0.110	-0.430	-0.490
2020/01/31 09:17:38.8	324.940	0.110	-0.400	-0.470
2020/01/31 09:17:38.9	325.060	0.100	-0.360	-0.460
2020/01/31 09:17:39.0	325.170	0.100	-0.320	-0.440
2020/01/31 09:17:39.1	325.290	0.090	-0.290	-0.420
2020/01/31 09:17:39.2	325.400	0.080	-0.260	-0.410
2020/01/31 09:17:39.3	325.510	0.070	-0.230	-0.390
2020/01/31 09:17:39.4	325.630	0.060	-0.200	-0.370
2020/01/31 09:17:39.5	325.740	0.050	-0.170	-0.350
2020/01/31 09:17:39.6	325.860	0.050	-0.150	-0.340
2020/01/31 09:17:39.7	325.980	0.040	-0.130	-0.330
2020/01/31 09:17:39.8	326.100	0.030	-0.120	-0.310
2020/01/31 09:17:39.9	326.220	0.020	-0.100	-0.300
2020/01/31 09:17:40.0	326.340	0.010	-0.090	-0.290
2020/01/31 09:17:40.1	326.460	0.000	-0.090	-0.280
2020/01/31 09:17:40.2	326.580	-0.000	-0.080	-0.280
2020/01/31 09:17:40.3	326.700	-0.010	-0.080	-0.270
2020/01/31 09:17:40.4	326.820	-0.010	-0.090	-0.270
2020/01/31 09:17:40.5	326.950	-0.010	-0.090	-0.270
2020/01/31 09:17:40.6	327.070	-0.010	-0.100	-0.270
2020/01/31 09:17:40.7	327.200	-0.010	-0.110	-0.270
2020/01/31 09:17:40.8	327.330	-0.010	-0.130	-0.270
2020/01/31 09:17:40.9	327.460	-0.000	-0.140	-0.280
2020/01/31 09:17:41.0	327.590	0.010	-0.160	-0.290
2020/01/31 09:17:41.1	327.720	0.020	-0.180	-0.300
2020/01/31 09:17:41.2	327.860	0.030	-0.200	-0.310
2020/01/31 09:17:41.3	327.990	0.040	-0.220	-0.320
2020/01/31 09:17:41.4	328.130	0.050	-0.240	-0.340
2020/01/31 09:17:41.5	328.260	0.070	-0.270	-0.350
2020/01/31 09:17:41.6	328.400	0.090	-0.290	-0.370
2020/01/31 09:17:41.7	328.540	0.100	-0.310	-0.390
2020/01/31 09:17:41.8	328.680	0.120	-0.330	-0.410
2020/01/31 09:17:41.9	328.820	0.140	-0.350	-0.430
2020/01/31 09:17:42.0	328.960	0.160	-0.370	-0.450
2020/01/31 09:17:42.1	329.100	0.180	-0.380	-0.460
2020/01/31 09:17:42.2	329.230	0.200	-0.400	-0.480
2020/01/31 09:17:42.3	329.370	0.220	-0.410	-0.500
2020/01/31 09:17:42.4	329.490	0.240	-0.420	-0.510
2020/01/31 09:17:42.5	329.630	0.260	-0.420	-0.530
2020/01/31 09:17:42.6	329.760	0.280	-0.420	-0.540
2020/01/31 09:17:42.7	329.880	0.290	-0.420	-0.550
2020/01/31 09:17:42.8	330.010	0.310	-0.410	-0.560
2020/01/31 09:17:42.9	330.130	0.320	-0.400	-0.560
2020/01/31 09:17:43.0	330.240	0.330	-0.390	-0.560
2020/01/31 09:17:43.1	330.360	0.340	-0.370	-0.560
2020/01/31 09:17:43.2	330.470	0.340	-0.350	-0.560
2020/01/31 09:17:43.3	330.580	0.350	-0.320	-0.560
2020/01/31 09:17:43.4	330.680	0.350	-0.290	-0.550
2020/01/31 09:17:43.5	330.780	0.350	-0.260	-0.550
2020/01/31 09:17:43.6	330.880	0.350	-0.230	-0.540
2020/01/31 09:17:43.7	330.980	0.350	-0.190	-0.530
2020/01/31 09:17:43.8	331.070	0.340	-0.150	-0.520
2020/01/31 09:17:43.9	331.170	0.330	-0.120	-0.510
2020/01/31 09:17:44.0	331.260	0.320	-0.080	-0.490
2020/01/31 09:17:44.1	331.350	0.310	-0.030	-0.480
2020/01/31 09:17:44.2	331.440	0.300	0.010	-0.470
2020/01/31 09:17:44.3	331.530	0.290	0.050	-0.450
2020/01/31 09:17:44.4	331.620	0.270	0.080	-0.430
2020/01/31 09:17:44.5	331.710	0.250	0.120	-0.420
2020/01/31 09:17:44.6	331.790	0.240	0.170	-0.400
2020/01/31 09:17:44.7	331.880	0.220	0.200	-0.380
2020/01/31 09:17:44.8	331.970	0.200	0.240	-0.360
2020/01/31 09:17:44.9	332.050	0.180	0.280	-0.340
2020/01/31 09:17:45.0	332.140	0.170	0.310	-0.330
2020/01/31 09:17:45.1	332.220	0.150	0.340	-0.310
2020/01/31 09:17:45.2	332.310	0.130	0.370	-0.290
2020/01/31 09:17:45.3	332.400	0.110	0.390	-0.270
2020/01/31 09:17:45.4	332.480	0.090	0.410	-0.250
2020/01/31 09:17:45.5	332.570	0.070	0.430	-0.230
2020/01/31 09:17:45.6	332.650	0.060	0.450	-0.210
2020/01/31 09:17:45.7	332.730	0.040	0.460	-0.190
2020/01/31 09:17:45.8	332.820	0.020	0.470	-0.170
2020/01/31 09:17:45.9	332.900	0.010	0.470	-0.160
2020/01/31 09:17:46.0	332.990	-0.010	0.470	-0.140
2020/01/31 09:17:46.1	333.070	-0.030	0.460	-0.130
2020/01/31 09:17:46.2	333.160	-0.040	0.450	-0.120
2020/01/31 09:17:46.3	333.240	-0.050	0.440	-0.110
2020/01/31 09:17:46.4	333.320	-0.070	0.420	-0.100
2020/01/31 09:17:46.5	333.410	-0.080	0.400	-0.100
2020/01/31 09:17:46.6	333.500	-0.090	0.370	-0.090
2020/01/31 09:17:46.7	333.590	-0.110	0.350	-0.090
2020/01/31 09:17:46.8	333.690	-0.120	0.320	-0.100
2020/01/31 09:17:46.9	333.780	-0.130	0.280	-0.110
2020/01/31 09:17:47.0	333.880	-0.140	0.240	-0.120
2020/01/31 09:17:47.1	333.980	-0.150	0.200	-0.130
2020/01/31 09:17:47.2	334.080	-0.160	0.160	-0.150
2020/01/31 09:17:47.3	334.180	-0.170	0.110	-0.170
2020/01/31 09:17:47.4	334.290	-0.180	0.070	-0.200
2020/01/31 09:17:47.5	334.400	-0.190	0.010	-0.230
2020/01/31 09:17:47.6	334.510	-0.200	-0.040	-0.270
2020/01/31 09:17:47.7	334.630	-0.200	-0.100	-0.310
2020/01/31 09:17:47.8	334.760	-0.210	-0.150	-0.360
2020/01/31 09:17:47.9	334.880	-0.220	-0.210	-0.400
2020/01/31 09:17:48.0	335.010	-0.220	-0.270	-0.460
2020/01/31 09:17:48.1	335.150	-0.230	-0.330	-0.510
2020/01/31 09:17:48.2	335.280	-0.230	-0.400	-0.570
2020/01/31 09:17:48.3	335.420	-0.240	-0.460	-0.640
2020/01/31 09:17:48.4	335.570	-0.240	-0.520	-0.710
2020/01/31 09:17:48.5	335.710	-0.250	-0.580	-0.780
2020/01/31 09:17:48.6	335.860	-0.250	-0.640	-0.850
2020/01/31 09:17:48.7	336.020	-0.250	-0.690	-0.920
2020/01/31 09:17:48.8	336.170	-0.260	-0.750	-1.000
2020/01/31 09:17:48.9	336.330	-0.260	-0.800	-1.070
2020/01/31 09:17:49.0	336.480	-0.260	-0.840	-1.150
2020/01/31 09:17:49.1	336.640	-0.260	-0.880	-1.230
2020/01/31 09:17:49.2	336.800	-0.260	-0.920	-1.300
2020/01/31 09:17:49.3	336.960	-0.270	-0.950	-1.370
2020/01/31 09:17:49.4	337.110	-0.270	-0.980	-1.450
2020/01/31 09:17:49.5	337.270	-0.270	-1.000	-1.520
2020/01/31 09:17:49.6	337.430	-0.270	-1.020	-1.590
2020/01/31 09:17:49.7	337.590	-0.270	-1.030	-1.660
2020/01/31 09:17:49.8	337.750	-0.270	-1.040	-1.720
2020/01/31 09:17:49.9	337.910	-0.270	-1.040	-1.790
2020/01/31 09:17:50.0	338.070	-0.270	-1.030	-1.840
2020/01/31 09:17:50.1	338.230	-0.270	-1.020	-1.900
2020/01/31 09:17:50.2	338.390	-0.270	-1.000	-1.950
2020/01/31 09:17:50.3	338.540	-0.270	-0.980	-2.000
2020/01/31 09:17:50.4	338.700	-0.270	-0.960	-2.050
2020/01/31 09:17:50.5	338.860	-0.270	-0.930	-2.090
2020/01/31 09:17:50.6	339.010	-0.260	-0.890	-2.120
2020/01/31 09:17:50.7	339.170	-0.260	-0.850	-2.150
2020/01/31 09:17:50.8	339.320	-0.260	-0.800	-2.170
2020/01/31 09:17:50.9	339.470	-0.250	-0.750	-2.190
2020/01/31 09:17:51.0	339.620	-0.250	-0.690	-2.200
2020/01/31 09:17:51.1	339.760	-0.240	-0.630	-2.210
2020/01/31 09:17:51.2	339.910	-0.240	-0.570	-2.200
2020/01/31 09:17:51.3	340.040	-0.230	-0.500	-2.190
2020/01/31 09:17:51.4	340.180	-0.220	-0.430	-2.170
2020/01/31 09:17:51.5	340.310	-0.220	-0.360	-2.140
2020/01/31 09:17:51.6	340.440	-0.210	-0.290	-2.110
2020/01/31 09:17:51.7	340.570	-0.200	-0.220	-2.060
2020/01/31 09:17:51.8	340.690	-0.190	-0.150	-2.010
2020/01/31 09:17:51.9	340.810	-0.180	-0.080	-1.960
2020/01/31 09:17:52.0	340.930	-0.170	-0.000	-1.890
2020/01/31 09:17:52.1	341.040	-0.160	0.070	-1.820
2020/01/31 09:17:52.2	341.140	-0.150	0.130	-1.750
2020/01/31 09:17:52.3	341.250	-0.140	0.200	-1.670
2020/01/31 09:17:52.4	341.350	-0.130	0.260	-1.580
2020/01/31 09:17:52.5	341.450	-0.120	0.320	-1.490
2020/01/31 09:17:52.6	341.550	-0.110	0.370	-1.400
2020/01/31 09:17:52.7	341.640	-0.090	0.420	-1.310
2020/01/31 09:17:52.8	341.740	-0.080	0.460	-1.220
2020/01/31 09:17:52.9	341.830	-0.070	0.500	-1.130
2020/01/31 09:17:53.0	341.920	-0.060	0.530	-1.040
2020/01/31 09:17:53.1	342.010	-0.040	0.560	-0.950
2020/01/31 09:17:53.2	342.110	-0.030	0.580	-0.860
2020/01/31 09:17:53.3	342.200	-0.020	0.590	-0.770
2020/01/31 09:17:53.4	342.290	-0.000	0.590	-0.680
2020/01/31 09:17:53.5	342.390	0.010	0.590	-0.600
2020/01/31 09:17:53.6	342.480	0.020	0.580	-0.520
2020/01/31 09:17:53.7	342.570	0.040	0.570	-0.440
2020/01/31 09:17:53.8	342.670	0.050	0.540	-0.370
2020/01/31 09:17:53.9	342.770	0.060	0.520	-0.300
2020/01/31 09:17:54.0	342.860	0.080	0.480	-0.240
2020/01/31 09:17:54.1	342.960	0.090	0.440	-0.180
2020/01/31 09:17:54.2	343.070	0.100	0.400	-0.130
2020/01/31 09:17:54.3	343.170	0.110	0.350	-0.080
2020/01/31 09:17:54.4	343.280	0.120	0.300	-0.030
2020/01/31 09:17:54.5	343.380	0.130	0.240	0.000
2020/01/31 09:17:54.6	343.490	0.140	0.190	0.040
2020/01/31 09:17:54.7	343.600	0.150	0.130	0.060
2020/01/31 09:17:54.8	343.710	0.150	0.070	0.090
2020/01/31 09:17:54.9	343.820	0.160	0.010	0.110
2020/01/31 09:17:55.0	343.930	0.160	-0.050	0.120
2020/01/31 09:17:55.1	344.050	0.160	-0.100	0.130
2020/01/31 09:17:55.2	344.160	0.160	-0.150	0.130
2020/01/31 09:17:55.3	344.280	0.150	-0.200	0.140
2020/01/31 09:17:55.4	344.390	0.150	-0.250	0.130
2020/01/31 09:17:55.5	344.510	0.140	-0.290	0.130
2020/01/31 09:17:55.6	344.620	0.130	-0.330	0.120
2020/01/31 09:17:55.7	344.740	0.120	-0.360	0.110
2020/01/31 09:17:55.8	344.860	0.110	-0.390	0.090
2020/01/31 09:17:55.9	344.970	0.100	-0.410	0.070
2020/01/31 09:17:56.0	345.090	0.090	-0.430	0.050
2020/01/31 09:17:56.1	345.210	0.070	-0.440	0.030
2020/01/31 09:17:56.2	345.330	0.060	-0.450	-0.000
2020/01/31 09:17:56.3	345.450	0.040	-0.460	-0.030
2020/01/31 09:17:56.4	345.570	0.020	-0.460	-0.070
2020/01/31 09:17:56.5	345.700	0.010	-0.450	-0.100
2020/01/31 09:17:56.6	345.820	-0.010	-0.450	-0.140
2020/01/31 09:17:56.7	345.950	-0.020	-0.440	-0.180
2020/01/31 09:17:56.8	346.080	-0.040	-0.420	-0.220
2020/01/31 09:17:56.9	346.210	-0.050	-0.410	-0.270
2020/01/31 09:17:57.0	346.340	-0.060	-0.390	-0.320
2020/01/31 09:17:57.1	346.480	-0.070	-0.370	-0.360
2020/01/31 09:17:57.2	346.620	-0.080	-0.350	-0.410
2020/01/31 09:17:57.3	346.760	-0.080	-0.330	-0.460
2020/01/31 09:17:57.4	346.910	-0.090	-0.310	-0.520
2020/01/31 09:17:57.5	347.060	-0.090	-0.290	-0.570
2020/01/31 09:17:57.6	347.200	-0.080	-0.270	-0.620
2020/01/31 09:17:57.7	347.350	-0.080	-0.250	-0.680
2020/01/31 09:17:57.8	347.500	-0.070	-0.240	-0.730
2020/01/31 09:17:57.9	347.650	-0.060	-0.220	-0.770
2020/01/31 09:17:58.0	347.800	-0.050	-0.210	-0.820
2020/01/31 09:17:58.1	347.950	-0.030	-0.190	-0.860
2020/01/31 09:17:58.2	348.100	-0.010	-0.180	-0.910
2020/01/31 09:17:58.3	348.250	0.010	-0.180	-0.950
2020/01/31 09:17:58.4	348.400	0.030	-0.170	-0.980
2020/01/31 09:17:58.5	348.540	0.050	-0.160	-1.020
2020/01/31 09:17:58.6	348.690	0.070	-0.160	-1.050
2020/01/31 09:17:58.7	348.830	0.090	-0.160	-1.070
2020/01/31 09:17:58.8	348.960	0.120	-0.150	-1.100
2020/01/31 09:17:58.9	349.100	0.140	-0.150	-1.120
2020/01/31 09:17:59.0	349.230	0.160	-0.150	-1.140
2020/01/31 09:17:59.1	349.360	0.190	-0.160	-1.150
2020/01/31 09:17:59.2	349.490	0.210	-0.160	-1.170
2020/01/31 09:17:59.3	349.610	0.230	-0.160	-1.180
2020/01/31 09:17:59.4	349.740	0.250	-0.170	-1.180
2020/01/31 09:17:59.5	349.860	0.260	-0.180	-1.190
2020/01/31 09:17:59.6	349.970	0.280	-0.180	-1.190
2020/01/31 09:17:59.7	350.090	0.290	-0.190	-1.200
2020/01/31 09:17:59.8	350.200	0.300	-0.200	-1.190
2020/01/31 09:17:59.9	350.310	0.310	-0.200	-1.190
2020/01/31 09:18:00.0	350.410	0.320	-0.210	-1.180
2020/01/31 09:18:00.1	350.520	0.330	-0.220	-1.170
2020/01/31 09:18:00.2	350.620	0.330	-0.230	-1.160
2020/01/31 09:18:00.3	350.720	0.330	-0.230	-1.150
2020/01/31 09:18:00.4	350.840	0.330	-0.240	-1.130
2020/01/31 09:18:00.5	350.930	0.320	-0.240	-1.110
2020/01/31 09:18:00.6	351.030	0.320	-0.250	-1.090
2020/01/31 09:18:00.7	351.120	0.310	-0.250	-1.070
2020/01/31 09:18:00.8	351.210	0.300	-0.250	-1.040
2020/01/31 09:18:00.9	351.310	0.290	-0.250	-1.010
2020/01/31 09:18:01.0	351.400	0.270	-0.250	-0.990
2020/01/31 09:18:01.1	351.490	0.260	-0.250	-0.960
2020/01/31 09:18:01.2	351.580	0.240	-0.250	-0.930
2020/01/31 09:18:01.3	351.680	0.220	-0.240	-0.900
2020/01/31 09:18:01.4	351.770	0.200	-0.240	-0.880
2020/01/31 09:18:01.5	351.860	0.190	-0.230	-0.850
2020/01/31 09:18:01.6	351.950	0.170	-0.220	-0.820
2020/01/31 09:18:01.7	352.040	0.150	-0.210	-0.800
2020/01/31 09:18:01.8	352.140	0.130	-0.200	-0.770
2020/01/31 09:18:01.9	352.230	0.110	-0.190	-0.750
2020/01/31 09:18:02.0	352.330	0.090	-0.180	-0.730
2020/01/31 09:18:02.1	352.430	0.080	-0.170	-0.720
2020/01/31 09:18:02.2	352.540	0.060	-0.160	-0.700
2020/01/31 09:18:02.3	352.650	0.050	-0.150	-0.690
2020/01/31 09:18:02.4	352.750	0.030	-0.140	-0.680
2020/01/31 09:18:02.5	352.870	0.020	-0.130	-0.680
2020/01/31 09:18:02.6	352.980	0.010	-0.120	-0.680
2020/01/31 09:18:02.7	353.100	0.010	-0.110	-0.680
2020/01/31 09:18:02.8	353.220	0.000	-0.110	-0.680
2020/01/31 09:18:02.9	353.350	-0.000	-0.100	-0.690
2020/01/31 09:18:03.0	353.470	-0.000	-0.100	-0.700
2020/01/31 09:18:03.1	353.610	-0.000	-0.100	-0.720
2020/01/31 09:18:03.2	353.740	-0.000	-0.100	-0.730
2020/01/31 09:18:03.3	353.880	0.000	-0.100	-0.750
2020/01/31 09:18:03.4	354.020	0.010	-0.110	-0.770
2020/01/31 09:18:03.5	354.160	0.010	-0.120	-0.800
2020/01/31 09:18:03.6	354.310	0.020	-0.130	-0.830
2020/01/31 09:18:03.7	354.450	0.030	-0.130	-0.850
2020/01/31 09:18:03.8	354.600	0.030	-0.140	-0.880
2020/01/31 09:18:03.9	354.750	0.040	-0.150	-0.910
2020/01/31 09:18:04.0	354.900	0.050	-0.160	-0.940
2020/01/31 09:18:04.1	355.050	0.060	-0.170	-0.980
2020/01/31 09:18:04.2	355.200	0.060	-0.180	-1.010
2020/01/31 09:18:04.3	355.350	0.070	-0.190	-1.040
2020/01/31 09:18:04.4	355.490	0.070	-0.210	-1.070
2020/01/31 09:18:04.5	355.640	0.070	-0.220	-1.100
2020/01/31 09:18:04.6	355.790	0.080	-0.220	-1.130
2020/01/31 09:18:04.7	355.940	0.070	-0.230	-1.160
2020/01/31 09:18:04.8	356.090	0.070	-0.230	-1.190
2020/01/31 09:18:04.9	356.240	0.070	-0.240	-1.220
2020/01/31 09:18:05.0	356.380	0.060	-0.240	-1.240
2020/01/31 09:18:05.1	356.520	0.050	-0.240	-1.270
2020/01/31 09:18:05.2	356.660	0.040	-0.230	-1.290
2020/01/31 09:18:05.3	356.800	0.020	-0.230	-1.310
2020/01/31 09:18:05.4	356.930	0.010	-0.220	-1.320
2020/01/31 09:18:05.5	357.070	-0.020	-0.210	-1.340
2020/01/31 09:18:05.6	357.190	-0.040	-0.200	-1.350
2020/01/31 09:18:05.7	357.320	-0.060	-0.180	-1.360
2020/01/31 09:18:05.8	357.440	-0.090	-0.160	-1.370
2020/01/31 09:18:05.9	357.560	-0.120	-0.140	-1.370
2020/01/31 09:18:06.0	357.670	-0.150	-0.120	-1.370
2020/01/31 09:18:06.1	357.790	-0.190	-0.100	-1.370
2020/01/31 09:18:06.2	357.890	-0.220	-0.070	-1.360
2020/01/31 09:18:06.3	357.990	-0.260	-0.050	-1.350
2020/01/31 09:18:06.4	358.090	-0.290	-0.020	-1.350
2020/01/31 09:18:06.5	358.180	-0.330	0.010	-1.330
2020/01/31 09:18:06.6	358.270	-0.370	0.040	-1.320
2020/01/31 09:18:06.7	358.360	-0.410	0.070	-1.310
2020/01/31 09:18:06.8	358.450	-0.450	0.100	-1.290
2020/01/31 09:18:06.9	358.530	-0.480	0.130	-1.270
2020/01/31 09:18:07.0	358.610	-0.520	0.160	-1.250
2020/01/31 09:18:07.1	358.690	-0.550	0.190	-1.240
2020/01/31 09:18:07.2	358.770	-0.590	0.220	-1.220
2020/01/31 09:18:07.3	358.850	-0.620	0.240	-1.200
2020/01/31 09:18:07.4	358.920	-0.650	0.270	-1.170
2020/01/31 09:18:07.5	358.990	-0.670	0.290	-1.160
2020/01/31 09:18:07.6	359.070	-0.690	0.310	-1.140
2020/01/31 09:18:07.7	359.140	-0.710	0.330	-1.120
2020/01/31 09:18:07.8	359.220	-0.720	0.350	-1.100
2020/01/31 09:18:07.9	359.290	-0.730	0.360	-1.080
2020/01/31 09:18:08.0	359.370	-0.730	0.370	-1.060
2020/01/31 09:18:08.1	359.450	-0.730	0.380	-1.040
2020/01/31 09:18:08.2	359.530	-0.720	0.380	-1.030
2020/01/31 09:18:08.3	359.600	-0.710	0.370	-1.010
2020/01/31 09:18:08.4	359.680	-0.690	0.360	-0.990
2020/01/31 09:18:08.5	359.770	-0.670	0.350	-0.980
2020/01/31 09:18:08.6	359.860	-0.650	0.340	-0.960
2020/01/31 09:18:08.7	359.950	-0.610	0.320	-0.940
2020/01/31 09:18:08.8	0.050	-0.580	0.300	-0.920
2020/01/31 09:18:08.9	0.150	-0.540	0.280	-0.900
2020/01/31 09:18:09.0	0.250	-0.490	0.250	-0.880
2020/01/31 09:18:09.1	0.350	-0.450	0.220	-0.860
2020/01/31 09:18:09.2	0.450	-0.390	0.180	-0.840
2020/01/31 09:18:09.3	0.560	-0.340	0.150	-0.820
2020/01/31 09:18:09.4	0.660	-0.290	0.110	-0.800
2020/01/31 09:18:09.5	0.760	-0.230	0.070	-0.780
2020/01/31 09:18:09.6	0.880	-0.170	0.030	-0.750
2020/01/31 09:18:09.7	0.990	-0.110	-0.020	-0.730
2020/01/31 09:18:09.8	1.100	-0.060	-0.060	-0.710
2020/01/31 09:18:09.9	1.220	0.000	-0.110	-0.680
2020/01/31 09:18:10.0	1.330	0.060	-0.150	-0.660
2020/01/31 09:18:10.1	1.450	0.110	-0.200	-0.640
2020/01/31 09:18:10.2	1.570	0.160	-0.240	-0.610
2020/01/31 09:18:10.3	1.690	0.210	-0.280	-0.590
2020/01/31 09:18:10.4	1.800	0.260	-0.330	-0.570
2020/01/31 09:18:10.5	1.930	0.310	-0.370	-0.550
2020/01/31 09:18:10.6	2.050	0.350	-0.410	-0.530
2020/01/31 09:18:10.7	2.170	0.380	-0.450	-0.510
2020/01/31 09:18:10.8	2.300	0.420	-0.480	-0.490
2020/01/31 09:18:10.9	2.430	0.450	-0.520	-0.480
2020/01/31 09:18:11.0	2.560	0.470	-0.550	-0.470
2020/01/31 09:18:11.1	2.690	0.500	-0.580	-0.460
2020/01/31 09:18:11.2	2.820	0.510	-0.600	-0.450
2020/01/31 09:18:11.3	2.960	0.530	-0.630	-0.440
2020/01/31 09:18:11.4	3.090	0.540	-0.650	-0.430
2020/01/31 09:18:11.5	3.220	0.540	-0.670	-0.430
2020/01/31 09:18:11.6	3.360	0.540	-0.690	-0.420
2020/01/31 09:18:11.7	3.490	0.540	-0.700	-0.420
2020/01/31 09:18:11.8	3.630	0.540	-0.710	-0.420
2020/01/31 09:18:11.9	3.770	0.530	-0.720	-0.420
2020/01/31 09:18:12.0	3.900	0.520	-0.730	-0.430
2020/01/31 09:18:12.1	4.040	0.500	-0.730	-0.430
2020/01/31 09:18:12.2	4.170	0.490	-0.730	-0.430
2020/01/31 09:18:12.3	4.300	0.470	-0.730	-0.440
2020/01/31 09:18:12.4	4.430	0.450	-0.730	-0.450
2020/01/31 09:18:12.5	4.560	0.430	-0.720	-0.450
2020/01/31 09:18:12.6	4.690	0.410	-0.710	-0.460
2020/01/31 09:18:12.7	4.810	0.390	-0.700	-0.460
2020/01/31 09:18:12.8	4.940	0.370	-0.680	-0.470
2020/01/31 09:18:12.9	5.060	0.350	-0.670	-0.470
2020/01/31 09:18:13.0	5.180	0.330	-0.650	-0.480
2020/01/31 09:18:13.1	5.300	0.310	-0.620	-0.490
2020/01/31 09:18:13.2	5.420	0.290	-0.600	-0.490
2020/01/31 09:18:13.3	5.540	0.270	-0.570	-0.500
2020/01/31 09:18:13.4	5.640	0.260	-0.540	-0.510
2020/01/31 09:18:13.5	5.750	0.240	-0.510	-0.520
2020/01/31 09:18:13.6	5.860	0.230	-0.480	-0.530
2020/01/31 09:18:13.7	5.970	0.230	-0.440	-0.540
2020/01/31 09:18:13.8	6.080	0.220	-0.410	-0.540
2020/01/31 09:18:13.9	6.190	0.220	-0.380	-0.550
2020/01/31 09:18:14.0	6.300	0.220	-0.340	-0.560
2020/01/31 09:18:14.1	6.410	0.220	-0.310	-0.570
2020/01/31 09:18:14.2	6.510	0.230	-0.280	-0.580
2020/01/31 09:18:14.3	6.620	0.240	-0.250	-0.590
2020/01/31 09:18:14.4	6.710	0.250	-0.230	-0.600
2020/01/31 09:18:14.5	6.820	0.260	-0.200	-0.610
2020/01/31 09:18:14.6	6.920	0.280	-0.170	-0.610
2020/01/31 09:18:14.7	7.030	0.290	-0.150	-0.620
2020/01/31 09:18:14.8	7.140	0.310	-0.130	-0.630
2020/01/31 09:18:14.9	7.250	0.340	-0.110	-0.630
2020/01/31 09:18:15.0	7.360	0.360	-0.090	-0.640
2020/01/31 09:18:15.1	7.470	0.380	-0.080	-0.640
2020/01/31 09:18:15.2	7.580	0.400	-0.060	-0.650
2020/01/31 09:18:15.3	7.690	0.430	-0.050	-0.650
2020/01/31 09:18:15.4	7.800	0.450	-0.050	-0.650
2020/01/31 09:18:15.5	7.900	0.470	-0.040	-0.650
2020/01/31 09:18:15.6	8.010	0.490	-0.040	-0.650
2020/01/31 09:18:15.7	8.120	0.510	-0.030	-0.650
2020/01/31 09:18:15.8	8.230	0.530	-0.030	-0.650
2020/01/31 09:18:15.9	8.330	0.540	-0.030	-0.640
2020/01/31 09:18:16.0	8.440	0.550	-0.030	-0.640
2020/01/31 09:18:16.1	8.540	0.560	-0.030	-0.630
2020/01/31 09:18:16.2	8.650	0.570	-0.030	-0.630
2020/01/31 09:18:16.3	8.750	0.570	-0.030	-0.620
2020/01/31 09:18:16.4	8.850	0.570	-0.030	-0.620
2020/01/31 09:18:16.5	8.950	0.560	-0.030	-0.610
2020/01/31 09:18:16.6	9.050	0.550	-0.030	-0.610
2020/01/31 09:18:16.7	9.150	0.540	-0.030	-0.600
2020/01/31 09:18:16.8	9.250	0.520	-0.030	-0.600
2020/01/31 09:18:16.9	9.350	0.500	-0.030	-0.590
2020/01/31 09:18:17.0	9.450	0.470	-0.020	-0.590
2020/01/31 09:18:17.1	9.550	0.440	-0.010	-0.590
2020/01/31 09:18:17.2	9.650	0.410	-0.000	-0.580
2020/01/31 09:18:17.3	9.740	0.370	0.010	-0.580
2020/01/31 09:18:17.4	9.840	0.330	0.020	-0.580
2020/01/31 09:18:17.5	9.930	0.280	0.040	-0.580
2020/01/31 09:18:17.6	10.030	0.230	0.050	-0.590
2020/01/31 09:18:17.7	10.130	0.180	0.070	-0.590
2020/01/31 09:18:17.8	10.230	0.130	0.090	-0.590
2020/01/31 09:18:17.9	10.330	0.080	0.110	-0.600
2020/01/31 09:18:18.0	10.430	0.020	0.130	-0.610
2020/01/31 09:18:18.1	10.530	-0.040	0.160	-0.620
2020/01/31 09:18:18.2	10.630	-0.100	0.180	-0.630
2020/01/31 09:18:18.3	10.730	-0.160	0.210	-0.640
2020/01/31 09:18:18.4	10.830	-0.220	0.240	-0.660
2020/01/31 09:18:18.5	10.930	-0.280	0.270	-0.670
2020/01/31 09:18:18.6	11.030	-0.330	0.290	-0.690
2020/01/31 09:18:18.7	11.140	-0.390	0.320	-0.700
2020/01/31 09:18:18.8	11.240	-0.450	0.350	-0.720
2020/01/31 09:18:18.9	11.340	-0.500	0.370	-0.740
2020/01/31 09:18:19.0	11.440	-0.550	0.400	-0.760
2020/01/31 09:18:19.1	11.550	-0.600	0.420	-0.780
2020/01/31 09:18:19.2	11.650	-0.640	0.440	-0.800
2020/01/31 09:18:19.3	11.740	-0.690	0.450	-0.820
2020/01/31 09:18:19.4	11.850	-0.730	0.470	-0.840
2020/01/31 09:18:19.5	11.950	-0.760	0.480	-0.860
2020/01/31 09:18:19.6	12.050	-0.790	0.500	-0.880
2020/01/31 09:18:19.7	12.150	-0.820	0.510	-0.900
2020/01/31 09:18:19.8	12.240	-0.840	0.510	-0.910
2020/01/31 09:18:19.9	12.340	-0.860	0.520	-0.930
2020/01/31 09:18:20.0	12.440	-0.880	0.510	-0.940
2020/01/31 09:18:20.1	12.540	-0.890	0.510	-0.960
2020/01/31 09:18:20.2	12.640	-0.890	0.500	-0.970
2020/01/31 09:18:20.3	12.740	-0.900	0.490	-0.980
2020/01/31 09:18:20.4	12.850	-0.890	0.470	-0.990
2020/01/31 09:18:20.5	12.950	-0.890	0.450	-1.000
2020/01/31 09:18:20.6	13.050	-0.870	0.430	-1.010
2020/01/31 09:18:20.7	13.150	-0.860	0.400	-1.020
2020/01/31 09:18:20.8	13.250	-0.840	0.370	-1.030
2020/01/31 09:18:20.9	13.360	-0.820	0.330	-1.030
2020/01/31 09:18:21.0	13.460	-0.790	0.290	-1.040
2020/01/31 09:18:21.1	13.570	-0.760	0.250	-1.040
2020/01/31 09:18:21.2	13.680	-0.730	0.200	-1.050
2020/01/31 09:18:21.3	13.790	-0.690	0.150	-1.050
2020/01/31 09:18:21.4	13.910	-0.650	0.090	-1.060
2020/01/31 09:18:21.5	14.020	-0.610	0.040	-1.060
2020/01/31 09:18:21.6	14.140	-0.570	-0.020	-1.060
2020/01/31 09:18:21.7	14.260	-0.520	-0.090	-1.070
2020/01/31 09:18:21.8	14.380	-0.480	-0.150	-1.070
2020/01/31 09:18:21.9	14.500	-0.430	-0.220	-1.080
2020/01/31 09:18:22.0	14.630	-0.380	-0.280	-1.080
2020/01/31 09:18:22.1	14.760	-0.330	-0.350	-1.090
2020/01/31 09:18:22.2	14.880	-0.280	-0.420	-1.090
2020/01/31 09:18:22.3	15.030	-0.230	-0.490	-1.090
2020/01/31 09:18:22.4	15.170	-0.180	-0.550	-1.090
2020/01/31 09:18:22.5	15.300	-0.130	-0.610	-1.100
2020/01/31 09:18:22.6	15.430	-0.080	-0.670	-1.100
2020/01/31 09:18:22.7	15.570	-0.030	-0.730	-1.100
2020/01/31 09:18:22.8	15.700	0.010	-0.780	-1.100
2020/01/31 09:18:22.9	15.830	0.060	-0.830	-1.090
2020/01/31 09:18:23.0	15.970	0.100	-0.870	-1.090
2020/01/31 09:18:23.1	16.100	0.140	-0.900	-1.080
2020/01/31 09:18:23.2	16.230	0.170	-0.930	-1.070
2020/01/31 09:18:23.3	16.380	0.210	-0.950	-1.060
2020/01/31 09:18:23.4	16.500	0.240	-0.970	-1.040
2020/01/31 09:18:23.5	16.630	0.260	-0.980	-1.030
2020/01/31 09:18:23.6	16.750	0.290	-0.980	-1.010
2020/01/31 09:18:23.7	16.860	0.310	-0.970	-0.990
2020/01/31 09:18:23.8	16.980	0.320	-0.960	-0.970
2020/01/31 09:18:23.9	17.090	0.330	-0.940	-0.940
2020/01/31 09:18:24.0	17.200	0.340	-0.920	-0.920
2020/01/31 09:18:24.1	17.300	0.350	-0.880	-0.890
2020/01/31 09:18:24.2	17.390	0.350	-0.850	-0.850
2020/01/31 09:18:24.3	17.490	0.350	-0.800	-0.820
2020/01/31 09:18:24.4	17.580	0.350	-0.750	-0.780
2020/01/31 09:18:24.5	17.660	0.340	-0.700	-0.740
2020/01/31 09:18:24.6	17.740	0.330	-0.640	-0.700
2020/01/31 09:18:24.7	17.810	0.320	-0.580	-0.660
2020/01/31 09:18:24.8	17.880	0.310	-0.520	-0.610
2020/01/31 09:18:24.9	17.950	0.300	-0.460	-0.570
2020/01/31 09:18:25.0	18.010	0.290	-0.390	-0.520
2020/01/31 09:18:25.1	18.060	0.270	-0.330	-0.470
2020/01/31 09:18:25.2	18.120	0.250	-0.260	-0.420
2020/01/31 09:18:25.3	18.160	0.240	-0.200	-0.370
2020/01/31 09:18:25.4	18.210	0.220	-0.140	-0.320
2020/01/31 09:18:25.5	18.260	0.210	-0.090	-0.280
2020/01/31 09:18:25.6	18.310	0.200	-0.030	-0.230
2020/01/31 09:18:25.7	18.360	0.180	0.020	-0.180
2020/01/31 09:18:25.8	18.400	0.170	0.060	-0.140
2020/01/31 09:18:25.9	18.460	0.170	0.100	-0.100
2020/01/31 09:18:26.0	18.510	0.160	0.130	-0.060
2020/01/31 09:18:26.1	18.560	0.160	0.160	-0.030
2020/01/31 09:18:26.2	18.620	0.160	0.170	0.010
2020/01/31 09:18:26.3	18.680	0.160	0.180	0.030
2020/01/31 09:18:26.4	18.740	0.170	0.180	0.060
2020/01/31 09:18:26.5	18.810	0.180	0.180	0.080
2020/01/31 09:18:26.6	18.880	0.190	0.170	0.100
2020/01/31 09:18:26.7	18.950	0.210	0.150	0.110
2020/01/31 09:18:26.8	19.040	0.230	0.120	0.120
2020/01/31 09:18:26.9	19.120	0.250	0.090	0.130
2020/01/31 09:18:27.0	19.210	0.280	0.050	0.130
2020/01/31 09:18:27.1	19.300	0.300	0.010	0.120
2020/01/31 09:18:27.2	19.400	0.330	-0.040	0.120
2020/01/31 09:18:27.3	19.500	0.360	-0.090	0.100
2020/01/31 09:18:27.4	19.620	0.390	-0.140	0.090
2020/01/31 09:18:27.5	19.730	0.420	-0.200	0.070
2020/01/31 09:18:27.6	19.840	0.460	-0.260	0.040
2020/01/31 09:18:27.7	19.960	0.490	-0.310	0.020
2020/01/31 09:18:27.8	20.080	0.520	-0.370	-0.010
2020/01/31 09:18:27.9	20.200	0.550	-0.420	-0.040
2020/01/31 09:18:28.0	20.320	0.570	-0.470	-0.080
2020/01/31 09:18:28.1	20.440	0.600	-0.520	-0.110
2020/01/31 09:18:28.2	20.570	0.620	-0.570	-0.150
2020/01/31 09:18:28.3	20.690	0.640	-0.610	-0.190
2020/01/31 09:18:28.4	20.810	0.650	-0.640	-0.240
2020/01/31 09:18:28.5	20.940	0.660	-0.670	-0.280
2020/01/31 09:18:28.6	21.060	0.670	-0.700	-0.320
2020/01/31 09:18:28.7	21.190	0.680	-0.710	-0.370
2020/01/31 09:18:28.8	21.310	0.680	-0.730	-0.410
2020/01/31 09:18:28.9	21.440	0.670	-0.730	-0.450
2020/01/31 09:18:29.0	21.560	0.670	-0.730	-0.500
2020/01/31 09:18:29.1	21.680	0.650	-0.720	-0.540
2020/01/31 09:18:29.2	21.800	0.640	-0.700	-0.580
2020/01/31 09:18:29.3	21.910	0.620	-0.670	-0.620
2020/01/31 09:18:29.4	22.030	0.590	-0.640	-0.660
2020/01/31 09:18:29.5	22.150	0.560	-0.600	-0.700
2020/01/31 09:18:29.6	22.270	0.530	-0.560	-0.730
2020/01/31 09:18:29.7	22.380	0.500	-0.510	-0.760
2020/01/31 09:18:29.8	22.490	0.460	-0.450	-0.790
2020/01/31 09:18:29.9	22.600	0.420	-0.390	-0.810
2020/01/31 09:18:30.0	22.710	0.380	-0.320	-0.830
2020/01/31 09:18:30.1	22.810	0.330	-0.250	-0.850
2020/01/31 09:18:30.2	22.910	0.290	-0.180	-0.860
2020/01/31 09:18:30.3	23.010	0.240	-0.100	-0.870
2020/01/31 09:18:30.4	23.110	0.190	-0.030	-0.880
2020/01/31 09:18:30.5	23.210	0.140	0.050	-0.880
2020/01/31 09:18:30.6	23.300	0.100	0.130	-0.880
2020/01/31 09:18:30.7	23.390	0.050	0.200	-0.870
2020/01/31 09:18:30.8	23.480	0.010	0.280	-0.860
2020/01/31 09:18:30.9	23.560	-0.040	0.350	-0.850
2020/01/31 09:18:31.0	23.650	-0.080	0.420	-0.830
2020/01/31 09:18:31.1	23.730	-0.120	0.490	-0.820
2020/01/31 09:18:31.2	23.810	-0.160	0.550	-0.800
2020/01/31 09:18:31.3	23.890	-0.200	0.600	-0.780
2020/01/31 09:18:31.4	23.970	-0.230	0.650	-0.760
2020/01/31 09:18:31.5	24.050	-0.260	0.700	-0.730
2020/01/31 09:18:31.6	24.120	-0.290	0.730	-0.710
2020/01/31 09:18:31.7	24.200	-0.320	0.760	-0.680
2020/01/31 09:18:31.8	24.280	-0.340	0.780	-0.650
2020/01/31 09:18:31.9	24.350	-0.360	0.800	-0.630
2020/01/31 09:18:32.0	24.420	-0.370	0.800	-0.600
2020/01/31 09:18:32.1	24.500	-0.390	0.800	-0.570
2020/01/31 09:18:32.2	24.570	-0.400	0.790	-0.540
2020/01/31 09:18:32.3	24.630	-0.410	0.770	-0.510
2020/01/31 09:18:32.4	24.700	-0.410	0.750	-0.490
2020/01/31 09:18:32.5	24.770	-0.410	0.730	-0.460
2020/01/31 09:18:32.6	24.840	-0.410	0.690	-0.430
2020/01/31 09:18:32.7	24.900	-0.410	0.650	-0.400
2020/01/31 09:18:32.8	24.970	-0.410	0.610	-0.370
2020/01/31 09:18:32.9	25.030	-0.410	0.560	-0.350
2020/01/31 09:18:33.0	25.100	-0.400	0.510	-0.320
2020/01/31 09:18:33.1	25.160	-0.390	0.460	-0.290
2020/01/31 09:18:33.2	25.220	-0.390	0.410	-0.270
2020/01/31 09:18:33.3	25.280	-0.380	0.350	-0.240
2020/01/31 09:18:33.4	25.330	-0.370	0.290	-0.220
2020/01/31 09:18:33.5	25.390	-0.360	0.230	-0.200
2020/01/31 09:18:33.6	25.440	-0.350	0.170	-0.180
2020/01/31 09:18:33.7	25.500	-0.350	0.110	-0.170
2020/01/31 09:18:33.8	25.560	-0.340	0.050	-0.150
2020/01/31 09:18:33.9	25.620	-0.330	-0.010	-0.140
2020/01/31 09:18:34.0	25.680	-0.320	-0.070	-0.130
2020/01/31 09:18:34.1	25.740	-0.320	-0.120	-0.130
2020/01/31 09:18:34.2	25.800	-0.310	-0.170	-0.120
2020/01/31 09:18:34.3	25.870	-0.300	-0.220	-0.120
2020/01/31 09:18:34.4	25.930	-0.300	-0.280	-0.120
2020/01/31 09:18:34.5	25.990	-0.290	-0.320	-0.130
2020/01/31 09:18:34.6	26.070	-0.290	-0.360	-0.130
2020/01/31 09:18:34.7	26.140	-0.290	-0.400	-0.140
2020/01/31 09:18:34.8	26.220	-0.280	-0.440	-0.150
2020/01/31 09:18:34.9	26.300	-0.280	-0.480	-0.170
2020/01/31 09:18:35.0	26.390	-0.280	-0.510	-0.180
2020/01/31 09:18:35.1	26.470	-0.270	-0.530	-0.200
2020/01/31 09:18:35.2	26.570	-0.270	-0.560	-0.220
2020/01/31 09:18:35.3	26.660	-0.270	-0.580	-0.240
2020/01/31 09:18:35.4	26.760	-0.260	-0.600	-0.260
2020/01/31 09:18:35.5	26.860	-0.260	-0.610	-0.280
2020/01/31 09:18:35.6	26.970	-0.260	-0.620	-0.310
2020/01/31 09:18:35.7	27.080	-0.250	-0.630	-0.330
2020/01/31 09:18:35.8	27.190	-0.250	-0.630	-0.360
2020/01/31 09:18:35.9	27.310	-0.250	-0.630	-0.380
2020/01/31 09:18:36.0	27.420	-0.240	-0.630	-0.400
2020/01/31 09:18:36.1	27.540	-0.240	-0.620	-0.420
2020/01/31 09:18:36.2	27.660	-0.230	-0.610	-0.440
2020/01/31 09:18:36.3	27.780	-0.230	-0.600	-0.460
2020/01/31 09:18:36.4	27.900	-0.220	-0.580	-0.480
2020/01/31 09:18:36.5	28.010	-0.220	-0.560	-0.490
2020/01/31 09:18:36.6	28.130	-0.210	-0.540	-0.500
2020/01/31 09:18:36.7	28.240	-0.210	-0.510	-0.510
2020/01/31 09:18:36.8	28.350	-0.200	-0.480	-0.510
2020/01/31 09:18:36.9	28.460	-0.200	-0.460	-0.510
2020/01/31 09:18:37.0	28.560	-0.190	-0.420	-0.510
2020/01/31 09:18:37.1	28.670	-0.180	-0.390	-0.510
2020/01/31 09:18:37.2	28.770	-0.180	-0.360	-0.510
2020/01/31 09:18:37.3	28.860	-0.170	-0.330	-0.500
2020/01/31 09:18:37.4	28.960	-0.160	-0.300	-0.490
2020/01/31 09:18:37.5	29.050	-0.150	-0.270	-0.480
2020/01/31 09:18:37.6	29.140	-0.140	-0.240	-0.470
2020/01/31 09:18:37.7	29.230	-0.130	-0.210	-0.460
2020/01/31 09:18:37.8	29.310	-0.120	-0.180	-0.440
2020/01/31 09:18:37.9	29.400	-0.100	-0.160	-0.430
2020/01/31 09:18:38.0	29.480	-0.090	-0.130	-0.410
2020/01/31 09:18:38.1	29.560	-0.080	-0.110	-0.400
2020/01/31 09:18:38.2	29.640	-0.060	-0.100	-0.380
2020/01/31 09:18:38.3	29.720	-0.040	-0.080	-0.360
2020/01/31 09:18:38.4	29.800	-0.030	-0.070	-0.340
2020/01/31 09:18:38.5	29.870	-0.010	-0.060	-0.320
2020/01/31 09:18:38.6	29.950	0.010	-0.050	-0.300
2020/01/31 09:18:38.7	30.020	0.030	-0.050	-0.280
2020/01/31 09:18:38.8	30.090	0.050	-0.050	-0.250
2020/01/31 09:18:38.9	30.170	0.070	-0.050	-0.230
2020/01/31 09:18:39.0	30.240	0.100	-0.060	-0.200
2020/01/31 09:18:39.1	30.310	0.120	-0.070	-0.180
2020/01/31 09:18:39.2	30.380	0.140	-0.080	-0.150
2020/01/31 09:18:39.3	30.440	0.160	-0.100	-0.120
2020/01/31 09:18:39.4	30.510	0.190	-0.120	-0.090
2020/01/31 09:18:39.5	30.580	0.210	-0.140	-0.060
2020/01/31 09:18:39.6	30.650	0.230	-0.160	-0.030
2020/01/31 09:18:39.7	30.720	0.250	-0.180	-0.000
2020/01/31 09:18:39.8	30.790	0.280	-0.200	0.030
2020/01/31 09:18:39.9	30.860	0.300	-0.220	0.060
2020/01/31 09:18:40.0	30.930	0.320	-0.250	0.090
2020/01/31 09:18:40.1	31.000	0.340	-0.270	0.120
2020/01/31 09:18:40.2	31.070	0.360	-0.290	0.150
2020/01/31 09:18:40.3	31.140	0.380	-0.310	0.180
2020/01/31 09:18:40.4	31.200	0.400	-0.330	0.210
2020/01/31 09:18:40.5	31.270	0.420	-0.350	0.230
2020/01/31 09:18:40.6	31.340	0.430	-0.370	0.260
2020/01/31 09:18:40.7	31.420	0.450	-0.390	0.290
2020/01/31 09:18:40.8	31.490	0.460	-0.400	0.310
2020/01/31 09:18:40.9	31.560	0.480	-0.420	0.330
2020/01/31 09:18:41.0	31.630	0.490	-0.430	0.360
2020/01/31 09:18:41.1	31.700	0.500	-0.440	0.380
2020/01/31 09:18:41.2	31.780	0.510	-0.450	0.400
2020/01/31 09:18:41.3	31.850	0.520	-0.450	0.420
2020/01/31 09:18:41.4	31.920	0.520	-0.460	0.440
2020/01/31 09:18:41.5	31.990	0.530	-0.450	0.460
2020/01/31 09:18:41.6	32.060	0.540	-0.450	0.480
2020/01/31 09:18:41.7	32.130	0.540	-0.450	0.500
2020/01/31 09:18:41.8	32.200	0.540	-0.440	0.520
2020/01/31 09:18:41.9	32.280	0.540	-0.430	0.530
2020/01/31 09:18:42.0	32.350	0.550	-0.420	0.550
2020/01/31 09:18:42.1	32.420	0.540	-0.410	0.560
2020/01/31 09:18:42.2	32.490	0.540	-0.390	0.580
2020/01/31 09:18:42.3	32.560	0.540	-0.370	0.590
2020/01/31 09:18:42.4	32.630	0.540	-0.360	0.600
2020/01/31 09:18:42.5	32.710	0.530	-0.340	0.600
2020/01/31 09:18:42.6	32.790	0.530	-0.320	0.600
2020/01/31 09:18:42.7	32.870	0.520	-0.290	0.600
2020/01/31 09:18:42.8	32.950	0.510	-0.270	0.600
2020/01/31 09:18:42.9	33.030	0.500	-0.250	0.590
2020/01/31 09:18:43.0	33.110	0.490	-0.230	0.580
2020/01/31 09:18:43.1	33.200	0.480	-0.210	0.560
2020/01/31 09:18:43.2	33.290	0.460	-0.190	0.550
2020/01/31 09:18:43.3	33.380	0.450	-0.170	0.520
2020/01/31 09:18:43.4	33.470	0.430	-0.150	0.490
2020/01/31 09:18:43.5	33.560	0.420	-0.130	0.460
2020/01/31 09:18:43.6	33.650	0.400	-0.110	0.430
2020/01/31 09:18:43.7	33.740	0.380	-0.090	0.390
2020/01/31 09:18:43.8	33.830	0.360	-0.070	0.350
2020/01/31 09:18:43.9	33.930	0.340	-0.050	0.310
2020/01/31 09:18:44.0	34.020	0.320	-0.030	0.260
2020/01/31 09:18:44.1	34.110	0.290	-0.020	0.220
2020/01/31 09:18:44.2	34.200	0.270	-0.000	0.170
2020/01/31 09:18:44.3	34.290	0.240	0.010	0.110
2020/01/31 09:18:44.4	34.380	0.210	0.020	0.060
2020/01/31 09:18:44.5	34.460	0.180	0.040	0.000
2020/01/31 09:18:44.6	34.550	0.150	0.050	-0.060
2020/01/31 09:18:44.7	34.640	0.120	0.060	-0.120
2020/01/31 09:18:44.8	34.720	0.090	0.070	-0.180
2020/01/31 09:18:44.9	34.800	0.050	0.080	-0.240
2020/01/31 09:18:45.0	34.880	0.020	0.080	-0.310
2020/01/31 09:18:45.1	34.960	-0.020	0.090	-0.370
2020/01/31 09:18:45.2	35.040	-0.050	0.100	-0.430
2020/01/31 09:18:45.3	35.120	-0.090	0.110	-0.500
2020/01/31 09:18:45.4	35.190	-0.130	0.110	-0.560
2020/01/31 09:18:45.5	35.260	-0.160	0.120	-0.630
2020/01/31 09:18:45.6	35.340	-0.200	0.130	-0.690
2020/01/31 09:18:45.7	35.410	-0.240	0.130	-0.750
2020/01/31 09:18:45.8	35.480	-0.280	0.140	-0.810
2020/01/31 09:18:45.9	35.550	-0.320	0.150	-0.860
2020/01/31 09:18:46.0	35.620	-0.350	0.160	-0.920
2020/01/31 09:18:46.1	35.680	-0.390	0.170	-0.970
2020/01/31 09:18:46.2	35.750	-0.430	0.180	-1.020
2020/01/31 09:18:46.3	35.800	-0.460	0.180	-1.070
2020/01/31 09:18:46.4	35.870	-0.490	0.190	-1.110
2020/01/31 09:18:46.5	35.930	-0.520	0.200	-1.150
2020/01/31 09:18:46.6	35.990	-0.550	0.210	-1.190
2020/01/31 09:18:46.7	36.060	-0.580	0.220	-1.220
2020/01/31 09:18:46.8	36.120	-0.610	0.220	-1.250
2020/01/31 09:18:46.9	36.180	-0.630	0.230	-1.280
2020/01/31 09:18:47.0	36.250	-0.650	0.230	-1.310
2020/01/31 09:18:47.1	36.310	-0.670	0.230	-1.330
2020/01/31 09:18:47.2	36.380	-0.680	0.230	-1.350
2020/01/31 09:18:47.3	36.450	-0.690	0.230	-1.370
2020/01/31 09:18:47.4	36.520	-0.690	0.230	-1.380
2020/01/31 09:18:47.5	36.590	-0.700	0.230	-1.400
2020/01/31 09:18:47.6	36.670	-0.700	0.220	-1.410
2020/01/31 09:18:47.7	36.740	-0.690	0.210	-1.410
2020/01/31 09:18:47.8	36.820	-0.680	0.200	-1.420
2020/01/31 09:18:47.9	36.900	-0.670	0.180	-1.420
2020/01/31 09:18:48.0	36.980	-0.650	0.170	-1.420
2020/01/31 09:18:48.1	37.070	-0.630	0.150	-1.420
2020/01/31 09:18:48.2	37.150	-0.600	0.130	-1.410
2020/01/31 09:18:48.3	37.240	-0.570	0.110	-1.410
2020/01/31 09:18:48.4	37.340	-0.540	0.080	-1.400
2020/01/31 09:18:48.5	37.430	-0.500	0.060	-1.380
2020/01/31 09:18:48.6	37.530	-0.460	0.040	-1.370
2020/01/31 09:18:48.7	37.620	-0.420	0.010	-1.350
2020/01/31 09:18:48.8	37.720	-0.380	-0.020	-1.330
2020/01/31 09:18:48.9	37.820	-0.330	-0.040	-1.300
2020/01/31 09:18:49.0	37.910	-0.280	-0.070	-1.270
2020/01/31 09:18:49.1	38.010	-0.230	-0.090	-1.240
2020/01/31 09:18:49.2	38.110	-0.180	-0.120	-1.200
2020/01/31 09:18:49.3	38.210	-0.130	-0.150	-1.160
2020/01/31 09:18:49.4	38.300	-0.080	-0.170	-1.110
2020/01/31 09:18:49.5	38.400	-0.030	-0.200	-1.060
2020/01/31 09:18:49.6	38.490	0.020	-0.220	-1.010
2020/01/31 09:18:49.7	38.580	0.070	-0.240	-0.950
2020/01/31 09:18:49.8	38.670	0.120	-0.260	-0.880
2020/01/31 09:18:49.9	38.760	0.160	-0.270	-0.810
2020/01/31 09:18:50.0	38.840	0.210	-0.290	-0.740
2020/01/31 09:18:50.1	38.920	0.250	-0.310	-0.670
2020/01/31 09:18:50.2	39.000	0.280	-0.320	-0.590
2020/01/31 09:18:50.3	39.090	0.320	-0.330	-0.500
2020/01/31 09:18:50.4	39.170	0.350	-0.340	-0.420
2020/01/31 09:18:50.5	39.240	0.370	-0.350	-0.330
2020/01/31 09:18:50.6	39.310	0.390	-0.360	-0.240
2020/01/31 09:18:50.7	39.380	0.410	-0.360	-0.150
2020/01/31 09:18:50.8	39.450	0.420	-0.370	-0.060
2020/01/31 09:18:50.9	39.520	0.430	-0.380	0.030
2020/01/31 09:18:51.0	39.590	0.430	-0.380	0.120
2020/01/31 09:18:51.1	39.650	0.430	-0.390	0.210
2020/01/31 09:18:51.2	39.710	0.430	-0.390	0.300
2020/01/31 09:18:51.3	39.770	0.420	-0.390	0.390
2020/01/31 09:18:51.4	39.840	0.400	-0.400	0.480
2020/01/31 09:18:51.5	39.900	0.380	-0.400	0.570
2020/01/31 09:18:51.6	39.960	0.360	-0.400	0.650
2020/01/31 09:18:51.7	40.020	0.330	-0.400	0.730
2020/01/31 09:18:51.8	40.080	0.310	-0.400	0.800
2020/01/31 09:18:51.9	40.130	0.270	-0.400	0.870
2020/01/31 09:18:52.0	40.190	0.240	-0.400	0.940
2020/01/31 09:18:52.1	40.240	0.200	-0.400	0.990
2020/01/31 09:18:52.2	40.300	0.160	-0.400	1.050
2020/01/31 09:18:52.3	40.370	0.130	-0.400	1.090
2020/01/31 09:18:52.4	40.420	0.080	-0.400	1.130
2020/01/31 09:18:52.5	40.480	0.040	-0.390	1.160
2020/01/31 09:18:52.6	40.530	0.000	-0.390	1.180
2020/01/31 09:18:52.7	40.590	-0.040	-0.390	1.200
2020/01/31 09:18:52.8	40.650	-0.080	-0.380	1.210
2020/01/31 09:18:52.9	40.710	-0.120	-0.380	1.210
2020/01/31 09:18:53.0	40.770	-0.150	-0.380	1.210
2020/01/31 09:18:53.1	40.830	-0.190	-0.370	1.200
2020/01/31 09:18:53.2	40.900	-0.220	-0.370	1.180
2020/01/31 09:18:53.3	40.980	-0.240	-0.360	1.150
2020/01/31 09:18:53.4	41.050	-0.270	-0.360	1.120
2020/01/31 09:18:53.5	41.120	-0.290	-0.350	1.080
2020/01/31 09:18:53.6	41.190	-0.310	-0.350	1.040
2020/01/31 09:18:53.7	41.260	-0.320	-0.340	0.990
2020/01/31 09:18:53.8	41.330	-0.320	-0.340	0.940
2020/01/31 09:18:53.9	41.410	-0.330	-0.330	0.890
2020/01/31 09:18:54.0	41.480	-0.330	-0.320	0.840
2020/01/31 09:18:54.1	41.560	-0.320	-0.320	0.790
2020/01/31 09:18:54.2	41.630	-0.310	-0.310	0.730
2020/01/31 09:18:54.3	41.710	-0.290	-0.300	0.680
2020/01/31 09:18:54.4	41.810	-0.270	-0.300	0.620
2020/01/31 09:18:54.5	41.890	-0.250	-0.290	0.570
2020/01/31 09:18:54.6	41.970	-0.220	-0.280	0.520
2020/01/31 09:18:54.7	42.050	-0.190	-0.280	0.470
2020/01/31 09:18:54.8	42.120	-0.160	-0.270	0.420
2020/01/31 09:18:54.9	42.200	-0.120	-0.260	0.370
2020/01/31 09:18:55.0	42.280	-0.080	-0.260	0.320
2020/01/31 09:18:55.1	42.360	-0.040	-0.250	0.280
2020/01/31 09:18:55.2	42.440	-0.000	-0.250	0.230
2020/01/31 09:18:55.3	42.510	0.040	-0.240	0.190
2020/01/31 09:18:55.4	42.600	0.080	-0.240	0.150
2020/01/31 09:18:55.5	42.680	0.120	-0.240	0.110
2020/01/31 09:18:55.6	42.760	0.170	-0.230	0.070
2020/01/31 09:18:55.7	42.840	0.210	-0.230	0.030
2020/01/31 09:18:55.8	42.920	0.250	-0.230	-0.010
2020/01/31 09:18:55.9	43.000	0.290	-0.220	-0.040
2020/01/31 09:18:56.0	43.080	0.320	-0.220	-0.080
2020/01/31 09:18:56.1	43.160	0.360	-0.220	-0.110
2020/01/31 09:18:56.2	43.240	0.390	-0.220	-0.150
2020/01/31 09:18:56.3	43.330	0.420	-0.220	-0.180
2020/01/31 09:18:56.4	43.410	0.450	-0.210	-0.210
2020/01/31 09:18:56.5	43.490	0.470	-0.210	-0.240
2020/01/31 09:18:56.6	43.560	0.490	-0.210	-0.270
2020/01/31 09:18:56.7	43.640	0.510	-0.210	-0.290
2020/01/31 09:18:56.8	43.720	0.520	-0.210	-0.320
2020/01/31 09:18:56.9	43.790	0.530	-0.200	-0.340
2020/01/31 09:18:57.0	43.870	0.540	-0.200	-0.360
2020/01/31 09:18:57.1	43.940	0.540	-0.200	-0.370
2020/01/31 09:18:57.2	44.010	0.540	-0.190	-0.390
2020/01/31 09:18:57.3	44.070	0.540	-0.190	-0.400
2020/01/31 09:18:57.4	44.140	0.530	-0.180	-0.410
2020/01/31 09:18:57.5	44.200	0.520	-0.170	-0.430
2020/01/31 09:18:57.6	44.270	0.510	-0.160	-0.440
2020/01/31 09:18:57.7	44.330	0.490	-0.150	-0.450
2020/01/31 09:18:57.8	44.390	0.470	-0.140	-0.450
2020/01/31 09:18:57.9	44.450	0.450	-0.130	-0.460
2020/01/31 09:18:58.0	44.510	0.430	-0.120	-0.470
2020/01/31 09:18:58.1	44.570	0.410	-0.110	-0.480
2020/01/31 09:18:58.2	44.630	0.390	-0.100	-0.490
2020/01/31 09:18:58.3	44.690	0.360	-0.090	-0.500
2020/01/31 09:18:58.4	44.750	0.340	-0.070	-0.510
2020/01/31 09:18:58.5	44.810	0.310	-0.060	-0.520
2020/01/31 09:18:58.6	44.870	0.290	-0.040	-0.530
2020/01/31 09:18:58.7	44.930	0.260	-0.030	-0.540
2020/01/31 09:18:58.8	44.990	0.240	-0.010	-0.550
2020/01/31 09:18:58.9	45.050	0.210	0.000	-0.560
2020/01/31 09:18:59.0	45.110	0.190	0.020	-0.570
2020/01/31 09:18:59.1	45.170	0.170	0.040	-0.580
2020/01/31 09:18:59.2	45.240	0.140	0.050	-0.590
2020/01/31 09:18:59.3	45.290	0.120	0.070	-0.600
2020/01/31 09:18:59.4	45.360	0.100	0.080	-0.610
2020/01/31 09:18:59.5	45.430	0.090	0.100	-0.610
2020/01/31 09:18:59.6	45.500	0.070	0.110	-0.620
2020/01/31 09:18:59.7	45.570	0.050	0.130	-0.630
2020/01/31 09:18:59.8	45.650	0.040	0.150	-0.640
2020/01/31 09:18:59.9	45.720	0.020	0.160	-0.640
2020/01/31 09:19:00.0	45.800	0.010	0.170	-0.650
2020/01/31 09:19:00.1	45.880	-0.000	0.190	-0.650
2020/01/31 09:19:00.2	45.960	-0.010	0.200	-0.650
2020/01/31 09:19:00.3	46.050	-0.030	0.210	-0.650
2020/01/31 09:19:00.4	46.130	-0.040	0.220	-0.650
2020/01/31 09:19:00.5	46.220	-0.050	0.220	-0.650
2020/01/31 09:19:00.6	46.300	-0.060	0.230	-0.640
2020/01/31 09:19:00.7	46.390	-0.070	0.240	-0.630
2020/01/31 09:19:00.8	46.480	-0.080	0.240	-0.630
2020/01/31 09:19:00.9	46.570	-0.090	0.240	-0.610
2020/01/31 09:19:01.0	46.660	-0.100	0.240	-0.600
2020/01/31 09:19:01.1	46.740	-0.110	0.240	-0.580
2020/01/31 09:19:01.2	46.830	-0.130	0.230	-0.570
2020/01/31 09:19:01.3	46.920	-0.140	0.230	-0.550
2020/01/31 09:19:01.4	47.010	-0.150	0.220	-0.520
2020/01/31 09:19:01.5	47.090	-0.170	0.210	-0.500
2020/01/31 09:19:01.6	47.180	-0.180	0.200	-0.470
2020/01/31 09:19:01.7	47.270	-0.200	0.180	-0.440
2020/01/31 09:19:01.8	47.350	-0.210	0.170	-0.410
2020/01/31 09:19:01.9	47.430	-0.230	0.160	-0.380
2020/01/31 09:19:02.0	47.510	-0.250	0.140	-0.350
2020/01/31 09:19:02.1	47.600	-0.260	0.120	-0.310
2020/01/31 09:19:02.2	47.680	-0.280	0.100	-0.280
2020/01/31 09:19:02.3	47.750	-0.300	0.080	-0.250
2020/01/31 09:19:02.4	47.830	-0.320	0.060	-0.210
2020/01/31 09:19:02.5	47.910	-0.340	0.040	-0.180
2020/01/31 09:19:02.6	47.980	-0.360	0.020	-0.140
2020/01/31 09:19:02.7	48.050	-0.380	-0.000	-0.110
2020/01/31 09:19:02.8	48.120	-0.400	-0.030	-0.070
2020/01/31 09:19:02.9	48.190	-0.410	-0.050	-0.040
2020/01/31 09:19:03.0	48.260	-0.430	-0.070	-0.010
2020/01/31 09:19:03.1	48.320	-0.450	-0.090	0.030
2020/01/31 09:19:03.2	48.380	-0.470	-0.110	0.060
2020/01/31 09:19:03.3	48.430	-0.490	-0.130	0.090
2020/01/31 09:19:03.4	48.490	-0.500	-0.140	0.120
2020/01/31 09:19:03.5	48.550	-0.520	-0.160	0.150
2020/01/31 09:19:03.6	48.600	-0.540	-0.180	0.180
2020/01/31 09:19:03.7	48.650	-0.550	-0.190	0.210
2020/01/31 09:19:03.8	48.700	-0.560	-0.200	0.240
2020/01/31 09:19:03.9	48.750	-0.570	-0.220	0.270
2020/01/31 09:19:04.0	48.800	-0.580	-0.230	0.290
2020/01/31 09:19:04.1	48.850	-0.590	-0.240	0.320
2020/01/31 09:19:04.2	48.900	-0.600	-0.250	0.340
2020/01/31 09:19:04.3	48.940	-0.600	-0.260	0.370
2020/01/31 09:19:04.4	48.990	-0.600	-0.270	0.390
2020/01/31 09:19:04.5	49.030	-0.600	-0.290	0.410
2020/01/31 09:19:04.6	49.080	-0.590	-0.300	0.430
2020/01/31 09:19:04.7	49.130	-0.590	-0.310	0.450
2020/01/31 09:19:04.8	49.180	-0.580	-0.320	0.460
2020/01/31 09:19:04.9	49.230	-0.570	-0.330	0.480
2020/01/31 09:19:05.0	49.280	-0.550	-0.340	0.490
2020/01/31 09:19:05.1	49.340	-0.530	-0.360	0.500
2020/01/31 09:19:05.2	49.390	-0.510	-0.370	0.520
2020/01/31 09:19:05.3	49.450	-0.480	-0.380	0.520
2020/01/31 09:19:05.4	49.490	-0.450	-0.400	0.530
2020/01/31 09:19:05.5	49.550	-0.420	-0.420	0.540
2020/01/31 09:19:05.6	49.620	-0.380	-0.430	0.540
2020/01/31 09:19:05.7	49.680	-0.350	-0.450	0.550
2020/01/31 09:19:05.8	49.750	-0.310	-0.460	0.550
2020/01/31 09:19:05.9	49.820	-0.260	-0.480	0.550
2020/01/31 09:19:06.0	49.890	-0.220	-0.490	0.550
2020/01/31 09:19:06.1	49.960	-0.170	-0.510	0.550
2020/01/31 09:19:06.2	50.030	-0.120	-0.530	0.550
2020/01/31 09:19:06.3	50.100	-0.060	-0.540	0.550
2020/01/31 09:19:06.4	50.180	-0.010	-0.560	0.550
2020/01/31 09:19:06.5	50.270	0.040	-0.570	0.540
2020/01/31 09:19:06.6	50.350	0.100	-0.580	0.530
2020/01/31 09:19:06.7	50.440	0.150	-0.600	0.520
2020/01/31 09:19:06.8	50.530	0.210	-0.610	0.510
2020/01/31 09:19:06.9	50.620	0.260	-0.610	0.500
2020/01/31 09:19:07.0	50.710	0.320	-0.620	0.490
2020/01/31 09:19:07.1	50.810	0.370	-0.630	0.480
2020/01/31 09:19:07.2	50.900	0.420	-0.630	0.460
2020/01/31 09:19:07.3	51.000	0.470	-0.630	0.450
2020/01/31 09:19:07.4	51.080	0.510	-0.630	0.440
2020/01/31 09:19:07.5	51.180	0.550	-0.620	0.420
2020/01/31 09:19:07.6	51.280	0.590	-0.610	0.410
2020/01/31 09:19:07.7	51.370	0.630	-0.590	0.390
2020/01/31 09:19:07.8	51.470	0.660	-0.580	0.380
2020/01/31 09:19:07.9	51.560	0.690	-0.560	0.370
2020/01/31 09:19:08.0	51.660	0.710	-0.530	0.360
2020/01/31 09:19:08.1	51.750	0.730	-0.500	0.350
2020/01/31 09:19:08.2	51.840	0.740	-0.470	0.340
2020/01/31 09:19:08.3	51.920	0.750	-0.440	0.340
2020/01/31 09:19:08.4	52.010	0.750	-0.400	0.330
2020/01/31 09:19:08.5	52.090	0.750	-0.350	0.330
2020/01/31 09:19:08.6	52.160	0.740	-0.310	0.320
2020/01/31 09:19:08.7	52.230	0.730	-0.260	0.320
2020/01/31 09:19:08.8	52.300	0.710	-0.210	0.330
2020/01/31 09:19:08.9	52.370	0.690	-0.160	0.330
2020/01/31 09:19:09.0	52.430	0.660	-0.100	0.330
2020/01/31 09:19:09.1	52.490	0.630	-0.050	0.340
2020/01/31 09:19:09.2	52.540	0.600	0.010	0.340
2020/01/31 09:19:09.3	52.590	0.560	0.060	0.350
2020/01/31 09:19:09.4	52.640	0.520	0.120	0.360
2020/01/31 09:19:09.5	52.680	0.470	0.170	0.370
2020/01/31 09:19:09.6	52.720	0.430	0.230	0.370
2020/01/31 09:19:09.7	52.760	0.380	0.280	0.380
2020/01/31 09:19:09.8	52.790	0.330	0.320	0.390
2020/01/31 09:19:09.9	52.830	0.280	0.370	0.390
2020/01/31 09:19:10.0	52.860	0.230	0.410	0.400
2020/01/31 09:19:10.1	52.890	0.170	0.440	0.400
2020/01/31 09:19:10.2	52.920	0.120	0.470	0.400
2020/01/31 09:19:10.3	52.940	0.070	0.490	0.400
2020/01/31 09:19:10.4	52.970	0.020	0.510	0.400
2020/01/31 09:19:10.5	53.000	-0.020	0.520	0.390
2020/01/31 09:19:10.6	53.020	-0.070	0.520	0.380
2020/01/31 09:19:10.7	53.050	-0.110	0.520	0.370
2020/01/31 09:19:10.8	53.080	-0.150	0.510	0.360
2020/01/31 09:19:10.9	53.110	-0.190	0.490	0.340
2020/01/31 09:19:11.0	53.150	-0.220	0.460	0.320
2020/01/31 09:19:11.1	53.180	-0.250	0.430	0.290
2020/01/31 09:19:11.2	53.220	-0.270	0.400	0.260
2020/01/31 09:19:11.3	53.270	-0.290	0.350	0.220
2020/01/31 09:19:11.4	53.330	-0.310	0.300	0.180
2020/01/31 09:19:11.5	53.380	-0.320	0.250	0.140
2020/01/31 09:19:11.6	53.430	-0.330	0.190	0.090
2020/01/31 09:19:11.7	53.490	-0.330	0.130	0.040
2020/01/31 09:19:11.8	53.550	-0.330	0.060	-0.020
2020/01/31 09:19:11.9	53.610	-0.320	-0.000	-0.080
2020/01/31 09:19:12.0	53.680	-0.310	-0.070	-0.140
2020/01/31 09:19:12.1	53.750	-0.300	-0.140	-0.210
2020/01/31 09:19:12.2	53.830	-0.280	-0.210	-0.270
2020/01/31 09:19:12.3	53.910	-0.260	-0.270	-0.340
2020/01/31 09:19:12.4	54.000	-0.230	-0.340	-0.410
2020/01/31 09:19:12.5	54.080	-0.210	-0.400	-0.480
2020/01/31 09:19:12.6	54.170	-0.180	-0.450	-0.550
2020/01/31 09:19:12.7	54.260	-0.150	-0.510	-0.610
2020/01/31 09:19:12.8	54.350	-0.130	-0.550	-0.680
2020/01/31 09:19:12.9	54.450	-0.100	-0.590	-0.740
2020/01/31 09:19:13.0	54.540	-0.070	-0.630	-0.810
2020/01/31 09:19:13.1	54.640	-0.040	-0.660	-0.870
2020/01/31 09:19:13.2	54.740	-0.010	-0.680	-0.920
2020/01/31 09:19:13.3	54.850	0.010	-0.690	-0.970
2020/01/31 09:19:13.4	54.950	0.040	-0.700	-1.020
2020/01/31 09:19:13.5	55.050	0.060	-0.700	-1.070
2020/01/31 09:19:13.6	55.140	0.080	-0.690	-1.110
2020/01/31 09:19:13.7	55.240	0.100	-0.680	-1.150
2020/01/31 09:19:13.8	55.340	0.120	-0.660	-1.190
2020/01/31 09:19:13.9	55.440	0.130	-0.630	-1.220
2020/01/31 09:19:14.0	55.540	0.140	-0.600	-1.240
2020/01/31 09:19:14.1	55.640	0.140	-0.560	-1.260
2020/01/31 09:19:14.2	55.730	0.150	-0.520	-1.280
2020/01/31 09:19:14.3	55.830	0.140	-0.480	-1.290
2020/01/31 09:19:14.4	55.930	0.140	-0.430	-1.300
2020/01/31 09:19:14.5	56.030	0.130	-0.380	-1.300
2020/01/31 09:19:14.6	56.120	0.130	-0.330	-1.290
2020/01/31 09:19:14.7	56.200	0.110	-0.270	-1.280
2020/01/31 09:19:14.8	56.290	0.100	-0.220	-1.270
2020/01/31 09:19:14.9	56.370	0.080	-0.160	-1.250
2020/01/31 09:19:15.0	56.450	0.060	-0.100	-1.230
2020/01/31 09:19:15.1	56.530	0.040	-0.050	-1.200
2020/01/31 09:19:15.2	56.610	0.020	0.000	-1.160
2020/01/31 09:19:15.3	56.680	-0.010	0.050	-1.120
2020/01/31 09:19:15.4	56.760	-0.030	0.090	-1.080
2020/01/31 09:19:15.5	56.830	-0.060	0.140	-1.030
2020/01/31 09:19:15.6	56.900	-0.090	0.180	-0.980
2020/01/31 09:19:15.7	56.960	-0.110	0.210	-0.920
2020/01/31 09:19:15.8	57.020	-0.140	0.250	-0.860
2020/01/31 09:19:15.9	57.080	-0.170	0.270	-0.800
2020/01/31 09:19:16.0	57.130	-0.200	0.300	-0.730
2020/01/31 09:19:16.1	57.190	-0.220	0.310	-0.660
2020/01/31 09:19:16.2	57.240	-0.250	0.330	-0.590
2020/01/31 09:19:16.3	57.300	-0.270	0.330	-0.510
2020/01/31 09:19:16.4	57.340	-0.290	0.340	-0.440
2020/01/31 09:19:16.5	57.390	-0.320	0.340	-0.360
2020/01/31 09:19:16.6	57.440	-0.330	0.330	-0.290
2020/01/31 09:19:16.7	57.480	-0.350	0.320	-0.210
2020/01/31 09:19:16.8	57.530	-0.370	0.310	-0.130
2020/01/31 09:19:16.9	57.570	-0.380	0.290	-0.060
2020/01/31 09:19:17.0	57.620	-0.390	0.270	0.020
2020/01/31 09:19:17.1	57.660	-0.400	0.240	0.090
2020/01/31 09:19:17.2	57.710	-0.400	0.210	0.160
2020/01/31 09:19:17.3	57.750	-0.410	0.180	0.230
2020/01/31 09:19:17.4	57.790	-0.410	0.150	0.300
2020/01/31 09:19:17.5	57.840	-0.410	0.110	0.370
2020/01/31 09:19:17.6	57.890	-0.400	0.080	0.430
2020/01/31 09:19:17.7	57.940	-0.400	0.040	0.490
2020/01/31 09:19:17.8	58.000	-0.390	0.000	0.550
2020/01/31 09:19:17.9	58.050	-0.380	-0.030	0.610
2020/01/31 09:19:18.0	58.110	-0.360	-0.070	0.660
2020/01/31 09:19:18.1	58.160	-0.350	-0.110	0.720
2020/01/31 09:19:18.2	58.220	-0.330	-0.140	0.770
2020/01/31 09:19:18.3	58.280	-0.310	-0.170	0.810
2020/01/31 09:19:18.4	58.350	-0.300	-0.210	0.860
2020/01/31 09:19:18.5	58.410	-0.270	-0.230	0.900
2020/01/31 09:19:18.6	58.470	-0.250	-0.260	0.950
2020/01/31 09:19:18.7	58.530	-0.230	-0.280	0.990
2020/01/31 09:19:18.8	58.600	-0.210	-0.290	1.030
2020/01/31 09:19:18.9	58.660	-0.180	-0.310	1.060
2020/01/31 09:19:19.0	58.730	-0.160	-0.320	1.100
2020/01/31 09:19:19.1	58.800	-0.140	-0.320	1.130
2020/01/31 09:19:19.2	58.860	-0.110	-0.330	1.170
2020/01/31 09:19:19.3	58.930	-0.090	-0.320	1.200
2020/01/31 09:19:19.4	59.000	-0.070	-0.320	1.230
2020/01/31 09:19:19.5	59.070	-0.050	-0.310	1.260
2020/01/31 09:19:19.6	59.140	-0.030	-0.300	1.290
2020/01/31 09:19:19.7	59.210	-0.010	-0.290	1.320
2020/01/31 09:19:19.8	59.280	0.010	-0.270	1.350
2020/01/31 09:19:19.9	59.360	0.030	-0.260	1.370
2020/01/31 09:19:20.0	59.430	0.050	-0.240	1.400
2020/01/31 09:19:20.1	59.500	0.070	-0.220	1.420
2020/01/31 09:19:20.2	59.580	0.080	-0.200	1.430
2020/01/31 09:19:20.3	59.660	0.100	-0.180	1.450
2020/01/31 09:19:20.4	59.740	0.110	-0.170	1.460
2020/01/31 09:19:20.5	59.820	0.120	-0.150	1.470
2020/01/31 09:19:20.6	59.900	0.140	-0.140	1.480
2020/01/31 09:19:20.7	59.990	0.150	-0.130	1.480
2020/01/31 09:19:20.8	60.070	0.160	-0.120	1.480
2020/01/31 09:19:20.9	60.160	0.170	-0.120	1.480
2020/01/31 09:19:21.0	60.240	0.180	-0.110	1.470
2020/01/31 09:19:21.1	60.330	0.180	-0.120	1.460
2020/01/31 09:19:21.2	60.420	0.190	-0.120	1.440
2020/01/31 09:19:21.3	60.510	0.200	-0.130	1.420
2020/01/31 09:19:21.4	60.600	0.200	-0.140	1.400
2020/01/31 09:19:21.5	60.690	0.210	-0.160	1.370
2020/01/31 09:19:21.6	60.780	0.210	-0.180	1.340
2020/01/31 09:19:21.7	60.870	0.220	-0.200	1.310
2020/01/31 09:19:21.8	60.960	0.220	-0.220	1.280
2020/01/31 09:19:21.9	61.050	0.220	-0.250	1.240
2020/01/31 09:19:22.0	61.130	0.230	-0.270	1.200
2020/01/31 09:19:22.1	61.220	0.230	-0.300	1.160
2020/01/31 09:19:22.2	61.300	0.230	-0.330	1.120
2020/01/31 09:19:22.3	61.380	0.230	-0.360	1.080
2020/01/31 09:19:22.4	61.460	0.230	-0.390	1.040
2020/01/31 09:19:22.5	61.530	0.230	-0.420	0.990
2020/01/31 09:19:22.6	61.600	0.230	-0.440	0.950
2020/01/31 09:19:22.7	61.670	0.220	-0.460	0.910
2020/01/31 09:19:22.8	61.730	0.220	-0.480	0.880
2020/01/31 09:19:22.9	61.780	0.210	-0.500	0.840
2020/01/31 09:19:23.0	61.830	0.210	-0.510	0.800
2020/01/31 09:19:23.1	61.880	0.200	-0.520	0.760
2020/01/31 09:19:23.2	61.920	0.190	-0.530	0.730
2020/01/31 09:19:23.3	61.960	0.180	-0.530	0.690
2020/01/31 09:19:23.4	61.990	0.170	-0.520	0.660
2020/01/31 09:19:23.5	62.020	0.160	-0.520	0.620
2020/01/31 09:19:23.6	62.050	0.140	-0.500	0.590
2020/01/31 09:19:23.7	62.080	0.130	-0.480	0.550
2020/01/31 09:19:23.8	62.100	0.110	-0.460	0.510
2020/01/31 09:19:23.9	62.120	0.090	-0.440	0.480
2020/01/31 09:19:24.0	62.140	0.070	-0.410	0.440
2020/01/31 09:19:24.1	62.150	0.050	-0.370	0.400
2020/01/31 09:19:24.2	62.170	0.030	-0.330	0.360
2020/01/31 09:19:24.3	62.180	0.010	-0.290	0.320
2020/01/31 09:19:24.4	62.200	-0.010	-0.250	0.280
2020/01/31 09:19:24.5	62.220	-0.040	-0.210	0.230
2020/01/31 09:19:24.6	62.230	-0.060	-0.160	0.190
2020/01/31 09:19:24.7	62.250	-0.090	-0.120	0.140
2020/01/31 09:19:24.8	62.270	-0.110	-0.070	0.090
2020/01/31 09:19:24.9	62.290	-0.140	-0.020	0.040
2020/01/31 09:19:25.0	62.320	-0.160	0.020	-0.010
2020/01/31 09:19:25.1	62.340	-0.180	0.070	-0.060
2020/01/31 09:19:25.2	62.370	-0.210	0.110	-0.120
2020/01/31 09:19:25.3	62.400	-0.230	0.150	-0.170
2020/01/31 09:19:25.4	62.440	-0.250	0.180	-0.230
2020/01/31 09:19:25.5	62.480	-0.270	0.220	-0.290
2020/01/31 09:19:25.6	62.520	-0.280	0.240	-0.350
2020/01/31 09:19:25.7	62.570	-0.300	0.270	-0.420
2020/01/31 09:19:25.8	62.620	-0.310	0.290	-0.480
2020/01/31 09:19:25.9	62.680	-0.320	0.300	-0.550
2020/01/31 09:19:26.0	62.740	-0.330	0.310	-0.620
2020/01/31 09:19:26.1	62.810	-0.330	0.310	-0.690
2020/01/31 09:19:26.2	62.880	-0.330	0.310	-0.760
2020/01/31 09:19:26.3	62.950	-0.330	0.300	-0.820
2020/01/31 09:19:26.4	63.040	-0.320	0.290	-0.900
2020/01/31 09:19:26.5	63.120	-0.310	0.270	-0.970
2020/01/31 09:19:26.6	63.210	-0.300	0.240	-1.030
2020/01/31 09:19:26.7	63.300	-0.290	0.210	-1.100
2020/01/31 09:19:26.8	63.400	-0.270	0.180	-1.170
2020/01/31 09:19:26.9	63.500	-0.250	0.140	-1.230
2020/01/31 09:19:27.0	63.610	-0.220	0.100	-1.290
2020/01/31 09:19:27.1	63.710	-0.200	0.060	-1.350
2020/01/31 09:19:27.2	63.820	-0.170	0.010	-1.410
2020/01/31 09:19:27.3	63.950	-0.140	-0.050	-1.470
2020/01/31 09:19:27.4	64.060	-0.100	-0.100	-1.520
2020/01/31 09:19:27.5	64.180	-0.070	-0.150	-1.560
2020/01/31 09:19:27.6	64.300	-0.030	-0.210	-1.610
2020/01/31 09:19:27.7	64.420	0.010	-0.260	-1.650
2020/01/31 09:19:27.8	64.540	0.040	-0.310	-1.690
2020/01/31 09:19:27.9	64.660	0.080	-0.370	-1.720
2020/01/31 09:19:28.0	64.780	0.120	-0.420	-1.750
2020/01/31 09:19:28.1	64.900	0.160	-0.470	-1.770
2020/01/31 09:19:28.2	65.010	0.200	-0.510	-1.790
2020/01/31 09:19:28.3	65.130	0.230	-0.560	-1.800
2020/01/31 09:19:28.4	65.240	0.270	-0.600	-1.810
2020/01/31 09:19:28.5	65.350	0.300	-0.630	-1.810
2020/01/31 09:19:28.6	65.470	0.330	-0.660	-1.810
2020/01/31 09:19:28.7	65.580	0.360	-0.690	-1.800
2020/01/31 09:19:28.8	65.680	0.390	-0.700	-1.780
2020/01/31 09:19:28.9	65.790	0.410	-0.720	-1.760
2020/01/31 09:19:29.0	65.890	0.430	-0.730	-1.720
2020/01/31 09:19:29.1	65.980	0.450	-0.730	-1.680
2020/01/31 09:19:29.2	66.070	0.460	-0.730	-1.640
2020/01/31 09:19:29.3	66.160	0.470	-0.720	-1.580
2020/01/31 09:19:29.4	66.240	0.470	-0.700	-1.510
2020/01/31 09:19:29.5	66.310	0.470	-0.670	-1.440
2020/01/31 09:19:29.6	66.380	0.470	-0.650	-1.360
2020/01/31 09:19:29.7	66.440	0.460	-0.610	-1.270
2020/01/31 09:19:29.8	66.500	0.440	-0.560	-1.180
2020/01/31 09:19:29.9	66.550	0.430	-0.520	-1.080
2020/01/31 09:19:30.0	66.600	0.400	-0.460	-0.970
2020/01/31 09:19:30.1	66.640	0.370	-0.400	-0.860
2020/01/31 09:19:30.2	66.670	0.340	-0.330	-0.740
2020/01/31 09:19:30.3	66.710	0.310	-0.270	-0.610
2020/01/31 09:19:30.4	66.730	0.270	-0.190	-0.480
2020/01/31 09:19:30.5	66.750	0.220	-0.110	-0.350
2020/01/31 09:19:30.6	66.770	0.180	-0.030	-0.220
2020/01/31 09:19:30.7	66.780	0.130	0.050	-0.080
2020/01/31 09:19:30.8	66.790	0.070	0.130	0.060
2020/01/31 09:19:30.9	66.800	0.020	0.210	0.200
2020/01/31 09:19:31.0	66.800	-0.040	0.290	0.340
2020/01/31 09:19:31.1	66.800	-0.090	0.370	0.470
2020/01/31 09:19:31.2	66.800	-0.150	0.450	0.610
2020/01/31 09:19:31.3	66.800	-0.210	0.520	0.740
2020/01/31 09:19:31.4	66.800	-0.260	0.590	0.870
2020/01/31 09:19:31.5	66.800	-0.320	0.660	0.990
2020/01/31 09:19:31.6	66.800	-0.370	0.720	1.110
2020/01/31 09:19:31.7	66.800	-0.420	0.770	1.220
2020/01/31 09:19:31.8	66.800	-0.470	0.810	1.330
2020/01/31 09:19:31.9	66.810	-0.510	0.850	1.430
2020/01/31 09:19:32.0	66.820	-0.550	0.870	1.520
2020/01/31 09:19:32.1	66.830	-0.580	0.890	1.600
2020/01/31 09:19:32.2	66.840	-0.620	0.900	1.670
2020/01/31 09:19:32.3	66.860	-0.640	0.900	1.730
2020/01/31 09:19:32.4	66.880	-0.660	0.880	1.780
2020/01/31 09:19:32.5	66.910	-0.680	0.860	1.820
2020/01/31 09:19:32.6	66.940	-0.680	0.820	1.860
2020/01/31 09:19:32.7	66.970	-0.690	0.780	1.880
2020/01/31 09:19:32.8	67.010	-0.680	0.730	1.890
2020/01/31 09:19:32.9	67.060	-0.670	0.670	1.890
2020/01/31 09:19:33.0	67.110	-0.660	0.600	1.880
2020/01/31 09:19:33.1	67.160	-0.640	0.530	1.870
2020/01/31 09:19:33.2	67.220	-0.620	0.450	1.840
2020/01/31 09:19:33.3	67.290	-0.590	0.360	1.810
2020/01/31 09:19:33.4	67.360	-0.550	0.270	1.760
2020/01/31 09:19:33.5	67.430	-0.510	0.180	1.710
2020/01/31 09:19:33.6	67.510	-0.470	0.080	1.650
2020/01/31 09:19:33.7	67.600	-0.430	-0.020	1.590
2020/01/31 09:19:33.8	67.690	-0.380	-0.120	1.520
2020/01/31 09:19:33.9	67.780	-0.330	-0.210	1.450
2020/01/31 09:19:34.0	67.880	-0.280	-0.310	1.370
2020/01/31 09:19:34.1	67.970	-0.230	-0.400	1.290
2020/01/31 09:19:34.2	68.070	-0.180	-0.490	1.210
2020/01/31 09:19:34.3	68.170	-0.130	-0.570	1.120
2020/01/31 09:19:34.4	68.280	-0.080	-0.640	1.030
2020/01/31 09:19:34.5	68.380	-0.030	-0.720	0.950
2020/01/31 09:19:34.6	68.490	0.020	-0.780	0.860
2020/01/31 09:19:34.7	68.590	0.060	-0.830	0.770
2020/01/31 09:19:34.8	68.700	0.110	-0.880	0.680
2020/01/31 09:19:34.9	68.800	0.150	-0.920	0.600
2020/01/31 09:19:35.0	68.910	0.180	-0.950	0.510
2020/01/31 09:19:35.1	69.010	0.220	-0.980	0.430
2020/01/31 09:19:35.2	69.110	0.250	-1.000	0.350
2020/01/31 09:19:35.3	69.210	0.280	-1.000	0.270
2020/01/31 09:19:35.4	69.300	0.300	-1.010	0.200
2020/01/31 09:19:35.5	69.400	0.320	-1.000	0.130
2020/01/31 09:19:35.6	69.490	0.330	-0.990	0.060
2020/01/31 09:19:35.7	69.580	0.350	-0.970	0.000
2020/01/31 09:19:35.8	69.670	0.350	-0.940	-0.060
2020/01/31 09:19:35.9	69.760	0.360	-0.910	-0.110
2020/01/31 09:19:36.0	69.840	0.360	-0.870	-0.160
2020/01/31 09:19:36.1	69.920	0.360	-0.830	-0.200
2020/01/31 09:19:36.2	69.990	0.350	-0.790	-0.240
2020/01/31 09:19:36.3	70.060	0.340	-0.750	-0.280
2020/01/31 09:19:36.4	70.130	0.330	-0.700	-0.300
2020/01/31 09:19:36.5	70.190	0.310	-0.650	-0.330
2020/01/31 09:19:36.6	70.250	0.300	-0.600	-0.350
2020/01/31 09:19:36.7	70.310	0.280	-0.550	-0.360
2020/01/31 09:19:36.8	70.370	0.260	-0.500	-0.380
2020/01/31 09:19:36.9	70.420	0.240	-0.450	-0.380
2020/01/31 09:19:37.0	70.480	0.220	-0.400	-0.390
2020/01/31 09:19:37.1	70.530	0.200	-0.360	-0.390
2020/01/31 09:19:37.2	70.570	0.180	-0.320	-0.380
2020/01/31 09:19:37.3	70.620	0.160	-0.270	-0.380
2020/01/31 09:19:37.4	70.660	0.140	-0.230	-0.370
2020/01/31 09:19:37.5	70.700	0.120	-0.200	-0.360
2020/01/31 09:19:37.6	70.740	0.100	-0.160	-0.340
2020/01/31 09:19:37.7	70.780	0.080	-0.130	-0.320
2020/01/31 09:19:37.8	70.820	0.060	-0.100	-0.300
2020/01/31 09:19:37.9	70.850	0.050	-0.080	-0.280
2020/01/31 09:19:38.0	70.880	0.030	-0.060	-0.260
2020/01/31 09:19:38.1	70.920	0.020	-0.040	-0.230
2020/01/31 09:19:38.2	70.950	0.010	-0.020	-0.210
2020/01/31 09:19:38.3	70.970	0.000	-0.010	-0.180
2020/01/31 09:19:38.4	71.000	-0.000	0.000	-0.150
2020/01/31 09:19:38.5	71.020	-0.010	0.010	-0.120
2020/01/31 09:19:38.6	71.050	-0.010	0.020	-0.090
2020/01/31 09:19:38.7	71.080	-0.010	0.020	-0.060
2020/01/31 09:19:38.8	71.110	-0.010	0.030	-0.030
2020/01/31 09:19:38.9	71.140	-0.010	0.030	-0.000
2020/01/31 09:19:39.0	71.170	-0.010	0.030	0.020
2020/01/31 09:19:39.1	71.190	-0.010	0.030	0.050
2020/01/31 09:19:39.2	71.220	-0.000	0.030	0.080
2020/01/31 09:19:39.3	71.250	0.000	0.020	0.100
2020/01/31 09:19:39.4	71.280	0.010	0.020	0.120
2020/01/31 09:19:39.5	71.320	0.020	0.010	0.140
2020/01/31 09:19:39.6	71.350	0.020	0.000	0.160
2020/01/31 09:19:39.7	71.390	0.030	-0.000	0.180
2020/01/31 09:19:39.8	71.430	0.040	-0.010	0.200
2020/01/31 09:19:39.9	71.470	0.050	-0.020	0.210
2020/01/31 09:19:40.0	71.510	0.060	-0.030	0.220
2020/01/31 09:19:40.1	71.560	0.060	-0.040	0.220
2020/01/31 09:19:40.2	71.610	0.070	-0.050	0.230
2020/01/31 09:19:40.3	71.660	0.080	-0.070	0.230
2020/01/31 09:19:40.4	71.720	0.090	-0.080	0.230
2020/01/31 09:19:40.5	71.780	0.090	-0.090	0.230
2020/01/31 09:19:40.6	71.840	0.100	-0.100	0.220
2020/01/31 09:19:40.7	71.900	0.100	-0.110	0.210
2020/01/31 09:19:40.8	71.970	0.110	-0.120	0.210
2020/01/31 09:19:40.9	72.040	0.110	-0.130	0.190
2020/01/31 09:19:41.0	72.110	0.110	-0.140	0.180
2020/01/31 09:19:41.1	72.190	0.110	-0.150	0.160
2020/01/31 09:19:41.2	72.270	0.120	-0.160	0.150
2020/01/31 09:19:41.3	72.350	0.120	-0.170	0.130
2020/01/31 09:19:41.4	72.430	0.120	-0.180	0.110
2020/01/31 09:19:41.5	72.520	0.110	-0.180	0.080
2020/01/31 09:19:41.6	72.610	0.110	-0.190	0.060
2020/01/31 09:19:41.7	72.700	0.110	-0.190	0.030
2020/01/31 09:19:41.8	72.790	0.110	-0.190	0.010
2020/01/31 09:19:41.9	72.880	0.100	-0.190	-0.020
2020/01/31 09:19:42.0	72.980	0.100	-0.180	-0.040
2020/01/31 09:19:42.1	73.070	0.090	-0.180	-0.070
2020/01/31 09:19:42.2	73.170	0.080	-0.170	-0.090
2020/01/31 09:19:42.3	73.260	0.070	-0.160	-0.120
2020/01/31 09:19:42.4	73.350	0.070	-0.150	-0.140
2020/01/31 09:19:42.5	73.440	0.060	-0.140	-0.160
2020/01/31 09:19:42.6	73.530	0.050	-0.120	-0.180
2020/01/31 09:19:42.7	73.620	0.040	-0.100	-0.190
2020/01/31 09:19:42.8	73.710	0.020	-0.080	-0.210
2020/01/31 09:19:42.9	73.800	0.010	-0.060	-0.220
2020/01/31 09:19:43.0	73.880	-0.000	-0.040	-0.230
2020/01/31 09:19:43.1	73.960	-0.010	-0.020	-0.230
2020/01/31 09:19:43.2	74.040	-0.030	0.000	-0.230
2020/01/31 09:19:43.3	74.120	-0.040	0.020	-0.230
2020/01/31 09:19:43.4	74.200	-0.060	0.040	-0.220
2020/01/31 09:19:43.5	74.270	-0.070	0.070	-0.210
2020/01/31 09:19:43.6	74.340	-0.090	0.090	-0.200
2020/01/31 09:19:43.7	74.400	-0.100	0.120	-0.190
2020/01/31 09:19:43.8	74.470	-0.120	0.140	-0.170
2020/01/31 09:19:43.9	74.530	-0.140	0.170	-0.150
2020/01/31 09:19:44.0	74.580	-0.150	0.190	-0.120
2020/01/31 09:19:44.1	74.640	-0.170	0.210	-0.090
2020/01/31 09:19:44.2	74.690	-0.180	0.240	-0.060
2020/01/31 09:19:44.3	74.750	-0.200	0.260	-0.030
2020/01/31 09:19:44.4	74.800	-0.220	0.280	0.000
2020/01/31 09:19:44.5	74.850	-0.230	0.300	0.040
2020/01/31 09:19:44.6	74.890	-0.240	0.320	0.080
2020/01/31 09:19:44.7	74.940	-0.260	0.330	0.120
2020/01/31 09:19:44.8	74.990	-0.270	0.350	0.160
2020/01/31 09:19:44.9	75.030	-0.280	0.360	0.200
2020/01/31 09:19:45.0	75.070	-0.290	0.370	0.250
2020/01/31 09:19:45.1	75.120	-0.300	0.370	0.290
2020/01/31 09:19:45.2	75.160	-0.310	0.370	0.330
2020/01/31 09:19:45.3	75.210	-0.320	0.370	0.370
2020/01/31 09:19:45.4	75.240	-0.320	0.360	0.420
2020/01/31 09:19:45.5	75.290	-0.330	0.350	0.460
2020/01/31 09:19:45.6	75.330	-0.330	0.340	0.500
2020/01/31 09:19:45.7	75.380	-0.330	0.320	0.540
2020/01/31 09:19:45.8	75.430	-0.320	0.290	0.570
2020/01/31 09:19:45.9	75.470	-0.320	0.260	0.600
2020/01/31 09:19:46.0	75.520	-0.310	0.220	0.640
2020/01/31 09:19:46.1	75.570	-0.300	0.180	0.660
2020/01/31 09:19:46.2	75.630	-0.290	0.140	0.690
2020/01/31 09:19:46.3	75.680	-0.280	0.080	0.710
2020/01/31 09:19:46.4	75.740	-0.260	0.030	0.730
2020/01/31 09:19:46.5	75.790	-0.250	-0.030	0.750
2020/01/31 09:19:46.6	75.850	-0.230	-0.090	0.760
2020/01/31 09:19:46.7	75.910	-0.210	-0.160	0.770
2020/01/31 09:19:46.8	75.970	-0.190	-0.230	0.780
2020/01/31 09:19:46.9	76.040	-0.160	-0.300	0.790
2020/01/31 09:19:47.0	76.100	-0.140	-0.360	0.790
2020/01/31 09:19:47.1	76.160	-0.110	-0.430	0.800
2020/01/31 09:19:47.2	76.230	-0.080	-0.500	0.800
2020/01/31 09:19:47.3	76.300	-0.060	-0.570	0.800
2020/01/31 09:19:47.4	76.370	-0.030	-0.630	0.790
2020/01/31 09:19:47.5	76.440	-0.000	-0.700	0.790
2020/01/31 09:19:47.6	76.510	0.030	-0.750	0.780
2020/01/31 09:19:47.7	76.570	0.050	-0.810	0.770
2020/01/31 09:19:47.8	76.640	0.080	-0.860	0.760
2020/01/31 09:19:47.9	76.710	0.110	-0.900	0.750
2020/01/31 09:19:48.0	76.780	0.130	-0.940	0.740
2020/01/31 09:19:48.1	76.840	0.150	-0.970	0.730
2020/01/31 09:19:48.2	76.910	0.180	-1.000	0.720
2020/01/31 09:19:48.3	76.980	0.200	-1.020	0.700
2020/01/31 09:19:48.4	77.050	0.220	-1.030	0.680
2020/01/31 09:19:48.5	77.110	0.230	-1.030	0.670
2020/01/31 09:19:48.6	77.170	0.250	-1.030	0.650
2020/01/31 09:19:48.7	77.240	0.260	-1.020	0.630
2020/01/31 09:19:48.8	77.300	0.270	-1.000	0.620
2020/01/31 09:19:48.9	77.360	0.280	-0.980	0.600
2020/01/31 09:19:49.0	77.420	0.290	-0.950	0.580
2020/01/31 09:19:49.1	77.480	0.290	-0.910	0.570
2020/01/31 09:19:49.2	77.540	0.300	-0.870	0.550
2020/01/31 09:19:49.3	77.590	0.300	-0.820	0.530
2020/01/31 09:19:49.4	77.650	0.300	-0.770	0.520
2020/01/31 09:19:49.5	77.700	0.300	-0.720	0.500
2020/01/31 09:19:49.6	77.760	0.290	-0.660	0.490
2020/01/31 09:19:49.7	77.810	0.290	-0.600	0.470
2020/01/31 09:19:49.8	77.870	0.280	-0.530	0.460
2020/01/31 09:19:49.9	77.920	0.280	-0.470	0.440
2020/01/31 09:19:50.0	77.980	0.270	-0.400	0.430
2020/01/31 09:19:50.1	78.030	0.260	-0.340	0.420
2020/01/31 09:19:50.2	78.090	0.250	-0.270	0.400
2020/01/31 09:19:50.3	78.140	0.240	-0.200	0.390
2020/01/31 09:19:50.4	78.180	0.230	-0.140	0.380
2020/01/31 09:19:50.5	78.240	0.220	-0.080	0.370
2020/01/31 09:19:50.6	78.290	0.200	-0.020	0.360
2020/01/31 09:19:50.7	78.340	0.190	0.040	0.360
2020/01/31 09:19:50.8	78.390	0.180	0.100	0.350
2020/01/31 09:19:50.9	78.440	0.170	0.150	0.350
2020/01/31 09:19:51.0	78.490	0.150	0.200	0.340
2020/01/31 09:19:51.1	78.530	0.140	0.240	0.340
2020/01/31 09:19:51.2	78.580	0.130	0.290	0.340
2020/01/31 09:19:51.3	78.630	0.120	0.320	0.340
2020/01/31 09:19:51.4	78.680	0.110	0.350	0.340
2020/01/31 09:19:51.5	78.730	0.100	0.380	0.340
2020/01/31 09:19:51.6	78.780	0.090	0.400	0.340
2020/01/31 09:19:51.7	78.830	0.080	0.420	0.340
2020/01/31 09:19:51.8	78.890	0.070	0.440	0.340
2020/01/31 09:19:51.9	78.950	0.070	0.450	0.340
2020/01/31 09:19:52.0	79.000	0.060	0.450	0.340
2020/01/31 09:19:52.1	79.060	0.050	0.450	0.330
2020/01/31 09:19:52.2	79.130	0.050	0.440	0.320
2020/01/31 09:19:52.3	79.190	0.050	0.430	0.320
2020/01/31 09:19:52.4	79.260	0.040	0.420	0.310
2020/01/31 09:19:52.5	79.330	0.040	0.400	0.290
2020/01/31 09:19:52.6	79.410	0.040	0.380	0.280
2020/01/31 09:19:52.7	79.480	0.040	0.350	0.260
2020/01/31 09:19:52.8	79.560	0.030	0.330	0.240
2020/01/31 09:19:52.9	79.630	0.030	0.300	0.220
2020/01/31 09:19:53.0	79.710	0.030	0.270	0.200
2020/01/31 09:19:53.1	79.800	0.030	0.230	0.180
2020/01/31 09:19:53.2	79.880	0.020	0.200	0.150
2020/01/31 09:19:53.3	79.960	0.020	0.160	0.120
2020/01/31 09:19:53.4	80.050	0.020	0.130	0.090
2020/01/31 09:19:53.5	80.140	0.010	0.100	0.060
2020/01/31 09:19:53.6	80.220	0.010	0.060	0.030
2020/01/31 09:19:53.7	80.310	0.000	0.030	-0.000
2020/01/31 09:19:53.8	80.390	-0.010	-0.000	-0.030
2020/01/31 09:19:53.9	80.480	-0.020	-0.030	-0.060
2020/01/31 09:19:54.0	80.560	-0.030	-0.060	-0.100
2020/01/31 09:19:54.1	80.650	-0.040	-0.090	-0.130
2020/01/31 09:19:54.2	80.730	-0.050	-0.110	-0.160
2020/01/31 09:19:54.3	80.810	-0.070	-0.140	-0.180
2020/01/31 09:19:54.4	80.890	-0.080	-0.160	-0.210
2020/01/31 09:19:54.5	80.970	-0.100	-0.180	-0.240
2020/01/31 09:19:54.6	81.050	-0.110	-0.190	-0.260
2020/01/31 09:19:54.7	81.130	-0.130	-0.200	-0.290
2020/01/31 09:19:54.8	81.210	-0.150	-0.210	-0.310
2020/01/31 09:19:54.9	81.280	-0.170	-0.220	-0.320
2020/01/31 09:19:55.0	81.360	-0.190	-0.230	-0.340
2020/01/31 09:19:55.1	81.430	-0.210	-0.230	-0.350
2020/01/31 09:19:55.2	81.500	-0.230	-0.230	-0.360
2020/01/31 09:19:55.3	81.560	-0.250	-0.230	-0.360
2020/01/31 09:19:55.4	81.630	-0.270	-0.230	-0.360
2020/01/31 09:19:55.5	81.700	-0.290	-0.230	-0.360
2020/01/31 09:19:55.6	81.760	-0.310	-0.220	-0.350
2020/01/31 09:19:55.7	81.830	-0.320	-0.210	-0.340
2020/01/31 09:19:55.8	81.890	-0.340	-0.210	-0.330
2020/01/31 09:19:55.9	81.950	-0.360	-0.200	-0.310
2020/01/31 09:19:56.0	82.000	-0.370	-0.190	-0.280
2020/01/31 09:19:56.1	82.060	-0.390	-0.180	-0.260
2020/01/31 09:19:56.2	82.110	-0.400	-0.160	-0.230
2020/01/31 09:19:56.3	82.170	-0.410	-0.150	-0.190
2020/01/31 09:19:56.4	82.220	-0.430	-0.140	-0.150
2020/01/31 09:19:56.5	82.270	-0.430	-0.130	-0.110
2020/01/31 09:19:56.6	82.320	-0.440	-0.110	-0.070
2020/01/31 09:19:56.7	82.370	-0.450	-0.100	-0.020
2020/01/31 09:19:56.8	82.410	-0.450	-0.080	0.020
2020/01/31 09:19:56.9	82.460	-0.450	-0.070	0.070
2020/01/31 09:19:57.0	82.500	-0.450	-0.060	0.120
2020/01/31 09:19:57.1	82.540	-0.450	-0.040	0.180
2020/01/31 09:19:57.2	82.580	-0.450	-0.030	0.230
2020/01/31 09:19:57.3	82.620	-0.440	-0.020	0.290
2020/01/31 09:19:57.4	82.670	-0.430	-0.020	0.340
2020/01/31 09:19:57.5	82.710	-0.420	-0.010	0.390
2020/01/31 09:19:57.6	82.760	-0.410	-0.010	0.450
2020/01/31 09:19:57.7	82.800	-0.400	-0.010	0.500
2020/01/31 09:19:57.8	82.840	-0.380	-0.010	0.550
2020/01/31 09:19:57.9	82.880	-0.360	-0.010	0.600
2020/01/31 09:19:58.0	82.930	-0.340	-0.020	0.650
2020/01/31 09:19:58.1	82.970	-0.320	-0.030	0.690
2020/01/31 09:19:58.2	83.020	-0.290	-0.050	0.740
2020/01/31 09:19:58.3	83.080	-0.260	-0.070	0.780
2020/01/31 09:19:58.4	83.120	-0.230	-0.090	0.820
2020/01/31 09:19:58.5	83.170	-0.200	-0.120	0.850
2020/01/31 09:19:58.6	83.220	-0.170	-0.150	0.890
2020/01/31 09:19:58.7	83.270	-0.140	-0.180	0.920
2020/01/31 09:19:58.8	83.320	-0.100	-0.210	0.940
2020/01/31 09:19:58.9	83.370	-0.060	-0.250	0.970
2020/01/31 09:19:59.0	83.430	-0.030	-0.280	0.990
2020/01/31 09:19:59.1	83.480	0.010	-0.320	1.000
2020/01/31 09:19:59.2	83.530	0.050	-0.360	1.020
2020/01/31 09:19:59.3	83.590	0.090	-0.400	1.030
2020/01/31 09:19:59.4	83.660	0.120	-0.440	1.040
2020/01/31 09:19:59.5	83.710	0.160	-0.480	1.040
2020/01/31 09:19:59.6	83.770	0.200	-0.520	1.040
2020/01/31 09:19:59.7	83.820	0.240	-0.550	1.040
2020/01/31 09:19:59.8	83.880	0.270	-0.590	1.030
2020/01/31 09:19:59.9	83.940	0.310	-0.620	1.020
2020/01/31 09:20:00.0	84.000	0.340	-0.650	1.010
2020/01/31 09:20:00.1	84.050	0.370	-0.680	1.000
2020/01/31 09:20:00.2	84.110	0.400	-0.700	0.980
2020/01/31 09:20:00.3	84.180	0.430	-0.720	0.960
2020/01/31 09:20:00.4	84.260	0.460	-0.740	0.930
2020/01/31 09:20:00.5	84.320	0.490	-0.760	0.900
2020/01/31 09:20:00.6	84.390	0.510	-0.770	0.870
2020/01/31 09:20:00.7	84.460	0.530	-0.770	0.840
2020/01/31 09:20:00.8	84.520	0.550	-0.770	0.810
2020/01/31 09:20:00.9	84.590	0.570	-0.770	0.780
2020/01/31 09:20:01.0	84.660	0.580	-0.760	0.740
2020/01/31 09:20:01.1	84.730	0.590	-0.750	0.710
2020/01/31 09:20:01.2	84.800	0.600	-0.730	0.670
2020/01/31 09:20:01.3	84.870	0.610	-0.710	0.630
2020/01/31 09:20:01.4	84.960	0.620	-0.700	0.590
2020/01/31 09:20:01.5	85.030	0.620	-0.670	0.550
2020/01/31 09:20:01.6	85.100	0.620	-0.640	0.520
2020/01/31 09:20:01.7	85.170	0.620	-0.600	0.480
2020/01/31 09:20:01.8	85.240	0.610	-0.560	0.440
2020/01/31 09:20:01.9	85.310	0.600	-0.520	0.410
2020/01/31 09:20:02.0	85.380	0.590	-0.480	0.380
2020/01/31 09:20:02.1	85.450	0.580	-0.430	0.350
2020/01/31 09:20:02.2	85.520	0.570	-0.380	0.320
2020/01/31 09:20:02.3	85.580	0.550	-0.330	0.290
2020/01/31 09:20:02.4	85.650	0.530	-0.270	0.270
2020/01/31 09:20:02.5	85.710	0.500	-0.220	0.250
2020/01/31 09:20:02.6	85.780	0.480	-0.160	0.230
2020/01/31 09:20:02.7	85.840	0.450	-0.110	0.210
2020/01/31 09:20:02.8	85.900	0.420	-0.050	0.190
2020/01/31 09:20:02.9	85.960	0.390	0.010	0.180
2020/01/31 09:20:03.0	86.010	0.360	0.070	0.170
2020/01/31 09:20:03.1	86.070	0.320	0.130	0.150
2020/01/31 09:20:03.2	86.130	0.290	0.190	0.140
2020/01/31 09:20:03.3	86.190	0.250	0.250	0.130
2020/01/31 09:20:03.4	86.240	0.210	0.300	0.120
2020/01/31 09:20:03.5	86.290	0.170	0.360	0.110
2020/01/31 09:20:03.6	86.350	0.130	0.410	0.100
2020/01/31 09:20:03.7	86.410	0.090	0.460	0.090
2020/01/31 09:20:03.8	86.470	0.050	0.500	0.080
2020/01/31 09:20:03.9	86.530	0.010	0.550	0.070
2020/01/31 09:20:04.0	86.590	-0.030	0.580	0.060
2020/01/31 09:20:04.1	86.650	-0.070	0.620	0.040
2020/01/31 09:20:04.2	86.710	-0.110	0.650	0.030
2020/01/31 09:20:04.3	86.780	-0.150	0.670	0.020
2020/01/31 09:20:04.4	86.830	-0.190	0.690	0.000
2020/01/31 09:20:04.5	86.900	-0.220	0.700	-0.010
2020/01/31 09:20:04.6	86.970	-0.250	0.700	-0.020
2020/01/31 09:20:04.7	87.030	-0.280	0.700	-0.040
2020/01/31 09:20:04.8	87.100	-0.310	0.700	-0.050
2020/01/31 09:20:04.9	87.170	-0.340	0.680	-0.060
2020/01/31 09:20:05.0	87.240	-0.360	0.670	-0.070
2020/01/31 09:20:05.1	87.310	-0.380	0.640	-0.080
2020/01/31 09:20:05.2	87.380	-0.400	0.610	-0.090
2020/01/31 09:20:05.3	87.440	-0.420	0.570	-0.110
2020/01/31 09:20:05.4	87.510	-0.430	0.530	-0.110
2020/01/31 09:20:05.5	87.580	-0.440	0.490	-0.120
2020/01/31 09:20:05.6	87.650	-0.450	0.440	-0.120
2020/01/31 09:20:05.7	87.720	-0.450	0.390	-0.120
2020/01/31 09:20:05.8	87.790	-0.460	0.330	-0.120
2020/01/31 09:20:05.9	87.860	-0.460	0.270	-0.120
2020/01/31 09:20:06.0	87.930	-0.450	0.210	-0.120
2020/01/31 09:20:06.1	88.000	-0.450	0.150	-0.110
2020/01/31 09:20:06.2	88.070	-0.450	0.090	-0.110
2020/01/31 09:20:06.3	88.130	-0.440	0.030	-0.100
2020/01/31 09:20:06.4	88.200	-0.430	-0.040	-0.080
2020/01/31 09:20:06.5	88.260	-0.420	-0.090	-0.070
2020/01/31 09:20:06.6	88.330	-0.410	-0.150	-0.060
2020/01/31 09:20:06.7	88.390	-0.400	-0.210	-0.040
2020/01/31 09:20:06.8	88.460	-0.380	-0.260	-0.020
2020/01/31 09:20:06.9	88.520	-0.370	-0.310	-0.010
2020/01/31 09:20:07.0	88.580	-0.360	-0.360	0.020
2020/01/31 09:20:07.1	88.640	-0.350	-0.400	0.040
2020/01/31 09:20:07.2	88.700	-0.330	-0.440	0.060
2020/01/31 09:20:07.3	88.760	-0.320	-0.470	0.090
2020/01/31 09:20:07.4	88.820	-0.310	-0.490	0.120
2020/01/31 09:20:07.5	88.870	-0.300	-0.520	0.150
2020/01/31 09:20:07.6	88.920	-0.290	-0.540	0.180
2020/01/31 09:20:07.7	88.970	-0.280	-0.550	0.210
2020/01/31 09:20:07.8	89.020	-0.270	-0.560	0.240
2020/01/31 09:20:07.9	89.070	-0.260	-0.560	0.270
2020/01/31 09:20:08.0	89.120	-0.260	-0.560	0.300
2020/01/31 09:20:08.1	89.160	-0.250	-0.560	0.330
2020/01/31 09:20:08.2	89.200	-0.240	-0.550	0.370
2020/01/31 09:20:08.3	89.230	-0.240	-0.540	0.400
2020/01/31 09:20:08.4	89.270	-0.240	-0.520	0.430
2020/01/31 09:20:08.5	89.310	-0.230	-0.510	0.460
2020/01/31 09:20:08.6	89.350	-0.230	-0.490	0.490
2020/01/31 09:20:08.7	89.380	-0.230	-0.460	0.510
2020/01/31 09:20:08.8	89.420	-0.230	-0.440	0.540
2020/01/31 09:20:08.9	89.460	-0.230	-0.420	0.560
2020/01/31 09:20:09.0	89.490	-0.220	-0.390	0.580
2020/01/31 09:20:09.1	89.520	-0.220	-0.370	0.600
2020/01/31 09:20:09.2	89.560	-0.220	-0.350	0.620
2020/01/31 09:20:09.3	89.570	-0.210	-0.330	0.630
2020/01/31 09:20:09.4	89.600	-0.210	-0.310	0.640
2020/01/31 09:20:09.5	89.640	-0.200	-0.280	0.650
2020/01/31 09:20:09.6	89.670	-0.200	-0.270	0.660
2020/01/31 09:20:09.7	89.700	-0.190	-0.250	0.670
2020/01/31 09:20:09.8	89.730	-0.180	-0.230	0.670
2020/01/31 09:20:09.9	89.760	-0.170	-0.220	0.680
2020/01/31 09:20:10.0	89.790	-0.160	-0.210	0.680
2020/01/31 09:20:10.1	89.820	-0.150	-0.200	0.670
2020/01/31 09:20:10.2	89.850	-0.130	-0.190	0.670
2020/01/31 09:20:10.3	89.850	-0.120	-0.190	0.660
2020/01/31 09:20:10.4	89.890	-0.100	-0.190	0.650
2020/01/31 09:20:10.5	89.920	-0.080	-0.190	0.640
2020/01/31 09:20:10.6	89.950	-0.060	-0.200	0.630
2020/01/31 09:20:10.7	89.980	-0.040	-0.200	0.610
2020/01/31 09:20:10.8	90.010	-0.020	-0.210	0.590
2020/01/31 09:20:10.9	90.050	0.000	-0.220	0.570
2020/01/31 09:20:11.0	90.080	0.030	-0.230	0.550
2020/01/31 09:20:11.1	90.120	0.060	-0.250	0.520
2020/01/31 09:20:11.2	90.160	0.080	-0.260	0.490
2020/01/31 09:20:11.3	90.190	0.110	-0.280	0.460
2020/01/31 09:20:11.4	90.240	0.140	-0.300	0.430
2020/01/31 09:20:11.5	90.280	0.160	-0.320	0.390
2020/01/31 09:20:11.6	90.320	0.190	-0.340	0.350
2020/01/31 09:20:11.7	90.370	0.220	-0.370	0.310
2020/01/31 09:20:11.8	90.420	0.250	-0.390	0.270
2020/01/31 09:20:11.9	90.470	0.280	-0.410	0.230
2020/01/31 09:20:12.0	90.520	0.310	-0.430	0.180
2020/01/31 09:20:12.1	90.580	0.330	-0.450	0.140
2020/01/31 09:20:12.2	90.630	0.360	-0.470	0.090
2020/01/31 09:20:12.3	90.700	0.380	-0.490	0.050
2020/01/31 09:20:12.4	90.760	0.400	-0.510	-0.000
2020/01/31 09:20:12.5	90.820	0.430	-0.520	-0.050
2020/01/31 09:20:12.6	90.880	0.440	-0.530	-0.100
2020/01/31 09:20:12.7	90.940	0.460	-0.540	-0.150
2020/01/31 09:20:12.8	91.010	0.480	-0.550	-0.200
2020/01/31 09:20:12.9	91.070	0.490	-0.550	-0.250
2020/01/31 09:20:13.0	91.130	0.500	-0.550	-0.300
2020/01/31 09:20:13.1	91.200	0.510	-0.540	-0.350
2020/01/31 09:20:13.2	91.260	0.510	-0.530	-0.390
2020/01/31 09:20:13.3	91.320	0.510	-0.520	-0.440
2020/01/31 09:20:13.4	91.370	0.510	-0.500	-0.480
2020/01/31 09:20:13.5	91.430	0.510	-0.480	-0.520
2020/01/31 09:20:13.6	91.480	0.500	-0.450	-0.560
2020/01/31 09:20:13.7	91.540	0.490	-0.420	-0.590
2020/01/31 09:20:13.8	91.580	0.480	-0.380	-0.630
2020/01/31 09:20:13.9	91.630	0.460	-0.330	-0.660
2020/01/31 09:20:14.0	91.670	0.440	-0.290	-0.680
2020/01/31 09:20:14.1	91.710	0.420	-0.240	-0.710
2020/01/31 09:20:14.2	91.750	0.390	-0.180	-0.730
2020/01/31 09:20:14.3	91.780	0.360	-0.120	-0.740
2020/01/31 09:20:14.4	91.800	0.330	-0.060	-0.750
2020/01/31 09:20:14.5	91.820	0.290	0.010	-0.760
2020/01/31 09:20:14.6	91.840	0.260	0.080	-0.760
2020/01/31 09:20:14.7	91.860	0.220	0.150	-0.760
2020/01/31 09:20:14.8	91.880	0.180	0.220	-0.750
2020/01/31 09:20:14.9	91.890	0.140	0.290	-0.740
2020/01/31 09:20:15.0	91.890	0.090	0.360	-0.730
2020/01/31 09:20:15.1	91.900	0.050	0.430	-0.710
2020/01/31 09:20:15.2	91.900	0.000	0.490	-0.690
2020/01/31 09:20:15.3	91.910	-0.040	0.550	-0.660
2020/01/31 09:20:15.4	91.910	-0.090	0.610	-0.630
2020/01/31 09:20:15.5	91.910	-0.130	0.670	-0.600
2020/01/31 09:20:15.6	91.900	-0.170	0.720	-0.570
2020/01/31 09:20:15.7	91.900	-0.220	0.760	-0.540
2020/01/31 09:20:15.8	91.890	-0.260	0.800	-0.500
2020/01/31 09:20:15.9	91.890	-0.290	0.830	-0.470
2020/01/31 09:20:16.0	91.880	-0.330	0.850	-0.430
2020/01/31 09:20:16.1	91.880	-0.360	0.870	-0.400
2020/01/31 09:20:16.2	91.870	-0.390	0.870	-0.370
2020/01/31 09:20:16.3	91.880	-0.410	0.870	-0.340
2020/01/31 09:20:16.4	91.880	-0.430	0.850	-0.310
2020/01/31 09:20:16.5	91.880	-0.450	0.830	-0.280
2020/01/31 09:20:16.6	91.880	-0.460	0.800	-0.260
2020/01/31 09:20:16.7	91.880	-0.460	0.750	-0.240
2020/01/31 09:20:16.8	91.880	-0.460	0.700	-0.220
2020/01/31 09:20:16.9	91.890	-0.460	0.640	-0.200
2020/01/31 09:20:17.0	91.890	-0.450	0.570	-0.180
2020/01/31 09:20:17.1	91.900	-0.430	0.480	-0.170
2020/01/31 09:20:17.2	91.910	-0.410	0.400	-0.160
2020/01/31 09:20:17.3	91.930	-0.390	0.300	-0.150
2020/01/31 09:20:17.4	91.940	-0.360	0.200	-0.140
2020/01/31 09:20:17.5	91.960	-0.330	0.090	-0.140
2020/01/31 09:20:17.6	91.980	-0.290	-0.020	-0.140
2020/01/31 09:20:17.7	92.000	-0.250	-0.140	-0.140
2020/01/31 09:20:17.8	92.030	-0.200	-0.250	-0.140
2020/01/31 09:20:17.9	92.050	-0.160	-0.370	-0.150
2020/01/31 09:20:18.0	92.080	-0.110	-0.490	-0.150
2020/01/31 09:20:18.1	92.110	-0.060	-0.600	-0.160
2020/01/31 09:20:18.2	92.150	-0.010	-0.720	-0.160
2020/01/31 09:20:18.3	92.180	0.040	-0.830	-0.170
2020/01/31 09:20:18.4	92.210	0.090	-0.930	-0.170
2020/01/31 09:20:18.5	92.240	0.140	-1.030	-0.170
2020/01/31 09:20:18.6	92.280	0.190	-1.120	-0.180
2020/01/31 09:20:18.7	92.310	0.230	-1.200	-0.180
2020/01/31 09:20:18.8	92.350	0.270	-1.270	-0.180
2020/01/31 09:20:18.9	92.380	0.310	-1.330	-0.180
2020/01/31 09:20:19.0	92.410	0.350	-1.380	-0.180
2020/01/31 09:20:19.1	92.440	0.380	-1.420	-0.180
2020/01/31 09:20:19.2	92.470	0.400	-1.450	-0.170
2020/01/31 09:20:19.3	92.490	0.430	-1.460	-0.160
2020/01/31 09:20:19.4	92.520	0.440	-1.460	-0.150
2020/01/31 09:20:19.5	92.540	0.450	-1.450	-0.140
2020/01/31 09:20:19.6	92.570	0.460	-1.430	-0.130
2020/01/31 09:20:19.7	92.590	0.460	-1.400	-0.110
2020/01/31 09:20:19.8	92.610	0.450	-1.350	-0.090
2020/01/31 09:20:19.9	92.630	0.440	-1.300	-0.070
2020/01/31 09:20:20.0	92.640	0.420	-1.230	-0.050
2020/01/31 09:20:20.1	92.660	0.400	-1.160	-0.020
2020/01/31 09:20:20.2	92.670	0.370	-1.080	0.010
2020/01/31 09:20:20.3	92.680	0.340	-0.980	0.040
2020/01/31 09:20:20.4	92.690	0.300	-0.880	0.070
2020/01/31 09:20:20.5	92.690	0.260	-0.780	0.100
2020/01/31 09:20:20.6	92.690	0.210	-0.660	0.140
2020/01/31 09:20:20.7	92.690	0.170	-0.550	0.180
2020/01/31 09:20:20.8	92.690	0.120	-0.420	0.220
2020/01/31 09:20:20.9	92.680	0.060	-0.300	0.260
2020/01/31 09:20:21.0	92.670	0.010	-0.170	0.300
2020/01/31 09:20:21.1	92.660	-0.050	-0.040	0.340
2020/01/31 09:20:21.2	92.640	-0.110	0.080	0.390
2020/01/31 09:20:21.3	92.630	-0.170	0.210	0.430
2020/01/31 09:20:21.4	92.610	-0.220	0.330	0.470
2020/01/31 09:20:21.5	92.580	-0.280	0.450	0.510
2020/01/31 09:20:21.6	92.560	-0.340	0.570	0.550
2020/01/31 09:20:21.7	92.530	-0.390	0.680	0.590
2020/01/31 09:20:21.8	92.500	-0.440	0.790	0.620
2020/01/31 09:20:21.9	92.470	-0.490	0.880	0.660
2020/01/31 09:20:22.0	92.430	-0.530	0.970	0.690
2020/01/31 09:20:22.1	92.400	-0.580	1.050	0.720
2020/01/31 09:20:22.2	92.360	-0.610	1.120	0.740
2020/01/31 09:20:22.3	92.330	-0.650	1.180	0.760
2020/01/31 09:20:22.4	92.300	-0.670	1.230	0.780
2020/01/31 09:20:22.5	92.260	-0.700	1.260	0.800
2020/01/31 09:20:22.6	92.230	-0.720	1.290	0.810
2020/01/31 09:20:22.7	92.190	-0.730	1.300	0.820
2020/01/31 09:20:22.8	92.160	-0.740	1.290	0.830
2020/01/31 09:20:22.9	92.130	-0.740	1.280	0.830
2020/01/31 09:20:23.0	92.100	-0.730	1.250	0.820
2020/01/31 09:20:23.1	92.070	-0.720	1.210	0.820
2020/01/31 09:20:23.2	92.050	-0.710	1.150	0.810
2020/01/31 09:20:23.3	92.050	-0.690	1.090	0.800
2020/01/31 09:20:23.4	92.030	-0.660	1.010	0.780
2020/01/31 09:20:23.5	92.010	-0.630	0.920	0.760
2020/01/31 09:20:23.6	92.000	-0.590	0.820	0.740
2020/01/31 09:20:23.7	91.980	-0.550	0.720	0.710
2020/01/31 09:20:23.8	91.970	-0.500	0.600	0.690
2020/01/31 09:20:23.9	91.960	-0.450	0.480	0.650
2020/01/31 09:20:24.0	91.960	-0.400	0.350	0.620
2020/01/31 09:20:24.1	91.950	-0.350	0.220	0.580
2020/01/31 09:20:24.2	91.950	-0.290	0.080	0.540
2020/01/31 09:20:24.3	91.960	-0.220	-0.060	0.490
2020/01/31 09:20:24.4	91.950	-0.160	-0.200	0.440
2020/01/31 09:20:24.5	91.960	-0.100	-0.340	0.390
2020/01/31 09:20:24.6	91.970	-0.030	-0.480	0.330
2020/01/31 09:20:24.7	91.980	0.040	-0.610	0.280
2020/01/31 09:20:24.8	92.000	0.100	-0.740	0.220
2020/01/31 09:20:24.9	92.020	0.170	-0.870	0.160
2020/01/31 09:20:25.0	92.040	0.230	-0.990	0.090
2020/01/31 09:20:25.1	92.060	0.290	-1.100	0.030
2020/01/31 09:20:25.2	92.080	0.350	-1.200	-0.040
2020/01/31 09:20:25.3	92.110	0.410	-1.290	-0.100
2020/01/31 09:20:25.4	92.130	0.470	-1.370	-0.170
2020/01/31 09:20:25.5	92.160	0.520	-1.440	-0.230
2020/01/31 09:20:25.6	92.190	0.570	-1.500	-0.300
2020/01/31 09:20:25.7	92.210	0.620	-1.540	-0.360
2020/01/31 09:20:25.8	92.240	0.660	-1.580	-0.420
2020/01/31 09:20:25.9	92.260	0.690	-1.600	-0.480
2020/01/31 09:20:26.0	92.290	0.730	-1.610	-0.530
2020/01/31 09:20:26.1	92.310	0.750	-1.600	-0.580
2020/01/31 09:20:26.2	92.330	0.770	-1.580	-0.630
2020/01/31 09:20:26.3	92.360	0.790	-1.560	-0.680
2020/01/31 09:20:26.4	92.370	0.800	-1.510	-0.720
2020/01/31 09:20:26.5	92.390	0.810	-1.460	-0.760
2020/01/31 09:20:26.6	92.400	0.810	-1.400	-0.790
2020/01/31 09:20:26.7	92.410	0.800	-1.320	-0.820
2020/01/31 09:20:26.8	92.410	0.790	-1.240	-0.850
2020/01/31 09:20:26.9	92.420	0.780	-1.150	-0.870
2020/01/31 09:20:27.0	92.420	0.760	-1.050	-0.890
2020/01/31 09:20:27.1	92.420	0.730	-0.940	-0.910
2020/01/31 09:20:27.2	92.410	0.700	-0.830	-0.920
2020/01/31 09:20:27.3	92.410	0.670	-0.720	-0.920
2020/01/31 09:20:27.4	92.400	0.630	-0.600	-0.920
2020/01/31 09:20:27.5	92.400	0.580	-0.480	-0.920
2020/01/31 09:20:27.6	92.390	0.540	-0.350	-0.910
2020/01/31 09:20:27.7	92.370	0.490	-0.230	-0.900
2020/01/31 09:20:27.8	92.360	0.440	-0.100	-0.880
2020/01/31 09:20:27.9	92.340	0.380	0.020	-0.850
2020/01/31 09:20:28.0	92.330	0.320	0.140	-0.830
2020/01/31 09:20:28.1	92.310	0.260	0.260	-0.790
2020/01/31 09:20:28.2	92.290	0.200	0.370	-0.750
2020/01/31 09:20:28.3	92.270	0.140	0.480	-0.710
2020/01/31 09:20:28.4	92.260	0.080	0.580	-0.660
2020/01/31 09:20:28.5	92.230	0.020	0.670	-0.610
2020/01/31 09:20:28.6	92.210	-0.040	0.760	-0.550
2020/01/31 09:20:28.7	92.180	-0.100	0.840	-0.480
2020/01/31 09:20:28.8	92.150	-0.160	0.910	-0.410
2020/01/31 09:20:28.9	92.120	-0.220	0.970	-0.330
2020/01/31 09:20:29.0	92.090	-0.270	1.020	-0.250
2020/01/31 09:20:29.1	92.060	-0.320	1.060	-0.160
2020/01/31 09:20:29.2	92.020	-0.370	1.090	-0.070
2020/01/31 09:20:29.3	92.010	-0.410	1.110	0.020
2020/01/31 09:20:29.4	91.970	-0.450	1.120	0.110
2020/01/31 09:20:29.5	91.940	-0.490	1.120	0.210
2020/01/31 09:20:29.6	91.900	-0.520	1.110	0.310
2020/01/31 09:20:29.7	91.870	-0.540	1.090	0.400
2020/01/31 09:20:29.8	91.830	-0.560	1.060	0.500
2020/01/31 09:20:29.9	91.800	-0.580	1.010	0.600
2020/01/31 09:20:30.0	91.770	-0.590	0.960	0.690
2020/01/31 09:20:30.1	91.740	-0.590	0.900	0.790
2020/01/31 09:20:30.2	91.710	-0.600	0.830	0.870
2020/01/31 09:20:30.3	91.680	-0.590	0.750	0.960
2020/01/31 09:20:30.4	91.650	-0.580	0.670	1.040
2020/01/31 09:20:30.5	91.630	-0.570	0.580	1.120
2020/01/31 09:20:30.6	91.600	-0.550	0.480	1.190
2020/01/31 09:20:30.7	91.580	-0.530	0.380	1.260
2020/01/31 09:20:30.8	91.560	-0.500	0.280	1.320
2020/01/31 09:20:30.9	91.540	-0.470	0.170	1.380
2020/01/31 09:20:31.0	91.520	-0.440	0.070	1.430
2020/01/31 09:20:31.1	91.510	-0.410	-0.040	1.470
2020/01/31 09:20:31.2	91.490	-0.370	-0.150	1.510
2020/01/31 09:20:31.3	91.480	-0.330	-0.260	1.550
2020/01/31 09:20:31.4	91.460	-0.290	-0.370	1.580
2020/01/31 09:20:31.5	91.460	-0.240	-0.480	1.610
2020/01/31 09:20:31.6	91.450	-0.200	-0.580	1.630
2020/01/31 09:20:31.7	91.450	-0.160	-0.680	1.640
2020/01/31 09:20:31.8	91.450	-0.110	-0.770	1.660
2020/01/31 09:20:31.9	91.440	-0.070	-0.860	1.670
2020/01/31 09:20:32.0	91.450	-0.020	-0.940	1.670
2020/01/31 09:20:32.1	91.450	0.020	-1.020	1.670
2020/01/31 09:20:32.2	91.450	0.070	-1.090	1.670
2020/01/31 09:20:32.3	91.450	0.110	-1.150	1.670
2020/01/31 09:20:32.4	91.450	0.150	-1.200	1.660
2020/01/31 09:20:32.5	91.460	0.180	-1.250	1.650
2020/01/31 09:20:32.6	91.470	0.220	-1.280	1.640
2020/01/31 09:20:32.7	91.470	0.250	-1.310	1.630
2020/01/31 09:20:32.8	91.480	0.280	-1.330	1.620
2020/01/31 09:20:32.9	91.490	0.310	-1.330	1.600
2020/01/31 09:20:33.0	91.500	0.340	-1.330	1.590
2020/01/31 09:20:33.1	91.510	0.360	-1.320	1.570
2020/01/31 09:20:33.2	91.520	0.380	-1.290	1.550
2020/01/31 09:20:33.3	91.520	0.390	-1.260	1.540
2020/01/31 09:20:33.4	91.530	0.400	-1.220	1.520
2020/01/31 09:20:33.5	91.540	0.410	-1.170	1.490
2020/01/31 09:20:33.6	91.550	0.420	-1.110	1.470
2020/01/31 09:20:33.7	91.570	0.420	-1.050	1.450
2020/01/31 09:20:33.8	91.580	0.420	-0.970	1.430
2020/01/31 09:20:33.9	91.590	0.410	-0.890	1.400
2020/01/31 09:20:34.0	91.610	0.410	-0.800	1.380
2020/01/31 09:20:34.1	91.620	0.400	-0.710	1.360
2020/01/31 09:20:34.2	91.630	0.380	-0.610	1.330
2020/01/31 09:20:34.3	91.640	0.370	-0.500	1.310
2020/01/31 09:20:34.4	91.650	0.350	-0.400	1.280
2020/01/31 09:20:34.5	91.660	0.330	-0.290	1.250
2020/01/31 09:20:34.6	91.670	0.300	-0.180	1.220
2020/01/31 09:20:34.7	91.670	0.280	-0.070	1.200
2020/01/31 09:20:34.8	91.680	0.250	0.040	1.170
2020/01/31 09:20:34.9	91.680	0.220	0.140	1.140
2020/01/31 09:20:35.0	91.690	0.190	0.250	1.120
2020/01/31 09:20:35.1	91.690	0.160	0.350	1.090
2020/01/31 09:20:35.2	91.690	0.130	0.440	1.060
2020/01/31 09:20:35.3	91.680	0.100	0.530	1.030
2020/01/31 09:20:35.4	91.690	0.070	0.610	1.000
2020/01/31 09:20:35.5	91.690	0.040	0.690	0.970
2020/01/31 09:20:35.6	91.680	0.010	0.750	0.940
2020/01/31 09:20:35.7	91.670	-0.020	0.810	0.910
2020/01/31 09:20:35.8	91.660	-0.050	0.860	0.870
2020/01/31 09:20:35.9	91.640	-0.080	0.900	0.840
2020/01/31 09:20:36.0	91.630	-0.100	0.920	0.800
2020/01/31 09:20:36.1	91.610	-0.120	0.940	0.770
2020/01/31 09:20:36.2	91.590	-0.140	0.950	0.730
2020/01/31 09:20:36.3	91.580	-0.160	0.930	0.690
2020/01/31 09:20:36.4	91.560	-0.170	0.920	0.650
2020/01/31 09:20:36.5	91.540	-0.180	0.890	0.610
2020/01/31 09:20:36.6	91.510	-0.180	0.850	0.570
2020/01/31 09:20:36.7	91.490	-0.180	0.800	0.530
2020/01/31 09:20:36.8	91.460	-0.180	0.740	0.490
2020/01/31 09:20:36.9	91.440	-0.180	0.670	0.450
2020/01/31 09:20:37.0	91.410	-0.170	0.600	0.400
2020/01/31 09:20:37.1	91.380	-0.160	0.510	0.360
2020/01/31 09:20:37.2	91.360	-0.140	0.420	0.320
2020/01/31 09:20:37.3	91.340	-0.120	0.330	0.270
2020/01/31 09:20:37.4	91.320	-0.100	0.220	0.230
2020/01/31 09:20:37.5	91.290	-0.080	0.120	0.180
2020/01/31 09:20:37.6	91.270	-0.050	0.010	0.130
2020/01/31 09:20:37.7	91.250	-0.020	-0.100	0.080
2020/01/31 09:20:37.8	91.230	0.010	-0.210	0.040
2020/01/31 09:20:37.9	91.220	0.040	-0.320	-0.010
2020/01/31 09:20:38.0	91.200	0.070	-0.420	-0.060
2020/01/31 09:20:38.1	91.190	0.100	-0.530	-0.110
2020/01/31 09:20:38.2	91.180	0.130	-0.630	-0.160
2020/01/31 09:20:38.3	91.180	0.160	-0.720	-0.210
2020/01/31 09:20:38.4	91.180	0.190	-0.810	-0.250
2020/01/31 09:20:38.5	91.170	0.220	-0.880	-0.300
2020/01/31 09:20:38.6	91.170	0.240	-0.950	-0.340
2020/01/31 09:20:38.7	91.180	0.270	-1.010	-0.380
2020/01/31 09:20:38.8	91.180	0.290	-1.060	-0.420
2020/01/31 09:20:38.9	91.180	0.300	-1.100	-0.450
2020/01/31 09:20:39.0	91.190	0.320	-1.130	-0.490
2020/01/31 09:20:39.1	91.190	0.330	-1.150	-0.520
2020/01/31 09:20:39.2	91.200	0.330	-1.150	-0.540
2020/01/31 09:20:39.3	91.200	0.340	-1.150	-0.570
2020/01/31 09:20:39.4	91.200	0.330	-1.130	-0.590
2020/01/31 09:20:39.5	91.210	0.330	-1.100	-0.610
2020/01/31 09:20:39.6	91.210	0.320	-1.060	-0.630
2020/01/31 09:20:39.7	91.220	0.300	-1.020	-0.640
2020/01/31 09:20:39.8	91.230	0.290	-0.960	-0.650
2020/01/31 09:20:39.9	91.230	0.260	-0.890	-0.660
2020/01/31 09:20:40.0	91.240	0.240	-0.820	-0.660
2020/01/31 09:20:40.1	91.240	0.210	-0.740	-0.660
2020/01/31 09:20:40.2	91.240	0.180	-0.660	-0.660
2020/01/31 09:20:40.3	91.250	0.150	-0.570	-0.660
2020/01/31 09:20:40.4	91.260	0.110	-0.480	-0.660
2020/01/31 09:20:40.5	91.260	0.070	-0.380	-0.650
2020/01/31 09:20:40.6	91.270	0.040	-0.280	-0.650
2020/01/31 09:20:40.7	91.270	-0.000	-0.180	-0.640
2020/01/31 09:20:40.8	91.270	-0.040	-0.090	-0.630
2020/01/31 09:20:40.9	91.280	-0.080	0.010	-0.620
2020/01/31 09:20:41.0	91.290	-0.120	0.100	-0.610
2020/01/31 09:20:41.1	91.290	-0.160	0.190	-0.600
2020/01/31 09:20:41.2	91.300	-0.190	0.270	-0.590
2020/01/31 09:20:41.3	91.310	-0.230	0.340	-0.570
2020/01/31 09:20:41.4	91.310	-0.260	0.420	-0.560
2020/01/31 09:20:41.5	91.320	-0.290	0.480	-0.550
2020/01/31 09:20:41.6	91.320	-0.310	0.530	-0.530
2020/01/31 09:20:41.7	91.330	-0.340	0.580	-0.520
2020/01/31 09:20:41.8	91.330	-0.360	0.620	-0.500
2020/01/31 09:20:41.9	91.340	-0.370	0.640	-0.490
2020/01/31 09:20:42.0	91.350	-0.380	0.660	-0.470
2020/01/31 09:20:42.1	91.350	-0.390	0.670	-0.450
2020/01/31 09:20:42.2	91.350	-0.390	0.670	-0.430
2020/01/31 09:20:42.3	91.360	-0.390	0.660	-0.410
2020/01/31 09:20:42.4	91.380	-0.380	0.640	-0.400
2020/01/31 09:20:42.5	91.380	-0.370	0.610	-0.370
2020/01/31 09:20:42.6	91.380	-0.360	0.580	-0.350
2020/01/31 09:20:42.7	91.380	-0.340	0.540	-0.320
2020/01/31 09:20:42.8	91.370	-0.320	0.480	-0.290
2020/01/31 09:20:42.9	91.370	-0.290	0.430	-0.260
2020/01/31 09:20:43.0	91.370	-0.270	0.370	-0.230
2020/01/31 09:20:43.1	91.360	-0.240	0.300	-0.190
2020/01/31 09:20:43.2	91.360	-0.210	0.230	-0.150
2020/01/31 09:20:43.3	91.340	-0.170	0.150	-0.100
2020/01/31 09:20:43.4	91.340	-0.140	0.080	-0.060
2020/01/31 09:20:43.5	91.330	-0.100	-0.000	-0.010
2020/01/31 09:20:43.6	91.320	-0.070	-0.080	0.040
2020/01/31 09:20:43.7	91.300	-0.030	-0.160	0.090
2020/01/31 09:20:43.8	91.290	0.000	-0.240	0.140
2020/01/31 09:20:43.9	91.280	0.040	-0.320	0.200
2020/01/31 09:20:44.0	91.270	0.080	-0.390	0.250
2020/01/31 09:20:44.1	91.260	0.110	-0.470	0.310
2020/01/31 09:20:44.2	91.250	0.140	-0.530	0.370
2020/01/31 09:20:44.3	91.230	0.170	-0.600	0.420
2020/01/31 09:20:44.4	91.220	0.200	-0.660	0.480
2020/01/31 09:20:44.5	91.210	0.230	-0.710	0.540
2020/01/31 09:20:44.6	91.200	0.260	-0.760	0.600
2020/01/31 09:20:44.7	91.190	0.280	-0.800	0.660
2020/01/31 09:20:44.8	91.190	0.300	-0.830	0.710
2020/01/31 09:20:44.9	91.180	0.320	-0.860	0.770
2020/01/31 09:20:45.0	91.170	0.330	-0.880	0.820
2020/01/31 09:20:45.1	91.170	0.340	-0.890	0.880
2020/01/31 09:20:45.2	91.170	0.350	-0.900	0.930
2020/01/31 09:20:45.3	91.140	0.360	-0.900	0.980
2020/01/31 09:20:45.4	91.130	0.360	-0.890	1.020
2020/01/31 09:20:45.5	91.130	0.370	-0.880	1.070
2020/01/31 09:20:45.6	91.130	0.370	-0.860	1.110
2020/01/31 09:20:45.7	91.120	0.360	-0.830	1.150
2020/01/31 09:20:45.8	91.120	0.360	-0.800	1.190
2020/01/31 09:20:45.9	91.120	0.350	-0.760	1.220
2020/01/31 09:20:46.0	91.110	0.340	-0.720	1.250
2020/01/31 09:20:46.1	91.110	0.330	-0.670	1.280
2020/01/31 09:20:46.2	91.110	0.310	-0.620	1.310
2020/01/31 09:20:46.3	91.100	0.300	-0.560	1.330
2020/01/31 09:20:46.4	91.090	0.280	-0.500	1.340
2020/01/31 09:20:46.5	91.090	0.260	-0.440	1.360
2020/01/31 09:20:46.6	91.090	0.250	-0.370	1.370
2020/01/31 09:20:46.7	91.080	0.230	-0.300	1.380
2020/01/31 09:20:46.8	91.080	0.210	-0.240	1.390
2020/01/31 09:20:46.9	91.080	0.180	-0.170	1.390
2020/01/31 09:20:47.0	91.080	0.160	-0.100	1.390
2020/01/31 09:20:47.1	91.080	0.140	-0.030	1.390
2020/01/31 09:20:47.2	91.080	0.120	0.040	1.380
2020/01/31 09:20:47.3	91.080	0.100	0.100	1.370
2020/01/31 09:20:47.4	91.080	0.080	0.170	1.360
2020/01/31 09:20:47.5	91.080	0.050	0.220	1.350
2020/01/31 09:20:47.6	91.090	0.030	0.280	1.330
2020/01/31 09:20:47.7	91.090	0.010	0.330	1.320
2020/01/31 09:20:47.8	91.090	-0.010	0.380	1.290
2020/01/31 09:20:47.9	91.100	-0.020	0.420	1.270
2020/01/31 09:20:48.0	91.100	-0.040	0.450	1.250
2020/01/31 09:20:48.1	91.110	-0.060	0.480	1.220
2020/01/31 09:20:48.2	91.120	-0.070	0.510	1.200
2020/01/31 09:20:48.3	91.120	-0.080	0.520	1.170
2020/01/31 09:20:48.4	91.130	-0.100	0.530	1.140
2020/01/31 09:20:48.5	91.140	-0.110	0.540	1.110
2020/01/31 09:20:48.6	91.140	-0.110	0.530	1.070
2020/01/31 09:20:48.7	91.150	-0.120	0.530	1.040
2020/01/31 09:20:48.8	91.160	-0.130	0.510	1.010
2020/01/31 09:20:48.9	91.170	-0.130	0.490	0.970
2020/01/31 09:20:49.0	91.180	-0.130	0.470	0.940
2020/01/31 09:20:49.1	91.190	-0.130	0.440	0.900
2020/01/31 09:20:49.2	91.200	-0.130	0.400	0.860
2020/01/31 09:20:49.3	91.210	-0.130	0.360	0.830
2020/01/31 09:20:49.4	91.230	-0.130	0.310	0.790
2020/01/31 09:20:49.5	91.240	-0.130	0.260	0.750
2020/01/31 09:20:49.6	91.250	-0.120	0.210	0.700
2020/01/31 09:20:49.7	91.260	-0.120	0.160	0.660
2020/01/31 09:20:49.8	91.280	-0.110	0.100	0.620
2020/01/31 09:20:49.9	91.290	-0.110	0.050	0.580
2020/01/31 09:20:50.0	91.300	-0.100	-0.010	0.530
2020/01/31 09:20:50.1	91.310	-0.090	-0.060	0.490
2020/01/31 09:20:50.2	91.320	-0.090	-0.120	0.450
2020/01/31 09:20:50.3	91.340	-0.080	-0.170	0.410
2020/01/31 09:20:50.4	91.350	-0.080	-0.230	0.370
2020/01/31 09:20:50.5	91.350	-0.070	-0.280	0.330
2020/01/31 09:20:50.6	91.360	-0.070	-0.320	0.290
2020/01/31 09:20:50.7	91.370	-0.070	-0.360	0.260
2020/01/31 09:20:50.8	91.370	-0.060	-0.400	0.220
2020/01/31 09:20:50.9	91.380	-0.060	-0.440	0.190
2020/01/31 09:20:51.0	91.380	-0.060	-0.470	0.160
2020/01/31 09:20:51.1	91.380	-0.060	-0.500	0.140
2020/01/31 09:20:51.2	91.370	-0.060	-0.520	0.110
2020/01/31 09:20:51.3	91.370	-0.070	-0.540	0.090
2020/01/31 09:20:51.4	91.370	-0.070	-0.550	0.070
2020/01/31 09:20:51.5	91.360	-0.070	-0.560	0.050
2020/01/31 09:20:51.6	91.350	-0.070	-0.560	0.040
2020/01/31 09:20:51.7	91.340	-0.080	-0.570	0.020
2020/01/31 09:20:51.8	91.330	-0.080	-0.560	0.010
2020/01/31 09:20:51.9	91.310	-0.080	-0.560	0.000
2020/01/31 09:20:52.0	91.300	-0.090	-0.550	-0.010
2020/01/31 09:20:52.1	91.280	-0.090	-0.540	-0.010
2020/01/31 09:20:52.2	91.270	-0.100	-0.530	-0.020
2020/01/31 09:20:52.3	91.250	-0.100	-0.510	-0.030
2020/01/31 09:20:52.4	91.250	-0.100	-0.500	-0.030
2020/01/31 09:20:52.5	91.230	-0.100	-0.480	-0.040
2020/01/31 09:20:52.6	91.210	-0.100	-0.460	-0.040
2020/01/31 09:20:52.7	91.190	-0.100	-0.450	-0.040
2020/01/31 09:20:52.8	91.180	-0.100	-0.430	-0.050
2020/01/31 09:20:52.9	91.160	-0.100	-0.410	-0.050
2020/01/31 09:20:53.0	91.140	-0.100	-0.390	-0.050
2020/01/31 09:20:53.1	91.130	-0.090	-0.380	-0.060
2020/01/31 09:20:53.2	91.120	-0.090	-0.360	-0.060
2020/01/31 09:20:53.3	91.110	-0.080	-0.350	-0.070
2020/01/31 09:20:53.4	91.110	-0.070	-0.330	-0.080
2020/01/31 09:20:53.5	91.100	-0.060	-0.320	-0.090
2020/01/31 09:20:53.6	91.090	-0.050	-0.310	-0.090
2020/01/31 09:20:53.7	91.080	-0.040	-0.310	-0.100
2020/01/31 09:20:53.8	91.080	-0.030	-0.300	-0.110
2020/01/31 09:20:53.9	91.070	-0.010	-0.300	-0.120
2020/01/31 09:20:54.0	91.070	0.000	-0.290	-0.130
2020/01/31 09:20:54.1	91.070	0.020	-0.290	-0.140
2020/01/31 09:20:54.2	91.060	0.040	-0.290	-0.150
2020/01/31 09:20:54.3	91.070	0.050	-0.290	-0.170
2020/01/31 09:20:54.4	91.070	0.070	-0.290	-0.180
2020/01/31 09:20:54.5	91.070	0.090	-0.300	-0.190
2020/01/31 09:20:54.6	91.080	0.110	-0.300	-0.200
2020/01/31 09:20:54.7	91.080	0.130	-0.300	-0.210
2020/01/31 09:20:54.8	91.090	0.150	-0.300	-0.220
2020/01/31 09:20:54.9	91.100	0.160	-0.300	-0.230
2020/01/31 09:20:55.0	91.110	0.180	-0.300	-0.240
2020/01/31 09:20:55.1	91.120	0.200	-0.300	-0.250
2020/01/31 09:20:55.2	91.130	0.210	-0.300	-0.260
2020/01/31 09:20:55.3	91.150	0.220	-0.300	-0.270
2020/01/31 09:20:55.4	91.160	0.240	-0.300	-0.270
2020/01/31 09:20:55.5	91.180	0.250	-0.290	-0.280
2020/01/31 09:20:55.6	91.200	0.260	-0.290	-0.280
2020/01/31 09:20:55.7	91.210	0.260	-0.280	-0.280
2020/01/31 09:20:55.8	91.230	0.270	-0.260	-0.290
2020/01/31 09:20:55.9	91.250	0.270	-0.250	-0.280
2020/01/31 09:20:56.0	91.270	0.270	-0.240	-0.280
2020/01/31 09:20:56.1	91.280	0.270	-0.220	-0.280
2020/01/31 09:20:56.2	91.300	0.270	-0.200	-0.270
2020/01/31 09:20:56.3	91.320	0.270	-0.180	-0.260
2020/01/31 09:20:56.4	91.340	0.260	-0.160	-0.250
2020/01/31 09:20:56.5	91.350	0.250	-0.130	-0.240
2020/01/31 09:20:56.6	91.370	0.240	-0.110	-0.220
2020/01/31 09:20:56.7	91.390	0.230	-0.090	-0.210
2020/01/31 09:20:56.8	91.400	0.220	-0.060	-0.190
2020/01/31 09:20:56.9	91.420	0.210	-0.040	-0.170
2020/01/31 09:20:57.0	91.430	0.190	-0.010	-0.150
2020/01/31 09:20:57.1	91.450	0.180	0.010	-0.130
2020/01/31 09:20:57.2	91.460	0.160	0.040	-0.110
2020/01/31 09:20:57.3	91.470	0.150	0.060	-0.090
2020/01/31 09:20:57.4	91.480	0.130	0.090	-0.070
2020/01/31 09:20:57.5	91.490	0.110	0.110	-0.050
2020/01/31 09:20:57.6	91.500	0.100	0.130	-0.030
2020/01/31 09:20:57.7	91.510	0.080	0.150	-0.010
2020/01/31 09:20:57.8	91.520	0.060	0.170	0.010
2020/01/31 09:20:57.9	91.530	0.050	0.190	0.040
2020/01/31 09:20:58.0	91.540	0.030	0.200	0.060
2020/01/31 09:20:58.1	91.540	0.020	0.220	0.080
2020/01/31 09:20:58.2	91.550	0.000	0.230	0.100
2020/01/31 09:20:58.3	91.540	-0.010	0.240	0.120
2020/01/31 09:20:58.4	91.550	-0.030	0.260	0.150
2020/01/31 09:20:58.5	91.550	-0.040	0.270	0.170
2020/01/31 09:20:58.6	91.560	-0.050	0.270	0.200
2020/01/31 09:20:58.7	91.560	-0.060	0.280	0.220
2020/01/31 09:20:58.8	91.570	-0.070	0.290	0.250
2020/01/31 09:20:58.9	91.570	-0.080	0.290	0.280
2020/01/31 09:20:59.0	91.570	-0.090	0.290	0.310
2020/01/31 09:20:59.1	91.570	-0.100	0.290	0.350
2020/01/31 09:20:59.2	91.580	-0.100	0.290	0.390
2020/01/31 09:20:59.3	91.580	-0.110	0.290	0.420
2020/01/31 09:20:59.4	91.580	-0.120	0.280	0.470
2020/01/31 09:20:59.5	91.580	-0.120	0.270	0.510
2020/01/31 09:20:59.6	91.580	-0.130	0.260	0.550
2020/01/31 09:20:59.7	91.580	-0.130	0.250	0.600
2020/01/31 09:20:59.8	91.580	-0.140	0.240	0.650
2020/01/31 09:20:59.9	91.570	-0.140	0.230	0.700
2020/01/31 09:21:00.0	91.570	-0.150	0.210	0.750
2020/01/31 09:21:00.1	91.570	-0.150	0.190	0.800
2020/01/31 09:21:00.2	91.560	-0.150	0.170	0.850
2020/01/31 09:21:00.3	91.560	-0.150	0.150	0.910
2020/01/31 09:21:00.4	91.550	-0.160	0.130	0.960
2020/01/31 09:21:00.5	91.540	-0.160	0.100	1.020
2020/01/31 09:21:00.6	91.540	-0.160	0.070	1.070
2020/01/31 09:21:00.7	91.530	-0.160	0.050	1.120
2020/01/31 09:21:00.8	91.520	-0.160	0.010	1.180
2020/01/31 09:21:00.9	91.510	-0.160	-0.020	1.230
2020/01/31 09:21:01.0	91.490	-0.160	-0.060	1.280
2020/01/31 09:21:01.1	91.480	-0.160	-0.090	1.320
2020/01/31 09:21:01.2	91.470	-0.160	-0.130	1.370
2020/01/31 09:21:01.3	91.430	-0.160	-0.170	1.410
2020/01/31 09:21:01.4	91.420	-0.160	-0.210	1.450
2020/01/31 09:21:01.5	91.400	-0.160	-0.250	1.480
2020/01/31 09:21:01.6	91.390	-0.150	-0.300	1.520
2020/01/31 09:21:01.7	91.370	-0.150	-0.340	1.550
2020/01/31 09:21:01.8	91.360	-0.150	-0.380	1.570
2020/01/31 09:21:01.9	91.340	-0.150	-0.420	1.590
2020/01/31 09:21:02.0	91.330	-0.140	-0.460	1.610
2020/01/31 09:21:02.1	91.310	-0.140	-0.500	1.620
2020/01/31 09:21:02.2	91.300	-0.130	-0.540	1.630
2020/01/31 09:21:02.3	91.290	-0.130	-0.580	1.640
2020/01/31 09:21:02.4	91.280	-0.120	-0.620	1.640
2020/01/31 09:21:02.5	91.270	-0.110	-0.650	1.640
2020/01/31 09:21:02.6	91.260	-0.110	-0.690	1.630
2020/01/31 09:21:02.7	91.260	-0.100	-0.720	1.620
2020/01/31 09:21:02.8	91.250	-0.090	-0.750	1.600
2020/01/31 09:21:02.9	91.250	-0.080	-0.780	1.590
2020/01/31 09:21:03.0	91.240	-0.070	-0.800	1.570
2020/01/31 09:21:03.1	91.240	-0.060	-0.820	1.540
2020/01/31 09:21:03.2	91.240	-0.040	-0.840	1.520
2020/01/31 09:21:03.3	91.240	-0.030	-0.860	1.490
2020/01/31 09:21:03.4	91.250	-0.020	-0.870	1.460
2020/01/31 09:21:03.5	91.260	-0.000	-0.880	1.430
2020/01/31 09:21:03.6	91.260	0.010	-0.890	1.390
2020/01/31 09:21:03.7	91.270	0.030	-0.890	1.360
2020/01/31 09:21:03.8	91.280	0.040	-0.890	1.320
2020/01/31 09:21:03.9	91.290	0.060	-0.890	1.290
2020/01/31 09:21:04.0	91.310	0.080	-0.880	1.250
2020/01/31 09:21:04.1	91.320	0.090	-0.870	1.210
2020/01/31 09:21:04.2	91.330	0.110	-0.860	1.170
2020/01/31 09:21:04.3	91.350	0.120	-0.840	1.140
2020/01/31 09:21:04.4	91.360	0.140	-0.820	1.100
2020/01/31 09:21:04.5	91.370	0.150	-0.800	1.060
2020/01/31 09:21:04.6	91.390	0.170	-0.770	1.030
2020/01/31 09:21:04.7	91.400	0.180	-0.740	0.990
2020/01/31 09:21:04.8	91.420	0.190	-0.710	0.960
2020/01/31 09:21:04.9	91.430	0.200	-0.670	0.920
2020/01/31 09:21:05.0	91.440	0.210	-0.630	0.880
2020/01/31 09:21:05.1	91.460	0.220	-0.590	0.850
2020/01/31 09:21:05.2	91.470	0.220	-0.540	0.820
2020/01/31 09:21:05.3	91.480	0.230	-0.490	0.780
2020/01/31 09:21:05.4	91.490	0.230	-0.440	0.740
2020/01/31 09:21:05.5	91.510	0.230	-0.390	0.710
2020/01/31 09:21:05.6	91.520	0.220	-0.330	0.670
2020/01/31 09:21:05.7	91.530	0.220	-0.270	0.630
2020/01/31 09:21:05.8	91.550	0.210	-0.210	0.600
2020/01/31 09:21:05.9	91.560	0.200	-0.150	0.560
2020/01/31 09:21:06.0	91.570	0.190	-0.080	0.520
2020/01/31 09:21:06.1	91.590	0.180	-0.020	0.480
2020/01/31 09:21:06.2	91.600	0.160	0.040	0.430
2020/01/31 09:21:06.3	91.620	0.150	0.100	0.390
2020/01/31 09:21:06.4	91.620	0.130	0.160	0.350
2020/01/31 09:21:06.5	91.640	0.110	0.220	0.300
2020/01/31 09:21:06.6	91.660	0.080	0.280	0.260
2020/01/31 09:21:06.7	91.670	0.060	0.330	0.210
2020/01/31 09:21:06.8	91.690	0.040	0.390	0.170
2020/01/31 09:21:06.9	91.710	0.020	0.440	0.120
2020/01/31 09:21:07.0	91.720	-0.010	0.480	0.070
2020/01/31 09:21:07.1	91.740	-0.030	0.530	0.030
2020/01/31 09:21:07.2	91.760	-0.060	0.560	-0.020
2020/01/31 09:21:07.3	91.770	-0.080	0.600	-0.070
2020/01/31 09:21:07.4	91.800	-0.100	0.630	-0.110
2020/01/31 09:21:07.5	91.810	-0.130	0.660	-0.160
2020/01/31 09:21:07.6	91.830	-0.150	0.680	-0.200
2020/01/31 09:21:07.7	91.840	-0.170	0.700	-0.250
2020/01/31 09:21:07.8	91.850	-0.190	0.710	-0.290
2020/01/31 09:21:07.9	91.870	-0.200	0.720	-0.330
2020/01/31 09:21:08.0	91.880	-0.220	0.720	-0.370
2020/01/31 09:21:08.1	91.890	-0.230	0.720	-0.400
2020/01/31 09:21:08.2	91.900	-0.250	0.710	-0.440
2020/01/31 09:21:08.3	91.920	-0.260	0.700	-0.480
2020/01/31 09:21:08.4	91.930	-0.260	0.690	-0.510
2020/01/31 09:21:08.5	91.940	-0.270	0.670	-0.530
2020/01/31 09:21:08.6	91.940	-0.270	0.650	-0.560
2020/01/31 09:21:08.7	91.950	-0.270	0.620	-0.580
2020/01/31 09:21:08.8	91.950	-0.270	0.590	-0.600
2020/01/31 09:21:08.9	91.950	-0.270	0.550	-0.620
2020/01/31 09:21:09.0	91.950	-0.260	0.510	-0.630
2020/01/31 09:21:09.1	91.950	-0.250	0.470	-0.640
2020/01/31 09:21:09.2	91.950	-0.240	0.420	-0.650
2020/01/31 09:21:09.3	91.950	-0.230	0.370	-0.650
2020/01/31 09:21:09.4	91.970	-0.220	0.310	-0.640
2020/01/31 09:21:09.5	91.970	-0.200	0.250	-0.640
2020/01/31 09:21:09.6	91.960	-0.180	0.190	-0.640
2020/01/31 09:21:09.7	91.950	-0.160	0.130	-0.630
2020/01/31 09:21:09.8	91.940	-0.140	0.060	-0.620
2020/01/31 09:21:09.9	91.940	-0.110	-0.010	-0.600
2020/01/31 09:21:10.0	91.920	-0.090	-0.080	-0.580
2020/01/31 09:21:10.1	91.910	-0.060	-0.160	-0.560
2020/01/31 09:21:10.2	91.900	-0.030	-0.230	-0.540
2020/01/31 09:21:10.3	91.880	-0.010	-0.310	-0.520
2020/01/31 09:21:10.4	91.870	0.020	-0.380	-0.490
2020/01/31 09:21:10.5	91.850	0.050	-0.450	-0.460
2020/01/31 09:21:10.6	91.840	0.080	-0.520	-0.430
2020/01/31 09:21:10.7	91.820	0.100	-0.600	-0.390
2020/01/31 09:21:10.8	91.800	0.130	-0.660	-0.360
2020/01/31 09:21:10.9	91.780	0.160	-0.730	-0.320
2020/01/31 09:21:11.0	91.760	0.180	-0.790	-0.280
2020/01/31 09:21:11.1	91.740	0.200	-0.850	-0.240
2020/01/31 09:21:11.2	91.720	0.220	-0.900	-0.200
2020/01/31 09:21:11.3	91.700	0.240	-0.940	-0.170
2020/01/31 09:21:11.4	91.680	0.260	-0.990	-0.130
2020/01/31 09:21:11.5	91.660	0.270	-1.020	-0.090
2020/01/31 09:21:11.6	91.640	0.280	-1.050	-0.050
2020/01/31 09:21:11.7	91.630	0.290	-1.070	-0.020
2020/01/31 09:21:11.8	91.610	0.290	-1.080	0.020
2020/01/31 09:21:11.9	91.590	0.290	-1.090	0.050
2020/01/31 09:21:12.0	91.580	0.290	-1.090	0.090
2020/01/31 09:21:12.1	91.570	0.290	-1.080	0.120
2020/01/31 09:21:12.2	91.560	0.280	-1.060	0.150
2020/01/31 09:21:12.3	91.550	0.270	-1.040	0.180
2020/01/31 09:21:12.4	91.540	0.260	-1.010	0.210
2020/01/31 09:21:12.5	91.540	0.240	-0.970	0.240
2020/01/31 09:21:12.6	91.530	0.220	-0.930	0.270
2020/01/31 09:21:12.7	91.530	0.200	-0.880	0.290
2020/01/31 09:21:12.8	91.540	0.180	-0.830	0.320
2020/01/31 09:21:12.9	91.540	0.150	-0.770	0.340
2020/01/31 09:21:13.0	91.550	0.130	-0.710	0.370
2020/01/31 09:21:13.1	91.550	0.100	-0.640	0.390
2020/01/31 09:21:13.2	91.560	0.070	-0.570	0.420
2020/01/31 09:21:13.3	91.580	0.040	-0.500	0.440
2020/01/31 09:21:13.4	91.610	0.010	-0.430	0.460
2020/01/31 09:21:13.5	91.630	-0.020	-0.350	0.480
2020/01/31 09:21:13.6	91.650	-0.060	-0.280	0.510
2020/01/31 09:21:13.7	91.670	-0.090	-0.200	0.530
2020/01/31 09:21:13.8	91.690	-0.120	-0.130	0.550
2020/01/31 09:21:13.9	91.720	-0.150	-0.060	0.570
2020/01/31 09:21:14.0	91.740	-0.180	0.010	0.600
2020/01/31 09:21:14.1	91.770	-0.200	0.070	0.620
2020/01/31 09:21:14.2	91.800	-0.230	0.130	0.640
2020/01/31 09:21:14.3	91.830	-0.250	0.190	0.660
2020/01/31 09:21:14.4	91.850	-0.270	0.240	0.680
2020/01/31 09:21:14.5	91.880	-0.290	0.280	0.710
2020/01/31 09:21:14.6	91.910	-0.310	0.320	0.730
2020/01/31 09:21:14.7	91.940	-0.320	0.350	0.750
2020/01/31 09:21:14.8	91.970	-0.340	0.380	0.770
2020/01/31 09:21:14.9	92.010	-0.350	0.400	0.790
2020/01/31 09:21:15.0	92.040	-0.350	0.420	0.810
2020/01/31 09:21:15.1	92.070	-0.360	0.420	0.830
2020/01/31 09:21:15.2	92.110	-0.360	0.430	0.840
2020/01/31 09:21:15.3	92.140	-0.360	0.420	0.850
2020/01/31 09:21:15.4	92.180	-0.350	0.410	0.870
2020/01/31 09:21:15.5	92.210	-0.340	0.390	0.890
2020/01/31 09:21:15.6	92.250	-0.340	0.370	0.900
2020/01/31 09:21:15.7	92.280	-0.320	0.350	0.910
2020/01/31 09:21:15.8	92.310	-0.310	0.320	0.930
2020/01/31 09:21:15.9	92.340	-0.290	0.290	0.940
2020/01/31 09:21:16.0	92.370	-0.280	0.260	0.950
2020/01/31 09:21:16.1	92.400	-0.260	0.220	0.970
2020/01/31 09:21:16.2	92.430	-0.240	0.190	0.980
2020/01/31 09:21:16.3	92.460	-0.210	0.150	1.000
2020/01/31 09:21:16.4	92.480	-0.190	0.110	1.020
2020/01/31 09:21:16.5	92.500	-0.170	0.070	1.030
2020/01/31 09:21:16.6	92.510	-0.140	0.040	1.050
2020/01/31 09:21:16.7	92.530	-0.120	-0.000	1.070
2020/01/31 09:21:16.8	92.540	-0.090	-0.040	1.090
2020/01/31 09:21:16.9	92.550	-0.070	-0.070	1.110
2020/01/31 09:21:17.0	92.550	-0.040	-0.100	1.140
2020/01/31 09:21:17.1	92.560	-0.020	-0.130	1.160
2020/01/31 09:21:17.2	92.560	0.000	-0.160	1.190
2020/01/31 09:21:17.3	92.560	0.030	-0.180	1.210
2020/01/31 09:21:17.4	92.550	0.050	-0.200	1.240
2020/01/31 09:21:17.5	92.540	0.070	-0.220	1.270
2020/01/31 09:21:17.6	92.530	0.090	-0.240	1.290
2020/01/31 09:21:17.7	92.520	0.110	-0.250	1.320
2020/01/31 09:21:17.8	92.510	0.130	-0.260	1.340
2020/01/31 09:21:17.9	92.500	0.150	-0.280	1.370
2020/01/31 09:21:18.0	92.480	0.170	-0.280	1.390
2020/01/31 09:21:18.1	92.470	0.190	-0.290	1.410
2020/01/31 09:21:18.2	92.450	0.200	-0.300	1.430
2020/01/31 09:21:18.3	92.440	0.220	-0.310	1.450
2020/01/31 09:21:18.4	92.420	0.230	-0.310	1.460
2020/01/31 09:21:18.5	92.410	0.240	-0.320	1.470
2020/01/31 09:21:18.6	92.390	0.250	-0.330	1.480
2020/01/31 09:21:18.7	92.380	0.270	-0.330	1.490
2020/01/31 09:21:18.8	92.370	0.280	-0.340	1.490
2020/01/31 09:21:18.9	92.350	0.290	-0.350	1.480
2020/01/31 09:21:19.0	92.340	0.300	-0.360	1.480
2020/01/31 09:21:19.1	92.330	0.300	-0.370	1.470
2020/01/31 09:21:19.2	92.320	0.310	-0.380	1.450
2020/01/31 09:21:19.3	92.320	0.320	-0.390	1.430
2020/01/31 09:21:19.4	92.320	0.330	-0.400	1.410
2020/01/31 09:21:19.5	92.310	0.330	-0.410	1.380
2020/01/31 09:21:19.6	92.300	0.340	-0.410	1.360
2020/01/31 09:21:19.7	92.300	0.340	-0.420	1.330
2020/01/31 09:21:19.8	92.290	0.350	-0.430	1.290
2020/01/31 09:21:19.9	92.290	0.350	-0.430	1.260
2020/01/31 09:21:20.0	92.290	0.350	-0.430	1.220
2020/01/31 09:21:20.1	92.280	0.350	-0.430	1.180
2020/01/31 09:21:20.2	92.280	0.350	-0.430	1.140
2020/01/31 09:21:20.3	92.270	0.350	-0.420	1.100
2020/01/31 09:21:20.4	92.260	0.350	-0.420	1.060
2020/01/31 09:21:20.5	92.260	0.340	-0.410	1.020
2020/01/31 09:21:20.6	92.250	0.340	-0.390	0.980
2020/01/31 09:21:20.7	92.240	0.330	-0.370	0.940
2020/01/31 09:21:20.8	92.230	0.320	-0.350	0.900
2020/01/31 09:21:20.9	92.230	0.310	-0.320	0.860
2020/01/31 09:21:21.0	92.220	0.300	-0.290	0.820
2020/01/31 09:21:21.1	92.210	0.290	-0.260	0.780
2020/01/31 09:21:21.2	92.200	0.270	-0.230	0.740
2020/01/31 09:21:21.3	92.200	0.250	-0.190	0.700
2020/01/31 09:21:21.4	92.190	0.240	-0.150	0.660
2020/01/31 09:21:21.5	92.180	0.220	-0.110	0.620
2020/01/31 09:21:21.6	92.170	0.200	-0.070	0.580
2020/01/31 09:21:21.7	92.160	0.170	-0.030	0.540
2020/01/31 09:21:21.8	92.160	0.150	0.020	0.500
2020/01/31 09:21:21.9	92.150	0.120	0.060	0.450
2020/01/31 09:21:22.0	92.150	0.100	0.100	0.410
2020/01/31 09:21:22.1	92.140	0.070	0.140	0.370
2020/01/31 09:21:22.2	92.140	0.040	0.170	0.330
2020/01/31 09:21:22.3	92.130	0.020	0.200	0.280
2020/01/31 09:21:22.4	92.130	-0.010	0.230	0.240
2020/01/31 09:21:22.5	92.130	-0.040	0.260	0.200
2020/01/31 09:21:22.6	92.140	-0.070	0.280	0.150
2020/01/31 09:21:22.7	92.140	-0.100	0.300	0.110
2020/01/31 09:21:22.8	92.150	-0.130	0.320	0.070
2020/01/31 09:21:22.9	92.150	-0.150	0.330	0.020
2020/01/31 09:21:23.0	92.160	-0.180	0.330	-0.020
2020/01/31 09:21:23.1	92.170	-0.210	0.330	-0.060
2020/01/31 09:21:23.2	92.170	-0.230	0.330	-0.100
2020/01/31 09:21:23.3	92.190	-0.260	0.320	-0.140
2020/01/31 09:21:23.4	92.200	-0.280	0.310	-0.180
2020/01/31 09:21:23.5	92.200	-0.300	0.290	-0.220
2020/01/31 09:21:23.6	92.220	-0.330	0.270	-0.250
2020/01/31 09:21:23.7	92.230	-0.350	0.240	-0.280
2020/01/31 09:21:23.8	92.240	-0.360	0.220	-0.310
2020/01/31 09:21:23.9	92.250	-0.380	0.190	-0.340
2020/01/31 09:21:24.0	92.260	-0.390	0.160	-0.360
2020/01/31 09:21:24.1	92.270	-0.410	0.120	-0.380
2020/01/31 09:21:24.2	92.280	-0.420	0.080	-0.400
2020/01/31 09:21:24.3	92.290	-0.430	0.050	-0.410
2020/01/31 09:21:24.4	92.300	-0.430	0.010	-0.420
2020/01/31 09:21:24.5	92.310	-0.440	-0.030	-0.430
2020/01/31 09:21:24.6	92.310	-0.440	-0.070	-0.440
2020/01/31 09:21:24.7	92.310	-0.440	-0.110	-0.440
2020/01/31 09:21:24.8	92.320	-0.440	-0.150	-0.440
2020/01/31 09:21:24.9	92.320	-0.440	-0.190	-0.430
2020/01/31 09:21:25.0	92.320	-0.430	-0.230	-0.430
2020/01/31 09:21:25.1	92.320	-0.430	-0.270	-0.420
2020/01/31 09:21:25.2	92.310	-0.420	-0.310	-0.400
2020/01/31 09:21:25.3	92.310	-0.410	-0.340	-0.390
2020/01/31 09:21:25.4	92.300	-0.390	-0.380	-0.370
2020/01/31 09:21:25.5	92.300	-0.380	-0.410	-0.360
2020/01/31 09:21:25.6	92.290	-0.370	-0.440	-0.340
2020/01/31 09:21:25.7	92.290	-0.350	-0.470	-0.320
2020/01/31 09:21:25.8	92.280	-0.330	-0.500	-0.300
2020/01/31 09:21:25.9	92.280	-0.310	-0.530	-0.280
2020/01/31 09:21:26.0	92.280	-0.290	-0.550	-0.250
2020/01/31 09:21:26.1	92.280	-0.270	-0.570	-0.230
2020/01/31 09:21:26.2	92.280	-0.250	-0.600	-0.210
2020/01/31 09:21:26.3	92.290	-0.220	-0.610	-0.180
2020/01/31 09:21:26.4	92.290	-0.200	-0.630	-0.160
2020/01/31 09:21:26.5	92.300	-0.170	-0.650	-0.140
2020/01/31 09:21:26.6	92.300	-0.150	-0.660	-0.110
2020/01/31 09:21:26.7	92.310	-0.120	-0.670	-0.090
2020/01/31 09:21:26.8	92.320	-0.100	-0.680	-0.060
2020/01/31 09:21:26.9	92.330	-0.070	-0.690	-0.040
2020/01/31 09:21:27.0	92.350	-0.050	-0.690	-0.020
2020/01/31 09:21:27.1	92.360	-0.030	-0.690	0.010
2020/01/31 09:21:27.2	92.370	-0.000	-0.690	0.040
2020/01/31 09:21:27.3	92.390	0.020	-0.690	0.060
2020/01/31 09:21:27.4	92.390	0.040	-0.680	0.090
2020/01/31 09:21:27.5	92.410	0.070	-0.670	0.120
2020/01/31 09:21:27.6	92.430	0.090	-0.660	0.150
2020/01/31 09:21:27.7	92.440	0.110	-0.650	0.180
2020/01/31 09:21:27.8	92.460	0.130	-0.630	0.220
2020/01/31 09:21:27.9	92.480	0.140	-0.610	0.250
2020/01/31 09:21:28.0	92.500	0.160	-0.590	0.280
2020/01/31 09:21:28.1	92.510	0.180	-0.570	0.320
2020/01/31 09:21:28.2	92.530	0.190	-0.540	0.360
2020/01/31 09:21:28.3	92.550	0.200	-0.510	0.400
2020/01/31 09:21:28.4	92.560	0.210	-0.480	0.440
2020/01/31 09:21:28.5	92.580	0.220	-0.450	0.480
2020/01/31 09:21:28.6	92.590	0.230	-0.410	0.520
2020/01/31 09:21:28.7	92.600	0.240	-0.380	0.550
2020/01/31 09:21:28.8	92.600	0.240	-0.340	0.590
2020/01/31 09:21:28.9	92.610	0.250	-0.310	0.630
2020/01/31 09:21:29.0	92.610	0.250	-0.270	0.670
2020/01/31 09:21:29.1	92.610	0.250	-0.230	0.710
2020/01/31 09:21:29.2	92.610	0.250	-0.200	0.750
2020/01/31 09:21:29.3	92.590	0.250	-0.160	0.790
2020/01/31 09:21:29.4	92.590	0.250	-0.130	0.830
2020/01/31 09:21:29.5	92.580	0.250	-0.090	0.860
2020/01/31 09:21:29.6	92.560	0.250	-0.060	0.900
2020/01/31 09:21:29.7	92.550	0.240	-0.030	0.930
2020/01/31 09:21:29.8	92.530	0.240	0.000	0.970
2020/01/31 09:21:29.9	92.510	0.230	0.030	1.000
2020/01/31 09:21:30.0	92.490	0.230	0.060	1.020
2020/01/31 09:21:30.1	92.470	0.220	0.080	1.050
2020/01/31 09:21:30.2	92.440	0.210	0.110	1.080
2020/01/31 09:21:30.3	92.410	0.210	0.130	1.100
2020/01/31 09:21:30.4	92.370	0.200	0.150	1.120
2020/01/31 09:21:30.5	92.340	0.190	0.170	1.130
2020/01/31 09:21:30.6	92.300	0.190	0.190	1.150
2020/01/31 09:21:30.7	92.260	0.180	0.210	1.160
2020/01/31 09:21:30.8	92.220	0.170	0.220	1.170
2020/01/31 09:21:30.9	92.180	0.170	0.240	1.180
2020/01/31 09:21:31.0	92.130	0.160	0.260	1.190
2020/01/31 09:21:31.1	92.090	0.150	0.270	1.190
2020/01/31 09:21:31.2	92.040	0.150	0.280	1.190
2020/01/31 09:21:31.3	92.000	0.140	0.290	1.190
2020/01/31 09:21:31.4	91.950	0.140	0.310	1.190
2020/01/31 09:21:31.5	91.910	0.130	0.320	1.180
2020/01/31 09:21:31.6	91.860	0.120	0.330	1.170
2020/01/31 09:21:31.7	91.810	0.110	0.340	1.160
2020/01/31 09:21:31.8	91.770	0.110	0.350	1.140
2020/01/31 09:21:31.9	91.730	0.100	0.360	1.120
2020/01/31 09:21:32.0	91.690	0.090	0.370	1.100
2020/01/31 09:21:32.1	91.650	0.090	0.370	1.080
2020/01/31 09:21:32.2	91.610	0.080	0.380	1.050
2020/01/31 09:21:32.3	91.570	0.070	0.380	1.030
2020/01/31 09:21:32.4	91.530	0.060	0.380	1.000
2020/01/31 09:21:32.5	91.510	0.050	0.380	0.960
2020/01/31 09:21:32.6	91.480	0.050	0.370	0.930
2020/01/31 09:21:32.7	91.460	0.040	0.360	0.890
2020/01/31 09:21:32.8	91.440	0.030	0.350	0.850
2020/01/31 09:21:32.9	91.430	0.020	0.330	0.810
2020/01/31 09:21:33.0	91.410	0.010	0.310	0.760
2020/01/31 09:21:33.1	91.410	0.010	0.290	0.720
2020/01/31 09:21:33.2	91.400	-0.000	0.260	0.670
2020/01/31 09:21:33.3	91.410	-0.010	0.220	0.620
2020/01/31 09:21:33.4	91.410	-0.020	0.190	0.580
2020/01/31 09:21:33.5	91.410	-0.020	0.140	0.530
2020/01/31 09:21:33.6	91.420	-0.030	0.100	0.480
2020/01/31 09:21:33.7	91.430	-0.030	0.050	0.430
2020/01/31 09:21:33.8	91.440	-0.040	-0.000	0.380
2020/01/31 09:21:33.9	91.450	-0.050	-0.060	0.330
2020/01/31 09:21:34.0	91.470	-0.050	-0.120	0.270
2020/01/31 09:21:34.1	91.490	-0.060	-0.180	0.220
2020/01/31 09:21:34.2	91.510	-0.060	-0.240	0.170
2020/01/31 09:21:34.3	91.540	-0.060	-0.300	0.120
2020/01/31 09:21:34.4	91.560	-0.070	-0.370	0.060
2020/01/31 09:21:34.5	91.590	-0.070	-0.440	0.010
2020/01/31 09:21:34.6	91.610	-0.070	-0.500	-0.040
2020/01/31 09:21:34.7	91.640	-0.080	-0.560	-0.100
2020/01/31 09:21:34.8	91.660	-0.080	-0.620	-0.150
2020/01/31 09:21:34.9	91.690	-0.080	-0.680	-0.200
2020/01/31 09:21:35.0	91.720	-0.090	-0.730	-0.250
2020/01/31 09:21:35.1	91.740	-0.090	-0.780	-0.290
2020/01/31 09:21:35.2	91.770	-0.090	-0.820	-0.340
2020/01/31 09:21:35.3	91.800	-0.100	-0.860	-0.380
2020/01/31 09:21:35.4	91.830	-0.100	-0.890	-0.420
2020/01/31 09:21:35.5	91.850	-0.100	-0.920	-0.460
2020/01/31 09:21:35.6	91.870	-0.110	-0.940	-0.500
2020/01/31 09:21:35.7	91.880	-0.110	-0.960	-0.530
2020/01/31 09:21:35.8	91.900	-0.110	-0.970	-0.560
2020/01/31 09:21:35.9	91.910	-0.120	-0.970	-0.580
2020/01/31 09:21:36.0	91.930	-0.120	-0.970	-0.600
2020/01/31 09:21:36.1	91.940	-0.130	-0.960	-0.620
2020/01/31 09:21:36.2	91.940	-0.140	-0.950	-0.630
2020/01/31 09:21:36.3	91.970	-0.140	-0.930	-0.640
2020/01/31 09:21:36.4	91.970	-0.150	-0.900	-0.640
2020/01/31 09:21:36.5	91.980	-0.160	-0.860	-0.640
2020/01/31 09:21:36.6	91.980	-0.170	-0.820	-0.640
2020/01/31 09:21:36.7	91.970	-0.170	-0.780	-0.630
2020/01/31 09:21:36.8	91.970	-0.180	-0.730	-0.620
2020/01/31 09:21:36.9	91.970	-0.200	-0.670	-0.600
2020/01/31 09:21:37.0	91.960	-0.210	-0.610	-0.580
2020/01/31 09:21:37.1	91.950	-0.220	-0.550	-0.560
2020/01/31 09:21:37.2	91.950	-0.230	-0.480	-0.540
2020/01/31 09:21:37.3	91.940	-0.250	-0.410	-0.510
2020/01/31 09:21:37.4	91.940	-0.260	-0.340	-0.480
2020/01/31 09:21:37.5	91.930	-0.280	-0.270	-0.440
2020/01/31 09:21:37.6	91.920	-0.290	-0.190	-0.400
2020/01/31 09:21:37.7	91.910	-0.310	-0.120	-0.360
2020/01/31 09:21:37.8	91.900	-0.330	-0.040	-0.310
2020/01/31 09:21:37.9	91.880	-0.340	0.040	-0.260
2020/01/31 09:21:38.0	91.870	-0.360	0.120	-0.210
2020/01/31 09:21:38.1	91.850	-0.370	0.190	-0.150
2020/01/31 09:21:38.2	91.840	-0.390	0.260	-0.090
2020/01/31 09:21:38.3	91.820	-0.400	0.330	-0.030
2020/01/31 09:21:38.4	91.800	-0.420	0.400	0.030
2020/01/31 09:21:38.5	91.780	-0.430	0.460	0.100
2020/01/31 09:21:38.6	91.760	-0.440	0.520	0.160
2020/01/31 09:21:38.7	91.740	-0.450	0.570	0.230
2020/01/31 09:21:38.8	91.720	-0.460	0.620	0.300
2020/01/31 09:21:38.9	91.690	-0.470	0.670	0.370
2020/01/31 09:21:39.0	91.670	-0.470	0.700	0.440
2020/01/31 09:21:39.1	91.640	-0.470	0.730	0.510
2020/01/31 09:21:39.2	91.610	-0.470	0.750	0.580
2020/01/31 09:21:39.3	91.580	-0.470	0.770	0.650
2020/01/31 09:21:39.4	91.550	-0.460	0.780	0.720
2020/01/31 09:21:39.5	91.520	-0.450	0.770	0.780
2020/01/31 09:21:39.6	91.490	-0.440	0.770	0.850
2020/01/31 09:21:39.7	91.460	-0.420	0.750	0.910
2020/01/31 09:21:39.8	91.430	-0.400	0.720	0.960
2020/01/31 09:21:39.9	91.400	-0.380	0.690	1.010
2020/01/31 09:21:40.0	91.370	-0.350	0.650	1.060
2020/01/31 09:21:40.1	91.350	-0.320	0.600	1.110
2020/01/31 09:21:40.2	91.320	-0.290	0.540	1.150
2020/01/31 09:21:40.3	91.300	-0.250	0.470	1.180
2020/01/31 09:21:40.4	91.280	-0.210	0.400	1.210
2020/01/31 09:21:40.5	91.260	-0.170	0.320	1.230
2020/01/31 09:21:40.6	91.230	-0.130	0.240	1.250
2020/01/31 09:21:40.7	91.220	-0.080	0.150	1.270
2020/01/31 09:21:40.8	91.200	-0.040	0.060	1.280
2020/01/31 09:21:40.9	91.180	0.010	-0.040	1.290
2020/01/31 09:21:41.0	91.170	0.060	-0.140	1.300
2020/01/31 09:21:41.1	91.160	0.110	-0.240	1.300
2020/01/31 09:21:41.2	91.150	0.170	-0.350	1.290
2020/01/31 09:21:41.3	91.140	0.220	-0.450	1.290
2020/01/31 09:21:41.4	91.120	0.270	-0.560	1.280
2020/01/31 09:21:41.5	91.110	0.320	-0.660	1.270
2020/01/31 09:21:41.6	91.110	0.370	-0.760	1.250
2020/01/31 09:21:41.7	91.100	0.420	-0.860	1.240
2020/01/31 09:21:41.8	91.100	0.460	-0.950	1.220
2020/01/31 09:21:41.9	91.100	0.510	-1.040	1.200
2020/01/31 09:21:42.0	91.100	0.550	-1.120	1.170
2020/01/31 09:21:42.1	91.100	0.580	-1.190	1.150
2020/01/31 09:21:42.2	91.100	0.620	-1.260	1.120
2020/01/31 09:21:42.3	91.080	0.650	-1.310	1.090
2020/01/31 09:21:42.4	91.080	0.680	-1.360	1.060
2020/01/31 09:21:42.5	91.090	0.700	-1.400	1.030
2020/01/31 09:21:42.6	91.090	0.720	-1.420	0.990
2020/01/31 09:21:42.7	91.090	0.730	-1.440	0.960
2020/01/31 09:21:42.8	91.090	0.740	-1.450	0.920
2020/01/31 09:21:42.9	91.100	0.740	-1.440	0.880
2020/01/31 09:21:43.0	91.100	0.740	-1.420	0.840
2020/01/31 09:21:43.1	91.100	0.730	-1.400	0.810
2020/01/31 09:21:43.2	91.100	0.720	-1.360	0.770
2020/01/31 09:21:43.3	91.090	0.700	-1.320	0.730
2020/01/31 09:21:43.4	91.090	0.680	-1.260	0.690
2020/01/31 09:21:43.5	91.090	0.660	-1.190	0.650
2020/01/31 09:21:43.6	91.090	0.630	-1.110	0.610
2020/01/31 09:21:43.7	91.090	0.600	-1.020	0.570
2020/01/31 09:21:43.8	91.090	0.560	-0.930	0.530
2020/01/31 09:21:43.9	91.090	0.520	-0.830	0.500
2020/01/31 09:21:44.0	91.080	0.480	-0.720	0.460
2020/01/31 09:21:44.1	91.080	0.440	-0.610	0.430
2020/01/31 09:21:44.2	91.070	0.390	-0.490	0.400
2020/01/31 09:21:44.3	91.070	0.340	-0.370	0.370
2020/01/31 09:21:44.4	91.070	0.290	-0.240	0.350
2020/01/31 09:21:44.5	91.060	0.240	-0.120	0.320
2020/01/31 09:21:44.6	91.060	0.190	0.000	0.300
2020/01/31 09:21:44.7	91.050	0.140	0.130	0.280
2020/01/31 09:21:44.8	91.040	0.090	0.250	0.260
2020/01/31 09:21:44.9	91.040	0.040	0.360	0.240
2020/01/31 09:21:45.0	91.030	-0.010	0.480	0.230
2020/01/31 09:21:45.1	91.020	-0.060	0.580	0.220
2020/01/31 09:21:45.2	91.020	-0.110	0.680	0.210
2020/01/31 09:21:45.3	91.010	-0.150	0.770	0.200
2020/01/31 09:21:45.4	91.010	-0.190	0.860	0.190
2020/01/31 09:21:45.5	91.000	-0.230	0.940	0.180
2020/01/31 09:21:45.6	91.000	-0.270	1.010	0.170
2020/01/31 09:21:45.7	90.990	-0.310	1.060	0.170
2020/01/31 09:21:45.8	90.980	-0.340	1.110	0.170
2020/01/31 09:21:45.9	90.980	-0.370	1.150	0.160
2020/01/31 09:21:46.0	90.970	-0.390	1.180	0.160
2020/01/31 09:21:46.1	90.970	-0.410	1.190	0.160
2020/01/31 09:21:46.2	90.960	-0.430	1.200	0.150
2020/01/31 09:21:46.3	90.950	-0.450	1.190	0.150
2020/01/31 09:21:46.4	90.940	-0.460	1.180	0.150
2020/01/31 09:21:46.5	90.940	-0.470	1.150	0.150
2020/01/31 09:21:46.6	90.930	-0.470	1.110	0.150
2020/01/31 09:21:46.7	90.920	-0.480	1.060	0.150
2020/01/31 09:21:46.8	90.910	-0.480	1.010	0.140
2020/01/31 09:21:46.9	90.910	-0.470	0.940	0.140
2020/01/31 09:21:47.0	90.900	-0.470	0.870	0.130
2020/01/31 09:21:47.1	90.890	-0.460	0.790	0.130
2020/01/31 09:21:47.2	90.890	-0.450	0.710	0.120
2020/01/31 09:21:47.3	90.890	-0.440	0.610	0.110
2020/01/31 09:21:47.4	90.890	-0.420	0.510	0.100
2020/01/31 09:21:47.5	90.880	-0.410	0.420	0.080
2020/01/31 09:21:47.6	90.880	-0.390	0.320	0.070
2020/01/31 09:21:47.7	90.870	-0.380	0.220	0.050
2020/01/31 09:21:47.8	90.870	-0.360	0.110	0.030
2020/01/31 09:21:47.9	90.870	-0.340	0.010	0.010
2020/01/31 09:21:48.0	90.870	-0.330	-0.090	-0.010
2020/01/31 09:21:48.1	90.870	-0.310	-0.180	-0.030
2020/01/31 09:21:48.2	90.870	-0.290	-0.280	-0.050
2020/01/31 09:21:48.3	90.870	-0.280	-0.370	-0.070
2020/01/31 09:21:48.4	90.870	-0.260	-0.460	-0.100
2020/01/31 09:21:48.5	90.870	-0.240	-0.540	-0.120
2020/01/31 09:21:48.6	90.870	-0.230	-0.610	-0.140
2020/01/31 09:21:48.7	90.870	-0.210	-0.680	-0.160
2020/01/31 09:21:48.8	90.870	-0.200	-0.750	-0.170
2020/01/31 09:21:48.9	90.880	-0.180	-0.810	-0.190
2020/01/31 09:21:49.0	90.880	-0.170	-0.860	-0.200
2020/01/31 09:21:49.1	90.880	-0.160	-0.900	-0.210
2020/01/31 09:21:49.2	90.880	-0.150	-0.940	-0.220
2020/01/31 09:21:49.3	90.880	-0.130	-0.970	-0.220
2020/01/31 09:21:49.4	90.880	-0.120	-0.990	-0.220
2020/01/31 09:21:49.5	90.880	-0.110	-1.010	-0.220
2020/01/31 09:21:49.6	90.880	-0.100	-1.020	-0.210
2020/01/31 09:21:49.7	90.880	-0.090	-1.030	-0.210
2020/01/31 09:21:49.8	90.880	-0.070	-1.030	-0.190
2020/01/31 09:21:49.9	90.880	-0.060	-1.030	-0.180
2020/01/31 09:21:50.0	90.880	-0.050	-1.020	-0.160
2020/01/31 09:21:50.1	90.880	-0.030	-1.000	-0.140
2020/01/31 09:21:50.2	90.880	-0.020	-0.980	-0.120
2020/01/31 09:21:50.3	90.880	-0.000	-0.960	-0.090
2020/01/31 09:21:50.4	90.890	0.010	-0.940	-0.060
2020/01/31 09:21:50.5	90.880	0.030	-0.910	-0.040
2020/01/31 09:21:50.6	90.890	0.050	-0.880	-0.010
2020/01/31 09:21:50.7	90.880	0.060	-0.850	0.020
2020/01/31 09:21:50.8	90.880	0.080	-0.820	0.050
2020/01/31 09:21:50.9	90.880	0.100	-0.790	0.070
2020/01/31 09:21:51.0	90.880	0.120	-0.750	0.100
2020/01/31 09:21:51.1	90.880	0.140	-0.710	0.130
2020/01/31 09:21:51.2	90.870	0.160	-0.680	0.160
2020/01/31 09:21:51.3	90.870	0.180	-0.640	0.190
2020/01/31 09:21:51.4	90.840	0.200	-0.600	0.210
2020/01/31 09:21:51.5	90.830	0.220	-0.560	0.240
2020/01/31 09:21:51.6	90.820	0.250	-0.530	0.270
2020/01/31 09:21:51.7	90.810	0.260	-0.490	0.290
2020/01/31 09:21:51.8	90.790	0.280	-0.450	0.320
2020/01/31 09:21:51.9	90.780	0.300	-0.410	0.340
2020/01/31 09:21:52.0	90.760	0.320	-0.370	0.370
2020/01/31 09:21:52.1	90.730	0.330	-0.340	0.390
2020/01/31 09:21:52.2	90.710	0.350	-0.300	0.420
2020/01/31 09:21:52.3	90.680	0.360	-0.260	0.440
2020/01/31 09:21:52.4	90.650	0.370	-0.230	0.460
2020/01/31 09:21:52.5	90.620	0.380	-0.190	0.490
2020/01/31 09:21:52.6	90.590	0.390	-0.160	0.510
2020/01/31 09:21:52.7	90.560	0.390	-0.120	0.530
2020/01/31 09:21:52.8	90.530	0.390	-0.090	0.550
2020/01/31 09:21:52.9	90.490	0.390	-0.050	0.560
2020/01/31 09:21:53.0	90.460	0.390	-0.020	0.580
2020/01/31 09:21:53.1	90.420	0.380	0.020	0.600
2020/01/31 09:21:53.2	90.390	0.370	0.050	0.610
2020/01/31 09:21:53.3	90.350	0.360	0.080	0.620
2020/01/31 09:21:53.4	90.320	0.350	0.110	0.630
2020/01/31 09:21:53.5	90.290	0.330	0.140	0.640
2020/01/31 09:21:53.6	90.260	0.310	0.170	0.640
2020/01/31 09:21:53.7	90.240	0.290	0.200	0.650
2020/01/31 09:21:53.8	90.220	0.270	0.230	0.650
2020/01/31 09:21:53.9	90.200	0.240	0.260	0.650
2020/01/31 09:21:54.0	90.180	0.210	0.290	0.640
2020/01/31 09:21:54.1	90.170	0.180	0.310	0.640
2020/01/31 09:21:54.2	90.160	0.150	0.330	0.630
2020/01/31 09:21:54.3	90.140	0.120	0.350	0.620
2020/01/31 09:21:54.4	90.140	0.080	0.370	0.600
2020/01/31 09:21:54.5	90.140	0.050	0.390	0.590
2020/01/31 09:21:54.6	90.140	0.010	0.400	0.570
2020/01/31 09:21:54.7	90.150	-0.020	0.410	0.550
2020/01/31 09:21:54.8	90.150	-0.060	0.420	0.520
2020/01/31 09:21:54.9	90.160	-0.090	0.420	0.500
2020/01/31 09:21:55.0	90.180	-0.130	0.420	0.470
2020/01/31 09:21:55.1	90.190	-0.160	0.420	0.440
2020/01/31 09:21:55.2	90.200	-0.190	0.410	0.410
2020/01/31 09:21:55.3	90.220	-0.220	0.400	0.380
2020/01/31 09:21:55.4	90.230	-0.250	0.380	0.360
2020/01/31 09:21:55.5	90.250	-0.280	0.360	0.330
2020/01/31 09:21:55.6	90.260	-0.300	0.340	0.300
2020/01/31 09:21:55.7	90.280	-0.320	0.320	0.270
2020/01/31 09:21:55.8	90.290	-0.340	0.290	0.250
2020/01/31 09:21:55.9	90.300	-0.360	0.260	0.220
2020/01/31 09:21:56.0	90.310	-0.370	0.230	0.200
2020/01/31 09:21:56.1	90.330	-0.380	0.190	0.180
2020/01/31 09:21:56.2	90.340	-0.390	0.160	0.160
2020/01/31 09:21:56.3	90.360	-0.400	0.110	0.150
2020/01/31 09:21:56.4	90.370	-0.400	0.070	0.130
2020/01/31 09:21:56.5	90.370	-0.400	0.030	0.120
2020/01/31 09:21:56.6	90.380	-0.390	-0.010	0.110
2020/01/31 09:21:56.7	90.390	-0.390	-0.050	0.100
2020/01/31 09:21:56.8	90.400	-0.380	-0.100	0.090
2020/01/31 09:21:56.9	90.410	-0.370	-0.140	0.090
2020/01/31 09:21:57.0	90.410	-0.350	-0.180	0.080
2020/01/31 09:21:57.1	90.420	-0.340	-0.220	0.080
2020/01/31 09:21:57.2	90.430	-0.320	-0.260	0.070
2020/01/31 09:21:57.3	90.450	-0.300	-0.300	0.070
2020/01/31 09:21:57.4	90.460	-0.280	-0.340	0.060
2020/01/31 09:21:57.5	90.460	-0.260	-0.370	0.060
2020/01/31 09:21:57.6	90.470	-0.240	-0.410	0.060
2020/01/31 09:21:57.7	90.480	-0.220	-0.440	0.050
2020/01/31 09:21:57.8	90.490	-0.190	-0.470	0.050
2020/01/31 09:21:57.9	90.500	-0.170	-0.490	0.040
2020/01/31 09:21:58.0	90.510	-0.150	-0.520	0.040
2020/01/31 09:21:58.1	90.520	-0.120	-0.540	0.040
2020/01/31 09:21:58.2	90.530	-0.100	-0.550	0.030
2020/01/31 09:21:58.3	90.540	-0.080	-0.570	0.030
2020/01/31 09:21:58.4	90.560	-0.060	-0.580	0.020
2020/01/31 09:21:58.5	90.570	-0.040	-0.590	0.020
2020/01/31 09:21:58.6	90.580	-0.020	-0.590	0.020
2020/01/31 09:21:58.7	90.580	0.000	-0.600	0.020
2020/01/31 09:21:58.8	90.590	0.020	-0.590	0.020
2020/01/31 09:21:58.9	90.590	0.030	-0.590	0.020
2020/01/31 09:21:59.0	90.600	0.050	-0.580	0.030
2020/01/31 09:21:59.1	90.600	0.060	-0.570	0.030
2020/01/31 09:21:59.2	90.600	0.070	-0.550	0.040
2020/01/31 09:21:59.3	90.590	0.080	-0.530	0.050
2020/01/31 09:21:59.4	90.590	0.080	-0.510	0.060
2020/01/31 09:21:59.5	90.580	0.090	-0.490	0.080
2020/01/31 09:21:59.6	90.570	0.090	-0.460	0.100
2020/01/31 09:21:59.7	90.550	0.090	-0.440	0.120
2020/01/31 09:21:59.8	90.540	0.090	-0.410	0.140
2020/01/31 09:21:59.9	90.520	0.090	-0.370	0.160
2020/01/31 09:22:00.0	90.490	0.080	-0.340	0.180
2020/01/31 09:22:00.1	90.470	0.080	-0.310	0.210
2020/01/31 09:22:00.2	90.440	0.070	-0.280	0.230
2020/01/31 09:22:00.3	90.410	0.060	-0.240	0.260
2020/01/31 09:22:00.4	90.380	0.050	-0.210	0.280
2020/01/31 09:22:00.5	90.350	0.040	-0.180	0.310
2020/01/31 09:22:00.6	90.310	0.030	-0.150	0.330
2020/01/31 09:22:00.7	90.280	0.020	-0.120	0.360
2020/01/31 09:22:00.8	90.250	0.010	-0.090	0.380
2020/01/31 09:22:00.9	90.210	-0.000	-0.070	0.400
2020/01/31 09:22:01.0	90.180	-0.010	-0.050	0.410
2020/01/31 09:22:01.1	90.150	-0.020	-0.030	0.430
2020/01/31 09:22:01.2	90.110	-0.030	-0.010	0.440
2020/01/31 09:22:01.3	90.080	-0.030	0.000	0.450
2020/01/31 09:22:01.4	90.050	-0.040	0.010	0.450
2020/01/31 09:22:01.5	90.020	-0.040	0.020	0.460
2020/01/31 09:22:01.6	89.990	-0.050	0.030	0.460
2020/01/31 09:22:01.7	89.960	-0.050	0.030	0.460
2020/01/31 09:22:01.8	89.930	-0.050	0.030	0.450
2020/01/31 09:22:01.9	89.910	-0.040	0.030	0.440
2020/01/31 09:22:02.0	89.880	-0.040	0.020	0.430
2020/01/31 09:22:02.1	89.860	-0.030	0.020	0.410
2020/01/31 09:22:02.2	89.840	-0.030	0.010	0.390
2020/01/31 09:22:02.3	89.820	-0.020	-0.000	0.370
2020/01/31 09:22:02.4	89.810	-0.010	-0.020	0.350
2020/01/31 09:22:02.5	89.790	0.010	-0.030	0.320
2020/01/31 09:22:02.6	89.780	0.020	-0.040	0.290
2020/01/31 09:22:02.7	89.770	0.030	-0.060	0.260
2020/01/31 09:22:02.8	89.760	0.050	-0.070	0.230
2020/01/31 09:22:02.9	89.760	0.060	-0.090	0.190
2020/01/31 09:22:03.0	89.750	0.080	-0.100	0.160
2020/01/31 09:22:03.1	89.750	0.090	-0.120	0.120
2020/01/31 09:22:03.2	89.750	0.110	-0.130	0.080
2020/01/31 09:22:03.3	89.760	0.130	-0.140	0.040
2020/01/31 09:22:03.4	89.760	0.140	-0.160	0.000
2020/01/31 09:22:03.5	89.770	0.150	-0.170	-0.040
2020/01/31 09:22:03.6	89.780	0.170	-0.180	-0.080
2020/01/31 09:22:03.7	89.790	0.180	-0.200	-0.120
2020/01/31 09:22:03.8	89.800	0.190	-0.210	-0.160
2020/01/31 09:22:03.9	89.810	0.200	-0.220	-0.190
2020/01/31 09:22:04.0	89.830	0.210	-0.230	-0.230
2020/01/31 09:22:04.1	89.850	0.220	-0.240	-0.270
2020/01/31 09:22:04.2	89.860	0.220	-0.240	-0.310
2020/01/31 09:22:04.3	89.880	0.230	-0.250	-0.340
2020/01/31 09:22:04.4	89.900	0.230	-0.260	-0.380
2020/01/31 09:22:04.5	89.920	0.230	-0.260	-0.410
2020/01/31 09:22:04.6	89.950	0.230	-0.270	-0.440
2020/01/31 09:22:04.7	89.970	0.230	-0.270	-0.470
2020/01/31 09:22:04.8	90.000	0.230	-0.270	-0.500
2020/01/31 09:22:04.9	90.020	0.220	-0.270	-0.530
2020/01/31 09:22:05.0	90.050	0.220	-0.270	-0.560
2020/01/31 09:22:05.1	90.080	0.210	-0.270	-0.580
2020/01/31 09:22:05.2	90.110	0.200	-0.270	-0.610
2020/01/31 09:22:05.3	90.140	0.200	-0.270	-0.630
2020/01/31 09:22:05.4	90.170	0.190	-0.260	-0.650
2020/01/31 09:22:05.5	90.200	0.180	-0.260	-0.670
2020/01/31 09:22:05.6	90.230	0.170	-0.260	-0.690
2020/01/31 09:22:05.7	90.260	0.160	-0.250	-0.700
2020/01/31 09:22:05.8	90.300	0.150	-0.250	-0.710
2020/01/31 09:22:05.9	90.330	0.140	-0.240	-0.720
2020/01/31 09:22:06.0	90.360	0.130	-0.240	-0.730
2020/01/31 09:22:06.1	90.400	0.120	-0.240	-0.730
2020/01/31 09:22:06.2	90.430	0.110	-0.230	-0.730
2020/01/31 09:22:06.3	90.470	0.100	-0.230	-0.730
2020/01/31 09:22:06.4	90.500	0.100	-0.230	-0.720
2020/01/31 09:22:06.5	90.520	0.090	-0.220	-0.710
2020/01/31 09:22:06.6	90.550	0.080	-0.220	-0.690
2020/01/31 09:22:06.7	90.570	0.080	-0.220	-0.670
2020/01/31 09:22:06.8	90.590	0.070	-0.210	-0.640
2020/01/31 09:22:06.9	90.600	0.070	-0.210	-0.610
2020/01/31 09:22:07.0	90.620	0.070	-0.210	-0.580
2020/01/31 09:22:07.1	90.620	0.060	-0.210	-0.540
2020/01/31 09:22:07.2	90.630	0.060	-0.210	-0.490
2020/01/31 09:22:07.3	90.650	0.060	-0.210	-0.440
2020/01/31 09:22:07.4	90.650	0.060	-0.210	-0.380
2020/01/31 09:22:07.5	90.640	0.050	-0.200	-0.320
2020/01/31 09:22:07.6	90.630	0.050	-0.200	-0.260
2020/01/31 09:22:07.7	90.620	0.050	-0.200	-0.200
2020/01/31 09:22:07.8	90.610	0.050	-0.200	-0.130
2020/01/31 09:22:07.9	90.590	0.050	-0.190	-0.060
2020/01/31 09:22:08.0	90.570	0.040	-0.190	0.010
2020/01/31 09:22:08.1	90.540	0.040	-0.180	0.080
2020/01/31 09:22:08.2	90.520	0.040	-0.170	0.160
2020/01/31 09:22:08.3	90.480	0.030	-0.160	0.230
2020/01/31 09:22:08.4	90.450	0.030	-0.150	0.300
2020/01/31 09:22:08.5	90.420	0.020	-0.140	0.380
2020/01/31 09:22:08.6	90.390	0.010	-0.130	0.450
2020/01/31 09:22:08.7	90.360	0.000	-0.110	0.530
2020/01/31 09:22:08.8	90.320	-0.010	-0.100	0.600
2020/01/31 09:22:08.9	90.290	-0.020	-0.080	0.670
2020/01/31 09:22:09.0	90.260	-0.040	-0.060	0.740
2020/01/31 09:22:09.1	90.230	-0.050	-0.040	0.810
2020/01/31 09:22:09.2	90.190	-0.070	-0.020	0.880
2020/01/31 09:22:09.3	90.160	-0.090	0.000	0.950
2020/01/31 09:22:09.4	90.120	-0.110	0.020	1.010
2020/01/31 09:22:09.5	90.090	-0.140	0.050	1.070
2020/01/31 09:22:09.6	90.060	-0.160	0.080	1.130
2020/01/31 09:22:09.7	90.040	-0.180	0.100	1.190
2020/01/31 09:22:09.8	90.010	-0.210	0.130	1.250
2020/01/31 09:22:09.9	89.990	-0.240	0.160	1.300
2020/01/31 09:22:10.0	89.970	-0.260	0.180	1.360
2020/01/31 09:22:10.1	89.950	-0.290	0.210	1.410
2020/01/31 09:22:10.2	89.930	-0.320	0.230	1.450
2020/01/31 09:22:10.3	89.890	-0.350	0.260	1.500
2020/01/31 09:22:10.4	89.880	-0.380	0.280	1.540
2020/01/31 09:22:10.5	89.870	-0.410	0.300	1.580
2020/01/31 09:22:10.6	89.860	-0.430	0.320	1.620
2020/01/31 09:22:10.7	89.850	-0.460	0.330	1.650
2020/01/31 09:22:10.8	89.840	-0.480	0.350	1.680
2020/01/31 09:22:10.9	89.840	-0.510	0.350	1.710
2020/01/31 09:22:11.0	89.840	-0.530	0.360	1.730
2020/01/31 09:22:11.1	89.830	-0.550	0.360	1.750
2020/01/31 09:22:11.2	89.830	-0.560	0.360	1.770
2020/01/31 09:22:11.3	89.840	-0.580	0.350	1.780
2020/01/31 09:22:11.4	89.840	-0.590	0.340	1.780
2020/01/31 09:22:11.5	89.840	-0.600	0.320	1.790
2020/01/31 09:22:11.6	89.850	-0.600	0.300	1.790
2020/01/31 09:22:11.7	89.860	-0.600	0.280	1.780
2020/01/31 09:22:11.8	89.870	-0.600	0.250	1.770
2020/01/31 09:22:11.9	89.880	-0.600	0.220	1.750
2020/01/31 09:22:12.0	89.900	-0.590	0.180	1.730
2020/01/31 09:22:12.1	89.910	-0.570	0.140	1.710
2020/01/31 09:22:12.2	89.930	-0.560	0.090	1.680
2020/01/31 09:22:12.3	89.950	-0.530	0.040	1.640
2020/01/31 09:22:12.4	89.980	-0.510	-0.010	1.610
2020/01/31 09:22:12.5	90.000	-0.480	-0.070	1.560
2020/01/31 09:22:12.6	90.020	-0.450	-0.120	1.510
2020/01/31 09:22:12.7	90.050	-0.410	-0.190	1.460
2020/01/31 09:22:12.8	90.070	-0.370	-0.250	1.400
2020/01/31 09:22:12.9	90.090	-0.330	-0.320	1.340
2020/01/31 09:22:13.0	90.120	-0.280	-0.390	1.280
2020/01/31 09:22:13.1	90.140	-0.240	-0.450	1.210
2020/01/31 09:22:13.2	90.170	-0.180	-0.520	1.130
2020/01/31 09:22:13.3	90.210	-0.130	-0.590	1.060
2020/01/31 09:22:13.4	90.230	-0.080	-0.660	0.980
2020/01/31 09:22:13.5	90.250	-0.020	-0.730	0.900
2020/01/31 09:22:13.6	90.280	0.040	-0.800	0.830
2020/01/31 09:22:13.7	90.300	0.100	-0.860	0.750
2020/01/31 09:22:13.8	90.330	0.160	-0.920	0.670
2020/01/31 09:22:13.9	90.350	0.210	-0.980	0.590
2020/01/31 09:22:14.0	90.370	0.270	-1.030	0.510
2020/01/31 09:22:14.1	90.390	0.330	-1.080	0.440
2020/01/31 09:22:14.2	90.400	0.390	-1.120	0.360
2020/01/31 09:22:14.3	90.430	0.440	-1.160	0.290
2020/01/31 09:22:14.4	90.440	0.490	-1.190	0.230
2020/01/31 09:22:14.5	90.450	0.540	-1.210	0.160
2020/01/31 09:22:14.6	90.460	0.590	-1.230	0.100
2020/01/31 09:22:14.7	90.470	0.630	-1.230	0.040
2020/01/31 09:22:14.8	90.470	0.670	-1.230	-0.020
2020/01/31 09:22:14.9	90.470	0.700	-1.220	-0.070
2020/01/31 09:22:15.0	90.470	0.730	-1.210	-0.120
2020/01/31 09:22:15.1	90.460	0.760	-1.180	-0.160
2020/01/31 09:22:15.2	90.460	0.780	-1.140	-0.200
2020/01/31 09:22:15.3	90.450	0.790	-1.100	-0.230
2020/01/31 09:22:15.4	90.460	0.800	-1.050	-0.260
2020/01/31 09:22:15.5	90.440	0.810	-0.990	-0.290
2020/01/31 09:22:15.6	90.430	0.810	-0.920	-0.310
2020/01/31 09:22:15.7	90.410	0.800	-0.840	-0.330
2020/01/31 09:22:15.8	90.390	0.790	-0.760	-0.340
2020/01/31 09:22:15.9	90.360	0.770	-0.670	-0.350
2020/01/31 09:22:16.0	90.340	0.750	-0.580	-0.360
2020/01/31 09:22:16.1	90.310	0.730	-0.480	-0.360
2020/01/31 09:22:16.2	90.280	0.690	-0.380	-0.360
2020/01/31 09:22:16.3	90.260	0.660	-0.270	-0.360
2020/01/31 09:22:16.4	90.230	0.620	-0.160	-0.350
2020/01/31 09:22:16.5	90.200	0.580	-0.060	-0.340
2020/01/31 09:22:16.6	90.170	0.530	0.050	-0.340
2020/01/31 09:22:16.7	90.140	0.490	0.160	-0.330
2020/01/31 09:22:16.8	90.110	0.440	0.260	-0.310
2020/01/31 09:22:16.9	90.080	0.380	0.360	-0.300
2020/01/31 09:22:17.0	90.050	0.330	0.460	-0.280
2020/01/31 09:22:17.1	90.020	0.280	0.550	-0.270
2020/01/31 09:22:17.2	89.990	0.220	0.630	-0.250
2020/01/31 09:22:17.3	89.950	0.170	0.720	-0.240
2020/01/31 09:22:17.4	89.930	0.120	0.790	-0.230
2020/01/31 09:22:17.5	89.900	0.060	0.850	-0.210
2020/01/31 09:22:17.6	89.880	0.010	0.910	-0.190
2020/01/31 09:22:17.7	89.850	-0.040	0.950	-0.170
2020/01/31 09:22:17.8	89.830	-0.090	0.990	-0.160
2020/01/31 09:22:17.9	89.810	-0.130	1.010	-0.140
2020/01/31 09:22:18.0	89.790	-0.170	1.030	-0.130
2020/01/31 09:22:18.1	89.780	-0.210	1.040	-0.110
2020/01/31 09:22:18.2	89.760	-0.250	1.040	-0.100
2020/01/31 09:22:18.3	89.750	-0.280	1.020	-0.090
2020/01/31 09:22:18.4	89.740	-0.300	0.990	-0.080
2020/01/31 09:22:18.5	89.730	-0.330	0.960	-0.070
2020/01/31 09:22:18.6	89.720	-0.350	0.920	-0.060
2020/01/31 09:22:18.7	89.720	-0.360	0.870	-0.060
2020/01/31 09:22:18.8	89.720	-0.380	0.820	-0.050
2020/01/31 09:22:18.9	89.730	-0.380	0.750	-0.050
2020/01/31 09:22:19.0	89.740	-0.390	0.680	-0.040
2020/01/31 09:22:19.1	89.750	-0.390	0.600	-0.040
2020/01/31 09:22:19.2	89.760	-0.390	0.520	-0.040
2020/01/31 09:22:19.3	89.770	-0.380	0.440	-0.030
2020/01/31 09:22:19.4	89.780	-0.370	0.350	-0.030
2020/01/31 09:22:19.5	89.800	-0.360	0.260	-0.030
2020/01/31 09:22:19.6	89.820	-0.350	0.170	-0.030
2020/01/31 09:22:19.7	89.840	-0.330	0.070	-0.030
2020/01/31 09:22:19.8	89.870	-0.310	-0.020	-0.030
2020/01/31 09:22:19.9	89.890	-0.290	-0.110	-0.030
2020/01/31 09:22:20.0	89.920	-0.270	-0.210	-0.020
2020/01/31 09:22:20.1	89.950	-0.250	-0.290	-0.020
2020/01/31 09:22:20.2	89.980	-0.220	-0.380	-0.010
2020/01/31 09:22:20.3	90.000	-0.200	-0.470	0.000
2020/01/31 09:22:20.4	90.020	-0.170	-0.540	0.010
2020/01/31 09:22:20.5	90.050	-0.150	-0.610	0.030
2020/01/31 09:22:20.6	90.080	-0.130	-0.680	0.040
2020/01/31 09:22:20.7	90.100	-0.100	-0.740	0.060
2020/01/31 09:22:20.8	90.120	-0.080	-0.790	0.080
2020/01/31 09:22:20.9	90.150	-0.060	-0.840	0.100
2020/01/31 09:22:21.0	90.170	-0.040	-0.880	0.120
2020/01/31 09:22:21.1	90.190	-0.020	-0.920	0.150
2020/01/31 09:22:21.2	90.200	-0.000	-0.940	0.180
2020/01/31 09:22:21.3	90.220	0.020	-0.960	0.210
2020/01/31 09:22:21.4	90.230	0.030	-0.980	0.240
2020/01/31 09:22:21.5	90.240	0.050	-0.980	0.280
2020/01/31 09:22:21.6	90.250	0.060	-0.980	0.310
2020/01/31 09:22:21.7	90.260	0.070	-0.980	0.350
2020/01/31 09:22:21.8	90.270	0.080	-0.970	0.390
2020/01/31 09:22:21.9	90.280	0.090	-0.950	0.430
2020/01/31 09:22:22.0	90.280	0.100	-0.930	0.470
2020/01/31 09:22:22.1	90.280	0.100	-0.900	0.510
2020/01/31 09:22:22.2	90.280	0.110	-0.870	0.560
2020/01/31 09:22:22.3	90.280	0.110	-0.830	0.600
2020/01/31 09:22:22.4	90.260	0.110	-0.790	0.640
2020/01/31 09:22:22.5	90.260	0.110	-0.740	0.690
2020/01/31 09:22:22.6	90.250	0.110	-0.690	0.730
2020/01/31 09:22:22.7	90.240	0.110	-0.640	0.780
2020/01/31 09:22:22.8	90.220	0.110	-0.580	0.830
2020/01/31 09:22:22.9	90.210	0.100	-0.530	0.870
2020/01/31 09:22:23.0	90.190	0.100	-0.460	0.920
2020/01/31 09:22:23.1	90.170	0.090	-0.400	0.970
2020/01/31 09:22:23.2	90.150	0.080	-0.340	1.020
2020/01/31 09:22:23.3	90.120	0.070	-0.270	1.070
2020/01/31 09:22:23.4	90.090	0.060	-0.210	1.110
2020/01/31 09:22:23.5	90.060	0.050	-0.140	1.160
2020/01/31 09:22:23.6	90.030	0.040	-0.080	1.210
2020/01/31 09:22:23.7	90.000	0.030	-0.010	1.260
2020/01/31 09:22:23.8	89.960	0.020	0.050	1.300
2020/01/31 09:22:23.9	89.930	0.010	0.120	1.350
2020/01/31 09:22:24.0	89.890	-0.010	0.170	1.400
2020/01/31 09:22:24.1	89.850	-0.020	0.230	1.450
2020/01/31 09:22:24.2	89.800	-0.030	0.280	1.500
2020/01/31 09:22:24.3	89.750	-0.040	0.330	1.540
2020/01/31 09:22:24.4	89.710	-0.060	0.380	1.580
2020/01/31 09:22:24.5	89.660	-0.070	0.420	1.630
2020/01/31 09:22:24.6	89.620	-0.080	0.450	1.670
2020/01/31 09:22:24.7	89.570	-0.090	0.480	1.710
2020/01/31 09:22:24.8	89.530	-0.100	0.500	1.740
2020/01/31 09:22:24.9	89.480	-0.110	0.520	1.770
2020/01/31 09:22:25.0	89.430	-0.120	0.530	1.800
2020/01/31 09:22:25.1	89.390	-0.130	0.530	1.830
2020/01/31 09:22:25.2	89.350	-0.130	0.530	1.850
2020/01/31 09:22:25.3	89.310	-0.140	0.520	1.860
2020/01/31 09:22:25.4	89.280	-0.140	0.500	1.880
2020/01/31 09:22:25.5	89.240	-0.140	0.480	1.880
2020/01/31 09:22:25.6	89.200	-0.150	0.450	1.880
2020/01/31 09:22:25.7	89.170	-0.140	0.420	1.870
2020/01/31 09:22:25.8	89.150	-0.140	0.380	1.860
2020/01/31 09:22:25.9	89.120	-0.140	0.330	1.830
2020/01/31 09:22:26.0	89.100	-0.130	0.280	1.810
2020/01/31 09:22:26.1	89.090	-0.120	0.220	1.770
2020/01/31 09:22:26.2	89.070	-0.110	0.160	1.730
2020/01/31 09:22:26.3	89.060	-0.100	0.100	1.680
2020/01/31 09:22:26.4	89.070	-0.090	0.030	1.620
2020/01/31 09:22:26.5	89.070	-0.070	-0.040	1.560
2020/01/31 09:22:26.6	89.070	-0.050	-0.110	1.490
2020/01/31 09:22:26.7	89.080	-0.030	-0.190	1.410
2020/01/31 09:22:26.8	89.090	-0.010	-0.270	1.330
2020/01/31 09:22:26.9	89.110	0.010	-0.340	1.240
2020/01/31 09:22:27.0	89.130	0.030	-0.420	1.150
2020/01/31 09:22:27.1	89.150	0.050	-0.490	1.060
2020/01/31 09:22:27.2	89.170	0.080	-0.570	0.960
2020/01/31 09:22:27.3	89.190	0.100	-0.640	0.860
2020/01/31 09:22:27.4	89.220	0.120	-0.710	0.760
2020/01/31 09:22:27.5	89.240	0.150	-0.770	0.660
2020/01/31 09:22:27.6	89.280	0.170	-0.830	0.560
2020/01/31 09:22:27.7	89.310	0.190	-0.880	0.470
2020/01/31 09:22:27.8	89.340	0.220	-0.930	0.370
2020/01/31 09:22:27.9	89.370	0.240	-0.960	0.270
2020/01/31 09:22:28.0	89.400	0.250	-0.990	0.180
2020/01/31 09:22:28.1	89.430	0.270	-1.010	0.090
2020/01/31 09:22:28.2	89.460	0.280	-1.030	0.010
2020/01/31 09:22:28.3	89.490	0.290	-1.030	-0.070
2020/01/31 09:22:28.4	89.530	0.300	-1.020	-0.150
2020/01/31 09:22:28.5	89.550	0.310	-1.000	-0.220
2020/01/31 09:22:28.6	89.570	0.310	-0.980	-0.290
2020/01/31 09:22:28.7	89.600	0.310	-0.940	-0.350
2020/01/31 09:22:28.8	89.620	0.310	-0.900	-0.410
2020/01/31 09:22:28.9	89.630	0.300	-0.850	-0.460
2020/01/31 09:22:29.0	89.650	0.290	-0.790	-0.510
2020/01/31 09:22:29.1	89.660	0.280	-0.720	-0.550
2020/01/31 09:22:29.2	89.670	0.260	-0.650	-0.590
2020/01/31 09:22:29.3	89.680	0.240	-0.570	-0.620
2020/01/31 09:22:29.4	89.700	0.220	-0.490	-0.640
2020/01/31 09:22:29.5	89.700	0.200	-0.400	-0.660
2020/01/31 09:22:29.6	89.700	0.170	-0.310	-0.680
2020/01/31 09:22:29.7	89.700	0.140	-0.220	-0.690
2020/01/31 09:22:29.8	89.700	0.110	-0.130	-0.700
2020/01/31 09:22:29.9	89.690	0.080	-0.040	-0.700
2020/01/31 09:22:30.0	89.690	0.050	0.040	-0.700
2020/01/31 09:22:30.1	89.680	0.020	0.130	-0.690
2020/01/31 09:22:30.2	89.670	-0.010	0.210	-0.690
2020/01/31 09:22:30.3	89.660	-0.040	0.280	-0.680
2020/01/31 09:22:30.4	89.640	-0.080	0.350	-0.660
2020/01/31 09:22:30.5	89.630	-0.110	0.420	-0.640
2020/01/31 09:22:30.6	89.620	-0.140	0.480	-0.620
2020/01/31 09:22:30.7	89.600	-0.160	0.530	-0.600
2020/01/31 09:22:30.8	89.590	-0.190	0.570	-0.570
2020/01/31 09:22:30.9	89.570	-0.220	0.610	-0.550
2020/01/31 09:22:31.0	89.560	-0.240	0.630	-0.520
2020/01/31 09:22:31.1	89.540	-0.260	0.650	-0.490
2020/01/31 09:22:31.2	89.530	-0.280	0.660	-0.460
2020/01/31 09:22:31.3	89.500	-0.290	0.660	-0.430
2020/01/31 09:22:31.4	89.480	-0.300	0.660	-0.400
2020/01/31 09:22:31.5	89.470	-0.310	0.640	-0.370
2020/01/31 09:22:31.6	89.450	-0.320	0.620	-0.330
2020/01/31 09:22:31.7	89.440	-0.320	0.590	-0.300
2020/01/31 09:22:31.8	89.420	-0.320	0.560	-0.270
2020/01/31 09:22:31.9	89.400	-0.320	0.520	-0.230
2020/01/31 09:22:32.0	89.390	-0.310	0.480	-0.200
2020/01/31 09:22:32.1	89.370	-0.300	0.430	-0.160
2020/01/31 09:22:32.2	89.350	-0.290	0.380	-0.130
2020/01/31 09:22:32.3	89.330	-0.280	0.320	-0.090
2020/01/31 09:22:32.4	89.320	-0.260	0.260	-0.060
2020/01/31 09:22:32.5	89.300	-0.240	0.200	-0.020
2020/01/31 09:22:32.6	89.280	-0.220	0.150	0.020
2020/01/31 09:22:32.7	89.260	-0.200	0.090	0.060
2020/01/31 09:22:32.8	89.240	-0.180	0.030	0.100
2020/01/31 09:22:32.9	89.220	-0.150	-0.030	0.140
2020/01/31 09:22:33.0	89.200	-0.130	-0.080	0.180
2020/01/31 09:22:33.1	89.170	-0.100	-0.140	0.220
2020/01/31 09:22:33.2	89.150	-0.070	-0.190	0.260
2020/01/31 09:22:33.3	89.130	-0.040	-0.240	0.300
2020/01/31 09:22:33.4	89.110	-0.020	-0.280	0.340
2020/01/31 09:22:33.5	89.090	0.010	-0.330	0.380
2020/01/31 09:22:33.6	89.060	0.040	-0.370	0.420
2020/01/31 09:22:33.7	89.040	0.060	-0.410	0.460
2020/01/31 09:22:33.8	89.020	0.090	-0.440	0.490
2020/01/31 09:22:33.9	89.000	0.110	-0.470	0.530
2020/01/31 09:22:34.0	88.980	0.140	-0.500	0.570
2020/01/31 09:22:34.1	88.960	0.160	-0.520	0.600
2020/01/31 09:22:34.2	88.940	0.180	-0.550	0.640
2020/01/31 09:22:34.3	88.910	0.190	-0.570	0.670
2020/01/31 09:22:34.4	88.900	0.210	-0.580	0.700
2020/01/31 09:22:34.5	88.880	0.220	-0.600	0.730
2020/01/31 09:22:34.6	88.870	0.230	-0.610	0.760
2020/01/31 09:22:34.7	88.860	0.240	-0.620	0.790
2020/01/31 09:22:34.8	88.850	0.250	-0.630	0.810
2020/01/31 09:22:34.9	88.850	0.250	-0.640	0.830
2020/01/31 09:22:35.0	88.840	0.250	-0.640	0.850
2020/01/31 09:22:35.1	88.840	0.250	-0.640	0.870
2020/01/31 09:22:35.2	88.840	0.250	-0.640	0.890
2020/01/31 09:22:35.3	88.850	0.250	-0.640	0.910
2020/01/31 09:22:35.4	88.850	0.240	-0.640	0.920
2020/01/31 09:22:35.5	88.850	0.230	-0.630	0.930
2020/01/31 09:22:35.6	88.850	0.220	-0.630	0.940
2020/01/31 09:22:35.7	88.850	0.210	-0.620	0.950
2020/01/31 09:22:35.8	88.860	0.200	-0.610	0.960
2020/01/31 09:22:35.9	88.860	0.190	-0.600	0.970
2020/01/31 09:22:36.0	88.870	0.180	-0.580	0.970
2020/01/31 09:22:36.1	88.870	0.160	-0.570	0.980
2020/01/31 09:22:36.2	88.880	0.150	-0.550	0.980
2020/01/31 09:22:36.3	88.880	0.130	-0.530	0.990
2020/01/31 09:22:36.4	88.880	0.120	-0.510	0.990
2020/01/31 09:22:36.5	88.890	0.100	-0.490	0.990
2020/01/31 09:22:36.6	88.890	0.090	-0.470	0.990
2020/01/31 09:22:36.7	88.900	0.080	-0.440	0.990
2020/01/31 09:22:36.8	88.900	0.060	-0.420	0.990
2020/01/31 09:22:36.9	88.900	0.050	-0.390	0.980
2020/01/31 09:22:37.0	88.910	0.040	-0.360	0.980
2020/01/31 09:22:37.1	88.910	0.030	-0.330	0.970
2020/01/31 09:22:37.2	88.920	0.020	-0.290	0.960
2020/01/31 09:22:37.3	88.920	0.010	-0.260	0.950
2020/01/31 09:22:37.4	88.930	-0.000	-0.230	0.940
2020/01/31 09:22:37.5	88.930	-0.010	-0.190	0.920
2020/01/31 09:22:37.6	88.940	-0.010	-0.160	0.910
2020/01/31 09:22:37.7	88.950	-0.020	-0.120	0.890
2020/01/31 09:22:37.8	88.950	-0.020	-0.090	0.880
2020/01/31 09:22:37.9	88.960	-0.030	-0.050	0.860
2020/01/31 09:22:38.0	88.970	-0.030	-0.010	0.840
2020/01/31 09:22:38.1	88.980	-0.030	0.020	0.820
2020/01/31 09:22:38.2	88.990	-0.030	0.060	0.800
2020/01/31 09:22:38.3	89.020	-0.030	0.090	0.780
2020/01/31 09:22:38.4	89.030	-0.030	0.120	0.760
2020/01/31 09:22:38.5	89.040	-0.030	0.150	0.740
2020/01/31 09:22:38.6	89.050	-0.030	0.180	0.710
2020/01/31 09:22:38.7	89.060	-0.030	0.210	0.690
2020/01/31 09:22:38.8	89.070	-0.030	0.240	0.670
2020/01/31 09:22:38.9	89.080	-0.020	0.270	0.650
2020/01/31 09:22:39.0	89.090	-0.020	0.290	0.630
2020/01/31 09:22:39.1	89.100	-0.020	0.310	0.600
2020/01/31 09:22:39.2	89.110	-0.020	0.330	0.580
2020/01/31 09:22:39.3	89.120	-0.010	0.340	0.570
2020/01/31 09:22:39.4	89.120	-0.010	0.350	0.550
2020/01/31 09:22:39.5	89.130	-0.010	0.360	0.530
2020/01/31 09:22:39.6	89.140	-0.010	0.370	0.520
2020/01/31 09:22:39.7	89.140	-0.000	0.370	0.500
2020/01/31 09:22:39.8	89.150	-0.000	0.380	0.490
2020/01/31 09:22:39.9	89.150	0.000	0.370	0.480
2020/01/31 09:22:40.0	89.150	0.000	0.370	0.470
2020/01/31 09:22:40.1	89.150	0.000	0.360	0.460
2020/01/31 09:22:40.2	89.150	0.000	0.350	0.460
2020/01/31 09:22:40.3	89.150	0.000	0.340	0.460
2020/01/31 09:22:40.4	89.150	0.000	0.320	0.450
2020/01/31 09:22:40.5	89.140	0.000	0.300	0.450
2020/01/31 09:22:40.6	89.130	0.000	0.280	0.450
2020/01/31 09:22:40.7	89.120	0.000	0.260	0.460
2020/01/31 09:22:40.8	89.110	0.000	0.230	0.460
2020/01/31 09:22:40.9	89.100	0.000	0.200	0.460
2020/01/31 09:22:41.0	89.090	0.000	0.170	0.470
2020/01/31 09:22:41.1	89.070	0.000	0.140	0.470
2020/01/31 09:22:41.2	89.060	0.000	0.110	0.470
2020/01/31 09:22:41.3	89.060	0.000	0.070	0.480
2020/01/31 09:22:41.4	89.040	0.000	0.030	0.480
2020/01/31 09:22:41.5	89.020	0.000	-0.010	0.480
2020/01/31 09:22:41.6	89.010	0.000	-0.050	0.480
2020/01/31 09:22:41.7	88.990	0.000	-0.090	0.480
2020/01/31 09:22:41.8	88.980	0.000	-0.130	0.480
2020/01/31 09:22:41.9	88.960	0.000	-0.170	0.480
2020/01/31 09:22:42.0	88.950	0.010	-0.220	0.470
2020/01/31 09:22:42.1	88.930	0.010	-0.260	0.460
2020/01/31 09:22:42.2	88.920	0.010	-0.310	0.450
2020/01/31 09:22:42.3	88.910	0.010	-0.360	0.440
2020/01/31 09:22:42.4	88.890	0.010	-0.400	0.420
2020/01/31 09:22:42.5	88.890	0.020	-0.450	0.400
2020/01/31 09:22:42.6	88.880	0.020	-0.500	0.390
2020/01/31 09:22:42.7	88.880	0.020	-0.540	0.360
2020/01/31 09:22:42.8	88.880	0.030	-0.580	0.340
2020/01/31 09:22:42.9	88.880	0.030	-0.620	0.320
2020/01/31 09:22:43.0	88.880	0.030	-0.660	0.290
2020/01/31 09:22:43.1	88.890	0.040	-0.700	0.270
2020/01/31 09:22:43.2	88.890	0.040	-0.740	0.240
2020/01/31 09:22:43.3	88.910	0.050	-0.770	0.210
2020/01/31 09:22:43.4	88.920	0.050	-0.800	0.190
2020/01/31 09:22:43.5	88.930	0.050	-0.820	0.160
2020/01/31 09:22:43.6	88.950	0.050	-0.840	0.130
2020/01/31 09:22:43.7	88.960	0.060	-0.860	0.110
2020/01/31 09:22:43.8	88.980	0.060	-0.870	0.090
2020/01/31 09:22:43.9	89.000	0.060	-0.880	0.070
2020/01/31 09:22:44.0	89.020	0.060	-0.880	0.050
2020/01/31 09:22:44.1	89.040	0.060	-0.870	0.030
2020/01/31 09:22:44.2	89.050	0.050	-0.860	0.020
2020/01/31 09:22:44.3	89.070	0.050	-0.840	0.010
2020/01/31 09:22:44.4	89.090	0.040	-0.820	0.000
2020/01/31 09:22:44.5	89.110	0.030	-0.800	0.000
2020/01/31 09:22:44.6	89.120	0.030	-0.770	0.000
2020/01/31 09:22:44.7	89.140	0.020	-0.730	0.010
2020/01/31 09:22:44.8	89.150	0.000	-0.690	0.020
2020/01/31 09:22:44.9	89.170	-0.010	-0.640	0.030
2020/01/31 09:22:45.0	89.180	-0.020	-0.590	0.040
2020/01/31 09:22:45.1	89.190	-0.040	-0.540	0.060
2020/01/31 09:22:45.2	89.200	-0.060	-0.480	0.080
2020/01/31 09:22:45.3	89.200	-0.070	-0.420	0.100
2020/01/31 09:22:45.4	89.220	-0.090	-0.360	0.130
2020/01/31 09:22:45.5	89.220	-0.120	-0.290	0.160
2020/01/31 09:22:45.6	89.220	-0.140	-0.230	0.190
2020/01/31 09:22:45.7	89.220	-0.160	-0.160	0.220
2020/01/31 09:22:45.8	89.220	-0.190	-0.090	0.260
2020/01/31 09:22:45.9	89.220	-0.210	-0.020	0.290
2020/01/31 09:22:46.0	89.210	-0.240	0.040	0.330
2020/01/31 09:22:46.1	89.210	-0.260	0.110	0.360
2020/01/31 09:22:46.2	89.200	-0.290	0.170	0.400
2020/01/31 09:22:46.3	89.190	-0.310	0.230	0.430
2020/01/31 09:22:46.4	89.180	-0.340	0.290	0.460
2020/01/31 09:22:46.5	89.170	-0.360	0.350	0.500
2020/01/31 09:22:46.6	89.160	-0.390	0.400	0.530
2020/01/31 09:22:46.7	89.140	-0.410	0.450	0.560
2020/01/31 09:22:46.8	89.130	-0.430	0.490	0.580
2020/01/31 09:22:46.9	89.120	-0.450	0.530	0.610
2020/01/31 09:22:47.0	89.110	-0.470	0.570	0.630
2020/01/31 09:22:47.1	89.100	-0.480	0.600	0.650
2020/01/31 09:22:47.2	89.090	-0.500	0.620	0.660
2020/01/31 09:22:47.3	89.090	-0.510	0.640	0.670
2020/01/31 09:22:47.4	89.080	-0.520	0.650	0.680
2020/01/31 09:22:47.5	89.080	-0.530	0.660	0.690
2020/01/31 09:22:47.6	89.070	-0.530	0.670	0.690
2020/01/31 09:22:47.7	89.070	-0.530	0.660	0.690
2020/01/31 09:22:47.8	89.070	-0.530	0.650	0.680
2020/01/31 09:22:47.9	89.070	-0.530	0.640	0.670
2020/01/31 09:22:48.0	89.080	-0.520	0.620	0.660
2020/01/31 09:22:48.1	89.080	-0.510	0.600	0.650
2020/01/31 09:22:48.2	89.090	-0.490	0.570	0.630
2020/01/31 09:22:48.3	89.100	-0.480	0.530	0.610
2020/01/31 09:22:48.4	89.110	-0.460	0.490	0.590
2020/01/31 09:22:48.5	89.120	-0.430	0.450	0.570
2020/01/31 09:22:48.6	89.130	-0.400	0.400	0.550
2020/01/31 09:22:48.7	89.150	-0.370	0.340	0.530
2020/01/31 09:22:48.8	89.160	-0.340	0.290	0.510
2020/01/31 09:22:48.9	89.180	-0.300	0.230	0.490
2020/01/31 09:22:49.0	89.190	-0.270	0.160	0.470
2020/01/31 09:22:49.1	89.210	-0.220	0.100	0.450
2020/01/31 09:22:49.2	89.220	-0.180	0.030	0.430
2020/01/31 09:22:49.3	89.240	-0.130	-0.040	0.410
2020/01/31 09:22:49.4	89.260	-0.090	-0.110	0.390
2020/01/31 09:22:49.5	89.270	-0.040	-0.190	0.370
2020/01/31 09:22:49.6	89.290	0.010	-0.260	0.360
2020/01/31 09:22:49.7	89.310	0.070	-0.330	0.340
2020/01/31 09:22:49.8	89.330	0.120	-0.410	0.330
2020/01/31 09:22:49.9	89.350	0.170	-0.480	0.310
2020/01/31 09:22:50.0	89.370	0.220	-0.550	0.300
2020/01/31 09:22:50.1	89.390	0.280	-0.620	0.290
2020/01/31 09:22:50.2	89.410	0.330	-0.690	0.270
2020/01/31 09:22:50.3	89.420	0.380	-0.750	0.260
2020/01/31 09:22:50.4	89.450	0.430	-0.810	0.250
2020/01/31 09:22:50.5	89.470	0.470	-0.870	0.230
2020/01/31 09:22:50.6	89.490	0.520	-0.920	0.220
2020/01/31 09:22:50.7	89.520	0.560	-0.970	0.210
2020/01/31 09:22:50.8	89.540	0.600	-1.010	0.190
2020/01/31 09:22:50.9	89.570	0.640	-1.050	0.180
2020/01/31 09:22:51.0	89.590	0.670	-1.080	0.160
2020/01/31 09:22:51.1	89.610	0.700	-1.100	0.150
2020/01/31 09:22:51.2	89.630	0.720	-1.120	0.140
2020/01/31 09:22:51.3	89.650	0.740	-1.140	0.120
2020/01/31 09:22:51.4	89.670	0.760	-1.140	0.110
2020/01/31 09:22:51.5	89.690	0.770	-1.140	0.090
2020/01/31 09:22:51.6	89.710	0.780	-1.130	0.080
2020/01/31 09:22:51.7	89.720	0.790	-1.110	0.070
2020/01/31 09:22:51.8	89.740	0.790	-1.080	0.050
2020/01/31 09:22:51.9	89.750	0.780	-1.050	0.040
2020/01/31 09:22:52.0	89.760	0.780	-1.010	0.030
2020/01/31 09:22:52.1	89.770	0.760	-0.960	0.020
2020/01/31 09:22:52.2	89.770	0.750	-0.910	0.020
2020/01/31 09:22:52.3	89.780	0.730	-0.850	0.010
2020/01/31 09:22:52.4	89.780	0.710	-0.780	0.010
2020/01/31 09:22:52.5	89.780	0.680	-0.710	0.010
2020/01/31 09:22:52.6	89.770	0.650	-0.640	0.010
2020/01/31 09:22:52.7	89.770	0.620	-0.560	0.020
2020/01/31 09:22:52.8	89.760	0.590	-0.470	0.030
2020/01/31 09:22:52.9	89.760	0.550	-0.390	0.040
2020/01/31 09:22:53.0	89.750	0.520	-0.300	0.060
2020/01/31 09:22:53.1	89.740	0.480	-0.210	0.070
2020/01/31 09:22:53.2	89.720	0.440	-0.120	0.090
2020/01/31 09:22:53.3	89.710	0.400	-0.040	0.120
2020/01/31 09:22:53.4	89.680	0.360	0.050	0.140
2020/01/31 09:22:53.5	89.670	0.330	0.130	0.170
2020/01/31 09:22:53.6	89.660	0.290	0.210	0.190
2020/01/31 09:22:53.7	89.650	0.250	0.290	0.220
2020/01/31 09:22:53.8	89.640	0.220	0.360	0.250
2020/01/31 09:22:53.9	89.630	0.180	0.420	0.280
2020/01/31 09:22:54.0	89.620	0.150	0.480	0.310
2020/01/31 09:22:54.1	89.620	0.120	0.530	0.340
2020/01/31 09:22:54.2	89.610	0.090	0.580	0.370
2020/01/31 09:22:54.3	89.610	0.060	0.610	0.400
2020/01/31 09:22:54.4	89.620	0.040	0.640	0.430
2020/01/31 09:22:54.5	89.620	0.010	0.660	0.460
2020/01/31 09:22:54.6	89.630	-0.010	0.670	0.480
2020/01/31 09:22:54.7	89.640	-0.030	0.680	0.510
2020/01/31 09:22:54.8	89.650	-0.040	0.670	0.530
2020/01/31 09:22:54.9	89.670	-0.060	0.660	0.560
2020/01/31 09:22:55.0	89.690	-0.070	0.640	0.580
2020/01/31 09:22:55.1	89.710	-0.080	0.620	0.600
2020/01/31 09:22:55.2	89.740	-0.090	0.580	0.620
2020/01/31 09:22:55.3	89.750	-0.100	0.540	0.640
2020/01/31 09:22:55.4	89.780	-0.110	0.500	0.660
2020/01/31 09:22:55.5	89.810	-0.120	0.450	0.680
2020/01/31 09:22:55.6	89.850	-0.120	0.400	0.690
2020/01/31 09:22:55.7	89.880	-0.130	0.350	0.700
2020/01/31 09:22:55.8	89.920	-0.130	0.290	0.720
2020/01/31 09:22:55.9	89.960	-0.140	0.230	0.730
2020/01/31 09:22:56.0	90.000	-0.150	0.180	0.740
2020/01/31 09:22:56.1	90.040	-0.150	0.120	0.750
2020/01/31 09:22:56.2	90.080	-0.160	0.070	0.750
2020/01/31 09:22:56.3	90.120	-0.170	0.010	0.760
2020/01/31 09:22:56.4	90.140	-0.180	-0.040	0.770
2020/01/31 09:22:56.5	90.180	-0.190	-0.090	0.770
2020/01/31 09:22:56.6	90.220	-0.210	-0.130	0.780
2020/01/31 09:22:56.7	90.260	-0.220	-0.170	0.790
2020/01/31 09:22:56.8	90.300	-0.240	-0.210	0.790
2020/01/31 09:22:56.9	90.330	-0.260	-0.240	0.800
2020/01/31 09:22:57.0	90.360	-0.280	-0.260	0.810
2020/01/31 09:22:57.1	90.390	-0.300	-0.290	0.820
2020/01/31 09:22:57.2	90.420	-0.320	-0.300	0.830
2020/01/31 09:22:57.3	90.440	-0.350	-0.310	0.840
2020/01/31 09:22:57.4	90.460	-0.370	-0.320	0.840
2020/01/31 09:22:57.5	90.480	-0.400	-0.320	0.860
2020/01/31 09:22:57.6	90.490	-0.430	-0.320	0.870
2020/01/31 09:22:57.7	90.500	-0.460	-0.310	0.880
2020/01/31 09:22:57.8	90.510	-0.490	-0.300	0.890
2020/01/31 09:22:57.9	90.510	-0.520	-0.290	0.900
2020/01/31 09:22:58.0	90.510	-0.540	-0.270	0.910
2020/01/31 09:22:58.1	90.510	-0.570	-0.250	0.930
2020/01/31 09:22:58.2	90.510	-0.600	-0.230	0.940
2020/01/31 09:22:58.3	90.490	-0.630	-0.210	0.950
2020/01/31 09:22:58.4	90.480	-0.650	-0.190	0.970
2020/01/31 09:22:58.5	90.470	-0.680	-0.170	0.980
2020/01/31 09:22:58.6	90.450	-0.700	-0.150	1.000
2020/01/31 09:22:58.7	90.430	-0.720	-0.130	1.010
2020/01/31 09:22:58.8	90.410	-0.740	-0.110	1.020
2020/01/31 09:22:58.9	90.390	-0.750	-0.090	1.040
2020/01/31 09:22:59.0	90.370	-0.760	-0.080	1.050
2020/01/31 09:22:59.1	90.350	-0.770	-0.070	1.070
2020/01/31 09:22:59.2	90.330	-0.780	-0.060	1.080
2020/01/31 09:22:59.3	90.320	-0.780	-0.050	1.090
2020/01/31 09:22:59.4	90.290	-0.780	-0.050	1.100
2020/01/31 09:22:59.5	90.270	-0.770	-0.050	1.120
2020/01/31 09:22:59.6	90.250	-0.760	-0.050	1.130
2020/01/31 09:22:59.7	90.230	-0.750	-0.060	1.140
2020/01/31 09:22:59.8	90.200	-0.730	-0.070	1.150
2020/01/31 09:22:59.9	90.180	-0.710	-0.080	1.160
2020/01/31 09:23:00.0	90.170	-0.680	-0.100	1.160
2020/01/31 09:23:00.1	90.150	-0.650	-0.120	1.170
2020/01/31 09:23:00.2	90.140	-0.620	-0.140	1.170
2020/01/31 09:23:00.3	90.120	-0.590	-0.170	1.170
2020/01/31 09:23:00.4	90.120	-0.550	-0.200	1.180
2020/01/31 09:23:00.5	90.110	-0.510	-0.230	1.170
2020/01/31 09:23:00.6	90.110	-0.470	-0.270	1.160
2020/01/31 09:23:00.7	90.110	-0.420	-0.300	1.150
2020/01/31 09:23:00.8	90.110	-0.370	-0.340	1.140
2020/01/31 09:23:00.9	90.110	-0.330	-0.370	1.120
2020/01/31 09:23:01.0	90.120	-0.280	-0.410	1.100
2020/01/31 09:23:01.1	90.130	-0.220	-0.440	1.070
2020/01/31 09:23:01.2	90.140	-0.170	-0.480	1.040
2020/01/31 09:23:01.3	90.170	-0.120	-0.510	1.010
2020/01/31 09:23:01.4	90.180	-0.070	-0.540	0.970
2020/01/31 09:23:01.5	90.200	-0.020	-0.570	0.920
2020/01/31 09:23:01.6	90.230	0.030	-0.600	0.870
2020/01/31 09:23:01.7	90.250	0.090	-0.630	0.820
2020/01/31 09:23:01.8	90.280	0.140	-0.650	0.770
2020/01/31 09:23:01.9	90.310	0.180	-0.670	0.700
2020/01/31 09:23:02.0	90.340	0.230	-0.690	0.640
2020/01/31 09:23:02.1	90.370	0.280	-0.700	0.570
2020/01/31 09:23:02.2	90.410	0.320	-0.710	0.500
2020/01/31 09:23:02.3	90.450	0.360	-0.710	0.430
2020/01/31 09:23:02.4	90.490	0.410	-0.710	0.350
2020/01/31 09:23:02.5	90.530	0.440	-0.710	0.270
2020/01/31 09:23:02.6	90.570	0.480	-0.700	0.190
2020/01/31 09:23:02.7	90.610	0.510	-0.690	0.100
2020/01/31 09:23:02.8	90.650	0.540	-0.680	0.020
2020/01/31 09:23:02.9	90.690	0.570	-0.660	-0.070
2020/01/31 09:23:03.0	90.730	0.600	-0.630	-0.150
2020/01/31 09:23:03.1	90.770	0.620	-0.610	-0.240
2020/01/31 09:23:03.2	90.810	0.640	-0.580	-0.320
2020/01/31 09:23:03.3	90.850	0.660	-0.540	-0.400
2020/01/31 09:23:03.4	90.870	0.670	-0.510	-0.490
2020/01/31 09:23:03.5	90.910	0.680	-0.470	-0.570
2020/01/31 09:23:03.6	90.950	0.690	-0.430	-0.640
2020/01/31 09:23:03.7	90.990	0.700	-0.380	-0.720
2020/01/31 09:23:03.8	91.020	0.700	-0.330	-0.780
2020/01/31 09:23:03.9	91.060	0.700	-0.290	-0.850
2020/01/31 09:23:04.0	91.090	0.700	-0.240	-0.910
2020/01/31 09:23:04.1	91.120	0.690	-0.190	-0.960
2020/01/31 09:23:04.2	91.150	0.680	-0.140	-1.010
2020/01/31 09:23:04.3	91.170	0.670	-0.090	-1.050
2020/01/31 09:23:04.4	91.200	0.660	-0.040	-1.090
2020/01/31 09:23:04.5	91.220	0.640	0.010	-1.120
2020/01/31 09:23:04.6	91.240	0.620	0.060	-1.140
2020/01/31 09:23:04.7	91.250	0.600	0.100	-1.160
2020/01/31 09:23:04.8	91.270	0.580	0.150	-1.170
2020/01/31 09:23:04.9	91.280	0.560	0.190	-1.170
2020/01/31 09:23:05.0	91.290	0.540	0.230	-1.170
2020/01/31 09:23:05.1	91.300	0.510	0.260	-1.160
2020/01/31 09:23:05.2	91.310	0.480	0.290	-1.140
2020/01/31 09:23:05.3	91.320	0.450	0.320	-1.120
2020/01/31 09:23:05.4	91.330	0.430	0.350	-1.090
2020/01/31 09:23:05.5	91.330	0.400	0.370	-1.050
2020/01/31 09:23:05.6	91.330	0.370	0.390	-1.010
2020/01/31 09:23:05.7	91.330	0.340	0.400	-0.960
2020/01/31 09:23:05.8	91.330	0.310	0.410	-0.910
2020/01/31 09:23:05.9	91.320	0.280	0.410	-0.850
2020/01/31 09:23:06.0	91.320	0.250	0.410	-0.780
2020/01/31 09:23:06.1	91.310	0.220	0.410	-0.720
2020/01/31 09:23:06.2	91.310	0.190	0.400	-0.640
2020/01/31 09:23:06.3	91.300	0.170	0.390	-0.570
2020/01/31 09:23:06.4	91.300	0.140	0.370	-0.490
2020/01/31 09:23:06.5	91.300	0.110	0.350	-0.410
2020/01/31 09:23:06.6	91.290	0.090	0.330	-0.330
2020/01/31 09:23:06.7	91.280	0.070	0.300	-0.250
2020/01/31 09:23:06.8	91.280	0.050	0.270	-0.160
2020/01/31 09:23:06.9	91.270	0.030	0.240	-0.080
2020/01/31 09:23:07.0	91.270	0.010	0.200	0.000
2020/01/31 09:23:07.1	91.260	-0.000	0.160	0.090
2020/01/31 09:23:07.2	91.260	-0.020	0.120	0.170
2020/01/31 09:23:07.3	91.240	-0.030	0.080	0.260
2020/01/31 09:23:07.4	91.230	-0.050	0.030	0.340
2020/01/31 09:23:07.5	91.230	-0.060	-0.010	0.420
2020/01/31 09:23:07.6	91.230	-0.070	-0.060	0.510
2020/01/31 09:23:07.7	91.230	-0.080	-0.100	0.590
2020/01/31 09:23:07.8	91.220	-0.080	-0.150	0.670
2020/01/31 09:23:07.9	91.220	-0.090	-0.190	0.740
2020/01/31 09:23:08.0	91.220	-0.100	-0.240	0.820
2020/01/31 09:23:08.1	91.230	-0.110	-0.280	0.890
2020/01/31 09:23:08.2	91.230	-0.110	-0.320	0.970
2020/01/31 09:23:08.3	91.220	-0.120	-0.350	1.030
2020/01/31 09:23:08.4	91.220	-0.120	-0.390	1.100
2020/01/31 09:23:08.5	91.230	-0.130	-0.420	1.170
2020/01/31 09:23:08.6	91.240	-0.140	-0.450	1.230
2020/01/31 09:23:08.7	91.250	-0.140	-0.480	1.290
2020/01/31 09:23:08.8	91.260	-0.150	-0.500	1.350
2020/01/31 09:23:08.9	91.270	-0.160	-0.520	1.410
2020/01/31 09:23:09.0	91.290	-0.170	-0.540	1.460
2020/01/31 09:23:09.1	91.300	-0.180	-0.550	1.510
2020/01/31 09:23:09.2	91.320	-0.190	-0.560	1.560
2020/01/31 09:23:09.3	91.340	-0.200	-0.560	1.600
2020/01/31 09:23:09.4	91.340	-0.210	-0.550	1.640
2020/01/31 09:23:09.5	91.360	-0.220	-0.550	1.680
2020/01/31 09:23:09.6	91.380	-0.230	-0.530	1.710
2020/01/31 09:23:09.7	91.390	-0.250	-0.520	1.750
2020/01/31 09:23:09.8	91.410	-0.260	-0.500	1.770
2020/01/31 09:23:09.9	91.430	-0.270	-0.470	1.800
2020/01/31 09:23:10.0	91.440	-0.290	-0.450	1.820
2020/01/31 09:23:10.1	91.460	-0.300	-0.410	1.840
2020/01/31 09:23:10.2	91.470	-0.320	-0.380	1.850
2020/01/31 09:23:10.3	91.490	-0.340	-0.340	1.860
2020/01/31 09:23:10.4	91.520	-0.350	-0.300	1.870
2020/01/31 09:23:10.5	91.530	-0.360	-0.260	1.870
2020/01/31 09:23:10.6	91.540	-0.380	-0.220	1.870
2020/01/31 09:23:10.7	91.550	-0.390	-0.170	1.870
2020/01/31 09:23:10.8	91.560	-0.400	-0.130	1.860
2020/01/31 09:23:10.9	91.570	-0.410	-0.080	1.850
2020/01/31 09:23:11.0	91.580	-0.420	-0.030	1.840
2020/01/31 09:23:11.1	91.590	-0.430	0.010	1.820
2020/01/31 09:23:11.2	91.600	-0.440	0.060	1.800
2020/01/31 09:23:11.3	91.610	-0.440	0.100	1.780
2020/01/31 09:23:11.4	91.620	-0.440	0.140	1.750
2020/01/31 09:23:11.5	91.630	-0.440	0.180	1.720
2020/01/31 09:23:11.6	91.640	-0.440	0.220	1.680
2020/01/31 09:23:11.7	91.660	-0.430	0.250	1.640
2020/01/31 09:23:11.8	91.670	-0.420	0.270	1.600
2020/01/31 09:23:11.9	91.690	-0.410	0.300	1.550
2020/01/31 09:23:12.0	91.700	-0.390	0.310	1.490
2020/01/31 09:23:12.1	91.720	-0.370	0.320	1.440
2020/01/31 09:23:12.2	91.740	-0.350	0.320	1.380
2020/01/31 09:23:12.3	91.770	-0.330	0.320	1.310
2020/01/31 09:23:12.4	91.790	-0.300	0.310	1.240
2020/01/31 09:23:12.5	91.820	-0.270	0.290	1.170
2020/01/31 09:23:12.6	91.850	-0.240	0.260	1.090
2020/01/31 09:23:12.7	91.880	-0.210	0.230	1.010
2020/01/31 09:23:12.8	91.920	-0.170	0.190	0.930
2020/01/31 09:23:12.9	91.950	-0.130	0.150	0.840
2020/01/31 09:23:13.0	91.990	-0.090	0.100	0.760
2020/01/31 09:23:13.1	92.030	-0.050	0.050	0.670
2020/01/31 09:23:13.2	92.070	-0.010	-0.010	0.580
2020/01/31 09:23:13.3	92.110	0.040	-0.070	0.490
2020/01/31 09:23:13.4	92.160	0.080	-0.140	0.410
2020/01/31 09:23:13.5	92.200	0.120	-0.200	0.330
2020/01/31 09:23:13.6	92.240	0.160	-0.270	0.240
2020/01/31 09:23:13.7	92.280	0.210	-0.340	0.160
2020/01/31 09:23:13.8	92.310	0.250	-0.410	0.080
2020/01/31 09:23:13.9	92.350	0.280	-0.470	0.010
2020/01/31 09:23:14.0	92.380	0.320	-0.540	-0.070
2020/01/31 09:23:14.1	92.420	0.350	-0.600	-0.130
2020/01/31 09:23:14.2	92.450	0.380	-0.660	-0.200
2020/01/31 09:23:14.3	92.480	0.410	-0.710	-0.270
2020/01/31 09:23:14.4	92.500	0.440	-0.760	-0.320
2020/01/31 09:23:14.5	92.520	0.460	-0.800	-0.370
2020/01/31 09:23:14.6	92.540	0.470	-0.840	-0.420
2020/01/31 09:23:14.7	92.550	0.490	-0.860	-0.460
2020/01/31 09:23:14.8	92.560	0.500	-0.890	-0.500
2020/01/31 09:23:14.9	92.570	0.500	-0.900	-0.540
2020/01/31 09:23:15.0	92.570	0.500	-0.910	-0.570
2020/01/31 09:23:15.1	92.570	0.490	-0.910	-0.600
2020/01/31 09:23:15.2	92.560	0.480	-0.900	-0.620
2020/01/31 09:23:15.3	92.550	0.470	-0.880	-0.640
2020/01/31 09:23:15.4	92.540	0.450	-0.850	-0.660
2020/01/31 09:23:15.5	92.530	0.430	-0.820	-0.680
2020/01/31 09:23:15.6	92.510	0.400	-0.780	-0.690
2020/01/31 09:23:15.7	92.490	0.370	-0.740	-0.700
2020/01/31 09:23:15.8	92.470	0.340	-0.690	-0.710
2020/01/31 09:23:15.9	92.450	0.300	-0.630	-0.720
2020/01/31 09:23:16.0	92.420	0.270	-0.570	-0.730
2020/01/31 09:23:16.1	92.390	0.220	-0.500	-0.730
2020/01/31 09:23:16.2	92.360	0.180	-0.420	-0.730
2020/01/31 09:23:16.3	92.330	0.130	-0.350	-0.730
2020/01/31 09:23:16.4	92.290	0.090	-0.270	-0.740
2020/01/31 09:23:16.5	92.250	0.040	-0.190	-0.730
2020/01/31 09:23:16.6	92.220	-0.010	-0.110	-0.730
2020/01/31 09:23:16.7	92.180	-0.060	-0.020	-0.720
2020/01/31 09:23:16.8	92.140	-0.110	0.060	-0.710
2020/01/31 09:23:16.9	92.100	-0.160	0.140	-0.700
2020/01/31 09:23:17.0	92.060	-0.210	0.220	-0.690
2020/01/31 09:23:17.1	92.020	-0.250	0.300	-0.670
2020/01/31 09:23:17.2	91.970	-0.300	0.370	-0.660
2020/01/31 09:23:17.3	91.930	-0.340	0.440	-0.640
2020/01/31 09:23:17.4	91.890	-0.380	0.510	-0.620
2020/01/31 09:23:17.5	91.850	-0.420	0.560	-0.610
2020/01/31 09:23:17.6	91.810	-0.450	0.620	-0.590
2020/01/31 09:23:17.7	91.770	-0.480	0.660	-0.580
2020/01/31 09:23:17.8	91.740	-0.510	0.700	-0.560
2020/01/31 09:23:17.9	91.700	-0.530	0.730	-0.550
2020/01/31 09:23:18.0	91.670	-0.550	0.750	-0.540
2020/01/31 09:23:18.1	91.650	-0.570	0.760	-0.530
2020/01/31 09:23:18.2	91.620	-0.580	0.760	-0.520
2020/01/31 09:23:18.3	91.610	-0.580	0.750	-0.510
2020/01/31 09:23:18.4	91.590	-0.580	0.730	-0.500
2020/01/31 09:23:18.5	91.570	-0.580	0.710	-0.500
2020/01/31 09:23:18.6	91.560	-0.570	0.680	-0.490
2020/01/31 09:23:18.7	91.550	-0.560	0.640	-0.490
2020/01/31 09:23:18.8	91.550	-0.540	0.590	-0.490
2020/01/31 09:23:18.9	91.550	-0.520	0.530	-0.490
2020/01/31 09:23:19.0	91.550	-0.490	0.470	-0.490
2020/01/31 09:23:19.1	91.560	-0.460	0.400	-0.490
2020/01/31 09:23:19.2	91.570	-0.430	0.320	-0.500
2020/01/31 09:23:19.3	91.560	-0.390	0.240	-0.500
2020/01/31 09:23:19.4	91.580	-0.350	0.150	-0.510
2020/01/31 09:23:19.5	91.600	-0.310	0.060	-0.510
2020/01/31 09:23:19.6	91.620	-0.260	-0.030	-0.520
2020/01/31 09:23:19.7	91.650	-0.210	-0.120	-0.530
2020/01/31 09:23:19.8	91.670	-0.160	-0.210	-0.540
2020/01/31 09:23:19.9	91.700	-0.110	-0.300	-0.540
2020/01/31 09:23:20.0	91.730	-0.050	-0.390	-0.550
2020/01/31 09:23:20.1	91.760	-0.000	-0.480	-0.560
2020/01/31 09:23:20.2	91.800	0.050	-0.560	-0.560
2020/01/31 09:23:20.3	91.830	0.110	-0.650	-0.570
2020/01/31 09:23:20.4	91.890	0.160	-0.720	-0.570
2020/01/31 09:23:20.5	91.920	0.210	-0.790	-0.570
2020/01/31 09:23:20.6	91.960	0.260	-0.860	-0.570
2020/01/31 09:23:20.7	91.990	0.310	-0.920	-0.570
2020/01/31 09:23:20.8	92.030	0.350	-0.970	-0.560
2020/01/31 09:23:20.9	92.060	0.400	-1.020	-0.560
2020/01/31 09:23:21.0	92.090	0.430	-1.060	-0.550
2020/01/31 09:23:21.1	92.130	0.470	-1.090	-0.540
2020/01/31 09:23:21.2	92.160	0.500	-1.110	-0.530
2020/01/31 09:23:21.3	92.200	0.530	-1.120	-0.520
2020/01/31 09:23:21.4	92.220	0.550	-1.130	-0.510
2020/01/31 09:23:21.5	92.250	0.570	-1.120	-0.490
2020/01/31 09:23:21.6	92.280	0.590	-1.110	-0.470
2020/01/31 09:23:21.7	92.310	0.600	-1.090	-0.450
2020/01/31 09:23:21.8	92.330	0.600	-1.050	-0.430
2020/01/31 09:23:21.9	92.350	0.600	-1.010	-0.400
2020/01/31 09:23:22.0	92.370	0.590	-0.970	-0.380
2020/01/31 09:23:22.1	92.390	0.580	-0.910	-0.350
2020/01/31 09:23:22.2	92.410	0.570	-0.850	-0.320
2020/01/31 09:23:22.3	92.440	0.550	-0.790	-0.290
2020/01/31 09:23:22.4	92.460	0.520	-0.710	-0.260
2020/01/31 09:23:22.5	92.470	0.500	-0.640	-0.220
2020/01/31 09:23:22.6	92.480	0.460	-0.550	-0.190
2020/01/31 09:23:22.7	92.480	0.430	-0.470	-0.150
2020/01/31 09:23:22.8	92.490	0.390	-0.380	-0.110
2020/01/31 09:23:22.9	92.490	0.350	-0.280	-0.070
2020/01/31 09:23:23.0	92.490	0.310	-0.190	-0.030
2020/01/31 09:23:23.1	92.490	0.260	-0.100	0.010
2020/01/31 09:23:23.2	92.480	0.210	-0.000	0.060
2020/01/31 09:23:23.3	92.470	0.170	0.090	0.110
2020/01/31 09:23:23.4	92.450	0.120	0.180	0.150
2020/01/31 09:23:23.5	92.430	0.070	0.260	0.200
2020/01/31 09:23:23.6	92.420	0.030	0.350	0.260
2020/01/31 09:23:23.7	92.400	-0.020	0.430	0.310
2020/01/31 09:23:23.8	92.380	-0.070	0.500	0.370
2020/01/31 09:23:23.9	92.350	-0.110	0.570	0.420
2020/01/31 09:23:24.0	92.330	-0.150	0.640	0.480
2020/01/31 09:23:24.1	92.300	-0.190	0.700	0.540
2020/01/31 09:23:24.2	92.270	-0.220	0.750	0.600
2020/01/31 09:23:24.3	92.220	-0.260	0.790	0.660
2020/01/31 09:23:24.4	92.180	-0.290	0.830	0.720
2020/01/31 09:23:24.5	92.150	-0.310	0.860	0.780
2020/01/31 09:23:24.6	92.120	-0.340	0.880	0.840
2020/01/31 09:23:24.7	92.080	-0.360	0.890	0.900
2020/01/31 09:23:24.8	92.050	-0.370	0.900	0.960
2020/01/31 09:23:24.9	92.010	-0.380	0.890	1.020
2020/01/31 09:23:25.0	91.970	-0.390	0.880	1.080
2020/01/31 09:23:25.1	91.940	-0.390	0.870	1.140
2020/01/31 09:23:25.2	91.900	-0.390	0.840	1.190
2020/01/31 09:23:25.3	91.860	-0.390	0.800	1.250
2020/01/31 09:23:25.4	91.820	-0.380	0.760	1.300
2020/01/31 09:23:25.5	91.790	-0.370	0.720	1.340
2020/01/31 09:23:25.6	91.760	-0.350	0.660	1.390
2020/01/31 09:23:25.7	91.730	-0.330	0.600	1.430
2020/01/31 09:23:25.8	91.700	-0.310	0.530	1.470
2020/01/31 09:23:25.9	91.670	-0.290	0.460	1.510
2020/01/31 09:23:26.0	91.640	-0.260	0.380	1.540
2020/01/31 09:23:26.1	91.610	-0.240	0.300	1.570
2020/01/31 09:23:26.2	91.590	-0.200	0.210	1.590
2020/01/31 09:23:26.3	91.580	-0.170	0.130	1.610
2020/01/31 09:23:26.4	91.560	-0.140	0.040	1.620
2020/01/31 09:23:26.5	91.540	-0.100	-0.060	1.630
2020/01/31 09:23:26.6	91.520	-0.070	-0.150	1.640
2020/01/31 09:23:26.7	91.510	-0.030	-0.240	1.640
2020/01/31 09:23:26.8	91.500	0.000	-0.340	1.640
2020/01/31 09:23:26.9	91.490	0.040	-0.430	1.630
2020/01/31 09:23:27.0	91.480	0.070	-0.520	1.620
2020/01/31 09:23:27.1	91.470	0.110	-0.610	1.600
2020/01/31 09:23:27.2	91.470	0.140	-0.690	1.580
2020/01/31 09:23:27.3	91.470	0.170	-0.770	1.550
2020/01/31 09:23:27.4	91.480	0.200	-0.850	1.520
2020/01/31 09:23:27.5	91.480	0.230	-0.920	1.490
2020/01/31 09:23:27.6	91.480	0.260	-0.980	1.450
2020/01/31 09:23:27.7	91.480	0.280	-1.040	1.410
2020/01/31 09:23:27.8	91.480	0.300	-1.090	1.360
2020/01/31 09:23:27.9	91.480	0.320	-1.130	1.320
2020/01/31 09:23:28.0	91.480	0.340	-1.170	1.270
2020/01/31 09:23:28.1	91.480	0.350	-1.200	1.220
2020/01/31 09:23:28.2	91.490	0.360	-1.210	1.160
2020/01/31 09:23:28.3	91.490	0.370	-1.220	1.110
2020/01/31 09:23:28.4	91.490	0.380	-1.230	1.050
2020/01/31 09:23:28.5	91.490	0.380	-1.220	0.990
2020/01/31 09:23:28.6	91.490	0.380	-1.200	0.930
2020/01/31 09:23:28.7	91.490	0.370	-1.180	0.870
2020/01/31 09:23:28.8	91.490	0.370	-1.150	0.810
2020/01/31 09:23:28.9	91.490	0.360	-1.110	0.740
2020/01/31 09:23:29.0	91.490	0.350	-1.060	0.680
2020/01/31 09:23:29.1	91.490	0.330	-1.010	0.610
2020/01/31 09:23:29.2	91.490	0.320	-0.950	0.550
2020/01/31 09:23:29.3	91.490	0.300	-0.890	0.480
2020/01/31 09:23:29.4	91.500	0.280	-0.820	0.410
2020/01/31 09:23:29.5	91.500	0.260	-0.750	0.350
2020/01/31 09:23:29.6	91.500	0.240	-0.680	0.280
2020/01/31 09:23:29.7	91.500	0.220	-0.600	0.210
2020/01/31 09:23:29.8	91.500	0.190	-0.530	0.150
2020/01/31 09:23:29.9	91.500	0.170	-0.450	0.080
2020/01/31 09:23:30.0	91.510	0.140	-0.370	0.020
2020/01/31 09:23:30.1	91.510	0.120	-0.300	-0.040
2020/01/31 09:23:30.2	91.510	0.090	-0.220	-0.100
2020/01/31 09:23:30.3	91.520	0.070	-0.150	-0.160
2020/01/31 09:23:30.4	91.530	0.040	-0.080	-0.220
2020/01/31 09:23:30.5	91.530	0.020	-0.020	-0.280
2020/01/31 09:23:30.6	91.540	-0.010	0.050	-0.330
2020/01/31 09:23:30.7	91.550	-0.030	0.100	-0.380
2020/01/31 09:23:30.8	91.560	-0.050	0.160	-0.430
2020/01/31 09:23:30.9	91.560	-0.070	0.210	-0.470
2020/01/31 09:23:31.0	91.570	-0.090	0.250	-0.520
2020/01/31 09:23:31.1	91.580	-0.110	0.290	-0.560
2020/01/31 09:23:31.2	91.590	-0.130	0.320	-0.590
2020/01/31 09:23:31.3	91.590	-0.150	0.350	-0.630
2020/01/31 09:23:31.4	91.600	-0.160	0.370	-0.660
2020/01/31 09:23:31.5	91.610	-0.170	0.390	-0.680
2020/01/31 09:23:31.6	91.620	-0.190	0.400	-0.710
2020/01/31 09:23:31.7	91.630	-0.200	0.410	-0.720
2020/01/31 09:23:31.8	91.640	-0.210	0.420	-0.740
2020/01/31 09:23:31.9	91.640	-0.220	0.420	-0.740
2020/01/31 09:23:32.0	91.650	-0.220	0.420	-0.750
2020/01/31 09:23:32.1	91.650	-0.230	0.410	-0.750
2020/01/31 09:23:32.2	91.660	-0.230	0.400	-0.750
2020/01/31 09:23:32.3	91.670	-0.230	0.390	-0.740
2020/01/31 09:23:32.4	91.670	-0.240	0.380	-0.730
2020/01/31 09:23:32.5	91.670	-0.240	0.360	-0.710
2020/01/31 09:23:32.6	91.660	-0.240	0.340	-0.690
2020/01/31 09:23:32.7	91.660	-0.230	0.320	-0.670
2020/01/31 09:23:32.8	91.650	-0.230	0.290	-0.640
2020/01/31 09:23:32.9	91.640	-0.230	0.270	-0.610
2020/01/31 09:23:33.0	91.630	-0.220	0.240	-0.580
2020/01/31 09:23:33.1	91.620	-0.220	0.210	-0.540
2020/01/31 09:23:33.2	91.600	-0.210	0.180	-0.500
2020/01/31 09:23:33.3	91.590	-0.200	0.150	-0.460
2020/01/31 09:23:33.4	91.580	-0.190	0.120	-0.420
2020/01/31 09:23:33.5	91.560	-0.190	0.090	-0.370
2020/01/31 09:23:33.6	91.530	-0.180	0.060	-0.320
2020/01/31 09:23:33.7	91.510	-0.170	0.030	-0.280
2020/01/31 09:23:33.8	91.490	-0.160	-0.000	-0.230
2020/01/31 09:23:33.9	91.470	-0.150	-0.030	-0.180
2020/01/31 09:23:34.0	91.440	-0.140	-0.060	-0.130
2020/01/31 09:23:34.1	91.420	-0.130	-0.090	-0.080
2020/01/31 09:23:34.2	91.390	-0.120	-0.120	-0.030
2020/01/31 09:23:34.3	91.370	-0.120	-0.140	0.020
2020/01/31 09:23:34.4	91.330	-0.110	-0.170	0.060
2020/01/31 09:23:34.5	91.300	-0.100	-0.190	0.110
2020/01/31 09:23:34.6	91.280	-0.100	-0.210	0.160
2020/01/31 09:23:34.7	91.250	-0.090	-0.230	0.200
2020/01/31 09:23:34.8	91.220	-0.090	-0.240	0.250
2020/01/31 09:23:34.9	91.190	-0.080	-0.260	0.300
2020/01/31 09:23:35.0	91.160	-0.080	-0.270	0.340
2020/01/31 09:23:35.1	91.130	-0.080	-0.280	0.380
2020/01/31 09:23:35.2	91.110	-0.080	-0.290	0.430
2020/01/31 09:23:35.3	91.070	-0.080	-0.290	0.470
2020/01/31 09:23:35.4	91.040	-0.070	-0.300	0.510
2020/01/31 09:23:35.5	91.010	-0.070	-0.300	0.550
2020/01/31 09:23:35.6	90.980	-0.070	-0.300	0.580
2020/01/31 09:23:35.7	90.950	-0.070	-0.300	0.620
2020/01/31 09:23:35.8	90.920	-0.080	-0.300	0.650
2020/01/31 09:23:35.9	90.900	-0.080	-0.300	0.680
2020/01/31 09:23:36.0	90.870	-0.080	-0.300	0.710
2020/01/31 09:23:36.1	90.850	-0.080	-0.290	0.740
2020/01/31 09:23:36.2	90.830	-0.080	-0.290	0.760
2020/01/31 09:23:36.3	90.800	-0.080	-0.280	0.780
2020/01/31 09:23:36.4	90.780	-0.080	-0.280	0.800
2020/01/31 09:23:36.5	90.770	-0.080	-0.270	0.810
2020/01/31 09:23:36.6	90.750	-0.090	-0.270	0.820
2020/01/31 09:23:36.7	90.750	-0.090	-0.260	0.820
2020/01/31 09:23:36.8	90.740	-0.090	-0.260	0.820
2020/01/31 09:23:36.9	90.740	-0.090	-0.250	0.810
2020/01/31 09:23:37.0	90.750	-0.090	-0.240	0.810
2020/01/31 09:23:37.1	90.750	-0.090	-0.240	0.790
2020/01/31 09:23:37.2	90.760	-0.090	-0.230	0.770
2020/01/31 09:23:37.3	90.780	-0.080	-0.220	0.750
2020/01/31 09:23:37.4	90.790	-0.080	-0.220	0.730
2020/01/31 09:23:37.5	90.810	-0.080	-0.220	0.700
2020/01/31 09:23:37.6	90.830	-0.080	-0.210	0.660
2020/01/31 09:23:37.7	90.850	-0.070	-0.210	0.630
2020/01/31 09:23:37.8	90.880	-0.070	-0.200	0.590
2020/01/31 09:23:37.9	90.910	-0.070	-0.190	0.560
2020/01/31 09:23:38.0	90.940	-0.060	-0.190	0.510
2020/01/31 09:23:38.1	90.970	-0.050	-0.180	0.470
2020/01/31 09:23:38.2	91.010	-0.050	-0.180	0.430
2020/01/31 09:23:38.3	91.050	-0.040	-0.170	0.390
2020/01/31 09:23:38.4	91.090	-0.030	-0.170	0.350
2020/01/31 09:23:38.5	91.120	-0.020	-0.160	0.310
2020/01/31 09:23:38.6	91.150	-0.020	-0.150	0.270
2020/01/31 09:23:38.7	91.190	-0.010	-0.150	0.230
2020/01/31 09:23:38.8	91.220	0.000	-0.140	0.190
2020/01/31 09:23:38.9	91.250	0.010	-0.130	0.160
2020/01/31 09:23:39.0	91.280	0.030	-0.130	0.120
2020/01/31 09:23:39.1	91.310	0.040	-0.120	0.090
2020/01/31 09:23:39.2	91.340	0.050	-0.110	0.060
2020/01/31 09:23:39.3	91.370	0.060	-0.110	0.040
2020/01/31 09:23:39.4	91.390	0.070	-0.100	0.020
2020/01/31 09:23:39.5	91.420	0.080	-0.100	-0.000
2020/01/31 09:23:39.6	91.440	0.090	-0.090	-0.020
2020/01/31 09:23:39.7	91.460	0.110	-0.080	-0.040
2020/01/31 09:23:39.8	91.470	0.120	-0.080	-0.050
2020/01/31 09:23:39.9	91.490	0.130	-0.080	-0.060
2020/01/31 09:23:40.0	91.500	0.140	-0.070	-0.060
2020/01/31 09:23:40.1	91.510	0.150	-0.070	-0.070
2020/01/31 09:23:40.2	91.520	0.160	-0.070	-0.070
2020/01/31 09:23:40.3	91.520	0.180	-0.070	-0.060
2020/01/31 09:23:40.4	91.520	0.190	-0.080	-0.050
2020/01/31 09:23:40.5	91.520	0.200	-0.080	-0.040
2020/01/31 09:23:40.6	91.520	0.210	-0.090	-0.030
2020/01/31 09:23:40.7	91.510	0.220	-0.100	-0.020
2020/01/31 09:23:40.8	91.500	0.230	-0.110	-0.000
2020/01/31 09:23:40.9	91.480	0.240	-0.120	0.020
2020/01/31 09:23:41.0	91.470	0.250	-0.140	0.040
2020/01/31 09:23:41.1	91.440	0.260	-0.160	0.060
2020/01/31 09:23:41.2	91.420	0.270	-0.180	0.080
2020/01/31 09:23:41.3	91.400	0.280	-0.200	0.110
2020/01/31 09:23:41.4	91.340	0.290	-0.230	0.130
2020/01/31 09:23:41.5	91.310	0.300	-0.260	0.160
2020/01/31 09:23:41.6	91.270	0.300	-0.290	0.200
2020/01/31 09:23:41.7	91.240	0.310	-0.320	0.230
2020/01/31 09:23:41.8	91.200	0.320	-0.350	0.260
2020/01/31 09:23:41.9	91.160	0.330	-0.380	0.300
2020/01/31 09:23:42.0	91.120	0.330	-0.420	0.330
2020/01/31 09:23:42.1	91.070	0.340	-0.450	0.370
2020/01/31 09:23:42.2	91.030	0.350	-0.490	0.410
2020/01/31 09:23:42.3	90.980	0.350	-0.520	0.440
2020/01/31 09:23:42.4	90.940	0.360	-0.560	0.480
2020/01/31 09:23:42.5	90.890	0.360	-0.590	0.510
2020/01/31 09:23:42.6	90.850	0.360	-0.620	0.550
2020/01/31 09:23:42.7	90.810	0.360	-0.640	0.580
2020/01/31 09:23:42.8	90.770	0.360	-0.670	0.610
2020/01/31 09:23:42.9	90.730	0.360	-0.690	0.640
2020/01/31 09:23:43.0	90.690	0.360	-0.700	0.670
2020/01/31 09:23:43.1	90.660	0.350	-0.710	0.690
2020/01/31 09:23:43.2	90.630	0.350	-0.720	0.720
2020/01/31 09:23:43.3	90.590	0.340	-0.720	0.730
2020/01/31 09:23:43.4	90.560	0.330	-0.710	0.750
2020/01/31 09:23:43.5	90.540	0.320	-0.700	0.760
2020/01/31 09:23:43.6	90.520	0.310	-0.680	0.770
2020/01/31 09:23:43.7	90.510	0.290	-0.660	0.780
2020/01/31 09:23:43.8	90.500	0.280	-0.640	0.780
2020/01/31 09:23:43.9	90.490	0.260	-0.600	0.780
2020/01/31 09:23:44.0	90.490	0.240	-0.570	0.770
2020/01/31 09:23:44.1	90.490	0.220	-0.520	0.770
2020/01/31 09:23:44.2	90.490	0.190	-0.480	0.750
2020/01/31 09:23:44.3	90.500	0.170	-0.420	0.740
2020/01/31 09:23:44.4	90.500	0.140	-0.370	0.720
2020/01/31 09:23:44.5	90.520	0.110	-0.310	0.700
2020/01/31 09:23:44.6	90.530	0.090	-0.250	0.680
2020/01/31 09:23:44.7	90.550	0.060	-0.180	0.650
2020/01/31 09:23:44.8	90.580	0.020	-0.120	0.620
2020/01/31 09:23:44.9	90.600	-0.010	-0.050	0.590
2020/01/31 09:23:45.0	90.630	-0.040	0.020	0.550
2020/01/31 09:23:45.1	90.660	-0.070	0.090	0.520
2020/01/31 09:23:45.2	90.690	-0.100	0.160	0.480
2020/01/31 09:23:45.3	90.730	-0.140	0.230	0.440
2020/01/31 09:23:45.4	90.760	-0.170	0.300	0.390
2020/01/31 09:23:45.5	90.800	-0.200	0.360	0.350
2020/01/31 09:23:45.6	90.840	-0.230	0.430	0.300
2020/01/31 09:23:45.7	90.880	-0.260	0.490	0.250
2020/01/31 09:23:45.8	90.920	-0.290	0.540	0.200
2020/01/31 09:23:45.9	90.950	-0.320	0.590	0.150
2020/01/31 09:23:46.0	90.990	-0.350	0.630	0.100
2020/01/31 09:23:46.1	91.030	-0.370	0.670	0.050
2020/01/31 09:23:46.2	91.080	-0.390	0.710	-0.000
2020/01/31 09:23:46.3	91.130	-0.410	0.730	-0.050
2020/01/31 09:23:46.4	91.170	-0.430	0.750	-0.100
2020/01/31 09:23:46.5	91.210	-0.440	0.760	-0.150
2020/01/31 09:23:46.6	91.240	-0.460	0.770	-0.200
2020/01/31 09:23:46.7	91.280	-0.460	0.760	-0.250
2020/01/31 09:23:46.8	91.320	-0.470	0.750	-0.290
2020/01/31 09:23:46.9	91.350	-0.470	0.730	-0.330
2020/01/31 09:23:47.0	91.380	-0.470	0.710	-0.370
2020/01/31 09:23:47.1	91.410	-0.470	0.680	-0.410
2020/01/31 09:23:47.2	91.440	-0.460	0.640	-0.450
2020/01/31 09:23:47.3	91.470	-0.450	0.590	-0.480
2020/01/31 09:23:47.4	91.500	-0.440	0.530	-0.510
2020/01/31 09:23:47.5	91.520	-0.420	0.480	-0.540
2020/01/31 09:23:47.6	91.540	-0.410	0.410	-0.560
2020/01/31 09:23:47.7	91.550	-0.390	0.350	-0.580
2020/01/31 09:23:47.8	91.560	-0.360	0.280	-0.600
2020/01/31 09:23:47.9	91.570	-0.340	0.210	-0.610
2020/01/31 09:23:48.0	91.580	-0.320	0.130	-0.620
2020/01/31 09:23:48.1	91.580	-0.290	0.060	-0.630
2020/01/31 09:23:48.2	91.590	-0.270	-0.020	-0.630
2020/01/31 09:23:48.3	91.590	-0.240	-0.090	-0.630
2020/01/31 09:23:48.4	91.600	-0.210	-0.160	-0.620
2020/01/31 09:23:48.5	91.590	-0.190	-0.230	-0.610
2020/01/31 09:23:48.6	91.590	-0.160	-0.300	-0.600
2020/01/31 09:23:48.7	91.580	-0.130	-0.360	-0.580
2020/01/31 09:23:48.8	91.570	-0.110	-0.420	-0.570
2020/01/31 09:23:48.9	91.560	-0.090	-0.470	-0.550
2020/01/31 09:23:49.0	91.540	-0.070	-0.520	-0.520
2020/01/31 09:23:49.1	91.530	-0.050	-0.570	-0.500
2020/01/31 09:23:49.2	91.520	-0.030	-0.600	-0.470
2020/01/31 09:23:49.3	91.520	-0.010	-0.640	-0.440
2020/01/31 09:23:49.4	91.510	0.000	-0.670	-0.400
2020/01/31 09:23:49.5	91.490	0.020	-0.690	-0.370
2020/01/31 09:23:49.6	91.480	0.030	-0.710	-0.330
2020/01/31 09:23:49.7	91.460	0.030	-0.720	-0.290
2020/01/31 09:23:49.8	91.450	0.040	-0.730	-0.250
2020/01/31 09:23:49.9	91.430	0.050	-0.730	-0.200
2020/01/31 09:23:50.0	91.420	0.050	-0.730	-0.160
2020/01/31 09:23:50.1	91.410	0.050	-0.730	-0.110
2020/01/31 09:23:50.2	91.390	0.050	-0.720	-0.060
2020/01/31 09:23:50.3	91.390	0.050	-0.700	-0.010
2020/01/31 09:23:50.4	91.370	0.050	-0.690	0.050
2020/01/31 09:23:50.5	91.360	0.040	-0.680	0.100
2020/01/31 09:23:50.6	91.350	0.040	-0.660	0.160
2020/01/31 09:23:50.7	91.340	0.030	-0.640	0.210
2020/01/31 09:23:50.8	91.330	0.030	-0.620	0.270
2020/01/31 09:23:50.9	91.320	0.030	-0.600	0.330
2020/01/31 09:23:51.0	91.310	0.020	-0.580	0.380
2020/01/31 09:23:51.1	91.300	0.020	-0.560	0.440
2020/01/31 09:23:51.2	91.290	0.020	-0.540	0.500
2020/01/31 09:23:51.3	91.280	0.010	-0.530	0.550
2020/01/31 09:23:51.4	91.250	0.010	-0.520	0.600
2020/01/31 09:23:51.5	91.240	0.010	-0.500	0.660
2020/01/31 09:23:51.6	91.240	0.010	-0.490	0.710
2020/01/31 09:23:51.7	91.230	0.010	-0.470	0.760
2020/01/31 09:23:51.8	91.230	0.020	-0.460	0.800
2020/01/31 09:23:51.9	91.230	0.020	-0.450	0.850
2020/01/31 09:23:52.0	91.230	0.030	-0.440	0.890
2020/01/31 09:23:52.1	91.230	0.030	-0.440	0.930
2020/01/31 09:23:52.2	91.230	0.040	-0.430	0.960
2020/01/31 09:23:52.3	91.230	0.050	-0.430	0.990
2020/01/31 09:23:52.4	91.230	0.060	-0.430	1.020
2020/01/31 09:23:52.5	91.240	0.070	-0.430	1.040
2020/01/31 09:23:52.6	91.240	0.080	-0.430	1.060
2020/01/31 09:23:52.7	91.250	0.090	-0.430	1.070
2020/01/31 09:23:52.8	91.260	0.110	-0.440	1.080
2020/01/31 09:23:52.9	91.280	0.120	-0.440	1.090
2020/01/31 09:23:53.0	91.290	0.140	-0.440	1.080
2020/01/31 09:23:53.1	91.310	0.150	-0.450	1.080
2020/01/31 09:23:53.2	91.330	0.160	-0.450	1.070
2020/01/31 09:23:53.3	91.360	0.180	-0.460	1.050
2020/01/31 09:23:53.4	91.380	0.190	-0.460	1.030
2020/01/31 09:23:53.5	91.410	0.200	-0.470	1.000
2020/01/31 09:23:53.6	91.440	0.220	-0.470	0.980
2020/01/31 09:23:53.7	91.470	0.230	-0.460	0.940
2020/01/31 09:23:53.8	91.510	0.240	-0.460	0.910
2020/01/31 09:23:53.9	91.540	0.250	-0.450	0.870
2020/01/31 09:23:54.0	91.580	0.260	-0.440	0.830
2020/01/31 09:23:54.1	91.620	0.270	-0.430	0.790
2020/01/31 09:23:54.2	91.670	0.270	-0.410	0.750
2020/01/31 09:23:54.3	91.710	0.280	-0.390	0.700
2020/01/31 09:23:54.4	91.750	0.280	-0.360	0.670
2020/01/31 09:23:54.5	91.800	0.280	-0.330	0.620
2020/01/31 09:23:54.6	91.840	0.280	-0.300	0.580
2020/01/31 09:23:54.7	91.880	0.270	-0.260	0.550
2020/01/31 09:23:54.8	91.930	0.270	-0.210	0.510
2020/01/31 09:23:54.9	91.970	0.260	-0.160	0.480
2020/01/31 09:23:55.0	92.010	0.240	-0.110	0.440
2020/01/31 09:23:55.1	92.040	0.230	-0.050	0.420
2020/01/31 09:23:55.2	92.080	0.210	0.020	0.390
2020/01/31 09:23:55.3	92.110	0.190	0.080	0.370
2020/01/31 09:23:55.4	92.140	0.170	0.150	0.350
2020/01/31 09:23:55.5	92.170	0.150	0.220	0.340
2020/01/31 09:23:55.6	92.190	0.120	0.290	0.330
2020/01/31 09:23:55.7	92.210	0.090	0.370	0.320
2020/01/31 09:23:55.8	92.230	0.060	0.440	0.310
2020/01/31 09:23:55.9	92.240	0.030	0.520	0.310
2020/01/31 09:23:56.0	92.260	-0.010	0.590	0.300
2020/01/31 09:23:56.1	92.260	-0.050	0.660	0.300
2020/01/31 09:23:56.2	92.270	-0.080	0.730	0.300
2020/01/31 09:23:56.3	92.270	-0.120	0.790	0.300
2020/01/31 09:23:56.4	92.270	-0.160	0.850	0.310
2020/01/31 09:23:56.5	92.270	-0.200	0.900	0.310
2020/01/31 09:23:56.6	92.260	-0.240	0.950	0.310
2020/01/31 09:23:56.7	92.250	-0.280	0.990	0.310
2020/01/31 09:23:56.8	92.240	-0.320	1.020	0.310
2020/01/31 09:23:56.9	92.220	-0.350	1.050	0.310
2020/01/31 09:23:57.0	92.210	-0.390	1.070	0.310
2020/01/31 09:23:57.1	92.190	-0.420	1.070	0.300
2020/01/31 09:23:57.2	92.170	-0.450	1.070	0.290
2020/01/31 09:23:57.3	92.150	-0.480	1.070	0.280
2020/01/31 09:23:57.4	92.130	-0.510	1.050	0.270
2020/01/31 09:23:57.5	92.110	-0.530	1.020	0.250
2020/01/31 09:23:57.6	92.090	-0.550	0.980	0.230
2020/01/31 09:23:57.7	92.070	-0.560	0.930	0.210
2020/01/31 09:23:57.8	92.050	-0.570	0.880	0.190
2020/01/31 09:23:57.9	92.030	-0.580	0.820	0.160
2020/01/31 09:23:58.0	92.010	-0.580	0.740	0.130
2020/01/31 09:23:58.1	92.000	-0.580	0.660	0.100
2020/01/31 09:23:58.2	91.980	-0.570	0.580	0.070
2020/01/31 09:23:58.3	91.980	-0.560	0.480	0.040
2020/01/31 09:23:58.4	91.970	-0.540	0.380	0.000
2020/01/31 09:23:58.5	91.960	-0.520	0.280	-0.030
2020/01/31 09:23:58.6	91.950	-0.500	0.170	-0.070
2020/01/31 09:23:58.7	91.940	-0.470	0.050	-0.110
2020/01/31 09:23:58.8	91.930	-0.440	-0.070	-0.140
2020/01/31 09:23:58.9	91.930	-0.400	-0.190	-0.180
2020/01/31 09:23:59.0	91.930	-0.360	-0.310	-0.210
2020/01/31 09:23:59.1	91.930	-0.310	-0.430	-0.250
2020/01/31 09:23:59.2	91.940	-0.270	-0.550	-0.280
2020/01/31 09:23:59.3	91.930	-0.220	-0.680	-0.320
2020/01/31 09:23:59.4	91.940	-0.170	-0.800	-0.350
2020/01/31 09:23:59.5	91.960	-0.110	-0.910	-0.380
2020/01/31 09:23:59.6	91.970	-0.060	-1.020	-0.410
2020/01/31 09:23:59.7	91.990	-0.000	-1.130	-0.440
2020/01/31 09:23:59.8	92.010	0.050	-1.230	-0.460
2020/01/31 09:23:59.9	92.040	0.110	-1.330	-0.490
2020/01/31 09:24:00.0	92.060	0.160	-1.420	-0.510
2020/01/31 09:24:00.1	92.090	0.220	-1.500	-0.530
2020/01/31 09:24:00.2	92.120	0.270	-1.570	-0.550
2020/01/31 09:24:00.3	92.140	0.320	-1.630	-0.570
2020/01/31 09:24:00.4	92.170	0.370	-1.680	-0.590
2020/01/31 09:24:00.5	92.210	0.410	-1.730	-0.600
2020/01/31 09:24:00.6	92.240	0.460	-1.760	-0.620
2020/01/31 09:24:00.7	92.280	0.490	-1.780	-0.630
2020/01/31 09:24:00.8	92.320	0.530	-1.790	-0.640
2020/01/31 09:24:00.9	92.350	0.560	-1.790	-0.650
2020/01/31 09:24:01.0	92.390	0.590	-1.780	-0.660
2020/01/31 09:24:01.1	92.430	0.610	-1.750	-0.670
2020/01/31 09:24:01.2	92.470	0.630	-1.720	-0.680
2020/01/31 09:24:01.3	92.510	0.640	-1.670	-0.690
2020/01/31 09:24:01.4	92.560	0.650	-1.610	-0.690
2020/01/31 09:24:01.5	92.600	0.650	-1.550	-0.690
2020/01/31 09:24:01.6	92.630	0.650	-1.470	-0.690
2020/01/31 09:24:01.7	92.670	0.640	-1.380	-0.690
2020/01/31 09:24:01.8	92.700	0.630	-1.280	-0.690
2020/01/31 09:24:01.9	92.730	0.610	-1.180	-0.690
2020/01/31 09:24:02.0	92.760	0.590	-1.060	-0.680
2020/01/31 09:24:02.1	92.800	0.570	-0.940	-0.670
2020/01/31 09:24:02.2	92.820	0.540	-0.820	-0.660
2020/01/31 09:24:02.3	92.850	0.500	-0.690	-0.640
2020/01/31 09:24:02.4	92.880	0.470	-0.560	-0.630
2020/01/31 09:24:02.5	92.900	0.430	-0.420	-0.610
2020/01/31 09:24:02.6	92.930	0.390	-0.290	-0.580
2020/01/31 09:24:02.7	92.950	0.340	-0.150	-0.550
2020/01/31 09:24:02.8	92.970	0.300	-0.020	-0.520
2020/01/31 09:24:02.9	92.990	0.250	0.110	-0.490
2020/01/31 09:24:03.0	93.010	0.200	0.240	-0.450
2020/01/31 09:24:03.1	93.020	0.150	0.370	-0.410
2020/01/31 09:24:03.2	93.040	0.100	0.490	-0.370
2020/01/31 09:24:03.3	93.040	0.060	0.600	-0.320
2020/01/31 09:24:03.4	93.050	0.010	0.700	-0.280
2020/01/31 09:24:03.5	93.060	-0.040	0.800	-0.220
2020/01/31 09:24:03.6	93.070	-0.080	0.890	-0.170
2020/01/31 09:24:03.7	93.080	-0.120	0.970	-0.110
2020/01/31 09:24:03.8	93.080	-0.160	1.040	-0.050
2020/01/31 09:24:03.9	93.090	-0.200	1.110	0.010
2020/01/31 09:24:04.0	93.090	-0.230	1.160	0.070
2020/01/31 09:24:04.1	93.100	-0.260	1.200	0.140
2020/01/31 09:24:04.2	93.100	-0.290	1.230	0.200
2020/01/31 09:24:04.3	93.100	-0.310	1.250	0.270
2020/01/31 09:24:04.4	93.100	-0.330	1.260	0.330
2020/01/31 09:24:04.5	93.090	-0.350	1.260	0.400
2020/01/31 09:24:04.6	93.090	-0.370	1.250	0.460
2020/01/31 09:24:04.7	93.090	-0.380	1.230	0.530
2020/01/31 09:24:04.8	93.090	-0.380	1.200	0.590
2020/01/31 09:24:04.9	93.090	-0.390	1.160	0.650
2020/01/31 09:24:05.0	93.090	-0.390	1.110	0.710
2020/01/31 09:24:05.1	93.090	-0.380	1.050	0.770
2020/01/31 09:24:05.2	93.090	-0.380	0.990	0.830
2020/01/31 09:24:05.3	93.090	-0.370	0.920	0.880
2020/01/31 09:24:05.4	93.090	-0.360	0.850	0.930
2020/01/31 09:24:05.5	93.090	-0.350	0.770	0.980
2020/01/31 09:24:05.6	93.090	-0.330	0.690	1.020
2020/01/31 09:24:05.7	93.100	-0.320	0.600	1.060
2020/01/31 09:24:05.8	93.110	-0.300	0.510	1.090
2020/01/31 09:24:05.9	93.120	-0.280	0.420	1.130
2020/01/31 09:24:06.0	93.130	-0.260	0.320	1.150
2020/01/31 09:24:06.1	93.140	-0.240	0.230	1.180
2020/01/31 09:24:06.2	93.150	-0.220	0.140	1.200
2020/01/31 09:24:06.3	93.170	-0.200	0.040	1.210
2020/01/31 09:24:06.4	93.180	-0.180	-0.050	1.230
2020/01/31 09:24:06.5	93.200	-0.160	-0.130	1.240
2020/01/31 09:24:06.6	93.220	-0.140	-0.220	1.250
2020/01/31 09:24:06.7	93.250	-0.120	-0.300	1.250
2020/01/31 09:24:06.8	93.270	-0.110	-0.380	1.250
2020/01/31 09:24:06.9	93.290	-0.090	-0.460	1.250
2020/01/31 09:24:07.0	93.320	-0.080	-0.530	1.240
2020/01/31 09:24:07.1	93.350	-0.060	-0.590	1.230
2020/01/31 09:24:07.2	93.380	-0.050	-0.650	1.230
2020/01/31 09:24:07.3	93.430	-0.040	-0.710	1.210
2020/01/31 09:24:07.4	93.460	-0.030	-0.760	1.200
2020/01/31 09:24:07.5	93.490	-0.020	-0.810	1.180
2020/01/31 09:24:07.6	93.520	-0.020	-0.840	1.170
2020/01/31 09:24:07.7	93.560	-0.010	-0.880	1.150
2020/01/31 09:24:07.8	93.590	-0.010	-0.910	1.130
2020/01/31 09:24:07.9	93.630	-0.010	-0.930	1.110
2020/01/31 09:24:08.0	93.660	-0.010	-0.950	1.090
2020/01/31 09:24:08.1	93.690	-0.010	-0.960	1.070
2020/01/31 09:24:08.2	93.730	-0.010	-0.960	1.050
2020/01/31 09:24:08.3	93.760	-0.010	-0.960	1.030
2020/01/31 09:24:08.4	93.800	-0.020	-0.960	1.010
2020/01/31 09:24:08.5	93.830	-0.020	-0.950	0.990
2020/01/31 09:24:08.6	93.860	-0.020	-0.940	0.980
2020/01/31 09:24:08.7	93.890	-0.030	-0.920	0.960
2020/01/31 09:24:08.8	93.910	-0.030	-0.900	0.940
2020/01/31 09:24:08.9	93.940	-0.030	-0.880	0.920
2020/01/31 09:24:09.0	93.970	-0.030	-0.850	0.910
2020/01/31 09:24:09.1	93.990	-0.040	-0.820	0.890
2020/01/31 09:24:09.2	94.010	-0.040	-0.790	0.880
2020/01/31 09:24:09.3	94.010	-0.040	-0.760	0.860
2020/01/31 09:24:09.4	94.030	-0.040	-0.720	0.850
2020/01/31 09:24:09.5	94.040	-0.040	-0.690	0.840
2020/01/31 09:24:09.6	94.060	-0.030	-0.650	0.830
2020/01/31 09:24:09.7	94.070	-0.030	-0.610	0.820
2020/01/31 09:24:09.8	94.080	-0.030	-0.570	0.810
2020/01/31 09:24:09.9	94.090	-0.020	-0.530	0.800
2020/01/31 09:24:10.0	94.100	-0.020	-0.500	0.790
2020/01/31 09:24:10.1	94.100	-0.010	-0.460	0.780
2020/01/31 09:24:10.2	94.110	-0.000	-0.420	0.770
2020/01/31 09:24:10.3	94.080	0.000	-0.380	0.760
2020/01/31 09:24:10.4	94.090	0.010	-0.350	0.750
2020/01/31 09:24:10.5	94.090	0.020	-0.310	0.740
2020/01/31 09:24:10.6	94.090	0.030	-0.270	0.730
2020/01/31 09:24:10.7	94.090	0.040	-0.240	0.710
2020/01/31 09:24:10.8	94.090	0.050	-0.210	0.700
2020/01/31 09:24:10.9	94.090	0.050	-0.170	0.680
2020/01/31 09:24:11.0	94.100	0.060	-0.140	0.670
2020/01/31 09:24:11.1	94.100	0.070	-0.110	0.650
2020/01/31 09:24:11.2	94.100	0.080	-0.090	0.630
2020/01/31 09:24:11.3	94.100	0.090	-0.060	0.610
2020/01/31 09:24:11.4	94.090	0.100	-0.030	0.580
2020/01/31 09:24:11.5	94.100	0.100	-0.010	0.560
2020/01/31 09:24:11.6	94.100	0.110	0.010	0.530
2020/01/31 09:24:11.7	94.110	0.110	0.030	0.500
2020/01/31 09:24:11.8	94.120	0.120	0.050	0.470
2020/01/31 09:24:11.9	94.130	0.120	0.070	0.440
2020/01/31 09:24:12.0	94.140	0.120	0.080	0.410
2020/01/31 09:24:12.1	94.160	0.120	0.100	0.370
2020/01/31 09:24:12.2	94.170	0.120	0.110	0.340
2020/01/31 09:24:12.3	94.180	0.120	0.120	0.290
2020/01/31 09:24:12.4	94.200	0.120	0.130	0.250
2020/01/31 09:24:12.5	94.220	0.120	0.130	0.210
2020/01/31 09:24:12.6	94.250	0.110	0.140	0.170
2020/01/31 09:24:12.7	94.270	0.110	0.140	0.120
2020/01/31 09:24:12.8	94.300	0.100	0.140	0.070
2020/01/31 09:24:12.9	94.320	0.100	0.150	0.030
2020/01/31 09:24:13.0	94.350	0.090	0.150	-0.020
2020/01/31 09:24:13.1	94.380	0.080	0.150	-0.070
2020/01/31 09:24:13.2	94.410	0.080	0.140	-0.120
2020/01/31 09:24:13.3	94.430	0.070	0.140	-0.170
2020/01/31 09:24:13.4	94.460	0.060	0.140	-0.210
2020/01/31 09:24:13.5	94.490	0.050	0.130	-0.260
2020/01/31 09:24:13.6	94.530	0.040	0.130	-0.310
2020/01/31 09:24:13.7	94.560	0.030	0.120	-0.350
2020/01/31 09:24:13.8	94.590	0.020	0.120	-0.400
2020/01/31 09:24:13.9	94.630	0.010	0.120	-0.440
2020/01/31 09:24:14.0	94.660	0.010	0.110	-0.480
2020/01/31 09:24:14.1	94.690	-0.000	0.110	-0.520
2020/01/31 09:24:14.2	94.730	-0.010	0.110	-0.550
2020/01/31 09:24:14.3	94.760	-0.020	0.110	-0.580
2020/01/31 09:24:14.4	94.790	-0.030	0.110	-0.610
2020/01/31 09:24:14.5	94.820	-0.040	0.110	-0.640
2020/01/31 09:24:14.6	94.860	-0.050	0.110	-0.660
2020/01/31 09:24:14.7	94.890	-0.060	0.110	-0.680
2020/01/31 09:24:14.8	94.920	-0.070	0.120	-0.700
2020/01/31 09:24:14.9	94.950	-0.080	0.120	-0.720
2020/01/31 09:24:15.0	94.980	-0.090	0.130	-0.730
2020/01/31 09:24:15.1	95.010	-0.100	0.130	-0.740
2020/01/31 09:24:15.2	95.040	-0.110	0.140	-0.740
2020/01/31 09:24:15.3	95.070	-0.120	0.140	-0.740
2020/01/31 09:24:15.4	95.090	-0.130	0.150	-0.750
2020/01/31 09:24:15.5	95.120	-0.130	0.150	-0.740
2020/01/31 09:24:15.6	95.140	-0.140	0.160	-0.740
2020/01/31 09:24:15.7	95.170	-0.150	0.160	-0.730
2020/01/31 09:24:15.8	95.190	-0.150	0.160	-0.720
2020/01/31 09:24:15.9	95.220	-0.160	0.160	-0.710
2020/01/31 09:24:16.0	95.240	-0.160	0.160	-0.690
2020/01/31 09:24:16.1	95.260	-0.160	0.160	-0.670
2020/01/31 09:24:16.2	95.280	-0.160	0.150	-0.650
2020/01/31 09:24:16.3	95.310	-0.160	0.140	-0.620
2020/01/31 09:24:16.4	95.330	-0.160	0.130	-0.600
2020/01/31 09:24:16.5	95.350	-0.160	0.120	-0.570
2020/01/31 09:24:16.6	95.370	-0.150	0.100	-0.540
2020/01/31 09:24:16.7	95.390	-0.140	0.080	-0.510
2020/01/31 09:24:16.8	95.400	-0.130	0.050	-0.480
2020/01/31 09:24:16.9	95.420	-0.120	0.020	-0.450
2020/01/31 09:24:17.0	95.440	-0.100	-0.020	-0.410
2020/01/31 09:24:17.1	95.460	-0.090	-0.060	-0.380
2020/01/31 09:24:17.2	95.470	-0.070	-0.100	-0.340
2020/01/31 09:24:17.3	95.500	-0.040	-0.150	-0.300
2020/01/31 09:24:17.4	95.510	-0.020	-0.200	-0.260
2020/01/31 09:24:17.5	95.530	0.010	-0.250	-0.220
2020/01/31 09:24:17.6	95.550	0.040	-0.310	-0.190
2020/01/31 09:24:17.7	95.560	0.070	-0.370	-0.150
2020/01/31 09:24:17.8	95.580	0.100	-0.440	-0.110
2020/01/31 09:24:17.9	95.600	0.140	-0.500	-0.070
2020/01/31 09:24:18.0	95.610	0.170	-0.570	-0.030
2020/01/31 09:24:18.1	95.630	0.210	-0.630	0.010
2020/01/31 09:24:18.2	95.650	0.250	-0.700	0.050
2020/01/31 09:24:18.3	95.670	0.290	-0.770	0.090
2020/01/31 09:24:18.4	95.690	0.330	-0.830	0.130
2020/01/31 09:24:18.5	95.710	0.370	-0.890	0.170
2020/01/31 09:24:18.6	95.730	0.410	-0.950	0.200
2020/01/31 09:24:18.7	95.750	0.450	-1.000	0.240
2020/01/31 09:24:18.8	95.770	0.480	-1.050	0.280
2020/01/31 09:24:18.9	95.790	0.520	-1.100	0.320
2020/01/31 09:24:19.0	95.810	0.550	-1.140	0.360
2020/01/31 09:24:19.1	95.830	0.590	-1.170	0.400
2020/01/31 09:24:19.2	95.850	0.620	-1.200	0.440
2020/01/31 09:24:19.3	95.880	0.640	-1.220	0.490
2020/01/31 09:24:19.4	95.900	0.670	-1.230	0.530
2020/01/31 09:24:19.5	95.920	0.690	-1.230	0.570
2020/01/31 09:24:19.6	95.940	0.700	-1.230	0.620
2020/01/31 09:24:19.7	95.950	0.710	-1.210	0.660
2020/01/31 09:24:19.8	95.970	0.720	-1.190	0.700
2020/01/31 09:24:19.9	95.990	0.720	-1.160	0.740
2020/01/31 09:24:20.0	96.010	0.720	-1.120	0.780
2020/01/31 09:24:20.1	96.020	0.710	-1.070	0.820
2020/01/31 09:24:20.2	96.040	0.690	-1.020	0.860
2020/01/31 09:24:20.3	96.070	0.670	-0.950	0.900
2020/01/31 09:24:20.4	96.090	0.650	-0.880	0.940
2020/01/31 09:24:20.5	96.100	0.620	-0.800	0.970
2020/01/31 09:24:20.6	96.120	0.590	-0.720	1.010
2020/01/31 09:24:20.7	96.130	0.550	-0.630	1.040
2020/01/31 09:24:20.8	96.150	0.500	-0.530	1.070
2020/01/31 09:24:20.9	96.160	0.460	-0.430	1.090
2020/01/31 09:24:21.0	96.180	0.400	-0.330	1.120
2020/01/31 09:24:21.1	96.200	0.350	-0.220	1.140
2020/01/31 09:24:21.2	96.210	0.290	-0.110	1.160
2020/01/31 09:24:21.3	96.240	0.230	0.000	1.180
2020/01/31 09:24:21.4	96.250	0.170	0.110	1.200
2020/01/31 09:24:21.5	96.270	0.100	0.230	1.210
2020/01/31 09:24:21.6	96.290	0.030	0.340	1.210
2020/01/31 09:24:21.7	96.310	-0.030	0.440	1.220
2020/01/31 09:24:21.8	96.330	-0.100	0.550	1.220
2020/01/31 09:24:21.9	96.360	-0.170	0.650	1.220
2020/01/31 09:24:22.0	96.380	-0.240	0.750	1.220
2020/01/31 09:24:22.1	96.410	-0.310	0.840	1.210
2020/01/31 09:24:22.2	96.430	-0.370	0.930	1.200
2020/01/31 09:24:22.3	96.460	-0.430	1.010	1.180
2020/01/31 09:24:22.4	96.490	-0.500	1.080	1.170
2020/01/31 09:24:22.5	96.520	-0.550	1.150	1.150
2020/01/31 09:24:22.6	96.550	-0.610	1.200	1.130
2020/01/31 09:24:22.7	96.580	-0.660	1.250	1.110
2020/01/31 09:24:22.8	96.620	-0.710	1.290	1.090
2020/01/31 09:24:22.9	96.650	-0.750	1.320	1.060
2020/01/31 09:24:23.0	96.690	-0.790	1.340	1.040
2020/01/31 09:24:23.1	96.720	-0.830	1.350	1.010
2020/01/31 09:24:23.2	96.760	-0.860	1.350	0.980
2020/01/31 09:24:23.3	96.790	-0.880	1.340	0.950
2020/01/31 09:24:23.4	96.830	-0.900	1.320	0.920
2020/01/31 09:24:23.5	96.870	-0.920	1.290	0.890
2020/01/31 09:24:23.6	96.910	-0.930	1.250	0.860
2020/01/31 09:24:23.7	96.950	-0.940	1.200	0.830
2020/01/31 09:24:23.8	96.990	-0.940	1.140	0.800
2020/01/31 09:24:23.9	97.020	-0.930	1.070	0.770
2020/01/31 09:24:24.0	97.060	-0.920	0.990	0.740
2020/01/31 09:24:24.1	97.090	-0.910	0.910	0.710
2020/01/31 09:24:24.2	97.130	-0.890	0.810	0.680
2020/01/31 09:24:24.3	97.160	-0.870	0.710	0.640
2020/01/31 09:24:24.4	97.190	-0.840	0.600	0.610
2020/01/31 09:24:24.5	97.220	-0.810	0.480	0.580
2020/01/31 09:24:24.6	97.250	-0.780	0.360	0.560
2020/01/31 09:24:24.7	97.280	-0.740	0.240	0.530
2020/01/31 09:24:24.8	97.300	-0.700	0.120	0.500
2020/01/31 09:24:24.9	97.320	-0.650	-0.010	0.470
2020/01/31 09:24:25.0	97.340	-0.600	-0.140	0.440
2020/01/31 09:24:25.1	97.360	-0.560	-0.270	0.420
2020/01/31 09:24:25.2	97.370	-0.500	-0.400	0.390
2020/01/31 09:24:25.3	97.390	-0.450	-0.530	0.360
2020/01/31 09:24:25.4	97.410	-0.400	-0.660	0.340
2020/01/31 09:24:25.5	97.420	-0.340	-0.780	0.310
2020/01/31 09:24:25.6	97.430	-0.290	-0.900	0.280
2020/01/31 09:24:25.7	97.440	-0.230	-1.010	0.260
2020/01/31 09:24:25.8	97.440	-0.180	-1.120	0.230
2020/01/31 09:24:25.9	97.450	-0.120	-1.220	0.210
2020/01/31 09:24:26.0	97.460	-0.060	-1.310	0.180
2020/01/31 09:24:26.1	97.460	-0.010	-1.400	0.160
2020/01/31 09:24:26.2	97.460	0.040	-1.470	0.140
2020/01/31 09:24:26.3	97.470	0.090	-1.540	0.120
2020/01/31 09:24:26.4	97.480	0.140	-1.600	0.100
2020/01/31 09:24:26.5	97.480	0.190	-1.640	0.080
2020/01/31 09:24:26.6	97.490	0.240	-1.680	0.060
2020/01/31 09:24:26.7	97.490	0.280	-1.710	0.040
2020/01/31 09:24:26.8	97.500	0.320	-1.720	0.020
2020/01/31 09:24:26.9	97.510	0.360	-1.730	0.010
2020/01/31 09:24:27.0	97.510	0.400	-1.720	-0.010
2020/01/31 09:24:27.1	97.520	0.430	-1.700	-0.020
2020/01/31 09:24:27.2	97.530	0.460	-1.680	-0.030
2020/01/31 09:24:27.3	97.560	0.480	-1.640	-0.050
2020/01/31 09:24:27.4	97.570	0.510	-1.600	-0.060
2020/01/31 09:24:27.5	97.580	0.530	-1.540	-0.070
2020/01/31 09:24:27.6	97.590	0.540	-1.480	-0.070
2020/01/31 09:24:27.7	97.610	0.550	-1.410	-0.080
2020/01/31 09:24:27.8	97.620	0.560	-1.330	-0.090
2020/01/31 09:24:27.9	97.640	0.570	-1.250	-0.100
2020/01/31 09:24:28.0	97.650	0.570	-1.160	-0.100
2020/01/31 09:24:28.1	97.670	0.570	-1.060	-0.110
2020/01/31 09:24:28.2	97.690	0.560	-0.960	-0.120
2020/01/31 09:24:28.3	97.710	0.560	-0.860	-0.130
2020/01/31 09:24:28.4	97.730	0.550	-0.760	-0.130
2020/01/31 09:24:28.5	97.760	0.530	-0.650	-0.150
2020/01/31 09:24:28.6	97.780	0.520	-0.550	-0.160
2020/01/31 09:24:28.7	97.810	0.500	-0.440	-0.170
2020/01/31 09:24:28.8	97.840	0.480	-0.340	-0.190
2020/01/31 09:24:28.9	97.880	0.460	-0.230	-0.200
2020/01/31 09:24:29.0	97.910	0.440	-0.130	-0.220
2020/01/31 09:24:29.1	97.950	0.420	-0.030	-0.240
2020/01/31 09:24:29.2	97.990	0.390	0.060	-0.260
2020/01/31 09:24:29.3	98.010	0.370	0.150	-0.290
2020/01/31 09:24:29.4	98.060	0.340	0.240	-0.320
2020/01/31 09:24:29.5	98.100	0.320	0.320	-0.340
2020/01/31 09:24:29.6	98.140	0.290	0.400	-0.360
2020/01/31 09:24:29.7	98.190	0.270	0.470	-0.390
2020/01/31 09:24:29.8	98.230	0.240	0.540	-0.410
2020/01/31 09:24:29.9	98.280	0.220	0.610	-0.430
2020/01/31 09:24:30.0	98.320	0.190	0.660	-0.460
2020/01/31 09:24:30.1	98.360	0.170	0.720	-0.480
2020/01/31 09:24:30.2	98.410	0.150	0.760	-0.490
2020/01/31 09:24:30.3	98.440	0.130	0.800	-0.510
2020/01/31 09:24:30.4	98.480	0.110	0.840	-0.520
2020/01/31 09:24:30.5	98.520	0.090	0.870	-0.530
2020/01/31 09:24:30.6	98.550	0.080	0.890	-0.530
2020/01/31 09:24:30.7	98.580	0.060	0.910	-0.530
2020/01/31 09:24:30.8	98.610	0.050	0.920	-0.520
2020/01/31 09:24:30.9	98.640	0.040	0.930	-0.510
2020/01/31 09:24:31.0	98.660	0.030	0.940	-0.490
2020/01/31 09:24:31.1	98.680	0.020	0.930	-0.470
2020/01/31 09:24:31.2	98.690	0.020	0.930	-0.450
2020/01/31 09:24:31.3	98.690	0.010	0.920	-0.420
2020/01/31 09:24:31.4	98.690	0.010	0.900	-0.380
2020/01/31 09:24:31.5	98.700	0.000	0.880	-0.340
2020/01/31 09:24:31.6	98.700	-0.000	0.850	-0.300
2020/01/31 09:24:31.7	98.700	-0.000	0.820	-0.260
2020/01/31 09:24:31.8	98.700	-0.000	0.790	-0.210
2020/01/31 09:24:31.9	98.690	-0.000	0.750	-0.150
2020/01/31 09:24:32.0	98.690	-0.000	0.710	-0.100
2020/01/31 09:24:32.1	98.680	0.000	0.660	-0.050
2020/01/31 09:24:32.2	98.670	0.000	0.620	0.010
2020/01/31 09:24:32.3	98.660	0.000	0.560	0.070
2020/01/31 09:24:32.4	98.630	0.010	0.510	0.130
2020/01/31 09:24:32.5	98.620	0.010	0.460	0.180
2020/01/31 09:24:32.6	98.610	0.010	0.400	0.240
2020/01/31 09:24:32.7	98.600	0.020	0.340	0.290
2020/01/31 09:24:32.8	98.590	0.020	0.280	0.340
2020/01/31 09:24:32.9	98.590	0.020	0.210	0.390
2020/01/31 09:24:33.0	98.580	0.020	0.150	0.440
2020/01/31 09:24:33.1	98.580	0.030	0.080	0.480
2020/01/31 09:24:33.2	98.580	0.030	0.020	0.520
2020/01/31 09:24:33.3	98.570	0.030	-0.050	0.560
2020/01/31 09:24:33.4	98.570	0.040	-0.110	0.600
2020/01/31 09:24:33.5	98.570	0.040	-0.180	0.630
2020/01/31 09:24:33.6	98.580	0.040	-0.250	0.660
2020/01/31 09:24:33.7	98.590	0.040	-0.310	0.690
2020/01/31 09:24:33.8	98.610	0.050	-0.380	0.720
2020/01/31 09:24:33.9	98.620	0.050	-0.450	0.740
2020/01/31 09:24:34.0	98.640	0.050	-0.510	0.760
2020/01/31 09:24:34.1	98.660	0.050	-0.570	0.780
2020/01/31 09:24:34.2	98.680	0.060	-0.630	0.790
2020/01/31 09:24:34.3	98.690	0.060	-0.690	0.810
2020/01/31 09:24:34.4	98.720	0.060	-0.750	0.830
2020/01/31 09:24:34.5	98.750	0.070	-0.810	0.840
2020/01/31 09:24:34.6	98.770	0.070	-0.860	0.850
2020/01/31 09:24:34.7	98.800	0.070	-0.910	0.870
2020/01/31 09:24:34.8	98.830	0.080	-0.950	0.880
2020/01/31 09:24:34.9	98.860	0.080	-0.990	0.900
2020/01/31 09:24:35.0	98.890	0.080	-1.030	0.910
2020/01/31 09:24:35.1	98.920	0.080	-1.060	0.930
2020/01/31 09:24:35.2	98.960	0.080	-1.080	0.940
2020/01/31 09:24:35.3	98.990	0.090	-1.100	0.960
2020/01/31 09:24:35.4	99.020	0.090	-1.120	0.980
2020/01/31 09:24:35.5	99.050	0.090	-1.120	0.990
2020/01/31 09:24:35.6	99.080	0.080	-1.120	1.010
2020/01/31 09:24:35.7	99.120	0.080	-1.120	1.020
2020/01/31 09:24:35.8	99.140	0.080	-1.100	1.040
2020/01/31 09:24:35.9	99.170	0.070	-1.080	1.060
2020/01/31 09:24:36.0	99.200	0.060	-1.050	1.070
2020/01/31 09:24:36.1	99.230	0.060	-1.020	1.080
2020/01/31 09:24:36.2	99.250	0.050	-0.980	1.100
2020/01/31 09:24:36.3	99.300	0.040	-0.930	1.110
2020/01/31 09:24:36.4	99.320	0.030	-0.880	1.120
2020/01/31 09:24:36.5	99.350	0.010	-0.830	1.130
2020/01/31 09:24:36.6	99.370	-0.000	-0.760	1.140
2020/01/31 09:24:36.7	99.390	-0.020	-0.700	1.140
2020/01/31 09:24:36.8	99.420	-0.030	-0.630	1.140
2020/01/31 09:24:36.9	99.440	-0.050	-0.560	1.140
2020/01/31 09:24:37.0	99.460	-0.070	-0.480	1.140
2020/01/31 09:24:37.1	99.480	-0.090	-0.410	1.140
2020/01/31 09:24:37.2	99.500	-0.100	-0.330	1.130
2020/01/31 09:24:37.3	99.530	-0.120	-0.260	1.120
2020/01/31 09:24:37.4	99.550	-0.140	-0.180	1.110
2020/01/31 09:24:37.5	99.570	-0.160	-0.110	1.100
2020/01/31 09:24:37.6	99.590	-0.180	-0.040	1.090
2020/01/31 09:24:37.7	99.610	-0.190	0.030	1.070
2020/01/31 09:24:37.8	99.640	-0.210	0.100	1.050
2020/01/31 09:24:37.9	99.660	-0.220	0.160	1.040
2020/01/31 09:24:38.0	99.680	-0.230	0.220	1.010
2020/01/31 09:24:38.1	99.700	-0.240	0.270	0.990
2020/01/31 09:24:38.2	99.720	-0.250	0.320	0.970
2020/01/31 09:24:38.3	99.740	-0.260	0.360	0.940
2020/01/31 09:24:38.4	99.760	-0.260	0.390	0.920
2020/01/31 09:24:38.5	99.780	-0.260	0.420	0.900
2020/01/31 09:24:38.6	99.790	-0.260	0.440	0.870
2020/01/31 09:24:38.7	99.810	-0.260	0.460	0.850
2020/01/31 09:24:38.8	99.830	-0.250	0.470	0.830
2020/01/31 09:24:38.9	99.850	-0.250	0.480	0.800
2020/01/31 09:24:39.0	99.860	-0.240	0.470	0.780
2020/01/31 09:24:39.1	99.880	-0.220	0.470	0.760
2020/01/31 09:24:39.2	99.890	-0.210	0.460	0.740
2020/01/31 09:24:39.3	99.910	-0.190	0.430	0.720
2020/01/31 09:24:39.4	99.930	-0.170	0.410	0.700
2020/01/31 09:24:39.5	99.940	-0.150	0.380	0.690
2020/01/31 09:24:39.6	99.940	-0.130	0.350	0.670
2020/01/31 09:24:39.7	99.950	-0.110	0.310	0.650
2020/01/31 09:24:39.8	99.960	-0.080	0.280	0.640
2020/01/31 09:24:39.9	99.960	-0.060	0.230	0.620
2020/01/31 09:24:40.0	99.960	-0.030	0.190	0.610
2020/01/31 09:24:40.1	99.960	-0.010	0.140	0.600
2020/01/31 09:24:40.2	99.960	0.020	0.090	0.590
2020/01/31 09:24:40.3	99.970	0.040	0.040	0.580
2020/01/31 09:24:40.4	99.970	0.070	-0.010	0.570
2020/01/31 09:24:40.5	99.960	0.090	-0.060	0.560
2020/01/31 09:24:40.6	99.960	0.110	-0.110	0.550
2020/01/31 09:24:40.7	99.960	0.130	-0.170	0.540
2020/01/31 09:24:40.8	99.950	0.150	-0.220	0.530
2020/01/31 09:24:40.9	99.950	0.170	-0.270	0.510
2020/01/31 09:24:41.0	99.940	0.180	-0.320	0.500
2020/01/31 09:24:41.1	99.930	0.190	-0.370	0.490
2020/01/31 09:24:41.2	99.930	0.210	-0.410	0.480
2020/01/31 09:24:41.3	99.940	0.210	-0.460	0.460
2020/01/31 09:24:41.4	99.930	0.220	-0.490	0.440
2020/01/31 09:24:41.5	99.920	0.220	-0.530	0.430
2020/01/31 09:24:41.6	99.920	0.220	-0.560	0.410
2020/01/31 09:24:41.7	99.910	0.220	-0.590	0.380
2020/01/31 09:24:41.8	99.910	0.220	-0.610	0.360
2020/01/31 09:24:41.9	99.900	0.210	-0.630	0.340
2020/01/31 09:24:42.0	99.900	0.200	-0.650	0.310
2020/01/31 09:24:42.1	99.900	0.190	-0.660	0.280
2020/01/31 09:24:42.2	99.900	0.180	-0.660	0.260
2020/01/31 09:24:42.3	99.890	0.170	-0.660	0.220
2020/01/31 09:24:42.4	99.910	0.150	-0.660	0.190
2020/01/31 09:24:42.5	99.910	0.130	-0.650	0.160
2020/01/31 09:24:42.6	99.910	0.110	-0.630	0.130
2020/01/31 09:24:42.7	99.910	0.090	-0.610	0.090
2020/01/31 09:24:42.8	99.920	0.070	-0.590	0.060
2020/01/31 09:24:42.9	99.920	0.050	-0.560	0.030
2020/01/31 09:24:43.0	99.930	0.020	-0.530	-0.000
2020/01/31 09:24:43.1	99.940	-0.000	-0.490	-0.030
2020/01/31 09:24:43.2	99.950	-0.030	-0.450	-0.070
2020/01/31 09:24:43.3	99.970	-0.060	-0.410	-0.090
2020/01/31 09:24:43.4	99.980	-0.090	-0.360	-0.120
2020/01/31 09:24:43.5	99.990	-0.110	-0.310	-0.150
2020/01/31 09:24:43.6	100.010	-0.140	-0.260	-0.170
2020/01/31 09:24:43.7	100.020	-0.170	-0.200	-0.190
2020/01/31 09:24:43.8	100.040	-0.200	-0.140	-0.210
2020/01/31 09:24:43.9	100.060	-0.220	-0.080	-0.220
2020/01/31 09:24:44.0	100.070	-0.250	-0.020	-0.230
2020/01/31 09:24:44.1	100.090	-0.270	0.040	-0.240
2020/01/31 09:24:44.2	100.110	-0.300	0.100	-0.250
2020/01/31 09:24:44.3	100.130	-0.320	0.160	-0.250
2020/01/31 09:24:44.4	100.150	-0.340	0.220	-0.260
2020/01/31 09:24:44.5	100.170	-0.360	0.280	-0.260
2020/01/31 09:24:44.6	100.200	-0.380	0.330	-0.250
2020/01/31 09:24:44.7	100.220	-0.400	0.390	-0.250
2020/01/31 09:24:44.8	100.250	-0.410	0.440	-0.250
2020/01/31 09:24:44.9	100.270	-0.430	0.480	-0.240
2020/01/31 09:24:45.0	100.300	-0.440	0.520	-0.240
2020/01/31 09:24:45.1	100.330	-0.440	0.560	-0.230
2020/01/31 09:24:45.2	100.360	-0.450	0.590	-0.220
2020/01/31 09:24:45.3	100.390	-0.450	0.620	-0.220
2020/01/31 09:24:45.4	100.420	-0.450	0.640	-0.210
2020/01/31 09:24:45.5	100.450	-0.450	0.660	-0.200
2020/01/31 09:24:45.6	100.480	-0.450	0.670	-0.190
2020/01/31 09:24:45.7	100.520	-0.440	0.670	-0.180
2020/01/31 09:24:45.8	100.550	-0.430	0.670	-0.170
2020/01/31 09:24:45.9	100.590	-0.410	0.660	-0.170
2020/01/31 09:24:46.0	100.620	-0.400	0.640	-0.160
2020/01/31 09:24:46.1	100.660	-0.380	0.620	-0.150
2020/01/31 09:24:46.2	100.700	-0.360	0.590	-0.150
2020/01/31 09:24:46.3	100.730	-0.330	0.560	-0.140
2020/01/31 09:24:46.4	100.770	-0.310	0.520	-0.140
2020/01/31 09:24:46.5	100.810	-0.280	0.470	-0.140
2020/01/31 09:24:46.6	100.850	-0.250	0.420	-0.130
2020/01/31 09:24:46.7	100.890	-0.220	0.370	-0.130
2020/01/31 09:24:46.8	100.930	-0.180	0.310	-0.130
2020/01/31 09:24:46.9	100.970	-0.150	0.240	-0.120
2020/01/31 09:24:47.0	101.010	-0.110	0.180	-0.110
2020/01/31 09:24:47.1	101.040	-0.070	0.110	-0.110
2020/01/31 09:24:47.2	101.080	-0.030	0.030	-0.100
2020/01/31 09:24:47.3	101.110	0.010	-0.040	-0.080
2020/01/31 09:24:47.4	101.140	0.050	-0.120	-0.070
2020/01/31 09:24:47.5	101.180	0.090	-0.190	-0.050
2020/01/31 09:24:47.6	101.210	0.130	-0.270	-0.030
2020/01/31 09:24:47.7	101.230	0.180	-0.350	-0.000
2020/01/31 09:24:47.8	101.260	0.220	-0.430	0.030
2020/01/31 09:24:47.9	101.280	0.260	-0.500	0.060
2020/01/31 09:24:48.0	101.300	0.300	-0.570	0.100
2020/01/31 09:24:48.1	101.320	0.340	-0.640	0.140
2020/01/31 09:24:48.2	101.330	0.380	-0.710	0.180
2020/01/31 09:24:48.3	101.330	0.420	-0.780	0.230
2020/01/31 09:24:48.4	101.340	0.450	-0.840	0.290
2020/01/31 09:24:48.5	101.340	0.490	-0.900	0.340
2020/01/31 09:24:48.6	101.340	0.520	-0.950	0.400
2020/01/31 09:24:48.7	101.330	0.550	-0.990	0.470
2020/01/31 09:24:48.8	101.320	0.580	-1.030	0.540
2020/01/31 09:24:48.9	101.310	0.600	-1.070	0.610
2020/01/31 09:24:49.0	101.290	0.630	-1.100	0.680
2020/01/31 09:24:49.1	101.270	0.650	-1.120	0.750
2020/01/31 09:24:49.2	101.250	0.660	-1.130	0.830
2020/01/31 09:24:49.3	101.230	0.680	-1.140	0.900
2020/01/31 09:24:49.4	101.200	0.690	-1.150	0.980
2020/01/31 09:24:49.5	101.170	0.700	-1.140	1.050
2020/01/31 09:24:49.6	101.140	0.700	-1.130	1.130
2020/01/31 09:24:49.7	101.110	0.710	-1.120	1.200
2020/01/31 09:24:49.8	101.080	0.710	-1.090	1.280
2020/01/31 09:24:49.9	101.050	0.700	-1.060	1.350
2020/01/31 09:24:50.0	101.020	0.700	-1.030	1.410
2020/01/31 09:24:50.1	100.990	0.690	-0.990	1.480
2020/01/31 09:24:50.2	100.960	0.680	-0.950	1.540
2020/01/31 09:24:50.3	100.940	0.670	-0.890	1.600
2020/01/31 09:24:50.4	100.910	0.650	-0.840	1.650
2020/01/31 09:24:50.5	100.890	0.630	-0.780	1.700
2020/01/31 09:24:50.6	100.860	0.610	-0.720	1.740
2020/01/31 09:24:50.7	100.840	0.590	-0.660	1.780
2020/01/31 09:24:50.8	100.810	0.570	-0.590	1.810
2020/01/31 09:24:50.9	100.790	0.540	-0.520	1.840
2020/01/31 09:24:51.0	100.770	0.510	-0.460	1.860
2020/01/31 09:24:51.1	100.760	0.490	-0.390	1.870
2020/01/31 09:24:51.2	100.740	0.460	-0.320	1.880
2020/01/31 09:24:51.3	100.750	0.430	-0.260	1.880
2020/01/31 09:24:51.4	100.750	0.400	-0.200	1.880
2020/01/31 09:24:51.5	100.740	0.360	-0.130	1.880
2020/01/31 09:24:51.6	100.740	0.330	-0.070	1.870
2020/01/31 09:24:51.7	100.740	0.300	-0.010	1.850
2020/01/31 09:24:51.8	100.740	0.270	0.040	1.830
2020/01/31 09:24:51.9	100.740	0.240	0.090	1.810
2020/01/31 09:24:52.0	100.740	0.200	0.140	1.780
2020/01/31 09:24:52.1	100.750	0.170	0.190	1.750
2020/01/31 09:24:52.2	100.760	0.140	0.230	1.720
2020/01/31 09:24:52.3	100.760	0.110	0.260	1.690
2020/01/31 09:24:52.4	100.770	0.080	0.300	1.650
2020/01/31 09:24:52.5	100.780	0.050	0.320	1.610
2020/01/31 09:24:52.6	100.790	0.020	0.350	1.570
2020/01/31 09:24:52.7	100.810	-0.010	0.370	1.520
2020/01/31 09:24:52.8	100.820	-0.030	0.380	1.480
2020/01/31 09:24:52.9	100.830	-0.060	0.400	1.430
2020/01/31 09:24:53.0	100.850	-0.090	0.410	1.380
2020/01/31 09:24:53.1	100.860	-0.110	0.410	1.340
2020/01/31 09:24:53.2	100.880	-0.130	0.410	1.290
2020/01/31 09:24:53.3	100.910	-0.160	0.410	1.230
2020/01/31 09:24:53.4	100.930	-0.180	0.400	1.180
2020/01/31 09:24:53.5	100.940	-0.200	0.400	1.140
2020/01/31 09:24:53.6	100.960	-0.220	0.390	1.090
2020/01/31 09:24:53.7	100.980	-0.240	0.380	1.040
2020/01/31 09:24:53.8	101.000	-0.250	0.370	0.990
2020/01/31 09:24:53.9	101.020	-0.270	0.360	0.940
2020/01/31 09:24:54.0	101.050	-0.290	0.350	0.890
2020/01/31 09:24:54.1	101.070	-0.300	0.330	0.830
2020/01/31 09:24:54.2	101.100	-0.320	0.310	0.780
2020/01/31 09:24:54.3	101.120	-0.330	0.290	0.740
2020/01/31 09:24:54.4	101.150	-0.350	0.270	0.690
2020/01/31 09:24:54.5	101.180	-0.360	0.250	0.630
2020/01/31 09:24:54.6	101.210	-0.370	0.230	0.580
2020/01/31 09:24:54.7	101.250	-0.380	0.210	0.530
2020/01/31 09:24:54.8	101.280	-0.390	0.190	0.480
2020/01/31 09:24:54.9	101.320	-0.400	0.170	0.430
2020/01/31 09:24:55.0	101.360	-0.410	0.150	0.370
2020/01/31 09:24:55.1	101.400	-0.420	0.120	0.320
2020/01/31 09:24:55.2	101.440	-0.430	0.100	0.270
2020/01/31 09:24:55.3	101.470	-0.440	0.080	0.210
2020/01/31 09:24:55.4	101.520	-0.440	0.060	0.160
2020/01/31 09:24:55.5	101.560	-0.450	0.040	0.110
2020/01/31 09:24:55.6	101.600	-0.460	0.020	0.050
2020/01/31 09:24:55.7	101.640	-0.460	-0.000	0.000
2020/01/31 09:24:55.8	101.680	-0.470	-0.020	-0.040
2020/01/31 09:24:55.9	101.720	-0.470	-0.040	-0.090
2020/01/31 09:24:56.0	101.760	-0.480	-0.060	-0.130
2020/01/31 09:24:56.1	101.800	-0.480	-0.070	-0.170
2020/01/31 09:24:56.2	101.840	-0.480	-0.080	-0.210
2020/01/31 09:24:56.3	101.870	-0.490	-0.100	-0.240
2020/01/31 09:24:56.4	101.910	-0.490	-0.110	-0.270
2020/01/31 09:24:56.5	101.940	-0.490	-0.120	-0.290
2020/01/31 09:24:56.6	101.970	-0.500	-0.120	-0.310
2020/01/31 09:24:56.7	101.990	-0.500	-0.130	-0.330
2020/01/31 09:24:56.8	102.010	-0.500	-0.130	-0.340
2020/01/31 09:24:56.9	102.020	-0.500	-0.130	-0.340
2020/01/31 09:24:57.0	102.030	-0.500	-0.130	-0.340
2020/01/31 09:24:57.1	102.040	-0.500	-0.130	-0.330
2020/01/31 09:24:57.2	102.040	-0.500	-0.130	-0.320
2020/01/31 09:24:57.3	102.040	-0.500	-0.120	-0.310
2020/01/31 09:24:57.4	102.030	-0.490	-0.120	-0.280
2020/01/31 09:24:57.5	102.030	-0.490	-0.120	-0.250
2020/01/31 09:24:57.6	102.020	-0.480	-0.110	-0.220
2020/01/31 09:24:57.7	102.000	-0.480	-0.110	-0.180
2020/01/31 09:24:57.8	101.990	-0.470	-0.110	-0.140
2020/01/31 09:24:57.9	101.970	-0.460	-0.110	-0.100
2020/01/31 09:24:58.0	101.950	-0.450	-0.110	-0.050
2020/01/31 09:24:58.1	101.920	-0.430	-0.110	0.010
2020/01/31 09:24:58.2	101.900	-0.420	-0.110	0.060
2020/01/31 09:24:58.3	101.870	-0.410	-0.120	0.120
2020/01/31 09:24:58.4	101.840	-0.390	-0.130	0.180
2020/01/31 09:24:58.5	101.810	-0.370	-0.140	0.240
2020/01/31 09:24:58.6	101.780	-0.350	-0.150	0.300
2020/01/31 09:24:58.7	101.750	-0.330	-0.160	0.360
2020/01/31 09:24:58.8	101.720	-0.300	-0.180	0.420
2020/01/31 09:24:58.9	101.690	-0.280	-0.200	0.480
2020/01/31 09:24:59.0	101.660	-0.250	-0.230	0.540
2020/01/31 09:24:59.1	101.630	-0.220	-0.260	0.600
2020/01/31 09:24:59.2	101.590	-0.200	-0.290	0.660
2020/01/31 09:24:59.3	101.560	-0.170	-0.320	0.710
2020/01/31 09:24:59.4	101.540	-0.130	-0.350	0.760
2020/01/31 09:24:59.5	101.510	-0.100	-0.390	0.810
2020/01/31 09:24:59.6	101.490	-0.070	-0.430	0.860
2020/01/31 09:24:59.7	101.460	-0.040	-0.470	0.910
2020/01/31 09:24:59.8	101.440	-0.000	-0.510	0.950
2020/01/31 09:24:59.9	101.410	0.030	-0.550	0.980
2020/01/31 09:25:00.0	101.390	0.060	-0.590	1.020
2020/01/31 09:25:00.1	101.370	0.100	-0.630	1.050
2020/01/31 09:25:00.2	101.360	0.130	-0.670	1.070
2020/01/31 09:25:00.3	101.350	0.170	-0.700	1.100
2020/01/31 09:25:00.4	101.330	0.200	-0.730	1.120
2020/01/31 09:25:00.5	101.320	0.230	-0.770	1.130
2020/01/31 09:25:00.6	101.310	0.260	-0.790	1.150
2020/01/31 09:25:00.7	101.300	0.290	-0.820	1.160
2020/01/31 09:25:00.8	101.300	0.320	-0.840	1.160
2020/01/31 09:25:00.9	101.290	0.350	-0.860	1.170
2020/01/31 09:25:01.0	101.290	0.380	-0.870	1.170
2020/01/31 09:25:01.1	101.280	0.400	-0.880	1.160
2020/01/31 09:25:01.2	101.280	0.420	-0.880	1.160
2020/01/31 09:25:01.3	101.280	0.450	-0.880	1.150
2020/01/31 09:25:01.4	101.280	0.470	-0.870	1.140
2020/01/31 09:25:01.5	101.290	0.480	-0.850	1.130
2020/01/31 09:25:01.6	101.290	0.500	-0.840	1.110
2020/01/31 09:25:01.7	101.300	0.510	-0.810	1.090
2020/01/31 09:25:01.8	101.300	0.520	-0.790	1.070
2020/01/31 09:25:01.9	101.310	0.530	-0.750	1.050
2020/01/31 09:25:02.0	101.320	0.540	-0.720	1.020
2020/01/31 09:25:02.1	101.330	0.550	-0.680	0.990
2020/01/31 09:25:02.2	101.340	0.550	-0.630	0.970
2020/01/31 09:25:02.3	101.350	0.550	-0.580	0.940
2020/01/31 09:25:02.4	101.360	0.550	-0.530	0.910
2020/01/31 09:25:02.5	101.380	0.540	-0.480	0.870
2020/01/31 09:25:02.6	101.390	0.540	-0.420	0.840
2020/01/31 09:25:02.7	101.400	0.530	-0.360	0.810
2020/01/31 09:25:02.8	101.420	0.520	-0.300	0.770
2020/01/31 09:25:02.9	101.430	0.510	-0.230	0.740
2020/01/31 09:25:03.0	101.440	0.500	-0.170	0.700
2020/01/31 09:25:03.1	101.450	0.480	-0.110	0.670
2020/01/31 09:25:03.2	101.470	0.470	-0.040	0.640
2020/01/31 09:25:03.3	101.480	0.450	0.020	0.600
2020/01/31 09:25:03.4	101.480	0.430	0.080	0.570
2020/01/31 09:25:03.5	101.490	0.410	0.140	0.540
2020/01/31 09:25:03.6	101.500	0.390	0.200	0.510
2020/01/31 09:25:03.7	101.510	0.360	0.260	0.490
2020/01/31 09:25:03.8	101.520	0.340	0.320	0.460
2020/01/31 09:25:03.9	101.530	0.310	0.370	0.440
2020/01/31 09:25:04.0	101.540	0.290	0.420	0.420
2020/01/31 09:25:04.1	101.550	0.260	0.470	0.400
2020/01/31 09:25:04.2	101.560	0.240	0.510	0.380
2020/01/31 09:25:04.3	101.560	0.210	0.550	0.360
2020/01/31 09:25:04.4	101.570	0.180	0.590	0.350
2020/01/31 09:25:04.5	101.580	0.160	0.620	0.330
2020/01/31 09:25:04.6	101.590	0.130	0.650	0.320
2020/01/31 09:25:04.7	101.610	0.110	0.670	0.310
2020/01/31 09:25:04.8	101.620	0.080	0.680	0.300
2020/01/31 09:25:04.9	101.640	0.050	0.700	0.290
2020/01/31 09:25:05.0	101.660	0.030	0.700	0.290
2020/01/31 09:25:05.1	101.670	0.010	0.700	0.280
2020/01/31 09:25:05.2	101.690	-0.020	0.700	0.280
2020/01/31 09:25:05.3	101.710	-0.040	0.680	0.270
2020/01/31 09:25:05.4	101.740	-0.060	0.670	0.270
2020/01/31 09:25:05.5	101.760	-0.080	0.650	0.270
2020/01/31 09:25:05.6	101.780	-0.100	0.630	0.270
2020/01/31 09:25:05.7	101.800	-0.120	0.600	0.280
2020/01/31 09:25:05.8	101.820	-0.140	0.570	0.280
2020/01/31 09:25:05.9	101.850	-0.150	0.530	0.290
2020/01/31 09:25:06.0	101.870	-0.160	0.490	0.300
2020/01/31 09:25:06.1	101.890	-0.180	0.450	0.320
2020/01/31 09:25:06.2	101.910	-0.190	0.400	0.330
2020/01/31 09:25:06.3	101.920	-0.200	0.340	0.350
2020/01/31 09:25:06.4	101.940	-0.200	0.290	0.370
2020/01/31 09:25:06.5	101.960	-0.210	0.240	0.400
2020/01/31 09:25:06.6	101.970	-0.210	0.180	0.430
2020/01/31 09:25:06.7	101.980	-0.220	0.120	0.460
2020/01/31 09:25:06.8	102.000	-0.220	0.060	0.490
2020/01/31 09:25:06.9	102.000	-0.220	0.000	0.530
2020/01/31 09:25:07.0	102.010	-0.220	-0.060	0.560
2020/01/31 09:25:07.1	102.020	-0.220	-0.110	0.610
2020/01/31 09:25:07.2	102.020	-0.210	-0.170	0.650
2020/01/31 09:25:07.3	102.010	-0.210	-0.230	0.690
2020/01/31 09:25:07.4	102.000	-0.200	-0.290	0.740
2020/01/31 09:25:07.5	102.000	-0.200	-0.350	0.790
2020/01/31 09:25:07.6	101.990	-0.190	-0.400	0.840
2020/01/31 09:25:07.7	101.980	-0.180	-0.450	0.890
2020/01/31 09:25:07.8	101.960	-0.170	-0.500	0.940
2020/01/31 09:25:07.9	101.950	-0.160	-0.550	0.980
2020/01/31 09:25:08.0	101.930	-0.160	-0.600	1.030
2020/01/31 09:25:08.1	101.910	-0.150	-0.640	1.080
2020/01/31 09:25:08.2	101.880	-0.140	-0.680	1.130
2020/01/31 09:25:08.3	101.850	-0.130	-0.710	1.180
2020/01/31 09:25:08.4	101.820	-0.120	-0.740	1.230
2020/01/31 09:25:08.5	101.790	-0.110	-0.770	1.280
2020/01/31 09:25:08.6	101.760	-0.100	-0.800	1.320
2020/01/31 09:25:08.7	101.720	-0.090	-0.820	1.360
2020/01/31 09:25:08.8	101.690	-0.080	-0.840	1.410
2020/01/31 09:25:08.9	101.650	-0.070	-0.850	1.450
2020/01/31 09:25:09.0	101.610	-0.070	-0.860	1.490
2020/01/31 09:25:09.1	101.580	-0.060	-0.860	1.520
2020/01/31 09:25:09.2	101.540	-0.050	-0.860	1.560
2020/01/31 09:25:09.3	101.520	-0.040	-0.860	1.590
2020/01/31 09:25:09.4	101.470	-0.030	-0.850	1.620
2020/01/31 09:25:09.5	101.430	-0.030	-0.840	1.650
2020/01/31 09:25:09.6	101.390	-0.020	-0.830	1.680
2020/01/31 09:25:09.7	101.350	-0.010	-0.810	1.700
2020/01/31 09:25:09.8	101.310	-0.010	-0.790	1.720
2020/01/31 09:25:09.9	101.270	-0.000	-0.760	1.740
2020/01/31 09:25:10.0	101.230	0.000	-0.730	1.750
2020/01/31 09:25:10.1	101.190	0.010	-0.700	1.770
2020/01/31 09:25:10.2	101.150	0.010	-0.670	1.770
2020/01/31 09:25:10.3	101.130	0.020	-0.630	1.780
2020/01/31 09:25:10.4	101.090	0.020	-0.590	1.780
2020/01/31 09:25:10.5	101.060	0.030	-0.550	1.770
2020/01/31 09:25:10.6	101.040	0.030	-0.510	1.770
2020/01/31 09:25:10.7	101.010	0.030	-0.460	1.760
2020/01/31 09:25:10.8	100.990	0.030	-0.420	1.740
2020/01/31 09:25:10.9	100.970	0.040	-0.370	1.720
2020/01/31 09:25:11.0	100.950	0.040	-0.330	1.700
2020/01/31 09:25:11.1	100.940	0.040	-0.280	1.670
2020/01/31 09:25:11.2	100.930	0.040	-0.240	1.640
2020/01/31 09:25:11.3	100.940	0.050	-0.200	1.600
2020/01/31 09:25:11.4	100.940	0.050	-0.160	1.560
2020/01/31 09:25:11.5	100.940	0.050	-0.120	1.520
2020/01/31 09:25:11.6	100.950	0.050	-0.080	1.470
2020/01/31 09:25:11.7	100.960	0.050	-0.050	1.420
2020/01/31 09:25:11.8	100.970	0.060	-0.020	1.370
2020/01/31 09:25:11.9	100.990	0.060	0.010	1.310
2020/01/31 09:25:12.0	101.010	0.060	0.040	1.250
2020/01/31 09:25:12.1	101.030	0.060	0.060	1.190
2020/01/31 09:25:12.2	101.050	0.070	0.080	1.130
2020/01/31 09:25:12.3	101.070	0.070	0.090	1.060
2020/01/31 09:25:12.4	101.100	0.070	0.100	0.990
2020/01/31 09:25:12.5	101.130	0.080	0.110	0.920
2020/01/31 09:25:12.6	101.160	0.080	0.120	0.850
2020/01/31 09:25:12.7	101.200	0.080	0.120	0.780
2020/01/31 09:25:12.8	101.230	0.090	0.120	0.710
2020/01/31 09:25:12.9	101.270	0.090	0.120	0.640
2020/01/31 09:25:13.0	101.300	0.090	0.110	0.570
2020/01/31 09:25:13.1	101.340	0.100	0.100	0.500
2020/01/31 09:25:13.2	101.370	0.100	0.090	0.430
2020/01/31 09:25:13.3	101.410	0.100	0.080	0.360
2020/01/31 09:25:13.4	101.450	0.100	0.060	0.290
2020/01/31 09:25:13.5	101.480	0.100	0.050	0.220
2020/01/31 09:25:13.6	101.510	0.100	0.030	0.160
2020/01/31 09:25:13.7	101.540	0.100	0.020	0.100
2020/01/31 09:25:13.8	101.560	0.100	0.000	0.040
2020/01/31 09:25:13.9	101.590	0.090	-0.010	-0.020
2020/01/31 09:25:14.0	101.610	0.090	-0.030	-0.080
2020/01/31 09:25:14.1	101.630	0.080	-0.040	-0.130
2020/01/31 09:25:14.2	101.650	0.070	-0.050	-0.180
2020/01/31 09:25:14.3	101.660	0.060	-0.060	-0.220
2020/01/31 09:25:14.4	101.670	0.050	-0.070	-0.270
2020/01/31 09:25:14.5	101.680	0.040	-0.070	-0.310
2020/01/31 09:25:14.6	101.690	0.030	-0.080	-0.350
2020/01/31 09:25:14.7	101.700	0.010	-0.080	-0.380
2020/01/31 09:25:14.8	101.700	-0.000	-0.070	-0.410
2020/01/31 09:25:14.9	101.700	-0.020	-0.070	-0.440
2020/01/31 09:25:15.0	101.690	-0.040	-0.060	-0.460
2020/01/31 09:25:15.1	101.690	-0.060	-0.050	-0.480
2020/01/31 09:25:15.2	101.680	-0.080	-0.040	-0.500
2020/01/31 09:25:15.3	101.670	-0.110	-0.030	-0.510
2020/01/31 09:25:15.4	101.650	-0.130	-0.010	-0.520
2020/01/31 09:25:15.5	101.640	-0.150	0.010	-0.520
2020/01/31 09:25:15.6	101.620	-0.170	0.030	-0.520
2020/01/31 09:25:15.7	101.610	-0.200	0.050	-0.510
2020/01/31 09:25:15.8	101.590	-0.220	0.070	-0.500
2020/01/31 09:25:15.9	101.570	-0.240	0.090	-0.490
2020/01/31 09:25:16.0	101.550	-0.260	0.110	-0.470
2020/01/31 09:25:16.1	101.530	-0.280	0.130	-0.450
2020/01/31 09:25:16.2	101.510	-0.300	0.150	-0.420
2020/01/31 09:25:16.3	101.500	-0.320	0.170	-0.390
2020/01/31 09:25:16.4	101.480	-0.340	0.180	-0.360
2020/01/31 09:25:16.5	101.460	-0.350	0.190	-0.330
2020/01/31 09:25:16.6	101.440	-0.370	0.200	-0.290
2020/01/31 09:25:16.7	101.420	-0.380	0.210	-0.250
2020/01/31 09:25:16.8	101.400	-0.390	0.220	-0.210
2020/01/31 09:25:16.9	101.380	-0.400	0.220	-0.170
2020/01/31 09:25:17.0	101.360	-0.400	0.220	-0.120
2020/01/31 09:25:17.1	101.350	-0.400	0.210	-0.070
2020/01/31 09:25:17.2	101.330	-0.400	0.200	-0.020
2020/01/31 09:25:17.3	101.310	-0.400	0.180	0.030
2020/01/31 09:25:17.4	101.300	-0.400	0.170	0.080
2020/01/31 09:25:17.5	101.280	-0.390	0.150	0.130
2020/01/31 09:25:17.6	101.270	-0.380	0.120	0.190
2020/01/31 09:25:17.7	101.260	-0.370	0.100	0.250
2020/01/31 09:25:17.8	101.240	-0.360	0.070	0.310
2020/01/31 09:25:17.9	101.230	-0.350	0.030	0.370
2020/01/31 09:25:18.0	101.220	-0.330	0.000	0.430
2020/01/31 09:25:18.1	101.200	-0.310	-0.040	0.490
2020/01/31 09:25:18.2	101.190	-0.290	-0.080	0.550
2020/01/31 09:25:18.3	101.170	-0.270	-0.110	0.610
2020/01/31 09:25:18.4	101.160	-0.250	-0.160	0.680
2020/01/31 09:25:18.5	101.150	-0.230	-0.200	0.740
2020/01/31 09:25:18.6	101.140	-0.200	-0.240	0.800
2020/01/31 09:25:18.7	101.130	-0.180	-0.280	0.870
2020/01/31 09:25:18.8	101.120	-0.150	-0.320	0.930
2020/01/31 09:25:18.9	101.100	-0.130	-0.360	0.990
2020/01/31 09:25:19.0	101.090	-0.100	-0.400	1.050
2020/01/31 09:25:19.1	101.080	-0.080	-0.440	1.110
2020/01/31 09:25:19.2	101.070	-0.050	-0.470	1.170
2020/01/31 09:25:19.3	101.050	-0.030	-0.510	1.220
2020/01/31 09:25:19.4	101.040	-0.000	-0.540	1.270
2020/01/31 09:25:19.5	101.030	0.020	-0.570	1.330
2020/01/31 09:25:19.6	101.020	0.040	-0.590	1.380
2020/01/31 09:25:19.7	101.010	0.070	-0.610	1.420
2020/01/31 09:25:19.8	101.000	0.090	-0.630	1.460
2020/01/31 09:25:19.9	100.990	0.110	-0.650	1.500
2020/01/31 09:25:20.0	100.980	0.130	-0.670	1.540
2020/01/31 09:25:20.1	100.970	0.150	-0.680	1.570
2020/01/31 09:25:20.2	100.970	0.160	-0.690	1.600
2020/01/31 09:25:20.3	100.960	0.180	-0.700	1.630
2020/01/31 09:25:20.4	100.960	0.200	-0.700	1.650
2020/01/31 09:25:20.5	100.960	0.210	-0.700	1.660
2020/01/31 09:25:20.6	100.960	0.220	-0.700	1.680
2020/01/31 09:25:20.7	100.950	0.240	-0.700	1.690
2020/01/31 09:25:20.8	100.950	0.250	-0.690	1.690
2020/01/31 09:25:20.9	100.950	0.260	-0.680	1.690
2020/01/31 09:25:21.0	100.960	0.270	-0.670	1.690
2020/01/31 09:25:21.1	100.960	0.280	-0.660	1.690
2020/01/31 09:25:21.2	100.960	0.280	-0.640	1.680
2020/01/31 09:25:21.3	100.970	0.290	-0.630	1.670
2020/01/31 09:25:21.4	100.980	0.300	-0.610	1.650
2020/01/31 09:25:21.5	100.980	0.300	-0.590	1.630
2020/01/31 09:25:21.6	100.980	0.310	-0.560	1.610
2020/01/31 09:25:21.7	100.980	0.310	-0.540	1.590
2020/01/31 09:25:21.8	100.980	0.310	-0.510	1.570
2020/01/31 09:25:21.9	100.980	0.310	-0.480	1.550
2020/01/31 09:25:22.0	100.980	0.310	-0.450	1.520
2020/01/31 09:25:22.1	100.980	0.310	-0.420	1.500
2020/01/31 09:25:22.2	100.980	0.310	-0.390	1.470
2020/01/31 09:25:22.3	100.970	0.310	-0.350	1.450
2020/01/31 09:25:22.4	100.960	0.310	-0.320	1.420
2020/01/31 09:25:22.5	100.950	0.310	-0.280	1.390
2020/01/31 09:25:22.6	100.940	0.300	-0.240	1.370
2020/01/31 09:25:22.7	100.930	0.300	-0.200	1.340
2020/01/31 09:25:22.8	100.920	0.290	-0.160	1.320
2020/01/31 09:25:22.9	100.910	0.290	-0.120	1.290
2020/01/31 09:25:23.0	100.890	0.280	-0.080	1.270
2020/01/31 09:25:23.1	100.880	0.270	-0.040	1.240
2020/01/31 09:25:23.2	100.860	0.260	0.000	1.220
2020/01/31 09:25:23.3	100.850	0.250	0.040	1.200
2020/01/31 09:25:23.4	100.830	0.240	0.070	1.170
2020/01/31 09:25:23.5	100.810	0.230	0.110	1.150
2020/01/31 09:25:23.6	100.790	0.220	0.140	1.130
2020/01/31 09:25:23.7	100.780	0.210	0.170	1.110
2020/01/31 09:25:23.8	100.760	0.200	0.200	1.090
2020/01/31 09:25:23.9	100.740	0.190	0.230	1.070
2020/01/31 09:25:24.0	100.720	0.180	0.250	1.050
2020/01/31 09:25:24.1	100.710	0.160	0.270	1.020
2020/01/31 09:25:24.2	100.690	0.150	0.290	1.000
2020/01/31 09:25:24.3	100.680	0.140	0.300	0.980
2020/01/31 09:25:24.4	100.660	0.120	0.310	0.960
2020/01/31 09:25:24.5	100.650	0.110	0.310	0.940
2020/01/31 09:25:24.6	100.640	0.090	0.320	0.910
2020/01/31 09:25:24.7	100.630	0.080	0.320	0.890
2020/01/31 09:25:24.8	100.610	0.070	0.310	0.870
2020/01/31 09:25:24.9	100.610	0.050	0.310	0.840
2020/01/31 09:25:25.0	100.600	0.040	0.300	0.820
2020/01/31 09:25:25.1	100.590	0.030	0.290	0.790
2020/01/31 09:25:25.2	100.580	0.020	0.270	0.760
2020/01/31 09:25:25.3	100.560	0.000	0.250	0.730
2020/01/31 09:25:25.4	100.560	-0.010	0.230	0.700
2020/01/31 09:25:25.5	100.550	-0.020	0.200	0.670
2020/01/31 09:25:25.6	100.550	-0.030	0.180	0.640
2020/01/31 09:25:25.7	100.540	-0.040	0.150	0.610
2020/01/31 09:25:25.8	100.540	-0.050	0.120	0.580
2020/01/31 09:25:25.9	100.530	-0.060	0.090	0.550
2020/01/31 09:25:26.0	100.530	-0.060	0.060	0.510
2020/01/31 09:25:26.1	100.520	-0.070	0.030	0.480
2020/01/31 09:25:26.2	100.520	-0.080	-0.000	0.450
2020/01/31 09:25:26.3	100.520	-0.090	-0.040	0.420
2020/01/31 09:25:26.4	100.490	-0.090	-0.070	0.380
2020/01/31 09:25:26.5	100.490	-0.100	-0.100	0.350
2020/01/31 09:25:26.6	100.490	-0.100	-0.130	0.320
2020/01/31 09:25:26.7	100.490	-0.110	-0.160	0.290
2020/01/31 09:25:26.8	100.490	-0.110	-0.180	0.260
2020/01/31 09:25:26.9	100.490	-0.120	-0.210	0.230
2020/01/31 09:25:27.0	100.490	-0.120	-0.230	0.200
2020/01/31 09:25:27.1	100.490	-0.130	-0.250	0.180
2020/01/31 09:25:27.2	100.490	-0.130	-0.270	0.150
2020/01/31 09:25:27.3	100.490	-0.140	-0.280	0.130
2020/01/31 09:25:27.4	100.500	-0.140	-0.300	0.110
2020/01/31 09:25:27.5	100.500	-0.150	-0.310	0.100
2020/01/31 09:25:27.6	100.500	-0.150	-0.310	0.080
2020/01/31 09:25:27.7	100.500	-0.160	-0.320	0.070
2020/01/31 09:25:27.8	100.510	-0.160	-0.320	0.060
2020/01/31 09:25:27.9	100.510	-0.160	-0.320	0.060
2020/01/31 09:25:28.0	100.510	-0.170	-0.320	0.060
2020/01/31 09:25:28.1	100.510	-0.170	-0.320	0.060
2020/01/31 09:25:28.2	100.520	-0.180	-0.320	0.060
2020/01/31 09:25:28.3	100.520	-0.180	-0.310	0.060
2020/01/31 09:25:28.4	100.520	-0.190	-0.310	0.070
2020/01/31 09:25:28.5	100.520	-0.190	-0.300	0.080
2020/01/31 09:25:28.6	100.530	-0.200	-0.290	0.100
2020/01/31 09:25:28.7	100.530	-0.200	-0.290	0.110
2020/01/31 09:25:28.8	100.530	-0.210	-0.280	0.130
2020/01/31 09:25:28.9	100.540	-0.210	-0.270	0.150
2020/01/31 09:25:29.0	100.540	-0.210	-0.270	0.180
2020/01/31 09:25:29.1	100.540	-0.220	-0.260	0.200
2020/01/31 09:25:29.2	100.550	-0.220	-0.260	0.230
2020/01/31 09:25:29.3	100.540	-0.220	-0.260	0.260
2020/01/31 09:25:29.4	100.540	-0.220	-0.250	0.300
2020/01/31 09:25:29.5	100.550	-0.230	-0.250	0.330
2020/01/31 09:25:29.6	100.550	-0.230	-0.260	0.370
2020/01/31 09:25:29.7	100.550	-0.230	-0.260	0.410
2020/01/31 09:25:29.8	100.550	-0.230	-0.260	0.450
2020/01/31 09:25:29.9	100.540	-0.230	-0.260	0.490
2020/01/31 09:25:30.0	100.540	-0.220	-0.270	0.530
2020/01/31 09:25:30.1	100.530	-0.220	-0.280	0.580
2020/01/31 09:25:30.2	100.530	-0.220	-0.280	0.630
2020/01/31 09:25:30.3	100.510	-0.220	-0.290	0.680
2020/01/31 09:25:30.4	100.500	-0.210	-0.290	0.730
2020/01/31 09:25:30.5	100.490	-0.210	-0.300	0.790
2020/01/31 09:25:30.6	100.470	-0.200	-0.300	0.840
2020/01/31 09:25:30.7	100.460	-0.200	-0.310	0.900
2020/01/31 09:25:30.8	100.440	-0.190	-0.310	0.950
2020/01/31 09:25:30.9	100.420	-0.190	-0.310	1.010
2020/01/31 09:25:31.0	100.400	-0.180	-0.310	1.060
2020/01/31 09:25:31.1	100.370	-0.180	-0.300	1.120
2020/01/31 09:25:31.2	100.350	-0.170	-0.300	1.170
2020/01/31 09:25:31.3	100.310	-0.160	-0.290	1.230
2020/01/31 09:25:31.4	100.290	-0.160	-0.280	1.280
2020/01/31 09:25:31.5	100.260	-0.150	-0.270	1.330
2020/01/31 09:25:31.6	100.230	-0.150	-0.260	1.380
2020/01/31 09:25:31.7	100.200	-0.140	-0.240	1.420
2020/01/31 09:25:31.8	100.170	-0.140	-0.230	1.470
2020/01/31 09:25:31.9	100.140	-0.130	-0.210	1.510
2020/01/31 09:25:32.0	100.110	-0.130	-0.190	1.550
2020/01/31 09:25:32.1	100.080	-0.120	-0.170	1.580
2020/01/31 09:25:32.2	100.050	-0.120	-0.150	1.620
2020/01/31 09:25:32.3	100.030	-0.120	-0.130	1.650
2020/01/31 09:25:32.4	100.010	-0.110	-0.110	1.670
2020/01/31 09:25:32.5	99.980	-0.110	-0.080	1.700
2020/01/31 09:25:32.6	99.950	-0.110	-0.060	1.720
2020/01/31 09:25:32.7	99.930	-0.110	-0.040	1.740
2020/01/31 09:25:32.8	99.900	-0.100	-0.010	1.750
2020/01/31 09:25:32.9	99.880	-0.100	0.010	1.770
2020/01/31 09:25:33.0	99.860	-0.100	0.030	1.780
2020/01/31 09:25:33.1	99.840	-0.100	0.050	1.790
2020/01/31 09:25:33.2	99.820	-0.100	0.070	1.790
2020/01/31 09:25:33.3	99.810	-0.100	0.080	1.800
2020/01/31 09:25:33.4	99.810	-0.100	0.100	1.800
2020/01/31 09:25:33.5	99.800	-0.100	0.110	1.800
2020/01/31 09:25:33.6	99.790	-0.110	0.130	1.800
2020/01/31 09:25:33.7	99.780	-0.110	0.140	1.800
2020/01/31 09:25:33.8	99.770	-0.110	0.150	1.800
2020/01/31 09:25:33.9	99.770	-0.110	0.150	1.790
2020/01/31 09:25:34.0	99.760	-0.110	0.160	1.790
2020/01/31 09:25:34.1	99.760	-0.110	0.160	1.780
2020/01/31 09:25:34.2	99.760	-0.110	0.160	1.770
2020/01/31 09:25:34.3	99.760	-0.110	0.160	1.770
2020/01/31 09:25:34.4	99.760	-0.110	0.160	1.750
2020/01/31 09:25:34.5	99.760	-0.110	0.150	1.740
2020/01/31 09:25:34.6	99.770	-0.110	0.150	1.720
2020/01/31 09:25:34.7	99.770	-0.110	0.140	1.710
2020/01/31 09:25:34.8	99.770	-0.100	0.130	1.690
2020/01/31 09:25:34.9	99.770	-0.100	0.110	1.670
2020/01/31 09:25:35.0	99.770	-0.090	0.100	1.650
2020/01/31 09:25:35.1	99.770	-0.080	0.080	1.630
2020/01/31 09:25:35.2	99.770	-0.080	0.060	1.600
2020/01/31 09:25:35.3	99.760	-0.060	0.030	1.570
2020/01/31 09:25:35.4	99.760	-0.050	0.010	1.540
2020/01/31 09:25:35.5	99.760	-0.040	-0.020	1.510
2020/01/31 09:25:35.6	99.760	-0.020	-0.050	1.480
2020/01/31 09:25:35.7	99.750	-0.000	-0.090	1.440
2020/01/31 09:25:35.8	99.750	0.020	-0.130	1.400
2020/01/31 09:25:35.9	99.750	0.040	-0.160	1.360
2020/01/31 09:25:36.0	99.750	0.060	-0.200	1.310
2020/01/31 09:25:36.1	99.750	0.090	-0.250	1.260
2020/01/31 09:25:36.2	99.740	0.120	-0.290	1.210
2020/01/31 09:25:36.3	99.740	0.140	-0.340	1.150
2020/01/31 09:25:36.4	99.730	0.170	-0.380	1.090
2020/01/31 09:25:36.5	99.730	0.200	-0.430	1.030
2020/01/31 09:25:36.6	99.730	0.230	-0.470	0.970
2020/01/31 09:25:36.7	99.740	0.260	-0.510	0.910
2020/01/31 09:25:36.8	99.740	0.290	-0.560	0.840
2020/01/31 09:25:36.9	99.740	0.320	-0.600	0.770
2020/01/31 09:25:37.0	99.740	0.340	-0.640	0.710
2020/01/31 09:25:37.1	99.740	0.370	-0.670	0.640
2020/01/31 09:25:37.2	99.740	0.390	-0.710	0.570
2020/01/31 09:25:37.3	99.750	0.420	-0.730	0.500
2020/01/31 09:25:37.4	99.750	0.440	-0.760	0.440
2020/01/31 09:25:37.5	99.750	0.460	-0.780	0.380
2020/01/31 09:25:37.6	99.750	0.480	-0.800	0.320
2020/01/31 09:25:37.7	99.750	0.490	-0.810	0.260
2020/01/31 09:25:37.8	99.750	0.500	-0.810	0.210
2020/01/31 09:25:37.9	99.740	0.510	-0.820	0.160
2020/01/31 09:25:38.0	99.740	0.510	-0.810	0.110
2020/01/31 09:25:38.1	99.740	0.510	-0.800	0.070
2020/01/31 09:25:38.2	99.730	0.510	-0.780	0.040
2020/01/31 09:25:38.3	99.730	0.510	-0.760	0.020
2020/01/31 09:25:38.4	99.720	0.500	-0.730	-0.010
2020/01/31 09:25:38.5	99.710	0.480	-0.700	-0.020
2020/01/31 09:25:38.6	99.700	0.470	-0.660	-0.030
2020/01/31 09:25:38.7	99.690	0.450	-0.620	-0.040
2020/01/31 09:25:38.8	99.680	0.420	-0.570	-0.040
2020/01/31 09:25:38.9	99.660	0.400	-0.520	-0.030
2020/01/31 09:25:39.0	99.650	0.370	-0.460	-0.020
2020/01/31 09:25:39.1	99.640	0.340	-0.400	-0.000
2020/01/31 09:25:39.2	99.620	0.300	-0.340	0.020
2020/01/31 09:25:39.3	99.600	0.260	-0.280	0.040
2020/01/31 09:25:39.4	99.580	0.230	-0.210	0.070
2020/01/31 09:25:39.5	99.570	0.190	-0.140	0.100
2020/01/31 09:25:39.6	99.550	0.140	-0.080	0.140
2020/01/31 09:25:39.7	99.530	0.100	-0.010	0.170
2020/01/31 09:25:39.8	99.510	0.060	0.050	0.210
2020/01/31 09:25:39.9	99.500	0.010	0.120	0.250
2020/01/31 09:25:40.0	99.480	-0.030	0.180	0.290
2020/01/31 09:25:40.1	99.460	-0.070	0.240	0.320
2020/01/31 09:25:40.2	99.440	-0.110	0.290	0.360
2020/01/31 09:25:40.3	99.420	-0.160	0.350	0.390
2020/01/31 09:25:40.4	99.410	-0.190	0.390	0.430
2020/01/31 09:25:40.5	99.390	-0.230	0.440	0.460
2020/01/31 09:25:40.6	99.380	-0.270	0.480	0.480
2020/01/31 09:25:40.7	99.360	-0.300	0.510	0.510
2020/01/31 09:25:40.8	99.350	-0.330	0.540	0.530
2020/01/31 09:25:40.9	99.340	-0.360	0.560	0.550
2020/01/31 09:25:41.0	99.330	-0.380	0.570	0.570
2020/01/31 09:25:41.1	99.320	-0.400	0.580	0.580
2020/01/31 09:25:41.2	99.310	-0.420	0.590	0.590
2020/01/31 09:25:41.3	99.300	-0.430	0.580	0.600
2020/01/31 09:25:41.4	99.300	-0.440	0.570	0.600
2020/01/31 09:25:41.5	99.290	-0.450	0.550	0.610
2020/01/31 09:25:41.6	99.290	-0.450	0.530	0.610
2020/01/31 09:25:41.7	99.280	-0.450	0.500	0.610
2020/01/31 09:25:41.8	99.280	-0.450	0.470	0.610
2020/01/31 09:25:41.9	99.280	-0.440	0.430	0.610
2020/01/31 09:25:42.0	99.280	-0.430	0.380	0.600
2020/01/31 09:25:42.1	99.280	-0.410	0.340	0.600
2020/01/31 09:25:42.2	99.280	-0.400	0.290	0.590
2020/01/31 09:25:42.3	99.290	-0.380	0.230	0.580
2020/01/31 09:25:42.4	99.300	-0.360	0.170	0.580
2020/01/31 09:25:42.5	99.300	-0.330	0.110	0.570
2020/01/31 09:25:42.6	99.310	-0.310	0.050	0.560
2020/01/31 09:25:42.7	99.320	-0.280	-0.010	0.550
2020/01/31 09:25:42.8	99.330	-0.260	-0.070	0.540
2020/01/31 09:25:42.9	99.340	-0.230	-0.130	0.530
2020/01/31 09:25:43.0	99.360	-0.200	-0.190	0.520
2020/01/31 09:25:43.1	99.370	-0.180	-0.250	0.520
2020/01/31 09:25:43.2	99.390	-0.150	-0.310	0.510
2020/01/31 09:25:43.3	99.390	-0.130	-0.360	0.510
2020/01/31 09:25:43.4	99.400	-0.100	-0.410	0.510
2020/01/31 09:25:43.5	99.420	-0.080	-0.460	0.510
2020/01/31 09:25:43.6	99.430	-0.060	-0.510	0.510
2020/01/31 09:25:43.7	99.440	-0.040	-0.550	0.510
2020/01/31 09:25:43.8	99.460	-0.020	-0.590	0.520
2020/01/31 09:25:43.9	99.470	-0.000	-0.620	0.530
2020/01/31 09:25:44.0	99.480	0.010	-0.650	0.540
2020/01/31 09:25:44.1	99.490	0.030	-0.670	0.560
2020/01/31 09:25:44.2	99.490	0.030	-0.690	0.570
2020/01/31 09:25:44.3	99.510	0.040	-0.700	0.590
2020/01/31 09:25:44.4	99.510	0.050	-0.710	0.610
2020/01/31 09:25:44.5	99.510	0.050	-0.710	0.640
2020/01/31 09:25:44.6	99.510	0.050	-0.710	0.660
2020/01/31 09:25:44.7	99.510	0.040	-0.700	0.680
2020/01/31 09:25:44.8	99.510	0.040	-0.680	0.710
2020/01/31 09:25:44.9	99.500	0.030	-0.660	0.730
2020/01/31 09:25:45.0	99.500	0.020	-0.640	0.760
2020/01/31 09:25:45.1	99.490	0.010	-0.610	0.780
2020/01/31 09:25:45.2	99.480	-0.010	-0.570	0.800
2020/01/31 09:25:45.3	99.480	-0.020	-0.530	0.830
2020/01/31 09:25:45.4	99.470	-0.040	-0.490	0.850
2020/01/31 09:25:45.5	99.460	-0.060	-0.450	0.870
2020/01/31 09:25:45.6	99.450	-0.080	-0.400	0.890
2020/01/31 09:25:45.7	99.440	-0.100	-0.350	0.910
2020/01/31 09:25:45.8	99.420	-0.120	-0.300	0.920
2020/01/31 09:25:45.9	99.410	-0.140	-0.250	0.930
2020/01/31 09:25:46.0	99.400	-0.160	-0.200	0.940
2020/01/31 09:25:46.1	99.380	-0.180	-0.150	0.950
2020/01/31 09:25:46.2	99.370	-0.200	-0.100	0.960
2020/01/31 09:25:46.3	99.340	-0.220	-0.050	0.960
2020/01/31 09:25:46.4	99.320	-0.240	-0.010	0.970
2020/01/31 09:25:46.5	99.310	-0.260	0.030	0.970
2020/01/31 09:25:46.6	99.290	-0.270	0.070	0.970
2020/01/31 09:25:46.7	99.280	-0.290	0.110	0.970
2020/01/31 09:25:46.8	99.260	-0.300	0.140	0.970
2020/01/31 09:25:46.9	99.250	-0.310	0.170	0.970
2020/01/31 09:25:47.0	99.240	-0.310	0.190	0.970
2020/01/31 09:25:47.1	99.220	-0.320	0.210	0.960
2020/01/31 09:25:47.2	99.210	-0.320	0.220	0.960
2020/01/31 09:25:47.3	99.200	-0.320	0.230	0.950
2020/01/31 09:25:47.4	99.200	-0.320	0.230	0.940
2020/01/31 09:25:47.5	99.190	-0.320	0.230	0.930
2020/01/31 09:25:47.6	99.180	-0.310	0.230	0.910
2020/01/31 09:25:47.7	99.180	-0.300	0.220	0.900
2020/01/31 09:25:47.8	99.170	-0.290	0.200	0.880
2020/01/31 09:25:47.9	99.160	-0.280	0.180	0.870
2020/01/31 09:25:48.0	99.160	-0.270	0.160	0.850
2020/01/31 09:25:48.1	99.160	-0.250	0.140	0.830
2020/01/31 09:25:48.2	99.160	-0.240	0.110	0.800
2020/01/31 09:25:48.3	99.150	-0.220	0.080	0.780
2020/01/31 09:25:48.4	99.150	-0.200	0.050	0.760
2020/01/31 09:25:48.5	99.150	-0.180	0.020	0.730
2020/01/31 09:25:48.6	99.150	-0.160	-0.020	0.710
2020/01/31 09:25:48.7	99.150	-0.140	-0.050	0.680
2020/01/31 09:25:48.8	99.160	-0.120	-0.080	0.650
2020/01/31 09:25:48.9	99.160	-0.090	-0.110	0.620
2020/01/31 09:25:49.0	99.170	-0.070	-0.140	0.590
2020/01/31 09:25:49.1	99.170	-0.050	-0.170	0.560
2020/01/31 09:25:49.2	99.180	-0.030	-0.190	0.530
2020/01/31 09:25:49.3	99.190	-0.010	-0.210	0.500
2020/01/31 09:25:49.4	99.200	0.010	-0.230	0.470
2020/01/31 09:25:49.5	99.210	0.030	-0.250	0.430
2020/01/31 09:25:49.6	99.220	0.050	-0.270	0.400
2020/01/31 09:25:49.7	99.220	0.070	-0.290	0.370
2020/01/31 09:25:49.8	99.230	0.080	-0.300	0.340
2020/01/31 09:25:49.9	99.240	0.100	-0.310	0.300
2020/01/31 09:25:50.0	99.250	0.110	-0.320	0.270
2020/01/31 09:25:50.1	99.250	0.130	-0.330	0.240
2020/01/31 09:25:50.2	99.260	0.140	-0.330	0.200
2020/01/31 09:25:50.3	99.270	0.150	-0.330	0.170
2020/01/31 09:25:50.4	99.270	0.160	-0.330	0.150
2020/01/31 09:25:50.5	99.280	0.170	-0.330	0.120
2020/01/31 09:25:50.6	99.290	0.180	-0.330	0.090
2020/01/31 09:25:50.7	99.290	0.180	-0.330	0.070
2020/01/31 09:25:50.8	99.300	0.190	-0.320	0.040
2020/01/31 09:25:50.9	99.310	0.200	-0.320	0.020
2020/01/31 09:25:51.0	99.310	0.200	-0.310	-0.000
2020/01/31 09:25:51.1	99.320	0.200	-0.300	-0.020
2020/01/31 09:25:51.2	99.320	0.210	-0.300	-0.040
2020/01/31 09:25:51.3	99.320	0.210	-0.290	-0.060
2020/01/31 09:25:51.4	99.320	0.210	-0.290	-0.070
2020/01/31 09:25:51.5	99.320	0.210	-0.280	-0.080
2020/01/31 09:25:51.6	99.330	0.210	-0.280	-0.080
2020/01/31 09:25:51.7	99.330	0.210	-0.270	-0.090
2020/01/31 09:25:51.8	99.340	0.210	-0.270	-0.090
2020/01/31 09:25:51.9	99.340	0.210	-0.270	-0.090
2020/01/31 09:25:52.0	99.340	0.210	-0.270	-0.090
2020/01/31 09:25:52.1	99.340	0.210	-0.270	-0.090
2020/01/31 09:25:52.2	99.340	0.210	-0.280	-0.080
2020/01/31 09:25:52.3	99.340	0.210	-0.280	-0.070
2020/01/31 09:25:52.4	99.340	0.210	-0.290	-0.060
2020/01/31 09:25:52.5	99.340	0.210	-0.300	-0.050
2020/01/31 09:25:52.6	99.340	0.210	-0.310	-0.040
2020/01/31 09:25:52.7	99.340	0.220	-0.320	-0.030
2020/01/31 09:25:52.8	99.330	0.220	-0.330	-0.010
2020/01/31 09:25:52.9	99.330	0.220	-0.340	0.000
2020/01/31 09:25:53.0	99.320	0.220	-0.350	0.020
2020/01/31 09:25:53.1	99.310	0.220	-0.370	0.040
2020/01/31 09:25:53.2	99.310	0.230	-0.380	0.060
2020/01/31 09:25:53.3	99.290	0.230	-0.390	0.080
2020/01/31 09:25:53.4	99.280	0.230	-0.400	0.110
2020/01/31 09:25:53.5	99.270	0.230	-0.420	0.130
2020/01/31 09:25:53.6	99.260	0.240	-0.430	0.150
2020/01/31 09:25:53.7	99.240	0.240	-0.440	0.180
2020/01/31 09:25:53.8	99.230	0.240	-0.450	0.210
2020/01/31 09:25:53.9	99.220	0.250	-0.460	0.240
2020/01/31 09:25:54.0	99.200	0.250	-0.460	0.270
2020/01/31 09:25:54.1	99.190	0.250	-0.470	0.300
2020/01/31 09:25:54.2	99.170	0.250	-0.470	0.340
2020/01/31 09:25:54.3	99.150	0.250	-0.470	0.370
2020/01/31 09:25:54.4	99.130	0.250	-0.470	0.400
2020/01/31 09:25:54.5	99.110	0.250	-0.470	0.440
2020/01/31 09:25:54.6	99.100	0.250	-0.460	0.480
2020/01/31 09:25:54.7	99.080	0.250	-0.460	0.510
2020/01/31 09:25:54.8	99.070	0.250	-0.440	0.550
2020/01/31 09:25:54.9	99.060	0.240	-0.430	0.580
2020/01/31 09:25:55.0	99.050	0.240	-0.420	0.620
2020/01/31 09:25:55.1	99.040	0.230	-0.400	0.650
2020/01/31 09:25:55.2	99.040	0.230	-0.380	0.690
2020/01/31 09:25:55.3	99.030	0.220	-0.350	0.720
2020/01/31 09:25:55.4	99.030	0.210	-0.330	0.750
2020/01/31 09:25:55.5	99.030	0.210	-0.310	0.790
2020/01/31 09:25:55.6	99.030	0.200	-0.280	0.810
2020/01/31 09:25:55.7	99.040	0.190	-0.250	0.840
2020/01/31 09:25:55.8	99.050	0.180	-0.220	0.870
2020/01/31 09:25:55.9	99.050	0.170	-0.190	0.890
2020/01/31 09:25:56.0	99.060	0.160	-0.160	0.920
2020/01/31 09:25:56.1	99.080	0.140	-0.120	0.940
2020/01/31 09:25:56.2	99.090	0.130	-0.090	0.960
2020/01/31 09:25:56.3	99.120	0.120	-0.050	0.990
2020/01/31 09:25:56.4	99.130	0.110	-0.020	1.010
2020/01/31 09:25:56.5	99.150	0.090	0.020	1.030
2020/01/31 09:25:56.6	99.170	0.080	0.050	1.050
2020/01/31 09:25:56.7	99.190	0.060	0.090	1.070
2020/01/31 09:25:56.8	99.210	0.050	0.120	1.090
2020/01/31 09:25:56.9	99.230	0.030	0.160	1.100
2020/01/31 09:25:57.0	99.250	0.020	0.190	1.120
2020/01/31 09:25:57.1	99.270	0.000	0.220	1.140
2020/01/31 09:25:57.2	99.290	-0.020	0.250	1.160
2020/01/31 09:25:57.3	99.320	-0.030	0.280	1.170
2020/01/31 09:25:57.4	99.340	-0.050	0.310	1.190
2020/01/31 09:25:57.5	99.360	-0.070	0.340	1.200
2020/01/31 09:25:57.6	99.390	-0.080	0.370	1.220
2020/01/31 09:25:57.7	99.410	-0.100	0.390	1.230
2020/01/31 09:25:57.8	99.430	-0.120	0.410	1.240
2020/01/31 09:25:57.9	99.460	-0.140	0.440	1.250
2020/01/31 09:25:58.0	99.480	-0.160	0.460	1.260
2020/01/31 09:25:58.1	99.500	-0.180	0.470	1.270
2020/01/31 09:25:58.2	99.520	-0.200	0.490	1.280
2020/01/31 09:25:58.3	99.530	-0.220	0.500	1.280
2020/01/31 09:25:58.4	99.550	-0.240	0.510	1.290
2020/01/31 09:25:58.5	99.570	-0.260	0.520	1.290
2020/01/31 09:25:58.6	99.580	-0.280	0.520	1.290
2020/01/31 09:25:58.7	99.600	-0.300	0.530	1.300
2020/01/31 09:25:58.8	99.610	-0.320	0.530	1.300
2020/01/31 09:25:58.9	99.620	-0.340	0.520	1.290
2020/01/31 09:25:59.0	99.630	-0.360	0.520	1.290
2020/01/31 09:25:59.1	99.640	-0.380	0.510	1.290
2020/01/31 09:25:59.2	99.650	-0.400	0.500	1.290
2020/01/31 09:25:59.3	99.670	-0.420	0.490	1.280
2020/01/31 09:25:59.4	99.670	-0.430	0.470	1.280
2020/01/31 09:25:59.5	99.680	-0.450	0.450	1.270
2020/01/31 09:25:59.6	99.670	-0.470	0.430	1.260
2020/01/31 09:25:59.7	99.670	-0.480	0.410	1.250
2020/01/31 09:25:59.8	99.670	-0.500	0.380	1.240
2020/01/31 09:25:59.9	99.660	-0.510	0.360	1.230
2020/01/31 09:26:00.0	99.650	-0.520	0.330	1.220
2020/01/31 09:26:00.1	99.640	-0.530	0.290	1.210
2020/01/31 09:26:00.2	99.630	-0.540	0.260	1.200
2020/01/31 09:26:00.3	99.630	-0.540	0.220	1.180
2020/01/31 09:26:00.4	99.610	-0.550	0.180	1.170
2020/01/31 09:26:00.5	99.600	-0.550	0.140	1.160
2020/01/31 09:26:00.6	99.580	-0.550	0.100	1.140
2020/01/31 09:26:00.7	99.560	-0.550	0.050	1.130
2020/01/31 09:26:00.8	99.540	-0.550	0.010	1.120
2020/01/31 09:26:00.9	99.520	-0.540	-0.040	1.100
2020/01/31 09:26:01.0	99.500	-0.530	-0.090	1.090
2020/01/31 09:26:01.1	99.480	-0.520	-0.140	1.080
2020/01/31 09:26:01.2	99.460	-0.510	-0.200	1.070
2020/01/31 09:26:01.3	99.420	-0.490	-0.250	1.060
2020/01/31 09:26:01.4	99.400	-0.480	-0.300	1.050
2020/01/31 09:26:01.5	99.380	-0.460	-0.360	1.040
2020/01/31 09:26:01.6	99.360	-0.430	-0.420	1.030
2020/01/31 09:26:01.7	99.340	-0.410	-0.470	1.020
2020/01/31 09:26:01.8	99.320	-0.380	-0.530	1.010
2020/01/31 09:26:01.9	99.300	-0.350	-0.580	1.000
2020/01/31 09:26:02.0	99.280	-0.320	-0.640	0.990
2020/01/31 09:26:02.1	99.270	-0.290	-0.690	0.980
2020/01/31 09:26:02.2	99.250	-0.260	-0.740	0.970
2020/01/31 09:26:02.3	99.250	-0.220	-0.790	0.960
2020/01/31 09:26:02.4	99.240	-0.190	-0.840	0.950
2020/01/31 09:26:02.5	99.230	-0.150	-0.890	0.940
2020/01/31 09:26:02.6	99.220	-0.110	-0.930	0.940
2020/01/31 09:26:02.7	99.210	-0.080	-0.970	0.930
2020/01/31 09:26:02.8	99.200	-0.040	-1.000	0.920
2020/01/31 09:26:02.9	99.200	-0.000	-1.040	0.910
2020/01/31 09:26:03.0	99.190	0.040	-1.070	0.910
2020/01/31 09:26:03.1	99.190	0.070	-1.090	0.900
2020/01/31 09:26:03.2	99.190	0.110	-1.110	0.890
2020/01/31 09:26:03.3	99.180	0.150	-1.130	0.880
2020/01/31 09:26:03.4	99.180	0.180	-1.140	0.870
2020/01/31 09:26:03.5	99.180	0.210	-1.150	0.860
2020/01/31 09:26:03.6	99.190	0.240	-1.160	0.850
2020/01/31 09:26:03.7	99.190	0.270	-1.150	0.840
2020/01/31 09:26:03.8	99.200	0.300	-1.150	0.820
2020/01/31 09:26:03.9	99.200	0.320	-1.140	0.810
2020/01/31 09:26:04.0	99.210	0.340	-1.120	0.790
2020/01/31 09:26:04.1	99.220	0.360	-1.100	0.770
2020/01/31 09:26:04.2	99.230	0.380	-1.080	0.750
2020/01/31 09:26:04.3	99.230	0.400	-1.050	0.730
2020/01/31 09:26:04.4	99.240	0.410	-1.020	0.700
2020/01/31 09:26:04.5	99.250	0.420	-0.990	0.680
2020/01/31 09:26:04.6	99.260	0.420	-0.950	0.650
2020/01/31 09:26:04.7	99.270	0.430	-0.900	0.610
2020/01/31 09:26:04.8	99.280	0.430	-0.860	0.580
2020/01/31 09:26:04.9	99.290	0.430	-0.810	0.550
2020/01/31 09:26:05.0	99.300	0.430	-0.750	0.510
2020/01/31 09:26:05.1	99.310	0.420	-0.700	0.470
2020/01/31 09:26:05.2	99.320	0.420	-0.640	0.430
2020/01/31 09:26:05.3	99.340	0.410	-0.580	0.390
2020/01/31 09:26:05.4	99.350	0.400	-0.520	0.350
2020/01/31 09:26:05.5	99.360	0.380	-0.460	0.300
2020/01/31 09:26:05.6	99.370	0.370	-0.390	0.260
2020/01/31 09:26:05.7	99.380	0.360	-0.320	0.220
2020/01/31 09:26:05.8	99.380	0.340	-0.260	0.190
2020/01/31 09:26:05.9	99.390	0.320	-0.190	0.150
2020/01/31 09:26:06.0	99.400	0.310	-0.130	0.110
2020/01/31 09:26:06.1	99.410	0.290	-0.060	0.080
2020/01/31 09:26:06.2	99.410	0.270	0.000	0.040
2020/01/31 09:26:06.3	99.420	0.250	0.060	0.010
2020/01/31 09:26:06.4	99.420	0.240	0.120	-0.010
2020/01/31 09:26:06.5	99.430	0.220	0.180	-0.040
2020/01/31 09:26:06.6	99.440	0.200	0.240	-0.060
2020/01/31 09:26:06.7	99.440	0.190	0.290	-0.080
2020/01/31 09:26:06.8	99.450	0.170	0.350	-0.100
2020/01/31 09:26:06.9	99.460	0.160	0.390	-0.110
2020/01/31 09:26:07.0	99.460	0.140	0.440	-0.120
2020/01/31 09:26:07.1	99.470	0.130	0.480	-0.130
2020/01/31 09:26:07.2	99.480	0.120	0.520	-0.130
2020/01/31 09:26:07.3	99.490	0.110	0.550	-0.130
2020/01/31 09:26:07.4	99.500	0.100	0.580	-0.130
2020/01/31 09:26:07.5	99.500	0.100	0.600	-0.120
2020/01/31 09:26:07.6	99.510	0.090	0.620	-0.110
2020/01/31 09:26:07.7	99.520	0.090	0.640	-0.100
2020/01/31 09:26:07.8	99.530	0.090	0.650	-0.090
2020/01/31 09:26:07.9	99.540	0.090	0.650	-0.070
2020/01/31 09:26:08.0	99.550	0.080	0.660	-0.040
2020/01/31 09:26:08.1	99.550	0.090	0.650	-0.020
2020/01/31 09:26:08.2	99.560	0.090	0.650	0.010
2020/01/31 09:26:08.3	99.560	0.090	0.630	0.040
2020/01/31 09:26:08.4	99.560	0.090	0.620	0.070
2020/01/31 09:26:08.5	99.570	0.100	0.600	0.100
2020/01/31 09:26:08.6	99.570	0.100	0.580	0.130
2020/01/31 09:26:08.7	99.570	0.110	0.550	0.170
2020/01/31 09:26:08.8	99.570	0.110	0.520	0.200
2020/01/31 09:26:08.9	99.560	0.120	0.490	0.240
2020/01/31 09:26:09.0	99.560	0.120	0.460	0.280
2020/01/31 09:26:09.1	99.550	0.130	0.420	0.310
2020/01/31 09:26:09.2	99.540	0.130	0.380	0.350
2020/01/31 09:26:09.3	99.520	0.130	0.350	0.390
2020/01/31 09:26:09.4	99.510	0.140	0.310	0.430
2020/01/31 09:26:09.5	99.500	0.140	0.270	0.460
2020/01/31 09:26:09.6	99.480	0.140	0.230	0.490
2020/01/31 09:26:09.7	99.460	0.140	0.190	0.530
2020/01/31 09:26:09.8	99.440	0.140	0.150	0.560
2020/01/31 09:26:09.9	99.430	0.140	0.110	0.590
2020/01/31 09:26:10.0	99.410	0.130	0.080	0.620
2020/01/31 09:26:10.1	99.390	0.130	0.040	0.640
2020/01/31 09:26:10.2	99.370	0.120	0.010	0.670
2020/01/31 09:26:10.3	99.360	0.110	-0.030	0.690
2020/01/31 09:26:10.4	99.340	0.100	-0.060	0.710
2020/01/31 09:26:10.5	99.320	0.090	-0.080	0.730
2020/01/31 09:26:10.6	99.310	0.080	-0.110	0.740
2020/01/31 09:26:10.7	99.290	0.060	-0.130	0.760
2020/01/31 09:26:10.8	99.280	0.050	-0.160	0.770
2020/01/31 09:26:10.9	99.270	0.030	-0.180	0.780
2020/01/31 09:26:11.0	99.260	0.010	-0.200	0.790
2020/01/31 09:26:11.1	99.260	-0.000	-0.210	0.800
2020/01/31 09:26:11.2	99.260	-0.020	-0.230	0.800
2020/01/31 09:26:11.3	99.260	-0.040	-0.240	0.810
2020/01/31 09:26:11.4	99.260	-0.060	-0.260	0.810
2020/01/31 09:26:11.5	99.270	-0.080	-0.270	0.810
2020/01/31 09:26:11.6	99.280	-0.100	-0.280	0.820
2020/01/31 09:26:11.7	99.290	-0.120	-0.300	0.820
2020/01/31 09:26:11.8	99.300	-0.140	-0.310	0.820
2020/01/31 09:26:11.9	99.320	-0.160	-0.320	0.830
2020/01/31 09:26:12.0	99.330	-0.170	-0.340	0.830
2020/01/31 09:26:12.1	99.350	-0.190	-0.350	0.840
2020/01/31 09:26:12.2	99.370	-0.200	-0.360	0.850
2020/01/31 09:26:12.3	99.390	-0.220	-0.380	0.860
2020/01/31 09:26:12.4	99.410	-0.230	-0.400	0.870
2020/01/31 09:26:12.5	99.430	-0.240	-0.410	0.890
2020/01/31 09:26:12.6	99.460	-0.250	-0.430	0.910
2020/01/31 09:26:12.7	99.480	-0.260	-0.440	0.930
2020/01/31 09:26:12.8	99.510	-0.270	-0.460	0.950
2020/01/31 09:26:12.9	99.540	-0.270	-0.470	0.980
2020/01/31 09:26:13.0	99.560	-0.280	-0.490	1.010
2020/01/31 09:26:13.1	99.590	-0.280	-0.510	1.040
2020/01/31 09:26:13.2	99.620	-0.280	-0.520	1.070
2020/01/31 09:26:13.3	99.650	-0.280	-0.530	1.100
2020/01/31 09:26:13.4	99.680	-0.280	-0.540	1.130
2020/01/31 09:26:13.5	99.710	-0.270	-0.560	1.170
2020/01/31 09:26:13.6	99.740	-0.270	-0.570	1.200
2020/01/31 09:26:13.7	99.760	-0.260	-0.570	1.240
2020/01/31 09:26:13.8	99.790	-0.260	-0.580	1.270
2020/01/31 09:26:13.9	99.820	-0.250	-0.590	1.300
2020/01/31 09:26:14.0	99.850	-0.240	-0.590	1.340
2020/01/31 09:26:14.1	99.880	-0.230	-0.590	1.370
2020/01/31 09:26:14.2	99.900	-0.220	-0.590	1.390
2020/01/31 09:26:14.3	99.930	-0.220	-0.580	1.420
2020/01/31 09:26:14.4	99.960	-0.210	-0.570	1.440
2020/01/31 09:26:14.5	99.990	-0.200	-0.560	1.460
2020/01/31 09:26:14.6	100.020	-0.190	-0.550	1.480
2020/01/31 09:26:14.7	100.050	-0.180	-0.540	1.500
2020/01/31 09:26:14.8	100.080	-0.170	-0.520	1.510
2020/01/31 09:26:14.9	100.110	-0.160	-0.500	1.510
2020/01/31 09:26:15.0	100.140	-0.150	-0.470	1.520
2020/01/31 09:26:15.1	100.170	-0.150	-0.450	1.520
2020/01/31 09:26:15.2	100.200	-0.140	-0.420	1.530
2020/01/31 09:26:15.3	100.240	-0.130	-0.390	1.520
2020/01/31 09:26:15.4	100.270	-0.120	-0.360	1.520
2020/01/31 09:26:15.5	100.290	-0.120	-0.330	1.520
2020/01/31 09:26:15.6	100.320	-0.110	-0.300	1.520
2020/01/31 09:26:15.7	100.340	-0.110	-0.260	1.510
2020/01/31 09:26:15.8	100.360	-0.100	-0.220	1.510
2020/01/31 09:26:15.9	100.370	-0.100	-0.190	1.500
2020/01/31 09:26:16.0	100.380	-0.090	-0.150	1.500
2020/01/31 09:26:16.1	100.390	-0.090	-0.120	1.500
2020/01/31 09:26:16.2	100.400	-0.080	-0.080	1.500
2020/01/31 09:26:16.3	100.420	-0.080	-0.040	1.500
2020/01/31 09:26:16.4	100.410	-0.070	-0.010	1.500
2020/01/31 09:26:16.5	100.410	-0.060	0.020	1.510
2020/01/31 09:26:16.6	100.400	-0.060	0.040	1.510
2020/01/31 09:26:16.7	100.390	-0.050	0.070	1.520
2020/01/31 09:26:16.8	100.370	-0.050	0.090	1.520
2020/01/31 09:26:16.9	100.350	-0.040	0.110	1.530
2020/01/31 09:26:17.0	100.330	-0.030	0.130	1.540
2020/01/31 09:26:17.1	100.300	-0.020	0.140	1.550
2020/01/31 09:26:17.2	100.280	-0.020	0.150	1.560
2020/01/31 09:26:17.3	100.250	-0.010	0.160	1.570
2020/01/31 09:26:17.4	100.220	0.000	0.160	1.570
2020/01/31 09:26:17.5	100.190	0.010	0.160	1.580
2020/01/31 09:26:17.6	100.150	0.020	0.160	1.580
2020/01/31 09:26:17.7	100.120	0.030	0.150	1.590
2020/01/31 09:26:17.8	100.080	0.040	0.140	1.590
2020/01/31 09:26:17.9	100.050	0.050	0.130	1.580
2020/01/31 09:26:18.0	100.020	0.060	0.120	1.580
2020/01/31 09:26:18.1	99.980	0.070	0.100	1.570
2020/01/31 09:26:18.2	99.950	0.080	0.080	1.550
2020/01/31 09:26:18.3	99.930	0.090	0.060	1.530
2020/01/31 09:26:18.4	99.900	0.100	0.040	1.510
2020/01/31 09:26:18.5	99.870	0.110	0.020	1.480
2020/01/31 09:26:18.6	99.840	0.120	-0.000	1.450
2020/01/31 09:26:18.7	99.820	0.130	-0.020	1.410
2020/01/31 09:26:18.8	99.800	0.140	-0.050	1.370
2020/01/31 09:26:18.9	99.780	0.150	-0.070	1.320
2020/01/31 09:26:19.0	99.760	0.160	-0.090	1.270
2020/01/31 09:26:19.1	99.740	0.170	-0.110	1.210
2020/01/31 09:26:19.2	99.730	0.170	-0.130	1.150
2020/01/31 09:26:19.3	99.730	0.180	-0.150	1.080
2020/01/31 09:26:19.4	99.720	0.180	-0.170	1.010
2020/01/31 09:26:19.5	99.720	0.190	-0.190	0.940
2020/01/31 09:26:19.6	99.720	0.190	-0.200	0.860
2020/01/31 09:26:19.7	99.720	0.190	-0.220	0.780
2020/01/31 09:26:19.8	99.720	0.190	-0.230	0.700
2020/01/31 09:26:19.9	99.730	0.190	-0.240	0.610
2020/01/31 09:26:20.0	99.740	0.190	-0.250	0.530
2020/01/31 09:26:20.1	99.750	0.190	-0.260	0.440
2020/01/31 09:26:20.2	99.770	0.190	-0.270	0.350
2020/01/31 09:26:20.3	99.770	0.180	-0.280	0.250
2020/01/31 09:26:20.4	99.790	0.180	-0.280	0.160
2020/01/31 09:26:20.5	99.820	0.170	-0.290	0.070
2020/01/31 09:26:20.6	99.840	0.170	-0.290	-0.030
2020/01/31 09:26:20.7	99.870	0.160	-0.290	-0.120
2020/01/31 09:26:20.8	99.900	0.150	-0.290	-0.210
2020/01/31 09:26:20.9	99.930	0.140	-0.290	-0.300
2020/01/31 09:26:21.0	99.960	0.130	-0.290	-0.380
2020/01/31 09:26:21.1	100.000	0.120	-0.290	-0.460
2020/01/31 09:26:21.2	100.030	0.110	-0.280	-0.540
2020/01/31 09:26:21.3	100.050	0.100	-0.280	-0.620
2020/01/31 09:26:21.4	100.090	0.090	-0.280	-0.690
2020/01/31 09:26:21.5	100.130	0.080	-0.270	-0.760
2020/01/31 09:26:21.6	100.170	0.070	-0.270	-0.830
2020/01/31 09:26:21.7	100.210	0.060	-0.260	-0.890
2020/01/31 09:26:21.8	100.250	0.040	-0.260	-0.950
2020/01/31 09:26:21.9	100.300	0.030	-0.250	-1.000
2020/01/31 09:26:22.0	100.340	0.020	-0.250	-1.050
2020/01/31 09:26:22.1	100.380	0.010	-0.240	-1.090
2020/01/31 09:26:22.2	100.430	-0.000	-0.240	-1.130
2020/01/31 09:26:22.3	100.490	-0.010	-0.230	-1.160
2020/01/31 09:26:22.4	100.530	-0.030	-0.230	-1.190
2020/01/31 09:26:22.5	100.580	-0.040	-0.230	-1.210
2020/01/31 09:26:22.6	100.620	-0.050	-0.220	-1.230
2020/01/31 09:26:22.7	100.670	-0.060	-0.220	-1.240
2020/01/31 09:26:22.8	100.710	-0.070	-0.220	-1.240
2020/01/31 09:26:22.9	100.760	-0.080	-0.220	-1.240
2020/01/31 09:26:23.0	100.800	-0.090	-0.210	-1.240
2020/01/31 09:26:23.1	100.840	-0.100	-0.210	-1.230
2020/01/31 09:26:23.2	100.880	-0.100	-0.210	-1.210
2020/01/31 09:26:23.3	100.920	-0.110	-0.210	-1.180
2020/01/31 09:26:23.4	100.950	-0.120	-0.210	-1.160
2020/01/31 09:26:23.5	100.990	-0.130	-0.200	-1.120
2020/01/31 09:26:23.6	101.020	-0.130	-0.200	-1.080
2020/01/31 09:26:23.7	101.050	-0.140	-0.200	-1.030
2020/01/31 09:26:23.8	101.070	-0.150	-0.200	-0.980
2020/01/31 09:26:23.9	101.090	-0.150	-0.200	-0.920
2020/01/31 09:26:24.0	101.110	-0.150	-0.190	-0.860
2020/01/31 09:26:24.1	101.130	-0.160	-0.190	-0.790
2020/01/31 09:26:24.2	101.140	-0.160	-0.190	-0.720
2020/01/31 09:26:24.3	101.160	-0.160	-0.180	-0.640
2020/01/31 09:26:24.4	101.160	-0.170	-0.180	-0.560
2020/01/31 09:26:24.5	101.160	-0.170	-0.170	-0.470
2020/01/31 09:26:24.6	101.160	-0.170	-0.160	-0.380
2020/01/31 09:26:24.7	101.160	-0.170	-0.160	-0.290
2020/01/31 09:26:24.8	101.150	-0.170	-0.150	-0.190
2020/01/31 09:26:24.9	101.140	-0.170	-0.140	-0.100
2020/01/31 09:26:25.0	101.130	-0.160	-0.130	0.000
2020/01/31 09:26:25.1	101.120	-0.160	-0.120	0.100
2020/01/31 09:26:25.2	101.100	-0.160	-0.110	0.210
2020/01/31 09:26:25.3	101.080	-0.150	-0.100	0.310
2020/01/31 09:26:25.4	101.070	-0.150	-0.090	0.410
2020/01/31 09:26:25.5	101.050	-0.140	-0.080	0.520
2020/01/31 09:26:25.6	101.030	-0.130	-0.070	0.620
2020/01/31 09:26:25.7	101.000	-0.120	-0.060	0.720
2020/01/31 09:26:25.8	100.980	-0.120	-0.040	0.820
2020/01/31 09:26:25.9	100.960	-0.110	-0.030	0.920
2020/01/31 09:26:26.0	100.940	-0.100	-0.020	1.020
2020/01/31 09:26:26.1	100.920	-0.090	-0.000	1.120
2020/01/31 09:26:26.2	100.900	-0.070	0.010	1.210
2020/01/31 09:26:26.3	100.880	-0.060	0.020	1.300
2020/01/31 09:26:26.4	100.860	-0.050	0.030	1.390
2020/01/31 09:26:26.5	100.850	-0.040	0.040	1.480
2020/01/31 09:26:26.6	100.830	-0.020	0.060	1.560
2020/01/31 09:26:26.7	100.810	-0.010	0.070	1.640
2020/01/31 09:26:26.8	100.800	0.010	0.070	1.710
2020/01/31 09:26:26.9	100.790	0.020	0.080	1.780
2020/01/31 09:26:27.0	100.780	0.040	0.090	1.850
2020/01/31 09:26:27.1	100.770	0.050	0.090	1.920
2020/01/31 09:26:27.2	100.760	0.070	0.090	1.980
2020/01/31 09:26:27.3	100.760	0.090	0.090	2.030
2020/01/31 09:26:27.4	100.760	0.100	0.080	2.080
2020/01/31 09:26:27.5	100.760	0.120	0.080	2.130
2020/01/31 09:26:27.6	100.760	0.140	0.070	2.170
2020/01/31 09:26:27.7	100.760	0.160	0.050	2.210
2020/01/31 09:26:27.8	100.760	0.170	0.040	2.250
2020/01/31 09:26:27.9	100.770	0.190	0.020	2.270
2020/01/31 09:26:28.0	100.770	0.210	0.000	2.300
2020/01/31 09:26:28.1	100.780	0.230	-0.020	2.320
2020/01/31 09:26:28.2	100.790	0.250	-0.050	2.330
2020/01/31 09:26:28.3	100.810	0.270	-0.080	2.340
2020/01/31 09:26:28.4	100.830	0.290	-0.110	2.350
2020/01/31 09:26:28.5	100.840	0.300	-0.150	2.350
2020/01/31 09:26:28.6	100.860	0.320	-0.180	2.340
2020/01/31 09:26:28.7	100.880	0.340	-0.220	2.330
2020/01/31 09:26:28.8	100.900	0.360	-0.260	2.320
2020/01/31 09:26:28.9	100.920	0.370	-0.290	2.300
2020/01/31 09:26:29.0	100.940	0.390	-0.330	2.280
2020/01/31 09:26:29.1	100.970	0.400	-0.370	2.250
2020/01/31 09:26:29.2	101.000	0.410	-0.410	2.220
2020/01/31 09:26:29.3	101.040	0.430	-0.450	2.180
2020/01/31 09:26:29.4	101.070	0.440	-0.490	2.140
2020/01/31 09:26:29.5	101.110	0.450	-0.520	2.100
2020/01/31 09:26:29.6	101.140	0.450	-0.560	2.050
2020/01/31 09:26:29.7	101.180	0.460	-0.590	2.000
2020/01/31 09:26:29.8	101.220	0.460	-0.610	1.950
2020/01/31 09:26:29.9	101.260	0.470	-0.640	1.890
2020/01/31 09:26:30.0	101.300	0.470	-0.660	1.830
2020/01/31 09:26:30.1	101.340	0.470	-0.680	1.770
2020/01/31 09:26:30.2	101.380	0.460	-0.700	1.720
2020/01/31 09:26:30.3	101.420	0.460	-0.710	1.650
2020/01/31 09:26:30.4	101.460	0.450	-0.720	1.590
2020/01/31 09:26:30.5	101.500	0.440	-0.720	1.530
2020/01/31 09:26:30.6	101.540	0.430	-0.720	1.470
2020/01/31 09:26:30.7	101.580	0.410	-0.710	1.410
2020/01/31 09:26:30.8	101.620	0.400	-0.700	1.360
2020/01/31 09:26:30.9	101.660	0.380	-0.680	1.300
2020/01/31 09:26:31.0	101.690	0.360	-0.660	1.250
2020/01/31 09:26:31.1	101.730	0.330	-0.640	1.200
2020/01/31 09:26:31.2	101.760	0.310	-0.610	1.150
2020/01/31 09:26:31.3	101.760	0.280	-0.580	1.110
2020/01/31 09:26:31.4	101.790	0.250	-0.540	1.070
2020/01/31 09:26:31.5	101.820	0.220	-0.500	1.030
2020/01/31 09:26:31.6	101.840	0.190	-0.460	1.000
2020/01/31 09:26:31.7	101.860	0.150	-0.410	0.960
2020/01/31 09:26:31.8	101.870	0.120	-0.360	0.930
2020/01/31 09:26:31.9	101.880	0.080	-0.310	0.910
2020/01/31 09:26:32.0	101.900	0.040	-0.250	0.880
2020/01/31 09:26:32.1	101.900	0.000	-0.200	0.860
2020/01/31 09:26:32.2	101.910	-0.040	-0.140	0.840
2020/01/31 09:26:32.3	101.900	-0.080	-0.080	0.820
2020/01/31 09:26:32.4	101.900	-0.120	-0.020	0.810
2020/01/31 09:26:32.5	101.900	-0.170	0.050	0.790
2020/01/31 09:26:32.6	101.900	-0.210	0.110	0.780
2020/01/31 09:26:32.7	101.900	-0.250	0.180	0.770
2020/01/31 09:26:32.8	101.890	-0.300	0.240	0.760
2020/01/31 09:26:32.9	101.880	-0.340	0.310	0.750
2020/01/31 09:26:33.0	101.880	-0.380	0.380	0.740
2020/01/31 09:26:33.1	101.870	-0.430	0.440	0.720
2020/01/31 09:26:33.2	101.860	-0.470	0.510	0.710
2020/01/31 09:26:33.3	101.840	-0.510	0.570	0.700
2020/01/31 09:26:33.4	101.840	-0.540	0.630	0.690
2020/01/31 09:26:33.5	101.830	-0.580	0.690	0.680
2020/01/31 09:26:33.6	101.820	-0.610	0.740	0.660
2020/01/31 09:26:33.7	101.810	-0.640	0.790	0.650
2020/01/31 09:26:33.8	101.800	-0.670	0.830	0.630
2020/01/31 09:26:33.9	101.790	-0.700	0.870	0.620
2020/01/31 09:26:34.0	101.780	-0.720	0.910	0.600
2020/01/31 09:26:34.1	101.780	-0.740	0.930	0.580
2020/01/31 09:26:34.2	101.770	-0.760	0.950	0.560
2020/01/31 09:26:34.3	101.770	-0.770	0.960	0.540
2020/01/31 09:26:34.4	101.760	-0.780	0.960	0.510
2020/01/31 09:26:34.5	101.760	-0.780	0.950	0.490
2020/01/31 09:26:34.6	101.760	-0.780	0.930	0.470
2020/01/31 09:26:34.7	101.750	-0.770	0.910	0.450
2020/01/31 09:26:34.8	101.750	-0.760	0.870	0.430
2020/01/31 09:26:34.9	101.750	-0.750	0.820	0.410
2020/01/31 09:26:35.0	101.750	-0.730	0.770	0.380
2020/01/31 09:26:35.1	101.760	-0.700	0.700	0.360
2020/01/31 09:26:35.2	101.760	-0.680	0.630	0.340
2020/01/31 09:26:35.3	101.750	-0.640	0.540	0.310
2020/01/31 09:26:35.4	101.760	-0.610	0.450	0.290
2020/01/31 09:26:35.5	101.770	-0.570	0.350	0.270
2020/01/31 09:26:35.6	101.780	-0.520	0.240	0.240
2020/01/31 09:26:35.7	101.790	-0.480	0.120	0.220
2020/01/31 09:26:35.8	101.800	-0.430	0.010	0.190
2020/01/31 09:26:35.9	101.810	-0.370	-0.120	0.170
2020/01/31 09:26:36.0	101.830	-0.320	-0.240	0.150
2020/01/31 09:26:36.1	101.850	-0.260	-0.370	0.120
2020/01/31 09:26:36.2	101.860	-0.210	-0.500	0.100
2020/01/31 09:26:36.3	101.880	-0.150	-0.630	0.070
2020/01/31 09:26:36.4	101.900	-0.090	-0.760	0.050
2020/01/31 09:26:36.5	101.920	-0.030	-0.890	0.030
2020/01/31 09:26:36.6	101.940	0.030	-1.010	0.000
2020/01/31 09:26:36.7	101.970	0.080	-1.130	-0.020
2020/01/31 09:26:36.8	101.990	0.140	-1.240	-0.040
2020/01/31 09:26:36.9	102.010	0.190	-1.340	-0.050
2020/01/31 09:26:37.0	102.030	0.240	-1.440	-0.070
2020/01/31 09:26:37.1	102.050	0.290	-1.530	-0.090
2020/01/31 09:26:37.2	102.080	0.330	-1.600	-0.100
2020/01/31 09:26:37.3	102.090	0.370	-1.670	-0.110
2020/01/31 09:26:37.4	102.110	0.410	-1.720	-0.120
2020/01/31 09:26:37.5	102.130	0.440	-1.770	-0.120
2020/01/31 09:26:37.6	102.140	0.470	-1.800	-0.130
2020/01/31 09:26:37.7	102.160	0.490	-1.820	-0.130
2020/01/31 09:26:37.8	102.170	0.510	-1.830	-0.130
2020/01/31 09:26:37.9	102.180	0.530	-1.830	-0.120
2020/01/31 09:26:38.0	102.190	0.540	-1.810	-0.120
2020/01/31 09:26:38.1	102.200	0.540	-1.780	-0.110
2020/01/31 09:26:38.2	102.210	0.540	-1.740	-0.100
2020/01/31 09:26:38.3	102.220	0.540	-1.680	-0.080
2020/01/31 09:26:38.4	102.230	0.530	-1.620	-0.070
2020/01/31 09:26:38.5	102.230	0.520	-1.540	-0.040
2020/01/31 09:26:38.6	102.230	0.500	-1.450	-0.020
2020/01/31 09:26:38.7	102.230	0.480	-1.360	0.000
2020/01/31 09:26:38.8	102.230	0.460	-1.250	0.030
2020/01/31 09:26:38.9	102.230	0.430	-1.140	0.060
2020/01/31 09:26:39.0	102.230	0.400	-1.020	0.090
2020/01/31 09:26:39.1	102.230	0.370	-0.890	0.130
2020/01/31 09:26:39.2	102.230	0.330	-0.750	0.160
2020/01/31 09:26:39.3	102.220	0.300	-0.610	0.200
2020/01/31 09:26:39.4	102.220	0.260	-0.470	0.240
2020/01/31 09:26:39.5	102.220	0.220	-0.330	0.280
2020/01/31 09:26:39.6	102.220	0.180	-0.180	0.320
2020/01/31 09:26:39.7	102.220	0.140	-0.030	0.360
2020/01/31 09:26:39.8	102.220	0.100	0.120	0.400
2020/01/31 09:26:39.9	102.220	0.060	0.260	0.450
2020/01/31 09:26:40.0	102.220	0.020	0.410	0.490
2020/01/31 09:26:40.1	102.220	-0.020	0.550	0.530
2020/01/31 09:26:40.2	102.230	-0.050	0.680	0.580
2020/01/31 09:26:40.3	102.240	-0.090	0.810	0.620
2020/01/31 09:26:40.4	102.240	-0.120	0.940	0.660
2020/01/31 09:26:40.5	102.240	-0.150	1.050	0.700
2020/01/31 09:26:40.6	102.250	-0.180	1.160	0.750
2020/01/31 09:26:40.7	102.250	-0.210	1.260	0.790
2020/01/31 09:26:40.8	102.260	-0.240	1.350	0.820
2020/01/31 09:26:40.9	102.260	-0.260	1.420	0.860
2020/01/31 09:26:41.0	102.270	-0.270	1.490	0.900
2020/01/31 09:26:41.1	102.280	-0.290	1.540	0.930
2020/01/31 09:26:41.2	102.280	-0.300	1.580	0.960
2020/01/31 09:26:41.3	102.290	-0.310	1.610	0.990
2020/01/31 09:26:41.4	102.300	-0.310	1.620	1.010
2020/01/31 09:26:41.5	102.310	-0.320	1.620	1.040
2020/01/31 09:26:41.6	102.320	-0.310	1.610	1.060
2020/01/31 09:26:41.7	102.330	-0.310	1.580	1.070
2020/01/31 09:26:41.8	102.340	-0.300	1.540	1.090
2020/01/31 09:26:41.9	102.360	-0.280	1.490	1.100
2020/01/31 09:26:42.0	102.370	-0.270	1.430	1.110
2020/01/31 09:26:42.1	102.390	-0.250	1.350	1.120
2020/01/31 09:26:42.2	102.410	-0.220	1.270	1.120
2020/01/31 09:26:42.3	102.450	-0.200	1.170	1.120
2020/01/31 09:26:42.4	102.470	-0.170	1.070	1.120
2020/01/31 09:26:42.5	102.490	-0.140	0.950	1.120
2020/01/31 09:26:42.6	102.510	-0.110	0.830	1.110
2020/01/31 09:26:42.7	102.540	-0.070	0.710	1.110
2020/01/31 09:26:42.8	102.560	-0.030	0.570	1.100
2020/01/31 09:26:42.9	102.580	0.000	0.440	1.090
2020/01/31 09:26:43.0	102.600	0.040	0.300	1.090
2020/01/31 09:26:43.1	102.620	0.080	0.150	1.080
2020/01/31 09:26:43.2	102.640	0.130	0.010	1.070
2020/01/31 09:26:43.3	102.650	0.170	-0.140	1.070
2020/01/31 09:26:43.4	102.670	0.210	-0.290	1.060
2020/01/31 09:26:43.5	102.680	0.250	-0.430	1.060
2020/01/31 09:26:43.6	102.700	0.290	-0.560	1.060
2020/01/31 09:26:43.7	102.710	0.330	-0.700	1.060
2020/01/31 09:26:43.8	102.720	0.360	-0.830	1.060
2020/01/31 09:26:43.9	102.730	0.400	-0.950	1.070
2020/01/31 09:26:44.0	102.740	0.430	-1.070	1.070
2020/01/31 09:26:44.1	102.750	0.460	-1.180	1.080
2020/01/31 09:26:44.2	102.750	0.490	-1.280	1.090
2020/01/31 09:26:44.3	102.750	0.520	-1.370	1.110
2020/01/31 09:26:44.4	102.750	0.540	-1.450	1.120
2020/01/31 09:26:44.5	102.750	0.560	-1.520	1.140
2020/01/31 09:26:44.6	102.750	0.580	-1.590	1.150
2020/01/31 09:26:44.7	102.750	0.590	-1.640	1.170
2020/01/31 09:26:44.8	102.750	0.600	-1.680	1.190
2020/01/31 09:26:44.9	102.740	0.610	-1.710	1.210
2020/01/31 09:26:45.0	102.740	0.610	-1.720	1.220
2020/01/31 09:26:45.1	102.740	0.610	-1.730	1.240
2020/01/31 09:26:45.2	102.740	0.610	-1.730	1.260
2020/01/31 09:26:45.3	102.740	0.600	-1.710	1.270
2020/01/31 09:26:45.4	102.740	0.590	-1.690	1.290
2020/01/31 09:26:45.5	102.740	0.570	-1.650	1.300
2020/01/31 09:26:45.6	102.740	0.550	-1.610	1.320
2020/01/31 09:26:45.7	102.740	0.540	-1.560	1.330
2020/01/31 09:26:45.8	102.740	0.510	-1.490	1.340
2020/01/31 09:26:45.9	102.740	0.490	-1.420	1.350
2020/01/31 09:26:46.0	102.750	0.460	-1.350	1.360
2020/01/31 09:26:46.1	102.750	0.430	-1.260	1.370
2020/01/31 09:26:46.2	102.750	0.400	-1.170	1.380
2020/01/31 09:26:46.3	102.740	0.370	-1.070	1.390
2020/01/31 09:26:46.4	102.740	0.330	-0.980	1.390
2020/01/31 09:26:46.5	102.740	0.300	-0.880	1.400
2020/01/31 09:26:46.6	102.740	0.260	-0.770	1.400
2020/01/31 09:26:46.7	102.750	0.230	-0.660	1.400
2020/01/31 09:26:46.8	102.750	0.190	-0.560	1.410
2020/01/31 09:26:46.9	102.750	0.150	-0.450	1.410
2020/01/31 09:26:47.0	102.750	0.110	-0.340	1.410
2020/01/31 09:26:47.1	102.750	0.070	-0.230	1.420
2020/01/31 09:26:47.2	102.760	0.030	-0.120	1.420
2020/01/31 09:26:47.3	102.770	-0.000	-0.020	1.420
2020/01/31 09:26:47.4	102.770	-0.040	0.080	1.420
2020/01/31 09:26:47.5	102.770	-0.080	0.180	1.420
2020/01/31 09:26:47.6	102.770	-0.120	0.280	1.420
2020/01/31 09:26:47.7	102.770	-0.150	0.370	1.430
2020/01/31 09:26:47.8	102.780	-0.190	0.460	1.430
2020/01/31 09:26:47.9	102.780	-0.220	0.540	1.430
2020/01/31 09:26:48.0	102.780	-0.260	0.620	1.430
2020/01/31 09:26:48.1	102.780	-0.290	0.690	1.430
2020/01/31 09:26:48.2	102.790	-0.320	0.750	1.430
2020/01/31 09:26:48.3	102.800	-0.350	0.820	1.440
2020/01/31 09:26:48.4	102.810	-0.380	0.870	1.430
2020/01/31 09:26:48.5	102.810	-0.400	0.920	1.430
2020/01/31 09:26:48.6	102.820	-0.430	0.960	1.430
2020/01/31 09:26:48.7	102.830	-0.450	0.990	1.420
2020/01/31 09:26:48.8	102.840	-0.470	1.010	1.410
2020/01/31 09:26:48.9	102.850	-0.490	1.030	1.400
2020/01/31 09:26:49.0	102.860	-0.500	1.050	1.390
2020/01/31 09:26:49.1	102.880	-0.520	1.050	1.370
2020/01/31 09:26:49.2	102.890	-0.530	1.050	1.360
2020/01/31 09:26:49.3	102.930	-0.540	1.040	1.330
2020/01/31 09:26:49.4	102.940	-0.550	1.020	1.310
2020/01/31 09:26:49.5	102.960	-0.550	1.000	1.290
2020/01/31 09:26:49.6	102.980	-0.560	0.970	1.260
2020/01/31 09:26:49.7	103.000	-0.560	0.940	1.230
2020/01/31 09:26:49.8	103.020	-0.560	0.890	1.200
2020/01/31 09:26:49.9	103.040	-0.550	0.850	1.170
2020/01/31 09:26:50.0	103.070	-0.550	0.800	1.140
2020/01/31 09:26:50.1	103.080	-0.540	0.740	1.100
2020/01/31 09:26:50.2	103.100	-0.530	0.670	1.070
2020/01/31 09:26:50.3	103.120	-0.520	0.610	1.040
2020/01/31 09:26:50.4	103.140	-0.510	0.530	1.000
2020/01/31 09:26:50.5	103.150	-0.490	0.460	0.960
2020/01/31 09:26:50.6	103.170	-0.480	0.370	0.930
2020/01/31 09:26:50.7	103.180	-0.460	0.290	0.890
2020/01/31 09:26:50.8	103.190	-0.440	0.210	0.850
2020/01/31 09:26:50.9	103.200	-0.420	0.120	0.820
2020/01/31 09:26:51.0	103.210	-0.400	0.030	0.780
2020/01/31 09:26:51.1	103.220	-0.380	-0.060	0.750
2020/01/31 09:26:51.2	103.230	-0.350	-0.150	0.710
2020/01/31 09:26:51.3	103.220	-0.330	-0.250	0.680
2020/01/31 09:26:51.4	103.230	-0.300	-0.340	0.650
2020/01/31 09:26:51.5	103.230	-0.270	-0.420	0.620
2020/01/31 09:26:51.6	103.220	-0.250	-0.510	0.590
2020/01/31 09:26:51.7	103.220	-0.220	-0.590	0.560
2020/01/31 09:26:51.8	103.210	-0.190	-0.670	0.540
2020/01/31 09:26:51.9	103.210	-0.170	-0.740	0.510
2020/01/31 09:26:52.0	103.200	-0.140	-0.810	0.490
2020/01/31 09:26:52.1	103.190	-0.110	-0.880	0.470
2020/01/31 09:26:52.2	103.180	-0.090	-0.930	0.460
2020/01/31 09:26:52.3	103.170	-0.060	-0.980	0.440
2020/01/31 09:26:52.4	103.160	-0.040	-1.020	0.420
2020/01/31 09:26:52.5	103.150	-0.020	-1.060	0.410
2020/01/31 09:26:52.6	103.140	0.000	-1.090	0.400
2020/01/31 09:26:52.7	103.130	0.020	-1.100	0.390
2020/01/31 09:26:52.8	103.120	0.040	-1.110	0.390
2020/01/31 09:26:52.9	103.110	0.050	-1.120	0.380
2020/01/31 09:26:53.0	103.100	0.060	-1.110	0.380
2020/01/31 09:26:53.1	103.100	0.070	-1.100	0.380
2020/01/31 09:26:53.2	103.090	0.080	-1.070	0.380
2020/01/31 09:26:53.3	103.080	0.090	-1.050	0.380
2020/01/31 09:26:53.4	103.080	0.090	-1.010	0.380
2020/01/31 09:26:53.5	103.080	0.100	-0.970	0.390
2020/01/31 09:26:53.6	103.070	0.100	-0.920	0.400
2020/01/31 09:26:53.7	103.070	0.090	-0.870	0.410
2020/01/31 09:26:53.8	103.070	0.090	-0.810	0.420
2020/01/31 09:26:53.9	103.070	0.090	-0.740	0.430
2020/01/31 09:26:54.0	103.070	0.080	-0.680	0.450
2020/01/31 09:26:54.1	103.080	0.080	-0.610	0.460
2020/01/31 09:26:54.2	103.080	0.070	-0.540	0.480
2020/01/31 09:26:54.3	103.080	0.060	-0.470	0.500
2020/01/31 09:26:54.4	103.080	0.050	-0.400	0.520
2020/01/31 09:26:54.5	103.090	0.050	-0.330	0.550
2020/01/31 09:26:54.6	103.090	0.040	-0.260	0.570
2020/01/31 09:26:54.7	103.090	0.030	-0.200	0.600
2020/01/31 09:26:54.8	103.090	0.030	-0.140	0.620
2020/01/31 09:26:54.9	103.100	0.020	-0.080	0.650
2020/01/31 09:26:55.0	103.100	0.020	-0.020	0.670
2020/01/31 09:26:55.1	103.100	0.020	0.030	0.700
2020/01/31 09:26:55.2	103.100	0.020	0.070	0.730
2020/01/31 09:26:55.3	103.100	0.020	0.110	0.750
2020/01/31 09:26:55.4	103.100	0.020	0.140	0.780
2020/01/31 09:26:55.5	103.100	0.030	0.170	0.800
2020/01/31 09:26:55.6	103.110	0.030	0.190	0.820
2020/01/31 09:26:55.7	103.110	0.040	0.210	0.840
2020/01/31 09:26:55.8	103.120	0.050	0.220	0.850
2020/01/31 09:26:55.9	103.120	0.070	0.220	0.870
2020/01/31 09:26:56.0	103.130	0.080	0.220	0.880
2020/01/31 09:26:56.1	103.140	0.100	0.220	0.880
2020/01/31 09:26:56.2	103.140	0.120	0.210	0.880
2020/01/31 09:26:56.3	103.150	0.140	0.190	0.880
2020/01/31 09:26:56.4	103.160	0.160	0.170	0.880
2020/01/31 09:26:56.5	103.180	0.180	0.150	0.870
2020/01/31 09:26:56.6	103.190	0.200	0.120	0.850
2020/01/31 09:26:56.7	103.200	0.230	0.100	0.830
2020/01/31 09:26:56.8	103.220	0.250	0.070	0.810
2020/01/31 09:26:56.9	103.230	0.270	0.040	0.790
2020/01/31 09:26:57.0	103.250	0.300	0.010	0.770
2020/01/31 09:26:57.1	103.260	0.320	-0.020	0.740
2020/01/31 09:26:57.2	103.280	0.340	-0.050	0.710
2020/01/31 09:26:57.3	103.300	0.360	-0.080	0.680
2020/01/31 09:26:57.4	103.320	0.380	-0.110	0.650
2020/01/31 09:26:57.5	103.330	0.400	-0.140	0.620
2020/01/31 09:26:57.6	103.350	0.420	-0.170	0.590
2020/01/31 09:26:57.7	103.360	0.430	-0.190	0.560
2020/01/31 09:26:57.8	103.380	0.450	-0.210	0.530
2020/01/31 09:26:57.9	103.390	0.460	-0.230	0.510
2020/01/31 09:26:58.0	103.400	0.470	-0.250	0.490
2020/01/31 09:26:58.1	103.410	0.470	-0.270	0.470
2020/01/31 09:26:58.2	103.420	0.470	-0.280	0.450
2020/01/31 09:26:58.3	103.440	0.480	-0.290	0.440
2020/01/31 09:26:58.4	103.440	0.470	-0.300	0.430
2020/01/31 09:26:58.5	103.450	0.470	-0.300	0.420
2020/01/31 09:26:58.6	103.450	0.460	-0.310	0.420
2020/01/31 09:26:58.7	103.450	0.460	-0.310	0.420
2020/01/31 09:26:58.8	103.450	0.450	-0.310	0.420
2020/01/31 09:26:58.9	103.450	0.430	-0.300	0.430
2020/01/31 09:26:59.0	103.450	0.420	-0.300	0.440
2020/01/31 09:26:59.1	103.450	0.400	-0.290	0.460
2020/01/31 09:26:59.2	103.440	0.390	-0.290	0.480
2020/01/31 09:26:59.3	103.440	0.370	-0.280	0.490
2020/01/31 09:26:59.4	103.440	0.350	-0.280	0.520
2020/01/31 09:26:59.5	103.430	0.330	-0.270	0.540
2020/01/31 09:26:59.6	103.420	0.310	-0.260	0.570
2020/01/31 09:26:59.7	103.420	0.280	-0.250	0.600
2020/01/31 09:26:59.8	103.410	0.260	-0.240	0.640
2020/01/31 09:26:59.9	103.400	0.240	-0.230	0.670
2020/01/31 09:27:00.0	103.390	0.220	-0.220	0.700
2020/01/31 09:27:00.1	103.390	0.200	-0.220	0.740
2020/01/31 09:27:00.2	103.380	0.180	-0.210	0.770
2020/01/31 09:27:00.3	103.360	0.160	-0.200	0.810
2020/01/31 09:27:00.4	103.360	0.140	-0.190	0.840
2020/01/31 09:27:00.5	103.350	0.120	-0.190	0.880
2020/01/31 09:27:00.6	103.340	0.100	-0.180	0.910
2020/01/31 09:27:00.7	103.340	0.090	-0.180	0.940
2020/01/31 09:27:00.8	103.330	0.070	-0.170	0.980
2020/01/31 09:27:00.9	103.330	0.060	-0.160	1.000
2020/01/31 09:27:01.0	103.320	0.050	-0.160	1.030
2020/01/31 09:27:01.1	103.320	0.030	-0.150	1.050
2020/01/31 09:27:01.2	103.320	0.020	-0.140	1.070
2020/01/31 09:27:01.3	103.320	0.010	-0.130	1.090
2020/01/31 09:27:01.4	103.320	0.000	-0.120	1.100
2020/01/31 09:27:01.5	103.330	-0.010	-0.110	1.120
2020/01/31 09:27:01.6	103.340	-0.020	-0.100	1.120
2020/01/31 09:27:01.7	103.340	-0.030	-0.080	1.130
2020/01/31 09:27:01.8	103.350	-0.040	-0.060	1.130
2020/01/31 09:27:01.9	103.370	-0.050	-0.040	1.130
2020/01/31 09:27:02.0	103.380	-0.060	-0.020	1.120
2020/01/31 09:27:02.1	103.400	-0.070	0.000	1.110
2020/01/31 09:27:02.2	103.410	-0.080	0.030	1.100
2020/01/31 09:27:02.3	103.430	-0.090	0.050	1.090
2020/01/31 09:27:02.4	103.450	-0.110	0.070	1.080
2020/01/31 09:27:02.5	103.480	-0.120	0.100	1.060
2020/01/31 09:27:02.6	103.500	-0.130	0.130	1.050
2020/01/31 09:27:02.7	103.520	-0.150	0.160	1.030
2020/01/31 09:27:02.8	103.550	-0.170	0.190	1.010
2020/01/31 09:27:02.9	103.570	-0.180	0.210	1.000
2020/01/31 09:27:03.0	103.590	-0.200	0.240	0.980
2020/01/31 09:27:03.1	103.620	-0.220	0.260	0.970
2020/01/31 09:27:03.2	103.640	-0.240	0.290	0.950
2020/01/31 09:27:03.3	103.660	-0.260	0.310	0.940
2020/01/31 09:27:03.4	103.690	-0.280	0.320	0.930
2020/01/31 09:27:03.5	103.710	-0.300	0.340	0.930
2020/01/31 09:27:03.6	103.730	-0.320	0.350	0.920
2020/01/31 09:27:03.7	103.750	-0.340	0.360	0.920
2020/01/31 09:27:03.8	103.770	-0.360	0.360	0.910
2020/01/31 09:27:03.9	103.790	-0.380	0.360	0.910
2020/01/31 09:27:04.0	103.810	-0.390	0.360	0.910
2020/01/31 09:27:04.1	103.830	-0.410	0.350	0.920
2020/01/31 09:27:04.2	103.850	-0.430	0.330	0.920
2020/01/31 09:27:04.3	103.890	-0.440	0.310	0.930
2020/01/31 09:27:04.4	103.900	-0.450	0.290	0.930
2020/01/31 09:27:04.5	103.920	-0.470	0.260	0.940
2020/01/31 09:27:04.6	103.930	-0.470	0.230	0.950
2020/01/31 09:27:04.7	103.950	-0.480	0.190	0.960
2020/01/31 09:27:04.8	103.960	-0.490	0.150	0.970
2020/01/31 09:27:04.9	103.980	-0.490	0.110	0.980
2020/01/31 09:27:05.0	103.990	-0.490	0.070	0.990
2020/01/31 09:27:05.1	104.010	-0.480	0.020	1.000
2020/01/31 09:27:05.2	104.020	-0.480	-0.030	1.010
2020/01/31 09:27:05.3	104.030	-0.470	-0.090	1.020
2020/01/31 09:27:05.4	104.070	-0.460	-0.140	1.020
2020/01/31 09:27:05.5	104.080	-0.450	-0.200	1.030
2020/01/31 09:27:05.6	104.100	-0.430	-0.260	1.030
2020/01/31 09:27:05.7	104.110	-0.410	-0.320	1.040
2020/01/31 09:27:05.8	104.120	-0.390	-0.380	1.040
2020/01/31 09:27:05.9	104.140	-0.360	-0.440	1.050
2020/01/31 09:27:06.0	104.150	-0.340	-0.500	1.050
2020/01/31 09:27:06.1	104.160	-0.310	-0.570	1.050
2020/01/31 09:27:06.2	104.180	-0.280	-0.620	1.050
2020/01/31 09:27:06.3	104.190	-0.240	-0.680	1.040
2020/01/31 09:27:06.4	104.200	-0.210	-0.740	1.040
2020/01/31 09:27:06.5	104.210	-0.170	-0.790	1.030
2020/01/31 09:27:06.6	104.220	-0.130	-0.840	1.030
2020/01/31 09:27:06.7	104.230	-0.090	-0.890	1.020
2020/01/31 09:27:06.8	104.240	-0.060	-0.930	1.020
2020/01/31 09:27:06.9	104.250	-0.020	-0.970	1.010
2020/01/31 09:27:07.0	104.250	0.020	-1.010	1.000
2020/01/31 09:27:07.1	104.260	0.060	-1.040	0.990
2020/01/31 09:27:07.2	104.260	0.100	-1.060	0.980
2020/01/31 09:27:07.3	104.270	0.140	-1.080	0.960
2020/01/31 09:27:07.4	104.270	0.170	-1.100	0.950
2020/01/31 09:27:07.5	104.280	0.210	-1.100	0.930
2020/01/31 09:27:07.6	104.280	0.240	-1.100	0.920
2020/01/31 09:27:07.7	104.280	0.270	-1.090	0.900
2020/01/31 09:27:07.8	104.290	0.290	-1.080	0.880
2020/01/31 09:27:07.9	104.290	0.320	-1.060	0.870
2020/01/31 09:27:08.0	104.300	0.340	-1.030	0.850
2020/01/31 09:27:08.1	104.300	0.350	-0.990	0.830
2020/01/31 09:27:08.2	104.310	0.370	-0.950	0.800
2020/01/31 09:27:08.3	104.320	0.370	-0.900	0.780
2020/01/31 09:27:08.4	104.330	0.380	-0.840	0.760
2020/01/31 09:27:08.5	104.340	0.380	-0.780	0.740
2020/01/31 09:27:08.6	104.350	0.380	-0.710	0.720
2020/01/31 09:27:08.7	104.360	0.370	-0.640	0.700
2020/01/31 09:27:08.8	104.370	0.360	-0.560	0.680
2020/01/31 09:27:08.9	104.380	0.350	-0.470	0.660
2020/01/31 09:27:09.0	104.400	0.330	-0.390	0.640
2020/01/31 09:27:09.1	104.410	0.310	-0.300	0.630
2020/01/31 09:27:09.2	104.420	0.280	-0.210	0.610
2020/01/31 09:27:09.3	104.440	0.250	-0.110	0.590
2020/01/31 09:27:09.4	104.450	0.220	-0.020	0.580
2020/01/31 09:27:09.5	104.460	0.190	0.070	0.560
2020/01/31 09:27:09.6	104.480	0.160	0.170	0.550
2020/01/31 09:27:09.7	104.490	0.120	0.260	0.540
2020/01/31 09:27:09.8	104.500	0.080	0.340	0.530
2020/01/31 09:27:09.9	104.520	0.050	0.430	0.510
2020/01/31 09:27:10.0	104.530	0.010	0.510	0.500
2020/01/31 09:27:10.1	104.540	-0.030	0.580	0.490
2020/01/31 09:27:10.2	104.550	-0.070	0.650	0.480
2020/01/31 09:27:10.3	104.580	-0.100	0.710	0.470
2020/01/31 09:27:10.4	104.590	-0.140	0.760	0.450
2020/01/31 09:27:10.5	104.600	-0.170	0.810	0.440
2020/01/31 09:27:10.6	104.600	-0.200	0.850	0.420
2020/01/31 09:27:10.7	104.610	-0.230	0.880	0.410
2020/01/31 09:27:10.8	104.620	-0.250	0.910	0.390
2020/01/31 09:27:10.9	104.620	-0.270	0.920	0.380
2020/01/31 09:27:11.0	104.630	-0.290	0.920	0.360
2020/01/31 09:27:11.1	104.630	-0.310	0.920	0.340
2020/01/31 09:27:11.2	104.640	-0.320	0.910	0.320
2020/01/31 09:27:11.3	104.650	-0.320	0.890	0.300
2020/01/31 09:27:11.4	104.650	-0.330	0.850	0.280
2020/01/31 09:27:11.5	104.660	-0.320	0.820	0.260
2020/01/31 09:27:11.6	104.660	-0.320	0.770	0.240
2020/01/31 09:27:11.7	104.660	-0.310	0.720	0.220
2020/01/31 09:27:11.8	104.670	-0.300	0.660	0.200
2020/01/31 09:27:11.9	104.670	-0.280	0.590	0.180
2020/01/31 09:27:12.0	104.680	-0.260	0.520	0.160
2020/01/31 09:27:12.1	104.680	-0.240	0.450	0.140
2020/01/31 09:27:12.2	104.690	-0.210	0.370	0.120
2020/01/31 09:27:12.3	104.690	-0.190	0.280	0.100
2020/01/31 09:27:12.4	104.700	-0.160	0.190	0.080
2020/01/31 09:27:12.5	104.700	-0.120	0.110	0.070
2020/01/31 09:27:12.6	104.710	-0.090	0.020	0.050
2020/01/31 09:27:12.7	104.720	-0.060	-0.070	0.040
2020/01/31 09:27:12.8	104.740	-0.020	-0.160	0.030
2020/01/31 09:27:12.9	104.750	0.020	-0.240	0.020
2020/01/31 09:27:13.0	104.760	0.050	-0.320	0.010
2020/01/31 09:27:13.1	104.780	0.090	-0.410	0.010
2020/01/31 09:27:13.2	104.790	0.120	-0.480	0.000
2020/01/31 09:27:13.3	104.790	0.160	-0.560	-0.000
2020/01/31 09:27:13.4	104.810	0.190	-0.630	-0.000
2020/01/31 09:27:13.5	104.830	0.220	-0.690	0.000
2020/01/31 09:27:13.6	104.850	0.250	-0.750	0.010
2020/01/31 09:27:13.7	104.870	0.280	-0.810	0.010
2020/01/31 09:27:13.8	104.890	0.300	-0.860	0.020
2020/01/31 09:27:13.9	104.910	0.330	-0.900	0.030
2020/01/31 09:27:14.0	104.930	0.350	-0.940	0.050
2020/01/31 09:27:14.1	104.950	0.370	-0.970	0.060
2020/01/31 09:27:14.2	104.970	0.380	-0.990	0.080
2020/01/31 09:27:14.3	104.980	0.390	-1.010	0.090
2020/01/31 09:27:14.4	105.000	0.400	-1.020	0.120
2020/01/31 09:27:14.5	105.030	0.410	-1.020	0.140
2020/01/31 09:27:14.6	105.050	0.410	-1.020	0.160
2020/01/31 09:27:14.7	105.070	0.410	-1.010	0.190
2020/01/31 09:27:14.8	105.090	0.410	-0.990	0.210
2020/01/31 09:27:14.9	105.110	0.400	-0.970	0.240
2020/01/31 09:27:15.0	105.130	0.390	-0.940	0.270
2020/01/31 09:27:15.1	105.150	0.380	-0.900	0.300
2020/01/31 09:27:15.2	105.170	0.370	-0.870	0.330
2020/01/31 09:27:15.3	105.200	0.350	-0.820	0.360
2020/01/31 09:27:15.4	105.220	0.330	-0.770	0.390
2020/01/31 09:27:15.5	105.240	0.310	-0.720	0.420
2020/01/31 09:27:15.6	105.260	0.290	-0.660	0.450
2020/01/31 09:27:15.7	105.280	0.270	-0.610	0.480
2020/01/31 09:27:15.8	105.300	0.240	-0.540	0.510
2020/01/31 09:27:15.9	105.310	0.220	-0.480	0.540
2020/01/31 09:27:16.0	105.330	0.190	-0.410	0.570
2020/01/31 09:27:16.1	105.340	0.170	-0.350	0.600
2020/01/31 09:27:16.2	105.350	0.140	-0.280	0.620
2020/01/31 09:27:16.3	105.350	0.120	-0.210	0.650
2020/01/31 09:27:16.4	105.360	0.090	-0.140	0.680
2020/01/31 09:27:16.5	105.370	0.070	-0.080	0.710
2020/01/31 09:27:16.6	105.380	0.040	-0.010	0.740
2020/01/31 09:27:16.7	105.380	0.020	0.050	0.780
2020/01/31 09:27:16.8	105.390	-0.010	0.110	0.810
2020/01/31 09:27:16.9	105.390	-0.030	0.170	0.840
2020/01/31 09:27:17.0	105.390	-0.050	0.220	0.870
2020/01/31 09:27:17.1	105.390	-0.070	0.270	0.910
2020/01/31 09:27:17.2	105.390	-0.080	0.320	0.940
2020/01/31 09:27:17.3	105.370	-0.100	0.360	0.980
2020/01/31 09:27:17.4	105.370	-0.110	0.400	1.010
2020/01/31 09:27:17.5	105.370	-0.120	0.430	1.040
2020/01/31 09:27:17.6	105.370	-0.140	0.460	1.080
2020/01/31 09:27:17.7	105.370	-0.140	0.480	1.110
2020/01/31 09:27:17.8	105.370	-0.150	0.500	1.140
2020/01/31 09:27:17.9	105.370	-0.160	0.520	1.170
2020/01/31 09:27:18.0	105.370	-0.160	0.520	1.200
2020/01/31 09:27:18.1	105.370	-0.160	0.530	1.230
2020/01/31 09:27:18.2	105.380	-0.160	0.520	1.260
2020/01/31 09:27:18.3	105.380	-0.160	0.510	1.290
2020/01/31 09:27:18.4	105.380	-0.160	0.500	1.310
2020/01/31 09:27:18.5	105.390	-0.160	0.480	1.340
2020/01/31 09:27:18.6	105.390	-0.150	0.460	1.360
2020/01/31 09:27:18.7	105.400	-0.150	0.430	1.380
2020/01/31 09:27:18.8	105.400	-0.140	0.400	1.400
2020/01/31 09:27:18.9	105.410	-0.140	0.370	1.420
2020/01/31 09:27:19.0	105.410	-0.130	0.330	1.440
2020/01/31 09:27:19.1	105.420	-0.130	0.290	1.450
2020/01/31 09:27:19.2	105.430	-0.120	0.240	1.470
2020/01/31 09:27:19.3	105.440	-0.110	0.200	1.480
2020/01/31 09:27:19.4	105.440	-0.110	0.150	1.500
2020/01/31 09:27:19.5	105.450	-0.100	0.100	1.510
2020/01/31 09:27:19.6	105.460	-0.090	0.040	1.520
2020/01/31 09:27:19.7	105.460	-0.090	-0.010	1.530
2020/01/31 09:27:19.8	105.470	-0.080	-0.060	1.540
2020/01/31 09:27:19.9	105.480	-0.080	-0.120	1.540
2020/01/31 09:27:20.0	105.480	-0.080	-0.170	1.550
2020/01/31 09:27:20.1	105.490	-0.070	-0.230	1.550
2020/01/31 09:27:20.2	105.490	-0.070	-0.280	1.550
2020/01/31 09:27:20.3	105.500	-0.070	-0.330	1.550
2020/01/31 09:27:20.4	105.510	-0.070	-0.380	1.550
2020/01/31 09:27:20.5	105.520	-0.070	-0.430	1.550
2020/01/31 09:27:20.6	105.520	-0.070	-0.480	1.540
2020/01/31 09:27:20.7	105.530	-0.070	-0.520	1.540
2020/01/31 09:27:20.8	105.530	-0.070	-0.560	1.530
2020/01/31 09:27:20.9	105.540	-0.070	-0.600	1.520
2020/01/31 09:27:21.0	105.540	-0.070	-0.630	1.510
2020/01/31 09:27:21.1	105.550	-0.070	-0.660	1.500
2020/01/31 09:27:21.2	105.560	-0.080	-0.690	1.490
2020/01/31 09:27:21.3	105.560	-0.080	-0.720	1.480
2020/01/31 09:27:21.4	105.570	-0.080	-0.740	1.460
2020/01/31 09:27:21.5	105.580	-0.080	-0.750	1.450
2020/01/31 09:27:21.6	105.580	-0.080	-0.770	1.430
2020/01/31 09:27:21.7	105.590	-0.080	-0.770	1.410
2020/01/31 09:27:21.8	105.590	-0.080	-0.780	1.400
2020/01/31 09:27:21.9	105.600	-0.080	-0.780	1.380
2020/01/31 09:27:22.0	105.600	-0.080	-0.780	1.360
2020/01/31 09:27:22.1	105.610	-0.070	-0.770	1.340
2020/01/31 09:27:22.2	105.610	-0.070	-0.760	1.320
2020/01/31 09:27:22.3	105.600	-0.070	-0.740	1.290
2020/01/31 09:27:22.4	105.600	-0.060	-0.720	1.270
2020/01/31 09:27:22.5	105.610	-0.060	-0.700	1.250
2020/01/31 09:27:22.6	105.610	-0.050	-0.670	1.220
2020/01/31 09:27:22.7	105.610	-0.040	-0.650	1.190
2020/01/31 09:27:22.8	105.610	-0.030	-0.610	1.170
2020/01/31 09:27:22.9	105.610	-0.020	-0.580	1.140
2020/01/31 09:27:23.0	105.610	-0.010	-0.540	1.110
2020/01/31 09:27:23.1	105.610	-0.000	-0.500	1.080
2020/01/31 09:27:23.2	105.610	0.010	-0.460	1.050
2020/01/31 09:27:23.3	105.610	0.020	-0.410	1.010
2020/01/31 09:27:23.4	105.610	0.030	-0.360	0.980
2020/01/31 09:27:23.5	105.610	0.040	-0.320	0.950
2020/01/31 09:27:23.6	105.610	0.050	-0.270	0.910
2020/01/31 09:27:23.7	105.610	0.060	-0.220	0.880
2020/01/31 09:27:23.8	105.610	0.070	-0.170	0.840
2020/01/31 09:27:23.9	105.610	0.080	-0.120	0.810
2020/01/31 09:27:24.0	105.610	0.090	-0.070	0.770
2020/01/31 09:27:24.1	105.610	0.100	-0.030	0.730
2020/01/31 09:27:24.2	105.610	0.110	0.020	0.700
2020/01/31 09:27:24.3	105.600	0.120	0.060	0.660
2020/01/31 09:27:24.4	105.600	0.130	0.100	0.620
2020/01/31 09:27:24.5	105.600	0.140	0.140	0.580
2020/01/31 09:27:24.6	105.600	0.140	0.170	0.540
2020/01/31 09:27:24.7	105.600	0.150	0.210	0.500
2020/01/31 09:27:24.8	105.600	0.160	0.240	0.460
2020/01/31 09:27:24.9	105.600	0.160	0.270	0.420
2020/01/31 09:27:25.0	105.600	0.170	0.290	0.380
2020/01/31 09:27:25.1	105.600	0.170	0.310	0.340
2020/01/31 09:27:25.2	105.600	0.170	0.330	0.300
2020/01/31 09:27:25.3	105.590	0.170	0.340	0.250
2020/01/31 09:27:25.4	105.590	0.170	0.350	0.210
2020/01/31 09:27:25.5	105.590	0.170	0.360	0.170
2020/01/31 09:27:25.6	105.590	0.170	0.360	0.130
2020/01/31 09:27:25.7	105.590	0.170	0.360	0.090
2020/01/31 09:27:25.8	105.590	0.170	0.350	0.040
2020/01/31 09:27:25.9	105.600	0.170	0.340	-0.000
2020/01/31 09:27:26.0	105.600	0.160	0.330	-0.050
2020/01/31 09:27:26.1	105.600	0.160	0.320	-0.090
2020/01/31 09:27:26.2	105.600	0.150	0.300	-0.140
2020/01/31 09:27:26.3	105.600	0.150	0.280	-0.180
2020/01/31 09:27:26.4	105.610	0.140	0.260	-0.230
2020/01/31 09:27:26.5	105.610	0.130	0.230	-0.270
2020/01/31 09:27:26.6	105.620	0.130	0.210	-0.320
2020/01/31 09:27:26.7	105.620	0.120	0.180	-0.370
2020/01/31 09:27:26.8	105.630	0.110	0.150	-0.410
2020/01/31 09:27:26.9	105.640	0.100	0.120	-0.450
2020/01/31 09:27:27.0	105.650	0.090	0.080	-0.500
2020/01/31 09:27:27.1	105.660	0.080	0.050	-0.540
2020/01/31 09:27:27.2	105.670	0.070	0.020	-0.580
2020/01/31 09:27:27.3	105.660	0.060	-0.020	-0.620
2020/01/31 09:27:27.4	105.670	0.050	-0.050	-0.650
2020/01/31 09:27:27.5	105.680	0.050	-0.090	-0.690
2020/01/31 09:27:27.6	105.700	0.040	-0.120	-0.720
2020/01/31 09:27:27.7	105.710	0.030	-0.160	-0.740
2020/01/31 09:27:27.8	105.720	0.020	-0.190	-0.770
2020/01/31 09:27:27.9	105.730	0.010	-0.230	-0.780
2020/01/31 09:27:28.0	105.750	0.000	-0.260	-0.800
2020/01/31 09:27:28.1	105.760	-0.010	-0.290	-0.800
2020/01/31 09:27:28.2	105.770	-0.020	-0.320	-0.810
2020/01/31 09:27:28.3	105.770	-0.020	-0.350	-0.800
2020/01/31 09:27:28.4	105.780	-0.030	-0.370	-0.790
2020/01/31 09:27:28.5	105.790	-0.040	-0.400	-0.780
2020/01/31 09:27:28.6	105.800	-0.050	-0.420	-0.760
2020/01/31 09:27:28.7	105.820	-0.050	-0.450	-0.730
2020/01/31 09:27:28.8	105.830	-0.060	-0.470	-0.700
2020/01/31 09:27:28.9	105.840	-0.070	-0.490	-0.660
2020/01/31 09:27:29.0	105.850	-0.070	-0.500	-0.610
2020/01/31 09:27:29.1	105.860	-0.080	-0.520	-0.560
2020/01/31 09:27:29.2	105.870	-0.090	-0.530	-0.500
2020/01/31 09:27:29.3	105.880	-0.100	-0.540	-0.430
2020/01/31 09:27:29.4	105.890	-0.100	-0.550	-0.370
2020/01/31 09:27:29.5	105.900	-0.110	-0.560	-0.290
2020/01/31 09:27:29.6	105.910	-0.120	-0.560	-0.220
2020/01/31 09:27:29.7	105.910	-0.120	-0.570	-0.130
2020/01/31 09:27:29.8	105.920	-0.130	-0.570	-0.050
2020/01/31 09:27:29.9	105.930	-0.140	-0.560	0.040
2020/01/31 09:27:30.0	105.940	-0.140	-0.560	0.130
2020/01/31 09:27:30.1	105.950	-0.150	-0.550	0.220
2020/01/31 09:27:30.2	105.950	-0.160	-0.540	0.310
2020/01/31 09:27:30.3	105.970	-0.160	-0.530	0.400
2020/01/31 09:27:30.4	105.980	-0.170	-0.520	0.490
2020/01/31 09:27:30.5	105.980	-0.180	-0.500	0.590
2020/01/31 09:27:30.6	105.990	-0.180	-0.480	0.680
2020/01/31 09:27:30.7	105.990	-0.190	-0.460	0.770
2020/01/31 09:27:30.8	106.000	-0.200	-0.440	0.860
2020/01/31 09:27:30.9	106.010	-0.200	-0.420	0.950
2020/01/31 09:27:31.0	106.010	-0.210	-0.390	1.040
2020/01/31 09:27:31.1	106.010	-0.220	-0.360	1.130
2020/01/31 09:27:31.2	106.020	-0.220	-0.340	1.210
2020/01/31 09:27:31.3	106.030	-0.230	-0.310	1.290
2020/01/31 09:27:31.4	106.030	-0.230	-0.280	1.370
2020/01/31 09:27:31.5	106.030	-0.240	-0.240	1.450
2020/01/31 09:27:31.6	106.030	-0.240	-0.210	1.520
2020/01/31 09:27:31.7	106.030	-0.240	-0.180	1.600
2020/01/31 09:27:31.8	106.030	-0.250	-0.140	1.660
2020/01/31 09:27:31.9	106.030	-0.250	-0.110	1.730
2020/01/31 09:27:32.0	106.030	-0.250	-0.080	1.790
2020/01/31 09:27:32.1	106.030	-0.250	-0.040	1.850
2020/01/31 09:27:32.2	106.030	-0.250	-0.010	1.910
2020/01/31 09:27:32.3	106.050	-0.250	0.020	1.960
2020/01/31 09:27:32.4	106.040	-0.250	0.050	2.010
2020/01/31 09:27:32.5	106.040	-0.240	0.080	2.060
2020/01/31 09:27:32.6	106.040	-0.240	0.110	2.100
2020/01/31 09:27:32.7	106.040	-0.230	0.140	2.140
2020/01/31 09:27:32.8	106.040	-0.230	0.160	2.170
2020/01/31 09:27:32.9	106.040	-0.220	0.190	2.210
2020/01/31 09:27:33.0	106.030	-0.210	0.210	2.230
2020/01/31 09:27:33.1	106.030	-0.200	0.230	2.260
2020/01/31 09:27:33.2	106.030	-0.190	0.240	2.280
2020/01/31 09:27:33.3	106.050	-0.180	0.260	2.300
2020/01/31 09:27:33.4	106.050	-0.170	0.270	2.320
2020/01/31 09:27:33.5	106.050	-0.150	0.270	2.330
2020/01/31 09:27:33.6	106.050	-0.140	0.280	2.330
2020/01/31 09:27:33.7	106.050	-0.120	0.280	2.340
2020/01/31 09:27:33.8	106.050	-0.110	0.280	2.340
2020/01/31 09:27:33.9	106.050	-0.090	0.280	2.340
2020/01/31 09:27:34.0	106.050	-0.080	0.270	2.330
2020/01/31 09:27:34.1	106.040	-0.060	0.260	2.320
2020/01/31 09:27:34.2	106.040	-0.040	0.250	2.310
2020/01/31 09:27:34.3	106.070	-0.030	0.230	2.290
2020/01/31 09:27:34.4	106.060	-0.010	0.210	2.270
2020/01/31 09:27:34.5	106.060	0.010	0.190	2.240
2020/01/31 09:27:34.6	106.060	0.030	0.160	2.220
2020/01/31 09:27:34.7	106.060	0.050	0.140	2.180
2020/01/31 09:27:34.8	106.060	0.070	0.110	2.150
2020/01/31 09:27:34.9	106.060	0.090	0.080	2.110
2020/01/31 09:27:35.0	106.050	0.110	0.050	2.070
2020/01/31 09:27:35.1	106.050	0.120	0.020	2.020
2020/01/31 09:27:35.2	106.050	0.140	-0.010	1.970
2020/01/31 09:27:35.3	106.060	0.160	-0.050	1.920
2020/01/31 09:27:35.4	106.060	0.180	-0.080	1.860
2020/01/31 09:27:35.5	106.050	0.200	-0.110	1.800
2020/01/31 09:27:35.6	106.050	0.220	-0.150	1.740
2020/01/31 09:27:35.7	106.050	0.240	-0.180	1.680
2020/01/31 09:27:35.8	106.040	0.260	-0.210	1.610
2020/01/31 09:27:35.9	106.040	0.270	-0.250	1.540
2020/01/31 09:27:36.0	106.030	0.290	-0.280	1.470
2020/01/31 09:27:36.1	106.030	0.310	-0.310	1.400
2020/01/31 09:27:36.2	106.020	0.320	-0.340	1.320
2020/01/31 09:27:36.3	106.020	0.340	-0.370	1.250
2020/01/31 09:27:36.4	106.000	0.350	-0.400	1.170
2020/01/31 09:27:36.5	105.990	0.360	-0.420	1.090
2020/01/31 09:27:36.6	105.990	0.380	-0.450	1.010
2020/01/31 09:27:36.7	105.980	0.390	-0.470	0.930
2020/01/31 09:27:36.8	105.970	0.400	-0.490	0.850
2020/01/31 09:27:36.9	105.970	0.410	-0.510	0.760
2020/01/31 09:27:37.0	105.960	0.410	-0.530	0.680
2020/01/31 09:27:37.1	105.960	0.420	-0.540	0.600
2020/01/31 09:27:37.2	105.950	0.430	-0.550	0.520
2020/01/31 09:27:37.3	105.940	0.430	-0.570	0.440
2020/01/31 09:27:37.4	105.940	0.430	-0.570	0.350
2020/01/31 09:27:37.5	105.940	0.430	-0.580	0.270
2020/01/31 09:27:37.6	105.940	0.430	-0.590	0.190
2020/01/31 09:27:37.7	105.940	0.430	-0.590	0.120
2020/01/31 09:27:37.8	105.940	0.430	-0.590	0.040
2020/01/31 09:27:37.9	105.950	0.430	-0.590	-0.040
2020/01/31 09:27:38.0	105.950	0.420	-0.590	-0.110
2020/01/31 09:27:38.1	105.950	0.420	-0.580	-0.180
2020/01/31 09:27:38.2	105.960	0.410	-0.570	-0.250
2020/01/31 09:27:38.3	105.940	0.400	-0.570	-0.320
2020/01/31 09:27:38.4	105.950	0.390	-0.560	-0.380
2020/01/31 09:27:38.5	105.950	0.380	-0.550	-0.440
2020/01/31 09:27:38.6	105.960	0.370	-0.540	-0.500
2020/01/31 09:27:38.7	105.970	0.360	-0.530	-0.550
2020/01/31 09:27:38.8	105.980	0.350	-0.510	-0.600
2020/01/31 09:27:38.9	105.990	0.330	-0.500	-0.650
2020/01/31 09:27:39.0	106.000	0.310	-0.480	-0.690
2020/01/31 09:27:39.1	106.000	0.300	-0.470	-0.720
2020/01/31 09:27:39.2	106.010	0.280	-0.450	-0.750
2020/01/31 09:27:39.3	106.010	0.260	-0.430	-0.780
2020/01/31 09:27:39.4	106.020	0.240	-0.420	-0.800
2020/01/31 09:27:39.5	106.020	0.220	-0.400	-0.810
2020/01/31 09:27:39.6	106.030	0.190	-0.380	-0.820
2020/01/31 09:27:39.7	106.030	0.170	-0.360	-0.820
2020/01/31 09:27:39.8	106.030	0.150	-0.340	-0.820
2020/01/31 09:27:39.9	106.030	0.120	-0.320	-0.810
2020/01/31 09:27:40.0	106.030	0.090	-0.300	-0.790
2020/01/31 09:27:40.1	106.030	0.070	-0.280	-0.770
2020/01/31 09:27:40.2	106.030	0.040	-0.250	-0.740
2020/01/31 09:27:40.3	106.020	0.010	-0.230	-0.710
2020/01/31 09:27:40.4	106.020	-0.020	-0.210	-0.680
2020/01/31 09:27:40.5	106.010	-0.050	-0.180	-0.630
2020/01/31 09:27:40.6	106.000	-0.080	-0.150	-0.590
2020/01/31 09:27:40.7	105.990	-0.120	-0.130	-0.540
2020/01/31 09:27:40.8	105.990	-0.150	-0.100	-0.480
2020/01/31 09:27:40.9	105.980	-0.180	-0.070	-0.430
2020/01/31 09:27:41.0	105.970	-0.210	-0.040	-0.370
2020/01/31 09:27:41.1	105.960	-0.250	-0.000	-0.300
2020/01/31 09:27:41.2	105.950	-0.280	0.030	-0.240
2020/01/31 09:27:41.3	105.960	-0.310	0.070	-0.180
2020/01/31 09:27:41.4	105.950	-0.340	0.100	-0.110
2020/01/31 09:27:41.5	105.940	-0.380	0.140	-0.040
2020/01/31 09:27:41.6	105.940	-0.410	0.180	0.030
2020/01/31 09:27:41.7	105.930	-0.440	0.210	0.090
2020/01/31 09:27:41.8	105.930	-0.470	0.250	0.160
2020/01/31 09:27:41.9	105.930	-0.500	0.290	0.230
2020/01/31 09:27:42.0	105.930	-0.530	0.320	0.300
2020/01/31 09:27:42.1	105.940	-0.550	0.350	0.360
2020/01/31 09:27:42.2	105.940	-0.580	0.390	0.430
2020/01/31 09:27:42.3	105.930	-0.600	0.420	0.490
2020/01/31 09:27:42.4	105.940	-0.620	0.440	0.550
2020/01/31 09:27:42.5	105.940	-0.640	0.470	0.620
2020/01/31 09:27:42.6	105.960	-0.660	0.490	0.680
2020/01/31 09:27:42.7	105.970	-0.670	0.500	0.740
2020/01/31 09:27:42.8	105.980	-0.690	0.510	0.800
2020/01/31 09:27:42.9	105.990	-0.690	0.520	0.860
2020/01/31 09:27:43.0	106.010	-0.700	0.520	0.920
2020/01/31 09:27:43.1	106.020	-0.700	0.520	0.980
2020/01/31 09:27:43.2	106.030	-0.700	0.510	1.050
2020/01/31 09:27:43.3	106.050	-0.700	0.500	1.110
2020/01/31 09:27:43.4	106.060	-0.690	0.480	1.170
2020/01/31 09:27:43.5	106.070	-0.680	0.460	1.230
2020/01/31 09:27:43.6	106.090	-0.670	0.430	1.300
2020/01/31 09:27:43.7	106.100	-0.650	0.390	1.360
2020/01/31 09:27:43.8	106.110	-0.630	0.350	1.420
2020/01/31 09:27:43.9	106.120	-0.610	0.310	1.490
2020/01/31 09:27:44.0	106.130	-0.580	0.260	1.550
2020/01/31 09:27:44.1	106.140	-0.550	0.210	1.610
2020/01/31 09:27:44.2	106.150	-0.520	0.150	1.670
2020/01/31 09:27:44.3	106.170	-0.480	0.100	1.730
2020/01/31 09:27:44.4	106.180	-0.450	0.040	1.790
2020/01/31 09:27:44.5	106.180	-0.410	-0.030	1.850
2020/01/31 09:27:44.6	106.190	-0.360	-0.090	1.910
2020/01/31 09:27:44.7	106.200	-0.320	-0.150	1.960
2020/01/31 09:27:44.8	106.200	-0.280	-0.220	2.010
2020/01/31 09:27:44.9	106.210	-0.230	-0.280	2.060
2020/01/31 09:27:45.0	106.210	-0.180	-0.340	2.100
2020/01/31 09:27:45.1	106.210	-0.140	-0.400	2.150
2020/01/31 09:27:45.2	106.220	-0.090	-0.460	2.180
2020/01/31 09:27:45.3	106.230	-0.040	-0.510	2.220
2020/01/31 09:27:45.4	106.230	0.000	-0.560	2.250
2020/01/31 09:27:45.5	106.240	0.050	-0.610	2.280
2020/01/31 09:27:45.6	106.240	0.090	-0.650	2.300
2020/01/31 09:27:45.7	106.240	0.130	-0.680	2.320
2020/01/31 09:27:45.8	106.240	0.170	-0.710	2.340
2020/01/31 09:27:45.9	106.240	0.210	-0.740	2.350
2020/01/31 09:27:46.0	106.240	0.240	-0.750	2.360
2020/01/31 09:27:46.1	106.240	0.280	-0.770	2.360
2020/01/31 09:27:46.2	106.240	0.310	-0.770	2.350
2020/01/31 09:27:46.3	106.250	0.330	-0.780	2.350
2020/01/31 09:27:46.4	106.250	0.360	-0.770	2.330
2020/01/31 09:27:46.5	106.250	0.380	-0.760	2.320
2020/01/31 09:27:46.6	106.250	0.390	-0.750	2.300
2020/01/31 09:27:46.7	106.260	0.410	-0.730	2.270
2020/01/31 09:27:46.8	106.260	0.420	-0.710	2.240
2020/01/31 09:27:46.9	106.260	0.430	-0.680	2.210
2020/01/31 09:27:47.0	106.260	0.430	-0.650	2.170
2020/01/31 09:27:47.1	106.260	0.440	-0.620	2.130
2020/01/31 09:27:47.2	106.260	0.440	-0.580	2.090
2020/01/31 09:27:47.3	106.270	0.430	-0.540	2.040
2020/01/31 09:27:47.4	106.270	0.430	-0.500	1.990
2020/01/31 09:27:47.5	106.270	0.420	-0.460	1.940
2020/01/31 09:27:47.6	106.270	0.410	-0.420	1.890
2020/01/31 09:27:47.7	106.270	0.400	-0.380	1.830
2020/01/31 09:27:47.8	106.270	0.390	-0.340	1.770
2020/01/31 09:27:47.9	106.270	0.370	-0.310	1.710
2020/01/31 09:27:48.0	106.270	0.360	-0.270	1.650
2020/01/31 09:27:48.1	106.270	0.350	-0.230	1.590
2020/01/31 09:27:48.2	106.280	0.330	-0.190	1.520
2020/01/31 09:27:48.3	106.290	0.310	-0.160	1.450
2020/01/31 09:27:48.4	106.290	0.300	-0.130	1.380
2020/01/31 09:27:48.5	106.290	0.280	-0.100	1.320
2020/01/31 09:27:48.6	106.300	0.260	-0.070	1.250
2020/01/31 09:27:48.7	106.300	0.250	-0.050	1.180
2020/01/31 09:27:48.8	106.310	0.230	-0.020	1.110
2020/01/31 09:27:48.9	106.310	0.220	-0.000	1.040
2020/01/31 09:27:49.0	106.320	0.200	0.020	0.980
2020/01/31 09:27:49.1	106.330	0.190	0.030	0.910
2020/01/31 09:27:49.2	106.330	0.180	0.050	0.840
2020/01/31 09:27:49.3	106.330	0.170	0.050	0.770
2020/01/31 09:27:49.4	106.330	0.160	0.060	0.700
2020/01/31 09:27:49.5	106.340	0.150	0.070	0.630
2020/01/31 09:27:49.6	106.350	0.140	0.070	0.570
2020/01/31 09:27:49.7	106.360	0.130	0.070	0.500
2020/01/31 09:27:49.8	106.370	0.120	0.070	0.430
2020/01/31 09:27:49.9	106.390	0.120	0.070	0.370
2020/01/31 09:27:50.0	106.400	0.110	0.070	0.300
2020/01/31 09:27:50.1	106.410	0.110	0.060	0.230
2020/01/31 09:27:50.2	106.430	0.110	0.060	0.170
2020/01/31 09:27:50.3	106.420	0.100	0.050	0.090
2020/01/31 09:27:50.4	106.430	0.100	0.040	0.030
2020/01/31 09:27:50.5	106.450	0.100	0.030	-0.040
2020/01/31 09:27:50.6	106.470	0.100	0.020	-0.110
2020/01/31 09:27:50.7	106.490	0.090	0.010	-0.180
2020/01/31 09:27:50.8	106.510	0.090	0.000	-0.250
2020/01/31 09:27:50.9	106.530	0.090	-0.000	-0.310
2020/01/31 09:27:51.0	106.550	0.090	-0.010	-0.380
2020/01/31 09:27:51.1	106.580	0.090	-0.020	-0.450
2020/01/31 09:27:51.2	106.600	0.080	-0.030	-0.510
2020/01/31 09:27:51.3	106.610	0.080	-0.040	-0.570
2020/01/31 09:27:51.4	106.630	0.080	-0.040	-0.630
2020/01/31 09:27:51.5	106.660	0.070	-0.050	-0.690
2020/01/31 09:27:51.6	106.680	0.070	-0.050	-0.740
2020/01/31 09:27:51.7	106.700	0.060	-0.060	-0.790
2020/01/31 09:27:51.8	106.720	0.060	-0.060	-0.840
2020/01/31 09:27:51.9	106.740	0.050	-0.070	-0.880
2020/01/31 09:27:52.0	106.760	0.050	-0.070	-0.920
2020/01/31 09:27:52.1	106.780	0.040	-0.080	-0.960
2020/01/31 09:27:52.2	106.800	0.040	-0.080	-0.990
2020/01/31 09:27:52.3	106.810	0.030	-0.090	-1.010
2020/01/31 09:27:52.4	106.820	0.020	-0.090	-1.030
2020/01/31 09:27:52.5	106.830	0.020	-0.090	-1.050
2020/01/31 09:27:52.6	106.840	0.010	-0.100	-1.060
2020/01/31 09:27:52.7	106.850	0.000	-0.100	-1.070
2020/01/31 09:27:52.8	106.860	-0.000	-0.110	-1.070
2020/01/31 09:27:52.9	106.870	-0.010	-0.110	-1.060
2020/01/31 09:27:53.0	106.880	-0.010	-0.120	-1.060
2020/01/31 09:27:53.1	106.880	-0.020	-0.130	-1.050
2020/01/31 09:27:53.2	106.890	-0.020	-0.130	-1.030
2020/01/31 09:27:53.3	106.900	-0.030	-0.140	-1.010
2020/01/31 09:27:53.4	106.900	-0.030	-0.150	-0.990
2020/01/31 09:27:53.5	106.900	-0.040	-0.160	-0.970
2020/01/31 09:27:53.6	106.910	-0.040	-0.170	-0.940
2020/01/31 09:27:53.7	106.910	-0.040	-0.180	-0.910
2020/01/31 09:27:53.8	106.920	-0.040	-0.190	-0.870
2020/01/31 09:27:53.9	106.920	-0.040	-0.210	-0.840
2020/01/31 09:27:54.0	106.930	-0.040	-0.220	-0.800
2020/01/31 09:27:54.1	106.940	-0.040	-0.240	-0.760
2020/01/31 09:27:54.2	106.940	-0.040	-0.250	-0.710
2020/01/31 09:27:54.3	106.950	-0.030	-0.270	-0.660
2020/01/31 09:27:54.4	106.960	-0.030	-0.280	-0.620
2020/01/31 09:27:54.5	106.960	-0.020	-0.300	-0.560
2020/01/31 09:27:54.6	106.970	-0.020	-0.320	-0.510
2020/01/31 09:27:54.7	106.980	-0.010	-0.330	-0.460
2020/01/31 09:27:54.8	106.990	-0.000	-0.350	-0.400
2020/01/31 09:27:54.9	107.000	0.010	-0.370	-0.340
2020/01/31 09:27:55.0	107.010	0.020	-0.380	-0.270
2020/01/31 09:27:55.1	107.020	0.020	-0.390	-0.210
2020/01/31 09:27:55.2	107.030	0.030	-0.410	-0.140
2020/01/31 09:27:55.3	107.050	0.040	-0.420	-0.070
2020/01/31 09:27:55.4	107.060	0.050	-0.430	-0.000
2020/01/31 09:27:55.5	107.070	0.060	-0.440	0.070
2020/01/31 09:27:55.6	107.080	0.070	-0.450	0.150
2020/01/31 09:27:55.7	107.090	0.070	-0.450	0.220
2020/01/31 09:27:55.8	107.100	0.080	-0.460	0.300
2020/01/31 09:27:55.9	107.120	0.090	-0.460	0.380
2020/01/31 09:27:56.0	107.120	0.090	-0.460	0.460
2020/01/31 09:27:56.1	107.130	0.090	-0.460	0.540
2020/01/31 09:27:56.2	107.140	0.100	-0.460	0.620
2020/01/31 09:27:56.3	107.160	0.100	-0.460	0.700
2020/01/31 09:27:56.4	107.160	0.100	-0.450	0.790
2020/01/31 09:27:56.5	107.170	0.100	-0.440	0.870
2020/01/31 09:27:56.6	107.180	0.090	-0.440	0.950
2020/01/31 09:27:56.7	107.190	0.090	-0.430	1.030
2020/01/31 09:27:56.8	107.200	0.080	-0.410	1.110
2020/01/31 09:27:56.9	107.210	0.070	-0.400	1.190
2020/01/31 09:27:57.0	107.220	0.060	-0.390	1.270
2020/01/31 09:27:57.1	107.230	0.050	-0.370	1.350
2020/01/31 09:27:57.2	107.240	0.040	-0.350	1.420
2020/01/31 09:27:57.3	107.250	0.030	-0.330	1.500
2020/01/31 09:27:57.4	107.260	0.010	-0.310	1.570
2020/01/31 09:27:57.5	107.280	-0.010	-0.290	1.640
2020/01/31 09:27:57.6	107.290	-0.030	-0.270	1.710
2020/01/31 09:27:57.7	107.300	-0.050	-0.240	1.780
2020/01/31 09:27:57.8	107.310	-0.070	-0.220	1.850
2020/01/31 09:27:57.9	107.330	-0.100	-0.190	1.910
2020/01/31 09:27:58.0	107.340	-0.120	-0.160	1.980
2020/01/31 09:27:58.1	107.360	-0.150	-0.130	2.040
2020/01/31 09:27:58.2	107.370	-0.170	-0.100	2.090
2020/01/31 09:27:58.3	107.390	-0.200	-0.070	2.150
2020/01/31 09:27:58.4	107.410	-0.230	-0.030	2.200
2020/01/31 09:27:58.5	107.430	-0.260	0.000	2.250
2020/01/31 09:27:58.6	107.440	-0.290	0.040	2.300
2020/01/31 09:27:58.7	107.460	-0.320	0.070	2.350
2020/01/31 09:27:58.8	107.480	-0.340	0.110	2.390
2020/01/31 09:27:58.9	107.500	-0.370	0.140	2.430
2020/01/31 09:27:59.0	107.520	-0.400	0.180	2.470
2020/01/31 09:27:59.1	107.530	-0.430	0.210	2.500
2020/01/31 09:27:59.2	107.550	-0.450	0.250	2.540
2020/01/31 09:27:59.3	107.570	-0.480	0.280	2.570
2020/01/31 09:27:59.4	107.580	-0.500	0.310	2.590
2020/01/31 09:27:59.5	107.600	-0.520	0.340	2.620
2020/01/31 09:27:59.6	107.620	-0.540	0.360	2.640
2020/01/31 09:27:59.7	107.630	-0.560	0.380	2.660
2020/01/31 09:27:59.8	107.640	-0.570	0.400	2.680
2020/01/31 09:27:59.9	107.660	-0.580	0.420	2.690
2020/01/31 09:28:00.0	107.670	-0.590	0.430	2.700
2020/01/31 09:28:00.1	107.680	-0.600	0.430	2.710
2020/01/31 09:28:00.2	107.690	-0.600	0.440	2.710
2020/01/31 09:28:00.3	107.710	-0.600	0.430	2.710
2020/01/31 09:28:00.4	107.720	-0.600	0.430	2.700
2020/01/31 09:28:00.5	107.730	-0.600	0.410	2.690
2020/01/31 09:28:00.6	107.740	-0.590	0.400	2.680
2020/01/31 09:28:00.7	107.740	-0.580	0.380	2.660
2020/01/31 09:28:00.8	107.750	-0.570	0.360	2.640
2020/01/31 09:28:00.9	107.760	-0.550	0.330	2.620
2020/01/31 09:28:01.0	107.760	-0.530	0.300	2.590
2020/01/31 09:28:01.1	107.770	-0.510	0.270	2.550
2020/01/31 09:28:01.2	107.770	-0.490	0.230	2.510
2020/01/31 09:28:01.3	107.790	-0.460	0.190	2.470
2020/01/31 09:28:01.4	107.800	-0.430	0.150	2.420
2020/01/31 09:28:01.5	107.800	-0.400	0.110	2.370
2020/01/31 09:28:01.6	107.810	-0.370	0.060	2.320
2020/01/31 09:28:01.7	107.810	-0.340	0.020	2.260
2020/01/31 09:28:01.8	107.820	-0.310	-0.030	2.200
2020/01/31 09:28:01.9	107.820	-0.270	-0.070	2.140
2020/01/31 09:28:02.0	107.830	-0.240	-0.120	2.070
2020/01/31 09:28:02.1	107.830	-0.200	-0.160	2.000
2020/01/31 09:28:02.2	107.840	-0.160	-0.210	1.930
2020/01/31 09:28:02.3	107.850	-0.120	-0.250	1.850
2020/01/31 09:28:02.4	107.860	-0.090	-0.300	1.770
2020/01/31 09:28:02.5	107.860	-0.050	-0.340	1.690
2020/01/31 09:28:02.6	107.870	-0.010	-0.380	1.610
2020/01/31 09:28:02.7	107.870	0.020	-0.410	1.530
2020/01/31 09:28:02.8	107.880	0.060	-0.450	1.450
2020/01/31 09:28:02.9	107.890	0.100	-0.480	1.360
2020/01/31 09:28:03.0	107.900	0.130	-0.520	1.270
2020/01/31 09:28:03.1	107.900	0.160	-0.550	1.190
2020/01/31 09:28:03.2	107.910	0.200	-0.580	1.100
2020/01/31 09:28:03.3	107.920	0.230	-0.600	1.000
2020/01/31 09:28:03.4	107.930	0.260	-0.630	0.910
2020/01/31 09:28:03.5	107.940	0.290	-0.650	0.820
2020/01/31 09:28:03.6	107.950	0.320	-0.670	0.730
2020/01/31 09:28:03.7	107.950	0.350	-0.690	0.640
2020/01/31 09:28:03.8	107.960	0.370	-0.710	0.550
2020/01/31 09:28:03.9	107.970	0.400	-0.720	0.460
2020/01/31 09:28:04.0	107.980	0.420	-0.730	0.370
2020/01/31 09:28:04.1	107.980	0.450	-0.740	0.280
2020/01/31 09:28:04.2	107.990	0.470	-0.750	0.190
2020/01/31 09:28:04.3	107.990	0.490	-0.760	0.100
2020/01/31 09:28:04.4	108.000	0.510	-0.760	0.010
2020/01/31 09:28:04.5	108.000	0.520	-0.760	-0.070
2020/01/31 09:28:04.6	108.000	0.540	-0.760	-0.160
2020/01/31 09:28:04.7	108.010	0.550	-0.750	-0.240
2020/01/31 09:28:04.8	108.010	0.570	-0.740	-0.320
2020/01/31 09:28:04.9	108.010	0.580	-0.730	-0.400
2020/01/31 09:28:05.0	108.020	0.590	-0.720	-0.470
2020/01/31 09:28:05.1	108.020	0.590	-0.700	-0.540
2020/01/31 09:28:05.2	108.020	0.600	-0.680	-0.600
2020/01/31 09:28:05.3	108.000	0.600	-0.660	-0.670
2020/01/31 09:28:05.4	107.990	0.600	-0.630	-0.720
2020/01/31 09:28:05.5	107.990	0.600	-0.600	-0.780
2020/01/31 09:28:05.6	107.990	0.600	-0.570	-0.820
2020/01/31 09:28:05.7	107.980	0.590	-0.530	-0.870
2020/01/31 09:28:05.8	107.980	0.590	-0.500	-0.900
2020/01/31 09:28:05.9	107.970	0.580	-0.450	-0.930
2020/01/31 09:28:06.0	107.960	0.570	-0.410	-0.960
2020/01/31 09:28:06.1	107.950	0.550	-0.370	-0.980
2020/01/31 09:28:06.2	107.940	0.540	-0.320	-0.990
2020/01/31 09:28:06.3	107.930	0.520	-0.270	-1.000
2020/01/31 09:28:06.4	107.920	0.500	-0.220	-1.000
2020/01/31 09:28:06.5	107.910	0.480	-0.180	-0.990
2020/01/31 09:28:06.6	107.890	0.460	-0.130	-0.980
2020/01/31 09:28:06.7	107.880	0.440	-0.080	-0.970
2020/01/31 09:28:06.8	107.860	0.420	-0.030	-0.940
2020/01/31 09:28:06.9	107.850	0.390	0.020	-0.920
2020/01/31 09:28:07.0	107.830	0.370	0.060	-0.880
2020/01/31 09:28:07.1	107.820	0.340	0.110	-0.850
2020/01/31 09:28:07.2	107.800	0.320	0.150	-0.810
2020/01/31 09:28:07.3	107.770	0.290	0.180	-0.770
2020/01/31 09:28:07.4	107.750	0.260	0.220	-0.720
2020/01/31 09:28:07.5	107.740	0.240	0.250	-0.670
2020/01/31 09:28:07.6	107.730	0.210	0.280	-0.630
2020/01/31 09:28:07.7	107.720	0.180	0.310	-0.580
2020/01/31 09:28:07.8	107.710	0.160	0.330	-0.530
2020/01/31 09:28:07.9	107.700	0.130	0.340	-0.480
2020/01/31 09:28:08.0	107.690	0.110	0.360	-0.430
2020/01/31 09:28:08.1	107.690	0.080	0.360	-0.380
2020/01/31 09:28:08.2	107.690	0.060	0.370	-0.330
2020/01/31 09:28:08.3	107.690	0.040	0.370	-0.290
2020/01/31 09:28:08.4	107.690	0.020	0.370	-0.240
2020/01/31 09:28:08.5	107.690	0.000	0.360	-0.200
2020/01/31 09:28:08.6	107.700	-0.020	0.350	-0.150
2020/01/31 09:28:08.7	107.710	-0.030	0.330	-0.110
2020/01/31 09:28:08.8	107.720	-0.050	0.310	-0.070
2020/01/31 09:28:08.9	107.730	-0.060	0.300	-0.020
2020/01/31 09:28:09.0	107.750	-0.080	0.270	0.020
2020/01/31 09:28:09.1	107.760	-0.090	0.250	0.060
2020/01/31 09:28:09.2	107.780	-0.100	0.220	0.090
2020/01/31 09:28:09.3	107.800	-0.110	0.190	0.130
2020/01/31 09:28:09.4	107.820	-0.120	0.170	0.170
2020/01/31 09:28:09.5	107.850	-0.130	0.140	0.210
2020/01/31 09:28:09.6	107.870	-0.140	0.110	0.250
2020/01/31 09:28:09.7	107.900	-0.150	0.080	0.290
2020/01/31 09:28:09.8	107.930	-0.160	0.050	0.330
2020/01/31 09:28:09.9	107.960	-0.170	0.030	0.370
2020/01/31 09:28:10.0	107.990	-0.180	-0.000	0.410
2020/01/31 09:28:10.1	108.010	-0.180	-0.020	0.460
2020/01/31 09:28:10.2	108.040	-0.190	-0.050	0.500
2020/01/31 09:28:10.3	108.070	-0.200	-0.070	0.550
2020/01/31 09:28:10.4	108.090	-0.210	-0.080	0.600
2020/01/31 09:28:10.5	108.120	-0.220	-0.100	0.650
2020/01/31 09:28:10.6	108.140	-0.230	-0.110	0.700
2020/01/31 09:28:10.7	108.170	-0.240	-0.120	0.760
2020/01/31 09:28:10.8	108.190	-0.260	-0.130	0.810
2020/01/31 09:28:10.9	108.210	-0.270	-0.130	0.870
2020/01/31 09:28:11.0	108.230	-0.280	-0.130	0.940
2020/01/31 09:28:11.1	108.250	-0.290	-0.130	1.000
2020/01/31 09:28:11.2	108.260	-0.300	-0.130	1.060
2020/01/31 09:28:11.3	108.270	-0.320	-0.130	1.130
2020/01/31 09:28:11.4	108.280	-0.330	-0.120	1.200
2020/01/31 09:28:11.5	108.290	-0.340	-0.110	1.260
2020/01/31 09:28:11.6	108.300	-0.350	-0.100	1.330
2020/01/31 09:28:11.7	108.310	-0.360	-0.090	1.390
2020/01/31 09:28:11.8	108.310	-0.370	-0.080	1.460
2020/01/31 09:28:11.9	108.320	-0.380	-0.070	1.520
2020/01/31 09:28:12.0	108.320	-0.390	-0.060	1.580
2020/01/31 09:28:12.1	108.320	-0.400	-0.050	1.650
2020/01/31 09:28:12.2	108.320	-0.400	-0.040	1.700
2020/01/31 09:28:12.3	108.320	-0.410	-0.030	1.760
2020/01/31 09:28:12.4	108.320	-0.410	-0.030	1.810
2020/01/31 09:28:12.5	108.310	-0.410	-0.030	1.870
2020/01/31 09:28:12.6	108.310	-0.400	-0.030	1.920
2020/01/31 09:28:12.7	108.300	-0.400	-0.040	1.960
2020/01/31 09:28:12.8	108.290	-0.390	-0.040	2.010
2020/01/31 09:28:12.9	108.280	-0.380	-0.050	2.050
2020/01/31 09:28:13.0	108.270	-0.370	-0.070	2.090
2020/01/31 09:28:13.1	108.250	-0.360	-0.090	2.120
2020/01/31 09:28:13.2	108.240	-0.340	-0.110	2.150
2020/01/31 09:28:13.3	108.220	-0.320	-0.150	2.180
2020/01/31 09:28:13.4	108.200	-0.300	-0.180	2.200
2020/01/31 09:28:13.5	108.180	-0.280	-0.210	2.220
2020/01/31 09:28:13.6	108.160	-0.250	-0.250	2.240
2020/01/31 09:28:13.7	108.140	-0.230	-0.290	2.260
2020/01/31 09:28:13.8	108.120	-0.200	-0.340	2.270
2020/01/31 09:28:13.9	108.100	-0.170	-0.390	2.270
2020/01/31 09:28:14.0	108.080	-0.140	-0.440	2.280
2020/01/31 09:28:14.1	108.050	-0.110	-0.490	2.280
2020/01/31 09:28:14.2	108.030	-0.080	-0.540	2.270
2020/01/31 09:28:14.3	108.030	-0.050	-0.600	2.260
2020/01/31 09:28:14.4	108.010	-0.020	-0.650	2.250
2020/01/31 09:28:14.5	107.990	0.010	-0.700	2.240
2020/01/31 09:28:14.6	107.970	0.030	-0.750	2.220
2020/01/31 09:28:14.7	107.950	0.060	-0.800	2.200
2020/01/31 09:28:14.8	107.930	0.090	-0.840	2.180
2020/01/31 09:28:14.9	107.920	0.110	-0.880	2.160
2020/01/31 09:28:15.0	107.900	0.130	-0.910	2.130
2020/01/31 09:28:15.1	107.890	0.150	-0.940	2.100
2020/01/31 09:28:15.2	107.880	0.160	-0.960	2.070
2020/01/31 09:28:15.3	107.870	0.180	-0.970	2.030
2020/01/31 09:28:15.4	107.860	0.190	-0.980	2.000
2020/01/31 09:28:15.5	107.860	0.190	-0.980	1.960
2020/01/31 09:28:15.6	107.860	0.200	-0.980	1.920
2020/01/31 09:28:15.7	107.860	0.200	-0.970	1.880
2020/01/31 09:28:15.8	107.860	0.200	-0.940	1.840
2020/01/31 09:28:15.9	107.860	0.190	-0.920	1.790
2020/01/31 09:28:16.0	107.870	0.180	-0.880	1.740
2020/01/31 09:28:16.1	107.880	0.170	-0.840	1.690
2020/01/31 09:28:16.2	107.890	0.150	-0.790	1.630
2020/01/31 09:28:16.3	107.900	0.140	-0.730	1.580
2020/01/31 09:28:16.4	107.920	0.120	-0.670	1.520
2020/01/31 09:28:16.5	107.930	0.090	-0.600	1.460
2020/01/31 09:28:16.6	107.950	0.070	-0.530	1.390
2020/01/31 09:28:16.7	107.970	0.050	-0.450	1.320
2020/01/31 09:28:16.8	107.990	0.020	-0.370	1.260
2020/01/31 09:28:16.9	108.010	-0.010	-0.290	1.190
2020/01/31 09:28:17.0	108.030	-0.040	-0.200	1.110
2020/01/31 09:28:17.1	108.050	-0.070	-0.120	1.040
2020/01/31 09:28:17.2	108.070	-0.100	-0.030	0.960
2020/01/31 09:28:17.3	108.090	-0.120	0.060	0.880
2020/01/31 09:28:17.4	108.110	-0.150	0.140	0.800
2020/01/31 09:28:17.5	108.140	-0.180	0.230	0.720
2020/01/31 09:28:17.6	108.160	-0.200	0.310	0.640
2020/01/31 09:28:17.7	108.180	-0.230	0.380	0.550
2020/01/31 09:28:17.8	108.200	-0.250	0.460	0.470
2020/01/31 09:28:17.9	108.220	-0.270	0.530	0.390
2020/01/31 09:28:18.0	108.230	-0.280	0.590	0.310
2020/01/31 09:28:18.1	108.250	-0.300	0.650	0.220
2020/01/31 09:28:18.2	108.270	-0.310	0.700	0.140
2020/01/31 09:28:18.3	108.280	-0.320	0.740	0.060
2020/01/31 09:28:18.4	108.290	-0.320	0.780	-0.020
2020/01/31 09:28:18.5	108.300	-0.320	0.810	-0.100
2020/01/31 09:28:18.6	108.320	-0.320	0.830	-0.170
2020/01/31 09:28:18.7	108.330	-0.320	0.840	-0.250
2020/01/31 09:28:18.8	108.330	-0.310	0.850	-0.320
2020/01/31 09:28:18.9	108.340	-0.290	0.850	-0.390
2020/01/31 09:28:19.0	108.350	-0.280	0.840	-0.460
2020/01/31 09:28:19.1	108.350	-0.260	0.820	-0.530
2020/01/31 09:28:19.2	108.360	-0.240	0.800	-0.600
2020/01/31 09:28:19.3	108.350	-0.210	0.770	-0.670
2020/01/31 09:28:19.4	108.350	-0.180	0.730	-0.730
2020/01/31 09:28:19.5	108.350	-0.150	0.680	-0.790
2020/01/31 09:28:19.6	108.350	-0.120	0.640	-0.850
2020/01/31 09:28:19.7	108.350	-0.080	0.580	-0.910
2020/01/31 09:28:19.8	108.340	-0.040	0.520	-0.960
2020/01/31 09:28:19.9	108.340	-0.010	0.460	-1.010
2020/01/31 09:28:20.0	108.340	0.030	0.390	-1.060
2020/01/31 09:28:20.1	108.330	0.080	0.320	-1.110
2020/01/31 09:28:20.2	108.330	0.120	0.250	-1.150
2020/01/31 09:28:20.3	108.320	0.160	0.180	-1.200
2020/01/31 09:28:20.4	108.320	0.200	0.100	-1.230
2020/01/31 09:28:20.5	108.310	0.240	0.030	-1.270
2020/01/31 09:28:20.6	108.300	0.280	-0.050	-1.310
2020/01/31 09:28:20.7	108.300	0.320	-0.120	-1.340
2020/01/31 09:28:20.8	108.290	0.360	-0.190	-1.360
2020/01/31 09:28:20.9	108.290	0.400	-0.260	-1.390
2020/01/31 09:28:21.0	108.280	0.430	-0.320	-1.410
2020/01/31 09:28:21.1	108.280	0.460	-0.390	-1.420
2020/01/31 09:28:21.2	108.280	0.490	-0.450	-1.430
2020/01/31 09:28:21.3	108.270	0.520	-0.500	-1.440
2020/01/31 09:28:21.4	108.270	0.540	-0.560	-1.450
2020/01/31 09:28:21.5	108.270	0.560	-0.610	-1.450
2020/01/31 09:28:21.6	108.280	0.580	-0.650	-1.440
2020/01/31 09:28:21.7	108.280	0.590	-0.690	-1.430
2020/01/31 09:28:21.8	108.280	0.600	-0.720	-1.420
2020/01/31 09:28:21.9	108.290	0.610	-0.750	-1.400
2020/01/31 09:28:22.0	108.300	0.620	-0.780	-1.370
2020/01/31 09:28:22.1	108.300	0.620	-0.800	-1.340
2020/01/31 09:28:22.2	108.310	0.610	-0.810	-1.310
2020/01/31 09:28:22.3	108.320	0.610	-0.820	-1.270
2020/01/31 09:28:22.4	108.330	0.600	-0.820	-1.220
2020/01/31 09:28:22.5	108.340	0.580	-0.820	-1.170
2020/01/31 09:28:22.6	108.350	0.570	-0.820	-1.110
2020/01/31 09:28:22.7	108.360	0.550	-0.810	-1.050
2020/01/31 09:28:22.8	108.360	0.530	-0.790	-0.980
2020/01/31 09:28:22.9	108.370	0.510	-0.780	-0.900
2020/01/31 09:28:23.0	108.370	0.480	-0.760	-0.830
2020/01/31 09:28:23.1	108.380	0.450	-0.730	-0.740
2020/01/31 09:28:23.2	108.390	0.430	-0.710	-0.660
2020/01/31 09:28:23.3	108.390	0.400	-0.680	-0.570
2020/01/31 09:28:23.4	108.400	0.370	-0.650	-0.470
2020/01/31 09:28:23.5	108.400	0.330	-0.610	-0.380
2020/01/31 09:28:23.6	108.400	0.300	-0.580	-0.280
2020/01/31 09:28:23.7	108.400	0.270	-0.550	-0.180
2020/01/31 09:28:23.8	108.410	0.240	-0.510	-0.080
2020/01/31 09:28:23.9	108.410	0.210	-0.480	0.030
2020/01/31 09:28:24.0	108.410	0.180	-0.440	0.130
2020/01/31 09:28:24.1	108.410	0.150	-0.410	0.240
2020/01/31 09:28:24.2	108.400	0.120	-0.370	0.340
2020/01/31 09:28:24.3	108.410	0.090	-0.340	0.440
2020/01/31 09:28:24.4	108.410	0.070	-0.310	0.540
2020/01/31 09:28:24.5	108.410	0.040	-0.280	0.650
2020/01/31 09:28:24.6	108.410	0.020	-0.250	0.750
2020/01/31 09:28:24.7	108.410	-0.000	-0.230	0.850
2020/01/31 09:28:24.8	108.410	-0.020	-0.200	0.940
2020/01/31 09:28:24.9	108.410	-0.040	-0.180	1.040
2020/01/31 09:28:25.0	108.410	-0.060	-0.160	1.130
2020/01/31 09:28:25.1	108.410	-0.070	-0.140	1.230
2020/01/31 09:28:25.2	108.410	-0.080	-0.120	1.320
2020/01/31 09:28:25.3	108.410	-0.090	-0.110	1.400
2020/01/31 09:28:25.4	108.410	-0.100	-0.090	1.490
2020/01/31 09:28:25.5	108.410	-0.110	-0.080	1.580
2020/01/31 09:28:25.6	108.420	-0.120	-0.070	1.660
2020/01/31 09:28:25.7	108.420	-0.130	-0.060	1.750
2020/01/31 09:28:25.8	108.420	-0.130	-0.060	1.830
2020/01/31 09:28:25.9	108.420	-0.140	-0.050	1.910
2020/01/31 09:28:26.0	108.430	-0.140	-0.050	1.990
2020/01/31 09:28:26.1	108.430	-0.140	-0.040	2.070
2020/01/31 09:28:26.2	108.430	-0.150	-0.040	2.150
2020/01/31 09:28:26.3	108.430	-0.150	-0.040	2.230
2020/01/31 09:28:26.4	108.440	-0.160	-0.040	2.310
2020/01/31 09:28:26.5	108.440	-0.160	-0.040	2.390
2020/01/31 09:28:26.6	108.440	-0.160	-0.030	2.460
2020/01/31 09:28:26.7	108.440	-0.170	-0.030	2.540
2020/01/31 09:28:26.8	108.440	-0.170	-0.030	2.620
2020/01/31 09:28:26.9	108.440	-0.180	-0.030	2.690
2020/01/31 09:28:27.0	108.430	-0.190	-0.030	2.760
2020/01/31 09:28:27.1	108.430	-0.200	-0.030	2.830
2020/01/31 09:28:27.2	108.430	-0.200	-0.030	2.900
2020/01/31 09:28:27.3	108.400	-0.210	-0.030	2.960
2020/01/31 09:28:27.4	108.400	-0.220	-0.030	3.030
2020/01/31 09:28:27.5	108.390	-0.240	-0.030	3.090
2020/01/31 09:28:27.6	108.390	-0.250	-0.020	3.140
2020/01/31 09:28:27.7	108.380	-0.260	-0.020	3.190
2020/01/31 09:28:27.8	108.370	-0.270	-0.020	3.240
2020/01/31 09:28:27.9	108.360	-0.290	-0.020	3.280
2020/01/31 09:28:28.0	108.360	-0.300	-0.020	3.320
2020/01/31 09:28:28.1	108.350	-0.310	-0.020	3.350
2020/01/31 09:28:28.2	108.340	-0.330	-0.020	3.380
2020/01/31 09:28:28.3	108.340	-0.340	-0.020	3.390
2020/01/31 09:28:28.4	108.330	-0.350	-0.020	3.400
2020/01/31 09:28:28.5	108.330	-0.360	-0.020	3.410
2020/01/31 09:28:28.6	108.320	-0.380	-0.020	3.410
2020/01/31 09:28:28.7	108.310	-0.390	-0.030	3.400
2020/01/31 09:28:28.8	108.310	-0.390	-0.030	3.380
2020/01/31 09:28:28.9	108.300	-0.400	-0.030	3.360
2020/01/31 09:28:29.0	108.290	-0.410	-0.030	3.330
2020/01/31 09:28:29.1	108.290	-0.410	-0.040	3.290
2020/01/31 09:28:29.2	108.290	-0.410	-0.040	3.250
2020/01/31 09:28:29.3	108.290	-0.410	-0.040	3.190
2020/01/31 09:28:29.4	108.290	-0.410	-0.050	3.140
2020/01/31 09:28:29.5	108.290	-0.410	-0.050	3.070
2020/01/31 09:28:29.6	108.290	-0.400	-0.050	3.000
2020/01/31 09:28:29.7	108.290	-0.400	-0.050	2.920
2020/01/31 09:28:29.8	108.290	-0.390	-0.050	2.840
2020/01/31 09:28:29.9	108.290	-0.380	-0.050	2.750
2020/01/31 09:28:30.0	108.290	-0.370	-0.050	2.650
2020/01/31 09:28:30.1	108.290	-0.350	-0.050	2.560
2020/01/31 09:28:30.2	108.300	-0.340	-0.040	2.450
2020/01/31 09:28:30.3	108.300	-0.320	-0.040	2.340
2020/01/31 09:28:30.4	108.300	-0.300	-0.030	2.240
2020/01/31 09:28:30.5	108.300	-0.290	-0.020	2.120
2020/01/31 09:28:30.6	108.310	-0.270	-0.020	2.010
2020/01/31 09:28:30.7	108.310	-0.250	-0.010	1.890
2020/01/31 09:28:30.8	108.320	-0.230	0.000	1.770
2020/01/31 09:28:30.9	108.320	-0.210	0.010	1.650
2020/01/31 09:28:31.0	108.330	-0.190	0.030	1.530
2020/01/31 09:28:31.1	108.340	-0.170	0.040	1.400
2020/01/31 09:28:31.2	108.340	-0.150	0.050	1.270
2020/01/31 09:28:31.3	108.340	-0.130	0.060	1.140
2020/01/31 09:28:31.4	108.350	-0.110	0.080	1.010
2020/01/31 09:28:31.5	108.360	-0.090	0.090	0.880
2020/01/31 09:28:31.6	108.360	-0.070	0.100	0.760
2020/01/31 09:28:31.7	108.370	-0.050	0.110	0.630
2020/01/31 09:28:31.8	108.370	-0.040	0.120	0.500
2020/01/31 09:28:31.9	108.380	-0.020	0.120	0.370
2020/01/31 09:28:32.0	108.380	-0.010	0.130	0.240
2020/01/31 09:28:32.1	108.380	0.010	0.130	0.110
2020/01/31 09:28:32.2	108.380	0.020	0.130	-0.010
2020/01/31 09:28:32.3	108.360	0.030	0.130	-0.140
2020/01/31 09:28:32.4	108.360	0.040	0.120	-0.260
2020/01/31 09:28:32.5	108.350	0.060	0.110	-0.380
2020/01/31 09:28:32.6	108.350	0.070	0.100	-0.490
2020/01/31 09:28:32.7	108.340	0.080	0.080	-0.610
2020/01/31 09:28:32.8	108.330	0.090	0.060	-0.720
2020/01/31 09:28:32.9	108.320	0.100	0.040	-0.820
2020/01/31 09:28:33.0	108.310	0.110	0.010	-0.930
2020/01/31 09:28:33.1	108.300	0.120	-0.020	-1.020
2020/01/31 09:28:33.2	108.280	0.140	-0.060	-1.120
2020/01/31 09:28:33.3	108.240	0.150	-0.100	-1.210
2020/01/31 09:28:33.4	108.210	0.170	-0.140	-1.300
2020/01/31 09:28:33.5	108.190	0.180	-0.190	-1.380
2020/01/31 09:28:33.6	108.170	0.200	-0.240	-1.460
2020/01/31 09:28:33.7	108.140	0.220	-0.290	-1.530
2020/01/31 09:28:33.8	108.110	0.240	-0.350	-1.600
2020/01/31 09:28:33.9	108.080	0.260	-0.410	-1.660
2020/01/31 09:28:34.0	108.050	0.280	-0.460	-1.720
2020/01/31 09:28:34.1	108.020	0.300	-0.520	-1.770
2020/01/31 09:28:34.2	107.980	0.320	-0.580	-1.820
2020/01/31 09:28:34.3	107.950	0.350	-0.640	-1.870
2020/01/31 09:28:34.4	107.920	0.370	-0.700	-1.910
2020/01/31 09:28:34.5	107.890	0.400	-0.750	-1.940
2020/01/31 09:28:34.6	107.850	0.430	-0.800	-1.970
2020/01/31 09:28:34.7	107.820	0.450	-0.850	-2.000
2020/01/31 09:28:34.8	107.790	0.480	-0.890	-2.020
2020/01/31 09:28:34.9	107.760	0.510	-0.930	-2.040
2020/01/31 09:28:35.0	107.730	0.530	-0.970	-2.050
2020/01/31 09:28:35.1	107.700	0.560	-1.000	-2.060
2020/01/31 09:28:35.2	107.680	0.580	-1.020	-2.070
2020/01/31 09:28:35.3	107.650	0.600	-1.030	-2.060
2020/01/31 09:28:35.4	107.630	0.630	-1.040	-2.060
2020/01/31 09:28:35.5	107.610	0.640	-1.040	-2.050
2020/01/31 09:28:35.6	107.600	0.660	-1.030	-2.040
2020/01/31 09:28:35.7	107.590	0.680	-1.020	-2.030
2020/01/31 09:28:35.8	107.580	0.690	-1.000	-2.000
2020/01/31 09:28:35.9	107.570	0.690	-0.970	-1.980
2020/01/31 09:28:36.0	107.570	0.700	-0.930	-1.950
2020/01/31 09:28:36.1	107.570	0.700	-0.890	-1.910
2020/01/31 09:28:36.2	107.570	0.700	-0.840	-1.870
2020/01/31 09:28:36.3	107.590	0.690	-0.790	-1.830
2020/01/31 09:28:36.4	107.600	0.680	-0.730	-1.780
2020/01/31 09:28:36.5	107.600	0.670	-0.670	-1.730
2020/01/31 09:28:36.6	107.610	0.650	-0.600	-1.670
2020/01/31 09:28:36.7	107.620	0.630	-0.520	-1.610
2020/01/31 09:28:36.8	107.630	0.600	-0.450	-1.540
2020/01/31 09:28:36.9	107.640	0.570	-0.370	-1.470
2020/01/31 09:28:37.0	107.650	0.540	-0.290	-1.400
2020/01/31 09:28:37.1	107.660	0.500	-0.210	-1.320
2020/01/31 09:28:37.2	107.660	0.460	-0.130	-1.230
2020/01/31 09:28:37.3	107.680	0.420	-0.050	-1.140
2020/01/31 09:28:37.4	107.690	0.380	0.020	-1.050
2020/01/31 09:28:37.5	107.690	0.330	0.100	-0.960
2020/01/31 09:28:37.6	107.700	0.280	0.170	-0.860
2020/01/31 09:28:37.7	107.710	0.220	0.240	-0.770
2020/01/31 09:28:37.8	107.710	0.170	0.310	-0.670
2020/01/31 09:28:37.9	107.720	0.110	0.370	-0.560
2020/01/31 09:28:38.0	107.720	0.060	0.430	-0.460
2020/01/31 09:28:38.1	107.720	-0.000	0.490	-0.360
2020/01/31 09:28:38.2	107.730	-0.060	0.540	-0.250
2020/01/31 09:28:38.3	107.740	-0.120	0.580	-0.140
2020/01/31 09:28:38.4	107.740	-0.180	0.620	-0.030
2020/01/31 09:28:38.5	107.740	-0.230	0.660	0.080
2020/01/31 09:28:38.6	107.740	-0.290	0.690	0.200
2020/01/31 09:28:38.7	107.740	-0.340	0.710	0.310
2020/01/31 09:28:38.8	107.740	-0.390	0.730	0.430
2020/01/31 09:28:38.9	107.730	-0.450	0.740	0.550
2020/01/31 09:28:39.0	107.730	-0.490	0.750	0.670
2020/01/31 09:28:39.1	107.730	-0.540	0.750	0.790
2020/01/31 09:28:39.2	107.730	-0.580	0.750	0.910
2020/01/31 09:28:39.3	107.740	-0.620	0.730	1.030
2020/01/31 09:28:39.4	107.730	-0.660	0.720	1.150
2020/01/31 09:28:39.5	107.730	-0.690	0.700	1.270
2020/01/31 09:28:39.6	107.730	-0.720	0.680	1.390
2020/01/31 09:28:39.7	107.720	-0.750	0.660	1.510
2020/01/31 09:28:39.8	107.720	-0.770	0.630	1.630
2020/01/31 09:28:39.9	107.720	-0.790	0.590	1.750
2020/01/31 09:28:40.0	107.710	-0.810	0.550	1.860
2020/01/31 09:28:40.1	107.710	-0.820	0.510	1.970
2020/01/31 09:28:40.2	107.700	-0.820	0.470	2.090
2020/01/31 09:28:40.3	107.700	-0.830	0.430	2.190
2020/01/31 09:28:40.4	107.690	-0.830	0.380	2.300
2020/01/31 09:28:40.5	107.690	-0.820	0.330	2.400
2020/01/31 09:28:40.6	107.680	-0.810	0.280	2.500
2020/01/31 09:28:40.7	107.670	-0.800	0.230	2.600
2020/01/31 09:28:40.8	107.660	-0.780	0.180	2.700
2020/01/31 09:28:40.9	107.650	-0.760	0.120	2.790
2020/01/31 09:28:41.0	107.650	-0.730	0.060	2.870
2020/01/31 09:28:41.1	107.630	-0.710	0.010	2.960
2020/01/31 09:28:41.2	107.620	-0.670	-0.050	3.040
2020/01/31 09:28:41.3	107.620	-0.640	-0.110	3.110
2020/01/31 09:28:41.4	107.610	-0.600	-0.160	3.180
2020/01/31 09:28:41.5	107.590	-0.560	-0.220	3.250
2020/01/31 09:28:41.6	107.580	-0.520	-0.270	3.320
2020/01/31 09:28:41.7	107.570	-0.480	-0.320	3.370
2020/01/31 09:28:41.8	107.550	-0.430	-0.380	3.430
2020/01/31 09:28:41.9	107.540	-0.390	-0.430	3.480
2020/01/31 09:28:42.0	107.530	-0.340	-0.470	3.520
2020/01/31 09:28:42.1	107.510	-0.290	-0.520	3.560
2020/01/31 09:28:42.2	107.500	-0.240	-0.560	3.590
2020/01/31 09:28:42.3	107.490	-0.190	-0.600	3.610
2020/01/31 09:28:42.4	107.480	-0.140	-0.640	3.630
2020/01/31 09:28:42.5	107.480	-0.090	-0.680	3.640
2020/01/31 09:28:42.6	107.470	-0.040	-0.710	3.640
2020/01/31 09:28:42.7	107.470	0.010	-0.740	3.640
2020/01/31 09:28:42.8	107.470	0.060	-0.760	3.630
2020/01/31 09:28:42.9	107.470	0.110	-0.780	3.610
2020/01/31 09:28:43.0	107.470	0.160	-0.800	3.580
2020/01/31 09:28:43.1	107.470	0.200	-0.820	3.550
2020/01/31 09:28:43.2	107.480	0.250	-0.830	3.510
2020/01/31 09:28:43.3	107.490	0.290	-0.840	3.460
2020/01/31 09:28:43.4	107.500	0.330	-0.840	3.400
2020/01/31 09:28:43.5	107.510	0.370	-0.840	3.340
2020/01/31 09:28:43.6	107.520	0.410	-0.850	3.280
2020/01/31 09:28:43.7	107.530	0.450	-0.840	3.200
2020/01/31 09:28:43.8	107.540	0.480	-0.840	3.130
2020/01/31 09:28:43.9	107.550	0.510	-0.830	3.040
2020/01/31 09:28:44.0	107.560	0.540	-0.820	2.960
2020/01/31 09:28:44.1	107.570	0.570	-0.810	2.860
2020/01/31 09:28:44.2	107.580	0.590	-0.800	2.770
2020/01/31 09:28:44.3	107.570	0.610	-0.790	2.660
2020/01/31 09:28:44.4	107.580	0.630	-0.770	2.560
2020/01/31 09:28:44.5	107.580	0.650	-0.760	2.460
2020/01/31 09:28:44.6	107.580	0.660	-0.740	2.350
2020/01/31 09:28:44.7	107.580	0.670	-0.720	2.240
2020/01/31 09:28:44.8	107.580	0.680	-0.700	2.130
2020/01/31 09:28:44.9	107.580	0.680	-0.680	2.020
2020/01/31 09:28:45.0	107.570	0.680	-0.650	1.900
2020/01/31 09:28:45.1	107.560	0.680	-0.630	1.790
2020/01/31 09:28:45.2	107.550	0.680	-0.600	1.670
2020/01/31 09:28:45.3	107.540	0.670	-0.570	1.550
2020/01/31 09:28:45.4	107.530	0.660	-0.540	1.430
2020/01/31 09:28:45.5	107.510	0.650	-0.510	1.310
2020/01/31 09:28:45.6	107.490	0.630	-0.470	1.190
2020/01/31 09:28:45.7	107.470	0.610	-0.430	1.070
2020/01/31 09:28:45.8	107.460	0.590	-0.400	0.950
2020/01/31 09:28:45.9	107.430	0.560	-0.350	0.830
2020/01/31 09:28:46.0	107.410	0.540	-0.310	0.710
2020/01/31 09:28:46.1	107.390	0.510	-0.270	0.600
2020/01/31 09:28:46.2	107.370	0.480	-0.220	0.480
2020/01/31 09:28:46.3	107.330	0.450	-0.170	0.360
2020/01/31 09:28:46.4	107.310	0.410	-0.120	0.250
2020/01/31 09:28:46.5	107.290	0.370	-0.080	0.140
2020/01/31 09:28:46.6	107.260	0.340	-0.030	0.030
2020/01/31 09:28:46.7	107.240	0.300	0.020	-0.080
2020/01/31 09:28:46.8	107.220	0.260	0.060	-0.180
2020/01/31 09:28:46.9	107.200	0.220	0.100	-0.290
2020/01/31 09:28:47.0	107.180	0.180	0.150	-0.390
2020/01/31 09:28:47.1	107.160	0.140	0.180	-0.490
2020/01/31 09:28:47.2	107.150	0.100	0.220	-0.580
2020/01/31 09:28:47.3	107.110	0.060	0.250	-0.670
2020/01/31 09:28:47.4	107.100	0.020	0.280	-0.760
2020/01/31 09:28:47.5	107.090	-0.020	0.310	-0.840
2020/01/31 09:28:47.6	107.080	-0.060	0.340	-0.920
2020/01/31 09:28:47.7	107.070	-0.100	0.360	-1.000
2020/01/31 09:28:47.8	107.060	-0.130	0.380	-1.080
2020/01/31 09:28:47.9	107.050	-0.170	0.390	-1.150
2020/01/31 09:28:48.0	107.050	-0.200	0.400	-1.220
2020/01/31 09:28:48.1	107.050	-0.230	0.410	-1.280
2020/01/31 09:28:48.2	107.050	-0.260	0.420	-1.340
2020/01/31 09:28:48.3	107.040	-0.290	0.420	-1.400
2020/01/31 09:28:48.4	107.040	-0.310	0.420	-1.450
2020/01/31 09:28:48.5	107.040	-0.340	0.420	-1.490
2020/01/31 09:28:48.6	107.040	-0.360	0.410	-1.540
2020/01/31 09:28:48.7	107.050	-0.380	0.410	-1.570
2020/01/31 09:28:48.8	107.050	-0.400	0.400	-1.610
2020/01/31 09:28:48.9	107.060	-0.420	0.390	-1.630
2020/01/31 09:28:49.0	107.060	-0.430	0.370	-1.660
2020/01/31 09:28:49.1	107.070	-0.440	0.360	-1.680
2020/01/31 09:28:49.2	107.080	-0.460	0.340	-1.690
2020/01/31 09:28:49.3	107.080	-0.470	0.330	-1.700
2020/01/31 09:28:49.4	107.090	-0.470	0.310	-1.710
2020/01/31 09:28:49.5	107.100	-0.480	0.290	-1.710
2020/01/31 09:28:49.6	107.110	-0.490	0.270	-1.710
2020/01/31 09:28:49.7	107.120	-0.490	0.250	-1.700
2020/01/31 09:28:49.8	107.120	-0.490	0.220	-1.690
2020/01/31 09:28:49.9	107.130	-0.490	0.200	-1.680
2020/01/31 09:28:50.0	107.140	-0.490	0.180	-1.660
2020/01/31 09:28:50.1	107.140	-0.490	0.160	-1.640
2020/01/31 09:28:50.2	107.150	-0.490	0.130	-1.620
2020/01/31 09:28:50.3	107.150	-0.480	0.110	-1.590
2020/01/31 09:28:50.4	107.160	-0.480	0.090	-1.550
2020/01/31 09:28:50.5	107.160	-0.470	0.060	-1.520
2020/01/31 09:28:50.6	107.160	-0.460	0.040	-1.480
2020/01/31 09:28:50.7	107.170	-0.460	0.010	-1.440
2020/01/31 09:28:50.8	107.170	-0.450	-0.010	-1.390
2020/01/31 09:28:50.9	107.170	-0.430	-0.040	-1.340
2020/01/31 09:28:51.0	107.170	-0.420	-0.070	-1.290
2020/01/31 09:28:51.1	107.160	-0.410	-0.090	-1.240
2020/01/31 09:28:51.2	107.160	-0.390	-0.120	-1.180
2020/01/31 09:28:51.3	107.140	-0.380	-0.140	-1.120
2020/01/31 09:28:51.4	107.140	-0.360	-0.170	-1.060
2020/01/31 09:28:51.5	107.130	-0.340	-0.200	-1.000
2020/01/31 09:28:51.6	107.130	-0.320	-0.220	-0.930
2020/01/31 09:28:51.7	107.120	-0.300	-0.250	-0.860
2020/01/31 09:28:51.8	107.120	-0.270	-0.280	-0.790
2020/01/31 09:28:51.9	107.110	-0.250	-0.300	-0.710
2020/01/31 09:28:52.0	107.110	-0.220	-0.330	-0.640
2020/01/31 09:28:52.1	107.100	-0.200	-0.360	-0.560
2020/01/31 09:28:52.2	107.090	-0.170	-0.380	-0.480
2020/01/31 09:28:52.3	107.090	-0.140	-0.410	-0.400
2020/01/31 09:28:52.4	107.090	-0.110	-0.440	-0.310
2020/01/31 09:28:52.5	107.080	-0.080	-0.460	-0.220
2020/01/31 09:28:52.6	107.080	-0.050	-0.490	-0.130
2020/01/31 09:28:52.7	107.070	-0.020	-0.510	-0.040
2020/01/31 09:28:52.8	107.060	0.010	-0.540	0.060
2020/01/31 09:28:52.9	107.060	0.050	-0.560	0.160
2020/01/31 09:28:53.0	107.050	0.080	-0.580	0.260
2020/01/31 09:28:53.1	107.040	0.120	-0.610	0.360
2020/01/31 09:28:53.2	107.030	0.150	-0.630	0.470
2020/01/31 09:28:53.3	107.020	0.180	-0.650	0.580
2020/01/31 09:28:53.4	107.010	0.220	-0.670	0.690
2020/01/31 09:28:53.5	107.000	0.250	-0.680	0.810
2020/01/31 09:28:53.6	106.990	0.280	-0.700	0.930
2020/01/31 09:28:53.7	106.980	0.310	-0.710	1.040
2020/01/31 09:28:53.8	106.970	0.340	-0.720	1.160
2020/01/31 09:28:53.9	106.960	0.370	-0.730	1.280
2020/01/31 09:28:54.0	106.950	0.400	-0.740	1.400
2020/01/31 09:28:54.1	106.940	0.430	-0.750	1.520
2020/01/31 09:28:54.2	106.930	0.450	-0.750	1.640
2020/01/31 09:28:54.3	106.910	0.470	-0.750	1.760
2020/01/31 09:28:54.4	106.900	0.490	-0.750	1.870
2020/01/31 09:28:54.5	106.890	0.510	-0.740	1.990
2020/01/31 09:28:54.6	106.880	0.530	-0.740	2.100
2020/01/31 09:28:54.7	106.860	0.540	-0.730	2.200
2020/01/31 09:28:54.8	106.850	0.550	-0.720	2.310
2020/01/31 09:28:54.9	106.840	0.560	-0.700	2.410
2020/01/31 09:28:55.0	106.830	0.560	-0.690	2.500
2020/01/31 09:28:55.1	106.810	0.560	-0.670	2.600
2020/01/31 09:28:55.2	106.800	0.560	-0.650	2.680
2020/01/31 09:28:55.3	106.800	0.560	-0.630	2.760
2020/01/31 09:28:55.4	106.790	0.550	-0.600	2.840
2020/01/31 09:28:55.5	106.770	0.540	-0.570	2.910
2020/01/31 09:28:55.6	106.760	0.530	-0.540	2.970
2020/01/31 09:28:55.7	106.740	0.510	-0.500	3.030
2020/01/31 09:28:55.8	106.730	0.500	-0.470	3.080
2020/01/31 09:28:55.9	106.720	0.480	-0.430	3.130
2020/01/31 09:28:56.0	106.700	0.450	-0.390	3.170
2020/01/31 09:28:56.1	106.690	0.430	-0.340	3.200
2020/01/31 09:28:56.2	106.680	0.400	-0.290	3.220
2020/01/31 09:28:56.3	106.690	0.370	-0.250	3.250
2020/01/31 09:28:56.4	106.670	0.340	-0.200	3.260
2020/01/31 09:28:56.5	106.660	0.310	-0.140	3.260
2020/01/31 09:28:56.6	106.660	0.280	-0.090	3.260
2020/01/31 09:28:56.7	106.650	0.240	-0.040	3.250
2020/01/31 09:28:56.8	106.640	0.210	0.020	3.240
2020/01/31 09:28:56.9	106.640	0.170	0.070	3.220
2020/01/31 09:28:57.0	106.630	0.130	0.130	3.200
2020/01/31 09:28:57.1	106.630	0.100	0.190	3.170
2020/01/31 09:28:57.2	106.630	0.060	0.240	3.140
2020/01/31 09:28:57.3	106.630	0.020	0.290	3.100
2020/01/31 09:28:57.4	106.630	-0.010	0.340	3.060
2020/01/31 09:28:57.5	106.620	-0.050	0.390	3.010
2020/01/31 09:28:57.6	106.620	-0.080	0.430	2.970
2020/01/31 09:28:57.7	106.620	-0.110	0.480	2.920
2020/01/31 09:28:57.8	106.620	-0.150	0.520	2.870
2020/01/31 09:28:57.9	106.620	-0.180	0.550	2.810
2020/01/31 09:28:58.0	106.610	-0.210	0.580	2.760
2020/01/31 09:28:58.1	106.610	-0.230	0.610	2.700
2020/01/31 09:28:58.2	106.610	-0.260	0.630	2.640
2020/01/31 09:28:58.3	106.600	-0.280	0.650	2.580
2020/01/31 09:28:58.4	106.590	-0.300	0.660	2.520
2020/01/31 09:28:58.5	106.580	-0.320	0.670	2.460
2020/01/31 09:28:58.6	106.580	-0.340	0.670	2.400
2020/01/31 09:28:58.7	106.570	-0.360	0.670	2.330
2020/01/31 09:28:58.8	106.560	-0.370	0.670	2.270
2020/01/31 09:28:58.9	106.540	-0.380	0.650	2.200
2020/01/31 09:28:59.0	106.530	-0.390	0.640	2.140
2020/01/31 09:28:59.1	106.520	-0.390	0.620	2.070
2020/01/31 09:28:59.2	106.500	-0.400	0.590	2.000
2020/01/31 09:28:59.3	106.490	-0.400	0.560	1.920
2020/01/31 09:28:59.4	106.470	-0.400	0.530	1.850
2020/01/31 09:28:59.5	106.450	-0.400	0.490	1.770
2020/01/31 09:28:59.6	106.430	-0.390	0.450	1.700
2020/01/31 09:28:59.7	106.420	-0.380	0.410	1.620
2020/01/31 09:28:59.8	106.400	-0.370	0.360	1.530
2020/01/31 09:28:59.9	106.380	-0.360	0.310	1.450
2020/01/31 09:29:00.0	106.360	-0.350	0.260	1.360
2020/01/31 09:29:00.1	106.340	-0.330	0.200	1.270
2020/01/31 09:29:00.2	106.320	-0.320	0.150	1.180
2020/01/31 09:29:00.3	106.300	-0.300	0.090	1.080
2020/01/31 09:29:00.4	106.280	-0.280	0.030	0.990
2020/01/31 09:29:00.5	106.260	-0.260	-0.020	0.890
2020/01/31 09:29:00.6	106.230	-0.230	-0.080	0.790
2020/01/31 09:29:00.7	106.210	-0.210	-0.140	0.690
2020/01/31 09:29:00.8	106.190	-0.190	-0.200	0.590
2020/01/31 09:29:00.9	106.160	-0.160	-0.260	0.490
2020/01/31 09:29:01.0	106.140	-0.130	-0.320	0.380
2020/01/31 09:29:01.1	106.120	-0.110	-0.370	0.280
2020/01/31 09:29:01.2	106.100	-0.080	-0.430	0.170
2020/01/31 09:29:01.3	106.040	-0.050	-0.480	0.070
2020/01/31 09:29:01.4	106.020	-0.020	-0.530	-0.040
2020/01/31 09:29:01.5	106.000	0.000	-0.590	-0.140
2020/01/31 09:29:01.6	105.980	0.030	-0.640	-0.250
2020/01/31 09:29:01.7	105.960	0.060	-0.680	-0.350
2020/01/31 09:29:01.8	105.950	0.080	-0.730	-0.460
2020/01/31 09:29:01.9	105.930	0.110	-0.770	-0.560
2020/01/31 09:29:02.0	105.920	0.130	-0.800	-0.670
2020/01/31 09:29:02.1	105.910	0.160	-0.840	-0.770
2020/01/31 09:29:02.2	105.900	0.180	-0.870	-0.870
2020/01/31 09:29:02.3	105.890	0.200	-0.890	-0.970
2020/01/31 09:29:02.4	105.890	0.220	-0.910	-1.060
2020/01/31 09:29:02.5	105.890	0.230	-0.930	-1.160
2020/01/31 09:29:02.6	105.890	0.250	-0.940	-1.240
2020/01/31 09:29:02.7	105.900	0.260	-0.950	-1.330
2020/01/31 09:29:02.8	105.910	0.270	-0.960	-1.410
2020/01/31 09:29:02.9	105.920	0.280	-0.950	-1.480
2020/01/31 09:29:03.0	105.930	0.290	-0.950	-1.550
2020/01/31 09:29:03.1	105.950	0.300	-0.940	-1.620
2020/01/31 09:29:03.2	105.960	0.300	-0.920	-1.680
2020/01/31 09:29:03.3	105.970	0.300	-0.900	-1.720
2020/01/31 09:29:03.4	105.990	0.300	-0.880	-1.770
2020/01/31 09:29:03.5	106.010	0.300	-0.850	-1.810
2020/01/31 09:29:03.6	106.030	0.300	-0.820	-1.840
2020/01/31 09:29:03.7	106.040	0.290	-0.780	-1.860
2020/01/31 09:29:03.8	106.060	0.290	-0.740	-1.870
2020/01/31 09:29:03.9	106.070	0.280	-0.690	-1.880
2020/01/31 09:29:04.0	106.090	0.270	-0.650	-1.880
2020/01/31 09:29:04.1	106.090	0.260	-0.600	-1.870
2020/01/31 09:29:04.2	106.100	0.240	-0.550	-1.850
2020/01/31 09:29:04.3	106.110	0.230	-0.490	-1.820
2020/01/31 09:29:04.4	106.120	0.220	-0.430	-1.780
2020/01/31 09:29:04.5	106.120	0.200	-0.380	-1.740
2020/01/31 09:29:04.6	106.110	0.190	-0.320	-1.690
2020/01/31 09:29:04.7	106.110	0.170	-0.260	-1.630
2020/01/31 09:29:04.8	106.100	0.150	-0.210	-1.570
2020/01/31 09:29:04.9	106.080	0.130	-0.150	-1.500
2020/01/31 09:29:05.0	106.070	0.110	-0.100	-1.420
2020/01/31 09:29:05.1	106.050	0.100	-0.050	-1.340
2020/01/31 09:29:05.2	106.030	0.080	0.000	-1.250
2020/01/31 09:29:05.3	106.010	0.060	0.050	-1.150
2020/01/31 09:29:05.4	105.990	0.040	0.100	-1.050
2020/01/31 09:29:05.5	105.960	0.020	0.140	-0.950
2020/01/31 09:29:05.6	105.940	0.000	0.180	-0.840
2020/01/31 09:29:05.7	105.910	-0.020	0.210	-0.730
2020/01/31 09:29:05.8	105.880	-0.040	0.240	-0.620
2020/01/31 09:29:05.9	105.850	-0.050	0.270	-0.510
2020/01/31 09:29:06.0	105.820	-0.070	0.290	-0.390
2020/01/31 09:29:06.1	105.790	-0.090	0.300	-0.280
2020/01/31 09:29:06.2	105.760	-0.100	0.320	-0.160
2020/01/31 09:29:06.3	105.720	-0.120	0.330	-0.040
2020/01/31 09:29:06.4	105.690	-0.130	0.330	0.070
2020/01/31 09:29:06.5	105.660	-0.140	0.330	0.190
2020/01/31 09:29:06.6	105.640	-0.160	0.330	0.300
2020/01/31 09:29:06.7	105.610	-0.170	0.320	0.420
2020/01/31 09:29:06.8	105.590	-0.180	0.310	0.530
2020/01/31 09:29:06.9	105.560	-0.180	0.290	0.640
2020/01/31 09:29:07.0	105.540	-0.190	0.270	0.750
2020/01/31 09:29:07.1	105.520	-0.200	0.250	0.860
2020/01/31 09:29:07.2	105.500	-0.200	0.230	0.970
2020/01/31 09:29:07.3	105.490	-0.200	0.210	1.070
2020/01/31 09:29:07.4	105.470	-0.210	0.180	1.180
2020/01/31 09:29:07.5	105.460	-0.210	0.150	1.280
2020/01/31 09:29:07.6	105.450	-0.210	0.110	1.380
2020/01/31 09:29:07.7	105.440	-0.210	0.080	1.470
2020/01/31 09:29:07.8	105.430	-0.200	0.040	1.570
2020/01/31 09:29:07.9	105.420	-0.200	0.010	1.660
2020/01/31 09:29:08.0	105.410	-0.200	-0.030	1.740
2020/01/31 09:29:08.1	105.410	-0.190	-0.060	1.830
2020/01/31 09:29:08.2	105.400	-0.190	-0.100	1.910
2020/01/31 09:29:08.3	105.400	-0.180	-0.130	2.000
2020/01/31 09:29:08.4	105.400	-0.170	-0.170	2.070
2020/01/31 09:29:08.5	105.400	-0.170	-0.200	2.150
2020/01/31 09:29:08.6	105.400	-0.160	-0.230	2.220
2020/01/31 09:29:08.7	105.400	-0.150	-0.260	2.280
2020/01/31 09:29:08.8	105.410	-0.140	-0.290	2.350
2020/01/31 09:29:08.9	105.410	-0.130	-0.310	2.410
2020/01/31 09:29:09.0	105.420	-0.120	-0.330	2.460
2020/01/31 09:29:09.1	105.430	-0.120	-0.350	2.510
2020/01/31 09:29:09.2	105.440	-0.110	-0.360	2.560
2020/01/31 09:29:09.3	105.460	-0.100	-0.380	2.600
2020/01/31 09:29:09.4	105.470	-0.100	-0.390	2.640
2020/01/31 09:29:09.5	105.480	-0.090	-0.390	2.680
2020/01/31 09:29:09.6	105.500	-0.080	-0.390	2.710
2020/01/31 09:29:09.7	105.510	-0.080	-0.380	2.730
2020/01/31 09:29:09.8	105.530	-0.070	-0.380	2.750
2020/01/31 09:29:09.9	105.540	-0.070	-0.360	2.770
2020/01/31 09:29:10.0	105.560	-0.070	-0.350	2.780
2020/01/31 09:29:10.1	105.570	-0.070	-0.330	2.790
2020/01/31 09:29:10.2	105.590	-0.070	-0.310	2.790
2020/01/31 09:29:10.3	105.620	-0.070	-0.280	2.790
2020/01/31 09:29:10.4	105.630	-0.070	-0.250	2.780
2020/01/31 09:29:10.5	105.650	-0.070	-0.220	2.770
2020/01/31 09:29:10.6	105.670	-0.070	-0.190	2.750
2020/01/31 09:29:10.7	105.680	-0.070	-0.150	2.730
2020/01/31 09:29:10.8	105.700	-0.070	-0.110	2.700
2020/01/31 09:29:10.9	105.710	-0.080	-0.080	2.670
2020/01/31 09:29:11.0	105.730	-0.080	-0.040	2.630
2020/01/31 09:29:11.1	105.750	-0.080	-0.000	2.590
2020/01/31 09:29:11.2	105.760	-0.090	0.040	2.550
2020/01/31 09:29:11.3	105.790	-0.090	0.070	2.500
2020/01/31 09:29:11.4	105.800	-0.090	0.110	2.450
2020/01/31 09:29:11.5	105.810	-0.100	0.140	2.400
2020/01/31 09:29:11.6	105.820	-0.100	0.170	2.340
2020/01/31 09:29:11.7	105.830	-0.100	0.200	2.280
2020/01/31 09:29:11.8	105.840	-0.100	0.220	2.210
2020/01/31 09:29:11.9	105.850	-0.100	0.240	2.140
2020/01/31 09:29:12.0	105.860	-0.100	0.260	2.070
2020/01/31 09:29:12.1	105.870	-0.100	0.270	2.000
2020/01/31 09:29:12.2	105.870	-0.090	0.290	1.920
2020/01/31 09:29:12.3	105.870	-0.090	0.290	1.840
2020/01/31 09:29:12.4	105.870	-0.080	0.290	1.760
2020/01/31 09:29:12.5	105.870	-0.070	0.290	1.670
2020/01/31 09:29:12.6	105.870	-0.060	0.280	1.590
2020/01/31 09:29:12.7	105.870	-0.050	0.270	1.500
2020/01/31 09:29:12.8	105.870	-0.040	0.250	1.410
2020/01/31 09:29:12.9	105.860	-0.020	0.230	1.320
2020/01/31 09:29:13.0	105.860	-0.000	0.200	1.230
2020/01/31 09:29:13.1	105.850	0.020	0.170	1.140
2020/01/31 09:29:13.2	105.850	0.040	0.140	1.040
2020/01/31 09:29:13.3	105.840	0.060	0.100	0.940
2020/01/31 09:29:13.4	105.830	0.080	0.060	0.850
2020/01/31 09:29:13.5	105.820	0.110	0.010	0.750
2020/01/31 09:29:13.6	105.810	0.140	-0.040	0.660
2020/01/31 09:29:13.7	105.800	0.160	-0.100	0.560
2020/01/31 09:29:13.8	105.780	0.190	-0.150	0.470
2020/01/31 09:29:13.9	105.770	0.220	-0.210	0.380
2020/01/31 09:29:14.0	105.760	0.250	-0.270	0.290
2020/01/31 09:29:14.1	105.740	0.280	-0.330	0.200
2020/01/31 09:29:14.2	105.720	0.310	-0.390	0.120
2020/01/31 09:29:14.3	105.700	0.340	-0.460	0.030
2020/01/31 09:29:14.4	105.680	0.370	-0.520	-0.050
2020/01/31 09:29:14.5	105.660	0.400	-0.580	-0.130
2020/01/31 09:29:14.6	105.640	0.430	-0.640	-0.210
2020/01/31 09:29:14.7	105.620	0.450	-0.700	-0.280
2020/01/31 09:29:14.8	105.610	0.480	-0.750	-0.360
2020/01/31 09:29:14.9	105.580	0.500	-0.810	-0.420
2020/01/31 09:29:15.0	105.570	0.520	-0.850	-0.490
2020/01/31 09:29:15.1	105.540	0.540	-0.900	-0.560
2020/01/31 09:29:15.2	105.520	0.560	-0.940	-0.620
2020/01/31 09:29:15.3	105.490	0.580	-0.970	-0.680
2020/01/31 09:29:15.4	105.470	0.590	-1.000	-0.740
2020/01/31 09:29:15.5	105.450	0.600	-1.020	-0.790
2020/01/31 09:29:15.6	105.430	0.610	-1.040	-0.840
2020/01/31 09:29:15.7	105.420	0.620	-1.050	-0.890
2020/01/31 09:29:15.8	105.400	0.620	-1.060	-0.940
2020/01/31 09:29:15.9	105.380	0.620	-1.050	-0.980
2020/01/31 09:29:16.0	105.370	0.620	-1.050	-1.030
2020/01/31 09:29:16.1	105.350	0.610	-1.030	-1.060
2020/01/31 09:29:16.2	105.340	0.600	-1.010	-1.100
2020/01/31 09:29:16.3	105.310	0.590	-0.990	-1.140
2020/01/31 09:29:16.4	105.300	0.570	-0.950	-1.170
2020/01/31 09:29:16.5	105.290	0.550	-0.910	-1.200
2020/01/31 09:29:16.6	105.280	0.530	-0.870	-1.220
2020/01/31 09:29:16.7	105.270	0.500	-0.820	-1.240
2020/01/31 09:29:16.8	105.260	0.470	-0.760	-1.260
2020/01/31 09:29:16.9	105.260	0.440	-0.700	-1.270
2020/01/31 09:29:17.0	105.250	0.410	-0.630	-1.280
2020/01/31 09:29:17.1	105.250	0.370	-0.560	-1.280
2020/01/31 09:29:17.2	105.250	0.330	-0.490	-1.280
2020/01/31 09:29:17.3	105.250	0.290	-0.410	-1.280
2020/01/31 09:29:17.4	105.250	0.250	-0.320	-1.270
2020/01/31 09:29:17.5	105.260	0.200	-0.240	-1.260
2020/01/31 09:29:17.6	105.260	0.150	-0.160	-1.240
2020/01/31 09:29:17.7	105.270	0.100	-0.070	-1.220
2020/01/31 09:29:17.8	105.280	0.050	0.020	-1.200
2020/01/31 09:29:17.9	105.290	0.000	0.100	-1.170
2020/01/31 09:29:18.0	105.310	-0.050	0.190	-1.140
2020/01/31 09:29:18.1	105.320	-0.100	0.280	-1.100
2020/01/31 09:29:18.2	105.330	-0.150	0.360	-1.060
2020/01/31 09:29:18.3	105.350	-0.200	0.440	-1.010
2020/01/31 09:29:18.4	105.370	-0.250	0.510	-0.960
2020/01/31 09:29:18.5	105.390	-0.300	0.590	-0.910
2020/01/31 09:29:18.6	105.410	-0.350	0.650	-0.860
2020/01/31 09:29:18.7	105.430	-0.400	0.710	-0.800
2020/01/31 09:29:18.8	105.450	-0.440	0.770	-0.730
2020/01/31 09:29:18.9	105.470	-0.480	0.820	-0.670
2020/01/31 09:29:19.0	105.500	-0.520	0.860	-0.600
2020/01/31 09:29:19.1	105.520	-0.560	0.900	-0.530
2020/01/31 09:29:19.2	105.550	-0.600	0.920	-0.450
2020/01/31 09:29:19.3	105.570	-0.630	0.950	-0.370
2020/01/31 09:29:19.4	105.590	-0.650	0.960	-0.290
2020/01/31 09:29:19.5	105.620	-0.680	0.960	-0.210
2020/01/31 09:29:19.6	105.640	-0.700	0.960	-0.130
2020/01/31 09:29:19.7	105.670	-0.720	0.950	-0.040
2020/01/31 09:29:19.8	105.690	-0.730	0.930	0.050
2020/01/31 09:29:19.9	105.710	-0.740	0.900	0.140
2020/01/31 09:29:20.0	105.740	-0.750	0.860	0.240
2020/01/31 09:29:20.1	105.760	-0.750	0.820	0.330
2020/01/31 09:29:20.2	105.780	-0.750	0.780	0.430
2020/01/31 09:29:20.3	105.800	-0.740	0.720	0.530
2020/01/31 09:29:20.4	105.810	-0.730	0.660	0.630
2020/01/31 09:29:20.5	105.830	-0.720	0.600	0.730
2020/01/31 09:29:20.6	105.840	-0.700	0.530	0.830
2020/01/31 09:29:20.7	105.860	-0.680	0.450	0.930
2020/01/31 09:29:20.8	105.870	-0.660	0.380	1.030
2020/01/31 09:29:20.9	105.880	-0.640	0.300	1.140
2020/01/31 09:29:21.0	105.880	-0.610	0.210	1.240
2020/01/31 09:29:21.1	105.890	-0.580	0.130	1.340
2020/01/31 09:29:21.2	105.890	-0.540	0.040	1.440
2020/01/31 09:29:21.3	105.880	-0.510	-0.050	1.550
2020/01/31 09:29:21.4	105.880	-0.470	-0.140	1.650
2020/01/31 09:29:21.5	105.870	-0.430	-0.230	1.760
2020/01/31 09:29:21.6	105.870	-0.390	-0.320	1.860
2020/01/31 09:29:21.7	105.860	-0.350	-0.410	1.960
2020/01/31 09:29:21.8	105.840	-0.310	-0.490	2.060
2020/01/31 09:29:21.9	105.830	-0.270	-0.580	2.160
2020/01/31 09:29:22.0	105.810	-0.230	-0.660	2.260
2020/01/31 09:29:22.1	105.780	-0.180	-0.740	2.350
2020/01/31 09:29:22.2	105.760	-0.140	-0.810	2.450
2020/01/31 09:29:22.3	105.740	-0.100	-0.880	2.540
2020/01/31 09:29:22.4	105.710	-0.060	-0.950	2.630
2020/01/31 09:29:22.5	105.670	-0.020	-1.010	2.720
2020/01/31 09:29:22.6	105.640	0.020	-1.060	2.810
2020/01/31 09:29:22.7	105.600	0.060	-1.120	2.890
2020/01/31 09:29:22.8	105.560	0.090	-1.160	2.970
2020/01/31 09:29:22.9	105.520	0.130	-1.200	3.050
2020/01/31 09:29:23.0	105.480	0.160	-1.230	3.120
2020/01/31 09:29:23.1	105.440	0.190	-1.250	3.180
2020/01/31 09:29:23.2	105.400	0.210	-1.270	3.240
2020/01/31 09:29:23.3	105.370	0.240	-1.280	3.300
2020/01/31 09:29:23.4	105.330	0.260	-1.280	3.340
2020/01/31 09:29:23.5	105.290	0.270	-1.270	3.380
2020/01/31 09:29:23.6	105.250	0.290	-1.260	3.420
2020/01/31 09:29:23.7	105.210	0.300	-1.240	3.440
2020/01/31 09:29:23.8	105.180	0.310	-1.210	3.460
2020/01/31 09:29:23.9	105.140	0.310	-1.170	3.470
2020/01/31 09:29:24.0	105.110	0.320	-1.130	3.470
2020/01/31 09:29:24.1	105.080	0.320	-1.090	3.460
2020/01/31 09:29:24.2	105.060	0.310	-1.030	3.450
2020/01/31 09:29:24.3	105.040	0.310	-0.970	3.420
2020/01/31 09:29:24.4	105.020	0.300	-0.910	3.390
2020/01/31 09:29:24.5	105.010	0.290	-0.840	3.350
2020/01/31 09:29:24.6	104.990	0.270	-0.770	3.300
2020/01/31 09:29:24.7	104.980	0.260	-0.700	3.240
2020/01/31 09:29:24.8	104.970	0.240	-0.620	3.180
2020/01/31 09:29:24.9	104.960	0.230	-0.540	3.100
2020/01/31 09:29:25.0	104.960	0.210	-0.460	3.030
2020/01/31 09:29:25.1	104.960	0.190	-0.380	2.940
2020/01/31 09:29:25.2	104.960	0.170	-0.300	2.850
2020/01/31 09:29:25.3	104.960	0.140	-0.210	2.760
2020/01/31 09:29:25.4	104.960	0.120	-0.130	2.660
2020/01/31 09:29:25.5	104.970	0.100	-0.050	2.550
2020/01/31 09:29:25.6	104.980	0.080	0.040	2.440
2020/01/31 09:29:25.7	104.990	0.060	0.120	2.330
2020/01/31 09:29:25.8	105.000	0.030	0.200	2.220
2020/01/31 09:29:25.9	105.020	0.010	0.270	2.100
2020/01/31 09:29:26.0	105.040	-0.010	0.350	1.980
2020/01/31 09:29:26.1	105.060	-0.030	0.420	1.850
2020/01/31 09:29:26.2	105.080	-0.040	0.490	1.730
2020/01/31 09:29:26.3	105.100	-0.060	0.550	1.600
2020/01/31 09:29:26.4	105.130	-0.070	0.610	1.470
2020/01/31 09:29:26.5	105.150	-0.090	0.660	1.340
2020/01/31 09:29:26.6	105.180	-0.100	0.710	1.210
2020/01/31 09:29:26.7	105.200	-0.110	0.760	1.070
2020/01/31 09:29:26.8	105.230	-0.120	0.800	0.940
2020/01/31 09:29:26.9	105.260	-0.130	0.840	0.800
2020/01/31 09:29:27.0	105.280	-0.130	0.860	0.670
2020/01/31 09:29:27.1	105.310	-0.140	0.890	0.540
2020/01/31 09:29:27.2	105.330	-0.140	0.900	0.400
2020/01/31 09:29:27.3	105.350	-0.140	0.910	0.270
2020/01/31 09:29:27.4	105.370	-0.140	0.910	0.140
2020/01/31 09:29:27.5	105.390	-0.140	0.910	0.010
2020/01/31 09:29:27.6	105.410	-0.130	0.900	-0.110
2020/01/31 09:29:27.7	105.430	-0.130	0.890	-0.230
2020/01/31 09:29:27.8	105.440	-0.120	0.860	-0.350
2020/01/31 09:29:27.9	105.450	-0.110	0.830	-0.470
2020/01/31 09:29:28.0	105.450	-0.110	0.800	-0.580
2020/01/31 09:29:28.1	105.460	-0.100	0.760	-0.690
2020/01/31 09:29:28.2	105.450	-0.090	0.710	-0.790
2020/01/31 09:29:28.3	105.440	-0.070	0.660	-0.890
2020/01/31 09:29:28.4	105.430	-0.060	0.600	-0.980
2020/01/31 09:29:28.5	105.410	-0.050	0.540	-1.070
2020/01/31 09:29:28.6	105.400	-0.030	0.470	-1.150
2020/01/31 09:29:28.7	105.380	-0.020	0.400	-1.230
2020/01/31 09:29:28.8	105.350	-0.000	0.320	-1.300
2020/01/31 09:29:28.9	105.320	0.010	0.240	-1.370
2020/01/31 09:29:29.0	105.290	0.030	0.160	-1.430
2020/01/31 09:29:29.1	105.260	0.050	0.080	-1.490
2020/01/31 09:29:29.2	105.220	0.070	-0.000	-1.540
2020/01/31 09:29:29.3	105.190	0.090	-0.090	-1.590
2020/01/31 09:29:29.4	105.150	0.110	-0.170	-1.630
2020/01/31 09:29:29.5	105.110	0.130	-0.260	-1.670
2020/01/31 09:29:29.6	105.060	0.150	-0.340	-1.700
2020/01/31 09:29:29.7	105.020	0.170	-0.430	-1.730
2020/01/31 09:29:29.8	104.970	0.190	-0.510	-1.760
2020/01/31 09:29:29.9	104.930	0.210	-0.590	-1.780
2020/01/31 09:29:30.0	104.880	0.230	-0.670	-1.790
2020/01/31 09:29:30.1	104.840	0.260	-0.750	-1.810
2020/01/31 09:29:30.2	104.800	0.280	-0.820	-1.810
2020/01/31 09:29:30.3	104.760	0.300	-0.890	-1.820
2020/01/31 09:29:30.4	104.730	0.320	-0.950	-1.820
2020/01/31 09:29:30.5	104.690	0.340	-1.010	-1.820
2020/01/31 09:29:30.6	104.650	0.360	-1.070	-1.810
2020/01/31 09:29:30.7	104.620	0.380	-1.120	-1.800
2020/01/31 09:29:30.8	104.590	0.400	-1.160	-1.780
2020/01/31 09:29:30.9	104.560	0.420	-1.200	-1.760
2020/01/31 09:29:31.0	104.530	0.440	-1.240	-1.740
2020/01/31 09:29:31.1	104.500	0.460	-1.270	-1.720
2020/01/31 09:29:31.2	104.480	0.480	-1.290	-1.690
2020/01/31 09:29:31.3	104.460	0.490	-1.300	-1.650
2020/01/31 09:29:31.4	104.450	0.510	-1.310	-1.620
2020/01/31 09:29:31.5	104.430	0.520	-1.320	-1.580
2020/01/31 09:29:31.6	104.420	0.530	-1.310	-1.530
2020/01/31 09:29:31.7	104.410	0.540	-1.300	-1.490
2020/01/31 09:29:31.8	104.410	0.550	-1.290	-1.440
2020/01/31 09:29:31.9	104.400	0.550	-1.270	-1.390
2020/01/31 09:29:32.0	104.400	0.550	-1.240	-1.330
2020/01/31 09:29:32.1	104.410	0.550	-1.200	-1.280
2020/01/31 09:29:32.2	104.410	0.550	-1.150	-1.220
2020/01/31 09:29:32.3	104.420	0.540	-1.110	-1.150
2020/01/31 09:29:32.4	104.430	0.540	-1.050	-1.090
2020/01/31 09:29:32.5	104.440	0.530	-0.990	-1.020
2020/01/31 09:29:32.6	104.450	0.510	-0.920	-0.950
2020/01/31 09:29:32.7	104.470	0.490	-0.840	-0.880
2020/01/31 09:29:32.8	104.480	0.470	-0.770	-0.800
2020/01/31 09:29:32.9	104.500	0.450	-0.680	-0.730
2020/01/31 09:29:33.0	104.520	0.430	-0.590	-0.650
2020/01/31 09:29:33.1	104.540	0.400	-0.500	-0.570
2020/01/31 09:29:33.2	104.560	0.360	-0.410	-0.480
2020/01/31 09:29:33.3	104.580	0.330	-0.310	-0.400
2020/01/31 09:29:33.4	104.600	0.290	-0.210	-0.310
2020/01/31 09:29:33.5	104.620	0.250	-0.110	-0.220
2020/01/31 09:29:33.6	104.640	0.210	-0.010	-0.130
2020/01/31 09:29:33.7	104.670	0.170	0.090	-0.040
2020/01/31 09:29:33.8	104.690	0.120	0.190	0.060
2020/01/31 09:29:33.9	104.710	0.070	0.290	0.150
2020/01/31 09:29:34.0	104.730	0.020	0.390	0.250
2020/01/31 09:29:34.1	104.740	-0.030	0.480	0.350
2020/01/31 09:29:34.2	104.760	-0.080	0.570	0.450
2020/01/31 09:29:34.3	104.770	-0.130	0.660	0.550
2020/01/31 09:29:34.4	104.790	-0.190	0.740	0.650
2020/01/31 09:29:34.5	104.800	-0.240	0.810	0.750
2020/01/31 09:29:34.6	104.810	-0.300	0.880	0.850
2020/01/31 09:29:34.7	104.820	-0.350	0.940	0.950
2020/01/31 09:29:34.8	104.830	-0.400	1.000	1.050
2020/01/31 09:29:34.9	104.840	-0.460	1.050	1.150
2020/01/31 09:29:35.0	104.850	-0.510	1.090	1.250
2020/01/31 09:29:35.1	104.850	-0.560	1.120	1.350
2020/01/31 09:29:35.2	104.850	-0.610	1.150	1.450
2020/01/31 09:29:35.3	104.830	-0.650	1.160	1.540
2020/01/31 09:29:35.4	104.830	-0.700	1.170	1.640
2020/01/31 09:29:35.5	104.820	-0.740	1.170	1.740
2020/01/31 09:29:35.6	104.800	-0.780	1.170	1.840
2020/01/31 09:29:35.7	104.790	-0.810	1.150	1.940
2020/01/31 09:29:35.8	104.770	-0.850	1.130	2.030
2020/01/31 09:29:35.9	104.750	-0.870	1.100	2.130
2020/01/31 09:29:36.0	104.730	-0.900	1.060	2.220
2020/01/31 09:29:36.1	104.700	-0.920	1.020	2.320
2020/01/31 09:29:36.2	104.680	-0.940	0.970	2.400
2020/01/31 09:29:36.3	104.660	-0.950	0.910	2.490
2020/01/31 09:29:36.4	104.630	-0.960	0.850	2.570
2020/01/31 09:29:36.5	104.600	-0.970	0.780	2.650
2020/01/31 09:29:36.6	104.570	-0.970	0.710	2.720
2020/01/31 09:29:36.7	104.540	-0.970	0.640	2.790
2020/01/31 09:29:36.8	104.500	-0.960	0.560	2.850
2020/01/31 09:29:36.9	104.470	-0.950	0.470	2.910
2020/01/31 09:29:37.0	104.440	-0.930	0.390	2.970
2020/01/31 09:29:37.1	104.410	-0.910	0.300	3.010
2020/01/31 09:29:37.2	104.380	-0.890	0.220	3.050
2020/01/31 09:29:37.3	104.350	-0.860	0.130	3.090
2020/01/31 09:29:37.4	104.330	-0.830	0.040	3.120
2020/01/31 09:29:37.5	104.300	-0.800	-0.050	3.140
2020/01/31 09:29:37.6	104.270	-0.760	-0.150	3.160
2020/01/31 09:29:37.7	104.250	-0.720	-0.240	3.180
2020/01/31 09:29:37.8	104.220	-0.680	-0.330	3.190
2020/01/31 09:29:37.9	104.200	-0.640	-0.410	3.190
2020/01/31 09:29:38.0	104.180	-0.590	-0.500	3.180
2020/01/31 09:29:38.1	104.160	-0.540	-0.590	3.180
2020/01/31 09:29:38.2	104.140	-0.490	-0.670	3.160
2020/01/31 09:29:38.3	104.120	-0.440	-0.760	3.140
2020/01/31 09:29:38.4	104.110	-0.380	-0.840	3.120
2020/01/31 09:29:38.5	104.100	-0.320	-0.920	3.090
2020/01/31 09:29:38.6	104.080	-0.270	-0.990	3.060
2020/01/31 09:29:38.7	104.070	-0.210	-1.070	3.020
2020/01/31 09:29:38.8	104.060	-0.150	-1.140	2.980
2020/01/31 09:29:38.9	104.060	-0.090	-1.200	2.930
2020/01/31 09:29:39.0	104.050	-0.040	-1.260	2.880
2020/01/31 09:29:39.1	104.040	0.020	-1.320	2.830
2020/01/31 09:29:39.2	104.040	0.080	-1.380	2.770
2020/01/31 09:29:39.3	104.050	0.140	-1.430	2.700
2020/01/31 09:29:39.4	104.050	0.190	-1.470	2.630
2020/01/31 09:29:39.5	104.050	0.250	-1.510	2.560
2020/01/31 09:29:39.6	104.050	0.300	-1.550	2.490
2020/01/31 09:29:39.7	104.060	0.350	-1.580	2.410
2020/01/31 09:29:39.8	104.060	0.400	-1.600	2.330
2020/01/31 09:29:39.9	104.070	0.450	-1.620	2.240
2020/01/31 09:29:40.0	104.070	0.490	-1.630	2.160
2020/01/31 09:29:40.1	104.080	0.530	-1.630	2.060
2020/01/31 09:29:40.2	104.090	0.570	-1.630	1.970
2020/01/31 09:29:40.3	104.090	0.610	-1.620	1.870
2020/01/31 09:29:40.4	104.100	0.640	-1.600	1.770
2020/01/31 09:29:40.5	104.110	0.670	-1.570	1.670
2020/01/31 09:29:40.6	104.120	0.690	-1.540	1.570
2020/01/31 09:29:40.7	104.130	0.710	-1.490	1.460
2020/01/31 09:29:40.8	104.140	0.730	-1.440	1.360
2020/01/31 09:29:40.9	104.150	0.740	-1.390	1.250
2020/01/31 09:29:41.0	104.160	0.750	-1.320	1.140
2020/01/31 09:29:41.1	104.160	0.750	-1.250	1.030
2020/01/31 09:29:41.2	104.170	0.750	-1.170	0.910
2020/01/31 09:29:41.3	104.170	0.750	-1.080	0.800
2020/01/31 09:29:41.4	104.180	0.740	-0.980	0.680
2020/01/31 09:29:41.5	104.190	0.730	-0.880	0.570
2020/01/31 09:29:41.6	104.200	0.710	-0.780	0.450
2020/01/31 09:29:41.7	104.210	0.690	-0.660	0.340
2020/01/31 09:29:41.8	104.220	0.670	-0.550	0.220
2020/01/31 09:29:41.9	104.220	0.640	-0.430	0.110
2020/01/31 09:29:42.0	104.230	0.610	-0.300	-0.010
2020/01/31 09:29:42.1	104.240	0.570	-0.180	-0.120
2020/01/31 09:29:42.2	104.250	0.540	-0.050	-0.230
2020/01/31 09:29:42.3	104.250	0.500	0.090	-0.340
2020/01/31 09:29:42.4	104.260	0.460	0.210	-0.450
2020/01/31 09:29:42.5	104.270	0.420	0.340	-0.550
2020/01/31 09:29:42.6	104.280	0.370	0.470	-0.650
2020/01/31 09:29:42.7	104.290	0.320	0.590	-0.740
2020/01/31 09:29:42.8	104.300	0.280	0.720	-0.840
2020/01/31 09:29:42.9	104.300	0.230	0.830	-0.920
2020/01/31 09:29:43.0	104.310	0.180	0.950	-1.010
2020/01/31 09:29:43.1	104.320	0.130	1.060	-1.090
2020/01/31 09:29:43.2	104.330	0.090	1.160	-1.160
2020/01/31 09:29:43.3	104.320	0.040	1.250	-1.230
2020/01/31 09:29:43.4	104.330	-0.010	1.340	-1.300
2020/01/31 09:29:43.5	104.330	-0.050	1.420	-1.360
2020/01/31 09:29:43.6	104.340	-0.100	1.490	-1.410
2020/01/31 09:29:43.7	104.340	-0.140	1.550	-1.460
2020/01/31 09:29:43.8	104.350	-0.180	1.600	-1.500
2020/01/31 09:29:43.9	104.350	-0.220	1.650	-1.540
2020/01/31 09:29:44.0	104.350	-0.250	1.680	-1.580
2020/01/31 09:29:44.1	104.350	-0.280	1.700	-1.610
2020/01/31 09:29:44.2	104.350	-0.310	1.710	-1.630
2020/01/31 09:29:44.3	104.330	-0.340	1.700	-1.650
2020/01/31 09:29:44.4	104.330	-0.360	1.680	-1.660
2020/01/31 09:29:44.5	104.330	-0.370	1.660	-1.670
2020/01/31 09:29:44.6	104.330	-0.390	1.620	-1.670
2020/01/31 09:29:44.7	104.320	-0.390	1.560	-1.670
2020/01/31 09:29:44.8	104.320	-0.400	1.500	-1.660
2020/01/31 09:29:44.9	104.310	-0.400	1.420	-1.640
2020/01/31 09:29:45.0	104.310	-0.390	1.330	-1.630
2020/01/31 09:29:45.1	104.300	-0.380	1.230	-1.610
2020/01/31 09:29:45.2	104.290	-0.370	1.120	-1.580
2020/01/31 09:29:45.3	104.270	-0.360	1.000	-1.550
2020/01/31 09:29:45.4	104.270	-0.340	0.870	-1.520
2020/01/31 09:29:45.5	104.260	-0.310	0.730	-1.480
2020/01/31 09:29:45.6	104.250	-0.290	0.590	-1.440
2020/01/31 09:29:45.7	104.240	-0.260	0.440	-1.400
2020/01/31 09:29:45.8	104.240	-0.220	0.290	-1.360
2020/01/31 09:29:45.9	104.230	-0.190	0.130	-1.310
2020/01/31 09:29:46.0	104.220	-0.150	-0.030	-1.260
2020/01/31 09:29:46.1	104.210	-0.120	-0.200	-1.200
2020/01/31 09:29:46.2	104.200	-0.080	-0.360	-1.140
2020/01/31 09:29:46.3	104.200	-0.040	-0.520	-1.070
2020/01/31 09:29:46.4	104.190	0.000	-0.680	-1.010
2020/01/31 09:29:46.5	104.180	0.040	-0.830	-0.940
2020/01/31 09:29:46.6	104.170	0.080	-0.990	-0.860
2020/01/31 09:29:46.7	104.160	0.120	-1.130	-0.780
2020/01/31 09:29:46.8	104.140	0.160	-1.270	-0.700
2020/01/31 09:29:46.9	104.130	0.190	-1.390	-0.610
2020/01/31 09:29:47.0	104.110	0.230	-1.510	-0.520
2020/01/31 09:29:47.1	104.100	0.260	-1.620	-0.420
2020/01/31 09:29:47.2	104.080	0.290	-1.720	-0.320
2020/01/31 09:29:47.3	104.060	0.310	-1.800	-0.220
2020/01/31 09:29:47.4	104.050	0.340	-1.870	-0.110
2020/01/31 09:29:47.5	104.030	0.350	-1.930	-0.010
2020/01/31 09:29:47.6	104.010	0.370	-1.980	0.100
2020/01/31 09:29:47.7	103.990	0.380	-2.010	0.210
2020/01/31 09:29:47.8	103.970	0.390	-2.030	0.320
2020/01/31 09:29:47.9	103.950	0.390	-2.030	0.430
2020/01/31 09:29:48.0	103.930	0.400	-2.020	0.540
2020/01/31 09:29:48.1	103.920	0.390	-2.000	0.650
2020/01/31 09:29:48.2	103.900	0.390	-1.960	0.760
2020/01/31 09:29:48.3	103.890	0.380	-1.910	0.870
2020/01/31 09:29:48.4	103.880	0.360	-1.840	0.970
2020/01/31 09:29:48.5	103.870	0.350	-1.770	1.070
2020/01/31 09:29:48.6	103.860	0.330	-1.690	1.180
2020/01/31 09:29:48.7	103.860	0.310	-1.600	1.280
2020/01/31 09:29:48.8	103.860	0.290	-1.500	1.370
2020/01/31 09:29:48.9	103.850	0.270	-1.400	1.470
2020/01/31 09:29:49.0	103.860	0.240	-1.280	1.560
2020/01/31 09:29:49.1	103.860	0.210	-1.160	1.650
2020/01/31 09:29:49.2	103.860	0.180	-1.040	1.730
2020/01/31 09:29:49.3	103.880	0.150	-0.920	1.810
2020/01/31 09:29:49.4	103.890	0.120	-0.790	1.890
2020/01/31 09:29:49.5	103.900	0.090	-0.660	1.970
2020/01/31 09:29:49.6	103.920	0.060	-0.530	2.040
2020/01/31 09:29:49.7	103.930	0.030	-0.400	2.110
2020/01/31 09:29:49.8	103.940	-0.010	-0.270	2.180
2020/01/31 09:29:49.9	103.960	-0.040	-0.140	2.240
2020/01/31 09:29:50.0	103.970	-0.070	-0.010	2.300
2020/01/31 09:29:50.1	103.990	-0.100	0.110	2.350
2020/01/31 09:29:50.2	104.000	-0.130	0.220	2.410
2020/01/31 09:29:50.3	104.010	-0.160	0.340	2.460
2020/01/31 09:29:50.4	104.030	-0.190	0.450	2.500
2020/01/31 09:29:50.5	104.040	-0.220	0.550	2.540
2020/01/31 09:29:50.6	104.060	-0.250	0.640	2.580
2020/01/31 09:29:50.7	104.070	-0.270	0.730	2.610
2020/01/31 09:29:50.8	104.080	-0.300	0.810	2.640
2020/01/31 09:29:50.9	104.090	-0.320	0.890	2.670
2020/01/31 09:29:51.0	104.110	-0.340	0.960	2.690
2020/01/31 09:29:51.1	104.120	-0.350	1.020	2.700
2020/01/31 09:29:51.2	104.130	-0.370	1.070	2.710
2020/01/31 09:29:51.3	104.140	-0.380	1.100	2.720
2020/01/31 09:29:51.4	104.150	-0.390	1.140	2.720
2020/01/31 09:29:51.5	104.160	-0.400	1.160	2.720
2020/01/31 09:29:51.6	104.170	-0.410	1.180	2.720
2020/01/31 09:29:51.7	104.180	-0.410	1.190	2.710
2020/01/31 09:29:51.8	104.190	-0.410	1.190	2.690
2020/01/31 09:29:51.9	104.190	-0.410	1.180	2.670
2020/01/31 09:29:52.0	104.200	-0.400	1.160	2.650
2020/01/31 09:29:52.1	104.200	-0.390	1.130	2.630
2020/01/31 09:29:52.2	104.210	-0.380	1.090	2.600
2020/01/31 09:29:52.3	104.220	-0.370	1.040	2.560
2020/01/31 09:29:52.4	104.220	-0.360	0.990	2.520
2020/01/31 09:29:52.5	104.230	-0.340	0.930	2.490
2020/01/31 09:29:52.6	104.230	-0.320	0.860	2.450
2020/01/31 09:29:52.7	104.230	-0.300	0.780	2.400
2020/01/31 09:29:52.8	104.230	-0.270	0.700	2.360
2020/01/31 09:29:52.9	104.230	-0.250	0.610	2.310
2020/01/31 09:29:53.0	104.230	-0.220	0.520	2.260
2020/01/31 09:29:53.1	104.230	-0.190	0.420	2.200
2020/01/31 09:29:53.2	104.230	-0.160	0.320	2.150
2020/01/31 09:29:53.3	104.240	-0.130	0.220	2.090
2020/01/31 09:29:53.4	104.240	-0.100	0.110	2.030
2020/01/31 09:29:53.5	104.240	-0.070	0.000	1.960
2020/01/31 09:29:53.6	104.240	-0.040	-0.100	1.900
2020/01/31 09:29:53.7	104.230	-0.010	-0.210	1.830
2020/01/31 09:29:53.8	104.230	0.030	-0.310	1.760
2020/01/31 09:29:53.9	104.230	0.060	-0.420	1.680
2020/01/31 09:29:54.0	104.230	0.090	-0.520	1.610
2020/01/31 09:29:54.1	104.220	0.120	-0.610	1.530
2020/01/31 09:29:54.2	104.220	0.140	-0.700	1.450
2020/01/31 09:29:54.3	104.230	0.170	-0.790	1.370
2020/01/31 09:29:54.4	104.230	0.200	-0.870	1.290
2020/01/31 09:29:54.5	104.230	0.220	-0.950	1.200
2020/01/31 09:29:54.6	104.230	0.240	-1.010	1.120
2020/01/31 09:29:54.7	104.230	0.260	-1.070	1.030
2020/01/31 09:29:54.8	104.230	0.280	-1.120	0.950
2020/01/31 09:29:54.9	104.230	0.290	-1.170	0.860
2020/01/31 09:29:55.0	104.240	0.310	-1.200	0.780
2020/01/31 09:29:55.1	104.240	0.320	-1.230	0.690
2020/01/31 09:29:55.2	104.240	0.320	-1.250	0.610
2020/01/31 09:29:55.3	104.240	0.330	-1.260	0.520
2020/01/31 09:29:55.4	104.240	0.330	-1.270	0.440
2020/01/31 09:29:55.5	104.240	0.330	-1.260	0.370
2020/01/31 09:29:55.6	104.230	0.330	-1.250	0.290
2020/01/31 09:29:55.7	104.230	0.330	-1.220	0.220
2020/01/31 09:29:55.8	104.230	0.320	-1.190	0.150
2020/01/31 09:29:55.9	104.230	0.310	-1.160	0.080
2020/01/31 09:29:56.0	104.220	0.300	-1.110	0.010
2020/01/31 09:29:56.1	104.210	0.290	-1.060	-0.050
2020/01/31 09:29:56.2	104.210	0.270	-1.000	-0.110
2020/01/31 09:29:56.3	104.200	0.250	-0.940	-0.170
2020/01/31 09:29:56.4	104.190	0.230	-0.870	-0.220
2020/01/31 09:29:56.5	104.180	0.210	-0.790	-0.280
2020/01/31 09:29:56.6	104.170	0.190	-0.720	-0.320
2020/01/31 09:29:56.7	104.160	0.170	-0.630	-0.370
2020/01/31 09:29:56.8	104.150	0.140	-0.550	-0.420
2020/01/31 09:29:56.9	104.140	0.110	-0.460	-0.460
2020/01/31 09:29:57.0	104.130	0.090	-0.370	-0.490
2020/01/31 09:29:57.1	104.110	0.060	-0.280	-0.530
2020/01/31 09:29:57.2	104.100	0.030	-0.190	-0.560
2020/01/31 09:29:57.3	104.090	-0.000	-0.100	-0.590
2020/01/31 09:29:57.4	104.070	-0.030	-0.010	-0.620
2020/01/31 09:29:57.5	104.060	-0.060	0.080	-0.640
2020/01/31 09:29:57.6	104.050	-0.090	0.160	-0.660
2020/01/31 09:29:57.7	104.040	-0.120	0.240	-0.680
2020/01/31 09:29:57.8	104.030	-0.150	0.310	-0.690
2020/01/31 09:29:57.9	104.020	-0.170	0.380	-0.700
2020/01/31 09:29:58.0	104.010	-0.200	0.450	-0.710
2020/01/31 09:29:58.1	104.010	-0.230	0.500	-0.720
2020/01/31 09:29:58.2	104.000	-0.250	0.560	-0.720
2020/01/31 09:29:58.3	103.990	-0.270	0.600	-0.730
2020/01/31 09:29:58.4	103.990	-0.290	0.640	-0.730
2020/01/31 09:29:58.5	103.990	-0.310	0.670	-0.730
2020/01/31 09:29:58.6	103.990	-0.330	0.690	-0.720
2020/01/31 09:29:58.7	103.990	-0.340	0.710	-0.720
2020/01/31 09:29:58.8	103.990	-0.350	0.720	-0.710
2020/01/31 09:29:58.9	103.990	-0.360	0.720	-0.710
2020/01/31 09:29:59.0	103.990	-0.370	0.720	-0.700
2020/01/31 09:29:59.1	104.000	-0.370	0.710	-0.690
2020/01/31 09:29:59.2	104.000	-0.370	0.690	-0.680
2020/01/31 09:29:59.3	104.000	-0.370	0.670	-0.670
2020/01/31 09:29:59.4	104.000	-0.360	0.640	-0.650
2020/01/31 09:29:59.5	104.000	-0.360	0.600	-0.640
2020/01/31 09:29:59.6	104.010	-0.350	0.560	-0.620
2020/01/31 09:29:59.7	104.010	-0.330	0.520	-0.600
2020/01/31 09:29:59.8	104.010	-0.320	0.470	-0.580
2020/01/31 09:29:59.9	104.020	-0.300	0.420	-0.560
2020/01/31 09:30:00.0	104.020	-0.280	0.360	-0.540
2020/01/31 09:30:00.1	104.020	-0.260	0.300	-0.520
2020/01/31 09:30:00.2	104.020	-0.240	0.240	-0.490
2020/01/31 09:30:00.3	104.020	-0.210	0.190	-0.460
2020/01/31 09:30:00.4	104.020	-0.190	0.130	-0.440
2020/01/31 09:30:00.5	104.020	-0.160	0.060	-0.410
2020/01/31 09:30:00.6	104.030	-0.130	0.000	-0.380
2020/01/31 09:30:00.7	104.030	-0.100	-0.060	-0.350
2020/01/31 09:30:00.8	104.030	-0.070	-0.120	-0.320
2020/01/31 09:30:00.9	104.030	-0.040	-0.170	-0.280
2020/01/31 09:30:01.0	104.030	-0.010	-0.230	-0.250
2020/01/31 09:30:01.1	104.030	0.020	-0.280	-0.210
2020/01/31 09:30:01.2	104.040	0.050	-0.330	-0.170
2020/01/31 09:30:01.3	104.030	0.080	-0.380	-0.130
2020/01/31 09:30:01.4	104.030	0.110	-0.420	-0.090
2020/01/31 09:30:01.5	104.040	0.130	-0.460	-0.050
2020/01/31 09:30:01.6	104.050	0.160	-0.500	-0.000
2020/01/31 09:30:01.7	104.050	0.190	-0.530	0.040
2020/01/31 09:30:01.8	104.060	0.210	-0.560	0.090
2020/01/31 09:30:01.9	104.070	0.230	-0.590	0.140
2020/01/31 09:30:02.0	104.080	0.260	-0.610	0.190
2020/01/31 09:30:02.1	104.090	0.280	-0.630	0.240
2020/01/31 09:30:02.2	104.090	0.290	-0.650	0.290
2020/01/31 09:30:02.3	104.110	0.310	-0.660	0.350
2020/01/31 09:30:02.4	104.110	0.330	-0.670	0.400
2020/01/31 09:30:02.5	104.120	0.340	-0.680	0.460
2020/01/31 09:30:02.6	104.120	0.360	-0.680	0.530
2020/01/31 09:30:02.7	104.130	0.370	-0.680	0.590
2020/01/31 09:30:02.8	104.130	0.380	-0.680	0.660
2020/01/31 09:30:02.9	104.130	0.390	-0.680	0.730
2020/01/31 09:30:03.0	104.130	0.390	-0.680	0.800
2020/01/31 09:30:03.1	104.120	0.400	-0.670	0.870
2020/01/31 09:30:03.2	104.120	0.400	-0.660	0.940
2020/01/31 09:30:03.3	104.120	0.410	-0.650	1.020
2020/01/31 09:30:03.4	104.100	0.410	-0.640	1.090
2020/01/31 09:30:03.5	104.090	0.410	-0.620	1.160
2020/01/31 09:30:03.6	104.080	0.410	-0.610	1.240
2020/01/31 09:30:03.7	104.060	0.400	-0.590	1.310
2020/01/31 09:30:03.8	104.040	0.400	-0.570	1.380
2020/01/31 09:30:03.9	104.020	0.390	-0.550	1.450
2020/01/31 09:30:04.0	104.000	0.390	-0.530	1.520
2020/01/31 09:30:04.1	103.980	0.380	-0.510	1.590
2020/01/31 09:30:04.2	103.950	0.370	-0.480	1.650
2020/01/31 09:30:04.3	103.930	0.350	-0.460	1.710
2020/01/31 09:30:04.4	103.910	0.340	-0.430	1.760
2020/01/31 09:30:04.5	103.880	0.320	-0.400	1.820
2020/01/31 09:30:04.6	103.860	0.310	-0.370	1.870
2020/01/31 09:30:04.7	103.830	0.290	-0.340	1.910
2020/01/31 09:30:04.8	103.810	0.270	-0.310	1.950
2020/01/31 09:30:04.9	103.790	0.250	-0.280	1.990
2020/01/31 09:30:05.0	103.770	0.230	-0.250	2.020
2020/01/31 09:30:05.1	103.740	0.210	-0.210	2.050
2020/01/31 09:30:05.2	103.720	0.190	-0.180	2.070
2020/01/31 09:30:05.3	103.720	0.170	-0.150	2.080
2020/01/31 09:30:05.4	103.700	0.140	-0.120	2.100
2020/01/31 09:30:05.5	103.680	0.120	-0.090	2.110
2020/01/31 09:30:05.6	103.660	0.100	-0.060	2.120
2020/01/31 09:30:05.7	103.640	0.070	-0.030	2.120
2020/01/31 09:30:05.8	103.630	0.050	-0.010	2.130
2020/01/31 09:30:05.9	103.610	0.030	0.020	2.120
2020/01/31 09:30:06.0	103.590	0.010	0.040	2.120
2020/01/31 09:30:06.1	103.580	-0.020	0.060	2.110
2020/01/31 09:30:06.2	103.570	-0.040	0.080	2.100
2020/01/31 09:30:06.3	103.560	-0.060	0.100	2.080
2020/01/31 09:30:06.4	103.550	-0.080	0.110	2.070
2020/01/31 09:30:06.5	103.540	-0.100	0.120	2.050
2020/01/31 09:30:06.6	103.530	-0.110	0.130	2.020
2020/01/31 09:30:06.7	103.520	-0.130	0.140	2.000
2020/01/31 09:30:06.8	103.520	-0.140	0.140	1.970
2020/01/31 09:30:06.9	103.520	-0.160	0.150	1.940
2020/01/31 09:30:07.0	103.520	-0.170	0.150	1.900
2020/01/31 09:30:07.1	103.520	-0.180	0.140	1.860
2020/01/31 09:30:07.2	103.520	-0.190	0.140	1.830
2020/01/31 09:30:07.3	103.540	-0.200	0.130	1.790
2020/01/31 09:30:07.4	103.540	-0.210	0.130	1.740
2020/01/31 09:30:07.5	103.550	-0.220	0.120	1.700
2020/01/31 09:30:07.6	103.560	-0.230	0.110	1.660
2020/01/31 09:30:07.7	103.560	-0.240	0.100	1.610
2020/01/31 09:30:07.8	103.570	-0.240	0.080	1.570
2020/01/31 09:30:07.9	103.580	-0.250	0.070	1.520
2020/01/31 09:30:08.0	103.590	-0.250	0.060	1.480
2020/01/31 09:30:08.1	103.600	-0.260	0.050	1.430
2020/01/31 09:30:08.2	103.610	-0.260	0.040	1.380
2020/01/31 09:30:08.3	103.640	-0.260	0.020	1.340
2020/01/31 09:30:08.4	103.650	-0.270	0.010	1.290
2020/01/31 09:30:08.5	103.660	-0.270	0.000	1.240
2020/01/31 09:30:08.6	103.670	-0.280	-0.010	1.190
2020/01/31 09:30:08.7	103.690	-0.280	-0.010	1.140
2020/01/31 09:30:08.8	103.700	-0.280	-0.020	1.090
2020/01/31 09:30:08.9	103.710	-0.290	-0.020	1.040
2020/01/31 09:30:09.0	103.730	-0.290	-0.030	0.980
2020/01/31 09:30:09.1	103.740	-0.300	-0.030	0.930
2020/01/31 09:30:09.2	103.750	-0.300	-0.030	0.870
2020/01/31 09:30:09.3	103.770	-0.300	-0.020	0.810
2020/01/31 09:30:09.4	103.780	-0.310	-0.020	0.750
2020/01/31 09:30:09.5	103.790	-0.310	-0.010	0.690
2020/01/31 09:30:09.6	103.810	-0.310	-0.010	0.620
2020/01/31 09:30:09.7	103.820	-0.320	-0.000	0.560
2020/01/31 09:30:09.8	103.830	-0.320	0.000	0.490
2020/01/31 09:30:09.9	103.840	-0.320	0.010	0.420
2020/01/31 09:30:10.0	103.850	-0.320	0.020	0.360
2020/01/31 09:30:10.1	103.860	-0.320	0.020	0.290
2020/01/31 09:30:10.2	103.870	-0.320	0.030	0.220
2020/01/31 09:30:10.3	103.850	-0.320	0.030	0.150
2020/01/31 09:30:10.4	103.850	-0.310	0.040	0.080
2020/01/31 09:30:10.5	103.860	-0.310	0.040	0.010
2020/01/31 09:30:10.6	103.850	-0.300	0.040	-0.050
2020/01/31 09:30:10.7	103.850	-0.290	0.040	-0.120
2020/01/31 09:30:10.8	103.840	-0.280	0.030	-0.180
2020/01/31 09:30:10.9	103.840	-0.270	0.020	-0.240
2020/01/31 09:30:11.0	103.820	-0.260	0.020	-0.300
2020/01/31 09:30:11.1	103.810	-0.240	0.000	-0.350
2020/01/31 09:30:11.2	103.800	-0.220	-0.010	-0.400
2020/01/31 09:30:11.3	103.760	-0.210	-0.030	-0.460
2020/01/31 09:30:11.4	103.750	-0.190	-0.050	-0.500
2020/01/31 09:30:11.5	103.730	-0.160	-0.070	-0.550
2020/01/31 09:30:11.6	103.700	-0.140	-0.090	-0.590
2020/01/31 09:30:11.7	103.680	-0.120	-0.120	-0.620
2020/01/31 09:30:11.8	103.660	-0.090	-0.150	-0.660
2020/01/31 09:30:11.9	103.630	-0.070	-0.180	-0.690
2020/01/31 09:30:12.0	103.610	-0.040	-0.210	-0.720
2020/01/31 09:30:12.1	103.580	-0.010	-0.240	-0.740
2020/01/31 09:30:12.2	103.560	0.010	-0.270	-0.770
2020/01/31 09:30:12.3	103.520	0.040	-0.310	-0.780
2020/01/31 09:30:12.4	103.500	0.070	-0.340	-0.800
2020/01/31 09:30:12.5	103.470	0.090	-0.370	-0.810
2020/01/31 09:30:12.6	103.450	0.120	-0.410	-0.820
2020/01/31 09:30:12.7	103.420	0.140	-0.450	-0.830
2020/01/31 09:30:12.8	103.400	0.170	-0.480	-0.830
2020/01/31 09:30:12.9	103.380	0.190	-0.520	-0.830
2020/01/31 09:30:13.0	103.350	0.220	-0.550	-0.830
2020/01/31 09:30:13.1	103.330	0.240	-0.580	-0.820
2020/01/31 09:30:13.2	103.310	0.260	-0.620	-0.810
2020/01/31 09:30:13.3	103.260	0.280	-0.650	-0.800
2020/01/31 09:30:13.4	103.240	0.300	-0.680	-0.790
2020/01/31 09:30:13.5	103.230	0.320	-0.710	-0.770
2020/01/31 09:30:13.6	103.210	0.330	-0.740	-0.750
2020/01/31 09:30:13.7	103.190	0.350	-0.770	-0.730
2020/01/31 09:30:13.8	103.180	0.360	-0.790	-0.700
2020/01/31 09:30:13.9	103.160	0.370	-0.810	-0.680
2020/01/31 09:30:14.0	103.150	0.390	-0.830	-0.650
2020/01/31 09:30:14.1	103.140	0.390	-0.850	-0.630
2020/01/31 09:30:14.2	103.130	0.400	-0.860	-0.600
2020/01/31 09:30:14.3	103.130	0.410	-0.870	-0.570
2020/01/31 09:30:14.4	103.120	0.410	-0.870	-0.540
2020/01/31 09:30:14.5	103.120	0.410	-0.870	-0.520
2020/01/31 09:30:14.6	103.120	0.410	-0.870	-0.490
2020/01/31 09:30:14.7	103.130	0.410	-0.860	-0.470
2020/01/31 09:30:14.8	103.130	0.400	-0.840	-0.440
2020/01/31 09:30:14.9	103.140	0.400	-0.820	-0.420
2020/01/31 09:30:15.0	103.150	0.390	-0.800	-0.400
2020/01/31 09:30:15.1	103.160	0.380	-0.770	-0.370
2020/01/31 09:30:15.2	103.180	0.370	-0.730	-0.350
2020/01/31 09:30:15.3	103.190	0.350	-0.690	-0.320
2020/01/31 09:30:15.4	103.210	0.340	-0.650	-0.300
2020/01/31 09:30:15.5	103.230	0.320	-0.600	-0.270
2020/01/31 09:30:15.6	103.250	0.300	-0.540	-0.250
2020/01/31 09:30:15.7	103.270	0.270	-0.480	-0.220
2020/01/31 09:30:15.8	103.290	0.250	-0.410	-0.190
2020/01/31 09:30:15.9	103.310	0.220	-0.340	-0.160
2020/01/31 09:30:16.0	103.340	0.200	-0.260	-0.120
2020/01/31 09:30:16.1	103.360	0.170	-0.190	-0.090
2020/01/31 09:30:16.2	103.380	0.140	-0.100	-0.050
2020/01/31 09:30:16.3	103.420	0.100	-0.020	-0.010
2020/01/31 09:30:16.4	103.450	0.070	0.070	0.040
2020/01/31 09:30:16.5	103.470	0.040	0.150	0.080
2020/01/31 09:30:16.6	103.500	0.000	0.240	0.130
2020/01/31 09:30:16.7	103.520	-0.030	0.320	0.180
2020/01/31 09:30:16.8	103.540	-0.060	0.410	0.230
2020/01/31 09:30:16.9	103.570	-0.100	0.490	0.280
2020/01/31 09:30:17.0	103.590	-0.130	0.570	0.340
2020/01/31 09:30:17.1	103.610	-0.170	0.650	0.390
2020/01/31 09:30:17.2	103.630	-0.200	0.720	0.450
2020/01/31 09:30:17.3	103.660	-0.230	0.790	0.520
2020/01/31 09:30:17.4	103.670	-0.260	0.860	0.580
2020/01/31 09:30:17.5	103.690	-0.290	0.910	0.640
2020/01/31 09:30:17.6	103.700	-0.310	0.960	0.710
2020/01/31 09:30:17.7	103.720	-0.340	1.010	0.770
2020/01/31 09:30:17.8	103.730	-0.360	1.040	0.840
2020/01/31 09:30:17.9	103.740	-0.380	1.070	0.910
2020/01/31 09:30:18.0	103.750	-0.390	1.090	0.970
2020/01/31 09:30:18.1	103.750	-0.410	1.100	1.040
2020/01/31 09:30:18.2	103.760	-0.420	1.100	1.110
2020/01/31 09:30:18.3	103.770	-0.420	1.080	1.170
2020/01/31 09:30:18.4	103.780	-0.430	1.060	1.230
2020/01/31 09:30:18.5	103.780	-0.430	1.030	1.300
2020/01/31 09:30:18.6	103.780	-0.420	0.990	1.360
2020/01/31 09:30:18.7	103.780	-0.410	0.940	1.420
2020/01/31 09:30:18.8	103.780	-0.400	0.880	1.480
2020/01/31 09:30:18.9	103.780	-0.380	0.810	1.530
2020/01/31 09:30:19.0	103.770	-0.370	0.730	1.580
2020/01/31 09:30:19.1	103.770	-0.340	0.640	1.640
2020/01/31 09:30:19.2	103.770	-0.320	0.550	1.680
2020/01/31 09:30:19.3	103.770	-0.290	0.450	1.730
2020/01/31 09:30:19.4	103.770	-0.260	0.340	1.770
2020/01/31 09:30:19.5	103.760	-0.220	0.230	1.810
2020/01/31 09:30:19.6	103.750	-0.180	0.120	1.850
2020/01/31 09:30:19.7	103.750	-0.150	0.000	1.890
2020/01/31 09:30:19.8	103.740	-0.110	-0.120	1.920
2020/01/31 09:30:19.9	103.730	-0.060	-0.230	1.950
2020/01/31 09:30:20.0	103.720	-0.020	-0.350	1.980
2020/01/31 09:30:20.1	103.710	0.020	-0.470	2.000
2020/01/31 09:30:20.2	103.700	0.070	-0.580	2.020
2020/01/31 09:30:20.3	103.690	0.110	-0.700	2.040
2020/01/31 09:30:20.4	103.680	0.150	-0.800	2.060
2020/01/31 09:30:20.5	103.670	0.190	-0.900	2.080
2020/01/31 09:30:20.6	103.660	0.230	-1.000	2.090
2020/01/31 09:30:20.7	103.650	0.270	-1.080	2.100
2020/01/31 09:30:20.8	103.640	0.310	-1.160	2.110
2020/01/31 09:30:20.9	103.630	0.340	-1.230	2.120
2020/01/31 09:30:21.0	103.620	0.370	-1.300	2.120
2020/01/31 09:30:21.1	103.610	0.400	-1.350	2.120
2020/01/31 09:30:21.2	103.600	0.430	-1.390	2.120
2020/01/31 09:30:21.3	103.600	0.450	-1.430	2.110
2020/01/31 09:30:21.4	103.590	0.470	-1.450	2.110
2020/01/31 09:30:21.5	103.580	0.480	-1.460	2.100
2020/01/31 09:30:21.6	103.570	0.500	-1.470	2.090
2020/01/31 09:30:21.7	103.560	0.500	-1.460	2.080
2020/01/31 09:30:21.8	103.560	0.510	-1.450	2.060
2020/01/31 09:30:21.9	103.550	0.510	-1.430	2.040
2020/01/31 09:30:22.0	103.540	0.510	-1.390	2.020
2020/01/31 09:30:22.1	103.540	0.500	-1.350	2.000
2020/01/31 09:30:22.2	103.530	0.500	-1.310	1.970
2020/01/31 09:30:22.3	103.540	0.480	-1.250	1.940
2020/01/31 09:30:22.4	103.540	0.470	-1.190	1.910
2020/01/31 09:30:22.5	103.540	0.450	-1.130	1.880
2020/01/31 09:30:22.6	103.540	0.430	-1.050	1.840
2020/01/31 09:30:22.7	103.540	0.410	-0.980	1.800
2020/01/31 09:30:22.8	103.540	0.380	-0.900	1.760
2020/01/31 09:30:22.9	103.550	0.350	-0.820	1.710
2020/01/31 09:30:23.0	103.550	0.320	-0.730	1.670
2020/01/31 09:30:23.1	103.560	0.290	-0.640	1.620
2020/01/31 09:30:23.2	103.570	0.260	-0.550	1.560
2020/01/31 09:30:23.3	103.570	0.220	-0.460	1.500
2020/01/31 09:30:23.4	103.580	0.190	-0.370	1.450
2020/01/31 09:30:23.5	103.590	0.150	-0.280	1.390
2020/01/31 09:30:23.6	103.610	0.110	-0.190	1.330
2020/01/31 09:30:23.7	103.630	0.070	-0.100	1.270
2020/01/31 09:30:23.8	103.650	0.030	-0.010	1.200
2020/01/31 09:30:23.9	103.670	-0.000	0.080	1.140
2020/01/31 09:30:24.0	103.690	-0.040	0.160	1.080
2020/01/31 09:30:24.1	103.710	-0.080	0.240	1.010
2020/01/31 09:30:24.2	103.730	-0.120	0.320	0.950
2020/01/31 09:30:24.3	103.750	-0.160	0.380	0.880
2020/01/31 09:30:24.4	103.770	-0.200	0.450	0.820
2020/01/31 09:30:24.5	103.800	-0.230	0.520	0.750
2020/01/31 09:30:24.6	103.820	-0.270	0.580	0.690
2020/01/31 09:30:24.7	103.840	-0.310	0.630	0.630
2020/01/31 09:30:24.8	103.860	-0.340	0.680	0.570
2020/01/31 09:30:24.9	103.880	-0.370	0.720	0.510
2020/01/31 09:30:25.0	103.900	-0.400	0.760	0.450
2020/01/31 09:30:25.1	103.910	-0.430	0.790	0.390
2020/01/31 09:30:25.2	103.930	-0.460	0.810	0.330
2020/01/31 09:30:25.3	103.930	-0.480	0.830	0.280
2020/01/31 09:30:25.4	103.950	-0.510	0.840	0.220
2020/01/31 09:30:25.5	103.960	-0.530	0.850	0.170
2020/01/31 09:30:25.6	103.980	-0.550	0.850	0.120
2020/01/31 09:30:25.7	103.990	-0.570	0.850	0.070
2020/01/31 09:30:25.8	104.000	-0.580	0.840	0.020
2020/01/31 09:30:25.9	104.000	-0.600	0.820	-0.030
2020/01/31 09:30:26.0	104.010	-0.610	0.800	-0.080
2020/01/31 09:30:26.1	104.020	-0.610	0.780	-0.120
2020/01/31 09:30:26.2	104.020	-0.620	0.750	-0.160
2020/01/31 09:30:26.3	104.010	-0.620	0.710	-0.200
2020/01/31 09:30:26.4	104.010	-0.620	0.670	-0.240
2020/01/31 09:30:26.5	104.010	-0.620	0.620	-0.270
2020/01/31 09:30:26.6	104.000	-0.610	0.580	-0.310
2020/01/31 09:30:26.7	104.000	-0.600	0.520	-0.340
2020/01/31 09:30:26.8	103.990	-0.590	0.460	-0.370
2020/01/31 09:30:26.9	103.980	-0.580	0.400	-0.390
2020/01/31 09:30:27.0	103.970	-0.560	0.340	-0.420
2020/01/31 09:30:27.1	103.960	-0.540	0.270	-0.440
2020/01/31 09:30:27.2	103.950	-0.520	0.200	-0.460
2020/01/31 09:30:27.3	103.930	-0.500	0.130	-0.470
2020/01/31 09:30:27.4	103.920	-0.470	0.060	-0.490
2020/01/31 09:30:27.5	103.910	-0.440	-0.010	-0.500
2020/01/31 09:30:27.6	103.890	-0.410	-0.090	-0.510
2020/01/31 09:30:27.7	103.880	-0.380	-0.160	-0.510
2020/01/31 09:30:27.8	103.870	-0.340	-0.230	-0.520
2020/01/31 09:30:27.9	103.860	-0.300	-0.310	-0.520
2020/01/31 09:30:28.0	103.840	-0.270	-0.380	-0.520
2020/01/31 09:30:28.1	103.830	-0.230	-0.450	-0.520
2020/01/31 09:30:28.2	103.820	-0.190	-0.510	-0.520
2020/01/31 09:30:28.3	103.800	-0.140	-0.570	-0.510
2020/01/31 09:30:28.4	103.790	-0.100	-0.630	-0.510
2020/01/31 09:30:28.5	103.780	-0.060	-0.690	-0.500
2020/01/31 09:30:28.6	103.770	-0.020	-0.740	-0.490
2020/01/31 09:30:28.7	103.770	0.030	-0.790	-0.480
2020/01/31 09:30:28.8	103.760	0.070	-0.830	-0.470
2020/01/31 09:30:28.9	103.760	0.110	-0.870	-0.460
2020/01/31 09:30:29.0	103.760	0.150	-0.900	-0.440
2020/01/31 09:30:29.1	103.760	0.190	-0.930	-0.430
2020/01/31 09:30:29.2	103.760	0.230	-0.950	-0.410
2020/01/31 09:30:29.3	103.750	0.270	-0.970	-0.400
2020/01/31 09:30:29.4	103.750	0.300	-0.980	-0.380
2020/01/31 09:30:29.5	103.750	0.340	-0.990	-0.360
2020/01/31 09:30:29.6	103.760	0.370	-0.990	-0.340
2020/01/31 09:30:29.7	103.760	0.400	-0.990	-0.320
2020/01/31 09:30:29.8	103.770	0.430	-0.980	-0.300
2020/01/31 09:30:29.9	103.780	0.450	-0.970	-0.270
2020/01/31 09:30:30.0	103.790	0.480	-0.950	-0.250
2020/01/31 09:30:30.1	103.800	0.500	-0.930	-0.220
2020/01/31 09:30:30.2	103.810	0.520	-0.910	-0.200
2020/01/31 09:30:30.3	103.820	0.530	-0.880	-0.170
2020/01/31 09:30:30.4	103.830	0.550	-0.850	-0.140
2020/01/31 09:30:30.5	103.840	0.560	-0.820	-0.110
2020/01/31 09:30:30.6	103.850	0.570	-0.780	-0.080
2020/01/31 09:30:30.7	103.870	0.580	-0.750	-0.050
2020/01/31 09:30:30.8	103.880	0.590	-0.710	-0.020
2020/01/31 09:30:30.9	103.890	0.590	-0.670	0.020
2020/01/31 09:30:31.0	103.910	0.590	-0.630	0.050
2020/01/31 09:30:31.1	103.920	0.600	-0.590	0.090
2020/01/31 09:30:31.2	103.940	0.590	-0.550	0.120
2020/01/31 09:30:31.3	103.950	0.590	-0.510	0.160
2020/01/31 09:30:31.4	103.970	0.580	-0.470	0.200
2020/01/31 09:30:31.5	103.980	0.580	-0.420	0.240
2020/01/31 09:30:31.6	104.000	0.570	-0.380	0.280
2020/01/31 09:30:31.7	104.010	0.560	-0.340	0.320
2020/01/31 09:30:31.8	104.030	0.540	-0.300	0.360
2020/01/31 09:30:31.9	104.040	0.530	-0.260	0.410
2020/01/31 09:30:32.0	104.060	0.510	-0.220	0.450
2020/01/31 09:30:32.1	104.070	0.500	-0.180	0.490
2020/01/31 09:30:32.2	104.090	0.480	-0.140	0.540
2020/01/31 09:30:32.3	104.090	0.450	-0.100	0.580
2020/01/31 09:30:32.4	104.100	0.430	-0.060	0.630
2020/01/31 09:30:32.5	104.120	0.410	-0.020	0.670
2020/01/31 09:30:32.6	104.130	0.380	0.020	0.720
2020/01/31 09:30:32.7	104.140	0.350	0.060	0.770
2020/01/31 09:30:32.8	104.160	0.320	0.100	0.810
2020/01/31 09:30:32.9	104.170	0.290	0.140	0.860
2020/01/31 09:30:33.0	104.180	0.260	0.190	0.910
2020/01/31 09:30:33.1	104.190	0.230	0.220	0.950
2020/01/31 09:30:33.2	104.200	0.190	0.270	1.000
2020/01/31 09:30:33.3	104.210	0.160	0.300	1.050
2020/01/31 09:30:33.4	104.220	0.120	0.340	1.090
2020/01/31 09:30:33.5	104.220	0.080	0.380	1.140
2020/01/31 09:30:33.6	104.230	0.040	0.420	1.180
2020/01/31 09:30:33.7	104.230	0.010	0.450	1.230
2020/01/31 09:30:33.8	104.230	-0.030	0.490	1.270
2020/01/31 09:30:33.9	104.230	-0.070	0.520	1.320
2020/01/31 09:30:34.0	104.230	-0.110	0.550	1.360
2020/01/31 09:30:34.1	104.230	-0.150	0.580	1.410
2020/01/31 09:30:34.2	104.220	-0.180	0.610	1.450
2020/01/31 09:30:34.3	104.220	-0.220	0.630	1.500
2020/01/31 09:30:34.4	104.210	-0.260	0.650	1.540
2020/01/31 09:30:34.5	104.190	-0.290	0.670	1.580
2020/01/31 09:30:34.6	104.180	-0.320	0.690	1.630
2020/01/31 09:30:34.7	104.160	-0.360	0.700	1.670
2020/01/31 09:30:34.8	104.150	-0.390	0.710	1.710
2020/01/31 09:30:34.9	104.130	-0.410	0.720	1.750
2020/01/31 09:30:35.0	104.110	-0.440	0.720	1.790
2020/01/31 09:30:35.1	104.090	-0.470	0.710	1.830
2020/01/31 09:30:35.2	104.070	-0.490	0.710	1.860
2020/01/31 09:30:35.3	104.040	-0.510	0.700	1.900
2020/01/31 09:30:35.4	104.020	-0.520	0.680	1.930
2020/01/31 09:30:35.5	104.000	-0.540	0.660	1.960
2020/01/31 09:30:35.6	103.990	-0.550	0.640	1.980
2020/01/31 09:30:35.7	103.970	-0.560	0.610	2.000
2020/01/31 09:30:35.8	103.950	-0.560	0.580	2.020
2020/01/31 09:30:35.9	103.940	-0.570	0.540	2.030
2020/01/31 09:30:36.0	103.920	-0.570	0.500	2.040
2020/01/31 09:30:36.1	103.910	-0.560	0.460	2.050
2020/01/31 09:30:36.2	103.900	-0.560	0.410	2.050
2020/01/31 09:30:36.3	103.930	-0.550	0.350	2.050
2020/01/31 09:30:36.4	103.930	-0.540	0.300	2.040
2020/01/31 09:30:36.5	103.920	-0.520	0.240	2.030
2020/01/31 09:30:36.6	103.920	-0.510	0.170	2.010
2020/01/31 09:30:36.7	103.920	-0.480	0.100	1.990
2020/01/31 09:30:36.8	103.920	-0.460	0.030	1.960
2020/01/31 09:30:36.9	103.920	-0.440	-0.050	1.940
2020/01/31 09:30:37.0	103.920	-0.410	-0.120	1.900
2020/01/31 09:30:37.1	103.920	-0.380	-0.200	1.860
2020/01/31 09:30:37.2	103.930	-0.350	-0.280	1.820
2020/01/31 09:30:37.3	103.940	-0.310	-0.370	1.780
2020/01/31 09:30:37.4	103.950	-0.280	-0.450	1.730
2020/01/31 09:30:37.5	103.950	-0.240	-0.540	1.670
2020/01/31 09:30:37.6	103.960	-0.200	-0.620	1.620
2020/01/31 09:30:37.7	103.970	-0.160	-0.710	1.560
2020/01/31 09:30:37.8	103.980	-0.120	-0.800	1.500
2020/01/31 09:30:37.9	103.990	-0.080	-0.880	1.440
2020/01/31 09:30:38.0	104.000	-0.040	-0.960	1.380
2020/01/31 09:30:38.1	104.020	-0.000	-1.040	1.310
2020/01/31 09:30:38.2	104.030	0.040	-1.110	1.250
2020/01/31 09:30:38.3	104.050	0.080	-1.190	1.180
2020/01/31 09:30:38.4	104.060	0.120	-1.260	1.120
2020/01/31 09:30:38.5	104.080	0.150	-1.320	1.050
2020/01/31 09:30:38.6	104.090	0.190	-1.380	0.990
2020/01/31 09:30:38.7	104.110	0.230	-1.430	0.930
2020/01/31 09:30:38.8	104.120	0.260	-1.470	0.860
2020/01/31 09:30:38.9	104.130	0.290	-1.510	0.800
2020/01/31 09:30:39.0	104.150	0.320	-1.550	0.750
2020/01/31 09:30:39.1	104.160	0.350	-1.570	0.690
2020/01/31 09:30:39.2	104.170	0.370	-1.590	0.640
2020/01/31 09:30:39.3	104.190	0.390	-1.600	0.590
2020/01/31 09:30:39.4	104.200	0.410	-1.600	0.540
2020/01/31 09:30:39.5	104.210	0.430	-1.590	0.490
2020/01/31 09:30:39.6	104.220	0.450	-1.570	0.440
2020/01/31 09:30:39.7	104.230	0.460	-1.550	0.400
2020/01/31 09:30:39.8	104.240	0.460	-1.510	0.360
2020/01/31 09:30:39.9	104.250	0.470	-1.470	0.320
2020/01/31 09:30:40.0	104.260	0.470	-1.420	0.280
2020/01/31 09:30:40.1	104.260	0.470	-1.360	0.240
2020/01/31 09:30:40.2	104.270	0.470	-1.300	0.210
2020/01/31 09:30:40.3	104.280	0.460	-1.230	0.180
2020/01/31 09:30:40.4	104.280	0.450	-1.150	0.150
2020/01/31 09:30:40.5	104.280	0.440	-1.070	0.120
2020/01/31 09:30:40.6	104.290	0.420	-0.980	0.090
2020/01/31 09:30:40.7	104.290	0.400	-0.880	0.070
2020/01/31 09:30:40.8	104.290	0.380	-0.780	0.040
2020/01/31 09:30:40.9	104.290	0.350	-0.680	0.020
2020/01/31 09:30:41.0	104.290	0.330	-0.570	0.000
2020/01/31 09:30:41.1	104.290	0.300	-0.460	-0.020
2020/01/31 09:30:41.2	104.290	0.270	-0.340	-0.040
2020/01/31 09:30:41.3	104.280	0.230	-0.230	-0.060
2020/01/31 09:30:41.4	104.270	0.200	-0.120	-0.070
2020/01/31 09:30:41.5	104.270	0.160	-0.000	-0.080
2020/01/31 09:30:41.6	104.260	0.130	0.110	-0.100
2020/01/31 09:30:41.7	104.260	0.090	0.230	-0.110
2020/01/31 09:30:41.8	104.250	0.050	0.340	-0.120
2020/01/31 09:30:41.9	104.240	0.010	0.450	-0.120
2020/01/31 09:30:42.0	104.240	-0.030	0.560	-0.130
2020/01/31 09:30:42.1	104.230	-0.070	0.660	-0.130
2020/01/31 09:30:42.2	104.220	-0.110	0.760	-0.140
2020/01/31 09:30:42.3	104.210	-0.150	0.850	-0.140
2020/01/31 09:30:42.4	104.200	-0.190	0.940	-0.140
2020/01/31 09:30:42.5	104.190	-0.230	1.020	-0.140
2020/01/31 09:30:42.6	104.180	-0.270	1.100	-0.140
2020/01/31 09:30:42.7	104.170	-0.300	1.170	-0.130
2020/01/31 09:30:42.8	104.160	-0.340	1.230	-0.130
2020/01/31 09:30:42.9	104.150	-0.370	1.290	-0.120
2020/01/31 09:30:43.0	104.140	-0.400	1.340	-0.120
2020/01/31 09:30:43.1	104.130	-0.430	1.380	-0.110
2020/01/31 09:30:43.2	104.120	-0.460	1.410	-0.110
2020/01/31 09:30:43.3	104.110	-0.480	1.430	-0.110
2020/01/31 09:30:43.4	104.100	-0.500	1.440	-0.100
2020/01/31 09:30:43.5	104.090	-0.520	1.450	-0.090
2020/01/31 09:30:43.6	104.090	-0.530	1.440	-0.080
2020/01/31 09:30:43.7	104.080	-0.540	1.430	-0.070
2020/01/31 09:30:43.8	104.080	-0.550	1.410	-0.070
2020/01/31 09:30:43.9	104.070	-0.560	1.380	-0.060
2020/01/31 09:30:44.0	104.070	-0.560	1.340	-0.050
2020/01/31 09:30:44.1	104.070	-0.560	1.290	-0.040
2020/01/31 09:30:44.2	104.070	-0.550	1.240	-0.040
2020/01/31 09:30:44.3	104.080	-0.550	1.180	-0.030
2020/01/31 09:30:44.4	104.080	-0.540	1.110	-0.020
2020/01/31 09:30:44.5	104.090	-0.520	1.030	-0.020
2020/01/31 09:30:44.6	104.090	-0.510	0.950	-0.020
2020/01/31 09:30:44.7	104.100	-0.490	0.870	-0.010
2020/01/31 09:30:44.8	104.110	-0.470	0.780	-0.010
2020/01/31 09:30:44.9	104.120	-0.440	0.680	-0.000
2020/01/31 09:30:45.0	104.140	-0.420	0.580	-0.000
2020/01/31 09:30:45.1	104.150	-0.390	0.480	0.000
2020/01/31 09:30:45.2	104.170	-0.360	0.380	0.010
2020/01/31 09:30:45.3	104.180	-0.330	0.270	0.010
2020/01/31 09:30:45.4	104.200	-0.290	0.170	0.020
2020/01/31 09:30:45.5	104.210	-0.260	0.060	0.020
2020/01/31 09:30:45.6	104.230	-0.220	-0.050	0.030
2020/01/31 09:30:45.7	104.240	-0.190	-0.160	0.040
2020/01/31 09:30:45.8	104.260	-0.150	-0.260	0.050
2020/01/31 09:30:45.9	104.270	-0.110	-0.370	0.060
2020/01/31 09:30:46.0	104.290	-0.070	-0.470	0.070
2020/01/31 09:30:46.1	104.300	-0.040	-0.570	0.080
2020/01/31 09:30:46.2	104.310	0.000	-0.670	0.100
2020/01/31 09:30:46.3	104.310	0.040	-0.760	0.120
2020/01/31 09:30:46.4	104.320	0.070	-0.850	0.140
2020/01/31 09:30:46.5	104.330	0.110	-0.940	0.160
2020/01/31 09:30:46.6	104.330	0.140	-1.020	0.180
2020/01/31 09:30:46.7	104.340	0.180	-1.100	0.200
2020/01/31 09:30:46.8	104.340	0.210	-1.170	0.230
2020/01/31 09:30:46.9	104.340	0.240	-1.240	0.250
2020/01/31 09:30:47.0	104.350	0.270	-1.300	0.280
2020/01/31 09:30:47.1	104.350	0.290	-1.350	0.300
2020/01/31 09:30:47.2	104.340	0.320	-1.390	0.330
2020/01/31 09:30:47.3	104.330	0.340	-1.430	0.360
2020/01/31 09:30:47.4	104.330	0.360	-1.470	0.390
2020/01/31 09:30:47.5	104.330	0.370	-1.490	0.420
2020/01/31 09:30:47.6	104.320	0.390	-1.510	0.450
2020/01/31 09:30:47.7	104.320	0.400	-1.520	0.490
2020/01/31 09:30:47.8	104.310	0.410	-1.520	0.520
2020/01/31 09:30:47.9	104.310	0.420	-1.520	0.560
2020/01/31 09:30:48.0	104.300	0.430	-1.510	0.590
2020/01/31 09:30:48.1	104.300	0.430	-1.490	0.630
2020/01/31 09:30:48.2	104.290	0.430	-1.470	0.670
2020/01/31 09:30:48.3	104.290	0.430	-1.440	0.710
2020/01/31 09:30:48.4	104.290	0.430	-1.400	0.750
2020/01/31 09:30:48.5	104.280	0.430	-1.360	0.790
2020/01/31 09:30:48.6	104.270	0.420	-1.310	0.830
2020/01/31 09:30:48.7	104.260	0.410	-1.260	0.880
2020/01/31 09:30:48.8	104.260	0.400	-1.200	0.920
2020/01/31 09:30:48.9	104.250	0.390	-1.140	0.960
2020/01/31 09:30:49.0	104.240	0.380	-1.070	1.010
2020/01/31 09:30:49.1	104.230	0.370	-1.000	1.060
2020/01/31 09:30:49.2	104.220	0.360	-0.930	1.100
2020/01/31 09:30:49.3	104.200	0.340	-0.850	1.150
2020/01/31 09:30:49.4	104.190	0.330	-0.770	1.190
2020/01/31 09:30:49.5	104.180	0.310	-0.700	1.240
2020/01/31 09:30:49.6	104.170	0.300	-0.610	1.280
2020/01/31 09:30:49.7	104.160	0.280	-0.530	1.330
2020/01/31 09:30:49.8	104.150	0.270	-0.450	1.370
2020/01/31 09:30:49.9	104.130	0.250	-0.370	1.410
2020/01/31 09:30:50.0	104.120	0.240	-0.290	1.450
2020/01/31 09:30:50.1	104.110	0.220	-0.210	1.480
2020/01/31 09:30:50.2	104.100	0.210	-0.130	1.520
2020/01/31 09:30:50.3	104.090	0.190	-0.050	1.550
2020/01/31 09:30:50.4	104.080	0.170	0.020	1.580
2020/01/31 09:30:50.5	104.070	0.160	0.090	1.600
2020/01/31 09:30:50.6	104.070	0.150	0.160	1.620
2020/01/31 09:30:50.7	104.060	0.130	0.230	1.640
2020/01/31 09:30:50.8	104.060	0.120	0.290	1.660
2020/01/31 09:30:50.9	104.050	0.100	0.340	1.670
2020/01/31 09:30:51.0	104.050	0.090	0.390	1.680
2020/01/31 09:30:51.1	104.050	0.080	0.440	1.680
2020/01/31 09:30:51.2	104.060	0.070	0.480	1.680
2020/01/31 09:30:51.3	104.070	0.060	0.520	1.680
2020/01/31 09:30:51.4	104.070	0.040	0.550	1.670
2020/01/31 09:30:51.5	104.080	0.030	0.580	1.660
2020/01/31 09:30:51.6	104.090	0.020	0.600	1.640
2020/01/31 09:30:51.7	104.100	0.010	0.610	1.620
2020/01/31 09:30:51.8	104.100	0.000	0.620	1.600
2020/01/31 09:30:51.9	104.120	-0.000	0.620	1.570
2020/01/31 09:30:52.0	104.130	-0.010	0.620	1.540
2020/01/31 09:30:52.1	104.140	-0.020	0.620	1.510
2020/01/31 09:30:52.2	104.150	-0.030	0.610	1.480
2020/01/31 09:30:52.3	104.180	-0.040	0.580	1.440
2020/01/31 09:30:52.4	104.190	-0.040	0.560	1.400
2020/01/31 09:30:52.5	104.200	-0.050	0.540	1.360
2020/01/31 09:30:52.6	104.210	-0.060	0.510	1.320
2020/01/31 09:30:52.7	104.210	-0.060	0.480	1.270
2020/01/31 09:30:52.8	104.220	-0.070	0.450	1.230
2020/01/31 09:30:52.9	104.220	-0.070	0.420	1.180
2020/01/31 09:30:53.0	104.230	-0.080	0.380	1.130
2020/01/31 09:30:53.1	104.230	-0.090	0.350	1.090
2020/01/31 09:30:53.2	104.240	-0.090	0.310	1.040
2020/01/31 09:30:53.3	104.250	-0.100	0.280	0.980
2020/01/31 09:30:53.4	104.250	-0.100	0.240	0.930
2020/01/31 09:30:53.5	104.250	-0.110	0.210	0.880
2020/01/31 09:30:53.6	104.250	-0.120	0.170	0.830
2020/01/31 09:30:53.7	104.250	-0.130	0.140	0.780
2020/01/31 09:30:53.8	104.250	-0.130	0.120	0.730
2020/01/31 09:30:53.9	104.250	-0.140	0.090	0.680
2020/01/31 09:30:54.0	104.250	-0.150	0.060	0.630
2020/01/31 09:30:54.1	104.250	-0.160	0.040	0.580
2020/01/31 09:30:54.2	104.250	-0.170	0.030	0.530
2020/01/31 09:30:54.3	104.260	-0.180	0.010	0.480
2020/01/31 09:30:54.4	104.260	-0.190	-0.010	0.430
2020/01/31 09:30:54.5	104.260	-0.200	-0.020	0.380
2020/01/31 09:30:54.6	104.260	-0.210	-0.020	0.340
2020/01/31 09:30:54.7	104.260	-0.230	-0.030	0.300
2020/01/31 09:30:54.8	104.260	-0.240	-0.030	0.260
2020/01/31 09:30:54.9	104.250	-0.250	-0.030	0.220
2020/01/31 09:30:55.0	104.260	-0.260	-0.030	0.180
2020/01/31 09:30:55.1	104.250	-0.270	-0.020	0.150
2020/01/31 09:30:55.2	104.250	-0.280	-0.020	0.110
2020/01/31 09:30:55.3	104.230	-0.290	-0.010	0.080
2020/01/31 09:30:55.4	104.230	-0.300	-0.010	0.050
2020/01/31 09:30:55.5	104.230	-0.310	0.000	0.020
2020/01/31 09:30:55.6	104.230	-0.320	0.010	-0.010
2020/01/31 09:30:55.7	104.230	-0.330	0.020	-0.030
2020/01/31 09:30:55.8	104.230	-0.330	0.030	-0.060
2020/01/31 09:30:55.9	104.230	-0.340	0.040	-0.080
2020/01/31 09:30:56.0	104.230	-0.340	0.040	-0.110
2020/01/31 09:30:56.1	104.230	-0.340	0.040	-0.130
2020/01/31 09:30:56.2	104.230	-0.340	0.050	-0.150
2020/01/31 09:30:56.3	104.210	-0.340	0.040	-0.170
2020/01/31 09:30:56.4	104.210	-0.340	0.040	-0.200
2020/01/31 09:30:56.5	104.220	-0.330	0.030	-0.220
2020/01/31 09:30:56.6	104.220	-0.330	0.020	-0.240
2020/01/31 09:30:56.7	104.220	-0.320	0.010	-0.260
2020/01/31 09:30:56.8	104.230	-0.310	-0.010	-0.280
2020/01/31 09:30:56.9	104.230	-0.290	-0.040	-0.300
2020/01/31 09:30:57.0	104.240	-0.280	-0.060	-0.320
2020/01/31 09:30:57.1	104.240	-0.260	-0.090	-0.330
2020/01/31 09:30:57.2	104.250	-0.240	-0.130	-0.350
2020/01/31 09:30:57.3	104.260	-0.220	-0.170	-0.370
2020/01/31 09:30:57.4	104.270	-0.190	-0.210	-0.390
2020/01/31 09:30:57.5	104.280	-0.170	-0.260	-0.400
2020/01/31 09:30:57.6	104.280	-0.140	-0.310	-0.420
2020/01/31 09:30:57.7	104.290	-0.110	-0.360	-0.430
2020/01/31 09:30:57.8	104.300	-0.080	-0.420	-0.440
2020/01/31 09:30:57.9	104.310	-0.050	-0.470	-0.450
2020/01/31 09:30:58.0	104.310	-0.020	-0.530	-0.450
2020/01/31 09:30:58.1	104.320	0.010	-0.590	-0.450
2020/01/31 09:30:58.2	104.320	0.040	-0.640	-0.450
2020/01/31 09:30:58.3	104.310	0.070	-0.700	-0.450
2020/01/31 09:30:58.4	104.320	0.100	-0.750	-0.440
2020/01/31 09:30:58.5	104.320	0.130	-0.810	-0.430
2020/01/31 09:30:58.6	104.320	0.160	-0.860	-0.420
2020/01/31 09:30:58.7	104.320	0.190	-0.910	-0.410
2020/01/31 09:30:58.8	104.310	0.220	-0.950	-0.390
2020/01/31 09:30:58.9	104.310	0.240	-1.000	-0.370
2020/01/31 09:30:59.0	104.310	0.270	-1.030	-0.350
2020/01/31 09:30:59.1	104.300	0.290	-1.070	-0.320
2020/01/31 09:30:59.2	104.290	0.310	-1.090	-0.290
2020/01/31 09:30:59.3	104.290	0.330	-1.110	-0.260
2020/01/31 09:30:59.4	104.280	0.350	-1.130	-0.230
2020/01/31 09:30:59.5	104.270	0.360	-1.140	-0.190
2020/01/31 09:30:59.6	104.260	0.380	-1.150	-0.160
2020/01/31 09:30:59.7	104.250	0.390	-1.150	-0.120
2020/01/31 09:30:59.8	104.240	0.390	-1.150	-0.080
2020/01/31 09:30:59.9	104.240	0.400	-1.130	-0.040
2020/01/31 09:31:00.0	104.230	0.400	-1.120	-0.000
2020/01/31 09:31:00.1	104.220	0.400	-1.090	0.040
2020/01/31 09:31:00.2	104.220	0.400	-1.060	0.080
2020/01/31 09:31:00.3	104.200	0.400	-1.030	0.120
2020/01/31 09:31:00.4	104.200	0.390	-0.980	0.160
2020/01/31 09:31:00.5	104.190	0.380	-0.940	0.200
2020/01/31 09:31:00.6	104.190	0.370	-0.880	0.240
2020/01/31 09:31:00.7	104.190	0.360	-0.820	0.280
2020/01/31 09:31:00.8	104.190	0.340	-0.760	0.320
2020/01/31 09:31:00.9	104.200	0.320	-0.690	0.360
2020/01/31 09:31:01.0	104.200	0.300	-0.620	0.400
2020/01/31 09:31:01.1	104.200	0.280	-0.550	0.440
2020/01/31 09:31:01.2	104.210	0.260	-0.470	0.480
2020/01/31 09:31:01.3	104.220	0.230	-0.390	0.520
2020/01/31 09:31:01.4	104.220	0.210	-0.310	0.560
2020/01/31 09:31:01.5	104.230	0.180	-0.220	0.600
2020/01/31 09:31:01.6	104.230	0.150	-0.140	0.650
2020/01/31 09:31:01.7	104.240	0.130	-0.050	0.690
2020/01/31 09:31:01.8	104.250	0.100	0.030	0.730
2020/01/31 09:31:01.9	104.250	0.070	0.120	0.780
2020/01/31 09:31:02.0	104.260	0.040	0.200	0.820
2020/01/31 09:31:02.1	104.260	0.010	0.280	0.870
2020/01/31 09:31:02.2	104.260	-0.020	0.360	0.910
2020/01/31 09:31:02.3	104.260	-0.050	0.440	0.960
2020/01/31 09:31:02.4	104.270	-0.080	0.510	1.000
2020/01/31 09:31:02.5	104.270	-0.110	0.580	1.050
2020/01/31 09:31:02.6	104.270	-0.140	0.650	1.090
2020/01/31 09:31:02.7	104.280	-0.170	0.710	1.130
2020/01/31 09:31:02.8	104.280	-0.200	0.770	1.160
2020/01/31 09:31:02.9	104.280	-0.220	0.820	1.200
2020/01/31 09:31:03.0	104.280	-0.250	0.870	1.230
2020/01/31 09:31:03.1	104.290	-0.270	0.910	1.260
2020/01/31 09:31:03.2	104.290	-0.290	0.950	1.280
2020/01/31 09:31:03.3	104.290	-0.320	0.980	1.300
2020/01/31 09:31:03.4	104.300	-0.330	1.010	1.320
2020/01/31 09:31:03.5	104.300	-0.350	1.030	1.330
2020/01/31 09:31:03.6	104.310	-0.370	1.040	1.340
2020/01/31 09:31:03.7	104.310	-0.380	1.050	1.340
2020/01/31 09:31:03.8	104.320	-0.390	1.060	1.340
2020/01/31 09:31:03.9	104.320	-0.400	1.060	1.330
2020/01/31 09:31:04.0	104.330	-0.410	1.050	1.320
2020/01/31 09:31:04.1	104.340	-0.410	1.030	1.300
2020/01/31 09:31:04.2	104.350	-0.420	1.010	1.280
2020/01/31 09:31:04.3	104.370	-0.420	0.990	1.260
2020/01/31 09:31:04.4	104.380	-0.410	0.960	1.230
2020/01/31 09:31:04.5	104.390	-0.410	0.920	1.200
2020/01/31 09:31:04.6	104.400	-0.400	0.880	1.170
2020/01/31 09:31:04.7	104.410	-0.390	0.830	1.130
2020/01/31 09:31:04.8	104.420	-0.380	0.780	1.090
2020/01/31 09:31:04.9	104.430	-0.360	0.720	1.040
2020/01/31 09:31:05.0	104.440	-0.340	0.660	1.000
2020/01/31 09:31:05.1	104.460	-0.320	0.590	0.950
2020/01/31 09:31:05.2	104.470	-0.300	0.530	0.900
2020/01/31 09:31:05.3	104.500	-0.280	0.450	0.850
2020/01/31 09:31:05.4	104.510	-0.250	0.370	0.800
2020/01/31 09:31:05.5	104.530	-0.230	0.290	0.750
2020/01/31 09:31:05.6	104.540	-0.200	0.210	0.700
2020/01/31 09:31:05.7	104.560	-0.170	0.130	0.640
2020/01/31 09:31:05.8	104.580	-0.130	0.050	0.590
2020/01/31 09:31:05.9	104.600	-0.100	-0.040	0.530
2020/01/31 09:31:06.0	104.620	-0.070	-0.120	0.470
2020/01/31 09:31:06.1	104.630	-0.030	-0.200	0.420
2020/01/31 09:31:06.2	104.650	-0.000	-0.290	0.360
2020/01/31 09:31:06.3	104.680	0.030	-0.370	0.310
2020/01/31 09:31:06.4	104.700	0.070	-0.450	0.250
2020/01/31 09:31:06.5	104.720	0.100	-0.530	0.200
2020/01/31 09:31:06.6	104.740	0.140	-0.610	0.150
2020/01/31 09:31:06.7	104.760	0.170	-0.680	0.100
2020/01/31 09:31:06.8	104.780	0.200	-0.750	0.040
2020/01/31 09:31:06.9	104.800	0.230	-0.820	-0.010
2020/01/31 09:31:07.0	104.820	0.260	-0.880	-0.050
2020/01/31 09:31:07.1	104.840	0.290	-0.940	-0.100
2020/01/31 09:31:07.2	104.850	0.320	-0.990	-0.140
2020/01/31 09:31:07.3	104.860	0.340	-1.040	-0.190
2020/01/31 09:31:07.4	104.870	0.370	-1.080	-0.230
2020/01/31 09:31:07.5	104.890	0.390	-1.120	-0.260
2020/01/31 09:31:07.6	104.900	0.410	-1.150	-0.300
2020/01/31 09:31:07.7	104.910	0.430	-1.180	-0.330
2020/01/31 09:31:07.8	104.920	0.440	-1.210	-0.350
2020/01/31 09:31:07.9	104.930	0.450	-1.220	-0.370
2020/01/31 09:31:08.0	104.940	0.470	-1.240	-0.390
2020/01/31 09:31:08.1	104.940	0.470	-1.250	-0.410
2020/01/31 09:31:08.2	104.950	0.480	-1.250	-0.420
2020/01/31 09:31:08.3	104.950	0.490	-1.260	-0.420
2020/01/31 09:31:08.4	104.950	0.490	-1.250	-0.430
2020/01/31 09:31:08.5	104.950	0.490	-1.250	-0.420
2020/01/31 09:31:08.6	104.950	0.490	-1.240	-0.420
2020/01/31 09:31:08.7	104.950	0.480	-1.230	-0.400
2020/01/31 09:31:08.8	104.950	0.480	-1.210	-0.390
2020/01/31 09:31:08.9	104.940	0.470	-1.190	-0.370
2020/01/31 09:31:09.0	104.940	0.460	-1.170	-0.340
2020/01/31 09:31:09.1	104.930	0.450	-1.150	-0.320
2020/01/31 09:31:09.2	104.930	0.440	-1.120	-0.290
2020/01/31 09:31:09.3	104.920	0.430	-1.090	-0.250
2020/01/31 09:31:09.4	104.920	0.410	-1.060	-0.220
2020/01/31 09:31:09.5	104.910	0.400	-1.020	-0.180
2020/01/31 09:31:09.6	104.910	0.380	-0.990	-0.130
2020/01/31 09:31:09.7	104.900	0.360	-0.950	-0.090
2020/01/31 09:31:09.8	104.890	0.340	-0.910	-0.040
2020/01/31 09:31:09.9	104.880	0.320	-0.860	0.000
2020/01/31 09:31:10.0	104.870	0.290	-0.810	0.050
2020/01/31 09:31:10.1	104.870	0.270	-0.760	0.100
2020/01/31 09:31:10.2	104.860	0.240	-0.710	0.140
2020/01/31 09:31:10.3	104.840	0.220	-0.640	0.190
2020/01/31 09:31:10.4	104.840	0.190	-0.580	0.240
2020/01/31 09:31:10.5	104.830	0.160	-0.520	0.280
2020/01/31 09:31:10.6	104.830	0.130	-0.450	0.320
2020/01/31 09:31:10.7	104.830	0.100	-0.380	0.370
2020/01/31 09:31:10.8	104.830	0.070	-0.300	0.410
2020/01/31 09:31:10.9	104.830	0.040	-0.230	0.440
2020/01/31 09:31:11.0	104.830	0.000	-0.150	0.480
2020/01/31 09:31:11.1	104.840	-0.030	-0.070	0.510
2020/01/31 09:31:11.2	104.840	-0.070	0.020	0.550
2020/01/31 09:31:11.3	104.840	-0.100	0.100	0.570
2020/01/31 09:31:11.4	104.850	-0.140	0.180	0.600
2020/01/31 09:31:11.5	104.860	-0.170	0.270	0.630
2020/01/31 09:31:11.6	104.860	-0.210	0.350	0.650
2020/01/31 09:31:11.7	104.870	-0.250	0.440	0.680
2020/01/31 09:31:11.8	104.890	-0.280	0.520	0.700
2020/01/31 09:31:11.9	104.900	-0.320	0.600	0.720
2020/01/31 09:31:12.0	104.910	-0.350	0.670	0.740
2020/01/31 09:31:12.1	104.920	-0.390	0.740	0.760
2020/01/31 09:31:12.2	104.930	-0.420	0.810	0.770
2020/01/31 09:31:12.3	104.940	-0.450	0.870	0.790
2020/01/31 09:31:12.4	104.950	-0.480	0.930	0.800
2020/01/31 09:31:12.5	104.970	-0.510	0.980	0.810
2020/01/31 09:31:12.6	104.980	-0.540	1.020	0.830
2020/01/31 09:31:12.7	104.990	-0.560	1.060	0.840
2020/01/31 09:31:12.8	105.010	-0.580	1.090	0.840
2020/01/31 09:31:12.9	105.020	-0.600	1.110	0.850
2020/01/31 09:31:13.0	105.030	-0.620	1.120	0.860
2020/01/31 09:31:13.1	105.050	-0.630	1.130	0.860
2020/01/31 09:31:13.2	105.060	-0.640	1.130	0.860
2020/01/31 09:31:13.3	105.080	-0.650	1.110	0.870
2020/01/31 09:31:13.4	105.090	-0.660	1.090	0.870
2020/01/31 09:31:13.5	105.100	-0.660	1.060	0.860
2020/01/31 09:31:13.6	105.120	-0.650	1.030	0.860
2020/01/31 09:31:13.7	105.130	-0.650	0.980	0.850
2020/01/31 09:31:13.8	105.150	-0.640	0.930	0.840
2020/01/31 09:31:13.9	105.160	-0.630	0.880	0.830
2020/01/31 09:31:14.0	105.180	-0.610	0.810	0.820
2020/01/31 09:31:14.1	105.200	-0.600	0.740	0.800
2020/01/31 09:31:14.2	105.220	-0.580	0.660	0.780
2020/01/31 09:31:14.3	105.250	-0.550	0.580	0.760
2020/01/31 09:31:14.4	105.270	-0.530	0.500	0.740
2020/01/31 09:31:14.5	105.290	-0.500	0.410	0.710
2020/01/31 09:31:14.6	105.310	-0.470	0.320	0.690
2020/01/31 09:31:14.7	105.340	-0.430	0.220	0.660
2020/01/31 09:31:14.8	105.360	-0.400	0.130	0.630
2020/01/31 09:31:14.9	105.380	-0.360	0.030	0.600
2020/01/31 09:31:15.0	105.410	-0.330	-0.060	0.570
2020/01/31 09:31:15.1	105.430	-0.290	-0.160	0.530
2020/01/31 09:31:15.2	105.460	-0.250	-0.250	0.500
2020/01/31 09:31:15.3	105.480	-0.210	-0.340	0.460
2020/01/31 09:31:15.4	105.510	-0.170	-0.430	0.430
2020/01/31 09:31:15.5	105.540	-0.130	-0.520	0.400
2020/01/31 09:31:15.6	105.560	-0.090	-0.600	0.370
2020/01/31 09:31:15.7	105.590	-0.050	-0.680	0.340
2020/01/31 09:31:15.8	105.610	-0.010	-0.760	0.310
2020/01/31 09:31:15.9	105.640	0.030	-0.820	0.280
2020/01/31 09:31:16.0	105.660	0.070	-0.890	0.250
2020/01/31 09:31:16.1	105.690	0.110	-0.940	0.230
2020/01/31 09:31:16.2	105.710	0.140	-0.990	0.210
2020/01/31 09:31:16.3	105.730	0.180	-1.040	0.180
2020/01/31 09:31:16.4	105.760	0.210	-1.070	0.160
2020/01/31 09:31:16.5	105.780	0.240	-1.100	0.150
2020/01/31 09:31:16.6	105.800	0.270	-1.120	0.130
2020/01/31 09:31:16.7	105.810	0.290	-1.130	0.120
2020/01/31 09:31:16.8	105.830	0.320	-1.140	0.110
2020/01/31 09:31:16.9	105.850	0.340	-1.130	0.100
2020/01/31 09:31:17.0	105.860	0.360	-1.120	0.090
2020/01/31 09:31:17.1	105.870	0.370	-1.100	0.090
2020/01/31 09:31:17.2	105.890	0.390	-1.080	0.080
2020/01/31 09:31:17.3	105.900	0.400	-1.050	0.080
2020/01/31 09:31:17.4	105.910	0.400	-1.010	0.080
2020/01/31 09:31:17.5	105.920	0.410	-0.960	0.080
2020/01/31 09:31:17.6	105.920	0.410	-0.910	0.090
2020/01/31 09:31:17.7	105.930	0.410	-0.850	0.090
2020/01/31 09:31:17.8	105.930	0.410	-0.790	0.090
2020/01/31 09:31:17.9	105.930	0.400	-0.720	0.100
2020/01/31 09:31:18.0	105.930	0.400	-0.660	0.100
2020/01/31 09:31:18.1	105.930	0.390	-0.590	0.110
2020/01/31 09:31:18.2	105.930	0.380	-0.520	0.110
2020/01/31 09:31:18.3	105.910	0.360	-0.440	0.110
2020/01/31 09:31:18.4	105.910	0.350	-0.370	0.120
2020/01/31 09:31:18.5	105.900	0.330	-0.300	0.120
2020/01/31 09:31:18.6	105.890	0.320	-0.230	0.130
2020/01/31 09:31:18.7	105.880	0.300	-0.170	0.130
2020/01/31 09:31:18.8	105.880	0.280	-0.100	0.140
2020/01/31 09:31:18.9	105.870	0.260	-0.040	0.140
2020/01/31 09:31:19.0	105.860	0.240	0.010	0.140
2020/01/31 09:31:19.1	105.850	0.220	0.060	0.150
2020/01/31 09:31:19.2	105.840	0.200	0.110	0.150
2020/01/31 09:31:19.3	105.830	0.190	0.150	0.150
2020/01/31 09:31:19.4	105.820	0.170	0.190	0.150
2020/01/31 09:31:19.5	105.820	0.150	0.220	0.150
2020/01/31 09:31:19.6	105.810	0.140	0.250	0.150
2020/01/31 09:31:19.7	105.810	0.120	0.270	0.160
2020/01/31 09:31:19.8	105.810	0.110	0.290	0.160
2020/01/31 09:31:19.9	105.810	0.100	0.300	0.160
2020/01/31 09:31:20.0	105.810	0.090	0.300	0.160
2020/01/31 09:31:20.1	105.810	0.080	0.300	0.160
2020/01/31 09:31:20.2	105.810	0.070	0.300	0.160
2020/01/31 09:31:20.3	105.830	0.060	0.290	0.170
2020/01/31 09:31:20.4	105.830	0.060	0.270	0.170
2020/01/31 09:31:20.5	105.840	0.060	0.250	0.180
2020/01/31 09:31:20.6	105.850	0.050	0.230	0.190
2020/01/31 09:31:20.7	105.860	0.050	0.200	0.200
2020/01/31 09:31:20.8	105.860	0.060	0.170	0.210
2020/01/31 09:31:20.9	105.870	0.060	0.140	0.230
2020/01/31 09:31:21.0	105.880	0.060	0.110	0.240
2020/01/31 09:31:21.1	105.900	0.070	0.070	0.260
2020/01/31 09:31:21.2	105.910	0.070	0.030	0.280
2020/01/31 09:31:21.3	105.920	0.080	-0.010	0.300
2020/01/31 09:31:21.4	105.930	0.090	-0.050	0.320
2020/01/31 09:31:21.5	105.950	0.090	-0.090	0.340
2020/01/31 09:31:21.6	105.960	0.100	-0.130	0.360
2020/01/31 09:31:21.7	105.970	0.110	-0.170	0.380
2020/01/31 09:31:21.8	105.990	0.120	-0.210	0.400
2020/01/31 09:31:21.9	106.000	0.130	-0.250	0.420
2020/01/31 09:31:22.0	106.020	0.140	-0.280	0.440
2020/01/31 09:31:22.1	106.030	0.150	-0.320	0.460
2020/01/31 09:31:22.2	106.050	0.160	-0.350	0.480
2020/01/31 09:31:22.3	106.070	0.170	-0.380	0.490
2020/01/31 09:31:22.4	106.070	0.170	-0.410	0.500
2020/01/31 09:31:22.5	106.090	0.180	-0.430	0.520
2020/01/31 09:31:22.6	106.110	0.190	-0.450	0.530
2020/01/31 09:31:22.7	106.130	0.200	-0.470	0.540
2020/01/31 09:31:22.8	106.150	0.210	-0.490	0.540
2020/01/31 09:31:22.9	106.170	0.210	-0.500	0.550
2020/01/31 09:31:23.0	106.190	0.220	-0.510	0.560
2020/01/31 09:31:23.1	106.210	0.230	-0.520	0.560
2020/01/31 09:31:23.2	106.230	0.230	-0.520	0.570
2020/01/31 09:31:23.3	106.260	0.240	-0.520	0.570
2020/01/31 09:31:23.4	106.270	0.240	-0.520	0.570
2020/01/31 09:31:23.5	106.290	0.240	-0.510	0.570
2020/01/31 09:31:23.6	106.310	0.240	-0.510	0.580
2020/01/31 09:31:23.7	106.330	0.240	-0.500	0.580
2020/01/31 09:31:23.8	106.350	0.240	-0.490	0.590
2020/01/31 09:31:23.9	106.370	0.240	-0.470	0.590
2020/01/31 09:31:24.0	106.390	0.240	-0.450	0.600
2020/01/31 09:31:24.1	106.410	0.240	-0.440	0.600
2020/01/31 09:31:24.2	106.430	0.230	-0.410	0.610
2020/01/31 09:31:24.3	106.450	0.230	-0.390	0.620
2020/01/31 09:31:24.4	106.470	0.220	-0.370	0.620
2020/01/31 09:31:24.5	106.480	0.210	-0.340	0.630
2020/01/31 09:31:24.6	106.500	0.200	-0.310	0.640
2020/01/31 09:31:24.7	106.520	0.190	-0.280	0.640
2020/01/31 09:31:24.8	106.530	0.180	-0.240	0.650
2020/01/31 09:31:24.9	106.550	0.170	-0.210	0.660
2020/01/31 09:31:25.0	106.560	0.150	-0.170	0.660
2020/01/31 09:31:25.1	106.580	0.130	-0.130	0.670
2020/01/31 09:31:25.2	106.590	0.110	-0.090	0.680
2020/01/31 09:31:25.3	106.600	0.090	-0.050	0.690
2020/01/31 09:31:25.4	106.620	0.070	-0.010	0.690
2020/01/31 09:31:25.5	106.630	0.040	0.040	0.700
2020/01/31 09:31:25.6	106.640	0.020	0.080	0.710
2020/01/31 09:31:25.7	106.640	-0.010	0.120	0.720
2020/01/31 09:31:25.8	106.650	-0.040	0.170	0.730
2020/01/31 09:31:25.9	106.660	-0.070	0.210	0.750
2020/01/31 09:31:26.0	106.660	-0.100	0.260	0.760
2020/01/31 09:31:26.1	106.660	-0.140	0.300	0.770
2020/01/31 09:31:26.2	106.670	-0.170	0.340	0.790
2020/01/31 09:31:26.3	106.670	-0.210	0.380	0.800
2020/01/31 09:31:26.4	106.660	-0.250	0.420	0.820
2020/01/31 09:31:26.5	106.660	-0.280	0.460	0.840
2020/01/31 09:31:26.6	106.650	-0.320	0.490	0.860
2020/01/31 09:31:26.7	106.650	-0.360	0.520	0.870
2020/01/31 09:31:26.8	106.650	-0.400	0.550	0.890
2020/01/31 09:31:26.9	106.640	-0.440	0.580	0.910
2020/01/31 09:31:27.0	106.640	-0.470	0.600	0.930
2020/01/31 09:31:27.1	106.630	-0.510	0.620	0.940
2020/01/31 09:31:27.2	106.630	-0.540	0.630	0.960
2020/01/31 09:31:27.3	106.620	-0.570	0.630	0.970
2020/01/31 09:31:27.4	106.610	-0.610	0.630	0.990
2020/01/31 09:31:27.5	106.610	-0.630	0.630	1.010
2020/01/31 09:31:27.6	106.600	-0.660	0.620	1.020
2020/01/31 09:31:27.7	106.590	-0.680	0.600	1.030
2020/01/31 09:31:27.8	106.580	-0.700	0.580	1.050
2020/01/31 09:31:27.9	106.580	-0.720	0.550	1.060
2020/01/31 09:31:28.0	106.570	-0.730	0.510	1.070
2020/01/31 09:31:28.1	106.560	-0.740	0.470	1.080
2020/01/31 09:31:28.2	106.550	-0.740	0.420	1.090
2020/01/31 09:31:28.3	106.550	-0.740	0.360	1.100
2020/01/31 09:31:28.4	106.540	-0.730	0.300	1.110
2020/01/31 09:31:28.5	106.540	-0.720	0.230	1.110
2020/01/31 09:31:28.6	106.530	-0.710	0.160	1.120
2020/01/31 09:31:28.7	106.530	-0.680	0.080	1.120
2020/01/31 09:31:28.8	106.520	-0.660	0.000	1.120
2020/01/31 09:31:28.9	106.520	-0.630	-0.090	1.120
2020/01/31 09:31:29.0	106.520	-0.600	-0.180	1.110
2020/01/31 09:31:29.1	106.520	-0.560	-0.270	1.110
2020/01/31 09:31:29.2	106.520	-0.510	-0.360	1.100
2020/01/31 09:31:29.3	106.530	-0.470	-0.460	1.090
2020/01/31 09:31:29.4	106.550	-0.420	-0.560	1.080
2020/01/31 09:31:29.5	106.560	-0.360	-0.660	1.070
2020/01/31 09:31:29.6	106.560	-0.310	-0.760	1.060
2020/01/31 09:31:29.7	106.570	-0.250	-0.850	1.040
2020/01/31 09:31:29.8	106.580	-0.190	-0.950	1.030
2020/01/31 09:31:29.9	106.580	-0.130	-1.040	1.010
2020/01/31 09:31:30.0	106.590	-0.060	-1.130	0.990
2020/01/31 09:31:30.1	106.600	-0.000	-1.210	0.980
2020/01/31 09:31:30.2	106.600	0.060	-1.290	0.960
2020/01/31 09:31:30.3	106.610	0.120	-1.360	0.940
2020/01/31 09:31:30.4	106.620	0.180	-1.420	0.930
2020/01/31 09:31:30.5	106.630	0.240	-1.470	0.910
2020/01/31 09:31:30.6	106.640	0.300	-1.520	0.890
2020/01/31 09:31:30.7	106.640	0.350	-1.550	0.870
2020/01/31 09:31:30.8	106.650	0.400	-1.580	0.850
2020/01/31 09:31:30.9	106.650	0.450	-1.600	0.840
2020/01/31 09:31:31.0	106.660	0.490	-1.600	0.820
2020/01/31 09:31:31.1	106.660	0.530	-1.600	0.800
2020/01/31 09:31:31.2	106.670	0.560	-1.580	0.780
2020/01/31 09:31:31.3	106.680	0.590	-1.550	0.760
2020/01/31 09:31:31.4	106.680	0.610	-1.510	0.740
2020/01/31 09:31:31.5	106.690	0.630	-1.460	0.720
2020/01/31 09:31:31.6	106.690	0.640	-1.400	0.700
2020/01/31 09:31:31.7	106.690	0.650	-1.330	0.680
2020/01/31 09:31:31.8	106.700	0.650	-1.250	0.660
2020/01/31 09:31:31.9	106.700	0.640	-1.160	0.640
2020/01/31 09:31:32.0	106.700	0.630	-1.060	0.620
2020/01/31 09:31:32.1	106.710	0.620	-0.950	0.600
2020/01/31 09:31:32.2	106.710	0.590	-0.830	0.580
2020/01/31 09:31:32.3	106.720	0.570	-0.700	0.550
2020/01/31 09:31:32.4	106.730	0.540	-0.580	0.530
2020/01/31 09:31:32.5	106.730	0.510	-0.450	0.500
2020/01/31 09:31:32.6	106.730	0.470	-0.310	0.480
2020/01/31 09:31:32.7	106.730	0.430	-0.180	0.450
2020/01/31 09:31:32.8	106.740	0.390	-0.040	0.420
2020/01/31 09:31:32.9	106.740	0.340	0.100	0.400
2020/01/31 09:31:33.0	106.740	0.290	0.240	0.370
2020/01/31 09:31:33.1	106.740	0.250	0.370	0.340
2020/01/31 09:31:33.2	106.740	0.200	0.500	0.310
2020/01/31 09:31:33.3	106.750	0.150	0.630	0.270
2020/01/31 09:31:33.4	106.750	0.100	0.750	0.240
2020/01/31 09:31:33.5	106.750	0.060	0.860	0.210
2020/01/31 09:31:33.6	106.750	0.010	0.970	0.170
2020/01/31 09:31:33.7	106.760	-0.040	1.070	0.140
2020/01/31 09:31:33.8	106.760	-0.080	1.160	0.100
2020/01/31 09:31:33.9	106.770	-0.120	1.250	0.070
2020/01/31 09:31:34.0	106.770	-0.160	1.320	0.030
2020/01/31 09:31:34.1	106.780	-0.190	1.380	-0.010
2020/01/31 09:31:34.2	106.790	-0.220	1.430	-0.040
2020/01/31 09:31:34.3	106.800	-0.250	1.470	-0.080
2020/01/31 09:31:34.4	106.810	-0.270	1.500	-0.120
2020/01/31 09:31:34.5	106.820	-0.300	1.520	-0.160
2020/01/31 09:31:34.6	106.830	-0.310	1.520	-0.190
2020/01/31 09:31:34.7	106.840	-0.330	1.520	-0.220
2020/01/31 09:31:34.8	106.860	-0.330	1.500	-0.260
2020/01/31 09:31:34.9	106.870	-0.340	1.470	-0.290
2020/01/31 09:31:35.0	106.880	-0.340	1.430	-0.320
2020/01/31 09:31:35.1	106.900	-0.340	1.380	-0.340
2020/01/31 09:31:35.2	106.910	-0.330	1.320	-0.370
2020/01/31 09:31:35.3	106.930	-0.320	1.250	-0.390
2020/01/31 09:31:35.4	106.940	-0.310	1.170	-0.420
2020/01/31 09:31:35.5	106.960	-0.290	1.080	-0.430
2020/01/31 09:31:35.6	106.970	-0.270	0.980	-0.450
2020/01/31 09:31:35.7	106.980	-0.250	0.880	-0.460
2020/01/31 09:31:35.8	107.000	-0.230	0.770	-0.470
2020/01/31 09:31:35.9	107.010	-0.200	0.650	-0.480
2020/01/31 09:31:36.0	107.020	-0.170	0.530	-0.480
2020/01/31 09:31:36.1	107.040	-0.140	0.410	-0.480
2020/01/31 09:31:36.2	107.050	-0.110	0.280	-0.480
2020/01/31 09:31:36.3	107.050	-0.070	0.150	-0.480
2020/01/31 09:31:36.4	107.060	-0.040	0.020	-0.470
2020/01/31 09:31:36.5	107.070	-0.000	-0.110	-0.460
2020/01/31 09:31:36.6	107.070	0.030	-0.240	-0.440
2020/01/31 09:31:36.7	107.080	0.070	-0.370	-0.430
2020/01/31 09:31:36.8	107.080	0.100	-0.500	-0.410
2020/01/31 09:31:36.9	107.080	0.140	-0.630	-0.390
2020/01/31 09:31:37.0	107.080	0.170	-0.750	-0.360
2020/01/31 09:31:37.1	107.080	0.200	-0.870	-0.330
2020/01/31 09:31:37.2	107.080	0.230	-0.980	-0.300
2020/01/31 09:31:37.3	107.080	0.260	-1.090	-0.280
2020/01/31 09:31:37.4	107.070	0.290	-1.190	-0.240
2020/01/31 09:31:37.5	107.070	0.310	-1.290	-0.200
2020/01/31 09:31:37.6	107.060	0.340	-1.380	-0.170
2020/01/31 09:31:37.7	107.060	0.360	-1.460	-0.120
2020/01/31 09:31:37.8	107.050	0.370	-1.530	-0.080
2020/01/31 09:31:37.9	107.040	0.390	-1.590	-0.030
2020/01/31 09:31:38.0	107.040	0.400	-1.650	0.010
2020/01/31 09:31:38.1	107.030	0.410	-1.690	0.070
2020/01/31 09:31:38.2	107.020	0.420	-1.730	0.120
2020/01/31 09:31:38.3	107.000	0.430	-1.750	0.180
2020/01/31 09:31:38.4	106.990	0.430	-1.760	0.230
2020/01/31 09:31:38.5	106.990	0.430	-1.770	0.290
2020/01/31 09:31:38.6	106.980	0.420	-1.760	0.360
2020/01/31 09:31:38.7	106.970	0.410	-1.740	0.420
2020/01/31 09:31:38.8	106.960	0.400	-1.720	0.490
2020/01/31 09:31:38.9	106.950	0.390	-1.680	0.550
2020/01/31 09:31:39.0	106.940	0.370	-1.630	0.620
2020/01/31 09:31:39.1	106.930	0.360	-1.580	0.690
2020/01/31 09:31:39.2	106.920	0.340	-1.520	0.760
2020/01/31 09:31:39.3	106.890	0.310	-1.440	0.830
2020/01/31 09:31:39.4	106.880	0.290	-1.360	0.900
2020/01/31 09:31:39.5	106.870	0.260	-1.280	0.970
2020/01/31 09:31:39.6	106.860	0.230	-1.190	1.030
2020/01/31 09:31:39.7	106.860	0.200	-1.090	1.100
2020/01/31 09:31:39.8	106.850	0.170	-0.990	1.160
2020/01/31 09:31:39.9	106.840	0.140	-0.880	1.220
2020/01/31 09:31:40.0	106.830	0.110	-0.770	1.280
2020/01/31 09:31:40.1	106.820	0.080	-0.650	1.340
2020/01/31 09:31:40.2	106.820	0.050	-0.540	1.390
2020/01/31 09:31:40.3	106.810	0.010	-0.420	1.440
2020/01/31 09:31:40.4	106.810	-0.020	-0.300	1.490
2020/01/31 09:31:40.5	106.800	-0.050	-0.180	1.530
2020/01/31 09:31:40.6	106.790	-0.080	-0.060	1.560
2020/01/31 09:31:40.7	106.790	-0.110	0.060	1.600
2020/01/31 09:31:40.8	106.790	-0.140	0.170	1.620
2020/01/31 09:31:40.9	106.780	-0.170	0.290	1.650
2020/01/31 09:31:41.0	106.780	-0.200	0.400	1.670
2020/01/31 09:31:41.1	106.770	-0.230	0.510	1.680
2020/01/31 09:31:41.2	106.770	-0.250	0.610	1.690
2020/01/31 09:31:41.3	106.770	-0.270	0.700	1.690
2020/01/31 09:31:41.4	106.770	-0.300	0.790	1.700
2020/01/31 09:31:41.5	106.770	-0.310	0.880	1.690
2020/01/31 09:31:41.6	106.760	-0.330	0.960	1.690
2020/01/31 09:31:41.7	106.760	-0.350	1.030	1.680
2020/01/31 09:31:41.8	106.760	-0.360	1.090	1.660
2020/01/31 09:31:41.9	106.760	-0.370	1.140	1.650
2020/01/31 09:31:42.0	106.760	-0.380	1.190	1.630
2020/01/31 09:31:42.1	106.760	-0.390	1.220	1.600
2020/01/31 09:31:42.2	106.760	-0.400	1.250	1.580
2020/01/31 09:31:42.3	106.750	-0.400	1.260	1.550
2020/01/31 09:31:42.4	106.750	-0.400	1.270	1.520
2020/01/31 09:31:42.5	106.750	-0.400	1.270	1.490
2020/01/31 09:31:42.6	106.750	-0.400	1.250	1.450
2020/01/31 09:31:42.7	106.750	-0.400	1.230	1.420
2020/01/31 09:31:42.8	106.760	-0.390	1.200	1.380
2020/01/31 09:31:42.9	106.760	-0.380	1.160	1.340
2020/01/31 09:31:43.0	106.760	-0.370	1.100	1.300
2020/01/31 09:31:43.1	106.760	-0.360	1.050	1.260
2020/01/31 09:31:43.2	106.770	-0.350	0.980	1.220
2020/01/31 09:31:43.3	106.770	-0.340	0.910	1.170
2020/01/31 09:31:43.4	106.780	-0.330	0.830	1.130
2020/01/31 09:31:43.5	106.790	-0.310	0.740	1.080
2020/01/31 09:31:43.6	106.790	-0.300	0.650	1.040
2020/01/31 09:31:43.7	106.800	-0.280	0.550	0.990
2020/01/31 09:31:43.8	106.810	-0.260	0.460	0.940
2020/01/31 09:31:43.9	106.820	-0.250	0.350	0.890
2020/01/31 09:31:44.0	106.830	-0.230	0.250	0.840
2020/01/31 09:31:44.1	106.840	-0.210	0.150	0.790
2020/01/31 09:31:44.2	106.850	-0.190	0.040	0.740
2020/01/31 09:31:44.3	106.860	-0.180	-0.060	0.690
2020/01/31 09:31:44.4	106.880	-0.160	-0.170	0.640
2020/01/31 09:31:44.5	106.890	-0.140	-0.270	0.580
2020/01/31 09:31:44.6	106.910	-0.120	-0.370	0.530
2020/01/31 09:31:44.7	106.920	-0.110	-0.470	0.480
2020/01/31 09:31:44.8	106.940	-0.090	-0.560	0.420
2020/01/31 09:31:44.9	106.950	-0.070	-0.650	0.370
2020/01/31 09:31:45.0	106.970	-0.050	-0.740	0.310
2020/01/31 09:31:45.1	106.990	-0.040	-0.820	0.260
2020/01/31 09:31:45.2	107.000	-0.020	-0.890	0.210
2020/01/31 09:31:45.3	107.020	-0.000	-0.970	0.160
2020/01/31 09:31:45.4	107.040	0.010	-1.030	0.100
2020/01/31 09:31:45.5	107.050	0.030	-1.090	0.060
2020/01/31 09:31:45.6	107.060	0.050	-1.150	0.010
2020/01/31 09:31:45.7	107.070	0.070	-1.200	-0.040
2020/01/31 09:31:45.8	107.080	0.080	-1.240	-0.080
2020/01/31 09:31:45.9	107.090	0.100	-1.280	-0.120
2020/01/31 09:31:46.0	107.100	0.120	-1.310	-0.150
2020/01/31 09:31:46.1	107.100	0.140	-1.330	-0.180
2020/01/31 09:31:46.2	107.100	0.160	-1.350	-0.210
2020/01/31 09:31:46.3	107.110	0.180	-1.370	-0.240
2020/01/31 09:31:46.4	107.110	0.200	-1.370	-0.260
2020/01/31 09:31:46.5	107.100	0.210	-1.370	-0.280
2020/01/31 09:31:46.6	107.090	0.230	-1.370	-0.290
2020/01/31 09:31:46.7	107.090	0.250	-1.360	-0.300
2020/01/31 09:31:46.8	107.080	0.270	-1.340	-0.310
2020/01/31 09:31:46.9	107.070	0.290	-1.310	-0.310
2020/01/31 09:31:47.0	107.050	0.310	-1.280	-0.310
2020/01/31 09:31:47.1	107.040	0.330	-1.250	-0.310
2020/01/31 09:31:47.2	107.030	0.340	-1.210	-0.300
2020/01/31 09:31:47.3	107.010	0.360	-1.160	-0.290
2020/01/31 09:31:47.4	107.000	0.370	-1.110	-0.280
2020/01/31 09:31:47.5	106.980	0.380	-1.050	-0.260
2020/01/31 09:31:47.6	106.970	0.400	-0.990	-0.240
2020/01/31 09:31:47.7	106.950	0.400	-0.930	-0.220
2020/01/31 09:31:47.8	106.940	0.410	-0.860	-0.200
2020/01/31 09:31:47.9	106.930	0.420	-0.790	-0.180
2020/01/31 09:31:48.0	106.910	0.420	-0.720	-0.150
2020/01/31 09:31:48.1	106.900	0.420	-0.640	-0.120
2020/01/31 09:31:48.2	106.890	0.420	-0.560	-0.090
2020/01/31 09:31:48.3	106.860	0.410	-0.480	-0.070
2020/01/31 09:31:48.4	106.850	0.410	-0.400	-0.030
2020/01/31 09:31:48.5	106.840	0.400	-0.320	0.000
2020/01/31 09:31:48.6	106.830	0.390	-0.240	0.040
2020/01/31 09:31:48.7	106.820	0.370	-0.160	0.070
2020/01/31 09:31:48.8	106.820	0.350	-0.080	0.110
2020/01/31 09:31:48.9	106.810	0.330	0.000	0.150
2020/01/31 09:31:49.0	106.800	0.310	0.080	0.190
2020/01/31 09:31:49.1	106.800	0.290	0.150	0.230
2020/01/31 09:31:49.2	106.790	0.260	0.230	0.270
2020/01/31 09:31:49.3	106.790	0.230	0.300	0.310
2020/01/31 09:31:49.4	106.790	0.200	0.370	0.350
2020/01/31 09:31:49.5	106.790	0.170	0.440	0.380
2020/01/31 09:31:49.6	106.790	0.140	0.500	0.420
2020/01/31 09:31:49.7	106.790	0.110	0.560	0.450
2020/01/31 09:31:49.8	106.800	0.070	0.610	0.490
2020/01/31 09:31:49.9	106.800	0.030	0.670	0.520
2020/01/31 09:31:50.0	106.810	-0.000	0.710	0.550
2020/01/31 09:31:50.1	106.820	-0.040	0.760	0.580
2020/01/31 09:31:50.2	106.820	-0.070	0.790	0.610
2020/01/31 09:31:50.3	106.830	-0.110	0.830	0.630
2020/01/31 09:31:50.4	106.840	-0.150	0.860	0.650
2020/01/31 09:31:50.5	106.850	-0.180	0.880	0.670
2020/01/31 09:31:50.6	106.860	-0.220	0.900	0.690
2020/01/31 09:31:50.7	106.880	-0.250	0.910	0.700
2020/01/31 09:31:50.8	106.890	-0.280	0.920	0.720
2020/01/31 09:31:50.9	106.910	-0.310	0.930	0.730
2020/01/31 09:31:51.0	106.920	-0.340	0.930	0.740
2020/01/31 09:31:51.1	106.940	-0.360	0.920	0.750
2020/01/31 09:31:51.2	106.960	-0.390	0.910	0.760
2020/01/31 09:31:51.3	106.970	-0.410	0.900	0.760
2020/01/31 09:31:51.4	106.990	-0.430	0.880	0.770
2020/01/31 09:31:51.5	107.000	-0.440	0.850	0.780
2020/01/31 09:31:51.6	107.020	-0.460	0.820	0.780
2020/01/31 09:31:51.7	107.030	-0.470	0.780	0.790
2020/01/31 09:31:51.8	107.040	-0.480	0.740	0.790
2020/01/31 09:31:51.9	107.060	-0.480	0.700	0.800
2020/01/31 09:31:52.0	107.070	-0.480	0.650	0.810
2020/01/31 09:31:52.1	107.080	-0.480	0.600	0.810
2020/01/31 09:31:52.2	107.090	-0.480	0.540	0.820
2020/01/31 09:31:52.3	107.090	-0.470	0.480	0.830
2020/01/31 09:31:52.4	107.100	-0.460	0.420	0.840
2020/01/31 09:31:52.5	107.100	-0.450	0.360	0.860
2020/01/31 09:31:52.6	107.100	-0.430	0.290	0.870
2020/01/31 09:31:52.7	107.110	-0.410	0.220	0.890
2020/01/31 09:31:52.8	107.110	-0.390	0.150	0.900
2020/01/31 09:31:52.9	107.110	-0.370	0.070	0.920
2020/01/31 09:31:53.0	107.100	-0.340	0.000	0.940
2020/01/31 09:31:53.1	107.100	-0.310	-0.070	0.960
2020/01/31 09:31:53.2	107.100	-0.280	-0.150	0.980
2020/01/31 09:31:53.3	107.090	-0.250	-0.220	1.000
2020/01/31 09:31:53.4	107.090	-0.220	-0.300	1.010
2020/01/31 09:31:53.5	107.090	-0.190	-0.370	1.030
2020/01/31 09:31:53.6	107.080	-0.150	-0.440	1.050
2020/01/31 09:31:53.7	107.080	-0.120	-0.500	1.070
2020/01/31 09:31:53.8	107.080	-0.080	-0.570	1.090
2020/01/31 09:31:53.9	107.070	-0.050	-0.630	1.100
2020/01/31 09:31:54.0	107.070	-0.010	-0.690	1.120
2020/01/31 09:31:54.1	107.070	0.030	-0.750	1.130
2020/01/31 09:31:54.2	107.060	0.060	-0.800	1.140
2020/01/31 09:31:54.3	107.060	0.100	-0.850	1.150
2020/01/31 09:31:54.4	107.050	0.130	-0.900	1.160
2020/01/31 09:31:54.5	107.050	0.170	-0.940	1.170
2020/01/31 09:31:54.6	107.050	0.200	-0.970	1.180
2020/01/31 09:31:54.7	107.050	0.230	-1.000	1.180
2020/01/31 09:31:54.8	107.050	0.260	-1.030	1.190
2020/01/31 09:31:54.9	107.050	0.290	-1.050	1.190
2020/01/31 09:31:55.0	107.050	0.320	-1.060	1.190
2020/01/31 09:31:55.1	107.050	0.340	-1.070	1.190
2020/01/31 09:31:55.2	107.050	0.370	-1.070	1.190
2020/01/31 09:31:55.3	107.070	0.390	-1.070	1.190
2020/01/31 09:31:55.4	107.060	0.410	-1.060	1.190
2020/01/31 09:31:55.5	107.060	0.430	-1.050	1.190
2020/01/31 09:31:55.6	107.060	0.450	-1.030	1.190
2020/01/31 09:31:55.7	107.050	0.460	-1.000	1.180
2020/01/31 09:31:55.8	107.050	0.470	-0.980	1.180
2020/01/31 09:31:55.9	107.040	0.480	-0.940	1.180
2020/01/31 09:31:56.0	107.040	0.490	-0.910	1.170
2020/01/31 09:31:56.1	107.030	0.490	-0.870	1.160
2020/01/31 09:31:56.2	107.020	0.490	-0.820	1.150
2020/01/31 09:31:56.3	107.010	0.490	-0.780	1.140
2020/01/31 09:31:56.4	107.000	0.490	-0.730	1.130
2020/01/31 09:31:56.5	106.990	0.480	-0.670	1.120
2020/01/31 09:31:56.6	106.980	0.480	-0.620	1.100
2020/01/31 09:31:56.7	106.970	0.470	-0.560	1.080
2020/01/31 09:31:56.8	106.960	0.450	-0.510	1.060
2020/01/31 09:31:56.9	106.950	0.440	-0.450	1.040
2020/01/31 09:31:57.0	106.940	0.420	-0.400	1.020
2020/01/31 09:31:57.1	106.930	0.410	-0.340	0.990
2020/01/31 09:31:57.2	106.920	0.390	-0.280	0.960
2020/01/31 09:31:57.3	106.920	0.370	-0.230	0.930
2020/01/31 09:31:57.4	106.910	0.340	-0.170	0.900
2020/01/31 09:31:57.5	106.910	0.320	-0.120	0.860
2020/01/31 09:31:57.6	106.900	0.300	-0.070	0.830
2020/01/31 09:31:57.7	106.900	0.270	-0.020	0.790
2020/01/31 09:31:57.8	106.900	0.240	0.020	0.750
2020/01/31 09:31:57.9	106.910	0.220	0.060	0.710
2020/01/31 09:31:58.0	106.910	0.190	0.100	0.670
2020/01/31 09:31:58.1	106.920	0.160	0.140	0.620
2020/01/31 09:31:58.2	106.920	0.130	0.170	0.580
2020/01/31 09:31:58.3	106.930	0.110	0.190	0.540
2020/01/31 09:31:58.4	106.940	0.080	0.220	0.490
2020/01/31 09:31:58.5	106.950	0.050	0.240	0.450
2020/01/31 09:31:58.6	106.960	0.030	0.260	0.410
2020/01/31 09:31:58.7	106.970	0.000	0.270	0.370
2020/01/31 09:31:58.8	106.980	-0.020	0.270	0.330
2020/01/31 09:31:58.9	106.990	-0.050	0.280	0.300
2020/01/31 09:31:59.0	107.000	-0.070	0.270	0.260
2020/01/31 09:31:59.1	107.020	-0.090	0.270	0.230
2020/01/31 09:31:59.2	107.030	-0.110	0.260	0.200
2020/01/31 09:31:59.3	107.050	-0.130	0.240	0.180
2020/01/31 09:31:59.4	107.060	-0.150	0.220	0.150
2020/01/31 09:31:59.5	107.070	-0.170	0.200	0.130
2020/01/31 09:31:59.6	107.080	-0.180	0.170	0.110
2020/01/31 09:31:59.7	107.090	-0.200	0.140	0.100
2020/01/31 09:31:59.8	107.100	-0.210	0.110	0.090
2020/01/31 09:31:59.9	107.100	-0.220	0.070	0.080
2020/01/31 09:32:00.0	107.110	-0.230	0.030	0.070
2020/01/31 09:32:00.1	107.120	-0.240	-0.010	0.070
2020/01/31 09:32:00.2	107.130	-0.240	-0.050	0.070
2020/01/31 09:32:00.3	107.130	-0.250	-0.090	0.070
2020/01/31 09:32:00.4	107.140	-0.250	-0.130	0.070
2020/01/31 09:32:00.5	107.140	-0.260	-0.170	0.080
2020/01/31 09:32:00.6	107.150	-0.260	-0.210	0.090
2020/01/31 09:32:00.7	107.160	-0.260	-0.240	0.100
2020/01/31 09:32:00.8	107.160	-0.260	-0.280	0.110
2020/01/31 09:32:00.9	107.170	-0.260	-0.310	0.120
2020/01/31 09:32:01.0	107.170	-0.260	-0.340	0.130
2020/01/31 09:32:01.1	107.180	-0.260	-0.370	0.150
2020/01/31 09:32:01.2	107.180	-0.260	-0.390	0.160
2020/01/31 09:32:01.3	107.190	-0.260	-0.410	0.180
2020/01/31 09:32:01.4	107.190	-0.260	-0.430	0.200
2020/01/31 09:32:01.5	107.190	-0.260	-0.440	0.220
2020/01/31 09:32:01.6	107.190	-0.260	-0.440	0.250
2020/01/31 09:32:01.7	107.190	-0.250	-0.440	0.270
2020/01/31 09:32:01.8	107.190	-0.250	-0.440	0.290
2020/01/31 09:32:01.9	107.180	-0.250	-0.430	0.320
2020/01/31 09:32:02.0	107.180	-0.260	-0.420	0.350
2020/01/31 09:32:02.1	107.170	-0.260	-0.400	0.370
2020/01/31 09:32:02.2	107.160	-0.260	-0.380	0.400
2020/01/31 09:32:02.3	107.150	-0.260	-0.350	0.430
2020/01/31 09:32:02.4	107.140	-0.260	-0.320	0.460
2020/01/31 09:32:02.5	107.130	-0.270	-0.290	0.490
2020/01/31 09:32:02.6	107.120	-0.270	-0.250	0.520
2020/01/31 09:32:02.7	107.110	-0.270	-0.210	0.550
2020/01/31 09:32:02.8	107.090	-0.280	-0.170	0.580
2020/01/31 09:32:02.9	107.080	-0.280	-0.120	0.610
2020/01/31 09:32:03.0	107.070	-0.290	-0.080	0.630
2020/01/31 09:32:03.1	107.050	-0.300	-0.030	0.660
2020/01/31 09:32:03.2	107.040	-0.300	0.020	0.690
2020/01/31 09:32:03.3	107.020	-0.310	0.070	0.710
2020/01/31 09:32:03.4	107.000	-0.320	0.130	0.740
2020/01/31 09:32:03.5	106.990	-0.320	0.180	0.760
2020/01/31 09:32:03.6	106.970	-0.330	0.230	0.780
2020/01/31 09:32:03.7	106.960	-0.340	0.280	0.790
2020/01/31 09:32:03.8	106.950	-0.340	0.330	0.810
2020/01/31 09:32:03.9	106.940	-0.350	0.370	0.820
2020/01/31 09:32:04.0	106.920	-0.350	0.420	0.840
2020/01/31 09:32:04.1	106.910	-0.350	0.460	0.840
2020/01/31 09:32:04.2	106.900	-0.360	0.490	0.850
2020/01/31 09:32:04.3	106.890	-0.360	0.520	0.860
2020/01/31 09:32:04.4	106.870	-0.360	0.550	0.850
2020/01/31 09:32:04.5	106.860	-0.350	0.570	0.850
2020/01/31 09:32:04.6	106.860	-0.350	0.580	0.850
2020/01/31 09:32:04.7	106.850	-0.340	0.590	0.840
2020/01/31 09:32:04.8	106.840	-0.330	0.590	0.830
2020/01/31 09:32:04.9	106.840	-0.320	0.590	0.820
2020/01/31 09:32:05.0	106.830	-0.310	0.570	0.810
2020/01/31 09:32:05.1	106.830	-0.290	0.560	0.790
2020/01/31 09:32:05.2	106.830	-0.280	0.530	0.780
2020/01/31 09:32:05.3	106.820	-0.250	0.500	0.750
2020/01/31 09:32:05.4	106.820	-0.230	0.460	0.730
2020/01/31 09:32:05.5	106.820	-0.200	0.410	0.710
2020/01/31 09:32:05.6	106.820	-0.180	0.360	0.680
2020/01/31 09:32:05.7	106.830	-0.150	0.300	0.650
2020/01/31 09:32:05.8	106.830	-0.110	0.240	0.620
2020/01/31 09:32:05.9	106.840	-0.080	0.170	0.590
2020/01/31 09:32:06.0	106.850	-0.040	0.090	0.550
2020/01/31 09:32:06.1	106.860	0.000	0.010	0.520
2020/01/31 09:32:06.2	106.880	0.040	-0.070	0.480
2020/01/31 09:32:06.3	106.890	0.090	-0.160	0.440
2020/01/31 09:32:06.4	106.910	0.130	-0.250	0.400
2020/01/31 09:32:06.5	106.930	0.180	-0.340	0.370
2020/01/31 09:32:06.6	106.950	0.220	-0.430	0.330
2020/01/31 09:32:06.7	106.970	0.270	-0.520	0.300
2020/01/31 09:32:06.8	106.990	0.320	-0.610	0.260
2020/01/31 09:32:06.9	107.010	0.360	-0.690	0.230
2020/01/31 09:32:07.0	107.030	0.410	-0.780	0.200
2020/01/31 09:32:07.1	107.060	0.460	-0.860	0.170
2020/01/31 09:32:07.2	107.080	0.500	-0.940	0.150
2020/01/31 09:32:07.3	107.100	0.540	-1.020	0.120
2020/01/31 09:32:07.4	107.150	0.580	-1.090	0.100
2020/01/31 09:32:07.5	107.170	0.620	-1.150	0.090
2020/01/31 09:32:07.6	107.190	0.660	-1.210	0.070
2020/01/31 09:32:07.7	107.210	0.700	-1.260	0.060
2020/01/31 09:32:07.8	107.230	0.730	-1.310	0.060
2020/01/31 09:32:07.9	107.250	0.750	-1.340	0.050
2020/01/31 09:32:08.0	107.270	0.780	-1.370	0.050
2020/01/31 09:32:08.1	107.280	0.800	-1.390	0.050
2020/01/31 09:32:08.2	107.300	0.820	-1.410	0.060
2020/01/31 09:32:08.3	107.320	0.830	-1.410	0.070
2020/01/31 09:32:08.4	107.330	0.840	-1.410	0.080
2020/01/31 09:32:08.5	107.330	0.850	-1.400	0.100
2020/01/31 09:32:08.6	107.340	0.850	-1.370	0.120
2020/01/31 09:32:08.7	107.350	0.850	-1.340	0.140
2020/01/31 09:32:08.8	107.350	0.840	-1.310	0.170
2020/01/31 09:32:08.9	107.350	0.830	-1.260	0.190
2020/01/31 09:32:09.0	107.350	0.810	-1.200	0.220
2020/01/31 09:32:09.1	107.340	0.790	-1.140	0.260
2020/01/31 09:32:09.2	107.340	0.770	-1.070	0.290
2020/01/31 09:32:09.3	107.330	0.740	-0.990	0.330
2020/01/31 09:32:09.4	107.320	0.710	-0.910	0.370
2020/01/31 09:32:09.5	107.310	0.670	-0.820	0.410
2020/01/31 09:32:09.6	107.290	0.640	-0.730	0.460
2020/01/31 09:32:09.7	107.280	0.590	-0.630	0.500
2020/01/31 09:32:09.8	107.260	0.550	-0.530	0.550
2020/01/31 09:32:09.9	107.240	0.500	-0.420	0.600
2020/01/31 09:32:10.0	107.220	0.450	-0.310	0.640
2020/01/31 09:32:10.1	107.200	0.400	-0.200	0.690
2020/01/31 09:32:10.2	107.170	0.340	-0.090	0.740
2020/01/31 09:32:10.3	107.140	0.290	0.030	0.790
2020/01/31 09:32:10.4	107.120	0.230	0.140	0.830
2020/01/31 09:32:10.5	107.100	0.170	0.260	0.880
2020/01/31 09:32:10.6	107.080	0.100	0.370	0.920
2020/01/31 09:32:10.7	107.060	0.040	0.480	0.970
2020/01/31 09:32:10.8	107.040	-0.020	0.590	1.010
2020/01/31 09:32:10.9	107.020	-0.080	0.700	1.050
2020/01/31 09:32:11.0	107.000	-0.150	0.800	1.090
2020/01/31 09:32:11.1	106.980	-0.210	0.900	1.120
2020/01/31 09:32:11.2	106.970	-0.270	1.000	1.150
2020/01/31 09:32:11.3	106.950	-0.330	1.090	1.180
2020/01/31 09:32:11.4	106.930	-0.390	1.170	1.210
2020/01/31 09:32:11.5	106.920	-0.450	1.250	1.230
2020/01/31 09:32:11.6	106.910	-0.500	1.310	1.250
2020/01/31 09:32:11.7	106.910	-0.560	1.380	1.270
2020/01/31 09:32:11.8	106.910	-0.610	1.430	1.280
2020/01/31 09:32:11.9	106.910	-0.650	1.470	1.290
2020/01/31 09:32:12.0	106.910	-0.690	1.510	1.300
2020/01/31 09:32:12.1	106.910	-0.730	1.530	1.300
2020/01/31 09:32:12.2	106.910	-0.770	1.550	1.300
2020/01/31 09:32:12.3	106.920	-0.800	1.560	1.300
2020/01/31 09:32:12.4	106.920	-0.830	1.550	1.290
2020/01/31 09:32:12.5	106.930	-0.850	1.530	1.290
2020/01/31 09:32:12.6	106.950	-0.870	1.510	1.280
2020/01/31 09:32:12.7	106.960	-0.880	1.470	1.260
2020/01/31 09:32:12.8	106.980	-0.890	1.420	1.250
2020/01/31 09:32:12.9	106.990	-0.890	1.360	1.230
2020/01/31 09:32:13.0	107.010	-0.880	1.290	1.220
2020/01/31 09:32:13.1	107.030	-0.870	1.210	1.200
2020/01/31 09:32:13.2	107.050	-0.860	1.110	1.180
2020/01/31 09:32:13.3	107.080	-0.840	1.010	1.160
2020/01/31 09:32:13.4	107.100	-0.810	0.900	1.140
2020/01/31 09:32:13.5	107.120	-0.780	0.780	1.120
2020/01/31 09:32:13.6	107.140	-0.750	0.650	1.090
2020/01/31 09:32:13.7	107.160	-0.710	0.520	1.070
2020/01/31 09:32:13.8	107.190	-0.670	0.370	1.050
2020/01/31 09:32:13.9	107.210	-0.620	0.230	1.030
2020/01/31 09:32:14.0	107.230	-0.570	0.080	1.000
2020/01/31 09:32:14.1	107.250	-0.510	-0.080	0.980
2020/01/31 09:32:14.2	107.270	-0.450	-0.230	0.960
2020/01/31 09:32:14.3	107.280	-0.390	-0.390	0.940
2020/01/31 09:32:14.4	107.300	-0.330	-0.550	0.920
2020/01/31 09:32:14.5	107.320	-0.270	-0.700	0.900
2020/01/31 09:32:14.6	107.330	-0.210	-0.860	0.880
2020/01/31 09:32:14.7	107.340	-0.140	-1.010	0.860
2020/01/31 09:32:14.8	107.350	-0.080	-1.150	0.840
2020/01/31 09:32:14.9	107.350	-0.010	-1.290	0.820
2020/01/31 09:32:15.0	107.360	0.050	-1.420	0.810
2020/01/31 09:32:15.1	107.360	0.120	-1.540	0.790
2020/01/31 09:32:15.2	107.360	0.180	-1.660	0.780
2020/01/31 09:32:15.3	107.370	0.230	-1.760	0.770
2020/01/31 09:32:15.4	107.360	0.290	-1.860	0.750
2020/01/31 09:32:15.5	107.350	0.340	-1.940	0.740
2020/01/31 09:32:15.6	107.340	0.390	-2.010	0.730
2020/01/31 09:32:15.7	107.330	0.440	-2.070	0.720
2020/01/31 09:32:15.8	107.310	0.480	-2.110	0.710
2020/01/31 09:32:15.9	107.300	0.510	-2.140	0.700
2020/01/31 09:32:16.0	107.280	0.550	-2.160	0.700
2020/01/31 09:32:16.1	107.260	0.580	-2.160	0.690
2020/01/31 09:32:16.2	107.240	0.600	-2.150	0.680
2020/01/31 09:32:16.3	107.230	0.620	-2.130	0.670
2020/01/31 09:32:16.4	107.200	0.630	-2.100	0.670
2020/01/31 09:32:16.5	107.180	0.640	-2.050	0.660
2020/01/31 09:32:16.6	107.160	0.650	-1.990	0.650
2020/01/31 09:32:16.7	107.140	0.650	-1.920	0.650
2020/01/31 09:32:16.8	107.120	0.640	-1.840	0.640
2020/01/31 09:32:16.9	107.100	0.640	-1.750	0.640
2020/01/31 09:32:17.0	107.080	0.620	-1.660	0.640
2020/01/31 09:32:17.1	107.060	0.610	-1.550	0.640
2020/01/31 09:32:17.2	107.040	0.590	-1.440	0.640
2020/01/31 09:32:17.3	107.020	0.570	-1.320	0.640
2020/01/31 09:32:17.4	107.000	0.540	-1.190	0.630
2020/01/31 09:32:17.5	106.980	0.520	-1.070	0.640
2020/01/31 09:32:17.6	106.970	0.490	-0.940	0.640
2020/01/31 09:32:17.7	106.950	0.460	-0.800	0.650
2020/01/31 09:32:17.8	106.940	0.420	-0.670	0.650
2020/01/31 09:32:17.9	106.930	0.390	-0.530	0.660
2020/01/31 09:32:18.0	106.920	0.350	-0.400	0.670
2020/01/31 09:32:18.1	106.920	0.320	-0.270	0.680
2020/01/31 09:32:18.2	106.910	0.280	-0.140	0.690
2020/01/31 09:32:18.3	106.910	0.240	-0.010	0.700
2020/01/31 09:32:18.4	106.900	0.210	0.110	0.710
2020/01/31 09:32:18.5	106.900	0.170	0.230	0.720
2020/01/31 09:32:18.6	106.910	0.140	0.350	0.730
2020/01/31 09:32:18.7	106.910	0.100	0.460	0.740
2020/01/31 09:32:18.8	106.910	0.070	0.560	0.760
2020/01/31 09:32:18.9	106.920	0.030	0.650	0.770
2020/01/31 09:32:19.0	106.930	0.000	0.740	0.780
2020/01/31 09:32:19.1	106.940	-0.030	0.820	0.790
2020/01/31 09:32:19.2	106.950	-0.060	0.900	0.800
2020/01/31 09:32:19.3	106.970	-0.090	0.960	0.810
2020/01/31 09:32:19.4	106.990	-0.110	1.020	0.810
2020/01/31 09:32:19.5	107.000	-0.140	1.070	0.820
2020/01/31 09:32:19.6	107.030	-0.160	1.110	0.820
2020/01/31 09:32:19.7	107.050	-0.190	1.150	0.820
2020/01/31 09:32:19.8	107.070	-0.210	1.170	0.820
2020/01/31 09:32:19.9	107.100	-0.230	1.190	0.810
2020/01/31 09:32:20.0	107.130	-0.250	1.200	0.800
2020/01/31 09:32:20.1	107.160	-0.270	1.200	0.790
2020/01/31 09:32:20.2	107.190	-0.280	1.200	0.780
2020/01/31 09:32:20.3	107.210	-0.300	1.190	0.750
2020/01/31 09:32:20.4	107.240	-0.310	1.170	0.730
2020/01/31 09:32:20.5	107.270	-0.320	1.150	0.710
2020/01/31 09:32:20.6	107.310	-0.340	1.120	0.690
2020/01/31 09:32:20.7	107.340	-0.350	1.090	0.660
2020/01/31 09:32:20.8	107.370	-0.360	1.050	0.630
2020/01/31 09:32:20.9	107.400	-0.370	1.010	0.600
2020/01/31 09:32:21.0	107.430	-0.380	0.960	0.580
2020/01/31 09:32:21.1	107.460	-0.390	0.910	0.550
2020/01/31 09:32:21.2	107.490	-0.390	0.860	0.520
2020/01/31 09:32:21.3	107.510	-0.400	0.810	0.490
2020/01/31 09:32:21.4	107.530	-0.400	0.750	0.460
2020/01/31 09:32:21.5	107.550	-0.410	0.690	0.430
2020/01/31 09:32:21.6	107.570	-0.410	0.630	0.410
2020/01/31 09:32:21.7	107.590	-0.410	0.570	0.390
2020/01/31 09:32:21.8	107.600	-0.420	0.510	0.370
2020/01/31 09:32:21.9	107.610	-0.420	0.450	0.350
2020/01/31 09:32:22.0	107.620	-0.420	0.390	0.340
2020/01/31 09:32:22.1	107.630	-0.410	0.330	0.330
2020/01/31 09:32:22.2	107.630	-0.410	0.270	0.320
2020/01/31 09:32:22.3	107.620	-0.410	0.210	0.310
2020/01/31 09:32:22.4	107.620	-0.400	0.150	0.310
2020/01/31 09:32:22.5	107.620	-0.390	0.090	0.310
2020/01/31 09:32:22.6	107.610	-0.390	0.030	0.320
2020/01/31 09:32:22.7	107.600	-0.380	-0.030	0.340
2020/01/31 09:32:22.8	107.580	-0.360	-0.080	0.350
2020/01/31 09:32:22.9	107.570	-0.350	-0.140	0.370
2020/01/31 09:32:23.0	107.550	-0.340	-0.190	0.390
2020/01/31 09:32:23.1	107.530	-0.320	-0.250	0.420
2020/01/31 09:32:23.2	107.510	-0.300	-0.300	0.450
2020/01/31 09:32:23.3	107.470	-0.280	-0.350	0.480
2020/01/31 09:32:23.4	107.450	-0.260	-0.400	0.510
2020/01/31 09:32:23.5	107.430	-0.240	-0.450	0.540
2020/01/31 09:32:23.6	107.400	-0.210	-0.500	0.580
2020/01/31 09:32:23.7	107.380	-0.180	-0.540	0.610
2020/01/31 09:32:23.8	107.360	-0.160	-0.580	0.640
2020/01/31 09:32:23.9	107.330	-0.130	-0.620	0.680
2020/01/31 09:32:24.0	107.310	-0.090	-0.660	0.710
2020/01/31 09:32:24.1	107.290	-0.060	-0.700	0.740
2020/01/31 09:32:24.2	107.270	-0.030	-0.730	0.770
2020/01/31 09:32:24.3	107.250	0.010	-0.770	0.790
2020/01/31 09:32:24.4	107.230	0.040	-0.800	0.810
2020/01/31 09:32:24.5	107.220	0.080	-0.830	0.840
2020/01/31 09:32:24.6	107.200	0.120	-0.850	0.850
2020/01/31 09:32:24.7	107.190	0.160	-0.880	0.870
2020/01/31 09:32:24.8	107.180	0.190	-0.900	0.880
2020/01/31 09:32:24.9	107.180	0.230	-0.920	0.900
2020/01/31 09:32:25.0	107.170	0.270	-0.930	0.900
2020/01/31 09:32:25.1	107.170	0.300	-0.950	0.910
2020/01/31 09:32:25.2	107.170	0.340	-0.960	0.910
2020/01/31 09:32:25.3	107.180	0.370	-0.960	0.920
2020/01/31 09:32:25.4	107.180	0.400	-0.970	0.920
2020/01/31 09:32:25.5	107.180	0.430	-0.970	0.910
2020/01/31 09:32:25.6	107.180	0.460	-0.970	0.910
2020/01/31 09:32:25.7	107.180	0.490	-0.960	0.900
2020/01/31 09:32:25.8	107.190	0.510	-0.950	0.900
2020/01/31 09:32:25.9	107.190	0.530	-0.940	0.890
2020/01/31 09:32:26.0	107.190	0.550	-0.930	0.880
2020/01/31 09:32:26.1	107.190	0.570	-0.910	0.860
2020/01/31 09:32:26.2	107.200	0.580	-0.890	0.850
2020/01/31 09:32:26.3	107.190	0.600	-0.870	0.840
2020/01/31 09:32:26.4	107.190	0.600	-0.840	0.820
2020/01/31 09:32:26.5	107.200	0.610	-0.810	0.800
2020/01/31 09:32:26.6	107.200	0.610	-0.780	0.790
2020/01/31 09:32:26.7	107.200	0.610	-0.740	0.760
2020/01/31 09:32:26.8	107.200	0.610	-0.710	0.740
2020/01/31 09:32:26.9	107.200	0.600	-0.670	0.720
2020/01/31 09:32:27.0	107.210	0.600	-0.620	0.690
2020/01/31 09:32:27.1	107.210	0.580	-0.580	0.670
2020/01/31 09:32:27.2	107.210	0.570	-0.530	0.640
2020/01/31 09:32:27.3	107.230	0.560	-0.480	0.610
2020/01/31 09:32:27.4	107.230	0.540	-0.440	0.580
2020/01/31 09:32:27.5	107.240	0.520	-0.390	0.540
2020/01/31 09:32:27.6	107.250	0.500	-0.340	0.510
2020/01/31 09:32:27.7	107.260	0.470	-0.290	0.480
2020/01/31 09:32:27.8	107.270	0.450	-0.240	0.450
2020/01/31 09:32:27.9	107.280	0.420	-0.190	0.420
2020/01/31 09:32:28.0	107.280	0.390	-0.140	0.380
2020/01/31 09:32:28.1	107.300	0.360	-0.090	0.350
2020/01/31 09:32:28.2	107.310	0.330	-0.050	0.320
2020/01/31 09:32:28.3	107.320	0.300	-0.000	0.300
2020/01/31 09:32:28.4	107.310	0.270	0.040	0.270
2020/01/31 09:32:28.5	107.330	0.240	0.080	0.250
2020/01/31 09:32:28.6	107.340	0.210	0.120	0.230
2020/01/31 09:32:28.7	107.340	0.170	0.160	0.210
2020/01/31 09:32:28.8	107.350	0.140	0.190	0.200
2020/01/31 09:32:28.9	107.360	0.110	0.220	0.190
2020/01/31 09:32:29.0	107.370	0.070	0.250	0.180
2020/01/31 09:32:29.1	107.380	0.040	0.280	0.180
2020/01/31 09:32:29.2	107.380	0.010	0.310	0.180
2020/01/31 09:32:29.3	107.380	-0.020	0.330	0.180
2020/01/31 09:32:29.4	107.380	-0.050	0.350	0.200
2020/01/31 09:32:29.5	107.390	-0.080	0.360	0.210
2020/01/31 09:32:29.6	107.390	-0.110	0.380	0.230
2020/01/31 09:32:29.7	107.390	-0.140	0.390	0.250
2020/01/31 09:32:29.8	107.390	-0.170	0.400	0.280
2020/01/31 09:32:29.9	107.390	-0.200	0.400	0.310
2020/01/31 09:32:30.0	107.390	-0.220	0.410	0.340
2020/01/31 09:32:30.1	107.390	-0.240	0.400	0.380
2020/01/31 09:32:30.2	107.380	-0.270	0.400	0.420
2020/01/31 09:32:30.3	107.380	-0.290	0.400	0.460
2020/01/31 09:32:30.4	107.380	-0.310	0.390	0.500
2020/01/31 09:32:30.5	107.370	-0.320	0.380	0.550
2020/01/31 09:32:30.6	107.370	-0.340	0.360	0.600
2020/01/31 09:32:30.7	107.360	-0.350	0.340	0.640
2020/01/31 09:32:30.8	107.350	-0.370	0.320	0.690
2020/01/31 09:32:30.9	107.340	-0.380	0.300	0.740
2020/01/31 09:32:31.0	107.330	-0.390	0.280	0.800
2020/01/31 09:32:31.1	107.330	-0.390	0.250	0.840
2020/01/31 09:32:31.2	107.320	-0.400	0.220	0.890
2020/01/31 09:32:31.3	107.300	-0.400	0.190	0.940
2020/01/31 09:32:31.4	107.300	-0.410	0.150	0.990
2020/01/31 09:32:31.5	107.290	-0.410	0.120	1.040
2020/01/31 09:32:31.6	107.280	-0.410	0.080	1.080
2020/01/31 09:32:31.7	107.270	-0.400	0.040	1.120
2020/01/31 09:32:31.8	107.250	-0.400	0.000	1.160
2020/01/31 09:32:31.9	107.240	-0.390	-0.040	1.200
2020/01/31 09:32:32.0	107.220	-0.380	-0.080	1.240
2020/01/31 09:32:32.1	107.210	-0.370	-0.120	1.270
2020/01/31 09:32:32.2	107.190	-0.360	-0.160	1.300
2020/01/31 09:32:32.3	107.190	-0.350	-0.200	1.330
2020/01/31 09:32:32.4	107.170	-0.340	-0.240	1.350
2020/01/31 09:32:32.5	107.160	-0.320	-0.280	1.370
2020/01/31 09:32:32.6	107.150	-0.310	-0.320	1.390
2020/01/31 09:32:32.7	107.140	-0.290	-0.360	1.410
2020/01/31 09:32:32.8	107.120	-0.280	-0.390	1.420
2020/01/31 09:32:32.9	107.110	-0.260	-0.420	1.430
2020/01/31 09:32:33.0	107.100	-0.240	-0.450	1.440
2020/01/31 09:32:33.1	107.090	-0.220	-0.480	1.450
2020/01/31 09:32:33.2	107.090	-0.210	-0.500	1.450
2020/01/31 09:32:33.3	107.080	-0.190	-0.520	1.450
2020/01/31 09:32:33.4	107.070	-0.170	-0.540	1.450
2020/01/31 09:32:33.5	107.070	-0.150	-0.550	1.450
2020/01/31 09:32:33.6	107.070	-0.140	-0.560	1.450
2020/01/31 09:32:33.7	107.060	-0.120	-0.560	1.450
2020/01/31 09:32:33.8	107.060	-0.110	-0.560	1.450
2020/01/31 09:32:33.9	107.060	-0.090	-0.560	1.440
2020/01/31 09:32:34.0	107.060	-0.080	-0.550	1.440
2020/01/31 09:32:34.1	107.060	-0.060	-0.540	1.430
2020/01/31 09:32:34.2	107.060	-0.050	-0.530	1.430
2020/01/31 09:32:34.3	107.060	-0.040	-0.510	1.420
2020/01/31 09:32:34.4	107.060	-0.030	-0.490	1.410
2020/01/31 09:32:34.5	107.060	-0.020	-0.470	1.400
2020/01/31 09:32:34.6	107.070	-0.010	-0.450	1.400
2020/01/31 09:32:34.7	107.070	-0.010	-0.420	1.390
2020/01/31 09:32:34.8	107.080	0.000	-0.400	1.380
2020/01/31 09:32:34.9	107.080	0.010	-0.370	1.360
2020/01/31 09:32:35.0	107.090	0.010	-0.340	1.350
2020/01/31 09:32:35.1	107.090	0.010	-0.310	1.340
2020/01/31 09:32:35.2	107.100	0.010	-0.280	1.320
2020/01/31 09:32:35.3	107.110	0.020	-0.250	1.300
2020/01/31 09:32:35.4	107.120	0.020	-0.210	1.280
2020/01/31 09:32:35.5	107.130	0.020	-0.180	1.260
2020/01/31 09:32:35.6	107.140	0.020	-0.150	1.230
2020/01/31 09:32:35.7	107.150	0.020	-0.120	1.200
2020/01/31 09:32:35.8	107.160	0.020	-0.090	1.170
2020/01/31 09:32:35.9	107.180	0.010	-0.060	1.140
2020/01/31 09:32:36.0	107.190	0.010	-0.040	1.100
2020/01/31 09:32:36.1	107.200	0.010	-0.020	1.060
2020/01/31 09:32:36.2	107.210	0.010	0.000	1.020
2020/01/31 09:32:36.3	107.230	0.010	0.020	0.980
2020/01/31 09:32:36.4	107.240	0.010	0.040	0.930
2020/01/31 09:32:36.5	107.250	0.010	0.050	0.880
2020/01/31 09:32:36.6	107.260	0.010	0.060	0.840
2020/01/31 09:32:36.7	107.270	0.020	0.070	0.780
2020/01/31 09:32:36.8	107.280	0.020	0.070	0.730
2020/01/31 09:32:36.9	107.290	0.020	0.080	0.680
2020/01/31 09:32:37.0	107.300	0.030	0.080	0.630
2020/01/31 09:32:37.1	107.310	0.030	0.070	0.570
2020/01/31 09:32:37.2	107.310	0.040	0.070	0.520
2020/01/31 09:32:37.3	107.320	0.050	0.060	0.460
2020/01/31 09:32:37.4	107.330	0.050	0.050	0.400
2020/01/31 09:32:37.5	107.330	0.060	0.030	0.350
2020/01/31 09:32:37.6	107.330	0.070	0.020	0.300
2020/01/31 09:32:37.7	107.330	0.080	0.010	0.250
2020/01/31 09:32:37.8	107.330	0.090	-0.010	0.200
2020/01/31 09:32:37.9	107.330	0.100	-0.030	0.160
2020/01/31 09:32:38.0	107.330	0.110	-0.040	0.120
2020/01/31 09:32:38.1	107.330	0.120	-0.060	0.080
2020/01/31 09:32:38.2	107.320	0.130	-0.080	0.040
2020/01/31 09:32:38.3	107.320	0.140	-0.090	0.010
2020/01/31 09:32:38.4	107.300	0.150	-0.110	-0.020
2020/01/31 09:32:38.5	107.290	0.160	-0.120	-0.040
2020/01/31 09:32:38.6	107.280	0.160	-0.140	-0.060
2020/01/31 09:32:38.7	107.270	0.170	-0.150	-0.080
2020/01/31 09:32:38.8	107.260	0.180	-0.170	-0.090
2020/01/31 09:32:38.9	107.240	0.180	-0.180	-0.100
2020/01/31 09:32:39.0	107.230	0.180	-0.190	-0.100
2020/01/31 09:32:39.1	107.210	0.190	-0.200	-0.100
2020/01/31 09:32:39.2	107.200	0.190	-0.200	-0.100
2020/01/31 09:32:39.3	107.180	0.190	-0.210	-0.090
2020/01/31 09:32:39.4	107.160	0.190	-0.210	-0.080
2020/01/31 09:32:39.5	107.140	0.180	-0.220	-0.070
2020/01/31 09:32:39.6	107.120	0.180	-0.220	-0.050
2020/01/31 09:32:39.7	107.100	0.170	-0.220	-0.030
2020/01/31 09:32:39.8	107.080	0.170	-0.220	-0.010
2020/01/31 09:32:39.9	107.060	0.160	-0.220	0.010
2020/01/31 09:32:40.0	107.040	0.150	-0.220	0.030
2020/01/31 09:32:40.1	107.020	0.140	-0.220	0.060
2020/01/31 09:32:40.2	107.000	0.130	-0.220	0.080
2020/01/31 09:32:40.3	106.970	0.120	-0.210	0.110
2020/01/31 09:32:40.4	106.950	0.110	-0.210	0.130
2020/01/31 09:32:40.5	106.930	0.100	-0.210	0.160
2020/01/31 09:32:40.6	106.910	0.090	-0.210	0.180
2020/01/31 09:32:40.7	106.900	0.080	-0.210	0.210
2020/01/31 09:32:40.8	106.880	0.070	-0.210	0.230
2020/01/31 09:32:40.9	106.860	0.060	-0.210	0.260
2020/01/31 09:32:41.0	106.850	0.050	-0.220	0.280
2020/01/31 09:32:41.1	106.840	0.040	-0.220	0.300
2020/01/31 09:32:41.2	106.820	0.030	-0.230	0.320
2020/01/31 09:32:41.3	106.810	0.030	-0.230	0.340
2020/01/31 09:32:41.4	106.800	0.020	-0.240	0.360
2020/01/31 09:32:41.5	106.790	0.020	-0.250	0.380
2020/01/31 09:32:41.6	106.780	0.010	-0.260	0.400
2020/01/31 09:32:41.7	106.770	0.010	-0.270	0.420
2020/01/31 09:32:41.8	106.770	0.010	-0.280	0.440
2020/01/31 09:32:41.9	106.760	0.010	-0.300	0.470
2020/01/31 09:32:42.0	106.760	0.010	-0.310	0.490
2020/01/31 09:32:42.1	106.750	0.020	-0.320	0.510
2020/01/31 09:32:42.2	106.750	0.020	-0.340	0.530
2020/01/31 09:32:42.3	106.750	0.030	-0.350	0.550
2020/01/31 09:32:42.4	106.750	0.030	-0.360	0.580
2020/01/31 09:32:42.5	106.750	0.040	-0.380	0.600
2020/01/31 09:32:42.6	106.750	0.050	-0.390	0.630
2020/01/31 09:32:42.7	106.750	0.060	-0.400	0.650
2020/01/31 09:32:42.8	106.760	0.070	-0.410	0.680
2020/01/31 09:32:42.9	106.760	0.080	-0.410	0.700
2020/01/31 09:32:43.0	106.770	0.090	-0.420	0.730
2020/01/31 09:32:43.1	106.780	0.100	-0.420	0.760
2020/01/31 09:32:43.2	106.790	0.110	-0.420	0.780
2020/01/31 09:32:43.3	106.790	0.120	-0.410	0.800
2020/01/31 09:32:43.4	106.800	0.120	-0.410	0.830
2020/01/31 09:32:43.5	106.810	0.130	-0.400	0.850
2020/01/31 09:32:43.6	106.820	0.140	-0.390	0.880
2020/01/31 09:32:43.7	106.830	0.140	-0.380	0.900
2020/01/31 09:32:43.8	106.840	0.150	-0.360	0.930
2020/01/31 09:32:43.9	106.850	0.150	-0.350	0.950
2020/01/31 09:32:44.0	106.870	0.150	-0.330	0.970
2020/01/31 09:32:44.1	106.880	0.150	-0.310	1.000
2020/01/31 09:32:44.2	106.890	0.150	-0.280	1.020
2020/01/31 09:32:44.3	106.930	0.150	-0.260	1.040
2020/01/31 09:32:44.4	106.940	0.150	-0.240	1.060
2020/01/31 09:32:44.5	106.950	0.140	-0.210	1.080
2020/01/31 09:32:44.6	106.970	0.130	-0.180	1.100
2020/01/31 09:32:44.7	106.980	0.130	-0.150	1.110
2020/01/31 09:32:44.8	106.990	0.120	-0.120	1.130
2020/01/31 09:32:44.9	107.000	0.110	-0.090	1.140
2020/01/31 09:32:45.0	107.010	0.090	-0.070	1.150
2020/01/31 09:32:45.1	107.020	0.080	-0.040	1.160
2020/01/31 09:32:45.2	107.030	0.060	-0.010	1.170
2020/01/31 09:32:45.3	107.040	0.050	0.020	1.180
2020/01/31 09:32:45.4	107.060	0.030	0.050	1.180
2020/01/31 09:32:45.5	107.070	0.020	0.070	1.190
2020/01/31 09:32:45.6	107.070	-0.000	0.100	1.200
2020/01/31 09:32:45.7	107.080	-0.020	0.120	1.200
2020/01/31 09:32:45.8	107.090	-0.030	0.150	1.200
2020/01/31 09:32:45.9	107.090	-0.050	0.170	1.200
2020/01/31 09:32:46.0	107.100	-0.070	0.180	1.200
2020/01/31 09:32:46.1	107.100	-0.080	0.200	1.200
2020/01/31 09:32:46.2	107.100	-0.100	0.210	1.200
2020/01/31 09:32:46.3	107.100	-0.110	0.220	1.200
2020/01/31 09:32:46.4	107.100	-0.130	0.230	1.200
2020/01/31 09:32:46.5	107.100	-0.140	0.240	1.200
2020/01/31 09:32:46.6	107.100	-0.150	0.240	1.200
2020/01/31 09:32:46.7	107.090	-0.160	0.240	1.190
2020/01/31 09:32:46.8	107.090	-0.170	0.240	1.200
2020/01/31 09:32:46.9	107.090	-0.180	0.240	1.200
2020/01/31 09:32:47.0	107.080	-0.180	0.230	1.200
2020/01/31 09:32:47.1	107.080	-0.190	0.220	1.200
2020/01/31 09:32:47.2	107.070	-0.190	0.210	1.210
2020/01/31 09:32:47.3	107.070	-0.190	0.200	1.210
2020/01/31 09:32:47.4	107.060	-0.200	0.180	1.220
2020/01/31 09:32:47.5	107.050	-0.200	0.160	1.230
2020/01/31 09:32:47.6	107.040	-0.200	0.140	1.240
2020/01/31 09:32:47.7	107.030	-0.200	0.120	1.250
2020/01/31 09:32:47.8	107.010	-0.190	0.100	1.260
2020/01/31 09:32:47.9	107.000	-0.190	0.070	1.270
2020/01/31 09:32:48.0	106.990	-0.190	0.050	1.290
2020/01/31 09:32:48.1	106.970	-0.190	0.020	1.300
2020/01/31 09:32:48.2	106.960	-0.190	-0.000	1.310
2020/01/31 09:32:48.3	106.940	-0.180	-0.030	1.320
2020/01/31 09:32:48.4	106.930	-0.180	-0.050	1.330
2020/01/31 09:32:48.5	106.920	-0.180	-0.080	1.340
2020/01/31 09:32:48.6	106.900	-0.170	-0.100	1.340
2020/01/31 09:32:48.7	106.890	-0.170	-0.120	1.350
2020/01/31 09:32:48.8	106.880	-0.170	-0.140	1.350
2020/01/31 09:32:48.9	106.860	-0.170	-0.160	1.360
2020/01/31 09:32:49.0	106.850	-0.170	-0.180	1.360
2020/01/31 09:32:49.1	106.840	-0.170	-0.190	1.360
2020/01/31 09:32:49.2	106.830	-0.170	-0.210	1.350
2020/01/31 09:32:49.3	106.820	-0.170	-0.220	1.350
2020/01/31 09:32:49.4	106.820	-0.170	-0.240	1.340
2020/01/31 09:32:49.5	106.810	-0.170	-0.250	1.330
2020/01/31 09:32:49.6	106.800	-0.170	-0.260	1.310
2020/01/31 09:32:49.7	106.800	-0.170	-0.260	1.300
2020/01/31 09:32:49.8	106.790	-0.180	-0.270	1.290
2020/01/31 09:32:49.9	106.780	-0.180	-0.280	1.270
2020/01/31 09:32:50.0	106.780	-0.180	-0.280	1.250
2020/01/31 09:32:50.1	106.780	-0.180	-0.290	1.220
2020/01/31 09:32:50.2	106.770	-0.180	-0.290	1.200
2020/01/31 09:32:50.3	106.770	-0.190	-0.290	1.170
2020/01/31 09:32:50.4	106.770	-0.190	-0.290	1.140
2020/01/31 09:32:50.5	106.770	-0.190	-0.300	1.110
2020/01/31 09:32:50.6	106.770	-0.190	-0.300	1.080
2020/01/31 09:32:50.7	106.770	-0.190	-0.300	1.050
2020/01/31 09:32:50.8	106.770	-0.180	-0.310	1.020
2020/01/31 09:32:50.9	106.780	-0.180	-0.310	0.990
2020/01/31 09:32:51.0	106.780	-0.180	-0.320	0.950
2020/01/31 09:32:51.1	106.790	-0.170	-0.320	0.920
2020/01/31 09:32:51.2	106.790	-0.170	-0.330	0.880
2020/01/31 09:32:51.3	106.790	-0.160	-0.340	0.850
2020/01/31 09:32:51.4	106.800	-0.150	-0.350	0.810
2020/01/31 09:32:51.5	106.800	-0.140	-0.360	0.770
2020/01/31 09:32:51.6	106.810	-0.130	-0.360	0.740
2020/01/31 09:32:51.7	106.820	-0.110	-0.380	0.700
2020/01/31 09:32:51.8	106.830	-0.100	-0.390	0.660
2020/01/31 09:32:51.9	106.840	-0.080	-0.400	0.630
2020/01/31 09:32:52.0	106.840	-0.060	-0.410	0.590
2020/01/31 09:32:52.1	106.850	-0.040	-0.430	0.550
2020/01/31 09:32:52.2	106.860	-0.020	-0.440	0.510
2020/01/31 09:32:52.3	106.870	0.000	-0.460	0.480
2020/01/31 09:32:52.4	106.890	0.020	-0.480	0.440
2020/01/31 09:32:52.5	106.900	0.050	-0.490	0.400
2020/01/31 09:32:52.6	106.910	0.080	-0.510	0.360
2020/01/31 09:32:52.7	106.920	0.100	-0.530	0.330
2020/01/31 09:32:52.8	106.930	0.130	-0.550	0.290
2020/01/31 09:32:52.9	106.940	0.160	-0.570	0.260
2020/01/31 09:32:53.0	106.950	0.190	-0.590	0.230
2020/01/31 09:32:53.1	106.960	0.220	-0.600	0.200
2020/01/31 09:32:53.2	106.960	0.240	-0.620	0.170
2020/01/31 09:32:53.3	106.960	0.270	-0.640	0.140
2020/01/31 09:32:53.4	106.970	0.300	-0.650	0.110
2020/01/31 09:32:53.5	106.970	0.320	-0.660	0.090
2020/01/31 09:32:53.6	106.970	0.350	-0.670	0.070
2020/01/31 09:32:53.7	106.970	0.370	-0.680	0.050
2020/01/31 09:32:53.8	106.970	0.400	-0.680	0.040
2020/01/31 09:32:53.9	106.970	0.420	-0.680	0.030
2020/01/31 09:32:54.0	106.970	0.440	-0.680	0.010
2020/01/31 09:32:54.1	106.960	0.450	-0.680	0.010
2020/01/31 09:32:54.2	106.960	0.470	-0.670	0.000
2020/01/31 09:32:54.3	106.950	0.480	-0.660	0.010
2020/01/31 09:32:54.4	106.940	0.490	-0.640	0.010
2020/01/31 09:32:54.5	106.940	0.490	-0.620	0.010
2020/01/31 09:32:54.6	106.930	0.490	-0.600	0.020
2020/01/31 09:32:54.7	106.920	0.490	-0.570	0.030
2020/01/31 09:32:54.8	106.910	0.490	-0.540	0.040
2020/01/31 09:32:54.9	106.910	0.480	-0.510	0.060
2020/01/31 09:32:55.0	106.900	0.480	-0.470	0.080
2020/01/31 09:32:55.1	106.890	0.460	-0.430	0.100
2020/01/31 09:32:55.2	106.880	0.450	-0.380	0.120
2020/01/31 09:32:55.3	106.860	0.430	-0.330	0.140
2020/01/31 09:32:55.4	106.860	0.410	-0.280	0.170
2020/01/31 09:32:55.5	106.850	0.380	-0.220	0.200
2020/01/31 09:32:55.6	106.850	0.360	-0.160	0.230
2020/01/31 09:32:55.7	106.850	0.330	-0.100	0.260
2020/01/31 09:32:55.8	106.850	0.290	-0.030	0.300
2020/01/31 09:32:55.9	106.840	0.260	0.030	0.330
2020/01/31 09:32:56.0	106.840	0.220	0.100	0.370
2020/01/31 09:32:56.1	106.850	0.190	0.170	0.410
2020/01/31 09:32:56.2	106.850	0.150	0.240	0.440
2020/01/31 09:32:56.3	106.850	0.110	0.310	0.480
2020/01/31 09:32:56.4	106.850	0.060	0.380	0.520
2020/01/31 09:32:56.5	106.850	0.020	0.450	0.560
2020/01/31 09:32:56.6	106.860	-0.020	0.510	0.600
2020/01/31 09:32:56.7	106.860	-0.060	0.570	0.640
2020/01/31 09:32:56.8	106.870	-0.110	0.630	0.680
2020/01/31 09:32:56.9	106.880	-0.150	0.690	0.720
2020/01/31 09:32:57.0	106.890	-0.190	0.740	0.750
2020/01/31 09:32:57.1	106.890	-0.230	0.780	0.790
2020/01/31 09:32:57.2	106.900	-0.270	0.820	0.820
2020/01/31 09:32:57.3	106.900	-0.300	0.860	0.860
2020/01/31 09:32:57.4	106.910	-0.340	0.880	0.890
2020/01/31 09:32:57.5	106.920	-0.370	0.910	0.920
2020/01/31 09:32:57.6	106.930	-0.400	0.920	0.950
2020/01/31 09:32:57.7	106.940	-0.420	0.930	0.970
2020/01/31 09:32:57.8	106.950	-0.450	0.930	1.000
2020/01/31 09:32:57.9	106.960	-0.470	0.920	1.020
2020/01/31 09:32:58.0	106.970	-0.480	0.910	1.040
2020/01/31 09:32:58.1	106.970	-0.490	0.890	1.050
2020/01/31 09:32:58.2	106.980	-0.500	0.860	1.070
2020/01/31 09:32:58.3	107.000	-0.510	0.820	1.080
2020/01/31 09:32:58.4	107.010	-0.510	0.780	1.090
2020/01/31 09:32:58.5	107.020	-0.510	0.730	1.090
2020/01/31 09:32:58.6	107.030	-0.510	0.680	1.100
2020/01/31 09:32:58.7	107.030	-0.500	0.620	1.100
2020/01/31 09:32:58.8	107.040	-0.490	0.550	1.100
2020/01/31 09:32:58.9	107.040	-0.480	0.490	1.100
2020/01/31 09:32:59.0	107.050	-0.460	0.410	1.100
2020/01/31 09:32:59.1	107.050	-0.440	0.340	1.100
2020/01/31 09:32:59.2	107.050	-0.420	0.260	1.100
2020/01/31 09:32:59.3	107.050	-0.400	0.190	1.090
2020/01/31 09:32:59.4	107.050	-0.380	0.110	1.090
2020/01/31 09:32:59.5	107.050	-0.360	0.030	1.090
2020/01/31 09:32:59.6	107.040	-0.330	-0.050	1.090
2020/01/31 09:32:59.7	107.040	-0.300	-0.130	1.090
2020/01/31 09:32:59.8	107.030	-0.280	-0.200	1.090
2020/01/31 09:32:59.9	107.030	-0.250	-0.280	1.090
2020/01/31 09:33:00.0	107.020	-0.230	-0.350	1.090
2020/01/31 09:33:00.1	107.010	-0.200	-0.420	1.100
2020/01/31 09:33:00.2	107.000	-0.170	-0.480	1.110
2020/01/31 09:33:00.3	107.000	-0.150	-0.540	1.120
2020/01/31 09:33:00.4	106.990	-0.120	-0.600	1.130
2020/01/31 09:33:00.5	106.980	-0.100	-0.650	1.140
2020/01/31 09:33:00.6	106.960	-0.080	-0.700	1.160
2020/01/31 09:33:00.7	106.950	-0.060	-0.740	1.170
2020/01/31 09:33:00.8	106.930	-0.040	-0.780	1.190
2020/01/31 09:33:00.9	106.920	-0.020	-0.810	1.210
2020/01/31 09:33:01.0	106.910	0.000	-0.840	1.230
2020/01/31 09:33:01.1	106.890	0.020	-0.860	1.250
2020/01/31 09:33:01.2	106.880	0.040	-0.880	1.270
2020/01/31 09:33:01.3	106.870	0.050	-0.890	1.290
2020/01/31 09:33:01.4	106.860	0.070	-0.900	1.310
2020/01/31 09:33:01.5	106.850	0.080	-0.910	1.330
2020/01/31 09:33:01.6	106.840	0.090	-0.910	1.350
2020/01/31 09:33:01.7	106.830	0.100	-0.910	1.370
2020/01/31 09:33:01.8	106.830	0.110	-0.910	1.380
2020/01/31 09:33:01.9	106.820	0.120	-0.900	1.390
2020/01/31 09:33:02.0	106.820	0.130	-0.900	1.400
2020/01/31 09:33:02.1	106.820	0.140	-0.890	1.410
2020/01/31 09:33:02.2	106.820	0.150	-0.880	1.420
2020/01/31 09:33:02.3	106.820	0.160	-0.870	1.420
2020/01/31 09:33:02.4	106.820	0.170	-0.860	1.420
2020/01/31 09:33:02.5	106.830	0.170	-0.840	1.420
2020/01/31 09:33:02.6	106.830	0.180	-0.830	1.410
2020/01/31 09:33:02.7	106.840	0.190	-0.820	1.410
2020/01/31 09:33:02.8	106.850	0.200	-0.810	1.400
2020/01/31 09:33:02.9	106.860	0.210	-0.800	1.380
2020/01/31 09:33:03.0	106.870	0.220	-0.790	1.370
2020/01/31 09:33:03.1	106.880	0.230	-0.790	1.350
2020/01/31 09:33:03.2	106.880	0.240	-0.780	1.330
2020/01/31 09:33:03.3	106.910	0.250	-0.780	1.310
2020/01/31 09:33:03.4	106.920	0.260	-0.770	1.290
2020/01/31 09:33:03.5	106.930	0.270	-0.770	1.260
2020/01/31 09:33:03.6	106.930	0.280	-0.770	1.240
2020/01/31 09:33:03.7	106.940	0.290	-0.770	1.210
2020/01/31 09:33:03.8	106.950	0.300	-0.770	1.180
2020/01/31 09:33:03.9	106.950	0.310	-0.770	1.160
2020/01/31 09:33:04.0	106.950	0.320	-0.760	1.130
2020/01/31 09:33:04.1	106.950	0.330	-0.760	1.100
2020/01/31 09:33:04.2	106.950	0.340	-0.750	1.070
2020/01/31 09:33:04.3	106.950	0.350	-0.750	1.040
2020/01/31 09:33:04.4	106.950	0.350	-0.740	1.010
2020/01/31 09:33:04.5	106.940	0.360	-0.720	0.990
2020/01/31 09:33:04.6	106.940	0.360	-0.700	0.960
2020/01/31 09:33:04.7	106.930	0.360	-0.670	0.930
2020/01/31 09:33:04.8	106.920	0.360	-0.640	0.910
2020/01/31 09:33:04.9	106.910	0.350	-0.610	0.880
2020/01/31 09:33:05.0	106.890	0.340	-0.570	0.860
2020/01/31 09:33:05.1	106.880	0.330	-0.520	0.830
2020/01/31 09:33:05.2	106.870	0.310	-0.470	0.810
2020/01/31 09:33:05.3	106.860	0.290	-0.400	0.780
2020/01/31 09:33:05.4	106.840	0.270	-0.340	0.760
2020/01/31 09:33:05.5	106.830	0.240	-0.270	0.740
2020/01/31 09:33:05.6	106.810	0.220	-0.200	0.720
2020/01/31 09:33:05.7	106.800	0.180	-0.120	0.690
2020/01/31 09:33:05.8	106.780	0.150	-0.040	0.670
2020/01/31 09:33:05.9	106.770	0.110	0.050	0.650
2020/01/31 09:33:06.0	106.760	0.070	0.140	0.630
2020/01/31 09:33:06.1	106.740	0.020	0.230	0.610
2020/01/31 09:33:06.2	106.730	-0.020	0.320	0.590
2020/01/31 09:33:06.3	106.720	-0.070	0.410	0.570
2020/01/31 09:33:06.4	106.700	-0.120	0.500	0.550
2020/01/31 09:33:06.5	106.700	-0.170	0.590	0.530
2020/01/31 09:33:06.6	106.690	-0.220	0.670	0.510
2020/01/31 09:33:06.7	106.690	-0.270	0.760	0.480
2020/01/31 09:33:06.8	106.690	-0.330	0.840	0.460
2020/01/31 09:33:06.9	106.690	-0.380	0.920	0.440
2020/01/31 09:33:07.0	106.700	-0.430	0.990	0.420
2020/01/31 09:33:07.1	106.700	-0.480	1.050	0.390
2020/01/31 09:33:07.2	106.710	-0.530	1.110	0.370
2020/01/31 09:33:07.3	106.710	-0.570	1.170	0.340
2020/01/31 09:33:07.4	106.720	-0.610	1.210	0.310
2020/01/31 09:33:07.5	106.730	-0.650	1.240	0.290
2020/01/31 09:33:07.6	106.750	-0.690	1.270	0.260
2020/01/31 09:33:07.7	106.760	-0.720	1.290	0.230
2020/01/31 09:33:07.8	106.780	-0.750	1.290	0.200
2020/01/31 09:33:07.9	106.800	-0.780	1.290	0.170
2020/01/31 09:33:08.0	106.820	-0.800	1.280	0.150
2020/01/31 09:33:08.1	106.840	-0.810	1.260	0.120
2020/01/31 09:33:08.2	106.860	-0.820	1.230	0.090
2020/01/31 09:33:08.3	106.880	-0.830	1.190	0.060
2020/01/31 09:33:08.4	106.910	-0.830	1.140	0.030
2020/01/31 09:33:08.5	106.930	-0.820	1.080	0.000
2020/01/31 09:33:08.6	106.950	-0.810	1.020	-0.020
2020/01/31 09:33:08.7	106.970	-0.800	0.940	-0.050
2020/01/31 09:33:08.8	107.000	-0.780	0.860	-0.070
2020/01/31 09:33:08.9	107.020	-0.750	0.770	-0.100
2020/01/31 09:33:09.0	107.040	-0.720	0.680	-0.120
2020/01/31 09:33:09.1	107.070	-0.680	0.580	-0.140
2020/01/31 09:33:09.2	107.090	-0.640	0.470	-0.160
2020/01/31 09:33:09.3	107.110	-0.600	0.370	-0.180
2020/01/31 09:33:09.4	107.120	-0.550	0.250	-0.190
2020/01/31 09:33:09.5	107.140	-0.500	0.140	-0.210
2020/01/31 09:33:09.6	107.160	-0.440	0.030	-0.220
2020/01/31 09:33:09.7	107.180	-0.390	-0.090	-0.240
2020/01/31 09:33:09.8	107.200	-0.330	-0.210	-0.250
2020/01/31 09:33:09.9	107.210	-0.260	-0.320	-0.260
2020/01/31 09:33:10.0	107.230	-0.200	-0.440	-0.260
2020/01/31 09:33:10.1	107.240	-0.140	-0.550	-0.270
2020/01/31 09:33:10.2	107.250	-0.070	-0.660	-0.270
2020/01/31 09:33:10.3	107.270	-0.010	-0.760	-0.270
2020/01/31 09:33:10.4	107.270	0.060	-0.860	-0.270
2020/01/31 09:33:10.5	107.280	0.120	-0.960	-0.260
2020/01/31 09:33:10.6	107.280	0.190	-1.050	-0.260
2020/01/31 09:33:10.7	107.290	0.250	-1.130	-0.250
2020/01/31 09:33:10.8	107.290	0.310	-1.210	-0.240
2020/01/31 09:33:10.9	107.280	0.370	-1.280	-0.230
2020/01/31 09:33:11.0	107.280	0.420	-1.340	-0.210
2020/01/31 09:33:11.1	107.280	0.470	-1.390	-0.200
2020/01/31 09:33:11.2	107.270	0.520	-1.440	-0.180
2020/01/31 09:33:11.3	107.250	0.560	-1.470	-0.160
2020/01/31 09:33:11.4	107.250	0.600	-1.500	-0.140
2020/01/31 09:33:11.5	107.240	0.640	-1.520	-0.110
2020/01/31 09:33:11.6	107.230	0.670	-1.540	-0.080
2020/01/31 09:33:11.7	107.220	0.700	-1.540	-0.050
2020/01/31 09:33:11.8	107.210	0.730	-1.540	-0.020
2020/01/31 09:33:11.9	107.190	0.750	-1.530	0.010
2020/01/31 09:33:12.0	107.180	0.760	-1.510	0.050
2020/01/31 09:33:12.1	107.170	0.770	-1.480	0.080
2020/01/31 09:33:12.2	107.160	0.780	-1.450	0.120
2020/01/31 09:33:12.3	107.150	0.780	-1.410	0.160
2020/01/31 09:33:12.4	107.150	0.780	-1.360	0.210
2020/01/31 09:33:12.5	107.140	0.780	-1.310	0.260
2020/01/31 09:33:12.6	107.130	0.770	-1.250	0.300
2020/01/31 09:33:12.7	107.120	0.760	-1.190	0.350
2020/01/31 09:33:12.8	107.110	0.740	-1.120	0.400
2020/01/31 09:33:12.9	107.110	0.730	-1.050	0.450
2020/01/31 09:33:13.0	107.100	0.710	-0.970	0.500
2020/01/31 09:33:13.1	107.100	0.680	-0.890	0.560
2020/01/31 09:33:13.2	107.090	0.660	-0.810	0.610
2020/01/31 09:33:13.3	107.090	0.630	-0.730	0.670
2020/01/31 09:33:13.4	107.090	0.600	-0.650	0.730
2020/01/31 09:33:13.5	107.080	0.570	-0.560	0.780
2020/01/31 09:33:13.6	107.080	0.540	-0.480	0.840
2020/01/31 09:33:13.7	107.080	0.500	-0.390	0.900
2020/01/31 09:33:13.8	107.080	0.460	-0.310	0.960
2020/01/31 09:33:13.9	107.080	0.430	-0.220	1.020
2020/01/31 09:33:14.0	107.070	0.390	-0.140	1.070
2020/01/31 09:33:14.1	107.070	0.350	-0.060	1.130
2020/01/31 09:33:14.2	107.070	0.310	0.020	1.190
2020/01/31 09:33:14.3	107.070	0.270	0.100	1.240
2020/01/31 09:33:14.4	107.070	0.230	0.180	1.290
2020/01/31 09:33:14.5	107.070	0.190	0.250	1.340
2020/01/31 09:33:14.6	107.070	0.150	0.330	1.390
2020/01/31 09:33:14.7	107.070	0.110	0.400	1.440
2020/01/31 09:33:14.8	107.080	0.060	0.460	1.480
2020/01/31 09:33:14.9	107.080	0.020	0.530	1.530
2020/01/31 09:33:15.0	107.080	-0.020	0.590	1.560
2020/01/31 09:33:15.1	107.080	-0.060	0.650	1.600
2020/01/31 09:33:15.2	107.090	-0.100	0.700	1.630
2020/01/31 09:33:15.3	107.090	-0.140	0.750	1.660
2020/01/31 09:33:15.4	107.090	-0.180	0.800	1.680
2020/01/31 09:33:15.5	107.100	-0.220	0.840	1.700
2020/01/31 09:33:15.6	107.100	-0.260	0.880	1.720
2020/01/31 09:33:15.7	107.110	-0.290	0.910	1.730
2020/01/31 09:33:15.8				
2020/01/31 09:33:15.9	107.120	-0.330	0.940	1.740
2020/01/31 09:33:16.0	107.140	-0.400	0.980	1.760
2020/01/31 09:33:16.1	107.150	-0.430	1.000	1.760
2020/01/31 09:33:16.2	107.160	-0.460	1.010	1.760
2020/01/31 09:33:16.3	107.170	-0.490	1.010	1.750
2020/01/31 09:33:16.4	107.170	-0.510	1.010	1.740
2020/01/31 09:33:16.5	107.180	-0.540	1.000	1.730
2020/01/31 09:33:16.6	107.190	-0.560	0.980	1.720
2020/01/31 09:33:16.7	107.200	-0.580	0.960	1.710
2020/01/31 09:33:16.8	107.210	-0.600	0.930	1.700
2020/01/31 09:33:16.9	107.220	-0.620	0.900	1.680
2020/01/31 09:33:17.0	107.230	-0.630	0.860	1.670
2020/01/31 09:33:17.1	107.230	-0.640	0.820	1.650
2020/01/31 09:33:17.2	107.240	-0.650	0.770	1.630
2020/01/31 09:33:17.3	107.250	-0.650	0.710	1.610
2020/01/31 09:33:17.4	107.260	-0.650	0.650	1.600
2020/01/31 09:33:17.5	107.260	-0.650	0.580	1.580
2020/01/31 09:33:17.6	107.270	-0.650	0.510	1.560
2020/01/31 09:33:17.7	107.270	-0.650	0.440	1.540
2020/01/31 09:33:17.8	107.280	-0.640	0.360	1.510
2020/01/31 09:33:17.9	107.280	-0.630	0.270	1.490
2020/01/31 09:33:18.0	107.280	-0.610	0.190	1.470
2020/01/31 09:33:18.1	107.290	-0.600	0.100	1.450
2020/01/31 09:33:18.2	107.290	-0.580	0.010	1.430
2020/01/31 09:33:18.3	107.300	-0.560	-0.090	1.400
2020/01/31 09:33:18.4	107.300	-0.540	-0.180	1.380
2020/01/31 09:33:18.5	107.310	-0.510	-0.270	1.350
2020/01/31 09:33:18.6	107.320	-0.480	-0.370	1.320
2020/01/31 09:33:18.7	107.320	-0.460	-0.460	1.300
2020/01/31 09:33:18.8	107.330	-0.420	-0.560	1.270
2020/01/31 09:33:18.9	107.340	-0.390	-0.650	1.240
2020/01/31 09:33:19.0	107.350	-0.360	-0.740	1.210
2020/01/31 09:33:19.1	107.350	-0.320	-0.820	1.180
2020/01/31 09:33:19.2	107.360	-0.290	-0.900	1.150
2020/01/31 09:33:19.3	107.370	-0.250	-0.980	1.130
2020/01/31 09:33:19.4	107.390	-0.210	-1.060	1.090
2020/01/31 09:33:19.5	107.400	-0.170	-1.130	1.060
2020/01/31 09:33:19.6	107.410	-0.140	-1.190	1.030
2020/01/31 09:33:19.7	107.420	-0.100	-1.250	1.000
2020/01/31 09:33:19.8	107.430	-0.060	-1.300	0.970
2020/01/31 09:33:19.9	107.430	-0.020	-1.350	0.940
2020/01/31 09:33:20.0	107.440	0.020	-1.380	0.910
2020/01/31 09:33:20.1	107.450	0.050	-1.420	0.880
2020/01/31 09:33:20.2	107.450	0.090	-1.440	0.850
2020/01/31 09:33:20.3	107.450	0.130	-1.450	0.820
2020/01/31 09:33:20.4	107.460	0.160	-1.460	0.790
2020/01/31 09:33:20.5	107.460	0.190	-1.460	0.760
2020/01/31 09:33:20.6	107.460	0.220	-1.450	0.740
2020/01/31 09:33:20.7	107.460	0.250	-1.430	0.710
2020/01/31 09:33:20.8	107.460	0.280	-1.410	0.680
2020/01/31 09:33:20.9	107.450	0.300	-1.370	0.650
2020/01/31 09:33:21.0	107.440	0.330	-1.330	0.630
2020/01/31 09:33:21.1	107.440	0.350	-1.280	0.600
2020/01/31 09:33:21.2	107.430	0.360	-1.220	0.570
2020/01/31 09:33:21.3	107.430	0.380	-1.160	0.560
2020/01/31 09:33:21.4	107.420	0.390	-1.090	0.530
2020/01/31 09:33:21.5	107.410	0.400	-1.010	0.510
2020/01/31 09:33:21.6	107.390	0.410	-0.930	0.480
2020/01/31 09:33:21.7	107.380	0.410	-0.840	0.460
2020/01/31 09:33:21.8	107.370	0.410	-0.740	0.430
2020/01/31 09:33:21.9	107.350	0.410	-0.650	0.410
2020/01/31 09:33:22.0	107.340	0.410	-0.550	0.390
2020/01/31 09:33:22.1				
2020/01/31 09:33:22.2	107.320	0.400	-0.450	0.360
2020/01/31 09:33:22.3	107.300	0.380	-0.240	0.320
2020/01/31 09:33:22.4	107.280	0.370	-0.140	0.300
2020/01/31 09:33:22.5	107.270	0.350	-0.040	0.280
2020/01/31 09:33:22.6	107.260	0.340	0.060	0.260
2020/01/31 09:33:22.7	107.240	0.320	0.160	0.240
2020/01/31 09:33:22.8	107.230	0.300	0.250	0.220
2020/01/31 09:33:22.9	107.210	0.280	0.340	0.200
2020/01/31 09:33:23.0	107.200	0.260	0.430	0.180
2020/01/31 09:33:23.1	107.190	0.240	0.510	0.170
2020/01/31 09:33:23.2	107.170	0.210	0.590	0.150
2020/01/31 09:33:23.3	107.160	0.190	0.650	0.140
2020/01/31 09:33:23.4	107.130	0.170	0.720	0.130
2020/01/31 09:33:23.5	107.110	0.140	0.770	0.120
2020/01/31 09:33:23.6	107.100	0.120	0.820	0.110
2020/01/31 09:33:23.7	107.090	0.090	0.860	0.100
2020/01/31 09:33:23.8	107.070	0.070	0.890	0.090
2020/01/31 09:33:23.9	107.060	0.050	0.920	0.080
2020/01/31 09:33:24.0	107.040	0.030	0.940	0.070
2020/01/31 09:33:24.1	107.030	0.010	0.950	0.070
2020/01/31 09:33:24.2				
2020/01/31 09:33:24.3	107.010	-0.010	0.950	0.060
2020/01/31 09:33:24.4	106.980	-0.050	0.940	0.060
2020/01/31 09:33:24.5	106.960	-0.060	0.920	0.050
2020/01/31 09:33:24.6	106.950	-0.070	0.900	0.050
2020/01/31 09:33:24.7	106.930	-0.090	0.870	0.050
2020/01/31 09:33:24.8	106.920	-0.100	0.830	0.050
2020/01/31 09:33:24.9	106.910	-0.100	0.790	0.050
2020/01/31 09:33:25.0	106.890	-0.110	0.750	0.040
2020/01/31 09:33:25.1	106.880	-0.120	0.700	0.040
2020/01/31 09:33:25.2	106.870	-0.120	0.650	0.040
2020/01/31 09:33:25.3	106.850	-0.120	0.590	0.040
2020/01/31 09:33:25.4	106.840	-0.120	0.540	0.050
2020/01/31 09:33:25.5	106.830	-0.120	0.470	0.050
2020/01/31 09:33:25.6	106.820	-0.110	0.410	0.050
2020/01/31 09:33:25.7	106.810	-0.100	0.350	0.050
2020/01/31 09:33:25.8	106.800	-0.100	0.280	0.060
2020/01/31 09:33:25.9	106.790	-0.090	0.220	0.070
2020/01/31 09:33:26.0	106.780	-0.080	0.150	0.070
2020/01/31 09:33:26.1	106.770	-0.060	0.080	0.080
2020/01/31 09:33:26.2	106.760	-0.050	0.020	0.090
2020/01/31 09:33:26.3				
2020/01/31 09:33:26.4	106.750	-0.040	-0.040	0.110
2020/01/31 09:33:26.5	106.740	-0.000	-0.170	0.130
2020/01/31 09:33:26.6	106.730	0.010	-0.230	0.150
2020/01/31 09:33:26.7	106.730	0.030	-0.290	0.170
2020/01/31 09:33:26.8	106.720	0.050	-0.350	0.180
2020/01/31 09:33:26.9	106.720	0.070	-0.400	0.200
2020/01/31 09:33:27.0	106.720	0.090	-0.460	0.220
2020/01/31 09:33:27.1	106.710	0.100	-0.510	0.250
2020/01/31 09:33:27.2	106.710	0.120	-0.550	0.270
2020/01/31 09:33:27.3	106.700	0.140	-0.600	0.290
2020/01/31 09:33:27.4	106.700	0.150	-0.640	0.320
2020/01/31 09:33:27.5	106.700	0.170	-0.680	0.350
2020/01/31 09:33:27.6	106.700	0.180	-0.720	0.380
2020/01/31 09:33:27.7	106.700	0.200	-0.750	0.410
2020/01/31 09:33:27.8	106.700	0.210	-0.780	0.440
2020/01/31 09:33:27.9	106.700	0.220	-0.810	0.470
2020/01/31 09:33:28.0	106.710	0.230	-0.830	0.510
2020/01/31 09:33:28.1	106.710	0.240	-0.850	0.550
2020/01/31 09:33:28.2	106.710	0.240	-0.870	0.580
2020/01/31 09:33:28.3	106.700	0.240	-0.880	0.630
2020/01/31 09:33:28.4	106.700	0.240	-0.890	0.670
2020/01/31 09:33:28.5	106.700	0.240	-0.900	0.710
2020/01/31 09:33:28.6	106.700	0.240	-0.900	0.750
2020/01/31 09:33:28.7	106.700	0.240	-0.900	0.800
2020/01/31 09:33:28.8	106.700	0.230	-0.890	0.840
2020/01/31 09:33:28.9	106.690	0.220	-0.890	0.890
2020/01/31 09:33:29.0	106.690	0.210	-0.880	0.940
2020/01/31 09:33:29.1	106.680	0.200	-0.860	0.980
2020/01/31 09:33:29.2	106.680	0.180	-0.850	1.030
2020/01/31 09:33:29.3	106.690	0.160	-0.830	1.090
2020/01/31 09:33:29.4	106.680	0.150	-0.810	1.140
2020/01/31 09:33:29.5	106.670	0.130	-0.790	1.190
2020/01/31 09:33:29.6	106.660	0.110	-0.760	1.240
2020/01/31 09:33:29.7	106.650	0.080	-0.740	1.290
2020/01/31 09:33:29.8	106.640	0.060	-0.710	1.340
2020/01/31 09:33:29.9	106.630	0.040	-0.680	1.400
2020/01/31 09:33:30.0	106.620	0.010	-0.650	1.450
2020/01/31 09:33:30.1	106.610	-0.010	-0.610	1.500
2020/01/31 09:33:30.2	106.600	-0.040	-0.580	1.550
2020/01/31 09:33:30.3	106.590	-0.060	-0.540	1.600
2020/01/31 09:33:30.4	106.570	-0.090	-0.500	1.650
2020/01/31 09:33:30.5	106.560	-0.110	-0.460	1.700
2020/01/31 09:33:30.6	106.550	-0.130	-0.420	1.740
2020/01/31 09:33:30.7	106.540	-0.160	-0.380	1.790
2020/01/31 09:33:30.8	106.540	-0.180	-0.340	1.830
2020/01/31 09:33:30.9	106.530	-0.200	-0.300	1.870
2020/01/31 09:33:31.0	106.520	-0.220	-0.260	1.910
2020/01/31 09:33:31.1	106.520	-0.240	-0.220	1.950
2020/01/31 09:33:31.2	106.510	-0.260	-0.180	1.980
2020/01/31 09:33:31.3	106.520	-0.270	-0.140	2.010
2020/01/31 09:33:31.4	106.520	-0.290	-0.100	2.040
2020/01/31 09:33:31.5	106.520	-0.300	-0.060	2.060
2020/01/31 09:33:31.6	106.520	-0.310	-0.020	2.080
2020/01/31 09:33:31.7	106.520	-0.320	0.010	2.090
2020/01/31 09:33:31.8	106.520	-0.330	0.050	2.110
2020/01/31 09:33:31.9	106.520	-0.340	0.080	2.110
2020/01/31 09:33:32.0	106.520	-0.340	0.120	2.120
2020/01/31 09:33:32.1	106.520	-0.340	0.150	2.120
2020/01/31 09:33:32.2	106.520	-0.340	0.180	2.120
2020/01/31 09:33:32.3	106.520	-0.340	0.210	2.120
2020/01/31 09:33:32.4	106.520	-0.340	0.230	2.110
2020/01/31 09:33:32.5	106.510	-0.340	0.260	2.100
2020/01/31 09:33:32.6				
2020/01/31 09:33:32.7	106.510	-0.330	0.280	2.090
2020/01/31 09:33:32.8	106.510	-0.320	0.320	2.060
2020/01/31 09:33:32.9	106.500	-0.310	0.340	2.050
2020/01/31 09:33:33.0	106.500	-0.300	0.350	2.030
2020/01/31 09:33:33.1	106.490	-0.290	0.370	2.000
2020/01/31 09:33:33.2	106.490	-0.280	0.380	1.970
2020/01/31 09:33:33.3	106.490	-0.260	0.390	1.940
2020/01/31 09:33:33.4	106.490	-0.250	0.390	1.910
2020/01/31 09:33:33.5	106.480	-0.240	0.400	1.870
2020/01/31 09:33:33.6	106.470	-0.230	0.400	1.830
2020/01/31 09:33:33.7	106.460	-0.210	0.400	1.780
2020/01/31 09:33:33.8	106.450	-0.200	0.390	1.730
2020/01/31 09:33:33.9	106.440	-0.190	0.390	1.680
2020/01/31 09:33:34.0	106.430	-0.170	0.380	1.620
2020/01/31 09:33:34.1	106.420	-0.160	0.370	1.560
2020/01/31 09:33:34.2	106.410	-0.150	0.360	1.500
2020/01/31 09:33:34.3	106.410	-0.140	0.340	1.420
2020/01/31 09:33:34.4	106.390	-0.120	0.330	1.350
2020/01/31 09:33:34.5	106.380	-0.110	0.310	1.280
2020/01/31 09:33:34.6	106.370	-0.100	0.290	1.200
2020/01/31 09:33:34.7	106.360	-0.090	0.270	1.120
2020/01/31 09:33:34.8	106.350	-0.080	0.240	1.040
2020/01/31 09:33:34.9	106.330	-0.070	0.210	0.960
2020/01/31 09:33:35.0	106.320	-0.060	0.190	0.880
2020/01/31 09:33:35.1	106.310	-0.050	0.160	0.790
2020/01/31 09:33:35.2	106.300	-0.040	0.120	0.700
2020/01/31 09:33:35.3	106.290	-0.030	0.090	0.620
2020/01/31 09:33:35.4	106.280	-0.020	0.050	0.530
2020/01/31 09:33:35.5	106.270	-0.010	0.020	0.440
2020/01/31 09:33:35.6	106.260	0.000	-0.020	0.350
2020/01/31 09:33:35.7	106.250	0.010	-0.060	0.260
2020/01/31 09:33:35.8	106.240	0.020	-0.100	0.170
2020/01/31 09:33:35.9	106.230	0.030	-0.130	0.080
2020/01/31 09:33:36.0	106.220	0.040	-0.170	-0.010
2020/01/31 09:33:36.1	106.220	0.050	-0.210	-0.090
2020/01/31 09:33:36.2	106.210	0.060	-0.250	-0.180
2020/01/31 09:33:36.3	106.190	0.070	-0.300	-0.260
2020/01/31 09:33:36.4	106.190	0.080	-0.340	-0.340
2020/01/31 09:33:36.5	106.190	0.090	-0.370	-0.420
2020/01/31 09:33:36.6	106.180	0.100	-0.410	-0.500
2020/01/31 09:33:36.7	106.180	0.110	-0.450	-0.570
2020/01/31 09:33:36.8	106.180	0.120	-0.480	-0.650
2020/01/31 09:33:36.9	106.190	0.130	-0.510	-0.720
2020/01/31 09:33:37.0	106.190	0.140	-0.540	-0.780
2020/01/31 09:33:37.1	106.200	0.160	-0.570	-0.850
2020/01/31 09:33:37.2	106.200	0.170	-0.600	-0.910
2020/01/31 09:33:37.3	106.210	0.180	-0.620	-0.970
2020/01/31 09:33:37.4	106.190	0.190	-0.640	-1.020
2020/01/31 09:33:37.5	106.210	0.200	-0.650	-1.070
2020/01/31 09:33:37.6	106.220	0.210	-0.670	-1.120
2020/01/31 09:33:37.7	106.230	0.220	-0.680	-1.170
2020/01/31 09:33:37.8	106.250	0.230	-0.680	-1.210
2020/01/31 09:33:37.9	106.260	0.240	-0.690	-1.250
2020/01/31 09:33:38.0	106.280	0.250	-0.690	-1.280
2020/01/31 09:33:38.1	106.300	0.260	-0.690	-1.310
2020/01/31 09:33:38.2	106.320	0.270	-0.680	-1.330
2020/01/31 09:33:38.3	106.320	0.270	-0.670	-1.360
2020/01/31 09:33:38.4	106.340	0.280	-0.650	-1.370
2020/01/31 09:33:38.5	106.360	0.280	-0.640	-1.380
2020/01/31 09:33:38.6	106.380	0.280	-0.620	-1.390
2020/01/31 09:33:38.7	106.400	0.280	-0.600	-1.390
2020/01/31 09:33:38.8	106.410	0.280	-0.570	-1.390
2020/01/31 09:33:38.9				
2020/01/31 09:33:39.0	106.430	0.280	-0.540	-1.380
2020/01/31 09:33:39.1	106.460	0.260	-0.480	-1.340
2020/01/31 09:33:39.2	106.480	0.260	-0.440	-1.320
2020/01/31 09:33:39.3	106.500	0.250	-0.400	-1.280
2020/01/31 09:33:39.4	106.510	0.230	-0.370	-1.250
2020/01/31 09:33:39.5	106.520	0.220	-0.320	-1.210
2020/01/31 09:33:39.6	106.530	0.210	-0.280	-1.160
2020/01/31 09:33:39.7	106.530	0.190	-0.240	-1.110
2020/01/31 09:33:39.8	106.540	0.170	-0.190	-1.050
2020/01/31 09:33:39.9	106.540	0.150	-0.150	-1.000
2020/01/31 09:33:40.0	106.550	0.130	-0.100	-0.930
2020/01/31 09:33:40.1	106.550	0.110	-0.060	-0.870
2020/01/31 09:33:40.2	106.550	0.090	-0.020	-0.790
2020/01/31 09:33:40.3	106.550	0.070	0.030	-0.720
2020/01/31 09:33:40.4	106.550	0.050	0.070	-0.640
2020/01/31 09:33:40.5	106.540	0.020	0.110	-0.560
2020/01/31 09:33:40.6	106.540	-0.000	0.150	-0.480
2020/01/31 09:33:40.7	106.530	-0.020	0.180	-0.400
2020/01/31 09:33:40.8	106.520	-0.050	0.210	-0.310
2020/01/31 09:33:40.9	106.510	-0.070	0.240	-0.220
2020/01/31 09:33:41.0				
2020/01/31 09:33:41.1	106.500	-0.090	0.260	-0.130
2020/01/31 09:33:41.2	106.480	-0.130	0.300	0.050
2020/01/31 09:33:41.3	106.460	-0.140	0.310	0.150
2020/01/31 09:33:41.4	106.440	-0.160	0.320	0.250
2020/01/31 09:33:41.5	106.430	-0.170	0.320	0.340
2020/01/31 09:33:41.6	106.410	-0.180	0.320	0.440
2020/01/31 09:33:41.7	106.390	-0.190	0.310	0.540
2020/01/31 09:33:41.8	106.380	-0.200	0.290	0.630
2020/01/31 09:33:41.9	106.360	-0.200	0.280	0.730
2020/01/31 09:33:42.0	106.350	-0.210	0.250	0.820
2020/01/31 09:33:42.1	106.330	-0.210	0.230	0.910
2020/01/31 09:33:42.2	106.320	-0.200	0.200	1.000
2020/01/31 09:33:42.3	106.320	-0.200	0.160	1.090
2020/01/31 09:33:42.4	106.310	-0.190	0.120	1.180
2020/01/31 09:33:42.5	106.310	-0.180	0.080	1.260
2020/01/31 09:33:42.6	106.300	-0.160	0.040	1.340
2020/01/31 09:33:42.7	106.300	-0.150	-0.010	1.420
2020/01/31 09:33:42.8	106.300	-0.130	-0.050	1.490
2020/01/31 09:33:42.9	106.300	-0.110	-0.100	1.560
2020/01/31 09:33:43.0	106.300	-0.080	-0.150	1.630
2020/01/31 09:33:43.1				
2020/01/31 09:33:43.2	106.300	-0.060	-0.200	1.690
2020/01/31 09:33:43.3	106.320	-0.010	-0.290	1.820
2020/01/31 09:33:43.4	106.340	0.020	-0.340	1.880
2020/01/31 09:33:43.5	106.360	0.050	-0.380	1.930
2020/01/31 09:33:43.6	106.370	0.070	-0.420	1.980
2020/01/31 09:33:43.7	106.380	0.100	-0.460	2.030
2020/01/31 09:33:43.8	106.400	0.130	-0.490	2.080
2020/01/31 09:33:43.9	106.420	0.160	-0.520	2.120
2020/01/31 09:33:44.0	106.440	0.180	-0.550	2.160
2020/01/31 09:33:44.1	106.460	0.210	-0.570	2.200
2020/01/31 09:33:44.2	106.480	0.230	-0.590	2.230
2020/01/31 09:33:44.3	106.510	0.250	-0.610	2.260
2020/01/31 09:33:44.4	106.530	0.270	-0.620	2.290
2020/01/31 09:33:44.5	106.550	0.290	-0.620	2.310
2020/01/31 09:33:44.6	106.580	0.300	-0.620	2.330
2020/01/31 09:33:44.7	106.600	0.310	-0.610	2.350
2020/01/31 09:33:44.8	106.620	0.320	-0.600	2.370
2020/01/31 09:33:44.9	106.640	0.330	-0.590	2.380
2020/01/31 09:33:45.0	106.660	0.330	-0.570	2.390
2020/01/31 09:33:45.1	106.680	0.330	-0.540	2.390
2020/01/31 09:33:45.2				
2020/01/31 09:33:45.3	106.700	0.330	-0.510	2.390
2020/01/31 09:33:45.4	106.750	0.310	-0.440	2.390
2020/01/31 09:33:45.5	106.770	0.300	-0.410	2.380
2020/01/31 09:33:45.6	106.790	0.290	-0.360	2.360
2020/01/31 09:33:45.7	106.800	0.270	-0.320	2.350
2020/01/31 09:33:45.8	106.820	0.250	-0.280	2.330
2020/01/31 09:33:45.9	106.830	0.230	-0.230	2.310
2020/01/31 09:33:46.0	106.840	0.200	-0.180	2.280
2020/01/31 09:33:46.1	106.850	0.180	-0.140	2.250
2020/01/31 09:33:46.2	106.860	0.150	-0.090	2.220
2020/01/31 09:33:46.3	106.860	0.120	-0.050	2.180
2020/01/31 09:33:46.4	106.870	0.100	-0.000	2.150
2020/01/31 09:33:46.5	106.870	0.070	0.040	2.120
2020/01/31 09:33:46.6	106.870	0.040	0.080	2.080
2020/01/31 09:33:46.7	106.870	0.010	0.110	2.040
2020/01/31 09:33:46.8	106.860	-0.020	0.140	2.000
2020/01/31 09:33:46.9	106.860	-0.040	0.170	1.970
2020/01/31 09:33:47.0	106.850	-0.070	0.200	1.930
2020/01/31 09:33:47.1	106.840	-0.090	0.210	1.890
2020/01/31 09:33:47.2	106.830	-0.110	0.230	1.850
2020/01/31 09:33:47.3				
2020/01/31 09:33:47.4	106.810	-0.130	0.240	1.820
2020/01/31 09:33:47.5	106.780	-0.170	0.240	1.750
2020/01/31 09:33:47.6	106.760	-0.180	0.230	1.710
2020/01/31 09:33:47.7	106.740	-0.190	0.220	1.680
2020/01/31 09:33:47.8	106.710	-0.200	0.210	1.640
2020/01/31 09:33:47.9	106.690	-0.200	0.190	1.610
2020/01/31 09:33:48.0	106.660	-0.210	0.170	1.570
2020/01/31 09:33:48.1	106.640	-0.210	0.140	1.540
2020/01/31 09:33:48.2	106.610	-0.200	0.110	1.500
2020/01/31 09:33:48.3	106.580	-0.200	0.060	1.460
2020/01/31 09:33:48.4	106.550	-0.190	0.030	1.420
2020/01/31 09:33:48.5	106.520	-0.180	-0.010	1.380
2020/01/31 09:33:48.6	106.500	-0.170	-0.060	1.340
2020/01/31 09:33:48.7	106.470	-0.160	-0.100	1.300
2020/01/31 09:33:48.8	106.450	-0.150	-0.140	1.260
2020/01/31 09:33:48.9	106.420	-0.140	-0.180	1.220
2020/01/31 09:33:49.0	106.400	-0.120	-0.230	1.180
2020/01/31 09:33:49.1	106.380	-0.110	-0.270	1.140
2020/01/31 09:33:49.2	106.350	-0.100	-0.310	1.090
2020/01/31 09:33:49.3	106.330	-0.080	-0.340	1.050
2020/01/31 09:33:49.4				
2020/01/31 09:33:49.5	106.310	-0.070	-0.380	1.000
2020/01/31 09:33:49.6	106.270	-0.050	-0.440	0.910
2020/01/31 09:33:49.7	106.250	-0.050	-0.460	0.870
2020/01/31 09:33:49.8	106.240	-0.040	-0.480	0.820
2020/01/31 09:33:49.9	106.220	-0.040	-0.490	0.780
2020/01/31 09:33:50.0	106.210	-0.040	-0.500	0.730
2020/01/31 09:33:50.1	106.200	-0.050	-0.510	0.680
2020/01/31 09:33:50.2	106.190	-0.050	-0.510	0.640
2020/01/31 09:33:50.3	106.180	-0.060	-0.500	0.590
2020/01/31 09:33:50.4	106.160	-0.070	-0.490	0.540
2020/01/31 09:33:50.5	106.150	-0.080	-0.480	0.490
2020/01/31 09:33:50.6	106.140	-0.100	-0.460	0.440
2020/01/31 09:33:50.7	106.140	-0.110	-0.440	0.390
2020/01/31 09:33:50.8	106.130	-0.130	-0.410	0.340
2020/01/31 09:33:50.9	106.130	-0.150	-0.390	0.290
2020/01/31 09:33:51.0	106.120	-0.170	-0.360	0.230
2020/01/31 09:33:51.1	106.120	-0.190	-0.320	0.180
2020/01/31 09:33:51.2	106.120	-0.220	-0.290	0.130
2020/01/31 09:33:51.3	106.110	-0.240	-0.250	0.070
2020/01/31 09:33:51.4	106.110	-0.260	-0.220	0.020
2020/01/31 09:33:51.5				
2020/01/31 09:33:51.6	106.120	-0.280	-0.180	-0.040
2020/01/31 09:33:51.7	106.130	-0.320	-0.110	-0.150
2020/01/31 09:33:51.8	106.140	-0.340	-0.070	-0.200
2020/01/31 09:33:51.9	106.160	-0.350	-0.040	-0.250
2020/01/31 09:33:52.0	106.170	-0.370	-0.010	-0.300
2020/01/31 09:33:52.1	106.180	-0.380	0.020	-0.350
2020/01/31 09:33:52.2	106.200	-0.390	0.050	-0.400
2020/01/31 09:33:52.3	106.210	-0.390	0.070	-0.450
2020/01/31 09:33:52.4	106.230	-0.390	0.090	-0.500
2020/01/31 09:33:52.5	106.250	-0.390	0.110	-0.540
2020/01/31 09:33:52.6	106.280	-0.380	0.120	-0.580
2020/01/31 09:33:52.7	106.300	-0.370	0.130	-0.620
2020/01/31 09:33:52.8	106.330	-0.360	0.130	-0.660
2020/01/31 09:33:52.9	106.360	-0.340	0.130	-0.690
2020/01/31 09:33:53.0	106.390	-0.320	0.130	-0.720
2020/01/31 09:33:53.1	106.410	-0.300	0.130	-0.750
2020/01/31 09:33:53.2	106.440	-0.270	0.120	-0.770
2020/01/31 09:33:53.3	106.470	-0.240	0.110	-0.790
2020/01/31 09:33:53.4	106.500	-0.210	0.090	-0.810
2020/01/31 09:33:53.5	106.520	-0.170	0.080	-0.830
2020/01/31 09:33:53.6				
2020/01/31 09:33:53.7	106.550	-0.140	0.060	-0.840
2020/01/31 09:33:53.8	106.600	-0.060	0.020	-0.840
2020/01/31 09:33:53.9	106.620	-0.020	0.000	-0.840
2020/01/31 09:33:54.0	106.640	0.020	-0.020	-0.840
2020/01/31 09:33:54.1	106.660	0.060	-0.040	-0.830
2020/01/31 09:33:54.2	106.670	0.100	-0.060	-0.810
2020/01/31 09:33:54.3	106.680	0.140	-0.070	-0.800
2020/01/31 09:33:54.4	106.690	0.170	-0.090	-0.770
2020/01/31 09:33:54.5	106.690	0.210	-0.100	-0.750
2020/01/31 09:33:54.6	106.700	0.240	-0.120	-0.720
2020/01/31 09:33:54.7	106.690	0.280	-0.130	-0.680
2020/01/31 09:33:54.8	106.690	0.300	-0.140	-0.650
2020/01/31 09:33:54.9	106.680	0.330	-0.150	-0.600
2020/01/31 09:33:55.0	106.670	0.350	-0.150	-0.560
2020/01/31 09:33:55.1	106.660	0.370	-0.160	-0.510
2020/01/31 09:33:55.2	106.650	0.390	-0.160	-0.450
2020/01/31 09:33:55.3	106.610	0.410	-0.160	-0.390
2020/01/31 09:33:55.4	106.590	0.420	-0.160	-0.330
2020/01/31 09:33:55.5	106.570	0.430	-0.160	-0.270
2020/01/31 09:33:55.6	106.550	0.430	-0.160	-0.200
2020/01/31 09:33:55.7				
2020/01/31 09:33:55.8	106.520	0.430	-0.160	-0.120
2020/01/31 09:33:55.9	106.470	0.430	-0.160	0.030
2020/01/31 09:33:56.0	106.440	0.430	-0.150	0.110
2020/01/31 09:33:56.1	106.410	0.420	-0.150	0.190
2020/01/31 09:33:56.2	106.380	0.410	-0.160	0.280
2020/01/31 09:33:56.3	106.350	0.400	-0.160	0.370
2020/01/31 09:33:56.4	106.320	0.390	-0.160	0.450
2020/01/31 09:33:56.5	106.290	0.380	-0.170	0.540
2020/01/31 09:33:56.6	106.260	0.370	-0.180	0.630
2020/01/31 09:33:56.7	106.230	0.350	-0.190	0.720
2020/01/31 09:33:56.8	106.200	0.340	-0.200	0.810
2020/01/31 09:33:56.9	106.170	0.320	-0.210	0.900
2020/01/31 09:33:57.0	106.150	0.310	-0.230	0.990
2020/01/31 09:33:57.1	106.120	0.300	-0.240	1.070
2020/01/31 09:33:57.2	106.100	0.280	-0.260	1.160
2020/01/31 09:33:57.3	106.070	0.270	-0.280	1.250
2020/01/31 09:33:57.4	106.060	0.260	-0.300	1.330
2020/01/31 09:33:57.5	106.040	0.250	-0.320	1.410
2020/01/31 09:33:57.6	106.020	0.240	-0.340	1.490
2020/01/31 09:33:57.7	106.000	0.230	-0.370	1.560
2020/01/31 09:33:57.8				
2020/01/31 09:33:57.9	105.990	0.220	-0.390	1.630
2020/01/31 09:33:58.0	105.960	0.210	-0.430	1.770
2020/01/31 09:33:58.1	105.950	0.210	-0.450	1.830
2020/01/31 09:33:58.2	105.940	0.200	-0.460	1.890
2020/01/31 09:33:58.3	105.930	0.200	-0.480	1.940
2020/01/31 09:33:58.4	105.920	0.200	-0.490	2.000
2020/01/31 09:33:58.5	105.920	0.190	-0.510	2.050
2020/01/31 09:33:58.6	105.910	0.190	-0.520	2.090
2020/01/31 09:33:58.7	105.910	0.190	-0.520	2.130
2020/01/31 09:33:58.8	105.900	0.190	-0.530	2.170
2020/01/31 09:33:58.9	105.900	0.190	-0.530	2.210
2020/01/31 09:33:59.0	105.900	0.190	-0.520	2.240
2020/01/31 09:33:59.1	105.890	0.180	-0.510	2.270
2020/01/31 09:33:59.2	105.890	0.180	-0.500	2.290
2020/01/31 09:33:59.3	105.890	0.180	-0.490	2.310
2020/01/31 09:33:59.4	105.890	0.170	-0.470	2.330
2020/01/31 09:33:59.5	105.890	0.160	-0.450	2.340
2020/01/31 09:33:59.6	105.890	0.150	-0.420	2.350
2020/01/31 09:33:59.7	105.890	0.140	-0.390	2.360
2020/01/31 09:33:59.8	105.890	0.130	-0.360	2.360
2020/01/31 09:33:59.9				
2020/01/31 09:34:00.0	105.890	0.120	-0.330	2.360
2020/01/31 09:34:00.1	105.900	0.090	-0.250	2.340
2020/01/31 09:34:00.2	105.900	0.070	-0.200	2.320
2020/01/31 09:34:00.3	105.900	0.040	-0.160	2.310
2020/01/31 09:34:00.4	105.910	0.020	-0.120	2.290
2020/01/31 09:34:00.5	105.910	-0.000	-0.070	2.260
2020/01/31 09:34:00.6	105.920	-0.030	-0.030	2.230
2020/01/31 09:34:00.7	105.930	-0.060	0.020	2.200
2020/01/31 09:34:00.8	105.930	-0.080	0.070	2.170
2020/01/31 09:34:00.9	105.940	-0.110	0.110	2.130
2020/01/31 09:34:01.0	105.950	-0.140	0.150	2.090
2020/01/31 09:34:01.1	105.950	-0.170	0.190	2.050
2020/01/31 09:34:01.2	105.960	-0.200	0.230	2.010
2020/01/31 09:34:01.3	105.980	-0.230	0.270	1.960
2020/01/31 09:34:01.4	105.980	-0.260	0.300	1.910
2020/01/31 09:34:01.5	105.990	-0.290	0.330	1.870
2020/01/31 09:34:01.6	105.990	-0.320	0.350	1.820
2020/01/31 09:34:01.7	106.000	-0.350	0.370	1.770
2020/01/31 09:34:01.8	106.000	-0.370	0.380	1.720
2020/01/31 09:34:01.9	106.010	-0.390	0.390	1.670
2020/01/31 09:34:02.0				
2020/01/31 09:34:02.1	106.010	-0.410	0.400	1.620
2020/01/31 09:34:02.2	106.010	-0.450	0.390	1.520
2020/01/31 09:34:02.3	106.010	-0.460	0.380	1.470
2020/01/31 09:34:02.4	106.010	-0.470	0.360	1.420
2020/01/31 09:34:02.5	106.010	-0.480	0.340	1.370
2020/01/31 09:34:02.6	106.010	-0.480	0.310	1.320
2020/01/31 09:34:02.7	106.010	-0.480	0.280	1.260
2020/01/31 09:34:02.8	106.020	-0.480	0.250	1.210
2020/01/31 09:34:02.9	106.020	-0.470	0.210	1.160
2020/01/31 09:34:03.0	106.020	-0.460	0.170	1.100
2020/01/31 09:34:03.1	106.020	-0.450	0.120	1.050
2020/01/31 09:34:03.2	106.020	-0.430	0.070	0.990
2020/01/31 09:34:03.3	106.020	-0.410	0.020	0.930
2020/01/31 09:34:03.4	106.020	-0.390	-0.040	0.870
2020/01/31 09:34:03.5	106.030	-0.360	-0.100	0.820
2020/01/31 09:34:03.6	106.030	-0.340	-0.150	0.760
2020/01/31 09:34:03.7	106.030	-0.310	-0.210	0.700
2020/01/31 09:34:03.8	106.030	-0.280	-0.270	0.630
2020/01/31 09:34:03.9	106.040	-0.240	-0.320	0.570
2020/01/31 09:34:04.0	106.040	-0.210	-0.380	0.510
2020/01/31 09:34:04.1				
2020/01/31 09:34:04.2	106.040	-0.170	-0.430	0.450
2020/01/31 09:34:04.3	106.050	-0.110	-0.530	0.320
2020/01/31 09:34:04.4	106.040	-0.070	-0.570	0.250
2020/01/31 09:34:04.5	106.050	-0.040	-0.610	0.190
2020/01/31 09:34:04.6	106.050	-0.000	-0.640	0.120
2020/01/31 09:34:04.7	106.060	0.030	-0.670	0.060
2020/01/31 09:34:04.8	106.060	0.060	-0.700	-0.010
2020/01/31 09:34:04.9	106.070	0.090	-0.710	-0.070
2020/01/31 09:34:05.0	106.080	0.110	-0.730	-0.130
2020/01/31 09:34:05.1	106.080	0.140	-0.730	-0.190
2020/01/31 09:34:05.2	106.090	0.160	-0.730	-0.250
2020/01/31 09:34:05.3	106.080	0.180	-0.720	-0.310
2020/01/31 09:34:05.4	106.090	0.190	-0.710	-0.370
2020/01/31 09:34:05.5	106.100	0.210	-0.690	-0.420
2020/01/31 09:34:05.6	106.100	0.220	-0.670	-0.470
2020/01/31 09:34:05.7	106.110	0.220	-0.640	-0.520
2020/01/31 09:34:05.8	106.120	0.230	-0.600	-0.560
2020/01/31 09:34:05.9	106.120	0.230	-0.560	-0.600
2020/01/31 09:34:06.0	106.130	0.230	-0.520	-0.640
2020/01/31 09:34:06.1	106.130	0.230	-0.470	-0.670
2020/01/31 09:34:06.2				
2020/01/31 09:34:06.3	106.140	0.220	-0.420	-0.700
2020/01/31 09:34:06.4	106.130	0.210	-0.320	-0.740
2020/01/31 09:34:06.5	106.130	0.200	-0.260	-0.760
2020/01/31 09:34:06.6	106.130	0.180	-0.210	-0.770
2020/01/31 09:34:06.7	106.120	0.170	-0.150	-0.780
2020/01/31 09:34:06.8	106.120	0.150	-0.100	-0.780
2020/01/31 09:34:06.9	106.110	0.140	-0.040	-0.780
2020/01/31 09:34:07.0	106.100	0.120	0.010	-0.780
2020/01/31 09:34:07.1	106.090	0.100	0.060	-0.770
2020/01/31 09:34:07.2	106.070	0.090	0.100	-0.760
2020/01/31 09:34:07.3	106.060	0.070	0.140	-0.740
2020/01/31 09:34:07.4	106.050	0.050	0.180	-0.730
2020/01/31 09:34:07.5	106.040	0.040	0.220	-0.710
2020/01/31 09:34:07.6	106.020	0.020	0.240	-0.690
2020/01/31 09:34:07.7	106.000	0.010	0.270	-0.660
2020/01/31 09:34:07.8	105.980	-0.010	0.280	-0.630
2020/01/31 09:34:07.9	105.960	-0.020	0.290	-0.600
2020/01/31 09:34:08.0	105.940	-0.030	0.300	-0.570
2020/01/31 09:34:08.1	105.920	-0.040	0.300	-0.540
2020/01/31 09:34:08.2	105.900	-0.050	0.290	-0.500
2020/01/31 09:34:08.3				
2020/01/31 09:34:08.4	105.890	-0.050	0.280	-0.470
2020/01/31 09:34:08.5	105.850	-0.060	0.240	-0.400
2020/01/31 09:34:08.6	105.840	-0.060	0.210	-0.360
2020/01/31 09:34:08.7	105.820	-0.060	0.170	-0.320
2020/01/31 09:34:08.8	105.810	-0.060	0.140	-0.280
2020/01/31 09:34:08.9	105.810	-0.060	0.090	-0.250
2020/01/31 09:34:09.0	105.800	-0.050	0.050	-0.210
2020/01/31 09:34:09.1	105.800	-0.050	0.000	-0.170
2020/01/31 09:34:09.2	105.800	-0.040	-0.050	-0.130
2020/01/31 09:34:09.3	105.790	-0.030	-0.100	-0.090
2020/01/31 09:34:09.4	105.800	-0.030	-0.150	-0.050
2020/01/31 09:34:09.5	105.810	-0.020	-0.200	-0.020
2020/01/31 09:34:09.6	105.820	-0.010	-0.250	0.020
2020/01/31 09:34:09.7	105.830	0.000	-0.290	0.060
2020/01/31 09:34:09.8	105.850	0.010	-0.340	0.100
2020/01/31 09:34:09.9	105.870	0.020	-0.380	0.140
2020/01/31 09:34:10.0	105.890	0.030	-0.420	0.180
2020/01/31 09:34:10.1	105.920	0.040	-0.460	0.220
2020/01/31 09:34:10.2	105.940	0.050	-0.490	0.260
2020/01/31 09:34:10.3	105.960	0.060	-0.510	0.300
2020/01/31 09:34:10.4				
2020/01/31 09:34:10.5	105.980	0.070	-0.530	0.340
2020/01/31 09:34:10.6	106.050	0.080	-0.560	0.430
2020/01/31 09:34:10.7	106.080	0.090	-0.560	0.470
2020/01/31 09:34:10.8	106.110	0.090	-0.560	0.510
2020/01/31 09:34:10.9	106.140	0.100	-0.550	0.560
2020/01/31 09:34:11.0	106.170	0.100	-0.540	0.600
2020/01/31 09:34:11.1	106.200	0.100	-0.520	0.650
2020/01/31 09:34:11.2	106.230	0.100	-0.500	0.700
2020/01/31 09:34:11.3				
2020/01/31 09:34:11.4	106.260	0.100	-0.470	0.740
2020/01/31 09:34:11.5	106.290	0.100	-0.440	0.790
2020/01/31 09:34:11.6	106.340	0.090	-0.370	0.890
2020/01/31 09:34:11.7	106.360	0.090	-0.330	0.940
2020/01/31 09:34:11.8				
2020/01/31 09:34:11.9	106.380	0.080	-0.290	0.990
2020/01/31 09:34:12.0	106.420	0.070	-0.200	1.090
2020/01/31 09:34:12.1	106.440	0.060	-0.160	1.140
2020/01/31 09:34:12.2	106.450	0.050	-0.110	1.190
2020/01/31 09:34:12.3	106.470	0.040	-0.070	1.240
2020/01/31 09:34:12.4	106.480	0.030	-0.030	1.290
2020/01/31 09:34:12.5				
2020/01/31 09:34:12.6	106.490	0.020	0.010	1.340
2020/01/31 09:34:12.7	106.500	0.000	0.080	1.440
2020/01/31 09:34:12.8				
2020/01/31 09:34:12.9	106.500	-0.010	0.120	1.490
2020/01/31 09:34:13.0	106.500	-0.020	0.170	1.590
2020/01/31 09:34:13.1	106.500	-0.030	0.200	1.640
2020/01/31 09:34:13.2	106.490	-0.040	0.220	1.690
2020/01/31 09:34:13.3	106.490	-0.050	0.230	1.740
2020/01/31 09:34:13.4	106.480	-0.050	0.240	1.790
2020/01/31 09:34:13.5				
2020/01/31 09:34:13.6	106.470	-0.060	0.250	1.840
2020/01/31 09:34:13.7	106.440	-0.070	0.250	1.930
2020/01/31 09:34:13.8				
2020/01/31 09:34:13.9	106.430	-0.070	0.240	1.970
2020/01/31 09:34:14.0	106.390	-0.070	0.220	2.050
2020/01/31 09:34:14.1				
2020/01/31 09:34:14.2	106.370	-0.070	0.200	2.090
2020/01/31 09:34:14.3	106.320	-0.070	0.160	2.150
2020/01/31 09:34:14.4				
2020/01/31 09:34:14.5	106.300	-0.070	0.130	2.180
2020/01/31 09:34:14.6				
2020/01/31 09:34:14.7	106.250	-0.060	0.080	2.220
2020/01/31 09:34:14.8	106.220	-0.060	0.050	2.240
2020/01/31 09:34:14.9				
2020/01/31 09:34:15.0	106.170	-0.050	-0.010	2.270
2020/01/31 09:34:15.1	106.130	-0.040	-0.080	2.280
2020/01/31 09:34:15.2	106.100	-0.030	-0.100	2.280
2020/01/31 09:34:15.3	106.090	-0.030	-0.140	2.280
2020/01/31 09:34:15.4	106.070	-0.030	-0.160	2.270
2020/01/31 09:34:15.5				
2020/01/31 09:34:15.6	106.050	-0.020	-0.190	2.260
2020/01/31 09:34:15.7	106.030	-0.020	-0.210	2.250
2020/01/31 09:34:15.8	106.010	-0.020	-0.230	2.240
2020/01/31 09:34:15.9	105.970	-0.010	-0.260	2.200
2020/01/31 09:34:16.0	105.960	-0.010	-0.280	2.170
2020/01/31 09:34:16.1	105.940	-0.010	-0.290	2.150
2020/01/31 09:34:16.2	105.930	-0.010	-0.290	2.120
2020/01/31 09:34:16.3	105.910	-0.010	-0.300	2.090
2020/01/31 09:34:16.4	105.900	-0.020	-0.300	2.050
2020/01/31 09:34:16.5				
2020/01/31 09:34:16.6	105.890	-0.020	-0.310	2.020
2020/01/31 09:34:16.7				
2020/01/31 09:34:16.8	105.870	-0.020	-0.310	1.940
2020/01/31 09:34:16.9	105.870	-0.030	-0.300	1.900
2020/01/31 09:34:17.0	105.860	-0.030	-0.300	1.850
2020/01/31 09:34:17.1	105.860	-0.030	-0.300	1.760
2020/01/31 09:34:17.2	105.860	-0.040	-0.300	1.710
2020/01/31 09:34:17.3	105.870	-0.040	-0.300	1.650
2020/01/31 09:34:17.4	105.880	-0.040	-0.300	1.600
2020/01/31 09:34:17.5	105.880	-0.040	-0.300	1.540
2020/01/31 09:34:17.6	105.890	-0.040	-0.300	1.490
2020/01/31 09:34:17.7	105.900	-0.040	-0.310	1.430
2020/01/31 09:34:17.8	105.910	-0.040	-0.320	1.370
2020/01/31 09:34:17.9	105.920	-0.040	-0.330	1.320
2020/01/31 09:34:18.0				
2020/01/31 09:34:18.1	105.930	-0.040	-0.340	1.260
2020/01/31 09:34:18.2	105.940	-0.030	-0.350	1.200
2020/01/31 09:34:18.3	105.970	-0.020	-0.390	1.070
2020/01/31 09:34:18.4	105.980	-0.010	-0.410	1.010
2020/01/31 09:34:18.5				
2020/01/31 09:34:18.6	105.990	-0.000	-0.430	0.950
2020/01/31 09:34:18.7	106.000	0.010	-0.450	0.890
2020/01/31 09:34:18.8	106.010	0.020	-0.470	0.830
2020/01/31 09:34:18.9	106.020	0.030	-0.490	0.770
2020/01/31 09:34:19.0				
2020/01/31 09:34:19.1	106.030	0.060	-0.540	0.650
2020/01/31 09:34:19.2	106.040	0.070	-0.560	0.590
2020/01/31 09:34:19.3	106.050	0.110	-0.600	0.480
2020/01/31 09:34:19.4	106.060	0.120	-0.620	0.420
2020/01/31 09:34:19.5				
2020/01/31 09:34:19.6	106.060	0.140	-0.640	0.370
2020/01/31 09:34:19.7	106.060	0.160	-0.650	0.310
2020/01/31 09:34:19.8	106.060	0.170	-0.670	0.260
2020/01/31 09:34:19.9				
2020/01/31 09:34:20.0	106.060	0.210	-0.690	0.160
2020/01/31 09:34:20.1	106.060	0.220	-0.690	0.110
2020/01/31 09:34:20.2	106.060	0.240	-0.690	0.060
2020/01/31 09:34:20.3				
2020/01/31 09:34:20.4	106.060	0.260	-0.680	-0.030
2020/01/31 09:34:20.5	106.050	0.280	-0.670	-0.070
2020/01/31 09:34:20.6	106.050	0.300	-0.640	-0.150
2020/01/31 09:34:20.7	106.050	0.310	-0.620	-0.180
2020/01/31 09:34:20.8	106.050	0.310	-0.590	-0.220
2020/01/31 09:34:20.9				
2020/01/31 09:34:21.0	106.050	0.320	-0.560	-0.250
2020/01/31 09:34:21.1	106.060	0.330	-0.480	-0.310
2020/01/31 09:34:21.2	106.060	0.330	-0.440	-0.330
2020/01/31 09:34:21.3	106.070	0.330	-0.400	-0.350
2020/01/31 09:34:21.4				
2020/01/31 09:34:21.5	106.080	0.320	-0.340	-0.370
2020/01/31 09:34:21.6	106.090	0.320	-0.290	-0.390
2020/01/31 09:34:21.7	106.100	0.310	-0.180	-0.420
2020/01/31 09:34:21.8	106.110	0.300	-0.120	-0.420
2020/01/31 09:34:21.9	106.110	0.290	-0.060	-0.430
2020/01/31 09:34:22.0	106.120	0.270	-0.000	-0.430
2020/01/31 09:34:22.1	106.130	0.260	0.060	-0.430
2020/01/31 09:34:22.2	106.130	0.250	0.120	-0.430
2020/01/31 09:34:22.3				
2020/01/31 09:34:22.4	106.140	0.230	0.180	-0.420
2020/01/31 09:34:22.5	106.140	0.210	0.230	-0.410
2020/01/31 09:34:22.6	106.140	0.190	0.290	-0.400
2020/01/31 09:34:22.7	106.140	0.170	0.350	-0.380
2020/01/31 09:34:22.8	106.140	0.150	0.400	-0.360
2020/01/31 09:34:22.9	106.140	0.130	0.450	-0.340
2020/01/31 09:34:23.0	106.140	0.110	0.490	-0.310
2020/01/31 09:34:23.1	106.130	0.080	0.530	-0.280
2020/01/31 09:34:23.2	106.110	0.030	0.610	-0.200
2020/01/31 09:34:23.3	106.100	0.000	0.640	-0.160
2020/01/31 09:34:23.4	106.090	-0.020	0.670	-0.120
2020/01/31 09:34:23.5	106.070	-0.050	0.690	-0.070
2020/01/31 09:34:23.6	106.060	-0.080	0.710	-0.030
2020/01/31 09:34:23.7	106.040	-0.100	0.720	0.020
2020/01/31 09:34:23.8	106.020	-0.130	0.730	0.070
2020/01/31 09:34:23.9				
2020/01/31 09:34:24.0	106.000	-0.160	0.730	0.120
2020/01/31 09:34:24.1	105.980	-0.190	0.730	0.180
2020/01/31 09:34:24.2	105.960	-0.220	0.730	0.230
2020/01/31 09:34:24.3	105.920	-0.270	0.710	0.330
2020/01/31 09:34:24.4	105.880	-0.300	0.690	0.380
2020/01/31 09:34:24.5	105.860	-0.330	0.680	0.430
2020/01/31 09:34:24.6	105.840	-0.350	0.650	0.480
2020/01/31 09:34:24.7	105.820	-0.380	0.630	0.530
2020/01/31 09:34:24.8	105.800	-0.400	0.600	0.570
2020/01/31 09:34:24.9				
2020/01/31 09:34:25.0	105.780	-0.430	0.570	0.620
2020/01/31 09:34:25.1	105.770	-0.450	0.540	0.660
2020/01/31 09:34:25.2	105.760	-0.470	0.500	0.700
2020/01/31 09:34:25.3	105.720	-0.510	0.430	0.780
2020/01/31 09:34:25.4	105.710	-0.530	0.380	0.810
2020/01/31 09:34:25.5	105.710	-0.540	0.340	0.840
2020/01/31 09:34:25.6	105.700	-0.560	0.290	0.870
2020/01/31 09:34:25.7	105.700	-0.570	0.240	0.900
2020/01/31 09:34:25.8	105.690	-0.580	0.190	0.930
2020/01/31 09:34:25.9				
2020/01/31 09:34:26.0	105.690	-0.580	0.140	0.960
2020/01/31 09:34:26.1	105.690	-0.590	0.030	1.010
2020/01/31 09:34:26.2	105.690	-0.590	-0.030	1.040
2020/01/31 09:34:26.3	105.680	-0.580	-0.090	1.070
2020/01/31 09:34:26.4	105.690	-0.580	-0.140	1.090
2020/01/31 09:34:26.5	105.690	-0.570	-0.200	1.120
2020/01/31 09:34:26.6				
2020/01/31 09:34:26.7	105.700	-0.560	-0.260	1.140
2020/01/31 09:34:26.8	105.710	-0.530	-0.380	1.190
2020/01/31 09:34:26.9				
2020/01/31 09:34:27.0	105.720	-0.510	-0.440	1.220
2020/01/31 09:34:27.1	105.720	-0.490	-0.490	1.240
2020/01/31 09:34:27.2	105.730	-0.460	-0.550	1.260
2020/01/31 09:34:27.3	105.740	-0.440	-0.610	1.290
2020/01/31 09:34:27.4	105.750	-0.410	-0.660	1.310
2020/01/31 09:34:27.5	105.750	-0.380	-0.710	1.330
2020/01/31 09:34:27.6	105.770	-0.310	-0.800	1.380
2020/01/31 09:34:27.7	105.780	-0.280	-0.850	1.400
2020/01/31 09:34:27.8	105.790	-0.240	-0.890	1.410
2020/01/31 09:34:27.9	105.800	-0.210	-0.920	1.430
2020/01/31 09:34:28.0	105.810	-0.170	-0.950	1.450
2020/01/31 09:34:28.1	105.810	-0.130	-0.980	1.460
2020/01/31 09:34:28.2	105.820	-0.090	-1.000	1.470
2020/01/31 09:34:28.3	105.830	-0.060	-1.020	1.480
2020/01/31 09:34:28.4	105.840	-0.020	-1.040	1.490
2020/01/31 09:34:28.5	105.840	0.020	-1.050	1.500
2020/01/31 09:34:28.6	105.850	0.060	-1.050	1.510
2020/01/31 09:34:28.7				
2020/01/31 09:34:28.8	105.850	0.090	-1.050	1.510
2020/01/31 09:34:28.9	105.850	0.160	-1.040	1.520
2020/01/31 09:34:29.0				
2020/01/31 09:34:29.1	105.850	0.190	-1.020	1.520
2020/01/31 09:34:29.2	105.850	0.220	-1.000	1.520
2020/01/31 09:34:29.3				
2020/01/31 09:34:29.4	105.850	0.270	-0.960	1.520
2020/01/31 09:34:29.5	105.840	0.320	-0.900	1.510
2020/01/31 09:34:29.6				
2020/01/31 09:34:29.7	105.830	0.350	-0.870	1.500
2020/01/31 09:34:29.8	105.810	0.370	-0.830	1.490
2020/01/31 09:34:29.9	105.800	0.380	-0.800	1.480
2020/01/31 09:34:30.0	105.790	0.400	-0.760	1.460
2020/01/31 09:34:30.1	105.770	0.410	-0.720	1.450
2020/01/31 09:34:30.2	105.760	0.430	-0.680	1.430
2020/01/31 09:34:30.3	105.740	0.440	-0.640	1.410
2020/01/31 09:34:30.4	105.720	0.460	-0.560	1.370
2020/01/31 09:34:30.5	105.700	0.460	-0.520	1.340
2020/01/31 09:34:30.6				
2020/01/31 09:34:30.7	105.690	0.470	-0.480	1.310
2020/01/31 09:34:30.8	105.670	0.470	-0.440	1.280
2020/01/31 09:34:30.9	105.660	0.480	-0.410	1.250
2020/01/31 09:34:31.0	105.630	0.480	-0.340	1.180
2020/01/31 09:34:31.1	105.620	0.480	-0.310	1.140
2020/01/31 09:34:31.2				
2020/01/31 09:34:31.3	105.610	0.480	-0.280	1.090
2020/01/31 09:34:31.4	105.620	0.480	-0.250	1.050
2020/01/31 09:34:31.5	105.610	0.480	-0.220	1.000
2020/01/31 09:34:31.6	105.610	0.470	-0.190	0.950
2020/01/31 09:34:31.7	105.600	0.470	-0.170	0.900
2020/01/31 09:34:31.8	105.600	0.470	-0.140	0.850
2020/01/31 09:34:31.9	105.600	0.460	-0.120	0.800
2020/01/31 09:34:32.0	105.590	0.450	-0.090	0.750
2020/01/31 09:34:32.1	105.590	0.440	-0.050	0.640
2020/01/31 09:34:32.2	105.590	0.430	-0.030	0.590
2020/01/31 09:34:32.3				
2020/01/31 09:34:32.4	105.600	0.420	-0.000	0.530
2020/01/31 09:34:32.5	105.600	0.410	0.020	0.480
2020/01/31 09:34:32.6	105.590	0.390	0.040	0.430
2020/01/31 09:34:32.7	105.590	0.380	0.060	0.380
2020/01/31 09:34:32.8	105.570	0.350	0.110	0.290
2020/01/31 09:34:32.9	105.560	0.330	0.140	0.240
2020/01/31 09:34:33.0	105.560	0.310	0.160	0.200
2020/01/31 09:34:33.1	105.550	0.290	0.190	0.150
2020/01/31 09:34:33.2	105.540	0.270	0.210	0.110
2020/01/31 09:34:33.3	105.530	0.250	0.230	0.070
2020/01/31 09:34:33.4	105.520	0.230	0.260	0.030
2020/01/31 09:34:33.5				
2020/01/31 09:34:33.6	105.510	0.200	0.290	-0.010
2020/01/31 09:34:33.7	105.500	0.180	0.310	-0.050
2020/01/31 09:34:33.8	105.490	0.150	0.340	-0.090
2020/01/31 09:34:33.9	105.480	0.130	0.370	-0.130
2020/01/31 09:34:34.0	105.470	0.100	0.390	-0.170
2020/01/31 09:34:34.1	105.450	0.040	0.440	-0.250
2020/01/31 09:34:34.2	105.440	0.010	0.460	-0.290
2020/01/31 09:34:34.3				
2020/01/31 09:34:34.4	105.430	-0.020	0.480	-0.330
2020/01/31 09:34:34.5	105.430	-0.050	0.500	-0.370
2020/01/31 09:34:34.6	105.420	-0.080	0.520	-0.400
2020/01/31 09:34:34.7	105.420	-0.110	0.530	-0.440
2020/01/31 09:34:34.8	105.420	-0.140	0.540	-0.470
2020/01/31 09:34:34.9	105.420	-0.170	0.550	-0.510
2020/01/31 09:34:35.0	105.430	-0.200	0.550	-0.540
2020/01/31 09:34:35.1	105.440	-0.260	0.550	-0.610
2020/01/31 09:34:35.2	105.450	-0.280	0.550	-0.640
2020/01/31 09:34:35.3				
2020/01/31 09:34:35.4	105.460	-0.310	0.540	-0.670
2020/01/31 09:34:35.5	105.480	-0.330	0.520	-0.700
2020/01/31 09:34:35.6				
2020/01/31 09:34:35.7	105.510	-0.380	0.480	-0.760
2020/01/31 09:34:35.8	105.530	-0.390	0.460	-0.780
2020/01/31 09:34:35.9	105.550	-0.410	0.430	-0.800
2020/01/31 09:34:36.0	105.570	-0.430	0.390	-0.820
2020/01/31 09:34:36.1	105.600	-0.440	0.360	-0.840
2020/01/31 09:34:36.2	105.630	-0.450	0.320	-0.850
2020/01/31 09:34:36.3	105.650	-0.460	0.270	-0.870
2020/01/31 09:34:36.4	105.680	-0.470	0.230	-0.880
2020/01/31 09:34:36.5				
2020/01/31 09:34:36.6	105.740	-0.480	0.130	-0.880
2020/01/31 09:34:36.7	105.770	-0.480	0.080	-0.880
2020/01/31 09:34:36.8	105.800	-0.480	0.020	-0.880
2020/01/31 09:34:36.9	105.830	-0.480	-0.030	-0.870
2020/01/31 09:34:37.0				
2020/01/31 09:34:37.1	105.880	-0.460	-0.140	-0.830
2020/01/31 09:34:37.2	105.900	-0.460	-0.200	-0.810
2020/01/31 09:34:37.3	105.920	-0.450	-0.250	-0.780
2020/01/31 09:34:37.4	105.940	-0.430	-0.310	-0.740
2020/01/31 09:34:37.5	105.960	-0.420	-0.360	-0.700
2020/01/31 09:34:37.6	105.970	-0.410	-0.410	-0.650
2020/01/31 09:34:37.7	105.980	-0.390	-0.460	-0.600
2020/01/31 09:34:37.8	105.990	-0.380	-0.510	-0.540
2020/01/31 09:34:37.9	106.000	-0.360	-0.550	-0.480
2020/01/31 09:34:38.0	106.000	-0.340	-0.590	-0.410
2020/01/31 09:34:38.1	106.000	-0.300	-0.660	-0.260
2020/01/31 09:34:38.2				
2020/01/31 09:34:38.3	105.990	-0.290	-0.690	-0.180
2020/01/31 09:34:38.4				
2020/01/31 09:34:38.5	105.970	-0.250	-0.740	-0.010
2020/01/31 09:34:38.6	105.960	-0.230	-0.760	0.090
2020/01/31 09:34:38.7	105.940	-0.210	-0.780	0.180
2020/01/31 09:34:38.8	105.920	-0.190	-0.790	0.280
2020/01/31 09:34:38.9				
2020/01/31 09:34:39.0	105.870	-0.160	-0.810	0.480
2020/01/31 09:34:39.1	105.850	-0.140	-0.810	0.580
2020/01/31 09:34:39.2	105.820	-0.130	-0.810	0.680
2020/01/31 09:34:39.3	105.790	-0.110	-0.810	0.780
2020/01/31 09:34:39.4	105.760	-0.100	-0.800	0.880
2020/01/31 09:34:39.5	105.730	-0.080	-0.790	0.980
2020/01/31 09:34:39.6				
2020/01/31 09:34:39.7	105.670	-0.060	-0.760	1.180
2020/01/31 09:34:39.8	105.640	-0.050	-0.750	1.270
2020/01/31 09:34:39.9	105.600	-0.040	-0.720	1.370
2020/01/31 09:34:40.0	105.570	-0.030	-0.700	1.460
2020/01/31 09:34:40.1	105.540	-0.020	-0.670	1.550
2020/01/31 09:34:40.2	105.500	-0.020	-0.650	1.640
2020/01/31 09:34:40.3	105.470	-0.010	-0.620	1.730
2020/01/31 09:34:40.4	105.450	-0.010	-0.580	1.810
2020/01/31 09:34:40.5	105.420	-0.010	-0.550	1.890
2020/01/31 09:34:40.6	105.390	-0.000	-0.510	1.960
2020/01/31 09:34:40.7				
2020/01/31 09:34:40.8	105.340	-0.000	-0.440	2.100
2020/01/31 09:34:40.9	105.320	-0.000	-0.400	2.160
2020/01/31 09:34:41.0	105.290	-0.000	-0.360	2.220
2020/01/31 09:34:41.1	105.280	-0.010	-0.310	2.280
2020/01/31 09:34:41.2	105.260	-0.010	-0.270	2.330
2020/01/31 09:34:41.3				
2020/01/31 09:34:41.4	105.210	-0.010	-0.180	2.400
2020/01/31 09:34:41.5	105.200	-0.020	-0.140	2.440
2020/01/31 09:34:41.6	105.200	-0.020	-0.100	2.460
2020/01/31 09:34:41.7	105.190	-0.030	-0.020	2.490
2020/01/31 09:34:41.8				
2020/01/31 09:34:41.9	105.190	-0.030	0.020	2.500
2020/01/31 09:34:42.0	105.190	-0.030	0.060	2.500
2020/01/31 09:34:42.1	105.190	-0.030	0.090	2.500
2020/01/31 09:34:42.2	105.200	-0.030	0.120	2.480
2020/01/31 09:34:42.3	105.200	-0.020	0.150	2.460
2020/01/31 09:34:42.4	105.210	-0.020	0.170	2.440
2020/01/31 09:34:42.5	105.220	-0.020	0.190	2.410
2020/01/31 09:34:42.6	105.230	-0.010	0.210	2.370
2020/01/31 09:34:42.7	105.250	0.000	0.220	2.330
2020/01/31 09:34:42.8	105.260	0.010	0.230	2.280
2020/01/31 09:34:42.9	105.280	0.030	0.230	2.230
2020/01/31 09:34:43.0	105.310	0.060	0.230	2.100
2020/01/31 09:34:43.1	105.330	0.080	0.220	2.040
2020/01/31 09:34:43.2				
2020/01/31 09:34:43.3	105.350	0.100	0.200	1.960
2020/01/31 09:34:43.4	105.370	0.120	0.190	1.890
2020/01/31 09:34:43.5	105.390	0.150	0.160	1.810
2020/01/31 09:34:43.6	105.410	0.170	0.130	1.730
2020/01/31 09:34:43.7	105.420	0.200	0.100	1.640
2020/01/31 09:34:43.8	105.440	0.230	0.070	1.560
2020/01/31 09:34:43.9	105.460	0.260	0.030	1.470
2020/01/31 09:34:44.0	105.470	0.290	-0.010	1.380
2020/01/31 09:34:44.1	105.490	0.320	-0.050	1.290
2020/01/31 09:34:44.2	105.500	0.350	-0.100	1.200
2020/01/31 09:34:44.3	105.510	0.380	-0.140	1.120
2020/01/31 09:34:44.4	105.520	0.410	-0.190	1.030
2020/01/31 09:34:44.5	105.530	0.440	-0.230	0.940
2020/01/31 09:34:44.6	105.530	0.470	-0.280	0.860
2020/01/31 09:34:44.7	105.530	0.500	-0.320	0.780
2020/01/31 09:34:44.8	105.530	0.520	-0.360	0.700
2020/01/31 09:34:44.9	105.530	0.540	-0.390	0.620
2020/01/31 09:34:45.0	105.520	0.560	-0.420	0.550
2020/01/31 09:34:45.1	105.510	0.580	-0.450	0.480
2020/01/31 09:34:45.2	105.500	0.590	-0.480	0.410
2020/01/31 09:34:45.3	105.490	0.610	-0.500	0.340
2020/01/31 09:34:45.4	105.470	0.610	-0.510	0.280
2020/01/31 09:34:45.5	105.450	0.620	-0.520	0.220
2020/01/31 09:34:45.6	105.430	0.620	-0.530	0.170
2020/01/31 09:34:45.7	105.410	0.620	-0.530	0.110
2020/01/31 09:34:45.8	105.380	0.610	-0.520	0.060
2020/01/31 09:34:45.9	105.360	0.600	-0.510	0.010
2020/01/31 09:34:46.0	105.330	0.590	-0.500	-0.040
2020/01/31 09:34:46.1	105.310	0.570	-0.480	-0.080
2020/01/31 09:34:46.2	105.280	0.550	-0.450	-0.120
2020/01/31 09:34:46.3	105.250	0.530	-0.420	-0.160
2020/01/31 09:34:46.4	105.210	0.510	-0.380	-0.210
2020/01/31 09:34:46.5	105.180	0.480	-0.350	-0.240
2020/01/31 09:34:46.6	105.150	0.450	-0.310	-0.280
2020/01/31 09:34:46.7	105.120	0.410	-0.260	-0.310
2020/01/31 09:34:46.8	105.090	0.380	-0.220	-0.340
2020/01/31 09:34:46.9	105.060	0.340	-0.170	-0.370
2020/01/31 09:34:47.0	105.040	0.300	-0.120	-0.390
2020/01/31 09:34:47.1	105.010	0.260	-0.070	-0.420
2020/01/31 09:34:47.2	104.990	0.220	-0.020	-0.440
2020/01/31 09:34:47.3	104.970	0.180	0.030	-0.460
2020/01/31 09:34:47.4	104.940	0.130	0.070	-0.480
2020/01/31 09:34:47.5	104.920	0.090	0.120	-0.500
2020/01/31 09:34:47.6	104.900	0.050	0.160	-0.510
2020/01/31 09:34:47.7	104.890	0.000	0.200	-0.520
2020/01/31 09:34:47.8	104.870	-0.040	0.240	-0.530
2020/01/31 09:34:47.9	104.860	-0.090	0.280	-0.540
2020/01/31 09:34:48.0	104.850	-0.130	0.310	-0.550
2020/01/31 09:34:48.1	104.840	-0.170	0.340	-0.550
2020/01/31 09:34:48.2				
2020/01/31 09:34:48.3	104.830	-0.250	0.380	-0.550
2020/01/31 09:34:48.4	104.830	-0.290	0.390	-0.540
2020/01/31 09:34:48.5	104.830	-0.320	0.400	-0.540
2020/01/31 09:34:48.6	104.830	-0.360	0.410	-0.530
2020/01/31 09:34:48.7	104.830	-0.390	0.400	-0.520
2020/01/31 09:34:48.8	104.830	-0.420	0.400	-0.500
2020/01/31 09:34:48.9	104.830	-0.440	0.380	-0.490
2020/01/31 09:34:49.0	104.840	-0.470	0.370	-0.470
2020/01/31 09:34:49.1	104.850	-0.490	0.340	-0.450
2020/01/31 09:34:49.2	104.850	-0.500	0.320	-0.430
2020/01/31 09:34:49.3	104.860	-0.520	0.290	-0.410
2020/01/31 09:34:49.4	104.850	-0.530	0.250	-0.380
2020/01/31 09:34:49.5	104.860	-0.540	0.210	-0.350
2020/01/31 09:34:49.6	104.870	-0.550	0.170	-0.320
2020/01/31 09:34:49.7	104.880	-0.550	0.120	-0.290
2020/01/31 09:34:49.8	104.890	-0.550	0.080	-0.250
2020/01/31 09:34:49.9	104.900	-0.550	0.030	-0.220
2020/01/31 09:34:50.0	104.910	-0.550	-0.020	-0.180
2020/01/31 09:34:50.1				
2020/01/31 09:34:50.2	104.930	-0.530	-0.120	-0.090
2020/01/31 09:34:50.3	104.940	-0.520	-0.170	-0.050
2020/01/31 09:34:50.4	104.940	-0.510	-0.220	0.000
2020/01/31 09:34:50.5	104.950	-0.490	-0.270	0.050
2020/01/31 09:34:50.6	104.960	-0.480	-0.310	0.100
2020/01/31 09:34:50.7	104.960	-0.460	-0.360	0.160
2020/01/31 09:34:50.8	104.960	-0.440	-0.400	0.220
2020/01/31 09:34:50.9	104.970	-0.430	-0.440	0.280
2020/01/31 09:34:51.0	104.970	-0.410	-0.470	0.340
2020/01/31 09:34:51.1	104.970	-0.390	-0.500	0.410
2020/01/31 09:34:51.2	104.960	-0.370	-0.530	0.470
2020/01/31 09:34:51.3	104.960	-0.350	-0.550	0.540
2020/01/31 09:34:51.4	104.960	-0.330	-0.570	0.620
2020/01/31 09:34:51.5	104.950	-0.310	-0.580	0.690
2020/01/31 09:34:51.6	104.940	-0.290	-0.590	0.770
2020/01/31 09:34:51.7	104.930	-0.270	-0.600	0.850
2020/01/31 09:34:51.8	104.910	-0.260	-0.600	0.920
2020/01/31 09:34:51.9	104.900	-0.240	-0.590	1.000
2020/01/31 09:34:52.0	104.880	-0.220	-0.590	1.080
2020/01/31 09:34:52.1	104.870	-0.200	-0.580	1.160
2020/01/31 09:34:52.2	104.850	-0.190	-0.560	1.230
2020/01/31 09:34:52.3	104.830	-0.170	-0.540	1.310
2020/01/31 09:34:52.4	104.810	-0.160	-0.530	1.380
2020/01/31 09:34:52.5	104.780	-0.140	-0.500	1.450
2020/01/31 09:34:52.6	104.760	-0.130	-0.480	1.520
2020/01/31 09:34:52.7	104.740	-0.110	-0.450	1.590
2020/01/31 09:34:52.8	104.720	-0.100	-0.430	1.650
2020/01/31 09:34:52.9	104.700	-0.090	-0.400	1.710
2020/01/31 09:34:53.0	104.670	-0.070	-0.370	1.760
2020/01/31 09:34:53.1	104.650	-0.060	-0.340	1.810
2020/01/31 09:34:53.2	104.630	-0.050	-0.320	1.860
2020/01/31 09:34:53.3	104.610	-0.030	-0.290	1.900
2020/01/31 09:34:53.4	104.590	-0.020	-0.270	1.930
2020/01/31 09:34:53.5	104.570	-0.000	-0.240	1.960
2020/01/31 09:34:53.6	104.550	0.010	-0.220	1.990
2020/01/31 09:34:53.7	104.520	0.030	-0.200	2.010
2020/01/31 09:34:53.8	104.500	0.040	-0.180	2.020
2020/01/31 09:34:53.9	104.480	0.060	-0.170	2.030
2020/01/31 09:34:54.0	104.460	0.070	-0.150	2.040
2020/01/31 09:34:54.1	104.440	0.090	-0.140	2.040
2020/01/31 09:34:54.2	104.430	0.110	-0.130	2.040
2020/01/31 09:34:54.3	104.410	0.120	-0.120	2.030
2020/01/31 09:34:54.4	104.410	0.140	-0.110	2.020
2020/01/31 09:34:54.5	104.390	0.160	-0.110	2.000
2020/01/31 09:34:54.6	104.380	0.180	-0.100	1.990
2020/01/31 09:34:54.7	104.360	0.190	-0.100	1.960
2020/01/31 09:34:54.8	104.340	0.210	-0.100	1.940
2020/01/31 09:34:54.9	104.330	0.230	-0.100	1.910
2020/01/31 09:34:55.0	104.310	0.240	-0.100	1.880
2020/01/31 09:34:55.1	104.290	0.260	-0.100	1.850
2020/01/31 09:34:55.2	104.280	0.280	-0.110	1.810
2020/01/31 09:34:55.3	104.260	0.290	-0.110	1.780
2020/01/31 09:34:55.4	104.250	0.300	-0.120	1.740
2020/01/31 09:34:55.5	104.230	0.320	-0.130	1.700
2020/01/31 09:34:55.6	104.210	0.330	-0.130	1.660
2020/01/31 09:34:55.7	104.190	0.340	-0.140	1.620
2020/01/31 09:34:55.8	104.160	0.350	-0.150	1.580
2020/01/31 09:34:55.9	104.140	0.360	-0.160	1.540
2020/01/31 09:34:56.0	104.120	0.360	-0.180	1.500
2020/01/31 09:34:56.1	104.090	0.370	-0.190	1.460
2020/01/31 09:34:56.2	104.070	0.370	-0.200	1.420
2020/01/31 09:34:56.3	104.040	0.380	-0.210	1.380
2020/01/31 09:34:56.4	104.010	0.380	-0.220	1.340
2020/01/31 09:34:56.5	103.990	0.370	-0.240	1.290
2020/01/31 09:34:56.6	103.960	0.370	-0.250	1.250
2020/01/31 09:34:56.7	103.940	0.370	-0.260	1.200
2020/01/31 09:34:56.8	103.910	0.360	-0.270	1.160
2020/01/31 09:34:56.9	103.890	0.350	-0.280	1.110
2020/01/31 09:34:57.0	103.870	0.340	-0.290	1.070
2020/01/31 09:34:57.1	103.850	0.330	-0.300	1.020
2020/01/31 09:34:57.2	103.830	0.320	-0.310	0.970
2020/01/31 09:34:57.3	103.810	0.310	-0.310	0.920
2020/01/31 09:34:57.4	103.800	0.290	-0.310	0.870
2020/01/31 09:34:57.5	103.790	0.270	-0.320	0.820
2020/01/31 09:34:57.6	103.770	0.250	-0.310	0.770
2020/01/31 09:34:57.7	103.770	0.230	-0.310	0.710
2020/01/31 09:34:57.8	103.760	0.210	-0.300	0.660
2020/01/31 09:34:57.9	103.750	0.180	-0.290	0.610
2020/01/31 09:34:58.0	103.750	0.160	-0.280	0.560
2020/01/31 09:34:58.1	103.750	0.130	-0.270	0.520
2020/01/31 09:34:58.2	103.740	0.110	-0.260	0.470
2020/01/31 09:34:58.3	103.750	0.080	-0.240	0.420
2020/01/31 09:34:58.4	103.730	0.050	-0.220	0.370
2020/01/31 09:34:58.5	103.730	0.020	-0.200	0.330
2020/01/31 09:34:58.6	103.730	-0.010	-0.180	0.290
2020/01/31 09:34:58.7	103.740	-0.040	-0.160	0.240
2020/01/31 09:34:58.8	103.740	-0.070	-0.140	0.200
2020/01/31 09:34:58.9	103.740	-0.100	-0.110	0.170
2020/01/31 09:34:59.0	103.750	-0.120	-0.090	0.130
2020/01/31 09:34:59.1	103.750	-0.150	-0.070	0.100
2020/01/31 09:34:59.2	103.750	-0.180	-0.040	0.070
2020/01/31 09:34:59.3	103.760	-0.200	-0.020	0.040
2020/01/31 09:34:59.4	103.750	-0.230	0.000	0.010
2020/01/31 09:34:59.5	103.750	-0.250	0.020	-0.020
2020/01/31 09:34:59.6	103.750	-0.270	0.040	-0.040
2020/01/31 09:34:59.7	103.750	-0.290	0.060	-0.060
2020/01/31 09:34:59.8	103.750	-0.310	0.080	-0.080
2020/01/31 09:34:59.9	103.750	-0.320	0.100	-0.100
2020/01/31 09:35:00.0	103.750	-0.330	0.110	-0.110
2020/01/31 09:35:00.1	103.740	-0.340	0.130	-0.120
2020/01/31 09:35:00.2	103.740	-0.350	0.140	-0.130
2020/01/31 09:35:00.3	103.730	-0.350	0.150	-0.140
2020/01/31 09:35:00.4	103.730	-0.360	0.160	-0.150
2020/01/31 09:35:00.5	103.720	-0.360	0.170	-0.150
2020/01/31 09:35:00.6	103.710	-0.350	0.170	-0.150
2020/01/31 09:35:00.7	103.690	-0.350	0.180	-0.150
2020/01/31 09:35:00.8	103.680	-0.340	0.180	-0.150
2020/01/31 09:35:00.9	103.660	-0.330	0.180	-0.140
2020/01/31 09:35:01.0	103.650	-0.320	0.180	-0.130
2020/01/31 09:35:01.1	103.630	-0.310	0.180	-0.120
2020/01/31 09:35:01.2	103.610	-0.290	0.180	-0.110
2020/01/31 09:35:01.3	103.590	-0.280	0.170	-0.100
2020/01/31 09:35:01.4	103.570	-0.260	0.170	-0.080
2020/01/31 09:35:01.5	103.550	-0.240	0.160	-0.060
2020/01/31 09:35:01.6	103.530	-0.220	0.150	-0.040
2020/01/31 09:35:01.7	103.500	-0.200	0.150	-0.020
2020/01/31 09:35:01.8	103.480	-0.180	0.140	0.000
2020/01/31 09:35:01.9	103.460	-0.160	0.130	0.020
2020/01/31 09:35:02.0	103.430	-0.140	0.110	0.050
2020/01/31 09:35:02.1	103.410	-0.120	0.100	0.080
2020/01/31 09:35:02.2	103.380	-0.100	0.080	0.100
2020/01/31 09:35:02.3	103.350	-0.080	0.070	0.130
2020/01/31 09:35:02.4	103.330	-0.060	0.050	0.160
2020/01/31 09:35:02.5	103.290	-0.040	0.030	0.190
2020/01/31 09:35:02.6	103.260	-0.020	0.010	0.220
2020/01/31 09:35:02.7	103.240	-0.000	-0.010	0.250
2020/01/31 09:35:02.8	103.210	0.020	-0.040	0.280
2020/01/31 09:35:02.9	103.190	0.030	-0.060	0.310
2020/01/31 09:35:03.0	103.160	0.050	-0.090	0.340
2020/01/31 09:35:03.1	103.140	0.060	-0.110	0.370
2020/01/31 09:35:03.2	103.120	0.070	-0.140	0.400
2020/01/31 09:35:03.3	103.100	0.080	-0.170	0.430
2020/01/31 09:35:03.4	103.070	0.090	-0.200	0.460
2020/01/31 09:35:03.5	103.050	0.100	-0.230	0.490
2020/01/31 09:35:03.6	103.040	0.110	-0.260	0.520
2020/01/31 09:35:03.7	103.030	0.120	-0.290	0.540
2020/01/31 09:35:03.8	103.020	0.120	-0.320	0.570
2020/01/31 09:35:03.9	103.010	0.130	-0.350	0.590
2020/01/31 09:35:04.0	103.000	0.130	-0.380	0.610
2020/01/31 09:35:04.1	103.000	0.140	-0.410	0.630
2020/01/31 09:35:04.2	103.000	0.140	-0.430	0.660
2020/01/31 09:35:04.3	103.000	0.140	-0.460	0.670
2020/01/31 09:35:04.4	102.990	0.150	-0.480	0.690
2020/01/31 09:35:04.5	103.000	0.150	-0.500	0.710
2020/01/31 09:35:04.6	103.010	0.150	-0.520	0.720
2020/01/31 09:35:04.7	103.020	0.150	-0.540	0.730
2020/01/31 09:35:04.8	103.040	0.160	-0.550	0.740
2020/01/31 09:35:04.9	103.050	0.160	-0.560	0.750
2020/01/31 09:35:05.0	103.070	0.170	-0.570	0.760
2020/01/31 09:35:05.1	103.090	0.170	-0.580	0.770
2020/01/31 09:35:05.2	103.110	0.170	-0.580	0.780
2020/01/31 09:35:05.3	103.130	0.180	-0.580	0.780
2020/01/31 09:35:05.4	103.140	0.190	-0.590	0.780
2020/01/31 09:35:05.5	103.160	0.190	-0.580	0.790
2020/01/31 09:35:05.6	103.180	0.200	-0.580	0.790
2020/01/31 09:35:05.7	103.190	0.210	-0.570	0.800
2020/01/31 09:35:05.8	103.210	0.220	-0.560	0.800
2020/01/31 09:35:05.9	103.230	0.230	-0.550	0.800
2020/01/31 09:35:06.0	103.240	0.240	-0.540	0.810
2020/01/31 09:35:06.1	103.250	0.250	-0.520	0.810
2020/01/31 09:35:06.2	103.260	0.250	-0.500	0.820
2020/01/31 09:35:06.3	103.270	0.260	-0.490	0.820
2020/01/31 09:35:06.4	103.270	0.270	-0.470	0.830
2020/01/31 09:35:06.5	103.270	0.280	-0.450	0.830
2020/01/31 09:35:06.6	103.270	0.290	-0.430	0.840
2020/01/31 09:35:06.7	103.270	0.290	-0.410	0.850
2020/01/31 09:35:06.8	103.270	0.300	-0.380	0.850
2020/01/31 09:35:06.9	103.260	0.300	-0.360	0.860
2020/01/31 09:35:07.0	103.260	0.310	-0.330	0.870
2020/01/31 09:35:07.1	103.250	0.310	-0.310	0.870
2020/01/31 09:35:07.2	103.240	0.310	-0.290	0.880
2020/01/31 09:35:07.3	103.230	0.300	-0.260	0.890
2020/01/31 09:35:07.4	103.230	0.300	-0.240	0.900
2020/01/31 09:35:07.5	103.220	0.290	-0.210	0.900
2020/01/31 09:35:07.6	103.200	0.290	-0.190	0.910
2020/01/31 09:35:07.7	103.190	0.280	-0.170	0.920
2020/01/31 09:35:07.8	103.180	0.260	-0.150	0.920
2020/01/31 09:35:07.9	103.170	0.250	-0.130	0.930
2020/01/31 09:35:08.0	103.150	0.240	-0.100	0.940
2020/01/31 09:35:08.1	103.140	0.220	-0.090	0.940
2020/01/31 09:35:08.2	103.130	0.200	-0.070	0.950
2020/01/31 09:35:08.3	103.110	0.180	-0.050	0.950
2020/01/31 09:35:08.4	103.100	0.160	-0.030	0.960
2020/01/31 09:35:08.5	103.090	0.130	-0.010	0.970
2020/01/31 09:35:08.6	103.080	0.110	-0.000	0.970
2020/01/31 09:35:08.7	103.070	0.080	0.010	0.980
2020/01/31 09:35:08.8	103.060	0.060	0.030	0.980
2020/01/31 09:35:08.9	103.060	0.030	0.040	0.980
2020/01/31 09:35:09.0	103.050	0.000	0.050	0.990
2020/01/31 09:35:09.1	103.040	-0.020	0.060	0.990
2020/01/31 09:35:09.2	103.040	-0.050	0.060	0.990
2020/01/31 09:35:09.3	103.040	-0.080	0.070	0.990
2020/01/31 09:35:09.4	103.040	-0.100	0.070	1.000
2020/01/31 09:35:09.5	103.040	-0.130	0.070	0.990
2020/01/31 09:35:09.6	103.050	-0.160	0.070	0.990
2020/01/31 09:35:09.7	103.050	-0.180	0.080	0.980
2020/01/31 09:35:09.8	103.060	-0.210	0.070	0.980
2020/01/31 09:35:09.9	103.070	-0.230	0.070	0.980
2020/01/31 09:35:10.0	103.080	-0.250	0.070	0.980
2020/01/31 09:35:10.1	103.090	-0.270	0.070	0.970
2020/01/31 09:35:10.2	103.110	-0.290	0.060	0.970
2020/01/31 09:35:10.3	103.120	-0.310	0.060	0.970
2020/01/31 09:35:10.4	103.140	-0.330	0.050	0.970
2020/01/31 09:35:10.5	103.150	-0.340	0.050	0.960
2020/01/31 09:35:10.6	103.170	-0.350	0.040	0.960
2020/01/31 09:35:10.7	103.180	-0.370	0.030	0.950
2020/01/31 09:35:10.8	103.190	-0.380	0.030	0.950
2020/01/31 09:35:10.9	103.200	-0.390	0.020	0.940
2020/01/31 09:35:11.0	103.220	-0.390	0.010	0.930
2020/01/31 09:35:11.1	103.230	-0.400	0.010	0.930
2020/01/31 09:35:11.2	103.230	-0.400	0.000	0.920
2020/01/31 09:35:11.3	103.240	-0.400	-0.010	0.910
2020/01/31 09:35:11.4	103.250	-0.400	-0.010	0.900
2020/01/31 09:35:11.5	103.260	-0.400	-0.020	0.890
2020/01/31 09:35:11.6	103.260	-0.400	-0.020	0.870
2020/01/31 09:35:11.7	103.260	-0.400	-0.030	0.860
2020/01/31 09:35:11.8	103.260	-0.400	-0.040	0.840
2020/01/31 09:35:11.9	103.270	-0.390	-0.040	0.820
2020/01/31 09:35:12.0	103.270	-0.380	-0.050	0.800
2020/01/31 09:35:12.1	103.270	-0.380	-0.050	0.780
2020/01/31 09:35:12.2	103.270	-0.370	-0.060	0.750
2020/01/31 09:35:12.3	103.270	-0.360	-0.070	0.730
2020/01/31 09:35:12.4	103.280	-0.350	-0.070	0.700
2020/01/31 09:35:12.5	103.280	-0.340	-0.080	0.670
2020/01/31 09:35:12.6	103.280	-0.340	-0.080	0.640
2020/01/31 09:35:12.7	103.290	-0.330	-0.090	0.600
2020/01/31 09:35:12.8	103.290	-0.320	-0.090	0.570
2020/01/31 09:35:12.9	103.290	-0.310	-0.090	0.540
2020/01/31 09:35:13.0	103.300	-0.300	-0.100	0.500
2020/01/31 09:35:13.1	103.300	-0.290	-0.100	0.460
2020/01/31 09:35:13.2	103.310	-0.280	-0.100	0.430
2020/01/31 09:35:13.3	103.320	-0.270	-0.110	0.390
2020/01/31 09:35:13.4	103.330	-0.260	-0.110	0.360
2020/01/31 09:35:13.5	103.350	-0.250	-0.110	0.320
2020/01/31 09:35:13.6	103.360	-0.240	-0.110	0.290
2020/01/31 09:35:13.7	103.380	-0.230	-0.120	0.250
2020/01/31 09:35:13.8	103.390	-0.210	-0.120	0.220
2020/01/31 09:35:13.9	103.410	-0.200	-0.120	0.190
2020/01/31 09:35:14.0	103.430	-0.190	-0.130	0.160
2020/01/31 09:35:14.1	103.460	-0.180	-0.130	0.130
2020/01/31 09:35:14.2	103.480	-0.170	-0.140	0.100
2020/01/31 09:35:14.3	103.500	-0.150	-0.150	0.070
2020/01/31 09:35:14.4	103.540	-0.140	-0.160	0.050
2020/01/31 09:35:14.5	103.570	-0.120	-0.170	0.020
2020/01/31 09:35:14.6	103.590	-0.100	-0.180	0.000
2020/01/31 09:35:14.7	103.610	-0.090	-0.200	-0.020
2020/01/31 09:35:14.8	103.640	-0.070	-0.210	-0.030
2020/01/31 09:35:14.9	103.660	-0.050	-0.230	-0.050
2020/01/31 09:35:15.0	103.680	-0.030	-0.260	-0.060
2020/01/31 09:35:15.1	103.700	-0.000	-0.280	-0.070
2020/01/31 09:35:15.2	103.720	0.020	-0.300	-0.080
2020/01/31 09:35:15.3	103.740	0.040	-0.330	-0.080
2020/01/31 09:35:15.4	103.760	0.070	-0.360	-0.090
2020/01/31 09:35:15.5	103.780	0.100	-0.390	-0.090
2020/01/31 09:35:15.6	103.790	0.120	-0.420	-0.090
2020/01/31 09:35:15.7	103.810	0.150	-0.440	-0.090
2020/01/31 09:35:15.8	103.820	0.180	-0.470	-0.080
2020/01/31 09:35:15.9	103.830	0.210	-0.500	-0.080
2020/01/31 09:35:16.0	103.840	0.230	-0.520	-0.070
2020/01/31 09:35:16.1	103.850	0.260	-0.540	-0.060
2020/01/31 09:35:16.2	103.860	0.290	-0.560	-0.050
2020/01/31 09:35:16.3	103.870	0.310	-0.580	-0.040
2020/01/31 09:35:16.4	103.880	0.340	-0.600	-0.030
2020/01/31 09:35:16.5	103.880	0.360	-0.610	-0.020
2020/01/31 09:35:16.6	103.890	0.380	-0.620	0.000
2020/01/31 09:35:16.7	103.890	0.410	-0.620	0.020
2020/01/31 09:35:16.8	103.890	0.420	-0.620	0.040
2020/01/31 09:35:16.9	103.900	0.440	-0.610	0.060
2020/01/31 09:35:17.0	103.900	0.460	-0.600	0.080
2020/01/31 09:35:17.1	103.900	0.470	-0.590	0.100
2020/01/31 09:35:17.2	103.900	0.480	-0.570	0.130
2020/01/31 09:35:17.3	103.890	0.490	-0.540	0.150
2020/01/31 09:35:17.4	103.900	0.500	-0.510	0.180
2020/01/31 09:35:17.5	103.900	0.500	-0.480	0.210
2020/01/31 09:35:17.6	103.890	0.500	-0.440	0.240
2020/01/31 09:35:17.7	103.890	0.500	-0.410	0.270
2020/01/31 09:35:17.8	103.890	0.500	-0.360	0.310
2020/01/31 09:35:17.9	103.880	0.490	-0.320	0.340
2020/01/31 09:35:18.0	103.880	0.480	-0.270	0.370
2020/01/31 09:35:18.1	103.880	0.470	-0.220	0.410
2020/01/31 09:35:18.2	103.870	0.460	-0.170	0.440
2020/01/31 09:35:18.3	103.870	0.440	-0.130	0.480
2020/01/31 09:35:18.4	103.870	0.430	-0.080	0.520
2020/01/31 09:35:18.5	103.870	0.410	-0.030	0.550
2020/01/31 09:35:18.6	103.870	0.390	0.020	0.590
2020/01/31 09:35:18.7	103.870	0.370	0.060	0.630
2020/01/31 09:35:18.8	103.870	0.340	0.110	0.660
2020/01/31 09:35:18.9	103.880	0.320	0.150	0.700
2020/01/31 09:35:19.0	103.880	0.290	0.180	0.740
2020/01/31 09:35:19.1	103.880	0.270	0.220	0.770
2020/01/31 09:35:19.2	103.890	0.240	0.240	0.810
2020/01/31 09:35:19.3	103.890	0.210	0.270	0.840
2020/01/31 09:35:19.4	103.900	0.190	0.290	0.870
2020/01/31 09:35:19.5	103.910	0.160	0.310	0.900
2020/01/31 09:35:19.6	103.920	0.130	0.320	0.940
2020/01/31 09:35:19.7	103.930	0.100	0.320	0.970
2020/01/31 09:35:19.8	103.940	0.070	0.330	1.000
2020/01/31 09:35:19.9	103.950	0.050	0.330	1.020
2020/01/31 09:35:20.0	103.970	0.020	0.320	1.050
2020/01/31 09:35:20.1	103.990	-0.010	0.310	1.080
2020/01/31 09:35:20.2	104.000	-0.030	0.300	1.100
2020/01/31 09:35:20.3	104.020	-0.060	0.280	1.120
2020/01/31 09:35:20.4	104.050	-0.090	0.260	1.140
2020/01/31 09:35:20.5	104.070	-0.110	0.240	1.160
2020/01/31 09:35:20.6	104.090	-0.130	0.220	1.180
2020/01/31 09:35:20.7	104.110	-0.160	0.200	1.200
2020/01/31 09:35:20.8	104.130	-0.180	0.170	1.220
2020/01/31 09:35:20.9	104.150	-0.200	0.140	1.240
2020/01/31 09:35:21.0	104.170	-0.220	0.120	1.250
2020/01/31 09:35:21.1	104.180	-0.240	0.090	1.270
2020/01/31 09:35:21.2	104.200	-0.260	0.060	1.290
2020/01/31 09:35:21.3	104.220	-0.270	0.030	1.300
2020/01/31 09:35:21.4	104.220	-0.290	0.010	1.320
2020/01/31 09:35:21.5	104.240	-0.300	-0.020	1.330
2020/01/31 09:35:21.6	104.250	-0.320	-0.040	1.340
2020/01/31 09:35:21.7	104.260	-0.330	-0.070	1.360
2020/01/31 09:35:21.8	104.270	-0.340	-0.090	1.370
2020/01/31 09:35:21.9	104.280	-0.350	-0.110	1.390
2020/01/31 09:35:22.0	104.280	-0.360	-0.130	1.400
2020/01/31 09:35:22.1	104.290	-0.370	-0.140	1.420
2020/01/31 09:35:22.2	104.290	-0.370	-0.160	1.430
2020/01/31 09:35:22.3	104.290	-0.380	-0.170	1.450
2020/01/31 09:35:22.4	104.290	-0.380	-0.180	1.460
2020/01/31 09:35:22.5	104.290	-0.380	-0.190	1.480
2020/01/31 09:35:22.6	104.290	-0.390	-0.200	1.490
2020/01/31 09:35:22.7	104.290	-0.380	-0.210	1.510
2020/01/31 09:35:22.8	104.280	-0.380	-0.220	1.530
2020/01/31 09:35:22.9	104.280	-0.380	-0.230	1.540
2020/01/31 09:35:23.0	104.270	-0.370	-0.240	1.560
2020/01/31 09:35:23.1	104.260	-0.370	-0.250	1.570
2020/01/31 09:35:23.2	104.260	-0.360	-0.250	1.580
2020/01/31 09:35:23.3	104.250	-0.350	-0.260	1.600
2020/01/31 09:35:23.4	104.260	-0.340	-0.270	1.610
2020/01/31 09:35:23.5	104.260	-0.320	-0.290	1.620
2020/01/31 09:35:23.6	104.250	-0.310	-0.300	1.630
2020/01/31 09:35:23.7	104.240	-0.300	-0.310	1.630
2020/01/31 09:35:23.8	104.240	-0.280	-0.320	1.640
2020/01/31 09:35:23.9	104.230	-0.260	-0.330	1.640
2020/01/31 09:35:24.0	104.230	-0.250	-0.350	1.640
2020/01/31 09:35:24.1	104.220	-0.230	-0.360	1.640
2020/01/31 09:35:24.2	104.220	-0.210	-0.380	1.640
2020/01/31 09:35:24.3	104.220	-0.190	-0.400	1.630
2020/01/31 09:35:24.4	104.210	-0.170	-0.420	1.620
2020/01/31 09:35:24.5	104.210	-0.150	-0.430	1.600
2020/01/31 09:35:24.6	104.210	-0.130	-0.450	1.590
2020/01/31 09:35:24.7	104.210	-0.110	-0.470	1.570
2020/01/31 09:35:24.8	104.220	-0.080	-0.480	1.550
2020/01/31 09:35:24.9	104.220	-0.060	-0.500	1.520
2020/01/31 09:35:25.0	104.230	-0.040	-0.510	1.500
2020/01/31 09:35:25.1	104.230	-0.020	-0.530	1.470
2020/01/31 09:35:25.2	104.240	0.000	-0.540	1.430
2020/01/31 09:35:25.3	104.250	0.030	-0.550	1.400
2020/01/31 09:35:25.4	104.260	0.050	-0.550	1.360
2020/01/31 09:35:25.5	104.270	0.070	-0.560	1.310
2020/01/31 09:35:25.6	104.290	0.090	-0.560	1.270
2020/01/31 09:35:25.7	104.300	0.110	-0.560	1.230
2020/01/31 09:35:25.8	104.320	0.130	-0.560	1.180
2020/01/31 09:35:25.9	104.340	0.150	-0.560	1.130
2020/01/31 09:35:26.0	104.350	0.170	-0.550	1.090
2020/01/31 09:35:26.1	104.370	0.190	-0.540	1.040
2020/01/31 09:35:26.2	104.390	0.210	-0.530	0.990
2020/01/31 09:35:26.3	104.410	0.230	-0.510	0.940
2020/01/31 09:35:26.4	104.420	0.250	-0.500	0.900
2020/01/31 09:35:26.5	104.440	0.260	-0.480	0.850
2020/01/31 09:35:26.6	104.460	0.280	-0.450	0.800
2020/01/31 09:35:26.7	104.470	0.290	-0.420	0.760
2020/01/31 09:35:26.8	104.490	0.300	-0.390	0.720
2020/01/31 09:35:26.9	104.510	0.310	-0.360	0.680
2020/01/31 09:35:27.0	104.520	0.320	-0.320	0.640
2020/01/31 09:35:27.1	104.530	0.330	-0.290	0.600
2020/01/31 09:35:27.2	104.540	0.340	-0.250	0.570
2020/01/31 09:35:27.3	104.550	0.350	-0.200	0.540
2020/01/31 09:35:27.4	104.550	0.350	-0.160	0.510
2020/01/31 09:35:27.5	104.550	0.350	-0.120	0.480
2020/01/31 09:35:27.6	104.550	0.350	-0.070	0.450
2020/01/31 09:35:27.7	104.550	0.350	-0.030	0.430
2020/01/31 09:35:27.8	104.540	0.350	0.020	0.400
2020/01/31 09:35:27.9	104.540	0.350	0.060	0.380
2020/01/31 09:35:28.0	104.530	0.350	0.110	0.350
2020/01/31 09:35:28.1	104.520	0.340	0.150	0.330
2020/01/31 09:35:28.2	104.510	0.330	0.190	0.310
2020/01/31 09:35:28.3	104.490	0.320	0.230	0.290
2020/01/31 09:35:28.4	104.470	0.320	0.270	0.260
2020/01/31 09:35:28.5	104.460	0.300	0.310	0.240
2020/01/31 09:35:28.6	104.440	0.290	0.340	0.210
2020/01/31 09:35:28.7	104.420	0.280	0.370	0.190
2020/01/31 09:35:28.8	104.400	0.270	0.400	0.160
2020/01/31 09:35:28.9	104.390	0.250	0.430	0.130
2020/01/31 09:35:29.0	104.370	0.240	0.440	0.100
2020/01/31 09:35:29.1	104.350	0.220	0.460	0.060
2020/01/31 09:35:29.2	104.330	0.200	0.470	0.030
2020/01/31 09:35:29.3	104.310	0.180	0.480	-0.010
2020/01/31 09:35:29.4	104.290	0.170	0.480	-0.050
2020/01/31 09:35:29.5	104.280	0.150	0.480	-0.090
2020/01/31 09:35:29.6	104.260	0.130	0.470	-0.130
2020/01/31 09:35:29.7	104.250	0.110	0.460	-0.170
2020/01/31 09:35:29.8	104.230	0.090	0.450	-0.200
2020/01/31 09:35:29.9	104.220	0.070	0.420	-0.240
2020/01/31 09:35:30.0	104.210	0.050	0.400	-0.280
2020/01/31 09:35:30.1	104.190	0.040	0.370	-0.310
2020/01/31 09:35:30.2	104.180	0.020	0.330	-0.350
2020/01/31 09:35:30.3	104.170	0.000	0.290	-0.380
2020/01/31 09:35:30.4	104.170	-0.010	0.240	-0.410
2020/01/31 09:35:30.5	104.150	-0.030	0.190	-0.440
2020/01/31 09:35:30.6	104.140	-0.040	0.140	-0.460
2020/01/31 09:35:30.7	104.130	-0.050	0.080	-0.480
2020/01/31 09:35:30.8	104.130	-0.060	0.020	-0.490
2020/01/31 09:35:30.9	104.120	-0.070	-0.050	-0.500
2020/01/31 09:35:31.0	104.120	-0.080	-0.110	-0.510
2020/01/31 09:35:31.1	104.110	-0.090	-0.180	-0.510
2020/01/31 09:35:31.2	104.110	-0.090	-0.250	-0.510
2020/01/31 09:35:31.3	104.110	-0.100	-0.330	-0.500
2020/01/31 09:35:31.4	104.120	-0.100	-0.400	-0.480
2020/01/31 09:35:31.5	104.120	-0.100	-0.470	-0.460
2020/01/31 09:35:31.6	104.120	-0.110	-0.550	-0.440
2020/01/31 09:35:31.7	104.120	-0.110	-0.620	-0.410
2020/01/31 09:35:31.8	104.120	-0.110	-0.690	-0.380
2020/01/31 09:35:31.9	104.120	-0.100	-0.760	-0.350
2020/01/31 09:35:32.0	104.120	-0.100	-0.820	-0.300
2020/01/31 09:35:32.1	104.120	-0.100	-0.880	-0.260
2020/01/31 09:35:32.2	104.120	-0.100	-0.940	-0.210
2020/01/31 09:35:32.3	104.120	-0.100	-0.990	-0.160
2020/01/31 09:35:32.4	104.140	-0.090	-1.040	-0.100
2020/01/31 09:35:32.5	104.140	-0.090	-1.080	-0.040
2020/01/31 09:35:32.6	104.140	-0.090	-1.110	0.020
2020/01/31 09:35:32.7	104.140	-0.090	-1.140	0.090
2020/01/31 09:35:32.8	104.140	-0.090	-1.160	0.150
2020/01/31 09:35:32.9	104.140	-0.090	-1.170	0.220
2020/01/31 09:35:33.0	104.140	-0.090	-1.170	0.300
2020/01/31 09:35:33.1	104.140	-0.100	-1.160	0.370
2020/01/31 09:35:33.2	104.140	-0.100	-1.150	0.440
2020/01/31 09:35:33.3	104.140	-0.110	-1.120	0.510
2020/01/31 09:35:33.4	104.140	-0.110	-1.090	0.590
2020/01/31 09:35:33.5	104.140	-0.120	-1.050	0.660
2020/01/31 09:35:33.6	104.140	-0.130	-1.000	0.730
2020/01/31 09:35:33.7	104.130	-0.140	-0.950	0.800
2020/01/31 09:35:33.8	104.130	-0.160	-0.880	0.870
2020/01/31 09:35:33.9	104.130	-0.170	-0.810	0.930
2020/01/31 09:35:34.0	104.130	-0.180	-0.730	1.000
2020/01/31 09:35:34.1	104.130	-0.200	-0.640	1.060
2020/01/31 09:35:34.2	104.130	-0.220	-0.550	1.120
2020/01/31 09:35:34.3	104.130	-0.240	-0.460	1.170
2020/01/31 09:35:34.4	104.140	-0.260	-0.360	1.220
2020/01/31 09:35:34.5	104.140	-0.270	-0.260	1.260
2020/01/31 09:35:34.6	104.140	-0.290	-0.150	1.310
2020/01/31 09:35:34.7	104.150	-0.310	-0.050	1.340
2020/01/31 09:35:34.8	104.150	-0.330	0.060	1.380
2020/01/31 09:35:34.9	104.150	-0.350	0.160	1.410
2020/01/31 09:35:35.0	104.150	-0.370	0.260	1.430
2020/01/31 09:35:35.1	104.150	-0.390	0.360	1.450
2020/01/31 09:35:35.2	104.150	-0.410	0.460	1.470
2020/01/31 09:35:35.3	104.150	-0.420	0.560	1.480
2020/01/31 09:35:35.4	104.160	-0.440	0.640	1.490
2020/01/31 09:35:35.5	104.160	-0.450	0.730	1.490
2020/01/31 09:35:35.6	104.150	-0.460	0.800	1.500
2020/01/31 09:35:35.7	104.150	-0.470	0.870	1.500
2020/01/31 09:35:35.8	104.150	-0.480	0.940	1.490
2020/01/31 09:35:35.9	104.150	-0.480	0.990	1.490
2020/01/31 09:35:36.0	104.150	-0.490	1.040	1.480
2020/01/31 09:35:36.1	104.140	-0.490	1.070	1.470
2020/01/31 09:35:36.2	104.140	-0.480	1.100	1.450
2020/01/31 09:35:36.3	104.130	-0.480	1.120	1.440
2020/01/31 09:35:36.4	104.130	-0.470	1.120	1.420
2020/01/31 09:35:36.5	104.120	-0.450	1.120	1.400
2020/01/31 09:35:36.6	104.120	-0.440	1.100	1.370
2020/01/31 09:35:36.7	104.110	-0.420	1.080	1.350
2020/01/31 09:35:36.8	104.110	-0.400	1.050	1.330
2020/01/31 09:35:36.9	104.100	-0.380	1.000	1.300
2020/01/31 09:35:37.0	104.100	-0.350	0.950	1.270
2020/01/31 09:35:37.1	104.090	-0.320	0.890	1.240
2020/01/31 09:35:37.2	104.090	-0.290	0.820	1.210
2020/01/31 09:35:37.3	104.080	-0.250	0.740	1.170
2020/01/31 09:35:37.4	104.090	-0.210	0.660	1.140
2020/01/31 09:35:37.5	104.090	-0.170	0.570	1.100
2020/01/31 09:35:37.6	104.090	-0.130	0.470	1.060
2020/01/31 09:35:37.7	104.090	-0.090	0.370	1.020
2020/01/31 09:35:37.8	104.090	-0.040	0.270	0.980
2020/01/31 09:35:37.9	104.100	0.000	0.160	0.930
2020/01/31 09:35:38.0	104.100	0.050	0.050	0.890
2020/01/31 09:35:38.1	104.110	0.090	-0.070	0.840
2020/01/31 09:35:38.2	104.110	0.140	-0.180	0.800
2020/01/31 09:35:38.3	104.120	0.190	-0.290	0.750
2020/01/31 09:35:38.4	104.130	0.230	-0.400	0.700
2020/01/31 09:35:38.5	104.140	0.280	-0.510	0.650
2020/01/31 09:35:38.6	104.150	0.320	-0.620	0.600
2020/01/31 09:35:38.7	104.160	0.370	-0.720	0.550
2020/01/31 09:35:38.8	104.170	0.410	-0.820	0.500
2020/01/31 09:35:38.9	104.180	0.450	-0.910	0.450
2020/01/31 09:35:39.0	104.190	0.480	-1.000	0.400
2020/01/31 09:35:39.1	104.200	0.520	-1.080	0.350
2020/01/31 09:35:39.2	104.210	0.550	-1.150	0.300
2020/01/31 09:35:39.3	104.220	0.580	-1.220	0.250
2020/01/31 09:35:39.4	104.230	0.600	-1.280	0.210
2020/01/31 09:35:39.5	104.230	0.620	-1.320	0.160
2020/01/31 09:35:39.6	104.240	0.640	-1.360	0.120
2020/01/31 09:35:39.7	104.240	0.660	-1.390	0.070
2020/01/31 09:35:39.8	104.240	0.670	-1.410	0.030
2020/01/31 09:35:39.9	104.240	0.670	-1.430	-0.000
2020/01/31 09:35:40.0	104.240	0.680	-1.430	-0.040
2020/01/31 09:35:40.1	104.240	0.670	-1.420	-0.080
2020/01/31 09:35:40.2	104.240	0.670	-1.400	-0.110
2020/01/31 09:35:40.3	104.240	0.660	-1.370	-0.140
2020/01/31 09:35:40.4	104.240	0.650	-1.340	-0.170
2020/01/31 09:35:40.5	104.230	0.630	-1.290	-0.200
2020/01/31 09:35:40.6	104.220	0.610	-1.240	-0.230
2020/01/31 09:35:40.7	104.210	0.590	-1.180	-0.250
2020/01/31 09:35:40.8	104.210	0.560	-1.120	-0.270
2020/01/31 09:35:40.9	104.200	0.530	-1.040	-0.290
2020/01/31 09:35:41.0	104.190	0.500	-0.960	-0.300
2020/01/31 09:35:41.1	104.180	0.460	-0.880	-0.320
2020/01/31 09:35:41.2	104.170	0.420	-0.790	-0.330
2020/01/31 09:35:41.3	104.160	0.380	-0.700	-0.340
2020/01/31 09:35:41.4	104.150	0.340	-0.600	-0.350
2020/01/31 09:35:41.5	104.140	0.290	-0.510	-0.350
2020/01/31 09:35:41.6	104.140	0.250	-0.410	-0.350
2020/01/31 09:35:41.7	104.130	0.200	-0.320	-0.340
2020/01/31 09:35:41.8	104.120	0.150	-0.220	-0.340
2020/01/31 09:35:41.9	104.110	0.100	-0.130	-0.330
2020/01/31 09:35:42.0	104.110	0.050	-0.030	-0.320
2020/01/31 09:35:42.1	104.100	0.000	0.060	-0.310
2020/01/31 09:35:42.2	104.100	-0.040	0.140	-0.300
2020/01/31 09:35:42.3	104.090	-0.090	0.220	-0.280
2020/01/31 09:35:42.4	104.100	-0.140	0.300	-0.260
2020/01/31 09:35:42.5	104.090	-0.180	0.370	-0.250
2020/01/31 09:35:42.6	104.090	-0.220	0.440	-0.230
2020/01/31 09:35:42.7	104.090	-0.260	0.500	-0.210
2020/01/31 09:35:42.8	104.090	-0.300	0.550	-0.190
2020/01/31 09:35:42.9	104.080	-0.340	0.600	-0.160
2020/01/31 09:35:43.0	104.080	-0.370	0.630	-0.140
2020/01/31 09:35:43.1	104.080	-0.390	0.670	-0.120
2020/01/31 09:35:43.2	104.090	-0.420	0.690	-0.100
2020/01/31 09:35:43.3	104.090	-0.440	0.710	-0.080
2020/01/31 09:35:43.4	104.100	-0.460	0.720	-0.060
2020/01/31 09:35:43.5	104.100	-0.470	0.720	-0.040
2020/01/31 09:35:43.6	104.110	-0.480	0.720	-0.020
2020/01/31 09:35:43.7	104.110	-0.490	0.710	-0.000
2020/01/31 09:35:43.8	104.120	-0.490	0.700	0.020
2020/01/31 09:35:43.9	104.130	-0.490	0.680	0.040
2020/01/31 09:35:44.0	104.140	-0.480	0.650	0.060
2020/01/31 09:35:44.1	104.150	-0.470	0.620	0.080
2020/01/31 09:35:44.2	104.160	-0.460	0.590	0.090
2020/01/31 09:35:44.3	104.170	-0.450	0.550	0.110
2020/01/31 09:35:44.4	104.180	-0.430	0.510	0.130
2020/01/31 09:35:44.5	104.190	-0.410	0.460	0.150
2020/01/31 09:35:44.6	104.210	-0.390	0.420	0.170
2020/01/31 09:35:44.7	104.220	-0.360	0.370	0.190
2020/01/31 09:35:44.8	104.240	-0.340	0.310	0.200
2020/01/31 09:35:44.9	104.260	-0.310	0.260	0.220
2020/01/31 09:35:45.0	104.270	-0.280	0.210	0.240
2020/01/31 09:35:45.1	104.290	-0.250	0.160	0.260
2020/01/31 09:35:45.2	104.310	-0.220	0.110	0.280
2020/01/31 09:35:45.3	104.320	-0.190	0.060	0.310
2020/01/31 09:35:45.4	104.330	-0.160	0.010	0.330
2020/01/31 09:35:45.5	104.340	-0.140	-0.040	0.350
2020/01/31 09:35:45.6	104.350	-0.110	-0.090	0.370
2020/01/31 09:35:45.7	104.370	-0.080	-0.130	0.400
2020/01/31 09:35:45.8	104.380	-0.050	-0.170	0.420
2020/01/31 09:35:45.9	104.390	-0.020	-0.210	0.440
2020/01/31 09:35:46.0	104.400	0.000	-0.250	0.470
2020/01/31 09:35:46.1	104.410	0.030	-0.290	0.490
2020/01/31 09:35:46.2	104.420	0.050	-0.320	0.510
2020/01/31 09:35:46.3	104.430	0.080	-0.350	0.540
2020/01/31 09:35:46.4	104.430	0.100	-0.380	0.560
2020/01/31 09:35:46.5	104.430	0.120	-0.400	0.580
2020/01/31 09:35:46.6	104.440	0.140	-0.420	0.600
2020/01/31 09:35:46.7	104.440	0.150	-0.440	0.620
2020/01/31 09:35:46.8	104.440	0.170	-0.460	0.640
2020/01/31 09:35:46.9	104.450	0.180	-0.480	0.650
2020/01/31 09:35:47.0	104.450	0.200	-0.500	0.670
2020/01/31 09:35:47.1	104.450	0.210	-0.510	0.680
2020/01/31 09:35:47.2	104.450	0.220	-0.520	0.690
2020/01/31 09:35:47.3	104.450	0.230	-0.540	0.700
2020/01/31 09:35:47.4	104.450	0.240	-0.550	0.710
2020/01/31 09:35:47.5	104.450	0.240	-0.560	0.720
2020/01/31 09:35:47.6	104.450	0.250	-0.570	0.720
2020/01/31 09:35:47.7	104.450	0.250	-0.580	0.730
2020/01/31 09:35:47.8	104.440	0.260	-0.590	0.730
2020/01/31 09:35:47.9	104.440	0.260	-0.590	0.730
2020/01/31 09:35:48.0	104.440	0.270	-0.600	0.730
2020/01/31 09:35:48.1	104.440	0.270	-0.600	0.730
2020/01/31 09:35:48.2	104.440	0.270	-0.610	0.720
2020/01/31 09:35:48.3	104.450	0.280	-0.610	0.720
2020/01/31 09:35:48.4	104.440	0.280	-0.610	0.710
2020/01/31 09:35:48.5	104.440	0.280	-0.610	0.710
2020/01/31 09:35:48.6	104.440	0.280	-0.610	0.710
2020/01/31 09:35:48.7	104.450	0.280	-0.610	0.700
2020/01/31 09:35:48.8	104.450	0.270	-0.610	0.700
2020/01/31 09:35:48.9	104.460	0.270	-0.600	0.700
2020/01/31 09:35:49.0	104.460	0.270	-0.590	0.700
2020/01/31 09:35:49.1	104.470	0.270	-0.580	0.700
2020/01/31 09:35:49.2	104.470	0.260	-0.570	0.700
2020/01/31 09:35:49.3	104.480	0.260	-0.560	0.700
2020/01/31 09:35:49.4	104.500	0.250	-0.540	0.700
2020/01/31 09:35:49.5	104.500	0.240	-0.520	0.700
2020/01/31 09:35:49.6	104.510	0.230	-0.500	0.710
2020/01/31 09:35:49.7	104.520	0.220	-0.480	0.720
2020/01/31 09:35:49.8	104.520	0.210	-0.450	0.730
2020/01/31 09:35:49.9	104.530	0.200	-0.430	0.740
2020/01/31 09:35:50.0	104.530	0.180	-0.400	0.750
2020/01/31 09:35:50.1	104.530	0.170	-0.370	0.760
2020/01/31 09:35:50.2	104.530	0.150	-0.340	0.780
2020/01/31 09:35:50.3	104.530	0.130	-0.300	0.790
2020/01/31 09:35:50.4	104.530	0.110	-0.270	0.810
2020/01/31 09:35:50.5	104.530	0.090	-0.230	0.820
2020/01/31 09:35:50.6	104.520	0.070	-0.190	0.840
2020/01/31 09:35:50.7	104.520	0.050	-0.160	0.860
2020/01/31 09:35:50.8	104.510	0.020	-0.120	0.870
2020/01/31 09:35:50.9	104.510	-0.000	-0.080	0.890
2020/01/31 09:35:51.0	104.500	-0.030	-0.040	0.900
2020/01/31 09:35:51.1	104.490	-0.050	0.000	0.920
2020/01/31 09:35:51.2	104.490	-0.080	0.040	0.930
2020/01/31 09:35:51.3	104.480	-0.110	0.090	0.950
2020/01/31 09:35:51.4	104.450	-0.140	0.130	0.950
2020/01/31 09:35:51.5	104.440	-0.160	0.170	0.960
2020/01/31 09:35:51.6	104.430	-0.190	0.210	0.970
2020/01/31 09:35:51.7	104.420	-0.220	0.240	0.980
2020/01/31 09:35:51.8	104.410	-0.250	0.280	0.980
2020/01/31 09:35:51.9	104.400	-0.270	0.310	0.990
2020/01/31 09:35:52.0	104.390	-0.300	0.350	0.990
2020/01/31 09:35:52.1	104.390	-0.330	0.370	0.990
2020/01/31 09:35:52.2	104.380	-0.350	0.400	0.990
2020/01/31 09:35:52.3	104.370	-0.370	0.420	0.980
2020/01/31 09:35:52.4	104.380	-0.390	0.440	0.980
2020/01/31 09:35:52.5	104.380	-0.410	0.460	0.970
2020/01/31 09:35:52.6	104.370	-0.430	0.470	0.960
2020/01/31 09:35:52.7	104.370	-0.450	0.480	0.960
2020/01/31 09:35:52.8	104.370	-0.460	0.480	0.950
2020/01/31 09:35:52.9	104.370	-0.470	0.480	0.930
2020/01/31 09:35:53.0	104.370	-0.480	0.470	0.920
2020/01/31 09:35:53.1	104.380	-0.490	0.460	0.910
2020/01/31 09:35:53.2	104.380	-0.500	0.440	0.900
2020/01/31 09:35:53.3	104.380	-0.500	0.420	0.880
2020/01/31 09:35:53.4	104.380	-0.500	0.400	0.860
2020/01/31 09:35:53.5	104.380	-0.490	0.360	0.850
2020/01/31 09:35:53.6	104.390	-0.490	0.330	0.830
2020/01/31 09:35:53.7	104.400	-0.480	0.290	0.810
2020/01/31 09:35:53.8	104.410	-0.470	0.250	0.790
2020/01/31 09:35:53.9	104.420	-0.450	0.200	0.770
2020/01/31 09:35:54.0	104.440	-0.440	0.150	0.750
2020/01/31 09:35:54.1	104.450	-0.420	0.100	0.730
2020/01/31 09:35:54.2	104.470	-0.400	0.050	0.700
2020/01/31 09:35:54.3	104.480	-0.380	-0.010	0.680
2020/01/31 09:35:54.4	104.500	-0.350	-0.060	0.650
2020/01/31 09:35:54.5	104.520	-0.330	-0.120	0.620
2020/01/31 09:35:54.6	104.540	-0.300	-0.180	0.600
2020/01/31 09:35:54.7	104.560	-0.270	-0.230	0.570
2020/01/31 09:35:54.8	104.580	-0.240	-0.290	0.540
2020/01/31 09:35:54.9	104.600	-0.210	-0.340	0.510
2020/01/31 09:35:55.0	104.620	-0.180	-0.390	0.480
2020/01/31 09:35:55.1	104.640	-0.150	-0.440	0.460
2020/01/31 09:35:55.2	104.660	-0.120	-0.490	0.430
2020/01/31 09:35:55.3	104.670	-0.090	-0.530	0.400
2020/01/31 09:35:55.4	104.710	-0.060	-0.570	0.380
2020/01/31 09:35:55.5	104.730	-0.040	-0.600	0.350
2020/01/31 09:35:55.6	104.750	-0.010	-0.630	0.330
2020/01/31 09:35:55.7	104.760	0.020	-0.660	0.300
2020/01/31 09:35:55.8	104.770	0.050	-0.680	0.280
2020/01/31 09:35:55.9	104.780	0.070	-0.700	0.260
2020/01/31 09:35:56.0	104.790	0.100	-0.710	0.240
2020/01/31 09:35:56.1	104.790	0.120	-0.720	0.220
2020/01/31 09:35:56.2	104.800	0.140	-0.720	0.210
2020/01/31 09:35:56.3	104.800	0.160	-0.710	0.190
2020/01/31 09:35:56.4	104.810	0.180	-0.700	0.180
2020/01/31 09:35:56.5	104.800	0.190	-0.690	0.170
2020/01/31 09:35:56.6	104.800	0.210	-0.670	0.160
2020/01/31 09:35:56.7	104.790	0.220	-0.650	0.160
2020/01/31 09:35:56.8	104.790	0.230	-0.630	0.150
2020/01/31 09:35:56.9	104.780	0.240	-0.600	0.150
2020/01/31 09:35:57.0	104.770	0.250	-0.570	0.150
2020/01/31 09:35:57.1	104.760	0.260	-0.530	0.150
2020/01/31 09:35:57.2	104.740	0.270	-0.500	0.150
2020/01/31 09:35:57.3	104.730	0.270	-0.460	0.150
2020/01/31 09:35:57.4	104.710	0.280	-0.420	0.150
2020/01/31 09:35:57.5	104.690	0.280	-0.380	0.160
2020/01/31 09:35:57.6	104.670	0.280	-0.340	0.160
2020/01/31 09:35:57.7	104.660	0.280	-0.300	0.170
2020/01/31 09:35:57.8	104.640	0.290	-0.260	0.180
2020/01/31 09:35:57.9	104.630	0.290	-0.220	0.180
2020/01/31 09:35:58.0	104.610	0.290	-0.180	0.190
2020/01/31 09:35:58.1	104.590	0.290	-0.140	0.200
2020/01/31 09:35:58.2	104.580	0.290	-0.100	0.200
2020/01/31 09:35:58.3	104.560	0.290	-0.070	0.210
2020/01/31 09:35:58.4	104.550	0.290	-0.040	0.210
2020/01/31 09:35:58.5	104.530	0.290	-0.010	0.210
2020/01/31 09:35:58.6	104.520	0.300	0.020	0.220
2020/01/31 09:35:58.7	104.500	0.300	0.040	0.220
2020/01/31 09:35:58.8	104.490	0.300	0.070	0.210
2020/01/31 09:35:58.9	104.480	0.300	0.080	0.210
2020/01/31 09:35:59.0	104.470	0.310	0.100	0.210
2020/01/31 09:35:59.1	104.450	0.310	0.110	0.200
2020/01/31 09:35:59.2	104.440	0.320	0.110	0.190
2020/01/31 09:35:59.3	104.430	0.330	0.120	0.180
2020/01/31 09:35:59.4	104.410	0.330	0.110	0.170
2020/01/31 09:35:59.5	104.400	0.340	0.110	0.160
2020/01/31 09:35:59.6	104.400	0.350	0.100	0.150
2020/01/31 09:35:59.7	104.390	0.360	0.090	0.130
2020/01/31 09:35:59.8	104.380	0.370	0.070	0.120
2020/01/31 09:35:59.9	104.370	0.380	0.060	0.100
2020/01/31 09:36:00.0	104.370	0.380	0.040	0.090
2020/01/31 09:36:00.1	104.360	0.390	0.020	0.080
2020/01/31 09:36:00.2	104.360	0.400	-0.010	0.070
2020/01/31 09:36:00.3	104.360	0.410	-0.030	0.060
2020/01/31 09:36:00.4	104.340	0.420	-0.060	0.050
2020/01/31 09:36:00.5	104.340	0.420	-0.080	0.040
2020/01/31 09:36:00.6	104.340	0.430	-0.110	0.030
2020/01/31 09:36:00.7	104.340	0.430	-0.130	0.030
2020/01/31 09:36:00.8	104.340	0.430	-0.160	0.030
2020/01/31 09:36:00.9	104.340	0.430	-0.180	0.030
2020/01/31 09:36:01.0	104.340	0.430	-0.200	0.040
2020/01/31 09:36:01.1	104.350	0.430	-0.220	0.040
2020/01/31 09:36:01.2	104.350	0.430	-0.240	0.050
2020/01/31 09:36:01.3	104.350	0.420	-0.250	0.070
2020/01/31 09:36:01.4	104.360	0.410	-0.260	0.080
2020/01/31 09:36:01.5	104.360	0.400	-0.270	0.100
2020/01/31 09:36:01.6	104.360	0.380	-0.280	0.120
2020/01/31 09:36:01.7	104.370	0.370	-0.280	0.140
2020/01/31 09:36:01.8	104.370	0.350	-0.280	0.170
2020/01/31 09:36:01.9	104.380	0.330	-0.280	0.200
2020/01/31 09:36:02.0	104.390	0.310	-0.270	0.230
2020/01/31 09:36:02.1	104.390	0.280	-0.270	0.260
2020/01/31 09:36:02.2	104.400	0.250	-0.260	0.300
2020/01/31 09:36:02.3	104.400	0.220	-0.240	0.340
2020/01/31 09:36:02.4	104.400	0.190	-0.230	0.380
2020/01/31 09:36:02.5	104.410	0.160	-0.220	0.430
2020/01/31 09:36:02.6	104.410	0.120	-0.200	0.470
2020/01/31 09:36:02.7	104.420	0.090	-0.180	0.520
2020/01/31 09:36:02.8	104.430	0.050	-0.170	0.570
2020/01/31 09:36:02.9	104.430	0.010	-0.150	0.620
2020/01/31 09:36:03.0	104.440	-0.020	-0.130	0.670
2020/01/31 09:36:03.1	104.440	-0.060	-0.120	0.730
2020/01/31 09:36:03.2	104.450	-0.100	-0.100	0.780
2020/01/31 09:36:03.3	104.450	-0.140	-0.090	0.830
2020/01/31 09:36:03.4	104.460	-0.170	-0.080	0.880
2020/01/31 09:36:03.5	104.460	-0.210	-0.070	0.930
2020/01/31 09:36:03.6	104.460	-0.240	-0.060	0.980
2020/01/31 09:36:03.7	104.470	-0.280	-0.060	1.030
2020/01/31 09:36:03.8	104.470	-0.310	-0.060	1.080
2020/01/31 09:36:03.9	104.470	-0.340	-0.060	1.130
2020/01/31 09:36:04.0	104.470	-0.370	-0.060	1.170
2020/01/31 09:36:04.1	104.470	-0.390	-0.060	1.220
2020/01/31 09:36:04.2	104.480	-0.420	-0.070	1.260
2020/01/31 09:36:04.3	104.480	-0.440	-0.080	1.300
2020/01/31 09:36:04.4	104.480	-0.460	-0.090	1.330
2020/01/31 09:36:04.5	104.470	-0.470	-0.110	1.370
2020/01/31 09:36:04.6	104.470	-0.480	-0.120	1.400
2020/01/31 09:36:04.7	104.470	-0.490	-0.140	1.430
2020/01/31 09:36:04.8	104.470	-0.500	-0.150	1.460
2020/01/31 09:36:04.9	104.470	-0.500	-0.170	1.480
2020/01/31 09:36:05.0	104.470	-0.510	-0.190	1.510
2020/01/31 09:36:05.1	104.460	-0.510	-0.200	1.530
2020/01/31 09:36:05.2	104.460	-0.500	-0.220	1.550
2020/01/31 09:36:05.3	104.460	-0.500	-0.230	1.560
2020/01/31 09:36:05.4	104.460	-0.490	-0.250	1.580
2020/01/31 09:36:05.5	104.460	-0.480	-0.260	1.590
2020/01/31 09:36:05.6	104.460	-0.470	-0.270	1.600
2020/01/31 09:36:05.7	104.450	-0.450	-0.280	1.610
2020/01/31 09:36:05.8	104.450	-0.440	-0.290	1.620
2020/01/31 09:36:05.9	104.450	-0.420	-0.290	1.620
2020/01/31 09:36:06.0	104.440	-0.400	-0.300	1.630
2020/01/31 09:36:06.1	104.440	-0.380	-0.300	1.630
2020/01/31 09:36:06.2	104.440	-0.360	-0.300	1.630
2020/01/31 09:36:06.3	104.440	-0.340	-0.300	1.630
2020/01/31 09:36:06.4	104.440	-0.320	-0.290	1.620
2020/01/31 09:36:06.5	104.430	-0.300	-0.280	1.610
2020/01/31 09:36:06.6	104.430	-0.270	-0.270	1.610
2020/01/31 09:36:06.7	104.430	-0.250	-0.260	1.600
2020/01/31 09:36:06.8	104.420	-0.230	-0.250	1.590
2020/01/31 09:36:06.9	104.420	-0.200	-0.230	1.580
2020/01/31 09:36:07.0	104.410	-0.180	-0.220	1.570
2020/01/31 09:36:07.1	104.410	-0.160	-0.200	1.550
2020/01/31 09:36:07.2	104.400	-0.130	-0.180	1.540
2020/01/31 09:36:07.3	104.400	-0.110	-0.160	1.520
2020/01/31 09:36:07.4	104.400	-0.090	-0.150	1.500
2020/01/31 09:36:07.5	104.400	-0.070	-0.130	1.480
2020/01/31 09:36:07.6	104.390	-0.050	-0.110	1.450
2020/01/31 09:36:07.7	104.390	-0.030	-0.100	1.430
2020/01/31 09:36:07.8	104.390	-0.010	-0.080	1.400
2020/01/31 09:36:07.9	104.390	0.010	-0.070	1.370
2020/01/31 09:36:08.0	104.390	0.030	-0.050	1.330
2020/01/31 09:36:08.1	104.390	0.050	-0.040	1.290
2020/01/31 09:36:08.2	104.390	0.070	-0.030	1.250
2020/01/31 09:36:08.3	104.390	0.090	-0.020	1.210
2020/01/31 09:36:08.4	104.400	0.100	-0.010	1.160
2020/01/31 09:36:08.5	104.410	0.120	-0.010	1.110
2020/01/31 09:36:08.6	104.410	0.140	-0.000	1.070
2020/01/31 09:36:08.7	104.420	0.150	0.000	1.010
2020/01/31 09:36:08.8	104.420	0.160	0.000	0.960
2020/01/31 09:36:08.9	104.430	0.180	0.000	0.910
2020/01/31 09:36:09.0	104.440	0.190	-0.000	0.850
2020/01/31 09:36:09.1	104.440	0.200	-0.010	0.800
2020/01/31 09:36:09.2	104.450	0.210	-0.010	0.740
2020/01/31 09:36:09.3	104.450	0.210	-0.020	0.690
2020/01/31 09:36:09.4	104.460	0.220	-0.030	0.630
2020/01/31 09:36:09.5	104.460	0.230	-0.040	0.570
2020/01/31 09:36:09.6	104.460	0.230	-0.050	0.520
2020/01/31 09:36:09.7	104.460	0.230	-0.060	0.460
2020/01/31 09:36:09.8	104.460	0.230	-0.080	0.410
2020/01/31 09:36:09.9	104.460	0.230	-0.090	0.360
2020/01/31 09:36:10.0	104.450	0.230	-0.100	0.300
2020/01/31 09:36:10.1	104.450	0.230	-0.110	0.250
2020/01/31 09:36:10.2	104.440	0.220	-0.130	0.200
2020/01/31 09:36:10.3	104.430	0.210	-0.140	0.160
2020/01/31 09:36:10.4	104.420	0.210	-0.150	0.110
2020/01/31 09:36:10.5	104.400	0.200	-0.170	0.060
2020/01/31 09:36:10.6	104.390	0.190	-0.180	0.020
2020/01/31 09:36:10.7	104.370	0.170	-0.190	-0.020
2020/01/31 09:36:10.8	104.360	0.160	-0.210	-0.060
2020/01/31 09:36:10.9	104.340	0.150	-0.220	-0.100
2020/01/31 09:36:11.0	104.320	0.130	-0.230	-0.130
2020/01/31 09:36:11.1	104.300	0.120	-0.240	-0.160
2020/01/31 09:36:11.2	104.290	0.100	-0.250	-0.200
2020/01/31 09:36:11.3	104.270	0.090	-0.260	-0.230
2020/01/31 09:36:11.4	104.250	0.070	-0.270	-0.260
2020/01/31 09:36:11.5	104.240	0.050	-0.270	-0.290
2020/01/31 09:36:11.6	104.220	0.030	-0.280	-0.310
2020/01/31 09:36:11.7	104.210	0.020	-0.280	-0.340
2020/01/31 09:36:11.8	104.190	0.000	-0.290	-0.370
2020/01/31 09:36:11.9	104.180	-0.010	-0.290	-0.390
2020/01/31 09:36:12.0	104.170	-0.030	-0.290	-0.410
2020/01/31 09:36:12.1	104.160	-0.040	-0.290	-0.440
2020/01/31 09:36:12.2	104.150	-0.060	-0.290	-0.460
2020/01/31 09:36:12.3	104.150	-0.070	-0.290	-0.480
2020/01/31 09:36:12.4	104.140	-0.080	-0.290	-0.500
2020/01/31 09:36:12.5	104.140	-0.090	-0.280	-0.520
2020/01/31 09:36:12.6	104.140	-0.090	-0.280	-0.540
2020/01/31 09:36:12.7	104.140	-0.100	-0.280	-0.550
2020/01/31 09:36:12.8	104.150	-0.100	-0.270	-0.570
2020/01/31 09:36:12.9	104.150	-0.110	-0.270	-0.580
2020/01/31 09:36:13.0	104.160	-0.110	-0.260	-0.590
2020/01/31 09:36:13.1	104.160	-0.110	-0.250	-0.600
2020/01/31 09:36:13.2	104.170	-0.110	-0.250	-0.610
2020/01/31 09:36:13.3	104.180	-0.100	-0.240	-0.620
2020/01/31 09:36:13.4	104.180	-0.100	-0.230	-0.620
2020/01/31 09:36:13.5	104.190	-0.090	-0.220	-0.620
2020/01/31 09:36:13.6	104.200	-0.080	-0.220	-0.620
2020/01/31 09:36:13.7	104.220	-0.080	-0.210	-0.610
2020/01/31 09:36:13.8	104.230	-0.070	-0.200	-0.600
2020/01/31 09:36:13.9	104.240	-0.050	-0.190	-0.590
2020/01/31 09:36:14.0	104.250	-0.040	-0.180	-0.580
2020/01/31 09:36:14.1	104.260	-0.030	-0.180	-0.560
2020/01/31 09:36:14.2	104.270	-0.020	-0.170	-0.540
2020/01/31 09:36:14.3	104.280	-0.000	-0.160	-0.520
2020/01/31 09:36:14.4	104.280	0.010	-0.160	-0.490
2020/01/31 09:36:14.5	104.280	0.030	-0.150	-0.460
2020/01/31 09:36:14.6	104.290	0.040	-0.150	-0.430
2020/01/31 09:36:14.7	104.300	0.060	-0.140	-0.400
2020/01/31 09:36:14.8	104.300	0.070	-0.140	-0.360
2020/01/31 09:36:14.9	104.310	0.090	-0.140	-0.320
2020/01/31 09:36:15.0	104.310	0.100	-0.130	-0.280
2020/01/31 09:36:15.1	104.320	0.120	-0.130	-0.240
2020/01/31 09:36:15.2	104.320	0.130	-0.130	-0.190
2020/01/31 09:36:15.3	104.330	0.140	-0.130	-0.150
2020/01/31 09:36:15.4	104.340	0.160	-0.130	-0.100
2020/01/31 09:36:15.5	104.340	0.170	-0.120	-0.060
2020/01/31 09:36:15.6	104.350	0.180	-0.120	-0.010
2020/01/31 09:36:15.7	104.350	0.190	-0.120	0.040
2020/01/31 09:36:15.8	104.360	0.200	-0.120	0.080
2020/01/31 09:36:15.9	104.360	0.210	-0.110	0.130
2020/01/31 09:36:16.0	104.360	0.210	-0.110	0.170
2020/01/31 09:36:16.1	104.370	0.220	-0.100	0.220
2020/01/31 09:36:16.2	104.370	0.220	-0.100	0.260
2020/01/31 09:36:16.3	104.380	0.230	-0.090	0.300
2020/01/31 09:36:16.4	104.380	0.230	-0.080	0.340
2020/01/31 09:36:16.5	104.390	0.230	-0.070	0.380
2020/01/31 09:36:16.6	104.400	0.240	-0.070	0.420
2020/01/31 09:36:16.7	104.400	0.240	-0.060	0.460
2020/01/31 09:36:16.8	104.410	0.240	-0.050	0.490
2020/01/31 09:36:16.9	104.410	0.240	-0.040	0.530
2020/01/31 09:36:17.0	104.420	0.240	-0.030	0.560
2020/01/31 09:36:17.1	104.430	0.240	-0.030	0.600
2020/01/31 09:36:17.2	104.430	0.230	-0.020	0.630
2020/01/31 09:36:17.3	104.440	0.230	-0.020	0.660
2020/01/31 09:36:17.4	104.450	0.230	-0.010	0.690
2020/01/31 09:36:17.5	104.450	0.230	-0.010	0.710
2020/01/31 09:36:17.6	104.460	0.230	-0.010	0.750
2020/01/31 09:36:17.7	104.460	0.220	-0.020	0.780
2020/01/31 09:36:17.8	104.470	0.220	-0.030	0.810
2020/01/31 09:36:17.9	104.470	0.220	-0.040	0.840
2020/01/31 09:36:18.0	104.470	0.220	-0.050	0.870
2020/01/31 09:36:18.1	104.470	0.220	-0.060	0.900
2020/01/31 09:36:18.2	104.470	0.210	-0.080	0.930
2020/01/31 09:36:18.3	104.470	0.210	-0.100	0.970
2020/01/31 09:36:18.4	104.450	0.210	-0.130	1.000
2020/01/31 09:36:18.5	104.440	0.210	-0.160	1.040
2020/01/31 09:36:18.6	104.440	0.210	-0.180	1.080
2020/01/31 09:36:18.7	104.430	0.210	-0.210	1.120
2020/01/31 09:36:18.8	104.420	0.210	-0.250	1.160
2020/01/31 09:36:18.9	104.410	0.210	-0.280	1.200
2020/01/31 09:36:19.0	104.400	0.200	-0.310	1.250
2020/01/31 09:36:19.1	104.390	0.200	-0.340	1.290
2020/01/31 09:36:19.2	104.380	0.200	-0.380	1.340
2020/01/31 09:36:19.3	104.370	0.200	-0.410	1.380
2020/01/31 09:36:19.4	104.360	0.200	-0.440	1.430
2020/01/31 09:36:19.5	104.340	0.190	-0.460	1.480
2020/01/31 09:36:19.6	104.330	0.190	-0.490	1.520
2020/01/31 09:36:19.7	104.320	0.180	-0.510	1.570
2020/01/31 09:36:19.8	104.310	0.170	-0.530	1.610
2020/01/31 09:36:19.9	104.300	0.170	-0.540	1.650
2020/01/31 09:36:20.0	104.290	0.160	-0.560	1.690
2020/01/31 09:36:20.1	104.290	0.150	-0.560	1.730
2020/01/31 09:36:20.2	104.280	0.130	-0.560	1.760
2020/01/31 09:36:20.3	104.280	0.120	-0.560	1.800
2020/01/31 09:36:20.4	104.290	0.100	-0.550	1.820
2020/01/31 09:36:20.5	104.290	0.090	-0.530	1.850
2020/01/31 09:36:20.6	104.290	0.070	-0.520	1.880
2020/01/31 09:36:20.7	104.300	0.050	-0.490	1.900
2020/01/31 09:36:20.8	104.310	0.030	-0.460	1.920
2020/01/31 09:36:20.9	104.320	0.000	-0.430	1.940
2020/01/31 09:36:21.0	104.330	-0.020	-0.400	1.950
2020/01/31 09:36:21.1	104.340	-0.050	-0.360	1.960
2020/01/31 09:36:21.2	104.350	-0.070	-0.310	1.970
2020/01/31 09:36:21.3	104.370	-0.100	-0.270	1.970
2020/01/31 09:36:21.4	104.410	-0.130	-0.220	1.970
2020/01/31 09:36:21.5	104.430	-0.160	-0.170	1.960
2020/01/31 09:36:21.6	104.440	-0.190	-0.120	1.950
2020/01/31 09:36:21.7	104.460	-0.220	-0.070	1.940
2020/01/31 09:36:21.8	104.490	-0.240	-0.020	1.930
2020/01/31 09:36:21.9	104.510	-0.270	0.030	1.910
2020/01/31 09:36:22.0	104.530	-0.300	0.080	1.880
2020/01/31 09:36:22.1	104.550	-0.330	0.120	1.850
2020/01/31 09:36:22.2	104.570	-0.350	0.160	1.820
2020/01/31 09:36:22.3	104.590	-0.380	0.200	1.780
2020/01/31 09:36:22.4	104.620	-0.400	0.240	1.740
2020/01/31 09:36:22.5	104.650	-0.420	0.270	1.700
2020/01/31 09:36:22.6	104.670	-0.440	0.300	1.650
2020/01/31 09:36:22.7	104.690	-0.460	0.320	1.600
2020/01/31 09:36:22.8	104.710	-0.470	0.340	1.550
2020/01/31 09:36:22.9	104.720	-0.490	0.360	1.490
2020/01/31 09:36:23.0	104.740	-0.500	0.370	1.430
2020/01/31 09:36:23.1	104.760	-0.500	0.370	1.370
2020/01/31 09:36:23.2	104.780	-0.510	0.370	1.310
2020/01/31 09:36:23.3	104.790	-0.510	0.360	1.240
2020/01/31 09:36:23.4	104.810	-0.510	0.350	1.170
2020/01/31 09:36:23.5	104.830	-0.510	0.330	1.100
2020/01/31 09:36:23.6	104.840	-0.510	0.310	1.030
2020/01/31 09:36:23.7	104.850	-0.500	0.280	0.960
2020/01/31 09:36:23.8	104.860	-0.490	0.250	0.890
2020/01/31 09:36:23.9	104.860	-0.480	0.220	0.820
2020/01/31 09:36:24.0	104.870	-0.470	0.190	0.760
2020/01/31 09:36:24.1	104.870	-0.450	0.150	0.690
2020/01/31 09:36:24.2	104.880	-0.430	0.110	0.630
2020/01/31 09:36:24.3	104.880	-0.410	0.070	0.570
2020/01/31 09:36:24.4	104.870	-0.390	0.020	0.500
2020/01/31 09:36:24.5	104.870	-0.370	-0.020	0.450
2020/01/31 09:36:24.6	104.870	-0.350	-0.070	0.390
2020/01/31 09:36:24.7	104.870	-0.320	-0.110	0.340
2020/01/31 09:36:24.8	104.860	-0.290	-0.150	0.290
2020/01/31 09:36:24.9	104.860	-0.260	-0.200	0.240
2020/01/31 09:36:25.0	104.850	-0.230	-0.240	0.200
2020/01/31 09:36:25.1	104.850	-0.200	-0.280	0.150
2020/01/31 09:36:25.2	104.840	-0.170	-0.310	0.110
2020/01/31 09:36:25.3	104.840	-0.140	-0.350	0.070
2020/01/31 09:36:25.4	104.820	-0.110	-0.380	0.030
2020/01/31 09:36:25.5	104.810	-0.080	-0.410	-0.010
2020/01/31 09:36:25.6	104.800	-0.040	-0.440	-0.040
2020/01/31 09:36:25.7	104.800	-0.010	-0.470	-0.080
2020/01/31 09:36:25.8	104.790	0.020	-0.490	-0.110
2020/01/31 09:36:25.9	104.790	0.050	-0.510	-0.150
2020/01/31 09:36:26.0	104.780	0.080	-0.530	-0.180
2020/01/31 09:36:26.1	104.780	0.120	-0.550	-0.210
2020/01/31 09:36:26.2	104.780	0.150	-0.560	-0.240
2020/01/31 09:36:26.3	104.770	0.180	-0.580	-0.280
2020/01/31 09:36:26.4	104.770	0.200	-0.580	-0.310
2020/01/31 09:36:26.5	104.770	0.230	-0.590	-0.340
2020/01/31 09:36:26.6	104.770	0.260	-0.600	-0.370
2020/01/31 09:36:26.7	104.770	0.280	-0.600	-0.410
2020/01/31 09:36:26.8	104.770	0.310	-0.600	-0.440
2020/01/31 09:36:26.9	104.770	0.330	-0.600	-0.470
2020/01/31 09:36:27.0	104.780	0.350	-0.590	-0.500
2020/01/31 09:36:27.1	104.790	0.370	-0.590	-0.530
2020/01/31 09:36:27.2	104.790	0.390	-0.580	-0.560
2020/01/31 09:36:27.3	104.800	0.400	-0.580	-0.590
2020/01/31 09:36:27.4	104.800	0.420	-0.570	-0.610
2020/01/31 09:36:27.5	104.810	0.430	-0.560	-0.640
2020/01/31 09:36:27.6	104.820	0.440	-0.550	-0.660
2020/01/31 09:36:27.7	104.820	0.450	-0.530	-0.680
2020/01/31 09:36:27.8	104.830	0.450	-0.520	-0.700
2020/01/31 09:36:27.9	104.840	0.460	-0.500	-0.720
2020/01/31 09:36:28.0	104.850	0.460	-0.480	-0.740
2020/01/31 09:36:28.1	104.860	0.460	-0.460	-0.750
2020/01/31 09:36:28.2	104.870	0.460	-0.440	-0.760
2020/01/31 09:36:28.3	104.870	0.460	-0.420	-0.770
2020/01/31 09:36:28.4	104.890	0.450	-0.400	-0.780
2020/01/31 09:36:28.5	104.900	0.450	-0.370	-0.780
2020/01/31 09:36:28.6	104.910	0.440	-0.340	-0.780
2020/01/31 09:36:28.7	104.920	0.430	-0.320	-0.780
2020/01/31 09:36:28.8	104.930	0.420	-0.290	-0.770
2020/01/31 09:36:28.9	104.930	0.410	-0.250	-0.770
2020/01/31 09:36:29.0	104.940	0.390	-0.220	-0.760
2020/01/31 09:36:29.1	104.950	0.380	-0.190	-0.740
2020/01/31 09:36:29.2	104.960	0.360	-0.150	-0.730
2020/01/31 09:36:29.3	104.970	0.350	-0.120	-0.710
2020/01/31 09:36:29.4	105.000	0.330	-0.080	-0.690
2020/01/31 09:36:29.5	105.010	0.310	-0.040	-0.670
2020/01/31 09:36:29.6	105.020	0.290	0.000	-0.640
2020/01/31 09:36:29.7	105.030	0.270	0.040	-0.620
2020/01/31 09:36:29.8	105.040	0.250	0.080	-0.590
2020/01/31 09:36:29.9	105.060	0.230	0.120	-0.560
2020/01/31 09:36:30.0	105.070	0.200	0.160	-0.530
2020/01/31 09:36:30.1	105.090	0.180	0.200	-0.490
2020/01/31 09:36:30.2	105.100	0.160	0.240	-0.460
2020/01/31 09:36:30.3	105.120	0.140	0.270	-0.420
2020/01/31 09:36:30.4	105.140	0.110	0.310	-0.380
2020/01/31 09:36:30.5	105.150	0.090	0.340	-0.340
2020/01/31 09:36:30.6	105.170	0.070	0.370	-0.290
2020/01/31 09:36:30.7	105.180	0.050	0.400	-0.240
2020/01/31 09:36:30.8	105.200	0.030	0.430	-0.190
2020/01/31 09:36:30.9	105.210	0.010	0.450	-0.140
2020/01/31 09:36:31.0	105.230	-0.010	0.470	-0.080
2020/01/31 09:36:31.1	105.240	-0.030	0.490	-0.030
2020/01/31 09:36:31.2	105.250	-0.050	0.500	0.030
2020/01/31 09:36:31.3	105.260	-0.070	0.510	0.090
2020/01/31 09:36:31.4	105.260	-0.090	0.520	0.150
2020/01/31 09:36:31.5	105.270	-0.110	0.520	0.220
2020/01/31 09:36:31.6	105.280	-0.130	0.520	0.280
2020/01/31 09:36:31.7	105.290	-0.140	0.510	0.350
2020/01/31 09:36:31.8	105.300	-0.160	0.490	0.410
2020/01/31 09:36:31.9	105.300	-0.170	0.480	0.480
2020/01/31 09:36:32.0	105.310	-0.180	0.460	0.550
2020/01/31 09:36:32.1	105.320	-0.200	0.430	0.620
2020/01/31 09:36:32.2	105.320	-0.210	0.400	0.690
2020/01/31 09:36:32.3	105.330	-0.220	0.360	0.750
2020/01/31 09:36:32.4	105.320	-0.230	0.330	0.820
2020/01/31 09:36:32.5	105.330	-0.240	0.280	0.890
2020/01/31 09:36:32.6	105.330	-0.250	0.240	0.950
2020/01/31 09:36:32.7	105.340	-0.260	0.190	1.020
2020/01/31 09:36:32.8	105.340	-0.260	0.140	1.090
2020/01/31 09:36:32.9	105.350	-0.270	0.090	1.150
2020/01/31 09:36:33.0	105.350	-0.270	0.030	1.220
2020/01/31 09:36:33.1	105.350	-0.270	-0.030	1.280
2020/01/31 09:36:33.2	105.360	-0.270	-0.080	1.350
2020/01/31 09:36:33.3	105.360	-0.270	-0.140	1.410
2020/01/31 09:36:33.4	105.350	-0.270	-0.200	1.470
2020/01/31 09:36:33.5	105.360	-0.270	-0.260	1.540
2020/01/31 09:36:33.6	105.360	-0.260	-0.330	1.600
2020/01/31 09:36:33.7	105.360	-0.260	-0.390	1.660
2020/01/31 09:36:33.8	105.370	-0.250	-0.450	1.720
2020/01/31 09:36:33.9	105.370	-0.240	-0.510	1.780
2020/01/31 09:36:34.0	105.370	-0.230	-0.560	1.840
2020/01/31 09:36:34.1	105.380	-0.210	-0.620	1.900
2020/01/31 09:36:34.2	105.380	-0.200	-0.680	1.950
2020/01/31 09:36:34.3	105.380	-0.180	-0.730	2.010
2020/01/31 09:36:34.4	105.390	-0.160	-0.780	2.060
2020/01/31 09:36:34.5	105.390	-0.140	-0.820	2.110
2020/01/31 09:36:34.6	105.390	-0.120	-0.870	2.170
2020/01/31 09:36:34.7	105.390	-0.100	-0.910	2.220
2020/01/31 09:36:34.8	105.390	-0.080	-0.950	2.270
2020/01/31 09:36:34.9	105.380	-0.060	-0.980	2.310
2020/01/31 09:36:35.0	105.380	-0.030	-1.010	2.360
2020/01/31 09:36:35.1	105.380	-0.010	-1.030	2.400
2020/01/31 09:36:35.2	105.370	0.010	-1.050	2.430
2020/01/31 09:36:35.3	105.370	0.030	-1.060	2.470
2020/01/31 09:36:35.4	105.380	0.060	-1.070	2.500
2020/01/31 09:36:35.5	105.380	0.080	-1.080	2.530
2020/01/31 09:36:35.6	105.370	0.100	-1.070	2.560
2020/01/31 09:36:35.7	105.360	0.120	-1.060	2.580
2020/01/31 09:36:35.8	105.350	0.130	-1.050	2.590
2020/01/31 09:36:35.9	105.340	0.150	-1.030	2.600
2020/01/31 09:36:36.0	105.330	0.160	-1.000	2.610
2020/01/31 09:36:36.1	105.320	0.170	-0.970	2.610
2020/01/31 09:36:36.2	105.310	0.180	-0.930	2.610
2020/01/31 09:36:36.3	105.300	0.190	-0.880	2.600
2020/01/31 09:36:36.4	105.300	0.190	-0.830	2.580
2020/01/31 09:36:36.5	105.290	0.190	-0.770	2.560
2020/01/31 09:36:36.6	105.280	0.190	-0.710	2.540
2020/01/31 09:36:36.7	105.270	0.190	-0.640	2.510
2020/01/31 09:36:36.8	105.260	0.180	-0.570	2.480
2020/01/31 09:36:36.9	105.260	0.170	-0.490	2.440
2020/01/31 09:36:37.0	105.250	0.160	-0.410	2.390
2020/01/31 09:36:37.1	105.250	0.150	-0.330	2.340
2020/01/31 09:36:37.2	105.250	0.130	-0.250	2.280
2020/01/31 09:36:37.3	105.250	0.120	-0.160	2.220
2020/01/31 09:36:37.4	105.250	0.100	-0.080	2.150
2020/01/31 09:36:37.5	105.250	0.080	0.000	2.080
2020/01/31 09:36:37.6	105.260	0.060	0.090	2.010
2020/01/31 09:36:37.7	105.260	0.030	0.170	1.930
2020/01/31 09:36:37.8	105.270	0.010	0.250	1.850
2020/01/31 09:36:37.9	105.280	-0.020	0.320	1.760
2020/01/31 09:36:38.0	105.290	-0.040	0.390	1.680
2020/01/31 09:36:38.1	105.300	-0.060	0.460	1.580
2020/01/31 09:36:38.2	105.310	-0.090	0.520	1.490
2020/01/31 09:36:38.3	105.330	-0.110	0.570	1.390
2020/01/31 09:36:38.4	105.340	-0.140	0.620	1.290
2020/01/31 09:36:38.5	105.350	-0.160	0.660	1.180
2020/01/31 09:36:38.6	105.370	-0.180	0.690	1.080
2020/01/31 09:36:38.7	105.390	-0.200	0.710	0.980
2020/01/31 09:36:38.8	105.400	-0.220	0.730	0.870
2020/01/31 09:36:38.9	105.420	-0.230	0.740	0.760
2020/01/31 09:36:39.0	105.440	-0.250	0.740	0.660
2020/01/31 09:36:39.1	105.460	-0.260	0.730	0.550
2020/01/31 09:36:39.2	105.480	-0.270	0.720	0.450
2020/01/31 09:36:39.3	105.500	-0.280	0.700	0.340
2020/01/31 09:36:39.4	105.500	-0.280	0.660	0.230
2020/01/31 09:36:39.5	105.520	-0.290	0.630	0.130
2020/01/31 09:36:39.6	105.540	-0.290	0.580	0.030
2020/01/31 09:36:39.7	105.550	-0.290	0.540	-0.060
2020/01/31 09:36:39.8	105.570	-0.280	0.480	-0.160
2020/01/31 09:36:39.9	105.580	-0.280	0.430	-0.250
2020/01/31 09:36:40.0	105.590	-0.270	0.370	-0.340
2020/01/31 09:36:40.1	105.600	-0.260	0.300	-0.430
2020/01/31 09:36:40.2	105.610	-0.250	0.230	-0.510
2020/01/31 09:36:40.3	105.610	-0.230	0.170	-0.590
2020/01/31 09:36:40.4	105.610	-0.220	0.100	-0.660
2020/01/31 09:36:40.5	105.610	-0.200	0.030	-0.730
2020/01/31 09:36:40.6	105.610	-0.190	-0.040	-0.800
2020/01/31 09:36:40.7	105.600	-0.170	-0.110	-0.860
2020/01/31 09:36:40.8	105.600	-0.150	-0.180	-0.920
2020/01/31 09:36:40.9	105.590	-0.140	-0.250	-0.980
2020/01/31 09:36:41.0	105.580	-0.120	-0.310	-1.030
2020/01/31 09:36:41.1	105.570	-0.100	-0.370	-1.080
2020/01/31 09:36:41.2	105.560	-0.080	-0.430	-1.120
2020/01/31 09:36:41.3	105.550	-0.070	-0.480	-1.160
2020/01/31 09:36:41.4	105.550	-0.050	-0.530	-1.200
2020/01/31 09:36:41.5	105.540	-0.030	-0.580	-1.230
2020/01/31 09:36:41.6	105.530	-0.020	-0.620	-1.260
2020/01/31 09:36:41.7	105.520	-0.010	-0.650	-1.280
2020/01/31 09:36:41.8	105.510	0.010	-0.680	-1.300
2020/01/31 09:36:41.9	105.500	0.020	-0.700	-1.320
2020/01/31 09:36:42.0	105.490	0.030	-0.720	-1.330
2020/01/31 09:36:42.1	105.490	0.030	-0.730	-1.340
2020/01/31 09:36:42.2	105.490	0.040	-0.730	-1.350
2020/01/31 09:36:42.3	105.490	0.050	-0.730	-1.350
2020/01/31 09:36:42.4	105.500	0.050	-0.720	-1.350
2020/01/31 09:36:42.5	105.510	0.060	-0.710	-1.340
2020/01/31 09:36:42.6	105.510	0.060	-0.690	-1.330
2020/01/31 09:36:42.7	105.520	0.060	-0.670	-1.320
2020/01/31 09:36:42.8	105.520	0.060	-0.650	-1.300
2020/01/31 09:36:42.9	105.530	0.060	-0.620	-1.280
2020/01/31 09:36:43.0	105.540	0.060	-0.590	-1.250
2020/01/31 09:36:43.1	105.550	0.060	-0.550	-1.230
2020/01/31 09:36:43.2	105.570	0.050	-0.520	-1.190
2020/01/31 09:36:43.3	105.580	0.050	-0.480	-1.160
2020/01/31 09:36:43.4	105.600	0.050	-0.440	-1.120
2020/01/31 09:36:43.5	105.610	0.040	-0.400	-1.070
2020/01/31 09:36:43.6	105.620	0.040	-0.360	-1.030
2020/01/31 09:36:43.7	105.630	0.040	-0.320	-0.980
2020/01/31 09:36:43.8	105.640	0.030	-0.280	-0.930
2020/01/31 09:36:43.9	105.650	0.030	-0.230	-0.870
2020/01/31 09:36:44.0	105.660	0.030	-0.200	-0.810
2020/01/31 09:36:44.1	105.670	0.020	-0.160	-0.750
2020/01/31 09:36:44.2	105.670	0.020	-0.120	-0.690
2020/01/31 09:36:44.3	105.670	0.020	-0.090	-0.620
2020/01/31 09:36:44.4	105.670	0.020	-0.050	-0.560
2020/01/31 09:36:44.5	105.670	0.020	-0.020	-0.490
2020/01/31 09:36:44.6	105.660	0.020	0.000	-0.420
2020/01/31 09:36:44.7	105.660	0.020	0.030	-0.350
2020/01/31 09:36:44.8	105.650	0.020	0.050	-0.270
2020/01/31 09:36:44.9	105.650	0.020	0.070	-0.200
2020/01/31 09:36:45.0	105.640	0.030	0.090	-0.130
2020/01/31 09:36:45.1	105.640	0.030	0.100	-0.060
2020/01/31 09:36:45.2	105.630	0.040	0.110	0.020
2020/01/31 09:36:45.3	105.620	0.040	0.120	0.090
2020/01/31 09:36:45.4	105.610	0.050	0.130	0.160
2020/01/31 09:36:45.5	105.600	0.060	0.130	0.230
2020/01/31 09:36:45.6	105.600	0.060	0.140	0.300
2020/01/31 09:36:45.7	105.590	0.070	0.140	0.360
2020/01/31 09:36:45.8	105.590	0.080	0.140	0.430
2020/01/31 09:36:45.9	105.590	0.090	0.130	0.490
2020/01/31 09:36:46.0	105.590	0.100	0.130	0.560
2020/01/31 09:36:46.1	105.590	0.110	0.120	0.620
2020/01/31 09:36:46.2	105.590	0.120	0.120	0.680
2020/01/31 09:36:46.3	105.590	0.130	0.110	0.740
2020/01/31 09:36:46.4	105.580	0.140	0.090	0.790
2020/01/31 09:36:46.5	105.590	0.150	0.080	0.850
2020/01/31 09:36:46.6	105.600	0.160	0.070	0.910
2020/01/31 09:36:46.7	105.610	0.170	0.060	0.960
2020/01/31 09:36:46.8	105.620	0.180	0.040	1.020
2020/01/31 09:36:46.9	105.630	0.190	0.030	1.070
2020/01/31 09:36:47.0	105.640	0.200	0.010	1.120
2020/01/31 09:36:47.1	105.650	0.210	-0.010	1.180
2020/01/31 09:36:47.2	105.660	0.220	-0.030	1.230
2020/01/31 09:36:47.3	105.670	0.230	-0.040	1.280
2020/01/31 09:36:47.4	105.700	0.240	-0.060	1.330
2020/01/31 09:36:47.5	105.710	0.250	-0.080	1.380
2020/01/31 09:36:47.6	105.720	0.250	-0.100	1.430
2020/01/31 09:36:47.7	105.740	0.260	-0.120	1.480
2020/01/31 09:36:47.8	105.750	0.270	-0.140	1.530
2020/01/31 09:36:47.9	105.760	0.270	-0.160	1.580
2020/01/31 09:36:48.0	105.770	0.280	-0.180	1.620
2020/01/31 09:36:48.1	105.770	0.280	-0.190	1.670
2020/01/31 09:36:48.2	105.780	0.280	-0.210	1.720
2020/01/31 09:36:48.3	105.790	0.280	-0.230	1.770
2020/01/31 09:36:48.4	105.800	0.280	-0.250	1.810
2020/01/31 09:36:48.5	105.800	0.280	-0.260	1.860
2020/01/31 09:36:48.6	105.800	0.280	-0.280	1.900
2020/01/31 09:36:48.7	105.800	0.270	-0.290	1.950
2020/01/31 09:36:48.8	105.800	0.260	-0.300	1.990
2020/01/31 09:36:48.9	105.800	0.250	-0.310	2.030
2020/01/31 09:36:49.0	105.790	0.250	-0.320	2.070
2020/01/31 09:36:49.1	105.790	0.230	-0.320	2.100
2020/01/31 09:36:49.2	105.780	0.220	-0.330	2.140
2020/01/31 09:36:49.3	105.770	0.210	-0.330	2.170
2020/01/31 09:36:49.4	105.770	0.190	-0.340	2.200
2020/01/31 09:36:49.5	105.760	0.180	-0.340	2.230
2020/01/31 09:36:49.6	105.750	0.160	-0.340	2.250
2020/01/31 09:36:49.7	105.740	0.140	-0.340	2.280
2020/01/31 09:36:49.8	105.730	0.120	-0.340	2.300
2020/01/31 09:36:49.9	105.720	0.100	-0.340	2.310
2020/01/31 09:36:50.0	105.710	0.080	-0.340	2.330
2020/01/31 09:36:50.1	105.700	0.060	-0.340	2.340
2020/01/31 09:36:50.2	105.690	0.030	-0.340	2.340
2020/01/31 09:36:50.3	105.680	0.010	-0.340	2.350
2020/01/31 09:36:50.4	105.670	-0.010	-0.340	2.340
2020/01/31 09:36:50.5	105.660	-0.030	-0.340	2.340
2020/01/31 09:36:50.6	105.660	-0.060	-0.330	2.330
2020/01/31 09:36:50.7	105.660	-0.080	-0.330	2.320
2020/01/31 09:36:50.8	105.660	-0.100	-0.330	2.300
2020/01/31 09:36:50.9	105.660	-0.120	-0.330	2.280
2020/01/31 09:36:51.0	105.660	-0.140	-0.330	2.260
2020/01/31 09:36:51.1	105.660	-0.160	-0.330	2.230
2020/01/31 09:36:51.2	105.660	-0.170	-0.330	2.200
2020/01/31 09:36:51.3	105.660	-0.190	-0.330	2.160
2020/01/31 09:36:51.4	105.670	-0.210	-0.330	2.120
2020/01/31 09:36:51.5	105.670	-0.220	-0.330	2.080
2020/01/31 09:36:51.6	105.680	-0.230	-0.330	2.040
2020/01/31 09:36:51.7	105.680	-0.240	-0.330	1.990
2020/01/31 09:36:51.8	105.690	-0.250	-0.340	1.940
2020/01/31 09:36:51.9	105.690	-0.260	-0.340	1.890
2020/01/31 09:36:52.0	105.690	-0.270	-0.340	1.840
2020/01/31 09:36:52.1	105.700	-0.270	-0.340	1.780
2020/01/31 09:36:52.2	105.700	-0.270	-0.340	1.720
2020/01/31 09:36:52.3	105.700	-0.270	-0.340	1.660
2020/01/31 09:36:52.4	105.720	-0.270	-0.340	1.600
2020/01/31 09:36:52.5	105.720	-0.270	-0.340	1.540
2020/01/31 09:36:52.6	105.720	-0.270	-0.340	1.470
2020/01/31 09:36:52.7	105.720	-0.270	-0.330	1.410
2020/01/31 09:36:52.8	105.720	-0.260	-0.330	1.350
2020/01/31 09:36:52.9	105.720	-0.250	-0.320	1.280
2020/01/31 09:36:53.0	105.720	-0.250	-0.320	1.220
2020/01/31 09:36:53.1	105.720	-0.240	-0.310	1.150
2020/01/31 09:36:53.2	105.710	-0.230	-0.300	1.090
2020/01/31 09:36:53.3	105.710	-0.220	-0.290	1.030
2020/01/31 09:36:53.4	105.700	-0.210	-0.280	0.970
2020/01/31 09:36:53.5	105.700	-0.210	-0.270	0.900
2020/01/31 09:36:53.6	105.700	-0.200	-0.250	0.840
2020/01/31 09:36:53.7	105.700	-0.190	-0.230	0.780
2020/01/31 09:36:53.8	105.700	-0.180	-0.220	0.720
2020/01/31 09:36:53.9	105.700	-0.170	-0.200	0.660
2020/01/31 09:36:54.0	105.690	-0.170	-0.170	0.600
2020/01/31 09:36:54.1	105.690	-0.160	-0.150	0.550
2020/01/31 09:36:54.2	105.700	-0.150	-0.130	0.490
2020/01/31 09:36:54.3	105.700	-0.150	-0.100	0.430
2020/01/31 09:36:54.4	105.690	-0.150	-0.070	0.380
2020/01/31 09:36:54.5	105.690	-0.150	-0.050	0.320
2020/01/31 09:36:54.6	105.690	-0.150	-0.020	0.270
2020/01/31 09:36:54.7	105.690	-0.150	0.010	0.210
2020/01/31 09:36:54.8	105.700	-0.150	0.040	0.160
2020/01/31 09:36:54.9	105.700	-0.150	0.070	0.110
2020/01/31 09:36:55.0	105.710	-0.150	0.100	0.050
2020/01/31 09:36:55.1	105.720	-0.160	0.140	0.000
2020/01/31 09:36:55.2	105.720	-0.170	0.170	-0.050
2020/01/31 09:36:55.3	105.730	-0.170	0.200	-0.100
2020/01/31 09:36:55.4	105.730	-0.180	0.230	-0.160
2020/01/31 09:36:55.5	105.740	-0.190	0.250	-0.210
2020/01/31 09:36:55.6	105.750	-0.200	0.280	-0.260
2020/01/31 09:36:55.7	105.760	-0.210	0.300	-0.310
2020/01/31 09:36:55.8	105.760	-0.220	0.320	-0.350
2020/01/31 09:36:55.9	105.770	-0.230	0.340	-0.400
2020/01/31 09:36:56.0	105.780	-0.240	0.360	-0.450
2020/01/31 09:36:56.1	105.790	-0.250	0.370	-0.490
2020/01/31 09:36:56.2	105.790	-0.260	0.380	-0.530
2020/01/31 09:36:56.3	105.800	-0.270	0.390	-0.570
2020/01/31 09:36:56.4	105.790	-0.270	0.390	-0.610
2020/01/31 09:36:56.5	105.790	-0.280	0.380	-0.640
2020/01/31 09:36:56.6	105.800	-0.280	0.370	-0.680
2020/01/31 09:36:56.7	105.800	-0.290	0.360	-0.710
2020/01/31 09:36:56.8	105.800	-0.290	0.340	-0.730
2020/01/31 09:36:56.9	105.800	-0.290	0.320	-0.760
2020/01/31 09:36:57.0	105.800	-0.280	0.290	-0.780
2020/01/31 09:36:57.1	105.790	-0.280	0.260	-0.800
2020/01/31 09:36:57.2	105.790	-0.270	0.230	-0.810
2020/01/31 09:36:57.3	105.780	-0.260	0.180	-0.820
2020/01/31 09:36:57.4	105.770	-0.250	0.140	-0.830
2020/01/31 09:36:57.5	105.760	-0.230	0.090	-0.840
2020/01/31 09:36:57.6	105.760	-0.210	0.040	-0.840
2020/01/31 09:36:57.7	105.750	-0.190	-0.010	-0.840
2020/01/31 09:36:57.8	105.740	-0.170	-0.070	-0.840
2020/01/31 09:36:57.9	105.720	-0.140	-0.120	-0.830
2020/01/31 09:36:58.0	105.710	-0.120	-0.180	-0.820
2020/01/31 09:36:58.1	105.700	-0.090	-0.240	-0.810
2020/01/31 09:36:58.2	105.690	-0.060	-0.300	-0.800
2020/01/31 09:36:58.3	105.680	-0.030	-0.350	-0.780
2020/01/31 09:36:58.4	105.680	0.010	-0.410	-0.760
2020/01/31 09:36:58.5	105.670	0.040	-0.460	-0.740
2020/01/31 09:36:58.6	105.670	0.080	-0.510	-0.720
2020/01/31 09:36:58.7	105.660	0.110	-0.550	-0.700
2020/01/31 09:36:58.8	105.650	0.150	-0.600	-0.680
2020/01/31 09:36:58.9	105.650	0.180	-0.640	-0.650
2020/01/31 09:36:59.0	105.650	0.220	-0.670	-0.620
2020/01/31 09:36:59.1	105.650	0.250	-0.700	-0.600
2020/01/31 09:36:59.2	105.650	0.280	-0.720	-0.560
2020/01/31 09:36:59.3	105.650	0.310	-0.740	-0.530
2020/01/31 09:36:59.4	105.670	0.340	-0.750	-0.500
2020/01/31 09:36:59.5	105.680	0.370	-0.760	-0.460
2020/01/31 09:36:59.6	105.680	0.390	-0.760	-0.420
2020/01/31 09:36:59.7	105.690	0.420	-0.760	-0.380
2020/01/31 09:36:59.8	105.690	0.440	-0.750	-0.330
2020/01/31 09:36:59.9	105.700	0.450	-0.740	-0.280
2020/01/31 09:37:00.0	105.710	0.470	-0.720	-0.230
2020/01/31 09:37:00.1	105.710	0.480	-0.700	-0.180
2020/01/31 09:37:00.2	105.720	0.490	-0.680	-0.130
2020/01/31 09:37:00.3	105.730	0.490	-0.650	-0.070
2020/01/31 09:37:00.4	105.730	0.500	-0.620	-0.010
2020/01/31 09:37:00.5	105.740	0.500	-0.580	0.050
2020/01/31 09:37:00.6	105.740	0.500	-0.540	0.110
2020/01/31 09:37:00.7	105.750	0.490	-0.510	0.170
2020/01/31 09:37:00.8	105.750	0.490	-0.470	0.240
2020/01/31 09:37:00.9	105.760	0.480	-0.430	0.310
2020/01/31 09:37:01.0	105.760	0.470	-0.390	0.380
2020/01/31 09:37:01.1	105.760	0.450	-0.340	0.450
2020/01/31 09:37:01.2	105.760	0.440	-0.300	0.520
2020/01/31 09:37:01.3	105.770	0.420	-0.270	0.590
2020/01/31 09:37:01.4	105.750	0.400	-0.230	0.660
2020/01/31 09:37:01.5	105.750	0.380	-0.190	0.730
2020/01/31 09:37:01.6	105.750	0.360	-0.160	0.800
2020/01/31 09:37:01.7	105.750	0.340	-0.120	0.880
2020/01/31 09:37:01.8	105.740	0.320	-0.090	0.950
2020/01/31 09:37:01.9	105.740	0.300	-0.070	1.020
2020/01/31 09:37:02.0	105.730	0.280	-0.040	1.090
2020/01/31 09:37:02.1	105.730	0.260	-0.020	1.160
2020/01/31 09:37:02.2	105.720	0.230	0.000	1.230
2020/01/31 09:37:02.3	105.710	0.210	0.020	1.300
2020/01/31 09:37:02.4	105.690	0.190	0.040	1.370
2020/01/31 09:37:02.5	105.680	0.170	0.050	1.440
2020/01/31 09:37:02.6	105.670	0.150	0.070	1.500
2020/01/31 09:37:02.7	105.650	0.130	0.080	1.570
2020/01/31 09:37:02.8	105.640	0.110	0.090	1.630
2020/01/31 09:37:02.9	105.630	0.090	0.100	1.690
2020/01/31 09:37:03.0	105.620	0.070	0.110	1.750
2020/01/31 09:37:03.1	105.600	0.050	0.120	1.810
2020/01/31 09:37:03.2	105.590	0.040	0.130	1.860
2020/01/31 09:37:03.3	105.570	0.020	0.140	1.920
2020/01/31 09:37:03.4	105.550	0.000	0.140	1.960
2020/01/31 09:37:03.5	105.540	-0.010	0.150	2.000
2020/01/31 09:37:03.6	105.520	-0.030	0.160	2.040
2020/01/31 09:37:03.7	105.510	-0.050	0.170	2.080
2020/01/31 09:37:03.8	105.500	-0.060	0.180	2.120
2020/01/31 09:37:03.9	105.490	-0.080	0.190	2.150
2020/01/31 09:37:04.0	105.490	-0.090	0.200	2.170
2020/01/31 09:37:04.1	105.480	-0.110	0.210	2.190
2020/01/31 09:37:04.2	105.480	-0.120	0.210	2.210
2020/01/31 09:37:04.3	105.480	-0.140	0.220	2.220
2020/01/31 09:37:04.4	105.490	-0.150	0.230	2.230
2020/01/31 09:37:04.5	105.490	-0.160	0.230	2.230
2020/01/31 09:37:04.6	105.500	-0.180	0.240	2.230
2020/01/31 09:37:04.7	105.510	-0.190	0.240	2.230
2020/01/31 09:37:04.8	105.520	-0.200	0.240	2.220
2020/01/31 09:37:04.9	105.530	-0.220	0.240	2.200
2020/01/31 09:37:05.0	105.550	-0.230	0.240	2.190
2020/01/31 09:37:05.1	105.570	-0.240	0.230	2.160
2020/01/31 09:37:05.2	105.590	-0.250	0.220	2.140
2020/01/31 09:37:05.3	105.620	-0.260	0.210	2.110
2020/01/31 09:37:05.4	105.640	-0.270	0.200	2.080
2020/01/31 09:37:05.5	105.670	-0.280	0.180	2.040
2020/01/31 09:37:05.6	105.700	-0.280	0.160	2.010
2020/01/31 09:37:05.7	105.730	-0.290	0.140	1.970
2020/01/31 09:37:05.8	105.760	-0.300	0.110	1.930
2020/01/31 09:37:05.9	105.790	-0.300	0.080	1.890
2020/01/31 09:37:06.0	105.820	-0.310	0.050	1.850
2020/01/31 09:37:06.1	105.850	-0.310	0.020	1.810
2020/01/31 09:37:06.2	105.880	-0.310	-0.020	1.760
2020/01/31 09:37:06.3	105.910	-0.310	-0.060	1.720
2020/01/31 09:37:06.4	105.950	-0.310	-0.100	1.670
2020/01/31 09:37:06.5	105.980	-0.310	-0.140	1.630
2020/01/31 09:37:06.6	106.000	-0.300	-0.190	1.580
2020/01/31 09:37:06.7	106.030	-0.300	-0.230	1.540
2020/01/31 09:37:06.8	106.050	-0.290	-0.270	1.490
2020/01/31 09:37:06.9	106.070	-0.290	-0.320	1.450
2020/01/31 09:37:07.0	106.090	-0.280	-0.360	1.410
2020/01/31 09:37:07.1	106.110	-0.270	-0.400	1.360
2020/01/31 09:37:07.2	106.120	-0.260	-0.440	1.320
2020/01/31 09:37:07.3	106.130	-0.250	-0.480	1.280
2020/01/31 09:37:07.4	106.150	-0.230	-0.520	1.240
2020/01/31 09:37:07.5	106.160	-0.220	-0.560	1.200
2020/01/31 09:37:07.6	106.160	-0.200	-0.600	1.170
2020/01/31 09:37:07.7	106.150	-0.190	-0.630	1.130
2020/01/31 09:37:07.8	106.150	-0.170	-0.660	1.100
2020/01/31 09:37:07.9	106.140	-0.150	-0.690	1.060
2020/01/31 09:37:08.0	106.120	-0.130	-0.710	1.030
2020/01/31 09:37:08.1	106.110	-0.110	-0.740	1.000
2020/01/31 09:37:08.2	106.090	-0.090	-0.760	0.970
2020/01/31 09:37:08.3	106.060	-0.070	-0.780	0.940
2020/01/31 09:37:08.4	106.050	-0.050	-0.790	0.910
2020/01/31 09:37:08.5	106.020	-0.030	-0.800	0.880
2020/01/31 09:37:08.6	105.990	-0.010	-0.810	0.850
2020/01/31 09:37:08.7	105.950	0.010	-0.810	0.820
2020/01/31 09:37:08.8	105.920	0.030	-0.820	0.790
2020/01/31 09:37:08.9	105.880	0.050	-0.820	0.760
2020/01/31 09:37:09.0	105.840	0.070	-0.810	0.730
2020/01/31 09:37:09.1	105.800	0.090	-0.800	0.700
2020/01/31 09:37:09.2	105.770	0.110	-0.790	0.670
2020/01/31 09:37:09.3	105.730	0.130	-0.780	0.640
2020/01/31 09:37:09.4	105.680	0.140	-0.760	0.610
2020/01/31 09:37:09.5	105.640	0.160	-0.740	0.580
2020/01/31 09:37:09.6	105.610	0.170	-0.720	0.540
2020/01/31 09:37:09.7	105.570	0.180	-0.690	0.510
2020/01/31 09:37:09.8	105.540	0.190	-0.660	0.480
2020/01/31 09:37:09.9	105.500	0.190	-0.620	0.450
2020/01/31 09:37:10.0	105.470	0.190	-0.590	0.410
2020/01/31 09:37:10.1	105.450	0.200	-0.550	0.380
2020/01/31 09:37:10.2	105.420	0.190	-0.500	0.350
2020/01/31 09:37:10.3	105.400	0.190	-0.460	0.320
2020/01/31 09:37:10.4	105.360	0.190	-0.410	0.280
2020/01/31 09:37:10.5	105.340	0.180	-0.360	0.240
2020/01/31 09:37:10.6	105.320	0.170	-0.310	0.210
2020/01/31 09:37:10.7	105.310	0.150	-0.260	0.180
2020/01/31 09:37:10.8	105.300	0.140	-0.210	0.150
2020/01/31 09:37:10.9	105.290	0.120	-0.150	0.120
2020/01/31 09:37:11.0	105.290	0.110	-0.100	0.090
2020/01/31 09:37:11.1	105.280	0.090	-0.050	0.060
2020/01/31 09:37:11.2	105.290	0.060	0.000	0.030
2020/01/31 09:37:11.3	105.290	0.040	0.060	-0.000
2020/01/31 09:37:11.4	105.280	0.020	0.110	-0.040
2020/01/31 09:37:11.5	105.300	-0.010	0.150	-0.070
2020/01/31 09:37:11.6	105.310	-0.030	0.200	-0.100
2020/01/31 09:37:11.7	105.330	-0.060	0.250	-0.130
2020/01/31 09:37:11.8	105.350	-0.080	0.290	-0.160
2020/01/31 09:37:11.9	105.370	-0.110	0.330	-0.190
2020/01/31 09:37:12.0	105.400	-0.130	0.360	-0.220
2020/01/31 09:37:12.1	105.430	-0.160	0.400	-0.260
2020/01/31 09:37:12.2	105.470	-0.180	0.430	-0.290
2020/01/31 09:37:12.3	105.510	-0.200	0.460	-0.320
2020/01/31 09:37:12.4	105.530	-0.230	0.480	-0.350
2020/01/31 09:37:12.5	105.580	-0.250	0.500	-0.390
2020/01/31 09:37:12.6	105.620	-0.270	0.520	-0.420
2020/01/31 09:37:12.7	105.670	-0.280	0.530	-0.450
2020/01/31 09:37:12.8	105.720	-0.300	0.540	-0.480
2020/01/31 09:37:12.9	105.770	-0.320	0.550	-0.510
2020/01/31 09:37:13.0	105.820	-0.330	0.550	-0.540
2020/01/31 09:37:13.1	105.870	-0.340	0.550	-0.560
2020/01/31 09:37:13.2	105.920	-0.350	0.550	-0.590
2020/01/31 09:37:13.3	105.970	-0.350	0.540	-0.610
2020/01/31 09:37:13.4	106.030	-0.360	0.540	-0.630
2020/01/31 09:37:13.5	106.080	-0.360	0.520	-0.640
2020/01/31 09:37:13.6	106.130	-0.360	0.510	-0.660
2020/01/31 09:37:13.7	106.170	-0.360	0.490	-0.670
2020/01/31 09:37:13.8	106.220	-0.350	0.470	-0.670
2020/01/31 09:37:13.9	106.260	-0.350	0.450	-0.670
2020/01/31 09:37:14.0	106.300	-0.340	0.420	-0.670
2020/01/31 09:37:14.1	106.340	-0.330	0.390	-0.670
2020/01/31 09:37:14.2	106.370	-0.310	0.360	-0.660
2020/01/31 09:37:14.3	106.410	-0.300	0.330	-0.640
2020/01/31 09:37:14.4	106.450	-0.280	0.300	-0.620
2020/01/31 09:37:14.5	106.470	-0.260	0.260	-0.600
2020/01/31 09:37:14.6	106.490	-0.240	0.220	-0.570
2020/01/31 09:37:14.7	106.510	-0.220	0.180	-0.540
2020/01/31 09:37:14.8	106.530	-0.190	0.140	-0.500
2020/01/31 09:37:14.9	106.540	-0.160	0.090	-0.460
2020/01/31 09:37:15.0	106.550	-0.140	0.050	-0.410
2020/01/31 09:37:15.1	106.550	-0.110	0.000	-0.370
2020/01/31 09:37:15.2	106.550	-0.080	-0.040	-0.310
2020/01/31 09:37:15.3	106.550	-0.050	-0.090	-0.260
2020/01/31 09:37:15.4	106.570	-0.010	-0.140	-0.200
2020/01/31 09:37:15.5	106.570	0.020	-0.190	-0.140
2020/01/31 09:37:15.6	106.560	0.050	-0.240	-0.070
2020/01/31 09:37:15.7	106.550	0.090	-0.290	-0.010
2020/01/31 09:37:15.8	106.530	0.120	-0.340	0.060
2020/01/31 09:37:15.9	106.520	0.150	-0.390	0.130
2020/01/31 09:37:16.0	106.510	0.190	-0.440	0.210
2020/01/31 09:37:16.1	106.490	0.220	-0.490	0.280
2020/01/31 09:37:16.2	106.470	0.260	-0.530	0.360
2020/01/31 09:37:16.3	106.450	0.290	-0.580	0.430
2020/01/31 09:37:16.4	106.440	0.320	-0.620	0.510
2020/01/31 09:37:16.5	106.420	0.350	-0.660	0.590
2020/01/31 09:37:16.6	106.400	0.380	-0.700	0.670
2020/01/31 09:37:16.7	106.370	0.410	-0.730	0.750
2020/01/31 09:37:16.8	106.350	0.440	-0.760	0.830
2020/01/31 09:37:16.9	106.330	0.470	-0.790	0.900
2020/01/31 09:37:17.0	106.310	0.490	-0.810	0.980
2020/01/31 09:37:17.1	106.280	0.510	-0.840	1.060
2020/01/31 09:37:17.2	106.260	0.530	-0.850	1.140
2020/01/31 09:37:17.3	106.240	0.550	-0.860	1.220
2020/01/31 09:37:17.4	106.230	0.570	-0.870	1.300
2020/01/31 09:37:17.5	106.210	0.580	-0.880	1.370
2020/01/31 09:37:17.6	106.190	0.600	-0.880	1.450
2020/01/31 09:37:17.7	106.160	0.610	-0.880	1.530
2020/01/31 09:37:17.8	106.150	0.610	-0.870	1.600
2020/01/31 09:37:17.9	106.130	0.620	-0.860	1.670
2020/01/31 09:37:18.0	106.110	0.620	-0.850	1.750
2020/01/31 09:37:18.1	106.100	0.620	-0.830	1.820
2020/01/31 09:37:18.2	106.080	0.620	-0.810	1.880
2020/01/31 09:37:18.3	106.070	0.610	-0.780	1.950
2020/01/31 09:37:18.4	106.060	0.600	-0.750	2.010
2020/01/31 09:37:18.5	106.050	0.590	-0.720	2.070
2020/01/31 09:37:18.6	106.040	0.580	-0.690	2.130
2020/01/31 09:37:18.7	106.040	0.560	-0.650	2.180
2020/01/31 09:37:18.8	106.030	0.550	-0.620	2.230
2020/01/31 09:37:18.9	106.020	0.530	-0.580	2.280
2020/01/31 09:37:19.0	106.020	0.500	-0.530	2.320
2020/01/31 09:37:19.1	106.020	0.480	-0.490	2.360
2020/01/31 09:37:19.2	106.020	0.450	-0.450	2.390
2020/01/31 09:37:19.3	106.020	0.430	-0.400	2.420
2020/01/31 09:37:19.4	106.010	0.400	-0.360	2.440
2020/01/31 09:37:19.5	106.010	0.370	-0.310	2.460
2020/01/31 09:37:19.6	106.010	0.340	-0.270	2.480
2020/01/31 09:37:19.7	106.020	0.310	-0.220	2.490
2020/01/31 09:37:19.8	106.020	0.270	-0.170	2.490
2020/01/31 09:37:19.9	106.020	0.240	-0.120	2.490
2020/01/31 09:37:20.0	106.030	0.210	-0.070	2.480
2020/01/31 09:37:20.1	106.040	0.170	-0.020	2.470
2020/01/31 09:37:20.2	106.040	0.140	0.020	2.450
2020/01/31 09:37:20.3	106.050	0.100	0.070	2.420
2020/01/31 09:37:20.4	106.060	0.070	0.120	2.390
2020/01/31 09:37:20.5	106.070	0.030	0.160	2.360
2020/01/31 09:37:20.6	106.080	-0.000	0.210	2.320
2020/01/31 09:37:20.7	106.090	-0.040	0.250	2.280
2020/01/31 09:37:20.8	106.110	-0.070	0.290	2.230
2020/01/31 09:37:20.9	106.120	-0.110	0.330	2.180
2020/01/31 09:37:21.0	106.130	-0.140	0.370	2.130
2020/01/31 09:37:21.1	106.150	-0.180	0.410	2.070
2020/01/31 09:37:21.2	106.160	-0.210	0.440	2.000
2020/01/31 09:37:21.3	106.180	-0.240	0.480	1.940
2020/01/31 09:37:21.4	106.200	-0.270	0.500	1.870
2020/01/31 09:37:21.5	106.210	-0.300	0.530	1.800
2020/01/31 09:37:21.6	106.230	-0.330	0.550	1.730
2020/01/31 09:37:21.7	106.250	-0.360	0.570	1.650
2020/01/31 09:37:21.8	106.270	-0.390	0.590	1.580
2020/01/31 09:37:21.9	106.290	-0.410	0.600	1.500
2020/01/31 09:37:22.0	106.310	-0.440	0.610	1.430
2020/01/31 09:37:22.1	106.330	-0.460	0.610	1.350
2020/01/31 09:37:22.2	106.350	-0.480	0.610	1.280
2020/01/31 09:37:22.3	106.360	-0.500	0.600	1.200
2020/01/31 09:37:22.4	106.360	-0.520	0.590	1.130
2020/01/31 09:37:22.5	106.380	-0.540	0.570	1.060
2020/01/31 09:37:22.6	106.390	-0.550	0.550	0.990
2020/01/31 09:37:22.7	106.400	-0.570	0.520	0.930
2020/01/31 09:37:22.8	106.410	-0.580	0.480	0.860
2020/01/31 09:37:22.9	106.420	-0.580	0.440	0.800
2020/01/31 09:37:23.0	106.430	-0.590	0.400	0.750
2020/01/31 09:37:23.1	106.440	-0.590	0.350	0.690
2020/01/31 09:37:23.2	106.440	-0.590	0.290	0.640
2020/01/31 09:37:23.3	106.450	-0.590	0.230	0.590
2020/01/31 09:37:23.4	106.430	-0.580	0.170	0.540
2020/01/31 09:37:23.5	106.430	-0.570	0.100	0.500
2020/01/31 09:37:23.6	106.430	-0.560	0.030	0.460
2020/01/31 09:37:23.7	106.430	-0.550	-0.050	0.420
2020/01/31 09:37:23.8	106.430	-0.530	-0.120	0.380
2020/01/31 09:37:23.9	106.430	-0.520	-0.200	0.350
2020/01/31 09:37:24.0	106.420	-0.490	-0.280	0.310
2020/01/31 09:37:24.1	106.420	-0.470	-0.360	0.280
2020/01/31 09:37:24.2	106.410	-0.450	-0.440	0.250
2020/01/31 09:37:24.3	106.410	-0.420	-0.520	0.220
2020/01/31 09:37:24.4	106.390	-0.390	-0.590	0.190
2020/01/31 09:37:24.5	106.380	-0.360	-0.660	0.170
2020/01/31 09:37:24.6	106.370	-0.320	-0.730	0.140
2020/01/31 09:37:24.7	106.370	-0.290	-0.800	0.110
2020/01/31 09:37:24.8	106.360	-0.250	-0.870	0.090
2020/01/31 09:37:24.9	106.350	-0.220	-0.920	0.070
2020/01/31 09:37:25.0	106.340	-0.180	-0.980	0.040
2020/01/31 09:37:25.1	106.330	-0.140	-1.030	0.020
2020/01/31 09:37:25.2	106.320	-0.110	-1.070	-0.000
2020/01/31 09:37:25.3	106.310	-0.070	-1.100	-0.020
2020/01/31 09:37:25.4	106.300	-0.030	-1.130	-0.040
2020/01/31 09:37:25.5	106.290	0.000	-1.150	-0.060
2020/01/31 09:37:25.6	106.280	0.040	-1.160	-0.080
2020/01/31 09:37:25.7	106.270	0.070	-1.170	-0.090
2020/01/31 09:37:25.8	106.260	0.110	-1.170	-0.110
2020/01/31 09:37:25.9	106.250	0.140	-1.150	-0.120
2020/01/31 09:37:26.0	106.240	0.160	-1.140	-0.130
2020/01/31 09:37:26.1	106.230	0.190	-1.110	-0.140
2020/01/31 09:37:26.2	106.230	0.210	-1.080	-0.150
2020/01/31 09:37:26.3	106.220	0.230	-1.030	-0.160
2020/01/31 09:37:26.4	106.230	0.250	-0.980	-0.160
2020/01/31 09:37:26.5	106.230	0.270	-0.930	-0.170
2020/01/31 09:37:26.6	106.220	0.280	-0.870	-0.170
2020/01/31 09:37:26.7	106.220	0.290	-0.800	-0.170
2020/01/31 09:37:26.8	106.220	0.290	-0.730	-0.160
2020/01/31 09:37:26.9	106.210	0.290	-0.650	-0.160
2020/01/31 09:37:27.0	106.210	0.290	-0.570	-0.150
2020/01/31 09:37:27.1	106.210	0.290	-0.480	-0.150
2020/01/31 09:37:27.2	106.210	0.280	-0.390	-0.140
2020/01/31 09:37:27.3	106.210	0.270	-0.310	-0.130
2020/01/31 09:37:27.4	106.230	0.260	-0.220	-0.110
2020/01/31 09:37:27.5	106.230	0.240	-0.130	-0.100
2020/01/31 09:37:27.6	106.230	0.230	-0.040	-0.080
2020/01/31 09:37:27.7	106.240	0.210	0.050	-0.070
2020/01/31 09:37:27.8	106.240	0.190	0.130	-0.050
2020/01/31 09:37:27.9	106.240	0.160	0.220	-0.040
2020/01/31 09:37:28.0	106.250	0.140	0.290	-0.020
2020/01/31 09:37:28.1	106.250	0.110	0.370	-0.010
2020/01/31 09:37:28.2	106.260	0.090	0.430	0.010
2020/01/31 09:37:28.3	106.260	0.060	0.500	0.030
2020/01/31 09:37:28.4	106.260	0.040	0.550	0.040
2020/01/31 09:37:28.5	106.270	0.010	0.600	0.060
2020/01/31 09:37:28.6	106.280	-0.020	0.650	0.070
2020/01/31 09:37:28.7	106.290	-0.040	0.690	0.090
2020/01/31 09:37:28.8	106.290	-0.070	0.710	0.100
2020/01/31 09:37:28.9	106.300	-0.090	0.740	0.110
2020/01/31 09:37:29.0	106.310	-0.110	0.750	0.130
2020/01/31 09:37:29.1	106.320	-0.140	0.760	0.140
2020/01/31 09:37:29.2	106.330	-0.160	0.760	0.150
2020/01/31 09:37:29.3	106.340	-0.170	0.750	0.170
2020/01/31 09:37:29.4	106.340	-0.190	0.730	0.180
2020/01/31 09:37:29.5	106.350	-0.200	0.710	0.190
2020/01/31 09:37:29.6	106.360	-0.220	0.680	0.200
2020/01/31 09:37:29.7	106.360	-0.230	0.640	0.210
2020/01/31 09:37:29.8	106.370	-0.230	0.600	0.230
2020/01/31 09:37:29.9	106.370	-0.240	0.560	0.240
2020/01/31 09:37:30.0	106.380	-0.240	0.510	0.250
2020/01/31 09:37:30.1	106.380	-0.240	0.460	0.270
2020/01/31 09:37:30.2	106.380	-0.240	0.400	0.280
2020/01/31 09:37:30.3	106.380	-0.240	0.350	0.300
2020/01/31 09:37:30.4	106.390	-0.240	0.290	0.320
2020/01/31 09:37:30.5	106.390	-0.230	0.230	0.330
2020/01/31 09:37:30.6	106.390	-0.220	0.160	0.350
2020/01/31 09:37:30.7	106.390	-0.210	0.100	0.370
2020/01/31 09:37:30.8	106.390	-0.200	0.040	0.390
2020/01/31 09:37:30.9	106.390	-0.190	-0.020	0.410
2020/01/31 09:37:31.0	106.390	-0.180	-0.070	0.440
2020/01/31 09:37:31.1	106.390	-0.160	-0.130	0.460
2020/01/31 09:37:31.2	106.390	-0.150	-0.180	0.490
2020/01/31 09:37:31.3	106.380	-0.130	-0.240	0.520
2020/01/31 09:37:31.4	106.360	-0.110	-0.280	0.540
2020/01/31 09:37:31.5	106.360	-0.100	-0.330	0.570
2020/01/31 09:37:31.6	106.350	-0.080	-0.370	0.600
2020/01/31 09:37:31.7	106.350	-0.060	-0.400	0.630
2020/01/31 09:37:31.8	106.350	-0.040	-0.440	0.660
2020/01/31 09:37:31.9	106.350	-0.030	-0.470	0.700
2020/01/31 09:37:32.0	106.350	-0.010	-0.490	0.730
2020/01/31 09:37:32.1	106.350	0.010	-0.510	0.760
2020/01/31 09:37:32.2	106.340	0.020	-0.530	0.790
2020/01/31 09:37:32.3	106.340	0.040	-0.540	0.830
2020/01/31 09:37:32.4	106.340	0.050	-0.540	0.860
2020/01/31 09:37:32.5	106.340	0.070	-0.550	0.890
2020/01/31 09:37:32.6	106.340	0.080	-0.550	0.920
2020/01/31 09:37:32.7	106.340	0.100	-0.540	0.950
2020/01/31 09:37:32.8	106.340	0.110	-0.540	0.980
2020/01/31 09:37:32.9	106.340	0.120	-0.530	1.010
2020/01/31 09:37:33.0	106.350	0.130	-0.510	1.030
2020/01/31 09:37:33.1	106.350	0.140	-0.500	1.060
2020/01/31 09:37:33.2	106.350	0.140	-0.480	1.080
2020/01/31 09:37:33.3	106.350	0.150	-0.450	1.100
2020/01/31 09:37:33.4	106.360	0.160	-0.430	1.120
2020/01/31 09:37:33.5	106.360	0.160	-0.410	1.130
2020/01/31 09:37:33.6	106.360	0.160	-0.380	1.150
2020/01/31 09:37:33.7	106.360	0.170	-0.350	1.160
2020/01/31 09:37:33.8	106.360	0.170	-0.330	1.170
2020/01/31 09:37:33.9	106.350	0.170	-0.300	1.170
2020/01/31 09:37:34.0	106.350	0.170	-0.270	1.180
2020/01/31 09:37:34.1	106.350	0.170	-0.240	1.180
2020/01/31 09:37:34.2	106.350	0.170	-0.220	1.190
2020/01/31 09:37:34.3	106.340	0.170	-0.200	1.190
2020/01/31 09:37:34.4	106.340	0.170	-0.180	1.180
2020/01/31 09:37:34.5	106.330	0.160	-0.160	1.180
2020/01/31 09:37:34.6	106.320	0.160	-0.140	1.170
2020/01/31 09:37:34.7	106.320	0.160	-0.130	1.170
2020/01/31 09:37:34.8	106.310	0.160	-0.120	1.160
2020/01/31 09:37:34.9	106.300	0.160	-0.110	1.150
2020/01/31 09:37:35.0	106.290	0.160	-0.110	1.150
2020/01/31 09:37:35.1	106.280	0.160	-0.110	1.140
2020/01/31 09:37:35.2	106.270	0.160	-0.110	1.130
2020/01/31 09:37:35.3	106.260	0.160	-0.120	1.120
2020/01/31 09:37:35.4	106.250	0.160	-0.130	1.110
2020/01/31 09:37:35.5	106.240	0.170	-0.140	1.100
2020/01/31 09:37:35.6	106.230	0.170	-0.160	1.090
2020/01/31 09:37:35.7	106.220	0.170	-0.180	1.080
2020/01/31 09:37:35.8	106.210	0.180	-0.200	1.070
2020/01/31 09:37:35.9	106.200	0.180	-0.230	1.060
2020/01/31 09:37:36.0	106.190	0.190	-0.260	1.040
2020/01/31 09:37:36.1	106.180	0.190	-0.280	1.030
2020/01/31 09:37:36.2	106.170	0.200	-0.310	1.020
2020/01/31 09:37:36.3	106.160	0.200	-0.340	1.000
2020/01/31 09:37:36.4	106.160	0.210	-0.370	0.980
2020/01/31 09:37:36.5	106.150	0.210	-0.400	0.960
2020/01/31 09:37:36.6	106.150	0.220	-0.430	0.940
2020/01/31 09:37:36.7	106.140	0.220	-0.460	0.920
2020/01/31 09:37:36.8	106.140	0.230	-0.490	0.900
2020/01/31 09:37:36.9	106.140	0.230	-0.510	0.880
2020/01/31 09:37:37.0	106.140	0.230	-0.540	0.850
2020/01/31 09:37:37.1	106.140	0.240	-0.560	0.830
2020/01/31 09:37:37.2	106.140	0.240	-0.580	0.800
2020/01/31 09:37:37.3	106.150	0.240	-0.590	0.770
2020/01/31 09:37:37.4	106.150	0.240	-0.610	0.740
2020/01/31 09:37:37.5	106.150	0.240	-0.620	0.700
2020/01/31 09:37:37.6	106.160	0.230	-0.620	0.670
2020/01/31 09:37:37.7	106.170	0.230	-0.620	0.640
2020/01/31 09:37:37.8	106.170	0.230	-0.620	0.600
2020/01/31 09:37:37.9	106.180	0.220	-0.620	0.570
2020/01/31 09:37:38.0	106.190	0.210	-0.610	0.530
2020/01/31 09:37:38.1	106.200	0.210	-0.590	0.490
2020/01/31 09:37:38.2	106.210	0.200	-0.580	0.450
2020/01/31 09:37:38.3	106.220	0.190	-0.560	0.420
2020/01/31 09:37:38.4	106.240	0.180	-0.530	0.370
2020/01/31 09:37:38.5	106.250	0.170	-0.500	0.330
2020/01/31 09:37:38.6	106.260	0.160	-0.470	0.290
2020/01/31 09:37:38.7	106.270	0.150	-0.440	0.260
2020/01/31 09:37:38.8	106.280	0.140	-0.400	0.220
2020/01/31 09:37:38.9	106.290	0.120	-0.370	0.180
2020/01/31 09:37:39.0	106.300	0.110	-0.330	0.140
2020/01/31 09:37:39.1	106.310	0.100	-0.280	0.100
2020/01/31 09:37:39.2	106.320	0.080	-0.240	0.070
2020/01/31 09:37:39.3	106.330	0.070	-0.190	0.030
2020/01/31 09:37:39.4	106.320	0.050	-0.150	-0.000
2020/01/31 09:37:39.5	106.330	0.040	-0.100	-0.030
2020/01/31 09:37:39.6	106.340	0.020	-0.050	-0.060
2020/01/31 09:37:39.7	106.350	0.010	-0.000	-0.090
2020/01/31 09:37:39.8	106.360	-0.010	0.040	-0.110
2020/01/31 09:37:39.9	106.370	-0.020	0.090	-0.140
2020/01/31 09:37:40.0	106.380	-0.040	0.140	-0.160
2020/01/31 09:37:40.1	106.390	-0.050	0.190	-0.170
2020/01/31 09:37:40.2	106.400	-0.070	0.230	-0.180
2020/01/31 09:37:40.3	106.410	-0.080	0.280	-0.190
2020/01/31 09:37:40.4	106.410	-0.100	0.320	-0.200
2020/01/31 09:37:40.5	106.410	-0.120	0.370	-0.200
2020/01/31 09:37:40.6	106.420	-0.130	0.410	-0.200
2020/01/31 09:37:40.7	106.430	-0.150	0.440	-0.200
2020/01/31 09:37:40.8	106.430	-0.160	0.480	-0.190
2020/01/31 09:37:40.9	106.430	-0.180	0.510	-0.180
2020/01/31 09:37:41.0	106.440	-0.190	0.540	-0.170
2020/01/31 09:37:41.1	106.440	-0.210	0.560	-0.150
2020/01/31 09:37:41.2	106.440	-0.220	0.580	-0.130
2020/01/31 09:37:41.3	106.440	-0.240	0.600	-0.110
2020/01/31 09:37:41.4	106.430	-0.250	0.610	-0.080
2020/01/31 09:37:41.5	106.430	-0.270	0.610	-0.050
2020/01/31 09:37:41.6	106.420	-0.280	0.620	-0.020
2020/01/31 09:37:41.7	106.420	-0.290	0.620	0.010
2020/01/31 09:37:41.8	106.410	-0.310	0.610	0.050
2020/01/31 09:37:41.9	106.400	-0.320	0.600	0.080
2020/01/31 09:37:42.0	106.390	-0.330	0.580	0.120
2020/01/31 09:37:42.1	106.390	-0.340	0.560	0.150
2020/01/31 09:37:42.2	106.380	-0.360	0.530	0.190
2020/01/31 09:37:42.3	106.370	-0.370	0.500	0.230
2020/01/31 09:37:42.4	106.360	-0.380	0.470	0.260
2020/01/31 09:37:42.5	106.350	-0.380	0.430	0.300
2020/01/31 09:37:42.6	106.340	-0.390	0.380	0.330
2020/01/31 09:37:42.7	106.330	-0.400	0.330	0.360
2020/01/31 09:37:42.8	106.320	-0.410	0.280	0.400
2020/01/31 09:37:42.9	106.320	-0.410	0.230	0.420
2020/01/31 09:37:43.0	106.310	-0.420	0.170	0.450
2020/01/31 09:37:43.1	106.300	-0.420	0.110	0.480
2020/01/31 09:37:43.2	106.290	-0.420	0.050	0.500
2020/01/31 09:37:43.3	106.290	-0.420	-0.010	0.520
2020/01/31 09:37:43.4	106.300	-0.420	-0.070	0.540
2020/01/31 09:37:43.5	106.290	-0.420	-0.130	0.560
2020/01/31 09:37:43.6	106.290	-0.420	-0.190	0.580
2020/01/31 09:37:43.7	106.280	-0.410	-0.260	0.600
2020/01/31 09:37:43.8	106.280	-0.410	-0.320	0.610
2020/01/31 09:37:43.9	106.270	-0.400	-0.380	0.630
2020/01/31 09:37:44.0	106.270	-0.390	-0.440	0.650
2020/01/31 09:37:44.1	106.260	-0.380	-0.500	0.660
2020/01/31 09:37:44.2	106.260	-0.370	-0.560	0.680
2020/01/31 09:37:44.3	106.260	-0.360	-0.610	0.700
2020/01/31 09:37:44.4	106.250	-0.350	-0.660	0.720
2020/01/31 09:37:44.5	106.250	-0.330	-0.710	0.740
2020/01/31 09:37:44.6	106.240	-0.320	-0.760	0.770
2020/01/31 09:37:44.7	106.240	-0.310	-0.800	0.790
2020/01/31 09:37:44.8	106.230	-0.290	-0.830	0.820
2020/01/31 09:37:44.9	106.230	-0.270	-0.860	0.850
2020/01/31 09:37:45.0	106.220	-0.260	-0.890	0.880
2020/01/31 09:37:45.1	106.220	-0.240	-0.910	0.910
2020/01/31 09:37:45.2	106.210	-0.220	-0.930	0.940
2020/01/31 09:37:45.3	106.210	-0.200	-0.940	0.980
2020/01/31 09:37:45.4	106.200	-0.190	-0.950	1.010
2020/01/31 09:37:45.5	106.200	-0.170	-0.950	1.050
2020/01/31 09:37:45.6	106.190	-0.150	-0.950	1.090
2020/01/31 09:37:45.7	106.190	-0.130	-0.940	1.130
2020/01/31 09:37:45.8	106.190	-0.110	-0.930	1.170
2020/01/31 09:37:45.9	106.180	-0.100	-0.910	1.210
2020/01/31 09:37:46.0	106.180	-0.080	-0.890	1.250
2020/01/31 09:37:46.1	106.180	-0.060	-0.870	1.280
2020/01/31 09:37:46.2	106.180	-0.040	-0.840	1.320
2020/01/31 09:37:46.3	106.180	-0.020	-0.800	1.360
2020/01/31 09:37:46.4	106.190	-0.010	-0.770	1.390
2020/01/31 09:37:46.5	106.190	0.010	-0.730	1.420
2020/01/31 09:37:46.6	106.200	0.030	-0.680	1.450
2020/01/31 09:37:46.7	106.200	0.040	-0.640	1.480
2020/01/31 09:37:46.8	106.200	0.060	-0.590	1.500
2020/01/31 09:37:46.9	106.210	0.070	-0.540	1.520
2020/01/31 09:37:47.0	106.210	0.090	-0.490	1.530
2020/01/31 09:37:47.1	106.210	0.100	-0.430	1.540
2020/01/31 09:37:47.2	106.220	0.120	-0.380	1.550
2020/01/31 09:37:47.3	106.220	0.130	-0.320	1.550
2020/01/31 09:37:47.4	106.240	0.150	-0.270	1.540
2020/01/31 09:37:47.5	106.240	0.160	-0.210	1.530
2020/01/31 09:37:47.6	106.240	0.180	-0.160	1.520
2020/01/31 09:37:47.7	106.250	0.190	-0.100	1.500
2020/01/31 09:37:47.8	106.250	0.200	-0.050	1.480
2020/01/31 09:37:47.9	106.250	0.220	0.000	1.450
2020/01/31 09:37:48.0	106.260	0.230	0.050	1.420
2020/01/31 09:37:48.1	106.260	0.250	0.100	1.390
2020/01/31 09:37:48.2	106.260	0.260	0.150	1.350
2020/01/31 09:37:48.3	106.260	0.280	0.190	1.310
2020/01/31 09:37:48.4	106.280	0.290	0.230	1.260
2020/01/31 09:37:48.5	106.280	0.310	0.270	1.210
2020/01/31 09:37:48.6	106.270	0.320	0.300	1.170
2020/01/31 09:37:48.7	106.270	0.340	0.330	1.120
2020/01/31 09:37:48.8	106.260	0.350	0.350	1.070
2020/01/31 09:37:48.9	106.260	0.370	0.370	1.010
2020/01/31 09:37:49.0	106.250	0.380	0.390	0.960
2020/01/31 09:37:49.1	106.240	0.400	0.400	0.910
2020/01/31 09:37:49.2	106.230	0.420	0.410	0.850
2020/01/31 09:37:49.3	106.220	0.430	0.410	0.800
2020/01/31 09:37:49.4	106.220	0.450	0.410	0.750
2020/01/31 09:37:49.5	106.210	0.460	0.400	0.690
2020/01/31 09:37:49.6	106.190	0.480	0.390	0.640
2020/01/31 09:37:49.7	106.180	0.500	0.370	0.590
2020/01/31 09:37:49.8	106.160	0.510	0.350	0.530
2020/01/31 09:37:49.9	106.150	0.520	0.320	0.480
2020/01/31 09:37:50.0	106.130	0.540	0.290	0.430
2020/01/31 09:37:50.1	106.120	0.550	0.260	0.380
2020/01/31 09:37:50.2	106.100	0.560	0.230	0.330
2020/01/31 09:37:50.3	106.090	0.570	0.190	0.280
2020/01/31 09:37:50.4	106.070	0.570	0.140	0.230
2020/01/31 09:37:50.5	106.060	0.580	0.100	0.180
2020/01/31 09:37:50.6	106.040	0.580	0.060	0.140
2020/01/31 09:37:50.7	106.030	0.590	0.010	0.090
2020/01/31 09:37:50.8	106.020	0.590	-0.040	0.050
2020/01/31 09:37:50.9	106.010	0.580	-0.080	0.010
2020/01/31 09:37:51.0	106.000	0.580	-0.130	-0.030
2020/01/31 09:37:51.1	106.000	0.570	-0.170	-0.070
2020/01/31 09:37:51.2	105.990	0.570	-0.220	-0.110
2020/01/31 09:37:51.3	105.990	0.560	-0.260	-0.150
2020/01/31 09:37:51.4	105.960	0.540	-0.300	-0.180
2020/01/31 09:37:51.5	105.960	0.530	-0.340	-0.220
2020/01/31 09:37:51.6	105.960	0.510	-0.380	-0.250
2020/01/31 09:37:51.7	105.960	0.490	-0.410	-0.270
2020/01/31 09:37:51.8	105.960	0.470	-0.440	-0.300
2020/01/31 09:37:51.9	105.950	0.450	-0.470	-0.320
2020/01/31 09:37:52.0	105.950	0.420	-0.490	-0.340
2020/01/31 09:37:52.1	105.950	0.400	-0.510	-0.360
2020/01/31 09:37:52.2	105.950	0.370	-0.530	-0.370
2020/01/31 09:37:52.3	105.950	0.340	-0.540	-0.380
2020/01/31 09:37:52.4	105.940	0.310	-0.540	-0.400
2020/01/31 09:37:52.5	105.940	0.270	-0.550	-0.400
2020/01/31 09:37:52.6	105.940	0.240	-0.540	-0.400
2020/01/31 09:37:52.7	105.940	0.200	-0.540	-0.400
2020/01/31 09:37:52.8	105.940	0.170	-0.530	-0.390
2020/01/31 09:37:52.9	105.940	0.130	-0.520	-0.380
2020/01/31 09:37:53.0	105.940	0.090	-0.500	-0.370
2020/01/31 09:37:53.1	105.940	0.050	-0.480	-0.350
2020/01/31 09:37:53.2	105.940	0.010	-0.460	-0.330
2020/01/31 09:37:53.3	105.940	-0.030	-0.440	-0.300
2020/01/31 09:37:53.4	105.960	-0.070	-0.410	-0.270
2020/01/31 09:37:53.5	105.960	-0.100	-0.380	-0.240
2020/01/31 09:37:53.6	105.960	-0.140	-0.350	-0.200
2020/01/31 09:37:53.7	105.970	-0.180	-0.310	-0.160
2020/01/31 09:37:53.8	105.970	-0.220	-0.280	-0.120
2020/01/31 09:37:53.9	105.970	-0.260	-0.250	-0.070
2020/01/31 09:37:54.0	105.970	-0.290	-0.210	-0.020
2020/01/31 09:37:54.1	105.980	-0.330	-0.180	0.030
2020/01/31 09:37:54.2	105.980	-0.360	-0.150	0.080
2020/01/31 09:37:54.3	105.980	-0.390	-0.110	0.140
2020/01/31 09:37:54.4	105.980	-0.420	-0.090	0.200
2020/01/31 09:37:54.5	105.980	-0.450	-0.060	0.260
2020/01/31 09:37:54.6	105.980	-0.480	-0.030	0.330
2020/01/31 09:37:54.7	105.990	-0.510	-0.010	0.390
2020/01/31 09:37:54.8	105.990	-0.530	0.010	0.460
2020/01/31 09:37:54.9	105.990	-0.550	0.030	0.530
2020/01/31 09:37:55.0	105.990	-0.570	0.040	0.600
2020/01/31 09:37:55.1	105.990	-0.590	0.060	0.670
2020/01/31 09:37:55.2	106.000	-0.600	0.070	0.740
2020/01/31 09:37:55.3	106.000	-0.620	0.070	0.810
2020/01/31 09:37:55.4	105.980	-0.630	0.080	0.880
2020/01/31 09:37:55.5	105.980	-0.640	0.080	0.950
2020/01/31 09:37:55.6	105.980	-0.640	0.070	1.020
2020/01/31 09:37:55.7	105.980	-0.650	0.070	1.090
2020/01/31 09:37:55.8	105.980	-0.650	0.060	1.160
2020/01/31 09:37:55.9	105.970	-0.650	0.050	1.230
2020/01/31 09:37:56.0	105.970	-0.650	0.030	1.300
2020/01/31 09:37:56.1	105.960	-0.650	0.020	1.370
2020/01/31 09:37:56.2	105.960	-0.650	0.010	1.430
2020/01/31 09:37:56.3	105.950	-0.640	-0.010	1.500
2020/01/31 09:37:56.4	105.920	-0.640	-0.030	1.560
2020/01/31 09:37:56.5	105.910	-0.630	-0.040	1.620
2020/01/31 09:37:56.6	105.900	-0.620	-0.060	1.680
2020/01/31 09:37:56.7	105.890	-0.610	-0.080	1.730
2020/01/31 09:37:56.8	105.870	-0.600	-0.090	1.790
2020/01/31 09:37:56.9	105.860	-0.590	-0.110	1.840
2020/01/31 09:37:57.0	105.840	-0.570	-0.120	1.880
2020/01/31 09:37:57.1	105.820	-0.560	-0.140	1.930
2020/01/31 09:37:57.2	105.800	-0.540	-0.150	1.970
2020/01/31 09:37:57.3	105.770	-0.520	-0.150	2.010
2020/01/31 09:37:57.4	105.760	-0.500	-0.160	2.040
2020/01/31 09:37:57.5	105.740	-0.480	-0.160	2.070
2020/01/31 09:37:57.6	105.710	-0.460	-0.170	2.100
2020/01/31 09:37:57.7	105.680	-0.440	-0.170	2.130
2020/01/31 09:37:57.8	105.650	-0.420	-0.170	2.150
2020/01/31 09:37:57.9	105.630	-0.390	-0.170	2.160
2020/01/31 09:37:58.0	105.600	-0.370	-0.160	2.170
2020/01/31 09:37:58.1	105.570	-0.340	-0.160	2.180
2020/01/31 09:37:58.2	105.550	-0.310	-0.150	2.180
2020/01/31 09:37:58.3	105.520	-0.280	-0.140	2.180
2020/01/31 09:37:58.4	105.500	-0.250	-0.140	2.170
2020/01/31 09:37:58.5	105.470	-0.220	-0.130	2.150
2020/01/31 09:37:58.6	105.450	-0.190	-0.120	2.130
2020/01/31 09:37:58.7	105.430	-0.160	-0.110	2.110
2020/01/31 09:37:58.8	105.420	-0.120	-0.100	2.080
2020/01/31 09:37:58.9	105.400	-0.090	-0.100	2.050
2020/01/31 09:37:59.0	105.390	-0.050	-0.090	2.010
2020/01/31 09:37:59.1	105.380	-0.010	-0.080	1.970
2020/01/31 09:37:59.2	105.370	0.020	-0.080	1.920
2020/01/31 09:37:59.3	105.370	0.060	-0.070	1.870
2020/01/31 09:37:59.4	105.370	0.100	-0.070	1.810
2020/01/31 09:37:59.5	105.370	0.140	-0.070	1.760
2020/01/31 09:37:59.6	105.370	0.180	-0.080	1.690
2020/01/31 09:37:59.7	105.380	0.210	-0.080	1.630
2020/01/31 09:37:59.8	105.390	0.250	-0.090	1.560
2020/01/31 09:37:59.9	105.390	0.290	-0.100	1.490
2020/01/31 09:38:00.0	105.410	0.320	-0.110	1.410
2020/01/31 09:38:00.1	105.420	0.360	-0.120	1.330
2020/01/31 09:38:00.2	105.430	0.390	-0.130	1.250
2020/01/31 09:38:00.3	105.450	0.420	-0.150	1.170
2020/01/31 09:38:00.4	105.460	0.450	-0.170	1.090
2020/01/31 09:38:00.5	105.480	0.480	-0.190	1.000
2020/01/31 09:38:00.6	105.490	0.500	-0.210	0.920
2020/01/31 09:38:00.7	105.510	0.530	-0.230	0.830
2020/01/31 09:38:00.8	105.530	0.550	-0.250	0.750
2020/01/31 09:38:00.9	105.550	0.570	-0.270	0.660
2020/01/31 09:38:01.0	105.570	0.590	-0.300	0.580
2020/01/31 09:38:01.1	105.580	0.600	-0.320	0.500
2020/01/31 09:38:01.2	105.600	0.610	-0.340	0.420
2020/01/31 09:38:01.3	105.610	0.620	-0.370	0.340
2020/01/31 09:38:01.4	105.610	0.630	-0.390	0.260
2020/01/31 09:38:01.5	105.620	0.630	-0.420	0.180
2020/01/31 09:38:01.6	105.620	0.640	-0.440	0.110
2020/01/31 09:38:01.7	105.630	0.630	-0.460	0.050
2020/01/31 09:38:01.8	105.630	0.630	-0.470	-0.020
2020/01/31 09:38:01.9	105.630	0.620	-0.490	-0.070
2020/01/31 09:38:02.0	105.620	0.610	-0.500	-0.130
2020/01/31 09:38:02.1	105.620	0.600	-0.510	-0.180
2020/01/31 09:38:02.2	105.610	0.580	-0.520	-0.220
2020/01/31 09:38:02.3	105.590	0.570	-0.530	-0.260
2020/01/31 09:38:02.4	105.580	0.550	-0.530	-0.290
2020/01/31 09:38:02.5	105.560	0.530	-0.530	-0.320
2020/01/31 09:38:02.6	105.540	0.500	-0.520	-0.340
2020/01/31 09:38:02.7	105.510	0.480	-0.510	-0.360
2020/01/31 09:38:02.8	105.490	0.450	-0.500	-0.370
2020/01/31 09:38:02.9	105.460	0.420	-0.490	-0.370
2020/01/31 09:38:03.0	105.430	0.390	-0.480	-0.370
2020/01/31 09:38:03.1	105.400	0.360	-0.460	-0.360
2020/01/31 09:38:03.2	105.360	0.330	-0.440	-0.340
2020/01/31 09:38:03.3	105.330	0.290	-0.410	-0.330
2020/01/31 09:38:03.4	105.300	0.260	-0.390	-0.300
2020/01/31 09:38:03.5	105.260	0.230	-0.360	-0.270
2020/01/31 09:38:03.6	105.230	0.190	-0.330	-0.240
2020/01/31 09:38:03.7	105.190	0.160	-0.300	-0.200
2020/01/31 09:38:03.8	105.150	0.130	-0.270	-0.160
2020/01/31 09:38:03.9	105.110	0.100	-0.240	-0.120
2020/01/31 09:38:04.0	105.070	0.060	-0.210	-0.070
2020/01/31 09:38:04.1	105.030	0.030	-0.180	-0.020
2020/01/31 09:38:04.2	104.990	0.000	-0.150	0.030
2020/01/31 09:38:04.3	104.950	-0.020	-0.120	0.080
2020/01/31 09:38:04.4	104.910	-0.050	-0.100	0.140
2020/01/31 09:38:04.5	104.870	-0.080	-0.070	0.190
2020/01/31 09:38:04.6	104.830	-0.100	-0.040	0.250
2020/01/31 09:38:04.7	104.790	-0.120	-0.020	0.300
2020/01/31 09:38:04.8	104.760	-0.140	-0.000	0.360
2020/01/31 09:38:04.9	104.720	-0.160	0.020	0.410
2020/01/31 09:38:05.0	104.680	-0.170	0.030	0.460
2020/01/31 09:38:05.1	104.650	-0.190	0.050	0.510
2020/01/31 09:38:05.2	104.610	-0.200	0.060	0.560
2020/01/31 09:38:05.3	104.580	-0.210	0.060	0.600
2020/01/31 09:38:05.4	104.530	-0.220	0.070	0.650
2020/01/31 09:38:05.5	104.500	-0.220	0.070	0.690
2020/01/31 09:38:05.6	104.470	-0.230	0.070	0.720
2020/01/31 09:38:05.7	104.440	-0.230	0.070	0.760
2020/01/31 09:38:05.8	104.420	-0.230	0.060	0.790
2020/01/31 09:38:05.9	104.400	-0.230	0.060	0.820
2020/01/31 09:38:06.0	104.380	-0.230	0.050	0.850
2020/01/31 09:38:06.1	104.360	-0.220	0.040	0.870
2020/01/31 09:38:06.2	104.350	-0.220	0.030	0.890
2020/01/31 09:38:06.3	104.330	-0.210	0.020	0.910
2020/01/31 09:38:06.4	104.320	-0.210	0.000	0.920
2020/01/31 09:38:06.5	104.310	-0.200	-0.010	0.940
2020/01/31 09:38:06.6	104.310	-0.200	-0.020	0.950
2020/01/31 09:38:06.7	104.310	-0.190	-0.030	0.960
2020/01/31 09:38:06.8	104.310	-0.180	-0.040	0.960
2020/01/31 09:38:06.9	104.320	-0.180	-0.050	0.970
2020/01/31 09:38:07.0	104.330	-0.170	-0.050	0.970
2020/01/31 09:38:07.1	104.340	-0.170	-0.060	0.980
2020/01/31 09:38:07.2	104.350	-0.170	-0.060	0.980
2020/01/31 09:38:07.3	104.360	-0.160	-0.060	0.980
2020/01/31 09:38:07.4	104.380	-0.160	-0.060	0.980
2020/01/31 09:38:07.5	104.390	-0.160	-0.050	0.980
2020/01/31 09:38:07.6	104.410	-0.160	-0.040	0.980
2020/01/31 09:38:07.7	104.440	-0.170	-0.030	0.980
2020/01/31 09:38:07.8	104.460	-0.170	-0.020	0.970
2020/01/31 09:38:07.9	104.480	-0.180	-0.000	0.970
2020/01/31 09:38:08.0	104.510	-0.190	0.010	0.960
2020/01/31 09:38:08.1	104.530	-0.190	0.030	0.960
2020/01/31 09:38:08.2	104.560	-0.200	0.050	0.950
2020/01/31 09:38:08.3	104.580	-0.220	0.070	0.950
2020/01/31 09:38:08.4	104.600	-0.230	0.090	0.940
2020/01/31 09:38:08.5	104.630	-0.240	0.120	0.930
2020/01/31 09:38:08.6	104.660	-0.250	0.140	0.930
2020/01/31 09:38:08.7	104.680	-0.270	0.160	0.920
2020/01/31 09:38:08.8	104.710	-0.280	0.170	0.910
2020/01/31 09:38:08.9	104.730	-0.300	0.190	0.900
2020/01/31 09:38:09.0	104.760	-0.310	0.210	0.900
2020/01/31 09:38:09.1	104.780	-0.320	0.220	0.890
2020/01/31 09:38:09.2	104.810	-0.330	0.230	0.880
2020/01/31 09:38:09.3	104.830	-0.350	0.240	0.870
2020/01/31 09:38:09.4	104.850	-0.350	0.240	0.860
2020/01/31 09:38:09.5	104.870	-0.360	0.240	0.850
2020/01/31 09:38:09.6	104.890	-0.370	0.230	0.840
2020/01/31 09:38:09.7	104.910	-0.370	0.230	0.840
2020/01/31 09:38:09.8	104.930	-0.380	0.210	0.830
2020/01/31 09:38:09.9	104.940	-0.380	0.200	0.820
2020/01/31 09:38:10.0	104.960	-0.370	0.180	0.810
2020/01/31 09:38:10.1	104.970	-0.370	0.150	0.810
2020/01/31 09:38:10.2	104.990	-0.360	0.120	0.800
2020/01/31 09:38:10.3	105.000	-0.350	0.090	0.790
2020/01/31 09:38:10.4	105.000	-0.340	0.060	0.780
2020/01/31 09:38:10.5	105.000	-0.320	0.020	0.780
2020/01/31 09:38:10.6	105.010	-0.300	-0.020	0.780
2020/01/31 09:38:10.7	105.010	-0.280	-0.070	0.780
2020/01/31 09:38:10.8	105.010	-0.260	-0.110	0.780
2020/01/31 09:38:10.9	105.010	-0.240	-0.160	0.780
2020/01/31 09:38:11.0	105.000	-0.210	-0.210	0.790
2020/01/31 09:38:11.1	104.990	-0.180	-0.260	0.790
2020/01/31 09:38:11.2	104.990	-0.150	-0.310	0.800
2020/01/31 09:38:11.3	104.980	-0.120	-0.360	0.810
2020/01/31 09:38:11.4	104.950	-0.090	-0.400	0.820
2020/01/31 09:38:11.5	104.930	-0.050	-0.450	0.840
2020/01/31 09:38:11.6	104.920	-0.020	-0.500	0.860
2020/01/31 09:38:11.7	104.900	0.020	-0.550	0.880
2020/01/31 09:38:11.8	104.880	0.060	-0.590	0.900
2020/01/31 09:38:11.9	104.860	0.090	-0.630	0.920
2020/01/31 09:38:12.0	104.830	0.130	-0.670	0.950
2020/01/31 09:38:12.1	104.810	0.160	-0.710	0.980
2020/01/31 09:38:12.2	104.780	0.200	-0.750	1.010
2020/01/31 09:38:12.3	104.750	0.230	-0.780	1.040
2020/01/31 09:38:12.4	104.710	0.270	-0.810	1.080
2020/01/31 09:38:12.5	104.680	0.300	-0.830	1.110
2020/01/31 09:38:12.6	104.650	0.330	-0.860	1.150
2020/01/31 09:38:12.7	104.620	0.360	-0.880	1.190
2020/01/31 09:38:12.8	104.590	0.390	-0.890	1.220
2020/01/31 09:38:12.9	104.560	0.410	-0.900	1.260
2020/01/31 09:38:13.0	104.530	0.430	-0.910	1.290
2020/01/31 09:38:13.1	104.500	0.460	-0.910	1.320
2020/01/31 09:38:13.2	104.470	0.480	-0.910	1.360
2020/01/31 09:38:13.3	104.450	0.490	-0.910	1.380
2020/01/31 09:38:13.4	104.420	0.510	-0.900	1.410
2020/01/31 09:38:13.5	104.390	0.520	-0.880	1.430
2020/01/31 09:38:13.6	104.370	0.530	-0.870	1.450
2020/01/31 09:38:13.7	104.350	0.540	-0.840	1.460
2020/01/31 09:38:13.8	104.330	0.540	-0.820	1.460
2020/01/31 09:38:13.9	104.320	0.540	-0.790	1.460
2020/01/31 09:38:14.0	104.300	0.540	-0.760	1.460
2020/01/31 09:38:14.1	104.290	0.540	-0.720	1.450
2020/01/31 09:38:14.2	104.280	0.540	-0.680	1.430
2020/01/31 09:38:14.3	104.280	0.530	-0.640	1.410
2020/01/31 09:38:14.4	104.280	0.520	-0.590	1.380
2020/01/31 09:38:14.5	104.280	0.510	-0.550	1.340
2020/01/31 09:38:14.6	104.280	0.500	-0.500	1.310
2020/01/31 09:38:14.7	104.280	0.490	-0.450	1.260
2020/01/31 09:38:14.8	104.280	0.470	-0.400	1.210
2020/01/31 09:38:14.9	104.290	0.450	-0.350	1.160
2020/01/31 09:38:15.0	104.290	0.440	-0.300	1.100
2020/01/31 09:38:15.1	104.300	0.420	-0.250	1.040
2020/01/31 09:38:15.2	104.310	0.400	-0.200	0.980
2020/01/31 09:38:15.3	104.320	0.370	-0.150	0.910
2020/01/31 09:38:15.4	104.340	0.350	-0.110	0.840
2020/01/31 09:38:15.5	104.350	0.330	-0.060	0.760
2020/01/31 09:38:15.6	104.370	0.310	-0.020	0.690
2020/01/31 09:38:15.7	104.380	0.280	0.020	0.610
2020/01/31 09:38:15.8	104.400	0.260	0.060	0.530
2020/01/31 09:38:15.9	104.420	0.230	0.100	0.460
2020/01/31 09:38:16.0	104.440	0.210	0.140	0.380
2020/01/31 09:38:16.1	104.470	0.180	0.170	0.300
2020/01/31 09:38:16.2	104.490	0.160	0.200	0.220
2020/01/31 09:38:16.3	104.510	0.130	0.230	0.140
2020/01/31 09:38:16.4	104.530	0.110	0.260	0.070
2020/01/31 09:38:16.5	104.560	0.080	0.280	-0.010
2020/01/31 09:38:16.6	104.590	0.060	0.310	-0.080
2020/01/31 09:38:16.7	104.620	0.030	0.330	-0.150
2020/01/31 09:38:16.8	104.650	0.000	0.350	-0.230
2020/01/31 09:38:16.9	104.690	-0.020	0.370	-0.290
2020/01/31 09:38:17.0	104.730	-0.050	0.390	-0.360
2020/01/31 09:38:17.1	104.760	-0.070	0.410	-0.420
2020/01/31 09:38:17.2	104.800	-0.100	0.430	-0.480
2020/01/31 09:38:17.3	104.850	-0.120	0.440	-0.540
2020/01/31 09:38:17.4	104.880	-0.140	0.450	-0.590
2020/01/31 09:38:17.5	104.920	-0.170	0.460	-0.640
2020/01/31 09:38:17.6	104.960	-0.190	0.480	-0.690
2020/01/31 09:38:17.7	105.000	-0.210	0.490	-0.730
2020/01/31 09:38:17.8	105.050	-0.240	0.490	-0.760
2020/01/31 09:38:17.9	105.090	-0.260	0.500	-0.800
2020/01/31 09:38:18.0	105.130	-0.280	0.500	-0.830
2020/01/31 09:38:18.1	105.170	-0.300	0.510	-0.850
2020/01/31 09:38:18.2	105.210	-0.320	0.510	-0.870
2020/01/31 09:38:18.3	105.250	-0.340	0.510	-0.880
2020/01/31 09:38:18.4	105.320	-0.360	0.510	-0.890
2020/01/31 09:38:18.5	105.350	-0.380	0.500	-0.890
2020/01/31 09:38:18.6	105.390	-0.400	0.490	-0.890
2020/01/31 09:38:18.7	105.420	-0.420	0.480	-0.880
2020/01/31 09:38:18.8	105.450	-0.430	0.470	-0.870
2020/01/31 09:38:18.9	105.470	-0.450	0.460	-0.860
2020/01/31 09:38:19.0	105.500	-0.470	0.440	-0.830
2020/01/31 09:38:19.1	105.520	-0.480	0.420	-0.810
2020/01/31 09:38:19.2	105.540	-0.490	0.400	-0.770
2020/01/31 09:38:19.3	105.550	-0.510	0.370	-0.740
2020/01/31 09:38:19.4	105.570	-0.520	0.350	-0.690
2020/01/31 09:38:19.5	105.580	-0.530	0.320	-0.640
2020/01/31 09:38:19.6	105.580	-0.540	0.280	-0.590
2020/01/31 09:38:19.7	105.590	-0.550	0.250	-0.540
2020/01/31 09:38:19.8	105.590	-0.560	0.210	-0.480
2020/01/31 09:38:19.9	105.580	-0.560	0.180	-0.410
2020/01/31 09:38:20.0	105.580	-0.570	0.130	-0.350
2020/01/31 09:38:20.1	105.570	-0.570	0.090	-0.280
2020/01/31 09:38:20.2	105.560	-0.570	0.040	-0.200
2020/01/31 09:38:20.3	105.550	-0.570	-0.000	-0.130
2020/01/31 09:38:20.4	105.550	-0.570	-0.050	-0.050
2020/01/31 09:38:20.5	105.530	-0.570	-0.110	0.030
2020/01/31 09:38:20.6	105.520	-0.560	-0.160	0.110
2020/01/31 09:38:20.7	105.500	-0.550	-0.210	0.200
2020/01/31 09:38:20.8	105.490	-0.540	-0.270	0.280
2020/01/31 09:38:20.9	105.470	-0.530	-0.330	0.370
2020/01/31 09:38:21.0	105.460	-0.520	-0.390	0.450
2020/01/31 09:38:21.1	105.440	-0.500	-0.450	0.540
2020/01/31 09:38:21.2	105.430	-0.480	-0.500	0.620
2020/01/31 09:38:21.3	105.420	-0.460	-0.560	0.710
2020/01/31 09:38:21.4	105.390	-0.440	-0.620	0.790
2020/01/31 09:38:21.5	105.380	-0.410	-0.680	0.870
2020/01/31 09:38:21.6	105.370	-0.390	-0.730	0.950
2020/01/31 09:38:21.7	105.360	-0.360	-0.790	1.030
2020/01/31 09:38:21.8	105.360	-0.330	-0.840	1.100
2020/01/31 09:38:21.9	105.350	-0.300	-0.890	1.180
2020/01/31 09:38:22.0	105.350	-0.260	-0.930	1.250
2020/01/31 09:38:22.1	105.350	-0.230	-0.980	1.320
2020/01/31 09:38:22.2	105.350	-0.190	-1.020	1.390
2020/01/31 09:38:22.3	105.350	-0.160	-1.050	1.460
2020/01/31 09:38:22.4	105.350	-0.120	-1.080	1.520
2020/01/31 09:38:22.5	105.350	-0.080	-1.110	1.580
2020/01/31 09:38:22.6	105.350	-0.040	-1.140	1.640
2020/01/31 09:38:22.7	105.360	-0.000	-1.160	1.690
2020/01/31 09:38:22.8	105.370	0.030	-1.170	1.750
2020/01/31 09:38:22.9	105.370	0.070	-1.180	1.800
2020/01/31 09:38:23.0	105.380	0.110	-1.190	1.850
2020/01/31 09:38:23.1	105.390	0.150	-1.190	1.900
2020/01/31 09:38:23.2	105.400	0.180	-1.190	1.940
2020/01/31 09:38:23.3	105.410	0.220	-1.180	1.980
2020/01/31 09:38:23.4	105.440	0.250	-1.170	2.020
2020/01/31 09:38:23.5	105.450	0.280	-1.150	2.060
2020/01/31 09:38:23.6	105.460	0.310	-1.130	2.090
2020/01/31 09:38:23.7	105.470	0.340	-1.100	2.120
2020/01/31 09:38:23.8	105.490	0.360	-1.060	2.140
2020/01/31 09:38:23.9	105.500	0.390	-1.020	2.160
2020/01/31 09:38:24.0	105.510	0.410	-0.980	2.180
2020/01/31 09:38:24.1	105.520	0.430	-0.930	2.190
2020/01/31 09:38:24.2	105.540	0.440	-0.880	2.200
2020/01/31 09:38:24.3	105.550	0.460	-0.820	2.200
2020/01/31 09:38:24.4	105.570	0.470	-0.760	2.200
2020/01/31 09:38:24.5	105.580	0.470	-0.690	2.190
2020/01/31 09:38:24.6	105.600	0.480	-0.620	2.180
2020/01/31 09:38:24.7	105.620	0.480	-0.550	2.160
2020/01/31 09:38:24.8	105.630	0.480	-0.480	2.140
2020/01/31 09:38:24.9	105.650	0.480	-0.400	2.110
2020/01/31 09:38:25.0	105.670	0.470	-0.320	2.070
2020/01/31 09:38:25.1	105.690	0.470	-0.230	2.040
2020/01/31 09:38:25.2	105.710	0.460	-0.150	1.990
2020/01/31 09:38:25.3	105.730	0.450	-0.060	1.940
2020/01/31 09:38:25.4	105.750	0.430	0.020	1.890
2020/01/31 09:38:25.5	105.770	0.420	0.110	1.830
2020/01/31 09:38:25.6	105.800	0.400	0.200	1.760
2020/01/31 09:38:25.7	105.820	0.380	0.280	1.700
2020/01/31 09:38:25.8	105.840	0.360	0.370	1.630
2020/01/31 09:38:25.9	105.860	0.340	0.450	1.550
2020/01/31 09:38:26.0	105.880	0.320	0.530	1.470
2020/01/31 09:38:26.1	105.900	0.300	0.610	1.390
2020/01/31 09:38:26.2	105.920	0.280	0.680	1.300
2020/01/31 09:38:26.3	105.940	0.250	0.750	1.210
2020/01/31 09:38:26.4	105.970	0.230	0.820	1.120
2020/01/31 09:38:26.5	105.990	0.210	0.880	1.020
2020/01/31 09:38:26.6	106.010	0.190	0.940	0.930
2020/01/31 09:38:26.7	106.030	0.170	0.990	0.830
2020/01/31 09:38:26.8	106.050	0.150	1.030	0.730
2020/01/31 09:38:26.9	106.060	0.130	1.070	0.630
2020/01/31 09:38:27.0	106.080	0.110	1.090	0.540
2020/01/31 09:38:27.1	106.100	0.090	1.120	0.440
2020/01/31 09:38:27.2	106.120	0.080	1.130	0.340
2020/01/31 09:38:27.3	106.140	0.060	1.130	0.240
2020/01/31 09:38:27.4	106.160	0.050	1.120	0.150
2020/01/31 09:38:27.5	106.180	0.040	1.110	0.050
2020/01/31 09:38:27.6	106.190	0.030	1.090	-0.040
2020/01/31 09:38:27.7	106.210	0.030	1.060	-0.120
2020/01/31 09:38:27.8	106.220	0.020	1.020	-0.210
2020/01/31 09:38:27.9	106.240	0.020	0.970	-0.290
2020/01/31 09:38:28.0	106.250	0.020	0.920	-0.370
2020/01/31 09:38:28.1	106.270	0.020	0.850	-0.440
2020/01/31 09:38:28.2	106.280	0.020	0.780	-0.510
2020/01/31 09:38:28.3	106.290	0.030	0.700	-0.570
2020/01/31 09:38:28.4	106.300	0.040	0.620	-0.630
2020/01/31 09:38:28.5	106.310	0.050	0.520	-0.690
2020/01/31 09:38:28.6	106.320	0.060	0.430	-0.740
2020/01/31 09:38:28.7	106.330	0.070	0.330	-0.790
2020/01/31 09:38:28.8	106.340	0.080	0.220	-0.830
2020/01/31 09:38:28.9	106.360	0.090	0.110	-0.870
2020/01/31 09:38:29.0	106.370	0.110	0.010	-0.900
2020/01/31 09:38:29.1	106.380	0.120	-0.100	-0.930
2020/01/31 09:38:29.2	106.390	0.130	-0.210	-0.960
2020/01/31 09:38:29.3	106.400	0.150	-0.320	-0.980
2020/01/31 09:38:29.4	106.420	0.160	-0.430	-1.000
2020/01/31 09:38:29.5	106.430	0.170	-0.530	-1.010
2020/01/31 09:38:29.6	106.440	0.190	-0.630	-1.020
2020/01/31 09:38:29.7	106.460	0.200	-0.730	-1.030
2020/01/31 09:38:29.8	106.470	0.210	-0.820	-1.030
2020/01/31 09:38:29.9	106.490	0.210	-0.900	-1.030
2020/01/31 09:38:30.0	106.500	0.220	-0.970	-1.020
2020/01/31 09:38:30.1	106.520	0.230	-1.040	-1.010
2020/01/31 09:38:30.2	106.530	0.230	-1.100	-0.990
2020/01/31 09:38:30.3	106.550	0.230	-1.150	-0.980
2020/01/31 09:38:30.4	106.560	0.220	-1.190	-0.950
2020/01/31 09:38:30.5	106.570	0.220	-1.230	-0.930
2020/01/31 09:38:30.6	106.580	0.210	-1.250	-0.890
2020/01/31 09:38:30.7	106.600	0.200	-1.270	-0.860
2020/01/31 09:38:30.8	106.610	0.190	-1.270	-0.820
2020/01/31 09:38:30.9	106.630	0.170	-1.270	-0.780
2020/01/31 09:38:31.0	106.640	0.150	-1.260	-0.730
2020/01/31 09:38:31.1	106.650	0.130	-1.240	-0.670
2020/01/31 09:38:31.2	106.660	0.110	-1.210	-0.620
2020/01/31 09:38:31.3	106.660	0.080	-1.170	-0.550
2020/01/31 09:38:31.4	106.680	0.050	-1.130	-0.490
2020/01/31 09:38:31.5	106.680	0.020	-1.090	-0.420
2020/01/31 09:38:31.6	106.690	-0.010	-1.030	-0.340
2020/01/31 09:38:31.7	106.690	-0.040	-0.980	-0.260
2020/01/31 09:38:31.8	106.690	-0.070	-0.920	-0.180
2020/01/31 09:38:31.9	106.690	-0.110	-0.850	-0.090
2020/01/31 09:38:32.0	106.690	-0.140	-0.790	-0.010
2020/01/31 09:38:32.1	106.690	-0.180	-0.720	0.090
2020/01/31 09:38:32.2	106.690	-0.220	-0.650	0.180
2020/01/31 09:38:32.3	106.690	-0.250	-0.580	0.270
2020/01/31 09:38:32.4	106.690	-0.290	-0.510	0.370
2020/01/31 09:38:32.5	106.690	-0.320	-0.450	0.470
2020/01/31 09:38:32.6	106.690	-0.350	-0.380	0.570
2020/01/31 09:38:32.7	106.690	-0.390	-0.320	0.660
2020/01/31 09:38:32.8	106.690	-0.410	-0.260	0.760
2020/01/31 09:38:32.9	106.690	-0.440	-0.210	0.860
2020/01/31 09:38:33.0	106.690	-0.470	-0.160	0.960
2020/01/31 09:38:33.1	106.700	-0.490	-0.110	1.060
2020/01/31 09:38:33.2	106.700	-0.510	-0.070	1.160
2020/01/31 09:38:33.3	106.710	-0.530	-0.030	1.250
2020/01/31 09:38:33.4	106.700	-0.540	0.010	1.350
2020/01/31 09:38:33.5	106.710	-0.550	0.040	1.440
2020/01/31 09:38:33.6	106.720	-0.560	0.060	1.530
2020/01/31 09:38:33.7	106.720	-0.570	0.080	1.620
2020/01/31 09:38:33.8	106.730	-0.570	0.100	1.700
2020/01/31 09:38:33.9	106.740	-0.570	0.110	1.780
2020/01/31 09:38:34.0	106.750	-0.570	0.120	1.860
2020/01/31 09:38:34.1	106.750	-0.560	0.130	1.930
2020/01/31 09:38:34.2	106.760	-0.560	0.130	2.000
2020/01/31 09:38:34.3	106.780	-0.550	0.130	2.060
2020/01/31 09:38:34.4	106.780	-0.530	0.140	2.120
2020/01/31 09:38:34.5	106.790	-0.520	0.140	2.170
2020/01/31 09:38:34.6	106.810	-0.500	0.130	2.220
2020/01/31 09:38:34.7	106.820	-0.490	0.130	2.270
2020/01/31 09:38:34.8	106.840	-0.470	0.130	2.310
2020/01/31 09:38:34.9	106.850	-0.450	0.130	2.340
2020/01/31 09:38:35.0	106.870	-0.430	0.130	2.370
2020/01/31 09:38:35.1	106.890	-0.400	0.130	2.390
2020/01/31 09:38:35.2	106.910	-0.380	0.130	2.410
2020/01/31 09:38:35.3	106.930	-0.360	0.130	2.420
2020/01/31 09:38:35.4	106.960	-0.330	0.130	2.430
2020/01/31 09:38:35.5	106.980	-0.310	0.140	2.430
2020/01/31 09:38:35.6	107.010	-0.290	0.150	2.420
2020/01/31 09:38:35.7	107.030	-0.270	0.160	2.420
2020/01/31 09:38:35.8	107.060	-0.240	0.170	2.400
2020/01/31 09:38:35.9	107.090	-0.220	0.180	2.380
2020/01/31 09:38:36.0	107.120	-0.200	0.190	2.360
2020/01/31 09:38:36.1	107.150	-0.180	0.210	2.340
2020/01/31 09:38:36.2	107.180	-0.160	0.220	2.310
2020/01/31 09:38:36.3	107.210	-0.140	0.240	2.270
2020/01/31 09:38:36.4	107.250	-0.130	0.250	2.240
2020/01/31 09:38:36.5	107.280	-0.110	0.270	2.200
2020/01/31 09:38:36.6	107.310	-0.090	0.280	2.150
2020/01/31 09:38:36.7	107.340	-0.080	0.300	2.110
2020/01/31 09:38:36.8	107.370	-0.060	0.310	2.060
2020/01/31 09:38:36.9	107.400	-0.050	0.320	2.010
2020/01/31 09:38:37.0	107.430	-0.030	0.330	1.960
2020/01/31 09:38:37.1	107.450	-0.020	0.330	1.910
2020/01/31 09:38:37.2	107.480	-0.010	0.340	1.860
2020/01/31 09:38:37.3	107.500	0.010	0.340	1.810
2020/01/31 09:38:37.4	107.540	0.020	0.340	1.750
2020/01/31 09:38:37.5	107.560	0.040	0.330	1.700
2020/01/31 09:38:37.6	107.580	0.050	0.330	1.640
2020/01/31 09:38:37.7	107.590	0.070	0.310	1.580
2020/01/31 09:38:37.8	107.610	0.080	0.300	1.530
2020/01/31 09:38:37.9	107.620	0.100	0.280	1.470
2020/01/31 09:38:38.0	107.630	0.110	0.260	1.410
2020/01/31 09:38:38.1	107.640	0.130	0.230	1.350
2020/01/31 09:38:38.2	107.640	0.150	0.200	1.290
2020/01/31 09:38:38.3	107.650	0.170	0.170	1.230
2020/01/31 09:38:38.4	107.650	0.190	0.130	1.170
2020/01/31 09:38:38.5	107.650	0.210	0.090	1.110
2020/01/31 09:38:38.6	107.650	0.230	0.050	1.040
2020/01/31 09:38:38.7	107.650	0.260	0.010	0.980
2020/01/31 09:38:38.8	107.650	0.280	-0.040	0.910
2020/01/31 09:38:38.9	107.640	0.300	-0.090	0.840
2020/01/31 09:38:39.0	107.640	0.330	-0.140	0.780
2020/01/31 09:38:39.1	107.630	0.350	-0.200	0.710
2020/01/31 09:38:39.2	107.620	0.380	-0.250	0.640
2020/01/31 09:38:39.3	107.620	0.400	-0.310	0.570
2020/01/31 09:38:39.4	107.610	0.420	-0.370	0.490
2020/01/31 09:38:39.5	107.600	0.450	-0.420	0.420
2020/01/31 09:38:39.6	107.590	0.470	-0.480	0.350
2020/01/31 09:38:39.7	107.580	0.500	-0.540	0.280
2020/01/31 09:38:39.8	107.570	0.520	-0.590	0.210
2020/01/31 09:38:39.9	107.560	0.540	-0.650	0.140
2020/01/31 09:38:40.0	107.550	0.560	-0.700	0.080
2020/01/31 09:38:40.1	107.550	0.580	-0.760	0.010
2020/01/31 09:38:40.2	107.540	0.600	-0.810	-0.050
2020/01/31 09:38:40.3	107.530	0.620	-0.860	-0.110
2020/01/31 09:38:40.4	107.520	0.630	-0.900	-0.170
2020/01/31 09:38:40.5	107.520	0.650	-0.940	-0.230
2020/01/31 09:38:40.6	107.520	0.660	-0.980	-0.280
2020/01/31 09:38:40.7	107.520	0.670	-1.020	-0.340
2020/01/31 09:38:40.8	107.520	0.680	-1.050	-0.380
2020/01/31 09:38:40.9	107.520	0.690	-1.080	-0.430
2020/01/31 09:38:41.0	107.530	0.690	-1.100	-0.470
2020/01/31 09:38:41.1	107.540	0.700	-1.110	-0.510
2020/01/31 09:38:41.2	107.550	0.700	-1.120	-0.550
2020/01/31 09:38:41.3	107.570	0.700	-1.130	-0.580
2020/01/31 09:38:41.4	107.560	0.700	-1.130	-0.610
2020/01/31 09:38:41.5	107.580	0.690	-1.120	-0.640
2020/01/31 09:38:41.6	107.600	0.690	-1.110	-0.670
2020/01/31 09:38:41.7	107.620	0.680	-1.090	-0.690
2020/01/31 09:38:41.8	107.650	0.670	-1.070	-0.710
2020/01/31 09:38:41.9	107.670	0.650	-1.040	-0.730
2020/01/31 09:38:42.0	107.700	0.640	-1.010	-0.750
2020/01/31 09:38:42.1	107.730	0.620	-0.970	-0.760
2020/01/31 09:38:42.2	107.760	0.610	-0.920	-0.770
2020/01/31 09:38:42.3	107.800	0.590	-0.880	-0.780
2020/01/31 09:38:42.4	107.830	0.560	-0.820	-0.780
2020/01/31 09:38:42.5	107.860	0.540	-0.770	-0.780
2020/01/31 09:38:42.6	107.900	0.520	-0.710	-0.780
2020/01/31 09:38:42.7	107.930	0.490	-0.640	-0.780
2020/01/31 09:38:42.8	107.970	0.460	-0.570	-0.770
2020/01/31 09:38:42.9	108.000	0.430	-0.500	-0.760
2020/01/31 09:38:43.0	108.040	0.400	-0.430	-0.740
2020/01/31 09:38:43.1	108.070	0.360	-0.360	-0.730
2020/01/31 09:38:43.2	108.110	0.320	-0.280	-0.700
2020/01/31 09:38:43.3	108.140	0.290	-0.200	-0.680
2020/01/31 09:38:43.4	108.180	0.240	-0.120	-0.650
2020/01/31 09:38:43.5	108.210	0.200	-0.040	-0.620
2020/01/31 09:38:43.6	108.240	0.160	0.040	-0.590
2020/01/31 09:38:43.7	108.270	0.110	0.120	-0.550
2020/01/31 09:38:43.8	108.300	0.060	0.200	-0.510
2020/01/31 09:38:43.9	108.320	0.020	0.280	-0.470
2020/01/31 09:38:44.0	108.350	-0.030	0.360	-0.420
2020/01/31 09:38:44.1	108.370	-0.090	0.440	-0.370
2020/01/31 09:38:44.2	108.390	-0.140	0.520	-0.320
2020/01/31 09:38:44.3	108.410	-0.190	0.600	-0.260
2020/01/31 09:38:44.4	108.430	-0.250	0.670	-0.200
2020/01/31 09:38:44.5	108.450	-0.310	0.740	-0.140
2020/01/31 09:38:44.6	108.470	-0.360	0.810	-0.080
2020/01/31 09:38:44.7	108.480	-0.420	0.880	-0.010
2020/01/31 09:38:44.8	108.490	-0.470	0.940	0.050
2020/01/31 09:38:44.9	108.510	-0.530	1.000	0.120
2020/01/31 09:38:45.0	108.520	-0.580	1.050	0.190
2020/01/31 09:38:45.1	108.540	-0.640	1.100	0.260
2020/01/31 09:38:45.2	108.550	-0.690	1.150	0.330
2020/01/31 09:38:45.3	108.560	-0.740	1.190	0.400
2020/01/31 09:38:45.4	108.560	-0.790	1.220	0.480
2020/01/31 09:38:45.5	108.570	-0.840	1.250	0.550
2020/01/31 09:38:45.6	108.590	-0.880	1.270	0.620
2020/01/31 09:38:45.7	108.600	-0.920	1.280	0.690
2020/01/31 09:38:45.8	108.620	-0.960	1.280	0.750
2020/01/31 09:38:45.9	108.640	-1.000	1.280	0.820
2020/01/31 09:38:46.0	108.660	-1.030	1.270	0.890
2020/01/31 09:38:46.1	108.680	-1.050	1.250	0.950
2020/01/31 09:38:46.2	108.700	-1.080	1.220	1.020
2020/01/31 09:38:46.3	108.720	-1.100	1.190	1.080
2020/01/31 09:38:46.4	108.750	-1.110	1.140	1.140
2020/01/31 09:38:46.5	108.770	-1.120	1.090	1.200
2020/01/31 09:38:46.6	108.790	-1.120	1.030	1.260
2020/01/31 09:38:46.7	108.820	-1.120	0.960	1.320
2020/01/31 09:38:46.8	108.840	-1.110	0.880	1.370
2020/01/31 09:38:46.9	108.860	-1.100	0.790	1.420
2020/01/31 09:38:47.0	108.890	-1.080	0.700	1.480
2020/01/31 09:38:47.1	108.910	-1.060	0.600	1.530
2020/01/31 09:38:47.2	108.930	-1.030	0.500	1.580
2020/01/31 09:38:47.3	108.960	-1.000	0.380	1.630
2020/01/31 09:38:47.4	108.990	-0.960	0.260	1.680
2020/01/31 09:38:47.5	109.010	-0.920	0.140	1.720
2020/01/31 09:38:47.6	109.030	-0.870	0.020	1.770
2020/01/31 09:38:47.7	109.050	-0.820	-0.110	1.810
2020/01/31 09:38:47.8	109.070	-0.770	-0.240	1.860
2020/01/31 09:38:47.9	109.090	-0.710	-0.370	1.900
2020/01/31 09:38:48.0	109.110	-0.650	-0.500	1.940
2020/01/31 09:38:48.1	109.120	-0.580	-0.630	1.980
2020/01/31 09:38:48.2	109.140	-0.510	-0.760	2.020
2020/01/31 09:38:48.3	109.150	-0.440	-0.880	2.060
2020/01/31 09:38:48.4	109.190	-0.370	-1.000	2.100
2020/01/31 09:38:48.5	109.200	-0.290	-1.120	2.130
2020/01/31 09:38:48.6	109.210	-0.220	-1.240	2.170
2020/01/31 09:38:48.7	109.220	-0.140	-1.340	2.190
2020/01/31 09:38:48.8	109.230	-0.070	-1.440	2.220
2020/01/31 09:38:48.9	109.240	0.010	-1.530	2.250
2020/01/31 09:38:49.0	109.250	0.080	-1.620	2.270
2020/01/31 09:38:49.1	109.270	0.160	-1.690	2.290
2020/01/31 09:38:49.2	109.280	0.230	-1.760	2.300
2020/01/31 09:38:49.3	109.290	0.300	-1.810	2.310
2020/01/31 09:38:49.4	109.310	0.370	-1.860	2.320
2020/01/31 09:38:49.5	109.330	0.430	-1.890	2.320
2020/01/31 09:38:49.6	109.340	0.500	-1.910	2.320
2020/01/31 09:38:49.7	109.350	0.550	-1.930	2.320
2020/01/31 09:38:49.8	109.370	0.610	-1.930	2.310
2020/01/31 09:38:49.9	109.380	0.660	-1.920	2.300
2020/01/31 09:38:50.0	109.400	0.710	-1.900	2.280
2020/01/31 09:38:50.1	109.420	0.750	-1.870	2.260
2020/01/31 09:38:50.2	109.430	0.790	-1.820	2.240
2020/01/31 09:38:50.3	109.450	0.830	-1.770	2.220
2020/01/31 09:38:50.4	109.480	0.860	-1.710	2.180
2020/01/31 09:38:50.5	109.500	0.890	-1.650	2.150
2020/01/31 09:38:50.6	109.520	0.910	-1.570	2.120
2020/01/31 09:38:50.7	109.530	0.920	-1.490	2.080
2020/01/31 09:38:50.8	109.550	0.930	-1.400	2.050
2020/01/31 09:38:50.9	109.570	0.940	-1.300	2.010
2020/01/31 09:38:51.0	109.580	0.940	-1.200	1.970
2020/01/31 09:38:51.1	109.600	0.940	-1.100	1.920
2020/01/31 09:38:51.2	109.610	0.930	-0.990	1.880
2020/01/31 09:38:51.3	109.620	0.920	-0.880	1.830
2020/01/31 09:38:51.4	109.630	0.910	-0.780	1.780
2020/01/31 09:38:51.5	109.640	0.890	-0.660	1.730
2020/01/31 09:38:51.6	109.650	0.870	-0.550	1.680
2020/01/31 09:38:51.7	109.660	0.840	-0.440	1.630
2020/01/31 09:38:51.8	109.680	0.810	-0.330	1.570
2020/01/31 09:38:51.9	109.680	0.780	-0.220	1.510
2020/01/31 09:38:52.0	109.690	0.750	-0.110	1.460
2020/01/31 09:38:52.1	109.700	0.710	-0.010	1.400
2020/01/31 09:38:52.2	109.710	0.670	0.090	1.330
2020/01/31 09:38:52.3	109.720	0.630	0.190	1.270
2020/01/31 09:38:52.4	109.720	0.590	0.280	1.200
2020/01/31 09:38:52.5	109.730	0.540	0.370	1.130
2020/01/31 09:38:52.6	109.740	0.500	0.460	1.070
2020/01/31 09:38:52.7	109.750	0.450	0.540	1.000
2020/01/31 09:38:52.8	109.750	0.410	0.610	0.930
2020/01/31 09:38:52.9	109.760	0.360	0.680	0.860
2020/01/31 09:38:53.0	109.770	0.310	0.750	0.790
2020/01/31 09:38:53.1	109.770	0.270	0.810	0.720
2020/01/31 09:38:53.2	109.780	0.220	0.860	0.660
2020/01/31 09:38:53.3	109.790	0.170	0.910	0.590
2020/01/31 09:38:53.4	109.760	0.130	0.950	0.520
2020/01/31 09:38:53.5	109.770	0.080	0.990	0.450
2020/01/31 09:38:53.6	109.770	0.040	1.020	0.390
2020/01/31 09:38:53.7	109.770	-0.000	1.040	0.330
2020/01/31 09:38:53.8	109.780	-0.040	1.060	0.270
2020/01/31 09:38:53.9	109.780	-0.080	1.070	0.210
2020/01/31 09:38:54.0	109.790	-0.120	1.080	0.150
2020/01/31 09:38:54.1	109.790	-0.150	1.080	0.090
2020/01/31 09:38:54.2	109.800	-0.190	1.080	0.040
2020/01/31 09:38:54.3	109.800	-0.220	1.070	-0.020
2020/01/31 09:38:54.4	109.800	-0.250	1.050	-0.080
2020/01/31 09:38:54.5	109.810	-0.280	1.030	-0.130
2020/01/31 09:38:54.6	109.810	-0.300	1.000	-0.180
2020/01/31 09:38:54.7	109.820	-0.320	0.970	-0.230
2020/01/31 09:38:54.8	109.830	-0.350	0.940	-0.280
2020/01/31 09:38:54.9	109.840	-0.360	0.900	-0.330
2020/01/31 09:38:55.0	109.850	-0.380	0.850	-0.380
2020/01/31 09:38:55.1	109.860	-0.390	0.800	-0.430
2020/01/31 09:38:55.2	109.880	-0.410	0.750	-0.480
2020/01/31 09:38:55.3	109.900	-0.420	0.690	-0.520
2020/01/31 09:38:55.4	109.910	-0.420	0.630	-0.570
2020/01/31 09:38:55.5	109.930	-0.430	0.570	-0.620
2020/01/31 09:38:55.6	109.950	-0.430	0.510	-0.670
2020/01/31 09:38:55.7	109.970	-0.440	0.440	-0.710
2020/01/31 09:38:55.8	110.000	-0.440	0.380	-0.750
2020/01/31 09:38:55.9	110.020	-0.440	0.310	-0.790
2020/01/31 09:38:56.0	110.050	-0.430	0.240	-0.830
2020/01/31 09:38:56.1	110.080	-0.430	0.170	-0.870
2020/01/31 09:38:56.2	110.110	-0.420	0.100	-0.900
2020/01/31 09:38:56.3	110.130	-0.420	0.030	-0.930
2020/01/31 09:38:56.4	110.160	-0.410	-0.040	-0.960
2020/01/31 09:38:56.5	110.190	-0.400	-0.100	-0.980
2020/01/31 09:38:56.6	110.220	-0.390	-0.170	-1.000
2020/01/31 09:38:56.7	110.250	-0.380	-0.240	-1.020
2020/01/31 09:38:56.8	110.280	-0.370	-0.300	-1.030
2020/01/31 09:38:56.9	110.310	-0.360	-0.360	-1.040
2020/01/31 09:38:57.0	110.340	-0.340	-0.430	-1.040
2020/01/31 09:38:57.1	110.360	-0.330	-0.480	-1.040
2020/01/31 09:38:57.2	110.390	-0.310	-0.540	-1.030
2020/01/31 09:38:57.3	110.420	-0.300	-0.590	-1.020
2020/01/31 09:38:57.4	110.450	-0.280	-0.640	-1.010
2020/01/31 09:38:57.5	110.470	-0.260	-0.690	-0.990
2020/01/31 09:38:57.6	110.500	-0.240	-0.730	-0.960
2020/01/31 09:38:57.7	110.520	-0.230	-0.770	-0.930
2020/01/31 09:38:57.8	110.540	-0.210	-0.810	-0.900
2020/01/31 09:38:57.9	110.570	-0.190	-0.840	-0.860
2020/01/31 09:38:58.0	110.590	-0.170	-0.870	-0.810
2020/01/31 09:38:58.1	110.610	-0.150	-0.890	-0.770
2020/01/31 09:38:58.2	110.630	-0.130	-0.910	-0.720
2020/01/31 09:38:58.3	110.640	-0.110	-0.930	-0.660
2020/01/31 09:38:58.4	110.670	-0.090	-0.940	-0.600
2020/01/31 09:38:58.5	110.680	-0.070	-0.950	-0.540
2020/01/31 09:38:58.6	110.700	-0.050	-0.950	-0.480
2020/01/31 09:38:58.7	110.710	-0.030	-0.950	-0.410
2020/01/31 09:38:58.8	110.730	-0.010	-0.950	-0.350
2020/01/31 09:38:58.9	110.740	0.010	-0.940	-0.280
2020/01/31 09:38:59.0	110.750	0.030	-0.930	-0.200
2020/01/31 09:38:59.1	110.760	0.050	-0.910	-0.130
2020/01/31 09:38:59.2	110.780	0.070	-0.890	-0.060
2020/01/31 09:38:59.3	110.790	0.090	-0.860	0.020
2020/01/31 09:38:59.4	110.800	0.100	-0.840	0.090
2020/01/31 09:38:59.5	110.810	0.120	-0.810	0.170
2020/01/31 09:38:59.6	110.820	0.130	-0.770	0.240
2020/01/31 09:38:59.7	110.830	0.150	-0.730	0.320
2020/01/31 09:38:59.8	110.850	0.160	-0.690	0.390
2020/01/31 09:38:59.9	110.860	0.170	-0.650	0.470
2020/01/31 09:39:00.0	110.870	0.190	-0.610	0.540
2020/01/31 09:39:00.1	110.880	0.200	-0.560	0.610
2020/01/31 09:39:00.2	110.890	0.210	-0.510	0.680
2020/01/31 09:39:00.3	110.910	0.210	-0.470	0.750
2020/01/31 09:39:00.4	110.920	0.220	-0.420	0.820
2020/01/31 09:39:00.5	110.930	0.230	-0.370	0.890
2020/01/31 09:39:00.6	110.950	0.230	-0.320	0.950
2020/01/31 09:39:00.7	110.960	0.240	-0.270	1.020
2020/01/31 09:39:00.8	110.980	0.240	-0.220	1.080
2020/01/31 09:39:00.9	110.990	0.250	-0.180	1.140
2020/01/31 09:39:01.0	111.010	0.250	-0.130	1.200
2020/01/31 09:39:01.1	111.030	0.250	-0.090	1.260
2020/01/31 09:39:01.2	111.040	0.250	-0.050	1.310
2020/01/31 09:39:01.3	111.060	0.250	-0.020	1.360
2020/01/31 09:39:01.4	111.090	0.250	0.020	1.410
2020/01/31 09:39:01.5	111.110	0.250	0.050	1.460
2020/01/31 09:39:01.6	111.120	0.240	0.070	1.500
2020/01/31 09:39:01.7	111.140	0.240	0.100	1.540
2020/01/31 09:39:01.8	111.160	0.240	0.120	1.580
2020/01/31 09:39:01.9	111.180	0.240	0.140	1.620
2020/01/31 09:39:02.0	111.200	0.230	0.150	1.660
2020/01/31 09:39:02.1	111.210	0.230	0.160	1.690
2020/01/31 09:39:02.2	111.230	0.220	0.160	1.720
2020/01/31 09:39:02.3	111.250	0.220	0.170	1.750
2020/01/31 09:39:02.4	111.270	0.220	0.160	1.770
2020/01/31 09:39:02.5	111.280	0.210	0.160	1.800
2020/01/31 09:39:02.6	111.300	0.210	0.150	1.820
2020/01/31 09:39:02.7	111.310	0.210	0.140	1.840
2020/01/31 09:39:02.8	111.320	0.200	0.120	1.860
2020/01/31 09:39:02.9	111.340	0.200	0.100	1.870
2020/01/31 09:39:03.0	111.350	0.200	0.080	1.890
2020/01/31 09:39:03.1	111.360	0.200	0.050	1.900
2020/01/31 09:39:03.2	111.370	0.190	0.030	1.910
2020/01/31 09:39:03.3	111.380	0.190	0.000	1.920
2020/01/31 09:39:03.4	111.390	0.190	-0.030	1.920
2020/01/31 09:39:03.5	111.400	0.180	-0.060	1.930
2020/01/31 09:39:03.6	111.400	0.180	-0.090	1.930
2020/01/31 09:39:03.7	111.410	0.180	-0.120	1.940
2020/01/31 09:39:03.8	111.420	0.170	-0.150	1.940
2020/01/31 09:39:03.9	111.420	0.170	-0.180	1.940
2020/01/31 09:39:04.0	111.420	0.160	-0.200	1.940
2020/01/31 09:39:04.1	111.420	0.160	-0.230	1.940
2020/01/31 09:39:04.2	111.430	0.150	-0.260	1.940
2020/01/31 09:39:04.3	111.430	0.150	-0.280	1.930
2020/01/31 09:39:04.4	111.440	0.140	-0.300	1.930
2020/01/31 09:39:04.5	111.440	0.130	-0.320	1.920
2020/01/31 09:39:04.6	111.430	0.120	-0.330	1.920
2020/01/31 09:39:04.7	111.430	0.100	-0.350	1.910
2020/01/31 09:39:04.8	111.420	0.090	-0.360	1.900
2020/01/31 09:39:04.9	111.420	0.080	-0.360	1.890
2020/01/31 09:39:05.0	111.420	0.060	-0.370	1.880
2020/01/31 09:39:05.1	111.410	0.050	-0.370	1.870
2020/01/31 09:39:05.2	111.400	0.030	-0.360	1.850
2020/01/31 09:39:05.3	111.400	0.010	-0.360	1.840
2020/01/31 09:39:05.4	111.400	-0.010	-0.350	1.820
2020/01/31 09:39:05.5	111.390	-0.030	-0.340	1.800
2020/01/31 09:39:05.6	111.390	-0.050	-0.330	1.780
2020/01/31 09:39:05.7	111.390	-0.080	-0.310	1.760
2020/01/31 09:39:05.8	111.380	-0.100	-0.290	1.730
2020/01/31 09:39:05.9	111.380	-0.120	-0.270	1.710
2020/01/31 09:39:06.0	111.380	-0.150	-0.250	1.680
2020/01/31 09:39:06.1	111.370	-0.170	-0.220	1.650
2020/01/31 09:39:06.2	111.370	-0.200	-0.200	1.620
2020/01/31 09:39:06.3	111.380	-0.220	-0.170	1.580
2020/01/31 09:39:06.4	111.370	-0.250	-0.150	1.540
2020/01/31 09:39:06.5	111.380	-0.270	-0.120	1.500
2020/01/31 09:39:06.6	111.380	-0.290	-0.090	1.460
2020/01/31 09:39:06.7	111.390	-0.310	-0.070	1.420
2020/01/31 09:39:06.8	111.390	-0.330	-0.040	1.380
2020/01/31 09:39:06.9	111.400	-0.350	-0.020	1.330
2020/01/31 09:39:07.0	111.410	-0.370	0.010	1.280
2020/01/31 09:39:07.1	111.420	-0.390	0.030	1.230
2020/01/31 09:39:07.2	111.440	-0.410	0.060	1.170
2020/01/31 09:39:07.3	111.450	-0.420	0.080	1.120
2020/01/31 09:39:07.4	111.470	-0.430	0.100	1.060
2020/01/31 09:39:07.5	111.480	-0.440	0.120	0.990
2020/01/31 09:39:07.6	111.500	-0.450	0.140	0.930
2020/01/31 09:39:07.7	111.520	-0.460	0.150	0.870
2020/01/31 09:39:07.8	111.550	-0.470	0.170	0.800
2020/01/31 09:39:07.9	111.570	-0.470	0.180	0.730
2020/01/31 09:39:08.0	111.600	-0.480	0.200	0.660
2020/01/31 09:39:08.1	111.630	-0.480	0.210	0.590
2020/01/31 09:39:08.2	111.660	-0.480	0.220	0.510
2020/01/31 09:39:08.3	111.690	-0.480	0.230	0.440
2020/01/31 09:39:08.4	111.720	-0.470	0.230	0.360
2020/01/31 09:39:08.5	111.750	-0.470	0.240	0.280
2020/01/31 09:39:08.6	111.790	-0.460	0.250	0.200
2020/01/31 09:39:08.7	111.820	-0.460	0.250	0.120
2020/01/31 09:39:08.8	111.860	-0.450	0.250	0.050
2020/01/31 09:39:08.9	111.900	-0.440	0.250	-0.030
2020/01/31 09:39:09.0	111.940	-0.420	0.250	-0.110
2020/01/31 09:39:09.1	111.970	-0.410	0.240	-0.180
2020/01/31 09:39:09.2	112.010	-0.390	0.240	-0.250
2020/01/31 09:39:09.3	112.050	-0.380	0.230	-0.320
2020/01/31 09:39:09.4	112.080	-0.360	0.220	-0.390
2020/01/31 09:39:09.5	112.110	-0.340	0.200	-0.460
2020/01/31 09:39:09.6	112.150	-0.310	0.180	-0.520
2020/01/31 09:39:09.7	112.180	-0.290	0.160	-0.570
2020/01/31 09:39:09.8	112.210	-0.260	0.130	-0.630
2020/01/31 09:39:09.9	112.240	-0.240	0.100	-0.670
2020/01/31 09:39:10.0	112.270	-0.210	0.070	-0.720
2020/01/31 09:39:10.1	112.300	-0.180	0.030	-0.750
2020/01/31 09:39:10.2	112.320	-0.150	-0.010	-0.780
2020/01/31 09:39:10.3	112.340	-0.110	-0.050	-0.810
2020/01/31 09:39:10.4	112.350	-0.080	-0.100	-0.830
2020/01/31 09:39:10.5	112.360	-0.050	-0.140	-0.850
2020/01/31 09:39:10.6	112.380	-0.010	-0.190	-0.860
2020/01/31 09:39:10.7	112.390	0.030	-0.240	-0.870
2020/01/31 09:39:10.8	112.400	0.060	-0.290	-0.870
2020/01/31 09:39:10.9	112.410	0.100	-0.340	-0.860
2020/01/31 09:39:11.0	112.410	0.140	-0.390	-0.860
2020/01/31 09:39:11.1	112.410	0.180	-0.440	-0.850
2020/01/31 09:39:11.2	112.410	0.210	-0.490	-0.830
2020/01/31 09:39:11.3	112.410	0.250	-0.540	-0.810
2020/01/31 09:39:11.4	112.390	0.290	-0.580	-0.790
2020/01/31 09:39:11.5	112.390	0.320	-0.630	-0.760
2020/01/31 09:39:11.6	112.380	0.350	-0.670	-0.740
2020/01/31 09:39:11.7	112.370	0.390	-0.700	-0.700
2020/01/31 09:39:11.8	112.360	0.420	-0.740	-0.670
2020/01/31 09:39:11.9	112.350	0.450	-0.770	-0.630
2020/01/31 09:39:12.0	112.340	0.470	-0.790	-0.600
2020/01/31 09:39:12.1	112.330	0.500	-0.820	-0.560
2020/01/31 09:39:12.2	112.320	0.520	-0.830	-0.520
2020/01/31 09:39:12.3	112.310	0.540	-0.840	-0.470
2020/01/31 09:39:12.4	112.290	0.560	-0.850	-0.430
2020/01/31 09:39:12.5	112.280	0.580	-0.850	-0.390
2020/01/31 09:39:12.6	112.270	0.590	-0.850	-0.340
2020/01/31 09:39:12.7	112.260	0.600	-0.840	-0.290
2020/01/31 09:39:12.8	112.250	0.610	-0.830	-0.250
2020/01/31 09:39:12.9	112.250	0.610	-0.810	-0.200
2020/01/31 09:39:13.0	112.240	0.610	-0.780	-0.150
2020/01/31 09:39:13.1	112.230	0.610	-0.760	-0.100
2020/01/31 09:39:13.2	112.220	0.610	-0.720	-0.050
2020/01/31 09:39:13.3	112.220	0.600	-0.690	0.000
2020/01/31 09:39:13.4	112.210	0.600	-0.640	0.050
2020/01/31 09:39:13.5	112.200	0.580	-0.600	0.110
2020/01/31 09:39:13.6	112.190	0.570	-0.550	0.160
2020/01/31 09:39:13.7	112.190	0.560	-0.500	0.210
2020/01/31 09:39:13.8	112.180	0.540	-0.440	0.260
2020/01/31 09:39:13.9	112.180	0.520	-0.390	0.310
2020/01/31 09:39:14.0	112.170	0.500	-0.330	0.370
2020/01/31 09:39:14.1	112.170	0.480	-0.280	0.420
2020/01/31 09:39:14.2	112.160	0.460	-0.220	0.470
2020/01/31 09:39:14.3	112.160	0.430	-0.160	0.530
2020/01/31 09:39:14.4	112.150	0.410	-0.110	0.580
2020/01/31 09:39:14.5	112.150	0.390	-0.050	0.630
2020/01/31 09:39:14.6	112.140	0.360	-0.000	0.680
2020/01/31 09:39:14.7	112.140	0.330	0.050	0.740
2020/01/31 09:39:14.8	112.140	0.310	0.100	0.790
2020/01/31 09:39:14.9	112.140	0.280	0.140	0.840
2020/01/31 09:39:15.0	112.140	0.260	0.180	0.900
2020/01/31 09:39:15.1	112.150	0.230	0.220	0.950
2020/01/31 09:39:15.2	112.150	0.210	0.250	1.000
2020/01/31 09:39:15.3	112.160	0.180	0.280	1.050
2020/01/31 09:39:15.4	112.160	0.160	0.300	1.100
2020/01/31 09:39:15.5	112.170	0.140	0.320	1.140
2020/01/31 09:39:15.6	112.170	0.110	0.340	1.190
2020/01/31 09:39:15.7	112.180	0.090	0.350	1.240
2020/01/31 09:39:15.8	112.190	0.070	0.360	1.280
2020/01/31 09:39:15.9	112.200	0.050	0.360	1.320
2020/01/31 09:39:16.0	112.210	0.030	0.360	1.360
2020/01/31 09:39:16.1	112.220	0.010	0.350	1.400
2020/01/31 09:39:16.2	112.240	-0.000	0.340	1.440
2020/01/31 09:39:16.3	112.250	-0.020	0.330	1.480
2020/01/31 09:39:16.4	112.270	-0.040	0.310	1.520
2020/01/31 09:39:16.5	112.280	-0.050	0.290	1.550
2020/01/31 09:39:16.6	112.300	-0.070	0.260	1.590
2020/01/31 09:39:16.7	112.310	-0.080	0.230	1.620
2020/01/31 09:39:16.8	112.330	-0.090	0.190	1.650
2020/01/31 09:39:16.9	112.340	-0.100	0.160	1.690
2020/01/31 09:39:17.0	112.360	-0.120	0.120	1.720
2020/01/31 09:39:17.1	112.370	-0.130	0.080	1.750
2020/01/31 09:39:17.2	112.390	-0.140	0.040	1.770
2020/01/31 09:39:17.3	112.400	-0.150	-0.010	1.800
2020/01/31 09:39:17.4	112.420	-0.160	-0.050	1.830
2020/01/31 09:39:17.5	112.430	-0.170	-0.090	1.850
2020/01/31 09:39:17.6	112.450	-0.170	-0.130	1.880
2020/01/31 09:39:17.7	112.460	-0.180	-0.180	1.900
2020/01/31 09:39:17.8	112.480	-0.190	-0.220	1.920
2020/01/31 09:39:17.9	112.490	-0.200	-0.250	1.930
2020/01/31 09:39:18.0	112.510	-0.210	-0.290	1.950
2020/01/31 09:39:18.1	112.530	-0.210	-0.330	1.960
2020/01/31 09:39:18.2	112.540	-0.220	-0.360	1.970
2020/01/31 09:39:18.3	112.560	-0.230	-0.380	1.980
2020/01/31 09:39:18.4	112.580	-0.240	-0.410	1.980
2020/01/31 09:39:18.5	112.590	-0.240	-0.430	1.990
2020/01/31 09:39:18.6	112.610	-0.250	-0.440	1.990
2020/01/31 09:39:18.7	112.620	-0.260	-0.460	1.980
2020/01/31 09:39:18.8	112.640	-0.270	-0.460	1.980
2020/01/31 09:39:18.9	112.660	-0.270	-0.470	1.970
2020/01/31 09:39:19.0	112.670	-0.280	-0.460	1.960
2020/01/31 09:39:19.1	112.690	-0.290	-0.460	1.950
2020/01/31 09:39:19.2	112.710	-0.300	-0.450	1.940
2020/01/31 09:39:19.3	112.730	-0.300	-0.430	1.920
2020/01/31 09:39:19.4	112.740	-0.310	-0.410	1.900
2020/01/31 09:39:19.5	112.760	-0.320	-0.390	1.880
2020/01/31 09:39:19.6	112.780	-0.320	-0.360	1.860
2020/01/31 09:39:19.7	112.800	-0.330	-0.340	1.830
2020/01/31 09:39:19.8	112.810	-0.340	-0.300	1.800
2020/01/31 09:39:19.9	112.830	-0.340	-0.270	1.770
2020/01/31 09:39:20.0	112.850	-0.350	-0.240	1.740
2020/01/31 09:39:20.1	112.870	-0.350	-0.200	1.700
2020/01/31 09:39:20.2	112.890	-0.360	-0.160	1.660
2020/01/31 09:39:20.3	112.900	-0.360	-0.120	1.630
2020/01/31 09:39:20.4	112.930	-0.360	-0.090	1.580
2020/01/31 09:39:20.5	112.950	-0.370	-0.050	1.540
2020/01/31 09:39:20.6	112.960	-0.370	-0.010	1.500
2020/01/31 09:39:20.7	112.980	-0.370	0.020	1.450
2020/01/31 09:39:20.8	112.990	-0.370	0.050	1.410
2020/01/31 09:39:20.9	113.010	-0.370	0.090	1.360
2020/01/31 09:39:21.0	113.020	-0.370	0.120	1.320
2020/01/31 09:39:21.1	113.030	-0.370	0.140	1.270
2020/01/31 09:39:21.2	113.040	-0.360	0.170	1.220
2020/01/31 09:39:21.3	113.060	-0.360	0.190	1.170
2020/01/31 09:39:21.4	113.070	-0.360	0.210	1.120
2020/01/31 09:39:21.5	113.080	-0.350	0.230	1.070
2020/01/31 09:39:21.6	113.090	-0.340	0.240	1.030
2020/01/31 09:39:21.7	113.100	-0.330	0.250	0.980
2020/01/31 09:39:21.8	113.110	-0.320	0.260	0.930
2020/01/31 09:39:21.9	113.120	-0.310	0.260	0.880
2020/01/31 09:39:22.0	113.120	-0.300	0.260	0.830
2020/01/31 09:39:22.1	113.130	-0.290	0.260	0.780
2020/01/31 09:39:22.2	113.140	-0.270	0.250	0.730
2020/01/31 09:39:22.3	113.150	-0.260	0.240	0.680
2020/01/31 09:39:22.4	113.150	-0.240	0.220	0.620
2020/01/31 09:39:22.5	113.160	-0.220	0.200	0.580
2020/01/31 09:39:22.6	113.160	-0.200	0.180	0.530
2020/01/31 09:39:22.7	113.160	-0.180	0.150	0.480
2020/01/31 09:39:22.8	113.160	-0.150	0.120	0.430
2020/01/31 09:39:22.9	113.160	-0.130	0.090	0.380
2020/01/31 09:39:23.0	113.160	-0.100	0.050	0.340
2020/01/31 09:39:23.1	113.160	-0.070	0.010	0.290
2020/01/31 09:39:23.2	113.150	-0.050	-0.030	0.250
2020/01/31 09:39:23.3	113.150	-0.020	-0.080	0.200
2020/01/31 09:39:23.4	113.130	0.010	-0.130	0.150
2020/01/31 09:39:23.5	113.130	0.050	-0.180	0.110
2020/01/31 09:39:23.6	113.120	0.080	-0.230	0.060
2020/01/31 09:39:23.7	113.110	0.110	-0.290	0.020
2020/01/31 09:39:23.8	113.100	0.140	-0.340	-0.030
2020/01/31 09:39:23.9	113.090	0.180	-0.400	-0.070
2020/01/31 09:39:24.0	113.080	0.210	-0.450	-0.120
2020/01/31 09:39:24.1	113.070	0.240	-0.510	-0.160
2020/01/31 09:39:24.2	113.060	0.280	-0.560	-0.210
2020/01/31 09:39:24.3	113.050	0.310	-0.610	-0.250
2020/01/31 09:39:24.4	113.040	0.340	-0.660	-0.300
2020/01/31 09:39:24.5	113.030	0.370	-0.710	-0.340
2020/01/31 09:39:24.6	113.020	0.400	-0.760	-0.390
2020/01/31 09:39:24.7	113.020	0.430	-0.800	-0.430
2020/01/31 09:39:24.8	113.010	0.450	-0.830	-0.470
2020/01/31 09:39:24.9	113.010	0.480	-0.860	-0.520
2020/01/31 09:39:25.0	113.010	0.500	-0.890	-0.560
2020/01/31 09:39:25.1	113.010	0.520	-0.910	-0.600
2020/01/31 09:39:25.2	113.020	0.540	-0.930	-0.640
2020/01/31 09:39:25.3	113.020	0.560	-0.940	-0.680
2020/01/31 09:39:25.4	113.020	0.570	-0.940	-0.720
2020/01/31 09:39:25.5	113.030	0.580	-0.940	-0.760
2020/01/31 09:39:25.6	113.050	0.590	-0.930	-0.790
2020/01/31 09:39:25.7	113.060	0.590	-0.920	-0.820
2020/01/31 09:39:25.8	113.080	0.600	-0.900	-0.850
2020/01/31 09:39:25.9	113.100	0.600	-0.880	-0.880
2020/01/31 09:39:26.0	113.120	0.590	-0.850	-0.900
2020/01/31 09:39:26.1	113.150	0.590	-0.820	-0.920
2020/01/31 09:39:26.2	113.170	0.580	-0.780	-0.930
2020/01/31 09:39:26.3	113.200	0.570	-0.740	-0.940
2020/01/31 09:39:26.4	113.230	0.550	-0.700	-0.950
2020/01/31 09:39:26.5	113.260	0.530	-0.650	-0.950
2020/01/31 09:39:26.6	113.290	0.520	-0.600	-0.940
2020/01/31 09:39:26.7	113.320	0.490	-0.540	-0.930
2020/01/31 09:39:26.8	113.350	0.470	-0.490	-0.920
2020/01/31 09:39:26.9	113.380	0.450	-0.430	-0.900
2020/01/31 09:39:27.0	113.410	0.420	-0.380	-0.870
2020/01/31 09:39:27.1	113.440	0.390	-0.320	-0.840
2020/01/31 09:39:27.2	113.470	0.360	-0.260	-0.800
2020/01/31 09:39:27.3	113.500	0.330	-0.210	-0.760
2020/01/31 09:39:27.4	113.530	0.300	-0.150	-0.700
2020/01/31 09:39:27.5	113.560	0.260	-0.090	-0.650
2020/01/31 09:39:27.6	113.580	0.230	-0.040	-0.590
2020/01/31 09:39:27.7	113.610	0.200	0.010	-0.520
2020/01/31 09:39:27.8	113.630	0.160	0.060	-0.450
2020/01/31 09:39:27.9	113.650	0.130	0.110	-0.370
2020/01/31 09:39:28.0	113.670	0.100	0.150	-0.290
2020/01/31 09:39:28.1	113.690	0.060	0.190	-0.210
2020/01/31 09:39:28.2	113.710	0.030	0.230	-0.120
2020/01/31 09:39:28.3	113.720	-0.000	0.270	-0.030
2020/01/31 09:39:28.4	113.740	-0.030	0.300	0.060
2020/01/31 09:39:28.5	113.760	-0.070	0.330	0.150
2020/01/31 09:39:28.6	113.770	-0.100	0.360	0.250
2020/01/31 09:39:28.7	113.780	-0.120	0.390	0.340
2020/01/31 09:39:28.8	113.790	-0.150	0.420	0.440
2020/01/31 09:39:28.9	113.790	-0.180	0.440	0.540
2020/01/31 09:39:29.0	113.800	-0.210	0.460	0.640
2020/01/31 09:39:29.1	113.800	-0.230	0.470	0.740
2020/01/31 09:39:29.2	113.810	-0.260	0.490	0.840
2020/01/31 09:39:29.3	113.810	-0.280	0.500	0.930
2020/01/31 09:39:29.4	113.800	-0.300	0.510	1.030
2020/01/31 09:39:29.5	113.810	-0.320	0.520	1.120
2020/01/31 09:39:29.6	113.810	-0.340	0.520	1.210
2020/01/31 09:39:29.7	113.810	-0.360	0.520	1.300
2020/01/31 09:39:29.8	113.810	-0.370	0.520	1.380
2020/01/31 09:39:29.9	113.810	-0.390	0.520	1.460
2020/01/31 09:39:30.0	113.820	-0.400	0.520	1.540
2020/01/31 09:39:30.1	113.820	-0.410	0.510	1.620
2020/01/31 09:39:30.2	113.820	-0.420	0.500	1.690
2020/01/31 09:39:30.3	113.820	-0.430	0.490	1.750
2020/01/31 09:39:30.4	113.820	-0.440	0.480	1.810
2020/01/31 09:39:30.5	113.830	-0.450	0.460	1.880
2020/01/31 09:39:30.6	113.830	-0.460	0.450	1.930
2020/01/31 09:39:30.7	113.840	-0.460	0.420	1.990
2020/01/31 09:39:30.8	113.840	-0.460	0.400	2.040
2020/01/31 09:39:30.9	113.850	-0.470	0.370	2.090
2020/01/31 09:39:31.0	113.850	-0.470	0.350	2.140
2020/01/31 09:39:31.1	113.860	-0.470	0.310	2.180
2020/01/31 09:39:31.2	113.860	-0.460	0.280	2.230
2020/01/31 09:39:31.3	113.870	-0.460	0.240	2.270
2020/01/31 09:39:31.4	113.870	-0.460	0.200	2.300
2020/01/31 09:39:31.5	113.880	-0.450	0.160	2.340
2020/01/31 09:39:31.6	113.880	-0.440	0.120	2.380
2020/01/31 09:39:31.7	113.880	-0.440	0.070	2.410
2020/01/31 09:39:31.8	113.890	-0.430	0.030	2.440
2020/01/31 09:39:31.9	113.890	-0.410	-0.020	2.470
2020/01/31 09:39:32.0	113.890	-0.400	-0.070	2.490
2020/01/31 09:39:32.1	113.900	-0.390	-0.110	2.520
2020/01/31 09:39:32.2	113.900	-0.370	-0.160	2.540
2020/01/31 09:39:32.3	113.900	-0.360	-0.210	2.550
2020/01/31 09:39:32.4	113.900	-0.340	-0.260	2.570
2020/01/31 09:39:32.5	113.910	-0.320	-0.310	2.580
2020/01/31 09:39:32.6	113.910	-0.300	-0.350	2.580
2020/01/31 09:39:32.7	113.910	-0.280	-0.400	2.580
2020/01/31 09:39:32.8	113.920	-0.260	-0.440	2.580
2020/01/31 09:39:32.9	113.920	-0.230	-0.490	2.580
2020/01/31 09:39:33.0	113.930	-0.210	-0.530	2.560
2020/01/31 09:39:33.1	113.940	-0.180	-0.570	2.550
2020/01/31 09:39:33.2	113.950	-0.160	-0.610	2.530
2020/01/31 09:39:33.3	113.950	-0.130	-0.640	2.510
2020/01/31 09:39:33.4	113.950	-0.100	-0.680	2.480
2020/01/31 09:39:33.5	113.950	-0.070	-0.710	2.440
2020/01/31 09:39:33.6	113.960	-0.050	-0.740	2.410
2020/01/31 09:39:33.7	113.970	-0.020	-0.770	2.370
2020/01/31 09:39:33.8	113.990	0.010	-0.790	2.320
2020/01/31 09:39:33.9	114.000	0.040	-0.810	2.270
2020/01/31 09:39:34.0	114.010	0.070	-0.830	2.220
2020/01/31 09:39:34.1	114.020	0.100	-0.840	2.170
2020/01/31 09:39:34.2	114.030	0.130	-0.850	2.110
2020/01/31 09:39:34.3	114.040	0.150	-0.860	2.050
2020/01/31 09:39:34.4	114.060	0.180	-0.860	1.990
2020/01/31 09:39:34.5	114.070	0.200	-0.860	1.930
2020/01/31 09:39:34.6	114.080	0.230	-0.860	1.860
2020/01/31 09:39:34.7	114.090	0.250	-0.850	1.790
2020/01/31 09:39:34.8	114.100	0.270	-0.850	1.720
2020/01/31 09:39:34.9	114.110	0.290	-0.840	1.650
2020/01/31 09:39:35.0	114.120	0.310	-0.820	1.580
2020/01/31 09:39:35.1	114.130	0.330	-0.800	1.510
2020/01/31 09:39:35.2	114.140	0.340	-0.780	1.430
2020/01/31 09:39:35.3	114.150	0.360	-0.760	1.360
2020/01/31 09:39:35.4	114.150	0.370	-0.740	1.280
2020/01/31 09:39:35.5	114.160	0.380	-0.710	1.210
2020/01/31 09:39:35.6	114.160	0.390	-0.680	1.130
2020/01/31 09:39:35.7	114.170	0.400	-0.640	1.060
2020/01/31 09:39:35.8	114.170	0.400	-0.610	0.980
2020/01/31 09:39:35.9	114.180	0.400	-0.570	0.910
2020/01/31 09:39:36.0	114.180	0.400	-0.530	0.830
2020/01/31 09:39:36.1	114.180	0.400	-0.490	0.760
2020/01/31 09:39:36.2	114.190	0.400	-0.450	0.680
2020/01/31 09:39:36.3	114.190	0.400	-0.410	0.610
2020/01/31 09:39:36.4	114.190	0.390	-0.360	0.530
2020/01/31 09:39:36.5	114.190	0.390	-0.320	0.460
2020/01/31 09:39:36.6	114.190	0.380	-0.270	0.390
2020/01/31 09:39:36.7	114.200	0.370	-0.230	0.320
2020/01/31 09:39:36.8	114.200	0.360	-0.180	0.240
2020/01/31 09:39:36.9	114.210	0.350	-0.130	0.170
2020/01/31 09:39:37.0	114.220	0.340	-0.090	0.100
2020/01/31 09:39:37.1	114.220	0.330	-0.040	0.030
2020/01/31 09:39:37.2	114.230	0.310	0.000	-0.040
2020/01/31 09:39:37.3	114.250	0.300	0.050	-0.100
2020/01/31 09:39:37.4	114.250	0.280	0.090	-0.170
2020/01/31 09:39:37.5	114.260	0.270	0.140	-0.240
2020/01/31 09:39:37.6	114.280	0.250	0.180	-0.300
2020/01/31 09:39:37.7	114.290	0.240	0.220	-0.360
2020/01/31 09:39:37.8	114.310	0.220	0.260	-0.420
2020/01/31 09:39:37.9	114.330	0.200	0.290	-0.480
2020/01/31 09:39:38.0	114.350	0.190	0.330	-0.530
2020/01/31 09:39:38.1	114.380	0.170	0.360	-0.580
2020/01/31 09:39:38.2	114.400	0.150	0.380	-0.630
2020/01/31 09:39:38.3	114.420	0.140	0.410	-0.680
2020/01/31 09:39:38.4	114.450	0.120	0.430	-0.720
2020/01/31 09:39:38.5	114.470	0.110	0.440	-0.760
2020/01/31 09:39:38.6	114.500	0.090	0.460	-0.790
2020/01/31 09:39:38.7	114.520	0.080	0.470	-0.820
2020/01/31 09:39:38.8	114.540	0.070	0.470	-0.840
2020/01/31 09:39:38.9	114.550	0.050	0.470	-0.860
2020/01/31 09:39:39.0	114.570	0.040	0.470	-0.880
2020/01/31 09:39:39.1	114.580	0.030	0.460	-0.880
2020/01/31 09:39:39.2	114.590	0.020	0.440	-0.890
2020/01/31 09:39:39.3	114.600	0.010	0.420	-0.880
2020/01/31 09:39:39.4	114.610	0.010	0.400	-0.880
2020/01/31 09:39:39.5	114.610	0.000	0.370	-0.860
2020/01/31 09:39:39.6	114.610	-0.000	0.340	-0.840
2020/01/31 09:39:39.7	114.610	-0.010	0.300	-0.820
2020/01/31 09:39:39.8	114.600	-0.010	0.260	-0.790
2020/01/31 09:39:39.9	114.580	-0.010	0.220	-0.760
2020/01/31 09:39:40.0	114.570	-0.010	0.170	-0.720
2020/01/31 09:39:40.1	114.550	-0.010	0.120	-0.680
2020/01/31 09:39:40.2	114.530	-0.010	0.070	-0.630
2020/01/31 09:39:40.3	114.510	-0.010	0.010	-0.580
2020/01/31 09:39:40.4	114.490	-0.010	-0.040	-0.530
2020/01/31 09:39:40.5	114.470	-0.010	-0.100	-0.480
2020/01/31 09:39:40.6	114.450	-0.010	-0.150	-0.420
2020/01/31 09:39:40.7	114.420	-0.010	-0.200	-0.360
2020/01/31 09:39:40.8	114.400	-0.010	-0.250	-0.300
2020/01/31 09:39:40.9	114.380	-0.010	-0.300	-0.240
2020/01/31 09:39:41.0	114.360	-0.010	-0.340	-0.180
2020/01/31 09:39:41.1	114.340	-0.010	-0.380	-0.110
2020/01/31 09:39:41.2	114.320	-0.010	-0.410	-0.050
2020/01/31 09:39:41.3	114.310	-0.010	-0.440	0.020
2020/01/31 09:39:41.4	114.300	-0.020	-0.470	0.080
2020/01/31 09:39:41.5	114.290	-0.020	-0.490	0.140
2020/01/31 09:39:41.6	114.280	-0.030	-0.510	0.210
2020/01/31 09:39:41.7	114.280	-0.030	-0.520	0.270
2020/01/31 09:39:41.8	114.270	-0.040	-0.530	0.330
2020/01/31 09:39:41.9	114.270	-0.050	-0.530	0.390
2020/01/31 09:39:42.0	114.270	-0.060	-0.530	0.450
2020/01/31 09:39:42.1	114.270	-0.070	-0.520	0.520
2020/01/31 09:39:42.2	114.280	-0.070	-0.510	0.580
2020/01/31 09:39:42.3	114.290	-0.090	-0.500	0.640
2020/01/31 09:39:42.4	114.300	-0.100	-0.490	0.700
2020/01/31 09:39:42.5	114.310	-0.110	-0.470	0.760
2020/01/31 09:39:42.6	114.320	-0.120	-0.450	0.820
2020/01/31 09:39:42.7	114.340	-0.130	-0.430	0.880
2020/01/31 09:39:42.8	114.350	-0.140	-0.410	0.940
2020/01/31 09:39:42.9	114.370	-0.150	-0.390	0.990
2020/01/31 09:39:43.0	114.390	-0.170	-0.370	1.050
2020/01/31 09:39:43.1	114.410	-0.180	-0.340	1.110
2020/01/31 09:39:43.2	114.430	-0.190	-0.320	1.170
2020/01/31 09:39:43.3	114.450	-0.200	-0.300	1.240
2020/01/31 09:39:43.4	114.460	-0.210	-0.270	1.300
2020/01/31 09:39:43.5	114.480	-0.220	-0.250	1.360
2020/01/31 09:39:43.6	114.510	-0.230	-0.230	1.420
2020/01/31 09:39:43.7	114.530	-0.240	-0.210	1.480
2020/01/31 09:39:43.8	114.560	-0.240	-0.190	1.540
2020/01/31 09:39:43.9	114.580	-0.250	-0.180	1.600
2020/01/31 09:39:44.0	114.610	-0.260	-0.160	1.660
2020/01/31 09:39:44.1	114.640	-0.260	-0.150	1.710
2020/01/31 09:39:44.2	114.660	-0.270	-0.140	1.770
2020/01/31 09:39:44.3	114.690	-0.270	-0.130	1.820
2020/01/31 09:39:44.4	114.710	-0.280	-0.120	1.880
2020/01/31 09:39:44.5	114.740	-0.280	-0.110	1.930
2020/01/31 09:39:44.6	114.760	-0.280	-0.110	1.980
2020/01/31 09:39:44.7	114.790	-0.280	-0.110	2.030
2020/01/31 09:39:44.8	114.810	-0.280	-0.110	2.080
2020/01/31 09:39:44.9	114.830	-0.280	-0.110	2.130
2020/01/31 09:39:45.0	114.850	-0.280	-0.110	2.180
2020/01/31 09:39:45.1	114.870	-0.280	-0.110	2.220
2020/01/31 09:39:45.2	114.890	-0.280	-0.120	2.260
2020/01/31 09:39:45.3	114.900	-0.270	-0.130	2.300
2020/01/31 09:39:45.4	114.930	-0.270	-0.130	2.340
2020/01/31 09:39:45.5	114.940	-0.260	-0.140	2.380
2020/01/31 09:39:45.6	114.950	-0.260	-0.150	2.410
2020/01/31 09:39:45.7	114.960	-0.250	-0.160	2.450
2020/01/31 09:39:45.8	114.960	-0.240	-0.170	2.480
2020/01/31 09:39:45.9	114.960	-0.230	-0.190	2.500
2020/01/31 09:39:46.0	114.960	-0.220	-0.200	2.530
2020/01/31 09:39:46.1	114.960	-0.210	-0.210	2.550
2020/01/31 09:39:46.2	114.960	-0.200	-0.220	2.570
2020/01/31 09:39:46.3	114.950	-0.190	-0.240	2.590
2020/01/31 09:39:46.4	114.960	-0.170	-0.260	2.600
2020/01/31 09:39:46.5	114.950	-0.160	-0.270	2.610
2020/01/31 09:39:46.6	114.940	-0.140	-0.280	2.620
2020/01/31 09:39:46.7	114.930	-0.130	-0.290	2.620
2020/01/31 09:39:46.8	114.920	-0.110	-0.300	2.620
2020/01/31 09:39:46.9	114.910	-0.100	-0.310	2.610
2020/01/31 09:39:47.0	114.890	-0.080	-0.320	2.600
2020/01/31 09:39:47.1	114.880	-0.070	-0.320	2.590
2020/01/31 09:39:47.2	114.860	-0.050	-0.330	2.570
2020/01/31 09:39:47.3	114.850	-0.040	-0.330	2.540
2020/01/31 09:39:47.4	114.820	-0.020	-0.330	2.510
2020/01/31 09:39:47.5	114.800	-0.010	-0.330	2.480
2020/01/31 09:39:47.6	114.790	0.010	-0.320	2.440
2020/01/31 09:39:47.7	114.780	0.020	-0.310	2.400
2020/01/31 09:39:47.8	114.760	0.030	-0.300	2.350
2020/01/31 09:39:47.9	114.750	0.050	-0.290	2.300
2020/01/31 09:39:48.0	114.740	0.060	-0.280	2.240
2020/01/31 09:39:48.1	114.730	0.070	-0.260	2.180
2020/01/31 09:39:48.2	114.730	0.080	-0.240	2.120
2020/01/31 09:39:48.3	114.720	0.080	-0.210	2.050
2020/01/31 09:39:48.4	114.710	0.090	-0.190	1.970
2020/01/31 09:39:48.5	114.700	0.100	-0.160	1.890
2020/01/31 09:39:48.6	114.700	0.100	-0.130	1.810
2020/01/31 09:39:48.7	114.700	0.100	-0.090	1.720
2020/01/31 09:39:48.8	114.700	0.110	-0.060	1.630
2020/01/31 09:39:48.9	114.710	0.110	-0.020	1.540
2020/01/31 09:39:49.0	114.710	0.110	0.010	1.440
2020/01/31 09:39:49.1	114.720	0.110	0.050	1.350
2020/01/31 09:39:49.2	114.720	0.100	0.080	1.250
2020/01/31 09:39:49.3	114.730	0.100	0.120	1.140
2020/01/31 09:39:49.4	114.740	0.100	0.150	1.040
2020/01/31 09:39:49.5	114.750	0.090	0.180	0.930
2020/01/31 09:39:49.6	114.760	0.090	0.210	0.830
2020/01/31 09:39:49.7	114.770	0.090	0.230	0.720
2020/01/31 09:39:49.8	114.780	0.080	0.250	0.610
2020/01/31 09:39:49.9	114.800	0.080	0.270	0.510
2020/01/31 09:39:50.0	114.810	0.070	0.290	0.400
2020/01/31 09:39:50.1	114.820	0.070	0.300	0.290
2020/01/31 09:39:50.2	114.840	0.060	0.300	0.190
2020/01/31 09:39:50.3	114.850	0.060	0.310	0.090
2020/01/31 09:39:50.4	114.860	0.050	0.300	-0.020
2020/01/31 09:39:50.5	114.870	0.050	0.290	-0.120
2020/01/31 09:39:50.6	114.890	0.050	0.280	-0.220
2020/01/31 09:39:50.7	114.900	0.040	0.270	-0.320
2020/01/31 09:39:50.8	114.920	0.040	0.250	-0.410
2020/01/31 09:39:50.9	114.930	0.040	0.220	-0.510
2020/01/31 09:39:51.0	114.950	0.040	0.190	-0.600
2020/01/31 09:39:51.1	114.960	0.040	0.160	-0.690
2020/01/31 09:39:51.2	114.980	0.040	0.120	-0.780
2020/01/31 09:39:51.3	115.000	0.050	0.080	-0.860
2020/01/31 09:39:51.4	115.010	0.050	0.040	-0.940
2020/01/31 09:39:51.5	115.030	0.050	-0.000	-1.020
2020/01/31 09:39:51.6	115.040	0.060	-0.050	-1.100
2020/01/31 09:39:51.7	115.060	0.070	-0.110	-1.170
2020/01/31 09:39:51.8	115.080	0.080	-0.160	-1.240
2020/01/31 09:39:51.9	115.100	0.090	-0.210	-1.300
2020/01/31 09:39:52.0	115.110	0.100	-0.270	-1.360
2020/01/31 09:39:52.1	115.130	0.110	-0.330	-1.420
2020/01/31 09:39:52.2	115.140	0.120	-0.390	-1.470
2020/01/31 09:39:52.3	115.160	0.130	-0.440	-1.510
2020/01/31 09:39:52.4	115.190	0.150	-0.500	-1.550
2020/01/31 09:39:52.5	115.210	0.160	-0.560	-1.580
2020/01/31 09:39:52.6	115.220	0.170	-0.610	-1.610
2020/01/31 09:39:52.7	115.230	0.190	-0.660	-1.640
2020/01/31 09:39:52.8	115.240	0.210	-0.710	-1.650
2020/01/31 09:39:52.9	115.250	0.220	-0.760	-1.670
2020/01/31 09:39:53.0	115.260	0.240	-0.800	-1.680
2020/01/31 09:39:53.1	115.270	0.260	-0.840	-1.680
2020/01/31 09:39:53.2	115.270	0.270	-0.870	-1.670
2020/01/31 09:39:53.3	115.280	0.290	-0.900	-1.670
2020/01/31 09:39:53.4	115.280	0.310	-0.920	-1.650
2020/01/31 09:39:53.5	115.280	0.320	-0.940	-1.640
2020/01/31 09:39:53.6	115.280	0.340	-0.950	-1.610
2020/01/31 09:39:53.7	115.290	0.350	-0.960	-1.590
2020/01/31 09:39:53.8	115.290	0.370	-0.960	-1.560
2020/01/31 09:39:53.9	115.280	0.380	-0.950	-1.520
2020/01/31 09:39:54.0	115.280	0.390	-0.940	-1.490
2020/01/31 09:39:54.1	115.280	0.400	-0.920	-1.440
2020/01/31 09:39:54.2	115.280	0.410	-0.900	-1.400
2020/01/31 09:39:54.3	115.270	0.420	-0.870	-1.350
2020/01/31 09:39:54.4	115.280	0.420	-0.840	-1.290
2020/01/31 09:39:54.5	115.280	0.420	-0.800	-1.240
2020/01/31 09:39:54.6	115.270	0.430	-0.750	-1.180
2020/01/31 09:39:54.7	115.270	0.420	-0.700	-1.110
2020/01/31 09:39:54.8	115.270	0.420	-0.650	-1.040
2020/01/31 09:39:54.9	115.260	0.420	-0.600	-0.970
2020/01/31 09:39:55.0	115.260	0.410	-0.540	-0.890
2020/01/31 09:39:55.1	115.250	0.400	-0.470	-0.810
2020/01/31 09:39:55.2	115.250	0.380	-0.410	-0.730
2020/01/31 09:39:55.3	115.250	0.370	-0.350	-0.640
2020/01/31 09:39:55.4	115.250	0.350	-0.270	-0.550
2020/01/31 09:39:55.5	115.250	0.330	-0.210	-0.460
2020/01/31 09:39:55.6	115.250	0.310	-0.140	-0.360
2020/01/31 09:39:55.7	115.240	0.290	-0.070	-0.260
2020/01/31 09:39:55.8	115.240	0.260	-0.000	-0.160
2020/01/31 09:39:55.9	115.240	0.230	0.070	-0.050
2020/01/31 09:39:56.0	115.240	0.200	0.130	0.050
2020/01/31 09:39:56.1	115.240	0.170	0.190	0.160
2020/01/31 09:39:56.2	115.250	0.140	0.260	0.260
2020/01/31 09:39:56.3	115.250	0.100	0.320	0.370
2020/01/31 09:39:56.4	115.260	0.070	0.380	0.480
2020/01/31 09:39:56.5	115.260	0.030	0.430	0.580
2020/01/31 09:39:56.6	115.270	-0.010	0.490	0.690
2020/01/31 09:39:56.7	115.280	-0.050	0.540	0.790
2020/01/31 09:39:56.8	115.290	-0.090	0.580	0.890
2020/01/31 09:39:56.9	115.310	-0.130	0.620	0.990
2020/01/31 09:39:57.0	115.320	-0.170	0.660	1.090
2020/01/31 09:39:57.1	115.340	-0.220	0.700	1.180
2020/01/31 09:39:57.2	115.360	-0.260	0.730	1.280
2020/01/31 09:39:57.3	115.380	-0.300	0.750	1.370
2020/01/31 09:39:57.4	115.390	-0.340	0.770	1.450
2020/01/31 09:39:57.5	115.420	-0.380	0.790	1.540
2020/01/31 09:39:57.6	115.450	-0.420	0.800	1.620
2020/01/31 09:39:57.7	115.480	-0.460	0.800	1.700
2020/01/31 09:39:57.8	115.510	-0.500	0.800	1.780
2020/01/31 09:39:57.9	115.540	-0.540	0.800	1.850
2020/01/31 09:39:58.0	115.580	-0.570	0.780	1.930
2020/01/31 09:39:58.1	115.610	-0.610	0.770	2.000
2020/01/31 09:39:58.2	115.650	-0.640	0.750	2.070
2020/01/31 09:39:58.3	115.690	-0.670	0.720	2.140
2020/01/31 09:39:58.4	115.710	-0.690	0.690	2.200
2020/01/31 09:39:58.5	115.750	-0.720	0.650	2.260
2020/01/31 09:39:58.6	115.780	-0.740	0.610	2.330
2020/01/31 09:39:58.7	115.820	-0.760	0.560	2.390
2020/01/31 09:39:58.8	115.850	-0.780	0.510	2.450
2020/01/31 09:39:58.9	115.890	-0.790	0.450	2.510
2020/01/31 09:39:59.0	115.920	-0.800	0.390	2.570
2020/01/31 09:39:59.1	115.960	-0.800	0.330	2.620
2020/01/31 09:39:59.2	115.990	-0.810	0.270	2.680
2020/01/31 09:39:59.3	116.020	-0.810	0.200	2.730
2020/01/31 09:39:59.4	116.050	-0.800	0.130	2.780
2020/01/31 09:39:59.5	116.080	-0.800	0.050	2.840
2020/01/31 09:39:59.6	116.100	-0.790	-0.020	2.880
2020/01/31 09:39:59.7	116.120	-0.780	-0.090	2.930
2020/01/31 09:39:59.8	116.140	-0.760	-0.170	2.970
2020/01/31 09:39:59.9	116.160	-0.740	-0.240	3.020
2020/01/31 09:40:00.0	116.180	-0.720	-0.310	3.060
2020/01/31 09:40:00.1	116.190	-0.700	-0.390	3.090
2020/01/31 09:40:00.2	116.210	-0.670	-0.460	3.130
2020/01/31 09:40:00.3	116.220	-0.640	-0.520	3.160
2020/01/31 09:40:00.4	116.230	-0.610	-0.590	3.180
2020/01/31 09:40:00.5	116.240	-0.580	-0.650	3.200
2020/01/31 09:40:00.6	116.240	-0.550	-0.710	3.220
2020/01/31 09:40:00.7	116.240	-0.510	-0.770	3.240
2020/01/31 09:40:00.8	116.240	-0.470	-0.820	3.250
2020/01/31 09:40:00.9	116.240	-0.440	-0.870	3.260
2020/01/31 09:40:01.0	116.240	-0.400	-0.920	3.270
2020/01/31 09:40:01.1	116.240	-0.360	-0.960	3.270
2020/01/31 09:40:01.2	116.230	-0.320	-0.990	3.270
2020/01/31 09:40:01.3	116.220	-0.280	-1.020	3.260
2020/01/31 09:40:01.4	116.210	-0.230	-1.050	3.250
2020/01/31 09:40:01.5	116.200	-0.190	-1.070	3.230
2020/01/31 09:40:01.6	116.190	-0.150	-1.090	3.210
2020/01/31 09:40:01.7	116.170	-0.110	-1.100	3.190
2020/01/31 09:40:01.8	116.160	-0.070	-1.100	3.160
2020/01/31 09:40:01.9	116.140	-0.030	-1.110	3.130
2020/01/31 09:40:02.0	116.130	0.010	-1.100	3.090
2020/01/31 09:40:02.1	116.110	0.050	-1.090	3.050
2020/01/31 09:40:02.2	116.090	0.090	-1.080	3.000
2020/01/31 09:40:02.3	116.070	0.130	-1.060	2.950
2020/01/31 09:40:02.4	116.060	0.170	-1.040	2.890
2020/01/31 09:40:02.5	116.040	0.200	-1.020	2.840
2020/01/31 09:40:02.6	116.020	0.240	-0.990	2.770
2020/01/31 09:40:02.7	116.000	0.270	-0.950	2.700
2020/01/31 09:40:02.8	115.990	0.300	-0.920	2.630
2020/01/31 09:40:02.9	115.970	0.330	-0.870	2.550
2020/01/31 09:40:03.0	115.960	0.360	-0.830	2.470
2020/01/31 09:40:03.1	115.940	0.390	-0.780	2.390
2020/01/31 09:40:03.2	115.930	0.410	-0.730	2.300
2020/01/31 09:40:03.3	115.920	0.440	-0.680	2.210
2020/01/31 09:40:03.4	115.900	0.460	-0.630	2.100
2020/01/31 09:40:03.5	115.890	0.480	-0.570	2.000
2020/01/31 09:40:03.6	115.890	0.490	-0.520	1.900
2020/01/31 09:40:03.7	115.880	0.510	-0.460	1.790
2020/01/31 09:40:03.8	115.870	0.520	-0.400	1.680
2020/01/31 09:40:03.9	115.870	0.540	-0.340	1.570
2020/01/31 09:40:04.0	115.860	0.550	-0.280	1.450
2020/01/31 09:40:04.1	115.860	0.560	-0.220	1.330
2020/01/31 09:40:04.2	115.860	0.560	-0.160	1.210
2020/01/31 09:40:04.3	115.860	0.570	-0.110	1.090
2020/01/31 09:40:04.4	115.850	0.570	-0.050	0.960
2020/01/31 09:40:04.5	115.850	0.570	0.000	0.830
2020/01/31 09:40:04.6	115.850	0.570	0.050	0.700
2020/01/31 09:40:04.7	115.850	0.570	0.100	0.570
2020/01/31 09:40:04.8	115.850	0.570	0.140	0.440
2020/01/31 09:40:04.9	115.860	0.570	0.180	0.310
2020/01/31 09:40:05.0	115.870	0.560	0.220	0.180
2020/01/31 09:40:05.1	115.870	0.560	0.250	0.050
2020/01/31 09:40:05.2	115.880	0.550	0.280	-0.090
2020/01/31 09:40:05.3	115.890	0.540	0.310	-0.230
2020/01/31 09:40:05.4	115.900	0.530	0.330	-0.360
2020/01/31 09:40:05.5	115.920	0.520	0.340	-0.500
2020/01/31 09:40:05.6	115.940	0.500	0.360	-0.640
2020/01/31 09:40:05.7	115.950	0.490	0.370	-0.780
2020/01/31 09:40:05.8	115.980	0.470	0.380	-0.910
2020/01/31 09:40:05.9	116.000	0.460	0.380	-1.050
2020/01/31 09:40:06.0	116.030	0.440	0.380	-1.190
2020/01/31 09:40:06.1	116.060	0.420	0.380	-1.320
2020/01/31 09:40:06.2	116.090	0.400	0.380	-1.450
2020/01/31 09:40:06.3	116.120	0.380	0.370	-1.580
2020/01/31 09:40:06.4	116.170	0.350	0.370	-1.710
2020/01/31 09:40:06.5	116.210	0.330	0.360	-1.830
2020/01/31 09:40:06.6	116.240	0.300	0.350	-1.940
2020/01/31 09:40:06.7	116.280	0.280	0.340	-2.050
2020/01/31 09:40:06.8	116.310	0.250	0.330	-2.160
2020/01/31 09:40:06.9	116.350	0.220	0.320	-2.250
2020/01/31 09:40:07.0	116.380	0.190	0.310	-2.340
2020/01/31 09:40:07.1	116.410	0.160	0.300	-2.420
2020/01/31 09:40:07.2	116.450	0.130	0.290	-2.500
2020/01/31 09:40:07.3	116.480	0.100	0.270	-2.560
2020/01/31 09:40:07.4	116.510	0.070	0.260	-2.610
2020/01/31 09:40:07.5	116.530	0.040	0.250	-2.660
2020/01/31 09:40:07.6	116.550	0.020	0.240	-2.690
2020/01/31 09:40:07.7	116.560	-0.010	0.220	-2.710
2020/01/31 09:40:07.8	116.570	-0.040	0.210	-2.720
2020/01/31 09:40:07.9	116.580	-0.070	0.190	-2.730
2020/01/31 09:40:08.0	116.590	-0.090	0.170	-2.710
2020/01/31 09:40:08.1	116.590	-0.110	0.150	-2.690
2020/01/31 09:40:08.2	116.580	-0.140	0.130	-2.660
2020/01/31 09:40:08.3	116.570	-0.160	0.110	-2.620
2020/01/31 09:40:08.4	116.560	-0.180	0.080	-2.570
2020/01/31 09:40:08.5	116.550	-0.200	0.060	-2.500
2020/01/31 09:40:08.6	116.530	-0.210	0.030	-2.430
2020/01/31 09:40:08.7	116.510	-0.230	-0.000	-2.350
2020/01/31 09:40:08.8	116.490	-0.240	-0.040	-2.260
2020/01/31 09:40:08.9	116.460	-0.250	-0.070	-2.160
2020/01/31 09:40:09.0	116.440	-0.260	-0.100	-2.060
2020/01/31 09:40:09.1	116.410	-0.270	-0.140	-1.950
2020/01/31 09:40:09.2	116.390	-0.270	-0.170	-1.830
2020/01/31 09:40:09.3	116.360	-0.280	-0.210	-1.710
2020/01/31 09:40:09.4	116.350	-0.280	-0.250	-1.590
2020/01/31 09:40:09.5	116.320	-0.280	-0.280	-1.460
2020/01/31 09:40:09.6	116.300	-0.280	-0.320	-1.330
2020/01/31 09:40:09.7	116.280	-0.270	-0.360	-1.190
2020/01/31 09:40:09.8	116.260	-0.270	-0.390	-1.060
2020/01/31 09:40:09.9	116.240	-0.260	-0.420	-0.920
2020/01/31 09:40:10.0	116.220	-0.250	-0.460	-0.780
2020/01/31 09:40:10.1	116.210	-0.240	-0.490	-0.640
2020/01/31 09:40:10.2	116.190	-0.230	-0.520	-0.490
2020/01/31 09:40:10.3	116.180	-0.210	-0.540	-0.350
2020/01/31 09:40:10.4	116.170	-0.200	-0.570	-0.210
2020/01/31 09:40:10.5	116.160	-0.180	-0.590	-0.070
2020/01/31 09:40:10.6	116.150	-0.160	-0.610	0.070
2020/01/31 09:40:10.7	116.150	-0.150	-0.630	0.210
2020/01/31 09:40:10.8	116.140	-0.130	-0.640	0.350
2020/01/31 09:40:10.9	116.140	-0.110	-0.650	0.490
2020/01/31 09:40:11.0	116.140	-0.090	-0.660	0.620
2020/01/31 09:40:11.1	116.140	-0.070	-0.660	0.750
2020/01/31 09:40:11.2	116.130	-0.050	-0.670	0.890
2020/01/31 09:40:11.3	116.130	-0.030	-0.660	1.020
2020/01/31 09:40:11.4	116.150	-0.010	-0.660	1.140
2020/01/31 09:40:11.5	116.150	0.010	-0.650	1.270
2020/01/31 09:40:11.6	116.150	0.020	-0.640	1.390
2020/01/31 09:40:11.7	116.160	0.040	-0.620	1.510
2020/01/31 09:40:11.8	116.160	0.060	-0.610	1.630
2020/01/31 09:40:11.9	116.160	0.070	-0.590	1.740
2020/01/31 09:40:12.0	116.170	0.080	-0.570	1.850
2020/01/31 09:40:12.1	116.180	0.090	-0.540	1.950
2020/01/31 09:40:12.2	116.180	0.100	-0.520	2.050
2020/01/31 09:40:12.3	116.190	0.110	-0.490	2.150
2020/01/31 09:40:12.4	116.200	0.110	-0.460	2.240
2020/01/31 09:40:12.5	116.210	0.110	-0.430	2.330
2020/01/31 09:40:12.6	116.220	0.110	-0.390	2.420
2020/01/31 09:40:12.7	116.230	0.110	-0.360	2.490
2020/01/31 09:40:12.8	116.240	0.100	-0.330	2.570
2020/01/31 09:40:12.9	116.250	0.100	-0.290	2.640
2020/01/31 09:40:13.0	116.270	0.090	-0.250	2.700
2020/01/31 09:40:13.1	116.280	0.070	-0.220	2.760
2020/01/31 09:40:13.2	116.300	0.060	-0.180	2.820
2020/01/31 09:40:13.3	116.310	0.040	-0.150	2.870
2020/01/31 09:40:13.4	116.330	0.020	-0.110	2.910
2020/01/31 09:40:13.5	116.350	0.000	-0.080	2.950
2020/01/31 09:40:13.6	116.370	-0.020	-0.040	2.990
2020/01/31 09:40:13.7	116.390	-0.040	-0.010	3.020
2020/01/31 09:40:13.8	116.410	-0.070	0.020	3.040
2020/01/31 09:40:13.9	116.430	-0.090	0.060	3.070
2020/01/31 09:40:14.0	116.450	-0.120	0.090	3.080
2020/01/31 09:40:14.1	116.480	-0.150	0.120	3.100
2020/01/31 09:40:14.2	116.500	-0.180	0.140	3.110
2020/01/31 09:40:14.3	116.510	-0.210	0.170	3.110
2020/01/31 09:40:14.4	116.530	-0.240	0.200	3.110
2020/01/31 09:40:14.5	116.550	-0.270	0.220	3.110
2020/01/31 09:40:14.6	116.570	-0.300	0.240	3.110
2020/01/31 09:40:14.7	116.580	-0.330	0.260	3.100
2020/01/31 09:40:14.8	116.590	-0.360	0.280	3.090
2020/01/31 09:40:14.9	116.600	-0.390	0.300	3.080
2020/01/31 09:40:15.0	116.610	-0.420	0.310	3.060
2020/01/31 09:40:15.1	116.610	-0.450	0.320	3.050
2020/01/31 09:40:15.2	116.620	-0.470	0.330	3.030
2020/01/31 09:40:15.3	116.620	-0.490	0.340	3.010
2020/01/31 09:40:15.4	116.630	-0.510	0.340	2.990
2020/01/31 09:40:15.5	116.620	-0.530	0.340	2.960
2020/01/31 09:40:15.6	116.610	-0.540	0.340	2.940
2020/01/31 09:40:15.7	116.600	-0.550	0.330	2.910
2020/01/31 09:40:15.8	116.590	-0.560	0.320	2.880
2020/01/31 09:40:15.9	116.580	-0.560	0.310	2.840
2020/01/31 09:40:16.0	116.570	-0.560	0.290	2.800
2020/01/31 09:40:16.1	116.550	-0.560	0.270	2.760
2020/01/31 09:40:16.2	116.540	-0.550	0.240	2.720
2020/01/31 09:40:16.3	116.520	-0.540	0.210	2.670
2020/01/31 09:40:16.4	116.500	-0.530	0.180	2.620
2020/01/31 09:40:16.5	116.490	-0.510	0.140	2.560
2020/01/31 09:40:16.6	116.470	-0.490	0.100	2.500
2020/01/31 09:40:16.7	116.460	-0.460	0.050	2.430
2020/01/31 09:40:16.8	116.440	-0.430	0.000	2.360
2020/01/31 09:40:16.9	116.430	-0.390	-0.050	2.290
2020/01/31 09:40:17.0	116.420	-0.350	-0.100	2.210
2020/01/31 09:40:17.1	116.400	-0.310	-0.160	2.130
2020/01/31 09:40:17.2	116.390	-0.270	-0.220	2.050
2020/01/31 09:40:17.3	116.380	-0.220	-0.280	1.960
2020/01/31 09:40:17.4	116.370	-0.170	-0.340	1.860
2020/01/31 09:40:17.5	116.360	-0.120	-0.410	1.760
2020/01/31 09:40:17.6	116.350	-0.060	-0.470	1.660
2020/01/31 09:40:17.7	116.350	-0.010	-0.530	1.560
2020/01/31 09:40:17.8	116.340	0.050	-0.600	1.460
2020/01/31 09:40:17.9	116.330	0.110	-0.660	1.350
2020/01/31 09:40:18.0	116.320	0.170	-0.720	1.240
2020/01/31 09:40:18.1	116.320	0.230	-0.780	1.140
2020/01/31 09:40:18.2	116.310	0.290	-0.840	1.020
2020/01/31 09:40:18.3	116.310	0.340	-0.890	0.910
2020/01/31 09:40:18.4	116.290	0.400	-0.950	0.800
2020/01/31 09:40:18.5	116.290	0.460	-0.990	0.680
2020/01/31 09:40:18.6	116.280	0.510	-1.030	0.570
2020/01/31 09:40:18.7	116.270	0.560	-1.070	0.460
2020/01/31 09:40:18.8	116.270	0.610	-1.100	0.340
2020/01/31 09:40:18.9	116.260	0.650	-1.120	0.230
2020/01/31 09:40:19.0	116.250	0.690	-1.140	0.110
2020/01/31 09:40:19.1	116.250	0.730	-1.150	-0.000
2020/01/31 09:40:19.2	116.240	0.760	-1.150	-0.110
2020/01/31 09:40:19.3	116.230	0.780	-1.140	-0.230
2020/01/31 09:40:19.4	116.210	0.800	-1.130	-0.340
2020/01/31 09:40:19.5	116.200	0.820	-1.100	-0.450
2020/01/31 09:40:19.6	116.190	0.830	-1.070	-0.560
2020/01/31 09:40:19.7	116.190	0.840	-1.030	-0.660
2020/01/31 09:40:19.8	116.180	0.840	-0.990	-0.770
2020/01/31 09:40:19.9	116.180	0.830	-0.930	-0.870
2020/01/31 09:40:20.0	116.170	0.820	-0.870	-0.970
2020/01/31 09:40:20.1	116.170	0.810	-0.800	-1.070
2020/01/31 09:40:20.2	116.160	0.790	-0.720	-1.170
2020/01/31 09:40:20.3	116.160	0.760	-0.640	-1.260
2020/01/31 09:40:20.4	116.160	0.730	-0.550	-1.350
2020/01/31 09:40:20.5	116.160	0.690	-0.460	-1.430
2020/01/31 09:40:20.6	116.160	0.650	-0.360	-1.510
2020/01/31 09:40:20.7	116.150	0.610	-0.250	-1.590
2020/01/31 09:40:20.8	116.150	0.560	-0.150	-1.660
2020/01/31 09:40:20.9	116.150	0.510	-0.040	-1.720
2020/01/31 09:40:21.0	116.150	0.450	0.070	-1.780
2020/01/31 09:40:21.1	116.160	0.400	0.170	-1.840
2020/01/31 09:40:21.2	116.160	0.340	0.280	-1.890
2020/01/31 09:40:21.3	116.160	0.280	0.390	-1.930
2020/01/31 09:40:21.4	116.160	0.220	0.490	-1.970
2020/01/31 09:40:21.5	116.170	0.160	0.590	-2.010
2020/01/31 09:40:21.6	116.170	0.100	0.690	-2.040
2020/01/31 09:40:21.7	116.180	0.030	0.780	-2.060
2020/01/31 09:40:21.8	116.190	-0.030	0.860	-2.080
2020/01/31 09:40:21.9	116.200	-0.090	0.940	-2.090
2020/01/31 09:40:22.0	116.210	-0.150	1.010	-2.100
2020/01/31 09:40:22.1	116.220	-0.200	1.070	-2.100
2020/01/31 09:40:22.2	116.240	-0.260	1.130	-2.100
2020/01/31 09:40:22.3	116.260	-0.310	1.170	-2.090
2020/01/31 09:40:22.4	116.270	-0.360	1.210	-2.070
2020/01/31 09:40:22.5	116.290	-0.400	1.230	-2.060
2020/01/31 09:40:22.6	116.310	-0.440	1.250	-2.030
2020/01/31 09:40:22.7	116.330	-0.480	1.250	-2.000
2020/01/31 09:40:22.8	116.350	-0.510	1.240	-1.970
2020/01/31 09:40:22.9	116.370	-0.540	1.220	-1.930
2020/01/31 09:40:23.0	116.390	-0.560	1.200	-1.890
2020/01/31 09:40:23.1	116.410	-0.580	1.160	-1.840
2020/01/31 09:40:23.2	116.430	-0.590	1.110	-1.780
2020/01/31 09:40:23.3	116.450	-0.600	1.050	-1.730
2020/01/31 09:40:23.4	116.460	-0.610	0.990	-1.660
2020/01/31 09:40:23.5	116.480	-0.610	0.910	-1.590
2020/01/31 09:40:23.6	116.500	-0.600	0.830	-1.510
2020/01/31 09:40:23.7	116.510	-0.590	0.740	-1.430
2020/01/31 09:40:23.8	116.520	-0.580	0.650	-1.350
2020/01/31 09:40:23.9	116.530	-0.560	0.550	-1.260
2020/01/31 09:40:24.0	116.540	-0.540	0.440	-1.160
2020/01/31 09:40:24.1	116.550	-0.510	0.330	-1.060
2020/01/31 09:40:24.2	116.560	-0.490	0.220	-0.950
2020/01/31 09:40:24.3	116.560	-0.460	0.110	-0.840
2020/01/31 09:40:24.4	116.580	-0.430	-0.010	-0.730
2020/01/31 09:40:24.5	116.580	-0.390	-0.120	-0.610
2020/01/31 09:40:24.6	116.580	-0.360	-0.240	-0.490
2020/01/31 09:40:24.7	116.580	-0.320	-0.350	-0.370
2020/01/31 09:40:24.8	116.580	-0.280	-0.470	-0.240
2020/01/31 09:40:24.9	116.580	-0.240	-0.580	-0.110
2020/01/31 09:40:25.0	116.580	-0.200	-0.680	0.020
2020/01/31 09:40:25.1	116.580	-0.160	-0.780	0.160
2020/01/31 09:40:25.2	116.580	-0.130	-0.880	0.290
2020/01/31 09:40:25.3	116.580	-0.090	-0.970	0.430
2020/01/31 09:40:25.4	116.560	-0.050	-1.060	0.570
2020/01/31 09:40:25.5	116.560	-0.020	-1.140	0.710
2020/01/31 09:40:25.6	116.550	0.020	-1.210	0.850
2020/01/31 09:40:25.7	116.550	0.050	-1.280	0.990
2020/01/31 09:40:25.8	116.550	0.080	-1.340	1.130
2020/01/31 09:40:25.9	116.540	0.110	-1.390	1.280
2020/01/31 09:40:26.0	116.530	0.130	-1.440	1.420
2020/01/31 09:40:26.1	116.530	0.160	-1.470	1.560
2020/01/31 09:40:26.2	116.520	0.180	-1.500	1.710
2020/01/31 09:40:26.3	116.510	0.200	-1.520	1.850
2020/01/31 09:40:26.4	116.490	0.220	-1.530	1.990
2020/01/31 09:40:26.5	116.480	0.230	-1.530	2.120
2020/01/31 09:40:26.6	116.470	0.240	-1.530	2.260
2020/01/31 09:40:26.7	116.460	0.250	-1.520	2.390
2020/01/31 09:40:26.8	116.450	0.260	-1.490	2.520
2020/01/31 09:40:26.9	116.440	0.260	-1.470	2.650
2020/01/31 09:40:27.0	116.430	0.260	-1.430	2.770
2020/01/31 09:40:27.1	116.420	0.260	-1.390	2.890
2020/01/31 09:40:27.2	116.400	0.260	-1.340	3.000
2020/01/31 09:40:27.3	116.390	0.250	-1.280	3.110
2020/01/31 09:40:27.4	116.380	0.250	-1.220	3.220
2020/01/31 09:40:27.5	116.360	0.240	-1.150	3.310
2020/01/31 09:40:27.6	116.350	0.230	-1.070	3.400
2020/01/31 09:40:27.7	116.340	0.210	-0.990	3.480
2020/01/31 09:40:27.8	116.320	0.200	-0.910	3.560
2020/01/31 09:40:27.9	116.310	0.190	-0.820	3.620
2020/01/31 09:40:28.0	116.300	0.170	-0.730	3.680
2020/01/31 09:40:28.1	116.290	0.160	-0.640	3.730
2020/01/31 09:40:28.2	116.280	0.140	-0.540	3.770
2020/01/31 09:40:28.3	116.270	0.120	-0.440	3.800
2020/01/31 09:40:28.4	116.260	0.110	-0.350	3.820
2020/01/31 09:40:28.5	116.250	0.090	-0.250	3.830
2020/01/31 09:40:28.6	116.240	0.080	-0.160	3.840
2020/01/31 09:40:28.7	116.240	0.060	-0.060	3.830
2020/01/31 09:40:28.8	116.230	0.050	0.030	3.820
2020/01/31 09:40:28.9	116.230	0.030	0.120	3.800
2020/01/31 09:40:29.0	116.230	0.020	0.200	3.760
2020/01/31 09:40:29.1	116.230	0.010	0.280	3.720
2020/01/31 09:40:29.2	116.230	-0.000	0.360	3.670
2020/01/31 09:40:29.3	116.230	-0.010	0.430	3.610
2020/01/31 09:40:29.4	116.240	-0.020	0.500	3.540
2020/01/31 09:40:29.5	116.240	-0.030	0.560	3.470
2020/01/31 09:40:29.6	116.250	-0.040	0.610	3.380
2020/01/31 09:40:29.7	116.250	-0.040	0.660	3.290
2020/01/31 09:40:29.8	116.260	-0.050	0.710	3.200
2020/01/31 09:40:29.9	116.270	-0.050	0.740	3.100
2020/01/31 09:40:30.0	116.280	-0.060	0.770	2.990
2020/01/31 09:40:30.1	116.280	-0.060	0.800	2.880
2020/01/31 09:40:30.2	116.290	-0.060	0.820	2.760
2020/01/31 09:40:30.3	116.300	-0.060	0.830	2.640
2020/01/31 09:40:30.4	116.310	-0.060	0.830	2.510
2020/01/31 09:40:30.5	116.320	-0.060	0.830	2.380
2020/01/31 09:40:30.6	116.330	-0.060	0.820	2.250
2020/01/31 09:40:30.7	116.340	-0.060	0.810	2.120
2020/01/31 09:40:30.8	116.350	-0.060	0.790	1.990
2020/01/31 09:40:30.9	116.350	-0.060	0.770	1.850
2020/01/31 09:40:31.0	116.360	-0.050	0.740	1.720
2020/01/31 09:40:31.1	116.370	-0.050	0.710	1.580
2020/01/31 09:40:31.2	116.380	-0.050	0.670	1.450
2020/01/31 09:40:31.3	116.380	-0.050	0.630	1.310
2020/01/31 09:40:31.4	116.390	-0.040	0.590	1.170
2020/01/31 09:40:31.5	116.390	-0.040	0.540	1.030
2020/01/31 09:40:31.6	116.400	-0.040	0.500	0.890
2020/01/31 09:40:31.7	116.410	-0.040	0.450	0.760
2020/01/31 09:40:31.8	116.410	-0.030	0.390	0.620
2020/01/31 09:40:31.9	116.420	-0.030	0.340	0.490
2020/01/31 09:40:32.0	116.420	-0.030	0.290	0.360
2020/01/31 09:40:32.1	116.430	-0.020	0.230	0.220
2020/01/31 09:40:32.2	116.430	-0.020	0.170	0.100
2020/01/31 09:40:32.3	116.440	-0.020	0.120	-0.030
2020/01/31 09:40:32.4	116.440	-0.010	0.060	-0.160
2020/01/31 09:40:32.5	116.440	-0.010	0.000	-0.280
2020/01/31 09:40:32.6	116.450	-0.010	-0.050	-0.400
2020/01/31 09:40:32.7	116.450	-0.000	-0.110	-0.520
2020/01/31 09:40:32.8	116.450	0.000	-0.160	-0.630
2020/01/31 09:40:32.9	116.450	0.010	-0.220	-0.740
2020/01/31 09:40:33.0	116.450	0.010	-0.270	-0.850
2020/01/31 09:40:33.1	116.450	0.010	-0.320	-0.950
2020/01/31 09:40:33.2	116.450	0.020	-0.360	-1.050
2020/01/31 09:40:33.3	116.450	0.020	-0.410	-1.150
2020/01/31 09:40:33.4	116.440	0.030	-0.450	-1.240
2020/01/31 09:40:33.5	116.440	0.030	-0.490	-1.320
2020/01/31 09:40:33.6	116.440	0.030	-0.530	-1.410
2020/01/31 09:40:33.7	116.430	0.040	-0.560	-1.480
2020/01/31 09:40:33.8	116.430	0.040	-0.590	-1.550
2020/01/31 09:40:33.9	116.420	0.050	-0.620	-1.620
2020/01/31 09:40:34.0	116.420	0.050	-0.650	-1.680
2020/01/31 09:40:34.1	116.410	0.050	-0.670	-1.740
2020/01/31 09:40:34.2	116.410	0.050	-0.690	-1.790
2020/01/31 09:40:34.3	116.400	0.060	-0.710	-1.830
2020/01/31 09:40:34.4	116.400	0.060	-0.720	-1.870
2020/01/31 09:40:34.5	116.390	0.060	-0.730	-1.910
2020/01/31 09:40:34.6	116.380	0.060	-0.730	-1.930
2020/01/31 09:40:34.7	116.380	0.060	-0.740	-1.950
2020/01/31 09:40:34.8	116.370	0.060	-0.740	-1.970
2020/01/31 09:40:34.9	116.360	0.060	-0.730	-1.970
2020/01/31 09:40:35.0	116.360	0.060	-0.730	-1.970
2020/01/31 09:40:35.1	116.350	0.060	-0.720	-1.960
2020/01/31 09:40:35.2	116.340	0.060	-0.710	-1.950
2020/01/31 09:40:35.3	116.330	0.050	-0.700	-1.930
2020/01/31 09:40:35.4	116.310	0.050	-0.680	-1.890
2020/01/31 09:40:35.5	116.300	0.050	-0.660	-1.860
2020/01/31 09:40:35.6	116.290	0.050	-0.640	-1.820
2020/01/31 09:40:35.7	116.280	0.040	-0.620	-1.770
2020/01/31 09:40:35.8	116.270	0.040	-0.600	-1.710
2020/01/31 09:40:35.9	116.250	0.030	-0.570	-1.650
2020/01/31 09:40:36.0	116.240	0.030	-0.550	-1.580
2020/01/31 09:40:36.1	116.230	0.030	-0.520	-1.500
2020/01/31 09:40:36.2	116.210	0.020	-0.490	-1.430
2020/01/31 09:40:36.3	116.200	0.020	-0.460	-1.340
2020/01/31 09:40:36.4	116.200	0.020	-0.420	-1.250
2020/01/31 09:40:36.5	116.190	0.010	-0.390	-1.160
2020/01/31 09:40:36.6	116.170	0.010	-0.360	-1.060
2020/01/31 09:40:36.7	116.160	0.010	-0.320	-0.960
2020/01/31 09:40:36.8	116.140	0.000	-0.290	-0.860
2020/01/31 09:40:36.9	116.130	0.000	-0.260	-0.760
2020/01/31 09:40:37.0	116.120	0.000	-0.230	-0.650
2020/01/31 09:40:37.1	116.110	-0.000	-0.190	-0.540
2020/01/31 09:40:37.2	116.100	-0.000	-0.160	-0.430
2020/01/31 09:40:37.3	116.090	-0.000	-0.130	-0.320
2020/01/31 09:40:37.4	116.080	-0.000	-0.100	-0.210
2020/01/31 09:40:37.5	116.070	-0.000	-0.070	-0.100
2020/01/31 09:40:37.6	116.070	0.000	-0.040	0.010
2020/01/31 09:40:37.7	116.070	0.000	-0.020	0.120
2020/01/31 09:40:37.8	116.070	0.000	0.000	0.230
2020/01/31 09:40:37.9	116.070	0.010	0.020	0.330
2020/01/31 09:40:38.0	116.070	0.010	0.040	0.440
2020/01/31 09:40:38.1	116.070	0.020	0.060	0.540
2020/01/31 09:40:38.2	116.080	0.020	0.070	0.650
2020/01/31 09:40:38.3	116.090	0.020	0.080	0.750
2020/01/31 09:40:38.4	116.090	0.030	0.090	0.840
2020/01/31 09:40:38.5	116.100	0.040	0.100	0.940
2020/01/31 09:40:38.6	116.110	0.040	0.100	1.030
2020/01/31 09:40:38.7	116.130	0.050	0.100	1.130
2020/01/31 09:40:38.8	116.140	0.060	0.100	1.220
2020/01/31 09:40:38.9	116.150	0.060	0.090	1.310
2020/01/31 09:40:39.0	116.170	0.070	0.080	1.390
2020/01/31 09:40:39.1	116.180	0.080	0.070	1.480
2020/01/31 09:40:39.2	116.200	0.090	0.060	1.560
2020/01/31 09:40:39.3	116.220	0.100	0.040	1.640
2020/01/31 09:40:39.4	116.220	0.100	0.030	1.720
2020/01/31 09:40:39.5	116.240	0.110	0.010	1.800
2020/01/31 09:40:39.6	116.250	0.110	-0.010	1.880
2020/01/31 09:40:39.7	116.270	0.120	-0.030	1.950
2020/01/31 09:40:39.8	116.280	0.120	-0.040	2.030
2020/01/31 09:40:39.9	116.300	0.130	-0.060	2.100
2020/01/31 09:40:40.0	116.310	0.130	-0.080	2.170
2020/01/31 09:40:40.1	116.330	0.130	-0.100	2.240
2020/01/31 09:40:40.2	116.340	0.130	-0.110	2.300
2020/01/31 09:40:40.3	116.360	0.120	-0.130	2.370
2020/01/31 09:40:40.4	116.370	0.120	-0.140	2.430
2020/01/31 09:40:40.5	116.390	0.110	-0.140	2.490
2020/01/31 09:40:40.6	116.400	0.100	-0.150	2.550
2020/01/31 09:40:40.7	116.410	0.090	-0.150	2.610
2020/01/31 09:40:40.8	116.420	0.080	-0.150	2.660
2020/01/31 09:40:40.9	116.430	0.070	-0.150	2.710
2020/01/31 09:40:41.0	116.440	0.060	-0.140	2.760
2020/01/31 09:40:41.1	116.450	0.040	-0.130	2.800
2020/01/31 09:40:41.2	116.460	0.020	-0.120	2.850
2020/01/31 09:40:41.3	116.460	0.000	-0.110	2.880
2020/01/31 09:40:41.4	116.480	-0.010	-0.090	2.920
2020/01/31 09:40:41.5	116.480	-0.030	-0.070	2.950
2020/01/31 09:40:41.6	116.480	-0.050	-0.050	2.970
2020/01/31 09:40:41.7	116.480	-0.070	-0.030	3.000
2020/01/31 09:40:41.8	116.480	-0.090	-0.010	3.020
2020/01/31 09:40:41.9	116.470	-0.110	0.010	3.040
2020/01/31 09:40:42.0	116.460	-0.130	0.030	3.050
2020/01/31 09:40:42.1	116.450	-0.150	0.060	3.060
2020/01/31 09:40:42.2	116.440	-0.170	0.070	3.060
2020/01/31 09:40:42.3	116.430	-0.180	0.090	3.060
2020/01/31 09:40:42.4	116.430	-0.200	0.100	3.060
2020/01/31 09:40:42.5	116.410	-0.210	0.120	3.050
2020/01/31 09:40:42.6	116.390	-0.220	0.120	3.030
2020/01/31 09:40:42.7	116.370	-0.220	0.130	3.020
2020/01/31 09:40:42.8	116.360	-0.230	0.130	2.990
2020/01/31 09:40:42.9	116.340	-0.230	0.120	2.960
2020/01/31 09:40:43.0	116.320	-0.230	0.120	2.930
2020/01/31 09:40:43.1	116.300	-0.230	0.110	2.890
2020/01/31 09:40:43.2	116.280	-0.220	0.090	2.840
2020/01/31 09:40:43.3	116.260	-0.210	0.070	2.790
2020/01/31 09:40:43.4	116.240	-0.200	0.040	2.730
2020/01/31 09:40:43.5	116.230	-0.190	0.020	2.670
2020/01/31 09:40:43.6	116.210	-0.170	-0.010	2.600
2020/01/31 09:40:43.7	116.200	-0.160	-0.050	2.520
2020/01/31 09:40:43.8	116.190	-0.140	-0.090	2.440
2020/01/31 09:40:43.9	116.180	-0.110	-0.130	2.360
2020/01/31 09:40:44.0	116.170	-0.090	-0.170	2.270
2020/01/31 09:40:44.1	116.160	-0.060	-0.210	2.170
2020/01/31 09:40:44.2	116.150	-0.040	-0.260	2.080
2020/01/31 09:40:44.3	116.150	-0.010	-0.300	1.970
2020/01/31 09:40:44.4	116.130	0.020	-0.350	1.860
2020/01/31 09:40:44.5	116.120	0.050	-0.390	1.760
2020/01/31 09:40:44.6	116.120	0.080	-0.440	1.650
2020/01/31 09:40:44.7	116.120	0.110	-0.480	1.540
2020/01/31 09:40:44.8	116.130	0.140	-0.530	1.420
2020/01/31 09:40:44.9	116.130	0.170	-0.570	1.310
2020/01/31 09:40:45.0	116.130	0.200	-0.610	1.200
2020/01/31 09:40:45.1	116.140	0.220	-0.640	1.080
2020/01/31 09:40:45.2	116.140	0.250	-0.680	0.970
2020/01/31 09:40:45.3	116.150	0.270	-0.710	0.850
2020/01/31 09:40:45.4	116.150	0.290	-0.730	0.740
2020/01/31 09:40:45.5	116.160	0.310	-0.760	0.630
2020/01/31 09:40:45.6	116.160	0.330	-0.780	0.520
2020/01/31 09:40:45.7	116.170	0.350	-0.790	0.410
2020/01/31 09:40:45.8	116.170	0.360	-0.810	0.300
2020/01/31 09:40:45.9	116.170	0.370	-0.820	0.200
2020/01/31 09:40:46.0	116.180	0.370	-0.820	0.090
2020/01/31 09:40:46.1	116.180	0.380	-0.820	-0.010
2020/01/31 09:40:46.2	116.180	0.380	-0.820	-0.110
2020/01/31 09:40:46.3	116.180	0.380	-0.810	-0.200
2020/01/31 09:40:46.4	116.180	0.370	-0.800	-0.290
2020/01/31 09:40:46.5	116.190	0.360	-0.780	-0.380
2020/01/31 09:40:46.6	116.190	0.350	-0.760	-0.470
2020/01/31 09:40:46.7	116.190	0.340	-0.740	-0.560
2020/01/31 09:40:46.8	116.190	0.320	-0.710	-0.640
2020/01/31 09:40:46.9	116.190	0.300	-0.680	-0.710
2020/01/31 09:40:47.0	116.190	0.270	-0.640	-0.790
2020/01/31 09:40:47.1	116.190	0.250	-0.610	-0.860
2020/01/31 09:40:47.2	116.190	0.220	-0.560	-0.930
2020/01/31 09:40:47.3	116.190	0.190	-0.520	-0.990
2020/01/31 09:40:47.4	116.190	0.160	-0.470	-1.050
2020/01/31 09:40:47.5	116.190	0.130	-0.420	-1.100
2020/01/31 09:40:47.6	116.200	0.090	-0.370	-1.150
2020/01/31 09:40:47.7	116.200	0.060	-0.310	-1.200
2020/01/31 09:40:47.8	116.200	0.020	-0.260	-1.230
2020/01/31 09:40:47.9	116.210	-0.020	-0.200	-1.270
2020/01/31 09:40:48.0	116.210	-0.060	-0.140	-1.300
2020/01/31 09:40:48.1	116.220	-0.090	-0.080	-1.320
2020/01/31 09:40:48.2	116.220	-0.130	-0.020	-1.340
2020/01/31 09:40:48.3	116.230	-0.170	0.040	-1.360
2020/01/31 09:40:48.4	116.240	-0.210	0.100	-1.370
2020/01/31 09:40:48.5	116.240	-0.240	0.160	-1.370
2020/01/31 09:40:48.6	116.250	-0.280	0.220	-1.370
2020/01/31 09:40:48.7	116.260	-0.310	0.270	-1.360
2020/01/31 09:40:48.8	116.270	-0.350	0.330	-1.350
2020/01/31 09:40:48.9	116.280	-0.380	0.380	-1.330
2020/01/31 09:40:49.0	116.280	-0.400	0.430	-1.310
2020/01/31 09:40:49.1	116.290	-0.430	0.470	-1.280
2020/01/31 09:40:49.2	116.300	-0.450	0.510	-1.240
2020/01/31 09:40:49.3	116.310	-0.470	0.550	-1.210
2020/01/31 09:40:49.4	116.330	-0.490	0.580	-1.160
2020/01/31 09:40:49.5	116.340	-0.500	0.610	-1.120
2020/01/31 09:40:49.6	116.350	-0.510	0.640	-1.070
2020/01/31 09:40:49.7	116.360	-0.520	0.660	-1.020
2020/01/31 09:40:49.8	116.370	-0.530	0.670	-0.960
2020/01/31 09:40:49.9	116.380	-0.530	0.680	-0.900
2020/01/31 09:40:50.0	116.390	-0.520	0.680	-0.850
2020/01/31 09:40:50.1	116.390	-0.520	0.680	-0.780
2020/01/31 09:40:50.2	116.400	-0.510	0.680	-0.720
2020/01/31 09:40:50.3	116.410	-0.500	0.660	-0.660
2020/01/31 09:40:50.4	116.420	-0.480	0.650	-0.590
2020/01/31 09:40:50.5	116.430	-0.460	0.630	-0.530
2020/01/31 09:40:50.6	116.440	-0.440	0.600	-0.460
2020/01/31 09:40:50.7	116.450	-0.420	0.570	-0.400
2020/01/31 09:40:50.8	116.460	-0.390	0.530	-0.330
2020/01/31 09:40:50.9	116.470	-0.370	0.490	-0.270
2020/01/31 09:40:51.0	116.490	-0.330	0.440	-0.200
2020/01/31 09:40:51.1	116.500	-0.300	0.390	-0.140
2020/01/31 09:40:51.2	116.510	-0.270	0.340	-0.070
2020/01/31 09:40:51.3	116.520	-0.230	0.290	-0.010
2020/01/31 09:40:51.4	116.520	-0.190	0.230	0.050
2020/01/31 09:40:51.5	116.540	-0.160	0.170	0.120
2020/01/31 09:40:51.6	116.550	-0.120	0.100	0.180
2020/01/31 09:40:51.7	116.560	-0.080	0.040	0.240
2020/01/31 09:40:51.8	116.570	-0.040	-0.030	0.310
2020/01/31 09:40:51.9	116.580	0.000	-0.090	0.370
2020/01/31 09:40:52.0	116.590	0.040	-0.160	0.430
2020/01/31 09:40:52.1	116.610	0.080	-0.220	0.500
2020/01/31 09:40:52.2	116.620	0.120	-0.290	0.560
2020/01/31 09:40:52.3	116.630	0.160	-0.350	0.630
2020/01/31 09:40:52.4	116.630	0.200	-0.410	0.690
2020/01/31 09:40:52.5	116.640	0.240	-0.470	0.750
2020/01/31 09:40:52.6	116.650	0.280	-0.530	0.820
2020/01/31 09:40:52.7	116.660	0.310	-0.580	0.880
2020/01/31 09:40:52.8	116.660	0.350	-0.630	0.950
2020/01/31 09:40:52.9	116.670	0.380	-0.680	1.010
2020/01/31 09:40:53.0	116.670	0.410	-0.730	1.080
2020/01/31 09:40:53.1	116.680	0.440	-0.770	1.140
2020/01/31 09:40:53.2	116.680	0.470	-0.800	1.210
2020/01/31 09:40:53.3	116.680	0.490	-0.830	1.270
2020/01/31 09:40:53.4	116.660	0.510	-0.860	1.340
2020/01/31 09:40:53.5	116.660	0.530	-0.880	1.400
2020/01/31 09:40:53.6	116.660	0.550	-0.900	1.470
2020/01/31 09:40:53.7	116.660	0.570	-0.910	1.530
2020/01/31 09:40:53.8	116.660	0.580	-0.920	1.590
2020/01/31 09:40:53.9	116.660	0.600	-0.920	1.650
2020/01/31 09:40:54.0	116.660	0.610	-0.920	1.710
2020/01/31 09:40:54.1	116.650	0.610	-0.910	1.770
2020/01/31 09:40:54.2	116.650	0.620	-0.900	1.830
2020/01/31 09:40:54.3	116.650	0.620	-0.880	1.890
2020/01/31 09:40:54.4	116.640	0.620	-0.860	1.940
2020/01/31 09:40:54.5	116.650	0.620	-0.840	1.990
2020/01/31 09:40:54.6	116.650	0.610	-0.810	2.040
2020/01/31 09:40:54.7	116.650	0.610	-0.770	2.080
2020/01/31 09:40:54.8	116.650	0.600	-0.740	2.120
2020/01/31 09:40:54.9	116.660	0.580	-0.700	2.160
2020/01/31 09:40:55.0	116.660	0.570	-0.660	2.200
2020/01/31 09:40:55.1	116.670	0.550	-0.620	2.230
2020/01/31 09:40:55.2	116.680	0.540	-0.570	2.250
2020/01/31 09:40:55.3	116.690	0.520	-0.520	2.270
2020/01/31 09:40:55.4	116.710	0.490	-0.470	2.290
2020/01/31 09:40:55.5	116.720	0.470	-0.420	2.310
2020/01/31 09:40:55.6	116.740	0.440	-0.370	2.320
2020/01/31 09:40:55.7	116.750	0.410	-0.320	2.320
2020/01/31 09:40:55.8	116.770	0.380	-0.270	2.330
2020/01/31 09:40:55.9	116.780	0.350	-0.220	2.320
2020/01/31 09:40:56.0	116.800	0.320	-0.160	2.320
2020/01/31 09:40:56.1	116.820	0.280	-0.110	2.310
2020/01/31 09:40:56.2	116.840	0.250	-0.060	2.300
2020/01/31 09:40:56.3	116.860	0.210	-0.010	2.280
2020/01/31 09:40:56.4	116.880	0.170	0.030	2.270
2020/01/31 09:40:56.5	116.900	0.140	0.080	2.240
2020/01/31 09:40:56.6	116.920	0.100	0.130	2.220
2020/01/31 09:40:56.7	116.940	0.060	0.170	2.190
2020/01/31 09:40:56.8	116.960	0.020	0.210	2.160
2020/01/31 09:40:56.9	116.980	-0.020	0.240	2.120
2020/01/31 09:40:57.0	117.000	-0.060	0.280	2.090
2020/01/31 09:40:57.1	117.010	-0.100	0.310	2.050
2020/01/31 09:40:57.2	117.030	-0.140	0.340	2.010
2020/01/31 09:40:57.3	117.040	-0.180	0.360	1.970
2020/01/31 09:40:57.4	117.060	-0.210	0.380	1.930
2020/01/31 09:40:57.5	117.070	-0.250	0.400	1.890
2020/01/31 09:40:57.6	117.080	-0.290	0.410	1.850
2020/01/31 09:40:57.7	117.090	-0.320	0.420	1.810
2020/01/31 09:40:57.8	117.090	-0.350	0.420	1.770
2020/01/31 09:40:57.9	117.100	-0.380	0.430	1.730
2020/01/31 09:40:58.0	117.100	-0.410	0.420	1.690
2020/01/31 09:40:58.1	117.090	-0.440	0.420	1.650
2020/01/31 09:40:58.2	117.090	-0.470	0.410	1.620
2020/01/31 09:40:58.3	117.080	-0.490	0.390	1.580
2020/01/31 09:40:58.4	117.060	-0.510	0.370	1.550
2020/01/31 09:40:58.5	117.050	-0.530	0.350	1.510
2020/01/31 09:40:58.6	117.030	-0.550	0.320	1.480
2020/01/31 09:40:58.7	117.020	-0.560	0.300	1.450
2020/01/31 09:40:58.8	117.000	-0.570	0.260	1.420
2020/01/31 09:40:58.9	116.980	-0.580	0.230	1.390
2020/01/31 09:40:59.0	116.960	-0.590	0.200	1.360
2020/01/31 09:40:59.1	116.940	-0.600	0.160	1.330
2020/01/31 09:40:59.2	116.920	-0.600	0.120	1.300
2020/01/31 09:40:59.3	116.900	-0.600	0.080	1.270
2020/01/31 09:40:59.4	116.860	-0.600	0.040	1.230
2020/01/31 09:40:59.5	116.840	-0.600	-0.000	1.190
2020/01/31 09:40:59.6	116.820	-0.590	-0.050	1.160
2020/01/31 09:40:59.7	116.800	-0.590	-0.090	1.120
2020/01/31 09:40:59.8	116.790	-0.580	-0.130	1.080
2020/01/31 09:40:59.9	116.770	-0.570	-0.170	1.040
2020/01/31 09:41:00.0	116.760	-0.560	-0.210	1.000
2020/01/31 09:41:00.1	116.740	-0.550	-0.250	0.960
2020/01/31 09:41:00.2	116.730	-0.540	-0.290	0.910
2020/01/31 09:41:00.3	116.720	-0.520	-0.320	0.870
2020/01/31 09:41:00.4	116.720	-0.500	-0.360	0.820
2020/01/31 09:41:00.5	116.710	-0.490	-0.390	0.770
2020/01/31 09:41:00.6	116.710	-0.470	-0.420	0.730
2020/01/31 09:41:00.7	116.700	-0.450	-0.450	0.680
2020/01/31 09:41:00.8	116.690	-0.430	-0.480	0.630
2020/01/31 09:41:00.9	116.690	-0.410	-0.500	0.580
2020/01/31 09:41:01.0	116.690	-0.380	-0.520	0.530
2020/01/31 09:41:01.1	116.690	-0.360	-0.550	0.480
2020/01/31 09:41:01.2	116.690	-0.330	-0.560	0.430
2020/01/31 09:41:01.3	116.690	-0.310	-0.580	0.380
2020/01/31 09:41:01.4	116.690	-0.280	-0.600	0.330
2020/01/31 09:41:01.5	116.690	-0.250	-0.610	0.280
2020/01/31 09:41:01.6	116.700	-0.230	-0.620	0.240
2020/01/31 09:41:01.7	116.700	-0.200	-0.630	0.190
2020/01/31 09:41:01.8	116.710	-0.170	-0.640	0.140
2020/01/31 09:41:01.9	116.720	-0.140	-0.650	0.090
2020/01/31 09:41:02.0	116.730	-0.110	-0.660	0.040
2020/01/31 09:41:02.1	116.740	-0.080	-0.670	-0.000
2020/01/31 09:41:02.2	116.750	-0.050	-0.670	-0.050
2020/01/31 09:41:02.3	116.760	-0.010	-0.680	-0.090
2020/01/31 09:41:02.4	116.790	0.020	-0.680	-0.140
2020/01/31 09:41:02.5	116.800	0.050	-0.680	-0.180
2020/01/31 09:41:02.6	116.820	0.080	-0.690	-0.220
2020/01/31 09:41:02.7	116.830	0.110	-0.690	-0.260
2020/01/31 09:41:02.8	116.840	0.140	-0.680	-0.300
2020/01/31 09:41:02.9	116.860	0.170	-0.680	-0.340
2020/01/31 09:41:03.0	116.870	0.200	-0.680	-0.370
2020/01/31 09:41:03.1	116.880	0.230	-0.670	-0.400
2020/01/31 09:41:03.2	116.900	0.250	-0.670	-0.430
2020/01/31 09:41:03.3	116.910	0.280	-0.660	-0.460
2020/01/31 09:41:03.4	116.910	0.310	-0.640	-0.480
2020/01/31 09:41:03.5	116.920	0.330	-0.630	-0.500
2020/01/31 09:41:03.6	116.930	0.350	-0.610	-0.520
2020/01/31 09:41:03.7	116.940	0.370	-0.590	-0.540
2020/01/31 09:41:03.8	116.950	0.390	-0.560	-0.550
2020/01/31 09:41:03.9	116.950	0.410	-0.530	-0.560
2020/01/31 09:41:04.0	116.960	0.420	-0.500	-0.570
2020/01/31 09:41:04.1	116.970	0.430	-0.460	-0.580
2020/01/31 09:41:04.2	116.970	0.440	-0.420	-0.580
2020/01/31 09:41:04.3	116.980	0.450	-0.370	-0.580
2020/01/31 09:41:04.4	116.980	0.460	-0.320	-0.580
2020/01/31 09:41:04.5	116.990	0.460	-0.270	-0.570
2020/01/31 09:41:04.6	117.000	0.460	-0.210	-0.570
2020/01/31 09:41:04.7	117.010	0.450	-0.140	-0.560
2020/01/31 09:41:04.8	117.010	0.450	-0.080	-0.550
2020/01/31 09:41:04.9	117.020	0.440	-0.010	-0.530
2020/01/31 09:41:05.0	117.030	0.430	0.060	-0.520
2020/01/31 09:41:05.1	117.040	0.410	0.140	-0.500
2020/01/31 09:41:05.2	117.060	0.400	0.210	-0.480
2020/01/31 09:41:05.3	117.070	0.380	0.290	-0.450
2020/01/31 09:41:05.4	117.100	0.360	0.360	-0.430
2020/01/31 09:41:05.5	117.110	0.340	0.440	-0.400
2020/01/31 09:41:05.6	117.120	0.310	0.510	-0.370
2020/01/31 09:41:05.7	117.130	0.290	0.580	-0.340
2020/01/31 09:41:05.8	117.140	0.260	0.650	-0.310
2020/01/31 09:41:05.9	117.160	0.240	0.710	-0.270
2020/01/31 09:41:06.0	117.170	0.210	0.770	-0.230
2020/01/31 09:41:06.1	117.180	0.180	0.820	-0.190
2020/01/31 09:41:06.2	117.180	0.150	0.870	-0.140
2020/01/31 09:41:06.3	117.190	0.120	0.910	-0.090
2020/01/31 09:41:06.4	117.210	0.100	0.940	-0.050
2020/01/31 09:41:06.5	117.210	0.070	0.960	0.010
2020/01/31 09:41:06.6	117.210	0.050	0.980	0.070
2020/01/31 09:41:06.7	117.210	0.020	0.990	0.130
2020/01/31 09:41:06.8	117.210	-0.000	0.990	0.190
2020/01/31 09:41:06.9	117.200	-0.020	0.980	0.260
2020/01/31 09:41:07.0	117.190	-0.040	0.960	0.330
2020/01/31 09:41:07.1	117.180	-0.050	0.930	0.400
2020/01/31 09:41:07.2	117.170	-0.070	0.900	0.470
2020/01/31 09:41:07.3	117.160	-0.080	0.860	0.550
2020/01/31 09:41:07.4	117.150	-0.090	0.810	0.630
2020/01/31 09:41:07.5	117.140	-0.100	0.750	0.710
2020/01/31 09:41:07.6	117.120	-0.100	0.690	0.790
2020/01/31 09:41:07.7	117.100	-0.100	0.620	0.870
2020/01/31 09:41:07.8	117.070	-0.100	0.540	0.960
2020/01/31 09:41:07.9	117.050	-0.100	0.460	1.040
2020/01/31 09:41:08.0	117.020	-0.090	0.370	1.130
2020/01/31 09:41:08.1	117.000	-0.080	0.290	1.220
2020/01/31 09:41:08.2	116.970	-0.070	0.190	1.300
2020/01/31 09:41:08.3	116.940	-0.060	0.100	1.390
2020/01/31 09:41:08.4	116.900	-0.050	0.000	1.480
2020/01/31 09:41:08.5	116.870	-0.040	-0.090	1.560
2020/01/31 09:41:08.6	116.830	-0.020	-0.190	1.650
2020/01/31 09:41:08.7	116.800	-0.000	-0.290	1.730
2020/01/31 09:41:08.8	116.770	0.010	-0.380	1.820
2020/01/31 09:41:08.9	116.740	0.030	-0.480	1.900
2020/01/31 09:41:09.0	116.710	0.050	-0.570	1.980
2020/01/31 09:41:09.1	116.680	0.060	-0.660	2.050
2020/01/31 09:41:09.2	116.640	0.080	-0.750	2.130
2020/01/31 09:41:09.3	116.610	0.100	-0.830	2.200
2020/01/31 09:41:09.4	116.600	0.110	-0.910	2.260
2020/01/31 09:41:09.5	116.570	0.130	-0.980	2.330
2020/01/31 09:41:09.6	116.540	0.140	-1.050	2.390
2020/01/31 09:41:09.7	116.510	0.150	-1.110	2.440
2020/01/31 09:41:09.8	116.490	0.170	-1.170	2.490
2020/01/31 09:41:09.9	116.470	0.170	-1.220	2.540
2020/01/31 09:41:10.0	116.440	0.180	-1.270	2.580
2020/01/31 09:41:10.1	116.420	0.190	-1.310	2.620
2020/01/31 09:41:10.2	116.410	0.190	-1.340	2.650
2020/01/31 09:41:10.3	116.390	0.190	-1.360	2.680
2020/01/31 09:41:10.4	116.380	0.190	-1.380	2.700
2020/01/31 09:41:10.5	116.370	0.190	-1.390	2.720
2020/01/31 09:41:10.6	116.360	0.180	-1.390	2.740
2020/01/31 09:41:10.7	116.360	0.180	-1.390	2.740
2020/01/31 09:41:10.8	116.360	0.170	-1.370	2.750
2020/01/31 09:41:10.9	116.360	0.160	-1.360	2.750
2020/01/31 09:41:11.0	116.360	0.140	-1.330	2.740
2020/01/31 09:41:11.1	116.370	0.130	-1.300	2.730
2020/01/31 09:41:11.2	116.380	0.110	-1.260	2.720
2020/01/31 09:41:11.3	116.390	0.100	-1.220	2.700
2020/01/31 09:41:11.4	116.400	0.080	-1.170	2.680
2020/01/31 09:41:11.5	116.410	0.060	-1.120	2.660
2020/01/31 09:41:11.6	116.430	0.040	-1.060	2.630
2020/01/31 09:41:11.7	116.450	0.010	-1.000	2.600
2020/01/31 09:41:11.8	116.470	-0.010	-0.940	2.560
2020/01/31 09:41:11.9	116.490	-0.030	-0.870	2.520
2020/01/31 09:41:12.0	116.510	-0.060	-0.800	2.480
2020/01/31 09:41:12.1	116.530	-0.080	-0.730	2.440
2020/01/31 09:41:12.2	116.560	-0.100	-0.660	2.390
2020/01/31 09:41:12.3	116.580	-0.130	-0.580	2.340
2020/01/31 09:41:12.4	116.610	-0.150	-0.500	2.280
2020/01/31 09:41:12.5	116.640	-0.180	-0.430	2.230
2020/01/31 09:41:12.6	116.660	-0.200	-0.350	2.170
2020/01/31 09:41:12.7	116.690	-0.220	-0.280	2.110
2020/01/31 09:41:12.8	116.710	-0.240	-0.200	2.040
2020/01/31 09:41:12.9	116.740	-0.260	-0.130	1.970
2020/01/31 09:41:13.0	116.760	-0.280	-0.060	1.900
2020/01/31 09:41:13.1	116.790	-0.300	0.010	1.830
2020/01/31 09:41:13.2	116.810	-0.310	0.080	1.760
2020/01/31 09:41:13.3	116.830	-0.330	0.150	1.680
2020/01/31 09:41:13.4	116.840	-0.340	0.210	1.600
2020/01/31 09:41:13.5	116.860	-0.350	0.270	1.520
2020/01/31 09:41:13.6	116.880	-0.360	0.320	1.450
2020/01/31 09:41:13.7	116.890	-0.370	0.370	1.370
2020/01/31 09:41:13.8	116.910	-0.370	0.420	1.280
2020/01/31 09:41:13.9	116.920	-0.370	0.460	1.200
2020/01/31 09:41:14.0	116.930	-0.370	0.500	1.120
2020/01/31 09:41:14.1	116.930	-0.370	0.530	1.040
2020/01/31 09:41:14.2	116.940	-0.370	0.560	0.960
2020/01/31 09:41:14.3	116.940	-0.360	0.590	0.880
2020/01/31 09:41:14.4	116.940	-0.350	0.600	0.800
2020/01/31 09:41:14.5	116.940	-0.340	0.610	0.720
2020/01/31 09:41:14.6	116.930	-0.330	0.620	0.650
2020/01/31 09:41:14.7	116.920	-0.320	0.620	0.570
2020/01/31 09:41:14.8	116.910	-0.300	0.620	0.490
2020/01/31 09:41:14.9	116.900	-0.290	0.610	0.420
2020/01/31 09:41:15.0	116.890	-0.270	0.600	0.350
2020/01/31 09:41:15.1	116.880	-0.250	0.590	0.270
2020/01/31 09:41:15.2	116.860	-0.230	0.570	0.200
2020/01/31 09:41:15.3	116.850	-0.210	0.550	0.130
2020/01/31 09:41:15.4	116.830	-0.190	0.520	0.060
2020/01/31 09:41:15.5	116.820	-0.170	0.490	-0.000
2020/01/31 09:41:15.6	116.800	-0.150	0.460	-0.070
2020/01/31 09:41:15.7	116.790	-0.130	0.430	-0.140
2020/01/31 09:41:15.8	116.780	-0.100	0.400	-0.200
2020/01/31 09:41:15.9	116.770	-0.080	0.360	-0.260
2020/01/31 09:41:16.0	116.760	-0.060	0.330	-0.330
2020/01/31 09:41:16.1	116.750	-0.040	0.290	-0.390
2020/01/31 09:41:16.2	116.740	-0.020	0.260	-0.450
2020/01/31 09:41:16.3	116.730	-0.000	0.220	-0.510
2020/01/31 09:41:16.4	116.730	0.020	0.190	-0.570
2020/01/31 09:41:16.5	116.730	0.030	0.150	-0.620
2020/01/31 09:41:16.6	116.730	0.050	0.120	-0.670
2020/01/31 09:41:16.7	116.730	0.060	0.080	-0.720
2020/01/31 09:41:16.8	116.730	0.070	0.050	-0.770
2020/01/31 09:41:16.9	116.730	0.090	0.020	-0.820
2020/01/31 09:41:17.0	116.740	0.090	-0.010	-0.870
2020/01/31 09:41:17.1	116.740	0.100	-0.040	-0.910
2020/01/31 09:41:17.2	116.750	0.110	-0.060	-0.950
2020/01/31 09:41:17.3	116.750	0.110	-0.090	-0.990
2020/01/31 09:41:17.4	116.770	0.120	-0.110	-1.030
2020/01/31 09:41:17.5	116.770	0.120	-0.130	-1.070
2020/01/31 09:41:17.6	116.780	0.120	-0.150	-1.100
2020/01/31 09:41:17.7	116.790	0.110	-0.170	-1.130
2020/01/31 09:41:17.8	116.800	0.110	-0.190	-1.160
2020/01/31 09:41:17.9	116.800	0.110	-0.210	-1.180
2020/01/31 09:41:18.0	116.810	0.100	-0.220	-1.200
2020/01/31 09:41:18.1	116.820	0.090	-0.240	-1.220
2020/01/31 09:41:18.2	116.830	0.090	-0.250	-1.240
2020/01/31 09:41:18.3	116.840	0.080	-0.260	-1.250
2020/01/31 09:41:18.4	116.850	0.070	-0.270	-1.260
2020/01/31 09:41:18.5	116.860	0.060	-0.280	-1.270
2020/01/31 09:41:18.6	116.870	0.050	-0.290	-1.270
2020/01/31 09:41:18.7	116.880	0.040	-0.300	-1.270
2020/01/31 09:41:18.8	116.890	0.030	-0.320	-1.270
2020/01/31 09:41:18.9	116.900	0.030	-0.330	-1.260
2020/01/31 09:41:19.0	116.910	0.020	-0.340	-1.240
2020/01/31 09:41:19.1	116.930	0.010	-0.350	-1.230
2020/01/31 09:41:19.2	116.940	0.010	-0.370	-1.210
2020/01/31 09:41:19.3	116.950	0.010	-0.380	-1.180
2020/01/31 09:41:19.4	116.970	0.000	-0.390	-1.150
2020/01/31 09:41:19.5	116.980	0.010	-0.410	-1.120
2020/01/31 09:41:19.6	116.990	0.010	-0.420	-1.080
2020/01/31 09:41:19.7	117.010	0.010	-0.440	-1.040
2020/01/31 09:41:19.8	117.020	0.020	-0.450	-0.990
2020/01/31 09:41:19.9	117.030	0.020	-0.470	-0.940
2020/01/31 09:41:20.0	117.040	0.030	-0.490	-0.890
2020/01/31 09:41:20.1	117.040	0.040	-0.500	-0.830
2020/01/31 09:41:20.2	117.050	0.060	-0.520	-0.770
2020/01/31 09:41:20.3	117.060	0.070	-0.530	-0.700
2020/01/31 09:41:20.4	117.070	0.090	-0.540	-0.630
2020/01/31 09:41:20.5	117.070	0.100	-0.550	-0.560
2020/01/31 09:41:20.6	117.080	0.120	-0.570	-0.480
2020/01/31 09:41:20.7	117.090	0.140	-0.570	-0.410
2020/01/31 09:41:20.8	117.090	0.160	-0.580	-0.330
2020/01/31 09:41:20.9	117.100	0.170	-0.590	-0.250
2020/01/31 09:41:21.0	117.110	0.190	-0.590	-0.160
2020/01/31 09:41:21.1	117.120	0.210	-0.590	-0.080
2020/01/31 09:41:21.2	117.130	0.220	-0.580	0.000
2020/01/31 09:41:21.3	117.140	0.240	-0.580	0.090
2020/01/31 09:41:21.4	117.140	0.250	-0.570	0.170
2020/01/31 09:41:21.5	117.150	0.260	-0.550	0.260
2020/01/31 09:41:21.6	117.170	0.270	-0.540	0.340
2020/01/31 09:41:21.7	117.180	0.280	-0.520	0.430
2020/01/31 09:41:21.8	117.190	0.290	-0.500	0.510
2020/01/31 09:41:21.9	117.210	0.290	-0.470	0.600
2020/01/31 09:41:22.0	117.230	0.290	-0.440	0.690
2020/01/31 09:41:22.1	117.240	0.280	-0.410	0.770
2020/01/31 09:41:22.2	117.260	0.280	-0.380	0.860
2020/01/31 09:41:22.3	117.280	0.270	-0.340	0.940
2020/01/31 09:41:22.4	117.300	0.260	-0.300	1.030
2020/01/31 09:41:22.5	117.320	0.240	-0.260	1.110
2020/01/31 09:41:22.6	117.340	0.230	-0.220	1.200
2020/01/31 09:41:22.7	117.360	0.210	-0.180	1.280
2020/01/31 09:41:22.8	117.380	0.180	-0.130	1.370
2020/01/31 09:41:22.9	117.400	0.160	-0.090	1.450
2020/01/31 09:41:23.0	117.410	0.130	-0.050	1.540
2020/01/31 09:41:23.1	117.430	0.110	-0.010	1.620
2020/01/31 09:41:23.2	117.450	0.080	0.030	1.700
2020/01/31 09:41:23.3	117.470	0.050	0.070	1.790
2020/01/31 09:41:23.4	117.470	0.020	0.110	1.870
2020/01/31 09:41:23.5	117.480	-0.010	0.140	1.950
2020/01/31 09:41:23.6	117.490	-0.050	0.170	2.030
2020/01/31 09:41:23.7	117.510	-0.080	0.200	2.110
2020/01/31 09:41:23.8	117.520	-0.100	0.220	2.190
2020/01/31 09:41:23.9	117.520	-0.130	0.240	2.270
2020/01/31 09:41:24.0	117.530	-0.160	0.260	2.340
2020/01/31 09:41:24.1	117.540	-0.180	0.270	2.410
2020/01/31 09:41:24.2	117.540	-0.210	0.270	2.470
2020/01/31 09:41:24.3	117.550	-0.230	0.270	2.540
2020/01/31 09:41:24.4	117.550	-0.240	0.270	2.590
2020/01/31 09:41:24.5	117.550	-0.260	0.260	2.640
2020/01/31 09:41:24.6	117.550	-0.270	0.250	2.690
2020/01/31 09:41:24.7	117.550	-0.280	0.240	2.740
2020/01/31 09:41:24.8	117.550	-0.280	0.220	2.780
2020/01/31 09:41:24.9	117.550	-0.280	0.190	2.810
2020/01/31 09:41:25.0	117.550	-0.280	0.160	2.840
2020/01/31 09:41:25.1	117.550	-0.270	0.130	2.860
2020/01/31 09:41:25.2	117.550	-0.260	0.100	2.880
2020/01/31 09:41:25.3	117.550	-0.250	0.070	2.890
2020/01/31 09:41:25.4	117.550	-0.230	0.030	2.900
2020/01/31 09:41:25.5	117.540	-0.220	-0.010	2.900
2020/01/31 09:41:25.6	117.540	-0.190	-0.050	2.890
2020/01/31 09:41:25.7	117.540	-0.170	-0.090	2.880
2020/01/31 09:41:25.8	117.530	-0.140	-0.130	2.870
2020/01/31 09:41:25.9	117.530	-0.120	-0.160	2.850
2020/01/31 09:41:26.0	117.530	-0.090	-0.200	2.820
2020/01/31 09:41:26.1	117.530	-0.060	-0.240	2.790
2020/01/31 09:41:26.2	117.520	-0.020	-0.270	2.760
2020/01/31 09:41:26.3	117.520	0.010	-0.300	2.720
2020/01/31 09:41:26.4	117.520	0.040	-0.330	2.670
2020/01/31 09:41:26.5	117.510	0.070	-0.360	2.630
2020/01/31 09:41:26.6	117.510	0.110	-0.380	2.580
2020/01/31 09:41:26.7	117.510	0.140	-0.410	2.520
2020/01/31 09:41:26.8	117.510	0.170	-0.430	2.470
2020/01/31 09:41:26.9	117.500	0.200	-0.440	2.410
2020/01/31 09:41:27.0	117.500	0.220	-0.460	2.350
2020/01/31 09:41:27.1	117.500	0.250	-0.470	2.290
2020/01/31 09:41:27.2	117.500	0.270	-0.470	2.220
2020/01/31 09:41:27.3	117.500	0.290	-0.480	2.160
2020/01/31 09:41:27.4	117.500	0.310	-0.480	2.080
2020/01/31 09:41:27.5	117.500	0.320	-0.480	2.010
2020/01/31 09:41:27.6	117.500	0.340	-0.470	1.940
2020/01/31 09:41:27.7	117.500	0.340	-0.470	1.860
2020/01/31 09:41:27.8	117.500	0.350	-0.460	1.790
2020/01/31 09:41:27.9	117.510	0.350	-0.450	1.710
2020/01/31 09:41:28.0	117.510	0.350	-0.430	1.630
2020/01/31 09:41:28.1	117.510	0.350	-0.420	1.540
2020/01/31 09:41:28.2	117.520	0.340	-0.400	1.460
2020/01/31 09:41:28.3	117.520	0.330	-0.390	1.380
2020/01/31 09:41:28.4	117.500	0.310	-0.370	1.290
2020/01/31 09:41:28.5	117.510	0.300	-0.350	1.200
2020/01/31 09:41:28.6	117.520	0.280	-0.330	1.120
2020/01/31 09:41:28.7	117.520	0.250	-0.300	1.030
2020/01/31 09:41:28.8	117.530	0.230	-0.280	0.950
2020/01/31 09:41:28.9	117.540	0.200	-0.260	0.860
2020/01/31 09:41:29.0	117.550	0.170	-0.230	0.770
2020/01/31 09:41:29.1	117.560	0.140	-0.210	0.690
2020/01/31 09:41:29.2	117.570	0.110	-0.190	0.600
2020/01/31 09:41:29.3	117.580	0.080	-0.160	0.520
2020/01/31 09:41:29.4	117.570	0.040	-0.140	0.430
2020/01/31 09:41:29.5	117.580	0.010	-0.120	0.350
2020/01/31 09:41:29.6	117.590	-0.030	-0.090	0.270
2020/01/31 09:41:29.7	117.610	-0.060	-0.070	0.190
2020/01/31 09:41:29.8	117.620	-0.090	-0.050	0.110
2020/01/31 09:41:29.9	117.640	-0.130	-0.030	0.030
2020/01/31 09:41:30.0	117.660	-0.160	-0.020	-0.040
2020/01/31 09:41:30.1	117.670	-0.190	-0.000	-0.110
2020/01/31 09:41:30.2	117.690	-0.230	0.010	-0.180
2020/01/31 09:41:30.3	117.710	-0.250	0.030	-0.250
2020/01/31 09:41:30.4	117.720	-0.280	0.040	-0.310
2020/01/31 09:41:30.5	117.730	-0.310	0.050	-0.370
2020/01/31 09:41:30.6	117.750	-0.330	0.050	-0.430
2020/01/31 09:41:30.7	117.770	-0.350	0.060	-0.480
2020/01/31 09:41:30.8	117.780	-0.370	0.060	-0.530
2020/01/31 09:41:30.9	117.800	-0.390	0.060	-0.570
2020/01/31 09:41:31.0	117.810	-0.400	0.050	-0.610
2020/01/31 09:41:31.1	117.820	-0.410	0.050	-0.650
2020/01/31 09:41:31.2	117.830	-0.420	0.040	-0.680
2020/01/31 09:41:31.3	117.840	-0.430	0.020	-0.700
2020/01/31 09:41:31.4	117.870	-0.430	0.010	-0.730
2020/01/31 09:41:31.5	117.870	-0.430	-0.010	-0.740
2020/01/31 09:41:31.6	117.880	-0.430	-0.030	-0.750
2020/01/31 09:41:31.7	117.880	-0.430	-0.050	-0.760
2020/01/31 09:41:31.8	117.880	-0.420	-0.070	-0.760
2020/01/31 09:41:31.9	117.870	-0.420	-0.090	-0.760
2020/01/31 09:41:32.0	117.870	-0.410	-0.120	-0.750
2020/01/31 09:41:32.1	117.860	-0.400	-0.140	-0.740
2020/01/31 09:41:32.2	117.860	-0.390	-0.160	-0.730
2020/01/31 09:41:32.3	117.850	-0.370	-0.190	-0.710
2020/01/31 09:41:32.4	117.840	-0.360	-0.210	-0.680
2020/01/31 09:41:32.5	117.830	-0.340	-0.240	-0.660
2020/01/31 09:41:32.6	117.820	-0.320	-0.260	-0.630
2020/01/31 09:41:32.7	117.810	-0.310	-0.280	-0.590
2020/01/31 09:41:32.8	117.800	-0.290	-0.300	-0.560
2020/01/31 09:41:32.9	117.790	-0.270	-0.320	-0.520
2020/01/31 09:41:33.0	117.780	-0.250	-0.330	-0.480
2020/01/31 09:41:33.1	117.770	-0.230	-0.340	-0.440
2020/01/31 09:41:33.2	117.750	-0.210	-0.350	-0.400
2020/01/31 09:41:33.3	117.740	-0.190	-0.360	-0.360
2020/01/31 09:41:33.4	117.730	-0.170	-0.360	-0.310
2020/01/31 09:41:33.5	117.720	-0.150	-0.350	-0.270
2020/01/31 09:41:33.6	117.720	-0.130	-0.350	-0.230
2020/01/31 09:41:33.7	117.710	-0.110	-0.340	-0.180
2020/01/31 09:41:33.8	117.700	-0.090	-0.330	-0.140
2020/01/31 09:41:33.9	117.700	-0.070	-0.310	-0.090
2020/01/31 09:41:34.0	117.700	-0.050	-0.300	-0.050
2020/01/31 09:41:34.1	117.700	-0.030	-0.280	-0.010
2020/01/31 09:41:34.2	117.700	-0.010	-0.250	0.040
2020/01/31 09:41:34.3	117.700	0.000	-0.230	0.080
2020/01/31 09:41:34.4	117.700	0.020	-0.200	0.120
2020/01/31 09:41:34.5	117.700	0.040	-0.170	0.160
2020/01/31 09:41:34.6	117.710	0.050	-0.150	0.210
2020/01/31 09:41:34.7	117.710	0.070	-0.120	0.250
2020/01/31 09:41:34.8	117.710	0.080	-0.090	0.290
2020/01/31 09:41:34.9	117.720	0.100	-0.060	0.340
2020/01/31 09:41:35.0	117.720	0.110	-0.040	0.380
2020/01/31 09:41:35.1	117.720	0.130	-0.010	0.430
2020/01/31 09:41:35.2	117.720	0.140	0.010	0.480
2020/01/31 09:41:35.3	117.720	0.160	0.030	0.520
2020/01/31 09:41:35.4	117.700	0.170	0.040	0.570
2020/01/31 09:41:35.5	117.700	0.180	0.060	0.620
2020/01/31 09:41:35.6	117.700	0.200	0.070	0.670
2020/01/31 09:41:35.7	117.690	0.210	0.080	0.720
2020/01/31 09:41:35.8	117.690	0.220	0.090	0.780
2020/01/31 09:41:35.9	117.680	0.240	0.090	0.830
2020/01/31 09:41:36.0	117.670	0.250	0.090	0.880
2020/01/31 09:41:36.1	117.660	0.260	0.090	0.930
2020/01/31 09:41:36.2	117.640	0.270	0.080	0.980
2020/01/31 09:41:36.3	117.630	0.290	0.070	1.030
2020/01/31 09:41:36.4	117.610	0.300	0.070	1.080
2020/01/31 09:41:36.5	117.590	0.310	0.050	1.130
2020/01/31 09:41:36.6	117.580	0.320	0.040	1.180
2020/01/31 09:41:36.7	117.560	0.330	0.020	1.220
2020/01/31 09:41:36.8	117.540	0.340	0.000	1.260
2020/01/31 09:41:36.9	117.530	0.340	-0.020	1.310
2020/01/31 09:41:37.0	117.510	0.350	-0.040	1.350
2020/01/31 09:41:37.1	117.490	0.360	-0.060	1.380
2020/01/31 09:41:37.2	117.480	0.360	-0.090	1.420
2020/01/31 09:41:37.3	117.460	0.360	-0.110	1.450
2020/01/31 09:41:37.4	117.450	0.370	-0.140	1.480
2020/01/31 09:41:37.5	117.440	0.370	-0.160	1.510
2020/01/31 09:41:37.6	117.420	0.370	-0.180	1.540
2020/01/31 09:41:37.7	117.410	0.370	-0.210	1.560
2020/01/31 09:41:37.8	117.390	0.360	-0.230	1.580
2020/01/31 09:41:37.9	117.380	0.360	-0.250	1.600
2020/01/31 09:41:38.0	117.360	0.350	-0.270	1.620
2020/01/31 09:41:38.1	117.350	0.350	-0.290	1.640
2020/01/31 09:41:38.2	117.340	0.340	-0.310	1.650
2020/01/31 09:41:38.3	117.330	0.330	-0.330	1.660
2020/01/31 09:41:38.4	117.320	0.320	-0.350	1.670
2020/01/31 09:41:38.5	117.310	0.310	-0.360	1.680
2020/01/31 09:41:38.6	117.300	0.290	-0.370	1.690
2020/01/31 09:41:38.7	117.290	0.280	-0.380	1.690
2020/01/31 09:41:38.8	117.290	0.260	-0.390	1.700
2020/01/31 09:41:38.9	117.280	0.250	-0.400	1.700
2020/01/31 09:41:39.0	117.280	0.230	-0.410	1.700
2020/01/31 09:41:39.1	117.280	0.210	-0.410	1.700
2020/01/31 09:41:39.2	117.280	0.190	-0.410	1.700
2020/01/31 09:41:39.3	117.280	0.180	-0.410	1.690
2020/01/31 09:41:39.4	117.280	0.160	-0.410	1.680
2020/01/31 09:41:39.5	117.290	0.140	-0.410	1.680
2020/01/31 09:41:39.6	117.290	0.120	-0.410	1.670
2020/01/31 09:41:39.7	117.300	0.100	-0.400	1.660
2020/01/31 09:41:39.8	117.310	0.080	-0.390	1.650
2020/01/31 09:41:39.9	117.320	0.060	-0.380	1.630
2020/01/31 09:41:40.0	117.340	0.040	-0.380	1.620
2020/01/31 09:41:40.1	117.350	0.020	-0.370	1.610
2020/01/31 09:41:40.2	117.360	0.000	-0.350	1.590
2020/01/31 09:41:40.3	117.380	-0.020	-0.340	1.570
2020/01/31 09:41:40.4	117.390	-0.040	-0.330	1.560
2020/01/31 09:41:40.5	117.410	-0.050	-0.320	1.540
2020/01/31 09:41:40.6	117.420	-0.070	-0.310	1.520
2020/01/31 09:41:40.7	117.440	-0.090	-0.300	1.500
2020/01/31 09:41:40.8	117.450	-0.100	-0.290	1.490
2020/01/31 09:41:40.9	117.470	-0.120	-0.280	1.470
2020/01/31 09:41:41.0	117.480	-0.130	-0.270	1.450
2020/01/31 09:41:41.1	117.490	-0.140	-0.260	1.440
2020/01/31 09:41:41.2	117.510	-0.160	-0.250	1.420
2020/01/31 09:41:41.3	117.520	-0.170	-0.240	1.410
2020/01/31 09:41:41.4	117.520	-0.180	-0.230	1.400
2020/01/31 09:41:41.5	117.520	-0.190	-0.220	1.380
2020/01/31 09:41:41.6	117.530	-0.200	-0.210	1.370
2020/01/31 09:41:41.7	117.530	-0.200	-0.210	1.360
2020/01/31 09:41:41.8	117.530	-0.210	-0.200	1.350
2020/01/31 09:41:41.9	117.530	-0.220	-0.190	1.330
2020/01/31 09:41:42.0	117.530	-0.220	-0.190	1.320
2020/01/31 09:41:42.1	117.520	-0.220	-0.180	1.310
2020/01/31 09:41:42.2	117.510	-0.220	-0.170	1.300
2020/01/31 09:41:42.3	117.510	-0.230	-0.170	1.290
2020/01/31 09:41:42.4	117.490	-0.230	-0.160	1.280
2020/01/31 09:41:42.5	117.480	-0.230	-0.160	1.270
2020/01/31 09:41:42.6	117.470	-0.220	-0.150	1.260
2020/01/31 09:41:42.7	117.460	-0.220	-0.150	1.250
2020/01/31 09:41:42.8	117.440	-0.220	-0.140	1.230
2020/01/31 09:41:42.9	117.430	-0.210	-0.140	1.220
2020/01/31 09:41:43.0	117.410	-0.210	-0.130	1.200
2020/01/31 09:41:43.1	117.400	-0.200	-0.130	1.190
2020/01/31 09:41:43.2	117.380	-0.200	-0.120	1.170
2020/01/31 09:41:43.3	117.370	-0.190	-0.110	1.150
2020/01/31 09:41:43.4	117.360	-0.180	-0.110	1.120
2020/01/31 09:41:43.5	117.340	-0.170	-0.100	1.100
2020/01/31 09:41:43.6	117.320	-0.160	-0.090	1.070
2020/01/31 09:41:43.7	117.310	-0.160	-0.090	1.040
2020/01/31 09:41:43.8	117.290	-0.150	-0.080	1.010
2020/01/31 09:41:43.9	117.270	-0.140	-0.070	0.980
2020/01/31 09:41:44.0	117.250	-0.130	-0.060	0.940
2020/01/31 09:41:44.1	117.240	-0.120	-0.050	0.900
2020/01/31 09:41:44.2	117.220	-0.110	-0.050	0.870
2020/01/31 09:41:44.3	117.200	-0.100	-0.040	0.830
2020/01/31 09:41:44.4	117.200	-0.100	-0.020	0.780
2020/01/31 09:41:44.5	117.180	-0.090	-0.010	0.740
2020/01/31 09:41:44.6	117.170	-0.080	-0.010	0.690
2020/01/31 09:41:44.7	117.150	-0.080	0.000	0.650
2020/01/31 09:41:44.8	117.130	-0.070	0.010	0.600
2020/01/31 09:41:44.9	117.120	-0.060	0.020	0.550
2020/01/31 09:41:45.0	117.110	-0.060	0.020	0.500
2020/01/31 09:41:45.1	117.090	-0.050	0.030	0.450
2020/01/31 09:41:45.2	117.080	-0.050	0.030	0.400
2020/01/31 09:41:45.3	117.070	-0.040	0.030	0.340
2020/01/31 09:41:45.4	117.070	-0.040	0.030	0.290
2020/01/31 09:41:45.5	117.060	-0.040	0.040	0.240
2020/01/31 09:41:45.6	117.050	-0.040	0.040	0.180
2020/01/31 09:41:45.7	117.050	-0.040	0.040	0.130
2020/01/31 09:41:45.8	117.040	-0.040	0.040	0.070
2020/01/31 09:41:45.9	117.040	-0.040	0.040	0.020
2020/01/31 09:41:46.0	117.040	-0.040	0.030	-0.030
2020/01/31 09:41:46.1	117.040	-0.040	0.030	-0.080
2020/01/31 09:41:46.2	117.050	-0.040	0.030	-0.130
2020/01/31 09:41:46.3	117.050	-0.040	0.030	-0.180
2020/01/31 09:41:46.4	117.040	-0.040	0.020	-0.230
2020/01/31 09:41:46.5	117.050	-0.040	0.020	-0.270
2020/01/31 09:41:46.6	117.050	-0.050	0.010	-0.310
2020/01/31 09:41:46.7	117.060	-0.050	0.010	-0.350
2020/01/31 09:41:46.8	117.060	-0.050	0.000	-0.390
2020/01/31 09:41:46.9	117.070	-0.060	-0.010	-0.420
2020/01/31 09:41:47.0	117.080	-0.060	-0.010	-0.460
2020/01/31 09:41:47.1	117.090	-0.060	-0.020	-0.480
2020/01/31 09:41:47.2	117.090	-0.060	-0.030	-0.510
2020/01/31 09:41:47.3	117.100	-0.070	-0.040	-0.530
2020/01/31 09:41:47.4	117.110	-0.070	-0.050	-0.550
2020/01/31 09:41:47.5	117.120	-0.070	-0.060	-0.560
2020/01/31 09:41:47.6	117.130	-0.070	-0.070	-0.580
2020/01/31 09:41:47.7	117.130	-0.070	-0.090	-0.590
2020/01/31 09:41:47.8	117.140	-0.070	-0.100	-0.600
2020/01/31 09:41:47.9	117.140	-0.070	-0.120	-0.600
2020/01/31 09:41:48.0	117.150	-0.070	-0.140	-0.600
2020/01/31 09:41:48.1	117.150	-0.070	-0.150	-0.600
2020/01/31 09:41:48.2	117.160	-0.070	-0.170	-0.590
2020/01/31 09:41:48.3	117.160	-0.070	-0.190	-0.580
2020/01/31 09:41:48.4	117.160	-0.060	-0.210	-0.570
2020/01/31 09:41:48.5	117.160	-0.060	-0.240	-0.560
2020/01/31 09:41:48.6	117.160	-0.050	-0.260	-0.540
2020/01/31 09:41:48.7	117.160	-0.050	-0.280	-0.520
2020/01/31 09:41:48.8	117.160	-0.040	-0.310	-0.500
2020/01/31 09:41:48.9	117.160	-0.030	-0.340	-0.470
2020/01/31 09:41:49.0	117.150	-0.020	-0.360	-0.450
2020/01/31 09:41:49.1	117.150	-0.010	-0.390	-0.420
2020/01/31 09:41:49.2	117.150	-0.000	-0.410	-0.390
2020/01/31 09:41:49.3	117.140	0.010	-0.430	-0.360
2020/01/31 09:41:49.4	117.140	0.020	-0.460	-0.330
2020/01/31 09:41:49.5	117.140	0.030	-0.480	-0.290
2020/01/31 09:41:49.6	117.140	0.040	-0.500	-0.260
2020/01/31 09:41:49.7	117.130	0.060	-0.510	-0.220
2020/01/31 09:41:49.8	117.130	0.070	-0.530	-0.180
2020/01/31 09:41:49.9	117.130	0.080	-0.540	-0.140
2020/01/31 09:41:50.0	117.120	0.100	-0.550	-0.110
2020/01/31 09:41:50.1	117.120	0.110	-0.560	-0.070
2020/01/31 09:41:50.2	117.120	0.120	-0.570	-0.030
2020/01/31 09:41:50.3	117.120	0.130	-0.570	0.020
2020/01/31 09:41:50.4	117.120	0.140	-0.570	0.060
2020/01/31 09:41:50.5	117.120	0.150	-0.570	0.100
2020/01/31 09:41:50.6	117.120	0.160	-0.560	0.140
2020/01/31 09:41:50.7	117.120	0.170	-0.560	0.190
2020/01/31 09:41:50.8	117.120	0.180	-0.550	0.230
2020/01/31 09:41:50.9	117.120	0.190	-0.540	0.280
2020/01/31 09:41:51.0	117.110	0.190	-0.520	0.330
2020/01/31 09:41:51.1	117.110	0.190	-0.510	0.380
2020/01/31 09:41:51.2	117.110	0.200	-0.490	0.430
2020/01/31 09:41:51.3	117.110	0.200	-0.470	0.480
2020/01/31 09:41:51.4	117.100	0.200	-0.450	0.540
2020/01/31 09:41:51.5	117.100	0.200	-0.420	0.590
2020/01/31 09:41:51.6	117.090	0.190	-0.400	0.650
2020/01/31 09:41:51.7	117.090	0.190	-0.370	0.710
2020/01/31 09:41:51.8	117.080	0.180	-0.340	0.770
2020/01/31 09:41:51.9	117.080	0.170	-0.310	0.820
2020/01/31 09:41:52.0	117.070	0.160	-0.280	0.880
2020/01/31 09:41:52.1	117.070	0.150	-0.250	0.940
2020/01/31 09:41:52.2	117.060	0.140	-0.210	1.000
2020/01/31 09:41:52.3	117.050	0.130	-0.180	1.060
2020/01/31 09:41:52.4	117.040	0.110	-0.140	1.120
2020/01/31 09:41:52.5	117.030	0.100	-0.100	1.180
2020/01/31 09:41:52.6	117.030	0.080	-0.070	1.240
2020/01/31 09:41:52.7	117.020	0.070	-0.030	1.300
2020/01/31 09:41:52.8	117.010	0.050	0.000	1.350
2020/01/31 09:41:52.9	117.010	0.030	0.040	1.410
2020/01/31 09:41:53.0	117.000	0.020	0.070	1.470
2020/01/31 09:41:53.1	117.000	0.000	0.110	1.520
2020/01/31 09:41:53.2	117.000	-0.020	0.140	1.570
2020/01/31 09:41:53.3	117.000	-0.030	0.170	1.620
2020/01/31 09:41:53.4	116.990	-0.040	0.200	1.660
2020/01/31 09:41:53.5	116.990	-0.060	0.220	1.700
2020/01/31 09:41:53.6	116.990	-0.070	0.250	1.740
2020/01/31 09:41:53.7	116.990	-0.080	0.270	1.780
2020/01/31 09:41:53.8	116.990	-0.090	0.280	1.810
2020/01/31 09:41:53.9	116.990	-0.100	0.290	1.840
2020/01/31 09:41:54.0	116.990	-0.110	0.300	1.870
2020/01/31 09:41:54.1	117.000	-0.110	0.310	1.890
2020/01/31 09:41:54.2	117.000	-0.110	0.310	1.910
2020/01/31 09:41:54.3	117.000	-0.110	0.300	1.930
2020/01/31 09:41:54.4	117.020	-0.110	0.290	1.940
2020/01/31 09:41:54.5	117.020	-0.110	0.280	1.950
2020/01/31 09:41:54.6	117.030	-0.110	0.260	1.950
2020/01/31 09:41:54.7	117.030	-0.100	0.240	1.960
2020/01/31 09:41:54.8	117.040	-0.090	0.220	1.950
2020/01/31 09:41:54.9	117.040	-0.080	0.190	1.950
2020/01/31 09:41:55.0	117.050	-0.070	0.160	1.950
2020/01/31 09:41:55.1	117.060	-0.060	0.120	1.940
2020/01/31 09:41:55.2	117.060	-0.050	0.080	1.930
2020/01/31 09:41:55.3	117.070	-0.030	0.050	1.910
2020/01/31 09:41:55.4	117.090	-0.020	0.000	1.890
2020/01/31 09:41:55.5	117.100	0.000	-0.040	1.870
2020/01/31 09:41:55.6	117.110	0.020	-0.080	1.850
2020/01/31 09:41:55.7	117.120	0.040	-0.130	1.830
2020/01/31 09:41:55.8	117.130	0.060	-0.170	1.800
2020/01/31 09:41:55.9	117.140	0.070	-0.210	1.770
2020/01/31 09:41:56.0	117.150	0.090	-0.250	1.740
2020/01/31 09:41:56.1	117.160	0.110	-0.290	1.710
2020/01/31 09:41:56.2	117.170	0.130	-0.330	1.670
2020/01/31 09:41:56.3	117.190	0.150	-0.370	1.640
2020/01/31 09:41:56.4	117.200	0.160	-0.400	1.600
2020/01/31 09:41:56.5	117.220	0.180	-0.430	1.550
2020/01/31 09:41:56.6	117.230	0.190	-0.460	1.510
2020/01/31 09:41:56.7	117.250	0.200	-0.480	1.470
2020/01/31 09:41:56.8	117.260	0.210	-0.500	1.420
2020/01/31 09:41:56.9	117.280	0.220	-0.510	1.370
2020/01/31 09:41:57.0	117.290	0.230	-0.520	1.320
2020/01/31 09:41:57.1	117.310	0.230	-0.530	1.270
2020/01/31 09:41:57.2	117.320	0.230	-0.530	1.220
2020/01/31 09:41:57.3	117.330	0.230	-0.520	1.170
2020/01/31 09:41:57.4	117.330	0.230	-0.520	1.120
2020/01/31 09:41:57.5	117.350	0.220	-0.510	1.070
2020/01/31 09:41:57.6	117.360	0.210	-0.490	1.020
2020/01/31 09:41:57.7	117.370	0.200	-0.470	0.970
2020/01/31 09:41:57.8	117.370	0.190	-0.450	0.920
2020/01/31 09:41:57.9	117.380	0.170	-0.430	0.880
2020/01/31 09:41:58.0	117.380	0.160	-0.400	0.830
2020/01/31 09:41:58.1	117.390	0.140	-0.380	0.790
2020/01/31 09:41:58.2	117.380	0.120	-0.350	0.760
2020/01/31 09:41:58.3	117.380	0.100	-0.320	0.720
2020/01/31 09:41:58.4	117.360	0.070	-0.290	0.690
2020/01/31 09:41:58.5	117.350	0.050	-0.260	0.660
2020/01/31 09:41:58.6	117.340	0.020	-0.230	0.640
2020/01/31 09:41:58.7	117.320	-0.010	-0.200	0.620
2020/01/31 09:41:58.8	117.300	-0.030	-0.180	0.600
2020/01/31 09:41:58.9	117.280	-0.060	-0.150	0.590
2020/01/31 09:41:59.0	117.260	-0.090	-0.120	0.590
2020/01/31 09:41:59.1	117.230	-0.120	-0.100	0.580
2020/01/31 09:41:59.2	117.200	-0.140	-0.080	0.580
2020/01/31 09:41:59.3	117.180	-0.170	-0.060	0.580
2020/01/31 09:41:59.4	117.140	-0.200	-0.040	0.590
2020/01/31 09:41:59.5	117.110	-0.220	-0.020	0.600
2020/01/31 09:41:59.6	117.080	-0.250	-0.000	0.610
2020/01/31 09:41:59.7	117.050	-0.270	0.010	0.620
2020/01/31 09:41:59.8	117.020	-0.300	0.030	0.630
2020/01/31 09:41:59.9	117.000	-0.320	0.040	0.640
2020/01/31 09:42:00.0	116.970	-0.340	0.050	0.650
2020/01/31 09:42:00.1	116.940	-0.360	0.070	0.670
2020/01/31 09:42:00.2	116.920	-0.370	0.080	0.680
2020/01/31 09:42:00.3	116.900	-0.390	0.090	0.680
2020/01/31 09:42:00.4	116.860	-0.400	0.090	0.690
2020/01/31 09:42:00.5	116.850	-0.410	0.100	0.700
2020/01/31 09:42:00.6	116.830	-0.420	0.110	0.700
2020/01/31 09:42:00.7	116.820	-0.430	0.110	0.700
2020/01/31 09:42:00.8	116.810	-0.440	0.120	0.700
2020/01/31 09:42:00.9	116.800	-0.440	0.120	0.700
2020/01/31 09:42:01.0	116.790	-0.440	0.120	0.700
2020/01/31 09:42:01.1	116.780	-0.440	0.130	0.690
2020/01/31 09:42:01.2	116.780	-0.440	0.130	0.680
2020/01/31 09:42:01.3	116.770	-0.440	0.120	0.670
2020/01/31 09:42:01.4	116.780	-0.430	0.130	0.660
2020/01/31 09:42:01.5	116.780	-0.420	0.120	0.650
2020/01/31 09:42:01.6	116.780	-0.420	0.120	0.630
2020/01/31 09:42:01.7	116.780	-0.400	0.110	0.620
2020/01/31 09:42:01.8	116.780	-0.390	0.100	0.600
2020/01/31 09:42:01.9	116.780	-0.380	0.090	0.580
2020/01/31 09:42:02.0	116.780	-0.360	0.070	0.560
2020/01/31 09:42:02.1	116.790	-0.340	0.060	0.540
2020/01/31 09:42:02.2	116.790	-0.330	0.040	0.520
2020/01/31 09:42:02.3	116.790	-0.310	0.030	0.500
2020/01/31 09:42:02.4	116.790	-0.280	0.000	0.480
2020/01/31 09:42:02.5	116.800	-0.260	-0.020	0.460
2020/01/31 09:42:02.6	116.800	-0.240	-0.040	0.440
2020/01/31 09:42:02.7	116.810	-0.210	-0.060	0.420
2020/01/31 09:42:02.8	116.810	-0.190	-0.080	0.400
2020/01/31 09:42:02.9	116.820	-0.160	-0.110	0.370
2020/01/31 09:42:03.0	116.820	-0.140	-0.140	0.350
2020/01/31 09:42:03.1	116.830	-0.110	-0.160	0.330
2020/01/31 09:42:03.2	116.840	-0.080	-0.190	0.310
2020/01/31 09:42:03.3	116.850	-0.050	-0.220	0.280
2020/01/31 09:42:03.4	116.850	-0.020	-0.250	0.260
2020/01/31 09:42:03.5	116.860	0.010	-0.280	0.230
2020/01/31 09:42:03.6	116.870	0.040	-0.310	0.210
2020/01/31 09:42:03.7	116.880	0.070	-0.340	0.190
2020/01/31 09:42:03.8	116.890	0.100	-0.370	0.170
2020/01/31 09:42:03.9	116.910	0.130	-0.400	0.150
2020/01/31 09:42:04.0	116.920	0.160	-0.430	0.130
2020/01/31 09:42:04.1	116.930	0.190	-0.460	0.110
2020/01/31 09:42:04.2	116.950	0.210	-0.490	0.090
2020/01/31 09:42:04.3	116.960	0.240	-0.520	0.080
2020/01/31 09:42:04.4	116.980	0.270	-0.540	0.060
2020/01/31 09:42:04.5	117.000	0.300	-0.570	0.050
2020/01/31 09:42:04.6	117.010	0.320	-0.590	0.040
2020/01/31 09:42:04.7	117.020	0.350	-0.620	0.040
2020/01/31 09:42:04.8	117.040	0.370	-0.640	0.030
2020/01/31 09:42:04.9	117.050	0.400	-0.660	0.030
2020/01/31 09:42:05.0	117.060	0.420	-0.670	0.030
2020/01/31 09:42:05.1	117.070	0.440	-0.690	0.040
2020/01/31 09:42:05.2	117.080	0.460	-0.700	0.040
2020/01/31 09:42:05.3	117.090	0.470	-0.710	0.050
2020/01/31 09:42:05.4	117.110	0.490	-0.720	0.070
2020/01/31 09:42:05.5	117.110	0.500	-0.720	0.090
2020/01/31 09:42:05.6	117.120	0.510	-0.720	0.110
2020/01/31 09:42:05.7	117.120	0.510	-0.720	0.130
2020/01/31 09:42:05.8	117.120	0.520	-0.710	0.160
2020/01/31 09:42:05.9	117.120	0.520	-0.710	0.190
2020/01/31 09:42:06.0	117.110	0.520	-0.690	0.220
2020/01/31 09:42:06.1	117.110	0.520	-0.680	0.260
2020/01/31 09:42:06.2	117.100	0.510	-0.660	0.300
2020/01/31 09:42:06.3	117.090	0.500	-0.640	0.340
2020/01/31 09:42:06.4	117.060	0.490	-0.610	0.390
2020/01/31 09:42:06.5	117.040	0.480	-0.590	0.440
2020/01/31 09:42:06.6	117.030	0.460	-0.560	0.490
2020/01/31 09:42:06.7	117.000	0.440	-0.520	0.550
2020/01/31 09:42:06.8	116.980	0.420	-0.490	0.600
2020/01/31 09:42:06.9	116.960	0.400	-0.450	0.660
2020/01/31 09:42:07.0	116.930	0.370	-0.410	0.720
2020/01/31 09:42:07.1	116.900	0.340	-0.360	0.790
2020/01/31 09:42:07.2	116.870	0.310	-0.320	0.850
2020/01/31 09:42:07.3	116.840	0.280	-0.270	0.910
2020/01/31 09:42:07.4	116.820	0.240	-0.230	0.980
2020/01/31 09:42:07.5	116.780	0.210	-0.180	1.040
2020/01/31 09:42:07.6	116.750	0.170	-0.130	1.110
2020/01/31 09:42:07.7	116.720	0.130	-0.080	1.170
2020/01/31 09:42:07.8	116.690	0.100	-0.040	1.230
2020/01/31 09:42:07.9	116.650	0.060	0.010	1.290
2020/01/31 09:42:08.0	116.620	0.020	0.060	1.340
2020/01/31 09:42:08.1	116.590	-0.020	0.100	1.400
2020/01/31 09:42:08.2	116.560	-0.060	0.150	1.450
2020/01/31 09:42:08.3	116.540	-0.090	0.190	1.490
2020/01/31 09:42:08.4	116.510	-0.130	0.240	1.540
2020/01/31 09:42:08.5	116.490	-0.160	0.280	1.570
2020/01/31 09:42:08.6	116.470	-0.200	0.320	1.610
2020/01/31 09:42:08.7	116.450	-0.230	0.350	1.640
2020/01/31 09:42:08.8	116.430	-0.260	0.390	1.660
2020/01/31 09:42:08.9	116.420	-0.290	0.420	1.680
2020/01/31 09:42:09.0	116.400	-0.320	0.450	1.700
2020/01/31 09:42:09.1	116.390	-0.340	0.480	1.710
2020/01/31 09:42:09.2	116.390	-0.360	0.510	1.710
2020/01/31 09:42:09.3	116.380	-0.380	0.530	1.720
2020/01/31 09:42:09.4	116.400	-0.400	0.540	1.710
2020/01/31 09:42:09.5	116.400	-0.420	0.560	1.710
2020/01/31 09:42:09.6	116.400	-0.430	0.570	1.700
2020/01/31 09:42:09.7	116.400	-0.440	0.570	1.690
2020/01/31 09:42:09.8	116.400	-0.450	0.580	1.670
2020/01/31 09:42:09.9	116.410	-0.450	0.570	1.650
2020/01/31 09:42:10.0	116.420	-0.450	0.570	1.630
2020/01/31 09:42:10.1	116.430	-0.450	0.560	1.610
2020/01/31 09:42:10.2	116.430	-0.450	0.540	1.590
2020/01/31 09:42:10.3	116.450	-0.440	0.520	1.560
2020/01/31 09:42:10.4	116.460	-0.430	0.500	1.530
2020/01/31 09:42:10.5	116.470	-0.420	0.470	1.500
2020/01/31 09:42:10.6	116.480	-0.410	0.440	1.470
2020/01/31 09:42:10.7	116.500	-0.400	0.400	1.440
2020/01/31 09:42:10.8	116.510	-0.380	0.360	1.410
2020/01/31 09:42:10.9	116.520	-0.360	0.320	1.370
2020/01/31 09:42:11.0	116.530	-0.340	0.270	1.340
2020/01/31 09:42:11.1	116.540	-0.310	0.220	1.310
2020/01/31 09:42:11.2	116.550	-0.290	0.170	1.280
2020/01/31 09:42:11.3	116.560	-0.260	0.120	1.250
2020/01/31 09:42:11.4	116.580	-0.240	0.060	1.210
2020/01/31 09:42:11.5	116.590	-0.210	0.010	1.180
2020/01/31 09:42:11.6	116.600	-0.180	-0.050	1.150
2020/01/31 09:42:11.7	116.610	-0.150	-0.110	1.120
2020/01/31 09:42:11.8	116.610	-0.120	-0.170	1.080
2020/01/31 09:42:11.9	116.620	-0.090	-0.230	1.050
2020/01/31 09:42:12.0	116.630	-0.060	-0.290	1.020
2020/01/31 09:42:12.1	116.640	-0.030	-0.350	0.990
2020/01/31 09:42:12.2	116.640	-0.000	-0.400	0.960
2020/01/31 09:42:12.3	116.650	0.020	-0.460	0.930
2020/01/31 09:42:12.4	116.660	0.050	-0.510	0.890
2020/01/31 09:42:12.5	116.670	0.080	-0.560	0.860
2020/01/31 09:42:12.6	116.670	0.100	-0.610	0.830
2020/01/31 09:42:12.7	116.680	0.130	-0.660	0.800
2020/01/31 09:42:12.8	116.680	0.150	-0.700	0.770
2020/01/31 09:42:12.9	116.690	0.170	-0.740	0.740
2020/01/31 09:42:13.0	116.690	0.190	-0.770	0.710
2020/01/31 09:42:13.1	116.700	0.210	-0.800	0.680
2020/01/31 09:42:13.2	116.700	0.230	-0.830	0.650
2020/01/31 09:42:13.3	116.700	0.240	-0.850	0.630
2020/01/31 09:42:13.4	116.700	0.250	-0.870	0.590
2020/01/31 09:42:13.5	116.700	0.270	-0.880	0.570
2020/01/31 09:42:13.6	116.700	0.270	-0.890	0.550
2020/01/31 09:42:13.7	116.690	0.280	-0.890	0.530
2020/01/31 09:42:13.8	116.690	0.290	-0.890	0.510
2020/01/31 09:42:13.9	116.680	0.290	-0.880	0.490
2020/01/31 09:42:14.0	116.680	0.290	-0.870	0.480
2020/01/31 09:42:14.1	116.670	0.290	-0.860	0.470
2020/01/31 09:42:14.2	116.650	0.290	-0.840	0.460
2020/01/31 09:42:14.3	116.640	0.280	-0.820	0.450
2020/01/31 09:42:14.4	116.630	0.280	-0.790	0.450
2020/01/31 09:42:14.5	116.620	0.270	-0.760	0.450
2020/01/31 09:42:14.6	116.600	0.260	-0.720	0.450
2020/01/31 09:42:14.7	116.580	0.250	-0.690	0.450
2020/01/31 09:42:14.8	116.560	0.240	-0.650	0.460
2020/01/31 09:42:14.9	116.530	0.230	-0.600	0.460
2020/01/31 09:42:15.0	116.510	0.220	-0.560	0.470
2020/01/31 09:42:15.1	116.490	0.210	-0.510	0.480
2020/01/31 09:42:15.2	116.460	0.190	-0.460	0.490
2020/01/31 09:42:15.3	116.440	0.180	-0.400	0.500
2020/01/31 09:42:15.4	116.410	0.160	-0.350	0.520
2020/01/31 09:42:15.5	116.390	0.150	-0.290	0.530
2020/01/31 09:42:15.6	116.370	0.130	-0.240	0.540
2020/01/31 09:42:15.7	116.340	0.110	-0.180	0.560
2020/01/31 09:42:15.8	116.320	0.090	-0.130	0.570
2020/01/31 09:42:15.9	116.300	0.080	-0.070	0.580
2020/01/31 09:42:16.0	116.280	0.060	-0.010	0.600
2020/01/31 09:42:16.1	116.270	0.040	0.040	0.610
2020/01/31 09:42:16.2	116.250	0.020	0.090	0.620
2020/01/31 09:42:16.3	116.230	0.000	0.140	0.630
2020/01/31 09:42:16.4	116.220	-0.020	0.190	0.640
2020/01/31 09:42:16.5	116.210	-0.040	0.240	0.650
2020/01/31 09:42:16.6	116.200	-0.050	0.280	0.650
2020/01/31 09:42:16.7	116.190	-0.070	0.320	0.660
2020/01/31 09:42:16.8	116.180	-0.090	0.360	0.660
2020/01/31 09:42:16.9	116.180	-0.100	0.390	0.670
2020/01/31 09:42:17.0	116.170	-0.120	0.410	0.670
2020/01/31 09:42:17.1	116.170	-0.130	0.440	0.670
2020/01/31 09:42:17.2	116.160	-0.150	0.450	0.680
2020/01/31 09:42:17.3	116.160	-0.160	0.470	0.680
2020/01/31 09:42:17.4	116.150	-0.170	0.470	0.680
2020/01/31 09:42:17.5	116.150	-0.180	0.480	0.680
2020/01/31 09:42:17.6	116.140	-0.190	0.470	0.680
2020/01/31 09:42:17.7	116.140	-0.190	0.460	0.690
2020/01/31 09:42:17.8	116.140	-0.200	0.450	0.690
2020/01/31 09:42:17.9	116.150	-0.200	0.430	0.690
2020/01/31 09:42:18.0	116.150	-0.210	0.400	0.690
2020/01/31 09:42:18.1	116.150	-0.210	0.370	0.690
2020/01/31 09:42:18.2	116.150	-0.210	0.340	0.690
2020/01/31 09:42:18.3	116.150	-0.200	0.300	0.690
2020/01/31 09:42:18.4	116.160	-0.200	0.260	0.690
2020/01/31 09:42:18.5	116.160	-0.200	0.210	0.690
2020/01/31 09:42:18.6	116.170	-0.190	0.160	0.680
2020/01/31 09:42:18.7	116.180	-0.180	0.110	0.680
2020/01/31 09:42:18.8	116.190	-0.180	0.050	0.680
2020/01/31 09:42:18.9	116.190	-0.170	-0.000	0.670
2020/01/31 09:42:19.0	116.200	-0.160	-0.060	0.660
2020/01/31 09:42:19.1	116.220	-0.140	-0.120	0.660
2020/01/31 09:42:19.2	116.230	-0.130	-0.180	0.650
2020/01/31 09:42:19.3	116.240	-0.120	-0.240	0.640
2020/01/31 09:42:19.4	116.260	-0.100	-0.300	0.630
2020/01/31 09:42:19.5	116.270	-0.090	-0.360	0.630
2020/01/31 09:42:19.6	116.280	-0.080	-0.420	0.620
2020/01/31 09:42:19.7	116.300	-0.060	-0.470	0.610
2020/01/31 09:42:19.8	116.310	-0.050	-0.530	0.600
2020/01/31 09:42:19.9	116.320	-0.030	-0.570	0.590
2020/01/31 09:42:20.0	116.340	-0.020	-0.620	0.590
2020/01/31 09:42:20.1	116.350	-0.000	-0.660	0.590
2020/01/31 09:42:20.2	116.360	0.010	-0.700	0.580
2020/01/31 09:42:20.3	116.370	0.030	-0.730	0.580
2020/01/31 09:42:20.4	116.380	0.040	-0.760	0.590
2020/01/31 09:42:20.5	116.380	0.050	-0.780	0.590
2020/01/31 09:42:20.6	116.390	0.060	-0.790	0.590
2020/01/31 09:42:20.7	116.390	0.070	-0.800	0.600
2020/01/31 09:42:20.8	116.390	0.080	-0.810	0.610
2020/01/31 09:42:20.9	116.390	0.090	-0.810	0.630
2020/01/31 09:42:21.0	116.390	0.100	-0.800	0.640
2020/01/31 09:42:21.1	116.380	0.100	-0.790	0.660
2020/01/31 09:42:21.2	116.370	0.110	-0.770	0.680
2020/01/31 09:42:21.3	116.360	0.110	-0.750	0.700
2020/01/31 09:42:21.4	116.360	0.110	-0.720	0.720
2020/01/31 09:42:21.5	116.340	0.110	-0.690	0.740
2020/01/31 09:42:21.6	116.330	0.110	-0.650	0.770
2020/01/31 09:42:21.7	116.310	0.110	-0.610	0.790
2020/01/31 09:42:21.8	116.290	0.110	-0.560	0.820
2020/01/31 09:42:21.9	116.270	0.100	-0.510	0.850
2020/01/31 09:42:22.0	116.250	0.100	-0.460	0.880
2020/01/31 09:42:22.1	116.220	0.090	-0.410	0.910
2020/01/31 09:42:22.2	116.200	0.090	-0.360	0.930
2020/01/31 09:42:22.3	116.170	0.080	-0.300	0.960
2020/01/31 09:42:22.4	116.130	0.070	-0.240	0.990
2020/01/31 09:42:22.5	116.100	0.060	-0.180	1.020
2020/01/31 09:42:22.6	116.080	0.050	-0.130	1.050
2020/01/31 09:42:22.7	116.050	0.040	-0.070	1.070
2020/01/31 09:42:22.8	116.020	0.030	-0.020	1.100
2020/01/31 09:42:22.9	115.990	0.020	0.030	1.120
2020/01/31 09:42:23.0	115.950	0.010	0.080	1.150
2020/01/31 09:42:23.1	115.920	-0.000	0.120	1.170
2020/01/31 09:42:23.2	115.890	-0.010	0.160	1.190
2020/01/31 09:42:23.3	115.860	-0.030	0.200	1.210
2020/01/31 09:42:23.4	115.840	-0.040	0.240	1.220
2020/01/31 09:42:23.5	115.810	-0.040	0.270	1.230
2020/01/31 09:42:23.6	115.790	-0.050	0.300	1.250
2020/01/31 09:42:23.7	115.760	-0.060	0.320	1.260
2020/01/31 09:42:23.8	115.730	-0.070	0.340	1.260
2020/01/31 09:42:23.9	115.700	-0.080	0.350	1.270
2020/01/31 09:42:24.0	115.680	-0.080	0.360	1.270
2020/01/31 09:42:24.1	115.660	-0.090	0.360	1.270
2020/01/31 09:42:24.2	115.640	-0.090	0.370	1.270
2020/01/31 09:42:24.3	115.620	-0.100	0.360	1.270
2020/01/31 09:42:24.4	115.610	-0.100	0.350	1.260
2020/01/31 09:42:24.5	115.600	-0.100	0.340	1.250
2020/01/31 09:42:24.6	115.590	-0.110	0.320	1.240
2020/01/31 09:42:24.7	115.580	-0.110	0.310	1.220
2020/01/31 09:42:24.8	115.570	-0.110	0.280	1.210
2020/01/31 09:42:24.9	115.570	-0.100	0.260	1.180
2020/01/31 09:42:25.0	115.570	-0.100	0.230	1.160
2020/01/31 09:42:25.1	115.580	-0.100	0.210	1.130
2020/01/31 09:42:25.2	115.590	-0.100	0.180	1.100
2020/01/31 09:42:25.3	115.600	-0.090	0.150	1.070
2020/01/31 09:42:25.4	115.620	-0.090	0.120	1.030
2020/01/31 09:42:25.5	115.640	-0.080	0.080	1.000
2020/01/31 09:42:25.6	115.650	-0.070	0.050	0.960
2020/01/31 09:42:25.7	115.670	-0.070	0.020	0.920
2020/01/31 09:42:25.8	115.700	-0.060	-0.010	0.880
2020/01/31 09:42:25.9	115.720	-0.050	-0.040	0.840
2020/01/31 09:42:26.0	115.750	-0.040	-0.070	0.800
2020/01/31 09:42:26.1	115.770	-0.040	-0.100	0.750
2020/01/31 09:42:26.2	115.800	-0.030	-0.120	0.710
2020/01/31 09:42:26.3	115.830	-0.020	-0.150	0.660
2020/01/31 09:42:26.4	115.870	-0.010	-0.180	0.620
2020/01/31 09:42:26.5	115.900	0.000	-0.200	0.580
2020/01/31 09:42:26.6	115.930	0.010	-0.220	0.530
2020/01/31 09:42:26.7	115.970	0.020	-0.230	0.490
2020/01/31 09:42:26.8	116.000	0.030	-0.250	0.450
2020/01/31 09:42:26.9	116.030	0.040	-0.260	0.410
2020/01/31 09:42:27.0	116.060	0.040	-0.280	0.380
2020/01/31 09:42:27.1	116.100	0.050	-0.290	0.340
2020/01/31 09:42:27.2	116.130	0.060	-0.300	0.310
2020/01/31 09:42:27.3	116.160	0.070	-0.310	0.280
2020/01/31 09:42:27.4	116.180	0.080	-0.320	0.250
2020/01/31 09:42:27.5	116.210	0.080	-0.320	0.230
2020/01/31 09:42:27.6	116.240	0.090	-0.330	0.200
2020/01/31 09:42:27.7	116.260	0.100	-0.330	0.190
2020/01/31 09:42:27.8	116.280	0.100	-0.340	0.170
2020/01/31 09:42:27.9	116.300	0.110	-0.340	0.160
2020/01/31 09:42:28.0	116.320	0.120	-0.340	0.150
2020/01/31 09:42:28.1	116.330	0.120	-0.340	0.140
2020/01/31 09:42:28.2	116.350	0.130	-0.340	0.140
2020/01/31 09:42:28.3	116.360	0.130	-0.340	0.140
2020/01/31 09:42:28.4	116.360	0.140	-0.340	0.140
2020/01/31 09:42:28.5	116.370	0.140	-0.350	0.140
2020/01/31 09:42:28.6	116.370	0.150	-0.350	0.150
2020/01/31 09:42:28.7	116.360	0.150	-0.350	0.160
2020/01/31 09:42:28.8	116.360	0.150	-0.350	0.180
2020/01/31 09:42:28.9	116.350	0.160	-0.350	0.200
2020/01/31 09:42:29.0	116.330	0.160	-0.350	0.220
2020/01/31 09:42:29.1	116.320	0.160	-0.350	0.240
2020/01/31 09:42:29.2	116.300	0.160	-0.360	0.270
2020/01/31 09:42:29.3	116.270	0.160	-0.360	0.300
2020/01/31 09:42:29.4	116.240	0.160	-0.360	0.340
2020/01/31 09:42:29.5	116.210	0.160	-0.360	0.370
2020/01/31 09:42:29.6	116.180	0.160	-0.360	0.410
2020/01/31 09:42:29.7	116.150	0.160	-0.350	0.450
2020/01/31 09:42:29.8	116.110	0.160	-0.350	0.480
2020/01/31 09:42:29.9	116.080	0.150	-0.350	0.520
2020/01/31 09:42:30.0	116.040	0.150	-0.340	0.560
2020/01/31 09:42:30.1	116.000	0.140	-0.330	0.610
2020/01/31 09:42:30.2	115.960	0.140	-0.320	0.650
2020/01/31 09:42:30.3	115.910	0.130	-0.310	0.690
2020/01/31 09:42:30.4	115.880	0.130	-0.300	0.720
2020/01/31 09:42:30.5	115.840	0.120	-0.280	0.760
2020/01/31 09:42:30.6	115.800	0.110	-0.270	0.800
2020/01/31 09:42:30.7	115.760	0.100	-0.250	0.830
2020/01/31 09:42:30.8	115.720	0.100	-0.230	0.860
2020/01/31 09:42:30.9	115.680	0.090	-0.220	0.890
2020/01/31 09:42:31.0	115.650	0.080	-0.200	0.910
2020/01/31 09:42:31.1	115.620	0.070	-0.180	0.930
2020/01/31 09:42:31.2	115.590	0.060	-0.160	0.950
2020/01/31 09:42:31.3	115.560	0.050	-0.140	0.970
2020/01/31 09:42:31.4	115.540	0.040	-0.120	0.980
2020/01/31 09:42:31.5	115.520	0.030	-0.100	0.990
2020/01/31 09:42:31.6	115.500	0.030	-0.080	0.990
2020/01/31 09:42:31.7	115.480	0.020	-0.070	0.990
2020/01/31 09:42:31.8	115.470	0.010	-0.050	0.990
2020/01/31 09:42:31.9	115.460	0.000	-0.040	0.990
2020/01/31 09:42:32.0	115.450	-0.000	-0.040	0.980
2020/01/31 09:42:32.1	115.450	-0.010	-0.030	0.980
2020/01/31 09:42:32.2	115.440	-0.010	-0.030	0.970
2020/01/31 09:42:32.3	115.440	-0.020	-0.030	0.960
2020/01/31 09:42:32.4	115.450	-0.020	-0.030	0.940
2020/01/31 09:42:32.5	115.460	-0.030	-0.040	0.930
2020/01/31 09:42:32.6	115.460	-0.030	-0.050	0.920
2020/01/31 09:42:32.7	115.470	-0.030	-0.060	0.900
2020/01/31 09:42:32.8	115.480	-0.030	-0.080	0.890
2020/01/31 09:42:32.9	115.490	-0.030	-0.090	0.870
2020/01/31 09:42:33.0	115.510	-0.030	-0.110	0.860
2020/01/31 09:42:33.1	115.520	-0.020	-0.130	0.840
2020/01/31 09:42:33.2	115.540	-0.020	-0.150	0.830
2020/01/31 09:42:33.3	115.550	-0.020	-0.180	0.810
2020/01/31 09:42:33.4	115.570	-0.010	-0.200	0.800
2020/01/31 09:42:33.5	115.580	-0.010	-0.220	0.780
2020/01/31 09:42:33.6	115.600	-0.010	-0.250	0.770
2020/01/31 09:42:33.7	115.620	-0.000	-0.270	0.750
2020/01/31 09:42:33.8	115.640	0.000	-0.290	0.740
2020/01/31 09:42:33.9	115.660	0.010	-0.310	0.720
2020/01/31 09:42:34.0	115.680	0.010	-0.320	0.700
2020/01/31 09:42:34.1	115.700	0.010	-0.340	0.690
2020/01/31 09:42:34.2	115.720	0.010	-0.350	0.670
2020/01/31 09:42:34.3	115.740	0.020	-0.350	0.650
2020/01/31 09:42:34.4	115.760	0.020	-0.360	0.630
2020/01/31 09:42:34.5	115.780	0.020	-0.360	0.610
2020/01/31 09:42:34.6	115.800	0.010	-0.350	0.590
2020/01/31 09:42:34.7	115.820	0.010	-0.350	0.570
2020/01/31 09:42:34.8	115.830	0.000	-0.340	0.550
2020/01/31 09:42:34.9	115.850	-0.000	-0.330	0.530
2020/01/31 09:42:35.0	115.870	-0.010	-0.310	0.510
2020/01/31 09:42:35.1	115.890	-0.020	-0.290	0.490
2020/01/31 09:42:35.2	115.910	-0.030	-0.270	0.470
2020/01/31 09:42:35.3	115.920	-0.040	-0.250	0.450
2020/01/31 09:42:35.4	115.940	-0.060	-0.220	0.440
2020/01/31 09:42:35.5	115.950	-0.070	-0.200	0.420
2020/01/31 09:42:35.6	115.960	-0.090	-0.170	0.410
2020/01/31 09:42:35.7	115.970	-0.110	-0.140	0.400
2020/01/31 09:42:35.8	115.980	-0.130	-0.110	0.380
2020/01/31 09:42:35.9	115.990	-0.140	-0.090	0.380
2020/01/31 09:42:36.0	116.000	-0.160	-0.060	0.370
2020/01/31 09:42:36.1	116.000	-0.180	-0.030	0.370
2020/01/31 09:42:36.2	116.000	-0.200	-0.010	0.370
2020/01/31 09:42:36.3	116.000	-0.220	0.010	0.370
2020/01/31 09:42:36.4	116.000	-0.240	0.030	0.370
2020/01/31 09:42:36.5	116.000	-0.260	0.050	0.380
2020/01/31 09:42:36.6	115.990	-0.270	0.060	0.390
2020/01/31 09:42:36.7	115.980	-0.290	0.070	0.410
2020/01/31 09:42:36.8	115.970	-0.300	0.080	0.430
2020/01/31 09:42:36.9	115.960	-0.310	0.080	0.450
2020/01/31 09:42:37.0	115.940	-0.320	0.080	0.470
2020/01/31 09:42:37.1	115.930	-0.330	0.070	0.500
2020/01/31 09:42:37.2	115.910	-0.340	0.070	0.530
2020/01/31 09:42:37.3	115.890	-0.340	0.050	0.560
2020/01/31 09:42:37.4	115.850	-0.340	0.040	0.600
2020/01/31 09:42:37.5	115.830	-0.340	0.020	0.630
2020/01/31 09:42:37.6	115.810	-0.330	0.000	0.670
2020/01/31 09:42:37.7	115.780	-0.330	-0.020	0.700
2020/01/31 09:42:37.8	115.760	-0.320	-0.050	0.740
2020/01/31 09:42:37.9	115.740	-0.310	-0.070	0.770
2020/01/31 09:42:38.0	115.720	-0.290	-0.100	0.810
2020/01/31 09:42:38.1	115.700	-0.280	-0.130	0.840
2020/01/31 09:42:38.2	115.680	-0.260	-0.160	0.870
2020/01/31 09:42:38.3	115.660	-0.240	-0.190	0.900
2020/01/31 09:42:38.4	115.630	-0.220	-0.220	0.930
2020/01/31 09:42:38.5	115.610	-0.200	-0.240	0.960
2020/01/31 09:42:38.6	115.600	-0.180	-0.270	0.980
2020/01/31 09:42:38.7	115.590	-0.160	-0.290	1.010
2020/01/31 09:42:38.8	115.580	-0.140	-0.310	1.030
2020/01/31 09:42:38.9	115.570	-0.110	-0.330	1.040
2020/01/31 09:42:39.0	115.570	-0.090	-0.340	1.060
2020/01/31 09:42:39.1	115.560	-0.070	-0.350	1.070
2020/01/31 09:42:39.2	115.560	-0.050	-0.360	1.080
2020/01/31 09:42:39.3	115.560	-0.030	-0.360	1.090
2020/01/31 09:42:39.4	115.570	-0.010	-0.360	1.100
2020/01/31 09:42:39.5	115.570	0.000	-0.360	1.100
2020/01/31 09:42:39.6	115.570	0.020	-0.350	1.100
2020/01/31 09:42:39.7	115.570	0.030	-0.330	1.100
2020/01/31 09:42:39.8	115.580	0.040	-0.320	1.100
2020/01/31 09:42:39.9	115.580	0.060	-0.290	1.100
2020/01/31 09:42:40.0	115.590	0.060	-0.270	1.090
2020/01/31 09:42:40.1	115.600	0.070	-0.240	1.080
2020/01/31 09:42:40.2	115.600	0.080	-0.210	1.070
2020/01/31 09:42:40.3	115.610	0.080	-0.180	1.070
2020/01/31 09:42:40.4	115.620	0.080	-0.140	1.050
2020/01/31 09:42:40.5	115.630	0.080	-0.110	1.040
2020/01/31 09:42:40.6	115.640	0.080	-0.070	1.030
2020/01/31 09:42:40.7	115.640	0.070	-0.030	1.010
2020/01/31 09:42:40.8	115.650	0.070	0.010	0.990
2020/01/31 09:42:40.9	115.660	0.060	0.040	0.970
2020/01/31 09:42:41.0	115.670	0.060	0.080	0.950
2020/01/31 09:42:41.1	115.680	0.050	0.120	0.930
2020/01/31 09:42:41.2	115.690	0.040	0.150	0.910
2020/01/31 09:42:41.3	115.700	0.030	0.180	0.880
2020/01/31 09:42:41.4	115.710	0.020	0.210	0.860
2020/01/31 09:42:41.5	115.730	0.010	0.240	0.830
2020/01/31 09:42:41.6	115.740	-0.000	0.260	0.800
2020/01/31 09:42:41.7	115.750	-0.010	0.280	0.770
2020/01/31 09:42:41.8	115.760	-0.020	0.300	0.730
2020/01/31 09:42:41.9	115.780	-0.030	0.310	0.700
2020/01/31 09:42:42.0	115.790	-0.040	0.310	0.660
2020/01/31 09:42:42.1	115.800	-0.040	0.310	0.620
2020/01/31 09:42:42.2	115.820	-0.050	0.300	0.590
2020/01/31 09:42:42.3	115.830	-0.050	0.290	0.550
2020/01/31 09:42:42.4	115.830	-0.050	0.270	0.520
2020/01/31 09:42:42.5	115.840	-0.060	0.250	0.480
2020/01/31 09:42:42.6	115.850	-0.050	0.220	0.450
2020/01/31 09:42:42.7	115.860	-0.050	0.180	0.420
2020/01/31 09:42:42.8	115.860	-0.050	0.140	0.390
2020/01/31 09:42:42.9	115.860	-0.040	0.100	0.360
2020/01/31 09:42:43.0	115.870	-0.030	0.050	0.340
2020/01/31 09:42:43.1	115.860	-0.020	-0.010	0.320
2020/01/31 09:42:43.2	115.860	-0.000	-0.070	0.300
2020/01/31 09:42:43.3	115.850	0.010	-0.130	0.290
2020/01/31 09:42:43.4	115.840	0.030	-0.200	0.280
2020/01/31 09:42:43.5	115.830	0.050	-0.260	0.280
2020/01/31 09:42:43.6	115.810	0.070	-0.330	0.280
2020/01/31 09:42:43.7	115.800	0.100	-0.400	0.280
2020/01/31 09:42:43.8	115.780	0.120	-0.470	0.290
2020/01/31 09:42:43.9	115.760	0.150	-0.530	0.290
2020/01/31 09:42:44.0	115.740	0.170	-0.590	0.310
2020/01/31 09:42:44.1	115.720	0.200	-0.650	0.320
2020/01/31 09:42:44.2	115.700	0.230	-0.710	0.340
2020/01/31 09:42:44.3	115.670	0.260	-0.760	0.360
2020/01/31 09:42:44.4	115.650	0.280	-0.810	0.380
2020/01/31 09:42:44.5	115.630	0.310	-0.850	0.400
2020/01/31 09:42:44.6	115.600	0.340	-0.890	0.430
2020/01/31 09:42:44.7	115.580	0.360	-0.920	0.450
2020/01/31 09:42:44.8	115.550	0.390	-0.940	0.480
2020/01/31 09:42:44.9	115.530	0.410	-0.960	0.510
2020/01/31 09:42:45.0	115.510	0.430	-0.960	0.530
2020/01/31 09:42:45.1	115.480	0.450	-0.970	0.560
2020/01/31 09:42:45.2	115.460	0.470	-0.960	0.590
2020/01/31 09:42:45.3	115.440	0.480	-0.950	0.630
2020/01/31 09:42:45.4	115.430	0.490	-0.930	0.660
2020/01/31 09:42:45.5	115.410	0.500	-0.910	0.690
2020/01/31 09:42:45.6	115.390	0.510	-0.880	0.720
2020/01/31 09:42:45.7	115.360	0.510	-0.850	0.750
2020/01/31 09:42:45.8	115.340	0.510	-0.810	0.780
2020/01/31 09:42:45.9	115.320	0.510	-0.770	0.820
2020/01/31 09:42:46.0	115.300	0.500	-0.730	0.850
2020/01/31 09:42:46.1	115.280	0.490	-0.680	0.880
2020/01/31 09:42:46.2	115.260	0.480	-0.640	0.910
2020/01/31 09:42:46.3	115.240	0.460	-0.590	0.940
2020/01/31 09:42:46.4	115.230	0.450	-0.530	0.980
2020/01/31 09:42:46.5	115.210	0.430	-0.480	1.010
2020/01/31 09:42:46.6	115.200	0.410	-0.430	1.040
2020/01/31 09:42:46.7	115.180	0.380	-0.380	1.060
2020/01/31 09:42:46.8	115.160	0.360	-0.320	1.090
2020/01/31 09:42:46.9	115.140	0.330	-0.270	1.120
2020/01/31 09:42:47.0	115.130	0.300	-0.220	1.140
2020/01/31 09:42:47.1	115.110	0.270	-0.170	1.170
2020/01/31 09:42:47.2	115.100	0.240	-0.120	1.190
2020/01/31 09:42:47.3	115.080	0.210	-0.070	1.210
2020/01/31 09:42:47.4	115.070	0.170	-0.020	1.230
2020/01/31 09:42:47.5	115.060	0.140	0.030	1.240
2020/01/31 09:42:47.6	115.050	0.110	0.070	1.260
2020/01/31 09:42:47.7	115.040	0.070	0.120	1.270
2020/01/31 09:42:47.8	115.040	0.040	0.160	1.280
2020/01/31 09:42:47.9	115.030	0.010	0.210	1.290
2020/01/31 09:42:48.0	115.030	-0.030	0.250	1.300
2020/01/31 09:42:48.1	115.030	-0.060	0.290	1.300
2020/01/31 09:42:48.2	115.030	-0.090	0.320	1.310
2020/01/31 09:42:48.3	115.030	-0.120	0.360	1.310
2020/01/31 09:42:48.4	115.040	-0.150	0.390	1.300
2020/01/31 09:42:48.5	115.050	-0.180	0.420	1.300
2020/01/31 09:42:48.6	115.050	-0.210	0.450	1.290
2020/01/31 09:42:48.7	115.060	-0.230	0.480	1.290
2020/01/31 09:42:48.8	115.070	-0.260	0.510	1.270
2020/01/31 09:42:48.9	115.090	-0.280	0.530	1.260
2020/01/31 09:42:49.0	115.100	-0.310	0.550	1.250
2020/01/31 09:42:49.1	115.110	-0.330	0.560	1.230
2020/01/31 09:42:49.2	115.130	-0.350	0.580	1.210
2020/01/31 09:42:49.3	115.140	-0.370	0.590	1.190
2020/01/31 09:42:49.4	115.160	-0.390	0.590	1.170
2020/01/31 09:42:49.5	115.170	-0.400	0.590	1.140
2020/01/31 09:42:49.6	115.190	-0.420	0.590	1.120
2020/01/31 09:42:49.7	115.200	-0.430	0.590	1.090
2020/01/31 09:42:49.8	115.220	-0.450	0.580	1.070
2020/01/31 09:42:49.9	115.230	-0.460	0.570	1.040
2020/01/31 09:42:50.0	115.250	-0.470	0.560	1.010
2020/01/31 09:42:50.1	115.260	-0.480	0.540	0.990
2020/01/31 09:42:50.2	115.270	-0.480	0.520	0.960
2020/01/31 09:42:50.3	115.280	-0.490	0.490	0.930
2020/01/31 09:42:50.4	115.290	-0.490	0.460	0.910
2020/01/31 09:42:50.5	115.300	-0.500	0.430	0.880
2020/01/31 09:42:50.6	115.300	-0.500	0.400	0.860
2020/01/31 09:42:50.7	115.310	-0.500	0.360	0.840
2020/01/31 09:42:50.8	115.320	-0.500	0.320	0.820
2020/01/31 09:42:50.9	115.320	-0.500	0.280	0.800
2020/01/31 09:42:51.0	115.320	-0.500	0.240	0.780
2020/01/31 09:42:51.1	115.320	-0.490	0.190	0.770
2020/01/31 09:42:51.2	115.320	-0.480	0.150	0.760
2020/01/31 09:42:51.3	115.320	-0.480	0.100	0.750
2020/01/31 09:42:51.4	115.310	-0.470	0.040	0.740
2020/01/31 09:42:51.5	115.310	-0.460	-0.010	0.730
2020/01/31 09:42:51.6	115.300	-0.450	-0.060	0.730
2020/01/31 09:42:51.7	115.290	-0.430	-0.120	0.730
2020/01/31 09:42:51.8	115.280	-0.420	-0.170	0.730
2020/01/31 09:42:51.9	115.270	-0.400	-0.220	0.730
2020/01/31 09:42:52.0	115.260	-0.390	-0.270	0.740
2020/01/31 09:42:52.1	115.250	-0.370	-0.320	0.740
2020/01/31 09:42:52.2	115.240	-0.350	-0.370	0.740
2020/01/31 09:42:52.3	115.220	-0.330	-0.420	0.750
2020/01/31 09:42:52.4	115.200	-0.310	-0.460	0.760
2020/01/31 09:42:52.5	115.190	-0.280	-0.510	0.760
2020/01/31 09:42:52.6	115.170	-0.260	-0.550	0.770
2020/01/31 09:42:52.7	115.150	-0.230	-0.590	0.780
2020/01/31 09:42:52.8	115.140	-0.210	-0.620	0.790
2020/01/31 09:42:52.9	115.120	-0.180	-0.660	0.790
2020/01/31 09:42:53.0	115.100	-0.150	-0.690	0.800
2020/01/31 09:42:53.1	115.080	-0.120	-0.720	0.810
2020/01/31 09:42:53.2	115.060	-0.090	-0.750	0.810
2020/01/31 09:42:53.3	115.040	-0.060	-0.770	0.820
2020/01/31 09:42:53.4	115.010	-0.030	-0.790	0.830
2020/01/31 09:42:53.5	114.990	-0.000	-0.810	0.830
2020/01/31 09:42:53.6	114.970	0.030	-0.830	0.840
2020/01/31 09:42:53.7	114.950	0.060	-0.850	0.840
2020/01/31 09:42:53.8	114.920	0.090	-0.860	0.850
2020/01/31 09:42:53.9	114.900	0.130	-0.870	0.850
2020/01/31 09:42:54.0	114.880	0.160	-0.880	0.850
2020/01/31 09:42:54.1	114.850	0.190	-0.890	0.860
2020/01/31 09:42:54.2	114.830	0.220	-0.890	0.860
2020/01/31 09:42:54.3	114.810	0.250	-0.890	0.860
2020/01/31 09:42:54.4	114.790	0.280	-0.890	0.860
2020/01/31 09:42:54.5	114.770	0.310	-0.890	0.860
2020/01/31 09:42:54.6	114.750	0.340	-0.880	0.860
2020/01/31 09:42:54.7	114.730	0.370	-0.880	0.860
2020/01/31 09:42:54.8	114.710	0.390	-0.870	0.850
2020/01/31 09:42:54.9	114.690	0.420	-0.850	0.850
2020/01/31 09:42:55.0	114.680	0.440	-0.840	0.840
2020/01/31 09:42:55.1	114.660	0.460	-0.820	0.830
2020/01/31 09:42:55.2	114.650	0.480	-0.800	0.820
2020/01/31 09:42:55.3	114.640	0.500	-0.780	0.810
2020/01/31 09:42:55.4	114.630	0.520	-0.760	0.800
2020/01/31 09:42:55.5	114.620	0.530	-0.730	0.780
2020/01/31 09:42:55.6	114.610	0.540	-0.700	0.760
2020/01/31 09:42:55.7	114.610	0.550	-0.670	0.740
2020/01/31 09:42:55.8	114.610	0.560	-0.640	0.720
2020/01/31 09:42:55.9	114.610	0.570	-0.600	0.690
2020/01/31 09:42:56.0	114.610	0.570	-0.560	0.660
2020/01/31 09:42:56.1	114.620	0.570	-0.520	0.640
2020/01/31 09:42:56.2	114.620	0.570	-0.480	0.610
2020/01/31 09:42:56.3	114.630	0.560	-0.430	0.580
2020/01/31 09:42:56.4	114.630	0.560	-0.380	0.540
2020/01/31 09:42:56.5	114.640	0.550	-0.330	0.510
2020/01/31 09:42:56.6	114.650	0.540	-0.280	0.480
2020/01/31 09:42:56.7	114.660	0.530	-0.230	0.450
2020/01/31 09:42:56.8	114.680	0.510	-0.170	0.420
2020/01/31 09:42:56.9	114.690	0.490	-0.120	0.380
2020/01/31 09:42:57.0	114.700	0.470	-0.070	0.350
2020/01/31 09:42:57.1	114.720	0.450	-0.010	0.320
2020/01/31 09:42:57.2	114.730	0.430	0.040	0.290
2020/01/31 09:42:57.3	114.740	0.400	0.100	0.260
2020/01/31 09:42:57.4	114.760	0.380	0.150	0.240
2020/01/31 09:42:57.5	114.770	0.350	0.200	0.220
2020/01/31 09:42:57.6	114.780	0.320	0.250	0.190
2020/01/31 09:42:57.7	114.800	0.290	0.300	0.170
2020/01/31 09:42:57.8	114.810	0.260	0.340	0.150
2020/01/31 09:42:57.9	114.820	0.230	0.390	0.140
2020/01/31 09:42:58.0	114.830	0.190	0.430	0.120
2020/01/31 09:42:58.1	114.850	0.160	0.470	0.110
2020/01/31 09:42:58.2	114.860	0.130	0.500	0.100
2020/01/31 09:42:58.3	114.870	0.090	0.540	0.090
2020/01/31 09:42:58.4	114.880	0.060	0.570	0.080
2020/01/31 09:42:58.5	114.890	0.020	0.600	0.070
2020/01/31 09:42:58.6	114.900	-0.010	0.620	0.070
2020/01/31 09:42:58.7	114.910	-0.050	0.640	0.070
2020/01/31 09:42:58.8	114.920	-0.080	0.660	0.070
2020/01/31 09:42:58.9	114.930	-0.110	0.670	0.070
2020/01/31 09:42:59.0	114.940	-0.150	0.680	0.070
2020/01/31 09:42:59.1	114.940	-0.180	0.690	0.070
2020/01/31 09:42:59.2	114.950	-0.210	0.690	0.080
2020/01/31 09:42:59.3	114.960	-0.240	0.690	0.080
2020/01/31 09:42:59.4	114.950	-0.270	0.690	0.090
2020/01/31 09:42:59.5	114.960	-0.300	0.680	0.100
2020/01/31 09:42:59.6	114.960	-0.330	0.670	0.110
2020/01/31 09:42:59.7	114.970	-0.350	0.650	0.120
2020/01/31 09:42:59.8	114.970	-0.380	0.640	0.130
2020/01/31 09:42:59.9	114.980	-0.400	0.610	0.140
2020/01/31 09:43:00.0	114.980	-0.430	0.590	0.150
2020/01/31 09:43:00.1	114.990	-0.450	0.560	0.160
2020/01/31 09:43:00.2	114.990	-0.470	0.530	0.180
2020/01/31 09:43:00.3	115.000	-0.490	0.500	0.200
2020/01/31 09:43:00.4	115.000	-0.500	0.460	0.210
2020/01/31 09:43:00.5	115.010	-0.520	0.420	0.230
2020/01/31 09:43:00.6	115.010	-0.530	0.380	0.250
2020/01/31 09:43:00.7	115.020	-0.540	0.340	0.270
2020/01/31 09:43:00.8	115.020	-0.550	0.290	0.290
2020/01/31 09:43:00.9	115.030	-0.560	0.240	0.310
2020/01/31 09:43:01.0	115.040	-0.560	0.190	0.340
2020/01/31 09:43:01.1	115.050	-0.570	0.140	0.360
2020/01/31 09:43:01.2	115.050	-0.570	0.090	0.390
2020/01/31 09:43:01.3	115.060	-0.560	0.030	0.420
2020/01/31 09:43:01.4	115.070	-0.560	-0.020	0.450
2020/01/31 09:43:01.5	115.080	-0.550	-0.080	0.480
2020/01/31 09:43:01.6	115.080	-0.540	-0.140	0.520
2020/01/31 09:43:01.7	115.090	-0.530	-0.200	0.550
2020/01/31 09:43:01.8	115.100	-0.520	-0.260	0.590
2020/01/31 09:43:01.9	115.110	-0.500	-0.330	0.620
2020/01/31 09:43:02.0	115.120	-0.480	-0.390	0.660
2020/01/31 09:43:02.1	115.130	-0.460	-0.450	0.700
2020/01/31 09:43:02.2	115.130	-0.430	-0.520	0.740
2020/01/31 09:43:02.3	115.140	-0.410	-0.580	0.790
2020/01/31 09:43:02.4	115.130	-0.380	-0.650	0.830
2020/01/31 09:43:02.5	115.140	-0.350	-0.710	0.870
2020/01/31 09:43:02.6	115.140	-0.310	-0.770	0.910
2020/01/31 09:43:02.7	115.150	-0.280	-0.830	0.960
2020/01/31 09:43:02.8	115.150	-0.240	-0.890	1.000
2020/01/31 09:43:02.9	115.160	-0.200	-0.940	1.040
2020/01/31 09:43:03.0	115.160	-0.160	-1.000	1.090
2020/01/31 09:43:03.1	115.160	-0.120	-1.050	1.130
2020/01/31 09:43:03.2	115.160	-0.080	-1.090	1.180
2020/01/31 09:43:03.3	115.160	-0.040	-1.130	1.220
2020/01/31 09:43:03.4	115.170	0.010	-1.170	1.260
2020/01/31 09:43:03.5	115.170	0.050	-1.200	1.310
2020/01/31 09:43:03.6	115.170	0.090	-1.230	1.350
2020/01/31 09:43:03.7	115.170	0.140	-1.260	1.390
2020/01/31 09:43:03.8	115.160	0.180	-1.280	1.430
2020/01/31 09:43:03.9	115.160	0.220	-1.290	1.470
2020/01/31 09:43:04.0	115.150	0.260	-1.300	1.510
2020/01/31 09:43:04.1	115.150	0.300	-1.300	1.550
2020/01/31 09:43:04.2	115.140	0.330	-1.290	1.590
2020/01/31 09:43:04.3	115.130	0.370	-1.280	1.630
2020/01/31 09:43:04.4	115.150	0.400	-1.260	1.670
2020/01/31 09:43:04.5	115.140	0.430	-1.230	1.700
2020/01/31 09:43:04.6	115.140	0.460	-1.200	1.740
2020/01/31 09:43:04.7	115.130	0.490	-1.160	1.770
2020/01/31 09:43:04.8	115.120	0.510	-1.110	1.800
2020/01/31 09:43:04.9	115.110	0.530	-1.060	1.820
2020/01/31 09:43:05.0	115.110	0.550	-1.000	1.850
2020/01/31 09:43:05.1	115.100	0.560	-0.940	1.870
2020/01/31 09:43:05.2	115.090	0.570	-0.870	1.880
2020/01/31 09:43:05.3	115.090	0.580	-0.800	1.900
2020/01/31 09:43:05.4	115.100	0.580	-0.710	1.910
2020/01/31 09:43:05.5	115.090	0.580	-0.630	1.920
2020/01/31 09:43:05.6	115.090	0.580	-0.550	1.920
2020/01/31 09:43:05.7	115.080	0.580	-0.460	1.920
2020/01/31 09:43:05.8	115.080	0.570	-0.370	1.910
2020/01/31 09:43:05.9	115.080	0.560	-0.270	1.900
2020/01/31 09:43:06.0	115.080	0.540	-0.180	1.880
2020/01/31 09:43:06.1	115.080	0.530	-0.080	1.870
2020/01/31 09:43:06.2	115.080	0.510	0.010	1.840
2020/01/31 09:43:06.3	115.090	0.480	0.100	1.810
2020/01/31 09:43:06.4	115.100	0.460	0.200	1.780
2020/01/31 09:43:06.5	115.110	0.430	0.290	1.740
2020/01/31 09:43:06.6	115.110	0.400	0.380	1.700
2020/01/31 09:43:06.7	115.120	0.370	0.460	1.660
2020/01/31 09:43:06.8	115.130	0.340	0.550	1.610
2020/01/31 09:43:06.9	115.130	0.310	0.620	1.560
2020/01/31 09:43:07.0	115.140	0.270	0.700	1.510
2020/01/31 09:43:07.1	115.150	0.240	0.760	1.460
2020/01/31 09:43:07.2	115.160	0.200	0.820	1.400
2020/01/31 09:43:07.3	115.170	0.170	0.880	1.350
2020/01/31 09:43:07.4	115.190	0.130	0.930	1.290
2020/01/31 09:43:07.5	115.200	0.090	0.980	1.230
2020/01/31 09:43:07.6	115.210	0.060	1.010	1.170
2020/01/31 09:43:07.7	115.220	0.030	1.040	1.110
2020/01/31 09:43:07.8	115.230	-0.010	1.060	1.060
2020/01/31 09:43:07.9	115.240	-0.040	1.080	1.000
2020/01/31 09:43:08.0	115.250	-0.070	1.090	0.940
2020/01/31 09:43:08.1	115.260	-0.090	1.090	0.880
2020/01/31 09:43:08.2	115.270	-0.120	1.080	0.830
2020/01/31 09:43:08.3	115.280	-0.140	1.060	0.770
2020/01/31 09:43:08.4	115.280	-0.160	1.030	0.720
2020/01/31 09:43:08.5	115.290	-0.180	1.010	0.660
2020/01/31 09:43:08.6	115.300	-0.200	0.970	0.610
2020/01/31 09:43:08.7	115.310	-0.210	0.930	0.550
2020/01/31 09:43:08.8	115.310	-0.220	0.880	0.500
2020/01/31 09:43:08.9	115.320	-0.230	0.820	0.450
2020/01/31 09:43:09.0	115.330	-0.230	0.760	0.400
2020/01/31 09:43:09.1	115.330	-0.240	0.690	0.350
2020/01/31 09:43:09.2	115.340	-0.240	0.620	0.300
2020/01/31 09:43:09.3	115.350	-0.230	0.540	0.250
2020/01/31 09:43:09.4	115.330	-0.230	0.460	0.190
2020/01/31 09:43:09.5	115.340	-0.220	0.380	0.150
2020/01/31 09:43:09.6	115.340	-0.210	0.290	0.100
2020/01/31 09:43:09.7	115.340	-0.200	0.200	0.060
2020/01/31 09:43:09.8	115.350	-0.180	0.100	0.020
2020/01/31 09:43:09.9	115.350	-0.170	0.010	-0.030
2020/01/31 09:43:10.0	115.350	-0.150	-0.090	-0.060
2020/01/31 09:43:10.1	115.360	-0.140	-0.190	-0.100
2020/01/31 09:43:10.2	115.360	-0.120	-0.280	-0.130
2020/01/31 09:43:10.3	115.360	-0.100	-0.380	-0.170
2020/01/31 09:43:10.4	115.340	-0.080	-0.470	-0.200
2020/01/31 09:43:10.5	115.340	-0.070	-0.560	-0.220
2020/01/31 09:43:10.6	115.340	-0.050	-0.650	-0.250
2020/01/31 09:43:10.7	115.340	-0.030	-0.740	-0.270
2020/01/31 09:43:10.8	115.340	-0.020	-0.820	-0.280
2020/01/31 09:43:10.9	115.340	-0.000	-0.890	-0.300
2020/01/31 09:43:11.0	115.340	0.010	-0.960	-0.300
2020/01/31 09:43:11.1	115.330	0.020	-1.030	-0.310
2020/01/31 09:43:11.2	115.320	0.030	-1.090	-0.310
2020/01/31 09:43:11.3	115.320	0.040	-1.150	-0.300
2020/01/31 09:43:11.4	115.310	0.040	-1.190	-0.290
2020/01/31 09:43:11.5	115.300	0.050	-1.240	-0.270
2020/01/31 09:43:11.6	115.290	0.050	-1.270	-0.260
2020/01/31 09:43:11.7	115.270	0.050	-1.300	-0.230
2020/01/31 09:43:11.8	115.260	0.050	-1.320	-0.200
2020/01/31 09:43:11.9	115.240	0.040	-1.340	-0.170
2020/01/31 09:43:12.0	115.220	0.040	-1.340	-0.140
2020/01/31 09:43:12.1	115.210	0.030	-1.350	-0.100
2020/01/31 09:43:12.2	115.190	0.020	-1.340	-0.060
2020/01/31 09:43:12.3	115.170	0.010	-1.330	-0.010
2020/01/31 09:43:12.4	115.170	0.000	-1.310	0.040
2020/01/31 09:43:12.5	115.150	-0.010	-1.280	0.090
2020/01/31 09:43:12.6	115.130	-0.020	-1.250	0.140
2020/01/31 09:43:12.7	115.110	-0.040	-1.210	0.190
2020/01/31 09:43:12.8	115.090	-0.050	-1.170	0.240
2020/01/31 09:43:12.9	115.080	-0.060	-1.120	0.300
2020/01/31 09:43:13.0	115.060	-0.080	-1.070	0.350
2020/01/31 09:43:13.1	115.050	-0.090	-1.010	0.410
2020/01/31 09:43:13.2	115.030	-0.100	-0.950	0.460
2020/01/31 09:43:13.3	115.020	-0.120	-0.880	0.510
2020/01/31 09:43:13.4	115.010	-0.130	-0.810	0.570
2020/01/31 09:43:13.5	115.000	-0.140	-0.740	0.620
2020/01/31 09:43:13.6	114.990	-0.150	-0.670	0.670
2020/01/31 09:43:13.7	114.980	-0.160	-0.600	0.720
2020/01/31 09:43:13.8	114.970	-0.170	-0.520	0.770
2020/01/31 09:43:13.9	114.970	-0.170	-0.450	0.820
2020/01/31 09:43:14.0	114.970	-0.180	-0.370	0.860
2020/01/31 09:43:14.1	114.970	-0.180	-0.290	0.900
2020/01/31 09:43:14.2	114.970	-0.180	-0.220	0.940
2020/01/31 09:43:14.3	114.970	-0.180	-0.140	0.980
2020/01/31 09:43:14.4	114.970	-0.180	-0.060	1.010
2020/01/31 09:43:14.5	114.980	-0.180	0.010	1.050
2020/01/31 09:43:14.6	114.990	-0.180	0.080	1.080
2020/01/31 09:43:14.7	115.000	-0.170	0.140	1.110
2020/01/31 09:43:14.8	115.010	-0.170	0.210	1.140
2020/01/31 09:43:14.9	115.020	-0.160	0.270	1.160
2020/01/31 09:43:15.0	115.040	-0.160	0.320	1.190
2020/01/31 09:43:15.1	115.050	-0.150	0.380	1.210
2020/01/31 09:43:15.2	115.070	-0.140	0.430	1.230
2020/01/31 09:43:15.3	115.090	-0.130	0.470	1.260
2020/01/31 09:43:15.4	115.100	-0.120	0.510	1.270
2020/01/31 09:43:15.5	115.120	-0.110	0.550	1.290
2020/01/31 09:43:15.6	115.130	-0.090	0.580	1.310
2020/01/31 09:43:15.7	115.150	-0.080	0.600	1.340
2020/01/31 09:43:15.8	115.160	-0.070	0.620	1.350
2020/01/31 09:43:15.9	115.180	-0.060	0.640	1.370
2020/01/31 09:43:16.0	115.190	-0.050	0.650	1.390
2020/01/31 09:43:16.1	115.190	-0.030	0.660	1.410
2020/01/31 09:43:16.2	115.200	-0.020	0.660	1.430
2020/01/31 09:43:16.3	115.210	-0.010	0.660	1.450
2020/01/31 09:43:16.4	115.230	0.000	0.650	1.460
2020/01/31 09:43:16.5	115.230	0.020	0.640	1.470
2020/01/31 09:43:16.6	115.230	0.030	0.630	1.490
2020/01/31 09:43:16.7	115.240	0.040	0.610	1.500
2020/01/31 09:43:16.8	115.240	0.050	0.590	1.510
2020/01/31 09:43:16.9	115.240	0.060	0.560	1.510
2020/01/31 09:43:17.0	115.240	0.070	0.540	1.520
2020/01/31 09:43:17.1	115.240	0.080	0.510	1.520
2020/01/31 09:43:17.2	115.240	0.080	0.480	1.520
2020/01/31 09:43:17.3	115.230	0.090	0.440	1.510
2020/01/31 09:43:17.4	115.250	0.100	0.410	1.510
2020/01/31 09:43:17.5	115.250	0.100	0.370	1.500
2020/01/31 09:43:17.6	115.240	0.110	0.330	1.490
2020/01/31 09:43:17.7	115.240	0.110	0.300	1.470
2020/01/31 09:43:17.8	115.240	0.110	0.260	1.450
2020/01/31 09:43:17.9	115.230	0.120	0.210	1.430
2020/01/31 09:43:18.0	115.230	0.120	0.170	1.410
2020/01/31 09:43:18.1	115.220	0.120	0.130	1.390
2020/01/31 09:43:18.2	115.210	0.120	0.090	1.360
2020/01/31 09:43:18.3	115.210	0.120	0.050	1.340
2020/01/31 09:43:18.4	115.210	0.110	0.000	1.310
2020/01/31 09:43:18.5	115.200	0.110	-0.040	1.280
2020/01/31 09:43:18.6	115.190	0.110	-0.080	1.250
2020/01/31 09:43:18.7	115.180	0.100	-0.120	1.230
2020/01/31 09:43:18.8	115.170	0.100	-0.160	1.200
2020/01/31 09:43:18.9	115.160	0.090	-0.200	1.170
2020/01/31 09:43:19.0	115.150	0.090	-0.230	1.150
2020/01/31 09:43:19.1	115.140	0.080	-0.270	1.120
2020/01/31 09:43:19.2	115.130	0.080	-0.300	1.090
2020/01/31 09:43:19.3	115.120	0.070	-0.330	1.070
2020/01/31 09:43:19.4	115.120	0.060	-0.360	1.040
2020/01/31 09:43:19.5	115.110	0.060	-0.390	1.020
2020/01/31 09:43:19.6	115.100	0.050	-0.410	1.000
2020/01/31 09:43:19.7	115.090	0.040	-0.430	0.970
2020/01/31 09:43:19.8	115.080	0.040	-0.450	0.950
2020/01/31 09:43:19.9	115.080	0.030	-0.470	0.930
2020/01/31 09:43:20.0	115.070	0.020	-0.480	0.910
2020/01/31 09:43:20.1	115.060	0.020	-0.490	0.890
2020/01/31 09:43:20.2	115.050	0.010	-0.500	0.870
2020/01/31 09:43:20.3	115.050	0.010	-0.510	0.850
2020/01/31 09:43:20.4	115.030	0.000	-0.510	0.830
2020/01/31 09:43:20.5	115.030	-0.000	-0.520	0.810
2020/01/31 09:43:20.6	115.020	-0.010	-0.520	0.800
2020/01/31 09:43:20.7	115.010	-0.010	-0.520	0.780
2020/01/31 09:43:20.8	115.010	-0.010	-0.520	0.770
2020/01/31 09:43:20.9	115.000	-0.010	-0.520	0.750
2020/01/31 09:43:21.0	114.990	-0.010	-0.520	0.740
2020/01/31 09:43:21.1	114.990	-0.010	-0.510	0.730
2020/01/31 09:43:21.2	114.980	-0.010	-0.510	0.720
2020/01/31 09:43:21.3	114.970	-0.000	-0.510	0.710
2020/01/31 09:43:21.4	114.960	0.000	-0.510	0.700
2020/01/31 09:43:21.5	114.950	0.010	-0.510	0.690
2020/01/31 09:43:21.6	114.940	0.010	-0.500	0.680
2020/01/31 09:43:21.7	114.930	0.020	-0.500	0.670
2020/01/31 09:43:21.8	114.930	0.030	-0.500	0.660
2020/01/31 09:43:21.9	114.920	0.040	-0.500	0.640
2020/01/31 09:43:22.0	114.920	0.050	-0.500	0.630
2020/01/31 09:43:22.1	114.910	0.060	-0.500	0.620
2020/01/31 09:43:22.2	114.910	0.080	-0.500	0.600
2020/01/31 09:43:22.3	114.900	0.090	-0.500	0.590
2020/01/31 09:43:22.4	114.890	0.100	-0.500	0.570
2020/01/31 09:43:22.5	114.880	0.120	-0.500	0.550
2020/01/31 09:43:22.6	114.880	0.130	-0.500	0.530
2020/01/31 09:43:22.7	114.880	0.150	-0.500	0.510
2020/01/31 09:43:22.8	114.880	0.160	-0.500	0.490
2020/01/31 09:43:22.9	114.880	0.180	-0.500	0.460
2020/01/31 09:43:23.0	114.890	0.190	-0.500	0.430
2020/01/31 09:43:23.1	114.890	0.210	-0.500	0.410
2020/01/31 09:43:23.2	114.890	0.220	-0.500	0.380
2020/01/31 09:43:23.3	114.900	0.240	-0.490	0.350
2020/01/31 09:43:23.4	114.900	0.250	-0.490	0.310
2020/01/31 09:43:23.5	114.910	0.260	-0.480	0.280
2020/01/31 09:43:23.6	114.920	0.280	-0.480	0.250
2020/01/31 09:43:23.7	114.930	0.290	-0.470	0.220
2020/01/31 09:43:23.8	114.940	0.300	-0.460	0.180
2020/01/31 09:43:23.9	114.950	0.310	-0.450	0.150
2020/01/31 09:43:24.0	114.960	0.310	-0.430	0.120
2020/01/31 09:43:24.1	114.970	0.320	-0.410	0.090
2020/01/31 09:43:24.2	114.990	0.320	-0.400	0.060
2020/01/31 09:43:24.3	115.000	0.320	-0.370	0.030
2020/01/31 09:43:24.4	115.010	0.320	-0.350	0.010
2020/01/31 09:43:24.5	115.020	0.320	-0.320	-0.010
2020/01/31 09:43:24.6	115.030	0.320	-0.290	-0.030
2020/01/31 09:43:24.7	115.050	0.310	-0.260	-0.050
2020/01/31 09:43:24.8	115.060	0.300	-0.230	-0.060
2020/01/31 09:43:24.9	115.070	0.290	-0.200	-0.070
2020/01/31 09:43:25.0	115.080	0.280	-0.160	-0.070
2020/01/31 09:43:25.1	115.090	0.270	-0.120	-0.080
2020/01/31 09:43:25.2	115.100	0.250	-0.090	-0.070
2020/01/31 09:43:25.3	115.100	0.230	-0.050	-0.060
2020/01/31 09:43:25.4	115.100	0.220	-0.010	-0.050
2020/01/31 09:43:25.5	115.110	0.200	0.020	-0.040
2020/01/31 09:43:25.6	115.110	0.180	0.060	-0.020
2020/01/31 09:43:25.7	115.120	0.150	0.090	0.000
2020/01/31 09:43:25.8	115.120	0.130	0.130	0.030
2020/01/31 09:43:25.9	115.120	0.110	0.160	0.060
2020/01/31 09:43:26.0	115.120	0.080	0.190	0.090
2020/01/31 09:43:26.1	115.120	0.060	0.220	0.130
2020/01/31 09:43:26.2	115.120	0.030	0.250	0.170
2020/01/31 09:43:26.3	115.120	0.000	0.280	0.210
2020/01/31 09:43:26.4	115.120	-0.020	0.300	0.250
2020/01/31 09:43:26.5	115.120	-0.050	0.330	0.290
2020/01/31 09:43:26.6	115.120	-0.080	0.340	0.340
2020/01/31 09:43:26.7	115.120	-0.100	0.360	0.390
2020/01/31 09:43:26.8	115.120	-0.130	0.380	0.430
2020/01/31 09:43:26.9	115.110	-0.160	0.390	0.480
2020/01/31 09:43:27.0	115.110	-0.180	0.400	0.530
2020/01/31 09:43:27.1	115.110	-0.210	0.400	0.580
2020/01/31 09:43:27.2	115.110	-0.230	0.400	0.620
2020/01/31 09:43:27.3	115.110	-0.260	0.400	0.670
2020/01/31 09:43:27.4	115.110	-0.280	0.400	0.720
2020/01/31 09:43:27.5	115.110	-0.300	0.400	0.760
2020/01/31 09:43:27.6	115.110	-0.330	0.390	0.810
2020/01/31 09:43:27.7	115.110	-0.350	0.370	0.860
2020/01/31 09:43:27.8	115.110	-0.370	0.360	0.900
2020/01/31 09:43:27.9	115.120	-0.390	0.340	0.940
2020/01/31 09:43:28.0	115.120	-0.400	0.320	0.980
2020/01/31 09:43:28.1	115.120	-0.420	0.300	1.020
2020/01/31 09:43:28.2	115.120	-0.440	0.270	1.060
2020/01/31 09:43:28.3	115.130	-0.450	0.250	1.100
2020/01/31 09:43:28.4	115.130	-0.460	0.220	1.130
2020/01/31 09:43:28.5	115.130	-0.470	0.180	1.170
2020/01/31 09:43:28.6	115.130	-0.480	0.150	1.200
2020/01/31 09:43:28.7	115.140	-0.490	0.120	1.240
2020/01/31 09:43:28.8	115.140	-0.490	0.080	1.270
2020/01/31 09:43:28.9	115.140	-0.500	0.040	1.300
2020/01/31 09:43:29.0	115.150	-0.500	0.000	1.320
2020/01/31 09:43:29.1	115.150	-0.500	-0.040	1.350
2020/01/31 09:43:29.2	115.150	-0.500	-0.080	1.380
2020/01/31 09:43:29.3	115.150	-0.490	-0.120	1.400
2020/01/31 09:43:29.4	115.170	-0.480	-0.160	1.420
2020/01/31 09:43:29.5	115.170	-0.470	-0.200	1.450
2020/01/31 09:43:29.6	115.170	-0.460	-0.240	1.470
2020/01/31 09:43:29.7	115.170	-0.450	-0.280	1.490
2020/01/31 09:43:29.8	115.170	-0.430	-0.320	1.510
2020/01/31 09:43:29.9	115.170	-0.420	-0.360	1.530
2020/01/31 09:43:30.0	115.170	-0.400	-0.400	1.550
2020/01/31 09:43:30.1	115.170	-0.370	-0.440	1.570
2020/01/31 09:43:30.2	115.170	-0.350	-0.470	1.580
2020/01/31 09:43:30.3	115.170	-0.330	-0.510	1.600
2020/01/31 09:43:30.4	115.190	-0.300	-0.540	1.620
2020/01/31 09:43:30.5	115.180	-0.270	-0.570	1.630
2020/01/31 09:43:30.6	115.180	-0.240	-0.600	1.650
2020/01/31 09:43:30.7	115.180	-0.210	-0.630	1.660
2020/01/31 09:43:30.8	115.170	-0.170	-0.660	1.670
2020/01/31 09:43:30.9	115.170	-0.140	-0.680	1.680
2020/01/31 09:43:31.0	115.160	-0.110	-0.710	1.690
2020/01/31 09:43:31.1	115.160	-0.070	-0.730	1.700
2020/01/31 09:43:31.2	115.150	-0.030	-0.750	1.710
2020/01/31 09:43:31.3	115.150	0.000	-0.760	1.720
2020/01/31 09:43:31.4	115.140	0.040	-0.770	1.720
2020/01/31 09:43:31.5	115.140	0.080	-0.780	1.720
2020/01/31 09:43:31.6	115.130	0.110	-0.790	1.720
2020/01/31 09:43:31.7	115.130	0.150	-0.800	1.720
2020/01/31 09:43:31.8	115.130	0.180	-0.800	1.720
2020/01/31 09:43:31.9	115.130	0.220	-0.790	1.710
2020/01/31 09:43:32.0	115.120	0.250	-0.790	1.700
2020/01/31 09:43:32.1	115.120	0.280	-0.780	1.690
2020/01/31 09:43:32.2	115.120	0.310	-0.770	1.680
2020/01/31 09:43:32.3	115.120	0.340	-0.760	1.660
2020/01/31 09:43:32.4	115.130	0.370	-0.740	1.640
2020/01/31 09:43:32.5	115.130	0.390	-0.720	1.620
2020/01/31 09:43:32.6	115.140	0.420	-0.700	1.600
2020/01/31 09:43:32.7	115.140	0.440	-0.670	1.580
2020/01/31 09:43:32.8	115.140	0.450	-0.640	1.550
2020/01/31 09:43:32.9	115.140	0.470	-0.610	1.520
2020/01/31 09:43:33.0	115.140	0.480	-0.580	1.490
2020/01/31 09:43:33.1	115.150	0.490	-0.550	1.460
2020/01/31 09:43:33.2	115.150	0.500	-0.510	1.430
2020/01/31 09:43:33.3	115.150	0.500	-0.470	1.390
2020/01/31 09:43:33.4	115.140	0.500	-0.430	1.360
2020/01/31 09:43:33.5	115.140	0.500	-0.390	1.320
2020/01/31 09:43:33.6	115.140	0.500	-0.350	1.280
2020/01/31 09:43:33.7	115.140	0.490	-0.310	1.240
2020/01/31 09:43:33.8	115.140	0.480	-0.270	1.200
2020/01/31 09:43:33.9	115.140	0.470	-0.230	1.160
2020/01/31 09:43:34.0	115.140	0.460	-0.190	1.110
2020/01/31 09:43:34.1	115.140	0.440	-0.140	1.070
2020/01/31 09:43:34.2	115.140	0.420	-0.100	1.020
2020/01/31 09:43:34.3	115.150	0.400	-0.060	0.980
2020/01/31 09:43:34.4	115.130	0.380	-0.020	0.930
2020/01/31 09:43:34.5	115.130	0.350	0.020	0.880
2020/01/31 09:43:34.6	115.140	0.330	0.050	0.830
2020/01/31 09:43:34.7	115.140	0.300	0.090	0.780
2020/01/31 09:43:34.8	115.140	0.270	0.130	0.730
2020/01/31 09:43:34.9	115.150	0.250	0.160	0.680
2020/01/31 09:43:35.0	115.150	0.220	0.200	0.630
2020/01/31 09:43:35.1	115.160	0.190	0.230	0.580
2020/01/31 09:43:35.2	115.160	0.160	0.260	0.530
2020/01/31 09:43:35.3	115.170	0.130	0.290	0.480
2020/01/31 09:43:35.4	115.160	0.090	0.310	0.430
2020/01/31 09:43:35.5	115.160	0.060	0.340	0.390
2020/01/31 09:43:35.6	115.170	0.040	0.360	0.350
2020/01/31 09:43:35.7	115.180	0.010	0.380	0.310
2020/01/31 09:43:35.8	115.190	-0.020	0.400	0.280
2020/01/31 09:43:35.9	115.190	-0.050	0.420	0.240
2020/01/31 09:43:36.0	115.200	-0.070	0.430	0.210
2020/01/31 09:43:36.1	115.210	-0.100	0.450	0.190
2020/01/31 09:43:36.2	115.210	-0.120	0.460	0.160
2020/01/31 09:43:36.3	115.220	-0.140	0.470	0.140
2020/01/31 09:43:36.4	115.200	-0.170	0.470	0.120
2020/01/31 09:43:36.5	115.210	-0.180	0.480	0.110
2020/01/31 09:43:36.6	115.220	-0.200	0.480	0.100
2020/01/31 09:43:36.7	115.220	-0.220	0.480	0.090
2020/01/31 09:43:36.8	115.220	-0.230	0.480	0.080
2020/01/31 09:43:36.9	115.230	-0.240	0.470	0.080
2020/01/31 09:43:37.0	115.230	-0.250	0.470	0.080
2020/01/31 09:43:37.1	115.230	-0.260	0.460	0.080
2020/01/31 09:43:37.2	115.240	-0.260	0.450	0.080
2020/01/31 09:43:37.3	115.240	-0.270	0.430	0.090
2020/01/31 09:43:37.4	115.240	-0.270	0.420	0.090
2020/01/31 09:43:37.5	115.240	-0.270	0.400	0.100
2020/01/31 09:43:37.6	115.240	-0.270	0.380	0.110
2020/01/31 09:43:37.7	115.240	-0.260	0.360	0.120
2020/01/31 09:43:37.8	115.240	-0.260	0.340	0.130
2020/01/31 09:43:37.9	115.250	-0.250	0.310	0.140
2020/01/31 09:43:38.0	115.250	-0.240	0.280	0.150
2020/01/31 09:43:38.1	115.240	-0.240	0.250	0.170
2020/01/31 09:43:38.2	115.240	-0.230	0.220	0.180
2020/01/31 09:43:38.3	115.240	-0.210	0.180	0.200
2020/01/31 09:43:38.4	115.230	-0.200	0.150	0.210
2020/01/31 09:43:38.5	115.230	-0.190	0.110	0.230
2020/01/31 09:43:38.6	115.230	-0.180	0.070	0.250
2020/01/31 09:43:38.7	115.220	-0.160	0.030	0.260
2020/01/31 09:43:38.8	115.210	-0.150	-0.020	0.280
2020/01/31 09:43:38.9	115.210	-0.130	-0.060	0.300
2020/01/31 09:43:39.0	115.200	-0.120	-0.110	0.320
2020/01/31 09:43:39.1	115.190	-0.100	-0.150	0.340
2020/01/31 09:43:39.2	115.180	-0.080	-0.200	0.360
2020/01/31 09:43:39.3	115.170	-0.070	-0.250	0.380
2020/01/31 09:43:39.4	115.150	-0.050	-0.300	0.410
2020/01/31 09:43:39.5	115.140	-0.040	-0.350	0.430
2020/01/31 09:43:39.6	115.130	-0.020	-0.390	0.460
2020/01/31 09:43:39.7	115.110	-0.010	-0.440	0.490
2020/01/31 09:43:39.8	115.100	0.010	-0.490	0.520
2020/01/31 09:43:39.9	115.080	0.020	-0.540	0.550
2020/01/31 09:43:40.0	115.070	0.040	-0.580	0.580
2020/01/31 09:43:40.1	115.050	0.050	-0.620	0.610
2020/01/31 09:43:40.2	115.030	0.070	-0.670	0.640
2020/01/31 09:43:40.3	115.020	0.080	-0.710	0.680
2020/01/31 09:43:40.4	115.000	0.090	-0.740	0.720
2020/01/31 09:43:40.5	114.980	0.100	-0.780	0.750
2020/01/31 09:43:40.6	114.970	0.120	-0.810	0.790
2020/01/31 09:43:40.7	114.950	0.130	-0.850	0.830
2020/01/31 09:43:40.8	114.940	0.140	-0.870	0.870
2020/01/31 09:43:40.9	114.920	0.150	-0.900	0.920
2020/01/31 09:43:41.0	114.910	0.160	-0.920	0.960
2020/01/31 09:43:41.1	114.900	0.170	-0.940	1.000
2020/01/31 09:43:41.2	114.890	0.180	-0.960	1.040
2020/01/31 09:43:41.3	114.870	0.190	-0.970	1.090
2020/01/31 09:43:41.4	114.870	0.200	-0.970	1.130
2020/01/31 09:43:41.5	114.860	0.210	-0.980	1.170
2020/01/31 09:43:41.6	114.850	0.220	-0.980	1.210
2020/01/31 09:43:41.7	114.840	0.230	-0.980	1.250
2020/01/31 09:43:41.8	114.840	0.230	-0.970	1.280
2020/01/31 09:43:41.9	114.830	0.240	-0.960	1.320
2020/01/31 09:43:42.0	114.830	0.240	-0.950	1.350
2020/01/31 09:43:42.1	114.820	0.250	-0.930	1.380
2020/01/31 09:43:42.2	114.820	0.250	-0.910	1.410
2020/01/31 09:43:42.3	114.820	0.250	-0.880	1.440
2020/01/31 09:43:42.4	114.820	0.250	-0.850	1.460
2020/01/31 09:43:42.5	114.820	0.240	-0.820	1.480
2020/01/31 09:43:42.6	114.820	0.240	-0.780	1.500
2020/01/31 09:43:42.7	114.820	0.230	-0.740	1.520
2020/01/31 09:43:42.8	114.820	0.230	-0.700	1.530
2020/01/31 09:43:42.9	114.830	0.220	-0.660	1.540
2020/01/31 09:43:43.0	114.830	0.210	-0.610	1.550
2020/01/31 09:43:43.1	114.830	0.190	-0.560	1.560
2020/01/31 09:43:43.2	114.840	0.180	-0.510	1.570
2020/01/31 09:43:43.3	114.840	0.160	-0.450	1.570
2020/01/31 09:43:43.4	114.860	0.140	-0.400	1.580
2020/01/31 09:43:43.5	114.870	0.120	-0.340	1.580
2020/01/31 09:43:43.6	114.870	0.100	-0.280	1.580
2020/01/31 09:43:43.7	114.870	0.080	-0.220	1.580
2020/01/31 09:43:43.8	114.870	0.060	-0.170	1.580
2020/01/31 09:43:43.9	114.870	0.030	-0.110	1.570
2020/01/31 09:43:44.0	114.880	0.010	-0.050	1.570
2020/01/31 09:43:44.1	114.880	-0.020	0.000	1.560
2020/01/31 09:43:44.2	114.870	-0.050	0.060	1.550
2020/01/31 09:43:44.3	114.870	-0.080	0.110	1.540
2020/01/31 09:43:44.4	114.880	-0.100	0.160	1.530
2020/01/31 09:43:44.5	114.870	-0.130	0.210	1.520
2020/01/31 09:43:44.6	114.870	-0.160	0.260	1.500
2020/01/31 09:43:44.7	114.870	-0.190	0.310	1.480
2020/01/31 09:43:44.8	114.860	-0.220	0.350	1.460
2020/01/31 09:43:44.9	114.860	-0.250	0.390	1.440
2020/01/31 09:43:45.0	114.860	-0.280	0.420	1.420
2020/01/31 09:43:45.1	114.850	-0.300	0.450	1.390
2020/01/31 09:43:45.2	114.850	-0.330	0.480	1.360
2020/01/31 09:43:45.3	114.840	-0.360	0.510	1.330
2020/01/31 09:43:45.4	114.850	-0.380	0.530	1.300
2020/01/31 09:43:45.5	114.850	-0.400	0.550	1.270
2020/01/31 09:43:45.6	114.840	-0.420	0.560	1.230
2020/01/31 09:43:45.7	114.840	-0.440	0.570	1.200
2020/01/31 09:43:45.8	114.830	-0.460	0.570	1.170
2020/01/31 09:43:45.9	114.830	-0.480	0.580	1.130
2020/01/31 09:43:46.0	114.830	-0.490	0.570	1.100
2020/01/31 09:43:46.1	114.820	-0.500	0.570	1.070
2020/01/31 09:43:46.2	114.820	-0.510	0.550	1.030
2020/01/31 09:43:46.3	114.810	-0.510	0.540	1.000
2020/01/31 09:43:46.4	114.810	-0.520	0.520	0.960
2020/01/31 09:43:46.5	114.810	-0.520	0.490	0.930
2020/01/31 09:43:46.6	114.810	-0.520	0.470	0.890
2020/01/31 09:43:46.7	114.810	-0.510	0.440	0.850
2020/01/31 09:43:46.8	114.810	-0.510	0.410	0.820
2020/01/31 09:43:46.9	114.810	-0.500	0.370	0.780
2020/01/31 09:43:47.0	114.810	-0.480	0.330	0.740
2020/01/31 09:43:47.1	114.810	-0.470	0.290	0.710
2020/01/31 09:43:47.2	114.810	-0.450	0.250	0.670
2020/01/31 09:43:47.3	114.810	-0.430	0.210	0.630
2020/01/31 09:43:47.4	114.810	-0.410	0.160	0.590
2020/01/31 09:43:47.5	114.810	-0.390	0.110	0.560
2020/01/31 09:43:47.6	114.810	-0.360	0.070	0.520
2020/01/31 09:43:47.7	114.810	-0.340	0.020	0.480
2020/01/31 09:43:47.8	114.810	-0.310	-0.030	0.450
2020/01/31 09:43:47.9	114.810	-0.280	-0.070	0.410
2020/01/31 09:43:48.0	114.800	-0.250	-0.120	0.380
2020/01/31 09:43:48.1	114.800	-0.210	-0.170	0.340
2020/01/31 09:43:48.2	114.800	-0.180	-0.210	0.310
2020/01/31 09:43:48.3	114.790	-0.150	-0.250	0.270
2020/01/31 09:43:48.4	114.770	-0.110	-0.290	0.240
2020/01/31 09:43:48.5	114.770	-0.080	-0.330	0.210
2020/01/31 09:43:48.6	114.760	-0.050	-0.360	0.180
2020/01/31 09:43:48.7	114.750	-0.010	-0.390	0.140
2020/01/31 09:43:48.8	114.750	0.020	-0.420	0.110
2020/01/31 09:43:48.9	114.740	0.060	-0.450	0.080
2020/01/31 09:43:49.0	114.730	0.090	-0.470	0.050
2020/01/31 09:43:49.1	114.720	0.120	-0.490	0.020
2020/01/31 09:43:49.2	114.710	0.160	-0.510	-0.010
2020/01/31 09:43:49.3	114.710	0.190	-0.520	-0.030
2020/01/31 09:43:49.4	114.700	0.220	-0.540	-0.060
2020/01/31 09:43:49.5	114.700	0.240	-0.540	-0.090
2020/01/31 09:43:49.6	114.690	0.270	-0.550	-0.120
2020/01/31 09:43:49.7	114.690	0.300	-0.550	-0.150
2020/01/31 09:43:49.8	114.690	0.320	-0.550	-0.170
2020/01/31 09:43:49.9	114.690	0.350	-0.550	-0.200
2020/01/31 09:43:50.0	114.690	0.370	-0.550	-0.230
2020/01/31 09:43:50.1	114.690	0.390	-0.540	-0.250
2020/01/31 09:43:50.2	114.700	0.410	-0.540	-0.280
2020/01/31 09:43:50.3	114.700	0.420	-0.530	-0.300
2020/01/31 09:43:50.4	114.700	0.440	-0.520	-0.320
2020/01/31 09:43:50.5	114.700	0.450	-0.510	-0.340
2020/01/31 09:43:50.6	114.710	0.460	-0.490	-0.360
2020/01/31 09:43:50.7	114.720	0.470	-0.480	-0.370
2020/01/31 09:43:50.8	114.730	0.480	-0.470	-0.390
2020/01/31 09:43:50.9	114.740	0.480	-0.450	-0.400
2020/01/31 09:43:51.0	114.750	0.490	-0.440	-0.410
2020/01/31 09:43:51.1	114.770	0.490	-0.420	-0.420
2020/01/31 09:43:51.2	114.780	0.490	-0.400	-0.420
2020/01/31 09:43:51.3	114.790	0.490	-0.380	-0.420
2020/01/31 09:43:51.4	114.800	0.480	-0.370	-0.420
2020/01/31 09:43:51.5	114.820	0.470	-0.350	-0.420
2020/01/31 09:43:51.6	114.830	0.460	-0.330	-0.410
2020/01/31 09:43:51.7	114.840	0.450	-0.310	-0.410
2020/01/31 09:43:51.8	114.860	0.440	-0.290	-0.400
2020/01/31 09:43:51.9	114.870	0.430	-0.260	-0.380
2020/01/31 09:43:52.0	114.880	0.410	-0.240	-0.370
2020/01/31 09:43:52.1	114.890	0.390	-0.220	-0.350
2020/01/31 09:43:52.2	114.910	0.370	-0.200	-0.330
2020/01/31 09:43:52.3	114.920	0.350	-0.170	-0.310
2020/01/31 09:43:52.4	114.940	0.330	-0.150	-0.280
2020/01/31 09:43:52.5	114.950	0.300	-0.120	-0.250
2020/01/31 09:43:52.6	114.960	0.280	-0.100	-0.220
2020/01/31 09:43:52.7	114.970	0.250	-0.070	-0.190
2020/01/31 09:43:52.8	114.990	0.220	-0.050	-0.150
2020/01/31 09:43:52.9	115.000	0.190	-0.030	-0.110
2020/01/31 09:43:53.0	115.010	0.160	-0.000	-0.070
2020/01/31 09:43:53.1	115.020	0.130	0.020	-0.030
2020/01/31 09:43:53.2	115.020	0.100	0.040	0.010
2020/01/31 09:43:53.3	115.030	0.070	0.070	0.060
2020/01/31 09:43:53.4	115.050	0.040	0.080	0.110
2020/01/31 09:43:53.5	115.050	0.010	0.110	0.160
2020/01/31 09:43:53.6	115.060	-0.020	0.120	0.210
2020/01/31 09:43:53.7	115.070	-0.050	0.140	0.260
2020/01/31 09:43:53.8	115.070	-0.080	0.160	0.320
2020/01/31 09:43:53.9	115.080	-0.110	0.170	0.380
2020/01/31 09:43:54.0	115.080	-0.140	0.190	0.430
2020/01/31 09:43:54.1	115.080	-0.170	0.200	0.490
2020/01/31 09:43:54.2	115.080	-0.190	0.210	0.560
2020/01/31 09:43:54.3	115.080	-0.220	0.210	0.620
2020/01/31 09:43:54.4	115.090	-0.240	0.220	0.680
2020/01/31 09:43:54.5	115.080	-0.260	0.220	0.740
2020/01/31 09:43:54.6	115.080	-0.280	0.220	0.810
2020/01/31 09:43:54.7	115.070	-0.300	0.210	0.870
2020/01/31 09:43:54.8	115.070	-0.310	0.200	0.940
2020/01/31 09:43:54.9	115.060	-0.330	0.190	1.010
2020/01/31 09:43:55.0	115.050	-0.340	0.180	1.080
2020/01/31 09:43:55.1	115.040	-0.340	0.160	1.150
2020/01/31 09:43:55.2	115.030	-0.350	0.130	1.210
2020/01/31 09:43:55.3	115.020	-0.350	0.110	1.280
2020/01/31 09:43:55.4	115.000	-0.350	0.080	1.350
2020/01/31 09:43:55.5	114.990	-0.340	0.040	1.420
2020/01/31 09:43:55.6	114.980	-0.330	0.010	1.480
2020/01/31 09:43:55.7	114.960	-0.320	-0.030	1.550
2020/01/31 09:43:55.8	114.950	-0.310	-0.070	1.610
2020/01/31 09:43:55.9	114.940	-0.300	-0.120	1.670
2020/01/31 09:43:56.0	114.930	-0.280	-0.160	1.720
2020/01/31 09:43:56.1	114.920	-0.260	-0.210	1.780
2020/01/31 09:43:56.2	114.910	-0.240	-0.260	1.830
2020/01/31 09:43:56.3	114.910	-0.220	-0.310	1.870
2020/01/31 09:43:56.4	114.930	-0.190	-0.360	1.920
2020/01/31 09:43:56.5	114.920	-0.170	-0.410	1.960
2020/01/31 09:43:56.6	114.920	-0.140	-0.460	1.990
2020/01/31 09:43:56.7	114.930	-0.110	-0.510	2.020
2020/01/31 09:43:56.8	114.930	-0.080	-0.560	2.050
2020/01/31 09:43:56.9	114.930	-0.060	-0.610	2.080
2020/01/31 09:43:57.0	114.940	-0.030	-0.650	2.100
2020/01/31 09:43:57.1	114.940	-0.000	-0.700	2.120
2020/01/31 09:43:57.2	114.950	0.030	-0.740	2.140
2020/01/31 09:43:57.3	114.960	0.050	-0.770	2.150
2020/01/31 09:43:57.4	114.970	0.080	-0.800	2.160
2020/01/31 09:43:57.5	114.980	0.100	-0.830	2.170
2020/01/31 09:43:57.6	114.990	0.130	-0.850	2.170
2020/01/31 09:43:57.7	115.000	0.150	-0.870	2.170
2020/01/31 09:43:57.8	115.020	0.170	-0.880	2.170
2020/01/31 09:43:57.9	115.030	0.180	-0.890	2.160
2020/01/31 09:43:58.0	115.040	0.200	-0.890	2.160
2020/01/31 09:43:58.1	115.050	0.210	-0.890	2.150
2020/01/31 09:43:58.2	115.070	0.220	-0.880	2.140
2020/01/31 09:43:58.3	115.080	0.230	-0.860	2.120
2020/01/31 09:43:58.4	115.090	0.230	-0.840	2.100
2020/01/31 09:43:58.5	115.110	0.240	-0.810	2.080
2020/01/31 09:43:58.6	115.120	0.240	-0.780	2.060
2020/01/31 09:43:58.7	115.130	0.230	-0.740	2.040
2020/01/31 09:43:58.8	115.140	0.230	-0.700	2.010
2020/01/31 09:43:58.9	115.160	0.220	-0.650	1.990
2020/01/31 09:43:59.0	115.170	0.210	-0.600	1.960
2020/01/31 09:43:59.1	115.180	0.200	-0.540	1.920
2020/01/31 09:43:59.2	115.200	0.180	-0.480	1.890
2020/01/31 09:43:59.3	115.210	0.170	-0.420	1.860
2020/01/31 09:43:59.4	115.210	0.150	-0.350	1.820
2020/01/31 09:43:59.5	115.220	0.130	-0.290	1.780
2020/01/31 09:43:59.6	115.230	0.100	-0.220	1.740
2020/01/31 09:43:59.7	115.250	0.080	-0.150	1.690
2020/01/31 09:43:59.8	115.260	0.060	-0.070	1.650
2020/01/31 09:43:59.9	115.270	0.030	-0.000	1.600
2020/01/31 09:44:00.0	115.280	0.000	0.070	1.550
2020/01/31 09:44:00.1	115.290	-0.020	0.140	1.500
2020/01/31 09:44:00.2	115.300	-0.050	0.220	1.450
2020/01/31 09:44:00.3	115.310	-0.080	0.290	1.400
2020/01/31 09:44:00.4	115.320	-0.110	0.360	1.340
2020/01/31 09:44:00.5	115.330	-0.140	0.420	1.280
2020/01/31 09:44:00.6	115.340	-0.160	0.490	1.230
2020/01/31 09:44:00.7	115.350	-0.190	0.550	1.170
2020/01/31 09:44:00.8	115.360	-0.220	0.600	1.110
2020/01/31 09:44:00.9	115.370	-0.240	0.650	1.040
2020/01/31 09:44:01.0	115.380	-0.270	0.700	0.980
2020/01/31 09:44:01.1	115.390	-0.290	0.740	0.920
2020/01/31 09:44:01.2	115.400	-0.310	0.780	0.850
2020/01/31 09:44:01.3	115.410	-0.330	0.810	0.790
2020/01/31 09:44:01.4	115.390	-0.350	0.830	0.720
2020/01/31 09:44:01.5	115.400	-0.360	0.850	0.650
2020/01/31 09:44:01.6	115.410	-0.370	0.860	0.590
2020/01/31 09:44:01.7	115.410	-0.380	0.870	0.520
2020/01/31 09:44:01.8	115.420	-0.390	0.870	0.450
2020/01/31 09:44:01.9	115.420	-0.390	0.860	0.390
2020/01/31 09:44:02.0	115.420	-0.390	0.840	0.320
2020/01/31 09:44:02.1	115.420	-0.390	0.810	0.250
2020/01/31 09:44:02.2	115.430	-0.380	0.780	0.190
2020/01/31 09:44:02.3	115.420	-0.370	0.740	0.130
2020/01/31 09:44:02.4	115.400	-0.360	0.690	0.060
2020/01/31 09:44:02.5	115.400	-0.350	0.640	-0.000
2020/01/31 09:44:02.6	115.390	-0.330	0.580	-0.060
2020/01/31 09:44:02.7	115.390	-0.310	0.510	-0.120
2020/01/31 09:44:02.8	115.380	-0.290	0.430	-0.170
2020/01/31 09:44:02.9	115.370	-0.260	0.350	-0.220
2020/01/31 09:44:03.0	115.360	-0.230	0.260	-0.260
2020/01/31 09:44:03.1	115.350	-0.200	0.170	-0.310
2020/01/31 09:44:03.2	115.340	-0.170	0.070	-0.350
2020/01/31 09:44:03.3	115.320	-0.130	-0.030	-0.390
2020/01/31 09:44:03.4	115.290	-0.100	-0.130	-0.430
2020/01/31 09:44:03.5	115.280	-0.060	-0.240	-0.460
2020/01/31 09:44:03.6	115.270	-0.020	-0.350	-0.490
2020/01/31 09:44:03.7	115.250	0.010	-0.450	-0.520
2020/01/31 09:44:03.8	115.240	0.050	-0.560	-0.540
2020/01/31 09:44:03.9	115.220	0.090	-0.670	-0.560
2020/01/31 09:44:04.0	115.210	0.130	-0.770	-0.580
2020/01/31 09:44:04.1	115.200	0.160	-0.870	-0.600
2020/01/31 09:44:04.2	115.190	0.200	-0.970	-0.610
2020/01/31 09:44:04.3	115.180	0.230	-1.060	-0.630
2020/01/31 09:44:04.4	115.170	0.270	-1.150	-0.640
2020/01/31 09:44:04.5	115.160	0.300	-1.230	-0.640
2020/01/31 09:44:04.6	115.150	0.330	-1.300	-0.640
2020/01/31 09:44:04.7	115.140	0.350	-1.370	-0.640
2020/01/31 09:44:04.8	115.140	0.370	-1.420	-0.640
2020/01/31 09:44:04.9	115.140	0.390	-1.470	-0.630
2020/01/31 09:44:05.0	115.130	0.410	-1.500	-0.620
2020/01/31 09:44:05.1	115.130	0.420	-1.530	-0.600
2020/01/31 09:44:05.2	115.130	0.430	-1.540	-0.580
2020/01/31 09:44:05.3	115.130	0.440	-1.550	-0.560
2020/01/31 09:44:05.4	115.150	0.440	-1.540	-0.530
2020/01/31 09:44:05.5	115.150	0.440	-1.520	-0.490
2020/01/31 09:44:05.6	115.150	0.430	-1.490	-0.460
2020/01/31 09:44:05.7	115.160	0.430	-1.450	-0.420
2020/01/31 09:44:05.8	115.160	0.410	-1.400	-0.380
2020/01/31 09:44:05.9	115.170	0.400	-1.340	-0.330
2020/01/31 09:44:06.0	115.170	0.380	-1.270	-0.280
2020/01/31 09:44:06.1	115.180	0.360	-1.190	-0.230
2020/01/31 09:44:06.2	115.190	0.330	-1.100	-0.170
2020/01/31 09:44:06.3	115.190	0.300	-1.000	-0.120
2020/01/31 09:44:06.4	115.210	0.270	-0.890	-0.060
2020/01/31 09:44:06.5	115.220	0.240	-0.780	0.000
2020/01/31 09:44:06.6	115.230	0.200	-0.660	0.060
2020/01/31 09:44:06.7	115.240	0.170	-0.540	0.120
2020/01/31 09:44:06.8	115.250	0.130	-0.410	0.180
2020/01/31 09:44:06.9	115.260	0.080	-0.280	0.240
2020/01/31 09:44:07.0	115.270	0.040	-0.150	0.300
2020/01/31 09:44:07.1	115.290	-0.000	-0.010	0.350
2020/01/31 09:44:07.2	115.300	-0.040	0.120	0.410
2020/01/31 09:44:07.3	115.310	-0.090	0.250	0.460
2020/01/31 09:44:07.4	115.330	-0.130	0.390	0.520
2020/01/31 09:44:07.5	115.340	-0.170	0.510	0.570
2020/01/31 09:44:07.6	115.360	-0.220	0.630	0.620
2020/01/31 09:44:07.7	115.370	-0.260	0.750	0.670
2020/01/31 09:44:07.8	115.390	-0.300	0.850	0.710
2020/01/31 09:44:07.9	115.400	-0.340	0.950	0.760
2020/01/31 09:44:08.0	115.420	-0.370	1.040	0.800
2020/01/31 09:44:08.1	115.430	-0.410	1.130	0.840
2020/01/31 09:44:08.2	115.450	-0.440	1.200	0.880
2020/01/31 09:44:08.3	115.460	-0.470	1.260	0.920
2020/01/31 09:44:08.4	115.470	-0.490	1.300	0.950
2020/01/31 09:44:08.5	115.480	-0.520	1.340	0.980
2020/01/31 09:44:08.6	115.490	-0.530	1.360	1.020
2020/01/31 09:44:08.7	115.490	-0.550	1.370	1.050
2020/01/31 09:44:08.8	115.500	-0.560	1.370	1.090
2020/01/31 09:44:08.9	115.500	-0.570	1.360	1.120
2020/01/31 09:44:09.0	115.510	-0.570	1.330	1.150
2020/01/31 09:44:09.1	115.510	-0.570	1.300	1.180
2020/01/31 09:44:09.2	115.500	-0.560	1.240	1.210
2020/01/31 09:44:09.3	115.500	-0.550	1.180	1.250
2020/01/31 09:44:09.4	115.480	-0.540	1.110	1.280
2020/01/31 09:44:09.5	115.470	-0.520	1.030	1.310
2020/01/31 09:44:09.6	115.460	-0.500	0.940	1.350
2020/01/31 09:44:09.7	115.450	-0.470	0.840	1.380
2020/01/31 09:44:09.8	115.430	-0.440	0.730	1.420
2020/01/31 09:44:09.9	115.410	-0.410	0.620	1.450
2020/01/31 09:44:10.0	115.390	-0.370	0.500	1.490
2020/01/31 09:44:10.1	115.370	-0.330	0.380	1.530
2020/01/31 09:44:10.2	115.350	-0.290	0.250	1.560
2020/01/31 09:44:10.3	115.320	-0.250	0.120	1.600
2020/01/31 09:44:10.4	115.300	-0.200	-0.000	1.640
2020/01/31 09:44:10.5	115.280	-0.150	-0.130	1.670
2020/01/31 09:44:10.6	115.250	-0.100	-0.260	1.710
2020/01/31 09:44:10.7	115.220	-0.050	-0.390	1.740
2020/01/31 09:44:10.8	115.200	0.000	-0.510	1.770
2020/01/31 09:44:10.9	115.180	0.050	-0.630	1.800
2020/01/31 09:44:11.0	115.150	0.100	-0.740	1.830
2020/01/31 09:44:11.1	115.130	0.150	-0.840	1.850
2020/01/31 09:44:11.2	115.110	0.200	-0.940	1.880
2020/01/31 09:44:11.3	115.090	0.250	-1.040	1.900
2020/01/31 09:44:11.4	115.080	0.300	-1.120	1.920
2020/01/31 09:44:11.5	115.060	0.340	-1.200	1.940
2020/01/31 09:44:11.6	115.050	0.380	-1.260	1.950
2020/01/31 09:44:11.7	115.030	0.420	-1.320	1.960
2020/01/31 09:44:11.8	115.020	0.450	-1.370	1.960
2020/01/31 09:44:11.9	115.010	0.490	-1.410	1.970
2020/01/31 09:44:12.0	115.000	0.510	-1.430	1.960
2020/01/31 09:44:12.1	115.000	0.540	-1.450	1.960
2020/01/31 09:44:12.2	114.990	0.560	-1.460	1.950
2020/01/31 09:44:12.3	114.990	0.580	-1.450	1.940
2020/01/31 09:44:12.4	114.990	0.590	-1.440	1.920
2020/01/31 09:44:12.5	114.990	0.600	-1.420	1.890
2020/01/31 09:44:12.6	115.000	0.600	-1.390	1.870
2020/01/31 09:44:12.7	115.000	0.600	-1.340	1.830
2020/01/31 09:44:12.8	115.010	0.590	-1.300	1.800
2020/01/31 09:44:12.9	115.020	0.580	-1.240	1.760
2020/01/31 09:44:13.0	115.030	0.570	-1.170	1.710
2020/01/31 09:44:13.1	115.050	0.550	-1.100	1.660
2020/01/31 09:44:13.2	115.060	0.530	-1.030	1.610
2020/01/31 09:44:13.3	115.080	0.510	-0.950	1.550
2020/01/31 09:44:13.4	115.090	0.480	-0.860	1.490
2020/01/31 09:44:13.5	115.110	0.460	-0.770	1.430
2020/01/31 09:44:13.6	115.130	0.420	-0.680	1.360
2020/01/31 09:44:13.7	115.150	0.390	-0.580	1.290
2020/01/31 09:44:13.8	115.160	0.360	-0.490	1.210
2020/01/31 09:44:13.9	115.180	0.320	-0.400	1.140
2020/01/31 09:44:14.0	115.200	0.280	-0.300	1.060
2020/01/31 09:44:14.1	115.220	0.240	-0.210	0.980
2020/01/31 09:44:14.2	115.240	0.200	-0.120	0.900
2020/01/31 09:44:14.3	115.250	0.170	-0.030	0.820
2020/01/31 09:44:14.4	115.270	0.130	0.060	0.740
2020/01/31 09:44:14.5	115.280	0.090	0.140	0.650
2020/01/31 09:44:14.6	115.300	0.050	0.220	0.570
2020/01/31 09:44:14.7	115.310	0.020	0.290	0.490
2020/01/31 09:44:14.8	115.320	-0.020	0.360	0.410
2020/01/31 09:44:14.9	115.340	-0.050	0.420	0.330
2020/01/31 09:44:15.0	115.350	-0.080	0.480	0.260
2020/01/31 09:44:15.1	115.350	-0.110	0.530	0.180
2020/01/31 09:44:15.2	115.360	-0.140	0.570	0.110
2020/01/31 09:44:15.3	115.370	-0.160	0.610	0.040
2020/01/31 09:44:15.4	115.360	-0.180	0.640	-0.020
2020/01/31 09:44:15.5	115.370	-0.200	0.660	-0.090
2020/01/31 09:44:15.6	115.370	-0.220	0.680	-0.150
2020/01/31 09:44:15.7	115.370	-0.230	0.690	-0.200
2020/01/31 09:44:15.8	115.370	-0.240	0.690	-0.260
2020/01/31 09:44:15.9	115.370	-0.250	0.690	-0.310
2020/01/31 09:44:16.0	115.370	-0.250	0.680	-0.350
2020/01/31 09:44:16.1	115.370	-0.250	0.670	-0.400
2020/01/31 09:44:16.2	115.370	-0.250	0.650	-0.440
2020/01/31 09:44:16.3	115.360	-0.240	0.620	-0.470
2020/01/31 09:44:16.4	115.350	-0.240	0.590	-0.510
2020/01/31 09:44:16.5	115.350	-0.230	0.560	-0.530
2020/01/31 09:44:16.6	115.340	-0.220	0.520	-0.560
2020/01/31 09:44:16.7	115.340	-0.200	0.480	-0.580
2020/01/31 09:44:16.8	115.330	-0.190	0.430	-0.600
2020/01/31 09:44:16.9	115.320	-0.170	0.380	-0.610
2020/01/31 09:44:17.0	115.320	-0.160	0.330	-0.630
2020/01/31 09:44:17.1	115.310	-0.140	0.280	-0.640
2020/01/31 09:44:17.2	115.300	-0.120	0.220	-0.640
2020/01/31 09:44:17.3	115.300	-0.100	0.170	-0.650
2020/01/31 09:44:17.4	115.280	-0.080	0.110	-0.650
2020/01/31 09:44:17.5	115.280	-0.060	0.050	-0.650
2020/01/31 09:44:17.6	115.270	-0.050	-0.010	-0.650
2020/01/31 09:44:17.7	115.260	-0.030	-0.060	-0.650
2020/01/31 09:44:17.8	115.260	-0.010	-0.120	-0.640
2020/01/31 09:44:17.9	115.250	0.010	-0.170	-0.630
2020/01/31 09:44:18.0	115.250	0.020	-0.230	-0.620
2020/01/31 09:44:18.1	115.240	0.030	-0.280	-0.610
2020/01/31 09:44:18.2	115.240	0.050	-0.330	-0.590
2020/01/31 09:44:18.3	115.240	0.060	-0.380	-0.580
2020/01/31 09:44:18.4	115.230	0.070	-0.420	-0.560
2020/01/31 09:44:18.5	115.220	0.070	-0.460	-0.540
2020/01/31 09:44:18.6	115.220	0.080	-0.500	-0.520
2020/01/31 09:44:18.7	115.220	0.080	-0.540	-0.490
2020/01/31 09:44:18.8	115.210	0.080	-0.570	-0.470
2020/01/31 09:44:18.9	115.210	0.080	-0.600	-0.440
2020/01/31 09:44:19.0	115.210	0.080	-0.620	-0.410
2020/01/31 09:44:19.1	115.200	0.080	-0.640	-0.380
2020/01/31 09:44:19.2	115.200	0.070	-0.660	-0.340
2020/01/31 09:44:19.3	115.200	0.060	-0.670	-0.310
2020/01/31 09:44:19.4	115.200	0.050	-0.680	-0.270
2020/01/31 09:44:19.5	115.200	0.040	-0.690	-0.230
2020/01/31 09:44:19.6	115.190	0.030	-0.690	-0.190
2020/01/31 09:44:19.7	115.190	0.020	-0.690	-0.150
2020/01/31 09:44:19.8	115.190	0.000	-0.690	-0.110
2020/01/31 09:44:19.9	115.190	-0.020	-0.680	-0.060
2020/01/31 09:44:20.0	115.200	-0.030	-0.670	-0.020
2020/01/31 09:44:20.1	115.200	-0.050	-0.660	0.030
2020/01/31 09:44:20.2	115.200	-0.070	-0.640	0.080
2020/01/31 09:44:20.3	115.210	-0.090	-0.620	0.130
2020/01/31 09:44:20.4	115.210	-0.110	-0.600	0.180
2020/01/31 09:44:20.5	115.220	-0.130	-0.580	0.230
2020/01/31 09:44:20.6	115.230	-0.150	-0.550	0.280
2020/01/31 09:44:20.7	115.240	-0.170	-0.520	0.330
2020/01/31 09:44:20.8	115.250	-0.190	-0.490	0.380
2020/01/31 09:44:20.9	115.260	-0.210	-0.460	0.430
2020/01/31 09:44:21.0	115.270	-0.230	-0.430	0.480
2020/01/31 09:44:21.1	115.290	-0.250	-0.400	0.530
2020/01/31 09:44:21.2	115.300	-0.270	-0.370	0.590
2020/01/31 09:44:21.3	115.320	-0.280	-0.330	0.640
2020/01/31 09:44:21.4	115.340	-0.300	-0.300	0.690
2020/01/31 09:44:21.5	115.350	-0.320	-0.270	0.740
2020/01/31 09:44:21.6	115.370	-0.330	-0.230	0.790
2020/01/31 09:44:21.7	115.390	-0.340	-0.200	0.840
2020/01/31 09:44:21.8	115.410	-0.360	-0.170	0.890
2020/01/31 09:44:21.9	115.430	-0.370	-0.140	0.940
2020/01/31 09:44:22.0	115.450	-0.370	-0.110	0.990
2020/01/31 09:44:22.1	115.470	-0.380	-0.080	1.040
2020/01/31 09:44:22.2	115.490	-0.390	-0.060	1.090
2020/01/31 09:44:22.3	115.510	-0.390	-0.030	1.140
2020/01/31 09:44:22.4	115.530	-0.390	-0.010	1.190
2020/01/31 09:44:22.5	115.540	-0.390	0.010	1.240
2020/01/31 09:44:22.6	115.560	-0.390	0.030	1.280
2020/01/31 09:44:22.7	115.580	-0.380	0.050	1.330
2020/01/31 09:44:22.8	115.590	-0.370	0.060	1.380
2020/01/31 09:44:22.9	115.600	-0.360	0.070	1.420
2020/01/31 09:44:23.0	115.610	-0.350	0.080	1.470
2020/01/31 09:44:23.1	115.630	-0.340	0.080	1.510
2020/01/31 09:44:23.2	115.630	-0.330	0.090	1.550
2020/01/31 09:44:23.3	115.640	-0.310	0.090	1.590
2020/01/31 09:44:23.4	115.660	-0.290	0.090	1.630
2020/01/31 09:44:23.5	115.670	-0.270	0.080	1.660
2020/01/31 09:44:23.6	115.670	-0.250	0.080	1.690
2020/01/31 09:44:23.7	115.680	-0.230	0.070	1.720
2020/01/31 09:44:23.8	115.680	-0.200	0.060	1.750
2020/01/31 09:44:23.9	115.680	-0.180	0.050	1.780
2020/01/31 09:44:24.0	115.680	-0.150	0.030	1.800
2020/01/31 09:44:24.1	115.680	-0.120	0.020	1.820
2020/01/31 09:44:24.2	115.680	-0.090	0.000	1.830
2020/01/31 09:44:24.3	115.680	-0.070	-0.010	1.840
2020/01/31 09:44:24.4	115.690	-0.040	-0.030	1.850
2020/01/31 09:44:24.5	115.690	-0.010	-0.040	1.850
2020/01/31 09:44:24.6	115.690	0.020	-0.060	1.850
2020/01/31 09:44:24.7	115.690	0.040	-0.070	1.850
2020/01/31 09:44:24.8	115.690	0.070	-0.090	1.840
2020/01/31 09:44:24.9	115.690	0.090	-0.100	1.830
2020/01/31 09:44:25.0	115.690	0.120	-0.110	1.810
2020/01/31 09:44:25.1	115.690	0.140	-0.110	1.790
2020/01/31 09:44:25.2	115.690	0.160	-0.120	1.770
2020/01/31 09:44:25.3	115.690	0.180	-0.120	1.750
2020/01/31 09:44:25.4	115.710	0.200	-0.120	1.720
2020/01/31 09:44:25.5	115.710	0.210	-0.120	1.690
2020/01/31 09:44:25.6	115.710	0.230	-0.120	1.660
2020/01/31 09:44:25.7	115.710	0.240	-0.110	1.630
2020/01/31 09:44:25.8	115.710	0.250	-0.110	1.590
2020/01/31 09:44:25.9	115.710	0.270	-0.100	1.560
2020/01/31 09:44:26.0	115.710	0.270	-0.090	1.520
2020/01/31 09:44:26.1	115.710	0.280	-0.080	1.490
2020/01/31 09:44:26.2	115.710	0.290	-0.070	1.450
2020/01/31 09:44:26.3	115.710	0.290	-0.060	1.410
2020/01/31 09:44:26.4	115.710	0.300	-0.050	1.380
2020/01/31 09:44:26.5	115.710	0.300	-0.030	1.340
2020/01/31 09:44:26.6	115.710	0.300	-0.020	1.310
2020/01/31 09:44:26.7	115.710	0.300	-0.010	1.270
2020/01/31 09:44:26.8	115.710	0.300	-0.010	1.240
2020/01/31 09:44:26.9	115.710	0.310	0.000	1.200
2020/01/31 09:44:27.0	115.710	0.310	0.010	1.160
2020/01/31 09:44:27.1	115.710	0.310	0.010	1.130
2020/01/31 09:44:27.2	115.710	0.310	0.010	1.090
2020/01/31 09:44:27.3	115.710	0.310	0.010	1.050
2020/01/31 09:44:27.4	115.720	0.310	0.010	1.010
2020/01/31 09:44:27.5	115.720	0.310	-0.000	0.970
2020/01/31 09:44:27.6	115.720	0.320	-0.010	0.920
2020/01/31 09:44:27.7	115.730	0.320	-0.020	0.880
2020/01/31 09:44:27.8	115.730	0.330	-0.040	0.840
2020/01/31 09:44:27.9	115.730	0.330	-0.060	0.790
2020/01/31 09:44:28.0	115.740	0.340	-0.080	0.740
2020/01/31 09:44:28.1	115.740	0.340	-0.100	0.690
2020/01/31 09:44:28.2	115.740	0.350	-0.130	0.640
2020/01/31 09:44:28.3	115.750	0.360	-0.160	0.590
2020/01/31 09:44:28.4	115.740	0.360	-0.190	0.540
2020/01/31 09:44:28.5	115.740	0.370	-0.220	0.480
2020/01/31 09:44:28.6	115.750	0.380	-0.250	0.430
2020/01/31 09:44:28.7	115.760	0.390	-0.280	0.370
2020/01/31 09:44:28.8	115.770	0.390	-0.310	0.310
2020/01/31 09:44:28.9	115.780	0.400	-0.340	0.260
2020/01/31 09:44:29.0	115.790	0.410	-0.370	0.200
2020/01/31 09:44:29.1	115.800	0.410	-0.400	0.150
2020/01/31 09:44:29.2	115.810	0.420	-0.430	0.090
2020/01/31 09:44:29.3	115.820	0.420	-0.460	0.040
2020/01/31 09:44:29.4	115.820	0.420	-0.480	-0.010
2020/01/31 09:44:29.5	115.840	0.420	-0.510	-0.050
2020/01/31 09:44:29.6	115.850	0.420	-0.530	-0.090
2020/01/31 09:44:29.7	115.860	0.420	-0.540	-0.130
2020/01/31 09:44:29.8	115.860	0.420	-0.560	-0.160
2020/01/31 09:44:29.9	115.870	0.410	-0.570	-0.190
2020/01/31 09:44:30.0	115.880	0.410	-0.570	-0.210
2020/01/31 09:44:30.1	115.880	0.400	-0.580	-0.230
2020/01/31 09:44:30.2	115.890	0.390	-0.570	-0.240
2020/01/31 09:44:30.3	115.890	0.380	-0.570	-0.250
2020/01/31 09:44:30.4	115.880	0.360	-0.550	-0.250
2020/01/31 09:44:30.5	115.870	0.350	-0.540	-0.240
2020/01/31 09:44:30.6	115.870	0.330	-0.520	-0.230
2020/01/31 09:44:30.7	115.860	0.310	-0.500	-0.220
2020/01/31 09:44:30.8	115.860	0.290	-0.480	-0.190
2020/01/31 09:44:30.9	115.850	0.270	-0.450	-0.170
2020/01/31 09:44:31.0	115.830	0.240	-0.420	-0.140
2020/01/31 09:44:31.1	115.820	0.220	-0.380	-0.100
2020/01/31 09:44:31.2	115.800	0.190	-0.350	-0.060
2020/01/31 09:44:31.3	115.780	0.160	-0.310	-0.020
2020/01/31 09:44:31.4	115.760	0.130	-0.260	0.030
2020/01/31 09:44:31.5	115.740	0.100	-0.220	0.080
2020/01/31 09:44:31.6	115.710	0.070	-0.180	0.130
2020/01/31 09:44:31.7	115.690	0.040	-0.140	0.180
2020/01/31 09:44:31.8	115.660	0.010	-0.100	0.230
2020/01/31 09:44:31.9	115.630	-0.020	-0.060	0.280
2020/01/31 09:44:32.0	115.610	-0.060	-0.020	0.340
2020/01/31 09:44:32.1	115.580	-0.090	0.010	0.390
2020/01/31 09:44:32.2	115.550	-0.120	0.050	0.450
2020/01/31 09:44:32.3	115.530	-0.150	0.080	0.500
2020/01/31 09:44:32.4	115.500	-0.180	0.110	0.550
2020/01/31 09:44:32.5	115.470	-0.200	0.140	0.600
2020/01/31 09:44:32.6	115.450	-0.230	0.160	0.640
2020/01/31 09:44:32.7	115.420	-0.260	0.180	0.680
2020/01/31 09:44:32.8	115.400	-0.280	0.200	0.720
2020/01/31 09:44:32.9	115.380	-0.300	0.210	0.760
2020/01/31 09:44:33.0	115.360	-0.320	0.220	0.790
2020/01/31 09:44:33.1	115.350	-0.340	0.230	0.820
2020/01/31 09:44:33.2	115.330	-0.350	0.230	0.850
2020/01/31 09:44:33.3	115.320	-0.370	0.230	0.870
2020/01/31 09:44:33.4	115.290	-0.380	0.220	0.890
2020/01/31 09:44:33.5	115.280	-0.390	0.220	0.910
2020/01/31 09:44:33.6	115.280	-0.400	0.210	0.920
2020/01/31 09:44:33.7	115.270	-0.400	0.190	0.930
2020/01/31 09:44:33.8	115.270	-0.400	0.170	0.940
2020/01/31 09:44:33.9	115.270	-0.410	0.150	0.950
2020/01/31 09:44:34.0	115.270	-0.410	0.130	0.950
2020/01/31 09:44:34.1	115.270	-0.410	0.110	0.960
2020/01/31 09:44:34.2	115.280	-0.400	0.080	0.960
2020/01/31 09:44:34.3	115.280	-0.400	0.050	0.970
2020/01/31 09:44:34.4	115.290	-0.390	0.020	0.970
2020/01/31 09:44:34.5	115.300	-0.390	-0.010	0.980
2020/01/31 09:44:34.6	115.310	-0.380	-0.040	0.990
2020/01/31 09:44:34.7	115.310	-0.370	-0.080	0.990
2020/01/31 09:44:34.8	115.320	-0.360	-0.110	1.000
2020/01/31 09:44:34.9	115.330	-0.350	-0.140	1.020
2020/01/31 09:44:35.0	115.330	-0.340	-0.180	1.030
2020/01/31 09:44:35.1	115.340	-0.330	-0.210	1.050
2020/01/31 09:44:35.2	115.350	-0.320	-0.240	1.060
2020/01/31 09:44:35.3	115.350	-0.310	-0.270	1.080
2020/01/31 09:44:35.4	115.360	-0.300	-0.300	1.110
2020/01/31 09:44:35.5	115.360	-0.290	-0.330	1.140
2020/01/31 09:44:35.6	115.360	-0.280	-0.360	1.160
2020/01/31 09:44:35.7	115.370	-0.270	-0.390	1.190
2020/01/31 09:44:35.8	115.370	-0.260	-0.410	1.220
2020/01/31 09:44:35.9	115.370	-0.250	-0.430	1.250
2020/01/31 09:44:36.0	115.360	-0.240	-0.450	1.290
2020/01/31 09:44:36.1	115.360	-0.230	-0.470	1.320
2020/01/31 09:44:36.2	115.350	-0.220	-0.490	1.350
2020/01/31 09:44:36.3	115.350	-0.210	-0.500	1.390
2020/01/31 09:44:36.4	115.350	-0.200	-0.510	1.420
2020/01/31 09:44:36.5	115.340	-0.190	-0.530	1.450
2020/01/31 09:44:36.6	115.320	-0.180	-0.530	1.480
2020/01/31 09:44:36.7	115.310	-0.170	-0.540	1.510
2020/01/31 09:44:36.8	115.300	-0.160	-0.550	1.530
2020/01/31 09:44:36.9	115.280	-0.140	-0.550	1.560
2020/01/31 09:44:37.0	115.270	-0.130	-0.550	1.580
2020/01/31 09:44:37.1	115.250	-0.120	-0.550	1.590
2020/01/31 09:44:37.2	115.230	-0.110	-0.550	1.610
2020/01/31 09:44:37.3	115.210	-0.100	-0.550	1.620
2020/01/31 09:44:37.4	115.210	-0.080	-0.540	1.630
2020/01/31 09:44:37.5	115.190	-0.070	-0.530	1.630
2020/01/31 09:44:37.6	115.180	-0.060	-0.520	1.620
2020/01/31 09:44:37.7	115.160	-0.040	-0.510	1.620
2020/01/31 09:44:37.8	115.140	-0.030	-0.500	1.610
2020/01/31 09:44:37.9	115.130	-0.020	-0.490	1.590
2020/01/31 09:44:38.0	115.110	-0.010	-0.470	1.570
2020/01/31 09:44:38.1	115.100	0.000	-0.450	1.550
2020/01/31 09:44:38.2	115.090	0.020	-0.430	1.520
2020/01/31 09:44:38.3	115.080	0.030	-0.410	1.490
2020/01/31 09:44:38.4	115.100	0.030	-0.390	1.450
2020/01/31 09:44:38.5	115.100	0.040	-0.360	1.420
2020/01/31 09:44:38.6	115.090	0.050	-0.330	1.380
2020/01/31 09:44:38.7	115.090	0.060	-0.300	1.330
2020/01/31 09:44:38.8	115.090	0.060	-0.270	1.290
2020/01/31 09:44:38.9	115.090	0.070	-0.240	1.240
2020/01/31 09:44:39.0	115.090	0.070	-0.210	1.200
2020/01/31 09:44:39.1	115.090	0.070	-0.170	1.150
2020/01/31 09:44:39.2	115.100	0.070	-0.130	1.100
2020/01/31 09:44:39.3	115.100	0.070	-0.100	1.050
2020/01/31 09:44:39.4	115.110	0.070	-0.060	1.000
2020/01/31 09:44:39.5	115.110	0.070	-0.020	0.950
2020/01/31 09:44:39.6	115.110	0.070	0.020	0.900
2020/01/31 09:44:39.7	115.120	0.070	0.060	0.850
2020/01/31 09:44:39.8	115.120	0.060	0.100	0.800
2020/01/31 09:44:39.9	115.120	0.060	0.140	0.750
2020/01/31 09:44:40.0	115.120	0.050	0.180	0.710
2020/01/31 09:44:40.1	115.130	0.050	0.210	0.660
2020/01/31 09:44:40.2	115.130	0.050	0.240	0.620
2020/01/31 09:44:40.3	115.130	0.040	0.280	0.570
2020/01/31 09:44:40.4	115.120	0.040	0.300	0.530
2020/01/31 09:44:40.5	115.120	0.030	0.330	0.490
2020/01/31 09:44:40.6	115.120	0.030	0.350	0.450
2020/01/31 09:44:40.7	115.120	0.030	0.380	0.410
2020/01/31 09:44:40.8	115.120	0.030	0.390	0.380
2020/01/31 09:44:40.9	115.120	0.030	0.410	0.340
2020/01/31 09:44:41.0	115.120	0.030	0.420	0.310
2020/01/31 09:44:41.1	115.120	0.030	0.420	0.280
2020/01/31 09:44:41.2	115.110	0.030	0.420	0.250
2020/01/31 09:44:41.3	115.110	0.030	0.420	0.220
2020/01/31 09:44:41.4	115.090	0.040	0.420	0.190
2020/01/31 09:44:41.5	115.090	0.040	0.410	0.160
2020/01/31 09:44:41.6	115.090	0.050	0.390	0.130
2020/01/31 09:44:41.7	115.090	0.050	0.380	0.100
2020/01/31 09:44:41.8	115.080	0.060	0.350	0.080
2020/01/31 09:44:41.9	115.080	0.070	0.330	0.050
2020/01/31 09:44:42.0	115.080	0.080	0.300	0.030
2020/01/31 09:44:42.1	115.070	0.090	0.270	0.010
2020/01/31 09:44:42.2	115.070	0.100	0.240	-0.020
2020/01/31 09:44:42.3	115.070	0.110	0.200	-0.040
2020/01/31 09:44:42.4	115.040	0.120	0.160	-0.060
2020/01/31 09:44:42.5	115.040	0.130	0.120	-0.080
2020/01/31 09:44:42.6	115.030	0.150	0.080	-0.100
2020/01/31 09:44:42.7	115.020	0.160	0.030	-0.120
2020/01/31 09:44:42.8	115.020	0.170	-0.010	-0.130
2020/01/31 09:44:42.9	115.010	0.180	-0.060	-0.150
2020/01/31 09:44:43.0	115.000	0.190	-0.100	-0.160
2020/01/31 09:44:43.1	114.990	0.200	-0.150	-0.170
2020/01/31 09:44:43.2	114.980	0.200	-0.190	-0.180
2020/01/31 09:44:43.3	114.970	0.210	-0.240	-0.190
2020/01/31 09:44:43.4	114.940	0.220	-0.280	-0.190
2020/01/31 09:44:43.5	114.930	0.220	-0.320	-0.200
2020/01/31 09:44:43.6	114.920	0.220	-0.360	-0.200
2020/01/31 09:44:43.7	114.900	0.230	-0.390	-0.200
2020/01/31 09:44:43.8	114.890	0.230	-0.430	-0.200
2020/01/31 09:44:43.9	114.870	0.230	-0.460	-0.200
2020/01/31 09:44:44.0	114.860	0.220	-0.490	-0.200
2020/01/31 09:44:44.1	114.840	0.220	-0.510	-0.190
2020/01/31 09:44:44.2	114.830	0.220	-0.530	-0.190
2020/01/31 09:44:44.3	114.810	0.210	-0.550	-0.180
2020/01/31 09:44:44.4	114.780	0.200	-0.560	-0.170
2020/01/31 09:44:44.5	114.770	0.190	-0.570	-0.160
2020/01/31 09:44:44.6	114.760	0.180	-0.570	-0.150
2020/01/31 09:44:44.7	114.740	0.170	-0.580	-0.130
2020/01/31 09:44:44.8	114.730	0.160	-0.580	-0.110
2020/01/31 09:44:44.9	114.720	0.140	-0.570	-0.100
2020/01/31 09:44:45.0	114.710	0.130	-0.560	-0.080
2020/01/31 09:44:45.1	114.700	0.110	-0.550	-0.050
2020/01/31 09:44:45.2	114.690	0.090	-0.540	-0.030
2020/01/31 09:44:45.3	114.690	0.080	-0.530	-0.000
2020/01/31 09:44:45.4	114.680	0.060	-0.510	0.030
2020/01/31 09:44:45.5	114.680	0.040	-0.490	0.060
2020/01/31 09:44:45.6	114.670	0.020	-0.470	0.100
2020/01/31 09:44:45.7	114.670	0.000	-0.450	0.130
2020/01/31 09:44:45.8	114.670	-0.010	-0.430	0.170
2020/01/31 09:44:45.9	114.660	-0.030	-0.410	0.210
2020/01/31 09:44:46.0	114.660	-0.050	-0.390	0.250
2020/01/31 09:44:46.1	114.660	-0.070	-0.370	0.300
2020/01/31 09:44:46.2	114.660	-0.080	-0.350	0.340
2020/01/31 09:44:46.3	114.660	-0.100	-0.330	0.390
2020/01/31 09:44:46.4	114.670	-0.110	-0.310	0.440
2020/01/31 09:44:46.5	114.670	-0.130	-0.290	0.480
2020/01/31 09:44:46.6	114.680	-0.140	-0.280	0.530
2020/01/31 09:44:46.7	114.680	-0.150	-0.260	0.580
2020/01/31 09:44:46.8	114.690	-0.160	-0.250	0.630
2020/01/31 09:44:46.9	114.700	-0.170	-0.230	0.670
2020/01/31 09:44:47.0	114.710	-0.170	-0.220	0.720
2020/01/31 09:44:47.1	114.720	-0.180	-0.220	0.770
2020/01/31 09:44:47.2	114.730	-0.180	-0.210	0.810
2020/01/31 09:44:47.3	114.740	-0.180	-0.200	0.850
2020/01/31 09:44:47.4	114.760	-0.180	-0.200	0.900
2020/01/31 09:44:47.5	114.770	-0.180	-0.200	0.940
2020/01/31 09:44:47.6	114.780	-0.180	-0.200	0.980
2020/01/31 09:44:47.7	114.800	-0.170	-0.210	1.020
2020/01/31 09:44:47.8	114.810	-0.160	-0.210	1.060
2020/01/31 09:44:47.9	114.830	-0.150	-0.220	1.090
2020/01/31 09:44:48.0	114.840	-0.140	-0.230	1.130
2020/01/31 09:44:48.1	114.850	-0.120	-0.240	1.160
2020/01/31 09:44:48.2	114.870	-0.110	-0.250	1.200
2020/01/31 09:44:48.3	114.880	-0.090	-0.270	1.230
2020/01/31 09:44:48.4	114.880	-0.070	-0.280	1.270
2020/01/31 09:44:48.5	114.890	-0.050	-0.290	1.300
2020/01/31 09:44:48.6	114.890	-0.020	-0.310	1.340
2020/01/31 09:44:48.7	114.900	-0.000	-0.330	1.370
2020/01/31 09:44:48.8	114.910	0.020	-0.350	1.400
2020/01/31 09:44:48.9	114.910	0.050	-0.360	1.440
2020/01/31 09:44:49.0	114.910	0.070	-0.380	1.470
2020/01/31 09:44:49.1	114.910	0.100	-0.400	1.510
2020/01/31 09:44:49.2	114.910	0.120	-0.410	1.540
2020/01/31 09:44:49.3	114.910	0.150	-0.420	1.570
2020/01/31 09:44:49.4	114.910	0.170	-0.430	1.610
2020/01/31 09:44:49.5	114.910	0.190	-0.440	1.640
2020/01/31 09:44:49.6	114.900	0.210	-0.450	1.670
2020/01/31 09:44:49.7	114.900	0.230	-0.450	1.700
2020/01/31 09:44:49.8	114.890	0.250	-0.450	1.730
2020/01/31 09:44:49.9	114.880	0.270	-0.440	1.760
2020/01/31 09:44:50.0	114.870	0.280	-0.440	1.780
2020/01/31 09:44:50.1	114.860	0.290	-0.430	1.800
2020/01/31 09:44:50.2	114.850	0.300	-0.410	1.820
2020/01/31 09:44:50.3	114.850	0.310	-0.400	1.840
2020/01/31 09:44:50.4	114.860	0.310	-0.380	1.860
2020/01/31 09:44:50.5	114.850	0.310	-0.350	1.870
2020/01/31 09:44:50.6	114.840	0.300	-0.320	1.880
2020/01/31 09:44:50.7	114.840	0.300	-0.290	1.890
2020/01/31 09:44:50.8	114.830	0.290	-0.260	1.890
2020/01/31 09:44:50.9	114.820	0.280	-0.220	1.890
2020/01/31 09:44:51.0	114.820	0.260	-0.180	1.890
2020/01/31 09:44:51.1	114.820	0.240	-0.140	1.880
2020/01/31 09:44:51.2	114.820	0.220	-0.090	1.870
2020/01/31 09:44:51.3	114.820	0.190	-0.050	1.850
2020/01/31 09:44:51.4	114.830	0.170	0.000	1.840
2020/01/31 09:44:51.5	114.840	0.140	0.050	1.820
2020/01/31 09:44:51.6	114.840	0.110	0.100	1.790
2020/01/31 09:44:51.7	114.840	0.080	0.150	1.770
2020/01/31 09:44:51.8	114.850	0.040	0.200	1.740
2020/01/31 09:44:51.9	114.860	0.010	0.250	1.710
2020/01/31 09:44:52.0	114.860	-0.030	0.300	1.670
2020/01/31 09:44:52.1	114.870	-0.070	0.350	1.640
2020/01/31 09:44:52.2	114.870	-0.100	0.400	1.600
2020/01/31 09:44:52.3	114.880	-0.140	0.440	1.560
2020/01/31 09:44:52.4	114.900	-0.180	0.480	1.520
2020/01/31 09:44:52.5	114.900	-0.210	0.520	1.480
2020/01/31 09:44:52.6	114.910	-0.250	0.560	1.440
2020/01/31 09:44:52.7	114.910	-0.280	0.590	1.400
2020/01/31 09:44:52.8	114.920	-0.320	0.620	1.360
2020/01/31 09:44:52.9	114.920	-0.350	0.640	1.320
2020/01/31 09:44:53.0	114.930	-0.380	0.660	1.270
2020/01/31 09:44:53.1	114.930	-0.400	0.680	1.230
2020/01/31 09:44:53.2	114.930	-0.430	0.690	1.190
2020/01/31 09:44:53.3	114.930	-0.450	0.690	1.140
2020/01/31 09:44:53.4	114.950	-0.470	0.690	1.100
2020/01/31 09:44:53.5	114.950	-0.490	0.680	1.050
2020/01/31 09:44:53.6	114.950	-0.510	0.670	1.010
2020/01/31 09:44:53.7	114.950	-0.520	0.660	0.960
2020/01/31 09:44:53.8	114.960	-0.530	0.640	0.920
2020/01/31 09:44:53.9	114.960	-0.530	0.610	0.870
2020/01/31 09:44:54.0	114.960	-0.540	0.580	0.820
2020/01/31 09:44:54.1	114.970	-0.540	0.540	0.780
2020/01/31 09:44:54.2	114.970	-0.540	0.500	0.730
2020/01/31 09:44:54.3	114.980	-0.530	0.450	0.680
2020/01/31 09:44:54.4	114.970	-0.530	0.400	0.630
2020/01/31 09:44:54.5	114.970	-0.520	0.340	0.590
2020/01/31 09:44:54.6	114.980	-0.500	0.280	0.540
2020/01/31 09:44:54.7	114.980	-0.490	0.210	0.500
2020/01/31 09:44:54.8	114.990	-0.470	0.140	0.460
2020/01/31 09:44:54.9	114.990	-0.450	0.070	0.420
2020/01/31 09:44:55.0	114.990	-0.430	-0.010	0.380
2020/01/31 09:44:55.1	115.000	-0.400	-0.090	0.340
2020/01/31 09:44:55.2	115.000	-0.380	-0.170	0.300
2020/01/31 09:44:55.3	115.000	-0.350	-0.250	0.270
2020/01/31 09:44:55.4	114.980	-0.310	-0.340	0.240
2020/01/31 09:44:55.5	114.980	-0.280	-0.420	0.210
2020/01/31 09:44:55.6	114.980	-0.250	-0.500	0.180
2020/01/31 09:44:55.7	114.970	-0.210	-0.590	0.160
2020/01/31 09:44:55.8	114.970	-0.170	-0.670	0.140
2020/01/31 09:44:55.9	114.960	-0.140	-0.750	0.120
2020/01/31 09:44:56.0	114.950	-0.100	-0.820	0.110
2020/01/31 09:44:56.1	114.940	-0.060	-0.900	0.100
2020/01/31 09:44:56.2	114.930	-0.020	-0.970	0.090
2020/01/31 09:44:56.3	114.910	0.030	-1.030	0.080
2020/01/31 09:44:56.4	114.890	0.070	-1.090	0.070
2020/01/31 09:44:56.5	114.870	0.110	-1.150	0.070
2020/01/31 09:44:56.6	114.850	0.140	-1.200	0.070
2020/01/31 09:44:56.7	114.840	0.180	-1.240	0.070
2020/01/31 09:44:56.8	114.820	0.220	-1.280	0.070
2020/01/31 09:44:56.9	114.800	0.250	-1.310	0.080
2020/01/31 09:44:57.0	114.780	0.290	-1.330	0.080
2020/01/31 09:44:57.1	114.770	0.320	-1.340	0.090
2020/01/31 09:44:57.2	114.750	0.350	-1.350	0.100
2020/01/31 09:44:57.3	114.740	0.370	-1.350	0.110
2020/01/31 09:44:57.4	114.740	0.400	-1.330	0.120
2020/01/31 09:44:57.5	114.730	0.420	-1.320	0.130
2020/01/31 09:44:57.6	114.720	0.430	-1.290	0.150
2020/01/31 09:44:57.7	114.710	0.450	-1.250	0.160
2020/01/31 09:44:57.8	114.710	0.460	-1.210	0.180
2020/01/31 09:44:57.9	114.700	0.460	-1.160	0.190
2020/01/31 09:44:58.0	114.700	0.460	-1.100	0.210
2020/01/31 09:44:58.1	114.700	0.460	-1.030	0.230
2020/01/31 09:44:58.2	114.700	0.460	-0.960	0.250
2020/01/31 09:44:58.3	114.700	0.450	-0.880	0.270
2020/01/31 09:44:58.4	114.700	0.440	-0.790	0.300
2020/01/31 09:44:58.5	114.710	0.420	-0.700	0.320
2020/01/31 09:44:58.6	114.710	0.410	-0.610	0.340
2020/01/31 09:44:58.7	114.720	0.390	-0.510	0.360
2020/01/31 09:44:58.8	114.730	0.360	-0.410	0.390
2020/01/31 09:44:58.9	114.730	0.340	-0.310	0.410
2020/01/31 09:44:59.0	114.740	0.310	-0.210	0.430
2020/01/31 09:44:59.1	114.750	0.280	-0.110	0.450
2020/01/31 09:44:59.2	114.750	0.250	-0.010	0.480
2020/01/31 09:44:59.3	114.760	0.220	0.090	0.500
2020/01/31 09:44:59.4	114.760	0.190	0.190	0.520
2020/01/31 09:44:59.5	114.770	0.160	0.280	0.550
2020/01/31 09:44:59.6	114.770	0.130	0.370	0.570
2020/01/31 09:44:59.7	114.770	0.100	0.460	0.590
2020/01/31 09:44:59.8	114.780	0.070	0.530	0.610
2020/01/31 09:44:59.9	114.780	0.040	0.610	0.630
2020/01/31 09:45:00.0	114.780	0.020	0.670	0.650
2020/01/31 09:45:00.1	114.790	-0.010	0.730	0.670
2020/01/31 09:45:00.2	114.790	-0.030	0.780	0.690
2020/01/31 09:45:00.3	114.790	-0.050	0.820	0.700
2020/01/31 09:45:00.4	114.800	-0.070	0.850	0.720
2020/01/31 09:45:00.5	114.790	-0.090	0.870	0.740
2020/01/31 09:45:00.6	114.790	-0.100	0.890	0.760
2020/01/31 09:45:00.7	114.790	-0.110	0.890	0.770
2020/01/31 09:45:00.8	114.790	-0.110	0.890	0.790
2020/01/31 09:45:00.9	114.780	-0.120	0.880	0.810
2020/01/31 09:45:01.0	114.780	-0.120	0.850	0.820
2020/01/31 09:45:01.1	114.770	-0.120	0.820	0.840
2020/01/31 09:45:01.2	114.760	-0.110	0.780	0.850
2020/01/31 09:45:01.3	114.760	-0.100	0.740	0.870
2020/01/31 09:45:01.4	114.740	-0.090	0.680	0.890
2020/01/31 09:45:01.5	114.730	-0.080	0.630	0.900
2020/01/31 09:45:01.6	114.730	-0.060	0.560	0.920
2020/01/31 09:45:01.7	114.720	-0.050	0.490	0.940
2020/01/31 09:45:01.8	114.710	-0.030	0.420	0.960
2020/01/31 09:45:01.9	114.700	-0.010	0.350	0.980
2020/01/31 09:45:02.0	114.690	0.010	0.270	1.000
2020/01/31 09:45:02.1	114.680	0.030	0.190	1.020
2020/01/31 09:45:02.2	114.670	0.050	0.110	1.040
2020/01/31 09:45:02.3	114.660	0.080	0.030	1.070
2020/01/31 09:45:02.4	114.630	0.100	-0.050	1.090
2020/01/31 09:45:02.5	114.620	0.120	-0.130	1.110
2020/01/31 09:45:02.6	114.610	0.140	-0.200	1.130
2020/01/31 09:45:02.7	114.600	0.160	-0.270	1.160
2020/01/31 09:45:02.8	114.590	0.170	-0.340	1.180
2020/01/31 09:45:02.9	114.580	0.190	-0.410	1.210
2020/01/31 09:45:03.0	114.570	0.200	-0.470	1.230
2020/01/31 09:45:03.1	114.570	0.210	-0.530	1.260
2020/01/31 09:45:03.2	114.560	0.220	-0.580	1.280
2020/01/31 09:45:03.3	114.550	0.230	-0.620	1.300
2020/01/31 09:45:03.4	114.570	0.230	-0.660	1.330
2020/01/31 09:45:03.5	114.570	0.230	-0.690	1.350
2020/01/31 09:45:03.6	114.560	0.230	-0.720	1.370
2020/01/31 09:45:03.7	114.560	0.230	-0.740	1.390
2020/01/31 09:45:03.8	114.550	0.220	-0.760	1.410
2020/01/31 09:45:03.9	114.550	0.210	-0.770	1.420
2020/01/31 09:45:04.0	114.550	0.190	-0.770	1.440
2020/01/31 09:45:04.1	114.550	0.180	-0.770	1.460
2020/01/31 09:45:04.2	114.550	0.160	-0.770	1.470
2020/01/31 09:45:04.3	114.550	0.140	-0.760	1.480
2020/01/31 09:45:04.4	114.560	0.120	-0.740	1.500
2020/01/31 09:45:04.5	114.560	0.090	-0.720	1.510
2020/01/31 09:45:04.6	114.560	0.060	-0.700	1.520
2020/01/31 09:45:04.7	114.560	0.030	-0.670	1.530
2020/01/31 09:45:04.8	114.560	0.000	-0.640	1.540
2020/01/31 09:45:04.9	114.550	-0.030	-0.610	1.550
2020/01/31 09:45:05.0	114.550	-0.060	-0.580	1.560
2020/01/31 09:45:05.1	114.550	-0.090	-0.540	1.570
2020/01/31 09:45:05.2	114.550	-0.120	-0.510	1.580
2020/01/31 09:45:05.3	114.540	-0.160	-0.470	1.580
2020/01/31 09:45:05.4	114.550	-0.190	-0.430	1.590
2020/01/31 09:45:05.5	114.540	-0.220	-0.390	1.590
2020/01/31 09:45:05.6	114.540	-0.260	-0.350	1.590
2020/01/31 09:45:05.7	114.540	-0.290	-0.310	1.590
2020/01/31 09:45:05.8	114.540	-0.320	-0.280	1.590
2020/01/31 09:45:05.9	114.540	-0.350	-0.240	1.590
2020/01/31 09:45:06.0	114.540	-0.370	-0.200	1.590
2020/01/31 09:45:06.1	114.540	-0.400	-0.160	1.580
2020/01/31 09:45:06.2	114.540	-0.420	-0.130	1.580
2020/01/31 09:45:06.3	114.550	-0.450	-0.100	1.570
2020/01/31 09:45:06.4	114.540	-0.470	-0.060	1.550
2020/01/31 09:45:06.5	114.550	-0.480	-0.030	1.540
2020/01/31 09:45:06.6	114.550	-0.500	-0.000	1.530
2020/01/31 09:45:06.7	114.560	-0.510	0.020	1.510
2020/01/31 09:45:06.8	114.570	-0.520	0.050	1.500
2020/01/31 09:45:06.9	114.570	-0.530	0.070	1.480
2020/01/31 09:45:07.0	114.580	-0.530	0.100	1.460
2020/01/31 09:45:07.1	114.590	-0.540	0.110	1.440
2020/01/31 09:45:07.2	114.600	-0.530	0.130	1.420
2020/01/31 09:45:07.3	114.610	-0.530	0.140	1.400
2020/01/31 09:45:07.4	114.610	-0.520	0.150	1.370
2020/01/31 09:45:07.5	114.620	-0.510	0.160	1.350
2020/01/31 09:45:07.6	114.630	-0.500	0.170	1.320
2020/01/31 09:45:07.7	114.640	-0.480	0.170	1.300
2020/01/31 09:45:07.8	114.650	-0.460	0.170	1.270
2020/01/31 09:45:07.9	114.650	-0.440	0.160	1.240
2020/01/31 09:45:08.0	114.660	-0.410	0.150	1.210
2020/01/31 09:45:08.1	114.670	-0.380	0.140	1.180
2020/01/31 09:45:08.2	114.670	-0.350	0.120	1.150
2020/01/31 09:45:08.3	114.670	-0.320	0.110	1.120
2020/01/31 09:45:08.4	114.680	-0.280	0.090	1.080
2020/01/31 09:45:08.5	114.680	-0.250	0.060	1.050
2020/01/31 09:45:08.6	114.680	-0.210	0.040	1.020
2020/01/31 09:45:08.7	114.680	-0.170	0.010	0.980
2020/01/31 09:45:08.8	114.680	-0.120	-0.020	0.950
2020/01/31 09:45:08.9	114.670	-0.080	-0.050	0.910
2020/01/31 09:45:09.0	114.670	-0.040	-0.080	0.880
2020/01/31 09:45:09.1	114.660	0.010	-0.120	0.840
2020/01/31 09:45:09.2	114.650	0.050	-0.150	0.800
2020/01/31 09:45:09.3	114.640	0.100	-0.180	0.760
2020/01/31 09:45:09.4	114.620	0.140	-0.210	0.720
2020/01/31 09:45:09.5	114.610	0.180	-0.240	0.680
2020/01/31 09:45:09.6	114.610	0.220	-0.270	0.630
2020/01/31 09:45:09.7	114.600	0.260	-0.300	0.580
2020/01/31 09:45:09.8	114.590	0.300	-0.320	0.540
2020/01/31 09:45:09.9	114.580	0.330	-0.340	0.490
2020/01/31 09:45:10.0	114.580	0.360	-0.350	0.440
2020/01/31 09:45:10.1	114.570	0.390	-0.360	0.380
2020/01/31 09:45:10.2	114.570	0.410	-0.370	0.330
2020/01/31 09:45:10.3	114.570	0.440	-0.370	0.270
2020/01/31 09:45:10.4	114.580	0.450	-0.360	0.220
2020/01/31 09:45:10.5	114.580	0.470	-0.350	0.160
2020/01/31 09:45:10.6	114.580	0.480	-0.340	0.100
2020/01/31 09:45:10.7	114.590	0.480	-0.320	0.050
2020/01/31 09:45:10.8	114.600	0.490	-0.300	-0.010
2020/01/31 09:45:10.9	114.600	0.490	-0.280	-0.070
2020/01/31 09:45:11.0	114.610	0.480	-0.250	-0.120
2020/01/31 09:45:11.1	114.620	0.470	-0.220	-0.180
2020/01/31 09:45:11.2	114.640	0.460	-0.190	-0.230
2020/01/31 09:45:11.3	114.650	0.450	-0.160	-0.280
2020/01/31 09:45:11.4	114.650	0.430	-0.120	-0.330
2020/01/31 09:45:11.5	114.660	0.410	-0.090	-0.380
2020/01/31 09:45:11.6	114.680	0.390	-0.050	-0.420
2020/01/31 09:45:11.7	114.690	0.370	-0.020	-0.460
2020/01/31 09:45:11.8	114.710	0.340	0.010	-0.500
2020/01/31 09:45:11.9	114.720	0.310	0.050	-0.540
2020/01/31 09:45:12.0	114.740	0.290	0.070	-0.570
2020/01/31 09:45:12.1	114.750	0.260	0.100	-0.600
2020/01/31 09:45:12.2	114.770	0.230	0.120	-0.630
2020/01/31 09:45:12.3	114.780	0.200	0.140	-0.650
2020/01/31 09:45:12.4	114.790	0.170	0.160	-0.670
2020/01/31 09:45:12.5	114.800	0.140	0.170	-0.690
2020/01/31 09:45:12.6	114.820	0.110	0.180	-0.700
2020/01/31 09:45:12.7	114.830	0.090	0.180	-0.710
2020/01/31 09:45:12.8	114.850	0.060	0.180	-0.720
2020/01/31 09:45:12.9	114.870	0.040	0.180	-0.720
2020/01/31 09:45:13.0	114.880	0.020	0.170	-0.720
2020/01/31 09:45:13.1	114.900	-0.000	0.150	-0.710
2020/01/31 09:45:13.2	114.920	-0.020	0.130	-0.710
2020/01/31 09:45:13.3	114.930	-0.040	0.110	-0.690
2020/01/31 09:45:13.4	114.940	-0.050	0.080	-0.680
2020/01/31 09:45:13.5	114.960	-0.060	0.050	-0.660
2020/01/31 09:45:13.6	114.970	-0.070	0.020	-0.640
2020/01/31 09:45:13.7	114.990	-0.080	-0.020	-0.610
2020/01/31 09:45:13.8	115.010	-0.080	-0.070	-0.590
2020/01/31 09:45:13.9	115.020	-0.080	-0.110	-0.550
2020/01/31 09:45:14.0	115.040	-0.080	-0.160	-0.520
2020/01/31 09:45:14.1	115.050	-0.080	-0.210	-0.480
2020/01/31 09:45:14.2	115.070	-0.080	-0.270	-0.430
2020/01/31 09:45:14.3	115.080	-0.070	-0.320	-0.390
2020/01/31 09:45:14.4	115.090	-0.070	-0.380	-0.330
2020/01/31 09:45:14.5	115.100	-0.060	-0.430	-0.280
2020/01/31 09:45:14.6	115.110	-0.050	-0.490	-0.220
2020/01/31 09:45:14.7	115.120	-0.040	-0.540	-0.160
2020/01/31 09:45:14.8	115.130	-0.030	-0.590	-0.090
2020/01/31 09:45:14.9	115.130	-0.020	-0.650	-0.030
2020/01/31 09:45:15.0	115.140	-0.010	-0.690	0.050
2020/01/31 09:45:15.1	115.140	-0.000	-0.740	0.120
2020/01/31 09:45:15.2	115.140	0.010	-0.780	0.200
2020/01/31 09:45:15.3	115.140	0.020	-0.820	0.280
2020/01/31 09:45:15.4	115.140	0.020	-0.850	0.370
2020/01/31 09:45:15.5	115.130	0.030	-0.880	0.460
2020/01/31 09:45:15.6	115.130	0.040	-0.900	0.550
2020/01/31 09:45:15.7	115.120	0.040	-0.920	0.640
2020/01/31 09:45:15.8	115.110	0.050	-0.930	0.730
2020/01/31 09:45:15.9	115.090	0.050	-0.930	0.830
2020/01/31 09:45:16.0	115.080	0.050	-0.930	0.930
2020/01/31 09:45:16.1	115.070	0.050	-0.930	1.030
2020/01/31 09:45:16.2	115.050	0.050	-0.920	1.120
2020/01/31 09:45:16.3	115.040	0.050	-0.900	1.220
2020/01/31 09:45:16.4	115.030	0.050	-0.870	1.320
2020/01/31 09:45:16.5	115.020	0.040	-0.840	1.420
2020/01/31 09:45:16.6	115.000	0.030	-0.810	1.520
2020/01/31 09:45:16.7	114.980	0.020	-0.770	1.610
2020/01/31 09:45:16.8	114.970	0.010	-0.720	1.700
2020/01/31 09:45:16.9	114.950	0.000	-0.670	1.790
2020/01/31 09:45:17.0	114.940	-0.010	-0.620	1.880
2020/01/31 09:45:17.1	114.930	-0.030	-0.560	1.960
2020/01/31 09:45:17.2	114.920	-0.040	-0.500	2.040
2020/01/31 09:45:17.3	114.910	-0.060	-0.430	2.110
2020/01/31 09:45:17.4	114.920	-0.080	-0.370	2.180
2020/01/31 09:45:17.5	114.910	-0.090	-0.300	2.250
2020/01/31 09:45:17.6	114.910	-0.110	-0.230	2.310
2020/01/31 09:45:17.7	114.910	-0.130	-0.160	2.360
2020/01/31 09:45:17.8	114.910	-0.150	-0.080	2.410
2020/01/31 09:45:17.9	114.910	-0.180	-0.010	2.460
2020/01/31 09:45:18.0	114.920	-0.200	0.060	2.500
2020/01/31 09:45:18.1	114.920	-0.220	0.140	2.530
2020/01/31 09:45:18.2	114.930	-0.240	0.210	2.560
2020/01/31 09:45:18.3	114.940	-0.260	0.280	2.580
2020/01/31 09:45:18.4	114.970	-0.280	0.350	2.600
2020/01/31 09:45:18.5	114.990	-0.300	0.410	2.610
2020/01/31 09:45:18.6	115.010	-0.320	0.470	2.610
2020/01/31 09:45:18.7	115.030	-0.340	0.530	2.610
2020/01/31 09:45:18.8	115.050	-0.360	0.590	2.610
2020/01/31 09:45:18.9	115.070	-0.380	0.640	2.590
2020/01/31 09:45:19.0	115.100	-0.390	0.680	2.580
2020/01/31 09:45:19.1	115.120	-0.400	0.720	2.550
2020/01/31 09:45:19.2	115.150	-0.420	0.760	2.520
2020/01/31 09:45:19.3	115.180	-0.430	0.780	2.490
2020/01/31 09:45:19.4	115.200	-0.440	0.800	2.450
2020/01/31 09:45:19.5	115.230	-0.440	0.820	2.410
2020/01/31 09:45:19.6	115.260	-0.450	0.820	2.360
2020/01/31 09:45:19.7	115.280	-0.450	0.830	2.310
2020/01/31 09:45:19.8	115.310	-0.450	0.820	2.250
2020/01/31 09:45:19.9	115.330	-0.450	0.810	2.200
2020/01/31 09:45:20.0	115.350	-0.440	0.790	2.140
2020/01/31 09:45:20.1	115.380	-0.430	0.770	2.080
2020/01/31 09:45:20.2	115.390	-0.420	0.740	2.010
2020/01/31 09:45:20.3	115.410	-0.410	0.700	1.940
2020/01/31 09:45:20.4	115.430	-0.390	0.660	1.870
2020/01/31 09:45:20.5	115.440	-0.370	0.610	1.800
2020/01/31 09:45:20.6	115.460	-0.350	0.550	1.730
2020/01/31 09:45:20.7	115.470	-0.330	0.490	1.660
2020/01/31 09:45:20.8	115.480	-0.300	0.430	1.590
2020/01/31 09:45:20.9	115.490	-0.280	0.360	1.510
2020/01/31 09:45:21.0	115.490	-0.250	0.290	1.440
2020/01/31 09:45:21.1	115.500	-0.220	0.210	1.360
2020/01/31 09:45:21.2	115.500	-0.180	0.140	1.290
2020/01/31 09:45:21.3	115.510	-0.150	0.060	1.210
2020/01/31 09:45:21.4	115.500	-0.110	-0.020	1.130
2020/01/31 09:45:21.5	115.510	-0.080	-0.100	1.050
2020/01/31 09:45:21.6	115.510	-0.040	-0.180	0.970
2020/01/31 09:45:21.7	115.510	-0.000	-0.250	0.900
2020/01/31 09:45:21.8	115.510	0.030	-0.330	0.820
2020/01/31 09:45:21.9	115.520	0.070	-0.400	0.740
2020/01/31 09:45:22.0	115.520	0.110	-0.470	0.670
2020/01/31 09:45:22.1	115.520	0.140	-0.540	0.590
2020/01/31 09:45:22.2	115.530	0.180	-0.600	0.520
2020/01/31 09:45:22.3	115.530	0.220	-0.660	0.440
2020/01/31 09:45:22.4	115.550	0.250	-0.720	0.370
2020/01/31 09:45:22.5	115.550	0.280	-0.770	0.300
2020/01/31 09:45:22.6	115.560	0.320	-0.810	0.240
2020/01/31 09:45:22.7	115.560	0.350	-0.860	0.170
2020/01/31 09:45:22.8	115.570	0.380	-0.900	0.100
2020/01/31 09:45:22.9	115.580	0.410	-0.930	0.040
2020/01/31 09:45:23.0	115.590	0.430	-0.960	-0.020
2020/01/31 09:45:23.1	115.600	0.460	-0.980	-0.080
2020/01/31 09:45:23.2	115.610	0.480	-1.000	-0.130
2020/01/31 09:45:23.3	115.620	0.500	-1.010	-0.190
2020/01/31 09:45:23.4	115.600	0.520	-1.020	-0.240
2020/01/31 09:45:23.5	115.610	0.540	-1.030	-0.290
2020/01/31 09:45:23.6	115.620	0.550	-1.030	-0.340
2020/01/31 09:45:23.7	115.630	0.560	-1.020	-0.380
2020/01/31 09:45:23.8	115.650	0.570	-1.010	-0.430
2020/01/31 09:45:23.9	115.660	0.580	-1.000	-0.470
2020/01/31 09:45:24.0	115.670	0.590	-0.980	-0.500
2020/01/31 09:45:24.1	115.680	0.590	-0.960	-0.540
2020/01/31 09:45:24.2	115.690	0.590	-0.940	-0.570
2020/01/31 09:45:24.3	115.700	0.590	-0.910	-0.600
2020/01/31 09:45:24.4	115.690	0.590	-0.880	-0.630
2020/01/31 09:45:24.5	115.700	0.580	-0.850	-0.650
2020/01/31 09:45:24.6	115.710	0.570	-0.810	-0.670
2020/01/31 09:45:24.7	115.720	0.560	-0.770	-0.690
2020/01/31 09:45:24.8	115.730	0.550	-0.720	-0.700
2020/01/31 09:45:24.9	115.730	0.530	-0.670	-0.710
2020/01/31 09:45:25.0	115.740	0.510	-0.620	-0.720
2020/01/31 09:45:25.1	115.750	0.490	-0.570	-0.720
2020/01/31 09:45:25.2	115.750	0.470	-0.520	-0.720
2020/01/31 09:45:25.3	115.750	0.450	-0.460	-0.720
2020/01/31 09:45:25.4	115.750	0.420	-0.400	-0.720
2020/01/31 09:45:25.5	115.750	0.400	-0.340	-0.700
2020/01/31 09:45:25.6	115.750	0.370	-0.280	-0.690
2020/01/31 09:45:25.7	115.750	0.340	-0.220	-0.670
2020/01/31 09:45:25.8	115.750	0.310	-0.160	-0.640
2020/01/31 09:45:25.9	115.740	0.280	-0.100	-0.610
2020/01/31 09:45:26.0	115.740	0.250	-0.040	-0.580
2020/01/31 09:45:26.1	115.730	0.220	0.010	-0.540
2020/01/31 09:45:26.2	115.720	0.180	0.070	-0.500
2020/01/31 09:45:26.3	115.710	0.150	0.130	-0.460
2020/01/31 09:45:26.4	115.700	0.120	0.180	-0.400
2020/01/31 09:45:26.5	115.690	0.090	0.230	-0.350
2020/01/31 09:45:26.6	115.680	0.060	0.270	-0.290
2020/01/31 09:45:26.7	115.660	0.030	0.320	-0.230
2020/01/31 09:45:26.8	115.650	-0.000	0.360	-0.160
2020/01/31 09:45:26.9	115.630	-0.030	0.400	-0.100
2020/01/31 09:45:27.0	115.620	-0.060	0.430	-0.030
2020/01/31 09:45:27.1	115.600	-0.080	0.460	0.050
2020/01/31 09:45:27.2	115.590	-0.110	0.480	0.120
2020/01/31 09:45:27.3	115.570	-0.130	0.500	0.200
2020/01/31 09:45:27.4	115.550	-0.150	0.520	0.270
2020/01/31 09:45:27.5	115.530	-0.170	0.530	0.350
2020/01/31 09:45:27.6	115.520	-0.190	0.540	0.430
2020/01/31 09:45:27.7	115.500	-0.210	0.540	0.510
2020/01/31 09:45:27.8	115.490	-0.230	0.540	0.580
2020/01/31 09:45:27.9	115.480	-0.240	0.540	0.660
2020/01/31 09:45:28.0	115.470	-0.260	0.530	0.740
2020/01/31 09:45:28.1	115.460	-0.270	0.520	0.810
2020/01/31 09:45:28.2	115.460	-0.280	0.500	0.890
2020/01/31 09:45:28.3	115.450	-0.290	0.490	0.960
2020/01/31 09:45:28.4	115.450	-0.300	0.470	1.040
2020/01/31 09:45:28.5	115.450	-0.310	0.450	1.110
2020/01/31 09:45:28.6	115.450	-0.320	0.420	1.180
2020/01/31 09:45:28.7	115.450	-0.330	0.390	1.250
2020/01/31 09:45:28.8	115.460	-0.340	0.360	1.310
2020/01/31 09:45:28.9	115.460	-0.340	0.330	1.370
2020/01/31 09:45:29.0	115.470	-0.350	0.300	1.440
2020/01/31 09:45:29.1	115.480	-0.360	0.260	1.500
2020/01/31 09:45:29.2	115.490	-0.360	0.230	1.550
2020/01/31 09:45:29.3	115.500	-0.370	0.190	1.610
2020/01/31 09:45:29.4	115.520	-0.370	0.150	1.670
2020/01/31 09:45:29.5	115.540	-0.370	0.110	1.720
2020/01/31 09:45:29.6	115.550	-0.380	0.060	1.770
2020/01/31 09:45:29.7	115.560	-0.380	0.020	1.820
2020/01/31 09:45:29.8	115.580	-0.380	-0.030	1.870
2020/01/31 09:45:29.9	115.590	-0.380	-0.070	1.920
2020/01/31 09:45:30.0	115.600	-0.380	-0.120	1.960
2020/01/31 09:45:30.1	115.620	-0.380	-0.160	2.000
2020/01/31 09:45:30.2	115.630	-0.380	-0.210	2.040
2020/01/31 09:45:30.3	115.640	-0.380	-0.250	2.070
2020/01/31 09:45:30.4	115.660	-0.380	-0.300	2.100
2020/01/31 09:45:30.5	115.680	-0.370	-0.340	2.140
2020/01/31 09:45:30.6	115.690	-0.370	-0.380	2.160
2020/01/31 09:45:30.7	115.700	-0.360	-0.420	2.190
2020/01/31 09:45:30.8	115.720	-0.360	-0.460	2.210
2020/01/31 09:45:30.9	115.730	-0.350	-0.500	2.230
2020/01/31 09:45:31.0	115.740	-0.340	-0.540	2.250
2020/01/31 09:45:31.1	115.750	-0.330	-0.570	2.270
2020/01/31 09:45:31.2	115.760	-0.320	-0.600	2.280
2020/01/31 09:45:31.3	115.760	-0.310	-0.620	2.300
2020/01/31 09:45:31.4	115.780	-0.300	-0.650	2.310
2020/01/31 09:45:31.5	115.790	-0.290	-0.670	2.310
2020/01/31 09:45:31.6	115.790	-0.270	-0.680	2.320
2020/01/31 09:45:31.7	115.790	-0.260	-0.700	2.320
2020/01/31 09:45:31.8	115.790	-0.240	-0.710	2.320
2020/01/31 09:45:31.9	115.790	-0.220	-0.710	2.320
2020/01/31 09:45:32.0	115.780	-0.200	-0.720	2.320
2020/01/31 09:45:32.1	115.770	-0.180	-0.720	2.320
2020/01/31 09:45:32.2	115.760	-0.160	-0.710	2.310
2020/01/31 09:45:32.3	115.750	-0.140	-0.710	2.300
2020/01/31 09:45:32.4	115.750	-0.120	-0.700	2.290
2020/01/31 09:45:32.5	115.730	-0.100	-0.690	2.270
2020/01/31 09:45:32.6	115.710	-0.080	-0.670	2.260
2020/01/31 09:45:32.7	115.690	-0.050	-0.650	2.240
2020/01/31 09:45:32.8	115.670	-0.030	-0.630	2.220
2020/01/31 09:45:32.9	115.640	-0.010	-0.610	2.200
2020/01/31 09:45:33.0	115.620	0.020	-0.590	2.170
2020/01/31 09:45:33.1	115.590	0.040	-0.560	2.140
2020/01/31 09:45:33.2	115.570	0.070	-0.530	2.100
2020/01/31 09:45:33.3	115.540	0.090	-0.500	2.060
2020/01/31 09:45:33.4	115.530	0.110	-0.470	2.020
2020/01/31 09:45:33.5	115.500	0.130	-0.440	1.980
2020/01/31 09:45:33.6	115.480	0.160	-0.410	1.920
2020/01/31 09:45:33.7	115.460	0.180	-0.370	1.870
2020/01/31 09:45:33.8	115.440	0.190	-0.330	1.810
2020/01/31 09:45:33.9	115.430	0.210	-0.300	1.740
2020/01/31 09:45:34.0	115.420	0.230	-0.260	1.680
2020/01/31 09:45:34.1	115.410	0.240	-0.220	1.600
2020/01/31 09:45:34.2	115.400	0.260	-0.180	1.530
2020/01/31 09:45:34.3	115.400	0.270	-0.140	1.450
2020/01/31 09:45:34.4	115.390	0.280	-0.110	1.360
2020/01/31 09:45:34.5	115.390	0.290	-0.070	1.270
2020/01/31 09:45:34.6	115.390	0.300	-0.030	1.180
2020/01/31 09:45:34.7	115.400	0.300	0.000	1.090
2020/01/31 09:45:34.8	115.400	0.310	0.030	1.000
2020/01/31 09:45:34.9	115.410	0.310	0.060	0.910
2020/01/31 09:45:35.0	115.420	0.310	0.090	0.810
2020/01/31 09:45:35.1	115.430	0.310	0.120	0.720
2020/01/31 09:45:35.2	115.440	0.310	0.140	0.630
2020/01/31 09:45:35.3	115.450	0.310	0.170	0.530
2020/01/31 09:45:35.4	115.460	0.300	0.180	0.440
2020/01/31 09:45:35.5	115.470	0.300	0.200	0.350
2020/01/31 09:45:35.6	115.480	0.290	0.210	0.260
2020/01/31 09:45:35.7	115.490	0.290	0.220	0.180
2020/01/31 09:45:35.8	115.510	0.280	0.220	0.090
2020/01/31 09:45:35.9	115.520	0.270	0.220	0.010
2020/01/31 09:45:36.0	115.530	0.260	0.220	-0.060
2020/01/31 09:45:36.1	115.530	0.250	0.210	-0.140
2020/01/31 09:45:36.2	115.540	0.240	0.200	-0.210
2020/01/31 09:45:36.3	115.550	0.230	0.190	-0.280
2020/01/31 09:45:36.4	115.530	0.220	0.160	-0.340
2020/01/31 09:45:36.5	115.530	0.210	0.140	-0.400
2020/01/31 09:45:36.6	115.530	0.210	0.120	-0.460
2020/01/31 09:45:36.7	115.530	0.200	0.090	-0.510
2020/01/31 09:45:36.8	115.530	0.190	0.060	-0.560
2020/01/31 09:45:36.9	115.520	0.180	0.030	-0.610
2020/01/31 09:45:37.0	115.520	0.170	-0.000	-0.650
2020/01/31 09:45:37.1	115.510	0.160	-0.030	-0.690
2020/01/31 09:45:37.2	115.500	0.150	-0.070	-0.720
2020/01/31 09:45:37.3	115.490	0.140	-0.110	-0.750
2020/01/31 09:45:37.4	115.460	0.130	-0.140	-0.780
2020/01/31 09:45:37.5	115.450	0.120	-0.170	-0.810
2020/01/31 09:45:37.6	115.440	0.110	-0.200	-0.830
2020/01/31 09:45:37.7	115.420	0.100	-0.240	-0.850
2020/01/31 09:45:37.8	115.410	0.090	-0.270	-0.860
2020/01/31 09:45:37.9	115.390	0.080	-0.290	-0.880
2020/01/31 09:45:38.0	115.380	0.070	-0.320	-0.890
2020/01/31 09:45:38.1	115.370	0.060	-0.340	-0.900
2020/01/31 09:45:38.2	115.350	0.050	-0.360	-0.900
2020/01/31 09:45:38.3	115.340	0.040	-0.380	-0.910
2020/01/31 09:45:38.4	115.320	0.030	-0.390	-0.910
2020/01/31 09:45:38.5	115.310	0.020	-0.400	-0.910
2020/01/31 09:45:38.6	115.300	0.010	-0.400	-0.910
2020/01/31 09:45:38.7	115.290	-0.000	-0.400	-0.900
2020/01/31 09:45:38.8	115.280	-0.020	-0.400	-0.890
2020/01/31 09:45:38.9	115.270	-0.030	-0.390	-0.880
2020/01/31 09:45:39.0	115.260	-0.040	-0.380	-0.870
2020/01/31 09:45:39.1	115.250	-0.050	-0.370	-0.860
2020/01/31 09:45:39.2	115.250	-0.070	-0.350	-0.840
2020/01/31 09:45:39.3	115.240	-0.080	-0.330	-0.830
2020/01/31 09:45:39.4	115.240	-0.090	-0.300	-0.800
2020/01/31 09:45:39.5	115.240	-0.100	-0.280	-0.780
2020/01/31 09:45:39.6	115.230	-0.110	-0.250	-0.750
2020/01/31 09:45:39.7	115.230	-0.130	-0.230	-0.720
2020/01/31 09:45:39.8	115.230	-0.140	-0.200	-0.690
2020/01/31 09:45:39.9	115.220	-0.150	-0.170	-0.660
2020/01/31 09:45:40.0	115.220	-0.160	-0.150	-0.620
2020/01/31 09:45:40.1	115.220	-0.170	-0.120	-0.580
2020/01/31 09:45:40.2	115.220	-0.180	-0.090	-0.530
2020/01/31 09:45:40.3	115.220	-0.190	-0.070	-0.480
2020/01/31 09:45:40.4	115.220	-0.190	-0.050	-0.430
2020/01/31 09:45:40.5	115.220	-0.200	-0.030	-0.370
2020/01/31 09:45:40.6	115.220	-0.210	-0.010	-0.310
2020/01/31 09:45:40.7	115.230	-0.220	0.010	-0.250
2020/01/31 09:45:40.8	115.230	-0.220	0.030	-0.190
2020/01/31 09:45:40.9	115.240	-0.230	0.040	-0.120
2020/01/31 09:45:41.0	115.250	-0.230	0.050	-0.060
2020/01/31 09:45:41.1	115.250	-0.230	0.060	0.020
2020/01/31 09:45:41.2	115.260	-0.240	0.060	0.090
2020/01/31 09:45:41.3	115.270	-0.240	0.060	0.160
2020/01/31 09:45:41.4	115.290	-0.240	0.070	0.240
2020/01/31 09:45:41.5	115.300	-0.240	0.060	0.310
2020/01/31 09:45:41.6	115.310	-0.240	0.060	0.390
2020/01/31 09:45:41.7	115.330	-0.240	0.060	0.470
2020/01/31 09:45:41.8	115.340	-0.240	0.050	0.540
2020/01/31 09:45:41.9	115.360	-0.240	0.040	0.620
2020/01/31 09:45:42.0	115.380	-0.240	0.030	0.700
2020/01/31 09:45:42.1	115.390	-0.240	0.020	0.770
2020/01/31 09:45:42.2	115.410	-0.230	0.010	0.850
2020/01/31 09:45:42.3	115.430	-0.230	-0.000	0.920
2020/01/31 09:45:42.4	115.440	-0.230	-0.020	1.000
2020/01/31 09:45:42.5	115.460	-0.220	-0.030	1.080
2020/01/31 09:45:42.6	115.470	-0.220	-0.050	1.150
2020/01/31 09:45:42.7	115.490	-0.210	-0.070	1.220
2020/01/31 09:45:42.8	115.510	-0.210	-0.090	1.290
2020/01/31 09:45:42.9	115.520	-0.200	-0.110	1.360
2020/01/31 09:45:43.0	115.530	-0.190	-0.130	1.420
2020/01/31 09:45:43.1	115.540	-0.190	-0.150	1.490
2020/01/31 09:45:43.2	115.550	-0.180	-0.170	1.550
2020/01/31 09:45:43.3	115.560	-0.170	-0.190	1.610
2020/01/31 09:45:43.4	115.580	-0.160	-0.210	1.670
2020/01/31 09:45:43.5	115.580	-0.150	-0.240	1.730
2020/01/31 09:45:43.6	115.580	-0.130	-0.260	1.780
2020/01/31 09:45:43.7	115.590	-0.120	-0.290	1.830
2020/01/31 09:45:43.8	115.590	-0.110	-0.320	1.880
2020/01/31 09:45:43.9	115.580	-0.090	-0.340	1.920
2020/01/31 09:45:44.0	115.580	-0.080	-0.370	1.970
2020/01/31 09:45:44.1	115.580	-0.060	-0.390	2.010
2020/01/31 09:45:44.2	115.570	-0.040	-0.420	2.040
2020/01/31 09:45:44.3	115.560	-0.020	-0.440	2.070
2020/01/31 09:45:44.4	115.570	-0.000	-0.470	2.110
2020/01/31 09:45:44.5	115.570	0.020	-0.490	2.130
2020/01/31 09:45:44.6	115.560	0.040	-0.510	2.150
2020/01/31 09:45:44.7	115.550	0.060	-0.520	2.170
2020/01/31 09:45:44.8	115.540	0.080	-0.540	2.190
2020/01/31 09:45:44.9	115.530	0.110	-0.550	2.200
2020/01/31 09:45:45.0	115.520	0.130	-0.560	2.220
2020/01/31 09:45:45.1	115.510	0.150	-0.570	2.220
2020/01/31 09:45:45.2	115.500	0.180	-0.570	2.230
2020/01/31 09:45:45.3	115.490	0.200	-0.570	2.230
2020/01/31 09:45:45.4	115.490	0.230	-0.570	2.240
2020/01/31 09:45:45.5	115.480	0.250	-0.560	2.230
2020/01/31 09:45:45.6	115.470	0.280	-0.550	2.230
2020/01/31 09:45:45.7	115.460	0.300	-0.530	2.220
2020/01/31 09:45:45.8	115.450	0.320	-0.510	2.220
2020/01/31 09:45:45.9	115.440	0.340	-0.490	2.210
2020/01/31 09:45:46.0	115.430	0.360	-0.470	2.190
2020/01/31 09:45:46.1	115.410	0.380	-0.440	2.180
2020/01/31 09:45:46.2	115.400	0.400	-0.410	2.160
2020/01/31 09:45:46.3	115.390	0.410	-0.380	2.140
2020/01/31 09:45:46.4	115.390	0.430	-0.350	2.120
2020/01/31 09:45:46.5	115.380	0.440	-0.310	2.100
2020/01/31 09:45:46.6	115.360	0.450	-0.270	2.070
2020/01/31 09:45:46.7	115.350	0.460	-0.240	2.040
2020/01/31 09:45:46.8	115.330	0.460	-0.200	2.010
2020/01/31 09:45:46.9	115.320	0.470	-0.160	1.980
2020/01/31 09:45:47.0	115.300	0.470	-0.120	1.950
2020/01/31 09:45:47.1	115.290	0.460	-0.080	1.910
2020/01/31 09:45:47.2	115.270	0.460	-0.050	1.870
2020/01/31 09:45:47.3	115.260	0.450	-0.010	1.830
2020/01/31 09:45:47.4	115.240	0.440	0.020	1.780
2020/01/31 09:45:47.5	115.230	0.430	0.060	1.730
2020/01/31 09:45:47.6	115.220	0.420	0.090	1.680
2020/01/31 09:45:47.7	115.210	0.400	0.120	1.620
2020/01/31 09:45:47.8	115.200	0.380	0.150	1.570
2020/01/31 09:45:47.9	115.200	0.360	0.180	1.510
2020/01/31 09:45:48.0	115.190	0.340	0.210	1.440
2020/01/31 09:45:48.1	115.190	0.310	0.230	1.380
2020/01/31 09:45:48.2	115.190	0.280	0.260	1.310
2020/01/31 09:45:48.3	115.190	0.250	0.280	1.240
2020/01/31 09:45:48.4	115.210	0.220	0.300	1.160
2020/01/31 09:45:48.5	115.210	0.190	0.310	1.080
2020/01/31 09:45:48.6	115.220	0.160	0.330	1.000
2020/01/31 09:45:48.7	115.220	0.120	0.340	0.920
2020/01/31 09:45:48.8	115.230	0.090	0.340	0.840
2020/01/31 09:45:48.9	115.240	0.050	0.350	0.760
2020/01/31 09:45:49.0	115.240	0.010	0.350	0.680
2020/01/31 09:45:49.1	115.250	-0.020	0.350	0.600
2020/01/31 09:45:49.2	115.260	-0.060	0.350	0.510
2020/01/31 09:45:49.3	115.270	-0.090	0.340	0.430
2020/01/31 09:45:49.4	115.250	-0.130	0.320	0.350
2020/01/31 09:45:49.5	115.260	-0.160	0.310	0.270
2020/01/31 09:45:49.6	115.270	-0.200	0.290	0.190
2020/01/31 09:45:49.7	115.280	-0.230	0.270	0.110
2020/01/31 09:45:49.8	115.280	-0.260	0.240	0.040
2020/01/31 09:45:49.9	115.280	-0.280	0.220	-0.030
2020/01/31 09:45:50.0	115.280	-0.310	0.180	-0.100
2020/01/31 09:45:50.1	115.280	-0.330	0.150	-0.160
2020/01/31 09:45:50.2	115.280	-0.350	0.110	-0.220
2020/01/31 09:45:50.3	115.270	-0.370	0.070	-0.270
2020/01/31 09:45:50.4	115.250	-0.380	0.020	-0.320
2020/01/31 09:45:50.5	115.240	-0.400	-0.020	-0.370
2020/01/31 09:45:50.6	115.220	-0.410	-0.070	-0.410
2020/01/31 09:45:50.7	115.210	-0.410	-0.120	-0.450
2020/01/31 09:45:50.8	115.200	-0.420	-0.170	-0.480
2020/01/31 09:45:50.9	115.180	-0.420	-0.230	-0.510
2020/01/31 09:45:51.0	115.170	-0.420	-0.280	-0.530
2020/01/31 09:45:51.1	115.150	-0.410	-0.340	-0.550
2020/01/31 09:45:51.2	115.130	-0.410	-0.400	-0.570
2020/01/31 09:45:51.3	115.110	-0.400	-0.450	-0.580
2020/01/31 09:45:51.4	115.080	-0.390	-0.500	-0.600
2020/01/31 09:45:51.5	115.060	-0.380	-0.560	-0.600
2020/01/31 09:45:51.6	115.040	-0.360	-0.610	-0.600
2020/01/31 09:45:51.7	115.020	-0.350	-0.660	-0.600
2020/01/31 09:45:51.8	115.000	-0.330	-0.710	-0.590
2020/01/31 09:45:51.9	114.990	-0.320	-0.750	-0.580
2020/01/31 09:45:52.0	114.970	-0.300	-0.800	-0.570
2020/01/31 09:45:52.1	114.950	-0.280	-0.840	-0.550
2020/01/31 09:45:52.2	114.930	-0.260	-0.870	-0.520
2020/01/31 09:45:52.3	114.910	-0.240	-0.900	-0.500
2020/01/31 09:45:52.4	114.900	-0.220	-0.930	-0.460
2020/01/31 09:45:52.5	114.880	-0.200	-0.950	-0.430
2020/01/31 09:45:52.6	114.870	-0.180	-0.970	-0.390
2020/01/31 09:45:52.7	114.850	-0.160	-0.980	-0.350
2020/01/31 09:45:52.8	114.830	-0.150	-0.990	-0.300
2020/01/31 09:45:52.9	114.820	-0.130	-0.990	-0.260
2020/01/31 09:45:53.0	114.800	-0.110	-0.990	-0.200
2020/01/31 09:45:53.1	114.790	-0.100	-0.980	-0.150
2020/01/31 09:45:53.2	114.770	-0.080	-0.960	-0.100
2020/01/31 09:45:53.3	114.760	-0.070	-0.940	-0.040
2020/01/31 09:45:53.4	114.750	-0.060	-0.920	0.020
2020/01/31 09:45:53.5	114.740	-0.050	-0.890	0.080
2020/01/31 09:45:53.6	114.720	-0.040	-0.850	0.140
2020/01/31 09:45:53.7	114.710	-0.030	-0.810	0.200
2020/01/31 09:45:53.8	114.700	-0.020	-0.760	0.250
2020/01/31 09:45:53.9	114.690	-0.020	-0.710	0.310
2020/01/31 09:45:54.0	114.680	-0.010	-0.660	0.370
2020/01/31 09:45:54.1	114.670	-0.010	-0.600	0.420
2020/01/31 09:45:54.2	114.660	-0.000	-0.540	0.470
2020/01/31 09:45:54.3	114.660	-0.000	-0.470	0.520
2020/01/31 09:45:54.4	114.660	-0.000	-0.400	0.570
2020/01/31 09:45:54.5	114.650	-0.000	-0.330	0.620
2020/01/31 09:45:54.6	114.650	-0.000	-0.250	0.660
2020/01/31 09:45:54.7	114.650	-0.000	-0.180	0.700
2020/01/31 09:45:54.8	114.650	-0.010	-0.100	0.730
2020/01/31 09:45:54.9	114.650	-0.010	-0.030	0.760
2020/01/31 09:45:55.0	114.650	-0.010	0.050	0.790
2020/01/31 09:45:55.1	114.650	-0.010	0.120	0.820
2020/01/31 09:45:55.2	114.660	-0.020	0.200	0.840
2020/01/31 09:45:55.3	114.660	-0.020	0.270	0.860
2020/01/31 09:45:55.4	114.670	-0.030	0.340	0.870
2020/01/31 09:45:55.5	114.680	-0.030	0.410	0.890
2020/01/31 09:45:55.6	114.680	-0.030	0.470	0.900
2020/01/31 09:45:55.7	114.690	-0.040	0.530	0.900
2020/01/31 09:45:55.8	114.700	-0.040	0.590	0.910
2020/01/31 09:45:55.9	114.710	-0.040	0.640	0.910
2020/01/31 09:45:56.0	114.720	-0.050	0.680	0.920
2020/01/31 09:45:56.1	114.730	-0.050	0.720	0.920
2020/01/31 09:45:56.2	114.740	-0.050	0.750	0.920
2020/01/31 09:45:56.3	114.750	-0.050	0.780	0.920
2020/01/31 09:45:56.4	114.770	-0.050	0.800	0.920
2020/01/31 09:45:56.5	114.780	-0.050	0.810	0.920
2020/01/31 09:45:56.6	114.780	-0.040	0.820	0.920
2020/01/31 09:45:56.7	114.790	-0.040	0.820	0.910
2020/01/31 09:45:56.8	114.800	-0.040	0.820	0.910
2020/01/31 09:45:56.9	114.800	-0.030	0.800	0.910
2020/01/31 09:45:57.0	114.810	-0.020	0.790	0.910
2020/01/31 09:45:57.1	114.810	-0.020	0.760	0.920
2020/01/31 09:45:57.2	114.810	-0.010	0.730	0.920
2020/01/31 09:45:57.3	114.810	0.000	0.700	0.920
2020/01/31 09:45:57.4	114.800	0.020	0.650	0.920
2020/01/31 09:45:57.5	114.800	0.030	0.610	0.930
2020/01/31 09:45:57.6	114.800	0.040	0.560	0.930
2020/01/31 09:45:57.7	114.790	0.060	0.500	0.930
2020/01/31 09:45:57.8	114.780	0.070	0.440	0.940
2020/01/31 09:45:57.9	114.770	0.090	0.380	0.950
2020/01/31 09:45:58.0	114.750	0.110	0.310	0.950
2020/01/31 09:45:58.1	114.740	0.130	0.250	0.960
2020/01/31 09:45:58.2	114.720	0.150	0.170	0.970
2020/01/31 09:45:58.3	114.690	0.170	0.100	0.980
2020/01/31 09:45:58.4	114.670	0.190	0.030	0.990
2020/01/31 09:45:58.5	114.640	0.210	-0.050	1.000
2020/01/31 09:45:58.6	114.610	0.230	-0.120	1.010
2020/01/31 09:45:58.7	114.580	0.250	-0.190	1.020
2020/01/31 09:45:58.8	114.550	0.270	-0.260	1.030
2020/01/31 09:45:58.9	114.510	0.280	-0.330	1.040
2020/01/31 09:45:59.0	114.480	0.300	-0.400	1.050
2020/01/31 09:45:59.1	114.440	0.320	-0.470	1.060
2020/01/31 09:45:59.2	114.410	0.340	-0.530	1.070
2020/01/31 09:45:59.3	114.370	0.350	-0.590	1.080
2020/01/31 09:45:59.4	114.350	0.360	-0.640	1.090
2020/01/31 09:45:59.5	114.310	0.370	-0.690	1.100
2020/01/31 09:45:59.6	114.280	0.380	-0.730	1.100
2020/01/31 09:45:59.7	114.250	0.390	-0.770	1.110
2020/01/31 09:45:59.8	114.220	0.390	-0.800	1.110
2020/01/31 09:45:59.9	114.190	0.400	-0.830	1.110
2020/01/31 09:46:00.0	114.160	0.400	-0.850	1.110
2020/01/31 09:46:00.1	114.140	0.390	-0.870	1.110
2020/01/31 09:46:00.2	114.120	0.390	-0.880	1.100
2020/01/31 09:46:00.3	114.100	0.380	-0.880	1.100
2020/01/31 09:46:00.4	114.080	0.370	-0.880	1.090
2020/01/31 09:46:00.5	114.070	0.360	-0.870	1.080
2020/01/31 09:46:00.6	114.060	0.340	-0.860	1.070
2020/01/31 09:46:00.7	114.060	0.330	-0.840	1.060
2020/01/31 09:46:00.8	114.050	0.310	-0.820	1.050
2020/01/31 09:46:00.9	114.050	0.280	-0.800	1.040
2020/01/31 09:46:01.0	114.050	0.260	-0.770	1.020
2020/01/31 09:46:01.1	114.060	0.230	-0.730	1.010
2020/01/31 09:46:01.2	114.070	0.210	-0.700	1.000
2020/01/31 09:46:01.3	114.070	0.180	-0.660	0.980
2020/01/31 09:46:01.4	114.080	0.150	-0.620	0.970
2020/01/31 09:46:01.5	114.090	0.120	-0.580	0.960
2020/01/31 09:46:01.6	114.100	0.090	-0.540	0.950
2020/01/31 09:46:01.7	114.110	0.050	-0.500	0.930
2020/01/31 09:46:01.8	114.130	0.020	-0.460	0.920
2020/01/31 09:46:01.9	114.140	-0.010	-0.420	0.910
2020/01/31 09:46:02.0	114.150	-0.040	-0.380	0.900
2020/01/31 09:46:02.1	114.170	-0.080	-0.340	0.900
2020/01/31 09:46:02.2	114.180	-0.110	-0.300	0.890
2020/01/31 09:46:02.3	114.190	-0.140	-0.270	0.890
2020/01/31 09:46:02.4	114.200	-0.170	-0.230	0.880
2020/01/31 09:46:02.5	114.220	-0.190	-0.210	0.880
2020/01/31 09:46:02.6	114.220	-0.220	-0.180	0.870
2020/01/31 09:46:02.7	114.230	-0.240	-0.150	0.870
2020/01/31 09:46:02.8	114.240	-0.260	-0.130	0.880
2020/01/31 09:46:02.9	114.250	-0.280	-0.120	0.880
2020/01/31 09:46:03.0	114.250	-0.300	-0.100	0.880
2020/01/31 09:46:03.1	114.260	-0.320	-0.090	0.880
2020/01/31 09:46:03.2	114.260	-0.330	-0.080	0.880
2020/01/31 09:46:03.3	114.260	-0.340	-0.070	0.880
2020/01/31 09:46:03.4	114.270	-0.350	-0.070	0.880
2020/01/31 09:46:03.5	114.270	-0.350	-0.060	0.870
2020/01/31 09:46:03.6	114.270	-0.360	-0.060	0.870
2020/01/31 09:46:03.7	114.270	-0.360	-0.060	0.860
2020/01/31 09:46:03.8	114.270	-0.360	-0.060	0.850
2020/01/31 09:46:03.9	114.270	-0.350	-0.060	0.840
2020/01/31 09:46:04.0	114.270	-0.350	-0.060	0.820
2020/01/31 09:46:04.1	114.270	-0.340	-0.060	0.810
2020/01/31 09:46:04.2	114.260	-0.340	-0.070	0.790
2020/01/31 09:46:04.3	114.260	-0.330	-0.070	0.770
2020/01/31 09:46:04.4	114.250	-0.320	-0.070	0.740
2020/01/31 09:46:04.5	114.250	-0.300	-0.070	0.720
2020/01/31 09:46:04.6	114.240	-0.290	-0.070	0.700
2020/01/31 09:46:04.7	114.240	-0.280	-0.070	0.680
2020/01/31 09:46:04.8	114.230	-0.270	-0.070	0.650
2020/01/31 09:46:04.9	114.230	-0.250	-0.060	0.630
2020/01/31 09:46:05.0	114.220	-0.240	-0.060	0.610
2020/01/31 09:46:05.1	114.210	-0.220	-0.060	0.590
2020/01/31 09:46:05.2	114.200	-0.210	-0.050	0.570
2020/01/31 09:46:05.3	114.190	-0.200	-0.050	0.550
2020/01/31 09:46:05.4	114.170	-0.180	-0.040	0.540
2020/01/31 09:46:05.5	114.160	-0.170	-0.040	0.530
2020/01/31 09:46:05.6	114.140	-0.150	-0.030	0.510
2020/01/31 09:46:05.7	114.130	-0.140	-0.030	0.500
2020/01/31 09:46:05.8	114.110	-0.130	-0.020	0.500
2020/01/31 09:46:05.9	114.100	-0.120	-0.020	0.490
2020/01/31 09:46:06.0	114.080	-0.110	-0.010	0.490
2020/01/31 09:46:06.1	114.070	-0.100	-0.010	0.490
2020/01/31 09:46:06.2	114.050	-0.090	-0.010	0.490
2020/01/31 09:46:06.3	114.040	-0.080	-0.000	0.490
2020/01/31 09:46:06.4	114.010	-0.070	0.000	0.500
2020/01/31 09:46:06.5	113.990	-0.060	0.010	0.500
2020/01/31 09:46:06.6	113.980	-0.050	0.010	0.510
2020/01/31 09:46:06.7	113.970	-0.040	0.010	0.520
2020/01/31 09:46:06.8	113.950	-0.040	0.010	0.520
2020/01/31 09:46:06.9	113.940	-0.030	0.010	0.530
2020/01/31 09:46:07.0	113.930	-0.020	0.020	0.540
2020/01/31 09:46:07.1	113.920	-0.010	0.020	0.540
2020/01/31 09:46:07.2	113.920	-0.000	0.020	0.550
2020/01/31 09:46:07.3	113.910	0.010	0.020	0.550
2020/01/31 09:46:07.4	113.910	0.010	0.020	0.550
2020/01/31 09:46:07.5	113.910	0.020	0.020	0.550
2020/01/31 09:46:07.6	113.910	0.030	0.010	0.550
2020/01/31 09:46:07.7	113.910	0.040	0.010	0.550
2020/01/31 09:46:07.8	113.920	0.050	0.010	0.550
2020/01/31 09:46:07.9	113.920	0.070	0.000	0.540
2020/01/31 09:46:08.0	113.930	0.080	-0.010	0.540
2020/01/31 09:46:08.1	113.940	0.090	-0.010	0.530
2020/01/31 09:46:08.2	113.950	0.100	-0.020	0.520
2020/01/31 09:46:08.3	113.960	0.120	-0.030	0.510
2020/01/31 09:46:08.4	113.980	0.130	-0.040	0.490
2020/01/31 09:46:08.5	113.990	0.140	-0.060	0.480
2020/01/31 09:46:08.6	114.000	0.160	-0.070	0.460
2020/01/31 09:46:08.7	114.020	0.170	-0.090	0.440
2020/01/31 09:46:08.8	114.030	0.190	-0.110	0.420
2020/01/31 09:46:08.9	114.050	0.200	-0.130	0.400
2020/01/31 09:46:09.0	114.060	0.210	-0.150	0.370
2020/01/31 09:46:09.1	114.080	0.230	-0.170	0.350
2020/01/31 09:46:09.2	114.090	0.240	-0.190	0.320
2020/01/31 09:46:09.3	114.100	0.250	-0.220	0.300
2020/01/31 09:46:09.4	114.110	0.260	-0.240	0.270
2020/01/31 09:46:09.5	114.120	0.270	-0.270	0.250
2020/01/31 09:46:09.6	114.130	0.270	-0.290	0.230
2020/01/31 09:46:09.7	114.140	0.280	-0.310	0.200
2020/01/31 09:46:09.8	114.160	0.280	-0.330	0.180
2020/01/31 09:46:09.9	114.170	0.280	-0.350	0.160
2020/01/31 09:46:10.0	114.170	0.280	-0.370	0.150
2020/01/31 09:46:10.1	114.180	0.280	-0.390	0.130
2020/01/31 09:46:10.2	114.190	0.280	-0.410	0.120
2020/01/31 09:46:10.3	114.190	0.270	-0.420	0.110
2020/01/31 09:46:10.4	114.210	0.260	-0.430	0.100
2020/01/31 09:46:10.5	114.210	0.250	-0.440	0.100
2020/01/31 09:46:10.6	114.210	0.240	-0.440	0.100
2020/01/31 09:46:10.7	114.220	0.220	-0.440	0.110
2020/01/31 09:46:10.8	114.220	0.210	-0.440	0.120
2020/01/31 09:46:10.9	114.220	0.190	-0.440	0.130
2020/01/31 09:46:11.0	114.220	0.170	-0.430	0.150
2020/01/31 09:46:11.1	114.220	0.150	-0.420	0.170
2020/01/31 09:46:11.2	114.220	0.130	-0.410	0.200
2020/01/31 09:46:11.3	114.220	0.100	-0.390	0.230
2020/01/31 09:46:11.4	114.230	0.080	-0.370	0.270
2020/01/31 09:46:11.5	114.230	0.050	-0.350	0.310
2020/01/31 09:46:11.6	114.230	0.030	-0.330	0.350
2020/01/31 09:46:11.7	114.230	0.000	-0.310	0.400
2020/01/31 09:46:11.8	114.230	-0.020	-0.280	0.450
2020/01/31 09:46:11.9	114.230	-0.050	-0.250	0.510
2020/01/31 09:46:12.0	114.240	-0.080	-0.220	0.560
2020/01/31 09:46:12.1	114.240	-0.100	-0.200	0.620
2020/01/31 09:46:12.2	114.240	-0.130	-0.170	0.680
2020/01/31 09:46:12.3	114.250	-0.150	-0.130	0.740
2020/01/31 09:46:12.4	114.270	-0.170	-0.100	0.800
2020/01/31 09:46:12.5	114.270	-0.200	-0.070	0.870
2020/01/31 09:46:12.6	114.270	-0.220	-0.040	0.930
2020/01/31 09:46:12.7	114.280	-0.240	-0.020	1.000
2020/01/31 09:46:12.8	114.280	-0.260	0.010	1.060
2020/01/31 09:46:12.9	114.290	-0.280	0.030	1.130
2020/01/31 09:46:13.0	114.290	-0.290	0.050	1.190
2020/01/31 09:46:13.1	114.290	-0.310	0.070	1.250
2020/01/31 09:46:13.2	114.300	-0.320	0.090	1.310
2020/01/31 09:46:13.3	114.300	-0.330	0.110	1.360
2020/01/31 09:46:13.4	114.290	-0.340	0.120	1.420
2020/01/31 09:46:13.5	114.290	-0.350	0.130	1.470
2020/01/31 09:46:13.6	114.290	-0.350	0.140	1.520
2020/01/31 09:46:13.7	114.300	-0.360	0.140	1.570
2020/01/31 09:46:13.8	114.300	-0.360	0.140	1.610
2020/01/31 09:46:13.9	114.300	-0.360	0.140	1.650
2020/01/31 09:46:14.0	114.300	-0.360	0.140	1.690
2020/01/31 09:46:14.1	114.300	-0.360	0.130	1.720
2020/01/31 09:46:14.2	114.310	-0.350	0.130	1.750
2020/01/31 09:46:14.3	114.310	-0.350	0.120	1.770
2020/01/31 09:46:14.4	114.320	-0.340	0.110	1.790
2020/01/31 09:46:14.5	114.320	-0.330	0.090	1.810
2020/01/31 09:46:14.6	114.320	-0.320	0.070	1.830
2020/01/31 09:46:14.7	114.330	-0.310	0.050	1.840
2020/01/31 09:46:14.8	114.340	-0.300	0.030	1.850
2020/01/31 09:46:14.9	114.340	-0.280	0.010	1.860
2020/01/31 09:46:15.0	114.350	-0.270	-0.010	1.860
2020/01/31 09:46:15.1	114.360	-0.250	-0.040	1.870
2020/01/31 09:46:15.2	114.360	-0.240	-0.060	1.870
2020/01/31 09:46:15.3	114.370	-0.220	-0.090	1.870
2020/01/31 09:46:15.4	114.390	-0.200	-0.110	1.870
2020/01/31 09:46:15.5	114.400	-0.180	-0.140	1.870
2020/01/31 09:46:15.6	114.410	-0.160	-0.160	1.860
2020/01/31 09:46:15.7	114.420	-0.140	-0.190	1.860
2020/01/31 09:46:15.8	114.430	-0.120	-0.210	1.850
2020/01/31 09:46:15.9	114.430	-0.100	-0.240	1.850
2020/01/31 09:46:16.0	114.440	-0.080	-0.260	1.840
2020/01/31 09:46:16.1	114.450	-0.060	-0.290	1.830
2020/01/31 09:46:16.2	114.450	-0.040	-0.310	1.820
2020/01/31 09:46:16.3	114.460	-0.010	-0.330	1.810
2020/01/31 09:46:16.4	114.470	0.010	-0.350	1.800
2020/01/31 09:46:16.5	114.480	0.040	-0.370	1.790
2020/01/31 09:46:16.6	114.480	0.060	-0.390	1.770
2020/01/31 09:46:16.7	114.480	0.090	-0.410	1.760
2020/01/31 09:46:16.8	114.480	0.110	-0.430	1.740
2020/01/31 09:46:16.9	114.480	0.140	-0.440	1.730
2020/01/31 09:46:17.0	114.480	0.160	-0.460	1.710
2020/01/31 09:46:17.1	114.480	0.190	-0.470	1.690
2020/01/31 09:46:17.2	114.480	0.220	-0.480	1.670
2020/01/31 09:46:17.3	114.480	0.240	-0.490	1.640
2020/01/31 09:46:17.4	114.460	0.270	-0.500	1.610
2020/01/31 09:46:17.5	114.460	0.300	-0.510	1.590
2020/01/31 09:46:17.6	114.460	0.320	-0.520	1.560
2020/01/31 09:46:17.7	114.450	0.350	-0.530	1.530
2020/01/31 09:46:17.8	114.450	0.370	-0.530	1.500
2020/01/31 09:46:17.9	114.440	0.400	-0.540	1.460
2020/01/31 09:46:18.0	114.440	0.420	-0.540	1.430
2020/01/31 09:46:18.1	114.440	0.440	-0.540	1.390
2020/01/31 09:46:18.2	114.440	0.470	-0.540	1.350
2020/01/31 09:46:18.3	114.430	0.490	-0.540	1.310
2020/01/31 09:46:18.4	114.430	0.510	-0.530	1.270
2020/01/31 09:46:18.5	114.430	0.520	-0.530	1.230
2020/01/31 09:46:18.6	114.430	0.540	-0.520	1.180
2020/01/31 09:46:18.7	114.430	0.550	-0.510	1.140
2020/01/31 09:46:18.8	114.430	0.560	-0.500	1.090
2020/01/31 09:46:18.9	114.420	0.570	-0.490	1.050
2020/01/31 09:46:19.0	114.420	0.580	-0.470	1.000
2020/01/31 09:46:19.1	114.420	0.580	-0.450	0.960
2020/01/31 09:46:19.2	114.420	0.590	-0.430	0.910
2020/01/31 09:46:19.3	114.420	0.590	-0.410	0.870
2020/01/31 09:46:19.4	114.420	0.580	-0.390	0.820
2020/01/31 09:46:19.5	114.420	0.580	-0.360	0.780
2020/01/31 09:46:19.6	114.420	0.570	-0.330	0.730
2020/01/31 09:46:19.7	114.420	0.550	-0.300	0.690
2020/01/31 09:46:19.8	114.420	0.540	-0.260	0.650
2020/01/31 09:46:19.9	114.430	0.520	-0.230	0.620
2020/01/31 09:46:20.0	114.430	0.500	-0.190	0.580
2020/01/31 09:46:20.1	114.430	0.480	-0.150	0.550
2020/01/31 09:46:20.2	114.430	0.450	-0.110	0.510
2020/01/31 09:46:20.3	114.430	0.420	-0.070	0.490
2020/01/31 09:46:20.4	114.420	0.390	-0.030	0.460
2020/01/31 09:46:20.5	114.420	0.360	0.010	0.430
2020/01/31 09:46:20.6	114.420	0.320	0.050	0.420
2020/01/31 09:46:20.7	114.430	0.290	0.090	0.400
2020/01/31 09:46:20.8	114.430	0.250	0.130	0.390
2020/01/31 09:46:20.9	114.430	0.210	0.160	0.380
2020/01/31 09:46:21.0	114.430	0.160	0.200	0.380
2020/01/31 09:46:21.1	114.430	0.120	0.230	0.380
2020/01/31 09:46:21.2	114.440	0.080	0.260	0.380
2020/01/31 09:46:21.3	114.440	0.030	0.290	0.380
2020/01/31 09:46:21.4	114.430	-0.010	0.320	0.390
2020/01/31 09:46:21.5	114.430	-0.060	0.340	0.400
2020/01/31 09:46:21.6	114.440	-0.100	0.360	0.410
2020/01/31 09:46:21.7	114.440	-0.150	0.380	0.420
2020/01/31 09:46:21.8	114.440	-0.190	0.400	0.430
2020/01/31 09:46:21.9	114.450	-0.230	0.410	0.450
2020/01/31 09:46:22.0	114.450	-0.270	0.420	0.470
2020/01/31 09:46:22.1	114.460	-0.310	0.420	0.480
2020/01/31 09:46:22.2	114.460	-0.350	0.420	0.500
2020/01/31 09:46:22.3	114.470	-0.390	0.420	0.520
2020/01/31 09:46:22.4	114.460	-0.420	0.420	0.540
2020/01/31 09:46:22.5	114.470	-0.450	0.410	0.560
2020/01/31 09:46:22.6	114.470	-0.480	0.390	0.580
2020/01/31 09:46:22.7	114.470	-0.510	0.370	0.600
2020/01/31 09:46:22.8	114.470	-0.530	0.350	0.630
2020/01/31 09:46:22.9	114.480	-0.550	0.320	0.650
2020/01/31 09:46:23.0	114.480	-0.560	0.290	0.670
2020/01/31 09:46:23.1	114.480	-0.580	0.260	0.700
2020/01/31 09:46:23.2	114.480	-0.580	0.220	0.720
2020/01/31 09:46:23.3	114.470	-0.590	0.180	0.750
2020/01/31 09:46:23.4	114.460	-0.590	0.140	0.770
2020/01/31 09:46:23.5	114.450	-0.590	0.090	0.800
2020/01/31 09:46:23.6	114.450	-0.590	0.040	0.830
2020/01/31 09:46:23.7	114.440	-0.580	-0.010	0.860
2020/01/31 09:46:23.8	114.430	-0.560	-0.060	0.880
2020/01/31 09:46:23.9	114.420	-0.550	-0.120	0.910
2020/01/31 09:46:24.0	114.410	-0.530	-0.170	0.940
2020/01/31 09:46:24.1	114.400	-0.510	-0.220	0.970
2020/01/31 09:46:24.2	114.380	-0.490	-0.280	1.000
2020/01/31 09:46:24.3	114.370	-0.460	-0.330	1.020
2020/01/31 09:46:24.4	114.340	-0.430	-0.390	1.050
2020/01/31 09:46:24.5	114.320	-0.400	-0.440	1.080
2020/01/31 09:46:24.6	114.300	-0.370	-0.490	1.110
2020/01/31 09:46:24.7	114.290	-0.340	-0.540	1.140
2020/01/31 09:46:24.8	114.270	-0.310	-0.580	1.160
2020/01/31 09:46:24.9	114.250	-0.270	-0.630	1.190
2020/01/31 09:46:25.0	114.240	-0.240	-0.660	1.210
2020/01/31 09:46:25.1	114.220	-0.200	-0.700	1.230
2020/01/31 09:46:25.2	114.200	-0.170	-0.730	1.250
2020/01/31 09:46:25.3	114.190	-0.130	-0.750	1.270
2020/01/31 09:46:25.4	114.190	-0.100	-0.770	1.280
2020/01/31 09:46:25.5	114.180	-0.070	-0.790	1.300
2020/01/31 09:46:25.6	114.170	-0.040	-0.800	1.310
2020/01/31 09:46:25.7	114.160	-0.010	-0.810	1.330
2020/01/31 09:46:25.8	114.150	0.020	-0.810	1.340
2020/01/31 09:46:25.9	114.150	0.050	-0.810	1.350
2020/01/31 09:46:26.0	114.150	0.070	-0.800	1.360
2020/01/31 09:46:26.1	114.150	0.100	-0.790	1.360
2020/01/31 09:46:26.2	114.160	0.120	-0.770	1.370
2020/01/31 09:46:26.3	114.160	0.140	-0.750	1.370
2020/01/31 09:46:26.4	114.170	0.150	-0.730	1.380
2020/01/31 09:46:26.5	114.180	0.170	-0.700	1.380
2020/01/31 09:46:26.6	114.190	0.180	-0.670	1.380
2020/01/31 09:46:26.7	114.200	0.190	-0.640	1.380
2020/01/31 09:46:26.8	114.210	0.190	-0.600	1.380
2020/01/31 09:46:26.9	114.230	0.200	-0.560	1.370
2020/01/31 09:46:27.0	114.240	0.200	-0.520	1.370
2020/01/31 09:46:27.1	114.260	0.200	-0.480	1.360
2020/01/31 09:46:27.2	114.270	0.200	-0.430	1.350
2020/01/31 09:46:27.3	114.290	0.190	-0.390	1.340
2020/01/31 09:46:27.4	114.320	0.190	-0.340	1.330
2020/01/31 09:46:27.5	114.340	0.180	-0.300	1.320
2020/01/31 09:46:27.6	114.350	0.170	-0.250	1.310
2020/01/31 09:46:27.7	114.370	0.160	-0.210	1.290
2020/01/31 09:46:27.8	114.390	0.140	-0.170	1.270
2020/01/31 09:46:27.9	114.400	0.130	-0.120	1.250
2020/01/31 09:46:28.0	114.420	0.110	-0.080	1.230
2020/01/31 09:46:28.1	114.440	0.100	-0.040	1.200
2020/01/31 09:46:28.2	114.460	0.080	-0.010	1.180
2020/01/31 09:46:28.3	114.470	0.060	0.030	1.150
2020/01/31 09:46:28.4	114.500	0.040	0.060	1.110
2020/01/31 09:46:28.5	114.510	0.020	0.090	1.080
2020/01/31 09:46:28.6	114.530	0.000	0.120	1.040
2020/01/31 09:46:28.7	114.550	-0.010	0.150	1.000
2020/01/31 09:46:28.8	114.560	-0.030	0.170	0.960
2020/01/31 09:46:28.9	114.580	-0.050	0.200	0.920
2020/01/31 09:46:29.0	114.600	-0.070	0.220	0.880
2020/01/31 09:46:29.1	114.620	-0.090	0.240	0.830
2020/01/31 09:46:29.2	114.640	-0.110	0.250	0.790
2020/01/31 09:46:29.3	114.650	-0.120	0.270	0.740
2020/01/31 09:46:29.4	114.670	-0.140	0.280	0.700
2020/01/31 09:46:29.5	114.690	-0.150	0.300	0.660
2020/01/31 09:46:29.6	114.700	-0.170	0.310	0.610
2020/01/31 09:46:29.7	114.720	-0.180	0.320	0.570
2020/01/31 09:46:29.8	114.730	-0.190	0.320	0.530
2020/01/31 09:46:29.9	114.740	-0.200	0.330	0.500
2020/01/31 09:46:30.0	114.750	-0.210	0.330	0.470
2020/01/31 09:46:30.1	114.760	-0.220	0.330	0.430
2020/01/31 09:46:30.2	114.770	-0.220	0.330	0.410
2020/01/31 09:46:30.3	114.780	-0.230	0.330	0.380
2020/01/31 09:46:30.4	114.770	-0.230	0.330	0.360
2020/01/31 09:46:30.5	114.770	-0.230	0.320	0.340
2020/01/31 09:46:30.6	114.770	-0.230	0.310	0.330
2020/01/31 09:46:30.7	114.770	-0.220	0.300	0.320
2020/01/31 09:46:30.8	114.770	-0.220	0.290	0.310
2020/01/31 09:46:30.9	114.760	-0.210	0.270	0.310
2020/01/31 09:46:31.0	114.750	-0.200	0.250	0.310
2020/01/31 09:46:31.1	114.740	-0.190	0.230	0.310
2020/01/31 09:46:31.2	114.730	-0.170	0.200	0.310
2020/01/31 09:46:31.3	114.720	-0.160	0.170	0.320
2020/01/31 09:46:31.4	114.690	-0.140	0.140	0.330
2020/01/31 09:46:31.5	114.670	-0.120	0.110	0.340
2020/01/31 09:46:31.6	114.660	-0.100	0.070	0.350
2020/01/31 09:46:31.7	114.640	-0.070	0.030	0.370
2020/01/31 09:46:31.8	114.620	-0.040	-0.010	0.380
2020/01/31 09:46:31.9	114.600	-0.020	-0.060	0.400
2020/01/31 09:46:32.0	114.580	0.010	-0.110	0.410
2020/01/31 09:46:32.1	114.560	0.040	-0.160	0.430
2020/01/31 09:46:32.2	114.540	0.080	-0.210	0.440
2020/01/31 09:46:32.3	114.520	0.110	-0.270	0.460
2020/01/31 09:46:32.4	114.500	0.140	-0.320	0.480
2020/01/31 09:46:32.5	114.480	0.180	-0.380	0.490
2020/01/31 09:46:32.6	114.460	0.210	-0.440	0.500
2020/01/31 09:46:32.7	114.440	0.250	-0.490	0.510
2020/01/31 09:46:32.8	114.420	0.280	-0.550	0.530
2020/01/31 09:46:32.9	114.410	0.320	-0.600	0.540
2020/01/31 09:46:33.0	114.390	0.350	-0.660	0.540
2020/01/31 09:46:33.1	114.380	0.390	-0.710	0.550
2020/01/31 09:46:33.2	114.360	0.420	-0.760	0.560
2020/01/31 09:46:33.3	114.350	0.450	-0.800	0.560
2020/01/31 09:46:33.4	114.340	0.480	-0.840	0.570
2020/01/31 09:46:33.5	114.330	0.500	-0.880	0.570
2020/01/31 09:46:33.6	114.320	0.530	-0.910	0.580
2020/01/31 09:46:33.7	114.320	0.550	-0.940	0.580
2020/01/31 09:46:33.8	114.320	0.570	-0.950	0.580
2020/01/31 09:46:33.9	114.320	0.580	-0.970	0.580
2020/01/31 09:46:34.0	114.320	0.590	-0.970	0.580
2020/01/31 09:46:34.1	114.320	0.600	-0.970	0.580
2020/01/31 09:46:34.2	114.330	0.600	-0.970	0.580
2020/01/31 09:46:34.3	114.340	0.600	-0.950	0.590
2020/01/31 09:46:34.4	114.360	0.600	-0.930	0.590
2020/01/31 09:46:34.5	114.370	0.590	-0.900	0.590
2020/01/31 09:46:34.6	114.380	0.580	-0.860	0.590
2020/01/31 09:46:34.7	114.390	0.560	-0.820	0.590
2020/01/31 09:46:34.8	114.400	0.540	-0.770	0.590
2020/01/31 09:46:34.9	114.420	0.510	-0.710	0.590
2020/01/31 09:46:35.0	114.440	0.480	-0.650	0.590
2020/01/31 09:46:35.1	114.450	0.450	-0.580	0.590
2020/01/31 09:46:35.2	114.470	0.410	-0.510	0.590
2020/01/31 09:46:35.3	114.490	0.370	-0.430	0.590
2020/01/31 09:46:35.4	114.520	0.330	-0.350	0.590
2020/01/31 09:46:35.5	114.550	0.280	-0.260	0.590
2020/01/31 09:46:35.6	114.570	0.230	-0.180	0.590
2020/01/31 09:46:35.7	114.600	0.180	-0.090	0.590
2020/01/31 09:46:35.8	114.620	0.130	-0.000	0.590
2020/01/31 09:46:35.9	114.650	0.080	0.090	0.590
2020/01/31 09:46:36.0	114.680	0.020	0.170	0.590
2020/01/31 09:46:36.1	114.710	-0.030	0.260	0.580
2020/01/31 09:46:36.2	114.740	-0.090	0.340	0.580
2020/01/31 09:46:36.3	114.770	-0.140	0.420	0.580
2020/01/31 09:46:36.4	114.810	-0.200	0.500	0.580
2020/01/31 09:46:36.5	114.840	-0.250	0.570	0.580
2020/01/31 09:46:36.6	114.870	-0.300	0.640	0.570
2020/01/31 09:46:36.7	114.910	-0.350	0.690	0.570
2020/01/31 09:46:36.8	114.940	-0.400	0.750	0.570
2020/01/31 09:46:36.9	114.980	-0.440	0.800	0.570
2020/01/31 09:46:37.0	115.010	-0.480	0.830	0.570
2020/01/31 09:46:37.1	115.050	-0.520	0.870	0.570
2020/01/31 09:46:37.2	115.090	-0.560	0.890	0.570
2020/01/31 09:46:37.3	115.120	-0.590	0.910	0.570
2020/01/31 09:46:37.4	115.140	-0.610	0.910	0.570
2020/01/31 09:46:37.5	115.170	-0.640	0.910	0.570
2020/01/31 09:46:37.6	115.210	-0.650	0.900	0.580
2020/01/31 09:46:37.7	115.240	-0.670	0.890	0.590
2020/01/31 09:46:37.8	115.270	-0.680	0.860	0.590
2020/01/31 09:46:37.9	115.300	-0.680	0.830	0.600
2020/01/31 09:46:38.0	115.320	-0.680	0.780	0.620
2020/01/31 09:46:38.1	115.350	-0.670	0.730	0.630
2020/01/31 09:46:38.2	115.370	-0.660	0.680	0.650
2020/01/31 09:46:38.3	115.390	-0.650	0.620	0.670
2020/01/31 09:46:38.4	115.410	-0.630	0.550	0.680
2020/01/31 09:46:38.5	115.420	-0.610	0.470	0.710
2020/01/31 09:46:38.6	115.440	-0.580	0.390	0.730
2020/01/31 09:46:38.7	115.450	-0.550	0.310	0.760
2020/01/31 09:46:38.8	115.460	-0.520	0.220	0.790
2020/01/31 09:46:38.9	115.460	-0.480	0.130	0.820
2020/01/31 09:46:39.0	115.470	-0.440	0.040	0.850
2020/01/31 09:46:39.1	115.470	-0.400	-0.060	0.890
2020/01/31 09:46:39.2	115.470	-0.360	-0.150	0.920
2020/01/31 09:46:39.3	115.470	-0.310	-0.250	0.960
2020/01/31 09:46:39.4	115.460	-0.270	-0.350	1.000
2020/01/31 09:46:39.5	115.450	-0.220	-0.440	1.040
2020/01/31 09:46:39.6	115.440	-0.180	-0.530	1.090
2020/01/31 09:46:39.7	115.430	-0.130	-0.620	1.130
2020/01/31 09:46:39.8	115.420	-0.090	-0.700	1.170
2020/01/31 09:46:39.9	115.410	-0.040	-0.780	1.210
2020/01/31 09:46:40.0	115.390	0.000	-0.850	1.260
2020/01/31 09:46:40.1	115.370	0.040	-0.920	1.300
2020/01/31 09:46:40.2	115.350	0.080	-0.990	1.350
2020/01/31 09:46:40.3	115.330	0.110	-1.050	1.390
2020/01/31 09:46:40.4	115.330	0.150	-1.090	1.430
2020/01/31 09:46:40.5	115.300	0.180	-1.140	1.470
2020/01/31 09:46:40.6	115.280	0.210	-1.180	1.520
2020/01/31 09:46:40.7	115.260	0.230	-1.210	1.560
2020/01/31 09:46:40.8	115.240	0.250	-1.240	1.590
2020/01/31 09:46:40.9	115.210	0.270	-1.260	1.630
2020/01/31 09:46:41.0	115.190	0.280	-1.270	1.660
2020/01/31 09:46:41.1	115.170	0.290	-1.270	1.700
2020/01/31 09:46:41.2	115.150	0.300	-1.270	1.720
2020/01/31 09:46:41.3	115.140	0.310	-1.260	1.750
2020/01/31 09:46:41.4	115.140	0.310	-1.250	1.770
2020/01/31 09:46:41.5	115.120	0.300	-1.230	1.800
2020/01/31 09:46:41.6	115.110	0.300	-1.200	1.810
2020/01/31 09:46:41.7	115.100	0.290	-1.170	1.830
2020/01/31 09:46:41.8	115.100	0.280	-1.130	1.840
2020/01/31 09:46:41.9	115.100	0.270	-1.090	1.850
2020/01/31 09:46:42.0	115.100	0.250	-1.040	1.850
2020/01/31 09:46:42.1	115.100	0.240	-0.990	1.850
2020/01/31 09:46:42.2	115.100	0.220	-0.940	1.860
2020/01/31 09:46:42.3	115.110	0.200	-0.880	1.850
2020/01/31 09:46:42.4	115.140	0.180	-0.810	1.850
2020/01/31 09:46:42.5	115.150	0.160	-0.740	1.840
2020/01/31 09:46:42.6	115.160	0.130	-0.670	1.830
2020/01/31 09:46:42.7	115.180	0.110	-0.600	1.810
2020/01/31 09:46:42.8	115.200	0.080	-0.530	1.800
2020/01/31 09:46:42.9	115.220	0.060	-0.450	1.780
2020/01/31 09:46:43.0	115.240	0.030	-0.370	1.760
2020/01/31 09:46:43.1	115.260	0.010	-0.300	1.730
2020/01/31 09:46:43.2	115.280	-0.020	-0.220	1.710
2020/01/31 09:46:43.3	115.310	-0.040	-0.140	1.680
2020/01/31 09:46:43.4	115.330	-0.060	-0.060	1.650
2020/01/31 09:46:43.5	115.350	-0.090	0.020	1.610
2020/01/31 09:46:43.6	115.380	-0.110	0.100	1.580
2020/01/31 09:46:43.7	115.410	-0.130	0.180	1.540
2020/01/31 09:46:43.8	115.440	-0.150	0.260	1.500
2020/01/31 09:46:43.9	115.470	-0.170	0.330	1.450
2020/01/31 09:46:44.0	115.500	-0.190	0.400	1.410
2020/01/31 09:46:44.1	115.530	-0.210	0.470	1.360
2020/01/31 09:46:44.2	115.560	-0.220	0.540	1.310
2020/01/31 09:46:44.3	115.590	-0.240	0.610	1.260
2020/01/31 09:46:44.4	115.630	-0.250	0.670	1.200
2020/01/31 09:46:44.5	115.660	-0.260	0.730	1.140
2020/01/31 09:46:44.6	115.690	-0.280	0.780	1.080
2020/01/31 09:46:44.7	115.720	-0.280	0.830	1.020
2020/01/31 09:46:44.8	115.750	-0.290	0.870	0.960
2020/01/31 09:46:44.9	115.770	-0.300	0.910	0.900
2020/01/31 09:46:45.0	115.800	-0.300	0.940	0.830
2020/01/31 09:46:45.1	115.830	-0.310	0.960	0.760
2020/01/31 09:46:45.2	115.850	-0.310	0.980	0.700
2020/01/31 09:46:45.3	115.870	-0.300	1.000	0.630
2020/01/31 09:46:45.4	115.880	-0.300	1.000	0.560
2020/01/31 09:46:45.5	115.900	-0.300	1.000	0.500
2020/01/31 09:46:45.6	115.920	-0.290	0.990	0.430
2020/01/31 09:46:45.7	115.930	-0.280	0.970	0.370
2020/01/31 09:46:45.8	115.940	-0.260	0.940	0.310
2020/01/31 09:46:45.9	115.950	-0.250	0.910	0.250
2020/01/31 09:46:46.0	115.950	-0.230	0.870	0.190
2020/01/31 09:46:46.1	115.960	-0.210	0.820	0.130
2020/01/31 09:46:46.2	115.960	-0.190	0.770	0.070
2020/01/31 09:46:46.3	115.960	-0.170	0.710	0.010
2020/01/31 09:46:46.4	115.940	-0.140	0.640	-0.040
2020/01/31 09:46:46.5	115.940	-0.110	0.560	-0.090
2020/01/31 09:46:46.6	115.940	-0.080	0.480	-0.150
2020/01/31 09:46:46.7	115.940	-0.050	0.400	-0.200
2020/01/31 09:46:46.8	115.930	-0.010	0.310	-0.250
2020/01/31 09:46:46.9	115.930	0.030	0.210	-0.290
2020/01/31 09:46:47.0	115.930	0.060	0.120	-0.340
2020/01/31 09:46:47.1	115.930	0.100	0.020	-0.390
2020/01/31 09:46:47.2	115.930	0.140	-0.090	-0.430
2020/01/31 09:46:47.3	115.930	0.180	-0.190	-0.480
2020/01/31 09:46:47.4	115.900	0.230	-0.290	-0.520
2020/01/31 09:46:47.5	115.910	0.270	-0.390	-0.560
2020/01/31 09:46:47.6	115.910	0.310	-0.500	-0.600
2020/01/31 09:46:47.7	115.910	0.350	-0.590	-0.640
2020/01/31 09:46:47.8	115.920	0.390	-0.690	-0.670
2020/01/31 09:46:47.9	115.930	0.430	-0.780	-0.700
2020/01/31 09:46:48.0	115.930	0.470	-0.870	-0.730
2020/01/31 09:46:48.1	115.940	0.500	-0.950	-0.760
2020/01/31 09:46:48.2	115.950	0.540	-1.030	-0.780
2020/01/31 09:46:48.3	115.970	0.570	-1.090	-0.800
2020/01/31 09:46:48.4	115.980	0.600	-1.150	-0.810
2020/01/31 09:46:48.5	116.000	0.620	-1.210	-0.820
2020/01/31 09:46:48.6	116.010	0.650	-1.250	-0.830
2020/01/31 09:46:48.7	116.020	0.670	-1.290	-0.830
2020/01/31 09:46:48.8	116.040	0.680	-1.310	-0.820
2020/01/31 09:46:48.9	116.050	0.690	-1.330	-0.810
2020/01/31 09:46:49.0	116.060	0.700	-1.340	-0.790
2020/01/31 09:46:49.1	116.080	0.710	-1.340	-0.770
2020/01/31 09:46:49.2	116.090	0.710	-1.330	-0.740
2020/01/31 09:46:49.3	116.100	0.710	-1.310	-0.700
2020/01/31 09:46:49.4	116.110	0.700	-1.280	-0.660
2020/01/31 09:46:49.5	116.120	0.690	-1.250	-0.610
2020/01/31 09:46:49.6	116.130	0.670	-1.210	-0.560
2020/01/31 09:46:49.7	116.140	0.660	-1.160	-0.510
2020/01/31 09:46:49.8	116.140	0.630	-1.100	-0.440
2020/01/31 09:46:49.9	116.150	0.610	-1.040	-0.380
2020/01/31 09:46:50.0	116.160	0.580	-0.970	-0.310
2020/01/31 09:46:50.1	116.160	0.550	-0.900	-0.240
2020/01/31 09:46:50.2	116.160	0.520	-0.820	-0.170
2020/01/31 09:46:50.3	116.170	0.480	-0.740	-0.100
2020/01/31 09:46:50.4	116.170	0.440	-0.660	-0.020
2020/01/31 09:46:50.5	116.180	0.400	-0.570	0.060
2020/01/31 09:46:50.6	116.180	0.360	-0.490	0.130
2020/01/31 09:46:50.7	116.180	0.310	-0.400	0.210
2020/01/31 09:46:50.8	116.180	0.270	-0.310	0.290
2020/01/31 09:46:50.9	116.180	0.220	-0.230	0.370
2020/01/31 09:46:51.0	116.180	0.170	-0.150	0.450
2020/01/31 09:46:51.1	116.180	0.120	-0.070	0.520
2020/01/31 09:46:51.2	116.170	0.070	0.010	0.600
2020/01/31 09:46:51.3	116.170	0.020	0.090	0.680
2020/01/31 09:46:51.4	116.170	-0.020	0.160	0.750
2020/01/31 09:46:51.5	116.160	-0.070	0.230	0.830
2020/01/31 09:46:51.6	116.160	-0.120	0.290	0.900
2020/01/31 09:46:51.7	116.150	-0.160	0.350	0.980
2020/01/31 09:46:51.8	116.140	-0.210	0.400	1.050
2020/01/31 09:46:51.9	116.130	-0.250	0.440	1.120
2020/01/31 09:46:52.0	116.120	-0.290	0.480	1.200
2020/01/31 09:46:52.1	116.110	-0.330	0.520	1.270
2020/01/31 09:46:52.2	116.100	-0.370	0.550	1.340
2020/01/31 09:46:52.3	116.090	-0.410	0.570	1.410
2020/01/31 09:46:52.4	116.070	-0.440	0.590	1.480
2020/01/31 09:46:52.5	116.050	-0.470	0.600	1.550
2020/01/31 09:46:52.6	116.040	-0.500	0.610	1.620
2020/01/31 09:46:52.7	116.020	-0.520	0.610	1.690
2020/01/31 09:46:52.8	116.010	-0.540	0.610	1.750
2020/01/31 09:46:52.9	116.000	-0.560	0.600	1.820
2020/01/31 09:46:53.0	115.980	-0.580	0.590	1.880
2020/01/31 09:46:53.1	115.970	-0.590	0.570	1.940
2020/01/31 09:46:53.2	115.950	-0.610	0.550	2.000
2020/01/31 09:46:53.3	115.940	-0.610	0.520	2.060
2020/01/31 09:46:53.4	115.950	-0.620	0.500	2.120
2020/01/31 09:46:53.5	115.940	-0.620	0.460	2.170
2020/01/31 09:46:53.6	115.930	-0.630	0.430	2.220
2020/01/31 09:46:53.7	115.920	-0.620	0.390	2.270
2020/01/31 09:46:53.8	115.910	-0.620	0.340	2.320
2020/01/31 09:46:53.9	115.910	-0.620	0.300	2.360
2020/01/31 09:46:54.0	115.910	-0.610	0.250	2.400
2020/01/31 09:46:54.1	115.910	-0.600	0.200	2.440
2020/01/31 09:46:54.2	115.910	-0.590	0.150	2.480
2020/01/31 09:46:54.3	115.910	-0.580	0.100	2.510
2020/01/31 09:46:54.4	115.930	-0.560	0.050	2.540
2020/01/31 09:46:54.5	115.930	-0.550	-0.000	2.570
2020/01/31 09:46:54.6	115.930	-0.530	-0.060	2.590
2020/01/31 09:46:54.7	115.940	-0.510	-0.110	2.610
2020/01/31 09:46:54.8	115.950	-0.500	-0.160	2.630
2020/01/31 09:46:54.9	115.950	-0.480	-0.210	2.650
2020/01/31 09:46:55.0	115.960	-0.460	-0.260	2.660
2020/01/31 09:46:55.1	115.970	-0.440	-0.300	2.670
2020/01/31 09:46:55.2	115.980	-0.420	-0.350	2.680
2020/01/31 09:46:55.3	115.990	-0.410	-0.390	2.690
2020/01/31 09:46:55.4	116.010	-0.390	-0.420	2.690
2020/01/31 09:46:55.5	116.020	-0.370	-0.460	2.690
2020/01/31 09:46:55.6	116.030	-0.360	-0.490	2.690
2020/01/31 09:46:55.7	116.040	-0.340	-0.520	2.690
2020/01/31 09:46:55.8	116.050	-0.320	-0.540	2.680
2020/01/31 09:46:55.9	116.060	-0.310	-0.560	2.670
2020/01/31 09:46:56.0	116.060	-0.300	-0.580	2.660
2020/01/31 09:46:56.1	116.070	-0.280	-0.590	2.640
2020/01/31 09:46:56.2	116.080	-0.270	-0.600	2.620
2020/01/31 09:46:56.3	116.090	-0.260	-0.600	2.600
2020/01/31 09:46:56.4	116.110	-0.250	-0.600	2.580
2020/01/31 09:46:56.5	116.110	-0.240	-0.590	2.550
2020/01/31 09:46:56.6	116.120	-0.230	-0.580	2.520
2020/01/31 09:46:56.7	116.130	-0.230	-0.570	2.480
2020/01/31 09:46:56.8	116.130	-0.220	-0.550	2.440
2020/01/31 09:46:56.9	116.140	-0.210	-0.530	2.400
2020/01/31 09:46:57.0	116.140	-0.200	-0.500	2.350
2020/01/31 09:46:57.1	116.150	-0.200	-0.480	2.300
2020/01/31 09:46:57.2	116.150	-0.190	-0.450	2.240
2020/01/31 09:46:57.3	116.150	-0.180	-0.420	2.180
2020/01/31 09:46:57.4	116.160	-0.180	-0.380	2.120
2020/01/31 09:46:57.5	116.170	-0.170	-0.350	2.050
2020/01/31 09:46:57.6	116.170	-0.160	-0.310	1.980
2020/01/31 09:46:57.7	116.180	-0.150	-0.280	1.910
2020/01/31 09:46:57.8	116.180	-0.140	-0.240	1.830
2020/01/31 09:46:57.9	116.180	-0.130	-0.210	1.750
2020/01/31 09:46:58.0	116.180	-0.110	-0.180	1.670
2020/01/31 09:46:58.1	116.180	-0.100	-0.150	1.590
2020/01/31 09:46:58.2	116.180	-0.080	-0.120	1.500
2020/01/31 09:46:58.3	116.180	-0.060	-0.100	1.420
2020/01/31 09:46:58.4	116.180	-0.040	-0.080	1.320
2020/01/31 09:46:58.5	116.170	-0.020	-0.060	1.230
2020/01/31 09:46:58.6	116.170	0.010	-0.050	1.140
2020/01/31 09:46:58.7	116.160	0.030	-0.040	1.050
2020/01/31 09:46:58.8	116.160	0.060	-0.030	0.960
2020/01/31 09:46:58.9	116.150	0.090	-0.030	0.870
2020/01/31 09:46:59.0	116.140	0.130	-0.030	0.780
2020/01/31 09:46:59.1	116.130	0.160	-0.040	0.690
2020/01/31 09:46:59.2	116.120	0.200	-0.050	0.600
2020/01/31 09:46:59.3	116.110	0.230	-0.060	0.510
2020/01/31 09:46:59.4	116.080	0.270	-0.080	0.420
2020/01/31 09:46:59.5	116.070	0.310	-0.100	0.330
2020/01/31 09:46:59.6	116.050	0.350	-0.120	0.250
2020/01/31 09:46:59.7	116.040	0.390	-0.150	0.160
2020/01/31 09:46:59.8	116.020	0.430	-0.170	0.080
2020/01/31 09:46:59.9	116.010	0.470	-0.200	0.000
2020/01/31 09:47:00.0	115.990	0.510	-0.230	-0.080
2020/01/31 09:47:00.1	115.970	0.550	-0.260	-0.150
2020/01/31 09:47:00.2	115.960	0.580	-0.290	-0.220
2020/01/31 09:47:00.3	115.940	0.620	-0.310	-0.290
2020/01/31 09:47:00.4	115.900	0.650	-0.340	-0.360
2020/01/31 09:47:00.5	115.880	0.680	-0.370	-0.430
2020/01/31 09:47:00.6	115.870	0.710	-0.390	-0.490
2020/01/31 09:47:00.7	115.850	0.740	-0.420	-0.540
2020/01/31 09:47:00.8	115.830	0.760	-0.440	-0.600
2020/01/31 09:47:00.9	115.820	0.780	-0.450	-0.650
2020/01/31 09:47:01.0	115.800	0.800	-0.470	-0.700
2020/01/31 09:47:01.1	115.780	0.820	-0.480	-0.740
2020/01/31 09:47:01.2	115.760	0.830	-0.490	-0.780
2020/01/31 09:47:01.3	115.750	0.830	-0.490	-0.820
2020/01/31 09:47:01.4	115.720	0.840	-0.490	-0.850
2020/01/31 09:47:01.5	115.710	0.840	-0.480	-0.880
2020/01/31 09:47:01.6	115.690	0.830	-0.470	-0.910
2020/01/31 09:47:01.7	115.680	0.830	-0.460	-0.940
2020/01/31 09:47:01.8	115.660	0.820	-0.440	-0.970
2020/01/31 09:47:01.9	115.650	0.800	-0.410	-0.990
2020/01/31 09:47:02.0	115.640	0.780	-0.390	-1.010
2020/01/31 09:47:02.1	115.630	0.760	-0.350	-1.030
2020/01/31 09:47:02.2	115.620	0.730	-0.320	-1.050
2020/01/31 09:47:02.3	115.620	0.710	-0.280	-1.060
2020/01/31 09:47:02.4	115.600	0.670	-0.230	-1.070
2020/01/31 09:47:02.5	115.600	0.640	-0.190	-1.090
2020/01/31 09:47:02.6	115.600	0.600	-0.140	-1.090
2020/01/31 09:47:02.7	115.600	0.560	-0.090	-1.100
2020/01/31 09:47:02.8	115.600	0.520	-0.040	-1.100
2020/01/31 09:47:02.9	115.600	0.480	0.020	-1.100
2020/01/31 09:47:03.0	115.610	0.430	0.070	-1.100
2020/01/31 09:47:03.1	115.610	0.380	0.120	-1.090
2020/01/31 09:47:03.2	115.620	0.330	0.170	-1.080
2020/01/31 09:47:03.3	115.620	0.280	0.220	-1.070
2020/01/31 09:47:03.4	115.640	0.230	0.260	-1.050
2020/01/31 09:47:03.5	115.650	0.180	0.310	-1.030
2020/01/31 09:47:03.6	115.660	0.130	0.350	-1.010
2020/01/31 09:47:03.7	115.660	0.080	0.380	-0.980
2020/01/31 09:47:03.8	115.670	0.030	0.410	-0.950
2020/01/31 09:47:03.9	115.680	-0.010	0.440	-0.910
2020/01/31 09:47:04.0	115.690	-0.060	0.460	-0.870
2020/01/31 09:47:04.1	115.690	-0.110	0.480	-0.830
2020/01/31 09:47:04.2	115.700	-0.150	0.490	-0.780
2020/01/31 09:47:04.3	115.710	-0.200	0.490	-0.730
2020/01/31 09:47:04.4	115.700	-0.240	0.490	-0.670
2020/01/31 09:47:04.5	115.710	-0.270	0.480	-0.610
2020/01/31 09:47:04.6	115.710	-0.310	0.470	-0.550
2020/01/31 09:47:04.7	115.720	-0.340	0.450	-0.480
2020/01/31 09:47:04.8	115.720	-0.370	0.420	-0.400
2020/01/31 09:47:04.9	115.720	-0.400	0.390	-0.320
2020/01/31 09:47:05.0	115.720	-0.430	0.350	-0.240
2020/01/31 09:47:05.1	115.720	-0.450	0.310	-0.150
2020/01/31 09:47:05.2	115.710	-0.470	0.260	-0.060
2020/01/31 09:47:05.3	115.710	-0.480	0.210	0.040
2020/01/31 09:47:05.4	115.710	-0.500	0.160	0.140
2020/01/31 09:47:05.5	115.700	-0.510	0.100	0.250
2020/01/31 09:47:05.6	115.690	-0.510	0.030	0.360
2020/01/31 09:47:05.7	115.680	-0.520	-0.030	0.470
2020/01/31 09:47:05.8	115.670	-0.520	-0.100	0.580
2020/01/31 09:47:05.9	115.660	-0.520	-0.160	0.690
2020/01/31 09:47:06.0	115.650	-0.520	-0.230	0.810
2020/01/31 09:47:06.1	115.640	-0.510	-0.300	0.930
2020/01/31 09:47:06.2	115.620	-0.500	-0.360	1.050
2020/01/31 09:47:06.3	115.610	-0.490	-0.420	1.170
2020/01/31 09:47:06.4	115.600	-0.480	-0.480	1.300
2020/01/31 09:47:06.5	115.590	-0.470	-0.540	1.420
2020/01/31 09:47:06.6	115.570	-0.450	-0.590	1.540
2020/01/31 09:47:06.7	115.560	-0.440	-0.640	1.660
2020/01/31 09:47:06.8	115.540	-0.420	-0.690	1.780
2020/01/31 09:47:06.9	115.530	-0.410	-0.730	1.890
2020/01/31 09:47:07.0	115.510	-0.390	-0.760	2.010
2020/01/31 09:47:07.1	115.500	-0.370	-0.790	2.120
2020/01/31 09:47:07.2	115.490	-0.350	-0.810	2.230
2020/01/31 09:47:07.3	115.480	-0.330	-0.830	2.330
2020/01/31 09:47:07.4	115.480	-0.320	-0.840	2.430
2020/01/31 09:47:07.5	115.480	-0.300	-0.840	2.520
2020/01/31 09:47:07.6	115.470	-0.280	-0.840	2.610
2020/01/31 09:47:07.7	115.470	-0.260	-0.830	2.700
2020/01/31 09:47:07.8	115.470	-0.250	-0.820	2.780
2020/01/31 09:47:07.9	115.470	-0.230	-0.800	2.860
2020/01/31 09:47:08.0	115.480	-0.220	-0.780	2.930
2020/01/31 09:47:08.1	115.480	-0.210	-0.750	2.990
2020/01/31 09:47:08.2	115.490	-0.200	-0.720	3.050
2020/01/31 09:47:08.3	115.500	-0.180	-0.690	3.100
2020/01/31 09:47:08.4	115.530	-0.180	-0.650	3.150
2020/01/31 09:47:08.5	115.550	-0.170	-0.610	3.190
2020/01/31 09:47:08.6	115.570	-0.160	-0.560	3.230
2020/01/31 09:47:08.7	115.590	-0.150	-0.510	3.250
2020/01/31 09:47:08.8	115.610	-0.150	-0.460	3.280
2020/01/31 09:47:08.9	115.630	-0.140	-0.410	3.300
2020/01/31 09:47:09.0	115.650	-0.140	-0.360	3.310
2020/01/31 09:47:09.1	115.670	-0.140	-0.310	3.320
2020/01/31 09:47:09.2	115.690	-0.140	-0.260	3.320
2020/01/31 09:47:09.3	115.710	-0.140	-0.210	3.310
2020/01/31 09:47:09.4	115.740	-0.140	-0.160	3.300
2020/01/31 09:47:09.5	115.760	-0.140	-0.120	3.290
2020/01/31 09:47:09.6	115.780	-0.140	-0.070	3.270
2020/01/31 09:47:09.7	115.790	-0.140	-0.030	3.250
2020/01/31 09:47:09.8	115.800	-0.140	0.010	3.220
2020/01/31 09:47:09.9	115.810	-0.140	0.050	3.190
2020/01/31 09:47:10.0	115.820	-0.140	0.080	3.160
2020/01/31 09:47:10.1	115.820	-0.140	0.110	3.120
2020/01/31 09:47:10.2	115.820	-0.140	0.140	3.070
2020/01/31 09:47:10.3	115.820	-0.130	0.160	3.030
2020/01/31 09:47:10.4	115.820	-0.130	0.180	2.970
2020/01/31 09:47:10.5	115.820	-0.130	0.200	2.910
2020/01/31 09:47:10.6	115.810	-0.130	0.210	2.850
2020/01/31 09:47:10.7	115.800	-0.120	0.220	2.780
2020/01/31 09:47:10.8	115.780	-0.120	0.230	2.710
2020/01/31 09:47:10.9	115.770	-0.110	0.230	2.630
2020/01/31 09:47:11.0	115.750	-0.110	0.230	2.550
2020/01/31 09:47:11.1	115.740	-0.100	0.230	2.470
2020/01/31 09:47:11.2	115.720	-0.090	0.220	2.370
2020/01/31 09:47:11.3	115.700	-0.080	0.220	2.280
2020/01/31 09:47:11.4	115.680	-0.080	0.210	2.170
2020/01/31 09:47:11.5	115.660	-0.070	0.200	2.070
2020/01/31 09:47:11.6	115.650	-0.060	0.190	1.960
2020/01/31 09:47:11.7	115.630	-0.050	0.180	1.840
2020/01/31 09:47:11.8	115.620	-0.040	0.160	1.730
2020/01/31 09:47:11.9	115.600	-0.030	0.150	1.610
2020/01/31 09:47:12.0	115.590	-0.020	0.130	1.480
2020/01/31 09:47:12.1	115.580	-0.010	0.120	1.360
2020/01/31 09:47:12.2	115.570	-0.000	0.100	1.230
2020/01/31 09:47:12.3	115.570	0.010	0.090	1.090
2020/01/31 09:47:12.4	115.580	0.020	0.070	0.950
2020/01/31 09:47:12.5	115.570	0.030	0.060	0.820
2020/01/31 09:47:12.6	115.570	0.030	0.040	0.680
2020/01/31 09:47:12.7	115.570	0.040	0.030	0.540
2020/01/31 09:47:12.8	115.580	0.050	0.020	0.390
2020/01/31 09:47:12.9	115.580	0.060	0.000	0.250
2020/01/31 09:47:13.0	115.590	0.070	-0.010	0.110
2020/01/31 09:47:13.1	115.590	0.070	-0.030	-0.030
2020/01/31 09:47:13.2	115.600	0.080	-0.040	-0.170
2020/01/31 09:47:13.3	115.610	0.090	-0.050	-0.310
2020/01/31 09:47:13.4	115.600	0.090	-0.070	-0.450
2020/01/31 09:47:13.5	115.610	0.100	-0.080	-0.590
2020/01/31 09:47:13.6	115.620	0.110	-0.100	-0.720
2020/01/31 09:47:13.7	115.630	0.110	-0.110	-0.850
2020/01/31 09:47:13.8	115.640	0.120	-0.130	-0.970
2020/01/31 09:47:13.9	115.650	0.130	-0.140	-1.090
2020/01/31 09:47:14.0	115.660	0.130	-0.160	-1.210
2020/01/31 09:47:14.1	115.660	0.140	-0.180	-1.310
2020/01/31 09:47:14.2	115.670	0.140	-0.200	-1.420
2020/01/31 09:47:14.3	115.680	0.150	-0.220	-1.520
2020/01/31 09:47:14.4	115.670	0.150	-0.230	-1.610
2020/01/31 09:47:14.5	115.670	0.160	-0.250	-1.700
2020/01/31 09:47:14.6	115.680	0.170	-0.270	-1.780
2020/01/31 09:47:14.7	115.680	0.170	-0.290	-1.860
2020/01/31 09:47:14.8	115.690	0.180	-0.310	-1.930
2020/01/31 09:47:14.9	115.690	0.190	-0.330	-2.000
2020/01/31 09:47:15.0	115.700	0.190	-0.350	-2.060
2020/01/31 09:47:15.1	115.700	0.200	-0.370	-2.110
2020/01/31 09:47:15.2	115.710	0.200	-0.390	-2.160
2020/01/31 09:47:15.3	115.710	0.210	-0.410	-2.210
2020/01/31 09:47:15.4	115.700	0.220	-0.420	-2.250
2020/01/31 09:47:15.5	115.710	0.220	-0.440	-2.280
2020/01/31 09:47:15.6	115.710	0.230	-0.450	-2.310
2020/01/31 09:47:15.7	115.720	0.230	-0.460	-2.340
2020/01/31 09:47:15.8	115.720	0.240	-0.470	-2.350
2020/01/31 09:47:15.9	115.730	0.240	-0.480	-2.370
2020/01/31 09:47:16.0	115.730	0.240	-0.490	-2.380
2020/01/31 09:47:16.1	115.740	0.250	-0.500	-2.380
2020/01/31 09:47:16.2	115.740	0.250	-0.500	-2.370
2020/01/31 09:47:16.3	115.750	0.250	-0.500	-2.360
2020/01/31 09:47:16.4	115.750	0.260	-0.500	-2.350
2020/01/31 09:47:16.5	115.750	0.260	-0.500	-2.320
2020/01/31 09:47:16.6	115.750	0.260	-0.490	-2.290
2020/01/31 09:47:16.7	115.760	0.260	-0.490	-2.260
2020/01/31 09:47:16.8	115.760	0.260	-0.480	-2.220
2020/01/31 09:47:16.9	115.760	0.260	-0.470	-2.170
2020/01/31 09:47:17.0	115.760	0.260	-0.470	-2.110
2020/01/31 09:47:17.1	115.760	0.260	-0.460	-2.050
2020/01/31 09:47:17.2	115.750	0.260	-0.450	-1.980
2020/01/31 09:47:17.3	115.750	0.250	-0.440	-1.900
2020/01/31 09:47:17.4	115.750	0.250	-0.420	-1.820
2020/01/31 09:47:17.5	115.740	0.250	-0.410	-1.730
2020/01/31 09:47:17.6	115.730	0.240	-0.400	-1.640
2020/01/31 09:47:17.7	115.720	0.240	-0.390	-1.540
2020/01/31 09:47:17.8	115.710	0.230	-0.370	-1.440
2020/01/31 09:47:17.9	115.700	0.230	-0.360	-1.330
2020/01/31 09:47:18.0	115.690	0.220	-0.350	-1.220
2020/01/31 09:47:18.1	115.680	0.210	-0.340	-1.100
2020/01/31 09:47:18.2	115.670	0.210	-0.320	-0.990
2020/01/31 09:47:18.3	115.660	0.200	-0.310	-0.870
2020/01/31 09:47:18.4	115.660	0.190	-0.290	-0.740
2020/01/31 09:47:18.5	115.650	0.180	-0.280	-0.620
2020/01/31 09:47:18.6	115.640	0.170	-0.260	-0.490
2020/01/31 09:47:18.7	115.630	0.160	-0.250	-0.360
2020/01/31 09:47:18.8	115.620	0.150	-0.230	-0.230
2020/01/31 09:47:18.9	115.620	0.130	-0.220	-0.110
2020/01/31 09:47:19.0	115.610	0.120	-0.200	0.020
2020/01/31 09:47:19.1	115.610	0.110	-0.190	0.150
2020/01/31 09:47:19.2	115.600	0.100	-0.170	0.280
2020/01/31 09:47:19.3	115.600	0.080	-0.150	0.420
2020/01/31 09:47:19.4	115.600	0.070	-0.130	0.550
2020/01/31 09:47:19.5	115.600	0.050	-0.110	0.680
2020/01/31 09:47:19.6	115.600	0.040	-0.090	0.810
2020/01/31 09:47:19.7	115.610	0.020	-0.080	0.940
2020/01/31 09:47:19.8	115.610	0.010	-0.060	1.070
2020/01/31 09:47:19.9	115.620	-0.010	-0.040	1.190
2020/01/31 09:47:20.0	115.630	-0.030	-0.030	1.320
2020/01/31 09:47:20.1	115.640	-0.040	-0.010	1.440
2020/01/31 09:47:20.2	115.650	-0.060	0.000	1.570
2020/01/31 09:47:20.3	115.660	-0.070	0.010	1.690
2020/01/31 09:47:20.4	115.680	-0.090	0.030	1.810
2020/01/31 09:47:20.5	115.700	-0.110	0.040	1.930
2020/01/31 09:47:20.6	115.720	-0.120	0.050	2.040
2020/01/31 09:47:20.7	115.740	-0.140	0.060	2.160
2020/01/31 09:47:20.8	115.760	-0.160	0.060	2.270
2020/01/31 09:47:20.9	115.780	-0.170	0.070	2.380
2020/01/31 09:47:21.0	115.810	-0.190	0.080	2.480
2020/01/31 09:47:21.1	115.840	-0.200	0.080	2.590
2020/01/31 09:47:21.2	115.860	-0.220	0.080	2.690
2020/01/31 09:47:21.3	115.890	-0.230	0.080	2.780
2020/01/31 09:47:21.4	115.930	-0.250	0.080	2.880
2020/01/31 09:47:21.5	115.960	-0.260	0.080	2.970
2020/01/31 09:47:21.6	115.990	-0.280	0.080	3.050
2020/01/31 09:47:21.7	116.020	-0.290	0.080	3.130
2020/01/31 09:47:21.8	116.060	-0.300	0.080	3.210
2020/01/31 09:47:21.9	116.090	-0.310	0.080	3.280
2020/01/31 09:47:22.0	116.130	-0.320	0.080	3.340
2020/01/31 09:47:22.1	116.170	-0.330	0.080	3.400
2020/01/31 09:47:22.2	116.200	-0.340	0.080	3.460
2020/01/31 09:47:22.3	116.240	-0.350	0.080	3.510
2020/01/31 09:47:22.4	116.270	-0.360	0.080	3.550
2020/01/31 09:47:22.5	116.310	-0.370	0.080	3.590
2020/01/31 09:47:22.6	116.340	-0.370	0.090	3.620
2020/01/31 09:47:22.7	116.370	-0.380	0.090	3.650
2020/01/31 09:47:22.8	116.400	-0.380	0.090	3.670
2020/01/31 09:47:22.9	116.430	-0.380	0.090	3.690
2020/01/31 09:47:23.0	116.450	-0.380	0.090	3.690
2020/01/31 09:47:23.1	116.470	-0.380	0.100	3.700
2020/01/31 09:47:23.2	116.490	-0.380	0.100	3.700
2020/01/31 09:47:23.3	116.510	-0.380	0.100	3.690
2020/01/31 09:47:23.4	116.520	-0.380	0.100	3.680
2020/01/31 09:47:23.5	116.530	-0.370	0.090	3.660
2020/01/31 09:47:23.6	116.540	-0.360	0.090	3.640
2020/01/31 09:47:23.7	116.550	-0.350	0.090	3.610
2020/01/31 09:47:23.8	116.550	-0.340	0.080	3.570
2020/01/31 09:47:23.9	116.540	-0.330	0.080	3.540
2020/01/31 09:47:24.0	116.540	-0.320	0.070	3.490
2020/01/31 09:47:24.1	116.530	-0.300	0.060	3.450
2020/01/31 09:47:24.2	116.520	-0.280	0.040	3.390
2020/01/31 09:47:24.3	116.500	-0.260	0.030	3.340
2020/01/31 09:47:24.4	116.480	-0.240	0.020	3.270
2020/01/31 09:47:24.5	116.460	-0.220	-0.000	3.210
2020/01/31 09:47:24.6	116.430	-0.200	-0.020	3.140
2020/01/31 09:47:24.7	116.410	-0.170	-0.050	3.070
2020/01/31 09:47:24.8	116.380	-0.140	-0.070	2.990
2020/01/31 09:47:24.9	116.350	-0.110	-0.100	2.910
2020/01/31 09:47:25.0	116.310	-0.080	-0.120	2.830
2020/01/31 09:47:25.1	116.280	-0.050	-0.150	2.740
2020/01/31 09:47:25.2	116.240	-0.020	-0.180	2.650
2020/01/31 09:47:25.3	116.200	0.010	-0.210	2.560
2020/01/31 09:47:25.4	116.160	0.040	-0.250	2.460
2020/01/31 09:47:25.5	116.120	0.080	-0.280	2.360
2020/01/31 09:47:25.6	116.080	0.110	-0.310	2.260
2020/01/31 09:47:25.7	116.040	0.140	-0.340	2.160
2020/01/31 09:47:25.8	116.000	0.180	-0.370	2.050
2020/01/31 09:47:25.9	115.960	0.210	-0.400	1.940
2020/01/31 09:47:26.0	115.920	0.240	-0.420	1.830
2020/01/31 09:47:26.1	115.890	0.270	-0.450	1.720
2020/01/31 09:47:26.2	115.850	0.300	-0.470	1.600
2020/01/31 09:47:26.3	115.820	0.320	-0.490	1.480
2020/01/31 09:47:26.4	115.800	0.350	-0.510	1.350
2020/01/31 09:47:26.5	115.770	0.370	-0.530	1.230
2020/01/31 09:47:26.6	115.750	0.390	-0.550	1.100
2020/01/31 09:47:26.7	115.730	0.410	-0.560	0.970
2020/01/31 09:47:26.8	115.720	0.420	-0.570	0.840
2020/01/31 09:47:26.9	115.700	0.440	-0.570	0.700
2020/01/31 09:47:27.0	115.700	0.450	-0.570	0.560
2020/01/31 09:47:27.1	115.690	0.450	-0.570	0.430
2020/01/31 09:47:27.2	115.690	0.450	-0.570	0.290
2020/01/31 09:47:27.3	115.700	0.450	-0.560	0.150
2020/01/31 09:47:27.4	115.700	0.450	-0.550	0.010
2020/01/31 09:47:27.5	115.710	0.440	-0.540	-0.130
2020/01/31 09:47:27.6	115.720	0.430	-0.530	-0.270
2020/01/31 09:47:27.7	115.740	0.420	-0.510	-0.410
2020/01/31 09:47:27.8	115.760	0.400	-0.490	-0.550
2020/01/31 09:47:27.9	115.780	0.380	-0.460	-0.680
2020/01/31 09:47:28.0	115.810	0.360	-0.440	-0.820
2020/01/31 09:47:28.1	115.840	0.340	-0.410	-0.950
2020/01/31 09:47:28.2	115.860	0.310	-0.380	-1.070
2020/01/31 09:47:28.3	115.890	0.280	-0.350	-1.200
2020/01/31 09:47:28.4	115.900	0.250	-0.320	-1.320
2020/01/31 09:47:28.5	115.930	0.210	-0.290	-1.430
2020/01/31 09:47:28.6	115.970	0.180	-0.250	-1.540
2020/01/31 09:47:28.7	116.000	0.150	-0.220	-1.640
2020/01/31 09:47:28.8	116.030	0.110	-0.180	-1.740
2020/01/31 09:47:28.9	116.060	0.070	-0.150	-1.830
2020/01/31 09:47:29.0	116.090	0.040	-0.110	-1.910
2020/01/31 09:47:29.1	116.120	0.000	-0.080	-1.990
2020/01/31 09:47:29.2	116.150	-0.030	-0.040	-2.060
2020/01/31 09:47:29.3	116.180	-0.060	-0.010	-2.120
2020/01/31 09:47:29.4	116.180	-0.100	0.020	-2.170
2020/01/31 09:47:29.5	116.210	-0.130	0.050	-2.220
2020/01/31 09:47:29.6	116.230	-0.150	0.080	-2.250
2020/01/31 09:47:29.7	116.250	-0.180	0.100	-2.280
2020/01/31 09:47:29.8	116.270	-0.200	0.120	-2.300
2020/01/31 09:47:29.9	116.290	-0.220	0.140	-2.320
2020/01/31 09:47:30.0	116.310	-0.240	0.150	-2.320
2020/01/31 09:47:30.1	116.320	-0.250	0.170	-2.320
2020/01/31 09:47:30.2	116.330	-0.260	0.170	-2.310
2020/01/31 09:47:30.3	116.340	-0.260	0.170	-2.290
2020/01/31 09:47:30.4	116.340	-0.270	0.180	-2.270
2020/01/31 09:47:30.5	116.350	-0.270	0.170	-2.240
2020/01/31 09:47:30.6	116.350	-0.260	0.160	-2.200
2020/01/31 09:47:30.7	116.350	-0.250	0.140	-2.160
2020/01/31 09:47:30.8	116.340	-0.240	0.120	-2.110
2020/01/31 09:47:30.9	116.340	-0.230	0.100	-2.050
2020/01/31 09:47:31.0	116.330	-0.210	0.070	-1.990
2020/01/31 09:47:31.1	116.320	-0.190	0.040	-1.920
2020/01/31 09:47:31.2	116.310	-0.170	0.000	-1.840
2020/01/31 09:47:31.3	116.290	-0.140	-0.040	-1.760
2020/01/31 09:47:31.4	116.270	-0.110	-0.080	-1.670
2020/01/31 09:47:31.5	116.250	-0.080	-0.120	-1.580
2020/01/31 09:47:31.6	116.230	-0.050	-0.170	-1.480
2020/01/31 09:47:31.7	116.210	-0.010	-0.220	-1.380
2020/01/31 09:47:31.8	116.180	0.020	-0.270	-1.270
2020/01/31 09:47:31.9	116.160	0.060	-0.320	-1.160
2020/01/31 09:47:32.0	116.130	0.090	-0.370	-1.050
2020/01/31 09:47:32.1	116.100	0.130	-0.420	-0.930
2020/01/31 09:47:32.2	116.070	0.160	-0.460	-0.810
2020/01/31 09:47:32.3	116.050	0.190	-0.510	-0.690
2020/01/31 09:47:32.4	116.020	0.230	-0.550	-0.550
2020/01/31 09:47:32.5	115.990	0.260	-0.590	-0.420
2020/01/31 09:47:32.6	115.960	0.290	-0.620	-0.290
2020/01/31 09:47:32.7	115.940	0.310	-0.660	-0.160
2020/01/31 09:47:32.8	115.910	0.340	-0.680	-0.020
2020/01/31 09:47:32.9	115.890	0.360	-0.700	0.120
2020/01/31 09:47:33.0	115.860	0.370	-0.720	0.260
2020/01/31 09:47:33.1	115.840	0.390	-0.730	0.400
2020/01/31 09:47:33.2	115.820	0.400	-0.730	0.540
2020/01/31 09:47:33.3	115.800	0.410	-0.730	0.680
2020/01/31 09:47:33.4	115.780	0.410	-0.720	0.830
2020/01/31 09:47:33.5	115.760	0.410	-0.710	0.970
2020/01/31 09:47:33.6	115.740	0.400	-0.690	1.110
2020/01/31 09:47:33.7	115.730	0.390	-0.660	1.260
2020/01/31 09:47:33.8	115.710	0.380	-0.630	1.400
2020/01/31 09:47:33.9	115.700	0.360	-0.590	1.540
2020/01/31 09:47:34.0	115.690	0.340	-0.550	1.680
2020/01/31 09:47:34.1	115.680	0.320	-0.510	1.820
2020/01/31 09:47:34.2	115.670	0.290	-0.460	1.950
2020/01/31 09:47:34.3	115.670	0.260	-0.400	2.080
2020/01/31 09:47:34.4	115.670	0.230	-0.340	2.210
2020/01/31 09:47:34.5	115.670	0.190	-0.290	2.330
2020/01/31 09:47:34.6	115.670	0.150	-0.220	2.450
2020/01/31 09:47:34.7	115.670	0.110	-0.160	2.560
2020/01/31 09:47:34.8	115.670	0.070	-0.100	2.670
2020/01/31 09:47:34.9	115.680	0.030	-0.030	2.770
2020/01/31 09:47:35.0	115.680	-0.020	0.030	2.860
2020/01/31 09:47:35.1	115.690	-0.060	0.100	2.950
2020/01/31 09:47:35.2	115.700	-0.110	0.160	3.030
2020/01/31 09:47:35.3	115.710	-0.150	0.220	3.110
2020/01/31 09:47:35.4	115.730	-0.200	0.270	3.170
2020/01/31 09:47:35.5	115.740	-0.240	0.320	3.230
2020/01/31 09:47:35.6	115.760	-0.280	0.370	3.280
2020/01/31 09:47:35.7	115.770	-0.320	0.420	3.330
2020/01/31 09:47:35.8	115.790	-0.360	0.460	3.370
2020/01/31 09:47:35.9	115.800	-0.400	0.500	3.400
2020/01/31 09:47:36.0	115.820	-0.430	0.530	3.420
2020/01/31 09:47:36.1	115.830	-0.460	0.560	3.440
2020/01/31 09:47:36.2	115.850	-0.490	0.580	3.450
2020/01/31 09:47:36.3	115.860	-0.510	0.590	3.450
2020/01/31 09:47:36.4	115.900	-0.530	0.590	3.450
2020/01/31 09:47:36.5	115.910	-0.550	0.590	3.450
2020/01/31 09:47:36.6	115.920	-0.560	0.590	3.430
2020/01/31 09:47:36.7	115.930	-0.570	0.580	3.420
2020/01/31 09:47:36.8	115.940	-0.580	0.560	3.400
2020/01/31 09:47:36.9	115.950	-0.580	0.540	3.370
2020/01/31 09:47:37.0	115.950	-0.580	0.510	3.340
2020/01/31 09:47:37.1	115.960	-0.570	0.480	3.310
2020/01/31 09:47:37.2	115.960	-0.560	0.440	3.270
2020/01/31 09:47:37.3	115.960	-0.540	0.390	3.230
2020/01/31 09:47:37.4	115.980	-0.530	0.340	3.180
2020/01/31 09:47:37.5	115.980	-0.510	0.290	3.130
2020/01/31 09:47:37.6	115.980	-0.480	0.240	3.080
2020/01/31 09:47:37.7	115.970	-0.450	0.180	3.030
2020/01/31 09:47:37.8	115.970	-0.420	0.120	2.970
2020/01/31 09:47:37.9	115.970	-0.390	0.060	2.910
2020/01/31 09:47:38.0	115.960	-0.350	-0.010	2.850
2020/01/31 09:47:38.1	115.950	-0.320	-0.070	2.780
2020/01/31 09:47:38.2	115.950	-0.280	-0.140	2.720
2020/01/31 09:47:38.3	115.940	-0.240	-0.200	2.650
2020/01/31 09:47:38.4	115.930	-0.200	-0.260	2.570
2020/01/31 09:47:38.5	115.920	-0.160	-0.320	2.500
2020/01/31 09:47:38.6	115.910	-0.120	-0.380	2.430
2020/01/31 09:47:38.7	115.910	-0.080	-0.440	2.350
2020/01/31 09:47:38.8	115.890	-0.040	-0.490	2.270
2020/01/31 09:47:38.9	115.890	0.000	-0.540	2.190
2020/01/31 09:47:39.0	115.880	0.040	-0.590	2.110
2020/01/31 09:47:39.1	115.870	0.080	-0.630	2.020
2020/01/31 09:47:39.2	115.860	0.110	-0.670	1.940
2020/01/31 09:47:39.3	115.850	0.150	-0.700	1.850
2020/01/31 09:47:39.4	115.860	0.180	-0.730	1.760
2020/01/31 09:47:39.5	115.850	0.210	-0.760	1.670
2020/01/31 09:47:39.6	115.850	0.240	-0.780	1.580
2020/01/31 09:47:39.7	115.840	0.270	-0.790	1.490
2020/01/31 09:47:39.8	115.840	0.290	-0.800	1.400
2020/01/31 09:47:39.9	115.840	0.310	-0.810	1.310
2020/01/31 09:47:40.0	115.840	0.330	-0.810	1.210
2020/01/31 09:47:40.1	115.850	0.350	-0.810	1.120
2020/01/31 09:47:40.2	115.850	0.370	-0.800	1.030
2020/01/31 09:47:40.3	115.850	0.380	-0.790	0.940
2020/01/31 09:47:40.4	115.860	0.400	-0.770	0.840
2020/01/31 09:47:40.5	115.870	0.410	-0.750	0.750
2020/01/31 09:47:40.6	115.880	0.420	-0.730	0.660
2020/01/31 09:47:40.7	115.890	0.420	-0.700	0.560
2020/01/31 09:47:40.8	115.900	0.430	-0.670	0.470
2020/01/31 09:47:40.9	115.910	0.430	-0.640	0.370
2020/01/31 09:47:41.0	115.920	0.440	-0.600	0.280
2020/01/31 09:47:41.1	115.930	0.440	-0.560	0.180
2020/01/31 09:47:41.2	115.940	0.440	-0.520	0.090
2020/01/31 09:47:41.3	115.950	0.440	-0.470	-0.010
2020/01/31 09:47:41.4	115.940	0.440	-0.430	-0.100
2020/01/31 09:47:41.5	115.950	0.440	-0.380	-0.200
2020/01/31 09:47:41.6	115.960	0.430	-0.340	-0.290
2020/01/31 09:47:41.7	115.970	0.430	-0.290	-0.390
2020/01/31 09:47:41.8	115.980	0.430	-0.240	-0.480
2020/01/31 09:47:41.9	115.980	0.420	-0.200	-0.570
2020/01/31 09:47:42.0	115.990	0.420	-0.150	-0.660
2020/01/31 09:47:42.1	115.990	0.420	-0.110	-0.750
2020/01/31 09:47:42.2	115.990	0.410	-0.070	-0.840
2020/01/31 09:47:42.3	115.990	0.410	-0.030	-0.920
2020/01/31 09:47:42.4	115.950	0.400	0.010	-1.010
2020/01/31 09:47:42.5	115.950	0.390	0.040	-1.080
2020/01/31 09:47:42.6	115.940	0.390	0.080	-1.160
2020/01/31 09:47:42.7	115.930	0.380	0.110	-1.230
2020/01/31 09:47:42.8	115.920	0.380	0.130	-1.290
2020/01/31 09:47:42.9	115.910	0.370	0.150	-1.350
2020/01/31 09:47:43.0	115.890	0.360	0.170	-1.410
2020/01/31 09:47:43.1	115.880	0.350	0.190	-1.460
2020/01/31 09:47:43.2	115.860	0.340	0.200	-1.500
2020/01/31 09:47:43.3	115.840	0.330	0.210	-1.540
2020/01/31 09:47:43.4	115.810	0.310	0.220	-1.580
2020/01/31 09:47:43.5	115.790	0.300	0.220	-1.610
2020/01/31 09:47:43.6	115.770	0.280	0.220	-1.630
2020/01/31 09:47:43.7	115.750	0.270	0.220	-1.650
2020/01/31 09:47:43.8	115.730	0.250	0.210	-1.660
2020/01/31 09:47:43.9	115.710	0.230	0.210	-1.660
2020/01/31 09:47:44.0	115.700	0.200	0.200	-1.660
2020/01/31 09:47:44.1	115.680	0.180	0.190	-1.660
2020/01/31 09:47:44.2	115.660	0.160	0.180	-1.650
2020/01/31 09:47:44.3	115.650	0.130	0.170	-1.630
2020/01/31 09:47:44.4	115.630	0.100	0.160	-1.600
2020/01/31 09:47:44.5	115.620	0.070	0.140	-1.580
2020/01/31 09:47:44.6	115.610	0.040	0.130	-1.540
2020/01/31 09:47:44.7	115.600	0.010	0.110	-1.500
2020/01/31 09:47:44.8	115.600	-0.030	0.090	-1.460
2020/01/31 09:47:44.9	115.590	-0.060	0.080	-1.410
2020/01/31 09:47:45.0	115.600	-0.100	0.060	-1.360
2020/01/31 09:47:45.1	115.600	-0.130	0.040	-1.300
2020/01/31 09:47:45.2	115.600	-0.170	0.020	-1.240
2020/01/31 09:47:45.3	115.610	-0.210	0.010	-1.170
2020/01/31 09:47:45.4	115.600	-0.240	-0.020	-1.100
2020/01/31 09:47:45.5	115.610	-0.280	-0.040	-1.030
2020/01/31 09:47:45.6	115.620	-0.310	-0.060	-0.950
2020/01/31 09:47:45.7	115.640	-0.350	-0.080	-0.870
2020/01/31 09:47:45.8	115.650	-0.380	-0.100	-0.790
2020/01/31 09:47:45.9	115.670	-0.420	-0.120	-0.700
2020/01/31 09:47:46.0	115.680	-0.450	-0.140	-0.610
2020/01/31 09:47:46.1	115.700	-0.480	-0.160	-0.510
2020/01/31 09:47:46.2	115.720	-0.510	-0.180	-0.410
2020/01/31 09:47:46.3	115.730	-0.540	-0.200	-0.310
2020/01/31 09:47:46.4	115.750	-0.570	-0.220	-0.210
2020/01/31 09:47:46.5	115.770	-0.590	-0.240	-0.100
2020/01/31 09:47:46.6	115.780	-0.610	-0.260	0.010
2020/01/31 09:47:46.7	115.800	-0.640	-0.280	0.130
2020/01/31 09:47:46.8	115.810	-0.650	-0.300	0.250
2020/01/31 09:47:46.9	115.820	-0.670	-0.320	0.370
2020/01/31 09:47:47.0	115.830	-0.680	-0.330	0.490
2020/01/31 09:47:47.1	115.830	-0.690	-0.350	0.610
2020/01/31 09:47:47.2	115.840	-0.700	-0.370	0.740
2020/01/31 09:47:47.3	115.840	-0.700	-0.390	0.870
2020/01/31 09:47:47.4	115.850	-0.700	-0.400	1.000
2020/01/31 09:47:47.5	115.850	-0.700	-0.420	1.130
2020/01/31 09:47:47.6	115.840	-0.690	-0.430	1.260
2020/01/31 09:47:47.7	115.830	-0.690	-0.440	1.400
2020/01/31 09:47:47.8	115.820	-0.670	-0.460	1.530
2020/01/31 09:47:47.9	115.810	-0.660	-0.470	1.660
2020/01/31 09:47:48.0	115.800	-0.640	-0.480	1.790
2020/01/31 09:47:48.1	115.780	-0.620	-0.490	1.920
2020/01/31 09:47:48.2	115.770	-0.600	-0.490	2.040
2020/01/31 09:47:48.3	115.750	-0.570	-0.500	2.170
2020/01/31 09:47:48.4	115.740	-0.540	-0.500	2.280
2020/01/31 09:47:48.5	115.720	-0.510	-0.510	2.400
2020/01/31 09:47:48.6	115.700	-0.480	-0.510	2.510
2020/01/31 09:47:48.7	115.680	-0.440	-0.510	2.620
2020/01/31 09:47:48.8	115.650	-0.410	-0.500	2.720
2020/01/31 09:47:48.9	115.630	-0.370	-0.500	2.820
2020/01/31 09:47:49.0	115.610	-0.330	-0.500	2.910
2020/01/31 09:47:49.1	115.590	-0.280	-0.490	2.990
2020/01/31 09:47:49.2	115.560	-0.240	-0.480	3.070
2020/01/31 09:47:49.3	115.540	-0.190	-0.470	3.140
2020/01/31 09:47:49.4	115.530	-0.150	-0.460	3.210
2020/01/31 09:47:49.5	115.510	-0.100	-0.440	3.260
2020/01/31 09:47:49.6	115.490	-0.050	-0.430	3.310
2020/01/31 09:47:49.7	115.470	-0.010	-0.410	3.350
2020/01/31 09:47:49.8	115.460	0.040	-0.390	3.390
2020/01/31 09:47:49.9	115.440	0.090	-0.380	3.410
2020/01/31 09:47:50.0	115.430	0.140	-0.360	3.430
2020/01/31 09:47:50.1	115.410	0.180	-0.340	3.430
2020/01/31 09:47:50.2	115.400	0.230	-0.320	3.440
2020/01/31 09:47:50.3	115.390	0.270	-0.300	3.430
2020/01/31 09:47:50.4	115.390	0.310	-0.280	3.410
2020/01/31 09:47:50.5	115.380	0.350	-0.260	3.390
2020/01/31 09:47:50.6	115.380	0.390	-0.230	3.350
2020/01/31 09:47:50.7	115.370	0.430	-0.210	3.320
2020/01/31 09:47:50.8	115.370	0.460	-0.190	3.270
2020/01/31 09:47:50.9	115.370	0.500	-0.170	3.220
2020/01/31 09:47:51.0	115.370	0.530	-0.150	3.150
2020/01/31 09:47:51.1	115.380	0.560	-0.130	3.090
2020/01/31 09:47:51.2	115.380	0.580	-0.110	3.010
2020/01/31 09:47:51.3	115.390	0.600	-0.100	2.930
2020/01/31 09:47:51.4	115.410	0.620	-0.080	2.840
2020/01/31 09:47:51.5	115.420	0.640	-0.060	2.740
2020/01/31 09:47:51.6	115.430	0.660	-0.050	2.640
2020/01/31 09:47:51.7	115.440	0.670	-0.030	2.540
2020/01/31 09:47:51.8	115.450	0.680	-0.010	2.430
2020/01/31 09:47:51.9	115.470	0.680	0.000	2.310
2020/01/31 09:47:52.0	115.480	0.680	0.020	2.190
2020/01/31 09:47:52.1	115.500	0.680	0.030	2.070
2020/01/31 09:47:52.2	115.510	0.680	0.050	1.940
2020/01/31 09:47:52.3	115.530	0.670	0.060	1.810
2020/01/31 09:47:52.4	115.540	0.660	0.080	1.680
2020/01/31 09:47:52.5	115.550	0.650	0.090	1.540
2020/01/31 09:47:52.6	115.570	0.630	0.110	1.410
2020/01/31 09:47:52.7	115.580	0.610	0.120	1.270
2020/01/31 09:47:52.8	115.600	0.590	0.130	1.130
2020/01/31 09:47:52.9	115.610	0.570	0.150	0.990
2020/01/31 09:47:53.0	115.630	0.540	0.160	0.850
2020/01/31 09:47:53.1	115.640	0.520	0.180	0.710
2020/01/31 09:47:53.2	115.650	0.490	0.190	0.570
2020/01/31 09:47:53.3	115.670	0.460	0.200	0.440
2020/01/31 09:47:53.4	115.680	0.420	0.210	0.300
2020/01/31 09:47:53.5	115.690	0.390	0.220	0.170
2020/01/31 09:47:53.6	115.700	0.350	0.230	0.040
2020/01/31 09:47:53.7	115.710	0.320	0.240	-0.090
2020/01/31 09:47:53.8	115.730	0.280	0.240	-0.210
2020/01/31 09:47:53.9	115.740	0.240	0.240	-0.320
2020/01/31 09:47:54.0	115.740	0.200	0.250	-0.430
2020/01/31 09:47:54.1	115.750	0.170	0.240	-0.540
2020/01/31 09:47:54.2	115.760	0.130	0.240	-0.640
2020/01/31 09:47:54.3	115.760	0.090	0.230	-0.730
2020/01/31 09:47:54.4	115.760	0.060	0.220	-0.820
2020/01/31 09:47:54.5	115.760	0.020	0.210	-0.900
2020/01/31 09:47:54.6	115.760	-0.010	0.190	-0.970
2020/01/31 09:47:54.7	115.760	-0.040	0.180	-1.030
2020/01/31 09:47:54.8	115.750	-0.080	0.150	-1.090
2020/01/31 09:47:54.9	115.750	-0.100	0.130	-1.140
2020/01/31 09:47:55.0	115.740	-0.130	0.100	-1.180
2020/01/31 09:47:55.1	115.730	-0.160	0.070	-1.210
2020/01/31 09:47:55.2	115.710	-0.180	0.040	-1.240
2020/01/31 09:47:55.3	115.700	-0.200	0.010	-1.260
2020/01/31 09:47:55.4	115.670	-0.220	-0.020	-1.270
2020/01/31 09:47:55.5	115.650	-0.240	-0.060	-1.280
2020/01/31 09:47:55.6	115.630	-0.260	-0.090	-1.280
2020/01/31 09:47:55.7	115.610	-0.270	-0.130	-1.270
2020/01/31 09:47:55.8	115.590	-0.280	-0.170	-1.260
2020/01/31 09:47:55.9	115.570	-0.290	-0.200	-1.250
2020/01/31 09:47:56.0	115.550	-0.300	-0.240	-1.230
2020/01/31 09:47:56.1	115.540	-0.310	-0.270	-1.210
2020/01/31 09:47:56.2	115.520	-0.310	-0.310	-1.190
2020/01/31 09:47:56.3	115.500	-0.310	-0.340	-1.160
2020/01/31 09:47:56.4	115.470	-0.310	-0.370	-1.130
2020/01/31 09:47:56.5	115.450	-0.310	-0.390	-1.100
2020/01/31 09:47:56.6	115.440	-0.310	-0.420	-1.070
2020/01/31 09:47:56.7	115.430	-0.310	-0.440	-1.030
2020/01/31 09:47:56.8	115.420	-0.300	-0.460	-1.000
2020/01/31 09:47:56.9	115.410	-0.300	-0.480	-0.960
2020/01/31 09:47:57.0	115.410	-0.290	-0.490	-0.920
2020/01/31 09:47:57.1	115.400	-0.280	-0.500	-0.880
2020/01/31 09:47:57.2	115.400	-0.270	-0.510	-0.840
2020/01/31 09:47:57.3	115.400	-0.260	-0.520	-0.800
2020/01/31 09:47:57.4	115.400	-0.250	-0.530	-0.760
2020/01/31 09:47:57.5	115.400	-0.240	-0.530	-0.710
2020/01/31 09:47:57.6	115.400	-0.230	-0.540	-0.670
2020/01/31 09:47:57.7	115.400	-0.210	-0.540	-0.620
2020/01/31 09:47:57.8	115.400	-0.200	-0.540	-0.570
2020/01/31 09:47:57.9	115.400	-0.190	-0.540	-0.520
2020/01/31 09:47:58.0	115.400	-0.170	-0.540	-0.470
2020/01/31 09:47:58.1	115.400	-0.160	-0.540	-0.410
2020/01/31 09:47:58.2	115.400	-0.140	-0.540	-0.360
2020/01/31 09:47:58.3	115.400	-0.120	-0.540	-0.300
2020/01/31 09:47:58.4	115.400	-0.110	-0.540	-0.230
2020/01/31 09:47:58.5	115.400	-0.090	-0.540	-0.170
2020/01/31 09:47:58.6	115.400	-0.080	-0.540	-0.110
2020/01/31 09:47:58.7	115.400	-0.060	-0.530	-0.040
2020/01/31 09:47:58.8	115.400	-0.050	-0.530	0.020
2020/01/31 09:47:58.9	115.400	-0.030	-0.530	0.090
2020/01/31 09:47:59.0	115.400	-0.020	-0.530	0.160
2020/01/31 09:47:59.1	115.400	-0.010	-0.530	0.230
2020/01/31 09:47:59.2	115.400	0.010	-0.530	0.300
2020/01/31 09:47:59.3	115.400	0.020	-0.530	0.370
2020/01/31 09:47:59.4	115.410	0.030	-0.530	0.450
2020/01/31 09:47:59.5	115.410	0.040	-0.520	0.520
2020/01/31 09:47:59.6	115.410	0.050	-0.520	0.590
2020/01/31 09:47:59.7	115.410	0.060	-0.510	0.670
2020/01/31 09:47:59.8	115.410	0.070	-0.500	0.740
2020/01/31 09:47:59.9	115.410	0.070	-0.490	0.810
2020/01/31 09:48:00.0	115.410	0.080	-0.480	0.890
2020/01/31 09:48:00.1	115.410	0.080	-0.470	0.960
2020/01/31 09:48:00.2	115.410	0.080	-0.460	1.040
2020/01/31 09:48:00.3	115.420	0.090	-0.440	1.110
2020/01/31 09:48:00.4	115.410	0.080	-0.420	1.180
2020/01/31 09:48:00.5	115.410	0.080	-0.400	1.250
2020/01/31 09:48:00.6	115.410	0.080	-0.370	1.330
2020/01/31 09:48:00.7	115.420	0.070	-0.350	1.400
2020/01/31 09:48:00.8	115.430	0.070	-0.320	1.470
2020/01/31 09:48:00.9	115.430	0.060	-0.290	1.530
2020/01/31 09:48:01.0	115.440	0.050	-0.250	1.600
2020/01/31 09:48:01.1	115.450	0.040	-0.210	1.670
2020/01/31 09:48:01.2	115.450	0.030	-0.180	1.730
2020/01/31 09:48:01.3	115.460	0.010	-0.130	1.790
2020/01/31 09:48:01.4	115.470	-0.000	-0.090	1.850
2020/01/31 09:48:01.5	115.480	-0.020	-0.040	1.910
2020/01/31 09:48:01.6	115.490	-0.040	0.000	1.960
2020/01/31 09:48:01.7	115.490	-0.060	0.050	2.010
2020/01/31 09:48:01.8	115.500	-0.080	0.100	2.060
2020/01/31 09:48:01.9	115.510	-0.100	0.140	2.110
2020/01/31 09:48:02.0	115.520	-0.120	0.190	2.150
2020/01/31 09:48:02.1	115.520	-0.140	0.240	2.190
2020/01/31 09:48:02.2	115.530	-0.160	0.280	2.230
2020/01/31 09:48:02.3	115.540	-0.180	0.330	2.260
2020/01/31 09:48:02.4	115.540	-0.200	0.370	2.290
2020/01/31 09:48:02.5	115.550	-0.220	0.410	2.310
2020/01/31 09:48:02.6	115.550	-0.240	0.440	2.330
2020/01/31 09:48:02.7	115.550	-0.260	0.470	2.350
2020/01/31 09:48:02.8	115.560	-0.280	0.500	2.360
2020/01/31 09:48:02.9	115.560	-0.300	0.530	2.370
2020/01/31 09:48:03.0	115.560	-0.310	0.550	2.370
2020/01/31 09:48:03.1	115.560	-0.320	0.560	2.370
2020/01/31 09:48:03.2	115.560	-0.330	0.570	2.370
2020/01/31 09:48:03.3	115.560	-0.340	0.580	2.360
2020/01/31 09:48:03.4	115.560	-0.350	0.580	2.350
2020/01/31 09:48:03.5	115.560	-0.350	0.570	2.340
2020/01/31 09:48:03.6	115.550	-0.360	0.560	2.320
2020/01/31 09:48:03.7	115.550	-0.360	0.540	2.300
2020/01/31 09:48:03.8	115.550	-0.350	0.520	2.280
2020/01/31 09:48:03.9	115.550	-0.350	0.490	2.260
2020/01/31 09:48:04.0	115.540	-0.340	0.460	2.230
2020/01/31 09:48:04.1	115.540	-0.330	0.420	2.200
2020/01/31 09:48:04.2	115.530	-0.320	0.380	2.170
2020/01/31 09:48:04.3	115.530	-0.310	0.330	2.140
2020/01/31 09:48:04.4	115.540	-0.290	0.280	2.110
2020/01/31 09:48:04.5	115.540	-0.280	0.230	2.080
2020/01/31 09:48:04.6	115.530	-0.260	0.170	2.040
2020/01/31 09:48:04.7	115.530	-0.240	0.110	2.000
2020/01/31 09:48:04.8	115.520	-0.210	0.050	1.970
2020/01/31 09:48:04.9	115.510	-0.190	-0.020	1.930
2020/01/31 09:48:05.0	115.510	-0.170	-0.080	1.890
2020/01/31 09:48:05.1	115.500	-0.140	-0.150	1.850
2020/01/31 09:48:05.2	115.500	-0.120	-0.210	1.810
2020/01/31 09:48:05.3	115.490	-0.090	-0.280	1.770
2020/01/31 09:48:05.4	115.500	-0.060	-0.340	1.730
2020/01/31 09:48:05.5	115.490	-0.040	-0.400	1.690
2020/01/31 09:48:05.6	115.480	-0.010	-0.460	1.640
2020/01/31 09:48:05.7	115.470	0.020	-0.520	1.600
2020/01/31 09:48:05.8	115.470	0.050	-0.580	1.550
2020/01/31 09:48:05.9	115.460	0.070	-0.630	1.510
2020/01/31 09:48:06.0	115.450	0.100	-0.680	1.460
2020/01/31 09:48:06.1	115.440	0.130	-0.720	1.410
2020/01/31 09:48:06.2	115.430	0.160	-0.760	1.360
2020/01/31 09:48:06.3	115.420	0.180	-0.800	1.310
2020/01/31 09:48:06.4	115.420	0.210	-0.830	1.250
2020/01/31 09:48:06.5	115.410	0.230	-0.860	1.200
2020/01/31 09:48:06.6	115.400	0.260	-0.890	1.140
2020/01/31 09:48:06.7	115.390	0.280	-0.910	1.090
2020/01/31 09:48:06.8	115.380	0.300	-0.920	1.030
2020/01/31 09:48:06.9	115.370	0.320	-0.930	0.970
2020/01/31 09:48:07.0	115.360	0.340	-0.940	0.910
2020/01/31 09:48:07.1	115.350	0.360	-0.940	0.850
2020/01/31 09:48:07.2	115.340	0.380	-0.940	0.790
2020/01/31 09:48:07.3	115.330	0.390	-0.930	0.720
2020/01/31 09:48:07.4	115.320	0.410	-0.920	0.660
2020/01/31 09:48:07.5	115.310	0.420	-0.910	0.590
2020/01/31 09:48:07.6	115.300	0.430	-0.890	0.520
2020/01/31 09:48:07.7	115.290	0.440	-0.860	0.450
2020/01/31 09:48:07.8	115.290	0.450	-0.830	0.390
2020/01/31 09:48:07.9	115.280	0.460	-0.800	0.320
2020/01/31 09:48:08.0	115.280	0.460	-0.760	0.250
2020/01/31 09:48:08.1	115.280	0.470	-0.720	0.190
2020/01/31 09:48:08.2	115.280	0.470	-0.670	0.120
2020/01/31 09:48:08.3	115.280	0.460	-0.620	0.060
2020/01/31 09:48:08.4	115.260	0.460	-0.560	-0.010
2020/01/31 09:48:08.5	115.260	0.450	-0.510	-0.070
2020/01/31 09:48:08.6	115.270	0.450	-0.450	-0.130
2020/01/31 09:48:08.7	115.270	0.440	-0.390	-0.180
2020/01/31 09:48:08.8	115.280	0.420	-0.320	-0.240
2020/01/31 09:48:08.9	115.290	0.410	-0.250	-0.290
2020/01/31 09:48:09.0	115.290	0.390	-0.180	-0.330
2020/01/31 09:48:09.1	115.300	0.370	-0.120	-0.380
2020/01/31 09:48:09.2	115.310	0.350	-0.050	-0.420
2020/01/31 09:48:09.3	115.320	0.330	0.020	-0.450
2020/01/31 09:48:09.4	115.330	0.310	0.090	-0.490
2020/01/31 09:48:09.5	115.340	0.280	0.160	-0.520
2020/01/31 09:48:09.6	115.350	0.250	0.230	-0.550
2020/01/31 09:48:09.7	115.360	0.220	0.290	-0.570
2020/01/31 09:48:09.8	115.370	0.200	0.350	-0.590
2020/01/31 09:48:09.9	115.380	0.170	0.410	-0.610
2020/01/31 09:48:10.0	115.390	0.140	0.460	-0.620
2020/01/31 09:48:10.1	115.400	0.110	0.510	-0.630
2020/01/31 09:48:10.2	115.410	0.070	0.560	-0.640
2020/01/31 09:48:10.3	115.420	0.040	0.600	-0.640
2020/01/31 09:48:10.4	115.430	0.010	0.630	-0.640
2020/01/31 09:48:10.5	115.430	-0.010	0.660	-0.640
2020/01/31 09:48:10.6	115.440	-0.040	0.680	-0.630
2020/01/31 09:48:10.7	115.440	-0.070	0.700	-0.630
2020/01/31 09:48:10.8	115.450	-0.100	0.710	-0.620
2020/01/31 09:48:10.9	115.450	-0.120	0.710	-0.610
2020/01/31 09:48:11.0	115.460	-0.140	0.700	-0.590
2020/01/31 09:48:11.1	115.460	-0.160	0.690	-0.580
2020/01/31 09:48:11.2	115.460	-0.180	0.670	-0.560
2020/01/31 09:48:11.3	115.460	-0.200	0.640	-0.540
2020/01/31 09:48:11.4	115.440	-0.210	0.610	-0.520
2020/01/31 09:48:11.5	115.440	-0.220	0.570	-0.500
2020/01/31 09:48:11.6	115.430	-0.230	0.520	-0.470
2020/01/31 09:48:11.7	115.430	-0.240	0.460	-0.440
2020/01/31 09:48:11.8	115.420	-0.240	0.400	-0.410
2020/01/31 09:48:11.9	115.420	-0.240	0.330	-0.370
2020/01/31 09:48:12.0	115.410	-0.240	0.260	-0.340
2020/01/31 09:48:12.1	115.400	-0.240	0.190	-0.300
2020/01/31 09:48:12.2	115.390	-0.230	0.110	-0.260
2020/01/31 09:48:12.3	115.390	-0.220	0.030	-0.220
2020/01/31 09:48:12.4	115.370	-0.210	-0.050	-0.170
2020/01/31 09:48:12.5	115.370	-0.200	-0.140	-0.120
2020/01/31 09:48:12.6	115.360	-0.180	-0.220	-0.070
2020/01/31 09:48:12.7	115.350	-0.160	-0.300	-0.010
2020/01/31 09:48:12.8	115.340	-0.140	-0.380	0.040
2020/01/31 09:48:12.9	115.330	-0.120	-0.460	0.100
2020/01/31 09:48:13.0	115.320	-0.100	-0.530	0.160
2020/01/31 09:48:13.1	115.310	-0.080	-0.600	0.220
2020/01/31 09:48:13.2	115.300	-0.060	-0.670	0.290
2020/01/31 09:48:13.3	115.290	-0.030	-0.730	0.350
2020/01/31 09:48:13.4	115.280	-0.010	-0.780	0.420
2020/01/31 09:48:13.5	115.270	0.010	-0.830	0.490
2020/01/31 09:48:13.6	115.260	0.040	-0.870	0.560
2020/01/31 09:48:13.7	115.250	0.060	-0.900	0.630
2020/01/31 09:48:13.8	115.240	0.080	-0.930	0.700
2020/01/31 09:48:13.9	115.230	0.100	-0.950	0.780
2020/01/31 09:48:14.0	115.220	0.120	-0.960	0.850
2020/01/31 09:48:14.1	115.200	0.130	-0.970	0.920
2020/01/31 09:48:14.2	115.190	0.150	-0.960	0.990
2020/01/31 09:48:14.3	115.180	0.160	-0.960	1.070
2020/01/31 09:48:14.4	115.160	0.170	-0.940	1.140
2020/01/31 09:48:14.5	115.140	0.180	-0.920	1.210
2020/01/31 09:48:14.6	115.130	0.190	-0.890	1.280
2020/01/31 09:48:14.7	115.110	0.190	-0.860	1.340
2020/01/31 09:48:14.8	115.100	0.190	-0.820	1.400
2020/01/31 09:48:14.9	115.090	0.190	-0.780	1.460
2020/01/31 09:48:15.0	115.070	0.190	-0.730	1.520
2020/01/31 09:48:15.1	115.060	0.180	-0.680	1.570
2020/01/31 09:48:15.2	115.050	0.170	-0.630	1.620
2020/01/31 09:48:15.3	115.040	0.160	-0.570	1.670
2020/01/31 09:48:15.4	115.030	0.150	-0.520	1.710
2020/01/31 09:48:15.5	115.020	0.140	-0.450	1.750
2020/01/31 09:48:15.6	115.010	0.120	-0.390	1.780
2020/01/31 09:48:15.7	115.010	0.100	-0.330	1.810
2020/01/31 09:48:15.8	115.000	0.080	-0.270	1.840
2020/01/31 09:48:15.9	114.990	0.060	-0.200	1.870
2020/01/31 09:48:16.0	114.990	0.040	-0.140	1.890
2020/01/31 09:48:16.1	114.990	0.010	-0.080	1.900
2020/01/31 09:48:16.2	114.990	-0.010	-0.020	1.920
2020/01/31 09:48:16.3	114.990	-0.030	0.030	1.930
2020/01/31 09:48:16.4	114.990	-0.060	0.090	1.930
2020/01/31 09:48:16.5	114.990	-0.080	0.140	1.940
2020/01/31 09:48:16.6	115.000	-0.110	0.190	1.940
2020/01/31 09:48:16.7	115.000	-0.140	0.230	1.930
2020/01/31 09:48:16.8	115.010	-0.160	0.270	1.930
2020/01/31 09:48:16.9	115.020	-0.190	0.310	1.920
2020/01/31 09:48:17.0	115.030	-0.210	0.340	1.910
2020/01/31 09:48:17.1	115.040	-0.230	0.370	1.890
2020/01/31 09:48:17.2	115.050	-0.250	0.390	1.880
2020/01/31 09:48:17.3	115.070	-0.270	0.410	1.860
2020/01/31 09:48:17.4	115.090	-0.290	0.420	1.840
2020/01/31 09:48:17.5	115.100	-0.310	0.420	1.820
2020/01/31 09:48:17.6	115.120	-0.330	0.420	1.800
2020/01/31 09:48:17.7	115.130	-0.340	0.420	1.770
2020/01/31 09:48:17.8	115.150	-0.350	0.410	1.750
2020/01/31 09:48:17.9	115.170	-0.360	0.390	1.730
2020/01/31 09:48:18.0	115.180	-0.370	0.370	1.700
2020/01/31 09:48:18.1	115.200	-0.380	0.350	1.670
2020/01/31 09:48:18.2	115.210	-0.380	0.320	1.650
2020/01/31 09:48:18.3	115.220	-0.380	0.290	1.620
2020/01/31 09:48:18.4	115.230	-0.380	0.250	1.600
2020/01/31 09:48:18.5	115.230	-0.380	0.210	1.570
2020/01/31 09:48:18.6	115.240	-0.380	0.160	1.550
2020/01/31 09:48:18.7	115.250	-0.370	0.120	1.530
2020/01/31 09:48:18.8	115.250	-0.360	0.070	1.510
2020/01/31 09:48:18.9	115.260	-0.350	0.020	1.490
2020/01/31 09:48:19.0	115.260	-0.340	-0.040	1.470
2020/01/31 09:48:19.1	115.260	-0.330	-0.090	1.440
2020/01/31 09:48:19.2	115.260	-0.310	-0.140	1.420
2020/01/31 09:48:19.3	115.250	-0.300	-0.200	1.410
2020/01/31 09:48:19.4	115.260	-0.280	-0.250	1.380
2020/01/31 09:48:19.5	115.250	-0.270	-0.300	1.360
2020/01/31 09:48:19.6	115.240	-0.250	-0.350	1.340
2020/01/31 09:48:19.7	115.230	-0.230	-0.390	1.330
2020/01/31 09:48:19.8	115.210	-0.210	-0.440	1.310
2020/01/31 09:48:19.9	115.200	-0.190	-0.480	1.290
2020/01/31 09:48:20.0	115.180	-0.170	-0.510	1.270
2020/01/31 09:48:20.1	115.160	-0.160	-0.540	1.250
2020/01/31 09:48:20.2	115.140	-0.140	-0.570	1.220
2020/01/31 09:48:20.3	115.120	-0.120	-0.590	1.200
2020/01/31 09:48:20.4	115.100	-0.100	-0.610	1.180
2020/01/31 09:48:20.5	115.080	-0.080	-0.630	1.150
2020/01/31 09:48:20.6	115.050	-0.070	-0.640	1.130
2020/01/31 09:48:20.7	115.020	-0.050	-0.640	1.100
2020/01/31 09:48:20.8	115.000	-0.030	-0.640	1.080
2020/01/31 09:48:20.9	114.970	-0.020	-0.630	1.050
2020/01/31 09:48:21.0	114.940	-0.000	-0.620	1.020
2020/01/31 09:48:21.1	114.910	0.010	-0.600	0.990
2020/01/31 09:48:21.2	114.880	0.020	-0.580	0.960
2020/01/31 09:48:21.3	114.850	0.040	-0.560	0.920
2020/01/31 09:48:21.4	114.810	0.050	-0.530	0.890
2020/01/31 09:48:21.5	114.780	0.060	-0.500	0.850
2020/01/31 09:48:21.6	114.760	0.070	-0.460	0.810
2020/01/31 09:48:21.7	114.730	0.080	-0.430	0.780
2020/01/31 09:48:21.8	114.710	0.090	-0.390	0.740
2020/01/31 09:48:21.9	114.680	0.100	-0.350	0.700
2020/01/31 09:48:22.0	114.660	0.100	-0.300	0.650
2020/01/31 09:48:22.1	114.640	0.110	-0.260	0.610
2020/01/31 09:48:22.2	114.620	0.120	-0.220	0.570
2020/01/31 09:48:22.3	114.600	0.130	-0.170	0.520
2020/01/31 09:48:22.4	114.600	0.130	-0.130	0.470
2020/01/31 09:48:22.5	114.590	0.140	-0.090	0.430
2020/01/31 09:48:22.6	114.580	0.150	-0.040	0.380
2020/01/31 09:48:22.7	114.570	0.150	-0.000	0.330
2020/01/31 09:48:22.8	114.560	0.160	0.030	0.280
2020/01/31 09:48:22.9	114.560	0.170	0.070	0.240
2020/01/31 09:48:23.0	114.550	0.170	0.100	0.190
2020/01/31 09:48:23.1	114.550	0.180	0.130	0.140
2020/01/31 09:48:23.2	114.560	0.180	0.160	0.090
2020/01/31 09:48:23.3	114.560	0.190	0.190	0.040
2020/01/31 09:48:23.4	114.560	0.200	0.200	-0.010
2020/01/31 09:48:23.5	114.570	0.200	0.220	-0.050
2020/01/31 09:48:23.6	114.580	0.210	0.240	-0.100
2020/01/31 09:48:23.7	114.590	0.220	0.250	-0.140
2020/01/31 09:48:23.8	114.600	0.220	0.250	-0.190
2020/01/31 09:48:23.9	114.610	0.230	0.260	-0.230
2020/01/31 09:48:24.0	114.630	0.240	0.250	-0.270
2020/01/31 09:48:24.1	114.650	0.240	0.250	-0.300
2020/01/31 09:48:24.2	114.660	0.250	0.240	-0.340
2020/01/31 09:48:24.3	114.680	0.250	0.230	-0.370
2020/01/31 09:48:24.4	114.680	0.260	0.210	-0.410
2020/01/31 09:48:24.5	114.700	0.270	0.200	-0.430
2020/01/31 09:48:24.6	114.720	0.270	0.180	-0.460
2020/01/31 09:48:24.7	114.740	0.280	0.150	-0.490
2020/01/31 09:48:24.8	114.750	0.280	0.130	-0.510
2020/01/31 09:48:24.9	114.770	0.290	0.100	-0.530
2020/01/31 09:48:25.0	114.790	0.290	0.070	-0.540
2020/01/31 09:48:25.1	114.800	0.300	0.040	-0.560
2020/01/31 09:48:25.2	114.820	0.300	0.000	-0.570
2020/01/31 09:48:25.3	114.830	0.300	-0.030	-0.570
2020/01/31 09:48:25.4	114.850	0.310	-0.070	-0.570
2020/01/31 09:48:25.5	114.860	0.310	-0.100	-0.570
2020/01/31 09:48:25.6	114.870	0.310	-0.140	-0.570
2020/01/31 09:48:25.7	114.880	0.320	-0.170	-0.570
2020/01/31 09:48:25.8	114.890	0.320	-0.210	-0.560
2020/01/31 09:48:25.9	114.900	0.320	-0.240	-0.550
2020/01/31 09:48:26.0	114.900	0.320	-0.280	-0.540
2020/01/31 09:48:26.1	114.900	0.320	-0.310	-0.530
2020/01/31 09:48:26.2	114.910	0.320	-0.340	-0.510
2020/01/31 09:48:26.3	114.910	0.310	-0.370	-0.490
2020/01/31 09:48:26.4	114.920	0.310	-0.400	-0.470
2020/01/31 09:48:26.5	114.910	0.300	-0.430	-0.450
2020/01/31 09:48:26.6	114.910	0.300	-0.450	-0.420
2020/01/31 09:48:26.7	114.910	0.290	-0.480	-0.400
2020/01/31 09:48:26.8	114.900	0.280	-0.500	-0.360
2020/01/31 09:48:26.9	114.890	0.270	-0.520	-0.330
2020/01/31 09:48:27.0	114.880	0.260	-0.530	-0.290
2020/01/31 09:48:27.1	114.870	0.250	-0.550	-0.250
2020/01/31 09:48:27.2	114.860	0.230	-0.560	-0.210
2020/01/31 09:48:27.3	114.840	0.220	-0.570	-0.160
2020/01/31 09:48:27.4	114.830	0.200	-0.580	-0.110
2020/01/31 09:48:27.5	114.820	0.180	-0.580	-0.050
2020/01/31 09:48:27.6	114.800	0.160	-0.580	0.010
2020/01/31 09:48:27.7	114.770	0.140	-0.580	0.070
2020/01/31 09:48:27.8	114.750	0.120	-0.580	0.130
2020/01/31 09:48:27.9	114.730	0.100	-0.570	0.200
2020/01/31 09:48:28.0	114.710	0.080	-0.560	0.280
2020/01/31 09:48:28.1	114.680	0.060	-0.550	0.350
2020/01/31 09:48:28.2	114.650	0.030	-0.530	0.430
2020/01/31 09:48:28.3	114.630	0.010	-0.520	0.520
2020/01/31 09:48:28.4	114.600	-0.020	-0.500	0.600
2020/01/31 09:48:28.5	114.570	-0.040	-0.470	0.690
2020/01/31 09:48:28.6	114.540	-0.070	-0.450	0.780
2020/01/31 09:48:28.7	114.510	-0.090	-0.430	0.880
2020/01/31 09:48:28.8	114.490	-0.120	-0.400	0.970
2020/01/31 09:48:28.9	114.460	-0.140	-0.370	1.070
2020/01/31 09:48:29.0	114.440	-0.170	-0.340	1.170
2020/01/31 09:48:29.1	114.410	-0.190	-0.310	1.260
2020/01/31 09:48:29.2	114.390	-0.210	-0.280	1.360
2020/01/31 09:48:29.3	114.370	-0.230	-0.250	1.450
2020/01/31 09:48:29.4	114.340	-0.250	-0.210	1.550
2020/01/31 09:48:29.5	114.320	-0.270	-0.180	1.640
2020/01/31 09:48:29.6	114.300	-0.290	-0.150	1.730
2020/01/31 09:48:29.7	114.290	-0.310	-0.120	1.820
2020/01/31 09:48:29.8	114.280	-0.320	-0.090	1.900
2020/01/31 09:48:29.9	114.270	-0.340	-0.060	1.980
2020/01/31 09:48:30.0	114.260	-0.350	-0.030	2.060
2020/01/31 09:48:30.1	114.250	-0.360	-0.000	2.130
2020/01/31 09:48:30.2	114.250	-0.370	0.020	2.200
2020/01/31 09:48:30.3	114.250	-0.370	0.050	2.260
2020/01/31 09:48:30.4	114.250	-0.370	0.070	2.310
2020/01/31 09:48:30.5	114.250	-0.380	0.090	2.370
2020/01/31 09:48:30.6	114.250	-0.380	0.110	2.410
2020/01/31 09:48:30.7	114.260	-0.370	0.120	2.460
2020/01/31 09:48:30.8	114.260	-0.370	0.130	2.490
2020/01/31 09:48:30.9	114.270	-0.360	0.140	2.520
2020/01/31 09:48:31.0	114.280	-0.360	0.150	2.550
2020/01/31 09:48:31.1	114.290	-0.350	0.160	2.570
2020/01/31 09:48:31.2	114.300	-0.340	0.170	2.580
2020/01/31 09:48:31.3	114.310	-0.320	0.170	2.590
2020/01/31 09:48:31.4	114.340	-0.310	0.170	2.600
2020/01/31 09:48:31.5	114.360	-0.300	0.170	2.590
2020/01/31 09:48:31.6	114.370	-0.280	0.170	2.580
2020/01/31 09:48:31.7	114.390	-0.270	0.170	2.570
2020/01/31 09:48:31.8	114.410	-0.250	0.160	2.550
2020/01/31 09:48:31.9	114.420	-0.230	0.160	2.520
2020/01/31 09:48:32.0	114.440	-0.210	0.150	2.490
2020/01/31 09:48:32.1	114.460	-0.200	0.150	2.450
2020/01/31 09:48:32.2	114.480	-0.180	0.140	2.410
2020/01/31 09:48:32.3	114.500	-0.160	0.140	2.360
2020/01/31 09:48:32.4	114.530	-0.150	0.130	2.300
2020/01/31 09:48:32.5	114.550	-0.130	0.130	2.240
2020/01/31 09:48:32.6	114.580	-0.110	0.120	2.180
2020/01/31 09:48:32.7	114.600	-0.100	0.110	2.110
2020/01/31 09:48:32.8	114.620	-0.080	0.110	2.040
2020/01/31 09:48:32.9	114.640	-0.070	0.100	1.960
2020/01/31 09:48:33.0	114.660	-0.060	0.090	1.880
2020/01/31 09:48:33.1	114.680	-0.040	0.090	1.800
2020/01/31 09:48:33.2	114.700	-0.030	0.080	1.720
2020/01/31 09:48:33.3	114.720	-0.020	0.070	1.630
2020/01/31 09:48:33.4	114.740	-0.010	0.070	1.550
2020/01/31 09:48:33.5	114.760	-0.010	0.060	1.460
2020/01/31 09:48:33.6	114.770	0.000	0.050	1.370
2020/01/31 09:48:33.7	114.790	0.010	0.040	1.290
2020/01/31 09:48:33.8	114.800	0.010	0.030	1.200
2020/01/31 09:48:33.9	114.810	0.020	0.020	1.120
2020/01/31 09:48:34.0	114.820	0.020	0.010	1.040
2020/01/31 09:48:34.1	114.820	0.020	-0.000	0.960
2020/01/31 09:48:34.2	114.830	0.030	-0.020	0.890
2020/01/31 09:48:34.3	114.830	0.030	-0.030	0.810
2020/01/31 09:48:34.4	114.820	0.030	-0.050	0.740
2020/01/31 09:48:34.5	114.810	0.030	-0.070	0.680
2020/01/31 09:48:34.6	114.810	0.030	-0.090	0.610
2020/01/31 09:48:34.7	114.800	0.030	-0.110	0.560
2020/01/31 09:48:34.8	114.790	0.040	-0.130	0.500
2020/01/31 09:48:34.9	114.780	0.040	-0.160	0.450
2020/01/31 09:48:35.0	114.760	0.040	-0.190	0.400
2020/01/31 09:48:35.1	114.750	0.040	-0.210	0.360
2020/01/31 09:48:35.2	114.730	0.050	-0.250	0.320
2020/01/31 09:48:35.3	114.710	0.050	-0.280	0.280
2020/01/31 09:48:35.4	114.670	0.050	-0.310	0.250
2020/01/31 09:48:35.5	114.650	0.060	-0.350	0.220
2020/01/31 09:48:35.6	114.620	0.060	-0.390	0.190
2020/01/31 09:48:35.7	114.600	0.070	-0.430	0.160
2020/01/31 09:48:35.8	114.570	0.070	-0.470	0.140
2020/01/31 09:48:35.9	114.540	0.080	-0.510	0.120
2020/01/31 09:48:36.0	114.510	0.090	-0.550	0.090
2020/01/31 09:48:36.1	114.480	0.100	-0.600	0.070
2020/01/31 09:48:36.2	114.450	0.100	-0.640	0.060
2020/01/31 09:48:36.3	114.420	0.110	-0.680	0.040
2020/01/31 09:48:36.4	114.370	0.120	-0.720	0.020
2020/01/31 09:48:36.5	114.340	0.130	-0.760	0.000
2020/01/31 09:48:36.6	114.310	0.140	-0.800	-0.010
2020/01/31 09:48:36.7	114.280	0.140	-0.840	-0.030
2020/01/31 09:48:36.8	114.260	0.150	-0.870	-0.050
2020/01/31 09:48:36.9	114.230	0.160	-0.900	-0.060
2020/01/31 09:48:37.0	114.210	0.160	-0.920	-0.070
2020/01/31 09:48:37.1	114.190	0.170	-0.940	-0.090
2020/01/31 09:48:37.2	114.170	0.170	-0.960	-0.100
2020/01/31 09:48:37.3	114.160	0.180	-0.970	-0.110
2020/01/31 09:48:37.4	114.130	0.180	-0.970	-0.130
2020/01/31 09:48:37.5	114.120	0.180	-0.970	-0.140
2020/01/31 09:48:37.6	114.110	0.180	-0.970	-0.140
2020/01/31 09:48:37.7	114.100	0.170	-0.950	-0.150
2020/01/31 09:48:37.8	114.100	0.170	-0.930	-0.150
2020/01/31 09:48:37.9	114.100	0.160	-0.900	-0.150
2020/01/31 09:48:38.0	114.100	0.160	-0.870	-0.150
2020/01/31 09:48:38.1	114.100	0.150	-0.830	-0.150
2020/01/31 09:48:38.2	114.100	0.130	-0.780	-0.140
2020/01/31 09:48:38.3	114.110	0.120	-0.730	-0.130
2020/01/31 09:48:38.4	114.100	0.100	-0.670	-0.120
2020/01/31 09:48:38.5	114.110	0.090	-0.610	-0.100
2020/01/31 09:48:38.6	114.120	0.070	-0.550	-0.090
2020/01/31 09:48:38.7	114.130	0.050	-0.470	-0.070
2020/01/31 09:48:38.8	114.140	0.030	-0.400	-0.050
2020/01/31 09:48:38.9	114.150	0.000	-0.320	-0.030
2020/01/31 09:48:39.0	114.160	-0.020	-0.240	-0.000
2020/01/31 09:48:39.1	114.170	-0.050	-0.160	0.020
2020/01/31 09:48:39.2	114.190	-0.070	-0.080	0.050
2020/01/31 09:48:39.3	114.200	-0.100	0.000	0.070
2020/01/31 09:48:39.4	114.210	-0.130	0.090	0.110
2020/01/31 09:48:39.5	114.220	-0.150	0.170	0.130
2020/01/31 09:48:39.6	114.230	-0.180	0.250	0.160
2020/01/31 09:48:39.7	114.250	-0.210	0.330	0.190
2020/01/31 09:48:39.8	114.260	-0.230	0.410	0.220
2020/01/31 09:48:39.9	114.270	-0.260	0.480	0.240
2020/01/31 09:48:40.0	114.280	-0.280	0.550	0.270
2020/01/31 09:48:40.1	114.290	-0.300	0.610	0.300
2020/01/31 09:48:40.2	114.300	-0.330	0.670	0.330
2020/01/31 09:48:40.3	114.310	-0.340	0.730	0.350
2020/01/31 09:48:40.4	114.300	-0.360	0.780	0.380
2020/01/31 09:48:40.5	114.310	-0.380	0.820	0.410
2020/01/31 09:48:40.6	114.310	-0.390	0.860	0.430
2020/01/31 09:48:40.7	114.310	-0.400	0.890	0.460
2020/01/31 09:48:40.8	114.320	-0.410	0.910	0.480
2020/01/31 09:48:40.9	114.320	-0.410	0.920	0.510
2020/01/31 09:48:41.0	114.320	-0.420	0.930	0.540
2020/01/31 09:48:41.1	114.310	-0.420	0.930	0.560
2020/01/31 09:48:41.2	114.310	-0.410	0.930	0.590
2020/01/31 09:48:41.3	114.310	-0.410	0.920	0.610
2020/01/31 09:48:41.4	114.300	-0.400	0.890	0.640
2020/01/31 09:48:41.5	114.300	-0.390	0.870	0.660
2020/01/31 09:48:41.6	114.290	-0.370	0.830	0.690
2020/01/31 09:48:41.7	114.280	-0.360	0.790	0.710
2020/01/31 09:48:41.8	114.280	-0.340	0.750	0.730
2020/01/31 09:48:41.9	114.270	-0.320	0.700	0.760
2020/01/31 09:48:42.0	114.270	-0.300	0.640	0.780
2020/01/31 09:48:42.1	114.260	-0.270	0.590	0.800
2020/01/31 09:48:42.2	114.250	-0.250	0.520	0.830
2020/01/31 09:48:42.3	114.250	-0.220	0.450	0.850
2020/01/31 09:48:42.4	114.240	-0.190	0.390	0.870
2020/01/31 09:48:42.5	114.230	-0.160	0.310	0.900
2020/01/31 09:48:42.6	114.230	-0.130	0.240	0.920
2020/01/31 09:48:42.7	114.220	-0.100	0.160	0.940
2020/01/31 09:48:42.8	114.220	-0.070	0.090	0.970
2020/01/31 09:48:42.9	114.210	-0.040	0.010	0.990
2020/01/31 09:48:43.0	114.210	-0.000	-0.070	1.010
2020/01/31 09:48:43.1	114.200	0.030	-0.150	1.040
2020/01/31 09:48:43.2	114.200	0.060	-0.230	1.060
2020/01/31 09:48:43.3	114.190	0.090	-0.310	1.080
2020/01/31 09:48:43.4	114.180	0.120	-0.390	1.110
2020/01/31 09:48:43.5	114.180	0.150	-0.460	1.130
2020/01/31 09:48:43.6	114.170	0.180	-0.540	1.150
2020/01/31 09:48:43.7	114.170	0.210	-0.610	1.170
2020/01/31 09:48:43.8	114.160	0.230	-0.680	1.200
2020/01/31 09:48:43.9	114.150	0.260	-0.750	1.220
2020/01/31 09:48:44.0	114.150	0.290	-0.820	1.240
2020/01/31 09:48:44.1	114.140	0.310	-0.880	1.260
2020/01/31 09:48:44.2	114.130	0.330	-0.940	1.280
2020/01/31 09:48:44.3	114.130	0.360	-0.990	1.300
2020/01/31 09:48:44.4	114.110	0.380	-1.040	1.320
2020/01/31 09:48:44.5	114.110	0.400	-1.090	1.340
2020/01/31 09:48:44.6	114.100	0.420	-1.130	1.350
2020/01/31 09:48:44.7	114.090	0.440	-1.170	1.370
2020/01/31 09:48:44.8	114.080	0.460	-1.200	1.380
2020/01/31 09:48:44.9	114.080	0.470	-1.230	1.390
2020/01/31 09:48:45.0	114.070	0.490	-1.250	1.400
2020/01/31 09:48:45.1	114.070	0.500	-1.260	1.410
2020/01/31 09:48:45.2	114.060	0.510	-1.270	1.420
2020/01/31 09:48:45.3	114.060	0.520	-1.270	1.420
2020/01/31 09:48:45.4	114.060	0.530	-1.270	1.420
2020/01/31 09:48:45.5	114.050	0.540	-1.260	1.420
2020/01/31 09:48:45.6	114.050	0.550	-1.240	1.420
2020/01/31 09:48:45.7	114.050	0.550	-1.210	1.420
2020/01/31 09:48:45.8	114.050	0.550	-1.180	1.410
2020/01/31 09:48:45.9	114.050	0.550	-1.140	1.410
2020/01/31 09:48:46.0	114.060	0.550	-1.090	1.400
2020/01/31 09:48:46.1	114.060	0.540	-1.040	1.390
2020/01/31 09:48:46.2	114.060	0.540	-0.980	1.380
2020/01/31 09:48:46.3	114.070	0.530	-0.910	1.370
2020/01/31 09:48:46.4	114.060	0.520	-0.840	1.360
2020/01/31 09:48:46.5	114.070	0.500	-0.760	1.340
2020/01/31 09:48:46.6	114.070	0.480	-0.680	1.330
2020/01/31 09:48:46.7	114.080	0.460	-0.600	1.320
2020/01/31 09:48:46.8	114.090	0.440	-0.510	1.310
2020/01/31 09:48:46.9	114.100	0.420	-0.420	1.300
2020/01/31 09:48:47.0	114.110	0.390	-0.320	1.290
2020/01/31 09:48:47.1	114.120	0.360	-0.230	1.270
2020/01/31 09:48:47.2	114.120	0.330	-0.140	1.260
2020/01/31 09:48:47.3	114.130	0.300	-0.040	1.250
2020/01/31 09:48:47.4	114.130	0.260	0.060	1.240
2020/01/31 09:48:47.5	114.140	0.230	0.150	1.230
2020/01/31 09:48:47.6	114.140	0.190	0.240	1.220
2020/01/31 09:48:47.7	114.150	0.150	0.330	1.210
2020/01/31 09:48:47.8	114.160	0.110	0.410	1.200
2020/01/31 09:48:47.9	114.160	0.070	0.490	1.190
2020/01/31 09:48:48.0	114.170	0.040	0.560	1.180
2020/01/31 09:48:48.1	114.170	-0.000	0.630	1.170
2020/01/31 09:48:48.2	114.170	-0.040	0.690	1.160
2020/01/31 09:48:48.3	114.180	-0.080	0.740	1.150
2020/01/31 09:48:48.4	114.180	-0.120	0.790	1.130
2020/01/31 09:48:48.5	114.180	-0.160	0.820	1.120
2020/01/31 09:48:48.6	114.180	-0.190	0.850	1.110
2020/01/31 09:48:48.7	114.180	-0.230	0.870	1.100
2020/01/31 09:48:48.8	114.180	-0.260	0.890	1.090
2020/01/31 09:48:48.9	114.180	-0.290	0.890	1.090
2020/01/31 09:48:49.0	114.180	-0.320	0.880	1.080
2020/01/31 09:48:49.1	114.180	-0.350	0.870	1.070
2020/01/31 09:48:49.2	114.170	-0.370	0.840	1.060
2020/01/31 09:48:49.3	114.170	-0.400	0.810	1.050
2020/01/31 09:48:49.4	114.160	-0.420	0.770	1.040
2020/01/31 09:48:49.5	114.160	-0.430	0.730	1.030
2020/01/31 09:48:49.6	114.150	-0.450	0.670	1.020
2020/01/31 09:48:49.7	114.150	-0.460	0.610	1.010
2020/01/31 09:48:49.8	114.140	-0.470	0.550	1.000
2020/01/31 09:48:49.9	114.130	-0.480	0.480	1.000
2020/01/31 09:48:50.0	114.130	-0.480	0.400	0.990
2020/01/31 09:48:50.1	114.120	-0.490	0.320	0.990
2020/01/31 09:48:50.2	114.110	-0.490	0.240	0.980
2020/01/31 09:48:50.3	114.090	-0.480	0.160	0.980
2020/01/31 09:48:50.4	114.070	-0.480	0.070	0.980
2020/01/31 09:48:50.5	114.050	-0.480	-0.010	0.980
2020/01/31 09:48:50.6	114.040	-0.470	-0.100	0.980
2020/01/31 09:48:50.7	114.020	-0.460	-0.190	0.980
2020/01/31 09:48:50.8	114.000	-0.450	-0.270	0.980
2020/01/31 09:48:50.9	113.990	-0.440	-0.350	0.990
2020/01/31 09:48:51.0	113.970	-0.430	-0.430	0.990
2020/01/31 09:48:51.1	113.950	-0.420	-0.510	0.990
2020/01/31 09:48:51.2	113.930	-0.400	-0.590	1.000
2020/01/31 09:48:51.3	113.910	-0.390	-0.650	1.010
2020/01/31 09:48:51.4	113.890	-0.370	-0.720	1.010
2020/01/31 09:48:51.5	113.880	-0.360	-0.780	1.010
2020/01/31 09:48:51.6	113.850	-0.340	-0.830	1.020
2020/01/31 09:48:51.7	113.830	-0.330	-0.880	1.020
2020/01/31 09:48:51.8	113.810	-0.310	-0.920	1.030
2020/01/31 09:48:51.9	113.800	-0.300	-0.950	1.030
2020/01/31 09:48:52.0	113.780	-0.290	-0.980	1.030
2020/01/31 09:48:52.1	113.760	-0.270	-1.000	1.030
2020/01/31 09:48:52.2	113.740	-0.260	-1.010	1.030
2020/01/31 09:48:52.3	113.730	-0.250	-1.010	1.030
2020/01/31 09:48:52.4	113.730	-0.240	-1.010	1.030
2020/01/31 09:48:52.5	113.720	-0.230	-1.000	1.030
2020/01/31 09:48:52.6	113.710	-0.220	-0.980	1.030
2020/01/31 09:48:52.7	113.690	-0.220	-0.950	1.020
2020/01/31 09:48:52.8	113.690	-0.210	-0.920	1.020
2020/01/31 09:48:52.9	113.680	-0.210	-0.880	1.010
2020/01/31 09:48:53.0	113.670	-0.200	-0.830	1.000
2020/01/31 09:48:53.1	113.670	-0.200	-0.780	0.990
2020/01/31 09:48:53.2	113.660	-0.200	-0.730	0.980
2020/01/31 09:48:53.3	113.660	-0.200	-0.670	0.970
2020/01/31 09:48:53.4	113.660	-0.200	-0.600	0.960
2020/01/31 09:48:53.5	113.660	-0.200	-0.540	0.940
2020/01/31 09:48:53.6	113.660	-0.200	-0.470	0.930
2020/01/31 09:48:53.7	113.670	-0.200	-0.400	0.910
2020/01/31 09:48:53.8	113.680	-0.210	-0.320	0.890
2020/01/31 09:48:53.9	113.680	-0.210	-0.250	0.870
2020/01/31 09:48:54.0	113.700	-0.210	-0.180	0.840
2020/01/31 09:48:54.1	113.710	-0.210	-0.110	0.820
2020/01/31 09:48:54.2	113.720	-0.210	-0.040	0.790
2020/01/31 09:48:54.3	113.740	-0.210	0.030	0.760
2020/01/31 09:48:54.4	113.760	-0.210	0.090	0.730
2020/01/31 09:48:54.5	113.780	-0.210	0.150	0.700
2020/01/31 09:48:54.6	113.800	-0.210	0.210	0.660
2020/01/31 09:48:54.7	113.830	-0.200	0.260	0.620
2020/01/31 09:48:54.8	113.850	-0.200	0.310	0.590
2020/01/31 09:48:54.9	113.870	-0.190	0.360	0.550
2020/01/31 09:48:55.0	113.900	-0.180	0.400	0.510
2020/01/31 09:48:55.1	113.920	-0.170	0.430	0.460
2020/01/31 09:48:55.2	113.950	-0.160	0.460	0.420
2020/01/31 09:48:55.3	113.970	-0.140	0.490	0.380
2020/01/31 09:48:55.4	114.010	-0.130	0.500	0.340
2020/01/31 09:48:55.5	114.030	-0.110	0.520	0.290
2020/01/31 09:48:55.6	114.060	-0.090	0.520	0.250
2020/01/31 09:48:55.7	114.080	-0.070	0.530	0.210
2020/01/31 09:48:55.8	114.090	-0.050	0.530	0.170
2020/01/31 09:48:55.9	114.110	-0.020	0.520	0.130
2020/01/31 09:48:56.0	114.130	0.000	0.510	0.100
2020/01/31 09:48:56.1	114.140	0.030	0.490	0.070
2020/01/31 09:48:56.2	114.150	0.060	0.470	0.040
2020/01/31 09:48:56.3	114.160	0.090	0.440	0.010
2020/01/31 09:48:56.4	114.160	0.120	0.410	-0.010
2020/01/31 09:48:56.5	114.160	0.150	0.380	-0.030
2020/01/31 09:48:56.6	114.170	0.180	0.340	-0.050
2020/01/31 09:48:56.7	114.170	0.210	0.300	-0.070
2020/01/31 09:48:56.8	114.160	0.240	0.250	-0.080
2020/01/31 09:48:56.9	114.160	0.280	0.210	-0.090
2020/01/31 09:48:57.0	114.150	0.310	0.160	-0.090
2020/01/31 09:48:57.1	114.140	0.340	0.110	-0.100
2020/01/31 09:48:57.2	114.140	0.370	0.060	-0.100
2020/01/31 09:48:57.3	114.130	0.400	0.000	-0.100
2020/01/31 09:48:57.4	114.100	0.430	-0.050	-0.100
2020/01/31 09:48:57.5	114.090	0.450	-0.100	-0.100
2020/01/31 09:48:57.6	114.080	0.480	-0.150	-0.100
2020/01/31 09:48:57.7	114.080	0.500	-0.200	-0.090
2020/01/31 09:48:57.8	114.060	0.530	-0.250	-0.090
2020/01/31 09:48:57.9	114.060	0.550	-0.300	-0.080
2020/01/31 09:48:58.0	114.050	0.570	-0.350	-0.080
2020/01/31 09:48:58.1	114.040	0.580	-0.390	-0.070
2020/01/31 09:48:58.2	114.030	0.600	-0.430	-0.060
2020/01/31 09:48:58.3	114.020	0.610	-0.470	-0.060
2020/01/31 09:48:58.4	114.010	0.620	-0.510	-0.050
2020/01/31 09:48:58.5	114.000	0.630	-0.540	-0.040
2020/01/31 09:48:58.6	113.990	0.640	-0.570	-0.030
2020/01/31 09:48:58.7	113.990	0.640	-0.600	-0.030
2020/01/31 09:48:58.8	113.980	0.640	-0.630	-0.010
2020/01/31 09:48:58.9	113.970	0.640	-0.650	-0.000
2020/01/31 09:48:59.0	113.970	0.630	-0.670	0.010
2020/01/31 09:48:59.1	113.960	0.630	-0.680	0.030
2020/01/31 09:48:59.2	113.950	0.620	-0.690	0.050
2020/01/31 09:48:59.3	113.940	0.610	-0.700	0.070
2020/01/31 09:48:59.4	113.930	0.600	-0.710	0.100
2020/01/31 09:48:59.5	113.920	0.580	-0.710	0.130
2020/01/31 09:48:59.6	113.910	0.560	-0.710	0.160
2020/01/31 09:48:59.7	113.900	0.550	-0.710	0.200
2020/01/31 09:48:59.8	113.880	0.520	-0.700	0.240
2020/01/31 09:48:59.9	113.870	0.500	-0.690	0.290
2020/01/31 09:49:00.0	113.860	0.480	-0.680	0.340
2020/01/31 09:49:00.1	113.840	0.450	-0.670	0.390
2020/01/31 09:49:00.2	113.830	0.430	-0.650	0.440
2020/01/31 09:49:00.3	113.820	0.400	-0.640	0.500
2020/01/31 09:49:00.4	113.800	0.370	-0.620	0.560
2020/01/31 09:49:00.5	113.790	0.340	-0.590	0.620
2020/01/31 09:49:00.6	113.780	0.310	-0.570	0.680
2020/01/31 09:49:00.7	113.770	0.280	-0.550	0.750
2020/01/31 09:49:00.8	113.760	0.250	-0.520	0.810
2020/01/31 09:49:00.9	113.750	0.220	-0.500	0.870
2020/01/31 09:49:01.0	113.750	0.190	-0.470	0.930
2020/01/31 09:49:01.1	113.740	0.160	-0.440	1.000
2020/01/31 09:49:01.2	113.740	0.120	-0.410	1.060
2020/01/31 09:49:01.3	113.730	0.090	-0.370	1.120
2020/01/31 09:49:01.4	113.730	0.070	-0.340	1.170
2020/01/31 09:49:01.5	113.730	0.040	-0.310	1.230
2020/01/31 09:49:01.6	113.740	0.010	-0.270	1.280
2020/01/31 09:49:01.7	113.740	-0.020	-0.240	1.340
2020/01/31 09:49:01.8	113.740	-0.040	-0.210	1.390
2020/01/31 09:49:01.9	113.750	-0.070	-0.170	1.440
2020/01/31 09:49:02.0	113.750	-0.090	-0.140	1.490
2020/01/31 09:49:02.1	113.750	-0.110	-0.110	1.530
2020/01/31 09:49:02.2	113.760	-0.130	-0.080	1.580
2020/01/31 09:49:02.3	113.760	-0.150	-0.050	1.620
2020/01/31 09:49:02.4	113.770	-0.170	-0.010	1.650
2020/01/31 09:49:02.5	113.780	-0.190	0.010	1.690
2020/01/31 09:49:02.6	113.780	-0.200	0.040	1.730
2020/01/31 09:49:02.7	113.780	-0.220	0.070	1.760
2020/01/31 09:49:02.8	113.790	-0.230	0.090	1.790
2020/01/31 09:49:02.9	113.790	-0.250	0.110	1.820
2020/01/31 09:49:03.0	113.790	-0.260	0.140	1.850
2020/01/31 09:49:03.1	113.790	-0.270	0.160	1.870
2020/01/31 09:49:03.2	113.800	-0.280	0.170	1.900
2020/01/31 09:49:03.3	113.800	-0.290	0.190	1.910
2020/01/31 09:49:03.4	113.810	-0.300	0.200	1.930
2020/01/31 09:49:03.5	113.810	-0.310	0.210	1.940
2020/01/31 09:49:03.6	113.810	-0.320	0.230	1.950
2020/01/31 09:49:03.7	113.810	-0.330	0.240	1.960
2020/01/31 09:49:03.8	113.810	-0.340	0.250	1.970
2020/01/31 09:49:03.9	113.820	-0.350	0.250	1.970
2020/01/31 09:49:04.0	113.820	-0.360	0.260	1.970
2020/01/31 09:49:04.1	113.820	-0.370	0.270	1.970
2020/01/31 09:49:04.2	113.830	-0.380	0.270	1.970
2020/01/31 09:49:04.3	113.830	-0.390	0.270	1.970
2020/01/31 09:49:04.4	113.840	-0.400	0.280	1.950
2020/01/31 09:49:04.5	113.840	-0.400	0.280	1.950
2020/01/31 09:49:04.6	113.850	-0.410	0.270	1.930
2020/01/31 09:49:04.7	113.850	-0.420	0.270	1.920
2020/01/31 09:49:04.8	113.850	-0.420	0.270	1.910
2020/01/31 09:49:04.9	113.860	-0.430	0.260	1.890
2020/01/31 09:49:05.0	113.860	-0.430	0.250	1.870
2020/01/31 09:49:05.1	113.870	-0.440	0.240	1.850
2020/01/31 09:49:05.2	113.870	-0.440	0.230	1.830
2020/01/31 09:49:05.3	113.870	-0.440	0.220	1.810
2020/01/31 09:49:05.4	113.890	-0.440	0.200	1.790
2020/01/31 09:49:05.5	113.900	-0.430	0.190	1.760
2020/01/31 09:49:05.6	113.900	-0.430	0.170	1.730
2020/01/31 09:49:05.7	113.900	-0.430	0.140	1.700
2020/01/31 09:49:05.8	113.900	-0.420	0.120	1.670
2020/01/31 09:49:05.9	113.910	-0.410	0.090	1.640
2020/01/31 09:49:06.0	113.910	-0.400	0.070	1.600
2020/01/31 09:49:06.1	113.910	-0.390	0.040	1.570
2020/01/31 09:49:06.2	113.920	-0.380	0.000	1.530
2020/01/31 09:49:06.3	113.920	-0.360	-0.030	1.490
2020/01/31 09:49:06.4	113.940	-0.350	-0.070	1.460
2020/01/31 09:49:06.5	113.940	-0.330	-0.100	1.420
2020/01/31 09:49:06.6	113.940	-0.310	-0.140	1.380
2020/01/31 09:49:06.7	113.950	-0.300	-0.180	1.340
2020/01/31 09:49:06.8	113.950	-0.280	-0.220	1.290
2020/01/31 09:49:06.9	113.950	-0.260	-0.250	1.250
2020/01/31 09:49:07.0	113.950	-0.240	-0.290	1.210
2020/01/31 09:49:07.1	113.950	-0.220	-0.330	1.170
2020/01/31 09:49:07.2	113.960	-0.200	-0.360	1.120
2020/01/31 09:49:07.3	113.960	-0.180	-0.390	1.080
2020/01/31 09:49:07.4	113.960	-0.160	-0.430	1.040
2020/01/31 09:49:07.5	113.960	-0.140	-0.460	1.000
2020/01/31 09:49:07.6	113.960	-0.120	-0.480	0.950
2020/01/31 09:49:07.7	113.960	-0.100	-0.510	0.910
2020/01/31 09:49:07.8	113.950	-0.090	-0.530	0.870
2020/01/31 09:49:07.9	113.950	-0.070	-0.540	0.830
2020/01/31 09:49:08.0	113.940	-0.050	-0.560	0.790
2020/01/31 09:49:08.1	113.940	-0.040	-0.570	0.760
2020/01/31 09:49:08.2	113.930	-0.030	-0.570	0.720
2020/01/31 09:49:08.3	113.920	-0.020	-0.580	0.680
2020/01/31 09:49:08.4	113.910	-0.010	-0.580	0.640
2020/01/31 09:49:08.5	113.910	0.000	-0.580	0.600
2020/01/31 09:49:08.6	113.890	0.010	-0.570	0.570
2020/01/31 09:49:08.7	113.880	0.020	-0.560	0.530
2020/01/31 09:49:08.8	113.870	0.020	-0.550	0.500
2020/01/31 09:49:08.9	113.860	0.030	-0.540	0.460
2020/01/31 09:49:09.0	113.850	0.030	-0.520	0.430
2020/01/31 09:49:09.1	113.830	0.030	-0.500	0.400
2020/01/31 09:49:09.2	113.820	0.030	-0.480	0.370
2020/01/31 09:49:09.3	113.800	0.040	-0.460	0.330
2020/01/31 09:49:09.4	113.770	0.040	-0.440	0.300
2020/01/31 09:49:09.5	113.760	0.040	-0.420	0.270
2020/01/31 09:49:09.6	113.740	0.040	-0.400	0.240
2020/01/31 09:49:09.7	113.730	0.040	-0.380	0.210
2020/01/31 09:49:09.8	113.710	0.040	-0.360	0.190
2020/01/31 09:49:09.9	113.690	0.040	-0.340	0.160
2020/01/31 09:49:10.0	113.680	0.050	-0.330	0.130
2020/01/31 09:49:10.1	113.660	0.050	-0.310	0.100
2020/01/31 09:49:10.2	113.650	0.050	-0.290	0.070
2020/01/31 09:49:10.3	113.630	0.060	-0.280	0.040
2020/01/31 09:49:10.4	113.610	0.060	-0.270	0.010
2020/01/31 09:49:10.5	113.600	0.070	-0.260	-0.020
2020/01/31 09:49:10.6	113.590	0.080	-0.250	-0.050
2020/01/31 09:49:10.7	113.580	0.090	-0.250	-0.080
2020/01/31 09:49:10.8	113.570	0.100	-0.240	-0.110
2020/01/31 09:49:10.9	113.560	0.110	-0.240	-0.150
2020/01/31 09:49:11.0	113.550	0.120	-0.240	-0.180
2020/01/31 09:49:11.1	113.540	0.140	-0.240	-0.210
2020/01/31 09:49:11.2	113.530	0.150	-0.250	-0.240
2020/01/31 09:49:11.3	113.530	0.170	-0.250	-0.270
2020/01/31 09:49:11.4	113.510	0.180	-0.250	-0.300
2020/01/31 09:49:11.5	113.500	0.200	-0.260	-0.320
2020/01/31 09:49:11.6	113.500	0.210	-0.260	-0.350
2020/01/31 09:49:11.7	113.500	0.230	-0.270	-0.370
2020/01/31 09:49:11.8	113.490	0.240	-0.270	-0.390
2020/01/31 09:49:11.9	113.490	0.260	-0.270	-0.400
2020/01/31 09:49:12.0	113.490	0.270	-0.280	-0.410
2020/01/31 09:49:12.1	113.490	0.280	-0.280	-0.420
2020/01/31 09:49:12.2	113.490	0.290	-0.270	-0.430
2020/01/31 09:49:12.3	113.490	0.300	-0.270	-0.430
2020/01/31 09:49:12.4	113.500	0.310	-0.260	-0.430
2020/01/31 09:49:12.5	113.510	0.320	-0.250	-0.430
2020/01/31 09:49:12.6	113.510	0.330	-0.240	-0.420
2020/01/31 09:49:12.7	113.510	0.330	-0.220	-0.410
2020/01/31 09:49:12.8	113.520	0.330	-0.200	-0.400
2020/01/31 09:49:12.9	113.520	0.330	-0.180	-0.380
2020/01/31 09:49:13.0	113.530	0.330	-0.160	-0.360
2020/01/31 09:49:13.1	113.530	0.330	-0.130	-0.340
2020/01/31 09:49:13.2	113.540	0.320	-0.090	-0.310
2020/01/31 09:49:13.3	113.550	0.310	-0.060	-0.290
2020/01/31 09:49:13.4	113.570	0.300	-0.020	-0.260
2020/01/31 09:49:13.5	113.570	0.290	0.020	-0.230
2020/01/31 09:49:13.6	113.580	0.280	0.060	-0.190
2020/01/31 09:49:13.7	113.590	0.260	0.110	-0.160
2020/01/31 09:49:13.8	113.600	0.250	0.160	-0.120
2020/01/31 09:49:13.9	113.610	0.230	0.210	-0.080
2020/01/31 09:49:14.0	113.610	0.210	0.250	-0.040
2020/01/31 09:49:14.1	113.620	0.190	0.300	0.010
2020/01/31 09:49:14.2	113.630	0.170	0.350	0.050
2020/01/31 09:49:14.3	113.640	0.150	0.400	0.100
2020/01/31 09:49:14.4	113.650	0.120	0.440	0.150
2020/01/31 09:49:14.5	113.660	0.100	0.490	0.190
2020/01/31 09:49:14.6	113.660	0.080	0.520	0.240
2020/01/31 09:49:14.7	113.670	0.060	0.560	0.290
2020/01/31 09:49:14.8	113.680	0.030	0.590	0.340
2020/01/31 09:49:14.9	113.680	0.010	0.610	0.390
2020/01/31 09:49:15.0	113.690	-0.010	0.630	0.440
2020/01/31 09:49:15.1	113.690	-0.030	0.640	0.490
2020/01/31 09:49:15.2	113.690	-0.050	0.650	0.540
2020/01/31 09:49:15.3	113.700	-0.060	0.650	0.590
2020/01/31 09:49:15.4	113.700	-0.080	0.640	0.640
2020/01/31 09:49:15.5	113.710	-0.090	0.620	0.690
2020/01/31 09:49:15.6	113.710	-0.100	0.600	0.740
2020/01/31 09:49:15.7	113.710	-0.110	0.570	0.780
2020/01/31 09:49:15.8	113.710	-0.120	0.530	0.830
2020/01/31 09:49:15.9	113.700	-0.120	0.490	0.880
2020/01/31 09:49:16.0	113.700	-0.130	0.440	0.930
2020/01/31 09:49:16.1	113.700	-0.130	0.380	0.970
2020/01/31 09:49:16.2	113.700	-0.130	0.310	1.020
2020/01/31 09:49:16.3	113.690	-0.120	0.240	1.060
2020/01/31 09:49:16.4	113.690	-0.120	0.170	1.100
2020/01/31 09:49:16.5	113.680	-0.110	0.090	1.150
2020/01/31 09:49:16.6	113.680	-0.100	0.000	1.190
2020/01/31 09:49:16.7	113.670	-0.090	-0.090	1.240
2020/01/31 09:49:16.8	113.660	-0.070	-0.180	1.280
2020/01/31 09:49:16.9	113.650	-0.060	-0.270	1.330
2020/01/31 09:49:17.0	113.640	-0.040	-0.360	1.370
2020/01/31 09:49:17.1	113.630	-0.030	-0.460	1.420
2020/01/31 09:49:17.2	113.610	-0.010	-0.550	1.470
2020/01/31 09:49:17.3	113.600	0.010	-0.640	1.520
2020/01/31 09:49:17.4	113.580	0.030	-0.730	1.570
2020/01/31 09:49:17.5	113.570	0.050	-0.810	1.620
2020/01/31 09:49:17.6	113.550	0.070	-0.890	1.670
2020/01/31 09:49:17.7	113.530	0.090	-0.970	1.720
2020/01/31 09:49:17.8	113.510	0.110	-1.030	1.770
2020/01/31 09:49:17.9	113.490	0.130	-1.100	1.820
2020/01/31 09:49:18.0	113.470	0.150	-1.150	1.880
2020/01/31 09:49:18.1	113.450	0.170	-1.200	1.930
2020/01/31 09:49:18.2	113.430	0.190	-1.230	1.980
2020/01/31 09:49:18.3	113.410	0.200	-1.260	2.030
2020/01/31 09:49:18.4	113.390	0.210	-1.280	2.070
2020/01/31 09:49:18.5	113.370	0.230	-1.290	2.120
2020/01/31 09:49:18.6	113.350	0.230	-1.290	2.170
2020/01/31 09:49:18.7	113.330	0.240	-1.280	2.210
2020/01/31 09:49:18.8	113.310	0.240	-1.260	2.250
2020/01/31 09:49:18.9	113.300	0.240	-1.230	2.290
2020/01/31 09:49:19.0	113.290	0.240	-1.190	2.330
2020/01/31 09:49:19.1	113.270	0.240	-1.150	2.360
2020/01/31 09:49:19.2	113.260	0.230	-1.090	2.390
2020/01/31 09:49:19.3	113.250	0.220	-1.030	2.410
2020/01/31 09:49:19.4	113.230	0.210	-0.960	2.440
2020/01/31 09:49:19.5	113.230	0.200	-0.890	2.450
2020/01/31 09:49:19.6	113.220	0.180	-0.810	2.470
2020/01/31 09:49:19.7	113.220	0.160	-0.730	2.480
2020/01/31 09:49:19.8	113.220	0.140	-0.640	2.480
2020/01/31 09:49:19.9	113.220	0.120	-0.560	2.480
2020/01/31 09:49:20.0	113.220	0.100	-0.470	2.480
2020/01/31 09:49:20.1	113.220	0.070	-0.380	2.480
2020/01/31 09:49:20.2	113.220	0.050	-0.300	2.460
2020/01/31 09:49:20.3	113.220	0.020	-0.220	2.450
2020/01/31 09:49:20.4	113.230	-0.000	-0.130	2.420
2020/01/31 09:49:20.5	113.240	-0.030	-0.050	2.400
2020/01/31 09:49:20.6	113.240	-0.060	0.020	2.370
2020/01/31 09:49:20.7	113.250	-0.080	0.090	2.340
2020/01/31 09:49:20.8	113.250	-0.110	0.150	2.310
2020/01/31 09:49:20.9	113.260	-0.130	0.210	2.270
2020/01/31 09:49:21.0	113.260	-0.160	0.260	2.230
2020/01/31 09:49:21.1	113.270	-0.180	0.300	2.190
2020/01/31 09:49:21.2	113.270	-0.200	0.340	2.150
2020/01/31 09:49:21.3	113.270	-0.220	0.370	2.100
2020/01/31 09:49:21.4	113.270	-0.240	0.390	2.050
2020/01/31 09:49:21.5	113.270	-0.260	0.410	2.000
2020/01/31 09:49:21.6	113.270	-0.280	0.420	1.950
2020/01/31 09:49:21.7	113.270	-0.290	0.420	1.890
2020/01/31 09:49:21.8	113.270	-0.300	0.420	1.840
2020/01/31 09:49:21.9	113.270	-0.320	0.420	1.780
2020/01/31 09:49:22.0	113.270	-0.330	0.410	1.730
2020/01/31 09:49:22.1	113.270	-0.340	0.400	1.670
2020/01/31 09:49:22.2	113.260	-0.350	0.380	1.610
2020/01/31 09:49:22.3	113.260	-0.360	0.370	1.550
2020/01/31 09:49:22.4	113.260	-0.370	0.350	1.490
2020/01/31 09:49:22.5	113.260	-0.380	0.330	1.420
2020/01/31 09:49:22.6	113.250	-0.390	0.310	1.360
2020/01/31 09:49:22.7	113.250	-0.400	0.290	1.300
2020/01/31 09:49:22.8	113.250	-0.400	0.270	1.240
2020/01/31 09:49:22.9	113.240	-0.410	0.250	1.170
2020/01/31 09:49:23.0	113.240	-0.420	0.240	1.110
2020/01/31 09:49:23.1	113.240	-0.430	0.220	1.050
2020/01/31 09:49:23.2	113.230	-0.440	0.210	0.980
2020/01/31 09:49:23.3	113.230	-0.450	0.200	0.920
2020/01/31 09:49:23.4	113.220	-0.450	0.200	0.850
2020/01/31 09:49:23.5	113.220	-0.460	0.190	0.790
2020/01/31 09:49:23.6	113.210	-0.470	0.190	0.720
2020/01/31 09:49:23.7	113.200	-0.480	0.190	0.660
2020/01/31 09:49:23.8	113.200	-0.490	0.190	0.600
2020/01/31 09:49:23.9	113.190	-0.490	0.190	0.540
2020/01/31 09:49:24.0	113.180	-0.500	0.200	0.470
2020/01/31 09:49:24.1	113.170	-0.510	0.200	0.410
2020/01/31 09:49:24.2	113.160	-0.510	0.210	0.350
2020/01/31 09:49:24.3	113.140	-0.510	0.220	0.290
2020/01/31 09:49:24.4	113.130	-0.520	0.220	0.230
2020/01/31 09:49:24.5	113.110	-0.520	0.230	0.170
2020/01/31 09:49:24.6	113.100	-0.510	0.230	0.110
2020/01/31 09:49:24.7	113.080	-0.510	0.230	0.050
2020/01/31 09:49:24.8	113.060	-0.500	0.230	-0.000
2020/01/31 09:49:24.9	113.050	-0.490	0.230	-0.060
2020/01/31 09:49:25.0	113.030	-0.480	0.220	-0.120
2020/01/31 09:49:25.1	113.010	-0.470	0.210	-0.180
2020/01/31 09:49:25.2	112.990	-0.450	0.200	-0.230
2020/01/31 09:49:25.3	112.970	-0.430	0.180	-0.290
2020/01/31 09:49:25.4	112.930	-0.410	0.160	-0.350
2020/01/31 09:49:25.5	112.920	-0.380	0.140	-0.400
2020/01/31 09:49:25.6	112.900	-0.350	0.110	-0.460
2020/01/31 09:49:25.7	112.880	-0.320	0.080	-0.520
2020/01/31 09:49:25.8	112.870	-0.290	0.040	-0.570
2020/01/31 09:49:25.9	112.850	-0.250	0.000	-0.630
2020/01/31 09:49:26.0	112.840	-0.210	-0.040	-0.680
2020/01/31 09:49:26.1	112.830	-0.160	-0.090	-0.740
2020/01/31 09:49:26.2	112.820	-0.120	-0.140	-0.790
2020/01/31 09:49:26.3	112.810	-0.070	-0.200	-0.840
2020/01/31 09:49:26.4	112.790	-0.020	-0.250	-0.890
2020/01/31 09:49:26.5	112.790	0.030	-0.310	-0.930
2020/01/31 09:49:26.6	112.780	0.080	-0.370	-0.970
2020/01/31 09:49:26.7	112.780	0.140	-0.440	-1.010
2020/01/31 09:49:26.8	112.770	0.190	-0.500	-1.050
2020/01/31 09:49:26.9	112.770	0.250	-0.570	-1.080
2020/01/31 09:49:27.0	112.770	0.300	-0.630	-1.100
2020/01/31 09:49:27.1	112.770	0.360	-0.690	-1.120
2020/01/31 09:49:27.2	112.770	0.410	-0.760	-1.140
2020/01/31 09:49:27.3	112.770	0.470	-0.820	-1.160
2020/01/31 09:49:27.4	112.770	0.520	-0.870	-1.160
2020/01/31 09:49:27.5	112.780	0.570	-0.930	-1.170
2020/01/31 09:49:27.6	112.780	0.620	-0.980	-1.170
2020/01/31 09:49:27.7	112.780	0.670	-1.030	-1.160
2020/01/31 09:49:27.8	112.790	0.720	-1.080	-1.150
2020/01/31 09:49:27.9	112.790	0.760	-1.120	-1.140
2020/01/31 09:49:28.0	112.790	0.800	-1.150	-1.120
2020/01/31 09:49:28.1	112.800	0.840	-1.180	-1.100
2020/01/31 09:49:28.2	112.800	0.870	-1.210	-1.070
2020/01/31 09:49:28.3	112.800	0.900	-1.230	-1.040
2020/01/31 09:49:28.4	112.810	0.930	-1.230	-1.000
2020/01/31 09:49:28.5	112.820	0.950	-1.240	-0.960
2020/01/31 09:49:28.6	112.820	0.970	-1.240	-0.920
2020/01/31 09:49:28.7	112.820	0.980	-1.230	-0.870
2020/01/31 09:49:28.8	112.820	0.990	-1.210	-0.820
2020/01/31 09:49:28.9	112.820	1.000	-1.180	-0.760
2020/01/31 09:49:29.0	112.820	1.000	-1.150	-0.700
2020/01/31 09:49:29.1	112.810	0.990	-1.110	-0.640
2020/01/31 09:49:29.2	112.810	0.980	-1.070	-0.580
2020/01/31 09:49:29.3	112.810	0.970	-1.010	-0.520
2020/01/31 09:49:29.4	112.820	0.950	-0.950	-0.450
2020/01/31 09:49:29.5	112.820	0.930	-0.880	-0.380
2020/01/31 09:49:29.6	112.820	0.900	-0.810	-0.310
2020/01/31 09:49:29.7	112.820	0.870	-0.740	-0.230
2020/01/31 09:49:29.8	112.820	0.840	-0.660	-0.160
2020/01/31 09:49:29.9	112.820	0.800	-0.570	-0.090
2020/01/31 09:49:30.0	112.820	0.750	-0.480	-0.010
2020/01/31 09:49:30.1	112.820	0.700	-0.390	0.060
2020/01/31 09:49:30.2	112.820	0.650	-0.300	0.140
2020/01/31 09:49:30.3	112.820	0.590	-0.200	0.210
2020/01/31 09:49:30.4	112.820	0.540	-0.100	0.290
2020/01/31 09:49:30.5	112.820	0.480	-0.000	0.370
2020/01/31 09:49:30.6	112.830	0.410	0.100	0.450
2020/01/31 09:49:30.7	112.830	0.350	0.190	0.520
2020/01/31 09:49:30.8	112.830	0.280	0.290	0.600
2020/01/31 09:49:30.9	112.820	0.210	0.380	0.670
2020/01/31 09:49:31.0	112.820	0.140	0.470	0.750
2020/01/31 09:49:31.1	112.820	0.070	0.560	0.830
2020/01/31 09:49:31.2	112.820	-0.000	0.640	0.910
2020/01/31 09:49:31.3	112.810	-0.070	0.730	0.990
2020/01/31 09:49:31.4	112.810	-0.140	0.810	1.070
2020/01/31 09:49:31.5	112.800	-0.210	0.880	1.150
2020/01/31 09:49:31.6	112.790	-0.280	0.950	1.230
2020/01/31 09:49:31.7	112.780	-0.340	1.010	1.310
2020/01/31 09:49:31.8	112.770	-0.410	1.070	1.400
2020/01/31 09:49:31.9	112.760	-0.470	1.120	1.480
2020/01/31 09:49:32.0	112.750	-0.530	1.160	1.570
2020/01/31 09:49:32.1	112.740	-0.580	1.200	1.650
2020/01/31 09:49:32.2	112.730	-0.630	1.240	1.740
2020/01/31 09:49:32.3	112.710	-0.680	1.260	1.830
2020/01/31 09:49:32.4	112.700	-0.730	1.290	1.910
2020/01/31 09:49:32.5	112.680	-0.770	1.300	1.990
2020/01/31 09:49:32.6	112.670	-0.800	1.310	2.080
2020/01/31 09:49:32.7	112.660	-0.840	1.310	2.160
2020/01/31 09:49:32.8	112.650	-0.860	1.300	2.240
2020/01/31 09:49:32.9	112.640	-0.890	1.290	2.320
2020/01/31 09:49:33.0	112.630	-0.900	1.260	2.390
2020/01/31 09:49:33.1	112.620	-0.920	1.240	2.460
2020/01/31 09:49:33.2	112.620	-0.930	1.200	2.530
2020/01/31 09:49:33.3	112.610	-0.930	1.160	2.590
2020/01/31 09:49:33.4	112.620	-0.930	1.110	2.650
2020/01/31 09:49:33.5	112.620	-0.920	1.050	2.700
2020/01/31 09:49:33.6	112.620	-0.910	0.980	2.750
2020/01/31 09:49:33.7	112.620	-0.900	0.910	2.800
2020/01/31 09:49:33.8	112.610	-0.880	0.830	2.840
2020/01/31 09:49:33.9	112.620	-0.860	0.740	2.870
2020/01/31 09:49:34.0	112.620	-0.830	0.640	2.900
2020/01/31 09:49:34.1	112.620	-0.800	0.540	2.920
2020/01/31 09:49:34.2	112.620	-0.760	0.430	2.940
2020/01/31 09:49:34.3	112.620	-0.720	0.320	2.960
2020/01/31 09:49:34.4	112.620	-0.680	0.200	2.960
2020/01/31 09:49:34.5	112.620	-0.630	0.080	2.970
2020/01/31 09:49:34.6	112.620	-0.580	-0.050	2.970
2020/01/31 09:49:34.7	112.620	-0.530	-0.180	2.960
2020/01/31 09:49:34.8	112.620	-0.480	-0.320	2.950
2020/01/31 09:49:34.9	112.620	-0.420	-0.450	2.940
2020/01/31 09:49:35.0	112.620	-0.360	-0.590	2.920
2020/01/31 09:49:35.1	112.610	-0.300	-0.730	2.900
2020/01/31 09:49:35.2	112.610	-0.240	-0.870	2.880
2020/01/31 09:49:35.3	112.600	-0.170	-1.000	2.850
2020/01/31 09:49:35.4	112.580	-0.110	-1.140	2.820
2020/01/31 09:49:35.5	112.580	-0.040	-1.270	2.790
2020/01/31 09:49:35.6	112.570	0.020	-1.400	2.750
2020/01/31 09:49:35.7	112.560	0.090	-1.520	2.720
2020/01/31 09:49:35.8	112.540	0.150	-1.630	2.680
2020/01/31 09:49:35.9	112.530	0.220	-1.740	2.650
2020/01/31 09:49:36.0	112.520	0.280	-1.840	2.610
2020/01/31 09:49:36.1	112.510	0.340	-1.930	2.570
2020/01/31 09:49:36.2	112.490	0.400	-2.010	2.520
2020/01/31 09:49:36.3	112.480	0.460	-2.080	2.480
2020/01/31 09:49:36.4	112.470	0.510	-2.140	2.440
2020/01/31 09:49:36.5	112.460	0.560	-2.190	2.390
2020/01/31 09:49:36.6	112.450	0.610	-2.230	2.350
2020/01/31 09:49:36.7	112.430	0.650	-2.250	2.300
2020/01/31 09:49:36.8	112.420	0.690	-2.250	2.250
2020/01/31 09:49:36.9	112.400	0.730	-2.250	2.210
2020/01/31 09:49:37.0	112.390	0.760	-2.230	2.160
2020/01/31 09:49:37.1	112.380	0.790	-2.200	2.110
2020/01/31 09:49:37.2	112.370	0.810	-2.150	2.060
2020/01/31 09:49:37.3	112.350	0.830	-2.090	2.000
2020/01/31 09:49:37.4	112.340	0.840	-2.010	1.950
2020/01/31 09:49:37.5	112.330	0.840	-1.930	1.890
2020/01/31 09:49:37.6	112.320	0.840	-1.830	1.840
2020/01/31 09:49:37.7	112.310	0.840	-1.720	1.780
2020/01/31 09:49:37.8	112.300	0.830	-1.600	1.720
2020/01/31 09:49:37.9	112.300	0.810	-1.470	1.660
2020/01/31 09:49:38.0	112.290	0.790	-1.330	1.600
2020/01/31 09:49:38.1	112.290	0.760	-1.180	1.530
2020/01/31 09:49:38.2	112.280	0.730	-1.020	1.470
2020/01/31 09:49:38.3	112.280	0.700	-0.860	1.410
2020/01/31 09:49:38.4	112.280	0.660	-0.700	1.340
2020/01/31 09:49:38.5	112.280	0.610	-0.530	1.270
2020/01/31 09:49:38.6	112.280	0.560	-0.350	1.210
2020/01/31 09:49:38.7	112.280	0.510	-0.180	1.140
2020/01/31 09:49:38.8	112.280	0.450	-0.010	1.070
2020/01/31 09:49:38.9	112.280	0.390	0.160	1.000
2020/01/31 09:49:39.0	112.280	0.330	0.330	0.920
2020/01/31 09:49:39.1	112.280	0.260	0.490	0.850
2020/01/31 09:49:39.2	112.290	0.200	0.650	0.780
2020/01/31 09:49:39.3	112.290	0.130	0.800	0.700
2020/01/31 09:49:39.4	112.280	0.060	0.950	0.630
2020/01/31 09:49:39.5	112.280	-0.010	1.090	0.560
2020/01/31 09:49:39.6	112.280	-0.080	1.220	0.480
2020/01/31 09:49:39.7	112.280	-0.150	1.340	0.410
2020/01/31 09:49:39.8	112.280	-0.210	1.450	0.330
2020/01/31 09:49:39.9	112.280	-0.280	1.550	0.260
2020/01/31 09:49:40.0	112.270	-0.340	1.630	0.190
2020/01/31 09:49:40.1	112.270	-0.400	1.710	0.110
2020/01/31 09:49:40.2	112.260	-0.460	1.770	0.040
2020/01/31 09:49:40.3	112.250	-0.510	1.820	-0.030
2020/01/31 09:49:40.4	112.240	-0.560	1.860	-0.100
2020/01/31 09:49:40.5	112.230	-0.610	1.890	-0.160
2020/01/31 09:49:40.6	112.220	-0.650	1.900	-0.220
2020/01/31 09:49:40.7	112.200	-0.680	1.900	-0.280
2020/01/31 09:49:40.8	112.190	-0.720	1.880	-0.340
2020/01/31 09:49:40.9	112.170	-0.740	1.850	-0.390
2020/01/31 09:49:41.0	112.160	-0.760	1.810	-0.450
2020/01/31 09:49:41.1	112.140	-0.780	1.760	-0.500
2020/01/31 09:49:41.2	112.130	-0.790	1.700	-0.540
2020/01/31 09:49:41.3	112.110	-0.800	1.620	-0.590
2020/01/31 09:49:41.4	112.090	-0.800	1.540	-0.630
2020/01/31 09:49:41.5	112.070	-0.800	1.440	-0.670
2020/01/31 09:49:41.6	112.060	-0.790	1.340	-0.710
2020/01/31 09:49:41.7	112.040	-0.770	1.230	-0.750
2020/01/31 09:49:41.8	112.030	-0.750	1.110	-0.780
2020/01/31 09:49:41.9	112.020	-0.730	0.980	-0.810
2020/01/31 09:49:42.0	112.010	-0.710	0.850	-0.850
2020/01/31 09:49:42.1	112.000	-0.680	0.710	-0.880
2020/01/31 09:49:42.2	111.990	-0.640	0.570	-0.900
2020/01/31 09:49:42.3	111.990	-0.610	0.430	-0.930
2020/01/31 09:49:42.4	111.990	-0.570	0.290	-0.960
2020/01/31 09:49:42.5	111.990	-0.530	0.140	-0.980
2020/01/31 09:49:42.6	111.990	-0.480	-0.010	-1.000
2020/01/31 09:49:42.7	111.990	-0.440	-0.150	-1.020
2020/01/31 09:49:42.8	112.000	-0.390	-0.290	-1.040
2020/01/31 09:49:42.9	112.000	-0.340	-0.430	-1.050
2020/01/31 09:49:43.0	112.010	-0.300	-0.570	-1.060
2020/01/31 09:49:43.1	112.020	-0.250	-0.700	-1.070
2020/01/31 09:49:43.2	112.020	-0.200	-0.830	-1.080
2020/01/31 09:49:43.3	112.040	-0.150	-0.950	-1.080
2020/01/31 09:49:43.4	112.060	-0.100	-1.070	-1.080
2020/01/31 09:49:43.5	112.070	-0.050	-1.180	-1.070
2020/01/31 09:49:43.6	112.080	-0.010	-1.280	-1.070
2020/01/31 09:49:43.7	112.090	0.040	-1.370	-1.050
2020/01/31 09:49:43.8	112.110	0.080	-1.460	-1.040
2020/01/31 09:49:43.9	112.120	0.130	-1.540	-1.020
2020/01/31 09:49:44.0	112.130	0.170	-1.600	-0.990
2020/01/31 09:49:44.1	112.140	0.210	-1.660	-0.970
2020/01/31 09:49:44.2	112.160	0.250	-1.710	-0.930
2020/01/31 09:49:44.3	112.170	0.280	-1.750	-0.900
2020/01/31 09:49:44.4	112.190	0.320	-1.780	-0.860
2020/01/31 09:49:44.5	112.200	0.350	-1.800	-0.810
2020/01/31 09:49:44.6	112.210	0.380	-1.810	-0.760
2020/01/31 09:49:44.7	112.220	0.410	-1.810	-0.710
2020/01/31 09:49:44.8	112.230	0.430	-1.810	-0.650
2020/01/31 09:49:44.9	112.240	0.460	-1.790	-0.590
2020/01/31 09:49:45.0	112.240	0.480	-1.760	-0.520
2020/01/31 09:49:45.1	112.250	0.500	-1.730	-0.460
2020/01/31 09:49:45.2	112.260	0.510	-1.680	-0.390
2020/01/31 09:49:45.3	112.260	0.530	-1.630	-0.310
2020/01/31 09:49:45.4	112.280	0.540	-1.560	-0.230
2020/01/31 09:49:45.5	112.290	0.550	-1.490	-0.160
2020/01/31 09:49:45.6	112.290	0.560	-1.410	-0.080
2020/01/31 09:49:45.7	112.290	0.570	-1.330	0.010
2020/01/31 09:49:45.8	112.300	0.570	-1.230	0.090
2020/01/31 09:49:45.9	112.300	0.570	-1.130	0.170
2020/01/31 09:49:46.0	112.300	0.570	-1.030	0.260
2020/01/31 09:49:46.1	112.300	0.570	-0.920	0.340
2020/01/31 09:49:46.2	112.300	0.570	-0.800	0.430
2020/01/31 09:49:46.3	112.300	0.560	-0.680	0.510
2020/01/31 09:49:46.4	112.280	0.550	-0.560	0.600
2020/01/31 09:49:46.5	112.280	0.540	-0.430	0.680
2020/01/31 09:49:46.6	112.270	0.530	-0.300	0.770
2020/01/31 09:49:46.7	112.270	0.510	-0.180	0.850
2020/01/31 09:49:46.8	112.260	0.490	-0.050	0.930
2020/01/31 09:49:46.9	112.250	0.470	0.070	1.010
2020/01/31 09:49:47.0	112.240	0.450	0.190	1.090
2020/01/31 09:49:47.1	112.230	0.430	0.310	1.170
2020/01/31 09:49:47.2	112.220	0.410	0.430	1.250
2020/01/31 09:49:47.3	112.200	0.380	0.540	1.320
2020/01/31 09:49:47.4	112.180	0.360	0.640	1.390
2020/01/31 09:49:47.5	112.160	0.330	0.740	1.460
2020/01/31 09:49:47.6	112.140	0.300	0.830	1.530
2020/01/31 09:49:47.7	112.120	0.270	0.910	1.600
2020/01/31 09:49:47.8	112.100	0.250	0.990	1.660
2020/01/31 09:49:47.9	112.080	0.220	1.050	1.730
2020/01/31 09:49:48.0	112.060	0.190	1.110	1.790
2020/01/31 09:49:48.1	112.030	0.160	1.160	1.840
2020/01/31 09:49:48.2	112.000	0.140	1.190	1.900
2020/01/31 09:49:48.3	111.980	0.110	1.220	1.950
2020/01/31 09:49:48.4	111.950	0.080	1.230	2.000
2020/01/31 09:49:48.5	111.920	0.060	1.240	2.050
2020/01/31 09:49:48.6	111.890	0.040	1.230	2.100
2020/01/31 09:49:48.7	111.860	0.020	1.220	2.140
2020/01/31 09:49:48.8	111.840	0.000	1.190	2.180
2020/01/31 09:49:48.9	111.810	-0.020	1.160	2.220
2020/01/31 09:49:49.0	111.780	-0.030	1.110	2.260
2020/01/31 09:49:49.1	111.750	-0.040	1.050	2.290
2020/01/31 09:49:49.2	111.730	-0.050	0.990	2.320
2020/01/31 09:49:49.3	111.700	-0.060	0.910	2.340
2020/01/31 09:49:49.4	111.680	-0.070	0.840	2.360
2020/01/31 09:49:49.5	111.660	-0.070	0.750	2.380
2020/01/31 09:49:49.6	111.640	-0.070	0.650	2.400
2020/01/31 09:49:49.7	111.620	-0.070	0.560	2.410
2020/01/31 09:49:49.8	111.610	-0.070	0.450	2.410
2020/01/31 09:49:49.9	111.590	-0.070	0.340	2.410
2020/01/31 09:49:50.0	111.580	-0.060	0.230	2.410
2020/01/31 09:49:50.1	111.570	-0.060	0.120	2.410
2020/01/31 09:49:50.2	111.570	-0.050	0.000	2.400
2020/01/31 09:49:50.3	111.560	-0.040	-0.110	2.390
2020/01/31 09:49:50.4	111.560	-0.030	-0.230	2.370
2020/01/31 09:49:50.5	111.560	-0.030	-0.340	2.350
2020/01/31 09:49:50.6	111.570	-0.020	-0.450	2.330
2020/01/31 09:49:50.7	111.570	-0.010	-0.560	2.300
2020/01/31 09:49:50.8	111.580	-0.000	-0.660	2.270
2020/01/31 09:49:50.9	111.580	0.000	-0.760	2.240
2020/01/31 09:49:51.0	111.590	0.010	-0.850	2.210
2020/01/31 09:49:51.1	111.600	0.020	-0.940	2.180
2020/01/31 09:49:51.2	111.610	0.020	-1.020	2.140
2020/01/31 09:49:51.3	111.630	0.020	-1.090	2.100
2020/01/31 09:49:51.4	111.650	0.020	-1.160	2.070
2020/01/31 09:49:51.5	111.670	0.020	-1.220	2.030
2020/01/31 09:49:51.6	111.680	0.020	-1.270	1.980
2020/01/31 09:49:51.7	111.700	0.020	-1.310	1.940
2020/01/31 09:49:51.8	111.720	0.010	-1.340	1.890
2020/01/31 09:49:51.9	111.740	0.010	-1.360	1.850
2020/01/31 09:49:52.0	111.750	-0.000	-1.370	1.800
2020/01/31 09:49:52.1	111.770	-0.010	-1.370	1.750
2020/01/31 09:49:52.2	111.790	-0.020	-1.360	1.710
2020/01/31 09:49:52.3	111.810	-0.040	-1.350	1.660
2020/01/31 09:49:52.4	111.820	-0.050	-1.330	1.610
2020/01/31 09:49:52.5	111.830	-0.060	-1.300	1.560
2020/01/31 09:49:52.6	111.850	-0.080	-1.260	1.510
2020/01/31 09:49:52.7	111.860	-0.100	-1.210	1.470
2020/01/31 09:49:52.8	111.880	-0.110	-1.160	1.420
2020/01/31 09:49:52.9	111.890	-0.130	-1.110	1.380
2020/01/31 09:49:53.0	111.900	-0.150	-1.050	1.330
2020/01/31 09:49:53.1	111.900	-0.170	-0.990	1.290
2020/01/31 09:49:53.2	111.910	-0.190	-0.920	1.250
2020/01/31 09:49:53.3	111.910	-0.200	-0.850	1.210
2020/01/31 09:49:53.4	111.920	-0.220	-0.780	1.180
2020/01/31 09:49:53.5	111.920	-0.240	-0.710	1.150
2020/01/31 09:49:53.6	111.910	-0.250	-0.640	1.110
2020/01/31 09:49:53.7	111.910	-0.270	-0.560	1.080
2020/01/31 09:49:53.8	111.900	-0.280	-0.490	1.060
2020/01/31 09:49:53.9	111.900	-0.290	-0.420	1.030
2020/01/31 09:49:54.0	111.890	-0.300	-0.350	1.010
2020/01/31 09:49:54.1	111.880	-0.310	-0.280	0.980
2020/01/31 09:49:54.2	111.870	-0.320	-0.220	0.960
2020/01/31 09:49:54.3	111.850	-0.320	-0.150	0.940
2020/01/31 09:49:54.4	111.830	-0.330	-0.090	0.920
2020/01/31 09:49:54.5	111.820	-0.330	-0.030	0.900
2020/01/31 09:49:54.6	111.800	-0.330	0.030	0.880
2020/01/31 09:49:54.7	111.790	-0.330	0.080	0.860
2020/01/31 09:49:54.8	111.780	-0.330	0.140	0.830
2020/01/31 09:49:54.9	111.770	-0.330	0.190	0.810
2020/01/31 09:49:55.0	111.760	-0.330	0.240	0.790
2020/01/31 09:49:55.1	111.750	-0.330	0.280	0.760
2020/01/31 09:49:55.2	111.740	-0.320	0.330	0.730
2020/01/31 09:49:55.3	111.730	-0.320	0.370	0.700
2020/01/31 09:49:55.4	111.710	-0.310	0.410	0.660
2020/01/31 09:49:55.5	111.700	-0.310	0.450	0.630
2020/01/31 09:49:55.6	111.700	-0.300	0.480	0.590
2020/01/31 09:49:55.7	111.700	-0.300	0.520	0.550
2020/01/31 09:49:55.8	111.710	-0.290	0.550	0.510
2020/01/31 09:49:55.9	111.710	-0.290	0.580	0.470
2020/01/31 09:49:56.0	111.710	-0.280	0.600	0.420
2020/01/31 09:49:56.1	111.720	-0.280	0.630	0.370
2020/01/31 09:49:56.2	111.730	-0.270	0.650	0.330
2020/01/31 09:49:56.3	111.740	-0.270	0.670	0.280
2020/01/31 09:49:56.4	111.740	-0.260	0.690	0.230
2020/01/31 09:49:56.5	111.750	-0.260	0.710	0.180
2020/01/31 09:49:56.6	111.760	-0.250	0.720	0.120
2020/01/31 09:49:56.7	111.770	-0.250	0.730	0.070
2020/01/31 09:49:56.8	111.780	-0.240	0.740	0.020
2020/01/31 09:49:56.9	111.790	-0.230	0.750	-0.030
2020/01/31 09:49:57.0	111.800	-0.230	0.750	-0.080
2020/01/31 09:49:57.1	111.820	-0.220	0.750	-0.130
2020/01/31 09:49:57.2	111.830	-0.220	0.740	-0.180
2020/01/31 09:49:57.3	111.830	-0.210	0.730	-0.230
2020/01/31 09:49:57.4	111.830	-0.200	0.720	-0.270
2020/01/31 09:49:57.5	111.840	-0.190	0.700	-0.320
2020/01/31 09:49:57.6	111.850	-0.180	0.680	-0.360
2020/01/31 09:49:57.7	111.850	-0.170	0.660	-0.400
2020/01/31 09:49:57.8	111.860	-0.150	0.630	-0.440
2020/01/31 09:49:57.9	111.860	-0.140	0.600	-0.480
2020/01/31 09:49:58.0	111.860	-0.120	0.560	-0.520
2020/01/31 09:49:58.1	111.860	-0.100	0.520	-0.550
2020/01/31 09:49:58.2	111.860	-0.080	0.470	-0.580
2020/01/31 09:49:58.3	111.850	-0.060	0.420	-0.610
2020/01/31 09:49:58.4	111.850	-0.040	0.370	-0.630
2020/01/31 09:49:58.5	111.850	-0.010	0.310	-0.650
2020/01/31 09:49:58.6	111.840	0.020	0.240	-0.670
2020/01/31 09:49:58.7	111.830	0.050	0.180	-0.690
2020/01/31 09:49:58.8	111.820	0.080	0.110	-0.700
2020/01/31 09:49:58.9	111.810	0.110	0.030	-0.710
2020/01/31 09:49:59.0	111.800	0.150	-0.040	-0.720
2020/01/31 09:49:59.1	111.790	0.180	-0.120	-0.730
2020/01/31 09:49:59.2	111.770	0.220	-0.200	-0.730
2020/01/31 09:49:59.3	111.760	0.260	-0.290	-0.740
2020/01/31 09:49:59.4	111.760	0.300	-0.370	-0.730
2020/01/31 09:49:59.5	111.740	0.340	-0.460	-0.730
2020/01/31 09:49:59.6	111.730	0.380	-0.550	-0.730
2020/01/31 09:49:59.7	111.720	0.430	-0.630	-0.720
2020/01/31 09:49:59.8	111.700	0.470	-0.720	-0.710
2020/01/31 09:49:59.9	111.690	0.510	-0.810	-0.700
2020/01/31 09:50:00.0	111.680	0.550	-0.890	-0.680
2020/01/31 09:50:00.1	111.670	0.590	-0.970	-0.660
2020/01/31 09:50:00.2	111.660	0.630	-1.050	-0.640
2020/01/31 09:50:00.3	111.650	0.670	-1.130	-0.620
2020/01/31 09:50:00.4	111.660	0.710	-1.200	-0.590
2020/01/31 09:50:00.5	111.650	0.740	-1.270	-0.570
2020/01/31 09:50:00.6	111.650	0.780	-1.330	-0.540
2020/01/31 09:50:00.7	111.650	0.810	-1.380	-0.500
2020/01/31 09:50:00.8	111.650	0.830	-1.430	-0.470
2020/01/31 09:50:00.9	111.650	0.860	-1.480	-0.430
2020/01/31 09:50:01.0	111.650	0.880	-1.510	-0.390
2020/01/31 09:50:01.1	111.660	0.890	-1.540	-0.350
2020/01/31 09:50:01.2	111.670	0.900	-1.550	-0.300
2020/01/31 09:50:01.3	111.680	0.910	-1.560	-0.250
2020/01/31 09:50:01.4	111.700	0.910	-1.560	-0.200
2020/01/31 09:50:01.5	111.720	0.910	-1.550	-0.140
2020/01/31 09:50:01.6	111.730	0.910	-1.520	-0.080
2020/01/31 09:50:01.7	111.750	0.900	-1.490	-0.020
2020/01/31 09:50:01.8	111.770	0.880	-1.450	0.050
2020/01/31 09:50:01.9	111.790	0.860	-1.400	0.120
2020/01/31 09:50:02.0	111.810	0.840	-1.340	0.190
2020/01/31 09:50:02.1	111.830	0.810	-1.270	0.270
2020/01/31 09:50:02.2	111.850	0.770	-1.190	0.340
2020/01/31 09:50:02.3	111.870	0.730	-1.100	0.430
2020/01/31 09:50:02.4	111.910	0.690	-1.000	0.510
2020/01/31 09:50:02.5	111.930	0.640	-0.900	0.600
2020/01/31 09:50:02.6	111.950	0.590	-0.790	0.690
2020/01/31 09:50:02.7	111.980	0.540	-0.670	0.780
2020/01/31 09:50:02.8	112.000	0.480	-0.550	0.880
2020/01/31 09:50:02.9	112.020	0.420	-0.430	0.970
2020/01/31 09:50:03.0	112.040	0.360	-0.300	1.070
2020/01/31 09:50:03.1	112.070	0.300	-0.180	1.170
2020/01/31 09:50:03.2	112.090	0.230	-0.050	1.270
2020/01/31 09:50:03.3	112.110	0.160	0.080	1.370
2020/01/31 09:50:03.4	112.120	0.090	0.210	1.470
2020/01/31 09:50:03.5	112.140	0.020	0.340	1.570
2020/01/31 09:50:03.6	112.160	-0.040	0.460	1.670
2020/01/31 09:50:03.7	112.170	-0.110	0.570	1.760
2020/01/31 09:50:03.8	112.190	-0.180	0.680	1.860
2020/01/31 09:50:03.9	112.200	-0.250	0.790	1.960
2020/01/31 09:50:04.0	112.210	-0.310	0.890	2.050
2020/01/31 09:50:04.1	112.220	-0.370	0.980	2.140
2020/01/31 09:50:04.2	112.220	-0.430	1.060	2.230
2020/01/31 09:50:04.3	112.230	-0.490	1.130	2.320
2020/01/31 09:50:04.4	112.230	-0.540	1.190	2.400
2020/01/31 09:50:04.5	112.230	-0.590	1.240	2.480
2020/01/31 09:50:04.6	112.230	-0.640	1.280	2.550
2020/01/31 09:50:04.7	112.230	-0.680	1.310	2.630
2020/01/31 09:50:04.8	112.220	-0.710	1.330	2.700
2020/01/31 09:50:04.9	112.210	-0.750	1.340	2.760
2020/01/31 09:50:05.0	112.210	-0.780	1.330	2.820
2020/01/31 09:50:05.1	112.200	-0.800	1.320	2.880
2020/01/31 09:50:05.2	112.190	-0.820	1.300	2.930
2020/01/31 09:50:05.3	112.180	-0.830	1.260	2.970
2020/01/31 09:50:05.4	112.180	-0.840	1.220	3.010
2020/01/31 09:50:05.5	112.170	-0.840	1.160	3.050
2020/01/31 09:50:05.6	112.150	-0.840	1.100	3.080
2020/01/31 09:50:05.7	112.140	-0.830	1.030	3.110
2020/01/31 09:50:05.8	112.120	-0.820	0.950	3.140
2020/01/31 09:50:05.9	112.100	-0.800	0.870	3.150
2020/01/31 09:50:06.0	112.080	-0.780	0.770	3.170
2020/01/31 09:50:06.1	112.070	-0.760	0.680	3.180
2020/01/31 09:50:06.2	112.050	-0.730	0.580	3.180
2020/01/31 09:50:06.3	112.030	-0.700	0.470	3.180
2020/01/31 09:50:06.4	112.020	-0.660	0.360	3.170
2020/01/31 09:50:06.5	112.000	-0.620	0.250	3.160
2020/01/31 09:50:06.6	111.980	-0.580	0.140	3.150
2020/01/31 09:50:06.7	111.960	-0.540	0.030	3.130
2020/01/31 09:50:06.8	111.940	-0.490	-0.080	3.100
2020/01/31 09:50:06.9	111.920	-0.440	-0.190	3.080
2020/01/31 09:50:07.0	111.900	-0.390	-0.310	3.040
2020/01/31 09:50:07.1	111.880	-0.340	-0.410	3.010
2020/01/31 09:50:07.2	111.860	-0.290	-0.520	2.970
2020/01/31 09:50:07.3	111.840	-0.240	-0.630	2.930
2020/01/31 09:50:07.4	111.810	-0.180	-0.730	2.880
2020/01/31 09:50:07.5	111.790	-0.130	-0.820	2.830
2020/01/31 09:50:07.6	111.770	-0.070	-0.920	2.780
2020/01/31 09:50:07.7	111.750	-0.020	-1.000	2.730
2020/01/31 09:50:07.8	111.730	0.030	-1.090	2.670
2020/01/31 09:50:07.9	111.710	0.080	-1.160	2.610
2020/01/31 09:50:08.0	111.690	0.130	-1.240	2.550
2020/01/31 09:50:08.1	111.670	0.180	-1.300	2.490
2020/01/31 09:50:08.2	111.650	0.230	-1.360	2.430
2020/01/31 09:50:08.3	111.630	0.270	-1.410	2.370
2020/01/31 09:50:08.4	111.630	0.310	-1.450	2.300
2020/01/31 09:50:08.5	111.620	0.350	-1.490	2.230
2020/01/31 09:50:08.6	111.600	0.380	-1.520	2.160
2020/01/31 09:50:08.7	111.590	0.410	-1.530	2.090
2020/01/31 09:50:08.8	111.580	0.440	-1.540	2.010
2020/01/31 09:50:08.9	111.570	0.460	-1.540	1.940
2020/01/31 09:50:09.0	111.560	0.480	-1.540	1.860
2020/01/31 09:50:09.1	111.560	0.490	-1.520	1.790
2020/01/31 09:50:09.2	111.550	0.500	-1.490	1.710
2020/01/31 09:50:09.3	111.550	0.510	-1.460	1.620
2020/01/31 09:50:09.4	111.550	0.510	-1.410	1.540
2020/01/31 09:50:09.5	111.550	0.510	-1.360	1.460
2020/01/31 09:50:09.6	111.560	0.500	-1.300	1.370
2020/01/31 09:50:09.7	111.560	0.490	-1.230	1.280
2020/01/31 09:50:09.8	111.570	0.480	-1.160	1.190
2020/01/31 09:50:09.9	111.580	0.460	-1.080	1.100
2020/01/31 09:50:10.0	111.590	0.430	-0.990	1.000
2020/01/31 09:50:10.1	111.610	0.410	-0.900	0.910
2020/01/31 09:50:10.2	111.630	0.380	-0.800	0.810
2020/01/31 09:50:10.3	111.640	0.340	-0.700	0.710
2020/01/31 09:50:10.4	111.650	0.310	-0.590	0.610
2020/01/31 09:50:10.5	111.670	0.270	-0.490	0.510
2020/01/31 09:50:10.6	111.690	0.230	-0.380	0.410
2020/01/31 09:50:10.7	111.720	0.190	-0.270	0.300
2020/01/31 09:50:10.8	111.740	0.150	-0.160	0.200
2020/01/31 09:50:10.9	111.770	0.110	-0.050	0.100
2020/01/31 09:50:11.0	111.800	0.060	0.060	-0.010
2020/01/31 09:50:11.1	111.830	0.020	0.160	-0.110
2020/01/31 09:50:11.2	111.850	-0.020	0.270	-0.220
2020/01/31 09:50:11.3	111.880	-0.070	0.360	-0.320
2020/01/31 09:50:11.4	111.890	-0.110	0.460	-0.420
2020/01/31 09:50:11.5	111.920	-0.150	0.550	-0.520
2020/01/31 09:50:11.6	111.950	-0.190	0.640	-0.620
2020/01/31 09:50:11.7	111.980	-0.230	0.720	-0.720
2020/01/31 09:50:11.8	112.010	-0.270	0.800	-0.820
2020/01/31 09:50:11.9	112.040	-0.300	0.860	-0.910
2020/01/31 09:50:12.0	112.070	-0.340	0.930	-0.990
2020/01/31 09:50:12.1	112.100	-0.370	0.980	-1.080
2020/01/31 09:50:12.2	112.120	-0.390	1.030	-1.160
2020/01/31 09:50:12.3	112.150	-0.420	1.070	-1.230
2020/01/31 09:50:12.4	112.160	-0.440	1.100	-1.300
2020/01/31 09:50:12.5	112.190	-0.450	1.120	-1.360
2020/01/31 09:50:12.6	112.210	-0.470	1.140	-1.420
2020/01/31 09:50:12.7	112.220	-0.480	1.140	-1.470
2020/01/31 09:50:12.8	112.240	-0.480	1.140	-1.510
2020/01/31 09:50:12.9	112.250	-0.480	1.130	-1.550
2020/01/31 09:50:13.0	112.260	-0.480	1.110	-1.580
2020/01/31 09:50:13.1	112.270	-0.480	1.080	-1.600
2020/01/31 09:50:13.2	112.270	-0.470	1.040	-1.620
2020/01/31 09:50:13.3	112.280	-0.460	1.000	-1.620
2020/01/31 09:50:13.4	112.260	-0.440	0.950	-1.620
2020/01/31 09:50:13.5	112.260	-0.420	0.890	-1.620
2020/01/31 09:50:13.6	112.260	-0.400	0.820	-1.610
2020/01/31 09:50:13.7	112.250	-0.370	0.750	-1.590
2020/01/31 09:50:13.8	112.250	-0.340	0.670	-1.570
2020/01/31 09:50:13.9	112.240	-0.310	0.590	-1.540
2020/01/31 09:50:14.0	112.230	-0.280	0.500	-1.510
2020/01/31 09:50:14.1	112.210	-0.240	0.410	-1.470
2020/01/31 09:50:14.2	112.200	-0.200	0.320	-1.430
2020/01/31 09:50:14.3	112.180	-0.160	0.220	-1.380
2020/01/31 09:50:14.4	112.160	-0.120	0.130	-1.320
2020/01/31 09:50:14.5	112.150	-0.080	0.030	-1.260
2020/01/31 09:50:14.6	112.130	-0.040	-0.070	-1.200
2020/01/31 09:50:14.7	112.110	0.010	-0.170	-1.130
2020/01/31 09:50:14.8	112.090	0.050	-0.260	-1.060
2020/01/31 09:50:14.9	112.070	0.090	-0.360	-0.980
2020/01/31 09:50:15.0	112.040	0.130	-0.450	-0.900
2020/01/31 09:50:15.1	112.020	0.170	-0.540	-0.820
2020/01/31 09:50:15.2	112.000	0.210	-0.630	-0.730
2020/01/31 09:50:15.3	111.980	0.250	-0.710	-0.640
2020/01/31 09:50:15.4	111.960	0.290	-0.780	-0.550
2020/01/31 09:50:15.5	111.940	0.320	-0.850	-0.460
2020/01/31 09:50:15.6	111.920	0.350	-0.920	-0.360
2020/01/31 09:50:15.7	111.910	0.380	-0.980	-0.260
2020/01/31 09:50:15.8	111.890	0.410	-1.030	-0.160
2020/01/31 09:50:15.9	111.870	0.430	-1.080	-0.060
2020/01/31 09:50:16.0	111.860	0.450	-1.120	0.040
2020/01/31 09:50:16.1	111.840	0.470	-1.150	0.140
2020/01/31 09:50:16.2	111.830	0.480	-1.170	0.240
2020/01/31 09:50:16.3	111.820	0.500	-1.190	0.340
2020/01/31 09:50:16.4	111.810	0.500	-1.200	0.440
2020/01/31 09:50:16.5	111.800	0.510	-1.200	0.540
2020/01/31 09:50:16.6	111.790	0.510	-1.200	0.640
2020/01/31 09:50:16.7	111.780	0.510	-1.190	0.740
2020/01/31 09:50:16.8	111.770	0.510	-1.170	0.830
2020/01/31 09:50:16.9	111.770	0.500	-1.140	0.930
2020/01/31 09:50:17.0	111.760	0.490	-1.110	1.020
2020/01/31 09:50:17.1	111.750	0.480	-1.070	1.110
2020/01/31 09:50:17.2	111.750	0.460	-1.030	1.190
2020/01/31 09:50:17.3	111.740	0.450	-0.970	1.270
2020/01/31 09:50:17.4	111.740	0.430	-0.910	1.360
2020/01/31 09:50:17.5	111.740	0.410	-0.850	1.430
2020/01/31 09:50:17.6	111.730	0.380	-0.790	1.510
2020/01/31 09:50:17.7	111.730	0.360	-0.720	1.580
2020/01/31 09:50:17.8	111.730	0.330	-0.640	1.640
2020/01/31 09:50:17.9	111.740	0.300	-0.570	1.700
2020/01/31 09:50:18.0	111.740	0.270	-0.490	1.760
2020/01/31 09:50:18.1	111.740	0.250	-0.410	1.820
2020/01/31 09:50:18.2	111.750	0.220	-0.330	1.870
2020/01/31 09:50:18.3	111.760	0.190	-0.250	1.920
2020/01/31 09:50:18.4	111.770	0.160	-0.180	1.960
2020/01/31 09:50:18.5	111.780	0.130	-0.100	2.000
2020/01/31 09:50:18.6	111.790	0.100	-0.020	2.030
2020/01/31 09:50:18.7	111.810	0.080	0.050	2.070
2020/01/31 09:50:18.8	111.820	0.050	0.120	2.100
2020/01/31 09:50:18.9	111.840	0.030	0.180	2.130
2020/01/31 09:50:19.0	111.850	0.000	0.240	2.160
2020/01/31 09:50:19.1	111.870	-0.020	0.290	2.180
2020/01/31 09:50:19.2	111.890	-0.040	0.340	2.200
2020/01/31 09:50:19.3	111.910	-0.050	0.380	2.220
2020/01/31 09:50:19.4	111.920	-0.070	0.420	2.240
2020/01/31 09:50:19.5	111.940	-0.080	0.440	2.260
2020/01/31 09:50:19.6	111.960	-0.090	0.460	2.280
2020/01/31 09:50:19.7	111.980	-0.100	0.480	2.290
2020/01/31 09:50:19.8	112.000	-0.100	0.480	2.300
2020/01/31 09:50:19.9	112.020	-0.100	0.480	2.320
2020/01/31 09:50:20.0	112.040	-0.100	0.470	2.330
2020/01/31 09:50:20.1	112.060	-0.100	0.450	2.340
2020/01/31 09:50:20.2	112.080	-0.100	0.420	2.350
2020/01/31 09:50:20.3	112.100	-0.090	0.390	2.350
2020/01/31 09:50:20.4	112.120	-0.080	0.350	2.360
2020/01/31 09:50:20.5	112.140	-0.070	0.310	2.360
2020/01/31 09:50:20.6	112.150	-0.060	0.260	2.360
2020/01/31 09:50:20.7	112.170	-0.050	0.200	2.370
2020/01/31 09:50:20.8	112.190	-0.030	0.150	2.360
2020/01/31 09:50:20.9	112.200	-0.020	0.090	2.360
2020/01/31 09:50:21.0	112.220	-0.000	0.020	2.360
2020/01/31 09:50:21.1	112.230	0.010	-0.040	2.350
2020/01/31 09:50:21.2	112.250	0.030	-0.100	2.340
2020/01/31 09:50:21.3	112.260	0.050	-0.170	2.330
2020/01/31 09:50:21.4	112.290	0.060	-0.230	2.320
2020/01/31 09:50:21.5	112.300	0.080	-0.290	2.310
2020/01/31 09:50:21.6	112.310	0.090	-0.350	2.290
2020/01/31 09:50:21.7	112.320	0.100	-0.410	2.270
2020/01/31 09:50:21.8	112.330	0.110	-0.460	2.250
2020/01/31 09:50:21.9	112.340	0.120	-0.510	2.220
2020/01/31 09:50:22.0	112.350	0.130	-0.550	2.200
2020/01/31 09:50:22.1	112.360	0.130	-0.590	2.170
2020/01/31 09:50:22.2	112.360	0.140	-0.620	2.140
2020/01/31 09:50:22.3	112.370	0.140	-0.650	2.100
2020/01/31 09:50:22.4	112.370	0.130	-0.670	2.070
2020/01/31 09:50:22.5	112.370	0.130	-0.680	2.030
2020/01/31 09:50:22.6	112.370	0.120	-0.690	1.990
2020/01/31 09:50:22.7	112.370	0.110	-0.690	1.960
2020/01/31 09:50:22.8	112.370	0.100	-0.690	1.920
2020/01/31 09:50:22.9	112.370	0.080	-0.680	1.880
2020/01/31 09:50:23.0	112.370	0.070	-0.660	1.830
2020/01/31 09:50:23.1	112.360	0.050	-0.640	1.790
2020/01/31 09:50:23.2	112.360	0.030	-0.610	1.750
2020/01/31 09:50:23.3	112.350	0.000	-0.580	1.710
2020/01/31 09:50:23.4	112.340	-0.020	-0.540	1.660
2020/01/31 09:50:23.5	112.330	-0.050	-0.500	1.620
2020/01/31 09:50:23.6	112.320	-0.080	-0.460	1.570
2020/01/31 09:50:23.7	112.310	-0.110	-0.410	1.530
2020/01/31 09:50:23.8	112.300	-0.140	-0.360	1.480
2020/01/31 09:50:23.9	112.280	-0.170	-0.310	1.430
2020/01/31 09:50:24.0	112.270	-0.200	-0.260	1.390
2020/01/31 09:50:24.1	112.260	-0.230	-0.200	1.340
2020/01/31 09:50:24.2	112.240	-0.260	-0.150	1.290
2020/01/31 09:50:24.3	112.230	-0.290	-0.100	1.250
2020/01/31 09:50:24.4	112.220	-0.320	-0.040	1.200
2020/01/31 09:50:24.5	112.210	-0.350	0.010	1.150
2020/01/31 09:50:24.6	112.190	-0.370	0.060	1.100
2020/01/31 09:50:24.7	112.180	-0.400	0.100	1.050
2020/01/31 09:50:24.8	112.170	-0.420	0.150	1.000
2020/01/31 09:50:24.9	112.150	-0.440	0.190	0.950
2020/01/31 09:50:25.0	112.140	-0.460	0.220	0.900
2020/01/31 09:50:25.1	112.130	-0.480	0.260	0.850
2020/01/31 09:50:25.2	112.120	-0.490	0.290	0.790
2020/01/31 09:50:25.3	112.100	-0.500	0.310	0.740
2020/01/31 09:50:25.4	112.080	-0.510	0.330	0.690
2020/01/31 09:50:25.5	112.070	-0.520	0.350	0.630
2020/01/31 09:50:25.6	112.060	-0.520	0.360	0.580
2020/01/31 09:50:25.7	112.050	-0.520	0.370	0.520
2020/01/31 09:50:25.8	112.050	-0.520	0.380	0.460
2020/01/31 09:50:25.9	112.040	-0.520	0.380	0.410
2020/01/31 09:50:26.0	112.040	-0.510	0.380	0.350
2020/01/31 09:50:26.1	112.030	-0.510	0.380	0.290
2020/01/31 09:50:26.2	112.030	-0.500	0.370	0.240
2020/01/31 09:50:26.3	112.030	-0.490	0.360	0.180
2020/01/31 09:50:26.4	112.010	-0.470	0.350	0.130
2020/01/31 09:50:26.5	112.010	-0.460	0.340	0.070
2020/01/31 09:50:26.6	112.010	-0.440	0.330	0.020
2020/01/31 09:50:26.7	112.010	-0.420	0.310	-0.030
2020/01/31 09:50:26.8	112.010	-0.400	0.290	-0.080
2020/01/31 09:50:26.9	112.020	-0.380	0.270	-0.120
2020/01/31 09:50:27.0	112.020	-0.360	0.250	-0.170
2020/01/31 09:50:27.1	112.030	-0.340	0.230	-0.210
2020/01/31 09:50:27.2	112.040	-0.310	0.210	-0.260
2020/01/31 09:50:27.3	112.050	-0.290	0.180	-0.300
2020/01/31 09:50:27.4	112.050	-0.260	0.160	-0.340
2020/01/31 09:50:27.5	112.060	-0.240	0.140	-0.380
2020/01/31 09:50:27.6	112.080	-0.210	0.120	-0.420
2020/01/31 09:50:27.7	112.090	-0.190	0.100	-0.460
2020/01/31 09:50:27.8	112.110	-0.160	0.080	-0.500
2020/01/31 09:50:27.9	112.130	-0.140	0.060	-0.540
2020/01/31 09:50:28.0	112.150	-0.110	0.030	-0.580
2020/01/31 09:50:28.1	112.180	-0.080	0.010	-0.610
2020/01/31 09:50:28.2	112.200	-0.060	-0.010	-0.650
2020/01/31 09:50:28.3	112.230	-0.030	-0.030	-0.690
2020/01/31 09:50:28.4	112.260	-0.010	-0.050	-0.730
2020/01/31 09:50:28.5	112.290	0.020	-0.080	-0.770
2020/01/31 09:50:28.6	112.320	0.050	-0.100	-0.810
2020/01/31 09:50:28.7	112.350	0.070	-0.120	-0.840
2020/01/31 09:50:28.8	112.380	0.100	-0.150	-0.880
2020/01/31 09:50:28.9	112.410	0.130	-0.170	-0.920
2020/01/31 09:50:29.0	112.440	0.150	-0.200	-0.950
2020/01/31 09:50:29.1	112.470	0.180	-0.230	-0.980
2020/01/31 09:50:29.2	112.500	0.210	-0.260	-1.010
2020/01/31 09:50:29.3	112.530	0.230	-0.290	-1.030
2020/01/31 09:50:29.4	112.560	0.260	-0.320	-1.060
2020/01/31 09:50:29.5	112.590	0.290	-0.360	-1.080
2020/01/31 09:50:29.6	112.610	0.320	-0.390	-1.090
2020/01/31 09:50:29.7	112.640	0.340	-0.430	-1.100
2020/01/31 09:50:29.8	112.660	0.370	-0.470	-1.110
2020/01/31 09:50:29.9	112.680	0.400	-0.510	-1.110
2020/01/31 09:50:30.0	112.700	0.430	-0.550	-1.110
2020/01/31 09:50:30.1	112.710	0.460	-0.590	-1.110
2020/01/31 09:50:30.2	112.730	0.480	-0.630	-1.090
2020/01/31 09:50:30.3	112.740	0.510	-0.670	-1.070
2020/01/31 09:50:30.4	112.760	0.540	-0.710	-1.050
2020/01/31 09:50:30.5	112.770	0.560	-0.750	-1.020
2020/01/31 09:50:30.6	112.770	0.590	-0.790	-0.980
2020/01/31 09:50:30.7	112.780	0.610	-0.820	-0.940
2020/01/31 09:50:30.8	112.780	0.630	-0.850	-0.890
2020/01/31 09:50:30.9	112.780	0.650	-0.880	-0.840
2020/01/31 09:50:31.0	112.780	0.670	-0.910	-0.780
2020/01/31 09:50:31.1	112.780	0.690	-0.930	-0.710
2020/01/31 09:50:31.2	112.780	0.700	-0.950	-0.640
2020/01/31 09:50:31.3	112.780	0.710	-0.970	-0.560
2020/01/31 09:50:31.4	112.780	0.720	-0.970	-0.480
2020/01/31 09:50:31.5	112.770	0.720	-0.980	-0.390
2020/01/31 09:50:31.6	112.770	0.730	-0.980	-0.300
2020/01/31 09:50:31.7	112.760	0.720	-0.970	-0.200
2020/01/31 09:50:31.8	112.760	0.720	-0.950	-0.100
2020/01/31 09:50:31.9	112.750	0.710	-0.940	0.010
2020/01/31 09:50:32.0	112.750	0.700	-0.910	0.120
2020/01/31 09:50:32.1	112.740	0.680	-0.880	0.240
2020/01/31 09:50:32.2	112.740	0.660	-0.840	0.350
2020/01/31 09:50:32.3	112.730	0.640	-0.800	0.470
2020/01/31 09:50:32.4	112.730	0.620	-0.740	0.600
2020/01/31 09:50:32.5	112.720	0.590	-0.690	0.720
2020/01/31 09:50:32.6	112.720	0.550	-0.630	0.840
2020/01/31 09:50:32.7	112.720	0.520	-0.560	0.970
2020/01/31 09:50:32.8	112.720	0.480	-0.490	1.090
2020/01/31 09:50:32.9	112.710	0.430	-0.420	1.220
2020/01/31 09:50:33.0	112.710	0.390	-0.340	1.340
2020/01/31 09:50:33.1	112.710	0.340	-0.260	1.460
2020/01/31 09:50:33.2	112.720	0.290	-0.180	1.580
2020/01/31 09:50:33.3	112.720	0.240	-0.100	1.690
2020/01/31 09:50:33.4	112.720	0.190	-0.010	1.810
2020/01/31 09:50:33.5	112.720	0.130	0.070	1.920
2020/01/31 09:50:33.6	112.720	0.080	0.150	2.020
2020/01/31 09:50:33.7	112.730	0.020	0.230	2.120
2020/01/31 09:50:33.8	112.740	-0.030	0.310	2.220
2020/01/31 09:50:33.9	112.740	-0.090	0.380	2.310
2020/01/31 09:50:34.0	112.750	-0.140	0.450	2.390
2020/01/31 09:50:34.1	112.760	-0.200	0.520	2.470
2020/01/31 09:50:34.2	112.770	-0.250	0.580	2.550
2020/01/31 09:50:34.3	112.780	-0.300	0.640	2.610
2020/01/31 09:50:34.4	112.810	-0.350	0.680	2.670
2020/01/31 09:50:34.5	112.820	-0.400	0.730	2.730
2020/01/31 09:50:34.6	112.830	-0.440	0.760	2.780
2020/01/31 09:50:34.7	112.840	-0.480	0.800	2.820
2020/01/31 09:50:34.8	112.850	-0.520	0.820	2.860
2020/01/31 09:50:34.9	112.870	-0.550	0.830	2.890
2020/01/31 09:50:35.0	112.880	-0.580	0.840	2.910
2020/01/31 09:50:35.1	112.890	-0.600	0.840	2.930
2020/01/31 09:50:35.2	112.900	-0.630	0.830	2.950
2020/01/31 09:50:35.3	112.910	-0.640	0.820	2.960
2020/01/31 09:50:35.4	112.940	-0.650	0.790	2.960
2020/01/31 09:50:35.5	112.950	-0.660	0.760	2.960
2020/01/31 09:50:35.6	112.950	-0.660	0.720	2.960
2020/01/31 09:50:35.7	112.960	-0.660	0.670	2.950
2020/01/31 09:50:35.8	112.960	-0.650	0.620	2.940
2020/01/31 09:50:35.9	112.960	-0.640	0.560	2.930
2020/01/31 09:50:36.0	112.960	-0.630	0.490	2.910
2020/01/31 09:50:36.1	112.960	-0.600	0.420	2.900
2020/01/31 09:50:36.2	112.960	-0.580	0.340	2.880
2020/01/31 09:50:36.3	112.960	-0.550	0.260	2.850
2020/01/31 09:50:36.4	112.960	-0.520	0.160	2.830
2020/01/31 09:50:36.5	112.950	-0.480	0.070	2.800
2020/01/31 09:50:36.6	112.950	-0.440	-0.020	2.770
2020/01/31 09:50:36.7	112.940	-0.400	-0.110	2.750
2020/01/31 09:50:36.8	112.930	-0.350	-0.210	2.720
2020/01/31 09:50:36.9	112.920	-0.300	-0.300	2.690
2020/01/31 09:50:37.0	112.910	-0.260	-0.400	2.650
2020/01/31 09:50:37.1	112.900	-0.210	-0.490	2.620
2020/01/31 09:50:37.2	112.890	-0.160	-0.580	2.580
2020/01/31 09:50:37.3	112.880	-0.110	-0.670	2.550
2020/01/31 09:50:37.4	112.870	-0.060	-0.750	2.510
2020/01/31 09:50:37.5	112.860	-0.010	-0.820	2.470
2020/01/31 09:50:37.6	112.860	0.030	-0.890	2.420
2020/01/31 09:50:37.7	112.850	0.080	-0.960	2.380
2020/01/31 09:50:37.8	112.850	0.120	-1.020	2.330
2020/01/31 09:50:37.9	112.860	0.160	-1.060	2.280
2020/01/31 09:50:38.0	112.860	0.190	-1.110	2.220
2020/01/31 09:50:38.1	112.860	0.230	-1.140	2.170
2020/01/31 09:50:38.2	112.870	0.260	-1.160	2.110
2020/01/31 09:50:38.3	112.880	0.280	-1.180	2.050
2020/01/31 09:50:38.4	112.890	0.300	-1.190	1.980
2020/01/31 09:50:38.5	112.900	0.310	-1.190	1.910
2020/01/31 09:50:38.6	112.920	0.320	-1.180	1.840
2020/01/31 09:50:38.7	112.940	0.330	-1.160	1.770
2020/01/31 09:50:38.8	112.960	0.330	-1.130	1.700
2020/01/31 09:50:38.9	112.990	0.330	-1.100	1.620
2020/01/31 09:50:39.0	113.010	0.320	-1.060	1.540
2020/01/31 09:50:39.1	113.040	0.310	-1.010	1.460
2020/01/31 09:50:39.2	113.070	0.290	-0.960	1.380
2020/01/31 09:50:39.3	113.100	0.270	-0.900	1.300
2020/01/31 09:50:39.4	113.120	0.250	-0.830	1.210
2020/01/31 09:50:39.5	113.150	0.220	-0.760	1.130
2020/01/31 09:50:39.6	113.180	0.190	-0.690	1.040
2020/01/31 09:50:39.7	113.220	0.160	-0.620	0.960
2020/01/31 09:50:39.8	113.250	0.120	-0.540	0.870
2020/01/31 09:50:39.9	113.280	0.080	-0.460	0.790
2020/01/31 09:50:40.0	113.320	0.040	-0.380	0.700
2020/01/31 09:50:40.1	113.350	0.000	-0.300	0.620
2020/01/31 09:50:40.2	113.380	-0.040	-0.210	0.540
2020/01/31 09:50:40.3	113.410	-0.080	-0.130	0.460
2020/01/31 09:50:40.4	113.430	-0.120	-0.050	0.380
2020/01/31 09:50:40.5	113.460	-0.160	0.030	0.310
2020/01/31 09:50:40.6	113.490	-0.190	0.110	0.240
2020/01/31 09:50:40.7	113.520	-0.230	0.190	0.170
2020/01/31 09:50:40.8	113.550	-0.270	0.270	0.100
2020/01/31 09:50:40.9	113.580	-0.300	0.350	0.040
2020/01/31 09:50:41.0	113.600	-0.330	0.420	-0.020
2020/01/31 09:50:41.1	113.630	-0.360	0.490	-0.080
2020/01/31 09:50:41.2	113.650	-0.380	0.550	-0.140
2020/01/31 09:50:41.3	113.670	-0.410	0.610	-0.200
2020/01/31 09:50:41.4	113.690	-0.430	0.670	-0.250
2020/01/31 09:50:41.5	113.710	-0.440	0.720	-0.300
2020/01/31 09:50:41.6	113.720	-0.450	0.760	-0.350
2020/01/31 09:50:41.7	113.740	-0.460	0.800	-0.390
2020/01/31 09:50:41.8	113.750	-0.470	0.840	-0.430
2020/01/31 09:50:41.9	113.770	-0.470	0.870	-0.470
2020/01/31 09:50:42.0	113.780	-0.470	0.890	-0.510
2020/01/31 09:50:42.1	113.790	-0.460	0.910	-0.550
2020/01/31 09:50:42.2	113.800	-0.450	0.910	-0.580
2020/01/31 09:50:42.3	113.810	-0.440	0.920	-0.610
2020/01/31 09:50:42.4	113.820	-0.420	0.920	-0.640
2020/01/31 09:50:42.5	113.820	-0.400	0.910	-0.670
2020/01/31 09:50:42.6	113.820	-0.380	0.890	-0.690
2020/01/31 09:50:42.7	113.820	-0.360	0.860	-0.710
2020/01/31 09:50:42.8	113.820	-0.330	0.830	-0.730
2020/01/31 09:50:42.9	113.820	-0.300	0.790	-0.750
2020/01/31 09:50:43.0	113.820	-0.270	0.750	-0.760
2020/01/31 09:50:43.1	113.810	-0.230	0.700	-0.760
2020/01/31 09:50:43.2	113.810	-0.200	0.650	-0.770
2020/01/31 09:50:43.3	113.800	-0.160	0.590	-0.770
2020/01/31 09:50:43.4	113.790	-0.130	0.520	-0.760
2020/01/31 09:50:43.5	113.780	-0.090	0.450	-0.750
2020/01/31 09:50:43.6	113.770	-0.050	0.380	-0.740
2020/01/31 09:50:43.7	113.750	-0.010	0.300	-0.730
2020/01/31 09:50:43.8	113.740	0.030	0.220	-0.710
2020/01/31 09:50:43.9	113.720	0.060	0.130	-0.690
2020/01/31 09:50:44.0	113.700	0.100	0.040	-0.660
2020/01/31 09:50:44.1	113.690	0.140	-0.040	-0.630
2020/01/31 09:50:44.2	113.670	0.170	-0.130	-0.600
2020/01/31 09:50:44.3	113.650	0.210	-0.230	-0.570
2020/01/31 09:50:44.4	113.630	0.240	-0.310	-0.530
2020/01/31 09:50:44.5	113.620	0.270	-0.410	-0.500
2020/01/31 09:50:44.6	113.600	0.300	-0.500	-0.460
2020/01/31 09:50:44.7	113.590	0.330	-0.590	-0.420
2020/01/31 09:50:44.8	113.570	0.350	-0.670	-0.370
2020/01/31 09:50:44.9	113.560	0.380	-0.760	-0.330
2020/01/31 09:50:45.0	113.550	0.400	-0.840	-0.290
2020/01/31 09:50:45.1	113.540	0.420	-0.920	-0.240
2020/01/31 09:50:45.2	113.540	0.430	-0.990	-0.200
2020/01/31 09:50:45.3	113.530	0.450	-1.060	-0.150
2020/01/31 09:50:45.4	113.520	0.460	-1.130	-0.100
2020/01/31 09:50:45.5	113.520	0.470	-1.190	-0.050
2020/01/31 09:50:45.6	113.520	0.480	-1.240	-0.000
2020/01/31 09:50:45.7	113.520	0.480	-1.290	0.050
2020/01/31 09:50:45.8	113.530	0.490	-1.330	0.100
2020/01/31 09:50:45.9	113.540	0.490	-1.360	0.150
2020/01/31 09:50:46.0	113.550	0.480	-1.380	0.200
2020/01/31 09:50:46.1	113.560	0.480	-1.400	0.250
2020/01/31 09:50:46.2	113.570	0.470	-1.410	0.300
2020/01/31 09:50:46.3	113.580	0.470	-1.400	0.360
2020/01/31 09:50:46.4	113.590	0.460	-1.390	0.410
2020/01/31 09:50:46.5	113.610	0.450	-1.370	0.470
2020/01/31 09:50:46.6	113.630	0.430	-1.340	0.520
2020/01/31 09:50:46.7	113.650	0.420	-1.310	0.580
2020/01/31 09:50:46.8	113.670	0.400	-1.270	0.630
2020/01/31 09:50:46.9	113.690	0.380	-1.210	0.690
2020/01/31 09:50:47.0	113.710	0.370	-1.150	0.750
2020/01/31 09:50:47.1	113.740	0.340	-1.090	0.800
2020/01/31 09:50:47.2	113.760	0.320	-1.010	0.860
2020/01/31 09:50:47.3	113.790	0.300	-0.940	0.910
2020/01/31 09:50:47.4	113.810	0.280	-0.850	0.970
2020/01/31 09:50:47.5	113.840	0.250	-0.760	1.030
2020/01/31 09:50:47.6	113.860	0.230	-0.660	1.080
2020/01/31 09:50:47.7	113.890	0.200	-0.570	1.130
2020/01/31 09:50:47.8	113.920	0.180	-0.470	1.190
2020/01/31 09:50:47.9	113.940	0.150	-0.370	1.240
2020/01/31 09:50:48.0	113.960	0.120	-0.260	1.290
2020/01/31 09:50:48.1	113.990	0.100	-0.160	1.340
2020/01/31 09:50:48.2	114.010	0.070	-0.060	1.390
2020/01/31 09:50:48.3	114.030	0.040	0.030	1.440
2020/01/31 09:50:48.4	114.060	0.010	0.130	1.490
2020/01/31 09:50:48.5	114.080	-0.010	0.220	1.530
2020/01/31 09:50:48.6	114.090	-0.040	0.310	1.580
2020/01/31 09:50:48.7	114.110	-0.070	0.390	1.620
2020/01/31 09:50:48.8	114.130	-0.090	0.470	1.660
2020/01/31 09:50:48.9	114.140	-0.120	0.540	1.700
2020/01/31 09:50:49.0	114.150	-0.140	0.600	1.740
2020/01/31 09:50:49.1	114.160	-0.170	0.660	1.780
2020/01/31 09:50:49.2	114.170	-0.190	0.710	1.820
2020/01/31 09:50:49.3	114.180	-0.210	0.750	1.850
2020/01/31 09:50:49.4	114.200	-0.230	0.780	1.880
2020/01/31 09:50:49.5	114.200	-0.250	0.810	1.920
2020/01/31 09:50:49.6	114.200	-0.270	0.830	1.950
2020/01/31 09:50:49.7	114.210	-0.290	0.830	1.980
2020/01/31 09:50:49.8	114.210	-0.300	0.830	2.010
2020/01/31 09:50:49.9	114.200	-0.310	0.830	2.040
2020/01/31 09:50:50.0	114.200	-0.330	0.810	2.070
2020/01/31 09:50:50.1	114.190	-0.340	0.790	2.090
2020/01/31 09:50:50.2	114.190	-0.340	0.760	2.120
2020/01/31 09:50:50.3	114.180	-0.350	0.720	2.150
2020/01/31 09:50:50.4	114.180	-0.350	0.680	2.170
2020/01/31 09:50:50.5	114.160	-0.360	0.630	2.200
2020/01/31 09:50:50.6	114.150	-0.360	0.580	2.220
2020/01/31 09:50:50.7	114.130	-0.350	0.520	2.240
2020/01/31 09:50:50.8	114.110	-0.350	0.460	2.270
2020/01/31 09:50:50.9	114.090	-0.350	0.390	2.290
2020/01/31 09:50:51.0	114.070	-0.340	0.330	2.310
2020/01/31 09:50:51.1	114.050	-0.330	0.250	2.320
2020/01/31 09:50:51.2	114.030	-0.320	0.180	2.340
2020/01/31 09:50:51.3	114.010	-0.310	0.110	2.350
2020/01/31 09:50:51.4	114.000	-0.290	0.040	2.360
2020/01/31 09:50:51.5	113.980	-0.280	-0.030	2.370
2020/01/31 09:50:51.6	113.960	-0.260	-0.110	2.380
2020/01/31 09:50:51.7	113.940	-0.240	-0.180	2.390
2020/01/31 09:50:51.8	113.920	-0.230	-0.240	2.390
2020/01/31 09:50:51.9	113.900	-0.210	-0.310	2.390
2020/01/31 09:50:52.0	113.880	-0.190	-0.370	2.390
2020/01/31 09:50:52.1	113.860	-0.170	-0.430	2.380
2020/01/31 09:50:52.2	113.840	-0.150	-0.490	2.370
2020/01/31 09:50:52.3	113.830	-0.130	-0.540	2.360
2020/01/31 09:50:52.4	113.830	-0.110	-0.590	2.340
2020/01/31 09:50:52.5	113.830	-0.090	-0.630	2.320
2020/01/31 09:50:52.6	113.820	-0.070	-0.670	2.290
2020/01/31 09:50:52.7	113.820	-0.050	-0.700	2.250
2020/01/31 09:50:52.8	113.820	-0.040	-0.720	2.210
2020/01/31 09:50:52.9	113.830	-0.020	-0.740	2.170
2020/01/31 09:50:53.0	113.830	-0.000	-0.760	2.120
2020/01/31 09:50:53.1	113.840	0.010	-0.770	2.060
2020/01/31 09:50:53.2	113.860	0.020	-0.770	2.000
2020/01/31 09:50:53.3	113.880	0.030	-0.770	1.930
2020/01/31 09:50:53.4	113.900	0.040	-0.770	1.860
2020/01/31 09:50:53.5	113.920	0.050	-0.760	1.780
2020/01/31 09:50:53.6	113.950	0.050	-0.740	1.700
2020/01/31 09:50:53.7	113.980	0.060	-0.720	1.620
2020/01/31 09:50:53.8	114.010	0.060	-0.700	1.530
2020/01/31 09:50:53.9	114.040	0.060	-0.670	1.440
2020/01/31 09:50:54.0	114.080	0.060	-0.640	1.350
2020/01/31 09:50:54.1	114.120	0.060	-0.610	1.250
2020/01/31 09:50:54.2	114.150	0.060	-0.580	1.150
2020/01/31 09:50:54.3	114.190	0.060	-0.540	1.060
2020/01/31 09:50:54.4	114.220	0.050	-0.500	0.950
2020/01/31 09:50:54.5	114.260	0.040	-0.460	0.860
2020/01/31 09:50:54.6	114.300	0.040	-0.420	0.760
2020/01/31 09:50:54.7	114.330	0.030	-0.380	0.660
2020/01/31 09:50:54.8	114.370	0.020	-0.340	0.570
2020/01/31 09:50:54.9	114.410	0.010	-0.300	0.470
2020/01/31 09:50:55.0	114.440	0.010	-0.270	0.390
2020/01/31 09:50:55.1	114.470	-0.000	-0.230	0.300
2020/01/31 09:50:55.2	114.500	-0.010	-0.200	0.220
2020/01/31 09:50:55.3	114.520	-0.020	-0.160	0.140
2020/01/31 09:50:55.4	114.550	-0.030	-0.130	0.060
2020/01/31 09:50:55.5	114.570	-0.040	-0.100	-0.010
2020/01/31 09:50:55.6	114.590	-0.040	-0.070	-0.070
2020/01/31 09:50:55.7	114.600	-0.050	-0.040	-0.130
2020/01/31 09:50:55.8	114.610	-0.060	-0.020	-0.190
2020/01/31 09:50:55.9	114.620	-0.060	0.010	-0.240
2020/01/31 09:50:56.0	114.620	-0.070	0.030	-0.280
2020/01/31 09:50:56.1	114.620	-0.070	0.050	-0.320
2020/01/31 09:50:56.2	114.620	-0.080	0.070	-0.360
2020/01/31 09:50:56.3	114.620	-0.080	0.090	-0.400
2020/01/31 09:50:56.4	114.600	-0.080	0.100	-0.430
2020/01/31 09:50:56.5	114.590	-0.080	0.120	-0.450
2020/01/31 09:50:56.6	114.580	-0.080	0.130	-0.470
2020/01/31 09:50:56.7	114.570	-0.080	0.150	-0.490
2020/01/31 09:50:56.8	114.550	-0.080	0.160	-0.510
2020/01/31 09:50:56.9	114.530	-0.080	0.170	-0.520
2020/01/31 09:50:57.0	114.510	-0.080	0.180	-0.520
2020/01/31 09:50:57.1	114.490	-0.080	0.180	-0.530
2020/01/31 09:50:57.2	114.470	-0.070	0.190	-0.530
2020/01/31 09:50:57.3	114.440	-0.070	0.190	-0.530
2020/01/31 09:50:57.4	114.420	-0.060	0.190	-0.520
2020/01/31 09:50:57.5	114.400	-0.060	0.190	-0.510
2020/01/31 09:50:57.6	114.370	-0.050	0.190	-0.500
2020/01/31 09:50:57.7	114.340	-0.050	0.180	-0.480
2020/01/31 09:50:57.8	114.310	-0.040	0.180	-0.460
2020/01/31 09:50:57.9	114.280	-0.030	0.170	-0.440
2020/01/31 09:50:58.0	114.250	-0.030	0.160	-0.420
2020/01/31 09:50:58.1	114.220	-0.020	0.150	-0.390
2020/01/31 09:50:58.2	114.190	-0.010	0.130	-0.360
2020/01/31 09:50:58.3	114.150	-0.000	0.120	-0.320
2020/01/31 09:50:58.4	114.130	0.000	0.100	-0.290
2020/01/31 09:50:58.5	114.100	0.010	0.080	-0.250
2020/01/31 09:50:58.6	114.070	0.020	0.060	-0.210
2020/01/31 09:50:58.7	114.040	0.030	0.040	-0.170
2020/01/31 09:50:58.8	114.010	0.030	0.020	-0.120
2020/01/31 09:50:58.9	113.980	0.040	0.000	-0.080
2020/01/31 09:50:59.0	113.960	0.040	-0.020	-0.030
2020/01/31 09:50:59.1	113.930	0.050	-0.040	0.010
2020/01/31 09:50:59.2	113.910	0.050	-0.060	0.060
2020/01/31 09:50:59.3	113.890	0.060	-0.090	0.100
2020/01/31 09:50:59.4	113.860	0.060	-0.110	0.150
2020/01/31 09:50:59.5	113.840	0.070	-0.130	0.190
2020/01/31 09:50:59.6	113.820	0.070	-0.150	0.240
2020/01/31 09:50:59.7	113.810	0.070	-0.170	0.280
2020/01/31 09:50:59.8	113.800	0.070	-0.190	0.320
2020/01/31 09:50:59.9	113.790	0.070	-0.210	0.370
2020/01/31 09:51:00.0	113.780	0.070	-0.230	0.400
2020/01/31 09:51:00.1	113.780	0.070	-0.240	0.440
2020/01/31 09:51:00.2	113.780	0.070	-0.260	0.480
2020/01/31 09:51:00.3	113.780	0.070	-0.270	0.510
2020/01/31 09:51:00.4	113.760	0.070	-0.290	0.540
2020/01/31 09:51:00.5	113.770	0.070	-0.300	0.570
2020/01/31 09:51:00.6	113.780	0.060	-0.310	0.600
2020/01/31 09:51:00.7	113.790	0.060	-0.320	0.630
2020/01/31 09:51:00.8	113.800	0.060	-0.330	0.660
2020/01/31 09:51:00.9	113.810	0.060	-0.340	0.680
2020/01/31 09:51:01.0	113.820	0.060	-0.350	0.700
2020/01/31 09:51:01.1	113.840	0.050	-0.360	0.730
2020/01/31 09:51:01.2	113.860	0.050	-0.370	0.750
2020/01/31 09:51:01.3	113.870	0.050	-0.380	0.770
2020/01/31 09:51:01.4	113.890	0.050	-0.390	0.790
2020/01/31 09:51:01.5	113.900	0.050	-0.400	0.810
2020/01/31 09:51:01.6	113.920	0.050	-0.410	0.830
2020/01/31 09:51:01.7	113.940	0.050	-0.430	0.850
2020/01/31 09:51:01.8	113.960	0.050	-0.440	0.880
2020/01/31 09:51:01.9	113.980	0.050	-0.450	0.900
2020/01/31 09:51:02.0	113.990	0.050	-0.460	0.920
2020/01/31 09:51:02.1	114.010	0.060	-0.480	0.940
2020/01/31 09:51:02.2	114.030	0.060	-0.490	0.970
2020/01/31 09:51:02.3	114.040	0.060	-0.500	0.990
2020/01/31 09:51:02.4	114.050	0.070	-0.520	1.020
2020/01/31 09:51:02.5	114.070	0.070	-0.530	1.050
2020/01/31 09:51:02.6	114.080	0.080	-0.540	1.080
2020/01/31 09:51:02.7	114.100	0.080	-0.550	1.110
2020/01/31 09:51:02.8	114.110	0.090	-0.560	1.140
2020/01/31 09:51:02.9	114.120	0.090	-0.570	1.170
2020/01/31 09:51:03.0	114.130	0.100	-0.580	1.200
2020/01/31 09:51:03.1	114.140	0.100	-0.580	1.230
2020/01/31 09:51:03.2	114.150	0.100	-0.590	1.270
2020/01/31 09:51:03.3	114.150	0.110	-0.590	1.300
2020/01/31 09:51:03.4	114.150	0.110	-0.580	1.330
2020/01/31 09:51:03.5	114.150	0.110	-0.580	1.360
2020/01/31 09:51:03.6	114.160	0.110	-0.570	1.400
2020/01/31 09:51:03.7	114.160	0.110	-0.560	1.430
2020/01/31 09:51:03.8	114.160	0.110	-0.540	1.460
2020/01/31 09:51:03.9	114.160	0.110	-0.520	1.490
2020/01/31 09:51:04.0	114.170	0.100	-0.500	1.520
2020/01/31 09:51:04.1	114.170	0.100	-0.480	1.550
2020/01/31 09:51:04.2	114.160	0.090	-0.450	1.580
2020/01/31 09:51:04.3	114.160	0.080	-0.410	1.610
2020/01/31 09:51:04.4	114.160	0.070	-0.380	1.630
2020/01/31 09:51:04.5	114.160	0.060	-0.340	1.660
2020/01/31 09:51:04.6	114.150	0.050	-0.300	1.690
2020/01/31 09:51:04.7	114.150	0.030	-0.250	1.720
2020/01/31 09:51:04.8	114.140	0.020	-0.210	1.740
2020/01/31 09:51:04.9	114.140	-0.000	-0.160	1.770
2020/01/31 09:51:05.0	114.130	-0.020	-0.110	1.790
2020/01/31 09:51:05.1	114.120	-0.040	-0.060	1.820
2020/01/31 09:51:05.2	114.110	-0.060	-0.010	1.840
2020/01/31 09:51:05.3	114.110	-0.080	0.040	1.870
2020/01/31 09:51:05.4	114.110	-0.100	0.080	1.900
2020/01/31 09:51:05.5	114.100	-0.120	0.130	1.920
2020/01/31 09:51:05.6	114.090	-0.140	0.180	1.940
2020/01/31 09:51:05.7	114.080	-0.160	0.220	1.960
2020/01/31 09:51:05.8	114.070	-0.180	0.260	1.980
2020/01/31 09:51:05.9	114.060	-0.200	0.300	2.000
2020/01/31 09:51:06.0	114.050	-0.220	0.340	2.020
2020/01/31 09:51:06.1	114.040	-0.230	0.370	2.040
2020/01/31 09:51:06.2	114.030	-0.250	0.400	2.050
2020/01/31 09:51:06.3	114.020	-0.260	0.430	2.060
2020/01/31 09:51:06.4	114.020	-0.270	0.450	2.070
2020/01/31 09:51:06.5	114.010	-0.280	0.460	2.080
2020/01/31 09:51:06.6	113.990	-0.290	0.470	2.090
2020/01/31 09:51:06.7	113.980	-0.290	0.480	2.090
2020/01/31 09:51:06.8	113.960	-0.290	0.480	2.090
2020/01/31 09:51:06.9	113.950	-0.290	0.480	2.090
2020/01/31 09:51:07.0	113.930	-0.290	0.470	2.090
2020/01/31 09:51:07.1	113.910	-0.280	0.460	2.080
2020/01/31 09:51:07.2	113.900	-0.270	0.440	2.070
2020/01/31 09:51:07.3	113.880	-0.260	0.420	2.060
2020/01/31 09:51:07.4	113.890	-0.250	0.400	2.050
2020/01/31 09:51:07.5	113.870	-0.230	0.370	2.030
2020/01/31 09:51:07.6	113.850	-0.220	0.340	2.000
2020/01/31 09:51:07.7	113.830	-0.200	0.300	1.980
2020/01/31 09:51:07.8	113.810	-0.180	0.260	1.940
2020/01/31 09:51:07.9	113.800	-0.150	0.220	1.910
2020/01/31 09:51:08.0	113.780	-0.130	0.180	1.870
2020/01/31 09:51:08.1	113.760	-0.110	0.140	1.830
2020/01/31 09:51:08.2	113.750	-0.080	0.090	1.780
2020/01/31 09:51:08.3	113.740	-0.060	0.050	1.720
2020/01/31 09:51:08.4	113.740	-0.030	0.010	1.670
2020/01/31 09:51:08.5	113.730	-0.010	-0.040	1.610
2020/01/31 09:51:08.6	113.730	0.020	-0.080	1.540
2020/01/31 09:51:08.7	113.730	0.040	-0.130	1.480
2020/01/31 09:51:08.8	113.720	0.060	-0.170	1.410
2020/01/31 09:51:08.9	113.730	0.080	-0.210	1.330
2020/01/31 09:51:09.0	113.730	0.100	-0.250	1.260
2020/01/31 09:51:09.1	113.730	0.120	-0.280	1.180
2020/01/31 09:51:09.2	113.740	0.140	-0.320	1.100
2020/01/31 09:51:09.3	113.750	0.150	-0.350	1.020
2020/01/31 09:51:09.4	113.760	0.170	-0.380	0.940
2020/01/31 09:51:09.5	113.770	0.180	-0.400	0.850
2020/01/31 09:51:09.6	113.780	0.190	-0.430	0.770
2020/01/31 09:51:09.7	113.800	0.190	-0.450	0.690
2020/01/31 09:51:09.8	113.810	0.200	-0.460	0.610
2020/01/31 09:51:09.9	113.830	0.200	-0.480	0.530
2020/01/31 09:51:10.0	113.850	0.200	-0.490	0.450
2020/01/31 09:51:10.1	113.860	0.200	-0.500	0.370
2020/01/31 09:51:10.2	113.880	0.200	-0.510	0.290
2020/01/31 09:51:10.3	113.890	0.190	-0.520	0.220
2020/01/31 09:51:10.4	113.910	0.190	-0.520	0.150
2020/01/31 09:51:10.5	113.920	0.180	-0.530	0.080
2020/01/31 09:51:10.6	113.930	0.170	-0.530	0.020
2020/01/31 09:51:10.7	113.940	0.160	-0.530	-0.040
2020/01/31 09:51:10.8	113.950	0.150	-0.520	-0.100
2020/01/31 09:51:10.9	113.960	0.140	-0.520	-0.160
2020/01/31 09:51:11.0	113.970	0.130	-0.520	-0.210
2020/01/31 09:51:11.1	113.970	0.120	-0.510	-0.260
2020/01/31 09:51:11.2	113.970	0.110	-0.510	-0.300
2020/01/31 09:51:11.3	113.970	0.100	-0.500	-0.340
2020/01/31 09:51:11.4	113.980	0.090	-0.500	-0.380
2020/01/31 09:51:11.5	113.980	0.080	-0.490	-0.420
2020/01/31 09:51:11.6	113.980	0.060	-0.480	-0.450
2020/01/31 09:51:11.7	113.980	0.050	-0.470	-0.470
2020/01/31 09:51:11.8	113.970	0.040	-0.460	-0.490
2020/01/31 09:51:11.9	113.970	0.030	-0.450	-0.510
2020/01/31 09:51:12.0	113.960	0.020	-0.440	-0.530
2020/01/31 09:51:12.1	113.960	0.010	-0.430	-0.540
2020/01/31 09:51:12.2	113.950	0.000	-0.420	-0.540
2020/01/31 09:51:12.3	113.940	-0.010	-0.410	-0.550
2020/01/31 09:51:12.4	113.930	-0.010	-0.390	-0.550
2020/01/31 09:51:12.5	113.920	-0.020	-0.380	-0.550
2020/01/31 09:51:12.6	113.920	-0.030	-0.370	-0.540
2020/01/31 09:51:12.7	113.910	-0.030	-0.360	-0.540
2020/01/31 09:51:12.8	113.900	-0.040	-0.340	-0.530
2020/01/31 09:51:12.9	113.890	-0.040	-0.330	-0.510
2020/01/31 09:51:13.0	113.880	-0.040	-0.320	-0.490
2020/01/31 09:51:13.1	113.860	-0.050	-0.310	-0.470
2020/01/31 09:51:13.2	113.850	-0.050	-0.300	-0.450
2020/01/31 09:51:13.3	113.840	-0.050	-0.290	-0.420
2020/01/31 09:51:13.4	113.840	-0.050	-0.280	-0.390
2020/01/31 09:51:13.5	113.830	-0.050	-0.280	-0.360
2020/01/31 09:51:13.6	113.820	-0.050	-0.270	-0.320
2020/01/31 09:51:13.7	113.800	-0.040	-0.260	-0.280
2020/01/31 09:51:13.8	113.790	-0.040	-0.250	-0.240
2020/01/31 09:51:13.9	113.770	-0.040	-0.250	-0.190
2020/01/31 09:51:14.0	113.750	-0.040	-0.240	-0.150
2020/01/31 09:51:14.1	113.740	-0.030	-0.230	-0.090
2020/01/31 09:51:14.2	113.720	-0.030	-0.230	-0.040
2020/01/31 09:51:14.3	113.700	-0.020	-0.220	0.010
2020/01/31 09:51:14.4	113.690	-0.020	-0.210	0.070
2020/01/31 09:51:14.5	113.680	-0.010	-0.210	0.130
2020/01/31 09:51:14.6	113.660	-0.010	-0.200	0.190
2020/01/31 09:51:14.7	113.650	-0.000	-0.190	0.250
2020/01/31 09:51:14.8	113.630	0.000	-0.190	0.310
2020/01/31 09:51:14.9	113.620	0.000	-0.180	0.380
2020/01/31 09:51:15.0	113.600	0.010	-0.170	0.440
2020/01/31 09:51:15.1	113.590	0.010	-0.160	0.500
2020/01/31 09:51:15.2	113.580	0.020	-0.150	0.560
2020/01/31 09:51:15.3	113.560	0.020	-0.140	0.620
2020/01/31 09:51:15.4	113.540	0.020	-0.120	0.680
2020/01/31 09:51:15.5	113.530	0.020	-0.110	0.740
2020/01/31 09:51:15.6	113.520	0.030	-0.100	0.800
2020/01/31 09:51:15.7	113.510	0.030	-0.080	0.860
2020/01/31 09:51:15.8	113.510	0.020	-0.060	0.920
2020/01/31 09:51:15.9	113.500	0.020	-0.050	0.970
2020/01/31 09:51:16.0	113.500	0.020	-0.030	1.020
2020/01/31 09:51:16.1	113.500	0.020	-0.010	1.080
2020/01/31 09:51:16.2	113.500	0.010	0.010	1.120
2020/01/31 09:51:16.3	113.500	0.000	0.030	1.170
2020/01/31 09:51:16.4	113.480	-0.000	0.050	1.220
2020/01/31 09:51:16.5	113.490	-0.010	0.070	1.260
2020/01/31 09:51:16.6	113.500	-0.020	0.090	1.300
2020/01/31 09:51:16.7	113.510	-0.030	0.110	1.330
2020/01/31 09:51:16.8	113.520	-0.040	0.130	1.360
2020/01/31 09:51:16.9	113.540	-0.060	0.150	1.390
2020/01/31 09:51:17.0	113.560	-0.070	0.170	1.420
2020/01/31 09:51:17.1	113.580	-0.080	0.190	1.440
2020/01/31 09:51:17.2	113.600	-0.100	0.200	1.460
2020/01/31 09:51:17.3	113.630	-0.110	0.220	1.480
2020/01/31 09:51:17.4	113.650	-0.130	0.230	1.490
2020/01/31 09:51:17.5	113.680	-0.150	0.240	1.500
2020/01/31 09:51:17.6	113.710	-0.160	0.250	1.510
2020/01/31 09:51:17.7	113.740	-0.180	0.260	1.520
2020/01/31 09:51:17.8	113.780	-0.190	0.260	1.520
2020/01/31 09:51:17.9	113.810	-0.210	0.260	1.520
2020/01/31 09:51:18.0	113.850	-0.220	0.260	1.520
2020/01/31 09:51:18.1	113.880	-0.230	0.260	1.520
2020/01/31 09:51:18.2	113.910	-0.250	0.250	1.520
2020/01/31 09:51:18.3	113.950	-0.260	0.240	1.510
2020/01/31 09:51:18.4	113.990	-0.270	0.230	1.510
2020/01/31 09:51:18.5	114.020	-0.270	0.220	1.510
2020/01/31 09:51:18.6	114.050	-0.280	0.200	1.500
2020/01/31 09:51:18.7	114.080	-0.290	0.180	1.490
2020/01/31 09:51:18.8	114.110	-0.290	0.160	1.490
2020/01/31 09:51:18.9	114.130	-0.290	0.130	1.480
2020/01/31 09:51:19.0	114.150	-0.290	0.100	1.480
2020/01/31 09:51:19.1	114.170	-0.290	0.070	1.480
2020/01/31 09:51:19.2	114.180	-0.290	0.040	1.480
2020/01/31 09:51:19.3	114.190	-0.280	0.010	1.480
2020/01/31 09:51:19.4	114.190	-0.270	-0.020	1.480
2020/01/31 09:51:19.5	114.190	-0.260	-0.060	1.480
2020/01/31 09:51:19.6	114.190	-0.250	-0.090	1.490
2020/01/31 09:51:19.7	114.190	-0.240	-0.120	1.490
2020/01/31 09:51:19.8	114.180	-0.220	-0.160	1.500
2020/01/31 09:51:19.9	114.170	-0.200	-0.190	1.510
2020/01/31 09:51:20.0	114.160	-0.190	-0.220	1.520
2020/01/31 09:51:20.1	114.150	-0.170	-0.250	1.530
2020/01/31 09:51:20.2	114.130	-0.140	-0.280	1.530
2020/01/31 09:51:20.3	114.110	-0.120	-0.310	1.540
2020/01/31 09:51:20.4	114.100	-0.100	-0.330	1.540
2020/01/31 09:51:20.5	114.080	-0.080	-0.350	1.550
2020/01/31 09:51:20.6	114.060	-0.050	-0.370	1.550
2020/01/31 09:51:20.7	114.040	-0.030	-0.390	1.550
2020/01/31 09:51:20.8	114.020	-0.000	-0.410	1.550
2020/01/31 09:51:20.9	114.000	0.020	-0.420	1.550
2020/01/31 09:51:21.0	113.980	0.050	-0.440	1.540
2020/01/31 09:51:21.1	113.960	0.070	-0.450	1.530
2020/01/31 09:51:21.2	113.940	0.090	-0.460	1.520
2020/01/31 09:51:21.3	113.920	0.120	-0.460	1.510
2020/01/31 09:51:21.4	113.900	0.140	-0.470	1.490
2020/01/31 09:51:21.5	113.880	0.160	-0.470	1.470
2020/01/31 09:51:21.6	113.870	0.180	-0.480	1.450
2020/01/31 09:51:21.7	113.850	0.200	-0.480	1.420
2020/01/31 09:51:21.8	113.840	0.220	-0.480	1.390
2020/01/31 09:51:21.9	113.820	0.240	-0.480	1.360
2020/01/31 09:51:22.0	113.810	0.260	-0.490	1.330
2020/01/31 09:51:22.1	113.800	0.270	-0.490	1.300
2020/01/31 09:51:22.2	113.790	0.290	-0.490	1.260
2020/01/31 09:51:22.3	113.780	0.300	-0.490	1.220
2020/01/31 09:51:22.4	113.770	0.310	-0.490	1.180
2020/01/31 09:51:22.5	113.760	0.320	-0.490	1.140
2020/01/31 09:51:22.6	113.750	0.330	-0.490	1.100
2020/01/31 09:51:22.7	113.740	0.340	-0.480	1.060
2020/01/31 09:51:22.8	113.730	0.350	-0.480	1.010
2020/01/31 09:51:22.9	113.720	0.350	-0.480	0.970
2020/01/31 09:51:23.0	113.720	0.350	-0.480	0.920
2020/01/31 09:51:23.1	113.710	0.350	-0.470	0.880
2020/01/31 09:51:23.2	113.700	0.350	-0.470	0.830
2020/01/31 09:51:23.3	113.690	0.350	-0.460	0.790
2020/01/31 09:51:23.4	113.690	0.340	-0.450	0.740
2020/01/31 09:51:23.5	113.680	0.340	-0.440	0.690
2020/01/31 09:51:23.6	113.680	0.330	-0.430	0.640
2020/01/31 09:51:23.7	113.680	0.320	-0.420	0.600
2020/01/31 09:51:23.8	113.670	0.310	-0.410	0.550
2020/01/31 09:51:23.9	113.670	0.300	-0.390	0.500
2020/01/31 09:51:24.0	113.670	0.280	-0.370	0.460
2020/01/31 09:51:24.1	113.680	0.270	-0.360	0.410
2020/01/31 09:51:24.2	113.680	0.250	-0.330	0.370
2020/01/31 09:51:24.3	113.690	0.230	-0.310	0.320
2020/01/31 09:51:24.4	113.680	0.210	-0.280	0.280
2020/01/31 09:51:24.5	113.690	0.190	-0.260	0.240
2020/01/31 09:51:24.6	113.700	0.170	-0.230	0.200
2020/01/31 09:51:24.7	113.710	0.150	-0.190	0.160
2020/01/31 09:51:24.8	113.720	0.120	-0.160	0.130
2020/01/31 09:51:24.9	113.740	0.100	-0.130	0.100
2020/01/31 09:51:25.0	113.760	0.080	-0.090	0.070
2020/01/31 09:51:25.1	113.770	0.050	-0.050	0.040
2020/01/31 09:51:25.2	113.790	0.020	-0.010	0.010
2020/01/31 09:51:25.3	113.810	-0.000	0.020	-0.010
2020/01/31 09:51:25.4	113.820	-0.030	0.060	-0.040
2020/01/31 09:51:25.5	113.840	-0.050	0.100	-0.060
2020/01/31 09:51:25.6	113.860	-0.080	0.130	-0.070
2020/01/31 09:51:25.7	113.880	-0.100	0.160	-0.090
2020/01/31 09:51:25.8	113.900	-0.130	0.190	-0.100
2020/01/31 09:51:25.9	113.920	-0.150	0.220	-0.110
2020/01/31 09:51:26.0	113.940	-0.170	0.240	-0.110
2020/01/31 09:51:26.1	113.950	-0.190	0.260	-0.120
2020/01/31 09:51:26.2	113.970	-0.210	0.280	-0.120
2020/01/31 09:51:26.3	113.980	-0.230	0.290	-0.120
2020/01/31 09:51:26.4	114.010	-0.250	0.300	-0.110
2020/01/31 09:51:26.5	114.030	-0.260	0.300	-0.110
2020/01/31 09:51:26.6	114.040	-0.270	0.300	-0.110
2020/01/31 09:51:26.7	114.050	-0.280	0.290	-0.100
2020/01/31 09:51:26.8	114.050	-0.290	0.280	-0.090
2020/01/31 09:51:26.9	114.060	-0.290	0.260	-0.080
2020/01/31 09:51:27.0	114.070	-0.300	0.250	-0.070
2020/01/31 09:51:27.1	114.070	-0.300	0.220	-0.060
2020/01/31 09:51:27.2	114.070	-0.300	0.200	-0.050
2020/01/31 09:51:27.3	114.070	-0.290	0.160	-0.030
2020/01/31 09:51:27.4	114.070	-0.290	0.130	-0.020
2020/01/31 09:51:27.5	114.060	-0.280	0.090	-0.010
2020/01/31 09:51:27.6	114.060	-0.270	0.050	0.010
2020/01/31 09:51:27.7	114.060	-0.260	0.010	0.030
2020/01/31 09:51:27.8	114.050	-0.250	-0.030	0.050
2020/01/31 09:51:27.9	114.050	-0.230	-0.080	0.070
2020/01/31 09:51:28.0	114.040	-0.220	-0.120	0.100
2020/01/31 09:51:28.1	114.030	-0.200	-0.170	0.120
2020/01/31 09:51:28.2	114.020	-0.180	-0.220	0.150
2020/01/31 09:51:28.3	114.010	-0.160	-0.270	0.180
2020/01/31 09:51:28.4	114.000	-0.150	-0.310	0.220
2020/01/31 09:51:28.5	113.980	-0.130	-0.360	0.260
2020/01/31 09:51:28.6	113.970	-0.110	-0.400	0.300
2020/01/31 09:51:28.7	113.950	-0.090	-0.450	0.340
2020/01/31 09:51:28.8	113.940	-0.060	-0.490	0.380
2020/01/31 09:51:28.9	113.920	-0.040	-0.530	0.430
2020/01/31 09:51:29.0	113.910	-0.020	-0.570	0.480
2020/01/31 09:51:29.1	113.890	-0.010	-0.610	0.530
2020/01/31 09:51:29.2	113.870	0.010	-0.640	0.580
2020/01/31 09:51:29.3	113.850	0.030	-0.670	0.640
2020/01/31 09:51:29.4	113.830	0.050	-0.700	0.690
2020/01/31 09:51:29.5	113.810	0.060	-0.720	0.750
2020/01/31 09:51:29.6	113.790	0.080	-0.740	0.810
2020/01/31 09:51:29.7	113.770	0.090	-0.750	0.870
2020/01/31 09:51:29.8	113.750	0.110	-0.770	0.930
2020/01/31 09:51:29.9	113.730	0.120	-0.770	0.990
2020/01/31 09:51:30.0	113.720	0.130	-0.770	1.040
2020/01/31 09:51:30.1	113.700	0.130	-0.770	1.100
2020/01/31 09:51:30.2	113.690	0.140	-0.770	1.160
2020/01/31 09:51:30.3	113.670	0.140	-0.750	1.210
2020/01/31 09:51:30.4	113.650	0.150	-0.730	1.270
2020/01/31 09:51:30.5	113.640	0.150	-0.710	1.310
2020/01/31 09:51:30.6	113.630	0.150	-0.690	1.360
2020/01/31 09:51:30.7	113.620	0.150	-0.660	1.400
2020/01/31 09:51:30.8	113.620	0.140	-0.620	1.440
2020/01/31 09:51:30.9	113.620	0.140	-0.580	1.480
2020/01/31 09:51:31.0	113.620	0.130	-0.540	1.520
2020/01/31 09:51:31.1	113.620	0.120	-0.490	1.550
2020/01/31 09:51:31.2	113.620	0.110	-0.440	1.580
2020/01/31 09:51:31.3	113.630	0.100	-0.390	1.600
2020/01/31 09:51:31.4	113.620	0.080	-0.330	1.620
2020/01/31 09:51:31.5	113.630	0.070	-0.270	1.630
2020/01/31 09:51:31.6	113.640	0.050	-0.200	1.650
2020/01/31 09:51:31.7	113.650	0.030	-0.140	1.660
2020/01/31 09:51:31.8	113.660	0.010	-0.070	1.670
2020/01/31 09:51:31.9	113.670	-0.000	-0.000	1.680
2020/01/31 09:51:32.0	113.680	-0.020	0.070	1.690
2020/01/31 09:51:32.1	113.690	-0.050	0.140	1.690
2020/01/31 09:51:32.2	113.700	-0.070	0.200	1.690
2020/01/31 09:51:32.3	113.720	-0.090	0.270	1.690
2020/01/31 09:51:32.4	113.740	-0.110	0.340	1.680
2020/01/31 09:51:32.5	113.750	-0.130	0.400	1.680
2020/01/31 09:51:32.6	113.760	-0.150	0.460	1.670
2020/01/31 09:51:32.7	113.770	-0.170	0.510	1.660
2020/01/31 09:51:32.8	113.780	-0.190	0.570	1.650
2020/01/31 09:51:32.9	113.790	-0.210	0.610	1.640
2020/01/31 09:51:33.0	113.790	-0.230	0.650	1.620
2020/01/31 09:51:33.1	113.800	-0.250	0.690	1.610
2020/01/31 09:51:33.2	113.810	-0.270	0.720	1.590
2020/01/31 09:51:33.3	113.810	-0.280	0.740	1.570
2020/01/31 09:51:33.4	113.830	-0.290	0.750	1.550
2020/01/31 09:51:33.5	113.840	-0.300	0.760	1.530
2020/01/31 09:51:33.6	113.840	-0.310	0.760	1.510
2020/01/31 09:51:33.7	113.840	-0.320	0.750	1.480
2020/01/31 09:51:33.8	113.840	-0.330	0.740	1.460
2020/01/31 09:51:33.9	113.830	-0.330	0.720	1.430
2020/01/31 09:51:34.0	113.830	-0.330	0.690	1.400
2020/01/31 09:51:34.1	113.830	-0.330	0.650	1.370
2020/01/31 09:51:34.2	113.820	-0.330	0.610	1.350
2020/01/31 09:51:34.3	113.810	-0.320	0.560	1.320
2020/01/31 09:51:34.4	113.810	-0.310	0.500	1.280
2020/01/31 09:51:34.5	113.800	-0.300	0.440	1.250
2020/01/31 09:51:34.6	113.790	-0.290	0.380	1.220
2020/01/31 09:51:34.7	113.780	-0.280	0.300	1.190
2020/01/31 09:51:34.8	113.770	-0.260	0.230	1.150
2020/01/31 09:51:34.9	113.760	-0.240	0.150	1.120
2020/01/31 09:51:35.0	113.750	-0.220	0.070	1.090
2020/01/31 09:51:35.1	113.740	-0.200	-0.010	1.050
2020/01/31 09:51:35.2	113.730	-0.180	-0.090	1.020
2020/01/31 09:51:35.3	113.720	-0.160	-0.180	0.980
2020/01/31 09:51:35.4	113.710	-0.130	-0.260	0.950
2020/01/31 09:51:35.5	113.700	-0.110	-0.340	0.910
2020/01/31 09:51:35.6	113.700	-0.080	-0.430	0.880
2020/01/31 09:51:35.7	113.690	-0.050	-0.500	0.840
2020/01/31 09:51:35.8	113.690	-0.030	-0.580	0.800
2020/01/31 09:51:35.9	113.680	0.000	-0.650	0.760
2020/01/31 09:51:36.0	113.680	0.030	-0.720	0.720
2020/01/31 09:51:36.1	113.680	0.060	-0.780	0.680
2020/01/31 09:51:36.2	113.680	0.080	-0.830	0.640
2020/01/31 09:51:36.3	113.680	0.110	-0.880	0.600
2020/01/31 09:51:36.4	113.670	0.130	-0.920	0.560
2020/01/31 09:51:36.5	113.680	0.160	-0.960	0.520
2020/01/31 09:51:36.6	113.690	0.180	-0.980	0.480
2020/01/31 09:51:36.7	113.690	0.200	-1.010	0.440
2020/01/31 09:51:36.8	113.710	0.220	-1.020	0.400
2020/01/31 09:51:36.9	113.720	0.240	-1.030	0.350
2020/01/31 09:51:37.0	113.730	0.260	-1.020	0.310
2020/01/31 09:51:37.1	113.740	0.280	-1.020	0.270
2020/01/31 09:51:37.2	113.760	0.290	-1.000	0.230
2020/01/31 09:51:37.3	113.770	0.300	-0.980	0.190
2020/01/31 09:51:37.4	113.790	0.310	-0.950	0.150
2020/01/31 09:51:37.5	113.810	0.320	-0.920	0.110
2020/01/31 09:51:37.6	113.820	0.330	-0.880	0.070
2020/01/31 09:51:37.7	113.840	0.330	-0.840	0.030
2020/01/31 09:51:37.8	113.850	0.330	-0.790	-0.010
2020/01/31 09:51:37.9	113.870	0.330	-0.740	-0.040
2020/01/31 09:51:38.0	113.880	0.330	-0.680	-0.080
2020/01/31 09:51:38.1	113.890	0.330	-0.630	-0.110
2020/01/31 09:51:38.2	113.910	0.320	-0.570	-0.140
2020/01/31 09:51:38.3	113.920	0.320	-0.510	-0.180
2020/01/31 09:51:38.4	113.920	0.310	-0.440	-0.200
2020/01/31 09:51:38.5	113.930	0.300	-0.380	-0.230
2020/01/31 09:51:38.6	113.940	0.280	-0.320	-0.250
2020/01/31 09:51:38.7	113.940	0.270	-0.260	-0.270
2020/01/31 09:51:38.8	113.940	0.250	-0.200	-0.290
2020/01/31 09:51:38.9	113.950	0.240	-0.140	-0.300
2020/01/31 09:51:39.0	113.950	0.220	-0.080	-0.320
2020/01/31 09:51:39.1	113.950	0.200	-0.030	-0.320
2020/01/31 09:51:39.2	113.940	0.190	0.020	-0.330
2020/01/31 09:51:39.3	113.940	0.170	0.070	-0.330
2020/01/31 09:51:39.4	113.930	0.150	0.120	-0.330
2020/01/31 09:51:39.5	113.920	0.130	0.160	-0.320
2020/01/31 09:51:39.6	113.910	0.110	0.190	-0.320
2020/01/31 09:51:39.7	113.900	0.090	0.220	-0.300
2020/01/31 09:51:39.8	113.880	0.070	0.250	-0.290
2020/01/31 09:51:39.9	113.860	0.050	0.270	-0.270
2020/01/31 09:51:40.0	113.850	0.040	0.290	-0.250
2020/01/31 09:51:40.1	113.830	0.020	0.300	-0.230
2020/01/31 09:51:40.2	113.810	0.000	0.310	-0.200
2020/01/31 09:51:40.3	113.780	-0.010	0.320	-0.180
2020/01/31 09:51:40.4	113.760	-0.020	0.320	-0.150
2020/01/31 09:51:40.5	113.730	-0.030	0.310	-0.120
2020/01/31 09:51:40.6	113.710	-0.040	0.300	-0.090
2020/01/31 09:51:40.7	113.690	-0.050	0.290	-0.070
2020/01/31 09:51:40.8	113.660	-0.060	0.270	-0.040
2020/01/31 09:51:40.9	113.640	-0.060	0.250	-0.010
2020/01/31 09:51:41.0	113.610	-0.070	0.220	0.020
2020/01/31 09:51:41.1	113.590	-0.070	0.190	0.050
2020/01/31 09:51:41.2	113.560	-0.070	0.160	0.080
2020/01/31 09:51:41.3	113.540	-0.070	0.130	0.110
2020/01/31 09:51:41.4	113.520	-0.070	0.090	0.130
2020/01/31 09:51:41.5	113.490	-0.070	0.050	0.160
2020/01/31 09:51:41.6	113.470	-0.060	0.010	0.190
2020/01/31 09:51:41.7	113.460	-0.060	-0.040	0.210
2020/01/31 09:51:41.8	113.440	-0.050	-0.080	0.240
2020/01/31 09:51:41.9	113.420	-0.040	-0.130	0.260
2020/01/31 09:51:42.0	113.410	-0.040	-0.170	0.290
2020/01/31 09:51:42.1	113.400	-0.030	-0.220	0.310
2020/01/31 09:51:42.2	113.390	-0.020	-0.260	0.340
2020/01/31 09:51:42.3	113.380	-0.010	-0.310	0.370
2020/01/31 09:51:42.4	113.360	-0.000	-0.350	0.390
2020/01/31 09:51:42.5	113.360	0.010	-0.390	0.420
2020/01/31 09:51:42.6	113.350	0.010	-0.430	0.440
2020/01/31 09:51:42.7	113.350	0.020	-0.460	0.470
2020/01/31 09:51:42.8	113.350	0.030	-0.500	0.500
2020/01/31 09:51:42.9	113.360	0.030	-0.530	0.530
2020/01/31 09:51:43.0	113.360	0.040	-0.550	0.560
2020/01/31 09:51:43.1	113.370	0.040	-0.570	0.590
2020/01/31 09:51:43.2	113.370	0.050	-0.590	0.620
2020/01/31 09:51:43.3	113.380	0.050	-0.600	0.650
2020/01/31 09:51:43.4	113.380	0.050	-0.610	0.680
2020/01/31 09:51:43.5	113.390	0.050	-0.610	0.710
2020/01/31 09:51:43.6	113.410	0.050	-0.610	0.740
2020/01/31 09:51:43.7	113.420	0.050	-0.610	0.770
2020/01/31 09:51:43.8	113.440	0.050	-0.600	0.800
2020/01/31 09:51:43.9	113.460	0.040	-0.590	0.830
2020/01/31 09:51:44.0	113.480	0.040	-0.570	0.860
2020/01/31 09:51:44.1	113.500	0.030	-0.550	0.890
2020/01/31 09:51:44.2	113.520	0.020	-0.530	0.930
2020/01/31 09:51:44.3	113.540	0.010	-0.510	0.960
2020/01/31 09:51:44.4	113.560	0.000	-0.470	0.990
2020/01/31 09:51:44.5	113.580	-0.010	-0.440	1.020
2020/01/31 09:51:44.6	113.600	-0.020	-0.410	1.050
2020/01/31 09:51:44.7	113.620	-0.030	-0.370	1.080
2020/01/31 09:51:44.8	113.640	-0.050	-0.330	1.110
2020/01/31 09:51:44.9	113.660	-0.060	-0.290	1.140
2020/01/31 09:51:45.0	113.670	-0.080	-0.250	1.180
2020/01/31 09:51:45.1	113.690	-0.090	-0.210	1.210
2020/01/31 09:51:45.2	113.710	-0.110	-0.170	1.240
2020/01/31 09:51:45.3	113.720	-0.120	-0.120	1.270
2020/01/31 09:51:45.4	113.730	-0.140	-0.080	1.300
2020/01/31 09:51:45.5	113.750	-0.150	-0.040	1.330
2020/01/31 09:51:45.6	113.760	-0.170	0.010	1.350
2020/01/31 09:51:45.7	113.780	-0.180	0.050	1.380
2020/01/31 09:51:45.8	113.790	-0.200	0.100	1.400
2020/01/31 09:51:45.9	113.800	-0.210	0.140	1.420
2020/01/31 09:51:46.0	113.820	-0.230	0.190	1.440
2020/01/31 09:51:46.1	113.830	-0.240	0.230	1.450
2020/01/31 09:51:46.2	113.840	-0.250	0.270	1.470
2020/01/31 09:51:46.3	113.860	-0.260	0.300	1.470
2020/01/31 09:51:46.4	113.890	-0.270	0.340	1.480
2020/01/31 09:51:46.5	113.900	-0.280	0.370	1.490
2020/01/31 09:51:46.6	113.910	-0.290	0.400	1.490
2020/01/31 09:51:46.7	113.930	-0.300	0.430	1.480
2020/01/31 09:51:46.8	113.940	-0.300	0.450	1.480
2020/01/31 09:51:46.9	113.950	-0.310	0.480	1.470
2020/01/31 09:51:47.0	113.960	-0.310	0.490	1.460
2020/01/31 09:51:47.1	113.970	-0.310	0.510	1.450
2020/01/31 09:51:47.2	113.980	-0.310	0.520	1.440
2020/01/31 09:51:47.3	113.990	-0.310	0.520	1.420
2020/01/31 09:51:47.4	114.020	-0.300	0.520	1.410
2020/01/31 09:51:47.5	114.020	-0.300	0.520	1.390
2020/01/31 09:51:47.6	114.020	-0.290	0.510	1.370
2020/01/31 09:51:47.7	114.030	-0.280	0.500	1.360
2020/01/31 09:51:47.8	114.030	-0.280	0.480	1.340
2020/01/31 09:51:47.9	114.030	-0.260	0.460	1.320
2020/01/31 09:51:48.0	114.020	-0.250	0.440	1.300
2020/01/31 09:51:48.1	114.020	-0.240	0.410	1.280
2020/01/31 09:51:48.2	114.010	-0.220	0.370	1.260
2020/01/31 09:51:48.3	114.000	-0.210	0.330	1.250
2020/01/31 09:51:48.4	114.010	-0.190	0.290	1.230
2020/01/31 09:51:48.5	114.000	-0.180	0.240	1.210
2020/01/31 09:51:48.6	113.990	-0.160	0.190	1.200
2020/01/31 09:51:48.7	113.970	-0.140	0.140	1.180
2020/01/31 09:51:48.8	113.960	-0.120	0.090	1.170
2020/01/31 09:51:48.9	113.940	-0.100	0.030	1.150
2020/01/31 09:51:49.0	113.930	-0.080	-0.020	1.140
2020/01/31 09:51:49.1	113.910	-0.070	-0.080	1.120
2020/01/31 09:51:49.2	113.900	-0.050	-0.140	1.110
2020/01/31 09:51:49.3	113.880	-0.030	-0.200	1.100
2020/01/31 09:51:49.4	113.870	-0.010	-0.260	1.080
2020/01/31 09:51:49.5	113.860	0.000	-0.310	1.070
2020/01/31 09:51:49.6	113.850	0.020	-0.370	1.050
2020/01/31 09:51:49.7	113.830	0.040	-0.420	1.040
2020/01/31 09:51:49.8	113.820	0.050	-0.470	1.020
2020/01/31 09:51:49.9	113.820	0.060	-0.520	1.010
2020/01/31 09:51:50.0	113.810	0.070	-0.570	0.990
2020/01/31 09:51:50.1	113.800	0.090	-0.610	0.980
2020/01/31 09:51:50.2	113.800	0.100	-0.650	0.960
2020/01/31 09:51:50.3	113.790	0.100	-0.690	0.940
2020/01/31 09:51:50.4	113.790	0.110	-0.720	0.920
2020/01/31 09:51:50.5	113.780	0.120	-0.750	0.900
2020/01/31 09:51:50.6	113.780	0.120	-0.770	0.880
2020/01/31 09:51:50.7	113.780	0.130	-0.790	0.860
2020/01/31 09:51:50.8	113.780	0.130	-0.800	0.840
2020/01/31 09:51:50.9	113.770	0.140	-0.810	0.820
2020/01/31 09:51:51.0	113.770	0.140	-0.820	0.800
2020/01/31 09:51:51.1	113.770	0.140	-0.820	0.780
2020/01/31 09:51:51.2	113.770	0.140	-0.810	0.760
2020/01/31 09:51:51.3	113.760	0.140	-0.810	0.740
2020/01/31 09:51:51.4	113.740	0.140	-0.800	0.720
2020/01/31 09:51:51.5	113.730	0.140	-0.780	0.690
2020/01/31 09:51:51.6	113.730	0.140	-0.770	0.670
2020/01/31 09:51:51.7	113.720	0.140	-0.750	0.640
2020/01/31 09:51:51.8	113.710	0.140	-0.730	0.620
2020/01/31 09:51:51.9	113.690	0.140	-0.700	0.590
2020/01/31 09:51:52.0	113.680	0.140	-0.680	0.570
2020/01/31 09:51:52.1	113.660	0.140	-0.650	0.540
2020/01/31 09:51:52.2	113.650	0.140	-0.620	0.520
2020/01/31 09:51:52.3	113.630	0.140	-0.590	0.490
2020/01/31 09:51:52.4	113.600	0.140	-0.560	0.460
2020/01/31 09:51:52.5	113.580	0.140	-0.530	0.440
2020/01/31 09:51:52.6	113.560	0.140	-0.510	0.420
2020/01/31 09:51:52.7	113.540	0.150	-0.480	0.390
2020/01/31 09:51:52.8	113.520	0.150	-0.450	0.370
2020/01/31 09:51:52.9	113.490	0.150	-0.420	0.350
2020/01/31 09:51:53.0	113.470	0.160	-0.400	0.330
2020/01/31 09:51:53.1	113.440	0.160	-0.370	0.310
2020/01/31 09:51:53.2	113.420	0.170	-0.350	0.290
2020/01/31 09:51:53.3	113.400	0.180	-0.330	0.280
2020/01/31 09:51:53.4	113.360	0.180	-0.310	0.260
2020/01/31 09:51:53.5	113.340	0.190	-0.290	0.250
2020/01/31 09:51:53.6	113.320	0.200	-0.270	0.240
2020/01/31 09:51:53.7	113.300	0.210	-0.260	0.230
2020/01/31 09:51:53.8	113.280	0.220	-0.240	0.220
2020/01/31 09:51:53.9	113.270	0.230	-0.230	0.210
2020/01/31 09:51:54.0	113.250	0.240	-0.220	0.200
2020/01/31 09:51:54.1	113.240	0.250	-0.200	0.200
2020/01/31 09:51:54.2	113.230	0.260	-0.190	0.190
2020/01/31 09:51:54.3	113.230	0.270	-0.180	0.190
2020/01/31 09:51:54.4	113.200	0.280	-0.170	0.180
2020/01/31 09:51:54.5	113.200	0.290	-0.160	0.180
2020/01/31 09:51:54.6	113.200	0.290	-0.140	0.180
2020/01/31 09:51:54.7	113.210	0.300	-0.130	0.170
2020/01/31 09:51:54.8	113.210	0.310	-0.120	0.170
2020/01/31 09:51:54.9	113.220	0.310	-0.100	0.170
2020/01/31 09:51:55.0	113.230	0.310	-0.090	0.170
2020/01/31 09:51:55.1	113.240	0.320	-0.070	0.160
2020/01/31 09:51:55.2	113.260	0.320	-0.050	0.160
2020/01/31 09:51:55.3	113.280	0.320	-0.040	0.160
2020/01/31 09:51:55.4	113.300	0.310	-0.020	0.160
2020/01/31 09:51:55.5	113.320	0.310	0.000	0.160
2020/01/31 09:51:55.6	113.350	0.300	0.020	0.160
2020/01/31 09:51:55.7	113.380	0.300	0.050	0.150
2020/01/31 09:51:55.8	113.410	0.290	0.070	0.150
2020/01/31 09:51:55.9	113.440	0.270	0.090	0.160
2020/01/31 09:51:56.0	113.470	0.260	0.110	0.160
2020/01/31 09:51:56.1	113.500	0.250	0.140	0.160
2020/01/31 09:51:56.2	113.540	0.230	0.160	0.160
2020/01/31 09:51:56.3	113.570	0.210	0.190	0.160
2020/01/31 09:51:56.4	113.610	0.190	0.210	0.170
2020/01/31 09:51:56.5	113.640	0.170	0.240	0.170
2020/01/31 09:51:56.6	113.680	0.150	0.260	0.180
2020/01/31 09:51:56.7	113.720	0.130	0.290	0.180
2020/01/31 09:51:56.8	113.750	0.100	0.310	0.190
2020/01/31 09:51:56.9	113.790	0.080	0.340	0.200
2020/01/31 09:51:57.0	113.820	0.050	0.360	0.220
2020/01/31 09:51:57.1	113.850	0.030	0.380	0.230
2020/01/31 09:51:57.2	113.880	0.010	0.400	0.250
2020/01/31 09:51:57.3	113.910	-0.020	0.420	0.270
2020/01/31 09:51:57.4	113.950	-0.040	0.440	0.300
2020/01/31 09:51:57.5	113.970	-0.060	0.450	0.320
2020/01/31 09:51:57.6	113.990	-0.090	0.460	0.350
2020/01/31 09:51:57.7	114.000	-0.110	0.470	0.380
2020/01/31 09:51:57.8	114.010	-0.130	0.480	0.420
2020/01/31 09:51:57.9	114.010	-0.140	0.480	0.460
2020/01/31 09:51:58.0	114.010	-0.160	0.480	0.510
2020/01/31 09:51:58.1	114.010	-0.170	0.470	0.560
2020/01/31 09:51:58.2	114.000	-0.180	0.460	0.610
2020/01/31 09:51:58.3	113.980	-0.190	0.450	0.670
2020/01/31 09:51:58.4	113.970	-0.200	0.430	0.730
2020/01/31 09:51:58.5	113.940	-0.210	0.410	0.790
2020/01/31 09:51:58.6	113.920	-0.210	0.380	0.860
2020/01/31 09:51:58.7	113.880	-0.210	0.350	0.930
2020/01/31 09:51:58.8	113.850	-0.210	0.310	1.000
2020/01/31 09:51:58.9	113.810	-0.210	0.280	1.080
2020/01/31 09:51:59.0	113.770	-0.200	0.230	1.150
2020/01/31 09:51:59.1	113.720	-0.200	0.190	1.230
2020/01/31 09:51:59.2	113.680	-0.190	0.140	1.300
2020/01/31 09:51:59.3	113.630	-0.180	0.090	1.380
2020/01/31 09:51:59.4	113.600	-0.170	0.040	1.450
2020/01/31 09:51:59.5	113.550	-0.160	-0.010	1.530
2020/01/31 09:51:59.6	113.510	-0.150	-0.070	1.600
2020/01/31 09:51:59.7	113.460	-0.140	-0.120	1.660
2020/01/31 09:51:59.8	113.410	-0.130	-0.170	1.720
2020/01/31 09:51:59.9	113.370	-0.120	-0.230	1.780
2020/01/31 09:52:00.0	113.330	-0.110	-0.280	1.840
2020/01/31 09:52:00.1	113.290	-0.100	-0.330	1.890
2020/01/31 09:52:00.2	113.250	-0.090	-0.380	1.940
2020/01/31 09:52:00.3	113.220	-0.080	-0.430	1.980
2020/01/31 09:52:00.4	113.200	-0.070	-0.480	2.020
2020/01/31 09:52:00.5	113.170	-0.060	-0.520	2.050
2020/01/31 09:52:00.6	113.140	-0.060	-0.560	2.080
2020/01/31 09:52:00.7	113.120	-0.050	-0.600	2.110
2020/01/31 09:52:00.8	113.100	-0.040	-0.640	2.130
2020/01/31 09:52:00.9	113.090	-0.040	-0.670	2.150
2020/01/31 09:52:01.0	113.080	-0.040	-0.700	2.170
2020/01/31 09:52:01.1	113.070	-0.040	-0.720	2.180
2020/01/31 09:52:01.2	113.060	-0.030	-0.750	2.190
2020/01/31 09:52:01.3	113.060	-0.040	-0.770	2.200
2020/01/31 09:52:01.4	113.050	-0.040	-0.780	2.200
2020/01/31 09:52:01.5	113.050	-0.040	-0.790	2.200
2020/01/31 09:52:01.6	113.060	-0.040	-0.800	2.200
2020/01/31 09:52:01.7	113.060	-0.050	-0.810	2.190
2020/01/31 09:52:01.8	113.070	-0.050	-0.820	2.190
2020/01/31 09:52:01.9	113.080	-0.060	-0.820	2.180
2020/01/31 09:52:02.0	113.100	-0.070	-0.820	2.170
2020/01/31 09:52:02.1	113.110	-0.080	-0.810	2.160
2020/01/31 09:52:02.2	113.130	-0.080	-0.810	2.140
2020/01/31 09:52:02.3	113.140	-0.090	-0.800	2.120
2020/01/31 09:52:02.4	113.160	-0.100	-0.790	2.100
2020/01/31 09:52:02.5	113.180	-0.110	-0.780	2.080
2020/01/31 09:52:02.6	113.200	-0.120	-0.770	2.050
2020/01/31 09:52:02.7	113.220	-0.130	-0.750	2.020
2020/01/31 09:52:02.8	113.240	-0.130	-0.730	1.990
2020/01/31 09:52:02.9	113.260	-0.140	-0.720	1.950
2020/01/31 09:52:03.0	113.280	-0.150	-0.700	1.920
2020/01/31 09:52:03.1	113.310	-0.160	-0.680	1.880
2020/01/31 09:52:03.2	113.330	-0.160	-0.650	1.830
2020/01/31 09:52:03.3	113.350	-0.170	-0.630	1.790
2020/01/31 09:52:03.4	113.380	-0.170	-0.610	1.730
2020/01/31 09:52:03.5	113.410	-0.180	-0.590	1.680
2020/01/31 09:52:03.6	113.430	-0.180	-0.560	1.630
2020/01/31 09:52:03.7	113.450	-0.180	-0.530	1.580
2020/01/31 09:52:03.8	113.470	-0.180	-0.510	1.520
2020/01/31 09:52:03.9	113.480	-0.180	-0.480	1.470
2020/01/31 09:52:04.0	113.500	-0.180	-0.450	1.410
2020/01/31 09:52:04.1	113.510	-0.180	-0.420	1.350
2020/01/31 09:52:04.2	113.530	-0.180	-0.390	1.290
2020/01/31 09:52:04.3	113.540	-0.170	-0.360	1.230
2020/01/31 09:52:04.4	113.540	-0.170	-0.330	1.180
2020/01/31 09:52:04.5	113.550	-0.160	-0.300	1.120
2020/01/31 09:52:04.6	113.560	-0.160	-0.270	1.060
2020/01/31 09:52:04.7	113.560	-0.150	-0.240	1.000
2020/01/31 09:52:04.8	113.560	-0.140	-0.200	0.950
2020/01/31 09:52:04.9	113.560	-0.130	-0.170	0.890
2020/01/31 09:52:05.0	113.560	-0.120	-0.140	0.830
2020/01/31 09:52:05.1	113.560	-0.110	-0.100	0.780
2020/01/31 09:52:05.2	113.550	-0.100	-0.070	0.730
2020/01/31 09:52:05.3	113.550	-0.090	-0.040	0.670
2020/01/31 09:52:05.4	113.520	-0.080	0.000	0.620
2020/01/31 09:52:05.5	113.520	-0.070	0.030	0.570
2020/01/31 09:52:05.6	113.510	-0.060	0.070	0.520
2020/01/31 09:52:05.7	113.500	-0.050	0.100	0.470
2020/01/31 09:52:05.8	113.490	-0.040	0.140	0.420
2020/01/31 09:52:05.9	113.480	-0.030	0.170	0.370
2020/01/31 09:52:06.0	113.470	-0.020	0.200	0.330
2020/01/31 09:52:06.1	113.470	-0.010	0.230	0.280
2020/01/31 09:52:06.2	113.460	-0.000	0.260	0.230
2020/01/31 09:52:06.3	113.450	0.010	0.290	0.190
2020/01/31 09:52:06.4	113.450	0.010	0.320	0.140
2020/01/31 09:52:06.5	113.440	0.020	0.340	0.100
2020/01/31 09:52:06.6	113.440	0.020	0.360	0.050
2020/01/31 09:52:06.7	113.430	0.030	0.380	0.010
2020/01/31 09:52:06.8	113.430	0.030	0.400	-0.040
2020/01/31 09:52:06.9	113.430	0.040	0.410	-0.080
2020/01/31 09:52:07.0	113.430	0.040	0.430	-0.130
2020/01/31 09:52:07.1	113.420	0.040	0.440	-0.170
2020/01/31 09:52:07.2	113.420	0.040	0.440	-0.220
2020/01/31 09:52:07.3	113.420	0.050	0.440	-0.260
2020/01/31 09:52:07.4	113.400	0.050	0.440	-0.310
2020/01/31 09:52:07.5	113.400	0.050	0.440	-0.350
2020/01/31 09:52:07.6	113.400	0.050	0.430	-0.390
2020/01/31 09:52:07.7	113.400	0.060	0.420	-0.430
2020/01/31 09:52:07.8	113.400	0.060	0.410	-0.470
2020/01/31 09:52:07.9	113.400	0.060	0.390	-0.510
2020/01/31 09:52:08.0	113.400	0.070	0.370	-0.550
2020/01/31 09:52:08.1	113.400	0.070	0.340	-0.580
2020/01/31 09:52:08.2	113.400	0.080	0.310	-0.610
2020/01/31 09:52:08.3	113.400	0.090	0.280	-0.650
2020/01/31 09:52:08.4	113.390	0.090	0.250	-0.680
2020/01/31 09:52:08.5	113.390	0.100	0.210	-0.710
2020/01/31 09:52:08.6	113.380	0.110	0.170	-0.730
2020/01/31 09:52:08.7	113.380	0.120	0.130	-0.750
2020/01/31 09:52:08.8	113.380	0.140	0.080	-0.780
2020/01/31 09:52:08.9	113.380	0.150	0.030	-0.800
2020/01/31 09:52:09.0	113.380	0.160	-0.020	-0.810
2020/01/31 09:52:09.1	113.380	0.180	-0.070	-0.830
2020/01/31 09:52:09.2	113.370	0.190	-0.120	-0.840
2020/01/31 09:52:09.3	113.370	0.210	-0.170	-0.850
2020/01/31 09:52:09.4	113.380	0.220	-0.220	-0.860
2020/01/31 09:52:09.5	113.380	0.240	-0.270	-0.870
2020/01/31 09:52:09.6	113.380	0.260	-0.320	-0.870
2020/01/31 09:52:09.7	113.380	0.270	-0.370	-0.880
2020/01/31 09:52:09.8	113.390	0.290	-0.420	-0.880
2020/01/31 09:52:09.9	113.390	0.300	-0.460	-0.880
2020/01/31 09:52:10.0	113.400	0.310	-0.500	-0.870
2020/01/31 09:52:10.1	113.410	0.330	-0.540	-0.870
2020/01/31 09:52:10.2	113.420	0.340	-0.580	-0.860
2020/01/31 09:52:10.3	113.430	0.340	-0.620	-0.850
2020/01/31 09:52:10.4	113.440	0.350	-0.650	-0.830
2020/01/31 09:52:10.5	113.450	0.360	-0.670	-0.810
2020/01/31 09:52:10.6	113.460	0.360	-0.700	-0.790
2020/01/31 09:52:10.7	113.470	0.360	-0.710	-0.760
2020/01/31 09:52:10.8	113.490	0.360	-0.730	-0.730
2020/01/31 09:52:10.9	113.500	0.360	-0.740	-0.700
2020/01/31 09:52:11.0	113.520	0.360	-0.740	-0.660
2020/01/31 09:52:11.1	113.530	0.350	-0.740	-0.620
2020/01/31 09:52:11.2	113.550	0.340	-0.740	-0.580
2020/01/31 09:52:11.3	113.560	0.330	-0.730	-0.530
2020/01/31 09:52:11.4	113.590	0.320	-0.710	-0.480
2020/01/31 09:52:11.5	113.600	0.300	-0.700	-0.420
2020/01/31 09:52:11.6	113.620	0.280	-0.670	-0.360
2020/01/31 09:52:11.7	113.640	0.260	-0.650	-0.300
2020/01/31 09:52:11.8	113.650	0.240	-0.610	-0.230
2020/01/31 09:52:11.9	113.670	0.220	-0.580	-0.160
2020/01/31 09:52:12.0	113.690	0.200	-0.540	-0.090
2020/01/31 09:52:12.1	113.710	0.170	-0.500	-0.010
2020/01/31 09:52:12.2	113.730	0.150	-0.460	0.060
2020/01/31 09:52:12.3	113.740	0.120	-0.410	0.140
2020/01/31 09:52:12.4	113.770	0.090	-0.360	0.230
2020/01/31 09:52:12.5	113.790	0.070	-0.310	0.310
2020/01/31 09:52:12.6	113.810	0.040	-0.260	0.400
2020/01/31 09:52:12.7	113.830	0.010	-0.210	0.480
2020/01/31 09:52:12.8	113.850	-0.010	-0.160	0.570
2020/01/31 09:52:12.9	113.870	-0.040	-0.110	0.660
2020/01/31 09:52:13.0	113.890	-0.070	-0.060	0.740
2020/01/31 09:52:13.1	113.910	-0.090	-0.010	0.830
2020/01/31 09:52:13.2	113.930	-0.120	0.040	0.920
2020/01/31 09:52:13.3	113.940	-0.140	0.090	1.000
2020/01/31 09:52:13.4	113.970	-0.160	0.130	1.090
2020/01/31 09:52:13.5	113.980	-0.180	0.180	1.170
2020/01/31 09:52:13.6	114.000	-0.200	0.220	1.250
2020/01/31 09:52:13.7	114.020	-0.220	0.260	1.330
2020/01/31 09:52:13.8	114.040	-0.230	0.290	1.410
2020/01/31 09:52:13.9	114.050	-0.240	0.330	1.490
2020/01/31 09:52:14.0	114.070	-0.260	0.360	1.570
2020/01/31 09:52:14.1	114.080	-0.270	0.380	1.640
2020/01/31 09:52:14.2	114.100	-0.280	0.400	1.720
2020/01/31 09:52:14.3	114.110	-0.280	0.420	1.790
2020/01/31 09:52:14.4	114.130	-0.290	0.440	1.860
2020/01/31 09:52:14.5	114.140	-0.290	0.450	1.930
2020/01/31 09:52:14.6	114.140	-0.290	0.450	1.990
2020/01/31 09:52:14.7	114.150	-0.290	0.450	2.060
2020/01/31 09:52:14.8	114.150	-0.280	0.450	2.120
2020/01/31 09:52:14.9	114.150	-0.280	0.440	2.190
2020/01/31 09:52:15.0	114.150	-0.270	0.430	2.250
2020/01/31 09:52:15.1	114.140	-0.270	0.410	2.310
2020/01/31 09:52:15.2	114.140	-0.260	0.390	2.360
2020/01/31 09:52:15.3	114.130	-0.240	0.360	2.420
2020/01/31 09:52:15.4	114.120	-0.230	0.330	2.470
2020/01/31 09:52:15.5	114.110	-0.220	0.300	2.520
2020/01/31 09:52:15.6	114.100	-0.200	0.260	2.570
2020/01/31 09:52:15.7	114.090	-0.180	0.220	2.610
2020/01/31 09:52:15.8	114.070	-0.170	0.170	2.650
2020/01/31 09:52:15.9	114.060	-0.150	0.120	2.690
2020/01/31 09:52:16.0	114.040	-0.130	0.060	2.720
2020/01/31 09:52:16.1	114.020	-0.110	0.000	2.750
2020/01/31 09:52:16.2	114.000	-0.090	-0.060	2.780
2020/01/31 09:52:16.3	113.980	-0.060	-0.120	2.800
2020/01/31 09:52:16.4	113.970	-0.040	-0.190	2.820
2020/01/31 09:52:16.5	113.950	-0.020	-0.260	2.830
2020/01/31 09:52:16.6	113.930	0.010	-0.320	2.840
2020/01/31 09:52:16.7	113.910	0.030	-0.400	2.840
2020/01/31 09:52:16.8	113.890	0.050	-0.470	2.850
2020/01/31 09:52:16.9	113.880	0.080	-0.540	2.840
2020/01/31 09:52:17.0	113.860	0.100	-0.610	2.840
2020/01/31 09:52:17.1	113.840	0.120	-0.670	2.830
2020/01/31 09:52:17.2	113.830	0.150	-0.740	2.810
2020/01/31 09:52:17.3	113.810	0.170	-0.800	2.800
2020/01/31 09:52:17.4	113.810	0.190	-0.860	2.770
2020/01/31 09:52:17.5	113.790	0.210	-0.920	2.750
2020/01/31 09:52:17.6	113.780	0.230	-0.970	2.720
2020/01/31 09:52:17.7	113.770	0.250	-1.010	2.680
2020/01/31 09:52:17.8	113.770	0.260	-1.050	2.650
2020/01/31 09:52:17.9	113.760	0.280	-1.080	2.610
2020/01/31 09:52:18.0	113.760	0.290	-1.110	2.570
2020/01/31 09:52:18.1	113.760	0.300	-1.120	2.520
2020/01/31 09:52:18.2	113.760	0.310	-1.130	2.470
2020/01/31 09:52:18.3	113.760	0.320	-1.130	2.420
2020/01/31 09:52:18.4	113.760	0.330	-1.130	2.360
2020/01/31 09:52:18.5	113.770	0.330	-1.110	2.300
2020/01/31 09:52:18.6	113.780	0.330	-1.090	2.230
2020/01/31 09:52:18.7	113.790	0.330	-1.050	2.170
2020/01/31 09:52:18.8	113.800	0.320	-1.010	2.100
2020/01/31 09:52:18.9	113.810	0.310	-0.970	2.020
2020/01/31 09:52:19.0	113.830	0.300	-0.910	1.940
2020/01/31 09:52:19.1	113.850	0.290	-0.850	1.860
2020/01/31 09:52:19.2	113.870	0.280	-0.780	1.780
2020/01/31 09:52:19.3	113.890	0.260	-0.710	1.700
2020/01/31 09:52:19.4	113.910	0.240	-0.630	1.610
2020/01/31 09:52:19.5	113.930	0.220	-0.550	1.520
2020/01/31 09:52:19.6	113.950	0.190	-0.470	1.420
2020/01/31 09:52:19.7	113.980	0.160	-0.380	1.330
2020/01/31 09:52:19.8	114.000	0.140	-0.300	1.230
2020/01/31 09:52:19.9	114.030	0.110	-0.210	1.130
2020/01/31 09:52:20.0	114.060	0.080	-0.120	1.030
2020/01/31 09:52:20.1	114.080	0.040	-0.040	0.930
2020/01/31 09:52:20.2	114.110	0.010	0.050	0.830
2020/01/31 09:52:20.3	114.130	-0.020	0.130	0.720
2020/01/31 09:52:20.4	114.170	-0.060	0.200	0.620
2020/01/31 09:52:20.5	114.190	-0.090	0.280	0.510
2020/01/31 09:52:20.6	114.220	-0.120	0.340	0.410
2020/01/31 09:52:20.7	114.240	-0.160	0.410	0.300
2020/01/31 09:52:20.8	114.260	-0.190	0.460	0.200
2020/01/31 09:52:20.9	114.290	-0.220	0.510	0.090
2020/01/31 09:52:21.0	114.310	-0.250	0.560	-0.010
2020/01/31 09:52:21.1	114.330	-0.280	0.600	-0.110
2020/01/31 09:52:21.2	114.350	-0.310	0.630	-0.210
2020/01/31 09:52:21.3	114.370	-0.340	0.650	-0.300
2020/01/31 09:52:21.4	114.380	-0.360	0.670	-0.400
2020/01/31 09:52:21.5	114.390	-0.380	0.680	-0.480
2020/01/31 09:52:21.6	114.410	-0.400	0.680	-0.570
2020/01/31 09:52:21.7	114.420	-0.420	0.680	-0.650
2020/01/31 09:52:21.8	114.430	-0.430	0.670	-0.720
2020/01/31 09:52:21.9	114.430	-0.440	0.660	-0.790
2020/01/31 09:52:22.0	114.440	-0.450	0.640	-0.860
2020/01/31 09:52:22.1	114.440	-0.450	0.610	-0.910
2020/01/31 09:52:22.2	114.440	-0.460	0.580	-0.970
2020/01/31 09:52:22.3	114.430	-0.460	0.550	-1.010
2020/01/31 09:52:22.4	114.420	-0.450	0.510	-1.050
2020/01/31 09:52:22.5	114.420	-0.450	0.460	-1.080
2020/01/31 09:52:22.6	114.410	-0.440	0.420	-1.110
2020/01/31 09:52:22.7	114.400	-0.430	0.370	-1.130
2020/01/31 09:52:22.8	114.390	-0.420	0.320	-1.140
2020/01/31 09:52:22.9	114.370	-0.410	0.270	-1.150
2020/01/31 09:52:23.0	114.360	-0.400	0.220	-1.150
2020/01/31 09:52:23.1	114.340	-0.380	0.170	-1.150
2020/01/31 09:52:23.2	114.320	-0.360	0.110	-1.140
2020/01/31 09:52:23.3	114.300	-0.340	0.060	-1.130
2020/01/31 09:52:23.4	114.270	-0.330	0.020	-1.110
2020/01/31 09:52:23.5	114.250	-0.310	-0.030	-1.080
2020/01/31 09:52:23.6	114.230	-0.290	-0.070	-1.060
2020/01/31 09:52:23.7	114.210	-0.270	-0.120	-1.020
2020/01/31 09:52:23.8	114.190	-0.250	-0.160	-0.990
2020/01/31 09:52:23.9	114.170	-0.230	-0.200	-0.950
2020/01/31 09:52:24.0	114.150	-0.210	-0.230	-0.910
2020/01/31 09:52:24.1	114.130	-0.190	-0.260	-0.870
2020/01/31 09:52:24.2	114.110	-0.180	-0.290	-0.830
2020/01/31 09:52:24.3	114.100	-0.160	-0.320	-0.780
2020/01/31 09:52:24.4	114.090	-0.140	-0.330	-0.730
2020/01/31 09:52:24.5	114.080	-0.130	-0.350	-0.680
2020/01/31 09:52:24.6	114.060	-0.110	-0.370	-0.630
2020/01/31 09:52:24.7	114.050	-0.100	-0.390	-0.580
2020/01/31 09:52:24.8	114.040	-0.080	-0.400	-0.530
2020/01/31 09:52:24.9	114.030	-0.070	-0.410	-0.480
2020/01/31 09:52:25.0	114.020	-0.060	-0.420	-0.430
2020/01/31 09:52:25.1	114.010	-0.050	-0.430	-0.370
2020/01/31 09:52:25.2	114.000	-0.040	-0.440	-0.320
2020/01/31 09:52:25.3	113.990	-0.020	-0.440	-0.270
2020/01/31 09:52:25.4	113.990	-0.010	-0.450	-0.210
2020/01/31 09:52:25.5	113.980	-0.000	-0.450	-0.150
2020/01/31 09:52:25.6	113.980	0.010	-0.460	-0.100
2020/01/31 09:52:25.7	113.970	0.020	-0.460	-0.040
2020/01/31 09:52:25.8	113.960	0.030	-0.460	0.020
2020/01/31 09:52:25.9	113.950	0.040	-0.470	0.070
2020/01/31 09:52:26.0	113.950	0.050	-0.470	0.130
2020/01/31 09:52:26.1	113.940	0.060	-0.470	0.190
2020/01/31 09:52:26.2	113.930	0.080	-0.480	0.250
2020/01/31 09:52:26.3	113.930	0.090	-0.480	0.300
2020/01/31 09:52:26.4	113.910	0.100	-0.480	0.360
2020/01/31 09:52:26.5	113.910	0.120	-0.490	0.420
2020/01/31 09:52:26.6	113.900	0.130	-0.490	0.480
2020/01/31 09:52:26.7	113.890	0.150	-0.490	0.530
2020/01/31 09:52:26.8	113.890	0.170	-0.500	0.590
2020/01/31 09:52:26.9	113.880	0.180	-0.500	0.650
2020/01/31 09:52:27.0	113.870	0.200	-0.510	0.700
2020/01/31 09:52:27.1	113.870	0.220	-0.510	0.750
2020/01/31 09:52:27.2	113.870	0.240	-0.510	0.810
2020/01/31 09:52:27.3	113.860	0.260	-0.510	0.860
2020/01/31 09:52:27.4	113.860	0.280	-0.520	0.910
2020/01/31 09:52:27.5	113.850	0.300	-0.520	0.960
2020/01/31 09:52:27.6	113.850	0.320	-0.510	1.000
2020/01/31 09:52:27.7	113.860	0.340	-0.510	1.050
2020/01/31 09:52:27.8	113.860	0.350	-0.510	1.090
2020/01/31 09:52:27.9	113.860	0.370	-0.500	1.130
2020/01/31 09:52:28.0	113.870	0.390	-0.490	1.170
2020/01/31 09:52:28.1	113.870	0.410	-0.490	1.200
2020/01/31 09:52:28.2	113.880	0.430	-0.470	1.240
2020/01/31 09:52:28.3	113.890	0.440	-0.460	1.270
2020/01/31 09:52:28.4	113.900	0.460	-0.450	1.300
2020/01/31 09:52:28.5	113.920	0.470	-0.430	1.320
2020/01/31 09:52:28.6	113.930	0.480	-0.410	1.350
2020/01/31 09:52:28.7	113.950	0.490	-0.390	1.370
2020/01/31 09:52:28.8	113.970	0.500	-0.370	1.390
2020/01/31 09:52:28.9	113.990	0.510	-0.340	1.410
2020/01/31 09:52:29.0	114.010	0.510	-0.320	1.430
2020/01/31 09:52:29.1	114.030	0.510	-0.290	1.440
2020/01/31 09:52:29.2	114.060	0.510	-0.260	1.460
2020/01/31 09:52:29.3	114.080	0.510	-0.230	1.470
2020/01/31 09:52:29.4	114.110	0.500	-0.190	1.480
2020/01/31 09:52:29.5	114.130	0.500	-0.160	1.490
2020/01/31 09:52:29.6	114.160	0.480	-0.120	1.500
2020/01/31 09:52:29.7	114.190	0.470	-0.080	1.500
2020/01/31 09:52:29.8	114.220	0.460	-0.050	1.510
2020/01/31 09:52:29.9	114.240	0.440	-0.010	1.510
2020/01/31 09:52:30.0	114.270	0.420	0.030	1.510
2020/01/31 09:52:30.1	114.290	0.400	0.070	1.520
2020/01/31 09:52:30.2	114.320	0.370	0.110	1.520
2020/01/31 09:52:30.3	114.340	0.340	0.140	1.520
2020/01/31 09:52:30.4	114.370	0.320	0.180	1.520
2020/01/31 09:52:30.5	114.390	0.280	0.210	1.520
2020/01/31 09:52:30.6	114.400	0.250	0.250	1.520
2020/01/31 09:52:30.7	114.420	0.220	0.280	1.520
2020/01/31 09:52:30.8	114.430	0.180	0.300	1.520
2020/01/31 09:52:30.9	114.440	0.150	0.330	1.520
2020/01/31 09:52:31.0	114.450	0.110	0.350	1.510
2020/01/31 09:52:31.1	114.460	0.070	0.370	1.510
2020/01/31 09:52:31.2	114.460	0.030	0.390	1.510
2020/01/31 09:52:31.3	114.470	-0.000	0.400	1.500
2020/01/31 09:52:31.4	114.460	-0.040	0.410	1.500
2020/01/31 09:52:31.5	114.460	-0.080	0.420	1.490
2020/01/31 09:52:31.6	114.450	-0.120	0.420	1.490
2020/01/31 09:52:31.7	114.450	-0.160	0.420	1.480
2020/01/31 09:52:31.8	114.440	-0.190	0.410	1.480
2020/01/31 09:52:31.9	114.430	-0.230	0.400	1.470
2020/01/31 09:52:32.0	114.420	-0.260	0.390	1.460
2020/01/31 09:52:32.1	114.410	-0.300	0.370	1.450
2020/01/31 09:52:32.2	114.390	-0.330	0.340	1.450
2020/01/31 09:52:32.3	114.380	-0.360	0.320	1.440
2020/01/31 09:52:32.4	114.360	-0.380	0.290	1.430
2020/01/31 09:52:32.5	114.340	-0.410	0.250	1.420
2020/01/31 09:52:32.6	114.320	-0.430	0.210	1.420
2020/01/31 09:52:32.7	114.300	-0.450	0.170	1.410
2020/01/31 09:52:32.8	114.280	-0.470	0.120	1.400
2020/01/31 09:52:32.9	114.250	-0.480	0.080	1.400
2020/01/31 09:52:33.0	114.230	-0.490	0.020	1.390
2020/01/31 09:52:33.1	114.200	-0.500	-0.030	1.390
2020/01/31 09:52:33.2	114.180	-0.500	-0.080	1.390
2020/01/31 09:52:33.3	114.150	-0.510	-0.140	1.380
2020/01/31 09:52:33.4	114.120	-0.500	-0.200	1.380
2020/01/31 09:52:33.5	114.090	-0.500	-0.250	1.380
2020/01/31 09:52:33.6	114.060	-0.490	-0.310	1.390
2020/01/31 09:52:33.7	114.040	-0.480	-0.370	1.390
2020/01/31 09:52:33.8	114.010	-0.470	-0.430	1.390
2020/01/31 09:52:33.9	113.980	-0.460	-0.480	1.390
2020/01/31 09:52:34.0	113.950	-0.440	-0.530	1.400
2020/01/31 09:52:34.1	113.920	-0.420	-0.580	1.400
2020/01/31 09:52:34.2	113.890	-0.400	-0.620	1.400
2020/01/31 09:52:34.3	113.860	-0.380	-0.670	1.400
2020/01/31 09:52:34.4	113.860	-0.360	-0.700	1.400
2020/01/31 09:52:34.5	113.830	-0.330	-0.730	1.390
2020/01/31 09:52:34.6	113.810	-0.310	-0.760	1.380
2020/01/31 09:52:34.7	113.790	-0.290	-0.780	1.370
2020/01/31 09:52:34.8	113.770	-0.260	-0.790	1.360
2020/01/31 09:52:34.9	113.750	-0.240	-0.800	1.340
2020/01/31 09:52:35.0	113.730	-0.210	-0.810	1.320
2020/01/31 09:52:35.1	113.720	-0.190	-0.810	1.290
2020/01/31 09:52:35.2	113.710	-0.170	-0.800	1.260
2020/01/31 09:52:35.3	113.700	-0.150	-0.790	1.220
2020/01/31 09:52:35.4	113.700	-0.130	-0.780	1.180
2020/01/31 09:52:35.5	113.700	-0.110	-0.760	1.140
2020/01/31 09:52:35.6	113.690	-0.090	-0.730	1.090
2020/01/31 09:52:35.7	113.690	-0.070	-0.700	1.040
2020/01/31 09:52:35.8	113.700	-0.060	-0.670	0.990
2020/01/31 09:52:35.9	113.700	-0.050	-0.640	0.930
2020/01/31 09:52:36.0	113.710	-0.040	-0.600	0.870
2020/01/31 09:52:36.1	113.710	-0.030	-0.560	0.810
2020/01/31 09:52:36.2	113.720	-0.020	-0.520	0.740
2020/01/31 09:52:36.3	113.730	-0.010	-0.480	0.680
2020/01/31 09:52:36.4	113.740	-0.010	-0.440	0.610
2020/01/31 09:52:36.5	113.750	-0.010	-0.400	0.540
2020/01/31 09:52:36.6	113.760	-0.000	-0.360	0.470
2020/01/31 09:52:36.7	113.770	-0.000	-0.320	0.400
2020/01/31 09:52:36.8	113.790	-0.000	-0.290	0.340
2020/01/31 09:52:36.9	113.800	-0.000	-0.250	0.270
2020/01/31 09:52:37.0	113.810	-0.000	-0.220	0.200
2020/01/31 09:52:37.1	113.830	-0.000	-0.200	0.130
2020/01/31 09:52:37.2	113.840	-0.000	-0.170	0.070
2020/01/31 09:52:37.3	113.860	-0.000	-0.150	0.000
2020/01/31 09:52:37.4	113.870	-0.000	-0.140	-0.060
2020/01/31 09:52:37.5	113.880	-0.000	-0.120	-0.120
2020/01/31 09:52:37.6	113.900	-0.000	-0.110	-0.180
2020/01/31 09:52:37.7	113.920	-0.000	-0.110	-0.240
2020/01/31 09:52:37.8	113.940	-0.000	-0.100	-0.300
2020/01/31 09:52:37.9	113.960	0.000	-0.100	-0.350
2020/01/31 09:52:38.0	113.980	0.000	-0.100	-0.400
2020/01/31 09:52:38.1	114.010	0.000	-0.110	-0.450
2020/01/31 09:52:38.2	114.030	0.010	-0.110	-0.500
2020/01/31 09:52:38.3	114.060	0.010	-0.120	-0.540
2020/01/31 09:52:38.4	114.080	0.010	-0.120	-0.580
2020/01/31 09:52:38.5	114.110	0.020	-0.130	-0.610
2020/01/31 09:52:38.6	114.140	0.020	-0.130	-0.640
2020/01/31 09:52:38.7	114.170	0.020	-0.140	-0.670
2020/01/31 09:52:38.8	114.200	0.030	-0.140	-0.690
2020/01/31 09:52:38.9	114.220	0.030	-0.140	-0.710
2020/01/31 09:52:39.0	114.250	0.030	-0.140	-0.730
2020/01/31 09:52:39.1	114.280	0.030	-0.140	-0.740
2020/01/31 09:52:39.2	114.300	0.030	-0.140	-0.740
2020/01/31 09:52:39.3	114.330	0.030	-0.130	-0.740
2020/01/31 09:52:39.4	114.350	0.030	-0.120	-0.740
2020/01/31 09:52:39.5	114.370	0.030	-0.100	-0.730
2020/01/31 09:52:39.6	114.380	0.030	-0.090	-0.720
2020/01/31 09:52:39.7	114.400	0.030	-0.070	-0.700
2020/01/31 09:52:39.8	114.410	0.030	-0.050	-0.680
2020/01/31 09:52:39.9	114.420	0.020	-0.030	-0.650
2020/01/31 09:52:40.0	114.430	0.020	0.000	-0.620
2020/01/31 09:52:40.1	114.430	0.010	0.030	-0.580
2020/01/31 09:52:40.2	114.430	0.010	0.060	-0.540
2020/01/31 09:52:40.3	114.430	0.000	0.090	-0.500
2020/01/31 09:52:40.4	114.430	-0.010	0.130	-0.450
2020/01/31 09:52:40.5	114.420	-0.010	0.160	-0.400
2020/01/31 09:52:40.6	114.400	-0.020	0.190	-0.340
2020/01/31 09:52:40.7	114.390	-0.030	0.230	-0.290
2020/01/31 09:52:40.8	114.370	-0.040	0.260	-0.220
2020/01/31 09:52:40.9	114.350	-0.040	0.290	-0.160
2020/01/31 09:52:41.0	114.330	-0.050	0.330	-0.090
2020/01/31 09:52:41.1	114.310	-0.060	0.360	-0.030
2020/01/31 09:52:41.2	114.290	-0.060	0.390	0.040
2020/01/31 09:52:41.3	114.260	-0.070	0.410	0.110
2020/01/31 09:52:41.4	114.230	-0.080	0.440	0.190
2020/01/31 09:52:41.5	114.200	-0.080	0.460	0.260
2020/01/31 09:52:41.6	114.170	-0.090	0.470	0.330
2020/01/31 09:52:41.7	114.150	-0.090	0.490	0.400
2020/01/31 09:52:41.8	114.120	-0.090	0.500	0.470
2020/01/31 09:52:41.9	114.100	-0.090	0.500	0.540
2020/01/31 09:52:42.0	114.080	-0.090	0.510	0.610
2020/01/31 09:52:42.1	114.050	-0.090	0.500	0.680
2020/01/31 09:52:42.2	114.030	-0.090	0.500	0.740
2020/01/31 09:52:42.3	114.010	-0.090	0.490	0.800
2020/01/31 09:52:42.4	114.010	-0.080	0.480	0.860
2020/01/31 09:52:42.5	113.990	-0.080	0.460	0.920
2020/01/31 09:52:42.6	113.970	-0.070	0.430	0.980
2020/01/31 09:52:42.7	113.960	-0.060	0.400	1.030
2020/01/31 09:52:42.8	113.950	-0.050	0.370	1.080
2020/01/31 09:52:42.9	113.940	-0.040	0.330	1.130
2020/01/31 09:52:43.0	113.930	-0.020	0.290	1.180
2020/01/31 09:52:43.1	113.920	-0.000	0.250	1.220
2020/01/31 09:52:43.2	113.910	0.010	0.200	1.270
2020/01/31 09:52:43.3	113.900	0.030	0.140	1.310
2020/01/31 09:52:43.4	113.910	0.050	0.090	1.350
2020/01/31 09:52:43.5	113.900	0.070	0.030	1.390
2020/01/31 09:52:43.6	113.900	0.100	-0.030	1.420
2020/01/31 09:52:43.7	113.890	0.120	-0.100	1.460
2020/01/31 09:52:43.8	113.880	0.150	-0.160	1.500
2020/01/31 09:52:43.9	113.880	0.170	-0.230	1.530
2020/01/31 09:52:44.0	113.870	0.200	-0.300	1.570
2020/01/31 09:52:44.1	113.860	0.230	-0.370	1.600
2020/01/31 09:52:44.2	113.850	0.250	-0.440	1.630
2020/01/31 09:52:44.3	113.840	0.280	-0.510	1.670
2020/01/31 09:52:44.4	113.840	0.310	-0.580	1.700
2020/01/31 09:52:44.5	113.840	0.330	-0.650	1.730
2020/01/31 09:52:44.6	113.830	0.360	-0.710	1.760
2020/01/31 09:52:44.7	113.820	0.380	-0.780	1.780
2020/01/31 09:52:44.8	113.810	0.410	-0.840	1.810
2020/01/31 09:52:44.9	113.800	0.430	-0.890	1.840
2020/01/31 09:52:45.0	113.800	0.450	-0.950	1.860
2020/01/31 09:52:45.1	113.790	0.460	-1.000	1.880
2020/01/31 09:52:45.2	113.780	0.480	-1.040	1.900
2020/01/31 09:52:45.3	113.780	0.490	-1.080	1.920
2020/01/31 09:52:45.4	113.770	0.500	-1.110	1.940
2020/01/31 09:52:45.5	113.770	0.510	-1.140	1.950
2020/01/31 09:52:45.6	113.770	0.510	-1.160	1.960
2020/01/31 09:52:45.7	113.770	0.510	-1.170	1.970
2020/01/31 09:52:45.8	113.780	0.510	-1.180	1.980
2020/01/31 09:52:45.9	113.780	0.510	-1.180	1.990
2020/01/31 09:52:46.0	113.790	0.500	-1.170	1.990
2020/01/31 09:52:46.1	113.800	0.490	-1.160	2.000
2020/01/31 09:52:46.2	113.810	0.470	-1.130	2.000
2020/01/31 09:52:46.3	113.820	0.450	-1.110	1.990
2020/01/31 09:52:46.4	113.810	0.430	-1.070	1.990
2020/01/31 09:52:46.5	113.830	0.410	-1.030	1.980
2020/01/31 09:52:46.6	113.850	0.380	-0.980	1.980
2020/01/31 09:52:46.7	113.860	0.350	-0.920	1.970
2020/01/31 09:52:46.8	113.880	0.320	-0.860	1.950
2020/01/31 09:52:46.9	113.900	0.290	-0.800	1.940
2020/01/31 09:52:47.0	113.920	0.250	-0.730	1.930
2020/01/31 09:52:47.1	113.940	0.220	-0.650	1.910
2020/01/31 09:52:47.2	113.960	0.180	-0.580	1.890
2020/01/31 09:52:47.3	113.970	0.140	-0.500	1.870
2020/01/31 09:52:47.4	113.990	0.100	-0.420	1.850
2020/01/31 09:52:47.5	114.000	0.050	-0.340	1.830
2020/01/31 09:52:47.6	114.020	0.010	-0.260	1.810
2020/01/31 09:52:47.7	114.030	-0.030	-0.180	1.790
2020/01/31 09:52:47.8	114.040	-0.070	-0.100	1.760
2020/01/31 09:52:47.9	114.050	-0.110	-0.020	1.740
2020/01/31 09:52:48.0	114.060	-0.150	0.050	1.720
2020/01/31 09:52:48.1	114.060	-0.190	0.130	1.690
2020/01/31 09:52:48.2	114.060	-0.230	0.190	1.670
2020/01/31 09:52:48.3	114.060	-0.260	0.260	1.650
2020/01/31 09:52:48.4	114.070	-0.300	0.310	1.620
2020/01/31 09:52:48.5	114.060	-0.330	0.370	1.600
2020/01/31 09:52:48.6	114.050	-0.360	0.410	1.580
2020/01/31 09:52:48.7	114.040	-0.380	0.450	1.560
2020/01/31 09:52:48.8	114.030	-0.410	0.490	1.540
2020/01/31 09:52:48.9	114.020	-0.430	0.520	1.520
2020/01/31 09:52:49.0	114.000	-0.440	0.540	1.500
2020/01/31 09:52:49.1	113.980	-0.460	0.560	1.480
2020/01/31 09:52:49.2	113.960	-0.470	0.570	1.460
2020/01/31 09:52:49.3	113.940	-0.480	0.580	1.440
2020/01/31 09:52:49.4	113.920	-0.480	0.580	1.420
2020/01/31 09:52:49.5	113.900	-0.490	0.570	1.400
2020/01/31 09:52:49.6	113.870	-0.490	0.560	1.370
2020/01/31 09:52:49.7	113.850	-0.480	0.550	1.350
2020/01/31 09:52:49.8	113.820	-0.480	0.530	1.330
2020/01/31 09:52:49.9	113.800	-0.470	0.500	1.310
2020/01/31 09:52:50.0	113.770	-0.460	0.480	1.280
2020/01/31 09:52:50.1	113.740	-0.440	0.440	1.250
2020/01/31 09:52:50.2	113.720	-0.430	0.410	1.220
2020/01/31 09:52:50.3	113.690	-0.410	0.370	1.190
2020/01/31 09:52:50.4	113.670	-0.390	0.330	1.160
2020/01/31 09:52:50.5	113.650	-0.370	0.290	1.130
2020/01/31 09:52:50.6	113.620	-0.350	0.250	1.090
2020/01/31 09:52:50.7	113.600	-0.320	0.210	1.050
2020/01/31 09:52:50.8	113.580	-0.300	0.160	1.010
2020/01/31 09:52:50.9	113.560	-0.280	0.120	0.960
2020/01/31 09:52:51.0	113.540	-0.250	0.070	0.910
2020/01/31 09:52:51.1	113.530	-0.230	0.030	0.860
2020/01/31 09:52:51.2	113.510	-0.210	-0.010	0.810
2020/01/31 09:52:51.3	113.500	-0.180	-0.050	0.760
2020/01/31 09:52:51.4	113.490	-0.160	-0.090	0.700
2020/01/31 09:52:51.5	113.480	-0.140	-0.130	0.640
2020/01/31 09:52:51.6	113.470	-0.120	-0.160	0.590
2020/01/31 09:52:51.7	113.460	-0.100	-0.190	0.530
2020/01/31 09:52:51.8	113.460	-0.080	-0.220	0.460
2020/01/31 09:52:51.9	113.450	-0.060	-0.250	0.400
2020/01/31 09:52:52.0	113.450	-0.050	-0.270	0.340
2020/01/31 09:52:52.1	113.450	-0.040	-0.290	0.270
2020/01/31 09:52:52.2	113.460	-0.030	-0.310	0.210
2020/01/31 09:52:52.3	113.460	-0.020	-0.330	0.140
2020/01/31 09:52:52.4	113.460	-0.010	-0.340	0.080
2020/01/31 09:52:52.5	113.470	-0.000	-0.350	0.010
2020/01/31 09:52:52.6	113.470	-0.000	-0.350	-0.050
2020/01/31 09:52:52.7	113.490	0.000	-0.360	-0.110
2020/01/31 09:52:52.8	113.500	0.000	-0.360	-0.180
2020/01/31 09:52:52.9	113.510	-0.000	-0.360	-0.240
2020/01/31 09:52:53.0	113.520	-0.000	-0.360	-0.300
2020/01/31 09:52:53.1	113.540	-0.010	-0.350	-0.370
2020/01/31 09:52:53.2	113.560	-0.010	-0.350	-0.430
2020/01/31 09:52:53.3	113.570	-0.020	-0.340	-0.490
2020/01/31 09:52:53.4	113.580	-0.030	-0.340	-0.550
2020/01/31 09:52:53.5	113.590	-0.030	-0.330	-0.600
2020/01/31 09:52:53.6	113.610	-0.040	-0.330	-0.660
2020/01/31 09:52:53.7	113.630	-0.050	-0.320	-0.710
2020/01/31 09:52:53.8	113.650	-0.060	-0.310	-0.760
2020/01/31 09:52:53.9	113.670	-0.060	-0.310	-0.810
2020/01/31 09:52:54.0	113.690	-0.070	-0.310	-0.860
2020/01/31 09:52:54.1	113.710	-0.070	-0.300	-0.900
2020/01/31 09:52:54.2	113.730	-0.080	-0.300	-0.940
2020/01/31 09:52:54.3	113.750	-0.080	-0.300	-0.980
2020/01/31 09:52:54.4	113.750	-0.080	-0.310	-1.010
2020/01/31 09:52:54.5	113.770	-0.080	-0.310	-1.040
2020/01/31 09:52:54.6	113.780	-0.080	-0.320	-1.070
2020/01/31 09:52:54.7	113.800	-0.080	-0.320	-1.080
2020/01/31 09:52:54.8	113.810	-0.080	-0.340	-1.100
2020/01/31 09:52:54.9	113.820	-0.070	-0.350	-1.110
2020/01/31 09:52:55.0	113.830	-0.060	-0.360	-1.110
2020/01/31 09:52:55.1	113.840	-0.050	-0.370	-1.110
2020/01/31 09:52:55.2	113.850	-0.050	-0.390	-1.100
2020/01/31 09:52:55.3	113.860	-0.030	-0.400	-1.090
2020/01/31 09:52:55.4	113.860	-0.020	-0.420	-1.070
2020/01/31 09:52:55.5	113.860	-0.010	-0.430	-1.040
2020/01/31 09:52:55.6	113.860	0.010	-0.450	-1.020
2020/01/31 09:52:55.7	113.860	0.020	-0.460	-0.980
2020/01/31 09:52:55.8	113.860	0.040	-0.470	-0.940
2020/01/31 09:52:55.9	113.860	0.060	-0.480	-0.900
2020/01/31 09:52:56.0	113.860	0.070	-0.490	-0.850
2020/01/31 09:52:56.1	113.850	0.090	-0.500	-0.800
2020/01/31 09:52:56.2	113.850	0.110	-0.500	-0.740
2020/01/31 09:52:56.3	113.850	0.130	-0.510	-0.680
2020/01/31 09:52:56.4	113.850	0.150	-0.500	-0.620
2020/01/31 09:52:56.5	113.840	0.170	-0.490	-0.550
2020/01/31 09:52:56.6	113.840	0.190	-0.490	-0.480
2020/01/31 09:52:56.7	113.840	0.210	-0.480	-0.410
2020/01/31 09:52:56.8	113.840	0.220	-0.460	-0.340
2020/01/31 09:52:56.9	113.840	0.240	-0.440	-0.270
2020/01/31 09:52:57.0	113.840	0.260	-0.420	-0.190
2020/01/31 09:52:57.1	113.840	0.270	-0.400	-0.120
2020/01/31 09:52:57.2	113.840	0.290	-0.370	-0.040
2020/01/31 09:52:57.3	113.840	0.300	-0.340	0.030
2020/01/31 09:52:57.4	113.850	0.320	-0.310	0.110
2020/01/31 09:52:57.5	113.850	0.330	-0.270	0.190
2020/01/31 09:52:57.6	113.860	0.340	-0.240	0.260
2020/01/31 09:52:57.7	113.870	0.350	-0.200	0.340
2020/01/31 09:52:57.8	113.870	0.360	-0.160	0.410
2020/01/31 09:52:57.9	113.880	0.370	-0.120	0.490
2020/01/31 09:52:58.0	113.890	0.370	-0.070	0.560
2020/01/31 09:52:58.1	113.900	0.380	-0.030	0.640
2020/01/31 09:52:58.2	113.910	0.380	0.010	0.710
2020/01/31 09:52:58.3	113.920	0.380	0.060	0.780
2020/01/31 09:52:58.4	113.930	0.380	0.100	0.860
2020/01/31 09:52:58.5	113.930	0.380	0.140	0.930
2020/01/31 09:52:58.6	113.940	0.370	0.180	0.990
2020/01/31 09:52:58.7	113.950	0.370	0.210	1.060
2020/01/31 09:52:58.8	113.960	0.360	0.250	1.130
2020/01/31 09:52:58.9	113.960	0.360	0.280	1.190
2020/01/31 09:52:59.0	113.970	0.350	0.300	1.250
2020/01/31 09:52:59.1	113.980	0.340	0.330	1.310
2020/01/31 09:52:59.2	113.980	0.330	0.350	1.370
2020/01/31 09:52:59.3	113.980	0.320	0.360	1.430
2020/01/31 09:52:59.4	113.990	0.310	0.370	1.480
2020/01/31 09:52:59.5	114.000	0.290	0.380	1.540
2020/01/31 09:52:59.6	114.000	0.280	0.380	1.590
2020/01/31 09:52:59.7	114.000	0.270	0.380	1.640
2020/01/31 09:52:59.8	114.000	0.250	0.370	1.690
2020/01/31 09:52:59.9	114.000	0.230	0.350	1.730
2020/01/31 09:53:00.0	113.990	0.220	0.340	1.780
2020/01/31 09:53:00.1	113.990	0.200	0.320	1.820
2020/01/31 09:53:00.2	113.990	0.180	0.290	1.860
2020/01/31 09:53:00.3	113.990	0.160	0.260	1.900
2020/01/31 09:53:00.4	113.990	0.150	0.230	1.930
2020/01/31 09:53:00.5	113.990	0.130	0.200	1.970
2020/01/31 09:53:00.6	113.980	0.110	0.170	2.000
2020/01/31 09:53:00.7	113.980	0.080	0.130	2.030
2020/01/31 09:53:00.8	113.980	0.060	0.090	2.060
2020/01/31 09:53:00.9	113.970	0.040	0.060	2.090
2020/01/31 09:53:01.0	113.970	0.020	0.020	2.110
2020/01/31 09:53:01.1	113.960	-0.010	-0.020	2.140
2020/01/31 09:53:01.2	113.960	-0.030	-0.050	2.160
2020/01/31 09:53:01.3	113.960	-0.060	-0.080	2.180
2020/01/31 09:53:01.4	113.960	-0.080	-0.110	2.200
2020/01/31 09:53:01.5	113.960	-0.110	-0.140	2.220
2020/01/31 09:53:01.6	113.960	-0.130	-0.170	2.230
2020/01/31 09:53:01.7	113.960	-0.160	-0.190	2.240
2020/01/31 09:53:01.8	113.960	-0.180	-0.210	2.250
2020/01/31 09:53:01.9	113.960	-0.210	-0.230	2.260
2020/01/31 09:53:02.0	113.960	-0.230	-0.240	2.260
2020/01/31 09:53:02.1	113.960	-0.260	-0.250	2.270
2020/01/31 09:53:02.2	113.960	-0.280	-0.260	2.270
2020/01/31 09:53:02.3	113.970	-0.310	-0.270	2.260
2020/01/31 09:53:02.4	113.980	-0.330	-0.270	2.260
2020/01/31 09:53:02.5	113.980	-0.350	-0.270	2.250
2020/01/31 09:53:02.6	113.990	-0.370	-0.280	2.240
2020/01/31 09:53:02.7	113.990	-0.390	-0.270	2.230
2020/01/31 09:53:02.8	113.990	-0.410	-0.270	2.210
2020/01/31 09:53:02.9	113.990	-0.430	-0.270	2.190
2020/01/31 09:53:03.0	113.990	-0.440	-0.270	2.170
2020/01/31 09:53:03.1	113.990	-0.460	-0.270	2.150
2020/01/31 09:53:03.2	114.000	-0.470	-0.270	2.120
2020/01/31 09:53:03.3	114.000	-0.480	-0.270	2.090
2020/01/31 09:53:03.4	114.010	-0.480	-0.270	2.050
2020/01/31 09:53:03.5	114.010	-0.490	-0.270	2.020
2020/01/31 09:53:03.6	114.020	-0.490	-0.280	1.980
2020/01/31 09:53:03.7	114.020	-0.490	-0.280	1.930
2020/01/31 09:53:03.8	114.030	-0.490	-0.290	1.880
2020/01/31 09:53:03.9	114.040	-0.480	-0.300	1.830
2020/01/31 09:53:04.0	114.050	-0.470	-0.320	1.780
2020/01/31 09:53:04.1	114.070	-0.460	-0.330	1.720
2020/01/31 09:53:04.2	114.080	-0.450	-0.350	1.660
2020/01/31 09:53:04.3	114.090	-0.430	-0.370	1.590
2020/01/31 09:53:04.4	114.120	-0.410	-0.400	1.520
2020/01/31 09:53:04.5	114.140	-0.390	-0.430	1.450
2020/01/31 09:53:04.6	114.160	-0.370	-0.450	1.380
2020/01/31 09:53:04.7	114.180	-0.340	-0.480	1.310
2020/01/31 09:53:04.8	114.200	-0.320	-0.510	1.230
2020/01/31 09:53:04.9	114.230	-0.290	-0.550	1.160
2020/01/31 09:53:05.0	114.250	-0.260	-0.580	1.080
2020/01/31 09:53:05.1	114.270	-0.230	-0.610	1.010
2020/01/31 09:53:05.2	114.300	-0.190	-0.650	0.930
2020/01/31 09:53:05.3	114.320	-0.160	-0.680	0.860
2020/01/31 09:53:05.4	114.340	-0.120	-0.710	0.790
2020/01/31 09:53:05.5	114.360	-0.090	-0.740	0.710
2020/01/31 09:53:05.6	114.390	-0.050	-0.760	0.640
2020/01/31 09:53:05.7	114.410	-0.020	-0.780	0.570
2020/01/31 09:53:05.8	114.430	0.020	-0.800	0.500
2020/01/31 09:53:05.9	114.460	0.050	-0.820	0.440
2020/01/31 09:53:06.0	114.480	0.090	-0.830	0.370
2020/01/31 09:53:06.1	114.500	0.120	-0.830	0.310
2020/01/31 09:53:06.2	114.510	0.150	-0.830	0.250
2020/01/31 09:53:06.3	114.530	0.180	-0.830	0.190
2020/01/31 09:53:06.4	114.540	0.210	-0.820	0.130
2020/01/31 09:53:06.5	114.550	0.240	-0.800	0.080
2020/01/31 09:53:06.6	114.560	0.260	-0.780	0.030
2020/01/31 09:53:06.7	114.580	0.280	-0.750	-0.020
2020/01/31 09:53:06.8	114.580	0.300	-0.720	-0.070
2020/01/31 09:53:06.9	114.590	0.320	-0.680	-0.110
2020/01/31 09:53:07.0	114.600	0.340	-0.630	-0.150
2020/01/31 09:53:07.1	114.600	0.350	-0.580	-0.180
2020/01/31 09:53:07.2	114.600	0.360	-0.530	-0.210
2020/01/31 09:53:07.3	114.600	0.370	-0.470	-0.240
2020/01/31 09:53:07.4	114.590	0.370	-0.410	-0.260
2020/01/31 09:53:07.5	114.580	0.380	-0.350	-0.280
2020/01/31 09:53:07.6	114.570	0.380	-0.280	-0.290
2020/01/31 09:53:07.7	114.560	0.370	-0.220	-0.300
2020/01/31 09:53:07.8	114.550	0.370	-0.150	-0.310
2020/01/31 09:53:07.9	114.530	0.360	-0.080	-0.310
2020/01/31 09:53:08.0	114.510	0.360	-0.010	-0.310
2020/01/31 09:53:08.1	114.490	0.350	0.060	-0.310
2020/01/31 09:53:08.2	114.460	0.330	0.130	-0.300
2020/01/31 09:53:08.3	114.440	0.320	0.190	-0.290
2020/01/31 09:53:08.4	114.410	0.310	0.260	-0.280
2020/01/31 09:53:08.5	114.380	0.290	0.320	-0.270
2020/01/31 09:53:08.6	114.350	0.280	0.380	-0.250
2020/01/31 09:53:08.7	114.320	0.260	0.430	-0.230
2020/01/31 09:53:08.8	114.280	0.240	0.480	-0.210
2020/01/31 09:53:08.9	114.250	0.220	0.530	-0.190
2020/01/31 09:53:09.0	114.220	0.210	0.570	-0.170
2020/01/31 09:53:09.1	114.180	0.190	0.610	-0.150
2020/01/31 09:53:09.2	114.150	0.170	0.640	-0.130
2020/01/31 09:53:09.3	114.110	0.150	0.670	-0.100
2020/01/31 09:53:09.4	114.070	0.140	0.690	-0.080
2020/01/31 09:53:09.5	114.030	0.120	0.710	-0.050
2020/01/31 09:53:09.6	114.000	0.100	0.720	-0.020
2020/01/31 09:53:09.7	113.970	0.090	0.720	0.000
2020/01/31 09:53:09.8	113.950	0.070	0.720	0.030
2020/01/31 09:53:09.9	113.920	0.060	0.710	0.050
2020/01/31 09:53:10.0	113.900	0.050	0.700	0.080
2020/01/31 09:53:10.1	113.880	0.030	0.680	0.100
2020/01/31 09:53:10.2	113.860	0.020	0.660	0.120
2020/01/31 09:53:10.3	113.850	0.010	0.630	0.150
2020/01/31 09:53:10.4	113.830	-0.000	0.600	0.160
2020/01/31 09:53:10.5	113.820	-0.010	0.560	0.180
2020/01/31 09:53:10.6	113.820	-0.020	0.520	0.200
2020/01/31 09:53:10.7	113.820	-0.030	0.480	0.210
2020/01/31 09:53:10.8	113.820	-0.040	0.430	0.230
2020/01/31 09:53:10.9	113.830	-0.050	0.380	0.240
2020/01/31 09:53:11.0	113.830	-0.060	0.330	0.250
2020/01/31 09:53:11.1	113.840	-0.070	0.280	0.260
2020/01/31 09:53:11.2	113.860	-0.070	0.220	0.270
2020/01/31 09:53:11.3	113.870	-0.080	0.160	0.280
2020/01/31 09:53:11.4	113.890	-0.090	0.110	0.290
2020/01/31 09:53:11.5	113.910	-0.090	0.050	0.300
2020/01/31 09:53:11.6	113.920	-0.100	-0.010	0.310
2020/01/31 09:53:11.7	113.940	-0.110	-0.070	0.320
2020/01/31 09:53:11.8	113.960	-0.110	-0.120	0.330
2020/01/31 09:53:11.9	113.980	-0.120	-0.180	0.340
2020/01/31 09:53:12.0	114.000	-0.130	-0.240	0.360
2020/01/31 09:53:12.1	114.020	-0.130	-0.290	0.370
2020/01/31 09:53:12.2	114.040	-0.140	-0.350	0.390
2020/01/31 09:53:12.3	114.060	-0.150	-0.400	0.410
2020/01/31 09:53:12.4	114.080	-0.150	-0.450	0.440
2020/01/31 09:53:12.5	114.100	-0.160	-0.490	0.470
2020/01/31 09:53:12.6	114.110	-0.160	-0.530	0.500
2020/01/31 09:53:12.7	114.130	-0.170	-0.570	0.530
2020/01/31 09:53:12.8	114.140	-0.170	-0.610	0.570
2020/01/31 09:53:12.9	114.150	-0.180	-0.640	0.610
2020/01/31 09:53:13.0	114.160	-0.180	-0.670	0.660
2020/01/31 09:53:13.1	114.160	-0.180	-0.700	0.710
2020/01/31 09:53:13.2	114.170	-0.180	-0.720	0.770
2020/01/31 09:53:13.3	114.170	-0.180	-0.740	0.820
2020/01/31 09:53:13.4	114.180	-0.180	-0.760	0.890
2020/01/31 09:53:13.5	114.180	-0.180	-0.770	0.960
2020/01/31 09:53:13.6	114.180	-0.180	-0.780	1.020
2020/01/31 09:53:13.7	114.170	-0.180	-0.790	1.100
2020/01/31 09:53:13.8	114.160	-0.170	-0.800	1.170
2020/01/31 09:53:13.9	114.150	-0.160	-0.800	1.250
2020/01/31 09:53:14.0	114.140	-0.160	-0.800	1.330
2020/01/31 09:53:14.1	114.130	-0.150	-0.800	1.410
2020/01/31 09:53:14.2	114.110	-0.140	-0.800	1.490
2020/01/31 09:53:14.3	114.100	-0.120	-0.800	1.580
2020/01/31 09:53:14.4	114.060	-0.110	-0.790	1.660
2020/01/31 09:53:14.5	114.040	-0.090	-0.790	1.750
2020/01/31 09:53:14.6	114.020	-0.080	-0.780	1.830
2020/01/31 09:53:14.7	114.000	-0.060	-0.770	1.910
2020/01/31 09:53:14.8	113.970	-0.040	-0.760	1.990
2020/01/31 09:53:14.9	113.950	-0.020	-0.750	2.060
2020/01/31 09:53:15.0	113.930	-0.000	-0.740	2.130
2020/01/31 09:53:15.1	113.900	0.020	-0.730	2.200
2020/01/31 09:53:15.2	113.880	0.040	-0.720	2.270
2020/01/31 09:53:15.3	113.860	0.060	-0.700	2.330
2020/01/31 09:53:15.4	113.840	0.080	-0.680	2.380
2020/01/31 09:53:15.5	113.820	0.100	-0.660	2.430
2020/01/31 09:53:15.6	113.800	0.120	-0.640	2.470
2020/01/31 09:53:15.7	113.790	0.140	-0.620	2.510
2020/01/31 09:53:15.8	113.770	0.160	-0.600	2.540
2020/01/31 09:53:15.9	113.750	0.180	-0.570	2.570
2020/01/31 09:53:16.0	113.740	0.190	-0.540	2.590
2020/01/31 09:53:16.1	113.730	0.210	-0.500	2.610
2020/01/31 09:53:16.2	113.720	0.220	-0.470	2.620
2020/01/31 09:53:16.3	113.710	0.230	-0.430	2.630
2020/01/31 09:53:16.4	113.720	0.240	-0.380	2.630
2020/01/31 09:53:16.5	113.710	0.240	-0.340	2.630
2020/01/31 09:53:16.6	113.700	0.240	-0.290	2.620
2020/01/31 09:53:16.7	113.690	0.240	-0.230	2.610
2020/01/31 09:53:16.8	113.690	0.240	-0.180	2.590
2020/01/31 09:53:16.9	113.680	0.240	-0.120	2.570
2020/01/31 09:53:17.0	113.680	0.230	-0.060	2.550
2020/01/31 09:53:17.1	113.670	0.220	0.010	2.520
2020/01/31 09:53:17.2	113.670	0.210	0.070	2.490
2020/01/31 09:53:17.3	113.660	0.190	0.140	2.450
2020/01/31 09:53:17.4	113.670	0.170	0.200	2.410
2020/01/31 09:53:17.5	113.670	0.160	0.270	2.370
2020/01/31 09:53:17.6	113.670	0.140	0.340	2.330
2020/01/31 09:53:17.7	113.660	0.110	0.400	2.280
2020/01/31 09:53:17.8	113.660	0.090	0.470	2.230
2020/01/31 09:53:17.9	113.660	0.070	0.530	2.180
2020/01/31 09:53:18.0	113.650	0.040	0.590	2.120
2020/01/31 09:53:18.1	113.650	0.020	0.650	2.060
2020/01/31 09:53:18.2	113.650	-0.010	0.700	2.000
2020/01/31 09:53:18.3	113.650	-0.030	0.750	1.940
2020/01/31 09:53:18.4	113.660	-0.060	0.800	1.870
2020/01/31 09:53:18.5	113.660	-0.080	0.830	1.800
2020/01/31 09:53:18.6	113.650	-0.100	0.860	1.720
2020/01/31 09:53:18.7	113.650	-0.120	0.880	1.650
2020/01/31 09:53:18.8	113.650	-0.140	0.890	1.570
2020/01/31 09:53:18.9	113.650	-0.150	0.890	1.490
2020/01/31 09:53:19.0	113.640	-0.170	0.880	1.410
2020/01/31 09:53:19.1	113.640	-0.180	0.870	1.320
2020/01/31 09:53:19.2	113.640	-0.180	0.840	1.230
2020/01/31 09:53:19.3	113.630	-0.190	0.800	1.140
2020/01/31 09:53:19.4	113.630	-0.190	0.750	1.040
2020/01/31 09:53:19.5	113.630	-0.190	0.700	0.950
2020/01/31 09:53:19.6	113.620	-0.180	0.630	0.850
2020/01/31 09:53:19.7	113.620	-0.170	0.560	0.750
2020/01/31 09:53:19.8	113.610	-0.160	0.480	0.650
2020/01/31 09:53:19.9	113.610	-0.140	0.390	0.550
2020/01/31 09:53:20.0	113.600	-0.130	0.290	0.450
2020/01/31 09:53:20.1	113.590	-0.100	0.190	0.350
2020/01/31 09:53:20.2	113.590	-0.080	0.090	0.250
2020/01/31 09:53:20.3	113.580	-0.060	-0.020	0.140
2020/01/31 09:53:20.4	113.560	-0.030	-0.130	0.040
2020/01/31 09:53:20.5	113.550	0.000	-0.250	-0.060
2020/01/31 09:53:20.6	113.550	0.030	-0.360	-0.160
2020/01/31 09:53:20.7	113.550	0.060	-0.470	-0.260
2020/01/31 09:53:20.8	113.550	0.090	-0.580	-0.350
2020/01/31 09:53:20.9	113.540	0.120	-0.680	-0.450
2020/01/31 09:53:21.0	113.540	0.150	-0.780	-0.530
2020/01/31 09:53:21.1	113.550	0.180	-0.870	-0.620
2020/01/31 09:53:21.2	113.550	0.200	-0.960	-0.700
2020/01/31 09:53:21.3	113.550	0.230	-1.040	-0.770
2020/01/31 09:53:21.4	113.540	0.250	-1.100	-0.840
2020/01/31 09:53:21.5	113.540	0.270	-1.170	-0.900
2020/01/31 09:53:21.6	113.540	0.290	-1.220	-0.960
2020/01/31 09:53:21.7	113.550	0.300	-1.260	-1.010
2020/01/31 09:53:21.8	113.550	0.310	-1.290	-1.050
2020/01/31 09:53:21.9	113.550	0.320	-1.310	-1.090
2020/01/31 09:53:22.0	113.550	0.320	-1.310	-1.120
2020/01/31 09:53:22.1	113.550	0.320	-1.310	-1.140
2020/01/31 09:53:22.2	113.550	0.320	-1.290	-1.160
2020/01/31 09:53:22.3	113.560	0.310	-1.270	-1.170
2020/01/31 09:53:22.4	113.540	0.300	-1.230	-1.170
2020/01/31 09:53:22.5	113.540	0.290	-1.190	-1.170
2020/01/31 09:53:22.6	113.540	0.270	-1.130	-1.160
2020/01/31 09:53:22.7	113.540	0.250	-1.070	-1.140
2020/01/31 09:53:22.8	113.540	0.230	-1.000	-1.120
2020/01/31 09:53:22.9	113.530	0.210	-0.920	-1.100
2020/01/31 09:53:23.0	113.530	0.180	-0.830	-1.070
2020/01/31 09:53:23.1	113.530	0.150	-0.750	-1.030
2020/01/31 09:53:23.2	113.520	0.110	-0.650	-0.990
2020/01/31 09:53:23.3	113.520	0.080	-0.550	-0.950
2020/01/31 09:53:23.4	113.500	0.040	-0.450	-0.900
2020/01/31 09:53:23.5	113.500	0.010	-0.350	-0.850
2020/01/31 09:53:23.6	113.490	-0.030	-0.250	-0.800
2020/01/31 09:53:23.7	113.490	-0.070	-0.150	-0.750
2020/01/31 09:53:23.8	113.480	-0.110	-0.050	-0.700
2020/01/31 09:53:23.9	113.480	-0.150	0.040	-0.640
2020/01/31 09:53:24.0	113.470	-0.190	0.140	-0.580
2020/01/31 09:53:24.1	113.470	-0.230	0.220	-0.530
2020/01/31 09:53:24.2	113.460	-0.260	0.310	-0.470
2020/01/31 09:53:24.3	113.460	-0.300	0.380	-0.410
2020/01/31 09:53:24.4	113.450	-0.330	0.450	-0.350
2020/01/31 09:53:24.5	113.450	-0.360	0.510	-0.290
2020/01/31 09:53:24.6	113.450	-0.390	0.560	-0.230
2020/01/31 09:53:24.7	113.450	-0.420	0.610	-0.180
2020/01/31 09:53:24.8	113.450	-0.440	0.640	-0.120
2020/01/31 09:53:24.9	113.440	-0.460	0.670	-0.060
2020/01/31 09:53:25.0	113.440	-0.480	0.690	-0.000
2020/01/31 09:53:25.1	113.440	-0.490	0.700	0.060
2020/01/31 09:53:25.2	113.440	-0.500	0.690	0.110
2020/01/31 09:53:25.3	113.440	-0.510	0.680	0.170
2020/01/31 09:53:25.4	113.440	-0.510	0.660	0.220
2020/01/31 09:53:25.5	113.440	-0.510	0.630	0.280
2020/01/31 09:53:25.6	113.430	-0.500	0.600	0.340
2020/01/31 09:53:25.7	113.430	-0.490	0.550	0.400
2020/01/31 09:53:25.8	113.430	-0.480	0.500	0.460
2020/01/31 09:53:25.9	113.420	-0.460	0.440	0.520
2020/01/31 09:53:26.0	113.420	-0.440	0.370	0.580
2020/01/31 09:53:26.1	113.410	-0.420	0.300	0.650
2020/01/31 09:53:26.2	113.400	-0.400	0.220	0.710
2020/01/31 09:53:26.3	113.390	-0.370	0.140	0.770
2020/01/31 09:53:26.4	113.390	-0.340	0.060	0.840
2020/01/31 09:53:26.5	113.380	-0.300	-0.020	0.910
2020/01/31 09:53:26.6	113.360	-0.270	-0.110	0.980
2020/01/31 09:53:26.7	113.350	-0.230	-0.190	1.040
2020/01/31 09:53:26.8	113.340	-0.190	-0.270	1.110
2020/01/31 09:53:26.9	113.320	-0.150	-0.350	1.180
2020/01/31 09:53:27.0	113.310	-0.120	-0.430	1.240
2020/01/31 09:53:27.1	113.300	-0.080	-0.500	1.310
2020/01/31 09:53:27.2	113.290	-0.040	-0.570	1.370
2020/01/31 09:53:27.3	113.280	-0.000	-0.630	1.430
2020/01/31 09:53:27.4	113.270	0.040	-0.680	1.490
2020/01/31 09:53:27.5	113.270	0.070	-0.730	1.540
2020/01/31 09:53:27.6	113.260	0.100	-0.760	1.600
2020/01/31 09:53:27.7	113.260	0.130	-0.790	1.650
2020/01/31 09:53:27.8	113.270	0.160	-0.810	1.690
2020/01/31 09:53:27.9	113.270	0.190	-0.820	1.730
2020/01/31 09:53:28.0	113.280	0.210	-0.820	1.770
2020/01/31 09:53:28.1	113.290	0.230	-0.810	1.810
2020/01/31 09:53:28.2	113.300	0.250	-0.790	1.840
2020/01/31 09:53:28.3	113.320	0.270	-0.760	1.870
2020/01/31 09:53:28.4	113.330	0.280	-0.720	1.890
2020/01/31 09:53:28.5	113.350	0.290	-0.680	1.910
2020/01/31 09:53:28.6	113.380	0.290	-0.630	1.920
2020/01/31 09:53:28.7	113.400	0.300	-0.570	1.930
2020/01/31 09:53:28.8	113.420	0.300	-0.510	1.940
2020/01/31 09:53:28.9	113.450	0.290	-0.440	1.940
2020/01/31 09:53:29.0	113.470	0.290	-0.370	1.940
2020/01/31 09:53:29.1	113.490	0.280	-0.290	1.930
2020/01/31 09:53:29.2	113.520	0.270	-0.220	1.920
2020/01/31 09:53:29.3	113.540	0.260	-0.150	1.910
2020/01/31 09:53:29.4	113.580	0.250	-0.070	1.900
2020/01/31 09:53:29.5	113.600	0.240	-0.000	1.880
2020/01/31 09:53:29.6	113.620	0.230	0.070	1.860
2020/01/31 09:53:29.7	113.640	0.210	0.130	1.830
2020/01/31 09:53:29.8	113.650	0.200	0.190	1.810
2020/01/31 09:53:29.9	113.670	0.190	0.250	1.780
2020/01/31 09:53:30.0	113.680	0.170	0.290	1.750
2020/01/31 09:53:30.1	113.690	0.160	0.340	1.720
2020/01/31 09:53:30.2	113.700	0.150	0.370	1.680
2020/01/31 09:53:30.3	113.710	0.140	0.400	1.640
2020/01/31 09:53:30.4	113.720	0.130	0.420	1.600
2020/01/31 09:53:30.5	113.730	0.120	0.430	1.560
2020/01/31 09:53:30.6	113.730	0.110	0.440	1.510
2020/01/31 09:53:30.7	113.730	0.110	0.430	1.470
2020/01/31 09:53:30.8	113.740	0.100	0.420	1.430
2020/01/31 09:53:30.9	113.740	0.100	0.410	1.380
2020/01/31 09:53:31.0	113.740	0.100	0.380	1.330
2020/01/31 09:53:31.1	113.750	0.100	0.350	1.290
2020/01/31 09:53:31.2	113.750	0.100	0.320	1.240
2020/01/31 09:53:31.3	113.750	0.100	0.280	1.200
2020/01/31 09:53:31.4	113.740	0.100	0.230	1.150
2020/01/31 09:53:31.5	113.740	0.100	0.180	1.100
2020/01/31 09:53:31.6	113.740	0.110	0.120	1.060
2020/01/31 09:53:31.7	113.740	0.110	0.070	1.020
2020/01/31 09:53:31.8	113.750	0.120	0.010	0.980
2020/01/31 09:53:31.9	113.750	0.130	-0.060	0.940
2020/01/31 09:53:32.0	113.750	0.130	-0.120	0.910
2020/01/31 09:53:32.1	113.750	0.140	-0.180	0.870
2020/01/31 09:53:32.2	113.750	0.150	-0.250	0.840
2020/01/31 09:53:32.3	113.750	0.150	-0.310	0.810
2020/01/31 09:53:32.4	113.750	0.160	-0.370	0.780
2020/01/31 09:53:32.5	113.740	0.170	-0.430	0.760
2020/01/31 09:53:32.6	113.740	0.170	-0.490	0.740
2020/01/31 09:53:32.7	113.740	0.180	-0.540	0.720
2020/01/31 09:53:32.8	113.740	0.180	-0.590	0.700
2020/01/31 09:53:32.9	113.730	0.180	-0.640	0.680
2020/01/31 09:53:33.0	113.730	0.180	-0.680	0.670
2020/01/31 09:53:33.1	113.720	0.180	-0.720	0.650
2020/01/31 09:53:33.2	113.710	0.180	-0.750	0.640
2020/01/31 09:53:33.3	113.710	0.180	-0.780	0.630
2020/01/31 09:53:33.4	113.700	0.180	-0.800	0.620
2020/01/31 09:53:33.5	113.690	0.170	-0.820	0.610
2020/01/31 09:53:33.6	113.680	0.170	-0.830	0.600
2020/01/31 09:53:33.7	113.680	0.160	-0.830	0.590
2020/01/31 09:53:33.8	113.670	0.150	-0.830	0.580
2020/01/31 09:53:33.9	113.670	0.130	-0.820	0.570
2020/01/31 09:53:34.0	113.670	0.120	-0.800	0.560
2020/01/31 09:53:34.1	113.670	0.100	-0.780	0.550
2020/01/31 09:53:34.2	113.670	0.090	-0.760	0.540
2020/01/31 09:53:34.3	113.670	0.070	-0.720	0.520
2020/01/31 09:53:34.4	113.660	0.050	-0.690	0.500
2020/01/31 09:53:34.5	113.660	0.030	-0.640	0.490
2020/01/31 09:53:34.6	113.670	0.000	-0.600	0.470
2020/01/31 09:53:34.7	113.680	-0.020	-0.540	0.450
2020/01/31 09:53:34.8	113.690	-0.050	-0.490	0.440
2020/01/31 09:53:34.9	113.700	-0.070	-0.430	0.420
2020/01/31 09:53:35.0	113.720	-0.100	-0.370	0.400
2020/01/31 09:53:35.1	113.730	-0.120	-0.310	0.380
2020/01/31 09:53:35.2	113.750	-0.150	-0.250	0.360
2020/01/31 09:53:35.3	113.760	-0.170	-0.180	0.340
2020/01/31 09:53:35.4	113.770	-0.200	-0.120	0.320
2020/01/31 09:53:35.5	113.790	-0.220	-0.050	0.310
2020/01/31 09:53:35.6	113.800	-0.250	0.010	0.290
2020/01/31 09:53:35.7	113.810	-0.270	0.070	0.280
2020/01/31 09:53:35.8	113.820	-0.290	0.120	0.270
2020/01/31 09:53:35.9	113.830	-0.310	0.170	0.250
2020/01/31 09:53:36.0	113.840	-0.320	0.220	0.250
2020/01/31 09:53:36.1	113.850	-0.340	0.270	0.240
2020/01/31 09:53:36.2	113.850	-0.350	0.310	0.230
2020/01/31 09:53:36.3	113.850	-0.360	0.340	0.230
2020/01/31 09:53:36.4	113.860	-0.370	0.370	0.230
2020/01/31 09:53:36.5	113.850	-0.380	0.400	0.230
2020/01/31 09:53:36.6	113.850	-0.380	0.420	0.230
2020/01/31 09:53:36.7	113.850	-0.380	0.430	0.240
2020/01/31 09:53:36.8	113.840	-0.380	0.440	0.240
2020/01/31 09:53:36.9	113.840	-0.380	0.450	0.250
2020/01/31 09:53:37.0	113.830	-0.380	0.450	0.250
2020/01/31 09:53:37.1	113.820	-0.370	0.450	0.260
2020/01/31 09:53:37.2	113.810	-0.360	0.440	0.270
2020/01/31 09:53:37.3	113.810	-0.350	0.430	0.270
2020/01/31 09:53:37.4	113.800	-0.340	0.420	0.280
2020/01/31 09:53:37.5	113.800	-0.320	0.400	0.280
2020/01/31 09:53:37.6	113.790	-0.310	0.380	0.280
2020/01/31 09:53:37.7	113.790	-0.290	0.360	0.280
2020/01/31 09:53:37.8	113.790	-0.270	0.340	0.280
2020/01/31 09:53:37.9	113.790	-0.250	0.310	0.280
2020/01/31 09:53:38.0	113.790	-0.230	0.280	0.280
2020/01/31 09:53:38.1	113.800	-0.210	0.260	0.270
2020/01/31 09:53:38.2	113.800	-0.190	0.220	0.270
2020/01/31 09:53:38.3	113.810	-0.170	0.190	0.260
2020/01/31 09:53:38.4	113.820	-0.150	0.170	0.250
2020/01/31 09:53:38.5	113.830	-0.120	0.130	0.240
2020/01/31 09:53:38.6	113.850	-0.100	0.100	0.220
2020/01/31 09:53:38.7	113.860	-0.080	0.060	0.210
2020/01/31 09:53:38.8	113.880	-0.060	0.030	0.200
2020/01/31 09:53:38.9	113.900	-0.030	-0.010	0.180
2020/01/31 09:53:39.0	113.920	-0.010	-0.040	0.170
2020/01/31 09:53:39.1	113.940	0.010	-0.080	0.160
2020/01/31 09:53:39.2	113.960	0.030	-0.120	0.150
2020/01/31 09:53:39.3	113.990	0.060	-0.150	0.150
2020/01/31 09:53:39.4	114.010	0.080	-0.190	0.140
2020/01/31 09:53:39.5	114.030	0.100	-0.230	0.140
2020/01/31 09:53:39.6	114.050	0.120	-0.270	0.140
2020/01/31 09:53:39.7	114.070	0.140	-0.310	0.140
2020/01/31 09:53:39.8	114.090	0.150	-0.350	0.150
2020/01/31 09:53:39.9	114.110	0.170	-0.380	0.160
2020/01/31 09:53:40.0	114.120	0.190	-0.420	0.180
2020/01/31 09:53:40.1	114.130	0.210	-0.450	0.190
2020/01/31 09:53:40.2	114.150	0.220	-0.490	0.220
2020/01/31 09:53:40.3	114.160	0.240	-0.520	0.240
2020/01/31 09:53:40.4	114.150	0.250	-0.550	0.270
2020/01/31 09:53:40.5	114.160	0.260	-0.580	0.310
2020/01/31 09:53:40.6	114.170	0.270	-0.610	0.340
2020/01/31 09:53:40.7	114.170	0.280	-0.630	0.380
2020/01/31 09:53:40.8	114.170	0.290	-0.650	0.430
2020/01/31 09:53:40.9	114.180	0.300	-0.670	0.480
2020/01/31 09:53:41.0	114.180	0.310	-0.690	0.530
2020/01/31 09:53:41.1	114.180	0.310	-0.700	0.580
2020/01/31 09:53:41.2	114.180	0.320	-0.710	0.630
2020/01/31 09:53:41.3	114.180	0.320	-0.720	0.690
2020/01/31 09:53:41.4	114.180	0.320	-0.730	0.750
2020/01/31 09:53:41.5	114.180	0.320	-0.730	0.810
2020/01/31 09:53:41.6	114.170	0.320	-0.720	0.870
2020/01/31 09:53:41.7	114.170	0.320	-0.710	0.930
2020/01/31 09:53:41.8	114.160	0.320	-0.700	0.990
2020/01/31 09:53:41.9	114.150	0.310	-0.690	1.060
2020/01/31 09:53:42.0	114.150	0.310	-0.670	1.120
2020/01/31 09:53:42.1	114.140	0.300	-0.650	1.180
2020/01/31 09:53:42.2	114.130	0.290	-0.630	1.240
2020/01/31 09:53:42.3	114.120	0.280	-0.600	1.300
2020/01/31 09:53:42.4	114.110	0.270	-0.570	1.350
2020/01/31 09:53:42.5	114.100	0.250	-0.530	1.410
2020/01/31 09:53:42.6	114.090	0.240	-0.500	1.460
2020/01/31 09:53:42.7	114.090	0.220	-0.460	1.510
2020/01/31 09:53:42.8	114.080	0.200	-0.420	1.560
2020/01/31 09:53:42.9	114.070	0.180	-0.380	1.610
2020/01/31 09:53:43.0	114.060	0.160	-0.340	1.660
2020/01/31 09:53:43.1	114.050	0.140	-0.290	1.700
2020/01/31 09:53:43.2	114.040	0.120	-0.250	1.740
2020/01/31 09:53:43.3	114.030	0.090	-0.210	1.780
2020/01/31 09:53:43.4	114.050	0.060	-0.160	1.810
2020/01/31 09:53:43.5	114.040	0.040	-0.120	1.850
2020/01/31 09:53:43.6	114.030	0.010	-0.080	1.880
2020/01/31 09:53:43.7	114.030	-0.020	-0.030	1.900
2020/01/31 09:53:43.8	114.020	-0.050	0.000	1.930
2020/01/31 09:53:43.9	114.010	-0.070	0.040	1.950
2020/01/31 09:53:44.0	114.010	-0.100	0.080	1.970
2020/01/31 09:53:44.1	114.000	-0.130	0.110	1.980
2020/01/31 09:53:44.2	113.990	-0.150	0.140	2.000
2020/01/31 09:53:44.3	113.990	-0.180	0.170	2.010
2020/01/31 09:53:44.4	113.990	-0.200	0.190	2.020
2020/01/31 09:53:44.5	113.990	-0.220	0.210	2.020
2020/01/31 09:53:44.6	113.980	-0.240	0.230	2.020
2020/01/31 09:53:44.7	113.980	-0.260	0.250	2.020
2020/01/31 09:53:44.8	113.970	-0.270	0.260	2.010
2020/01/31 09:53:44.9	113.970	-0.280	0.260	2.000
2020/01/31 09:53:45.0	113.970	-0.290	0.260	1.990
2020/01/31 09:53:45.1	113.970	-0.300	0.260	1.970
2020/01/31 09:53:45.2	113.960	-0.310	0.260	1.950
2020/01/31 09:53:45.3	113.960	-0.310	0.250	1.930
2020/01/31 09:53:45.4	113.990	-0.310	0.230	1.900
2020/01/31 09:53:45.5	113.990	-0.300	0.220	1.870
2020/01/31 09:53:45.6	113.990	-0.290	0.200	1.840
2020/01/31 09:53:45.7	114.000	-0.280	0.180	1.810
2020/01/31 09:53:45.8	114.000	-0.270	0.150	1.770
2020/01/31 09:53:45.9	114.000	-0.250	0.130	1.730
2020/01/31 09:53:46.0	114.010	-0.240	0.100	1.690
2020/01/31 09:53:46.1	114.010	-0.220	0.070	1.640
2020/01/31 09:53:46.2	114.020	-0.200	0.040	1.600
2020/01/31 09:53:46.3	114.020	-0.170	0.010	1.550
2020/01/31 09:53:46.4	114.040	-0.150	-0.030	1.510
2020/01/31 09:53:46.5	114.050	-0.120	-0.060	1.460
2020/01/31 09:53:46.6	114.050	-0.090	-0.090	1.410
2020/01/31 09:53:46.7	114.060	-0.070	-0.120	1.370
2020/01/31 09:53:46.8	114.070	-0.040	-0.150	1.320
2020/01/31 09:53:46.9	114.080	-0.010	-0.180	1.270
2020/01/31 09:53:47.0	114.080	0.020	-0.210	1.220
2020/01/31 09:53:47.1	114.090	0.040	-0.230	1.170
2020/01/31 09:53:47.2	114.100	0.070	-0.250	1.130
2020/01/31 09:53:47.3	114.110	0.090	-0.270	1.080
2020/01/31 09:53:47.4	114.120	0.110	-0.290	1.030
2020/01/31 09:53:47.5	114.130	0.140	-0.300	0.980
2020/01/31 09:53:47.6	114.140	0.160	-0.310	0.930
2020/01/31 09:53:47.7	114.150	0.170	-0.320	0.890
2020/01/31 09:53:47.8	114.160	0.190	-0.320	0.840
2020/01/31 09:53:47.9	114.170	0.200	-0.320	0.800
2020/01/31 09:53:48.0	114.180	0.210	-0.320	0.750
2020/01/31 09:53:48.1	114.190	0.220	-0.310	0.710
2020/01/31 09:53:48.2	114.200	0.230	-0.310	0.660
2020/01/31 09:53:48.3	114.210	0.230	-0.290	0.620
2020/01/31 09:53:48.4	114.210	0.230	-0.280	0.580
2020/01/31 09:53:48.5	114.220	0.230	-0.260	0.530
2020/01/31 09:53:48.6	114.240	0.230	-0.240	0.490
2020/01/31 09:53:48.7	114.250	0.230	-0.220	0.450
2020/01/31 09:53:48.8	114.260	0.220	-0.200	0.400
2020/01/31 09:53:48.9	114.280	0.210	-0.180	0.360
2020/01/31 09:53:49.0	114.290	0.210	-0.160	0.310
2020/01/31 09:53:49.1	114.300	0.190	-0.130	0.270
2020/01/31 09:53:49.2	114.320	0.180	-0.110	0.230
2020/01/31 09:53:49.3	114.330	0.170	-0.090	0.180
2020/01/31 09:53:49.4	114.320	0.160	-0.070	0.140
2020/01/31 09:53:49.5	114.330	0.140	-0.050	0.090
2020/01/31 09:53:49.6	114.340	0.130	-0.030	0.050
2020/01/31 09:53:49.7	114.340	0.120	-0.020	0.010
2020/01/31 09:53:49.8	114.350	0.100	-0.000	-0.030
2020/01/31 09:53:49.9	114.350	0.090	0.010	-0.070
2020/01/31 09:53:50.0	114.350	0.080	0.010	-0.100
2020/01/31 09:53:50.1	114.350	0.070	0.020	-0.140
2020/01/31 09:53:50.2	114.350	0.060	0.020	-0.170
2020/01/31 09:53:50.3	114.340	0.050	0.010	-0.200
2020/01/31 09:53:50.4	114.320	0.040	0.010	-0.230
2020/01/31 09:53:50.5	114.310	0.030	-0.000	-0.260
2020/01/31 09:53:50.6	114.300	0.030	-0.020	-0.280
2020/01/31 09:53:50.7	114.290	0.020	-0.040	-0.300
2020/01/31 09:53:50.8	114.280	0.020	-0.060	-0.320
2020/01/31 09:53:50.9	114.260	0.010	-0.080	-0.340
2020/01/31 09:53:51.0	114.250	0.010	-0.110	-0.350
2020/01/31 09:53:51.1	114.230	0.010	-0.140	-0.360
2020/01/31 09:53:51.2	114.210	0.010	-0.170	-0.370
2020/01/31 09:53:51.3	114.200	0.010	-0.200	-0.370
2020/01/31 09:53:51.4	114.160	0.020	-0.230	-0.370
2020/01/31 09:53:51.5	114.140	0.020	-0.260	-0.370
2020/01/31 09:53:51.6	114.120	0.020	-0.300	-0.360
2020/01/31 09:53:51.7	114.100	0.020	-0.330	-0.350
2020/01/31 09:53:51.8	114.090	0.030	-0.360	-0.330
2020/01/31 09:53:51.9	114.070	0.030	-0.390	-0.310
2020/01/31 09:53:52.0	114.050	0.030	-0.410	-0.290
2020/01/31 09:53:52.1	114.040	0.030	-0.440	-0.260
2020/01/31 09:53:52.2	114.020	0.030	-0.460	-0.230
2020/01/31 09:53:52.3	114.010	0.030	-0.470	-0.200
2020/01/31 09:53:52.4	114.000	0.030	-0.480	-0.170
2020/01/31 09:53:52.5	113.990	0.030	-0.500	-0.130
2020/01/31 09:53:52.6	113.980	0.020	-0.500	-0.090
2020/01/31 09:53:52.7	113.970	0.020	-0.500	-0.040
2020/01/31 09:53:52.8	113.960	0.010	-0.500	0.000
2020/01/31 09:53:52.9	113.960	0.000	-0.500	0.050
2020/01/31 09:53:53.0	113.960	-0.010	-0.490	0.100
2020/01/31 09:53:53.1	113.950	-0.020	-0.470	0.150
2020/01/31 09:53:53.2	113.950	-0.030	-0.460	0.200
2020/01/31 09:53:53.3	113.960	-0.040	-0.440	0.250
2020/01/31 09:53:53.4	113.970	-0.060	-0.410	0.300
2020/01/31 09:53:53.5	113.970	-0.070	-0.390	0.350
2020/01/31 09:53:53.6	113.980	-0.090	-0.360	0.410
2020/01/31 09:53:53.7	113.980	-0.100	-0.330	0.460
2020/01/31 09:53:53.8	113.990	-0.120	-0.300	0.510
2020/01/31 09:53:53.9	114.000	-0.140	-0.260	0.560
2020/01/31 09:53:54.0	114.010	-0.150	-0.230	0.620
2020/01/31 09:53:54.1	114.030	-0.170	-0.200	0.670
2020/01/31 09:53:54.2	114.040	-0.190	-0.170	0.720
2020/01/31 09:53:54.3	114.050	-0.200	-0.130	0.760
2020/01/31 09:53:54.4	114.050	-0.220	-0.100	0.810
2020/01/31 09:53:54.5	114.070	-0.240	-0.070	0.860
2020/01/31 09:53:54.6	114.090	-0.250	-0.050	0.910
2020/01/31 09:53:54.7	114.100	-0.260	-0.020	0.950
2020/01/31 09:53:54.8	114.120	-0.270	0.000	1.000
2020/01/31 09:53:54.9	114.140	-0.280	0.020	1.040
2020/01/31 09:53:55.0	114.160	-0.290	0.040	1.080
2020/01/31 09:53:55.1	114.180	-0.300	0.050	1.120
2020/01/31 09:53:55.2	114.200	-0.300	0.060	1.160
2020/01/31 09:53:55.3	114.220	-0.310	0.060	1.200
2020/01/31 09:53:55.4	114.240	-0.310	0.070	1.240
2020/01/31 09:53:55.5	114.260	-0.300	0.070	1.270
2020/01/31 09:53:55.6	114.270	-0.300	0.060	1.310
2020/01/31 09:53:55.7	114.290	-0.290	0.060	1.340
2020/01/31 09:53:55.8	114.310	-0.290	0.050	1.370
2020/01/31 09:53:55.9	114.330	-0.270	0.040	1.410
2020/01/31 09:53:56.0	114.350	-0.260	0.020	1.440
2020/01/31 09:53:56.1	114.370	-0.250	0.010	1.460
2020/01/31 09:53:56.2	114.390	-0.230	-0.010	1.490
2020/01/31 09:53:56.3	114.400	-0.210	-0.030	1.520
2020/01/31 09:53:56.4	114.430	-0.190	-0.050	1.550
2020/01/31 09:53:56.5	114.440	-0.170	-0.070	1.570
2020/01/31 09:53:56.6	114.460	-0.150	-0.090	1.590
2020/01/31 09:53:56.7	114.470	-0.130	-0.110	1.610
2020/01/31 09:53:56.8	114.480	-0.100	-0.140	1.630
2020/01/31 09:53:56.9	114.490	-0.070	-0.160	1.650
2020/01/31 09:53:57.0	114.500	-0.050	-0.180	1.670
2020/01/31 09:53:57.1	114.510	-0.020	-0.200	1.680
2020/01/31 09:53:57.2	114.520	0.010	-0.220	1.690
2020/01/31 09:53:57.3	114.530	0.030	-0.240	1.700
2020/01/31 09:53:57.4	114.540	0.060	-0.250	1.710
2020/01/31 09:53:57.5	114.550	0.090	-0.270	1.720
2020/01/31 09:53:57.6	114.550	0.110	-0.290	1.730
2020/01/31 09:53:57.7	114.550	0.140	-0.300	1.740
2020/01/31 09:53:57.8	114.550	0.160	-0.310	1.740
2020/01/31 09:53:57.9	114.550	0.190	-0.320	1.740
2020/01/31 09:53:58.0	114.550	0.210	-0.330	1.740
2020/01/31 09:53:58.1	114.550	0.230	-0.340	1.750
2020/01/31 09:53:58.2	114.540	0.250	-0.350	1.750
2020/01/31 09:53:58.3	114.540	0.270	-0.350	1.740
2020/01/31 09:53:58.4	114.540	0.280	-0.350	1.750
2020/01/31 09:53:58.5	114.530	0.300	-0.360	1.740
2020/01/31 09:53:58.6	114.520	0.310	-0.360	1.740
2020/01/31 09:53:58.7	114.510	0.320	-0.350	1.740
2020/01/31 09:53:58.8	114.500	0.330	-0.350	1.730
2020/01/31 09:53:58.9	114.490	0.330	-0.340	1.730
2020/01/31 09:53:59.0	114.480	0.340	-0.330	1.720
2020/01/31 09:53:59.1	114.470	0.340	-0.310	1.720
2020/01/31 09:53:59.2	114.450	0.340	-0.300	1.710
2020/01/31 09:53:59.3	114.440	0.330	-0.280	1.700
2020/01/31 09:53:59.4	114.440	0.330	-0.260	1.700
2020/01/31 09:53:59.5	114.420	0.320	-0.240	1.690
2020/01/31 09:53:59.6	114.410	0.320	-0.220	1.680
2020/01/31 09:53:59.7	114.400	0.310	-0.190	1.660
2020/01/31 09:53:59.8	114.390	0.300	-0.160	1.650
2020/01/31 09:53:59.9	114.380	0.280	-0.130	1.640
2020/01/31 09:54:00.0	114.370	0.270	-0.100	1.620
2020/01/31 09:54:00.1	114.370	0.250	-0.070	1.600
2020/01/31 09:54:00.2	114.360	0.240	-0.030	1.580
2020/01/31 09:54:00.3	114.350	0.220	-0.000	1.560
2020/01/31 09:54:00.4	114.350	0.210	0.030	1.530
2020/01/31 09:54:00.5	114.350	0.190	0.070	1.500
2020/01/31 09:54:00.6	114.350	0.170	0.100	1.470
2020/01/31 09:54:00.7	114.350	0.150	0.130	1.440
2020/01/31 09:54:00.8	114.350	0.130	0.160	1.400
2020/01/31 09:54:00.9	114.350	0.120	0.190	1.360
2020/01/31 09:54:01.0	114.350	0.100	0.210	1.320
2020/01/31 09:54:01.1	114.360	0.080	0.230	1.270
2020/01/31 09:54:01.2	114.370	0.060	0.250	1.220
2020/01/31 09:54:01.3	114.380	0.050	0.270	1.170
2020/01/31 09:54:01.4	114.390	0.030	0.280	1.110
2020/01/31 09:54:01.5	114.400	0.010	0.290	1.050
2020/01/31 09:54:01.6	114.420	-0.000	0.300	0.990
2020/01/31 09:54:01.7	114.430	-0.010	0.300	0.930
2020/01/31 09:54:01.8	114.440	-0.030	0.300	0.860
2020/01/31 09:54:01.9	114.460	-0.040	0.290	0.800
2020/01/31 09:54:02.0	114.480	-0.050	0.280	0.730
2020/01/31 09:54:02.1	114.500	-0.060	0.270	0.660
2020/01/31 09:54:02.2	114.520	-0.070	0.250	0.590
2020/01/31 09:54:02.3	114.530	-0.080	0.220	0.520
2020/01/31 09:54:02.4	114.540	-0.080	0.200	0.440
2020/01/31 09:54:02.5	114.560	-0.090	0.170	0.370
2020/01/31 09:54:02.6	114.590	-0.090	0.130	0.300
2020/01/31 09:54:02.7	114.610	-0.090	0.100	0.230
2020/01/31 09:54:02.8	114.630	-0.090	0.060	0.160
2020/01/31 09:54:02.9	114.650	-0.090	0.010	0.090
2020/01/31 09:54:03.0	114.660	-0.090	-0.030	0.030
2020/01/31 09:54:03.1	114.680	-0.090	-0.080	-0.030
2020/01/31 09:54:03.2	114.700	-0.080	-0.130	-0.090
2020/01/31 09:54:03.3	114.720	-0.080	-0.180	-0.140
2020/01/31 09:54:03.4	114.710	-0.070	-0.230	-0.200
2020/01/31 09:54:03.5	114.720	-0.070	-0.290	-0.240
2020/01/31 09:54:03.6	114.730	-0.060	-0.340	-0.290
2020/01/31 09:54:03.7	114.740	-0.050	-0.390	-0.320
2020/01/31 09:54:03.8	114.750	-0.040	-0.450	-0.360
2020/01/31 09:54:03.9	114.760	-0.030	-0.500	-0.380
2020/01/31 09:54:04.0	114.760	-0.020	-0.550	-0.410
2020/01/31 09:54:04.1	114.760	-0.020	-0.600	-0.420
2020/01/31 09:54:04.2	114.770	-0.010	-0.650	-0.440
2020/01/31 09:54:04.3	114.770	0.000	-0.690	-0.440
2020/01/31 09:54:04.4	114.770	0.010	-0.720	-0.450
2020/01/31 09:54:04.5	114.770	0.020	-0.760	-0.450
2020/01/31 09:54:04.6	114.770	0.030	-0.790	-0.440
2020/01/31 09:54:04.7	114.770	0.030	-0.820	-0.430
2020/01/31 09:54:04.8	114.760	0.040	-0.840	-0.410
2020/01/31 09:54:04.9	114.760	0.040	-0.860	-0.390
2020/01/31 09:54:05.0	114.760	0.050	-0.870	-0.370
2020/01/31 09:54:05.1	114.750	0.050	-0.870	-0.340
2020/01/31 09:54:05.2	114.750	0.050	-0.870	-0.310
2020/01/31 09:54:05.3	114.740	0.050	-0.860	-0.280
2020/01/31 09:54:05.4	114.740	0.050	-0.850	-0.240
2020/01/31 09:54:05.5	114.740	0.050	-0.830	-0.200
2020/01/31 09:54:05.6	114.730	0.050	-0.800	-0.160
2020/01/31 09:54:05.7	114.730	0.050	-0.770	-0.120
2020/01/31 09:54:05.8	114.720	0.040	-0.730	-0.080
2020/01/31 09:54:05.9	114.720	0.030	-0.690	-0.030
2020/01/31 09:54:06.0	114.720	0.030	-0.640	0.010
2020/01/31 09:54:06.1	114.710	0.020	-0.590	0.060
2020/01/31 09:54:06.2	114.710	0.010	-0.530	0.100
2020/01/31 09:54:06.3	114.700	-0.000	-0.470	0.150
2020/01/31 09:54:06.4	114.690	-0.010	-0.400	0.200
2020/01/31 09:54:06.5	114.690	-0.030	-0.340	0.250
2020/01/31 09:54:06.6	114.690	-0.040	-0.270	0.300
2020/01/31 09:54:06.7	114.680	-0.050	-0.210	0.340
2020/01/31 09:54:06.8	114.680	-0.070	-0.140	0.390
2020/01/31 09:54:06.9	114.680	-0.080	-0.070	0.440
2020/01/31 09:54:07.0	114.670	-0.100	-0.010	0.480
2020/01/31 09:54:07.1	114.670	-0.110	0.060	0.530
2020/01/31 09:54:07.2	114.670	-0.120	0.120	0.570
2020/01/31 09:54:07.3	114.660	-0.140	0.180	0.620
2020/01/31 09:54:07.4	114.650	-0.150	0.230	0.660
2020/01/31 09:54:07.5	114.640	-0.160	0.280	0.700
2020/01/31 09:54:07.6	114.640	-0.180	0.320	0.740
2020/01/31 09:54:07.7	114.640	-0.190	0.360	0.780
2020/01/31 09:54:07.8	114.640	-0.200	0.400	0.820
2020/01/31 09:54:07.9	114.640	-0.210	0.420	0.860
2020/01/31 09:54:08.0	114.640	-0.210	0.440	0.900
2020/01/31 09:54:08.1	114.640	-0.220	0.460	0.930
2020/01/31 09:54:08.2	114.640	-0.230	0.460	0.970
2020/01/31 09:54:08.3	114.640	-0.230	0.460	1.000
2020/01/31 09:54:08.4	114.640	-0.230	0.460	1.040
2020/01/31 09:54:08.5	114.650	-0.230	0.440	1.070
2020/01/31 09:54:08.6	114.650	-0.230	0.430	1.100
2020/01/31 09:54:08.7	114.660	-0.230	0.400	1.130
2020/01/31 09:54:08.8	114.660	-0.230	0.370	1.150
2020/01/31 09:54:08.9	114.670	-0.220	0.330	1.180
2020/01/31 09:54:09.0	114.680	-0.220	0.290	1.200
2020/01/31 09:54:09.1	114.690	-0.210	0.250	1.220
2020/01/31 09:54:09.2	114.710	-0.200	0.200	1.240
2020/01/31 09:54:09.3	114.720	-0.190	0.150	1.260
2020/01/31 09:54:09.4	114.750	-0.180	0.090	1.280
2020/01/31 09:54:09.5	114.770	-0.160	0.040	1.290
2020/01/31 09:54:09.6	114.790	-0.150	-0.020	1.300
2020/01/31 09:54:09.7	114.810	-0.130	-0.080	1.310
2020/01/31 09:54:09.8	114.830	-0.120	-0.130	1.320
2020/01/31 09:54:09.9	114.850	-0.100	-0.190	1.330
2020/01/31 09:54:10.0	114.860	-0.080	-0.240	1.340
2020/01/31 09:54:10.1	114.880	-0.070	-0.290	1.350
2020/01/31 09:54:10.2	114.900	-0.050	-0.340	1.350
2020/01/31 09:54:10.3	114.920	-0.030	-0.390	1.360
2020/01/31 09:54:10.4	114.940	-0.020	-0.430	1.360
2020/01/31 09:54:10.5	114.950	-0.000	-0.470	1.370
2020/01/31 09:54:10.6	114.970	0.010	-0.510	1.370
2020/01/31 09:54:10.7	114.980	0.030	-0.530	1.380
2020/01/31 09:54:10.8	114.990	0.040	-0.560	1.380
2020/01/31 09:54:10.9	115.000	0.050	-0.580	1.390
2020/01/31 09:54:11.0	115.010	0.060	-0.590	1.390
2020/01/31 09:54:11.1	115.020	0.070	-0.600	1.400
2020/01/31 09:54:11.2	115.020	0.080	-0.600	1.410
2020/01/31 09:54:11.3	115.020	0.080	-0.600	1.420
2020/01/31 09:54:11.4	115.030	0.090	-0.590	1.430
2020/01/31 09:54:11.5	115.030	0.090	-0.580	1.440
2020/01/31 09:54:11.6	115.030	0.090	-0.560	1.450
2020/01/31 09:54:11.7	115.020	0.090	-0.540	1.460
2020/01/31 09:54:11.8	115.020	0.090	-0.520	1.470
2020/01/31 09:54:11.9	115.010	0.090	-0.490	1.480
2020/01/31 09:54:12.0	115.000	0.080	-0.450	1.490
2020/01/31 09:54:12.1	114.990	0.080	-0.420	1.510
2020/01/31 09:54:12.2	114.980	0.070	-0.380	1.520
2020/01/31 09:54:12.3	114.970	0.060	-0.340	1.530
2020/01/31 09:54:12.4	114.970	0.060	-0.290	1.540
2020/01/31 09:54:12.5	114.960	0.050	-0.250	1.540
2020/01/31 09:54:12.6	114.950	0.040	-0.200	1.550
2020/01/31 09:54:12.7	114.940	0.030	-0.160	1.550
2020/01/31 09:54:12.8	114.930	0.020	-0.110	1.550
2020/01/31 09:54:12.9	114.920	0.010	-0.060	1.550
2020/01/31 09:54:13.0	114.910	0.000	-0.020	1.550
2020/01/31 09:54:13.1	114.900	-0.010	0.030	1.540
2020/01/31 09:54:13.2	114.900	-0.020	0.070	1.530
2020/01/31 09:54:13.3	114.890	-0.020	0.110	1.520
2020/01/31 09:54:13.4	114.900	-0.030	0.150	1.500
2020/01/31 09:54:13.5	114.890	-0.040	0.180	1.480
2020/01/31 09:54:13.6	114.890	-0.040	0.210	1.460
2020/01/31 09:54:13.7	114.890	-0.040	0.240	1.430
2020/01/31 09:54:13.8	114.890	-0.050	0.270	1.410
2020/01/31 09:54:13.9	114.890	-0.050	0.290	1.380
2020/01/31 09:54:14.0	114.890	-0.050	0.300	1.350
2020/01/31 09:54:14.1	114.890	-0.050	0.310	1.310
2020/01/31 09:54:14.2	114.900	-0.040	0.320	1.280
2020/01/31 09:54:14.3	114.900	-0.040	0.330	1.240
2020/01/31 09:54:14.4	114.920	-0.040	0.330	1.200
2020/01/31 09:54:14.5	114.930	-0.030	0.320	1.160
2020/01/31 09:54:14.6	114.930	-0.020	0.310	1.120
2020/01/31 09:54:14.7	114.940	-0.010	0.300	1.070
2020/01/31 09:54:14.8	114.950	-0.000	0.280	1.030
2020/01/31 09:54:14.9	114.950	0.010	0.260	0.990
2020/01/31 09:54:15.0	114.960	0.020	0.240	0.940
2020/01/31 09:54:15.1	114.970	0.030	0.210	0.890
2020/01/31 09:54:15.2	114.970	0.050	0.180	0.850
2020/01/31 09:54:15.3	114.980	0.060	0.150	0.800
2020/01/31 09:54:15.4	114.990	0.080	0.120	0.760
2020/01/31 09:54:15.5	114.990	0.090	0.080	0.710
2020/01/31 09:54:15.6	115.000	0.100	0.050	0.670
2020/01/31 09:54:15.7	115.010	0.120	0.010	0.620
2020/01/31 09:54:15.8	115.010	0.130	-0.030	0.580
2020/01/31 09:54:15.9	115.020	0.150	-0.060	0.540
2020/01/31 09:54:16.0	115.020	0.160	-0.100	0.500
2020/01/31 09:54:16.1	115.020	0.170	-0.140	0.460
2020/01/31 09:54:16.2	115.030	0.190	-0.180	0.420
2020/01/31 09:54:16.3	115.030	0.200	-0.210	0.380
2020/01/31 09:54:16.4	115.010	0.210	-0.250	0.350
2020/01/31 09:54:16.5	115.010	0.220	-0.280	0.310
2020/01/31 09:54:16.6	115.010	0.220	-0.320	0.280
2020/01/31 09:54:16.7	115.010	0.230	-0.350	0.250
2020/01/31 09:54:16.8	115.010	0.240	-0.390	0.230
2020/01/31 09:54:16.9	115.010	0.240	-0.420	0.200
2020/01/31 09:54:17.0	115.000	0.240	-0.450	0.180
2020/01/31 09:54:17.1	114.990	0.240	-0.480	0.160
2020/01/31 09:54:17.2	114.990	0.240	-0.510	0.140
2020/01/31 09:54:17.3	114.980	0.240	-0.540	0.130
2020/01/31 09:54:17.4	114.950	0.240	-0.570	0.120
2020/01/31 09:54:17.5	114.940	0.240	-0.590	0.110
2020/01/31 09:54:17.6	114.930	0.230	-0.610	0.100
2020/01/31 09:54:17.7	114.910	0.220	-0.640	0.100
2020/01/31 09:54:17.8	114.900	0.220	-0.650	0.090
2020/01/31 09:54:17.9	114.890	0.210	-0.670	0.090
2020/01/31 09:54:18.0	114.870	0.200	-0.690	0.090
2020/01/31 09:54:18.1	114.860	0.190	-0.700	0.090
2020/01/31 09:54:18.2	114.840	0.180	-0.710	0.100
2020/01/31 09:54:18.3	114.820	0.160	-0.710	0.100
2020/01/31 09:54:18.4	114.800	0.150	-0.710	0.110
2020/01/31 09:54:18.5	114.780	0.140	-0.710	0.110
2020/01/31 09:54:18.6	114.770	0.130	-0.710	0.120
2020/01/31 09:54:18.7	114.760	0.110	-0.710	0.120
2020/01/31 09:54:18.8	114.740	0.100	-0.700	0.130
2020/01/31 09:54:18.9	114.730	0.090	-0.690	0.140
2020/01/31 09:54:19.0	114.720	0.070	-0.670	0.150
2020/01/31 09:54:19.1	114.710	0.060	-0.650	0.150
2020/01/31 09:54:19.2	114.700	0.050	-0.630	0.160
2020/01/31 09:54:19.3	114.700	0.040	-0.610	0.170
2020/01/31 09:54:19.4	114.690	0.020	-0.580	0.180
2020/01/31 09:54:19.5	114.690	0.010	-0.560	0.190
2020/01/31 09:54:19.6	114.680	0.000	-0.530	0.200
2020/01/31 09:54:19.7	114.680	-0.010	-0.490	0.210
2020/01/31 09:54:19.8	114.680	-0.020	-0.460	0.220
2020/01/31 09:54:19.9	114.680	-0.030	-0.430	0.240
2020/01/31 09:54:20.0	114.680	-0.030	-0.390	0.250
2020/01/31 09:54:20.1	114.680	-0.040	-0.350	0.270
2020/01/31 09:54:20.2	114.690	-0.050	-0.320	0.280
2020/01/31 09:54:20.3	114.690	-0.050	-0.280	0.300
2020/01/31 09:54:20.4	114.700	-0.060	-0.240	0.330
2020/01/31 09:54:20.5	114.700	-0.060	-0.200	0.350
2020/01/31 09:54:20.6	114.700	-0.070	-0.170	0.380
2020/01/31 09:54:20.7	114.710	-0.070	-0.130	0.400
2020/01/31 09:54:20.8	114.710	-0.070	-0.090	0.440
2020/01/31 09:54:20.9	114.710	-0.070	-0.060	0.470
2020/01/31 09:54:21.0	114.710	-0.070	-0.030	0.500
2020/01/31 09:54:21.1	114.710	-0.070	0.000	0.540
2020/01/31 09:54:21.2	114.710	-0.070	0.030	0.570
2020/01/31 09:54:21.3	114.710	-0.070	0.060	0.610
2020/01/31 09:54:21.4	114.710	-0.070	0.090	0.650
2020/01/31 09:54:21.5	114.700	-0.060	0.110	0.690
2020/01/31 09:54:21.6	114.700	-0.060	0.130	0.730
2020/01/31 09:54:21.7	114.690	-0.060	0.150	0.770
2020/01/31 09:54:21.8	114.690	-0.050	0.170	0.810
2020/01/31 09:54:21.9	114.690	-0.050	0.180	0.850
2020/01/31 09:54:22.0	114.680	-0.050	0.190	0.890
2020/01/31 09:54:22.1	114.680	-0.040	0.200	0.920
2020/01/31 09:54:22.2	114.670	-0.040	0.210	0.960
2020/01/31 09:54:22.3	114.670	-0.030	0.220	0.990
2020/01/31 09:54:22.4	114.670	-0.030	0.220	1.020
2020/01/31 09:54:22.5	114.670	-0.030	0.230	1.050
2020/01/31 09:54:22.6	114.670	-0.020	0.230	1.070
2020/01/31 09:54:22.7	114.670	-0.020	0.230	1.100
2020/01/31 09:54:22.8	114.670	-0.020	0.220	1.120
2020/01/31 09:54:22.9	114.680	-0.020	0.220	1.130
2020/01/31 09:54:23.0	114.680	-0.020	0.220	1.150
2020/01/31 09:54:23.1	114.690	-0.020	0.210	1.160
2020/01/31 09:54:23.2	114.700	-0.020	0.210	1.170
2020/01/31 09:54:23.3	114.710	-0.020	0.200	1.170
2020/01/31 09:54:23.4	114.740	-0.020	0.190	1.180
2020/01/31 09:54:23.5	114.750	-0.020	0.180	1.180
2020/01/31 09:54:23.6	114.760	-0.020	0.170	1.180
2020/01/31 09:54:23.7	114.780	-0.020	0.160	1.180
2020/01/31 09:54:23.8	114.790	-0.030	0.150	1.180
2020/01/31 09:54:23.9	114.810	-0.030	0.140	1.170
2020/01/31 09:54:24.0	114.820	-0.040	0.120	1.170
2020/01/31 09:54:24.1	114.830	-0.040	0.110	1.170
2020/01/31 09:54:24.2	114.850	-0.050	0.100	1.170
2020/01/31 09:54:24.3	114.860	-0.060	0.080	1.170
2020/01/31 09:54:24.4	114.880	-0.070	0.060	1.170
2020/01/31 09:54:24.5	114.890	-0.070	0.050	1.170
2020/01/31 09:54:24.6	114.900	-0.080	0.030	1.170
2020/01/31 09:54:24.7	114.910	-0.090	0.010	1.170
2020/01/31 09:54:24.8	114.920	-0.100	-0.000	1.180
2020/01/31 09:54:24.9	114.920	-0.110	-0.020	1.180
2020/01/31 09:54:25.0	114.930	-0.120	-0.040	1.190
2020/01/31 09:54:25.1	114.930	-0.120	-0.060	1.200
2020/01/31 09:54:25.2	114.930	-0.130	-0.070	1.220
2020/01/31 09:54:25.3	114.930	-0.140	-0.090	1.230
2020/01/31 09:54:25.4	114.910	-0.150	-0.110	1.240
2020/01/31 09:54:25.5	114.910	-0.160	-0.130	1.260
2020/01/31 09:54:25.6	114.910	-0.170	-0.140	1.270
2020/01/31 09:54:25.7	114.910	-0.180	-0.160	1.290
2020/01/31 09:54:25.8	114.900	-0.180	-0.170	1.310
2020/01/31 09:54:25.9	114.900	-0.190	-0.180	1.320
2020/01/31 09:54:26.0	114.900	-0.200	-0.190	1.340
2020/01/31 09:54:26.1	114.890	-0.200	-0.210	1.360
2020/01/31 09:54:26.2	114.890	-0.210	-0.220	1.370
2020/01/31 09:54:26.3	114.880	-0.210	-0.230	1.390
2020/01/31 09:54:26.4	114.880	-0.220	-0.230	1.400
2020/01/31 09:54:26.5	114.870	-0.220	-0.240	1.410
2020/01/31 09:54:26.6	114.860	-0.220	-0.250	1.420
2020/01/31 09:54:26.7	114.860	-0.220	-0.260	1.430
2020/01/31 09:54:26.8	114.850	-0.220	-0.270	1.440
2020/01/31 09:54:26.9	114.840	-0.220	-0.280	1.450
2020/01/31 09:54:27.0	114.830	-0.220	-0.290	1.450
2020/01/31 09:54:27.1	114.820	-0.210	-0.290	1.460
2020/01/31 09:54:27.2	114.820	-0.210	-0.300	1.460
2020/01/31 09:54:27.3	114.810	-0.210	-0.310	1.460
2020/01/31 09:54:27.4	114.800	-0.200	-0.320	1.470
2020/01/31 09:54:27.5	114.790	-0.190	-0.330	1.470
2020/01/31 09:54:27.6	114.780	-0.190	-0.340	1.470
2020/01/31 09:54:27.7	114.770	-0.180	-0.350	1.460
2020/01/31 09:54:27.8	114.760	-0.170	-0.370	1.460
2020/01/31 09:54:27.9	114.750	-0.160	-0.380	1.460
2020/01/31 09:54:28.0	114.740	-0.150	-0.390	1.460
2020/01/31 09:54:28.1	114.730	-0.130	-0.400	1.450
2020/01/31 09:54:28.2	114.720	-0.120	-0.410	1.450
2020/01/31 09:54:28.3	114.710	-0.110	-0.430	1.450
2020/01/31 09:54:28.4	114.710	-0.090	-0.430	1.440
2020/01/31 09:54:28.5	114.700	-0.080	-0.450	1.440
2020/01/31 09:54:28.6	114.690	-0.070	-0.460	1.430
2020/01/31 09:54:28.7	114.680	-0.050	-0.470	1.430
2020/01/31 09:54:28.8	114.670	-0.030	-0.480	1.420
2020/01/31 09:54:28.9	114.660	-0.020	-0.480	1.410
2020/01/31 09:54:29.0	114.650	-0.000	-0.490	1.400
2020/01/31 09:54:29.1	114.630	0.010	-0.490	1.390
2020/01/31 09:54:29.2	114.620	0.030	-0.490	1.370
2020/01/31 09:54:29.3	114.610	0.050	-0.490	1.360
2020/01/31 09:54:29.4	114.600	0.060	-0.490	1.340
2020/01/31 09:54:29.5	114.590	0.080	-0.480	1.320
2020/01/31 09:54:29.6	114.580	0.090	-0.470	1.300
2020/01/31 09:54:29.7	114.570	0.110	-0.460	1.280
2020/01/31 09:54:29.8	114.560	0.120	-0.450	1.260
2020/01/31 09:54:29.9	114.550	0.130	-0.440	1.230
2020/01/31 09:54:30.0	114.540	0.150	-0.420	1.200
2020/01/31 09:54:30.1	114.530	0.160	-0.400	1.170
2020/01/31 09:54:30.2	114.520	0.170	-0.380	1.130
2020/01/31 09:54:30.3	114.520	0.180	-0.350	1.100
2020/01/31 09:54:30.4	114.520	0.190	-0.330	1.060
2020/01/31 09:54:30.5	114.510	0.200	-0.310	1.020
2020/01/31 09:54:30.6	114.510	0.200	-0.280	0.980
2020/01/31 09:54:30.7	114.510	0.210	-0.250	0.930
2020/01/31 09:54:30.8	114.510	0.210	-0.220	0.880
2020/01/31 09:54:30.9	114.510	0.220	-0.190	0.830
2020/01/31 09:54:31.0	114.520	0.220	-0.160	0.780
2020/01/31 09:54:31.1	114.520	0.220	-0.130	0.730
2020/01/31 09:54:31.2	114.530	0.220	-0.100	0.680
2020/01/31 09:54:31.3	114.540	0.220	-0.080	0.630
2020/01/31 09:54:31.4	114.550	0.210	-0.050	0.570
2020/01/31 09:54:31.5	114.560	0.210	-0.020	0.520
2020/01/31 09:54:31.6	114.580	0.210	0.010	0.460
2020/01/31 09:54:31.7	114.590	0.200	0.030	0.410
2020/01/31 09:54:31.8	114.600	0.200	0.060	0.360
2020/01/31 09:54:31.9	114.620	0.190	0.080	0.310
2020/01/31 09:54:32.0	114.640	0.180	0.100	0.260
2020/01/31 09:54:32.1	114.650	0.180	0.120	0.210
2020/01/31 09:54:32.2	114.670	0.170	0.130	0.160
2020/01/31 09:54:32.3	114.690	0.160	0.150	0.110
2020/01/31 09:54:32.4	114.690	0.150	0.160	0.070
2020/01/31 09:54:32.5	114.710	0.150	0.170	0.030
2020/01/31 09:54:32.6	114.720	0.140	0.170	-0.010
2020/01/31 09:54:32.7	114.740	0.130	0.170	-0.040
2020/01/31 09:54:32.8	114.760	0.130	0.170	-0.070
2020/01/31 09:54:32.9	114.770	0.120	0.170	-0.100
2020/01/31 09:54:33.0	114.790	0.120	0.160	-0.120
2020/01/31 09:54:33.1	114.800	0.110	0.150	-0.140
2020/01/31 09:54:33.2	114.810	0.110	0.140	-0.150
2020/01/31 09:54:33.3	114.830	0.100	0.130	-0.160
2020/01/31 09:54:33.4	114.820	0.100	0.110	-0.170
2020/01/31 09:54:33.5	114.830	0.100	0.090	-0.170
2020/01/31 09:54:33.6	114.840	0.100	0.070	-0.170
2020/01/31 09:54:33.7	114.850	0.100	0.040	-0.170
2020/01/31 09:54:33.8	114.850	0.100	0.020	-0.160
2020/01/31 09:54:33.9	114.860	0.100	-0.010	-0.140
2020/01/31 09:54:34.0	114.860	0.110	-0.040	-0.130
2020/01/31 09:54:34.1	114.860	0.110	-0.070	-0.110
2020/01/31 09:54:34.2	114.870	0.110	-0.100	-0.090
2020/01/31 09:54:34.3	114.870	0.120	-0.130	-0.060
2020/01/31 09:54:34.4	114.860	0.120	-0.150	-0.030
2020/01/31 09:54:34.5	114.860	0.130	-0.190	0.000
2020/01/31 09:54:34.6	114.860	0.130	-0.220	0.030
2020/01/31 09:54:34.7	114.860	0.140	-0.250	0.070
2020/01/31 09:54:34.8	114.860	0.140	-0.280	0.110
2020/01/31 09:54:34.9	114.860	0.150	-0.300	0.150
2020/01/31 09:54:35.0	114.850	0.150	-0.330	0.190
2020/01/31 09:54:35.1	114.850	0.160	-0.360	0.230
2020/01/31 09:54:35.2	114.840	0.160	-0.390	0.280
2020/01/31 09:54:35.3	114.830	0.160	-0.410	0.330
2020/01/31 09:54:35.4	114.850	0.160	-0.430	0.380
2020/01/31 09:54:35.5	114.840	0.160	-0.450	0.430
2020/01/31 09:54:35.6	114.830	0.160	-0.470	0.490
2020/01/31 09:54:35.7	114.820	0.160	-0.490	0.540
2020/01/31 09:54:35.8	114.810	0.160	-0.500	0.600
2020/01/31 09:54:35.9	114.800	0.150	-0.510	0.650
2020/01/31 09:54:36.0	114.800	0.150	-0.520	0.710
2020/01/31 09:54:36.1	114.790	0.140	-0.520	0.770
2020/01/31 09:54:36.2	114.780	0.130	-0.530	0.820
2020/01/31 09:54:36.3	114.780	0.120	-0.530	0.880
2020/01/31 09:54:36.4	114.770	0.110	-0.520	0.940
2020/01/31 09:54:36.5	114.760	0.090	-0.520	1.000
2020/01/31 09:54:36.6	114.760	0.080	-0.510	1.050
2020/01/31 09:54:36.7	114.760	0.060	-0.490	1.110
2020/01/31 09:54:36.8	114.750	0.040	-0.480	1.170
2020/01/31 09:54:36.9	114.750	0.020	-0.460	1.220
2020/01/31 09:54:37.0	114.750	0.000	-0.430	1.280
2020/01/31 09:54:37.1	114.750	-0.020	-0.410	1.330
2020/01/31 09:54:37.2	114.750	-0.050	-0.380	1.390
2020/01/31 09:54:37.3	114.750	-0.070	-0.350	1.440
2020/01/31 09:54:37.4	114.760	-0.090	-0.310	1.490
2020/01/31 09:54:37.5	114.760	-0.120	-0.280	1.540
2020/01/31 09:54:37.6	114.760	-0.140	-0.240	1.600
2020/01/31 09:54:37.7	114.760	-0.170	-0.200	1.650
2020/01/31 09:54:37.8	114.760	-0.200	-0.160	1.700
2020/01/31 09:54:37.9	114.760	-0.220	-0.120	1.740
2020/01/31 09:54:38.0	114.760	-0.240	-0.090	1.790
2020/01/31 09:54:38.1	114.760	-0.270	-0.050	1.840
2020/01/31 09:54:38.2	114.760	-0.290	-0.010	1.880
2020/01/31 09:54:38.3	114.760	-0.310	0.030	1.930
2020/01/31 09:54:38.4	114.770	-0.330	0.070	1.970
2020/01/31 09:54:38.5	114.760	-0.340	0.100	2.010
2020/01/31 09:54:38.6	114.760	-0.360	0.140	2.040
2020/01/31 09:54:38.7	114.750	-0.370	0.170	2.080
2020/01/31 09:54:38.8	114.740	-0.380	0.200	2.110
2020/01/31 09:54:38.9	114.740	-0.390	0.230	2.140
2020/01/31 09:54:39.0	114.730	-0.400	0.250	2.160
2020/01/31 09:54:39.1	114.720	-0.400	0.270	2.180
2020/01/31 09:54:39.2	114.710	-0.410	0.290	2.200
2020/01/31 09:54:39.3	114.700	-0.400	0.310	2.210
2020/01/31 09:54:39.4	114.710	-0.400	0.320	2.220
2020/01/31 09:54:39.5	114.700	-0.400	0.320	2.230
2020/01/31 09:54:39.6	114.690	-0.390	0.330	2.230
2020/01/31 09:54:39.7	114.680	-0.380	0.330	2.230
2020/01/31 09:54:39.8	114.670	-0.370	0.330	2.220
2020/01/31 09:54:39.9	114.660	-0.350	0.320	2.210
2020/01/31 09:54:40.0	114.660	-0.340	0.310	2.200
2020/01/31 09:54:40.1	114.650	-0.320	0.300	2.190
2020/01/31 09:54:40.2	114.640	-0.300	0.280	2.170
2020/01/31 09:54:40.3	114.640	-0.280	0.260	2.140
2020/01/31 09:54:40.4	114.650	-0.260	0.230	2.120
2020/01/31 09:54:40.5	114.640	-0.230	0.210	2.090
2020/01/31 09:54:40.6	114.640	-0.210	0.180	2.060
2020/01/31 09:54:40.7	114.640	-0.190	0.150	2.020
2020/01/31 09:54:40.8	114.640	-0.160	0.110	1.980
2020/01/31 09:54:40.9	114.640	-0.140	0.080	1.940
2020/01/31 09:54:41.0	114.640	-0.120	0.040	1.900
2020/01/31 09:54:41.1	114.640	-0.090	0.000	1.860
2020/01/31 09:54:41.2	114.640	-0.070	-0.040	1.810
2020/01/31 09:54:41.3	114.650	-0.050	-0.080	1.760
2020/01/31 09:54:41.4	114.660	-0.020	-0.120	1.710
2020/01/31 09:54:41.5	114.670	-0.000	-0.160	1.650
2020/01/31 09:54:41.6	114.670	0.020	-0.200	1.600
2020/01/31 09:54:41.7	114.680	0.040	-0.240	1.550
2020/01/31 09:54:41.8	114.690	0.050	-0.280	1.490
2020/01/31 09:54:41.9	114.700	0.070	-0.320	1.430
2020/01/31 09:54:42.0	114.720	0.080	-0.350	1.380
2020/01/31 09:54:42.1	114.730	0.100	-0.390	1.320
2020/01/31 09:54:42.2	114.740	0.110	-0.420	1.260
2020/01/31 09:54:42.3	114.750	0.120	-0.460	1.200
2020/01/31 09:54:42.4	114.760	0.120	-0.480	1.140
2020/01/31 09:54:42.5	114.770	0.130	-0.510	1.080
2020/01/31 09:54:42.6	114.780	0.130	-0.540	1.020
2020/01/31 09:54:42.7	114.800	0.140	-0.570	0.960
2020/01/31 09:54:42.8	114.810	0.140	-0.590	0.900
2020/01/31 09:54:42.9	114.820	0.140	-0.610	0.840
2020/01/31 09:54:43.0	114.840	0.140	-0.630	0.780
2020/01/31 09:54:43.1	114.850	0.140	-0.650	0.730
2020/01/31 09:54:43.2	114.860	0.130	-0.660	0.670
2020/01/31 09:54:43.3	114.870	0.130	-0.680	0.620
2020/01/31 09:54:43.4	114.850	0.120	-0.690	0.570
2020/01/31 09:54:43.5	114.860	0.120	-0.700	0.510
2020/01/31 09:54:43.6	114.870	0.110	-0.700	0.470
2020/01/31 09:54:43.7	114.880	0.100	-0.700	0.420
2020/01/31 09:54:43.8	114.880	0.100	-0.700	0.380
2020/01/31 09:54:43.9	114.890	0.090	-0.700	0.340
2020/01/31 09:54:44.0	114.890	0.080	-0.690	0.310
2020/01/31 09:54:44.1	114.900	0.070	-0.680	0.270
2020/01/31 09:54:44.2	114.900	0.060	-0.670	0.240
2020/01/31 09:54:44.3	114.900	0.050	-0.650	0.220
2020/01/31 09:54:44.4	114.900	0.040	-0.630	0.200
2020/01/31 09:54:44.5	114.900	0.030	-0.600	0.180
2020/01/31 09:54:44.6	114.900	0.030	-0.570	0.170
2020/01/31 09:54:44.7	114.900	0.020	-0.540	0.160
2020/01/31 09:54:44.8	114.890	0.010	-0.510	0.150
2020/01/31 09:54:44.9	114.890	-0.000	-0.470	0.150
2020/01/31 09:54:45.0	114.890	-0.010	-0.430	0.140
2020/01/31 09:54:45.1	114.880	-0.020	-0.380	0.150
2020/01/31 09:54:45.2	114.880	-0.030	-0.340	0.150
2020/01/31 09:54:45.3	114.870	-0.030	-0.290	0.160
2020/01/31 09:54:45.4	114.860	-0.040	-0.230	0.160
2020/01/31 09:54:45.5	114.850	-0.050	-0.180	0.170
2020/01/31 09:54:45.6	114.840	-0.060	-0.120	0.190
2020/01/31 09:54:45.7	114.830	-0.060	-0.070	0.200
2020/01/31 09:54:45.8	114.820	-0.070	-0.010	0.210
2020/01/31 09:54:45.9	114.810	-0.080	0.050	0.230
2020/01/31 09:54:46.0	114.800	-0.080	0.110	0.240
2020/01/31 09:54:46.1	114.790	-0.090	0.160	0.250
2020/01/31 09:54:46.2	114.770	-0.090	0.220	0.270
2020/01/31 09:54:46.3	114.760	-0.100	0.270	0.290
2020/01/31 09:54:46.4	114.730	-0.110	0.320	0.300
2020/01/31 09:54:46.5	114.720	-0.110	0.370	0.320
2020/01/31 09:54:46.6	114.700	-0.110	0.410	0.340
2020/01/31 09:54:46.7	114.680	-0.120	0.450	0.350
2020/01/31 09:54:46.8	114.660	-0.120	0.480	0.370
2020/01/31 09:54:46.9	114.630	-0.120	0.510	0.390
2020/01/31 09:54:47.0	114.610	-0.120	0.530	0.400
2020/01/31 09:54:47.1	114.590	-0.120	0.540	0.420
2020/01/31 09:54:47.2	114.560	-0.120	0.550	0.440
2020/01/31 09:54:47.3	114.540	-0.120	0.550	0.460
2020/01/31 09:54:47.4	114.520	-0.110	0.540	0.480
2020/01/31 09:54:47.5	114.490	-0.110	0.530	0.490
2020/01/31 09:54:47.6	114.470	-0.100	0.510	0.510
2020/01/31 09:54:47.7	114.450	-0.090	0.490	0.530
2020/01/31 09:54:47.8	114.420	-0.080	0.460	0.550
2020/01/31 09:54:47.9	114.400	-0.070	0.420	0.580
2020/01/31 09:54:48.0	114.370	-0.060	0.380	0.600
2020/01/31 09:54:48.1	114.350	-0.050	0.330	0.620
2020/01/31 09:54:48.2	114.330	-0.030	0.280	0.640
2020/01/31 09:54:48.3	114.300	-0.010	0.220	0.660
2020/01/31 09:54:48.4	114.290	0.000	0.160	0.680
2020/01/31 09:54:48.5	114.270	0.020	0.100	0.700
2020/01/31 09:54:48.6	114.250	0.040	0.030	0.720
2020/01/31 09:54:48.7	114.230	0.060	-0.040	0.740
2020/01/31 09:54:48.8	114.210	0.090	-0.110	0.760
2020/01/31 09:54:48.9	114.200	0.110	-0.180	0.780
2020/01/31 09:54:49.0	114.180	0.130	-0.260	0.800
2020/01/31 09:54:49.1	114.170	0.160	-0.330	0.810
2020/01/31 09:54:49.2	114.160	0.180	-0.400	0.830
2020/01/31 09:54:49.3	114.150	0.200	-0.470	0.840
2020/01/31 09:54:49.4	114.140	0.230	-0.540	0.860
2020/01/31 09:54:49.5	114.130	0.250	-0.600	0.870
2020/01/31 09:54:49.6	114.130	0.270	-0.660	0.880
2020/01/31 09:54:49.7	114.120	0.300	-0.720	0.890
2020/01/31 09:54:49.8	114.120	0.320	-0.780	0.900
2020/01/31 09:54:49.9	114.120	0.340	-0.830	0.910
2020/01/31 09:54:50.0	114.120	0.360	-0.870	0.920
2020/01/31 09:54:50.1	114.120	0.370	-0.910	0.930
2020/01/31 09:54:50.2	114.130	0.390	-0.950	0.940
2020/01/31 09:54:50.3	114.130	0.400	-0.970	0.940
2020/01/31 09:54:50.4	114.130	0.420	-0.990	0.950
2020/01/31 09:54:50.5	114.140	0.420	-1.010	0.960
2020/01/31 09:54:50.6	114.150	0.430	-1.010	0.970
2020/01/31 09:54:50.7	114.160	0.440	-1.010	0.970
2020/01/31 09:54:50.8	114.170	0.440	-1.010	0.980
2020/01/31 09:54:50.9	114.180	0.440	-1.000	0.990
2020/01/31 09:54:51.0	114.190	0.440	-0.980	1.000
2020/01/31 09:54:51.1	114.200	0.430	-0.950	1.010
2020/01/31 09:54:51.2	114.220	0.420	-0.920	1.020
2020/01/31 09:54:51.3	114.230	0.410	-0.880	1.030
2020/01/31 09:54:51.4	114.240	0.400	-0.830	1.030
2020/01/31 09:54:51.5	114.250	0.380	-0.780	1.050
2020/01/31 09:54:51.6	114.260	0.360	-0.730	1.060
2020/01/31 09:54:51.7	114.270	0.340	-0.670	1.080
2020/01/31 09:54:51.8	114.280	0.310	-0.600	1.090
2020/01/31 09:54:51.9	114.290	0.290	-0.530	1.110
2020/01/31 09:54:52.0	114.290	0.260	-0.460	1.130
2020/01/31 09:54:52.1	114.300	0.230	-0.380	1.150
2020/01/31 09:54:52.2	114.300	0.190	-0.300	1.170
2020/01/31 09:54:52.3	114.300	0.160	-0.220	1.190
2020/01/31 09:54:52.4	114.300	0.120	-0.140	1.220
2020/01/31 09:54:52.5	114.300	0.090	-0.060	1.250
2020/01/31 09:54:52.6	114.300	0.050	0.020	1.270
2020/01/31 09:54:52.7	114.290	0.010	0.100	1.300
2020/01/31 09:54:52.8	114.280	-0.030	0.190	1.330
2020/01/31 09:54:52.9	114.270	-0.070	0.270	1.360
2020/01/31 09:54:53.0	114.270	-0.110	0.350	1.390
2020/01/31 09:54:53.1	114.260	-0.150	0.420	1.410
2020/01/31 09:54:53.2	114.240	-0.190	0.490	1.440
2020/01/31 09:54:53.3	114.230	-0.220	0.560	1.470
2020/01/31 09:54:53.4	114.220	-0.260	0.620	1.490
2020/01/31 09:54:53.5	114.210	-0.300	0.680	1.520
2020/01/31 09:54:53.6	114.200	-0.330	0.740	1.540
2020/01/31 09:54:53.7	114.190	-0.370	0.790	1.560
2020/01/31 09:54:53.8	114.180	-0.400	0.830	1.580
2020/01/31 09:54:53.9	114.170	-0.430	0.870	1.600
2020/01/31 09:54:54.0	114.150	-0.460	0.890	1.620
2020/01/31 09:54:54.1	114.140	-0.480	0.920	1.640
2020/01/31 09:54:54.2	114.130	-0.510	0.930	1.650
2020/01/31 09:54:54.3	114.120	-0.530	0.930	1.660
2020/01/31 09:54:54.4	114.120	-0.550	0.930	1.670
2020/01/31 09:54:54.5	114.110	-0.560	0.920	1.680
2020/01/31 09:54:54.6	114.100	-0.580	0.900	1.690
2020/01/31 09:54:54.7	114.090	-0.590	0.870	1.700
2020/01/31 09:54:54.8	114.080	-0.600	0.830	1.700
2020/01/31 09:54:54.9	114.070	-0.600	0.780	1.710
2020/01/31 09:54:55.0	114.060	-0.600	0.730	1.710
2020/01/31 09:54:55.1	114.050	-0.600	0.670	1.710
2020/01/31 09:54:55.2	114.050	-0.600	0.600	1.710
2020/01/31 09:54:55.3	114.040	-0.590	0.520	1.710
2020/01/31 09:54:55.4	114.040	-0.580	0.440	1.700
2020/01/31 09:54:55.5	114.030	-0.570	0.350	1.700
2020/01/31 09:54:55.6	114.020	-0.550	0.260	1.700
2020/01/31 09:54:55.7	114.010	-0.530	0.160	1.690
2020/01/31 09:54:55.8	114.000	-0.510	0.060	1.680
2020/01/31 09:54:55.9	113.990	-0.490	-0.040	1.680
2020/01/31 09:54:56.0	113.980	-0.460	-0.140	1.670
2020/01/31 09:54:56.1	113.970	-0.430	-0.250	1.660
2020/01/31 09:54:56.2	113.970	-0.400	-0.350	1.650
2020/01/31 09:54:56.3	113.960	-0.370	-0.450	1.630
2020/01/31 09:54:56.4	113.960	-0.340	-0.550	1.620
2020/01/31 09:54:56.5	113.950	-0.310	-0.650	1.610
2020/01/31 09:54:56.6	113.940	-0.270	-0.740	1.590
2020/01/31 09:54:56.7	113.930	-0.240	-0.830	1.580
2020/01/31 09:54:56.8	113.920	-0.200	-0.920	1.560
2020/01/31 09:54:56.9	113.910	-0.160	-1.000	1.540
2020/01/31 09:54:57.0	113.900	-0.120	-1.070	1.530
2020/01/31 09:54:57.1	113.890	-0.090	-1.140	1.510
2020/01/31 09:54:57.2	113.880	-0.050	-1.200	1.490
2020/01/31 09:54:57.3	113.870	-0.010	-1.250	1.470
2020/01/31 09:54:57.4	113.870	0.020	-1.300	1.450
2020/01/31 09:54:57.5	113.850	0.060	-1.340	1.420
2020/01/31 09:54:57.6	113.840	0.090	-1.360	1.400
2020/01/31 09:54:57.7	113.830	0.130	-1.380	1.370
2020/01/31 09:54:57.8	113.810	0.160	-1.390	1.350
2020/01/31 09:54:57.9	113.800	0.190	-1.400	1.320
2020/01/31 09:54:58.0	113.780	0.210	-1.390	1.290
2020/01/31 09:54:58.1	113.760	0.240	-1.380	1.260
2020/01/31 09:54:58.2	113.750	0.260	-1.360	1.230
2020/01/31 09:54:58.3	113.730	0.280	-1.330	1.200
2020/01/31 09:54:58.4	113.720	0.300	-1.290	1.160
2020/01/31 09:54:58.5	113.710	0.320	-1.240	1.130
2020/01/31 09:54:58.6	113.690	0.330	-1.190	1.090
2020/01/31 09:54:58.7	113.680	0.340	-1.130	1.060
2020/01/31 09:54:58.8	113.670	0.340	-1.070	1.020
2020/01/31 09:54:58.9	113.650	0.350	-1.000	0.980
2020/01/31 09:54:59.0	113.640	0.350	-0.930	0.950
2020/01/31 09:54:59.1	113.630	0.350	-0.850	0.910
2020/01/31 09:54:59.2	113.620	0.340	-0.770	0.870
2020/01/31 09:54:59.3	113.610	0.340	-0.690	0.830
2020/01/31 09:54:59.4	113.580	0.330	-0.600	0.800
2020/01/31 09:54:59.5	113.570	0.320	-0.510	0.760
2020/01/31 09:54:59.6	113.560	0.310	-0.420	0.720
2020/01/31 09:54:59.7	113.560	0.290	-0.330	0.680
2020/01/31 09:54:59.8	113.550	0.270	-0.240	0.650
2020/01/31 09:54:59.9	113.540	0.260	-0.150	0.610
2020/01/31 09:55:00.0	113.530	0.240	-0.060	0.580
2020/01/31 09:55:00.1	113.530	0.220	0.030	0.540
2020/01/31 09:55:00.2	113.520	0.200	0.120	0.500
2020/01/31 09:55:00.3	113.510	0.170	0.200	0.470
2020/01/31 09:55:00.4	113.480	0.150	0.280	0.430
2020/01/31 09:55:00.5	113.470	0.130	0.350	0.400
2020/01/31 09:55:00.6	113.460	0.110	0.430	0.360
2020/01/31 09:55:00.7	113.460	0.080	0.500	0.330
2020/01/31 09:55:00.8	113.450	0.060	0.560	0.300
2020/01/31 09:55:00.9	113.440	0.040	0.620	0.270
2020/01/31 09:55:01.0	113.430	0.020	0.670	0.230
2020/01/31 09:55:01.1	113.420	-0.010	0.720	0.200
2020/01/31 09:55:01.2	113.410	-0.030	0.760	0.170
2020/01/31 09:55:01.3	113.400	-0.050	0.800	0.150
2020/01/31 09:55:01.4	113.370	-0.060	0.830	0.120
2020/01/31 09:55:01.5	113.360	-0.080	0.860	0.090
2020/01/31 09:55:01.6	113.350	-0.100	0.880	0.060
2020/01/31 09:55:01.7	113.340	-0.110	0.890	0.040
2020/01/31 09:55:01.8	113.330	-0.130	0.900	0.010
2020/01/31 09:55:01.9	113.320	-0.140	0.900	-0.010
2020/01/31 09:55:02.0	113.310	-0.150	0.900	-0.030
2020/01/31 09:55:02.1	113.300	-0.160	0.890	-0.060
2020/01/31 09:55:02.2	113.290	-0.170	0.870	-0.080
2020/01/31 09:55:02.3	113.290	-0.180	0.850	-0.100
2020/01/31 09:55:02.4	113.260	-0.180	0.820	-0.120
2020/01/31 09:55:02.5	113.250	-0.190	0.790	-0.140
2020/01/31 09:55:02.6	113.240	-0.190	0.750	-0.160
2020/01/31 09:55:02.7	113.240	-0.190	0.710	-0.170
2020/01/31 09:55:02.8	113.230	-0.190	0.660	-0.190
2020/01/31 09:55:02.9	113.230	-0.190	0.610	-0.200
2020/01/31 09:55:03.0	113.220	-0.180	0.560	-0.220
2020/01/31 09:55:03.1	113.210	-0.180	0.500	-0.230
2020/01/31 09:55:03.2	113.210	-0.170	0.440	-0.240
2020/01/31 09:55:03.3	113.200	-0.160	0.380	-0.240
2020/01/31 09:55:03.4	113.180	-0.160	0.320	-0.240
2020/01/31 09:55:03.5	113.170	-0.150	0.250	-0.250
2020/01/31 09:55:03.6	113.170	-0.130	0.180	-0.250
2020/01/31 09:55:03.7	113.160	-0.120	0.110	-0.240
2020/01/31 09:55:03.8	113.150	-0.110	0.040	-0.240
2020/01/31 09:55:03.9	113.150	-0.090	-0.030	-0.240
2020/01/31 09:55:04.0	113.140	-0.080	-0.100	-0.230
2020/01/31 09:55:04.1	113.140	-0.060	-0.170	-0.220
2020/01/31 09:55:04.2	113.130	-0.050	-0.240	-0.210
2020/01/31 09:55:04.3	113.130	-0.030	-0.310	-0.190
2020/01/31 09:55:04.4	113.110	-0.010	-0.380	-0.170
2020/01/31 09:55:04.5	113.110	0.000	-0.440	-0.160
2020/01/31 09:55:04.6	113.100	0.020	-0.510	-0.140
2020/01/31 09:55:04.7	113.100	0.040	-0.570	-0.110
2020/01/31 09:55:04.8	113.100	0.060	-0.620	-0.090
2020/01/31 09:55:04.9	113.090	0.070	-0.680	-0.060
2020/01/31 09:55:05.0	113.090	0.090	-0.730	-0.040
2020/01/31 09:55:05.1	113.080	0.110	-0.780	-0.010
2020/01/31 09:55:05.2	113.080	0.130	-0.820	0.030
2020/01/31 09:55:05.3	113.080	0.140	-0.860	0.060
2020/01/31 09:55:05.4	113.070	0.160	-0.890	0.100
2020/01/31 09:55:05.5	113.070	0.170	-0.920	0.140
2020/01/31 09:55:05.6	113.070	0.190	-0.950	0.180
2020/01/31 09:55:05.7	113.060	0.200	-0.970	0.220
2020/01/31 09:55:05.8	113.050	0.220	-0.990	0.270
2020/01/31 09:55:05.9	113.050	0.230	-1.000	0.320
2020/01/31 09:55:06.0	113.040	0.240	-1.010	0.360
2020/01/31 09:55:06.1	113.040	0.250	-1.010	0.410
2020/01/31 09:55:06.2	113.030	0.260	-1.010	0.470
2020/01/31 09:55:06.3	113.020	0.270	-1.010	0.520
2020/01/31 09:55:06.4	113.040	0.270	-1.000	0.580
2020/01/31 09:55:06.5	113.030	0.280	-0.980	0.630
2020/01/31 09:55:06.6	113.020	0.280	-0.960	0.690
2020/01/31 09:55:06.7	113.020	0.290	-0.940	0.750
2020/01/31 09:55:06.8	113.010	0.290	-0.910	0.810
2020/01/31 09:55:06.9	113.010	0.290	-0.880	0.860
2020/01/31 09:55:07.0	113.000	0.280	-0.840	0.920
2020/01/31 09:55:07.1	113.000	0.280	-0.800	0.980
2020/01/31 09:55:07.2	113.000	0.270	-0.750	1.030
2020/01/31 09:55:07.3	113.000	0.270	-0.710	1.090
2020/01/31 09:55:07.4	113.020	0.260	-0.650	1.150
2020/01/31 09:55:07.5	113.020	0.240	-0.600	1.200
2020/01/31 09:55:07.6	113.030	0.230	-0.540	1.250
2020/01/31 09:55:07.7	113.030	0.220	-0.480	1.300
2020/01/31 09:55:07.8	113.040	0.200	-0.420	1.350
2020/01/31 09:55:07.9	113.040	0.180	-0.360	1.400
2020/01/31 09:55:08.0	113.050	0.160	-0.300	1.440
2020/01/31 09:55:08.1	113.050	0.140	-0.240	1.490
2020/01/31 09:55:08.2	113.060	0.120	-0.180	1.530
2020/01/31 09:55:08.3	113.070	0.090	-0.120	1.570
2020/01/31 09:55:08.4	113.070	0.070	-0.060	1.610
2020/01/31 09:55:08.5	113.070	0.040	-0.000	1.650
2020/01/31 09:55:08.6	113.080	0.020	0.050	1.700
2020/01/31 09:55:08.7	113.080	-0.010	0.100	1.740
2020/01/31 09:55:08.8	113.080	-0.030	0.150	1.770
2020/01/31 09:55:08.9	113.080	-0.060	0.190	1.810
2020/01/31 09:55:09.0	113.080	-0.080	0.220	1.850
2020/01/31 09:55:09.1	113.080	-0.110	0.260	1.890
2020/01/31 09:55:09.2	113.070	-0.130	0.280	1.930
2020/01/31 09:55:09.3	113.060	-0.150	0.300	1.960
2020/01/31 09:55:09.4	113.070	-0.170	0.320	2.000
2020/01/31 09:55:09.5	113.060	-0.190	0.330	2.030
2020/01/31 09:55:09.6	113.050	-0.210	0.340	2.060
2020/01/31 09:55:09.7	113.030	-0.230	0.340	2.090
2020/01/31 09:55:09.8	113.020	-0.250	0.330	2.120
2020/01/31 09:55:09.9	113.000	-0.260	0.320	2.150
2020/01/31 09:55:10.0	112.980	-0.270	0.310	2.170
2020/01/31 09:55:10.1	112.960	-0.280	0.290	2.200
2020/01/31 09:55:10.2	112.940	-0.290	0.270	2.220
2020/01/31 09:55:10.3	112.920	-0.290	0.250	2.230
2020/01/31 09:55:10.4	112.930	-0.300	0.220	2.250
2020/01/31 09:55:10.5	112.900	-0.300	0.190	2.260
2020/01/31 09:55:10.6	112.880	-0.300	0.160	2.270
2020/01/31 09:55:10.7	112.860	-0.290	0.130	2.270
2020/01/31 09:55:10.8	112.840	-0.290	0.090	2.270
2020/01/31 09:55:10.9	112.810	-0.290	0.060	2.270
2020/01/31 09:55:11.0	112.790	-0.280	0.030	2.270
2020/01/31 09:55:11.1	112.770	-0.270	-0.010	2.260
2020/01/31 09:55:11.2	112.750	-0.260	-0.040	2.240
2020/01/31 09:55:11.3	112.730	-0.250	-0.070	2.230
2020/01/31 09:55:11.4	112.740	-0.240	-0.100	2.210
2020/01/31 09:55:11.5	112.720	-0.220	-0.120	2.180
2020/01/31 09:55:11.6	112.710	-0.210	-0.150	2.150
2020/01/31 09:55:11.7	112.690	-0.200	-0.170	2.120
2020/01/31 09:55:11.8	112.680	-0.180	-0.190	2.080
2020/01/31 09:55:11.9	112.670	-0.170	-0.200	2.040
2020/01/31 09:55:12.0	112.670	-0.150	-0.220	1.990
2020/01/31 09:55:12.1	112.660	-0.140	-0.230	1.940
2020/01/31 09:55:12.2	112.660	-0.120	-0.240	1.890
2020/01/31 09:55:12.3	112.650	-0.110	-0.240	1.830
2020/01/31 09:55:12.4	112.660	-0.090	-0.250	1.770
2020/01/31 09:55:12.5	112.660	-0.080	-0.250	1.700
2020/01/31 09:55:12.6	112.660	-0.060	-0.250	1.630
2020/01/31 09:55:12.7	112.670	-0.050	-0.240	1.560
2020/01/31 09:55:12.8	112.670	-0.040	-0.240	1.490
2020/01/31 09:55:12.9	112.680	-0.030	-0.230	1.410
2020/01/31 09:55:13.0	112.690	-0.020	-0.220	1.340
2020/01/31 09:55:13.1	112.690	-0.010	-0.210	1.260
2020/01/31 09:55:13.2	112.700	0.000	-0.200	1.170
2020/01/31 09:55:13.3	112.710	0.010	-0.190	1.090
2020/01/31 09:55:13.4	112.720	0.010	-0.180	1.010
2020/01/31 09:55:13.5	112.730	0.020	-0.170	0.930
2020/01/31 09:55:13.6	112.750	0.020	-0.160	0.840
2020/01/31 09:55:13.7	112.760	0.030	-0.150	0.760
2020/01/31 09:55:13.8	112.770	0.030	-0.140	0.680
2020/01/31 09:55:13.9	112.780	0.030	-0.130	0.600
2020/01/31 09:55:14.0	112.790	0.030	-0.120	0.520
2020/01/31 09:55:14.1	112.800	0.030	-0.110	0.450
2020/01/31 09:55:14.2	112.810	0.030	-0.110	0.370
2020/01/31 09:55:14.3	112.820	0.020	-0.100	0.300
2020/01/31 09:55:14.4	112.800	0.020	-0.100	0.230
2020/01/31 09:55:14.5	112.810	0.020	-0.100	0.170
2020/01/31 09:55:14.6	112.820	0.010	-0.090	0.100
2020/01/31 09:55:14.7	112.820	0.010	-0.090	0.040
2020/01/31 09:55:14.8	112.830	0.000	-0.090	-0.010
2020/01/31 09:55:14.9	112.840	-0.000	-0.090	-0.070
2020/01/31 09:55:15.0	112.840	-0.010	-0.100	-0.120
2020/01/31 09:55:15.1	112.840	-0.010	-0.100	-0.170
2020/01/31 09:55:15.2	112.840	-0.020	-0.100	-0.220
2020/01/31 09:55:15.3	112.840	-0.020	-0.100	-0.260
2020/01/31 09:55:15.4	112.820	-0.030	-0.110	-0.300
2020/01/31 09:55:15.5	112.820	-0.030	-0.110	-0.340
2020/01/31 09:55:15.6	112.810	-0.040	-0.110	-0.380
2020/01/31 09:55:15.7	112.810	-0.040	-0.110	-0.410
2020/01/31 09:55:15.8	112.810	-0.050	-0.110	-0.440
2020/01/31 09:55:15.9	112.810	-0.050	-0.110	-0.470
2020/01/31 09:55:16.0	112.800	-0.060	-0.110	-0.500
2020/01/31 09:55:16.1	112.800	-0.060	-0.110	-0.520
2020/01/31 09:55:16.2	112.800	-0.060	-0.110	-0.540
2020/01/31 09:55:16.3	112.790	-0.070	-0.110	-0.560
2020/01/31 09:55:16.4	112.780	-0.070	-0.110	-0.580
2020/01/31 09:55:16.5	112.770	-0.070	-0.100	-0.600
2020/01/31 09:55:16.6	112.770	-0.070	-0.100	-0.610
2020/01/31 09:55:16.7	112.770	-0.070	-0.100	-0.620
2020/01/31 09:55:16.8	112.760	-0.070	-0.090	-0.630
2020/01/31 09:55:16.9	112.760	-0.070	-0.090	-0.640
2020/01/31 09:55:17.0	112.760	-0.070	-0.090	-0.640
2020/01/31 09:55:17.1	112.750	-0.070	-0.090	-0.640
2020/01/31 09:55:17.2	112.750	-0.070	-0.080	-0.640
2020/01/31 09:55:17.3	112.750	-0.070	-0.080	-0.640
2020/01/31 09:55:17.4	112.740	-0.060	-0.080	-0.640
2020/01/31 09:55:17.5	112.740	-0.060	-0.080	-0.630
2020/01/31 09:55:17.6	112.740	-0.060	-0.090	-0.620
2020/01/31 09:55:17.7	112.740	-0.050	-0.090	-0.610
2020/01/31 09:55:17.8	112.740	-0.050	-0.100	-0.590
2020/01/31 09:55:17.9	112.750	-0.040	-0.100	-0.570
2020/01/31 09:55:18.0	112.750	-0.030	-0.110	-0.550
2020/01/31 09:55:18.1	112.750	-0.020	-0.130	-0.530
2020/01/31 09:55:18.2	112.750	-0.020	-0.140	-0.500
2020/01/31 09:55:18.3	112.750	-0.010	-0.160	-0.460
2020/01/31 09:55:18.4	112.750	0.000	-0.180	-0.420
2020/01/31 09:55:18.5	112.750	0.020	-0.200	-0.380
2020/01/31 09:55:18.6	112.750	0.030	-0.230	-0.340
2020/01/31 09:55:18.7	112.750	0.040	-0.260	-0.290
2020/01/31 09:55:18.8	112.750	0.060	-0.290	-0.240
2020/01/31 09:55:18.9	112.740	0.070	-0.320	-0.190
2020/01/31 09:55:19.0	112.740	0.090	-0.350	-0.130
2020/01/31 09:55:19.1	112.740	0.100	-0.390	-0.080
2020/01/31 09:55:19.2	112.740	0.120	-0.420	-0.010
2020/01/31 09:55:19.3	112.730	0.140	-0.460	0.050
2020/01/31 09:55:19.4	112.720	0.160	-0.490	0.120
2020/01/31 09:55:19.5	112.720	0.180	-0.530	0.180
2020/01/31 09:55:19.6	112.710	0.200	-0.560	0.250
2020/01/31 09:55:19.7	112.710	0.220	-0.590	0.320
2020/01/31 09:55:19.8	112.700	0.230	-0.620	0.390
2020/01/31 09:55:19.9	112.690	0.250	-0.640	0.460
2020/01/31 09:55:20.0	112.690	0.270	-0.660	0.530
2020/01/31 09:55:20.1	112.680	0.290	-0.680	0.610
2020/01/31 09:55:20.2	112.670	0.300	-0.690	0.680
2020/01/31 09:55:20.3	112.660	0.320	-0.700	0.750
2020/01/31 09:55:20.4	112.660	0.330	-0.700	0.820
2020/01/31 09:55:20.5	112.650	0.340	-0.700	0.890
2020/01/31 09:55:20.6	112.650	0.350	-0.690	0.960
2020/01/31 09:55:20.7	112.640	0.350	-0.680	1.030
2020/01/31 09:55:20.8	112.630	0.360	-0.660	1.090
2020/01/31 09:55:20.9	112.620	0.360	-0.630	1.160
2020/01/31 09:55:21.0	112.600	0.360	-0.600	1.220
2020/01/31 09:55:21.1	112.590	0.350	-0.570	1.290
2020/01/31 09:55:21.2	112.580	0.350	-0.530	1.350
2020/01/31 09:55:21.3	112.570	0.340	-0.490	1.410
2020/01/31 09:55:21.4	112.580	0.330	-0.440	1.470
2020/01/31 09:55:21.5	112.560	0.320	-0.390	1.520
2020/01/31 09:55:21.6	112.550	0.300	-0.330	1.580
2020/01/31 09:55:21.7	112.540	0.290	-0.270	1.630
2020/01/31 09:55:21.8	112.530	0.270	-0.210	1.680
2020/01/31 09:55:21.9	112.510	0.250	-0.150	1.730
2020/01/31 09:55:22.0	112.500	0.220	-0.090	1.780
2020/01/31 09:55:22.1	112.490	0.200	-0.030	1.820
2020/01/31 09:55:22.2	112.480	0.170	0.040	1.860
2020/01/31 09:55:22.3	112.470	0.140	0.100	1.890
2020/01/31 09:55:22.4	112.480	0.120	0.160	1.930
2020/01/31 09:55:22.5	112.470	0.090	0.220	1.960
2020/01/31 09:55:22.6	112.460	0.060	0.280	1.980
2020/01/31 09:55:22.7	112.450	0.030	0.330	2.010
2020/01/31 09:55:22.8	112.440	-0.000	0.380	2.020
2020/01/31 09:55:22.9	112.430	-0.040	0.430	2.040
2020/01/31 09:55:23.0	112.430	-0.070	0.470	2.050
2020/01/31 09:55:23.1	112.420	-0.100	0.510	2.060
2020/01/31 09:55:23.2	112.420	-0.120	0.540	2.060
2020/01/31 09:55:23.3	112.410	-0.150	0.570	2.060
2020/01/31 09:55:23.4	112.420	-0.180	0.590	2.060
2020/01/31 09:55:23.5	112.420	-0.200	0.610	2.050
2020/01/31 09:55:23.6	112.420	-0.230	0.620	2.040
2020/01/31 09:55:23.7	112.420	-0.250	0.620	2.030
2020/01/31 09:55:23.8	112.420	-0.270	0.620	2.020
2020/01/31 09:55:23.9	112.420	-0.290	0.620	2.000
2020/01/31 09:55:24.0	112.420	-0.300	0.610	1.980
2020/01/31 09:55:24.1	112.420	-0.320	0.590	1.950
2020/01/31 09:55:24.2	112.420	-0.330	0.560	1.930
2020/01/31 09:55:24.3	112.430	-0.330	0.530	1.900
2020/01/31 09:55:24.4	112.450	-0.340	0.500	1.870
2020/01/31 09:55:24.5	112.450	-0.340	0.460	1.840
2020/01/31 09:55:24.6	112.460	-0.340	0.410	1.810
2020/01/31 09:55:24.7	112.460	-0.330	0.360	1.780
2020/01/31 09:55:24.8	112.470	-0.330	0.310	1.740
2020/01/31 09:55:24.9	112.470	-0.320	0.250	1.700
2020/01/31 09:55:25.0	112.480	-0.300	0.180	1.670
2020/01/31 09:55:25.1	112.480	-0.290	0.120	1.630
2020/01/31 09:55:25.2	112.480	-0.270	0.040	1.590
2020/01/31 09:55:25.3	112.490	-0.250	-0.030	1.550
2020/01/31 09:55:25.4	112.490	-0.230	-0.100	1.510
2020/01/31 09:55:25.5	112.500	-0.200	-0.180	1.470
2020/01/31 09:55:25.6	112.500	-0.180	-0.260	1.430
2020/01/31 09:55:25.7	112.500	-0.150	-0.340	1.390
2020/01/31 09:55:25.8	112.510	-0.120	-0.420	1.350
2020/01/31 09:55:25.9	112.510	-0.090	-0.500	1.300
2020/01/31 09:55:26.0	112.510	-0.060	-0.580	1.260
2020/01/31 09:55:26.1	112.510	-0.020	-0.660	1.220
2020/01/31 09:55:26.2	112.520	0.010	-0.730	1.180
2020/01/31 09:55:26.3	112.520	0.040	-0.800	1.130
2020/01/31 09:55:26.4	112.510	0.070	-0.870	1.090
2020/01/31 09:55:26.5	112.520	0.100	-0.930	1.040
2020/01/31 09:55:26.6	112.530	0.130	-0.990	1.000
2020/01/31 09:55:26.7	112.530	0.160	-1.040	0.960
2020/01/31 09:55:26.8	112.540	0.190	-1.090	0.910
2020/01/31 09:55:26.9	112.550	0.210	-1.120	0.870
2020/01/31 09:55:27.0	112.560	0.230	-1.150	0.830
2020/01/31 09:55:27.1	112.580	0.250	-1.170	0.780
2020/01/31 09:55:27.2	112.590	0.270	-1.190	0.740
2020/01/31 09:55:27.3	112.600	0.280	-1.190	0.700
2020/01/31 09:55:27.4	112.610	0.290	-1.190	0.660
2020/01/31 09:55:27.5	112.630	0.300	-1.170	0.620
2020/01/31 09:55:27.6	112.640	0.300	-1.150	0.580
2020/01/31 09:55:27.7	112.660	0.300	-1.110	0.540
2020/01/31 09:55:27.8	112.680	0.290	-1.070	0.510
2020/01/31 09:55:27.9	112.690	0.290	-1.020	0.470
2020/01/31 09:55:28.0	112.710	0.270	-0.960	0.440
2020/01/31 09:55:28.1	112.730	0.260	-0.890	0.400
2020/01/31 09:55:28.2	112.740	0.240	-0.820	0.370
2020/01/31 09:55:28.3	112.760	0.220	-0.740	0.340
2020/01/31 09:55:28.4	112.760	0.190	-0.650	0.310
2020/01/31 09:55:28.5	112.770	0.170	-0.560	0.290
2020/01/31 09:55:28.6	112.790	0.140	-0.470	0.260
2020/01/31 09:55:28.7	112.800	0.110	-0.370	0.240
2020/01/31 09:55:28.8	112.810	0.070	-0.270	0.220
2020/01/31 09:55:28.9	112.810	0.040	-0.160	0.200
2020/01/31 09:55:29.0	112.820	0.000	-0.060	0.180
2020/01/31 09:55:29.1	112.830	-0.040	0.040	0.160
2020/01/31 09:55:29.2	112.830	-0.070	0.140	0.150
2020/01/31 09:55:29.3	112.830	-0.110	0.240	0.140
2020/01/31 09:55:29.4	112.800	-0.150	0.330	0.120
2020/01/31 09:55:29.5	112.790	-0.180	0.420	0.120
2020/01/31 09:55:29.6	112.790	-0.220	0.510	0.110
2020/01/31 09:55:29.7	112.780	-0.250	0.590	0.110
2020/01/31 09:55:29.8	112.780	-0.280	0.660	0.100
2020/01/31 09:55:29.9	112.770	-0.310	0.720	0.100
2020/01/31 09:55:30.0	112.760	-0.340	0.780	0.100
2020/01/31 09:55:30.1	112.740	-0.360	0.830	0.100
2020/01/31 09:55:30.2	112.730	-0.380	0.870	0.110
2020/01/31 09:55:30.3	112.720	-0.400	0.900	0.110
2020/01/31 09:55:30.4	112.690	-0.420	0.920	0.120
2020/01/31 09:55:30.5	112.670	-0.430	0.940	0.130
2020/01/31 09:55:30.6	112.660	-0.440	0.940	0.130
2020/01/31 09:55:30.7	112.640	-0.440	0.930	0.140
2020/01/31 09:55:30.8	112.620	-0.450	0.920	0.150
2020/01/31 09:55:30.9	112.600	-0.440	0.890	0.160
2020/01/31 09:55:31.0	112.580	-0.440	0.860	0.170
2020/01/31 09:55:31.1	112.560	-0.430	0.820	0.170
2020/01/31 09:55:31.2	112.540	-0.420	0.770	0.180
2020/01/31 09:55:31.3	112.520	-0.400	0.710	0.190
2020/01/31 09:55:31.4	112.480	-0.380	0.650	0.200
2020/01/31 09:55:31.5	112.460	-0.360	0.580	0.210
2020/01/31 09:55:31.6	112.440	-0.340	0.500	0.220
2020/01/31 09:55:31.7	112.420	-0.310	0.420	0.220
2020/01/31 09:55:31.8	112.410	-0.280	0.330	0.230
2020/01/31 09:55:31.9	112.390	-0.250	0.240	0.230
2020/01/31 09:55:32.0	112.370	-0.220	0.150	0.240
2020/01/31 09:55:32.1	112.360	-0.180	0.050	0.240
2020/01/31 09:55:32.2	112.340	-0.140	-0.050	0.240
2020/01/31 09:55:32.3	112.330	-0.110	-0.150	0.240
2020/01/31 09:55:32.4	112.320	-0.070	-0.240	0.240
2020/01/31 09:55:32.5	112.310	-0.030	-0.340	0.240
2020/01/31 09:55:32.6	112.310	0.010	-0.430	0.230
2020/01/31 09:55:32.7	112.300	0.050	-0.520	0.220
2020/01/31 09:55:32.8	112.300	0.080	-0.620	0.220
2020/01/31 09:55:32.9	112.300	0.120	-0.700	0.210
2020/01/31 09:55:33.0	112.300	0.160	-0.780	0.200
2020/01/31 09:55:33.1	112.300	0.200	-0.860	0.180
2020/01/31 09:55:33.2	112.310	0.230	-0.930	0.170
2020/01/31 09:55:33.3	112.310	0.260	-0.990	0.160
2020/01/31 09:55:33.4	112.320	0.300	-1.050	0.150
2020/01/31 09:55:33.5	112.330	0.330	-1.100	0.140
2020/01/31 09:55:33.6	112.350	0.350	-1.140	0.130
2020/01/31 09:55:33.7	112.360	0.380	-1.170	0.110
2020/01/31 09:55:33.8	112.380	0.400	-1.200	0.100
2020/01/31 09:55:33.9	112.400	0.430	-1.220	0.090
2020/01/31 09:55:34.0	112.420	0.440	-1.230	0.080
2020/01/31 09:55:34.1	112.440	0.460	-1.230	0.070
2020/01/31 09:55:34.2	112.460	0.470	-1.220	0.060
2020/01/31 09:55:34.3	112.490	0.480	-1.200	0.050
2020/01/31 09:55:34.4	112.520	0.490	-1.180	0.050
2020/01/31 09:55:34.5	112.550	0.500	-1.140	0.050
2020/01/31 09:55:34.6	112.580	0.500	-1.100	0.050
2020/01/31 09:55:34.7	112.610	0.500	-1.050	0.050
2020/01/31 09:55:34.8	112.650	0.490	-1.000	0.050
2020/01/31 09:55:34.9	112.680	0.490	-0.930	0.060
2020/01/31 09:55:35.0	112.720	0.480	-0.870	0.070
2020/01/31 09:55:35.1	112.750	0.460	-0.790	0.080
2020/01/31 09:55:35.2	112.790	0.450	-0.710	0.090
2020/01/31 09:55:35.3	112.830	0.430	-0.630	0.110
2020/01/31 09:55:35.4	112.870	0.410	-0.540	0.130
2020/01/31 09:55:35.5	112.910	0.390	-0.450	0.150
2020/01/31 09:55:35.6	112.950	0.370	-0.360	0.180
2020/01/31 09:55:35.7	112.980	0.340	-0.260	0.210
2020/01/31 09:55:35.8	113.020	0.310	-0.170	0.240
2020/01/31 09:55:35.9	113.050	0.290	-0.070	0.270
2020/01/31 09:55:36.0	113.080	0.260	0.020	0.300
2020/01/31 09:55:36.1	113.110	0.230	0.110	0.330
2020/01/31 09:55:36.2	113.140	0.190	0.200	0.370
2020/01/31 09:55:36.3	113.160	0.160	0.280	0.410
2020/01/31 09:55:36.4	113.180	0.130	0.360	0.450
2020/01/31 09:55:36.5	113.200	0.100	0.440	0.490
2020/01/31 09:55:36.6	113.220	0.070	0.500	0.540
2020/01/31 09:55:36.7	113.230	0.040	0.570	0.580
2020/01/31 09:55:36.8	113.240	0.000	0.620	0.630
2020/01/31 09:55:36.9	113.250	-0.030	0.670	0.680
2020/01/31 09:55:37.0	113.250	-0.050	0.710	0.730
2020/01/31 09:55:37.1	113.240	-0.080	0.740	0.780
2020/01/31 09:55:37.2	113.240	-0.110	0.760	0.830
2020/01/31 09:55:37.3	113.230	-0.130	0.780	0.890
2020/01/31 09:55:37.4	113.220	-0.150	0.790	0.940
2020/01/31 09:55:37.5	113.200	-0.180	0.780	1.000
2020/01/31 09:55:37.6	113.190	-0.200	0.770	1.050
2020/01/31 09:55:37.7	113.170	-0.210	0.760	1.110
2020/01/31 09:55:37.8	113.140	-0.230	0.730	1.170
2020/01/31 09:55:37.9	113.120	-0.240	0.700	1.230
2020/01/31 09:55:38.0	113.090	-0.250	0.660	1.290
2020/01/31 09:55:38.1	113.060	-0.260	0.620	1.350
2020/01/31 09:55:38.2	113.040	-0.270	0.570	1.420
2020/01/31 09:55:38.3	113.010	-0.280	0.510	1.480
2020/01/31 09:55:38.4	112.990	-0.280	0.450	1.540
2020/01/31 09:55:38.5	112.960	-0.290	0.390	1.600
2020/01/31 09:55:38.6	112.930	-0.290	0.320	1.660
2020/01/31 09:55:38.7	112.910	-0.290	0.250	1.720
2020/01/31 09:55:38.8	112.880	-0.290	0.180	1.780
2020/01/31 09:55:38.9	112.860	-0.280	0.110	1.830
2020/01/31 09:55:39.0	112.830	-0.280	0.030	1.890
2020/01/31 09:55:39.1	112.810	-0.270	-0.040	1.940
2020/01/31 09:55:39.2	112.790	-0.270	-0.110	1.990
2020/01/31 09:55:39.3	112.770	-0.260	-0.190	2.030
2020/01/31 09:55:39.4	112.780	-0.250	-0.250	2.080
2020/01/31 09:55:39.5	112.760	-0.240	-0.320	2.120
2020/01/31 09:55:39.6	112.750	-0.230	-0.390	2.160
2020/01/31 09:55:39.7	112.740	-0.220	-0.450	2.190
2020/01/31 09:55:39.8	112.730	-0.200	-0.500	2.220
2020/01/31 09:55:39.9	112.720	-0.190	-0.560	2.250
2020/01/31 09:55:40.0	112.720	-0.180	-0.610	2.270
2020/01/31 09:55:40.1	112.720	-0.160	-0.650	2.290
2020/01/31 09:55:40.2	112.720	-0.150	-0.700	2.310
2020/01/31 09:55:40.3	112.720	-0.130	-0.730	2.320
2020/01/31 09:55:40.4	112.730	-0.120	-0.760	2.320
2020/01/31 09:55:40.5	112.740	-0.100	-0.790	2.320
2020/01/31 09:55:40.6	112.740	-0.080	-0.810	2.320
2020/01/31 09:55:40.7	112.750	-0.070	-0.830	2.310
2020/01/31 09:55:40.8	112.760	-0.050	-0.840	2.300
2020/01/31 09:55:40.9	112.770	-0.040	-0.850	2.280
2020/01/31 09:55:41.0	112.780	-0.020	-0.850	2.260
2020/01/31 09:55:41.1	112.800	-0.000	-0.850	2.230
2020/01/31 09:55:41.2	112.810	0.010	-0.840	2.200
2020/01/31 09:55:41.3	112.830	0.030	-0.830	2.170
2020/01/31 09:55:41.4	112.850	0.040	-0.820	2.130
2020/01/31 09:55:41.5	112.870	0.050	-0.800	2.080
2020/01/31 09:55:41.6	112.890	0.070	-0.780	2.040
2020/01/31 09:55:41.7	112.920	0.080	-0.750	1.990
2020/01/31 09:55:41.8	112.940	0.090	-0.730	1.930
2020/01/31 09:55:41.9	112.960	0.100	-0.700	1.880
2020/01/31 09:55:42.0	112.980	0.100	-0.660	1.820
2020/01/31 09:55:42.1	113.010	0.110	-0.630	1.760
2020/01/31 09:55:42.2	113.030	0.120	-0.590	1.700
2020/01/31 09:55:42.3	113.050	0.120	-0.550	1.630
2020/01/31 09:55:42.4	113.080	0.120	-0.510	1.560
2020/01/31 09:55:42.5	113.100	0.120	-0.470	1.500
2020/01/31 09:55:42.6	113.120	0.120	-0.430	1.430
2020/01/31 09:55:42.7	113.140	0.120	-0.390	1.360
2020/01/31 09:55:42.8	113.160	0.120	-0.350	1.300
2020/01/31 09:55:42.9	113.180	0.110	-0.300	1.230
2020/01/31 09:55:43.0	113.190	0.110	-0.260	1.170
2020/01/31 09:55:43.1	113.210	0.110	-0.220	1.110
2020/01/31 09:55:43.2	113.220	0.100	-0.180	1.040
2020/01/31 09:55:43.3	113.230	0.090	-0.140	0.980
2020/01/31 09:55:43.4	113.230	0.090	-0.100	0.930
2020/01/31 09:55:43.5	113.240	0.080	-0.060	0.870
2020/01/31 09:55:43.6	113.250	0.070	-0.020	0.820
2020/01/31 09:55:43.7	113.250	0.070	0.010	0.770
2020/01/31 09:55:43.8	113.260	0.060	0.040	0.720
2020/01/31 09:55:43.9	113.260	0.050	0.070	0.670
2020/01/31 09:55:44.0	113.260	0.050	0.100	0.630
2020/01/31 09:55:44.1	113.250	0.040	0.130	0.590
2020/01/31 09:55:44.2	113.250	0.040	0.150	0.550
2020/01/31 09:55:44.3	113.240	0.030	0.170	0.510
2020/01/31 09:55:44.4	113.210	0.030	0.180	0.470
2020/01/31 09:55:44.5	113.200	0.030	0.200	0.440
2020/01/31 09:55:44.6	113.190	0.030	0.210	0.410
2020/01/31 09:55:44.7	113.170	0.030	0.220	0.380
2020/01/31 09:55:44.8	113.160	0.030	0.230	0.350
2020/01/31 09:55:44.9	113.140	0.030	0.230	0.330
2020/01/31 09:55:45.0	113.120	0.030	0.230	0.300
2020/01/31 09:55:45.1	113.100	0.040	0.230	0.280
2020/01/31 09:55:45.2	113.080	0.040	0.220	0.260
2020/01/31 09:55:45.3	113.060	0.050	0.210	0.240
2020/01/31 09:55:45.4	113.020	0.050	0.200	0.220
2020/01/31 09:55:45.5	113.000	0.060	0.190	0.200
2020/01/31 09:55:45.6	112.970	0.060	0.180	0.180
2020/01/31 09:55:45.7	112.950	0.070	0.160	0.170
2020/01/31 09:55:45.8	112.930	0.080	0.140	0.150
2020/01/31 09:55:45.9	112.910	0.080	0.120	0.130
2020/01/31 09:55:46.0	112.890	0.090	0.100	0.120
2020/01/31 09:55:46.1	112.870	0.100	0.080	0.100
2020/01/31 09:55:46.2	112.860	0.100	0.060	0.080
2020/01/31 09:55:46.3	112.840	0.110	0.030	0.070
2020/01/31 09:55:46.4	112.810	0.110	0.010	0.050
2020/01/31 09:55:46.5	112.800	0.120	-0.010	0.030
2020/01/31 09:55:46.6	112.790	0.120	-0.030	0.010
2020/01/31 09:55:46.7	112.780	0.120	-0.050	-0.000
2020/01/31 09:55:46.8	112.780	0.120	-0.060	-0.020
2020/01/31 09:55:46.9	112.780	0.120	-0.080	-0.040
2020/01/31 09:55:47.0	112.780	0.120	-0.100	-0.060
2020/01/31 09:55:47.1	112.790	0.120	-0.110	-0.070
2020/01/31 09:55:47.2	112.790	0.110	-0.120	-0.090
2020/01/31 09:55:47.3	112.800	0.110	-0.130	-0.110
2020/01/31 09:55:47.4	112.800	0.100	-0.130	-0.120
2020/01/31 09:55:47.5	112.810	0.090	-0.130	-0.140
2020/01/31 09:55:47.6	112.830	0.090	-0.130	-0.150
2020/01/31 09:55:47.7	112.850	0.080	-0.130	-0.160
2020/01/31 09:55:47.8	112.870	0.060	-0.130	-0.180
2020/01/31 09:55:47.9	112.890	0.050	-0.120	-0.190
2020/01/31 09:55:48.0	112.910	0.040	-0.120	-0.200
2020/01/31 09:55:48.1	112.930	0.030	-0.110	-0.210
2020/01/31 09:55:48.2	112.950	0.010	-0.100	-0.210
2020/01/31 09:55:48.3	112.980	-0.000	-0.090	-0.220
2020/01/31 09:55:48.4	112.980	-0.020	-0.080	-0.220
2020/01/31 09:55:48.5	113.000	-0.030	-0.060	-0.220
2020/01/31 09:55:48.6	113.020	-0.050	-0.050	-0.210
2020/01/31 09:55:48.7	113.040	-0.060	-0.050	-0.210
2020/01/31 09:55:48.8	113.050	-0.080	-0.040	-0.200
2020/01/31 09:55:48.9	113.070	-0.090	-0.030	-0.180
2020/01/31 09:55:49.0	113.080	-0.100	-0.030	-0.170
2020/01/31 09:55:49.1	113.090	-0.110	-0.030	-0.150
2020/01/31 09:55:49.2	113.100	-0.120	-0.030	-0.130
2020/01/31 09:55:49.3	113.100	-0.130	-0.040	-0.100
2020/01/31 09:55:49.4	113.120	-0.140	-0.050	-0.070
2020/01/31 09:55:49.5	113.120	-0.150	-0.060	-0.040
2020/01/31 09:55:49.6	113.120	-0.160	-0.080	-0.010
2020/01/31 09:55:49.7	113.120	-0.160	-0.100	0.030
2020/01/31 09:55:49.8	113.120	-0.160	-0.120	0.070
2020/01/31 09:55:49.9	113.120	-0.160	-0.150	0.110
2020/01/31 09:55:50.0	113.110	-0.160	-0.180	0.150
2020/01/31 09:55:50.1	113.110	-0.160	-0.210	0.200
2020/01/31 09:55:50.2	113.100	-0.160	-0.250	0.250
2020/01/31 09:55:50.3	113.090	-0.150	-0.290	0.300
2020/01/31 09:55:50.4	113.090	-0.140	-0.330	0.350
2020/01/31 09:55:50.5	113.090	-0.130	-0.370	0.410
2020/01/31 09:55:50.6	113.080	-0.120	-0.410	0.460
2020/01/31 09:55:50.7	113.070	-0.110	-0.460	0.510
2020/01/31 09:55:50.8	113.070	-0.100	-0.500	0.570
2020/01/31 09:55:50.9	113.060	-0.090	-0.540	0.620
2020/01/31 09:55:51.0	113.060	-0.070	-0.580	0.680
2020/01/31 09:55:51.1	113.050	-0.060	-0.620	0.740
2020/01/31 09:55:51.2	113.050	-0.040	-0.660	0.790
2020/01/31 09:55:51.3	113.040	-0.030	-0.700	0.850
2020/01/31 09:55:51.4	113.050	-0.010	-0.730	0.910
2020/01/31 09:55:51.5	113.040	0.000	-0.750	0.970
2020/01/31 09:55:51.6	113.040	0.020	-0.780	1.020
2020/01/31 09:55:51.7	113.040	0.040	-0.800	1.080
2020/01/31 09:55:51.8	113.040	0.050	-0.810	1.130
2020/01/31 09:55:51.9	113.040	0.060	-0.820	1.190
2020/01/31 09:55:52.0	113.040	0.080	-0.820	1.240
2020/01/31 09:55:52.1	113.040	0.090	-0.820	1.300
2020/01/31 09:55:52.2	113.040	0.100	-0.820	1.350
2020/01/31 09:55:52.3	113.040	0.110	-0.800	1.400
2020/01/31 09:55:52.4	113.050	0.120	-0.780	1.450
2020/01/31 09:55:52.5	113.060	0.120	-0.760	1.500
2020/01/31 09:55:52.6	113.060	0.130	-0.730	1.550
2020/01/31 09:55:52.7	113.060	0.130	-0.700	1.590
2020/01/31 09:55:52.8	113.070	0.130	-0.660	1.630
2020/01/31 09:55:52.9	113.070	0.130	-0.620	1.680
2020/01/31 09:55:53.0	113.080	0.130	-0.570	1.720
2020/01/31 09:55:53.1	113.080	0.130	-0.520	1.750
2020/01/31 09:55:53.2	113.090	0.120	-0.460	1.790
2020/01/31 09:55:53.3	113.100	0.120	-0.400	1.820
2020/01/31 09:55:53.4	113.130	0.110	-0.340	1.850
2020/01/31 09:55:53.5	113.140	0.100	-0.280	1.880
2020/01/31 09:55:53.6	113.150	0.080	-0.210	1.900
2020/01/31 09:55:53.7	113.160	0.070	-0.140	1.920
2020/01/31 09:55:53.8	113.170	0.060	-0.080	1.930
2020/01/31 09:55:53.9	113.180	0.040	-0.010	1.940
2020/01/31 09:55:54.0	113.200	0.020	0.060	1.940
2020/01/31 09:55:54.1	113.210	0.010	0.130	1.950
2020/01/31 09:55:54.2	113.220	-0.010	0.190	1.940
2020/01/31 09:55:54.3	113.230	-0.030	0.250	1.930
2020/01/31 09:55:54.4	113.250	-0.050	0.310	1.920
2020/01/31 09:55:54.5	113.260	-0.070	0.370	1.910
2020/01/31 09:55:54.6	113.270	-0.090	0.420	1.880
2020/01/31 09:55:54.7	113.280	-0.120	0.470	1.860
2020/01/31 09:55:54.8	113.280	-0.140	0.510	1.830
2020/01/31 09:55:54.9	113.290	-0.150	0.550	1.800
2020/01/31 09:55:55.0	113.290	-0.170	0.580	1.760
2020/01/31 09:55:55.1	113.290	-0.190	0.610	1.720
2020/01/31 09:55:55.2	113.290	-0.210	0.630	1.680
2020/01/31 09:55:55.3	113.290	-0.220	0.640	1.640
2020/01/31 09:55:55.4	113.300	-0.240	0.650	1.590
2020/01/31 09:55:55.5	113.290	-0.250	0.650	1.540
2020/01/31 09:55:55.6	113.280	-0.260	0.640	1.490
2020/01/31 09:55:55.7	113.270	-0.270	0.630	1.440
2020/01/31 09:55:55.8	113.260	-0.280	0.610	1.390
2020/01/31 09:55:55.9	113.250	-0.280	0.580	1.340
2020/01/31 09:55:56.0	113.230	-0.280	0.550	1.280
2020/01/31 09:55:56.1	113.220	-0.280	0.510	1.230
2020/01/31 09:55:56.2	113.200	-0.280	0.470	1.170
2020/01/31 09:55:56.3	113.180	-0.270	0.420	1.120
2020/01/31 09:55:56.4	113.170	-0.270	0.360	1.060
2020/01/31 09:55:56.5	113.150	-0.260	0.300	1.010
2020/01/31 09:55:56.6	113.130	-0.240	0.240	0.950
2020/01/31 09:55:56.7	113.110	-0.230	0.180	0.900
2020/01/31 09:55:56.8	113.100	-0.220	0.110	0.840
2020/01/31 09:55:56.9	113.080	-0.200	0.040	0.790
2020/01/31 09:55:57.0	113.070	-0.180	-0.030	0.740
2020/01/31 09:55:57.1	113.060	-0.160	-0.110	0.680
2020/01/31 09:55:57.2	113.050	-0.140	-0.180	0.630
2020/01/31 09:55:57.3	113.040	-0.110	-0.250	0.580
2020/01/31 09:55:57.4	113.010	-0.090	-0.320	0.530
2020/01/31 09:55:57.5	113.010	-0.060	-0.380	0.480
2020/01/31 09:55:57.6	113.010	-0.040	-0.450	0.430
2020/01/31 09:55:57.7	113.010	-0.010	-0.510	0.380
2020/01/31 09:55:57.8	113.010	0.010	-0.570	0.330
2020/01/31 09:55:57.9	113.020	0.040	-0.630	0.290
2020/01/31 09:55:58.0	113.020	0.060	-0.680	0.250
2020/01/31 09:55:58.1	113.030	0.080	-0.720	0.200
2020/01/31 09:55:58.2	113.040	0.110	-0.760	0.160
2020/01/31 09:55:58.3	113.060	0.130	-0.800	0.130
2020/01/31 09:55:58.4	113.070	0.150	-0.830	0.090
2020/01/31 09:55:58.5	113.080	0.160	-0.850	0.050
2020/01/31 09:55:58.6	113.100	0.180	-0.870	0.020
2020/01/31 09:55:58.7	113.120	0.190	-0.880	-0.010
2020/01/31 09:55:58.8	113.140	0.210	-0.880	-0.050
2020/01/31 09:55:58.9	113.160	0.220	-0.880	-0.080
2020/01/31 09:55:59.0	113.180	0.220	-0.870	-0.110
2020/01/31 09:55:59.1	113.200	0.230	-0.860	-0.130
2020/01/31 09:55:59.2	113.230	0.230	-0.840	-0.160
2020/01/31 09:55:59.3	113.250	0.240	-0.820	-0.190
2020/01/31 09:55:59.4	113.260	0.230	-0.790	-0.220
2020/01/31 09:55:59.5	113.280	0.230	-0.750	-0.240
2020/01/31 09:55:59.6	113.300	0.230	-0.720	-0.270
2020/01/31 09:55:59.7	113.320	0.220	-0.670	-0.300
2020/01/31 09:55:59.8	113.340	0.210	-0.630	-0.320
2020/01/31 09:55:59.9	113.360	0.200	-0.580	-0.350
2020/01/31 09:56:00.0	113.380	0.190	-0.530	-0.370
2020/01/31 09:56:00.1	113.400	0.180	-0.470	-0.390
2020/01/31 09:56:00.2	113.410	0.160	-0.420	-0.420
2020/01/31 09:56:00.3	113.430	0.150	-0.360	-0.440
2020/01/31 09:56:00.4	113.420	0.130	-0.300	-0.460
2020/01/31 09:56:00.5	113.440	0.120	-0.240	-0.480
2020/01/31 09:56:00.6	113.450	0.100	-0.190	-0.500
2020/01/31 09:56:00.7	113.470	0.080	-0.130	-0.520
2020/01/31 09:56:00.8	113.480	0.060	-0.080	-0.540
2020/01/31 09:56:00.9	113.490	0.050	-0.020	-0.550
2020/01/31 09:56:01.0	113.500	0.030	0.030	-0.560
2020/01/31 09:56:01.1	113.520	0.010	0.080	-0.570
2020/01/31 09:56:01.2	113.530	-0.000	0.120	-0.580
2020/01/31 09:56:01.3	113.540	-0.020	0.170	-0.590
2020/01/31 09:56:01.4	113.550	-0.030	0.200	-0.590
2020/01/31 09:56:01.5	113.560	-0.050	0.240	-0.590
2020/01/31 09:56:01.6	113.570	-0.060	0.270	-0.580
2020/01/31 09:56:01.7	113.580	-0.070	0.300	-0.570
2020/01/31 09:56:01.8	113.590	-0.080	0.320	-0.550
2020/01/31 09:56:01.9	113.600	-0.090	0.340	-0.530
2020/01/31 09:56:02.0	113.600	-0.090	0.350	-0.510
2020/01/31 09:56:02.1	113.610	-0.100	0.360	-0.480
2020/01/31 09:56:02.2	113.610	-0.100	0.370	-0.440
2020/01/31 09:56:02.3	113.610	-0.100	0.360	-0.390
2020/01/31 09:56:02.4	113.610	-0.100	0.360	-0.340
2020/01/31 09:56:02.5	113.610	-0.090	0.350	-0.280
2020/01/31 09:56:02.6	113.600	-0.090	0.330	-0.220
2020/01/31 09:56:02.7	113.590	-0.080	0.310	-0.150
2020/01/31 09:56:02.8	113.580	-0.070	0.290	-0.080
2020/01/31 09:56:02.9	113.570	-0.060	0.270	-0.000
2020/01/31 09:56:03.0	113.560	-0.050	0.240	0.080
2020/01/31 09:56:03.1	113.550	-0.040	0.210	0.170
2020/01/31 09:56:03.2	113.530	-0.020	0.170	0.260
2020/01/31 09:56:03.3	113.520	-0.010	0.140	0.350
2020/01/31 09:56:03.4	113.490	0.000	0.100	0.450
2020/01/31 09:56:03.5	113.480	0.020	0.060	0.550
2020/01/31 09:56:03.6	113.460	0.040	0.020	0.650
2020/01/31 09:56:03.7	113.440	0.050	-0.010	0.740
2020/01/31 09:56:03.8	113.430	0.070	-0.050	0.840
2020/01/31 09:56:03.9	113.410	0.080	-0.090	0.940
2020/01/31 09:56:04.0	113.400	0.100	-0.120	1.030
2020/01/31 09:56:04.1	113.380	0.110	-0.160	1.120
2020/01/31 09:56:04.2	113.370	0.130	-0.190	1.210
2020/01/31 09:56:04.3	113.360	0.140	-0.220	1.290
2020/01/31 09:56:04.4	113.360	0.150	-0.240	1.370
2020/01/31 09:56:04.5	113.350	0.170	-0.270	1.450
2020/01/31 09:56:04.6	113.350	0.180	-0.290	1.520
2020/01/31 09:56:04.7	113.340	0.180	-0.310	1.580
2020/01/31 09:56:04.8	113.340	0.190	-0.330	1.650
2020/01/31 09:56:04.9	113.340	0.200	-0.350	1.700
2020/01/31 09:56:05.0	113.340	0.200	-0.370	1.750
2020/01/31 09:56:05.1	113.350	0.210	-0.380	1.800
2020/01/31 09:56:05.2	113.350	0.210	-0.400	1.840
2020/01/31 09:56:05.3	113.360	0.210	-0.410	1.870
2020/01/31 09:56:05.4	113.380	0.210	-0.410	1.900
2020/01/31 09:56:05.5	113.390	0.210	-0.420	1.930
2020/01/31 09:56:05.6	113.390	0.210	-0.430	1.950
2020/01/31 09:56:05.7	113.400	0.210	-0.430	1.970
2020/01/31 09:56:05.8	113.410	0.210	-0.440	1.980
2020/01/31 09:56:05.9	113.410	0.200	-0.450	1.990
2020/01/31 09:56:06.0	113.420	0.200	-0.450	2.000
2020/01/31 09:56:06.1	113.430	0.190	-0.450	2.000
2020/01/31 09:56:06.2	113.430	0.190	-0.460	2.000
2020/01/31 09:56:06.3	113.440	0.180	-0.460	2.000
2020/01/31 09:56:06.4	113.460	0.170	-0.460	2.000
2020/01/31 09:56:06.5	113.470	0.160	-0.460	2.000
2020/01/31 09:56:06.6	113.470	0.150	-0.460	1.990
2020/01/31 09:56:06.7	113.470	0.140	-0.460	1.990
2020/01/31 09:56:06.8	113.470	0.130	-0.460	1.980
2020/01/31 09:56:06.9	113.470	0.120	-0.460	1.980
2020/01/31 09:56:07.0	113.480	0.110	-0.450	1.970
2020/01/31 09:56:07.1	113.480	0.100	-0.450	1.970
2020/01/31 09:56:07.2	113.470	0.090	-0.440	1.960
2020/01/31 09:56:07.3	113.470	0.070	-0.430	1.960
2020/01/31 09:56:07.4	113.480	0.060	-0.420	1.950
2020/01/31 09:56:07.5	113.480	0.040	-0.400	1.950
2020/01/31 09:56:07.6	113.480	0.020	-0.390	1.950
2020/01/31 09:56:07.7	113.480	0.010	-0.370	1.940
2020/01/31 09:56:07.8	113.480	-0.010	-0.350	1.940
2020/01/31 09:56:07.9	113.480	-0.030	-0.320	1.930
2020/01/31 09:56:08.0	113.480	-0.050	-0.300	1.920
2020/01/31 09:56:08.1	113.480	-0.070	-0.270	1.910
2020/01/31 09:56:08.2	113.480	-0.090	-0.240	1.900
2020/01/31 09:56:08.3	113.480	-0.110	-0.200	1.890
2020/01/31 09:56:08.4	113.480	-0.130	-0.170	1.880
2020/01/31 09:56:08.5	113.480	-0.150	-0.140	1.870
2020/01/31 09:56:08.6	113.490	-0.170	-0.100	1.850
2020/01/31 09:56:08.7	113.490	-0.190	-0.060	1.830
2020/01/31 09:56:08.8	113.500	-0.210	-0.030	1.810
2020/01/31 09:56:08.9	113.500	-0.230	0.010	1.780
2020/01/31 09:56:09.0	113.510	-0.250	0.040	1.750
2020/01/31 09:56:09.1	113.520	-0.260	0.080	1.720
2020/01/31 09:56:09.2	113.530	-0.280	0.110	1.690
2020/01/31 09:56:09.3	113.540	-0.300	0.140	1.660
2020/01/31 09:56:09.4	113.560	-0.320	0.170	1.620
2020/01/31 09:56:09.5	113.570	-0.330	0.190	1.580
2020/01/31 09:56:09.6	113.590	-0.350	0.210	1.540
2020/01/31 09:56:09.7	113.600	-0.360	0.230	1.490
2020/01/31 09:56:09.8	113.610	-0.370	0.250	1.450
2020/01/31 09:56:09.9	113.630	-0.380	0.260	1.400
2020/01/31 09:56:10.0	113.640	-0.390	0.260	1.350
2020/01/31 09:56:10.1	113.660	-0.400	0.270	1.300
2020/01/31 09:56:10.2	113.670	-0.400	0.270	1.250
2020/01/31 09:56:10.3	113.690	-0.400	0.260	1.200
2020/01/31 09:56:10.4	113.690	-0.410	0.250	1.140
2020/01/31 09:56:10.5	113.710	-0.410	0.240	1.090
2020/01/31 09:56:10.6	113.720	-0.400	0.220	1.040
2020/01/31 09:56:10.7	113.730	-0.400	0.200	0.990
2020/01/31 09:56:10.8	113.730	-0.390	0.170	0.930
2020/01/31 09:56:10.9	113.740	-0.390	0.140	0.880
2020/01/31 09:56:11.0	113.750	-0.380	0.110	0.830
2020/01/31 09:56:11.1	113.750	-0.370	0.080	0.780
2020/01/31 09:56:11.2	113.750	-0.360	0.040	0.720
2020/01/31 09:56:11.3	113.750	-0.340	0.000	0.670
2020/01/31 09:56:11.4	113.740	-0.330	-0.040	0.620
2020/01/31 09:56:11.5	113.740	-0.310	-0.080	0.570
2020/01/31 09:56:11.6	113.740	-0.290	-0.120	0.520
2020/01/31 09:56:11.7	113.730	-0.270	-0.160	0.460
2020/01/31 09:56:11.8	113.730	-0.250	-0.200	0.410
2020/01/31 09:56:11.9	113.730	-0.230	-0.240	0.360
2020/01/31 09:56:12.0	113.730	-0.210	-0.280	0.310
2020/01/31 09:56:12.1	113.720	-0.190	-0.320	0.260
2020/01/31 09:56:12.2	113.720	-0.170	-0.350	0.210
2020/01/31 09:56:12.3	113.720	-0.150	-0.380	0.160
2020/01/31 09:56:12.4	113.700	-0.120	-0.410	0.110
2020/01/31 09:56:12.5	113.690	-0.100	-0.440	0.070
2020/01/31 09:56:12.6	113.690	-0.080	-0.460	0.020
2020/01/31 09:56:12.7	113.680	-0.050	-0.480	-0.020
2020/01/31 09:56:12.8	113.680	-0.030	-0.500	-0.060
2020/01/31 09:56:12.9	113.670	-0.010	-0.520	-0.100
2020/01/31 09:56:13.0	113.670	0.020	-0.530	-0.140
2020/01/31 09:56:13.1	113.660	0.040	-0.530	-0.180
2020/01/31 09:56:13.2	113.660	0.060	-0.540	-0.220
2020/01/31 09:56:13.3	113.650	0.080	-0.540	-0.250
2020/01/31 09:56:13.4	113.630	0.100	-0.540	-0.280
2020/01/31 09:56:13.5	113.630	0.120	-0.530	-0.310
2020/01/31 09:56:13.6	113.620	0.150	-0.530	-0.330
2020/01/31 09:56:13.7	113.620	0.170	-0.520	-0.360
2020/01/31 09:56:13.8	113.610	0.180	-0.510	-0.380
2020/01/31 09:56:13.9	113.600	0.200	-0.500	-0.400
2020/01/31 09:56:14.0	113.590	0.220	-0.480	-0.420
2020/01/31 09:56:14.1	113.590	0.240	-0.470	-0.430
2020/01/31 09:56:14.2	113.580	0.250	-0.450	-0.450
2020/01/31 09:56:14.3	113.570	0.270	-0.430	-0.460
2020/01/31 09:56:14.4	113.560	0.280	-0.410	-0.470
2020/01/31 09:56:14.5	113.550	0.300	-0.390	-0.480
2020/01/31 09:56:14.6	113.540	0.310	-0.370	-0.490
2020/01/31 09:56:14.7	113.540	0.320	-0.350	-0.490
2020/01/31 09:56:14.8	113.530	0.330	-0.330	-0.500
2020/01/31 09:56:14.9	113.530	0.340	-0.310	-0.500
2020/01/31 09:56:15.0	113.530	0.340	-0.290	-0.510
2020/01/31 09:56:15.1	113.530	0.350	-0.270	-0.510
2020/01/31 09:56:15.2	113.530	0.350	-0.250	-0.520
2020/01/31 09:56:15.3	113.540	0.360	-0.230	-0.520
2020/01/31 09:56:15.4	113.540	0.360	-0.210	-0.530
2020/01/31 09:56:15.5	113.550	0.360	-0.180	-0.530
2020/01/31 09:56:15.6	113.560	0.360	-0.170	-0.540
2020/01/31 09:56:15.7	113.580	0.360	-0.150	-0.540
2020/01/31 09:56:15.8	113.590	0.360	-0.130	-0.540
2020/01/31 09:56:15.9	113.610	0.350	-0.110	-0.550
2020/01/31 09:56:16.0	113.630	0.350	-0.090	-0.550
2020/01/31 09:56:16.1	113.660	0.340	-0.070	-0.550
2020/01/31 09:56:16.2	113.680	0.330	-0.050	-0.550
2020/01/31 09:56:16.3	113.700	0.330	-0.040	-0.550
2020/01/31 09:56:16.4	113.720	0.320	-0.020	-0.550
2020/01/31 09:56:16.5	113.740	0.310	-0.000	-0.540
2020/01/31 09:56:16.6	113.770	0.300	0.020	-0.530
2020/01/31 09:56:16.7	113.800	0.290	0.030	-0.520
2020/01/31 09:56:16.8	113.830	0.280	0.050	-0.510
2020/01/31 09:56:16.9	113.860	0.270	0.070	-0.490
2020/01/31 09:56:17.0	113.880	0.250	0.080	-0.470
2020/01/31 09:56:17.1	113.910	0.240	0.100	-0.450
2020/01/31 09:56:17.2	113.930	0.230	0.110	-0.420
2020/01/31 09:56:17.3	113.950	0.220	0.130	-0.380
2020/01/31 09:56:17.4	113.990	0.210	0.140	-0.340
2020/01/31 09:56:17.5	114.010	0.190	0.150	-0.300
2020/01/31 09:56:17.6	114.020	0.180	0.160	-0.250
2020/01/31 09:56:17.7	114.030	0.170	0.170	-0.210
2020/01/31 09:56:17.8	114.040	0.160	0.170	-0.150
2020/01/31 09:56:17.9	114.040	0.150	0.170	-0.090
2020/01/31 09:56:18.0	114.040	0.140	0.170	-0.030
2020/01/31 09:56:18.1	114.040	0.130	0.170	0.030
2020/01/31 09:56:18.2	114.030	0.120	0.160	0.100
2020/01/31 09:56:18.3	114.020	0.120	0.150	0.170
2020/01/31 09:56:18.4	114.000	0.110	0.140	0.240
2020/01/31 09:56:18.5	113.990	0.100	0.120	0.310
2020/01/31 09:56:18.6	113.970	0.090	0.100	0.380
2020/01/31 09:56:18.7	113.960	0.090	0.080	0.450
2020/01/31 09:56:18.8	113.940	0.080	0.060	0.530
2020/01/31 09:56:18.9	113.920	0.070	0.040	0.600
2020/01/31 09:56:19.0	113.900	0.070	0.010	0.670
2020/01/31 09:56:19.1	113.880	0.060	-0.020	0.740
2020/01/31 09:56:19.2	113.860	0.050	-0.050	0.810
2020/01/31 09:56:19.3	113.850	0.050	-0.080	0.870
2020/01/31 09:56:19.4	113.820	0.040	-0.110	0.940
2020/01/31 09:56:19.5	113.810	0.030	-0.140	1.000
2020/01/31 09:56:19.6	113.790	0.020	-0.170	1.060
2020/01/31 09:56:19.7	113.780	0.020	-0.200	1.120
2020/01/31 09:56:19.8	113.770	0.010	-0.240	1.180
2020/01/31 09:56:19.9	113.760	-0.000	-0.270	1.240
2020/01/31 09:56:20.0	113.750	-0.010	-0.300	1.290
2020/01/31 09:56:20.1	113.750	-0.020	-0.330	1.340
2020/01/31 09:56:20.2	113.750	-0.030	-0.350	1.400
2020/01/31 09:56:20.3	113.740	-0.040	-0.380	1.450
2020/01/31 09:56:20.4	113.740	-0.050	-0.400	1.500
2020/01/31 09:56:20.5	113.740	-0.060	-0.420	1.540
2020/01/31 09:56:20.6	113.750	-0.080	-0.440	1.590
2020/01/31 09:56:20.7	113.750	-0.090	-0.460	1.630
2020/01/31 09:56:20.8	113.760	-0.100	-0.470	1.670
2020/01/31 09:56:20.9	113.770	-0.110	-0.480	1.710
2020/01/31 09:56:21.0	113.770	-0.120	-0.490	1.750
2020/01/31 09:56:21.1	113.790	-0.140	-0.490	1.790
2020/01/31 09:56:21.2	113.800	-0.150	-0.490	1.820
2020/01/31 09:56:21.3	113.810	-0.160	-0.490	1.850
2020/01/31 09:56:21.4	113.840	-0.170	-0.480	1.880
2020/01/31 09:56:21.5	113.850	-0.180	-0.470	1.910
2020/01/31 09:56:21.6	113.870	-0.190	-0.450	1.940
2020/01/31 09:56:21.7	113.890	-0.200	-0.440	1.960
2020/01/31 09:56:21.8	113.910	-0.220	-0.420	1.980
2020/01/31 09:56:21.9	113.940	-0.230	-0.400	2.000
2020/01/31 09:56:22.0	113.960	-0.240	-0.370	2.010
2020/01/31 09:56:22.1	113.990	-0.250	-0.340	2.020
2020/01/31 09:56:22.2	114.010	-0.260	-0.310	2.030
2020/01/31 09:56:22.3	114.040	-0.270	-0.280	2.030
2020/01/31 09:56:22.4	114.090	-0.270	-0.260	2.040
2020/01/31 09:56:22.5	114.120	-0.280	-0.220	2.040
2020/01/31 09:56:22.6	114.150	-0.290	-0.190	2.030
2020/01/31 09:56:22.7	114.180	-0.300	-0.160	2.030
2020/01/31 09:56:22.8	114.220	-0.300	-0.130	2.020
2020/01/31 09:56:22.9	114.250	-0.310	-0.100	2.010
2020/01/31 09:56:23.0	114.280	-0.310	-0.070	2.000
2020/01/31 09:56:23.1	114.310	-0.320	-0.040	1.980
2020/01/31 09:56:23.2	114.340	-0.320	-0.010	1.970
2020/01/31 09:56:23.3	114.370	-0.320	0.010	1.950
2020/01/31 09:56:23.4	114.410	-0.320	0.040	1.930
2020/01/31 09:56:23.5	114.440	-0.320	0.050	1.910
2020/01/31 09:56:23.6	114.460	-0.320	0.070	1.890
2020/01/31 09:56:23.7	114.480	-0.310	0.080	1.860
2020/01/31 09:56:23.8	114.510	-0.310	0.090	1.840
2020/01/31 09:56:23.9	114.530	-0.300	0.090	1.820
2020/01/31 09:56:24.0	114.540	-0.290	0.100	1.790
2020/01/31 09:56:24.1	114.560	-0.290	0.090	1.770
2020/01/31 09:56:24.2	114.570	-0.270	0.090	1.740
2020/01/31 09:56:24.3	114.580	-0.260	0.070	1.720
2020/01/31 09:56:24.4	114.600	-0.250	0.060	1.690
2020/01/31 09:56:24.5	114.610	-0.230	0.040	1.660
2020/01/31 09:56:24.6	114.610	-0.220	0.020	1.630
2020/01/31 09:56:24.7	114.610	-0.200	-0.010	1.610
2020/01/31 09:56:24.8	114.610	-0.180	-0.040	1.580
2020/01/31 09:56:24.9	114.600	-0.160	-0.070	1.550
2020/01/31 09:56:25.0	114.590	-0.140	-0.100	1.520
2020/01/31 09:56:25.1	114.580	-0.120	-0.130	1.500
2020/01/31 09:56:25.2	114.570	-0.100	-0.170	1.470
2020/01/31 09:56:25.3	114.550	-0.080	-0.210	1.450
2020/01/31 09:56:25.4	114.540	-0.050	-0.240	1.420
2020/01/31 09:56:25.5	114.520	-0.030	-0.280	1.390
2020/01/31 09:56:25.6	114.490	-0.010	-0.310	1.370
2020/01/31 09:56:25.7	114.470	0.010	-0.350	1.350
2020/01/31 09:56:25.8	114.440	0.030	-0.380	1.320
2020/01/31 09:56:25.9	114.410	0.060	-0.410	1.300
2020/01/31 09:56:26.0	114.370	0.080	-0.440	1.280
2020/01/31 09:56:26.1	114.340	0.090	-0.460	1.250
2020/01/31 09:56:26.2	114.310	0.110	-0.480	1.230
2020/01/31 09:56:26.3	114.280	0.130	-0.490	1.210
2020/01/31 09:56:26.4	114.240	0.140	-0.500	1.180
2020/01/31 09:56:26.5	114.200	0.150	-0.510	1.150
2020/01/31 09:56:26.6	114.170	0.160	-0.510	1.120
2020/01/31 09:56:26.7	114.140	0.170	-0.500	1.090
2020/01/31 09:56:26.8	114.110	0.180	-0.490	1.060
2020/01/31 09:56:26.9	114.080	0.180	-0.480	1.020
2020/01/31 09:56:27.0	114.050	0.190	-0.460	0.980
2020/01/31 09:56:27.1	114.020	0.190	-0.430	0.940
2020/01/31 09:56:27.2	114.000	0.180	-0.400	0.900
2020/01/31 09:56:27.3	113.980	0.180	-0.370	0.850
2020/01/31 09:56:27.4	113.950	0.170	-0.330	0.800
2020/01/31 09:56:27.5	113.940	0.170	-0.290	0.750
2020/01/31 09:56:27.6	113.920	0.160	-0.250	0.700
2020/01/31 09:56:27.7	113.910	0.150	-0.200	0.640
2020/01/31 09:56:27.8	113.900	0.130	-0.150	0.580
2020/01/31 09:56:27.9	113.890	0.120	-0.110	0.520
2020/01/31 09:56:28.0	113.890	0.110	-0.060	0.460
2020/01/31 09:56:28.1	113.880	0.090	-0.010	0.400
2020/01/31 09:56:28.2	113.880	0.080	0.040	0.340
2020/01/31 09:56:28.3	113.890	0.060	0.080	0.270
2020/01/31 09:56:28.4	113.890	0.050	0.130	0.210
2020/01/31 09:56:28.5	113.890	0.040	0.170	0.140
2020/01/31 09:56:28.6	113.900	0.020	0.200	0.080
2020/01/31 09:56:28.7	113.910	0.010	0.230	0.010
2020/01/31 09:56:28.8	113.930	-0.000	0.260	-0.050
2020/01/31 09:56:28.9	113.940	-0.010	0.280	-0.110
2020/01/31 09:56:29.0	113.960	-0.020	0.300	-0.170
2020/01/31 09:56:29.1	113.980	-0.030	0.320	-0.230
2020/01/31 09:56:29.2	114.000	-0.030	0.320	-0.290
2020/01/31 09:56:29.3	114.020	-0.030	0.320	-0.350
2020/01/31 09:56:29.4	114.020	-0.030	0.310	-0.410
2020/01/31 09:56:29.5	114.040	-0.030	0.310	-0.460
2020/01/31 09:56:29.6	114.060	-0.030	0.290	-0.510
2020/01/31 09:56:29.7	114.090	-0.020	0.270	-0.550
2020/01/31 09:56:29.8	114.120	-0.010	0.240	-0.600
2020/01/31 09:56:29.9	114.140	0.000	0.210	-0.640
2020/01/31 09:56:30.0	114.170	0.010	0.170	-0.670
2020/01/31 09:56:30.1	114.200	0.030	0.130	-0.700
2020/01/31 09:56:30.2	114.220	0.050	0.090	-0.730
2020/01/31 09:56:30.3	114.250	0.070	0.040	-0.760
2020/01/31 09:56:30.4	114.250	0.090	-0.010	-0.780
2020/01/31 09:56:30.5	114.270	0.120	-0.070	-0.790
2020/01/31 09:56:30.6	114.300	0.140	-0.120	-0.800
2020/01/31 09:56:30.7	114.320	0.170	-0.180	-0.810
2020/01/31 09:56:30.8	114.330	0.190	-0.240	-0.810
2020/01/31 09:56:30.9	114.350	0.220	-0.300	-0.810
2020/01/31 09:56:31.0	114.360	0.250	-0.360	-0.810
2020/01/31 09:56:31.1	114.370	0.280	-0.420	-0.790
2020/01/31 09:56:31.2	114.380	0.300	-0.480	-0.780
2020/01/31 09:56:31.3	114.390	0.330	-0.530	-0.760
2020/01/31 09:56:31.4	114.400	0.350	-0.580	-0.730
2020/01/31 09:56:31.5	114.400	0.380	-0.630	-0.710
2020/01/31 09:56:31.6	114.410	0.400	-0.670	-0.680
2020/01/31 09:56:31.7	114.410	0.410	-0.710	-0.640
2020/01/31 09:56:31.8	114.410	0.430	-0.750	-0.610
2020/01/31 09:56:31.9	114.410	0.440	-0.770	-0.570
2020/01/31 09:56:32.0	114.400	0.450	-0.800	-0.530
2020/01/31 09:56:32.1	114.400	0.460	-0.810	-0.480
2020/01/31 09:56:32.2	114.400	0.460	-0.820	-0.430
2020/01/31 09:56:32.3	114.390	0.460	-0.820	-0.380
2020/01/31 09:56:32.4	114.390	0.450	-0.820	-0.320
2020/01/31 09:56:32.5	114.390	0.440	-0.800	-0.260
2020/01/31 09:56:32.6	114.380	0.420	-0.780	-0.200
2020/01/31 09:56:32.7	114.370	0.400	-0.750	-0.140
2020/01/31 09:56:32.8	114.370	0.380	-0.720	-0.070
2020/01/31 09:56:32.9	114.360	0.350	-0.680	-0.000
2020/01/31 09:56:33.0	114.350	0.320	-0.630	0.070
2020/01/31 09:56:33.1	114.340	0.280	-0.580	0.150
2020/01/31 09:56:33.2	114.330	0.240	-0.520	0.220
2020/01/31 09:56:33.3	114.310	0.200	-0.460	0.310
2020/01/31 09:56:33.4	114.310	0.160	-0.390	0.390
2020/01/31 09:56:33.5	114.300	0.110	-0.320	0.480
2020/01/31 09:56:33.6	114.280	0.060	-0.250	0.570
2020/01/31 09:56:33.7	114.260	0.010	-0.180	0.660
2020/01/31 09:56:33.8	114.250	-0.040	-0.100	0.760
2020/01/31 09:56:33.9	114.230	-0.100	-0.030	0.850
2020/01/31 09:56:34.0	114.210	-0.150	0.050	0.950
2020/01/31 09:56:34.1	114.190	-0.200	0.120	1.050
2020/01/31 09:56:34.2	114.170	-0.250	0.190	1.150
2020/01/31 09:56:34.3	114.150	-0.300	0.260	1.250
2020/01/31 09:56:34.4	114.120	-0.350	0.330	1.360
2020/01/31 09:56:34.5	114.100	-0.400	0.390	1.460
2020/01/31 09:56:34.6	114.080	-0.450	0.440	1.560
2020/01/31 09:56:34.7	114.060	-0.490	0.500	1.660
2020/01/31 09:56:34.8	114.040	-0.530	0.540	1.750
2020/01/31 09:56:34.9	114.020	-0.560	0.580	1.850
2020/01/31 09:56:35.0	114.000	-0.590	0.610	1.940
2020/01/31 09:56:35.1	113.980	-0.620	0.640	2.030
2020/01/31 09:56:35.2	113.960	-0.640	0.660	2.120
2020/01/31 09:56:35.3	113.950	-0.660	0.670	2.200
2020/01/31 09:56:35.4	113.930	-0.670	0.670	2.270
2020/01/31 09:56:35.5	113.910	-0.680	0.660	2.340
2020/01/31 09:56:35.6	113.900	-0.680	0.650	2.410
2020/01/31 09:56:35.7	113.880	-0.670	0.630	2.470
2020/01/31 09:56:35.8	113.870	-0.670	0.600	2.530
2020/01/31 09:56:35.9	113.860	-0.650	0.570	2.580
2020/01/31 09:56:36.0	113.850	-0.630	0.530	2.630
2020/01/31 09:56:36.1	113.840	-0.610	0.480	2.670
2020/01/31 09:56:36.2	113.830	-0.580	0.420	2.710
2020/01/31 09:56:36.3	113.820	-0.550	0.360	2.740
2020/01/31 09:56:36.4	113.810	-0.510	0.290	2.760
2020/01/31 09:56:36.5	113.800	-0.470	0.220	2.780
2020/01/31 09:56:36.6	113.790	-0.430	0.140	2.800
2020/01/31 09:56:36.7	113.790	-0.390	0.060	2.810
2020/01/31 09:56:36.8	113.780	-0.340	-0.020	2.810
2020/01/31 09:56:36.9	113.780	-0.290	-0.100	2.810
2020/01/31 09:56:37.0	113.770	-0.230	-0.190	2.800
2020/01/31 09:56:37.1	113.770	-0.180	-0.270	2.790
2020/01/31 09:56:37.2	113.770	-0.130	-0.360	2.770
2020/01/31 09:56:37.3	113.770	-0.070	-0.440	2.740
2020/01/31 09:56:37.4	113.780	-0.020	-0.520	2.710
2020/01/31 09:56:37.5	113.780	0.040	-0.600	2.670
2020/01/31 09:56:37.6	113.780	0.090	-0.670	2.630
2020/01/31 09:56:37.7	113.790	0.140	-0.740	2.590
2020/01/31 09:56:37.8	113.800	0.190	-0.810	2.540
2020/01/31 09:56:37.9	113.800	0.240	-0.860	2.480
2020/01/31 09:56:38.0	113.820	0.280	-0.910	2.420
2020/01/31 09:56:38.1	113.830	0.320	-0.960	2.360
2020/01/31 09:56:38.2	113.850	0.360	-1.000	2.290
2020/01/31 09:56:38.3	113.860	0.390	-1.020	2.210
2020/01/31 09:56:38.4	113.900	0.420	-1.050	2.140
2020/01/31 09:56:38.5	113.920	0.450	-1.060	2.060
2020/01/31 09:56:38.6	113.950	0.470	-1.060	1.970
2020/01/31 09:56:38.7	113.970	0.480	-1.060	1.890
2020/01/31 09:56:38.8	114.000	0.500	-1.050	1.800
2020/01/31 09:56:38.9	114.030	0.500	-1.030	1.710
2020/01/31 09:56:39.0	114.060	0.510	-1.000	1.620
2020/01/31 09:56:39.1	114.090	0.510	-0.960	1.530
2020/01/31 09:56:39.2	114.120	0.500	-0.920	1.440
2020/01/31 09:56:39.3	114.160	0.490	-0.870	1.350
2020/01/31 09:56:39.4	114.190	0.480	-0.810	1.260
2020/01/31 09:56:39.5	114.220	0.460	-0.750	1.170
2020/01/31 09:56:39.6	114.250	0.450	-0.680	1.080
2020/01/31 09:56:39.7	114.280	0.420	-0.610	1.000
2020/01/31 09:56:39.8	114.310	0.400	-0.530	0.910
2020/01/31 09:56:39.9	114.340	0.370	-0.450	0.830
2020/01/31 09:56:40.0	114.370	0.340	-0.370	0.750
2020/01/31 09:56:40.1	114.390	0.310	-0.290	0.670
2020/01/31 09:56:40.2	114.410	0.280	-0.200	0.590
2020/01/31 09:56:40.3	114.430	0.240	-0.120	0.520
2020/01/31 09:56:40.4	114.450	0.210	-0.030	0.450
2020/01/31 09:56:40.5	114.460	0.170	0.050	0.380
2020/01/31 09:56:40.6	114.480	0.140	0.130	0.320
2020/01/31 09:56:40.7	114.480	0.100	0.200	0.260
2020/01/31 09:56:40.8	114.490	0.070	0.280	0.200
2020/01/31 09:56:40.9	114.490	0.030	0.350	0.140
2020/01/31 09:56:41.0	114.490	0.000	0.410	0.090
2020/01/31 09:56:41.1	114.490	-0.030	0.470	0.040
2020/01/31 09:56:41.2	114.480	-0.060	0.520	-0.010
2020/01/31 09:56:41.3	114.480	-0.090	0.570	-0.050
2020/01/31 09:56:41.4	114.450	-0.120	0.610	-0.090
2020/01/31 09:56:41.5	114.440	-0.140	0.640	-0.130
2020/01/31 09:56:41.6	114.430	-0.170	0.670	-0.170
2020/01/31 09:56:41.7	114.410	-0.190	0.700	-0.200
2020/01/31 09:56:41.8	114.400	-0.210	0.710	-0.240
2020/01/31 09:56:41.9	114.380	-0.220	0.720	-0.270
2020/01/31 09:56:42.0	114.360	-0.240	0.730	-0.300
2020/01/31 09:56:42.1	114.340	-0.250	0.720	-0.330
2020/01/31 09:56:42.2	114.320	-0.260	0.710	-0.360
2020/01/31 09:56:42.3	114.300	-0.270	0.700	-0.380
2020/01/31 09:56:42.4	114.270	-0.280	0.680	-0.410
2020/01/31 09:56:42.5	114.250	-0.290	0.650	-0.430
2020/01/31 09:56:42.6	114.230	-0.290	0.620	-0.450
2020/01/31 09:56:42.7	114.210	-0.290	0.580	-0.470
2020/01/31 09:56:42.8	114.180	-0.290	0.540	-0.490
2020/01/31 09:56:42.9	114.160	-0.290	0.490	-0.510
2020/01/31 09:56:43.0	114.140	-0.290	0.440	-0.520
2020/01/31 09:56:43.1	114.110	-0.290	0.380	-0.530
2020/01/31 09:56:43.2	114.090	-0.280	0.320	-0.540
2020/01/31 09:56:43.3	114.060	-0.270	0.260	-0.550
2020/01/31 09:56:43.4	114.020	-0.260	0.190	-0.560
2020/01/31 09:56:43.5	114.000	-0.250	0.120	-0.570
2020/01/31 09:56:43.6	113.980	-0.240	0.050	-0.570
2020/01/31 09:56:43.7	113.960	-0.230	-0.020	-0.560
2020/01/31 09:56:43.8	113.940	-0.220	-0.100	-0.560
2020/01/31 09:56:43.9	113.920	-0.210	-0.180	-0.550
2020/01/31 09:56:44.0	113.900	-0.190	-0.250	-0.540
2020/01/31 09:56:44.1	113.880	-0.180	-0.330	-0.530
2020/01/31 09:56:44.2	113.860	-0.160	-0.410	-0.520
2020/01/31 09:56:44.3	113.850	-0.150	-0.490	-0.500
2020/01/31 09:56:44.4	113.830	-0.130	-0.560	-0.490
2020/01/31 09:56:44.5	113.820	-0.110	-0.640	-0.470
2020/01/31 09:56:44.6	113.810	-0.100	-0.710	-0.450
2020/01/31 09:56:44.7	113.810	-0.080	-0.780	-0.430
2020/01/31 09:56:44.8	113.810	-0.060	-0.840	-0.410
2020/01/31 09:56:44.9	113.810	-0.050	-0.910	-0.390
2020/01/31 09:56:45.0	113.810	-0.030	-0.960	-0.370
2020/01/31 09:56:45.1	113.820	-0.010	-1.020	-0.350
2020/01/31 09:56:45.2	113.830	0.000	-1.060	-0.330
2020/01/31 09:56:45.3	113.850	0.020	-1.110	-0.310
2020/01/31 09:56:45.4	113.870	0.030	-1.140	-0.300
2020/01/31 09:56:45.5	113.890	0.050	-1.170	-0.280
2020/01/31 09:56:45.6	113.910	0.060	-1.190	-0.260
2020/01/31 09:56:45.7	113.940	0.080	-1.210	-0.240
2020/01/31 09:56:45.8	113.970	0.090	-1.220	-0.230
2020/01/31 09:56:45.9	114.000	0.100	-1.220	-0.210
2020/01/31 09:56:46.0	114.030	0.110	-1.220	-0.190
2020/01/31 09:56:46.1	114.060	0.120	-1.210	-0.170
2020/01/31 09:56:46.2	114.100	0.130	-1.190	-0.150
2020/01/31 09:56:46.3	114.130	0.140	-1.160	-0.120
2020/01/31 09:56:46.4	114.170	0.150	-1.130	-0.090
2020/01/31 09:56:46.5	114.200	0.150	-1.100	-0.070
2020/01/31 09:56:46.6	114.240	0.160	-1.050	-0.040
2020/01/31 09:56:46.7	114.270	0.160	-1.010	-0.010
2020/01/31 09:56:46.8	114.300	0.160	-0.950	0.030
2020/01/31 09:56:46.9	114.330	0.160	-0.890	0.060
2020/01/31 09:56:47.0	114.370	0.160	-0.830	0.100
2020/01/31 09:56:47.1	114.400	0.160	-0.760	0.140
2020/01/31 09:56:47.2	114.430	0.160	-0.690	0.180
2020/01/31 09:56:47.3	114.450	0.150	-0.620	0.220
2020/01/31 09:56:47.4	114.480	0.150	-0.540	0.270
2020/01/31 09:56:47.5	114.510	0.140	-0.460	0.320
2020/01/31 09:56:47.6	114.530	0.130	-0.380	0.360
2020/01/31 09:56:47.7	114.560	0.130	-0.290	0.410
2020/01/31 09:56:47.8	114.580	0.120	-0.210	0.460
2020/01/31 09:56:47.9	114.610	0.100	-0.120	0.510
2020/01/31 09:56:48.0	114.630	0.090	-0.040	0.560
2020/01/31 09:56:48.1	114.650	0.080	0.050	0.600
2020/01/31 09:56:48.2	114.670	0.070	0.130	0.650
2020/01/31 09:56:48.3	114.700	0.050	0.210	0.700
2020/01/31 09:56:48.4	114.720	0.040	0.290	0.750
2020/01/31 09:56:48.5	114.740	0.030	0.370	0.790
2020/01/31 09:56:48.6	114.760	0.010	0.450	0.840
2020/01/31 09:56:48.7	114.780	-0.010	0.520	0.880
2020/01/31 09:56:48.8	114.800	-0.020	0.590	0.920
2020/01/31 09:56:48.9	114.820	-0.040	0.650	0.960
2020/01/31 09:56:49.0	114.830	-0.050	0.710	1.000
2020/01/31 09:56:49.1	114.850	-0.070	0.770	1.040
2020/01/31 09:56:49.2	114.870	-0.080	0.820	1.070
2020/01/31 09:56:49.3	114.880	-0.100	0.860	1.100
2020/01/31 09:56:49.4	114.910	-0.110	0.900	1.130
2020/01/31 09:56:49.5	114.920	-0.120	0.940	1.160
2020/01/31 09:56:49.6	114.930	-0.130	0.960	1.190
2020/01/31 09:56:49.7	114.940	-0.150	0.980	1.220
2020/01/31 09:56:49.8	114.950	-0.160	1.000	1.250
2020/01/31 09:56:49.9	114.960	-0.160	1.010	1.280
2020/01/31 09:56:50.0	114.960	-0.170	1.010	1.300
2020/01/31 09:56:50.1	114.970	-0.170	1.000	1.330
2020/01/31 09:56:50.2	114.970	-0.180	0.990	1.350
2020/01/31 09:56:50.3	114.970	-0.180	0.970	1.380
2020/01/31 09:56:50.4	114.970	-0.180	0.940	1.410
2020/01/31 09:56:50.5	114.960	-0.180	0.910	1.430
2020/01/31 09:56:50.6	114.960	-0.170	0.870	1.460
2020/01/31 09:56:50.7	114.950	-0.160	0.820	1.490
2020/01/31 09:56:50.8	114.940	-0.150	0.770	1.520
2020/01/31 09:56:50.9	114.930	-0.140	0.710	1.550
2020/01/31 09:56:51.0	114.920	-0.130	0.640	1.580
2020/01/31 09:56:51.1	114.900	-0.110	0.570	1.610
2020/01/31 09:56:51.2	114.880	-0.090	0.500	1.650
2020/01/31 09:56:51.3	114.860	-0.070	0.420	1.680
2020/01/31 09:56:51.4	114.850	-0.050	0.340	1.710
2020/01/31 09:56:51.5	114.830	-0.030	0.250	1.750
2020/01/31 09:56:51.6	114.810	-0.000	0.160	1.780
2020/01/31 09:56:51.7	114.790	0.020	0.070	1.810
2020/01/31 09:56:51.8	114.760	0.050	-0.020	1.840
2020/01/31 09:56:51.9	114.740	0.080	-0.110	1.870
2020/01/31 09:56:52.0	114.720	0.110	-0.200	1.900
2020/01/31 09:56:52.1	114.700	0.140	-0.290	1.920
2020/01/31 09:56:52.2	114.690	0.170	-0.380	1.940
2020/01/31 09:56:52.3	114.670	0.210	-0.470	1.960
2020/01/31 09:56:52.4	114.670	0.240	-0.550	1.970
2020/01/31 09:56:52.5	114.660	0.270	-0.640	1.980
2020/01/31 09:56:52.6	114.660	0.300	-0.710	1.980
2020/01/31 09:56:52.7	114.650	0.330	-0.790	1.980
2020/01/31 09:56:52.8	114.650	0.360	-0.850	1.980
2020/01/31 09:56:52.9	114.650	0.380	-0.920	1.970
2020/01/31 09:56:53.0	114.660	0.410	-0.970	1.960
2020/01/31 09:56:53.1	114.670	0.430	-1.030	1.940
2020/01/31 09:56:53.2	114.680	0.450	-1.070	1.920
2020/01/31 09:56:53.3	114.690	0.470	-1.110	1.900
2020/01/31 09:56:53.4	114.710	0.490	-1.150	1.860
2020/01/31 09:56:53.5	114.730	0.510	-1.180	1.830
2020/01/31 09:56:53.6	114.750	0.520	-1.200	1.800
2020/01/31 09:56:53.7	114.770	0.530	-1.210	1.760
2020/01/31 09:56:53.8	114.790	0.530	-1.230	1.730
2020/01/31 09:56:53.9	114.820	0.540	-1.230	1.690
2020/01/31 09:56:54.0	114.840	0.540	-1.230	1.650
2020/01/31 09:56:54.1	114.860	0.540	-1.220	1.610
2020/01/31 09:56:54.2	114.890	0.530	-1.210	1.570
2020/01/31 09:56:54.3	114.910	0.530	-1.200	1.530
2020/01/31 09:56:54.4	114.930	0.510	-1.170	1.480
2020/01/31 09:56:54.5	114.950	0.500	-1.150	1.440
2020/01/31 09:56:54.6	114.970	0.480	-1.120	1.410
2020/01/31 09:56:54.7	114.980	0.470	-1.080	1.370
2020/01/31 09:56:54.8	115.000	0.440	-1.040	1.330
2020/01/31 09:56:54.9	115.010	0.420	-1.000	1.300
2020/01/31 09:56:55.0	115.020	0.390	-0.960	1.260
2020/01/31 09:56:55.1	115.030	0.360	-0.910	1.230
2020/01/31 09:56:55.2	115.030	0.330	-0.860	1.200
2020/01/31 09:56:55.3	115.040	0.300	-0.800	1.170
2020/01/31 09:56:55.4	115.030	0.260	-0.750	1.140
2020/01/31 09:56:55.5	115.030	0.220	-0.690	1.120
2020/01/31 09:56:55.6	115.030	0.180	-0.630	1.090
2020/01/31 09:56:55.7	115.030	0.140	-0.560	1.070
2020/01/31 09:56:55.8	115.020	0.100	-0.500	1.050
2020/01/31 09:56:55.9	115.010	0.060	-0.430	1.030
2020/01/31 09:56:56.0	115.010	0.010	-0.370	1.020
2020/01/31 09:56:56.1	115.000	-0.030	-0.300	1.000
2020/01/31 09:56:56.2	114.990	-0.080	-0.230	0.990
2020/01/31 09:56:56.3	114.980	-0.120	-0.160	0.980
2020/01/31 09:56:56.4	114.960	-0.170	-0.090	0.970
2020/01/31 09:56:56.5	114.950	-0.210	-0.020	0.960
2020/01/31 09:56:56.6	114.940	-0.260	0.050	0.950
2020/01/31 09:56:56.7	114.930	-0.300	0.120	0.940
2020/01/31 09:56:56.8	114.920	-0.350	0.190	0.940
2020/01/31 09:56:56.9	114.910	-0.390	0.250	0.930
2020/01/31 09:56:57.0	114.900	-0.430	0.320	0.920
2020/01/31 09:56:57.1	114.900	-0.470	0.380	0.910
2020/01/31 09:56:57.2	114.890	-0.510	0.450	0.900
2020/01/31 09:56:57.3	114.890	-0.550	0.510	0.900
2020/01/31 09:56:57.4	114.870	-0.590	0.560	0.880
2020/01/31 09:56:57.5	114.870	-0.630	0.620	0.870
2020/01/31 09:56:57.6	114.870	-0.660	0.670	0.860
2020/01/31 09:56:57.7	114.870	-0.690	0.720	0.850
2020/01/31 09:56:57.8	114.870	-0.720	0.770	0.830
2020/01/31 09:56:57.9	114.880	-0.740	0.810	0.820
2020/01/31 09:56:58.0	114.880	-0.770	0.840	0.800
2020/01/31 09:56:58.1	114.880	-0.790	0.870	0.790
2020/01/31 09:56:58.2	114.890	-0.810	0.900	0.770
2020/01/31 09:56:58.3	114.890	-0.820	0.920	0.750
2020/01/31 09:56:58.4	114.900	-0.830	0.930	0.720
2020/01/31 09:56:58.5	114.910	-0.840	0.940	0.700
2020/01/31 09:56:58.6	114.910	-0.840	0.940	0.680
2020/01/31 09:56:58.7	114.920	-0.840	0.930	0.650
2020/01/31 09:56:58.8	114.920	-0.840	0.920	0.630
2020/01/31 09:56:58.9	114.930	-0.830	0.900	0.600
2020/01/31 09:56:59.0	114.930	-0.820	0.870	0.570
2020/01/31 09:56:59.1	114.940	-0.800	0.840	0.550
2020/01/31 09:56:59.2	114.940	-0.780	0.790	0.520
2020/01/31 09:56:59.3	114.940	-0.760	0.750	0.490
2020/01/31 09:56:59.4	114.950	-0.730	0.690	0.470
2020/01/31 09:56:59.5	114.950	-0.700	0.630	0.440
2020/01/31 09:56:59.6	114.950	-0.670	0.560	0.410
2020/01/31 09:56:59.7	114.950	-0.630	0.490	0.390
2020/01/31 09:56:59.8	114.950	-0.590	0.410	0.360
2020/01/31 09:56:59.9	114.950	-0.550	0.320	0.340
2020/01/31 09:57:00.0	114.940	-0.500	0.230	0.320
2020/01/31 09:57:00.1	114.940	-0.450	0.140	0.300
2020/01/31 09:57:00.2	114.930	-0.400	0.040	0.280
2020/01/31 09:57:00.3	114.920	-0.340	-0.050	0.260
2020/01/31 09:57:00.4	114.910	-0.290	-0.150	0.250
2020/01/31 09:57:00.5	114.900	-0.230	-0.250	0.230
2020/01/31 09:57:00.6	114.890	-0.170	-0.350	0.220
2020/01/31 09:57:00.7	114.880	-0.110	-0.450	0.210
2020/01/31 09:57:00.8	114.870	-0.050	-0.550	0.200
2020/01/31 09:57:00.9	114.860	0.010	-0.640	0.190
2020/01/31 09:57:01.0	114.850	0.070	-0.740	0.180
2020/01/31 09:57:01.1	114.850	0.130	-0.820	0.170
2020/01/31 09:57:01.2	114.840	0.190	-0.910	0.170
2020/01/31 09:57:01.3	114.830	0.250	-0.990	0.160
2020/01/31 09:57:01.4	114.810	0.300	-1.050	0.150
2020/01/31 09:57:01.5	114.810	0.360	-1.120	0.150
2020/01/31 09:57:01.6	114.800	0.410	-1.180	0.150
2020/01/31 09:57:01.7	114.800	0.450	-1.230	0.140
2020/01/31 09:57:01.8	114.800	0.500	-1.280	0.140
2020/01/31 09:57:01.9	114.800	0.540	-1.320	0.140
2020/01/31 09:57:02.0	114.800	0.580	-1.350	0.130
2020/01/31 09:57:02.1	114.800	0.610	-1.370	0.130
2020/01/31 09:57:02.2	114.800	0.640	-1.380	0.130
2020/01/31 09:57:02.3	114.810	0.660	-1.390	0.120
2020/01/31 09:57:02.4	114.820	0.680	-1.390	0.120
2020/01/31 09:57:02.5	114.830	0.700	-1.380	0.120
2020/01/31 09:57:02.6	114.830	0.710	-1.360	0.120
2020/01/31 09:57:02.7	114.840	0.720	-1.340	0.120
2020/01/31 09:57:02.8	114.850	0.730	-1.310	0.120
2020/01/31 09:57:02.9	114.850	0.730	-1.270	0.110
2020/01/31 09:57:03.0	114.860	0.720	-1.230	0.110
2020/01/31 09:57:03.1	114.870	0.720	-1.180	0.120
2020/01/31 09:57:03.2	114.870	0.700	-1.130	0.120
2020/01/31 09:57:03.3	114.880	0.690	-1.070	0.120
2020/01/31 09:57:03.4	114.890	0.670	-1.000	0.130
2020/01/31 09:57:03.5	114.900	0.650	-0.930	0.140
2020/01/31 09:57:03.6	114.900	0.630	-0.860	0.150
2020/01/31 09:57:03.7	114.910	0.600	-0.790	0.160
2020/01/31 09:57:03.8	114.920	0.570	-0.710	0.180
2020/01/31 09:57:03.9	114.930	0.540	-0.620	0.200
2020/01/31 09:57:04.0	114.930	0.510	-0.540	0.220
2020/01/31 09:57:04.1	114.940	0.480	-0.450	0.240
2020/01/31 09:57:04.2	114.950	0.440	-0.360	0.260
2020/01/31 09:57:04.3	114.950	0.400	-0.270	0.290
2020/01/31 09:57:04.4	114.960	0.370	-0.180	0.320
2020/01/31 09:57:04.5	114.970	0.330	-0.090	0.360
2020/01/31 09:57:04.6	114.980	0.290	0.010	0.390
2020/01/31 09:57:04.7	114.980	0.260	0.100	0.430
2020/01/31 09:57:04.8	114.990	0.220	0.190	0.460
2020/01/31 09:57:04.9	114.990	0.190	0.280	0.500
2020/01/31 09:57:05.0	115.000	0.150	0.360	0.550
2020/01/31 09:57:05.1	115.000	0.120	0.450	0.590
2020/01/31 09:57:05.2	115.000	0.090	0.530	0.630
2020/01/31 09:57:05.3	115.000	0.060	0.610	0.670
2020/01/31 09:57:05.4	114.990	0.030	0.680	0.720
2020/01/31 09:57:05.5	114.990	0.010	0.750	0.770
2020/01/31 09:57:05.6	114.990	-0.020	0.810	0.810
2020/01/31 09:57:05.7	114.990	-0.040	0.870	0.860
2020/01/31 09:57:05.8	114.990	-0.060	0.920	0.900
2020/01/31 09:57:05.9	114.980	-0.070	0.960	0.950
2020/01/31 09:57:06.0	114.980	-0.090	1.000	0.990
2020/01/31 09:57:06.1	114.970	-0.100	1.030	1.040
2020/01/31 09:57:06.2	114.960	-0.110	1.050	1.080
2020/01/31 09:57:06.3	114.950	-0.110	1.060	1.120
2020/01/31 09:57:06.4	114.940	-0.120	1.070	1.160
2020/01/31 09:57:06.5	114.920	-0.120	1.070	1.200
2020/01/31 09:57:06.6	114.910	-0.120	1.060	1.240
2020/01/31 09:57:06.7	114.900	-0.120	1.050	1.280
2020/01/31 09:57:06.8	114.880	-0.110	1.020	1.310
2020/01/31 09:57:06.9	114.870	-0.110	0.990	1.350
2020/01/31 09:57:07.0	114.860	-0.100	0.960	1.380
2020/01/31 09:57:07.1	114.840	-0.100	0.910	1.410
2020/01/31 09:57:07.2	114.830	-0.090	0.870	1.440
2020/01/31 09:57:07.3	114.810	-0.080	0.810	1.460
2020/01/31 09:57:07.4	114.810	-0.070	0.750	1.480
2020/01/31 09:57:07.5	114.800	-0.060	0.690	1.500
2020/01/31 09:57:07.6	114.790	-0.060	0.620	1.520
2020/01/31 09:57:07.7	114.770	-0.050	0.550	1.540
2020/01/31 09:57:07.8	114.760	-0.040	0.480	1.550
2020/01/31 09:57:07.9	114.750	-0.030	0.410	1.560
2020/01/31 09:57:08.0	114.740	-0.020	0.330	1.570
2020/01/31 09:57:08.1	114.730	-0.020	0.250	1.570
2020/01/31 09:57:08.2	114.720	-0.010	0.170	1.570
2020/01/31 09:57:08.3	114.720	-0.000	0.090	1.580
2020/01/31 09:57:08.4	114.730	0.000	0.010	1.570
2020/01/31 09:57:08.5	114.720	0.010	-0.070	1.570
2020/01/31 09:57:08.6	114.720	0.010	-0.140	1.570
2020/01/31 09:57:08.7	114.720	0.010	-0.220	1.560
2020/01/31 09:57:08.8	114.720	0.010	-0.300	1.550
2020/01/31 09:57:08.9	114.720	0.010	-0.370	1.540
2020/01/31 09:57:09.0	114.730	0.010	-0.440	1.520
2020/01/31 09:57:09.1	114.740	0.010	-0.500	1.510
2020/01/31 09:57:09.2	114.750	0.010	-0.570	1.490
2020/01/31 09:57:09.3	114.760	0.010	-0.630	1.470
2020/01/31 09:57:09.4	114.780	0.010	-0.690	1.450
2020/01/31 09:57:09.5	114.800	0.000	-0.740	1.430
2020/01/31 09:57:09.6	114.810	0.000	-0.790	1.410
2020/01/31 09:57:09.7	114.830	-0.000	-0.830	1.380
2020/01/31 09:57:09.8	114.840	-0.010	-0.870	1.360
2020/01/31 09:57:09.9	114.860	-0.010	-0.900	1.330
2020/01/31 09:57:10.0	114.880	-0.010	-0.930	1.310
2020/01/31 09:57:10.1	114.900	-0.020	-0.960	1.280
2020/01/31 09:57:10.2	114.920	-0.020	-0.980	1.260
2020/01/31 09:57:10.3	114.940	-0.030	-0.990	1.230
2020/01/31 09:57:10.4	114.970	-0.030	-1.000	1.210
2020/01/31 09:57:10.5	114.990	-0.040	-1.000	1.180
2020/01/31 09:57:10.6	115.010	-0.040	-1.000	1.160
2020/01/31 09:57:10.7	115.030	-0.050	-1.000	1.140
2020/01/31 09:57:10.8	115.050	-0.050	-0.990	1.120
2020/01/31 09:57:10.9	115.070	-0.060	-0.970	1.100
2020/01/31 09:57:11.0	115.090	-0.060	-0.960	1.080
2020/01/31 09:57:11.1	115.110	-0.070	-0.930	1.060
2020/01/31 09:57:11.2	115.130	-0.070	-0.910	1.040
2020/01/31 09:57:11.3	115.140	-0.080	-0.880	1.020
2020/01/31 09:57:11.4	115.150	-0.090	-0.850	1.010
2020/01/31 09:57:11.5	115.160	-0.090	-0.820	0.990
2020/01/31 09:57:11.6	115.180	-0.100	-0.780	0.980
2020/01/31 09:57:11.7	115.190	-0.100	-0.750	0.970
2020/01/31 09:57:11.8	115.200	-0.110	-0.710	0.950
2020/01/31 09:57:11.9	115.210	-0.110	-0.670	0.940
2020/01/31 09:57:12.0	115.220	-0.120	-0.640	0.930
2020/01/31 09:57:12.1	115.220	-0.120	-0.600	0.930
2020/01/31 09:57:12.2	115.230	-0.130	-0.570	0.920
2020/01/31 09:57:12.3	115.230	-0.130	-0.530	0.910
2020/01/31 09:57:12.4	115.220	-0.140	-0.500	0.900
2020/01/31 09:57:12.5	115.220	-0.140	-0.480	0.900
2020/01/31 09:57:12.6	115.210	-0.140	-0.450	0.900
2020/01/31 09:57:12.7	115.210	-0.140	-0.430	0.890
2020/01/31 09:57:12.8	115.200	-0.140	-0.410	0.890
2020/01/31 09:57:12.9	115.190	-0.140	-0.390	0.900
2020/01/31 09:57:13.0	115.180	-0.140	-0.370	0.900
2020/01/31 09:57:13.1	115.160	-0.140	-0.360	0.900
2020/01/31 09:57:13.2	115.150	-0.140	-0.350	0.910
2020/01/31 09:57:13.3	115.130	-0.140	-0.350	0.910
2020/01/31 09:57:13.4	115.120	-0.140	-0.340	0.920
2020/01/31 09:57:13.5	115.100	-0.130	-0.340	0.920
2020/01/31 09:57:13.6	115.080	-0.130	-0.340	0.930
2020/01/31 09:57:13.7	115.060	-0.130	-0.340	0.940
2020/01/31 09:57:13.8	115.040	-0.120	-0.340	0.940
2020/01/31 09:57:13.9	115.020	-0.120	-0.340	0.950
2020/01/31 09:57:14.0	115.000	-0.120	-0.350	0.960
2020/01/31 09:57:14.1	114.980	-0.110	-0.350	0.970
2020/01/31 09:57:14.2	114.960	-0.110	-0.350	0.980
2020/01/31 09:57:14.3	114.940	-0.100	-0.350	0.980
2020/01/31 09:57:14.4	114.920	-0.100	-0.350	0.980
2020/01/31 09:57:14.5	114.900	-0.100	-0.340	0.990
2020/01/31 09:57:14.6	114.890	-0.100	-0.340	0.990
2020/01/31 09:57:14.7	114.870	-0.090	-0.330	0.990
2020/01/31 09:57:14.8	114.860	-0.090	-0.310	0.990
2020/01/31 09:57:14.9	114.850	-0.090	-0.300	0.990
2020/01/31 09:57:15.0	114.840	-0.090	-0.270	0.980
2020/01/31 09:57:15.1	114.830	-0.090	-0.250	0.970
2020/01/31 09:57:15.2	114.820	-0.090	-0.220	0.950
2020/01/31 09:57:15.3	114.820	-0.090	-0.180	0.930
2020/01/31 09:57:15.4	114.820	-0.100	-0.140	0.910
2020/01/31 09:57:15.5	114.810	-0.100	-0.100	0.890
2020/01/31 09:57:15.6	114.810	-0.100	-0.050	0.860
2020/01/31 09:57:15.7	114.810	-0.110	-0.000	0.830
2020/01/31 09:57:15.8	114.820	-0.110	0.050	0.790
2020/01/31 09:57:15.9	114.820	-0.110	0.110	0.750
2020/01/31 09:57:16.0	114.830	-0.120	0.170	0.710
2020/01/31 09:57:16.1	114.840	-0.130	0.230	0.670
2020/01/31 09:57:16.2	114.850	-0.130	0.290	0.620
2020/01/31 09:57:16.3	114.860	-0.140	0.350	0.570
2020/01/31 09:57:16.4	114.880	-0.140	0.420	0.510
2020/01/31 09:57:16.5	114.890	-0.150	0.480	0.450
2020/01/31 09:57:16.6	114.910	-0.160	0.540	0.390
2020/01/31 09:57:16.7	114.930	-0.160	0.600	0.330
2020/01/31 09:57:16.8	114.950	-0.170	0.650	0.270
2020/01/31 09:57:16.9	114.970	-0.170	0.710	0.210
2020/01/31 09:57:17.0	114.990	-0.180	0.750	0.140
2020/01/31 09:57:17.1	115.010	-0.180	0.800	0.080
2020/01/31 09:57:17.2	115.040	-0.180	0.840	0.010
2020/01/31 09:57:17.3	115.060	-0.180	0.870	-0.050
2020/01/31 09:57:17.4	115.090	-0.180	0.890	-0.110
2020/01/31 09:57:17.5	115.120	-0.180	0.910	-0.170
2020/01/31 09:57:17.6	115.140	-0.180	0.930	-0.240
2020/01/31 09:57:17.7	115.170	-0.170	0.930	-0.290
2020/01/31 09:57:17.8	115.190	-0.170	0.930	-0.350
2020/01/31 09:57:17.9	115.220	-0.160	0.920	-0.410
2020/01/31 09:57:18.0	115.250	-0.150	0.900	-0.460
2020/01/31 09:57:18.1	115.270	-0.140	0.880	-0.510
2020/01/31 09:57:18.2	115.300	-0.130	0.840	-0.550
2020/01/31 09:57:18.3	115.320	-0.120	0.800	-0.600
2020/01/31 09:57:18.4	115.340	-0.110	0.760	-0.640
2020/01/31 09:57:18.5	115.360	-0.090	0.710	-0.670
2020/01/31 09:57:18.6	115.390	-0.080	0.640	-0.710
2020/01/31 09:57:18.7	115.410	-0.060	0.580	-0.740
2020/01/31 09:57:18.8	115.430	-0.040	0.510	-0.760
2020/01/31 09:57:18.9	115.450	-0.020	0.430	-0.780
2020/01/31 09:57:19.0	115.470	0.000	0.350	-0.800
2020/01/31 09:57:19.1	115.490	0.020	0.260	-0.810
2020/01/31 09:57:19.2	115.510	0.040	0.170	-0.820
2020/01/31 09:57:19.3	115.520	0.070	0.080	-0.830
2020/01/31 09:57:19.4	115.530	0.090	-0.010	-0.830
2020/01/31 09:57:19.5	115.540	0.110	-0.110	-0.830
2020/01/31 09:57:19.6	115.550	0.130	-0.210	-0.820
2020/01/31 09:57:19.7	115.550	0.160	-0.300	-0.810
2020/01/31 09:57:19.8	115.560	0.180	-0.400	-0.800
2020/01/31 09:57:19.9	115.560	0.200	-0.500	-0.780
2020/01/31 09:57:20.0	115.560	0.230	-0.590	-0.760
2020/01/31 09:57:20.1	115.560	0.250	-0.680	-0.740
2020/01/31 09:57:20.2	115.560	0.270	-0.770	-0.710
2020/01/31 09:57:20.3	115.550	0.290	-0.860	-0.680
2020/01/31 09:57:20.4	115.540	0.310	-0.930	-0.640
2020/01/31 09:57:20.5	115.530	0.330	-1.010	-0.600
2020/01/31 09:57:20.6	115.520	0.350	-1.080	-0.560
2020/01/31 09:57:20.7	115.510	0.370	-1.150	-0.510
2020/01/31 09:57:20.8	115.500	0.390	-1.210	-0.460
2020/01/31 09:57:20.9	115.490	0.400	-1.260	-0.410
2020/01/31 09:57:21.0	115.470	0.420	-1.310	-0.360
2020/01/31 09:57:21.1	115.460	0.430	-1.350	-0.300
2020/01/31 09:57:21.2	115.440	0.450	-1.380	-0.240
2020/01/31 09:57:21.3	115.430	0.460	-1.400	-0.170
2020/01/31 09:57:21.4	115.410	0.470	-1.420	-0.100
2020/01/31 09:57:21.5	115.400	0.480	-1.430	-0.030
2020/01/31 09:57:21.6	115.380	0.490	-1.440	0.040
2020/01/31 09:57:21.7	115.370	0.500	-1.430	0.110
2020/01/31 09:57:21.8	115.360	0.510	-1.420	0.190
2020/01/31 09:57:21.9	115.340	0.520	-1.410	0.270
2020/01/31 09:57:22.0	115.330	0.520	-1.380	0.350
2020/01/31 09:57:22.1	115.320	0.520	-1.350	0.440
2020/01/31 09:57:22.2	115.310	0.530	-1.310	0.530
2020/01/31 09:57:22.3	115.300	0.530	-1.270	0.610
2020/01/31 09:57:22.4	115.280	0.530	-1.220	0.710
2020/01/31 09:57:22.5	115.270	0.520	-1.160	0.800
2020/01/31 09:57:22.6	115.270	0.520	-1.100	0.890
2020/01/31 09:57:22.7	115.260	0.510	-1.040	0.990
2020/01/31 09:57:22.8	115.250	0.500	-0.960	1.080
2020/01/31 09:57:22.9	115.250	0.490	-0.890	1.180
2020/01/31 09:57:23.0	115.240	0.480	-0.810	1.270
2020/01/31 09:57:23.1	115.240	0.470	-0.720	1.370
2020/01/31 09:57:23.2	115.230	0.450	-0.630	1.460
2020/01/31 09:57:23.3	115.230	0.430	-0.540	1.560
2020/01/31 09:57:23.4	115.230	0.410	-0.450	1.650
2020/01/31 09:57:23.5	115.230	0.390	-0.350	1.730
2020/01/31 09:57:23.6	115.230	0.360	-0.260	1.820
2020/01/31 09:57:23.7	115.220	0.340	-0.160	1.900
2020/01/31 09:57:23.8	115.230	0.310	-0.070	1.980
2020/01/31 09:57:23.9	115.230	0.280	0.030	2.050
2020/01/31 09:57:24.0	115.230	0.240	0.120	2.120
2020/01/31 09:57:24.1	115.230	0.210	0.210	2.190
2020/01/31 09:57:24.2	115.230	0.170	0.300	2.250
2020/01/31 09:57:24.3	115.240	0.140	0.380	2.300
2020/01/31 09:57:24.4	115.240	0.100	0.460	2.350
2020/01/31 09:57:24.5	115.250	0.060	0.530	2.390
2020/01/31 09:57:24.6	115.250	0.020	0.600	2.430
2020/01/31 09:57:24.7	115.250	-0.030	0.670	2.470
2020/01/31 09:57:24.8	115.260	-0.070	0.730	2.500
2020/01/31 09:57:24.9	115.260	-0.110	0.780	2.520
2020/01/31 09:57:25.0	115.270	-0.150	0.820	2.540
2020/01/31 09:57:25.1	115.270	-0.190	0.860	2.550
2020/01/31 09:57:25.2	115.280	-0.230	0.900	2.560
2020/01/31 09:57:25.3	115.280	-0.270	0.920	2.570
2020/01/31 09:57:25.4	115.280	-0.310	0.940	2.560
2020/01/31 09:57:25.5	115.290	-0.350	0.950	2.560
2020/01/31 09:57:25.6	115.290	-0.380	0.950	2.550
2020/01/31 09:57:25.7	115.300	-0.420	0.950	2.540
2020/01/31 09:57:25.8	115.310	-0.450	0.940	2.520
2020/01/31 09:57:25.9	115.310	-0.480	0.920	2.500
2020/01/31 09:57:26.0	115.320	-0.510	0.900	2.480
2020/01/31 09:57:26.1	115.330	-0.540	0.880	2.450
2020/01/31 09:57:26.2	115.340	-0.560	0.840	2.420
2020/01/31 09:57:26.3	115.350	-0.580	0.800	2.390
2020/01/31 09:57:26.4	115.370	-0.600	0.760	2.350
2020/01/31 09:57:26.5	115.380	-0.620	0.710	2.320
2020/01/31 09:57:26.6	115.390	-0.630	0.660	2.280
2020/01/31 09:57:26.7	115.400	-0.640	0.600	2.240
2020/01/31 09:57:26.8	115.410	-0.650	0.540	2.200
2020/01/31 09:57:26.9	115.420	-0.660	0.480	2.160
2020/01/31 09:57:27.0	115.430	-0.660	0.410	2.120
2020/01/31 09:57:27.1	115.440	-0.660	0.350	2.070
2020/01/31 09:57:27.2	115.450	-0.660	0.280	2.030
2020/01/31 09:57:27.3	115.460	-0.660	0.210	1.980
2020/01/31 09:57:27.4	115.470	-0.650	0.130	1.940
2020/01/31 09:57:27.5	115.480	-0.640	0.060	1.890
2020/01/31 09:57:27.6	115.480	-0.630	-0.010	1.850
2020/01/31 09:57:27.7	115.490	-0.610	-0.080	1.800
2020/01/31 09:57:27.8	115.490	-0.600	-0.150	1.750
2020/01/31 09:57:27.9	115.500	-0.580	-0.220	1.700
2020/01/31 09:57:28.0	115.500	-0.560	-0.290	1.650
2020/01/31 09:57:28.1	115.500	-0.530	-0.350	1.600
2020/01/31 09:57:28.2	115.500	-0.510	-0.410	1.550
2020/01/31 09:57:28.3	115.500	-0.480	-0.480	1.500
2020/01/31 09:57:28.4	115.500	-0.460	-0.530	1.450
2020/01/31 09:57:28.5	115.500	-0.430	-0.590	1.400
2020/01/31 09:57:28.6	115.490	-0.400	-0.640	1.340
2020/01/31 09:57:28.7	115.490	-0.370	-0.690	1.290
2020/01/31 09:57:28.8	115.480	-0.330	-0.740	1.240
2020/01/31 09:57:28.9	115.480	-0.300	-0.780	1.180
2020/01/31 09:57:29.0	115.470	-0.270	-0.820	1.130
2020/01/31 09:57:29.1	115.460	-0.230	-0.860	1.070
2020/01/31 09:57:29.2	115.450	-0.200	-0.890	1.020
2020/01/31 09:57:29.3	115.440	-0.160	-0.920	0.960
2020/01/31 09:57:29.4	115.430	-0.130	-0.950	0.910
2020/01/31 09:57:29.5	115.410	-0.090	-0.970	0.850
2020/01/31 09:57:29.6	115.400	-0.060	-0.990	0.800
2020/01/31 09:57:29.7	115.380	-0.020	-1.010	0.750
2020/01/31 09:57:29.8	115.370	0.010	-1.020	0.690
2020/01/31 09:57:29.9	115.350	0.040	-1.030	0.640
2020/01/31 09:57:30.0	115.330	0.080	-1.040	0.590
2020/01/31 09:57:30.1	115.310	0.110	-1.040	0.540
2020/01/31 09:57:30.2	115.290	0.140	-1.040	0.490
2020/01/31 09:57:30.3	115.260	0.170	-1.040	0.440
2020/01/31 09:57:30.4	115.230	0.200	-1.030	0.380
2020/01/31 09:57:30.5	115.210	0.230	-1.010	0.330
2020/01/31 09:57:30.6	115.190	0.250	-1.000	0.280
2020/01/31 09:57:30.7	115.170	0.280	-0.980	0.230
2020/01/31 09:57:30.8	115.150	0.300	-0.950	0.180
2020/01/31 09:57:30.9	115.130	0.320	-0.920	0.130
2020/01/31 09:57:31.0	115.110	0.330	-0.890	0.080
2020/01/31 09:57:31.1	115.100	0.350	-0.850	0.020
2020/01/31 09:57:31.2	115.090	0.360	-0.810	-0.030
2020/01/31 09:57:31.3	115.080	0.370	-0.760	-0.080
2020/01/31 09:57:31.4	115.050	0.380	-0.710	-0.140
2020/01/31 09:57:31.5	115.040	0.380	-0.660	-0.190
2020/01/31 09:57:31.6	115.040	0.380	-0.590	-0.240
2020/01/31 09:57:31.7	115.040	0.380	-0.530	-0.290
2020/01/31 09:57:31.8	115.040	0.380	-0.460	-0.350
2020/01/31 09:57:31.9	115.040	0.370	-0.390	-0.390
2020/01/31 09:57:32.0	115.050	0.360	-0.320	-0.440
2020/01/31 09:57:32.1	115.060	0.340	-0.240	-0.490
2020/01/31 09:57:32.2	115.070	0.330	-0.160	-0.530
2020/01/31 09:57:32.3	115.090	0.310	-0.080	-0.570
2020/01/31 09:57:32.4	115.090	0.290	-0.000	-0.610
2020/01/31 09:57:32.5	115.110	0.270	0.080	-0.650
2020/01/31 09:57:32.6	115.120	0.250	0.160	-0.680
2020/01/31 09:57:32.7	115.140	0.220	0.230	-0.710
2020/01/31 09:57:32.8	115.170	0.190	0.310	-0.740
2020/01/31 09:57:32.9	115.190	0.170	0.380	-0.760
2020/01/31 09:57:33.0	115.210	0.140	0.450	-0.780
2020/01/31 09:57:33.1	115.230	0.110	0.510	-0.790
2020/01/31 09:57:33.2	115.250	0.080	0.570	-0.800
2020/01/31 09:57:33.3	115.280	0.060	0.620	-0.810
2020/01/31 09:57:33.4	115.300	0.030	0.670	-0.810
2020/01/31 09:57:33.5	115.320	0.010	0.710	-0.810
2020/01/31 09:57:33.6	115.340	-0.020	0.750	-0.800
2020/01/31 09:57:33.7	115.360	-0.040	0.780	-0.800
2020/01/31 09:57:33.8	115.380	-0.060	0.800	-0.780
2020/01/31 09:57:33.9	115.400	-0.080	0.810	-0.770
2020/01/31 09:57:34.0	115.420	-0.090	0.810	-0.750
2020/01/31 09:57:34.1	115.430	-0.100	0.810	-0.730
2020/01/31 09:57:34.2	115.450	-0.110	0.800	-0.700
2020/01/31 09:57:34.3	115.460	-0.120	0.780	-0.680
2020/01/31 09:57:34.4	115.470	-0.120	0.760	-0.650
2020/01/31 09:57:34.5	115.480	-0.120	0.730	-0.620
2020/01/31 09:57:34.6	115.480	-0.110	0.690	-0.580
2020/01/31 09:57:34.7	115.490	-0.100	0.650	-0.550
2020/01/31 09:57:34.8	115.490	-0.090	0.600	-0.510
2020/01/31 09:57:34.9	115.490	-0.080	0.540	-0.470
2020/01/31 09:57:35.0	115.490	-0.060	0.480	-0.430
2020/01/31 09:57:35.1	115.490	-0.040	0.410	-0.390
2020/01/31 09:57:35.2	115.490	-0.020	0.350	-0.350
2020/01/31 09:57:35.3	115.480	0.010	0.270	-0.310
2020/01/31 09:57:35.4	115.450	0.040	0.200	-0.270
2020/01/31 09:57:35.5	115.440	0.070	0.120	-0.220
2020/01/31 09:57:35.6	115.430	0.100	0.050	-0.180
2020/01/31 09:57:35.7	115.420	0.130	-0.030	-0.130
2020/01/31 09:57:35.8	115.410	0.160	-0.100	-0.080
2020/01/31 09:57:35.9	115.390	0.200	-0.180	-0.030
2020/01/31 09:57:36.0	115.380	0.230	-0.260	0.020
2020/01/31 09:57:36.1	115.360	0.260	-0.330	0.070
2020/01/31 09:57:36.2	115.350	0.290	-0.400	0.120
2020/01/31 09:57:36.3	115.330	0.330	-0.470	0.180
2020/01/31 09:57:36.4	115.310	0.360	-0.530	0.240
2020/01/31 09:57:36.5	115.290	0.380	-0.590	0.300
2020/01/31 09:57:36.6	115.270	0.410	-0.650	0.360
2020/01/31 09:57:36.7	115.260	0.430	-0.700	0.420
2020/01/31 09:57:36.8	115.240	0.450	-0.750	0.490
2020/01/31 09:57:36.9	115.220	0.470	-0.790	0.550
2020/01/31 09:57:37.0	115.210	0.490	-0.830	0.620
2020/01/31 09:57:37.1	115.200	0.500	-0.860	0.690
2020/01/31 09:57:37.2	115.180	0.510	-0.890	0.770
2020/01/31 09:57:37.3	115.170	0.510	-0.920	0.840
2020/01/31 09:57:37.4	115.170	0.520	-0.930	0.920
2020/01/31 09:57:37.5	115.160	0.510	-0.940	1.000
2020/01/31 09:57:37.6	115.160	0.510	-0.940	1.070
2020/01/31 09:57:37.7	115.160	0.500	-0.940	1.150
2020/01/31 09:57:37.8	115.150	0.480	-0.940	1.230
2020/01/31 09:57:37.9	115.150	0.470	-0.920	1.310
2020/01/31 09:57:38.0	115.160	0.450	-0.900	1.390
2020/01/31 09:57:38.1	115.160	0.420	-0.880	1.470
2020/01/31 09:57:38.2	115.170	0.400	-0.850	1.540
2020/01/31 09:57:38.3	115.180	0.370	-0.820	1.620
2020/01/31 09:57:38.4	115.200	0.330	-0.780	1.690
2020/01/31 09:57:38.5	115.220	0.300	-0.740	1.770
2020/01/31 09:57:38.6	115.240	0.260	-0.690	1.840
2020/01/31 09:57:38.7	115.260	0.220	-0.640	1.900
2020/01/31 09:57:38.8	115.290	0.180	-0.590	1.970
2020/01/31 09:57:38.9	115.310	0.140	-0.540	2.030
2020/01/31 09:57:39.0	115.340	0.100	-0.490	2.090
2020/01/31 09:57:39.1	115.370	0.060	-0.430	2.140
2020/01/31 09:57:39.2	115.400	0.010	-0.380	2.190
2020/01/31 09:57:39.3	115.430	-0.030	-0.320	2.240
2020/01/31 09:57:39.4	115.460	-0.070	-0.270	2.280
2020/01/31 09:57:39.5	115.500	-0.110	-0.210	2.320
2020/01/31 09:57:39.6	115.530	-0.150	-0.160	2.350
2020/01/31 09:57:39.7	115.570	-0.190	-0.110	2.380
2020/01/31 09:57:39.8	115.610	-0.230	-0.050	2.410
2020/01/31 09:57:39.9	115.640	-0.260	-0.010	2.430
2020/01/31 09:57:40.0	115.680	-0.290	0.040	2.440
2020/01/31 09:57:40.1	115.710	-0.320	0.080	2.450
2020/01/31 09:57:40.2	115.740	-0.350	0.120	2.460
2020/01/31 09:57:40.3	115.770	-0.380	0.160	2.460
2020/01/31 09:57:40.4	115.820	-0.400	0.200	2.460
2020/01/31 09:57:40.5	115.850	-0.420	0.230	2.460
2020/01/31 09:57:40.6	115.880	-0.430	0.250	2.450
2020/01/31 09:57:40.7	115.900	-0.450	0.280	2.440
2020/01/31 09:57:40.8	115.920	-0.460	0.300	2.430
2020/01/31 09:57:40.9	115.940	-0.470	0.320	2.410
2020/01/31 09:57:41.0	115.960	-0.470	0.340	2.390
2020/01/31 09:57:41.1	115.970	-0.470	0.350	2.370
2020/01/31 09:57:41.2	115.990	-0.470	0.360	2.340
2020/01/31 09:57:41.3	116.000	-0.470	0.370	2.320
2020/01/31 09:57:41.4	116.020	-0.470	0.370	2.290
2020/01/31 09:57:41.5	116.020	-0.460	0.370	2.260
2020/01/31 09:57:41.6	116.030	-0.460	0.370	2.230
2020/01/31 09:57:41.7	116.030	-0.450	0.370	2.190
2020/01/31 09:57:41.8	116.030	-0.440	0.360	2.160
2020/01/31 09:57:41.9	116.030	-0.430	0.360	2.120
2020/01/31 09:57:42.0	116.030	-0.410	0.350	2.090
2020/01/31 09:57:42.1	116.020	-0.400	0.340	2.050
2020/01/31 09:57:42.2	116.010	-0.390	0.330	2.010
2020/01/31 09:57:42.3	116.010	-0.370	0.320	1.970
2020/01/31 09:57:42.4	116.010	-0.360	0.310	1.930
2020/01/31 09:57:42.5	116.000	-0.340	0.300	1.880
2020/01/31 09:57:42.6	115.990	-0.330	0.290	1.840
2020/01/31 09:57:42.7	115.970	-0.310	0.270	1.790
2020/01/31 09:57:42.8	115.960	-0.300	0.260	1.750
2020/01/31 09:57:42.9	115.940	-0.280	0.240	1.700
2020/01/31 09:57:43.0	115.930	-0.270	0.230	1.650
2020/01/31 09:57:43.1	115.910	-0.260	0.210	1.600
2020/01/31 09:57:43.2	115.900	-0.240	0.190	1.550
2020/01/31 09:57:43.3	115.880	-0.230	0.170	1.500
2020/01/31 09:57:43.4	115.850	-0.210	0.150	1.440
2020/01/31 09:57:43.5	115.840	-0.200	0.120	1.380
2020/01/31 09:57:43.6	115.820	-0.190	0.100	1.330
2020/01/31 09:57:43.7	115.800	-0.170	0.070	1.270
2020/01/31 09:57:43.8	115.790	-0.160	0.040	1.210
2020/01/31 09:57:43.9	115.770	-0.150	0.010	1.160
2020/01/31 09:57:44.0	115.750	-0.140	-0.020	1.100
2020/01/31 09:57:44.1	115.740	-0.120	-0.060	1.030
2020/01/31 09:57:44.2	115.730	-0.110	-0.100	0.970
2020/01/31 09:57:44.3	115.710	-0.100	-0.130	0.900
2020/01/31 09:57:44.4	115.710	-0.080	-0.170	0.830
2020/01/31 09:57:44.5	115.700	-0.070	-0.220	0.760
2020/01/31 09:57:44.6	115.700	-0.060	-0.260	0.690
2020/01/31 09:57:44.7	115.690	-0.050	-0.300	0.620
2020/01/31 09:57:44.8	115.690	-0.030	-0.350	0.550
2020/01/31 09:57:44.9	115.690	-0.020	-0.390	0.470
2020/01/31 09:57:45.0	115.690	-0.000	-0.440	0.390
2020/01/31 09:57:45.1	115.690	0.010	-0.490	0.320
2020/01/31 09:57:45.2	115.700	0.030	-0.540	0.240
2020/01/31 09:57:45.3	115.700	0.040	-0.580	0.160
2020/01/31 09:57:45.4	115.700	0.060	-0.630	0.070
2020/01/31 09:57:45.5	115.710	0.070	-0.680	-0.010
2020/01/31 09:57:45.6	115.720	0.090	-0.720	-0.090
2020/01/31 09:57:45.7	115.730	0.100	-0.760	-0.170
2020/01/31 09:57:45.8	115.740	0.120	-0.800	-0.250
2020/01/31 09:57:45.9	115.750	0.130	-0.840	-0.320
2020/01/31 09:57:46.0	115.770	0.150	-0.870	-0.400
2020/01/31 09:57:46.1	115.780	0.160	-0.900	-0.480
2020/01/31 09:57:46.2	115.800	0.180	-0.930	-0.550
2020/01/31 09:57:46.3	115.810	0.190	-0.950	-0.620
2020/01/31 09:57:46.4	115.800	0.200	-0.960	-0.690
2020/01/31 09:57:46.5	115.810	0.220	-0.980	-0.750
2020/01/31 09:57:46.6	115.830	0.230	-0.980	-0.810
2020/01/31 09:57:46.7	115.840	0.240	-0.990	-0.870
2020/01/31 09:57:46.8	115.850	0.250	-0.980	-0.920
2020/01/31 09:57:46.9	115.860	0.260	-0.980	-0.970
2020/01/31 09:57:47.0	115.870	0.260	-0.960	-1.010
2020/01/31 09:57:47.1	115.880	0.270	-0.940	-1.050
2020/01/31 09:57:47.2	115.880	0.270	-0.920	-1.080
2020/01/31 09:57:47.3	115.890	0.270	-0.890	-1.110
2020/01/31 09:57:47.4	115.880	0.270	-0.850	-1.130
2020/01/31 09:57:47.5	115.880	0.270	-0.820	-1.150
2020/01/31 09:57:47.6	115.880	0.270	-0.770	-1.160
2020/01/31 09:57:47.7	115.870	0.270	-0.720	-1.160
2020/01/31 09:57:47.8	115.870	0.260	-0.670	-1.160
2020/01/31 09:57:47.9	115.860	0.250	-0.620	-1.150
2020/01/31 09:57:48.0	115.850	0.240	-0.560	-1.140
2020/01/31 09:57:48.1	115.840	0.230	-0.500	-1.120
2020/01/31 09:57:48.2	115.830	0.220	-0.430	-1.100
2020/01/31 09:57:48.3	115.810	0.200	-0.360	-1.070
2020/01/31 09:57:48.4	115.800	0.190	-0.290	-1.040
2020/01/31 09:57:48.5	115.790	0.170	-0.220	-1.000
2020/01/31 09:57:48.6	115.770	0.160	-0.150	-0.960
2020/01/31 09:57:48.7	115.760	0.140	-0.080	-0.920
2020/01/31 09:57:48.8	115.740	0.120	-0.010	-0.870
2020/01/31 09:57:48.9	115.730	0.100	0.060	-0.830
2020/01/31 09:57:49.0	115.720	0.080	0.130	-0.770
2020/01/31 09:57:49.1	115.710	0.060	0.200	-0.720
2020/01/31 09:57:49.2	115.700	0.040	0.260	-0.670
2020/01/31 09:57:49.3	115.690	0.020	0.330	-0.610
2020/01/31 09:57:49.4	115.700	-0.000	0.390	-0.550
2020/01/31 09:57:49.5	115.690	-0.020	0.440	-0.500
2020/01/31 09:57:49.6	115.690	-0.040	0.500	-0.440
2020/01/31 09:57:49.7	115.690	-0.060	0.540	-0.380
2020/01/31 09:57:49.8	115.690	-0.070	0.590	-0.320
2020/01/31 09:57:49.9	115.690	-0.090	0.630	-0.260
2020/01/31 09:57:50.0	115.700	-0.100	0.660	-0.210
2020/01/31 09:57:50.1	115.700	-0.120	0.690	-0.150
2020/01/31 09:57:50.2	115.710	-0.130	0.710	-0.090
2020/01/31 09:57:50.3	115.720	-0.140	0.720	-0.030
2020/01/31 09:57:50.4	115.720	-0.150	0.740	0.030
2020/01/31 09:57:50.5	115.730	-0.150	0.740	0.090
2020/01/31 09:57:50.6	115.750	-0.160	0.740	0.150
2020/01/31 09:57:50.7	115.760	-0.160	0.730	0.210
2020/01/31 09:57:50.8	115.770	-0.160	0.710	0.270
2020/01/31 09:57:50.9	115.780	-0.160	0.690	0.330
2020/01/31 09:57:51.0	115.790	-0.150	0.660	0.390
2020/01/31 09:57:51.1	115.800	-0.150	0.630	0.460
2020/01/31 09:57:51.2	115.810	-0.140	0.590	0.520
2020/01/31 09:57:51.3	115.820	-0.130	0.550	0.590
2020/01/31 09:57:51.4	115.830	-0.120	0.500	0.660
2020/01/31 09:57:51.5	115.840	-0.100	0.450	0.730
2020/01/31 09:57:51.6	115.840	-0.090	0.400	0.800
2020/01/31 09:57:51.7	115.850	-0.070	0.340	0.870
2020/01/31 09:57:51.8	115.850	-0.050	0.280	0.940
2020/01/31 09:57:51.9	115.850	-0.030	0.220	1.020
2020/01/31 09:57:52.0	115.850	-0.000	0.150	1.100
2020/01/31 09:57:52.1	115.850	0.020	0.080	1.180
2020/01/31 09:57:52.2	115.840	0.040	0.010	1.260
2020/01/31 09:57:52.3	115.830	0.070	-0.060	1.340
2020/01/31 09:57:52.4	115.810	0.100	-0.130	1.430
2020/01/31 09:57:52.5	115.800	0.120	-0.200	1.510
2020/01/31 09:57:52.6	115.780	0.150	-0.260	1.600
2020/01/31 09:57:52.7	115.770	0.180	-0.330	1.680
2020/01/31 09:57:52.8	115.750	0.210	-0.400	1.770
2020/01/31 09:57:52.9	115.740	0.230	-0.460	1.850
2020/01/31 09:57:53.0	115.720	0.260	-0.520	1.930
2020/01/31 09:57:53.1	115.700	0.280	-0.580	2.010
2020/01/31 09:57:53.2	115.680	0.310	-0.630	2.090
2020/01/31 09:57:53.3	115.670	0.330	-0.680	2.170
2020/01/31 09:57:53.4	115.650	0.350	-0.720	2.240
2020/01/31 09:57:53.5	115.640	0.370	-0.760	2.310
2020/01/31 09:57:53.6	115.620	0.380	-0.790	2.380
2020/01/31 09:57:53.7	115.610	0.400	-0.820	2.440
2020/01/31 09:57:53.8	115.600	0.410	-0.840	2.500
2020/01/31 09:57:53.9	115.590	0.420	-0.860	2.560
2020/01/31 09:57:54.0	115.580	0.420	-0.870	2.610
2020/01/31 09:57:54.1	115.570	0.420	-0.870	2.660
2020/01/31 09:57:54.2	115.560	0.420	-0.870	2.700
2020/01/31 09:57:54.3	115.560	0.420	-0.850	2.740
2020/01/31 09:57:54.4	115.570	0.410	-0.840	2.770
2020/01/31 09:57:54.5	115.560	0.410	-0.820	2.800
2020/01/31 09:57:54.6	115.560	0.390	-0.790	2.820
2020/01/31 09:57:54.7	115.570	0.380	-0.750	2.840
2020/01/31 09:57:54.8	115.570	0.360	-0.710	2.850
2020/01/31 09:57:54.9	115.570	0.340	-0.660	2.860
2020/01/31 09:57:55.0	115.580	0.320	-0.610	2.860
2020/01/31 09:57:55.1	115.580	0.290	-0.560	2.860
2020/01/31 09:57:55.2	115.590	0.270	-0.500	2.850
2020/01/31 09:57:55.3	115.600	0.240	-0.440	2.840
2020/01/31 09:57:55.4	115.600	0.210	-0.380	2.820
2020/01/31 09:57:55.5	115.610	0.170	-0.310	2.800
2020/01/31 09:57:55.6	115.630	0.140	-0.250	2.780
2020/01/31 09:57:55.7	115.640	0.110	-0.190	2.750
2020/01/31 09:57:55.8	115.650	0.070	-0.120	2.720
2020/01/31 09:57:55.9	115.660	0.040	-0.060	2.690
2020/01/31 09:57:56.0	115.670	0.000	-0.010	2.650
2020/01/31 09:57:56.1	115.680	-0.030	0.050	2.610
2020/01/31 09:57:56.2	115.690	-0.060	0.090	2.570
2020/01/31 09:57:56.3	115.700	-0.100	0.140	2.520
2020/01/31 09:57:56.4	115.710	-0.130	0.180	2.470
2020/01/31 09:57:56.5	115.720	-0.160	0.210	2.420
2020/01/31 09:57:56.6	115.730	-0.190	0.240	2.370
2020/01/31 09:57:56.7	115.740	-0.220	0.260	2.320
2020/01/31 09:57:56.8	115.740	-0.240	0.270	2.260
2020/01/31 09:57:56.9	115.740	-0.260	0.280	2.200
2020/01/31 09:57:57.0	115.740	-0.280	0.280	2.150
2020/01/31 09:57:57.1	115.740	-0.300	0.280	2.090
2020/01/31 09:57:57.2	115.740	-0.320	0.270	2.030
2020/01/31 09:57:57.3	115.730	-0.330	0.250	1.970
2020/01/31 09:57:57.4	115.740	-0.340	0.220	1.900
2020/01/31 09:57:57.5	115.730	-0.350	0.200	1.840
2020/01/31 09:57:57.6	115.720	-0.350	0.160	1.780
2020/01/31 09:57:57.7	115.700	-0.350	0.130	1.710
2020/01/31 09:57:57.8	115.690	-0.350	0.090	1.650
2020/01/31 09:57:57.9	115.670	-0.350	0.050	1.580
2020/01/31 09:57:58.0	115.650	-0.350	0.000	1.510
2020/01/31 09:57:58.1	115.630	-0.340	-0.040	1.440
2020/01/31 09:57:58.2	115.610	-0.340	-0.090	1.370
2020/01/31 09:57:58.3	115.590	-0.330	-0.130	1.300
2020/01/31 09:57:58.4	115.560	-0.320	-0.180	1.230
2020/01/31 09:57:58.5	115.540	-0.310	-0.220	1.160
2020/01/31 09:57:58.6	115.510	-0.290	-0.270	1.080
2020/01/31 09:57:58.7	115.490	-0.280	-0.310	1.000
2020/01/31 09:57:58.8	115.470	-0.270	-0.350	0.930
2020/01/31 09:57:58.9	115.450	-0.260	-0.380	0.850
2020/01/31 09:57:59.0	115.430	-0.240	-0.410	0.770
2020/01/31 09:57:59.1	115.410	-0.230	-0.440	0.680
2020/01/31 09:57:59.2	115.390	-0.220	-0.470	0.600
2020/01/31 09:57:59.3	115.370	-0.210	-0.490	0.510
2020/01/31 09:57:59.4	115.340	-0.200	-0.510	0.430
2020/01/31 09:57:59.5	115.330	-0.190	-0.520	0.340
2020/01/31 09:57:59.6	115.310	-0.180	-0.530	0.250
2020/01/31 09:57:59.7	115.300	-0.180	-0.530	0.160
2020/01/31 09:57:59.8	115.290	-0.170	-0.530	0.070
2020/01/31 09:57:59.9	115.280	-0.160	-0.530	-0.010
2020/01/31 09:58:00.0	115.270	-0.160	-0.520	-0.100
2020/01/31 09:58:00.1	115.260	-0.160	-0.510	-0.190
2020/01/31 09:58:00.2	115.260	-0.160	-0.500	-0.280
2020/01/31 09:58:00.3	115.250	-0.160	-0.480	-0.360
2020/01/31 09:58:00.4	115.220	-0.160	-0.460	-0.450
2020/01/31 09:58:00.5	115.220	-0.160	-0.430	-0.530
2020/01/31 09:58:00.6	115.220	-0.170	-0.410	-0.610
2020/01/31 09:58:00.7	115.220	-0.170	-0.380	-0.690
2020/01/31 09:58:00.8	115.230	-0.180	-0.350	-0.760
2020/01/31 09:58:00.9	115.230	-0.180	-0.310	-0.840
2020/01/31 09:58:01.0	115.240	-0.190	-0.280	-0.900
2020/01/31 09:58:01.1	115.240	-0.200	-0.250	-0.970
2020/01/31 09:58:01.2	115.250	-0.200	-0.210	-1.030
2020/01/31 09:58:01.3	115.260	-0.210	-0.180	-1.090
2020/01/31 09:58:01.4	115.250	-0.220	-0.140	-1.140
2020/01/31 09:58:01.5	115.260	-0.220	-0.110	-1.180
2020/01/31 09:58:01.6	115.270	-0.230	-0.080	-1.230
2020/01/31 09:58:01.7	115.280	-0.230	-0.050	-1.270
2020/01/31 09:58:01.8	115.290	-0.230	-0.020	-1.300
2020/01/31 09:58:01.9	115.300	-0.230	0.000	-1.330
2020/01/31 09:58:02.0	115.310	-0.230	0.030	-1.350
2020/01/31 09:58:02.1	115.310	-0.230	0.050	-1.370
2020/01/31 09:58:02.2	115.320	-0.230	0.070	-1.390
2020/01/31 09:58:02.3	115.330	-0.220	0.080	-1.400
2020/01/31 09:58:02.4	115.340	-0.210	0.090	-1.410
2020/01/31 09:58:02.5	115.350	-0.210	0.100	-1.420
2020/01/31 09:58:02.6	115.360	-0.190	0.110	-1.420
2020/01/31 09:58:02.7	115.360	-0.180	0.110	-1.420
2020/01/31 09:58:02.8	115.370	-0.160	0.110	-1.420
2020/01/31 09:58:02.9	115.380	-0.150	0.110	-1.420
2020/01/31 09:58:03.0	115.390	-0.130	0.100	-1.410
2020/01/31 09:58:03.1	115.390	-0.100	0.090	-1.400
2020/01/31 09:58:03.2	115.400	-0.080	0.080	-1.390
2020/01/31 09:58:03.3	115.400	-0.060	0.060	-1.370
2020/01/31 09:58:03.4	115.400	-0.030	0.050	-1.360
2020/01/31 09:58:03.5	115.410	-0.000	0.030	-1.340
2020/01/31 09:58:03.6	115.410	0.020	0.010	-1.320
2020/01/31 09:58:03.7	115.410	0.050	-0.020	-1.300
2020/01/31 09:58:03.8	115.410	0.080	-0.040	-1.270
2020/01/31 09:58:03.9	115.410	0.110	-0.060	-1.240
2020/01/31 09:58:04.0	115.410	0.140	-0.090	-1.210
2020/01/31 09:58:04.1	115.410	0.170	-0.120	-1.180
2020/01/31 09:58:04.2	115.410	0.200	-0.140	-1.140
2020/01/31 09:58:04.3	115.410	0.230	-0.160	-1.100
2020/01/31 09:58:04.4	115.410	0.260	-0.190	-1.050
2020/01/31 09:58:04.5	115.410	0.290	-0.210	-1.010
2020/01/31 09:58:04.6	115.410	0.320	-0.230	-0.960
2020/01/31 09:58:04.7	115.410	0.340	-0.250	-0.910
2020/01/31 09:58:04.8	115.410	0.370	-0.270	-0.850
2020/01/31 09:58:04.9	115.400	0.390	-0.290	-0.790
2020/01/31 09:58:05.0	115.400	0.410	-0.300	-0.730
2020/01/31 09:58:05.1	115.400	0.430	-0.320	-0.660
2020/01/31 09:58:05.2	115.400	0.450	-0.330	-0.590
2020/01/31 09:58:05.3	115.400	0.460	-0.330	-0.520
2020/01/31 09:58:05.4	115.410	0.470	-0.340	-0.440
2020/01/31 09:58:05.5	115.410	0.480	-0.340	-0.360
2020/01/31 09:58:05.6	115.410	0.490	-0.340	-0.270
2020/01/31 09:58:05.7	115.420	0.500	-0.340	-0.180
2020/01/31 09:58:05.8	115.420	0.500	-0.340	-0.090
2020/01/31 09:58:05.9	115.420	0.500	-0.330	0.000
2020/01/31 09:58:06.0	115.430	0.500	-0.320	0.100
2020/01/31 09:58:06.1	115.430	0.500	-0.310	0.200
2020/01/31 09:58:06.2	115.440	0.490	-0.300	0.300
2020/01/31 09:58:06.3	115.450	0.480	-0.280	0.400
2020/01/31 09:58:06.4	115.470	0.470	-0.270	0.510
2020/01/31 09:58:06.5	115.470	0.460	-0.250	0.620
2020/01/31 09:58:06.6	115.480	0.440	-0.230	0.720
2020/01/31 09:58:06.7	115.490	0.430	-0.210	0.830
2020/01/31 09:58:06.8	115.500	0.410	-0.190	0.940
2020/01/31 09:58:06.9	115.500	0.390	-0.170	1.040
2020/01/31 09:58:07.0	115.510	0.360	-0.150	1.150
2020/01/31 09:58:07.1	115.510	0.340	-0.130	1.250
2020/01/31 09:58:07.2	115.520	0.320	-0.110	1.360
2020/01/31 09:58:07.3	115.520	0.290	-0.090	1.460
2020/01/31 09:58:07.4	115.520	0.260	-0.070	1.560
2020/01/31 09:58:07.5	115.520	0.240	-0.060	1.660
2020/01/31 09:58:07.6	115.520	0.210	-0.040	1.760
2020/01/31 09:58:07.7	115.510	0.180	-0.030	1.850
2020/01/31 09:58:07.8	115.510	0.150	-0.020	1.940
2020/01/31 09:58:07.9	115.500	0.120	-0.010	2.030
2020/01/31 09:58:08.0	115.490	0.090	-0.000	2.120
2020/01/31 09:58:08.1	115.480	0.060	0.000	2.200
2020/01/31 09:58:08.2	115.460	0.030	0.010	2.280
2020/01/31 09:58:08.3	115.450	0.000	0.010	2.360
2020/01/31 09:58:08.4	115.440	-0.020	0.010	2.430
2020/01/31 09:58:08.5	115.420	-0.050	0.010	2.500
2020/01/31 09:58:08.6	115.410	-0.080	0.000	2.560
2020/01/31 09:58:08.7	115.390	-0.110	-0.000	2.620
2020/01/31 09:58:08.8	115.370	-0.130	-0.010	2.680
2020/01/31 09:58:08.9	115.350	-0.160	-0.020	2.730
2020/01/31 09:58:09.0	115.330	-0.180	-0.030	2.780
2020/01/31 09:58:09.1	115.310	-0.210	-0.040	2.820
2020/01/31 09:58:09.2	115.290	-0.230	-0.050	2.860
2020/01/31 09:58:09.3	115.270	-0.250	-0.060	2.900
2020/01/31 09:58:09.4	115.250	-0.270	-0.070	2.930
2020/01/31 09:58:09.5	115.230	-0.290	-0.080	2.950
2020/01/31 09:58:09.6	115.220	-0.310	-0.090	2.980
2020/01/31 09:58:09.7	115.200	-0.320	-0.100	3.000
2020/01/31 09:58:09.8	115.190	-0.340	-0.110	3.010
2020/01/31 09:58:09.9	115.170	-0.350	-0.120	3.030
2020/01/31 09:58:10.0	115.160	-0.360	-0.130	3.040
2020/01/31 09:58:10.1	115.150	-0.370	-0.140	3.040
2020/01/31 09:58:10.2	115.140	-0.370	-0.150	3.040
2020/01/31 09:58:10.3	115.130	-0.380	-0.160	3.040
2020/01/31 09:58:10.4	115.130	-0.380	-0.180	3.040
2020/01/31 09:58:10.5	115.120	-0.380	-0.190	3.030
2020/01/31 09:58:10.6	115.120	-0.380	-0.200	3.010
2020/01/31 09:58:10.7	115.120	-0.370	-0.210	3.000
2020/01/31 09:58:10.8	115.120	-0.370	-0.220	2.980
2020/01/31 09:58:10.9	115.120	-0.360	-0.230	2.950
2020/01/31 09:58:11.0	115.120	-0.350	-0.240	2.920
2020/01/31 09:58:11.1	115.120	-0.340	-0.250	2.890
2020/01/31 09:58:11.2	115.130	-0.330	-0.270	2.850
2020/01/31 09:58:11.3	115.130	-0.320	-0.280	2.820
2020/01/31 09:58:11.4	115.130	-0.300	-0.290	2.770
2020/01/31 09:58:11.5	115.140	-0.290	-0.300	2.720
2020/01/31 09:58:11.6	115.150	-0.270	-0.320	2.670
2020/01/31 09:58:11.7	115.160	-0.250	-0.330	2.610
2020/01/31 09:58:11.8	115.170	-0.230	-0.340	2.550
2020/01/31 09:58:11.9	115.190	-0.210	-0.350	2.490
2020/01/31 09:58:12.0	115.200	-0.190	-0.360	2.420
2020/01/31 09:58:12.1	115.220	-0.170	-0.380	2.350
2020/01/31 09:58:12.2	115.230	-0.150	-0.380	2.280
2020/01/31 09:58:12.3	115.250	-0.120	-0.390	2.200
2020/01/31 09:58:12.4	115.270	-0.100	-0.400	2.120
2020/01/31 09:58:12.5	115.280	-0.080	-0.410	2.040
2020/01/31 09:58:12.6	115.300	-0.060	-0.410	1.950
2020/01/31 09:58:12.7	115.320	-0.040	-0.410	1.860
2020/01/31 09:58:12.8	115.340	-0.030	-0.410	1.770
2020/01/31 09:58:12.9	115.360	-0.010	-0.400	1.670
2020/01/31 09:58:13.0	115.380	0.010	-0.400	1.570
2020/01/31 09:58:13.1	115.390	0.020	-0.390	1.470
2020/01/31 09:58:13.2	115.410	0.030	-0.370	1.370
2020/01/31 09:58:13.3	115.430	0.040	-0.360	1.260
2020/01/31 09:58:13.4	115.460	0.050	-0.340	1.150
2020/01/31 09:58:13.5	115.480	0.050	-0.310	1.050
2020/01/31 09:58:13.6	115.490	0.050	-0.290	0.940
2020/01/31 09:58:13.7	115.510	0.050	-0.260	0.840
2020/01/31 09:58:13.8	115.520	0.050	-0.230	0.730
2020/01/31 09:58:13.9	115.540	0.050	-0.200	0.630
2020/01/31 09:58:14.0	115.550	0.040	-0.160	0.520
2020/01/31 09:58:14.1	115.560	0.030	-0.130	0.420
2020/01/31 09:58:14.2	115.570	0.020	-0.090	0.320
2020/01/31 09:58:14.3	115.580	0.000	-0.050	0.230
2020/01/31 09:58:14.4	115.570	-0.010	-0.010	0.140
2020/01/31 09:58:14.5	115.580	-0.030	0.030	0.050
2020/01/31 09:58:14.6	115.580	-0.050	0.070	-0.040
2020/01/31 09:58:14.7	115.580	-0.070	0.110	-0.120
2020/01/31 09:58:14.8	115.580	-0.090	0.150	-0.190
2020/01/31 09:58:14.9	115.570	-0.110	0.190	-0.270
2020/01/31 09:58:15.0	115.560	-0.130	0.220	-0.330
2020/01/31 09:58:15.1	115.550	-0.150	0.260	-0.400
2020/01/31 09:58:15.2	115.540	-0.170	0.290	-0.450
2020/01/31 09:58:15.3	115.530	-0.190	0.320	-0.510
2020/01/31 09:58:15.4	115.500	-0.200	0.340	-0.560
2020/01/31 09:58:15.5	115.480	-0.220	0.360	-0.600
2020/01/31 09:58:15.6	115.460	-0.240	0.380	-0.640
2020/01/31 09:58:15.7	115.430	-0.250	0.390	-0.680
2020/01/31 09:58:15.8	115.400	-0.260	0.390	-0.700
2020/01/31 09:58:15.9	115.370	-0.270	0.390	-0.730
2020/01/31 09:58:16.0	115.340	-0.270	0.380	-0.750
2020/01/31 09:58:16.1	115.300	-0.270	0.370	-0.760
2020/01/31 09:58:16.2	115.270	-0.270	0.350	-0.780
2020/01/31 09:58:16.3	115.230	-0.270	0.330	-0.780
2020/01/31 09:58:16.4	115.190	-0.260	0.290	-0.780
2020/01/31 09:58:16.5	115.150	-0.250	0.260	-0.790
2020/01/31 09:58:16.6	115.100	-0.240	0.220	-0.780
2020/01/31 09:58:16.7	115.060	-0.220	0.170	-0.780
2020/01/31 09:58:16.8	115.020	-0.200	0.120	-0.770
2020/01/31 09:58:16.9	114.970	-0.180	0.060	-0.760
2020/01/31 09:58:17.0	114.930	-0.150	0.000	-0.750
2020/01/31 09:58:17.1	114.890	-0.120	-0.060	-0.730
2020/01/31 09:58:17.2	114.840	-0.090	-0.120	-0.720
2020/01/31 09:58:17.3	114.800	-0.060	-0.190	-0.700
2020/01/31 09:58:17.4	114.770	-0.020	-0.260	-0.680
2020/01/31 09:58:17.5	114.730	0.020	-0.330	-0.660
2020/01/31 09:58:17.6	114.700	0.050	-0.400	-0.640
2020/01/31 09:58:17.7	114.660	0.090	-0.460	-0.610
2020/01/31 09:58:17.8	114.630	0.130	-0.530	-0.590
2020/01/31 09:58:17.9	114.600	0.170	-0.590	-0.570
2020/01/31 09:58:18.0	114.580	0.210	-0.660	-0.540
2020/01/31 09:58:18.1	114.560	0.250	-0.710	-0.510
2020/01/31 09:58:18.2	114.540	0.290	-0.770	-0.480
2020/01/31 09:58:18.3	114.530	0.320	-0.820	-0.460
2020/01/31 09:58:18.4	114.490	0.360	-0.860	-0.430
2020/01/31 09:58:18.5	114.480	0.390	-0.900	-0.400
2020/01/31 09:58:18.6	114.480	0.430	-0.940	-0.370
2020/01/31 09:58:18.7	114.480	0.450	-0.970	-0.340
2020/01/31 09:58:18.8	114.480	0.480	-0.990	-0.310
2020/01/31 09:58:18.9	114.480	0.510	-1.000	-0.280
2020/01/31 09:58:19.0	114.490	0.530	-1.010	-0.250
2020/01/31 09:58:19.1	114.500	0.540	-1.020	-0.220
2020/01/31 09:58:19.2	114.510	0.560	-1.010	-0.190
2020/01/31 09:58:19.3	114.530	0.570	-1.000	-0.160
2020/01/31 09:58:19.4	114.530	0.580	-0.990	-0.130
2020/01/31 09:58:19.5	114.550	0.580	-0.960	-0.100
2020/01/31 09:58:19.6	114.570	0.580	-0.940	-0.070
2020/01/31 09:58:19.7	114.600	0.580	-0.900	-0.040
2020/01/31 09:58:19.8	114.620	0.570	-0.860	-0.010
2020/01/31 09:58:19.9	114.640	0.560	-0.820	0.020
2020/01/31 09:58:20.0	114.670	0.550	-0.770	0.050
2020/01/31 09:58:20.1	114.700	0.530	-0.720	0.080
2020/01/31 09:58:20.2	114.720	0.510	-0.670	0.120
2020/01/31 09:58:20.3	114.750	0.490	-0.610	0.150
2020/01/31 09:58:20.4	114.780	0.470	-0.550	0.190
2020/01/31 09:58:20.5	114.800	0.440	-0.480	0.230
2020/01/31 09:58:20.6	114.830	0.410	-0.420	0.260
2020/01/31 09:58:20.7	114.850	0.380	-0.360	0.300
2020/01/31 09:58:20.8	114.870	0.350	-0.290	0.340
2020/01/31 09:58:20.9	114.890	0.320	-0.220	0.380
2020/01/31 09:58:21.0	114.910	0.280	-0.160	0.430
2020/01/31 09:58:21.1	114.930	0.250	-0.090	0.470
2020/01/31 09:58:21.2	114.940	0.210	-0.030	0.520
2020/01/31 09:58:21.3	114.960	0.180	0.040	0.570
2020/01/31 09:58:21.4	114.960	0.140	0.090	0.620
2020/01/31 09:58:21.5	114.970	0.100	0.150	0.670
2020/01/31 09:58:21.6	114.980	0.070	0.210	0.720
2020/01/31 09:58:21.7	114.980	0.040	0.260	0.780
2020/01/31 09:58:21.8	114.990	0.000	0.310	0.840
2020/01/31 09:58:21.9	114.990	-0.030	0.360	0.900
2020/01/31 09:58:22.0	114.980	-0.060	0.400	0.970
2020/01/31 09:58:22.1	114.980	-0.090	0.440	1.030
2020/01/31 09:58:22.2	114.970	-0.120	0.480	1.100
2020/01/31 09:58:22.3	114.960	-0.150	0.510	1.170
2020/01/31 09:58:22.4	114.950	-0.170	0.530	1.240
2020/01/31 09:58:22.5	114.930	-0.190	0.560	1.310
2020/01/31 09:58:22.6	114.920	-0.220	0.580	1.380
2020/01/31 09:58:22.7	114.900	-0.230	0.590	1.450
2020/01/31 09:58:22.8	114.880	-0.250	0.600	1.530
2020/01/31 09:58:22.9	114.870	-0.270	0.610	1.600
2020/01/31 09:58:23.0	114.850	-0.280	0.610	1.670
2020/01/31 09:58:23.1	114.830	-0.300	0.610	1.740
2020/01/31 09:58:23.2	114.810	-0.310	0.610	1.800
2020/01/31 09:58:23.3	114.790	-0.320	0.600	1.870
2020/01/31 09:58:23.4	114.760	-0.330	0.590	1.930
2020/01/31 09:58:23.5	114.740	-0.330	0.580	1.990
2020/01/31 09:58:23.6	114.730	-0.340	0.560	2.040
2020/01/31 09:58:23.7	114.710	-0.350	0.540	2.100
2020/01/31 09:58:23.8	114.700	-0.350	0.520	2.150
2020/01/31 09:58:23.9	114.680	-0.350	0.500	2.200
2020/01/31 09:58:24.0	114.670	-0.350	0.470	2.240
2020/01/31 09:58:24.1	114.660	-0.360	0.450	2.280
2020/01/31 09:58:24.2	114.640	-0.360	0.420	2.320
2020/01/31 09:58:24.3	114.630	-0.350	0.390	2.350
2020/01/31 09:58:24.4	114.640	-0.350	0.360	2.380
2020/01/31 09:58:24.5	114.630	-0.350	0.330	2.410
2020/01/31 09:58:24.6	114.620	-0.350	0.300	2.430
2020/01/31 09:58:24.7	114.620	-0.350	0.260	2.450
2020/01/31 09:58:24.8	114.610	-0.340	0.230	2.460
2020/01/31 09:58:24.9	114.600	-0.340	0.190	2.480
2020/01/31 09:58:25.0	114.600	-0.330	0.150	2.480
2020/01/31 09:58:25.1	114.590	-0.330	0.110	2.490
2020/01/31 09:58:25.2	114.580	-0.320	0.070	2.490
2020/01/31 09:58:25.3	114.570	-0.310	0.030	2.490
2020/01/31 09:58:25.4	114.580	-0.300	-0.010	2.480
2020/01/31 09:58:25.5	114.570	-0.290	-0.050	2.480
2020/01/31 09:58:25.6	114.560	-0.280	-0.100	2.460
2020/01/31 09:58:25.7	114.560	-0.270	-0.140	2.450
2020/01/31 09:58:25.8	114.550	-0.260	-0.190	2.430
2020/01/31 09:58:25.9	114.540	-0.240	-0.230	2.400
2020/01/31 09:58:26.0	114.530	-0.230	-0.270	2.370
2020/01/31 09:58:26.1	114.530	-0.210	-0.320	2.340
2020/01/31 09:58:26.2	114.520	-0.200	-0.360	2.300
2020/01/31 09:58:26.3	114.520	-0.180	-0.400	2.260
2020/01/31 09:58:26.4	114.510	-0.160	-0.450	2.220
2020/01/31 09:58:26.5	114.510	-0.150	-0.490	2.170
2020/01/31 09:58:26.6	114.510	-0.130	-0.530	2.110
2020/01/31 09:58:26.7	114.510	-0.110	-0.560	2.060
2020/01/31 09:58:26.8	114.510	-0.090	-0.600	2.000
2020/01/31 09:58:26.9	114.510	-0.080	-0.630	1.930
2020/01/31 09:58:27.0	114.520	-0.060	-0.660	1.870
2020/01/31 09:58:27.1	114.520	-0.040	-0.680	1.800
2020/01/31 09:58:27.2	114.530	-0.030	-0.710	1.730
2020/01/31 09:58:27.3	114.530	-0.010	-0.730	1.660
2020/01/31 09:58:27.4	114.550	0.000	-0.750	1.590
2020/01/31 09:58:27.5	114.550	0.020	-0.760	1.520
2020/01/31 09:58:27.6	114.560	0.030	-0.780	1.450
2020/01/31 09:58:27.7	114.570	0.040	-0.790	1.370
2020/01/31 09:58:27.8	114.570	0.060	-0.800	1.300
2020/01/31 09:58:27.9	114.580	0.070	-0.810	1.230
2020/01/31 09:58:28.0	114.590	0.080	-0.820	1.170
2020/01/31 09:58:28.1	114.590	0.090	-0.820	1.100
2020/01/31 09:58:28.2	114.600	0.100	-0.830	1.030
2020/01/31 09:58:28.3	114.600	0.100	-0.830	0.970
2020/01/31 09:58:28.4	114.600	0.110	-0.830	0.910
2020/01/31 09:58:28.5	114.600	0.120	-0.830	0.850
2020/01/31 09:58:28.6	114.600	0.130	-0.830	0.800
2020/01/31 09:58:28.7	114.600	0.130	-0.830	0.740
2020/01/31 09:58:28.8	114.600	0.140	-0.830	0.690
2020/01/31 09:58:28.9	114.600	0.140	-0.820	0.640
2020/01/31 09:58:29.0	114.600	0.150	-0.820	0.580
2020/01/31 09:58:29.1	114.590	0.150	-0.810	0.540
2020/01/31 09:58:29.2	114.590	0.150	-0.800	0.490
2020/01/31 09:58:29.3	114.590	0.160	-0.790	0.440
2020/01/31 09:58:29.4	114.570	0.160	-0.780	0.400
2020/01/31 09:58:29.5	114.570	0.160	-0.770	0.350
2020/01/31 09:58:29.6	114.570	0.160	-0.750	0.310
2020/01/31 09:58:29.7	114.570	0.160	-0.740	0.270
2020/01/31 09:58:29.8	114.570	0.170	-0.720	0.220
2020/01/31 09:58:29.9	114.570	0.170	-0.700	0.180
2020/01/31 09:58:30.0	114.570	0.170	-0.680	0.140
2020/01/31 09:58:30.1	114.570	0.170	-0.650	0.100
2020/01/31 09:58:30.2	114.580	0.170	-0.630	0.060
2020/01/31 09:58:30.3	114.580	0.170	-0.600	0.020
2020/01/31 09:58:30.4	114.580	0.170	-0.570	-0.020
2020/01/31 09:58:30.5	114.580	0.170	-0.540	-0.060
2020/01/31 09:58:30.6	114.590	0.170	-0.500	-0.090
2020/01/31 09:58:30.7	114.590	0.170	-0.460	-0.130
2020/01/31 09:58:30.8	114.600	0.170	-0.420	-0.170
2020/01/31 09:58:30.9	114.610	0.160	-0.380	-0.210
2020/01/31 09:58:31.0	114.620	0.160	-0.330	-0.240
2020/01/31 09:58:31.1	114.620	0.160	-0.280	-0.280
2020/01/31 09:58:31.2	114.630	0.150	-0.230	-0.320
2020/01/31 09:58:31.3	114.640	0.150	-0.180	-0.350
2020/01/31 09:58:31.4	114.640	0.140	-0.120	-0.390
2020/01/31 09:58:31.5	114.650	0.130	-0.060	-0.420
2020/01/31 09:58:31.6	114.660	0.130	0.000	-0.460
2020/01/31 09:58:31.7	114.670	0.120	0.070	-0.490
2020/01/31 09:58:31.8	114.680	0.110	0.130	-0.520
2020/01/31 09:58:31.9	114.690	0.100	0.200	-0.550
2020/01/31 09:58:32.0	114.700	0.080	0.270	-0.580
2020/01/31 09:58:32.1	114.700	0.070	0.340	-0.600
2020/01/31 09:58:32.2	114.710	0.060	0.420	-0.630
2020/01/31 09:58:32.3	114.720	0.040	0.490	-0.650
2020/01/31 09:58:32.4	114.710	0.030	0.560	-0.670
2020/01/31 09:58:32.5	114.720	0.010	0.630	-0.680
2020/01/31 09:58:32.6	114.720	-0.010	0.690	-0.690
2020/01/31 09:58:32.7	114.720	-0.020	0.760	-0.700
2020/01/31 09:58:32.8	114.730	-0.040	0.820	-0.710
2020/01/31 09:58:32.9	114.730	-0.060	0.880	-0.710
2020/01/31 09:58:33.0	114.730	-0.080	0.940	-0.710
2020/01/31 09:58:33.1	114.730	-0.090	0.990	-0.700
2020/01/31 09:58:33.2	114.720	-0.110	1.040	-0.690
2020/01/31 09:58:33.3	114.720	-0.130	1.080	-0.680
2020/01/31 09:58:33.4	114.730	-0.150	1.110	-0.670
2020/01/31 09:58:33.5	114.730	-0.170	1.140	-0.650
2020/01/31 09:58:33.6	114.730	-0.180	1.160	-0.620
2020/01/31 09:58:33.7	114.720	-0.200	1.170	-0.600
2020/01/31 09:58:33.8	114.720	-0.210	1.170	-0.570
2020/01/31 09:58:33.9	114.720	-0.220	1.160	-0.540
2020/01/31 09:58:34.0	114.720	-0.240	1.150	-0.520
2020/01/31 09:58:34.1	114.720	-0.250	1.120	-0.490
2020/01/31 09:58:34.2	114.720	-0.250	1.090	-0.450
2020/01/31 09:58:34.3	114.720	-0.260	1.050	-0.420
2020/01/31 09:58:34.4	114.730	-0.270	1.000	-0.390
2020/01/31 09:58:34.5	114.730	-0.270	0.940	-0.360
2020/01/31 09:58:34.6	114.730	-0.270	0.870	-0.330
2020/01/31 09:58:34.7	114.740	-0.270	0.790	-0.300
2020/01/31 09:58:34.8	114.750	-0.260	0.700	-0.270
2020/01/31 09:58:34.9	114.750	-0.250	0.610	-0.240
2020/01/31 09:58:35.0	114.760	-0.240	0.510	-0.210
2020/01/31 09:58:35.1	114.770	-0.230	0.400	-0.180
2020/01/31 09:58:35.2	114.780	-0.220	0.290	-0.150
2020/01/31 09:58:35.3	114.780	-0.200	0.170	-0.110
2020/01/31 09:58:35.4	114.800	-0.180	0.040	-0.080
2020/01/31 09:58:35.5	114.810	-0.160	-0.090	-0.050
2020/01/31 09:58:35.6	114.820	-0.140	-0.220	-0.010
2020/01/31 09:58:35.7	114.820	-0.110	-0.360	0.030
2020/01/31 09:58:35.8	114.830	-0.090	-0.490	0.070
2020/01/31 09:58:35.9	114.840	-0.060	-0.630	0.110
2020/01/31 09:58:36.0	114.840	-0.030	-0.770	0.160
2020/01/31 09:58:36.1	114.850	0.000	-0.900	0.200
2020/01/31 09:58:36.2	114.850	0.030	-1.030	0.250
2020/01/31 09:58:36.3	114.850	0.060	-1.160	0.310
2020/01/31 09:58:36.4	114.860	0.090	-1.280	0.360
2020/01/31 09:58:36.5	114.860	0.130	-1.400	0.420
2020/01/31 09:58:36.6	114.870	0.160	-1.510	0.480
2020/01/31 09:58:36.7	114.870	0.190	-1.610	0.540
2020/01/31 09:58:36.8	114.870	0.210	-1.700	0.610
2020/01/31 09:58:36.9	114.870	0.240	-1.780	0.670
2020/01/31 09:58:37.0	114.880	0.270	-1.850	0.740
2020/01/31 09:58:37.1	114.880	0.290	-1.910	0.810
2020/01/31 09:58:37.2	114.880	0.310	-1.950	0.890
2020/01/31 09:58:37.3	114.890	0.330	-1.990	0.960
2020/01/31 09:58:37.4	114.890	0.350	-2.010	1.030
2020/01/31 09:58:37.5	114.890	0.360	-2.010	1.110
2020/01/31 09:58:37.6	114.900	0.370	-2.010	1.190
2020/01/31 09:58:37.7	114.900	0.380	-1.990	1.260
2020/01/31 09:58:37.8	114.900	0.380	-1.970	1.340
2020/01/31 09:58:37.9	114.910	0.390	-1.920	1.420
2020/01/31 09:58:38.0	114.910	0.380	-1.870	1.490
2020/01/31 09:58:38.1	114.920	0.380	-1.810	1.570
2020/01/31 09:58:38.2	114.920	0.370	-1.730	1.640
2020/01/31 09:58:38.3	114.920	0.360	-1.640	1.720
2020/01/31 09:58:38.4	114.930	0.350	-1.550	1.790
2020/01/31 09:58:38.5	114.940	0.340	-1.440	1.860
2020/01/31 09:58:38.6	114.940	0.320	-1.330	1.930
2020/01/31 09:58:38.7	114.940	0.300	-1.210	2.000
2020/01/31 09:58:38.8	114.940	0.270	-1.090	2.060
2020/01/31 09:58:38.9	114.940	0.250	-0.960	2.130
2020/01/31 09:58:39.0	114.940	0.220	-0.820	2.190
2020/01/31 09:58:39.1	114.930	0.190	-0.680	2.240
2020/01/31 09:58:39.2	114.930	0.170	-0.540	2.300
2020/01/31 09:58:39.3	114.930	0.130	-0.400	2.350
2020/01/31 09:58:39.4	114.930	0.100	-0.260	2.400
2020/01/31 09:58:39.5	114.930	0.070	-0.110	2.440
2020/01/31 09:58:39.6	114.930	0.040	0.030	2.480
2020/01/31 09:58:39.7	114.930	0.000	0.160	2.510
2020/01/31 09:58:39.8	114.920	-0.030	0.300	2.540
2020/01/31 09:58:39.9	114.920	-0.070	0.430	2.560
2020/01/31 09:58:40.0	114.920	-0.100	0.560	2.580
2020/01/31 09:58:40.1	114.920	-0.130	0.680	2.600
2020/01/31 09:58:40.2	114.920	-0.170	0.800	2.600
2020/01/31 09:58:40.3	114.920	-0.200	0.910	2.600
2020/01/31 09:58:40.4	114.920	-0.230	1.010	2.600
2020/01/31 09:58:40.5	114.920	-0.260	1.110	2.590
2020/01/31 09:58:40.6	114.930	-0.290	1.200	2.570
2020/01/31 09:58:40.7	114.940	-0.320	1.280	2.550
2020/01/31 09:58:40.8	114.950	-0.350	1.360	2.520
2020/01/31 09:58:40.9	114.960	-0.380	1.420	2.490
2020/01/31 09:58:41.0	114.980	-0.400	1.480	2.450
2020/01/31 09:58:41.1	114.990	-0.420	1.520	2.400
2020/01/31 09:58:41.2	115.010	-0.440	1.560	2.360
2020/01/31 09:58:41.3	115.030	-0.460	1.590	2.300
2020/01/31 09:58:41.4	115.050	-0.470	1.610	2.240
2020/01/31 09:58:41.5	115.070	-0.490	1.620	2.180
2020/01/31 09:58:41.6	115.090	-0.500	1.620	2.110
2020/01/31 09:58:41.7	115.110	-0.500	1.610	2.030
2020/01/31 09:58:41.8	115.140	-0.510	1.590	1.960
2020/01/31 09:58:41.9	115.160	-0.510	1.560	1.880
2020/01/31 09:58:42.0	115.190	-0.500	1.520	1.800
2020/01/31 09:58:42.1	115.210	-0.500	1.480	1.710
2020/01/31 09:58:42.2	115.240	-0.490	1.420	1.620
2020/01/31 09:58:42.3	115.260	-0.480	1.360	1.540
2020/01/31 09:58:42.4	115.280	-0.460	1.280	1.440
2020/01/31 09:58:42.5	115.300	-0.440	1.210	1.350
2020/01/31 09:58:42.6	115.320	-0.420	1.120	1.260
2020/01/31 09:58:42.7	115.340	-0.390	1.030	1.170
2020/01/31 09:58:42.8	115.350	-0.370	0.930	1.080
2020/01/31 09:58:42.9	115.370	-0.330	0.830	0.990
2020/01/31 09:58:43.0	115.380	-0.300	0.720	0.900
2020/01/31 09:58:43.1	115.390	-0.260	0.610	0.810
2020/01/31 09:58:43.2	115.400	-0.220	0.490	0.720
2020/01/31 09:58:43.3	115.400	-0.180	0.370	0.630
2020/01/31 09:58:43.4	115.410	-0.140	0.250	0.540
2020/01/31 09:58:43.5	115.410	-0.090	0.130	0.450
2020/01/31 09:58:43.6	115.410	-0.050	0.010	0.370
2020/01/31 09:58:43.7	115.410	-0.000	-0.120	0.290
2020/01/31 09:58:43.8	115.410	0.050	-0.240	0.210
2020/01/31 09:58:43.9	115.410	0.100	-0.360	0.130
2020/01/31 09:58:44.0	115.400	0.140	-0.480	0.060
2020/01/31 09:58:44.1	115.400	0.190	-0.600	-0.010
2020/01/31 09:58:44.2	115.390	0.240	-0.720	-0.080
2020/01/31 09:58:44.3	115.380	0.290	-0.830	-0.150
2020/01/31 09:58:44.4	115.370	0.330	-0.940	-0.220
2020/01/31 09:58:44.5	115.360	0.380	-1.040	-0.280
2020/01/31 09:58:44.6	115.350	0.420	-1.140	-0.330
2020/01/31 09:58:44.7	115.340	0.460	-1.230	-0.390
2020/01/31 09:58:44.8	115.320	0.500	-1.320	-0.440
2020/01/31 09:58:44.9	115.310	0.530	-1.410	-0.490
2020/01/31 09:58:45.0	115.290	0.560	-1.480	-0.530
2020/01/31 09:58:45.1	115.280	0.590	-1.550	-0.570
2020/01/31 09:58:45.2	115.260	0.620	-1.620	-0.600
2020/01/31 09:58:45.3	115.250	0.640	-1.670	-0.630
2020/01/31 09:58:45.4	115.220	0.660	-1.720	-0.660
2020/01/31 09:58:45.5	115.200	0.670	-1.760	-0.680
2020/01/31 09:58:45.6	115.190	0.680	-1.790	-0.700
2020/01/31 09:58:45.7	115.170	0.690	-1.820	-0.720
2020/01/31 09:58:45.8	115.150	0.690	-1.830	-0.730
2020/01/31 09:58:45.9	115.130	0.690	-1.840	-0.730
2020/01/31 09:58:46.0	115.110	0.680	-1.840	-0.740
2020/01/31 09:58:46.1	115.100	0.670	-1.830	-0.740
2020/01/31 09:58:46.2	115.080	0.660	-1.810	-0.730
2020/01/31 09:58:46.3	115.060	0.640	-1.790	-0.720
2020/01/31 09:58:46.4	115.040	0.610	-1.750	-0.710
2020/01/31 09:58:46.5	115.020	0.590	-1.710	-0.700
2020/01/31 09:58:46.6	115.010	0.560	-1.670	-0.680
2020/01/31 09:58:46.7	115.000	0.520	-1.610	-0.650
2020/01/31 09:58:46.8	114.980	0.490	-1.550	-0.620
2020/01/31 09:58:46.9	114.970	0.450	-1.480	-0.590
2020/01/31 09:58:47.0	114.950	0.410	-1.410	-0.550
2020/01/31 09:58:47.1	114.940	0.360	-1.320	-0.510
2020/01/31 09:58:47.2	114.930	0.310	-1.240	-0.470
2020/01/31 09:58:47.3	114.920	0.270	-1.150	-0.420
2020/01/31 09:58:47.4	114.910	0.220	-1.050	-0.360
2020/01/31 09:58:47.5	114.900	0.170	-0.950	-0.310
2020/01/31 09:58:47.6	114.890	0.110	-0.850	-0.240
2020/01/31 09:58:47.7	114.880	0.060	-0.740	-0.180
2020/01/31 09:58:47.8	114.870	0.010	-0.630	-0.110
2020/01/31 09:58:47.9	114.860	-0.040	-0.520	-0.040
2020/01/31 09:58:48.0	114.850	-0.090	-0.410	0.030
2020/01/31 09:58:48.1	114.840	-0.140	-0.290	0.110
2020/01/31 09:58:48.2	114.840	-0.190	-0.180	0.190
2020/01/31 09:58:48.3	114.830	-0.240	-0.060	0.270
2020/01/31 09:58:48.4	114.840	-0.290	0.050	0.350
2020/01/31 09:58:48.5	114.830	-0.330	0.170	0.430
2020/01/31 09:58:48.6	114.830	-0.370	0.280	0.510
2020/01/31 09:58:48.7	114.840	-0.410	0.390	0.600
2020/01/31 09:58:48.8	114.840	-0.450	0.490	0.680
2020/01/31 09:58:48.9	114.840	-0.490	0.590	0.760
2020/01/31 09:58:49.0	114.850	-0.520	0.680	0.840
2020/01/31 09:58:49.1	114.860	-0.550	0.780	0.920
2020/01/31 09:58:49.2	114.870	-0.570	0.860	0.990
2020/01/31 09:58:49.3	114.880	-0.590	0.940	1.070
2020/01/31 09:58:49.4	114.900	-0.610	1.010	1.140
2020/01/31 09:58:49.5	114.910	-0.630	1.070	1.210
2020/01/31 09:58:49.6	114.930	-0.640	1.130	1.280
2020/01/31 09:58:49.7	114.950	-0.650	1.180	1.340
2020/01/31 09:58:49.8	114.960	-0.650	1.220	1.400
2020/01/31 09:58:49.9	114.980	-0.660	1.250	1.460
2020/01/31 09:58:50.0	115.010	-0.650	1.270	1.520
2020/01/31 09:58:50.1	115.030	-0.650	1.290	1.570
2020/01/31 09:58:50.2	115.050	-0.640	1.290	1.610
2020/01/31 09:58:50.3	115.070	-0.630	1.290	1.660
2020/01/31 09:58:50.4	115.100	-0.620	1.270	1.700
2020/01/31 09:58:50.5	115.130	-0.600	1.250	1.740
2020/01/31 09:58:50.6	115.150	-0.580	1.230	1.770
2020/01/31 09:58:50.7	115.180	-0.560	1.190	1.800
2020/01/31 09:58:50.8	115.200	-0.540	1.140	1.820
2020/01/31 09:58:50.9	115.220	-0.510	1.090	1.840
2020/01/31 09:58:51.0	115.250	-0.480	1.030	1.860
2020/01/31 09:58:51.1	115.270	-0.450	0.970	1.880
2020/01/31 09:58:51.2	115.290	-0.420	0.900	1.890
2020/01/31 09:58:51.3	115.310	-0.390	0.830	1.890
2020/01/31 09:58:51.4	115.340	-0.360	0.750	1.900
2020/01/31 09:58:51.5	115.360	-0.320	0.660	1.900
2020/01/31 09:58:51.6	115.380	-0.290	0.580	1.900
2020/01/31 09:58:51.7	115.390	-0.250	0.490	1.890
2020/01/31 09:58:51.8	115.410	-0.210	0.400	1.880
2020/01/31 09:58:51.9	115.420	-0.180	0.310	1.870
2020/01/31 09:58:52.0	115.430	-0.140	0.210	1.860
2020/01/31 09:58:52.1	115.440	-0.110	0.120	1.850
2020/01/31 09:58:52.2	115.440	-0.070	0.030	1.840
2020/01/31 09:58:52.3	115.440	-0.040	-0.060	1.820
2020/01/31 09:58:52.4	115.450	-0.010	-0.150	1.800
2020/01/31 09:58:52.5	115.450	0.030	-0.230	1.790
2020/01/31 09:58:52.6	115.450	0.060	-0.310	1.770
2020/01/31 09:58:52.7	115.440	0.090	-0.390	1.750
2020/01/31 09:58:52.8	115.430	0.120	-0.460	1.730
2020/01/31 09:58:52.9	115.420	0.140	-0.530	1.720
2020/01/31 09:58:53.0	115.410	0.170	-0.600	1.700
2020/01/31 09:58:53.1	115.400	0.190	-0.650	1.680
2020/01/31 09:58:53.2	115.380	0.210	-0.710	1.660
2020/01/31 09:58:53.3	115.370	0.230	-0.750	1.640
2020/01/31 09:58:53.4	115.370	0.250	-0.790	1.630
2020/01/31 09:58:53.5	115.350	0.270	-0.820	1.610
2020/01/31 09:58:53.6	115.330	0.280	-0.850	1.590
2020/01/31 09:58:53.7	115.320	0.290	-0.870	1.560
2020/01/31 09:58:53.8	115.300	0.310	-0.880	1.540
2020/01/31 09:58:53.9	115.290	0.320	-0.890	1.520
2020/01/31 09:58:54.0	115.270	0.320	-0.890	1.490
2020/01/31 09:58:54.1	115.260	0.330	-0.880	1.470
2020/01/31 09:58:54.2	115.250	0.330	-0.870	1.440
2020/01/31 09:58:54.3	115.240	0.340	-0.860	1.410
2020/01/31 09:58:54.4	115.240	0.340	-0.840	1.370
2020/01/31 09:58:54.5	115.230	0.340	-0.820	1.340
2020/01/31 09:58:54.6	115.230	0.340	-0.790	1.300
2020/01/31 09:58:54.7	115.230	0.340	-0.760	1.270
2020/01/31 09:58:54.8	115.220	0.330	-0.730	1.230
2020/01/31 09:58:54.9	115.220	0.330	-0.690	1.190
2020/01/31 09:58:55.0	115.220	0.330	-0.660	1.140
2020/01/31 09:58:55.1	115.220	0.320	-0.620	1.100
2020/01/31 09:58:55.2	115.230	0.320	-0.580	1.050
2020/01/31 09:58:55.3	115.230	0.310	-0.550	1.000
2020/01/31 09:58:55.4	115.230	0.310	-0.510	0.950
2020/01/31 09:58:55.5	115.240	0.300	-0.480	0.900
2020/01/31 09:58:55.6	115.240	0.300	-0.440	0.840
2020/01/31 09:58:55.7	115.250	0.290	-0.410	0.790
2020/01/31 09:58:55.8	115.260	0.290	-0.390	0.730
2020/01/31 09:58:55.9	115.270	0.280	-0.360	0.670
2020/01/31 09:58:56.0	115.280	0.280	-0.340	0.610
2020/01/31 09:58:56.1	115.290	0.280	-0.320	0.550
2020/01/31 09:58:56.2	115.300	0.270	-0.310	0.490
2020/01/31 09:58:56.3	115.310	0.270	-0.290	0.430
2020/01/31 09:58:56.4	115.310	0.270	-0.280	0.360
2020/01/31 09:58:56.5	115.330	0.260	-0.280	0.300
2020/01/31 09:58:56.6	115.340	0.260	-0.270	0.230
2020/01/31 09:58:56.7	115.350	0.260	-0.270	0.170
2020/01/31 09:58:56.8	115.370	0.250	-0.270	0.100
2020/01/31 09:58:56.9	115.380	0.250	-0.270	0.040
2020/01/31 09:58:57.0	115.390	0.250	-0.270	-0.020
2020/01/31 09:58:57.1	115.410	0.240	-0.280	-0.080
2020/01/31 09:58:57.2	115.420	0.240	-0.280	-0.140
2020/01/31 09:58:57.3	115.430	0.230	-0.290	-0.190
2020/01/31 09:58:57.4	115.430	0.230	-0.290	-0.250
2020/01/31 09:58:57.5	115.440	0.220	-0.300	-0.300
2020/01/31 09:58:57.6	115.450	0.210	-0.300	-0.340
2020/01/31 09:58:57.7	115.460	0.210	-0.300	-0.390
2020/01/31 09:58:57.8	115.470	0.200	-0.300	-0.420
2020/01/31 09:58:57.9	115.480	0.190	-0.300	-0.460
2020/01/31 09:58:58.0	115.490	0.170	-0.300	-0.490
2020/01/31 09:58:58.1	115.500	0.160	-0.300	-0.520
2020/01/31 09:58:58.2	115.510	0.150	-0.300	-0.540
2020/01/31 09:58:58.3	115.520	0.130	-0.290	-0.550
2020/01/31 09:58:58.4	115.520	0.120	-0.280	-0.570
2020/01/31 09:58:58.5	115.530	0.100	-0.270	-0.570
2020/01/31 09:58:58.6	115.540	0.080	-0.250	-0.580
2020/01/31 09:58:58.7	115.550	0.060	-0.240	-0.580
2020/01/31 09:58:58.8	115.550	0.040	-0.220	-0.570
2020/01/31 09:58:58.9	115.560	0.020	-0.200	-0.560
2020/01/31 09:58:59.0	115.570	0.000	-0.180	-0.540
2020/01/31 09:58:59.1	115.580	-0.020	-0.160	-0.530
2020/01/31 09:58:59.2	115.580	-0.040	-0.140	-0.500
2020/01/31 09:58:59.3	115.590	-0.060	-0.120	-0.480
2020/01/31 09:58:59.4	115.600	-0.080	-0.090	-0.450
2020/01/31 09:58:59.5	115.600	-0.100	-0.070	-0.420
2020/01/31 09:58:59.6	115.600	-0.120	-0.050	-0.380
2020/01/31 09:58:59.7	115.610	-0.140	-0.020	-0.350
2020/01/31 09:58:59.8	115.610	-0.150	-0.000	-0.310
2020/01/31 09:58:59.9	115.610	-0.170	0.020	-0.260
2020/01/31 09:59:00.0	115.610	-0.180	0.040	-0.220
2020/01/31 09:59:00.1	115.610	-0.200	0.060	-0.180
2020/01/31 09:59:00.2	115.610	-0.210	0.070	-0.130
2020/01/31 09:59:00.3	115.610	-0.220	0.090	-0.080
2020/01/31 09:59:00.4	115.600	-0.230	0.100	-0.040
2020/01/31 09:59:00.5	115.600	-0.230	0.110	0.010
2020/01/31 09:59:00.6	115.590	-0.240	0.120	0.060
2020/01/31 09:59:00.7	115.580	-0.240	0.130	0.100
2020/01/31 09:59:00.8	115.570	-0.240	0.140	0.150
2020/01/31 09:59:00.9	115.560	-0.240	0.140	0.200
2020/01/31 09:59:01.0	115.550	-0.240	0.150	0.240
2020/01/31 09:59:01.1	115.540	-0.240	0.150	0.290
2020/01/31 09:59:01.2	115.520	-0.230	0.150	0.330
2020/01/31 09:59:01.3	115.510	-0.230	0.150	0.370
2020/01/31 09:59:01.4	115.490	-0.220	0.150	0.410
2020/01/31 09:59:01.5	115.480	-0.210	0.150	0.450
2020/01/31 09:59:01.6	115.460	-0.200	0.150	0.490
2020/01/31 09:59:01.7	115.450	-0.190	0.150	0.520
2020/01/31 09:59:01.8	115.440	-0.180	0.140	0.560
2020/01/31 09:59:01.9	115.430	-0.170	0.140	0.590
2020/01/31 09:59:02.0	115.430	-0.160	0.130	0.620
2020/01/31 09:59:02.1	115.420	-0.140	0.130	0.650
2020/01/31 09:59:02.2	115.420	-0.130	0.120	0.680
2020/01/31 09:59:02.3	115.410	-0.120	0.120	0.710
2020/01/31 09:59:02.4	115.420	-0.110	0.110	0.730
2020/01/31 09:59:02.5	115.420	-0.100	0.100	0.760
2020/01/31 09:59:02.6	115.430	-0.090	0.090	0.780
2020/01/31 09:59:02.7	115.440	-0.080	0.090	0.810
2020/01/31 09:59:02.8	115.450	-0.080	0.080	0.830
2020/01/31 09:59:02.9	115.460	-0.070	0.060	0.850
2020/01/31 09:59:03.0	115.480	-0.060	0.050	0.880
2020/01/31 09:59:03.1	115.490	-0.060	0.040	0.900
2020/01/31 09:59:03.2	115.520	-0.050	0.020	0.920
2020/01/31 09:59:03.3	115.540	-0.050	0.010	0.950
2020/01/31 09:59:03.4	115.560	-0.050	-0.010	0.970
2020/01/31 09:59:03.5	115.590	-0.050	-0.030	1.000
2020/01/31 09:59:03.6	115.620	-0.050	-0.050	1.020
2020/01/31 09:59:03.7	115.650	-0.050	-0.070	1.050
2020/01/31 09:59:03.8	115.680	-0.050	-0.090	1.070
2020/01/31 09:59:03.9	115.710	-0.050	-0.110	1.090
2020/01/31 09:59:04.0	115.750	-0.060	-0.140	1.120
2020/01/31 09:59:04.1	115.780	-0.060	-0.160	1.140
2020/01/31 09:59:04.2	115.820	-0.060	-0.190	1.170
2020/01/31 09:59:04.3	115.850	-0.060	-0.210	1.190
2020/01/31 09:59:04.4	115.900	-0.060	-0.240	1.220
2020/01/31 09:59:04.5	115.930	-0.070	-0.270	1.240
2020/01/31 09:59:04.6	115.960	-0.070	-0.300	1.270
2020/01/31 09:59:04.7	115.990	-0.070	-0.330	1.290
2020/01/31 09:59:04.8	116.010	-0.070	-0.360	1.320
2020/01/31 09:59:04.9	116.040	-0.070	-0.390	1.340
2020/01/31 09:59:05.0	116.060	-0.070	-0.420	1.370
2020/01/31 09:59:05.1	116.080	-0.070	-0.440	1.390
2020/01/31 09:59:05.2	116.100	-0.060	-0.470	1.410
2020/01/31 09:59:05.3	116.120	-0.060	-0.500	1.430
2020/01/31 09:59:05.4	116.140	-0.050	-0.520	1.450
2020/01/31 09:59:05.5	116.160	-0.050	-0.540	1.480
2020/01/31 09:59:05.6	116.170	-0.040	-0.570	1.500
2020/01/31 09:59:05.7	116.180	-0.040	-0.590	1.510
2020/01/31 09:59:05.8	116.190	-0.030	-0.600	1.530
2020/01/31 09:59:05.9	116.200	-0.020	-0.620	1.550
2020/01/31 09:59:06.0	116.210	-0.010	-0.630	1.570
2020/01/31 09:59:06.1	116.220	-0.000	-0.640	1.580
2020/01/31 09:59:06.2	116.220	0.010	-0.640	1.600
2020/01/31 09:59:06.3	116.220	0.020	-0.650	1.610
2020/01/31 09:59:06.4	116.230	0.030	-0.640	1.620
2020/01/31 09:59:06.5	116.230	0.040	-0.640	1.640
2020/01/31 09:59:06.6	116.230	0.050	-0.640	1.650
2020/01/31 09:59:06.7	116.230	0.060	-0.630	1.650
2020/01/31 09:59:06.8	116.230	0.070	-0.620	1.660
2020/01/31 09:59:06.9	116.220	0.080	-0.600	1.670
2020/01/31 09:59:07.0	116.220	0.090	-0.590	1.670
2020/01/31 09:59:07.1	116.220	0.100	-0.570	1.680
2020/01/31 09:59:07.2	116.210	0.100	-0.540	1.680
2020/01/31 09:59:07.3	116.210	0.110	-0.520	1.680
2020/01/31 09:59:07.4	116.210	0.120	-0.490	1.670
2020/01/31 09:59:07.5	116.200	0.120	-0.460	1.670
2020/01/31 09:59:07.6	116.190	0.120	-0.430	1.660
2020/01/31 09:59:07.7	116.190	0.130	-0.400	1.660
2020/01/31 09:59:07.8	116.180	0.130	-0.370	1.650
2020/01/31 09:59:07.9	116.180	0.130	-0.330	1.640
2020/01/31 09:59:08.0	116.170	0.130	-0.300	1.630
2020/01/31 09:59:08.1	116.160	0.120	-0.260	1.620
2020/01/31 09:59:08.2	116.160	0.120	-0.220	1.610
2020/01/31 09:59:08.3	116.150	0.110	-0.190	1.590
2020/01/31 09:59:08.4	116.160	0.110	-0.150	1.580
2020/01/31 09:59:08.5	116.150	0.100	-0.110	1.570
2020/01/31 09:59:08.6	116.150	0.100	-0.070	1.550
2020/01/31 09:59:08.7	116.140	0.090	-0.040	1.540
2020/01/31 09:59:08.8	116.140	0.080	-0.000	1.520
2020/01/31 09:59:08.9	116.130	0.070	0.040	1.510
2020/01/31 09:59:09.0	116.130	0.060	0.070	1.490
2020/01/31 09:59:09.1	116.130	0.050	0.100	1.480
2020/01/31 09:59:09.2	116.120	0.040	0.140	1.460
2020/01/31 09:59:09.3	116.120	0.030	0.170	1.450
2020/01/31 09:59:09.4	116.130	0.020	0.200	1.430
2020/01/31 09:59:09.5	116.120	0.010	0.230	1.410
2020/01/31 09:59:09.6	116.120	-0.000	0.250	1.400
2020/01/31 09:59:09.7	116.120	-0.010	0.280	1.380
2020/01/31 09:59:09.8	116.120	-0.020	0.300	1.360
2020/01/31 09:59:09.9	116.130	-0.030	0.320	1.340
2020/01/31 09:59:10.0	116.130	-0.030	0.340	1.310
2020/01/31 09:59:10.1	116.130	-0.040	0.360	1.290
2020/01/31 09:59:10.2	116.140	-0.050	0.370	1.260
2020/01/31 09:59:10.3	116.140	-0.050	0.380	1.230
2020/01/31 09:59:10.4	116.150	-0.050	0.390	1.200
2020/01/31 09:59:10.5	116.160	-0.060	0.400	1.170
2020/01/31 09:59:10.6	116.170	-0.060	0.400	1.130
2020/01/31 09:59:10.7	116.180	-0.060	0.400	1.090
2020/01/31 09:59:10.8	116.190	-0.060	0.400	1.050
2020/01/31 09:59:10.9	116.210	-0.050	0.390	1.010
2020/01/31 09:59:11.0	116.220	-0.050	0.380	0.960
2020/01/31 09:59:11.1	116.230	-0.050	0.370	0.910
2020/01/31 09:59:11.2	116.250	-0.040	0.350	0.870
2020/01/31 09:59:11.3	116.260	-0.040	0.330	0.820
2020/01/31 09:59:11.4	116.280	-0.030	0.310	0.760
2020/01/31 09:59:11.5	116.290	-0.020	0.280	0.710
2020/01/31 09:59:11.6	116.300	-0.010	0.250	0.660
2020/01/31 09:59:11.7	116.320	-0.010	0.220	0.610
2020/01/31 09:59:11.8	116.330	0.000	0.190	0.550
2020/01/31 09:59:11.9	116.340	0.010	0.150	0.500
2020/01/31 09:59:12.0	116.350	0.020	0.110	0.450
2020/01/31 09:59:12.1	116.360	0.030	0.070	0.400
2020/01/31 09:59:12.2	116.370	0.040	0.030	0.340
2020/01/31 09:59:12.3	116.380	0.040	-0.020	0.290
2020/01/31 09:59:12.4	116.380	0.050	-0.060	0.240
2020/01/31 09:59:12.5	116.380	0.060	-0.100	0.190
2020/01/31 09:59:12.6	116.390	0.060	-0.150	0.140
2020/01/31 09:59:12.7	116.390	0.070	-0.190	0.100
2020/01/31 09:59:12.8	116.400	0.080	-0.240	0.050
2020/01/31 09:59:12.9	116.400	0.080	-0.280	0.010
2020/01/31 09:59:13.0	116.400	0.080	-0.330	-0.030
2020/01/31 09:59:13.1	116.400	0.080	-0.370	-0.060
2020/01/31 09:59:13.2	116.400	0.090	-0.410	-0.100
2020/01/31 09:59:13.3	116.390	0.090	-0.450	-0.130
2020/01/31 09:59:13.4	116.360	0.090	-0.480	-0.150
2020/01/31 09:59:13.5	116.360	0.090	-0.520	-0.170
2020/01/31 09:59:13.6	116.350	0.090	-0.550	-0.190
2020/01/31 09:59:13.7	116.330	0.080	-0.580	-0.200
2020/01/31 09:59:13.8	116.320	0.080	-0.610	-0.210
2020/01/31 09:59:13.9	116.300	0.080	-0.640	-0.210
2020/01/31 09:59:14.0	116.290	0.080	-0.660	-0.210
2020/01/31 09:59:14.1	116.270	0.070	-0.680	-0.200
2020/01/31 09:59:14.2	116.240	0.070	-0.700	-0.190
2020/01/31 09:59:14.3	116.220	0.070	-0.720	-0.170
2020/01/31 09:59:14.4	116.180	0.070	-0.720	-0.150
2020/01/31 09:59:14.5	116.160	0.070	-0.730	-0.120
2020/01/31 09:59:14.6	116.130	0.070	-0.740	-0.090
2020/01/31 09:59:14.7	116.100	0.070	-0.740	-0.060
2020/01/31 09:59:14.8	116.070	0.070	-0.740	-0.020
2020/01/31 09:59:14.9	116.040	0.070	-0.740	0.020
2020/01/31 09:59:15.0	116.020	0.080	-0.730	0.060
2020/01/31 09:59:15.1	115.990	0.080	-0.720	0.100
2020/01/31 09:59:15.2	115.960	0.080	-0.710	0.150
2020/01/31 09:59:15.3	115.940	0.090	-0.690	0.190
2020/01/31 09:59:15.4	115.900	0.100	-0.670	0.230
2020/01/31 09:59:15.5	115.870	0.100	-0.650	0.280
2020/01/31 09:59:15.6	115.850	0.110	-0.620	0.320
2020/01/31 09:59:15.7	115.840	0.120	-0.590	0.360
2020/01/31 09:59:15.8	115.820	0.130	-0.560	0.400
2020/01/31 09:59:15.9	115.800	0.140	-0.530	0.440
2020/01/31 09:59:16.0	115.790	0.140	-0.490	0.480
2020/01/31 09:59:16.1	115.780	0.150	-0.450	0.510
2020/01/31 09:59:16.2	115.770	0.160	-0.410	0.540
2020/01/31 09:59:16.3	115.770	0.170	-0.370	0.570
2020/01/31 09:59:16.4	115.760	0.170	-0.330	0.590
2020/01/31 09:59:16.5	115.760	0.180	-0.280	0.620
2020/01/31 09:59:16.6	115.770	0.190	-0.240	0.640
2020/01/31 09:59:16.7	115.770	0.190	-0.200	0.660
2020/01/31 09:59:16.8	115.780	0.190	-0.150	0.680
2020/01/31 09:59:16.9	115.780	0.190	-0.110	0.700
2020/01/31 09:59:17.0	115.790	0.190	-0.070	0.720
2020/01/31 09:59:17.1	115.800	0.190	-0.030	0.730
2020/01/31 09:59:17.2	115.810	0.190	0.010	0.750
2020/01/31 09:59:17.3	115.830	0.190	0.050	0.760
2020/01/31 09:59:17.4	115.840	0.180	0.080	0.770
2020/01/31 09:59:17.5	115.850	0.170	0.110	0.790
2020/01/31 09:59:17.6	115.870	0.160	0.140	0.800
2020/01/31 09:59:17.7	115.880	0.150	0.170	0.810
2020/01/31 09:59:17.8	115.900	0.140	0.190	0.820
2020/01/31 09:59:17.9	115.910	0.130	0.210	0.830
2020/01/31 09:59:18.0	115.930	0.120	0.230	0.850
2020/01/31 09:59:18.1	115.940	0.100	0.240	0.860
2020/01/31 09:59:18.2	115.950	0.080	0.260	0.870
2020/01/31 09:59:18.3	115.970	0.070	0.260	0.880
2020/01/31 09:59:18.4	115.960	0.050	0.270	0.900
2020/01/31 09:59:18.5	115.970	0.030	0.270	0.910
2020/01/31 09:59:18.6	115.980	0.010	0.270	0.920
2020/01/31 09:59:18.7	115.990	-0.010	0.260	0.930
2020/01/31 09:59:18.8	116.000	-0.030	0.250	0.950
2020/01/31 09:59:18.9	116.010	-0.050	0.240	0.960
2020/01/31 09:59:19.0	116.020	-0.070	0.230	0.970
2020/01/31 09:59:19.1	116.030	-0.090	0.220	0.990
2020/01/31 09:59:19.2	116.040	-0.110	0.200	1.000
2020/01/31 09:59:19.3	116.050	-0.120	0.180	1.010
2020/01/31 09:59:19.4	116.060	-0.140	0.160	1.020
2020/01/31 09:59:19.5	116.070	-0.160	0.140	1.030
2020/01/31 09:59:19.6	116.080	-0.180	0.120	1.040
2020/01/31 09:59:19.7	116.090	-0.190	0.090	1.060
2020/01/31 09:59:19.8	116.100	-0.210	0.070	1.070
2020/01/31 09:59:19.9	116.110	-0.220	0.040	1.080
2020/01/31 09:59:20.0	116.120	-0.230	0.020	1.090
2020/01/31 09:59:20.1	116.130	-0.240	-0.010	1.100
2020/01/31 09:59:20.2	116.150	-0.250	-0.040	1.110
2020/01/31 09:59:20.3	116.160	-0.260	-0.060	1.120
2020/01/31 09:59:20.4	116.160	-0.270	-0.090	1.130
2020/01/31 09:59:20.5	116.170	-0.280	-0.120	1.140
2020/01/31 09:59:20.6	116.180	-0.280	-0.140	1.150
2020/01/31 09:59:20.7	116.190	-0.280	-0.170	1.170
2020/01/31 09:59:20.8	116.200	-0.280	-0.200	1.180
2020/01/31 09:59:20.9	116.200	-0.280	-0.230	1.200
2020/01/31 09:59:21.0	116.200	-0.280	-0.250	1.210
2020/01/31 09:59:21.1	116.200	-0.280	-0.280	1.230
2020/01/31 09:59:21.2	116.200	-0.270	-0.300	1.250
2020/01/31 09:59:21.3	116.190	-0.270	-0.330	1.270
2020/01/31 09:59:21.4	116.170	-0.260	-0.350	1.290
2020/01/31 09:59:21.5	116.160	-0.250	-0.370	1.320
2020/01/31 09:59:21.6	116.150	-0.240	-0.390	1.340
2020/01/31 09:59:21.7	116.130	-0.230	-0.420	1.370
2020/01/31 09:59:21.8	116.110	-0.220	-0.440	1.390
2020/01/31 09:59:21.9	116.080	-0.210	-0.450	1.420
2020/01/31 09:59:22.0	116.050	-0.190	-0.470	1.450
2020/01/31 09:59:22.1	116.020	-0.180	-0.490	1.470
2020/01/31 09:59:22.2	115.990	-0.170	-0.500	1.500
2020/01/31 09:59:22.3	115.960	-0.150	-0.510	1.530
2020/01/31 09:59:22.4	115.940	-0.140	-0.520	1.550
2020/01/31 09:59:22.5	115.900	-0.130	-0.530	1.580
2020/01/31 09:59:22.6	115.860	-0.110	-0.530	1.600
2020/01/31 09:59:22.7	115.830	-0.100	-0.530	1.620
2020/01/31 09:59:22.8	115.790	-0.090	-0.530	1.640
2020/01/31 09:59:22.9	115.750	-0.070	-0.530	1.660
2020/01/31 09:59:23.0	115.720	-0.060	-0.520	1.670
2020/01/31 09:59:23.1	115.680	-0.050	-0.520	1.690
2020/01/31 09:59:23.2	115.650	-0.040	-0.510	1.700
2020/01/31 09:59:23.3	115.620	-0.040	-0.490	1.700
2020/01/31 09:59:23.4	115.600	-0.030	-0.480	1.710
2020/01/31 09:59:23.5	115.570	-0.020	-0.460	1.700
2020/01/31 09:59:23.6	115.550	-0.020	-0.440	1.700
2020/01/31 09:59:23.7	115.530	-0.020	-0.420	1.690
2020/01/31 09:59:23.8	115.520	-0.010	-0.390	1.680
2020/01/31 09:59:23.9	115.500	-0.010	-0.370	1.660
2020/01/31 09:59:24.0	115.500	-0.010	-0.340	1.640
2020/01/31 09:59:24.1	115.490	-0.020	-0.310	1.610
2020/01/31 09:59:24.2	115.490	-0.020	-0.280	1.580
2020/01/31 09:59:24.3	115.490	-0.020	-0.250	1.540
2020/01/31 09:59:24.4	115.520	-0.030	-0.210	1.500
2020/01/31 09:59:24.5	115.530	-0.030	-0.180	1.460
2020/01/31 09:59:24.6	115.540	-0.040	-0.140	1.410
2020/01/31 09:59:24.7	115.560	-0.050	-0.110	1.360
2020/01/31 09:59:24.8	115.570	-0.050	-0.070	1.310
2020/01/31 09:59:24.9	115.590	-0.060	-0.040	1.250
2020/01/31 09:59:25.0	115.610	-0.070	-0.000	1.200
2020/01/31 09:59:25.1	115.630	-0.080	0.030	1.130
2020/01/31 09:59:25.2	115.660	-0.080	0.070	1.070
2020/01/31 09:59:25.3	115.680	-0.090	0.100	1.010
2020/01/31 09:59:25.4	115.720	-0.100	0.130	0.950
2020/01/31 09:59:25.5	115.740	-0.100	0.160	0.880
2020/01/31 09:59:25.6	115.760	-0.110	0.180	0.820
2020/01/31 09:59:25.7	115.780	-0.110	0.210	0.750
2020/01/31 09:59:25.8	115.800	-0.110	0.230	0.690
2020/01/31 09:59:25.9	115.820	-0.120	0.250	0.620
2020/01/31 09:59:26.0	115.840	-0.120	0.260	0.560
2020/01/31 09:59:26.1	115.850	-0.120	0.270	0.490
2020/01/31 09:59:26.2	115.870	-0.110	0.280	0.420
2020/01/31 09:59:26.3	115.890	-0.110	0.280	0.360
2020/01/31 09:59:26.4	115.900	-0.110	0.280	0.290
2020/01/31 09:59:26.5	115.920	-0.100	0.280	0.220
2020/01/31 09:59:26.6	115.930	-0.100	0.270	0.150
2020/01/31 09:59:26.7	115.950	-0.090	0.260	0.090
2020/01/31 09:59:26.8	115.960	-0.080	0.250	0.020
2020/01/31 09:59:26.9	115.980	-0.070	0.230	-0.050
2020/01/31 09:59:27.0	116.000	-0.060	0.210	-0.120
2020/01/31 09:59:27.1	116.020	-0.050	0.190	-0.180
2020/01/31 09:59:27.2	116.030	-0.040	0.170	-0.250
2020/01/31 09:59:27.3	116.050	-0.020	0.140	-0.320
2020/01/31 09:59:27.4	116.050	-0.010	0.110	-0.380
2020/01/31 09:59:27.5	116.070	0.000	0.080	-0.440
2020/01/31 09:59:27.6	116.090	0.020	0.050	-0.500
2020/01/31 09:59:27.7	116.100	0.030	0.020	-0.560
2020/01/31 09:59:27.8	116.120	0.040	-0.010	-0.620
2020/01/31 09:59:27.9	116.130	0.060	-0.050	-0.670
2020/01/31 09:59:28.0	116.150	0.070	-0.090	-0.710
2020/01/31 09:59:28.1	116.160	0.090	-0.120	-0.760
2020/01/31 09:59:28.2	116.170	0.100	-0.160	-0.790
2020/01/31 09:59:28.3	116.180	0.120	-0.200	-0.830
2020/01/31 09:59:28.4	116.180	0.130	-0.230	-0.860
2020/01/31 09:59:28.5	116.180	0.150	-0.270	-0.880
2020/01/31 09:59:28.6	116.190	0.160	-0.310	-0.900
2020/01/31 09:59:28.7	116.190	0.170	-0.340	-0.910
2020/01/31 09:59:28.8	116.190	0.190	-0.380	-0.920
2020/01/31 09:59:28.9	116.190	0.200	-0.410	-0.920
2020/01/31 09:59:29.0	116.190	0.210	-0.450	-0.920
2020/01/31 09:59:29.1	116.180	0.220	-0.480	-0.920
2020/01/31 09:59:29.2	116.180	0.230	-0.510	-0.910
2020/01/31 09:59:29.3	116.170	0.240	-0.530	-0.900
2020/01/31 09:59:29.4	116.170	0.240	-0.550	-0.880
2020/01/31 09:59:29.5	116.160	0.250	-0.570	-0.860
2020/01/31 09:59:29.6	116.160	0.250	-0.590	-0.840
2020/01/31 09:59:29.7	116.150	0.260	-0.610	-0.820
2020/01/31 09:59:29.8	116.140	0.260	-0.620	-0.790
2020/01/31 09:59:29.9	116.130	0.260	-0.630	-0.760
2020/01/31 09:59:30.0	116.120	0.260	-0.640	-0.730
2020/01/31 09:59:30.1	116.120	0.260	-0.640	-0.690
2020/01/31 09:59:30.2	116.110	0.250	-0.640	-0.660
2020/01/31 09:59:30.3	116.100	0.250	-0.640	-0.620
2020/01/31 09:59:30.4	116.100	0.250	-0.630	-0.570
2020/01/31 09:59:30.5	116.090	0.240	-0.620	-0.530
2020/01/31 09:59:30.6	116.080	0.230	-0.600	-0.480
2020/01/31 09:59:30.7	116.070	0.220	-0.590	-0.430
2020/01/31 09:59:30.8	116.060	0.220	-0.570	-0.380
2020/01/31 09:59:30.9	116.050	0.210	-0.540	-0.330
2020/01/31 09:59:31.0	116.050	0.190	-0.510	-0.270
2020/01/31 09:59:31.1	116.040	0.180	-0.480	-0.210
2020/01/31 09:59:31.2	116.030	0.170	-0.450	-0.150
2020/01/31 09:59:31.3	116.020	0.160	-0.420	-0.090
2020/01/31 09:59:31.4	116.020	0.150	-0.380	-0.020
2020/01/31 09:59:31.5	116.010	0.140	-0.340	0.050
2020/01/31 09:59:31.6	116.010	0.120	-0.300	0.120
2020/01/31 09:59:31.7	116.000	0.110	-0.250	0.190
2020/01/31 09:59:31.8	116.000	0.100	-0.210	0.260
2020/01/31 09:59:31.9	116.000	0.080	-0.170	0.330
2020/01/31 09:59:32.0	116.000	0.070	-0.120	0.400
2020/01/31 09:59:32.1	116.000	0.060	-0.080	0.480
2020/01/31 09:59:32.2	116.000	0.050	-0.030	0.550
2020/01/31 09:59:32.3	116.010	0.040	0.010	0.630
2020/01/31 09:59:32.4	116.020	0.030	0.050	0.700
2020/01/31 09:59:32.5	116.030	0.010	0.090	0.770
2020/01/31 09:59:32.6	116.040	0.000	0.120	0.840
2020/01/31 09:59:32.7	116.060	-0.010	0.160	0.910
2020/01/31 09:59:32.8	116.070	-0.020	0.190	0.980
2020/01/31 09:59:32.9	116.090	-0.030	0.220	1.050
2020/01/31 09:59:33.0	116.110	-0.040	0.240	1.110
2020/01/31 09:59:33.1	116.130	-0.040	0.260	1.170
2020/01/31 09:59:33.2	116.160	-0.050	0.280	1.230
2020/01/31 09:59:33.3	116.190	-0.060	0.290	1.280
2020/01/31 09:59:33.4	116.210	-0.070	0.300	1.330
2020/01/31 09:59:33.5	116.240	-0.080	0.310	1.380
2020/01/31 09:59:33.6	116.270	-0.080	0.310	1.430
2020/01/31 09:59:33.7	116.300	-0.090	0.310	1.470
2020/01/31 09:59:33.8	116.330	-0.100	0.300	1.510
2020/01/31 09:59:33.9	116.360	-0.100	0.290	1.550
2020/01/31 09:59:34.0	116.390	-0.110	0.280	1.590
2020/01/31 09:59:34.1	116.430	-0.120	0.260	1.620
2020/01/31 09:59:34.2	116.460	-0.120	0.240	1.650
2020/01/31 09:59:34.3	116.490	-0.130	0.220	1.680
2020/01/31 09:59:34.4	116.530	-0.130	0.200	1.700
2020/01/31 09:59:34.5	116.550	-0.140	0.170	1.720
2020/01/31 09:59:34.6	116.580	-0.140	0.140	1.750
2020/01/31 09:59:34.7	116.610	-0.150	0.100	1.760
2020/01/31 09:59:34.8	116.630	-0.150	0.070	1.780
2020/01/31 09:59:34.9	116.650	-0.160	0.040	1.800
2020/01/31 09:59:35.0	116.670	-0.160	0.000	1.810
2020/01/31 09:59:35.1	116.680	-0.160	-0.030	1.820
2020/01/31 09:59:35.2	116.700	-0.160	-0.070	1.830
2020/01/31 09:59:35.3	116.710	-0.160	-0.110	1.840
2020/01/31 09:59:35.4	116.740	-0.170	-0.150	1.850
2020/01/31 09:59:35.5	116.740	-0.170	-0.180	1.860
2020/01/31 09:59:35.6	116.750	-0.170	-0.210	1.860
2020/01/31 09:59:35.7	116.740	-0.170	-0.250	1.870
2020/01/31 09:59:35.8	116.740	-0.160	-0.280	1.870
2020/01/31 09:59:35.9	116.740	-0.160	-0.310	1.880
2020/01/31 09:59:36.0	116.730	-0.160	-0.330	1.880
2020/01/31 09:59:36.1	116.720	-0.160	-0.360	1.880
2020/01/31 09:59:36.2	116.710	-0.150	-0.380	1.880
2020/01/31 09:59:36.3	116.700	-0.150	-0.400	1.880
2020/01/31 09:59:36.4	116.710	-0.150	-0.410	1.880
2020/01/31 09:59:36.5	116.690	-0.140	-0.430	1.880
2020/01/31 09:59:36.6	116.670	-0.140	-0.440	1.880
2020/01/31 09:59:36.7	116.650	-0.140	-0.450	1.880
2020/01/31 09:59:36.8	116.630	-0.130	-0.460	1.880
2020/01/31 09:59:36.9	116.610	-0.130	-0.460	1.870
2020/01/31 09:59:37.0	116.590	-0.130	-0.460	1.870
2020/01/31 09:59:37.1	116.570	-0.120	-0.460	1.860
2020/01/31 09:59:37.2	116.550	-0.120	-0.460	1.850
2020/01/31 09:59:37.3	116.530	-0.110	-0.460	1.840
2020/01/31 09:59:37.4	116.520	-0.110	-0.450	1.830
2020/01/31 09:59:37.5	116.500	-0.110	-0.440	1.820
2020/01/31 09:59:37.6	116.480	-0.100	-0.430	1.800
2020/01/31 09:59:37.7	116.470	-0.100	-0.420	1.780
2020/01/31 09:59:37.8	116.460	-0.100	-0.410	1.750
2020/01/31 09:59:37.9	116.450	-0.090	-0.400	1.730
2020/01/31 09:59:38.0	116.440	-0.090	-0.390	1.700
2020/01/31 09:59:38.1	116.440	-0.080	-0.380	1.670
2020/01/31 09:59:38.2	116.440	-0.080	-0.370	1.630
2020/01/31 09:59:38.3	116.440	-0.070	-0.350	1.600
2020/01/31 09:59:38.4	116.440	-0.060	-0.340	1.560
2020/01/31 09:59:38.5	116.450	-0.060	-0.320	1.510
2020/01/31 09:59:38.6	116.460	-0.050	-0.310	1.460
2020/01/31 09:59:38.7	116.470	-0.040	-0.300	1.420
2020/01/31 09:59:38.8	116.480	-0.030	-0.290	1.360
2020/01/31 09:59:38.9	116.490	-0.030	-0.280	1.310
2020/01/31 09:59:39.0	116.510	-0.020	-0.280	1.260
2020/01/31 09:59:39.1	116.520	-0.010	-0.270	1.200
2020/01/31 09:59:39.2	116.540	0.010	-0.270	1.140
2020/01/31 09:59:39.3	116.550	0.020	-0.260	1.080
2020/01/31 09:59:39.4	116.570	0.030	-0.260	1.020
2020/01/31 09:59:39.5	116.580	0.040	-0.260	0.960
2020/01/31 09:59:39.6	116.600	0.050	-0.260	0.900
2020/01/31 09:59:39.7	116.620	0.070	-0.270	0.840
2020/01/31 09:59:39.8	116.640	0.080	-0.270	0.770
2020/01/31 09:59:39.9	116.660	0.090	-0.270	0.710
2020/01/31 09:59:40.0	116.680	0.100	-0.280	0.640
2020/01/31 09:59:40.1	116.690	0.110	-0.280	0.570
2020/01/31 09:59:40.2	116.710	0.120	-0.280	0.500
2020/01/31 09:59:40.3	116.730	0.130	-0.290	0.430
2020/01/31 09:59:40.4	116.760	0.140	-0.290	0.360
2020/01/31 09:59:40.5	116.770	0.140	-0.290	0.290
2020/01/31 09:59:40.6	116.790	0.150	-0.290	0.220
2020/01/31 09:59:40.7	116.810	0.150	-0.290	0.150
2020/01/31 09:59:40.8	116.830	0.150	-0.290	0.080
2020/01/31 09:59:40.9	116.840	0.150	-0.280	0.010
2020/01/31 09:59:41.0	116.850	0.150	-0.270	-0.060
2020/01/31 09:59:41.1	116.870	0.140	-0.270	-0.120
2020/01/31 09:59:41.2	116.880	0.140	-0.250	-0.190
2020/01/31 09:59:41.3	116.890	0.130	-0.240	-0.240
2020/01/31 09:59:41.4	116.870	0.120	-0.230	-0.300
2020/01/31 09:59:41.5	116.870	0.100	-0.210	-0.350
2020/01/31 09:59:41.6	116.880	0.090	-0.190	-0.400
2020/01/31 09:59:41.7	116.880	0.070	-0.160	-0.450
2020/01/31 09:59:41.8	116.880	0.050	-0.140	-0.490
2020/01/31 09:59:41.9	116.880	0.030	-0.110	-0.520
2020/01/31 09:59:42.0	116.880	0.010	-0.070	-0.550
2020/01/31 09:59:42.1	116.870	-0.020	-0.040	-0.580
2020/01/31 09:59:42.2	116.870	-0.050	-0.010	-0.600
2020/01/31 09:59:42.3	116.860	-0.070	0.030	-0.620
2020/01/31 09:59:42.4	116.840	-0.100	0.070	-0.630
2020/01/31 09:59:42.5	116.830	-0.130	0.110	-0.630
2020/01/31 09:59:42.6	116.820	-0.160	0.150	-0.640
2020/01/31 09:59:42.7	116.800	-0.200	0.180	-0.630
2020/01/31 09:59:42.8	116.790	-0.230	0.220	-0.620
2020/01/31 09:59:42.9	116.770	-0.260	0.260	-0.600
2020/01/31 09:59:43.0	116.760	-0.290	0.300	-0.590
2020/01/31 09:59:43.1	116.740	-0.320	0.330	-0.560
2020/01/31 09:59:43.2	116.730	-0.350	0.360	-0.530
2020/01/31 09:59:43.3	116.710	-0.380	0.390	-0.500
2020/01/31 09:59:43.4	116.690	-0.400	0.420	-0.470
2020/01/31 09:59:43.5	116.670	-0.430	0.450	-0.430
2020/01/31 09:59:43.6	116.650	-0.450	0.470	-0.390
2020/01/31 09:59:43.7	116.640	-0.470	0.490	-0.350
2020/01/31 09:59:43.8	116.620	-0.490	0.500	-0.300
2020/01/31 09:59:43.9	116.610	-0.500	0.510	-0.260
2020/01/31 09:59:44.0	116.590	-0.510	0.510	-0.210
2020/01/31 09:59:44.1	116.580	-0.520	0.510	-0.160
2020/01/31 09:59:44.2	116.560	-0.530	0.510	-0.110
2020/01/31 09:59:44.3	116.550	-0.530	0.500	-0.070
2020/01/31 09:59:44.4	116.530	-0.530	0.490	-0.020
2020/01/31 09:59:44.5	116.520	-0.520	0.470	0.030
2020/01/31 09:59:44.6	116.510	-0.510	0.450	0.070
2020/01/31 09:59:44.7	116.500	-0.500	0.420	0.120
2020/01/31 09:59:44.8	116.490	-0.490	0.390	0.160
2020/01/31 09:59:44.9	116.490	-0.470	0.350	0.200
2020/01/31 09:59:45.0	116.480	-0.440	0.310	0.250
2020/01/31 09:59:45.1	116.480	-0.420	0.260	0.290
2020/01/31 09:59:45.2	116.470	-0.390	0.210	0.320
2020/01/31 09:59:45.3	116.470	-0.360	0.160	0.360
2020/01/31 09:59:45.4	116.480	-0.320	0.100	0.390
2020/01/31 09:59:45.5	116.480	-0.280	0.040	0.420
2020/01/31 09:59:45.6	116.490	-0.250	-0.030	0.450
2020/01/31 09:59:45.7	116.490	-0.200	-0.100	0.480
2020/01/31 09:59:45.8	116.500	-0.160	-0.170	0.510
2020/01/31 09:59:45.9	116.500	-0.110	-0.240	0.530
2020/01/31 09:59:46.0	116.510	-0.070	-0.320	0.560
2020/01/31 09:59:46.1	116.520	-0.020	-0.400	0.580
2020/01/31 09:59:46.2	116.530	0.030	-0.480	0.600
2020/01/31 09:59:46.3	116.540	0.080	-0.560	0.630
2020/01/31 09:59:46.4	116.550	0.130	-0.640	0.650
2020/01/31 09:59:46.5	116.560	0.180	-0.710	0.670
2020/01/31 09:59:46.6	116.570	0.230	-0.790	0.690
2020/01/31 09:59:46.7	116.570	0.290	-0.870	0.720
2020/01/31 09:59:46.8	116.580	0.340	-0.940	0.750
2020/01/31 09:59:46.9	116.590	0.380	-1.010	0.770
2020/01/31 09:59:47.0	116.590	0.430	-1.080	0.800
2020/01/31 09:59:47.1	116.600	0.480	-1.140	0.830
2020/01/31 09:59:47.2	116.600	0.520	-1.200	0.860
2020/01/31 09:59:47.3	116.600	0.570	-1.250	0.900
2020/01/31 09:59:47.4	116.590	0.610	-1.290	0.940
2020/01/31 09:59:47.5	116.590	0.640	-1.330	0.970
2020/01/31 09:59:47.6	116.580	0.680	-1.360	1.010
2020/01/31 09:59:47.7	116.580	0.710	-1.390	1.050
2020/01/31 09:59:47.8	116.580	0.740	-1.400	1.090
2020/01/31 09:59:47.9	116.580	0.760	-1.410	1.130
2020/01/31 09:59:48.0	116.570	0.780	-1.400	1.170
2020/01/31 09:59:48.1	116.570	0.800	-1.390	1.210
2020/01/31 09:59:48.2	116.570	0.810	-1.370	1.260
2020/01/31 09:59:48.3	116.560	0.820	-1.340	1.290
2020/01/31 09:59:48.4	116.560	0.830	-1.290	1.330
2020/01/31 09:59:48.5	116.560	0.830	-1.240	1.360
2020/01/31 09:59:48.6	116.560	0.820	-1.180	1.400
2020/01/31 09:59:48.7	116.560	0.810	-1.110	1.430
2020/01/31 09:59:48.8	116.560	0.800	-1.030	1.460
2020/01/31 09:59:48.9	116.560	0.780	-0.940	1.480
2020/01/31 09:59:49.0	116.560	0.750	-0.850	1.500
2020/01/31 09:59:49.1	116.560	0.730	-0.740	1.520
2020/01/31 09:59:49.2	116.570	0.690	-0.630	1.540
2020/01/31 09:59:49.3	116.570	0.660	-0.520	1.550
2020/01/31 09:59:49.4	116.590	0.620	-0.400	1.550
2020/01/31 09:59:49.5	116.600	0.570	-0.270	1.550
2020/01/31 09:59:49.6	116.610	0.530	-0.140	1.550
2020/01/31 09:59:49.7	116.620	0.480	-0.010	1.550
2020/01/31 09:59:49.8	116.630	0.420	0.120	1.540
2020/01/31 09:59:49.9	116.640	0.370	0.250	1.530
2020/01/31 09:59:50.0	116.650	0.310	0.390	1.510
2020/01/31 09:59:50.1	116.670	0.250	0.510	1.490
2020/01/31 09:59:50.2	116.680	0.190	0.640	1.470
2020/01/31 09:59:50.3	116.690	0.130	0.760	1.450
2020/01/31 09:59:50.4	116.700	0.070	0.880	1.420
2020/01/31 09:59:50.5	116.710	0.010	0.990	1.400
2020/01/31 09:59:50.6	116.720	-0.050	1.090	1.370
2020/01/31 09:59:50.7	116.730	-0.110	1.180	1.340
2020/01/31 09:59:50.8	116.740	-0.170	1.260	1.320
2020/01/31 09:59:50.9	116.750	-0.220	1.330	1.290
2020/01/31 09:59:51.0	116.750	-0.270	1.380	1.260
2020/01/31 09:59:51.1	116.750	-0.320	1.430	1.230
2020/01/31 09:59:51.2	116.760	-0.370	1.460	1.210
2020/01/31 09:59:51.3	116.760	-0.410	1.480	1.180
2020/01/31 09:59:51.4	116.740	-0.450	1.480	1.160
2020/01/31 09:59:51.5	116.740	-0.490	1.480	1.140
2020/01/31 09:59:51.6	116.730	-0.520	1.460	1.120
2020/01/31 09:59:51.7	116.720	-0.540	1.420	1.100
2020/01/31 09:59:51.8	116.710	-0.560	1.380	1.080
2020/01/31 09:59:51.9	116.700	-0.580	1.320	1.070
2020/01/31 09:59:52.0	116.690	-0.590	1.250	1.060
2020/01/31 09:59:52.1	116.670	-0.590	1.160	1.050
2020/01/31 09:59:52.2	116.660	-0.590	1.070	1.040
2020/01/31 09:59:52.3	116.640	-0.590	0.960	1.030
2020/01/31 09:59:52.4	116.620	-0.580	0.850	1.020
2020/01/31 09:59:52.5	116.600	-0.560	0.730	1.020
2020/01/31 09:59:52.6	116.570	-0.540	0.600	1.020
2020/01/31 09:59:52.7	116.550	-0.520	0.460	1.010
2020/01/31 09:59:52.8	116.530	-0.490	0.320	1.010
2020/01/31 09:59:52.9	116.510	-0.460	0.180	1.000
2020/01/31 09:59:53.0	116.480	-0.430	0.030	1.000
2020/01/31 09:59:53.1	116.460	-0.400	-0.120	0.990
2020/01/31 09:59:53.2	116.440	-0.360	-0.270	0.980
2020/01/31 09:59:53.3	116.420	-0.320	-0.420	0.970
2020/01/31 09:59:53.4	116.400	-0.280	-0.560	0.950
2020/01/31 09:59:53.5	116.390	-0.240	-0.710	0.940
2020/01/31 09:59:53.6	116.370	-0.200	-0.840	0.920
2020/01/31 09:59:53.7	116.360	-0.160	-0.970	0.890
2020/01/31 09:59:53.8	116.350	-0.130	-1.090	0.860
2020/01/31 09:59:53.9	116.340	-0.090	-1.210	0.830
2020/01/31 09:59:54.0	116.330	-0.050	-1.310	0.800
2020/01/31 09:59:54.1	116.330	-0.020	-1.410	0.760
2020/01/31 09:59:54.2	116.330	0.010	-1.490	0.720
2020/01/31 09:59:54.3	116.330	0.040	-1.560	0.680
2020/01/31 09:59:54.4	116.350	0.070	-1.620	0.630
2020/01/31 09:59:54.5	116.360	0.090	-1.660	0.590
2020/01/31 09:59:54.6	116.370	0.110	-1.700	0.540
2020/01/31 09:59:54.7	116.380	0.130	-1.720	0.490
2020/01/31 09:59:54.8	116.390	0.140	-1.720	0.440
2020/01/31 09:59:54.9	116.410	0.150	-1.710	0.400
2020/01/31 09:59:55.0	116.430	0.150	-1.690	0.350
2020/01/31 09:59:55.1	116.450	0.160	-1.660	0.300
2020/01/31 09:59:55.2	116.470	0.160	-1.620	0.260
2020/01/31 09:59:55.3	116.500	0.150	-1.560	0.220
2020/01/31 09:59:55.4	116.530	0.140	-1.490	0.190
2020/01/31 09:59:55.5	116.550	0.130	-1.420	0.150
2020/01/31 09:59:55.6	116.580	0.120	-1.330	0.120
2020/01/31 09:59:55.7	116.610	0.100	-1.240	0.090
2020/01/31 09:59:55.8	116.630	0.080	-1.140	0.060
2020/01/31 09:59:55.9	116.660	0.060	-1.030	0.040
2020/01/31 09:59:56.0	116.680	0.040	-0.920	0.020
2020/01/31 09:59:56.1	116.710	0.020	-0.800	0.000
2020/01/31 09:59:56.2	116.730	-0.010	-0.680	-0.010
2020/01/31 09:59:56.3	116.760	-0.030	-0.560	-0.010
2020/01/31 09:59:56.4	116.780	-0.060	-0.440	-0.010
2020/01/31 09:59:56.5	116.800	-0.090	-0.320	-0.010
2020/01/31 09:59:56.6	116.820	-0.120	-0.210	-0.000
2020/01/31 09:59:56.7	116.840	-0.140	-0.090	0.010
2020/01/31 09:59:56.8	116.850	-0.170	0.020	0.020
2020/01/31 09:59:56.9	116.870	-0.190	0.120	0.040
2020/01/31 09:59:57.0	116.880	-0.220	0.220	0.070
2020/01/31 09:59:57.1	116.890	-0.240	0.310	0.090
2020/01/31 09:59:57.2	116.900	-0.260	0.400	0.120
2020/01/31 09:59:57.3	116.900	-0.280	0.470	0.150
2020/01/31 09:59:57.4	116.900	-0.300	0.540	0.180
2020/01/31 09:59:57.5	116.910	-0.310	0.590	0.220
2020/01/31 09:59:57.6	116.910	-0.320	0.640	0.260
2020/01/31 09:59:57.7	116.920	-0.330	0.680	0.290
2020/01/31 09:59:57.8	116.920	-0.340	0.710	0.330
2020/01/31 09:59:57.9	116.920	-0.340	0.730	0.370
2020/01/31 09:59:58.0	116.920	-0.340	0.740	0.410
2020/01/31 09:59:58.1	116.920	-0.340	0.740	0.440
2020/01/31 09:59:58.2	116.930	-0.330	0.730	0.480
2020/01/31 09:59:58.3	116.930	-0.330	0.710	0.510
2020/01/31 09:59:58.4	116.930	-0.320	0.680	0.540
2020/01/31 09:59:58.5	116.930	-0.300	0.650	0.570
2020/01/31 09:59:58.6	116.940	-0.290	0.610	0.590
2020/01/31 09:59:58.7	116.940	-0.270	0.560	0.610
2020/01/31 09:59:58.8	116.940	-0.250	0.510	0.630
2020/01/31 09:59:58.9	116.950	-0.230	0.450	0.650
2020/01/31 09:59:59.0	116.950	-0.210	0.390	0.670
2020/01/31 09:59:59.1	116.950	-0.190	0.330	0.680
2020/01/31 09:59:59.2	116.960	-0.160	0.260	0.690
2020/01/31 09:59:59.3	116.960	-0.140	0.190	0.700
2020/01/31 09:59:59.4	116.980	-0.110	0.130	0.710
2020/01/31 09:59:59.5	116.980	-0.090	0.060	0.720
2020/01/31 09:59:59.6	116.990	-0.060	-0.010	0.720
2020/01/31 09:59:59.7	116.990	-0.040	-0.070	0.730
2020/01/31 09:59:59.8	116.990	-0.010	-0.140	0.740
2020/01/31 09:59:59.9	116.990	0.010	-0.200	0.740
2020/01/31 10:00:00.0	116.990	0.030	-0.250	0.750
2020/01/31 10:00:00.1	116.990	0.050	-0.310	0.760
2020/01/31 10:00:00.2	116.980	0.070	-0.360	0.770
2020/01/31 10:00:00.3	116.980	0.090	-0.400	0.780
2020/01/31 10:00:00.4	116.970	0.100	-0.440	0.790
2020/01/31 10:00:00.5	116.960	0.110	-0.470	0.800
2020/01/31 10:00:00.6	116.950	0.130	-0.500	0.810
2020/01/31 10:00:00.7	116.940	0.130	-0.520	0.830
2020/01/31 10:00:00.8	116.930	0.140	-0.540	0.850
2020/01/31 10:00:00.9	116.910	0.140	-0.550	0.870
2020/01/31 10:00:01.0	116.890	0.150	-0.550	0.890
2020/01/31 10:00:01.1	116.880	0.150	-0.550	0.910
2020/01/31 10:00:01.2	116.860	0.150	-0.550	0.930
2020/01/31 10:00:01.3	116.840	0.140	-0.540	0.950
2020/01/31 10:00:01.4	116.830	0.140	-0.520	0.980
2020/01/31 10:00:01.5	116.810	0.130	-0.500	1.000
2020/01/31 10:00:01.6	116.790	0.130	-0.480	1.020
2020/01/31 10:00:01.7	116.770	0.120	-0.450	1.050
2020/01/31 10:00:01.8	116.750	0.110	-0.420	1.070
2020/01/31 10:00:01.9	116.730	0.100	-0.390	1.080
2020/01/31 10:00:02.0	116.720	0.090	-0.350	1.100
2020/01/31 10:00:02.1	116.700	0.080	-0.310	1.110
2020/01/31 10:00:02.2	116.690	0.070	-0.270	1.130
2020/01/31 10:00:02.3	116.680	0.060	-0.230	1.130
2020/01/31 10:00:02.4	116.670	0.050	-0.190	1.140
2020/01/31 10:00:02.5	116.660	0.040	-0.160	1.140
2020/01/31 10:00:02.6	116.660	0.040	-0.120	1.130
2020/01/31 10:00:02.7	116.650	0.030	-0.080	1.130
2020/01/31 10:00:02.8	116.660	0.020	-0.040	1.110
2020/01/31 10:00:02.9	116.660	0.020	-0.010	1.090
2020/01/31 10:00:03.0	116.670	0.020	0.030	1.070
2020/01/31 10:00:03.1	116.680	0.020	0.060	1.040
2020/01/31 10:00:03.2	116.690	0.020	0.080	1.010
2020/01/31 10:00:03.3	116.710	0.020	0.110	0.980
2020/01/31 10:00:03.4	116.720	0.030	0.130	0.930
2020/01/31 10:00:03.5	116.750	0.030	0.150	0.890
2020/01/31 10:00:03.6	116.770	0.040	0.170	0.840
2020/01/31 10:00:03.7	116.800	0.050	0.180	0.790
2020/01/31 10:00:03.8	116.830	0.060	0.190	0.740
2020/01/31 10:00:03.9	116.860	0.070	0.200	0.680
2020/01/31 10:00:04.0	116.890	0.080	0.200	0.620
2020/01/31 10:00:04.1	116.930	0.100	0.200	0.560
2020/01/31 10:00:04.2	116.970	0.110	0.200	0.500
2020/01/31 10:00:04.3	117.000	0.130	0.200	0.430
2020/01/31 10:00:04.4	117.040	0.150	0.190	0.370
2020/01/31 10:00:04.5	117.080	0.170	0.180	0.300
2020/01/31 10:00:04.6	117.120	0.180	0.160	0.240
2020/01/31 10:00:04.7	117.150	0.200	0.150	0.180
2020/01/31 10:00:04.8	117.190	0.220	0.130	0.110
2020/01/31 10:00:04.9	117.230	0.240	0.100	0.050
2020/01/31 10:00:05.0	117.260	0.260	0.080	-0.000
2020/01/31 10:00:05.1	117.290	0.280	0.050	-0.060
2020/01/31 10:00:05.2	117.330	0.290	0.020	-0.110
2020/01/31 10:00:05.3	117.350	0.310	-0.010	-0.150
2020/01/31 10:00:05.4	117.380	0.330	-0.040	-0.200
2020/01/31 10:00:05.5	117.400	0.340	-0.070	-0.240
2020/01/31 10:00:05.6	117.420	0.350	-0.110	-0.270
2020/01/31 10:00:05.7	117.440	0.370	-0.140	-0.300
2020/01/31 10:00:05.8	117.460	0.380	-0.180	-0.320
2020/01/31 10:00:05.9	117.470	0.390	-0.220	-0.340
2020/01/31 10:00:06.0	117.480	0.390	-0.250	-0.350
2020/01/31 10:00:06.1	117.490	0.400	-0.290	-0.360
2020/01/31 10:00:06.2	117.500	0.400	-0.320	-0.360
2020/01/31 10:00:06.3	117.500	0.410	-0.360	-0.360
2020/01/31 10:00:06.4	117.490	0.410	-0.390	-0.350
2020/01/31 10:00:06.5	117.490	0.410	-0.420	-0.330
2020/01/31 10:00:06.6	117.480	0.410	-0.450	-0.310
2020/01/31 10:00:06.7	117.470	0.400	-0.480	-0.290
2020/01/31 10:00:06.8	117.460	0.400	-0.510	-0.260
2020/01/31 10:00:06.9	117.440	0.390	-0.530	-0.220
2020/01/31 10:00:07.0	117.430	0.390	-0.550	-0.180
2020/01/31 10:00:07.1	117.410	0.380	-0.580	-0.140
2020/01/31 10:00:07.2	117.390	0.370	-0.590	-0.090
2020/01/31 10:00:07.3	117.370	0.360	-0.610	-0.040
2020/01/31 10:00:07.4	117.330	0.340	-0.620	0.010
2020/01/31 10:00:07.5	117.310	0.330	-0.630	0.060
2020/01/31 10:00:07.6	117.290	0.320	-0.630	0.120
2020/01/31 10:00:07.7	117.270	0.300	-0.640	0.180
2020/01/31 10:00:07.8	117.240	0.290	-0.640	0.240
2020/01/31 10:00:07.9	117.220	0.270	-0.630	0.300
2020/01/31 10:00:08.0	117.200	0.250	-0.630	0.360
2020/01/31 10:00:08.1	117.180	0.230	-0.620	0.420
2020/01/31 10:00:08.2	117.160	0.220	-0.610	0.480
2020/01/31 10:00:08.3	117.150	0.200	-0.590	0.540
2020/01/31 10:00:08.4	117.130	0.180	-0.570	0.600
2020/01/31 10:00:08.5	117.110	0.150	-0.550	0.660
2020/01/31 10:00:08.6	117.090	0.130	-0.530	0.720
2020/01/31 10:00:08.7	117.080	0.110	-0.500	0.780
2020/01/31 10:00:08.8	117.060	0.080	-0.470	0.840
2020/01/31 10:00:08.9	117.050	0.060	-0.430	0.900
2020/01/31 10:00:09.0	117.040	0.030	-0.400	0.960
2020/01/31 10:00:09.1	117.030	0.010	-0.360	1.010
2020/01/31 10:00:09.2	117.020	-0.020	-0.320	1.070
2020/01/31 10:00:09.3	117.010	-0.050	-0.280	1.130
2020/01/31 10:00:09.4	117.010	-0.080	-0.240	1.190
2020/01/31 10:00:09.5	117.010	-0.110	-0.190	1.240
2020/01/31 10:00:09.6	117.000	-0.140	-0.150	1.290
2020/01/31 10:00:09.7	116.990	-0.170	-0.110	1.350
2020/01/31 10:00:09.8	116.990	-0.200	-0.060	1.400
2020/01/31 10:00:09.9	116.980	-0.230	-0.020	1.440
2020/01/31 10:00:10.0	116.980	-0.260	0.020	1.490
2020/01/31 10:00:10.1	116.980	-0.290	0.060	1.530
2020/01/31 10:00:10.2	116.980	-0.320	0.090	1.570
2020/01/31 10:00:10.3	116.980	-0.350	0.130	1.610
2020/01/31 10:00:10.4	117.000	-0.380	0.160	1.650
2020/01/31 10:00:10.5	117.000	-0.400	0.190	1.680
2020/01/31 10:00:10.6	117.010	-0.430	0.220	1.710
2020/01/31 10:00:10.7	117.020	-0.450	0.240	1.740
2020/01/31 10:00:10.8	117.020	-0.480	0.260	1.760
2020/01/31 10:00:10.9	117.030	-0.500	0.280	1.780
2020/01/31 10:00:11.0	117.040	-0.520	0.290	1.800
2020/01/31 10:00:11.1	117.050	-0.530	0.300	1.820
2020/01/31 10:00:11.2	117.060	-0.550	0.300	1.830
2020/01/31 10:00:11.3	117.080	-0.560	0.300	1.840
2020/01/31 10:00:11.4	117.090	-0.570	0.290	1.850
2020/01/31 10:00:11.5	117.100	-0.580	0.280	1.860
2020/01/31 10:00:11.6	117.120	-0.580	0.270	1.860
2020/01/31 10:00:11.7	117.130	-0.580	0.250	1.860
2020/01/31 10:00:11.8	117.150	-0.580	0.230	1.860
2020/01/31 10:00:11.9	117.160	-0.580	0.200	1.860
2020/01/31 10:00:12.0	117.170	-0.570	0.170	1.850
2020/01/31 10:00:12.1	117.180	-0.560	0.130	1.840
2020/01/31 10:00:12.2	117.200	-0.550	0.100	1.830
2020/01/31 10:00:12.3	117.210	-0.530	0.050	1.820
2020/01/31 10:00:12.4	117.230	-0.510	0.010	1.800
2020/01/31 10:00:12.5	117.240	-0.490	-0.030	1.780
2020/01/31 10:00:12.6	117.250	-0.470	-0.080	1.760
2020/01/31 10:00:12.7	117.270	-0.450	-0.130	1.740
2020/01/31 10:00:12.8	117.280	-0.420	-0.170	1.710
2020/01/31 10:00:12.9	117.280	-0.390	-0.220	1.680
2020/01/31 10:00:13.0	117.300	-0.370	-0.270	1.650
2020/01/31 10:00:13.1	117.300	-0.340	-0.310	1.610
2020/01/31 10:00:13.2	117.310	-0.310	-0.350	1.570
2020/01/31 10:00:13.3	117.320	-0.280	-0.390	1.530
2020/01/31 10:00:13.4	117.340	-0.250	-0.430	1.480
2020/01/31 10:00:13.5	117.350	-0.220	-0.460	1.430
2020/01/31 10:00:13.6	117.360	-0.190	-0.490	1.380
2020/01/31 10:00:13.7	117.370	-0.160	-0.510	1.330
2020/01/31 10:00:13.8	117.380	-0.130	-0.530	1.270
2020/01/31 10:00:13.9	117.390	-0.100	-0.550	1.220
2020/01/31 10:00:14.0	117.400	-0.080	-0.560	1.160
2020/01/31 10:00:14.1	117.400	-0.050	-0.560	1.110
2020/01/31 10:00:14.2	117.410	-0.030	-0.560	1.050
2020/01/31 10:00:14.3	117.410	-0.000	-0.550	0.990
2020/01/31 10:00:14.4	117.420	0.020	-0.540	0.930
2020/01/31 10:00:14.5	117.430	0.040	-0.520	0.880
2020/01/31 10:00:14.6	117.430	0.050	-0.500	0.820
2020/01/31 10:00:14.7	117.420	0.070	-0.470	0.770
2020/01/31 10:00:14.8	117.420	0.080	-0.440	0.710
2020/01/31 10:00:14.9	117.420	0.100	-0.410	0.660
2020/01/31 10:00:15.0	117.410	0.110	-0.370	0.600
2020/01/31 10:00:15.1	117.410	0.120	-0.330	0.550
2020/01/31 10:00:15.2	117.400	0.120	-0.280	0.500
2020/01/31 10:00:15.3	117.390	0.130	-0.230	0.450
2020/01/31 10:00:15.4	117.380	0.140	-0.180	0.400
2020/01/31 10:00:15.5	117.370	0.140	-0.130	0.360
2020/01/31 10:00:15.6	117.360	0.140	-0.080	0.310
2020/01/31 10:00:15.7	117.350	0.140	-0.030	0.270
2020/01/31 10:00:15.8	117.340	0.140	0.030	0.230
2020/01/31 10:00:15.9	117.330	0.140	0.080	0.190
2020/01/31 10:00:16.0	117.320	0.140	0.130	0.150
2020/01/31 10:00:16.1	117.310	0.140	0.170	0.110
2020/01/31 10:00:16.2	117.300	0.140	0.220	0.070
2020/01/31 10:00:16.3	117.290	0.130	0.260	0.040
2020/01/31 10:00:16.4	117.260	0.130	0.300	-0.000
2020/01/31 10:00:16.5	117.250	0.130	0.330	-0.030
2020/01/31 10:00:16.6	117.240	0.130	0.360	-0.060
2020/01/31 10:00:16.7	117.230	0.120	0.380	-0.090
2020/01/31 10:00:16.8	117.230	0.120	0.400	-0.120
2020/01/31 10:00:16.9	117.220	0.120	0.410	-0.150
2020/01/31 10:00:17.0	117.210	0.120	0.420	-0.170
2020/01/31 10:00:17.1	117.200	0.130	0.420	-0.200
2020/01/31 10:00:17.2	117.200	0.130	0.410	-0.220
2020/01/31 10:00:17.3	117.190	0.130	0.390	-0.240
2020/01/31 10:00:17.4	117.170	0.140	0.370	-0.260
2020/01/31 10:00:17.5	117.160	0.140	0.340	-0.280
2020/01/31 10:00:17.6	117.160	0.150	0.310	-0.300
2020/01/31 10:00:17.7	117.150	0.160	0.270	-0.310
2020/01/31 10:00:17.8	117.140	0.170	0.220	-0.330
2020/01/31 10:00:17.9	117.130	0.180	0.170	-0.340
2020/01/31 10:00:18.0	117.120	0.190	0.110	-0.350
2020/01/31 10:00:18.1	117.110	0.210	0.040	-0.360
2020/01/31 10:00:18.2	117.100	0.220	-0.020	-0.370
2020/01/31 10:00:18.3	117.090	0.240	-0.100	-0.370
2020/01/31 10:00:18.4	117.080	0.260	-0.170	-0.370
2020/01/31 10:00:18.5	117.060	0.280	-0.250	-0.380
2020/01/31 10:00:18.6	117.050	0.290	-0.320	-0.380
2020/01/31 10:00:18.7	117.040	0.310	-0.400	-0.380
2020/01/31 10:00:18.8	117.030	0.330	-0.480	-0.380
2020/01/31 10:00:18.9	117.010	0.350	-0.560	-0.380
2020/01/31 10:00:19.0	117.000	0.370	-0.640	-0.370
2020/01/31 10:00:19.1	116.990	0.390	-0.710	-0.370
2020/01/31 10:00:19.2	116.980	0.400	-0.780	-0.360
2020/01/31 10:00:19.3	116.970	0.420	-0.840	-0.350
2020/01/31 10:00:19.4	116.950	0.430	-0.900	-0.340
2020/01/31 10:00:19.5	116.940	0.450	-0.950	-0.330
2020/01/31 10:00:19.6	116.940	0.460	-1.000	-0.320
2020/01/31 10:00:19.7	116.930	0.470	-1.040	-0.300
2020/01/31 10:00:19.8	116.920	0.470	-1.070	-0.280
2020/01/31 10:00:19.9	116.920	0.480	-1.090	-0.270
2020/01/31 10:00:20.0	116.920	0.480	-1.110	-0.240
2020/01/31 10:00:20.1	116.920	0.480	-1.110	-0.220
2020/01/31 10:00:20.2	116.920	0.470	-1.110	-0.200
2020/01/31 10:00:20.3	116.920	0.460	-1.100	-0.170
2020/01/31 10:00:20.4	116.920	0.450	-1.080	-0.140
2020/01/31 10:00:20.5	116.930	0.440	-1.050	-0.110
2020/01/31 10:00:20.6	116.940	0.420	-1.010	-0.070
2020/01/31 10:00:20.7	116.950	0.400	-0.960	-0.030
2020/01/31 10:00:20.8	116.960	0.380	-0.900	0.010
2020/01/31 10:00:20.9	116.970	0.350	-0.840	0.050
2020/01/31 10:00:21.0	116.980	0.320	-0.770	0.100
2020/01/31 10:00:21.1	117.000	0.290	-0.690	0.140
2020/01/31 10:00:21.2	117.010	0.250	-0.610	0.190
2020/01/31 10:00:21.3	117.030	0.220	-0.520	0.240
2020/01/31 10:00:21.4	117.040	0.180	-0.430	0.300
2020/01/31 10:00:21.5	117.050	0.140	-0.330	0.360
2020/01/31 10:00:21.6	117.060	0.090	-0.240	0.420
2020/01/31 10:00:21.7	117.080	0.050	-0.140	0.480
2020/01/31 10:00:21.8	117.090	0.010	-0.040	0.540
2020/01/31 10:00:21.9	117.100	-0.040	0.060	0.610
2020/01/31 10:00:22.0	117.110	-0.080	0.160	0.680
2020/01/31 10:00:22.1	117.120	-0.130	0.250	0.750
2020/01/31 10:00:22.2	117.130	-0.170	0.340	0.820
2020/01/31 10:00:22.3	117.130	-0.220	0.430	0.890
2020/01/31 10:00:22.4	117.120	-0.260	0.510	0.970
2020/01/31 10:00:22.5	117.120	-0.300	0.590	1.050
2020/01/31 10:00:22.6	117.110	-0.340	0.660	1.120
2020/01/31 10:00:22.7	117.110	-0.380	0.720	1.200
2020/01/31 10:00:22.8	117.100	-0.410	0.780	1.280
2020/01/31 10:00:22.9	117.090	-0.440	0.830	1.350
2020/01/31 10:00:23.0	117.070	-0.470	0.870	1.430
2020/01/31 10:00:23.1	117.060	-0.500	0.900	1.500
2020/01/31 10:00:23.2	117.040	-0.520	0.930	1.570
2020/01/31 10:00:23.3	117.020	-0.540	0.940	1.640
2020/01/31 10:00:23.4	117.000	-0.550	0.950	1.710
2020/01/31 10:00:23.5	116.980	-0.560	0.950	1.770
2020/01/31 10:00:23.6	116.950	-0.570	0.940	1.830
2020/01/31 10:00:23.7	116.920	-0.580	0.920	1.880
2020/01/31 10:00:23.8	116.890	-0.570	0.900	1.930
2020/01/31 10:00:23.9	116.860	-0.570	0.860	1.980
2020/01/31 10:00:24.0	116.830	-0.560	0.820	2.020
2020/01/31 10:00:24.1	116.800	-0.550	0.770	2.060
2020/01/31 10:00:24.2	116.760	-0.530	0.720	2.090
2020/01/31 10:00:24.3	116.730	-0.510	0.650	2.120
2020/01/31 10:00:24.4	116.710	-0.490	0.590	2.140
2020/01/31 10:00:24.5	116.680	-0.460	0.510	2.160
2020/01/31 10:00:24.6	116.650	-0.430	0.440	2.170
2020/01/31 10:00:24.7	116.610	-0.400	0.350	2.180
2020/01/31 10:00:24.8	116.580	-0.370	0.270	2.190
2020/01/31 10:00:24.9	116.550	-0.330	0.180	2.190
2020/01/31 10:00:25.0	116.530	-0.300	0.090	2.180
2020/01/31 10:00:25.1	116.500	-0.260	0.000	2.170
2020/01/31 10:00:25.2	116.480	-0.220	-0.090	2.160
2020/01/31 10:00:25.3	116.460	-0.180	-0.180	2.140
2020/01/31 10:00:25.4	116.460	-0.140	-0.270	2.120
2020/01/31 10:00:25.5	116.450	-0.100	-0.360	2.090
2020/01/31 10:00:25.6	116.430	-0.060	-0.450	2.060
2020/01/31 10:00:25.7	116.420	-0.020	-0.530	2.030
2020/01/31 10:00:25.8	116.420	0.020	-0.610	1.990
2020/01/31 10:00:25.9	116.410	0.060	-0.690	1.950
2020/01/31 10:00:26.0	116.410	0.100	-0.760	1.910
2020/01/31 10:00:26.1	116.410	0.130	-0.830	1.870
2020/01/31 10:00:26.2	116.410	0.170	-0.890	1.820
2020/01/31 10:00:26.3	116.420	0.200	-0.940	1.770
2020/01/31 10:00:26.4	116.420	0.230	-0.990	1.720
2020/01/31 10:00:26.5	116.420	0.260	-1.040	1.670
2020/01/31 10:00:26.6	116.430	0.280	-1.070	1.620
2020/01/31 10:00:26.7	116.450	0.310	-1.100	1.570
2020/01/31 10:00:26.8	116.460	0.330	-1.120	1.510
2020/01/31 10:00:26.9	116.470	0.350	-1.140	1.460
2020/01/31 10:00:27.0	116.480	0.360	-1.150	1.410
2020/01/31 10:00:27.1	116.490	0.380	-1.150	1.350
2020/01/31 10:00:27.2	116.510	0.390	-1.150	1.300
2020/01/31 10:00:27.3	116.520	0.390	-1.130	1.240
2020/01/31 10:00:27.4	116.530	0.400	-1.120	1.190
2020/01/31 10:00:27.5	116.540	0.400	-1.090	1.130
2020/01/31 10:00:27.6	116.550	0.400	-1.060	1.080
2020/01/31 10:00:27.7	116.560	0.400	-1.030	1.020
2020/01/31 10:00:27.8	116.570	0.400	-0.990	0.970
2020/01/31 10:00:27.9	116.580	0.390	-0.940	0.920
2020/01/31 10:00:28.0	116.580	0.380	-0.890	0.860
2020/01/31 10:00:28.1	116.590	0.370	-0.840	0.810
2020/01/31 10:00:28.2	116.590	0.360	-0.780	0.750
2020/01/31 10:00:28.3	116.600	0.350	-0.720	0.700
2020/01/31 10:00:28.4	116.610	0.330	-0.650	0.640
2020/01/31 10:00:28.5	116.610	0.320	-0.590	0.590
2020/01/31 10:00:28.6	116.610	0.300	-0.520	0.540
2020/01/31 10:00:28.7	116.610	0.280	-0.450	0.480
2020/01/31 10:00:28.8	116.600	0.260	-0.380	0.430
2020/01/31 10:00:28.9	116.600	0.240	-0.310	0.370
2020/01/31 10:00:29.0	116.590	0.220	-0.250	0.310
2020/01/31 10:00:29.1	116.580	0.200	-0.180	0.260
2020/01/31 10:00:29.2	116.580	0.180	-0.120	0.200
2020/01/31 10:00:29.3	116.570	0.160	-0.050	0.150
2020/01/31 10:00:29.4	116.530	0.140	0.000	0.090
2020/01/31 10:00:29.5	116.510	0.120	0.060	0.030
2020/01/31 10:00:29.6	116.500	0.100	0.120	-0.020
2020/01/31 10:00:29.7	116.490	0.080	0.170	-0.080
2020/01/31 10:00:29.8	116.470	0.060	0.220	-0.130
2020/01/31 10:00:29.9	116.450	0.050	0.270	-0.190
2020/01/31 10:00:30.0	116.440	0.030	0.310	-0.240
2020/01/31 10:00:30.1	116.420	0.010	0.350	-0.290
2020/01/31 10:00:30.2	116.400	-0.010	0.390	-0.340
2020/01/31 10:00:30.3	116.380	-0.020	0.420	-0.390
2020/01/31 10:00:30.4	116.350	-0.040	0.450	-0.440
2020/01/31 10:00:30.5	116.320	-0.050	0.480	-0.480
2020/01/31 10:00:30.6	116.300	-0.070	0.500	-0.520
2020/01/31 10:00:30.7	116.280	-0.080	0.520	-0.550
2020/01/31 10:00:30.8	116.250	-0.100	0.530	-0.580
2020/01/31 10:00:30.9	116.230	-0.110	0.540	-0.610
2020/01/31 10:00:31.0	116.200	-0.120	0.550	-0.630
2020/01/31 10:00:31.1	116.170	-0.140	0.550	-0.640
2020/01/31 10:00:31.2	116.140	-0.150	0.550	-0.650
2020/01/31 10:00:31.3	116.110	-0.160	0.540	-0.660
2020/01/31 10:00:31.4	116.060	-0.180	0.540	-0.660
2020/01/31 10:00:31.5	116.020	-0.190	0.520	-0.650
2020/01/31 10:00:31.6	115.990	-0.200	0.510	-0.640
2020/01/31 10:00:31.7	115.950	-0.220	0.490	-0.620
2020/01/31 10:00:31.8	115.920	-0.230	0.470	-0.600
2020/01/31 10:00:31.9	115.880	-0.240	0.440	-0.580
2020/01/31 10:00:32.0	115.840	-0.250	0.410	-0.550
2020/01/31 10:00:32.1	115.810	-0.260	0.380	-0.510
2020/01/31 10:00:32.2	115.770	-0.280	0.350	-0.470
2020/01/31 10:00:32.3	115.730	-0.290	0.320	-0.430
2020/01/31 10:00:32.4	115.700	-0.300	0.280	-0.380
2020/01/31 10:00:32.5	115.670	-0.310	0.240	-0.340
2020/01/31 10:00:32.6	115.640	-0.320	0.200	-0.290
2020/01/31 10:00:32.7	115.610	-0.320	0.160	-0.240
2020/01/31 10:00:32.8	115.580	-0.330	0.120	-0.190
2020/01/31 10:00:32.9	115.550	-0.340	0.070	-0.140
2020/01/31 10:00:33.0	115.530	-0.340	0.020	-0.090
2020/01/31 10:00:33.1	115.500	-0.350	-0.020	-0.040
2020/01/31 10:00:33.2	115.480	-0.350	-0.070	0.010
2020/01/31 10:00:33.3	115.470	-0.350	-0.120	0.050
2020/01/31 10:00:33.4	115.460	-0.350	-0.170	0.090
2020/01/31 10:00:33.5	115.440	-0.340	-0.220	0.130
2020/01/31 10:00:33.6	115.430	-0.340	-0.280	0.170
2020/01/31 10:00:33.7	115.420	-0.330	-0.330	0.210
2020/01/31 10:00:33.8	115.420	-0.320	-0.380	0.250
2020/01/31 10:00:33.9	115.410	-0.310	-0.430	0.280
2020/01/31 10:00:34.0	115.410	-0.300	-0.480	0.310
2020/01/31 10:00:34.1	115.410	-0.280	-0.530	0.340
2020/01/31 10:00:34.2	115.410	-0.260	-0.580	0.360
2020/01/31 10:00:34.3	115.410	-0.240	-0.630	0.390
2020/01/31 10:00:34.4	115.410	-0.220	-0.680	0.410
2020/01/31 10:00:34.5	115.420	-0.200	-0.730	0.430
2020/01/31 10:00:34.6	115.420	-0.180	-0.770	0.450
2020/01/31 10:00:34.7	115.420	-0.150	-0.820	0.470
2020/01/31 10:00:34.8	115.420	-0.120	-0.860	0.490
2020/01/31 10:00:34.9	115.430	-0.100	-0.900	0.500
2020/01/31 10:00:35.0	115.430	-0.070	-0.930	0.520
2020/01/31 10:00:35.1	115.430	-0.040	-0.960	0.540
2020/01/31 10:00:35.2	115.430	-0.010	-0.990	0.560
2020/01/31 10:00:35.3	115.440	0.020	-1.010	0.580
2020/01/31 10:00:35.4	115.430	0.050	-1.020	0.600
2020/01/31 10:00:35.5	115.430	0.080	-1.040	0.620
2020/01/31 10:00:35.6	115.430	0.110	-1.040	0.640
2020/01/31 10:00:35.7	115.430	0.140	-1.040	0.660
2020/01/31 10:00:35.8	115.420	0.170	-1.030	0.690
2020/01/31 10:00:35.9	115.420	0.190	-1.010	0.710
2020/01/31 10:00:36.0	115.410	0.220	-0.990	0.730
2020/01/31 10:00:36.1	115.410	0.240	-0.960	0.760
2020/01/31 10:00:36.2	115.400	0.260	-0.920	0.790
2020/01/31 10:00:36.3	115.390	0.280	-0.880	0.810
2020/01/31 10:00:36.4	115.380	0.300	-0.830	0.840
2020/01/31 10:00:36.5	115.370	0.310	-0.770	0.870
2020/01/31 10:00:36.6	115.360	0.320	-0.710	0.900
2020/01/31 10:00:36.7	115.350	0.330	-0.640	0.920
2020/01/31 10:00:36.8	115.340	0.330	-0.570	0.950
2020/01/31 10:00:36.9	115.330	0.330	-0.490	0.980
2020/01/31 10:00:37.0	115.320	0.330	-0.410	1.010
2020/01/31 10:00:37.1	115.310	0.330	-0.320	1.030
2020/01/31 10:00:37.2	115.300	0.330	-0.230	1.060
2020/01/31 10:00:37.3	115.280	0.320	-0.140	1.080
2020/01/31 10:00:37.4	115.270	0.310	-0.050	1.110
2020/01/31 10:00:37.5	115.260	0.300	0.040	1.130
2020/01/31 10:00:37.6	115.250	0.280	0.130	1.160
2020/01/31 10:00:37.7	115.230	0.270	0.210	1.180
2020/01/31 10:00:37.8	115.220	0.250	0.300	1.200
2020/01/31 10:00:37.9	115.210	0.230	0.380	1.210
2020/01/31 10:00:38.0	115.190	0.210	0.450	1.230
2020/01/31 10:00:38.1	115.170	0.190	0.520	1.240
2020/01/31 10:00:38.2	115.160	0.170	0.590	1.260
2020/01/31 10:00:38.3	115.140	0.150	0.650	1.270
2020/01/31 10:00:38.4	115.130	0.140	0.690	1.280
2020/01/31 10:00:38.5	115.120	0.120	0.740	1.290
2020/01/31 10:00:38.6	115.100	0.100	0.770	1.290
2020/01/31 10:00:38.7	115.080	0.080	0.800	1.300
2020/01/31 10:00:38.8	115.060	0.070	0.820	1.300
2020/01/31 10:00:38.9	115.040	0.050	0.830	1.300
2020/01/31 10:00:39.0	115.010	0.040	0.830	1.300
2020/01/31 10:00:39.1	114.990	0.030	0.830	1.300
2020/01/31 10:00:39.2	114.970	0.020	0.810	1.290
2020/01/31 10:00:39.3	114.950	0.010	0.790	1.280
2020/01/31 10:00:39.4	114.920	0.010	0.760	1.270
2020/01/31 10:00:39.5	114.900	0.010	0.720	1.260
2020/01/31 10:00:39.6	114.880	0.010	0.680	1.250
2020/01/31 10:00:39.7	114.860	0.010	0.630	1.230
2020/01/31 10:00:39.8	114.840	0.010	0.570	1.220
2020/01/31 10:00:39.9	114.820	0.020	0.510	1.200
2020/01/31 10:00:40.0	114.800	0.030	0.450	1.180
2020/01/31 10:00:40.1	114.780	0.040	0.380	1.160
2020/01/31 10:00:40.2	114.770	0.050	0.310	1.130
2020/01/31 10:00:40.3	114.750	0.060	0.240	1.110
2020/01/31 10:00:40.4	114.720	0.070	0.170	1.080
2020/01/31 10:00:40.5	114.710	0.090	0.090	1.050
2020/01/31 10:00:40.6	114.700	0.100	0.020	1.030
2020/01/31 10:00:40.7	114.690	0.120	-0.050	1.000
2020/01/31 10:00:40.8	114.690	0.130	-0.120	0.970
2020/01/31 10:00:40.9	114.680	0.140	-0.190	0.940
2020/01/31 10:00:41.0	114.670	0.160	-0.260	0.910
2020/01/31 10:00:41.1	114.670	0.170	-0.320	0.880
2020/01/31 10:00:41.2	114.670	0.180	-0.380	0.850
2020/01/31 10:00:41.3	114.670	0.190	-0.440	0.820
2020/01/31 10:00:41.4	114.670	0.200	-0.490	0.790
2020/01/31 10:00:41.5	114.670	0.210	-0.540	0.760
2020/01/31 10:00:41.6	114.670	0.210	-0.580	0.730
2020/01/31 10:00:41.7	114.670	0.210	-0.620	0.700
2020/01/31 10:00:41.8	114.670	0.220	-0.650	0.680
2020/01/31 10:00:41.9	114.670	0.220	-0.680	0.650
2020/01/31 10:00:42.0	114.670	0.210	-0.700	0.630
2020/01/31 10:00:42.1	114.660	0.210	-0.720	0.600
2020/01/31 10:00:42.2	114.660	0.200	-0.740	0.580
2020/01/31 10:00:42.3	114.650	0.190	-0.750	0.560
2020/01/31 10:00:42.4	114.650	0.180	-0.760	0.550
2020/01/31 10:00:42.5	114.640	0.170	-0.760	0.530
2020/01/31 10:00:42.6	114.630	0.160	-0.760	0.520
2020/01/31 10:00:42.7	114.610	0.150	-0.750	0.510
2020/01/31 10:00:42.8	114.600	0.130	-0.740	0.500
2020/01/31 10:00:42.9	114.580	0.110	-0.730	0.500
2020/01/31 10:00:43.0	114.560	0.090	-0.710	0.500
2020/01/31 10:00:43.1	114.550	0.070	-0.700	0.500
2020/01/31 10:00:43.2	114.530	0.050	-0.670	0.500
2020/01/31 10:00:43.3	114.510	0.030	-0.650	0.500
2020/01/31 10:00:43.4	114.480	0.010	-0.630	0.510
2020/01/31 10:00:43.5	114.460	-0.010	-0.600	0.520
2020/01/31 10:00:43.6	114.440	-0.030	-0.570	0.530
2020/01/31 10:00:43.7	114.420	-0.050	-0.540	0.530
2020/01/31 10:00:43.8	114.400	-0.080	-0.510	0.540
2020/01/31 10:00:43.9	114.380	-0.100	-0.470	0.550
2020/01/31 10:00:44.0	114.360	-0.120	-0.430	0.560
2020/01/31 10:00:44.1	114.340	-0.140	-0.400	0.570
2020/01/31 10:00:44.2	114.330	-0.160	-0.360	0.580
2020/01/31 10:00:44.3	114.310	-0.180	-0.320	0.590
2020/01/31 10:00:44.4	114.300	-0.200	-0.280	0.600
2020/01/31 10:00:44.5	114.290	-0.220	-0.250	0.610
2020/01/31 10:00:44.6	114.270	-0.240	-0.210	0.620
2020/01/31 10:00:44.7	114.270	-0.260	-0.170	0.630
2020/01/31 10:00:44.8	114.260	-0.280	-0.130	0.630
2020/01/31 10:00:44.9	114.250	-0.290	-0.100	0.640
2020/01/31 10:00:45.0	114.240	-0.310	-0.060	0.650
2020/01/31 10:00:45.1	114.240	-0.320	-0.030	0.650
2020/01/31 10:00:45.2	114.240	-0.330	-0.000	0.660
2020/01/31 10:00:45.3	114.240	-0.340	0.030	0.660
2020/01/31 10:00:45.4	114.230	-0.350	0.050	0.660
2020/01/31 10:00:45.5	114.230	-0.360	0.080	0.660
2020/01/31 10:00:45.6	114.230	-0.370	0.100	0.660
2020/01/31 10:00:45.7	114.240	-0.380	0.120	0.660
2020/01/31 10:00:45.8	114.240	-0.380	0.140	0.660
2020/01/31 10:00:45.9	114.250	-0.380	0.150	0.660
2020/01/31 10:00:46.0	114.250	-0.390	0.160	0.660
2020/01/31 10:00:46.1	114.260	-0.390	0.170	0.650
2020/01/31 10:00:46.2	114.270	-0.390	0.180	0.650
2020/01/31 10:00:46.3	114.280	-0.380	0.190	0.640
2020/01/31 10:00:46.4	114.280	-0.380	0.190	0.630
2020/01/31 10:00:46.5	114.290	-0.370	0.190	0.630
2020/01/31 10:00:46.6	114.300	-0.370	0.180	0.620
2020/01/31 10:00:46.7	114.310	-0.360	0.180	0.610
2020/01/31 10:00:46.8	114.320	-0.350	0.170	0.600
2020/01/31 10:00:46.9	114.330	-0.340	0.160	0.580
2020/01/31 10:00:47.0	114.340	-0.320	0.150	0.570
2020/01/31 10:00:47.1	114.350	-0.310	0.130	0.560
2020/01/31 10:00:47.2	114.360	-0.300	0.110	0.550
2020/01/31 10:00:47.3	114.370	-0.280	0.090	0.540
2020/01/31 10:00:47.4	114.370	-0.260	0.070	0.530
2020/01/31 10:00:47.5	114.380	-0.240	0.040	0.520
2020/01/31 10:00:47.6	114.380	-0.220	0.020	0.510
2020/01/31 10:00:47.7	114.390	-0.200	-0.010	0.500
2020/01/31 10:00:47.8	114.390	-0.180	-0.040	0.490
2020/01/31 10:00:47.9	114.390	-0.160	-0.070	0.480
2020/01/31 10:00:48.0	114.400	-0.130	-0.100	0.480
2020/01/31 10:00:48.1	114.400	-0.110	-0.130	0.470
2020/01/31 10:00:48.2	114.390	-0.090	-0.170	0.470
2020/01/31 10:00:48.3	114.390	-0.060	-0.200	0.470
2020/01/31 10:00:48.4	114.380	-0.040	-0.230	0.470
2020/01/31 10:00:48.5	114.370	-0.010	-0.260	0.470
2020/01/31 10:00:48.6	114.370	0.010	-0.300	0.470
2020/01/31 10:00:48.7	114.360	0.030	-0.330	0.470
2020/01/31 10:00:48.8	114.350	0.060	-0.360	0.480
2020/01/31 10:00:48.9	114.340	0.080	-0.390	0.480
2020/01/31 10:00:49.0	114.320	0.100	-0.420	0.490
2020/01/31 10:00:49.1	114.310	0.120	-0.440	0.500
2020/01/31 10:00:49.2	114.290	0.140	-0.470	0.510
2020/01/31 10:00:49.3	114.280	0.160	-0.490	0.520
2020/01/31 10:00:49.4	114.240	0.180	-0.510	0.520
2020/01/31 10:00:49.5	114.220	0.200	-0.530	0.540
2020/01/31 10:00:49.6	114.200	0.220	-0.540	0.550
2020/01/31 10:00:49.7	114.180	0.240	-0.550	0.560
2020/01/31 10:00:49.8	114.160	0.260	-0.560	0.570
2020/01/31 10:00:49.9	114.130	0.270	-0.570	0.590
2020/01/31 10:00:50.0	114.110	0.290	-0.580	0.600
2020/01/31 10:00:50.1	114.080	0.300	-0.580	0.620
2020/01/31 10:00:50.2	114.060	0.310	-0.580	0.630
2020/01/31 10:00:50.3	114.030	0.320	-0.570	0.650
2020/01/31 10:00:50.4	114.010	0.330	-0.560	0.660
2020/01/31 10:00:50.5	113.980	0.340	-0.550	0.670
2020/01/31 10:00:50.6	113.960	0.350	-0.540	0.690
2020/01/31 10:00:50.7	113.930	0.360	-0.530	0.700
2020/01/31 10:00:50.8	113.910	0.360	-0.510	0.710
2020/01/31 10:00:50.9	113.880	0.370	-0.490	0.720
2020/01/31 10:00:51.0	113.860	0.370	-0.470	0.720
2020/01/31 10:00:51.1	113.840	0.370	-0.450	0.730
2020/01/31 10:00:51.2	113.820	0.370	-0.430	0.730
2020/01/31 10:00:51.3	113.800	0.370	-0.400	0.740
2020/01/31 10:00:51.4	113.790	0.360	-0.370	0.740
2020/01/31 10:00:51.5	113.770	0.360	-0.340	0.740
2020/01/31 10:00:51.6	113.760	0.350	-0.310	0.740
2020/01/31 10:00:51.7	113.740	0.340	-0.270	0.730
2020/01/31 10:00:51.8	113.730	0.330	-0.240	0.720
2020/01/31 10:00:51.9	113.720	0.320	-0.200	0.720
2020/01/31 10:00:52.0	113.720	0.300	-0.170	0.710
2020/01/31 10:00:52.1	113.710	0.280	-0.130	0.700
2020/01/31 10:00:52.2	113.710	0.270	-0.090	0.680
2020/01/31 10:00:52.3	113.710	0.250	-0.050	0.670
2020/01/31 10:00:52.4	113.700	0.220	-0.020	0.660
2020/01/31 10:00:52.5	113.710	0.200	0.020	0.650
2020/01/31 10:00:52.6	113.720	0.170	0.060	0.630
2020/01/31 10:00:52.7	113.730	0.150	0.090	0.620
2020/01/31 10:00:52.8	113.740	0.120	0.130	0.610
2020/01/31 10:00:52.9	113.750	0.090	0.160	0.600
2020/01/31 10:00:53.0	113.770	0.060	0.200	0.590
2020/01/31 10:00:53.1	113.790	0.030	0.230	0.580
2020/01/31 10:00:53.2	113.810	-0.010	0.260	0.570
2020/01/31 10:00:53.3	113.830	-0.040	0.290	0.560
2020/01/31 10:00:53.4	113.850	-0.070	0.320	0.560
2020/01/31 10:00:53.5	113.880	-0.100	0.340	0.550
2020/01/31 10:00:53.6	113.910	-0.130	0.370	0.550
2020/01/31 10:00:53.7	113.930	-0.170	0.390	0.540
2020/01/31 10:00:53.8	113.960	-0.200	0.410	0.540
2020/01/31 10:00:53.9	113.990	-0.230	0.420	0.540
2020/01/31 10:00:54.0	114.020	-0.250	0.440	0.540
2020/01/31 10:00:54.1	114.050	-0.280	0.450	0.540
2020/01/31 10:00:54.2	114.080	-0.310	0.460	0.540
2020/01/31 10:00:54.3	114.110	-0.330	0.460	0.540
2020/01/31 10:00:54.4	114.140	-0.350	0.460	0.540
2020/01/31 10:00:54.5	114.160	-0.370	0.460	0.550
2020/01/31 10:00:54.6	114.190	-0.380	0.460	0.550
2020/01/31 10:00:54.7	114.210	-0.400	0.450	0.560
2020/01/31 10:00:54.8	114.240	-0.410	0.440	0.570
2020/01/31 10:00:54.9	114.260	-0.410	0.430	0.570
2020/01/31 10:00:55.0	114.280	-0.420	0.410	0.580
2020/01/31 10:00:55.1	114.300	-0.420	0.390	0.590
2020/01/31 10:00:55.2	114.310	-0.420	0.360	0.600
2020/01/31 10:00:55.3	114.330	-0.410	0.330	0.620
2020/01/31 10:00:55.4	114.340	-0.400	0.300	0.630
2020/01/31 10:00:55.5	114.350	-0.390	0.260	0.640
2020/01/31 10:00:55.6	114.360	-0.380	0.230	0.660
2020/01/31 10:00:55.7	114.360	-0.360	0.180	0.670
2020/01/31 10:00:55.8	114.370	-0.340	0.140	0.690
2020/01/31 10:00:55.9	114.370	-0.320	0.090	0.710
2020/01/31 10:00:56.0	114.360	-0.300	0.040	0.720
2020/01/31 10:00:56.1	114.360	-0.270	-0.020	0.740
2020/01/31 10:00:56.2	114.350	-0.250	-0.070	0.760
2020/01/31 10:00:56.3	114.340	-0.220	-0.130	0.780
2020/01/31 10:00:56.4	114.330	-0.180	-0.190	0.790
2020/01/31 10:00:56.5	114.310	-0.150	-0.250	0.810
2020/01/31 10:00:56.6	114.300	-0.120	-0.310	0.830
2020/01/31 10:00:56.7	114.280	-0.080	-0.370	0.860
2020/01/31 10:00:56.8	114.260	-0.050	-0.430	0.880
2020/01/31 10:00:56.9	114.240	-0.010	-0.490	0.900
2020/01/31 10:00:57.0	114.210	0.020	-0.550	0.930
2020/01/31 10:00:57.1	114.190	0.060	-0.600	0.950
2020/01/31 10:00:57.2	114.160	0.090	-0.660	0.980
2020/01/31 10:00:57.3	114.130	0.130	-0.710	1.000
2020/01/31 10:00:57.4	114.110	0.160	-0.760	1.030
2020/01/31 10:00:57.5	114.080	0.190	-0.810	1.060
2020/01/31 10:00:57.6	114.050	0.220	-0.850	1.090
2020/01/31 10:00:57.7	114.020	0.250	-0.890	1.120
2020/01/31 10:00:57.8	113.990	0.280	-0.930	1.150
2020/01/31 10:00:57.9	113.950	0.310	-0.960	1.180
2020/01/31 10:00:58.0	113.920	0.330	-0.980	1.210
2020/01/31 10:00:58.1	113.900	0.360	-1.010	1.230
2020/01/31 10:00:58.2	113.870	0.380	-1.020	1.260
2020/01/31 10:00:58.3	113.840	0.400	-1.030	1.290
2020/01/31 10:00:58.4	113.820	0.410	-1.040	1.310
2020/01/31 10:00:58.5	113.800	0.430	-1.040	1.330
2020/01/31 10:00:58.6	113.780	0.440	-1.030	1.350
2020/01/31 10:00:58.7	113.760	0.450	-1.010	1.370
2020/01/31 10:00:58.8	113.740	0.450	-0.990	1.380
2020/01/31 10:00:58.9	113.730	0.460	-0.970	1.390
2020/01/31 10:00:59.0	113.720	0.460	-0.940	1.400
2020/01/31 10:00:59.1	113.710	0.450	-0.900	1.400
2020/01/31 10:00:59.2	113.700	0.450	-0.860	1.400
2020/01/31 10:00:59.3	113.700	0.440	-0.820	1.390
2020/01/31 10:00:59.4	113.700	0.430	-0.760	1.380
2020/01/31 10:00:59.5	113.700	0.420	-0.710	1.360
2020/01/31 10:00:59.6	113.700	0.410	-0.650	1.350
2020/01/31 10:00:59.7	113.710	0.390	-0.590	1.320
2020/01/31 10:00:59.8	113.720	0.370	-0.530	1.300
2020/01/31 10:00:59.9	113.730	0.350	-0.460	1.270
2020/01/31 10:01:00.0	113.740	0.330	-0.400	1.240
2020/01/31 10:01:00.1	113.750	0.310	-0.330	1.200
2020/01/31 10:01:00.2	113.770	0.280	-0.260	1.170
2020/01/31 10:01:00.3	113.780	0.250	-0.190	1.130
2020/01/31 10:01:00.4	113.800	0.220	-0.120	1.080
2020/01/31 10:01:00.5	113.820	0.190	-0.050	1.040
2020/01/31 10:01:00.6	113.840	0.160	0.020	0.990
2020/01/31 10:01:00.7	113.860	0.130	0.080	0.950
2020/01/31 10:01:00.8	113.870	0.100	0.150	0.900
2020/01/31 10:01:00.9	113.890	0.070	0.210	0.850
2020/01/31 10:01:01.0	113.910	0.040	0.270	0.800
2020/01/31 10:01:01.1	113.930	0.000	0.320	0.760
2020/01/31 10:01:01.2	113.940	-0.030	0.380	0.710
2020/01/31 10:01:01.3	113.960	-0.060	0.420	0.660
2020/01/31 10:01:01.4	113.970	-0.090	0.470	0.610
2020/01/31 10:01:01.5	113.980	-0.120	0.500	0.570
2020/01/31 10:01:01.6	113.990	-0.150	0.540	0.520
2020/01/31 10:01:01.7	114.000	-0.180	0.570	0.480
2020/01/31 10:01:01.8	114.010	-0.200	0.590	0.440
2020/01/31 10:01:01.9	114.020	-0.230	0.610	0.400
2020/01/31 10:01:02.0	114.030	-0.250	0.620	0.360
2020/01/31 10:01:02.1	114.040	-0.270	0.630	0.320
2020/01/31 10:01:02.2	114.040	-0.290	0.630	0.290
2020/01/31 10:01:02.3	114.040	-0.310	0.630	0.250
2020/01/31 10:01:02.4	114.050	-0.320	0.620	0.220
2020/01/31 10:01:02.5	114.060	-0.340	0.610	0.190
2020/01/31 10:01:02.6	114.060	-0.350	0.590	0.170
2020/01/31 10:01:02.7	114.050	-0.360	0.570	0.140
2020/01/31 10:01:02.8	114.050	-0.370	0.540	0.120
2020/01/31 10:01:02.9	114.050	-0.370	0.510	0.090
2020/01/31 10:01:03.0	114.050	-0.380	0.480	0.070
2020/01/31 10:01:03.1	114.040	-0.380	0.450	0.060
2020/01/31 10:01:03.2	114.040	-0.380	0.400	0.040
2020/01/31 10:01:03.3	114.030	-0.380	0.360	0.020
2020/01/31 10:01:03.4	114.030	-0.370	0.320	0.010
2020/01/31 10:01:03.5	114.020	-0.370	0.270	0.000
2020/01/31 10:01:03.6	114.020	-0.370	0.220	-0.010
2020/01/31 10:01:03.7	114.010	-0.360	0.160	-0.020
2020/01/31 10:01:03.8	114.010	-0.350	0.110	-0.020
2020/01/31 10:01:03.9	114.000	-0.340	0.050	-0.030
2020/01/31 10:01:04.0	113.990	-0.340	-0.000	-0.030
2020/01/31 10:01:04.1	113.990	-0.330	-0.060	-0.030
2020/01/31 10:01:04.2	113.980	-0.320	-0.120	-0.030
2020/01/31 10:01:04.3	113.970	-0.310	-0.180	-0.030
2020/01/31 10:01:04.4	113.970	-0.290	-0.230	-0.020
2020/01/31 10:01:04.5	113.960	-0.280	-0.290	-0.020
2020/01/31 10:01:04.6	113.960	-0.270	-0.350	-0.010
2020/01/31 10:01:04.7	113.950	-0.260	-0.400	0.000
2020/01/31 10:01:04.8	113.940	-0.250	-0.460	0.010
2020/01/31 10:01:04.9	113.940	-0.240	-0.510	0.020
2020/01/31 10:01:05.0	113.930	-0.230	-0.560	0.040
2020/01/31 10:01:05.1	113.930	-0.220	-0.600	0.050
2020/01/31 10:01:05.2	113.930	-0.210	-0.640	0.070
2020/01/31 10:01:05.3	113.920	-0.200	-0.680	0.080
2020/01/31 10:01:05.4	113.920	-0.190	-0.710	0.100
2020/01/31 10:01:05.5	113.920	-0.180	-0.740	0.110
2020/01/31 10:01:05.6	113.920	-0.180	-0.760	0.130
2020/01/31 10:01:05.7	113.920	-0.170	-0.780	0.150
2020/01/31 10:01:05.8	113.920	-0.160	-0.790	0.170
2020/01/31 10:01:05.9	113.930	-0.160	-0.790	0.180
2020/01/31 10:01:06.0	113.930	-0.150	-0.790	0.200
2020/01/31 10:01:06.1	113.940	-0.150	-0.780	0.220
2020/01/31 10:01:06.2	113.940	-0.140	-0.760	0.240
2020/01/31 10:01:06.3	113.950	-0.140	-0.740	0.260
2020/01/31 10:01:06.4	113.960	-0.130	-0.710	0.270
2020/01/31 10:01:06.5	113.970	-0.130	-0.680	0.290
2020/01/31 10:01:06.6	113.980	-0.120	-0.650	0.310
2020/01/31 10:01:06.7	113.980	-0.120	-0.610	0.330
2020/01/31 10:01:06.8	113.990	-0.110	-0.570	0.350
2020/01/31 10:01:06.9	114.000	-0.110	-0.520	0.380
2020/01/31 10:01:07.0	114.010	-0.100	-0.470	0.400
2020/01/31 10:01:07.1	114.010	-0.100	-0.420	0.420
2020/01/31 10:01:07.2	114.020	-0.090	-0.370	0.440
2020/01/31 10:01:07.3	114.030	-0.080	-0.320	0.460
2020/01/31 10:01:07.4	114.030	-0.070	-0.270	0.480
2020/01/31 10:01:07.5	114.040	-0.070	-0.220	0.500
2020/01/31 10:01:07.6	114.040	-0.060	-0.170	0.520
2020/01/31 10:01:07.7	114.040	-0.050	-0.120	0.550
2020/01/31 10:01:07.8	114.050	-0.030	-0.070	0.570
2020/01/31 10:01:07.9	114.050	-0.020	-0.030	0.590
2020/01/31 10:01:08.0	114.050	-0.010	0.010	0.610
2020/01/31 10:01:08.1	114.050	0.010	0.040	0.630
2020/01/31 10:01:08.2	114.050	0.020	0.070	0.650
2020/01/31 10:01:08.3	114.050	0.040	0.090	0.670
2020/01/31 10:01:08.4	114.040	0.050	0.110	0.690
2020/01/31 10:01:08.5	114.030	0.070	0.120	0.710
2020/01/31 10:01:08.6	114.030	0.080	0.130	0.730
2020/01/31 10:01:08.7	114.020	0.100	0.130	0.740
2020/01/31 10:01:08.8	114.020	0.120	0.120	0.760
2020/01/31 10:01:08.9	114.010	0.140	0.110	0.780
2020/01/31 10:01:09.0	114.000	0.160	0.090	0.800
2020/01/31 10:01:09.1	113.990	0.170	0.070	0.810
2020/01/31 10:01:09.2	113.980	0.190	0.040	0.830
2020/01/31 10:01:09.3	113.970	0.210	0.010	0.840
2020/01/31 10:01:09.4	113.960	0.230	-0.030	0.860
2020/01/31 10:01:09.5	113.950	0.240	-0.060	0.870
2020/01/31 10:01:09.6	113.930	0.260	-0.100	0.880
2020/01/31 10:01:09.7	113.920	0.270	-0.140	0.890
2020/01/31 10:01:09.8	113.910	0.290	-0.170	0.900
2020/01/31 10:01:09.9	113.890	0.300	-0.210	0.910
2020/01/31 10:01:10.0	113.880	0.310	-0.250	0.920
2020/01/31 10:01:10.1	113.860	0.320	-0.280	0.920
2020/01/31 10:01:10.2	113.850	0.330	-0.310	0.930
2020/01/31 10:01:10.3	113.840	0.340	-0.340	0.930
2020/01/31 10:01:10.4	113.830	0.340	-0.360	0.930
2020/01/31 10:01:10.5	113.820	0.350	-0.380	0.930
2020/01/31 10:01:10.6	113.810	0.350	-0.400	0.930
2020/01/31 10:01:10.7	113.810	0.350	-0.410	0.930
2020/01/31 10:01:10.8	113.800	0.350	-0.410	0.930
2020/01/31 10:01:10.9	113.800	0.340	-0.410	0.930
2020/01/31 10:01:11.0	113.800	0.340	-0.410	0.920
2020/01/31 10:01:11.1	113.790	0.330	-0.400	0.920
2020/01/31 10:01:11.2	113.790	0.330	-0.390	0.910
2020/01/31 10:01:11.3	113.800	0.320	-0.370	0.910
2020/01/31 10:01:11.4	113.800	0.310	-0.350	0.900
2020/01/31 10:01:11.5	113.800	0.300	-0.330	0.900
2020/01/31 10:01:11.6	113.810	0.290	-0.300	0.890
2020/01/31 10:01:11.7	113.810	0.270	-0.270	0.890
2020/01/31 10:01:11.8	113.820	0.260	-0.240	0.880
2020/01/31 10:01:11.9	113.830	0.250	-0.200	0.870
2020/01/31 10:01:12.0	113.830	0.230	-0.160	0.870
2020/01/31 10:01:12.1	113.840	0.220	-0.130	0.860
2020/01/31 10:01:12.2	113.850	0.200	-0.090	0.860
2020/01/31 10:01:12.3	113.860	0.190	-0.050	0.850
2020/01/31 10:01:12.4	113.870	0.170	-0.010	0.850
2020/01/31 10:01:12.5	113.880	0.160	0.020	0.840
2020/01/31 10:01:12.6	113.890	0.140	0.060	0.830
2020/01/31 10:01:12.7	113.900	0.130	0.090	0.830
2020/01/31 10:01:12.8	113.910	0.120	0.120	0.820
2020/01/31 10:01:12.9	113.920	0.110	0.150	0.810
2020/01/31 10:01:13.0	113.930	0.090	0.170	0.800
2020/01/31 10:01:13.1	113.950	0.080	0.190	0.790
2020/01/31 10:01:13.2	113.960	0.070	0.200	0.780
2020/01/31 10:01:13.3	113.970	0.060	0.210	0.760
2020/01/31 10:01:13.4	113.990	0.060	0.210	0.740
2020/01/31 10:01:13.5	114.000	0.050	0.200	0.730
2020/01/31 10:01:13.6	114.020	0.050	0.200	0.710
2020/01/31 10:01:13.7	114.030	0.040	0.180	0.690
2020/01/31 10:01:13.8	114.040	0.040	0.160	0.680
2020/01/31 10:01:13.9	114.060	0.040	0.140	0.660
2020/01/31 10:01:14.0	114.070	0.040	0.110	0.640
2020/01/31 10:01:14.1	114.090	0.040	0.080	0.610
2020/01/31 10:01:14.2	114.100	0.050	0.040	0.590
2020/01/31 10:01:14.3	114.110	0.050	0.000	0.570
2020/01/31 10:01:14.4	114.120	0.050	-0.040	0.540
2020/01/31 10:01:14.5	114.130	0.060	-0.090	0.520
2020/01/31 10:01:14.6	114.140	0.070	-0.140	0.500
2020/01/31 10:01:14.7	114.150	0.070	-0.190	0.470
2020/01/31 10:01:14.8	114.150	0.080	-0.240	0.450
2020/01/31 10:01:14.9	114.160	0.080	-0.280	0.430
2020/01/31 10:01:15.0	114.160	0.090	-0.330	0.400
2020/01/31 10:01:15.1	114.170	0.090	-0.380	0.380
2020/01/31 10:01:15.2	114.170	0.090	-0.420	0.360
2020/01/31 10:01:15.3	114.170	0.090	-0.460	0.340
2020/01/31 10:01:15.4	114.150	0.090	-0.490	0.320
2020/01/31 10:01:15.5	114.150	0.090	-0.520	0.300
2020/01/31 10:01:15.6	114.150	0.090	-0.540	0.280
2020/01/31 10:01:15.7	114.150	0.080	-0.560	0.260
2020/01/31 10:01:15.8	114.150	0.070	-0.570	0.250
2020/01/31 10:01:15.9	114.140	0.060	-0.570	0.240
2020/01/31 10:01:16.0	114.140	0.050	-0.560	0.230
2020/01/31 10:01:16.1	114.130	0.030	-0.550	0.220
2020/01/31 10:01:16.2	114.130	0.010	-0.530	0.220
2020/01/31 10:01:16.3	114.120	-0.010	-0.500	0.220
2020/01/31 10:01:16.4	114.130	-0.040	-0.460	0.210
2020/01/31 10:01:16.5	114.120	-0.060	-0.420	0.220
2020/01/31 10:01:16.6	114.120	-0.090	-0.370	0.230
2020/01/31 10:01:16.7	114.110	-0.120	-0.320	0.240
2020/01/31 10:01:16.8	114.110	-0.160	-0.260	0.250
2020/01/31 10:01:16.9	114.110	-0.190	-0.200	0.270
2020/01/31 10:01:17.0	114.100	-0.230	-0.130	0.290
2020/01/31 10:01:17.1	114.100	-0.260	-0.060	0.310
2020/01/31 10:01:17.2	114.100	-0.300	0.010	0.340
2020/01/31 10:01:17.3	114.090	-0.340	0.080	0.370
2020/01/31 10:01:17.4	114.110	-0.380	0.150	0.400
2020/01/31 10:01:17.5	114.110	-0.410	0.210	0.430
2020/01/31 10:01:17.6	114.110	-0.450	0.280	0.460
2020/01/31 10:01:17.7	114.110	-0.480	0.340	0.500
2020/01/31 10:01:17.8	114.100	-0.520	0.400	0.540
2020/01/31 10:01:17.9	114.100	-0.550	0.450	0.570
2020/01/31 10:01:18.0	114.100	-0.580	0.490	0.610
2020/01/31 10:01:18.1	114.100	-0.600	0.530	0.650
2020/01/31 10:01:18.2	114.100	-0.620	0.570	0.690
2020/01/31 10:01:18.3	114.100	-0.640	0.590	0.730
2020/01/31 10:01:18.4	114.110	-0.650	0.610	0.770
2020/01/31 10:01:18.5	114.110	-0.660	0.620	0.800
2020/01/31 10:01:18.6	114.110	-0.670	0.620	0.840
2020/01/31 10:01:18.7	114.110	-0.670	0.610	0.880
2020/01/31 10:01:18.8	114.110	-0.660	0.590	0.910
2020/01/31 10:01:18.9	114.110	-0.650	0.560	0.940
2020/01/31 10:01:19.0	114.110	-0.630	0.530	0.980
2020/01/31 10:01:19.1	114.120	-0.610	0.490	1.000
2020/01/31 10:01:19.2	114.120	-0.590	0.430	1.030
2020/01/31 10:01:19.3	114.120	-0.550	0.380	1.050
2020/01/31 10:01:19.4	114.140	-0.520	0.310	1.070
2020/01/31 10:01:19.5	114.140	-0.480	0.240	1.090
2020/01/31 10:01:19.6	114.150	-0.430	0.160	1.110
2020/01/31 10:01:19.7	114.150	-0.380	0.070	1.120
2020/01/31 10:01:19.8	114.160	-0.330	-0.010	1.130
2020/01/31 10:01:19.9	114.160	-0.270	-0.110	1.140
2020/01/31 10:01:20.0	114.170	-0.210	-0.200	1.150
2020/01/31 10:01:20.1	114.170	-0.150	-0.300	1.150
2020/01/31 10:01:20.2	114.180	-0.080	-0.400	1.160
2020/01/31 10:01:20.3	114.180	-0.020	-0.490	1.160
2020/01/31 10:01:20.4	114.180	0.050	-0.590	1.160
2020/01/31 10:01:20.5	114.180	0.120	-0.690	1.160
2020/01/31 10:01:20.6	114.180	0.190	-0.780	1.160
2020/01/31 10:01:20.7	114.180	0.250	-0.870	1.160
2020/01/31 10:01:20.8	114.170	0.320	-0.950	1.160
2020/01/31 10:01:20.9	114.170	0.380	-1.030	1.150
2020/01/31 10:01:21.0	114.160	0.440	-1.100	1.150
2020/01/31 10:01:21.1	114.150	0.500	-1.170	1.150
2020/01/31 10:01:21.2	114.140	0.550	-1.220	1.140
2020/01/31 10:01:21.3	114.130	0.600	-1.270	1.140
2020/01/31 10:01:21.4	114.120	0.650	-1.310	1.130
2020/01/31 10:01:21.5	114.110	0.690	-1.340	1.130
2020/01/31 10:01:21.6	114.100	0.720	-1.360	1.120
2020/01/31 10:01:21.7	114.090	0.750	-1.370	1.110
2020/01/31 10:01:21.8	114.070	0.780	-1.380	1.100
2020/01/31 10:01:21.9	114.060	0.800	-1.370	1.100
2020/01/31 10:01:22.0	114.050	0.810	-1.350	1.090
2020/01/31 10:01:22.1	114.030	0.820	-1.320	1.080
2020/01/31 10:01:22.2	114.020	0.820	-1.280	1.070
2020/01/31 10:01:22.3	114.010	0.820	-1.240	1.060
2020/01/31 10:01:22.4	114.000	0.810	-1.180	1.050
2020/01/31 10:01:22.5	113.990	0.790	-1.120	1.040
2020/01/31 10:01:22.6	113.980	0.770	-1.050	1.040
2020/01/31 10:01:22.7	113.970	0.740	-0.970	1.030
2020/01/31 10:01:22.8	113.960	0.710	-0.890	1.020
2020/01/31 10:01:22.9	113.960	0.670	-0.800	1.010
2020/01/31 10:01:23.0	113.960	0.630	-0.710	1.000
2020/01/31 10:01:23.1	113.950	0.580	-0.610	0.990
2020/01/31 10:01:23.2	113.950	0.530	-0.520	0.980
2020/01/31 10:01:23.3	113.950	0.480	-0.410	0.970
2020/01/31 10:01:23.4	113.950	0.430	-0.310	0.960
2020/01/31 10:01:23.5	113.950	0.370	-0.210	0.950
2020/01/31 10:01:23.6	113.950	0.310	-0.100	0.940
2020/01/31 10:01:23.7	113.960	0.250	-0.000	0.930
2020/01/31 10:01:23.8	113.970	0.180	0.100	0.920
2020/01/31 10:01:23.9	113.980	0.120	0.200	0.910
2020/01/31 10:01:24.0	113.990	0.060	0.290	0.900
2020/01/31 10:01:24.1	114.000	-0.010	0.380	0.890
2020/01/31 10:01:24.2	114.010	-0.070	0.470	0.880
2020/01/31 10:01:24.3	114.030	-0.130	0.550	0.880
2020/01/31 10:01:24.4	114.030	-0.190	0.630	0.870
2020/01/31 10:01:24.5	114.040	-0.240	0.700	0.860
2020/01/31 10:01:24.6	114.060	-0.300	0.760	0.850
2020/01/31 10:01:24.7	114.070	-0.350	0.820	0.850
2020/01/31 10:01:24.8	114.080	-0.400	0.870	0.840
2020/01/31 10:01:24.9	114.100	-0.440	0.920	0.840
2020/01/31 10:01:25.0	114.110	-0.490	0.950	0.830
2020/01/31 10:01:25.1	114.120	-0.520	0.980	0.820
2020/01/31 10:01:25.2	114.130	-0.560	1.010	0.820
2020/01/31 10:01:25.3	114.140	-0.590	1.020	0.810
2020/01/31 10:01:25.4	114.150	-0.610	1.030	0.810
2020/01/31 10:01:25.5	114.160	-0.630	1.030	0.800
2020/01/31 10:01:25.6	114.160	-0.650	1.030	0.790
2020/01/31 10:01:25.7	114.160	-0.660	1.010	0.780
2020/01/31 10:01:25.8	114.170	-0.670	0.990	0.770
2020/01/31 10:01:25.9	114.170	-0.680	0.970	0.750
2020/01/31 10:01:26.0	114.170	-0.680	0.930	0.740
2020/01/31 10:01:26.1	114.180	-0.670	0.890	0.720
2020/01/31 10:01:26.2	114.180	-0.660	0.850	0.700
2020/01/31 10:01:26.3	114.180	-0.650	0.800	0.680
2020/01/31 10:01:26.4	114.170	-0.640	0.740	0.660
2020/01/31 10:01:26.5	114.170	-0.620	0.680	0.640
2020/01/31 10:01:26.6	114.170	-0.600	0.620	0.620
2020/01/31 10:01:26.7	114.170	-0.570	0.550	0.590
2020/01/31 10:01:26.8	114.170	-0.550	0.480	0.570
2020/01/31 10:01:26.9	114.170	-0.520	0.400	0.540
2020/01/31 10:01:27.0	114.170	-0.490	0.330	0.520
2020/01/31 10:01:27.1	114.180	-0.450	0.250	0.490
2020/01/31 10:01:27.2	114.170	-0.420	0.170	0.470
2020/01/31 10:01:27.3	114.170	-0.380	0.080	0.440
2020/01/31 10:01:27.4	114.180	-0.340	0.000	0.420
2020/01/31 10:01:27.5	114.180	-0.300	-0.080	0.400
2020/01/31 10:01:27.6	114.170	-0.270	-0.170	0.380
2020/01/31 10:01:27.7	114.170	-0.230	-0.250	0.360
2020/01/31 10:01:27.8	114.170	-0.190	-0.330	0.340
2020/01/31 10:01:27.9	114.160	-0.150	-0.410	0.330
2020/01/31 10:01:28.0	114.160	-0.110	-0.490	0.310
2020/01/31 10:01:28.1	114.150	-0.070	-0.560	0.300
2020/01/31 10:01:28.2	114.150	-0.030	-0.630	0.290
2020/01/31 10:01:28.3	114.140	0.010	-0.700	0.280
2020/01/31 10:01:28.4	114.110	0.050	-0.770	0.270
2020/01/31 10:01:28.5	114.100	0.080	-0.830	0.270
2020/01/31 10:01:28.6	114.090	0.120	-0.890	0.270
2020/01/31 10:01:28.7	114.080	0.150	-0.940	0.270
2020/01/31 10:01:28.8	114.070	0.180	-0.990	0.270
2020/01/31 10:01:28.9	114.060	0.210	-1.030	0.270
2020/01/31 10:01:29.0	114.040	0.240	-1.070	0.280
2020/01/31 10:01:29.1	114.030	0.270	-1.100	0.280
2020/01/31 10:01:29.2	114.020	0.290	-1.120	0.290
2020/01/31 10:01:29.3	114.010	0.310	-1.140	0.300
2020/01/31 10:01:29.4	113.990	0.330	-1.160	0.310
2020/01/31 10:01:29.5	113.970	0.350	-1.160	0.320
2020/01/31 10:01:29.6	113.960	0.370	-1.170	0.330
2020/01/31 10:01:29.7	113.950	0.390	-1.160	0.340
2020/01/31 10:01:29.8	113.940	0.400	-1.160	0.350
2020/01/31 10:01:29.9	113.930	0.410	-1.140	0.360
2020/01/31 10:01:30.0	113.920	0.420	-1.120	0.370
2020/01/31 10:01:30.1	113.910	0.430	-1.100	0.380
2020/01/31 10:01:30.2	113.900	0.430	-1.070	0.390
2020/01/31 10:01:30.3	113.890	0.440	-1.030	0.400
2020/01/31 10:01:30.4	113.880	0.440	-0.990	0.410
2020/01/31 10:01:30.5	113.870	0.440	-0.950	0.420
2020/01/31 10:01:30.6	113.870	0.440	-0.900	0.430
2020/01/31 10:01:30.7	113.860	0.440	-0.850	0.440
2020/01/31 10:01:30.8	113.850	0.430	-0.800	0.450
2020/01/31 10:01:30.9	113.850	0.430	-0.740	0.460
2020/01/31 10:01:31.0	113.840	0.420	-0.680	0.470
2020/01/31 10:01:31.1	113.840	0.410	-0.610	0.470
2020/01/31 10:01:31.2	113.830	0.400	-0.550	0.480
2020/01/31 10:01:31.3	113.830	0.390	-0.480	0.490
2020/01/31 10:01:31.4	113.800	0.380	-0.410	0.500
2020/01/31 10:01:31.5	113.800	0.360	-0.340	0.500
2020/01/31 10:01:31.6	113.800	0.350	-0.270	0.510
2020/01/31 10:01:31.7	113.790	0.330	-0.200	0.510
2020/01/31 10:01:31.8	113.790	0.320	-0.120	0.520
2020/01/31 10:01:31.9	113.790	0.300	-0.050	0.520
2020/01/31 10:01:32.0	113.800	0.280	0.020	0.520
2020/01/31 10:01:32.1	113.800	0.260	0.090	0.520
2020/01/31 10:01:32.2	113.800	0.240	0.160	0.520
2020/01/31 10:01:32.3	113.800	0.220	0.230	0.520
2020/01/31 10:01:32.4	113.810	0.200	0.300	0.520
2020/01/31 10:01:32.5	113.820	0.180	0.360	0.520
2020/01/31 10:01:32.6	113.820	0.160	0.420	0.510
2020/01/31 10:01:32.7	113.830	0.140	0.480	0.510
2020/01/31 10:01:32.8	113.840	0.130	0.540	0.500
2020/01/31 10:01:32.9	113.850	0.110	0.590	0.490
2020/01/31 10:01:33.0	113.860	0.090	0.640	0.480
2020/01/31 10:01:33.1	113.880	0.070	0.680	0.470
2020/01/31 10:01:33.2	113.890	0.050	0.720	0.460
2020/01/31 10:01:33.3	113.900	0.040	0.750	0.450
2020/01/31 10:01:33.4	113.910	0.020	0.780	0.440
2020/01/31 10:01:33.5	113.930	0.010	0.800	0.430
2020/01/31 10:01:33.6	113.940	-0.000	0.820	0.420
2020/01/31 10:01:33.7	113.950	-0.020	0.830	0.400
2020/01/31 10:01:33.8	113.970	-0.030	0.830	0.390
2020/01/31 10:01:33.9	113.980	-0.030	0.830	0.380
2020/01/31 10:01:34.0	113.990	-0.040	0.820	0.370
2020/01/31 10:01:34.1	114.000	-0.050	0.800	0.360
2020/01/31 10:01:34.2	114.010	-0.050	0.770	0.350
2020/01/31 10:01:34.3	114.020	-0.060	0.740	0.350
2020/01/31 10:01:34.4	114.050	-0.060	0.700	0.340
2020/01/31 10:01:34.5	114.060	-0.060	0.660	0.340
2020/01/31 10:01:34.6	114.060	-0.060	0.610	0.340
2020/01/31 10:01:34.7	114.060	-0.060	0.550	0.340
2020/01/31 10:01:34.8	114.060	-0.050	0.490	0.340
2020/01/31 10:01:34.9	114.050	-0.050	0.420	0.350
2020/01/31 10:01:35.0	114.050	-0.050	0.340	0.350
2020/01/31 10:01:35.1	114.040	-0.040	0.260	0.360
2020/01/31 10:01:35.2	114.030	-0.040	0.180	0.370
2020/01/31 10:01:35.3	114.020	-0.030	0.100	0.380
2020/01/31 10:01:35.4	114.000	-0.020	0.010	0.400
2020/01/31 10:01:35.5	113.980	-0.020	-0.080	0.410
2020/01/31 10:01:35.6	113.960	-0.010	-0.170	0.430
2020/01/31 10:01:35.7	113.940	-0.010	-0.260	0.450
2020/01/31 10:01:35.8	113.920	-0.010	-0.350	0.470
2020/01/31 10:01:35.9	113.890	-0.000	-0.430	0.500
2020/01/31 10:01:36.0	113.870	0.000	-0.520	0.520
2020/01/31 10:01:36.1	113.840	0.000	-0.600	0.550
2020/01/31 10:01:36.2	113.810	0.000	-0.680	0.580
2020/01/31 10:01:36.3	113.780	0.000	-0.750	0.610
2020/01/31 10:01:36.4	113.750	-0.000	-0.820	0.650
2020/01/31 10:01:36.5	113.720	-0.010	-0.880	0.680
2020/01/31 10:01:36.6	113.680	-0.010	-0.940	0.720
2020/01/31 10:01:36.7	113.650	-0.020	-0.990	0.760
2020/01/31 10:01:36.8	113.620	-0.030	-1.040	0.800
2020/01/31 10:01:36.9	113.590	-0.040	-1.080	0.850
2020/01/31 10:01:37.0	113.550	-0.050	-1.110	0.890
2020/01/31 10:01:37.1	113.520	-0.070	-1.130	0.940
2020/01/31 10:01:37.2	113.490	-0.080	-1.150	0.980
2020/01/31 10:01:37.3	113.460	-0.100	-1.160	1.030
2020/01/31 10:01:37.4	113.440	-0.120	-1.160	1.070
2020/01/31 10:01:37.5	113.410	-0.140	-1.150	1.120
2020/01/31 10:01:37.6	113.390	-0.160	-1.140	1.160
2020/01/31 10:01:37.7	113.370	-0.190	-1.110	1.200
2020/01/31 10:01:37.8	113.350	-0.210	-1.080	1.240
2020/01/31 10:01:37.9	113.330	-0.240	-1.040	1.280
2020/01/31 10:01:38.0	113.320	-0.260	-1.000	1.310
2020/01/31 10:01:38.1	113.310	-0.290	-0.950	1.350
2020/01/31 10:01:38.2	113.300	-0.320	-0.890	1.380
2020/01/31 10:01:38.3	113.290	-0.350	-0.820	1.400
2020/01/31 10:01:38.4	113.300	-0.380	-0.750	1.420
2020/01/31 10:01:38.5	113.310	-0.410	-0.680	1.440
2020/01/31 10:01:38.6	113.310	-0.430	-0.600	1.460
2020/01/31 10:01:38.7	113.320	-0.460	-0.520	1.470
2020/01/31 10:01:38.8	113.330	-0.490	-0.440	1.480
2020/01/31 10:01:38.9	113.350	-0.510	-0.360	1.480
2020/01/31 10:01:39.0	113.370	-0.530	-0.280	1.480
2020/01/31 10:01:39.1	113.390	-0.560	-0.200	1.480
2020/01/31 10:01:39.2	113.420	-0.570	-0.120	1.470
2020/01/31 10:01:39.3	113.440	-0.590	-0.040	1.470
2020/01/31 10:01:39.4	113.470	-0.600	0.040	1.450
2020/01/31 10:01:39.5	113.500	-0.620	0.110	1.440
2020/01/31 10:01:39.6	113.530	-0.620	0.170	1.420
2020/01/31 10:01:39.7	113.560	-0.630	0.230	1.400
2020/01/31 10:01:39.8	113.600	-0.630	0.290	1.380
2020/01/31 10:01:39.9	113.630	-0.620	0.340	1.360
2020/01/31 10:01:40.0	113.660	-0.620	0.380	1.330
2020/01/31 10:01:40.1	113.690	-0.610	0.420	1.310
2020/01/31 10:01:40.2	113.720	-0.590	0.440	1.280
2020/01/31 10:01:40.3	113.750	-0.570	0.460	1.250
2020/01/31 10:01:40.4	113.770	-0.550	0.470	1.220
2020/01/31 10:01:40.5	113.800	-0.520	0.480	1.190
2020/01/31 10:01:40.6	113.820	-0.490	0.480	1.160
2020/01/31 10:01:40.7	113.840	-0.460	0.470	1.130
2020/01/31 10:01:40.8	113.860	-0.420	0.460	1.100
2020/01/31 10:01:40.9	113.870	-0.380	0.440	1.070
2020/01/31 10:01:41.0	113.890	-0.340	0.410	1.040
2020/01/31 10:01:41.1	113.900	-0.300	0.380	1.010
2020/01/31 10:01:41.2	113.900	-0.250	0.340	0.980
2020/01/31 10:01:41.3	113.910	-0.200	0.300	0.950
2020/01/31 10:01:41.4	113.910	-0.150	0.260	0.910
2020/01/31 10:01:41.5	113.910	-0.100	0.220	0.880
2020/01/31 10:01:41.6	113.900	-0.050	0.170	0.840
2020/01/31 10:01:41.7	113.900	0.000	0.120	0.810
2020/01/31 10:01:41.8	113.890	0.060	0.080	0.770
2020/01/31 10:01:41.9	113.880	0.110	0.030	0.730
2020/01/31 10:01:42.0	113.870	0.160	-0.020	0.690
2020/01/31 10:01:42.1	113.850	0.210	-0.060	0.660
2020/01/31 10:01:42.2	113.830	0.260	-0.100	0.620
2020/01/31 10:01:42.3	113.820	0.300	-0.140	0.570
2020/01/31 10:01:42.4	113.800	0.350	-0.180	0.530
2020/01/31 10:01:42.5	113.780	0.390	-0.210	0.490
2020/01/31 10:01:42.6	113.760	0.430	-0.240	0.450
2020/01/31 10:01:42.7	113.740	0.470	-0.270	0.400
2020/01/31 10:01:42.8	113.720	0.500	-0.290	0.360
2020/01/31 10:01:42.9	113.700	0.530	-0.310	0.310
2020/01/31 10:01:43.0	113.680	0.560	-0.320	0.260
2020/01/31 10:01:43.1	113.660	0.590	-0.330	0.220
2020/01/31 10:01:43.2	113.640	0.610	-0.330	0.170
2020/01/31 10:01:43.3	113.620	0.630	-0.330	0.130
2020/01/31 10:01:43.4	113.610	0.640	-0.320	0.080
2020/01/31 10:01:43.5	113.590	0.650	-0.310	0.030
2020/01/31 10:01:43.6	113.570	0.660	-0.300	-0.020
2020/01/31 10:01:43.7	113.560	0.670	-0.280	-0.060
2020/01/31 10:01:43.8	113.550	0.670	-0.270	-0.100
2020/01/31 10:01:43.9	113.530	0.670	-0.240	-0.150
2020/01/31 10:01:44.0	113.520	0.670	-0.220	-0.190
2020/01/31 10:01:44.1	113.510	0.660	-0.200	-0.230
2020/01/31 10:01:44.2	113.500	0.650	-0.170	-0.260
2020/01/31 10:01:44.3	113.500	0.640	-0.140	-0.300
2020/01/31 10:01:44.4	113.480	0.620	-0.120	-0.330
2020/01/31 10:01:44.5	113.470	0.610	-0.090	-0.360
2020/01/31 10:01:44.6	113.460	0.590	-0.070	-0.390
2020/01/31 10:01:44.7	113.460	0.570	-0.040	-0.420
2020/01/31 10:01:44.8	113.450	0.550	-0.020	-0.440
2020/01/31 10:01:44.9	113.440	0.530	-0.000	-0.460
2020/01/31 10:01:45.0	113.440	0.510	0.020	-0.470
2020/01/31 10:01:45.1	113.430	0.480	0.030	-0.490
2020/01/31 10:01:45.2	113.420	0.460	0.050	-0.500
2020/01/31 10:01:45.3	113.420	0.430	0.060	-0.510
2020/01/31 10:01:45.4	113.400	0.410	0.060	-0.510
2020/01/31 10:01:45.5	113.400	0.380	0.060	-0.520
2020/01/31 10:01:45.6	113.390	0.360	0.060	-0.510
2020/01/31 10:01:45.7	113.390	0.330	0.060	-0.510
2020/01/31 10:01:45.8	113.390	0.310	0.050	-0.500
2020/01/31 10:01:45.9	113.380	0.280	0.040	-0.490
2020/01/31 10:01:46.0	113.380	0.260	0.020	-0.480
2020/01/31 10:01:46.1	113.380	0.230	0.000	-0.470
2020/01/31 10:01:46.2	113.380	0.210	-0.020	-0.450
2020/01/31 10:01:46.3	113.380	0.190	-0.040	-0.430
2020/01/31 10:01:46.4	113.400	0.160	-0.070	-0.410
2020/01/31 10:01:46.5	113.400	0.140	-0.100	-0.390
2020/01/31 10:01:46.6	113.410	0.120	-0.130	-0.370
2020/01/31 10:01:46.7	113.420	0.100	-0.160	-0.350
2020/01/31 10:01:46.8	113.430	0.080	-0.190	-0.320
2020/01/31 10:01:46.9	113.440	0.060	-0.230	-0.300
2020/01/31 10:01:47.0	113.450	0.040	-0.260	-0.270
2020/01/31 10:01:47.1	113.470	0.020	-0.300	-0.240
2020/01/31 10:01:47.2	113.490	-0.000	-0.330	-0.210
2020/01/31 10:01:47.3	113.500	-0.020	-0.370	-0.180
2020/01/31 10:01:47.4	113.530	-0.040	-0.400	-0.150
2020/01/31 10:01:47.5	113.550	-0.050	-0.430	-0.120
2020/01/31 10:01:47.6	113.570	-0.070	-0.460	-0.080
2020/01/31 10:01:47.7	113.600	-0.090	-0.490	-0.050
2020/01/31 10:01:47.8	113.620	-0.100	-0.510	-0.010
2020/01/31 10:01:47.9	113.640	-0.120	-0.530	0.040
2020/01/31 10:01:48.0	113.660	-0.130	-0.550	0.080
2020/01/31 10:01:48.1	113.690	-0.150	-0.570	0.130
2020/01/31 10:01:48.2	113.710	-0.160	-0.580	0.180
2020/01/31 10:01:48.3	113.730	-0.180	-0.590	0.230
2020/01/31 10:01:48.4	113.750	-0.190	-0.590	0.290
2020/01/31 10:01:48.5	113.760	-0.200	-0.590	0.350
2020/01/31 10:01:48.6	113.780	-0.210	-0.590	0.410
2020/01/31 10:01:48.7	113.790	-0.230	-0.590	0.480
2020/01/31 10:01:48.8	113.810	-0.240	-0.590	0.550
2020/01/31 10:01:48.9	113.820	-0.240	-0.580	0.620
2020/01/31 10:01:49.0	113.820	-0.250	-0.570	0.690
2020/01/31 10:01:49.1	113.830	-0.260	-0.560	0.770
2020/01/31 10:01:49.2	113.830	-0.270	-0.540	0.850
2020/01/31 10:01:49.3	113.830	-0.270	-0.530	0.930
2020/01/31 10:01:49.4	113.820	-0.280	-0.510	1.020
2020/01/31 10:01:49.5	113.810	-0.280	-0.490	1.100
2020/01/31 10:01:49.6	113.800	-0.280	-0.470	1.190
2020/01/31 10:01:49.7	113.790	-0.280	-0.450	1.280
2020/01/31 10:01:49.8	113.770	-0.280	-0.430	1.360
2020/01/31 10:01:49.9	113.760	-0.280	-0.410	1.450
2020/01/31 10:01:50.0	113.740	-0.270	-0.380	1.540
2020/01/31 10:01:50.1	113.710	-0.270	-0.360	1.630
2020/01/31 10:01:50.2	113.690	-0.260	-0.340	1.720
2020/01/31 10:01:50.3	113.660	-0.260	-0.310	1.810
2020/01/31 10:01:50.4	113.630	-0.250	-0.290	1.890
2020/01/31 10:01:50.5	113.600	-0.240	-0.270	1.970
2020/01/31 10:01:50.6	113.560	-0.230	-0.240	2.060
2020/01/31 10:01:50.7	113.530	-0.230	-0.220	2.130
2020/01/31 10:01:50.8	113.490	-0.220	-0.190	2.210
2020/01/31 10:01:50.9	113.460	-0.210	-0.170	2.280
2020/01/31 10:01:51.0	113.420	-0.200	-0.140	2.350
2020/01/31 10:01:51.1	113.390	-0.190	-0.120	2.410
2020/01/31 10:01:51.2	113.350	-0.180	-0.090	2.470
2020/01/31 10:01:51.3	113.320	-0.170	-0.070	2.520
2020/01/31 10:01:51.4	113.290	-0.160	-0.040	2.570
2020/01/31 10:01:51.5	113.260	-0.160	-0.020	2.610
2020/01/31 10:01:51.6	113.230	-0.150	0.010	2.640
2020/01/31 10:01:51.7	113.200	-0.150	0.030	2.670
2020/01/31 10:01:51.8	113.180	-0.150	0.060	2.690
2020/01/31 10:01:51.9	113.160	-0.140	0.080	2.710
2020/01/31 10:01:52.0	113.140	-0.140	0.110	2.720
2020/01/31 10:01:52.1	113.120	-0.140	0.130	2.720
2020/01/31 10:01:52.2	113.110	-0.140	0.160	2.710
2020/01/31 10:01:52.3	113.100	-0.150	0.180	2.700
2020/01/31 10:01:52.4	113.120	-0.150	0.210	2.680
2020/01/31 10:01:52.5	113.120	-0.160	0.230	2.650
2020/01/31 10:01:52.6	113.120	-0.170	0.250	2.620
2020/01/31 10:01:52.7	113.130	-0.170	0.270	2.580
2020/01/31 10:01:52.8	113.140	-0.180	0.290	2.530
2020/01/31 10:01:52.9	113.160	-0.190	0.320	2.470
2020/01/31 10:01:53.0	113.180	-0.200	0.330	2.410
2020/01/31 10:01:53.1	113.200	-0.220	0.350	2.340
2020/01/31 10:01:53.2	113.230	-0.230	0.370	2.270
2020/01/31 10:01:53.3	113.260	-0.240	0.390	2.190
2020/01/31 10:01:53.4	113.290	-0.250	0.400	2.100
2020/01/31 10:01:53.5	113.320	-0.260	0.420	2.010
2020/01/31 10:01:53.6	113.360	-0.270	0.430	1.920
2020/01/31 10:01:53.7	113.400	-0.290	0.440	1.820
2020/01/31 10:01:53.8	113.440	-0.300	0.450	1.720
2020/01/31 10:01:53.9	113.480	-0.300	0.460	1.620
2020/01/31 10:01:54.0	113.520	-0.310	0.460	1.510
2020/01/31 10:01:54.1	113.560	-0.320	0.470	1.400
2020/01/31 10:01:54.2	113.600	-0.320	0.470	1.290
2020/01/31 10:01:54.3	113.640	-0.330	0.460	1.180
2020/01/31 10:01:54.4	113.690	-0.330	0.450	1.070
2020/01/31 10:01:54.5	113.730	-0.320	0.440	0.960
2020/01/31 10:01:54.6	113.770	-0.320	0.430	0.850
2020/01/31 10:01:54.7	113.810	-0.310	0.410	0.740
2020/01/31 10:01:54.8	113.840	-0.300	0.390	0.630
2020/01/31 10:01:54.9	113.870	-0.290	0.360	0.520
2020/01/31 10:01:55.0	113.900	-0.280	0.320	0.410
2020/01/31 10:01:55.1	113.930	-0.260	0.290	0.300
2020/01/31 10:01:55.2	113.960	-0.230	0.240	0.200
2020/01/31 10:01:55.3	113.980	-0.210	0.200	0.090
2020/01/31 10:01:55.4	114.000	-0.180	0.140	-0.010
2020/01/31 10:01:55.5	114.010	-0.150	0.090	-0.110
2020/01/31 10:01:55.6	114.030	-0.120	0.020	-0.200
2020/01/31 10:01:55.7	114.040	-0.080	-0.040	-0.300
2020/01/31 10:01:55.8	114.040	-0.040	-0.110	-0.390
2020/01/31 10:01:55.9	114.050	-0.000	-0.180	-0.480
2020/01/31 10:01:56.0	114.050	0.040	-0.260	-0.560
2020/01/31 10:01:56.1	114.050	0.090	-0.340	-0.650
2020/01/31 10:01:56.2	114.040	0.130	-0.420	-0.730
2020/01/31 10:01:56.3	114.040	0.180	-0.500	-0.800
2020/01/31 10:01:56.4	114.020	0.230	-0.580	-0.880
2020/01/31 10:01:56.5	114.010	0.280	-0.660	-0.950
2020/01/31 10:01:56.6	113.990	0.330	-0.740	-1.010
2020/01/31 10:01:56.7	113.980	0.380	-0.820	-1.070
2020/01/31 10:01:56.8	113.950	0.430	-0.900	-1.130
2020/01/31 10:01:56.9	113.930	0.480	-0.970	-1.180
2020/01/31 10:01:57.0	113.910	0.520	-1.040	-1.230
2020/01/31 10:01:57.1	113.890	0.560	-1.110	-1.280
2020/01/31 10:01:57.2	113.860	0.610	-1.170	-1.320
2020/01/31 10:01:57.3	113.840	0.640	-1.230	-1.350
2020/01/31 10:01:57.4	113.820	0.680	-1.280	-1.380
2020/01/31 10:01:57.5	113.800	0.710	-1.320	-1.410
2020/01/31 10:01:57.6	113.780	0.740	-1.360	-1.430
2020/01/31 10:01:57.7	113.750	0.760	-1.390	-1.440
2020/01/31 10:01:57.8	113.730	0.780	-1.410	-1.450
2020/01/31 10:01:57.9	113.710	0.800	-1.420	-1.460
2020/01/31 10:01:58.0	113.690	0.810	-1.420	-1.460
2020/01/31 10:01:58.1	113.670	0.810	-1.420	-1.450
2020/01/31 10:01:58.2	113.650	0.810	-1.400	-1.440
2020/01/31 10:01:58.3	113.640	0.800	-1.380	-1.420
2020/01/31 10:01:58.4	113.620	0.790	-1.340	-1.390
2020/01/31 10:01:58.5	113.610	0.780	-1.300	-1.360
2020/01/31 10:01:58.6	113.590	0.760	-1.250	-1.330
2020/01/31 10:01:58.7	113.580	0.730	-1.190	-1.290
2020/01/31 10:01:58.8	113.580	0.700	-1.120	-1.240
2020/01/31 10:01:58.9	113.570	0.670	-1.050	-1.190
2020/01/31 10:01:59.0	113.560	0.630	-0.960	-1.140
2020/01/31 10:01:59.1	113.560	0.590	-0.880	-1.080
2020/01/31 10:01:59.2	113.550	0.540	-0.780	-1.010
2020/01/31 10:01:59.3	113.550	0.490	-0.680	-0.950
2020/01/31 10:01:59.4	113.550	0.440	-0.570	-0.870
2020/01/31 10:01:59.5	113.550	0.390	-0.460	-0.800
2020/01/31 10:01:59.6	113.550	0.330	-0.350	-0.720
2020/01/31 10:01:59.7	113.550	0.280	-0.240	-0.640
2020/01/31 10:01:59.8	113.560	0.220	-0.120	-0.570
2020/01/31 10:01:59.9	113.560	0.160	-0.000	-0.480
2020/01/31 10:02:00.0	113.570	0.100	0.110	-0.400
2020/01/31 10:02:00.1	113.580	0.040	0.230	-0.320
2020/01/31 10:02:00.2	113.590	-0.020	0.340	-0.230
2020/01/31 10:02:00.3	113.600	-0.080	0.460	-0.150
2020/01/31 10:02:00.4	113.610	-0.140	0.560	-0.070
2020/01/31 10:02:00.5	113.620	-0.200	0.670	0.020
2020/01/31 10:02:00.6	113.630	-0.250	0.760	0.100
2020/01/31 10:02:00.7	113.650	-0.300	0.850	0.180
2020/01/31 10:02:00.8	113.670	-0.350	0.940	0.260
2020/01/31 10:02:00.9	113.680	-0.400	1.010	0.340
2020/01/31 10:02:01.0	113.700	-0.440	1.080	0.420
2020/01/31 10:02:01.1	113.720	-0.480	1.130	0.500
2020/01/31 10:02:01.2	113.740	-0.520	1.180	0.570
2020/01/31 10:02:01.3	113.760	-0.550	1.220	0.640
2020/01/31 10:02:01.4	113.780	-0.580	1.250	0.710
2020/01/31 10:02:01.5	113.800	-0.600	1.260	0.770
2020/01/31 10:02:01.6	113.820	-0.620	1.270	0.840
2020/01/31 10:02:01.7	113.840	-0.640	1.260	0.900
2020/01/31 10:02:01.8	113.860	-0.650	1.240	0.960
2020/01/31 10:02:01.9	113.870	-0.650	1.220	1.010
2020/01/31 10:02:02.0	113.890	-0.650	1.180	1.070
2020/01/31 10:02:02.1	113.910	-0.650	1.130	1.120
2020/01/31 10:02:02.2	113.920	-0.640	1.070	1.170
2020/01/31 10:02:02.3	113.940	-0.630	1.010	1.220
2020/01/31 10:02:02.4	113.970	-0.610	0.930	1.270
2020/01/31 10:02:02.5	113.980	-0.590	0.850	1.310
2020/01/31 10:02:02.6	114.000	-0.570	0.760	1.360
2020/01/31 10:02:02.7	114.010	-0.540	0.660	1.400
2020/01/31 10:02:02.8	114.020	-0.510	0.560	1.440
2020/01/31 10:02:02.9	114.030	-0.480	0.460	1.480
2020/01/31 10:02:03.0	114.030	-0.440	0.350	1.530
2020/01/31 10:02:03.1	114.040	-0.410	0.240	1.570
2020/01/31 10:02:03.2	114.050	-0.370	0.130	1.610
2020/01/31 10:02:03.3	114.060	-0.330	0.020	1.650
2020/01/31 10:02:03.4	114.050	-0.290	-0.100	1.690
2020/01/31 10:02:03.5	114.060	-0.250	-0.200	1.730
2020/01/31 10:02:03.6	114.060	-0.210	-0.310	1.770
2020/01/31 10:02:03.7	114.070	-0.170	-0.410	1.810
2020/01/31 10:02:03.8	114.070	-0.130	-0.510	1.850
2020/01/31 10:02:03.9	114.080	-0.090	-0.600	1.890
2020/01/31 10:02:04.0	114.080	-0.050	-0.680	1.930
2020/01/31 10:02:04.1	114.090	-0.020	-0.760	1.970
2020/01/31 10:02:04.2	114.090	0.020	-0.830	2.010
2020/01/31 10:02:04.3	114.100	0.050	-0.900	2.050
2020/01/31 10:02:04.4	114.100	0.080	-0.950	2.080
2020/01/31 10:02:04.5	114.110	0.110	-1.000	2.120
2020/01/31 10:02:04.6	114.110	0.130	-1.040	2.160
2020/01/31 10:02:04.7	114.120	0.150	-1.070	2.190
2020/01/31 10:02:04.8	114.120	0.170	-1.090	2.220
2020/01/31 10:02:04.9	114.120	0.190	-1.100	2.250
2020/01/31 10:02:05.0	114.130	0.200	-1.110	2.280
2020/01/31 10:02:05.1	114.130	0.210	-1.100	2.300
2020/01/31 10:02:05.2	114.130	0.220	-1.090	2.320
2020/01/31 10:02:05.3	114.140	0.220	-1.070	2.340
2020/01/31 10:02:05.4	114.150	0.220	-1.050	2.360
2020/01/31 10:02:05.5	114.150	0.220	-1.020	2.370
2020/01/31 10:02:05.6	114.150	0.220	-0.980	2.380
2020/01/31 10:02:05.7	114.150	0.210	-0.940	2.380
2020/01/31 10:02:05.8	114.160	0.200	-0.890	2.380
2020/01/31 10:02:05.9	114.160	0.190	-0.840	2.380
2020/01/31 10:02:06.0	114.160	0.180	-0.790	2.370
2020/01/31 10:02:06.1	114.160	0.170	-0.740	2.360
2020/01/31 10:02:06.2	114.160	0.150	-0.680	2.340
2020/01/31 10:02:06.3	114.160	0.140	-0.620	2.320
2020/01/31 10:02:06.4	114.160	0.120	-0.570	2.300
2020/01/31 10:02:06.5	114.160	0.100	-0.510	2.270
2020/01/31 10:02:06.6	114.160	0.080	-0.450	2.230
2020/01/31 10:02:06.7	114.160	0.070	-0.400	2.200
2020/01/31 10:02:06.8	114.170	0.050	-0.350	2.150
2020/01/31 10:02:06.9	114.170	0.030	-0.300	2.110
2020/01/31 10:02:07.0	114.170	0.020	-0.250	2.050
2020/01/31 10:02:07.1	114.170	0.000	-0.210	2.000
2020/01/31 10:02:07.2	114.180	-0.010	-0.160	1.940
2020/01/31 10:02:07.3	114.180	-0.030	-0.130	1.880
2020/01/31 10:02:07.4	114.180	-0.040	-0.090	1.800
2020/01/31 10:02:07.5	114.190	-0.050	-0.060	1.740
2020/01/31 10:02:07.6	114.190	-0.060	-0.030	1.660
2020/01/31 10:02:07.7	114.190	-0.070	-0.010	1.590
2020/01/31 10:02:07.8	114.190	-0.080	0.020	1.510
2020/01/31 10:02:07.9	114.200	-0.080	0.030	1.440
2020/01/31 10:02:08.0	114.200	-0.090	0.050	1.360
2020/01/31 10:02:08.1	114.200	-0.090	0.060	1.280
2020/01/31 10:02:08.2	114.190	-0.100	0.070	1.210
2020/01/31 10:02:08.3	114.190	-0.100	0.080	1.130
2020/01/31 10:02:08.4	114.170	-0.100	0.080	1.060
2020/01/31 10:02:08.5	114.160	-0.100	0.080	0.980
2020/01/31 10:02:08.6	114.160	-0.100	0.080	0.910
2020/01/31 10:02:08.7	114.150	-0.090	0.080	0.830
2020/01/31 10:02:08.8	114.140	-0.090	0.080	0.760
2020/01/31 10:02:08.9	114.130	-0.090	0.080	0.690
2020/01/31 10:02:09.0	114.120	-0.080	0.080	0.620
2020/01/31 10:02:09.1	114.100	-0.080	0.070	0.550
2020/01/31 10:02:09.2	114.090	-0.080	0.070	0.490
2020/01/31 10:02:09.3	114.080	-0.070	0.060	0.420
2020/01/31 10:02:09.4	114.050	-0.070	0.060	0.350
2020/01/31 10:02:09.5	114.040	-0.060	0.060	0.280
2020/01/31 10:02:09.6	114.030	-0.060	0.060	0.210
2020/01/31 10:02:09.7	114.020	-0.060	0.060	0.140
2020/01/31 10:02:09.8	114.000	-0.050	0.060	0.070
2020/01/31 10:02:09.9	113.990	-0.050	0.060	-0.000
2020/01/31 10:02:10.0	113.990	-0.050	0.070	-0.070
2020/01/31 10:02:10.1	113.980	-0.050	0.070	-0.150
2020/01/31 10:02:10.2	113.970	-0.050	0.070	-0.220
2020/01/31 10:02:10.3	113.970	-0.050	0.080	-0.290
2020/01/31 10:02:10.4	113.960	-0.050	0.090	-0.370
2020/01/31 10:02:10.5	113.950	-0.050	0.090	-0.440
2020/01/31 10:02:10.6	113.950	-0.050	0.090	-0.520
2020/01/31 10:02:10.7	113.950	-0.040	0.100	-0.590
2020/01/31 10:02:10.8	113.960	-0.040	0.100	-0.670
2020/01/31 10:02:10.9	113.960	-0.040	0.100	-0.750
2020/01/31 10:02:11.0	113.970	-0.040	0.100	-0.820
2020/01/31 10:02:11.1	113.970	-0.040	0.100	-0.890
2020/01/31 10:02:11.2	113.980	-0.040	0.090	-0.970
2020/01/31 10:02:11.3	113.990	-0.030	0.080	-1.040
2020/01/31 10:02:11.4	113.990	-0.030	0.070	-1.100
2020/01/31 10:02:11.5	114.000	-0.020	0.050	-1.170
2020/01/31 10:02:11.6	114.010	-0.010	0.030	-1.230
2020/01/31 10:02:11.7	114.020	-0.000	0.010	-1.290
2020/01/31 10:02:11.8	114.030	0.010	-0.020	-1.350
2020/01/31 10:02:11.9	114.040	0.020	-0.040	-1.400
2020/01/31 10:02:12.0	114.050	0.030	-0.080	-1.450
2020/01/31 10:02:12.1	114.060	0.050	-0.110	-1.500
2020/01/31 10:02:12.2	114.060	0.060	-0.150	-1.540
2020/01/31 10:02:12.3	114.070	0.080	-0.190	-1.570
2020/01/31 10:02:12.4	114.090	0.100	-0.230	-1.600
2020/01/31 10:02:12.5	114.090	0.120	-0.280	-1.630
2020/01/31 10:02:12.6	114.090	0.140	-0.320	-1.650
2020/01/31 10:02:12.7	114.100	0.160	-0.360	-1.660
2020/01/31 10:02:12.8	114.100	0.180	-0.410	-1.670
2020/01/31 10:02:12.9	114.110	0.200	-0.450	-1.680
2020/01/31 10:02:13.0	114.110	0.220	-0.490	-1.680
2020/01/31 10:02:13.1	114.110	0.240	-0.530	-1.680
2020/01/31 10:02:13.2	114.120	0.260	-0.560	-1.670
2020/01/31 10:02:13.3	114.120	0.280	-0.600	-1.660
2020/01/31 10:02:13.4	114.160	0.300	-0.620	-1.640
2020/01/31 10:02:13.5	114.160	0.310	-0.650	-1.620
2020/01/31 10:02:13.6	114.170	0.330	-0.670	-1.590
2020/01/31 10:02:13.7	114.170	0.340	-0.680	-1.560
2020/01/31 10:02:13.8	114.180	0.350	-0.690	-1.530
2020/01/31 10:02:13.9	114.180	0.360	-0.690	-1.490
2020/01/31 10:02:14.0	114.190	0.360	-0.690	-1.440
2020/01/31 10:02:14.1	114.200	0.370	-0.680	-1.390
2020/01/31 10:02:14.2	114.200	0.370	-0.670	-1.340
2020/01/31 10:02:14.3	114.210	0.360	-0.650	-1.280
2020/01/31 10:02:14.4	114.230	0.360	-0.630	-1.210
2020/01/31 10:02:14.5	114.240	0.350	-0.610	-1.140
2020/01/31 10:02:14.6	114.250	0.340	-0.580	-1.060
2020/01/31 10:02:14.7	114.260	0.330	-0.540	-0.990
2020/01/31 10:02:14.8	114.270	0.320	-0.510	-0.900
2020/01/31 10:02:14.9	114.280	0.300	-0.470	-0.810
2020/01/31 10:02:15.0	114.280	0.290	-0.420	-0.720
2020/01/31 10:02:15.1	114.290	0.270	-0.380	-0.630
2020/01/31 10:02:15.2	114.300	0.240	-0.330	-0.530
2020/01/31 10:02:15.3	114.310	0.220	-0.290	-0.430
2020/01/31 10:02:15.4	114.320	0.200	-0.240	-0.320
2020/01/31 10:02:15.5	114.330	0.170	-0.200	-0.220
2020/01/31 10:02:15.6	114.330	0.140	-0.150	-0.110
2020/01/31 10:02:15.7	114.340	0.120	-0.100	0.000
2020/01/31 10:02:15.8	114.340	0.090	-0.060	0.120
2020/01/31 10:02:15.9	114.340	0.060	-0.010	0.230
2020/01/31 10:02:16.0	114.340	0.030	0.030	0.350
2020/01/31 10:02:16.1	114.350	0.000	0.070	0.460
2020/01/31 10:02:16.2	114.350	-0.030	0.100	0.580
2020/01/31 10:02:16.3	114.350	-0.060	0.140	0.700
2020/01/31 10:02:16.4	114.350	-0.090	0.170	0.820
2020/01/31 10:02:16.5	114.350	-0.110	0.190	0.930
2020/01/31 10:02:16.6	114.350	-0.140	0.220	1.050
2020/01/31 10:02:16.7	114.350	-0.170	0.240	1.160
2020/01/31 10:02:16.8	114.350	-0.190	0.260	1.280
2020/01/31 10:02:16.9	114.350	-0.220	0.280	1.390
2020/01/31 10:02:17.0	114.350	-0.240	0.290	1.500
2020/01/31 10:02:17.1	114.340	-0.270	0.300	1.610
2020/01/31 10:02:17.2	114.340	-0.290	0.310	1.710
2020/01/31 10:02:17.3	114.340	-0.310	0.310	1.810
2020/01/31 10:02:17.4	114.330	-0.330	0.320	1.910
2020/01/31 10:02:17.5	114.330	-0.350	0.320	2.010
2020/01/31 10:02:17.6	114.330	-0.360	0.310	2.100
2020/01/31 10:02:17.7	114.330	-0.380	0.310	2.190
2020/01/31 10:02:17.8	114.330	-0.390	0.300	2.280
2020/01/31 10:02:17.9	114.330	-0.400	0.290	2.360
2020/01/31 10:02:18.0	114.330	-0.420	0.280	2.440
2020/01/31 10:02:18.1	114.320	-0.420	0.260	2.510
2020/01/31 10:02:18.2	114.320	-0.430	0.240	2.580
2020/01/31 10:02:18.3	114.320	-0.440	0.220	2.650
2020/01/31 10:02:18.4	114.310	-0.440	0.200	2.710
2020/01/31 10:02:18.5	114.310	-0.440	0.180	2.770
2020/01/31 10:02:18.6	114.310	-0.440	0.150	2.820
2020/01/31 10:02:18.7	114.300	-0.440	0.130	2.870
2020/01/31 10:02:18.8	114.300	-0.430	0.100	2.910
2020/01/31 10:02:18.9	114.290	-0.420	0.070	2.950
2020/01/31 10:02:19.0	114.290	-0.410	0.030	2.980
2020/01/31 10:02:19.1	114.280	-0.400	0.000	3.010
2020/01/31 10:02:19.2	114.280	-0.390	-0.030	3.040
2020/01/31 10:02:19.3	114.270	-0.380	-0.070	3.050
2020/01/31 10:02:19.4	114.270	-0.360	-0.100	3.070
2020/01/31 10:02:19.5	114.260	-0.350	-0.130	3.070
2020/01/31 10:02:19.6	114.260	-0.330	-0.170	3.070
2020/01/31 10:02:19.7	114.260	-0.310	-0.200	3.070
2020/01/31 10:02:19.8	114.260	-0.290	-0.230	3.060
2020/01/31 10:02:19.9	114.260	-0.260	-0.270	3.050
2020/01/31 10:02:20.0	114.260	-0.240	-0.300	3.030
2020/01/31 10:02:20.1	114.260	-0.220	-0.330	3.000
2020/01/31 10:02:20.2	114.260	-0.190	-0.360	2.970
2020/01/31 10:02:20.3	114.260	-0.170	-0.390	2.940
2020/01/31 10:02:20.4	114.260	-0.140	-0.420	2.900
2020/01/31 10:02:20.5	114.260	-0.120	-0.440	2.860
2020/01/31 10:02:20.6	114.260	-0.090	-0.470	2.820
2020/01/31 10:02:20.7	114.270	-0.070	-0.490	2.770
2020/01/31 10:02:20.8	114.270	-0.040	-0.510	2.720
2020/01/31 10:02:20.9	114.270	-0.020	-0.530	2.660
2020/01/31 10:02:21.0	114.280	0.010	-0.550	2.600
2020/01/31 10:02:21.1	114.280	0.030	-0.570	2.540
2020/01/31 10:02:21.2	114.290	0.050	-0.580	2.470
2020/01/31 10:02:21.3	114.290	0.080	-0.590	2.400
2020/01/31 10:02:21.4	114.300	0.100	-0.600	2.330
2020/01/31 10:02:21.5	114.310	0.120	-0.600	2.250
2020/01/31 10:02:21.6	114.310	0.140	-0.600	2.170
2020/01/31 10:02:21.7	114.320	0.160	-0.600	2.080
2020/01/31 10:02:21.8	114.330	0.180	-0.600	1.990
2020/01/31 10:02:21.9	114.340	0.190	-0.600	1.890
2020/01/31 10:02:22.0	114.350	0.210	-0.590	1.800
2020/01/31 10:02:22.1	114.360	0.230	-0.580	1.690
2020/01/31 10:02:22.2	114.370	0.240	-0.560	1.590
2020/01/31 10:02:22.3	114.380	0.250	-0.550	1.480
2020/01/31 10:02:22.4	114.380	0.260	-0.530	1.360
2020/01/31 10:02:22.5	114.390	0.270	-0.510	1.250
2020/01/31 10:02:22.6	114.400	0.280	-0.480	1.130
2020/01/31 10:02:22.7	114.410	0.280	-0.460	1.010
2020/01/31 10:02:22.8	114.420	0.290	-0.430	0.890
2020/01/31 10:02:22.9	114.430	0.290	-0.400	0.760
2020/01/31 10:02:23.0	114.450	0.290	-0.370	0.640
2020/01/31 10:02:23.1	114.460	0.300	-0.340	0.510
2020/01/31 10:02:23.2	114.460	0.290	-0.300	0.390
2020/01/31 10:02:23.3	114.470	0.290	-0.270	0.260
2020/01/31 10:02:23.4	114.490	0.290	-0.230	0.140
2020/01/31 10:02:23.5	114.490	0.290	-0.200	0.020
2020/01/31 10:02:23.6	114.500	0.280	-0.170	-0.100
2020/01/31 10:02:23.7	114.510	0.280	-0.140	-0.220
2020/01/31 10:02:23.8	114.520	0.270	-0.110	-0.340
2020/01/31 10:02:23.9	114.530	0.260	-0.080	-0.450
2020/01/31 10:02:24.0	114.530	0.250	-0.050	-0.570
2020/01/31 10:02:24.1	114.540	0.240	-0.030	-0.680
2020/01/31 10:02:24.2	114.550	0.230	-0.000	-0.780
2020/01/31 10:02:24.3	114.550	0.220	0.020	-0.880
2020/01/31 10:02:24.4	114.560	0.210	0.030	-0.980
2020/01/31 10:02:24.5	114.570	0.200	0.050	-1.070
2020/01/31 10:02:24.6	114.570	0.190	0.070	-1.160
2020/01/31 10:02:24.7	114.580	0.180	0.080	-1.240
2020/01/31 10:02:24.8	114.580	0.170	0.090	-1.320
2020/01/31 10:02:24.9	114.580	0.160	0.100	-1.400
2020/01/31 10:02:25.0	114.590	0.150	0.110	-1.470
2020/01/31 10:02:25.1	114.590	0.140	0.110	-1.530
2020/01/31 10:02:25.2	114.590	0.130	0.110	-1.590
2020/01/31 10:02:25.3	114.590	0.120	0.110	-1.640
2020/01/31 10:02:25.4	114.600	0.110	0.100	-1.680
2020/01/31 10:02:25.5	114.590	0.100	0.100	-1.720
2020/01/31 10:02:25.6	114.590	0.100	0.090	-1.760
2020/01/31 10:02:25.7	114.580	0.090	0.080	-1.790
2020/01/31 10:02:25.8	114.580	0.080	0.070	-1.810
2020/01/31 10:02:25.9	114.570	0.080	0.050	-1.820
2020/01/31 10:02:26.0	114.560	0.070	0.040	-1.830
2020/01/31 10:02:26.1	114.550	0.070	0.020	-1.840
2020/01/31 10:02:26.2	114.540	0.060	0.010	-1.840
2020/01/31 10:02:26.3	114.530	0.060	-0.010	-1.830
2020/01/31 10:02:26.4	114.530	0.050	-0.030	-1.810
2020/01/31 10:02:26.5	114.520	0.050	-0.050	-1.800
2020/01/31 10:02:26.6	114.500	0.040	-0.070	-1.770
2020/01/31 10:02:26.7	114.490	0.040	-0.090	-1.750
2020/01/31 10:02:26.8	114.480	0.030	-0.100	-1.720
2020/01/31 10:02:26.9	114.460	0.030	-0.120	-1.680
2020/01/31 10:02:27.0	114.450	0.020	-0.140	-1.640
2020/01/31 10:02:27.1	114.440	0.020	-0.160	-1.600
2020/01/31 10:02:27.2	114.420	0.010	-0.170	-1.560
2020/01/31 10:02:27.3	114.410	0.010	-0.180	-1.510
2020/01/31 10:02:27.4	114.410	-0.000	-0.190	-1.460
2020/01/31 10:02:27.5	114.400	-0.010	-0.200	-1.410
2020/01/31 10:02:27.6	114.390	-0.020	-0.210	-1.360
2020/01/31 10:02:27.7	114.390	-0.020	-0.210	-1.310
2020/01/31 10:02:27.8	114.380	-0.030	-0.210	-1.250
2020/01/31 10:02:27.9	114.380	-0.040	-0.210	-1.200
2020/01/31 10:02:28.0	114.380	-0.060	-0.210	-1.140
2020/01/31 10:02:28.1	114.380	-0.070	-0.200	-1.080
2020/01/31 10:02:28.2	114.380	-0.080	-0.190	-1.020
2020/01/31 10:02:28.3	114.380	-0.090	-0.180	-0.960
2020/01/31 10:02:28.4	114.390	-0.100	-0.170	-0.900
2020/01/31 10:02:28.5	114.390	-0.120	-0.160	-0.840
2020/01/31 10:02:28.6	114.400	-0.130	-0.140	-0.770
2020/01/31 10:02:28.7	114.410	-0.150	-0.120	-0.710
2020/01/31 10:02:28.8	114.410	-0.160	-0.100	-0.640
2020/01/31 10:02:28.9	114.420	-0.170	-0.080	-0.570
2020/01/31 10:02:29.0	114.430	-0.190	-0.060	-0.500
2020/01/31 10:02:29.1	114.440	-0.200	-0.050	-0.430
2020/01/31 10:02:29.2	114.450	-0.210	-0.030	-0.350
2020/01/31 10:02:29.3	114.460	-0.220	-0.010	-0.270
2020/01/31 10:02:29.4	114.450	-0.240	0.010	-0.190
2020/01/31 10:02:29.5	114.460	-0.250	0.030	-0.110
2020/01/31 10:02:29.6	114.470	-0.260	0.040	-0.030
2020/01/31 10:02:29.7	114.480	-0.260	0.050	0.050
2020/01/31 10:02:29.8	114.490	-0.270	0.060	0.130
2020/01/31 10:02:29.9	114.500	-0.280	0.060	0.220
2020/01/31 10:02:30.0	114.510	-0.280	0.070	0.300
2020/01/31 10:02:30.1	114.520	-0.280	0.070	0.390
2020/01/31 10:02:30.2	114.530	-0.290	0.070	0.470
2020/01/31 10:02:30.3	114.540	-0.280	0.060	0.560
2020/01/31 10:02:30.4	114.540	-0.280	0.050	0.640
2020/01/31 10:02:30.5	114.540	-0.280	0.040	0.730
2020/01/31 10:02:30.6	114.550	-0.270	0.020	0.810
2020/01/31 10:02:30.7	114.560	-0.270	0.000	0.900
2020/01/31 10:02:30.8	114.560	-0.260	-0.020	0.980
2020/01/31 10:02:30.9	114.570	-0.250	-0.040	1.070
2020/01/31 10:02:31.0	114.570	-0.230	-0.070	1.150
2020/01/31 10:02:31.1	114.570	-0.220	-0.110	1.230
2020/01/31 10:02:31.2	114.570	-0.210	-0.140	1.320
2020/01/31 10:02:31.3	114.570	-0.190	-0.180	1.400
2020/01/31 10:02:31.4	114.560	-0.170	-0.220	1.480
2020/01/31 10:02:31.5	114.550	-0.150	-0.260	1.560
2020/01/31 10:02:31.6	114.550	-0.130	-0.300	1.630
2020/01/31 10:02:31.7	114.540	-0.110	-0.340	1.710
2020/01/31 10:02:31.8	114.530	-0.090	-0.390	1.780
2020/01/31 10:02:31.9	114.520	-0.060	-0.430	1.850
2020/01/31 10:02:32.0	114.510	-0.040	-0.480	1.920
2020/01/31 10:02:32.1	114.500	-0.020	-0.520	1.990
2020/01/31 10:02:32.2	114.490	0.010	-0.570	2.050
2020/01/31 10:02:32.3	114.480	0.030	-0.610	2.110
2020/01/31 10:02:32.4	114.470	0.050	-0.640	2.170
2020/01/31 10:02:32.5	114.450	0.080	-0.680	2.220
2020/01/31 10:02:32.6	114.440	0.100	-0.720	2.270
2020/01/31 10:02:32.7	114.430	0.130	-0.750	2.320
2020/01/31 10:02:32.8	114.410	0.150	-0.780	2.360
2020/01/31 10:02:32.9	114.400	0.170	-0.800	2.400
2020/01/31 10:02:33.0	114.380	0.190	-0.820	2.430
2020/01/31 10:02:33.1	114.370	0.210	-0.840	2.460
2020/01/31 10:02:33.2	114.360	0.230	-0.850	2.490
2020/01/31 10:02:33.3	114.340	0.250	-0.860	2.510
2020/01/31 10:02:33.4	114.330	0.260	-0.860	2.530
2020/01/31 10:02:33.5	114.320	0.280	-0.860	2.550
2020/01/31 10:02:33.6	114.300	0.290	-0.850	2.560
2020/01/31 10:02:33.7	114.290	0.300	-0.840	2.560
2020/01/31 10:02:33.8	114.270	0.310	-0.820	2.570
2020/01/31 10:02:33.9	114.260	0.320	-0.800	2.560
2020/01/31 10:02:34.0	114.250	0.320	-0.770	2.560
2020/01/31 10:02:34.1	114.230	0.330	-0.730	2.540
2020/01/31 10:02:34.2	114.220	0.330	-0.700	2.530
2020/01/31 10:02:34.3	114.210	0.320	-0.650	2.510
2020/01/31 10:02:34.4	114.200	0.320	-0.600	2.480
2020/01/31 10:02:34.5	114.190	0.310	-0.550	2.450
2020/01/31 10:02:34.6	114.180	0.300	-0.490	2.420
2020/01/31 10:02:34.7	114.170	0.290	-0.430	2.380
2020/01/31 10:02:34.8	114.160	0.270	-0.360	2.340
2020/01/31 10:02:34.9	114.150	0.250	-0.290	2.290
2020/01/31 10:02:35.0	114.150	0.230	-0.220	2.240
2020/01/31 10:02:35.1	114.140	0.210	-0.140	2.190
2020/01/31 10:02:35.2	114.140	0.190	-0.060	2.130
2020/01/31 10:02:35.3	114.140	0.160	0.020	2.060
2020/01/31 10:02:35.4	114.130	0.130	0.110	2.000
2020/01/31 10:02:35.5	114.120	0.100	0.190	1.930
2020/01/31 10:02:35.6	114.120	0.070	0.270	1.850
2020/01/31 10:02:35.7	114.120	0.030	0.350	1.770
2020/01/31 10:02:35.8	114.130	0.000	0.440	1.690
2020/01/31 10:02:35.9	114.130	-0.030	0.520	1.610
2020/01/31 10:02:36.0	114.130	-0.070	0.590	1.520
2020/01/31 10:02:36.1	114.130	-0.110	0.670	1.430
2020/01/31 10:02:36.2	114.140	-0.140	0.740	1.330
2020/01/31 10:02:36.3	114.140	-0.170	0.810	1.230
2020/01/31 10:02:36.4	114.160	-0.210	0.870	1.130
2020/01/31 10:02:36.5	114.170	-0.240	0.920	1.030
2020/01/31 10:02:36.6	114.170	-0.270	0.970	0.920
2020/01/31 10:02:36.7	114.180	-0.300	1.010	0.820
2020/01/31 10:02:36.8	114.190	-0.330	1.050	0.710
2020/01/31 10:02:36.9	114.190	-0.350	1.080	0.600
2020/01/31 10:02:37.0	114.200	-0.370	1.100	0.490
2020/01/31 10:02:37.1	114.210	-0.390	1.110	0.370
2020/01/31 10:02:37.2	114.210	-0.400	1.110	0.260
2020/01/31 10:02:37.3	114.220	-0.420	1.100	0.150
2020/01/31 10:02:37.4	114.210	-0.420	1.080	0.030
2020/01/31 10:02:37.5	114.220	-0.430	1.050	-0.080
2020/01/31 10:02:37.6	114.230	-0.430	1.010	-0.190
2020/01/31 10:02:37.7	114.240	-0.430	0.970	-0.310
2020/01/31 10:02:37.8	114.240	-0.420	0.910	-0.420
2020/01/31 10:02:37.9	114.250	-0.410	0.850	-0.530
2020/01/31 10:02:38.0	114.250	-0.390	0.780	-0.640
2020/01/31 10:02:38.1	114.260	-0.370	0.700	-0.740
2020/01/31 10:02:38.2	114.260	-0.350	0.610	-0.840
2020/01/31 10:02:38.3	114.260	-0.330	0.510	-0.940
2020/01/31 10:02:38.4	114.270	-0.300	0.410	-1.040
2020/01/31 10:02:38.5	114.270	-0.260	0.300	-1.130
2020/01/31 10:02:38.6	114.260	-0.230	0.180	-1.220
2020/01/31 10:02:38.7	114.260	-0.190	0.060	-1.300
2020/01/31 10:02:38.8	114.250	-0.150	-0.060	-1.380
2020/01/31 10:02:38.9	114.240	-0.100	-0.190	-1.460
2020/01/31 10:02:39.0	114.230	-0.060	-0.310	-1.530
2020/01/31 10:02:39.1	114.210	-0.010	-0.440	-1.590
2020/01/31 10:02:39.2	114.200	0.040	-0.570	-1.650
2020/01/31 10:02:39.3	114.180	0.090	-0.700	-1.700
2020/01/31 10:02:39.4	114.160	0.130	-0.820	-1.750
2020/01/31 10:02:39.5	114.130	0.180	-0.940	-1.790
2020/01/31 10:02:39.6	114.110	0.230	-1.050	-1.830
2020/01/31 10:02:39.7	114.080	0.280	-1.160	-1.860
2020/01/31 10:02:39.8	114.050	0.320	-1.260	-1.890
2020/01/31 10:02:39.9	114.020	0.370	-1.360	-1.910
2020/01/31 10:02:40.0	113.990	0.410	-1.440	-1.930
2020/01/31 10:02:40.1	113.960	0.440	-1.520	-1.940
2020/01/31 10:02:40.2	113.920	0.480	-1.580	-1.940
2020/01/31 10:02:40.3	113.890	0.510	-1.630	-1.940
2020/01/31 10:02:40.4	113.860	0.530	-1.680	-1.940
2020/01/31 10:02:40.5	113.830	0.550	-1.710	-1.930
2020/01/31 10:02:40.6	113.790	0.570	-1.720	-1.920
2020/01/31 10:02:40.7	113.760	0.580	-1.720	-1.900
2020/01/31 10:02:40.8	113.730	0.590	-1.710	-1.870
2020/01/31 10:02:40.9	113.700	0.590	-1.690	-1.840
2020/01/31 10:02:41.0	113.670	0.580	-1.650	-1.810
2020/01/31 10:02:41.1	113.640	0.570	-1.600	-1.770
2020/01/31 10:02:41.2	113.610	0.560	-1.540	-1.720
2020/01/31 10:02:41.3	113.580	0.540	-1.470	-1.670
2020/01/31 10:02:41.4	113.550	0.510	-1.380	-1.620
2020/01/31 10:02:41.5	113.530	0.480	-1.290	-1.560
2020/01/31 10:02:41.6	113.500	0.440	-1.190	-1.500
2020/01/31 10:02:41.7	113.480	0.400	-1.080	-1.430
2020/01/31 10:02:41.8	113.450	0.360	-0.960	-1.360
2020/01/31 10:02:41.9	113.430	0.310	-0.840	-1.290
2020/01/31 10:02:42.0	113.410	0.260	-0.710	-1.220
2020/01/31 10:02:42.1	113.390	0.200	-0.580	-1.140
2020/01/31 10:02:42.2	113.370	0.150	-0.450	-1.060
2020/01/31 10:02:42.3	113.350	0.090	-0.310	-0.980
2020/01/31 10:02:42.4	113.340	0.030	-0.180	-0.890
2020/01/31 10:02:42.5	113.320	-0.030	-0.040	-0.810
2020/01/31 10:02:42.6	113.310	-0.090	0.090	-0.720
2020/01/31 10:02:42.7	113.290	-0.150	0.210	-0.630
2020/01/31 10:02:42.8	113.280	-0.210	0.340	-0.550
2020/01/31 10:02:42.9	113.270	-0.270	0.450	-0.460
2020/01/31 10:02:43.0	113.250	-0.330	0.560	-0.370
2020/01/31 10:02:43.1	113.240	-0.380	0.670	-0.280
2020/01/31 10:02:43.2	113.230	-0.430	0.760	-0.190
2020/01/31 10:02:43.3	113.220	-0.480	0.850	-0.110
2020/01/31 10:02:43.4	113.200	-0.530	0.930	-0.020
2020/01/31 10:02:43.5	113.190	-0.570	0.990	0.060
2020/01/31 10:02:43.6	113.190	-0.600	1.050	0.140
2020/01/31 10:02:43.7	113.180	-0.640	1.100	0.220
2020/01/31 10:02:43.8	113.180	-0.660	1.140	0.300
2020/01/31 10:02:43.9	113.170	-0.680	1.170	0.380
2020/01/31 10:02:44.0	113.170	-0.700	1.190	0.460
2020/01/31 10:02:44.1	113.170	-0.710	1.190	0.530
2020/01/31 10:02:44.2	113.170	-0.720	1.190	0.610
2020/01/31 10:02:44.3	113.170	-0.720	1.180	0.680
2020/01/31 10:02:44.4	113.170	-0.720	1.150	0.740
2020/01/31 10:02:44.5	113.170	-0.710	1.120	0.810
2020/01/31 10:02:44.6	113.180	-0.700	1.080	0.880
2020/01/31 10:02:44.7	113.180	-0.680	1.040	0.940
2020/01/31 10:02:44.8	113.190	-0.660	0.980	1.000
2020/01/31 10:02:44.9	113.200	-0.630	0.920	1.070
2020/01/31 10:02:45.0	113.200	-0.600	0.850	1.130
2020/01/31 10:02:45.1	113.210	-0.560	0.770	1.180
2020/01/31 10:02:45.2	113.220	-0.530	0.690	1.240
2020/01/31 10:02:45.3	113.220	-0.490	0.600	1.300
2020/01/31 10:02:45.4	113.220	-0.440	0.510	1.350
2020/01/31 10:02:45.5	113.220	-0.400	0.420	1.410
2020/01/31 10:02:45.6	113.230	-0.350	0.320	1.460
2020/01/31 10:02:45.7	113.230	-0.300	0.230	1.510
2020/01/31 10:02:45.8	113.230	-0.250	0.130	1.560
2020/01/31 10:02:45.9	113.240	-0.200	0.030	1.610
2020/01/31 10:02:46.0	113.240	-0.150	-0.070	1.660
2020/01/31 10:02:46.1	113.230	-0.100	-0.170	1.710
2020/01/31 10:02:46.2	113.230	-0.040	-0.270	1.750
2020/01/31 10:02:46.3	113.220	0.010	-0.370	1.790
2020/01/31 10:02:46.4	113.200	0.060	-0.460	1.830
2020/01/31 10:02:46.5	113.190	0.100	-0.550	1.870
2020/01/31 10:02:46.6	113.180	0.150	-0.640	1.910
2020/01/31 10:02:46.7	113.160	0.190	-0.720	1.950
2020/01/31 10:02:46.8	113.150	0.240	-0.800	1.980
2020/01/31 10:02:46.9	113.130	0.280	-0.870	2.010
2020/01/31 10:02:47.0	113.110	0.310	-0.940	2.040
2020/01/31 10:02:47.1	113.090	0.350	-1.000	2.070
2020/01/31 10:02:47.2	113.070	0.380	-1.060	2.100
2020/01/31 10:02:47.3	113.040	0.410	-1.100	2.120
2020/01/31 10:02:47.4	113.010	0.430	-1.140	2.140
2020/01/31 10:02:47.5	112.980	0.460	-1.170	2.170
2020/01/31 10:02:47.6	112.950	0.480	-1.200	2.190
2020/01/31 10:02:47.7	112.920	0.490	-1.220	2.200
2020/01/31 10:02:47.8	112.890	0.510	-1.230	2.220
2020/01/31 10:02:47.9	112.860	0.520	-1.240	2.240
2020/01/31 10:02:48.0	112.820	0.530	-1.240	2.250
2020/01/31 10:02:48.1	112.780	0.540	-1.230	2.260
2020/01/31 10:02:48.2	112.750	0.540	-1.220	2.270
2020/01/31 10:02:48.3	112.710	0.540	-1.200	2.280
2020/01/31 10:02:48.4	112.700	0.540	-1.170	2.280
2020/01/31 10:02:48.5	112.660	0.540	-1.140	2.280
2020/01/31 10:02:48.6	112.610	0.530	-1.110	2.280
2020/01/31 10:02:48.7	112.570	0.530	-1.060	2.270
2020/01/31 10:02:48.8	112.530	0.520	-1.020	2.260
2020/01/31 10:02:48.9	112.490	0.510	-0.970	2.250
2020/01/31 10:02:49.0	112.440	0.500	-0.910	2.220
2020/01/31 10:02:49.1	112.400	0.490	-0.850	2.200
2020/01/31 10:02:49.2	112.360	0.480	-0.780	2.160
2020/01/31 10:02:49.3	112.320	0.460	-0.720	2.130
2020/01/31 10:02:49.4	112.290	0.450	-0.640	2.080
2020/01/31 10:02:49.5	112.250	0.430	-0.570	2.030
2020/01/31 10:02:49.6	112.210	0.420	-0.490	1.970
2020/01/31 10:02:49.7	112.180	0.400	-0.410	1.910
2020/01/31 10:02:49.8	112.150	0.380	-0.330	1.840
2020/01/31 10:02:49.9	112.120	0.360	-0.250	1.760
2020/01/31 10:02:50.0	112.090	0.340	-0.170	1.680
2020/01/31 10:02:50.1	112.060	0.320	-0.090	1.600
2020/01/31 10:02:50.2	112.030	0.300	-0.010	1.510
2020/01/31 10:02:50.3	112.000	0.280	0.070	1.420
2020/01/31 10:02:50.4	111.990	0.260	0.150	1.310
2020/01/31 10:02:50.5	111.960	0.240	0.230	1.210
2020/01/31 10:02:50.6	111.940	0.220	0.300	1.110
2020/01/31 10:02:50.7	111.920	0.190	0.370	1.000
2020/01/31 10:02:50.8	111.900	0.170	0.440	0.890
2020/01/31 10:02:50.9	111.880	0.150	0.510	0.770
2020/01/31 10:02:51.0	111.860	0.120	0.570	0.660
2020/01/31 10:02:51.1	111.840	0.100	0.620	0.540
2020/01/31 10:02:51.2	111.820	0.070	0.670	0.430
2020/01/31 10:02:51.3	111.800	0.040	0.720	0.310
2020/01/31 10:02:51.4	111.780	0.020	0.750	0.190
2020/01/31 10:02:51.5	111.760	-0.010	0.790	0.070
2020/01/31 10:02:51.6	111.750	-0.030	0.820	-0.040
2020/01/31 10:02:51.7	111.730	-0.060	0.840	-0.160
2020/01/31 10:02:51.8	111.710	-0.080	0.850	-0.270
2020/01/31 10:02:51.9	111.700	-0.110	0.860	-0.380
2020/01/31 10:02:52.0	111.680	-0.130	0.870	-0.480
2020/01/31 10:02:52.1	111.660	-0.160	0.860	-0.590
2020/01/31 10:02:52.2	111.640	-0.180	0.850	-0.690
2020/01/31 10:02:52.3	111.620	-0.200	0.840	-0.790
2020/01/31 10:02:52.4	111.590	-0.220	0.810	-0.880
2020/01/31 10:02:52.5	111.570	-0.240	0.780	-0.970
2020/01/31 10:02:52.6	111.550	-0.260	0.750	-1.060
2020/01/31 10:02:52.7	111.530	-0.280	0.710	-1.140
2020/01/31 10:02:52.8	111.510	-0.300	0.660	-1.220
2020/01/31 10:02:52.9	111.490	-0.310	0.610	-1.290
2020/01/31 10:02:53.0	111.470	-0.330	0.550	-1.360
2020/01/31 10:02:53.1	111.450	-0.340	0.490	-1.430
2020/01/31 10:02:53.2	111.430	-0.350	0.420	-1.490
2020/01/31 10:02:53.3	111.410	-0.360	0.350	-1.540
2020/01/31 10:02:53.4	111.400	-0.370	0.280	-1.600
2020/01/31 10:02:53.5	111.380	-0.380	0.210	-1.640
2020/01/31 10:02:53.6	111.360	-0.380	0.130	-1.690
2020/01/31 10:02:53.7	111.340	-0.380	0.050	-1.720
2020/01/31 10:02:53.8	111.330	-0.390	-0.030	-1.760
2020/01/31 10:02:53.9	111.310	-0.390	-0.110	-1.790
2020/01/31 10:02:54.0	111.290	-0.390	-0.190	-1.810
2020/01/31 10:02:54.1	111.270	-0.380	-0.270	-1.830
2020/01/31 10:02:54.2	111.260	-0.380	-0.350	-1.840
2020/01/31 10:02:54.3	111.240	-0.370	-0.430	-1.850
2020/01/31 10:02:54.4	111.220	-0.370	-0.500	-1.860
2020/01/31 10:02:54.5	111.200	-0.360	-0.580	-1.860
2020/01/31 10:02:54.6	111.180	-0.350	-0.650	-1.850
2020/01/31 10:02:54.7	111.160	-0.340	-0.710	-1.840
2020/01/31 10:02:54.8	111.140	-0.320	-0.770	-1.830
2020/01/31 10:02:54.9	111.120	-0.310	-0.830	-1.810
2020/01/31 10:02:55.0	111.090	-0.300	-0.890	-1.790
2020/01/31 10:02:55.1	111.070	-0.280	-0.930	-1.760
2020/01/31 10:02:55.2	111.050	-0.260	-0.980	-1.730
2020/01/31 10:02:55.3	111.020	-0.250	-1.010	-1.700
2020/01/31 10:02:55.4	111.010	-0.230	-1.040	-1.650
2020/01/31 10:02:55.5	110.980	-0.210	-1.070	-1.610
2020/01/31 10:02:55.6	110.950	-0.190	-1.080	-1.570
2020/01/31 10:02:55.7	110.920	-0.170	-1.100	-1.520
2020/01/31 10:02:55.8	110.890	-0.160	-1.100	-1.470
2020/01/31 10:02:55.9	110.860	-0.140	-1.100	-1.410
2020/01/31 10:02:56.0	110.830	-0.120	-1.090	-1.360
2020/01/31 10:02:56.1	110.800	-0.100	-1.080	-1.290
2020/01/31 10:02:56.2	110.770	-0.080	-1.060	-1.230
2020/01/31 10:02:56.3	110.740	-0.060	-1.030	-1.160
2020/01/31 10:02:56.4	110.690	-0.050	-1.000	-1.090
2020/01/31 10:02:56.5	110.660	-0.030	-0.960	-1.020
2020/01/31 10:02:56.6	110.630	-0.010	-0.920	-0.950
2020/01/31 10:02:56.7	110.600	0.000	-0.880	-0.870
2020/01/31 10:02:56.8	110.570	0.020	-0.830	-0.790
2020/01/31 10:02:56.9	110.540	0.030	-0.780	-0.710
2020/01/31 10:02:57.0	110.500	0.050	-0.720	-0.620
2020/01/31 10:02:57.1	110.470	0.060	-0.660	-0.540
2020/01/31 10:02:57.2	110.440	0.070	-0.600	-0.450
2020/01/31 10:02:57.3	110.420	0.090	-0.540	-0.360
2020/01/31 10:02:57.4	110.370	0.100	-0.480	-0.280
2020/01/31 10:02:57.5	110.350	0.110	-0.410	-0.190
2020/01/31 10:02:57.6	110.320	0.120	-0.350	-0.100
2020/01/31 10:02:57.7	110.290	0.130	-0.290	-0.000
2020/01/31 10:02:57.8	110.260	0.140	-0.230	0.090
2020/01/31 10:02:57.9	110.240	0.140	-0.170	0.180
2020/01/31 10:02:58.0	110.220	0.150	-0.120	0.270
2020/01/31 10:02:58.1	110.190	0.160	-0.060	0.360
2020/01/31 10:02:58.2	110.170	0.160	-0.010	0.450
2020/01/31 10:02:58.3	110.150	0.170	0.040	0.540
2020/01/31 10:02:58.4	110.120	0.170	0.090	0.620
2020/01/31 10:02:58.5	110.100	0.180	0.130	0.710
2020/01/31 10:02:58.6	110.080	0.180	0.170	0.790
2020/01/31 10:02:58.7	110.060	0.190	0.210	0.870
2020/01/31 10:02:58.8	110.050	0.190	0.250	0.940
2020/01/31 10:02:58.9	110.030	0.190	0.280	1.010
2020/01/31 10:02:59.0	110.010	0.200	0.310	1.080
2020/01/31 10:02:59.1	110.000	0.200	0.330	1.140
2020/01/31 10:02:59.2	109.980	0.200	0.350	1.200
2020/01/31 10:02:59.3	109.960	0.200	0.380	1.260
2020/01/31 10:02:59.4	109.950	0.200	0.390	1.310
2020/01/31 10:02:59.5	109.940	0.200	0.410	1.360
2020/01/31 10:02:59.6	109.920	0.200	0.420	1.400
2020/01/31 10:02:59.7	109.900	0.200	0.430	1.440
2020/01/31 10:02:59.8	109.880	0.200	0.430	1.480
2020/01/31 10:02:59.9	109.850	0.200	0.440	1.520
2020/01/31 10:03:00.0	109.830	0.200	0.440	1.550
2020/01/31 10:03:00.1	109.800	0.200	0.440	1.580
2020/01/31 10:03:00.2	109.770	0.200	0.440	1.600
2020/01/31 10:03:00.3	109.740	0.190	0.440	1.630
2020/01/31 10:03:00.4	109.710	0.190	0.430	1.640
2020/01/31 10:03:00.5	109.680	0.190	0.420	1.660
2020/01/31 10:03:00.6	109.640	0.180	0.420	1.670
2020/01/31 10:03:00.7	109.600	0.180	0.410	1.690
2020/01/31 10:03:00.8	109.560	0.170	0.390	1.700
2020/01/31 10:03:00.9	109.520	0.160	0.380	1.700
2020/01/31 10:03:01.0	109.480	0.160	0.370	1.710
2020/01/31 10:03:01.1	109.430	0.150	0.350	1.710
2020/01/31 10:03:01.2	109.390	0.140	0.330	1.720
2020/01/31 10:03:01.3	109.340	0.130	0.310	1.720
2020/01/31 10:03:01.4	109.300	0.120	0.290	1.710
2020/01/31 10:03:01.5	109.250	0.110	0.270	1.710
2020/01/31 10:03:01.6	109.190	0.100	0.240	1.710
2020/01/31 10:03:01.7	109.140	0.090	0.210	1.700
2020/01/31 10:03:01.8	109.090	0.080	0.180	1.700
2020/01/31 10:03:01.9	109.040	0.070	0.150	1.690
2020/01/31 10:03:02.0	108.980	0.050	0.110	1.680
2020/01/31 10:03:02.1	108.930	0.040	0.080	1.670
2020/01/31 10:03:02.2	108.880	0.030	0.040	1.660
2020/01/31 10:03:02.3	108.820	0.020	-0.000	1.650
2020/01/31 10:03:02.4	108.760	0.010	-0.050	1.640
2020/01/31 10:03:02.5	108.710	0.000	-0.090	1.620
2020/01/31 10:03:02.6	108.660	-0.010	-0.140	1.610
2020/01/31 10:03:02.7	108.610	-0.020	-0.190	1.590
2020/01/31 10:03:02.8	108.560	-0.030	-0.240	1.580
2020/01/31 10:03:02.9	108.520	-0.030	-0.290	1.560
2020/01/31 10:03:03.0	108.470	-0.040	-0.340	1.550
2020/01/31 10:03:03.1	108.430	-0.050	-0.390	1.530
2020/01/31 10:03:03.2	108.390	-0.050	-0.450	1.510
2020/01/31 10:03:03.3	108.350	-0.060	-0.500	1.490
2020/01/31 10:03:03.4	108.290	-0.060	-0.550	1.460
2020/01/31 10:03:03.5	108.260	-0.060	-0.600	1.440
2020/01/31 10:03:03.6	108.230	-0.070	-0.650	1.410
2020/01/31 10:03:03.7	108.190	-0.070	-0.690	1.390
2020/01/31 10:03:03.8	108.160	-0.070	-0.740	1.360
2020/01/31 10:03:03.9	108.140	-0.070	-0.780	1.320
2020/01/31 10:03:04.0	108.110	-0.070	-0.820	1.290
2020/01/31 10:03:04.1	108.090	-0.070	-0.850	1.260
2020/01/31 10:03:04.2	108.060	-0.070	-0.880	1.220
2020/01/31 10:03:04.3	108.040	-0.070	-0.900	1.180
2020/01/31 10:03:04.4	108.050	-0.070	-0.920	1.140
2020/01/31 10:03:04.5	108.030	-0.070	-0.940	1.100
2020/01/31 10:03:04.6	108.010	-0.060	-0.950	1.050
2020/01/31 10:03:04.7	107.990	-0.060	-0.950	1.010
2020/01/31 10:03:04.8	107.970	-0.060	-0.950	0.960
2020/01/31 10:03:04.9	107.950	-0.060	-0.950	0.920
2020/01/31 10:03:05.0	107.920	-0.060	-0.930	0.870
2020/01/31 10:03:05.1	107.900	-0.060	-0.920	0.820
2020/01/31 10:03:05.2	107.880	-0.060	-0.900	0.770
2020/01/31 10:03:05.3	107.860	-0.060	-0.870	0.720
2020/01/31 10:03:05.4	107.840	-0.060	-0.850	0.670
2020/01/31 10:03:05.5	107.820	-0.060	-0.810	0.620
2020/01/31 10:03:05.6	107.790	-0.060	-0.770	0.560
2020/01/31 10:03:05.7	107.760	-0.060	-0.730	0.510
2020/01/31 10:03:05.8	107.740	-0.060	-0.680	0.460
2020/01/31 10:03:05.9	107.710	-0.060	-0.640	0.410
2020/01/31 10:03:06.0	107.680	-0.060	-0.580	0.350
2020/01/31 10:03:06.1	107.640	-0.060	-0.530	0.300
2020/01/31 10:03:06.2	107.610	-0.070	-0.480	0.240
2020/01/31 10:03:06.3	107.580	-0.070	-0.420	0.190
2020/01/31 10:03:06.4	107.530	-0.070	-0.360	0.140
2020/01/31 10:03:06.5	107.500	-0.080	-0.300	0.080
2020/01/31 10:03:06.6	107.460	-0.080	-0.250	0.030
2020/01/31 10:03:06.7	107.430	-0.080	-0.190	-0.030
2020/01/31 10:03:06.8	107.390	-0.080	-0.130	-0.080
2020/01/31 10:03:06.9	107.360	-0.090	-0.080	-0.140
2020/01/31 10:03:07.0	107.320	-0.090	-0.030	-0.190
2020/01/31 10:03:07.1	107.290	-0.090	0.020	-0.240
2020/01/31 10:03:07.2	107.260	-0.090	0.070	-0.300
2020/01/31 10:03:07.3	107.220	-0.090	0.120	-0.350
2020/01/31 10:03:07.4	107.190	-0.090	0.160	-0.410
2020/01/31 10:03:07.5	107.160	-0.090	0.200	-0.460
2020/01/31 10:03:07.6	107.130	-0.080	0.230	-0.510
2020/01/31 10:03:07.7	107.110	-0.080	0.260	-0.550
2020/01/31 10:03:07.8	107.080	-0.080	0.290	-0.600
2020/01/31 10:03:07.9	107.050	-0.070	0.310	-0.640
2020/01/31 10:03:08.0	107.030	-0.060	0.330	-0.680
2020/01/31 10:03:08.1	107.000	-0.050	0.340	-0.720
2020/01/31 10:03:08.2	106.970	-0.040	0.350	-0.760
2020/01/31 10:03:08.3	106.940	-0.030	0.360	-0.790
2020/01/31 10:03:08.4	106.930	-0.020	0.360	-0.820
2020/01/31 10:03:08.5	106.900	-0.000	0.360	-0.840
2020/01/31 10:03:08.6	106.870	0.010	0.350	-0.870
2020/01/31 10:03:08.7	106.840	0.030	0.340	-0.880
2020/01/31 10:03:08.8	106.810	0.040	0.330	-0.900
2020/01/31 10:03:08.9	106.780	0.060	0.320	-0.910
2020/01/31 10:03:09.0	106.740	0.080	0.310	-0.920
2020/01/31 10:03:09.1	106.700	0.100	0.290	-0.930
2020/01/31 10:03:09.2	106.660	0.110	0.270	-0.930
2020/01/31 10:03:09.3	106.620	0.130	0.260	-0.930
2020/01/31 10:03:09.4	106.590	0.150	0.240	-0.920
2020/01/31 10:03:09.5	106.550	0.170	0.220	-0.920
2020/01/31 10:03:09.6	106.500	0.180	0.200	-0.910
2020/01/31 10:03:09.7	106.460	0.200	0.190	-0.900
2020/01/31 10:03:09.8	106.410	0.210	0.170	-0.880
2020/01/31 10:03:09.9	106.360	0.230	0.160	-0.870
2020/01/31 10:03:10.0	106.310	0.240	0.140	-0.850
2020/01/31 10:03:10.1	106.250	0.250	0.130	-0.830
2020/01/31 10:03:10.2	106.200	0.250	0.130	-0.810
2020/01/31 10:03:10.3	106.150	0.260	0.120	-0.790
2020/01/31 10:03:10.4	106.110	0.260	0.120	-0.770
2020/01/31 10:03:10.5	106.060	0.260	0.110	-0.750
2020/01/31 10:03:10.6	106.010	0.250	0.110	-0.730
2020/01/31 10:03:10.7	105.960	0.250	0.120	-0.700
2020/01/31 10:03:10.8	105.910	0.240	0.120	-0.680
2020/01/31 10:03:10.9	105.860	0.230	0.120	-0.650
2020/01/31 10:03:11.0	105.810	0.210	0.130	-0.630
2020/01/31 10:03:11.1	105.760	0.200	0.140	-0.600
2020/01/31 10:03:11.2	105.720	0.180	0.150	-0.580
2020/01/31 10:03:11.3	105.670	0.160	0.150	-0.550
2020/01/31 10:03:11.4	105.640	0.130	0.160	-0.520
2020/01/31 10:03:11.5	105.600	0.110	0.170	-0.500
2020/01/31 10:03:11.6	105.570	0.090	0.170	-0.470
2020/01/31 10:03:11.7	105.530	0.060	0.180	-0.440
2020/01/31 10:03:11.8	105.490	0.030	0.180	-0.410
2020/01/31 10:03:11.9	105.460	0.010	0.170	-0.380
2020/01/31 10:03:12.0	105.430	-0.020	0.170	-0.350
2020/01/31 10:03:12.1	105.400	-0.050	0.160	-0.320
2020/01/31 10:03:12.2	105.370	-0.080	0.150	-0.280
2020/01/31 10:03:12.3	105.350	-0.100	0.130	-0.250
2020/01/31 10:03:12.4	105.340	-0.120	0.110	-0.210
2020/01/31 10:03:12.5	105.310	-0.150	0.080	-0.180
2020/01/31 10:03:12.6	105.290	-0.170	0.050	-0.140
2020/01/31 10:03:12.7	105.270	-0.190	0.020	-0.100
2020/01/31 10:03:12.8	105.250	-0.200	-0.020	-0.060
2020/01/31 10:03:12.9	105.230	-0.220	-0.060	-0.010
2020/01/31 10:03:13.0	105.210	-0.230	-0.110	0.030
2020/01/31 10:03:13.1	105.200	-0.230	-0.150	0.080
2020/01/31 10:03:13.2	105.180	-0.240	-0.210	0.130
2020/01/31 10:03:13.3	105.160	-0.240	-0.260	0.180
2020/01/31 10:03:13.4	105.150	-0.240	-0.320	0.240
2020/01/31 10:03:13.5	105.130	-0.230	-0.380	0.300
2020/01/31 10:03:13.6	105.110	-0.230	-0.440	0.360
2020/01/31 10:03:13.7	105.080	-0.220	-0.500	0.420
2020/01/31 10:03:13.8	105.060	-0.200	-0.560	0.490
2020/01/31 10:03:13.9	105.040	-0.190	-0.620	0.560
2020/01/31 10:03:14.0	105.010	-0.170	-0.680	0.630
2020/01/31 10:03:14.1	104.980	-0.150	-0.730	0.700
2020/01/31 10:03:14.2	104.950	-0.130	-0.790	0.770
2020/01/31 10:03:14.3	104.920	-0.100	-0.840	0.850
2020/01/31 10:03:14.4	104.870	-0.080	-0.880	0.930
2020/01/31 10:03:14.5	104.830	-0.050	-0.920	1.010
2020/01/31 10:03:14.6	104.790	-0.030	-0.950	1.090
2020/01/31 10:03:14.7	104.750	-0.000	-0.980	1.170
2020/01/31 10:03:14.8	104.700	0.030	-1.010	1.250
2020/01/31 10:03:14.9	104.650	0.050	-1.030	1.330
2020/01/31 10:03:15.0	104.600	0.080	-1.040	1.410
2020/01/31 10:03:15.1	104.550	0.100	-1.040	1.490
2020/01/31 10:03:15.2	104.500	0.120	-1.040	1.570
2020/01/31 10:03:15.3	104.440	0.140	-1.030	1.650
2020/01/31 10:03:15.4	104.370	0.160	-1.010	1.730
2020/01/31 10:03:15.5	104.310	0.180	-0.990	1.800
2020/01/31 10:03:15.6	104.250	0.190	-0.960	1.870
2020/01/31 10:03:15.7	104.190	0.210	-0.920	1.940
2020/01/31 10:03:15.8	104.130	0.210	-0.880	2.000
2020/01/31 10:03:15.9	104.070	0.220	-0.830	2.060
2020/01/31 10:03:16.0	104.010	0.230	-0.780	2.120
2020/01/31 10:03:16.1	103.950	0.230	-0.720	2.170
2020/01/31 10:03:16.2	103.890	0.230	-0.660	2.220
2020/01/31 10:03:16.3	103.830	0.220	-0.600	2.260
2020/01/31 10:03:16.4	103.770	0.220	-0.520	2.300
2020/01/31 10:03:16.5	103.710	0.210	-0.450	2.330
2020/01/31 10:03:16.6	103.660	0.200	-0.390	2.360
2020/01/31 10:03:16.7	103.600	0.180	-0.310	2.380
2020/01/31 10:03:16.8	103.550	0.170	-0.240	2.390
2020/01/31 10:03:16.9	103.490	0.150	-0.170	2.400
2020/01/31 10:03:17.0	103.440	0.130	-0.110	2.410
2020/01/31 10:03:17.1	103.390	0.110	-0.040	2.400
2020/01/31 10:03:17.2	103.340	0.090	0.020	2.390
2020/01/31 10:03:17.3	103.290	0.070	0.090	2.380
2020/01/31 10:03:17.4	103.250	0.050	0.140	2.360
2020/01/31 10:03:17.5	103.210	0.030	0.200	2.340
2020/01/31 10:03:17.6	103.160	0.000	0.240	2.310
2020/01/31 10:03:17.7	103.120	-0.020	0.290	2.280
2020/01/31 10:03:17.8	103.070	-0.040	0.330	2.240
2020/01/31 10:03:17.9	103.030	-0.060	0.360	2.200
2020/01/31 10:03:18.0	102.990	-0.080	0.390	2.160
2020/01/31 10:03:18.1	102.940	-0.090	0.410	2.110
2020/01/31 10:03:18.2	102.900	-0.110	0.430	2.060
2020/01/31 10:03:18.3	102.860	-0.120	0.440	2.000
2020/01/31 10:03:18.4	102.830	-0.130	0.440	1.950
2020/01/31 10:03:18.5	102.780	-0.140	0.440	1.890
2020/01/31 10:03:18.6	102.740	-0.150	0.430	1.820
2020/01/31 10:03:18.7	102.700	-0.160	0.430	1.760
2020/01/31 10:03:18.8	102.660	-0.160	0.410	1.690
2020/01/31 10:03:18.9	102.610	-0.160	0.390	1.620
2020/01/31 10:03:19.0	102.570	-0.160	0.370	1.540
2020/01/31 10:03:19.1	102.530	-0.150	0.340	1.470
2020/01/31 10:03:19.2	102.490	-0.150	0.310	1.390
2020/01/31 10:03:19.3	102.440	-0.140	0.280	1.310
2020/01/31 10:03:19.4	102.420	-0.130	0.250	1.220
2020/01/31 10:03:19.5	102.380	-0.120	0.210	1.140
2020/01/31 10:03:19.6	102.340	-0.110	0.170	1.050
2020/01/31 10:03:19.7	102.300	-0.090	0.140	0.960
2020/01/31 10:03:19.8	102.260	-0.080	0.100	0.870
2020/01/31 10:03:19.9	102.220	-0.060	0.060	0.770
2020/01/31 10:03:20.0	102.180	-0.050	0.020	0.680
2020/01/31 10:03:20.1	102.140	-0.030	-0.010	0.580
2020/01/31 10:03:20.2	102.100	-0.020	-0.050	0.480
2020/01/31 10:03:20.3	102.060	-0.000	-0.080	0.380
2020/01/31 10:03:20.4	102.040	0.010	-0.110	0.280
2020/01/31 10:03:20.5	102.010	0.020	-0.140	0.180
2020/01/31 10:03:20.6	101.970	0.030	-0.170	0.080
2020/01/31 10:03:20.7	101.940	0.040	-0.190	-0.020
2020/01/31 10:03:20.8	101.900	0.050	-0.210	-0.120
2020/01/31 10:03:20.9	101.870	0.060	-0.220	-0.230
2020/01/31 10:03:21.0	101.830	0.060	-0.240	-0.330
2020/01/31 10:03:21.1	101.800	0.070	-0.240	-0.430
2020/01/31 10:03:21.2	101.770	0.070	-0.250	-0.530
2020/01/31 10:03:21.3	101.730	0.070	-0.250	-0.630
2020/01/31 10:03:21.4	101.710	0.060	-0.250	-0.730
2020/01/31 10:03:21.5	101.680	0.060	-0.250	-0.820
2020/01/31 10:03:21.6	101.650	0.050	-0.240	-0.920
2020/01/31 10:03:21.7	101.620	0.050	-0.240	-1.010
2020/01/31 10:03:21.8	101.580	0.040	-0.230	-1.090
2020/01/31 10:03:21.9	101.550	0.030	-0.220	-1.180
2020/01/31 10:03:22.0	101.520	0.010	-0.210	-1.260
2020/01/31 10:03:22.1	101.480	0.000	-0.200	-1.340
2020/01/31 10:03:22.2	101.450	-0.010	-0.190	-1.410
2020/01/31 10:03:22.3	101.410	-0.030	-0.180	-1.480
2020/01/31 10:03:22.4	101.380	-0.040	-0.170	-1.540
2020/01/31 10:03:22.5	101.350	-0.060	-0.160	-1.600
2020/01/31 10:03:22.6	101.310	-0.070	-0.150	-1.650
2020/01/31 10:03:22.7	101.270	-0.090	-0.140	-1.700
2020/01/31 10:03:22.8	101.230	-0.100	-0.130	-1.740
2020/01/31 10:03:22.9	101.200	-0.120	-0.130	-1.770
2020/01/31 10:03:23.0	101.160	-0.130	-0.130	-1.800
2020/01/31 10:03:23.1	101.120	-0.140	-0.130	-1.820
2020/01/31 10:03:23.2	101.080	-0.150	-0.130	-1.830
2020/01/31 10:03:23.3	101.040	-0.160	-0.130	-1.840
2020/01/31 10:03:23.4	101.010	-0.170	-0.140	-1.840
2020/01/31 10:03:23.5	100.970	-0.180	-0.150	-1.830
2020/01/31 10:03:23.6	100.930	-0.180	-0.160	-1.820
2020/01/31 10:03:23.7	100.900	-0.190	-0.170	-1.800
2020/01/31 10:03:23.8	100.860	-0.190	-0.180	-1.770
2020/01/31 10:03:23.9	100.830	-0.190	-0.200	-1.740
2020/01/31 10:03:24.0	100.790	-0.180	-0.220	-1.700
2020/01/31 10:03:24.1	100.760	-0.180	-0.240	-1.660
2020/01/31 10:03:24.2	100.730	-0.170	-0.260	-1.610
2020/01/31 10:03:24.3	100.690	-0.160	-0.280	-1.560
2020/01/31 10:03:24.4	100.650	-0.150	-0.300	-1.500
2020/01/31 10:03:24.5	100.620	-0.140	-0.330	-1.440
2020/01/31 10:03:24.6	100.590	-0.120	-0.350	-1.380
2020/01/31 10:03:24.7	100.570	-0.110	-0.370	-1.310
2020/01/31 10:03:24.8	100.540	-0.090	-0.390	-1.240
2020/01/31 10:03:24.9	100.510	-0.070	-0.410	-1.160
2020/01/31 10:03:25.0	100.480	-0.060	-0.430	-1.090
2020/01/31 10:03:25.1	100.450	-0.040	-0.450	-1.010
2020/01/31 10:03:25.2	100.420	-0.020	-0.470	-0.930
2020/01/31 10:03:25.3	100.400	0.000	-0.480	-0.840
2020/01/31 10:03:25.4	100.360	0.020	-0.490	-0.760
2020/01/31 10:03:25.5	100.330	0.040	-0.500	-0.670
2020/01/31 10:03:25.6	100.290	0.060	-0.510	-0.580
2020/01/31 10:03:25.7	100.260	0.070	-0.510	-0.490
2020/01/31 10:03:25.8	100.220	0.090	-0.510	-0.400
2020/01/31 10:03:25.9	100.180	0.100	-0.510	-0.310
2020/01/31 10:03:26.0	100.140	0.110	-0.500	-0.220
2020/01/31 10:03:26.1	100.100	0.130	-0.490	-0.130
2020/01/31 10:03:26.2	100.050	0.130	-0.470	-0.040
2020/01/31 10:03:26.3	100.000	0.140	-0.450	0.050
2020/01/31 10:03:26.4	99.950	0.150	-0.430	0.140
2020/01/31 10:03:26.5	99.900	0.150	-0.400	0.230
2020/01/31 10:03:26.6	99.850	0.150	-0.370	0.310
2020/01/31 10:03:26.7	99.800	0.140	-0.330	0.400
2020/01/31 10:03:26.8	99.740	0.140	-0.300	0.480
2020/01/31 10:03:26.9	99.680	0.130	-0.250	0.560
2020/01/31 10:03:27.0	99.620	0.120	-0.210	0.640
2020/01/31 10:03:27.1	99.560	0.110	-0.160	0.720
2020/01/31 10:03:27.2	99.500	0.090	-0.110	0.790
2020/01/31 10:03:27.3	99.440	0.070	-0.060	0.870
2020/01/31 10:03:27.4	99.370	0.060	-0.000	0.940
2020/01/31 10:03:27.5	99.300	0.040	0.050	1.010
2020/01/31 10:03:27.6	99.240	0.020	0.110	1.080
2020/01/31 10:03:27.7	99.170	-0.010	0.170	1.150
2020/01/31 10:03:27.8	99.110	-0.030	0.220	1.220
2020/01/31 10:03:27.9	99.040	-0.050	0.280	1.290
2020/01/31 10:03:28.0	98.970	-0.080	0.330	1.350
2020/01/31 10:03:28.1	98.910	-0.100	0.380	1.410
2020/01/31 10:03:28.2	98.840	-0.120	0.430	1.470
2020/01/31 10:03:28.3	98.770	-0.140	0.480	1.530
2020/01/31 10:03:28.4	98.710	-0.160	0.520	1.590
2020/01/31 10:03:28.5	98.640	-0.180	0.550	1.640
2020/01/31 10:03:28.6	98.570	-0.200	0.590	1.690
2020/01/31 10:03:28.7	98.500	-0.210	0.610	1.740
2020/01/31 10:03:28.8	98.440	-0.220	0.630	1.780
2020/01/31 10:03:28.9	98.370	-0.230	0.640	1.820
2020/01/31 10:03:29.0	98.310	-0.240	0.650	1.860
2020/01/31 10:03:29.1	98.240	-0.250	0.650	1.890
2020/01/31 10:03:29.2	98.180	-0.250	0.640	1.910
2020/01/31 10:03:29.3	98.120	-0.240	0.620	1.930
2020/01/31 10:03:29.4	98.070	-0.240	0.590	1.950
2020/01/31 10:03:29.5	98.010	-0.230	0.560	1.960
2020/01/31 10:03:29.6	97.960	-0.220	0.520	1.960
2020/01/31 10:03:29.7	97.900	-0.200	0.470	1.950
2020/01/31 10:03:29.8	97.850	-0.190	0.420	1.940
2020/01/31 10:03:29.9	97.810	-0.170	0.350	1.920
2020/01/31 10:03:30.0	97.760	-0.140	0.280	1.900
2020/01/31 10:03:30.1	97.720	-0.120	0.210	1.870
2020/01/31 10:03:30.2	97.680	-0.090	0.130	1.830
2020/01/31 10:03:30.3	97.640	-0.060	0.050	1.790
2020/01/31 10:03:30.4	97.590	-0.030	-0.040	1.740
2020/01/31 10:03:30.5	97.560	0.010	-0.130	1.690
2020/01/31 10:03:30.6	97.530	0.040	-0.220	1.630
2020/01/31 10:03:30.7	97.500	0.070	-0.310	1.570
2020/01/31 10:03:30.8	97.470	0.110	-0.400	1.510
2020/01/31 10:03:30.9	97.450	0.140	-0.490	1.440
2020/01/31 10:03:31.0	97.420	0.180	-0.580	1.380
2020/01/31 10:03:31.1	97.390	0.210	-0.670	1.310
2020/01/31 10:03:31.2	97.370	0.250	-0.750	1.240
2020/01/31 10:03:31.3	97.340	0.280	-0.830	1.180
2020/01/31 10:03:31.4	97.310	0.310	-0.900	1.110
2020/01/31 10:03:31.5	97.280	0.340	-0.960	1.050
2020/01/31 10:03:31.6	97.250	0.370	-1.020	0.990
2020/01/31 10:03:31.7	97.220	0.390	-1.070	0.920
2020/01/31 10:03:31.8	97.190	0.410	-1.110	0.870
2020/01/31 10:03:31.9	97.150	0.430	-1.140	0.810
2020/01/31 10:03:32.0	97.120	0.450	-1.170	0.760
2020/01/31 10:03:32.1	97.080	0.460	-1.190	0.700
2020/01/31 10:03:32.2	97.050	0.470	-1.200	0.660
2020/01/31 10:03:32.3	97.010	0.480	-1.200	0.610
2020/01/31 10:03:32.4	96.960	0.480	-1.190	0.570
2020/01/31 10:03:32.5	96.920	0.480	-1.180	0.530
2020/01/31 10:03:32.6	96.880	0.480	-1.150	0.490
2020/01/31 10:03:32.7	96.830	0.480	-1.130	0.450
2020/01/31 10:03:32.8	96.790	0.470	-1.090	0.420
2020/01/31 10:03:32.9	96.740	0.460	-1.050	0.390
2020/01/31 10:03:33.0	96.690	0.440	-1.000	0.350
2020/01/31 10:03:33.1	96.650	0.430	-0.950	0.320
2020/01/31 10:03:33.2	96.600	0.410	-0.900	0.300
2020/01/31 10:03:33.3	96.550	0.390	-0.840	0.270
2020/01/31 10:03:33.4	96.500	0.360	-0.770	0.240
2020/01/31 10:03:33.5	96.450	0.340	-0.710	0.210
2020/01/31 10:03:33.6	96.400	0.310	-0.640	0.180
2020/01/31 10:03:33.7	96.350	0.280	-0.570	0.150
2020/01/31 10:03:33.8	96.300	0.250	-0.500	0.120
2020/01/31 10:03:33.9	96.260	0.220	-0.430	0.090
2020/01/31 10:03:34.0	96.210	0.190	-0.350	0.060
2020/01/31 10:03:34.1	96.160	0.150	-0.280	0.030
2020/01/31 10:03:34.2	96.110	0.120	-0.200	0.000
2020/01/31 10:03:34.3	96.070	0.080	-0.130	-0.020
2020/01/31 10:03:34.4	96.010	0.050	-0.060	-0.050
2020/01/31 10:03:34.5	95.970	0.010	0.010	-0.080
2020/01/31 10:03:34.6	95.920	-0.020	0.080	-0.100
2020/01/31 10:03:34.7	95.870	-0.060	0.150	-0.130
2020/01/31 10:03:34.8	95.820	-0.090	0.210	-0.150
2020/01/31 10:03:34.9	95.770	-0.130	0.280	-0.160
2020/01/31 10:03:35.0	95.720	-0.160	0.330	-0.180
2020/01/31 10:03:35.1	95.660	-0.190	0.390	-0.190
2020/01/31 10:03:35.2	95.610	-0.220	0.440	-0.200
2020/01/31 10:03:35.3	95.550	-0.250	0.490	-0.210
2020/01/31 10:03:35.4	95.500	-0.270	0.530	-0.210
2020/01/31 10:03:35.5	95.440	-0.300	0.570	-0.210
2020/01/31 10:03:35.6	95.380	-0.320	0.610	-0.200
2020/01/31 10:03:35.7	95.310	-0.340	0.640	-0.190
2020/01/31 10:03:35.8	95.250	-0.360	0.660	-0.190
2020/01/31 10:03:35.9	95.190	-0.380	0.680	-0.170
2020/01/31 10:03:36.0	95.120	-0.400	0.700	-0.160
2020/01/31 10:03:36.1	95.060	-0.410	0.710	-0.140
2020/01/31 10:03:36.2	94.990	-0.420	0.710	-0.130
2020/01/31 10:03:36.3	94.930	-0.430	0.710	-0.110
2020/01/31 10:03:36.4	94.870	-0.430	0.700	-0.090
2020/01/31 10:03:36.5	94.810	-0.440	0.690	-0.080
2020/01/31 10:03:36.6	94.750	-0.440	0.670	-0.060
2020/01/31 10:03:36.7	94.690	-0.440	0.650	-0.040
2020/01/31 10:03:36.8	94.620	-0.440	0.620	-0.030
2020/01/31 10:03:36.9	94.560	-0.430	0.590	-0.020
2020/01/31 10:03:37.0	94.500	-0.420	0.550	-0.000
2020/01/31 10:03:37.1	94.440	-0.420	0.510	0.010
2020/01/31 10:03:37.2	94.380	-0.410	0.460	0.020
2020/01/31 10:03:37.3	94.330	-0.390	0.420	0.020
2020/01/31 10:03:37.4	94.270	-0.380	0.360	0.030
2020/01/31 10:03:37.5	94.210	-0.370	0.310	0.030
2020/01/31 10:03:37.6	94.160	-0.350	0.260	0.040
2020/01/31 10:03:37.7	94.100	-0.340	0.200	0.040
2020/01/31 10:03:37.8	94.050	-0.320	0.140	0.040
2020/01/31 10:03:37.9	94.000	-0.300	0.080	0.040
2020/01/31 10:03:38.0	93.950	-0.290	0.020	0.030
2020/01/31 10:03:38.1	93.900	-0.270	-0.030	0.030
2020/01/31 10:03:38.2	93.850	-0.250	-0.090	0.020
2020/01/31 10:03:38.3	93.800	-0.230	-0.150	0.020
2020/01/31 10:03:38.4	93.740	-0.220	-0.200	0.010
2020/01/31 10:03:38.5	93.690	-0.200	-0.250	0.010
2020/01/31 10:03:38.6	93.650	-0.180	-0.300	0.000
2020/01/31 10:03:38.7	93.600	-0.170	-0.340	-0.010
2020/01/31 10:03:38.8	93.560	-0.150	-0.390	-0.010
2020/01/31 10:03:38.9	93.520	-0.140	-0.430	-0.010
2020/01/31 10:03:39.0	93.470	-0.120	-0.460	-0.020
2020/01/31 10:03:39.1	93.430	-0.110	-0.500	-0.020
2020/01/31 10:03:39.2	93.390	-0.100	-0.520	-0.020
2020/01/31 10:03:39.3	93.340	-0.090	-0.550	-0.010
2020/01/31 10:03:39.4	93.280	-0.080	-0.570	-0.010
2020/01/31 10:03:39.5	93.230	-0.070	-0.590	-0.000
2020/01/31 10:03:39.6	93.190	-0.060	-0.600	0.010
2020/01/31 10:03:39.7	93.140	-0.050	-0.610	0.020
2020/01/31 10:03:39.8	93.100	-0.040	-0.620	0.040
2020/01/31 10:03:39.9	93.050	-0.030	-0.620	0.060
2020/01/31 10:03:40.0	93.010	-0.020	-0.620	0.080
2020/01/31 10:03:40.1	92.960	-0.020	-0.620	0.100
2020/01/31 10:03:40.2	92.910	-0.010	-0.610	0.120
2020/01/31 10:03:40.3	92.860	-0.000	-0.610	0.150
2020/01/31 10:03:40.4	92.800	0.010	-0.600	0.180
2020/01/31 10:03:40.5	92.750	0.010	-0.590	0.210
2020/01/31 10:03:40.6	92.700	0.020	-0.570	0.240
2020/01/31 10:03:40.7	92.650	0.030	-0.560	0.270
2020/01/31 10:03:40.8	92.600	0.040	-0.540	0.300
2020/01/31 10:03:40.9	92.550	0.050	-0.530	0.330
2020/01/31 10:03:41.0	92.500	0.060	-0.510	0.370
2020/01/31 10:03:41.1	92.450	0.070	-0.500	0.400
2020/01/31 10:03:41.2	92.400	0.080	-0.480	0.430
2020/01/31 10:03:41.3	92.350	0.090	-0.460	0.470
2020/01/31 10:03:41.4	92.300	0.100	-0.450	0.500
2020/01/31 10:03:41.5	92.250	0.120	-0.430	0.530
2020/01/31 10:03:41.6	92.200	0.130	-0.420	0.560
2020/01/31 10:03:41.7	92.150	0.140	-0.400	0.590
2020/01/31 10:03:41.8	92.110	0.150	-0.380	0.620
2020/01/31 10:03:41.9	92.060	0.170	-0.370	0.640
2020/01/31 10:03:42.0	92.020	0.180	-0.350	0.670
2020/01/31 10:03:42.1	91.980	0.190	-0.340	0.690
2020/01/31 10:03:42.2	91.930	0.200	-0.320	0.710
2020/01/31 10:03:42.3	91.890	0.210	-0.300	0.720
2020/01/31 10:03:42.4	91.840	0.220	-0.290	0.740
2020/01/31 10:03:42.5	91.810	0.230	-0.270	0.750
2020/01/31 10:03:42.6	91.770	0.230	-0.250	0.760
2020/01/31 10:03:42.7	91.730	0.240	-0.230	0.760
2020/01/31 10:03:42.8	91.690	0.240	-0.210	0.770
2020/01/31 10:03:42.9	91.660	0.240	-0.190	0.770
2020/01/31 10:03:43.0	91.620	0.240	-0.170	0.770
2020/01/31 10:03:43.1	91.580	0.240	-0.140	0.770
2020/01/31 10:03:43.2	91.540	0.240	-0.110	0.770
2020/01/31 10:03:43.3	91.500	0.240	-0.090	0.770
2020/01/31 10:03:43.4	91.440	0.230	-0.050	0.760
2020/01/31 10:03:43.5	91.400	0.220	-0.020	0.760
2020/01/31 10:03:43.6	91.350	0.210	0.010	0.760
2020/01/31 10:03:43.7	91.300	0.200	0.050	0.760
2020/01/31 10:03:43.8	91.250	0.190	0.080	0.750
2020/01/31 10:03:43.9	91.190	0.180	0.110	0.760
2020/01/31 10:03:44.0	91.140	0.160	0.150	0.760
2020/01/31 10:03:44.1	91.080	0.150	0.180	0.760
2020/01/31 10:03:44.2	91.010	0.130	0.210	0.760
2020/01/31 10:03:44.3	90.950	0.110	0.250	0.770
2020/01/31 10:03:44.4	90.870	0.100	0.270	0.770
2020/01/31 10:03:44.5	90.800	0.080	0.300	0.780
2020/01/31 10:03:44.6	90.730	0.060	0.320	0.790
2020/01/31 10:03:44.7	90.650	0.040	0.350	0.790
2020/01/31 10:03:44.8	90.580	0.020	0.360	0.800
2020/01/31 10:03:44.9	90.500	0.000	0.380	0.810
2020/01/31 10:03:45.0	90.420	-0.020	0.390	0.810
2020/01/31 10:03:45.1	90.340	-0.040	0.390	0.820
2020/01/31 10:03:45.2	90.260	-0.050	0.390	0.820
2020/01/31 10:03:45.3	90.180	-0.070	0.390	0.830
2020/01/31 10:03:45.4	90.090	-0.090	0.380	0.830
2020/01/31 10:03:45.5	90.010	-0.100	0.360	0.830
2020/01/31 10:03:45.6	89.930	-0.120	0.340	0.830
2020/01/31 10:03:45.7	89.850	-0.130	0.320	0.830
2020/01/31 10:03:45.8	89.770	-0.140	0.290	0.820
2020/01/31 10:03:45.9	89.700	-0.150	0.250	0.820
2020/01/31 10:03:46.0	89.620	-0.160	0.210	0.810
2020/01/31 10:03:46.1	89.550	-0.170	0.170	0.810
2020/01/31 10:03:46.2	89.480	-0.170	0.130	0.800
2020/01/31 10:03:46.3	89.410	-0.180	0.080	0.780
2020/01/31 10:03:46.4	89.330	-0.180	0.020	0.770
2020/01/31 10:03:46.5	89.260	-0.180	-0.030	0.750
2020/01/31 10:03:46.6	89.200	-0.170	-0.090	0.730
2020/01/31 10:03:46.7	89.140	-0.170	-0.150	0.710
2020/01/31 10:03:46.8	89.080	-0.160	-0.200	0.680
2020/01/31 10:03:46.9	89.020	-0.160	-0.260	0.660
2020/01/31 10:03:47.0	88.970	-0.150	-0.320	0.630
2020/01/31 10:03:47.1	88.920	-0.140	-0.380	0.600
2020/01/31 10:03:47.2	88.870	-0.120	-0.440	0.570
2020/01/31 10:03:47.3	88.820	-0.110	-0.490	0.530
2020/01/31 10:03:47.4	88.770	-0.100	-0.550	0.490
2020/01/31 10:03:47.5	88.730	-0.080	-0.600	0.450
2020/01/31 10:03:47.6	88.690	-0.060	-0.640	0.410
2020/01/31 10:03:47.7	88.660	-0.050	-0.690	0.370
2020/01/31 10:03:47.8	88.620	-0.030	-0.730	0.320
2020/01/31 10:03:47.9	88.590	-0.010	-0.770	0.280
2020/01/31 10:03:48.0	88.560	0.010	-0.800	0.230
2020/01/31 10:03:48.1	88.530	0.030	-0.830	0.190
2020/01/31 10:03:48.2	88.500	0.040	-0.850	0.140
2020/01/31 10:03:48.3	88.470	0.060	-0.870	0.100
2020/01/31 10:03:48.4	88.440	0.080	-0.880	0.050
2020/01/31 10:03:48.5	88.410	0.100	-0.890	0.010
2020/01/31 10:03:48.6	88.380	0.110	-0.890	-0.030
2020/01/31 10:03:48.7	88.360	0.130	-0.880	-0.070
2020/01/31 10:03:48.8	88.330	0.140	-0.880	-0.110
2020/01/31 10:03:48.9	88.290	0.150	-0.860	-0.140
2020/01/31 10:03:49.0	88.260	0.160	-0.840	-0.170
2020/01/31 10:03:49.1	88.230	0.170	-0.820	-0.200
2020/01/31 10:03:49.2	88.190	0.180	-0.790	-0.230
2020/01/31 10:03:49.3	88.150	0.190	-0.760	-0.250
2020/01/31 10:03:49.4	88.130	0.200	-0.720	-0.270
2020/01/31 10:03:49.5	88.090	0.200	-0.680	-0.280
2020/01/31 10:03:49.6	88.040	0.200	-0.630	-0.290
2020/01/31 10:03:49.7	88.000	0.200	-0.590	-0.300
2020/01/31 10:03:49.8	87.950	0.200	-0.530	-0.310
2020/01/31 10:03:49.9	87.900	0.200	-0.480	-0.310
2020/01/31 10:03:50.0	87.840	0.200	-0.420	-0.300
2020/01/31 10:03:50.1	87.790	0.190	-0.360	-0.300
2020/01/31 10:03:50.2	87.730	0.180	-0.300	-0.290
2020/01/31 10:03:50.3	87.670	0.170	-0.240	-0.270
2020/01/31 10:03:50.4	87.620	0.160	-0.180	-0.250
2020/01/31 10:03:50.5	87.550	0.150	-0.120	-0.240
2020/01/31 10:03:50.6	87.490	0.140	-0.050	-0.210
2020/01/31 10:03:50.7	87.420	0.120	0.010	-0.190
2020/01/31 10:03:50.8	87.350	0.100	0.070	-0.160
2020/01/31 10:03:50.9	87.270	0.090	0.130	-0.140
2020/01/31 10:03:51.0	87.200	0.070	0.190	-0.110
2020/01/31 10:03:51.1	87.120	0.050	0.240	-0.080
2020/01/31 10:03:51.2	87.050	0.030	0.290	-0.040
2020/01/31 10:03:51.3	86.970	0.010	0.340	-0.010
2020/01/31 10:03:51.4	86.900	-0.010	0.390	0.020
2020/01/31 10:03:51.5	86.820	-0.030	0.430	0.050
2020/01/31 10:03:51.6	86.740	-0.050	0.470	0.080
2020/01/31 10:03:51.7	86.660	-0.070	0.500	0.110
2020/01/31 10:03:51.8	86.580	-0.090	0.530	0.150
2020/01/31 10:03:51.9	86.500	-0.110	0.550	0.180
2020/01/31 10:03:52.0	86.430	-0.120	0.570	0.200
2020/01/31 10:03:52.1	86.350	-0.140	0.580	0.230
2020/01/31 10:03:52.2	86.270	-0.150	0.580	0.260
2020/01/31 10:03:52.3	86.190	-0.160	0.580	0.280
2020/01/31 10:03:52.4	86.130	-0.170	0.580	0.300
2020/01/31 10:03:52.5	86.060	-0.180	0.570	0.320
2020/01/31 10:03:52.6	85.990	-0.190	0.550	0.340
2020/01/31 10:03:52.7	85.920	-0.190	0.530	0.360
2020/01/31 10:03:52.8	85.850	-0.190	0.500	0.370
2020/01/31 10:03:52.9	85.780	-0.190	0.470	0.380
2020/01/31 10:03:53.0	85.720	-0.190	0.430	0.390
2020/01/31 10:03:53.1	85.660	-0.180	0.390	0.390
2020/01/31 10:03:53.2	85.600	-0.170	0.350	0.390
2020/01/31 10:03:53.3	85.540	-0.160	0.300	0.390
2020/01/31 10:03:53.4	85.500	-0.150	0.250	0.390
2020/01/31 10:03:53.5	85.440	-0.130	0.200	0.380
2020/01/31 10:03:53.6	85.390	-0.120	0.140	0.370
2020/01/31 10:03:53.7	85.340	-0.100	0.080	0.360
2020/01/31 10:03:53.8	85.290	-0.080	0.020	0.350
2020/01/31 10:03:53.9	85.240	-0.060	-0.050	0.340
2020/01/31 10:03:54.0	85.190	-0.040	-0.110	0.330
2020/01/31 10:03:54.1	85.140	-0.010	-0.170	0.310
2020/01/31 10:03:54.2	85.090	0.010	-0.230	0.300
2020/01/31 10:03:54.3	85.040	0.030	-0.290	0.280
2020/01/31 10:03:54.4	85.000	0.050	-0.350	0.270
2020/01/31 10:03:54.5	84.960	0.080	-0.400	0.250
2020/01/31 10:03:54.6	84.910	0.100	-0.450	0.230
2020/01/31 10:03:54.7	84.860	0.120	-0.500	0.220
2020/01/31 10:03:54.8	84.820	0.140	-0.540	0.210
2020/01/31 10:03:54.9	84.770	0.160	-0.580	0.190
2020/01/31 10:03:55.0	84.720	0.180	-0.610	0.180
2020/01/31 10:03:55.1	84.680	0.190	-0.640	0.170
2020/01/31 10:03:55.2	84.630	0.210	-0.660	0.170
2020/01/31 10:03:55.3	84.590	0.220	-0.680	0.160
2020/01/31 10:03:55.4	84.550	0.230	-0.690	0.160
2020/01/31 10:03:55.5	84.510	0.240	-0.690	0.160
2020/01/31 10:03:55.6	84.460	0.240	-0.690	0.160
2020/01/31 10:03:55.7	84.420	0.240	-0.680	0.160
2020/01/31 10:03:55.8	84.370	0.240	-0.670	0.170
2020/01/31 10:03:55.9	84.330	0.240	-0.650	0.180
2020/01/31 10:03:56.0	84.290	0.240	-0.630	0.190
2020/01/31 10:03:56.1	84.240	0.230	-0.600	0.200
2020/01/31 10:03:56.2	84.200	0.220	-0.570	0.220
2020/01/31 10:03:56.3	84.160	0.210	-0.540	0.230
2020/01/31 10:03:56.4	84.110	0.200	-0.500	0.250
2020/01/31 10:03:56.5	84.070	0.180	-0.460	0.270
2020/01/31 10:03:56.6	84.020	0.160	-0.420	0.290
2020/01/31 10:03:56.7	83.980	0.150	-0.370	0.320
2020/01/31 10:03:56.8	83.940	0.130	-0.320	0.340
2020/01/31 10:03:56.9	83.900	0.100	-0.280	0.370
2020/01/31 10:03:57.0	83.850	0.080	-0.230	0.390
2020/01/31 10:03:57.1	83.810	0.060	-0.180	0.420
2020/01/31 10:03:57.2	83.760	0.030	-0.130	0.450
2020/01/31 10:03:57.3	83.720	0.010	-0.080	0.480
2020/01/31 10:03:57.4	83.680	-0.020	-0.030	0.500
2020/01/31 10:03:57.5	83.630	-0.040	0.010	0.530
2020/01/31 10:03:57.6	83.580	-0.070	0.050	0.560
2020/01/31 10:03:57.7	83.540	-0.090	0.090	0.590
2020/01/31 10:03:57.8	83.490	-0.120	0.130	0.630
2020/01/31 10:03:57.9	83.440	-0.140	0.170	0.660
2020/01/31 10:03:58.0	83.390	-0.160	0.200	0.690
2020/01/31 10:03:58.1	83.340	-0.190	0.220	0.730
2020/01/31 10:03:58.2	83.280	-0.210	0.250	0.760
2020/01/31 10:03:58.3	83.230	-0.230	0.270	0.800
2020/01/31 10:03:58.4	83.170	-0.250	0.280	0.830
2020/01/31 10:03:58.5	83.110	-0.270	0.300	0.860
2020/01/31 10:03:58.6	83.060	-0.290	0.310	0.900
2020/01/31 10:03:58.7	82.990	-0.310	0.310	0.940
2020/01/31 10:03:58.8	82.930	-0.320	0.310	0.970
2020/01/31 10:03:58.9	82.870	-0.330	0.310	1.010
2020/01/31 10:03:59.0	82.800	-0.350	0.300	1.040
2020/01/31 10:03:59.1	82.740	-0.360	0.290	1.070
2020/01/31 10:03:59.2	82.670	-0.360	0.270	1.110
2020/01/31 10:03:59.3	82.600	-0.370	0.250	1.130
2020/01/31 10:03:59.4	82.530	-0.370	0.230	1.160
2020/01/31 10:03:59.5	82.460	-0.380	0.200	1.180
2020/01/31 10:03:59.6	82.390	-0.380	0.170	1.200
2020/01/31 10:03:59.7	82.320	-0.380	0.130	1.220
2020/01/31 10:03:59.8	82.250	-0.370	0.100	1.240
2020/01/31 10:03:59.9	82.180	-0.370	0.060	1.250
2020/01/31 10:04:00.0	82.100	-0.360	0.020	1.260
2020/01/31 10:04:00.1	82.030	-0.350	-0.030	1.270
2020/01/31 10:04:00.2	81.960	-0.340	-0.070	1.270
2020/01/31 10:04:00.3	81.890	-0.330	-0.110	1.270
2020/01/31 10:04:00.4	81.840	-0.310	-0.160	1.270
2020/01/31 10:04:00.5	81.770	-0.290	-0.200	1.260
2020/01/31 10:04:00.6	81.710	-0.270	-0.250	1.250
2020/01/31 10:04:00.7	81.640	-0.250	-0.290	1.230
2020/01/31 10:04:00.8	81.570	-0.230	-0.340	1.220
2020/01/31 10:04:00.9	81.510	-0.210	-0.380	1.200
2020/01/31 10:04:01.0	81.440	-0.180	-0.420	1.180
2020/01/31 10:04:01.1	81.380	-0.160	-0.450	1.160
2020/01/31 10:04:01.2	81.310	-0.130	-0.490	1.130
2020/01/31 10:04:01.3	81.250	-0.100	-0.520	1.110
2020/01/31 10:04:01.4	81.200	-0.070	-0.550	1.080
2020/01/31 10:04:01.5	81.130	-0.040	-0.570	1.060
2020/01/31 10:04:01.6	81.060	-0.010	-0.590	1.030
2020/01/31 10:04:01.7	81.000	0.020	-0.610	1.010
2020/01/31 10:04:01.8	80.930	0.050	-0.620	0.980
2020/01/31 10:04:01.9	80.860	0.070	-0.630	0.960
2020/01/31 10:04:02.0	80.790	0.100	-0.640	0.930
2020/01/31 10:04:02.1	80.720	0.130	-0.640	0.910
2020/01/31 10:04:02.2	80.650	0.160	-0.640	0.880
2020/01/31 10:04:02.3	80.580	0.190	-0.630	0.850
2020/01/31 10:04:02.4	80.510	0.220	-0.620	0.830
2020/01/31 10:04:02.5	80.430	0.240	-0.610	0.800
2020/01/31 10:04:02.6	80.360	0.260	-0.600	0.770
2020/01/31 10:04:02.7	80.290	0.290	-0.580	0.740
2020/01/31 10:04:02.8	80.210	0.310	-0.560	0.720
2020/01/31 10:04:02.9	80.140	0.330	-0.550	0.680
2020/01/31 10:04:03.0	80.070	0.340	-0.520	0.650
2020/01/31 10:04:03.1	79.990	0.360	-0.500	0.620
2020/01/31 10:04:03.2	79.920	0.370	-0.480	0.580
2020/01/31 10:04:03.3	79.850	0.380	-0.450	0.550
2020/01/31 10:04:03.4	79.770	0.390	-0.430	0.510
2020/01/31 10:04:03.5	79.700	0.390	-0.400	0.470
2020/01/31 10:04:03.6	79.630	0.390	-0.370	0.430
2020/01/31 10:04:03.7	79.560	0.390	-0.340	0.390
2020/01/31 10:04:03.8	79.500	0.390	-0.310	0.340
2020/01/31 10:04:03.9	79.430	0.390	-0.280	0.300
2020/01/31 10:04:04.0	79.370	0.380	-0.250	0.250
2020/01/31 10:04:04.1	79.310	0.370	-0.220	0.200
2020/01/31 10:04:04.2	79.250	0.360	-0.190	0.150
2020/01/31 10:04:04.3	79.200	0.340	-0.160	0.100
2020/01/31 10:04:04.4	79.130	0.330	-0.130	0.050
2020/01/31 10:04:04.5	79.070	0.310	-0.090	-0.000
2020/01/31 10:04:04.6	79.020	0.290	-0.060	-0.060
2020/01/31 10:04:04.7	78.970	0.260	-0.030	-0.110
2020/01/31 10:04:04.8	78.930	0.240	0.010	-0.160
2020/01/31 10:04:04.9	78.880	0.220	0.040	-0.220
2020/01/31 10:04:05.0	78.840	0.190	0.070	-0.270
2020/01/31 10:04:05.1	78.800	0.160	0.100	-0.320
2020/01/31 10:04:05.2	78.760	0.140	0.140	-0.380
2020/01/31 10:04:05.3	78.720	0.110	0.170	-0.430
2020/01/31 10:04:05.4	78.670	0.080	0.190	-0.480
2020/01/31 10:04:05.5	78.640	0.060	0.220	-0.530
2020/01/31 10:04:05.6	78.600	0.030	0.240	-0.570
2020/01/31 10:04:05.7	78.570	0.010	0.270	-0.620
2020/01/31 10:04:05.8	78.530	-0.010	0.290	-0.660
2020/01/31 10:04:05.9	78.500	-0.040	0.300	-0.700
2020/01/31 10:04:06.0	78.460	-0.060	0.320	-0.740
2020/01/31 10:04:06.1	78.430	-0.070	0.330	-0.780
2020/01/31 10:04:06.2	78.400	-0.090	0.340	-0.810
2020/01/31 10:04:06.3	78.360	-0.110	0.340	-0.830
2020/01/31 10:04:06.4	78.330	-0.120	0.340	-0.860
2020/01/31 10:04:06.5	78.300	-0.130	0.330	-0.880
2020/01/31 10:04:06.6	78.260	-0.130	0.320	-0.890
2020/01/31 10:04:06.7	78.230	-0.140	0.300	-0.900
2020/01/31 10:04:06.8	78.190	-0.140	0.280	-0.900
2020/01/31 10:04:06.9	78.150	-0.140	0.250	-0.900
2020/01/31 10:04:07.0	78.110	-0.140	0.220	-0.890
2020/01/31 10:04:07.1	78.070	-0.130	0.190	-0.880
2020/01/31 10:04:07.2	78.040	-0.120	0.150	-0.870
2020/01/31 10:04:07.3	77.990	-0.110	0.100	-0.840
2020/01/31 10:04:07.4	77.960	-0.100	0.060	-0.810
2020/01/31 10:04:07.5	77.920	-0.090	0.010	-0.780
2020/01/31 10:04:07.6	77.870	-0.070	-0.040	-0.740
2020/01/31 10:04:07.7	77.830	-0.060	-0.100	-0.700
2020/01/31 10:04:07.8	77.780	-0.040	-0.150	-0.650
2020/01/31 10:04:07.9	77.720	-0.020	-0.200	-0.600
2020/01/31 10:04:08.0	77.670	-0.000	-0.250	-0.540
2020/01/31 10:04:08.1	77.620	0.010	-0.300	-0.480
2020/01/31 10:04:08.2	77.560	0.030	-0.350	-0.420
2020/01/31 10:04:08.3	77.500	0.050	-0.390	-0.350
2020/01/31 10:04:08.4	77.450	0.060	-0.430	-0.270
2020/01/31 10:04:08.5	77.390	0.080	-0.470	-0.200
2020/01/31 10:04:08.6	77.320	0.090	-0.500	-0.120
2020/01/31 10:04:08.7	77.250	0.100	-0.520	-0.040
2020/01/31 10:04:08.8	77.180	0.110	-0.540	0.050
2020/01/31 10:04:08.9	77.110	0.110	-0.550	0.130
2020/01/31 10:04:09.0	77.030	0.120	-0.560	0.220
2020/01/31 10:04:09.1	76.960	0.120	-0.560	0.300
2020/01/31 10:04:09.2	76.880	0.110	-0.560	0.390
2020/01/31 10:04:09.3	76.800	0.110	-0.550	0.480
2020/01/31 10:04:09.4	76.710	0.100	-0.540	0.560
2020/01/31 10:04:09.5	76.630	0.090	-0.520	0.650
2020/01/31 10:04:09.6	76.550	0.080	-0.490	0.730
2020/01/31 10:04:09.7	76.460	0.060	-0.460	0.810
2020/01/31 10:04:09.8	76.380	0.050	-0.430	0.890
2020/01/31 10:04:09.9	76.290	0.030	-0.390	0.960
2020/01/31 10:04:10.0	76.210	0.000	-0.350	1.030
2020/01/31 10:04:10.1	76.120	-0.020	-0.310	1.100
2020/01/31 10:04:10.2	76.030	-0.050	-0.260	1.170
2020/01/31 10:04:10.3	75.950	-0.070	-0.220	1.230
2020/01/31 10:04:10.4	75.850	-0.100	-0.170	1.280
2020/01/31 10:04:10.5	75.770	-0.130	-0.120	1.330
2020/01/31 10:04:10.6	75.690	-0.150	-0.070	1.380
2020/01/31 10:04:10.7	75.610	-0.180	-0.030	1.420
2020/01/31 10:04:10.8	75.530	-0.210	0.010	1.460
2020/01/31 10:04:10.9	75.460	-0.230	0.050	1.490
2020/01/31 10:04:11.0	75.390	-0.250	0.090	1.520
2020/01/31 10:04:11.1	75.320	-0.270	0.120	1.540
2020/01/31 10:04:11.2	75.250	-0.290	0.140	1.560
2020/01/31 10:04:11.3	75.190	-0.310	0.170	1.570
2020/01/31 10:04:11.4	75.140	-0.320	0.180	1.580
2020/01/31 10:04:11.5	75.080	-0.330	0.190	1.580
2020/01/31 10:04:11.6	75.030	-0.340	0.200	1.580
2020/01/31 10:04:11.7	74.980	-0.340	0.190	1.570
2020/01/31 10:04:11.8	74.930	-0.340	0.190	1.560
2020/01/31 10:04:11.9	74.880	-0.340	0.170	1.550
2020/01/31 10:04:12.0	74.830	-0.330	0.150	1.530
2020/01/31 10:04:12.1	74.790	-0.320	0.130	1.510
2020/01/31 10:04:12.2	74.750	-0.310	0.090	1.490
2020/01/31 10:04:12.3	74.710	-0.290	0.060	1.460
2020/01/31 10:04:12.4	74.660	-0.260	0.020	1.440
2020/01/31 10:04:12.5	74.620	-0.240	-0.020	1.410
2020/01/31 10:04:12.6	74.580	-0.210	-0.070	1.380
2020/01/31 10:04:12.7	74.540	-0.180	-0.120	1.350
2020/01/31 10:04:12.8	74.500	-0.140	-0.170	1.310
2020/01/31 10:04:12.9	74.450	-0.110	-0.220	1.280
2020/01/31 10:04:13.0	74.410	-0.070	-0.270	1.250
2020/01/31 10:04:13.1	74.360	-0.030	-0.320	1.220
2020/01/31 10:04:13.2	74.320	0.010	-0.360	1.190
2020/01/31 10:04:13.3	74.270	0.060	-0.410	1.160
2020/01/31 10:04:13.4	74.200	0.100	-0.450	1.130
2020/01/31 10:04:13.5	74.150	0.140	-0.490	1.100
2020/01/31 10:04:13.6	74.090	0.180	-0.530	1.070
2020/01/31 10:04:13.7	74.030	0.220	-0.560	1.040
2020/01/31 10:04:13.8	73.970	0.260	-0.580	1.010
2020/01/31 10:04:13.9	73.910	0.300	-0.600	0.980
2020/01/31 10:04:14.0	73.840	0.340	-0.610	0.950
2020/01/31 10:04:14.1	73.780	0.370	-0.620	0.920
2020/01/31 10:04:14.2	73.710	0.400	-0.620	0.890
2020/01/31 10:04:14.3	73.640	0.430	-0.610	0.860
2020/01/31 10:04:14.4	73.550	0.450	-0.600	0.830
2020/01/31 10:04:14.5	73.480	0.470	-0.580	0.800
2020/01/31 10:04:14.6	73.410	0.490	-0.550	0.770
2020/01/31 10:04:14.7	73.330	0.510	-0.520	0.730
2020/01/31 10:04:14.8	73.260	0.510	-0.490	0.700
2020/01/31 10:04:14.9	73.180	0.520	-0.450	0.670
2020/01/31 10:04:15.0	73.110	0.520	-0.400	0.640
2020/01/31 10:04:15.1	73.030	0.520	-0.350	0.600
2020/01/31 10:04:15.2	72.960	0.510	-0.300	0.570
2020/01/31 10:04:15.3	72.880	0.500	-0.250	0.530
2020/01/31 10:04:15.4	72.800	0.490	-0.190	0.490
2020/01/31 10:04:15.5	72.730	0.470	-0.140	0.460
2020/01/31 10:04:15.6	72.660	0.450	-0.080	0.420
2020/01/31 10:04:15.7	72.590	0.420	-0.030	0.380
2020/01/31 10:04:15.8	72.530	0.400	0.020	0.340
2020/01/31 10:04:15.9	72.460	0.370	0.070	0.300
2020/01/31 10:04:16.0	72.400	0.340	0.120	0.260
2020/01/31 10:04:16.1	72.340	0.300	0.160	0.220
2020/01/31 10:04:16.2	72.290	0.270	0.200	0.180
2020/01/31 10:04:16.3	72.230	0.230	0.240	0.140
2020/01/31 10:04:16.4	72.150	0.190	0.260	0.090
2020/01/31 10:04:16.5	72.100	0.150	0.290	0.050
2020/01/31 10:04:16.6	72.050	0.110	0.310	0.010
2020/01/31 10:04:16.7	72.000	0.070	0.330	-0.030
2020/01/31 10:04:16.8	71.950	0.030	0.340	-0.070
2020/01/31 10:04:16.9	71.910	-0.010	0.350	-0.110
2020/01/31 10:04:17.0	71.860	-0.050	0.350	-0.140
2020/01/31 10:04:17.1	71.810	-0.090	0.350	-0.180
2020/01/31 10:04:17.2	71.770	-0.120	0.340	-0.210
2020/01/31 10:04:17.3	71.720	-0.160	0.330	-0.240
2020/01/31 10:04:17.4	71.670	-0.200	0.320	-0.270
2020/01/31 10:04:17.5	71.620	-0.230	0.300	-0.300
2020/01/31 10:04:17.6	71.570	-0.270	0.290	-0.320
2020/01/31 10:04:17.7	71.520	-0.300	0.260	-0.350
2020/01/31 10:04:17.8	71.480	-0.330	0.240	-0.370
2020/01/31 10:04:17.9	71.430	-0.350	0.210	-0.380
2020/01/31 10:04:18.0	71.380	-0.380	0.190	-0.400
2020/01/31 10:04:18.1	71.330	-0.400	0.160	-0.410
2020/01/31 10:04:18.2	71.280	-0.420	0.130	-0.430
2020/01/31 10:04:18.3	71.230	-0.440	0.100	-0.440
2020/01/31 10:04:18.4	71.190	-0.450	0.070	-0.440
2020/01/31 10:04:18.5	71.140	-0.460	0.040	-0.450
2020/01/31 10:04:18.6	71.090	-0.470	0.010	-0.450
2020/01/31 10:04:18.7	71.040	-0.480	-0.020	-0.460
2020/01/31 10:04:18.8	70.980	-0.480	-0.060	-0.460
2020/01/31 10:04:18.9	70.930	-0.480	-0.090	-0.460
2020/01/31 10:04:19.0	70.880	-0.470	-0.120	-0.460
2020/01/31 10:04:19.1	70.830	-0.470	-0.150	-0.460
2020/01/31 10:04:19.2	70.780	-0.460	-0.180	-0.460
2020/01/31 10:04:19.3	70.730	-0.450	-0.210	-0.450
2020/01/31 10:04:19.4	70.690	-0.430	-0.240	-0.450
2020/01/31 10:04:19.5	70.640	-0.420	-0.270	-0.440
2020/01/31 10:04:19.6	70.590	-0.400	-0.300	-0.440
2020/01/31 10:04:19.7	70.540	-0.380	-0.330	-0.430
2020/01/31 10:04:19.8	70.490	-0.350	-0.360	-0.420
2020/01/31 10:04:19.9	70.440	-0.330	-0.390	-0.410
2020/01/31 10:04:20.0	70.390	-0.300	-0.410	-0.400
2020/01/31 10:04:20.1	70.340	-0.270	-0.440	-0.390
2020/01/31 10:04:20.2	70.290	-0.240	-0.470	-0.370
2020/01/31 10:04:20.3	70.250	-0.210	-0.490	-0.360
2020/01/31 10:04:20.4	70.200	-0.180	-0.520	-0.340
2020/01/31 10:04:20.5	70.150	-0.150	-0.540	-0.320
2020/01/31 10:04:20.6	70.100	-0.120	-0.570	-0.300
2020/01/31 10:04:20.7	70.050	-0.090	-0.590	-0.280
2020/01/31 10:04:20.8	70.000	-0.060	-0.600	-0.250
2020/01/31 10:04:20.9	69.950	-0.030	-0.620	-0.220
2020/01/31 10:04:21.0	69.900	-0.000	-0.630	-0.190
2020/01/31 10:04:21.1	69.840	0.020	-0.640	-0.160
2020/01/31 10:04:21.2	69.780	0.050	-0.640	-0.130
2020/01/31 10:04:21.3	69.720	0.070	-0.640	-0.090
2020/01/31 10:04:21.4	69.660	0.100	-0.640	-0.050
2020/01/31 10:04:21.5	69.590	0.120	-0.630	-0.000
2020/01/31 10:04:21.6	69.530	0.130	-0.620	0.040
2020/01/31 10:04:21.7	69.460	0.150	-0.610	0.090
2020/01/31 10:04:21.8	69.380	0.160	-0.590	0.140
2020/01/31 10:04:21.9	69.310	0.170	-0.570	0.200
2020/01/31 10:04:22.0	69.230	0.180	-0.550	0.260
2020/01/31 10:04:22.1	69.150	0.190	-0.520	0.310
2020/01/31 10:04:22.2	69.070	0.190	-0.490	0.380
2020/01/31 10:04:22.3	68.980	0.190	-0.450	0.440
2020/01/31 10:04:22.4	68.910	0.190	-0.410	0.500
2020/01/31 10:04:22.5	68.820	0.190	-0.370	0.560
2020/01/31 10:04:22.6	68.730	0.190	-0.330	0.630
2020/01/31 10:04:22.7	68.640	0.180	-0.280	0.690
2020/01/31 10:04:22.8	68.550	0.170	-0.240	0.760
2020/01/31 10:04:22.9	68.460	0.160	-0.190	0.820
2020/01/31 10:04:23.0	68.370	0.150	-0.140	0.880
2020/01/31 10:04:23.1	68.280	0.140	-0.100	0.940
2020/01/31 10:04:23.2	68.190	0.120	-0.050	1.000
2020/01/31 10:04:23.3	68.100	0.110	-0.010	1.050
2020/01/31 10:04:23.4	68.000	0.100	0.040	1.110
2020/01/31 10:04:23.5	67.920	0.080	0.080	1.160
2020/01/31 10:04:23.6	67.830	0.070	0.110	1.200
2020/01/31 10:04:23.7	67.750	0.050	0.150	1.240
2020/01/31 10:04:23.8	67.670	0.040	0.180	1.280
2020/01/31 10:04:23.9	67.590	0.020	0.210	1.320
2020/01/31 10:04:24.0	67.510	0.010	0.230	1.340
2020/01/31 10:04:24.1	67.440	-0.000	0.250	1.370
2020/01/31 10:04:24.2	67.360	-0.010	0.260	1.390
2020/01/31 10:04:24.3	67.290	-0.020	0.270	1.400
2020/01/31 10:04:24.4	67.230	-0.030	0.270	1.410
2020/01/31 10:04:24.5	67.160	-0.040	0.270	1.410
2020/01/31 10:04:24.6	67.090	-0.040	0.270	1.410
2020/01/31 10:04:24.7	67.030	-0.050	0.260	1.400
2020/01/31 10:04:24.8	66.970	-0.050	0.250	1.390
2020/01/31 10:04:24.9	66.910	-0.050	0.230	1.370
2020/01/31 10:04:25.0	66.850	-0.050	0.210	1.350
2020/01/31 10:04:25.1	66.790	-0.040	0.180	1.320
2020/01/31 10:04:25.2	66.740	-0.040	0.160	1.290
2020/01/31 10:04:25.3	66.680	-0.030	0.120	1.250
2020/01/31 10:04:25.4	66.630	-0.020	0.090	1.210
2020/01/31 10:04:25.5	66.580	-0.010	0.050	1.170
2020/01/31 10:04:25.6	66.520	0.000	0.020	1.120
2020/01/31 10:04:25.7	66.470	0.010	-0.020	1.070
2020/01/31 10:04:25.8	66.420	0.030	-0.050	1.010
2020/01/31 10:04:25.9	66.370	0.040	-0.090	0.950
2020/01/31 10:04:26.0	66.320	0.060	-0.120	0.900
2020/01/31 10:04:26.1	66.270	0.080	-0.160	0.830
2020/01/31 10:04:26.2	66.220	0.100	-0.190	0.770
2020/01/31 10:04:26.3	66.170	0.110	-0.220	0.710
2020/01/31 10:04:26.4	66.110	0.130	-0.250	0.640
2020/01/31 10:04:26.5	66.060	0.150	-0.270	0.580
2020/01/31 10:04:26.6	66.010	0.170	-0.300	0.510
2020/01/31 10:04:26.7	65.960	0.180	-0.320	0.450
2020/01/31 10:04:26.8	65.910	0.200	-0.330	0.390
2020/01/31 10:04:26.9	65.860	0.220	-0.350	0.320
2020/01/31 10:04:27.0	65.810	0.230	-0.360	0.260
2020/01/31 10:04:27.1	65.760	0.250	-0.370	0.200
2020/01/31 10:04:27.2	65.720	0.260	-0.380	0.140
2020/01/31 10:04:27.3	65.670	0.270	-0.380	0.080
2020/01/31 10:04:27.4	65.610	0.280	-0.380	0.030
2020/01/31 10:04:27.5	65.560	0.290	-0.380	-0.020
2020/01/31 10:04:27.6	65.520	0.300	-0.380	-0.070
2020/01/31 10:04:27.7	65.470	0.300	-0.370	-0.120
2020/01/31 10:04:27.8	65.430	0.310	-0.360	-0.160
2020/01/31 10:04:27.9	65.380	0.310	-0.350	-0.200
2020/01/31 10:04:28.0	65.340	0.310	-0.340	-0.240
2020/01/31 10:04:28.1	65.300	0.310	-0.330	-0.270
2020/01/31 10:04:28.2	65.250	0.310	-0.320	-0.310
2020/01/31 10:04:28.3	65.210	0.300	-0.310	-0.330
2020/01/31 10:04:28.4	65.170	0.290	-0.300	-0.360
2020/01/31 10:04:28.5	65.130	0.290	-0.290	-0.390
2020/01/31 10:04:28.6	65.090	0.280	-0.280	-0.410
2020/01/31 10:04:28.7	65.060	0.270	-0.270	-0.430
2020/01/31 10:04:28.8	65.020	0.250	-0.270	-0.440
2020/01/31 10:04:28.9	64.980	0.240	-0.260	-0.460
2020/01/31 10:04:29.0	64.940	0.230	-0.250	-0.470
2020/01/31 10:04:29.1	64.910	0.210	-0.250	-0.480
2020/01/31 10:04:29.2	64.870	0.190	-0.250	-0.480
2020/01/31 10:04:29.3	64.830	0.180	-0.240	-0.490
2020/01/31 10:04:29.4	64.800	0.160	-0.240	-0.490
2020/01/31 10:04:29.5	64.760	0.140	-0.240	-0.480
2020/01/31 10:04:29.6	64.720	0.120	-0.240	-0.480
2020/01/31 10:04:29.7	64.680	0.100	-0.230	-0.470
2020/01/31 10:04:29.8	64.630	0.080	-0.230	-0.460
2020/01/31 10:04:29.9	64.590	0.060	-0.230	-0.440
2020/01/31 10:04:30.0	64.540	0.040	-0.220	-0.420
2020/01/31 10:04:30.1	64.490	0.010	-0.210	-0.400
2020/01/31 10:04:30.2	64.430	-0.010	-0.210	-0.370
2020/01/31 10:04:30.3	64.370	-0.030	-0.190	-0.340
2020/01/31 10:04:30.4	64.340	-0.040	-0.180	-0.310
2020/01/31 10:04:30.5	64.280	-0.060	-0.170	-0.270
2020/01/31 10:04:30.6	64.220	-0.080	-0.150	-0.220
2020/01/31 10:04:30.7	64.150	-0.100	-0.130	-0.170
2020/01/31 10:04:30.8	64.080	-0.110	-0.110	-0.120
2020/01/31 10:04:30.9	64.010	-0.130	-0.090	-0.060
2020/01/31 10:04:31.0	63.930	-0.140	-0.070	-0.010
2020/01/31 10:04:31.1	63.850	-0.160	-0.040	0.060
2020/01/31 10:04:31.2	63.770	-0.170	-0.020	0.120
2020/01/31 10:04:31.3	63.690	-0.180	0.010	0.190
2020/01/31 10:04:31.4	63.620	-0.190	0.030	0.260
2020/01/31 10:04:31.5	63.530	-0.200	0.060	0.330
2020/01/31 10:04:31.6	63.450	-0.210	0.080	0.400
2020/01/31 10:04:31.7	63.360	-0.220	0.110	0.470
2020/01/31 10:04:31.8	63.270	-0.230	0.130	0.540
2020/01/31 10:04:31.9	63.180	-0.240	0.160	0.610
2020/01/31 10:04:32.0	63.100	-0.250	0.180	0.680
2020/01/31 10:04:32.1	63.010	-0.250	0.200	0.750
2020/01/31 10:04:32.2	62.920	-0.260	0.210	0.820
2020/01/31 10:04:32.3	62.830	-0.270	0.230	0.880
2020/01/31 10:04:32.4	62.730	-0.270	0.240	0.940
2020/01/31 10:04:32.5	62.640	-0.280	0.250	1.000
2020/01/31 10:04:32.6	62.550	-0.290	0.260	1.060
2020/01/31 10:04:32.7	62.460	-0.290	0.270	1.120
2020/01/31 10:04:32.8	62.370	-0.300	0.270	1.180
2020/01/31 10:04:32.9	62.290	-0.300	0.270	1.230
2020/01/31 10:04:33.0	62.200	-0.310	0.270	1.280
2020/01/31 10:04:33.1	62.110	-0.320	0.260	1.320
2020/01/31 10:04:33.2	62.030	-0.320	0.260	1.360
2020/01/31 10:04:33.3	61.950	-0.330	0.250	1.400
2020/01/31 10:04:33.4	61.860	-0.340	0.230	1.430
2020/01/31 10:04:33.5	61.780	-0.340	0.210	1.450
2020/01/31 10:04:33.6	61.700	-0.350	0.190	1.470
2020/01/31 10:04:33.7	61.620	-0.350	0.170	1.490
2020/01/31 10:04:33.8	61.550	-0.350	0.140	1.500
2020/01/31 10:04:33.9	61.470	-0.360	0.120	1.500
2020/01/31 10:04:34.0	61.400	-0.360	0.090	1.500
2020/01/31 10:04:34.1	61.330	-0.360	0.060	1.500
2020/01/31 10:04:34.2	61.270	-0.360	0.020	1.490
2020/01/31 10:04:34.3	61.200	-0.350	-0.010	1.470
2020/01/31 10:04:34.4	61.180	-0.350	-0.050	1.450
2020/01/31 10:04:34.5	61.120	-0.340	-0.090	1.420
2020/01/31 10:04:34.6	61.060	-0.340	-0.130	1.390
2020/01/31 10:04:34.7	61.010	-0.330	-0.180	1.360
2020/01/31 10:04:34.8	60.960	-0.310	-0.220	1.320
2020/01/31 10:04:34.9	60.910	-0.300	-0.260	1.270
2020/01/31 10:04:35.0	60.870	-0.280	-0.310	1.220
2020/01/31 10:04:35.1	60.830	-0.270	-0.350	1.170
2020/01/31 10:04:35.2	60.790	-0.250	-0.400	1.110
2020/01/31 10:04:35.3	60.760	-0.220	-0.440	1.050
2020/01/31 10:04:35.4	60.740	-0.200	-0.490	0.990
2020/01/31 10:04:35.5	60.710	-0.170	-0.530	0.920
2020/01/31 10:04:35.6	60.690	-0.150	-0.570	0.850
2020/01/31 10:04:35.7	60.660	-0.120	-0.610	0.780
2020/01/31 10:04:35.8	60.630	-0.090	-0.650	0.710
2020/01/31 10:04:35.9	60.610	-0.060	-0.690	0.640
2020/01/31 10:04:36.0	60.580	-0.030	-0.720	0.560
2020/01/31 10:04:36.1	60.560	0.000	-0.750	0.490
2020/01/31 10:04:36.2	60.540	0.030	-0.770	0.420
2020/01/31 10:04:36.3	60.510	0.060	-0.790	0.350
2020/01/31 10:04:36.4	60.490	0.090	-0.800	0.280
2020/01/31 10:04:36.5	60.460	0.130	-0.810	0.210
2020/01/31 10:04:36.6	60.430	0.150	-0.810	0.140
2020/01/31 10:04:36.7	60.410	0.180	-0.810	0.080
2020/01/31 10:04:36.8	60.370	0.210	-0.800	0.020
2020/01/31 10:04:36.9	60.340	0.240	-0.790	-0.030
2020/01/31 10:04:37.0	60.300	0.260	-0.770	-0.080
2020/01/31 10:04:37.1	60.260	0.280	-0.740	-0.130
2020/01/31 10:04:37.2	60.220	0.300	-0.710	-0.170
2020/01/31 10:04:37.3	60.170	0.320	-0.670	-0.210
2020/01/31 10:04:37.4	60.120	0.340	-0.640	-0.240
2020/01/31 10:04:37.5	60.070	0.350	-0.590	-0.270
2020/01/31 10:04:37.6	60.010	0.360	-0.540	-0.290
2020/01/31 10:04:37.7	59.950	0.370	-0.490	-0.310
2020/01/31 10:04:37.8	59.890	0.380	-0.430	-0.330
2020/01/31 10:04:37.9	59.830	0.390	-0.370	-0.340
2020/01/31 10:04:38.0	59.760	0.390	-0.310	-0.350
2020/01/31 10:04:38.1	59.690	0.390	-0.260	-0.350
2020/01/31 10:04:38.2	59.610	0.390	-0.200	-0.360
2020/01/31 10:04:38.3	59.540	0.380	-0.140	-0.350
2020/01/31 10:04:38.4	59.470	0.380	-0.080	-0.350
2020/01/31 10:04:38.5	59.390	0.370	-0.030	-0.340
2020/01/31 10:04:38.6	59.310	0.360	0.020	-0.330
2020/01/31 10:04:38.7	59.220	0.350	0.070	-0.310
2020/01/31 10:04:38.8	59.140	0.340	0.110	-0.290
2020/01/31 10:04:38.9	59.060	0.330	0.150	-0.270
2020/01/31 10:04:39.0	58.970	0.310	0.190	-0.250
2020/01/31 10:04:39.1	58.890	0.300	0.220	-0.220
2020/01/31 10:04:39.2	58.800	0.280	0.240	-0.200
2020/01/31 10:04:39.3	58.720	0.270	0.250	-0.170
2020/01/31 10:04:39.4	58.650	0.250	0.260	-0.140
2020/01/31 10:04:39.5	58.560	0.230	0.270	-0.110
2020/01/31 10:04:39.6	58.480	0.220	0.270	-0.080
2020/01/31 10:04:39.7	58.400	0.200	0.260	-0.050
2020/01/31 10:04:39.8	58.330	0.180	0.240	-0.020
2020/01/31 10:04:39.9	58.250	0.170	0.230	0.010
2020/01/31 10:04:40.0	58.180	0.150	0.200	0.030
2020/01/31 10:04:40.1	58.110	0.130	0.170	0.060
2020/01/31 10:04:40.2	58.040	0.120	0.140	0.080
2020/01/31 10:04:40.3	57.980	0.100	0.100	0.100
2020/01/31 10:04:40.4	57.920	0.090	0.070	0.120
2020/01/31 10:04:40.5	57.860	0.080	0.020	0.130
2020/01/31 10:04:40.6	57.810	0.070	-0.020	0.150
2020/01/31 10:04:40.7	57.750	0.060	-0.070	0.160
2020/01/31 10:04:40.8	57.700	0.050	-0.110	0.170
2020/01/31 10:04:40.9	57.650	0.040	-0.160	0.180
2020/01/31 10:04:41.0	57.600	0.030	-0.200	0.190
2020/01/31 10:04:41.1	57.550	0.020	-0.240	0.200
2020/01/31 10:04:41.2	57.500	0.020	-0.280	0.210
2020/01/31 10:04:41.3	57.450	0.010	-0.310	0.230
2020/01/31 10:04:41.4	57.400	0.010	-0.340	0.240
2020/01/31 10:04:41.5	57.350	0.000	-0.360	0.260
2020/01/31 10:04:41.6	57.300	0.000	-0.380	0.280
2020/01/31 10:04:41.7	57.250	-0.000	-0.400	0.300
2020/01/31 10:04:41.8	57.190	-0.000	-0.400	0.320
2020/01/31 10:04:41.9	57.130	-0.000	-0.410	0.340
2020/01/31 10:04:42.0	57.080	-0.000	-0.400	0.370
2020/01/31 10:04:42.1	57.010	-0.010	-0.390	0.390
2020/01/31 10:04:42.2	56.950	-0.010	-0.380	0.420
2020/01/31 10:04:42.3	56.890	-0.010	-0.350	0.450
2020/01/31 10:04:42.4	56.820	-0.000	-0.330	0.490
2020/01/31 10:04:42.5	56.750	-0.000	-0.300	0.520
2020/01/31 10:04:42.6	56.680	-0.000	-0.270	0.550
2020/01/31 10:04:42.7	56.610	-0.000	-0.230	0.580
2020/01/31 10:04:42.8	56.540	-0.000	-0.190	0.610
2020/01/31 10:04:42.9	56.460	-0.000	-0.160	0.640
2020/01/31 10:04:43.0	56.390	-0.010	-0.120	0.670
2020/01/31 10:04:43.1	56.310	-0.010	-0.080	0.700
2020/01/31 10:04:43.2	56.240	-0.010	-0.040	0.730
2020/01/31 10:04:43.3	56.160	-0.010	-0.000	0.750
2020/01/31 10:04:43.4	56.100	-0.010	0.030	0.780
2020/01/31 10:04:43.5	56.030	-0.010	0.070	0.800
2020/01/31 10:04:43.6	55.950	-0.010	0.100	0.810
2020/01/31 10:04:43.7	55.880	-0.010	0.120	0.830
2020/01/31 10:04:43.8	55.810	-0.010	0.140	0.840
2020/01/31 10:04:43.9	55.740	-0.020	0.160	0.860
2020/01/31 10:04:44.0	55.670	-0.020	0.170	0.870
2020/01/31 10:04:44.1	55.600	-0.020	0.180	0.870
2020/01/31 10:04:44.2	55.530	-0.020	0.190	0.880
2020/01/31 10:04:44.3	55.470	-0.030	0.190	0.890
2020/01/31 10:04:44.4	55.400	-0.030	0.180	0.890
2020/01/31 10:04:44.5	55.330	-0.030	0.170	0.890
2020/01/31 10:04:44.6	55.270	-0.030	0.160	0.890
2020/01/31 10:04:44.7	55.210	-0.040	0.140	0.890
2020/01/31 10:04:44.8	55.160	-0.040	0.130	0.890
2020/01/31 10:04:44.9	55.100	-0.050	0.100	0.890
2020/01/31 10:04:45.0	55.050	-0.050	0.080	0.890
2020/01/31 10:04:45.1	55.000	-0.060	0.050	0.880
2020/01/31 10:04:45.2	54.950	-0.060	0.020	0.870
2020/01/31 10:04:45.3	54.900	-0.070	-0.010	0.860
2020/01/31 10:04:45.4	54.860	-0.070	-0.050	0.850
2020/01/31 10:04:45.5	54.820	-0.080	-0.080	0.840
2020/01/31 10:04:45.6	54.780	-0.090	-0.110	0.820
2020/01/31 10:04:45.7	54.730	-0.100	-0.150	0.800
2020/01/31 10:04:45.8	54.690	-0.110	-0.180	0.780
2020/01/31 10:04:45.9	54.660	-0.110	-0.210	0.760
2020/01/31 10:04:46.0	54.620	-0.120	-0.250	0.740
2020/01/31 10:04:46.1	54.580	-0.130	-0.280	0.710
2020/01/31 10:04:46.2	54.550	-0.140	-0.300	0.680
2020/01/31 10:04:46.3	54.510	-0.160	-0.330	0.650
2020/01/31 10:04:46.4	54.470	-0.170	-0.350	0.620
2020/01/31 10:04:46.5	54.440	-0.180	-0.370	0.580
2020/01/31 10:04:46.6	54.400	-0.190	-0.390	0.550
2020/01/31 10:04:46.7	54.370	-0.200	-0.400	0.510
2020/01/31 10:04:46.8	54.330	-0.200	-0.420	0.470
2020/01/31 10:04:46.9	54.290	-0.210	-0.420	0.430
2020/01/31 10:04:47.0	54.250	-0.220	-0.420	0.400
2020/01/31 10:04:47.1	54.210	-0.230	-0.420	0.360
2020/01/31 10:04:47.2	54.170	-0.230	-0.420	0.320
2020/01/31 10:04:47.3	54.130	-0.230	-0.410	0.290
2020/01/31 10:04:47.4	54.080	-0.240	-0.390	0.250
2020/01/31 10:04:47.5	54.040	-0.240	-0.370	0.220
2020/01/31 10:04:47.6	53.990	-0.240	-0.350	0.200
2020/01/31 10:04:47.7	53.940	-0.240	-0.320	0.170
2020/01/31 10:04:47.8	53.890	-0.230	-0.290	0.150
2020/01/31 10:04:47.9	53.840	-0.230	-0.260	0.130
2020/01/31 10:04:48.0	53.780	-0.220	-0.220	0.120
2020/01/31 10:04:48.1	53.730	-0.210	-0.180	0.110
2020/01/31 10:04:48.2	53.670	-0.200	-0.140	0.100
2020/01/31 10:04:48.3	53.610	-0.190	-0.100	0.100
2020/01/31 10:04:48.4	53.560	-0.180	-0.060	0.100
2020/01/31 10:04:48.5	53.500	-0.160	-0.020	0.100
2020/01/31 10:04:48.6	53.430	-0.150	0.020	0.110
2020/01/31 10:04:48.7	53.360	-0.130	0.060	0.120
2020/01/31 10:04:48.8	53.290	-0.120	0.100	0.140
2020/01/31 10:04:48.9	53.220	-0.100	0.140	0.160
2020/01/31 10:04:49.0	53.140	-0.080	0.180	0.180
2020/01/31 10:04:49.1	53.070	-0.070	0.210	0.200
2020/01/31 10:04:49.2	52.990	-0.050	0.240	0.230
2020/01/31 10:04:49.3	52.910	-0.030	0.260	0.260
2020/01/31 10:04:49.4	52.830	-0.020	0.280	0.290
2020/01/31 10:04:49.5	52.750	-0.000	0.290	0.320
2020/01/31 10:04:49.6	52.670	0.010	0.300	0.350
2020/01/31 10:04:49.7	52.580	0.030	0.300	0.390
2020/01/31 10:04:49.8	52.500	0.040	0.290	0.420
2020/01/31 10:04:49.9	52.420	0.060	0.280	0.450
2020/01/31 10:04:50.0	52.330	0.070	0.260	0.480
2020/01/31 10:04:50.1	52.250	0.080	0.240	0.510
2020/01/31 10:04:50.2	52.170	0.090	0.210	0.540
2020/01/31 10:04:50.3	52.090	0.100	0.170	0.560
2020/01/31 10:04:50.4	52.010	0.110	0.130	0.580
2020/01/31 10:04:50.5	51.930	0.110	0.080	0.590
2020/01/31 10:04:50.6	51.850	0.120	0.030	0.610
2020/01/31 10:04:50.7	51.780	0.120	-0.030	0.620
2020/01/31 10:04:50.8	51.710	0.120	-0.080	0.620
2020/01/31 10:04:50.9	51.640	0.120	-0.150	0.620
2020/01/31 10:04:51.0	51.580	0.120	-0.210	0.620
2020/01/31 10:04:51.1	51.520	0.120	-0.270	0.610
2020/01/31 10:04:51.2	51.460	0.120	-0.340	0.600
2020/01/31 10:04:51.3	51.400	0.120	-0.400	0.590
2020/01/31 10:04:51.4	51.350	0.110	-0.460	0.580
2020/01/31 10:04:51.5	51.300	0.110	-0.520	0.560
2020/01/31 10:04:51.6	51.250	0.100	-0.580	0.540
2020/01/31 10:04:51.7	51.200	0.090	-0.630	0.510
2020/01/31 10:04:51.8	51.150	0.080	-0.680	0.490
2020/01/31 10:04:51.9	51.110	0.070	-0.720	0.460
2020/01/31 10:04:52.0	51.070	0.060	-0.760	0.430
2020/01/31 10:04:52.1	51.020	0.050	-0.790	0.400
2020/01/31 10:04:52.2	50.980	0.040	-0.810	0.370
2020/01/31 10:04:52.3	50.940	0.030	-0.830	0.330
2020/01/31 10:04:52.4	50.900	0.020	-0.840	0.300
2020/01/31 10:04:52.5	50.860	0.000	-0.840	0.270
2020/01/31 10:04:52.6	50.810	-0.010	-0.830	0.240
2020/01/31 10:04:52.7	50.770	-0.020	-0.820	0.200
2020/01/31 10:04:52.8	50.730	-0.040	-0.800	0.170
2020/01/31 10:04:52.9	50.680	-0.050	-0.780	0.140
2020/01/31 10:04:53.0	50.630	-0.070	-0.740	0.110
2020/01/31 10:04:53.1	50.580	-0.080	-0.700	0.090
2020/01/31 10:04:53.2	50.530	-0.090	-0.660	0.060
2020/01/31 10:04:53.3	50.470	-0.110	-0.610	0.040
2020/01/31 10:04:53.4	50.420	-0.120	-0.550	0.020
2020/01/31 10:04:53.5	50.360	-0.130	-0.500	-0.000
2020/01/31 10:04:53.6	50.300	-0.150	-0.440	-0.020
2020/01/31 10:04:53.7	50.230	-0.160	-0.380	-0.030
2020/01/31 10:04:53.8	50.160	-0.170	-0.320	-0.040
2020/01/31 10:04:53.9	50.090	-0.180	-0.250	-0.040
2020/01/31 10:04:54.0	50.020	-0.190	-0.190	-0.050
2020/01/31 10:04:54.1	49.950	-0.200	-0.130	-0.050
2020/01/31 10:04:54.2	49.870	-0.200	-0.070	-0.040
2020/01/31 10:04:54.3	49.800	-0.210	-0.010	-0.040
2020/01/31 10:04:54.4	49.720	-0.210	0.040	-0.030
2020/01/31 10:04:54.5	49.640	-0.210	0.090	-0.010
2020/01/31 10:04:54.6	49.560	-0.210	0.130	-0.000
2020/01/31 10:04:54.7	49.490	-0.210	0.170	0.020
2020/01/31 10:04:54.8	49.410	-0.210	0.210	0.040
2020/01/31 10:04:54.9	49.330	-0.200	0.240	0.060
2020/01/31 10:04:55.0	49.260	-0.190	0.260	0.080
2020/01/31 10:04:55.1	49.180	-0.180	0.280	0.100
2020/01/31 10:04:55.2	49.110	-0.170	0.290	0.130
2020/01/31 10:04:55.3	49.030	-0.150	0.290	0.160
2020/01/31 10:04:55.4	48.980	-0.140	0.290	0.180
2020/01/31 10:04:55.5	48.920	-0.120	0.280	0.200
2020/01/31 10:04:55.6	48.850	-0.090	0.260	0.230
2020/01/31 10:04:55.7	48.790	-0.070	0.240	0.250
2020/01/31 10:04:55.8	48.720	-0.040	0.210	0.280
2020/01/31 10:04:55.9	48.670	-0.010	0.180	0.300
2020/01/31 10:04:56.0	48.610	0.020	0.140	0.320
2020/01/31 10:04:56.1	48.560	0.050	0.100	0.330
2020/01/31 10:04:56.2	48.510	0.080	0.050	0.350
2020/01/31 10:04:56.3	48.460	0.110	0.000	0.360
2020/01/31 10:04:56.4	48.390	0.150	-0.040	0.380
2020/01/31 10:04:56.5	48.350	0.180	-0.100	0.390
2020/01/31 10:04:56.6	48.310	0.220	-0.150	0.390
2020/01/31 10:04:56.7	48.270	0.250	-0.200	0.400
2020/01/31 10:04:56.8	48.230	0.290	-0.250	0.400
2020/01/31 10:04:56.9	48.190	0.320	-0.300	0.400
2020/01/31 10:04:57.0	48.150	0.350	-0.350	0.400
2020/01/31 10:04:57.1	48.110	0.380	-0.390	0.400
2020/01/31 10:04:57.2	48.070	0.410	-0.430	0.400
2020/01/31 10:04:57.3	48.030	0.440	-0.460	0.400
2020/01/31 10:04:57.4	47.970	0.470	-0.480	0.400
2020/01/31 10:04:57.5	47.930	0.490	-0.510	0.400
2020/01/31 10:04:57.6	47.890	0.510	-0.520	0.410
2020/01/31 10:04:57.7	47.850	0.530	-0.530	0.410
2020/01/31 10:04:57.8	47.800	0.540	-0.530	0.420
2020/01/31 10:04:57.9	47.750	0.550	-0.520	0.430
2020/01/31 10:04:58.0	47.710	0.560	-0.510	0.440
2020/01/31 10:04:58.1	47.650	0.560	-0.490	0.460
2020/01/31 10:04:58.2	47.600	0.560	-0.470	0.470
2020/01/31 10:04:58.3	47.550	0.560	-0.440	0.490
2020/01/31 10:04:58.4	47.480	0.550	-0.400	0.510
2020/01/31 10:04:58.5	47.420	0.540	-0.370	0.530
2020/01/31 10:04:58.6	47.360	0.520	-0.330	0.550
2020/01/31 10:04:58.7	47.300	0.500	-0.280	0.570
2020/01/31 10:04:58.8	47.240	0.470	-0.240	0.590
2020/01/31 10:04:58.9	47.170	0.450	-0.190	0.610
2020/01/31 10:04:59.0	47.100	0.410	-0.150	0.640
2020/01/31 10:04:59.1	47.030	0.380	-0.100	0.660
2020/01/31 10:04:59.2	46.960	0.340	-0.060	0.680
2020/01/31 10:04:59.3	46.890	0.300	-0.010	0.700
2020/01/31 10:04:59.4	46.820	0.250	0.030	0.710
2020/01/31 10:04:59.5	46.740	0.210	0.070	0.730
2020/01/31 10:04:59.6	46.670	0.160	0.100	0.740
2020/01/31 10:04:59.7	46.590	0.110	0.130	0.760
2020/01/31 10:04:59.8	46.520	0.060	0.160	0.770
2020/01/31 10:04:59.9	46.450	0.010	0.190	0.780
2020/01/31 10:05:00.0	46.370	-0.040	0.210	0.790
2020/01/31 10:05:00.1	46.300	-0.100	0.220	0.790
2020/01/31 10:05:00.2	46.230	-0.150	0.230	0.800
2020/01/31 10:05:00.3	46.160	-0.200	0.240	0.800
2020/01/31 10:05:00.4	46.090	-0.250	0.240	0.800
2020/01/31 10:05:00.5	46.020	-0.290	0.240	0.790
2020/01/31 10:05:00.6	45.950	-0.340	0.230	0.790
2020/01/31 10:05:00.7	45.890	-0.380	0.220	0.780
2020/01/31 10:05:00.8	45.820	-0.430	0.200	0.770
2020/01/31 10:05:00.9	45.760	-0.460	0.180	0.760
2020/01/31 10:05:01.0	45.700	-0.500	0.160	0.740
2020/01/31 10:05:01.1	45.640	-0.530	0.140	0.730
2020/01/31 10:05:01.2	45.580	-0.560	0.110	0.710
2020/01/31 10:05:01.3	45.520	-0.580	0.090	0.690
2020/01/31 10:05:01.4	45.480	-0.600	0.060	0.670
2020/01/31 10:05:01.5	45.420	-0.620	0.030	0.650
2020/01/31 10:05:01.6	45.360	-0.640	0.010	0.630
2020/01/31 10:05:01.7	45.300	-0.650	-0.020	0.610
2020/01/31 10:05:01.8	45.240	-0.650	-0.040	0.590
2020/01/31 10:05:01.9	45.180	-0.650	-0.060	0.570
2020/01/31 10:05:02.0	45.120	-0.650	-0.080	0.550
2020/01/31 10:05:02.1	45.050	-0.650	-0.090	0.530
2020/01/31 10:05:02.2	44.990	-0.640	-0.100	0.510
2020/01/31 10:05:02.3	44.930	-0.630	-0.110	0.500
2020/01/31 10:05:02.4	44.870	-0.610	-0.120	0.480
2020/01/31 10:05:02.5	44.800	-0.600	-0.120	0.470
2020/01/31 10:05:02.6	44.730	-0.580	-0.120	0.450
2020/01/31 10:05:02.7	44.660	-0.560	-0.120	0.440
2020/01/31 10:05:02.8	44.600	-0.530	-0.110	0.430
2020/01/31 10:05:02.9	44.530	-0.510	-0.110	0.420
2020/01/31 10:05:03.0	44.460	-0.480	-0.100	0.400
2020/01/31 10:05:03.1	44.390	-0.450	-0.090	0.390
2020/01/31 10:05:03.2	44.320	-0.430	-0.080	0.380
2020/01/31 10:05:03.3	44.250	-0.400	-0.070	0.380
2020/01/31 10:05:03.4	44.160	-0.370	-0.060	0.370
2020/01/31 10:05:03.5	44.090	-0.340	-0.040	0.360
2020/01/31 10:05:03.6	44.020	-0.300	-0.040	0.350
2020/01/31 10:05:03.7	43.950	-0.270	-0.030	0.340
2020/01/31 10:05:03.8	43.880	-0.240	-0.020	0.340
2020/01/31 10:05:03.9	43.810	-0.210	-0.010	0.330
2020/01/31 10:05:04.0	43.750	-0.180	-0.010	0.330
2020/01/31 10:05:04.1	43.680	-0.150	-0.010	0.320
2020/01/31 10:05:04.2	43.620	-0.120	-0.010	0.310
2020/01/31 10:05:04.3	43.560	-0.090	-0.020	0.310
2020/01/31 10:05:04.4	43.480	-0.060	-0.030	0.300
2020/01/31 10:05:04.5	43.420	-0.030	-0.040	0.290
2020/01/31 10:05:04.6	43.370	0.000	-0.060	0.290
2020/01/31 10:05:04.7	43.310	0.030	-0.080	0.290
2020/01/31 10:05:04.8	43.260	0.060	-0.100	0.280
2020/01/31 10:05:04.9	43.210	0.090	-0.120	0.280
2020/01/31 10:05:05.0	43.160	0.120	-0.150	0.270
2020/01/31 10:05:05.1	43.110	0.150	-0.180	0.270
2020/01/31 10:05:05.2	43.060	0.180	-0.210	0.270
2020/01/31 10:05:05.3	43.020	0.200	-0.240	0.260
2020/01/31 10:05:05.4	42.970	0.230	-0.280	0.260
2020/01/31 10:05:05.5	42.920	0.260	-0.310	0.260
2020/01/31 10:05:05.6	42.880	0.280	-0.350	0.250
2020/01/31 10:05:05.7	42.840	0.310	-0.390	0.250
2020/01/31 10:05:05.8	42.800	0.330	-0.430	0.240
2020/01/31 10:05:05.9	42.760	0.350	-0.470	0.240
2020/01/31 10:05:06.0	42.720	0.370	-0.510	0.230
2020/01/31 10:05:06.1	42.680	0.390	-0.540	0.230
2020/01/31 10:05:06.2	42.630	0.410	-0.580	0.220
2020/01/31 10:05:06.3	42.590	0.420	-0.610	0.220
2020/01/31 10:05:06.4	42.540	0.440	-0.640	0.210
2020/01/31 10:05:06.5	42.490	0.450	-0.660	0.210
2020/01/31 10:05:06.6	42.440	0.450	-0.690	0.200
2020/01/31 10:05:06.7	42.400	0.460	-0.710	0.200
2020/01/31 10:05:06.8	42.350	0.460	-0.720	0.200
2020/01/31 10:05:06.9	42.300	0.450	-0.730	0.200
2020/01/31 10:05:07.0	42.240	0.450	-0.740	0.200
2020/01/31 10:05:07.1	42.190	0.440	-0.740	0.200
2020/01/31 10:05:07.2	42.130	0.420	-0.730	0.200
2020/01/31 10:05:07.3	42.070	0.410	-0.720	0.200
2020/01/31 10:05:07.4	42.020	0.390	-0.710	0.200
2020/01/31 10:05:07.5	41.950	0.360	-0.680	0.210
2020/01/31 10:05:07.6	41.890	0.340	-0.660	0.210
2020/01/31 10:05:07.7	41.820	0.310	-0.630	0.220
2020/01/31 10:05:07.8	41.750	0.270	-0.590	0.220
2020/01/31 10:05:07.9	41.680	0.240	-0.550	0.230
2020/01/31 10:05:08.0	41.610	0.200	-0.510	0.250
2020/01/31 10:05:08.1	41.540	0.170	-0.460	0.260
2020/01/31 10:05:08.2	41.460	0.130	-0.410	0.270
2020/01/31 10:05:08.3	41.380	0.090	-0.360	0.290
2020/01/31 10:05:08.4	41.310	0.040	-0.310	0.300
2020/01/31 10:05:08.5	41.230	0.000	-0.250	0.320
2020/01/31 10:05:08.6	41.150	-0.040	-0.190	0.340
2020/01/31 10:05:08.7	41.070	-0.080	-0.130	0.360
2020/01/31 10:05:08.8	40.990	-0.120	-0.080	0.380
2020/01/31 10:05:08.9	40.900	-0.160	-0.020	0.400
2020/01/31 10:05:09.0	40.820	-0.200	0.030	0.420
2020/01/31 10:05:09.1	40.730	-0.240	0.080	0.440
2020/01/31 10:05:09.2	40.650	-0.270	0.130	0.460
2020/01/31 10:05:09.3	40.560	-0.300	0.180	0.480
2020/01/31 10:05:09.4	40.440	-0.330	0.220	0.490
2020/01/31 10:05:09.5	40.360	-0.360	0.250	0.510
2020/01/31 10:05:09.6	40.280	-0.380	0.280	0.520
2020/01/31 10:05:09.7	40.190	-0.400	0.310	0.530
2020/01/31 10:05:09.8	40.110	-0.410	0.330	0.540
2020/01/31 10:05:09.9	40.030	-0.420	0.350	0.550
2020/01/31 10:05:10.0	39.960	-0.430	0.360	0.550
2020/01/31 10:05:10.1	39.880	-0.430	0.360	0.550
2020/01/31 10:05:10.2	39.810	-0.430	0.360	0.550
2020/01/31 10:05:10.3	39.740	-0.430	0.350	0.540
2020/01/31 10:05:10.4	39.650	-0.420	0.340	0.540
2020/01/31 10:05:10.5	39.590	-0.400	0.320	0.530
2020/01/31 10:05:10.6	39.520	-0.390	0.300	0.520
2020/01/31 10:05:10.7	39.460	-0.360	0.270	0.500
2020/01/31 10:05:10.8	39.400	-0.340	0.240	0.490
2020/01/31 10:05:10.9	39.350	-0.310	0.200	0.470
2020/01/31 10:05:11.0	39.290	-0.280	0.170	0.450
2020/01/31 10:05:11.1	39.240	-0.250	0.130	0.430
2020/01/31 10:05:11.2	39.190	-0.210	0.080	0.410
2020/01/31 10:05:11.3	39.140	-0.180	0.040	0.390
2020/01/31 10:05:11.4	39.080	-0.140	-0.000	0.370
2020/01/31 10:05:11.5	39.040	-0.100	-0.040	0.350
2020/01/31 10:05:11.6	38.990	-0.060	-0.090	0.330
2020/01/31 10:05:11.7	38.940	-0.020	-0.130	0.310
2020/01/31 10:05:11.8	38.900	0.020	-0.170	0.290
2020/01/31 10:05:11.9	38.850	0.060	-0.210	0.270
2020/01/31 10:05:12.0	38.800	0.100	-0.240	0.250
2020/01/31 10:05:12.1	38.750	0.140	-0.280	0.240
2020/01/31 10:05:12.2	38.700	0.180	-0.300	0.230
2020/01/31 10:05:12.3	38.650	0.220	-0.330	0.220
2020/01/31 10:05:12.4	38.590	0.250	-0.350	0.210
2020/01/31 10:05:12.5	38.530	0.280	-0.360	0.210
2020/01/31 10:05:12.6	38.480	0.310	-0.370	0.200
2020/01/31 10:05:12.7	38.420	0.340	-0.380	0.210
2020/01/31 10:05:12.8	38.350	0.360	-0.380	0.210
2020/01/31 10:05:12.9	38.290	0.380	-0.380	0.220
2020/01/31 10:05:13.0	38.220	0.400	-0.380	0.220
2020/01/31 10:05:13.1	38.150	0.410	-0.370	0.240
2020/01/31 10:05:13.2	38.080	0.420	-0.350	0.250
2020/01/31 10:05:13.3	38.010	0.430	-0.340	0.260
2020/01/31 10:05:13.4	37.940	0.430	-0.320	0.280
2020/01/31 10:05:13.5	37.870	0.430	-0.290	0.300
2020/01/31 10:05:13.6	37.790	0.430	-0.260	0.320
2020/01/31 10:05:13.7	37.710	0.420	-0.240	0.340
2020/01/31 10:05:13.8	37.630	0.410	-0.210	0.360
2020/01/31 10:05:13.9	37.550	0.390	-0.170	0.380
2020/01/31 10:05:14.0	37.480	0.370	-0.140	0.400
2020/01/31 10:05:14.1	37.400	0.350	-0.110	0.420
2020/01/31 10:05:14.2	37.320	0.330	-0.080	0.430
2020/01/31 10:05:14.3	37.240	0.300	-0.050	0.450
2020/01/31 10:05:14.4	37.180	0.270	-0.020	0.460
2020/01/31 10:05:14.5	37.100	0.240	0.000	0.470
2020/01/31 10:05:14.6	37.030	0.210	0.020	0.470
2020/01/31 10:05:14.7	36.960	0.180	0.040	0.470
2020/01/31 10:05:14.8	36.890	0.140	0.060	0.470
2020/01/31 10:05:14.9	36.820	0.110	0.070	0.470
2020/01/31 10:05:15.0	36.760	0.070	0.080	0.460
2020/01/31 10:05:15.1	36.690	0.030	0.090	0.450
2020/01/31 10:05:15.2	36.630	-0.000	0.090	0.430
2020/01/31 10:05:15.3	36.570	-0.040	0.090	0.420
2020/01/31 10:05:15.4	36.510	-0.070	0.080	0.390
2020/01/31 10:05:15.5	36.450	-0.100	0.070	0.370
2020/01/31 10:05:15.6	36.400	-0.140	0.060	0.350
2020/01/31 10:05:15.7	36.350	-0.170	0.040	0.320
2020/01/31 10:05:15.8	36.300	-0.190	0.020	0.290
2020/01/31 10:05:15.9	36.250	-0.220	0.000	0.270
2020/01/31 10:05:16.0	36.200	-0.240	-0.020	0.240
2020/01/31 10:05:16.1	36.150	-0.270	-0.050	0.210
2020/01/31 10:05:16.2	36.110	-0.280	-0.070	0.180
2020/01/31 10:05:16.3	36.060	-0.300	-0.100	0.160
2020/01/31 10:05:16.4	36.030	-0.310	-0.130	0.130
2020/01/31 10:05:16.5	35.990	-0.320	-0.150	0.110
2020/01/31 10:05:16.6	35.940	-0.330	-0.180	0.080
2020/01/31 10:05:16.7	35.900	-0.340	-0.210	0.060
2020/01/31 10:05:16.8	35.860	-0.340	-0.230	0.040
2020/01/31 10:05:16.9	35.820	-0.340	-0.250	0.030
2020/01/31 10:05:17.0	35.780	-0.340	-0.270	0.010
2020/01/31 10:05:17.1	35.730	-0.330	-0.290	-0.000
2020/01/31 10:05:17.2	35.690	-0.320	-0.310	-0.020
2020/01/31 10:05:17.3	35.650	-0.310	-0.330	-0.030
2020/01/31 10:05:17.4	35.610	-0.300	-0.340	-0.030
2020/01/31 10:05:17.5	35.570	-0.290	-0.350	-0.040
2020/01/31 10:05:17.6	35.520	-0.270	-0.360	-0.040
2020/01/31 10:05:17.7	35.480	-0.260	-0.360	-0.040
2020/01/31 10:05:17.8	35.430	-0.240	-0.370	-0.040
2020/01/31 10:05:17.9	35.380	-0.220	-0.370	-0.040
2020/01/31 10:05:18.0	35.330	-0.200	-0.370	-0.030
2020/01/31 10:05:18.1	35.280	-0.180	-0.370	-0.030
2020/01/31 10:05:18.2	35.220	-0.160	-0.370	-0.010
2020/01/31 10:05:18.3	35.170	-0.140	-0.370	-0.000
2020/01/31 10:05:18.4	35.120	-0.120	-0.360	0.010
2020/01/31 10:05:18.5	35.060	-0.100	-0.360	0.030
2020/01/31 10:05:18.6	35.000	-0.080	-0.350	0.050
2020/01/31 10:05:18.7	34.940	-0.070	-0.340	0.080
2020/01/31 10:05:18.8	34.870	-0.050	-0.330	0.100
2020/01/31 10:05:18.9	34.810	-0.030	-0.320	0.130
2020/01/31 10:05:19.0	34.740	-0.020	-0.310	0.160
2020/01/31 10:05:19.1	34.670	-0.000	-0.290	0.200
2020/01/31 10:05:19.2	34.600	0.010	-0.280	0.230
2020/01/31 10:05:19.3	34.520	0.020	-0.260	0.270
2020/01/31 10:05:19.4	34.450	0.030	-0.250	0.300
2020/01/31 10:05:19.5	34.370	0.040	-0.230	0.340
2020/01/31 10:05:19.6	34.290	0.040	-0.220	0.380
2020/01/31 10:05:19.7	34.210	0.050	-0.200	0.420
2020/01/31 10:05:19.8	34.130	0.050	-0.180	0.460
2020/01/31 10:05:19.9	34.050	0.060	-0.170	0.490
2020/01/31 10:05:20.0	33.960	0.060	-0.150	0.530
2020/01/31 10:05:20.1	33.880	0.060	-0.140	0.560
2020/01/31 10:05:20.2	33.800	0.060	-0.120	0.600
2020/01/31 10:05:20.3	33.710	0.050	-0.110	0.630
2020/01/31 10:05:20.4	33.630	0.050	-0.090	0.650
2020/01/31 10:05:20.5	33.550	0.050	-0.080	0.680
2020/01/31 10:05:20.6	33.460	0.040	-0.070	0.700
2020/01/31 10:05:20.7	33.380	0.040	-0.060	0.720
2020/01/31 10:05:20.8	33.300	0.030	-0.050	0.730
2020/01/31 10:05:20.9	33.220	0.030	-0.040	0.740
2020/01/31 10:05:21.0	33.140	0.020	-0.040	0.750
2020/01/31 10:05:21.1	33.060	0.020	-0.030	0.760
2020/01/31 10:05:21.2	32.980	0.020	-0.030	0.760
2020/01/31 10:05:21.3	32.910	0.020	-0.040	0.770
2020/01/31 10:05:21.4	32.860	0.010	-0.040	0.760
2020/01/31 10:05:21.5	32.790	0.010	-0.040	0.760
2020/01/31 10:05:21.6	32.710	0.010	-0.050	0.760
2020/01/31 10:05:21.7	32.640	0.020	-0.060	0.750
2020/01/31 10:05:21.8	32.570	0.020	-0.070	0.750
2020/01/31 10:05:21.9	32.500	0.020	-0.080	0.740
2020/01/31 10:05:22.0	32.440	0.030	-0.090	0.740
2020/01/31 10:05:22.1	32.370	0.030	-0.100	0.730
2020/01/31 10:05:22.2	32.300	0.040	-0.110	0.730
2020/01/31 10:05:22.3	32.230	0.050	-0.130	0.730
2020/01/31 10:05:22.4	32.180	0.060	-0.140	0.730
2020/01/31 10:05:22.5	32.120	0.070	-0.150	0.730
2020/01/31 10:05:22.6	32.050	0.080	-0.170	0.730
2020/01/31 10:05:22.7	31.990	0.090	-0.180	0.730
2020/01/31 10:05:22.8	31.930	0.100	-0.190	0.730
2020/01/31 10:05:22.9	31.860	0.110	-0.200	0.730
2020/01/31 10:05:23.0	31.800	0.120	-0.210	0.720
2020/01/31 10:05:23.1	31.750	0.130	-0.220	0.720
2020/01/31 10:05:23.2	31.690	0.140	-0.230	0.720
2020/01/31 10:05:23.3	31.630	0.150	-0.240	0.720
2020/01/31 10:05:23.4	31.580	0.160	-0.250	0.710
2020/01/31 10:05:23.5	31.530	0.170	-0.260	0.700
2020/01/31 10:05:23.6	31.480	0.180	-0.270	0.700
2020/01/31 10:05:23.7	31.430	0.180	-0.270	0.690
2020/01/31 10:05:23.8	31.380	0.190	-0.280	0.670
2020/01/31 10:05:23.9	31.330	0.190	-0.290	0.660
2020/01/31 10:05:24.0	31.280	0.190	-0.290	0.640
2020/01/31 10:05:24.1	31.230	0.190	-0.290	0.630
2020/01/31 10:05:24.2	31.180	0.190	-0.290	0.610
2020/01/31 10:05:24.3	31.140	0.190	-0.290	0.590
2020/01/31 10:05:24.4	31.090	0.190	-0.290	0.560
2020/01/31 10:05:24.5	31.050	0.180	-0.290	0.540
2020/01/31 10:05:24.6	31.000	0.180	-0.280	0.520
2020/01/31 10:05:24.7	30.960	0.170	-0.280	0.490
2020/01/31 10:05:24.8	30.910	0.160	-0.270	0.470
2020/01/31 10:05:24.9	30.860	0.150	-0.260	0.440
2020/01/31 10:05:25.0	30.820	0.140	-0.250	0.420
2020/01/31 10:05:25.1	30.770	0.120	-0.240	0.390
2020/01/31 10:05:25.2	30.720	0.110	-0.220	0.370
2020/01/31 10:05:25.3	30.670	0.090	-0.210	0.340
2020/01/31 10:05:25.4	30.610	0.070	-0.190	0.320
2020/01/31 10:05:25.5	30.560	0.060	-0.170	0.290
2020/01/31 10:05:25.6	30.500	0.040	-0.150	0.270
2020/01/31 10:05:25.7	30.450	0.020	-0.130	0.250
2020/01/31 10:05:25.8	30.390	-0.000	-0.100	0.230
2020/01/31 10:05:25.9	30.330	-0.030	-0.080	0.220
2020/01/31 10:05:26.0	30.270	-0.050	-0.050	0.200
2020/01/31 10:05:26.1	30.200	-0.070	-0.030	0.190
2020/01/31 10:05:26.2	30.140	-0.090	-0.000	0.180
2020/01/31 10:05:26.3	30.070	-0.120	0.030	0.170
2020/01/31 10:05:26.4	30.020	-0.140	0.050	0.160
2020/01/31 10:05:26.5	29.950	-0.160	0.080	0.160
2020/01/31 10:05:26.6	29.880	-0.180	0.100	0.150
2020/01/31 10:05:26.7	29.810	-0.200	0.130	0.150
2020/01/31 10:05:26.8	29.740	-0.220	0.150	0.150
2020/01/31 10:05:26.9	29.670	-0.240	0.180	0.140
2020/01/31 10:05:27.0	29.590	-0.260	0.200	0.140
2020/01/31 10:05:27.1	29.520	-0.280	0.220	0.140
2020/01/31 10:05:27.2	29.450	-0.290	0.230	0.140
2020/01/31 10:05:27.3	29.380	-0.310	0.250	0.140
2020/01/31 10:05:27.4	29.300	-0.320	0.260	0.150
2020/01/31 10:05:27.5	29.230	-0.330	0.270	0.150
2020/01/31 10:05:27.6	29.150	-0.340	0.270	0.150
2020/01/31 10:05:27.7	29.080	-0.340	0.280	0.150
2020/01/31 10:05:27.8	29.010	-0.350	0.280	0.160
2020/01/31 10:05:27.9	28.940	-0.350	0.270	0.160
2020/01/31 10:05:28.0	28.860	-0.350	0.260	0.160
2020/01/31 10:05:28.1	28.790	-0.340	0.250	0.160
2020/01/31 10:05:28.2	28.720	-0.340	0.240	0.160
2020/01/31 10:05:28.3	28.650	-0.330	0.220	0.170
2020/01/31 10:05:28.4	28.570	-0.320	0.190	0.170
2020/01/31 10:05:28.5	28.510	-0.310	0.170	0.170
2020/01/31 10:05:28.6	28.440	-0.290	0.130	0.170
2020/01/31 10:05:28.7	28.380	-0.270	0.100	0.170
2020/01/31 10:05:28.8	28.310	-0.250	0.060	0.180
2020/01/31 10:05:28.9	28.250	-0.230	0.020	0.180
2020/01/31 10:05:29.0	28.190	-0.210	-0.020	0.180
2020/01/31 10:05:29.1	28.130	-0.190	-0.070	0.180
2020/01/31 10:05:29.2	28.070	-0.160	-0.120	0.180
2020/01/31 10:05:29.3	28.020	-0.130	-0.170	0.180
2020/01/31 10:05:29.4	27.960	-0.110	-0.220	0.180
2020/01/31 10:05:29.5	27.900	-0.080	-0.270	0.180
2020/01/31 10:05:29.6	27.850	-0.050	-0.320	0.190
2020/01/31 10:05:29.7	27.790	-0.020	-0.370	0.190
2020/01/31 10:05:29.8	27.740	0.010	-0.420	0.190
2020/01/31 10:05:29.9	27.690	0.040	-0.470	0.200
2020/01/31 10:05:30.0	27.640	0.070	-0.520	0.200
2020/01/31 10:05:30.1	27.590	0.090	-0.560	0.200
2020/01/31 10:05:30.2	27.530	0.120	-0.600	0.210
2020/01/31 10:05:30.3	27.480	0.150	-0.640	0.220
2020/01/31 10:05:30.4	27.420	0.170	-0.670	0.220
2020/01/31 10:05:30.5	27.370	0.200	-0.700	0.230
2020/01/31 10:05:30.6	27.310	0.220	-0.720	0.240
2020/01/31 10:05:30.7	27.250	0.240	-0.740	0.250
2020/01/31 10:05:30.8	27.200	0.260	-0.750	0.250
2020/01/31 10:05:30.9	27.140	0.270	-0.760	0.260
2020/01/31 10:05:31.0	27.080	0.290	-0.760	0.270
2020/01/31 10:05:31.1	27.020	0.300	-0.750	0.280
2020/01/31 10:05:31.2	26.960	0.310	-0.740	0.300
2020/01/31 10:05:31.3	26.900	0.320	-0.730	0.310
2020/01/31 10:05:31.4	26.840	0.330	-0.710	0.320
2020/01/31 10:05:31.5	26.770	0.330	-0.690	0.330
2020/01/31 10:05:31.6	26.710	0.340	-0.660	0.340
2020/01/31 10:05:31.7	26.640	0.340	-0.620	0.350
2020/01/31 10:05:31.8	26.580	0.330	-0.590	0.370
2020/01/31 10:05:31.9	26.510	0.330	-0.550	0.380
2020/01/31 10:05:32.0	26.440	0.320	-0.500	0.400
2020/01/31 10:05:32.1	26.380	0.310	-0.460	0.410
2020/01/31 10:05:32.2	26.310	0.300	-0.410	0.420
2020/01/31 10:05:32.3	26.240	0.290	-0.370	0.440
2020/01/31 10:05:32.4	26.180	0.280	-0.320	0.460
2020/01/31 10:05:32.5	26.110	0.260	-0.270	0.470
2020/01/31 10:05:32.6	26.040	0.250	-0.230	0.490
2020/01/31 10:05:32.7	25.980	0.230	-0.180	0.510
2020/01/31 10:05:32.8	25.910	0.210	-0.140	0.530
2020/01/31 10:05:32.9	25.840	0.190	-0.090	0.550
2020/01/31 10:05:33.0	25.770	0.170	-0.050	0.570
2020/01/31 10:05:33.1	25.700	0.150	-0.020	0.600
2020/01/31 10:05:33.2	25.630	0.130	0.020	0.630
2020/01/31 10:05:33.3	25.560	0.100	0.050	0.650
2020/01/31 10:05:33.4	25.470	0.080	0.080	0.680
2020/01/31 10:05:33.5	25.390	0.060	0.110	0.720
2020/01/31 10:05:33.6	25.320	0.040	0.130	0.750
2020/01/31 10:05:33.7	25.250	0.010	0.150	0.790
2020/01/31 10:05:33.8	25.170	-0.010	0.160	0.820
2020/01/31 10:05:33.9	25.090	-0.030	0.180	0.860
2020/01/31 10:05:34.0	25.020	-0.050	0.180	0.890
2020/01/31 10:05:34.1	24.940	-0.070	0.190	0.930
2020/01/31 10:05:34.2	24.860	-0.090	0.190	0.960
2020/01/31 10:05:34.3	24.790	-0.110	0.190	1.000
2020/01/31 10:05:34.4	24.700	-0.130	0.180	1.020
2020/01/31 10:05:34.5	24.620	-0.140	0.170	1.050
2020/01/31 10:05:34.6	24.550	-0.160	0.160	1.070
2020/01/31 10:05:34.7	24.470	-0.170	0.140	1.090
2020/01/31 10:05:34.8	24.400	-0.180	0.130	1.100
2020/01/31 10:05:34.9	24.330	-0.190	0.110	1.110
2020/01/31 10:05:35.0	24.260	-0.200	0.090	1.120
2020/01/31 10:05:35.1	24.190	-0.200	0.060	1.120
2020/01/31 10:05:35.2	24.130	-0.210	0.040	1.110
2020/01/31 10:05:35.3	24.060	-0.210	0.010	1.110
2020/01/31 10:05:35.4	24.000	-0.200	-0.010	1.090
2020/01/31 10:05:35.5	23.940	-0.200	-0.040	1.080
2020/01/31 10:05:35.6	23.880	-0.190	-0.060	1.060
2020/01/31 10:05:35.7	23.810	-0.180	-0.090	1.040
2020/01/31 10:05:35.8	23.750	-0.170	-0.110	1.010
2020/01/31 10:05:35.9	23.690	-0.150	-0.130	0.990
2020/01/31 10:05:36.0	23.630	-0.140	-0.150	0.960
2020/01/31 10:05:36.1	23.570	-0.120	-0.170	0.930
2020/01/31 10:05:36.2	23.510	-0.090	-0.190	0.900
2020/01/31 10:05:36.3	23.450	-0.070	-0.210	0.870
2020/01/31 10:05:36.4	23.380	-0.050	-0.220	0.840
2020/01/31 10:05:36.5	23.320	-0.020	-0.230	0.810
2020/01/31 10:05:36.6	23.260	0.010	-0.240	0.780
2020/01/31 10:05:36.7	23.190	0.030	-0.240	0.750
2020/01/31 10:05:36.8	23.120	0.060	-0.250	0.730
2020/01/31 10:05:36.9	23.050	0.090	-0.240	0.700
2020/01/31 10:05:37.0	22.980	0.110	-0.240	0.680
2020/01/31 10:05:37.1	22.910	0.130	-0.230	0.660
2020/01/31 10:05:37.2	22.840	0.160	-0.230	0.640
2020/01/31 10:05:37.3	22.760	0.180	-0.210	0.620
2020/01/31 10:05:37.4	22.670	0.190	-0.200	0.600
2020/01/31 10:05:37.5	22.590	0.210	-0.190	0.590
2020/01/31 10:05:37.6	22.520	0.220	-0.170	0.570
2020/01/31 10:05:37.7	22.440	0.240	-0.160	0.560
2020/01/31 10:05:37.8	22.360	0.250	-0.140	0.550
2020/01/31 10:05:37.9	22.280	0.250	-0.120	0.540
2020/01/31 10:05:38.0	22.200	0.260	-0.100	0.540
2020/01/31 10:05:38.1	22.130	0.260	-0.080	0.530
2020/01/31 10:05:38.2	22.050	0.260	-0.070	0.530
2020/01/31 10:05:38.3	21.980	0.260	-0.050	0.520
2020/01/31 10:05:38.4	21.910	0.250	-0.040	0.510
2020/01/31 10:05:38.5	21.840	0.250	-0.030	0.510
2020/01/31 10:05:38.6	21.770	0.240	-0.020	0.500
2020/01/31 10:05:38.7	21.710	0.230	-0.010	0.500
2020/01/31 10:05:38.8	21.640	0.220	-0.000	0.490
2020/01/31 10:05:38.9	21.580	0.210	-0.000	0.480
2020/01/31 10:05:39.0	21.520	0.200	0.000	0.470
2020/01/31 10:05:39.1	21.470	0.180	-0.000	0.460
2020/01/31 10:05:39.2	21.410	0.170	-0.010	0.450
2020/01/31 10:05:39.3	21.360	0.160	-0.020	0.440
2020/01/31 10:05:39.4	21.300	0.150	-0.030	0.420
2020/01/31 10:05:39.5	21.260	0.130	-0.050	0.410
2020/01/31 10:05:39.6	21.210	0.120	-0.060	0.390
2020/01/31 10:05:39.7	21.170	0.110	-0.080	0.370
2020/01/31 10:05:39.8	21.130	0.100	-0.100	0.340
2020/01/31 10:05:39.9	21.090	0.090	-0.120	0.320
2020/01/31 10:05:40.0	21.050	0.080	-0.150	0.300
2020/01/31 10:05:40.1	21.010	0.070	-0.170	0.270
2020/01/31 10:05:40.2	20.970	0.070	-0.200	0.250
2020/01/31 10:05:40.3	20.930	0.060	-0.220	0.220
2020/01/31 10:05:40.4	20.900	0.050	-0.240	0.200
2020/01/31 10:05:40.5	20.860	0.050	-0.260	0.170
2020/01/31 10:05:40.6	20.820	0.040	-0.280	0.150
2020/01/31 10:05:40.7	20.780	0.030	-0.300	0.120
2020/01/31 10:05:40.8	20.730	0.030	-0.310	0.100
2020/01/31 10:05:40.9	20.690	0.020	-0.320	0.080
2020/01/31 10:05:41.0	20.640	0.010	-0.330	0.060
2020/01/31 10:05:41.1	20.600	0.000	-0.340	0.040
2020/01/31 10:05:41.2	20.550	-0.010	-0.340	0.020
2020/01/31 10:05:41.3	20.500	-0.020	-0.340	0.010
2020/01/31 10:05:41.4	20.460	-0.040	-0.340	-0.000
2020/01/31 10:05:41.5	20.410	-0.050	-0.330	-0.020
2020/01/31 10:05:41.6	20.350	-0.070	-0.320	-0.030
2020/01/31 10:05:41.7	20.300	-0.090	-0.310	-0.040
2020/01/31 10:05:41.8	20.240	-0.120	-0.300	-0.050
2020/01/31 10:05:41.9	20.180	-0.140	-0.280	-0.060
2020/01/31 10:05:42.0	20.130	-0.170	-0.260	-0.060
2020/01/31 10:05:42.1	20.060	-0.200	-0.240	-0.070
2020/01/31 10:05:42.2	20.000	-0.230	-0.220	-0.070
2020/01/31 10:05:42.3	19.940	-0.260	-0.200	-0.070
2020/01/31 10:05:42.4	19.880	-0.290	-0.170	-0.070
2020/01/31 10:05:42.5	19.820	-0.330	-0.150	-0.060
2020/01/31 10:05:42.6	19.750	-0.370	-0.120	-0.060
2020/01/31 10:05:42.7	19.680	-0.400	-0.100	-0.050
2020/01/31 10:05:42.8	19.620	-0.440	-0.070	-0.040
2020/01/31 10:05:42.9	19.550	-0.480	-0.050	-0.030
2020/01/31 10:05:43.0	19.480	-0.520	-0.020	-0.030
2020/01/31 10:05:43.1	19.410	-0.550	0.000	-0.020
2020/01/31 10:05:43.2	19.330	-0.590	0.030	-0.000
2020/01/31 10:05:43.3	19.260	-0.630	0.050	0.010
2020/01/31 10:05:43.4	19.180	-0.660	0.070	0.020
2020/01/31 10:05:43.5	19.110	-0.690	0.090	0.030
2020/01/31 10:05:43.6	19.030	-0.720	0.110	0.040
2020/01/31 10:05:43.7	18.950	-0.740	0.120	0.050
2020/01/31 10:05:43.8	18.880	-0.760	0.140	0.060
2020/01/31 10:05:43.9	18.800	-0.780	0.150	0.070
2020/01/31 10:05:44.0	18.720	-0.790	0.160	0.090
2020/01/31 10:05:44.1	18.640	-0.800	0.170	0.100
2020/01/31 10:05:44.2	18.560	-0.800	0.180	0.110
2020/01/31 10:05:44.3	18.480	-0.800	0.180	0.120
2020/01/31 10:05:44.4	18.380	-0.790	0.180	0.130
2020/01/31 10:05:44.5	18.300	-0.780	0.180	0.150
2020/01/31 10:05:44.6	18.220	-0.760	0.180	0.160
2020/01/31 10:05:44.7	18.140	-0.740	0.170	0.180
2020/01/31 10:05:44.8	18.050	-0.710	0.160	0.200
2020/01/31 10:05:44.9	17.970	-0.670	0.160	0.230
2020/01/31 10:05:45.0	17.890	-0.630	0.140	0.250
2020/01/31 10:05:45.1	17.800	-0.580	0.130	0.280
2020/01/31 10:05:45.2	17.720	-0.520	0.110	0.310
2020/01/31 10:05:45.3	17.640	-0.470	0.100	0.350
2020/01/31 10:05:45.4	17.570	-0.400	0.080	0.380
2020/01/31 10:05:45.5	17.490	-0.330	0.060	0.420
2020/01/31 10:05:45.6	17.400	-0.260	0.040	0.470
2020/01/31 10:05:45.7	17.320	-0.190	0.010	0.510
2020/01/31 10:05:45.8	17.240	-0.110	-0.020	0.560
2020/01/31 10:05:45.9	17.150	-0.030	-0.050	0.610
2020/01/31 10:05:46.0	17.070	0.050	-0.080	0.660
2020/01/31 10:05:46.1	16.990	0.130	-0.110	0.710
2020/01/31 10:05:46.2	16.910	0.210	-0.140	0.760
2020/01/31 10:05:46.3	16.830	0.300	-0.180	0.810
2020/01/31 10:05:46.4	16.770	0.380	-0.220	0.870
2020/01/31 10:05:46.5	16.690	0.460	-0.260	0.920
2020/01/31 10:05:46.6	16.620	0.530	-0.290	0.960
2020/01/31 10:05:46.7	16.540	0.610	-0.330	1.010
2020/01/31 10:05:46.8	16.470	0.680	-0.370	1.050
2020/01/31 10:05:46.9	16.390	0.740	-0.410	1.090
2020/01/31 10:05:47.0	16.320	0.800	-0.450	1.130
2020/01/31 10:05:47.1	16.250	0.860	-0.490	1.160
2020/01/31 10:05:47.2	16.180	0.910	-0.530	1.190
2020/01/31 10:05:47.3	16.110	0.950	-0.570	1.220
2020/01/31 10:05:47.4	16.030	0.990	-0.600	1.240
2020/01/31 10:05:47.5	15.960	1.020	-0.640	1.250
2020/01/31 10:05:47.6	15.890	1.040	-0.670	1.260
2020/01/31 10:05:47.7	15.820	1.060	-0.700	1.270
2020/01/31 10:05:47.8	15.760	1.070	-0.730	1.270
2020/01/31 10:05:47.9	15.700	1.070	-0.750	1.260
2020/01/31 10:05:48.0	15.630	1.070	-0.770	1.250
2020/01/31 10:05:48.1	15.570	1.060	-0.790	1.230
2020/01/31 10:05:48.2	15.510	1.040	-0.810	1.210
2020/01/31 10:05:48.3	15.450	1.020	-0.820	1.190
2020/01/31 10:05:48.4	15.410	0.990	-0.820	1.150
2020/01/31 10:05:48.5	15.350	0.950	-0.830	1.120
2020/01/31 10:05:48.6	15.300	0.910	-0.830	1.080
2020/01/31 10:05:48.7	15.250	0.860	-0.820	1.040
2020/01/31 10:05:48.8	15.200	0.810	-0.820	0.990
2020/01/31 10:05:48.9	15.150	0.760	-0.800	0.940
2020/01/31 10:05:49.0	15.110	0.700	-0.790	0.890
2020/01/31 10:05:49.1	15.060	0.640	-0.770	0.840
2020/01/31 10:05:49.2	15.020	0.570	-0.750	0.790
2020/01/31 10:05:49.3	14.980	0.510	-0.730	0.730
2020/01/31 10:05:49.4	14.960	0.440	-0.700	0.670
2020/01/31 10:05:49.5	14.920	0.380	-0.670	0.610
2020/01/31 10:05:49.6	14.890	0.310	-0.640	0.560
2020/01/31 10:05:49.7	14.850	0.240	-0.600	0.500
2020/01/31 10:05:49.8	14.820	0.180	-0.560	0.440
2020/01/31 10:05:49.9	14.780	0.120	-0.530	0.380
2020/01/31 10:05:50.0	14.750	0.050	-0.480	0.320
2020/01/31 10:05:50.1	14.710	-0.000	-0.440	0.260
2020/01/31 10:05:50.2	14.680	-0.060	-0.400	0.210
2020/01/31 10:05:50.3	14.640	-0.110	-0.350	0.150
2020/01/31 10:05:50.4	14.610	-0.160	-0.300	0.100
2020/01/31 10:05:50.5	14.570	-0.210	-0.260	0.050
2020/01/31 10:05:50.6	14.530	-0.250	-0.210	0.000
2020/01/31 10:05:50.7	14.490	-0.290	-0.160	-0.040
2020/01/31 10:05:50.8	14.450	-0.320	-0.110	-0.090
2020/01/31 10:05:50.9	14.400	-0.350	-0.070	-0.130
2020/01/31 10:05:51.0	14.350	-0.380	-0.020	-0.160
2020/01/31 10:05:51.1	14.300	-0.400	0.030	-0.190
2020/01/31 10:05:51.2	14.240	-0.410	0.070	-0.220
2020/01/31 10:05:51.3	14.190	-0.420	0.120	-0.250
2020/01/31 10:05:51.4	14.110	-0.430	0.160	-0.270
2020/01/31 10:05:51.5	14.050	-0.440	0.200	-0.290
2020/01/31 10:05:51.6	13.990	-0.440	0.240	-0.310
2020/01/31 10:05:51.7	13.920	-0.440	0.270	-0.320
2020/01/31 10:05:51.8	13.850	-0.430	0.310	-0.330
2020/01/31 10:05:51.9	13.780	-0.420	0.340	-0.340
2020/01/31 10:05:52.0	13.710	-0.410	0.360	-0.340
2020/01/31 10:05:52.1	13.630	-0.400	0.390	-0.350
2020/01/31 10:05:52.2	13.560	-0.380	0.410	-0.350
2020/01/31 10:05:52.3	13.480	-0.360	0.430	-0.350
2020/01/31 10:05:52.4	13.390	-0.340	0.440	-0.340
2020/01/31 10:05:52.5	13.310	-0.320	0.450	-0.340
2020/01/31 10:05:52.6	13.220	-0.300	0.460	-0.330
2020/01/31 10:05:52.7	13.140	-0.280	0.460	-0.320
2020/01/31 10:05:52.8	13.050	-0.260	0.460	-0.310
2020/01/31 10:05:52.9	12.960	-0.240	0.460	-0.300
2020/01/31 10:05:53.0	12.870	-0.210	0.460	-0.290
2020/01/31 10:05:53.1	12.780	-0.190	0.450	-0.270
2020/01/31 10:05:53.2	12.690	-0.170	0.440	-0.260
2020/01/31 10:05:53.3	12.600	-0.150	0.430	-0.240
2020/01/31 10:05:53.4	12.500	-0.130	0.420	-0.220
2020/01/31 10:05:53.5	12.410	-0.110	0.400	-0.200
2020/01/31 10:05:53.6	12.320	-0.090	0.380	-0.180
2020/01/31 10:05:53.7	12.230	-0.070	0.370	-0.150
2020/01/31 10:05:53.8	12.140	-0.050	0.350	-0.130
2020/01/31 10:05:53.9	12.050	-0.040	0.330	-0.100
2020/01/31 10:05:54.0	11.960	-0.030	0.310	-0.070
2020/01/31 10:05:54.1	11.870	-0.010	0.290	-0.040
2020/01/31 10:05:54.2	11.780	-0.000	0.270	-0.000
2020/01/31 10:05:54.3	11.690	0.010	0.260	0.030
2020/01/31 10:05:54.4	11.600	0.010	0.240	0.070
2020/01/31 10:05:54.5	11.510	0.020	0.220	0.100
2020/01/31 10:05:54.6	11.430	0.030	0.210	0.140
2020/01/31 10:05:54.7	11.350	0.030	0.190	0.180
2020/01/31 10:05:54.8	11.270	0.030	0.170	0.220
2020/01/31 10:05:54.9	11.190	0.030	0.150	0.260
2020/01/31 10:05:55.0	11.110	0.030	0.140	0.290
2020/01/31 10:05:55.1	11.040	0.030	0.120	0.330
2020/01/31 10:05:55.2	10.960	0.030	0.100	0.370
2020/01/31 10:05:55.3	10.890	0.020	0.080	0.400
2020/01/31 10:05:55.4	10.780	0.020	0.060	0.430
2020/01/31 10:05:55.5	10.710	0.010	0.030	0.460
2020/01/31 10:05:55.6	10.650	0.010	0.010	0.490
2020/01/31 10:05:55.7	10.580	0.000	-0.010	0.520
2020/01/31 10:05:55.8	10.520	-0.010	-0.040	0.550
2020/01/31 10:05:55.9	10.450	-0.020	-0.060	0.570
2020/01/31 10:05:56.0	10.390	-0.020	-0.090	0.590
2020/01/31 10:05:56.1	10.330	-0.030	-0.110	0.610
2020/01/31 10:05:56.2	10.270	-0.050	-0.140	0.630
2020/01/31 10:05:56.3	10.210	-0.060	-0.160	0.650
2020/01/31 10:05:56.4	10.110	-0.070	-0.190	0.660
2020/01/31 10:05:56.5	10.050	-0.080	-0.210	0.680
2020/01/31 10:05:56.6	9.990	-0.090	-0.230	0.690
2020/01/31 10:05:56.7	9.930	-0.100	-0.250	0.710
2020/01/31 10:05:56.8	9.860	-0.120	-0.270	0.720
2020/01/31 10:05:56.9	9.800	-0.130	-0.300	0.740
2020/01/31 10:05:57.0	9.740	-0.140	-0.310	0.750
2020/01/31 10:05:57.1	9.680	-0.160	-0.330	0.760
2020/01/31 10:05:57.2	9.610	-0.170	-0.350	0.770
2020/01/31 10:05:57.3	9.550	-0.180	-0.360	0.770
2020/01/31 10:05:57.4	9.470	-0.190	-0.370	0.780
2020/01/31 10:05:57.5	9.410	-0.210	-0.390	0.790
2020/01/31 10:05:57.6	9.350	-0.220	-0.400	0.790
2020/01/31 10:05:57.7	9.300	-0.230	-0.410	0.790
2020/01/31 10:05:57.8	9.240	-0.240	-0.420	0.790
2020/01/31 10:05:57.9	9.190	-0.250	-0.440	0.780
2020/01/31 10:05:58.0	9.140	-0.260	-0.450	0.770
2020/01/31 10:05:58.1	9.090	-0.260	-0.460	0.760
2020/01/31 10:05:58.2	9.040	-0.270	-0.470	0.750
2020/01/31 10:05:58.3	8.990	-0.270	-0.480	0.730
2020/01/31 10:05:58.4	8.960	-0.270	-0.490	0.710
2020/01/31 10:05:58.5	8.920	-0.270	-0.500	0.690
2020/01/31 10:05:58.6	8.880	-0.270	-0.510	0.670
2020/01/31 10:05:58.7	8.840	-0.270	-0.520	0.640
2020/01/31 10:05:58.8	8.800	-0.260	-0.530	0.620
2020/01/31 10:05:58.9	8.770	-0.250	-0.530	0.590
2020/01/31 10:05:59.0	8.730	-0.250	-0.540	0.570
2020/01/31 10:05:59.1	8.690	-0.230	-0.550	0.540
2020/01/31 10:05:59.2	8.650	-0.220	-0.550	0.520
2020/01/31 10:05:59.3	8.620	-0.210	-0.550	0.490
2020/01/31 10:05:59.4	8.570	-0.190	-0.560	0.470
2020/01/31 10:05:59.5	8.530	-0.180	-0.560	0.450
2020/01/31 10:05:59.6	8.490	-0.160	-0.550	0.430
2020/01/31 10:05:59.7	8.450	-0.140	-0.550	0.410
2020/01/31 10:05:59.8	8.400	-0.120	-0.540	0.400
2020/01/31 10:05:59.9	8.350	-0.100	-0.530	0.390
2020/01/31 10:06:00.0	8.300	-0.080	-0.520	0.380
2020/01/31 10:06:00.1	8.250	-0.070	-0.500	0.370
2020/01/31 10:06:00.2	8.190	-0.050	-0.490	0.360
2020/01/31 10:06:00.3	8.130	-0.030	-0.470	0.360
2020/01/31 10:06:00.4	8.060	-0.010	-0.440	0.360
2020/01/31 10:06:00.5	7.990	0.000	-0.420	0.370
2020/01/31 10:06:00.6	7.920	0.010	-0.390	0.370
2020/01/31 10:06:00.7	7.850	0.030	-0.360	0.380
2020/01/31 10:06:00.8	7.770	0.040	-0.330	0.390
2020/01/31 10:06:00.9	7.680	0.050	-0.300	0.400
2020/01/31 10:06:01.0	7.600	0.050	-0.270	0.410
2020/01/31 10:06:01.1	7.510	0.060	-0.230	0.430
2020/01/31 10:06:01.2	7.420	0.070	-0.200	0.450
2020/01/31 10:06:01.3	7.330	0.070	-0.160	0.470
2020/01/31 10:06:01.4	7.230	0.070	-0.130	0.490
2020/01/31 10:06:01.5	7.140	0.070	-0.090	0.510
2020/01/31 10:06:01.6	7.030	0.070	-0.050	0.530
2020/01/31 10:06:01.7	6.930	0.070	-0.020	0.560
2020/01/31 10:06:01.8	6.830	0.070	0.020	0.580
2020/01/31 10:06:01.9	6.720	0.070	0.050	0.610
2020/01/31 10:06:02.0	6.620	0.060	0.080	0.630
2020/01/31 10:06:02.1	6.510	0.060	0.110	0.660
2020/01/31 10:06:02.2	6.400	0.060	0.130	0.680
2020/01/31 10:06:02.3	6.300	0.050	0.160	0.710
2020/01/31 10:06:02.4	6.190	0.050	0.180	0.730
2020/01/31 10:06:02.5	6.080	0.050	0.190	0.750
2020/01/31 10:06:02.6	5.980	0.050	0.200	0.770
2020/01/31 10:06:02.7	5.880	0.050	0.210	0.780
2020/01/31 10:06:02.8	5.780	0.050	0.210	0.800
2020/01/31 10:06:02.9	5.680	0.050	0.210	0.810
2020/01/31 10:06:03.0	5.590	0.060	0.200	0.820
2020/01/31 10:06:03.1	5.500	0.070	0.190	0.820
2020/01/31 10:06:03.2	5.410	0.080	0.170	0.830
2020/01/31 10:06:03.3	5.320	0.090	0.150	0.830
2020/01/31 10:06:03.4	5.240	0.110	0.120	0.820
2020/01/31 10:06:03.5	5.160	0.120	0.090	0.810
2020/01/31 10:06:03.6	5.080	0.140	0.050	0.800
2020/01/31 10:06:03.7	5.010	0.170	0.010	0.790
2020/01/31 10:06:03.8	4.930	0.190	-0.040	0.780
2020/01/31 10:06:03.9	4.860	0.220	-0.080	0.760
2020/01/31 10:06:04.0	4.800	0.250	-0.130	0.740
2020/01/31 10:06:04.1	4.730	0.280	-0.180	0.720
2020/01/31 10:06:04.2	4.670	0.310	-0.240	0.700
2020/01/31 10:06:04.3	4.610	0.340	-0.290	0.670
2020/01/31 10:06:04.4	4.580	0.370	-0.350	0.650
2020/01/31 10:06:04.5	4.530	0.400	-0.410	0.620
2020/01/31 10:06:04.6	4.480	0.430	-0.460	0.590
2020/01/31 10:06:04.7	4.430	0.470	-0.520	0.550
2020/01/31 10:06:04.8	4.390	0.500	-0.570	0.520
2020/01/31 10:06:04.9	4.350	0.530	-0.620	0.480
2020/01/31 10:06:05.0	4.310	0.560	-0.670	0.450
2020/01/31 10:06:05.1	4.280	0.580	-0.720	0.410
2020/01/31 10:06:05.2	4.240	0.610	-0.760	0.370
2020/01/31 10:06:05.3	4.210	0.630	-0.800	0.330
2020/01/31 10:06:05.4	4.180	0.650	-0.830	0.300
2020/01/31 10:06:05.5	4.150	0.660	-0.860	0.260
2020/01/31 10:06:05.6	4.120	0.680	-0.880	0.220
2020/01/31 10:06:05.7	4.090	0.680	-0.900	0.190
2020/01/31 10:06:05.8	4.060	0.690	-0.910	0.150
2020/01/31 10:06:05.9	4.040	0.690	-0.910	0.120
2020/01/31 10:06:06.0	4.010	0.690	-0.910	0.090
2020/01/31 10:06:06.1	3.980	0.680	-0.900	0.060
2020/01/31 10:06:06.2	3.940	0.670	-0.880	0.040
2020/01/31 10:06:06.3	3.910	0.660	-0.850	0.010
2020/01/31 10:06:06.4	3.900	0.640	-0.820	-0.010
2020/01/31 10:06:06.5	3.860	0.610	-0.780	-0.030
2020/01/31 10:06:06.6	3.820	0.590	-0.730	-0.040
2020/01/31 10:06:06.7	3.770	0.550	-0.680	-0.060
2020/01/31 10:06:06.8	3.720	0.520	-0.630	-0.070
2020/01/31 10:06:06.9	3.660	0.480	-0.560	-0.080
2020/01/31 10:06:07.0	3.600	0.440	-0.490	-0.080
2020/01/31 10:06:07.1	3.540	0.390	-0.420	-0.080
2020/01/31 10:06:07.2	3.470	0.350	-0.350	-0.080
2020/01/31 10:06:07.3	3.400	0.300	-0.270	-0.080
2020/01/31 10:06:07.4	3.340	0.250	-0.190	-0.070
2020/01/31 10:06:07.5	3.260	0.190	-0.110	-0.060
2020/01/31 10:06:07.6	3.170	0.140	-0.020	-0.050
2020/01/31 10:06:07.7	3.090	0.080	0.060	-0.030
2020/01/31 10:06:07.8	3.000	0.020	0.150	-0.020
2020/01/31 10:06:07.9	2.910	-0.040	0.230	-0.000
2020/01/31 10:06:08.0	2.810	-0.100	0.310	0.010
2020/01/31 10:06:08.1	2.720	-0.160	0.390	0.030
2020/01/31 10:06:08.2	2.620	-0.210	0.470	0.050
2020/01/31 10:06:08.3	2.510	-0.270	0.540	0.070
2020/01/31 10:06:08.4	2.420	-0.330	0.610	0.090
2020/01/31 10:06:08.5	2.320	-0.380	0.670	0.100
2020/01/31 10:06:08.6	2.210	-0.430	0.730	0.120
2020/01/31 10:06:08.7	2.110	-0.480	0.780	0.140
2020/01/31 10:06:08.8	2.010	-0.530	0.830	0.160
2020/01/31 10:06:08.9	1.900	-0.580	0.870	0.170
2020/01/31 10:06:09.0	1.800	-0.620	0.910	0.190
2020/01/31 10:06:09.1	1.690	-0.650	0.940	0.200
2020/01/31 10:06:09.2	1.590	-0.690	0.960	0.210
2020/01/31 10:06:09.3	1.490	-0.720	0.970	0.230
2020/01/31 10:06:09.4	1.400	-0.740	0.980	0.240
2020/01/31 10:06:09.5	1.300	-0.770	0.980	0.250
2020/01/31 10:06:09.6	1.200	-0.780	0.980	0.260
2020/01/31 10:06:09.7	1.110	-0.800	0.970	0.270
2020/01/31 10:06:09.8	1.010	-0.800	0.950	0.280
2020/01/31 10:06:09.9	0.920	-0.810	0.930	0.290
2020/01/31 10:06:10.0	0.820	-0.800	0.900	0.310
2020/01/31 10:06:10.1	0.730	-0.800	0.870	0.320
2020/01/31 10:06:10.2	0.640	-0.790	0.840	0.330
2020/01/31 10:06:10.3	0.550	-0.770	0.790	0.350
2020/01/31 10:06:10.4	0.480	-0.750	0.750	0.360
2020/01/31 10:06:10.5	0.390	-0.730	0.700	0.380
2020/01/31 10:06:10.6	0.310	-0.700	0.650	0.390
2020/01/31 10:06:10.7	0.230	-0.670	0.590	0.410
2020/01/31 10:06:10.8	0.140	-0.640	0.540	0.430
2020/01/31 10:06:10.9	0.060	-0.600	0.480	0.450
2020/01/31 10:06:11.0	359.990	-0.560	0.410	0.470
2020/01/31 10:06:11.1	359.910	-0.520	0.350	0.490
2020/01/31 10:06:11.2	359.830	-0.480	0.290	0.510
2020/01/31 10:06:11.3	359.760	-0.430	0.220	0.530
2020/01/31 10:06:11.4	359.700	-0.390	0.160	0.560
2020/01/31 10:06:11.5	359.630	-0.340	0.090	0.580
2020/01/31 10:06:11.6	359.560	-0.300	0.030	0.600
2020/01/31 10:06:11.7	359.490	-0.250	-0.030	0.620
2020/01/31 10:06:11.8	359.420	-0.210	-0.090	0.640
2020/01/31 10:06:11.9	359.360	-0.170	-0.150	0.660
2020/01/31 10:06:12.0	359.290	-0.130	-0.200	0.670
2020/01/31 10:06:12.1	359.230	-0.090	-0.250	0.690
2020/01/31 10:06:12.2	359.170	-0.050	-0.300	0.700
2020/01/31 10:06:12.3	359.110	-0.010	-0.350	0.710
2020/01/31 10:06:12.4	359.050	0.020	-0.390	0.720
2020/01/31 10:06:12.5	359.000	0.050	-0.440	0.730
2020/01/31 10:06:12.6	358.940	0.080	-0.480	0.730
2020/01/31 10:06:12.7	358.890	0.100	-0.510	0.740
2020/01/31 10:06:12.8	358.840	0.120	-0.550	0.740
2020/01/31 10:06:12.9	358.800	0.140	-0.580	0.730
2020/01/31 10:06:13.0	358.750	0.160	-0.610	0.730
2020/01/31 10:06:13.1	358.710	0.170	-0.640	0.720
2020/01/31 10:06:13.2	358.670	0.180	-0.660	0.710
2020/01/31 10:06:13.3	358.620	0.190	-0.680	0.700
2020/01/31 10:06:13.4	358.580	0.190	-0.700	0.680
2020/01/31 10:06:13.5	358.540	0.190	-0.720	0.660
2020/01/31 10:06:13.6	358.500	0.190	-0.740	0.650
2020/01/31 10:06:13.7	358.460	0.190	-0.760	0.630
2020/01/31 10:06:13.8	358.420	0.190	-0.780	0.620
2020/01/31 10:06:13.9	358.380	0.180	-0.790	0.600
2020/01/31 10:06:14.0	358.330	0.170	-0.810	0.580
2020/01/31 10:06:14.1	358.290	0.160	-0.820	0.560
2020/01/31 10:06:14.2	358.250	0.150	-0.840	0.550
2020/01/31 10:06:14.3	358.200	0.140	-0.850	0.530
2020/01/31 10:06:14.4	358.140	0.130	-0.870	0.510
2020/01/31 10:06:14.5	358.100	0.120	-0.880	0.500
2020/01/31 10:06:14.6	358.050	0.110	-0.900	0.490
2020/01/31 10:06:14.7	358.000	0.100	-0.910	0.480
2020/01/31 10:06:14.8	357.940	0.100	-0.920	0.470
2020/01/31 10:06:14.9	357.890	0.090	-0.940	0.460
2020/01/31 10:06:15.0	357.830	0.080	-0.950	0.460
2020/01/31 10:06:15.1	357.780	0.080	-0.960	0.450
2020/01/31 10:06:15.2	357.720	0.080	-0.970	0.450
2020/01/31 10:06:15.3	357.650	0.070	-0.970	0.450
2020/01/31 10:06:15.4	357.580	0.070	-0.980	0.450
2020/01/31 10:06:15.5	357.510	0.080	-0.980	0.460
2020/01/31 10:06:15.6	357.440	0.080	-0.980	0.470
2020/01/31 10:06:15.7	357.370	0.090	-0.970	0.470
2020/01/31 10:06:15.8	357.300	0.090	-0.970	0.480
2020/01/31 10:06:15.9	357.230	0.100	-0.960	0.490
2020/01/31 10:06:16.0	357.150	0.110	-0.940	0.500
2020/01/31 10:06:16.1	357.080	0.120	-0.930	0.510
2020/01/31 10:06:16.2	357.000	0.140	-0.910	0.520
2020/01/31 10:06:16.3	356.920	0.150	-0.880	0.530
2020/01/31 10:06:16.4	356.840	0.160	-0.860	0.540
2020/01/31 10:06:16.5	356.760	0.180	-0.830	0.550
2020/01/31 10:06:16.6	356.680	0.190	-0.800	0.560
2020/01/31 10:06:16.7	356.600	0.200	-0.760	0.570
2020/01/31 10:06:16.8	356.520	0.220	-0.720	0.580
2020/01/31 10:06:16.9	356.440	0.230	-0.680	0.590
2020/01/31 10:06:17.0	356.360	0.240	-0.640	0.600
2020/01/31 10:06:17.1	356.280	0.250	-0.590	0.610
2020/01/31 10:06:17.2	356.200	0.260	-0.550	0.620
2020/01/31 10:06:17.3	356.120	0.270	-0.500	0.630
2020/01/31 10:06:17.4	356.040	0.280	-0.440	0.640
2020/01/31 10:06:17.5	355.960	0.290	-0.390	0.650
2020/01/31 10:06:17.6	355.880	0.290	-0.330	0.670
2020/01/31 10:06:17.7	355.800	0.300	-0.270	0.680
2020/01/31 10:06:17.8	355.720	0.300	-0.220	0.690
2020/01/31 10:06:17.9	355.640	0.300	-0.160	0.700
2020/01/31 10:06:18.0	355.560	0.300	-0.090	0.720
2020/01/31 10:06:18.1	355.490	0.300	-0.030	0.730
2020/01/31 10:06:18.2	355.410	0.300	0.030	0.750
2020/01/31 10:06:18.3	355.330	0.290	0.090	0.760
2020/01/31 10:06:18.4	355.230	0.290	0.150	0.780
2020/01/31 10:06:18.5	355.150	0.280	0.210	0.790
2020/01/31 10:06:18.6	355.070	0.270	0.270	0.800
2020/01/31 10:06:18.7	354.990	0.260	0.320	0.810
2020/01/31 10:06:18.8	354.920	0.260	0.370	0.820
2020/01/31 10:06:18.9	354.840	0.250	0.420	0.830
2020/01/31 10:06:19.0	354.770	0.240	0.470	0.840
2020/01/31 10:06:19.1	354.700	0.230	0.510	0.840
2020/01/31 10:06:19.2	354.620	0.220	0.550	0.840
2020/01/31 10:06:19.3	354.550	0.210	0.580	0.840
2020/01/31 10:06:19.4	354.470	0.200	0.610	0.830
2020/01/31 10:06:19.5	354.400	0.190	0.640	0.830
2020/01/31 10:06:19.6	354.330	0.180	0.660	0.820
2020/01/31 10:06:19.7	354.260	0.170	0.670	0.800
2020/01/31 10:06:19.8	354.190	0.170	0.680	0.790
2020/01/31 10:06:19.9	354.120	0.160	0.690	0.770
2020/01/31 10:06:20.0	354.050	0.150	0.700	0.750
2020/01/31 10:06:20.1	353.980	0.140	0.690	0.730
2020/01/31 10:06:20.2	353.910	0.140	0.690	0.710
2020/01/31 10:06:20.3	353.840	0.130	0.680	0.680
2020/01/31 10:06:20.4	353.780	0.120	0.670	0.660
2020/01/31 10:06:20.5	353.700	0.110	0.650	0.640
2020/01/31 10:06:20.6	353.630	0.110	0.630	0.620
2020/01/31 10:06:20.7	353.550	0.100	0.610	0.600
2020/01/31 10:06:20.8	353.460	0.090	0.590	0.580
2020/01/31 10:06:20.9	353.380	0.090	0.570	0.560
2020/01/31 10:06:21.0	353.290	0.080	0.540	0.550
2020/01/31 10:06:21.1	353.200	0.070	0.520	0.530
2020/01/31 10:06:21.2	353.110	0.070	0.490	0.520
2020/01/31 10:06:21.3	353.020	0.060	0.460	0.510
2020/01/31 10:06:21.4	352.920	0.050	0.440	0.510
2020/01/31 10:06:21.5	352.820	0.040	0.410	0.500
2020/01/31 10:06:21.6	352.730	0.040	0.380	0.500
2020/01/31 10:06:21.7	352.630	0.030	0.350	0.500
2020/01/31 10:06:21.8	352.530	0.020	0.310	0.490
2020/01/31 10:06:21.9	352.430	0.010	0.280	0.490
2020/01/31 10:06:22.0	352.340	-0.000	0.250	0.490
2020/01/31 10:06:22.1	352.240	-0.010	0.210	0.480
2020/01/31 10:06:22.2	352.150	-0.020	0.180	0.480
2020/01/31 10:06:22.3	352.060	-0.030	0.140	0.470
2020/01/31 10:06:22.4	351.950	-0.040	0.100	0.470
2020/01/31 10:06:22.5	351.860	-0.050	0.060	0.460
2020/01/31 10:06:22.6	351.780	-0.060	0.010	0.450
2020/01/31 10:06:22.7	351.700	-0.070	-0.030	0.430
2020/01/31 10:06:22.8	351.620	-0.080	-0.080	0.410
2020/01/31 10:06:22.9	351.540	-0.090	-0.130	0.390
2020/01/31 10:06:23.0	351.470	-0.090	-0.180	0.370
2020/01/31 10:06:23.1	351.400	-0.100	-0.230	0.340
2020/01/31 10:06:23.2	351.340	-0.110	-0.280	0.310
2020/01/31 10:06:23.3	351.280	-0.120	-0.330	0.280
2020/01/31 10:06:23.4	351.210	-0.120	-0.380	0.240
2020/01/31 10:06:23.5	351.160	-0.130	-0.430	0.200
2020/01/31 10:06:23.6	351.100	-0.130	-0.480	0.160
2020/01/31 10:06:23.7	351.050	-0.140	-0.530	0.110
2020/01/31 10:06:23.8	351.010	-0.140	-0.580	0.060
2020/01/31 10:06:23.9	350.960	-0.150	-0.620	0.020
2020/01/31 10:06:24.0	350.920	-0.150	-0.670	-0.040
2020/01/31 10:06:24.1	350.880	-0.150	-0.710	-0.090
2020/01/31 10:06:24.2	350.840	-0.160	-0.740	-0.140
2020/01/31 10:06:24.3	350.800	-0.160	-0.780	-0.190
2020/01/31 10:06:24.4	350.750	-0.160	-0.810	-0.240
2020/01/31 10:06:24.5	350.720	-0.170	-0.830	-0.300
2020/01/31 10:06:24.6	350.680	-0.170	-0.850	-0.350
2020/01/31 10:06:24.7	350.650	-0.170	-0.860	-0.390
2020/01/31 10:06:24.8	350.610	-0.170	-0.870	-0.440
2020/01/31 10:06:24.9	350.580	-0.180	-0.870	-0.480
2020/01/31 10:06:25.0	350.540	-0.180	-0.860	-0.520
2020/01/31 10:06:25.1	350.500	-0.190	-0.850	-0.550
2020/01/31 10:06:25.2	350.460	-0.190	-0.840	-0.580
2020/01/31 10:06:25.3	350.420	-0.200	-0.820	-0.600
2020/01/31 10:06:25.4	350.390	-0.200	-0.790	-0.620
2020/01/31 10:06:25.5	350.340	-0.210	-0.760	-0.640
2020/01/31 10:06:25.6	350.300	-0.210	-0.720	-0.640
2020/01/31 10:06:25.7	350.250	-0.220	-0.680	-0.650
2020/01/31 10:06:25.8	350.200	-0.220	-0.640	-0.640
2020/01/31 10:06:25.9	350.150	-0.230	-0.590	-0.640
2020/01/31 10:06:26.0	350.100	-0.240	-0.540	-0.620
2020/01/31 10:06:26.1	350.050	-0.240	-0.490	-0.610
2020/01/31 10:06:26.2	349.990	-0.250	-0.440	-0.590
2020/01/31 10:06:26.3	349.930	-0.260	-0.380	-0.560
2020/01/31 10:06:26.4	349.890	-0.260	-0.330	-0.520
2020/01/31 10:06:26.5	349.830	-0.270	-0.270	-0.490
2020/01/31 10:06:26.6	349.770	-0.270	-0.220	-0.460
2020/01/31 10:06:26.7	349.710	-0.280	-0.170	-0.420
2020/01/31 10:06:26.8	349.640	-0.280	-0.120	-0.380
2020/01/31 10:06:26.9	349.580	-0.280	-0.080	-0.340
2020/01/31 10:06:27.0	349.510	-0.290	-0.030	-0.290
2020/01/31 10:06:27.1	349.440	-0.290	0.010	-0.250
2020/01/31 10:06:27.2	349.370	-0.290	0.050	-0.200
2020/01/31 10:06:27.3	349.300	-0.290	0.080	-0.160
2020/01/31 10:06:27.4	349.240	-0.280	0.110	-0.110
2020/01/31 10:06:27.5	349.170	-0.280	0.130	-0.060
2020/01/31 10:06:27.6	349.100	-0.270	0.160	-0.010
2020/01/31 10:06:27.7	349.020	-0.260	0.180	0.040
2020/01/31 10:06:27.8	348.950	-0.250	0.190	0.090
2020/01/31 10:06:27.9	348.870	-0.240	0.210	0.140
2020/01/31 10:06:28.0	348.790	-0.230	0.210	0.190
2020/01/31 10:06:28.1	348.720	-0.220	0.220	0.250
2020/01/31 10:06:28.2	348.640	-0.200	0.220	0.300
2020/01/31 10:06:28.3	348.560	-0.180	0.220	0.360
2020/01/31 10:06:28.4	348.490	-0.170	0.220	0.410
2020/01/31 10:06:28.5	348.410	-0.150	0.220	0.470
2020/01/31 10:06:28.6	348.330	-0.120	0.210	0.520
2020/01/31 10:06:28.7	348.240	-0.100	0.200	0.580
2020/01/31 10:06:28.8	348.160	-0.080	0.180	0.640
2020/01/31 10:06:28.9	348.070	-0.060	0.170	0.700
2020/01/31 10:06:29.0	347.980	-0.030	0.160	0.760
2020/01/31 10:06:29.1	347.890	-0.010	0.140	0.820
2020/01/31 10:06:29.2	347.800	0.020	0.120	0.880
2020/01/31 10:06:29.3	347.710	0.040	0.110	0.950
2020/01/31 10:06:29.4	347.620	0.070	0.090	1.010
2020/01/31 10:06:29.5	347.520	0.090	0.070	1.070
2020/01/31 10:06:29.6	347.430	0.110	0.050	1.130
2020/01/31 10:06:29.7	347.330	0.140	0.030	1.190
2020/01/31 10:06:29.8	347.230	0.160	0.010	1.240
2020/01/31 10:06:29.9	347.130	0.180	-0.010	1.300
2020/01/31 10:06:30.0	347.040	0.200	-0.030	1.350
2020/01/31 10:06:30.1	346.940	0.220	-0.060	1.400
2020/01/31 10:06:30.2	346.840	0.230	-0.080	1.450
2020/01/31 10:06:30.3	346.750	0.250	-0.100	1.490
2020/01/31 10:06:30.4	346.650	0.260	-0.120	1.520
2020/01/31 10:06:30.5	346.550	0.280	-0.150	1.560
2020/01/31 10:06:30.6	346.460	0.290	-0.170	1.590
2020/01/31 10:06:30.7	346.370	0.300	-0.200	1.620
2020/01/31 10:06:30.8	346.290	0.300	-0.230	1.640
2020/01/31 10:06:30.9	346.200	0.310	-0.250	1.650
2020/01/31 10:06:31.0	346.130	0.310	-0.280	1.660
2020/01/31 10:06:31.1	346.050	0.320	-0.310	1.670
2020/01/31 10:06:31.2	345.980	0.320	-0.330	1.670
2020/01/31 10:06:31.3	345.910	0.320	-0.360	1.660
2020/01/31 10:06:31.4	345.870	0.320	-0.390	1.650
2020/01/31 10:06:31.5	345.800	0.310	-0.420	1.630
2020/01/31 10:06:31.6	345.740	0.310	-0.440	1.610
2020/01/31 10:06:31.7	345.690	0.300	-0.470	1.580
2020/01/31 10:06:31.8	345.640	0.300	-0.490	1.560
2020/01/31 10:06:31.9	345.590	0.290	-0.510	1.520
2020/01/31 10:06:32.0	345.540	0.280	-0.530	1.490
2020/01/31 10:06:32.1	345.490	0.280	-0.550	1.450
2020/01/31 10:06:32.2	345.440	0.270	-0.560	1.410
2020/01/31 10:06:32.3	345.400	0.260	-0.570	1.370
2020/01/31 10:06:32.4	345.380	0.250	-0.580	1.320
2020/01/31 10:06:32.5	345.340	0.240	-0.580	1.280
2020/01/31 10:06:32.6	345.300	0.230	-0.590	1.230
2020/01/31 10:06:32.7	345.250	0.230	-0.580	1.180
2020/01/31 10:06:32.8	345.200	0.220	-0.580	1.140
2020/01/31 10:06:32.9	345.160	0.210	-0.570	1.090
2020/01/31 10:06:33.0	345.110	0.200	-0.550	1.040
2020/01/31 10:06:33.1	345.060	0.190	-0.530	1.000
2020/01/31 10:06:33.2	345.010	0.190	-0.510	0.950
2020/01/31 10:06:33.3	344.960	0.180	-0.490	0.900
2020/01/31 10:06:33.4	344.900	0.170	-0.460	0.860
2020/01/31 10:06:33.5	344.850	0.160	-0.440	0.810
2020/01/31 10:06:33.6	344.790	0.160	-0.400	0.770
2020/01/31 10:06:33.7	344.730	0.150	-0.370	0.730
2020/01/31 10:06:33.8	344.670	0.140	-0.330	0.690
2020/01/31 10:06:33.9	344.610	0.140	-0.300	0.640
2020/01/31 10:06:34.0	344.540	0.130	-0.260	0.600
2020/01/31 10:06:34.1	344.470	0.120	-0.220	0.560
2020/01/31 10:06:34.2	344.400	0.110	-0.180	0.530
2020/01/31 10:06:34.3	344.330	0.110	-0.140	0.490
2020/01/31 10:06:34.4	344.260	0.100	-0.100	0.450
2020/01/31 10:06:34.5	344.180	0.090	-0.060	0.410
2020/01/31 10:06:34.6	344.110	0.080	-0.020	0.380
2020/01/31 10:06:34.7	344.030	0.070	0.010	0.340
2020/01/31 10:06:34.8	343.960	0.060	0.050	0.310
2020/01/31 10:06:34.9	343.880	0.050	0.080	0.280
2020/01/31 10:06:35.0	343.800	0.030	0.120	0.240
2020/01/31 10:06:35.1	343.720	0.020	0.150	0.210
2020/01/31 10:06:35.2	343.650	0.010	0.170	0.180
2020/01/31 10:06:35.3	343.570	-0.010	0.200	0.150
2020/01/31 10:06:35.4	343.490	-0.020	0.210	0.120
2020/01/31 10:06:35.5	343.420	-0.040	0.230	0.090
2020/01/31 10:06:35.6	343.340	-0.050	0.240	0.060
2020/01/31 10:06:35.7	343.260	-0.070	0.250	0.030
2020/01/31 10:06:35.8	343.190	-0.080	0.250	0.000
2020/01/31 10:06:35.9	343.110	-0.100	0.260	-0.020
2020/01/31 10:06:36.0	343.040	-0.110	0.250	-0.050
2020/01/31 10:06:36.1	342.970	-0.130	0.250	-0.080
2020/01/31 10:06:36.2	342.890	-0.140	0.230	-0.100
2020/01/31 10:06:36.3	342.820	-0.160	0.220	-0.130
2020/01/31 10:06:36.4	342.750	-0.170	0.200	-0.160
2020/01/31 10:06:36.5	342.680	-0.180	0.180	-0.190
2020/01/31 10:06:36.6	342.610	-0.190	0.150	-0.210
2020/01/31 10:06:36.7	342.550	-0.200	0.120	-0.240
2020/01/31 10:06:36.8	342.480	-0.210	0.090	-0.260
2020/01/31 10:06:36.9	342.410	-0.220	0.060	-0.290
2020/01/31 10:06:37.0	342.350	-0.230	0.030	-0.320
2020/01/31 10:06:37.1	342.280	-0.240	-0.010	-0.350
2020/01/31 10:06:37.2	342.220	-0.240	-0.040	-0.370
2020/01/31 10:06:37.3	342.160	-0.250	-0.080	-0.400
2020/01/31 10:06:37.4	342.110	-0.250	-0.110	-0.430
2020/01/31 10:06:37.5	342.050	-0.250	-0.150	-0.460
2020/01/31 10:06:37.6	341.990	-0.250	-0.180	-0.480
2020/01/31 10:06:37.7	341.940	-0.250	-0.220	-0.510
2020/01/31 10:06:37.8	341.880	-0.250	-0.250	-0.540
2020/01/31 10:06:37.9	341.830	-0.240	-0.280	-0.560
2020/01/31 10:06:38.0	341.770	-0.240	-0.310	-0.590
2020/01/31 10:06:38.1	341.720	-0.240	-0.340	-0.610
2020/01/31 10:06:38.2	341.670	-0.230	-0.360	-0.630
2020/01/31 10:06:38.3	341.610	-0.230	-0.380	-0.650
2020/01/31 10:06:38.4	341.550	-0.220	-0.390	-0.670
2020/01/31 10:06:38.5	341.490	-0.210	-0.400	-0.680
2020/01/31 10:06:38.6	341.440	-0.210	-0.410	-0.690
2020/01/31 10:06:38.7	341.380	-0.200	-0.410	-0.700
2020/01/31 10:06:38.8	341.320	-0.190	-0.400	-0.700
2020/01/31 10:06:38.9	341.260	-0.180	-0.390	-0.700
2020/01/31 10:06:39.0	341.190	-0.180	-0.380	-0.690
2020/01/31 10:06:39.1	341.130	-0.170	-0.360	-0.680
2020/01/31 10:06:39.2	341.060	-0.160	-0.330	-0.660
2020/01/31 10:06:39.3	340.990	-0.150	-0.310	-0.640
2020/01/31 10:06:39.4	340.930	-0.140	-0.270	-0.610
2020/01/31 10:06:39.5	340.860	-0.140	-0.240	-0.580
2020/01/31 10:06:39.6	340.780	-0.130	-0.200	-0.550
2020/01/31 10:06:39.7	340.710	-0.120	-0.160	-0.500
2020/01/31 10:06:39.8	340.630	-0.110	-0.110	-0.460
2020/01/31 10:06:39.9	340.550	-0.100	-0.070	-0.410
2020/01/31 10:06:40.0	340.470	-0.090	-0.020	-0.360
2020/01/31 10:06:40.1	340.390	-0.090	0.020	-0.300
2020/01/31 10:06:40.2	340.310	-0.080	0.070	-0.240
2020/01/31 10:06:40.3	340.220	-0.070	0.110	-0.180
2020/01/31 10:06:40.4	340.150	-0.060	0.150	-0.110
2020/01/31 10:06:40.5	340.070	-0.050	0.190	-0.040
2020/01/31 10:06:40.6	339.980	-0.040	0.220	0.020
2020/01/31 10:06:40.7	339.900	-0.030	0.250	0.090
2020/01/31 10:06:40.8	339.810	-0.020	0.280	0.160
2020/01/31 10:06:40.9	339.730	-0.010	0.300	0.230
2020/01/31 10:06:41.0	339.640	0.000	0.320	0.300
2020/01/31 10:06:41.1	339.550	0.010	0.330	0.370
2020/01/31 10:06:41.2	339.470	0.020	0.340	0.440
2020/01/31 10:06:41.3	339.380	0.030	0.340	0.510
2020/01/31 10:06:41.4	339.270	0.040	0.340	0.570
2020/01/31 10:06:41.5	339.190	0.050	0.330	0.630
2020/01/31 10:06:41.6	339.100	0.070	0.320	0.690
2020/01/31 10:06:41.7	339.010	0.080	0.300	0.750
2020/01/31 10:06:41.8	338.920	0.090	0.280	0.810
2020/01/31 10:06:41.9	338.830	0.100	0.250	0.860
2020/01/31 10:06:42.0	338.740	0.110	0.220	0.910
2020/01/31 10:06:42.1	338.650	0.120	0.180	0.960
2020/01/31 10:06:42.2	338.560	0.130	0.140	1.000
2020/01/31 10:06:42.3	338.470	0.130	0.090	1.040
2020/01/31 10:06:42.4	338.380	0.140	0.040	1.070
2020/01/31 10:06:42.5	338.290	0.150	-0.010	1.100
2020/01/31 10:06:42.6	338.210	0.160	-0.070	1.130
2020/01/31 10:06:42.7	338.130	0.160	-0.120	1.150
2020/01/31 10:06:42.8	338.050	0.170	-0.180	1.170
2020/01/31 10:06:42.9	337.970	0.170	-0.250	1.180
2020/01/31 10:06:43.0	337.900	0.180	-0.310	1.190
2020/01/31 10:06:43.1	337.830	0.180	-0.380	1.190
2020/01/31 10:06:43.2	337.760	0.180	-0.450	1.190
2020/01/31 10:06:43.3	337.700	0.180	-0.520	1.180
2020/01/31 10:06:43.4	337.640	0.180	-0.580	1.170
2020/01/31 10:06:43.5	337.590	0.180	-0.650	1.160
2020/01/31 10:06:43.6	337.530	0.180	-0.720	1.140
2020/01/31 10:06:43.7	337.480	0.180	-0.780	1.120
2020/01/31 10:06:43.8	337.430	0.170	-0.850	1.090
2020/01/31 10:06:43.9	337.390	0.170	-0.910	1.060
2020/01/31 10:06:44.0	337.350	0.160	-0.960	1.020
2020/01/31 10:06:44.1	337.310	0.160	-1.010	0.980
2020/01/31 10:06:44.2	337.270	0.150	-1.060	0.940
2020/01/31 10:06:44.3	337.230	0.140	-1.100	0.900
2020/01/31 10:06:44.4	337.180	0.130	-1.140	0.850
2020/01/31 10:06:44.5	337.150	0.120	-1.170	0.810
2020/01/31 10:06:44.6	337.120	0.110	-1.190	0.760
2020/01/31 10:06:44.7	337.090	0.100	-1.210	0.710
2020/01/31 10:06:44.8	337.060	0.080	-1.220	0.660
2020/01/31 10:06:44.9	337.030	0.070	-1.220	0.610
2020/01/31 10:06:45.0	337.000	0.060	-1.210	0.560
2020/01/31 10:06:45.1	336.970	0.040	-1.200	0.510
2020/01/31 10:06:45.2	336.940	0.030	-1.170	0.460
2020/01/31 10:06:45.3	336.910	0.010	-1.140	0.410
2020/01/31 10:06:45.4	336.870	-0.000	-1.110	0.360
2020/01/31 10:06:45.5	336.830	-0.020	-1.060	0.310
2020/01/31 10:06:45.6	336.800	-0.040	-1.010	0.260
2020/01/31 10:06:45.7	336.770	-0.060	-0.940	0.220
2020/01/31 10:06:45.8	336.730	-0.070	-0.880	0.180
2020/01/31 10:06:45.9	336.690	-0.090	-0.800	0.140
2020/01/31 10:06:46.0	336.650	-0.110	-0.720	0.100
2020/01/31 10:06:46.1	336.610	-0.130	-0.630	0.060
2020/01/31 10:06:46.2	336.570	-0.140	-0.540	0.030
2020/01/31 10:06:46.3	336.530	-0.160	-0.440	0.000
2020/01/31 10:06:46.4	336.470	-0.180	-0.330	-0.020
2020/01/31 10:06:46.5	336.420	-0.200	-0.230	-0.040
2020/01/31 10:06:46.6	336.370	-0.210	-0.120	-0.060
2020/01/31 10:06:46.7	336.310	-0.230	-0.010	-0.070
2020/01/31 10:06:46.8	336.250	-0.240	0.110	-0.080
2020/01/31 10:06:46.9	336.190	-0.260	0.220	-0.080
2020/01/31 10:06:47.0	336.130	-0.270	0.330	-0.080
2020/01/31 10:06:47.1	336.060	-0.280	0.440	-0.080
2020/01/31 10:06:47.2	335.990	-0.290	0.550	-0.070
2020/01/31 10:06:47.3	335.910	-0.300	0.660	-0.050
2020/01/31 10:06:47.4	335.830	-0.310	0.760	-0.030
2020/01/31 10:06:47.5	335.740	-0.320	0.860	-0.010
2020/01/31 10:06:47.6	335.660	-0.320	0.950	0.020
2020/01/31 10:06:47.7	335.570	-0.320	1.030	0.040
2020/01/31 10:06:47.8	335.470	-0.330	1.110	0.080
2020/01/31 10:06:47.9	335.380	-0.330	1.180	0.110
2020/01/31 10:06:48.0	335.280	-0.330	1.230	0.140
2020/01/31 10:06:48.1	335.180	-0.320	1.280	0.180
2020/01/31 10:06:48.2	335.070	-0.320	1.320	0.210
2020/01/31 10:06:48.3	334.960	-0.310	1.350	0.250
2020/01/31 10:06:48.4	334.850	-0.300	1.360	0.280
2020/01/31 10:06:48.5	334.740	-0.290	1.360	0.310
2020/01/31 10:06:48.6	334.630	-0.280	1.350	0.340
2020/01/31 10:06:48.7	334.520	-0.260	1.330	0.370
2020/01/31 10:06:48.8	334.400	-0.250	1.300	0.390
2020/01/31 10:06:48.9	334.290	-0.230	1.250	0.410
2020/01/31 10:06:49.0	334.180	-0.210	1.200	0.430
2020/01/31 10:06:49.1	334.070	-0.180	1.130	0.440
2020/01/31 10:06:49.2	333.960	-0.160	1.050	0.450
2020/01/31 10:06:49.3	333.860	-0.130	0.970	0.460
2020/01/31 10:06:49.4	333.750	-0.110	0.880	0.460
2020/01/31 10:06:49.5	333.640	-0.080	0.770	0.460
2020/01/31 10:06:49.6	333.540	-0.050	0.660	0.460
2020/01/31 10:06:49.7	333.440	-0.020	0.550	0.450
2020/01/31 10:06:49.8	333.330	0.020	0.430	0.450
2020/01/31 10:06:49.9	333.230	0.050	0.300	0.440
2020/01/31 10:06:50.0	333.140	0.080	0.170	0.430
2020/01/31 10:06:50.1	333.040	0.120	0.040	0.420
2020/01/31 10:06:50.2	332.950	0.150	-0.080	0.400
2020/01/31 10:06:50.3	332.850	0.180	-0.210	0.390
2020/01/31 10:06:50.4	332.750	0.220	-0.340	0.370
2020/01/31 10:06:50.5	332.660	0.250	-0.470	0.350
2020/01/31 10:06:50.6	332.580	0.280	-0.590	0.330
2020/01/31 10:06:50.7	332.500	0.310	-0.710	0.310
2020/01/31 10:06:50.8	332.420	0.340	-0.820	0.290
2020/01/31 10:06:50.9	332.350	0.360	-0.930	0.270
2020/01/31 10:06:51.0	332.280	0.390	-1.030	0.240
2020/01/31 10:06:51.1	332.210	0.410	-1.130	0.220
2020/01/31 10:06:51.2	332.140	0.430	-1.210	0.200
2020/01/31 10:06:51.3	332.080	0.450	-1.290	0.170
2020/01/31 10:06:51.4	332.020	0.460	-1.360	0.150
2020/01/31 10:06:51.5	331.970	0.470	-1.420	0.130
2020/01/31 10:06:51.6	331.920	0.480	-1.470	0.110
2020/01/31 10:06:51.7	331.880	0.490	-1.510	0.090
2020/01/31 10:06:51.8	331.830	0.490	-1.540	0.070
2020/01/31 10:06:51.9	331.790	0.490	-1.570	0.050
2020/01/31 10:06:52.0	331.760	0.480	-1.580	0.030
2020/01/31 10:06:52.1	331.720	0.480	-1.590	0.010
2020/01/31 10:06:52.2	331.690	0.460	-1.580	-0.010
2020/01/31 10:06:52.3	331.660	0.450	-1.570	-0.020
2020/01/31 10:06:52.4	331.640	0.430	-1.550	-0.040
2020/01/31 10:06:52.5	331.620	0.410	-1.510	-0.050
2020/01/31 10:06:52.6	331.590	0.390	-1.470	-0.070
2020/01/31 10:06:52.7	331.570	0.370	-1.430	-0.080
2020/01/31 10:06:52.8	331.540	0.340	-1.370	-0.090
2020/01/31 10:06:52.9	331.520	0.310	-1.310	-0.100
2020/01/31 10:06:53.0	331.500	0.280	-1.240	-0.100
2020/01/31 10:06:53.1	331.470	0.240	-1.170	-0.110
2020/01/31 10:06:53.2	331.450	0.210	-1.080	-0.110
2020/01/31 10:06:53.3	331.420	0.170	-1.000	-0.110
2020/01/31 10:06:53.4	331.390	0.130	-0.910	-0.110
2020/01/31 10:06:53.5	331.350	0.090	-0.810	-0.110
2020/01/31 10:06:53.6	331.320	0.050	-0.710	-0.100
2020/01/31 10:06:53.7	331.280	0.010	-0.610	-0.100
2020/01/31 10:06:53.8	331.240	-0.030	-0.510	-0.090
2020/01/31 10:06:53.9	331.200	-0.070	-0.400	-0.080
2020/01/31 10:06:54.0	331.150	-0.110	-0.300	-0.070
2020/01/31 10:06:54.1	331.100	-0.150	-0.200	-0.060
2020/01/31 10:06:54.2	331.050	-0.190	-0.090	-0.040
2020/01/31 10:06:54.3	330.990	-0.230	0.010	-0.030
2020/01/31 10:06:54.4	330.920	-0.270	0.100	-0.010
2020/01/31 10:06:54.5	330.850	-0.300	0.200	0.010
2020/01/31 10:06:54.6	330.790	-0.340	0.290	0.020
2020/01/31 10:06:54.7	330.710	-0.370	0.370	0.040
2020/01/31 10:06:54.8	330.640	-0.400	0.450	0.060
2020/01/31 10:06:54.9	330.570	-0.430	0.530	0.070
2020/01/31 10:06:55.0	330.490	-0.460	0.590	0.090
2020/01/31 10:06:55.1	330.410	-0.480	0.650	0.100
2020/01/31 10:06:55.2	330.330	-0.500	0.710	0.110
2020/01/31 10:06:55.3	330.250	-0.520	0.750	0.120
2020/01/31 10:06:55.4	330.180	-0.540	0.790	0.130
2020/01/31 10:06:55.5	330.090	-0.550	0.820	0.140
2020/01/31 10:06:55.6	330.000	-0.560	0.840	0.150
2020/01/31 10:06:55.7	329.920	-0.570	0.860	0.160
2020/01/31 10:06:55.8	329.830	-0.580	0.870	0.160
2020/01/31 10:06:55.9	329.740	-0.580	0.870	0.160
2020/01/31 10:06:56.0	329.650	-0.570	0.860	0.170
2020/01/31 10:06:56.1	329.560	-0.570	0.850	0.170
2020/01/31 10:06:56.2	329.470	-0.560	0.830	0.180
2020/01/31 10:06:56.3	329.380	-0.550	0.810	0.180
2020/01/31 10:06:56.4	329.290	-0.540	0.780	0.190
2020/01/31 10:06:56.5	329.200	-0.520	0.740	0.190
2020/01/31 10:06:56.6	329.100	-0.500	0.710	0.200
2020/01/31 10:06:56.7	329.010	-0.480	0.670	0.210
2020/01/31 10:06:56.8	328.920	-0.460	0.620	0.220
2020/01/31 10:06:56.9	328.830	-0.430	0.580	0.240
2020/01/31 10:06:57.0	328.730	-0.400	0.530	0.250
2020/01/31 10:06:57.1	328.640	-0.370	0.480	0.270
2020/01/31 10:06:57.2	328.550	-0.340	0.420	0.290
2020/01/31 10:06:57.3	328.460	-0.310	0.370	0.310
2020/01/31 10:06:57.4	328.380	-0.270	0.310	0.330
2020/01/31 10:06:57.5	328.290	-0.240	0.260	0.350
2020/01/31 10:06:57.6	328.200	-0.200	0.210	0.380
2020/01/31 10:06:57.7	328.110	-0.170	0.150	0.410
2020/01/31 10:06:57.8	328.030	-0.130	0.100	0.440
2020/01/31 10:06:57.9	327.940	-0.090	0.040	0.470
2020/01/31 10:06:58.0	327.860	-0.060	-0.010	0.500
2020/01/31 10:06:58.1	327.780	-0.020	-0.070	0.530
2020/01/31 10:06:58.2	327.700	0.010	-0.120	0.560
2020/01/31 10:06:58.3	327.620	0.040	-0.170	0.590
2020/01/31 10:06:58.4	327.550	0.080	-0.220	0.630
2020/01/31 10:06:58.5	327.470	0.110	-0.260	0.660
2020/01/31 10:06:58.6	327.400	0.140	-0.310	0.700
2020/01/31 10:06:58.7	327.330	0.170	-0.350	0.730
2020/01/31 10:06:58.8	327.250	0.190	-0.400	0.760
2020/01/31 10:06:58.9	327.180	0.220	-0.440	0.800
2020/01/31 10:06:59.0	327.110	0.240	-0.470	0.830
2020/01/31 10:06:59.1	327.040	0.260	-0.510	0.860
2020/01/31 10:06:59.2	326.980	0.280	-0.540	0.890
2020/01/31 10:06:59.3	326.910	0.300	-0.570	0.920
2020/01/31 10:06:59.4	326.850	0.310	-0.600	0.950
2020/01/31 10:06:59.5	326.790	0.330	-0.630	0.970
2020/01/31 10:06:59.6	326.730	0.340	-0.650	1.000
2020/01/31 10:06:59.7	326.670	0.350	-0.670	1.020
2020/01/31 10:06:59.8	326.610	0.360	-0.690	1.040
2020/01/31 10:06:59.9	326.560	0.370	-0.700	1.060
2020/01/31 10:07:00.0	326.500	0.370	-0.710	1.070
2020/01/31 10:07:00.1	326.440	0.380	-0.720	1.090
2020/01/31 10:07:00.2	326.390	0.380	-0.730	1.100
2020/01/31 10:07:00.3	326.330	0.380	-0.730	1.110
2020/01/31 10:07:00.4	326.280	0.380	-0.730	1.110
2020/01/31 10:07:00.5	326.220	0.380	-0.730	1.120
2020/01/31 10:07:00.6	326.160	0.380	-0.720	1.120
2020/01/31 10:07:00.7	326.110	0.380	-0.710	1.130
2020/01/31 10:07:00.8	326.050	0.370	-0.700	1.130
2020/01/31 10:07:00.9	325.990	0.370	-0.680	1.130
2020/01/31 10:07:01.0	325.930	0.370	-0.660	1.130
2020/01/31 10:07:01.1	325.860	0.360	-0.640	1.130
2020/01/31 10:07:01.2	325.800	0.350	-0.610	1.130
2020/01/31 10:07:01.3	325.740	0.350	-0.580	1.130
2020/01/31 10:07:01.4	325.680	0.340	-0.550	1.130
2020/01/31 10:07:01.5	325.610	0.330	-0.520	1.120
2020/01/31 10:07:01.6	325.540	0.320	-0.490	1.120
2020/01/31 10:07:01.7	325.470	0.310	-0.450	1.110
2020/01/31 10:07:01.8	325.410	0.300	-0.410	1.100
2020/01/31 10:07:01.9	325.340	0.290	-0.370	1.100
2020/01/31 10:07:02.0	325.270	0.280	-0.330	1.080
2020/01/31 10:07:02.1	325.200	0.260	-0.290	1.070
2020/01/31 10:07:02.2	325.130	0.250	-0.250	1.060
2020/01/31 10:07:02.3	325.050	0.230	-0.210	1.040
2020/01/31 10:07:02.4	324.990	0.220	-0.170	1.020
2020/01/31 10:07:02.5	324.920	0.200	-0.130	1.000
2020/01/31 10:07:02.6	324.850	0.180	-0.100	0.970
2020/01/31 10:07:02.7	324.780	0.160	-0.060	0.940
2020/01/31 10:07:02.8	324.710	0.140	-0.030	0.910
2020/01/31 10:07:02.9	324.650	0.120	0.000	0.880
2020/01/31 10:07:03.0	324.580	0.100	0.030	0.840
2020/01/31 10:07:03.1	324.510	0.080	0.060	0.810
2020/01/31 10:07:03.2	324.440	0.060	0.080	0.770
2020/01/31 10:07:03.3	324.370	0.040	0.110	0.730
2020/01/31 10:07:03.4	324.310	0.010	0.120	0.680
2020/01/31 10:07:03.5	324.240	-0.010	0.140	0.640
2020/01/31 10:07:03.6	324.170	-0.030	0.160	0.600
2020/01/31 10:07:03.7	324.100	-0.060	0.170	0.550
2020/01/31 10:07:03.8	324.030	-0.080	0.180	0.510
2020/01/31 10:07:03.9	323.960	-0.110	0.190	0.470
2020/01/31 10:07:04.0	323.890	-0.130	0.200	0.430
2020/01/31 10:07:04.1	323.820	-0.150	0.200	0.390
2020/01/31 10:07:04.2	323.750	-0.180	0.200	0.350
2020/01/31 10:07:04.3	323.680	-0.200	0.200	0.310
2020/01/31 10:07:04.4	323.610	-0.220	0.200	0.270
2020/01/31 10:07:04.5	323.540	-0.240	0.200	0.230
2020/01/31 10:07:04.6	323.470	-0.260	0.190	0.190
2020/01/31 10:07:04.7	323.400	-0.280	0.180	0.160
2020/01/31 10:07:04.8	323.330	-0.290	0.170	0.120
2020/01/31 10:07:04.9	323.270	-0.310	0.150	0.080
2020/01/31 10:07:05.0	323.200	-0.320	0.130	0.050
2020/01/31 10:07:05.1	323.130	-0.340	0.120	0.010
2020/01/31 10:07:05.2	323.060	-0.350	0.100	-0.030
2020/01/31 10:07:05.3	323.000	-0.360	0.070	-0.060
2020/01/31 10:07:05.4	322.960	-0.370	0.050	-0.100
2020/01/31 10:07:05.5	322.890	-0.370	0.030	-0.130
2020/01/31 10:07:05.6	322.820	-0.380	0.000	-0.160
2020/01/31 10:07:05.7	322.760	-0.380	-0.020	-0.190
2020/01/31 10:07:05.8	322.690	-0.380	-0.050	-0.220
2020/01/31 10:07:05.9	322.620	-0.380	-0.070	-0.250
2020/01/31 10:07:06.0	322.560	-0.380	-0.100	-0.270
2020/01/31 10:07:06.1	322.490	-0.380	-0.120	-0.290
2020/01/31 10:07:06.2	322.420	-0.380	-0.150	-0.310
2020/01/31 10:07:06.3	322.360	-0.370	-0.170	-0.330
2020/01/31 10:07:06.4	322.310	-0.360	-0.190	-0.350
2020/01/31 10:07:06.5	322.240	-0.360	-0.210	-0.360
2020/01/31 10:07:06.6	322.170	-0.350	-0.220	-0.370
2020/01/31 10:07:06.7	322.100	-0.340	-0.240	-0.380
2020/01/31 10:07:06.8	322.040	-0.320	-0.250	-0.380
2020/01/31 10:07:06.9	321.970	-0.310	-0.260	-0.390
2020/01/31 10:07:07.0	321.900	-0.300	-0.270	-0.390
2020/01/31 10:07:07.1	321.830	-0.280	-0.270	-0.380
2020/01/31 10:07:07.2	321.760	-0.270	-0.280	-0.380
2020/01/31 10:07:07.3	321.690	-0.250	-0.280	-0.370
2020/01/31 10:07:07.4	321.610	-0.230	-0.280	-0.360
2020/01/31 10:07:07.5	321.530	-0.210	-0.280	-0.350
2020/01/31 10:07:07.6	321.460	-0.190	-0.270	-0.340
2020/01/31 10:07:07.7	321.390	-0.170	-0.270	-0.320
2020/01/31 10:07:07.8	321.310	-0.150	-0.260	-0.310
2020/01/31 10:07:07.9	321.240	-0.130	-0.260	-0.290
2020/01/31 10:07:08.0	321.160	-0.110	-0.250	-0.270
2020/01/31 10:07:08.1	321.080	-0.090	-0.240	-0.250
2020/01/31 10:07:08.2	321.010	-0.070	-0.230	-0.240
2020/01/31 10:07:08.3	320.930	-0.050	-0.220	-0.220
2020/01/31 10:07:08.4	320.850	-0.020	-0.220	-0.200
2020/01/31 10:07:08.5	320.770	-0.000	-0.210	-0.180
2020/01/31 10:07:08.6	320.690	0.020	-0.200	-0.150
2020/01/31 10:07:08.7	320.610	0.040	-0.190	-0.130
2020/01/31 10:07:08.8	320.530	0.060	-0.190	-0.110
2020/01/31 10:07:08.9	320.450	0.090	-0.180	-0.080
2020/01/31 10:07:09.0	320.370	0.110	-0.180	-0.060
2020/01/31 10:07:09.1	320.300	0.130	-0.170	-0.030
2020/01/31 10:07:09.2	320.210	0.150	-0.170	-0.010
2020/01/31 10:07:09.3	320.130	0.170	-0.170	0.020
2020/01/31 10:07:09.4	320.070	0.180	-0.170	0.050
2020/01/31 10:07:09.5	319.990	0.200	-0.160	0.080
2020/01/31 10:07:09.6	319.910	0.220	-0.160	0.110
2020/01/31 10:07:09.7	319.830	0.230	-0.160	0.140
2020/01/31 10:07:09.8	319.750	0.250	-0.160	0.180
2020/01/31 10:07:09.9	319.670	0.260	-0.170	0.210
2020/01/31 10:07:10.0	319.590	0.270	-0.170	0.240
2020/01/31 10:07:10.1	319.510	0.280	-0.170	0.270
2020/01/31 10:07:10.2	319.440	0.290	-0.180	0.310
2020/01/31 10:07:10.3	319.360	0.300	-0.180	0.340
2020/01/31 10:07:10.4	319.290	0.300	-0.190	0.370
2020/01/31 10:07:10.5	319.220	0.310	-0.200	0.410
2020/01/31 10:07:10.6	319.150	0.310	-0.210	0.440
2020/01/31 10:07:10.7	319.080	0.310	-0.210	0.470
2020/01/31 10:07:10.8	319.010	0.310	-0.220	0.500
2020/01/31 10:07:10.9	318.950	0.310	-0.240	0.530
2020/01/31 10:07:11.0	318.890	0.310	-0.250	0.560
2020/01/31 10:07:11.1	318.820	0.310	-0.260	0.590
2020/01/31 10:07:11.2	318.770	0.300	-0.270	0.620
2020/01/31 10:07:11.3	318.710	0.300	-0.290	0.640
2020/01/31 10:07:11.4	318.650	0.290	-0.300	0.670
2020/01/31 10:07:11.5	318.600	0.280	-0.310	0.690
2020/01/31 10:07:11.6	318.540	0.270	-0.330	0.710
2020/01/31 10:07:11.7	318.490	0.260	-0.340	0.730
2020/01/31 10:07:11.8	318.440	0.250	-0.350	0.750
2020/01/31 10:07:11.9	318.380	0.240	-0.360	0.770
2020/01/31 10:07:12.0	318.330	0.230	-0.370	0.790
2020/01/31 10:07:12.1	318.280	0.210	-0.370	0.810
2020/01/31 10:07:12.2	318.220	0.200	-0.380	0.830
2020/01/31 10:07:12.3	318.160	0.180	-0.380	0.850
2020/01/31 10:07:12.4	318.090	0.170	-0.370	0.860
2020/01/31 10:07:12.5	318.030	0.150	-0.370	0.880
2020/01/31 10:07:12.6	317.970	0.130	-0.360	0.900
2020/01/31 10:07:12.7	317.910	0.110	-0.350	0.920
2020/01/31 10:07:12.8	317.840	0.090	-0.340	0.940
2020/01/31 10:07:12.9	317.780	0.070	-0.330	0.960
2020/01/31 10:07:13.0	317.710	0.060	-0.310	0.980
2020/01/31 10:07:13.1	317.630	0.040	-0.290	1.000
2020/01/31 10:07:13.2	317.560	0.020	-0.260	1.020
2020/01/31 10:07:13.3	317.480	-0.010	-0.240	1.040
2020/01/31 10:07:13.4	317.400	-0.030	-0.210	1.060
2020/01/31 10:07:13.5	317.320	-0.050	-0.180	1.080
2020/01/31 10:07:13.6	317.240	-0.070	-0.140	1.100
2020/01/31 10:07:13.7	317.160	-0.090	-0.110	1.120
2020/01/31 10:07:13.8	317.070	-0.110	-0.080	1.140
2020/01/31 10:07:13.9	316.980	-0.120	-0.050	1.160
2020/01/31 10:07:14.0	316.900	-0.140	-0.010	1.180
2020/01/31 10:07:14.1	316.810	-0.160	0.020	1.190
2020/01/31 10:07:14.2	316.720	-0.180	0.040	1.200
2020/01/31 10:07:14.3	316.640	-0.190	0.070	1.210
2020/01/31 10:07:14.4	316.530	-0.210	0.090	1.220
2020/01/31 10:07:14.5	316.440	-0.220	0.110	1.220
2020/01/31 10:07:14.6	316.360	-0.230	0.130	1.220
2020/01/31 10:07:14.7	316.280	-0.240	0.140	1.220
2020/01/31 10:07:14.8	316.200	-0.250	0.150	1.210
2020/01/31 10:07:14.9	316.120	-0.260	0.150	1.200
2020/01/31 10:07:15.0	316.040	-0.270	0.160	1.180
2020/01/31 10:07:15.1	315.970	-0.270	0.150	1.160
2020/01/31 10:07:15.2	315.890	-0.270	0.150	1.140
2020/01/31 10:07:15.3	315.820	-0.270	0.140	1.110
2020/01/31 10:07:15.4	315.740	-0.270	0.120	1.080
2020/01/31 10:07:15.5	315.670	-0.270	0.110	1.050
2020/01/31 10:07:15.6	315.600	-0.270	0.090	1.010
2020/01/31 10:07:15.7	315.540	-0.260	0.070	0.980
2020/01/31 10:07:15.8	315.470	-0.250	0.050	0.940
2020/01/31 10:07:15.9	315.410	-0.240	0.030	0.900
2020/01/31 10:07:16.0	315.340	-0.230	0.010	0.860
2020/01/31 10:07:16.1	315.280	-0.220	-0.020	0.820
2020/01/31 10:07:16.2	315.210	-0.210	-0.040	0.780
2020/01/31 10:07:16.3	315.150	-0.200	-0.060	0.740
2020/01/31 10:07:16.4	315.060	-0.190	-0.080	0.700
2020/01/31 10:07:16.5	315.000	-0.170	-0.090	0.660
2020/01/31 10:07:16.6	314.930	-0.160	-0.110	0.620
2020/01/31 10:07:16.7	314.860	-0.140	-0.120	0.590
2020/01/31 10:07:16.8	314.790	-0.130	-0.130	0.550
2020/01/31 10:07:16.9	314.720	-0.110	-0.140	0.520
2020/01/31 10:07:17.0	314.650	-0.090	-0.150	0.490
2020/01/31 10:07:17.1	314.580	-0.080	-0.150	0.460
2020/01/31 10:07:17.2	314.510	-0.060	-0.150	0.440
2020/01/31 10:07:17.3	314.430	-0.050	-0.150	0.410
2020/01/31 10:07:17.4	314.340	-0.030	-0.150	0.390
2020/01/31 10:07:17.5	314.270	-0.010	-0.140	0.370
2020/01/31 10:07:17.6	314.190	0.000	-0.130	0.350
2020/01/31 10:07:17.7	314.110	0.020	-0.130	0.330
2020/01/31 10:07:17.8	314.040	0.040	-0.120	0.320
2020/01/31 10:07:17.9	313.960	0.050	-0.110	0.310
2020/01/31 10:07:18.0	313.880	0.070	-0.100	0.300
2020/01/31 10:07:18.1	313.800	0.080	-0.090	0.290
2020/01/31 10:07:18.2	313.730	0.100	-0.080	0.290
2020/01/31 10:07:18.3	313.650	0.120	-0.070	0.280
2020/01/31 10:07:18.4	313.570	0.130	-0.060	0.280
2020/01/31 10:07:18.5	313.490	0.150	-0.050	0.280
2020/01/31 10:07:18.6	313.410	0.160	-0.050	0.280
2020/01/31 10:07:18.7	313.340	0.170	-0.040	0.280
2020/01/31 10:07:18.8	313.260	0.190	-0.040	0.280
2020/01/31 10:07:18.9	313.190	0.200	-0.040	0.280
2020/01/31 10:07:19.0	313.110	0.210	-0.050	0.280
2020/01/31 10:07:19.1	313.040	0.220	-0.050	0.280
2020/01/31 10:07:19.2	312.970	0.240	-0.060	0.280
2020/01/31 10:07:19.3	312.890	0.250	-0.070	0.280
2020/01/31 10:07:19.4	312.830	0.250	-0.080	0.270
2020/01/31 10:07:19.5	312.760	0.260	-0.100	0.270
2020/01/31 10:07:19.6	312.690	0.270	-0.110	0.260
2020/01/31 10:07:19.7	312.620	0.280	-0.130	0.250
2020/01/31 10:07:19.8	312.550	0.280	-0.150	0.240
2020/01/31 10:07:19.9	312.480	0.290	-0.170	0.230
2020/01/31 10:07:20.0	312.420	0.290	-0.190	0.220
2020/01/31 10:07:20.1	312.350	0.290	-0.210	0.200
2020/01/31 10:07:20.2	312.280	0.290	-0.230	0.190
2020/01/31 10:07:20.3	312.210	0.290	-0.250	0.170
2020/01/31 10:07:20.4	312.150	0.280	-0.270	0.160
2020/01/31 10:07:20.5	312.090	0.280	-0.290	0.140
2020/01/31 10:07:20.6	312.020	0.270	-0.300	0.120
2020/01/31 10:07:20.7	311.950	0.260	-0.320	0.100
2020/01/31 10:07:20.8	311.880	0.260	-0.330	0.080
2020/01/31 10:07:20.9	311.820	0.240	-0.350	0.060
2020/01/31 10:07:21.0	311.750	0.230	-0.360	0.040
2020/01/31 10:07:21.1	311.680	0.220	-0.370	0.020
2020/01/31 10:07:21.2	311.620	0.200	-0.380	-0.000
2020/01/31 10:07:21.3	311.550	0.190	-0.390	-0.020
2020/01/31 10:07:21.4	311.500	0.170	-0.400	-0.040
2020/01/31 10:07:21.5	311.430	0.150	-0.400	-0.060
2020/01/31 10:07:21.6	311.360	0.130	-0.410	-0.080
2020/01/31 10:07:21.7	311.300	0.110	-0.410	-0.100
2020/01/31 10:07:21.8	311.240	0.090	-0.410	-0.120
2020/01/31 10:07:21.9	311.170	0.070	-0.420	-0.130
2020/01/31 10:07:22.0	311.110	0.050	-0.420	-0.150
2020/01/31 10:07:22.1	311.050	0.030	-0.420	-0.160
2020/01/31 10:07:22.2	310.990	0.000	-0.410	-0.180
2020/01/31 10:07:22.3	310.930	-0.020	-0.410	-0.190
2020/01/31 10:07:22.4	310.850	-0.040	-0.410	-0.200
2020/01/31 10:07:22.5	310.790	-0.060	-0.400	-0.210
2020/01/31 10:07:22.6	310.740	-0.080	-0.400	-0.210
2020/01/31 10:07:22.7	310.680	-0.100	-0.390	-0.220
2020/01/31 10:07:22.8	310.620	-0.120	-0.380	-0.220
2020/01/31 10:07:22.9	310.560	-0.140	-0.370	-0.220
2020/01/31 10:07:23.0	310.500	-0.160	-0.360	-0.210
2020/01/31 10:07:23.1	310.440	-0.180	-0.350	-0.210
2020/01/31 10:07:23.2	310.380	-0.190	-0.340	-0.200
2020/01/31 10:07:23.3	310.310	-0.210	-0.330	-0.180
2020/01/31 10:07:23.4	310.250	-0.220	-0.310	-0.170
2020/01/31 10:07:23.5	310.190	-0.240	-0.300	-0.150
2020/01/31 10:07:23.6	310.120	-0.250	-0.280	-0.140
2020/01/31 10:07:23.7	310.050	-0.270	-0.260	-0.120
2020/01/31 10:07:23.8	309.990	-0.280	-0.250	-0.090
2020/01/31 10:07:23.9	309.920	-0.290	-0.230	-0.070
2020/01/31 10:07:24.0	309.850	-0.300	-0.210	-0.040
2020/01/31 10:07:24.1	309.780	-0.310	-0.190	-0.020
2020/01/31 10:07:24.2	309.700	-0.320	-0.170	0.010
2020/01/31 10:07:24.3	309.630	-0.320	-0.150	0.040
2020/01/31 10:07:24.4	309.550	-0.330	-0.130	0.070
2020/01/31 10:07:24.5	309.470	-0.330	-0.120	0.110
2020/01/31 10:07:24.6	309.390	-0.340	-0.100	0.140
2020/01/31 10:07:24.7	309.310	-0.340	-0.090	0.170
2020/01/31 10:07:24.8	309.230	-0.340	-0.080	0.200
2020/01/31 10:07:24.9	309.150	-0.340	-0.060	0.230
2020/01/31 10:07:25.0	309.070	-0.340	-0.050	0.260
2020/01/31 10:07:25.1	308.990	-0.330	-0.050	0.300
2020/01/31 10:07:25.2	308.910	-0.330	-0.040	0.330
2020/01/31 10:07:25.3	308.830	-0.320	-0.040	0.360
2020/01/31 10:07:25.4	308.730	-0.310	-0.040	0.390
2020/01/31 10:07:25.5	308.650	-0.310	-0.030	0.420
2020/01/31 10:07:25.6	308.570	-0.300	-0.040	0.450
2020/01/31 10:07:25.7	308.490	-0.280	-0.040	0.480
2020/01/31 10:07:25.8	308.410	-0.270	-0.050	0.510
2020/01/31 10:07:25.9	308.330	-0.260	-0.050	0.530
2020/01/31 10:07:26.0	308.260	-0.240	-0.060	0.560
2020/01/31 10:07:26.1	308.180	-0.230	-0.070	0.590
2020/01/31 10:07:26.2	308.110	-0.210	-0.080	0.610
2020/01/31 10:07:26.3	308.030	-0.190	-0.090	0.640
2020/01/31 10:07:26.4	307.960	-0.170	-0.100	0.660
2020/01/31 10:07:26.5	307.890	-0.150	-0.110	0.690
2020/01/31 10:07:26.6	307.820	-0.130	-0.130	0.710
2020/01/31 10:07:26.7	307.750	-0.110	-0.140	0.740
2020/01/31 10:07:26.8	307.680	-0.090	-0.150	0.760
2020/01/31 10:07:26.9	307.620	-0.070	-0.150	0.790
2020/01/31 10:07:27.0	307.550	-0.040	-0.160	0.820
2020/01/31 10:07:27.1	307.480	-0.020	-0.170	0.840
2020/01/31 10:07:27.2	307.420	0.000	-0.170	0.870
2020/01/31 10:07:27.3	307.360	0.020	-0.170	0.900
2020/01/31 10:07:27.4	307.280	0.040	-0.170	0.940
2020/01/31 10:07:27.5	307.220	0.070	-0.160	0.970
2020/01/31 10:07:27.6	307.150	0.090	-0.160	1.000
2020/01/31 10:07:27.7	307.090	0.110	-0.140	1.040
2020/01/31 10:07:27.8	307.030	0.130	-0.130	1.080
2020/01/31 10:07:27.9	306.970	0.150	-0.110	1.120
2020/01/31 10:07:28.0	306.900	0.160	-0.090	1.160
2020/01/31 10:07:28.1	306.840	0.180	-0.070	1.200
2020/01/31 10:07:28.2	306.780	0.200	-0.050	1.240
2020/01/31 10:07:28.3	306.710	0.210	-0.020	1.280
2020/01/31 10:07:28.4	306.640	0.220	0.010	1.330
2020/01/31 10:07:28.5	306.580	0.240	0.040	1.370
2020/01/31 10:07:28.6	306.510	0.250	0.070	1.410
2020/01/31 10:07:28.7	306.450	0.260	0.100	1.450
2020/01/31 10:07:28.8	306.380	0.270	0.130	1.490
2020/01/31 10:07:28.9	306.320	0.270	0.160	1.530
2020/01/31 10:07:29.0	306.250	0.280	0.190	1.570
2020/01/31 10:07:29.1	306.190	0.290	0.220	1.600
2020/01/31 10:07:29.2	306.120	0.290	0.250	1.640
2020/01/31 10:07:29.3	306.060	0.290	0.270	1.670
2020/01/31 10:07:29.4	306.000	0.300	0.290	1.690
2020/01/31 10:07:29.5	305.940	0.300	0.300	1.710
2020/01/31 10:07:29.6	305.880	0.300	0.310	1.730
2020/01/31 10:07:29.7	305.820	0.300	0.320	1.740
2020/01/31 10:07:29.8	305.770	0.300	0.320	1.740
2020/01/31 10:07:29.9	305.710	0.290	0.310	1.750
2020/01/31 10:07:30.0	305.660	0.290	0.300	1.740
2020/01/31 10:07:30.1	305.610	0.290	0.290	1.740
2020/01/31 10:07:30.2	305.560	0.280	0.270	1.730
2020/01/31 10:07:30.3	305.520	0.280	0.250	1.710
2020/01/31 10:07:30.4	305.500	0.270	0.220	1.690
2020/01/31 10:07:30.5	305.450	0.260	0.190	1.660
2020/01/31 10:07:30.6	305.410	0.260	0.150	1.630
2020/01/31 10:07:30.7	305.370	0.250	0.110	1.600
2020/01/31 10:07:30.8	305.330	0.240	0.070	1.560
2020/01/31 10:07:30.9	305.300	0.230	0.030	1.520
2020/01/31 10:07:31.0	305.260	0.230	-0.020	1.480
2020/01/31 10:07:31.1	305.230	0.220	-0.070	1.440
2020/01/31 10:07:31.2	305.190	0.210	-0.120	1.390
2020/01/31 10:07:31.3	305.160	0.200	-0.160	1.340
2020/01/31 10:07:31.4	305.130	0.190	-0.210	1.280
2020/01/31 10:07:31.5	305.100	0.180	-0.260	1.230
2020/01/31 10:07:31.6	305.060	0.170	-0.310	1.170
2020/01/31 10:07:31.7	305.030	0.160	-0.350	1.120
2020/01/31 10:07:31.8	305.000	0.140	-0.390	1.060
2020/01/31 10:07:31.9	304.970	0.130	-0.430	1.010
2020/01/31 10:07:32.0	304.940	0.120	-0.470	0.950
2020/01/31 10:07:32.1	304.910	0.110	-0.510	0.890
2020/01/31 10:07:32.2	304.890	0.090	-0.540	0.840
2020/01/31 10:07:32.3	304.860	0.080	-0.570	0.780
2020/01/31 10:07:32.4	304.840	0.060	-0.590	0.730
2020/01/31 10:07:32.5	304.810	0.050	-0.620	0.680
2020/01/31 10:07:32.6	304.780	0.030	-0.640	0.630
2020/01/31 10:07:32.7	304.750	0.020	-0.650	0.580
2020/01/31 10:07:32.8	304.720	-0.000	-0.670	0.540
2020/01/31 10:07:32.9	304.690	-0.020	-0.670	0.490
2020/01/31 10:07:33.0	304.660	-0.030	-0.680	0.450
2020/01/31 10:07:33.1	304.630	-0.050	-0.680	0.420
2020/01/31 10:07:33.2	304.600	-0.070	-0.680	0.380
2020/01/31 10:07:33.3	304.560	-0.090	-0.670	0.360
2020/01/31 10:07:33.4	304.520	-0.100	-0.660	0.330
2020/01/31 10:07:33.5	304.480	-0.120	-0.650	0.310
2020/01/31 10:07:33.6	304.440	-0.140	-0.630	0.290
2020/01/31 10:07:33.7	304.400	-0.160	-0.610	0.270
2020/01/31 10:07:33.8	304.360	-0.170	-0.590	0.260
2020/01/31 10:07:33.9	304.320	-0.190	-0.570	0.250
2020/01/31 10:07:34.0	304.280	-0.200	-0.540	0.240
2020/01/31 10:07:34.1	304.230	-0.220	-0.510	0.240
2020/01/31 10:07:34.2	304.190	-0.230	-0.480	0.230
2020/01/31 10:07:34.3	304.140	-0.250	-0.450	0.230
2020/01/31 10:07:34.4	304.080	-0.260	-0.420	0.230
2020/01/31 10:07:34.5	304.040	-0.270	-0.390	0.230
2020/01/31 10:07:34.6	303.990	-0.280	-0.360	0.230
2020/01/31 10:07:34.7	303.940	-0.290	-0.330	0.230
2020/01/31 10:07:34.8	303.890	-0.300	-0.300	0.240
2020/01/31 10:07:34.9	303.840	-0.310	-0.260	0.240
2020/01/31 10:07:35.0	303.790	-0.320	-0.240	0.240
2020/01/31 10:07:35.1	303.740	-0.330	-0.210	0.250
2020/01/31 10:07:35.2	303.690	-0.340	-0.180	0.250
2020/01/31 10:07:35.3	303.640	-0.340	-0.150	0.260
2020/01/31 10:07:35.4	303.590	-0.350	-0.130	0.260
2020/01/31 10:07:35.5	303.540	-0.350	-0.100	0.270
2020/01/31 10:07:35.6	303.490	-0.350	-0.080	0.280
2020/01/31 10:07:35.7	303.440	-0.360	-0.060	0.290
2020/01/31 10:07:35.8	303.390	-0.360	-0.040	0.300
2020/01/31 10:07:35.9	303.340	-0.360	-0.020	0.310
2020/01/31 10:07:36.0	303.290	-0.360	0.000	0.320
2020/01/31 10:07:36.1	303.240	-0.350	0.020	0.330
2020/01/31 10:07:36.2	303.190	-0.350	0.040	0.350
2020/01/31 10:07:36.3	303.140	-0.350	0.050	0.360
2020/01/31 10:07:36.4	303.100	-0.340	0.070	0.380
2020/01/31 10:07:36.5	303.050	-0.340	0.080	0.390
2020/01/31 10:07:36.6	303.010	-0.330	0.100	0.410
2020/01/31 10:07:36.7	302.960	-0.320	0.110	0.430
2020/01/31 10:07:36.8	302.920	-0.310	0.120	0.450
2020/01/31 10:07:36.9	302.870	-0.300	0.130	0.470
2020/01/31 10:07:37.0	302.830	-0.280	0.140	0.490
2020/01/31 10:07:37.1	302.790	-0.270	0.150	0.510
2020/01/31 10:07:37.2	302.750	-0.250	0.150	0.530
2020/01/31 10:07:37.3	302.720	-0.240	0.150	0.550
2020/01/31 10:07:37.4	302.680	-0.220	0.150	0.580
2020/01/31 10:07:37.5	302.650	-0.200	0.150	0.600
2020/01/31 10:07:37.6	302.620	-0.180	0.150	0.620
2020/01/31 10:07:37.7	302.600	-0.160	0.140	0.630
2020/01/31 10:07:37.8	302.570	-0.130	0.140	0.650
2020/01/31 10:07:37.9	302.550	-0.110	0.130	0.660
2020/01/31 10:07:38.0	302.540	-0.090	0.110	0.680
2020/01/31 10:07:38.1	302.520	-0.060	0.100	0.690
2020/01/31 10:07:38.2	302.510	-0.030	0.080	0.700
2020/01/31 10:07:38.3	302.500	-0.010	0.060	0.710
2020/01/31 10:07:38.4	302.490	0.020	0.040	0.710
2020/01/31 10:07:38.5	302.490	0.050	0.020	0.720
2020/01/31 10:07:38.6	302.490	0.080	-0.000	0.730
2020/01/31 10:07:38.7	302.490	0.110	-0.030	0.730
2020/01/31 10:07:38.8	302.500	0.130	-0.060	0.730
2020/01/31 10:07:38.9	302.510	0.160	-0.080	0.740
2020/01/31 10:07:39.0	302.520	0.190	-0.110	0.740
2020/01/31 10:07:39.1	302.530	0.220	-0.140	0.740
2020/01/31 10:07:39.2	302.540	0.250	-0.170	0.740
2020/01/31 10:07:39.3	302.550	0.280	-0.200	0.740
2020/01/31 10:07:39.4	302.560	0.300	-0.230	0.750
2020/01/31 10:07:39.5	302.570	0.330	-0.250	0.760
2020/01/31 10:07:39.6	302.590	0.360	-0.280	0.760
2020/01/31 10:07:39.7	302.600	0.380	-0.300	0.770
2020/01/31 10:07:39.8	302.620	0.400	-0.320	0.780
2020/01/31 10:07:39.9	302.630	0.420	-0.340	0.790
2020/01/31 10:07:40.0	302.650	0.450	-0.360	0.800
2020/01/31 10:07:40.1	302.660	0.460	-0.370	0.820
2020/01/31 10:07:40.2	302.680	0.480	-0.390	0.840
2020/01/31 10:07:40.3	302.690	0.500	-0.400	0.860
2020/01/31 10:07:40.4	302.690	0.510	-0.400	0.880
2020/01/31 10:07:40.5	302.700	0.520	-0.410	0.900
2020/01/31 10:07:40.6	302.710	0.530	-0.410	0.930
2020/01/31 10:07:40.7	302.710	0.540	-0.410	0.960
2020/01/31 10:07:40.8	302.720	0.540	-0.410	0.990
2020/01/31 10:07:40.9	302.720	0.540	-0.410	1.020
2020/01/31 10:07:41.0	302.720	0.540	-0.400	1.050
2020/01/31 10:07:41.1	302.710	0.540	-0.390	1.080
2020/01/31 10:07:41.2	302.710	0.530	-0.380	1.120
2020/01/31 10:07:41.3	302.700	0.530	-0.370	1.160
2020/01/31 10:07:41.4	302.680	0.520	-0.350	1.200
2020/01/31 10:07:41.5	302.670	0.510	-0.330	1.230
2020/01/31 10:07:41.6	302.660	0.490	-0.320	1.270
2020/01/31 10:07:41.7	302.650	0.470	-0.300	1.310
2020/01/31 10:07:41.8	302.630	0.460	-0.270	1.350
2020/01/31 10:07:41.9	302.610	0.430	-0.250	1.390
2020/01/31 10:07:42.0	302.590	0.410	-0.230	1.420
2020/01/31 10:07:42.1	302.570	0.390	-0.200	1.460
2020/01/31 10:07:42.2	302.550	0.360	-0.180	1.500
2020/01/31 10:07:42.3	302.520	0.330	-0.150	1.530
2020/01/31 10:07:42.4	302.500	0.300	-0.130	1.560
2020/01/31 10:07:42.5	302.480	0.270	-0.100	1.590
2020/01/31 10:07:42.6	302.450	0.240	-0.080	1.620
2020/01/31 10:07:42.7	302.420	0.210	-0.050	1.650
2020/01/31 10:07:42.8	302.400	0.180	-0.030	1.670
2020/01/31 10:07:42.9	302.370	0.150	-0.010	1.690
2020/01/31 10:07:43.0	302.340	0.110	0.010	1.710
2020/01/31 10:07:43.1	302.310	0.080	0.030	1.730
2020/01/31 10:07:43.2	302.280	0.040	0.040	1.740
2020/01/31 10:07:43.3	302.250	0.010	0.060	1.750
2020/01/31 10:07:43.4	302.230	-0.020	0.070	1.750
2020/01/31 10:07:43.5	302.200	-0.050	0.080	1.760
2020/01/31 10:07:43.6	302.170	-0.090	0.090	1.760
2020/01/31 10:07:43.7	302.140	-0.120	0.100	1.750
2020/01/31 10:07:43.8	302.110	-0.150	0.110	1.740
2020/01/31 10:07:43.9	302.090	-0.180	0.110	1.730
2020/01/31 10:07:44.0	302.060	-0.200	0.120	1.720
2020/01/31 10:07:44.1	302.040	-0.230	0.120	1.700
2020/01/31 10:07:44.2	302.020	-0.260	0.120	1.680
2020/01/31 10:07:44.3	301.990	-0.280	0.120	1.650
2020/01/31 10:07:44.4	301.990	-0.300	0.110	1.620
2020/01/31 10:07:44.5	301.970	-0.320	0.110	1.590
2020/01/31 10:07:44.6	301.950	-0.340	0.100	1.560
2020/01/31 10:07:44.7	301.930	-0.360	0.090	1.530
2020/01/31 10:07:44.8	301.920	-0.370	0.090	1.490
2020/01/31 10:07:44.9	301.900	-0.390	0.080	1.450
2020/01/31 10:07:45.0	301.890	-0.400	0.070	1.410
2020/01/31 10:07:45.1	301.880	-0.410	0.060	1.360
2020/01/31 10:07:45.2	301.870	-0.420	0.040	1.310
2020/01/31 10:07:45.3	301.860	-0.420	0.030	1.270
2020/01/31 10:07:45.4	301.860	-0.430	0.020	1.220
2020/01/31 10:07:45.5	301.850	-0.430	0.000	1.160
2020/01/31 10:07:45.6	301.850	-0.430	-0.010	1.110
2020/01/31 10:07:45.7	301.850	-0.430	-0.030	1.060
2020/01/31 10:07:45.8	301.850	-0.430	-0.040	1.000
2020/01/31 10:07:45.9	301.850	-0.420	-0.060	0.950
2020/01/31 10:07:46.0	301.860	-0.420	-0.070	0.890
2020/01/31 10:07:46.1	301.860	-0.410	-0.080	0.830
2020/01/31 10:07:46.2	301.870	-0.400	-0.100	0.780
2020/01/31 10:07:46.3	301.880	-0.390	-0.110	0.720
2020/01/31 10:07:46.4	301.890	-0.380	-0.130	0.660
2020/01/31 10:07:46.5	301.900	-0.370	-0.140	0.610
2020/01/31 10:07:46.6	301.910	-0.360	-0.150	0.550
2020/01/31 10:07:46.7	301.930	-0.340	-0.170	0.500
2020/01/31 10:07:46.8	301.940	-0.330	-0.180	0.450
2020/01/31 10:07:46.9	301.950	-0.310	-0.200	0.400
2020/01/31 10:07:47.0	301.970	-0.300	-0.210	0.350
2020/01/31 10:07:47.1	301.980	-0.280	-0.230	0.300
2020/01/31 10:07:47.2	302.000	-0.260	-0.240	0.260
2020/01/31 10:07:47.3	302.010	-0.240	-0.260	0.220
2020/01/31 10:07:47.4	302.020	-0.230	-0.280	0.180
2020/01/31 10:07:47.5	302.030	-0.210	-0.290	0.140
2020/01/31 10:07:47.6	302.050	-0.190	-0.310	0.100
2020/01/31 10:07:47.7	302.060	-0.170	-0.330	0.070
2020/01/31 10:07:47.8	302.080	-0.150	-0.350	0.030
2020/01/31 10:07:47.9	302.090	-0.130	-0.360	0.000
2020/01/31 10:07:48.0	302.110	-0.120	-0.380	-0.030
2020/01/31 10:07:48.1	302.120	-0.100	-0.400	-0.060
2020/01/31 10:07:48.2	302.140	-0.080	-0.420	-0.080
2020/01/31 10:07:48.3	302.150	-0.060	-0.440	-0.110
2020/01/31 10:07:48.4	302.180	-0.050	-0.460	-0.130
2020/01/31 10:07:48.5	302.190	-0.030	-0.480	-0.150
2020/01/31 10:07:48.6	302.210	-0.010	-0.500	-0.170
2020/01/31 10:07:48.7	302.230	0.000	-0.520	-0.190
2020/01/31 10:07:48.8	302.250	0.010	-0.540	-0.210
2020/01/31 10:07:48.9	302.270	0.030	-0.560	-0.220
2020/01/31 10:07:49.0	302.280	0.040	-0.580	-0.240
2020/01/31 10:07:49.1	302.300	0.050	-0.590	-0.250
2020/01/31 10:07:49.2	302.320	0.060	-0.610	-0.260
2020/01/31 10:07:49.3	302.340	0.070	-0.620	-0.260
2020/01/31 10:07:49.4	302.360	0.070	-0.630	-0.270
2020/01/31 10:07:49.5	302.380	0.080	-0.640	-0.270
2020/01/31 10:07:49.6	302.400	0.080	-0.640	-0.270
2020/01/31 10:07:49.7	302.410	0.090	-0.640	-0.270
2020/01/31 10:07:49.8	302.430	0.090	-0.640	-0.260
2020/01/31 10:07:49.9	302.450	0.090	-0.640	-0.250
2020/01/31 10:07:50.0	302.460	0.090	-0.630	-0.240
2020/01/31 10:07:50.1	302.480	0.090	-0.620	-0.230
2020/01/31 10:07:50.2	302.490	0.090	-0.600	-0.210
2020/01/31 10:07:50.3	302.510	0.080	-0.580	-0.190
2020/01/31 10:07:50.4	302.520	0.080	-0.560	-0.170
2020/01/31 10:07:50.5	302.540	0.070	-0.530	-0.150
2020/01/31 10:07:50.6	302.550	0.060	-0.490	-0.120
2020/01/31 10:07:50.7	302.560	0.060	-0.460	-0.090
2020/01/31 10:07:50.8	302.570	0.050	-0.420	-0.060
2020/01/31 10:07:50.9	302.580	0.040	-0.370	-0.030
2020/01/31 10:07:51.0	302.590	0.030	-0.320	-0.000
2020/01/31 10:07:51.1	302.610	0.020	-0.270	0.030
2020/01/31 10:07:51.2	302.620	0.010	-0.220	0.070
2020/01/31 10:07:51.3	302.630	0.000	-0.170	0.100
2020/01/31 10:07:51.4	302.640	-0.010	-0.110	0.150
2020/01/31 10:07:51.5	302.650	-0.020	-0.050	0.190
2020/01/31 10:07:51.6	302.660	-0.020	0.010	0.220
2020/01/31 10:07:51.7	302.680	-0.030	0.070	0.260
2020/01/31 10:07:51.8	302.690	-0.040	0.130	0.310
2020/01/31 10:07:51.9	302.700	-0.050	0.180	0.350
2020/01/31 10:07:52.0	302.720	-0.050	0.240	0.390
2020/01/31 10:07:52.1	302.730	-0.060	0.290	0.430
2020/01/31 10:07:52.2	302.750	-0.060	0.350	0.480
2020/01/31 10:07:52.3	302.760	-0.060	0.400	0.520
2020/01/31 10:07:52.4	302.770	-0.060	0.440	0.570
2020/01/31 10:07:52.5	302.790	-0.060	0.480	0.620
2020/01/31 10:07:52.6	302.800	-0.060	0.520	0.660
2020/01/31 10:07:52.7	302.810	-0.050	0.560	0.710
2020/01/31 10:07:52.8	302.820	-0.050	0.590	0.760
2020/01/31 10:07:52.9	302.840	-0.040	0.610	0.810
2020/01/31 10:07:53.0	302.850	-0.030	0.630	0.870
2020/01/31 10:07:53.1	302.860	-0.030	0.650	0.920
2020/01/31 10:07:53.2	302.870	-0.010	0.660	0.970
2020/01/31 10:07:53.3	302.880	-0.000	0.660	1.020
2020/01/31 10:07:53.4	302.870	0.010	0.660	1.070
2020/01/31 10:07:53.5	302.880	0.020	0.650	1.120
2020/01/31 10:07:53.6	302.890	0.040	0.640	1.170
2020/01/31 10:07:53.7	302.900	0.060	0.620	1.220
2020/01/31 10:07:53.8	302.910	0.070	0.590	1.260
2020/01/31 10:07:53.9	302.920	0.090	0.550	1.310
2020/01/31 10:07:54.0	302.920	0.110	0.520	1.350
2020/01/31 10:07:54.1	302.940	0.130	0.470	1.380
2020/01/31 10:07:54.2	302.950	0.150	0.420	1.420
2020/01/31 10:07:54.3	302.960	0.170	0.360	1.450
2020/01/31 10:07:54.4	302.970	0.200	0.300	1.470
2020/01/31 10:07:54.5	302.980	0.220	0.230	1.500
2020/01/31 10:07:54.6	303.000	0.240	0.160	1.520
2020/01/31 10:07:54.7	303.010	0.260	0.090	1.530
2020/01/31 10:07:54.8	303.030	0.280	0.010	1.540
2020/01/31 10:07:54.9	303.050	0.310	-0.060	1.550
2020/01/31 10:07:55.0	303.070	0.330	-0.140	1.560
2020/01/31 10:07:55.1	303.090	0.350	-0.220	1.560
2020/01/31 10:07:55.2	303.110	0.370	-0.300	1.570
2020/01/31 10:07:55.3	303.130	0.390	-0.370	1.570
2020/01/31 10:07:55.4	303.150	0.400	-0.450	1.560
2020/01/31 10:07:55.5	303.170	0.420	-0.520	1.560
2020/01/31 10:07:55.6	303.200	0.440	-0.590	1.550
2020/01/31 10:07:55.7	303.230	0.450	-0.660	1.550
2020/01/31 10:07:55.8	303.250	0.470	-0.720	1.540
2020/01/31 10:07:55.9	303.280	0.480	-0.770	1.530
2020/01/31 10:07:56.0	303.310	0.490	-0.820	1.530
2020/01/31 10:07:56.1	303.340	0.500	-0.860	1.520
2020/01/31 10:07:56.2	303.370	0.500	-0.900	1.510
2020/01/31 10:07:56.3	303.400	0.510	-0.930	1.500
2020/01/31 10:07:56.4	303.430	0.510	-0.960	1.490
2020/01/31 10:07:56.5	303.460	0.510	-0.980	1.490
2020/01/31 10:07:56.6	303.500	0.510	-0.990	1.480
2020/01/31 10:07:56.7	303.530	0.510	-0.990	1.470
2020/01/31 10:07:56.8	303.560	0.500	-0.990	1.460
2020/01/31 10:07:56.9	303.600	0.490	-0.990	1.450
2020/01/31 10:07:57.0	303.630	0.480	-0.980	1.440
2020/01/31 10:07:57.1	303.660	0.470	-0.960	1.430
2020/01/31 10:07:57.2	303.700	0.450	-0.940	1.420
2020/01/31 10:07:57.3	303.730	0.430	-0.910	1.410
2020/01/31 10:07:57.4	303.780	0.410	-0.880	1.400
2020/01/31 10:07:57.5	303.810	0.390	-0.850	1.380
2020/01/31 10:07:57.6	303.840	0.360	-0.820	1.370
2020/01/31 10:07:57.7	303.870	0.330	-0.780	1.350
2020/01/31 10:07:57.8	303.900	0.300	-0.740	1.330
2020/01/31 10:07:57.9	303.930	0.270	-0.690	1.310
2020/01/31 10:07:58.0	303.960	0.240	-0.650	1.290
2020/01/31 10:07:58.1	303.990	0.200	-0.600	1.270
2020/01/31 10:07:58.2	304.010	0.160	-0.560	1.250
2020/01/31 10:07:58.3	304.030	0.120	-0.510	1.230
2020/01/31 10:07:58.4	304.040	0.080	-0.470	1.200
2020/01/31 10:07:58.5	304.060	0.040	-0.420	1.170
2020/01/31 10:07:58.6	304.080	-0.000	-0.370	1.150
2020/01/31 10:07:58.7	304.100	-0.050	-0.330	1.120
2020/01/31 10:07:58.8	304.120	-0.090	-0.280	1.080
2020/01/31 10:07:58.9	304.130	-0.130	-0.230	1.050
2020/01/31 10:07:59.0	304.150	-0.180	-0.190	1.010
2020/01/31 10:07:59.1	304.160	-0.220	-0.150	0.980
2020/01/31 10:07:59.2	304.170	-0.270	-0.110	0.930
2020/01/31 10:07:59.3	304.190	-0.310	-0.070	0.890
2020/01/31 10:07:59.4	304.190	-0.350	-0.030	0.850
2020/01/31 10:07:59.5	304.200	-0.390	0.010	0.800
2020/01/31 10:07:59.6	304.210	-0.430	0.040	0.740
2020/01/31 10:07:59.7	304.220	-0.470	0.070	0.690
2020/01/31 10:07:59.8	304.240	-0.510	0.100	0.630
2020/01/31 10:07:59.9	304.250	-0.550	0.130	0.570
2020/01/31 10:08:00.0	304.270	-0.580	0.160	0.510
2020/01/31 10:08:00.1	304.280	-0.610	0.180	0.450
2020/01/31 10:08:00.2	304.300	-0.640	0.200	0.380
2020/01/31 10:08:00.3	304.310	-0.670	0.220	0.320
2020/01/31 10:08:00.4	304.330	-0.700	0.230	0.250
2020/01/31 10:08:00.5	304.350	-0.720	0.250	0.180
2020/01/31 10:08:00.6	304.370	-0.740	0.260	0.110
2020/01/31 10:08:00.7	304.390	-0.760	0.270	0.050
2020/01/31 10:08:00.8	304.420	-0.780	0.280	-0.020
2020/01/31 10:08:00.9	304.440	-0.800	0.280	-0.090
2020/01/31 10:08:01.0	304.470	-0.810	0.280	-0.160
2020/01/31 10:08:01.1	304.500	-0.820	0.280	-0.230
2020/01/31 10:08:01.2	304.530	-0.830	0.280	-0.300
2020/01/31 10:08:01.3	304.560	-0.830	0.280	-0.370
2020/01/31 10:08:01.4	304.590	-0.830	0.280	-0.440
2020/01/31 10:08:01.5	304.620	-0.830	0.270	-0.500
2020/01/31 10:08:01.6	304.660	-0.830	0.260	-0.570
2020/01/31 10:08:01.7	304.700	-0.830	0.260	-0.630
2020/01/31 10:08:01.8	304.740	-0.820	0.250	-0.690
2020/01/31 10:08:01.9	304.780	-0.810	0.240	-0.750
2020/01/31 10:08:02.0	304.820	-0.800	0.230	-0.810
2020/01/31 10:08:02.1	304.860	-0.790	0.220	-0.860
2020/01/31 10:08:02.2	304.900	-0.770	0.210	-0.910
2020/01/31 10:08:02.3	304.940	-0.750	0.200	-0.960
2020/01/31 10:08:02.4	304.970	-0.730	0.190	-1.000
2020/01/31 10:08:02.5	305.010	-0.710	0.180	-1.050
2020/01/31 10:08:02.6	305.050	-0.680	0.180	-1.090
2020/01/31 10:08:02.7	305.090	-0.660	0.170	-1.120
2020/01/31 10:08:02.8	305.130	-0.630	0.160	-1.160
2020/01/31 10:08:02.9	305.170	-0.600	0.160	-1.180
2020/01/31 10:08:03.0	305.210	-0.570	0.150	-1.210
2020/01/31 10:08:03.1	305.240	-0.530	0.150	-1.230
2020/01/31 10:08:03.2	305.280	-0.500	0.150	-1.250
2020/01/31 10:08:03.3	305.310	-0.460	0.140	-1.270
2020/01/31 10:08:03.4	305.360	-0.420	0.140	-1.280
2020/01/31 10:08:03.5	305.390	-0.380	0.140	-1.280
2020/01/31 10:08:03.6	305.420	-0.340	0.130	-1.290
2020/01/31 10:08:03.7	305.450	-0.300	0.130	-1.290
2020/01/31 10:08:03.8	305.480	-0.260	0.120	-1.280
2020/01/31 10:08:03.9	305.500	-0.220	0.120	-1.270
2020/01/31 10:08:04.0	305.530	-0.180	0.110	-1.260
2020/01/31 10:08:04.1	305.550	-0.130	0.110	-1.240
2020/01/31 10:08:04.2	305.580	-0.090	0.100	-1.220
2020/01/31 10:08:04.3	305.600	-0.050	0.090	-1.190
2020/01/31 10:08:04.4	305.610	-0.000	0.080	-1.170
2020/01/31 10:08:04.5	305.630	0.040	0.070	-1.130
2020/01/31 10:08:04.6	305.650	0.090	0.050	-1.090
2020/01/31 10:08:04.7	305.670	0.130	0.040	-1.050
2020/01/31 10:08:04.8	305.680	0.180	0.020	-1.000
2020/01/31 10:08:04.9	305.700	0.220	0.000	-0.940
2020/01/31 10:08:05.0	305.710	0.260	-0.020	-0.890
2020/01/31 10:08:05.1	305.720	0.310	-0.040	-0.830
2020/01/31 10:08:05.2	305.740	0.350	-0.060	-0.760
2020/01/31 10:08:05.3	305.750	0.390	-0.090	-0.690
2020/01/31 10:08:05.4	305.750	0.430	-0.110	-0.620
2020/01/31 10:08:05.5	305.750	0.470	-0.140	-0.540
2020/01/31 10:08:05.6	305.760	0.510	-0.170	-0.460
2020/01/31 10:08:05.7	305.770	0.550	-0.200	-0.380
2020/01/31 10:08:05.8	305.770	0.590	-0.230	-0.290
2020/01/31 10:08:05.9	305.770	0.630	-0.270	-0.210
2020/01/31 10:08:06.0	305.770	0.660	-0.300	-0.120
2020/01/31 10:08:06.1	305.770	0.690	-0.340	-0.030
2020/01/31 10:08:06.2	305.770	0.730	-0.370	0.070
2020/01/31 10:08:06.3	305.770	0.750	-0.410	0.160
2020/01/31 10:08:06.4	305.770	0.780	-0.450	0.250
2020/01/31 10:08:06.5	305.760	0.800	-0.490	0.340
2020/01/31 10:08:06.6	305.760	0.830	-0.520	0.430
2020/01/31 10:08:06.7	305.760	0.850	-0.560	0.510
2020/01/31 10:08:06.8	305.750	0.860	-0.600	0.600
2020/01/31 10:08:06.9	305.750	0.880	-0.640	0.680
2020/01/31 10:08:07.0	305.740	0.890	-0.680	0.760
2020/01/31 10:08:07.1	305.740	0.890	-0.720	0.830
2020/01/31 10:08:07.2	305.740	0.900	-0.760	0.900
2020/01/31 10:08:07.3	305.730	0.900	-0.790	0.970
2020/01/31 10:08:07.4	305.730	0.900	-0.830	1.030
2020/01/31 10:08:07.5	305.730	0.900	-0.860	1.090
2020/01/31 10:08:07.6	305.720	0.890	-0.890	1.140
2020/01/31 10:08:07.7	305.720	0.880	-0.910	1.190
2020/01/31 10:08:07.8	305.720	0.860	-0.940	1.240
2020/01/31 10:08:07.9	305.720	0.850	-0.960	1.280
2020/01/31 10:08:08.0	305.710	0.830	-0.970	1.320
2020/01/31 10:08:08.1	305.710	0.810	-0.990	1.360
2020/01/31 10:08:08.2	305.710	0.780	-1.000	1.390
2020/01/31 10:08:08.3	305.710	0.760	-1.000	1.420
2020/01/31 10:08:08.4	305.710	0.730	-1.000	1.450
2020/01/31 10:08:08.5	305.710	0.690	-0.990	1.480
2020/01/31 10:08:08.6	305.710	0.660	-0.990	1.500
2020/01/31 10:08:08.7	305.710	0.630	-0.970	1.510
2020/01/31 10:08:08.8	305.710	0.590	-0.960	1.530
2020/01/31 10:08:08.9	305.720	0.550	-0.940	1.540
2020/01/31 10:08:09.0	305.720	0.510	-0.910	1.540
2020/01/31 10:08:09.1	305.720	0.470	-0.880	1.550
2020/01/31 10:08:09.2	305.730	0.430	-0.850	1.540
2020/01/31 10:08:09.3	305.730	0.380	-0.820	1.540
2020/01/31 10:08:09.4	305.740	0.340	-0.790	1.530
2020/01/31 10:08:09.5	305.750	0.300	-0.750	1.520
2020/01/31 10:08:09.6	305.760	0.250	-0.710	1.500
2020/01/31 10:08:09.7	305.760	0.200	-0.670	1.480
2020/01/31 10:08:09.8	305.770	0.160	-0.630	1.460
2020/01/31 10:08:09.9	305.780	0.110	-0.580	1.430
2020/01/31 10:08:10.0	305.790	0.070	-0.540	1.400
2020/01/31 10:08:10.1	305.810	0.020	-0.490	1.360
2020/01/31 10:08:10.2	305.820	-0.020	-0.440	1.320
2020/01/31 10:08:10.3	305.830	-0.070	-0.390	1.280
2020/01/31 10:08:10.4	305.860	-0.120	-0.340	1.240
2020/01/31 10:08:10.5	305.870	-0.160	-0.290	1.190
2020/01/31 10:08:10.6	305.890	-0.200	-0.230	1.130
2020/01/31 10:08:10.7	305.900	-0.250	-0.180	1.080
2020/01/31 10:08:10.8	305.910	-0.290	-0.120	1.020
2020/01/31 10:08:10.9	305.930	-0.330	-0.070	0.960
2020/01/31 10:08:11.0	305.940	-0.370	-0.010	0.900
2020/01/31 10:08:11.1	305.950	-0.410	0.050	0.840
2020/01/31 10:08:11.2	305.960	-0.450	0.110	0.770
2020/01/31 10:08:11.3	305.970	-0.490	0.170	0.700
2020/01/31 10:08:11.4	305.970	-0.520	0.230	0.630
2020/01/31 10:08:11.5	305.980	-0.560	0.290	0.560
2020/01/31 10:08:11.6	305.980	-0.590	0.350	0.490
2020/01/31 10:08:11.7	305.990	-0.620	0.410	0.420
2020/01/31 10:08:11.8	305.990	-0.650	0.470	0.350
2020/01/31 10:08:11.9	305.990	-0.670	0.530	0.270
2020/01/31 10:08:12.0	305.990	-0.700	0.590	0.200
2020/01/31 10:08:12.1	305.990	-0.720	0.650	0.130
2020/01/31 10:08:12.2	305.990	-0.740	0.710	0.060
2020/01/31 10:08:12.3	305.980	-0.750	0.760	-0.020
2020/01/31 10:08:12.4	305.960	-0.760	0.810	-0.090
2020/01/31 10:08:12.5	305.950	-0.780	0.860	-0.160
2020/01/31 10:08:12.6	305.940	-0.780	0.910	-0.230
2020/01/31 10:08:12.7	305.930	-0.790	0.950	-0.300
2020/01/31 10:08:12.8	305.910	-0.790	0.990	-0.370
2020/01/31 10:08:12.9	305.900	-0.790	1.020	-0.430
2020/01/31 10:08:13.0	305.880	-0.790	1.050	-0.500
2020/01/31 10:08:13.1	305.860	-0.780	1.070	-0.560
2020/01/31 10:08:13.2	305.840	-0.770	1.080	-0.620
2020/01/31 10:08:13.3	305.820	-0.760	1.090	-0.670
2020/01/31 10:08:13.4	305.790	-0.740	1.090	-0.730
2020/01/31 10:08:13.5	305.760	-0.720	1.080	-0.780
2020/01/31 10:08:13.6	305.730	-0.700	1.070	-0.830
2020/01/31 10:08:13.7	305.710	-0.680	1.050	-0.880
2020/01/31 10:08:13.8	305.670	-0.650	1.030	-0.930
2020/01/31 10:08:13.9	305.640	-0.620	0.990	-0.970
2020/01/31 10:08:14.0	305.610	-0.590	0.960	-1.010
2020/01/31 10:08:14.1	305.580	-0.560	0.910	-1.040
2020/01/31 10:08:14.2	305.540	-0.530	0.860	-1.080
2020/01/31 10:08:14.3	305.510	-0.490	0.800	-1.110
2020/01/31 10:08:14.4	305.460	-0.450	0.740	-1.140
2020/01/31 10:08:14.5	305.430	-0.410	0.670	-1.160
2020/01/31 10:08:14.6	305.390	-0.370	0.600	-1.180
2020/01/31 10:08:14.7	305.350	-0.330	0.520	-1.200
2020/01/31 10:08:14.8	305.320	-0.290	0.440	-1.210
2020/01/31 10:08:14.9	305.280	-0.250	0.350	-1.220
2020/01/31 10:08:15.0	305.240	-0.210	0.260	-1.230
2020/01/31 10:08:15.1	305.200	-0.170	0.170	-1.230
2020/01/31 10:08:15.2	305.170	-0.120	0.080	-1.230
2020/01/31 10:08:15.3	305.130	-0.080	-0.010	-1.220
2020/01/31 10:08:15.4	305.070	-0.040	-0.110	-1.220
2020/01/31 10:08:15.5	305.040	-0.000	-0.200	-1.210
2020/01/31 10:08:15.6	305.000	0.030	-0.290	-1.190
2020/01/31 10:08:15.7	304.960	0.070	-0.380	-1.170
2020/01/31 10:08:15.8	304.930	0.110	-0.470	-1.150
2020/01/31 10:08:15.9	304.890	0.140	-0.560	-1.120
2020/01/31 10:08:16.0	304.860	0.170	-0.640	-1.090
2020/01/31 10:08:16.1	304.820	0.200	-0.720	-1.060
2020/01/31 10:08:16.2	304.780	0.230	-0.800	-1.020
2020/01/31 10:08:16.3	304.750	0.260	-0.870	-0.980
2020/01/31 10:08:16.4	304.710	0.280	-0.940	-0.930
2020/01/31 10:08:16.5	304.680	0.310	-1.000	-0.890
2020/01/31 10:08:16.6	304.650	0.330	-1.060	-0.830
2020/01/31 10:08:16.7	304.610	0.350	-1.110	-0.780
2020/01/31 10:08:16.8	304.580	0.360	-1.150	-0.720
2020/01/31 10:08:16.9	304.540	0.380	-1.190	-0.650
2020/01/31 10:08:17.0	304.510	0.390	-1.230	-0.590
2020/01/31 10:08:17.1	304.480	0.400	-1.250	-0.520
2020/01/31 10:08:17.2	304.450	0.410	-1.280	-0.450
2020/01/31 10:08:17.3	304.420	0.420	-1.290	-0.380
2020/01/31 10:08:17.4	304.400	0.430	-1.300	-0.310
2020/01/31 10:08:17.5	304.370	0.430	-1.310	-0.230
2020/01/31 10:08:17.6	304.340	0.430	-1.300	-0.150
2020/01/31 10:08:17.7	304.320	0.430	-1.300	-0.070
2020/01/31 10:08:17.8	304.300	0.430	-1.290	0.010
2020/01/31 10:08:17.9	304.270	0.420	-1.270	0.090
2020/01/31 10:08:18.0	304.250	0.420	-1.250	0.170
2020/01/31 10:08:18.1	304.230	0.410	-1.230	0.250
2020/01/31 10:08:18.2	304.220	0.400	-1.200	0.330
2020/01/31 10:08:18.3	304.200	0.390	-1.170	0.410
2020/01/31 10:08:18.4	304.190	0.380	-1.130	0.490
2020/01/31 10:08:18.5	304.180	0.360	-1.090	0.570
2020/01/31 10:08:18.6	304.170	0.350	-1.050	0.650
2020/01/31 10:08:18.7	304.160	0.330	-1.010	0.730
2020/01/31 10:08:18.8	304.160	0.310	-0.970	0.810
2020/01/31 10:08:18.9	304.160	0.300	-0.930	0.880
2020/01/31 10:08:19.0	304.160	0.280	-0.880	0.950
2020/01/31 10:08:19.1	304.160	0.260	-0.840	1.020
2020/01/31 10:08:19.2	304.170	0.240	-0.790	1.090
2020/01/31 10:08:19.3	304.170	0.220	-0.740	1.160
2020/01/31 10:08:19.4	304.170	0.200	-0.700	1.220
2020/01/31 10:08:19.5	304.180	0.180	-0.650	1.280
2020/01/31 10:08:19.6	304.190	0.160	-0.610	1.340
2020/01/31 10:08:19.7	304.210	0.140	-0.560	1.400
2020/01/31 10:08:19.8	304.220	0.120	-0.520	1.460
2020/01/31 10:08:19.9	304.230	0.100	-0.470	1.510
2020/01/31 10:08:20.0	304.250	0.080	-0.430	1.560
2020/01/31 10:08:20.1	304.260	0.060	-0.380	1.610
2020/01/31 10:08:20.2	304.280	0.050	-0.340	1.660
2020/01/31 10:08:20.3	304.290	0.030	-0.300	1.700
2020/01/31 10:08:20.4	304.330	0.010	-0.260	1.750
2020/01/31 10:08:20.5	304.340	-0.000	-0.220	1.790
2020/01/31 10:08:20.6	304.360	-0.020	-0.180	1.820
2020/01/31 10:08:20.7	304.370	-0.030	-0.140	1.860
2020/01/31 10:08:20.8	304.380	-0.040	-0.100	1.890
2020/01/31 10:08:20.9	304.400	-0.060	-0.060	1.920
2020/01/31 10:08:21.0	304.410	-0.070	-0.020	1.950
2020/01/31 10:08:21.1	304.420	-0.080	0.020	1.970
2020/01/31 10:08:21.2	304.430	-0.090	0.050	1.990
2020/01/31 10:08:21.3	304.440	-0.090	0.090	2.010
2020/01/31 10:08:21.4	304.440	-0.100	0.120	2.030
2020/01/31 10:08:21.5	304.450	-0.110	0.160	2.040
2020/01/31 10:08:21.6	304.460	-0.110	0.190	2.050
2020/01/31 10:08:21.7	304.470	-0.120	0.220	2.060
2020/01/31 10:08:21.8	304.480	-0.120	0.260	2.070
2020/01/31 10:08:21.9	304.480	-0.120	0.290	2.070
2020/01/31 10:08:22.0	304.490	-0.120	0.320	2.070
2020/01/31 10:08:22.1	304.500	-0.120	0.350	2.060
2020/01/31 10:08:22.2	304.500	-0.120	0.380	2.060
2020/01/31 10:08:22.3	304.510	-0.110	0.410	2.050
2020/01/31 10:08:22.4	304.530	-0.110	0.440	2.040
2020/01/31 10:08:22.5	304.540	-0.100	0.460	2.030
2020/01/31 10:08:22.6	304.540	-0.100	0.490	2.020
2020/01/31 10:08:22.7	304.540	-0.090	0.520	2.010
2020/01/31 10:08:22.8	304.550	-0.080	0.540	1.990
2020/01/31 10:08:22.9	304.550	-0.070	0.570	1.980
2020/01/31 10:08:23.0	304.550	-0.060	0.590	1.970
2020/01/31 10:08:23.1	304.550	-0.050	0.620	1.950
2020/01/31 10:08:23.2	304.540	-0.040	0.640	1.940
2020/01/31 10:08:23.3	304.540	-0.020	0.660	1.930
2020/01/31 10:08:23.4	304.540	-0.010	0.680	1.920
2020/01/31 10:08:23.5	304.530	0.010	0.700	1.910
2020/01/31 10:08:23.6	304.520	0.020	0.720	1.900
2020/01/31 10:08:23.7	304.510	0.040	0.730	1.890
2020/01/31 10:08:23.8	304.500	0.060	0.750	1.880
2020/01/31 10:08:23.9	304.480	0.080	0.760	1.870
2020/01/31 10:08:24.0	304.470	0.090	0.770	1.860
2020/01/31 10:08:24.1	304.450	0.110	0.770	1.850
2020/01/31 10:08:24.2	304.430	0.130	0.780	1.850
2020/01/31 10:08:24.3	304.410	0.150	0.780	1.840
2020/01/31 10:08:24.4	304.380	0.170	0.770	1.830
2020/01/31 10:08:24.5	304.360	0.190	0.760	1.820
2020/01/31 10:08:24.6	304.330	0.210	0.750	1.810
2020/01/31 10:08:24.7	304.310	0.230	0.730	1.800
2020/01/31 10:08:24.8	304.280	0.240	0.710	1.790
2020/01/31 10:08:24.9	304.250	0.260	0.690	1.770
2020/01/31 10:08:25.0	304.220	0.280	0.660	1.760
2020/01/31 10:08:25.1	304.190	0.300	0.620	1.740
2020/01/31 10:08:25.2	304.160	0.320	0.580	1.720
2020/01/31 10:08:25.3	304.140	0.330	0.540	1.690
2020/01/31 10:08:25.4	304.120	0.350	0.490	1.660
2020/01/31 10:08:25.5	304.090	0.370	0.440	1.630
2020/01/31 10:08:25.6	304.060	0.380	0.380	1.600
2020/01/31 10:08:25.7	304.030	0.390	0.320	1.560
2020/01/31 10:08:25.8	304.000	0.410	0.250	1.520
2020/01/31 10:08:25.9	303.980	0.420	0.180	1.470
2020/01/31 10:08:26.0	303.950	0.430	0.110	1.420
2020/01/31 10:08:26.1	303.920	0.440	0.030	1.370
2020/01/31 10:08:26.2	303.900	0.450	-0.050	1.310
2020/01/31 10:08:26.3	303.870	0.460	-0.130	1.250
2020/01/31 10:08:26.4	303.850	0.470	-0.220	1.170
2020/01/31 10:08:26.5	303.830	0.470	-0.310	1.100
2020/01/31 10:08:26.6	303.810	0.480	-0.390	1.030
2020/01/31 10:08:26.7	303.790	0.480	-0.480	0.950
2020/01/31 10:08:26.8	303.780	0.480	-0.570	0.860
2020/01/31 10:08:26.9	303.770	0.480	-0.660	0.770
2020/01/31 10:08:27.0	303.750	0.480	-0.750	0.680
2020/01/31 10:08:27.1	303.750	0.480	-0.840	0.590
2020/01/31 10:08:27.2	303.740	0.480	-0.930	0.490
2020/01/31 10:08:27.3	303.740	0.470	-1.010	0.390
2020/01/31 10:08:27.4	303.730	0.460	-1.090	0.290
2020/01/31 10:08:27.5	303.720	0.460	-1.170	0.180
2020/01/31 10:08:27.6	303.730	0.450	-1.240	0.080
2020/01/31 10:08:27.7	303.730	0.430	-1.300	-0.030
2020/01/31 10:08:27.8	303.740	0.420	-1.370	-0.140
2020/01/31 10:08:27.9	303.750	0.410	-1.420	-0.250
2020/01/31 10:08:28.0	303.760	0.390	-1.470	-0.360
2020/01/31 10:08:28.1	303.780	0.370	-1.520	-0.470
2020/01/31 10:08:28.2	303.800	0.350	-1.550	-0.570
2020/01/31 10:08:28.3	303.810	0.330	-1.580	-0.680
2020/01/31 10:08:28.4	303.830	0.310	-1.610	-0.780
2020/01/31 10:08:28.5	303.850	0.290	-1.620	-0.880
2020/01/31 10:08:28.6	303.880	0.270	-1.630	-0.990
2020/01/31 10:08:28.7	303.910	0.240	-1.620	-1.090
2020/01/31 10:08:28.8	303.940	0.210	-1.620	-1.180
2020/01/31 10:08:28.9	303.970	0.190	-1.600	-1.280
2020/01/31 10:08:29.0	304.010	0.160	-1.570	-1.370
2020/01/31 10:08:29.1	304.050	0.130	-1.540	-1.460
2020/01/31 10:08:29.2	304.080	0.100	-1.500	-1.540
2020/01/31 10:08:29.3	304.120	0.060	-1.450	-1.630
2020/01/31 10:08:29.4	304.170	0.030	-1.390	-1.700
2020/01/31 10:08:29.5	304.210	-0.010	-1.330	-1.780
2020/01/31 10:08:29.6	304.250	-0.040	-1.260	-1.850
2020/01/31 10:08:29.7	304.300	-0.080	-1.190	-1.920
2020/01/31 10:08:29.8	304.340	-0.120	-1.110	-1.980
2020/01/31 10:08:29.9	304.380	-0.150	-1.020	-2.030
2020/01/31 10:08:30.0	304.430	-0.190	-0.930	-2.080
2020/01/31 10:08:30.1	304.470	-0.230	-0.840	-2.130
2020/01/31 10:08:30.2	304.510	-0.270	-0.740	-2.170
2020/01/31 10:08:30.3	304.550	-0.310	-0.640	-2.200
2020/01/31 10:08:30.4	304.570	-0.350	-0.540	-2.230
2020/01/31 10:08:30.5	304.610	-0.390	-0.430	-2.250
2020/01/31 10:08:30.6	304.640	-0.430	-0.330	-2.270
2020/01/31 10:08:30.7	304.670	-0.470	-0.220	-2.280
2020/01/31 10:08:30.8	304.700	-0.510	-0.120	-2.280
2020/01/31 10:08:30.9	304.730	-0.550	-0.010	-2.280
2020/01/31 10:08:31.0	304.750	-0.580	0.090	-2.270
2020/01/31 10:08:31.1	304.780	-0.620	0.190	-2.250
2020/01/31 10:08:31.2	304.790	-0.650	0.280	-2.230
2020/01/31 10:08:31.3	304.810	-0.680	0.380	-2.200
2020/01/31 10:08:31.4	304.820	-0.710	0.470	-2.160
2020/01/31 10:08:31.5	304.830	-0.740	0.550	-2.120
2020/01/31 10:08:31.6	304.830	-0.770	0.640	-2.080
2020/01/31 10:08:31.7	304.840	-0.790	0.710	-2.030
2020/01/31 10:08:31.8	304.840	-0.810	0.780	-1.970
2020/01/31 10:08:31.9	304.850	-0.830	0.850	-1.910
2020/01/31 10:08:32.0	304.850	-0.840	0.910	-1.850
2020/01/31 10:08:32.1	304.840	-0.850	0.960	-1.780
2020/01/31 10:08:32.2	304.840	-0.860	1.010	-1.700
2020/01/31 10:08:32.3	304.840	-0.870	1.050	-1.630
2020/01/31 10:08:32.4	304.830	-0.870	1.080	-1.540
2020/01/31 10:08:32.5	304.830	-0.860	1.110	-1.460
2020/01/31 10:08:32.6	304.820	-0.860	1.130	-1.380
2020/01/31 10:08:32.7	304.810	-0.850	1.140	-1.290
2020/01/31 10:08:32.8	304.800	-0.840	1.150	-1.200
2020/01/31 10:08:32.9	304.780	-0.820	1.150	-1.110
2020/01/31 10:08:33.0	304.770	-0.800	1.140	-1.010
2020/01/31 10:08:33.1	304.760	-0.780	1.130	-0.920
2020/01/31 10:08:33.2	304.740	-0.750	1.110	-0.820
2020/01/31 10:08:33.3	304.720	-0.730	1.080	-0.720
2020/01/31 10:08:33.4	304.710	-0.690	1.060	-0.620
2020/01/31 10:08:33.5	304.700	-0.660	1.020	-0.510
2020/01/31 10:08:33.6	304.680	-0.620	0.980	-0.410
2020/01/31 10:08:33.7	304.660	-0.580	0.930	-0.310
2020/01/31 10:08:33.8	304.640	-0.540	0.880	-0.200
2020/01/31 10:08:33.9	304.620	-0.500	0.830	-0.100
2020/01/31 10:08:34.0	304.600	-0.460	0.770	0.000
2020/01/31 10:08:34.1	304.580	-0.410	0.710	0.110
2020/01/31 10:08:34.2	304.560	-0.360	0.650	0.210
2020/01/31 10:08:34.3	304.540	-0.320	0.580	0.310
2020/01/31 10:08:34.4	304.520	-0.270	0.510	0.420
2020/01/31 10:08:34.5	304.500	-0.220	0.440	0.520
2020/01/31 10:08:34.6	304.480	-0.170	0.370	0.620
2020/01/31 10:08:34.7	304.460	-0.120	0.290	0.720
2020/01/31 10:08:34.8	304.440	-0.070	0.220	0.820
2020/01/31 10:08:34.9	304.420	-0.020	0.140	0.910
2020/01/31 10:08:35.0	304.410	0.020	0.070	1.000
2020/01/31 10:08:35.1	304.390	0.070	-0.010	1.090
2020/01/31 10:08:35.2	304.370	0.110	-0.080	1.180
2020/01/31 10:08:35.3	304.350	0.160	-0.160	1.270
2020/01/31 10:08:35.4	304.330	0.200	-0.230	1.350
2020/01/31 10:08:35.5	304.310	0.240	-0.300	1.430
2020/01/31 10:08:35.6	304.290	0.280	-0.370	1.510
2020/01/31 10:08:35.7	304.280	0.320	-0.440	1.580
2020/01/31 10:08:35.8	304.260	0.350	-0.500	1.650
2020/01/31 10:08:35.9	304.250	0.380	-0.560	1.720
2020/01/31 10:08:36.0	304.240	0.410	-0.620	1.780
2020/01/31 10:08:36.1	304.220	0.440	-0.680	1.840
2020/01/31 10:08:36.2	304.210	0.470	-0.730	1.900
2020/01/31 10:08:36.3	304.200	0.490	-0.780	1.950
2020/01/31 10:08:36.4	304.170	0.510	-0.820	2.000
2020/01/31 10:08:36.5	304.160	0.530	-0.860	2.050
2020/01/31 10:08:36.6	304.150	0.550	-0.900	2.090
2020/01/31 10:08:36.7	304.140	0.570	-0.930	2.130
2020/01/31 10:08:36.8	304.140	0.580	-0.960	2.160
2020/01/31 10:08:36.9	304.130	0.590	-0.990	2.190
2020/01/31 10:08:37.0	304.120	0.600	-1.010	2.220
2020/01/31 10:08:37.1	304.120	0.610	-1.030	2.240
2020/01/31 10:08:37.2	304.120	0.610	-1.040	2.250
2020/01/31 10:08:37.3	304.110	0.620	-1.050	2.260
2020/01/31 10:08:37.4	304.130	0.620	-1.060	2.270
2020/01/31 10:08:37.5	304.130	0.620	-1.060	2.270
2020/01/31 10:08:37.6	304.130	0.610	-1.060	2.260
2020/01/31 10:08:37.7	304.130	0.610	-1.050	2.250
2020/01/31 10:08:37.8	304.140	0.610	-1.050	2.240
2020/01/31 10:08:37.9	304.140	0.600	-1.040	2.220
2020/01/31 10:08:38.0	304.140	0.590	-1.020	2.190
2020/01/31 10:08:38.1	304.150	0.580	-1.000	2.170
2020/01/31 10:08:38.2	304.150	0.570	-0.980	2.130
2020/01/31 10:08:38.3	304.160	0.560	-0.960	2.100
2020/01/31 10:08:38.4	304.170	0.550	-0.940	2.060
2020/01/31 10:08:38.5	304.170	0.530	-0.910	2.020
2020/01/31 10:08:38.6	304.170	0.520	-0.880	1.970
2020/01/31 10:08:38.7	304.180	0.500	-0.850	1.920
2020/01/31 10:08:38.8	304.180	0.480	-0.810	1.870
2020/01/31 10:08:38.9	304.180	0.470	-0.780	1.820
2020/01/31 10:08:39.0	304.190	0.450	-0.740	1.770
2020/01/31 10:08:39.1	304.190	0.430	-0.700	1.720
2020/01/31 10:08:39.2	304.180	0.410	-0.660	1.660
2020/01/31 10:08:39.3	304.180	0.390	-0.620	1.600
2020/01/31 10:08:39.4	304.170	0.370	-0.570	1.550
2020/01/31 10:08:39.5	304.170	0.350	-0.530	1.490
2020/01/31 10:08:39.6	304.160	0.330	-0.490	1.430
2020/01/31 10:08:39.7	304.150	0.310	-0.440	1.380
2020/01/31 10:08:39.8	304.150	0.290	-0.390	1.320
2020/01/31 10:08:39.9	304.140	0.270	-0.350	1.260
2020/01/31 10:08:40.0	304.120	0.250	-0.300	1.200
2020/01/31 10:08:40.1	304.110	0.220	-0.260	1.140
2020/01/31 10:08:40.2	304.100	0.200	-0.220	1.090
2020/01/31 10:08:40.3	304.090	0.180	-0.170	1.030
2020/01/31 10:08:40.4	304.060	0.170	-0.130	0.970
2020/01/31 10:08:40.5	304.050	0.150	-0.090	0.910
2020/01/31 10:08:40.6	304.030	0.130	-0.060	0.850
2020/01/31 10:08:40.7	304.010	0.110	-0.020	0.790
2020/01/31 10:08:40.8	303.990	0.090	0.010	0.730
2020/01/31 10:08:40.9	303.980	0.080	0.050	0.670
2020/01/31 10:08:41.0	303.960	0.060	0.070	0.610
2020/01/31 10:08:41.1	303.940	0.050	0.100	0.550
2020/01/31 10:08:41.2	303.920	0.040	0.130	0.480
2020/01/31 10:08:41.3	303.900	0.030	0.150	0.420
2020/01/31 10:08:41.4	303.900	0.010	0.170	0.360
2020/01/31 10:08:41.5	303.880	0.000	0.190	0.300
2020/01/31 10:08:41.6	303.860	-0.000	0.200	0.230
2020/01/31 10:08:41.7	303.840	-0.010	0.210	0.170
2020/01/31 10:08:41.8	303.820	-0.020	0.220	0.110
2020/01/31 10:08:41.9	303.810	-0.020	0.230	0.040
2020/01/31 10:08:42.0	303.790	-0.030	0.240	-0.020
2020/01/31 10:08:42.1	303.770	-0.030	0.240	-0.080
2020/01/31 10:08:42.2	303.750	-0.040	0.250	-0.140
2020/01/31 10:08:42.3	303.730	-0.040	0.250	-0.210
2020/01/31 10:08:42.4	303.710	-0.040	0.250	-0.270
2020/01/31 10:08:42.5	303.690	-0.040	0.250	-0.330
2020/01/31 10:08:42.6	303.670	-0.050	0.250	-0.390
2020/01/31 10:08:42.7	303.660	-0.050	0.250	-0.450
2020/01/31 10:08:42.8	303.640	-0.050	0.240	-0.500
2020/01/31 10:08:42.9	303.620	-0.050	0.240	-0.560
2020/01/31 10:08:43.0	303.600	-0.050	0.240	-0.610
2020/01/31 10:08:43.1	303.570	-0.050	0.230	-0.670
2020/01/31 10:08:43.2	303.550	-0.050	0.230	-0.720
2020/01/31 10:08:43.3	303.530	-0.050	0.230	-0.770
2020/01/31 10:08:43.4	303.520	-0.050	0.220	-0.810
2020/01/31 10:08:43.5	303.490	-0.060	0.220	-0.860
2020/01/31 10:08:43.6	303.470	-0.060	0.210	-0.900
2020/01/31 10:08:43.7	303.450	-0.060	0.210	-0.950
2020/01/31 10:08:43.8	303.430	-0.070	0.200	-0.990
2020/01/31 10:08:43.9	303.400	-0.070	0.200	-1.030
2020/01/31 10:08:44.0	303.380	-0.070	0.190	-1.060
2020/01/31 10:08:44.1	303.360	-0.080	0.190	-1.100
2020/01/31 10:08:44.2	303.340	-0.080	0.180	-1.130
2020/01/31 10:08:44.3	303.320	-0.090	0.170	-1.160
2020/01/31 10:08:44.4	303.300	-0.100	0.160	-1.190
2020/01/31 10:08:44.5	303.280	-0.100	0.160	-1.210
2020/01/31 10:08:44.6	303.270	-0.110	0.150	-1.230
2020/01/31 10:08:44.7	303.250	-0.110	0.140	-1.250
2020/01/31 10:08:44.8	303.240	-0.120	0.140	-1.260
2020/01/31 10:08:44.9	303.220	-0.130	0.130	-1.270
2020/01/31 10:08:45.0	303.210	-0.130	0.120	-1.280
2020/01/31 10:08:45.1	303.190	-0.140	0.120	-1.280
2020/01/31 10:08:45.2	303.180	-0.150	0.110	-1.280
2020/01/31 10:08:45.3	303.160	-0.150	0.110	-1.270
2020/01/31 10:08:45.4	303.160	-0.160	0.110	-1.270
2020/01/31 10:08:45.5	303.150	-0.160	0.100	-1.250
2020/01/31 10:08:45.6	303.140	-0.170	0.100	-1.230
2020/01/31 10:08:45.7	303.130	-0.170	0.100	-1.210
2020/01/31 10:08:45.8	303.120	-0.170	0.100	-1.180
2020/01/31 10:08:45.9	303.110	-0.180	0.100	-1.150
2020/01/31 10:08:46.0	303.100	-0.180	0.090	-1.120
2020/01/31 10:08:46.1	303.090	-0.180	0.090	-1.080
2020/01/31 10:08:46.2	303.080	-0.180	0.090	-1.040
2020/01/31 10:08:46.3	303.070	-0.180	0.090	-0.990
2020/01/31 10:08:46.4	303.060	-0.180	0.080	-0.940
2020/01/31 10:08:46.5	303.060	-0.180	0.070	-0.880
2020/01/31 10:08:46.6	303.050	-0.180	0.060	-0.830
2020/01/31 10:08:46.7	303.050	-0.180	0.050	-0.770
2020/01/31 10:08:46.8	303.050	-0.180	0.040	-0.710
2020/01/31 10:08:46.9	303.050	-0.180	0.020	-0.640
2020/01/31 10:08:47.0	303.050	-0.170	0.000	-0.570
2020/01/31 10:08:47.1	303.050	-0.170	-0.020	-0.500
2020/01/31 10:08:47.2	303.050	-0.170	-0.040	-0.430
2020/01/31 10:08:47.3	303.050	-0.160	-0.070	-0.360
2020/01/31 10:08:47.4	303.060	-0.160	-0.100	-0.280
2020/01/31 10:08:47.5	303.060	-0.160	-0.130	-0.210
2020/01/31 10:08:47.6	303.060	-0.150	-0.170	-0.130
2020/01/31 10:08:47.7	303.060	-0.150	-0.200	-0.050
2020/01/31 10:08:47.8	303.060	-0.140	-0.240	0.030
2020/01/31 10:08:47.9	303.060	-0.140	-0.290	0.110
2020/01/31 10:08:48.0	303.070	-0.140	-0.330	0.200
2020/01/31 10:08:48.1	303.070	-0.130	-0.370	0.280
2020/01/31 10:08:48.2	303.070	-0.130	-0.420	0.360
2020/01/31 10:08:48.3	303.070	-0.120	-0.460	0.440
2020/01/31 10:08:48.4	303.060	-0.120	-0.510	0.520
2020/01/31 10:08:48.5	303.060	-0.120	-0.560	0.610
2020/01/31 10:08:48.6	303.060	-0.110	-0.600	0.690
2020/01/31 10:08:48.7	303.060	-0.110	-0.650	0.770
2020/01/31 10:08:48.8	303.060	-0.110	-0.690	0.850
2020/01/31 10:08:48.9	303.060	-0.110	-0.730	0.930
2020/01/31 10:08:49.0	303.060	-0.100	-0.770	1.000
2020/01/31 10:08:49.1	303.050	-0.100	-0.810	1.080
2020/01/31 10:08:49.2	303.050	-0.100	-0.850	1.150
2020/01/31 10:08:49.3	303.050	-0.100	-0.880	1.220
2020/01/31 10:08:49.4	303.030	-0.100	-0.910	1.290
2020/01/31 10:08:49.5	303.030	-0.100	-0.930	1.360
2020/01/31 10:08:49.6	303.030	-0.100	-0.950	1.420
2020/01/31 10:08:49.7	303.020	-0.090	-0.960	1.480
2020/01/31 10:08:49.8	303.020	-0.090	-0.970	1.540
2020/01/31 10:08:49.9	303.010	-0.090	-0.980	1.590
2020/01/31 10:08:50.0	303.010	-0.100	-0.980	1.640
2020/01/31 10:08:50.1	303.010	-0.100	-0.970	1.690
2020/01/31 10:08:50.2	303.000	-0.100	-0.960	1.740
2020/01/31 10:08:50.3	303.000	-0.100	-0.940	1.780
2020/01/31 10:08:50.4	303.000	-0.100	-0.920	1.820
2020/01/31 10:08:50.5	303.000	-0.100	-0.900	1.860
2020/01/31 10:08:50.6	303.000	-0.100	-0.860	1.890
2020/01/31 10:08:50.7	302.990	-0.110	-0.820	1.920
2020/01/31 10:08:50.8	302.990	-0.110	-0.780	1.940
2020/01/31 10:08:50.9	302.990	-0.110	-0.730	1.970
2020/01/31 10:08:51.0	302.980	-0.110	-0.680	1.990
2020/01/31 10:08:51.1	302.980	-0.110	-0.630	2.000
2020/01/31 10:08:51.2	302.970	-0.110	-0.570	2.020
2020/01/31 10:08:51.3	302.970	-0.110	-0.510	2.030
2020/01/31 10:08:51.4	302.970	-0.110	-0.450	2.040
2020/01/31 10:08:51.5	302.960	-0.110	-0.390	2.050
2020/01/31 10:08:51.6	302.960	-0.110	-0.320	2.060
2020/01/31 10:08:51.7	302.960	-0.110	-0.260	2.060
2020/01/31 10:08:51.8	302.950	-0.110	-0.200	2.060
2020/01/31 10:08:51.9	302.950	-0.100	-0.130	2.070
2020/01/31 10:08:52.0	302.940	-0.100	-0.070	2.070
2020/01/31 10:08:52.1	302.940	-0.090	-0.010	2.070
2020/01/31 10:08:52.2	302.940	-0.080	0.040	2.070
2020/01/31 10:08:52.3	302.930	-0.070	0.100	2.070
2020/01/31 10:08:52.4	302.940	-0.060	0.150	2.070
2020/01/31 10:08:52.5	302.940	-0.050	0.200	2.060
2020/01/31 10:08:52.6	302.930	-0.030	0.240	2.060
2020/01/31 10:08:52.7	302.930	-0.020	0.280	2.060
2020/01/31 10:08:52.8	302.930	-0.000	0.320	2.050
2020/01/31 10:08:52.9	302.940	0.010	0.350	2.040
2020/01/31 10:08:53.0	302.940	0.030	0.380	2.040
2020/01/31 10:08:53.1	302.940	0.050	0.400	2.030
2020/01/31 10:08:53.2	302.940	0.070	0.420	2.020
2020/01/31 10:08:53.3	302.950	0.090	0.430	2.010
2020/01/31 10:08:53.4	302.950	0.120	0.440	2.000
2020/01/31 10:08:53.5	302.960	0.140	0.440	1.980
2020/01/31 10:08:53.6	302.970	0.160	0.440	1.970
2020/01/31 10:08:53.7	302.970	0.190	0.440	1.960
2020/01/31 10:08:53.8	302.980	0.210	0.430	1.940
2020/01/31 10:08:53.9	302.990	0.230	0.420	1.920
2020/01/31 10:08:54.0	303.000	0.260	0.400	1.900
2020/01/31 10:08:54.1	303.010	0.280	0.380	1.880
2020/01/31 10:08:54.2	303.020	0.300	0.360	1.850
2020/01/31 10:08:54.3	303.030	0.320	0.330	1.830
2020/01/31 10:08:54.4	303.050	0.340	0.300	1.800
2020/01/31 10:08:54.5	303.060	0.360	0.270	1.760
2020/01/31 10:08:54.6	303.070	0.380	0.240	1.730
2020/01/31 10:08:54.7	303.080	0.390	0.200	1.690
2020/01/31 10:08:54.8	303.090	0.410	0.170	1.650
2020/01/31 10:08:54.9	303.100	0.420	0.130	1.610
2020/01/31 10:08:55.0	303.110	0.430	0.090	1.560
2020/01/31 10:08:55.1	303.120	0.440	0.050	1.510
2020/01/31 10:08:55.2	303.130	0.450	0.020	1.460
2020/01/31 10:08:55.3	303.140	0.460	-0.020	1.410
2020/01/31 10:08:55.4	303.140	0.460	-0.060	1.350
2020/01/31 10:08:55.5	303.150	0.460	-0.090	1.290
2020/01/31 10:08:55.6	303.150	0.460	-0.130	1.230
2020/01/31 10:08:55.7	303.160	0.460	-0.160	1.170
2020/01/31 10:08:55.8	303.160	0.450	-0.180	1.110
2020/01/31 10:08:55.9	303.160	0.450	-0.210	1.040
2020/01/31 10:08:56.0	303.160	0.440	-0.230	0.970
2020/01/31 10:08:56.1	303.160	0.430	-0.260	0.900
2020/01/31 10:08:56.2	303.160	0.420	-0.270	0.820
2020/01/31 10:08:56.3	303.160	0.410	-0.290	0.750
2020/01/31 10:08:56.4	303.160	0.390	-0.300	0.670
2020/01/31 10:08:56.5	303.150	0.380	-0.320	0.590
2020/01/31 10:08:56.6	303.150	0.360	-0.320	0.510
2020/01/31 10:08:56.7	303.140	0.340	-0.330	0.420
2020/01/31 10:08:56.8	303.130	0.320	-0.340	0.340
2020/01/31 10:08:56.9	303.120	0.300	-0.340	0.250
2020/01/31 10:08:57.0	303.120	0.280	-0.340	0.160
2020/01/31 10:08:57.1	303.110	0.250	-0.350	0.070
2020/01/31 10:08:57.2	303.100	0.230	-0.350	-0.030
2020/01/31 10:08:57.3	303.090	0.210	-0.350	-0.120
2020/01/31 10:08:57.4	303.070	0.180	-0.350	-0.220
2020/01/31 10:08:57.5	303.060	0.160	-0.340	-0.320
2020/01/31 10:08:57.6	303.050	0.130	-0.340	-0.420
2020/01/31 10:08:57.7	303.050	0.110	-0.340	-0.520
2020/01/31 10:08:57.8	303.040	0.080	-0.340	-0.620
2020/01/31 10:08:57.9	303.030	0.060	-0.340	-0.720
2020/01/31 10:08:58.0	303.020	0.030	-0.340	-0.820
2020/01/31 10:08:58.1	303.010	0.010	-0.340	-0.920
2020/01/31 10:08:58.2	303.000	-0.010	-0.340	-1.020
2020/01/31 10:08:58.3	302.990	-0.040	-0.340	-1.120
2020/01/31 10:08:58.4	302.970	-0.060	-0.350	-1.220
2020/01/31 10:08:58.5	302.960	-0.080	-0.350	-1.310
2020/01/31 10:08:58.6	302.950	-0.100	-0.350	-1.400
2020/01/31 10:08:58.7	302.940	-0.120	-0.340	-1.490
2020/01/31 10:08:58.8	302.930	-0.140	-0.340	-1.570
2020/01/31 10:08:58.9	302.920	-0.160	-0.340	-1.650
2020/01/31 10:08:59.0	302.910	-0.170	-0.340	-1.730
2020/01/31 10:08:59.1	302.910	-0.190	-0.330	-1.800
2020/01/31 10:08:59.2	302.900	-0.200	-0.330	-1.870
2020/01/31 10:08:59.3	302.890	-0.220	-0.320	-1.930
2020/01/31 10:08:59.4	302.870	-0.230	-0.320	-1.990
2020/01/31 10:08:59.5	302.860	-0.240	-0.310	-2.040
2020/01/31 10:08:59.6	302.850	-0.250	-0.300	-2.090
2020/01/31 10:08:59.7	302.840	-0.260	-0.290	-2.140
2020/01/31 10:08:59.8	302.830	-0.270	-0.280	-2.180
2020/01/31 10:08:59.9	302.830	-0.270	-0.260	-2.210
2020/01/31 10:09:00.0	302.820	-0.280	-0.250	-2.240
2020/01/31 10:09:00.1	302.810	-0.280	-0.240	-2.270
2020/01/31 10:09:00.2	302.810	-0.290	-0.220	-2.290
2020/01/31 10:09:00.3	302.810	-0.290	-0.200	-2.300
2020/01/31 10:09:00.4	302.810	-0.290	-0.190	-2.310
2020/01/31 10:09:00.5	302.810	-0.290	-0.170	-2.310
2020/01/31 10:09:00.6	302.800	-0.290	-0.160	-2.310
2020/01/31 10:09:00.7	302.800	-0.290	-0.140	-2.300
2020/01/31 10:09:00.8	302.800	-0.290	-0.120	-2.290
2020/01/31 10:09:00.9	302.800	-0.290	-0.110	-2.270
2020/01/31 10:09:01.0	302.800	-0.290	-0.100	-2.250
2020/01/31 10:09:01.1	302.810	-0.290	-0.080	-2.220
2020/01/31 10:09:01.2	302.810	-0.280	-0.070	-2.190
2020/01/31 10:09:01.3	302.810	-0.280	-0.060	-2.140
2020/01/31 10:09:01.4	302.820	-0.280	-0.040	-2.100
2020/01/31 10:09:01.5	302.820	-0.280	-0.030	-2.040
2020/01/31 10:09:01.6	302.820	-0.270	-0.020	-1.980
2020/01/31 10:09:01.7	302.820	-0.270	-0.020	-1.920
2020/01/31 10:09:01.8	302.820	-0.270	-0.010	-1.850
2020/01/31 10:09:01.9	302.820	-0.270	-0.000	-1.770
2020/01/31 10:09:02.0	302.820	-0.260	0.000	-1.690
2020/01/31 10:09:02.1	302.820	-0.260	0.010	-1.610
2020/01/31 10:09:02.2	302.820	-0.260	0.010	-1.520
2020/01/31 10:09:02.3	302.820	-0.260	0.010	-1.430
2020/01/31 10:09:02.4	302.810	-0.250	0.010	-1.330
2020/01/31 10:09:02.5	302.810	-0.250	0.010	-1.230
2020/01/31 10:09:02.6	302.810	-0.250	0.010	-1.130
2020/01/31 10:09:02.7	302.800	-0.240	0.010	-1.020
2020/01/31 10:09:02.8	302.790	-0.240	0.000	-0.910
2020/01/31 10:09:02.9	302.780	-0.240	0.000	-0.800
2020/01/31 10:09:03.0	302.770	-0.230	-0.000	-0.690
2020/01/31 10:09:03.1	302.760	-0.230	-0.010	-0.570
2020/01/31 10:09:03.2	302.750	-0.220	-0.010	-0.460
2020/01/31 10:09:03.3	302.740	-0.220	-0.020	-0.340
2020/01/31 10:09:03.4	302.730	-0.210	-0.020	-0.230
2020/01/31 10:09:03.5	302.720	-0.210	-0.020	-0.110
2020/01/31 10:09:03.6	302.700	-0.200	-0.030	0.010
2020/01/31 10:09:03.7	302.680	-0.190	-0.040	0.120
2020/01/31 10:09:03.8	302.670	-0.190	-0.050	0.230
2020/01/31 10:09:03.9	302.650	-0.180	-0.050	0.350
2020/01/31 10:09:04.0	302.630	-0.170	-0.060	0.460
2020/01/31 10:09:04.1	302.610	-0.160	-0.070	0.570
2020/01/31 10:09:04.2	302.590	-0.150	-0.080	0.680
2020/01/31 10:09:04.3	302.560	-0.140	-0.090	0.780
2020/01/31 10:09:04.4	302.540	-0.120	-0.100	0.890
2020/01/31 10:09:04.5	302.510	-0.110	-0.110	0.990
2020/01/31 10:09:04.6	302.490	-0.100	-0.120	1.090
2020/01/31 10:09:04.7	302.460	-0.090	-0.130	1.190
2020/01/31 10:09:04.8	302.430	-0.070	-0.140	1.290
2020/01/31 10:09:04.9	302.400	-0.060	-0.160	1.380
2020/01/31 10:09:05.0	302.370	-0.040	-0.170	1.470
2020/01/31 10:09:05.1	302.330	-0.030	-0.180	1.560
2020/01/31 10:09:05.2	302.300	-0.010	-0.200	1.650
2020/01/31 10:09:05.3	302.270	0.000	-0.210	1.730
2020/01/31 10:09:05.4	302.230	0.020	-0.230	1.810
2020/01/31 10:09:05.5	302.190	0.040	-0.250	1.880
2020/01/31 10:09:05.6	302.150	0.050	-0.270	1.950
2020/01/31 10:09:05.7	302.120	0.070	-0.280	2.020
2020/01/31 10:09:05.8	302.080	0.090	-0.300	2.080
2020/01/31 10:09:05.9	302.040	0.100	-0.320	2.140
2020/01/31 10:09:06.0	302.010	0.120	-0.350	2.200
2020/01/31 10:09:06.1	301.970	0.140	-0.370	2.250
2020/01/31 10:09:06.2	301.930	0.150	-0.390	2.300
2020/01/31 10:09:06.3	301.890	0.170	-0.410	2.340
2020/01/31 10:09:06.4	301.860	0.190	-0.430	2.380
2020/01/31 10:09:06.5	301.820	0.200	-0.450	2.410
2020/01/31 10:09:06.6	301.790	0.220	-0.470	2.440
2020/01/31 10:09:06.7	301.750	0.230	-0.490	2.470
2020/01/31 10:09:06.8	301.720	0.250	-0.510	2.490
2020/01/31 10:09:06.9	301.690	0.260	-0.530	2.510
2020/01/31 10:09:07.0	301.660	0.270	-0.550	2.530
2020/01/31 10:09:07.1	301.630	0.280	-0.560	2.540
2020/01/31 10:09:07.2	301.610	0.300	-0.580	2.550
2020/01/31 10:09:07.3	301.580	0.310	-0.590	2.550
2020/01/31 10:09:07.4	301.580	0.320	-0.600	2.540
2020/01/31 10:09:07.5	301.560	0.330	-0.610	2.540
2020/01/31 10:09:07.6	301.550	0.330	-0.620	2.530
2020/01/31 10:09:07.7	301.530	0.340	-0.630	2.520
2020/01/31 10:09:07.8	301.520	0.350	-0.630	2.500
2020/01/31 10:09:07.9	301.510	0.350	-0.630	2.480
2020/01/31 10:09:08.0	301.510	0.350	-0.630	2.460
2020/01/31 10:09:08.1	301.510	0.360	-0.630	2.430
2020/01/31 10:09:08.2	301.510	0.360	-0.620	2.400
2020/01/31 10:09:08.3	301.510	0.360	-0.610	2.370
2020/01/31 10:09:08.4	301.530	0.350	-0.600	2.330
2020/01/31 10:09:08.5	301.540	0.350	-0.580	2.290
2020/01/31 10:09:08.6	301.540	0.350	-0.560	2.250
2020/01/31 10:09:08.7	301.550	0.340	-0.540	2.200
2020/01/31 10:09:08.8	301.570	0.330	-0.520	2.150
2020/01/31 10:09:08.9	301.580	0.330	-0.490	2.110
2020/01/31 10:09:09.0	301.590	0.320	-0.460	2.060
2020/01/31 10:09:09.1	301.600	0.310	-0.430	2.010
2020/01/31 10:09:09.2	301.620	0.290	-0.400	1.950
2020/01/31 10:09:09.3	301.630	0.280	-0.370	1.900
2020/01/31 10:09:09.4	301.660	0.270	-0.330	1.850
2020/01/31 10:09:09.5	301.670	0.250	-0.300	1.790
2020/01/31 10:09:09.6	301.690	0.230	-0.260	1.730
2020/01/31 10:09:09.7	301.700	0.220	-0.220	1.680
2020/01/31 10:09:09.8	301.710	0.200	-0.180	1.620
2020/01/31 10:09:09.9	301.730	0.180	-0.150	1.560
2020/01/31 10:09:10.0	301.740	0.160	-0.110	1.500
2020/01/31 10:09:10.1	301.760	0.140	-0.070	1.440
2020/01/31 10:09:10.2	301.770	0.120	-0.040	1.380
2020/01/31 10:09:10.3	301.780	0.100	-0.000	1.320
2020/01/31 10:09:10.4	301.800	0.080	0.030	1.250
2020/01/31 10:09:10.5	301.810	0.060	0.060	1.190
2020/01/31 10:09:10.6	301.820	0.040	0.090	1.120
2020/01/31 10:09:10.7	301.830	0.020	0.120	1.060
2020/01/31 10:09:10.8	301.840	0.000	0.150	0.990
2020/01/31 10:09:10.9	301.860	-0.020	0.170	0.930
2020/01/31 10:09:11.0	301.870	-0.040	0.200	0.860
2020/01/31 10:09:11.1	301.880	-0.060	0.220	0.790
2020/01/31 10:09:11.2	301.890	-0.080	0.240	0.730
2020/01/31 10:09:11.3	301.900	-0.090	0.260	0.660
2020/01/31 10:09:11.4	301.890	-0.110	0.280	0.590
2020/01/31 10:09:11.5	301.900	-0.130	0.290	0.520
2020/01/31 10:09:11.6	301.900	-0.140	0.310	0.450
2020/01/31 10:09:11.7	301.910	-0.160	0.320	0.380
2020/01/31 10:09:11.8	301.910	-0.170	0.330	0.320
2020/01/31 10:09:11.9	301.920	-0.180	0.340	0.250
2020/01/31 10:09:12.0	301.920	-0.190	0.350	0.180
2020/01/31 10:09:12.1	301.920	-0.200	0.360	0.120
2020/01/31 10:09:12.2	301.910	-0.210	0.370	0.060
2020/01/31 10:09:12.3	301.910	-0.220	0.370	-0.010
2020/01/31 10:09:12.4	301.900	-0.230	0.370	-0.070
2020/01/31 10:09:12.5	301.890	-0.240	0.380	-0.130
2020/01/31 10:09:12.6	301.880	-0.250	0.380	-0.190
2020/01/31 10:09:12.7	301.870	-0.260	0.380	-0.250
2020/01/31 10:09:12.8	301.860	-0.260	0.380	-0.300
2020/01/31 10:09:12.9	301.840	-0.270	0.380	-0.360
2020/01/31 10:09:13.0	301.820	-0.270	0.370	-0.410
2020/01/31 10:09:13.1	301.800	-0.280	0.370	-0.460
2020/01/31 10:09:13.2	301.780	-0.280	0.360	-0.510
2020/01/31 10:09:13.3	301.760	-0.280	0.360	-0.550
2020/01/31 10:09:13.4	301.740	-0.290	0.350	-0.590
2020/01/31 10:09:13.5	301.710	-0.290	0.340	-0.630
2020/01/31 10:09:13.6	301.680	-0.290	0.330	-0.670
2020/01/31 10:09:13.7	301.650	-0.290	0.310	-0.710
2020/01/31 10:09:13.8	301.620	-0.290	0.300	-0.740
2020/01/31 10:09:13.9	301.590	-0.290	0.280	-0.770
2020/01/31 10:09:14.0	301.560	-0.290	0.260	-0.790
2020/01/31 10:09:14.1	301.530	-0.290	0.240	-0.820
2020/01/31 10:09:14.2	301.490	-0.290	0.220	-0.840
2020/01/31 10:09:14.3	301.460	-0.290	0.200	-0.850
2020/01/31 10:09:14.4	301.420	-0.290	0.170	-0.870
2020/01/31 10:09:14.5	301.380	-0.280	0.140	-0.880
2020/01/31 10:09:14.6	301.350	-0.280	0.110	-0.890
2020/01/31 10:09:14.7	301.310	-0.280	0.080	-0.890
2020/01/31 10:09:14.8	301.270	-0.270	0.040	-0.890
2020/01/31 10:09:14.9	301.230	-0.260	0.000	-0.890
2020/01/31 10:09:15.0	301.200	-0.260	-0.040	-0.890
2020/01/31 10:09:15.1	301.160	-0.250	-0.080	-0.880
2020/01/31 10:09:15.2	301.130	-0.240	-0.120	-0.880
2020/01/31 10:09:15.3	301.100	-0.230	-0.170	-0.870
2020/01/31 10:09:15.4	301.070	-0.220	-0.220	-0.860
2020/01/31 10:09:15.5	301.040	-0.210	-0.270	-0.850
2020/01/31 10:09:15.6	301.020	-0.200	-0.320	-0.830
2020/01/31 10:09:15.7	301.000	-0.190	-0.380	-0.820
2020/01/31 10:09:15.8	300.980	-0.170	-0.430	-0.800
2020/01/31 10:09:15.9	300.960	-0.160	-0.490	-0.790
2020/01/31 10:09:16.0	300.950	-0.140	-0.550	-0.770
2020/01/31 10:09:16.1	300.940	-0.130	-0.600	-0.750
2020/01/31 10:09:16.2	300.930	-0.110	-0.660	-0.730
2020/01/31 10:09:16.3	300.930	-0.100	-0.720	-0.720
2020/01/31 10:09:16.4	300.930	-0.080	-0.770	-0.690
2020/01/31 10:09:16.5	300.930	-0.060	-0.830	-0.680
2020/01/31 10:09:16.6	300.940	-0.040	-0.880	-0.660
2020/01/31 10:09:16.7	300.950	-0.030	-0.930	-0.640
2020/01/31 10:09:16.8	300.970	-0.010	-0.980	-0.620
2020/01/31 10:09:16.9	300.990	0.010	-1.030	-0.600
2020/01/31 10:09:17.0	301.010	0.020	-1.070	-0.580
2020/01/31 10:09:17.1	301.030	0.040	-1.110	-0.560
2020/01/31 10:09:17.2	301.060	0.050	-1.140	-0.540
2020/01/31 10:09:17.3	301.090	0.070	-1.170	-0.520
2020/01/31 10:09:17.4	301.110	0.080	-1.200	-0.510
2020/01/31 10:09:17.5	301.140	0.090	-1.220	-0.490
2020/01/31 10:09:17.6	301.180	0.100	-1.230	-0.470
2020/01/31 10:09:17.7	301.220	0.110	-1.240	-0.450
2020/01/31 10:09:17.8	301.260	0.120	-1.250	-0.430
2020/01/31 10:09:17.9	301.310	0.120	-1.240	-0.420
2020/01/31 10:09:18.0	301.350	0.130	-1.230	-0.400
2020/01/31 10:09:18.1	301.400	0.130	-1.220	-0.380
2020/01/31 10:09:18.2	301.440	0.130	-1.200	-0.360
2020/01/31 10:09:18.3	301.490	0.130	-1.170	-0.330
2020/01/31 10:09:18.4	301.530	0.130	-1.140	-0.310
2020/01/31 10:09:18.5	301.580	0.130	-1.100	-0.280
2020/01/31 10:09:18.6	301.620	0.120	-1.050	-0.250
2020/01/31 10:09:18.7	301.660	0.120	-1.000	-0.220
2020/01/31 10:09:18.8	301.700	0.110	-0.950	-0.190
2020/01/31 10:09:18.9	301.740	0.100	-0.880	-0.150
2020/01/31 10:09:19.0	301.780	0.090	-0.820	-0.110
2020/01/31 10:09:19.1	301.810	0.080	-0.750	-0.060
2020/01/31 10:09:19.2	301.840	0.070	-0.670	-0.010
2020/01/31 10:09:19.3	301.870	0.060	-0.600	0.040
2020/01/31 10:09:19.4	301.900	0.050	-0.520	0.100
2020/01/31 10:09:19.5	301.920	0.040	-0.430	0.160
2020/01/31 10:09:19.6	301.930	0.030	-0.350	0.230
2020/01/31 10:09:19.7	301.940	0.020	-0.260	0.290
2020/01/31 10:09:19.8	301.950	0.010	-0.170	0.360
2020/01/31 10:09:19.9	301.960	-0.000	-0.080	0.440
2020/01/31 10:09:20.0	301.960	-0.010	0.010	0.510
2020/01/31 10:09:20.1	301.950	-0.020	0.090	0.590
2020/01/31 10:09:20.2	301.950	-0.030	0.180	0.670
2020/01/31 10:09:20.3	301.940	-0.030	0.260	0.750
2020/01/31 10:09:20.4	301.910	-0.040	0.340	0.830
2020/01/31 10:09:20.5	301.900	-0.040	0.410	0.910
2020/01/31 10:09:20.6	301.880	-0.050	0.480	0.990
2020/01/31 10:09:20.7	301.860	-0.050	0.550	1.070
2020/01/31 10:09:20.8	301.840	-0.050	0.610	1.140
2020/01/31 10:09:20.9	301.820	-0.050	0.670	1.210
2020/01/31 10:09:21.0	301.800	-0.050	0.720	1.280
2020/01/31 10:09:21.1	301.770	-0.040	0.760	1.350
2020/01/31 10:09:21.2	301.750	-0.040	0.800	1.410
2020/01/31 10:09:21.3	301.720	-0.030	0.830	1.470
2020/01/31 10:09:21.4	301.690	-0.030	0.850	1.530
2020/01/31 10:09:21.5	301.660	-0.020	0.870	1.580
2020/01/31 10:09:21.6	301.640	-0.010	0.880	1.630
2020/01/31 10:09:21.7	301.610	-0.000	0.890	1.670
2020/01/31 10:09:21.8	301.580	0.010	0.890	1.720
2020/01/31 10:09:21.9	301.550	0.020	0.880	1.750
2020/01/31 10:09:22.0	301.520	0.040	0.870	1.790
2020/01/31 10:09:22.1	301.490	0.050	0.850	1.820
2020/01/31 10:09:22.2	301.470	0.060	0.830	1.840
2020/01/31 10:09:22.3	301.440	0.080	0.800	1.870
2020/01/31 10:09:22.4	301.420	0.090	0.770	1.880
2020/01/31 10:09:22.5	301.390	0.100	0.740	1.900
2020/01/31 10:09:22.6	301.360	0.120	0.700	1.920
2020/01/31 10:09:22.7	301.330	0.130	0.670	1.930
2020/01/31 10:09:22.8	301.300	0.150	0.630	1.940
2020/01/31 10:09:22.9	301.270	0.160	0.580	1.940
2020/01/31 10:09:23.0	301.240	0.170	0.540	1.950
2020/01/31 10:09:23.1	301.220	0.190	0.490	1.950
2020/01/31 10:09:23.2	301.190	0.200	0.440	1.940
2020/01/31 10:09:23.3	301.160	0.210	0.400	1.940
2020/01/31 10:09:23.4	301.140	0.220	0.340	1.920
2020/01/31 10:09:23.5	301.110	0.230	0.290	1.910
2020/01/31 10:09:23.6	301.090	0.230	0.240	1.890
2020/01/31 10:09:23.7	301.060	0.240	0.190	1.870
2020/01/31 10:09:23.8	301.040	0.250	0.130	1.850
2020/01/31 10:09:23.9	301.020	0.250	0.080	1.820
2020/01/31 10:09:24.0	301.000	0.250	0.020	1.780
2020/01/31 10:09:24.1	300.980	0.250	-0.040	1.740
2020/01/31 10:09:24.2	300.960	0.250	-0.090	1.700
2020/01/31 10:09:24.3	300.950	0.250	-0.150	1.640
2020/01/31 10:09:24.4	300.950	0.240	-0.210	1.590
2020/01/31 10:09:24.5	300.930	0.240	-0.270	1.530
2020/01/31 10:09:24.6	300.920	0.230	-0.330	1.460
2020/01/31 10:09:24.7	300.910	0.220	-0.380	1.390
2020/01/31 10:09:24.8	300.910	0.210	-0.440	1.310
2020/01/31 10:09:24.9	300.900	0.190	-0.500	1.230
2020/01/31 10:09:25.0	300.900	0.180	-0.550	1.140
2020/01/31 10:09:25.1	300.890	0.160	-0.610	1.050
2020/01/31 10:09:25.2	300.890	0.140	-0.660	0.960
2020/01/31 10:09:25.3	300.890	0.120	-0.710	0.860
2020/01/31 10:09:25.4	300.890	0.100	-0.760	0.760
2020/01/31 10:09:25.5	300.900	0.080	-0.800	0.660
2020/01/31 10:09:25.6	300.900	0.060	-0.840	0.550
2020/01/31 10:09:25.7	300.900	0.040	-0.880	0.450
2020/01/31 10:09:25.8	300.910	0.020	-0.910	0.340
2020/01/31 10:09:25.9	300.910	-0.010	-0.940	0.230
2020/01/31 10:09:26.0	300.910	-0.030	-0.970	0.120
2020/01/31 10:09:26.1	300.920	-0.060	-0.990	0.010
2020/01/31 10:09:26.2	300.920	-0.080	-1.010	-0.100
2020/01/31 10:09:26.3	300.930	-0.110	-1.020	-0.210
2020/01/31 10:09:26.4	300.920	-0.130	-1.030	-0.320
2020/01/31 10:09:26.5	300.920	-0.160	-1.030	-0.430
2020/01/31 10:09:26.6	300.930	-0.180	-1.030	-0.540
2020/01/31 10:09:26.7	300.930	-0.200	-1.020	-0.640
2020/01/31 10:09:26.8	300.930	-0.220	-1.020	-0.740
2020/01/31 10:09:26.9	300.930	-0.240	-1.000	-0.840
2020/01/31 10:09:27.0	300.940	-0.260	-0.990	-0.940
2020/01/31 10:09:27.1	300.940	-0.280	-0.960	-1.030
2020/01/31 10:09:27.2	300.940	-0.300	-0.940	-1.120
2020/01/31 10:09:27.3	300.940	-0.310	-0.910	-1.210
2020/01/31 10:09:27.4	300.930	-0.330	-0.890	-1.290
2020/01/31 10:09:27.5	300.920	-0.340	-0.850	-1.370
2020/01/31 10:09:27.6	300.920	-0.350	-0.820	-1.440
2020/01/31 10:09:27.7	300.910	-0.360	-0.780	-1.510
2020/01/31 10:09:27.8	300.910	-0.370	-0.750	-1.570
2020/01/31 10:09:27.9	300.900	-0.380	-0.710	-1.630
2020/01/31 10:09:28.0	300.900	-0.380	-0.670	-1.680
2020/01/31 10:09:28.1	300.890	-0.380	-0.630	-1.730
2020/01/31 10:09:28.2	300.880	-0.380	-0.590	-1.780
2020/01/31 10:09:28.3	300.880	-0.380	-0.550	-1.810
2020/01/31 10:09:28.4	300.880	-0.380	-0.510	-1.850
2020/01/31 10:09:28.5	300.870	-0.370	-0.470	-1.870
2020/01/31 10:09:28.6	300.870	-0.370	-0.430	-1.900
2020/01/31 10:09:28.7	300.860	-0.360	-0.400	-1.910
2020/01/31 10:09:28.8	300.850	-0.350	-0.360	-1.920
2020/01/31 10:09:28.9	300.840	-0.340	-0.320	-1.930
2020/01/31 10:09:29.0	300.830	-0.330	-0.290	-1.930
2020/01/31 10:09:29.1	300.820	-0.320	-0.250	-1.930
2020/01/31 10:09:29.2	300.800	-0.300	-0.220	-1.920
2020/01/31 10:09:29.3	300.790	-0.290	-0.190	-1.900
2020/01/31 10:09:29.4	300.780	-0.270	-0.150	-1.880
2020/01/31 10:09:29.5	300.770	-0.260	-0.120	-1.860
2020/01/31 10:09:29.6	300.750	-0.240	-0.090	-1.830
2020/01/31 10:09:29.7	300.740	-0.230	-0.060	-1.800
2020/01/31 10:09:29.8	300.720	-0.210	-0.030	-1.760
2020/01/31 10:09:29.9	300.710	-0.200	-0.010	-1.720
2020/01/31 10:09:30.0	300.690	-0.190	0.020	-1.680
2020/01/31 10:09:30.1	300.680	-0.170	0.050	-1.630
2020/01/31 10:09:30.2	300.660	-0.160	0.070	-1.580
2020/01/31 10:09:30.3	300.640	-0.150	0.100	-1.530
2020/01/31 10:09:30.4	300.630	-0.140	0.120	-1.470
2020/01/31 10:09:30.5	300.610	-0.130	0.150	-1.410
2020/01/31 10:09:30.6	300.590	-0.120	0.170	-1.340
2020/01/31 10:09:30.7	300.570	-0.110	0.190	-1.280
2020/01/31 10:09:30.8	300.550	-0.100	0.220	-1.210
2020/01/31 10:09:30.9	300.530	-0.090	0.240	-1.130
2020/01/31 10:09:31.0	300.510	-0.090	0.260	-1.060
2020/01/31 10:09:31.1	300.490	-0.080	0.280	-0.980
2020/01/31 10:09:31.2	300.470	-0.080	0.310	-0.900
2020/01/31 10:09:31.3	300.440	-0.070	0.330	-0.810
2020/01/31 10:09:31.4	300.410	-0.070	0.350	-0.720
2020/01/31 10:09:31.5	300.390	-0.070	0.370	-0.630
2020/01/31 10:09:31.6	300.360	-0.060	0.390	-0.540
2020/01/31 10:09:31.7	300.330	-0.060	0.410	-0.450
2020/01/31 10:09:31.8	300.300	-0.060	0.430	-0.350
2020/01/31 10:09:31.9	300.270	-0.060	0.450	-0.250
2020/01/31 10:09:32.0	300.240	-0.060	0.470	-0.150
2020/01/31 10:09:32.1	300.210	-0.060	0.480	-0.050
2020/01/31 10:09:32.2	300.180	-0.060	0.490	0.050
2020/01/31 10:09:32.3	300.150	-0.060	0.500	0.160
2020/01/31 10:09:32.4	300.130	-0.060	0.520	0.260
2020/01/31 10:09:32.5	300.100	-0.060	0.520	0.360
2020/01/31 10:09:32.6	300.070	-0.060	0.520	0.470
2020/01/31 10:09:32.7	300.040	-0.050	0.520	0.570
2020/01/31 10:09:32.8	300.010	-0.050	0.510	0.670
2020/01/31 10:09:32.9	299.980	-0.050	0.500	0.760
2020/01/31 10:09:33.0	299.960	-0.040	0.490	0.860
2020/01/31 10:09:33.1	299.930	-0.030	0.470	0.950
2020/01/31 10:09:33.2	299.910	-0.030	0.450	1.040
2020/01/31 10:09:33.3	299.890	-0.020	0.420	1.130
2020/01/31 10:09:33.4	299.860	-0.010	0.390	1.210
2020/01/31 10:09:33.5	299.840	-0.000	0.350	1.290
2020/01/31 10:09:33.6	299.820	0.010	0.310	1.370
2020/01/31 10:09:33.7	299.810	0.020	0.270	1.440
2020/01/31 10:09:33.8	299.800	0.030	0.220	1.510
2020/01/31 10:09:33.9	299.790	0.050	0.170	1.570
2020/01/31 10:09:34.0	299.780	0.060	0.120	1.640
2020/01/31 10:09:34.1	299.770	0.070	0.070	1.690
2020/01/31 10:09:34.2	299.760	0.090	0.010	1.750
2020/01/31 10:09:34.3	299.760	0.100	-0.050	1.800
2020/01/31 10:09:34.4	299.740	0.120	-0.110	1.850
2020/01/31 10:09:34.5	299.730	0.130	-0.170	1.890
2020/01/31 10:09:34.6	299.730	0.150	-0.230	1.930
2020/01/31 10:09:34.7	299.730	0.170	-0.290	1.970
2020/01/31 10:09:34.8	299.730	0.180	-0.350	2.000
2020/01/31 10:09:34.9	299.730	0.200	-0.410	2.030
2020/01/31 10:09:35.0	299.720	0.210	-0.470	2.060
2020/01/31 10:09:35.1	299.720	0.230	-0.530	2.090
2020/01/31 10:09:35.2	299.720	0.240	-0.580	2.110
2020/01/31 10:09:35.3	299.730	0.260	-0.630	2.130
2020/01/31 10:09:35.4	299.730	0.270	-0.690	2.150
2020/01/31 10:09:35.5	299.730	0.280	-0.740	2.160
2020/01/31 10:09:35.6	299.740	0.300	-0.780	2.170
2020/01/31 10:09:35.7	299.740	0.310	-0.820	2.180
2020/01/31 10:09:35.8	299.740	0.320	-0.860	2.190
2020/01/31 10:09:35.9	299.740	0.330	-0.890	2.190
2020/01/31 10:09:36.0	299.750	0.330	-0.920	2.200
2020/01/31 10:09:36.1	299.750	0.340	-0.950	2.200
2020/01/31 10:09:36.2	299.750	0.350	-0.970	2.190
2020/01/31 10:09:36.3	299.750	0.350	-0.990	2.190
2020/01/31 10:09:36.4	299.760	0.350	-1.000	2.180
2020/01/31 10:09:36.5	299.760	0.360	-1.010	2.170
2020/01/31 10:09:36.6	299.760	0.360	-1.010	2.160
2020/01/31 10:09:36.7	299.760	0.360	-1.010	2.150
2020/01/31 10:09:36.8	299.760	0.360	-1.000	2.130
2020/01/31 10:09:36.9	299.760	0.350	-0.990	2.120
2020/01/31 10:09:37.0	299.750	0.350	-0.980	2.100
2020/01/31 10:09:37.1	299.750	0.340	-0.960	2.080
2020/01/31 10:09:37.2	299.740	0.340	-0.940	2.060
2020/01/31 10:09:37.3	299.740	0.330	-0.910	2.040
2020/01/31 10:09:37.4	299.750	0.320	-0.880	2.020
2020/01/31 10:09:37.5	299.740	0.310	-0.850	2.000
2020/01/31 10:09:37.6	299.730	0.300	-0.810	1.970
2020/01/31 10:09:37.7	299.720	0.290	-0.780	1.950
2020/01/31 10:09:37.8	299.710	0.270	-0.730	1.920
2020/01/31 10:09:37.9	299.700	0.260	-0.690	1.900
2020/01/31 10:09:38.0	299.690	0.250	-0.650	1.870
2020/01/31 10:09:38.1	299.680	0.230	-0.600	1.840
2020/01/31 10:09:38.2	299.670	0.210	-0.550	1.820
2020/01/31 10:09:38.3	299.650	0.200	-0.500	1.790
2020/01/31 10:09:38.4	299.630	0.180	-0.450	1.760
2020/01/31 10:09:38.5	299.620	0.160	-0.400	1.730
2020/01/31 10:09:38.6	299.600	0.140	-0.340	1.700
2020/01/31 10:09:38.7	299.580	0.120	-0.290	1.680
2020/01/31 10:09:38.8	299.570	0.100	-0.240	1.650
2020/01/31 10:09:38.9	299.550	0.080	-0.180	1.620
2020/01/31 10:09:39.0	299.530	0.060	-0.130	1.590
2020/01/31 10:09:39.1	299.510	0.040	-0.070	1.550
2020/01/31 10:09:39.2	299.490	0.020	-0.020	1.520
2020/01/31 10:09:39.3	299.470	0.000	0.040	1.490
2020/01/31 10:09:39.4	299.450	-0.020	0.090	1.460
2020/01/31 10:09:39.5	299.430	-0.040	0.140	1.420
2020/01/31 10:09:39.6	299.410	-0.060	0.190	1.390
2020/01/31 10:09:39.7	299.390	-0.080	0.230	1.350
2020/01/31 10:09:39.8	299.370	-0.100	0.280	1.310
2020/01/31 10:09:39.9	299.360	-0.120	0.320	1.270
2020/01/31 10:09:40.0	299.340	-0.140	0.360	1.230
2020/01/31 10:09:40.1	299.330	-0.160	0.390	1.190
2020/01/31 10:09:40.2	299.310	-0.180	0.420	1.140
2020/01/31 10:09:40.3	299.300	-0.200	0.450	1.100
2020/01/31 10:09:40.4	299.280	-0.210	0.470	1.050
2020/01/31 10:09:40.5	299.270	-0.230	0.490	0.990
2020/01/31 10:09:40.6	299.270	-0.240	0.510	0.940
2020/01/31 10:09:40.7	299.270	-0.260	0.520	0.880
2020/01/31 10:09:40.8	299.270	-0.270	0.520	0.820
2020/01/31 10:09:40.9	299.270	-0.280	0.530	0.760
2020/01/31 10:09:41.0	299.270	-0.300	0.520	0.700
2020/01/31 10:09:41.1	299.280	-0.310	0.510	0.630
2020/01/31 10:09:41.2	299.290	-0.320	0.500	0.560
2020/01/31 10:09:41.3	299.300	-0.320	0.480	0.490
2020/01/31 10:09:41.4	299.300	-0.330	0.460	0.420
2020/01/31 10:09:41.5	299.320	-0.340	0.430	0.350
2020/01/31 10:09:41.6	299.340	-0.340	0.400	0.270
2020/01/31 10:09:41.7	299.370	-0.340	0.370	0.200
2020/01/31 10:09:41.8	299.390	-0.340	0.330	0.120
2020/01/31 10:09:41.9	299.420	-0.340	0.290	0.050
2020/01/31 10:09:42.0	299.450	-0.340	0.240	-0.030
2020/01/31 10:09:42.1	299.490	-0.340	0.200	-0.100
2020/01/31 10:09:42.2	299.520	-0.340	0.150	-0.180
2020/01/31 10:09:42.3	299.560	-0.340	0.100	-0.250
2020/01/31 10:09:42.4	299.590	-0.330	0.040	-0.330
2020/01/31 10:09:42.5	299.630	-0.320	-0.010	-0.400
2020/01/31 10:09:42.6	299.680	-0.320	-0.060	-0.470
2020/01/31 10:09:42.7	299.720	-0.310	-0.110	-0.540
2020/01/31 10:09:42.8	299.760	-0.300	-0.170	-0.600
2020/01/31 10:09:42.9	299.810	-0.290	-0.220	-0.670
2020/01/31 10:09:43.0	299.850	-0.280	-0.260	-0.730
2020/01/31 10:09:43.1	299.900	-0.270	-0.310	-0.780
2020/01/31 10:09:43.2	299.940	-0.250	-0.360	-0.840
2020/01/31 10:09:43.3	299.990	-0.240	-0.400	-0.890
2020/01/31 10:09:43.4	300.030	-0.230	-0.430	-0.930
2020/01/31 10:09:43.5	300.070	-0.210	-0.470	-0.980
2020/01/31 10:09:43.6	300.110	-0.200	-0.500	-1.020
2020/01/31 10:09:43.7	300.160	-0.180	-0.520	-1.050
2020/01/31 10:09:43.8	300.200	-0.170	-0.550	-1.080
2020/01/31 10:09:43.9	300.240	-0.150	-0.560	-1.100
2020/01/31 10:09:44.0	300.280	-0.140	-0.580	-1.120
2020/01/31 10:09:44.1	300.320	-0.120	-0.580	-1.140
2020/01/31 10:09:44.2	300.350	-0.110	-0.590	-1.150
2020/01/31 10:09:44.3	300.390	-0.090	-0.590	-1.150
2020/01/31 10:09:44.4	300.430	-0.070	-0.590	-1.150
2020/01/31 10:09:44.5	300.460	-0.060	-0.580	-1.140
2020/01/31 10:09:44.6	300.490	-0.040	-0.570	-1.130
2020/01/31 10:09:44.7	300.520	-0.030	-0.550	-1.110
2020/01/31 10:09:44.8	300.540	-0.010	-0.530	-1.090
2020/01/31 10:09:44.9	300.570	0.000	-0.510	-1.070
2020/01/31 10:09:45.0	300.590	0.020	-0.490	-1.040
2020/01/31 10:09:45.1	300.610	0.030	-0.470	-1.000
2020/01/31 10:09:45.2	300.630	0.050	-0.440	-0.960
2020/01/31 10:09:45.3	300.650	0.060	-0.410	-0.920
2020/01/31 10:09:45.4	300.680	0.080	-0.380	-0.870
2020/01/31 10:09:45.5	300.700	0.090	-0.350	-0.820
2020/01/31 10:09:45.6	300.710	0.100	-0.320	-0.760
2020/01/31 10:09:45.7	300.720	0.120	-0.290	-0.700
2020/01/31 10:09:45.8	300.730	0.130	-0.260	-0.640
2020/01/31 10:09:45.9	300.740	0.140	-0.240	-0.570
2020/01/31 10:09:46.0	300.750	0.150	-0.210	-0.510
2020/01/31 10:09:46.1	300.760	0.160	-0.180	-0.430
2020/01/31 10:09:46.2	300.770	0.170	-0.160	-0.360
2020/01/31 10:09:46.3	300.770	0.180	-0.140	-0.280
2020/01/31 10:09:46.4	300.780	0.190	-0.120	-0.200
2020/01/31 10:09:46.5	300.790	0.200	-0.100	-0.120
2020/01/31 10:09:46.6	300.790	0.200	-0.090	-0.040
2020/01/31 10:09:46.7	300.800	0.210	-0.070	0.050
2020/01/31 10:09:46.8	300.800	0.220	-0.060	0.130
2020/01/31 10:09:46.9	300.800	0.220	-0.060	0.220
2020/01/31 10:09:47.0	300.800	0.230	-0.050	0.310
2020/01/31 10:09:47.1	300.810	0.230	-0.050	0.400
2020/01/31 10:09:47.2	300.810	0.240	-0.050	0.480
2020/01/31 10:09:47.3	300.810	0.240	-0.050	0.570
2020/01/31 10:09:47.4	300.810	0.240	-0.050	0.660
2020/01/31 10:09:47.5	300.810	0.250	-0.060	0.750
2020/01/31 10:09:47.6	300.810	0.250	-0.070	0.840
2020/01/31 10:09:47.7	300.800	0.250	-0.080	0.930
2020/01/31 10:09:47.8	300.800	0.250	-0.090	1.010
2020/01/31 10:09:47.9	300.800	0.250	-0.100	1.100
2020/01/31 10:09:48.0	300.790	0.250	-0.110	1.180
2020/01/31 10:09:48.1	300.780	0.250	-0.130	1.260
2020/01/31 10:09:48.2	300.780	0.250	-0.140	1.340
2020/01/31 10:09:48.3	300.770	0.250	-0.160	1.410
2020/01/31 10:09:48.4	300.760	0.250	-0.170	1.490
2020/01/31 10:09:48.5	300.750	0.240	-0.190	1.550
2020/01/31 10:09:48.6	300.750	0.240	-0.210	1.620
2020/01/31 10:09:48.7	300.740	0.240	-0.220	1.680
2020/01/31 10:09:48.8	300.740	0.230	-0.240	1.730
2020/01/31 10:09:48.9	300.740	0.230	-0.260	1.780
2020/01/31 10:09:49.0	300.740	0.220	-0.280	1.820
2020/01/31 10:09:49.1	300.740	0.220	-0.300	1.850
2020/01/31 10:09:49.2	300.740	0.210	-0.310	1.880
2020/01/31 10:09:49.3	300.740	0.200	-0.330	1.910
2020/01/31 10:09:49.4	300.730	0.190	-0.350	1.920
2020/01/31 10:09:49.5	300.740	0.180	-0.370	1.930
2020/01/31 10:09:49.6	300.750	0.170	-0.380	1.930
2020/01/31 10:09:49.7	300.760	0.160	-0.400	1.930
2020/01/31 10:09:49.8	300.770	0.150	-0.410	1.920
2020/01/31 10:09:49.9	300.780	0.140	-0.430	1.900
2020/01/31 10:09:50.0	300.790	0.130	-0.440	1.880
2020/01/31 10:09:50.1	300.810	0.120	-0.460	1.840
2020/01/31 10:09:50.2	300.830	0.100	-0.470	1.810
2020/01/31 10:09:50.3	300.840	0.090	-0.480	1.760
2020/01/31 10:09:50.4	300.870	0.080	-0.480	1.710
2020/01/31 10:09:50.5	300.890	0.060	-0.490	1.660
2020/01/31 10:09:50.6	300.910	0.050	-0.500	1.600
2020/01/31 10:09:50.7	300.930	0.040	-0.500	1.530
2020/01/31 10:09:50.8	300.960	0.020	-0.500	1.460
2020/01/31 10:09:50.9	300.980	0.010	-0.500	1.390
2020/01/31 10:09:51.0	301.000	-0.010	-0.500	1.310
2020/01/31 10:09:51.1	301.020	-0.020	-0.490	1.230
2020/01/31 10:09:51.2	301.050	-0.040	-0.490	1.140
2020/01/31 10:09:51.3	301.070	-0.050	-0.480	1.060
2020/01/31 10:09:51.4	301.090	-0.070	-0.470	0.970
2020/01/31 10:09:51.5	301.110	-0.080	-0.460	0.880
2020/01/31 10:09:51.6	301.130	-0.100	-0.440	0.790
2020/01/31 10:09:51.7	301.150	-0.110	-0.430	0.690
2020/01/31 10:09:51.8	301.170	-0.130	-0.410	0.600
2020/01/31 10:09:51.9	301.190	-0.140	-0.390	0.510
2020/01/31 10:09:52.0	301.210	-0.160	-0.370	0.420
2020/01/31 10:09:52.1	301.220	-0.170	-0.340	0.330
2020/01/31 10:09:52.2	301.240	-0.190	-0.320	0.240
2020/01/31 10:09:52.3	301.250	-0.200	-0.290	0.150
2020/01/31 10:09:52.4	301.260	-0.220	-0.260	0.070
2020/01/31 10:09:52.5	301.270	-0.230	-0.230	-0.010
2020/01/31 10:09:52.6	301.280	-0.240	-0.210	-0.090
2020/01/31 10:09:52.7	301.290	-0.260	-0.170	-0.170
2020/01/31 10:09:52.8	301.300	-0.270	-0.140	-0.250
2020/01/31 10:09:52.9	301.300	-0.280	-0.110	-0.320
2020/01/31 10:09:53.0	301.310	-0.290	-0.080	-0.390
2020/01/31 10:09:53.1	301.310	-0.300	-0.050	-0.460
2020/01/31 10:09:53.2	301.310	-0.310	-0.020	-0.520
2020/01/31 10:09:53.3	301.310	-0.320	0.010	-0.580
2020/01/31 10:09:53.4	301.300	-0.330	0.040	-0.640
2020/01/31 10:09:53.5	301.300	-0.330	0.070	-0.700
2020/01/31 10:09:53.6	301.290	-0.340	0.100	-0.750
2020/01/31 10:09:53.7	301.280	-0.340	0.120	-0.790
2020/01/31 10:09:53.8	301.270	-0.350	0.150	-0.840
2020/01/31 10:09:53.9	301.250	-0.350	0.180	-0.880
2020/01/31 10:09:54.0	301.240	-0.350	0.200	-0.920
2020/01/31 10:09:54.1	301.220	-0.350	0.220	-0.960
2020/01/31 10:09:54.2	301.200	-0.350	0.240	-1.000
2020/01/31 10:09:54.3	301.180	-0.350	0.260	-1.030
2020/01/31 10:09:54.4	301.170	-0.340	0.270	-1.060
2020/01/31 10:09:54.5	301.140	-0.340	0.290	-1.090
2020/01/31 10:09:54.6	301.110	-0.330	0.300	-1.120
2020/01/31 10:09:54.7	301.090	-0.320	0.310	-1.150
2020/01/31 10:09:54.8	301.060	-0.310	0.320	-1.180
2020/01/31 10:09:54.9	301.030	-0.310	0.320	-1.200
2020/01/31 10:09:55.0	300.990	-0.300	0.320	-1.230
2020/01/31 10:09:55.1	300.960	-0.280	0.320	-1.260
2020/01/31 10:09:55.2	300.930	-0.270	0.320	-1.280
2020/01/31 10:09:55.3	300.890	-0.260	0.320	-1.310
2020/01/31 10:09:55.4	300.860	-0.240	0.310	-1.330
2020/01/31 10:09:55.5	300.820	-0.230	0.310	-1.360
2020/01/31 10:09:55.6	300.780	-0.210	0.300	-1.380
2020/01/31 10:09:55.7	300.740	-0.200	0.290	-1.400
2020/01/31 10:09:55.8	300.700	-0.180	0.270	-1.430
2020/01/31 10:09:55.9	300.660	-0.170	0.260	-1.450
2020/01/31 10:09:56.0	300.610	-0.150	0.250	-1.470
2020/01/31 10:09:56.1	300.570	-0.130	0.230	-1.480
2020/01/31 10:09:56.2	300.520	-0.110	0.220	-1.500
2020/01/31 10:09:56.3	300.470	-0.090	0.200	-1.510
2020/01/31 10:09:56.4	300.430	-0.080	0.190	-1.530
2020/01/31 10:09:56.5	300.380	-0.060	0.170	-1.530
2020/01/31 10:09:56.6	300.330	-0.040	0.150	-1.540
2020/01/31 10:09:56.7	300.280	-0.020	0.140	-1.540
2020/01/31 10:09:56.8	300.220	-0.000	0.120	-1.540
2020/01/31 10:09:56.9	300.160	0.020	0.100	-1.530
2020/01/31 10:09:57.0	300.110	0.030	0.080	-1.520
2020/01/31 10:09:57.1	300.050	0.050	0.070	-1.510
2020/01/31 10:09:57.2	299.990	0.070	0.050	-1.490
2020/01/31 10:09:57.3	299.930	0.090	0.030	-1.470
2020/01/31 10:09:57.4	299.860	0.100	0.010	-1.450
2020/01/31 10:09:57.5	299.800	0.120	-0.010	-1.420
2020/01/31 10:09:57.6	299.740	0.140	-0.030	-1.380
2020/01/31 10:09:57.7	299.670	0.150	-0.050	-1.350
2020/01/31 10:09:57.8	299.610	0.170	-0.070	-1.310
2020/01/31 10:09:57.9	299.550	0.180	-0.100	-1.260
2020/01/31 10:09:58.0	299.480	0.190	-0.120	-1.210
2020/01/31 10:09:58.1	299.420	0.210	-0.150	-1.160
2020/01/31 10:09:58.2	299.350	0.220	-0.180	-1.110
2020/01/31 10:09:58.3	299.290	0.230	-0.200	-1.060
2020/01/31 10:09:58.4	299.220	0.240	-0.230	-1.000
2020/01/31 10:09:58.5	299.160	0.250	-0.260	-0.940
2020/01/31 10:09:58.6	299.100	0.260	-0.290	-0.870
2020/01/31 10:09:58.7	299.040	0.270	-0.330	-0.810
2020/01/31 10:09:58.8	298.990	0.280	-0.360	-0.740
2020/01/31 10:09:58.9	298.930	0.280	-0.400	-0.680
2020/01/31 10:09:59.0	298.880	0.290	-0.430	-0.610
2020/01/31 10:09:59.1	298.830	0.290	-0.470	-0.540
2020/01/31 10:09:59.2	298.780	0.290	-0.510	-0.470
2020/01/31 10:09:59.3	298.740	0.300	-0.540	-0.400
2020/01/31 10:09:59.4	298.690	0.300	-0.580	-0.340
2020/01/31 10:09:59.5	298.650	0.300	-0.620	-0.260
2020/01/31 10:09:59.6	298.610	0.300	-0.650	-0.200
2020/01/31 10:09:59.7	298.570	0.290	-0.690	-0.130
2020/01/31 10:09:59.8	298.540	0.290	-0.730	-0.060
2020/01/31 10:09:59.9	298.510	0.290	-0.760	0.010
2020/01/31 10:10:00.0	298.480	0.280	-0.790	0.080
2020/01/31 10:10:00.1	298.450	0.270	-0.830	0.140
2020/01/31 10:10:00.2	298.430	0.270	-0.860	0.210
2020/01/31 10:10:00.3	298.410	0.260	-0.890	0.280
2020/01/31 10:10:00.4	298.380	0.250	-0.910	0.340
2020/01/31 10:10:00.5	298.360	0.240	-0.940	0.400
2020/01/31 10:10:00.6	298.340	0.230	-0.960	0.460
2020/01/31 10:10:00.7	298.320	0.220	-0.980	0.520
2020/01/31 10:10:00.8	298.310	0.200	-1.000	0.580
2020/01/31 10:10:00.9	298.290	0.190	-1.010	0.630
2020/01/31 10:10:01.0	298.270	0.170	-1.020	0.690
2020/01/31 10:10:01.1	298.260	0.160	-1.030	0.740
2020/01/31 10:10:01.2	298.240	0.140	-1.040	0.790
2020/01/31 10:10:01.3	298.230	0.130	-1.040	0.840
2020/01/31 10:10:01.4	298.200	0.110	-1.040	0.890
2020/01/31 10:10:01.5	298.190	0.090	-1.040	0.940
2020/01/31 10:10:01.6	298.170	0.080	-1.030	0.990
2020/01/31 10:10:01.7	298.150	0.060	-1.020	1.030
2020/01/31 10:10:01.8	298.130	0.040	-1.010	1.080
2020/01/31 10:10:01.9	298.110	0.020	-0.990	1.120
2020/01/31 10:10:02.0	298.090	0.010	-0.970	1.170
2020/01/31 10:10:02.1	298.070	-0.010	-0.950	1.210
2020/01/31 10:10:02.2	298.040	-0.030	-0.920	1.260
2020/01/31 10:10:02.3	298.020	-0.040	-0.900	1.300
2020/01/31 10:10:02.4	297.980	-0.060	-0.860	1.350
2020/01/31 10:10:02.5	297.950	-0.080	-0.820	1.390
2020/01/31 10:10:02.6	297.920	-0.090	-0.780	1.440
2020/01/31 10:10:02.7	297.880	-0.110	-0.740	1.480
2020/01/31 10:10:02.8	297.850	-0.120	-0.700	1.530
2020/01/31 10:10:02.9	297.810	-0.130	-0.650	1.580
2020/01/31 10:10:03.0	297.770	-0.140	-0.600	1.620
2020/01/31 10:10:03.1	297.720	-0.150	-0.540	1.670
2020/01/31 10:10:03.2	297.680	-0.160	-0.490	1.720
2020/01/31 10:10:03.3	297.640	-0.170	-0.430	1.760
2020/01/31 10:10:03.4	297.590	-0.180	-0.370	1.810
2020/01/31 10:10:03.5	297.550	-0.190	-0.310	1.860
2020/01/31 10:10:03.6	297.500	-0.190	-0.250	1.900
2020/01/31 10:10:03.7	297.450	-0.200	-0.190	1.940
2020/01/31 10:10:03.8	297.400	-0.200	-0.130	1.990
2020/01/31 10:10:03.9	297.340	-0.200	-0.070	2.030
2020/01/31 10:10:04.0	297.290	-0.200	-0.000	2.070
2020/01/31 10:10:04.1	297.240	-0.200	0.060	2.110
2020/01/31 10:10:04.2	297.180	-0.200	0.120	2.150
2020/01/31 10:10:04.3	297.130	-0.200	0.180	2.190
2020/01/31 10:10:04.4	297.070	-0.200	0.240	2.220
2020/01/31 10:10:04.5	297.020	-0.200	0.300	2.260
2020/01/31 10:10:04.6	296.960	-0.190	0.360	2.290
2020/01/31 10:10:04.7	296.900	-0.190	0.420	2.320
2020/01/31 10:10:04.8	296.850	-0.180	0.470	2.360
2020/01/31 10:10:04.9	296.790	-0.180	0.530	2.390
2020/01/31 10:10:05.0	296.730	-0.170	0.580	2.410
2020/01/31 10:10:05.1	296.680	-0.160	0.630	2.440
2020/01/31 10:10:05.2	296.620	-0.160	0.670	2.470
2020/01/31 10:10:05.3	296.560	-0.150	0.720	2.490
2020/01/31 10:10:05.4	296.530	-0.140	0.760	2.510
2020/01/31 10:10:05.5	296.470	-0.140	0.800	2.530
2020/01/31 10:10:05.6	296.410	-0.130	0.830	2.540
2020/01/31 10:10:05.7	296.360	-0.120	0.860	2.560
2020/01/31 10:10:05.8	296.300	-0.110	0.890	2.570
2020/01/31 10:10:05.9	296.240	-0.100	0.910	2.570
2020/01/31 10:10:06.0	296.190	-0.090	0.930	2.580
2020/01/31 10:10:06.1	296.130	-0.090	0.950	2.580
2020/01/31 10:10:06.2	296.080	-0.080	0.960	2.570
2020/01/31 10:10:06.3	296.030	-0.070	0.960	2.570
2020/01/31 10:10:06.4	295.990	-0.060	0.960	2.560
2020/01/31 10:10:06.5	295.940	-0.050	0.960	2.550
2020/01/31 10:10:06.6	295.890	-0.040	0.950	2.530
2020/01/31 10:10:06.7	295.840	-0.030	0.940	2.510
2020/01/31 10:10:06.8	295.790	-0.030	0.920	2.480
2020/01/31 10:10:06.9	295.740	-0.020	0.890	2.450
2020/01/31 10:10:07.0	295.700	-0.010	0.870	2.420
2020/01/31 10:10:07.1	295.650	0.000	0.830	2.380
2020/01/31 10:10:07.2	295.610	0.010	0.800	2.340
2020/01/31 10:10:07.3	295.570	0.020	0.760	2.300
2020/01/31 10:10:07.4	295.540	0.030	0.710	2.250
2020/01/31 10:10:07.5	295.510	0.040	0.660	2.200
2020/01/31 10:10:07.6	295.470	0.050	0.610	2.140
2020/01/31 10:10:07.7	295.440	0.060	0.550	2.080
2020/01/31 10:10:07.8	295.400	0.070	0.490	2.020
2020/01/31 10:10:07.9	295.370	0.080	0.420	1.960
2020/01/31 10:10:08.0	295.350	0.090	0.360	1.890
2020/01/31 10:10:08.1	295.320	0.100	0.290	1.820
2020/01/31 10:10:08.2	295.290	0.110	0.220	1.740
2020/01/31 10:10:08.3	295.270	0.120	0.140	1.670
2020/01/31 10:10:08.4	295.250	0.130	0.060	1.590
2020/01/31 10:10:08.5	295.230	0.140	-0.010	1.500
2020/01/31 10:10:08.6	295.210	0.150	-0.090	1.420
2020/01/31 10:10:08.7	295.200	0.160	-0.170	1.330
2020/01/31 10:10:08.8	295.180	0.170	-0.250	1.250
2020/01/31 10:10:08.9	295.170	0.180	-0.330	1.160
2020/01/31 10:10:09.0	295.160	0.190	-0.400	1.060
2020/01/31 10:10:09.1	295.150	0.200	-0.480	0.970
2020/01/31 10:10:09.2	295.150	0.210	-0.560	0.880
2020/01/31 10:10:09.3	295.140	0.210	-0.630	0.780
2020/01/31 10:10:09.4	295.120	0.220	-0.700	0.680
2020/01/31 10:10:09.5	295.120	0.220	-0.770	0.590
2020/01/31 10:10:09.6	295.120	0.230	-0.840	0.490
2020/01/31 10:10:09.7	295.130	0.230	-0.900	0.400
2020/01/31 10:10:09.8	295.130	0.240	-0.960	0.300
2020/01/31 10:10:09.9	295.140	0.240	-1.020	0.210
2020/01/31 10:10:10.0	295.150	0.240	-1.070	0.120
2020/01/31 10:10:10.1	295.160	0.240	-1.110	0.030
2020/01/31 10:10:10.2	295.170	0.230	-1.150	-0.050
2020/01/31 10:10:10.3	295.190	0.230	-1.190	-0.130
2020/01/31 10:10:10.4	295.190	0.230	-1.210	-0.210
2020/01/31 10:10:10.5	295.210	0.220	-1.240	-0.290
2020/01/31 10:10:10.6	295.220	0.210	-1.260	-0.360
2020/01/31 10:10:10.7	295.240	0.200	-1.270	-0.420
2020/01/31 10:10:10.8	295.260	0.190	-1.280	-0.480
2020/01/31 10:10:10.9	295.280	0.180	-1.280	-0.540
2020/01/31 10:10:11.0	295.300	0.170	-1.280	-0.590
2020/01/31 10:10:11.1	295.320	0.160	-1.270	-0.630
2020/01/31 10:10:11.2	295.350	0.150	-1.250	-0.680
2020/01/31 10:10:11.3	295.370	0.140	-1.230	-0.710
2020/01/31 10:10:11.4	295.390	0.120	-1.200	-0.740
2020/01/31 10:10:11.5	295.420	0.110	-1.170	-0.770
2020/01/31 10:10:11.6	295.440	0.090	-1.140	-0.790
2020/01/31 10:10:11.7	295.470	0.080	-1.100	-0.800
2020/01/31 10:10:11.8	295.490	0.060	-1.050	-0.810
2020/01/31 10:10:11.9	295.520	0.050	-1.010	-0.820
2020/01/31 10:10:12.0	295.540	0.030	-0.960	-0.820
2020/01/31 10:10:12.1	295.570	0.020	-0.900	-0.810
2020/01/31 10:10:12.2	295.590	0.000	-0.850	-0.800
2020/01/31 10:10:12.3	295.620	-0.010	-0.790	-0.790
2020/01/31 10:10:12.4	295.630	-0.030	-0.730	-0.770
2020/01/31 10:10:12.5	295.650	-0.040	-0.670	-0.750
2020/01/31 10:10:12.6	295.670	-0.050	-0.610	-0.720
2020/01/31 10:10:12.7	295.700	-0.060	-0.550	-0.690
2020/01/31 10:10:12.8	295.710	-0.070	-0.490	-0.650
2020/01/31 10:10:12.9	295.730	-0.080	-0.430	-0.610
2020/01/31 10:10:13.0	295.750	-0.090	-0.370	-0.560
2020/01/31 10:10:13.1	295.770	-0.100	-0.310	-0.520
2020/01/31 10:10:13.2	295.790	-0.100	-0.250	-0.470
2020/01/31 10:10:13.3	295.800	-0.110	-0.200	-0.420
2020/01/31 10:10:13.4	295.810	-0.110	-0.150	-0.360
2020/01/31 10:10:13.5	295.830	-0.120	-0.100	-0.310
2020/01/31 10:10:13.6	295.840	-0.120	-0.060	-0.250
2020/01/31 10:10:13.7	295.860	-0.120	-0.010	-0.190
2020/01/31 10:10:13.8	295.880	-0.120	0.020	-0.130
2020/01/31 10:10:13.9	295.900	-0.120	0.060	-0.060
2020/01/31 10:10:14.0	295.910	-0.120	0.090	0.000
2020/01/31 10:10:14.1	295.930	-0.110	0.110	0.060
2020/01/31 10:10:14.2	295.950	-0.110	0.140	0.130
2020/01/31 10:10:14.3	295.970	-0.100	0.160	0.200
2020/01/31 10:10:14.4	295.970	-0.100	0.170	0.260
2020/01/31 10:10:14.5	295.990	-0.090	0.190	0.330
2020/01/31 10:10:14.6	296.010	-0.090	0.190	0.390
2020/01/31 10:10:14.7	296.020	-0.080	0.200	0.460
2020/01/31 10:10:14.8	296.040	-0.080	0.200	0.530
2020/01/31 10:10:14.9	296.060	-0.070	0.200	0.590
2020/01/31 10:10:15.0	296.070	-0.060	0.200	0.660
2020/01/31 10:10:15.1	296.090	-0.060	0.190	0.730
2020/01/31 10:10:15.2	296.110	-0.050	0.190	0.800
2020/01/31 10:10:15.3	296.120	-0.050	0.180	0.860
2020/01/31 10:10:15.4	296.120	-0.040	0.170	0.930
2020/01/31 10:10:15.5	296.140	-0.040	0.160	1.000
2020/01/31 10:10:15.6	296.160	-0.030	0.140	1.060
2020/01/31 10:10:15.7	296.170	-0.030	0.130	1.130
2020/01/31 10:10:15.8	296.190	-0.030	0.120	1.200
2020/01/31 10:10:15.9	296.200	-0.030	0.110	1.260
2020/01/31 10:10:16.0	296.220	-0.030	0.090	1.320
2020/01/31 10:10:16.1	296.240	-0.030	0.080	1.390
2020/01/31 10:10:16.2	296.250	-0.030	0.070	1.450
2020/01/31 10:10:16.3	296.270	-0.030	0.060	1.510
2020/01/31 10:10:16.4	296.290	-0.040	0.040	1.560
2020/01/31 10:10:16.5	296.300	-0.040	0.040	1.620
2020/01/31 10:10:16.6	296.320	-0.050	0.030	1.670
2020/01/31 10:10:16.7	296.340	-0.060	0.020	1.730
2020/01/31 10:10:16.8	296.350	-0.060	0.020	1.780
2020/01/31 10:10:16.9	296.370	-0.070	0.010	1.820
2020/01/31 10:10:17.0	296.390	-0.080	0.010	1.870
2020/01/31 10:10:17.1	296.410	-0.090	0.010	1.910
2020/01/31 10:10:17.2	296.430	-0.100	0.010	1.950
2020/01/31 10:10:17.3	296.450	-0.110	0.010	1.990
2020/01/31 10:10:17.4	296.470	-0.120	0.000	2.030
2020/01/31 10:10:17.5	296.490	-0.130	0.000	2.060
2020/01/31 10:10:17.6	296.520	-0.140	0.010	2.090
2020/01/31 10:10:17.7	296.540	-0.150	0.010	2.120
2020/01/31 10:10:17.8	296.570	-0.160	0.010	2.140
2020/01/31 10:10:17.9	296.590	-0.170	0.010	2.160
2020/01/31 10:10:18.0	296.630	-0.170	0.010	2.170
2020/01/31 10:10:18.1	296.660	-0.180	0.010	2.180
2020/01/31 10:10:18.2	296.690	-0.190	0.010	2.190
2020/01/31 10:10:18.3	296.730	-0.190	0.010	2.190
2020/01/31 10:10:18.4	296.780	-0.190	0.000	2.180
2020/01/31 10:10:18.5	296.820	-0.200	0.000	2.180
2020/01/31 10:10:18.6	296.870	-0.200	-0.000	2.170
2020/01/31 10:10:18.7	296.910	-0.200	-0.000	2.150
2020/01/31 10:10:18.8	296.960	-0.190	-0.010	2.130
2020/01/31 10:10:18.9	297.020	-0.190	-0.010	2.110
2020/01/31 10:10:19.0	297.070	-0.180	-0.020	2.090
2020/01/31 10:10:19.1	297.130	-0.180	-0.020	2.060
2020/01/31 10:10:19.2	297.190	-0.170	-0.030	2.030
2020/01/31 10:10:19.3	297.250	-0.160	-0.040	1.990
2020/01/31 10:10:19.4	297.330	-0.150	-0.040	1.960
2020/01/31 10:10:19.5	297.390	-0.140	-0.050	1.920
2020/01/31 10:10:19.6	297.460	-0.120	-0.060	1.870
2020/01/31 10:10:19.7	297.520	-0.110	-0.070	1.830
2020/01/31 10:10:19.8	297.590	-0.090	-0.070	1.790
2020/01/31 10:10:19.9	297.650	-0.080	-0.080	1.740
2020/01/31 10:10:20.0	297.720	-0.060	-0.090	1.700
2020/01/31 10:10:20.1	297.790	-0.040	-0.100	1.650
2020/01/31 10:10:20.2	297.850	-0.020	-0.100	1.600
2020/01/31 10:10:20.3	297.920	-0.000	-0.110	1.550
2020/01/31 10:10:20.4	297.990	0.020	-0.120	1.510
2020/01/31 10:10:20.5	298.050	0.040	-0.130	1.460
2020/01/31 10:10:20.6	298.110	0.060	-0.130	1.410
2020/01/31 10:10:20.7	298.170	0.070	-0.130	1.360
2020/01/31 10:10:20.8	298.230	0.090	-0.140	1.320
2020/01/31 10:10:20.9	298.290	0.110	-0.140	1.270
2020/01/31 10:10:21.0	298.350	0.130	-0.140	1.220
2020/01/31 10:10:21.1	298.400	0.150	-0.150	1.170
2020/01/31 10:10:21.2	298.460	0.160	-0.150	1.120
2020/01/31 10:10:21.3	298.510	0.180	-0.150	1.070
2020/01/31 10:10:21.4	298.570	0.190	-0.150	1.020
2020/01/31 10:10:21.5	298.620	0.200	-0.150	0.970
2020/01/31 10:10:21.6	298.670	0.220	-0.150	0.910
2020/01/31 10:10:21.7	298.720	0.230	-0.150	0.860
2020/01/31 10:10:21.8	298.770	0.240	-0.150	0.800
2020/01/31 10:10:21.9	298.820	0.240	-0.150	0.750
2020/01/31 10:10:22.0	298.860	0.250	-0.150	0.690
2020/01/31 10:10:22.1	298.910	0.260	-0.150	0.630
2020/01/31 10:10:22.2	298.950	0.260	-0.150	0.570
2020/01/31 10:10:22.3	298.990	0.260	-0.150	0.510
2020/01/31 10:10:22.4	299.030	0.260	-0.160	0.450
2020/01/31 10:10:22.5	299.070	0.260	-0.160	0.380
2020/01/31 10:10:22.6	299.110	0.260	-0.170	0.320
2020/01/31 10:10:22.7	299.150	0.260	-0.170	0.250
2020/01/31 10:10:22.8	299.190	0.260	-0.180	0.190
2020/01/31 10:10:22.9	299.230	0.250	-0.180	0.120
2020/01/31 10:10:23.0	299.270	0.250	-0.190	0.050
2020/01/31 10:10:23.1	299.300	0.240	-0.200	-0.010
2020/01/31 10:10:23.2	299.340	0.230	-0.210	-0.080
2020/01/31 10:10:23.3	299.380	0.230	-0.220	-0.150
2020/01/31 10:10:23.4	299.410	0.220	-0.230	-0.220
2020/01/31 10:10:23.5	299.450	0.210	-0.250	-0.290
2020/01/31 10:10:23.6	299.490	0.200	-0.260	-0.360
2020/01/31 10:10:23.7	299.530	0.190	-0.280	-0.430
2020/01/31 10:10:23.8	299.570	0.180	-0.300	-0.500
2020/01/31 10:10:23.9	299.610	0.170	-0.320	-0.570
2020/01/31 10:10:24.0	299.650	0.160	-0.340	-0.630
2020/01/31 10:10:24.1	299.690	0.150	-0.360	-0.700
2020/01/31 10:10:24.2	299.730	0.140	-0.380	-0.770
2020/01/31 10:10:24.3	299.770	0.130	-0.400	-0.830
2020/01/31 10:10:24.4	299.810	0.120	-0.430	-0.900
2020/01/31 10:10:24.5	299.850	0.110	-0.450	-0.960
2020/01/31 10:10:24.6	299.890	0.100	-0.470	-1.030
2020/01/31 10:10:24.7	299.930	0.090	-0.480	-1.090
2020/01/31 10:10:24.8	299.980	0.070	-0.500	-1.150
2020/01/31 10:10:24.9	300.020	0.060	-0.520	-1.210
2020/01/31 10:10:25.0	300.060	0.050	-0.530	-1.270
2020/01/31 10:10:25.1	300.100	0.040	-0.550	-1.330
2020/01/31 10:10:25.2	300.140	0.020	-0.560	-1.380
2020/01/31 10:10:25.3	300.180	0.010	-0.560	-1.440
2020/01/31 10:10:25.4	300.220	-0.010	-0.570	-1.500
2020/01/31 10:10:25.5	300.260	-0.020	-0.570	-1.550
2020/01/31 10:10:25.6	300.300	-0.040	-0.570	-1.600
2020/01/31 10:10:25.7	300.340	-0.050	-0.570	-1.640
2020/01/31 10:10:25.8	300.380	-0.070	-0.570	-1.690
2020/01/31 10:10:25.9	300.420	-0.080	-0.560	-1.730
2020/01/31 10:10:26.0	300.460	-0.100	-0.550	-1.770
2020/01/31 10:10:26.1	300.500	-0.120	-0.540	-1.800
2020/01/31 10:10:26.2	300.540	-0.130	-0.520	-1.840
2020/01/31 10:10:26.3	300.580	-0.150	-0.500	-1.870
2020/01/31 10:10:26.4	300.610	-0.160	-0.480	-1.890
2020/01/31 10:10:26.5	300.650	-0.180	-0.460	-1.920
2020/01/31 10:10:26.6	300.680	-0.190	-0.430	-1.940
2020/01/31 10:10:26.7	300.720	-0.210	-0.400	-1.950
2020/01/31 10:10:26.8	300.750	-0.220	-0.370	-1.960
2020/01/31 10:10:26.9	300.780	-0.230	-0.340	-1.970
2020/01/31 10:10:27.0	300.820	-0.250	-0.300	-1.970
2020/01/31 10:10:27.1	300.850	-0.260	-0.270	-1.970
2020/01/31 10:10:27.2	300.870	-0.270	-0.230	-1.960
2020/01/31 10:10:27.3	300.900	-0.280	-0.200	-1.950
2020/01/31 10:10:27.4	300.940	-0.280	-0.160	-1.940
2020/01/31 10:10:27.5	300.960	-0.290	-0.120	-1.920
2020/01/31 10:10:27.6	300.990	-0.300	-0.090	-1.890
2020/01/31 10:10:27.7	301.010	-0.300	-0.050	-1.860
2020/01/31 10:10:27.8	301.030	-0.300	-0.020	-1.830
2020/01/31 10:10:27.9	301.050	-0.300	0.010	-1.790
2020/01/31 10:10:28.0	301.070	-0.300	0.040	-1.740
2020/01/31 10:10:28.1	301.090	-0.300	0.060	-1.700
2020/01/31 10:10:28.2	301.110	-0.290	0.090	-1.650
2020/01/31 10:10:28.3	301.130	-0.290	0.110	-1.590
2020/01/31 10:10:28.4	301.160	-0.280	0.120	-1.530
2020/01/31 10:10:28.5	301.180	-0.270	0.140	-1.470
2020/01/31 10:10:28.6	301.200	-0.260	0.150	-1.410
2020/01/31 10:10:28.7	301.220	-0.250	0.160	-1.350
2020/01/31 10:10:28.8	301.230	-0.240	0.160	-1.280
2020/01/31 10:10:28.9	301.250	-0.220	0.170	-1.210
2020/01/31 10:10:29.0	301.270	-0.210	0.170	-1.140
2020/01/31 10:10:29.1	301.290	-0.190	0.160	-1.070
2020/01/31 10:10:29.2	301.300	-0.170	0.160	-1.000
2020/01/31 10:10:29.3	301.320	-0.160	0.150	-0.930
2020/01/31 10:10:29.4	301.340	-0.140	0.140	-0.850
2020/01/31 10:10:29.5	301.350	-0.120	0.120	-0.780
2020/01/31 10:10:29.6	301.370	-0.100	0.110	-0.700
2020/01/31 10:10:29.7	301.380	-0.080	0.090	-0.630
2020/01/31 10:10:29.8	301.390	-0.060	0.070	-0.560
2020/01/31 10:10:29.9	301.400	-0.040	0.050	-0.480
2020/01/31 10:10:30.0	301.420	-0.030	0.030	-0.410
2020/01/31 10:10:30.1	301.430	-0.010	0.010	-0.340
2020/01/31 10:10:30.2	301.430	0.010	-0.020	-0.270
2020/01/31 10:10:30.3	301.440	0.020	-0.040	-0.200
2020/01/31 10:10:30.4	301.440	0.040	-0.070	-0.140
2020/01/31 10:10:30.5	301.450	0.050	-0.090	-0.070
2020/01/31 10:10:30.6	301.460	0.070	-0.120	-0.010
2020/01/31 10:10:30.7	301.460	0.080	-0.140	0.050
2020/01/31 10:10:30.8	301.470	0.090	-0.170	0.110
2020/01/31 10:10:30.9	301.470	0.100	-0.190	0.170
2020/01/31 10:10:31.0	301.470	0.110	-0.220	0.220
2020/01/31 10:10:31.1	301.470	0.120	-0.240	0.270
2020/01/31 10:10:31.2	301.480	0.120	-0.260	0.320
2020/01/31 10:10:31.3	301.480	0.130	-0.280	0.370
2020/01/31 10:10:31.4	301.460	0.130	-0.290	0.410
2020/01/31 10:10:31.5	301.460	0.130	-0.310	0.450
2020/01/31 10:10:31.6	301.460	0.140	-0.320	0.480
2020/01/31 10:10:31.7	301.460	0.130	-0.340	0.520
2020/01/31 10:10:31.8	301.450	0.130	-0.350	0.550
2020/01/31 10:10:31.9	301.450	0.130	-0.360	0.570
2020/01/31 10:10:32.0	301.440	0.130	-0.370	0.600
2020/01/31 10:10:32.1	301.440	0.120	-0.370	0.620
2020/01/31 10:10:32.2	301.430	0.110	-0.370	0.630
2020/01/31 10:10:32.3	301.420	0.100	-0.380	0.650
2020/01/31 10:10:32.4	301.400	0.100	-0.380	0.660
2020/01/31 10:10:32.5	301.380	0.080	-0.380	0.670
2020/01/31 10:10:32.6	301.370	0.070	-0.370	0.680
2020/01/31 10:10:32.7	301.350	0.060	-0.370	0.680
2020/01/31 10:10:32.8	301.340	0.050	-0.360	0.680
2020/01/31 10:10:32.9	301.320	0.030	-0.350	0.690
2020/01/31 10:10:33.0	301.300	0.020	-0.340	0.680
2020/01/31 10:10:33.1	301.280	-0.000	-0.330	0.680
2020/01/31 10:10:33.2	301.260	-0.020	-0.320	0.680
2020/01/31 10:10:33.3	301.230	-0.030	-0.310	0.670
2020/01/31 10:10:33.4	301.200	-0.050	-0.300	0.670
2020/01/31 10:10:33.5	301.180	-0.070	-0.280	0.660
2020/01/31 10:10:33.6	301.150	-0.090	-0.270	0.660
2020/01/31 10:10:33.7	301.120	-0.100	-0.250	0.650
2020/01/31 10:10:33.8	301.090	-0.120	-0.240	0.640
2020/01/31 10:10:33.9	301.060	-0.140	-0.220	0.630
2020/01/31 10:10:34.0	301.030	-0.150	-0.200	0.630
2020/01/31 10:10:34.1	300.990	-0.170	-0.190	0.620
2020/01/31 10:10:34.2	300.960	-0.180	-0.170	0.610
2020/01/31 10:10:34.3	300.930	-0.200	-0.150	0.610
2020/01/31 10:10:34.4	300.880	-0.210	-0.140	0.600
2020/01/31 10:10:34.5	300.840	-0.220	-0.130	0.590
2020/01/31 10:10:34.6	300.800	-0.220	-0.110	0.580
2020/01/31 10:10:34.7	300.770	-0.230	-0.100	0.570
2020/01/31 10:10:34.8	300.730	-0.240	-0.080	0.560
2020/01/31 10:10:34.9	300.700	-0.240	-0.070	0.550
2020/01/31 10:10:35.0	300.660	-0.240	-0.060	0.530
2020/01/31 10:10:35.1	300.630	-0.240	-0.050	0.520
2020/01/31 10:10:35.2	300.590	-0.240	-0.040	0.500
2020/01/31 10:10:35.3	300.560	-0.230	-0.030	0.480
2020/01/31 10:10:35.4	300.530	-0.230	-0.030	0.450
2020/01/31 10:10:35.5	300.490	-0.220	-0.030	0.430
2020/01/31 10:10:35.6	300.460	-0.210	-0.030	0.400
2020/01/31 10:10:35.7	300.430	-0.190	-0.030	0.370
2020/01/31 10:10:35.8	300.400	-0.180	-0.030	0.340
2020/01/31 10:10:35.9	300.380	-0.170	-0.030	0.300
2020/01/31 10:10:36.0	300.350	-0.150	-0.030	0.270
2020/01/31 10:10:36.1	300.320	-0.130	-0.040	0.230
2020/01/31 10:10:36.2	300.300	-0.110	-0.050	0.180
2020/01/31 10:10:36.3	300.270	-0.090	-0.050	0.140
2020/01/31 10:10:36.4	300.260	-0.070	-0.060	0.090
2020/01/31 10:10:36.5	300.230	-0.050	-0.070	0.050
2020/01/31 10:10:36.6	300.210	-0.030	-0.090	-0.000
2020/01/31 10:10:36.7	300.190	-0.010	-0.100	-0.050
2020/01/31 10:10:36.8	300.170	0.010	-0.110	-0.110
2020/01/31 10:10:36.9	300.150	0.030	-0.120	-0.160
2020/01/31 10:10:37.0	300.130	0.050	-0.130	-0.210
2020/01/31 10:10:37.1	300.100	0.070	-0.150	-0.270
2020/01/31 10:10:37.2	300.090	0.090	-0.160	-0.320
2020/01/31 10:10:37.3	300.070	0.100	-0.170	-0.380
2020/01/31 10:10:37.4	300.050	0.120	-0.180	-0.430
2020/01/31 10:10:37.5	300.030	0.130	-0.190	-0.490
2020/01/31 10:10:37.6	300.010	0.150	-0.200	-0.540
2020/01/31 10:10:37.7	299.990	0.160	-0.210	-0.590
2020/01/31 10:10:37.8	299.970	0.170	-0.210	-0.640
2020/01/31 10:10:37.9	299.940	0.180	-0.220	-0.690
2020/01/31 10:10:38.0	299.920	0.190	-0.220	-0.730
2020/01/31 10:10:38.1	299.890	0.190	-0.230	-0.770
2020/01/31 10:10:38.2	299.870	0.200	-0.230	-0.810
2020/01/31 10:10:38.3	299.840	0.200	-0.220	-0.850
2020/01/31 10:10:38.4	299.830	0.200	-0.220	-0.880
2020/01/31 10:10:38.5	299.790	0.200	-0.220	-0.910
2020/01/31 10:10:38.6	299.760	0.200	-0.210	-0.930
2020/01/31 10:10:38.7	299.720	0.190	-0.200	-0.950
2020/01/31 10:10:38.8	299.680	0.190	-0.190	-0.970
2020/01/31 10:10:38.9	299.640	0.180	-0.180	-0.980
2020/01/31 10:10:39.0	299.590	0.180	-0.170	-0.990
2020/01/31 10:10:39.1	299.540	0.170	-0.160	-1.000
2020/01/31 10:10:39.2	299.490	0.160	-0.150	-1.000
2020/01/31 10:10:39.3	299.440	0.150	-0.130	-1.000
2020/01/31 10:10:39.4	299.400	0.140	-0.120	-1.000
2020/01/31 10:10:39.5	299.340	0.130	-0.110	-0.990
2020/01/31 10:10:39.6	299.280	0.120	-0.100	-0.980
2020/01/31 10:10:39.7	299.220	0.110	-0.090	-0.970
2020/01/31 10:10:39.8	299.150	0.090	-0.080	-0.960
2020/01/31 10:10:39.9	299.080	0.080	-0.070	-0.940
2020/01/31 10:10:40.0	299.020	0.070	-0.060	-0.920
2020/01/31 10:10:40.1	298.940	0.060	-0.050	-0.890
2020/01/31 10:10:40.2	298.870	0.050	-0.050	-0.870
2020/01/31 10:10:40.3	298.800	0.040	-0.040	-0.840
2020/01/31 10:10:40.4	298.740	0.030	-0.040	-0.800
2020/01/31 10:10:40.5	298.660	0.030	-0.040	-0.770
2020/01/31 10:10:40.6	298.580	0.020	-0.040	-0.730
2020/01/31 10:10:40.7	298.500	0.010	-0.040	-0.690
2020/01/31 10:10:40.8	298.420	0.010	-0.050	-0.650
2020/01/31 10:10:40.9	298.340	0.000	-0.060	-0.600
2020/01/31 10:10:41.0	298.260	0.000	-0.070	-0.560
2020/01/31 10:10:41.1	298.180	0.000	-0.080	-0.510
2020/01/31 10:10:41.2	298.100	0.000	-0.090	-0.460
2020/01/31 10:10:41.3	298.020	0.000	-0.110	-0.400
2020/01/31 10:10:41.4	297.940	0.010	-0.130	-0.350
2020/01/31 10:10:41.5	297.850	0.010	-0.150	-0.290
2020/01/31 10:10:41.6	297.770	0.020	-0.170	-0.240
2020/01/31 10:10:41.7	297.690	0.020	-0.200	-0.180
2020/01/31 10:10:41.8	297.610	0.030	-0.230	-0.120
2020/01/31 10:10:41.9	297.530	0.040	-0.260	-0.060
2020/01/31 10:10:42.0	297.450	0.050	-0.290	0.000
2020/01/31 10:10:42.1	297.370	0.060	-0.320	0.060
2020/01/31 10:10:42.2	297.290	0.070	-0.350	0.120
2020/01/31 10:10:42.3	297.210	0.080	-0.390	0.180
2020/01/31 10:10:42.4	297.130	0.090	-0.420	0.240
2020/01/31 10:10:42.5	297.050	0.100	-0.450	0.290
2020/01/31 10:10:42.6	296.980	0.110	-0.490	0.350
2020/01/31 10:10:42.7	296.900	0.120	-0.520	0.410
2020/01/31 10:10:42.8	296.830	0.130	-0.550	0.460
2020/01/31 10:10:42.9	296.760	0.130	-0.580	0.510
2020/01/31 10:10:43.0	296.690	0.140	-0.610	0.560
2020/01/31 10:10:43.1	296.620	0.150	-0.640	0.610
2020/01/31 10:10:43.2	296.550	0.150	-0.660	0.660
2020/01/31 10:10:43.3	296.480	0.160	-0.690	0.700
2020/01/31 10:10:43.4	296.400	0.160	-0.700	0.740
2020/01/31 10:10:43.5	296.330	0.160	-0.720	0.780
2020/01/31 10:10:43.6	296.270	0.160	-0.730	0.820
2020/01/31 10:10:43.7	296.210	0.160	-0.740	0.860
2020/01/31 10:10:43.8	296.150	0.160	-0.750	0.890
2020/01/31 10:10:43.9	296.090	0.150	-0.750	0.920
2020/01/31 10:10:44.0	296.030	0.150	-0.750	0.950
2020/01/31 10:10:44.1	295.980	0.140	-0.750	0.970
2020/01/31 10:10:44.2	295.920	0.130	-0.740	1.000
2020/01/31 10:10:44.3	295.870	0.120	-0.730	1.020
2020/01/31 10:10:44.4	295.810	0.100	-0.720	1.030
2020/01/31 10:10:44.5	295.750	0.090	-0.700	1.050
2020/01/31 10:10:44.6	295.700	0.070	-0.680	1.060
2020/01/31 10:10:44.7	295.650	0.050	-0.660	1.080
2020/01/31 10:10:44.8	295.600	0.030	-0.640	1.090
2020/01/31 10:10:44.9	295.550	0.010	-0.610	1.100
2020/01/31 10:10:45.0	295.500	-0.010	-0.570	1.110
2020/01/31 10:10:45.1	295.450	-0.030	-0.540	1.120
2020/01/31 10:10:45.2	295.400	-0.050	-0.500	1.140
2020/01/31 10:10:45.3	295.350	-0.080	-0.460	1.150
2020/01/31 10:10:45.4	295.300	-0.100	-0.410	1.160
2020/01/31 10:10:45.5	295.250	-0.120	-0.370	1.170
2020/01/31 10:10:45.6	295.190	-0.150	-0.320	1.180
2020/01/31 10:10:45.7	295.140	-0.170	-0.270	1.190
2020/01/31 10:10:45.8	295.090	-0.190	-0.210	1.200
2020/01/31 10:10:45.9	295.030	-0.220	-0.160	1.210
2020/01/31 10:10:46.0	294.980	-0.240	-0.110	1.230
2020/01/31 10:10:46.1	294.920	-0.260	-0.050	1.240
2020/01/31 10:10:46.2	294.870	-0.280	0.000	1.260
2020/01/31 10:10:46.3	294.810	-0.300	0.050	1.270
2020/01/31 10:10:46.4	294.750	-0.320	0.110	1.290
2020/01/31 10:10:46.5	294.690	-0.330	0.160	1.300
2020/01/31 10:10:46.6	294.630	-0.340	0.210	1.320
2020/01/31 10:10:46.7	294.570	-0.360	0.250	1.330
2020/01/31 10:10:46.8	294.520	-0.370	0.300	1.350
2020/01/31 10:10:46.9	294.460	-0.370	0.340	1.360
2020/01/31 10:10:47.0	294.400	-0.380	0.380	1.380
2020/01/31 10:10:47.1	294.340	-0.380	0.420	1.390
2020/01/31 10:10:47.2	294.290	-0.380	0.450	1.400
2020/01/31 10:10:47.3	294.230	-0.380	0.480	1.400
2020/01/31 10:10:47.4	294.190	-0.380	0.500	1.410
2020/01/31 10:10:47.5	294.130	-0.370	0.520	1.420
2020/01/31 10:10:47.6	294.080	-0.370	0.540	1.420
2020/01/31 10:10:47.7	294.020	-0.360	0.560	1.420
2020/01/31 10:10:47.8	293.970	-0.340	0.560	1.420
2020/01/31 10:10:47.9	293.910	-0.330	0.570	1.420
2020/01/31 10:10:48.0	293.860	-0.310	0.570	1.420
2020/01/31 10:10:48.1	293.810	-0.290	0.570	1.410
2020/01/31 10:10:48.2	293.760	-0.270	0.560	1.410
2020/01/31 10:10:48.3	293.710	-0.250	0.550	1.400
2020/01/31 10:10:48.4	293.680	-0.220	0.540	1.390
2020/01/31 10:10:48.5	293.630	-0.190	0.520	1.380
2020/01/31 10:10:48.6	293.580	-0.170	0.500	1.370
2020/01/31 10:10:48.7	293.530	-0.140	0.480	1.360
2020/01/31 10:10:48.8	293.480	-0.110	0.450	1.350
2020/01/31 10:10:48.9	293.430	-0.080	0.430	1.340
2020/01/31 10:10:49.0	293.380	-0.040	0.400	1.330
2020/01/31 10:10:49.1	293.330	-0.010	0.370	1.310
2020/01/31 10:10:49.2	293.280	0.020	0.330	1.300
2020/01/31 10:10:49.3	293.230	0.050	0.300	1.290
2020/01/31 10:10:49.4	293.190	0.090	0.260	1.280
2020/01/31 10:10:49.5	293.150	0.120	0.230	1.270
2020/01/31 10:10:49.6	293.100	0.150	0.190	1.260
2020/01/31 10:10:49.7	293.050	0.180	0.150	1.250
2020/01/31 10:10:49.8	293.000	0.210	0.120	1.250
2020/01/31 10:10:49.9	292.950	0.230	0.080	1.240
2020/01/31 10:10:50.0	292.900	0.260	0.040	1.230
2020/01/31 10:10:50.1	292.850	0.290	0.010	1.230
2020/01/31 10:10:50.2	292.810	0.310	-0.030	1.230
2020/01/31 10:10:50.3	292.760	0.330	-0.060	1.230
2020/01/31 10:10:50.4	292.710	0.350	-0.090	1.220
2020/01/31 10:10:50.5	292.660	0.370	-0.120	1.220
2020/01/31 10:10:50.6	292.610	0.390	-0.150	1.230
2020/01/31 10:10:50.7	292.560	0.400	-0.180	1.230
2020/01/31 10:10:50.8	292.510	0.410	-0.210	1.240
2020/01/31 10:10:50.9	292.460	0.420	-0.240	1.250
2020/01/31 10:10:51.0	292.400	0.430	-0.260	1.260
2020/01/31 10:10:51.1	292.350	0.440	-0.280	1.280
2020/01/31 10:10:51.2	292.300	0.440	-0.310	1.290
2020/01/31 10:10:51.3	292.250	0.440	-0.330	1.310
2020/01/31 10:10:51.4	292.210	0.440	-0.350	1.330
2020/01/31 10:10:51.5	292.160	0.440	-0.370	1.350
2020/01/31 10:10:51.6	292.100	0.440	-0.390	1.370
2020/01/31 10:10:51.7	292.050	0.440	-0.410	1.390
2020/01/31 10:10:51.8	292.000	0.430	-0.420	1.410
2020/01/31 10:10:51.9	291.950	0.430	-0.440	1.440
2020/01/31 10:10:52.0	291.900	0.420	-0.460	1.460
2020/01/31 10:10:52.1	291.850	0.410	-0.480	1.480
2020/01/31 10:10:52.2	291.800	0.410	-0.500	1.500
2020/01/31 10:10:52.3	291.760	0.400	-0.520	1.520
2020/01/31 10:10:52.4	291.720	0.390	-0.540	1.530
2020/01/31 10:10:52.5	291.680	0.380	-0.560	1.550
2020/01/31 10:10:52.6	291.640	0.370	-0.580	1.570
2020/01/31 10:10:52.7	291.610	0.360	-0.600	1.580
2020/01/31 10:10:52.8	291.570	0.350	-0.620	1.590
2020/01/31 10:10:52.9	291.540	0.350	-0.640	1.600
2020/01/31 10:10:53.0	291.510	0.340	-0.660	1.610
2020/01/31 10:10:53.1	291.480	0.330	-0.670	1.610
2020/01/31 10:10:53.2	291.460	0.320	-0.690	1.620
2020/01/31 10:10:53.3	291.440	0.320	-0.710	1.620
2020/01/31 10:10:53.4	291.430	0.310	-0.730	1.620
2020/01/31 10:10:53.5	291.410	0.300	-0.750	1.610
2020/01/31 10:10:53.6	291.390	0.300	-0.760	1.600
2020/01/31 10:10:53.7	291.380	0.290	-0.770	1.600
2020/01/31 10:10:53.8	291.370	0.290	-0.790	1.580
2020/01/31 10:10:53.9	291.360	0.280	-0.800	1.570
2020/01/31 10:10:54.0	291.360	0.280	-0.800	1.560
2020/01/31 10:10:54.1	291.350	0.270	-0.810	1.540
2020/01/31 10:10:54.2	291.350	0.270	-0.810	1.520
2020/01/31 10:10:54.3	291.350	0.270	-0.810	1.500
2020/01/31 10:10:54.4	291.360	0.260	-0.810	1.480
2020/01/31 10:10:54.5	291.360	0.260	-0.800	1.450
2020/01/31 10:10:54.6	291.360	0.250	-0.790	1.430
2020/01/31 10:10:54.7	291.370	0.250	-0.780	1.400
2020/01/31 10:10:54.8	291.370	0.240	-0.760	1.380
2020/01/31 10:10:54.9	291.380	0.230	-0.750	1.350
2020/01/31 10:10:55.0	291.390	0.220	-0.730	1.320
2020/01/31 10:10:55.1	291.400	0.210	-0.700	1.290
2020/01/31 10:10:55.2	291.410	0.200	-0.670	1.260
2020/01/31 10:10:55.3	291.420	0.190	-0.650	1.230
2020/01/31 10:10:55.4	291.430	0.180	-0.610	1.210
2020/01/31 10:10:55.5	291.440	0.160	-0.580	1.180
2020/01/31 10:10:55.6	291.450	0.150	-0.540	1.150
2020/01/31 10:10:55.7	291.470	0.130	-0.500	1.120
2020/01/31 10:10:55.8	291.480	0.110	-0.460	1.090
2020/01/31 10:10:55.9	291.490	0.090	-0.420	1.070
2020/01/31 10:10:56.0	291.500	0.070	-0.380	1.040
2020/01/31 10:10:56.1	291.510	0.050	-0.330	1.020
2020/01/31 10:10:56.2	291.520	0.020	-0.290	0.990
2020/01/31 10:10:56.3	291.530	-0.000	-0.240	0.970
2020/01/31 10:10:56.4	291.540	-0.030	-0.200	0.950
2020/01/31 10:10:56.5	291.540	-0.060	-0.150	0.930
2020/01/31 10:10:56.6	291.550	-0.090	-0.110	0.910
2020/01/31 10:10:56.7	291.560	-0.120	-0.070	0.900
2020/01/31 10:10:56.8	291.570	-0.150	-0.030	0.890
2020/01/31 10:10:56.9	291.580	-0.180	0.010	0.870
2020/01/31 10:10:57.0	291.580	-0.210	0.050	0.860
2020/01/31 10:10:57.1	291.590	-0.240	0.080	0.860
2020/01/31 10:10:57.2	291.590	-0.270	0.120	0.850
2020/01/31 10:10:57.3	291.600	-0.300	0.150	0.850
2020/01/31 10:10:57.4	291.590	-0.320	0.170	0.840
2020/01/31 10:10:57.5	291.600	-0.350	0.200	0.840
2020/01/31 10:10:57.6	291.600	-0.380	0.220	0.840
2020/01/31 10:10:57.7	291.610	-0.400	0.240	0.850
2020/01/31 10:10:57.8	291.620	-0.430	0.260	0.850
2020/01/31 10:10:57.9	291.620	-0.450	0.270	0.860
2020/01/31 10:10:58.0	291.630	-0.470	0.280	0.870
2020/01/31 10:10:58.1	291.640	-0.490	0.290	0.870
2020/01/31 10:10:58.2	291.640	-0.500	0.290	0.880
2020/01/31 10:10:58.3	291.650	-0.520	0.300	0.890
2020/01/31 10:10:58.4	291.660	-0.530	0.300	0.900
2020/01/31 10:10:58.5	291.670	-0.540	0.300	0.910
2020/01/31 10:10:58.6	291.680	-0.550	0.290	0.920
2020/01/31 10:10:58.7	291.700	-0.550	0.290	0.920
2020/01/31 10:10:58.8	291.710	-0.550	0.280	0.930
2020/01/31 10:10:58.9	291.730	-0.550	0.270	0.940
2020/01/31 10:10:59.0	291.740	-0.550	0.260	0.940
2020/01/31 10:10:59.1	291.760	-0.550	0.240	0.950
2020/01/31 10:10:59.2	291.780	-0.540	0.230	0.950
2020/01/31 10:10:59.3	291.800	-0.530	0.210	0.960
2020/01/31 10:10:59.4	291.820	-0.520	0.190	0.960
2020/01/31 10:10:59.5	291.840	-0.510	0.170	0.960
2020/01/31 10:10:59.6	291.870	-0.490	0.160	0.960
2020/01/31 10:10:59.7	291.890	-0.480	0.140	0.960
2020/01/31 10:10:59.8	291.920	-0.460	0.120	0.960
2020/01/31 10:10:59.9	291.950	-0.440	0.100	0.960
2020/01/31 10:11:00.0	291.970	-0.420	0.080	0.950
2020/01/31 10:11:00.1	292.000	-0.390	0.060	0.950
2020/01/31 10:11:00.2	292.030	-0.370	0.040	0.940
2020/01/31 10:11:00.3	292.060	-0.340	0.030	0.940
2020/01/31 10:11:00.4	292.090	-0.320	0.010	0.940
2020/01/31 10:11:00.5	292.120	-0.290	-0.010	0.930
2020/01/31 10:11:00.6	292.150	-0.260	-0.020	0.930
2020/01/31 10:11:00.7	292.180	-0.230	-0.040	0.920
2020/01/31 10:11:00.8	292.210	-0.200	-0.060	0.920
2020/01/31 10:11:00.9	292.240	-0.170	-0.070	0.910
2020/01/31 10:11:01.0	292.270	-0.140	-0.090	0.910
2020/01/31 10:11:01.1	292.300	-0.110	-0.100	0.910
2020/01/31 10:11:01.2	292.330	-0.080	-0.110	0.910
2020/01/31 10:11:01.3	292.360	-0.060	-0.120	0.910
2020/01/31 10:11:01.4	292.380	-0.030	-0.140	0.910
2020/01/31 10:11:01.5	292.410	0.000	-0.150	0.910
2020/01/31 10:11:01.6	292.440	0.030	-0.160	0.910
2020/01/31 10:11:01.7	292.470	0.050	-0.170	0.910
2020/01/31 10:11:01.8	292.490	0.080	-0.180	0.910
2020/01/31 10:11:01.9	292.520	0.100	-0.190	0.910
2020/01/31 10:11:02.0	292.550	0.130	-0.200	0.910
2020/01/31 10:11:02.1	292.580	0.150	-0.210	0.910
2020/01/31 10:11:02.2	292.610	0.170	-0.210	0.910
2020/01/31 10:11:02.3	292.640	0.190	-0.220	0.910
2020/01/31 10:11:02.4	292.670	0.210	-0.230	0.910
2020/01/31 10:11:02.5	292.700	0.220	-0.240	0.910
2020/01/31 10:11:02.6	292.730	0.240	-0.250	0.920
2020/01/31 10:11:02.7	292.770	0.250	-0.260	0.920
2020/01/31 10:11:02.8	292.800	0.270	-0.270	0.920
2020/01/31 10:11:02.9	292.840	0.280	-0.280	0.920
2020/01/31 10:11:03.0	292.880	0.290	-0.290	0.930
2020/01/31 10:11:03.1	292.920	0.290	-0.300	0.930
2020/01/31 10:11:03.2	292.960	0.300	-0.310	0.930
2020/01/31 10:11:03.3	293.000	0.310	-0.320	0.930
2020/01/31 10:11:03.4	293.030	0.310	-0.330	0.930
2020/01/31 10:11:03.5	293.070	0.310	-0.340	0.930
2020/01/31 10:11:03.6	293.120	0.310	-0.360	0.930
2020/01/31 10:11:03.7	293.160	0.320	-0.370	0.930
2020/01/31 10:11:03.8	293.200	0.310	-0.380	0.930
2020/01/31 10:11:03.9	293.250	0.310	-0.390	0.920
2020/01/31 10:11:04.0	293.300	0.310	-0.410	0.920
2020/01/31 10:11:04.1	293.340	0.300	-0.420	0.910
2020/01/31 10:11:04.2	293.390	0.300	-0.430	0.910
2020/01/31 10:11:04.3	293.430	0.290	-0.440	0.900
2020/01/31 10:11:04.4	293.470	0.290	-0.450	0.890
2020/01/31 10:11:04.5	293.510	0.280	-0.460	0.880
2020/01/31 10:11:04.6	293.560	0.270	-0.460	0.870
2020/01/31 10:11:04.7	293.600	0.260	-0.470	0.860
2020/01/31 10:11:04.8	293.640	0.250	-0.470	0.850
2020/01/31 10:11:04.9	293.680	0.240	-0.480	0.840
2020/01/31 10:11:05.0	293.730	0.230	-0.480	0.820
2020/01/31 10:11:05.1	293.770	0.220	-0.480	0.810
2020/01/31 10:11:05.2	293.810	0.210	-0.470	0.790
2020/01/31 10:11:05.3	293.850	0.200	-0.470	0.780
2020/01/31 10:11:05.4	293.870	0.190	-0.460	0.760
2020/01/31 10:11:05.5	293.910	0.190	-0.450	0.750
2020/01/31 10:11:05.6	293.950	0.180	-0.440	0.730
2020/01/31 10:11:05.7	293.990	0.170	-0.430	0.710
2020/01/31 10:11:05.8	294.020	0.160	-0.420	0.700
2020/01/31 10:11:05.9	294.060	0.150	-0.400	0.680
2020/01/31 10:11:06.0	294.090	0.140	-0.380	0.660
2020/01/31 10:11:06.1	294.130	0.130	-0.370	0.650
2020/01/31 10:11:06.2	294.170	0.120	-0.350	0.630
2020/01/31 10:11:06.3	294.200	0.110	-0.330	0.620
2020/01/31 10:11:06.4	294.210	0.100	-0.310	0.610
2020/01/31 10:11:06.5	294.240	0.100	-0.290	0.590
2020/01/31 10:11:06.6	294.280	0.090	-0.270	0.580
2020/01/31 10:11:06.7	294.310	0.080	-0.250	0.570
2020/01/31 10:11:06.8	294.340	0.080	-0.230	0.550
2020/01/31 10:11:06.9	294.370	0.070	-0.210	0.540
2020/01/31 10:11:07.0	294.400	0.060	-0.190	0.530
2020/01/31 10:11:07.1	294.430	0.060	-0.170	0.520
2020/01/31 10:11:07.2	294.460	0.050	-0.150	0.510
2020/01/31 10:11:07.3	294.490	0.050	-0.130	0.500
2020/01/31 10:11:07.4	294.520	0.040	-0.110	0.490
2020/01/31 10:11:07.5	294.550	0.040	-0.100	0.480
2020/01/31 10:11:07.6	294.580	0.040	-0.080	0.470
2020/01/31 10:11:07.7	294.600	0.030	-0.060	0.460
2020/01/31 10:11:07.8	294.630	0.030	-0.050	0.450
2020/01/31 10:11:07.9	294.660	0.030	-0.040	0.440
2020/01/31 10:11:08.0	294.680	0.020	-0.020	0.430
2020/01/31 10:11:08.1	294.710	0.020	-0.010	0.420
2020/01/31 10:11:08.2	294.730	0.020	0.000	0.410
2020/01/31 10:11:08.3	294.760	0.020	0.020	0.400
2020/01/31 10:11:08.4	294.760	0.020	0.020	0.380
2020/01/31 10:11:08.5	294.780	0.010	0.030	0.370
2020/01/31 10:11:08.6	294.810	0.010	0.050	0.360
2020/01/31 10:11:08.7	294.830	0.010	0.060	0.340
2020/01/31 10:11:08.8	294.850	0.000	0.060	0.330
2020/01/31 10:11:08.9	294.870	0.000	0.070	0.310
2020/01/31 10:11:09.0	294.900	-0.000	0.080	0.290
2020/01/31 10:11:09.1	294.920	-0.010	0.090	0.270
2020/01/31 10:11:09.2	294.940	-0.010	0.100	0.250
2020/01/31 10:11:09.3	294.960	-0.020	0.110	0.220
2020/01/31 10:11:09.4	294.970	-0.020	0.120	0.190
2020/01/31 10:11:09.5	294.990	-0.030	0.130	0.160
2020/01/31 10:11:09.6	295.010	-0.030	0.130	0.130
2020/01/31 10:11:09.7	295.040	-0.040	0.140	0.100
2020/01/31 10:11:09.8	295.060	-0.050	0.140	0.060
2020/01/31 10:11:09.9	295.080	-0.050	0.140	0.020
2020/01/31 10:11:10.0	295.100	-0.060	0.140	-0.020
2020/01/31 10:11:10.1	295.130	-0.070	0.140	-0.070
2020/01/31 10:11:10.2	295.150	-0.080	0.140	-0.120
2020/01/31 10:11:10.3	295.170	-0.080	0.140	-0.170
2020/01/31 10:11:10.4	295.190	-0.090	0.130	-0.220
2020/01/31 10:11:10.5	295.220	-0.100	0.120	-0.270
2020/01/31 10:11:10.6	295.240	-0.110	0.120	-0.330
2020/01/31 10:11:10.7	295.270	-0.110	0.110	-0.380
2020/01/31 10:11:10.8	295.300	-0.120	0.090	-0.440
2020/01/31 10:11:10.9	295.330	-0.130	0.080	-0.500
2020/01/31 10:11:11.0	295.350	-0.130	0.070	-0.560
2020/01/31 10:11:11.1	295.380	-0.140	0.050	-0.620
2020/01/31 10:11:11.2	295.410	-0.140	0.030	-0.680
2020/01/31 10:11:11.3	295.440	-0.140	0.010	-0.740
2020/01/31 10:11:11.4	295.450	-0.150	-0.010	-0.790
2020/01/31 10:11:11.5	295.470	-0.150	-0.040	-0.850
2020/01/31 10:11:11.6	295.500	-0.150	-0.060	-0.900
2020/01/31 10:11:11.7	295.530	-0.150	-0.090	-0.960
2020/01/31 10:11:11.8	295.550	-0.150	-0.110	-1.010
2020/01/31 10:11:11.9	295.570	-0.150	-0.140	-1.060
2020/01/31 10:11:12.0	295.600	-0.140	-0.170	-1.100
2020/01/31 10:11:12.1	295.620	-0.140	-0.200	-1.150
2020/01/31 10:11:12.2	295.640	-0.140	-0.230	-1.190
2020/01/31 10:11:12.3	295.660	-0.130	-0.270	-1.230
2020/01/31 10:11:12.4	295.680	-0.120	-0.300	-1.270
2020/01/31 10:11:12.5	295.700	-0.120	-0.330	-1.310
2020/01/31 10:11:12.6	295.720	-0.110	-0.370	-1.340
2020/01/31 10:11:12.7	295.730	-0.100	-0.400	-1.370
2020/01/31 10:11:12.8	295.750	-0.100	-0.440	-1.400
2020/01/31 10:11:12.9	295.760	-0.090	-0.470	-1.420
2020/01/31 10:11:13.0	295.770	-0.080	-0.500	-1.450
2020/01/31 10:11:13.1	295.790	-0.070	-0.540	-1.470
2020/01/31 10:11:13.2	295.800	-0.070	-0.570	-1.480
2020/01/31 10:11:13.3	295.810	-0.060	-0.600	-1.500
2020/01/31 10:11:13.4	295.850	-0.050	-0.630	-1.500
2020/01/31 10:11:13.5	295.860	-0.050	-0.660	-1.510
2020/01/31 10:11:13.6	295.870	-0.040	-0.690	-1.520
2020/01/31 10:11:13.7	295.880	-0.030	-0.720	-1.520
2020/01/31 10:11:13.8	295.880	-0.030	-0.740	-1.520
2020/01/31 10:11:13.9	295.890	-0.030	-0.760	-1.510
2020/01/31 10:11:14.0	295.890	-0.020	-0.780	-1.500
2020/01/31 10:11:14.1	295.900	-0.020	-0.800	-1.490
2020/01/31 10:11:14.2	295.900	-0.020	-0.810	-1.470
2020/01/31 10:11:14.3	295.900	-0.020	-0.820	-1.450
2020/01/31 10:11:14.4	295.910	-0.020	-0.830	-1.430
2020/01/31 10:11:14.5	295.910	-0.020	-0.830	-1.400
2020/01/31 10:11:14.6	295.900	-0.030	-0.830	-1.360
2020/01/31 10:11:14.7	295.890	-0.030	-0.830	-1.330
2020/01/31 10:11:14.8	295.880	-0.030	-0.820	-1.290
2020/01/31 10:11:14.9	295.870	-0.040	-0.810	-1.240
2020/01/31 10:11:15.0	295.860	-0.050	-0.800	-1.190
2020/01/31 10:11:15.1	295.850	-0.050	-0.780	-1.140
2020/01/31 10:11:15.2	295.830	-0.060	-0.760	-1.080
2020/01/31 10:11:15.3	295.820	-0.070	-0.730	-1.030
2020/01/31 10:11:15.4	295.820	-0.080	-0.700	-0.970
2020/01/31 10:11:15.5	295.800	-0.090	-0.670	-0.900
2020/01/31 10:11:15.6	295.780	-0.100	-0.630	-0.840
2020/01/31 10:11:15.7	295.760	-0.110	-0.590	-0.770
2020/01/31 10:11:15.8	295.730	-0.130	-0.560	-0.700
2020/01/31 10:11:15.9	295.710	-0.140	-0.510	-0.630
2020/01/31 10:11:16.0	295.690	-0.150	-0.470	-0.560
2020/01/31 10:11:16.1	295.660	-0.160	-0.430	-0.490
2020/01/31 10:11:16.2	295.630	-0.180	-0.380	-0.420
2020/01/31 10:11:16.3	295.610	-0.190	-0.330	-0.350
2020/01/31 10:11:16.4	295.580	-0.200	-0.290	-0.280
2020/01/31 10:11:16.5	295.550	-0.220	-0.240	-0.210
2020/01/31 10:11:16.6	295.520	-0.230	-0.190	-0.140
2020/01/31 10:11:16.7	295.490	-0.240	-0.140	-0.080
2020/01/31 10:11:16.8	295.460	-0.260	-0.090	-0.010
2020/01/31 10:11:16.9	295.430	-0.270	-0.050	0.050
2020/01/31 10:11:17.0	295.390	-0.280	0.000	0.110
2020/01/31 10:11:17.1	295.360	-0.290	0.050	0.160
2020/01/31 10:11:17.2	295.330	-0.300	0.100	0.220
2020/01/31 10:11:17.3	295.290	-0.310	0.140	0.270
2020/01/31 10:11:17.4	295.240	-0.320	0.190	0.310
2020/01/31 10:11:17.5	295.200	-0.330	0.230	0.360
2020/01/31 10:11:17.6	295.170	-0.330	0.270	0.400
2020/01/31 10:11:17.7	295.130	-0.340	0.310	0.440
2020/01/31 10:11:17.8	295.090	-0.340	0.350	0.480
2020/01/31 10:11:17.9	295.060	-0.340	0.390	0.520
2020/01/31 10:11:18.0	295.020	-0.340	0.420	0.550
2020/01/31 10:11:18.1	294.980	-0.340	0.450	0.580
2020/01/31 10:11:18.2	294.940	-0.340	0.480	0.610
2020/01/31 10:11:18.3	294.900	-0.340	0.510	0.630
2020/01/31 10:11:18.4	294.850	-0.330	0.530	0.650
2020/01/31 10:11:18.5	294.810	-0.320	0.560	0.670
2020/01/31 10:11:18.6	294.770	-0.320	0.570	0.690
2020/01/31 10:11:18.7	294.730	-0.310	0.590	0.700
2020/01/31 10:11:18.8	294.690	-0.290	0.600	0.710
2020/01/31 10:11:18.9	294.650	-0.280	0.610	0.720
2020/01/31 10:11:19.0	294.610	-0.260	0.620	0.730
2020/01/31 10:11:19.1	294.570	-0.250	0.620	0.730
2020/01/31 10:11:19.2	294.530	-0.230	0.620	0.740
2020/01/31 10:11:19.3	294.480	-0.210	0.610	0.740
2020/01/31 10:11:19.4	294.450	-0.190	0.600	0.740
2020/01/31 10:11:19.5	294.400	-0.170	0.590	0.740
2020/01/31 10:11:19.6	294.360	-0.150	0.570	0.740
2020/01/31 10:11:19.7	294.320	-0.120	0.550	0.740
2020/01/31 10:11:19.8	294.280	-0.100	0.530	0.740
2020/01/31 10:11:19.9	294.240	-0.070	0.500	0.740
2020/01/31 10:11:20.0	294.200	-0.050	0.470	0.730
2020/01/31 10:11:20.1	294.160	-0.020	0.440	0.730
2020/01/31 10:11:20.2	294.120	0.010	0.400	0.730
2020/01/31 10:11:20.3	294.070	0.030	0.360	0.720
2020/01/31 10:11:20.4	294.030	0.060	0.320	0.720
2020/01/31 10:11:20.5	293.990	0.090	0.280	0.720
2020/01/31 10:11:20.6	293.950	0.110	0.230	0.720
2020/01/31 10:11:20.7	293.910	0.140	0.190	0.710
2020/01/31 10:11:20.8	293.870	0.170	0.140	0.710
2020/01/31 10:11:20.9	293.830	0.190	0.090	0.710
2020/01/31 10:11:21.0	293.790	0.220	0.040	0.700
2020/01/31 10:11:21.1	293.750	0.240	-0.020	0.700
2020/01/31 10:11:21.2	293.710	0.270	-0.070	0.700
2020/01/31 10:11:21.3	293.680	0.290	-0.120	0.700
2020/01/31 10:11:21.4	293.640	0.310	-0.180	0.690
2020/01/31 10:11:21.5	293.600	0.330	-0.230	0.690
2020/01/31 10:11:21.6	293.570	0.350	-0.280	0.690
2020/01/31 10:11:21.7	293.530	0.370	-0.340	0.680
2020/01/31 10:11:21.8	293.500	0.390	-0.390	0.680
2020/01/31 10:11:21.9	293.470	0.400	-0.440	0.680
2020/01/31 10:11:22.0	293.430	0.420	-0.490	0.670
2020/01/31 10:11:22.1	293.400	0.430	-0.530	0.670
2020/01/31 10:11:22.2	293.370	0.440	-0.580	0.660
2020/01/31 10:11:22.3	293.340	0.450	-0.630	0.660
2020/01/31 10:11:22.4	293.310	0.460	-0.670	0.650
2020/01/31 10:11:22.5	293.280	0.460	-0.710	0.650
2020/01/31 10:11:22.6	293.250	0.460	-0.740	0.640
2020/01/31 10:11:22.7	293.230	0.470	-0.780	0.640
2020/01/31 10:11:22.8	293.200	0.470	-0.810	0.630
2020/01/31 10:11:22.9	293.170	0.460	-0.840	0.630
2020/01/31 10:11:23.0	293.150	0.460	-0.870	0.620
2020/01/31 10:11:23.1	293.120	0.450	-0.890	0.620
2020/01/31 10:11:23.2	293.100	0.450	-0.910	0.610
2020/01/31 10:11:23.3	293.070	0.440	-0.930	0.610
2020/01/31 10:11:23.4	293.060	0.430	-0.940	0.600
2020/01/31 10:11:23.5	293.040	0.410	-0.950	0.600
2020/01/31 10:11:23.6	293.020	0.400	-0.960	0.590
2020/01/31 10:11:23.7	292.990	0.380	-0.960	0.580
2020/01/31 10:11:23.8	292.970	0.370	-0.970	0.580
2020/01/31 10:11:23.9	292.950	0.350	-0.960	0.570
2020/01/31 10:11:24.0	292.930	0.330	-0.960	0.570
2020/01/31 10:11:24.1	292.910	0.310	-0.950	0.560
2020/01/31 10:11:24.2	292.890	0.290	-0.940	0.560
2020/01/31 10:11:24.3	292.880	0.270	-0.920	0.550
2020/01/31 10:11:24.4	292.860	0.240	-0.900	0.550
2020/01/31 10:11:24.5	292.840	0.220	-0.880	0.540
2020/01/31 10:11:24.6	292.820	0.200	-0.860	0.540
2020/01/31 10:11:24.7	292.800	0.170	-0.830	0.540
2020/01/31 10:11:24.8	292.780	0.140	-0.800	0.530
2020/01/31 10:11:24.9	292.760	0.120	-0.770	0.530
2020/01/31 10:11:25.0	292.740	0.090	-0.740	0.520
2020/01/31 10:11:25.1	292.720	0.070	-0.700	0.520
2020/01/31 10:11:25.2	292.690	0.040	-0.670	0.520
2020/01/31 10:11:25.3	292.670	0.020	-0.630	0.520
2020/01/31 10:11:25.4	292.640	-0.010	-0.590	0.510
2020/01/31 10:11:25.5	292.620	-0.030	-0.550	0.520
2020/01/31 10:11:25.6	292.590	-0.050	-0.510	0.520
2020/01/31 10:11:25.7	292.570	-0.070	-0.470	0.520
2020/01/31 10:11:25.8	292.540	-0.100	-0.420	0.520
2020/01/31 10:11:25.9	292.520	-0.120	-0.380	0.530
2020/01/31 10:11:26.0	292.490	-0.130	-0.340	0.540
2020/01/31 10:11:26.1	292.460	-0.150	-0.300	0.550
2020/01/31 10:11:26.2	292.440	-0.170	-0.260	0.560
2020/01/31 10:11:26.3	292.410	-0.180	-0.220	0.570
2020/01/31 10:11:26.4	292.380	-0.190	-0.180	0.590
2020/01/31 10:11:26.5	292.350	-0.200	-0.140	0.610
2020/01/31 10:11:26.6	292.320	-0.210	-0.110	0.630
2020/01/31 10:11:26.7	292.280	-0.220	-0.070	0.650
2020/01/31 10:11:26.8	292.250	-0.230	-0.040	0.680
2020/01/31 10:11:26.9	292.220	-0.230	-0.010	0.710
2020/01/31 10:11:27.0	292.190	-0.230	0.020	0.740
2020/01/31 10:11:27.1	292.160	-0.230	0.050	0.770
2020/01/31 10:11:27.2	292.120	-0.230	0.080	0.800
2020/01/31 10:11:27.3	292.090	-0.230	0.100	0.840
2020/01/31 10:11:27.4	292.070	-0.220	0.120	0.880
2020/01/31 10:11:27.5	292.040	-0.220	0.140	0.920
2020/01/31 10:11:27.6	292.010	-0.210	0.160	0.960
2020/01/31 10:11:27.7	291.970	-0.200	0.180	1.010
2020/01/31 10:11:27.8	291.940	-0.190	0.200	1.050
2020/01/31 10:11:27.9	291.910	-0.180	0.210	1.090
2020/01/31 10:11:28.0	291.880	-0.170	0.220	1.130
2020/01/31 10:11:28.1	291.850	-0.160	0.230	1.170
2020/01/31 10:11:28.2	291.830	-0.150	0.240	1.210
2020/01/31 10:11:28.3	291.800	-0.130	0.240	1.250
2020/01/31 10:11:28.4	291.790	-0.120	0.250	1.290
2020/01/31 10:11:28.5	291.770	-0.110	0.250	1.330
2020/01/31 10:11:28.6	291.750	-0.090	0.250	1.360
2020/01/31 10:11:28.7	291.740	-0.080	0.250	1.390
2020/01/31 10:11:28.8	291.720	-0.060	0.250	1.420
2020/01/31 10:11:28.9	291.710	-0.050	0.240	1.450
2020/01/31 10:11:29.0	291.700	-0.030	0.240	1.470
2020/01/31 10:11:29.1	291.690	-0.020	0.230	1.490
2020/01/31 10:11:29.2	291.680	-0.000	0.220	1.510
2020/01/31 10:11:29.3	291.680	0.010	0.220	1.530
2020/01/31 10:11:29.4	291.680	0.020	0.210	1.540
2020/01/31 10:11:29.5	291.680	0.030	0.200	1.550
2020/01/31 10:11:29.6	291.680	0.040	0.190	1.560
2020/01/31 10:11:29.7	291.680	0.050	0.180	1.570
2020/01/31 10:11:29.8	291.680	0.060	0.170	1.570
2020/01/31 10:11:29.9	291.680	0.070	0.170	1.580
2020/01/31 10:11:30.0	291.680	0.080	0.160	1.580
2020/01/31 10:11:30.1	291.680	0.090	0.150	1.580
2020/01/31 10:11:30.2	291.690	0.090	0.140	1.570
2020/01/31 10:11:30.3	291.690	0.090	0.130	1.570
2020/01/31 10:11:30.4	291.720	0.100	0.130	1.560
2020/01/31 10:11:30.5	291.720	0.100	0.120	1.550
2020/01/31 10:11:30.6	291.730	0.100	0.110	1.540
2020/01/31 10:11:30.7	291.740	0.100	0.100	1.530
2020/01/31 10:11:30.8	291.750	0.100	0.100	1.510
2020/01/31 10:11:30.9	291.760	0.100	0.090	1.490
2020/01/31 10:11:31.0	291.780	0.100	0.080	1.470
2020/01/31 10:11:31.1	291.790	0.090	0.070	1.450
2020/01/31 10:11:31.2	291.800	0.090	0.060	1.430
2020/01/31 10:11:31.3	291.820	0.080	0.050	1.400
2020/01/31 10:11:31.4	291.840	0.080	0.040	1.370
2020/01/31 10:11:31.5	291.860	0.070	0.030	1.340
2020/01/31 10:11:31.6	291.880	0.070	0.020	1.310
2020/01/31 10:11:31.7	291.900	0.060	0.000	1.280
2020/01/31 10:11:31.8	291.920	0.050	-0.010	1.240
2020/01/31 10:11:31.9	291.940	0.040	-0.020	1.200
2020/01/31 10:11:32.0	291.960	0.030	-0.040	1.160
2020/01/31 10:11:32.1	291.990	0.020	-0.050	1.120
2020/01/31 10:11:32.2	292.010	0.020	-0.070	1.080
2020/01/31 10:11:32.3	292.040	0.010	-0.090	1.040
2020/01/31 10:11:32.4	292.070	-0.000	-0.100	0.990
2020/01/31 10:11:32.5	292.090	-0.010	-0.120	0.940
2020/01/31 10:11:32.6	292.120	-0.020	-0.130	0.900
2020/01/31 10:11:32.7	292.140	-0.030	-0.150	0.860
2020/01/31 10:11:32.8	292.170	-0.040	-0.170	0.810
2020/01/31 10:11:32.9	292.190	-0.050	-0.180	0.770
2020/01/31 10:11:33.0	292.210	-0.070	-0.200	0.730
2020/01/31 10:11:33.1	292.230	-0.080	-0.210	0.690
2020/01/31 10:11:33.2	292.250	-0.090	-0.230	0.650
2020/01/31 10:11:33.3	292.280	-0.100	-0.240	0.610
2020/01/31 10:11:33.4	292.290	-0.110	-0.260	0.580
2020/01/31 10:11:33.5	292.310	-0.120	-0.270	0.540
2020/01/31 10:11:33.6	292.330	-0.120	-0.290	0.510
2020/01/31 10:11:33.7	292.350	-0.130	-0.300	0.480
2020/01/31 10:11:33.8	292.360	-0.140	-0.320	0.450
2020/01/31 10:11:33.9	292.380	-0.150	-0.340	0.420
2020/01/31 10:11:34.0	292.390	-0.160	-0.350	0.390
2020/01/31 10:11:34.1	292.410	-0.160	-0.370	0.360
2020/01/31 10:11:34.2	292.420	-0.170	-0.390	0.340
2020/01/31 10:11:34.3	292.430	-0.170	-0.400	0.310
2020/01/31 10:11:34.4	292.430	-0.180	-0.420	0.290
2020/01/31 10:11:34.5	292.440	-0.180	-0.440	0.270
2020/01/31 10:11:34.6	292.450	-0.190	-0.460	0.250
2020/01/31 10:11:34.7	292.460	-0.190	-0.470	0.230
2020/01/31 10:11:34.8	292.470	-0.190	-0.490	0.220
2020/01/31 10:11:34.9	292.480	-0.190	-0.510	0.200
2020/01/31 10:11:35.0	292.480	-0.190	-0.530	0.190
2020/01/31 10:11:35.1	292.490	-0.190	-0.540	0.180
2020/01/31 10:11:35.2	292.490	-0.190	-0.560	0.180
2020/01/31 10:11:35.3	292.500	-0.180	-0.580	0.170
2020/01/31 10:11:35.4	292.490	-0.180	-0.590	0.170
2020/01/31 10:11:35.5	292.490	-0.180	-0.610	0.170
2020/01/31 10:11:35.6	292.490	-0.170	-0.620	0.170
2020/01/31 10:11:35.7	292.490	-0.160	-0.630	0.180
2020/01/31 10:11:35.8	292.490	-0.160	-0.650	0.180
2020/01/31 10:11:35.9	292.480	-0.150	-0.660	0.190
2020/01/31 10:11:36.0	292.480	-0.140	-0.670	0.210
2020/01/31 10:11:36.1	292.480	-0.140	-0.680	0.220
2020/01/31 10:11:36.2	292.470	-0.130	-0.680	0.240
2020/01/31 10:11:36.3	292.470	-0.120	-0.690	0.260
2020/01/31 10:11:36.4	292.450	-0.110	-0.690	0.280
2020/01/31 10:11:36.5	292.450	-0.100	-0.700	0.310
2020/01/31 10:11:36.6	292.440	-0.090	-0.700	0.330
2020/01/31 10:11:36.7	292.440	-0.080	-0.700	0.360
2020/01/31 10:11:36.8	292.430	-0.070	-0.690	0.390
2020/01/31 10:11:36.9	292.430	-0.060	-0.690	0.420
2020/01/31 10:11:37.0	292.420	-0.040	-0.680	0.450
2020/01/31 10:11:37.1	292.420	-0.030	-0.680	0.480
2020/01/31 10:11:37.2	292.420	-0.020	-0.660	0.510
2020/01/31 10:11:37.3	292.420	-0.010	-0.650	0.540
2020/01/31 10:11:37.4	292.420	0.010	-0.630	0.570
2020/01/31 10:11:37.5	292.420	0.020	-0.620	0.590
2020/01/31 10:11:37.6	292.420	0.030	-0.600	0.620
2020/01/31 10:11:37.7	292.420	0.050	-0.570	0.650
2020/01/31 10:11:37.8	292.430	0.060	-0.550	0.680
2020/01/31 10:11:37.9	292.440	0.070	-0.520	0.700
2020/01/31 10:11:38.0	292.440	0.090	-0.500	0.720
2020/01/31 10:11:38.1	292.450	0.100	-0.470	0.750
2020/01/31 10:11:38.2	292.470	0.120	-0.430	0.770
2020/01/31 10:11:38.3	292.480	0.130	-0.400	0.780
2020/01/31 10:11:38.4	292.500	0.150	-0.370	0.800
2020/01/31 10:11:38.5	292.520	0.160	-0.330	0.810
2020/01/31 10:11:38.6	292.530	0.170	-0.290	0.820
2020/01/31 10:11:38.7	292.550	0.190	-0.260	0.830
2020/01/31 10:11:38.8	292.580	0.200	-0.220	0.830
2020/01/31 10:11:38.9	292.600	0.210	-0.180	0.830
2020/01/31 10:11:39.0	292.620	0.220	-0.140	0.830
2020/01/31 10:11:39.1	292.650	0.230	-0.100	0.820
2020/01/31 10:11:39.2	292.680	0.240	-0.060	0.810
2020/01/31 10:11:39.3	292.710	0.250	-0.020	0.800
2020/01/31 10:11:39.4	292.740	0.260	0.020	0.780
2020/01/31 10:11:39.5	292.770	0.270	0.060	0.770
2020/01/31 10:11:39.6	292.810	0.270	0.090	0.750
2020/01/31 10:11:39.7	292.840	0.280	0.130	0.720
2020/01/31 10:11:39.8	292.880	0.280	0.170	0.700
2020/01/31 10:11:39.9	292.920	0.290	0.200	0.670
2020/01/31 10:11:40.0	292.950	0.290	0.230	0.640
2020/01/31 10:11:40.1	292.990	0.290	0.270	0.610
2020/01/31 10:11:40.2	293.030	0.290	0.300	0.580
2020/01/31 10:11:40.3	293.070	0.290	0.320	0.540
2020/01/31 10:11:40.4	293.100	0.280	0.350	0.510
2020/01/31 10:11:40.5	293.140	0.280	0.370	0.470
2020/01/31 10:11:40.6	293.180	0.270	0.400	0.430
2020/01/31 10:11:40.7	293.220	0.270	0.420	0.390
2020/01/31 10:11:40.8	293.260	0.260	0.440	0.350
2020/01/31 10:11:40.9	293.300	0.250	0.450	0.310
2020/01/31 10:11:41.0	293.330	0.250	0.470	0.270
2020/01/31 10:11:41.1	293.370	0.240	0.480	0.230
2020/01/31 10:11:41.2	293.400	0.230	0.490	0.190
2020/01/31 10:11:41.3	293.430	0.220	0.500	0.150
2020/01/31 10:11:41.4	293.450	0.210	0.500	0.110
2020/01/31 10:11:41.5	293.480	0.190	0.500	0.080
2020/01/31 10:11:41.6	293.510	0.180	0.500	0.040
2020/01/31 10:11:41.7	293.530	0.170	0.500	0.010
2020/01/31 10:11:41.8	293.550	0.160	0.490	-0.020
2020/01/31 10:11:41.9	293.570	0.150	0.480	-0.060
2020/01/31 10:11:42.0	293.590	0.130	0.470	-0.080
2020/01/31 10:11:42.1	293.610	0.120	0.460	-0.110
2020/01/31 10:11:42.2	293.620	0.110	0.440	-0.130
2020/01/31 10:11:42.3	293.630	0.100	0.420	-0.150
2020/01/31 10:11:42.4	293.640	0.090	0.390	-0.170
2020/01/31 10:11:42.5	293.640	0.070	0.370	-0.180
2020/01/31 10:11:42.6	293.650	0.060	0.340	-0.190
2020/01/31 10:11:42.7	293.650	0.050	0.310	-0.200
2020/01/31 10:11:42.8	293.650	0.040	0.280	-0.210
2020/01/31 10:11:42.9	293.650	0.030	0.240	-0.210
2020/01/31 10:11:43.0	293.650	0.020	0.210	-0.210
2020/01/31 10:11:43.1	293.640	0.010	0.170	-0.210
2020/01/31 10:11:43.2	293.630	-0.000	0.130	-0.210
2020/01/31 10:11:43.3	293.620	-0.010	0.090	-0.200
2020/01/31 10:11:43.4	293.610	-0.020	0.050	-0.190
2020/01/31 10:11:43.5	293.600	-0.030	0.010	-0.180
2020/01/31 10:11:43.6	293.590	-0.030	-0.040	-0.170
2020/01/31 10:11:43.7	293.570	-0.040	-0.080	-0.160
2020/01/31 10:11:43.8	293.560	-0.050	-0.130	-0.150
2020/01/31 10:11:43.9	293.540	-0.050	-0.170	-0.130
2020/01/31 10:11:44.0	293.520	-0.060	-0.220	-0.120
2020/01/31 10:11:44.1	293.500	-0.070	-0.260	-0.110
2020/01/31 10:11:44.2	293.480	-0.070	-0.310	-0.090
2020/01/31 10:11:44.3	293.470	-0.070	-0.350	-0.080
2020/01/31 10:11:44.4	293.440	-0.080	-0.400	-0.070
2020/01/31 10:11:44.5	293.420	-0.080	-0.440	-0.060
2020/01/31 10:11:44.6	293.410	-0.090	-0.480	-0.040
2020/01/31 10:11:44.7	293.390	-0.090	-0.520	-0.030
2020/01/31 10:11:44.8	293.370	-0.090	-0.560	-0.020
2020/01/31 10:11:44.9	293.350	-0.100	-0.600	-0.010
2020/01/31 10:11:45.0	293.340	-0.100	-0.640	-0.010
2020/01/31 10:11:45.1	293.320	-0.100	-0.670	0.000
2020/01/31 10:11:45.2	293.310	-0.110	-0.700	0.010
2020/01/31 10:11:45.3	293.290	-0.110	-0.730	0.010
2020/01/31 10:11:45.4	293.270	-0.110	-0.760	0.020
2020/01/31 10:11:45.5	293.260	-0.110	-0.790	0.020
2020/01/31 10:11:45.6	293.250	-0.110	-0.810	0.030
2020/01/31 10:11:45.7	293.240	-0.120	-0.840	0.030
2020/01/31 10:11:45.8	293.230	-0.120	-0.850	0.030
2020/01/31 10:11:45.9	293.220	-0.120	-0.870	0.030
2020/01/31 10:11:46.0	293.220	-0.120	-0.890	0.020
2020/01/31 10:11:46.1	293.210	-0.120	-0.900	0.020
2020/01/31 10:11:46.2	293.210	-0.120	-0.910	0.010
2020/01/31 10:11:46.3	293.200	-0.130	-0.910	0.010
2020/01/31 10:11:46.4	293.200	-0.130	-0.920	0.000
2020/01/31 10:11:46.5	293.200	-0.130	-0.920	-0.010
2020/01/31 10:11:46.6	293.200	-0.130	-0.920	-0.020
2020/01/31 10:11:46.7	293.200	-0.130	-0.910	-0.030
2020/01/31 10:11:46.8	293.200	-0.130	-0.910	-0.050
2020/01/31 10:11:46.9	293.210	-0.140	-0.900	-0.060
2020/01/31 10:11:47.0	293.210	-0.140	-0.890	-0.080
2020/01/31 10:11:47.1	293.210	-0.140	-0.870	-0.090
2020/01/31 10:11:47.2	293.220	-0.140	-0.850	-0.110
2020/01/31 10:11:47.3	293.220	-0.150	-0.830	-0.130
2020/01/31 10:11:47.4	293.230	-0.150	-0.810	-0.140
2020/01/31 10:11:47.5	293.230	-0.150	-0.790	-0.160
2020/01/31 10:11:47.6	293.240	-0.160	-0.760	-0.180
2020/01/31 10:11:47.7	293.240	-0.160	-0.730	-0.190
2020/01/31 10:11:47.8	293.240	-0.170	-0.700	-0.210
2020/01/31 10:11:47.9	293.250	-0.170	-0.670	-0.220
2020/01/31 10:11:48.0	293.250	-0.180	-0.630	-0.230
2020/01/31 10:11:48.1	293.250	-0.180	-0.600	-0.240
2020/01/31 10:11:48.2	293.250	-0.190	-0.560	-0.250
2020/01/31 10:11:48.3	293.250	-0.190	-0.520	-0.260
2020/01/31 10:11:48.4	293.250	-0.200	-0.470	-0.260
2020/01/31 10:11:48.5	293.250	-0.210	-0.430	-0.270
2020/01/31 10:11:48.6	293.250	-0.210	-0.380	-0.270
2020/01/31 10:11:48.7	293.240	-0.220	-0.340	-0.270
2020/01/31 10:11:48.8	293.240	-0.230	-0.290	-0.270
2020/01/31 10:11:48.9	293.230	-0.230	-0.240	-0.260
2020/01/31 10:11:49.0	293.220	-0.240	-0.200	-0.250
2020/01/31 10:11:49.1	293.210	-0.240	-0.150	-0.240
2020/01/31 10:11:49.2	293.200	-0.250	-0.100	-0.230
2020/01/31 10:11:49.3	293.190	-0.260	-0.050	-0.220
2020/01/31 10:11:49.4	293.180	-0.260	-0.000	-0.200
2020/01/31 10:11:49.5	293.160	-0.270	0.040	-0.180
2020/01/31 10:11:49.6	293.150	-0.270	0.090	-0.170
2020/01/31 10:11:49.7	293.130	-0.270	0.130	-0.140
2020/01/31 10:11:49.8	293.110	-0.280	0.170	-0.120
2020/01/31 10:11:49.9	293.090	-0.280	0.220	-0.100
2020/01/31 10:11:50.0	293.080	-0.280	0.250	-0.070
2020/01/31 10:11:50.1	293.060	-0.280	0.290	-0.040
2020/01/31 10:11:50.2	293.040	-0.280	0.320	-0.010
2020/01/31 10:11:50.3	293.020	-0.280	0.350	0.010
2020/01/31 10:11:50.4	293.020	-0.280	0.380	0.040
2020/01/31 10:11:50.5	293.000	-0.280	0.400	0.070
2020/01/31 10:11:50.6	292.980	-0.270	0.420	0.110
2020/01/31 10:11:50.7	292.960	-0.260	0.440	0.140
2020/01/31 10:11:50.8	292.940	-0.260	0.450	0.170
2020/01/31 10:11:50.9	292.920	-0.250	0.460	0.200
2020/01/31 10:11:51.0	292.910	-0.240	0.460	0.230
2020/01/31 10:11:51.1	292.890	-0.220	0.460	0.260
2020/01/31 10:11:51.2	292.880	-0.210	0.460	0.290
2020/01/31 10:11:51.3	292.860	-0.190	0.450	0.310
2020/01/31 10:11:51.4	292.850	-0.180	0.440	0.340
2020/01/31 10:11:51.5	292.840	-0.160	0.420	0.370
2020/01/31 10:11:51.6	292.830	-0.140	0.400	0.390
2020/01/31 10:11:51.7	292.820	-0.120	0.380	0.420
2020/01/31 10:11:51.8	292.810	-0.090	0.360	0.440
2020/01/31 10:11:51.9	292.810	-0.070	0.340	0.470
2020/01/31 10:11:52.0	292.800	-0.050	0.310	0.490
2020/01/31 10:11:52.1	292.800	-0.020	0.280	0.510
2020/01/31 10:11:52.2	292.790	0.010	0.250	0.540
2020/01/31 10:11:52.3	292.790	0.040	0.220	0.560
2020/01/31 10:11:52.4	292.780	0.060	0.190	0.580
2020/01/31 10:11:52.5	292.780	0.090	0.150	0.600
2020/01/31 10:11:52.6	292.770	0.120	0.120	0.620
2020/01/31 10:11:52.7	292.770	0.150	0.090	0.640
2020/01/31 10:11:52.8	292.770	0.180	0.060	0.660
2020/01/31 10:11:52.9	292.760	0.200	0.030	0.680
2020/01/31 10:11:53.0	292.760	0.230	0.010	0.700
2020/01/31 10:11:53.1	292.760	0.260	-0.020	0.720
2020/01/31 10:11:53.2	292.750	0.280	-0.040	0.740
2020/01/31 10:11:53.3	292.750	0.310	-0.070	0.750
2020/01/31 10:11:53.4	292.740	0.330	-0.090	0.760
2020/01/31 10:11:53.5	292.730	0.350	-0.100	0.780
2020/01/31 10:11:53.6	292.730	0.370	-0.120	0.790
2020/01/31 10:11:53.7	292.730	0.390	-0.130	0.800
2020/01/31 10:11:53.8	292.720	0.400	-0.140	0.810
2020/01/31 10:11:53.9	292.720	0.420	-0.150	0.820
2020/01/31 10:11:54.0	292.720	0.430	-0.160	0.820
2020/01/31 10:11:54.1	292.710	0.440	-0.170	0.830
2020/01/31 10:11:54.2	292.710	0.450	-0.170	0.830
2020/01/31 10:11:54.3	292.700	0.450	-0.170	0.830
2020/01/31 10:11:54.4	292.700	0.450	-0.170	0.830
2020/01/31 10:11:54.5	292.690	0.460	-0.170	0.830
2020/01/31 10:11:54.6	292.690	0.460	-0.170	0.830
2020/01/31 10:11:54.7	292.690	0.450	-0.160	0.830
2020/01/31 10:11:54.8	292.690	0.450	-0.160	0.820
2020/01/31 10:11:54.9	292.680	0.440	-0.150	0.810
2020/01/31 10:11:55.0	292.680	0.430	-0.150	0.810
2020/01/31 10:11:55.1	292.680	0.420	-0.140	0.790
2020/01/31 10:11:55.2	292.670	0.410	-0.140	0.780
2020/01/31 10:11:55.3	292.670	0.400	-0.130	0.770
2020/01/31 10:11:55.4	292.670	0.390	-0.130	0.750
2020/01/31 10:11:55.5	292.670	0.370	-0.130	0.740
2020/01/31 10:11:55.6	292.670	0.350	-0.130	0.720
2020/01/31 10:11:55.7	292.660	0.340	-0.130	0.710
2020/01/31 10:11:55.8	292.660	0.320	-0.140	0.690
2020/01/31 10:11:55.9	292.660	0.300	-0.150	0.670
2020/01/31 10:11:56.0	292.660	0.280	-0.160	0.650
2020/01/31 10:11:56.1	292.650	0.270	-0.170	0.630
2020/01/31 10:11:56.2	292.650	0.250	-0.190	0.610
2020/01/31 10:11:56.3	292.650	0.230	-0.210	0.600
2020/01/31 10:11:56.4	292.640	0.210	-0.230	0.580
2020/01/31 10:11:56.5	292.630	0.200	-0.260	0.560
2020/01/31 10:11:56.6	292.630	0.180	-0.280	0.540
2020/01/31 10:11:56.7	292.620	0.160	-0.320	0.530
2020/01/31 10:11:56.8	292.610	0.150	-0.350	0.510
2020/01/31 10:11:56.9	292.610	0.140	-0.380	0.500
2020/01/31 10:11:57.0	292.600	0.120	-0.420	0.490
2020/01/31 10:11:57.1	292.590	0.110	-0.460	0.480
2020/01/31 10:11:57.2	292.580	0.100	-0.500	0.470
2020/01/31 10:11:57.3	292.570	0.090	-0.540	0.460
2020/01/31 10:11:57.4	292.550	0.080	-0.590	0.450
2020/01/31 10:11:57.5	292.540	0.080	-0.630	0.440
2020/01/31 10:11:57.6	292.530	0.070	-0.670	0.440
2020/01/31 10:11:57.7	292.510	0.060	-0.720	0.430
2020/01/31 10:11:57.8	292.500	0.060	-0.760	0.430
2020/01/31 10:11:57.9	292.480	0.050	-0.800	0.430
2020/01/31 10:11:58.0	292.470	0.050	-0.840	0.430
2020/01/31 10:11:58.1	292.450	0.050	-0.870	0.430
2020/01/31 10:11:58.2	292.430	0.050	-0.910	0.430
2020/01/31 10:11:58.3	292.410	0.040	-0.940	0.430
2020/01/31 10:11:58.4	292.390	0.040	-0.970	0.430
2020/01/31 10:11:58.5	292.370	0.040	-0.990	0.430
2020/01/31 10:11:58.6	292.350	0.040	-1.010	0.440
2020/01/31 10:11:58.7	292.320	0.040	-1.020	0.440
2020/01/31 10:11:58.8	292.300	0.030	-1.030	0.450
2020/01/31 10:11:58.9	292.280	0.030	-1.030	0.460
2020/01/31 10:11:59.0	292.250	0.030	-1.030	0.470
2020/01/31 10:11:59.1	292.230	0.020	-1.020	0.480
2020/01/31 10:11:59.2	292.200	0.020	-1.010	0.490
2020/01/31 10:11:59.3	292.170	0.010	-0.990	0.500
2020/01/31 10:11:59.4	292.150	0.010	-0.960	0.510
2020/01/31 10:11:59.5	292.130	0.000	-0.930	0.520
2020/01/31 10:11:59.6	292.100	-0.010	-0.900	0.540
2020/01/31 10:11:59.7	292.070	-0.020	-0.850	0.550
2020/01/31 10:11:59.8	292.040	-0.030	-0.800	0.570
2020/01/31 10:11:59.9	292.010	-0.040	-0.750	0.580
2020/01/31 10:12:00.0	291.990	-0.050	-0.690	0.600
2020/01/31 10:12:00.1	291.960	-0.070	-0.630	0.610
2020/01/31 10:12:00.2	291.930	-0.080	-0.570	0.630
2020/01/31 10:12:00.3	291.910	-0.100	-0.500	0.640
2020/01/31 10:12:00.4	291.910	-0.110	-0.430	0.660
2020/01/31 10:12:00.5	291.890	-0.130	-0.350	0.670
2020/01/31 10:12:00.6	291.870	-0.150	-0.280	0.680
2020/01/31 10:12:00.7	291.850	-0.170	-0.200	0.690
2020/01/31 10:12:00.8	291.840	-0.190	-0.130	0.700
2020/01/31 10:12:00.9	291.820	-0.210	-0.050	0.710
2020/01/31 10:12:01.0	291.810	-0.230	0.020	0.720
2020/01/31 10:12:01.1	291.800	-0.250	0.100	0.720
2020/01/31 10:12:01.2	291.790	-0.270	0.170	0.720
2020/01/31 10:12:01.3	291.790	-0.290	0.240	0.720
2020/01/31 10:12:01.4	291.790	-0.310	0.300	0.720
2020/01/31 10:12:01.5	291.790	-0.330	0.370	0.720
2020/01/31 10:12:01.6	291.790	-0.350	0.420	0.710
2020/01/31 10:12:01.7	291.800	-0.360	0.480	0.710
2020/01/31 10:12:01.8	291.800	-0.380	0.530	0.700
2020/01/31 10:12:01.9	291.810	-0.390	0.580	0.690
2020/01/31 10:12:02.0	291.820	-0.400	0.620	0.680
2020/01/31 10:12:02.1	291.840	-0.410	0.650	0.670
2020/01/31 10:12:02.2	291.850	-0.420	0.680	0.650
2020/01/31 10:12:02.3	291.870	-0.420	0.710	0.640
2020/01/31 10:12:02.4	291.890	-0.420	0.730	0.620
2020/01/31 10:12:02.5	291.910	-0.420	0.740	0.610
2020/01/31 10:12:02.6	291.930	-0.420	0.750	0.590
2020/01/31 10:12:02.7	291.960	-0.420	0.750	0.570
2020/01/31 10:12:02.8	291.980	-0.410	0.750	0.550
2020/01/31 10:12:02.9	292.010	-0.400	0.750	0.530
2020/01/31 10:12:03.0	292.040	-0.390	0.730	0.510
2020/01/31 10:12:03.1	292.070	-0.370	0.720	0.490
2020/01/31 10:12:03.2	292.100	-0.350	0.690	0.470
2020/01/31 10:12:03.3	292.130	-0.340	0.670	0.450
2020/01/31 10:12:03.4	292.170	-0.310	0.630	0.430
2020/01/31 10:12:03.5	292.200	-0.290	0.600	0.400
2020/01/31 10:12:03.6	292.240	-0.260	0.560	0.380
2020/01/31 10:12:03.7	292.280	-0.240	0.510	0.360
2020/01/31 10:12:03.8	292.310	-0.210	0.460	0.340
2020/01/31 10:12:03.9	292.350	-0.180	0.410	0.320
2020/01/31 10:12:04.0	292.390	-0.150	0.350	0.290
2020/01/31 10:12:04.1	292.430	-0.110	0.300	0.270
2020/01/31 10:12:04.2	292.470	-0.080	0.230	0.250
2020/01/31 10:12:04.3	292.500	-0.050	0.170	0.230
2020/01/31 10:12:04.4	292.540	-0.020	0.100	0.210
2020/01/31 10:12:04.5	292.570	0.020	0.040	0.190
2020/01/31 10:12:04.6	292.610	0.050	-0.030	0.180
2020/01/31 10:12:04.7	292.640	0.080	-0.100	0.160
2020/01/31 10:12:04.8	292.670	0.120	-0.170	0.150
2020/01/31 10:12:04.9	292.700	0.150	-0.230	0.140
2020/01/31 10:12:05.0	292.730	0.180	-0.300	0.130
2020/01/31 10:12:05.1	292.760	0.200	-0.370	0.120
2020/01/31 10:12:05.2	292.780	0.230	-0.430	0.110
2020/01/31 10:12:05.3	292.810	0.260	-0.490	0.110
2020/01/31 10:12:05.4	292.820	0.280	-0.550	0.100
2020/01/31 10:12:05.5	292.830	0.300	-0.600	0.100
2020/01/31 10:12:05.6	292.850	0.320	-0.650	0.110
2020/01/31 10:12:05.7	292.870	0.340	-0.700	0.110
2020/01/31 10:12:05.8	292.880	0.350	-0.740	0.120
2020/01/31 10:12:05.9	292.890	0.370	-0.780	0.130
2020/01/31 10:12:06.0	292.900	0.380	-0.810	0.140
2020/01/31 10:12:06.1	292.900	0.380	-0.840	0.150
2020/01/31 10:12:06.2	292.910	0.390	-0.860	0.170
2020/01/31 10:12:06.3	292.910	0.390	-0.880	0.190
2020/01/31 10:12:06.4	292.900	0.390	-0.890	0.210
2020/01/31 10:12:06.5	292.890	0.390	-0.900	0.240
2020/01/31 10:12:06.6	292.890	0.390	-0.900	0.270
2020/01/31 10:12:06.7	292.880	0.380	-0.900	0.300
2020/01/31 10:12:06.8	292.870	0.370	-0.890	0.330
2020/01/31 10:12:06.9	292.860	0.360	-0.880	0.370
2020/01/31 10:12:07.0	292.850	0.350	-0.860	0.410
2020/01/31 10:12:07.1	292.830	0.330	-0.840	0.440
2020/01/31 10:12:07.2	292.810	0.320	-0.810	0.480
2020/01/31 10:12:07.3	292.790	0.300	-0.780	0.520
2020/01/31 10:12:07.4	292.780	0.280	-0.740	0.570
2020/01/31 10:12:07.5	292.760	0.260	-0.710	0.610
2020/01/31 10:12:07.6	292.740	0.240	-0.670	0.650
2020/01/31 10:12:07.7	292.710	0.210	-0.630	0.690
2020/01/31 10:12:07.8	292.690	0.190	-0.580	0.720
2020/01/31 10:12:07.9	292.670	0.160	-0.540	0.760
2020/01/31 10:12:08.0	292.640	0.140	-0.490	0.790
2020/01/31 10:12:08.1	292.620	0.110	-0.450	0.820
2020/01/31 10:12:08.2	292.600	0.090	-0.400	0.850
2020/01/31 10:12:08.3	292.580	0.060	-0.360	0.880
2020/01/31 10:12:08.4	292.540	0.030	-0.310	0.900
2020/01/31 10:12:08.5	292.520	0.010	-0.270	0.920
2020/01/31 10:12:08.6	292.500	-0.020	-0.230	0.930
2020/01/31 10:12:08.7	292.490	-0.050	-0.190	0.950
2020/01/31 10:12:08.8	292.470	-0.070	-0.150	0.960
2020/01/31 10:12:08.9	292.460	-0.090	-0.110	0.960
2020/01/31 10:12:09.0	292.440	-0.120	-0.080	0.970
2020/01/31 10:12:09.1	292.430	-0.140	-0.040	0.970
2020/01/31 10:12:09.2	292.420	-0.160	-0.010	0.960
2020/01/31 10:12:09.3	292.410	-0.180	0.020	0.960
2020/01/31 10:12:09.4	292.400	-0.190	0.040	0.950
2020/01/31 10:12:09.5	292.390	-0.210	0.070	0.930
2020/01/31 10:12:09.6	292.390	-0.220	0.090	0.920
2020/01/31 10:12:09.7	292.380	-0.240	0.110	0.900
2020/01/31 10:12:09.8	292.380	-0.250	0.120	0.890
2020/01/31 10:12:09.9	292.380	-0.250	0.140	0.870
2020/01/31 10:12:10.0	292.370	-0.260	0.150	0.840
2020/01/31 10:12:10.1	292.370	-0.270	0.160	0.820
2020/01/31 10:12:10.2	292.370	-0.270	0.170	0.800
2020/01/31 10:12:10.3	292.370	-0.270	0.180	0.770
2020/01/31 10:12:10.4	292.380	-0.270	0.180	0.750
2020/01/31 10:12:10.5	292.380	-0.270	0.190	0.720
2020/01/31 10:12:10.6	292.380	-0.270	0.190	0.690
2020/01/31 10:12:10.7	292.390	-0.260	0.190	0.660
2020/01/31 10:12:10.8	292.390	-0.260	0.190	0.630
2020/01/31 10:12:10.9	292.400	-0.250	0.190	0.600
2020/01/31 10:12:11.0	292.400	-0.240	0.190	0.570
2020/01/31 10:12:11.1	292.410	-0.240	0.180	0.540
2020/01/31 10:12:11.2	292.420	-0.230	0.180	0.500
2020/01/31 10:12:11.3	292.430	-0.210	0.170	0.470
2020/01/31 10:12:11.4	292.440	-0.200	0.160	0.430
2020/01/31 10:12:11.5	292.450	-0.190	0.150	0.390
2020/01/31 10:12:11.6	292.470	-0.180	0.140	0.350
2020/01/31 10:12:11.7	292.480	-0.170	0.130	0.310
2020/01/31 10:12:11.8	292.490	-0.150	0.120	0.270
2020/01/31 10:12:11.9	292.510	-0.140	0.110	0.230
2020/01/31 10:12:12.0	292.530	-0.120	0.090	0.190
2020/01/31 10:12:12.1	292.540	-0.110	0.080	0.150
2020/01/31 10:12:12.2	292.560	-0.090	0.060	0.110
2020/01/31 10:12:12.3	292.580	-0.080	0.040	0.070
2020/01/31 10:12:12.4	292.590	-0.060	0.020	0.030
2020/01/31 10:12:12.5	292.610	-0.050	0.010	-0.010
2020/01/31 10:12:12.6	292.630	-0.030	-0.020	-0.050
2020/01/31 10:12:12.7	292.650	-0.020	-0.040	-0.080
2020/01/31 10:12:12.8	292.670	-0.000	-0.060	-0.120
2020/01/31 10:12:12.9	292.690	0.010	-0.080	-0.150
2020/01/31 10:12:13.0	292.720	0.030	-0.100	-0.180
2020/01/31 10:12:13.1	292.740	0.040	-0.130	-0.200
2020/01/31 10:12:13.2	292.760	0.060	-0.150	-0.230
2020/01/31 10:12:13.3	292.770	0.080	-0.180	-0.250
2020/01/31 10:12:13.4	292.790	0.090	-0.210	-0.270
2020/01/31 10:12:13.5	292.800	0.110	-0.240	-0.280
2020/01/31 10:12:13.6	292.820	0.120	-0.270	-0.300
2020/01/31 10:12:13.7	292.840	0.140	-0.300	-0.310
2020/01/31 10:12:13.8	292.860	0.160	-0.330	-0.320
2020/01/31 10:12:13.9	292.870	0.170	-0.360	-0.320
2020/01/31 10:12:14.0	292.890	0.190	-0.390	-0.320
2020/01/31 10:12:14.1	292.900	0.200	-0.420	-0.320
2020/01/31 10:12:14.2	292.910	0.220	-0.460	-0.320
2020/01/31 10:12:14.3	292.930	0.240	-0.490	-0.310
2020/01/31 10:12:14.4	292.950	0.250	-0.530	-0.300
2020/01/31 10:12:14.5	292.960	0.270	-0.560	-0.290
2020/01/31 10:12:14.6	292.970	0.280	-0.590	-0.270
2020/01/31 10:12:14.7	292.990	0.300	-0.630	-0.260
2020/01/31 10:12:14.8	293.000	0.310	-0.660	-0.240
2020/01/31 10:12:14.9	293.010	0.330	-0.700	-0.220
2020/01/31 10:12:15.0	293.020	0.340	-0.730	-0.200
2020/01/31 10:12:15.1	293.030	0.350	-0.760	-0.180
2020/01/31 10:12:15.2	293.030	0.360	-0.790	-0.150
2020/01/31 10:12:15.3	293.040	0.370	-0.810	-0.130
2020/01/31 10:12:15.4	293.060	0.380	-0.830	-0.100
2020/01/31 10:12:15.5	293.060	0.390	-0.850	-0.080
2020/01/31 10:12:15.6	293.070	0.400	-0.870	-0.050
2020/01/31 10:12:15.7	293.080	0.400	-0.880	-0.030
2020/01/31 10:12:15.8	293.080	0.400	-0.890	-0.010
2020/01/31 10:12:15.9	293.090	0.400	-0.900	0.020
2020/01/31 10:12:16.0	293.090	0.400	-0.900	0.040
2020/01/31 10:12:16.1	293.090	0.390	-0.890	0.060
2020/01/31 10:12:16.2	293.090	0.380	-0.880	0.080
2020/01/31 10:12:16.3	293.090	0.370	-0.870	0.100
2020/01/31 10:12:16.4	293.080	0.360	-0.850	0.120
2020/01/31 10:12:16.5	293.080	0.350	-0.830	0.140
2020/01/31 10:12:16.6	293.080	0.330	-0.800	0.160
2020/01/31 10:12:16.7	293.070	0.310	-0.770	0.170
2020/01/31 10:12:16.8	293.070	0.290	-0.730	0.190
2020/01/31 10:12:16.9	293.060	0.270	-0.690	0.200
2020/01/31 10:12:17.0	293.060	0.240	-0.650	0.220
2020/01/31 10:12:17.1	293.050	0.210	-0.600	0.230
2020/01/31 10:12:17.2	293.040	0.180	-0.540	0.250
2020/01/31 10:12:17.3	293.030	0.150	-0.480	0.260
2020/01/31 10:12:17.4	293.010	0.120	-0.420	0.280
2020/01/31 10:12:17.5	293.000	0.080	-0.360	0.290
2020/01/31 10:12:17.6	292.990	0.040	-0.290	0.310
2020/01/31 10:12:17.7	292.970	0.010	-0.220	0.320
2020/01/31 10:12:17.8	292.960	-0.030	-0.150	0.340
2020/01/31 10:12:17.9	292.950	-0.070	-0.080	0.350
2020/01/31 10:12:18.0	292.930	-0.110	-0.010	0.370
2020/01/31 10:12:18.1	292.910	-0.140	0.060	0.390
2020/01/31 10:12:18.2	292.900	-0.180	0.130	0.400
2020/01/31 10:12:18.3	292.880	-0.220	0.200	0.420
2020/01/31 10:12:18.4	292.850	-0.260	0.270	0.440
2020/01/31 10:12:18.5	292.830	-0.290	0.340	0.460
2020/01/31 10:12:18.6	292.810	-0.330	0.400	0.470
2020/01/31 10:12:18.7	292.790	-0.360	0.460	0.490
2020/01/31 10:12:18.8	292.770	-0.390	0.520	0.510
2020/01/31 10:12:18.9	292.750	-0.420	0.580	0.530
2020/01/31 10:12:19.0	292.730	-0.450	0.630	0.550
2020/01/31 10:12:19.1	292.710	-0.480	0.680	0.570
2020/01/31 10:12:19.2	292.690	-0.500	0.720	0.580
2020/01/31 10:12:19.3	292.670	-0.520	0.760	0.600
2020/01/31 10:12:19.4	292.650	-0.540	0.790	0.610
2020/01/31 10:12:19.5	292.630	-0.560	0.820	0.630
2020/01/31 10:12:19.6	292.610	-0.570	0.840	0.640
2020/01/31 10:12:19.7	292.590	-0.580	0.850	0.650
2020/01/31 10:12:19.8	292.570	-0.590	0.860	0.650
2020/01/31 10:12:19.9	292.550	-0.590	0.870	0.660
2020/01/31 10:12:20.0	292.530	-0.590	0.860	0.660
2020/01/31 10:12:20.1	292.520	-0.590	0.850	0.660
2020/01/31 10:12:20.2	292.500	-0.580	0.840	0.660
2020/01/31 10:12:20.3	292.490	-0.570	0.820	0.650
2020/01/31 10:12:20.4	292.480	-0.560	0.790	0.650
2020/01/31 10:12:20.5	292.470	-0.550	0.750	0.630
2020/01/31 10:12:20.6	292.460	-0.530	0.710	0.620
2020/01/31 10:12:20.7	292.450	-0.510	0.670	0.610
2020/01/31 10:12:20.8	292.440	-0.490	0.610	0.590
2020/01/31 10:12:20.9	292.430	-0.470	0.560	0.570
2020/01/31 10:12:21.0	292.430	-0.440	0.500	0.550
2020/01/31 10:12:21.1	292.420	-0.410	0.430	0.520
2020/01/31 10:12:21.2	292.420	-0.380	0.360	0.500
2020/01/31 10:12:21.3	292.410	-0.350	0.290	0.470
2020/01/31 10:12:21.4	292.420	-0.310	0.210	0.450
2020/01/31 10:12:21.5	292.420	-0.280	0.140	0.420
2020/01/31 10:12:21.6	292.420	-0.240	0.060	0.390
2020/01/31 10:12:21.7	292.410	-0.200	-0.020	0.360
2020/01/31 10:12:21.8	292.410	-0.170	-0.110	0.330
2020/01/31 10:12:21.9	292.410	-0.130	-0.190	0.300
2020/01/31 10:12:22.0	292.410	-0.090	-0.270	0.270
2020/01/31 10:12:22.1	292.410	-0.050	-0.340	0.240
2020/01/31 10:12:22.2	292.410	-0.020	-0.420	0.210
2020/01/31 10:12:22.3	292.410	0.020	-0.500	0.190
2020/01/31 10:12:22.4	292.410	0.050	-0.570	0.160
2020/01/31 10:12:22.5	292.410	0.090	-0.640	0.130
2020/01/31 10:12:22.6	292.410	0.120	-0.700	0.100
2020/01/31 10:12:22.7	292.410	0.150	-0.760	0.080
2020/01/31 10:12:22.8	292.410	0.180	-0.810	0.060
2020/01/31 10:12:22.9	292.420	0.210	-0.860	0.030
2020/01/31 10:12:23.0	292.420	0.230	-0.900	0.010
2020/01/31 10:12:23.1	292.420	0.250	-0.940	-0.010
2020/01/31 10:12:23.2	292.430	0.270	-0.970	-0.030
2020/01/31 10:12:23.3	292.430	0.290	-1.000	-0.040
2020/01/31 10:12:23.4	292.440	0.300	-1.020	-0.060
2020/01/31 10:12:23.5	292.440	0.320	-1.030	-0.070
2020/01/31 10:12:23.6	292.450	0.330	-1.040	-0.080
2020/01/31 10:12:23.7	292.460	0.330	-1.040	-0.090
2020/01/31 10:12:23.8	292.460	0.340	-1.040	-0.090
2020/01/31 10:12:23.9	292.470	0.340	-1.030	-0.100
2020/01/31 10:12:24.0	292.470	0.340	-1.020	-0.100
2020/01/31 10:12:24.1	292.480	0.340	-1.000	-0.090
2020/01/31 10:12:24.2	292.480	0.330	-0.980	-0.090
2020/01/31 10:12:24.3	292.490	0.330	-0.950	-0.080
2020/01/31 10:12:24.4	292.500	0.320	-0.930	-0.070
2020/01/31 10:12:24.5	292.500	0.310	-0.900	-0.060
2020/01/31 10:12:24.6	292.510	0.300	-0.860	-0.040
2020/01/31 10:12:24.7	292.510	0.290	-0.830	-0.030
2020/01/31 10:12:24.8	292.520	0.280	-0.790	-0.010
2020/01/31 10:12:24.9	292.520	0.270	-0.750	0.010
2020/01/31 10:12:25.0	292.530	0.250	-0.710	0.030
2020/01/31 10:12:25.1	292.530	0.240	-0.670	0.060
2020/01/31 10:12:25.2	292.540	0.220	-0.640	0.080
2020/01/31 10:12:25.3	292.550	0.210	-0.600	0.110
2020/01/31 10:12:25.4	292.570	0.200	-0.560	0.130
2020/01/31 10:12:25.5	292.580	0.180	-0.530	0.160
2020/01/31 10:12:25.6	292.590	0.170	-0.500	0.180
2020/01/31 10:12:25.7	292.600	0.160	-0.470	0.200
2020/01/31 10:12:25.8	292.610	0.150	-0.440	0.230
2020/01/31 10:12:25.9	292.620	0.130	-0.410	0.250
2020/01/31 10:12:26.0	292.630	0.120	-0.390	0.270
2020/01/31 10:12:26.1	292.650	0.120	-0.370	0.290
2020/01/31 10:12:26.2	292.660	0.110	-0.350	0.310
2020/01/31 10:12:26.3	292.680	0.100	-0.330	0.330
2020/01/31 10:12:26.4	292.680	0.090	-0.320	0.350
2020/01/31 10:12:26.5	292.700	0.090	-0.300	0.360
2020/01/31 10:12:26.6	292.720	0.080	-0.290	0.380
2020/01/31 10:12:26.7	292.730	0.080	-0.280	0.400
2020/01/31 10:12:26.8	292.750	0.070	-0.270	0.410
2020/01/31 10:12:26.9	292.770	0.070	-0.260	0.420
2020/01/31 10:12:27.0	292.790	0.070	-0.260	0.440
2020/01/31 10:12:27.1	292.810	0.060	-0.250	0.450
2020/01/31 10:12:27.2	292.820	0.060	-0.240	0.460
2020/01/31 10:12:27.3	292.840	0.060	-0.240	0.480
2020/01/31 10:12:27.4	292.840	0.060	-0.230	0.490
2020/01/31 10:12:27.5	292.860	0.050	-0.220	0.500
2020/01/31 10:12:27.6	292.880	0.050	-0.210	0.520
2020/01/31 10:12:27.7	292.890	0.050	-0.210	0.530
2020/01/31 10:12:27.8	292.900	0.040	-0.200	0.550
2020/01/31 10:12:27.9	292.910	0.040	-0.190	0.560
2020/01/31 10:12:28.0	292.920	0.030	-0.180	0.580
2020/01/31 10:12:28.1	292.930	0.030	-0.170	0.600
2020/01/31 10:12:28.2	292.940	0.020	-0.150	0.610
2020/01/31 10:12:28.3	292.950	0.010	-0.140	0.630
2020/01/31 10:12:28.4	292.930	0.010	-0.130	0.640
2020/01/31 10:12:28.5	292.930	-0.000	-0.120	0.660
2020/01/31 10:12:28.6	292.930	-0.010	-0.100	0.680
2020/01/31 10:12:28.7	292.940	-0.020	-0.080	0.690
2020/01/31 10:12:28.8	292.930	-0.030	-0.070	0.710
2020/01/31 10:12:28.9	292.930	-0.050	-0.050	0.730
2020/01/31 10:12:29.0	292.930	-0.060	-0.030	0.740
2020/01/31 10:12:29.1	292.920	-0.070	-0.010	0.760
2020/01/31 10:12:29.2	292.920	-0.080	0.010	0.770
2020/01/31 10:12:29.3	292.910	-0.100	0.030	0.780
2020/01/31 10:12:29.4	292.890	-0.110	0.060	0.800
2020/01/31 10:12:29.5	292.880	-0.120	0.080	0.810
2020/01/31 10:12:29.6	292.870	-0.140	0.100	0.820
2020/01/31 10:12:29.7	292.860	-0.150	0.120	0.840
2020/01/31 10:12:29.8	292.850	-0.160	0.150	0.850
2020/01/31 10:12:29.9	292.830	-0.170	0.170	0.860
2020/01/31 10:12:30.0	292.820	-0.180	0.190	0.870
2020/01/31 10:12:30.1	292.810	-0.190	0.220	0.870
2020/01/31 10:12:30.2	292.790	-0.200	0.240	0.880
2020/01/31 10:12:30.3	292.780	-0.210	0.260	0.890
2020/01/31 10:12:30.4	292.760	-0.220	0.290	0.890
2020/01/31 10:12:30.5	292.750	-0.230	0.310	0.890
2020/01/31 10:12:30.6	292.740	-0.230	0.330	0.890
2020/01/31 10:12:30.7	292.720	-0.240	0.340	0.890
2020/01/31 10:12:30.8	292.710	-0.240	0.360	0.890
2020/01/31 10:12:30.9	292.700	-0.240	0.370	0.880
2020/01/31 10:12:31.0	292.690	-0.240	0.390	0.870
2020/01/31 10:12:31.1	292.680	-0.240	0.400	0.860
2020/01/31 10:12:31.2	292.670	-0.230	0.400	0.840
2020/01/31 10:12:31.3	292.670	-0.230	0.410	0.820
2020/01/31 10:12:31.4	292.660	-0.220	0.410	0.800
2020/01/31 10:12:31.5	292.660	-0.210	0.410	0.780
2020/01/31 10:12:31.6	292.650	-0.200	0.400	0.750
2020/01/31 10:12:31.7	292.650	-0.190	0.390	0.730
2020/01/31 10:12:31.8	292.650	-0.180	0.380	0.700
2020/01/31 10:12:31.9	292.650	-0.160	0.370	0.670
2020/01/31 10:12:32.0	292.650	-0.150	0.350	0.630
2020/01/31 10:12:32.1	292.650	-0.130	0.340	0.600
2020/01/31 10:12:32.2	292.650	-0.110	0.310	0.570
2020/01/31 10:12:32.3	292.650	-0.090	0.290	0.530
2020/01/31 10:12:32.4	292.660	-0.070	0.260	0.500
2020/01/31 10:12:32.5	292.660	-0.050	0.230	0.460
2020/01/31 10:12:32.6	292.660	-0.030	0.200	0.430
2020/01/31 10:12:32.7	292.660	-0.010	0.170	0.390
2020/01/31 10:12:32.8	292.670	0.020	0.130	0.360
2020/01/31 10:12:32.9	292.670	0.040	0.100	0.330
2020/01/31 10:12:33.0	292.670	0.060	0.060	0.300
2020/01/31 10:12:33.1	292.670	0.090	0.030	0.270
2020/01/31 10:12:33.2	292.680	0.110	-0.010	0.240
2020/01/31 10:12:33.3	292.680	0.130	-0.050	0.210
2020/01/31 10:12:33.4	292.670	0.160	-0.080	0.190
2020/01/31 10:12:33.5	292.680	0.180	-0.120	0.170
2020/01/31 10:12:33.6	292.680	0.200	-0.160	0.140
2020/01/31 10:12:33.7	292.680	0.230	-0.190	0.130
2020/01/31 10:12:33.8	292.680	0.250	-0.230	0.110
2020/01/31 10:12:33.9	292.680	0.270	-0.260	0.100
2020/01/31 10:12:34.0	292.680	0.290	-0.290	0.080
2020/01/31 10:12:34.1	292.680	0.300	-0.320	0.070
2020/01/31 10:12:34.2	292.680	0.320	-0.350	0.060
2020/01/31 10:12:34.3	292.680	0.340	-0.380	0.060
2020/01/31 10:12:34.4	292.680	0.350	-0.400	0.050
2020/01/31 10:12:34.5	292.680	0.360	-0.420	0.050
2020/01/31 10:12:34.6	292.680	0.380	-0.440	0.040
2020/01/31 10:12:34.7	292.680	0.390	-0.460	0.040
2020/01/31 10:12:34.8	292.680	0.390	-0.480	0.040
2020/01/31 10:12:34.9	292.680	0.400	-0.500	0.040
2020/01/31 10:12:35.0	292.680	0.410	-0.520	0.050
2020/01/31 10:12:35.1	292.690	0.410	-0.530	0.050
2020/01/31 10:12:35.2	292.690	0.410	-0.540	0.050
2020/01/31 10:12:35.3	292.690	0.410	-0.560	0.060
2020/01/31 10:12:35.4	292.690	0.410	-0.560	0.060
2020/01/31 10:12:35.5	292.700	0.410	-0.570	0.070
2020/01/31 10:12:35.6	292.700	0.400	-0.580	0.070
2020/01/31 10:12:35.7	292.710	0.400	-0.590	0.080
2020/01/31 10:12:35.8	292.720	0.390	-0.600	0.080
2020/01/31 10:12:35.9	292.720	0.380	-0.610	0.090
2020/01/31 10:12:36.0	292.730	0.370	-0.610	0.090
2020/01/31 10:12:36.1	292.740	0.360	-0.620	0.100
2020/01/31 10:12:36.2	292.750	0.340	-0.630	0.100
2020/01/31 10:12:36.3	292.750	0.330	-0.630	0.110
2020/01/31 10:12:36.4	292.760	0.310	-0.640	0.110
2020/01/31 10:12:36.5	292.770	0.290	-0.640	0.120
2020/01/31 10:12:36.6	292.780	0.280	-0.640	0.130
2020/01/31 10:12:36.7	292.790	0.260	-0.650	0.130
2020/01/31 10:12:36.8	292.800	0.240	-0.650	0.140
2020/01/31 10:12:36.9	292.810	0.210	-0.650	0.140
2020/01/31 10:12:37.0	292.820	0.190	-0.660	0.150
2020/01/31 10:12:37.1	292.840	0.170	-0.660	0.150
2020/01/31 10:12:37.2	292.850	0.150	-0.660	0.160
2020/01/31 10:12:37.3	292.860	0.120	-0.660	0.160
2020/01/31 10:12:37.4	292.870	0.100	-0.660	0.170
2020/01/31 10:12:37.5	292.880	0.080	-0.660	0.170
2020/01/31 10:12:37.6	292.900	0.050	-0.660	0.180
2020/01/31 10:12:37.7	292.910	0.030	-0.650	0.180
2020/01/31 10:12:37.8	292.930	0.000	-0.650	0.180
2020/01/31 10:12:37.9	292.950	-0.020	-0.650	0.190
2020/01/31 10:12:38.0	292.970	-0.050	-0.640	0.190
2020/01/31 10:12:38.1	292.990	-0.070	-0.640	0.190
2020/01/31 10:12:38.2	293.010	-0.100	-0.630	0.190
2020/01/31 10:12:38.3	293.030	-0.120	-0.630	0.200
2020/01/31 10:12:38.4	293.050	-0.150	-0.620	0.200
2020/01/31 10:12:38.5	293.070	-0.170	-0.620	0.200
2020/01/31 10:12:38.6	293.100	-0.190	-0.610	0.200
2020/01/31 10:12:38.7	293.120	-0.220	-0.600	0.200
2020/01/31 10:12:38.8	293.150	-0.240	-0.590	0.200
2020/01/31 10:12:38.9	293.170	-0.260	-0.580	0.200
2020/01/31 10:12:39.0	293.200	-0.280	-0.570	0.210
2020/01/31 10:12:39.1	293.220	-0.300	-0.560	0.210
2020/01/31 10:12:39.2	293.250	-0.320	-0.550	0.210
2020/01/31 10:12:39.3	293.280	-0.340	-0.540	0.210
2020/01/31 10:12:39.4	293.290	-0.350	-0.520	0.210
2020/01/31 10:12:39.5	293.320	-0.370	-0.500	0.210
2020/01/31 10:12:39.6	293.340	-0.390	-0.490	0.220
2020/01/31 10:12:39.7	293.370	-0.400	-0.470	0.220
2020/01/31 10:12:39.8	293.390	-0.420	-0.450	0.220
2020/01/31 10:12:39.9	293.420	-0.430	-0.420	0.230
2020/01/31 10:12:40.0	293.440	-0.440	-0.400	0.240
2020/01/31 10:12:40.1	293.470	-0.450	-0.370	0.250
2020/01/31 10:12:40.2	293.490	-0.460	-0.340	0.260
2020/01/31 10:12:40.3	293.510	-0.470	-0.320	0.270
2020/01/31 10:12:40.4	293.530	-0.480	-0.290	0.280
2020/01/31 10:12:40.5	293.550	-0.480	-0.250	0.300
2020/01/31 10:12:40.6	293.560	-0.490	-0.220	0.310
2020/01/31 10:12:40.7	293.580	-0.490	-0.180	0.330
2020/01/31 10:12:40.8	293.590	-0.490	-0.140	0.350
2020/01/31 10:12:40.9	293.600	-0.500	-0.100	0.370
2020/01/31 10:12:41.0	293.610	-0.500	-0.070	0.400
2020/01/31 10:12:41.1	293.610	-0.490	-0.030	0.420
2020/01/31 10:12:41.2	293.620	-0.490	0.020	0.450
2020/01/31 10:12:41.3	293.620	-0.490	0.050	0.470
2020/01/31 10:12:41.4	293.610	-0.480	0.090	0.500
2020/01/31 10:12:41.5	293.610	-0.480	0.130	0.530
2020/01/31 10:12:41.6	293.600	-0.470	0.170	0.560
2020/01/31 10:12:41.7	293.590	-0.460	0.210	0.580
2020/01/31 10:12:41.8	293.580	-0.450	0.250	0.610
2020/01/31 10:12:41.9	293.570	-0.440	0.280	0.640
2020/01/31 10:12:42.0	293.550	-0.420	0.310	0.670
2020/01/31 10:12:42.1	293.530	-0.410	0.340	0.700
2020/01/31 10:12:42.2	293.520	-0.390	0.370	0.730
2020/01/31 10:12:42.3	293.490	-0.370	0.390	0.760
2020/01/31 10:12:42.4	293.470	-0.350	0.410	0.780
2020/01/31 10:12:42.5	293.440	-0.330	0.430	0.810
2020/01/31 10:12:42.6	293.420	-0.310	0.440	0.830
2020/01/31 10:12:42.7	293.390	-0.280	0.450	0.850
2020/01/31 10:12:42.8	293.370	-0.260	0.460	0.870
2020/01/31 10:12:42.9	293.340	-0.230	0.460	0.880
2020/01/31 10:12:43.0	293.320	-0.200	0.450	0.900
2020/01/31 10:12:43.1	293.290	-0.170	0.450	0.900
2020/01/31 10:12:43.2	293.270	-0.140	0.440	0.910
2020/01/31 10:12:43.3	293.240	-0.110	0.420	0.920
2020/01/31 10:12:43.4	293.220	-0.080	0.400	0.920
2020/01/31 10:12:43.5	293.190	-0.050	0.380	0.910
2020/01/31 10:12:43.6	293.170	-0.020	0.360	0.910
2020/01/31 10:12:43.7	293.150	0.020	0.330	0.900
2020/01/31 10:12:43.8	293.120	0.050	0.300	0.890
2020/01/31 10:12:43.9	293.100	0.080	0.270	0.880
2020/01/31 10:12:44.0	293.080	0.120	0.240	0.870
2020/01/31 10:12:44.1	293.070	0.150	0.210	0.850
2020/01/31 10:12:44.2	293.050	0.180	0.170	0.830
2020/01/31 10:12:44.3	293.030	0.210	0.140	0.810
2020/01/31 10:12:44.4	293.020	0.240	0.100	0.790
2020/01/31 10:12:44.5	293.000	0.270	0.070	0.770
2020/01/31 10:12:44.6	292.990	0.300	0.040	0.750
2020/01/31 10:12:44.7	292.990	0.330	0.010	0.730
2020/01/31 10:12:44.8	292.980	0.360	-0.020	0.700
2020/01/31 10:12:44.9	292.970	0.380	-0.050	0.680
2020/01/31 10:12:45.0	292.970	0.400	-0.070	0.660
2020/01/31 10:12:45.1	292.960	0.430	-0.100	0.630
2020/01/31 10:12:45.2	292.960	0.450	-0.120	0.610
2020/01/31 10:12:45.3	292.960	0.460	-0.140	0.590
2020/01/31 10:12:45.4	292.960	0.480	-0.150	0.570
2020/01/31 10:12:45.5	292.970	0.500	-0.170	0.550
2020/01/31 10:12:45.6	292.970	0.510	-0.180	0.530
2020/01/31 10:12:45.7	292.980	0.520	-0.190	0.510
2020/01/31 10:12:45.8	292.980	0.530	-0.190	0.490
2020/01/31 10:12:45.9	292.990	0.530	-0.200	0.470
2020/01/31 10:12:46.0	293.000	0.540	-0.210	0.460
2020/01/31 10:12:46.1	293.010	0.540	-0.210	0.440
2020/01/31 10:12:46.2	293.020	0.540	-0.210	0.430
2020/01/31 10:12:46.3	293.030	0.540	-0.210	0.420
2020/01/31 10:12:46.4	293.040	0.540	-0.210	0.400
2020/01/31 10:12:46.5	293.050	0.530	-0.210	0.390
2020/01/31 10:12:46.6	293.060	0.530	-0.210	0.380
2020/01/31 10:12:46.7	293.070	0.520	-0.210	0.370
2020/01/31 10:12:46.8	293.090	0.510	-0.210	0.360
2020/01/31 10:12:46.9	293.100	0.500	-0.210	0.350
2020/01/31 10:12:47.0	293.120	0.490	-0.210	0.340
2020/01/31 10:12:47.1	293.130	0.470	-0.220	0.330
2020/01/31 10:12:47.2	293.150	0.460	-0.220	0.320
2020/01/31 10:12:47.3	293.170	0.440	-0.230	0.310
2020/01/31 10:12:47.4	293.200	0.420	-0.230	0.300
2020/01/31 10:12:47.5	293.220	0.400	-0.240	0.290
2020/01/31 10:12:47.6	293.240	0.390	-0.250	0.280
2020/01/31 10:12:47.7	293.260	0.370	-0.260	0.260
2020/01/31 10:12:47.8	293.280	0.340	-0.280	0.250
2020/01/31 10:12:47.9	293.300	0.320	-0.290	0.230
2020/01/31 10:12:48.0	293.320	0.300	-0.300	0.220
2020/01/31 10:12:48.1	293.340	0.280	-0.320	0.200
2020/01/31 10:12:48.2	293.360	0.250	-0.340	0.190
2020/01/31 10:12:48.3	293.380	0.230	-0.350	0.170
2020/01/31 10:12:48.4	293.390	0.210	-0.370	0.150
2020/01/31 10:12:48.5	293.410	0.180	-0.390	0.130
2020/01/31 10:12:48.6	293.430	0.160	-0.400	0.110
2020/01/31 10:12:48.7	293.450	0.130	-0.420	0.090
2020/01/31 10:12:48.8	293.460	0.110	-0.440	0.070
2020/01/31 10:12:48.9	293.470	0.080	-0.460	0.060
2020/01/31 10:12:49.0	293.490	0.060	-0.480	0.040
2020/01/31 10:12:49.1	293.500	0.040	-0.490	0.020
2020/01/31 10:12:49.2	293.510	0.010	-0.510	0.010
2020/01/31 10:12:49.3	293.520	-0.010	-0.520	-0.010
2020/01/31 10:12:49.4	293.520	-0.030	-0.540	-0.020
2020/01/31 10:12:49.5	293.530	-0.050	-0.550	-0.030
2020/01/31 10:12:49.6	293.530	-0.080	-0.560	-0.040
2020/01/31 10:12:49.7	293.540	-0.100	-0.570	-0.050
2020/01/31 10:12:49.8	293.540	-0.120	-0.580	-0.060
2020/01/31 10:12:49.9	293.540	-0.130	-0.590	-0.070
2020/01/31 10:12:50.0	293.540	-0.150	-0.600	-0.080
2020/01/31 10:12:50.1	293.540	-0.170	-0.600	-0.080
2020/01/31 10:12:50.2	293.540	-0.190	-0.610	-0.090
2020/01/31 10:12:50.3	293.530	-0.200	-0.610	-0.090
2020/01/31 10:12:50.4	293.530	-0.210	-0.620	-0.090
2020/01/31 10:12:50.5	293.520	-0.230	-0.620	-0.090
2020/01/31 10:12:50.6	293.520	-0.240	-0.620	-0.090
2020/01/31 10:12:50.7	293.510	-0.250	-0.620	-0.090
2020/01/31 10:12:50.8	293.500	-0.260	-0.620	-0.080
2020/01/31 10:12:50.9	293.500	-0.260	-0.610	-0.080
2020/01/31 10:12:51.0	293.490	-0.270	-0.610	-0.070
2020/01/31 10:12:51.1	293.480	-0.280	-0.610	-0.060
2020/01/31 10:12:51.2	293.470	-0.280	-0.610	-0.060
2020/01/31 10:12:51.3	293.460	-0.280	-0.600	-0.050
2020/01/31 10:12:51.4	293.450	-0.280	-0.600	-0.030
2020/01/31 10:12:51.5	293.440	-0.290	-0.590	-0.020
2020/01/31 10:12:51.6	293.430	-0.280	-0.590	-0.010
2020/01/31 10:12:51.7	293.420	-0.280	-0.580	0.000
2020/01/31 10:12:51.8	293.410	-0.280	-0.570	0.020
2020/01/31 10:12:51.9	293.400	-0.280	-0.570	0.030
2020/01/31 10:12:52.0	293.390	-0.280	-0.560	0.050
2020/01/31 10:12:52.1	293.380	-0.270	-0.550	0.060
2020/01/31 10:12:52.2	293.370	-0.270	-0.550	0.080
2020/01/31 10:12:52.3	293.360	-0.260	-0.540	0.090
2020/01/31 10:12:52.4	293.370	-0.250	-0.530	0.110
2020/01/31 10:12:52.5	293.360	-0.250	-0.520	0.120
2020/01/31 10:12:52.6	293.360	-0.240	-0.510	0.140
2020/01/31 10:12:52.7	293.350	-0.230	-0.500	0.160
2020/01/31 10:12:52.8	293.350	-0.220	-0.490	0.180
2020/01/31 10:12:52.9	293.350	-0.220	-0.470	0.200
2020/01/31 10:12:53.0	293.350	-0.210	-0.460	0.210
2020/01/31 10:12:53.1	293.350	-0.200	-0.440	0.230
2020/01/31 10:12:53.2	293.350	-0.190	-0.430	0.250
2020/01/31 10:12:53.3	293.360	-0.180	-0.410	0.280
2020/01/31 10:12:53.4	293.350	-0.170	-0.390	0.300
2020/01/31 10:12:53.5	293.360	-0.160	-0.380	0.320
2020/01/31 10:12:53.6	293.370	-0.160	-0.350	0.340
2020/01/31 10:12:53.7	293.370	-0.150	-0.330	0.370
2020/01/31 10:12:53.8	293.380	-0.140	-0.310	0.390
2020/01/31 10:12:53.9	293.380	-0.130	-0.280	0.420
2020/01/31 10:12:54.0	293.390	-0.120	-0.260	0.440
2020/01/31 10:12:54.1	293.400	-0.120	-0.230	0.470
2020/01/31 10:12:54.2	293.410	-0.110	-0.200	0.490
2020/01/31 10:12:54.3	293.420	-0.100	-0.170	0.520
2020/01/31 10:12:54.4	293.440	-0.100	-0.140	0.550
2020/01/31 10:12:54.5	293.450	-0.090	-0.110	0.580
2020/01/31 10:12:54.6	293.460	-0.090	-0.080	0.600
2020/01/31 10:12:54.7	293.470	-0.080	-0.040	0.630
2020/01/31 10:12:54.8	293.480	-0.080	-0.010	0.650
2020/01/31 10:12:54.9	293.490	-0.080	0.020	0.680
2020/01/31 10:12:55.0	293.500	-0.070	0.060	0.700
2020/01/31 10:12:55.1	293.510	-0.070	0.090	0.730
2020/01/31 10:12:55.2	293.520	-0.070	0.130	0.750
2020/01/31 10:12:55.3	293.530	-0.070	0.160	0.780
2020/01/31 10:12:55.4	293.540	-0.070	0.190	0.800
2020/01/31 10:12:55.5	293.550	-0.070	0.220	0.820
2020/01/31 10:12:55.6	293.560	-0.070	0.260	0.840
2020/01/31 10:12:55.7	293.570	-0.060	0.290	0.870
2020/01/31 10:12:55.8	293.570	-0.060	0.320	0.890
2020/01/31 10:12:55.9	293.580	-0.070	0.350	0.910
2020/01/31 10:12:56.0	293.580	-0.070	0.380	0.920
2020/01/31 10:12:56.1	293.590	-0.070	0.410	0.940
2020/01/31 10:12:56.2	293.590	-0.070	0.440	0.960
2020/01/31 10:12:56.3	293.600	-0.070	0.460	0.970
2020/01/31 10:12:56.4	293.590	-0.070	0.480	0.980
2020/01/31 10:12:56.5	293.590	-0.070	0.500	0.990
2020/01/31 10:12:56.6	293.590	-0.070	0.520	1.000
2020/01/31 10:12:56.7	293.600	-0.070	0.540	1.010
2020/01/31 10:12:56.8	293.600	-0.070	0.550	1.010
2020/01/31 10:12:56.9	293.600	-0.070	0.560	1.020
2020/01/31 10:12:57.0	293.610	-0.070	0.570	1.010
2020/01/31 10:12:57.1	293.610	-0.070	0.570	1.010
2020/01/31 10:12:57.2	293.610	-0.070	0.570	1.000
2020/01/31 10:12:57.3	293.610	-0.070	0.570	0.990
2020/01/31 10:12:57.4	293.620	-0.070	0.560	0.980
2020/01/31 10:12:57.5	293.620	-0.070	0.550	0.970
2020/01/31 10:12:57.6	293.620	-0.070	0.530	0.950
2020/01/31 10:12:57.7	293.630	-0.060	0.510	0.930
2020/01/31 10:12:57.8	293.630	-0.060	0.490	0.900
2020/01/31 10:12:57.9	293.630	-0.060	0.460	0.880
2020/01/31 10:12:58.0	293.640	-0.060	0.430	0.850
2020/01/31 10:12:58.1	293.640	-0.060	0.400	0.820
2020/01/31 10:12:58.2	293.640	-0.050	0.360	0.790
2020/01/31 10:12:58.3	293.650	-0.050	0.320	0.750
2020/01/31 10:12:58.4	293.670	-0.050	0.280	0.710
2020/01/31 10:12:58.5	293.670	-0.040	0.240	0.670
2020/01/31 10:12:58.6	293.680	-0.040	0.190	0.630
2020/01/31 10:12:58.7	293.680	-0.030	0.140	0.590
2020/01/31 10:12:58.8	293.690	-0.030	0.090	0.550
2020/01/31 10:12:58.9	293.690	-0.020	0.030	0.500
2020/01/31 10:12:59.0	293.700	-0.020	-0.020	0.460
2020/01/31 10:12:59.1	293.700	-0.010	-0.080	0.410
2020/01/31 10:12:59.2	293.710	-0.000	-0.140	0.360
2020/01/31 10:12:59.3	293.710	0.000	-0.200	0.320
2020/01/31 10:12:59.4	293.720	0.010	-0.260	0.270
2020/01/31 10:12:59.5	293.730	0.020	-0.320	0.220
2020/01/31 10:12:59.6	293.730	0.030	-0.380	0.180
2020/01/31 10:12:59.7	293.740	0.030	-0.430	0.130
2020/01/31 10:12:59.8	293.740	0.040	-0.490	0.080
2020/01/31 10:12:59.9	293.750	0.050	-0.550	0.040
2020/01/31 10:13:00.0	293.750	0.060	-0.600	-0.010
2020/01/31 10:13:00.1	293.760	0.070	-0.660	-0.050
2020/01/31 10:13:00.2	293.760	0.080	-0.710	-0.090
2020/01/31 10:13:00.3	293.770	0.090	-0.760	-0.130
2020/01/31 10:13:00.4	293.760	0.100	-0.800	-0.170
2020/01/31 10:13:00.5	293.760	0.120	-0.850	-0.210
2020/01/31 10:13:00.6	293.770	0.130	-0.890	-0.240
2020/01/31 10:13:00.7	293.770	0.140	-0.930	-0.270
2020/01/31 10:13:00.8	293.780	0.150	-0.960	-0.300
2020/01/31 10:13:00.9	293.780	0.160	-0.990	-0.320
2020/01/31 10:13:01.0	293.780	0.180	-1.020	-0.350
2020/01/31 10:13:01.1	293.790	0.190	-1.040	-0.370
2020/01/31 10:13:01.2	293.790	0.200	-1.060	-0.380
2020/01/31 10:13:01.3	293.790	0.210	-1.080	-0.390
2020/01/31 10:13:01.4	293.810	0.230	-1.080	-0.400
2020/01/31 10:13:01.5	293.810	0.240	-1.090	-0.410
2020/01/31 10:13:01.6	293.810	0.250	-1.090	-0.410
2020/01/31 10:13:01.7	293.810	0.260	-1.090	-0.410
2020/01/31 10:13:01.8	293.810	0.270	-1.080	-0.400
2020/01/31 10:13:01.9	293.810	0.280	-1.070	-0.400
2020/01/31 10:13:02.0	293.820	0.290	-1.060	-0.380
2020/01/31 10:13:02.1	293.810	0.300	-1.040	-0.370
2020/01/31 10:13:02.2	293.810	0.300	-1.020	-0.350
2020/01/31 10:13:02.3	293.810	0.310	-0.990	-0.330
2020/01/31 10:13:02.4	293.840	0.310	-0.960	-0.310
2020/01/31 10:13:02.5	293.830	0.310	-0.930	-0.290
2020/01/31 10:13:02.6	293.830	0.320	-0.890	-0.260
2020/01/31 10:13:02.7	293.830	0.320	-0.850	-0.240
2020/01/31 10:13:02.8	293.830	0.310	-0.810	-0.210
2020/01/31 10:13:02.9	293.830	0.310	-0.770	-0.180
2020/01/31 10:13:03.0	293.830	0.310	-0.720	-0.140
2020/01/31 10:13:03.1	293.830	0.300	-0.680	-0.110
2020/01/31 10:13:03.2	293.830	0.290	-0.630	-0.080
2020/01/31 10:13:03.3	293.830	0.280	-0.580	-0.040
2020/01/31 10:13:03.4	293.830	0.270	-0.530	-0.000
2020/01/31 10:13:03.5	293.830	0.260	-0.480	0.040
2020/01/31 10:13:03.6	293.840	0.250	-0.420	0.070
2020/01/31 10:13:03.7	293.840	0.230	-0.370	0.110
2020/01/31 10:13:03.8	293.840	0.220	-0.320	0.150
2020/01/31 10:13:03.9	293.840	0.200	-0.270	0.190
2020/01/31 10:13:04.0	293.840	0.180	-0.220	0.220
2020/01/31 10:13:04.1	293.850	0.170	-0.170	0.260
2020/01/31 10:13:04.2	293.850	0.150	-0.120	0.300
2020/01/31 10:13:04.3	293.850	0.130	-0.070	0.330
2020/01/31 10:13:04.4	293.850	0.110	-0.020	0.360
2020/01/31 10:13:04.5	293.850	0.090	0.020	0.400
2020/01/31 10:13:04.6	293.860	0.070	0.070	0.430
2020/01/31 10:13:04.7	293.860	0.050	0.110	0.470
2020/01/31 10:13:04.8	293.870	0.030	0.150	0.500
2020/01/31 10:13:04.9	293.880	0.010	0.180	0.530
2020/01/31 10:13:05.0	293.880	-0.010	0.220	0.560
2020/01/31 10:13:05.1	293.890	-0.030	0.250	0.580
2020/01/31 10:13:05.2	293.900	-0.040	0.280	0.610
2020/01/31 10:13:05.3	293.910	-0.060	0.300	0.630
2020/01/31 10:13:05.4	293.910	-0.070	0.330	0.650
2020/01/31 10:13:05.5	293.920	-0.090	0.350	0.670
2020/01/31 10:13:05.6	293.930	-0.100	0.360	0.690
2020/01/31 10:13:05.7	293.940	-0.110	0.380	0.700
2020/01/31 10:13:05.8	293.950	-0.120	0.390	0.720
2020/01/31 10:13:05.9	293.960	-0.130	0.400	0.730
2020/01/31 10:13:06.0	293.970	-0.140	0.400	0.740
2020/01/31 10:13:06.1	293.980	-0.140	0.410	0.750
2020/01/31 10:13:06.2	294.000	-0.150	0.410	0.750
2020/01/31 10:13:06.3	294.010	-0.150	0.400	0.760
2020/01/31 10:13:06.4	294.010	-0.150	0.400	0.760
2020/01/31 10:13:06.5	294.020	-0.150	0.390	0.760
2020/01/31 10:13:06.6	294.030	-0.150	0.390	0.760
2020/01/31 10:13:06.7	294.040	-0.150	0.370	0.760
2020/01/31 10:13:06.8	294.050	-0.150	0.360	0.760
2020/01/31 10:13:06.9	294.060	-0.150	0.350	0.750
2020/01/31 10:13:07.0	294.070	-0.140	0.330	0.750
2020/01/31 10:13:07.1	294.070	-0.140	0.310	0.740
2020/01/31 10:13:07.2	294.080	-0.130	0.290	0.730
2020/01/31 10:13:07.3	294.090	-0.130	0.270	0.720
2020/01/31 10:13:07.4	294.090	-0.120	0.240	0.720
2020/01/31 10:13:07.5	294.090	-0.110	0.220	0.710
2020/01/31 10:13:07.6	294.100	-0.100	0.190	0.690
2020/01/31 10:13:07.7	294.100	-0.100	0.170	0.680
2020/01/31 10:13:07.8	294.100	-0.090	0.140	0.670
2020/01/31 10:13:07.9	294.100	-0.080	0.110	0.650
2020/01/31 10:13:08.0	294.110	-0.080	0.080	0.630
2020/01/31 10:13:08.1	294.110	-0.070	0.050	0.620
2020/01/31 10:13:08.2	294.110	-0.060	0.020	0.590
2020/01/31 10:13:08.3	294.110	-0.060	-0.020	0.570
2020/01/31 10:13:08.4	294.100	-0.050	-0.050	0.540
2020/01/31 10:13:08.5	294.100	-0.050	-0.080	0.520
2020/01/31 10:13:08.6	294.100	-0.040	-0.120	0.490
2020/01/31 10:13:08.7	294.090	-0.040	-0.150	0.460
2020/01/31 10:13:08.8	294.090	-0.030	-0.180	0.430
2020/01/31 10:13:08.9	294.090	-0.030	-0.210	0.400
2020/01/31 10:13:09.0	294.080	-0.030	-0.240	0.360
2020/01/31 10:13:09.1	294.080	-0.030	-0.270	0.320
2020/01/31 10:13:09.2	294.070	-0.030	-0.300	0.290
2020/01/31 10:13:09.3	294.060	-0.030	-0.330	0.250
2020/01/31 10:13:09.4	294.050	-0.040	-0.350	0.210
2020/01/31 10:13:09.5	294.040	-0.040	-0.380	0.170
2020/01/31 10:13:09.6	294.030	-0.040	-0.400	0.120
2020/01/31 10:13:09.7	294.030	-0.050	-0.420	0.080
2020/01/31 10:13:09.8	294.010	-0.060	-0.430	0.040
2020/01/31 10:13:09.9	294.000	-0.060	-0.450	0.000
2020/01/31 10:13:10.0	293.990	-0.070	-0.460	-0.040
2020/01/31 10:13:10.1	293.980	-0.080	-0.480	-0.080
2020/01/31 10:13:10.2	293.960	-0.090	-0.480	-0.120
2020/01/31 10:13:10.3	293.950	-0.100	-0.490	-0.150
2020/01/31 10:13:10.4	293.940	-0.110	-0.500	-0.190
2020/01/31 10:13:10.5	293.920	-0.120	-0.500	-0.230
2020/01/31 10:13:10.6	293.910	-0.130	-0.500	-0.260
2020/01/31 10:13:10.7	293.890	-0.150	-0.500	-0.290
2020/01/31 10:13:10.8	293.880	-0.160	-0.500	-0.320
2020/01/31 10:13:10.9	293.860	-0.170	-0.500	-0.350
2020/01/31 10:13:11.0	293.850	-0.180	-0.490	-0.370
2020/01/31 10:13:11.1	293.840	-0.200	-0.490	-0.390
2020/01/31 10:13:11.2	293.830	-0.210	-0.480	-0.420
2020/01/31 10:13:11.3	293.820	-0.220	-0.480	-0.430
2020/01/31 10:13:11.4	293.810	-0.230	-0.470	-0.450
2020/01/31 10:13:11.5	293.800	-0.240	-0.460	-0.460
2020/01/31 10:13:11.6	293.790	-0.250	-0.460	-0.470
2020/01/31 10:13:11.7	293.790	-0.260	-0.450	-0.480
2020/01/31 10:13:11.8	293.780	-0.270	-0.440	-0.490
2020/01/31 10:13:11.9	293.780	-0.270	-0.440	-0.490
2020/01/31 10:13:12.0	293.780	-0.280	-0.430	-0.490
2020/01/31 10:13:12.1	293.780	-0.280	-0.420	-0.490
2020/01/31 10:13:12.2	293.780	-0.290	-0.420	-0.490
2020/01/31 10:13:12.3	293.780	-0.290	-0.420	-0.480
2020/01/31 10:13:12.4	293.800	-0.290	-0.410	-0.480
2020/01/31 10:13:12.5	293.810	-0.280	-0.410	-0.470
2020/01/31 10:13:12.6	293.810	-0.280	-0.410	-0.450
2020/01/31 10:13:12.7	293.820	-0.280	-0.410	-0.440
2020/01/31 10:13:12.8	293.830	-0.270	-0.410	-0.420
2020/01/31 10:13:12.9	293.850	-0.260	-0.410	-0.400
2020/01/31 10:13:13.0	293.860	-0.250	-0.410	-0.380
2020/01/31 10:13:13.1	293.880	-0.240	-0.420	-0.360
2020/01/31 10:13:13.2	293.890	-0.230	-0.420	-0.330
2020/01/31 10:13:13.3	293.910	-0.210	-0.420	-0.300
2020/01/31 10:13:13.4	293.940	-0.200	-0.430	-0.270
2020/01/31 10:13:13.5	293.960	-0.180	-0.440	-0.240
2020/01/31 10:13:13.6	293.980	-0.160	-0.440	-0.210
2020/01/31 10:13:13.7	294.010	-0.150	-0.450	-0.180
2020/01/31 10:13:13.8	294.030	-0.130	-0.450	-0.140
2020/01/31 10:13:13.9	294.050	-0.110	-0.460	-0.110
2020/01/31 10:13:14.0	294.080	-0.080	-0.460	-0.070
2020/01/31 10:13:14.1	294.100	-0.060	-0.460	-0.030
2020/01/31 10:13:14.2	294.130	-0.040	-0.470	0.010
2020/01/31 10:13:14.3	294.150	-0.020	-0.470	0.050
2020/01/31 10:13:14.4	294.180	0.000	-0.470	0.080
2020/01/31 10:13:14.5	294.200	0.020	-0.470	0.120
2020/01/31 10:13:14.6	294.230	0.050	-0.470	0.160
2020/01/31 10:13:14.7	294.250	0.070	-0.470	0.210
2020/01/31 10:13:14.8	294.280	0.090	-0.470	0.250
2020/01/31 10:13:14.9	294.300	0.110	-0.460	0.290
2020/01/31 10:13:15.0	294.320	0.130	-0.460	0.330
2020/01/31 10:13:15.1	294.340	0.150	-0.450	0.370
2020/01/31 10:13:15.2	294.370	0.160	-0.450	0.420
2020/01/31 10:13:15.3	294.380	0.180	-0.440	0.460
2020/01/31 10:13:15.4	294.400	0.190	-0.420	0.500
2020/01/31 10:13:15.5	294.410	0.210	-0.410	0.540
2020/01/31 10:13:15.6	294.430	0.220	-0.390	0.580
2020/01/31 10:13:15.7	294.440	0.230	-0.380	0.620
2020/01/31 10:13:15.8	294.450	0.240	-0.360	0.660
2020/01/31 10:13:15.9	294.460	0.250	-0.340	0.700
2020/01/31 10:13:16.0	294.460	0.260	-0.320	0.740
2020/01/31 10:13:16.1	294.470	0.260	-0.300	0.780
2020/01/31 10:13:16.2	294.470	0.270	-0.280	0.810
2020/01/31 10:13:16.3	294.470	0.270	-0.260	0.850
2020/01/31 10:13:16.4	294.450	0.270	-0.230	0.880
2020/01/31 10:13:16.5	294.450	0.270	-0.210	0.910
2020/01/31 10:13:16.6	294.440	0.270	-0.180	0.950
2020/01/31 10:13:16.7	294.440	0.270	-0.150	0.980
2020/01/31 10:13:16.8	294.430	0.260	-0.130	1.010
2020/01/31 10:13:16.9	294.420	0.260	-0.100	1.030
2020/01/31 10:13:17.0	294.410	0.250	-0.070	1.060
2020/01/31 10:13:17.1	294.390	0.250	-0.040	1.080
2020/01/31 10:13:17.2	294.380	0.240	-0.020	1.100
2020/01/31 10:13:17.3	294.370	0.240	0.010	1.120
2020/01/31 10:13:17.4	294.330	0.230	0.040	1.140
2020/01/31 10:13:17.5	294.320	0.220	0.070	1.150
2020/01/31 10:13:17.6	294.300	0.210	0.100	1.160
2020/01/31 10:13:17.7	294.290	0.210	0.120	1.170
2020/01/31 10:13:17.8	294.270	0.200	0.150	1.180
2020/01/31 10:13:17.9	294.250	0.190	0.170	1.190
2020/01/31 10:13:18.0	294.240	0.190	0.200	1.190
2020/01/31 10:13:18.1	294.220	0.180	0.220	1.190
2020/01/31 10:13:18.2	294.200	0.170	0.240	1.190
2020/01/31 10:13:18.3	294.180	0.170	0.260	1.190
2020/01/31 10:13:18.4	294.170	0.160	0.280	1.180
2020/01/31 10:13:18.5	294.150	0.160	0.300	1.170
2020/01/31 10:13:18.6	294.130	0.150	0.320	1.160
2020/01/31 10:13:18.7	294.110	0.150	0.330	1.150
2020/01/31 10:13:18.8	294.100	0.140	0.350	1.140
2020/01/31 10:13:18.9	294.080	0.140	0.360	1.120
2020/01/31 10:13:19.0	294.060	0.140	0.370	1.110
2020/01/31 10:13:19.1	294.040	0.140	0.380	1.090
2020/01/31 10:13:19.2	294.020	0.140	0.390	1.070
2020/01/31 10:13:19.3	294.010	0.140	0.390	1.050
2020/01/31 10:13:19.4	293.990	0.130	0.390	1.030
2020/01/31 10:13:19.5	293.970	0.130	0.390	1.010
2020/01/31 10:13:19.6	293.960	0.130	0.390	0.990
2020/01/31 10:13:19.7	293.940	0.130	0.390	0.960
2020/01/31 10:13:19.8	293.930	0.130	0.390	0.940
2020/01/31 10:13:19.9	293.920	0.130	0.380	0.910
2020/01/31 10:13:20.0	293.900	0.130	0.370	0.880
2020/01/31 10:13:20.1	293.890	0.130	0.370	0.850
2020/01/31 10:13:20.2	293.880	0.130	0.350	0.820
2020/01/31 10:13:20.3	293.880	0.130	0.340	0.790
2020/01/31 10:13:20.4	293.870	0.130	0.320	0.760
2020/01/31 10:13:20.5	293.860	0.130	0.300	0.720
2020/01/31 10:13:20.6	293.860	0.130	0.280	0.690
2020/01/31 10:13:20.7	293.860	0.120	0.260	0.650
2020/01/31 10:13:20.8	293.860	0.120	0.230	0.610
2020/01/31 10:13:20.9	293.870	0.120	0.210	0.570
2020/01/31 10:13:21.0	293.870	0.110	0.180	0.530
2020/01/31 10:13:21.1	293.880	0.110	0.140	0.480
2020/01/31 10:13:21.2	293.890	0.100	0.110	0.440
2020/01/31 10:13:21.3	293.910	0.100	0.070	0.390
2020/01/31 10:13:21.4	293.920	0.090	0.040	0.340
2020/01/31 10:13:21.5	293.930	0.090	-0.000	0.290
2020/01/31 10:13:21.6	293.950	0.080	-0.040	0.240
2020/01/31 10:13:21.7	293.970	0.070	-0.090	0.190
2020/01/31 10:13:21.8	294.000	0.070	-0.130	0.140
2020/01/31 10:13:21.9	294.020	0.060	-0.180	0.090
2020/01/31 10:13:22.0	294.050	0.050	-0.220	0.040
2020/01/31 10:13:22.1	294.070	0.040	-0.270	-0.010
2020/01/31 10:13:22.2	294.100	0.030	-0.310	-0.050
2020/01/31 10:13:22.3	294.130	0.020	-0.360	-0.100
2020/01/31 10:13:22.4	294.140	0.010	-0.410	-0.140
2020/01/31 10:13:22.5	294.170	0.000	-0.450	-0.190
2020/01/31 10:13:22.6	294.200	-0.010	-0.500	-0.230
2020/01/31 10:13:22.7	294.230	-0.020	-0.540	-0.270
2020/01/31 10:13:22.8	294.260	-0.030	-0.580	-0.300
2020/01/31 10:13:22.9	294.290	-0.040	-0.620	-0.340
2020/01/31 10:13:23.0	294.320	-0.050	-0.670	-0.370
2020/01/31 10:13:23.1	294.350	-0.060	-0.700	-0.400
2020/01/31 10:13:23.2	294.380	-0.070	-0.740	-0.430
2020/01/31 10:13:23.3	294.410	-0.070	-0.780	-0.450
2020/01/31 10:13:23.4	294.440	-0.080	-0.810	-0.480
2020/01/31 10:13:23.5	294.470	-0.090	-0.840	-0.490
2020/01/31 10:13:23.6	294.500	-0.100	-0.870	-0.510
2020/01/31 10:13:23.7	294.530	-0.110	-0.900	-0.520
2020/01/31 10:13:23.8	294.560	-0.120	-0.920	-0.530
2020/01/31 10:13:23.9	294.580	-0.120	-0.950	-0.540
2020/01/31 10:13:24.0	294.610	-0.130	-0.970	-0.540
2020/01/31 10:13:24.1	294.630	-0.140	-0.990	-0.540
2020/01/31 10:13:24.2	294.660	-0.140	-1.000	-0.540
2020/01/31 10:13:24.3	294.680	-0.150	-1.020	-0.540
2020/01/31 10:13:24.4	294.720	-0.150	-1.030	-0.530
2020/01/31 10:13:24.5	294.740	-0.160	-1.040	-0.520
2020/01/31 10:13:24.6	294.760	-0.160	-1.040	-0.500
2020/01/31 10:13:24.7	294.780	-0.170	-1.040	-0.490
2020/01/31 10:13:24.8	294.790	-0.170	-1.040	-0.470
2020/01/31 10:13:24.9	294.800	-0.180	-1.040	-0.450
2020/01/31 10:13:25.0	294.810	-0.180	-1.030	-0.430
2020/01/31 10:13:25.1	294.820	-0.190	-1.030	-0.400
2020/01/31 10:13:25.2	294.830	-0.190	-1.010	-0.380
2020/01/31 10:13:25.3	294.840	-0.190	-1.000	-0.350
2020/01/31 10:13:25.4	294.870	-0.200	-0.980	-0.320
2020/01/31 10:13:25.5	294.870	-0.200	-0.960	-0.290
2020/01/31 10:13:25.6	294.880	-0.200	-0.940	-0.270
2020/01/31 10:13:25.7	294.880	-0.200	-0.920	-0.230
2020/01/31 10:13:25.8	294.880	-0.210	-0.890	-0.200
2020/01/31 10:13:25.9	294.880	-0.210	-0.860	-0.170
2020/01/31 10:13:26.0	294.890	-0.210	-0.830	-0.140
2020/01/31 10:13:26.1	294.890	-0.210	-0.790	-0.110
2020/01/31 10:13:26.2	294.890	-0.210	-0.760	-0.080
2020/01/31 10:13:26.3	294.890	-0.210	-0.720	-0.050
2020/01/31 10:13:26.4	294.890	-0.210	-0.680	-0.010
2020/01/31 10:13:26.5	294.890	-0.210	-0.650	0.020
2020/01/31 10:13:26.6	294.890	-0.210	-0.610	0.050
2020/01/31 10:13:26.7	294.890	-0.210	-0.570	0.090
2020/01/31 10:13:26.8	294.890	-0.210	-0.530	0.120
2020/01/31 10:13:26.9	294.890	-0.200	-0.480	0.150
2020/01/31 10:13:27.0	294.880	-0.200	-0.440	0.190
2020/01/31 10:13:27.1	294.880	-0.200	-0.400	0.220
2020/01/31 10:13:27.2	294.880	-0.190	-0.360	0.260
2020/01/31 10:13:27.3	294.880	-0.190	-0.320	0.290
2020/01/31 10:13:27.4	294.870	-0.180	-0.280	0.330
2020/01/31 10:13:27.5	294.870	-0.180	-0.240	0.370
2020/01/31 10:13:27.6	294.860	-0.170	-0.200	0.400
2020/01/31 10:13:27.7	294.860	-0.160	-0.160	0.440
2020/01/31 10:13:27.8	294.850	-0.160	-0.120	0.470
2020/01/31 10:13:27.9	294.840	-0.150	-0.080	0.510
2020/01/31 10:13:28.0	294.830	-0.140	-0.040	0.540
2020/01/31 10:13:28.1	294.830	-0.140	-0.000	0.580
2020/01/31 10:13:28.2	294.820	-0.130	0.030	0.610
2020/01/31 10:13:28.3	294.810	-0.120	0.070	0.640
2020/01/31 10:13:28.4	294.800	-0.120	0.110	0.670
2020/01/31 10:13:28.5	294.790	-0.110	0.140	0.700
2020/01/31 10:13:28.6	294.780	-0.100	0.180	0.730
2020/01/31 10:13:28.7	294.780	-0.090	0.210	0.760
2020/01/31 10:13:28.8	294.770	-0.090	0.250	0.780
2020/01/31 10:13:28.9	294.760	-0.080	0.280	0.810
2020/01/31 10:13:29.0	294.760	-0.070	0.310	0.830
2020/01/31 10:13:29.1	294.750	-0.070	0.340	0.850
2020/01/31 10:13:29.2	294.750	-0.060	0.370	0.870
2020/01/31 10:13:29.3	294.740	-0.060	0.390	0.880
2020/01/31 10:13:29.4	294.720	-0.050	0.420	0.890
2020/01/31 10:13:29.5	294.720	-0.050	0.440	0.900
2020/01/31 10:13:29.6	294.720	-0.040	0.460	0.910
2020/01/31 10:13:29.7	294.720	-0.040	0.480	0.910
2020/01/31 10:13:29.8	294.720	-0.040	0.490	0.910
2020/01/31 10:13:29.9	294.720	-0.030	0.510	0.920
2020/01/31 10:13:30.0	294.720	-0.030	0.520	0.910
2020/01/31 10:13:30.1	294.720	-0.030	0.530	0.910
2020/01/31 10:13:30.2	294.720	-0.020	0.540	0.900
2020/01/31 10:13:30.3	294.720	-0.020	0.550	0.890
2020/01/31 10:13:30.4	294.720	-0.020	0.550	0.880
2020/01/31 10:13:30.5	294.720	-0.020	0.550	0.870
2020/01/31 10:13:30.6	294.720	-0.020	0.550	0.850
2020/01/31 10:13:30.7	294.720	-0.020	0.550	0.830
2020/01/31 10:13:30.8	294.720	-0.020	0.540	0.820
2020/01/31 10:13:30.9	294.720	-0.010	0.540	0.800
2020/01/31 10:13:31.0	294.720	-0.010	0.530	0.780
2020/01/31 10:13:31.1	294.720	-0.010	0.520	0.760
2020/01/31 10:13:31.2	294.720	-0.010	0.500	0.730
2020/01/31 10:13:31.3	294.720	-0.010	0.490	0.710
2020/01/31 10:13:31.4	294.700	-0.000	0.460	0.690
2020/01/31 10:13:31.5	294.700	0.000	0.450	0.660
2020/01/31 10:13:31.6	294.700	0.010	0.420	0.640
2020/01/31 10:13:31.7	294.700	0.010	0.400	0.620
2020/01/31 10:13:31.8	294.700	0.020	0.370	0.600
2020/01/31 10:13:31.9	294.690	0.030	0.350	0.570
2020/01/31 10:13:32.0	294.690	0.040	0.310	0.550
2020/01/31 10:13:32.1	294.690	0.050	0.280	0.530
2020/01/31 10:13:32.2	294.690	0.060	0.250	0.500
2020/01/31 10:13:32.3	294.680	0.070	0.210	0.480
2020/01/31 10:13:32.4	294.660	0.080	0.170	0.460
2020/01/31 10:13:32.5	294.660	0.090	0.130	0.430
2020/01/31 10:13:32.6	294.660	0.110	0.090	0.410
2020/01/31 10:13:32.7	294.650	0.120	0.040	0.390
2020/01/31 10:13:32.8	294.650	0.140	-0.000	0.360
2020/01/31 10:13:32.9	294.650	0.150	-0.050	0.340
2020/01/31 10:13:33.0	294.650	0.170	-0.100	0.320
2020/01/31 10:13:33.1	294.650	0.180	-0.150	0.290
2020/01/31 10:13:33.2	294.660	0.200	-0.200	0.270
2020/01/31 10:13:33.3	294.660	0.210	-0.250	0.250
2020/01/31 10:13:33.4	294.660	0.230	-0.310	0.230
2020/01/31 10:13:33.5	294.660	0.240	-0.360	0.210
2020/01/31 10:13:33.6	294.670	0.260	-0.410	0.190
2020/01/31 10:13:33.7	294.670	0.270	-0.470	0.170
2020/01/31 10:13:33.8	294.680	0.290	-0.520	0.150
2020/01/31 10:13:33.9	294.680	0.300	-0.570	0.130
2020/01/31 10:13:34.0	294.690	0.310	-0.610	0.110
2020/01/31 10:13:34.1	294.690	0.320	-0.660	0.090
2020/01/31 10:13:34.2	294.700	0.330	-0.700	0.080
2020/01/31 10:13:34.3	294.710	0.340	-0.740	0.060
2020/01/31 10:13:34.4	294.730	0.340	-0.780	0.050
2020/01/31 10:13:34.5	294.740	0.350	-0.810	0.040
2020/01/31 10:13:34.6	294.740	0.350	-0.840	0.020
2020/01/31 10:13:34.7	294.750	0.350	-0.870	0.010
2020/01/31 10:13:34.8	294.760	0.350	-0.890	0.000
2020/01/31 10:13:34.9	294.770	0.340	-0.910	-0.010
2020/01/31 10:13:35.0	294.780	0.340	-0.930	-0.020
2020/01/31 10:13:35.1	294.790	0.330	-0.940	-0.030
2020/01/31 10:13:35.2	294.800	0.320	-0.950	-0.040
2020/01/31 10:13:35.3	294.810	0.310	-0.950	-0.050
2020/01/31 10:13:35.4	294.830	0.300	-0.950	-0.060
2020/01/31 10:13:35.5	294.840	0.280	-0.940	-0.070
2020/01/31 10:13:35.6	294.860	0.260	-0.940	-0.080
2020/01/31 10:13:35.7	294.870	0.250	-0.920	-0.090
2020/01/31 10:13:35.8	294.880	0.230	-0.910	-0.100
2020/01/31 10:13:35.9	294.900	0.210	-0.890	-0.110
2020/01/31 10:13:36.0	294.920	0.180	-0.870	-0.110
2020/01/31 10:13:36.1	294.930	0.160	-0.840	-0.120
2020/01/31 10:13:36.2	294.950	0.140	-0.810	-0.130
2020/01/31 10:13:36.3	294.960	0.110	-0.780	-0.140
2020/01/31 10:13:36.4	294.990	0.090	-0.750	-0.140
2020/01/31 10:13:36.5	295.010	0.060	-0.720	-0.140
2020/01/31 10:13:36.6	295.020	0.040	-0.680	-0.140
2020/01/31 10:13:36.7	295.030	0.010	-0.640	-0.150
2020/01/31 10:13:36.8	295.050	-0.010	-0.600	-0.140
2020/01/31 10:13:36.9	295.060	-0.040	-0.560	-0.140
2020/01/31 10:13:37.0	295.070	-0.060	-0.510	-0.130
2020/01/31 10:13:37.1	295.070	-0.080	-0.470	-0.130
2020/01/31 10:13:37.2	295.080	-0.110	-0.430	-0.110
2020/01/31 10:13:37.3	295.090	-0.130	-0.380	-0.100
2020/01/31 10:13:37.4	295.100	-0.150	-0.340	-0.090
2020/01/31 10:13:37.5	295.100	-0.170	-0.300	-0.070
2020/01/31 10:13:37.6	295.090	-0.190	-0.260	-0.050
2020/01/31 10:13:37.7	295.090	-0.200	-0.220	-0.020
2020/01/31 10:13:37.8	295.090	-0.220	-0.180	0.000
2020/01/31 10:13:37.9	295.080	-0.230	-0.140	0.030
2020/01/31 10:13:38.0	295.070	-0.240	-0.110	0.060
2020/01/31 10:13:38.1	295.060	-0.250	-0.080	0.090
2020/01/31 10:13:38.2	295.050	-0.260	-0.050	0.120
2020/01/31 10:13:38.3	295.030	-0.260	-0.030	0.150
2020/01/31 10:13:38.4	295.030	-0.270	-0.010	0.190
2020/01/31 10:13:38.5	295.010	-0.270	0.000	0.220
2020/01/31 10:13:38.6	295.000	-0.270	0.010	0.250
2020/01/31 10:13:38.7	294.980	-0.270	0.020	0.280
2020/01/31 10:13:38.8	294.960	-0.270	0.020	0.320
2020/01/31 10:13:38.9	294.940	-0.260	0.020	0.350
2020/01/31 10:13:39.0	294.920	-0.260	0.010	0.380
2020/01/31 10:13:39.1	294.900	-0.250	0.000	0.410
2020/01/31 10:13:39.2	294.890	-0.240	-0.010	0.430
2020/01/31 10:13:39.3	294.870	-0.240	-0.030	0.460
2020/01/31 10:13:39.4	294.840	-0.230	-0.050	0.480
2020/01/31 10:13:39.5	294.820	-0.220	-0.070	0.500
2020/01/31 10:13:39.6	294.810	-0.210	-0.100	0.520
2020/01/31 10:13:39.7	294.790	-0.200	-0.130	0.540
2020/01/31 10:13:39.8	294.780	-0.180	-0.160	0.560
2020/01/31 10:13:39.9	294.760	-0.170	-0.190	0.570
2020/01/31 10:13:40.0	294.750	-0.160	-0.210	0.580
2020/01/31 10:13:40.1	294.740	-0.150	-0.240	0.590
2020/01/31 10:13:40.2	294.730	-0.140	-0.270	0.600
2020/01/31 10:13:40.3	294.720	-0.130	-0.300	0.610
2020/01/31 10:13:40.4	294.690	-0.120	-0.320	0.610
2020/01/31 10:13:40.5	294.680	-0.110	-0.350	0.620
2020/01/31 10:13:40.6	294.670	-0.100	-0.370	0.620
2020/01/31 10:13:40.7	294.670	-0.100	-0.380	0.630
2020/01/31 10:13:40.8	294.670	-0.090	-0.400	0.630
2020/01/31 10:13:40.9	294.660	-0.090	-0.400	0.630
2020/01/31 10:13:41.0	294.660	-0.080	-0.410	0.630
2020/01/31 10:13:41.1	294.660	-0.080	-0.410	0.630
2020/01/31 10:13:41.2	294.660	-0.080	-0.400	0.630
2020/01/31 10:13:41.3	294.660	-0.080	-0.390	0.630
2020/01/31 10:13:41.4	294.680	-0.080	-0.380	0.630
2020/01/31 10:13:41.5	294.680	-0.080	-0.360	0.620
2020/01/31 10:13:41.6	294.690	-0.080	-0.330	0.620
2020/01/31 10:13:41.7	294.690	-0.090	-0.310	0.620
2020/01/31 10:13:41.8	294.700	-0.090	-0.270	0.620
2020/01/31 10:13:41.9	294.700	-0.100	-0.240	0.620
2020/01/31 10:13:42.0	294.710	-0.100	-0.200	0.620
2020/01/31 10:13:42.1	294.710	-0.110	-0.160	0.620
2020/01/31 10:13:42.2	294.720	-0.120	-0.110	0.620
2020/01/31 10:13:42.3	294.720	-0.130	-0.060	0.620
2020/01/31 10:13:42.4	294.730	-0.130	-0.020	0.620
2020/01/31 10:13:42.5	294.740	-0.140	0.030	0.630
2020/01/31 10:13:42.6	294.750	-0.150	0.080	0.630
2020/01/31 10:13:42.7	294.750	-0.160	0.130	0.630
2020/01/31 10:13:42.8	294.760	-0.160	0.180	0.640
2020/01/31 10:13:42.9	294.760	-0.170	0.230	0.650
2020/01/31 10:13:43.0	294.770	-0.170	0.280	0.650
2020/01/31 10:13:43.1	294.770	-0.180	0.320	0.660
2020/01/31 10:13:43.2	294.780	-0.180	0.360	0.670
2020/01/31 10:13:43.3	294.780	-0.180	0.390	0.670
2020/01/31 10:13:43.4	294.780	-0.190	0.420	0.680
2020/01/31 10:13:43.5	294.780	-0.190	0.440	0.690
2020/01/31 10:13:43.6	294.790	-0.180	0.460	0.690
2020/01/31 10:13:43.7	294.800	-0.180	0.480	0.700
2020/01/31 10:13:43.8	294.800	-0.180	0.490	0.700
2020/01/31 10:13:43.9	294.810	-0.170	0.490	0.700
2020/01/31 10:13:44.0	294.820	-0.160	0.480	0.710
2020/01/31 10:13:44.1	294.820	-0.150	0.470	0.700
2020/01/31 10:13:44.2	294.830	-0.140	0.450	0.700
2020/01/31 10:13:44.3	294.840	-0.130	0.430	0.700
2020/01/31 10:13:44.4	294.850	-0.120	0.400	0.690
2020/01/31 10:13:44.5	294.860	-0.100	0.360	0.680
2020/01/31 10:13:44.6	294.870	-0.090	0.320	0.670
2020/01/31 10:13:44.7	294.890	-0.070	0.270	0.660
2020/01/31 10:13:44.8	294.900	-0.050	0.220	0.650
2020/01/31 10:13:44.9	294.910	-0.030	0.170	0.630
2020/01/31 10:13:45.0	294.930	-0.010	0.110	0.620
2020/01/31 10:13:45.1	294.940	0.010	0.050	0.600
2020/01/31 10:13:45.2	294.950	0.030	-0.020	0.580
2020/01/31 10:13:45.3	294.970	0.060	-0.080	0.570
2020/01/31 10:13:45.4	294.970	0.080	-0.150	0.550
2020/01/31 10:13:45.5	294.990	0.110	-0.220	0.530
2020/01/31 10:13:45.6	295.010	0.130	-0.280	0.510
2020/01/31 10:13:45.7	295.020	0.160	-0.350	0.490
2020/01/31 10:13:45.8	295.040	0.180	-0.410	0.480
2020/01/31 10:13:45.9	295.050	0.210	-0.470	0.460
2020/01/31 10:13:46.0	295.070	0.230	-0.530	0.440
2020/01/31 10:13:46.1	295.090	0.250	-0.590	0.420
2020/01/31 10:13:46.2	295.100	0.280	-0.640	0.400
2020/01/31 10:13:46.3	295.120	0.300	-0.690	0.390
2020/01/31 10:13:46.4	295.120	0.320	-0.730	0.370
2020/01/31 10:13:46.5	295.140	0.340	-0.770	0.360
2020/01/31 10:13:46.6	295.150	0.350	-0.800	0.340
2020/01/31 10:13:46.7	295.160	0.370	-0.830	0.320
2020/01/31 10:13:46.8	295.170	0.380	-0.860	0.310
2020/01/31 10:13:46.9	295.180	0.390	-0.880	0.300
2020/01/31 10:13:47.0	295.190	0.400	-0.890	0.280
2020/01/31 10:13:47.1	295.190	0.410	-0.900	0.270
2020/01/31 10:13:47.2	295.200	0.420	-0.910	0.250
2020/01/31 10:13:47.3	295.210	0.420	-0.910	0.240
2020/01/31 10:13:47.4	295.240	0.420	-0.900	0.240
2020/01/31 10:13:47.5	295.240	0.420	-0.900	0.230
2020/01/31 10:13:47.6	295.250	0.420	-0.880	0.220
2020/01/31 10:13:47.7	295.250	0.420	-0.870	0.210
2020/01/31 10:13:47.8	295.250	0.410	-0.850	0.200
2020/01/31 10:13:47.9	295.250	0.400	-0.830	0.190
2020/01/31 10:13:48.0	295.250	0.390	-0.810	0.190
2020/01/31 10:13:48.1	295.260	0.380	-0.780	0.180
2020/01/31 10:13:48.2	295.260	0.370	-0.750	0.180
2020/01/31 10:13:48.3	295.260	0.360	-0.720	0.180
2020/01/31 10:13:48.4	295.270	0.340	-0.690	0.180
2020/01/31 10:13:48.5	295.270	0.330	-0.650	0.170
2020/01/31 10:13:48.6	295.270	0.310	-0.620	0.170
2020/01/31 10:13:48.7	295.270	0.290	-0.580	0.170
2020/01/31 10:13:48.8	295.270	0.270	-0.550	0.170
2020/01/31 10:13:48.9	295.270	0.250	-0.510	0.180
2020/01/31 10:13:49.0	295.270	0.230	-0.470	0.180
2020/01/31 10:13:49.1	295.270	0.210	-0.430	0.180
2020/01/31 10:13:49.2	295.260	0.190	-0.400	0.180
2020/01/31 10:13:49.3	295.260	0.170	-0.360	0.190
2020/01/31 10:13:49.4	295.250	0.150	-0.320	0.190
2020/01/31 10:13:49.5	295.240	0.130	-0.280	0.190
2020/01/31 10:13:49.6	295.230	0.110	-0.250	0.200
2020/01/31 10:13:49.7	295.230	0.090	-0.210	0.200
2020/01/31 10:13:49.8	295.220	0.070	-0.170	0.210
2020/01/31 10:13:49.9	295.210	0.050	-0.140	0.220
2020/01/31 10:13:50.0	295.200	0.030	-0.110	0.230
2020/01/31 10:13:50.1	295.190	0.010	-0.070	0.240
2020/01/31 10:13:50.2	295.170	-0.010	-0.040	0.250
2020/01/31 10:13:50.3	295.160	-0.030	-0.010	0.260
2020/01/31 10:13:50.4	295.130	-0.050	0.020	0.270
2020/01/31 10:13:50.5	295.110	-0.060	0.050	0.280
2020/01/31 10:13:50.6	295.100	-0.080	0.080	0.300
2020/01/31 10:13:50.7	295.080	-0.100	0.100	0.310
2020/01/31 10:13:50.8	295.060	-0.110	0.130	0.330
2020/01/31 10:13:50.9	295.050	-0.130	0.150	0.350
2020/01/31 10:13:51.0	295.030	-0.150	0.170	0.360
2020/01/31 10:13:51.1	295.010	-0.160	0.190	0.380
2020/01/31 10:13:51.2	295.000	-0.180	0.210	0.400
2020/01/31 10:13:51.3	294.980	-0.190	0.230	0.410
2020/01/31 10:13:51.4	294.960	-0.200	0.250	0.430
2020/01/31 10:13:51.5	294.940	-0.220	0.260	0.440
2020/01/31 10:13:51.6	294.930	-0.230	0.270	0.460
2020/01/31 10:13:51.7	294.920	-0.240	0.280	0.470
2020/01/31 10:13:51.8	294.910	-0.250	0.290	0.480
2020/01/31 10:13:51.9	294.910	-0.260	0.300	0.500
2020/01/31 10:13:52.0	294.900	-0.270	0.300	0.500
2020/01/31 10:13:52.1	294.900	-0.290	0.300	0.510
2020/01/31 10:13:52.2	294.890	-0.300	0.300	0.520
2020/01/31 10:13:52.3	294.890	-0.300	0.300	0.520
2020/01/31 10:13:52.4	294.890	-0.310	0.290	0.520
2020/01/31 10:13:52.5	294.900	-0.320	0.290	0.520
2020/01/31 10:13:52.6	294.900	-0.330	0.280	0.520
2020/01/31 10:13:52.7	294.910	-0.340	0.260	0.510
2020/01/31 10:13:52.8	294.920	-0.350	0.250	0.500
2020/01/31 10:13:52.9	294.930	-0.350	0.240	0.490
2020/01/31 10:13:53.0	294.940	-0.360	0.220	0.480
2020/01/31 10:13:53.1	294.950	-0.360	0.200	0.470
2020/01/31 10:13:53.2	294.960	-0.370	0.180	0.460
2020/01/31 10:13:53.3	294.980	-0.370	0.150	0.440
2020/01/31 10:13:53.4	295.000	-0.370	0.130	0.420
2020/01/31 10:13:53.5	295.010	-0.370	0.100	0.400
2020/01/31 10:13:53.6	295.030	-0.370	0.070	0.390
2020/01/31 10:13:53.7	295.050	-0.370	0.040	0.370
2020/01/31 10:13:53.8	295.070	-0.370	0.010	0.350
2020/01/31 10:13:53.9	295.090	-0.370	-0.020	0.330
2020/01/31 10:13:54.0	295.110	-0.370	-0.060	0.310
2020/01/31 10:13:54.1	295.130	-0.360	-0.090	0.280
2020/01/31 10:13:54.2	295.150	-0.360	-0.130	0.260
2020/01/31 10:13:54.3	295.180	-0.350	-0.160	0.240
2020/01/31 10:13:54.4	295.190	-0.340	-0.200	0.220
2020/01/31 10:13:54.5	295.210	-0.330	-0.240	0.200
2020/01/31 10:13:54.6	295.230	-0.320	-0.280	0.190
2020/01/31 10:13:54.7	295.250	-0.310	-0.310	0.170
2020/01/31 10:13:54.8	295.270	-0.300	-0.350	0.150
2020/01/31 10:13:54.9	295.290	-0.280	-0.380	0.130
2020/01/31 10:13:55.0	295.310	-0.270	-0.420	0.120
2020/01/31 10:13:55.1	295.330	-0.250	-0.460	0.100
2020/01/31 10:13:55.2	295.350	-0.240	-0.490	0.090
2020/01/31 10:13:55.3	295.370	-0.220	-0.520	0.080
2020/01/31 10:13:55.4	295.390	-0.200	-0.550	0.070
2020/01/31 10:13:55.5	295.400	-0.180	-0.580	0.070
2020/01/31 10:13:55.6	295.420	-0.170	-0.610	0.060
2020/01/31 10:13:55.7	295.430	-0.150	-0.630	0.060
2020/01/31 10:13:55.8	295.450	-0.130	-0.660	0.050
2020/01/31 10:13:55.9	295.460	-0.110	-0.680	0.050
2020/01/31 10:13:56.0	295.470	-0.090	-0.690	0.050
2020/01/31 10:13:56.1	295.490	-0.070	-0.710	0.060
2020/01/31 10:13:56.2	295.500	-0.050	-0.720	0.060
2020/01/31 10:13:56.3	295.510	-0.030	-0.730	0.070
2020/01/31 10:13:56.4	295.530	-0.010	-0.740	0.080
2020/01/31 10:13:56.5	295.540	0.010	-0.740	0.090
2020/01/31 10:13:56.6	295.550	0.030	-0.750	0.100
2020/01/31 10:13:56.7	295.560	0.040	-0.740	0.120
2020/01/31 10:13:56.8	295.560	0.060	-0.740	0.130
2020/01/31 10:13:56.9	295.570	0.080	-0.740	0.150
2020/01/31 10:13:57.0	295.570	0.090	-0.730	0.170
2020/01/31 10:13:57.1	295.570	0.100	-0.720	0.200
2020/01/31 10:13:57.2	295.570	0.120	-0.700	0.220
2020/01/31 10:13:57.3	295.570	0.130	-0.690	0.250
2020/01/31 10:13:57.4	295.580	0.140	-0.670	0.280
2020/01/31 10:13:57.5	295.580	0.150	-0.650	0.310
2020/01/31 10:13:57.6	295.570	0.160	-0.630	0.340
2020/01/31 10:13:57.7	295.560	0.170	-0.610	0.370
2020/01/31 10:13:57.8	295.560	0.180	-0.590	0.400
2020/01/31 10:13:57.9	295.550	0.190	-0.560	0.430
2020/01/31 10:13:58.0	295.540	0.190	-0.540	0.470
2020/01/31 10:13:58.1	295.530	0.200	-0.510	0.500
2020/01/31 10:13:58.2	295.510	0.200	-0.480	0.530
2020/01/31 10:13:58.3	295.500	0.200	-0.460	0.570
2020/01/31 10:13:58.4	295.480	0.210	-0.430	0.600
2020/01/31 10:13:58.5	295.460	0.210	-0.400	0.640
2020/01/31 10:13:58.6	295.450	0.210	-0.380	0.670
2020/01/31 10:13:58.7	295.430	0.210	-0.350	0.700
2020/01/31 10:13:58.8	295.410	0.210	-0.320	0.730
2020/01/31 10:13:58.9	295.400	0.210	-0.300	0.760
2020/01/31 10:13:59.0	295.380	0.210	-0.280	0.790
2020/01/31 10:13:59.1	295.360	0.220	-0.250	0.810
2020/01/31 10:13:59.2	295.340	0.220	-0.230	0.840
2020/01/31 10:13:59.3	295.330	0.220	-0.210	0.860
2020/01/31 10:13:59.4	295.290	0.220	-0.190	0.880
2020/01/31 10:13:59.5	295.280	0.220	-0.180	0.910
2020/01/31 10:13:59.6	295.260	0.210	-0.160	0.930
2020/01/31 10:13:59.7	295.240	0.210	-0.140	0.950
2020/01/31 10:13:59.8	295.220	0.210	-0.130	0.970
2020/01/31 10:13:59.9	295.200	0.210	-0.120	0.980
2020/01/31 10:14:00.0	295.180	0.210	-0.110	0.990
2020/01/31 10:14:00.1	295.160	0.210	-0.100	1.000
2020/01/31 10:14:00.2	295.150	0.210	-0.090	1.010
2020/01/31 10:14:00.3	295.130	0.210	-0.090	1.020
2020/01/31 10:14:00.4	295.100	0.210	-0.090	1.010
2020/01/31 10:14:00.5	295.090	0.200	-0.080	1.010
2020/01/31 10:14:00.6	295.070	0.200	-0.080	1.010
2020/01/31 10:14:00.7	295.060	0.200	-0.080	1.000
2020/01/31 10:14:00.8	295.050	0.190	-0.080	0.980
2020/01/31 10:14:00.9	295.040	0.190	-0.080	0.970
2020/01/31 10:14:01.0	295.030	0.190	-0.080	0.950
2020/01/31 10:14:01.1	295.020	0.180	-0.080	0.930
2020/01/31 10:14:01.2	295.020	0.180	-0.080	0.900
2020/01/31 10:14:01.3	295.010	0.170	-0.080	0.880
2020/01/31 10:14:01.4	295.010	0.170	-0.080	0.850
2020/01/31 10:14:01.5	295.010	0.160	-0.080	0.820
2020/01/31 10:14:01.6	295.010	0.160	-0.080	0.780
2020/01/31 10:14:01.7	295.010	0.150	-0.080	0.750
2020/01/31 10:14:01.8	295.010	0.150	-0.080	0.710
2020/01/31 10:14:01.9	295.020	0.140	-0.070	0.680
2020/01/31 10:14:02.0	295.020	0.140	-0.070	0.640
2020/01/31 10:14:02.1	295.030	0.130	-0.060	0.600
2020/01/31 10:14:02.2	295.040	0.120	-0.060	0.560
2020/01/31 10:14:02.3	295.050	0.120	-0.050	0.530
2020/01/31 10:14:02.4	295.070	0.110	-0.040	0.490
2020/01/31 10:14:02.5	295.080	0.100	-0.030	0.450
2020/01/31 10:14:02.6	295.090	0.100	-0.010	0.410
2020/01/31 10:14:02.7	295.100	0.090	0.000	0.380
2020/01/31 10:14:02.8	295.120	0.090	0.020	0.340
2020/01/31 10:14:02.9	295.130	0.080	0.040	0.300
2020/01/31 10:14:03.0	295.140	0.070	0.060	0.270
2020/01/31 10:14:03.1	295.160	0.070	0.080	0.230
2020/01/31 10:14:03.2	295.170	0.060	0.100	0.200
2020/01/31 10:14:03.3	295.190	0.060	0.120	0.170
2020/01/31 10:14:03.4	295.200	0.050	0.140	0.140
2020/01/31 10:14:03.5	295.210	0.050	0.160	0.110
2020/01/31 10:14:03.6	295.220	0.040	0.180	0.080
2020/01/31 10:14:03.7	295.240	0.040	0.210	0.060
2020/01/31 10:14:03.8	295.250	0.030	0.230	0.030
2020/01/31 10:14:03.9	295.260	0.030	0.240	0.010
2020/01/31 10:14:04.0	295.270	0.030	0.260	-0.010
2020/01/31 10:14:04.1	295.280	0.020	0.280	-0.020
2020/01/31 10:14:04.2	295.290	0.020	0.290	-0.040
2020/01/31 10:14:04.3	295.290	0.010	0.300	-0.050
2020/01/31 10:14:04.4	295.300	0.010	0.310	-0.070
2020/01/31 10:14:04.5	295.300	0.010	0.320	-0.080
2020/01/31 10:14:04.6	295.310	0.000	0.320	-0.080
2020/01/31 10:14:04.7	295.320	0.000	0.320	-0.090
2020/01/31 10:14:04.8	295.320	-0.000	0.320	-0.100
2020/01/31 10:14:04.9	295.320	-0.000	0.310	-0.100
2020/01/31 10:14:05.0	295.330	-0.010	0.300	-0.100
2020/01/31 10:14:05.1	295.330	-0.010	0.280	-0.100
2020/01/31 10:14:05.2	295.330	-0.010	0.260	-0.100
2020/01/31 10:14:05.3	295.330	-0.020	0.240	-0.100
2020/01/31 10:14:05.4	295.340	-0.020	0.210	-0.100
2020/01/31 10:14:05.5	295.340	-0.020	0.180	-0.100
2020/01/31 10:14:05.6	295.340	-0.030	0.150	-0.090
2020/01/31 10:14:05.7	295.340	-0.030	0.110	-0.090
2020/01/31 10:14:05.8	295.340	-0.030	0.070	-0.080
2020/01/31 10:14:05.9	295.330	-0.040	0.020	-0.070
2020/01/31 10:14:06.0	295.330	-0.040	-0.020	-0.070
2020/01/31 10:14:06.1	295.320	-0.050	-0.070	-0.060
2020/01/31 10:14:06.2	295.320	-0.050	-0.120	-0.050
2020/01/31 10:14:06.3	295.320	-0.060	-0.170	-0.040
2020/01/31 10:14:06.4	295.320	-0.060	-0.230	-0.020
2020/01/31 10:14:06.5	295.320	-0.070	-0.280	-0.010
2020/01/31 10:14:06.6	295.310	-0.080	-0.330	0.010
2020/01/31 10:14:06.7	295.310	-0.090	-0.390	0.020
2020/01/31 10:14:06.8	295.300	-0.100	-0.440	0.030
2020/01/31 10:14:06.9	295.290	-0.100	-0.490	0.050
2020/01/31 10:14:07.0	295.290	-0.110	-0.540	0.070
2020/01/31 10:14:07.1	295.280	-0.120	-0.590	0.080
2020/01/31 10:14:07.2	295.270	-0.140	-0.640	0.100
2020/01/31 10:14:07.3	295.270	-0.150	-0.680	0.120
2020/01/31 10:14:07.4	295.280	-0.160	-0.720	0.140
2020/01/31 10:14:07.5	295.270	-0.170	-0.760	0.150
2020/01/31 10:14:07.6	295.260	-0.190	-0.790	0.170
2020/01/31 10:14:07.7	295.260	-0.200	-0.830	0.190
2020/01/31 10:14:07.8	295.250	-0.210	-0.860	0.210
2020/01/31 10:14:07.9	295.250	-0.230	-0.880	0.230
2020/01/31 10:14:08.0	295.240	-0.240	-0.910	0.250
2020/01/31 10:14:08.1	295.230	-0.250	-0.920	0.270
2020/01/31 10:14:08.2	295.230	-0.270	-0.940	0.290
2020/01/31 10:14:08.3	295.220	-0.280	-0.950	0.310
2020/01/31 10:14:08.4	295.210	-0.290	-0.970	0.330
2020/01/31 10:14:08.5	295.210	-0.300	-0.970	0.350
2020/01/31 10:14:08.6	295.200	-0.310	-0.970	0.370
2020/01/31 10:14:08.7	295.190	-0.320	-0.970	0.390
2020/01/31 10:14:08.8	295.190	-0.330	-0.970	0.410
2020/01/31 10:14:08.9	295.180	-0.340	-0.960	0.440
2020/01/31 10:14:09.0	295.170	-0.340	-0.950	0.460
2020/01/31 10:14:09.1	295.170	-0.340	-0.940	0.490
2020/01/31 10:14:09.2	295.160	-0.340	-0.920	0.510
2020/01/31 10:14:09.3	295.150	-0.340	-0.910	0.540
2020/01/31 10:14:09.4	295.160	-0.340	-0.880	0.560
2020/01/31 10:14:09.5	295.150	-0.340	-0.860	0.590
2020/01/31 10:14:09.6	295.140	-0.330	-0.840	0.610
2020/01/31 10:14:09.7	295.130	-0.320	-0.810	0.640
2020/01/31 10:14:09.8	295.120	-0.320	-0.780	0.660
2020/01/31 10:14:09.9	295.110	-0.300	-0.750	0.690
2020/01/31 10:14:10.0	295.100	-0.290	-0.720	0.710
2020/01/31 10:14:10.1	295.090	-0.280	-0.690	0.740
2020/01/31 10:14:10.2	295.080	-0.260	-0.660	0.760
2020/01/31 10:14:10.3	295.070	-0.240	-0.630	0.780
2020/01/31 10:14:10.4	295.050	-0.220	-0.600	0.810
2020/01/31 10:14:10.5	295.040	-0.200	-0.570	0.830
2020/01/31 10:14:10.6	295.030	-0.180	-0.540	0.850
2020/01/31 10:14:10.7	295.020	-0.160	-0.510	0.870
2020/01/31 10:14:10.8	295.020	-0.140	-0.470	0.880
2020/01/31 10:14:10.9	295.010	-0.110	-0.440	0.900
2020/01/31 10:14:11.0	295.010	-0.090	-0.420	0.910
2020/01/31 10:14:11.1	295.010	-0.060	-0.390	0.920
2020/01/31 10:14:11.2	295.010	-0.040	-0.360	0.930
2020/01/31 10:14:11.3	295.010	-0.010	-0.330	0.940
2020/01/31 10:14:11.4	294.990	0.010	-0.310	0.940
2020/01/31 10:14:11.5	294.990	0.030	-0.280	0.950
2020/01/31 10:14:11.6	295.000	0.060	-0.250	0.950
2020/01/31 10:14:11.7	295.000	0.080	-0.230	0.950
2020/01/31 10:14:11.8	295.010	0.100	-0.200	0.950
2020/01/31 10:14:11.9	295.010	0.120	-0.180	0.950
2020/01/31 10:14:12.0	295.020	0.140	-0.150	0.950
2020/01/31 10:14:12.1	295.030	0.160	-0.130	0.940
2020/01/31 10:14:12.2	295.040	0.170	-0.100	0.940
2020/01/31 10:14:12.3	295.050	0.180	-0.080	0.930
2020/01/31 10:14:12.4	295.030	0.200	-0.050	0.930
2020/01/31 10:14:12.5	295.040	0.210	-0.030	0.920
2020/01/31 10:14:12.6	295.050	0.210	-0.000	0.910
2020/01/31 10:14:12.7	295.060	0.220	0.020	0.900
2020/01/31 10:14:12.8	295.070	0.220	0.050	0.890
2020/01/31 10:14:12.9	295.080	0.230	0.070	0.880
2020/01/31 10:14:13.0	295.090	0.230	0.100	0.870
2020/01/31 10:14:13.1	295.100	0.220	0.120	0.860
2020/01/31 10:14:13.2	295.120	0.220	0.140	0.840
2020/01/31 10:14:13.3	295.130	0.210	0.170	0.830
2020/01/31 10:14:13.4	295.130	0.210	0.190	0.820
2020/01/31 10:14:13.5	295.140	0.200	0.220	0.800
2020/01/31 10:14:13.6	295.150	0.190	0.240	0.780
2020/01/31 10:14:13.7	295.170	0.180	0.260	0.770
2020/01/31 10:14:13.8	295.180	0.160	0.290	0.750
2020/01/31 10:14:13.9	295.190	0.150	0.310	0.730
2020/01/31 10:14:14.0	295.200	0.140	0.330	0.710
2020/01/31 10:14:14.1	295.210	0.120	0.350	0.690
2020/01/31 10:14:14.2	295.230	0.110	0.380	0.670
2020/01/31 10:14:14.3	295.240	0.090	0.400	0.650
2020/01/31 10:14:14.4	295.250	0.080	0.420	0.630
2020/01/31 10:14:14.5	295.260	0.060	0.440	0.610
2020/01/31 10:14:14.6	295.270	0.050	0.460	0.590
2020/01/31 10:14:14.7	295.280	0.030	0.470	0.570
2020/01/31 10:14:14.8	295.290	0.020	0.490	0.550
2020/01/31 10:14:14.9	295.300	0.010	0.500	0.530
2020/01/31 10:14:15.0	295.310	-0.000	0.520	0.510
2020/01/31 10:14:15.1	295.320	-0.010	0.530	0.490
2020/01/31 10:14:15.2	295.330	-0.020	0.540	0.470
2020/01/31 10:14:15.3	295.340	-0.030	0.540	0.450
2020/01/31 10:14:15.4	295.330	-0.040	0.550	0.430
2020/01/31 10:14:15.5	295.340	-0.040	0.550	0.400
2020/01/31 10:14:15.6	295.350	-0.040	0.540	0.380
2020/01/31 10:14:15.7	295.360	-0.040	0.540	0.360
2020/01/31 10:14:15.8	295.370	-0.040	0.530	0.340
2020/01/31 10:14:15.9	295.380	-0.040	0.510	0.310
2020/01/31 10:14:16.0	295.390	-0.040	0.490	0.290
2020/01/31 10:14:16.1	295.390	-0.030	0.470	0.270
2020/01/31 10:14:16.2	295.400	-0.020	0.440	0.240
2020/01/31 10:14:16.3	295.410	-0.010	0.420	0.220
2020/01/31 10:14:16.4	295.420	0.000	0.380	0.200
2020/01/31 10:14:16.5	295.430	0.010	0.340	0.180
2020/01/31 10:14:16.6	295.440	0.030	0.300	0.150
2020/01/31 10:14:16.7	295.440	0.050	0.260	0.130
2020/01/31 10:14:16.8	295.450	0.060	0.210	0.110
2020/01/31 10:14:16.9	295.450	0.080	0.160	0.090
2020/01/31 10:14:17.0	295.460	0.100	0.110	0.070
2020/01/31 10:14:17.1	295.460	0.120	0.060	0.050
2020/01/31 10:14:17.2	295.460	0.140	-0.000	0.030
2020/01/31 10:14:17.3	295.460	0.170	-0.060	0.010
2020/01/31 10:14:17.4	295.490	0.190	-0.120	-0.000
2020/01/31 10:14:17.5	295.480	0.210	-0.180	-0.020
2020/01/31 10:14:17.6	295.480	0.240	-0.240	-0.030
2020/01/31 10:14:17.7	295.480	0.260	-0.300	-0.040
2020/01/31 10:14:17.8	295.480	0.280	-0.360	-0.050
2020/01/31 10:14:17.9	295.480	0.300	-0.420	-0.060
2020/01/31 10:14:18.0	295.480	0.320	-0.480	-0.070
2020/01/31 10:14:18.1	295.470	0.340	-0.540	-0.080
2020/01/31 10:14:18.2	295.470	0.360	-0.600	-0.080
2020/01/31 10:14:18.3	295.460	0.380	-0.650	-0.080
2020/01/31 10:14:18.4	295.490	0.390	-0.700	-0.080
2020/01/31 10:14:18.5	295.480	0.410	-0.750	-0.080
2020/01/31 10:14:18.6	295.480	0.420	-0.800	-0.070
2020/01/31 10:14:18.7	295.470	0.430	-0.850	-0.060
2020/01/31 10:14:18.8	295.460	0.430	-0.890	-0.060
2020/01/31 10:14:18.9	295.450	0.440	-0.930	-0.050
2020/01/31 10:14:19.0	295.440	0.440	-0.960	-0.040
2020/01/31 10:14:19.1	295.430	0.440	-1.000	-0.020
2020/01/31 10:14:19.2	295.410	0.440	-1.030	-0.010
2020/01/31 10:14:19.3	295.400	0.440	-1.060	0.000
2020/01/31 10:14:19.4	295.410	0.430	-1.080	0.020
2020/01/31 10:14:19.5	295.400	0.420	-1.100	0.030
2020/01/31 10:14:19.6	295.390	0.410	-1.120	0.040
2020/01/31 10:14:19.7	295.380	0.400	-1.140	0.060
2020/01/31 10:14:19.8	295.370	0.380	-1.150	0.070
2020/01/31 10:14:19.9	295.360	0.360	-1.160	0.080
2020/01/31 10:14:20.0	295.340	0.350	-1.170	0.100
2020/01/31 10:14:20.1	295.340	0.320	-1.170	0.110
2020/01/31 10:14:20.2	295.330	0.300	-1.170	0.120
2020/01/31 10:14:20.3	295.320	0.280	-1.170	0.130
2020/01/31 10:14:20.4	295.320	0.250	-1.160	0.140
2020/01/31 10:14:20.5	295.320	0.230	-1.150	0.160
2020/01/31 10:14:20.6	295.310	0.200	-1.140	0.160
2020/01/31 10:14:20.7	295.300	0.170	-1.130	0.170
2020/01/31 10:14:20.8	295.300	0.140	-1.110	0.180
2020/01/31 10:14:20.9	295.290	0.110	-1.090	0.190
2020/01/31 10:14:21.0	295.290	0.080	-1.060	0.200
2020/01/31 10:14:21.1	295.290	0.050	-1.040	0.200
2020/01/31 10:14:21.2	295.290	0.020	-1.010	0.210
2020/01/31 10:14:21.3	295.280	-0.020	-0.970	0.210
2020/01/31 10:14:21.4	295.290	-0.050	-0.940	0.220
2020/01/31 10:14:21.5	295.290	-0.080	-0.900	0.220
2020/01/31 10:14:21.6	295.290	-0.110	-0.870	0.220
2020/01/31 10:14:21.7	295.290	-0.140	-0.820	0.230
2020/01/31 10:14:21.8	295.290	-0.170	-0.780	0.230
2020/01/31 10:14:21.9	295.290	-0.210	-0.730	0.230
2020/01/31 10:14:22.0	295.290	-0.240	-0.680	0.240
2020/01/31 10:14:22.1	295.290	-0.260	-0.630	0.240
2020/01/31 10:14:22.2	295.290	-0.290	-0.580	0.240
2020/01/31 10:14:22.3	295.300	-0.320	-0.530	0.250
2020/01/31 10:14:22.4	295.290	-0.340	-0.480	0.250
2020/01/31 10:14:22.5	295.290	-0.370	-0.420	0.250
2020/01/31 10:14:22.6	295.300	-0.390	-0.370	0.250
2020/01/31 10:14:22.7	295.300	-0.410	-0.310	0.250
2020/01/31 10:14:22.8	295.300	-0.430	-0.250	0.260
2020/01/31 10:14:22.9	295.300	-0.450	-0.190	0.260
2020/01/31 10:14:23.0	295.300	-0.470	-0.140	0.270
2020/01/31 10:14:23.1	295.290	-0.490	-0.080	0.270
2020/01/31 10:14:23.2	295.290	-0.500	-0.020	0.270
2020/01/31 10:14:23.3	295.290	-0.510	0.040	0.280
2020/01/31 10:14:23.4	295.280	-0.520	0.090	0.290
2020/01/31 10:14:23.5	295.280	-0.530	0.150	0.290
2020/01/31 10:14:23.6	295.280	-0.540	0.210	0.290
2020/01/31 10:14:23.7	295.270	-0.550	0.260	0.300
2020/01/31 10:14:23.8	295.270	-0.550	0.310	0.300
2020/01/31 10:14:23.9	295.270	-0.550	0.360	0.300
2020/01/31 10:14:24.0	295.260	-0.550	0.410	0.300
2020/01/31 10:14:24.1	295.260	-0.550	0.460	0.300
2020/01/31 10:14:24.2	295.250	-0.550	0.500	0.300
2020/01/31 10:14:24.3	295.250	-0.550	0.540	0.300
2020/01/31 10:14:24.4	295.230	-0.540	0.580	0.300
2020/01/31 10:14:24.5	295.220	-0.540	0.610	0.290
2020/01/31 10:14:24.6	295.220	-0.530	0.640	0.290
2020/01/31 10:14:24.7	295.220	-0.520	0.670	0.280
2020/01/31 10:14:24.8	295.220	-0.510	0.690	0.280
2020/01/31 10:14:24.9	295.220	-0.500	0.710	0.270
2020/01/31 10:14:25.0	295.210	-0.490	0.720	0.260
2020/01/31 10:14:25.1	295.210	-0.470	0.730	0.250
2020/01/31 10:14:25.2	295.220	-0.460	0.740	0.240
2020/01/31 10:14:25.3	295.220	-0.440	0.740	0.230
2020/01/31 10:14:25.4	295.220	-0.420	0.740	0.220
2020/01/31 10:14:25.5	295.220	-0.400	0.730	0.210
2020/01/31 10:14:25.6	295.220	-0.380	0.720	0.200
2020/01/31 10:14:25.7	295.230	-0.360	0.710	0.190
2020/01/31 10:14:25.8	295.230	-0.340	0.690	0.180
2020/01/31 10:14:25.9	295.230	-0.310	0.670	0.170
2020/01/31 10:14:26.0	295.240	-0.290	0.650	0.160
2020/01/31 10:14:26.1	295.240	-0.270	0.630	0.150
2020/01/31 10:14:26.2	295.250	-0.240	0.600	0.140
2020/01/31 10:14:26.3	295.250	-0.210	0.570	0.130
2020/01/31 10:14:26.4	295.260	-0.190	0.540	0.120
2020/01/31 10:14:26.5	295.260	-0.160	0.500	0.110
2020/01/31 10:14:26.6	295.270	-0.140	0.470	0.100
2020/01/31 10:14:26.7	295.280	-0.110	0.430	0.090
2020/01/31 10:14:26.8	295.280	-0.090	0.390	0.080
2020/01/31 10:14:26.9	295.290	-0.060	0.350	0.070
2020/01/31 10:14:27.0	295.290	-0.030	0.310	0.070
2020/01/31 10:14:27.1	295.300	-0.010	0.270	0.060
2020/01/31 10:14:27.2	295.310	0.020	0.220	0.060
2020/01/31 10:14:27.3	295.310	0.040	0.180	0.050
2020/01/31 10:14:27.4	295.320	0.060	0.140	0.050
2020/01/31 10:14:27.5	295.330	0.080	0.090	0.050
2020/01/31 10:14:27.6	295.330	0.110	0.050	0.050
2020/01/31 10:14:27.7	295.340	0.130	0.000	0.050
2020/01/31 10:14:27.8	295.340	0.150	-0.050	0.050
2020/01/31 10:14:27.9	295.340	0.170	-0.090	0.050
2020/01/31 10:14:28.0	295.350	0.180	-0.140	0.050
2020/01/31 10:14:28.1	295.350	0.200	-0.180	0.050
2020/01/31 10:14:28.2	295.350	0.220	-0.230	0.060
2020/01/31 10:14:28.3	295.360	0.230	-0.270	0.060
2020/01/31 10:14:28.4	295.350	0.250	-0.320	0.060
2020/01/31 10:14:28.5	295.360	0.260	-0.360	0.070
2020/01/31 10:14:28.6	295.360	0.270	-0.410	0.070
2020/01/31 10:14:28.7	295.360	0.280	-0.450	0.070
2020/01/31 10:14:28.8	295.360	0.290	-0.490	0.080
2020/01/31 10:14:28.9	295.370	0.300	-0.540	0.080
2020/01/31 10:14:29.0	295.370	0.310	-0.580	0.080
2020/01/31 10:14:29.1	295.370	0.320	-0.620	0.090
2020/01/31 10:14:29.2	295.380	0.330	-0.660	0.090
2020/01/31 10:14:29.3	295.380	0.330	-0.700	0.090
2020/01/31 10:14:29.4	295.380	0.340	-0.730	0.090
2020/01/31 10:14:29.5	295.390	0.340	-0.770	0.090
2020/01/31 10:14:29.6	295.390	0.340	-0.800	0.090
2020/01/31 10:14:29.7	295.400	0.350	-0.840	0.090
2020/01/31 10:14:29.8	295.400	0.350	-0.870	0.090
2020/01/31 10:14:29.9	295.400	0.350	-0.890	0.090
2020/01/31 10:14:30.0	295.410	0.350	-0.920	0.090
2020/01/31 10:14:30.1	295.410	0.350	-0.940	0.090
2020/01/31 10:14:30.2	295.410	0.350	-0.960	0.100
2020/01/31 10:14:30.3	295.420	0.350	-0.980	0.100
2020/01/31 10:14:30.4	295.420	0.350	-0.990	0.100
2020/01/31 10:14:30.5	295.420	0.350	-1.010	0.110
2020/01/31 10:14:30.6	295.420	0.350	-1.010	0.120
2020/01/31 10:14:30.7	295.420	0.350	-1.020	0.130
2020/01/31 10:14:30.8	295.420	0.350	-1.020	0.140
2020/01/31 10:14:30.9	295.410	0.350	-1.020	0.150
2020/01/31 10:14:31.0	295.410	0.340	-1.010	0.160
2020/01/31 10:14:31.1	295.400	0.340	-1.010	0.180
2020/01/31 10:14:31.2	295.390	0.340	-0.990	0.200
2020/01/31 10:14:31.3	295.380	0.340	-0.980	0.220
2020/01/31 10:14:31.4	295.360	0.330	-0.960	0.240
2020/01/31 10:14:31.5	295.350	0.330	-0.950	0.270
2020/01/31 10:14:31.6	295.340	0.330	-0.930	0.290
2020/01/31 10:14:31.7	295.330	0.320	-0.900	0.320
2020/01/31 10:14:31.8	295.320	0.320	-0.880	0.340
2020/01/31 10:14:31.9	295.300	0.320	-0.850	0.370
2020/01/31 10:14:32.0	295.290	0.310	-0.830	0.400
2020/01/31 10:14:32.1	295.270	0.310	-0.800	0.420
2020/01/31 10:14:32.2	295.260	0.300	-0.770	0.450
2020/01/31 10:14:32.3	295.250	0.300	-0.740	0.480
2020/01/31 10:14:32.4	295.250	0.290	-0.710	0.500
2020/01/31 10:14:32.5	295.230	0.290	-0.680	0.530
2020/01/31 10:14:32.6	295.220	0.280	-0.650	0.550
2020/01/31 10:14:32.7	295.210	0.280	-0.630	0.570
2020/01/31 10:14:32.8	295.200	0.270	-0.600	0.590
2020/01/31 10:14:32.9	295.190	0.260	-0.570	0.610
2020/01/31 10:14:33.0	295.170	0.260	-0.540	0.630
2020/01/31 10:14:33.1	295.160	0.250	-0.520	0.640
2020/01/31 10:14:33.2	295.150	0.240	-0.490	0.660
2020/01/31 10:14:33.3	295.140	0.230	-0.460	0.670
2020/01/31 10:14:33.4	295.120	0.220	-0.440	0.680
2020/01/31 10:14:33.5	295.110	0.210	-0.410	0.690
2020/01/31 10:14:33.6	295.100	0.200	-0.380	0.700
2020/01/31 10:14:33.7	295.090	0.180	-0.360	0.700
2020/01/31 10:14:33.8	295.080	0.170	-0.330	0.710
2020/01/31 10:14:33.9	295.070	0.150	-0.300	0.710
2020/01/31 10:14:34.0	295.060	0.140	-0.280	0.710
2020/01/31 10:14:34.1	295.050	0.120	-0.250	0.710
2020/01/31 10:14:34.2	295.040	0.100	-0.220	0.710
2020/01/31 10:14:34.3	295.030	0.080	-0.190	0.700
2020/01/31 10:14:34.4	295.000	0.060	-0.160	0.700
2020/01/31 10:14:34.5	294.990	0.040	-0.130	0.690
2020/01/31 10:14:34.6	294.980	0.020	-0.100	0.680
2020/01/31 10:14:34.7	294.980	-0.010	-0.070	0.670
2020/01/31 10:14:34.8	294.970	-0.030	-0.040	0.660
2020/01/31 10:14:34.9	294.960	-0.060	-0.010	0.640
2020/01/31 10:14:35.0	294.960	-0.080	0.020	0.620
2020/01/31 10:14:35.1	294.960	-0.110	0.050	0.600
2020/01/31 10:14:35.2	294.950	-0.130	0.080	0.580
2020/01/31 10:14:35.3	294.950	-0.160	0.110	0.560
2020/01/31 10:14:35.4	294.940	-0.180	0.140	0.530
2020/01/31 10:14:35.5	294.950	-0.210	0.170	0.510
2020/01/31 10:14:35.6	294.950	-0.230	0.200	0.480
2020/01/31 10:14:35.7	294.960	-0.260	0.230	0.450
2020/01/31 10:14:35.8	294.960	-0.280	0.260	0.420
2020/01/31 10:14:35.9	294.970	-0.310	0.290	0.390
2020/01/31 10:14:36.0	294.980	-0.330	0.310	0.360
2020/01/31 10:14:36.1	294.990	-0.350	0.340	0.330
2020/01/31 10:14:36.2	295.000	-0.370	0.370	0.300
2020/01/31 10:14:36.3	295.010	-0.390	0.390	0.280
2020/01/31 10:14:36.4	295.030	-0.410	0.420	0.250
2020/01/31 10:14:36.5	295.040	-0.420	0.440	0.220
2020/01/31 10:14:36.6	295.060	-0.440	0.460	0.200
2020/01/31 10:14:36.7	295.070	-0.450	0.490	0.180
2020/01/31 10:14:36.8	295.080	-0.460	0.500	0.160
2020/01/31 10:14:36.9	295.100	-0.470	0.520	0.140
2020/01/31 10:14:37.0	295.110	-0.480	0.540	0.120
2020/01/31 10:14:37.1	295.130	-0.480	0.550	0.110
2020/01/31 10:14:37.2	295.140	-0.480	0.560	0.100
2020/01/31 10:14:37.3	295.160	-0.490	0.570	0.090
2020/01/31 10:14:37.4	295.160	-0.480	0.560	0.080
2020/01/31 10:14:37.5	295.170	-0.480	0.570	0.070
2020/01/31 10:14:37.6	295.190	-0.480	0.560	0.070
2020/01/31 10:14:37.7	295.200	-0.470	0.560	0.070
2020/01/31 10:14:37.8	295.220	-0.460	0.550	0.060
2020/01/31 10:14:37.9	295.230	-0.450	0.530	0.070
2020/01/31 10:14:38.0	295.240	-0.440	0.520	0.070
2020/01/31 10:14:38.1	295.250	-0.420	0.500	0.070
2020/01/31 10:14:38.2	295.270	-0.410	0.480	0.070
2020/01/31 10:14:38.3	295.280	-0.390	0.450	0.080
2020/01/31 10:14:38.4	295.310	-0.370	0.420	0.090
2020/01/31 10:14:38.5	295.320	-0.350	0.390	0.090
2020/01/31 10:14:38.6	295.330	-0.330	0.350	0.100
2020/01/31 10:14:38.7	295.340	-0.310	0.320	0.100
2020/01/31 10:14:38.8	295.350	-0.290	0.270	0.110
2020/01/31 10:14:38.9	295.360	-0.260	0.230	0.120
2020/01/31 10:14:39.0	295.370	-0.240	0.190	0.130
2020/01/31 10:14:39.1	295.380	-0.220	0.140	0.130
2020/01/31 10:14:39.2	295.390	-0.190	0.100	0.140
2020/01/31 10:14:39.3	295.400	-0.170	0.050	0.150
2020/01/31 10:14:39.4	295.410	-0.140	-0.000	0.160
2020/01/31 10:14:39.5	295.420	-0.120	-0.050	0.170
2020/01/31 10:14:39.6	295.430	-0.090	-0.100	0.180
2020/01/31 10:14:39.7	295.430	-0.070	-0.140	0.200
2020/01/31 10:14:39.8	295.440	-0.040	-0.190	0.210
2020/01/31 10:14:39.9	295.440	-0.020	-0.230	0.230
2020/01/31 10:14:40.0	295.450	0.000	-0.270	0.250
2020/01/31 10:14:40.1	295.450	0.030	-0.310	0.270
2020/01/31 10:14:40.2	295.450	0.050	-0.350	0.290
2020/01/31 10:14:40.3	295.450	0.070	-0.390	0.310
2020/01/31 10:14:40.4	295.460	0.090	-0.420	0.340
2020/01/31 10:14:40.5	295.450	0.110	-0.450	0.370
2020/01/31 10:14:40.6	295.450	0.130	-0.480	0.400
2020/01/31 10:14:40.7	295.450	0.150	-0.500	0.430
2020/01/31 10:14:40.8	295.440	0.170	-0.530	0.460
2020/01/31 10:14:40.9	295.430	0.180	-0.550	0.490
2020/01/31 10:14:41.0	295.420	0.200	-0.570	0.530
2020/01/31 10:14:41.1	295.410	0.210	-0.590	0.560
2020/01/31 10:14:41.2	295.400	0.230	-0.600	0.590
2020/01/31 10:14:41.3	295.390	0.240	-0.620	0.630
2020/01/31 10:14:41.4	295.360	0.250	-0.630	0.660
2020/01/31 10:14:41.5	295.350	0.260	-0.640	0.690
2020/01/31 10:14:41.6	295.340	0.270	-0.650	0.720
2020/01/31 10:14:41.7	295.320	0.280	-0.660	0.750
2020/01/31 10:14:41.8	295.310	0.290	-0.670	0.780
2020/01/31 10:14:41.9	295.290	0.300	-0.680	0.810
2020/01/31 10:14:42.0	295.270	0.310	-0.680	0.840
2020/01/31 10:14:42.1	295.260	0.310	-0.690	0.860
2020/01/31 10:14:42.2	295.240	0.320	-0.690	0.890
2020/01/31 10:14:42.3	295.230	0.320	-0.700	0.910
2020/01/31 10:14:42.4	295.200	0.330	-0.710	0.930
2020/01/31 10:14:42.5	295.180	0.330	-0.710	0.940
2020/01/31 10:14:42.6	295.170	0.340	-0.720	0.960
2020/01/31 10:14:42.7	295.150	0.340	-0.730	0.970
2020/01/31 10:14:42.8	295.140	0.340	-0.730	0.970
2020/01/31 10:14:42.9	295.130	0.340	-0.740	0.980
2020/01/31 10:14:43.0	295.120	0.340	-0.750	0.980
2020/01/31 10:14:43.1	295.110	0.340	-0.760	0.980
2020/01/31 10:14:43.2	295.100	0.340	-0.770	0.970
2020/01/31 10:14:43.3	295.090	0.340	-0.780	0.960
2020/01/31 10:14:43.4	295.080	0.340	-0.790	0.950
2020/01/31 10:14:43.5	295.070	0.340	-0.800	0.930
2020/01/31 10:14:43.6	295.070	0.330	-0.810	0.910
2020/01/31 10:14:43.7	295.070	0.330	-0.820	0.890
2020/01/31 10:14:43.8	295.060	0.320	-0.830	0.860
2020/01/31 10:14:43.9	295.070	0.320	-0.840	0.840
2020/01/31 10:14:44.0	295.070	0.310	-0.850	0.800
2020/01/31 10:14:44.1	295.070	0.310	-0.860	0.770
2020/01/31 10:14:44.2	295.080	0.300	-0.870	0.740
2020/01/31 10:14:44.3	295.080	0.290	-0.870	0.700
2020/01/31 10:14:44.4	295.090	0.280	-0.880	0.660
2020/01/31 10:14:44.5	295.100	0.270	-0.880	0.620
2020/01/31 10:14:44.6	295.110	0.260	-0.880	0.580
2020/01/31 10:14:44.7	295.120	0.250	-0.880	0.540
2020/01/31 10:14:44.8	295.130	0.240	-0.870	0.500
2020/01/31 10:14:44.9	295.150	0.230	-0.860	0.460
2020/01/31 10:14:45.0	295.170	0.220	-0.850	0.420
2020/01/31 10:14:45.1	295.180	0.200	-0.840	0.390
2020/01/31 10:14:45.2	295.200	0.190	-0.820	0.350
2020/01/31 10:14:45.3	295.220	0.180	-0.800	0.310
2020/01/31 10:14:45.4	295.250	0.160	-0.790	0.280
2020/01/31 10:14:45.5	295.270	0.150	-0.760	0.240
2020/01/31 10:14:45.6	295.290	0.140	-0.730	0.210
2020/01/31 10:14:45.7	295.310	0.120	-0.700	0.170
2020/01/31 10:14:45.8	295.340	0.110	-0.670	0.140
2020/01/31 10:14:45.9	295.360	0.090	-0.640	0.110
2020/01/31 10:14:46.0	295.380	0.080	-0.600	0.090
2020/01/31 10:14:46.1	295.410	0.060	-0.560	0.060
2020/01/31 10:14:46.2	295.430	0.040	-0.520	0.030
2020/01/31 10:14:46.3	295.450	0.030	-0.480	0.010
2020/01/31 10:14:46.4	295.480	0.010	-0.440	-0.010
2020/01/31 10:14:46.5	295.510	-0.000	-0.400	-0.030
2020/01/31 10:14:46.6	295.530	-0.020	-0.350	-0.050
2020/01/31 10:14:46.7	295.550	-0.030	-0.310	-0.060
2020/01/31 10:14:46.8	295.570	-0.050	-0.260	-0.080
2020/01/31 10:14:46.9	295.600	-0.060	-0.220	-0.090
2020/01/31 10:14:47.0	295.620	-0.070	-0.170	-0.100
2020/01/31 10:14:47.1	295.640	-0.090	-0.120	-0.110
2020/01/31 10:14:47.2	295.660	-0.100	-0.080	-0.120
2020/01/31 10:14:47.3	295.680	-0.110	-0.030	-0.130
2020/01/31 10:14:47.4	295.700	-0.130	0.010	-0.140
2020/01/31 10:14:47.5	295.720	-0.140	0.060	-0.150
2020/01/31 10:14:47.6	295.740	-0.150	0.100	-0.150
2020/01/31 10:14:47.7	295.760	-0.160	0.150	-0.150
2020/01/31 10:14:47.8	295.770	-0.170	0.190	-0.160
2020/01/31 10:14:47.9	295.790	-0.180	0.230	-0.160
2020/01/31 10:14:48.0	295.800	-0.180	0.280	-0.150
2020/01/31 10:14:48.1	295.810	-0.190	0.320	-0.150
2020/01/31 10:14:48.2	295.830	-0.200	0.360	-0.140
2020/01/31 10:14:48.3	295.840	-0.200	0.400	-0.140
2020/01/31 10:14:48.4	295.850	-0.210	0.440	-0.120
2020/01/31 10:14:48.5	295.860	-0.210	0.470	-0.110
2020/01/31 10:14:48.6	295.860	-0.210	0.510	-0.100
2020/01/31 10:14:48.7	295.870	-0.220	0.550	-0.080
2020/01/31 10:14:48.8	295.870	-0.220	0.580	-0.070
2020/01/31 10:14:48.9	295.870	-0.220	0.610	-0.050
2020/01/31 10:14:49.0	295.870	-0.220	0.650	-0.030
2020/01/31 10:14:49.1	295.870	-0.220	0.680	-0.010
2020/01/31 10:14:49.2	295.870	-0.220	0.700	0.020
2020/01/31 10:14:49.3	295.870	-0.220	0.730	0.040
2020/01/31 10:14:49.4	295.850	-0.220	0.750	0.070
2020/01/31 10:14:49.5	295.850	-0.220	0.770	0.090
2020/01/31 10:14:49.6	295.840	-0.220	0.790	0.120
2020/01/31 10:14:49.7	295.830	-0.210	0.810	0.150
2020/01/31 10:14:49.8	295.820	-0.210	0.820	0.170
2020/01/31 10:14:49.9	295.810	-0.210	0.840	0.200
2020/01/31 10:14:50.0	295.790	-0.210	0.840	0.230
2020/01/31 10:14:50.1	295.780	-0.200	0.850	0.250
2020/01/31 10:14:50.2	295.760	-0.200	0.850	0.280
2020/01/31 10:14:50.3	295.740	-0.190	0.850	0.300
2020/01/31 10:14:50.4	295.710	-0.190	0.840	0.320
2020/01/31 10:14:50.5	295.690	-0.180	0.840	0.340
2020/01/31 10:14:50.6	295.670	-0.180	0.820	0.370
2020/01/31 10:14:50.7	295.640	-0.170	0.810	0.390
2020/01/31 10:14:50.8	295.620	-0.160	0.790	0.410
2020/01/31 10:14:50.9	295.600	-0.150	0.770	0.430
2020/01/31 10:14:51.0	295.570	-0.140	0.740	0.450
2020/01/31 10:14:51.1	295.550	-0.130	0.710	0.470
2020/01/31 10:14:51.2	295.520	-0.120	0.680	0.490
2020/01/31 10:14:51.3	295.490	-0.110	0.640	0.510
2020/01/31 10:14:51.4	295.460	-0.100	0.610	0.520
2020/01/31 10:14:51.5	295.430	-0.080	0.560	0.540
2020/01/31 10:14:51.6	295.410	-0.070	0.510	0.560
2020/01/31 10:14:51.7	295.380	-0.050	0.460	0.570
2020/01/31 10:14:51.8	295.350	-0.030	0.410	0.580
2020/01/31 10:14:51.9	295.320	-0.020	0.350	0.600
2020/01/31 10:14:52.0	295.300	0.000	0.280	0.610
2020/01/31 10:14:52.1	295.270	0.020	0.210	0.620
2020/01/31 10:14:52.2	295.250	0.040	0.140	0.620
2020/01/31 10:14:52.3	295.230	0.060	0.070	0.630
2020/01/31 10:14:52.4	295.210	0.080	-0.020	0.640
2020/01/31 10:14:52.5	295.190	0.100	-0.100	0.640
2020/01/31 10:14:52.6	295.170	0.120	-0.180	0.640
2020/01/31 10:14:52.7	295.150	0.140	-0.270	0.630
2020/01/31 10:14:52.8	295.130	0.160	-0.350	0.630
2020/01/31 10:14:52.9	295.120	0.180	-0.440	0.620
2020/01/31 10:14:53.0	295.100	0.200	-0.530	0.610
2020/01/31 10:14:53.1	295.090	0.220	-0.620	0.600
2020/01/31 10:14:53.2	295.080	0.240	-0.710	0.590
2020/01/31 10:14:53.3	295.070	0.260	-0.800	0.570
2020/01/31 10:14:53.4	295.070	0.280	-0.890	0.550
2020/01/31 10:14:53.5	295.070	0.290	-0.980	0.530
2020/01/31 10:14:53.6	295.070	0.310	-1.060	0.500
2020/01/31 10:14:53.7	295.070	0.320	-1.150	0.480
2020/01/31 10:14:53.8	295.080	0.330	-1.230	0.450
2020/01/31 10:14:53.9	295.080	0.350	-1.300	0.420
2020/01/31 10:14:54.0	295.090	0.360	-1.370	0.390
2020/01/31 10:14:54.1	295.100	0.360	-1.440	0.360
2020/01/31 10:14:54.2	295.120	0.370	-1.500	0.320
2020/01/31 10:14:54.3	295.130	0.370	-1.560	0.290
2020/01/31 10:14:54.4	295.150	0.380	-1.610	0.260
2020/01/31 10:14:54.5	295.170	0.380	-1.650	0.220
2020/01/31 10:14:54.6	295.190	0.370	-1.690	0.190
2020/01/31 10:14:54.7	295.210	0.370	-1.720	0.150
2020/01/31 10:14:54.8	295.240	0.360	-1.740	0.120
2020/01/31 10:14:54.9	295.260	0.350	-1.760	0.090
2020/01/31 10:14:55.0	295.290	0.340	-1.770	0.060
2020/01/31 10:14:55.1	295.310	0.330	-1.770	0.030
2020/01/31 10:14:55.2	295.330	0.320	-1.760	0.010
2020/01/31 10:14:55.3	295.360	0.300	-1.740	-0.010
2020/01/31 10:14:55.4	295.420	0.280	-1.720	-0.030
2020/01/31 10:14:55.5	295.440	0.260	-1.690	-0.050
2020/01/31 10:14:55.6	295.460	0.240	-1.650	-0.060
2020/01/31 10:14:55.7	295.480	0.220	-1.610	-0.070
2020/01/31 10:14:55.8	295.490	0.190	-1.560	-0.080
2020/01/31 10:14:55.9	295.510	0.160	-1.500	-0.080
2020/01/31 10:14:56.0	295.520	0.140	-1.440	-0.080
2020/01/31 10:14:56.1	295.530	0.110	-1.380	-0.080
2020/01/31 10:14:56.2	295.550	0.080	-1.300	-0.070
2020/01/31 10:14:56.3	295.560	0.050	-1.230	-0.060
2020/01/31 10:14:56.4	295.580	0.020	-1.150	-0.050
2020/01/31 10:14:56.5	295.590	-0.010	-1.070	-0.040
2020/01/31 10:14:56.6	295.590	-0.040	-0.980	-0.020
2020/01/31 10:14:56.7	295.600	-0.070	-0.890	0.000
2020/01/31 10:14:56.8	295.600	-0.100	-0.800	0.030
2020/01/31 10:14:56.9	295.600	-0.130	-0.710	0.050
2020/01/31 10:14:57.0	295.610	-0.150	-0.630	0.080
2020/01/31 10:14:57.1	295.610	-0.180	-0.540	0.110
2020/01/31 10:14:57.2	295.610	-0.210	-0.450	0.140
2020/01/31 10:14:57.3	295.610	-0.230	-0.360	0.170
2020/01/31 10:14:57.4	295.620	-0.250	-0.270	0.200
2020/01/31 10:14:57.5	295.630	-0.270	-0.180	0.230
2020/01/31 10:14:57.6	295.630	-0.290	-0.100	0.260
2020/01/31 10:14:57.7	295.630	-0.310	-0.020	0.290
2020/01/31 10:14:57.8	295.640	-0.330	0.050	0.320
2020/01/31 10:14:57.9	295.640	-0.340	0.120	0.340
2020/01/31 10:14:58.0	295.650	-0.360	0.190	0.370
2020/01/31 10:14:58.1	295.660	-0.370	0.260	0.400
2020/01/31 10:14:58.2	295.660	-0.380	0.320	0.420
2020/01/31 10:14:58.3	295.670	-0.390	0.370	0.440
2020/01/31 10:14:58.4	295.670	-0.390	0.420	0.460
2020/01/31 10:14:58.5	295.680	-0.400	0.470	0.480
2020/01/31 10:14:58.6	295.690	-0.400	0.520	0.500
2020/01/31 10:14:58.7	295.710	-0.400	0.550	0.520
2020/01/31 10:14:58.8	295.720	-0.400	0.590	0.530
2020/01/31 10:14:58.9	295.730	-0.400	0.620	0.540
2020/01/31 10:14:59.0	295.750	-0.400	0.650	0.560
2020/01/31 10:14:59.1	295.760	-0.390	0.670	0.560
2020/01/31 10:14:59.2	295.780	-0.390	0.690	0.570
2020/01/31 10:14:59.3	295.800	-0.380	0.710	0.580
2020/01/31 10:14:59.4	295.810	-0.370	0.720	0.580
2020/01/31 10:14:59.5	295.830	-0.360	0.730	0.580
2020/01/31 10:14:59.6	295.850	-0.350	0.740	0.580
2020/01/31 10:14:59.7	295.870	-0.340	0.750	0.580
2020/01/31 10:14:59.8	295.890	-0.320	0.750	0.570
2020/01/31 10:14:59.9	295.910	-0.310	0.750	0.570
2020/01/31 10:15:00.0	295.940	-0.300	0.750	0.560
2020/01/31 10:15:00.1	295.960	-0.280	0.740	0.550
2020/01/31 10:15:00.2	295.990	-0.270	0.730	0.540
2020/01/31 10:15:00.3	296.010	-0.250	0.730	0.530
2020/01/31 10:15:00.4	296.010	-0.230	0.710	0.510
2020/01/31 10:15:00.5	296.040	-0.210	0.700	0.500
2020/01/31 10:15:00.6	296.070	-0.200	0.690	0.490
2020/01/31 10:15:00.7	296.090	-0.180	0.680	0.470
2020/01/31 10:15:00.8	296.120	-0.160	0.660	0.460
2020/01/31 10:15:00.9	296.150	-0.140	0.640	0.440
2020/01/31 10:15:01.0	296.170	-0.120	0.630	0.430
2020/01/31 10:15:01.1	296.200	-0.100	0.610	0.410
2020/01/31 10:15:01.2	296.230	-0.080	0.580	0.400
2020/01/31 10:15:01.3	296.250	-0.060	0.560	0.380
2020/01/31 10:15:01.4	296.260	-0.030	0.540	0.370
2020/01/31 10:15:01.5	296.280	-0.010	0.510	0.350
2020/01/31 10:15:01.6	296.300	0.010	0.480	0.340
2020/01/31 10:15:01.7	296.330	0.030	0.450	0.320
2020/01/31 10:15:01.8	296.340	0.050	0.420	0.310
2020/01/31 10:15:01.9	296.360	0.070	0.380	0.300
2020/01/31 10:15:02.0	296.380	0.100	0.350	0.280
2020/01/31 10:15:02.1	296.400	0.120	0.310	0.270
2020/01/31 10:15:02.2	296.410	0.140	0.270	0.260
2020/01/31 10:15:02.3	296.420	0.160	0.230	0.250
2020/01/31 10:15:02.4	296.420	0.180	0.190	0.240
2020/01/31 10:15:02.5	296.430	0.200	0.140	0.230
2020/01/31 10:15:02.6	296.440	0.220	0.100	0.220
2020/01/31 10:15:02.7	296.440	0.240	0.050	0.210
2020/01/31 10:15:02.8	296.450	0.260	0.000	0.200
2020/01/31 10:15:02.9	296.450	0.280	-0.050	0.200
2020/01/31 10:15:03.0	296.450	0.290	-0.090	0.190
2020/01/31 10:15:03.1	296.450	0.310	-0.140	0.190
2020/01/31 10:15:03.2	296.450	0.330	-0.190	0.190
2020/01/31 10:15:03.3	296.450	0.340	-0.240	0.190
2020/01/31 10:15:03.4	296.450	0.350	-0.290	0.190
2020/01/31 10:15:03.5	296.450	0.370	-0.340	0.190
2020/01/31 10:15:03.6	296.440	0.380	-0.390	0.200
2020/01/31 10:15:03.7	296.440	0.390	-0.440	0.200
2020/01/31 10:15:03.8	296.430	0.400	-0.490	0.210
2020/01/31 10:15:03.9	296.420	0.410	-0.530	0.210
2020/01/31 10:15:04.0	296.420	0.410	-0.580	0.220
2020/01/31 10:15:04.1	296.410	0.420	-0.620	0.230
2020/01/31 10:15:04.2	296.400	0.430	-0.660	0.240
2020/01/31 10:15:04.3	296.390	0.430	-0.700	0.250
2020/01/31 10:15:04.4	296.400	0.430	-0.740	0.260
2020/01/31 10:15:04.5	296.390	0.430	-0.780	0.280
2020/01/31 10:15:04.6	296.380	0.430	-0.810	0.290
2020/01/31 10:15:04.7	296.370	0.430	-0.840	0.300
2020/01/31 10:15:04.8	296.370	0.430	-0.870	0.320
2020/01/31 10:15:04.9	296.360	0.430	-0.900	0.330
2020/01/31 10:15:05.0	296.350	0.420	-0.920	0.340
2020/01/31 10:15:05.1	296.340	0.420	-0.940	0.360
2020/01/31 10:15:05.2	296.340	0.410	-0.960	0.370
2020/01/31 10:15:05.3	296.330	0.400	-0.980	0.390
2020/01/31 10:15:05.4	296.330	0.390	-0.990	0.400
2020/01/31 10:15:05.5	296.330	0.380	-1.000	0.410
2020/01/31 10:15:05.6	296.320	0.370	-1.000	0.420
2020/01/31 10:15:05.7	296.310	0.360	-1.010	0.430
2020/01/31 10:15:05.8	296.310	0.340	-1.000	0.440
2020/01/31 10:15:05.9	296.300	0.330	-1.000	0.450
2020/01/31 10:15:06.0	296.300	0.310	-0.990	0.460
2020/01/31 10:15:06.1	296.300	0.290	-0.980	0.460
2020/01/31 10:15:06.2	296.290	0.270	-0.970	0.470
2020/01/31 10:15:06.3	296.290	0.250	-0.950	0.470
2020/01/31 10:15:06.4	296.310	0.230	-0.930	0.470
2020/01/31 10:15:06.5	296.310	0.210	-0.910	0.470
2020/01/31 10:15:06.6	296.310	0.190	-0.880	0.470
2020/01/31 10:15:06.7	296.310	0.160	-0.850	0.460
2020/01/31 10:15:06.8	296.320	0.140	-0.820	0.450
2020/01/31 10:15:06.9	296.320	0.110	-0.790	0.440
2020/01/31 10:15:07.0	296.320	0.080	-0.750	0.430
2020/01/31 10:15:07.1	296.330	0.060	-0.720	0.420
2020/01/31 10:15:07.2	296.340	0.030	-0.680	0.400
2020/01/31 10:15:07.3	296.350	0.000	-0.640	0.380
2020/01/31 10:15:07.4	296.350	-0.030	-0.590	0.360
2020/01/31 10:15:07.5	296.360	-0.060	-0.550	0.340
2020/01/31 10:15:07.6	296.370	-0.080	-0.510	0.320
2020/01/31 10:15:07.7	296.390	-0.110	-0.470	0.300
2020/01/31 10:15:07.8	296.400	-0.140	-0.420	0.280
2020/01/31 10:15:07.9	296.420	-0.170	-0.380	0.260
2020/01/31 10:15:08.0	296.440	-0.190	-0.340	0.230
2020/01/31 10:15:08.1	296.460	-0.220	-0.300	0.210
2020/01/31 10:15:08.2	296.480	-0.240	-0.260	0.190
2020/01/31 10:15:08.3	296.500	-0.270	-0.220	0.160
2020/01/31 10:15:08.4	296.520	-0.290	-0.180	0.140
2020/01/31 10:15:08.5	296.550	-0.310	-0.140	0.110
2020/01/31 10:15:08.6	296.570	-0.330	-0.110	0.080
2020/01/31 10:15:08.7	296.600	-0.350	-0.080	0.050
2020/01/31 10:15:08.8	296.630	-0.370	-0.050	0.030
2020/01/31 10:15:08.9	296.660	-0.390	-0.020	0.000
2020/01/31 10:15:09.0	296.690	-0.400	0.010	-0.030
2020/01/31 10:15:09.1	296.720	-0.420	0.030	-0.050
2020/01/31 10:15:09.2	296.750	-0.430	0.050	-0.080
2020/01/31 10:15:09.3	296.780	-0.440	0.070	-0.100
2020/01/31 10:15:09.4	296.800	-0.450	0.080	-0.120
2020/01/31 10:15:09.5	296.830	-0.460	0.090	-0.140
2020/01/31 10:15:09.6	296.860	-0.470	0.100	-0.160
2020/01/31 10:15:09.7	296.890	-0.470	0.110	-0.180
2020/01/31 10:15:09.8	296.910	-0.480	0.110	-0.190
2020/01/31 10:15:09.9	296.940	-0.480	0.110	-0.210
2020/01/31 10:15:10.0	296.970	-0.480	0.110	-0.220
2020/01/31 10:15:10.1	297.000	-0.480	0.110	-0.230
2020/01/31 10:15:10.2	297.020	-0.480	0.100	-0.230
2020/01/31 10:15:10.3	297.050	-0.470	0.090	-0.240
2020/01/31 10:15:10.4	297.080	-0.470	0.080	-0.240
2020/01/31 10:15:10.5	297.100	-0.460	0.070	-0.240
2020/01/31 10:15:10.6	297.130	-0.450	0.050	-0.230
2020/01/31 10:15:10.7	297.150	-0.440	0.040	-0.230
2020/01/31 10:15:10.8	297.170	-0.430	0.030	-0.220
2020/01/31 10:15:10.9	297.190	-0.420	0.010	-0.200
2020/01/31 10:15:11.0	297.220	-0.410	-0.000	-0.190
2020/01/31 10:15:11.1	297.240	-0.400	-0.020	-0.170
2020/01/31 10:15:11.2	297.260	-0.380	-0.030	-0.150
2020/01/31 10:15:11.3	297.280	-0.370	-0.050	-0.130
2020/01/31 10:15:11.4	297.310	-0.350	-0.060	-0.110
2020/01/31 10:15:11.5	297.330	-0.330	-0.070	-0.090
2020/01/31 10:15:11.6	297.350	-0.320	-0.090	-0.060
2020/01/31 10:15:11.7	297.370	-0.300	-0.100	-0.030
2020/01/31 10:15:11.8	297.390	-0.280	-0.110	-0.000
2020/01/31 10:15:11.9	297.400	-0.260	-0.110	0.030
2020/01/31 10:15:12.0	297.420	-0.240	-0.120	0.060
2020/01/31 10:15:12.1	297.430	-0.220	-0.120	0.090
2020/01/31 10:15:12.2	297.450	-0.200	-0.130	0.130
2020/01/31 10:15:12.3	297.460	-0.170	-0.130	0.160
2020/01/31 10:15:12.4	297.480	-0.150	-0.130	0.200
2020/01/31 10:15:12.5	297.490	-0.130	-0.130	0.240
2020/01/31 10:15:12.6	297.500	-0.110	-0.130	0.270
2020/01/31 10:15:12.7	297.510	-0.090	-0.120	0.310
2020/01/31 10:15:12.8	297.510	-0.060	-0.120	0.350
2020/01/31 10:15:12.9	297.520	-0.040	-0.110	0.390
2020/01/31 10:15:13.0	297.520	-0.020	-0.100	0.430
2020/01/31 10:15:13.1	297.530	0.010	-0.090	0.470
2020/01/31 10:15:13.2	297.530	0.030	-0.080	0.510
2020/01/31 10:15:13.3	297.530	0.050	-0.070	0.550
2020/01/31 10:15:13.4	297.520	0.080	-0.060	0.590
2020/01/31 10:15:13.5	297.520	0.100	-0.050	0.630
2020/01/31 10:15:13.6	297.510	0.120	-0.040	0.660
2020/01/31 10:15:13.7	297.510	0.140	-0.030	0.700
2020/01/31 10:15:13.8	297.500	0.160	-0.010	0.730
2020/01/31 10:15:13.9	297.490	0.180	-0.000	0.770
2020/01/31 10:15:14.0	297.480	0.200	0.010	0.800
2020/01/31 10:15:14.1	297.470	0.220	0.020	0.820
2020/01/31 10:15:14.2	297.460	0.240	0.030	0.850
2020/01/31 10:15:14.3	297.440	0.260	0.040	0.870
2020/01/31 10:15:14.4	297.430	0.280	0.050	0.890
2020/01/31 10:15:14.5	297.420	0.290	0.050	0.910
2020/01/31 10:15:14.6	297.400	0.310	0.060	0.920
2020/01/31 10:15:14.7	297.390	0.320	0.060	0.930
2020/01/31 10:15:14.8	297.380	0.340	0.060	0.940
2020/01/31 10:15:14.9	297.360	0.350	0.060	0.940
2020/01/31 10:15:15.0	297.350	0.360	0.060	0.940
2020/01/31 10:15:15.1	297.330	0.370	0.060	0.940
2020/01/31 10:15:15.2	297.320	0.380	0.050	0.930
2020/01/31 10:15:15.3	297.310	0.380	0.050	0.920
2020/01/31 10:15:15.4	297.280	0.390	0.040	0.910
2020/01/31 10:15:15.5	297.270	0.390	0.030	0.900
2020/01/31 10:15:15.6	297.260	0.400	0.020	0.880
2020/01/31 10:15:15.7	297.240	0.400	0.010	0.860
2020/01/31 10:15:15.8	297.230	0.400	-0.000	0.840
2020/01/31 10:15:15.9	297.220	0.400	-0.020	0.820
2020/01/31 10:15:16.0	297.210	0.400	-0.030	0.800
2020/01/31 10:15:16.1	297.200	0.390	-0.040	0.770
2020/01/31 10:15:16.2	297.190	0.390	-0.060	0.740
2020/01/31 10:15:16.3	297.180	0.380	-0.080	0.710
2020/01/31 10:15:16.4	297.170	0.380	-0.100	0.680
2020/01/31 10:15:16.5	297.160	0.370	-0.120	0.640
2020/01/31 10:15:16.6	297.160	0.360	-0.140	0.610
2020/01/31 10:15:16.7	297.160	0.350	-0.160	0.570
2020/01/31 10:15:16.8	297.160	0.350	-0.180	0.530
2020/01/31 10:15:16.9	297.160	0.340	-0.210	0.490
2020/01/31 10:15:17.0	297.160	0.330	-0.230	0.440
2020/01/31 10:15:17.1	297.170	0.320	-0.260	0.400
2020/01/31 10:15:17.2	297.170	0.300	-0.280	0.350
2020/01/31 10:15:17.3	297.180	0.290	-0.310	0.300
2020/01/31 10:15:17.4	297.200	0.280	-0.340	0.260
2020/01/31 10:15:17.5	297.210	0.270	-0.370	0.210
2020/01/31 10:15:17.6	297.230	0.260	-0.400	0.160
2020/01/31 10:15:17.7	297.250	0.250	-0.430	0.110
2020/01/31 10:15:17.8	297.270	0.240	-0.460	0.060
2020/01/31 10:15:17.9	297.290	0.220	-0.490	0.010
2020/01/31 10:15:18.0	297.310	0.210	-0.520	-0.040
2020/01/31 10:15:18.1	297.330	0.200	-0.550	-0.080
2020/01/31 10:15:18.2	297.360	0.190	-0.580	-0.130
2020/01/31 10:15:18.3	297.390	0.180	-0.610	-0.180
2020/01/31 10:15:18.4	297.400	0.170	-0.640	-0.230
2020/01/31 10:15:18.5	297.430	0.150	-0.660	-0.270
2020/01/31 10:15:18.6	297.460	0.140	-0.680	-0.310
2020/01/31 10:15:18.7	297.490	0.130	-0.710	-0.350
2020/01/31 10:15:18.8	297.520	0.120	-0.730	-0.390
2020/01/31 10:15:18.9	297.560	0.110	-0.740	-0.430
2020/01/31 10:15:19.0	297.590	0.100	-0.760	-0.460
2020/01/31 10:15:19.1	297.620	0.090	-0.770	-0.490
2020/01/31 10:15:19.2	297.650	0.080	-0.780	-0.520
2020/01/31 10:15:19.3	297.680	0.070	-0.790	-0.550
2020/01/31 10:15:19.4	297.720	0.060	-0.800	-0.570
2020/01/31 10:15:19.5	297.750	0.060	-0.800	-0.590
2020/01/31 10:15:19.6	297.780	0.050	-0.800	-0.610
2020/01/31 10:15:19.7	297.810	0.040	-0.790	-0.630
2020/01/31 10:15:19.8	297.840	0.030	-0.790	-0.640
2020/01/31 10:15:19.9	297.870	0.020	-0.780	-0.650
2020/01/31 10:15:20.0	297.900	0.010	-0.770	-0.650
2020/01/31 10:15:20.1	297.930	0.010	-0.750	-0.650
2020/01/31 10:15:20.2	297.950	-0.000	-0.730	-0.650
2020/01/31 10:15:20.3	297.980	-0.010	-0.710	-0.640
2020/01/31 10:15:20.4	298.010	-0.020	-0.680	-0.640
2020/01/31 10:15:20.5	298.030	-0.030	-0.650	-0.620
2020/01/31 10:15:20.6	298.050	-0.040	-0.620	-0.610
2020/01/31 10:15:20.7	298.070	-0.050	-0.590	-0.590
2020/01/31 10:15:20.8	298.090	-0.060	-0.550	-0.570
2020/01/31 10:15:20.9	298.110	-0.070	-0.520	-0.540
2020/01/31 10:15:21.0	298.120	-0.080	-0.480	-0.510
2020/01/31 10:15:21.1	298.130	-0.090	-0.440	-0.490
2020/01/31 10:15:21.2	298.150	-0.100	-0.390	-0.460
2020/01/31 10:15:21.3	298.160	-0.110	-0.350	-0.430
2020/01/31 10:15:21.4	298.190	-0.120	-0.310	-0.390
2020/01/31 10:15:21.5	298.190	-0.130	-0.260	-0.350
2020/01/31 10:15:21.6	298.200	-0.140	-0.220	-0.320
2020/01/31 10:15:21.7	298.210	-0.150	-0.180	-0.280
2020/01/31 10:15:21.8	298.210	-0.160	-0.140	-0.240
2020/01/31 10:15:21.9	298.210	-0.180	-0.100	-0.200
2020/01/31 10:15:22.0	298.220	-0.190	-0.070	-0.160
2020/01/31 10:15:22.1	298.220	-0.200	-0.030	-0.120
2020/01/31 10:15:22.2	298.220	-0.210	0.000	-0.080
2020/01/31 10:15:22.3	298.220	-0.220	0.030	-0.040
2020/01/31 10:15:22.4	298.220	-0.230	0.060	-0.000
2020/01/31 10:15:22.5	298.220	-0.250	0.090	0.040
2020/01/31 10:15:22.6	298.210	-0.260	0.110	0.080
2020/01/31 10:15:22.7	298.210	-0.270	0.140	0.110
2020/01/31 10:15:22.8	298.200	-0.280	0.150	0.150
2020/01/31 10:15:22.9	298.190	-0.290	0.170	0.190
2020/01/31 10:15:23.0	298.190	-0.300	0.180	0.230
2020/01/31 10:15:23.1	298.180	-0.310	0.190	0.260
2020/01/31 10:15:23.2	298.170	-0.320	0.200	0.300
2020/01/31 10:15:23.3	298.160	-0.330	0.200	0.330
2020/01/31 10:15:23.4	298.150	-0.340	0.210	0.360
2020/01/31 10:15:23.5	298.140	-0.350	0.200	0.390
2020/01/31 10:15:23.6	298.130	-0.350	0.200	0.420
2020/01/31 10:15:23.7	298.120	-0.360	0.190	0.440
2020/01/31 10:15:23.8	298.120	-0.370	0.180	0.460
2020/01/31 10:15:23.9	298.110	-0.370	0.170	0.480
2020/01/31 10:15:24.0	298.100	-0.370	0.150	0.500
2020/01/31 10:15:24.1	298.100	-0.380	0.140	0.510
2020/01/31 10:15:24.2	298.090	-0.380	0.120	0.530
2020/01/31 10:15:24.3	298.090	-0.380	0.100	0.540
2020/01/31 10:15:24.4	298.070	-0.380	0.070	0.540
2020/01/31 10:15:24.5	298.070	-0.370	0.050	0.550
2020/01/31 10:15:24.6	298.070	-0.370	0.020	0.550
2020/01/31 10:15:24.7	298.070	-0.360	-0.000	0.550
2020/01/31 10:15:24.8	298.070	-0.360	-0.030	0.550
2020/01/31 10:15:24.9	298.070	-0.350	-0.060	0.540
2020/01/31 10:15:25.0	298.080	-0.340	-0.090	0.540
2020/01/31 10:15:25.1	298.080	-0.330	-0.120	0.530
2020/01/31 10:15:25.2	298.090	-0.320	-0.150	0.520
2020/01/31 10:15:25.3	298.100	-0.300	-0.180	0.510
2020/01/31 10:15:25.4	298.100	-0.290	-0.200	0.500
2020/01/31 10:15:25.5	298.110	-0.270	-0.230	0.490
2020/01/31 10:15:25.6	298.120	-0.250	-0.260	0.470
2020/01/31 10:15:25.7	298.130	-0.240	-0.280	0.460
2020/01/31 10:15:25.8	298.140	-0.220	-0.310	0.440
2020/01/31 10:15:25.9	298.150	-0.200	-0.330	0.430
2020/01/31 10:15:26.0	298.160	-0.180	-0.350	0.420
2020/01/31 10:15:26.1	298.170	-0.160	-0.370	0.400
2020/01/31 10:15:26.2	298.190	-0.140	-0.390	0.390
2020/01/31 10:15:26.3	298.200	-0.110	-0.400	0.370
2020/01/31 10:15:26.4	298.210	-0.090	-0.420	0.360
2020/01/31 10:15:26.5	298.220	-0.070	-0.430	0.340
2020/01/31 10:15:26.6	298.240	-0.050	-0.440	0.330
2020/01/31 10:15:26.7	298.250	-0.030	-0.450	0.320
2020/01/31 10:15:26.8	298.260	-0.010	-0.460	0.300
2020/01/31 10:15:26.9	298.280	0.010	-0.460	0.290
2020/01/31 10:15:27.0	298.290	0.030	-0.460	0.280
2020/01/31 10:15:27.1	298.310	0.050	-0.460	0.270
2020/01/31 10:15:27.2	298.320	0.070	-0.460	0.260
2020/01/31 10:15:27.3	298.340	0.080	-0.460	0.250
2020/01/31 10:15:27.4	298.360	0.100	-0.460	0.240
2020/01/31 10:15:27.5	298.380	0.120	-0.450	0.230
2020/01/31 10:15:27.6	298.390	0.130	-0.440	0.220
2020/01/31 10:15:27.7	298.410	0.150	-0.430	0.220
2020/01/31 10:15:27.8	298.420	0.160	-0.420	0.210
2020/01/31 10:15:27.9	298.430	0.180	-0.400	0.210
2020/01/31 10:15:28.0	298.450	0.190	-0.390	0.210
2020/01/31 10:15:28.1	298.460	0.200	-0.370	0.210
2020/01/31 10:15:28.2	298.480	0.210	-0.350	0.210
2020/01/31 10:15:28.3	298.490	0.220	-0.330	0.210
2020/01/31 10:15:28.4	298.520	0.230	-0.310	0.220
2020/01/31 10:15:28.5	298.530	0.240	-0.290	0.220
2020/01/31 10:15:28.6	298.540	0.250	-0.260	0.230
2020/01/31 10:15:28.7	298.560	0.260	-0.240	0.240
2020/01/31 10:15:28.8	298.570	0.270	-0.210	0.250
2020/01/31 10:15:28.9	298.580	0.280	-0.180	0.260
2020/01/31 10:15:29.0	298.590	0.280	-0.160	0.270
2020/01/31 10:15:29.1	298.610	0.290	-0.130	0.280
2020/01/31 10:15:29.2	298.620	0.300	-0.100	0.300
2020/01/31 10:15:29.3	298.630	0.300	-0.070	0.310
2020/01/31 10:15:29.4	298.650	0.310	-0.040	0.330
2020/01/31 10:15:29.5	298.660	0.320	-0.020	0.340
2020/01/31 10:15:29.6	298.670	0.320	0.010	0.360
2020/01/31 10:15:29.7	298.690	0.320	0.030	0.370
2020/01/31 10:15:29.8	298.700	0.330	0.050	0.390
2020/01/31 10:15:29.9	298.710	0.330	0.070	0.410
2020/01/31 10:15:30.0	298.730	0.330	0.090	0.420
2020/01/31 10:15:30.1	298.740	0.340	0.110	0.440
2020/01/31 10:15:30.2	298.750	0.340	0.120	0.460
2020/01/31 10:15:30.3	298.760	0.340	0.130	0.470
2020/01/31 10:15:30.4	298.770	0.340	0.130	0.480
2020/01/31 10:15:30.5	298.780	0.340	0.140	0.500
2020/01/31 10:15:30.6	298.790	0.340	0.140	0.510
2020/01/31 10:15:30.7	298.800	0.340	0.140	0.530
2020/01/31 10:15:30.8	298.810	0.340	0.130	0.540
2020/01/31 10:15:30.9	298.830	0.340	0.130	0.550
2020/01/31 10:15:31.0	298.840	0.330	0.120	0.560
2020/01/31 10:15:31.1	298.850	0.330	0.110	0.570
2020/01/31 10:15:31.2	298.860	0.330	0.100	0.580
2020/01/31 10:15:31.3	298.870	0.320	0.080	0.580
2020/01/31 10:15:31.4	298.890	0.320	0.070	0.590
2020/01/31 10:15:31.5	298.900	0.310	0.050	0.590
2020/01/31 10:15:31.6	298.910	0.300	0.030	0.600
2020/01/31 10:15:31.7	298.920	0.290	0.000	0.600
2020/01/31 10:15:31.8	298.930	0.280	-0.020	0.600
2020/01/31 10:15:31.9	298.940	0.270	-0.040	0.590
2020/01/31 10:15:32.0	298.950	0.260	-0.070	0.590
2020/01/31 10:15:32.1	298.960	0.250	-0.100	0.590
2020/01/31 10:15:32.2	298.970	0.230	-0.120	0.580
2020/01/31 10:15:32.3	298.980	0.220	-0.150	0.570
2020/01/31 10:15:32.4	298.980	0.200	-0.180	0.560
2020/01/31 10:15:32.5	298.980	0.190	-0.210	0.550
2020/01/31 10:15:32.6	298.990	0.170	-0.230	0.540
2020/01/31 10:15:32.7	298.990	0.150	-0.260	0.530
2020/01/31 10:15:32.8	298.990	0.130	-0.290	0.510
2020/01/31 10:15:32.9	299.000	0.110	-0.310	0.490
2020/01/31 10:15:33.0	299.000	0.090	-0.340	0.480
2020/01/31 10:15:33.1	299.000	0.070	-0.370	0.450
2020/01/31 10:15:33.2	299.000	0.050	-0.390	0.430
2020/01/31 10:15:33.3	299.000	0.030	-0.410	0.400
2020/01/31 10:15:33.4	299.010	0.000	-0.440	0.380
2020/01/31 10:15:33.5	299.010	-0.020	-0.460	0.350
2020/01/31 10:15:33.6	299.010	-0.040	-0.480	0.310
2020/01/31 10:15:33.7	299.020	-0.070	-0.500	0.280
2020/01/31 10:15:33.8	299.020	-0.090	-0.520	0.240
2020/01/31 10:15:33.9	299.030	-0.110	-0.540	0.200
2020/01/31 10:15:34.0	299.030	-0.130	-0.550	0.160
2020/01/31 10:15:34.1	299.040	-0.160	-0.570	0.120
2020/01/31 10:15:34.2	299.050	-0.180	-0.580	0.070
2020/01/31 10:15:34.3	299.060	-0.200	-0.600	0.030
2020/01/31 10:15:34.4	299.100	-0.220	-0.600	-0.020
2020/01/31 10:15:34.5	299.110	-0.240	-0.610	-0.060
2020/01/31 10:15:34.6	299.130	-0.260	-0.620	-0.110
2020/01/31 10:15:34.7	299.140	-0.280	-0.630	-0.150
2020/01/31 10:15:34.8	299.160	-0.290	-0.640	-0.200
2020/01/31 10:15:34.9	299.180	-0.310	-0.640	-0.240
2020/01/31 10:15:35.0	299.200	-0.320	-0.640	-0.280
2020/01/31 10:15:35.1	299.230	-0.340	-0.640	-0.320
2020/01/31 10:15:35.2	299.250	-0.350	-0.640	-0.360
2020/01/31 10:15:35.3	299.270	-0.360	-0.640	-0.390
2020/01/31 10:15:35.4	299.290	-0.370	-0.640	-0.420
2020/01/31 10:15:35.5	299.310	-0.370	-0.640	-0.450
2020/01/31 10:15:35.6	299.340	-0.380	-0.630	-0.480
2020/01/31 10:15:35.7	299.360	-0.380	-0.620	-0.500
2020/01/31 10:15:35.8	299.380	-0.390	-0.610	-0.520
2020/01/31 10:15:35.9	299.410	-0.390	-0.590	-0.540
2020/01/31 10:15:36.0	299.430	-0.390	-0.580	-0.550
2020/01/31 10:15:36.1	299.460	-0.390	-0.560	-0.560
2020/01/31 10:15:36.2	299.480	-0.380	-0.540	-0.560
2020/01/31 10:15:36.3	299.500	-0.380	-0.520	-0.560
2020/01/31 10:15:36.4	299.540	-0.380	-0.490	-0.550
2020/01/31 10:15:36.5	299.570	-0.370	-0.470	-0.550
2020/01/31 10:15:36.6	299.590	-0.360	-0.440	-0.530
2020/01/31 10:15:36.7	299.610	-0.350	-0.420	-0.510
2020/01/31 10:15:36.8	299.630	-0.340	-0.390	-0.490
2020/01/31 10:15:36.9	299.650	-0.330	-0.370	-0.470
2020/01/31 10:15:37.0	299.670	-0.320	-0.340	-0.440
2020/01/31 10:15:37.1	299.690	-0.310	-0.310	-0.410
2020/01/31 10:15:37.2	299.710	-0.300	-0.290	-0.380
2020/01/31 10:15:37.3	299.730	-0.290	-0.260	-0.340
2020/01/31 10:15:37.4	299.770	-0.270	-0.240	-0.300
2020/01/31 10:15:37.5	299.780	-0.260	-0.210	-0.270
2020/01/31 10:15:37.6	299.800	-0.250	-0.190	-0.230
2020/01/31 10:15:37.7	299.820	-0.230	-0.170	-0.190
2020/01/31 10:15:37.8	299.840	-0.220	-0.150	-0.150
2020/01/31 10:15:37.9	299.850	-0.200	-0.140	-0.110
2020/01/31 10:15:38.0	299.870	-0.190	-0.120	-0.070
2020/01/31 10:15:38.1	299.890	-0.170	-0.110	-0.030
2020/01/31 10:15:38.2	299.900	-0.160	-0.100	0.000
2020/01/31 10:15:38.3	299.910	-0.140	-0.090	0.040
2020/01/31 10:15:38.4	299.940	-0.130	-0.090	0.080
2020/01/31 10:15:38.5	299.950	-0.110	-0.080	0.110
2020/01/31 10:15:38.6	299.970	-0.100	-0.080	0.150
2020/01/31 10:15:38.7	299.980	-0.080	-0.080	0.180
2020/01/31 10:15:38.8	299.990	-0.070	-0.070	0.210
2020/01/31 10:15:38.9	300.000	-0.060	-0.080	0.240
2020/01/31 10:15:39.0	300.010	-0.040	-0.080	0.280
2020/01/31 10:15:39.1	300.020	-0.030	-0.080	0.300
2020/01/31 10:15:39.2	300.030	-0.020	-0.080	0.330
2020/01/31 10:15:39.3	300.040	-0.010	-0.090	0.360
2020/01/31 10:15:39.4	300.030	0.000	-0.090	0.380
2020/01/31 10:15:39.5	300.040	0.010	-0.090	0.410
2020/01/31 10:15:39.6	300.040	0.020	-0.090	0.430
2020/01/31 10:15:39.7	300.050	0.030	-0.100	0.460
2020/01/31 10:15:39.8	300.060	0.040	-0.100	0.480
2020/01/31 10:15:39.9	300.060	0.050	-0.100	0.500
2020/01/31 10:15:40.0	300.070	0.060	-0.100	0.520
2020/01/31 10:15:40.1	300.070	0.060	-0.100	0.540
2020/01/31 10:15:40.2	300.080	0.070	-0.100	0.550
2020/01/31 10:15:40.3	300.080	0.080	-0.100	0.570
2020/01/31 10:15:40.4	300.070	0.080	-0.100	0.580
2020/01/31 10:15:40.5	300.080	0.090	-0.100	0.600
2020/01/31 10:15:40.6	300.080	0.090	-0.090	0.610
2020/01/31 10:15:40.7	300.090	0.100	-0.090	0.620
2020/01/31 10:15:40.8	300.090	0.100	-0.080	0.630
2020/01/31 10:15:40.9	300.090	0.110	-0.070	0.640
2020/01/31 10:15:41.0	300.100	0.110	-0.060	0.650
2020/01/31 10:15:41.1	300.100	0.110	-0.060	0.660
2020/01/31 10:15:41.2	300.100	0.120	-0.050	0.660
2020/01/31 10:15:41.3	300.110	0.120	-0.040	0.660
2020/01/31 10:15:41.4	300.120	0.130	-0.030	0.660
2020/01/31 10:15:41.5	300.120	0.130	-0.020	0.660
2020/01/31 10:15:41.6	300.120	0.140	-0.010	0.660
2020/01/31 10:15:41.7	300.130	0.140	-0.000	0.650
2020/01/31 10:15:41.8	300.130	0.150	0.000	0.650
2020/01/31 10:15:41.9	300.130	0.150	0.010	0.640
2020/01/31 10:15:42.0	300.130	0.160	0.020	0.630
2020/01/31 10:15:42.1	300.140	0.170	0.020	0.620
2020/01/31 10:15:42.2	300.140	0.170	0.030	0.610
2020/01/31 10:15:42.3	300.140	0.180	0.030	0.590
2020/01/31 10:15:42.4	300.130	0.190	0.030	0.580
2020/01/31 10:15:42.5	300.140	0.200	0.030	0.560
2020/01/31 10:15:42.6	300.140	0.210	0.030	0.540
2020/01/31 10:15:42.7	300.150	0.220	0.030	0.520
2020/01/31 10:15:42.8	300.150	0.230	0.030	0.500
2020/01/31 10:15:42.9	300.160	0.240	0.020	0.480
2020/01/31 10:15:43.0	300.160	0.250	0.020	0.460
2020/01/31 10:15:43.1	300.170	0.260	0.010	0.440
2020/01/31 10:15:43.2	300.170	0.260	-0.000	0.410
2020/01/31 10:15:43.3	300.180	0.270	-0.010	0.390
2020/01/31 10:15:43.4	300.180	0.280	-0.030	0.370
2020/01/31 10:15:43.5	300.190	0.290	-0.040	0.340
2020/01/31 10:15:43.6	300.190	0.300	-0.060	0.320
2020/01/31 10:15:43.7	300.200	0.310	-0.070	0.290
2020/01/31 10:15:43.8	300.210	0.320	-0.090	0.270
2020/01/31 10:15:43.9	300.220	0.330	-0.110	0.240
2020/01/31 10:15:44.0	300.220	0.330	-0.130	0.210
2020/01/31 10:15:44.1	300.230	0.340	-0.150	0.190
2020/01/31 10:15:44.2	300.240	0.340	-0.170	0.160
2020/01/31 10:15:44.3	300.250	0.350	-0.190	0.130
2020/01/31 10:15:44.4	300.250	0.350	-0.220	0.100
2020/01/31 10:15:44.5	300.260	0.350	-0.240	0.080
2020/01/31 10:15:44.6	300.270	0.350	-0.260	0.050
2020/01/31 10:15:44.7	300.280	0.350	-0.290	0.020
2020/01/31 10:15:44.8	300.300	0.340	-0.310	-0.000
2020/01/31 10:15:44.9	300.310	0.340	-0.330	-0.030
2020/01/31 10:15:45.0	300.320	0.330	-0.350	-0.060
2020/01/31 10:15:45.1	300.330	0.320	-0.360	-0.090
2020/01/31 10:15:45.2	300.340	0.310	-0.380	-0.110
2020/01/31 10:15:45.3	300.360	0.290	-0.400	-0.140
2020/01/31 10:15:45.4	300.370	0.280	-0.410	-0.170
2020/01/31 10:15:45.5	300.380	0.260	-0.420	-0.190
2020/01/31 10:15:45.6	300.400	0.240	-0.430	-0.220
2020/01/31 10:15:45.7	300.410	0.220	-0.440	-0.250
2020/01/31 10:15:45.8	300.430	0.200	-0.450	-0.270
2020/01/31 10:15:45.9	300.440	0.170	-0.460	-0.300
2020/01/31 10:15:46.0	300.460	0.150	-0.470	-0.320
2020/01/31 10:15:46.1	300.480	0.120	-0.470	-0.350
2020/01/31 10:15:46.2	300.490	0.090	-0.470	-0.370
2020/01/31 10:15:46.3	300.510	0.060	-0.470	-0.390
2020/01/31 10:15:46.4	300.520	0.030	-0.470	-0.410
2020/01/31 10:15:46.5	300.530	-0.000	-0.470	-0.430
2020/01/31 10:15:46.6	300.550	-0.040	-0.460	-0.450
2020/01/31 10:15:46.7	300.570	-0.070	-0.460	-0.470
2020/01/31 10:15:46.8	300.580	-0.110	-0.450	-0.480
2020/01/31 10:15:46.9	300.600	-0.140	-0.440	-0.500
2020/01/31 10:15:47.0	300.610	-0.180	-0.430	-0.510
2020/01/31 10:15:47.1	300.630	-0.210	-0.420	-0.520
2020/01/31 10:15:47.2	300.640	-0.250	-0.410	-0.520
2020/01/31 10:15:47.3	300.650	-0.290	-0.400	-0.530
2020/01/31 10:15:47.4	300.660	-0.320	-0.390	-0.530
2020/01/31 10:15:47.5	300.670	-0.360	-0.380	-0.530
2020/01/31 10:15:47.6	300.680	-0.390	-0.370	-0.530
2020/01/31 10:15:47.7	300.690	-0.420	-0.360	-0.520
2020/01/31 10:15:47.8	300.700	-0.460	-0.340	-0.520
2020/01/31 10:15:47.9	300.710	-0.490	-0.330	-0.510
2020/01/31 10:15:48.0	300.710	-0.520	-0.320	-0.500
2020/01/31 10:15:48.1	300.720	-0.550	-0.310	-0.490
2020/01/31 10:15:48.2	300.730	-0.570	-0.300	-0.470
2020/01/31 10:15:48.3	300.730	-0.600	-0.290	-0.460
2020/01/31 10:15:48.4	300.740	-0.620	-0.290	-0.440
2020/01/31 10:15:48.5	300.740	-0.640	-0.280	-0.420
2020/01/31 10:15:48.6	300.750	-0.660	-0.280	-0.400
2020/01/31 10:15:48.7	300.750	-0.670	-0.270	-0.380
2020/01/31 10:15:48.8	300.760	-0.680	-0.270	-0.370
2020/01/31 10:15:48.9	300.760	-0.690	-0.270	-0.340
2020/01/31 10:15:49.0	300.770	-0.700	-0.270	-0.320
2020/01/31 10:15:49.1	300.780	-0.710	-0.280	-0.300
2020/01/31 10:15:49.2	300.790	-0.710	-0.280	-0.280
2020/01/31 10:15:49.3	300.800	-0.700	-0.290	-0.270
2020/01/31 10:15:49.4	300.820	-0.700	-0.290	-0.250
2020/01/31 10:15:49.5	300.830	-0.690	-0.300	-0.230
2020/01/31 10:15:49.6	300.840	-0.680	-0.310	-0.210
2020/01/31 10:15:49.7	300.860	-0.660	-0.320	-0.200
2020/01/31 10:15:49.8	300.880	-0.650	-0.340	-0.180
2020/01/31 10:15:49.9	300.900	-0.630	-0.350	-0.170
2020/01/31 10:15:50.0	300.920	-0.600	-0.370	-0.160
2020/01/31 10:15:50.1	300.950	-0.580	-0.380	-0.150
2020/01/31 10:15:50.2	300.970	-0.550	-0.400	-0.140
2020/01/31 10:15:50.3	301.000	-0.520	-0.410	-0.130
2020/01/31 10:15:50.4	301.030	-0.480	-0.430	-0.120
2020/01/31 10:15:50.5	301.060	-0.450	-0.450	-0.110
2020/01/31 10:15:50.6	301.090	-0.410	-0.460	-0.100
2020/01/31 10:15:50.7	301.120	-0.370	-0.470	-0.090
2020/01/31 10:15:50.8	301.150	-0.330	-0.480	-0.090
2020/01/31 10:15:50.9	301.180	-0.290	-0.490	-0.080
2020/01/31 10:15:51.0	301.210	-0.240	-0.500	-0.070
2020/01/31 10:15:51.1	301.240	-0.200	-0.510	-0.060
2020/01/31 10:15:51.2	301.270	-0.160	-0.510	-0.050
2020/01/31 10:15:51.3	301.310	-0.110	-0.510	-0.040
2020/01/31 10:15:51.4	301.340	-0.070	-0.510	-0.030
2020/01/31 10:15:51.5	301.370	-0.030	-0.500	-0.020
2020/01/31 10:15:51.6	301.400	0.020	-0.490	-0.010
2020/01/31 10:15:51.7	301.430	0.060	-0.490	0.010
2020/01/31 10:15:51.8	301.460	0.100	-0.470	0.030
2020/01/31 10:15:51.9	301.490	0.140	-0.460	0.040
2020/01/31 10:15:52.0	301.510	0.180	-0.440	0.060
2020/01/31 10:15:52.1	301.540	0.220	-0.420	0.090
2020/01/31 10:15:52.2	301.560	0.260	-0.390	0.110
2020/01/31 10:15:52.3	301.580	0.290	-0.370	0.140
2020/01/31 10:15:52.4	301.620	0.320	-0.340	0.170
2020/01/31 10:15:52.5	301.640	0.360	-0.310	0.200
2020/01/31 10:15:52.6	301.660	0.390	-0.270	0.230
2020/01/31 10:15:52.7	301.670	0.410	-0.240	0.270
2020/01/31 10:15:52.8	301.680	0.440	-0.200	0.300
2020/01/31 10:15:52.9	301.690	0.460	-0.160	0.340
2020/01/31 10:15:53.0	301.700	0.480	-0.130	0.370
2020/01/31 10:15:53.1	301.700	0.500	-0.090	0.410
2020/01/31 10:15:53.2	301.710	0.520	-0.050	0.450
2020/01/31 10:15:53.3	301.700	0.540	-0.010	0.490
2020/01/31 10:15:53.4	301.710	0.550	0.030	0.530
2020/01/31 10:15:53.5	301.700	0.560	0.070	0.570
2020/01/31 10:15:53.6	301.700	0.570	0.110	0.610
2020/01/31 10:15:53.7	301.690	0.580	0.150	0.650
2020/01/31 10:15:53.8	301.680	0.580	0.180	0.690
2020/01/31 10:15:53.9	301.660	0.590	0.220	0.730
2020/01/31 10:15:54.0	301.650	0.590	0.250	0.770
2020/01/31 10:15:54.1	301.630	0.590	0.280	0.810
2020/01/31 10:15:54.2	301.610	0.590	0.310	0.850
2020/01/31 10:15:54.3	301.590	0.580	0.330	0.880
2020/01/31 10:15:54.4	301.570	0.580	0.360	0.910
2020/01/31 10:15:54.5	301.550	0.570	0.380	0.940
2020/01/31 10:15:54.6	301.530	0.560	0.390	0.970
2020/01/31 10:15:54.7	301.500	0.550	0.400	1.000
2020/01/31 10:15:54.8	301.480	0.540	0.410	1.020
2020/01/31 10:15:54.9	301.460	0.530	0.420	1.040
2020/01/31 10:15:55.0	301.430	0.520	0.420	1.060
2020/01/31 10:15:55.1	301.410	0.510	0.410	1.080
2020/01/31 10:15:55.2	301.380	0.490	0.410	1.090
2020/01/31 10:15:55.3	301.360	0.480	0.400	1.100
2020/01/31 10:15:55.4	301.340	0.460	0.380	1.100
2020/01/31 10:15:55.5	301.320	0.450	0.360	1.100
2020/01/31 10:15:55.6	301.300	0.430	0.340	1.090
2020/01/31 10:15:55.7	301.280	0.410	0.320	1.080
2020/01/31 10:15:55.8	301.260	0.390	0.290	1.060
2020/01/31 10:15:55.9	301.250	0.380	0.260	1.040
2020/01/31 10:15:56.0	301.230	0.360	0.220	1.020
2020/01/31 10:15:56.1	301.220	0.340	0.180	0.990
2020/01/31 10:15:56.2	301.220	0.320	0.140	0.960
2020/01/31 10:15:56.3	301.210	0.310	0.100	0.920
2020/01/31 10:15:56.4	301.220	0.290	0.050	0.880
2020/01/31 10:15:56.5	301.220	0.270	0.000	0.830
2020/01/31 10:15:56.6	301.230	0.250	-0.050	0.780
2020/01/31 10:15:56.7	301.230	0.240	-0.100	0.730
2020/01/31 10:15:56.8	301.240	0.220	-0.160	0.670
2020/01/31 10:15:56.9	301.260	0.200	-0.210	0.610
2020/01/31 10:15:57.0	301.270	0.190	-0.270	0.550
2020/01/31 10:15:57.1	301.290	0.170	-0.320	0.480
2020/01/31 10:15:57.2	301.310	0.160	-0.380	0.410
2020/01/31 10:15:57.3	301.330	0.140	-0.430	0.340
2020/01/31 10:15:57.4	301.370	0.130	-0.480	0.260
2020/01/31 10:15:57.5	301.390	0.110	-0.530	0.190
2020/01/31 10:15:57.6	301.420	0.090	-0.580	0.110
2020/01/31 10:15:57.7	301.450	0.080	-0.630	0.030
2020/01/31 10:15:57.8	301.480	0.060	-0.670	-0.050
2020/01/31 10:15:57.9	301.520	0.050	-0.720	-0.140
2020/01/31 10:15:58.0	301.550	0.030	-0.760	-0.220
2020/01/31 10:15:58.1	301.590	0.020	-0.790	-0.300
2020/01/31 10:15:58.2	301.630	0.000	-0.830	-0.380
2020/01/31 10:15:58.3	301.670	-0.020	-0.860	-0.470
2020/01/31 10:15:58.4	301.690	-0.030	-0.890	-0.550
2020/01/31 10:15:58.5	301.740	-0.050	-0.910	-0.630
2020/01/31 10:15:58.6	301.790	-0.070	-0.930	-0.710
2020/01/31 10:15:58.7	301.830	-0.080	-0.950	-0.790
2020/01/31 10:15:58.8	301.880	-0.100	-0.960	-0.860
2020/01/31 10:15:58.9	301.930	-0.120	-0.970	-0.940
2020/01/31 10:15:59.0	301.980	-0.130	-0.980	-1.010
2020/01/31 10:15:59.1	302.040	-0.150	-0.980	-1.070
2020/01/31 10:15:59.2	302.090	-0.170	-0.980	-1.130
2020/01/31 10:15:59.3	302.140	-0.190	-0.980	-1.190
2020/01/31 10:15:59.4	302.190	-0.200	-0.970	-1.240
2020/01/31 10:15:59.5	302.240	-0.220	-0.960	-1.290
2020/01/31 10:15:59.6	302.290	-0.240	-0.940	-1.340
2020/01/31 10:15:59.7	302.340	-0.260	-0.930	-1.370
2020/01/31 10:15:59.8	302.390	-0.280	-0.910	-1.410
2020/01/31 10:15:59.9	302.440	-0.290	-0.890	-1.430
2020/01/31 10:16:00.0	302.490	-0.310	-0.860	-1.460
2020/01/31 10:16:00.1	302.540	-0.330	-0.830	-1.470
2020/01/31 10:16:00.2	302.580	-0.350	-0.800	-1.480
2020/01/31 10:16:00.3	302.620	-0.360	-0.770	-1.490
2020/01/31 10:16:00.4	302.680	-0.380	-0.730	-1.490
2020/01/31 10:16:00.5	302.720	-0.390	-0.690	-1.480
2020/01/31 10:16:00.6	302.760	-0.410	-0.650	-1.470
2020/01/31 10:16:00.7	302.790	-0.430	-0.610	-1.460
2020/01/31 10:16:00.8	302.820	-0.440	-0.570	-1.430
2020/01/31 10:16:00.9	302.850	-0.460	-0.520	-1.410
2020/01/31 10:16:01.0	302.870	-0.470	-0.480	-1.380
2020/01/31 10:16:01.1	302.890	-0.480	-0.430	-1.350
2020/01/31 10:16:01.2	302.910	-0.490	-0.380	-1.310
2020/01/31 10:16:01.3	302.920	-0.510	-0.330	-1.270
2020/01/31 10:16:01.4	302.930	-0.520	-0.280	-1.210
2020/01/31 10:16:01.5	302.940	-0.530	-0.240	-1.170
2020/01/31 10:16:01.6	302.950	-0.540	-0.190	-1.110
2020/01/31 10:16:01.7	302.950	-0.550	-0.140	-1.060
2020/01/31 10:16:01.8	302.960	-0.550	-0.100	-1.000
2020/01/31 10:16:01.9	302.960	-0.560	-0.050	-0.950
2020/01/31 10:16:02.0	302.960	-0.570	-0.010	-0.890
2020/01/31 10:16:02.1	302.950	-0.570	0.030	-0.820
2020/01/31 10:16:02.2	302.950	-0.570	0.070	-0.760
2020/01/31 10:16:02.3	302.940	-0.580	0.100	-0.700
2020/01/31 10:16:02.4	302.940	-0.580	0.140	-0.630
2020/01/31 10:16:02.5	302.930	-0.580	0.170	-0.560
2020/01/31 10:16:02.6	302.920	-0.570	0.200	-0.500
2020/01/31 10:16:02.7	302.900	-0.570	0.230	-0.430
2020/01/31 10:16:02.8	302.890	-0.570	0.250	-0.360
2020/01/31 10:16:02.9	302.870	-0.560	0.270	-0.290
2020/01/31 10:16:03.0	302.850	-0.550	0.290	-0.230
2020/01/31 10:16:03.1	302.830	-0.540	0.310	-0.160
2020/01/31 10:16:03.2	302.810	-0.530	0.320	-0.090
2020/01/31 10:16:03.3	302.780	-0.520	0.330	-0.020
2020/01/31 10:16:03.4	302.760	-0.510	0.340	0.050
2020/01/31 10:16:03.5	302.730	-0.490	0.350	0.110
2020/01/31 10:16:03.6	302.700	-0.480	0.350	0.180
2020/01/31 10:16:03.7	302.670	-0.460	0.350	0.250
2020/01/31 10:16:03.8	302.640	-0.440	0.350	0.310
2020/01/31 10:16:03.9	302.610	-0.420	0.350	0.380
2020/01/31 10:16:04.0	302.570	-0.400	0.340	0.440
2020/01/31 10:16:04.1	302.540	-0.370	0.330	0.500
2020/01/31 10:16:04.2	302.510	-0.350	0.320	0.560
2020/01/31 10:16:04.3	302.470	-0.320	0.310	0.620
2020/01/31 10:16:04.4	302.420	-0.290	0.290	0.670
2020/01/31 10:16:04.5	302.380	-0.260	0.280	0.720
2020/01/31 10:16:04.6	302.350	-0.230	0.260	0.770
2020/01/31 10:16:04.7	302.320	-0.200	0.240	0.810
2020/01/31 10:16:04.8	302.290	-0.160	0.210	0.850
2020/01/31 10:16:04.9	302.260	-0.130	0.180	0.890
2020/01/31 10:16:05.0	302.240	-0.090	0.160	0.930
2020/01/31 10:16:05.1	302.220	-0.050	0.120	0.960
2020/01/31 10:16:05.2	302.200	-0.010	0.090	0.980
2020/01/31 10:16:05.3	302.180	0.020	0.060	1.000
2020/01/31 10:16:05.4	302.160	0.070	0.020	1.020
2020/01/31 10:16:05.5	302.150	0.110	-0.020	1.040
2020/01/31 10:16:05.6	302.140	0.150	-0.060	1.050
2020/01/31 10:16:05.7	302.140	0.190	-0.100	1.050
2020/01/31 10:16:05.8	302.130	0.230	-0.140	1.060
2020/01/31 10:16:05.9	302.130	0.270	-0.190	1.060
2020/01/31 10:16:06.0	302.130	0.310	-0.230	1.060
2020/01/31 10:16:06.1	302.140	0.360	-0.270	1.050
2020/01/31 10:16:06.2	302.140	0.400	-0.320	1.040
2020/01/31 10:16:06.3	302.150	0.430	-0.360	1.030
2020/01/31 10:16:06.4	302.160	0.470	-0.400	1.020
2020/01/31 10:16:06.5	302.170	0.510	-0.440	1.010
2020/01/31 10:16:06.6	302.190	0.540	-0.470	0.990
2020/01/31 10:16:06.7	302.200	0.570	-0.510	0.970
2020/01/31 10:16:06.8	302.220	0.600	-0.540	0.950
2020/01/31 10:16:06.9	302.240	0.630	-0.570	0.920
2020/01/31 10:16:07.0	302.260	0.660	-0.590	0.900
2020/01/31 10:16:07.1	302.280	0.680	-0.610	0.870
2020/01/31 10:16:07.2	302.300	0.700	-0.630	0.840
2020/01/31 10:16:07.3	302.330	0.720	-0.640	0.810
2020/01/31 10:16:07.4	302.350	0.730	-0.650	0.780
2020/01/31 10:16:07.5	302.370	0.740	-0.650	0.750
2020/01/31 10:16:07.6	302.400	0.750	-0.650	0.710
2020/01/31 10:16:07.7	302.420	0.750	-0.650	0.680
2020/01/31 10:16:07.8	302.450	0.750	-0.640	0.640
2020/01/31 10:16:07.9	302.470	0.750	-0.630	0.610
2020/01/31 10:16:08.0	302.500	0.750	-0.610	0.570
2020/01/31 10:16:08.1	302.520	0.740	-0.590	0.540
2020/01/31 10:16:08.2	302.550	0.730	-0.570	0.500
2020/01/31 10:16:08.3	302.570	0.710	-0.540	0.470
2020/01/31 10:16:08.4	302.580	0.700	-0.520	0.430
2020/01/31 10:16:08.5	302.610	0.680	-0.490	0.400
2020/01/31 10:16:08.6	302.630	0.650	-0.450	0.370
2020/01/31 10:16:08.7	302.650	0.630	-0.420	0.330
2020/01/31 10:16:08.8	302.670	0.600	-0.380	0.300
2020/01/31 10:16:08.9	302.680	0.570	-0.350	0.270
2020/01/31 10:16:09.0	302.700	0.540	-0.310	0.240
2020/01/31 10:16:09.1	302.710	0.510	-0.270	0.210
2020/01/31 10:16:09.2	302.730	0.480	-0.240	0.190
2020/01/31 10:16:09.3	302.740	0.440	-0.200	0.160
2020/01/31 10:16:09.4	302.730	0.400	-0.160	0.140
2020/01/31 10:16:09.5	302.740	0.370	-0.130	0.110
2020/01/31 10:16:09.6	302.750	0.330	-0.100	0.090
2020/01/31 10:16:09.7	302.750	0.290	-0.070	0.070
2020/01/31 10:16:09.8	302.760	0.260	-0.050	0.050
2020/01/31 10:16:09.9	302.760	0.220	-0.020	0.030
2020/01/31 10:16:10.0	302.770	0.180	-0.000	0.010
2020/01/31 10:16:10.1	302.770	0.150	0.020	-0.010
2020/01/31 10:16:10.2	302.770	0.110	0.030	-0.030
2020/01/31 10:16:10.3	302.770	0.070	0.040	-0.040
2020/01/31 10:16:10.4	302.770	0.040	0.050	-0.060
2020/01/31 10:16:10.5	302.770	0.010	0.050	-0.070
2020/01/31 10:16:10.6	302.760	-0.020	0.060	-0.080
2020/01/31 10:16:10.7	302.760	-0.050	0.050	-0.090
2020/01/31 10:16:10.8	302.760	-0.080	0.050	-0.110
2020/01/31 10:16:10.9	302.760	-0.110	0.040	-0.120
2020/01/31 10:16:11.0	302.760	-0.130	0.020	-0.130
2020/01/31 10:16:11.1	302.760	-0.150	0.010	-0.140
2020/01/31 10:16:11.2	302.760	-0.170	-0.010	-0.140
2020/01/31 10:16:11.3	302.760	-0.190	-0.040	-0.150
2020/01/31 10:16:11.4	302.770	-0.210	-0.060	-0.160
2020/01/31 10:16:11.5	302.770	-0.220	-0.090	-0.170
2020/01/31 10:16:11.6	302.770	-0.230	-0.130	-0.170
2020/01/31 10:16:11.7	302.780	-0.240	-0.160	-0.180
2020/01/31 10:16:11.8	302.790	-0.250	-0.200	-0.190
2020/01/31 10:16:11.9	302.790	-0.250	-0.240	-0.190
2020/01/31 10:16:12.0	302.800	-0.250	-0.280	-0.200
2020/01/31 10:16:12.1	302.810	-0.250	-0.320	-0.200
2020/01/31 10:16:12.2	302.820	-0.250	-0.360	-0.200
2020/01/31 10:16:12.3	302.830	-0.240	-0.400	-0.210
2020/01/31 10:16:12.4	302.840	-0.240	-0.440	-0.210
2020/01/31 10:16:12.5	302.860	-0.230	-0.480	-0.210
2020/01/31 10:16:12.6	302.870	-0.220	-0.520	-0.210
2020/01/31 10:16:12.7	302.880	-0.210	-0.560	-0.210
2020/01/31 10:16:12.8	302.890	-0.200	-0.590	-0.210
2020/01/31 10:16:12.9	302.900	-0.180	-0.620	-0.210
2020/01/31 10:16:13.0	302.920	-0.170	-0.650	-0.200
2020/01/31 10:16:13.1	302.930	-0.150	-0.680	-0.200
2020/01/31 10:16:13.2	302.940	-0.140	-0.700	-0.190
2020/01/31 10:16:13.3	302.950	-0.120	-0.720	-0.180
2020/01/31 10:16:13.4	302.960	-0.110	-0.730	-0.170
2020/01/31 10:16:13.5	302.970	-0.090	-0.740	-0.160
2020/01/31 10:16:13.6	302.980	-0.080	-0.750	-0.150
2020/01/31 10:16:13.7	302.990	-0.060	-0.750	-0.140
2020/01/31 10:16:13.8	303.010	-0.050	-0.750	-0.120
2020/01/31 10:16:13.9	303.020	-0.040	-0.750	-0.110
2020/01/31 10:16:14.0	303.030	-0.030	-0.740	-0.090
2020/01/31 10:16:14.1	303.040	-0.020	-0.720	-0.070
2020/01/31 10:16:14.2	303.050	-0.010	-0.710	-0.060
2020/01/31 10:16:14.3	303.060	-0.010	-0.690	-0.040
2020/01/31 10:16:14.4	303.080	-0.000	-0.660	-0.020
2020/01/31 10:16:14.5	303.090	-0.000	-0.640	-0.000
2020/01/31 10:16:14.6	303.100	-0.000	-0.600	0.020
2020/01/31 10:16:14.7	303.110	-0.000	-0.570	0.040
2020/01/31 10:16:14.8	303.110	-0.010	-0.540	0.060
2020/01/31 10:16:14.9	303.120	-0.010	-0.500	0.070
2020/01/31 10:16:15.0	303.120	-0.020	-0.460	0.090
2020/01/31 10:16:15.1	303.120	-0.030	-0.420	0.110
2020/01/31 10:16:15.2	303.120	-0.040	-0.370	0.130
2020/01/31 10:16:15.3	303.120	-0.050	-0.330	0.150
2020/01/31 10:16:15.4	303.120	-0.070	-0.280	0.170
2020/01/31 10:16:15.5	303.120	-0.080	-0.240	0.180
2020/01/31 10:16:15.6	303.120	-0.100	-0.190	0.200
2020/01/31 10:16:15.7	303.110	-0.120	-0.140	0.220
2020/01/31 10:16:15.8	303.110	-0.140	-0.100	0.230
2020/01/31 10:16:15.9	303.100	-0.160	-0.050	0.240
2020/01/31 10:16:16.0	303.090	-0.180	-0.010	0.260
2020/01/31 10:16:16.1	303.080	-0.210	0.030	0.270
2020/01/31 10:16:16.2	303.070	-0.230	0.080	0.280
2020/01/31 10:16:16.3	303.050	-0.250	0.110	0.300
2020/01/31 10:16:16.4	303.030	-0.270	0.150	0.310
2020/01/31 10:16:16.5	303.020	-0.300	0.190	0.320
2020/01/31 10:16:16.6	303.000	-0.320	0.220	0.330
2020/01/31 10:16:16.7	302.980	-0.340	0.250	0.340
2020/01/31 10:16:16.8	302.970	-0.360	0.270	0.350
2020/01/31 10:16:16.9	302.950	-0.380	0.300	0.360
2020/01/31 10:16:17.0	302.930	-0.390	0.310	0.370
2020/01/31 10:16:17.1	302.910	-0.410	0.330	0.380
2020/01/31 10:16:17.2	302.890	-0.420	0.340	0.380
2020/01/31 10:16:17.3	302.870	-0.430	0.350	0.390
2020/01/31 10:16:17.4	302.850	-0.440	0.350	0.390
2020/01/31 10:16:17.5	302.830	-0.450	0.350	0.390
2020/01/31 10:16:17.6	302.810	-0.460	0.340	0.390
2020/01/31 10:16:17.7	302.800	-0.460	0.330	0.380
2020/01/31 10:16:17.8	302.780	-0.460	0.320	0.380
2020/01/31 10:16:17.9	302.770	-0.460	0.310	0.370
2020/01/31 10:16:18.0	302.760	-0.460	0.290	0.360
2020/01/31 10:16:18.1	302.750	-0.450	0.260	0.340
2020/01/31 10:16:18.2	302.750	-0.450	0.240	0.330
2020/01/31 10:16:18.3	302.740	-0.440	0.210	0.310
2020/01/31 10:16:18.4	302.750	-0.430	0.180	0.290
2020/01/31 10:16:18.5	302.750	-0.410	0.150	0.270
2020/01/31 10:16:18.6	302.750	-0.400	0.120	0.240
2020/01/31 10:16:18.7	302.750	-0.380	0.080	0.220
2020/01/31 10:16:18.8	302.760	-0.370	0.050	0.190
2020/01/31 10:16:18.9	302.770	-0.350	0.010	0.160
2020/01/31 10:16:19.0	302.780	-0.330	-0.020	0.140
2020/01/31 10:16:19.1	302.790	-0.300	-0.050	0.110
2020/01/31 10:16:19.2	302.800	-0.280	-0.090	0.080
2020/01/31 10:16:19.3	302.820	-0.260	-0.120	0.060
2020/01/31 10:16:19.4	302.820	-0.230	-0.150	0.030
2020/01/31 10:16:19.5	302.840	-0.210	-0.180	0.010
2020/01/31 10:16:19.6	302.860	-0.180	-0.210	-0.010
2020/01/31 10:16:19.7	302.880	-0.160	-0.230	-0.030
2020/01/31 10:16:19.8	302.900	-0.130	-0.250	-0.050
2020/01/31 10:16:19.9	302.920	-0.100	-0.270	-0.060
2020/01/31 10:16:20.0	302.940	-0.070	-0.290	-0.070
2020/01/31 10:16:20.1	302.960	-0.050	-0.310	-0.080
2020/01/31 10:16:20.2	302.990	-0.020	-0.320	-0.080
2020/01/31 10:16:20.3	303.010	0.010	-0.330	-0.090
2020/01/31 10:16:20.4	303.030	0.040	-0.340	-0.090
2020/01/31 10:16:20.5	303.050	0.070	-0.350	-0.080
2020/01/31 10:16:20.6	303.080	0.090	-0.350	-0.070
2020/01/31 10:16:20.7	303.100	0.120	-0.350	-0.060
2020/01/31 10:16:20.8	303.120	0.150	-0.360	-0.050
2020/01/31 10:16:20.9	303.140	0.180	-0.360	-0.040
2020/01/31 10:16:21.0	303.160	0.210	-0.360	-0.020
2020/01/31 10:16:21.1	303.190	0.240	-0.360	0.000
2020/01/31 10:16:21.2	303.210	0.260	-0.360	0.020
2020/01/31 10:16:21.3	303.230	0.290	-0.360	0.050
2020/01/31 10:16:21.4	303.270	0.320	-0.360	0.070
2020/01/31 10:16:21.5	303.290	0.350	-0.360	0.100
2020/01/31 10:16:21.6	303.310	0.380	-0.360	0.120
2020/01/31 10:16:21.7	303.340	0.410	-0.360	0.150
2020/01/31 10:16:21.8	303.360	0.430	-0.370	0.180
2020/01/31 10:16:21.9	303.380	0.460	-0.370	0.200
2020/01/31 10:16:22.0	303.410	0.490	-0.380	0.230
2020/01/31 10:16:22.1	303.430	0.520	-0.390	0.260
2020/01/31 10:16:22.2	303.450	0.540	-0.390	0.290
2020/01/31 10:16:22.3	303.470	0.570	-0.410	0.310
2020/01/31 10:16:22.4	303.510	0.590	-0.420	0.340
2020/01/31 10:16:22.5	303.530	0.620	-0.430	0.370
2020/01/31 10:16:22.6	303.550	0.640	-0.440	0.400
2020/01/31 10:16:22.7	303.570	0.660	-0.460	0.420
2020/01/31 10:16:22.8	303.590	0.680	-0.470	0.450
2020/01/31 10:16:22.9	303.610	0.700	-0.490	0.480
2020/01/31 10:16:23.0	303.630	0.720	-0.500	0.500
2020/01/31 10:16:23.1	303.650	0.730	-0.510	0.520
2020/01/31 10:16:23.2	303.660	0.740	-0.530	0.550
2020/01/31 10:16:23.3	303.680	0.750	-0.540	0.570
2020/01/31 10:16:23.4	303.680	0.760	-0.550	0.590
2020/01/31 10:16:23.5	303.690	0.760	-0.560	0.610
2020/01/31 10:16:23.6	303.700	0.760	-0.570	0.620
2020/01/31 10:16:23.7	303.710	0.760	-0.580	0.640
2020/01/31 10:16:23.8	303.720	0.750	-0.580	0.650
2020/01/31 10:16:23.9	303.730	0.750	-0.590	0.660
2020/01/31 10:16:24.0	303.730	0.730	-0.590	0.670
2020/01/31 10:16:24.1	303.740	0.720	-0.590	0.680
2020/01/31 10:16:24.2	303.740	0.700	-0.590	0.680
2020/01/31 10:16:24.3	303.740	0.680	-0.580	0.690
2020/01/31 10:16:24.4	303.730	0.660	-0.570	0.680
2020/01/31 10:16:24.5	303.730	0.630	-0.560	0.680
2020/01/31 10:16:24.6	303.730	0.600	-0.550	0.680
2020/01/31 10:16:24.7	303.720	0.570	-0.530	0.670
2020/01/31 10:16:24.8	303.710	0.540	-0.510	0.660
2020/01/31 10:16:24.9	303.700	0.500	-0.480	0.650
2020/01/31 10:16:25.0	303.700	0.460	-0.460	0.630
2020/01/31 10:16:25.1	303.680	0.420	-0.430	0.610
2020/01/31 10:16:25.2	303.670	0.380	-0.400	0.590
2020/01/31 10:16:25.3	303.660	0.330	-0.370	0.570
2020/01/31 10:16:25.4	303.660	0.280	-0.330	0.540
2020/01/31 10:16:25.5	303.640	0.240	-0.300	0.510
2020/01/31 10:16:25.6	303.630	0.190	-0.260	0.480
2020/01/31 10:16:25.7	303.610	0.140	-0.230	0.450
2020/01/31 10:16:25.8	303.600	0.090	-0.190	0.410
2020/01/31 10:16:25.9	303.580	0.040	-0.150	0.370
2020/01/31 10:16:26.0	303.570	-0.010	-0.120	0.330
2020/01/31 10:16:26.1	303.550	-0.060	-0.080	0.290
2020/01/31 10:16:26.2	303.530	-0.110	-0.050	0.250
2020/01/31 10:16:26.3	303.520	-0.160	-0.010	0.210
2020/01/31 10:16:26.4	303.510	-0.210	0.020	0.170
2020/01/31 10:16:26.5	303.490	-0.260	0.040	0.120
2020/01/31 10:16:26.6	303.480	-0.300	0.070	0.080
2020/01/31 10:16:26.7	303.460	-0.350	0.090	0.040
2020/01/31 10:16:26.8	303.440	-0.390	0.110	-0.010
2020/01/31 10:16:26.9	303.420	-0.430	0.130	-0.050
2020/01/31 10:16:27.0	303.410	-0.470	0.140	-0.100
2020/01/31 10:16:27.1	303.390	-0.510	0.160	-0.140
2020/01/31 10:16:27.2	303.370	-0.540	0.160	-0.180
2020/01/31 10:16:27.3	303.360	-0.570	0.170	-0.220
2020/01/31 10:16:27.4	303.330	-0.600	0.170	-0.270
2020/01/31 10:16:27.5	303.310	-0.630	0.160	-0.310
2020/01/31 10:16:27.6	303.290	-0.660	0.160	-0.350
2020/01/31 10:16:27.7	303.280	-0.680	0.150	-0.390
2020/01/31 10:16:27.8	303.270	-0.700	0.130	-0.420
2020/01/31 10:16:27.9	303.250	-0.710	0.120	-0.460
2020/01/31 10:16:28.0	303.240	-0.720	0.100	-0.490
2020/01/31 10:16:28.1	303.220	-0.730	0.080	-0.530
2020/01/31 10:16:28.2	303.210	-0.740	0.060	-0.560
2020/01/31 10:16:28.3	303.200	-0.740	0.030	-0.590
2020/01/31 10:16:28.4	303.180	-0.740	0.000	-0.610
2020/01/31 10:16:28.5	303.170	-0.740	-0.020	-0.640
2020/01/31 10:16:28.6	303.160	-0.740	-0.050	-0.660
2020/01/31 10:16:28.7	303.160	-0.730	-0.080	-0.680
2020/01/31 10:16:28.8	303.150	-0.720	-0.120	-0.700
2020/01/31 10:16:28.9	303.140	-0.710	-0.150	-0.720
2020/01/31 10:16:29.0	303.140	-0.690	-0.180	-0.730
2020/01/31 10:16:29.1	303.140	-0.680	-0.210	-0.750
2020/01/31 10:16:29.2	303.140	-0.660	-0.240	-0.760
2020/01/31 10:16:29.3	303.140	-0.630	-0.270	-0.760
2020/01/31 10:16:29.4	303.140	-0.610	-0.300	-0.770
2020/01/31 10:16:29.5	303.140	-0.580	-0.330	-0.770
2020/01/31 10:16:29.6	303.150	-0.560	-0.360	-0.770
2020/01/31 10:16:29.7	303.160	-0.530	-0.390	-0.760
2020/01/31 10:16:29.8	303.170	-0.500	-0.410	-0.760
2020/01/31 10:16:29.9	303.180	-0.470	-0.440	-0.750
2020/01/31 10:16:30.0	303.200	-0.430	-0.460	-0.730
2020/01/31 10:16:30.1	303.210	-0.400	-0.470	-0.710
2020/01/31 10:16:30.2	303.230	-0.370	-0.490	-0.690
2020/01/31 10:16:30.3	303.240	-0.330	-0.500	-0.670
2020/01/31 10:16:30.4	303.270	-0.300	-0.510	-0.640
2020/01/31 10:16:30.5	303.290	-0.260	-0.520	-0.610
2020/01/31 10:16:30.6	303.310	-0.230	-0.520	-0.570
2020/01/31 10:16:30.7	303.320	-0.200	-0.520	-0.540
2020/01/31 10:16:30.8	303.340	-0.160	-0.520	-0.500
2020/01/31 10:16:30.9	303.360	-0.130	-0.510	-0.450
2020/01/31 10:16:31.0	303.380	-0.100	-0.510	-0.400
2020/01/31 10:16:31.1	303.400	-0.070	-0.500	-0.350
2020/01/31 10:16:31.2	303.420	-0.040	-0.480	-0.300
2020/01/31 10:16:31.3	303.440	-0.010	-0.470	-0.250
2020/01/31 10:16:31.4	303.460	0.010	-0.450	-0.190
2020/01/31 10:16:31.5	303.480	0.040	-0.430	-0.130
2020/01/31 10:16:31.6	303.490	0.060	-0.400	-0.070
2020/01/31 10:16:31.7	303.510	0.080	-0.380	-0.010
2020/01/31 10:16:31.8	303.520	0.100	-0.350	0.060
2020/01/31 10:16:31.9	303.530	0.120	-0.330	0.120
2020/01/31 10:16:32.0	303.550	0.140	-0.300	0.190
2020/01/31 10:16:32.1	303.560	0.150	-0.270	0.250
2020/01/31 10:16:32.2	303.560	0.170	-0.250	0.320
2020/01/31 10:16:32.3	303.570	0.180	-0.220	0.380
2020/01/31 10:16:32.4	303.580	0.190	-0.190	0.450
2020/01/31 10:16:32.5	303.590	0.190	-0.170	0.510
2020/01/31 10:16:32.6	303.590	0.200	-0.140	0.570
2020/01/31 10:16:32.7	303.590	0.210	-0.120	0.640
2020/01/31 10:16:32.8	303.590	0.210	-0.100	0.700
2020/01/31 10:16:32.9	303.590	0.210	-0.080	0.760
2020/01/31 10:16:33.0	303.580	0.210	-0.060	0.820
2020/01/31 10:16:33.1	303.570	0.220	-0.040	0.870
2020/01/31 10:16:33.2	303.570	0.220	-0.030	0.930
2020/01/31 10:16:33.3	303.560	0.210	-0.020	0.980
2020/01/31 10:16:33.4	303.550	0.210	-0.010	1.030
2020/01/31 10:16:33.5	303.530	0.210	-0.000	1.080
2020/01/31 10:16:33.6	303.520	0.210	0.010	1.120
2020/01/31 10:16:33.7	303.500	0.200	0.010	1.160
2020/01/31 10:16:33.8	303.480	0.200	0.010	1.200
2020/01/31 10:16:33.9	303.460	0.190	0.010	1.230
2020/01/31 10:16:34.0	303.430	0.190	0.010	1.260
2020/01/31 10:16:34.1	303.410	0.190	0.000	1.290
2020/01/31 10:16:34.2	303.380	0.180	-0.000	1.310
2020/01/31 10:16:34.3	303.350	0.180	-0.010	1.330
2020/01/31 10:16:34.4	303.320	0.170	-0.020	1.340
2020/01/31 10:16:34.5	303.290	0.170	-0.020	1.350
2020/01/31 10:16:34.6	303.260	0.170	-0.030	1.350
2020/01/31 10:16:34.7	303.220	0.170	-0.040	1.360
2020/01/31 10:16:34.8	303.190	0.170	-0.060	1.360
2020/01/31 10:16:34.9	303.150	0.170	-0.070	1.360
2020/01/31 10:16:35.0	303.110	0.170	-0.080	1.350
2020/01/31 10:16:35.1	303.070	0.170	-0.090	1.340
2020/01/31 10:16:35.2	303.030	0.170	-0.100	1.330
2020/01/31 10:16:35.3	302.990	0.170	-0.110	1.320
2020/01/31 10:16:35.4	302.960	0.180	-0.130	1.300
2020/01/31 10:16:35.5	302.920	0.180	-0.140	1.280
2020/01/31 10:16:35.6	302.880	0.190	-0.150	1.260
2020/01/31 10:16:35.7	302.850	0.190	-0.160	1.230
2020/01/31 10:16:35.8	302.810	0.200	-0.170	1.200
2020/01/31 10:16:35.9	302.780	0.210	-0.190	1.170
2020/01/31 10:16:36.0	302.740	0.210	-0.200	1.130
2020/01/31 10:16:36.1	302.710	0.220	-0.210	1.090
2020/01/31 10:16:36.2	302.690	0.230	-0.230	1.050
2020/01/31 10:16:36.3	302.660	0.240	-0.240	1.000
2020/01/31 10:16:36.4	302.660	0.250	-0.260	0.950
2020/01/31 10:16:36.5	302.640	0.250	-0.270	0.900
2020/01/31 10:16:36.6	302.620	0.260	-0.290	0.840
2020/01/31 10:16:36.7	302.610	0.270	-0.310	0.780
2020/01/31 10:16:36.8	302.600	0.280	-0.330	0.720
2020/01/31 10:16:36.9	302.600	0.290	-0.350	0.650
2020/01/31 10:16:37.0	302.600	0.290	-0.360	0.580
2020/01/31 10:16:37.1	302.600	0.300	-0.380	0.520
2020/01/31 10:16:37.2	302.600	0.310	-0.400	0.450
2020/01/31 10:16:37.3	302.610	0.320	-0.420	0.380
2020/01/31 10:16:37.4	302.600	0.320	-0.440	0.310
2020/01/31 10:16:37.5	302.610	0.330	-0.460	0.240
2020/01/31 10:16:37.6	302.630	0.330	-0.470	0.170
2020/01/31 10:16:37.7	302.640	0.340	-0.490	0.100
2020/01/31 10:16:37.8	302.650	0.340	-0.500	0.040
2020/01/31 10:16:37.9	302.670	0.340	-0.510	-0.020
2020/01/31 10:16:38.0	302.690	0.340	-0.520	-0.080
2020/01/31 10:16:38.1	302.710	0.340	-0.520	-0.140
2020/01/31 10:16:38.2	302.730	0.340	-0.520	-0.190
2020/01/31 10:16:38.3	302.740	0.340	-0.520	-0.240
2020/01/31 10:16:38.4	302.740	0.340	-0.520	-0.280
2020/01/31 10:16:38.5	302.760	0.340	-0.510	-0.320
2020/01/31 10:16:38.6	302.780	0.330	-0.500	-0.360
2020/01/31 10:16:38.7	302.790	0.330	-0.480	-0.390
2020/01/31 10:16:38.8	302.810	0.320	-0.470	-0.420
2020/01/31 10:16:38.9	302.830	0.310	-0.450	-0.440
2020/01/31 10:16:39.0	302.840	0.300	-0.430	-0.450
2020/01/31 10:16:39.1	302.860	0.290	-0.400	-0.470
2020/01/31 10:16:39.2	302.870	0.280	-0.380	-0.470
2020/01/31 10:16:39.3	302.890	0.270	-0.350	-0.480
2020/01/31 10:16:39.4	302.890	0.260	-0.320	-0.480
2020/01/31 10:16:39.5	302.900	0.240	-0.290	-0.470
2020/01/31 10:16:39.6	302.910	0.230	-0.260	-0.460
2020/01/31 10:16:39.7	302.920	0.210	-0.230	-0.450
2020/01/31 10:16:39.8	302.930	0.190	-0.200	-0.440
2020/01/31 10:16:39.9	302.940	0.170	-0.170	-0.420
2020/01/31 10:16:40.0	302.950	0.150	-0.140	-0.400
2020/01/31 10:16:40.1	302.960	0.140	-0.120	-0.370
2020/01/31 10:16:40.2	302.970	0.120	-0.090	-0.350
2020/01/31 10:16:40.3	302.980	0.100	-0.070	-0.320
2020/01/31 10:16:40.4	302.990	0.080	-0.040	-0.290
2020/01/31 10:16:40.5	303.000	0.060	-0.020	-0.270
2020/01/31 10:16:40.6	303.010	0.040	-0.010	-0.240
2020/01/31 10:16:40.7	303.020	0.020	0.010	-0.200
2020/01/31 10:16:40.8	303.030	-0.000	0.020	-0.170
2020/01/31 10:16:40.9	303.040	-0.020	0.030	-0.140
2020/01/31 10:16:41.0	303.050	-0.040	0.040	-0.100
2020/01/31 10:16:41.1	303.060	-0.060	0.040	-0.070
2020/01/31 10:16:41.2	303.070	-0.080	0.040	-0.040
2020/01/31 10:16:41.3	303.080	-0.100	0.040	0.000
2020/01/31 10:16:41.4	303.080	-0.120	0.040	0.030
2020/01/31 10:16:41.5	303.090	-0.130	0.040	0.070
2020/01/31 10:16:41.6	303.090	-0.150	0.030	0.110
2020/01/31 10:16:41.7	303.100	-0.160	0.020	0.140
2020/01/31 10:16:41.8	303.100	-0.180	0.010	0.180
2020/01/31 10:16:41.9	303.100	-0.190	0.000	0.210
2020/01/31 10:16:42.0	303.100	-0.200	-0.010	0.250
2020/01/31 10:16:42.1	303.100	-0.210	-0.030	0.280
2020/01/31 10:16:42.2	303.100	-0.230	-0.050	0.310
2020/01/31 10:16:42.3	303.100	-0.240	-0.060	0.340
2020/01/31 10:16:42.4	303.100	-0.250	-0.080	0.370
2020/01/31 10:16:42.5	303.090	-0.250	-0.100	0.400
2020/01/31 10:16:42.6	303.090	-0.260	-0.120	0.430
2020/01/31 10:16:42.7	303.080	-0.270	-0.140	0.450
2020/01/31 10:16:42.8	303.070	-0.280	-0.170	0.480
2020/01/31 10:16:42.9	303.060	-0.280	-0.190	0.500
2020/01/31 10:16:43.0	303.050	-0.290	-0.210	0.520
2020/01/31 10:16:43.1	303.040	-0.290	-0.240	0.530
2020/01/31 10:16:43.2	303.020	-0.300	-0.260	0.550
2020/01/31 10:16:43.3	303.010	-0.300	-0.280	0.560
2020/01/31 10:16:43.4	302.990	-0.310	-0.300	0.570
2020/01/31 10:16:43.5	302.970	-0.310	-0.330	0.580
2020/01/31 10:16:43.6	302.950	-0.320	-0.350	0.590
2020/01/31 10:16:43.7	302.930	-0.320	-0.370	0.590
2020/01/31 10:16:43.8	302.900	-0.330	-0.390	0.590
2020/01/31 10:16:43.9	302.880	-0.330	-0.400	0.590
2020/01/31 10:16:44.0	302.850	-0.340	-0.420	0.580
2020/01/31 10:16:44.1	302.820	-0.340	-0.440	0.580
2020/01/31 10:16:44.2	302.790	-0.350	-0.450	0.570
2020/01/31 10:16:44.3	302.760	-0.350	-0.470	0.550
2020/01/31 10:16:44.4	302.730	-0.350	-0.480	0.540
2020/01/31 10:16:44.5	302.690	-0.360	-0.490	0.530
2020/01/31 10:16:44.6	302.660	-0.360	-0.500	0.510
2020/01/31 10:16:44.7	302.630	-0.370	-0.500	0.490
2020/01/31 10:16:44.8	302.590	-0.370	-0.510	0.480
2020/01/31 10:16:44.9	302.560	-0.370	-0.510	0.460
2020/01/31 10:16:45.0	302.520	-0.380	-0.510	0.440
2020/01/31 10:16:45.1	302.490	-0.380	-0.510	0.420
2020/01/31 10:16:45.2	302.450	-0.380	-0.510	0.400
2020/01/31 10:16:45.3	302.420	-0.380	-0.500	0.380
2020/01/31 10:16:45.4	302.380	-0.380	-0.500	0.360
2020/01/31 10:16:45.5	302.350	-0.380	-0.490	0.340
2020/01/31 10:16:45.6	302.320	-0.380	-0.480	0.320
2020/01/31 10:16:45.7	302.280	-0.380	-0.470	0.300
2020/01/31 10:16:45.8	302.250	-0.380	-0.450	0.280
2020/01/31 10:16:45.9	302.230	-0.380	-0.440	0.270
2020/01/31 10:16:46.0	302.200	-0.370	-0.420	0.250
2020/01/31 10:16:46.1	302.170	-0.370	-0.410	0.230
2020/01/31 10:16:46.2	302.150	-0.360	-0.390	0.220
2020/01/31 10:16:46.3	302.130	-0.350	-0.370	0.200
2020/01/31 10:16:46.4	302.100	-0.350	-0.350	0.190
2020/01/31 10:16:46.5	302.080	-0.340	-0.330	0.170
2020/01/31 10:16:46.6	302.060	-0.330	-0.320	0.160
2020/01/31 10:16:46.7	302.040	-0.320	-0.300	0.150
2020/01/31 10:16:46.8	302.030	-0.300	-0.280	0.140
2020/01/31 10:16:46.9	302.020	-0.290	-0.260	0.130
2020/01/31 10:16:47.0	302.010	-0.270	-0.240	0.120
2020/01/31 10:16:47.1	302.000	-0.260	-0.220	0.110
2020/01/31 10:16:47.2	302.000	-0.240	-0.210	0.100
2020/01/31 10:16:47.3	301.990	-0.220	-0.190	0.100
2020/01/31 10:16:47.4	301.970	-0.200	-0.180	0.090
2020/01/31 10:16:47.5	301.970	-0.180	-0.160	0.090
2020/01/31 10:16:47.6	301.970	-0.160	-0.150	0.090
2020/01/31 10:16:47.7	301.980	-0.130	-0.140	0.090
2020/01/31 10:16:47.8	301.990	-0.110	-0.130	0.090
2020/01/31 10:16:47.9	301.990	-0.080	-0.120	0.090
2020/01/31 10:16:48.0	302.000	-0.060	-0.120	0.100
2020/01/31 10:16:48.1	302.020	-0.030	-0.110	0.100
2020/01/31 10:16:48.2	302.030	-0.000	-0.110	0.110
2020/01/31 10:16:48.3	302.050	0.030	-0.100	0.110
2020/01/31 10:16:48.4	302.060	0.050	-0.100	0.120
2020/01/31 10:16:48.5	302.080	0.080	-0.100	0.130
2020/01/31 10:16:48.6	302.100	0.110	-0.100	0.140
2020/01/31 10:16:48.7	302.120	0.140	-0.100	0.150
2020/01/31 10:16:48.8	302.140	0.160	-0.100	0.160
2020/01/31 10:16:48.9	302.170	0.190	-0.110	0.180
2020/01/31 10:16:49.0	302.190	0.220	-0.110	0.190
2020/01/31 10:16:49.1	302.210	0.240	-0.120	0.210
2020/01/31 10:16:49.2	302.240	0.270	-0.120	0.220
2020/01/31 10:16:49.3	302.260	0.290	-0.130	0.240
2020/01/31 10:16:49.4	302.290	0.310	-0.130	0.260
2020/01/31 10:16:49.5	302.320	0.330	-0.140	0.280
2020/01/31 10:16:49.6	302.340	0.350	-0.140	0.300
2020/01/31 10:16:49.7	302.370	0.370	-0.150	0.320
2020/01/31 10:16:49.8	302.390	0.390	-0.150	0.340
2020/01/31 10:16:49.9	302.410	0.400	-0.150	0.360
2020/01/31 10:16:50.0	302.440	0.420	-0.160	0.390
2020/01/31 10:16:50.1	302.460	0.430	-0.160	0.410
2020/01/31 10:16:50.2	302.480	0.440	-0.160	0.430
2020/01/31 10:16:50.3	302.500	0.440	-0.160	0.450
2020/01/31 10:16:50.4	302.530	0.450	-0.160	0.470
2020/01/31 10:16:50.5	302.550	0.450	-0.160	0.490
2020/01/31 10:16:50.6	302.570	0.450	-0.160	0.510
2020/01/31 10:16:50.7	302.590	0.450	-0.160	0.530
2020/01/31 10:16:50.8	302.610	0.450	-0.150	0.550
2020/01/31 10:16:50.9	302.620	0.450	-0.140	0.570
2020/01/31 10:16:51.0	302.640	0.440	-0.140	0.580
2020/01/31 10:16:51.1	302.650	0.430	-0.130	0.600
2020/01/31 10:16:51.2	302.660	0.420	-0.120	0.620
2020/01/31 10:16:51.3	302.670	0.410	-0.110	0.630
2020/01/31 10:16:51.4	302.670	0.400	-0.100	0.640
2020/01/31 10:16:51.5	302.680	0.390	-0.090	0.660
2020/01/31 10:16:51.6	302.680	0.370	-0.070	0.670
2020/01/31 10:16:51.7	302.690	0.360	-0.060	0.680
2020/01/31 10:16:51.8	302.690	0.340	-0.050	0.690
2020/01/31 10:16:51.9	302.690	0.320	-0.040	0.700
2020/01/31 10:16:52.0	302.700	0.300	-0.030	0.700
2020/01/31 10:16:52.1	302.700	0.290	-0.020	0.710
2020/01/31 10:16:52.2	302.700	0.270	-0.010	0.720
2020/01/31 10:16:52.3	302.700	0.250	0.000	0.720
2020/01/31 10:16:52.4	302.700	0.230	0.010	0.730
2020/01/31 10:16:52.5	302.700	0.210	0.010	0.730
2020/01/31 10:16:52.6	302.700	0.200	0.020	0.730
2020/01/31 10:16:52.7	302.700	0.180	0.020	0.740
2020/01/31 10:16:52.8	302.700	0.170	0.020	0.740
2020/01/31 10:16:52.9	302.700	0.150	0.020	0.740
2020/01/31 10:16:53.0	302.690	0.140	0.010	0.730
2020/01/31 10:16:53.1	302.690	0.130	0.000	0.730
2020/01/31 10:16:53.2	302.690	0.120	-0.000	0.720
2020/01/31 10:16:53.3	302.680	0.110	-0.020	0.720
2020/01/31 10:16:53.4	302.680	0.100	-0.030	0.710
2020/01/31 10:16:53.5	302.680	0.090	-0.050	0.700
2020/01/31 10:16:53.6	302.670	0.090	-0.060	0.690
2020/01/31 10:16:53.7	302.670	0.080	-0.080	0.670
2020/01/31 10:16:53.8	302.660	0.080	-0.110	0.660
2020/01/31 10:16:53.9	302.660	0.080	-0.130	0.640
2020/01/31 10:16:54.0	302.650	0.080	-0.160	0.620
2020/01/31 10:16:54.1	302.650	0.080	-0.180	0.610
2020/01/31 10:16:54.2	302.640	0.080	-0.210	0.580
2020/01/31 10:16:54.3	302.630	0.080	-0.240	0.560
2020/01/31 10:16:54.4	302.630	0.080	-0.270	0.540
2020/01/31 10:16:54.5	302.620	0.090	-0.300	0.510
2020/01/31 10:16:54.6	302.610	0.090	-0.330	0.490
2020/01/31 10:16:54.7	302.600	0.090	-0.360	0.460
2020/01/31 10:16:54.8	302.590	0.100	-0.390	0.430
2020/01/31 10:16:54.9	302.580	0.100	-0.420	0.400
2020/01/31 10:16:55.0	302.570	0.110	-0.450	0.380
2020/01/31 10:16:55.1	302.560	0.110	-0.480	0.340
2020/01/31 10:16:55.2	302.550	0.110	-0.510	0.310
2020/01/31 10:16:55.3	302.530	0.110	-0.530	0.280
2020/01/31 10:16:55.4	302.520	0.110	-0.550	0.250
2020/01/31 10:16:55.5	302.500	0.110	-0.570	0.220
2020/01/31 10:16:55.6	302.490	0.110	-0.590	0.190
2020/01/31 10:16:55.7	302.470	0.110	-0.610	0.150
2020/01/31 10:16:55.8	302.460	0.110	-0.620	0.120
2020/01/31 10:16:55.9	302.440	0.100	-0.630	0.090
2020/01/31 10:16:56.0	302.420	0.090	-0.630	0.050
2020/01/31 10:16:56.1	302.400	0.090	-0.630	0.020
2020/01/31 10:16:56.2	302.380	0.080	-0.630	-0.010
2020/01/31 10:16:56.3	302.360	0.070	-0.620	-0.040
2020/01/31 10:16:56.4	302.340	0.060	-0.620	-0.070
2020/01/31 10:16:56.5	302.310	0.040	-0.600	-0.100
2020/01/31 10:16:56.6	302.290	0.030	-0.590	-0.130
2020/01/31 10:16:56.7	302.260	0.010	-0.570	-0.150
2020/01/31 10:16:56.8	302.230	-0.010	-0.550	-0.170
2020/01/31 10:16:56.9	302.200	-0.030	-0.530	-0.190
2020/01/31 10:16:57.0	302.170	-0.050	-0.500	-0.210
2020/01/31 10:16:57.1	302.140	-0.070	-0.470	-0.220
2020/01/31 10:16:57.2	302.110	-0.090	-0.440	-0.240
2020/01/31 10:16:57.3	302.070	-0.110	-0.410	-0.240
2020/01/31 10:16:57.4	302.030	-0.140	-0.380	-0.250
2020/01/31 10:16:57.5	302.000	-0.160	-0.350	-0.250
2020/01/31 10:16:57.6	301.960	-0.180	-0.320	-0.250
2020/01/31 10:16:57.7	301.920	-0.210	-0.280	-0.250
2020/01/31 10:16:57.8	301.890	-0.230	-0.250	-0.250
2020/01/31 10:16:57.9	301.850	-0.260	-0.220	-0.240
2020/01/31 10:16:58.0	301.810	-0.280	-0.200	-0.240
2020/01/31 10:16:58.1	301.770	-0.300	-0.170	-0.230
2020/01/31 10:16:58.2	301.740	-0.320	-0.150	-0.220
2020/01/31 10:16:58.3	301.700	-0.340	-0.130	-0.210
2020/01/31 10:16:58.4	301.650	-0.360	-0.110	-0.200
2020/01/31 10:16:58.5	301.620	-0.380	-0.100	-0.190
2020/01/31 10:16:58.6	301.590	-0.400	-0.090	-0.180
2020/01/31 10:16:58.7	301.560	-0.410	-0.080	-0.170
2020/01/31 10:16:58.8	301.530	-0.430	-0.080	-0.160
2020/01/31 10:16:58.9	301.500	-0.440	-0.080	-0.150
2020/01/31 10:16:59.0	301.480	-0.450	-0.080	-0.140
2020/01/31 10:16:59.1	301.450	-0.460	-0.090	-0.130
2020/01/31 10:16:59.2	301.430	-0.460	-0.100	-0.120
2020/01/31 10:16:59.3	301.410	-0.470	-0.120	-0.110
2020/01/31 10:16:59.4	301.400	-0.470	-0.130	-0.100
2020/01/31 10:16:59.5	301.390	-0.470	-0.150	-0.090
2020/01/31 10:16:59.6	301.370	-0.470	-0.180	-0.080
2020/01/31 10:16:59.7	301.360	-0.470	-0.200	-0.070
2020/01/31 10:16:59.8	301.360	-0.460	-0.230	-0.060
2020/01/31 10:16:59.9	301.350	-0.460	-0.250	-0.050
2020/01/31 10:17:00.0	301.340	-0.450	-0.280	-0.040
2020/01/31 10:17:00.1	301.340	-0.440	-0.310	-0.030
2020/01/31 10:17:00.2	301.340	-0.430	-0.340	-0.020
2020/01/31 10:17:00.3	301.340	-0.420	-0.360	-0.010
2020/01/31 10:17:00.4	301.340	-0.410	-0.390	0.000
2020/01/31 10:17:00.5	301.350	-0.400	-0.420	0.010
2020/01/31 10:17:00.6	301.360	-0.380	-0.440	0.020
2020/01/31 10:17:00.7	301.370	-0.370	-0.460	0.030
2020/01/31 10:17:00.8	301.380	-0.350	-0.480	0.040
2020/01/31 10:17:00.9	301.400	-0.340	-0.500	0.050
2020/01/31 10:17:01.0	301.410	-0.330	-0.520	0.050
2020/01/31 10:17:01.1	301.430	-0.310	-0.530	0.060
2020/01/31 10:17:01.2	301.450	-0.300	-0.540	0.070
2020/01/31 10:17:01.3	301.480	-0.280	-0.550	0.080
2020/01/31 10:17:01.4	301.500	-0.270	-0.550	0.080
2020/01/31 10:17:01.5	301.520	-0.250	-0.550	0.090
2020/01/31 10:17:01.6	301.550	-0.240	-0.540	0.100
2020/01/31 10:17:01.7	301.570	-0.230	-0.540	0.110
2020/01/31 10:17:01.8	301.600	-0.210	-0.530	0.120
2020/01/31 10:17:01.9	301.620	-0.200	-0.510	0.140
2020/01/31 10:17:02.0	301.650	-0.190	-0.490	0.150
2020/01/31 10:17:02.1	301.670	-0.180	-0.470	0.160
2020/01/31 10:17:02.2	301.700	-0.170	-0.450	0.180
2020/01/31 10:17:02.3	301.720	-0.160	-0.420	0.190
2020/01/31 10:17:02.4	301.740	-0.150	-0.400	0.220
2020/01/31 10:17:02.5	301.770	-0.130	-0.370	0.230
2020/01/31 10:17:02.6	301.790	-0.120	-0.330	0.250
2020/01/31 10:17:02.7	301.810	-0.110	-0.300	0.270
2020/01/31 10:17:02.8	301.840	-0.100	-0.260	0.300
2020/01/31 10:17:02.9	301.860	-0.090	-0.230	0.320
2020/01/31 10:17:03.0	301.880	-0.080	-0.190	0.340
2020/01/31 10:17:03.1	301.900	-0.070	-0.150	0.360
2020/01/31 10:17:03.2	301.910	-0.060	-0.120	0.390
2020/01/31 10:17:03.3	301.930	-0.050	-0.080	0.410
2020/01/31 10:17:03.4	301.940	-0.040	-0.040	0.440
2020/01/31 10:17:03.5	301.960	-0.030	-0.010	0.470
2020/01/31 10:17:03.6	301.960	-0.020	0.030	0.500
2020/01/31 10:17:03.7	301.970	-0.010	0.060	0.530
2020/01/31 10:17:03.8	301.980	0.000	0.090	0.560
2020/01/31 10:17:03.9	301.980	0.010	0.120	0.590
2020/01/31 10:17:04.0	301.980	0.020	0.150	0.620
2020/01/31 10:17:04.1	301.980	0.040	0.180	0.650
2020/01/31 10:17:04.2	301.980	0.050	0.200	0.680
2020/01/31 10:17:04.3	301.970	0.060	0.220	0.710
2020/01/31 10:17:04.4	301.960	0.080	0.250	0.740
2020/01/31 10:17:04.5	301.950	0.090	0.260	0.770
2020/01/31 10:17:04.6	301.940	0.110	0.280	0.800
2020/01/31 10:17:04.7	301.930	0.120	0.290	0.830
2020/01/31 10:17:04.8	301.920	0.140	0.300	0.850
2020/01/31 10:17:04.9	301.900	0.160	0.310	0.880
2020/01/31 10:17:05.0	301.890	0.170	0.310	0.910
2020/01/31 10:17:05.1	301.870	0.190	0.320	0.930
2020/01/31 10:17:05.2	301.850	0.210	0.320	0.960
2020/01/31 10:17:05.3	301.830	0.220	0.310	0.980
2020/01/31 10:17:05.4	301.820	0.240	0.310	1.000
2020/01/31 10:17:05.5	301.800	0.250	0.300	1.020
2020/01/31 10:17:05.6	301.770	0.270	0.300	1.040
2020/01/31 10:17:05.7	301.750	0.290	0.280	1.050
2020/01/31 10:17:05.8	301.720	0.300	0.270	1.070
2020/01/31 10:17:05.9	301.700	0.320	0.260	1.080
2020/01/31 10:17:06.0	301.670	0.330	0.240	1.090
2020/01/31 10:17:06.1	301.640	0.340	0.220	1.100
2020/01/31 10:17:06.2	301.620	0.360	0.200	1.100
2020/01/31 10:17:06.3	301.590	0.370	0.180	1.110
2020/01/31 10:17:06.4	301.580	0.380	0.150	1.110
2020/01/31 10:17:06.5	301.550	0.390	0.130	1.100
2020/01/31 10:17:06.6	301.520	0.400	0.100	1.100
2020/01/31 10:17:06.7	301.490	0.400	0.070	1.090
2020/01/31 10:17:06.8	301.470	0.410	0.040	1.080
2020/01/31 10:17:06.9	301.440	0.410	0.010	1.060
2020/01/31 10:17:07.0	301.420	0.420	-0.020	1.040
2020/01/31 10:17:07.1	301.390	0.420	-0.050	1.020
2020/01/31 10:17:07.2	301.370	0.420	-0.080	1.000
2020/01/31 10:17:07.3	301.350	0.420	-0.120	0.970
2020/01/31 10:17:07.4	301.330	0.420	-0.150	0.940
2020/01/31 10:17:07.5	301.310	0.420	-0.190	0.910
2020/01/31 10:17:07.6	301.290	0.420	-0.220	0.870
2020/01/31 10:17:07.7	301.270	0.410	-0.260	0.830
2020/01/31 10:17:07.8	301.250	0.410	-0.290	0.790
2020/01/31 10:17:07.9	301.230	0.400	-0.320	0.750
2020/01/31 10:17:08.0	301.220	0.400	-0.360	0.710
2020/01/31 10:17:08.1	301.200	0.390	-0.390	0.660
2020/01/31 10:17:08.2	301.190	0.380	-0.420	0.620
2020/01/31 10:17:08.3	301.170	0.370	-0.450	0.570
2020/01/31 10:17:08.4	301.160	0.370	-0.480	0.520
2020/01/31 10:17:08.5	301.150	0.360	-0.510	0.470
2020/01/31 10:17:08.6	301.140	0.350	-0.540	0.420
2020/01/31 10:17:08.7	301.140	0.340	-0.570	0.370
2020/01/31 10:17:08.8	301.130	0.330	-0.590	0.320
2020/01/31 10:17:08.9	301.120	0.320	-0.610	0.270
2020/01/31 10:17:09.0	301.120	0.310	-0.640	0.220
2020/01/31 10:17:09.1	301.110	0.300	-0.660	0.170
2020/01/31 10:17:09.2	301.110	0.290	-0.680	0.130
2020/01/31 10:17:09.3	301.110	0.280	-0.700	0.080
2020/01/31 10:17:09.4	301.090	0.260	-0.720	0.030
2020/01/31 10:17:09.5	301.090	0.250	-0.740	-0.020
2020/01/31 10:17:09.6	301.100	0.240	-0.760	-0.070
2020/01/31 10:17:09.7	301.100	0.230	-0.770	-0.110
2020/01/31 10:17:09.8	301.100	0.210	-0.780	-0.150
2020/01/31 10:17:09.9	301.110	0.200	-0.790	-0.190
2020/01/31 10:17:10.0	301.110	0.190	-0.800	-0.230
2020/01/31 10:17:10.1	301.120	0.170	-0.810	-0.270
2020/01/31 10:17:10.2	301.120	0.160	-0.820	-0.300
2020/01/31 10:17:10.3	301.130	0.140	-0.820	-0.330
2020/01/31 10:17:10.4	301.130	0.130	-0.820	-0.360
2020/01/31 10:17:10.5	301.130	0.110	-0.820	-0.380
2020/01/31 10:17:10.6	301.140	0.100	-0.820	-0.400
2020/01/31 10:17:10.7	301.140	0.080	-0.810	-0.420
2020/01/31 10:17:10.8	301.150	0.060	-0.810	-0.430
2020/01/31 10:17:10.9	301.160	0.040	-0.800	-0.440
2020/01/31 10:17:11.0	301.160	0.020	-0.790	-0.450
2020/01/31 10:17:11.1	301.160	-0.000	-0.770	-0.450
2020/01/31 10:17:11.2	301.170	-0.020	-0.760	-0.460
2020/01/31 10:17:11.3	301.170	-0.050	-0.740	-0.450
2020/01/31 10:17:11.4	301.170	-0.070	-0.720	-0.450
2020/01/31 10:17:11.5	301.170	-0.090	-0.700	-0.440
2020/01/31 10:17:11.6	301.170	-0.120	-0.680	-0.430
2020/01/31 10:17:11.7	301.170	-0.140	-0.660	-0.420
2020/01/31 10:17:11.8	301.170	-0.170	-0.640	-0.410
2020/01/31 10:17:11.9	301.170	-0.200	-0.620	-0.390
2020/01/31 10:17:12.0	301.160	-0.220	-0.590	-0.380
2020/01/31 10:17:12.1	301.160	-0.250	-0.570	-0.360
2020/01/31 10:17:12.2	301.160	-0.280	-0.540	-0.340
2020/01/31 10:17:12.3	301.150	-0.310	-0.510	-0.320
2020/01/31 10:17:12.4	301.140	-0.330	-0.480	-0.290
2020/01/31 10:17:12.5	301.130	-0.360	-0.460	-0.270
2020/01/31 10:17:12.6	301.130	-0.380	-0.430	-0.250
2020/01/31 10:17:12.7	301.120	-0.410	-0.400	-0.220
2020/01/31 10:17:12.8	301.110	-0.440	-0.380	-0.200
2020/01/31 10:17:12.9	301.100	-0.460	-0.350	-0.170
2020/01/31 10:17:13.0	301.090	-0.480	-0.320	-0.140
2020/01/31 10:17:13.1	301.090	-0.500	-0.290	-0.120
2020/01/31 10:17:13.2	301.080	-0.520	-0.260	-0.090
2020/01/31 10:17:13.3	301.070	-0.540	-0.230	-0.060
2020/01/31 10:17:13.4	301.060	-0.560	-0.200	-0.030
2020/01/31 10:17:13.5	301.050	-0.580	-0.170	0.000
2020/01/31 10:17:13.6	301.040	-0.590	-0.140	0.030
2020/01/31 10:17:13.7	301.020	-0.600	-0.110	0.060
2020/01/31 10:17:13.8	301.010	-0.610	-0.080	0.090
2020/01/31 10:17:13.9	301.000	-0.620	-0.050	0.120
2020/01/31 10:17:14.0	300.990	-0.630	-0.030	0.150
2020/01/31 10:17:14.1	300.980	-0.630	0.000	0.180
2020/01/31 10:17:14.2	300.970	-0.630	0.030	0.200
2020/01/31 10:17:14.3	300.970	-0.630	0.060	0.230
2020/01/31 10:17:14.4	300.960	-0.630	0.080	0.260
2020/01/31 10:17:14.5	300.950	-0.620	0.110	0.290
2020/01/31 10:17:14.6	300.940	-0.620	0.130	0.320
2020/01/31 10:17:14.7	300.940	-0.610	0.150	0.340
2020/01/31 10:17:14.8	300.930	-0.600	0.170	0.370
2020/01/31 10:17:14.9	300.930	-0.590	0.190	0.400
2020/01/31 10:17:15.0	300.920	-0.570	0.210	0.420
2020/01/31 10:17:15.1	300.920	-0.550	0.230	0.450
2020/01/31 10:17:15.2	300.920	-0.540	0.240	0.470
2020/01/31 10:17:15.3	300.910	-0.520	0.260	0.490
2020/01/31 10:17:15.4	300.920	-0.490	0.270	0.510
2020/01/31 10:17:15.5	300.920	-0.470	0.280	0.540
2020/01/31 10:17:15.6	300.910	-0.450	0.280	0.560
2020/01/31 10:17:15.7	300.910	-0.420	0.290	0.580
2020/01/31 10:17:15.8	300.910	-0.390	0.300	0.590
2020/01/31 10:17:15.9	300.910	-0.360	0.300	0.610
2020/01/31 10:17:16.0	300.910	-0.330	0.300	0.630
2020/01/31 10:17:16.1	300.910	-0.300	0.300	0.640
2020/01/31 10:17:16.2	300.910	-0.270	0.290	0.660
2020/01/31 10:17:16.3	300.910	-0.240	0.290	0.670
2020/01/31 10:17:16.4	300.910	-0.210	0.280	0.680
2020/01/31 10:17:16.5	300.920	-0.170	0.270	0.690
2020/01/31 10:17:16.6	300.920	-0.140	0.260	0.690
2020/01/31 10:17:16.7	300.920	-0.100	0.250	0.700
2020/01/31 10:17:16.8	300.930	-0.070	0.240	0.700
2020/01/31 10:17:16.9	300.940	-0.030	0.230	0.700
2020/01/31 10:17:17.0	300.940	0.000	0.210	0.700
2020/01/31 10:17:17.1	300.950	0.030	0.190	0.690
2020/01/31 10:17:17.2	300.960	0.070	0.180	0.690
2020/01/31 10:17:17.3	300.960	0.100	0.160	0.680
2020/01/31 10:17:17.4	300.960	0.130	0.140	0.670
2020/01/31 10:17:17.5	300.970	0.160	0.120	0.660
2020/01/31 10:17:17.6	300.980	0.190	0.110	0.650
2020/01/31 10:17:17.7	300.980	0.220	0.090	0.630
2020/01/31 10:17:17.8	300.990	0.250	0.070	0.620
2020/01/31 10:17:17.9	301.000	0.280	0.050	0.610
2020/01/31 10:17:18.0	301.010	0.300	0.040	0.590
2020/01/31 10:17:18.1	301.010	0.330	0.020	0.580
2020/01/31 10:17:18.2	301.020	0.350	0.000	0.570
2020/01/31 10:17:18.3	301.020	0.370	-0.010	0.550
2020/01/31 10:17:18.4	301.030	0.390	-0.030	0.540
2020/01/31 10:17:18.5	301.030	0.410	-0.050	0.530
2020/01/31 10:17:18.6	301.030	0.420	-0.060	0.510
2020/01/31 10:17:18.7	301.030	0.440	-0.080	0.500
2020/01/31 10:17:18.8	301.030	0.450	-0.090	0.490
2020/01/31 10:17:18.9	301.030	0.460	-0.110	0.480
2020/01/31 10:17:19.0	301.030	0.470	-0.130	0.470
2020/01/31 10:17:19.1	301.020	0.480	-0.150	0.460
2020/01/31 10:17:19.2	301.020	0.490	-0.160	0.440
2020/01/31 10:17:19.3	301.020	0.500	-0.180	0.430
2020/01/31 10:17:19.4	301.010	0.500	-0.200	0.420
2020/01/31 10:17:19.5	301.010	0.510	-0.220	0.410
2020/01/31 10:17:19.6	301.010	0.510	-0.240	0.390
2020/01/31 10:17:19.7	301.010	0.510	-0.270	0.380
2020/01/31 10:17:19.8	301.000	0.510	-0.290	0.370
2020/01/31 10:17:19.9	301.000	0.520	-0.320	0.350
2020/01/31 10:17:20.0	301.000	0.510	-0.340	0.340
2020/01/31 10:17:20.1	301.000	0.510	-0.370	0.320
2020/01/31 10:17:20.2	301.000	0.510	-0.400	0.310
2020/01/31 10:17:20.3	301.000	0.510	-0.430	0.290
2020/01/31 10:17:20.4	301.010	0.500	-0.460	0.270
2020/01/31 10:17:20.5	301.010	0.500	-0.490	0.260
2020/01/31 10:17:20.6	301.010	0.490	-0.520	0.240
2020/01/31 10:17:20.7	301.010	0.490	-0.550	0.230
2020/01/31 10:17:20.8	301.020	0.480	-0.580	0.210
2020/01/31 10:17:20.9	301.020	0.470	-0.600	0.200
2020/01/31 10:17:21.0	301.020	0.460	-0.630	0.190
2020/01/31 10:17:21.1	301.020	0.450	-0.660	0.170
2020/01/31 10:17:21.2	301.030	0.440	-0.680	0.160
2020/01/31 10:17:21.3	301.030	0.420	-0.700	0.150
2020/01/31 10:17:21.4	301.020	0.410	-0.720	0.150
2020/01/31 10:17:21.5	301.020	0.400	-0.740	0.140
2020/01/31 10:17:21.6	301.030	0.380	-0.750	0.140
2020/01/31 10:17:21.7	301.030	0.360	-0.770	0.140
2020/01/31 10:17:21.8	301.030	0.340	-0.780	0.140
2020/01/31 10:17:21.9	301.030	0.320	-0.790	0.140
2020/01/31 10:17:22.0	301.030	0.300	-0.790	0.140
2020/01/31 10:17:22.1	301.020	0.280	-0.790	0.150
2020/01/31 10:17:22.2	301.020	0.260	-0.790	0.150
2020/01/31 10:17:22.3	301.020	0.240	-0.790	0.160
2020/01/31 10:17:22.4	301.010	0.210	-0.780	0.180
2020/01/31 10:17:22.5	301.000	0.190	-0.780	0.190
2020/01/31 10:17:22.6	301.000	0.170	-0.770	0.200
2020/01/31 10:17:22.7	300.990	0.140	-0.750	0.220
2020/01/31 10:17:22.8	300.980	0.120	-0.740	0.240
2020/01/31 10:17:22.9	300.970	0.090	-0.720	0.260
2020/01/31 10:17:23.0	300.960	0.070	-0.700	0.280
2020/01/31 10:17:23.1	300.950	0.040	-0.680	0.300
2020/01/31 10:17:23.2	300.940	0.010	-0.660	0.330
2020/01/31 10:17:23.3	300.930	-0.010	-0.640	0.350
2020/01/31 10:17:23.4	300.930	-0.030	-0.610	0.380
2020/01/31 10:17:23.5	300.920	-0.060	-0.590	0.410
2020/01/31 10:17:23.6	300.910	-0.080	-0.560	0.430
2020/01/31 10:17:23.7	300.890	-0.100	-0.540	0.460
2020/01/31 10:17:23.8	300.880	-0.130	-0.510	0.490
2020/01/31 10:17:23.9	300.870	-0.150	-0.480	0.510
2020/01/31 10:17:24.0	300.850	-0.170	-0.460	0.540
2020/01/31 10:17:24.1	300.840	-0.190	-0.430	0.560
2020/01/31 10:17:24.2	300.830	-0.210	-0.410	0.590
2020/01/31 10:17:24.3	300.810	-0.220	-0.390	0.610
2020/01/31 10:17:24.4	300.790	-0.240	-0.360	0.630
2020/01/31 10:17:24.5	300.780	-0.260	-0.340	0.650
2020/01/31 10:17:24.6	300.770	-0.270	-0.320	0.660
2020/01/31 10:17:24.7	300.750	-0.290	-0.300	0.680
2020/01/31 10:17:24.8	300.740	-0.300	-0.280	0.690
2020/01/31 10:17:24.9	300.730	-0.310	-0.270	0.700
2020/01/31 10:17:25.0	300.720	-0.330	-0.250	0.710
2020/01/31 10:17:25.1	300.710	-0.340	-0.240	0.710
2020/01/31 10:17:25.2	300.700	-0.350	-0.220	0.720
2020/01/31 10:17:25.3	300.690	-0.360	-0.210	0.720
2020/01/31 10:17:25.4	300.680	-0.370	-0.200	0.710
2020/01/31 10:17:25.5	300.670	-0.380	-0.190	0.710
2020/01/31 10:17:25.6	300.660	-0.380	-0.180	0.700
2020/01/31 10:17:25.7	300.650	-0.390	-0.170	0.690
2020/01/31 10:17:25.8	300.640	-0.400	-0.160	0.680
2020/01/31 10:17:25.9	300.640	-0.400	-0.150	0.670
2020/01/31 10:17:26.0	300.630	-0.410	-0.140	0.660
2020/01/31 10:17:26.1	300.620	-0.410	-0.130	0.640
2020/01/31 10:17:26.2	300.620	-0.410	-0.120	0.620
2020/01/31 10:17:26.3	300.610	-0.420	-0.110	0.610
2020/01/31 10:17:26.4	300.620	-0.420	-0.100	0.590
2020/01/31 10:17:26.5	300.610	-0.420	-0.090	0.570
2020/01/31 10:17:26.6	300.610	-0.420	-0.080	0.550
2020/01/31 10:17:26.7	300.600	-0.410	-0.070	0.530
2020/01/31 10:17:26.8	300.600	-0.410	-0.060	0.510
2020/01/31 10:17:26.9	300.600	-0.410	-0.050	0.490
2020/01/31 10:17:27.0	300.590	-0.400	-0.040	0.470
2020/01/31 10:17:27.1	300.590	-0.400	-0.030	0.450
2020/01/31 10:17:27.2	300.580	-0.390	-0.010	0.440
2020/01/31 10:17:27.3	300.580	-0.380	-0.000	0.420
2020/01/31 10:17:27.4	300.570	-0.370	0.010	0.400
2020/01/31 10:17:27.5	300.560	-0.360	0.020	0.380
2020/01/31 10:17:27.6	300.560	-0.350	0.040	0.360
2020/01/31 10:17:27.7	300.560	-0.340	0.050	0.350
2020/01/31 10:17:27.8	300.560	-0.320	0.060	0.330
2020/01/31 10:17:27.9	300.550	-0.310	0.080	0.310
2020/01/31 10:17:28.0	300.550	-0.300	0.090	0.300
2020/01/31 10:17:28.1	300.550	-0.280	0.110	0.280
2020/01/31 10:17:28.2	300.550	-0.260	0.120	0.270
2020/01/31 10:17:28.3	300.550	-0.250	0.130	0.250
2020/01/31 10:17:28.4	300.560	-0.230	0.140	0.240
2020/01/31 10:17:28.5	300.560	-0.210	0.150	0.220
2020/01/31 10:17:28.6	300.570	-0.190	0.160	0.210
2020/01/31 10:17:28.7	300.570	-0.180	0.170	0.200
2020/01/31 10:17:28.8	300.570	-0.160	0.180	0.180
2020/01/31 10:17:28.9	300.580	-0.140	0.190	0.170
2020/01/31 10:17:29.0	300.580	-0.120	0.190	0.160
2020/01/31 10:17:29.1	300.590	-0.100	0.200	0.140
2020/01/31 10:17:29.2	300.600	-0.090	0.200	0.130
2020/01/31 10:17:29.3	300.600	-0.070	0.200	0.120
2020/01/31 10:17:29.4	300.600	-0.050	0.200	0.110
2020/01/31 10:17:29.5	300.610	-0.040	0.200	0.100
2020/01/31 10:17:29.6	300.620	-0.020	0.200	0.090
2020/01/31 10:17:29.7	300.630	-0.010	0.190	0.080
2020/01/31 10:17:29.8	300.640	0.010	0.190	0.070
2020/01/31 10:17:29.9	300.650	0.020	0.180	0.060
2020/01/31 10:17:30.0	300.650	0.030	0.170	0.050
2020/01/31 10:17:30.1	300.660	0.040	0.160	0.040
2020/01/31 10:17:30.2	300.670	0.050	0.150	0.040
2020/01/31 10:17:30.3	300.680	0.060	0.130	0.030
2020/01/31 10:17:30.4	300.680	0.070	0.120	0.030
2020/01/31 10:17:30.5	300.690	0.080	0.100	0.020
2020/01/31 10:17:30.6	300.700	0.080	0.080	0.020
2020/01/31 10:17:30.7	300.710	0.090	0.060	0.020
2020/01/31 10:17:30.8	300.710	0.100	0.040	0.020
2020/01/31 10:17:30.9	300.720	0.100	0.020	0.020
2020/01/31 10:17:31.0	300.730	0.100	-0.010	0.030
2020/01/31 10:17:31.1	300.740	0.110	-0.030	0.030
2020/01/31 10:17:31.2	300.740	0.110	-0.060	0.030
2020/01/31 10:17:31.3	300.750	0.110	-0.090	0.040
2020/01/31 10:17:31.4	300.760	0.120	-0.110	0.050
2020/01/31 10:17:31.5	300.770	0.120	-0.140	0.060
2020/01/31 10:17:31.6	300.770	0.120	-0.170	0.070
2020/01/31 10:17:31.7	300.780	0.120	-0.190	0.080
2020/01/31 10:17:31.8	300.790	0.120	-0.220	0.100
2020/01/31 10:17:31.9	300.800	0.120	-0.240	0.110
2020/01/31 10:17:32.0	300.800	0.130	-0.260	0.130
2020/01/31 10:17:32.1	300.810	0.130	-0.290	0.150
2020/01/31 10:17:32.2	300.820	0.130	-0.310	0.170
2020/01/31 10:17:32.3	300.820	0.130	-0.330	0.200
2020/01/31 10:17:32.4	300.850	0.140	-0.340	0.220
2020/01/31 10:17:32.5	300.860	0.140	-0.360	0.250
2020/01/31 10:17:32.6	300.860	0.150	-0.380	0.280
2020/01/31 10:17:32.7	300.870	0.150	-0.390	0.310
2020/01/31 10:17:32.8	300.880	0.160	-0.410	0.340
2020/01/31 10:17:32.9	300.880	0.160	-0.420	0.380
2020/01/31 10:17:33.0	300.890	0.170	-0.430	0.410
2020/01/31 10:17:33.1	300.890	0.170	-0.440	0.450
2020/01/31 10:17:33.2	300.890	0.180	-0.450	0.490
2020/01/31 10:17:33.3	300.900	0.190	-0.460	0.520
2020/01/31 10:17:33.4	300.910	0.200	-0.460	0.560
2020/01/31 10:17:33.5	300.910	0.200	-0.470	0.600
2020/01/31 10:17:33.6	300.910	0.210	-0.480	0.640
2020/01/31 10:17:33.7	300.910	0.220	-0.480	0.680
2020/01/31 10:17:33.8	300.910	0.230	-0.490	0.720
2020/01/31 10:17:33.9	300.910	0.240	-0.490	0.760
2020/01/31 10:17:34.0	300.910	0.250	-0.500	0.800
2020/01/31 10:17:34.1	300.910	0.260	-0.510	0.840
2020/01/31 10:17:34.2	300.900	0.260	-0.510	0.880
2020/01/31 10:17:34.3	300.900	0.270	-0.520	0.920
2020/01/31 10:17:34.4	300.910	0.280	-0.520	0.950
2020/01/31 10:17:34.5	300.910	0.290	-0.530	0.990
2020/01/31 10:17:34.6	300.900	0.300	-0.540	1.030
2020/01/31 10:17:34.7	300.890	0.310	-0.550	1.060
2020/01/31 10:17:34.8	300.890	0.320	-0.560	1.090
2020/01/31 10:17:34.9	300.880	0.320	-0.570	1.120
2020/01/31 10:17:35.0	300.870	0.330	-0.580	1.150
2020/01/31 10:17:35.1	300.860	0.340	-0.590	1.180
2020/01/31 10:17:35.2	300.850	0.340	-0.600	1.200
2020/01/31 10:17:35.3	300.840	0.350	-0.610	1.220
2020/01/31 10:17:35.4	300.840	0.350	-0.620	1.240
2020/01/31 10:17:35.5	300.830	0.350	-0.630	1.250
2020/01/31 10:17:35.6	300.820	0.350	-0.640	1.260
2020/01/31 10:17:35.7	300.810	0.350	-0.650	1.270
2020/01/31 10:17:35.8	300.800	0.350	-0.650	1.280
2020/01/31 10:17:35.9	300.790	0.350	-0.660	1.280
2020/01/31 10:17:36.0	300.770	0.350	-0.660	1.290
2020/01/31 10:17:36.1	300.760	0.340	-0.660	1.280
2020/01/31 10:17:36.2	300.740	0.340	-0.660	1.280
2020/01/31 10:17:36.3	300.730	0.330	-0.660	1.270
2020/01/31 10:17:36.4	300.720	0.320	-0.650	1.260
2020/01/31 10:17:36.5	300.700	0.310	-0.650	1.240
2020/01/31 10:17:36.6	300.690	0.300	-0.640	1.230
2020/01/31 10:17:36.7	300.670	0.290	-0.630	1.210
2020/01/31 10:17:36.8	300.650	0.280	-0.610	1.180
2020/01/31 10:17:36.9	300.640	0.260	-0.600	1.160
2020/01/31 10:17:37.0	300.620	0.240	-0.580	1.130
2020/01/31 10:17:37.1	300.600	0.230	-0.570	1.100
2020/01/31 10:17:37.2	300.580	0.210	-0.550	1.060
2020/01/31 10:17:37.3	300.570	0.190	-0.530	1.030
2020/01/31 10:17:37.4	300.560	0.170	-0.510	0.980
2020/01/31 10:17:37.5	300.550	0.150	-0.490	0.940
2020/01/31 10:17:37.6	300.530	0.120	-0.460	0.890
2020/01/31 10:17:37.7	300.520	0.100	-0.440	0.840
2020/01/31 10:17:37.8	300.510	0.080	-0.420	0.790
2020/01/31 10:17:37.9	300.500	0.050	-0.400	0.730
2020/01/31 10:17:38.0	300.490	0.030	-0.380	0.670
2020/01/31 10:17:38.1	300.480	0.000	-0.350	0.610
2020/01/31 10:17:38.2	300.480	-0.020	-0.330	0.550
2020/01/31 10:17:38.3	300.470	-0.050	-0.310	0.490
2020/01/31 10:17:38.4	300.480	-0.070	-0.290	0.430
2020/01/31 10:17:38.5	300.470	-0.100	-0.270	0.360
2020/01/31 10:17:38.6	300.470	-0.130	-0.250	0.300
2020/01/31 10:17:38.7	300.470	-0.150	-0.230	0.230
2020/01/31 10:17:38.8	300.460	-0.180	-0.210	0.170
2020/01/31 10:17:38.9	300.460	-0.210	-0.180	0.100
2020/01/31 10:17:39.0	300.460	-0.230	-0.160	0.040
2020/01/31 10:17:39.1	300.450	-0.260	-0.140	-0.030
2020/01/31 10:17:39.2	300.450	-0.280	-0.120	-0.090
2020/01/31 10:17:39.3	300.450	-0.310	-0.100	-0.150
2020/01/31 10:17:39.4	300.440	-0.330	-0.080	-0.210
2020/01/31 10:17:39.5	300.440	-0.350	-0.060	-0.270
2020/01/31 10:17:39.6	300.440	-0.380	-0.040	-0.330
2020/01/31 10:17:39.7	300.440	-0.400	-0.020	-0.390
2020/01/31 10:17:39.8	300.440	-0.420	-0.000	-0.440
2020/01/31 10:17:39.9	300.450	-0.440	0.020	-0.490
2020/01/31 10:17:40.0	300.450	-0.460	0.040	-0.540
2020/01/31 10:17:40.1	300.460	-0.470	0.060	-0.590
2020/01/31 10:17:40.2	300.460	-0.490	0.070	-0.640
2020/01/31 10:17:40.3	300.470	-0.510	0.090	-0.680
2020/01/31 10:17:40.4	300.460	-0.520	0.100	-0.730
2020/01/31 10:17:40.5	300.470	-0.530	0.110	-0.760
2020/01/31 10:17:40.6	300.480	-0.540	0.120	-0.800
2020/01/31 10:17:40.7	300.490	-0.550	0.130	-0.830
2020/01/31 10:17:40.8	300.510	-0.560	0.140	-0.860
2020/01/31 10:17:40.9	300.530	-0.570	0.140	-0.890
2020/01/31 10:17:41.0	300.540	-0.580	0.150	-0.910
2020/01/31 10:17:41.1	300.560	-0.580	0.150	-0.930
2020/01/31 10:17:41.2	300.580	-0.580	0.150	-0.940
2020/01/31 10:17:41.3	300.610	-0.590	0.150	-0.960
2020/01/31 10:17:41.4	300.640	-0.590	0.150	-0.960
2020/01/31 10:17:41.5	300.660	-0.590	0.150	-0.970
2020/01/31 10:17:41.6	300.680	-0.580	0.140	-0.960
2020/01/31 10:17:41.7	300.700	-0.580	0.140	-0.960
2020/01/31 10:17:41.8	300.730	-0.580	0.130	-0.950
2020/01/31 10:17:41.9	300.750	-0.570	0.120	-0.940
2020/01/31 10:17:42.0	300.780	-0.560	0.110	-0.920
2020/01/31 10:17:42.1	300.800	-0.550	0.110	-0.900
2020/01/31 10:17:42.2	300.820	-0.540	0.100	-0.870
2020/01/31 10:17:42.3	300.850	-0.530	0.090	-0.840
2020/01/31 10:17:42.4	300.870	-0.510	0.080	-0.810
2020/01/31 10:17:42.5	300.900	-0.500	0.070	-0.770
2020/01/31 10:17:42.6	300.920	-0.480	0.060	-0.730
2020/01/31 10:17:42.7	300.940	-0.460	0.050	-0.690
2020/01/31 10:17:42.8	300.960	-0.440	0.040	-0.640
2020/01/31 10:17:42.9	300.980	-0.420	0.040	-0.590
2020/01/31 10:17:43.0	301.000	-0.390	0.030	-0.540
2020/01/31 10:17:43.1	301.020	-0.370	0.020	-0.490
2020/01/31 10:17:43.2	301.040	-0.340	0.010	-0.440
2020/01/31 10:17:43.3	301.050	-0.310	0.000	-0.380
2020/01/31 10:17:43.4	301.090	-0.280	-0.000	-0.320
2020/01/31 10:17:43.5	301.100	-0.250	-0.010	-0.260
2020/01/31 10:17:43.6	301.120	-0.220	-0.020	-0.200
2020/01/31 10:17:43.7	301.130	-0.190	-0.030	-0.140
2020/01/31 10:17:43.8	301.140	-0.160	-0.040	-0.080
2020/01/31 10:17:43.9	301.150	-0.130	-0.050	-0.010
2020/01/31 10:17:44.0	301.160	-0.090	-0.060	0.050
2020/01/31 10:17:44.1	301.170	-0.060	-0.070	0.110
2020/01/31 10:17:44.2	301.170	-0.030	-0.080	0.170
2020/01/31 10:17:44.3	301.180	0.010	-0.090	0.230
2020/01/31 10:17:44.4	301.190	0.040	-0.100	0.300
2020/01/31 10:17:44.5	301.200	0.070	-0.110	0.360
2020/01/31 10:17:44.6	301.200	0.110	-0.130	0.420
2020/01/31 10:17:44.7	301.200	0.140	-0.140	0.470
2020/01/31 10:17:44.8	301.200	0.170	-0.150	0.530
2020/01/31 10:17:44.9	301.190	0.200	-0.160	0.590
2020/01/31 10:17:45.0	301.190	0.230	-0.180	0.650
2020/01/31 10:17:45.1	301.180	0.260	-0.190	0.700
2020/01/31 10:17:45.2	301.170	0.290	-0.200	0.750
2020/01/31 10:17:45.3	301.160	0.310	-0.220	0.810
2020/01/31 10:17:45.4	301.150	0.340	-0.230	0.860
2020/01/31 10:17:45.5	301.140	0.360	-0.240	0.900
2020/01/31 10:17:45.6	301.130	0.380	-0.260	0.950
2020/01/31 10:17:45.7	301.110	0.400	-0.270	0.990
2020/01/31 10:17:45.8	301.100	0.420	-0.280	1.030
2020/01/31 10:17:45.9	301.080	0.440	-0.290	1.070
2020/01/31 10:17:46.0	301.060	0.460	-0.310	1.110
2020/01/31 10:17:46.1	301.040	0.470	-0.320	1.140
2020/01/31 10:17:46.2	301.020	0.490	-0.330	1.170
2020/01/31 10:17:46.3	301.000	0.500	-0.330	1.200
2020/01/31 10:17:46.4	300.970	0.510	-0.340	1.230
2020/01/31 10:17:46.5	300.950	0.520	-0.350	1.250
2020/01/31 10:17:46.6	300.930	0.530	-0.360	1.270
2020/01/31 10:17:46.7	300.910	0.530	-0.360	1.290
2020/01/31 10:17:46.8	300.880	0.540	-0.370	1.300
2020/01/31 10:17:46.9	300.860	0.540	-0.370	1.310
2020/01/31 10:17:47.0	300.830	0.540	-0.370	1.320
2020/01/31 10:17:47.1	300.810	0.540	-0.370	1.330
2020/01/31 10:17:47.2	300.780	0.540	-0.370	1.330
2020/01/31 10:17:47.3	300.750	0.540	-0.360	1.330
2020/01/31 10:17:47.4	300.730	0.540	-0.360	1.330
2020/01/31 10:17:47.5	300.700	0.540	-0.360	1.320
2020/01/31 10:17:47.6	300.680	0.530	-0.350	1.320
2020/01/31 10:17:47.7	300.650	0.530	-0.350	1.310
2020/01/31 10:17:47.8	300.630	0.520	-0.350	1.290
2020/01/31 10:17:47.9	300.600	0.520	-0.340	1.280
2020/01/31 10:17:48.0	300.580	0.510	-0.340	1.260
2020/01/31 10:17:48.1	300.550	0.500	-0.340	1.240
2020/01/31 10:17:48.2	300.530	0.490	-0.330	1.210
2020/01/31 10:17:48.3	300.510	0.480	-0.330	1.190
2020/01/31 10:17:48.4	300.490	0.470	-0.340	1.160
2020/01/31 10:17:48.5	300.470	0.450	-0.340	1.130
2020/01/31 10:17:48.6	300.450	0.440	-0.340	1.090
2020/01/31 10:17:48.7	300.430	0.430	-0.350	1.060
2020/01/31 10:17:48.8	300.420	0.410	-0.360	1.020
2020/01/31 10:17:48.9	300.400	0.390	-0.370	0.980
2020/01/31 10:17:49.0	300.390	0.380	-0.380	0.940
2020/01/31 10:17:49.1	300.380	0.360	-0.390	0.890
2020/01/31 10:17:49.2	300.370	0.340	-0.410	0.840
2020/01/31 10:17:49.3	300.360	0.320	-0.430	0.790
2020/01/31 10:17:49.4	300.360	0.300	-0.450	0.740
2020/01/31 10:17:49.5	300.350	0.280	-0.470	0.690
2020/01/31 10:17:49.6	300.350	0.260	-0.490	0.630
2020/01/31 10:17:49.7	300.350	0.240	-0.510	0.570
2020/01/31 10:17:49.8	300.350	0.220	-0.530	0.510
2020/01/31 10:17:49.9	300.350	0.200	-0.550	0.450
2020/01/31 10:17:50.0	300.360	0.170	-0.580	0.390
2020/01/31 10:17:50.1	300.360	0.150	-0.600	0.330
2020/01/31 10:17:50.2	300.370	0.120	-0.620	0.270
2020/01/31 10:17:50.3	300.380	0.100	-0.640	0.200
2020/01/31 10:17:50.4	300.380	0.070	-0.660	0.140
2020/01/31 10:17:50.5	300.400	0.050	-0.670	0.080
2020/01/31 10:17:50.6	300.410	0.020	-0.690	0.020
2020/01/31 10:17:50.7	300.430	-0.000	-0.700	-0.040
2020/01/31 10:17:50.8	300.450	-0.030	-0.710	-0.100
2020/01/31 10:17:50.9	300.470	-0.060	-0.710	-0.160
2020/01/31 10:17:51.0	300.500	-0.080	-0.710	-0.220
2020/01/31 10:17:51.1	300.520	-0.110	-0.710	-0.280
2020/01/31 10:17:51.2	300.540	-0.140	-0.700	-0.330
2020/01/31 10:17:51.3	300.570	-0.160	-0.690	-0.380
2020/01/31 10:17:51.4	300.600	-0.190	-0.680	-0.430
2020/01/31 10:17:51.5	300.620	-0.220	-0.670	-0.470
2020/01/31 10:17:51.6	300.650	-0.240	-0.640	-0.520
2020/01/31 10:17:51.7	300.680	-0.270	-0.620	-0.560
2020/01/31 10:17:51.8	300.700	-0.300	-0.590	-0.590
2020/01/31 10:17:51.9	300.730	-0.320	-0.560	-0.630
2020/01/31 10:17:52.0	300.760	-0.340	-0.530	-0.650
2020/01/31 10:17:52.1	300.780	-0.370	-0.500	-0.680
2020/01/31 10:17:52.2	300.810	-0.390	-0.460	-0.700
2020/01/31 10:17:52.3	300.830	-0.410	-0.420	-0.720
2020/01/31 10:17:52.4	300.860	-0.430	-0.390	-0.730
2020/01/31 10:17:52.5	300.880	-0.450	-0.350	-0.740
2020/01/31 10:17:52.6	300.900	-0.460	-0.310	-0.740
2020/01/31 10:17:52.7	300.920	-0.480	-0.270	-0.740
2020/01/31 10:17:52.8	300.940	-0.490	-0.230	-0.740
2020/01/31 10:17:52.9	300.960	-0.500	-0.190	-0.730
2020/01/31 10:17:53.0	300.980	-0.510	-0.150	-0.720
2020/01/31 10:17:53.1	300.990	-0.520	-0.110	-0.700
2020/01/31 10:17:53.2	301.010	-0.520	-0.080	-0.680
2020/01/31 10:17:53.3	301.020	-0.530	-0.040	-0.660
2020/01/31 10:17:53.4	301.040	-0.530	-0.010	-0.630
2020/01/31 10:17:53.5	301.050	-0.530	0.020	-0.610
2020/01/31 10:17:53.6	301.060	-0.520	0.040	-0.580
2020/01/31 10:17:53.7	301.070	-0.520	0.060	-0.550
2020/01/31 10:17:53.8	301.080	-0.510	0.080	-0.520
2020/01/31 10:17:53.9	301.090	-0.500	0.100	-0.490
2020/01/31 10:17:54.0	301.090	-0.490	0.110	-0.450
2020/01/31 10:17:54.1	301.100	-0.470	0.120	-0.420
2020/01/31 10:17:54.2	301.110	-0.450	0.130	-0.380
2020/01/31 10:17:54.3	301.110	-0.430	0.130	-0.340
2020/01/31 10:17:54.4	301.120	-0.410	0.130	-0.310
2020/01/31 10:17:54.5	301.120	-0.390	0.120	-0.270
2020/01/31 10:17:54.6	301.130	-0.360	0.120	-0.230
2020/01/31 10:17:54.7	301.130	-0.340	0.110	-0.180
2020/01/31 10:17:54.8	301.130	-0.310	0.100	-0.140
2020/01/31 10:17:54.9	301.130	-0.280	0.090	-0.100
2020/01/31 10:17:55.0	301.140	-0.250	0.070	-0.060
2020/01/31 10:17:55.1	301.140	-0.210	0.050	-0.020
2020/01/31 10:17:55.2	301.140	-0.180	0.040	0.020
2020/01/31 10:17:55.3	301.150	-0.150	0.020	0.060
2020/01/31 10:17:55.4	301.150	-0.110	-0.010	0.100
2020/01/31 10:17:55.5	301.150	-0.080	-0.030	0.140
2020/01/31 10:17:55.6	301.160	-0.040	-0.050	0.180
2020/01/31 10:17:55.7	301.160	-0.010	-0.070	0.220
2020/01/31 10:17:55.8	301.160	0.020	-0.090	0.250
2020/01/31 10:17:55.9	301.170	0.050	-0.110	0.290
2020/01/31 10:17:56.0	301.170	0.080	-0.140	0.320
2020/01/31 10:17:56.1	301.170	0.110	-0.160	0.350
2020/01/31 10:17:56.2	301.180	0.140	-0.170	0.380
2020/01/31 10:17:56.3	301.180	0.160	-0.190	0.410
2020/01/31 10:17:56.4	301.180	0.180	-0.210	0.440
2020/01/31 10:17:56.5	301.180	0.200	-0.220	0.470
2020/01/31 10:17:56.6	301.180	0.220	-0.230	0.490
2020/01/31 10:17:56.7	301.180	0.240	-0.240	0.510
2020/01/31 10:17:56.8	301.180	0.250	-0.250	0.540
2020/01/31 10:17:56.9	301.180	0.260	-0.260	0.560
2020/01/31 10:17:57.0	301.170	0.270	-0.260	0.580
2020/01/31 10:17:57.1	301.170	0.270	-0.260	0.590
2020/01/31 10:17:57.2	301.160	0.280	-0.260	0.610
2020/01/31 10:17:57.3	301.160	0.270	-0.260	0.630
2020/01/31 10:17:57.4	301.140	0.270	-0.250	0.640
2020/01/31 10:17:57.5	301.130	0.270	-0.240	0.650
2020/01/31 10:17:57.6	301.120	0.260	-0.230	0.660
2020/01/31 10:17:57.7	301.110	0.250	-0.220	0.670
2020/01/31 10:17:57.8	301.100	0.230	-0.200	0.680
2020/01/31 10:17:57.9	301.080	0.220	-0.190	0.690
2020/01/31 10:17:58.0	301.070	0.200	-0.170	0.700
2020/01/31 10:17:58.1	301.050	0.190	-0.150	0.700
2020/01/31 10:17:58.2	301.030	0.170	-0.130	0.700
2020/01/31 10:17:58.3	301.020	0.150	-0.110	0.700
2020/01/31 10:17:58.4	301.000	0.120	-0.090	0.700
2020/01/31 10:17:58.5	300.980	0.100	-0.070	0.700
2020/01/31 10:17:58.6	300.960	0.080	-0.050	0.700
2020/01/31 10:17:58.7	300.940	0.060	-0.030	0.690
2020/01/31 10:17:58.8	300.920	0.040	-0.010	0.680
2020/01/31 10:17:58.9	300.900	0.010	0.010	0.680
2020/01/31 10:17:59.0	300.880	-0.010	0.030	0.660
2020/01/31 10:17:59.1	300.860	-0.030	0.050	0.650
2020/01/31 10:17:59.2	300.840	-0.050	0.070	0.640
2020/01/31 10:17:59.3	300.820	-0.070	0.080	0.620
2020/01/31 10:17:59.4	300.810	-0.080	0.100	0.610
2020/01/31 10:17:59.5	300.790	-0.100	0.110	0.590
2020/01/31 10:17:59.6	300.770	-0.120	0.120	0.570
2020/01/31 10:17:59.7	300.750	-0.130	0.120	0.550
2020/01/31 10:17:59.8	300.730	-0.140	0.130	0.530
2020/01/31 10:17:59.9	300.720	-0.150	0.130	0.500
2020/01/31 10:18:00.0	300.700	-0.160	0.120	0.480
2020/01/31 10:18:00.1	300.690	-0.160	0.120	0.450
2020/01/31 10:18:00.2	300.670	-0.170	0.110	0.420
2020/01/31 10:18:00.3	300.660	-0.170	0.100	0.390
2020/01/31 10:18:00.4	300.650	-0.170	0.080	0.360
2020/01/31 10:18:00.5	300.640	-0.170	0.060	0.320
2020/01/31 10:18:00.6	300.630	-0.170	0.040	0.290
2020/01/31 10:18:00.7	300.620	-0.170	0.020	0.250
2020/01/31 10:18:00.8	300.620	-0.160	-0.000	0.210
2020/01/31 10:18:00.9	300.620	-0.160	-0.030	0.170
2020/01/31 10:18:01.0	300.610	-0.150	-0.060	0.130
2020/01/31 10:18:01.1	300.610	-0.140	-0.090	0.090
2020/01/31 10:18:01.2	300.620	-0.130	-0.120	0.040
2020/01/31 10:18:01.3	300.620	-0.120	-0.160	0.000
2020/01/31 10:18:01.4	300.610	-0.110	-0.190	-0.040
2020/01/31 10:18:01.5	300.620	-0.090	-0.220	-0.080
2020/01/31 10:18:01.6	300.620	-0.080	-0.260	-0.120
2020/01/31 10:18:01.7	300.630	-0.070	-0.290	-0.160
2020/01/31 10:18:01.8	300.640	-0.050	-0.330	-0.190
2020/01/31 10:18:01.9	300.650	-0.040	-0.360	-0.230
2020/01/31 10:18:02.0	300.670	-0.020	-0.390	-0.260
2020/01/31 10:18:02.1	300.680	-0.000	-0.420	-0.280
2020/01/31 10:18:02.2	300.690	0.010	-0.450	-0.310
2020/01/31 10:18:02.3	300.700	0.030	-0.470	-0.330
2020/01/31 10:18:02.4	300.710	0.040	-0.500	-0.350
2020/01/31 10:18:02.5	300.720	0.060	-0.520	-0.360
2020/01/31 10:18:02.6	300.730	0.080	-0.530	-0.370
2020/01/31 10:18:02.7	300.750	0.090	-0.550	-0.380
2020/01/31 10:18:02.8	300.760	0.110	-0.560	-0.380
2020/01/31 10:18:02.9	300.770	0.120	-0.560	-0.380
2020/01/31 10:18:03.0	300.780	0.140	-0.570	-0.380
2020/01/31 10:18:03.1	300.790	0.150	-0.570	-0.370
2020/01/31 10:18:03.2	300.810	0.160	-0.570	-0.360
2020/01/31 10:18:03.3	300.820	0.180	-0.560	-0.340
2020/01/31 10:18:03.4	300.840	0.190	-0.550	-0.320
2020/01/31 10:18:03.5	300.860	0.200	-0.540	-0.300
2020/01/31 10:18:03.6	300.870	0.210	-0.530	-0.270
2020/01/31 10:18:03.7	300.880	0.220	-0.510	-0.240
2020/01/31 10:18:03.8	300.890	0.230	-0.500	-0.210
2020/01/31 10:18:03.9	300.900	0.230	-0.480	-0.180
2020/01/31 10:18:04.0	300.910	0.240	-0.460	-0.140
2020/01/31 10:18:04.1	300.930	0.250	-0.450	-0.110
2020/01/31 10:18:04.2	300.940	0.250	-0.430	-0.070
2020/01/31 10:18:04.3	300.950	0.260	-0.410	-0.030
2020/01/31 10:18:04.4	300.960	0.260	-0.400	0.010
2020/01/31 10:18:04.5	300.980	0.260	-0.390	0.050
2020/01/31 10:18:04.6	300.990	0.270	-0.370	0.100
2020/01/31 10:18:04.7	301.000	0.270	-0.360	0.140
2020/01/31 10:18:04.8	301.020	0.270	-0.350	0.180
2020/01/31 10:18:04.9	301.030	0.270	-0.340	0.220
2020/01/31 10:18:05.0	301.040	0.270	-0.330	0.260
2020/01/31 10:18:05.1	301.060	0.280	-0.330	0.310
2020/01/31 10:18:05.2	301.070	0.280	-0.330	0.350
2020/01/31 10:18:05.3	301.090	0.280	-0.330	0.390
2020/01/31 10:18:05.4	301.100	0.280	-0.320	0.430
2020/01/31 10:18:05.5	301.110	0.280	-0.330	0.470
2020/01/31 10:18:05.6	301.130	0.280	-0.330	0.510
2020/01/31 10:18:05.7	301.140	0.280	-0.340	0.540
2020/01/31 10:18:05.8	301.150	0.270	-0.340	0.580
2020/01/31 10:18:05.9	301.170	0.270	-0.350	0.620
2020/01/31 10:18:06.0	301.180	0.270	-0.360	0.650
2020/01/31 10:18:06.1	301.190	0.270	-0.370	0.690
2020/01/31 10:18:06.2	301.200	0.270	-0.380	0.720
2020/01/31 10:18:06.3	301.210	0.260	-0.380	0.750
2020/01/31 10:18:06.4	301.200	0.260	-0.390	0.780
2020/01/31 10:18:06.5	301.210	0.260	-0.400	0.800
2020/01/31 10:18:06.6	301.220	0.250	-0.410	0.830
2020/01/31 10:18:06.7	301.230	0.250	-0.410	0.850
2020/01/31 10:18:06.8	301.230	0.240	-0.420	0.880
2020/01/31 10:18:06.9	301.240	0.230	-0.420	0.900
2020/01/31 10:18:07.0	301.240	0.230	-0.430	0.920
2020/01/31 10:18:07.1	301.250	0.220	-0.430	0.940
2020/01/31 10:18:07.2	301.250	0.210	-0.430	0.950
2020/01/31 10:18:07.3	301.250	0.200	-0.430	0.970
2020/01/31 10:18:07.4	301.250	0.200	-0.420	0.980
2020/01/31 10:18:07.5	301.250	0.190	-0.420	0.990
2020/01/31 10:18:07.6	301.250	0.170	-0.410	1.000
2020/01/31 10:18:07.7	301.240	0.160	-0.410	1.010
2020/01/31 10:18:07.8	301.240	0.150	-0.400	1.010
2020/01/31 10:18:07.9	301.230	0.140	-0.390	1.010
2020/01/31 10:18:08.0	301.230	0.130	-0.380	1.010
2020/01/31 10:18:08.1	301.220	0.110	-0.370	1.010
2020/01/31 10:18:08.2	301.210	0.100	-0.360	1.000
2020/01/31 10:18:08.3	301.210	0.090	-0.340	0.990
2020/01/31 10:18:08.4	301.210	0.070	-0.330	0.980
2020/01/31 10:18:08.5	301.200	0.060	-0.320	0.970
2020/01/31 10:18:08.6	301.180	0.040	-0.300	0.950
2020/01/31 10:18:08.7	301.170	0.020	-0.290	0.930
2020/01/31 10:18:08.8	301.160	0.010	-0.280	0.910
2020/01/31 10:18:08.9	301.140	-0.010	-0.260	0.890
2020/01/31 10:18:09.0	301.130	-0.020	-0.250	0.870
2020/01/31 10:18:09.1	301.110	-0.040	-0.240	0.840
2020/01/31 10:18:09.2	301.100	-0.060	-0.230	0.810
2020/01/31 10:18:09.3	301.080	-0.070	-0.220	0.780
2020/01/31 10:18:09.4	301.080	-0.090	-0.210	0.740
2020/01/31 10:18:09.5	301.060	-0.110	-0.200	0.710
2020/01/31 10:18:09.6	301.050	-0.120	-0.190	0.670
2020/01/31 10:18:09.7	301.040	-0.140	-0.180	0.630
2020/01/31 10:18:09.8	301.020	-0.150	-0.180	0.580
2020/01/31 10:18:09.9	301.010	-0.170	-0.170	0.540
2020/01/31 10:18:10.0	301.000	-0.180	-0.170	0.490
2020/01/31 10:18:10.1	300.990	-0.200	-0.170	0.440
2020/01/31 10:18:10.2	300.980	-0.210	-0.170	0.390
2020/01/31 10:18:10.3	300.970	-0.220	-0.170	0.340
2020/01/31 10:18:10.4	300.960	-0.240	-0.180	0.290
2020/01/31 10:18:10.5	300.950	-0.250	-0.180	0.240
2020/01/31 10:18:10.6	300.940	-0.260	-0.180	0.190
2020/01/31 10:18:10.7	300.940	-0.270	-0.190	0.130
2020/01/31 10:18:10.8	300.940	-0.280	-0.190	0.080
2020/01/31 10:18:10.9	300.930	-0.290	-0.200	0.030
2020/01/31 10:18:11.0	300.930	-0.300	-0.200	-0.030
2020/01/31 10:18:11.1	300.930	-0.310	-0.200	-0.080
2020/01/31 10:18:11.2	300.930	-0.310	-0.210	-0.130
2020/01/31 10:18:11.3	300.930	-0.320	-0.210	-0.180
2020/01/31 10:18:11.4	300.910	-0.330	-0.210	-0.230
2020/01/31 10:18:11.5	300.910	-0.330	-0.210	-0.270
2020/01/31 10:18:11.6	300.910	-0.340	-0.210	-0.310
2020/01/31 10:18:11.7	300.910	-0.340	-0.200	-0.350
2020/01/31 10:18:11.8	300.910	-0.350	-0.200	-0.390
2020/01/31 10:18:11.9	300.910	-0.350	-0.190	-0.420
2020/01/31 10:18:12.0	300.910	-0.350	-0.180	-0.450
2020/01/31 10:18:12.1	300.910	-0.350	-0.170	-0.480
2020/01/31 10:18:12.2	300.910	-0.360	-0.160	-0.500
2020/01/31 10:18:12.3	300.910	-0.360	-0.140	-0.530
2020/01/31 10:18:12.4	300.920	-0.360	-0.130	-0.540
2020/01/31 10:18:12.5	300.920	-0.360	-0.120	-0.560
2020/01/31 10:18:12.6	300.920	-0.360	-0.100	-0.580
2020/01/31 10:18:12.7	300.930	-0.360	-0.090	-0.590
2020/01/31 10:18:12.8	300.940	-0.350	-0.070	-0.600
2020/01/31 10:18:12.9	300.940	-0.350	-0.050	-0.610
2020/01/31 10:18:13.0	300.960	-0.350	-0.040	-0.610
2020/01/31 10:18:13.1	300.970	-0.340	-0.030	-0.620
2020/01/31 10:18:13.2	300.980	-0.340	-0.010	-0.620
2020/01/31 10:18:13.3	301.000	-0.330	-0.000	-0.620
2020/01/31 10:18:13.4	301.020	-0.320	0.010	-0.610
2020/01/31 10:18:13.5	301.040	-0.310	0.020	-0.610
2020/01/31 10:18:13.6	301.060	-0.300	0.030	-0.600
2020/01/31 10:18:13.7	301.080	-0.290	0.030	-0.590
2020/01/31 10:18:13.8	301.110	-0.280	0.040	-0.580
2020/01/31 10:18:13.9	301.130	-0.270	0.040	-0.560
2020/01/31 10:18:14.0	301.160	-0.250	0.040	-0.550
2020/01/31 10:18:14.1	301.180	-0.240	0.050	-0.530
2020/01/31 10:18:14.2	301.210	-0.220	0.050	-0.510
2020/01/31 10:18:14.3	301.240	-0.210	0.040	-0.480
2020/01/31 10:18:14.4	301.280	-0.190	0.040	-0.460
2020/01/31 10:18:14.5	301.310	-0.170	0.040	-0.430
2020/01/31 10:18:14.6	301.330	-0.160	0.030	-0.400
2020/01/31 10:18:14.7	301.360	-0.140	0.030	-0.370
2020/01/31 10:18:14.8	301.390	-0.120	0.020	-0.330
2020/01/31 10:18:14.9	301.410	-0.110	0.020	-0.300
2020/01/31 10:18:15.0	301.440	-0.090	0.020	-0.260
2020/01/31 10:18:15.1	301.470	-0.070	0.010	-0.220
2020/01/31 10:18:15.2	301.490	-0.060	0.010	-0.180
2020/01/31 10:18:15.3	301.510	-0.040	0.000	-0.130
2020/01/31 10:18:15.4	301.540	-0.030	0.000	-0.090
2020/01/31 10:18:15.5	301.550	-0.010	0.000	-0.040
2020/01/31 10:18:15.6	301.570	0.000	0.000	0.010
2020/01/31 10:18:15.7	301.580	0.010	0.000	0.050
2020/01/31 10:18:15.8	301.600	0.030	0.000	0.100
2020/01/31 10:18:15.9	301.610	0.040	0.000	0.150
2020/01/31 10:18:16.0	301.610	0.050	0.010	0.210
2020/01/31 10:18:16.1	301.620	0.060	0.010	0.260
2020/01/31 10:18:16.2	301.620	0.070	0.010	0.310
2020/01/31 10:18:16.3	301.620	0.080	0.020	0.360
2020/01/31 10:18:16.4	301.620	0.080	0.020	0.410
2020/01/31 10:18:16.5	301.620	0.090	0.030	0.460
2020/01/31 10:18:16.6	301.610	0.100	0.030	0.510
2020/01/31 10:18:16.7	301.610	0.110	0.030	0.560
2020/01/31 10:18:16.8	301.600	0.110	0.040	0.610
2020/01/31 10:18:16.9	301.580	0.120	0.040	0.660
2020/01/31 10:18:17.0	301.570	0.120	0.040	0.700
2020/01/31 10:18:17.1	301.550	0.130	0.040	0.740
2020/01/31 10:18:17.2	301.540	0.130	0.040	0.780
2020/01/31 10:18:17.3	301.520	0.140	0.030	0.820
2020/01/31 10:18:17.4	301.500	0.140	0.020	0.860
2020/01/31 10:18:17.5	301.470	0.150	0.020	0.890
2020/01/31 10:18:17.6	301.450	0.150	0.000	0.910
2020/01/31 10:18:17.7	301.430	0.160	-0.010	0.940
2020/01/31 10:18:17.8	301.400	0.160	-0.030	0.960
2020/01/31 10:18:17.9	301.380	0.170	-0.050	0.980
2020/01/31 10:18:18.0	301.350	0.180	-0.080	0.990
2020/01/31 10:18:18.1	301.330	0.180	-0.110	1.000
2020/01/31 10:18:18.2	301.300	0.190	-0.140	1.010
2020/01/31 10:18:18.3	301.270	0.200	-0.170	1.010
2020/01/31 10:18:18.4	301.250	0.210	-0.210	1.020
2020/01/31 10:18:18.5	301.220	0.220	-0.250	1.020
2020/01/31 10:18:18.6	301.200	0.230	-0.290	1.010
2020/01/31 10:18:18.7	301.170	0.240	-0.330	1.010
2020/01/31 10:18:18.8	301.140	0.250	-0.380	1.000
2020/01/31 10:18:18.9	301.120	0.260	-0.420	0.990
2020/01/31 10:18:19.0	301.090	0.270	-0.470	0.970
2020/01/31 10:18:19.1	301.070	0.280	-0.520	0.960
2020/01/31 10:18:19.2	301.040	0.290	-0.570	0.940
2020/01/31 10:18:19.3	301.020	0.300	-0.620	0.920
2020/01/31 10:18:19.4	301.000	0.310	-0.670	0.890
2020/01/31 10:18:19.5	300.980	0.320	-0.720	0.870
2020/01/31 10:18:19.6	300.960	0.330	-0.770	0.840
2020/01/31 10:18:19.7	300.940	0.340	-0.820	0.810
2020/01/31 10:18:19.8	300.930	0.350	-0.860	0.780
2020/01/31 10:18:19.9	300.910	0.360	-0.900	0.740
2020/01/31 10:18:20.0	300.900	0.360	-0.940	0.710
2020/01/31 10:18:20.1	300.890	0.370	-0.980	0.670
2020/01/31 10:18:20.2	300.880	0.370	-1.010	0.630
2020/01/31 10:18:20.3	300.870	0.370	-1.040	0.590
2020/01/31 10:18:20.4	300.860	0.370	-1.060	0.540
2020/01/31 10:18:20.5	300.860	0.370	-1.080	0.500
2020/01/31 10:18:20.6	300.850	0.370	-1.090	0.450
2020/01/31 10:18:20.7	300.850	0.370	-1.100	0.410
2020/01/31 10:18:20.8	300.860	0.360	-1.100	0.360
2020/01/31 10:18:20.9	300.860	0.360	-1.100	0.310
2020/01/31 10:18:21.0	300.870	0.350	-1.100	0.260
2020/01/31 10:18:21.1	300.880	0.340	-1.080	0.220
2020/01/31 10:18:21.2	300.890	0.330	-1.070	0.170
2020/01/31 10:18:21.3	300.900	0.310	-1.050	0.120
2020/01/31 10:18:21.4	300.910	0.300	-1.020	0.070
2020/01/31 10:18:21.5	300.920	0.280	-0.990	0.030
2020/01/31 10:18:21.6	300.940	0.270	-0.950	-0.020
2020/01/31 10:18:21.7	300.960	0.250	-0.920	-0.060
2020/01/31 10:18:21.8	300.980	0.230	-0.870	-0.100
2020/01/31 10:18:21.9	301.000	0.210	-0.830	-0.140
2020/01/31 10:18:22.0	301.020	0.190	-0.780	-0.170
2020/01/31 10:18:22.1	301.040	0.170	-0.730	-0.200
2020/01/31 10:18:22.2	301.060	0.150	-0.670	-0.230
2020/01/31 10:18:22.3	301.080	0.130	-0.620	-0.260
2020/01/31 10:18:22.4	301.110	0.110	-0.560	-0.280
2020/01/31 10:18:22.5	301.130	0.090	-0.510	-0.300
2020/01/31 10:18:22.6	301.160	0.060	-0.450	-0.310
2020/01/31 10:18:22.7	301.180	0.040	-0.390	-0.320
2020/01/31 10:18:22.8	301.200	0.020	-0.340	-0.330
2020/01/31 10:18:22.9	301.220	0.000	-0.280	-0.330
2020/01/31 10:18:23.0	301.240	-0.020	-0.230	-0.330
2020/01/31 10:18:23.1	301.260	-0.040	-0.180	-0.330
2020/01/31 10:18:23.2	301.280	-0.060	-0.130	-0.320
2020/01/31 10:18:23.3	301.300	-0.070	-0.090	-0.310
2020/01/31 10:18:23.4	301.310	-0.090	-0.050	-0.290
2020/01/31 10:18:23.5	301.330	-0.100	-0.010	-0.280
2020/01/31 10:18:23.6	301.350	-0.120	0.030	-0.260
2020/01/31 10:18:23.7	301.370	-0.130	0.060	-0.240
2020/01/31 10:18:23.8	301.390	-0.140	0.080	-0.220
2020/01/31 10:18:23.9	301.410	-0.150	0.110	-0.190
2020/01/31 10:18:24.0	301.430	-0.160	0.130	-0.170
2020/01/31 10:18:24.1	301.450	-0.160	0.140	-0.140
2020/01/31 10:18:24.2	301.460	-0.170	0.150	-0.120
2020/01/31 10:18:24.3	301.480	-0.170	0.160	-0.090
2020/01/31 10:18:24.4	301.490	-0.180	0.170	-0.060
2020/01/31 10:18:24.5	301.510	-0.180	0.170	-0.040
2020/01/31 10:18:24.6	301.520	-0.180	0.170	-0.010
2020/01/31 10:18:24.7	301.540	-0.180	0.170	0.020
2020/01/31 10:18:24.8	301.550	-0.180	0.160	0.060
2020/01/31 10:18:24.9	301.570	-0.170	0.160	0.090
2020/01/31 10:18:25.0	301.580	-0.170	0.150	0.120
2020/01/31 10:18:25.1	301.590	-0.170	0.150	0.150
2020/01/31 10:18:25.2	301.600	-0.160	0.140	0.180
2020/01/31 10:18:25.3	301.610	-0.160	0.130	0.210
2020/01/31 10:18:25.4	301.620	-0.150	0.130	0.240
2020/01/31 10:18:25.5	301.620	-0.150	0.120	0.270
2020/01/31 10:18:25.6	301.630	-0.140	0.120	0.300
2020/01/31 10:18:25.7	301.640	-0.130	0.110	0.330
2020/01/31 10:18:25.8	301.640	-0.130	0.110	0.350
2020/01/31 10:18:25.9	301.650	-0.120	0.110	0.380
2020/01/31 10:18:26.0	301.650	-0.120	0.100	0.400
2020/01/31 10:18:26.1	301.650	-0.110	0.100	0.420
2020/01/31 10:18:26.2	301.660	-0.110	0.100	0.440
2020/01/31 10:18:26.3	301.660	-0.100	0.100	0.460
2020/01/31 10:18:26.4	301.650	-0.100	0.100	0.470
2020/01/31 10:18:26.5	301.650	-0.100	0.100	0.480
2020/01/31 10:18:26.6	301.650	-0.100	0.100	0.490
2020/01/31 10:18:26.7	301.650	-0.100	0.100	0.500
2020/01/31 10:18:26.8	301.650	-0.100	0.110	0.500
2020/01/31 10:18:26.9	301.650	-0.100	0.110	0.500
2020/01/31 10:18:27.0	301.650	-0.100	0.110	0.500
2020/01/31 10:18:27.1	301.650	-0.110	0.110	0.490
2020/01/31 10:18:27.2	301.650	-0.110	0.120	0.490
2020/01/31 10:18:27.3	301.650	-0.120	0.120	0.480
2020/01/31 10:18:27.4	301.660	-0.120	0.120	0.470
2020/01/31 10:18:27.5	301.660	-0.130	0.120	0.460
2020/01/31 10:18:27.6	301.650	-0.140	0.120	0.440
2020/01/31 10:18:27.7	301.650	-0.140	0.120	0.430
2020/01/31 10:18:27.8	301.640	-0.150	0.120	0.410
2020/01/31 10:18:27.9	301.640	-0.160	0.120	0.390
2020/01/31 10:18:28.0	301.630	-0.170	0.120	0.370
2020/01/31 10:18:28.1	301.620	-0.180	0.120	0.350
2020/01/31 10:18:28.2	301.610	-0.190	0.120	0.330
2020/01/31 10:18:28.3	301.600	-0.200	0.110	0.310
2020/01/31 10:18:28.4	301.600	-0.220	0.110	0.290
2020/01/31 10:18:28.5	301.590	-0.230	0.110	0.270
2020/01/31 10:18:28.6	301.580	-0.240	0.100	0.250
2020/01/31 10:18:28.7	301.560	-0.250	0.090	0.230
2020/01/31 10:18:28.8	301.550	-0.250	0.080	0.210
2020/01/31 10:18:28.9	301.540	-0.260	0.070	0.180
2020/01/31 10:18:29.0	301.530	-0.270	0.060	0.160
2020/01/31 10:18:29.1	301.510	-0.280	0.050	0.140
2020/01/31 10:18:29.2	301.500	-0.280	0.040	0.120
2020/01/31 10:18:29.3	301.480	-0.290	0.030	0.100
2020/01/31 10:18:29.4	301.450	-0.290	0.010	0.080
2020/01/31 10:18:29.5	301.440	-0.290	-0.000	0.060
2020/01/31 10:18:29.6	301.420	-0.290	-0.020	0.050
2020/01/31 10:18:29.7	301.400	-0.290	-0.030	0.030
2020/01/31 10:18:29.8	301.390	-0.290	-0.050	0.020
2020/01/31 10:18:29.9	301.370	-0.280	-0.070	0.000
2020/01/31 10:18:30.0	301.350	-0.280	-0.090	-0.010
2020/01/31 10:18:30.1	301.340	-0.270	-0.100	-0.020
2020/01/31 10:18:30.2	301.320	-0.260	-0.120	-0.030
2020/01/31 10:18:30.3	301.300	-0.250	-0.150	-0.040
2020/01/31 10:18:30.4	301.270	-0.240	-0.170	-0.050
2020/01/31 10:18:30.5	301.250	-0.220	-0.190	-0.060
2020/01/31 10:18:30.6	301.240	-0.210	-0.220	-0.070
2020/01/31 10:18:30.7	301.230	-0.190	-0.240	-0.080
2020/01/31 10:18:30.8	301.220	-0.170	-0.270	-0.090
2020/01/31 10:18:30.9	301.220	-0.150	-0.290	-0.090
2020/01/31 10:18:31.0	301.210	-0.130	-0.320	-0.100
2020/01/31 10:18:31.1	301.210	-0.110	-0.350	-0.110
2020/01/31 10:18:31.2	301.210	-0.080	-0.380	-0.120
2020/01/31 10:18:31.3	301.210	-0.060	-0.410	-0.130
2020/01/31 10:18:31.4	301.210	-0.030	-0.440	-0.130
2020/01/31 10:18:31.5	301.220	-0.010	-0.480	-0.140
2020/01/31 10:18:31.6	301.220	0.020	-0.510	-0.150
2020/01/31 10:18:31.7	301.230	0.050	-0.540	-0.160
2020/01/31 10:18:31.8	301.240	0.070	-0.580	-0.170
2020/01/31 10:18:31.9	301.250	0.100	-0.610	-0.170
2020/01/31 10:18:32.0	301.260	0.130	-0.640	-0.180
2020/01/31 10:18:32.1	301.270	0.150	-0.670	-0.190
2020/01/31 10:18:32.2	301.280	0.170	-0.700	-0.190
2020/01/31 10:18:32.3	301.300	0.200	-0.730	-0.200
2020/01/31 10:18:32.4	301.320	0.220	-0.750	-0.200
2020/01/31 10:18:32.5	301.330	0.240	-0.780	-0.200
2020/01/31 10:18:32.6	301.350	0.250	-0.800	-0.190
2020/01/31 10:18:32.7	301.360	0.270	-0.820	-0.190
2020/01/31 10:18:32.8	301.370	0.290	-0.830	-0.190
2020/01/31 10:18:32.9	301.380	0.300	-0.850	-0.180
2020/01/31 10:18:33.0	301.400	0.310	-0.860	-0.170
2020/01/31 10:18:33.1	301.410	0.320	-0.860	-0.150
2020/01/31 10:18:33.2	301.420	0.320	-0.870	-0.140
2020/01/31 10:18:33.3	301.430	0.330	-0.870	-0.120
2020/01/31 10:18:33.4	301.450	0.330	-0.860	-0.090
2020/01/31 10:18:33.5	301.460	0.330	-0.860	-0.070
2020/01/31 10:18:33.6	301.460	0.330	-0.850	-0.040
2020/01/31 10:18:33.7	301.470	0.330	-0.830	-0.010
2020/01/31 10:18:33.8	301.480	0.330	-0.820	0.020
2020/01/31 10:18:33.9	301.480	0.320	-0.800	0.060
2020/01/31 10:18:34.0	301.490	0.310	-0.780	0.090
2020/01/31 10:18:34.1	301.490	0.310	-0.750	0.130
2020/01/31 10:18:34.2	301.500	0.300	-0.730	0.170
2020/01/31 10:18:34.3	301.500	0.280	-0.700	0.210
2020/01/31 10:18:34.4	301.520	0.270	-0.670	0.250
2020/01/31 10:18:34.5	301.520	0.260	-0.640	0.290
2020/01/31 10:18:34.6	301.520	0.240	-0.610	0.330
2020/01/31 10:18:34.7	301.530	0.230	-0.580	0.370
2020/01/31 10:18:34.8	301.530	0.210	-0.550	0.410
2020/01/31 10:18:34.9	301.530	0.200	-0.520	0.440
2020/01/31 10:18:35.0	301.540	0.180	-0.490	0.480
2020/01/31 10:18:35.1	301.540	0.160	-0.450	0.520
2020/01/31 10:18:35.2	301.540	0.140	-0.420	0.550
2020/01/31 10:18:35.3	301.550	0.130	-0.390	0.580
2020/01/31 10:18:35.4	301.540	0.110	-0.360	0.610
2020/01/31 10:18:35.5	301.540	0.090	-0.330	0.640
2020/01/31 10:18:35.6	301.550	0.080	-0.310	0.660
2020/01/31 10:18:35.7	301.550	0.060	-0.280	0.690
2020/01/31 10:18:35.8	301.550	0.050	-0.260	0.710
2020/01/31 10:18:35.9	301.560	0.030	-0.230	0.730
2020/01/31 10:18:36.0	301.560	0.020	-0.210	0.750
2020/01/31 10:18:36.1	301.570	0.010	-0.180	0.760
2020/01/31 10:18:36.2	301.570	-0.010	-0.160	0.780
2020/01/31 10:18:36.3	301.580	-0.020	-0.140	0.790
2020/01/31 10:18:36.4	301.570	-0.030	-0.120	0.790
2020/01/31 10:18:36.5	301.580	-0.030	-0.110	0.800
2020/01/31 10:18:36.6	301.590	-0.040	-0.090	0.800
2020/01/31 10:18:36.7	301.600	-0.050	-0.080	0.800
2020/01/31 10:18:36.8	301.600	-0.050	-0.060	0.790
2020/01/31 10:18:36.9	301.620	-0.060	-0.050	0.790
2020/01/31 10:18:37.0	301.630	-0.060	-0.040	0.780
2020/01/31 10:18:37.1	301.640	-0.060	-0.030	0.770
2020/01/31 10:18:37.2	301.650	-0.060	-0.020	0.750
2020/01/31 10:18:37.3	301.660	-0.060	-0.020	0.740
2020/01/31 10:18:37.4	301.690	-0.060	-0.010	0.720
2020/01/31 10:18:37.5	301.700	-0.060	-0.010	0.700
2020/01/31 10:18:37.6	301.710	-0.050	0.000	0.680
2020/01/31 10:18:37.7	301.730	-0.050	0.000	0.660
2020/01/31 10:18:37.8	301.740	-0.050	0.010	0.630
2020/01/31 10:18:37.9	301.760	-0.040	0.010	0.610
2020/01/31 10:18:38.0	301.770	-0.030	0.020	0.580
2020/01/31 10:18:38.1	301.780	-0.030	0.020	0.560
2020/01/31 10:18:38.2	301.790	-0.020	0.030	0.530
2020/01/31 10:18:38.3	301.810	-0.010	0.030	0.500
2020/01/31 10:18:38.4	301.810	-0.000	0.030	0.480
2020/01/31 10:18:38.5	301.820	0.000	0.040	0.450
2020/01/31 10:18:38.6	301.830	0.010	0.040	0.420
2020/01/31 10:18:38.7	301.840	0.020	0.040	0.390
2020/01/31 10:18:38.8	301.850	0.030	0.050	0.370
2020/01/31 10:18:38.9	301.860	0.030	0.050	0.340
2020/01/31 10:18:39.0	301.870	0.040	0.060	0.310
2020/01/31 10:18:39.1	301.880	0.050	0.060	0.280
2020/01/31 10:18:39.2	301.890	0.050	0.060	0.250
2020/01/31 10:18:39.3	301.900	0.060	0.070	0.220
2020/01/31 10:18:39.4	301.900	0.060	0.070	0.190
2020/01/31 10:18:39.5	301.910	0.070	0.080	0.170
2020/01/31 10:18:39.6	301.910	0.070	0.080	0.140
2020/01/31 10:18:39.7	301.920	0.080	0.090	0.120
2020/01/31 10:18:39.8	301.920	0.080	0.090	0.100
2020/01/31 10:18:39.9	301.920	0.080	0.100	0.080
2020/01/31 10:18:40.0	301.920	0.080	0.100	0.060
2020/01/31 10:18:40.1	301.910	0.080	0.110	0.050
2020/01/31 10:18:40.2	301.910	0.080	0.110	0.030
2020/01/31 10:18:40.3	301.900	0.080	0.120	0.020
2020/01/31 10:18:40.4	301.890	0.070	0.120	0.010
2020/01/31 10:18:40.5	301.880	0.070	0.120	0.010
2020/01/31 10:18:40.6	301.870	0.070	0.130	0.000
2020/01/31 10:18:40.7	301.860	0.060	0.130	0.000
2020/01/31 10:18:40.8	301.850	0.060	0.130	-0.000
2020/01/31 10:18:40.9	301.830	0.050	0.130	0.000
2020/01/31 10:18:41.0	301.810	0.050	0.130	0.010
2020/01/31 10:18:41.1	301.800	0.040	0.130	0.010
2020/01/31 10:18:41.2	301.780	0.030	0.130	0.020
2020/01/31 10:18:41.3	301.760	0.030	0.130	0.030
2020/01/31 10:18:41.4	301.740	0.020	0.120	0.040
2020/01/31 10:18:41.5	301.720	0.010	0.120	0.050
2020/01/31 10:18:41.6	301.700	0.000	0.110	0.060
2020/01/31 10:18:41.7	301.680	-0.000	0.100	0.080
2020/01/31 10:18:41.8	301.650	-0.010	0.090	0.090
2020/01/31 10:18:41.9	301.630	-0.020	0.080	0.110
2020/01/31 10:18:42.0	301.610	-0.020	0.060	0.120
2020/01/31 10:18:42.1	301.590	-0.030	0.050	0.140
2020/01/31 10:18:42.2	301.570	-0.030	0.030	0.150
2020/01/31 10:18:42.3	301.540	-0.040	0.000	0.170
2020/01/31 10:18:42.4	301.520	-0.040	-0.020	0.180
2020/01/31 10:18:42.5	301.500	-0.050	-0.040	0.190
2020/01/31 10:18:42.6	301.480	-0.050	-0.070	0.210
2020/01/31 10:18:42.7	301.460	-0.060	-0.100	0.220
2020/01/31 10:18:42.8	301.440	-0.060	-0.130	0.220
2020/01/31 10:18:42.9	301.430	-0.060	-0.170	0.230
2020/01/31 10:18:43.0	301.410	-0.060	-0.200	0.240
2020/01/31 10:18:43.1	301.390	-0.060	-0.240	0.240
2020/01/31 10:18:43.2	301.380	-0.070	-0.270	0.240
2020/01/31 10:18:43.3	301.370	-0.070	-0.310	0.240
2020/01/31 10:18:43.4	301.360	-0.070	-0.350	0.230
2020/01/31 10:18:43.5	301.350	-0.070	-0.390	0.230
2020/01/31 10:18:43.6	301.340	-0.060	-0.430	0.230
2020/01/31 10:18:43.7	301.330	-0.060	-0.460	0.220
2020/01/31 10:18:43.8	301.320	-0.060	-0.500	0.210
2020/01/31 10:18:43.9	301.320	-0.060	-0.540	0.200
2020/01/31 10:18:44.0	301.310	-0.060	-0.570	0.190
2020/01/31 10:18:44.1	301.310	-0.050	-0.610	0.180
2020/01/31 10:18:44.2	301.310	-0.050	-0.640	0.160
2020/01/31 10:18:44.3	301.310	-0.050	-0.670	0.150
2020/01/31 10:18:44.4	301.300	-0.050	-0.710	0.140
2020/01/31 10:18:44.5	301.300	-0.040	-0.730	0.120
2020/01/31 10:18:44.6	301.300	-0.040	-0.760	0.100
2020/01/31 10:18:44.7	301.300	-0.040	-0.790	0.080
2020/01/31 10:18:44.8	301.310	-0.040	-0.810	0.050
2020/01/31 10:18:44.9	301.310	-0.040	-0.830	0.030
2020/01/31 10:18:45.0	301.320	-0.040	-0.850	0.010
2020/01/31 10:18:45.1	301.320	-0.040	-0.860	-0.020
2020/01/31 10:18:45.2	301.330	-0.040	-0.870	-0.040
2020/01/31 10:18:45.3	301.330	-0.040	-0.880	-0.060
2020/01/31 10:18:45.4	301.340	-0.040	-0.890	-0.090
2020/01/31 10:18:45.5	301.350	-0.040	-0.890	-0.110
2020/01/31 10:18:45.6	301.360	-0.040	-0.900	-0.140
2020/01/31 10:18:45.7	301.360	-0.040	-0.900	-0.160
2020/01/31 10:18:45.8	301.370	-0.050	-0.900	-0.180
2020/01/31 10:18:45.9	301.380	-0.050	-0.890	-0.200
2020/01/31 10:18:46.0	301.390	-0.050	-0.890	-0.220
2020/01/31 10:18:46.1	301.400	-0.050	-0.880	-0.240
2020/01/31 10:18:46.2	301.410	-0.050	-0.870	-0.260
2020/01/31 10:18:46.3	301.420	-0.050	-0.850	-0.270
2020/01/31 10:18:46.4	301.440	-0.060	-0.840	-0.280
2020/01/31 10:18:46.5	301.460	-0.060	-0.820	-0.300
2020/01/31 10:18:46.6	301.470	-0.060	-0.810	-0.310
2020/01/31 10:18:46.7	301.490	-0.060	-0.790	-0.310
2020/01/31 10:18:46.8	301.500	-0.060	-0.770	-0.320
2020/01/31 10:18:46.9	301.520	-0.050	-0.740	-0.330
2020/01/31 10:18:47.0	301.530	-0.050	-0.720	-0.330
2020/01/31 10:18:47.1	301.550	-0.050	-0.690	-0.330
2020/01/31 10:18:47.2	301.570	-0.050	-0.670	-0.330
2020/01/31 10:18:47.3	301.590	-0.040	-0.640	-0.330
2020/01/31 10:18:47.4	301.610	-0.040	-0.620	-0.320
2020/01/31 10:18:47.5	301.630	-0.040	-0.590	-0.320
2020/01/31 10:18:47.6	301.650	-0.030	-0.560	-0.310
2020/01/31 10:18:47.7	301.670	-0.030	-0.530	-0.300
2020/01/31 10:18:47.8	301.690	-0.020	-0.500	-0.290
2020/01/31 10:18:47.9	301.710	-0.020	-0.460	-0.280
2020/01/31 10:18:48.0	301.730	-0.010	-0.430	-0.270
2020/01/31 10:18:48.1	301.750	-0.010	-0.400	-0.260
2020/01/31 10:18:48.2	301.770	-0.000	-0.360	-0.240
2020/01/31 10:18:48.3	301.790	-0.000	-0.330	-0.220
2020/01/31 10:18:48.4	301.820	0.000	-0.290	-0.200
2020/01/31 10:18:48.5	301.840	0.010	-0.250	-0.180
2020/01/31 10:18:48.6	301.860	0.010	-0.220	-0.160
2020/01/31 10:18:48.7	301.870	0.010	-0.180	-0.140
2020/01/31 10:18:48.8	301.890	0.010	-0.140	-0.120
2020/01/31 10:18:48.9	301.900	0.010	-0.100	-0.090
2020/01/31 10:18:49.0	301.920	0.010	-0.050	-0.070
2020/01/31 10:18:49.1	301.930	0.010	-0.010	-0.040
2020/01/31 10:18:49.2	301.940	0.000	0.030	-0.000
2020/01/31 10:18:49.3	301.950	-0.000	0.080	0.030
2020/01/31 10:18:49.4	301.970	-0.010	0.120	0.060
2020/01/31 10:18:49.5	301.970	-0.010	0.160	0.100
2020/01/31 10:18:49.6	301.980	-0.020	0.210	0.140
2020/01/31 10:18:49.7	301.980	-0.020	0.260	0.180
2020/01/31 10:18:49.8	301.980	-0.030	0.300	0.220
2020/01/31 10:18:49.9	301.970	-0.040	0.340	0.270
2020/01/31 10:18:50.0	301.970	-0.040	0.390	0.310
2020/01/31 10:18:50.1	301.960	-0.050	0.430	0.360
2020/01/31 10:18:50.2	301.950	-0.060	0.470	0.400
2020/01/31 10:18:50.3	301.950	-0.070	0.510	0.450
2020/01/31 10:18:50.4	301.940	-0.080	0.550	0.500
2020/01/31 10:18:50.5	301.930	-0.080	0.580	0.540
2020/01/31 10:18:50.6	301.920	-0.090	0.610	0.580
2020/01/31 10:18:50.7	301.900	-0.100	0.640	0.630
2020/01/31 10:18:50.8	301.890	-0.110	0.670	0.670
2020/01/31 10:18:50.9	301.870	-0.110	0.690	0.710
2020/01/31 10:18:51.0	301.860	-0.120	0.710	0.750
2020/01/31 10:18:51.1	301.840	-0.120	0.730	0.790
2020/01/31 10:18:51.2	301.820	-0.130	0.740	0.820
2020/01/31 10:18:51.3	301.810	-0.130	0.750	0.860
2020/01/31 10:18:51.4	301.790	-0.130	0.750	0.880
2020/01/31 10:18:51.5	301.770	-0.130	0.750	0.910
2020/01/31 10:18:51.6	301.750	-0.130	0.750	0.940
2020/01/31 10:18:51.7	301.740	-0.130	0.740	0.960
2020/01/31 10:18:51.8	301.720	-0.130	0.720	0.980
2020/01/31 10:18:51.9	301.700	-0.120	0.700	1.000
2020/01/31 10:18:52.0	301.690	-0.120	0.680	1.010
2020/01/31 10:18:52.1	301.670	-0.110	0.650	1.020
2020/01/31 10:18:52.2	301.660	-0.110	0.620	1.030
2020/01/31 10:18:52.3	301.640	-0.100	0.580	1.030
2020/01/31 10:18:52.4	301.630	-0.090	0.540	1.030
2020/01/31 10:18:52.5	301.620	-0.080	0.490	1.030
2020/01/31 10:18:52.6	301.600	-0.070	0.440	1.020
2020/01/31 10:18:52.7	301.590	-0.050	0.380	1.010
2020/01/31 10:18:52.8	301.570	-0.040	0.320	0.990
2020/01/31 10:18:52.9	301.560	-0.030	0.260	0.980
2020/01/31 10:18:53.0	301.550	-0.010	0.190	0.960
2020/01/31 10:18:53.1	301.530	0.000	0.120	0.940
2020/01/31 10:18:53.2	301.520	0.020	0.050	0.910
2020/01/31 10:18:53.3	301.510	0.040	-0.020	0.880
2020/01/31 10:18:53.4	301.520	0.050	-0.100	0.850
2020/01/31 10:18:53.5	301.510	0.070	-0.180	0.810
2020/01/31 10:18:53.6	301.500	0.090	-0.260	0.780
2020/01/31 10:18:53.7	301.490	0.100	-0.340	0.740
2020/01/31 10:18:53.8	301.480	0.120	-0.420	0.700
2020/01/31 10:18:53.9	301.470	0.140	-0.490	0.660
2020/01/31 10:18:54.0	301.460	0.150	-0.570	0.620
2020/01/31 10:18:54.1	301.450	0.170	-0.650	0.570
2020/01/31 10:18:54.2	301.450	0.180	-0.720	0.530
2020/01/31 10:18:54.3	301.440	0.200	-0.790	0.480
2020/01/31 10:18:54.4	301.430	0.210	-0.860	0.430
2020/01/31 10:18:54.5	301.430	0.220	-0.930	0.390
2020/01/31 10:18:54.6	301.420	0.240	-0.990	0.340
2020/01/31 10:18:54.7	301.420	0.250	-1.040	0.290
2020/01/31 10:18:54.8	301.410	0.260	-1.090	0.250
2020/01/31 10:18:54.9	301.410	0.260	-1.140	0.200
2020/01/31 10:18:55.0	301.410	0.270	-1.180	0.160
2020/01/31 10:18:55.1	301.410	0.280	-1.220	0.120
2020/01/31 10:18:55.2	301.410	0.280	-1.250	0.080
2020/01/31 10:18:55.3	301.400	0.280	-1.270	0.040
2020/01/31 10:18:55.4	301.400	0.290	-1.300	0.000
2020/01/31 10:18:55.5	301.400	0.280	-1.310	-0.030
2020/01/31 10:18:55.6	301.400	0.280	-1.320	-0.060
2020/01/31 10:18:55.7	301.400	0.280	-1.320	-0.090
2020/01/31 10:18:55.8	301.400	0.270	-1.320	-0.120
2020/01/31 10:18:55.9	301.390	0.270	-1.310	-0.150
2020/01/31 10:18:56.0	301.390	0.260	-1.290	-0.170
2020/01/31 10:18:56.1	301.390	0.250	-1.280	-0.190
2020/01/31 10:18:56.2	301.390	0.240	-1.250	-0.200
2020/01/31 10:18:56.3	301.390	0.230	-1.230	-0.220
2020/01/31 10:18:56.4	301.390	0.220	-1.200	-0.230
2020/01/31 10:18:56.5	301.390	0.200	-1.170	-0.240
2020/01/31 10:18:56.6	301.390	0.190	-1.130	-0.250
2020/01/31 10:18:56.7	301.390	0.170	-1.090	-0.260
2020/01/31 10:18:56.8	301.390	0.160	-1.050	-0.270
2020/01/31 10:18:56.9	301.390	0.140	-1.010	-0.270
2020/01/31 10:18:57.0	301.390	0.120	-0.960	-0.270
2020/01/31 10:18:57.1	301.390	0.100	-0.920	-0.280
2020/01/31 10:18:57.2	301.400	0.090	-0.870	-0.280
2020/01/31 10:18:57.3	301.400	0.070	-0.830	-0.280
2020/01/31 10:18:57.4	301.410	0.050	-0.780	-0.270
2020/01/31 10:18:57.5	301.410	0.030	-0.730	-0.270
2020/01/31 10:18:57.6	301.420	0.010	-0.680	-0.270
2020/01/31 10:18:57.7	301.430	-0.010	-0.630	-0.270
2020/01/31 10:18:57.8	301.430	-0.030	-0.590	-0.260
2020/01/31 10:18:57.9	301.440	-0.050	-0.540	-0.260
2020/01/31 10:18:58.0	301.450	-0.070	-0.490	-0.250
2020/01/31 10:18:58.1	301.460	-0.090	-0.450	-0.240
2020/01/31 10:18:58.2	301.470	-0.100	-0.400	-0.230
2020/01/31 10:18:58.3	301.480	-0.120	-0.350	-0.220
2020/01/31 10:18:58.4	301.480	-0.140	-0.310	-0.210
2020/01/31 10:18:58.5	301.490	-0.160	-0.260	-0.200
2020/01/31 10:18:58.6	301.500	-0.170	-0.210	-0.180
2020/01/31 10:18:58.7	301.510	-0.190	-0.160	-0.160
2020/01/31 10:18:58.8	301.520	-0.200	-0.120	-0.150
2020/01/31 10:18:58.9	301.530	-0.220	-0.070	-0.120
2020/01/31 10:18:59.0	301.540	-0.230	-0.020	-0.100
2020/01/31 10:18:59.1	301.550	-0.240	0.020	-0.070
2020/01/31 10:18:59.2	301.560	-0.250	0.070	-0.050
2020/01/31 10:18:59.3	301.570	-0.260	0.120	-0.010
2020/01/31 10:18:59.4	301.570	-0.270	0.160	0.020
2020/01/31 10:18:59.5	301.570	-0.280	0.210	0.050
2020/01/31 10:18:59.6	301.580	-0.290	0.250	0.090
2020/01/31 10:18:59.7	301.580	-0.290	0.290	0.130
2020/01/31 10:18:59.8	301.580	-0.300	0.330	0.160
2020/01/31 10:18:59.9	301.590	-0.300	0.360	0.200
2020/01/31 10:19:00.0	301.590	-0.300	0.390	0.240
2020/01/31 10:19:00.1	301.590	-0.300	0.420	0.280
2020/01/31 10:19:00.2	301.590	-0.300	0.440	0.320
2020/01/31 10:19:00.3	301.590	-0.300	0.460	0.360
2020/01/31 10:19:00.4	301.600	-0.290	0.480	0.400
2020/01/31 10:19:00.5	301.600	-0.290	0.490	0.430
2020/01/31 10:19:00.6	301.600	-0.280	0.490	0.470
2020/01/31 10:19:00.7	301.610	-0.270	0.490	0.500
2020/01/31 10:19:00.8	301.610	-0.260	0.490	0.530
2020/01/31 10:19:00.9	301.610	-0.250	0.480	0.560
2020/01/31 10:19:01.0	301.620	-0.240	0.470	0.590
2020/01/31 10:19:01.1	301.630	-0.220	0.450	0.610
2020/01/31 10:19:01.2	301.630	-0.210	0.430	0.630
2020/01/31 10:19:01.3	301.640	-0.190	0.410	0.650
2020/01/31 10:19:01.4	301.650	-0.170	0.380	0.660
2020/01/31 10:19:01.5	301.660	-0.150	0.350	0.680
2020/01/31 10:19:01.6	301.670	-0.130	0.320	0.690
2020/01/31 10:19:01.7	301.680	-0.110	0.280	0.700
2020/01/31 10:19:01.8	301.680	-0.090	0.250	0.710
2020/01/31 10:19:01.9	301.690	-0.070	0.210	0.710
2020/01/31 10:19:02.0	301.700	-0.050	0.180	0.720
2020/01/31 10:19:02.1	301.700	-0.030	0.150	0.720
2020/01/31 10:19:02.2	301.710	-0.000	0.110	0.720
2020/01/31 10:19:02.3	301.720	0.020	0.080	0.720
2020/01/31 10:19:02.4	301.720	0.040	0.050	0.720
2020/01/31 10:19:02.5	301.720	0.060	0.020	0.720
2020/01/31 10:19:02.6	301.730	0.080	-0.000	0.720
2020/01/31 10:19:02.7	301.730	0.090	-0.020	0.710
2020/01/31 10:19:02.8	301.730	0.110	-0.040	0.710
2020/01/31 10:19:02.9	301.730	0.130	-0.060	0.700
2020/01/31 10:19:03.0	301.730	0.140	-0.080	0.690
2020/01/31 10:19:03.1	301.730	0.150	-0.090	0.690
2020/01/31 10:19:03.2	301.730	0.160	-0.100	0.680
2020/01/31 10:19:03.3	301.720	0.170	-0.100	0.670
2020/01/31 10:19:03.4	301.730	0.180	-0.110	0.650
2020/01/31 10:19:03.5	301.720	0.190	-0.110	0.640
2020/01/31 10:19:03.6	301.720	0.190	-0.110	0.630
2020/01/31 10:19:03.7	301.710	0.190	-0.110	0.620
2020/01/31 10:19:03.8	301.710	0.190	-0.110	0.600
2020/01/31 10:19:03.9	301.700	0.190	-0.110	0.590
2020/01/31 10:19:04.0	301.700	0.190	-0.110	0.570
2020/01/31 10:19:04.1	301.690	0.190	-0.100	0.560
2020/01/31 10:19:04.2	301.680	0.180	-0.100	0.540
2020/01/31 10:19:04.3	301.670	0.180	-0.100	0.520
2020/01/31 10:19:04.4	301.680	0.170	-0.100	0.500
2020/01/31 10:19:04.5	301.670	0.170	-0.090	0.480
2020/01/31 10:19:04.6	301.660	0.160	-0.090	0.460
2020/01/31 10:19:04.7	301.660	0.150	-0.100	0.440
2020/01/31 10:19:04.8	301.650	0.140	-0.100	0.420
2020/01/31 10:19:04.9	301.640	0.130	-0.110	0.400
2020/01/31 10:19:05.0	301.640	0.120	-0.110	0.370
2020/01/31 10:19:05.1	301.630	0.110	-0.120	0.350
2020/01/31 10:19:05.2	301.620	0.100	-0.140	0.320
2020/01/31 10:19:05.3	301.620	0.090	-0.150	0.300
2020/01/31 10:19:05.4	301.600	0.080	-0.170	0.260
2020/01/31 10:19:05.5	301.600	0.060	-0.190	0.240
2020/01/31 10:19:05.6	301.590	0.050	-0.210	0.210
2020/01/31 10:19:05.7	301.590	0.040	-0.240	0.180
2020/01/31 10:19:05.8	301.590	0.030	-0.260	0.150
2020/01/31 10:19:05.9	301.580	0.020	-0.290	0.110
2020/01/31 10:19:06.0	301.580	0.010	-0.320	0.080
2020/01/31 10:19:06.1	301.580	-0.000	-0.350	0.050
2020/01/31 10:19:06.2	301.580	-0.010	-0.380	0.020
2020/01/31 10:19:06.3	301.580	-0.020	-0.410	-0.010
2020/01/31 10:19:06.4	301.570	-0.030	-0.440	-0.040
2020/01/31 10:19:06.5	301.570	-0.040	-0.470	-0.070
2020/01/31 10:19:06.6	301.570	-0.050	-0.500	-0.100
2020/01/31 10:19:06.7	301.570	-0.050	-0.530	-0.120
2020/01/31 10:19:06.8	301.570	-0.060	-0.560	-0.150
2020/01/31 10:19:06.9	301.570	-0.070	-0.580	-0.170
2020/01/31 10:19:07.0	301.570	-0.070	-0.600	-0.190
2020/01/31 10:19:07.1	301.570	-0.080	-0.620	-0.200
2020/01/31 10:19:07.2	301.570	-0.080	-0.630	-0.220
2020/01/31 10:19:07.3	301.570	-0.090	-0.650	-0.230
2020/01/31 10:19:07.4	301.570	-0.090	-0.650	-0.240
2020/01/31 10:19:07.5	301.570	-0.090	-0.660	-0.240
2020/01/31 10:19:07.6	301.570	-0.100	-0.660	-0.250
2020/01/31 10:19:07.7	301.560	-0.100	-0.650	-0.250
2020/01/31 10:19:07.8	301.560	-0.100	-0.640	-0.240
2020/01/31 10:19:07.9	301.550	-0.100	-0.630	-0.230
2020/01/31 10:19:08.0	301.550	-0.100	-0.620	-0.220
2020/01/31 10:19:08.1	301.540	-0.100	-0.600	-0.200
2020/01/31 10:19:08.2	301.530	-0.100	-0.580	-0.180
2020/01/31 10:19:08.3	301.520	-0.100	-0.550	-0.160
2020/01/31 10:19:08.4	301.530	-0.100	-0.530	-0.130
2020/01/31 10:19:08.5	301.520	-0.090	-0.500	-0.100
2020/01/31 10:19:08.6	301.510	-0.090	-0.470	-0.070
2020/01/31 10:19:08.7	301.500	-0.090	-0.440	-0.040
2020/01/31 10:19:08.8	301.490	-0.080	-0.410	-0.000
2020/01/31 10:19:08.9	301.480	-0.080	-0.380	0.040
2020/01/31 10:19:09.0	301.470	-0.070	-0.350	0.070
2020/01/31 10:19:09.1	301.460	-0.060	-0.320	0.110
2020/01/31 10:19:09.2	301.450	-0.060	-0.300	0.150
2020/01/31 10:19:09.3	301.440	-0.050	-0.270	0.190
2020/01/31 10:19:09.4	301.420	-0.040	-0.250	0.230
2020/01/31 10:19:09.5	301.410	-0.030	-0.230	0.270
2020/01/31 10:19:09.6	301.400	-0.020	-0.210	0.310
2020/01/31 10:19:09.7	301.390	-0.010	-0.200	0.350
2020/01/31 10:19:09.8	301.380	-0.000	-0.190	0.390
2020/01/31 10:19:09.9	301.370	0.010	-0.190	0.430
2020/01/31 10:19:10.0	301.360	0.020	-0.180	0.460
2020/01/31 10:19:10.1	301.350	0.040	-0.190	0.500
2020/01/31 10:19:10.2	301.350	0.050	-0.190	0.530
2020/01/31 10:19:10.3	301.340	0.060	-0.200	0.560
2020/01/31 10:19:10.4	301.330	0.080	-0.210	0.580
2020/01/31 10:19:10.5	301.330	0.090	-0.230	0.610
2020/01/31 10:19:10.6	301.330	0.110	-0.250	0.630
2020/01/31 10:19:10.7	301.320	0.130	-0.270	0.650
2020/01/31 10:19:10.8	301.320	0.150	-0.300	0.670
2020/01/31 10:19:10.9	301.320	0.160	-0.330	0.690
2020/01/31 10:19:11.0	301.320	0.180	-0.360	0.700
2020/01/31 10:19:11.1	301.330	0.200	-0.390	0.710
2020/01/31 10:19:11.2	301.330	0.220	-0.420	0.720
2020/01/31 10:19:11.3	301.340	0.230	-0.450	0.720
2020/01/31 10:19:11.4	301.340	0.250	-0.490	0.720
2020/01/31 10:19:11.5	301.350	0.270	-0.520	0.720
2020/01/31 10:19:11.6	301.360	0.280	-0.560	0.720
2020/01/31 10:19:11.7	301.370	0.300	-0.590	0.710
2020/01/31 10:19:11.8	301.390	0.310	-0.620	0.700
2020/01/31 10:19:11.9	301.400	0.330	-0.650	0.690
2020/01/31 10:19:12.0	301.420	0.340	-0.680	0.680
2020/01/31 10:19:12.1	301.440	0.350	-0.700	0.660
2020/01/31 10:19:12.2	301.460	0.360	-0.720	0.650
2020/01/31 10:19:12.3	301.480	0.370	-0.740	0.630
2020/01/31 10:19:12.4	301.500	0.380	-0.760	0.610
2020/01/31 10:19:12.5	301.530	0.380	-0.770	0.590
2020/01/31 10:19:12.6	301.550	0.380	-0.780	0.570
2020/01/31 10:19:12.7	301.570	0.380	-0.780	0.550
2020/01/31 10:19:12.8	301.600	0.380	-0.780	0.530
2020/01/31 10:19:12.9	301.620	0.380	-0.770	0.510
2020/01/31 10:19:13.0	301.650	0.370	-0.760	0.490
2020/01/31 10:19:13.1	301.670	0.370	-0.750	0.470
2020/01/31 10:19:13.2	301.700	0.350	-0.730	0.450
2020/01/31 10:19:13.3	301.730	0.340	-0.700	0.430
2020/01/31 10:19:13.4	301.750	0.330	-0.670	0.410
2020/01/31 10:19:13.5	301.780	0.310	-0.640	0.390
2020/01/31 10:19:13.6	301.800	0.290	-0.610	0.370
2020/01/31 10:19:13.7	301.820	0.270	-0.570	0.350
2020/01/31 10:19:13.8	301.840	0.250	-0.520	0.330
2020/01/31 10:19:13.9	301.870	0.220	-0.470	0.320
2020/01/31 10:19:14.0	301.890	0.190	-0.420	0.300
2020/01/31 10:19:14.1	301.900	0.170	-0.370	0.290
2020/01/31 10:19:14.2	301.920	0.140	-0.320	0.270
2020/01/31 10:19:14.3	301.940	0.100	-0.260	0.260
2020/01/31 10:19:14.4	301.970	0.070	-0.200	0.240
2020/01/31 10:19:14.5	301.980	0.040	-0.140	0.230
2020/01/31 10:19:14.6	302.000	0.000	-0.080	0.220
2020/01/31 10:19:14.7	302.010	-0.030	-0.020	0.200
2020/01/31 10:19:14.8	302.020	-0.070	0.040	0.190
2020/01/31 10:19:14.9	302.020	-0.110	0.100	0.180
2020/01/31 10:19:15.0	302.030	-0.150	0.160	0.170
2020/01/31 10:19:15.1	302.030	-0.180	0.220	0.160
2020/01/31 10:19:15.2	302.030	-0.220	0.280	0.150
2020/01/31 10:19:15.3	302.030	-0.260	0.340	0.140
2020/01/31 10:19:15.4	302.030	-0.290	0.400	0.130
2020/01/31 10:19:15.5	302.030	-0.330	0.450	0.120
2020/01/31 10:19:15.6	302.020	-0.370	0.500	0.110
2020/01/31 10:19:15.7	302.010	-0.400	0.550	0.100
2020/01/31 10:19:15.8	302.000	-0.430	0.590	0.100
2020/01/31 10:19:15.9	301.980	-0.460	0.630	0.100
2020/01/31 10:19:16.0	301.970	-0.490	0.670	0.090
2020/01/31 10:19:16.1	301.950	-0.520	0.700	0.090
2020/01/31 10:19:16.2	301.930	-0.540	0.730	0.090
2020/01/31 10:19:16.3	301.900	-0.570	0.760	0.090
2020/01/31 10:19:16.4	301.870	-0.590	0.780	0.090
2020/01/31 10:19:16.5	301.850	-0.610	0.800	0.090
2020/01/31 10:19:16.6	301.820	-0.620	0.810	0.100
2020/01/31 10:19:16.7	301.790	-0.640	0.820	0.100
2020/01/31 10:19:16.8	301.750	-0.650	0.820	0.110
2020/01/31 10:19:16.9	301.720	-0.650	0.820	0.120
2020/01/31 10:19:17.0	301.680	-0.660	0.820	0.130
2020/01/31 10:19:17.1	301.650	-0.660	0.810	0.140
2020/01/31 10:19:17.2	301.610	-0.660	0.790	0.160
2020/01/31 10:19:17.3	301.570	-0.650	0.770	0.170
2020/01/31 10:19:17.4	301.540	-0.640	0.750	0.180
2020/01/31 10:19:17.5	301.500	-0.630	0.720	0.190
2020/01/31 10:19:17.6	301.460	-0.610	0.690	0.210
2020/01/31 10:19:17.7	301.420	-0.590	0.650	0.230
2020/01/31 10:19:17.8	301.380	-0.570	0.610	0.240
2020/01/31 10:19:17.9	301.340	-0.550	0.560	0.260
2020/01/31 10:19:18.0	301.300	-0.520	0.520	0.280
2020/01/31 10:19:18.1	301.270	-0.490	0.460	0.300
2020/01/31 10:19:18.2	301.230	-0.460	0.410	0.310
2020/01/31 10:19:18.3	301.190	-0.430	0.350	0.330
2020/01/31 10:19:18.4	301.150	-0.390	0.290	0.340
2020/01/31 10:19:18.5	301.120	-0.350	0.220	0.350
2020/01/31 10:19:18.6	301.090	-0.310	0.150	0.370
2020/01/31 10:19:18.7	301.060	-0.270	0.080	0.380
2020/01/31 10:19:18.8	301.030	-0.230	0.010	0.390
2020/01/31 10:19:18.9	301.000	-0.190	-0.060	0.400
2020/01/31 10:19:19.0	300.980	-0.150	-0.140	0.400
2020/01/31 10:19:19.1	300.960	-0.110	-0.210	0.410
2020/01/31 10:19:19.2	300.940	-0.060	-0.290	0.420
2020/01/31 10:19:19.3	300.920	-0.020	-0.370	0.420
2020/01/31 10:19:19.4	300.880	0.020	-0.440	0.420
2020/01/31 10:19:19.5	300.870	0.060	-0.520	0.430
2020/01/31 10:19:19.6	300.860	0.110	-0.590	0.430
2020/01/31 10:19:19.7	300.850	0.150	-0.670	0.430
2020/01/31 10:19:19.8	300.850	0.180	-0.740	0.430
2020/01/31 10:19:19.9	300.840	0.220	-0.800	0.430
2020/01/31 10:19:20.0	300.840	0.260	-0.870	0.430
2020/01/31 10:19:20.1	300.840	0.290	-0.930	0.430
2020/01/31 10:19:20.2	300.850	0.330	-0.990	0.430
2020/01/31 10:19:20.3	300.850	0.360	-1.040	0.430
2020/01/31 10:19:20.4	300.860	0.390	-1.090	0.430
2020/01/31 10:19:20.5	300.870	0.420	-1.140	0.430
2020/01/31 10:19:20.6	300.880	0.440	-1.180	0.430
2020/01/31 10:19:20.7	300.890	0.470	-1.210	0.430
2020/01/31 10:19:20.8	300.910	0.490	-1.240	0.430
2020/01/31 10:19:20.9	300.920	0.510	-1.270	0.430
2020/01/31 10:19:21.0	300.940	0.530	-1.290	0.430
2020/01/31 10:19:21.1	300.960	0.540	-1.300	0.430
2020/01/31 10:19:21.2	300.980	0.560	-1.310	0.430
2020/01/31 10:19:21.3	301.000	0.570	-1.310	0.430
2020/01/31 10:19:21.4	301.040	0.580	-1.310	0.430
2020/01/31 10:19:21.5	301.070	0.580	-1.300	0.430
2020/01/31 10:19:21.6	301.090	0.590	-1.290	0.430
2020/01/31 10:19:21.7	301.110	0.590	-1.270	0.430
2020/01/31 10:19:21.8	301.140	0.590	-1.250	0.430
2020/01/31 10:19:21.9	301.160	0.590	-1.220	0.420
2020/01/31 10:19:22.0	301.180	0.580	-1.190	0.420
2020/01/31 10:19:22.1	301.200	0.580	-1.150	0.420
2020/01/31 10:19:22.2	301.230	0.570	-1.110	0.420
2020/01/31 10:19:22.3	301.250	0.560	-1.070	0.420
2020/01/31 10:19:22.4	301.270	0.550	-1.020	0.420
2020/01/31 10:19:22.5	301.290	0.530	-0.970	0.420
2020/01/31 10:19:22.6	301.310	0.520	-0.920	0.420
2020/01/31 10:19:22.7	301.330	0.500	-0.870	0.420
2020/01/31 10:19:22.8	301.340	0.480	-0.810	0.420
2020/01/31 10:19:22.9	301.360	0.460	-0.760	0.420
2020/01/31 10:19:23.0	301.370	0.440	-0.700	0.420
2020/01/31 10:19:23.1	301.390	0.410	-0.640	0.420
2020/01/31 10:19:23.2	301.400	0.390	-0.580	0.420
2020/01/31 10:19:23.3	301.410	0.370	-0.530	0.420
2020/01/31 10:19:23.4	301.420	0.340	-0.470	0.420
2020/01/31 10:19:23.5	301.430	0.310	-0.420	0.420
2020/01/31 10:19:23.6	301.440	0.290	-0.360	0.420
2020/01/31 10:19:23.7	301.450	0.260	-0.310	0.420
2020/01/31 10:19:23.8	301.460	0.230	-0.260	0.420
2020/01/31 10:19:23.9	301.470	0.210	-0.220	0.410
2020/01/31 10:19:24.0	301.480	0.180	-0.170	0.410
2020/01/31 10:19:24.1	301.490	0.150	-0.130	0.410
2020/01/31 10:19:24.2	301.500	0.130	-0.090	0.400
2020/01/31 10:19:24.3	301.510	0.100	-0.060	0.400
2020/01/31 10:19:24.4	301.520	0.080	-0.020	0.400
2020/01/31 10:19:24.5	301.530	0.050	0.010	0.390
2020/01/31 10:19:24.6	301.530	0.030	0.040	0.390
2020/01/31 10:19:24.7	301.530	0.000	0.070	0.380
2020/01/31 10:19:24.8	301.540	-0.020	0.090	0.380
2020/01/31 10:19:24.9	301.540	-0.040	0.120	0.380
2020/01/31 10:19:25.0	301.530	-0.060	0.140	0.370
2020/01/31 10:19:25.1	301.530	-0.080	0.160	0.370
2020/01/31 10:19:25.2	301.520	-0.100	0.180	0.370
2020/01/31 10:19:25.3	301.510	-0.110	0.200	0.370
2020/01/31 10:19:25.4	301.500	-0.130	0.220	0.370
2020/01/31 10:19:25.5	301.490	-0.150	0.240	0.370
2020/01/31 10:19:25.6	301.470	-0.160	0.250	0.380
2020/01/31 10:19:25.7	301.450	-0.170	0.270	0.380
2020/01/31 10:19:25.8	301.430	-0.180	0.290	0.390
2020/01/31 10:19:25.9	301.410	-0.200	0.300	0.400
2020/01/31 10:19:26.0	301.390	-0.210	0.320	0.410
2020/01/31 10:19:26.1	301.360	-0.220	0.330	0.420
2020/01/31 10:19:26.2	301.340	-0.220	0.350	0.430
2020/01/31 10:19:26.3	301.310	-0.230	0.360	0.440
2020/01/31 10:19:26.4	301.260	-0.240	0.370	0.450
2020/01/31 10:19:26.5	301.230	-0.240	0.380	0.470
2020/01/31 10:19:26.6	301.200	-0.250	0.390	0.480
2020/01/31 10:19:26.7	301.170	-0.250	0.390	0.490
2020/01/31 10:19:26.8	301.130	-0.260	0.400	0.500
2020/01/31 10:19:26.9	301.100	-0.260	0.400	0.510
2020/01/31 10:19:27.0	301.070	-0.260	0.400	0.520
2020/01/31 10:19:27.1	301.040	-0.260	0.400	0.530
2020/01/31 10:19:27.2	301.010	-0.270	0.400	0.540
2020/01/31 10:19:27.3	300.980	-0.270	0.390	0.540
2020/01/31 10:19:27.4	300.940	-0.270	0.380	0.540
2020/01/31 10:19:27.5	300.920	-0.270	0.370	0.540
2020/01/31 10:19:27.6	300.890	-0.270	0.360	0.530
2020/01/31 10:19:27.7	300.870	-0.270	0.340	0.530
2020/01/31 10:19:27.8	300.850	-0.270	0.320	0.520
2020/01/31 10:19:27.9	300.830	-0.270	0.300	0.510
2020/01/31 10:19:28.0	300.810	-0.260	0.280	0.500
2020/01/31 10:19:28.1	300.800	-0.260	0.250	0.480
2020/01/31 10:19:28.2	300.780	-0.260	0.230	0.470
2020/01/31 10:19:28.3	300.770	-0.250	0.200	0.450
2020/01/31 10:19:28.4	300.760	-0.250	0.160	0.420
2020/01/31 10:19:28.5	300.750	-0.250	0.130	0.400
2020/01/31 10:19:28.6	300.740	-0.240	0.100	0.380
2020/01/31 10:19:28.7	300.740	-0.230	0.060	0.350
2020/01/31 10:19:28.8	300.740	-0.230	0.020	0.330
2020/01/31 10:19:28.9	300.740	-0.220	-0.010	0.300
2020/01/31 10:19:29.0	300.740	-0.210	-0.050	0.270
2020/01/31 10:19:29.1	300.750	-0.200	-0.090	0.250
2020/01/31 10:19:29.2	300.750	-0.190	-0.130	0.220
2020/01/31 10:19:29.3	300.760	-0.180	-0.170	0.190
2020/01/31 10:19:29.4	300.760	-0.170	-0.210	0.160
2020/01/31 10:19:29.5	300.770	-0.160	-0.240	0.140
2020/01/31 10:19:29.6	300.780	-0.150	-0.280	0.110
2020/01/31 10:19:29.7	300.790	-0.140	-0.320	0.080
2020/01/31 10:19:29.8	300.810	-0.120	-0.350	0.060
2020/01/31 10:19:29.9	300.820	-0.110	-0.390	0.040
2020/01/31 10:19:30.0	300.840	-0.090	-0.420	0.020
2020/01/31 10:19:30.1	300.860	-0.080	-0.450	-0.000
2020/01/31 10:19:30.2	300.870	-0.060	-0.480	-0.020
2020/01/31 10:19:30.3	300.890	-0.050	-0.510	-0.040
2020/01/31 10:19:30.4	300.920	-0.030	-0.540	-0.060
2020/01/31 10:19:30.5	300.940	-0.010	-0.560	-0.080
2020/01/31 10:19:30.6	300.960	0.000	-0.590	-0.090
2020/01/31 10:19:30.7	300.990	0.020	-0.610	-0.100
2020/01/31 10:19:30.8	301.010	0.040	-0.640	-0.120
2020/01/31 10:19:30.9	301.030	0.050	-0.660	-0.130
2020/01/31 10:19:31.0	301.060	0.070	-0.670	-0.140
2020/01/31 10:19:31.1	301.080	0.080	-0.690	-0.150
2020/01/31 10:19:31.2	301.100	0.100	-0.710	-0.150
2020/01/31 10:19:31.3	301.130	0.110	-0.720	-0.160
2020/01/31 10:19:31.4	301.170	0.130	-0.740	-0.160
2020/01/31 10:19:31.5	301.190	0.140	-0.740	-0.170
2020/01/31 10:19:31.6	301.220	0.150	-0.750	-0.170
2020/01/31 10:19:31.7	301.240	0.160	-0.760	-0.170
2020/01/31 10:19:31.8	301.260	0.170	-0.760	-0.170
2020/01/31 10:19:31.9	301.280	0.180	-0.760	-0.160
2020/01/31 10:19:32.0	301.300	0.190	-0.760	-0.160
2020/01/31 10:19:32.1	301.320	0.200	-0.750	-0.150
2020/01/31 10:19:32.2	301.340	0.210	-0.740	-0.140
2020/01/31 10:19:32.3	301.350	0.210	-0.730	-0.130
2020/01/31 10:19:32.4	301.380	0.220	-0.720	-0.110
2020/01/31 10:19:32.5	301.390	0.220	-0.700	-0.100
2020/01/31 10:19:32.6	301.400	0.220	-0.680	-0.080
2020/01/31 10:19:32.7	301.410	0.220	-0.660	-0.060
2020/01/31 10:19:32.8	301.420	0.220	-0.640	-0.030
2020/01/31 10:19:32.9	301.430	0.220	-0.620	-0.010
2020/01/31 10:19:33.0	301.430	0.220	-0.590	0.020
2020/01/31 10:19:33.1	301.440	0.210	-0.560	0.050
2020/01/31 10:19:33.2	301.440	0.200	-0.530	0.080
2020/01/31 10:19:33.3	301.430	0.190	-0.500	0.110
2020/01/31 10:19:33.4	301.440	0.180	-0.460	0.140
2020/01/31 10:19:33.5	301.440	0.170	-0.430	0.180
2020/01/31 10:19:33.6	301.430	0.160	-0.390	0.210
2020/01/31 10:19:33.7	301.420	0.140	-0.350	0.250
2020/01/31 10:19:33.8	301.410	0.120	-0.320	0.280
2020/01/31 10:19:33.9	301.390	0.110	-0.280	0.310
2020/01/31 10:19:34.0	301.380	0.090	-0.250	0.340
2020/01/31 10:19:34.1	301.360	0.070	-0.210	0.380
2020/01/31 10:19:34.2	301.350	0.050	-0.170	0.400
2020/01/31 10:19:34.3	301.330	0.030	-0.140	0.430
2020/01/31 10:19:34.4	301.310	0.010	-0.110	0.450
2020/01/31 10:19:34.5	301.290	-0.010	-0.080	0.480
2020/01/31 10:19:34.6	301.270	-0.030	-0.050	0.500
2020/01/31 10:19:34.7	301.240	-0.050	-0.020	0.520
2020/01/31 10:19:34.8	301.220	-0.070	0.000	0.540
2020/01/31 10:19:34.9	301.200	-0.090	0.020	0.550
2020/01/31 10:19:35.0	301.180	-0.100	0.040	0.560
2020/01/31 10:19:35.1	301.160	-0.120	0.060	0.570
2020/01/31 10:19:35.2	301.140	-0.140	0.070	0.580
2020/01/31 10:19:35.3	301.120	-0.150	0.080	0.590
2020/01/31 10:19:35.4	301.100	-0.160	0.080	0.590
2020/01/31 10:19:35.5	301.080	-0.170	0.080	0.590
2020/01/31 10:19:35.6	301.060	-0.180	0.080	0.590
2020/01/31 10:19:35.7	301.050	-0.190	0.080	0.580
2020/01/31 10:19:35.8	301.030	-0.190	0.070	0.580
2020/01/31 10:19:35.9	301.020	-0.190	0.060	0.580
2020/01/31 10:19:36.0	301.010	-0.190	0.040	0.570
2020/01/31 10:19:36.1	300.990	-0.190	0.030	0.560
2020/01/31 10:19:36.2	300.980	-0.190	0.010	0.550
2020/01/31 10:19:36.3	300.970	-0.180	-0.010	0.540
2020/01/31 10:19:36.4	300.960	-0.180	-0.030	0.530
2020/01/31 10:19:36.5	300.950	-0.170	-0.060	0.520
2020/01/31 10:19:36.6	300.940	-0.160	-0.080	0.520
2020/01/31 10:19:36.7	300.930	-0.140	-0.100	0.510
2020/01/31 10:19:36.8	300.930	-0.130	-0.130	0.500
2020/01/31 10:19:36.9	300.920	-0.110	-0.150	0.490
2020/01/31 10:19:37.0	300.920	-0.100	-0.170	0.480
2020/01/31 10:19:37.1	300.910	-0.080	-0.190	0.480
2020/01/31 10:19:37.2	300.910	-0.060	-0.210	0.480
2020/01/31 10:19:37.3	300.910	-0.040	-0.230	0.470
2020/01/31 10:19:37.4	300.900	-0.020	-0.250	0.470
2020/01/31 10:19:37.5	300.900	-0.000	-0.260	0.470
2020/01/31 10:19:37.6	300.900	0.020	-0.270	0.470
2020/01/31 10:19:37.7	300.890	0.040	-0.280	0.470
2020/01/31 10:19:37.8	300.890	0.060	-0.290	0.480
2020/01/31 10:19:37.9	300.890	0.080	-0.290	0.480
2020/01/31 10:19:38.0	300.890	0.100	-0.300	0.480
2020/01/31 10:19:38.1	300.890	0.120	-0.300	0.490
2020/01/31 10:19:38.2	300.900	0.140	-0.300	0.490
2020/01/31 10:19:38.3	300.900	0.150	-0.300	0.500
2020/01/31 10:19:38.4	300.900	0.170	-0.290	0.500
2020/01/31 10:19:38.5	300.910	0.190	-0.290	0.510
2020/01/31 10:19:38.6	300.910	0.200	-0.280	0.510
2020/01/31 10:19:38.7	300.920	0.210	-0.280	0.510
2020/01/31 10:19:38.8	300.930	0.230	-0.270	0.510
2020/01/31 10:19:38.9	300.930	0.240	-0.260	0.510
2020/01/31 10:19:39.0	300.940	0.240	-0.250	0.510
2020/01/31 10:19:39.1	300.950	0.250	-0.250	0.510
2020/01/31 10:19:39.2	300.960	0.260	-0.240	0.510
2020/01/31 10:19:39.3	300.980	0.260	-0.230	0.500
2020/01/31 10:19:39.4	300.990	0.260	-0.220	0.500
2020/01/31 10:19:39.5	301.000	0.260	-0.210	0.500
2020/01/31 10:19:39.6	301.010	0.260	-0.200	0.490
2020/01/31 10:19:39.7	301.030	0.260	-0.190	0.480
2020/01/31 10:19:39.8	301.040	0.260	-0.190	0.470
2020/01/31 10:19:39.9	301.060	0.250	-0.180	0.460
2020/01/31 10:19:40.0	301.070	0.240	-0.170	0.450
2020/01/31 10:19:40.1	301.090	0.240	-0.160	0.440
2020/01/31 10:19:40.2	301.110	0.230	-0.150	0.430
2020/01/31 10:19:40.3	301.120	0.220	-0.140	0.410
2020/01/31 10:19:40.4	301.140	0.210	-0.140	0.400
2020/01/31 10:19:40.5	301.150	0.190	-0.130	0.390
2020/01/31 10:19:40.6	301.170	0.180	-0.120	0.370
2020/01/31 10:19:40.7	301.190	0.170	-0.110	0.360
2020/01/31 10:19:40.8	301.200	0.160	-0.100	0.350
2020/01/31 10:19:40.9	301.220	0.140	-0.090	0.340
2020/01/31 10:19:41.0	301.230	0.130	-0.080	0.330
2020/01/31 10:19:41.1	301.240	0.110	-0.070	0.320
2020/01/31 10:19:41.2	301.250	0.100	-0.060	0.310
2020/01/31 10:19:41.3	301.260	0.080	-0.060	0.300
2020/01/31 10:19:41.4	301.270	0.070	-0.050	0.290
2020/01/31 10:19:41.5	301.280	0.060	-0.040	0.280
2020/01/31 10:19:41.6	301.280	0.040	-0.030	0.280
2020/01/31 10:19:41.7	301.280	0.030	-0.030	0.280
2020/01/31 10:19:41.8	301.290	0.020	-0.020	0.270
2020/01/31 10:19:41.9	301.290	0.010	-0.020	0.270
2020/01/31 10:19:42.0	301.280	-0.010	-0.020	0.270
2020/01/31 10:19:42.1	301.280	-0.020	-0.020	0.280
2020/01/31 10:19:42.2	301.280	-0.030	-0.020	0.280
2020/01/31 10:19:42.3	301.270	-0.040	-0.020	0.280
2020/01/31 10:19:42.4	301.260	-0.050	-0.020	0.290
2020/01/31 10:19:42.5	301.250	-0.060	-0.030	0.290
2020/01/31 10:19:42.6	301.240	-0.060	-0.040	0.300
2020/01/31 10:19:42.7	301.220	-0.070	-0.050	0.300
2020/01/31 10:19:42.8	301.210	-0.080	-0.060	0.310
2020/01/31 10:19:42.9	301.190	-0.090	-0.070	0.320
2020/01/31 10:19:43.0	301.170	-0.090	-0.090	0.330
2020/01/31 10:19:43.1	301.150	-0.100	-0.100	0.330
2020/01/31 10:19:43.2	301.130	-0.100	-0.120	0.340
2020/01/31 10:19:43.3	301.110	-0.110	-0.140	0.350
2020/01/31 10:19:43.4	301.080	-0.110	-0.160	0.360
2020/01/31 10:19:43.5	301.050	-0.120	-0.180	0.360
2020/01/31 10:19:43.6	301.030	-0.120	-0.210	0.370
2020/01/31 10:19:43.7	301.000	-0.130	-0.230	0.380
2020/01/31 10:19:43.8	300.980	-0.130	-0.260	0.380
2020/01/31 10:19:43.9	300.950	-0.130	-0.280	0.390
2020/01/31 10:19:44.0	300.920	-0.140	-0.310	0.390
2020/01/31 10:19:44.1	300.900	-0.140	-0.340	0.390
2020/01/31 10:19:44.2	300.870	-0.140	-0.370	0.400
2020/01/31 10:19:44.3	300.840	-0.150	-0.400	0.400
2020/01/31 10:19:44.4	300.810	-0.150	-0.430	0.400
2020/01/31 10:19:44.5	300.790	-0.150	-0.450	0.410
2020/01/31 10:19:44.6	300.760	-0.150	-0.480	0.410
2020/01/31 10:19:44.7	300.740	-0.160	-0.510	0.410
2020/01/31 10:19:44.8	300.710	-0.160	-0.530	0.410
2020/01/31 10:19:44.9	300.690	-0.160	-0.560	0.410
2020/01/31 10:19:45.0	300.670	-0.160	-0.580	0.410
2020/01/31 10:19:45.1	300.650	-0.160	-0.600	0.420
2020/01/31 10:19:45.2	300.630	-0.160	-0.620	0.420
2020/01/31 10:19:45.3	300.610	-0.160	-0.640	0.420
2020/01/31 10:19:45.4	300.580	-0.160	-0.660	0.410
2020/01/31 10:19:45.5	300.570	-0.160	-0.670	0.410
2020/01/31 10:19:45.6	300.550	-0.160	-0.690	0.410
2020/01/31 10:19:45.7	300.540	-0.160	-0.700	0.410
2020/01/31 10:19:45.8	300.530	-0.150	-0.710	0.410
2020/01/31 10:19:45.9	300.520	-0.150	-0.720	0.400
2020/01/31 10:19:46.0	300.520	-0.150	-0.730	0.400
2020/01/31 10:19:46.1	300.510	-0.140	-0.730	0.400
2020/01/31 10:19:46.2	300.510	-0.140	-0.740	0.390
2020/01/31 10:19:46.3	300.500	-0.140	-0.740	0.390
2020/01/31 10:19:46.4	300.490	-0.130	-0.740	0.380
2020/01/31 10:19:46.5	300.490	-0.130	-0.740	0.380
2020/01/31 10:19:46.6	300.490	-0.130	-0.740	0.370
2020/01/31 10:19:46.7	300.500	-0.120	-0.730	0.360
2020/01/31 10:19:46.8	300.500	-0.120	-0.730	0.360
2020/01/31 10:19:46.9	300.500	-0.110	-0.720	0.350
2020/01/31 10:19:47.0	300.510	-0.110	-0.710	0.340
2020/01/31 10:19:47.1	300.520	-0.110	-0.700	0.330
2020/01/31 10:19:47.2	300.530	-0.100	-0.690	0.320
2020/01/31 10:19:47.3	300.530	-0.100	-0.680	0.310
2020/01/31 10:19:47.4	300.550	-0.100	-0.660	0.300
2020/01/31 10:19:47.5	300.560	-0.090	-0.650	0.290
2020/01/31 10:19:47.6	300.570	-0.090	-0.630	0.280
2020/01/31 10:19:47.7	300.580	-0.090	-0.610	0.270
2020/01/31 10:19:47.8	300.600	-0.080	-0.580	0.270
2020/01/31 10:19:47.9	300.610	-0.080	-0.560	0.260
2020/01/31 10:19:48.0	300.630	-0.080	-0.530	0.250
2020/01/31 10:19:48.1	300.640	-0.080	-0.510	0.240
2020/01/31 10:19:48.2	300.660	-0.070	-0.480	0.240
2020/01/31 10:19:48.3	300.680	-0.070	-0.450	0.240
2020/01/31 10:19:48.4	300.700	-0.070	-0.420	0.230
2020/01/31 10:19:48.5	300.720	-0.070	-0.380	0.230
2020/01/31 10:19:48.6	300.740	-0.060	-0.350	0.240
2020/01/31 10:19:48.7	300.760	-0.060	-0.310	0.240
2020/01/31 10:19:48.8	300.780	-0.060	-0.280	0.240
2020/01/31 10:19:48.9	300.800	-0.060	-0.240	0.250
2020/01/31 10:19:49.0	300.820	-0.050	-0.200	0.260
2020/01/31 10:19:49.1	300.840	-0.050	-0.170	0.270
2020/01/31 10:19:49.2	300.850	-0.050	-0.130	0.280
2020/01/31 10:19:49.3	300.870	-0.040	-0.090	0.300
2020/01/31 10:19:49.4	300.900	-0.040	-0.050	0.320
2020/01/31 10:19:49.5	300.920	-0.040	-0.010	0.340
2020/01/31 10:19:49.6	300.940	-0.030	0.020	0.360
2020/01/31 10:19:49.7	300.950	-0.030	0.060	0.390
2020/01/31 10:19:49.8	300.970	-0.030	0.100	0.410
2020/01/31 10:19:49.9	300.980	-0.020	0.130	0.440
2020/01/31 10:19:50.0	301.000	-0.020	0.170	0.470
2020/01/31 10:19:50.1	301.010	-0.020	0.200	0.500
2020/01/31 10:19:50.2	301.020	-0.010	0.230	0.530
2020/01/31 10:19:50.3	301.030	-0.010	0.260	0.560
2020/01/31 10:19:50.4	301.050	-0.000	0.290	0.600
2020/01/31 10:19:50.5	301.060	0.000	0.310	0.630
2020/01/31 10:19:50.6	301.070	0.010	0.340	0.670
2020/01/31 10:19:50.7	301.080	0.010	0.360	0.710
2020/01/31 10:19:50.8	301.080	0.020	0.380	0.740
2020/01/31 10:19:50.9	301.090	0.030	0.400	0.780
2020/01/31 10:19:51.0	301.090	0.030	0.420	0.820
2020/01/31 10:19:51.1	301.090	0.040	0.440	0.850
2020/01/31 10:19:51.2	301.090	0.050	0.450	0.890
2020/01/31 10:19:51.3	301.090	0.060	0.460	0.930
2020/01/31 10:19:51.4	301.100	0.070	0.470	0.960
2020/01/31 10:19:51.5	301.100	0.080	0.480	0.990
2020/01/31 10:19:51.6	301.090	0.090	0.490	1.020
2020/01/31 10:19:51.7	301.080	0.100	0.490	1.050
2020/01/31 10:19:51.8	301.080	0.110	0.490	1.080
2020/01/31 10:19:51.9	301.070	0.120	0.490	1.110
2020/01/31 10:19:52.0	301.050	0.130	0.490	1.140
2020/01/31 10:19:52.1	301.040	0.140	0.480	1.160
2020/01/31 10:19:52.2	301.020	0.150	0.470	1.190
2020/01/31 10:19:52.3	301.010	0.160	0.460	1.210
2020/01/31 10:19:52.4	301.010	0.170	0.450	1.230
2020/01/31 10:19:52.5	300.990	0.180	0.440	1.240
2020/01/31 10:19:52.6	300.960	0.190	0.420	1.260
2020/01/31 10:19:52.7	300.940	0.200	0.400	1.270
2020/01/31 10:19:52.8	300.910	0.210	0.380	1.270
2020/01/31 10:19:52.9	300.880	0.220	0.350	1.280
2020/01/31 10:19:53.0	300.850	0.230	0.330	1.280
2020/01/31 10:19:53.1	300.820	0.230	0.300	1.270
2020/01/31 10:19:53.2	300.790	0.240	0.270	1.270
2020/01/31 10:19:53.3	300.760	0.250	0.230	1.260
2020/01/31 10:19:53.4	300.750	0.250	0.200	1.240
2020/01/31 10:19:53.5	300.710	0.250	0.160	1.220
2020/01/31 10:19:53.6	300.680	0.260	0.130	1.190
2020/01/31 10:19:53.7	300.650	0.260	0.090	1.170
2020/01/31 10:19:53.8	300.620	0.260	0.050	1.140
2020/01/31 10:19:53.9	300.580	0.260	0.010	1.100
2020/01/31 10:19:54.0	300.550	0.260	-0.030	1.060
2020/01/31 10:19:54.1	300.520	0.260	-0.080	1.020
2020/01/31 10:19:54.2	300.490	0.260	-0.120	0.980
2020/01/31 10:19:54.3	300.460	0.250	-0.160	0.930
2020/01/31 10:19:54.4	300.430	0.250	-0.210	0.880
2020/01/31 10:19:54.5	300.400	0.250	-0.250	0.830
2020/01/31 10:19:54.6	300.370	0.240	-0.300	0.780
2020/01/31 10:19:54.7	300.350	0.240	-0.340	0.730
2020/01/31 10:19:54.8	300.320	0.230	-0.390	0.670
2020/01/31 10:19:54.9	300.290	0.220	-0.430	0.620
2020/01/31 10:19:55.0	300.270	0.220	-0.480	0.560
2020/01/31 10:19:55.1	300.240	0.210	-0.520	0.510
2020/01/31 10:19:55.2	300.220	0.210	-0.560	0.460
2020/01/31 10:19:55.3	300.200	0.200	-0.610	0.400
2020/01/31 10:19:55.4	300.160	0.200	-0.650	0.340
2020/01/31 10:19:55.5	300.150	0.190	-0.690	0.290
2020/01/31 10:19:55.6	300.130	0.180	-0.740	0.240
2020/01/31 10:19:55.7	300.120	0.180	-0.780	0.180
2020/01/31 10:19:55.8	300.110	0.170	-0.820	0.130
2020/01/31 10:19:55.9	300.100	0.170	-0.850	0.080
2020/01/31 10:19:56.0	300.090	0.160	-0.890	0.020
2020/01/31 10:19:56.1	300.090	0.160	-0.930	-0.030
2020/01/31 10:19:56.2	300.090	0.160	-0.970	-0.080
2020/01/31 10:19:56.3	300.090	0.150	-1.000	-0.130
2020/01/31 10:19:56.4	300.090	0.150	-1.040	-0.180
2020/01/31 10:19:56.5	300.090	0.150	-1.070	-0.230
2020/01/31 10:19:56.6	300.100	0.140	-1.100	-0.280
2020/01/31 10:19:56.7	300.120	0.140	-1.130	-0.330
2020/01/31 10:19:56.8	300.130	0.130	-1.150	-0.380
2020/01/31 10:19:56.9	300.150	0.130	-1.170	-0.420
2020/01/31 10:19:57.0	300.170	0.130	-1.190	-0.470
2020/01/31 10:19:57.1	300.190	0.120	-1.210	-0.510
2020/01/31 10:19:57.2	300.220	0.120	-1.230	-0.560
2020/01/31 10:19:57.3	300.240	0.110	-1.240	-0.600
2020/01/31 10:19:57.4	300.280	0.110	-1.240	-0.640
2020/01/31 10:19:57.5	300.310	0.100	-1.250	-0.670
2020/01/31 10:19:57.6	300.340	0.090	-1.250	-0.710
2020/01/31 10:19:57.7	300.380	0.090	-1.240	-0.740
2020/01/31 10:19:57.8	300.410	0.080	-1.240	-0.770
2020/01/31 10:19:57.9	300.450	0.070	-1.220	-0.790
2020/01/31 10:19:58.0	300.490	0.060	-1.210	-0.820
2020/01/31 10:19:58.1	300.530	0.040	-1.190	-0.830
2020/01/31 10:19:58.2	300.580	0.030	-1.160	-0.850
2020/01/31 10:19:58.3	300.620	0.020	-1.130	-0.860
2020/01/31 10:19:58.4	300.680	0.000	-1.090	-0.870
2020/01/31 10:19:58.5	300.720	-0.010	-1.050	-0.870
2020/01/31 10:19:58.6	300.770	-0.030	-1.010	-0.870
2020/01/31 10:19:58.7	300.810	-0.050	-0.950	-0.860
2020/01/31 10:19:58.8	300.850	-0.070	-0.900	-0.850
2020/01/31 10:19:58.9	300.890	-0.090	-0.840	-0.840
2020/01/31 10:19:59.0	300.930	-0.110	-0.780	-0.820
2020/01/31 10:19:59.1	300.970	-0.140	-0.710	-0.800
2020/01/31 10:19:59.2	301.000	-0.160	-0.640	-0.770
2020/01/31 10:19:59.3	301.040	-0.180	-0.560	-0.740
2020/01/31 10:19:59.4	301.080	-0.210	-0.480	-0.700
2020/01/31 10:19:59.5	301.110	-0.230	-0.400	-0.660
2020/01/31 10:19:59.6	301.140	-0.260	-0.320	-0.620
2020/01/31 10:19:59.7	301.170	-0.280	-0.240	-0.570
2020/01/31 10:19:59.8	301.190	-0.310	-0.160	-0.520
2020/01/31 10:19:59.9	301.220	-0.330	-0.080	-0.470
2020/01/31 10:20:00.0	301.240	-0.360	0.000	-0.410
2020/01/31 10:20:00.1	301.250	-0.380	0.080	-0.350
2020/01/31 10:20:00.2	301.270	-0.410	0.160	-0.290
2020/01/31 10:20:00.3	301.280	-0.430	0.240	-0.230
2020/01/31 10:20:00.4	301.310	-0.450	0.310	-0.170
2020/01/31 10:20:00.5	301.320	-0.470	0.380	-0.110
2020/01/31 10:20:00.6	301.320	-0.490	0.450	-0.040
2020/01/31 10:20:00.7	301.330	-0.510	0.510	0.020
2020/01/31 10:20:00.8	301.330	-0.520	0.560	0.090
2020/01/31 10:20:00.9	301.330	-0.540	0.620	0.150
2020/01/31 10:20:01.0	301.320	-0.550	0.660	0.210
2020/01/31 10:20:01.1	301.320	-0.560	0.700	0.280
2020/01/31 10:20:01.2	301.310	-0.560	0.740	0.340
2020/01/31 10:20:01.3	301.300	-0.570	0.770	0.400
2020/01/31 10:20:01.4	301.290	-0.570	0.790	0.450
2020/01/31 10:20:01.5	301.280	-0.570	0.810	0.510
2020/01/31 10:20:01.6	301.260	-0.570	0.820	0.560
2020/01/31 10:20:01.7	301.250	-0.560	0.820	0.610
2020/01/31 10:20:01.8	301.230	-0.560	0.820	0.660
2020/01/31 10:20:01.9	301.220	-0.550	0.810	0.710
2020/01/31 10:20:02.0	301.200	-0.530	0.800	0.750
2020/01/31 10:20:02.1	301.180	-0.520	0.780	0.790
2020/01/31 10:20:02.2	301.160	-0.500	0.760	0.830
2020/01/31 10:20:02.3	301.140	-0.480	0.730	0.860
2020/01/31 10:20:02.4	301.120	-0.460	0.690	0.890
2020/01/31 10:20:02.5	301.090	-0.440	0.650	0.920
2020/01/31 10:20:02.6	301.070	-0.420	0.610	0.940
2020/01/31 10:20:02.7	301.050	-0.390	0.560	0.970
2020/01/31 10:20:02.8	301.030	-0.370	0.520	0.990
2020/01/31 10:20:02.9	301.010	-0.340	0.470	1.010
2020/01/31 10:20:03.0	300.980	-0.310	0.410	1.020
2020/01/31 10:20:03.1	300.960	-0.280	0.360	1.030
2020/01/31 10:20:03.2	300.930	-0.250	0.300	1.040
2020/01/31 10:20:03.3	300.910	-0.220	0.250	1.050
2020/01/31 10:20:03.4	300.880	-0.190	0.190	1.060
2020/01/31 10:20:03.5	300.860	-0.150	0.130	1.060
2020/01/31 10:20:03.6	300.830	-0.120	0.080	1.060
2020/01/31 10:20:03.7	300.810	-0.090	0.030	1.060
2020/01/31 10:20:03.8	300.780	-0.060	-0.030	1.050
2020/01/31 10:20:03.9	300.760	-0.020	-0.080	1.050
2020/01/31 10:20:04.0	300.730	0.010	-0.130	1.040
2020/01/31 10:20:04.1	300.710	0.040	-0.180	1.040
2020/01/31 10:20:04.2	300.680	0.070	-0.220	1.030
2020/01/31 10:20:04.3	300.660	0.100	-0.260	1.020
2020/01/31 10:20:04.4	300.640	0.130	-0.310	1.000
2020/01/31 10:20:04.5	300.620	0.160	-0.350	0.990
2020/01/31 10:20:04.6	300.600	0.190	-0.380	0.970
2020/01/31 10:20:04.7	300.580	0.220	-0.420	0.960
2020/01/31 10:20:04.8	300.560	0.240	-0.450	0.940
2020/01/31 10:20:04.9	300.540	0.270	-0.480	0.920
2020/01/31 10:20:05.0	300.530	0.290	-0.510	0.890
2020/01/31 10:20:05.1	300.520	0.310	-0.540	0.870
2020/01/31 10:20:05.2	300.510	0.330	-0.570	0.840
2020/01/31 10:20:05.3	300.500	0.350	-0.590	0.810
2020/01/31 10:20:05.4	300.500	0.370	-0.620	0.780
2020/01/31 10:20:05.5	300.490	0.390	-0.640	0.740
2020/01/31 10:20:05.6	300.490	0.400	-0.660	0.710
2020/01/31 10:20:05.7	300.490	0.420	-0.680	0.670
2020/01/31 10:20:05.8	300.490	0.430	-0.700	0.620
2020/01/31 10:20:05.9	300.500	0.440	-0.710	0.580
2020/01/31 10:20:06.0	300.500	0.440	-0.730	0.530
2020/01/31 10:20:06.1	300.510	0.450	-0.740	0.480
2020/01/31 10:20:06.2	300.520	0.450	-0.750	0.430
2020/01/31 10:20:06.3	300.530	0.450	-0.760	0.380
2020/01/31 10:20:06.4	300.540	0.450	-0.770	0.330
2020/01/31 10:20:06.5	300.550	0.450	-0.780	0.270
2020/01/31 10:20:06.6	300.560	0.450	-0.780	0.220
2020/01/31 10:20:06.7	300.580	0.440	-0.780	0.170
2020/01/31 10:20:06.8	300.590	0.430	-0.770	0.110
2020/01/31 10:20:06.9	300.610	0.420	-0.770	0.060
2020/01/31 10:20:07.0	300.630	0.410	-0.760	0.010
2020/01/31 10:20:07.1	300.640	0.390	-0.750	-0.040
2020/01/31 10:20:07.2	300.660	0.380	-0.740	-0.090
2020/01/31 10:20:07.3	300.680	0.360	-0.720	-0.140
2020/01/31 10:20:07.4	300.680	0.340	-0.700	-0.190
2020/01/31 10:20:07.5	300.700	0.330	-0.680	-0.230
2020/01/31 10:20:07.6	300.710	0.300	-0.660	-0.270
2020/01/31 10:20:07.7	300.730	0.280	-0.630	-0.310
2020/01/31 10:20:07.8	300.750	0.260	-0.600	-0.350
2020/01/31 10:20:07.9	300.760	0.240	-0.570	-0.380
2020/01/31 10:20:08.0	300.780	0.210	-0.530	-0.410
2020/01/31 10:20:08.1	300.800	0.190	-0.500	-0.440
2020/01/31 10:20:08.2	300.820	0.160	-0.460	-0.460
2020/01/31 10:20:08.3	300.830	0.140	-0.420	-0.480
2020/01/31 10:20:08.4	300.840	0.120	-0.380	-0.500
2020/01/31 10:20:08.5	300.860	0.090	-0.340	-0.510
2020/01/31 10:20:08.6	300.870	0.070	-0.300	-0.520
2020/01/31 10:20:08.7	300.890	0.040	-0.250	-0.530
2020/01/31 10:20:08.8	300.900	0.020	-0.210	-0.530
2020/01/31 10:20:08.9	300.920	-0.000	-0.170	-0.530
2020/01/31 10:20:09.0	300.930	-0.030	-0.140	-0.530
2020/01/31 10:20:09.1	300.950	-0.050	-0.100	-0.520
2020/01/31 10:20:09.2	300.960	-0.070	-0.060	-0.510
2020/01/31 10:20:09.3	300.980	-0.080	-0.030	-0.500
2020/01/31 10:20:09.4	300.990	-0.100	0.000	-0.480
2020/01/31 10:20:09.5	301.010	-0.120	0.030	-0.460
2020/01/31 10:20:09.6	301.020	-0.130	0.060	-0.450
2020/01/31 10:20:09.7	301.040	-0.150	0.080	-0.430
2020/01/31 10:20:09.8	301.050	-0.160	0.100	-0.410
2020/01/31 10:20:09.9	301.070	-0.170	0.110	-0.380
2020/01/31 10:20:10.0	301.080	-0.180	0.130	-0.360
2020/01/31 10:20:10.1	301.100	-0.180	0.140	-0.340
2020/01/31 10:20:10.2	301.120	-0.190	0.140	-0.310
2020/01/31 10:20:10.3	301.130	-0.190	0.150	-0.290
2020/01/31 10:20:10.4	301.140	-0.200	0.150	-0.260
2020/01/31 10:20:10.5	301.160	-0.200	0.140	-0.240
2020/01/31 10:20:10.6	301.180	-0.200	0.140	-0.210
2020/01/31 10:20:10.7	301.190	-0.200	0.130	-0.190
2020/01/31 10:20:10.8	301.210	-0.200	0.110	-0.160
2020/01/31 10:20:10.9	301.220	-0.190	0.100	-0.140
2020/01/31 10:20:11.0	301.240	-0.190	0.080	-0.110
2020/01/31 10:20:11.1	301.250	-0.190	0.060	-0.080
2020/01/31 10:20:11.2	301.270	-0.180	0.040	-0.060
2020/01/31 10:20:11.3	301.280	-0.170	0.020	-0.030
2020/01/31 10:20:11.4	301.280	-0.170	0.000	0.000
2020/01/31 10:20:11.5	301.290	-0.160	-0.020	0.030
2020/01/31 10:20:11.6	301.300	-0.150	-0.040	0.060
2020/01/31 10:20:11.7	301.310	-0.140	-0.070	0.090
2020/01/31 10:20:11.8	301.320	-0.130	-0.090	0.130
2020/01/31 10:20:11.9	301.330	-0.120	-0.120	0.160
2020/01/31 10:20:12.0	301.330	-0.110	-0.140	0.190
2020/01/31 10:20:12.1	301.340	-0.100	-0.160	0.220
2020/01/31 10:20:12.2	301.340	-0.090	-0.190	0.250
2020/01/31 10:20:12.3	301.340	-0.080	-0.210	0.290
2020/01/31 10:20:12.4	301.340	-0.070	-0.230	0.320
2020/01/31 10:20:12.5	301.340	-0.060	-0.250	0.350
2020/01/31 10:20:12.6	301.340	-0.050	-0.270	0.380
2020/01/31 10:20:12.7	301.340	-0.040	-0.280	0.410
2020/01/31 10:20:12.8	301.330	-0.030	-0.300	0.440
2020/01/31 10:20:12.9	301.330	-0.020	-0.310	0.470
2020/01/31 10:20:13.0	301.330	-0.010	-0.330	0.500
2020/01/31 10:20:13.1	301.320	0.000	-0.340	0.530
2020/01/31 10:20:13.2	301.310	0.010	-0.350	0.550
2020/01/31 10:20:13.3	301.310	0.020	-0.360	0.580
2020/01/31 10:20:13.4	301.300	0.030	-0.360	0.610
2020/01/31 10:20:13.5	301.290	0.040	-0.370	0.630
2020/01/31 10:20:13.6	301.280	0.050	-0.370	0.650
2020/01/31 10:20:13.7	301.270	0.060	-0.380	0.670
2020/01/31 10:20:13.8	301.260	0.070	-0.380	0.690
2020/01/31 10:20:13.9	301.250	0.070	-0.380	0.710
2020/01/31 10:20:14.0	301.240	0.080	-0.390	0.720
2020/01/31 10:20:14.1	301.230	0.090	-0.390	0.740
2020/01/31 10:20:14.2	301.220	0.090	-0.390	0.750
2020/01/31 10:20:14.3	301.210	0.100	-0.390	0.760
2020/01/31 10:20:14.4	301.190	0.100	-0.390	0.770
2020/01/31 10:20:14.5	301.180	0.110	-0.390	0.770
2020/01/31 10:20:14.6	301.170	0.110	-0.390	0.780
2020/01/31 10:20:14.7	301.160	0.110	-0.390	0.780
2020/01/31 10:20:14.8	301.150	0.120	-0.390	0.770
2020/01/31 10:20:14.9	301.130	0.120	-0.400	0.770
2020/01/31 10:20:15.0	301.120	0.120	-0.400	0.760
2020/01/31 10:20:15.1	301.110	0.110	-0.400	0.750
2020/01/31 10:20:15.2	301.100	0.110	-0.400	0.740
2020/01/31 10:20:15.3	301.090	0.110	-0.400	0.720
2020/01/31 10:20:15.4	301.080	0.110	-0.410	0.710
2020/01/31 10:20:15.5	301.070	0.100	-0.410	0.690
2020/01/31 10:20:15.6	301.060	0.100	-0.410	0.670
2020/01/31 10:20:15.7	301.050	0.090	-0.410	0.650
2020/01/31 10:20:15.8	301.040	0.080	-0.410	0.630
2020/01/31 10:20:15.9	301.030	0.070	-0.410	0.600
2020/01/31 10:20:16.0	301.020	0.060	-0.410	0.580
2020/01/31 10:20:16.1	301.010	0.050	-0.400	0.560
2020/01/31 10:20:16.2	301.000	0.040	-0.400	0.540
2020/01/31 10:20:16.3	300.980	0.030	-0.390	0.510
2020/01/31 10:20:16.4	300.960	0.010	-0.380	0.490
2020/01/31 10:20:16.5	300.950	-0.000	-0.370	0.470
2020/01/31 10:20:16.6	300.930	-0.020	-0.350	0.450
2020/01/31 10:20:16.7	300.910	-0.030	-0.340	0.430
2020/01/31 10:20:16.8	300.900	-0.050	-0.320	0.410
2020/01/31 10:20:16.9	300.880	-0.070	-0.300	0.390
2020/01/31 10:20:17.0	300.860	-0.080	-0.280	0.360
2020/01/31 10:20:17.1	300.840	-0.100	-0.260	0.340
2020/01/31 10:20:17.2	300.830	-0.120	-0.240	0.320
2020/01/31 10:20:17.3	300.810	-0.140	-0.210	0.300
2020/01/31 10:20:17.4	300.790	-0.150	-0.190	0.280
2020/01/31 10:20:17.5	300.770	-0.170	-0.170	0.260
2020/01/31 10:20:17.6	300.760	-0.190	-0.140	0.230
2020/01/31 10:20:17.7	300.740	-0.200	-0.120	0.210
2020/01/31 10:20:17.8	300.730	-0.220	-0.100	0.190
2020/01/31 10:20:17.9	300.710	-0.230	-0.080	0.160
2020/01/31 10:20:18.0	300.700	-0.250	-0.060	0.140
2020/01/31 10:20:18.1	300.680	-0.260	-0.040	0.110
2020/01/31 10:20:18.2	300.670	-0.270	-0.030	0.090
2020/01/31 10:20:18.3	300.660	-0.280	-0.020	0.060
2020/01/31 10:20:18.4	300.640	-0.290	-0.010	0.040
2020/01/31 10:20:18.5	300.630	-0.290	-0.000	0.010
2020/01/31 10:20:18.6	300.620	-0.300	0.000	-0.010
2020/01/31 10:20:18.7	300.610	-0.300	0.010	-0.040
2020/01/31 10:20:18.8	300.610	-0.300	0.000	-0.060
2020/01/31 10:20:18.9	300.610	-0.300	-0.000	-0.090
2020/01/31 10:20:19.0	300.610	-0.300	-0.010	-0.110
2020/01/31 10:20:19.1	300.610	-0.300	-0.020	-0.130
2020/01/31 10:20:19.2	300.610	-0.290	-0.030	-0.160
2020/01/31 10:20:19.3	300.610	-0.290	-0.050	-0.180
2020/01/31 10:20:19.4	300.620	-0.280	-0.070	-0.200
2020/01/31 10:20:19.5	300.630	-0.270	-0.090	-0.220
2020/01/31 10:20:19.6	300.630	-0.260	-0.110	-0.240
2020/01/31 10:20:19.7	300.640	-0.250	-0.140	-0.270
2020/01/31 10:20:19.8	300.650	-0.240	-0.160	-0.290
2020/01/31 10:20:19.9	300.670	-0.230	-0.190	-0.300
2020/01/31 10:20:20.0	300.680	-0.220	-0.220	-0.320
2020/01/31 10:20:20.1	300.690	-0.200	-0.250	-0.340
2020/01/31 10:20:20.2	300.710	-0.190	-0.280	-0.350
2020/01/31 10:20:20.3	300.730	-0.170	-0.310	-0.370
2020/01/31 10:20:20.4	300.750	-0.160	-0.340	-0.380
2020/01/31 10:20:20.5	300.770	-0.140	-0.370	-0.390
2020/01/31 10:20:20.6	300.800	-0.130	-0.390	-0.390
2020/01/31 10:20:20.7	300.820	-0.110	-0.420	-0.400
2020/01/31 10:20:20.8	300.850	-0.090	-0.440	-0.400
2020/01/31 10:20:20.9	300.870	-0.080	-0.460	-0.400
2020/01/31 10:20:21.0	300.900	-0.060	-0.480	-0.390
2020/01/31 10:20:21.1	300.920	-0.050	-0.500	-0.380
2020/01/31 10:20:21.2	300.950	-0.030	-0.510	-0.370
2020/01/31 10:20:21.3	300.980	-0.020	-0.520	-0.360
2020/01/31 10:20:21.4	301.020	-0.000	-0.530	-0.340
2020/01/31 10:20:21.5	301.050	0.010	-0.530	-0.320
2020/01/31 10:20:21.6	301.070	0.030	-0.530	-0.290
2020/01/31 10:20:21.7	301.100	0.040	-0.520	-0.260
2020/01/31 10:20:21.8	301.120	0.050	-0.520	-0.230
2020/01/31 10:20:21.9	301.150	0.060	-0.510	-0.190
2020/01/31 10:20:22.0	301.170	0.080	-0.490	-0.150
2020/01/31 10:20:22.1	301.190	0.090	-0.470	-0.110
2020/01/31 10:20:22.2	301.210	0.100	-0.450	-0.070
2020/01/31 10:20:22.3	301.230	0.100	-0.430	-0.020
2020/01/31 10:20:22.4	301.270	0.110	-0.410	0.030
2020/01/31 10:20:22.5	301.290	0.120	-0.380	0.080
2020/01/31 10:20:22.6	301.310	0.130	-0.350	0.130
2020/01/31 10:20:22.7	301.320	0.130	-0.330	0.190
2020/01/31 10:20:22.8	301.340	0.140	-0.300	0.240
2020/01/31 10:20:22.9	301.350	0.150	-0.270	0.300
2020/01/31 10:20:23.0	301.360	0.150	-0.240	0.360
2020/01/31 10:20:23.1	301.370	0.160	-0.210	0.410
2020/01/31 10:20:23.2	301.380	0.160	-0.190	0.470
2020/01/31 10:20:23.3	301.380	0.170	-0.160	0.520
2020/01/31 10:20:23.4	301.410	0.170	-0.140	0.580
2020/01/31 10:20:23.5	301.410	0.170	-0.120	0.630
2020/01/31 10:20:23.6	301.420	0.180	-0.100	0.680
2020/01/31 10:20:23.7	301.420	0.180	-0.080	0.730
2020/01/31 10:20:23.8	301.430	0.190	-0.070	0.770
2020/01/31 10:20:23.9	301.430	0.190	-0.050	0.820
2020/01/31 10:20:24.0	301.430	0.200	-0.050	0.850
2020/01/31 10:20:24.1	301.430	0.200	-0.040	0.890
2020/01/31 10:20:24.2	301.440	0.210	-0.030	0.920
2020/01/31 10:20:24.3	301.440	0.220	-0.030	0.950
2020/01/31 10:20:24.4	301.440	0.220	-0.030	0.970
2020/01/31 10:20:24.5	301.450	0.230	-0.030	0.990
2020/01/31 10:20:24.6	301.450	0.230	-0.030	1.000
2020/01/31 10:20:24.7	301.450	0.240	-0.040	1.010
2020/01/31 10:20:24.8	301.450	0.250	-0.050	1.020
2020/01/31 10:20:24.9	301.450	0.250	-0.050	1.020
2020/01/31 10:20:25.0	301.450	0.260	-0.060	1.020
2020/01/31 10:20:25.1	301.450	0.260	-0.070	1.020
2020/01/31 10:20:25.2	301.450	0.270	-0.080	1.010
2020/01/31 10:20:25.3	301.440	0.270	-0.090	1.000
2020/01/31 10:20:25.4	301.460	0.280	-0.110	0.990
2020/01/31 10:20:25.5	301.450	0.280	-0.120	0.980
2020/01/31 10:20:25.6	301.450	0.280	-0.130	0.960
2020/01/31 10:20:25.7	301.440	0.280	-0.130	0.940
2020/01/31 10:20:25.8	301.440	0.290	-0.140	0.930
2020/01/31 10:20:25.9	301.430	0.290	-0.150	0.910
2020/01/31 10:20:26.0	301.420	0.280	-0.150	0.890
2020/01/31 10:20:26.1	301.410	0.280	-0.160	0.870
2020/01/31 10:20:26.2	301.400	0.280	-0.160	0.840
2020/01/31 10:20:26.3	301.390	0.270	-0.160	0.820
2020/01/31 10:20:26.4	301.380	0.270	-0.160	0.790
2020/01/31 10:20:26.5	301.370	0.260	-0.160	0.770
2020/01/31 10:20:26.6	301.350	0.250	-0.160	0.740
2020/01/31 10:20:26.7	301.330	0.240	-0.150	0.720
2020/01/31 10:20:26.8	301.320	0.230	-0.140	0.690
2020/01/31 10:20:26.9	301.300	0.220	-0.140	0.660
2020/01/31 10:20:27.0	301.280	0.210	-0.130	0.640
2020/01/31 10:20:27.1	301.260	0.190	-0.120	0.610
2020/01/31 10:20:27.2	301.240	0.170	-0.110	0.580
2020/01/31 10:20:27.3	301.220	0.150	-0.100	0.550
2020/01/31 10:20:27.4	301.190	0.130	-0.090	0.520
2020/01/31 10:20:27.5	301.170	0.110	-0.070	0.500
2020/01/31 10:20:27.6	301.150	0.090	-0.060	0.470
2020/01/31 10:20:27.7	301.120	0.070	-0.050	0.450
2020/01/31 10:20:27.8	301.100	0.040	-0.030	0.420
2020/01/31 10:20:27.9	301.070	0.020	-0.020	0.400
2020/01/31 10:20:28.0	301.040	-0.010	-0.010	0.370
2020/01/31 10:20:28.1	301.020	-0.030	0.010	0.350
2020/01/31 10:20:28.2	300.990	-0.060	0.020	0.330
2020/01/31 10:20:28.3	300.960	-0.090	0.030	0.310
2020/01/31 10:20:28.4	300.930	-0.110	0.040	0.290
2020/01/31 10:20:28.5	300.910	-0.140	0.050	0.270
2020/01/31 10:20:28.6	300.880	-0.170	0.050	0.250
2020/01/31 10:20:28.7	300.850	-0.190	0.060	0.230
2020/01/31 10:20:28.8	300.830	-0.220	0.060	0.210
2020/01/31 10:20:28.9	300.810	-0.240	0.060	0.190
2020/01/31 10:20:29.0	300.780	-0.260	0.060	0.170
2020/01/31 10:20:29.1	300.760	-0.290	0.050	0.140
2020/01/31 10:20:29.2	300.740	-0.310	0.040	0.120
2020/01/31 10:20:29.3	300.730	-0.330	0.030	0.100
2020/01/31 10:20:29.4	300.700	-0.340	0.010	0.080
2020/01/31 10:20:29.5	300.690	-0.360	-0.010	0.050
2020/01/31 10:20:29.6	300.680	-0.370	-0.030	0.030
2020/01/31 10:20:29.7	300.670	-0.380	-0.060	0.010
2020/01/31 10:20:29.8	300.670	-0.390	-0.090	-0.010
2020/01/31 10:20:29.9	300.660	-0.400	-0.120	-0.040
2020/01/31 10:20:30.0	300.660	-0.410	-0.150	-0.060
2020/01/31 10:20:30.1	300.660	-0.410	-0.190	-0.080
2020/01/31 10:20:30.2	300.670	-0.410	-0.230	-0.100
2020/01/31 10:20:30.3	300.670	-0.410	-0.270	-0.120
2020/01/31 10:20:30.4	300.660	-0.410	-0.310	-0.150
2020/01/31 10:20:30.5	300.670	-0.400	-0.350	-0.170
2020/01/31 10:20:30.6	300.680	-0.400	-0.390	-0.180
2020/01/31 10:20:30.7	300.690	-0.390	-0.430	-0.200
2020/01/31 10:20:30.8	300.700	-0.380	-0.480	-0.210
2020/01/31 10:20:30.9	300.720	-0.360	-0.520	-0.230
2020/01/31 10:20:31.0	300.730	-0.350	-0.560	-0.240
2020/01/31 10:20:31.1	300.750	-0.340	-0.600	-0.250
2020/01/31 10:20:31.2	300.770	-0.320	-0.640	-0.250
2020/01/31 10:20:31.3	300.780	-0.300	-0.670	-0.250
2020/01/31 10:20:31.4	300.800	-0.280	-0.710	-0.250
2020/01/31 10:20:31.5	300.820	-0.260	-0.740	-0.250
2020/01/31 10:20:31.6	300.840	-0.240	-0.770	-0.250
2020/01/31 10:20:31.7	300.850	-0.220	-0.800	-0.240
2020/01/31 10:20:31.8	300.870	-0.190	-0.820	-0.230
2020/01/31 10:20:31.9	300.890	-0.170	-0.840	-0.210
2020/01/31 10:20:32.0	300.910	-0.140	-0.850	-0.200
2020/01/31 10:20:32.1	300.920	-0.120	-0.870	-0.180
2020/01/31 10:20:32.2	300.940	-0.090	-0.880	-0.160
2020/01/31 10:20:32.3	300.960	-0.070	-0.880	-0.130
2020/01/31 10:20:32.4	300.990	-0.040	-0.880	-0.100
2020/01/31 10:20:32.5	301.000	-0.020	-0.880	-0.080
2020/01/31 10:20:32.6	301.020	0.000	-0.870	-0.050
2020/01/31 10:20:32.7	301.040	0.030	-0.860	-0.020
2020/01/31 10:20:32.8	301.060	0.050	-0.850	0.020
2020/01/31 10:20:32.9	301.070	0.070	-0.830	0.050
2020/01/31 10:20:33.0	301.090	0.090	-0.810	0.080
2020/01/31 10:20:33.1	301.100	0.110	-0.790	0.120
2020/01/31 10:20:33.2	301.120	0.130	-0.760	0.160
2020/01/31 10:20:33.3	301.140	0.150	-0.740	0.190
2020/01/31 10:20:33.4	301.160	0.170	-0.700	0.230
2020/01/31 10:20:33.5	301.180	0.180	-0.670	0.270
2020/01/31 10:20:33.6	301.190	0.200	-0.640	0.300
2020/01/31 10:20:33.7	301.210	0.210	-0.610	0.340
2020/01/31 10:20:33.8	301.220	0.220	-0.570	0.370
2020/01/31 10:20:33.9	301.240	0.240	-0.540	0.410
2020/01/31 10:20:34.0	301.250	0.240	-0.510	0.440
2020/01/31 10:20:34.1	301.270	0.250	-0.470	0.470
2020/01/31 10:20:34.2	301.290	0.260	-0.440	0.500
2020/01/31 10:20:34.3	301.300	0.270	-0.410	0.530
2020/01/31 10:20:34.4	301.320	0.270	-0.370	0.560
2020/01/31 10:20:34.5	301.330	0.280	-0.350	0.580
2020/01/31 10:20:34.6	301.350	0.280	-0.320	0.600
2020/01/31 10:20:34.7	301.370	0.280	-0.290	0.620
2020/01/31 10:20:34.8	301.390	0.290	-0.270	0.630
2020/01/31 10:20:34.9	301.410	0.290	-0.250	0.650
2020/01/31 10:20:35.0	301.420	0.290	-0.230	0.660
2020/01/31 10:20:35.1	301.440	0.290	-0.210	0.670
2020/01/31 10:20:35.2	301.460	0.290	-0.190	0.670
2020/01/31 10:20:35.3	301.480	0.290	-0.180	0.680
2020/01/31 10:20:35.4	301.480	0.290	-0.170	0.680
2020/01/31 10:20:35.5	301.500	0.290	-0.160	0.680
2020/01/31 10:20:35.6	301.520	0.290	-0.150	0.670
2020/01/31 10:20:35.7	301.530	0.290	-0.150	0.670
2020/01/31 10:20:35.8	301.550	0.280	-0.140	0.660
2020/01/31 10:20:35.9	301.570	0.280	-0.140	0.650
2020/01/31 10:20:36.0	301.580	0.280	-0.140	0.640
2020/01/31 10:20:36.1	301.600	0.280	-0.140	0.630
2020/01/31 10:20:36.2	301.610	0.280	-0.140	0.610
2020/01/31 10:20:36.3	301.630	0.270	-0.140	0.590
2020/01/31 10:20:36.4	301.650	0.270	-0.140	0.570
2020/01/31 10:20:36.5	301.660	0.270	-0.140	0.550
2020/01/31 10:20:36.6	301.670	0.260	-0.140	0.520
2020/01/31 10:20:36.7	301.690	0.260	-0.150	0.500
2020/01/31 10:20:36.8	301.700	0.260	-0.150	0.470
2020/01/31 10:20:36.9	301.710	0.250	-0.150	0.440
2020/01/31 10:20:37.0	301.720	0.240	-0.150	0.410
2020/01/31 10:20:37.1	301.730	0.240	-0.150	0.380
2020/01/31 10:20:37.2	301.740	0.230	-0.140	0.350
2020/01/31 10:20:37.3	301.750	0.220	-0.140	0.320
2020/01/31 10:20:37.4	301.750	0.210	-0.140	0.290
2020/01/31 10:20:37.5	301.760	0.200	-0.130	0.260
2020/01/31 10:20:37.6	301.760	0.180	-0.120	0.230
2020/01/31 10:20:37.7	301.770	0.170	-0.100	0.210
2020/01/31 10:20:37.8	301.770	0.150	-0.090	0.180
2020/01/31 10:20:37.9	301.760	0.130	-0.070	0.160
2020/01/31 10:20:38.0	301.760	0.110	-0.040	0.140
2020/01/31 10:20:38.1	301.750	0.090	-0.020	0.120
2020/01/31 10:20:38.2	301.740	0.070	0.010	0.110
2020/01/31 10:20:38.3	301.730	0.050	0.040	0.090
2020/01/31 10:20:38.4	301.730	0.020	0.070	0.080
2020/01/31 10:20:38.5	301.710	-0.010	0.110	0.080
2020/01/31 10:20:38.6	301.690	-0.040	0.150	0.070
2020/01/31 10:20:38.7	301.670	-0.070	0.190	0.070
2020/01/31 10:20:38.8	301.650	-0.100	0.230	0.070
2020/01/31 10:20:38.9	301.620	-0.130	0.270	0.080
2020/01/31 10:20:39.0	301.600	-0.160	0.310	0.080
2020/01/31 10:20:39.1	301.570	-0.200	0.350	0.090
2020/01/31 10:20:39.2	301.540	-0.230	0.390	0.100
2020/01/31 10:20:39.3	301.500	-0.270	0.430	0.110
2020/01/31 10:20:39.4	301.480	-0.300	0.470	0.130
2020/01/31 10:20:39.5	301.440	-0.340	0.500	0.140
2020/01/31 10:20:39.6	301.400	-0.370	0.540	0.150
2020/01/31 10:20:39.7	301.370	-0.400	0.570	0.170
2020/01/31 10:20:39.8	301.330	-0.440	0.600	0.180
2020/01/31 10:20:39.9	301.290	-0.470	0.620	0.200
2020/01/31 10:20:40.0	301.250	-0.500	0.640	0.220
2020/01/31 10:20:40.1	301.210	-0.530	0.660	0.230
2020/01/31 10:20:40.2	301.170	-0.550	0.670	0.250
2020/01/31 10:20:40.3	301.120	-0.580	0.670	0.260
2020/01/31 10:20:40.4	301.070	-0.600	0.670	0.280
2020/01/31 10:20:40.5	301.030	-0.620	0.670	0.290
2020/01/31 10:20:40.6	300.980	-0.640	0.660	0.310
2020/01/31 10:20:40.7	300.940	-0.650	0.650	0.320
2020/01/31 10:20:40.8	300.890	-0.670	0.630	0.330
2020/01/31 10:20:40.9	300.850	-0.680	0.600	0.340
2020/01/31 10:20:41.0	300.810	-0.680	0.570	0.350
2020/01/31 10:20:41.1	300.770	-0.680	0.540	0.360
2020/01/31 10:20:41.2	300.730	-0.680	0.500	0.370
2020/01/31 10:20:41.3	300.690	-0.680	0.450	0.380
2020/01/31 10:20:41.4	300.640	-0.670	0.400	0.380
2020/01/31 10:20:41.5	300.600	-0.650	0.340	0.390
2020/01/31 10:20:41.6	300.570	-0.640	0.280	0.390
2020/01/31 10:20:41.7	300.540	-0.620	0.220	0.390
2020/01/31 10:20:41.8	300.510	-0.590	0.150	0.390
2020/01/31 10:20:41.9	300.490	-0.570	0.070	0.390
2020/01/31 10:20:42.0	300.470	-0.540	-0.000	0.390
2020/01/31 10:20:42.1	300.450	-0.500	-0.080	0.390
2020/01/31 10:20:42.2	300.440	-0.460	-0.160	0.380
2020/01/31 10:20:42.3	300.420	-0.420	-0.240	0.380
2020/01/31 10:20:42.4	300.410	-0.380	-0.330	0.360
2020/01/31 10:20:42.5	300.400	-0.340	-0.420	0.360
2020/01/31 10:20:42.6	300.400	-0.290	-0.500	0.340
2020/01/31 10:20:42.7	300.400	-0.240	-0.590	0.330
2020/01/31 10:20:42.8	300.400	-0.190	-0.670	0.320
2020/01/31 10:20:42.9	300.410	-0.140	-0.750	0.300
2020/01/31 10:20:43.0	300.420	-0.090	-0.830	0.290
2020/01/31 10:20:43.1	300.430	-0.040	-0.910	0.270
2020/01/31 10:20:43.2	300.450	0.020	-0.990	0.250
2020/01/31 10:20:43.3	300.470	0.070	-1.060	0.230
2020/01/31 10:20:43.4	300.480	0.120	-1.120	0.210
2020/01/31 10:20:43.5	300.500	0.170	-1.180	0.190
2020/01/31 10:20:43.6	300.530	0.220	-1.240	0.170
2020/01/31 10:20:43.7	300.560	0.270	-1.290	0.150
2020/01/31 10:20:43.8	300.590	0.310	-1.340	0.130
2020/01/31 10:20:43.9	300.620	0.360	-1.380	0.120
2020/01/31 10:20:44.0	300.650	0.400	-1.410	0.100
2020/01/31 10:20:44.1	300.690	0.440	-1.440	0.080
2020/01/31 10:20:44.2	300.730	0.470	-1.460	0.070
2020/01/31 10:20:44.3	300.770	0.510	-1.470	0.050
2020/01/31 10:20:44.4	300.820	0.540	-1.470	0.040
2020/01/31 10:20:44.5	300.860	0.560	-1.470	0.030
2020/01/31 10:20:44.6	300.900	0.590	-1.460	0.020
2020/01/31 10:20:44.7	300.940	0.600	-1.440	0.020
2020/01/31 10:20:44.8	300.980	0.620	-1.420	0.010
2020/01/31 10:20:44.9	301.020	0.630	-1.390	0.010
2020/01/31 10:20:45.0	301.060	0.640	-1.350	0.010
2020/01/31 10:20:45.1	301.090	0.640	-1.310	0.010
2020/01/31 10:20:45.2	301.130	0.640	-1.260	0.010
2020/01/31 10:20:45.3	301.170	0.640	-1.210	0.020
2020/01/31 10:20:45.4	301.210	0.630	-1.150	0.030
2020/01/31 10:20:45.5	301.250	0.620	-1.090	0.040
2020/01/31 10:20:45.6	301.280	0.610	-1.030	0.050
2020/01/31 10:20:45.7	301.310	0.590	-0.960	0.060
2020/01/31 10:20:45.8	301.340	0.580	-0.890	0.070
2020/01/31 10:20:45.9	301.370	0.550	-0.820	0.080
2020/01/31 10:20:46.0	301.400	0.530	-0.740	0.100
2020/01/31 10:20:46.1	301.430	0.500	-0.670	0.110
2020/01/31 10:20:46.2	301.450	0.480	-0.590	0.130
2020/01/31 10:20:46.3	301.470	0.450	-0.520	0.150
2020/01/31 10:20:46.4	301.510	0.420	-0.440	0.170
2020/01/31 10:20:46.5	301.520	0.390	-0.370	0.190
2020/01/31 10:20:46.6	301.540	0.350	-0.290	0.220
2020/01/31 10:20:46.7	301.550	0.320	-0.230	0.240
2020/01/31 10:20:46.8	301.560	0.290	-0.160	0.260
2020/01/31 10:20:46.9	301.560	0.260	-0.100	0.280
2020/01/31 10:20:47.0	301.570	0.220	-0.040	0.310
2020/01/31 10:20:47.1	301.570	0.190	0.020	0.330
2020/01/31 10:20:47.2	301.570	0.160	0.070	0.360
2020/01/31 10:20:47.3	301.570	0.130	0.110	0.380
2020/01/31 10:20:47.4	301.570	0.100	0.150	0.400
2020/01/31 10:20:47.5	301.560	0.080	0.190	0.430
2020/01/31 10:20:47.6	301.550	0.050	0.220	0.450
2020/01/31 10:20:47.7	301.540	0.030	0.250	0.470
2020/01/31 10:20:47.8	301.530	0.010	0.270	0.500
2020/01/31 10:20:47.9	301.520	-0.010	0.280	0.520
2020/01/31 10:20:48.0	301.500	-0.030	0.290	0.540
2020/01/31 10:20:48.1	301.490	-0.040	0.300	0.560
2020/01/31 10:20:48.2	301.470	-0.060	0.300	0.580
2020/01/31 10:20:48.3	301.450	-0.070	0.300	0.590
2020/01/31 10:20:48.4	301.440	-0.070	0.290	0.610
2020/01/31 10:20:48.5	301.420	-0.080	0.280	0.620
2020/01/31 10:20:48.6	301.400	-0.090	0.260	0.640
2020/01/31 10:20:48.7	301.380	-0.090	0.250	0.650
2020/01/31 10:20:48.8	301.360	-0.090	0.230	0.660
2020/01/31 10:20:48.9	301.340	-0.090	0.210	0.670
2020/01/31 10:20:49.0	301.320	-0.090	0.190	0.680
2020/01/31 10:20:49.1	301.300	-0.090	0.170	0.690
2020/01/31 10:20:49.2	301.270	-0.080	0.140	0.700
2020/01/31 10:20:49.3	301.250	-0.080	0.120	0.710
2020/01/31 10:20:49.4	301.220	-0.080	0.100	0.710
2020/01/31 10:20:49.5	301.190	-0.070	0.080	0.710
2020/01/31 10:20:49.6	301.170	-0.070	0.060	0.720
2020/01/31 10:20:49.7	301.140	-0.060	0.040	0.720
2020/01/31 10:20:49.8	301.110	-0.060	0.030	0.730
2020/01/31 10:20:49.9	301.080	-0.050	0.020	0.730
2020/01/31 10:20:50.0	301.060	-0.050	0.010	0.740
2020/01/31 10:20:50.1	301.030	-0.050	-0.000	0.740
2020/01/31 10:20:50.2	301.000	-0.050	-0.010	0.740
2020/01/31 10:20:50.3	300.970	-0.050	-0.010	0.740
2020/01/31 10:20:50.4	300.950	-0.050	-0.010	0.750
2020/01/31 10:20:50.5	300.930	-0.060	-0.010	0.750
2020/01/31 10:20:50.6	300.900	-0.060	-0.010	0.740
2020/01/31 10:20:50.7	300.870	-0.070	-0.010	0.740
2020/01/31 10:20:50.8	300.850	-0.080	-0.000	0.730
2020/01/31 10:20:50.9	300.830	-0.090	0.010	0.720
2020/01/31 10:20:51.0	300.800	-0.100	0.010	0.710
2020/01/31 10:20:51.1	300.780	-0.110	0.020	0.690
2020/01/31 10:20:51.2	300.770	-0.120	0.030	0.670
2020/01/31 10:20:51.3	300.750	-0.140	0.040	0.650
2020/01/31 10:20:51.4	300.730	-0.150	0.040	0.620
2020/01/31 10:20:51.5	300.720	-0.170	0.050	0.600
2020/01/31 10:20:51.6	300.710	-0.190	0.060	0.570
2020/01/31 10:20:51.7	300.700	-0.210	0.070	0.540
2020/01/31 10:20:51.8	300.700	-0.230	0.080	0.510
2020/01/31 10:20:51.9	300.690	-0.250	0.090	0.470
2020/01/31 10:20:52.0	300.690	-0.270	0.090	0.440
2020/01/31 10:20:52.1	300.690	-0.290	0.100	0.400
2020/01/31 10:20:52.2	300.690	-0.310	0.100	0.360
2020/01/31 10:20:52.3	300.690	-0.330	0.100	0.330
2020/01/31 10:20:52.4	300.690	-0.350	0.110	0.290
2020/01/31 10:20:52.5	300.690	-0.370	0.100	0.250
2020/01/31 10:20:52.6	300.700	-0.380	0.100	0.210
2020/01/31 10:20:52.7	300.710	-0.400	0.100	0.170
2020/01/31 10:20:52.8	300.710	-0.420	0.090	0.140
2020/01/31 10:20:52.9	300.720	-0.430	0.090	0.100
2020/01/31 10:20:53.0	300.730	-0.440	0.080	0.070
2020/01/31 10:20:53.1	300.740	-0.450	0.070	0.030
2020/01/31 10:20:53.2	300.750	-0.460	0.050	0.000
2020/01/31 10:20:53.3	300.760	-0.470	0.040	-0.030
2020/01/31 10:20:53.4	300.760	-0.470	0.020	-0.060
2020/01/31 10:20:53.5	300.770	-0.480	0.000	-0.090
2020/01/31 10:20:53.6	300.780	-0.480	-0.010	-0.110
2020/01/31 10:20:53.7	300.800	-0.470	-0.030	-0.140
2020/01/31 10:20:53.8	300.810	-0.470	-0.060	-0.160
2020/01/31 10:20:53.9	300.830	-0.460	-0.080	-0.180
2020/01/31 10:20:54.0	300.840	-0.450	-0.100	-0.200
2020/01/31 10:20:54.1	300.860	-0.440	-0.130	-0.210
2020/01/31 10:20:54.2	300.870	-0.420	-0.150	-0.230
2020/01/31 10:20:54.3	300.890	-0.410	-0.180	-0.240
2020/01/31 10:20:54.4	300.900	-0.390	-0.210	-0.250
2020/01/31 10:20:54.5	300.920	-0.360	-0.230	-0.250
2020/01/31 10:20:54.6	300.930	-0.340	-0.260	-0.250
2020/01/31 10:20:54.7	300.950	-0.310	-0.280	-0.250
2020/01/31 10:20:54.8	300.960	-0.280	-0.310	-0.250
2020/01/31 10:20:54.9	300.980	-0.250	-0.330	-0.240
2020/01/31 10:20:55.0	300.990	-0.220	-0.360	-0.220
2020/01/31 10:20:55.1	301.000	-0.190	-0.380	-0.210
2020/01/31 10:20:55.2	301.010	-0.150	-0.400	-0.190
2020/01/31 10:20:55.3	301.020	-0.110	-0.430	-0.160
2020/01/31 10:20:55.4	301.040	-0.080	-0.450	-0.130
2020/01/31 10:20:55.5	301.040	-0.040	-0.470	-0.100
2020/01/31 10:20:55.6	301.050	-0.000	-0.490	-0.070
2020/01/31 10:20:55.7	301.050	0.040	-0.510	-0.040
2020/01/31 10:20:55.8	301.050	0.070	-0.530	0.000
2020/01/31 10:20:55.9	301.060	0.110	-0.550	0.040
2020/01/31 10:20:56.0	301.050	0.150	-0.570	0.080
2020/01/31 10:20:56.1	301.050	0.190	-0.580	0.120
2020/01/31 10:20:56.2	301.050	0.220	-0.600	0.160
2020/01/31 10:20:56.3	301.050	0.260	-0.610	0.200
2020/01/31 10:20:56.4	301.040	0.290	-0.630	0.250
2020/01/31 10:20:56.5	301.040	0.320	-0.640	0.290
2020/01/31 10:20:56.6	301.030	0.360	-0.650	0.330
2020/01/31 10:20:56.7	301.020	0.390	-0.660	0.380
2020/01/31 10:20:56.8	301.020	0.410	-0.670	0.420
2020/01/31 10:20:56.9	301.010	0.440	-0.670	0.460
2020/01/31 10:20:57.0	301.000	0.460	-0.680	0.510
2020/01/31 10:20:57.1	300.990	0.490	-0.680	0.550
2020/01/31 10:20:57.2	300.980	0.510	-0.680	0.590
2020/01/31 10:20:57.3	300.970	0.520	-0.680	0.630
2020/01/31 10:20:57.4	300.980	0.540	-0.680	0.660
2020/01/31 10:20:57.5	300.970	0.550	-0.680	0.700
2020/01/31 10:20:57.6	300.960	0.560	-0.670	0.730
2020/01/31 10:20:57.7	300.960	0.570	-0.670	0.760
2020/01/31 10:20:57.8	300.950	0.570	-0.660	0.790
2020/01/31 10:20:57.9	300.940	0.580	-0.660	0.820
2020/01/31 10:20:58.0	300.940	0.570	-0.650	0.840
2020/01/31 10:20:58.1	300.940	0.570	-0.640	0.860
2020/01/31 10:20:58.2	300.930	0.560	-0.630	0.870
2020/01/31 10:20:58.3	300.930	0.550	-0.620	0.880
2020/01/31 10:20:58.4	300.930	0.540	-0.610	0.890
2020/01/31 10:20:58.5	300.930	0.530	-0.600	0.890
2020/01/31 10:20:58.6	300.930	0.510	-0.590	0.880
2020/01/31 10:20:58.7	300.930	0.490	-0.580	0.880
2020/01/31 10:20:58.8	300.940	0.470	-0.570	0.870
2020/01/31 10:20:58.9	300.950	0.440	-0.560	0.850
2020/01/31 10:20:59.0	300.960	0.420	-0.550	0.830
2020/01/31 10:20:59.1	300.970	0.390	-0.540	0.810
2020/01/31 10:20:59.2	300.980	0.360	-0.530	0.790
2020/01/31 10:20:59.3	300.990	0.330	-0.520	0.760
2020/01/31 10:20:59.4	301.030	0.300	-0.510	0.730
2020/01/31 10:20:59.5	301.040	0.270	-0.500	0.700
2020/01/31 10:20:59.6	301.060	0.230	-0.490	0.670
2020/01/31 10:20:59.7	301.080	0.200	-0.470	0.640
2020/01/31 10:20:59.8	301.090	0.170	-0.460	0.610
2020/01/31 10:20:59.9	301.110	0.130	-0.440	0.570
2020/01/31 10:21:00.0	301.120	0.100	-0.420	0.540
2020/01/31 10:21:00.1	301.140	0.070	-0.400	0.500
2020/01/31 10:21:00.2	301.160	0.040	-0.380	0.470
2020/01/31 10:21:00.3	301.170	0.010	-0.360	0.440
2020/01/31 10:21:00.4	301.190	-0.020	-0.340	0.410
2020/01/31 10:21:00.5	301.200	-0.050	-0.320	0.370
2020/01/31 10:21:00.6	301.220	-0.080	-0.290	0.340
2020/01/31 10:21:00.7	301.230	-0.110	-0.270	0.310
2020/01/31 10:21:00.8	301.240	-0.130	-0.240	0.290
2020/01/31 10:21:00.9	301.250	-0.160	-0.210	0.260
2020/01/31 10:21:01.0	301.260	-0.180	-0.180	0.240
2020/01/31 10:21:01.1	301.270	-0.200	-0.150	0.220
2020/01/31 10:21:01.2	301.280	-0.220	-0.110	0.200
2020/01/31 10:21:01.3	301.290	-0.230	-0.080	0.190
2020/01/31 10:21:01.4	301.280	-0.250	-0.050	0.170
2020/01/31 10:21:01.5	301.280	-0.260	-0.010	0.170
2020/01/31 10:21:01.6	301.280	-0.270	0.020	0.160
2020/01/31 10:21:01.7	301.270	-0.280	0.050	0.160
2020/01/31 10:21:01.8	301.270	-0.290	0.090	0.170
2020/01/31 10:21:01.9	301.260	-0.300	0.120	0.170
2020/01/31 10:21:02.0	301.250	-0.310	0.150	0.180
2020/01/31 10:21:02.1	301.240	-0.310	0.190	0.190
2020/01/31 10:21:02.2	301.220	-0.310	0.220	0.210
2020/01/31 10:21:02.3	301.210	-0.320	0.240	0.220
2020/01/31 10:21:02.4	301.170	-0.320	0.270	0.240
2020/01/31 10:21:02.5	301.150	-0.320	0.290	0.260
2020/01/31 10:21:02.6	301.130	-0.310	0.320	0.280
2020/01/31 10:21:02.7	301.110	-0.310	0.340	0.310
2020/01/31 10:21:02.8	301.090	-0.310	0.360	0.330
2020/01/31 10:21:02.9	301.070	-0.300	0.370	0.360
2020/01/31 10:21:03.0	301.050	-0.300	0.390	0.380
2020/01/31 10:21:03.1	301.030	-0.290	0.400	0.400
2020/01/31 10:21:03.2	301.010	-0.280	0.410	0.430
2020/01/31 10:21:03.3	300.990	-0.280	0.410	0.450
2020/01/31 10:21:03.4	300.970	-0.270	0.420	0.470
2020/01/31 10:21:03.5	300.950	-0.260	0.420	0.490
2020/01/31 10:21:03.6	300.930	-0.250	0.420	0.510
2020/01/31 10:21:03.7	300.910	-0.240	0.420	0.530
2020/01/31 10:21:03.8	300.880	-0.230	0.420	0.550
2020/01/31 10:21:03.9	300.860	-0.220	0.410	0.570
2020/01/31 10:21:04.0	300.840	-0.210	0.400	0.590
2020/01/31 10:21:04.1	300.820	-0.200	0.390	0.600
2020/01/31 10:21:04.2	300.800	-0.190	0.380	0.610
2020/01/31 10:21:04.3	300.780	-0.180	0.370	0.630
2020/01/31 10:21:04.4	300.750	-0.170	0.350	0.640
2020/01/31 10:21:04.5	300.720	-0.150	0.330	0.650
2020/01/31 10:21:04.6	300.700	-0.140	0.310	0.650
2020/01/31 10:21:04.7	300.680	-0.130	0.290	0.660
2020/01/31 10:21:04.8	300.660	-0.120	0.260	0.670
2020/01/31 10:21:04.9	300.630	-0.100	0.240	0.670
2020/01/31 10:21:05.0	300.610	-0.090	0.210	0.670
2020/01/31 10:21:05.1	300.590	-0.070	0.170	0.670
2020/01/31 10:21:05.2	300.570	-0.060	0.140	0.660
2020/01/31 10:21:05.3	300.540	-0.040	0.100	0.660
2020/01/31 10:21:05.4	300.520	-0.030	0.070	0.640
2020/01/31 10:21:05.5	300.500	-0.010	0.030	0.630
2020/01/31 10:21:05.6	300.480	0.010	-0.020	0.620
2020/01/31 10:21:05.7	300.470	0.020	-0.060	0.600
2020/01/31 10:21:05.8	300.450	0.040	-0.110	0.580
2020/01/31 10:21:05.9	300.440	0.060	-0.160	0.550
2020/01/31 10:21:06.0	300.420	0.070	-0.210	0.530
2020/01/31 10:21:06.1	300.410	0.090	-0.260	0.500
2020/01/31 10:21:06.2	300.410	0.110	-0.310	0.460
2020/01/31 10:21:06.3	300.400	0.120	-0.370	0.430
2020/01/31 10:21:06.4	300.400	0.140	-0.420	0.390
2020/01/31 10:21:06.5	300.400	0.160	-0.470	0.350
2020/01/31 10:21:06.6	300.400	0.170	-0.530	0.310
2020/01/31 10:21:06.7	300.400	0.180	-0.580	0.270
2020/01/31 10:21:06.8	300.410	0.200	-0.630	0.230
2020/01/31 10:21:06.9	300.420	0.210	-0.680	0.190
2020/01/31 10:21:07.0	300.430	0.220	-0.730	0.150
2020/01/31 10:21:07.1	300.440	0.230	-0.780	0.100
2020/01/31 10:21:07.2	300.450	0.240	-0.820	0.060
2020/01/31 10:21:07.3	300.460	0.250	-0.860	0.020
2020/01/31 10:21:07.4	300.480	0.250	-0.900	-0.020
2020/01/31 10:21:07.5	300.500	0.260	-0.930	-0.060
2020/01/31 10:21:07.6	300.520	0.260	-0.960	-0.100
2020/01/31 10:21:07.7	300.540	0.260	-0.990	-0.130
2020/01/31 10:21:07.8	300.560	0.260	-1.010	-0.170
2020/01/31 10:21:07.9	300.580	0.260	-1.030	-0.200
2020/01/31 10:21:08.0	300.600	0.250	-1.040	-0.230
2020/01/31 10:21:08.1	300.630	0.250	-1.050	-0.260
2020/01/31 10:21:08.2	300.660	0.240	-1.050	-0.290
2020/01/31 10:21:08.3	300.690	0.230	-1.060	-0.310
2020/01/31 10:21:08.4	300.720	0.220	-1.050	-0.330
2020/01/31 10:21:08.5	300.760	0.210	-1.050	-0.360
2020/01/31 10:21:08.6	300.790	0.200	-1.040	-0.380
2020/01/31 10:21:08.7	300.820	0.180	-1.020	-0.400
2020/01/31 10:21:08.8	300.860	0.170	-1.010	-0.410
2020/01/31 10:21:08.9	300.890	0.160	-0.990	-0.430
2020/01/31 10:21:09.0	300.930	0.140	-0.970	-0.440
2020/01/31 10:21:09.1	300.960	0.120	-0.940	-0.450
2020/01/31 10:21:09.2	301.000	0.110	-0.920	-0.460
2020/01/31 10:21:09.3	301.030	0.090	-0.890	-0.470
2020/01/31 10:21:09.4	301.080	0.070	-0.860	-0.470
2020/01/31 10:21:09.5	301.110	0.050	-0.830	-0.470
2020/01/31 10:21:09.6	301.140	0.040	-0.790	-0.470
2020/01/31 10:21:09.7	301.180	0.020	-0.760	-0.460
2020/01/31 10:21:09.8	301.210	0.000	-0.720	-0.450
2020/01/31 10:21:09.9	301.230	-0.010	-0.680	-0.440
2020/01/31 10:21:10.0	301.260	-0.030	-0.640	-0.430
2020/01/31 10:21:10.1	301.280	-0.050	-0.600	-0.410
2020/01/31 10:21:10.2	301.300	-0.060	-0.550	-0.390
2020/01/31 10:21:10.3	301.320	-0.080	-0.510	-0.360
2020/01/31 10:21:10.4	301.350	-0.090	-0.460	-0.330
2020/01/31 10:21:10.5	301.360	-0.100	-0.420	-0.300
2020/01/31 10:21:10.6	301.370	-0.120	-0.370	-0.270
2020/01/31 10:21:10.7	301.380	-0.130	-0.320	-0.230
2020/01/31 10:21:10.8	301.380	-0.140	-0.270	-0.190
2020/01/31 10:21:10.9	301.380	-0.150	-0.230	-0.150
2020/01/31 10:21:11.0	301.380	-0.160	-0.180	-0.110
2020/01/31 10:21:11.1	301.380	-0.170	-0.140	-0.070
2020/01/31 10:21:11.2	301.370	-0.180	-0.090	-0.020
2020/01/31 10:21:11.3	301.360	-0.180	-0.050	0.020
2020/01/31 10:21:11.4	301.350	-0.190	-0.000	0.060
2020/01/31 10:21:11.5	301.340	-0.200	0.040	0.110
2020/01/31 10:21:11.6	301.330	-0.200	0.080	0.150
2020/01/31 10:21:11.7	301.310	-0.210	0.120	0.190
2020/01/31 10:21:11.8	301.300	-0.210	0.150	0.230
2020/01/31 10:21:11.9	301.280	-0.210	0.180	0.270
2020/01/31 10:21:12.0	301.260	-0.220	0.210	0.310
2020/01/31 10:21:12.1	301.240	-0.220	0.240	0.350
2020/01/31 10:21:12.2	301.220	-0.220	0.270	0.380
2020/01/31 10:21:12.3	301.200	-0.220	0.290	0.420
2020/01/31 10:21:12.4	301.170	-0.220	0.310	0.450
2020/01/31 10:21:12.5	301.140	-0.220	0.330	0.480
2020/01/31 10:21:12.6	301.120	-0.220	0.350	0.510
2020/01/31 10:21:12.7	301.090	-0.210	0.360	0.540
2020/01/31 10:21:12.8	301.070	-0.210	0.370	0.560
2020/01/31 10:21:12.9	301.040	-0.210	0.380	0.590
2020/01/31 10:21:13.0	301.020	-0.200	0.390	0.610
2020/01/31 10:21:13.1	300.990	-0.200	0.400	0.640
2020/01/31 10:21:13.2	300.960	-0.190	0.400	0.660
2020/01/31 10:21:13.3	300.940	-0.190	0.400	0.680
2020/01/31 10:21:13.4	300.900	-0.180	0.400	0.700
2020/01/31 10:21:13.5	300.880	-0.170	0.400	0.710
2020/01/31 10:21:13.6	300.850	-0.160	0.400	0.730
2020/01/31 10:21:13.7	300.820	-0.150	0.390	0.750
2020/01/31 10:21:13.8	300.800	-0.150	0.390	0.760
2020/01/31 10:21:13.9	300.770	-0.130	0.380	0.780
2020/01/31 10:21:14.0	300.750	-0.120	0.370	0.790
2020/01/31 10:21:14.1	300.720	-0.110	0.360	0.800
2020/01/31 10:21:14.2	300.700	-0.100	0.340	0.810
2020/01/31 10:21:14.3	300.670	-0.090	0.330	0.820
2020/01/31 10:21:14.4	300.640	-0.070	0.310	0.830
2020/01/31 10:21:14.5	300.620	-0.060	0.290	0.830
2020/01/31 10:21:14.6	300.590	-0.050	0.280	0.840
2020/01/31 10:21:14.7	300.570	-0.030	0.260	0.840
2020/01/31 10:21:14.8	300.540	-0.020	0.240	0.840
2020/01/31 10:21:14.9	300.520	-0.000	0.210	0.840
2020/01/31 10:21:15.0	300.500	0.010	0.190	0.840
2020/01/31 10:21:15.1	300.480	0.030	0.160	0.830
2020/01/31 10:21:15.2	300.460	0.050	0.140	0.820
2020/01/31 10:21:15.3	300.450	0.060	0.110	0.810
2020/01/31 10:21:15.4	300.430	0.080	0.080	0.790
2020/01/31 10:21:15.5	300.410	0.090	0.050	0.780
2020/01/31 10:21:15.6	300.400	0.110	0.020	0.760
2020/01/31 10:21:15.7	300.390	0.130	-0.020	0.740
2020/01/31 10:21:15.8	300.380	0.140	-0.050	0.710
2020/01/31 10:21:15.9	300.380	0.160	-0.090	0.690
2020/01/31 10:21:16.0	300.370	0.170	-0.120	0.660
2020/01/31 10:21:16.1	300.370	0.190	-0.160	0.630
2020/01/31 10:21:16.2	300.380	0.200	-0.190	0.600
2020/01/31 10:21:16.3	300.380	0.220	-0.230	0.570
2020/01/31 10:21:16.4	300.370	0.230	-0.270	0.540
2020/01/31 10:21:16.5	300.380	0.240	-0.300	0.510
2020/01/31 10:21:16.6	300.390	0.260	-0.340	0.470
2020/01/31 10:21:16.7	300.400	0.270	-0.370	0.440
2020/01/31 10:21:16.8	300.410	0.280	-0.400	0.410
2020/01/31 10:21:16.9	300.420	0.290	-0.430	0.370
2020/01/31 10:21:17.0	300.440	0.300	-0.450	0.340
2020/01/31 10:21:17.1	300.450	0.310	-0.480	0.310
2020/01/31 10:21:17.2	300.460	0.310	-0.500	0.280
2020/01/31 10:21:17.3	300.480	0.320	-0.520	0.250
2020/01/31 10:21:17.4	300.490	0.320	-0.540	0.220
2020/01/31 10:21:17.5	300.500	0.330	-0.560	0.200
2020/01/31 10:21:17.6	300.520	0.330	-0.570	0.170
2020/01/31 10:21:17.7	300.530	0.330	-0.580	0.140
2020/01/31 10:21:17.8	300.550	0.330	-0.590	0.120
2020/01/31 10:21:17.9	300.560	0.330	-0.590	0.100
2020/01/31 10:21:18.0	300.580	0.320	-0.590	0.080
2020/01/31 10:21:18.1	300.590	0.320	-0.590	0.060
2020/01/31 10:21:18.2	300.610	0.310	-0.590	0.040
2020/01/31 10:21:18.3	300.620	0.310	-0.590	0.020
2020/01/31 10:21:18.4	300.650	0.300	-0.580	0.000
2020/01/31 10:21:18.5	300.660	0.290	-0.580	-0.020
2020/01/31 10:21:18.6	300.680	0.290	-0.570	-0.030
2020/01/31 10:21:18.7	300.700	0.280	-0.570	-0.050
2020/01/31 10:21:18.8	300.720	0.270	-0.560	-0.060
2020/01/31 10:21:18.9	300.740	0.250	-0.550	-0.070
2020/01/31 10:21:19.0	300.760	0.240	-0.550	-0.090
2020/01/31 10:21:19.1	300.780	0.230	-0.540	-0.100
2020/01/31 10:21:19.2	300.800	0.220	-0.530	-0.110
2020/01/31 10:21:19.3	300.830	0.210	-0.530	-0.120
2020/01/31 10:21:19.4	300.840	0.190	-0.530	-0.130
2020/01/31 10:21:19.5	300.870	0.180	-0.520	-0.140
2020/01/31 10:21:19.6	300.900	0.170	-0.520	-0.140
2020/01/31 10:21:19.7	300.920	0.160	-0.520	-0.150
2020/01/31 10:21:19.8	300.950	0.140	-0.520	-0.150
2020/01/31 10:21:19.9	300.980	0.130	-0.530	-0.160
2020/01/31 10:21:20.0	301.010	0.120	-0.530	-0.160
2020/01/31 10:21:20.1	301.030	0.110	-0.530	-0.160
2020/01/31 10:21:20.2	301.060	0.090	-0.540	-0.160
2020/01/31 10:21:20.3	301.090	0.080	-0.540	-0.160
2020/01/31 10:21:20.4	301.110	0.070	-0.550	-0.150
2020/01/31 10:21:20.5	301.140	0.060	-0.550	-0.150
2020/01/31 10:21:20.6	301.160	0.050	-0.560	-0.140
2020/01/31 10:21:20.7	301.180	0.030	-0.560	-0.130
2020/01/31 10:21:20.8	301.200	0.020	-0.570	-0.120
2020/01/31 10:21:20.9	301.220	0.010	-0.570	-0.100
2020/01/31 10:21:21.0	301.230	0.000	-0.570	-0.090
2020/01/31 10:21:21.1	301.250	-0.010	-0.570	-0.070
2020/01/31 10:21:21.2	301.260	-0.020	-0.570	-0.050
2020/01/31 10:21:21.3	301.270	-0.030	-0.570	-0.020
2020/01/31 10:21:21.4	301.290	-0.040	-0.570	-0.000
2020/01/31 10:21:21.5	301.290	-0.050	-0.560	0.020
2020/01/31 10:21:21.6	301.300	-0.060	-0.560	0.050
2020/01/31 10:21:21.7	301.300	-0.070	-0.550	0.080
2020/01/31 10:21:21.8	301.300	-0.080	-0.540	0.100
2020/01/31 10:21:21.9	301.300	-0.100	-0.530	0.130
2020/01/31 10:21:22.0	301.290	-0.110	-0.520	0.150
2020/01/31 10:21:22.1	301.290	-0.120	-0.510	0.180
2020/01/31 10:21:22.2	301.280	-0.130	-0.490	0.200
2020/01/31 10:21:22.3	301.280	-0.140	-0.480	0.220
2020/01/31 10:21:22.4	301.250	-0.150	-0.460	0.240
2020/01/31 10:21:22.5	301.240	-0.160	-0.440	0.260
2020/01/31 10:21:22.6	301.230	-0.170	-0.430	0.280
2020/01/31 10:21:22.7	301.220	-0.190	-0.410	0.290
2020/01/31 10:21:22.8	301.210	-0.200	-0.390	0.300
2020/01/31 10:21:22.9	301.200	-0.210	-0.370	0.320
2020/01/31 10:21:23.0	301.190	-0.220	-0.350	0.320
2020/01/31 10:21:23.1	301.180	-0.230	-0.330	0.330
2020/01/31 10:21:23.2	301.180	-0.240	-0.320	0.340
2020/01/31 10:21:23.3	301.170	-0.250	-0.300	0.340
2020/01/31 10:21:23.4	301.160	-0.260	-0.280	0.340
2020/01/31 10:21:23.5	301.150	-0.270	-0.260	0.340
2020/01/31 10:21:23.6	301.150	-0.280	-0.240	0.340
2020/01/31 10:21:23.7	301.140	-0.290	-0.230	0.340
2020/01/31 10:21:23.8	301.140	-0.300	-0.210	0.330
2020/01/31 10:21:23.9	301.130	-0.310	-0.190	0.330
2020/01/31 10:21:24.0	301.130	-0.310	-0.170	0.320
2020/01/31 10:21:24.1	301.130	-0.320	-0.150	0.310
2020/01/31 10:21:24.2	301.130	-0.330	-0.140	0.300
2020/01/31 10:21:24.3	301.130	-0.330	-0.120	0.290
2020/01/31 10:21:24.4	301.110	-0.340	-0.100	0.290
2020/01/31 10:21:24.5	301.110	-0.340	-0.080	0.280
2020/01/31 10:21:24.6	301.120	-0.340	-0.060	0.270
2020/01/31 10:21:24.7	301.120	-0.350	-0.040	0.260
2020/01/31 10:21:24.8	301.110	-0.350	-0.020	0.250
2020/01/31 10:21:24.9	301.110	-0.350	-0.000	0.240
2020/01/31 10:21:25.0	301.110	-0.350	0.020	0.240
2020/01/31 10:21:25.1	301.110	-0.350	0.040	0.240
2020/01/31 10:21:25.2	301.100	-0.350	0.070	0.230
2020/01/31 10:21:25.3	301.090	-0.350	0.100	0.230
2020/01/31 10:21:25.4	301.090	-0.340	0.120	0.240
2020/01/31 10:21:25.5	301.080	-0.340	0.150	0.240
2020/01/31 10:21:25.6	301.070	-0.330	0.170	0.250
2020/01/31 10:21:25.7	301.050	-0.330	0.200	0.260
2020/01/31 10:21:25.8	301.040	-0.320	0.230	0.270
2020/01/31 10:21:25.9	301.030	-0.310	0.250	0.280
2020/01/31 10:21:26.0	301.010	-0.300	0.280	0.290
2020/01/31 10:21:26.1	301.000	-0.290	0.300	0.310
2020/01/31 10:21:26.2	300.980	-0.280	0.320	0.320
2020/01/31 10:21:26.3	300.960	-0.270	0.340	0.340
2020/01/31 10:21:26.4	300.950	-0.260	0.360	0.360
2020/01/31 10:21:26.5	300.940	-0.240	0.370	0.380
2020/01/31 10:21:26.6	300.920	-0.230	0.380	0.400
2020/01/31 10:21:26.7	300.900	-0.220	0.390	0.420
2020/01/31 10:21:26.8	300.880	-0.200	0.400	0.440
2020/01/31 10:21:26.9	300.870	-0.180	0.410	0.450
2020/01/31 10:21:27.0	300.850	-0.160	0.410	0.470
2020/01/31 10:21:27.1	300.830	-0.150	0.410	0.490
2020/01/31 10:21:27.2	300.810	-0.130	0.400	0.510
2020/01/31 10:21:27.3	300.790	-0.110	0.400	0.530
2020/01/31 10:21:27.4	300.760	-0.090	0.390	0.540
2020/01/31 10:21:27.5	300.740	-0.070	0.380	0.560
2020/01/31 10:21:27.6	300.730	-0.050	0.360	0.580
2020/01/31 10:21:27.7	300.710	-0.030	0.350	0.590
2020/01/31 10:21:27.8	300.690	-0.000	0.330	0.610
2020/01/31 10:21:27.9	300.670	0.020	0.310	0.620
2020/01/31 10:21:28.0	300.660	0.040	0.290	0.630
2020/01/31 10:21:28.1	300.640	0.060	0.270	0.640
2020/01/31 10:21:28.2	300.630	0.080	0.250	0.650
2020/01/31 10:21:28.3	300.610	0.110	0.220	0.660
2020/01/31 10:21:28.4	300.590	0.130	0.190	0.660
2020/01/31 10:21:28.5	300.580	0.150	0.170	0.660
2020/01/31 10:21:28.6	300.580	0.170	0.140	0.660
2020/01/31 10:21:28.7	300.570	0.190	0.110	0.650
2020/01/31 10:21:28.8	300.560	0.210	0.080	0.650
2020/01/31 10:21:28.9	300.560	0.230	0.040	0.640
2020/01/31 10:21:29.0	300.560	0.250	0.010	0.620
2020/01/31 10:21:29.1	300.570	0.270	-0.020	0.600
2020/01/31 10:21:29.2	300.570	0.280	-0.060	0.590
2020/01/31 10:21:29.3	300.580	0.300	-0.100	0.560
2020/01/31 10:21:29.4	300.590	0.310	-0.130	0.540
2020/01/31 10:21:29.5	300.600	0.330	-0.170	0.510
2020/01/31 10:21:29.6	300.620	0.340	-0.210	0.480
2020/01/31 10:21:29.7	300.640	0.360	-0.240	0.450
2020/01/31 10:21:29.8	300.660	0.370	-0.280	0.420
2020/01/31 10:21:29.9	300.680	0.380	-0.320	0.380
2020/01/31 10:21:30.0	300.710	0.390	-0.360	0.340
2020/01/31 10:21:30.1	300.730	0.400	-0.400	0.310
2020/01/31 10:21:30.2	300.760	0.410	-0.430	0.270
2020/01/31 10:21:30.3	300.790	0.410	-0.470	0.230
2020/01/31 10:21:30.4	300.820	0.420	-0.510	0.190
2020/01/31 10:21:30.5	300.860	0.420	-0.550	0.150
2020/01/31 10:21:30.6	300.890	0.430	-0.580	0.110
2020/01/31 10:21:30.7	300.920	0.430	-0.620	0.070
2020/01/31 10:21:30.8	300.960	0.430	-0.650	0.030
2020/01/31 10:21:30.9	301.000	0.430	-0.680	-0.010
2020/01/31 10:21:31.0	301.030	0.430	-0.720	-0.050
2020/01/31 10:21:31.1	301.070	0.430	-0.740	-0.080
2020/01/31 10:21:31.2	301.110	0.430	-0.770	-0.120
2020/01/31 10:21:31.3	301.140	0.420	-0.800	-0.150
2020/01/31 10:21:31.4	301.180	0.420	-0.820	-0.180
2020/01/31 10:21:31.5	301.220	0.420	-0.840	-0.210
2020/01/31 10:21:31.6	301.250	0.410	-0.860	-0.240
2020/01/31 10:21:31.7	301.290	0.400	-0.880	-0.260
2020/01/31 10:21:31.8	301.320	0.400	-0.890	-0.280
2020/01/31 10:21:31.9	301.350	0.390	-0.910	-0.300
2020/01/31 10:21:32.0	301.380	0.380	-0.920	-0.320
2020/01/31 10:21:32.1	301.410	0.370	-0.920	-0.330
2020/01/31 10:21:32.2	301.440	0.360	-0.930	-0.340
2020/01/31 10:21:32.3	301.470	0.350	-0.930	-0.350
2020/01/31 10:21:32.4	301.500	0.340	-0.930	-0.350
2020/01/31 10:21:32.5	301.520	0.330	-0.930	-0.360
2020/01/31 10:21:32.6	301.540	0.310	-0.920	-0.350
2020/01/31 10:21:32.7	301.560	0.300	-0.910	-0.350
2020/01/31 10:21:32.8	301.570	0.290	-0.900	-0.340
2020/01/31 10:21:32.9	301.590	0.270	-0.890	-0.330
2020/01/31 10:21:33.0	301.600	0.260	-0.870	-0.320
2020/01/31 10:21:33.1	301.610	0.240	-0.850	-0.300
2020/01/31 10:21:33.2	301.610	0.230	-0.830	-0.280
2020/01/31 10:21:33.3	301.620	0.210	-0.810	-0.260
2020/01/31 10:21:33.4	301.630	0.200	-0.790	-0.230
2020/01/31 10:21:33.5	301.630	0.180	-0.760	-0.200
2020/01/31 10:21:33.6	301.630	0.170	-0.740	-0.170
2020/01/31 10:21:33.7	301.630	0.150	-0.710	-0.140
2020/01/31 10:21:33.8	301.620	0.140	-0.680	-0.110
2020/01/31 10:21:33.9	301.610	0.120	-0.650	-0.080
2020/01/31 10:21:34.0	301.600	0.100	-0.620	-0.050
2020/01/31 10:21:34.1	301.590	0.090	-0.580	-0.020
2020/01/31 10:21:34.2	301.580	0.070	-0.550	0.020
2020/01/31 10:21:34.3	301.560	0.050	-0.520	0.050
2020/01/31 10:21:34.4	301.550	0.040	-0.480	0.090
2020/01/31 10:21:34.5	301.530	0.020	-0.450	0.130
2020/01/31 10:21:34.6	301.510	0.000	-0.420	0.160
2020/01/31 10:21:34.7	301.490	-0.020	-0.380	0.190
2020/01/31 10:21:34.8	301.470	-0.030	-0.350	0.220
2020/01/31 10:21:34.9	301.440	-0.050	-0.320	0.260
2020/01/31 10:21:35.0	301.420	-0.070	-0.290	0.290
2020/01/31 10:21:35.1	301.400	-0.090	-0.250	0.310
2020/01/31 10:21:35.2	301.370	-0.110	-0.220	0.340
2020/01/31 10:21:35.3	301.350	-0.120	-0.200	0.360
2020/01/31 10:21:35.4	301.320	-0.140	-0.170	0.380
2020/01/31 10:21:35.5	301.290	-0.160	-0.140	0.400
2020/01/31 10:21:35.6	301.270	-0.180	-0.120	0.420
2020/01/31 10:21:35.7	301.240	-0.200	-0.090	0.430
2020/01/31 10:21:35.8	301.220	-0.220	-0.070	0.450
2020/01/31 10:21:35.9	301.200	-0.240	-0.050	0.460
2020/01/31 10:21:36.0	301.170	-0.260	-0.030	0.470
2020/01/31 10:21:36.1	301.150	-0.280	-0.010	0.470
2020/01/31 10:21:36.2	301.130	-0.290	0.010	0.480
2020/01/31 10:21:36.3	301.110	-0.310	0.020	0.480
2020/01/31 10:21:36.4	301.090	-0.330	0.030	0.480
2020/01/31 10:21:36.5	301.070	-0.350	0.050	0.480
2020/01/31 10:21:36.6	301.050	-0.360	0.060	0.470
2020/01/31 10:21:36.7	301.030	-0.380	0.060	0.470
2020/01/31 10:21:36.8	301.010	-0.400	0.070	0.460
2020/01/31 10:21:36.9	301.000	-0.410	0.080	0.450
2020/01/31 10:21:37.0	300.990	-0.420	0.080	0.430
2020/01/31 10:21:37.1	300.970	-0.440	0.080	0.420
2020/01/31 10:21:37.2	300.960	-0.450	0.090	0.400
2020/01/31 10:21:37.3	300.950	-0.460	0.090	0.380
2020/01/31 10:21:37.4	300.940	-0.470	0.080	0.360
2020/01/31 10:21:37.5	300.940	-0.470	0.080	0.340
2020/01/31 10:21:37.6	300.930	-0.480	0.080	0.320
2020/01/31 10:21:37.7	300.930	-0.490	0.070	0.290
2020/01/31 10:21:37.8	300.930	-0.490	0.070	0.270
2020/01/31 10:21:37.9	300.930	-0.490	0.060	0.240
2020/01/31 10:21:38.0	300.930	-0.490	0.060	0.220
2020/01/31 10:21:38.1	300.930	-0.490	0.050	0.190
2020/01/31 10:21:38.2	300.940	-0.490	0.050	0.160
2020/01/31 10:21:38.3	300.940	-0.490	0.050	0.130
2020/01/31 10:21:38.4	300.940	-0.480	0.040	0.110
2020/01/31 10:21:38.5	300.950	-0.470	0.040	0.080
2020/01/31 10:21:38.6	300.960	-0.470	0.040	0.060
2020/01/31 10:21:38.7	300.960	-0.460	0.030	0.030
2020/01/31 10:21:38.8	300.970	-0.450	0.030	0.010
2020/01/31 10:21:38.9	300.980	-0.430	0.030	-0.010
2020/01/31 10:21:39.0	300.990	-0.420	0.040	-0.030
2020/01/31 10:21:39.1	301.000	-0.410	0.040	-0.050
2020/01/31 10:21:39.2	301.000	-0.390	0.040	-0.060
2020/01/31 10:21:39.3	301.010	-0.370	0.040	-0.070
2020/01/31 10:21:39.4	301.030	-0.360	0.050	-0.080
2020/01/31 10:21:39.5	301.040	-0.340	0.050	-0.090
2020/01/31 10:21:39.6	301.050	-0.320	0.060	-0.100
2020/01/31 10:21:39.7	301.060	-0.300	0.060	-0.100
2020/01/31 10:21:39.8	301.070	-0.280	0.070	-0.100
2020/01/31 10:21:39.9	301.080	-0.260	0.080	-0.100
2020/01/31 10:21:40.0	301.090	-0.230	0.080	-0.100
2020/01/31 10:21:40.1	301.100	-0.210	0.090	-0.090
2020/01/31 10:21:40.2	301.110	-0.190	0.090	-0.090
2020/01/31 10:21:40.3	301.120	-0.170	0.100	-0.080
2020/01/31 10:21:40.4	301.130	-0.140	0.100	-0.070
2020/01/31 10:21:40.5	301.140	-0.120	0.100	-0.060
2020/01/31 10:21:40.6	301.150	-0.100	0.100	-0.050
2020/01/31 10:21:40.7	301.160	-0.080	0.100	-0.030
2020/01/31 10:21:40.8	301.180	-0.050	0.100	-0.010
2020/01/31 10:21:40.9	301.190	-0.030	0.100	0.000
2020/01/31 10:21:41.0	301.200	-0.010	0.100	0.020
2020/01/31 10:21:41.1	301.220	0.020	0.090	0.040
2020/01/31 10:21:41.2	301.230	0.040	0.090	0.060
2020/01/31 10:21:41.3	301.250	0.060	0.080	0.080
2020/01/31 10:21:41.4	301.270	0.090	0.070	0.100
2020/01/31 10:21:41.5	301.290	0.110	0.060	0.120
2020/01/31 10:21:41.6	301.310	0.130	0.040	0.140
2020/01/31 10:21:41.7	301.320	0.150	0.030	0.160
2020/01/31 10:21:41.8	301.340	0.180	0.020	0.190
2020/01/31 10:21:41.9	301.360	0.200	0.000	0.210
2020/01/31 10:21:42.0	301.380	0.220	-0.020	0.230
2020/01/31 10:21:42.1	301.390	0.240	-0.030	0.250
2020/01/31 10:21:42.2	301.410	0.260	-0.050	0.270
2020/01/31 10:21:42.3	301.430	0.280	-0.070	0.300
2020/01/31 10:21:42.4	301.450	0.300	-0.090	0.320
2020/01/31 10:21:42.5	301.460	0.320	-0.110	0.340
2020/01/31 10:21:42.6	301.480	0.340	-0.120	0.370
2020/01/31 10:21:42.7	301.490	0.360	-0.140	0.390
2020/01/31 10:21:42.8	301.500	0.370	-0.160	0.410
2020/01/31 10:21:42.9	301.510	0.390	-0.180	0.440
2020/01/31 10:21:43.0	301.520	0.410	-0.200	0.460
2020/01/31 10:21:43.1	301.530	0.420	-0.220	0.480
2020/01/31 10:21:43.2	301.530	0.430	-0.240	0.500
2020/01/31 10:21:43.3	301.540	0.450	-0.250	0.520
2020/01/31 10:21:43.4	301.550	0.460	-0.270	0.540
2020/01/31 10:21:43.5	301.560	0.470	-0.290	0.560
2020/01/31 10:21:43.6	301.560	0.480	-0.310	0.580
2020/01/31 10:21:43.7	301.570	0.480	-0.320	0.590
2020/01/31 10:21:43.8	301.570	0.490	-0.340	0.610
2020/01/31 10:21:43.9	301.580	0.500	-0.360	0.620
2020/01/31 10:21:44.0	301.580	0.500	-0.380	0.630
2020/01/31 10:21:44.1	301.590	0.500	-0.400	0.640
2020/01/31 10:21:44.2	301.590	0.500	-0.410	0.640
2020/01/31 10:21:44.3	301.600	0.500	-0.430	0.650
2020/01/31 10:21:44.4	301.610	0.500	-0.450	0.650
2020/01/31 10:21:44.5	301.610	0.500	-0.470	0.650
2020/01/31 10:21:44.6	301.620	0.500	-0.490	0.640
2020/01/31 10:21:44.7	301.630	0.490	-0.510	0.630
2020/01/31 10:21:44.8	301.640	0.480	-0.530	0.620
2020/01/31 10:21:44.9	301.650	0.480	-0.550	0.610
2020/01/31 10:21:45.0	301.660	0.470	-0.570	0.600
2020/01/31 10:21:45.1	301.670	0.460	-0.590	0.580
2020/01/31 10:21:45.2	301.680	0.450	-0.600	0.560
2020/01/31 10:21:45.3	301.690	0.430	-0.620	0.540
2020/01/31 10:21:45.4	301.690	0.420	-0.640	0.520
2020/01/31 10:21:45.5	301.700	0.400	-0.660	0.500
2020/01/31 10:21:45.6	301.700	0.390	-0.670	0.470
2020/01/31 10:21:45.7	301.710	0.370	-0.690	0.450
2020/01/31 10:21:45.8	301.710	0.350	-0.700	0.420
2020/01/31 10:21:45.9	301.710	0.330	-0.710	0.400
2020/01/31 10:21:46.0	301.720	0.310	-0.730	0.370
2020/01/31 10:21:46.1	301.720	0.280	-0.740	0.340
2020/01/31 10:21:46.2	301.720	0.260	-0.750	0.320
2020/01/31 10:21:46.3	301.720	0.230	-0.760	0.290
2020/01/31 10:21:46.4	301.710	0.210	-0.770	0.260
2020/01/31 10:21:46.5	301.710	0.180	-0.770	0.240
2020/01/31 10:21:46.6	301.700	0.160	-0.780	0.210
2020/01/31 10:21:46.7	301.700	0.130	-0.780	0.180
2020/01/31 10:21:46.8	301.700	0.100	-0.780	0.160
2020/01/31 10:21:46.9	301.690	0.070	-0.780	0.130
2020/01/31 10:21:47.0	301.690	0.040	-0.780	0.110
2020/01/31 10:21:47.1	301.680	0.010	-0.770	0.080
2020/01/31 10:21:47.2	301.670	-0.010	-0.770	0.050
2020/01/31 10:21:47.3	301.670	-0.040	-0.760	0.030
2020/01/31 10:21:47.4	301.660	-0.070	-0.750	0.000
2020/01/31 10:21:47.5	301.660	-0.100	-0.740	-0.020
2020/01/31 10:21:47.6	301.650	-0.130	-0.720	-0.040
2020/01/31 10:21:47.7	301.650	-0.150	-0.710	-0.060
2020/01/31 10:21:47.8	301.640	-0.180	-0.690	-0.080
2020/01/31 10:21:47.9	301.640	-0.210	-0.670	-0.100
2020/01/31 10:21:48.0	301.630	-0.230	-0.650	-0.120
2020/01/31 10:21:48.1	301.620	-0.250	-0.630	-0.140
2020/01/31 10:21:48.2	301.620	-0.280	-0.610	-0.150
2020/01/31 10:21:48.3	301.620	-0.300	-0.580	-0.170
2020/01/31 10:21:48.4	301.620	-0.320	-0.560	-0.180
2020/01/31 10:21:48.5	301.610	-0.340	-0.530	-0.190
2020/01/31 10:21:48.6	301.610	-0.360	-0.500	-0.200
2020/01/31 10:21:48.7	301.610	-0.380	-0.470	-0.200
2020/01/31 10:21:48.8	301.600	-0.390	-0.440	-0.210
2020/01/31 10:21:48.9	301.600	-0.410	-0.410	-0.210
2020/01/31 10:21:49.0	301.600	-0.420	-0.380	-0.210
2020/01/31 10:21:49.1	301.600	-0.430	-0.340	-0.210
2020/01/31 10:21:49.2	301.600	-0.440	-0.310	-0.210
2020/01/31 10:21:49.3	301.600	-0.450	-0.270	-0.200
2020/01/31 10:21:49.4	301.600	-0.460	-0.240	-0.200
2020/01/31 10:21:49.5	301.600	-0.460	-0.200	-0.190
2020/01/31 10:21:49.6	301.600	-0.460	-0.160	-0.180
2020/01/31 10:21:49.7	301.600	-0.460	-0.130	-0.170
2020/01/31 10:21:49.8	301.600	-0.460	-0.090	-0.150
2020/01/31 10:21:49.9	301.600	-0.460	-0.060	-0.140
2020/01/31 10:21:50.0	301.610	-0.450	-0.030	-0.120
2020/01/31 10:21:50.1	301.610	-0.450	0.010	-0.100
2020/01/31 10:21:50.2	301.610	-0.440	0.040	-0.090
2020/01/31 10:21:50.3	301.620	-0.430	0.070	-0.060
2020/01/31 10:21:50.4	301.620	-0.410	0.100	-0.040
2020/01/31 10:21:50.5	301.620	-0.400	0.130	-0.020
2020/01/31 10:21:50.6	301.630	-0.380	0.150	0.000
2020/01/31 10:21:50.7	301.630	-0.360	0.180	0.030
2020/01/31 10:21:50.8	301.640	-0.350	0.200	0.050
2020/01/31 10:21:50.9	301.640	-0.330	0.220	0.070
2020/01/31 10:21:51.0	301.650	-0.300	0.240	0.090
2020/01/31 10:21:51.1	301.650	-0.280	0.250	0.120
2020/01/31 10:21:51.2	301.660	-0.260	0.270	0.140
2020/01/31 10:21:51.3	301.660	-0.230	0.280	0.160
2020/01/31 10:21:51.4	301.680	-0.210	0.280	0.180
2020/01/31 10:21:51.5	301.690	-0.180	0.290	0.200
2020/01/31 10:21:51.6	301.700	-0.160	0.290	0.220
2020/01/31 10:21:51.7	301.700	-0.130	0.290	0.230
2020/01/31 10:21:51.8	301.710	-0.100	0.290	0.250
2020/01/31 10:21:51.9	301.720	-0.070	0.280	0.260
2020/01/31 10:21:52.0	301.730	-0.050	0.270	0.280
2020/01/31 10:21:52.1	301.730	-0.020	0.260	0.290
2020/01/31 10:21:52.2	301.740	0.010	0.250	0.300
2020/01/31 10:21:52.3	301.750	0.030	0.240	0.310
2020/01/31 10:21:52.4	301.740	0.060	0.220	0.320
2020/01/31 10:21:52.5	301.750	0.080	0.210	0.320
2020/01/31 10:21:52.6	301.760	0.110	0.190	0.330
2020/01/31 10:21:52.7	301.760	0.130	0.170	0.340
2020/01/31 10:21:52.8	301.770	0.150	0.150	0.340
2020/01/31 10:21:52.9	301.780	0.170	0.140	0.340
2020/01/31 10:21:53.0	301.790	0.190	0.120	0.350
2020/01/31 10:21:53.1	301.800	0.210	0.100	0.350
2020/01/31 10:21:53.2	301.800	0.220	0.080	0.350
2020/01/31 10:21:53.3	301.810	0.240	0.070	0.350
2020/01/31 10:21:53.4	301.800	0.250	0.050	0.340
2020/01/31 10:21:53.5	301.800	0.260	0.030	0.340
2020/01/31 10:21:53.6	301.810	0.270	0.020	0.340
2020/01/31 10:21:53.7	301.810	0.280	0.010	0.340
2020/01/31 10:21:53.8	301.820	0.280	-0.010	0.330
2020/01/31 10:21:53.9	301.820	0.290	-0.020	0.330
2020/01/31 10:21:54.0	301.820	0.290	-0.030	0.320
2020/01/31 10:21:54.1	301.830	0.290	-0.040	0.320
2020/01/31 10:21:54.2	301.830	0.290	-0.050	0.310
2020/01/31 10:21:54.3	301.830	0.290	-0.060	0.300
2020/01/31 10:21:54.4	301.830	0.280	-0.060	0.290
2020/01/31 10:21:54.5	301.830	0.280	-0.070	0.280
2020/01/31 10:21:54.6	301.830	0.270	-0.080	0.270
2020/01/31 10:21:54.7	301.830	0.260	-0.080	0.260
2020/01/31 10:21:54.8	301.830	0.250	-0.090	0.240
2020/01/31 10:21:54.9	301.840	0.240	-0.100	0.220
2020/01/31 10:21:55.0	301.840	0.230	-0.110	0.200
2020/01/31 10:21:55.1	301.840	0.220	-0.110	0.180
2020/01/31 10:21:55.2	301.840	0.200	-0.120	0.160
2020/01/31 10:21:55.3	301.850	0.190	-0.130	0.140
2020/01/31 10:21:55.4	301.850	0.180	-0.150	0.120
2020/01/31 10:21:55.5	301.850	0.160	-0.160	0.090
2020/01/31 10:21:55.6	301.860	0.140	-0.170	0.070
2020/01/31 10:21:55.7	301.860	0.130	-0.180	0.050
2020/01/31 10:21:55.8	301.860	0.110	-0.190	0.020
2020/01/31 10:21:55.9	301.870	0.100	-0.200	-0.000
2020/01/31 10:21:56.0	301.870	0.080	-0.220	-0.020
2020/01/31 10:21:56.1	301.870	0.070	-0.230	-0.040
2020/01/31 10:21:56.2	301.880	0.050	-0.250	-0.060
2020/01/31 10:21:56.3	301.880	0.040	-0.260	-0.080
2020/01/31 10:21:56.4	301.870	0.030	-0.280	-0.100
2020/01/31 10:21:56.5	301.870	0.010	-0.290	-0.120
2020/01/31 10:21:56.6	301.870	0.000	-0.310	-0.130
2020/01/31 10:21:56.7	301.870	-0.010	-0.330	-0.150
2020/01/31 10:21:56.8	301.870	-0.020	-0.350	-0.160
2020/01/31 10:21:56.9	301.870	-0.030	-0.360	-0.170
2020/01/31 10:21:57.0	301.870	-0.040	-0.380	-0.180
2020/01/31 10:21:57.1	301.870	-0.050	-0.400	-0.200
2020/01/31 10:21:57.2	301.870	-0.060	-0.420	-0.210
2020/01/31 10:21:57.3	301.870	-0.070	-0.440	-0.220
2020/01/31 10:21:57.4	301.860	-0.080	-0.470	-0.230
2020/01/31 10:21:57.5	301.860	-0.080	-0.490	-0.240
2020/01/31 10:21:57.6	301.860	-0.090	-0.510	-0.250
2020/01/31 10:21:57.7	301.860	-0.100	-0.530	-0.260
2020/01/31 10:21:57.8	301.860	-0.100	-0.550	-0.270
2020/01/31 10:21:57.9	301.860	-0.110	-0.570	-0.280
2020/01/31 10:21:58.0	301.860	-0.110	-0.590	-0.290
2020/01/31 10:21:58.1	301.860	-0.120	-0.610	-0.290
2020/01/31 10:21:58.2	301.860	-0.120	-0.620	-0.300
2020/01/31 10:21:58.3	301.860	-0.130	-0.640	-0.300
2020/01/31 10:21:58.4	301.860	-0.130	-0.650	-0.310
2020/01/31 10:21:58.5	301.860	-0.140	-0.670	-0.310
2020/01/31 10:21:58.6	301.860	-0.140	-0.680	-0.310
2020/01/31 10:21:58.7	301.860	-0.140	-0.690	-0.310
2020/01/31 10:21:58.8	301.860	-0.150	-0.700	-0.310
2020/01/31 10:21:58.9	301.870	-0.150	-0.710	-0.310
2020/01/31 10:21:59.0	301.870	-0.150	-0.720	-0.300
2020/01/31 10:21:59.1	301.880	-0.150	-0.720	-0.300
2020/01/31 10:21:59.2	301.880	-0.160	-0.720	-0.290
2020/01/31 10:21:59.3	301.880	-0.160	-0.720	-0.280
2020/01/31 10:21:59.4	301.900	-0.160	-0.730	-0.270
2020/01/31 10:21:59.5	301.910	-0.160	-0.730	-0.260
2020/01/31 10:21:59.6	301.910	-0.160	-0.720	-0.250
2020/01/31 10:21:59.7	301.920	-0.150	-0.720	-0.240
2020/01/31 10:21:59.8	301.930	-0.150	-0.710	-0.220
2020/01/31 10:21:59.9	301.940	-0.150	-0.710	-0.210
2020/01/31 10:22:00.0	301.950	-0.140	-0.700	-0.200
2020/01/31 10:22:00.1	301.960	-0.140	-0.700	-0.180
2020/01/31 10:22:00.2	301.970	-0.130	-0.690	-0.170
2020/01/31 10:22:00.3	301.980	-0.130	-0.680	-0.150
2020/01/31 10:22:00.4	302.010	-0.120	-0.670	-0.140
2020/01/31 10:22:00.5	302.020	-0.110	-0.660	-0.120
2020/01/31 10:22:00.6	302.030	-0.100	-0.650	-0.110
2020/01/31 10:22:00.7	302.050	-0.090	-0.640	-0.090
2020/01/31 10:22:00.8	302.060	-0.080	-0.620	-0.080
2020/01/31 10:22:00.9	302.080	-0.070	-0.610	-0.060
2020/01/31 10:22:01.0	302.090	-0.060	-0.600	-0.040
2020/01/31 10:22:01.1	302.110	-0.050	-0.580	-0.020
2020/01/31 10:22:01.2	302.120	-0.040	-0.560	-0.000
2020/01/31 10:22:01.3	302.130	-0.020	-0.540	0.020
2020/01/31 10:22:01.4	302.160	-0.010	-0.520	0.040
2020/01/31 10:22:01.5	302.170	0.000	-0.500	0.070
2020/01/31 10:22:01.6	302.180	0.010	-0.470	0.090
2020/01/31 10:22:01.7	302.180	0.030	-0.440	0.120
2020/01/31 10:22:01.8	302.190	0.040	-0.410	0.150
2020/01/31 10:22:01.9	302.190	0.050	-0.380	0.180
2020/01/31 10:22:02.0	302.200	0.060	-0.340	0.220
2020/01/31 10:22:02.1	302.200	0.080	-0.300	0.250
2020/01/31 10:22:02.2	302.200	0.090	-0.260	0.290
2020/01/31 10:22:02.3	302.190	0.100	-0.220	0.330
2020/01/31 10:22:02.4	302.200	0.110	-0.170	0.370
2020/01/31 10:22:02.5	302.200	0.120	-0.130	0.410
2020/01/31 10:22:02.6	302.190	0.130	-0.080	0.460
2020/01/31 10:22:02.7	302.180	0.130	-0.030	0.500
2020/01/31 10:22:02.8	302.160	0.140	0.020	0.550
2020/01/31 10:22:02.9	302.150	0.150	0.070	0.590
2020/01/31 10:22:03.0	302.130	0.150	0.120	0.630
2020/01/31 10:22:03.1	302.110	0.150	0.170	0.680
2020/01/31 10:22:03.2	302.100	0.160	0.220	0.720
2020/01/31 10:22:03.3	302.070	0.160	0.270	0.760
2020/01/31 10:22:03.4	302.060	0.160	0.320	0.800
2020/01/31 10:22:03.5	302.040	0.160	0.360	0.840
2020/01/31 10:22:03.6	302.020	0.160	0.400	0.870
2020/01/31 10:22:03.7	301.990	0.160	0.440	0.910
2020/01/31 10:22:03.8	301.970	0.160	0.470	0.940
2020/01/31 10:22:03.9	301.950	0.160	0.500	0.970
2020/01/31 10:22:04.0	301.920	0.160	0.530	0.990
2020/01/31 10:22:04.1	301.900	0.150	0.550	1.020
2020/01/31 10:22:04.2	301.880	0.150	0.560	1.040
2020/01/31 10:22:04.3	301.850	0.150	0.570	1.050
2020/01/31 10:22:04.4	301.830	0.150	0.580	1.060
2020/01/31 10:22:04.5	301.800	0.150	0.580	1.070
2020/01/31 10:22:04.6	301.780	0.150	0.570	1.080
2020/01/31 10:22:04.7	301.760	0.140	0.560	1.080
2020/01/31 10:22:04.8	301.740	0.140	0.550	1.080
2020/01/31 10:22:04.9	301.720	0.140	0.520	1.080
2020/01/31 10:22:05.0	301.700	0.140	0.500	1.070
2020/01/31 10:22:05.1	301.680	0.140	0.470	1.060
2020/01/31 10:22:05.2	301.660	0.140	0.430	1.050
2020/01/31 10:22:05.3	301.650	0.150	0.390	1.030
2020/01/31 10:22:05.4	301.640	0.150	0.340	1.000
2020/01/31 10:22:05.5	301.630	0.150	0.300	0.980
2020/01/31 10:22:05.6	301.620	0.150	0.250	0.950
2020/01/31 10:22:05.7	301.610	0.150	0.200	0.920
2020/01/31 10:22:05.8	301.600	0.160	0.140	0.890
2020/01/31 10:22:05.9	301.590	0.160	0.090	0.850
2020/01/31 10:22:06.0	301.580	0.160	0.030	0.820
2020/01/31 10:22:06.1	301.580	0.170	-0.030	0.780
2020/01/31 10:22:06.2	301.580	0.170	-0.090	0.730
2020/01/31 10:22:06.3	301.580	0.170	-0.150	0.690
2020/01/31 10:22:06.4	301.580	0.180	-0.200	0.640
2020/01/31 10:22:06.5	301.580	0.180	-0.260	0.590
2020/01/31 10:22:06.6	301.590	0.180	-0.320	0.540
2020/01/31 10:22:06.7	301.590	0.180	-0.370	0.490
2020/01/31 10:22:06.8	301.600	0.180	-0.430	0.430
2020/01/31 10:22:06.9	301.610	0.180	-0.480	0.380
2020/01/31 10:22:07.0	301.620	0.180	-0.530	0.320
2020/01/31 10:22:07.1	301.640	0.180	-0.570	0.270
2020/01/31 10:22:07.2	301.650	0.170	-0.620	0.210
2020/01/31 10:22:07.3	301.670	0.170	-0.660	0.150
2020/01/31 10:22:07.4	301.690	0.160	-0.700	0.090
2020/01/31 10:22:07.5	301.710	0.150	-0.740	0.040
2020/01/31 10:22:07.6	301.730	0.150	-0.770	-0.020
2020/01/31 10:22:07.7	301.750	0.130	-0.790	-0.080
2020/01/31 10:22:07.8	301.770	0.120	-0.820	-0.140
2020/01/31 10:22:07.9	301.790	0.110	-0.840	-0.190
2020/01/31 10:22:08.0	301.810	0.090	-0.850	-0.250
2020/01/31 10:22:08.1	301.840	0.070	-0.870	-0.310
2020/01/31 10:22:08.2	301.860	0.050	-0.870	-0.360
2020/01/31 10:22:08.3	301.890	0.030	-0.880	-0.410
2020/01/31 10:22:08.4	301.910	0.010	-0.880	-0.460
2020/01/31 10:22:08.5	301.930	-0.020	-0.880	-0.510
2020/01/31 10:22:08.6	301.960	-0.040	-0.870	-0.560
2020/01/31 10:22:08.7	301.990	-0.070	-0.860	-0.600
2020/01/31 10:22:08.8	302.010	-0.100	-0.850	-0.640
2020/01/31 10:22:08.9	302.040	-0.130	-0.830	-0.680
2020/01/31 10:22:09.0	302.060	-0.160	-0.810	-0.710
2020/01/31 10:22:09.1	302.090	-0.190	-0.780	-0.740
2020/01/31 10:22:09.2	302.110	-0.220	-0.760	-0.770
2020/01/31 10:22:09.3	302.140	-0.250	-0.730	-0.790
2020/01/31 10:22:09.4	302.170	-0.280	-0.700	-0.810
2020/01/31 10:22:09.5	302.190	-0.310	-0.660	-0.830
2020/01/31 10:22:09.6	302.210	-0.340	-0.620	-0.840
2020/01/31 10:22:09.7	302.230	-0.370	-0.580	-0.840
2020/01/31 10:22:09.8	302.240	-0.400	-0.540	-0.840
2020/01/31 10:22:09.9	302.250	-0.420	-0.500	-0.840
2020/01/31 10:22:10.0	302.270	-0.450	-0.460	-0.830
2020/01/31 10:22:10.1	302.270	-0.470	-0.420	-0.820
2020/01/31 10:22:10.2	302.280	-0.500	-0.370	-0.800
2020/01/31 10:22:10.3	302.280	-0.520	-0.330	-0.780
2020/01/31 10:22:10.4	302.280	-0.540	-0.290	-0.750
2020/01/31 10:22:10.5	302.280	-0.550	-0.250	-0.720
2020/01/31 10:22:10.6	302.280	-0.570	-0.210	-0.690
2020/01/31 10:22:10.7	302.270	-0.580	-0.170	-0.660
2020/01/31 10:22:10.8	302.270	-0.590	-0.130	-0.620
2020/01/31 10:22:10.9	302.260	-0.600	-0.100	-0.580
2020/01/31 10:22:11.0	302.260	-0.600	-0.070	-0.540
2020/01/31 10:22:11.1	302.250	-0.600	-0.040	-0.500
2020/01/31 10:22:11.2	302.240	-0.600	-0.020	-0.460
2020/01/31 10:22:11.3	302.230	-0.600	0.000	-0.410
2020/01/31 10:22:11.4	302.220	-0.590	0.020	-0.370
2020/01/31 10:22:11.5	302.210	-0.580	0.030	-0.320
2020/01/31 10:22:11.6	302.200	-0.570	0.040	-0.280
2020/01/31 10:22:11.7	302.190	-0.550	0.040	-0.230
2020/01/31 10:22:11.8	302.180	-0.540	0.040	-0.180
2020/01/31 10:22:11.9	302.170	-0.520	0.040	-0.130
2020/01/31 10:22:12.0	302.160	-0.490	0.030	-0.090
2020/01/31 10:22:12.1	302.140	-0.470	0.020	-0.040
2020/01/31 10:22:12.2	302.130	-0.440	0.000	0.010
2020/01/31 10:22:12.3	302.120	-0.410	-0.010	0.050
2020/01/31 10:22:12.4	302.110	-0.370	-0.030	0.100
2020/01/31 10:22:12.5	302.100	-0.340	-0.060	0.150
2020/01/31 10:22:12.6	302.090	-0.300	-0.080	0.190
2020/01/31 10:22:12.7	302.070	-0.270	-0.110	0.230
2020/01/31 10:22:12.8	302.060	-0.230	-0.130	0.270
2020/01/31 10:22:12.9	302.050	-0.190	-0.160	0.320
2020/01/31 10:22:13.0	302.040	-0.150	-0.190	0.350
2020/01/31 10:22:13.1	302.030	-0.100	-0.210	0.390
2020/01/31 10:22:13.2	302.020	-0.060	-0.240	0.430
2020/01/31 10:22:13.3	302.010	-0.020	-0.270	0.460
2020/01/31 10:22:13.4	301.990	0.020	-0.290	0.500
2020/01/31 10:22:13.5	301.980	0.060	-0.310	0.530
2020/01/31 10:22:13.6	301.980	0.100	-0.330	0.550
2020/01/31 10:22:13.7	301.970	0.140	-0.350	0.580
2020/01/31 10:22:13.8	301.970	0.180	-0.370	0.600
2020/01/31 10:22:13.9	301.960	0.220	-0.380	0.630
2020/01/31 10:22:14.0	301.960	0.250	-0.390	0.640
2020/01/31 10:22:14.1	301.960	0.290	-0.400	0.660
2020/01/31 10:22:14.2	301.960	0.320	-0.400	0.680
2020/01/31 10:22:14.3	301.960	0.350	-0.400	0.690
2020/01/31 10:22:14.4	301.940	0.370	-0.390	0.700
2020/01/31 10:22:14.5	301.940	0.400	-0.380	0.710
2020/01/31 10:22:14.6	301.930	0.420	-0.370	0.720
2020/01/31 10:22:14.7	301.930	0.440	-0.360	0.730
2020/01/31 10:22:14.8	301.920	0.450	-0.340	0.740
2020/01/31 10:22:14.9	301.910	0.470	-0.320	0.750
2020/01/31 10:22:15.0	301.900	0.480	-0.290	0.760
2020/01/31 10:22:15.1	301.890	0.480	-0.270	0.770
2020/01/31 10:22:15.2	301.880	0.490	-0.240	0.770
2020/01/31 10:22:15.3	301.860	0.490	-0.210	0.780
2020/01/31 10:22:15.4	301.860	0.490	-0.180	0.800
2020/01/31 10:22:15.5	301.840	0.480	-0.140	0.800
2020/01/31 10:22:15.6	301.820	0.470	-0.110	0.810
2020/01/31 10:22:15.7	301.800	0.460	-0.070	0.820
2020/01/31 10:22:15.8	301.780	0.450	-0.040	0.830
2020/01/31 10:22:15.9	301.760	0.440	-0.000	0.840
2020/01/31 10:22:16.0	301.740	0.420	0.030	0.850
2020/01/31 10:22:16.1	301.710	0.410	0.060	0.850
2020/01/31 10:22:16.2	301.690	0.390	0.090	0.860
2020/01/31 10:22:16.3	301.670	0.370	0.120	0.860
2020/01/31 10:22:16.4	301.640	0.350	0.150	0.870
2020/01/31 10:22:16.5	301.620	0.330	0.170	0.870
2020/01/31 10:22:16.6	301.600	0.310	0.190	0.870
2020/01/31 10:22:16.7	301.570	0.290	0.210	0.870
2020/01/31 10:22:16.8	301.550	0.260	0.220	0.870
2020/01/31 10:22:16.9	301.530	0.240	0.230	0.860
2020/01/31 10:22:17.0	301.510	0.220	0.240	0.860
2020/01/31 10:22:17.1	301.480	0.200	0.240	0.850
2020/01/31 10:22:17.2	301.460	0.180	0.240	0.840
2020/01/31 10:22:17.3	301.440	0.160	0.240	0.830
2020/01/31 10:22:17.4	301.420	0.140	0.220	0.820
2020/01/31 10:22:17.5	301.400	0.130	0.210	0.810
2020/01/31 10:22:17.6	301.380	0.110	0.200	0.790
2020/01/31 10:22:17.7	301.370	0.100	0.180	0.780
2020/01/31 10:22:17.8	301.350	0.080	0.160	0.760
2020/01/31 10:22:17.9	301.340	0.070	0.130	0.740
2020/01/31 10:22:18.0	301.320	0.060	0.110	0.720
2020/01/31 10:22:18.1	301.310	0.050	0.080	0.690
2020/01/31 10:22:18.2	301.300	0.040	0.050	0.670
2020/01/31 10:22:18.3	301.290	0.040	0.010	0.640
2020/01/31 10:22:18.4	301.280	0.030	-0.020	0.620
2020/01/31 10:22:18.5	301.270	0.030	-0.050	0.590
2020/01/31 10:22:18.6	301.260	0.020	-0.090	0.560
2020/01/31 10:22:18.7	301.260	0.020	-0.120	0.530
2020/01/31 10:22:18.8	301.260	0.020	-0.160	0.500
2020/01/31 10:22:18.9	301.250	0.020	-0.190	0.460
2020/01/31 10:22:19.0	301.250	0.020	-0.230	0.430
2020/01/31 10:22:19.1	301.250	0.020	-0.260	0.390
2020/01/31 10:22:19.2	301.250	0.030	-0.300	0.360
2020/01/31 10:22:19.3	301.250	0.030	-0.330	0.320
2020/01/31 10:22:19.4	301.250	0.030	-0.360	0.290
2020/01/31 10:22:19.5	301.260	0.040	-0.390	0.250
2020/01/31 10:22:19.6	301.260	0.040	-0.420	0.210
2020/01/31 10:22:19.7	301.270	0.040	-0.450	0.170
2020/01/31 10:22:19.8	301.280	0.050	-0.480	0.140
2020/01/31 10:22:19.9	301.280	0.050	-0.510	0.100
2020/01/31 10:22:20.0	301.290	0.050	-0.530	0.060
2020/01/31 10:22:20.1	301.310	0.060	-0.560	0.020
2020/01/31 10:22:20.2	301.320	0.060	-0.580	-0.010
2020/01/31 10:22:20.3	301.330	0.060	-0.600	-0.050
2020/01/31 10:22:20.4	301.340	0.060	-0.620	-0.090
2020/01/31 10:22:20.5	301.350	0.070	-0.630	-0.120
2020/01/31 10:22:20.6	301.370	0.070	-0.650	-0.160
2020/01/31 10:22:20.7	301.380	0.070	-0.660	-0.190
2020/01/31 10:22:20.8	301.400	0.070	-0.670	-0.220
2020/01/31 10:22:20.9	301.410	0.070	-0.680	-0.250
2020/01/31 10:22:21.0	301.430	0.070	-0.690	-0.280
2020/01/31 10:22:21.1	301.450	0.060	-0.700	-0.300
2020/01/31 10:22:21.2	301.460	0.060	-0.700	-0.330
2020/01/31 10:22:21.3	301.480	0.060	-0.700	-0.350
2020/01/31 10:22:21.4	301.490	0.050	-0.700	-0.370
2020/01/31 10:22:21.5	301.500	0.050	-0.700	-0.390
2020/01/31 10:22:21.6	301.520	0.040	-0.700	-0.410
2020/01/31 10:22:21.7	301.540	0.040	-0.690	-0.420
2020/01/31 10:22:21.8	301.550	0.030	-0.680	-0.430
2020/01/31 10:22:21.9	301.570	0.020	-0.670	-0.440
2020/01/31 10:22:22.0	301.580	0.010	-0.660	-0.450
2020/01/31 10:22:22.1	301.600	0.000	-0.650	-0.450
2020/01/31 10:22:22.2	301.620	-0.010	-0.630	-0.460
2020/01/31 10:22:22.3	301.640	-0.020	-0.620	-0.460
2020/01/31 10:22:22.4	301.650	-0.030	-0.600	-0.450
2020/01/31 10:22:22.5	301.670	-0.040	-0.580	-0.450
2020/01/31 10:22:22.6	301.690	-0.050	-0.570	-0.440
2020/01/31 10:22:22.7	301.710	-0.060	-0.550	-0.430
2020/01/31 10:22:22.8	301.720	-0.080	-0.530	-0.410
2020/01/31 10:22:22.9	301.740	-0.090	-0.510	-0.390
2020/01/31 10:22:23.0	301.760	-0.100	-0.490	-0.370
2020/01/31 10:22:23.1	301.770	-0.110	-0.470	-0.350
2020/01/31 10:22:23.2	301.790	-0.120	-0.450	-0.330
2020/01/31 10:22:23.3	301.800	-0.130	-0.430	-0.300
2020/01/31 10:22:23.4	301.820	-0.140	-0.410	-0.270
2020/01/31 10:22:23.5	301.830	-0.150	-0.390	-0.240
2020/01/31 10:22:23.6	301.850	-0.160	-0.370	-0.200
2020/01/31 10:22:23.7	301.860	-0.170	-0.350	-0.160
2020/01/31 10:22:23.8	301.870	-0.180	-0.330	-0.130
2020/01/31 10:22:23.9	301.870	-0.190	-0.320	-0.080
2020/01/31 10:22:24.0	301.880	-0.200	-0.300	-0.040
2020/01/31 10:22:24.1	301.880	-0.200	-0.280	0.000
2020/01/31 10:22:24.2	301.880	-0.210	-0.260	0.050
2020/01/31 10:22:24.3	301.880	-0.210	-0.250	0.090
2020/01/31 10:22:24.4	301.880	-0.220	-0.230	0.140
2020/01/31 10:22:24.5	301.880	-0.220	-0.220	0.190
2020/01/31 10:22:24.6	301.870	-0.220	-0.200	0.240
2020/01/31 10:22:24.7	301.860	-0.230	-0.190	0.290
2020/01/31 10:22:24.8	301.850	-0.230	-0.170	0.340
2020/01/31 10:22:24.9	301.840	-0.230	-0.160	0.390
2020/01/31 10:22:25.0	301.830	-0.230	-0.150	0.440
2020/01/31 10:22:25.1	301.810	-0.230	-0.140	0.490
2020/01/31 10:22:25.2	301.800	-0.220	-0.130	0.540
2020/01/31 10:22:25.3	301.780	-0.220	-0.120	0.590
2020/01/31 10:22:25.4	301.760	-0.220	-0.110	0.640
2020/01/31 10:22:25.5	301.740	-0.220	-0.100	0.680
2020/01/31 10:22:25.6	301.710	-0.210	-0.090	0.720
2020/01/31 10:22:25.7	301.690	-0.210	-0.080	0.770
2020/01/31 10:22:25.8	301.670	-0.200	-0.070	0.800
2020/01/31 10:22:25.9	301.640	-0.200	-0.070	0.840
2020/01/31 10:22:26.0	301.610	-0.190	-0.060	0.870
2020/01/31 10:22:26.1	301.590	-0.180	-0.060	0.900
2020/01/31 10:22:26.2	301.560	-0.180	-0.050	0.930
2020/01/31 10:22:26.3	301.530	-0.170	-0.050	0.950
2020/01/31 10:22:26.4	301.510	-0.170	-0.040	0.970
2020/01/31 10:22:26.5	301.480	-0.160	-0.040	0.980
2020/01/31 10:22:26.6	301.450	-0.160	-0.030	0.990
2020/01/31 10:22:26.7	301.430	-0.150	-0.030	1.000
2020/01/31 10:22:26.8	301.400	-0.150	-0.030	1.000
2020/01/31 10:22:26.9	301.370	-0.140	-0.020	1.000
2020/01/31 10:22:27.0	301.350	-0.140	-0.020	0.990
2020/01/31 10:22:27.1	301.320	-0.130	-0.020	0.980
2020/01/31 10:22:27.2	301.300	-0.130	-0.010	0.970
2020/01/31 10:22:27.3	301.280	-0.130	-0.010	0.950
2020/01/31 10:22:27.4	301.270	-0.120	-0.010	0.930
2020/01/31 10:22:27.5	301.240	-0.120	-0.010	0.910
2020/01/31 10:22:27.6	301.220	-0.120	-0.000	0.880
2020/01/31 10:22:27.7	301.200	-0.110	0.000	0.860
2020/01/31 10:22:27.8	301.180	-0.110	0.010	0.830
2020/01/31 10:22:27.9	301.160	-0.100	0.010	0.800
2020/01/31 10:22:28.0	301.140	-0.100	0.010	0.770
2020/01/31 10:22:28.1	301.120	-0.100	0.020	0.740
2020/01/31 10:22:28.2	301.110	-0.090	0.030	0.710
2020/01/31 10:22:28.3	301.090	-0.090	0.030	0.670
2020/01/31 10:22:28.4	301.080	-0.080	0.040	0.640
2020/01/31 10:22:28.5	301.070	-0.080	0.040	0.600
2020/01/31 10:22:28.6	301.060	-0.070	0.050	0.570
2020/01/31 10:22:28.7	301.050	-0.070	0.050	0.530
2020/01/31 10:22:28.8	301.040	-0.060	0.060	0.490
2020/01/31 10:22:28.9	301.040	-0.050	0.070	0.450
2020/01/31 10:22:29.0	301.040	-0.050	0.070	0.410
2020/01/31 10:22:29.1	301.040	-0.040	0.080	0.370
2020/01/31 10:22:29.2	301.040	-0.030	0.080	0.330
2020/01/31 10:22:29.3	301.040	-0.020	0.090	0.290
2020/01/31 10:22:29.4	301.030	-0.010	0.090	0.250
2020/01/31 10:22:29.5	301.040	-0.010	0.090	0.210
2020/01/31 10:22:29.6	301.040	0.000	0.090	0.170
2020/01/31 10:22:29.7	301.050	0.010	0.090	0.140
2020/01/31 10:22:29.8	301.060	0.020	0.080	0.110
2020/01/31 10:22:29.9	301.070	0.030	0.080	0.070
2020/01/31 10:22:30.0	301.080	0.040	0.070	0.040
2020/01/31 10:22:30.1	301.090	0.060	0.070	0.020
2020/01/31 10:22:30.2	301.110	0.070	0.060	-0.010
2020/01/31 10:22:30.3	301.120	0.080	0.050	-0.030
2020/01/31 10:22:30.4	301.140	0.090	0.030	-0.060
2020/01/31 10:22:30.5	301.160	0.100	0.020	-0.070
2020/01/31 10:22:30.6	301.170	0.120	-0.000	-0.090
2020/01/31 10:22:30.7	301.190	0.130	-0.020	-0.100
2020/01/31 10:22:30.8	301.210	0.140	-0.040	-0.110
2020/01/31 10:22:30.9	301.230	0.160	-0.060	-0.120
2020/01/31 10:22:31.0	301.250	0.170	-0.090	-0.130
2020/01/31 10:22:31.1	301.270	0.190	-0.110	-0.130
2020/01/31 10:22:31.2	301.290	0.200	-0.140	-0.130
2020/01/31 10:22:31.3	301.310	0.220	-0.170	-0.130
2020/01/31 10:22:31.4	301.330	0.230	-0.200	-0.130
2020/01/31 10:22:31.5	301.350	0.250	-0.230	-0.120
2020/01/31 10:22:31.6	301.380	0.260	-0.260	-0.110
2020/01/31 10:22:31.7	301.400	0.280	-0.290	-0.100
2020/01/31 10:22:31.8	301.420	0.290	-0.330	-0.090
2020/01/31 10:22:31.9	301.440	0.310	-0.360	-0.080
2020/01/31 10:22:32.0	301.460	0.320	-0.390	-0.060
2020/01/31 10:22:32.1	301.490	0.340	-0.420	-0.040
2020/01/31 10:22:32.2	301.510	0.350	-0.450	-0.020
2020/01/31 10:22:32.3	301.530	0.360	-0.490	-0.000
2020/01/31 10:22:32.4	301.560	0.370	-0.510	0.020
2020/01/31 10:22:32.5	301.580	0.380	-0.540	0.040
2020/01/31 10:22:32.6	301.600	0.390	-0.570	0.060
2020/01/31 10:22:32.7	301.610	0.400	-0.600	0.090
2020/01/31 10:22:32.8	301.630	0.410	-0.620	0.110
2020/01/31 10:22:32.9	301.640	0.410	-0.640	0.130
2020/01/31 10:22:33.0	301.660	0.420	-0.660	0.160
2020/01/31 10:22:33.1	301.670	0.420	-0.680	0.180
2020/01/31 10:22:33.2	301.680	0.420	-0.700	0.210
2020/01/31 10:22:33.3	301.690	0.420	-0.710	0.230
2020/01/31 10:22:33.4	301.700	0.420	-0.720	0.250
2020/01/31 10:22:33.5	301.710	0.410	-0.730	0.280
2020/01/31 10:22:33.6	301.720	0.410	-0.730	0.300
2020/01/31 10:22:33.7	301.720	0.400	-0.730	0.320
2020/01/31 10:22:33.8	301.730	0.390	-0.730	0.340
2020/01/31 10:22:33.9	301.730	0.380	-0.730	0.370
2020/01/31 10:22:34.0	301.730	0.370	-0.720	0.390
2020/01/31 10:22:34.1	301.730	0.350	-0.710	0.410
2020/01/31 10:22:34.2	301.730	0.340	-0.690	0.430
2020/01/31 10:22:34.3	301.720	0.320	-0.680	0.450
2020/01/31 10:22:34.4	301.720	0.300	-0.660	0.460
2020/01/31 10:22:34.5	301.710	0.280	-0.630	0.480
2020/01/31 10:22:34.6	301.700	0.260	-0.610	0.500
2020/01/31 10:22:34.7	301.690	0.240	-0.580	0.510
2020/01/31 10:22:34.8	301.680	0.210	-0.550	0.530
2020/01/31 10:22:34.9	301.670	0.190	-0.520	0.540
2020/01/31 10:22:35.0	301.660	0.160	-0.490	0.550
2020/01/31 10:22:35.1	301.640	0.140	-0.460	0.550
2020/01/31 10:22:35.2	301.630	0.110	-0.430	0.560
2020/01/31 10:22:35.3	301.610	0.090	-0.400	0.560
2020/01/31 10:22:35.4	301.590	0.060	-0.360	0.560
2020/01/31 10:22:35.5	301.570	0.040	-0.330	0.560
2020/01/31 10:22:35.6	301.560	0.010	-0.300	0.560
2020/01/31 10:22:35.7	301.540	-0.010	-0.280	0.550
2020/01/31 10:22:35.8	301.520	-0.040	-0.250	0.540
2020/01/31 10:22:35.9	301.510	-0.060	-0.230	0.530
2020/01/31 10:22:36.0	301.500	-0.090	-0.200	0.520
2020/01/31 10:22:36.1	301.480	-0.110	-0.180	0.500
2020/01/31 10:22:36.2	301.470	-0.130	-0.170	0.480
2020/01/31 10:22:36.3	301.460	-0.150	-0.150	0.460
2020/01/31 10:22:36.4	301.450	-0.180	-0.140	0.430
2020/01/31 10:22:36.5	301.440	-0.190	-0.140	0.400
2020/01/31 10:22:36.6	301.430	-0.210	-0.130	0.370
2020/01/31 10:22:36.7	301.430	-0.230	-0.120	0.340
2020/01/31 10:22:36.8	301.420	-0.250	-0.120	0.310
2020/01/31 10:22:36.9	301.420	-0.260	-0.120	0.270
2020/01/31 10:22:37.0	301.420	-0.270	-0.120	0.230
2020/01/31 10:22:37.1	301.420	-0.290	-0.130	0.200
2020/01/31 10:22:37.2	301.420	-0.300	-0.130	0.160
2020/01/31 10:22:37.3	301.430	-0.310	-0.140	0.120
2020/01/31 10:22:37.4	301.430	-0.320	-0.150	0.070
2020/01/31 10:22:37.5	301.430	-0.320	-0.160	0.030
2020/01/31 10:22:37.6	301.440	-0.330	-0.160	-0.010
2020/01/31 10:22:37.7	301.450	-0.330	-0.170	-0.050
2020/01/31 10:22:37.8	301.460	-0.340	-0.180	-0.080
2020/01/31 10:22:37.9	301.460	-0.340	-0.190	-0.120
2020/01/31 10:22:38.0	301.470	-0.340	-0.190	-0.160
2020/01/31 10:22:38.1	301.480	-0.350	-0.200	-0.190
2020/01/31 10:22:38.2	301.490	-0.350	-0.200	-0.220
2020/01/31 10:22:38.3	301.500	-0.350	-0.210	-0.250
2020/01/31 10:22:38.4	301.500	-0.350	-0.210	-0.280
2020/01/31 10:22:38.5	301.510	-0.340	-0.210	-0.300
2020/01/31 10:22:38.6	301.510	-0.340	-0.210	-0.320
2020/01/31 10:22:38.7	301.520	-0.340	-0.200	-0.340
2020/01/31 10:22:38.8	301.520	-0.330	-0.200	-0.360
2020/01/31 10:22:38.9	301.520	-0.330	-0.190	-0.370
2020/01/31 10:22:39.0	301.530	-0.320	-0.180	-0.380
2020/01/31 10:22:39.1	301.530	-0.320	-0.180	-0.390
2020/01/31 10:22:39.2	301.530	-0.310	-0.170	-0.390
2020/01/31 10:22:39.3	301.520	-0.300	-0.150	-0.390
2020/01/31 10:22:39.4	301.520	-0.290	-0.140	-0.380
2020/01/31 10:22:39.5	301.520	-0.290	-0.130	-0.380
2020/01/31 10:22:39.6	301.520	-0.280	-0.120	-0.370
2020/01/31 10:22:39.7	301.510	-0.270	-0.100	-0.360
2020/01/31 10:22:39.8	301.510	-0.260	-0.090	-0.350
2020/01/31 10:22:39.9	301.500	-0.250	-0.080	-0.330
2020/01/31 10:22:40.0	301.500	-0.240	-0.070	-0.310
2020/01/31 10:22:40.1	301.490	-0.240	-0.060	-0.300
2020/01/31 10:22:40.2	301.480	-0.230	-0.050	-0.280
2020/01/31 10:22:40.3	301.480	-0.220	-0.040	-0.250
2020/01/31 10:22:40.4	301.480	-0.210	-0.030	-0.230
2020/01/31 10:22:40.5	301.470	-0.200	-0.030	-0.210
2020/01/31 10:22:40.6	301.460	-0.190	-0.020	-0.190
2020/01/31 10:22:40.7	301.460	-0.180	-0.020	-0.170
2020/01/31 10:22:40.8	301.450	-0.170	-0.020	-0.140
2020/01/31 10:22:40.9	301.440	-0.160	-0.020	-0.120
2020/01/31 10:22:41.0	301.430	-0.150	-0.020	-0.090
2020/01/31 10:22:41.1	301.430	-0.140	-0.030	-0.070
2020/01/31 10:22:41.2	301.420	-0.130	-0.030	-0.040
2020/01/31 10:22:41.3	301.420	-0.120	-0.040	-0.020
2020/01/31 10:22:41.4	301.400	-0.110	-0.050	0.000
2020/01/31 10:22:41.5	301.400	-0.100	-0.060	0.030
2020/01/31 10:22:41.6	301.390	-0.090	-0.070	0.050
2020/01/31 10:22:41.7	301.390	-0.080	-0.080	0.080
2020/01/31 10:22:41.8	301.380	-0.060	-0.090	0.100
2020/01/31 10:22:41.9	301.370	-0.050	-0.100	0.130
2020/01/31 10:22:42.0	301.370	-0.040	-0.110	0.160
2020/01/31 10:22:42.1	301.360	-0.030	-0.120	0.180
2020/01/31 10:22:42.2	301.350	-0.010	-0.130	0.210
2020/01/31 10:22:42.3	301.340	-0.000	-0.150	0.230
2020/01/31 10:22:42.4	301.340	0.010	-0.150	0.260
2020/01/31 10:22:42.5	301.330	0.030	-0.160	0.280
2020/01/31 10:22:42.6	301.330	0.040	-0.170	0.310
2020/01/31 10:22:42.7	301.320	0.050	-0.180	0.330
2020/01/31 10:22:42.8	301.310	0.060	-0.190	0.360
2020/01/31 10:22:42.9	301.310	0.080	-0.190	0.380
2020/01/31 10:22:43.0	301.300	0.090	-0.200	0.410
2020/01/31 10:22:43.1	301.290	0.100	-0.200	0.430
2020/01/31 10:22:43.2	301.290	0.110	-0.210	0.450
2020/01/31 10:22:43.3	301.280	0.130	-0.210	0.480
2020/01/31 10:22:43.4	301.270	0.140	-0.220	0.500
2020/01/31 10:22:43.5	301.270	0.150	-0.220	0.520
2020/01/31 10:22:43.6	301.260	0.160	-0.230	0.540
2020/01/31 10:22:43.7	301.260	0.170	-0.230	0.560
2020/01/31 10:22:43.8	301.260	0.180	-0.240	0.570
2020/01/31 10:22:43.9	301.260	0.190	-0.240	0.590
2020/01/31 10:22:44.0	301.250	0.200	-0.250	0.600
2020/01/31 10:22:44.1	301.250	0.210	-0.260	0.610
2020/01/31 10:22:44.2	301.250	0.220	-0.260	0.620
2020/01/31 10:22:44.3	301.250	0.230	-0.270	0.630
2020/01/31 10:22:44.4	301.260	0.230	-0.280	0.630
2020/01/31 10:22:44.5	301.260	0.240	-0.290	0.630
2020/01/31 10:22:44.6	301.270	0.250	-0.300	0.630
2020/01/31 10:22:44.7	301.270	0.250	-0.320	0.630
2020/01/31 10:22:44.8	301.280	0.260	-0.330	0.620
2020/01/31 10:22:44.9	301.280	0.270	-0.340	0.610
2020/01/31 10:22:45.0	301.290	0.270	-0.350	0.600
2020/01/31 10:22:45.1	301.300	0.270	-0.360	0.590
2020/01/31 10:22:45.2	301.300	0.280	-0.380	0.570
2020/01/31 10:22:45.3	301.310	0.280	-0.390	0.560
2020/01/31 10:22:45.4	301.320	0.280	-0.400	0.540
2020/01/31 10:22:45.5	301.330	0.290	-0.410	0.520
2020/01/31 10:22:45.6	301.340	0.290	-0.420	0.500
2020/01/31 10:22:45.7	301.350	0.290	-0.430	0.480
2020/01/31 10:22:45.8	301.370	0.290	-0.440	0.460
2020/01/31 10:22:45.9	301.380	0.290	-0.440	0.430
2020/01/31 10:22:46.0	301.400	0.280	-0.450	0.410
2020/01/31 10:22:46.1	301.420	0.280	-0.460	0.380
2020/01/31 10:22:46.2	301.440	0.280	-0.460	0.360
2020/01/31 10:22:46.3	301.460	0.270	-0.460	0.330
2020/01/31 10:22:46.4	301.470	0.270	-0.460	0.300
2020/01/31 10:22:46.5	301.490	0.260	-0.460	0.270
2020/01/31 10:22:46.6	301.510	0.250	-0.460	0.240
2020/01/31 10:22:46.7	301.530	0.240	-0.450	0.210
2020/01/31 10:22:46.8	301.550	0.230	-0.450	0.180
2020/01/31 10:22:46.9	301.570	0.220	-0.440	0.150
2020/01/31 10:22:47.0	301.590	0.210	-0.430	0.120
2020/01/31 10:22:47.1	301.610	0.200	-0.420	0.090
2020/01/31 10:22:47.2	301.630	0.180	-0.410	0.060
2020/01/31 10:22:47.3	301.650	0.170	-0.400	0.020
2020/01/31 10:22:47.4	301.660	0.150	-0.390	-0.010
2020/01/31 10:22:47.5	301.680	0.140	-0.380	-0.040
2020/01/31 10:22:47.6	301.700	0.120	-0.370	-0.070
2020/01/31 10:22:47.7	301.720	0.110	-0.350	-0.110
2020/01/31 10:22:47.8	301.740	0.090	-0.340	-0.140
2020/01/31 10:22:47.9	301.760	0.070	-0.320	-0.170
2020/01/31 10:22:48.0	301.770	0.060	-0.310	-0.200
2020/01/31 10:22:48.1	301.790	0.040	-0.290	-0.230
2020/01/31 10:22:48.2	301.810	0.020	-0.280	-0.260
2020/01/31 10:22:48.3	301.820	0.010	-0.260	-0.290
2020/01/31 10:22:48.4	301.830	-0.010	-0.250	-0.320
2020/01/31 10:22:48.5	301.850	-0.020	-0.230	-0.340
2020/01/31 10:22:48.6	301.850	-0.040	-0.220	-0.360
2020/01/31 10:22:48.7	301.860	-0.050	-0.200	-0.370
2020/01/31 10:22:48.8	301.870	-0.060	-0.190	-0.390
2020/01/31 10:22:48.9	301.870	-0.080	-0.170	-0.400
2020/01/31 10:22:49.0	301.870	-0.090	-0.160	-0.410
2020/01/31 10:22:49.1	301.870	-0.100	-0.140	-0.410
2020/01/31 10:22:49.2	301.870	-0.110	-0.130	-0.410
2020/01/31 10:22:49.3	301.860	-0.120	-0.120	-0.410
2020/01/31 10:22:49.4	301.850	-0.120	-0.110	-0.400
2020/01/31 10:22:49.5	301.840	-0.130	-0.100	-0.390
2020/01/31 10:22:49.6	301.830	-0.140	-0.090	-0.380
2020/01/31 10:22:49.7	301.810	-0.140	-0.080	-0.370
2020/01/31 10:22:49.8	301.800	-0.140	-0.070	-0.350
2020/01/31 10:22:49.9	301.780	-0.150	-0.070	-0.330
2020/01/31 10:22:50.0	301.760	-0.150	-0.060	-0.310
2020/01/31 10:22:50.1	301.730	-0.150	-0.060	-0.280
2020/01/31 10:22:50.2	301.710	-0.150	-0.060	-0.250
2020/01/31 10:22:50.3	301.680	-0.150	-0.060	-0.220
2020/01/31 10:22:50.4	301.670	-0.150	-0.070	-0.190
2020/01/31 10:22:50.5	301.640	-0.140	-0.070	-0.160
2020/01/31 10:22:50.6	301.610	-0.140	-0.080	-0.120
2020/01/31 10:22:50.7	301.580	-0.140	-0.080	-0.090
2020/01/31 10:22:50.8	301.550	-0.140	-0.090	-0.050
2020/01/31 10:22:50.9	301.510	-0.130	-0.090	-0.010
2020/01/31 10:22:51.0	301.480	-0.130	-0.100	0.030
2020/01/31 10:22:51.1	301.440	-0.130	-0.110	0.070
2020/01/31 10:22:51.2	301.400	-0.120	-0.110	0.110
2020/01/31 10:22:51.3	301.370	-0.120	-0.120	0.160
2020/01/31 10:22:51.4	301.340	-0.120	-0.120	0.200
2020/01/31 10:22:51.5	301.300	-0.110	-0.120	0.250
2020/01/31 10:22:51.6	301.260	-0.110	-0.120	0.290
2020/01/31 10:22:51.7	301.220	-0.110	-0.130	0.340
2020/01/31 10:22:51.8	301.180	-0.110	-0.130	0.390
2020/01/31 10:22:51.9	301.140	-0.110	-0.130	0.440
2020/01/31 10:22:52.0	301.090	-0.110	-0.130	0.480
2020/01/31 10:22:52.1	301.050	-0.110	-0.120	0.530
2020/01/31 10:22:52.2	301.010	-0.110	-0.120	0.580
2020/01/31 10:22:52.3	300.970	-0.110	-0.120	0.620
2020/01/31 10:22:52.4	300.940	-0.120	-0.120	0.660
2020/01/31 10:22:52.5	300.900	-0.120	-0.120	0.700
2020/01/31 10:22:52.6	300.870	-0.120	-0.120	0.740
2020/01/31 10:22:52.7	300.830	-0.130	-0.120	0.770
2020/01/31 10:22:52.8	300.800	-0.130	-0.120	0.810
2020/01/31 10:22:52.9	300.780	-0.130	-0.120	0.830
2020/01/31 10:22:53.0	300.750	-0.140	-0.120	0.860
2020/01/31 10:22:53.1	300.730	-0.140	-0.120	0.880
2020/01/31 10:22:53.2	300.710	-0.150	-0.130	0.900
2020/01/31 10:22:53.3	300.690	-0.150	-0.130	0.910
2020/01/31 10:22:53.4	300.680	-0.150	-0.140	0.920
2020/01/31 10:22:53.5	300.670	-0.160	-0.150	0.920
2020/01/31 10:22:53.6	300.660	-0.160	-0.160	0.920
2020/01/31 10:22:53.7	300.660	-0.160	-0.180	0.910
2020/01/31 10:22:53.8	300.660	-0.160	-0.190	0.900
2020/01/31 10:22:53.9	300.660	-0.160	-0.210	0.890
2020/01/31 10:22:54.0	300.660	-0.160	-0.230	0.880
2020/01/31 10:22:54.1	300.670	-0.160	-0.240	0.860
2020/01/31 10:22:54.2	300.680	-0.160	-0.270	0.840
2020/01/31 10:22:54.3	300.690	-0.160	-0.290	0.810
2020/01/31 10:22:54.4	300.710	-0.150	-0.310	0.790
2020/01/31 10:22:54.5	300.730	-0.150	-0.330	0.760
2020/01/31 10:22:54.6	300.740	-0.140	-0.360	0.730
2020/01/31 10:22:54.7	300.760	-0.140	-0.380	0.700
2020/01/31 10:22:54.8	300.790	-0.130	-0.400	0.660
2020/01/31 10:22:54.9	300.810	-0.130	-0.420	0.630
2020/01/31 10:22:55.0	300.830	-0.120	-0.440	0.590
2020/01/31 10:22:55.1	300.860	-0.110	-0.460	0.550
2020/01/31 10:22:55.2	300.890	-0.100	-0.480	0.510
2020/01/31 10:22:55.3	300.920	-0.100	-0.500	0.470
2020/01/31 10:22:55.4	300.950	-0.090	-0.520	0.430
2020/01/31 10:22:55.5	300.980	-0.080	-0.540	0.390
2020/01/31 10:22:55.6	301.020	-0.070	-0.550	0.350
2020/01/31 10:22:55.7	301.050	-0.060	-0.560	0.310
2020/01/31 10:22:55.8	301.090	-0.050	-0.570	0.270
2020/01/31 10:22:55.9	301.130	-0.040	-0.580	0.230
2020/01/31 10:22:56.0	301.170	-0.030	-0.580	0.190
2020/01/31 10:22:56.1	301.200	-0.020	-0.580	0.150
2020/01/31 10:22:56.2	301.240	-0.010	-0.580	0.110
2020/01/31 10:22:56.3	301.280	-0.000	-0.580	0.080
2020/01/31 10:22:56.4	301.310	0.000	-0.570	0.040
2020/01/31 10:22:56.5	301.340	0.010	-0.560	0.010
2020/01/31 10:22:56.6	301.380	0.020	-0.550	-0.020
2020/01/31 10:22:56.7	301.410	0.030	-0.530	-0.040
2020/01/31 10:22:56.8	301.450	0.040	-0.510	-0.060
2020/01/31 10:22:56.9	301.480	0.050	-0.490	-0.090
2020/01/31 10:22:57.0	301.510	0.050	-0.460	-0.100
2020/01/31 10:22:57.1	301.540	0.060	-0.440	-0.120
2020/01/31 10:22:57.2	301.570	0.070	-0.410	-0.130
2020/01/31 10:22:57.3	301.600	0.070	-0.380	-0.140
2020/01/31 10:22:57.4	301.630	0.080	-0.350	-0.150
2020/01/31 10:22:57.5	301.650	0.080	-0.310	-0.150
2020/01/31 10:22:57.6	301.670	0.090	-0.280	-0.160
2020/01/31 10:22:57.7	301.690	0.090	-0.250	-0.150
2020/01/31 10:22:57.8	301.710	0.090	-0.210	-0.150
2020/01/31 10:22:57.9	301.730	0.090	-0.180	-0.140
2020/01/31 10:22:58.0	301.750	0.100	-0.140	-0.140
2020/01/31 10:22:58.1	301.760	0.100	-0.110	-0.130
2020/01/31 10:22:58.2	301.770	0.100	-0.080	-0.120
2020/01/31 10:22:58.3	301.780	0.100	-0.050	-0.100
2020/01/31 10:22:58.4	301.800	0.100	-0.020	-0.090
2020/01/31 10:22:58.5	301.810	0.100	0.000	-0.080
2020/01/31 10:22:58.6	301.810	0.100	0.030	-0.060
2020/01/31 10:22:58.7	301.820	0.090	0.050	-0.050
2020/01/31 10:22:58.8	301.820	0.090	0.060	-0.030
2020/01/31 10:22:58.9	301.820	0.090	0.080	-0.020
2020/01/31 10:22:59.0	301.810	0.090	0.090	-0.000
2020/01/31 10:22:59.1	301.810	0.080	0.100	0.010
2020/01/31 10:22:59.2	301.810	0.080	0.100	0.030
2020/01/31 10:22:59.3	301.800	0.080	0.100	0.050
2020/01/31 10:22:59.4	301.780	0.080	0.100	0.060
2020/01/31 10:22:59.5	301.770	0.070	0.090	0.070
2020/01/31 10:22:59.6	301.760	0.070	0.080	0.090
2020/01/31 10:22:59.7	301.750	0.070	0.070	0.110
2020/01/31 10:22:59.8	301.740	0.070	0.050	0.120
2020/01/31 10:22:59.9	301.730	0.070	0.040	0.140
2020/01/31 10:23:00.0	301.710	0.070	0.010	0.160
2020/01/31 10:23:00.1	301.700	0.070	-0.010	0.170
2020/01/31 10:23:00.2	301.680	0.070	-0.040	0.190
2020/01/31 10:23:00.3	301.670	0.080	-0.070	0.210
2020/01/31 10:23:00.4	301.640	0.080	-0.100	0.220
2020/01/31 10:23:00.5	301.630	0.080	-0.140	0.240
2020/01/31 10:23:00.6	301.610	0.090	-0.170	0.250
2020/01/31 10:23:00.7	301.600	0.090	-0.210	0.270
2020/01/31 10:23:00.8	301.580	0.100	-0.240	0.280
2020/01/31 10:23:00.9	301.570	0.110	-0.280	0.300
2020/01/31 10:23:01.0	301.550	0.110	-0.320	0.310
2020/01/31 10:23:01.1	301.540	0.120	-0.350	0.320
2020/01/31 10:23:01.2	301.530	0.130	-0.380	0.330
2020/01/31 10:23:01.3	301.510	0.140	-0.420	0.350
2020/01/31 10:23:01.4	301.480	0.140	-0.440	0.360
2020/01/31 10:23:01.5	301.470	0.150	-0.470	0.370
2020/01/31 10:23:01.6	301.450	0.160	-0.500	0.380
2020/01/31 10:23:01.7	301.440	0.160	-0.520	0.390
2020/01/31 10:23:01.8	301.420	0.170	-0.530	0.400
2020/01/31 10:23:01.9	301.410	0.170	-0.550	0.410
2020/01/31 10:23:02.0	301.400	0.180	-0.550	0.420
2020/01/31 10:23:02.1	301.380	0.180	-0.560	0.430
2020/01/31 10:23:02.2	301.370	0.180	-0.560	0.430
2020/01/31 10:23:02.3	301.350	0.180	-0.550	0.440
2020/01/31 10:23:02.4	301.350	0.170	-0.540	0.450
2020/01/31 10:23:02.5	301.330	0.170	-0.530	0.460
2020/01/31 10:23:02.6	301.320	0.160	-0.510	0.460
2020/01/31 10:23:02.7	301.310	0.150	-0.490	0.470
2020/01/31 10:23:02.8	301.290	0.140	-0.470	0.480
2020/01/31 10:23:02.9	301.280	0.130	-0.440	0.480
2020/01/31 10:23:03.0	301.260	0.120	-0.410	0.480
2020/01/31 10:23:03.1	301.250	0.110	-0.380	0.480
2020/01/31 10:23:03.2	301.240	0.090	-0.340	0.490
2020/01/31 10:23:03.3	301.230	0.070	-0.300	0.490
2020/01/31 10:23:03.4	301.220	0.050	-0.270	0.490
2020/01/31 10:23:03.5	301.200	0.040	-0.230	0.490
2020/01/31 10:23:03.6	301.190	0.020	-0.190	0.480
2020/01/31 10:23:03.7	301.180	-0.000	-0.150	0.480
2020/01/31 10:23:03.8	301.160	-0.020	-0.110	0.480
2020/01/31 10:23:03.9	301.150	-0.050	-0.070	0.470
2020/01/31 10:23:04.0	301.130	-0.070	-0.030	0.470
2020/01/31 10:23:04.1	301.120	-0.090	0.010	0.460
2020/01/31 10:23:04.2	301.110	-0.110	0.040	0.460
2020/01/31 10:23:04.3	301.090	-0.130	0.080	0.450
2020/01/31 10:23:04.4	301.080	-0.140	0.100	0.440
2020/01/31 10:23:04.5	301.070	-0.160	0.130	0.430
2020/01/31 10:23:04.6	301.050	-0.180	0.150	0.420
2020/01/31 10:23:04.7	301.040	-0.190	0.170	0.410
2020/01/31 10:23:04.8	301.030	-0.210	0.190	0.400
2020/01/31 10:23:04.9	301.020	-0.220	0.200	0.380
2020/01/31 10:23:05.0	301.010	-0.230	0.210	0.370
2020/01/31 10:23:05.1	301.000	-0.240	0.220	0.360
2020/01/31 10:23:05.2	300.990	-0.240	0.220	0.340
2020/01/31 10:23:05.3	300.980	-0.250	0.210	0.320
2020/01/31 10:23:05.4	300.970	-0.250	0.200	0.310
2020/01/31 10:23:05.5	300.960	-0.250	0.190	0.290
2020/01/31 10:23:05.6	300.950	-0.250	0.170	0.270
2020/01/31 10:23:05.7	300.940	-0.250	0.150	0.260
2020/01/31 10:23:05.8	300.930	-0.240	0.130	0.240
2020/01/31 10:23:05.9	300.930	-0.230	0.100	0.220
2020/01/31 10:23:06.0	300.920	-0.220	0.070	0.210
2020/01/31 10:23:06.1	300.910	-0.210	0.040	0.190
2020/01/31 10:23:06.2	300.900	-0.200	0.000	0.170
2020/01/31 10:23:06.3	300.890	-0.180	-0.040	0.160
2020/01/31 10:23:06.4	300.890	-0.170	-0.080	0.140
2020/01/31 10:23:06.5	300.890	-0.150	-0.120	0.120
2020/01/31 10:23:06.6	300.880	-0.130	-0.160	0.110
2020/01/31 10:23:06.7	300.880	-0.100	-0.210	0.090
2020/01/31 10:23:06.8	300.870	-0.080	-0.250	0.070
2020/01/31 10:23:06.9	300.870	-0.060	-0.300	0.060
2020/01/31 10:23:07.0	300.860	-0.030	-0.340	0.040
2020/01/31 10:23:07.1	300.860	-0.010	-0.390	0.030
2020/01/31 10:23:07.2	300.860	0.020	-0.430	0.010
2020/01/31 10:23:07.3	300.860	0.040	-0.470	-0.000
2020/01/31 10:23:07.4	300.870	0.060	-0.510	-0.020
2020/01/31 10:23:07.5	300.870	0.090	-0.550	-0.030
2020/01/31 10:23:07.6	300.870	0.110	-0.590	-0.050
2020/01/31 10:23:07.7	300.880	0.130	-0.620	-0.060
2020/01/31 10:23:07.8	300.880	0.150	-0.650	-0.080
2020/01/31 10:23:07.9	300.890	0.170	-0.680	-0.100
2020/01/31 10:23:08.0	300.900	0.190	-0.710	-0.120
2020/01/31 10:23:08.1	300.900	0.200	-0.730	-0.130
2020/01/31 10:23:08.2	300.910	0.220	-0.740	-0.150
2020/01/31 10:23:08.3	300.930	0.230	-0.760	-0.170
2020/01/31 10:23:08.4	300.940	0.230	-0.770	-0.200
2020/01/31 10:23:08.5	300.960	0.240	-0.780	-0.220
2020/01/31 10:23:08.6	300.970	0.240	-0.780	-0.240
2020/01/31 10:23:08.7	300.990	0.240	-0.780	-0.270
2020/01/31 10:23:08.8	301.010	0.240	-0.770	-0.290
2020/01/31 10:23:08.9	301.030	0.230	-0.760	-0.320
2020/01/31 10:23:09.0	301.050	0.220	-0.750	-0.350
2020/01/31 10:23:09.1	301.080	0.210	-0.730	-0.380
2020/01/31 10:23:09.2	301.100	0.190	-0.710	-0.410
2020/01/31 10:23:09.3	301.130	0.170	-0.680	-0.440
2020/01/31 10:23:09.4	301.160	0.150	-0.650	-0.460
2020/01/31 10:23:09.5	301.190	0.130	-0.620	-0.490
2020/01/31 10:23:09.6	301.220	0.110	-0.580	-0.520
2020/01/31 10:23:09.7	301.250	0.080	-0.540	-0.550
2020/01/31 10:23:09.8	301.280	0.050	-0.500	-0.570
2020/01/31 10:23:09.9	301.310	0.020	-0.450	-0.600
2020/01/31 10:23:10.0	301.330	-0.010	-0.400	-0.620
2020/01/31 10:23:10.1	301.360	-0.050	-0.350	-0.640
2020/01/31 10:23:10.2	301.390	-0.080	-0.300	-0.660
2020/01/31 10:23:10.3	301.410	-0.120	-0.250	-0.670
2020/01/31 10:23:10.4	301.440	-0.150	-0.190	-0.680
2020/01/31 10:23:10.5	301.460	-0.190	-0.140	-0.690
2020/01/31 10:23:10.6	301.480	-0.220	-0.080	-0.700
2020/01/31 10:23:10.7	301.500	-0.260	-0.030	-0.700
2020/01/31 10:23:10.8	301.520	-0.290	0.030	-0.690
2020/01/31 10:23:10.9	301.540	-0.320	0.080	-0.690
2020/01/31 10:23:11.0	301.560	-0.350	0.130	-0.680
2020/01/31 10:23:11.1	301.570	-0.380	0.170	-0.660
2020/01/31 10:23:11.2	301.580	-0.400	0.220	-0.640
2020/01/31 10:23:11.3	301.590	-0.430	0.260	-0.620
2020/01/31 10:23:11.4	301.610	-0.440	0.290	-0.600
2020/01/31 10:23:11.5	301.610	-0.460	0.320	-0.570
2020/01/31 10:23:11.6	301.620	-0.480	0.350	-0.530
2020/01/31 10:23:11.7	301.630	-0.490	0.370	-0.490
2020/01/31 10:23:11.8	301.630	-0.490	0.390	-0.450
2020/01/31 10:23:11.9	301.630	-0.500	0.390	-0.400
2020/01/31 10:23:12.0	301.630	-0.500	0.400	-0.360
2020/01/31 10:23:12.1	301.630	-0.490	0.400	-0.300
2020/01/31 10:23:12.2	301.620	-0.490	0.390	-0.250
2020/01/31 10:23:12.3	301.620	-0.480	0.380	-0.190
2020/01/31 10:23:12.4	301.610	-0.460	0.360	-0.140
2020/01/31 10:23:12.5	301.600	-0.450	0.330	-0.080
2020/01/31 10:23:12.6	301.590	-0.430	0.300	-0.020
2020/01/31 10:23:12.7	301.580	-0.400	0.270	0.050
2020/01/31 10:23:12.8	301.560	-0.380	0.230	0.110
2020/01/31 10:23:12.9	301.550	-0.350	0.190	0.180
2020/01/31 10:23:13.0	301.530	-0.320	0.140	0.240
2020/01/31 10:23:13.1	301.510	-0.290	0.090	0.300
2020/01/31 10:23:13.2	301.490	-0.260	0.040	0.370
2020/01/31 10:23:13.3	301.470	-0.220	-0.010	0.430
2020/01/31 10:23:13.4	301.450	-0.180	-0.070	0.490
2020/01/31 10:23:13.5	301.430	-0.150	-0.120	0.550
2020/01/31 10:23:13.6	301.410	-0.110	-0.180	0.610
2020/01/31 10:23:13.7	301.390	-0.070	-0.240	0.660
2020/01/31 10:23:13.8	301.370	-0.030	-0.300	0.710
2020/01/31 10:23:13.9	301.340	0.010	-0.350	0.760
2020/01/31 10:23:14.0	301.320	0.050	-0.410	0.810
2020/01/31 10:23:14.1	301.300	0.080	-0.460	0.850
2020/01/31 10:23:14.2	301.280	0.120	-0.510	0.890
2020/01/31 10:23:14.3	301.260	0.160	-0.560	0.930
2020/01/31 10:23:14.4	301.230	0.190	-0.610	0.960
2020/01/31 10:23:14.5	301.210	0.220	-0.650	0.990
2020/01/31 10:23:14.6	301.200	0.260	-0.690	1.010
2020/01/31 10:23:14.7	301.180	0.280	-0.730	1.030
2020/01/31 10:23:14.8	301.170	0.310	-0.770	1.050
2020/01/31 10:23:14.9	301.160	0.330	-0.800	1.060
2020/01/31 10:23:15.0	301.140	0.360	-0.820	1.070
2020/01/31 10:23:15.1	301.130	0.370	-0.840	1.080
2020/01/31 10:23:15.2	301.120	0.390	-0.860	1.080
2020/01/31 10:23:15.3	301.110	0.400	-0.870	1.080
2020/01/31 10:23:15.4	301.110	0.410	-0.880	1.080
2020/01/31 10:23:15.5	301.100	0.420	-0.880	1.080
2020/01/31 10:23:15.6	301.100	0.430	-0.880	1.070
2020/01/31 10:23:15.7	301.090	0.430	-0.870	1.060
2020/01/31 10:23:15.8	301.090	0.420	-0.870	1.040
2020/01/31 10:23:15.9	301.090	0.420	-0.850	1.030
2020/01/31 10:23:16.0	301.090	0.410	-0.840	1.010
2020/01/31 10:23:16.1	301.080	0.400	-0.820	0.990
2020/01/31 10:23:16.2	301.080	0.390	-0.790	0.960
2020/01/31 10:23:16.3	301.090	0.380	-0.770	0.940
2020/01/31 10:23:16.4	301.100	0.360	-0.740	0.910
2020/01/31 10:23:16.5	301.100	0.340	-0.710	0.880
2020/01/31 10:23:16.6	301.100	0.320	-0.670	0.850
2020/01/31 10:23:16.7	301.110	0.300	-0.640	0.820
2020/01/31 10:23:16.8	301.110	0.280	-0.600	0.780
2020/01/31 10:23:16.9	301.120	0.250	-0.560	0.750
2020/01/31 10:23:17.0	301.120	0.230	-0.510	0.710
2020/01/31 10:23:17.1	301.130	0.200	-0.470	0.670
2020/01/31 10:23:17.2	301.130	0.180	-0.430	0.640
2020/01/31 10:23:17.3	301.140	0.150	-0.380	0.600
2020/01/31 10:23:17.4	301.140	0.130	-0.340	0.560
2020/01/31 10:23:17.5	301.150	0.100	-0.290	0.520
2020/01/31 10:23:17.6	301.150	0.070	-0.240	0.480
2020/01/31 10:23:17.7	301.160	0.050	-0.200	0.450
2020/01/31 10:23:17.8	301.160	0.020	-0.150	0.410
2020/01/31 10:23:17.9	301.170	0.000	-0.100	0.370
2020/01/31 10:23:18.0	301.170	-0.020	-0.060	0.340
2020/01/31 10:23:18.1	301.170	-0.040	-0.020	0.300
2020/01/31 10:23:18.2	301.180	-0.060	0.030	0.270
2020/01/31 10:23:18.3	301.180	-0.080	0.070	0.240
2020/01/31 10:23:18.4	301.170	-0.100	0.100	0.200
2020/01/31 10:23:18.5	301.170	-0.120	0.140	0.170
2020/01/31 10:23:18.6	301.170	-0.140	0.170	0.130
2020/01/31 10:23:18.7	301.180	-0.150	0.210	0.100
2020/01/31 10:23:18.8	301.180	-0.160	0.240	0.080
2020/01/31 10:23:18.9	301.180	-0.170	0.260	0.050
2020/01/31 10:23:19.0	301.180	-0.180	0.290	0.020
2020/01/31 10:23:19.1	301.180	-0.190	0.310	-0.010
2020/01/31 10:23:19.2	301.180	-0.200	0.330	-0.030
2020/01/31 10:23:19.3	301.180	-0.210	0.350	-0.050
2020/01/31 10:23:19.4	301.170	-0.210	0.360	-0.070
2020/01/31 10:23:19.5	301.170	-0.220	0.370	-0.090
2020/01/31 10:23:19.6	301.170	-0.220	0.380	-0.100
2020/01/31 10:23:19.7	301.170	-0.220	0.390	-0.120
2020/01/31 10:23:19.8	301.160	-0.220	0.400	-0.130
2020/01/31 10:23:19.9	301.160	-0.220	0.400	-0.140
2020/01/31 10:23:20.0	301.160	-0.220	0.400	-0.150
2020/01/31 10:23:20.1	301.150	-0.220	0.390	-0.160
2020/01/31 10:23:20.2	301.150	-0.220	0.390	-0.160
2020/01/31 10:23:20.3	301.150	-0.210	0.380	-0.170
2020/01/31 10:23:20.4	301.140	-0.210	0.370	-0.170
2020/01/31 10:23:20.5	301.140	-0.200	0.360	-0.170
2020/01/31 10:23:20.6	301.140	-0.200	0.350	-0.170
2020/01/31 10:23:20.7	301.140	-0.190	0.330	-0.170
2020/01/31 10:23:20.8	301.140	-0.190	0.310	-0.160
2020/01/31 10:23:20.9	301.140	-0.180	0.290	-0.160
2020/01/31 10:23:21.0	301.140	-0.170	0.260	-0.150
2020/01/31 10:23:21.1	301.140	-0.160	0.240	-0.150
2020/01/31 10:23:21.2	301.140	-0.150	0.210	-0.140
2020/01/31 10:23:21.3	301.140	-0.140	0.180	-0.130
2020/01/31 10:23:21.4	301.140	-0.130	0.140	-0.120
2020/01/31 10:23:21.5	301.140	-0.120	0.110	-0.110
2020/01/31 10:23:21.6	301.150	-0.110	0.070	-0.090
2020/01/31 10:23:21.7	301.150	-0.100	0.040	-0.080
2020/01/31 10:23:21.8	301.160	-0.080	-0.000	-0.070
2020/01/31 10:23:21.9	301.160	-0.070	-0.040	-0.050
2020/01/31 10:23:22.0	301.170	-0.060	-0.080	-0.030
2020/01/31 10:23:22.1	301.180	-0.040	-0.120	-0.020
2020/01/31 10:23:22.2	301.190	-0.030	-0.170	-0.000
2020/01/31 10:23:22.3	301.190	-0.010	-0.210	0.020
2020/01/31 10:23:22.4	301.210	0.000	-0.250	0.030
2020/01/31 10:23:22.5	301.220	0.020	-0.290	0.050
2020/01/31 10:23:22.6	301.240	0.030	-0.340	0.060
2020/01/31 10:23:22.7	301.250	0.050	-0.380	0.080
2020/01/31 10:23:22.8	301.260	0.060	-0.420	0.100
2020/01/31 10:23:22.9	301.280	0.080	-0.460	0.110
2020/01/31 10:23:23.0	301.290	0.090	-0.500	0.120
2020/01/31 10:23:23.1	301.310	0.110	-0.540	0.140
2020/01/31 10:23:23.2	301.320	0.120	-0.570	0.150
2020/01/31 10:23:23.3	301.340	0.140	-0.610	0.160
2020/01/31 10:23:23.4	301.350	0.150	-0.640	0.170
2020/01/31 10:23:23.5	301.370	0.170	-0.670	0.180
2020/01/31 10:23:23.6	301.390	0.180	-0.700	0.190
2020/01/31 10:23:23.7	301.400	0.190	-0.730	0.190
2020/01/31 10:23:23.8	301.420	0.200	-0.760	0.200
2020/01/31 10:23:23.9	301.440	0.210	-0.780	0.210
2020/01/31 10:23:24.0	301.460	0.220	-0.800	0.220
2020/01/31 10:23:24.1	301.470	0.230	-0.810	0.230
2020/01/31 10:23:24.2	301.490	0.240	-0.830	0.240
2020/01/31 10:23:24.3	301.500	0.240	-0.830	0.240
2020/01/31 10:23:24.4	301.520	0.250	-0.840	0.250
2020/01/31 10:23:24.5	301.530	0.250	-0.840	0.260
2020/01/31 10:23:24.6	301.550	0.250	-0.840	0.270
2020/01/31 10:23:24.7	301.560	0.250	-0.840	0.280
2020/01/31 10:23:24.8	301.570	0.250	-0.830	0.290
2020/01/31 10:23:24.9	301.580	0.250	-0.820	0.300
2020/01/31 10:23:25.0	301.590	0.250	-0.810	0.310
2020/01/31 10:23:25.1	301.600	0.250	-0.800	0.330
2020/01/31 10:23:25.2	301.610	0.240	-0.780	0.340
2020/01/31 10:23:25.3	301.620	0.230	-0.760	0.350
2020/01/31 10:23:25.4	301.630	0.230	-0.740	0.360
2020/01/31 10:23:25.5	301.640	0.220	-0.720	0.370
2020/01/31 10:23:25.6	301.640	0.210	-0.690	0.390
2020/01/31 10:23:25.7	301.640	0.200	-0.660	0.400
2020/01/31 10:23:25.8	301.640	0.190	-0.630	0.410
2020/01/31 10:23:25.9	301.640	0.170	-0.600	0.430
2020/01/31 10:23:26.0	301.640	0.160	-0.570	0.440
2020/01/31 10:23:26.1	301.640	0.150	-0.530	0.460
2020/01/31 10:23:26.2	301.630	0.130	-0.500	0.470
2020/01/31 10:23:26.3	301.630	0.120	-0.460	0.480
2020/01/31 10:23:26.4	301.620	0.110	-0.430	0.500
2020/01/31 10:23:26.5	301.610	0.090	-0.390	0.510
2020/01/31 10:23:26.6	301.600	0.080	-0.360	0.530
2020/01/31 10:23:26.7	301.590	0.060	-0.320	0.540
2020/01/31 10:23:26.8	301.580	0.050	-0.290	0.560
2020/01/31 10:23:26.9	301.560	0.040	-0.260	0.570
2020/01/31 10:23:27.0	301.550	0.030	-0.230	0.580
2020/01/31 10:23:27.1	301.530	0.010	-0.200	0.590
2020/01/31 10:23:27.2	301.520	0.000	-0.170	0.600
2020/01/31 10:23:27.3	301.500	-0.010	-0.140	0.600
2020/01/31 10:23:27.4	301.470	-0.020	-0.120	0.610
2020/01/31 10:23:27.5	301.450	-0.030	-0.100	0.610
2020/01/31 10:23:27.6	301.430	-0.040	-0.080	0.610
2020/01/31 10:23:27.7	301.420	-0.050	-0.070	0.610
2020/01/31 10:23:27.8	301.400	-0.050	-0.050	0.600
2020/01/31 10:23:27.9	301.380	-0.060	-0.040	0.590
2020/01/31 10:23:28.0	301.370	-0.070	-0.030	0.580
2020/01/31 10:23:28.1	301.350	-0.070	-0.030	0.570
2020/01/31 10:23:28.2	301.340	-0.080	-0.020	0.550
2020/01/31 10:23:28.3	301.330	-0.080	-0.020	0.520
2020/01/31 10:23:28.4	301.320	-0.090	-0.020	0.500
2020/01/31 10:23:28.5	301.300	-0.090	-0.020	0.470
2020/01/31 10:23:28.6	301.290	-0.100	-0.030	0.440
2020/01/31 10:23:28.7	301.280	-0.100	-0.030	0.400
2020/01/31 10:23:28.8	301.270	-0.110	-0.040	0.360
2020/01/31 10:23:28.9	301.270	-0.110	-0.050	0.330
2020/01/31 10:23:29.0	301.260	-0.120	-0.060	0.290
2020/01/31 10:23:29.1	301.250	-0.120	-0.070	0.240
2020/01/31 10:23:29.2	301.240	-0.130	-0.080	0.200
2020/01/31 10:23:29.3	301.240	-0.130	-0.090	0.160
2020/01/31 10:23:29.4	301.230	-0.140	-0.100	0.120
2020/01/31 10:23:29.5	301.220	-0.140	-0.100	0.080
2020/01/31 10:23:29.6	301.210	-0.150	-0.110	0.040
2020/01/31 10:23:29.7	301.210	-0.160	-0.120	-0.000
2020/01/31 10:23:29.8	301.200	-0.160	-0.120	-0.040
2020/01/31 10:23:29.9	301.200	-0.170	-0.130	-0.080
2020/01/31 10:23:30.0	301.190	-0.180	-0.130	-0.110
2020/01/31 10:23:30.1	301.180	-0.180	-0.130	-0.150
2020/01/31 10:23:30.2	301.180	-0.190	-0.130	-0.180
2020/01/31 10:23:30.3	301.170	-0.200	-0.120	-0.210
2020/01/31 10:23:30.4	301.160	-0.210	-0.120	-0.240
2020/01/31 10:23:30.5	301.150	-0.220	-0.120	-0.270
2020/01/31 10:23:30.6	301.150	-0.220	-0.110	-0.290
2020/01/31 10:23:30.7	301.140	-0.230	-0.100	-0.320
2020/01/31 10:23:30.8	301.130	-0.240	-0.090	-0.340
2020/01/31 10:23:30.9	301.120	-0.250	-0.070	-0.360
2020/01/31 10:23:31.0	301.110	-0.250	-0.060	-0.370
2020/01/31 10:23:31.1	301.110	-0.260	-0.040	-0.390
2020/01/31 10:23:31.2	301.100	-0.270	-0.030	-0.400
2020/01/31 10:23:31.3	301.090	-0.270	-0.010	-0.410
2020/01/31 10:23:31.4	301.080	-0.280	0.000	-0.420
2020/01/31 10:23:31.5	301.080	-0.280	0.010	-0.430
2020/01/31 10:23:31.6	301.070	-0.290	0.030	-0.430
2020/01/31 10:23:31.7	301.070	-0.290	0.040	-0.440
2020/01/31 10:23:31.8	301.070	-0.290	0.050	-0.440
2020/01/31 10:23:31.9	301.070	-0.290	0.060	-0.440
2020/01/31 10:23:32.0	301.070	-0.290	0.070	-0.440
2020/01/31 10:23:32.1	301.070	-0.290	0.080	-0.440
2020/01/31 10:23:32.2	301.080	-0.290	0.080	-0.440
2020/01/31 10:23:32.3	301.080	-0.280	0.080	-0.440
2020/01/31 10:23:32.4	301.100	-0.280	0.080	-0.440
2020/01/31 10:23:32.5	301.110	-0.270	0.070	-0.430
2020/01/31 10:23:32.6	301.120	-0.260	0.070	-0.430
2020/01/31 10:23:32.7	301.130	-0.250	0.060	-0.420
2020/01/31 10:23:32.8	301.150	-0.230	0.050	-0.420
2020/01/31 10:23:32.9	301.160	-0.220	0.030	-0.410
2020/01/31 10:23:33.0	301.170	-0.200	0.020	-0.400
2020/01/31 10:23:33.1	301.190	-0.180	0.000	-0.390
2020/01/31 10:23:33.2	301.200	-0.160	-0.020	-0.370
2020/01/31 10:23:33.3	301.220	-0.140	-0.040	-0.360
2020/01/31 10:23:33.4	301.240	-0.120	-0.060	-0.340
2020/01/31 10:23:33.5	301.260	-0.090	-0.080	-0.320
2020/01/31 10:23:33.6	301.280	-0.070	-0.110	-0.300
2020/01/31 10:23:33.7	301.290	-0.040	-0.130	-0.280
2020/01/31 10:23:33.8	301.310	-0.020	-0.150	-0.260
2020/01/31 10:23:33.9	301.330	0.010	-0.170	-0.230
2020/01/31 10:23:34.0	301.340	0.040	-0.200	-0.200
2020/01/31 10:23:34.1	301.360	0.070	-0.220	-0.180
2020/01/31 10:23:34.2	301.380	0.100	-0.240	-0.140
2020/01/31 10:23:34.3	301.390	0.120	-0.260	-0.110
2020/01/31 10:23:34.4	301.430	0.150	-0.280	-0.080
2020/01/31 10:23:34.5	301.440	0.180	-0.300	-0.040
2020/01/31 10:23:34.6	301.460	0.200	-0.320	-0.000
2020/01/31 10:23:34.7	301.470	0.230	-0.330	0.040
2020/01/31 10:23:34.8	301.490	0.250	-0.350	0.080
2020/01/31 10:23:34.9	301.500	0.270	-0.360	0.120
2020/01/31 10:23:35.0	301.510	0.300	-0.370	0.160
2020/01/31 10:23:35.1	301.510	0.310	-0.380	0.200
2020/01/31 10:23:35.2	301.520	0.330	-0.380	0.250
2020/01/31 10:23:35.3	301.530	0.350	-0.390	0.290
2020/01/31 10:23:35.4	301.530	0.360	-0.390	0.340
2020/01/31 10:23:35.5	301.530	0.370	-0.390	0.390
2020/01/31 10:23:35.6	301.530	0.380	-0.390	0.440
2020/01/31 10:23:35.7	301.530	0.380	-0.390	0.480
2020/01/31 10:23:35.8	301.530	0.390	-0.390	0.530
2020/01/31 10:23:35.9	301.520	0.390	-0.380	0.580
2020/01/31 10:23:36.0	301.510	0.390	-0.370	0.630
2020/01/31 10:23:36.1	301.500	0.380	-0.360	0.670
2020/01/31 10:23:36.2	301.490	0.380	-0.350	0.720
2020/01/31 10:23:36.3	301.470	0.370	-0.340	0.760
2020/01/31 10:23:36.4	301.450	0.360	-0.330	0.800
2020/01/31 10:23:36.5	301.430	0.350	-0.320	0.830
2020/01/31 10:23:36.6	301.410	0.340	-0.300	0.870
2020/01/31 10:23:36.7	301.400	0.320	-0.290	0.900
2020/01/31 10:23:36.8	301.380	0.300	-0.280	0.930
2020/01/31 10:23:36.9	301.360	0.290	-0.270	0.960
2020/01/31 10:23:37.0	301.340	0.270	-0.260	0.980
2020/01/31 10:23:37.1	301.320	0.250	-0.250	1.000
2020/01/31 10:23:37.2	301.300	0.230	-0.250	1.010
2020/01/31 10:23:37.3	301.280	0.210	-0.240	1.030
2020/01/31 10:23:37.4	301.260	0.180	-0.240	1.030
2020/01/31 10:23:37.5	301.240	0.160	-0.240	1.030
2020/01/31 10:23:37.6	301.220	0.140	-0.240	1.030
2020/01/31 10:23:37.7	301.200	0.120	-0.250	1.030
2020/01/31 10:23:37.8	301.180	0.100	-0.250	1.020
2020/01/31 10:23:37.9	301.160	0.090	-0.260	1.000
2020/01/31 10:23:38.0	301.150	0.070	-0.270	0.990
2020/01/31 10:23:38.1	301.130	0.050	-0.280	0.970
2020/01/31 10:23:38.2	301.110	0.040	-0.290	0.950
2020/01/31 10:23:38.3	301.100	0.020	-0.310	0.920
2020/01/31 10:23:38.4	301.100	0.010	-0.320	0.890
2020/01/31 10:23:38.5	301.080	-0.000	-0.340	0.860
2020/01/31 10:23:38.6	301.070	-0.010	-0.360	0.830
2020/01/31 10:23:38.7	301.060	-0.020	-0.380	0.800
2020/01/31 10:23:38.8	301.050	-0.030	-0.400	0.760
2020/01/31 10:23:38.9	301.030	-0.040	-0.420	0.720
2020/01/31 10:23:39.0	301.020	-0.040	-0.440	0.680
2020/01/31 10:23:39.1	301.010	-0.040	-0.460	0.640
2020/01/31 10:23:39.2	301.000	-0.050	-0.480	0.600
2020/01/31 10:23:39.3	300.990	-0.050	-0.500	0.560
2020/01/31 10:23:39.4	300.980	-0.050	-0.520	0.510
2020/01/31 10:23:39.5	300.980	-0.040	-0.540	0.470
2020/01/31 10:23:39.6	300.970	-0.040	-0.550	0.430
2020/01/31 10:23:39.7	300.960	-0.040	-0.570	0.390
2020/01/31 10:23:39.8	300.950	-0.040	-0.580	0.340
2020/01/31 10:23:39.9	300.940	-0.030	-0.590	0.300
2020/01/31 10:23:40.0	300.940	-0.030	-0.600	0.260
2020/01/31 10:23:40.1	300.930	-0.020	-0.610	0.220
2020/01/31 10:23:40.2	300.920	-0.020	-0.610	0.180
2020/01/31 10:23:40.3	300.920	-0.010	-0.620	0.140
2020/01/31 10:23:40.4	300.910	-0.010	-0.620	0.100
2020/01/31 10:23:40.5	300.910	-0.000	-0.620	0.060
2020/01/31 10:23:40.6	300.910	0.000	-0.620	0.020
2020/01/31 10:23:40.7	300.910	0.000	-0.610	-0.010
2020/01/31 10:23:40.8	300.900	0.010	-0.610	-0.050
2020/01/31 10:23:40.9	300.900	0.010	-0.600	-0.080
2020/01/31 10:23:41.0	300.910	0.010	-0.590	-0.120
2020/01/31 10:23:41.1	300.910	0.010	-0.580	-0.150
2020/01/31 10:23:41.2	300.910	0.010	-0.560	-0.180
2020/01/31 10:23:41.3	300.920	0.010	-0.550	-0.210
2020/01/31 10:23:41.4	300.920	0.010	-0.530	-0.240
2020/01/31 10:23:41.5	300.920	0.010	-0.520	-0.270
2020/01/31 10:23:41.6	300.930	0.010	-0.500	-0.290
2020/01/31 10:23:41.7	300.940	0.000	-0.480	-0.310
2020/01/31 10:23:41.8	300.950	-0.000	-0.450	-0.330
2020/01/31 10:23:41.9	300.960	-0.010	-0.430	-0.350
2020/01/31 10:23:42.0	300.970	-0.010	-0.410	-0.370
2020/01/31 10:23:42.1	300.980	-0.020	-0.380	-0.380
2020/01/31 10:23:42.2	301.000	-0.030	-0.360	-0.390
2020/01/31 10:23:42.3	301.010	-0.040	-0.330	-0.400
2020/01/31 10:23:42.4	301.030	-0.050	-0.300	-0.400
2020/01/31 10:23:42.5	301.050	-0.050	-0.270	-0.400
2020/01/31 10:23:42.6	301.060	-0.060	-0.250	-0.400
2020/01/31 10:23:42.7	301.080	-0.070	-0.220	-0.390
2020/01/31 10:23:42.8	301.090	-0.080	-0.190	-0.390
2020/01/31 10:23:42.9	301.110	-0.090	-0.160	-0.370
2020/01/31 10:23:43.0	301.120	-0.100	-0.130	-0.360
2020/01/31 10:23:43.1	301.140	-0.110	-0.100	-0.340
2020/01/31 10:23:43.2	301.150	-0.120	-0.070	-0.320
2020/01/31 10:23:43.3	301.170	-0.130	-0.050	-0.300
2020/01/31 10:23:43.4	301.190	-0.130	-0.020	-0.280
2020/01/31 10:23:43.5	301.210	-0.140	0.000	-0.250
2020/01/31 10:23:43.6	301.220	-0.140	0.020	-0.230
2020/01/31 10:23:43.7	301.240	-0.150	0.050	-0.200
2020/01/31 10:23:43.8	301.260	-0.150	0.070	-0.170
2020/01/31 10:23:43.9	301.270	-0.160	0.090	-0.140
2020/01/31 10:23:44.0	301.290	-0.160	0.110	-0.110
2020/01/31 10:23:44.1	301.310	-0.160	0.130	-0.090
2020/01/31 10:23:44.2	301.320	-0.160	0.140	-0.050
2020/01/31 10:23:44.3	301.340	-0.160	0.160	-0.020
2020/01/31 10:23:44.4	301.350	-0.160	0.170	0.010
2020/01/31 10:23:44.5	301.360	-0.160	0.180	0.040
2020/01/31 10:23:44.6	301.380	-0.150	0.190	0.070
2020/01/31 10:23:44.7	301.390	-0.150	0.200	0.100
2020/01/31 10:23:44.8	301.400	-0.140	0.210	0.130
2020/01/31 10:23:44.9	301.410	-0.140	0.220	0.170
2020/01/31 10:23:45.0	301.420	-0.130	0.230	0.200
2020/01/31 10:23:45.1	301.430	-0.130	0.240	0.230
2020/01/31 10:23:45.2	301.440	-0.120	0.240	0.260
2020/01/31 10:23:45.3	301.450	-0.120	0.240	0.290
2020/01/31 10:23:45.4	301.460	-0.110	0.250	0.330
2020/01/31 10:23:45.5	301.460	-0.110	0.250	0.360
2020/01/31 10:23:45.6	301.460	-0.100	0.260	0.380
2020/01/31 10:23:45.7	301.460	-0.100	0.260	0.410
2020/01/31 10:23:45.8	301.460	-0.090	0.260	0.440
2020/01/31 10:23:45.9	301.460	-0.090	0.260	0.470
2020/01/31 10:23:46.0	301.450	-0.080	0.260	0.500
2020/01/31 10:23:46.1	301.450	-0.080	0.250	0.520
2020/01/31 10:23:46.2	301.440	-0.070	0.250	0.550
2020/01/31 10:23:46.3	301.430	-0.070	0.250	0.570
2020/01/31 10:23:46.4	301.400	-0.060	0.240	0.590
2020/01/31 10:23:46.5	301.390	-0.060	0.230	0.610
2020/01/31 10:23:46.6	301.380	-0.050	0.230	0.630
2020/01/31 10:23:46.7	301.360	-0.050	0.220	0.650
2020/01/31 10:23:46.8	301.340	-0.040	0.210	0.670
2020/01/31 10:23:46.9	301.320	-0.040	0.200	0.690
2020/01/31 10:23:47.0	301.300	-0.030	0.190	0.710
2020/01/31 10:23:47.1	301.280	-0.020	0.180	0.720
2020/01/31 10:23:47.2	301.260	-0.020	0.170	0.730
2020/01/31 10:23:47.3	301.240	-0.010	0.160	0.750
2020/01/31 10:23:47.4	301.220	-0.000	0.140	0.760
2020/01/31 10:23:47.5	301.200	0.010	0.120	0.760
2020/01/31 10:23:47.6	301.180	0.020	0.100	0.770
2020/01/31 10:23:47.7	301.160	0.030	0.080	0.770
2020/01/31 10:23:47.8	301.140	0.040	0.060	0.770
2020/01/31 10:23:47.9	301.120	0.050	0.040	0.770
2020/01/31 10:23:48.0	301.100	0.060	0.010	0.760
2020/01/31 10:23:48.1	301.080	0.070	-0.020	0.750
2020/01/31 10:23:48.2	301.070	0.080	-0.050	0.740
2020/01/31 10:23:48.3	301.050	0.100	-0.080	0.720
2020/01/31 10:23:48.4	301.050	0.110	-0.120	0.710
2020/01/31 10:23:48.5	301.040	0.120	-0.160	0.680
2020/01/31 10:23:48.6	301.030	0.130	-0.190	0.650
2020/01/31 10:23:48.7	301.020	0.150	-0.230	0.620
2020/01/31 10:23:48.8	301.020	0.160	-0.270	0.590
2020/01/31 10:23:48.9	301.020	0.170	-0.320	0.550
2020/01/31 10:23:49.0	301.020	0.180	-0.360	0.510
2020/01/31 10:23:49.1	301.020	0.190	-0.410	0.470
2020/01/31 10:23:49.2	301.020	0.200	-0.450	0.430
2020/01/31 10:23:49.3	301.030	0.210	-0.500	0.380
2020/01/31 10:23:49.4	301.030	0.220	-0.540	0.330
2020/01/31 10:23:49.5	301.040	0.230	-0.590	0.280
2020/01/31 10:23:49.6	301.050	0.240	-0.630	0.230
2020/01/31 10:23:49.7	301.060	0.240	-0.680	0.180
2020/01/31 10:23:49.8	301.080	0.250	-0.720	0.120
2020/01/31 10:23:49.9	301.090	0.250	-0.760	0.070
2020/01/31 10:23:50.0	301.100	0.250	-0.800	0.020
2020/01/31 10:23:50.1	301.120	0.250	-0.840	-0.030
2020/01/31 10:23:50.2	301.130	0.250	-0.870	-0.090
2020/01/31 10:23:50.3	301.150	0.250	-0.900	-0.140
2020/01/31 10:23:50.4	301.160	0.250	-0.930	-0.180
2020/01/31 10:23:50.5	301.180	0.240	-0.960	-0.230
2020/01/31 10:23:50.6	301.200	0.240	-0.980	-0.280
2020/01/31 10:23:50.7	301.220	0.230	-1.010	-0.330
2020/01/31 10:23:50.8	301.240	0.220	-1.020	-0.370
2020/01/31 10:23:50.9	301.260	0.210	-1.040	-0.410
2020/01/31 10:23:51.0	301.280	0.200	-1.050	-0.450
2020/01/31 10:23:51.1	301.300	0.190	-1.060	-0.490
2020/01/31 10:23:51.2	301.320	0.180	-1.060	-0.520
2020/01/31 10:23:51.3	301.340	0.170	-1.060	-0.550
2020/01/31 10:23:51.4	301.370	0.150	-1.060	-0.590
2020/01/31 10:23:51.5	301.390	0.140	-1.060	-0.610
2020/01/31 10:23:51.6	301.410	0.120	-1.050	-0.640
2020/01/31 10:23:51.7	301.430	0.110	-1.030	-0.650
2020/01/31 10:23:51.8	301.450	0.090	-1.020	-0.670
2020/01/31 10:23:51.9	301.470	0.080	-1.000	-0.680
2020/01/31 10:23:52.0	301.490	0.060	-0.970	-0.690
2020/01/31 10:23:52.1	301.510	0.040	-0.950	-0.690
2020/01/31 10:23:52.2	301.520	0.030	-0.920	-0.690
2020/01/31 10:23:52.3	301.540	0.010	-0.890	-0.690
2020/01/31 10:23:52.4	301.580	-0.010	-0.850	-0.680
2020/01/31 10:23:52.5	301.590	-0.020	-0.810	-0.670
2020/01/31 10:23:52.6	301.610	-0.040	-0.770	-0.650
2020/01/31 10:23:52.7	301.620	-0.050	-0.730	-0.630
2020/01/31 10:23:52.8	301.630	-0.070	-0.690	-0.610
2020/01/31 10:23:52.9	301.640	-0.080	-0.650	-0.590
2020/01/31 10:23:53.0	301.650	-0.090	-0.600	-0.560
2020/01/31 10:23:53.1	301.670	-0.110	-0.550	-0.530
2020/01/31 10:23:53.2	301.680	-0.120	-0.510	-0.500
2020/01/31 10:23:53.3	301.680	-0.130	-0.460	-0.470
2020/01/31 10:23:53.4	301.700	-0.140	-0.410	-0.430
2020/01/31 10:23:53.5	301.700	-0.150	-0.370	-0.400
2020/01/31 10:23:53.6	301.710	-0.160	-0.320	-0.360
2020/01/31 10:23:53.7	301.720	-0.170	-0.280	-0.320
2020/01/31 10:23:53.8	301.730	-0.180	-0.230	-0.280
2020/01/31 10:23:53.9	301.730	-0.190	-0.190	-0.230
2020/01/31 10:23:54.0	301.740	-0.190	-0.150	-0.190
2020/01/31 10:23:54.1	301.740	-0.200	-0.110	-0.140
2020/01/31 10:23:54.2	301.750	-0.200	-0.070	-0.100
2020/01/31 10:23:54.3	301.750	-0.210	-0.030	-0.050
2020/01/31 10:23:54.4	301.750	-0.210	0.010	-0.000
2020/01/31 10:23:54.5	301.750	-0.210	0.050	0.040
2020/01/31 10:23:54.6	301.750	-0.210	0.080	0.090
2020/01/31 10:23:54.7	301.750	-0.210	0.110	0.140
2020/01/31 10:23:54.8	301.740	-0.210	0.140	0.180
2020/01/31 10:23:54.9	301.740	-0.210	0.170	0.230
2020/01/31 10:23:55.0	301.740	-0.210	0.200	0.270
2020/01/31 10:23:55.1	301.730	-0.200	0.230	0.320
2020/01/31 10:23:55.2	301.720	-0.200	0.260	0.360
2020/01/31 10:23:55.3	301.720	-0.200	0.280	0.400
2020/01/31 10:23:55.4	301.700	-0.190	0.310	0.440
2020/01/31 10:23:55.5	301.690	-0.180	0.330	0.480
2020/01/31 10:23:55.6	301.680	-0.170	0.350	0.520
2020/01/31 10:23:55.7	301.670	-0.170	0.370	0.550
2020/01/31 10:23:55.8	301.660	-0.160	0.390	0.590
2020/01/31 10:23:55.9	301.650	-0.150	0.410	0.620
2020/01/31 10:23:56.0	301.640	-0.140	0.420	0.650
2020/01/31 10:23:56.1	301.620	-0.120	0.430	0.670
2020/01/31 10:23:56.2	301.610	-0.110	0.440	0.700
2020/01/31 10:23:56.3	301.600	-0.100	0.450	0.720
2020/01/31 10:23:56.4	301.570	-0.090	0.460	0.740
2020/01/31 10:23:56.5	301.550	-0.070	0.460	0.750
2020/01/31 10:23:56.6	301.540	-0.060	0.460	0.760
2020/01/31 10:23:56.7	301.520	-0.040	0.460	0.770
2020/01/31 10:23:56.8	301.510	-0.030	0.460	0.780
2020/01/31 10:23:56.9	301.490	-0.010	0.450	0.780
2020/01/31 10:23:57.0	301.470	0.000	0.440	0.780
2020/01/31 10:23:57.1	301.460	0.020	0.430	0.780
2020/01/31 10:23:57.2	301.440	0.030	0.420	0.770
2020/01/31 10:23:57.3	301.430	0.050	0.400	0.770
2020/01/31 10:23:57.4	301.410	0.070	0.380	0.750
2020/01/31 10:23:57.5	301.400	0.080	0.360	0.740
2020/01/31 10:23:57.6	301.390	0.100	0.330	0.730
2020/01/31 10:23:57.7	301.370	0.110	0.310	0.710
2020/01/31 10:23:57.8	301.360	0.130	0.280	0.690
2020/01/31 10:23:57.9	301.350	0.140	0.250	0.660
2020/01/31 10:23:58.0	301.340	0.160	0.220	0.640
2020/01/31 10:23:58.1	301.330	0.170	0.180	0.610
2020/01/31 10:23:58.2	301.320	0.180	0.150	0.580
2020/01/31 10:23:58.3	301.310	0.190	0.120	0.550
2020/01/31 10:23:58.4	301.300	0.200	0.080	0.520
2020/01/31 10:23:58.5	301.300	0.210	0.050	0.490
2020/01/31 10:23:58.6	301.290	0.220	0.010	0.460
2020/01/31 10:23:58.7	301.290	0.230	-0.030	0.420
2020/01/31 10:23:58.8	301.280	0.240	-0.060	0.380
2020/01/31 10:23:58.9	301.280	0.250	-0.090	0.350
2020/01/31 10:23:59.0	301.280	0.250	-0.130	0.310
2020/01/31 10:23:59.1	301.280	0.260	-0.160	0.270
2020/01/31 10:23:59.2	301.280	0.260	-0.190	0.240
2020/01/31 10:23:59.3	301.280	0.260	-0.230	0.200
2020/01/31 10:23:59.4	301.270	0.260	-0.260	0.160
2020/01/31 10:23:59.5	301.270	0.260	-0.290	0.120
2020/01/31 10:23:59.6	301.270	0.260	-0.320	0.080
2020/01/31 10:23:59.7	301.280	0.250	-0.340	0.040
2020/01/31 10:23:59.8	301.280	0.250	-0.370	0.000
2020/01/31 10:23:59.9	301.290	0.240	-0.390	-0.040
2020/01/31 10:24:00.0	301.290	0.230	-0.420	-0.080
2020/01/31 10:24:00.1	301.300	0.220	-0.440	-0.120
2020/01/31 10:24:00.2	301.310	0.210	-0.460	-0.160
2020/01/31 10:24:00.3	301.320	0.200	-0.480	-0.190
2020/01/31 10:24:00.4	301.330	0.190	-0.490	-0.230
2020/01/31 10:24:00.5	301.340	0.180	-0.510	-0.270
2020/01/31 10:24:00.6	301.350	0.160	-0.520	-0.310
2020/01/31 10:24:00.7	301.370	0.150	-0.530	-0.350
2020/01/31 10:24:00.8	301.380	0.130	-0.550	-0.380
2020/01/31 10:24:00.9	301.400	0.120	-0.560	-0.420
2020/01/31 10:24:01.0	301.420	0.100	-0.560	-0.450
2020/01/31 10:24:01.1	301.430	0.090	-0.570	-0.490
2020/01/31 10:24:01.2	301.450	0.070	-0.580	-0.520
2020/01/31 10:24:01.3	301.480	0.060	-0.580	-0.550
2020/01/31 10:24:01.4	301.500	0.040	-0.590	-0.580
2020/01/31 10:24:01.5	301.530	0.030	-0.600	-0.600
2020/01/31 10:24:01.6	301.550	0.010	-0.600	-0.630
2020/01/31 10:24:01.7	301.580	-0.000	-0.600	-0.650
2020/01/31 10:24:01.8	301.610	-0.010	-0.600	-0.670
2020/01/31 10:24:01.9	301.640	-0.030	-0.610	-0.690
2020/01/31 10:24:02.0	301.670	-0.040	-0.610	-0.700
2020/01/31 10:24:02.1	301.700	-0.050	-0.610	-0.720
2020/01/31 10:24:02.2	301.730	-0.060	-0.610	-0.730
2020/01/31 10:24:02.3	301.760	-0.070	-0.610	-0.740
2020/01/31 10:24:02.4	301.800	-0.070	-0.610	-0.740
2020/01/31 10:24:02.5	301.830	-0.080	-0.620	-0.740
2020/01/31 10:24:02.6	301.860	-0.090	-0.620	-0.740
2020/01/31 10:24:02.7	301.880	-0.090	-0.620	-0.730
2020/01/31 10:24:02.8	301.910	-0.100	-0.630	-0.720
2020/01/31 10:24:02.9	301.940	-0.100	-0.630	-0.710
2020/01/31 10:24:03.0	301.960	-0.110	-0.630	-0.690
2020/01/31 10:24:03.1	301.980	-0.110	-0.640	-0.670
2020/01/31 10:24:03.2	302.000	-0.110	-0.640	-0.650
2020/01/31 10:24:03.3	302.010	-0.110	-0.640	-0.620
2020/01/31 10:24:03.4	302.040	-0.120	-0.650	-0.590
2020/01/31 10:24:03.5	302.050	-0.120	-0.650	-0.550
2020/01/31 10:24:03.6	302.060	-0.120	-0.650	-0.520
2020/01/31 10:24:03.7	302.060	-0.120	-0.650	-0.480
2020/01/31 10:24:03.8	302.070	-0.130	-0.650	-0.440
2020/01/31 10:24:03.9	302.070	-0.130	-0.650	-0.400
2020/01/31 10:24:04.0	302.070	-0.130	-0.650	-0.360
2020/01/31 10:24:04.1	302.070	-0.130	-0.640	-0.310
2020/01/31 10:24:04.2	302.070	-0.130	-0.640	-0.270
2020/01/31 10:24:04.3	302.060	-0.130	-0.630	-0.220
2020/01/31 10:24:04.4	302.050	-0.140	-0.610	-0.180
2020/01/31 10:24:04.5	302.040	-0.140	-0.600	-0.130
2020/01/31 10:24:04.6	302.030	-0.140	-0.590	-0.080
2020/01/31 10:24:04.7	302.020	-0.140	-0.580	-0.030
2020/01/31 10:24:04.8	302.000	-0.140	-0.560	0.020
2020/01/31 10:24:04.9	301.990	-0.150	-0.540	0.070
2020/01/31 10:24:05.0	301.970	-0.150	-0.520	0.120
2020/01/31 10:24:05.1	301.950	-0.150	-0.490	0.170
2020/01/31 10:24:05.2	301.930	-0.150	-0.470	0.220
2020/01/31 10:24:05.3	301.910	-0.150	-0.440	0.270
2020/01/31 10:24:05.4	301.890	-0.150	-0.420	0.320
2020/01/31 10:24:05.5	301.870	-0.150	-0.390	0.370
2020/01/31 10:24:05.6	301.840	-0.150	-0.360	0.410
2020/01/31 10:24:05.7	301.820	-0.160	-0.330	0.460
2020/01/31 10:24:05.8	301.790	-0.160	-0.300	0.500
2020/01/31 10:24:05.9	301.770	-0.150	-0.270	0.540
2020/01/31 10:24:06.0	301.740	-0.150	-0.240	0.580
2020/01/31 10:24:06.1	301.720	-0.150	-0.210	0.620
2020/01/31 10:24:06.2	301.690	-0.150	-0.180	0.650
2020/01/31 10:24:06.3	301.670	-0.150	-0.150	0.680
2020/01/31 10:24:06.4	301.630	-0.150	-0.120	0.710
2020/01/31 10:24:06.5	301.610	-0.140	-0.090	0.730
2020/01/31 10:24:06.6	301.590	-0.140	-0.070	0.750
2020/01/31 10:24:06.7	301.570	-0.140	-0.040	0.760
2020/01/31 10:24:06.8	301.550	-0.130	-0.020	0.780
2020/01/31 10:24:06.9	301.530	-0.130	-0.000	0.790
2020/01/31 10:24:07.0	301.510	-0.120	0.020	0.790
2020/01/31 10:24:07.1	301.490	-0.120	0.030	0.790
2020/01/31 10:24:07.2	301.470	-0.110	0.040	0.790
2020/01/31 10:24:07.3	301.460	-0.110	0.050	0.780
2020/01/31 10:24:07.4	301.440	-0.100	0.060	0.770
2020/01/31 10:24:07.5	301.430	-0.090	0.070	0.760
2020/01/31 10:24:07.6	301.420	-0.080	0.070	0.750
2020/01/31 10:24:07.7	301.420	-0.080	0.070	0.730
2020/01/31 10:24:07.8	301.410	-0.070	0.070	0.710
2020/01/31 10:24:07.9	301.410	-0.060	0.060	0.690
2020/01/31 10:24:08.0	301.410	-0.050	0.060	0.660
2020/01/31 10:24:08.1	301.400	-0.040	0.050	0.640
2020/01/31 10:24:08.2	301.410	-0.030	0.040	0.610
2020/01/31 10:24:08.3	301.410	-0.030	0.030	0.580
2020/01/31 10:24:08.4	301.400	-0.020	0.020	0.550
2020/01/31 10:24:08.5	301.410	-0.010	0.010	0.520
2020/01/31 10:24:08.6	301.410	-0.000	-0.000	0.490
2020/01/31 10:24:08.7	301.420	0.010	-0.010	0.460
2020/01/31 10:24:08.8	301.420	0.010	-0.020	0.430
2020/01/31 10:24:08.9	301.430	0.020	-0.030	0.410
2020/01/31 10:24:09.0	301.440	0.030	-0.040	0.380
2020/01/31 10:24:09.1	301.440	0.030	-0.050	0.350
2020/01/31 10:24:09.2	301.450	0.040	-0.050	0.330
2020/01/31 10:24:09.3	301.450	0.040	-0.050	0.300
2020/01/31 10:24:09.4	301.440	0.040	-0.050	0.280
2020/01/31 10:24:09.5	301.440	0.050	-0.050	0.260
2020/01/31 10:24:09.6	301.450	0.050	-0.050	0.250
2020/01/31 10:24:09.7	301.450	0.050	-0.050	0.230
2020/01/31 10:24:09.8	301.450	0.060	-0.040	0.220
2020/01/31 10:24:09.9	301.450	0.060	-0.030	0.210
2020/01/31 10:24:10.0	301.450	0.060	-0.030	0.200
2020/01/31 10:24:10.1	301.450	0.060	-0.020	0.200
2020/01/31 10:24:10.2	301.450	0.070	-0.010	0.190
2020/01/31 10:24:10.3	301.450	0.070	0.010	0.190
2020/01/31 10:24:10.4	301.440	0.070	0.020	0.180
2020/01/31 10:24:10.5	301.430	0.070	0.030	0.180
2020/01/31 10:24:10.6	301.430	0.070	0.040	0.180
2020/01/31 10:24:10.7	301.430	0.080	0.050	0.180
2020/01/31 10:24:10.8	301.430	0.080	0.060	0.180
2020/01/31 10:24:10.9	301.430	0.080	0.070	0.170
2020/01/31 10:24:11.0	301.430	0.080	0.080	0.170
2020/01/31 10:24:11.1	301.430	0.090	0.090	0.170
2020/01/31 10:24:11.2	301.420	0.090	0.090	0.170
2020/01/31 10:24:11.3	301.420	0.090	0.100	0.170
2020/01/31 10:24:11.4	301.430	0.100	0.100	0.170
2020/01/31 10:24:11.5	301.430	0.100	0.100	0.170
2020/01/31 10:24:11.6	301.420	0.110	0.100	0.170
2020/01/31 10:24:11.7	301.420	0.110	0.100	0.170
2020/01/31 10:24:11.8	301.420	0.120	0.100	0.170
2020/01/31 10:24:11.9	301.420	0.120	0.090	0.170
2020/01/31 10:24:12.0	301.420	0.130	0.090	0.170
2020/01/31 10:24:12.1	301.420	0.140	0.080	0.170
2020/01/31 10:24:12.2	301.420	0.140	0.070	0.170
2020/01/31 10:24:12.3	301.420	0.150	0.060	0.180
2020/01/31 10:24:12.4	301.410	0.160	0.040	0.180
2020/01/31 10:24:12.5	301.410	0.160	0.030	0.180
2020/01/31 10:24:12.6	301.410	0.170	0.020	0.190
2020/01/31 10:24:12.7	301.410	0.180	0.000	0.190
2020/01/31 10:24:12.8	301.420	0.190	-0.020	0.200
2020/01/31 10:24:12.9	301.420	0.190	-0.040	0.200
2020/01/31 10:24:13.0	301.420	0.200	-0.050	0.210
2020/01/31 10:24:13.1	301.430	0.210	-0.070	0.220
2020/01/31 10:24:13.2	301.430	0.210	-0.100	0.220
2020/01/31 10:24:13.3	301.440	0.220	-0.120	0.230
2020/01/31 10:24:13.4	301.440	0.220	-0.140	0.240
2020/01/31 10:24:13.5	301.450	0.230	-0.170	0.240
2020/01/31 10:24:13.6	301.460	0.230	-0.190	0.250
2020/01/31 10:24:13.7	301.470	0.240	-0.210	0.260
2020/01/31 10:24:13.8	301.480	0.240	-0.240	0.260
2020/01/31 10:24:13.9	301.490	0.240	-0.260	0.270
2020/01/31 10:24:14.0	301.510	0.240	-0.280	0.270
2020/01/31 10:24:14.1	301.520	0.240	-0.310	0.280
2020/01/31 10:24:14.2	301.530	0.230	-0.330	0.290
2020/01/31 10:24:14.3	301.540	0.230	-0.350	0.290
2020/01/31 10:24:14.4	301.560	0.230	-0.370	0.300
2020/01/31 10:24:14.5	301.570	0.220	-0.390	0.310
2020/01/31 10:24:14.6	301.580	0.210	-0.410	0.320
2020/01/31 10:24:14.7	301.580	0.210	-0.430	0.320
2020/01/31 10:24:14.8	301.590	0.200	-0.440	0.330
2020/01/31 10:24:14.9	301.600	0.190	-0.460	0.340
2020/01/31 10:24:15.0	301.600	0.180	-0.470	0.350
2020/01/31 10:24:15.1	301.610	0.170	-0.480	0.360
2020/01/31 10:24:15.2	301.610	0.150	-0.490	0.380
2020/01/31 10:24:15.3	301.610	0.140	-0.500	0.390
2020/01/31 10:24:15.4	301.610	0.130	-0.510	0.400
2020/01/31 10:24:15.5	301.610	0.110	-0.510	0.400
2020/01/31 10:24:15.6	301.600	0.100	-0.520	0.410
2020/01/31 10:24:15.7	301.600	0.090	-0.530	0.420
2020/01/31 10:24:15.8	301.600	0.070	-0.530	0.430
2020/01/31 10:24:15.9	301.600	0.050	-0.540	0.430
2020/01/31 10:24:16.0	301.590	0.040	-0.540	0.430
2020/01/31 10:24:16.1	301.590	0.020	-0.550	0.430
2020/01/31 10:24:16.2	301.580	0.010	-0.560	0.430
2020/01/31 10:24:16.3	301.580	-0.010	-0.560	0.430
2020/01/31 10:24:16.4	301.590	-0.030	-0.570	0.420
2020/01/31 10:24:16.5	301.590	-0.040	-0.580	0.410
2020/01/31 10:24:16.6	301.590	-0.060	-0.590	0.400
2020/01/31 10:24:16.7	301.590	-0.070	-0.610	0.390
2020/01/31 10:24:16.8	301.590	-0.090	-0.620	0.380
2020/01/31 10:24:16.9	301.590	-0.100	-0.630	0.360
2020/01/31 10:24:17.0	301.590	-0.120	-0.650	0.340
2020/01/31 10:24:17.1	301.590	-0.130	-0.660	0.320
2020/01/31 10:24:17.2	301.590	-0.150	-0.680	0.300
2020/01/31 10:24:17.3	301.600	-0.160	-0.700	0.270
2020/01/31 10:24:17.4	301.600	-0.170	-0.720	0.250
2020/01/31 10:24:17.5	301.610	-0.190	-0.730	0.220
2020/01/31 10:24:17.6	301.610	-0.200	-0.750	0.200
2020/01/31 10:24:17.7	301.620	-0.210	-0.760	0.170
2020/01/31 10:24:17.8	301.630	-0.220	-0.780	0.140
2020/01/31 10:24:17.9	301.640	-0.230	-0.790	0.120
2020/01/31 10:24:18.0	301.650	-0.240	-0.800	0.090
2020/01/31 10:24:18.1	301.660	-0.250	-0.810	0.070
2020/01/31 10:24:18.2	301.670	-0.260	-0.820	0.040
2020/01/31 10:24:18.3	301.680	-0.270	-0.820	0.020
2020/01/31 10:24:18.4	301.690	-0.270	-0.830	-0.000
2020/01/31 10:24:18.5	301.690	-0.280	-0.830	-0.020
2020/01/31 10:24:18.6	301.700	-0.280	-0.830	-0.040
2020/01/31 10:24:18.7	301.710	-0.290	-0.830	-0.050
2020/01/31 10:24:18.8	301.720	-0.290	-0.820	-0.070
2020/01/31 10:24:18.9	301.720	-0.300	-0.810	-0.080
2020/01/31 10:24:19.0	301.720	-0.300	-0.790	-0.080
2020/01/31 10:24:19.1	301.730	-0.300	-0.780	-0.090
2020/01/31 10:24:19.2	301.730	-0.300	-0.760	-0.090
2020/01/31 10:24:19.3	301.730	-0.300	-0.740	-0.080
2020/01/31 10:24:19.4	301.730	-0.300	-0.710	-0.080
2020/01/31 10:24:19.5	301.730	-0.300	-0.680	-0.070
2020/01/31 10:24:19.6	301.730	-0.290	-0.650	-0.050
2020/01/31 10:24:19.7	301.720	-0.290	-0.620	-0.040
2020/01/31 10:24:19.8	301.710	-0.280	-0.580	-0.020
2020/01/31 10:24:19.9	301.700	-0.280	-0.540	-0.000
2020/01/31 10:24:20.0	301.700	-0.270	-0.500	0.020
2020/01/31 10:24:20.1	301.680	-0.270	-0.450	0.050
2020/01/31 10:24:20.2	301.670	-0.260	-0.410	0.080
2020/01/31 10:24:20.3	301.660	-0.250	-0.360	0.110
2020/01/31 10:24:20.4	301.670	-0.240	-0.310	0.140
2020/01/31 10:24:20.5	301.650	-0.230	-0.260	0.180
2020/01/31 10:24:20.6	301.640	-0.220	-0.210	0.220
2020/01/31 10:24:20.7	301.620	-0.210	-0.160	0.250
2020/01/31 10:24:20.8	301.610	-0.200	-0.110	0.290
2020/01/31 10:24:20.9	301.590	-0.190	-0.060	0.330
2020/01/31 10:24:21.0	301.570	-0.180	-0.020	0.370
2020/01/31 10:24:21.1	301.550	-0.170	0.030	0.410
2020/01/31 10:24:21.2	301.540	-0.160	0.080	0.450
2020/01/31 10:24:21.3	301.520	-0.150	0.120	0.490
2020/01/31 10:24:21.4	301.510	-0.140	0.160	0.530
2020/01/31 10:24:21.5	301.490	-0.130	0.200	0.570
2020/01/31 10:24:21.6	301.480	-0.120	0.230	0.610
2020/01/31 10:24:21.7	301.460	-0.110	0.270	0.640
2020/01/31 10:24:21.8	301.440	-0.100	0.300	0.680
2020/01/31 10:24:21.9	301.430	-0.090	0.330	0.710
2020/01/31 10:24:22.0	301.410	-0.080	0.350	0.740
2020/01/31 10:24:22.1	301.400	-0.070	0.380	0.770
2020/01/31 10:24:22.2	301.380	-0.060	0.400	0.800
2020/01/31 10:24:22.3	301.370	-0.060	0.420	0.830
2020/01/31 10:24:22.4	301.360	-0.050	0.430	0.850
2020/01/31 10:24:22.5	301.350	-0.040	0.450	0.870
2020/01/31 10:24:22.6	301.340	-0.030	0.460	0.880
2020/01/31 10:24:22.7	301.330	-0.030	0.470	0.900
2020/01/31 10:24:22.8	301.320	-0.020	0.470	0.910
2020/01/31 10:24:22.9	301.320	-0.010	0.480	0.920
2020/01/31 10:24:23.0	301.310	-0.010	0.480	0.930
2020/01/31 10:24:23.1	301.310	-0.000	0.480	0.940
2020/01/31 10:24:23.2	301.300	0.000	0.480	0.940
2020/01/31 10:24:23.3	301.300	0.010	0.480	0.940
2020/01/31 10:24:23.4	301.300	0.010	0.480	0.940
2020/01/31 10:24:23.5	301.300	0.020	0.470	0.940
2020/01/31 10:24:23.6	301.300	0.020	0.470	0.930
2020/01/31 10:24:23.7	301.300	0.030	0.460	0.920
2020/01/31 10:24:23.8	301.300	0.040	0.450	0.920
2020/01/31 10:24:23.9	301.310	0.040	0.440	0.910
2020/01/31 10:24:24.0	301.310	0.050	0.430	0.890
2020/01/31 10:24:24.1	301.310	0.050	0.420	0.880
2020/01/31 10:24:24.2	301.310	0.060	0.410	0.860
2020/01/31 10:24:24.3	301.320	0.060	0.400	0.850
2020/01/31 10:24:24.4	301.320	0.070	0.390	0.830
2020/01/31 10:24:24.5	301.320	0.070	0.370	0.810
2020/01/31 10:24:24.6	301.330	0.080	0.360	0.790
2020/01/31 10:24:24.7	301.330	0.080	0.340	0.760
2020/01/31 10:24:24.8	301.330	0.090	0.320	0.740
2020/01/31 10:24:24.9	301.340	0.090	0.300	0.710
2020/01/31 10:24:25.0	301.340	0.100	0.280	0.680
2020/01/31 10:24:25.1	301.350	0.100	0.260	0.650
2020/01/31 10:24:25.2	301.350	0.110	0.240	0.610
2020/01/31 10:24:25.3	301.360	0.110	0.210	0.580
2020/01/31 10:24:25.4	301.370	0.120	0.180	0.540
2020/01/31 10:24:25.5	301.370	0.120	0.150	0.500
2020/01/31 10:24:25.6	301.380	0.120	0.120	0.460
2020/01/31 10:24:25.7	301.390	0.130	0.090	0.410
2020/01/31 10:24:25.8	301.400	0.130	0.060	0.370
2020/01/31 10:24:25.9	301.410	0.140	0.020	0.320
2020/01/31 10:24:26.0	301.420	0.140	-0.010	0.270
2020/01/31 10:24:26.1	301.430	0.150	-0.050	0.220
2020/01/31 10:24:26.2	301.450	0.150	-0.090	0.170
2020/01/31 10:24:26.3	301.460	0.160	-0.140	0.120
2020/01/31 10:24:26.4	301.470	0.160	-0.180	0.060
2020/01/31 10:24:26.5	301.490	0.170	-0.230	0.010
2020/01/31 10:24:26.6	301.510	0.170	-0.270	-0.050
2020/01/31 10:24:26.7	301.530	0.180	-0.320	-0.100
2020/01/31 10:24:26.8	301.550	0.180	-0.370	-0.160
2020/01/31 10:24:26.9	301.570	0.190	-0.420	-0.210
2020/01/31 10:24:27.0	301.590	0.200	-0.470	-0.260
2020/01/31 10:24:27.1	301.610	0.200	-0.510	-0.310
2020/01/31 10:24:27.2	301.630	0.210	-0.560	-0.360
2020/01/31 10:24:27.3	301.650	0.220	-0.610	-0.410
2020/01/31 10:24:27.4	301.660	0.220	-0.650	-0.450
2020/01/31 10:24:27.5	301.680	0.230	-0.700	-0.490
2020/01/31 10:24:27.6	301.700	0.240	-0.740	-0.530
2020/01/31 10:24:27.7	301.720	0.240	-0.770	-0.560
2020/01/31 10:24:27.8	301.740	0.250	-0.810	-0.590
2020/01/31 10:24:27.9	301.760	0.250	-0.840	-0.620
2020/01/31 10:24:28.0	301.770	0.260	-0.870	-0.650
2020/01/31 10:24:28.1	301.790	0.260	-0.900	-0.670
2020/01/31 10:24:28.2	301.800	0.260	-0.920	-0.680
2020/01/31 10:24:28.3	301.810	0.260	-0.940	-0.700
2020/01/31 10:24:28.4	301.840	0.260	-0.960	-0.700
2020/01/31 10:24:28.5	301.850	0.260	-0.970	-0.710
2020/01/31 10:24:28.6	301.860	0.260	-0.980	-0.710
2020/01/31 10:24:28.7	301.870	0.260	-0.990	-0.710
2020/01/31 10:24:28.8	301.870	0.260	-1.000	-0.700
2020/01/31 10:24:28.9	301.880	0.250	-1.000	-0.700
2020/01/31 10:24:29.0	301.880	0.240	-1.000	-0.690
2020/01/31 10:24:29.1	301.890	0.240	-1.000	-0.670
2020/01/31 10:24:29.2	301.890	0.230	-0.990	-0.660
2020/01/31 10:24:29.3	301.890	0.220	-0.990	-0.640
2020/01/31 10:24:29.4	301.900	0.210	-0.980	-0.620
2020/01/31 10:24:29.5	301.900	0.190	-0.960	-0.590
2020/01/31 10:24:29.6	301.900	0.180	-0.950	-0.570
2020/01/31 10:24:29.7	301.890	0.170	-0.930	-0.540
2020/01/31 10:24:29.8	301.890	0.150	-0.920	-0.510
2020/01/31 10:24:29.9	301.880	0.130	-0.900	-0.480
2020/01/31 10:24:30.0	301.870	0.120	-0.880	-0.450
2020/01/31 10:24:30.1	301.860	0.100	-0.850	-0.420
2020/01/31 10:24:30.2	301.850	0.080	-0.830	-0.380
2020/01/31 10:24:30.3	301.840	0.060	-0.800	-0.350
2020/01/31 10:24:30.4	301.840	0.040	-0.780	-0.310
2020/01/31 10:24:30.5	301.830	0.020	-0.750	-0.270
2020/01/31 10:24:30.6	301.820	0.000	-0.720	-0.230
2020/01/31 10:24:30.7	301.800	-0.020	-0.690	-0.190
2020/01/31 10:24:30.8	301.790	-0.030	-0.660	-0.150
2020/01/31 10:24:30.9	301.780	-0.050	-0.630	-0.100
2020/01/31 10:24:31.0	301.760	-0.070	-0.600	-0.060
2020/01/31 10:24:31.1	301.750	-0.090	-0.560	-0.010
2020/01/31 10:24:31.2	301.730	-0.110	-0.530	0.030
2020/01/31 10:24:31.3	301.720	-0.120	-0.500	0.080
2020/01/31 10:24:31.4	301.710	-0.140	-0.460	0.120
2020/01/31 10:24:31.5	301.700	-0.160	-0.430	0.170
2020/01/31 10:24:31.6	301.680	-0.170	-0.400	0.220
2020/01/31 10:24:31.7	301.670	-0.180	-0.360	0.260
2020/01/31 10:24:31.8	301.650	-0.190	-0.320	0.310
2020/01/31 10:24:31.9	301.630	-0.200	-0.290	0.360
2020/01/31 10:24:32.0	301.620	-0.210	-0.250	0.410
2020/01/31 10:24:32.1	301.600	-0.220	-0.220	0.450
2020/01/31 10:24:32.2	301.580	-0.230	-0.180	0.500
2020/01/31 10:24:32.3	301.570	-0.230	-0.150	0.550
2020/01/31 10:24:32.4	301.550	-0.230	-0.120	0.590
2020/01/31 10:24:32.5	301.530	-0.240	-0.090	0.630
2020/01/31 10:24:32.6	301.510	-0.240	-0.060	0.680
2020/01/31 10:24:32.7	301.500	-0.240	-0.030	0.720
2020/01/31 10:24:32.8	301.480	-0.240	-0.000	0.760
2020/01/31 10:24:32.9	301.460	-0.230	0.030	0.790
2020/01/31 10:24:33.0	301.440	-0.230	0.050	0.830
2020/01/31 10:24:33.1	301.420	-0.230	0.070	0.860
2020/01/31 10:24:33.2	301.400	-0.220	0.090	0.890
2020/01/31 10:24:33.3	301.390	-0.210	0.110	0.920
2020/01/31 10:24:33.4	301.350	-0.210	0.130	0.940
2020/01/31 10:24:33.5	301.340	-0.200	0.140	0.960
2020/01/31 10:24:33.6	301.320	-0.200	0.160	0.980
2020/01/31 10:24:33.7	301.300	-0.190	0.170	1.000
2020/01/31 10:24:33.8	301.290	-0.180	0.170	1.000
2020/01/31 10:24:33.9	301.280	-0.170	0.180	1.010
2020/01/31 10:24:34.0	301.270	-0.170	0.180	1.010
2020/01/31 10:24:34.1	301.250	-0.160	0.180	1.010
2020/01/31 10:24:34.2	301.240	-0.150	0.180	1.000
2020/01/31 10:24:34.3	301.240	-0.150	0.180	0.990
2020/01/31 10:24:34.4	301.230	-0.140	0.180	0.970
2020/01/31 10:24:34.5	301.220	-0.140	0.170	0.950
2020/01/31 10:24:34.6	301.210	-0.130	0.170	0.930
2020/01/31 10:24:34.7	301.210	-0.130	0.160	0.910
2020/01/31 10:24:34.8	301.200	-0.120	0.150	0.880
2020/01/31 10:24:34.9	301.200	-0.120	0.140	0.850
2020/01/31 10:24:35.0	301.200	-0.120	0.130	0.810
2020/01/31 10:24:35.1	301.200	-0.110	0.120	0.780
2020/01/31 10:24:35.2	301.200	-0.110	0.110	0.740
2020/01/31 10:24:35.3	301.200	-0.110	0.100	0.700
2020/01/31 10:24:35.4	301.190	-0.110	0.080	0.660
2020/01/31 10:24:35.5	301.200	-0.110	0.070	0.620
2020/01/31 10:24:35.6	301.200	-0.110	0.060	0.580
2020/01/31 10:24:35.7	301.200	-0.110	0.050	0.540
2020/01/31 10:24:35.8	301.200	-0.110	0.040	0.490
2020/01/31 10:24:35.9	301.210	-0.110	0.030	0.450
2020/01/31 10:24:36.0	301.210	-0.110	0.020	0.400
2020/01/31 10:24:36.1	301.210	-0.110	0.010	0.360
2020/01/31 10:24:36.2	301.220	-0.120	0.010	0.310
2020/01/31 10:24:36.3	301.220	-0.120	0.000	0.270
2020/01/31 10:24:36.4	301.220	-0.120	0.000	0.230
2020/01/31 10:24:36.5	301.220	-0.120	-0.000	0.180
2020/01/31 10:24:36.6	301.230	-0.120	-0.010	0.140
2020/01/31 10:24:36.7	301.230	-0.120	-0.010	0.090
2020/01/31 10:24:36.8	301.240	-0.120	-0.010	0.050
2020/01/31 10:24:36.9	301.240	-0.130	-0.010	0.010
2020/01/31 10:24:37.0	301.250	-0.130	-0.020	-0.030
2020/01/31 10:24:37.1	301.260	-0.130	-0.020	-0.080
2020/01/31 10:24:37.2	301.260	-0.130	-0.020	-0.120
2020/01/31 10:24:37.3	301.270	-0.130	-0.020	-0.160
2020/01/31 10:24:37.4	301.260	-0.130	-0.030	-0.190
2020/01/31 10:24:37.5	301.270	-0.130	-0.030	-0.230
2020/01/31 10:24:37.6	301.280	-0.130	-0.040	-0.270
2020/01/31 10:24:37.7	301.290	-0.120	-0.040	-0.300
2020/01/31 10:24:37.8	301.300	-0.120	-0.050	-0.340
2020/01/31 10:24:37.9	301.310	-0.120	-0.060	-0.370
2020/01/31 10:24:38.0	301.320	-0.120	-0.070	-0.400
2020/01/31 10:24:38.1	301.330	-0.110	-0.080	-0.430
2020/01/31 10:24:38.2	301.340	-0.110	-0.090	-0.450
2020/01/31 10:24:38.3	301.350	-0.100	-0.100	-0.470
2020/01/31 10:24:38.4	301.350	-0.100	-0.120	-0.500
2020/01/31 10:24:38.5	301.370	-0.090	-0.130	-0.520
2020/01/31 10:24:38.6	301.380	-0.090	-0.150	-0.530
2020/01/31 10:24:38.7	301.390	-0.080	-0.160	-0.540
2020/01/31 10:24:38.8	301.410	-0.070	-0.180	-0.550
2020/01/31 10:24:38.9	301.420	-0.060	-0.200	-0.560
2020/01/31 10:24:39.0	301.430	-0.060	-0.220	-0.560
2020/01/31 10:24:39.1	301.440	-0.050	-0.230	-0.560
2020/01/31 10:24:39.2	301.450	-0.040	-0.250	-0.550
2020/01/31 10:24:39.3	301.470	-0.030	-0.270	-0.550
2020/01/31 10:24:39.4	301.490	-0.020	-0.290	-0.530
2020/01/31 10:24:39.5	301.500	-0.010	-0.310	-0.520
2020/01/31 10:24:39.6	301.510	-0.000	-0.320	-0.500
2020/01/31 10:24:39.7	301.520	0.000	-0.340	-0.480
2020/01/31 10:24:39.8	301.530	0.010	-0.360	-0.460
2020/01/31 10:24:39.9	301.530	0.020	-0.370	-0.430
2020/01/31 10:24:40.0	301.540	0.030	-0.390	-0.410
2020/01/31 10:24:40.1	301.550	0.030	-0.400	-0.380
2020/01/31 10:24:40.2	301.550	0.040	-0.410	-0.350
2020/01/31 10:24:40.3	301.550	0.050	-0.420	-0.320
2020/01/31 10:24:40.4	301.560	0.050	-0.430	-0.280
2020/01/31 10:24:40.5	301.560	0.060	-0.440	-0.250
2020/01/31 10:24:40.6	301.560	0.060	-0.450	-0.210
2020/01/31 10:24:40.7	301.560	0.070	-0.450	-0.180
2020/01/31 10:24:40.8	301.560	0.070	-0.460	-0.140
2020/01/31 10:24:40.9	301.560	0.080	-0.460	-0.100
2020/01/31 10:24:41.0	301.560	0.080	-0.460	-0.060
2020/01/31 10:24:41.1	301.550	0.080	-0.460	-0.020
2020/01/31 10:24:41.2	301.550	0.090	-0.460	0.020
2020/01/31 10:24:41.3	301.540	0.090	-0.460	0.060
2020/01/31 10:24:41.4	301.540	0.090	-0.460	0.100
2020/01/31 10:24:41.5	301.530	0.090	-0.460	0.140
2020/01/31 10:24:41.6	301.520	0.090	-0.460	0.180
2020/01/31 10:24:41.7	301.510	0.100	-0.450	0.220
2020/01/31 10:24:41.8	301.500	0.100	-0.450	0.260
2020/01/31 10:24:41.9	301.480	0.100	-0.440	0.300
2020/01/31 10:24:42.0	301.470	0.100	-0.440	0.340
2020/01/31 10:24:42.1	301.460	0.100	-0.440	0.380
2020/01/31 10:24:42.2	301.440	0.100	-0.430	0.420
2020/01/31 10:24:42.3	301.430	0.100	-0.430	0.460
2020/01/31 10:24:42.4	301.410	0.110	-0.430	0.490
2020/01/31 10:24:42.5	301.390	0.110	-0.420	0.530
2020/01/31 10:24:42.6	301.380	0.110	-0.420	0.560
2020/01/31 10:24:42.7	301.360	0.110	-0.420	0.590
2020/01/31 10:24:42.8	301.340	0.110	-0.420	0.620
2020/01/31 10:24:42.9	301.320	0.110	-0.420	0.650
2020/01/31 10:24:43.0	301.310	0.120	-0.420	0.680
2020/01/31 10:24:43.1	301.290	0.120	-0.420	0.710
2020/01/31 10:24:43.2	301.270	0.120	-0.420	0.740
2020/01/31 10:24:43.3	301.250	0.120	-0.420	0.760
2020/01/31 10:24:43.4	301.220	0.130	-0.430	0.790
2020/01/31 10:24:43.5	301.210	0.130	-0.430	0.810
2020/01/31 10:24:43.6	301.190	0.130	-0.430	0.830
2020/01/31 10:24:43.7	301.170	0.140	-0.430	0.850
2020/01/31 10:24:43.8	301.150	0.140	-0.430	0.870
2020/01/31 10:24:43.9	301.130	0.140	-0.430	0.890
2020/01/31 10:24:44.0	301.100	0.150	-0.430	0.910
2020/01/31 10:24:44.1	301.080	0.150	-0.430	0.920
2020/01/31 10:24:44.2	301.060	0.150	-0.420	0.930
2020/01/31 10:24:44.3	301.040	0.150	-0.420	0.950
2020/01/31 10:24:44.4	301.010	0.160	-0.410	0.960
2020/01/31 10:24:44.5	300.990	0.160	-0.400	0.960
2020/01/31 10:24:44.6	300.970	0.160	-0.390	0.970
2020/01/31 10:24:44.7	300.950	0.160	-0.380	0.970
2020/01/31 10:24:44.8	300.930	0.150	-0.370	0.970
2020/01/31 10:24:44.9	300.910	0.150	-0.350	0.960
2020/01/31 10:24:45.0	300.890	0.150	-0.330	0.950
2020/01/31 10:24:45.1	300.870	0.140	-0.320	0.940
2020/01/31 10:24:45.2	300.850	0.140	-0.300	0.920
2020/01/31 10:24:45.3	300.830	0.130	-0.280	0.900
2020/01/31 10:24:45.4	300.830	0.130	-0.260	0.880
2020/01/31 10:24:45.5	300.810	0.120	-0.240	0.860
2020/01/31 10:24:45.6	300.800	0.110	-0.220	0.830
2020/01/31 10:24:45.7	300.790	0.100	-0.200	0.800
2020/01/31 10:24:45.8	300.790	0.090	-0.180	0.760
2020/01/31 10:24:45.9	300.780	0.080	-0.160	0.730
2020/01/31 10:24:46.0	300.780	0.070	-0.140	0.690
2020/01/31 10:24:46.1	300.780	0.060	-0.120	0.650
2020/01/31 10:24:46.2	300.780	0.050	-0.110	0.600
2020/01/31 10:24:46.3	300.790	0.030	-0.090	0.560
2020/01/31 10:24:46.4	300.800	0.020	-0.080	0.510
2020/01/31 10:24:46.5	300.810	0.010	-0.070	0.460
2020/01/31 10:24:46.6	300.820	-0.000	-0.060	0.410
2020/01/31 10:24:46.7	300.830	-0.010	-0.050	0.360
2020/01/31 10:24:46.8	300.850	-0.030	-0.050	0.310
2020/01/31 10:24:46.9	300.860	-0.040	-0.050	0.260
2020/01/31 10:24:47.0	300.870	-0.050	-0.050	0.210
2020/01/31 10:24:47.1	300.890	-0.060	-0.050	0.160
2020/01/31 10:24:47.2	300.910	-0.070	-0.050	0.110
2020/01/31 10:24:47.3	300.920	-0.080	-0.050	0.060
2020/01/31 10:24:47.4	300.940	-0.080	-0.060	0.010
2020/01/31 10:24:47.5	300.950	-0.090	-0.070	-0.040
2020/01/31 10:24:47.6	300.970	-0.100	-0.080	-0.090
2020/01/31 10:24:47.7	300.990	-0.100	-0.090	-0.130
2020/01/31 10:24:47.8	301.010	-0.100	-0.100	-0.180
2020/01/31 10:24:47.9	301.040	-0.110	-0.110	-0.220
2020/01/31 10:24:48.0	301.060	-0.110	-0.120	-0.260
2020/01/31 10:24:48.1	301.080	-0.110	-0.130	-0.290
2020/01/31 10:24:48.2	301.100	-0.110	-0.150	-0.330
2020/01/31 10:24:48.3	301.130	-0.100	-0.160	-0.360
2020/01/31 10:24:48.4	301.160	-0.100	-0.170	-0.390
2020/01/31 10:24:48.5	301.180	-0.100	-0.180	-0.410
2020/01/31 10:24:48.6	301.200	-0.090	-0.190	-0.430
2020/01/31 10:24:48.7	301.230	-0.090	-0.200	-0.450
2020/01/31 10:24:48.8	301.250	-0.080	-0.210	-0.470
2020/01/31 10:24:48.9	301.270	-0.070	-0.210	-0.480
2020/01/31 10:24:49.0	301.300	-0.060	-0.220	-0.490
2020/01/31 10:24:49.1	301.320	-0.050	-0.220	-0.490
2020/01/31 10:24:49.2	301.340	-0.040	-0.230	-0.490
2020/01/31 10:24:49.3	301.360	-0.030	-0.230	-0.490
2020/01/31 10:24:49.4	301.390	-0.020	-0.230	-0.490
2020/01/31 10:24:49.5	301.410	-0.010	-0.230	-0.480
2020/01/31 10:24:49.6	301.420	-0.000	-0.230	-0.470
2020/01/31 10:24:49.7	301.440	0.010	-0.230	-0.450
2020/01/31 10:24:49.8	301.450	0.020	-0.220	-0.440
2020/01/31 10:24:49.9	301.460	0.030	-0.220	-0.420
2020/01/31 10:24:50.0	301.470	0.040	-0.220	-0.400
2020/01/31 10:24:50.1	301.480	0.050	-0.210	-0.370
2020/01/31 10:24:50.2	301.480	0.050	-0.210	-0.350
2020/01/31 10:24:50.3	301.480	0.060	-0.200	-0.320
2020/01/31 10:24:50.4	301.500	0.070	-0.200	-0.290
2020/01/31 10:24:50.5	301.500	0.070	-0.190	-0.260
2020/01/31 10:24:50.6	301.490	0.080	-0.190	-0.230
2020/01/31 10:24:50.7	301.480	0.080	-0.180	-0.200
2020/01/31 10:24:50.8	301.470	0.080	-0.180	-0.160
2020/01/31 10:24:50.9	301.460	0.080	-0.180	-0.130
2020/01/31 10:24:51.0	301.440	0.080	-0.170	-0.090
2020/01/31 10:24:51.1	301.420	0.080	-0.170	-0.060
2020/01/31 10:24:51.2	301.400	0.080	-0.170	-0.020
2020/01/31 10:24:51.3	301.380	0.080	-0.170	0.010
2020/01/31 10:24:51.4	301.360	0.080	-0.170	0.040
2020/01/31 10:24:51.5	301.330	0.070	-0.170	0.080
2020/01/31 10:24:51.6	301.310	0.070	-0.180	0.110
2020/01/31 10:24:51.7	301.280	0.060	-0.180	0.140
2020/01/31 10:24:51.8	301.260	0.050	-0.190	0.170
2020/01/31 10:24:51.9	301.230	0.040	-0.200	0.190
2020/01/31 10:24:52.0	301.200	0.040	-0.210	0.220
2020/01/31 10:24:52.1	301.170	0.030	-0.220	0.250
2020/01/31 10:24:52.2	301.150	0.020	-0.230	0.270
2020/01/31 10:24:52.3	301.120	0.000	-0.240	0.290
2020/01/31 10:24:52.4	301.070	-0.010	-0.250	0.310
2020/01/31 10:24:52.5	301.050	-0.020	-0.260	0.320
2020/01/31 10:24:52.6	301.020	-0.030	-0.270	0.340
2020/01/31 10:24:52.7	301.000	-0.040	-0.290	0.350
2020/01/31 10:24:52.8	300.970	-0.060	-0.300	0.370
2020/01/31 10:24:52.9	300.950	-0.070	-0.310	0.380
2020/01/31 10:24:53.0	300.930	-0.080	-0.320	0.380
2020/01/31 10:24:53.1	300.900	-0.100	-0.330	0.390
2020/01/31 10:24:53.2	300.880	-0.110	-0.340	0.400
2020/01/31 10:24:53.3	300.860	-0.130	-0.340	0.400
2020/01/31 10:24:53.4	300.840	-0.140	-0.350	0.400
2020/01/31 10:24:53.5	300.820	-0.150	-0.360	0.400
2020/01/31 10:24:53.6	300.800	-0.170	-0.360	0.400
2020/01/31 10:24:53.7	300.780	-0.180	-0.360	0.400
2020/01/31 10:24:53.8	300.760	-0.190	-0.360	0.400
2020/01/31 10:24:53.9	300.750	-0.210	-0.360	0.400
2020/01/31 10:24:54.0	300.730	-0.220	-0.360	0.400
2020/01/31 10:24:54.1	300.720	-0.230	-0.350	0.390
2020/01/31 10:24:54.2	300.710	-0.240	-0.350	0.390
2020/01/31 10:24:54.3	300.690	-0.250	-0.340	0.390
2020/01/31 10:24:54.4	300.670	-0.260	-0.340	0.380
2020/01/31 10:24:54.5	300.660	-0.270	-0.330	0.380
2020/01/31 10:24:54.6	300.650	-0.280	-0.320	0.380
2020/01/31 10:24:54.7	300.640	-0.290	-0.310	0.370
2020/01/31 10:24:54.8	300.630	-0.300	-0.300	0.370
2020/01/31 10:24:54.9	300.620	-0.300	-0.290	0.370
2020/01/31 10:24:55.0	300.610	-0.310	-0.280	0.370
2020/01/31 10:24:55.1	300.600	-0.310	-0.270	0.360
2020/01/31 10:24:55.2	300.590	-0.320	-0.260	0.360
2020/01/31 10:24:55.3	300.580	-0.320	-0.250	0.360
2020/01/31 10:24:55.4	300.560	-0.320	-0.240	0.360
2020/01/31 10:24:55.5	300.550	-0.320	-0.230	0.360
2020/01/31 10:24:55.6	300.540	-0.320	-0.210	0.360
2020/01/31 10:24:55.7	300.540	-0.320	-0.200	0.360
2020/01/31 10:24:55.8	300.530	-0.320	-0.200	0.360
2020/01/31 10:24:55.9	300.530	-0.310	-0.190	0.360
2020/01/31 10:24:56.0	300.520	-0.310	-0.180	0.370
2020/01/31 10:24:56.1	300.520	-0.300	-0.170	0.370
2020/01/31 10:24:56.2	300.510	-0.290	-0.160	0.370
2020/01/31 10:24:56.3	300.510	-0.290	-0.160	0.370
2020/01/31 10:24:56.4	300.500	-0.280	-0.150	0.380
2020/01/31 10:24:56.5	300.500	-0.270	-0.150	0.380
2020/01/31 10:24:56.6	300.500	-0.260	-0.140	0.380
2020/01/31 10:24:56.7	300.490	-0.250	-0.140	0.380
2020/01/31 10:24:56.8	300.490	-0.240	-0.140	0.390
2020/01/31 10:24:56.9	300.490	-0.220	-0.140	0.390
2020/01/31 10:24:57.0	300.490	-0.210	-0.140	0.390
2020/01/31 10:24:57.1	300.500	-0.200	-0.140	0.390
2020/01/31 10:24:57.2	300.500	-0.180	-0.140	0.390
2020/01/31 10:24:57.3	300.500	-0.170	-0.150	0.380
2020/01/31 10:24:57.4	300.510	-0.150	-0.150	0.380
2020/01/31 10:24:57.5	300.520	-0.130	-0.160	0.380
2020/01/31 10:24:57.6	300.530	-0.120	-0.170	0.370
2020/01/31 10:24:57.7	300.540	-0.100	-0.180	0.360
2020/01/31 10:24:57.8	300.560	-0.080	-0.190	0.340
2020/01/31 10:24:57.9	300.570	-0.060	-0.200	0.330
2020/01/31 10:24:58.0	300.590	-0.040	-0.210	0.310
2020/01/31 10:24:58.1	300.610	-0.030	-0.230	0.290
2020/01/31 10:24:58.2	300.630	-0.010	-0.240	0.270
2020/01/31 10:24:58.3	300.660	0.010	-0.250	0.250
2020/01/31 10:24:58.4	300.690	0.040	-0.270	0.220
2020/01/31 10:24:58.5	300.710	0.060	-0.280	0.200
2020/01/31 10:24:58.6	300.740	0.080	-0.290	0.170
2020/01/31 10:24:58.7	300.770	0.100	-0.300	0.150
2020/01/31 10:24:58.8	300.800	0.120	-0.310	0.120
2020/01/31 10:24:58.9	300.830	0.140	-0.320	0.090
2020/01/31 10:24:59.0	300.860	0.160	-0.330	0.060
2020/01/31 10:24:59.1	300.890	0.180	-0.340	0.040
2020/01/31 10:24:59.2	300.920	0.200	-0.340	0.010
2020/01/31 10:24:59.3	300.960	0.220	-0.340	-0.010
2020/01/31 10:24:59.4	300.990	0.240	-0.340	-0.030
2020/01/31 10:24:59.5	301.020	0.260	-0.330	-0.050
2020/01/31 10:24:59.6	301.050	0.280	-0.330	-0.070
2020/01/31 10:24:59.7	301.080	0.300	-0.320	-0.090
2020/01/31 10:24:59.8	301.110	0.310	-0.300	-0.100
2020/01/31 10:24:59.9	301.130	0.330	-0.290	-0.110
2020/01/31 10:25:00.0	301.160	0.340	-0.270	-0.110
2020/01/31 10:25:00.1	301.180	0.360	-0.250	-0.120
2020/01/31 10:25:00.2	301.200	0.370	-0.230	-0.120
2020/01/31 10:25:00.3	301.220	0.380	-0.210	-0.110
2020/01/31 10:25:00.4	301.260	0.390	-0.190	-0.100
2020/01/31 10:25:00.5	301.270	0.400	-0.160	-0.080
2020/01/31 10:25:00.6	301.280	0.410	-0.140	-0.070
2020/01/31 10:25:00.7	301.290	0.420	-0.110	-0.040
2020/01/31 10:25:00.8	301.300	0.420	-0.080	-0.020
2020/01/31 10:25:00.9	301.310	0.430	-0.050	0.010
2020/01/31 10:25:01.0	301.310	0.430	-0.030	0.040
2020/01/31 10:25:01.1	301.310	0.440	-0.000	0.080
2020/01/31 10:25:01.2	301.300	0.440	0.020	0.120
2020/01/31 10:25:01.3	301.300	0.440	0.050	0.160
2020/01/31 10:25:01.4	301.300	0.440	0.070	0.200
2020/01/31 10:25:01.5	301.290	0.440	0.090	0.250
2020/01/31 10:25:01.6	301.270	0.440	0.110	0.290
2020/01/31 10:25:01.7	301.260	0.440	0.130	0.340
2020/01/31 10:25:01.8	301.240	0.430	0.140	0.380
2020/01/31 10:25:01.9	301.220	0.430	0.140	0.430
2020/01/31 10:25:02.0	301.200	0.420	0.150	0.470
2020/01/31 10:25:02.1	301.180	0.420	0.150	0.510
2020/01/31 10:25:02.2	301.160	0.410	0.140	0.550
2020/01/31 10:25:02.3	301.140	0.400	0.140	0.590
2020/01/31 10:25:02.4	301.130	0.390	0.120	0.630
2020/01/31 10:25:02.5	301.110	0.380	0.110	0.660
2020/01/31 10:25:02.6	301.080	0.370	0.080	0.690
2020/01/31 10:25:02.7	301.060	0.360	0.060	0.720
2020/01/31 10:25:02.8	301.040	0.350	0.030	0.740
2020/01/31 10:25:02.9	301.020	0.340	-0.010	0.760
2020/01/31 10:25:03.0	301.000	0.320	-0.040	0.780
2020/01/31 10:25:03.1	300.970	0.310	-0.090	0.790
2020/01/31 10:25:03.2	300.950	0.290	-0.130	0.800
2020/01/31 10:25:03.3	300.930	0.270	-0.180	0.810
2020/01/31 10:25:03.4	300.920	0.260	-0.230	0.810
2020/01/31 10:25:03.5	300.900	0.240	-0.280	0.810
2020/01/31 10:25:03.6	300.880	0.220	-0.330	0.800
2020/01/31 10:25:03.7	300.860	0.200	-0.390	0.790
2020/01/31 10:25:03.8	300.840	0.170	-0.450	0.770
2020/01/31 10:25:03.9	300.820	0.150	-0.510	0.750
2020/01/31 10:25:04.0	300.800	0.130	-0.570	0.730
2020/01/31 10:25:04.1	300.780	0.100	-0.620	0.700
2020/01/31 10:25:04.2	300.760	0.070	-0.680	0.680
2020/01/31 10:25:04.3	300.750	0.050	-0.740	0.640
2020/01/31 10:25:04.4	300.740	0.020	-0.790	0.610
2020/01/31 10:25:04.5	300.730	-0.010	-0.840	0.570
2020/01/31 10:25:04.6	300.710	-0.040	-0.890	0.530
2020/01/31 10:25:04.7	300.700	-0.070	-0.940	0.490
2020/01/31 10:25:04.8	300.690	-0.090	-0.980	0.440
2020/01/31 10:25:04.9	300.680	-0.120	-1.020	0.400
2020/01/31 10:25:05.0	300.670	-0.150	-1.060	0.350
2020/01/31 10:25:05.1	300.660	-0.180	-1.090	0.310
2020/01/31 10:25:05.2	300.650	-0.200	-1.110	0.260
2020/01/31 10:25:05.3	300.650	-0.230	-1.140	0.210
2020/01/31 10:25:05.4	300.640	-0.250	-1.150	0.170
2020/01/31 10:25:05.5	300.640	-0.280	-1.160	0.120
2020/01/31 10:25:05.6	300.640	-0.300	-1.170	0.080
2020/01/31 10:25:05.7	300.640	-0.320	-1.170	0.040
2020/01/31 10:25:05.8	300.640	-0.340	-1.160	-0.010
2020/01/31 10:25:05.9	300.640	-0.360	-1.150	-0.050
2020/01/31 10:25:06.0	300.650	-0.380	-1.140	-0.090
2020/01/31 10:25:06.1	300.650	-0.390	-1.120	-0.120
2020/01/31 10:25:06.2	300.660	-0.400	-1.090	-0.160
2020/01/31 10:25:06.3	300.670	-0.420	-1.060	-0.190
2020/01/31 10:25:06.4	300.690	-0.430	-1.030	-0.220
2020/01/31 10:25:06.5	300.690	-0.430	-0.980	-0.250
2020/01/31 10:25:06.6	300.710	-0.440	-0.940	-0.280
2020/01/31 10:25:06.7	300.720	-0.450	-0.890	-0.310
2020/01/31 10:25:06.8	300.730	-0.450	-0.830	-0.330
2020/01/31 10:25:06.9	300.740	-0.450	-0.780	-0.350
2020/01/31 10:25:07.0	300.760	-0.450	-0.710	-0.370
2020/01/31 10:25:07.1	300.770	-0.450	-0.650	-0.380
2020/01/31 10:25:07.2	300.790	-0.450	-0.580	-0.390
2020/01/31 10:25:07.3	300.810	-0.450	-0.510	-0.400
2020/01/31 10:25:07.4	300.840	-0.440	-0.440	-0.400
2020/01/31 10:25:07.5	300.860	-0.440	-0.360	-0.410
2020/01/31 10:25:07.6	300.880	-0.430	-0.280	-0.410
2020/01/31 10:25:07.7	300.900	-0.430	-0.210	-0.400
2020/01/31 10:25:07.8	300.920	-0.420	-0.130	-0.400
2020/01/31 10:25:07.9	300.940	-0.410	-0.050	-0.390
2020/01/31 10:25:08.0	300.950	-0.400	0.030	-0.370
2020/01/31 10:25:08.1	300.970	-0.390	0.100	-0.360
2020/01/31 10:25:08.2	300.990	-0.380	0.180	-0.340
2020/01/31 10:25:08.3	301.010	-0.370	0.250	-0.320
2020/01/31 10:25:08.4	301.020	-0.350	0.330	-0.290
2020/01/31 10:25:08.5	301.040	-0.340	0.400	-0.270
2020/01/31 10:25:08.6	301.050	-0.330	0.460	-0.240
2020/01/31 10:25:08.7	301.070	-0.320	0.520	-0.210
2020/01/31 10:25:08.8	301.080	-0.300	0.580	-0.180
2020/01/31 10:25:08.9	301.090	-0.290	0.640	-0.150
2020/01/31 10:25:09.0	301.100	-0.270	0.690	-0.120
2020/01/31 10:25:09.1	301.110	-0.260	0.740	-0.090
2020/01/31 10:25:09.2	301.120	-0.250	0.780	-0.050
2020/01/31 10:25:09.3	301.120	-0.230	0.820	-0.020
2020/01/31 10:25:09.4	301.100	-0.220	0.850	0.010
2020/01/31 10:25:09.5	301.110	-0.200	0.880	0.050
2020/01/31 10:25:09.6	301.110	-0.190	0.900	0.080
2020/01/31 10:25:09.7	301.110	-0.170	0.920	0.110
2020/01/31 10:25:09.8	301.110	-0.150	0.940	0.140
2020/01/31 10:25:09.9	301.110	-0.140	0.940	0.170
2020/01/31 10:25:10.0	301.110	-0.120	0.950	0.200
2020/01/31 10:25:10.1	301.110	-0.110	0.940	0.230
2020/01/31 10:25:10.2	301.100	-0.090	0.940	0.250
2020/01/31 10:25:10.3	301.100	-0.070	0.920	0.270
2020/01/31 10:25:10.4	301.090	-0.060	0.900	0.300
2020/01/31 10:25:10.5	301.080	-0.040	0.880	0.320
2020/01/31 10:25:10.6	301.080	-0.020	0.850	0.330
2020/01/31 10:25:10.7	301.070	-0.000	0.820	0.350
2020/01/31 10:25:10.8	301.070	0.010	0.790	0.360
2020/01/31 10:25:10.9	301.060	0.030	0.750	0.370
2020/01/31 10:25:11.0	301.060	0.050	0.700	0.380
2020/01/31 10:25:11.1	301.050	0.070	0.650	0.390
2020/01/31 10:25:11.2	301.050	0.090	0.600	0.390
2020/01/31 10:25:11.3	301.040	0.100	0.540	0.390
2020/01/31 10:25:11.4	301.030	0.120	0.480	0.390
2020/01/31 10:25:11.5	301.030	0.140	0.420	0.390
2020/01/31 10:25:11.6	301.020	0.160	0.360	0.390
2020/01/31 10:25:11.7	301.010	0.180	0.290	0.380
2020/01/31 10:25:11.8	301.000	0.200	0.220	0.380
2020/01/31 10:25:11.9	301.000	0.220	0.150	0.370
2020/01/31 10:25:12.0	300.990	0.230	0.080	0.360
2020/01/31 10:25:12.1	300.980	0.250	0.010	0.350
2020/01/31 10:25:12.2	300.980	0.270	-0.070	0.330
2020/01/31 10:25:12.3	300.970	0.290	-0.140	0.320
2020/01/31 10:25:12.4	300.950	0.300	-0.210	0.310
2020/01/31 10:25:12.5	300.940	0.320	-0.290	0.290
2020/01/31 10:25:12.6	300.940	0.330	-0.360	0.280
2020/01/31 10:25:12.7	300.930	0.350	-0.440	0.260
2020/01/31 10:25:12.8	300.930	0.360	-0.510	0.240
2020/01/31 10:25:12.9	300.920	0.370	-0.580	0.220
2020/01/31 10:25:13.0	300.920	0.380	-0.650	0.210
2020/01/31 10:25:13.1	300.910	0.390	-0.720	0.190
2020/01/31 10:25:13.2	300.910	0.400	-0.780	0.170
2020/01/31 10:25:13.3	300.910	0.410	-0.840	0.150
2020/01/31 10:25:13.4	300.890	0.420	-0.900	0.130
2020/01/31 10:25:13.5	300.890	0.420	-0.960	0.120
2020/01/31 10:25:13.6	300.890	0.420	-1.010	0.100
2020/01/31 10:25:13.7	300.890	0.420	-1.070	0.090
2020/01/31 10:25:13.8	300.880	0.420	-1.110	0.070
2020/01/31 10:25:13.9	300.880	0.420	-1.160	0.060
2020/01/31 10:25:14.0	300.880	0.420	-1.200	0.040
2020/01/31 10:25:14.1	300.880	0.410	-1.240	0.030
2020/01/31 10:25:14.2	300.880	0.410	-1.270	0.020
2020/01/31 10:25:14.3	300.890	0.400	-1.300	0.010
2020/01/31 10:25:14.4	300.900	0.390	-1.330	-0.000
2020/01/31 10:25:14.5	300.900	0.380	-1.350	-0.010
2020/01/31 10:25:14.6	300.900	0.370	-1.360	-0.020
2020/01/31 10:25:14.7	300.900	0.360	-1.380	-0.020
2020/01/31 10:25:14.8	300.910	0.340	-1.390	-0.030
2020/01/31 10:25:14.9	300.910	0.330	-1.390	-0.040
2020/01/31 10:25:15.0	300.910	0.310	-1.390	-0.040
2020/01/31 10:25:15.1	300.910	0.300	-1.390	-0.040
2020/01/31 10:25:15.2	300.920	0.280	-1.380	-0.050
2020/01/31 10:25:15.3	300.920	0.260	-1.370	-0.050
2020/01/31 10:25:15.4	300.930	0.240	-1.350	-0.050
2020/01/31 10:25:15.5	300.930	0.220	-1.330	-0.050
2020/01/31 10:25:15.6	300.940	0.200	-1.310	-0.050
2020/01/31 10:25:15.7	300.940	0.180	-1.280	-0.050
2020/01/31 10:25:15.8	300.940	0.160	-1.240	-0.050
2020/01/31 10:25:15.9	300.940	0.130	-1.210	-0.050
2020/01/31 10:25:16.0	300.940	0.110	-1.160	-0.040
2020/01/31 10:25:16.1	300.950	0.080	-1.120	-0.040
2020/01/31 10:25:16.2	300.950	0.060	-1.070	-0.040
2020/01/31 10:25:16.3	300.950	0.040	-1.020	-0.030
2020/01/31 10:25:16.4	300.960	0.010	-0.960	-0.030
2020/01/31 10:25:16.5	300.960	-0.010	-0.910	-0.020
2020/01/31 10:25:16.6	300.960	-0.040	-0.850	-0.010
2020/01/31 10:25:16.7	300.960	-0.060	-0.790	-0.000
2020/01/31 10:25:16.8	300.960	-0.090	-0.730	0.010
2020/01/31 10:25:16.9	300.950	-0.110	-0.660	0.020
2020/01/31 10:25:17.0	300.950	-0.140	-0.600	0.030
2020/01/31 10:25:17.1	300.940	-0.160	-0.530	0.040
2020/01/31 10:25:17.2	300.940	-0.180	-0.470	0.060
2020/01/31 10:25:17.3	300.930	-0.200	-0.400	0.070
2020/01/31 10:25:17.4	300.930	-0.230	-0.330	0.090
2020/01/31 10:25:17.5	300.920	-0.250	-0.270	0.110
2020/01/31 10:25:17.6	300.910	-0.260	-0.200	0.120
2020/01/31 10:25:17.7	300.900	-0.280	-0.140	0.140
2020/01/31 10:25:17.8	300.890	-0.300	-0.080	0.160
2020/01/31 10:25:17.9	300.880	-0.310	-0.020	0.180
2020/01/31 10:25:18.0	300.870	-0.330	0.040	0.190
2020/01/31 10:25:18.1	300.860	-0.340	0.090	0.210
2020/01/31 10:25:18.2	300.840	-0.350	0.140	0.230
2020/01/31 10:25:18.3	300.830	-0.360	0.190	0.250
2020/01/31 10:25:18.4	300.810	-0.360	0.240	0.260
2020/01/31 10:25:18.5	300.800	-0.370	0.280	0.280
2020/01/31 10:25:18.6	300.790	-0.370	0.320	0.300
2020/01/31 10:25:18.7	300.780	-0.370	0.360	0.320
2020/01/31 10:25:18.8	300.770	-0.370	0.390	0.330
2020/01/31 10:25:18.9	300.760	-0.370	0.420	0.350
2020/01/31 10:25:19.0	300.750	-0.360	0.440	0.360
2020/01/31 10:25:19.1	300.740	-0.360	0.470	0.380
2020/01/31 10:25:19.2	300.730	-0.350	0.480	0.390
2020/01/31 10:25:19.3	300.720	-0.340	0.500	0.410
2020/01/31 10:25:19.4	300.710	-0.330	0.510	0.420
2020/01/31 10:25:19.5	300.700	-0.320	0.510	0.430
2020/01/31 10:25:19.6	300.700	-0.300	0.520	0.440
2020/01/31 10:25:19.7	300.700	-0.290	0.520	0.450
2020/01/31 10:25:19.8	300.690	-0.270	0.520	0.460
2020/01/31 10:25:19.9	300.690	-0.250	0.520	0.470
2020/01/31 10:25:20.0	300.690	-0.230	0.510	0.480
2020/01/31 10:25:20.1	300.680	-0.210	0.500	0.480
2020/01/31 10:25:20.2	300.680	-0.190	0.500	0.490
2020/01/31 10:25:20.3	300.680	-0.170	0.490	0.490
2020/01/31 10:25:20.4	300.650	-0.150	0.470	0.500
2020/01/31 10:25:20.5	300.650	-0.120	0.460	0.500
2020/01/31 10:25:20.6	300.650	-0.100	0.450	0.510
2020/01/31 10:25:20.7	300.650	-0.080	0.440	0.510
2020/01/31 10:25:20.8	300.650	-0.060	0.420	0.510
2020/01/31 10:25:20.9	300.640	-0.030	0.410	0.510
2020/01/31 10:25:21.0	300.640	-0.010	0.390	0.520
2020/01/31 10:25:21.1	300.640	0.010	0.380	0.520
2020/01/31 10:25:21.2	300.640	0.040	0.360	0.520
2020/01/31 10:25:21.3	300.630	0.060	0.350	0.520
2020/01/31 10:25:21.4	300.620	0.080	0.330	0.530
2020/01/31 10:25:21.5	300.610	0.100	0.310	0.530
2020/01/31 10:25:21.6	300.610	0.120	0.300	0.530
2020/01/31 10:25:21.7	300.600	0.140	0.280	0.540
2020/01/31 10:25:21.8	300.600	0.160	0.260	0.540
2020/01/31 10:25:21.9	300.590	0.180	0.240	0.540
2020/01/31 10:25:22.0	300.590	0.190	0.220	0.550
2020/01/31 10:25:22.1	300.580	0.210	0.200	0.550
2020/01/31 10:25:22.2	300.570	0.220	0.180	0.550
2020/01/31 10:25:22.3	300.570	0.240	0.160	0.550
2020/01/31 10:25:22.4	300.540	0.250	0.140	0.550
2020/01/31 10:25:22.5	300.540	0.260	0.110	0.550
2020/01/31 10:25:22.6	300.530	0.270	0.090	0.540
2020/01/31 10:25:22.7	300.520	0.270	0.060	0.540
2020/01/31 10:25:22.8	300.520	0.280	0.030	0.530
2020/01/31 10:25:22.9	300.510	0.290	0.010	0.530
2020/01/31 10:25:23.0	300.500	0.290	-0.020	0.520
2020/01/31 10:25:23.1	300.500	0.290	-0.050	0.510
2020/01/31 10:25:23.2	300.490	0.290	-0.070	0.500
2020/01/31 10:25:23.3	300.490	0.290	-0.100	0.490
2020/01/31 10:25:23.4	300.480	0.290	-0.130	0.480
2020/01/31 10:25:23.5	300.470	0.290	-0.150	0.470
2020/01/31 10:25:23.6	300.470	0.290	-0.180	0.460
2020/01/31 10:25:23.7	300.460	0.280	-0.200	0.450
2020/01/31 10:25:23.8	300.450	0.280	-0.230	0.440
2020/01/31 10:25:23.9	300.450	0.270	-0.250	0.420
2020/01/31 10:25:24.0	300.440	0.260	-0.270	0.410
2020/01/31 10:25:24.1	300.430	0.250	-0.290	0.400
2020/01/31 10:25:24.2	300.420	0.240	-0.310	0.380
2020/01/31 10:25:24.3	300.410	0.230	-0.330	0.370
2020/01/31 10:25:24.4	300.390	0.210	-0.350	0.360
2020/01/31 10:25:24.5	300.380	0.200	-0.370	0.340
2020/01/31 10:25:24.6	300.370	0.180	-0.390	0.320
2020/01/31 10:25:24.7	300.360	0.170	-0.400	0.300
2020/01/31 10:25:24.8	300.350	0.150	-0.420	0.290
2020/01/31 10:25:24.9	300.350	0.130	-0.440	0.260
2020/01/31 10:25:25.0	300.340	0.120	-0.460	0.240
2020/01/31 10:25:25.1	300.330	0.100	-0.480	0.220
2020/01/31 10:25:25.2	300.320	0.080	-0.490	0.190
2020/01/31 10:25:25.3	300.320	0.060	-0.510	0.170
2020/01/31 10:25:25.4	300.320	0.050	-0.540	0.130
2020/01/31 10:25:25.5	300.320	0.030	-0.560	0.100
2020/01/31 10:25:25.6	300.320	0.010	-0.580	0.070
2020/01/31 10:25:25.7	300.320	-0.000	-0.610	0.040
2020/01/31 10:25:25.8	300.330	-0.020	-0.630	-0.000
2020/01/31 10:25:25.9	300.330	-0.040	-0.660	-0.040
2020/01/31 10:25:26.0	300.340	-0.050	-0.680	-0.070
2020/01/31 10:25:26.1	300.350	-0.060	-0.710	-0.110
2020/01/31 10:25:26.2	300.360	-0.080	-0.740	-0.150
2020/01/31 10:25:26.3	300.370	-0.090	-0.770	-0.190
2020/01/31 10:25:26.4	300.390	-0.100	-0.790	-0.230
2020/01/31 10:25:26.5	300.400	-0.110	-0.820	-0.270
2020/01/31 10:25:26.6	300.420	-0.120	-0.840	-0.300
2020/01/31 10:25:26.7	300.440	-0.120	-0.870	-0.340
2020/01/31 10:25:26.8	300.460	-0.130	-0.890	-0.370
2020/01/31 10:25:26.9	300.470	-0.130	-0.910	-0.400
2020/01/31 10:25:27.0	300.490	-0.140	-0.930	-0.430
2020/01/31 10:25:27.1	300.510	-0.140	-0.950	-0.460
2020/01/31 10:25:27.2	300.540	-0.150	-0.960	-0.480
2020/01/31 10:25:27.3	300.560	-0.150	-0.970	-0.500
2020/01/31 10:25:27.4	300.590	-0.150	-0.980	-0.520
2020/01/31 10:25:27.5	300.610	-0.150	-0.990	-0.540
2020/01/31 10:25:27.6	300.630	-0.150	-0.990	-0.550
2020/01/31 10:25:27.7	300.650	-0.150	-0.980	-0.560
2020/01/31 10:25:27.8	300.670	-0.160	-0.970	-0.560
2020/01/31 10:25:27.9	300.690	-0.160	-0.960	-0.570
2020/01/31 10:25:28.0	300.710	-0.160	-0.950	-0.570
2020/01/31 10:25:28.1	300.720	-0.160	-0.930	-0.560
2020/01/31 10:25:28.2	300.740	-0.170	-0.900	-0.560
2020/01/31 10:25:28.3	300.750	-0.170	-0.880	-0.550
2020/01/31 10:25:28.4	300.790	-0.170	-0.840	-0.540
2020/01/31 10:25:28.5	300.810	-0.180	-0.810	-0.520
2020/01/31 10:25:28.6	300.820	-0.180	-0.780	-0.500
2020/01/31 10:25:28.7	300.830	-0.190	-0.740	-0.480
2020/01/31 10:25:28.8	300.830	-0.190	-0.700	-0.460
2020/01/31 10:25:28.9	300.840	-0.200	-0.660	-0.440
2020/01/31 10:25:29.0	300.850	-0.210	-0.610	-0.410
2020/01/31 10:25:29.1	300.850	-0.210	-0.570	-0.380
2020/01/31 10:25:29.2	300.850	-0.220	-0.530	-0.350
2020/01/31 10:25:29.3	300.850	-0.230	-0.480	-0.320
2020/01/31 10:25:29.4	300.870	-0.240	-0.440	-0.290
2020/01/31 10:25:29.5	300.870	-0.240	-0.390	-0.260
2020/01/31 10:25:29.6	300.870	-0.250	-0.350	-0.220
2020/01/31 10:25:29.7	300.870	-0.260	-0.300	-0.190
2020/01/31 10:25:29.8	300.870	-0.260	-0.260	-0.150
2020/01/31 10:25:29.9	300.860	-0.270	-0.220	-0.110
2020/01/31 10:25:30.0	300.860	-0.270	-0.180	-0.080
2020/01/31 10:25:30.1	300.860	-0.280	-0.140	-0.040
2020/01/31 10:25:30.2	300.860	-0.280	-0.100	-0.010
2020/01/31 10:25:30.3	300.860	-0.280	-0.070	0.030
2020/01/31 10:25:30.4	300.850	-0.280	-0.040	0.060
2020/01/31 10:25:30.5	300.850	-0.280	-0.010	0.100
2020/01/31 10:25:30.6	300.850	-0.280	0.020	0.130
2020/01/31 10:25:30.7	300.840	-0.270	0.040	0.160
2020/01/31 10:25:30.8	300.840	-0.270	0.060	0.200
2020/01/31 10:25:30.9	300.840	-0.260	0.080	0.230
2020/01/31 10:25:31.0	300.830	-0.250	0.100	0.260
2020/01/31 10:25:31.1	300.830	-0.240	0.110	0.290
2020/01/31 10:25:31.2	300.830	-0.230	0.120	0.320
2020/01/31 10:25:31.3	300.820	-0.210	0.130	0.350
2020/01/31 10:25:31.4	300.810	-0.200	0.140	0.380
2020/01/31 10:25:31.5	300.810	-0.180	0.140	0.410
2020/01/31 10:25:31.6	300.810	-0.160	0.150	0.440
2020/01/31 10:25:31.7	300.800	-0.140	0.150	0.470
2020/01/31 10:25:31.8	300.800	-0.120	0.150	0.500
2020/01/31 10:25:31.9	300.790	-0.100	0.150	0.530
2020/01/31 10:25:32.0	300.780	-0.080	0.150	0.550
2020/01/31 10:25:32.1	300.780	-0.060	0.150	0.580
2020/01/31 10:25:32.2	300.770	-0.030	0.160	0.610
2020/01/31 10:25:32.3	300.760	-0.010	0.160	0.640
2020/01/31 10:25:32.4	300.740	0.020	0.160	0.670
2020/01/31 10:25:32.5	300.730	0.040	0.170	0.700
2020/01/31 10:25:32.6	300.720	0.070	0.170	0.740
2020/01/31 10:25:32.7	300.710	0.090	0.170	0.770
2020/01/31 10:25:32.8	300.700	0.120	0.180	0.800
2020/01/31 10:25:32.9	300.680	0.140	0.180	0.830
2020/01/31 10:25:33.0	300.670	0.170	0.190	0.870
2020/01/31 10:25:33.1	300.660	0.190	0.200	0.900
2020/01/31 10:25:33.2	300.640	0.220	0.210	0.930
2020/01/31 10:25:33.3	300.630	0.240	0.210	0.970
2020/01/31 10:25:33.4	300.600	0.260	0.220	1.000
2020/01/31 10:25:33.5	300.580	0.280	0.230	1.030
2020/01/31 10:25:33.6	300.570	0.300	0.240	1.060
2020/01/31 10:25:33.7	300.550	0.320	0.250	1.090
2020/01/31 10:25:33.8	300.540	0.340	0.260	1.120
2020/01/31 10:25:33.9	300.520	0.360	0.260	1.140
2020/01/31 10:25:34.0	300.510	0.380	0.270	1.170
2020/01/31 10:25:34.1	300.500	0.390	0.270	1.190
2020/01/31 10:25:34.2	300.490	0.410	0.280	1.200
2020/01/31 10:25:34.3	300.480	0.420	0.280	1.220
2020/01/31 10:25:34.4	300.460	0.430	0.280	1.230
2020/01/31 10:25:34.5	300.460	0.440	0.270	1.240
2020/01/31 10:25:34.6	300.450	0.450	0.270	1.240
2020/01/31 10:25:34.7	300.450	0.450	0.260	1.240
2020/01/31 10:25:34.8	300.440	0.460	0.250	1.230
2020/01/31 10:25:34.9	300.440	0.460	0.240	1.220
2020/01/31 10:25:35.0	300.440	0.470	0.220	1.210
2020/01/31 10:25:35.1	300.440	0.470	0.200	1.190
2020/01/31 10:25:35.2	300.450	0.470	0.180	1.160
2020/01/31 10:25:35.3	300.450	0.460	0.160	1.130
2020/01/31 10:25:35.4	300.450	0.460	0.130	1.090
2020/01/31 10:25:35.5	300.460	0.450	0.110	1.050
2020/01/31 10:25:35.6	300.470	0.450	0.080	1.000
2020/01/31 10:25:35.7	300.480	0.440	0.040	0.950
2020/01/31 10:25:35.8	300.490	0.430	0.010	0.890
2020/01/31 10:25:35.9	300.510	0.420	-0.020	0.830
2020/01/31 10:25:36.0	300.520	0.410	-0.060	0.770
2020/01/31 10:25:36.1	300.530	0.400	-0.100	0.700
2020/01/31 10:25:36.2	300.550	0.380	-0.130	0.630
2020/01/31 10:25:36.3	300.560	0.370	-0.170	0.560
2020/01/31 10:25:36.4	300.590	0.350	-0.220	0.480
2020/01/31 10:25:36.5	300.610	0.340	-0.250	0.400
2020/01/31 10:25:36.6	300.630	0.320	-0.290	0.320
2020/01/31 10:25:36.7	300.640	0.300	-0.330	0.240
2020/01/31 10:25:36.8	300.660	0.280	-0.370	0.160
2020/01/31 10:25:36.9	300.680	0.260	-0.410	0.080
2020/01/31 10:25:37.0	300.700	0.240	-0.440	0.000
2020/01/31 10:25:37.1	300.720	0.220	-0.480	-0.080
2020/01/31 10:25:37.2	300.730	0.200	-0.510	-0.160
2020/01/31 10:25:37.3	300.750	0.180	-0.540	-0.240
2020/01/31 10:25:37.4	300.770	0.160	-0.570	-0.310
2020/01/31 10:25:37.5	300.790	0.140	-0.600	-0.380
2020/01/31 10:25:37.6	300.810	0.110	-0.620	-0.450
2020/01/31 10:25:37.7	300.830	0.090	-0.640	-0.520
2020/01/31 10:25:37.8	300.850	0.070	-0.660	-0.590
2020/01/31 10:25:37.9	300.860	0.050	-0.680	-0.660
2020/01/31 10:25:38.0	300.880	0.020	-0.690	-0.720
2020/01/31 10:25:38.1	300.900	0.000	-0.710	-0.780
2020/01/31 10:25:38.2	300.920	-0.020	-0.720	-0.830
2020/01/31 10:25:38.3	300.930	-0.040	-0.730	-0.880
2020/01/31 10:25:38.4	300.960	-0.070	-0.730	-0.930
2020/01/31 10:25:38.5	300.970	-0.090	-0.740	-0.980
2020/01/31 10:25:38.6	300.990	-0.110	-0.740	-1.020
2020/01/31 10:25:38.7	301.010	-0.130	-0.740	-1.050
2020/01/31 10:25:38.8	301.020	-0.150	-0.740	-1.080
2020/01/31 10:25:38.9	301.040	-0.170	-0.740	-1.110
2020/01/31 10:25:39.0	301.050	-0.190	-0.740	-1.130
2020/01/31 10:25:39.1	301.070	-0.210	-0.730	-1.150
2020/01/31 10:25:39.2	301.080	-0.230	-0.730	-1.170
2020/01/31 10:25:39.3	301.090	-0.250	-0.720	-1.180
2020/01/31 10:25:39.4	301.120	-0.270	-0.710	-1.180
2020/01/31 10:25:39.5	301.130	-0.280	-0.710	-1.190
2020/01/31 10:25:39.6	301.150	-0.300	-0.700	-1.180
2020/01/31 10:25:39.7	301.160	-0.310	-0.690	-1.180
2020/01/31 10:25:39.8	301.170	-0.330	-0.680	-1.170
2020/01/31 10:25:39.9	301.180	-0.340	-0.670	-1.160
2020/01/31 10:25:40.0	301.190	-0.350	-0.660	-1.140
2020/01/31 10:25:40.1	301.200	-0.360	-0.640	-1.120
2020/01/31 10:25:40.2	301.200	-0.380	-0.630	-1.090
2020/01/31 10:25:40.3	301.210	-0.380	-0.620	-1.060
2020/01/31 10:25:40.4	301.220	-0.390	-0.600	-1.030
2020/01/31 10:25:40.5	301.220	-0.400	-0.590	-0.990
2020/01/31 10:25:40.6	301.230	-0.410	-0.570	-0.950
2020/01/31 10:25:40.7	301.230	-0.410	-0.550	-0.910
2020/01/31 10:25:40.8	301.230	-0.420	-0.530	-0.860
2020/01/31 10:25:40.9	301.220	-0.420	-0.510	-0.810
2020/01/31 10:25:41.0	301.220	-0.420	-0.490	-0.760
2020/01/31 10:25:41.1	301.220	-0.420	-0.470	-0.700
2020/01/31 10:25:41.2	301.210	-0.420	-0.440	-0.640
2020/01/31 10:25:41.3	301.210	-0.420	-0.420	-0.580
2020/01/31 10:25:41.4	301.210	-0.410	-0.390	-0.510
2020/01/31 10:25:41.5	301.200	-0.410	-0.360	-0.440
2020/01/31 10:25:41.6	301.190	-0.410	-0.330	-0.370
2020/01/31 10:25:41.7	301.180	-0.400	-0.310	-0.300
2020/01/31 10:25:41.8	301.170	-0.390	-0.280	-0.230
2020/01/31 10:25:41.9	301.150	-0.390	-0.250	-0.160
2020/01/31 10:25:42.0	301.140	-0.380	-0.220	-0.090
2020/01/31 10:25:42.1	301.130	-0.370	-0.190	-0.020
2020/01/31 10:25:42.2	301.110	-0.360	-0.170	0.050
2020/01/31 10:25:42.3	301.090	-0.350	-0.140	0.120
2020/01/31 10:25:42.4	301.070	-0.340	-0.110	0.190
2020/01/31 10:25:42.5	301.060	-0.330	-0.090	0.260
2020/01/31 10:25:42.6	301.040	-0.310	-0.060	0.320
2020/01/31 10:25:42.7	301.020	-0.300	-0.040	0.390
2020/01/31 10:25:42.8	301.010	-0.290	-0.020	0.450
2020/01/31 10:25:42.9	300.990	-0.280	0.000	0.510
2020/01/31 10:25:43.0	300.970	-0.260	0.020	0.560
2020/01/31 10:25:43.1	300.950	-0.250	0.040	0.610
2020/01/31 10:25:43.2	300.930	-0.240	0.050	0.660
2020/01/31 10:25:43.3	300.920	-0.220	0.070	0.710
2020/01/31 10:25:43.4	300.880	-0.210	0.080	0.750
2020/01/31 10:25:43.5	300.860	-0.200	0.090	0.790
2020/01/31 10:25:43.6	300.840	-0.180	0.090	0.820
2020/01/31 10:25:43.7	300.830	-0.170	0.100	0.850
2020/01/31 10:25:43.8	300.810	-0.160	0.100	0.880
2020/01/31 10:25:43.9	300.790	-0.140	0.100	0.900
2020/01/31 10:25:44.0	300.780	-0.130	0.100	0.920
2020/01/31 10:25:44.1	300.760	-0.120	0.100	0.940
2020/01/31 10:25:44.2	300.750	-0.100	0.090	0.950
2020/01/31 10:25:44.3	300.730	-0.090	0.090	0.950
2020/01/31 10:25:44.4	300.710	-0.080	0.080	0.960
2020/01/31 10:25:44.5	300.700	-0.060	0.070	0.950
2020/01/31 10:25:44.6	300.690	-0.050	0.060	0.950
2020/01/31 10:25:44.7	300.680	-0.040	0.040	0.940
2020/01/31 10:25:44.8	300.680	-0.020	0.030	0.930
2020/01/31 10:25:44.9	300.670	-0.010	0.010	0.910
2020/01/31 10:25:45.0	300.670	0.000	-0.010	0.890
2020/01/31 10:25:45.1	300.670	0.020	-0.030	0.870
2020/01/31 10:25:45.2	300.660	0.030	-0.050	0.850
2020/01/31 10:25:45.3	300.660	0.040	-0.070	0.820
2020/01/31 10:25:45.4	300.670	0.060	-0.100	0.790
2020/01/31 10:25:45.5	300.670	0.070	-0.120	0.760
2020/01/31 10:25:45.6	300.670	0.090	-0.140	0.730
2020/01/31 10:25:45.7	300.680	0.100	-0.160	0.700
2020/01/31 10:25:45.8	300.690	0.110	-0.180	0.660
2020/01/31 10:25:45.9	300.690	0.130	-0.200	0.620
2020/01/31 10:25:46.0	300.700	0.140	-0.220	0.580
2020/01/31 10:25:46.1	300.710	0.160	-0.240	0.550
2020/01/31 10:25:46.2	300.720	0.170	-0.260	0.510
2020/01/31 10:25:46.3	300.730	0.190	-0.270	0.470
2020/01/31 10:25:46.4	300.740	0.200	-0.290	0.430
2020/01/31 10:25:46.5	300.750	0.220	-0.300	0.390
2020/01/31 10:25:46.6	300.760	0.230	-0.310	0.360
2020/01/31 10:25:46.7	300.770	0.250	-0.320	0.320
2020/01/31 10:25:46.8	300.790	0.260	-0.330	0.290
2020/01/31 10:25:46.9	300.800	0.280	-0.340	0.260
2020/01/31 10:25:47.0	300.810	0.290	-0.350	0.230
2020/01/31 10:25:47.1	300.820	0.310	-0.350	0.200
2020/01/31 10:25:47.2	300.840	0.320	-0.350	0.170
2020/01/31 10:25:47.3	300.850	0.330	-0.350	0.150
2020/01/31 10:25:47.4	300.850	0.340	-0.350	0.130
2020/01/31 10:25:47.5	300.860	0.360	-0.350	0.110
2020/01/31 10:25:47.6	300.860	0.370	-0.350	0.100
2020/01/31 10:25:47.7	300.870	0.380	-0.340	0.080
2020/01/31 10:25:47.8	300.880	0.390	-0.340	0.070
2020/01/31 10:25:47.9	300.890	0.400	-0.330	0.060
2020/01/31 10:25:48.0	300.890	0.410	-0.330	0.060
2020/01/31 10:25:48.1	300.890	0.410	-0.320	0.050
2020/01/31 10:25:48.2	300.900	0.420	-0.320	0.050
2020/01/31 10:25:48.3	300.900	0.420	-0.310	0.050
2020/01/31 10:25:48.4	300.900	0.430	-0.310	0.050
2020/01/31 10:25:48.5	300.910	0.430	-0.300	0.060
2020/01/31 10:25:48.6	300.910	0.430	-0.300	0.060
2020/01/31 10:25:48.7	300.910	0.430	-0.300	0.070
2020/01/31 10:25:48.8	300.910	0.430	-0.290	0.070
2020/01/31 10:25:48.9	300.910	0.430	-0.290	0.080
2020/01/31 10:25:49.0	300.910	0.430	-0.290	0.090
2020/01/31 10:25:49.1	300.910	0.430	-0.290	0.100
2020/01/31 10:25:49.2	300.910	0.420	-0.300	0.110
2020/01/31 10:25:49.3	300.910	0.420	-0.300	0.110
2020/01/31 10:25:49.4	300.920	0.410	-0.300	0.120
2020/01/31 10:25:49.5	300.920	0.400	-0.300	0.130
2020/01/31 10:25:49.6	300.920	0.390	-0.310	0.140
2020/01/31 10:25:49.7	300.930	0.380	-0.310	0.150
2020/01/31 10:25:49.8	300.930	0.370	-0.310	0.160
2020/01/31 10:25:49.9	300.930	0.360	-0.310	0.170
2020/01/31 10:25:50.0	300.930	0.350	-0.320	0.180
2020/01/31 10:25:50.1	300.940	0.330	-0.320	0.190
2020/01/31 10:25:50.2	300.940	0.320	-0.320	0.200
2020/01/31 10:25:50.3	300.940	0.300	-0.320	0.200
2020/01/31 10:25:50.4	300.940	0.290	-0.310	0.210
2020/01/31 10:25:50.5	300.940	0.270	-0.310	0.220
2020/01/31 10:25:50.6	300.950	0.250	-0.310	0.230
2020/01/31 10:25:50.7	300.960	0.230	-0.300	0.240
2020/01/31 10:25:50.8	300.960	0.210	-0.300	0.250
2020/01/31 10:25:50.9	300.970	0.190	-0.290	0.250
2020/01/31 10:25:51.0	300.980	0.170	-0.280	0.260
2020/01/31 10:25:51.1	300.990	0.150	-0.270	0.270
2020/01/31 10:25:51.2	301.000	0.130	-0.260	0.270
2020/01/31 10:25:51.3	301.010	0.110	-0.250	0.280
2020/01/31 10:25:51.4	301.010	0.090	-0.240	0.280
2020/01/31 10:25:51.5	301.020	0.060	-0.220	0.290
2020/01/31 10:25:51.6	301.030	0.040	-0.210	0.290
2020/01/31 10:25:51.7	301.040	0.020	-0.190	0.300
2020/01/31 10:25:51.8	301.050	-0.000	-0.180	0.310
2020/01/31 10:25:51.9	301.060	-0.020	-0.160	0.310
2020/01/31 10:25:52.0	301.070	-0.040	-0.140	0.320
2020/01/31 10:25:52.1	301.080	-0.060	-0.120	0.330
2020/01/31 10:25:52.2	301.080	-0.080	-0.100	0.340
2020/01/31 10:25:52.3	301.090	-0.100	-0.080	0.340
2020/01/31 10:25:52.4	301.090	-0.120	-0.060	0.350
2020/01/31 10:25:52.5	301.100	-0.140	-0.040	0.360
2020/01/31 10:25:52.6	301.100	-0.150	-0.020	0.370
2020/01/31 10:25:52.7	301.100	-0.170	0.000	0.380
2020/01/31 10:25:52.8	301.090	-0.180	0.020	0.380
2020/01/31 10:25:52.9	301.090	-0.190	0.040	0.390
2020/01/31 10:25:53.0	301.090	-0.200	0.060	0.400
2020/01/31 10:25:53.1	301.080	-0.210	0.080	0.410
2020/01/31 10:25:53.2	301.070	-0.220	0.090	0.420
2020/01/31 10:25:53.3	301.060	-0.230	0.110	0.420
2020/01/31 10:25:53.4	301.040	-0.230	0.120	0.430
2020/01/31 10:25:53.5	301.020	-0.240	0.130	0.440
2020/01/31 10:25:53.6	301.010	-0.240	0.140	0.440
2020/01/31 10:25:53.7	301.000	-0.240	0.140	0.450
2020/01/31 10:25:53.8	300.980	-0.240	0.140	0.450
2020/01/31 10:25:53.9	300.970	-0.240	0.140	0.450
2020/01/31 10:25:54.0	300.950	-0.240	0.130	0.450
2020/01/31 10:25:54.1	300.930	-0.230	0.130	0.450
2020/01/31 10:25:54.2	300.920	-0.230	0.120	0.450
2020/01/31 10:25:54.3	300.900	-0.220	0.100	0.450
2020/01/31 10:25:54.4	300.880	-0.210	0.090	0.450
2020/01/31 10:25:54.5	300.870	-0.210	0.070	0.440
2020/01/31 10:25:54.6	300.850	-0.200	0.050	0.430
2020/01/31 10:25:54.7	300.830	-0.190	0.020	0.420
2020/01/31 10:25:54.8	300.810	-0.180	-0.000	0.410
2020/01/31 10:25:54.9	300.790	-0.170	-0.030	0.400
2020/01/31 10:25:55.0	300.770	-0.160	-0.060	0.390
2020/01/31 10:25:55.1	300.750	-0.150	-0.090	0.370
2020/01/31 10:25:55.2	300.740	-0.140	-0.130	0.350
2020/01/31 10:25:55.3	300.720	-0.140	-0.160	0.330
2020/01/31 10:25:55.4	300.710	-0.130	-0.200	0.310
2020/01/31 10:25:55.5	300.690	-0.120	-0.230	0.290
2020/01/31 10:25:55.6	300.680	-0.110	-0.270	0.270
2020/01/31 10:25:55.7	300.660	-0.110	-0.300	0.240
2020/01/31 10:25:55.8	300.650	-0.100	-0.340	0.210
2020/01/31 10:25:55.9	300.640	-0.100	-0.370	0.190
2020/01/31 10:25:56.0	300.620	-0.100	-0.400	0.160
2020/01/31 10:25:56.1	300.610	-0.100	-0.430	0.130
2020/01/31 10:25:56.2	300.600	-0.100	-0.460	0.100
2020/01/31 10:25:56.3	300.590	-0.100	-0.490	0.070
2020/01/31 10:25:56.4	300.580	-0.100	-0.520	0.040
2020/01/31 10:25:56.5	300.570	-0.100	-0.540	0.010
2020/01/31 10:25:56.6	300.570	-0.110	-0.560	-0.020
2020/01/31 10:25:56.7	300.560	-0.110	-0.580	-0.050
2020/01/31 10:25:56.8	300.550	-0.110	-0.600	-0.080
2020/01/31 10:25:56.9	300.550	-0.120	-0.610	-0.110
2020/01/31 10:25:57.0	300.540	-0.130	-0.630	-0.130
2020/01/31 10:25:57.1	300.540	-0.130	-0.630	-0.160
2020/01/31 10:25:57.2	300.530	-0.140	-0.640	-0.180
2020/01/31 10:25:57.3	300.530	-0.150	-0.650	-0.200
2020/01/31 10:25:57.4	300.550	-0.160	-0.650	-0.220
2020/01/31 10:25:57.5	300.550	-0.170	-0.650	-0.230
2020/01/31 10:25:57.6	300.540	-0.170	-0.650	-0.250
2020/01/31 10:25:57.7	300.550	-0.180	-0.640	-0.260
2020/01/31 10:25:57.8	300.550	-0.190	-0.640	-0.270
2020/01/31 10:25:57.9	300.550	-0.200	-0.630	-0.280
2020/01/31 10:25:58.0	300.550	-0.210	-0.620	-0.290
2020/01/31 10:25:58.1	300.550	-0.210	-0.610	-0.290
2020/01/31 10:25:58.2	300.550	-0.220	-0.600	-0.290
2020/01/31 10:25:58.3	300.560	-0.230	-0.590	-0.290
2020/01/31 10:25:58.4	300.570	-0.230	-0.570	-0.280
2020/01/31 10:25:58.5	300.580	-0.240	-0.560	-0.280
2020/01/31 10:25:58.6	300.580	-0.240	-0.540	-0.270
2020/01/31 10:25:58.7	300.590	-0.250	-0.530	-0.260
2020/01/31 10:25:58.8	300.600	-0.250	-0.520	-0.250
2020/01/31 10:25:58.9	300.610	-0.250	-0.500	-0.230
2020/01/31 10:25:59.0	300.620	-0.250	-0.490	-0.220
2020/01/31 10:25:59.1	300.630	-0.250	-0.480	-0.200
2020/01/31 10:25:59.2	300.640	-0.250	-0.470	-0.190
2020/01/31 10:25:59.3	300.660	-0.250	-0.460	-0.170
2020/01/31 10:25:59.4	300.690	-0.250	-0.450	-0.150
2020/01/31 10:25:59.5	300.700	-0.240	-0.440	-0.140
2020/01/31 10:25:59.6	300.720	-0.230	-0.430	-0.120
2020/01/31 10:25:59.7	300.750	-0.230	-0.430	-0.100
2020/01/31 10:25:59.8	300.770	-0.220	-0.430	-0.080
2020/01/31 10:25:59.9	300.790	-0.210	-0.420	-0.070
2020/01/31 10:26:00.0	300.820	-0.190	-0.420	-0.050
2020/01/31 10:26:00.1	300.850	-0.180	-0.420	-0.030
2020/01/31 10:26:00.2	300.880	-0.170	-0.420	-0.010
2020/01/31 10:26:00.3	300.910	-0.150	-0.430	0.000
2020/01/31 10:26:00.4	300.940	-0.130	-0.430	0.020
2020/01/31 10:26:00.5	300.980	-0.110	-0.430	0.040
2020/01/31 10:26:00.6	301.010	-0.090	-0.430	0.060
2020/01/31 10:26:00.7	301.050	-0.070	-0.430	0.080
2020/01/31 10:26:00.8	301.080	-0.050	-0.430	0.090
2020/01/31 10:26:00.9	301.120	-0.020	-0.430	0.110
2020/01/31 10:26:01.0	301.160	-0.000	-0.430	0.130
2020/01/31 10:26:01.1	301.190	0.020	-0.430	0.150
2020/01/31 10:26:01.2	301.230	0.050	-0.420	0.170
2020/01/31 10:26:01.3	301.260	0.080	-0.420	0.190
2020/01/31 10:26:01.4	301.300	0.100	-0.410	0.210
2020/01/31 10:26:01.5	301.340	0.130	-0.400	0.230
2020/01/31 10:26:01.6	301.370	0.150	-0.380	0.260
2020/01/31 10:26:01.7	301.400	0.180	-0.370	0.280
2020/01/31 10:26:01.8	301.440	0.200	-0.350	0.310
2020/01/31 10:26:01.9	301.470	0.230	-0.330	0.330
2020/01/31 10:26:02.0	301.500	0.250	-0.310	0.360
2020/01/31 10:26:02.1	301.530	0.270	-0.280	0.380
2020/01/31 10:26:02.2	301.560	0.290	-0.250	0.410
2020/01/31 10:26:02.3	301.580	0.310	-0.230	0.440
2020/01/31 10:26:02.4	301.590	0.330	-0.190	0.460
2020/01/31 10:26:02.5	301.610	0.350	-0.160	0.490
2020/01/31 10:26:02.6	301.630	0.360	-0.130	0.510
2020/01/31 10:26:02.7	301.650	0.370	-0.090	0.540
2020/01/31 10:26:02.8	301.660	0.380	-0.050	0.560
2020/01/31 10:26:02.9	301.670	0.390	-0.020	0.580
2020/01/31 10:26:03.0	301.680	0.400	0.020	0.610
2020/01/31 10:26:03.1	301.680	0.400	0.060	0.630
2020/01/31 10:26:03.2	301.690	0.410	0.100	0.650
2020/01/31 10:26:03.3	301.690	0.410	0.140	0.670
2020/01/31 10:26:03.4	301.680	0.410	0.180	0.690
2020/01/31 10:26:03.5	301.670	0.400	0.220	0.710
2020/01/31 10:26:03.6	301.660	0.400	0.250	0.720
2020/01/31 10:26:03.7	301.650	0.390	0.290	0.740
2020/01/31 10:26:03.8	301.640	0.390	0.320	0.760
2020/01/31 10:26:03.9	301.620	0.380	0.350	0.770
2020/01/31 10:26:04.0	301.600	0.370	0.380	0.790
2020/01/31 10:26:04.1	301.570	0.360	0.410	0.800
2020/01/31 10:26:04.2	301.550	0.350	0.430	0.810
2020/01/31 10:26:04.3	301.520	0.330	0.450	0.820
2020/01/31 10:26:04.4	301.470	0.320	0.470	0.830
2020/01/31 10:26:04.5	301.440	0.310	0.480	0.830
2020/01/31 10:26:04.6	301.410	0.290	0.490	0.830
2020/01/31 10:26:04.7	301.370	0.280	0.500	0.830
2020/01/31 10:26:04.8	301.340	0.260	0.500	0.830
2020/01/31 10:26:04.9	301.300	0.250	0.500	0.820
2020/01/31 10:26:05.0	301.260	0.230	0.490	0.810
2020/01/31 10:26:05.1	301.220	0.220	0.480	0.790
2020/01/31 10:26:05.2	301.180	0.200	0.460	0.770
2020/01/31 10:26:05.3	301.150	0.190	0.440	0.750
2020/01/31 10:26:05.4	301.110	0.180	0.410	0.720
2020/01/31 10:26:05.5	301.080	0.160	0.380	0.690
2020/01/31 10:26:05.6	301.040	0.150	0.350	0.660
2020/01/31 10:26:05.7	301.000	0.140	0.310	0.630
2020/01/31 10:26:05.8	300.970	0.130	0.270	0.590
2020/01/31 10:26:05.9	300.940	0.120	0.220	0.550
2020/01/31 10:26:06.0	300.900	0.120	0.170	0.510
2020/01/31 10:26:06.1	300.870	0.110	0.120	0.470
2020/01/31 10:26:06.2	300.840	0.100	0.070	0.420
2020/01/31 10:26:06.3	300.820	0.100	0.010	0.370
2020/01/31 10:26:06.4	300.790	0.090	-0.050	0.330
2020/01/31 10:26:06.5	300.770	0.090	-0.100	0.280
2020/01/31 10:26:06.6	300.740	0.090	-0.160	0.230
2020/01/31 10:26:06.7	300.720	0.080	-0.220	0.180
2020/01/31 10:26:06.8	300.700	0.080	-0.280	0.120
2020/01/31 10:26:06.9	300.680	0.080	-0.330	0.070
2020/01/31 10:26:07.0	300.660	0.070	-0.390	0.020
2020/01/31 10:26:07.1	300.640	0.070	-0.440	-0.030
2020/01/31 10:26:07.2	300.620	0.070	-0.490	-0.080
2020/01/31 10:26:07.3	300.610	0.070	-0.540	-0.130
2020/01/31 10:26:07.4	300.600	0.060	-0.580	-0.180
2020/01/31 10:26:07.5	300.580	0.060	-0.620	-0.220
2020/01/31 10:26:07.6	300.570	0.050	-0.660	-0.270
2020/01/31 10:26:07.7	300.560	0.050	-0.700	-0.310
2020/01/31 10:26:07.8	300.550	0.040	-0.730	-0.350
2020/01/31 10:26:07.9	300.550	0.030	-0.750	-0.390
2020/01/31 10:26:08.0	300.540	0.020	-0.770	-0.430
2020/01/31 10:26:08.1	300.540	0.010	-0.790	-0.460
2020/01/31 10:26:08.2	300.540	0.000	-0.800	-0.490
2020/01/31 10:26:08.3	300.540	-0.010	-0.810	-0.520
2020/01/31 10:26:08.4	300.550	-0.020	-0.820	-0.540
2020/01/31 10:26:08.5	300.550	-0.030	-0.820	-0.560
2020/01/31 10:26:08.6	300.560	-0.050	-0.820	-0.580
2020/01/31 10:26:08.7	300.570	-0.060	-0.810	-0.600
2020/01/31 10:26:08.8	300.570	-0.080	-0.800	-0.620
2020/01/31 10:26:08.9	300.590	-0.100	-0.790	-0.630
2020/01/31 10:26:09.0	300.600	-0.120	-0.780	-0.640
2020/01/31 10:26:09.1	300.610	-0.140	-0.760	-0.640
2020/01/31 10:26:09.2	300.630	-0.160	-0.740	-0.650
2020/01/31 10:26:09.3	300.650	-0.180	-0.720	-0.650
2020/01/31 10:26:09.4	300.680	-0.200	-0.700	-0.650
2020/01/31 10:26:09.5	300.700	-0.220	-0.680	-0.650
2020/01/31 10:26:09.6	300.720	-0.240	-0.650	-0.640
2020/01/31 10:26:09.7	300.750	-0.260	-0.630	-0.640
2020/01/31 10:26:09.8	300.770	-0.280	-0.610	-0.630
2020/01/31 10:26:09.9	300.790	-0.300	-0.580	-0.620
2020/01/31 10:26:10.0	300.820	-0.320	-0.560	-0.620
2020/01/31 10:26:10.1	300.850	-0.340	-0.540	-0.610
2020/01/31 10:26:10.2	300.870	-0.360	-0.510	-0.600
2020/01/31 10:26:10.3	300.900	-0.380	-0.490	-0.580
2020/01/31 10:26:10.4	300.940	-0.390	-0.470	-0.570
2020/01/31 10:26:10.5	300.970	-0.410	-0.450	-0.550
2020/01/31 10:26:10.6	301.000	-0.420	-0.430	-0.540
2020/01/31 10:26:10.7	301.030	-0.430	-0.400	-0.520
2020/01/31 10:26:10.8	301.050	-0.440	-0.390	-0.500
2020/01/31 10:26:10.9	301.080	-0.440	-0.370	-0.470
2020/01/31 10:26:11.0	301.110	-0.450	-0.350	-0.450
2020/01/31 10:26:11.1	301.140	-0.450	-0.330	-0.430
2020/01/31 10:26:11.2	301.160	-0.450	-0.320	-0.400
2020/01/31 10:26:11.3	301.190	-0.450	-0.300	-0.370
2020/01/31 10:26:11.4	301.210	-0.450	-0.290	-0.350
2020/01/31 10:26:11.5	301.230	-0.440	-0.280	-0.320
2020/01/31 10:26:11.6	301.260	-0.430	-0.270	-0.290
2020/01/31 10:26:11.7	301.280	-0.420	-0.260	-0.260
2020/01/31 10:26:11.8	301.300	-0.400	-0.250	-0.230
2020/01/31 10:26:11.9	301.320	-0.390	-0.250	-0.200
2020/01/31 10:26:12.0	301.340	-0.370	-0.240	-0.160
2020/01/31 10:26:12.1	301.350	-0.350	-0.240	-0.130
2020/01/31 10:26:12.2	301.370	-0.330	-0.240	-0.100
2020/01/31 10:26:12.3	301.390	-0.300	-0.240	-0.080
2020/01/31 10:26:12.4	301.400	-0.270	-0.240	-0.040
2020/01/31 10:26:12.5	301.420	-0.250	-0.250	-0.020
2020/01/31 10:26:12.6	301.440	-0.220	-0.250	0.010
2020/01/31 10:26:12.7	301.450	-0.190	-0.250	0.030
2020/01/31 10:26:12.8	301.470	-0.160	-0.260	0.060
2020/01/31 10:26:12.9	301.480	-0.120	-0.260	0.080
2020/01/31 10:26:13.0	301.500	-0.090	-0.270	0.100
2020/01/31 10:26:13.1	301.510	-0.060	-0.270	0.120
2020/01/31 10:26:13.2	301.530	-0.030	-0.270	0.140
2020/01/31 10:26:13.3	301.540	0.000	-0.280	0.160
2020/01/31 10:26:13.4	301.530	0.030	-0.280	0.170
2020/01/31 10:26:13.5	301.540	0.060	-0.280	0.190
2020/01/31 10:26:13.6	301.550	0.090	-0.270	0.210
2020/01/31 10:26:13.7	301.550	0.120	-0.270	0.220
2020/01/31 10:26:13.8	301.560	0.140	-0.270	0.240
2020/01/31 10:26:13.9	301.560	0.160	-0.260	0.260
2020/01/31 10:26:14.0	301.560	0.190	-0.250	0.280
2020/01/31 10:26:14.1	301.560	0.200	-0.240	0.290
2020/01/31 10:26:14.2	301.560	0.220	-0.220	0.310
2020/01/31 10:26:14.3	301.560	0.230	-0.210	0.330
2020/01/31 10:26:14.4	301.550	0.240	-0.190	0.350
2020/01/31 10:26:14.5	301.540	0.250	-0.170	0.370
2020/01/31 10:26:14.6	301.530	0.260	-0.150	0.390
2020/01/31 10:26:14.7	301.530	0.260	-0.130	0.410
2020/01/31 10:26:14.8	301.520	0.260	-0.110	0.430
2020/01/31 10:26:14.9	301.510	0.260	-0.080	0.460
2020/01/31 10:26:15.0	301.490	0.260	-0.060	0.480
2020/01/31 10:26:15.1	301.480	0.250	-0.030	0.500
2020/01/31 10:26:15.2	301.470	0.250	-0.010	0.520
2020/01/31 10:26:15.3	301.450	0.240	0.020	0.540
2020/01/31 10:26:15.4	301.430	0.230	0.050	0.560
2020/01/31 10:26:15.5	301.410	0.220	0.070	0.580
2020/01/31 10:26:15.6	301.390	0.210	0.100	0.600
2020/01/31 10:26:15.7	301.370	0.190	0.120	0.620
2020/01/31 10:26:15.8	301.350	0.180	0.140	0.630
2020/01/31 10:26:15.9	301.340	0.170	0.160	0.650
2020/01/31 10:26:16.0	301.320	0.150	0.180	0.660
2020/01/31 10:26:16.1	301.290	0.140	0.200	0.680
2020/01/31 10:26:16.2	301.270	0.130	0.210	0.690
2020/01/31 10:26:16.3	301.250	0.120	0.220	0.700
2020/01/31 10:26:16.4	301.220	0.110	0.230	0.700
2020/01/31 10:26:16.5	301.200	0.100	0.240	0.710
2020/01/31 10:26:16.6	301.180	0.090	0.240	0.710
2020/01/31 10:26:16.7	301.150	0.090	0.240	0.710
2020/01/31 10:26:16.8	301.130	0.080	0.240	0.710
2020/01/31 10:26:16.9	301.110	0.080	0.230	0.710
2020/01/31 10:26:17.0	301.090	0.070	0.220	0.700
2020/01/31 10:26:17.1	301.070	0.070	0.210	0.690
2020/01/31 10:26:17.2	301.040	0.070	0.190	0.680
2020/01/31 10:26:17.3	301.020	0.080	0.170	0.670
2020/01/31 10:26:17.4	301.010	0.080	0.150	0.660
2020/01/31 10:26:17.5	300.990	0.080	0.120	0.640
2020/01/31 10:26:17.6	300.970	0.090	0.090	0.620
2020/01/31 10:26:17.7	300.950	0.100	0.060	0.600
2020/01/31 10:26:17.8	300.930	0.110	0.030	0.580
2020/01/31 10:26:17.9	300.910	0.110	-0.010	0.550
2020/01/31 10:26:18.0	300.890	0.120	-0.050	0.520
2020/01/31 10:26:18.1	300.880	0.130	-0.080	0.500
2020/01/31 10:26:18.2	300.860	0.150	-0.130	0.470
2020/01/31 10:26:18.3	300.850	0.160	-0.170	0.440
2020/01/31 10:26:18.4	300.840	0.170	-0.210	0.410
2020/01/31 10:26:18.5	300.830	0.180	-0.250	0.380
2020/01/31 10:26:18.6	300.810	0.190	-0.300	0.340
2020/01/31 10:26:18.7	300.800	0.200	-0.340	0.310
2020/01/31 10:26:18.8	300.790	0.210	-0.380	0.280
2020/01/31 10:26:18.9	300.780	0.210	-0.420	0.240
2020/01/31 10:26:19.0	300.780	0.220	-0.460	0.210
2020/01/31 10:26:19.1	300.770	0.230	-0.490	0.180
2020/01/31 10:26:19.2	300.760	0.230	-0.530	0.140
2020/01/31 10:26:19.3	300.760	0.240	-0.560	0.110
2020/01/31 10:26:19.4	300.760	0.240	-0.590	0.080
2020/01/31 10:26:19.5	300.760	0.240	-0.610	0.050
2020/01/31 10:26:19.6	300.760	0.240	-0.640	0.020
2020/01/31 10:26:19.7	300.760	0.240	-0.650	-0.010
2020/01/31 10:26:19.8	300.770	0.230	-0.670	-0.040
2020/01/31 10:26:19.9	300.770	0.220	-0.670	-0.060
2020/01/31 10:26:20.0	300.780	0.220	-0.680	-0.090
2020/01/31 10:26:20.1	300.780	0.210	-0.680	-0.110
2020/01/31 10:26:20.2	300.790	0.200	-0.680	-0.130
2020/01/31 10:26:20.3	300.800	0.180	-0.670	-0.140
2020/01/31 10:26:20.4	300.830	0.170	-0.650	-0.160
2020/01/31 10:26:20.5	300.840	0.150	-0.640	-0.170
2020/01/31 10:26:20.6	300.850	0.130	-0.620	-0.180
2020/01/31 10:26:20.7	300.860	0.120	-0.600	-0.190
2020/01/31 10:26:20.8	300.880	0.100	-0.570	-0.200
2020/01/31 10:26:20.9	300.890	0.070	-0.540	-0.210
2020/01/31 10:26:21.0	300.900	0.050	-0.510	-0.210
2020/01/31 10:26:21.1	300.920	0.030	-0.480	-0.220
2020/01/31 10:26:21.2	300.930	0.010	-0.450	-0.220
2020/01/31 10:26:21.3	300.950	-0.020	-0.420	-0.220
2020/01/31 10:26:21.4	300.980	-0.040	-0.390	-0.220
2020/01/31 10:26:21.5	301.000	-0.060	-0.350	-0.220
2020/01/31 10:26:21.6	301.010	-0.090	-0.320	-0.220
2020/01/31 10:26:21.7	301.030	-0.110	-0.290	-0.220
2020/01/31 10:26:21.8	301.040	-0.130	-0.260	-0.220
2020/01/31 10:26:21.9	301.060	-0.160	-0.230	-0.210
2020/01/31 10:26:22.0	301.080	-0.180	-0.210	-0.210
2020/01/31 10:26:22.1	301.090	-0.190	-0.190	-0.210
2020/01/31 10:26:22.2	301.110	-0.210	-0.170	-0.200
2020/01/31 10:26:22.3	301.120	-0.230	-0.150	-0.200
2020/01/31 10:26:22.4	301.130	-0.240	-0.140	-0.200
2020/01/31 10:26:22.5	301.150	-0.260	-0.130	-0.190
2020/01/31 10:26:22.6	301.170	-0.270	-0.120	-0.180
2020/01/31 10:26:22.7	301.180	-0.280	-0.120	-0.180
2020/01/31 10:26:22.8	301.200	-0.280	-0.120	-0.170
2020/01/31 10:26:22.9	301.220	-0.290	-0.130	-0.160
2020/01/31 10:26:23.0	301.230	-0.290	-0.130	-0.150
2020/01/31 10:26:23.1	301.250	-0.290	-0.140	-0.150
2020/01/31 10:26:23.2	301.270	-0.290	-0.160	-0.140
2020/01/31 10:26:23.3	301.290	-0.290	-0.170	-0.130
2020/01/31 10:26:23.4	301.300	-0.290	-0.190	-0.130
2020/01/31 10:26:23.5	301.310	-0.280	-0.210	-0.120
2020/01/31 10:26:23.6	301.330	-0.270	-0.230	-0.110
2020/01/31 10:26:23.7	301.350	-0.260	-0.250	-0.110
2020/01/31 10:26:23.8	301.370	-0.250	-0.280	-0.100
2020/01/31 10:26:23.9	301.390	-0.240	-0.300	-0.090
2020/01/31 10:26:24.0	301.410	-0.230	-0.320	-0.080
2020/01/31 10:26:24.1	301.430	-0.220	-0.350	-0.080
2020/01/31 10:26:24.2	301.450	-0.200	-0.370	-0.070
2020/01/31 10:26:24.3	301.470	-0.190	-0.390	-0.060
2020/01/31 10:26:24.4	301.480	-0.170	-0.410	-0.060
2020/01/31 10:26:24.5	301.500	-0.160	-0.430	-0.050
2020/01/31 10:26:24.6	301.510	-0.140	-0.440	-0.040
2020/01/31 10:26:24.7	301.530	-0.130	-0.450	-0.030
2020/01/31 10:26:24.8	301.540	-0.110	-0.460	-0.020
2020/01/31 10:26:24.9	301.550	-0.100	-0.470	-0.010
2020/01/31 10:26:25.0	301.560	-0.080	-0.470	0.000
2020/01/31 10:26:25.1	301.570	-0.070	-0.470	0.020
2020/01/31 10:26:25.2	301.580	-0.060	-0.470	0.030
2020/01/31 10:26:25.3	301.580	-0.040	-0.460	0.050
2020/01/31 10:26:25.4	301.600	-0.030	-0.450	0.060
2020/01/31 10:26:25.5	301.600	-0.020	-0.430	0.080
2020/01/31 10:26:25.6	301.600	-0.010	-0.420	0.100
2020/01/31 10:26:25.7	301.600	-0.000	-0.390	0.130
2020/01/31 10:26:25.8	301.590	0.010	-0.370	0.150
2020/01/31 10:26:25.9	301.580	0.010	-0.340	0.170
2020/01/31 10:26:26.0	301.570	0.020	-0.310	0.200
2020/01/31 10:26:26.1	301.560	0.020	-0.280	0.230
2020/01/31 10:26:26.2	301.550	0.030	-0.250	0.250
2020/01/31 10:26:26.3	301.530	0.030	-0.210	0.280
2020/01/31 10:26:26.4	301.510	0.030	-0.170	0.310
2020/01/31 10:26:26.5	301.500	0.030	-0.140	0.340
2020/01/31 10:26:26.6	301.480	0.030	-0.100	0.360
2020/01/31 10:26:26.7	301.460	0.030	-0.060	0.390
2020/01/31 10:26:26.8	301.440	0.030	-0.030	0.420
2020/01/31 10:26:26.9	301.430	0.030	0.010	0.440
2020/01/31 10:26:27.0	301.410	0.030	0.040	0.470
2020/01/31 10:26:27.1	301.390	0.030	0.070	0.490
2020/01/31 10:26:27.2	301.370	0.020	0.100	0.510
2020/01/31 10:26:27.3	301.350	0.020	0.130	0.530
2020/01/31 10:26:27.4	301.320	0.020	0.150	0.550
2020/01/31 10:26:27.5	301.300	0.020	0.170	0.560
2020/01/31 10:26:27.6	301.280	0.010	0.190	0.580
2020/01/31 10:26:27.7	301.270	0.010	0.210	0.590
2020/01/31 10:26:27.8	301.250	0.010	0.220	0.600
2020/01/31 10:26:27.9	301.230	0.010	0.230	0.610
2020/01/31 10:26:28.0	301.220	0.010	0.230	0.620
2020/01/31 10:26:28.1	301.200	0.010	0.240	0.620
2020/01/31 10:26:28.2	301.180	0.010	0.230	0.630
2020/01/31 10:26:28.3	301.170	0.010	0.230	0.630
2020/01/31 10:26:28.4	301.150	0.010	0.220	0.630
2020/01/31 10:26:28.5	301.130	0.020	0.210	0.620
2020/01/31 10:26:28.6	301.120	0.020	0.200	0.620
2020/01/31 10:26:28.7	301.110	0.020	0.180	0.620
2020/01/31 10:26:28.8	301.100	0.030	0.170	0.610
2020/01/31 10:26:28.9	301.090	0.030	0.150	0.600
2020/01/31 10:26:29.0	301.080	0.040	0.120	0.600
2020/01/31 10:26:29.1	301.070	0.050	0.100	0.590
2020/01/31 10:26:29.2	301.060	0.060	0.070	0.570
2020/01/31 10:26:29.3	301.050	0.070	0.040	0.560
2020/01/31 10:26:29.4	301.040	0.080	0.010	0.550
2020/01/31 10:26:29.5	301.040	0.090	-0.030	0.540
2020/01/31 10:26:29.6	301.040	0.100	-0.060	0.520
2020/01/31 10:26:29.7	301.040	0.110	-0.100	0.510
2020/01/31 10:26:29.8	301.040	0.120	-0.140	0.490
2020/01/31 10:26:29.9	301.040	0.130	-0.170	0.480
2020/01/31 10:26:30.0	301.040	0.140	-0.210	0.460
2020/01/31 10:26:30.1	301.040	0.150	-0.250	0.440
2020/01/31 10:26:30.2	301.050	0.160	-0.290	0.420
2020/01/31 10:26:30.3	301.050	0.170	-0.330	0.400
2020/01/31 10:26:30.4	301.060	0.180	-0.370	0.380
2020/01/31 10:26:30.5	301.060	0.190	-0.410	0.360
2020/01/31 10:26:30.6	301.070	0.190	-0.450	0.340
2020/01/31 10:26:30.7	301.080	0.200	-0.490	0.320
2020/01/31 10:26:30.8	301.090	0.200	-0.520	0.300
2020/01/31 10:26:30.9	301.100	0.210	-0.560	0.270
2020/01/31 10:26:31.0	301.100	0.210	-0.590	0.250
2020/01/31 10:26:31.1	301.110	0.210	-0.630	0.230
2020/01/31 10:26:31.2	301.120	0.210	-0.650	0.210
2020/01/31 10:26:31.3	301.130	0.200	-0.680	0.180
2020/01/31 10:26:31.4	301.130	0.200	-0.710	0.160
2020/01/31 10:26:31.5	301.140	0.190	-0.730	0.140
2020/01/31 10:26:31.6	301.150	0.180	-0.750	0.120
2020/01/31 10:26:31.7	301.160	0.170	-0.760	0.100
2020/01/31 10:26:31.8	301.170	0.160	-0.780	0.080
2020/01/31 10:26:31.9	301.180	0.150	-0.790	0.060
2020/01/31 10:26:32.0	301.190	0.140	-0.790	0.040
2020/01/31 10:26:32.1	301.200	0.120	-0.800	0.020
2020/01/31 10:26:32.2	301.200	0.100	-0.800	0.000
2020/01/31 10:26:32.3	301.220	0.090	-0.790	-0.020
2020/01/31 10:26:32.4	301.230	0.070	-0.790	-0.030
2020/01/31 10:26:32.5	301.240	0.050	-0.780	-0.050
2020/01/31 10:26:32.6	301.250	0.030	-0.770	-0.060
2020/01/31 10:26:32.7	301.270	0.010	-0.750	-0.080
2020/01/31 10:26:32.8	301.280	-0.010	-0.730	-0.090
2020/01/31 10:26:32.9	301.290	-0.030	-0.710	-0.100
2020/01/31 10:26:33.0	301.300	-0.050	-0.690	-0.110
2020/01/31 10:26:33.1	301.320	-0.070	-0.670	-0.120
2020/01/31 10:26:33.2	301.330	-0.090	-0.640	-0.130
2020/01/31 10:26:33.3	301.350	-0.110	-0.610	-0.140
2020/01/31 10:26:33.4	301.370	-0.130	-0.580	-0.140
2020/01/31 10:26:33.5	301.390	-0.140	-0.550	-0.150
2020/01/31 10:26:33.6	301.400	-0.160	-0.520	-0.150
2020/01/31 10:26:33.7	301.410	-0.180	-0.480	-0.160
2020/01/31 10:26:33.8	301.430	-0.190	-0.450	-0.160
2020/01/31 10:26:33.9	301.440	-0.200	-0.410	-0.160
2020/01/31 10:26:34.0	301.450	-0.210	-0.380	-0.150
2020/01/31 10:26:34.1	301.460	-0.220	-0.340	-0.150
2020/01/31 10:26:34.2	301.470	-0.230	-0.300	-0.140
2020/01/31 10:26:34.3	301.490	-0.230	-0.270	-0.130
2020/01/31 10:26:34.4	301.510	-0.240	-0.230	-0.120
2020/01/31 10:26:34.5	301.520	-0.240	-0.190	-0.110
2020/01/31 10:26:34.6	301.530	-0.240	-0.160	-0.090
2020/01/31 10:26:34.7	301.540	-0.240	-0.120	-0.070
2020/01/31 10:26:34.8	301.550	-0.240	-0.090	-0.060
2020/01/31 10:26:34.9	301.560	-0.230	-0.060	-0.040
2020/01/31 10:26:35.0	301.560	-0.230	-0.030	-0.020
2020/01/31 10:26:35.1	301.570	-0.220	0.000	0.000
2020/01/31 10:26:35.2	301.580	-0.210	0.030	0.020
2020/01/31 10:26:35.3	301.580	-0.200	0.050	0.050
2020/01/31 10:26:35.4	301.590	-0.190	0.080	0.070
2020/01/31 10:26:35.5	301.590	-0.170	0.100	0.100
2020/01/31 10:26:35.6	301.600	-0.160	0.120	0.120
2020/01/31 10:26:35.7	301.600	-0.150	0.140	0.150
2020/01/31 10:26:35.8	301.600	-0.130	0.150	0.170
2020/01/31 10:26:35.9	301.600	-0.110	0.160	0.200
2020/01/31 10:26:36.0	301.600	-0.100	0.180	0.220
2020/01/31 10:26:36.1	301.600	-0.080	0.190	0.250
2020/01/31 10:26:36.2	301.600	-0.060	0.190	0.280
2020/01/31 10:26:36.3	301.600	-0.050	0.200	0.300
2020/01/31 10:26:36.4	301.600	-0.030	0.200	0.320
2020/01/31 10:26:36.5	301.590	-0.010	0.210	0.350
2020/01/31 10:26:36.6	301.590	0.000	0.210	0.370
2020/01/31 10:26:36.7	301.590	0.020	0.210	0.400
2020/01/31 10:26:36.8	301.580	0.040	0.200	0.420
2020/01/31 10:26:36.9	301.580	0.050	0.200	0.440
2020/01/31 10:26:37.0	301.570	0.060	0.190	0.460
2020/01/31 10:26:37.1	301.560	0.080	0.190	0.480
2020/01/31 10:26:37.2	301.560	0.090	0.180	0.500
2020/01/31 10:26:37.3	301.550	0.100	0.170	0.520
2020/01/31 10:26:37.4	301.540	0.110	0.160	0.540
2020/01/31 10:26:37.5	301.530	0.120	0.150	0.550
2020/01/31 10:26:37.6	301.520	0.130	0.140	0.570
2020/01/31 10:26:37.7	301.520	0.130	0.130	0.580
2020/01/31 10:26:37.8	301.510	0.140	0.120	0.590
2020/01/31 10:26:37.9	301.500	0.140	0.110	0.600
2020/01/31 10:26:38.0	301.490	0.140	0.090	0.610
2020/01/31 10:26:38.1	301.490	0.150	0.080	0.620
2020/01/31 10:26:38.2	301.480	0.150	0.060	0.620
2020/01/31 10:26:38.3	301.470	0.150	0.050	0.630
2020/01/31 10:26:38.4	301.450	0.150	0.030	0.630
2020/01/31 10:26:38.5	301.440	0.140	0.010	0.630
2020/01/31 10:26:38.6	301.440	0.140	-0.010	0.630
2020/01/31 10:26:38.7	301.430	0.140	-0.030	0.630
2020/01/31 10:26:38.8	301.420	0.130	-0.050	0.630
2020/01/31 10:26:38.9	301.420	0.130	-0.070	0.620
2020/01/31 10:26:39.0	301.410	0.120	-0.090	0.610
2020/01/31 10:26:39.1	301.400	0.120	-0.110	0.600
2020/01/31 10:26:39.2	301.390	0.110	-0.130	0.590
2020/01/31 10:26:39.3	301.390	0.100	-0.150	0.580
2020/01/31 10:26:39.4	301.380	0.090	-0.170	0.560
2020/01/31 10:26:39.5	301.380	0.090	-0.200	0.540
2020/01/31 10:26:39.6	301.370	0.080	-0.220	0.520
2020/01/31 10:26:39.7	301.370	0.070	-0.240	0.490
2020/01/31 10:26:39.8	301.360	0.070	-0.270	0.470
2020/01/31 10:26:39.9	301.360	0.060	-0.290	0.440
2020/01/31 10:26:40.0	301.350	0.050	-0.310	0.410
2020/01/31 10:26:40.1	301.350	0.040	-0.340	0.380
2020/01/31 10:26:40.2	301.350	0.040	-0.360	0.340
2020/01/31 10:26:40.3	301.350	0.030	-0.380	0.310
2020/01/31 10:26:40.4	301.330	0.030	-0.410	0.270
2020/01/31 10:26:40.5	301.330	0.020	-0.430	0.240
2020/01/31 10:26:40.6	301.330	0.020	-0.450	0.200
2020/01/31 10:26:40.7	301.330	0.010	-0.480	0.160
2020/01/31 10:26:40.8	301.330	0.010	-0.500	0.130
2020/01/31 10:26:40.9	301.340	0.010	-0.520	0.090
2020/01/31 10:26:41.0	301.340	0.010	-0.540	0.060
2020/01/31 10:26:41.1	301.340	0.000	-0.560	0.020
2020/01/31 10:26:41.2	301.350	0.000	-0.580	-0.010
2020/01/31 10:26:41.3	301.360	0.000	-0.600	-0.040
2020/01/31 10:26:41.4	301.370	0.010	-0.630	-0.070
2020/01/31 10:26:41.5	301.380	0.010	-0.640	-0.100
2020/01/31 10:26:41.6	301.390	0.010	-0.660	-0.130
2020/01/31 10:26:41.7	301.400	0.010	-0.680	-0.160
2020/01/31 10:26:41.8	301.410	0.010	-0.690	-0.180
2020/01/31 10:26:41.9	301.420	0.020	-0.700	-0.200
2020/01/31 10:26:42.0	301.430	0.020	-0.720	-0.220
2020/01/31 10:26:42.1	301.440	0.030	-0.730	-0.240
2020/01/31 10:26:42.2	301.460	0.030	-0.730	-0.260
2020/01/31 10:26:42.3	301.470	0.030	-0.740	-0.270
2020/01/31 10:26:42.4	301.500	0.040	-0.750	-0.280
2020/01/31 10:26:42.5	301.510	0.040	-0.750	-0.290
2020/01/31 10:26:42.6	301.530	0.050	-0.750	-0.300
2020/01/31 10:26:42.7	301.540	0.050	-0.750	-0.310
2020/01/31 10:26:42.8	301.560	0.060	-0.750	-0.310
2020/01/31 10:26:42.9	301.580	0.060	-0.740	-0.310
2020/01/31 10:26:43.0	301.590	0.060	-0.740	-0.320
2020/01/31 10:26:43.1	301.610	0.070	-0.730	-0.320
2020/01/31 10:26:43.2	301.630	0.070	-0.720	-0.310
2020/01/31 10:26:43.3	301.650	0.070	-0.710	-0.310
2020/01/31 10:26:43.4	301.670	0.070	-0.690	-0.310
2020/01/31 10:26:43.5	301.690	0.070	-0.670	-0.300
2020/01/31 10:26:43.6	301.700	0.070	-0.650	-0.290
2020/01/31 10:26:43.7	301.720	0.060	-0.630	-0.290
2020/01/31 10:26:43.8	301.740	0.060	-0.610	-0.280
2020/01/31 10:26:43.9	301.760	0.050	-0.580	-0.270
2020/01/31 10:26:44.0	301.770	0.050	-0.550	-0.250
2020/01/31 10:26:44.1	301.790	0.040	-0.520	-0.240
2020/01/31 10:26:44.2	301.810	0.030	-0.480	-0.230
2020/01/31 10:26:44.3	301.820	0.020	-0.450	-0.210
2020/01/31 10:26:44.4	301.850	0.010	-0.410	-0.190
2020/01/31 10:26:44.5	301.860	-0.000	-0.370	-0.170
2020/01/31 10:26:44.6	301.870	-0.010	-0.320	-0.150
2020/01/31 10:26:44.7	301.880	-0.030	-0.280	-0.130
2020/01/31 10:26:44.8	301.890	-0.040	-0.230	-0.100
2020/01/31 10:26:44.9	301.900	-0.060	-0.190	-0.080
2020/01/31 10:26:45.0	301.900	-0.070	-0.140	-0.050
2020/01/31 10:26:45.1	301.900	-0.090	-0.090	-0.030
2020/01/31 10:26:45.2	301.900	-0.100	-0.040	0.000
2020/01/31 10:26:45.3	301.900	-0.120	0.010	0.030
2020/01/31 10:26:45.4	301.910	-0.130	0.060	0.070
2020/01/31 10:26:45.5	301.910	-0.150	0.100	0.100
2020/01/31 10:26:45.6	301.900	-0.170	0.150	0.130
2020/01/31 10:26:45.7	301.890	-0.180	0.190	0.170
2020/01/31 10:26:45.8	301.880	-0.190	0.230	0.200
2020/01/31 10:26:45.9	301.870	-0.210	0.270	0.230
2020/01/31 10:26:46.0	301.860	-0.220	0.310	0.260
2020/01/31 10:26:46.1	301.850	-0.230	0.340	0.300
2020/01/31 10:26:46.2	301.830	-0.240	0.370	0.320
2020/01/31 10:26:46.3	301.820	-0.250	0.390	0.350
2020/01/31 10:26:46.4	301.790	-0.260	0.410	0.380
2020/01/31 10:26:46.5	301.780	-0.270	0.430	0.400
2020/01/31 10:26:46.6	301.760	-0.270	0.440	0.430
2020/01/31 10:26:46.7	301.750	-0.270	0.440	0.440
2020/01/31 10:26:46.8	301.730	-0.280	0.440	0.460
2020/01/31 10:26:46.9	301.710	-0.280	0.440	0.470
2020/01/31 10:26:47.0	301.700	-0.270	0.430	0.490
2020/01/31 10:26:47.1	301.680	-0.270	0.420	0.490
2020/01/31 10:26:47.2	301.670	-0.270	0.400	0.500
2020/01/31 10:26:47.3	301.650	-0.260	0.380	0.500
2020/01/31 10:26:47.4	301.630	-0.250	0.350	0.500
2020/01/31 10:26:47.5	301.610	-0.240	0.320	0.500
2020/01/31 10:26:47.6	301.600	-0.230	0.290	0.490
2020/01/31 10:26:47.7	301.580	-0.210	0.250	0.490
2020/01/31 10:26:47.8	301.570	-0.200	0.210	0.480
2020/01/31 10:26:47.9	301.560	-0.180	0.170	0.470
2020/01/31 10:26:48.0	301.540	-0.160	0.130	0.460
2020/01/31 10:26:48.1	301.530	-0.140	0.090	0.450
2020/01/31 10:26:48.2	301.520	-0.120	0.040	0.440
2020/01/31 10:26:48.3	301.500	-0.090	-0.000	0.430
2020/01/31 10:26:48.4	301.470	-0.070	-0.050	0.410
2020/01/31 10:26:48.5	301.460	-0.050	-0.090	0.400
2020/01/31 10:26:48.6	301.450	-0.020	-0.140	0.390
2020/01/31 10:26:48.7	301.430	0.010	-0.190	0.380
2020/01/31 10:26:48.8	301.420	0.030	-0.230	0.370
2020/01/31 10:26:48.9	301.410	0.060	-0.280	0.350
2020/01/31 10:26:49.0	301.390	0.090	-0.320	0.340
2020/01/31 10:26:49.1	301.380	0.110	-0.360	0.330
2020/01/31 10:26:49.2	301.370	0.140	-0.400	0.320
2020/01/31 10:26:49.3	301.360	0.170	-0.440	0.310
2020/01/31 10:26:49.4	301.340	0.190	-0.480	0.300
2020/01/31 10:26:49.5	301.330	0.210	-0.510	0.290
2020/01/31 10:26:49.6	301.320	0.240	-0.540	0.270
2020/01/31 10:26:49.7	301.310	0.260	-0.570	0.260
2020/01/31 10:26:49.8	301.300	0.280	-0.600	0.250
2020/01/31 10:26:49.9	301.290	0.300	-0.620	0.240
2020/01/31 10:26:50.0	301.280	0.310	-0.640	0.220
2020/01/31 10:26:50.1	301.280	0.330	-0.660	0.210
2020/01/31 10:26:50.2	301.270	0.340	-0.680	0.200
2020/01/31 10:26:50.3	301.260	0.350	-0.690	0.180
2020/01/31 10:26:50.4	301.260	0.360	-0.690	0.170
2020/01/31 10:26:50.5	301.260	0.360	-0.700	0.150
2020/01/31 10:26:50.6	301.250	0.370	-0.700	0.140
2020/01/31 10:26:50.7	301.250	0.370	-0.700	0.120
2020/01/31 10:26:50.8	301.250	0.370	-0.700	0.110
2020/01/31 10:26:50.9	301.250	0.370	-0.690	0.100
2020/01/31 10:26:51.0	301.250	0.360	-0.680	0.080
2020/01/31 10:26:51.1	301.250	0.350	-0.670	0.070
2020/01/31 10:26:51.2	301.250	0.350	-0.650	0.050
2020/01/31 10:26:51.3	301.250	0.330	-0.640	0.040
2020/01/31 10:26:51.4	301.260	0.320	-0.620	0.030
2020/01/31 10:26:51.5	301.270	0.310	-0.590	0.010
2020/01/31 10:26:51.6	301.270	0.290	-0.570	-0.000
2020/01/31 10:26:51.7	301.280	0.270	-0.540	-0.020
2020/01/31 10:26:51.8	301.290	0.250	-0.520	-0.030
2020/01/31 10:26:51.9	301.290	0.230	-0.490	-0.050
2020/01/31 10:26:52.0	301.300	0.210	-0.460	-0.060
2020/01/31 10:26:52.1	301.310	0.190	-0.430	-0.080
2020/01/31 10:26:52.2	301.320	0.160	-0.400	-0.090
2020/01/31 10:26:52.3	301.330	0.140	-0.370	-0.110
2020/01/31 10:26:52.4	301.350	0.120	-0.340	-0.120
2020/01/31 10:26:52.5	301.370	0.090	-0.310	-0.140
2020/01/31 10:26:52.6	301.380	0.070	-0.280	-0.160
2020/01/31 10:26:52.7	301.390	0.040	-0.260	-0.170
2020/01/31 10:26:52.8	301.410	0.020	-0.230	-0.190
2020/01/31 10:26:52.9	301.420	-0.010	-0.200	-0.200
2020/01/31 10:26:53.0	301.430	-0.030	-0.180	-0.220
2020/01/31 10:26:53.1	301.450	-0.050	-0.160	-0.230
2020/01/31 10:26:53.2	301.460	-0.070	-0.140	-0.240
2020/01/31 10:26:53.3	301.480	-0.090	-0.120	-0.250
2020/01/31 10:26:53.4	301.490	-0.110	-0.100	-0.260
2020/01/31 10:26:53.5	301.510	-0.130	-0.090	-0.270
2020/01/31 10:26:53.6	301.520	-0.140	-0.070	-0.280
2020/01/31 10:26:53.7	301.530	-0.160	-0.060	-0.290
2020/01/31 10:26:53.8	301.540	-0.170	-0.050	-0.300
2020/01/31 10:26:53.9	301.560	-0.180	-0.050	-0.300
2020/01/31 10:26:54.0	301.570	-0.190	-0.040	-0.310
2020/01/31 10:26:54.1	301.580	-0.200	-0.040	-0.310
2020/01/31 10:26:54.2	301.590	-0.210	-0.030	-0.310
2020/01/31 10:26:54.3	301.600	-0.220	-0.030	-0.310
2020/01/31 10:26:54.4	301.620	-0.220	-0.030	-0.310
2020/01/31 10:26:54.5	301.630	-0.220	-0.040	-0.310
2020/01/31 10:26:54.6	301.640	-0.220	-0.040	-0.310
2020/01/31 10:26:54.7	301.650	-0.220	-0.040	-0.300
2020/01/31 10:26:54.8	301.660	-0.220	-0.050	-0.290
2020/01/31 10:26:54.9	301.660	-0.220	-0.060	-0.280
2020/01/31 10:26:55.0	301.670	-0.210	-0.060	-0.270
2020/01/31 10:26:55.1	301.680	-0.210	-0.070	-0.260
2020/01/31 10:26:55.2	301.680	-0.200	-0.080	-0.240
2020/01/31 10:26:55.3	301.690	-0.190	-0.090	-0.230
2020/01/31 10:26:55.4	301.700	-0.180	-0.090	-0.210
2020/01/31 10:26:55.5	301.700	-0.170	-0.100	-0.180
2020/01/31 10:26:55.6	301.700	-0.160	-0.110	-0.160
2020/01/31 10:26:55.7	301.700	-0.150	-0.120	-0.130
2020/01/31 10:26:55.8	301.700	-0.140	-0.130	-0.100
2020/01/31 10:26:55.9	301.700	-0.130	-0.130	-0.070
2020/01/31 10:26:56.0	301.690	-0.120	-0.140	-0.040
2020/01/31 10:26:56.1	301.690	-0.110	-0.150	-0.000
2020/01/31 10:26:56.2	301.680	-0.090	-0.150	0.040
2020/01/31 10:26:56.3	301.670	-0.080	-0.160	0.070
2020/01/31 10:26:56.4	301.660	-0.070	-0.170	0.120
2020/01/31 10:26:56.5	301.650	-0.060	-0.170	0.160
2020/01/31 10:26:56.6	301.640	-0.050	-0.170	0.200
2020/01/31 10:26:56.7	301.630	-0.040	-0.180	0.240
2020/01/31 10:26:56.8	301.610	-0.030	-0.180	0.280
2020/01/31 10:26:56.9	301.590	-0.020	-0.180	0.320
2020/01/31 10:26:57.0	301.580	-0.010	-0.190	0.360
2020/01/31 10:26:57.1	301.560	-0.010	-0.190	0.400
2020/01/31 10:26:57.2	301.540	0.000	-0.190	0.440
2020/01/31 10:26:57.3	301.520	0.010	-0.190	0.480
2020/01/31 10:26:57.4	301.500	0.010	-0.190	0.510
2020/01/31 10:26:57.5	301.480	0.020	-0.190	0.550
2020/01/31 10:26:57.6	301.460	0.020	-0.190	0.580
2020/01/31 10:26:57.7	301.440	0.020	-0.190	0.610
2020/01/31 10:26:57.8	301.420	0.030	-0.200	0.640
2020/01/31 10:26:57.9	301.400	0.030	-0.200	0.670
2020/01/31 10:26:58.0	301.380	0.030	-0.200	0.690
2020/01/31 10:26:58.1	301.360	0.030	-0.200	0.710
2020/01/31 10:26:58.2	301.350	0.030	-0.200	0.730
2020/01/31 10:26:58.3	301.330	0.030	-0.210	0.750
2020/01/31 10:26:58.4	301.310	0.020	-0.210	0.760
2020/01/31 10:26:58.5	301.290	0.020	-0.210	0.780
2020/01/31 10:26:58.6	301.280	0.020	-0.220	0.790
2020/01/31 10:26:58.7	301.260	0.020	-0.220	0.800
2020/01/31 10:26:58.8	301.250	0.010	-0.230	0.800
2020/01/31 10:26:58.9	301.240	0.010	-0.240	0.800
2020/01/31 10:26:59.0	301.220	0.000	-0.240	0.800
2020/01/31 10:26:59.1	301.210	-0.000	-0.250	0.800
2020/01/31 10:26:59.2	301.200	-0.010	-0.260	0.790
2020/01/31 10:26:59.3	301.190	-0.010	-0.260	0.780
2020/01/31 10:26:59.4	301.180	-0.020	-0.270	0.770
2020/01/31 10:26:59.5	301.170	-0.020	-0.280	0.760
2020/01/31 10:26:59.6	301.160	-0.030	-0.290	0.750
2020/01/31 10:26:59.7	301.160	-0.030	-0.300	0.730
2020/01/31 10:26:59.8	301.150	-0.040	-0.310	0.710
2020/01/31 10:26:59.9	301.150	-0.040	-0.310	0.690
2020/01/31 10:27:00.0	301.140	-0.050	-0.320	0.670
2020/01/31 10:27:00.1	301.140	-0.050	-0.330	0.640
2020/01/31 10:27:00.2	301.140	-0.060	-0.330	0.620
2020/01/31 10:27:00.3	301.140	-0.060	-0.340	0.590
2020/01/31 10:27:00.4	301.130	-0.070	-0.340	0.560
2020/01/31 10:27:00.5	301.140	-0.070	-0.350	0.530
2020/01/31 10:27:00.6	301.140	-0.070	-0.350	0.500
2020/01/31 10:27:00.7	301.140	-0.080	-0.350	0.470
2020/01/31 10:27:00.8	301.140	-0.080	-0.350	0.430
2020/01/31 10:27:00.9	301.150	-0.080	-0.350	0.400
2020/01/31 10:27:01.0	301.150	-0.080	-0.350	0.360
2020/01/31 10:27:01.1	301.160	-0.090	-0.340	0.330
2020/01/31 10:27:01.2	301.170	-0.090	-0.340	0.290
2020/01/31 10:27:01.3	301.170	-0.090	-0.330	0.250
2020/01/31 10:27:01.4	301.170	-0.090	-0.330	0.210
2020/01/31 10:27:01.5	301.180	-0.090	-0.320	0.180
2020/01/31 10:27:01.6	301.190	-0.090	-0.320	0.140
2020/01/31 10:27:01.7	301.200	-0.090	-0.310	0.100
2020/01/31 10:27:01.8	301.220	-0.090	-0.300	0.060
2020/01/31 10:27:01.9	301.230	-0.080	-0.290	0.020
2020/01/31 10:27:02.0	301.240	-0.080	-0.280	-0.010
2020/01/31 10:27:02.1	301.260	-0.080	-0.280	-0.050
2020/01/31 10:27:02.2	301.270	-0.080	-0.270	-0.080
2020/01/31 10:27:02.3	301.280	-0.080	-0.260	-0.110
2020/01/31 10:27:02.4	301.280	-0.070	-0.260	-0.140
2020/01/31 10:27:02.5	301.300	-0.070	-0.250	-0.170
2020/01/31 10:27:02.6	301.310	-0.060	-0.240	-0.190
2020/01/31 10:27:02.7	301.320	-0.060	-0.240	-0.210
2020/01/31 10:27:02.8	301.330	-0.060	-0.230	-0.230
2020/01/31 10:27:02.9	301.340	-0.050	-0.230	-0.240
2020/01/31 10:27:03.0	301.340	-0.050	-0.230	-0.250
2020/01/31 10:27:03.1	301.350	-0.040	-0.220	-0.260
2020/01/31 10:27:03.2	301.350	-0.040	-0.220	-0.260
2020/01/31 10:27:03.3	301.360	-0.030	-0.220	-0.260
2020/01/31 10:27:03.4	301.370	-0.020	-0.220	-0.250
2020/01/31 10:27:03.5	301.370	-0.020	-0.220	-0.240
2020/01/31 10:27:03.6	301.370	-0.010	-0.220	-0.230
2020/01/31 10:27:03.7	301.370	-0.000	-0.210	-0.220
2020/01/31 10:27:03.8	301.370	0.010	-0.220	-0.200
2020/01/31 10:27:03.9	301.370	0.010	-0.220	-0.180
2020/01/31 10:27:04.0	301.370	0.020	-0.220	-0.150
2020/01/31 10:27:04.1	301.370	0.030	-0.220	-0.130
2020/01/31 10:27:04.2	301.370	0.040	-0.220	-0.100
2020/01/31 10:27:04.3	301.360	0.050	-0.220	-0.070
2020/01/31 10:27:04.4	301.370	0.060	-0.230	-0.040
2020/01/31 10:27:04.5	301.370	0.070	-0.230	-0.010
2020/01/31 10:27:04.6	301.370	0.080	-0.230	0.030
2020/01/31 10:27:04.7	301.370	0.090	-0.230	0.070
2020/01/31 10:27:04.8	301.370	0.100	-0.230	0.100
2020/01/31 10:27:04.9	301.360	0.110	-0.240	0.140
2020/01/31 10:27:05.0	301.360	0.120	-0.240	0.180
2020/01/31 10:27:05.1	301.360	0.130	-0.240	0.220
2020/01/31 10:27:05.2	301.360	0.140	-0.240	0.260
2020/01/31 10:27:05.3	301.350	0.150	-0.240	0.300
2020/01/31 10:27:05.4	301.350	0.160	-0.240	0.340
2020/01/31 10:27:05.5	301.350	0.170	-0.240	0.370
2020/01/31 10:27:05.6	301.340	0.180	-0.240	0.410
2020/01/31 10:27:05.7	301.340	0.190	-0.230	0.450
2020/01/31 10:27:05.8	301.330	0.190	-0.230	0.480
2020/01/31 10:27:05.9	301.330	0.200	-0.230	0.520
2020/01/31 10:27:06.0	301.320	0.200	-0.220	0.550
2020/01/31 10:27:06.1	301.310	0.210	-0.220	0.580
2020/01/31 10:27:06.2	301.310	0.210	-0.210	0.610
2020/01/31 10:27:06.3	301.300	0.210	-0.210	0.630
2020/01/31 10:27:06.4	301.300	0.210	-0.200	0.660
2020/01/31 10:27:06.5	301.290	0.210	-0.190	0.680
2020/01/31 10:27:06.6	301.290	0.210	-0.190	0.700
2020/01/31 10:27:06.7	301.280	0.200	-0.180	0.720
2020/01/31 10:27:06.8	301.270	0.200	-0.170	0.740
2020/01/31 10:27:06.9	301.260	0.190	-0.160	0.750
2020/01/31 10:27:07.0	301.250	0.180	-0.150	0.760
2020/01/31 10:27:07.1	301.240	0.180	-0.140	0.770
2020/01/31 10:27:07.2	301.220	0.170	-0.130	0.770
2020/01/31 10:27:07.3	301.210	0.150	-0.130	0.780
2020/01/31 10:27:07.4	301.190	0.140	-0.120	0.770
2020/01/31 10:27:07.5	301.180	0.130	-0.110	0.770
2020/01/31 10:27:07.6	301.160	0.120	-0.100	0.760
2020/01/31 10:27:07.7	301.150	0.100	-0.100	0.760
2020/01/31 10:27:07.8	301.140	0.090	-0.090	0.750
2020/01/31 10:27:07.9	301.130	0.070	-0.090	0.730
2020/01/31 10:27:08.0	301.120	0.060	-0.080	0.720
2020/01/31 10:27:08.1	301.110	0.040	-0.080	0.700
2020/01/31 10:27:08.2	301.100	0.020	-0.080	0.680
2020/01/31 10:27:08.3	301.100	0.010	-0.080	0.660
2020/01/31 10:27:08.4	301.090	-0.010	-0.090	0.630
2020/01/31 10:27:08.5	301.090	-0.020	-0.090	0.610
2020/01/31 10:27:08.6	301.080	-0.040	-0.090	0.580
2020/01/31 10:27:08.7	301.080	-0.050	-0.100	0.550
2020/01/31 10:27:08.8	301.070	-0.060	-0.110	0.520
2020/01/31 10:27:08.9	301.070	-0.080	-0.110	0.480
2020/01/31 10:27:09.0	301.070	-0.090	-0.120	0.440
2020/01/31 10:27:09.1	301.070	-0.100	-0.140	0.410
2020/01/31 10:27:09.2	301.080	-0.110	-0.150	0.370
2020/01/31 10:27:09.3	301.080	-0.120	-0.160	0.330
2020/01/31 10:27:09.4	301.080	-0.130	-0.180	0.290
2020/01/31 10:27:09.5	301.080	-0.130	-0.190	0.250
2020/01/31 10:27:09.6	301.090	-0.140	-0.210	0.210
2020/01/31 10:27:09.7	301.100	-0.140	-0.230	0.170
2020/01/31 10:27:09.8	301.100	-0.150	-0.250	0.130
2020/01/31 10:27:09.9	301.110	-0.150	-0.260	0.090
2020/01/31 10:27:10.0	301.120	-0.150	-0.280	0.060
2020/01/31 10:27:10.1	301.130	-0.150	-0.300	0.020
2020/01/31 10:27:10.2	301.140	-0.150	-0.330	-0.010
2020/01/31 10:27:10.3	301.150	-0.150	-0.350	-0.050
2020/01/31 10:27:10.4	301.160	-0.140	-0.370	-0.080
2020/01/31 10:27:10.5	301.170	-0.140	-0.390	-0.110
2020/01/31 10:27:10.6	301.180	-0.140	-0.410	-0.140
2020/01/31 10:27:10.7	301.190	-0.130	-0.430	-0.170
2020/01/31 10:27:10.8	301.200	-0.130	-0.450	-0.190
2020/01/31 10:27:10.9	301.210	-0.120	-0.470	-0.220
2020/01/31 10:27:11.0	301.220	-0.110	-0.490	-0.240
2020/01/31 10:27:11.1	301.230	-0.110	-0.500	-0.270
2020/01/31 10:27:11.2	301.240	-0.100	-0.520	-0.290
2020/01/31 10:27:11.3	301.250	-0.090	-0.530	-0.310
2020/01/31 10:27:11.4	301.260	-0.090	-0.550	-0.320
2020/01/31 10:27:11.5	301.270	-0.080	-0.560	-0.340
2020/01/31 10:27:11.6	301.280	-0.070	-0.570	-0.350
2020/01/31 10:27:11.7	301.290	-0.070	-0.570	-0.360
2020/01/31 10:27:11.8	301.300	-0.060	-0.580	-0.370
2020/01/31 10:27:11.9	301.310	-0.060	-0.580	-0.380
2020/01/31 10:27:12.0	301.320	-0.050	-0.580	-0.380
2020/01/31 10:27:12.1	301.330	-0.050	-0.580	-0.380
2020/01/31 10:27:12.2	301.340	-0.050	-0.580	-0.380
2020/01/31 10:27:12.3	301.350	-0.040	-0.580	-0.380
2020/01/31 10:27:12.4	301.350	-0.040	-0.570	-0.370
2020/01/31 10:27:12.5	301.370	-0.040	-0.560	-0.360
2020/01/31 10:27:12.6	301.380	-0.040	-0.550	-0.350
2020/01/31 10:27:12.7	301.390	-0.040	-0.540	-0.340
2020/01/31 10:27:12.8	301.400	-0.040	-0.530	-0.330
2020/01/31 10:27:12.9	301.420	-0.040	-0.510	-0.310
2020/01/31 10:27:13.0	301.430	-0.040	-0.500	-0.290
2020/01/31 10:27:13.1	301.440	-0.040	-0.480	-0.270
2020/01/31 10:27:13.2	301.460	-0.040	-0.450	-0.250
2020/01/31 10:27:13.3	301.470	-0.040	-0.430	-0.220
2020/01/31 10:27:13.4	301.500	-0.040	-0.400	-0.190
2020/01/31 10:27:13.5	301.510	-0.050	-0.380	-0.160
2020/01/31 10:27:13.6	301.520	-0.050	-0.350	-0.130
2020/01/31 10:27:13.7	301.530	-0.050	-0.320	-0.100
2020/01/31 10:27:13.8	301.540	-0.060	-0.290	-0.060
2020/01/31 10:27:13.9	301.550	-0.060	-0.250	-0.020
2020/01/31 10:27:14.0	301.550	-0.060	-0.220	0.020
2020/01/31 10:27:14.1	301.560	-0.060	-0.180	0.060
2020/01/31 10:27:14.2	301.560	-0.070	-0.140	0.100
2020/01/31 10:27:14.3	301.560	-0.070	-0.110	0.150
2020/01/31 10:27:14.4	301.560	-0.070	-0.070	0.200
2020/01/31 10:27:14.5	301.560	-0.070	-0.030	0.240
2020/01/31 10:27:14.6	301.550	-0.080	0.000	0.290
2020/01/31 10:27:14.7	301.550	-0.080	0.040	0.340
2020/01/31 10:27:14.8	301.540	-0.080	0.070	0.380
2020/01/31 10:27:14.9	301.530	-0.080	0.110	0.430
2020/01/31 10:27:15.0	301.530	-0.080	0.140	0.470
2020/01/31 10:27:15.1	301.510	-0.080	0.160	0.510
2020/01/31 10:27:15.2	301.500	-0.070	0.190	0.550
2020/01/31 10:27:15.3	301.490	-0.070	0.210	0.590
2020/01/31 10:27:15.4	301.480	-0.070	0.230	0.630
2020/01/31 10:27:15.5	301.470	-0.060	0.240	0.660
2020/01/31 10:27:15.6	301.460	-0.060	0.250	0.700
2020/01/31 10:27:15.7	301.440	-0.050	0.260	0.720
2020/01/31 10:27:15.8	301.430	-0.040	0.260	0.750
2020/01/31 10:27:15.9	301.420	-0.040	0.260	0.770
2020/01/31 10:27:16.0	301.400	-0.030	0.250	0.790
2020/01/31 10:27:16.1	301.390	-0.020	0.240	0.800
2020/01/31 10:27:16.2	301.380	-0.010	0.220	0.820
2020/01/31 10:27:16.3	301.360	0.000	0.200	0.830
2020/01/31 10:27:16.4	301.350	0.010	0.180	0.830
2020/01/31 10:27:16.5	301.330	0.020	0.150	0.830
2020/01/31 10:27:16.6	301.320	0.040	0.120	0.840
2020/01/31 10:27:16.7	301.310	0.050	0.090	0.830
2020/01/31 10:27:16.8	301.300	0.060	0.050	0.830
2020/01/31 10:27:16.9	301.280	0.070	0.020	0.830
2020/01/31 10:27:17.0	301.270	0.090	-0.020	0.830
2020/01/31 10:27:17.1	301.260	0.100	-0.060	0.820
2020/01/31 10:27:17.2	301.250	0.110	-0.100	0.820
2020/01/31 10:27:17.3	301.230	0.120	-0.140	0.810
2020/01/31 10:27:17.4	301.210	0.130	-0.180	0.800
2020/01/31 10:27:17.5	301.200	0.140	-0.220	0.790
2020/01/31 10:27:17.6	301.190	0.150	-0.260	0.780
2020/01/31 10:27:17.7	301.180	0.160	-0.290	0.770
2020/01/31 10:27:17.8	301.170	0.160	-0.330	0.770
2020/01/31 10:27:17.9	301.160	0.170	-0.360	0.750
2020/01/31 10:27:18.0	301.160	0.170	-0.390	0.740
2020/01/31 10:27:18.1	301.150	0.170	-0.420	0.730
2020/01/31 10:27:18.2	301.150	0.170	-0.440	0.710
2020/01/31 10:27:18.3	301.140	0.170	-0.470	0.700
2020/01/31 10:27:18.4	301.140	0.160	-0.490	0.680
2020/01/31 10:27:18.5	301.130	0.160	-0.500	0.660
2020/01/31 10:27:18.6	301.130	0.150	-0.520	0.640
2020/01/31 10:27:18.7	301.130	0.140	-0.530	0.620
2020/01/31 10:27:18.8	301.130	0.120	-0.540	0.600
2020/01/31 10:27:18.9	301.120	0.110	-0.550	0.580
2020/01/31 10:27:19.0	301.120	0.090	-0.550	0.550
2020/01/31 10:27:19.1	301.120	0.080	-0.550	0.530
2020/01/31 10:27:19.2	301.120	0.060	-0.550	0.500
2020/01/31 10:27:19.3	301.120	0.040	-0.540	0.470
2020/01/31 10:27:19.4	301.130	0.020	-0.540	0.440
2020/01/31 10:27:19.5	301.130	-0.000	-0.520	0.410
2020/01/31 10:27:19.6	301.130	-0.030	-0.510	0.380
2020/01/31 10:27:19.7	301.120	-0.050	-0.500	0.350
2020/01/31 10:27:19.8	301.120	-0.070	-0.480	0.320
2020/01/31 10:27:19.9	301.120	-0.090	-0.460	0.290
2020/01/31 10:27:20.0	301.120	-0.120	-0.440	0.250
2020/01/31 10:27:20.1	301.120	-0.140	-0.420	0.220
2020/01/31 10:27:20.2	301.120	-0.160	-0.400	0.190
2020/01/31 10:27:20.3	301.110	-0.180	-0.370	0.160
2020/01/31 10:27:20.4	301.100	-0.200	-0.350	0.120
2020/01/31 10:27:20.5	301.100	-0.220	-0.320	0.090
2020/01/31 10:27:20.6	301.100	-0.230	-0.300	0.060
2020/01/31 10:27:20.7	301.100	-0.250	-0.270	0.040
2020/01/31 10:27:20.8	301.100	-0.260	-0.240	0.010
2020/01/31 10:27:20.9	301.090	-0.270	-0.210	-0.020
2020/01/31 10:27:21.0	301.090	-0.280	-0.180	-0.040
2020/01/31 10:27:21.1	301.090	-0.280	-0.160	-0.060
2020/01/31 10:27:21.2	301.090	-0.290	-0.130	-0.080
2020/01/31 10:27:21.3	301.090	-0.290	-0.100	-0.100
2020/01/31 10:27:21.4	301.090	-0.280	-0.080	-0.110
2020/01/31 10:27:21.5	301.090	-0.280	-0.060	-0.130
2020/01/31 10:27:21.6	301.090	-0.270	-0.040	-0.140
2020/01/31 10:27:21.7	301.090	-0.270	-0.020	-0.150
2020/01/31 10:27:21.8	301.090	-0.260	-0.010	-0.160
2020/01/31 10:27:21.9	301.090	-0.240	0.010	-0.170
2020/01/31 10:27:22.0	301.090	-0.230	0.020	-0.180
2020/01/31 10:27:22.1	301.100	-0.210	0.030	-0.180
2020/01/31 10:27:22.2	301.100	-0.190	0.030	-0.180
2020/01/31 10:27:22.3	301.110	-0.180	0.030	-0.180
2020/01/31 10:27:22.4	301.110	-0.150	0.030	-0.180
2020/01/31 10:27:22.5	301.120	-0.130	0.030	-0.180
2020/01/31 10:27:22.6	301.130	-0.110	0.020	-0.180
2020/01/31 10:27:22.7	301.140	-0.080	0.010	-0.170
2020/01/31 10:27:22.8	301.150	-0.060	-0.010	-0.160
2020/01/31 10:27:22.9	301.160	-0.030	-0.020	-0.150
2020/01/31 10:27:23.0	301.180	-0.010	-0.040	-0.140
2020/01/31 10:27:23.1	301.190	0.020	-0.060	-0.120
2020/01/31 10:27:23.2	301.200	0.040	-0.090	-0.100
2020/01/31 10:27:23.3	301.220	0.070	-0.110	-0.080
2020/01/31 10:27:23.4	301.240	0.100	-0.140	-0.060
2020/01/31 10:27:23.5	301.260	0.120	-0.170	-0.040
2020/01/31 10:27:23.6	301.270	0.150	-0.190	-0.010
2020/01/31 10:27:23.7	301.280	0.170	-0.220	0.010
2020/01/31 10:27:23.8	301.300	0.190	-0.250	0.040
2020/01/31 10:27:23.9	301.310	0.210	-0.280	0.070
2020/01/31 10:27:24.0	301.320	0.240	-0.300	0.100
2020/01/31 10:27:24.1	301.340	0.250	-0.330	0.130
2020/01/31 10:27:24.2	301.350	0.270	-0.360	0.160
2020/01/31 10:27:24.3	301.360	0.290	-0.380	0.190
2020/01/31 10:27:24.4	301.390	0.310	-0.410	0.220
2020/01/31 10:27:24.5	301.400	0.320	-0.430	0.240
2020/01/31 10:27:24.6	301.410	0.330	-0.450	0.270
2020/01/31 10:27:24.7	301.430	0.340	-0.470	0.300
2020/01/31 10:27:24.8	301.440	0.350	-0.490	0.320
2020/01/31 10:27:24.9	301.450	0.360	-0.510	0.350
2020/01/31 10:27:25.0	301.470	0.370	-0.530	0.370
2020/01/31 10:27:25.1	301.480	0.370	-0.550	0.390
2020/01/31 10:27:25.2	301.490	0.370	-0.560	0.410
2020/01/31 10:27:25.3	301.510	0.370	-0.570	0.430
2020/01/31 10:27:25.4	301.510	0.370	-0.580	0.450
2020/01/31 10:27:25.5	301.520	0.370	-0.590	0.460
2020/01/31 10:27:25.6	301.530	0.370	-0.590	0.480
2020/01/31 10:27:25.7	301.540	0.360	-0.600	0.490
2020/01/31 10:27:25.8	301.550	0.360	-0.600	0.500
2020/01/31 10:27:25.9	301.560	0.350	-0.590	0.510
2020/01/31 10:27:26.0	301.560	0.340	-0.590	0.510
2020/01/31 10:27:26.1	301.570	0.330	-0.580	0.520
2020/01/31 10:27:26.2	301.570	0.320	-0.570	0.520
2020/01/31 10:27:26.3	301.570	0.310	-0.560	0.530
2020/01/31 10:27:26.4	301.570	0.300	-0.550	0.530
2020/01/31 10:27:26.5	301.570	0.280	-0.530	0.530
2020/01/31 10:27:26.6	301.570	0.270	-0.520	0.530
2020/01/31 10:27:26.7	301.560	0.250	-0.500	0.530
2020/01/31 10:27:26.8	301.560	0.240	-0.480	0.530
2020/01/31 10:27:26.9	301.550	0.220	-0.450	0.530
2020/01/31 10:27:27.0	301.540	0.200	-0.430	0.530
2020/01/31 10:27:27.1	301.540	0.190	-0.410	0.520
2020/01/31 10:27:27.2	301.520	0.170	-0.380	0.520
2020/01/31 10:27:27.3	301.510	0.150	-0.350	0.510
2020/01/31 10:27:27.4	301.500	0.130	-0.330	0.510
2020/01/31 10:27:27.5	301.480	0.110	-0.300	0.510
2020/01/31 10:27:27.6	301.460	0.090	-0.270	0.500
2020/01/31 10:27:27.7	301.440	0.080	-0.240	0.490
2020/01/31 10:27:27.8	301.420	0.060	-0.210	0.490
2020/01/31 10:27:27.9	301.400	0.040	-0.180	0.480
2020/01/31 10:27:28.0	301.380	0.020	-0.150	0.470
2020/01/31 10:27:28.1	301.360	0.000	-0.120	0.460
2020/01/31 10:27:28.2	301.330	-0.020	-0.100	0.450
2020/01/31 10:27:28.3	301.300	-0.030	-0.070	0.440
2020/01/31 10:27:28.4	301.270	-0.050	-0.050	0.430
2020/01/31 10:27:28.5	301.240	-0.070	-0.020	0.410
2020/01/31 10:27:28.6	301.210	-0.080	0.000	0.400
2020/01/31 10:27:28.7	301.190	-0.100	0.020	0.390
2020/01/31 10:27:28.8	301.160	-0.110	0.040	0.370
2020/01/31 10:27:28.9	301.130	-0.130	0.060	0.360
2020/01/31 10:27:29.0	301.100	-0.140	0.070	0.340
2020/01/31 10:27:29.1	301.070	-0.150	0.090	0.330
2020/01/31 10:27:29.2	301.050	-0.160	0.100	0.310
2020/01/31 10:27:29.3	301.020	-0.170	0.100	0.300
2020/01/31 10:27:29.4	301.000	-0.180	0.110	0.280
2020/01/31 10:27:29.5	300.970	-0.190	0.110	0.260
2020/01/31 10:27:29.6	300.940	-0.200	0.100	0.250
2020/01/31 10:27:29.7	300.920	-0.210	0.100	0.230
2020/01/31 10:27:29.8	300.900	-0.220	0.090	0.220
2020/01/31 10:27:29.9	300.880	-0.220	0.080	0.200
2020/01/31 10:27:30.0	300.860	-0.230	0.060	0.180
2020/01/31 10:27:30.1	300.830	-0.230	0.050	0.170
2020/01/31 10:27:30.2	300.820	-0.240	0.030	0.150
2020/01/31 10:27:30.3	300.800	-0.240	0.000	0.140
2020/01/31 10:27:30.4	300.780	-0.240	-0.020	0.120
2020/01/31 10:27:30.5	300.770	-0.240	-0.050	0.110
2020/01/31 10:27:30.6	300.750	-0.250	-0.080	0.090
2020/01/31 10:27:30.7	300.740	-0.250	-0.100	0.080
2020/01/31 10:27:30.8	300.730	-0.250	-0.140	0.070
2020/01/31 10:27:30.9	300.720	-0.250	-0.170	0.050
2020/01/31 10:27:31.0	300.710	-0.250	-0.200	0.040
2020/01/31 10:27:31.1	300.700	-0.250	-0.230	0.030
2020/01/31 10:27:31.2	300.700	-0.250	-0.260	0.010
2020/01/31 10:27:31.3	300.690	-0.250	-0.290	0.000
2020/01/31 10:27:31.4	300.690	-0.250	-0.320	-0.000
2020/01/31 10:27:31.5	300.690	-0.250	-0.350	-0.010
2020/01/31 10:27:31.6	300.690	-0.240	-0.380	-0.020
2020/01/31 10:27:31.7	300.690	-0.240	-0.400	-0.030
2020/01/31 10:27:31.8	300.690	-0.240	-0.430	-0.040
2020/01/31 10:27:31.9	300.700	-0.240	-0.450	-0.050
2020/01/31 10:27:32.0	300.700	-0.240	-0.470	-0.060
2020/01/31 10:27:32.1	300.710	-0.240	-0.490	-0.060
2020/01/31 10:27:32.2	300.720	-0.230	-0.500	-0.070
2020/01/31 10:27:32.3	300.730	-0.230	-0.510	-0.070
2020/01/31 10:27:32.4	300.750	-0.230	-0.520	-0.080
2020/01/31 10:27:32.5	300.760	-0.230	-0.530	-0.080
2020/01/31 10:27:32.6	300.780	-0.220	-0.540	-0.080
2020/01/31 10:27:32.7	300.800	-0.220	-0.540	-0.090
2020/01/31 10:27:32.8	300.820	-0.220	-0.540	-0.090
2020/01/31 10:27:32.9	300.850	-0.220	-0.530	-0.090
2020/01/31 10:27:33.0	300.870	-0.210	-0.530	-0.090
2020/01/31 10:27:33.1	300.900	-0.210	-0.520	-0.090
2020/01/31 10:27:33.2	300.920	-0.210	-0.510	-0.090
2020/01/31 10:27:33.3	300.950	-0.210	-0.500	-0.090
2020/01/31 10:27:33.4	301.000	-0.210	-0.490	-0.080
2020/01/31 10:27:33.5	301.030	-0.200	-0.470	-0.080
2020/01/31 10:27:33.6	301.060	-0.200	-0.450	-0.080
2020/01/31 10:27:33.7	301.100	-0.200	-0.430	-0.070
2020/01/31 10:27:33.8	301.130	-0.200	-0.410	-0.070
2020/01/31 10:27:33.9	301.170	-0.200	-0.390	-0.070
2020/01/31 10:27:34.0	301.200	-0.200	-0.370	-0.060
2020/01/31 10:27:34.1	301.240	-0.200	-0.340	-0.050
2020/01/31 10:27:34.2	301.270	-0.190	-0.320	-0.040
2020/01/31 10:27:34.3	301.310	-0.190	-0.290	-0.040
2020/01/31 10:27:34.4	301.350	-0.190	-0.260	-0.020
2020/01/31 10:27:34.5	301.380	-0.190	-0.230	-0.010
2020/01/31 10:27:34.6	301.410	-0.190	-0.200	0.000
2020/01/31 10:27:34.7	301.430	-0.190	-0.170	0.020
2020/01/31 10:27:34.8	301.460	-0.180	-0.140	0.040
2020/01/31 10:27:34.9	301.480	-0.180	-0.100	0.070
2020/01/31 10:27:35.0	301.500	-0.180	-0.070	0.090
2020/01/31 10:27:35.1	301.520	-0.170	-0.040	0.120
2020/01/31 10:27:35.2	301.540	-0.170	-0.000	0.150
2020/01/31 10:27:35.3	301.550	-0.170	0.030	0.190
2020/01/31 10:27:35.4	301.560	-0.160	0.060	0.220
2020/01/31 10:27:35.5	301.560	-0.160	0.090	0.260
2020/01/31 10:27:35.6	301.570	-0.150	0.120	0.300
2020/01/31 10:27:35.7	301.570	-0.140	0.150	0.340
2020/01/31 10:27:35.8	301.570	-0.140	0.180	0.390
2020/01/31 10:27:35.9	301.560	-0.130	0.210	0.430
2020/01/31 10:27:36.0	301.560	-0.120	0.230	0.480
2020/01/31 10:27:36.1	301.550	-0.110	0.250	0.520
2020/01/31 10:27:36.2	301.530	-0.100	0.270	0.570
2020/01/31 10:27:36.3	301.520	-0.090	0.290	0.620
2020/01/31 10:27:36.4	301.490	-0.080	0.310	0.660
2020/01/31 10:27:36.5	301.480	-0.060	0.320	0.700
2020/01/31 10:27:36.6	301.460	-0.050	0.330	0.740
2020/01/31 10:27:36.7	301.440	-0.040	0.330	0.780
2020/01/31 10:27:36.8	301.420	-0.020	0.340	0.820
2020/01/31 10:27:36.9	301.400	-0.000	0.330	0.850
2020/01/31 10:27:37.0	301.370	0.010	0.330	0.890
2020/01/31 10:27:37.1	301.350	0.030	0.320	0.920
2020/01/31 10:27:37.2	301.320	0.050	0.300	0.940
2020/01/31 10:27:37.3	301.300	0.070	0.290	0.970
2020/01/31 10:27:37.4	301.270	0.090	0.260	0.990
2020/01/31 10:27:37.5	301.240	0.110	0.240	1.010
2020/01/31 10:27:37.6	301.220	0.130	0.210	1.020
2020/01/31 10:27:37.7	301.200	0.160	0.180	1.040
2020/01/31 10:27:37.8	301.170	0.180	0.140	1.050
2020/01/31 10:27:37.9	301.150	0.200	0.100	1.060
2020/01/31 10:27:38.0	301.120	0.230	0.060	1.060
2020/01/31 10:27:38.1	301.100	0.250	0.020	1.060
2020/01/31 10:27:38.2	301.080	0.280	-0.030	1.060
2020/01/31 10:27:38.3	301.060	0.300	-0.080	1.060
2020/01/31 10:27:38.4	301.040	0.330	-0.120	1.050
2020/01/31 10:27:38.5	301.020	0.350	-0.170	1.040
2020/01/31 10:27:38.6	301.000	0.380	-0.230	1.030
2020/01/31 10:27:38.7	300.980	0.400	-0.280	1.010
2020/01/31 10:27:38.8	300.960	0.430	-0.330	1.000
2020/01/31 10:27:38.9	300.950	0.450	-0.380	0.980
2020/01/31 10:27:39.0	300.930	0.480	-0.440	0.960
2020/01/31 10:27:39.1	300.920	0.500	-0.490	0.940
2020/01/31 10:27:39.2	300.900	0.520	-0.540	0.910
2020/01/31 10:27:39.3	300.890	0.540	-0.590	0.890
2020/01/31 10:27:39.4	300.890	0.560	-0.630	0.860
2020/01/31 10:27:39.5	300.880	0.580	-0.680	0.830
2020/01/31 10:27:39.6	300.870	0.590	-0.720	0.800
2020/01/31 10:27:39.7	300.860	0.610	-0.760	0.780
2020/01/31 10:27:39.8	300.850	0.620	-0.800	0.750
2020/01/31 10:27:39.9	300.850	0.630	-0.840	0.720
2020/01/31 10:27:40.0	300.840	0.640	-0.870	0.690
2020/01/31 10:27:40.1	300.830	0.640	-0.900	0.660
2020/01/31 10:27:40.2	300.830	0.650	-0.920	0.630
2020/01/31 10:27:40.3	300.820	0.650	-0.940	0.600
2020/01/31 10:27:40.4	300.820	0.650	-0.960	0.580
2020/01/31 10:27:40.5	300.820	0.640	-0.980	0.550
2020/01/31 10:27:40.6	300.820	0.630	-0.990	0.520
2020/01/31 10:27:40.7	300.820	0.620	-1.000	0.490
2020/01/31 10:27:40.8	300.820	0.610	-1.000	0.460
2020/01/31 10:27:40.9	300.810	0.600	-1.000	0.430
2020/01/31 10:27:41.0	300.810	0.580	-1.000	0.400
2020/01/31 10:27:41.1	300.810	0.560	-0.990	0.380
2020/01/31 10:27:41.2	300.820	0.540	-0.980	0.350
2020/01/31 10:27:41.3	300.820	0.510	-0.970	0.320
2020/01/31 10:27:41.4	300.830	0.480	-0.960	0.290
2020/01/31 10:27:41.5	300.830	0.450	-0.940	0.260
2020/01/31 10:27:41.6	300.840	0.420	-0.910	0.240
2020/01/31 10:27:41.7	300.840	0.390	-0.890	0.210
2020/01/31 10:27:41.8	300.840	0.350	-0.860	0.190
2020/01/31 10:27:41.9	300.850	0.310	-0.840	0.160
2020/01/31 10:27:42.0	300.850	0.270	-0.800	0.130
2020/01/31 10:27:42.1	300.860	0.230	-0.770	0.110
2020/01/31 10:27:42.2	300.870	0.180	-0.740	0.080
2020/01/31 10:27:42.3	300.870	0.140	-0.700	0.060
2020/01/31 10:27:42.4	300.890	0.090	-0.670	0.040
2020/01/31 10:27:42.5	300.890	0.050	-0.630	0.010
2020/01/31 10:27:42.6	300.900	0.000	-0.590	-0.010
2020/01/31 10:27:42.7	300.910	-0.050	-0.550	-0.030
2020/01/31 10:27:42.8	300.920	-0.090	-0.510	-0.050
2020/01/31 10:27:42.9	300.920	-0.140	-0.470	-0.070
2020/01/31 10:27:43.0	300.930	-0.190	-0.430	-0.090
2020/01/31 10:27:43.1	300.940	-0.240	-0.390	-0.110
2020/01/31 10:27:43.2	300.950	-0.280	-0.340	-0.130
2020/01/31 10:27:43.3	300.960	-0.330	-0.300	-0.140
2020/01/31 10:27:43.4	300.950	-0.370	-0.260	-0.160
2020/01/31 10:27:43.5	300.960	-0.410	-0.220	-0.170
2020/01/31 10:27:43.6	300.960	-0.460	-0.180	-0.190
2020/01/31 10:27:43.7	300.970	-0.500	-0.140	-0.200
2020/01/31 10:27:43.8	300.980	-0.530	-0.090	-0.200
2020/01/31 10:27:43.9	300.990	-0.570	-0.050	-0.210
2020/01/31 10:27:44.0	300.990	-0.600	-0.010	-0.210
2020/01/31 10:27:44.1	301.000	-0.640	0.030	-0.210
2020/01/31 10:27:44.2	301.010	-0.660	0.060	-0.210
2020/01/31 10:27:44.3	301.010	-0.690	0.100	-0.210
2020/01/31 10:27:44.4	301.010	-0.720	0.140	-0.210
2020/01/31 10:27:44.5	301.010	-0.740	0.170	-0.200
2020/01/31 10:27:44.6	301.020	-0.760	0.210	-0.190
2020/01/31 10:27:44.7	301.020	-0.770	0.240	-0.170
2020/01/31 10:27:44.8	301.020	-0.780	0.270	-0.160
2020/01/31 10:27:44.9	301.020	-0.790	0.300	-0.140
2020/01/31 10:27:45.0	301.030	-0.800	0.320	-0.120
2020/01/31 10:27:45.1	301.030	-0.800	0.340	-0.100
2020/01/31 10:27:45.2	301.030	-0.800	0.360	-0.080
2020/01/31 10:27:45.3	301.030	-0.800	0.380	-0.060
2020/01/31 10:27:45.4	301.040	-0.800	0.400	-0.030
2020/01/31 10:27:45.5	301.040	-0.790	0.410	-0.010
2020/01/31 10:27:45.6	301.040	-0.780	0.420	0.020
2020/01/31 10:27:45.7	301.040	-0.760	0.420	0.040
2020/01/31 10:27:45.8	301.050	-0.750	0.430	0.060
2020/01/31 10:27:45.9	301.050	-0.730	0.430	0.090
2020/01/31 10:27:46.0	301.050	-0.710	0.430	0.110
2020/01/31 10:27:46.1	301.050	-0.680	0.420	0.130
2020/01/31 10:27:46.2	301.060	-0.660	0.410	0.150
2020/01/31 10:27:46.3	301.060	-0.630	0.400	0.180
2020/01/31 10:27:46.4	301.060	-0.600	0.390	0.200
2020/01/31 10:27:46.5	301.060	-0.570	0.380	0.220
2020/01/31 10:27:46.6	301.060	-0.540	0.360	0.230
2020/01/31 10:27:46.7	301.060	-0.510	0.340	0.250
2020/01/31 10:27:46.8	301.060	-0.470	0.320	0.270
2020/01/31 10:27:46.9	301.070	-0.440	0.300	0.280
2020/01/31 10:27:47.0	301.070	-0.400	0.280	0.300
2020/01/31 10:27:47.1	301.070	-0.370	0.260	0.310
2020/01/31 10:27:47.2	301.070	-0.330	0.230	0.330
2020/01/31 10:27:47.3	301.070	-0.290	0.210	0.340
2020/01/31 10:27:47.4	301.060	-0.250	0.180	0.350
2020/01/31 10:27:47.5	301.060	-0.210	0.150	0.360
2020/01/31 10:27:47.6	301.060	-0.170	0.130	0.370
2020/01/31 10:27:47.7	301.060	-0.140	0.100	0.380
2020/01/31 10:27:47.8	301.060	-0.100	0.070	0.390
2020/01/31 10:27:47.9	301.060	-0.060	0.050	0.400
2020/01/31 10:27:48.0	301.060	-0.020	0.020	0.410
2020/01/31 10:27:48.1	301.060	0.020	-0.010	0.420
2020/01/31 10:27:48.2	301.060	0.060	-0.030	0.430
2020/01/31 10:27:48.3	301.060	0.090	-0.060	0.440
2020/01/31 10:27:48.4	301.060	0.130	-0.080	0.450
2020/01/31 10:27:48.5	301.060	0.170	-0.110	0.460
2020/01/31 10:27:48.6	301.060	0.200	-0.130	0.470
2020/01/31 10:27:48.7	301.070	0.230	-0.160	0.480
2020/01/31 10:27:48.8	301.070	0.270	-0.180	0.490
2020/01/31 10:27:48.9	301.070	0.300	-0.210	0.500
2020/01/31 10:27:49.0	301.070	0.330	-0.230	0.510
2020/01/31 10:27:49.1	301.080	0.360	-0.250	0.520
2020/01/31 10:27:49.2	301.080	0.390	-0.270	0.530
2020/01/31 10:27:49.3	301.080	0.420	-0.300	0.540
2020/01/31 10:27:49.4	301.080	0.440	-0.320	0.550
2020/01/31 10:27:49.5	301.080	0.470	-0.340	0.560
2020/01/31 10:27:49.6	301.090	0.490	-0.360	0.570
2020/01/31 10:27:49.7	301.090	0.510	-0.380	0.580
2020/01/31 10:27:49.8	301.090	0.530	-0.400	0.590
2020/01/31 10:27:49.9	301.090	0.550	-0.420	0.600
2020/01/31 10:27:50.0	301.090	0.560	-0.430	0.610
2020/01/31 10:27:50.1	301.090	0.570	-0.450	0.620
2020/01/31 10:27:50.2	301.090	0.580	-0.470	0.630
2020/01/31 10:27:50.3	301.090	0.590	-0.490	0.640
2020/01/31 10:27:50.4	301.070	0.600	-0.510	0.650
2020/01/31 10:27:50.5	301.070	0.600	-0.530	0.660
2020/01/31 10:27:50.6	301.070	0.600	-0.540	0.660
2020/01/31 10:27:50.7	301.070	0.600	-0.560	0.670
2020/01/31 10:27:50.8	301.070	0.600	-0.580	0.670
2020/01/31 10:27:50.9	301.070	0.590	-0.600	0.670
2020/01/31 10:27:51.0	301.070	0.590	-0.610	0.670
2020/01/31 10:27:51.1	301.070	0.580	-0.630	0.670
2020/01/31 10:27:51.2	301.070	0.570	-0.650	0.660
2020/01/31 10:27:51.3	301.070	0.550	-0.660	0.660
2020/01/31 10:27:51.4	301.080	0.540	-0.680	0.650
2020/01/31 10:27:51.5	301.080	0.520	-0.700	0.640
2020/01/31 10:27:51.6	301.080	0.500	-0.710	0.620
2020/01/31 10:27:51.7	301.080	0.480	-0.730	0.610
2020/01/31 10:27:51.8	301.090	0.460	-0.740	0.590
2020/01/31 10:27:51.9	301.090	0.430	-0.760	0.570
2020/01/31 10:27:52.0	301.090	0.410	-0.770	0.550
2020/01/31 10:27:52.1	301.100	0.380	-0.780	0.530
2020/01/31 10:27:52.2	301.100	0.350	-0.790	0.510
2020/01/31 10:27:52.3	301.110	0.330	-0.790	0.480
2020/01/31 10:27:52.4	301.120	0.300	-0.800	0.450
2020/01/31 10:27:52.5	301.130	0.270	-0.800	0.430
2020/01/31 10:27:52.6	301.140	0.240	-0.800	0.390
2020/01/31 10:27:52.7	301.150	0.210	-0.800	0.360
2020/01/31 10:27:52.8	301.150	0.170	-0.800	0.330
2020/01/31 10:27:52.9	301.160	0.140	-0.790	0.300
2020/01/31 10:27:53.0	301.170	0.110	-0.780	0.260
2020/01/31 10:27:53.1	301.180	0.080	-0.770	0.230
2020/01/31 10:27:53.2	301.190	0.050	-0.760	0.190
2020/01/31 10:27:53.3	301.200	0.020	-0.740	0.160
2020/01/31 10:27:53.4	301.220	-0.020	-0.720	0.130
2020/01/31 10:27:53.5	301.240	-0.050	-0.700	0.090
2020/01/31 10:27:53.6	301.250	-0.080	-0.670	0.060
2020/01/31 10:27:53.7	301.260	-0.110	-0.650	0.030
2020/01/31 10:27:53.8	301.270	-0.130	-0.620	-0.010
2020/01/31 10:27:53.9	301.290	-0.160	-0.590	-0.040
2020/01/31 10:27:54.0	301.300	-0.190	-0.550	-0.060
2020/01/31 10:27:54.1	301.310	-0.220	-0.520	-0.090
2020/01/31 10:27:54.2	301.320	-0.240	-0.480	-0.110
2020/01/31 10:27:54.3	301.330	-0.270	-0.450	-0.130
2020/01/31 10:27:54.4	301.340	-0.290	-0.410	-0.150
2020/01/31 10:27:54.5	301.340	-0.310	-0.370	-0.160
2020/01/31 10:27:54.6	301.350	-0.330	-0.330	-0.180
2020/01/31 10:27:54.7	301.350	-0.350	-0.290	-0.180
2020/01/31 10:27:54.8	301.350	-0.370	-0.250	-0.190
2020/01/31 10:27:54.9	301.350	-0.390	-0.210	-0.190
2020/01/31 10:27:55.0	301.350	-0.400	-0.180	-0.200
2020/01/31 10:27:55.1	301.350	-0.410	-0.140	-0.200
2020/01/31 10:27:55.2	301.340	-0.430	-0.110	-0.190
2020/01/31 10:27:55.3	301.340	-0.440	-0.070	-0.190
2020/01/31 10:27:55.4	301.350	-0.440	-0.050	-0.180
2020/01/31 10:27:55.5	301.340	-0.450	-0.020	-0.170
2020/01/31 10:27:55.6	301.340	-0.450	0.010	-0.160
2020/01/31 10:27:55.7	301.330	-0.450	0.030	-0.140
2020/01/31 10:27:55.8	301.320	-0.450	0.050	-0.130
2020/01/31 10:27:55.9	301.320	-0.450	0.070	-0.110
2020/01/31 10:27:56.0	301.310	-0.440	0.080	-0.100
2020/01/31 10:27:56.1	301.300	-0.440	0.100	-0.080
2020/01/31 10:27:56.2	301.300	-0.430	0.100	-0.060
2020/01/31 10:27:56.3	301.290	-0.410	0.110	-0.040
2020/01/31 10:27:56.4	301.290	-0.400	0.120	-0.030
2020/01/31 10:27:56.5	301.280	-0.380	0.120	-0.010
2020/01/31 10:27:56.6	301.270	-0.360	0.120	0.010
2020/01/31 10:27:56.7	301.270	-0.340	0.120	0.030
2020/01/31 10:27:56.8	301.260	-0.320	0.120	0.050
2020/01/31 10:27:56.9	301.250	-0.290	0.110	0.070
2020/01/31 10:27:57.0	301.250	-0.270	0.110	0.090
2020/01/31 10:27:57.1	301.240	-0.240	0.110	0.110
2020/01/31 10:27:57.2	301.240	-0.210	0.100	0.140
2020/01/31 10:27:57.3	301.230	-0.180	0.100	0.160
2020/01/31 10:27:57.4	301.230	-0.150	0.090	0.180
2020/01/31 10:27:57.5	301.230	-0.110	0.090	0.200
2020/01/31 10:27:57.6	301.220	-0.080	0.080	0.230
2020/01/31 10:27:57.7	301.220	-0.050	0.080	0.250
2020/01/31 10:27:57.8	301.220	-0.010	0.080	0.270
2020/01/31 10:27:57.9	301.210	0.020	0.080	0.300
2020/01/31 10:27:58.0	301.210	0.050	0.080	0.320
2020/01/31 10:27:58.1	301.210	0.080	0.090	0.340
2020/01/31 10:27:58.2	301.210	0.110	0.090	0.360
2020/01/31 10:27:58.3	301.210	0.140	0.090	0.380
2020/01/31 10:27:58.4	301.200	0.170	0.100	0.400
2020/01/31 10:27:58.5	301.210	0.200	0.110	0.420
2020/01/31 10:27:58.6	301.210	0.230	0.110	0.440
2020/01/31 10:27:58.7	301.210	0.250	0.120	0.460
2020/01/31 10:27:58.8	301.220	0.280	0.120	0.470
2020/01/31 10:27:58.9	301.230	0.300	0.130	0.490
2020/01/31 10:27:59.0	301.230	0.320	0.140	0.500
2020/01/31 10:27:59.1	301.240	0.330	0.140	0.510
2020/01/31 10:27:59.2	301.250	0.350	0.150	0.520
2020/01/31 10:27:59.3	301.260	0.360	0.150	0.530
2020/01/31 10:27:59.4	301.280	0.370	0.150	0.540
2020/01/31 10:27:59.5	301.290	0.380	0.160	0.550
2020/01/31 10:27:59.6	301.300	0.390	0.160	0.550
2020/01/31 10:27:59.7	301.320	0.400	0.160	0.550
2020/01/31 10:27:59.8	301.330	0.400	0.150	0.560
2020/01/31 10:27:59.9	301.340	0.400	0.150	0.550
2020/01/31 10:28:00.0	301.350	0.400	0.140	0.550
2020/01/31 10:28:00.1	301.370	0.400	0.140	0.550
2020/01/31 10:28:00.2	301.380	0.400	0.120	0.540
2020/01/31 10:28:00.3	301.390	0.390	0.110	0.540
2020/01/31 10:28:00.4	301.390	0.380	0.100	0.530
2020/01/31 10:28:00.5	301.400	0.370	0.080	0.520
2020/01/31 10:28:00.6	301.410	0.360	0.060	0.500
2020/01/31 10:28:00.7	301.420	0.350	0.040	0.490
2020/01/31 10:28:00.8	301.430	0.330	0.020	0.470
2020/01/31 10:28:00.9	301.440	0.320	-0.000	0.450
2020/01/31 10:28:01.0	301.450	0.300	-0.030	0.430
2020/01/31 10:28:01.1	301.460	0.280	-0.060	0.410
2020/01/31 10:28:01.2	301.470	0.260	-0.090	0.380
2020/01/31 10:28:01.3	301.480	0.240	-0.120	0.360
2020/01/31 10:28:01.4	301.500	0.220	-0.150	0.330
2020/01/31 10:28:01.5	301.510	0.200	-0.180	0.300
2020/01/31 10:28:01.6	301.520	0.170	-0.220	0.270
2020/01/31 10:28:01.7	301.530	0.150	-0.250	0.240
2020/01/31 10:28:01.8	301.540	0.120	-0.280	0.200
2020/01/31 10:28:01.9	301.550	0.100	-0.320	0.170
2020/01/31 10:28:02.0	301.550	0.070	-0.350	0.130
2020/01/31 10:28:02.1	301.560	0.050	-0.380	0.100
2020/01/31 10:28:02.2	301.570	0.020	-0.410	0.060
2020/01/31 10:28:02.3	301.580	-0.000	-0.440	0.030
2020/01/31 10:28:02.4	301.570	-0.030	-0.470	-0.010
2020/01/31 10:28:02.5	301.580	-0.050	-0.500	-0.040
2020/01/31 10:28:02.6	301.590	-0.080	-0.530	-0.080
2020/01/31 10:28:02.7	301.590	-0.100	-0.560	-0.120
2020/01/31 10:28:02.8	301.600	-0.130	-0.580	-0.150
2020/01/31 10:28:02.9	301.600	-0.150	-0.610	-0.180
2020/01/31 10:28:03.0	301.600	-0.170	-0.630	-0.210
2020/01/31 10:28:03.1	301.610	-0.200	-0.650	-0.240
2020/01/31 10:28:03.2	301.610	-0.220	-0.670	-0.270
2020/01/31 10:28:03.3	301.610	-0.240	-0.680	-0.290
2020/01/31 10:28:03.4	301.610	-0.250	-0.700	-0.310
2020/01/31 10:28:03.5	301.610	-0.270	-0.710	-0.330
2020/01/31 10:28:03.6	301.610	-0.290	-0.720	-0.340
2020/01/31 10:28:03.7	301.610	-0.300	-0.730	-0.350
2020/01/31 10:28:03.8	301.610	-0.320	-0.730	-0.360
2020/01/31 10:28:03.9	301.610	-0.330	-0.730	-0.360
2020/01/31 10:28:04.0	301.610	-0.340	-0.730	-0.360
2020/01/31 10:28:04.1	301.610	-0.350	-0.730	-0.360
2020/01/31 10:28:04.2	301.610	-0.360	-0.730	-0.350
2020/01/31 10:28:04.3	301.600	-0.370	-0.730	-0.340
2020/01/31 10:28:04.4	301.610	-0.380	-0.720	-0.320
2020/01/31 10:28:04.5	301.600	-0.380	-0.710	-0.300
2020/01/31 10:28:04.6	301.600	-0.380	-0.700	-0.270
2020/01/31 10:28:04.7	301.590	-0.390	-0.690	-0.250
2020/01/31 10:28:04.8	301.580	-0.390	-0.680	-0.220
2020/01/31 10:28:04.9	301.580	-0.390	-0.670	-0.180
2020/01/31 10:28:05.0	301.570	-0.390	-0.660	-0.150
2020/01/31 10:28:05.1	301.560	-0.380	-0.650	-0.110
2020/01/31 10:28:05.2	301.560	-0.380	-0.640	-0.080
2020/01/31 10:28:05.3	301.550	-0.370	-0.620	-0.040
2020/01/31 10:28:05.4	301.560	-0.370	-0.610	0.000
2020/01/31 10:28:05.5	301.550	-0.360	-0.600	0.050
2020/01/31 10:28:05.6	301.550	-0.350	-0.590	0.090
2020/01/31 10:28:05.7	301.540	-0.340	-0.580	0.130
2020/01/31 10:28:05.8	301.530	-0.330	-0.560	0.170
2020/01/31 10:28:05.9	301.520	-0.310	-0.550	0.210
2020/01/31 10:28:06.0	301.520	-0.300	-0.540	0.250
2020/01/31 10:28:06.1	301.510	-0.280	-0.530	0.290
2020/01/31 10:28:06.2	301.500	-0.270	-0.520	0.330
2020/01/31 10:28:06.3	301.500	-0.250	-0.510	0.360
2020/01/31 10:28:06.4	301.490	-0.230	-0.500	0.400
2020/01/31 10:28:06.5	301.480	-0.220	-0.490	0.440
2020/01/31 10:28:06.6	301.480	-0.200	-0.480	0.470
2020/01/31 10:28:06.7	301.470	-0.180	-0.480	0.500
2020/01/31 10:28:06.8	301.470	-0.160	-0.470	0.530
2020/01/31 10:28:06.9	301.470	-0.140	-0.460	0.560
2020/01/31 10:28:07.0	301.460	-0.120	-0.450	0.590
2020/01/31 10:28:07.1	301.460	-0.100	-0.450	0.610
2020/01/31 10:28:07.2	301.460	-0.080	-0.440	0.630
2020/01/31 10:28:07.3	301.460	-0.070	-0.430	0.650
2020/01/31 10:28:07.4	301.470	-0.050	-0.420	0.670
2020/01/31 10:28:07.5	301.470	-0.030	-0.420	0.690
2020/01/31 10:28:07.6	301.470	-0.010	-0.410	0.700
2020/01/31 10:28:07.7	301.470	0.010	-0.410	0.710
2020/01/31 10:28:07.8	301.480	0.030	-0.400	0.710
2020/01/31 10:28:07.9	301.490	0.040	-0.400	0.720
2020/01/31 10:28:08.0	301.490	0.060	-0.390	0.720
2020/01/31 10:28:08.1	301.500	0.080	-0.380	0.720
2020/01/31 10:28:08.2	301.510	0.090	-0.380	0.720
2020/01/31 10:28:08.3	301.520	0.110	-0.370	0.720
2020/01/31 10:28:08.4	301.530	0.130	-0.370	0.720
2020/01/31 10:28:08.5	301.540	0.140	-0.360	0.720
2020/01/31 10:28:08.6	301.550	0.160	-0.350	0.710
2020/01/31 10:28:08.7	301.560	0.170	-0.340	0.710
2020/01/31 10:28:08.8	301.580	0.180	-0.330	0.700
2020/01/31 10:28:08.9	301.590	0.200	-0.320	0.700
2020/01/31 10:28:09.0	301.600	0.210	-0.310	0.690
2020/01/31 10:28:09.1	301.610	0.220	-0.300	0.690
2020/01/31 10:28:09.2	301.620	0.240	-0.280	0.680
2020/01/31 10:28:09.3	301.630	0.250	-0.260	0.680
2020/01/31 10:28:09.4	301.650	0.260	-0.250	0.670
2020/01/31 10:28:09.5	301.660	0.270	-0.230	0.670
2020/01/31 10:28:09.6	301.670	0.280	-0.200	0.670
2020/01/31 10:28:09.7	301.680	0.300	-0.180	0.670
2020/01/31 10:28:09.8	301.680	0.310	-0.150	0.660
2020/01/31 10:28:09.9	301.690	0.320	-0.130	0.660
2020/01/31 10:28:10.0	301.700	0.330	-0.100	0.660
2020/01/31 10:28:10.1	301.710	0.330	-0.070	0.660
2020/01/31 10:28:10.2	301.710	0.340	-0.040	0.660
2020/01/31 10:28:10.3	301.720	0.350	-0.000	0.660
2020/01/31 10:28:10.4	301.710	0.360	0.030	0.660
2020/01/31 10:28:10.5	301.720	0.360	0.060	0.660
2020/01/31 10:28:10.6	301.720	0.370	0.100	0.650
2020/01/31 10:28:10.7	301.720	0.370	0.140	0.650
2020/01/31 10:28:10.8	301.730	0.370	0.170	0.650
2020/01/31 10:28:10.9	301.730	0.380	0.210	0.650
2020/01/31 10:28:11.0	301.730	0.380	0.250	0.650
2020/01/31 10:28:11.1	301.720	0.380	0.290	0.650
2020/01/31 10:28:11.2	301.720	0.370	0.320	0.650
2020/01/31 10:28:11.3	301.720	0.370	0.360	0.640
2020/01/31 10:28:11.4	301.710	0.370	0.400	0.640
2020/01/31 10:28:11.5	301.700	0.360	0.430	0.640
2020/01/31 10:28:11.6	301.690	0.360	0.470	0.640
2020/01/31 10:28:11.7	301.680	0.350	0.500	0.630
2020/01/31 10:28:11.8	301.670	0.340	0.530	0.630
2020/01/31 10:28:11.9	301.660	0.330	0.560	0.620
2020/01/31 10:28:12.0	301.650	0.320	0.590	0.610
2020/01/31 10:28:12.1	301.640	0.300	0.620	0.600
2020/01/31 10:28:12.2	301.630	0.290	0.640	0.590
2020/01/31 10:28:12.3	301.620	0.270	0.660	0.580
2020/01/31 10:28:12.4	301.610	0.260	0.680	0.560
2020/01/31 10:28:12.5	301.600	0.240	0.690	0.550
2020/01/31 10:28:12.6	301.590	0.220	0.700	0.520
2020/01/31 10:28:12.7	301.580	0.200	0.700	0.500
2020/01/31 10:28:12.8	301.570	0.180	0.710	0.470
2020/01/31 10:28:12.9	301.570	0.160	0.700	0.440
2020/01/31 10:28:13.0	301.560	0.140	0.700	0.410
2020/01/31 10:28:13.1	301.560	0.120	0.680	0.380
2020/01/31 10:28:13.2	301.550	0.100	0.670	0.340
2020/01/31 10:28:13.3	301.550	0.080	0.650	0.300
2020/01/31 10:28:13.4	301.560	0.060	0.620	0.260
2020/01/31 10:28:13.5	301.560	0.040	0.590	0.210
2020/01/31 10:28:13.6	301.560	0.020	0.560	0.160
2020/01/31 10:28:13.7	301.560	-0.000	0.520	0.120
2020/01/31 10:28:13.8	301.570	-0.020	0.470	0.070
2020/01/31 10:28:13.9	301.570	-0.040	0.430	0.020
2020/01/31 10:28:14.0	301.580	-0.060	0.370	-0.030
2020/01/31 10:28:14.1	301.590	-0.070	0.320	-0.080
2020/01/31 10:28:14.2	301.600	-0.090	0.260	-0.130
2020/01/31 10:28:14.3	301.610	-0.100	0.200	-0.190
2020/01/31 10:28:14.4	301.630	-0.120	0.140	-0.240
2020/01/31 10:28:14.5	301.640	-0.130	0.070	-0.290
2020/01/31 10:28:14.6	301.650	-0.140	0.000	-0.340
2020/01/31 10:28:14.7	301.670	-0.150	-0.070	-0.390
2020/01/31 10:28:14.8	301.680	-0.160	-0.140	-0.440
2020/01/31 10:28:14.9	301.700	-0.170	-0.220	-0.490
2020/01/31 10:28:15.0	301.710	-0.170	-0.290	-0.530
2020/01/31 10:28:15.1	301.730	-0.180	-0.360	-0.580
2020/01/31 10:28:15.2	301.740	-0.180	-0.440	-0.620
2020/01/31 10:28:15.3	301.750	-0.180	-0.510	-0.650
2020/01/31 10:28:15.4	301.760	-0.190	-0.580	-0.680
2020/01/31 10:28:15.5	301.780	-0.190	-0.650	-0.710
2020/01/31 10:28:15.6	301.790	-0.180	-0.710	-0.740
2020/01/31 10:28:15.7	301.800	-0.180	-0.780	-0.760
2020/01/31 10:28:15.8	301.810	-0.180	-0.840	-0.770
2020/01/31 10:28:15.9	301.810	-0.180	-0.900	-0.780
2020/01/31 10:28:16.0	301.820	-0.170	-0.950	-0.790
2020/01/31 10:28:16.1	301.820	-0.170	-1.000	-0.780
2020/01/31 10:28:16.2	301.820	-0.160	-1.050	-0.780
2020/01/31 10:28:16.3	301.830	-0.150	-1.090	-0.760
2020/01/31 10:28:16.4	301.830	-0.150	-1.130	-0.750
2020/01/31 10:28:16.5	301.820	-0.140	-1.160	-0.720
2020/01/31 10:28:16.6	301.820	-0.130	-1.190	-0.700
2020/01/31 10:28:16.7	301.820	-0.120	-1.220	-0.670
2020/01/31 10:28:16.8	301.810	-0.110	-1.240	-0.630
2020/01/31 10:28:16.9	301.810	-0.100	-1.260	-0.590
2020/01/31 10:28:17.0	301.800	-0.100	-1.280	-0.550
2020/01/31 10:28:17.1	301.800	-0.090	-1.290	-0.500
2020/01/31 10:28:17.2	301.790	-0.080	-1.300	-0.460
2020/01/31 10:28:17.3	301.780	-0.070	-1.300	-0.410
2020/01/31 10:28:17.4	301.790	-0.060	-1.300	-0.350
2020/01/31 10:28:17.5	301.780	-0.050	-1.300	-0.290
2020/01/31 10:28:17.6	301.770	-0.040	-1.300	-0.240
2020/01/31 10:28:17.7	301.760	-0.030	-1.290	-0.180
2020/01/31 10:28:17.8	301.750	-0.020	-1.290	-0.120
2020/01/31 10:28:17.9	301.740	-0.020	-1.280	-0.060
2020/01/31 10:28:18.0	301.730	-0.010	-1.260	0.000
2020/01/31 10:28:18.1	301.730	-0.000	-1.250	0.070
2020/01/31 10:28:18.2	301.720	0.010	-1.230	0.130
2020/01/31 10:28:18.3	301.710	0.010	-1.220	0.190
2020/01/31 10:28:18.4	301.710	0.020	-1.190	0.260
2020/01/31 10:28:18.5	301.700	0.030	-1.170	0.320
2020/01/31 10:28:18.6	301.690	0.030	-1.150	0.380
2020/01/31 10:28:18.7	301.690	0.040	-1.120	0.440
2020/01/31 10:28:18.8	301.680	0.040	-1.100	0.500
2020/01/31 10:28:18.9	301.670	0.040	-1.070	0.560
2020/01/31 10:28:19.0	301.660	0.050	-1.040	0.610
2020/01/31 10:28:19.1	301.650	0.050	-1.010	0.670
2020/01/31 10:28:19.2	301.640	0.050	-0.970	0.720
2020/01/31 10:28:19.3	301.630	0.050	-0.940	0.770
2020/01/31 10:28:19.4	301.620	0.050	-0.900	0.820
2020/01/31 10:28:19.5	301.610	0.050	-0.860	0.870
2020/01/31 10:28:19.6	301.600	0.050	-0.820	0.910
2020/01/31 10:28:19.7	301.590	0.050	-0.780	0.950
2020/01/31 10:28:19.8	301.580	0.040	-0.740	0.990
2020/01/31 10:28:19.9	301.570	0.040	-0.690	1.020
2020/01/31 10:28:20.0	301.550	0.040	-0.650	1.060
2020/01/31 10:28:20.1	301.540	0.030	-0.600	1.090
2020/01/31 10:28:20.2	301.530	0.030	-0.550	1.120
2020/01/31 10:28:20.3	301.520	0.020	-0.500	1.140
2020/01/31 10:28:20.4	301.490	0.020	-0.450	1.160
2020/01/31 10:28:20.5	301.480	0.010	-0.410	1.180
2020/01/31 10:28:20.6	301.470	0.000	-0.360	1.200
2020/01/31 10:28:20.7	301.460	-0.000	-0.310	1.210
2020/01/31 10:28:20.8	301.450	-0.010	-0.260	1.220
2020/01/31 10:28:20.9	301.440	-0.020	-0.210	1.220
2020/01/31 10:28:21.0	301.430	-0.020	-0.160	1.230
2020/01/31 10:28:21.1	301.420	-0.030	-0.120	1.230
2020/01/31 10:28:21.2	301.410	-0.040	-0.070	1.230
2020/01/31 10:28:21.3	301.410	-0.040	-0.030	1.220
2020/01/31 10:28:21.4	301.420	-0.050	0.010	1.210
2020/01/31 10:28:21.5	301.410	-0.060	0.050	1.200
2020/01/31 10:28:21.6	301.410	-0.060	0.090	1.180
2020/01/31 10:28:21.7	301.410	-0.070	0.120	1.160
2020/01/31 10:28:21.8	301.420	-0.080	0.160	1.140
2020/01/31 10:28:21.9	301.420	-0.080	0.190	1.120
2020/01/31 10:28:22.0	301.420	-0.090	0.220	1.090
2020/01/31 10:28:22.1	301.430	-0.100	0.250	1.070
2020/01/31 10:28:22.2	301.430	-0.100	0.280	1.030
2020/01/31 10:28:22.3	301.440	-0.110	0.310	1.000
2020/01/31 10:28:22.4	301.460	-0.120	0.330	0.970
2020/01/31 10:28:22.5	301.470	-0.120	0.360	0.940
2020/01/31 10:28:22.6	301.480	-0.130	0.380	0.900
2020/01/31 10:28:22.7	301.480	-0.140	0.410	0.870
2020/01/31 10:28:22.8	301.490	-0.150	0.430	0.830
2020/01/31 10:28:22.9	301.500	-0.160	0.460	0.800
2020/01/31 10:28:23.0	301.510	-0.160	0.480	0.760
2020/01/31 10:28:23.1	301.520	-0.170	0.500	0.720
2020/01/31 10:28:23.2	301.530	-0.180	0.530	0.680
2020/01/31 10:28:23.3	301.540	-0.190	0.550	0.640
2020/01/31 10:28:23.4	301.550	-0.200	0.580	0.610
2020/01/31 10:28:23.5	301.560	-0.210	0.600	0.570
2020/01/31 10:28:23.6	301.570	-0.210	0.620	0.530
2020/01/31 10:28:23.7	301.580	-0.220	0.650	0.490
2020/01/31 10:28:23.8	301.590	-0.230	0.670	0.450
2020/01/31 10:28:23.9	301.610	-0.240	0.690	0.420
2020/01/31 10:28:24.0	301.620	-0.240	0.720	0.380
2020/01/31 10:28:24.1	301.630	-0.250	0.740	0.340
2020/01/31 10:28:24.2	301.640	-0.250	0.760	0.300
2020/01/31 10:28:24.3	301.650	-0.260	0.780	0.270
2020/01/31 10:28:24.4	301.660	-0.260	0.790	0.230
2020/01/31 10:28:24.5	301.670	-0.260	0.810	0.190
2020/01/31 10:28:24.6	301.680	-0.260	0.820	0.160
2020/01/31 10:28:24.7	301.690	-0.260	0.830	0.130
2020/01/31 10:28:24.8	301.700	-0.260	0.840	0.100
2020/01/31 10:28:24.9	301.710	-0.260	0.850	0.070
2020/01/31 10:28:25.0	301.720	-0.250	0.850	0.040
2020/01/31 10:28:25.1	301.730	-0.250	0.850	0.020
2020/01/31 10:28:25.2	301.730	-0.240	0.850	-0.010
2020/01/31 10:28:25.3	301.740	-0.230	0.840	-0.030
2020/01/31 10:28:25.4	301.740	-0.220	0.830	-0.040
2020/01/31 10:28:25.5	301.740	-0.200	0.810	-0.050
2020/01/31 10:28:25.6	301.740	-0.190	0.790	-0.070
2020/01/31 10:28:25.7	301.740	-0.170	0.770	-0.080
2020/01/31 10:28:25.8	301.750	-0.150	0.740	-0.080
2020/01/31 10:28:25.9	301.740	-0.130	0.710	-0.090
2020/01/31 10:28:26.0	301.740	-0.110	0.670	-0.090
2020/01/31 10:28:26.1	301.740	-0.080	0.630	-0.080
2020/01/31 10:28:26.2	301.740	-0.060	0.580	-0.080
2020/01/31 10:28:26.3	301.730	-0.030	0.530	-0.070
2020/01/31 10:28:26.4	301.730	-0.000	0.480	-0.060
2020/01/31 10:28:26.5	301.720	0.030	0.420	-0.050
2020/01/31 10:28:26.6	301.720	0.060	0.350	-0.030
2020/01/31 10:28:26.7	301.710	0.090	0.280	-0.020
2020/01/31 10:28:26.8	301.700	0.130	0.210	0.000
2020/01/31 10:28:26.9	301.700	0.160	0.130	0.020
2020/01/31 10:28:27.0	301.690	0.190	0.050	0.050
2020/01/31 10:28:27.1	301.680	0.230	-0.030	0.070
2020/01/31 10:28:27.2	301.670	0.260	-0.110	0.100
2020/01/31 10:28:27.3	301.660	0.300	-0.200	0.120
2020/01/31 10:28:27.4	301.670	0.330	-0.290	0.150
2020/01/31 10:28:27.5	301.660	0.360	-0.380	0.180
2020/01/31 10:28:27.6	301.650	0.400	-0.470	0.210
2020/01/31 10:28:27.7	301.640	0.430	-0.550	0.240
2020/01/31 10:28:27.8	301.620	0.460	-0.640	0.260
2020/01/31 10:28:27.9	301.610	0.480	-0.730	0.290
2020/01/31 10:28:28.0	301.600	0.510	-0.810	0.320
2020/01/31 10:28:28.1	301.590	0.530	-0.900	0.340
2020/01/31 10:28:28.2	301.580	0.550	-0.970	0.370
2020/01/31 10:28:28.3	301.560	0.570	-1.050	0.390
2020/01/31 10:28:28.4	301.560	0.590	-1.120	0.420
2020/01/31 10:28:28.5	301.540	0.600	-1.190	0.440
2020/01/31 10:28:28.6	301.530	0.610	-1.250	0.470
2020/01/31 10:28:28.7	301.520	0.610	-1.310	0.490
2020/01/31 10:28:28.8	301.510	0.620	-1.370	0.500
2020/01/31 10:28:28.9	301.500	0.610	-1.420	0.520
2020/01/31 10:28:29.0	301.490	0.610	-1.460	0.530
2020/01/31 10:28:29.1	301.480	0.600	-1.500	0.550
2020/01/31 10:28:29.2	301.470	0.590	-1.530	0.560
2020/01/31 10:28:29.3	301.460	0.580	-1.560	0.570
2020/01/31 10:28:29.4	301.450	0.560	-1.580	0.570
2020/01/31 10:28:29.5	301.440	0.540	-1.600	0.580
2020/01/31 10:28:29.6	301.440	0.520	-1.610	0.580
2020/01/31 10:28:29.7	301.430	0.490	-1.620	0.580
2020/01/31 10:28:29.8	301.420	0.460	-1.620	0.570
2020/01/31 10:28:29.9	301.420	0.430	-1.620	0.570
2020/01/31 10:28:30.0	301.410	0.400	-1.610	0.570
2020/01/31 10:28:30.1	301.400	0.370	-1.600	0.560
2020/01/31 10:28:30.2	301.400	0.330	-1.580	0.550
2020/01/31 10:28:30.3	301.390	0.290	-1.560	0.540
2020/01/31 10:28:30.4	301.380	0.260	-1.530	0.530
2020/01/31 10:28:30.5	301.380	0.220	-1.500	0.520
2020/01/31 10:28:30.6	301.370	0.180	-1.460	0.510
2020/01/31 10:28:30.7	301.370	0.140	-1.420	0.490
2020/01/31 10:28:30.8	301.360	0.100	-1.380	0.480
2020/01/31 10:28:30.9	301.350	0.060	-1.340	0.470
2020/01/31 10:28:31.0	301.350	0.020	-1.290	0.460
2020/01/31 10:28:31.1	301.340	-0.020	-1.240	0.440
2020/01/31 10:28:31.2	301.330	-0.060	-1.190	0.430
2020/01/31 10:28:31.3	301.330	-0.100	-1.140	0.420
2020/01/31 10:28:31.4	301.310	-0.130	-1.080	0.410
2020/01/31 10:28:31.5	301.310	-0.170	-1.030	0.400
2020/01/31 10:28:31.6	301.300	-0.200	-0.970	0.390
2020/01/31 10:28:31.7	301.300	-0.230	-0.910	0.380
2020/01/31 10:28:31.8	301.290	-0.260	-0.860	0.370
2020/01/31 10:28:31.9	301.290	-0.290	-0.800	0.360
2020/01/31 10:28:32.0	301.280	-0.310	-0.750	0.360
2020/01/31 10:28:32.1	301.280	-0.340	-0.690	0.350
2020/01/31 10:28:32.2	301.270	-0.360	-0.630	0.340
2020/01/31 10:28:32.3	301.270	-0.380	-0.580	0.330
2020/01/31 10:28:32.4	301.260	-0.390	-0.530	0.320
2020/01/31 10:28:32.5	301.260	-0.410	-0.480	0.320
2020/01/31 10:28:32.6	301.260	-0.420	-0.430	0.310
2020/01/31 10:28:32.7	301.260	-0.430	-0.380	0.310
2020/01/31 10:28:32.8	301.270	-0.440	-0.330	0.300
2020/01/31 10:28:32.9	301.270	-0.440	-0.280	0.300
2020/01/31 10:28:33.0	301.280	-0.440	-0.240	0.290
2020/01/31 10:28:33.1	301.280	-0.440	-0.200	0.290
2020/01/31 10:28:33.2	301.290	-0.440	-0.150	0.280
2020/01/31 10:28:33.3	301.290	-0.440	-0.110	0.280
2020/01/31 10:28:33.4	301.300	-0.430	-0.070	0.280
2020/01/31 10:28:33.5	301.310	-0.430	-0.030	0.280
2020/01/31 10:28:33.6	301.320	-0.420	0.010	0.280
2020/01/31 10:28:33.7	301.330	-0.410	0.040	0.270
2020/01/31 10:28:33.8	301.340	-0.400	0.080	0.270
2020/01/31 10:28:33.9	301.350	-0.390	0.120	0.270
2020/01/31 10:28:34.0	301.360	-0.370	0.150	0.280
2020/01/31 10:28:34.1	301.370	-0.360	0.180	0.280
2020/01/31 10:28:34.2	301.380	-0.340	0.220	0.280
2020/01/31 10:28:34.3	301.400	-0.330	0.250	0.280
2020/01/31 10:28:34.4	301.410	-0.310	0.280	0.280
2020/01/31 10:28:34.5	301.420	-0.290	0.320	0.290
2020/01/31 10:28:34.6	301.440	-0.280	0.350	0.290
2020/01/31 10:28:34.7	301.450	-0.260	0.380	0.300
2020/01/31 10:28:34.8	301.470	-0.240	0.410	0.300
2020/01/31 10:28:34.9	301.480	-0.220	0.440	0.310
2020/01/31 10:28:35.0	301.490	-0.210	0.460	0.310
2020/01/31 10:28:35.1	301.510	-0.190	0.490	0.320
2020/01/31 10:28:35.2	301.520	-0.170	0.520	0.330
2020/01/31 10:28:35.3	301.530	-0.150	0.550	0.340
2020/01/31 10:28:35.4	301.540	-0.140	0.570	0.350
2020/01/31 10:28:35.5	301.550	-0.120	0.600	0.360
2020/01/31 10:28:35.6	301.560	-0.100	0.630	0.370
2020/01/31 10:28:35.7	301.570	-0.090	0.650	0.380
2020/01/31 10:28:35.8	301.580	-0.070	0.670	0.390
2020/01/31 10:28:35.9	301.590	-0.060	0.700	0.410
2020/01/31 10:28:36.0	301.590	-0.050	0.720	0.420
2020/01/31 10:28:36.1	301.600	-0.040	0.740	0.430
2020/01/31 10:28:36.2	301.600	-0.020	0.760	0.440
2020/01/31 10:28:36.3	301.610	-0.010	0.770	0.460
2020/01/31 10:28:36.4	301.610	-0.010	0.790	0.470
2020/01/31 10:28:36.5	301.610	0.000	0.810	0.480
2020/01/31 10:28:36.6	301.610	0.010	0.820	0.490
2020/01/31 10:28:36.7	301.610	0.020	0.830	0.500
2020/01/31 10:28:36.8	301.610	0.020	0.840	0.510
2020/01/31 10:28:36.9	301.600	0.020	0.840	0.520
2020/01/31 10:28:37.0	301.600	0.030	0.840	0.530
2020/01/31 10:28:37.1	301.590	0.030	0.840	0.530
2020/01/31 10:28:37.2	301.580	0.030	0.840	0.540
2020/01/31 10:28:37.3	301.570	0.030	0.840	0.540
2020/01/31 10:28:37.4	301.550	0.030	0.830	0.540
2020/01/31 10:28:37.5	301.540	0.030	0.820	0.550
2020/01/31 10:28:37.6	301.530	0.030	0.800	0.540
2020/01/31 10:28:37.7	301.520	0.030	0.790	0.540
2020/01/31 10:28:37.8	301.500	0.030	0.770	0.540
2020/01/31 10:28:37.9	301.490	0.030	0.740	0.530
2020/01/31 10:28:38.0	301.480	0.030	0.710	0.530
2020/01/31 10:28:38.1	301.460	0.030	0.680	0.520
2020/01/31 10:28:38.2	301.450	0.030	0.650	0.500
2020/01/31 10:28:38.3	301.440	0.030	0.610	0.490
2020/01/31 10:28:38.4	301.420	0.030	0.560	0.480
2020/01/31 10:28:38.5	301.410	0.030	0.520	0.460
2020/01/31 10:28:38.6	301.400	0.030	0.470	0.440
2020/01/31 10:28:38.7	301.380	0.030	0.410	0.420
2020/01/31 10:28:38.8	301.370	0.030	0.360	0.390
2020/01/31 10:28:38.9	301.360	0.030	0.300	0.370
2020/01/31 10:28:39.0	301.340	0.030	0.240	0.350
2020/01/31 10:28:39.1	301.330	0.040	0.180	0.320
2020/01/31 10:28:39.2	301.320	0.040	0.120	0.290
2020/01/31 10:28:39.3	301.310	0.040	0.050	0.270
2020/01/31 10:28:39.4	301.300	0.050	-0.010	0.240
2020/01/31 10:28:39.5	301.290	0.050	-0.080	0.210
2020/01/31 10:28:39.6	301.280	0.060	-0.150	0.190
2020/01/31 10:28:39.7	301.270	0.070	-0.220	0.160
2020/01/31 10:28:39.8	301.250	0.070	-0.280	0.130
2020/01/31 10:28:39.9	301.240	0.080	-0.350	0.110
2020/01/31 10:28:40.0	301.230	0.090	-0.420	0.080
2020/01/31 10:28:40.1	301.220	0.100	-0.480	0.050
2020/01/31 10:28:40.2	301.210	0.110	-0.550	0.030
2020/01/31 10:28:40.3	301.190	0.120	-0.610	0.000
2020/01/31 10:28:40.4	301.190	0.130	-0.680	-0.020
2020/01/31 10:28:40.5	301.170	0.140	-0.740	-0.040
2020/01/31 10:28:40.6	301.160	0.150	-0.800	-0.060
2020/01/31 10:28:40.7	301.160	0.160	-0.860	-0.080
2020/01/31 10:28:40.8	301.150	0.170	-0.910	-0.090
2020/01/31 10:28:40.9	301.140	0.180	-0.970	-0.110
2020/01/31 10:28:41.0	301.130	0.190	-1.020	-0.120
2020/01/31 10:28:41.1	301.130	0.200	-1.070	-0.130
2020/01/31 10:28:41.2	301.130	0.210	-1.120	-0.150
2020/01/31 10:28:41.3	301.120	0.220	-1.170	-0.150
2020/01/31 10:28:41.4	301.120	0.230	-1.210	-0.160
2020/01/31 10:28:41.5	301.120	0.240	-1.250	-0.170
2020/01/31 10:28:41.6	301.120	0.240	-1.290	-0.170
2020/01/31 10:28:41.7	301.130	0.250	-1.330	-0.170
2020/01/31 10:28:41.8	301.130	0.260	-1.360	-0.170
2020/01/31 10:28:41.9	301.130	0.270	-1.390	-0.170
2020/01/31 10:28:42.0	301.140	0.270	-1.420	-0.170
2020/01/31 10:28:42.1	301.150	0.280	-1.440	-0.170
2020/01/31 10:28:42.2	301.150	0.280	-1.460	-0.160
2020/01/31 10:28:42.3	301.160	0.290	-1.480	-0.160
2020/01/31 10:28:42.4	301.180	0.290	-1.490	-0.140
2020/01/31 10:28:42.5	301.190	0.290	-1.500	-0.140
2020/01/31 10:28:42.6	301.200	0.290	-1.510	-0.120
2020/01/31 10:28:42.7	301.220	0.300	-1.510	-0.110
2020/01/31 10:28:42.8	301.230	0.300	-1.510	-0.100
2020/01/31 10:28:42.9	301.250	0.300	-1.510	-0.080
2020/01/31 10:28:43.0	301.270	0.290	-1.510	-0.060
2020/01/31 10:28:43.1	301.280	0.290	-1.500	-0.040
2020/01/31 10:28:43.2	301.300	0.290	-1.480	-0.020
2020/01/31 10:28:43.3	301.320	0.290	-1.470	0.000
2020/01/31 10:28:43.4	301.360	0.280	-1.440	0.030
2020/01/31 10:28:43.5	301.380	0.280	-1.420	0.060
2020/01/31 10:28:43.6	301.400	0.280	-1.390	0.090
2020/01/31 10:28:43.7	301.420	0.270	-1.360	0.120
2020/01/31 10:28:43.8	301.440	0.260	-1.320	0.150
2020/01/31 10:28:43.9	301.450	0.260	-1.280	0.190
2020/01/31 10:28:44.0	301.470	0.250	-1.240	0.220
2020/01/31 10:28:44.1	301.490	0.240	-1.190	0.260
2020/01/31 10:28:44.2	301.500	0.230	-1.150	0.290
2020/01/31 10:28:44.3	301.520	0.230	-1.090	0.330
2020/01/31 10:28:44.4	301.550	0.220	-1.040	0.370
2020/01/31 10:28:44.5	301.560	0.210	-0.980	0.410
2020/01/31 10:28:44.6	301.570	0.190	-0.930	0.450
2020/01/31 10:28:44.7	301.580	0.180	-0.860	0.490
2020/01/31 10:28:44.8	301.590	0.170	-0.800	0.520
2020/01/31 10:28:44.9	301.600	0.160	-0.740	0.560
2020/01/31 10:28:45.0	301.600	0.140	-0.680	0.600
2020/01/31 10:28:45.1	301.610	0.130	-0.610	0.630
2020/01/31 10:28:45.2	301.610	0.110	-0.550	0.670
2020/01/31 10:28:45.3	301.610	0.090	-0.480	0.700
2020/01/31 10:28:45.4	301.610	0.080	-0.410	0.730
2020/01/31 10:28:45.5	301.610	0.060	-0.350	0.760
2020/01/31 10:28:45.6	301.610	0.040	-0.290	0.780
2020/01/31 10:28:45.7	301.600	0.020	-0.230	0.810
2020/01/31 10:28:45.8	301.600	-0.000	-0.160	0.830
2020/01/31 10:28:45.9	301.590	-0.020	-0.100	0.850
2020/01/31 10:28:46.0	301.580	-0.040	-0.050	0.860
2020/01/31 10:28:46.1	301.570	-0.070	0.010	0.880
2020/01/31 10:28:46.2	301.560	-0.090	0.060	0.890
2020/01/31 10:28:46.3	301.550	-0.110	0.120	0.890
2020/01/31 10:28:46.4	301.550	-0.130	0.170	0.900
2020/01/31 10:28:46.5	301.530	-0.160	0.210	0.900
2020/01/31 10:28:46.6	301.520	-0.180	0.260	0.890
2020/01/31 10:28:46.7	301.510	-0.210	0.300	0.880
2020/01/31 10:28:46.8	301.490	-0.230	0.340	0.870
2020/01/31 10:28:46.9	301.480	-0.250	0.380	0.850
2020/01/31 10:28:47.0	301.460	-0.280	0.420	0.830
2020/01/31 10:28:47.1	301.450	-0.300	0.450	0.800
2020/01/31 10:28:47.2	301.430	-0.320	0.480	0.780
2020/01/31 10:28:47.3	301.420	-0.340	0.510	0.750
2020/01/31 10:28:47.4	301.400	-0.360	0.540	0.710
2020/01/31 10:28:47.5	301.380	-0.380	0.560	0.680
2020/01/31 10:28:47.6	301.370	-0.400	0.580	0.640
2020/01/31 10:28:47.7	301.360	-0.420	0.600	0.610
2020/01/31 10:28:47.8	301.350	-0.430	0.620	0.570
2020/01/31 10:28:47.9	301.330	-0.450	0.640	0.530
2020/01/31 10:28:48.0	301.320	-0.460	0.650	0.480
2020/01/31 10:28:48.1	301.320	-0.470	0.670	0.440
2020/01/31 10:28:48.2	301.310	-0.480	0.680	0.400
2020/01/31 10:28:48.3	301.300	-0.490	0.690	0.360
2020/01/31 10:28:48.4	301.290	-0.500	0.690	0.310
2020/01/31 10:28:48.5	301.280	-0.500	0.700	0.270
2020/01/31 10:28:48.6	301.280	-0.510	0.710	0.230
2020/01/31 10:28:48.7	301.280	-0.510	0.710	0.180
2020/01/31 10:28:48.8	301.270	-0.510	0.710	0.140
2020/01/31 10:28:48.9	301.270	-0.510	0.710	0.100
2020/01/31 10:28:49.0	301.270	-0.500	0.710	0.070
2020/01/31 10:28:49.1	301.260	-0.500	0.710	0.030
2020/01/31 10:28:49.2	301.260	-0.490	0.700	-0.000
2020/01/31 10:28:49.3	301.260	-0.480	0.700	-0.040
2020/01/31 10:28:49.4	301.240	-0.470	0.690	-0.060
2020/01/31 10:28:49.5	301.240	-0.450	0.680	-0.090
2020/01/31 10:28:49.6	301.240	-0.440	0.680	-0.110
2020/01/31 10:28:49.7	301.230	-0.420	0.670	-0.140
2020/01/31 10:28:49.8	301.230	-0.400	0.650	-0.150
2020/01/31 10:28:49.9	301.230	-0.380	0.640	-0.170
2020/01/31 10:28:50.0	301.220	-0.360	0.620	-0.180
2020/01/31 10:28:50.1	301.220	-0.340	0.610	-0.190
2020/01/31 10:28:50.2	301.220	-0.310	0.590	-0.190
2020/01/31 10:28:50.3	301.210	-0.290	0.570	-0.200
2020/01/31 10:28:50.4	301.210	-0.260	0.550	-0.190
2020/01/31 10:28:50.5	301.200	-0.240	0.520	-0.190
2020/01/31 10:28:50.6	301.200	-0.210	0.500	-0.180
2020/01/31 10:28:50.7	301.190	-0.180	0.470	-0.180
2020/01/31 10:28:50.8	301.190	-0.150	0.450	-0.160
2020/01/31 10:28:50.9	301.180	-0.120	0.420	-0.150
2020/01/31 10:28:51.0	301.180	-0.100	0.390	-0.140
2020/01/31 10:28:51.1	301.170	-0.070	0.350	-0.120
2020/01/31 10:28:51.2	301.170	-0.040	0.320	-0.100
2020/01/31 10:28:51.3	301.160	-0.010	0.280	-0.080
2020/01/31 10:28:51.4	301.170	0.010	0.240	-0.060
2020/01/31 10:28:51.5	301.160	0.040	0.210	-0.040
2020/01/31 10:28:51.6	301.160	0.070	0.170	-0.020
2020/01/31 10:28:51.7	301.160	0.090	0.120	-0.000
2020/01/31 10:28:51.8	301.160	0.110	0.080	0.020
2020/01/31 10:28:51.9	301.160	0.140	0.040	0.040
2020/01/31 10:28:52.0	301.160	0.160	-0.010	0.050
2020/01/31 10:28:52.1	301.160	0.180	-0.050	0.070
2020/01/31 10:28:52.2	301.170	0.200	-0.100	0.090
2020/01/31 10:28:52.3	301.180	0.220	-0.150	0.100
2020/01/31 10:28:52.4	301.190	0.230	-0.200	0.120
2020/01/31 10:28:52.5	301.200	0.250	-0.250	0.130
2020/01/31 10:28:52.6	301.210	0.260	-0.300	0.140
2020/01/31 10:28:52.7	301.230	0.270	-0.350	0.140
2020/01/31 10:28:52.8	301.240	0.280	-0.400	0.150
2020/01/31 10:28:52.9	301.260	0.290	-0.450	0.150
2020/01/31 10:28:53.0	301.280	0.300	-0.500	0.150
2020/01/31 10:28:53.1	301.300	0.310	-0.550	0.150
2020/01/31 10:28:53.2	301.330	0.310	-0.610	0.150
2020/01/31 10:28:53.3	301.350	0.320	-0.660	0.150
2020/01/31 10:28:53.4	301.370	0.320	-0.710	0.140
2020/01/31 10:28:53.5	301.390	0.320	-0.760	0.140
2020/01/31 10:28:53.6	301.420	0.320	-0.800	0.130
2020/01/31 10:28:53.7	301.440	0.320	-0.850	0.120
2020/01/31 10:28:53.8	301.470	0.320	-0.900	0.110
2020/01/31 10:28:53.9	301.500	0.310	-0.940	0.100
2020/01/31 10:28:54.0	301.520	0.310	-0.990	0.080
2020/01/31 10:28:54.1	301.550	0.300	-1.030	0.070
2020/01/31 10:28:54.2	301.570	0.300	-1.070	0.060
2020/01/31 10:28:54.3	301.600	0.290	-1.100	0.040
2020/01/31 10:28:54.4	301.600	0.280	-1.140	0.030
2020/01/31 10:28:54.5	301.630	0.280	-1.170	0.010
2020/01/31 10:28:54.6	301.650	0.270	-1.200	-0.000
2020/01/31 10:28:54.7	301.670	0.260	-1.230	-0.020
2020/01/31 10:28:54.8	301.680	0.250	-1.250	-0.030
2020/01/31 10:28:54.9	301.700	0.250	-1.270	-0.040
2020/01/31 10:28:55.0	301.710	0.240	-1.280	-0.060
2020/01/31 10:28:55.1	301.730	0.230	-1.300	-0.070
2020/01/31 10:28:55.2	301.740	0.220	-1.310	-0.080
2020/01/31 10:28:55.3	301.740	0.220	-1.310	-0.080
2020/01/31 10:28:55.4	301.750	0.210	-1.310	-0.090
2020/01/31 10:28:55.5	301.760	0.200	-1.310	-0.090
2020/01/31 10:28:55.6	301.760	0.200	-1.310	-0.090
2020/01/31 10:28:55.7	301.760	0.190	-1.300	-0.100
2020/01/31 10:28:55.8	301.760	0.190	-1.280	-0.100
2020/01/31 10:28:55.9	301.760	0.180	-1.270	-0.090
2020/01/31 10:28:56.0	301.750	0.180	-1.250	-0.090
2020/01/31 10:28:56.1	301.750	0.170	-1.220	-0.090
2020/01/31 10:28:56.2	301.740	0.170	-1.200	-0.080
2020/01/31 10:28:56.3	301.730	0.160	-1.170	-0.070
2020/01/31 10:28:56.4	301.740	0.160	-1.140	-0.060
2020/01/31 10:28:56.5	301.730	0.160	-1.100	-0.050
2020/01/31 10:28:56.6	301.720	0.150	-1.070	-0.030
2020/01/31 10:28:56.7	301.710	0.150	-1.030	-0.020
2020/01/31 10:28:56.8	301.690	0.140	-0.980	0.000
2020/01/31 10:28:56.9	301.680	0.140	-0.940	0.020
2020/01/31 10:28:57.0	301.670	0.140	-0.900	0.040
2020/01/31 10:28:57.1	301.660	0.130	-0.850	0.060
2020/01/31 10:28:57.2	301.640	0.130	-0.800	0.090
2020/01/31 10:28:57.3	301.630	0.120	-0.750	0.110
2020/01/31 10:28:57.4	301.620	0.120	-0.700	0.140
2020/01/31 10:28:57.5	301.600	0.110	-0.650	0.170
2020/01/31 10:28:57.6	301.590	0.110	-0.600	0.200
2020/01/31 10:28:57.7	301.570	0.100	-0.550	0.230
2020/01/31 10:28:57.8	301.550	0.100	-0.500	0.260
2020/01/31 10:28:57.9	301.540	0.090	-0.440	0.300
2020/01/31 10:28:58.0	301.520	0.090	-0.390	0.330
2020/01/31 10:28:58.1	301.500	0.080	-0.340	0.370
2020/01/31 10:28:58.2	301.490	0.070	-0.290	0.410
2020/01/31 10:28:58.3	301.470	0.070	-0.240	0.440
2020/01/31 10:28:58.4	301.460	0.060	-0.190	0.480
2020/01/31 10:28:58.5	301.440	0.060	-0.140	0.520
2020/01/31 10:28:58.6	301.420	0.050	-0.090	0.560
2020/01/31 10:28:58.7	301.410	0.040	-0.040	0.600
2020/01/31 10:28:58.8	301.390	0.040	0.010	0.640
2020/01/31 10:28:58.9	301.370	0.030	0.060	0.680
2020/01/31 10:28:59.0	301.360	0.030	0.110	0.720
2020/01/31 10:28:59.1	301.340	0.020	0.150	0.760
2020/01/31 10:28:59.2	301.320	0.010	0.200	0.810
2020/01/31 10:28:59.3	301.300	0.010	0.240	0.850
2020/01/31 10:28:59.4	301.290	0.000	0.290	0.890
2020/01/31 10:28:59.5	301.270	-0.000	0.330	0.930
2020/01/31 10:28:59.6	301.260	-0.010	0.370	0.970
2020/01/31 10:28:59.7	301.240	-0.010	0.420	1.010
2020/01/31 10:28:59.8	301.220	-0.010	0.460	1.050
2020/01/31 10:28:59.9	301.200	-0.020	0.490	1.080
2020/01/31 10:29:00.0	301.180	-0.020	0.530	1.110
2020/01/31 10:29:00.1	301.160	-0.030	0.560	1.140
2020/01/31 10:29:00.2	301.140	-0.030	0.600	1.170
2020/01/31 10:29:00.3	301.120	-0.030	0.620	1.200
2020/01/31 10:29:00.4	301.080	-0.040	0.650	1.220
2020/01/31 10:29:00.5	301.060	-0.040	0.670	1.230
2020/01/31 10:29:00.6	301.050	-0.040	0.690	1.240
2020/01/31 10:29:00.7	301.040	-0.050	0.710	1.250
2020/01/31 10:29:00.8	301.030	-0.050	0.720	1.250
2020/01/31 10:29:00.9	301.020	-0.050	0.720	1.250
2020/01/31 10:29:01.0	301.010	-0.060	0.720	1.240
2020/01/31 10:29:01.1	301.010	-0.060	0.720	1.220
2020/01/31 10:29:01.2	301.010	-0.060	0.710	1.200
2020/01/31 10:29:01.3	301.010	-0.070	0.700	1.170
2020/01/31 10:29:01.4	301.010	-0.070	0.680	1.140
2020/01/31 10:29:01.5	301.020	-0.070	0.660	1.100
2020/01/31 10:29:01.6	301.030	-0.080	0.630	1.060
2020/01/31 10:29:01.7	301.040	-0.080	0.600	1.020
2020/01/31 10:29:01.8	301.050	-0.080	0.570	0.970
2020/01/31 10:29:01.9	301.060	-0.090	0.530	0.910
2020/01/31 10:29:02.0	301.080	-0.090	0.490	0.850
2020/01/31 10:29:02.1	301.090	-0.100	0.450	0.790
2020/01/31 10:29:02.2	301.110	-0.100	0.410	0.730
2020/01/31 10:29:02.3	301.130	-0.110	0.360	0.660
2020/01/31 10:29:02.4	301.160	-0.110	0.310	0.590
2020/01/31 10:29:02.5	301.180	-0.120	0.270	0.520
2020/01/31 10:29:02.6	301.200	-0.120	0.220	0.450
2020/01/31 10:29:02.7	301.220	-0.130	0.170	0.370
2020/01/31 10:29:02.8	301.240	-0.140	0.120	0.300
2020/01/31 10:29:02.9	301.260	-0.140	0.070	0.220
2020/01/31 10:29:03.0	301.290	-0.150	0.020	0.140
2020/01/31 10:29:03.1	301.310	-0.160	-0.020	0.070
2020/01/31 10:29:03.2	301.340	-0.170	-0.070	-0.010
2020/01/31 10:29:03.3	301.360	-0.180	-0.110	-0.080
2020/01/31 10:29:03.4	301.400	-0.180	-0.160	-0.150
2020/01/31 10:29:03.5	301.420	-0.190	-0.200	-0.230
2020/01/31 10:29:03.6	301.450	-0.200	-0.240	-0.300
2020/01/31 10:29:03.7	301.480	-0.210	-0.280	-0.370
2020/01/31 10:29:03.8	301.500	-0.220	-0.320	-0.430
2020/01/31 10:29:03.9	301.530	-0.230	-0.360	-0.490
2020/01/31 10:29:04.0	301.560	-0.240	-0.390	-0.550
2020/01/31 10:29:04.1	301.590	-0.250	-0.420	-0.610
2020/01/31 10:29:04.2	301.610	-0.260	-0.460	-0.660
2020/01/31 10:29:04.3	301.640	-0.270	-0.490	-0.710
2020/01/31 10:29:04.4	301.650	-0.270	-0.510	-0.760
2020/01/31 10:29:04.5	301.680	-0.280	-0.540	-0.800
2020/01/31 10:29:04.6	301.700	-0.290	-0.560	-0.830
2020/01/31 10:29:04.7	301.730	-0.300	-0.590	-0.870
2020/01/31 10:29:04.8	301.750	-0.300	-0.610	-0.890
2020/01/31 10:29:04.9	301.770	-0.310	-0.630	-0.920
2020/01/31 10:29:05.0	301.790	-0.320	-0.640	-0.930
2020/01/31 10:29:05.1	301.810	-0.320	-0.660	-0.950
2020/01/31 10:29:05.2	301.820	-0.320	-0.670	-0.960
2020/01/31 10:29:05.3	301.840	-0.330	-0.680	-0.960
2020/01/31 10:29:05.4	301.850	-0.330	-0.690	-0.960
2020/01/31 10:29:05.5	301.870	-0.330	-0.700	-0.950
2020/01/31 10:29:05.6	301.880	-0.330	-0.710	-0.940
2020/01/31 10:29:05.7	301.890	-0.330	-0.710	-0.930
2020/01/31 10:29:05.8	301.900	-0.330	-0.710	-0.920
2020/01/31 10:29:05.9	301.920	-0.330	-0.710	-0.900
2020/01/31 10:29:06.0	301.930	-0.330	-0.710	-0.870
2020/01/31 10:29:06.1	301.930	-0.330	-0.710	-0.850
2020/01/31 10:29:06.2	301.940	-0.330	-0.710	-0.820
2020/01/31 10:29:06.3	301.950	-0.320	-0.700	-0.790
2020/01/31 10:29:06.4	301.950	-0.320	-0.700	-0.750
2020/01/31 10:29:06.5	301.950	-0.310	-0.690	-0.720
2020/01/31 10:29:06.6	301.950	-0.310	-0.690	-0.680
2020/01/31 10:29:06.7	301.960	-0.300	-0.680	-0.640
2020/01/31 10:29:06.8	301.960	-0.290	-0.670	-0.590
2020/01/31 10:29:06.9	301.960	-0.280	-0.670	-0.550
2020/01/31 10:29:07.0	301.960	-0.270	-0.660	-0.500
2020/01/31 10:29:07.1	301.960	-0.260	-0.650	-0.460
2020/01/31 10:29:07.2	301.960	-0.250	-0.640	-0.410
2020/01/31 10:29:07.3	301.960	-0.240	-0.630	-0.350
2020/01/31 10:29:07.4	301.970	-0.230	-0.620	-0.300
2020/01/31 10:29:07.5	301.970	-0.220	-0.610	-0.250
2020/01/31 10:29:07.6	301.960	-0.210	-0.600	-0.190
2020/01/31 10:29:07.7	301.950	-0.190	-0.590	-0.130
2020/01/31 10:29:07.8	301.950	-0.180	-0.580	-0.080
2020/01/31 10:29:07.9	301.940	-0.160	-0.570	-0.020
2020/01/31 10:29:08.0	301.930	-0.150	-0.560	0.040
2020/01/31 10:29:08.1	301.910	-0.130	-0.550	0.100
2020/01/31 10:29:08.2	301.900	-0.110	-0.540	0.160
2020/01/31 10:29:08.3	301.890	-0.100	-0.520	0.220
2020/01/31 10:29:08.4	301.880	-0.080	-0.510	0.280
2020/01/31 10:29:08.5	301.860	-0.060	-0.500	0.340
2020/01/31 10:29:08.6	301.840	-0.040	-0.490	0.390
2020/01/31 10:29:08.7	301.830	-0.020	-0.470	0.450
2020/01/31 10:29:08.8	301.800	0.000	-0.460	0.510
2020/01/31 10:29:08.9	301.780	0.020	-0.450	0.570
2020/01/31 10:29:09.0	301.760	0.050	-0.430	0.630
2020/01/31 10:29:09.1	301.740	0.070	-0.420	0.690
2020/01/31 10:29:09.2	301.720	0.090	-0.410	0.740
2020/01/31 10:29:09.3	301.700	0.110	-0.390	0.800
2020/01/31 10:29:09.4	301.680	0.140	-0.380	0.850
2020/01/31 10:29:09.5	301.650	0.160	-0.360	0.900
2020/01/31 10:29:09.6	301.630	0.180	-0.350	0.960
2020/01/31 10:29:09.7	301.610	0.210	-0.330	1.010
2020/01/31 10:29:09.8	301.580	0.230	-0.320	1.050
2020/01/31 10:29:09.9	301.560	0.250	-0.300	1.100
2020/01/31 10:29:10.0	301.540	0.280	-0.290	1.140
2020/01/31 10:29:10.1	301.520	0.300	-0.270	1.190
2020/01/31 10:29:10.2	301.490	0.320	-0.260	1.230
2020/01/31 10:29:10.3	301.470	0.350	-0.240	1.270
2020/01/31 10:29:10.4	301.440	0.370	-0.230	1.300
2020/01/31 10:29:10.5	301.420	0.390	-0.210	1.330
2020/01/31 10:29:10.6	301.400	0.410	-0.190	1.360
2020/01/31 10:29:10.7	301.380	0.430	-0.170	1.390
2020/01/31 10:29:10.8	301.360	0.450	-0.150	1.420
2020/01/31 10:29:10.9	301.340	0.460	-0.140	1.440
2020/01/31 10:29:11.0	301.320	0.480	-0.120	1.450
2020/01/31 10:29:11.1	301.300	0.500	-0.100	1.470
2020/01/31 10:29:11.2	301.280	0.510	-0.080	1.480
2020/01/31 10:29:11.3	301.270	0.520	-0.060	1.480
2020/01/31 10:29:11.4	301.250	0.530	-0.040	1.490
2020/01/31 10:29:11.5	301.230	0.540	-0.020	1.490
2020/01/31 10:29:11.6	301.220	0.550	-0.010	1.490
2020/01/31 10:29:11.7	301.200	0.560	0.010	1.480
2020/01/31 10:29:11.8	301.190	0.560	0.030	1.470
2020/01/31 10:29:11.9	301.180	0.570	0.040	1.460
2020/01/31 10:29:12.0	301.170	0.570	0.060	1.450
2020/01/31 10:29:12.1	301.160	0.570	0.070	1.430
2020/01/31 10:29:12.2	301.150	0.570	0.080	1.410
2020/01/31 10:29:12.3	301.150	0.570	0.090	1.390
2020/01/31 10:29:12.4	301.130	0.560	0.100	1.370
2020/01/31 10:29:12.5	301.130	0.550	0.110	1.340
2020/01/31 10:29:12.6	301.130	0.550	0.120	1.310
2020/01/31 10:29:12.7	301.120	0.540	0.120	1.280
2020/01/31 10:29:12.8	301.120	0.530	0.130	1.250
2020/01/31 10:29:12.9	301.120	0.510	0.130	1.210
2020/01/31 10:29:13.0	301.120	0.500	0.130	1.170
2020/01/31 10:29:13.1	301.120	0.490	0.130	1.130
2020/01/31 10:29:13.2	301.120	0.470	0.130	1.090
2020/01/31 10:29:13.3	301.130	0.450	0.130	1.040
2020/01/31 10:29:13.4	301.130	0.430	0.130	0.990
2020/01/31 10:29:13.5	301.140	0.410	0.120	0.940
2020/01/31 10:29:13.6	301.150	0.390	0.120	0.880
2020/01/31 10:29:13.7	301.160	0.370	0.110	0.830
2020/01/31 10:29:13.8	301.180	0.350	0.100	0.770
2020/01/31 10:29:13.9	301.190	0.320	0.090	0.710
2020/01/31 10:29:14.0	301.210	0.300	0.080	0.640
2020/01/31 10:29:14.1	301.230	0.270	0.060	0.580
2020/01/31 10:29:14.2	301.250	0.250	0.050	0.510
2020/01/31 10:29:14.3	301.270	0.220	0.030	0.440
2020/01/31 10:29:14.4	301.290	0.190	0.020	0.370
2020/01/31 10:29:14.5	301.320	0.160	0.000	0.300
2020/01/31 10:29:14.6	301.350	0.130	-0.010	0.220
2020/01/31 10:29:14.7	301.370	0.110	-0.030	0.150
2020/01/31 10:29:14.8	301.400	0.080	-0.050	0.080
2020/01/31 10:29:14.9	301.430	0.050	-0.060	0.000
2020/01/31 10:29:15.0	301.460	0.020	-0.080	-0.070
2020/01/31 10:29:15.1	301.490	-0.020	-0.100	-0.140
2020/01/31 10:29:15.2	301.520	-0.050	-0.110	-0.210
2020/01/31 10:29:15.3	301.550	-0.080	-0.130	-0.280
2020/01/31 10:29:15.4	301.580	-0.110	-0.140	-0.350
2020/01/31 10:29:15.5	301.610	-0.140	-0.160	-0.410
2020/01/31 10:29:15.6	301.640	-0.170	-0.170	-0.480
2020/01/31 10:29:15.7	301.670	-0.200	-0.180	-0.540
2020/01/31 10:29:15.8	301.690	-0.230	-0.190	-0.600
2020/01/31 10:29:15.9	301.720	-0.260	-0.200	-0.660
2020/01/31 10:29:16.0	301.750	-0.280	-0.210	-0.710
2020/01/31 10:29:16.1	301.770	-0.310	-0.210	-0.760
2020/01/31 10:29:16.2	301.800	-0.340	-0.220	-0.800
2020/01/31 10:29:16.3	301.820	-0.360	-0.220	-0.840
2020/01/31 10:29:16.4	301.830	-0.390	-0.230	-0.880
2020/01/31 10:29:16.5	301.840	-0.410	-0.230	-0.910
2020/01/31 10:29:16.6	301.860	-0.430	-0.230	-0.940
2020/01/31 10:29:16.7	301.870	-0.450	-0.230	-0.960
2020/01/31 10:29:16.8	301.890	-0.470	-0.230	-0.980
2020/01/31 10:29:16.9	301.900	-0.480	-0.230	-1.000
2020/01/31 10:29:17.0	301.910	-0.500	-0.230	-1.000
2020/01/31 10:29:17.1	301.910	-0.510	-0.230	-1.010
2020/01/31 10:29:17.2	301.920	-0.520	-0.230	-1.010
2020/01/31 10:29:17.3	301.930	-0.530	-0.230	-1.010
2020/01/31 10:29:17.4	301.920	-0.540	-0.230	-1.000
2020/01/31 10:29:17.5	301.930	-0.550	-0.230	-0.990
2020/01/31 10:29:17.6	301.930	-0.550	-0.230	-0.980
2020/01/31 10:29:17.7	301.920	-0.550	-0.240	-0.970
2020/01/31 10:29:17.8	301.920	-0.550	-0.240	-0.950
2020/01/31 10:29:17.9	301.920	-0.550	-0.250	-0.930
2020/01/31 10:29:18.0	301.910	-0.550	-0.250	-0.910
2020/01/31 10:29:18.1	301.910	-0.540	-0.260	-0.880
2020/01/31 10:29:18.2	301.900	-0.530	-0.270	-0.860
2020/01/31 10:29:18.3	301.890	-0.520	-0.290	-0.830
2020/01/31 10:29:18.4	301.890	-0.510	-0.300	-0.790
2020/01/31 10:29:18.5	301.880	-0.500	-0.320	-0.760
2020/01/31 10:29:18.6	301.870	-0.480	-0.340	-0.720
2020/01/31 10:29:18.7	301.860	-0.470	-0.350	-0.680
2020/01/31 10:29:18.8	301.850	-0.450	-0.370	-0.630
2020/01/31 10:29:18.9	301.840	-0.430	-0.390	-0.590
2020/01/31 10:29:19.0	301.820	-0.410	-0.420	-0.540
2020/01/31 10:29:19.1	301.810	-0.390	-0.440	-0.490
2020/01/31 10:29:19.2	301.790	-0.370	-0.460	-0.440
2020/01/31 10:29:19.3	301.780	-0.350	-0.480	-0.390
2020/01/31 10:29:19.4	301.770	-0.330	-0.500	-0.330
2020/01/31 10:29:19.5	301.750	-0.310	-0.520	-0.270
2020/01/31 10:29:19.6	301.740	-0.290	-0.540	-0.220
2020/01/31 10:29:19.7	301.720	-0.270	-0.560	-0.160
2020/01/31 10:29:19.8	301.700	-0.250	-0.580	-0.100
2020/01/31 10:29:19.9	301.680	-0.230	-0.590	-0.040
2020/01/31 10:29:20.0	301.660	-0.200	-0.610	0.020
2020/01/31 10:29:20.1	301.630	-0.180	-0.620	0.080
2020/01/31 10:29:20.2	301.610	-0.170	-0.630	0.150
2020/01/31 10:29:20.3	301.590	-0.150	-0.640	0.210
2020/01/31 10:29:20.4	301.570	-0.130	-0.650	0.270
2020/01/31 10:29:20.5	301.540	-0.110	-0.650	0.330
2020/01/31 10:29:20.6	301.520	-0.090	-0.650	0.390
2020/01/31 10:29:20.7	301.490	-0.080	-0.650	0.460
2020/01/31 10:29:20.8	301.470	-0.060	-0.650	0.520
2020/01/31 10:29:20.9	301.440	-0.050	-0.640	0.580
2020/01/31 10:29:21.0	301.420	-0.030	-0.630	0.640
2020/01/31 10:29:21.1	301.400	-0.020	-0.620	0.690
2020/01/31 10:29:21.2	301.370	-0.010	-0.600	0.750
2020/01/31 10:29:21.3	301.350	0.000	-0.590	0.800
2020/01/31 10:29:21.4	301.320	0.010	-0.570	0.860
2020/01/31 10:29:21.5	301.300	0.020	-0.540	0.910
2020/01/31 10:29:21.6	301.280	0.030	-0.520	0.960
2020/01/31 10:29:21.7	301.260	0.040	-0.500	1.000
2020/01/31 10:29:21.8	301.230	0.050	-0.470	1.050
2020/01/31 10:29:21.9	301.210	0.050	-0.440	1.090
2020/01/31 10:29:22.0	301.190	0.060	-0.420	1.130
2020/01/31 10:29:22.1	301.170	0.070	-0.390	1.160
2020/01/31 10:29:22.2	301.160	0.070	-0.360	1.190
2020/01/31 10:29:22.3	301.140	0.080	-0.330	1.220
2020/01/31 10:29:22.4	301.120	0.080	-0.300	1.240
2020/01/31 10:29:22.5	301.100	0.080	-0.280	1.260
2020/01/31 10:29:22.6	301.090	0.090	-0.250	1.280
2020/01/31 10:29:22.7	301.080	0.090	-0.230	1.290
2020/01/31 10:29:22.8	301.070	0.090	-0.200	1.300
2020/01/31 10:29:22.9	301.060	0.100	-0.180	1.310
2020/01/31 10:29:23.0	301.050	0.100	-0.160	1.310
2020/01/31 10:29:23.1	301.040	0.110	-0.140	1.320
2020/01/31 10:29:23.2	301.040	0.110	-0.130	1.320
2020/01/31 10:29:23.3	301.040	0.120	-0.120	1.310
2020/01/31 10:29:23.4	301.030	0.120	-0.110	1.300
2020/01/31 10:29:23.5	301.040	0.130	-0.100	1.290
2020/01/31 10:29:23.6	301.040	0.140	-0.100	1.280
2020/01/31 10:29:23.7	301.050	0.150	-0.100	1.270
2020/01/31 10:29:23.8	301.050	0.160	-0.100	1.250
2020/01/31 10:29:23.9	301.060	0.160	-0.100	1.230
2020/01/31 10:29:24.0	301.080	0.180	-0.110	1.200
2020/01/31 10:29:24.1	301.090	0.190	-0.120	1.180
2020/01/31 10:29:24.2	301.110	0.200	-0.130	1.150
2020/01/31 10:29:24.3	301.120	0.210	-0.140	1.120
2020/01/31 10:29:24.4	301.140	0.220	-0.160	1.090
2020/01/31 10:29:24.5	301.160	0.230	-0.170	1.060
2020/01/31 10:29:24.6	301.180	0.250	-0.190	1.030
2020/01/31 10:29:24.7	301.200	0.260	-0.210	0.990
2020/01/31 10:29:24.8	301.230	0.280	-0.220	0.960
2020/01/31 10:29:24.9	301.250	0.290	-0.240	0.920
2020/01/31 10:29:25.0	301.280	0.300	-0.260	0.880
2020/01/31 10:29:25.1	301.300	0.320	-0.270	0.840
2020/01/31 10:29:25.2	301.330	0.330	-0.290	0.800
2020/01/31 10:29:25.3	301.360	0.340	-0.300	0.770
2020/01/31 10:29:25.4	301.380	0.360	-0.310	0.730
2020/01/31 10:29:25.5	301.410	0.370	-0.320	0.690
2020/01/31 10:29:25.6	301.440	0.380	-0.330	0.650
2020/01/31 10:29:25.7	301.470	0.390	-0.340	0.620
2020/01/31 10:29:25.8	301.500	0.400	-0.340	0.580
2020/01/31 10:29:25.9	301.530	0.410	-0.340	0.550
2020/01/31 10:29:26.0	301.550	0.420	-0.340	0.510
2020/01/31 10:29:26.1	301.580	0.430	-0.340	0.480
2020/01/31 10:29:26.2	301.610	0.430	-0.330	0.440
2020/01/31 10:29:26.3	301.640	0.440	-0.320	0.410
2020/01/31 10:29:26.4	301.670	0.440	-0.320	0.380
2020/01/31 10:29:26.5	301.700	0.440	-0.300	0.350
2020/01/31 10:29:26.6	301.720	0.440	-0.290	0.320
2020/01/31 10:29:26.7	301.750	0.440	-0.270	0.290
2020/01/31 10:29:26.8	301.770	0.440	-0.250	0.260
2020/01/31 10:29:26.9	301.790	0.430	-0.230	0.240
2020/01/31 10:29:27.0	301.820	0.430	-0.210	0.210
2020/01/31 10:29:27.1	301.830	0.420	-0.180	0.190
2020/01/31 10:29:27.2	301.850	0.410	-0.160	0.170
2020/01/31 10:29:27.3	301.870	0.390	-0.130	0.150
2020/01/31 10:29:27.4	301.880	0.380	-0.100	0.130
2020/01/31 10:29:27.5	301.890	0.360	-0.070	0.110
2020/01/31 10:29:27.6	301.900	0.340	-0.040	0.100
2020/01/31 10:29:27.7	301.910	0.320	-0.010	0.080
2020/01/31 10:29:27.8	301.920	0.300	0.010	0.060
2020/01/31 10:29:27.9	301.920	0.280	0.040	0.050
2020/01/31 10:29:28.0	301.930	0.250	0.070	0.030
2020/01/31 10:29:28.1	301.930	0.230	0.100	0.020
2020/01/31 10:29:28.2	301.930	0.200	0.130	0.010
2020/01/31 10:29:28.3	301.930	0.170	0.150	-0.000
2020/01/31 10:29:28.4	301.920	0.140	0.180	-0.010
2020/01/31 10:29:28.5	301.920	0.110	0.200	-0.020
2020/01/31 10:29:28.6	301.910	0.080	0.220	-0.030
2020/01/31 10:29:28.7	301.900	0.050	0.250	-0.040
2020/01/31 10:29:28.8	301.890	0.010	0.270	-0.050
2020/01/31 10:29:28.9	301.880	-0.020	0.290	-0.060
2020/01/31 10:29:29.0	301.870	-0.050	0.300	-0.070
2020/01/31 10:29:29.1	301.850	-0.080	0.320	-0.070
2020/01/31 10:29:29.2	301.840	-0.110	0.340	-0.080
2020/01/31 10:29:29.3	301.820	-0.140	0.350	-0.080
2020/01/31 10:29:29.4	301.790	-0.170	0.360	-0.080
2020/01/31 10:29:29.5	301.770	-0.190	0.370	-0.080
2020/01/31 10:29:29.6	301.750	-0.220	0.380	-0.080
2020/01/31 10:29:29.7	301.730	-0.240	0.380	-0.080
2020/01/31 10:29:29.8	301.700	-0.260	0.380	-0.070
2020/01/31 10:29:29.9	301.680	-0.280	0.380	-0.070
2020/01/31 10:29:30.0	301.660	-0.300	0.380	-0.060
2020/01/31 10:29:30.1	301.630	-0.320	0.380	-0.060
2020/01/31 10:29:30.2	301.610	-0.330	0.370	-0.050
2020/01/31 10:29:30.3	301.580	-0.350	0.360	-0.040
2020/01/31 10:29:30.4	301.550	-0.350	0.350	-0.030
2020/01/31 10:29:30.5	301.530	-0.360	0.330	-0.020
2020/01/31 10:29:30.6	301.510	-0.370	0.310	-0.020
2020/01/31 10:29:30.7	301.480	-0.370	0.290	-0.010
2020/01/31 10:29:30.8	301.460	-0.370	0.260	0.010
2020/01/31 10:29:30.9	301.440	-0.370	0.240	0.020
2020/01/31 10:29:31.0	301.420	-0.370	0.200	0.030
2020/01/31 10:29:31.1	301.400	-0.360	0.170	0.040
2020/01/31 10:29:31.2	301.370	-0.360	0.130	0.050
2020/01/31 10:29:31.3	301.350	-0.350	0.090	0.060
2020/01/31 10:29:31.4	301.340	-0.340	0.050	0.070
2020/01/31 10:29:31.5	301.320	-0.330	0.010	0.080
2020/01/31 10:29:31.6	301.300	-0.310	-0.040	0.100
2020/01/31 10:29:31.7	301.280	-0.300	-0.090	0.110
2020/01/31 10:29:31.8	301.260	-0.290	-0.130	0.120
2020/01/31 10:29:31.9	301.240	-0.270	-0.180	0.140
2020/01/31 10:29:32.0	301.220	-0.260	-0.230	0.160
2020/01/31 10:29:32.1	301.200	-0.240	-0.290	0.170
2020/01/31 10:29:32.2	301.180	-0.220	-0.340	0.190
2020/01/31 10:29:32.3	301.160	-0.210	-0.390	0.200
2020/01/31 10:29:32.4	301.160	-0.190	-0.440	0.220
2020/01/31 10:29:32.5	301.140	-0.180	-0.490	0.240
2020/01/31 10:29:32.6	301.120	-0.160	-0.540	0.250
2020/01/31 10:29:32.7	301.110	-0.150	-0.590	0.270
2020/01/31 10:29:32.8	301.100	-0.130	-0.640	0.290
2020/01/31 10:29:32.9	301.080	-0.120	-0.690	0.300
2020/01/31 10:29:33.0	301.070	-0.110	-0.740	0.320
2020/01/31 10:29:33.1	301.060	-0.100	-0.780	0.340
2020/01/31 10:29:33.2	301.050	-0.080	-0.820	0.350
2020/01/31 10:29:33.3	301.040	-0.080	-0.870	0.370
2020/01/31 10:29:33.4	301.030	-0.070	-0.900	0.390
2020/01/31 10:29:33.5	301.020	-0.060	-0.940	0.400
2020/01/31 10:29:33.6	301.010	-0.060	-0.970	0.410
2020/01/31 10:29:33.7	301.010	-0.050	-1.010	0.430
2020/01/31 10:29:33.8	301.000	-0.050	-1.030	0.440
2020/01/31 10:29:33.9	301.000	-0.050	-1.060	0.450
2020/01/31 10:29:34.0	300.990	-0.050	-1.080	0.460
2020/01/31 10:29:34.1	300.990	-0.050	-1.100	0.470
2020/01/31 10:29:34.2	300.990	-0.050	-1.120	0.480
2020/01/31 10:29:34.3	300.980	-0.050	-1.130	0.490
2020/01/31 10:29:34.4	300.970	-0.050	-1.130	0.490
2020/01/31 10:29:34.5	300.970	-0.060	-1.140	0.500
2020/01/31 10:29:34.6	300.980	-0.060	-1.140	0.500
2020/01/31 10:29:34.7	300.980	-0.070	-1.140	0.500
2020/01/31 10:29:34.8	300.990	-0.080	-1.140	0.500
2020/01/31 10:29:34.9	300.990	-0.080	-1.140	0.500
2020/01/31 10:29:35.0	301.000	-0.090	-1.130	0.490
2020/01/31 10:29:35.1	301.010	-0.090	-1.120	0.480
2020/01/31 10:29:35.2	301.030	-0.100	-1.100	0.470
2020/01/31 10:29:35.3	301.040	-0.110	-1.080	0.460
2020/01/31 10:29:35.4	301.070	-0.110	-1.070	0.450
2020/01/31 10:29:35.5	301.090	-0.120	-1.040	0.430
2020/01/31 10:29:35.6	301.110	-0.120	-1.020	0.420
2020/01/31 10:29:35.7	301.130	-0.120	-0.990	0.400
2020/01/31 10:29:35.8	301.160	-0.120	-0.960	0.380
2020/01/31 10:29:35.9	301.180	-0.130	-0.930	0.360
2020/01/31 10:29:36.0	301.210	-0.130	-0.900	0.340
2020/01/31 10:29:36.1	301.240	-0.120	-0.860	0.310
2020/01/31 10:29:36.2	301.270	-0.120	-0.820	0.290
2020/01/31 10:29:36.3	301.300	-0.120	-0.780	0.270
2020/01/31 10:29:36.4	301.330	-0.120	-0.740	0.250
2020/01/31 10:29:36.5	301.360	-0.110	-0.700	0.230
2020/01/31 10:29:36.6	301.390	-0.110	-0.660	0.210
2020/01/31 10:29:36.7	301.420	-0.100	-0.610	0.200
2020/01/31 10:29:36.8	301.450	-0.100	-0.570	0.180
2020/01/31 10:29:36.9	301.480	-0.090	-0.520	0.160
2020/01/31 10:29:37.0	301.510	-0.080	-0.480	0.140
2020/01/31 10:29:37.1	301.550	-0.070	-0.430	0.120
2020/01/31 10:29:37.2	301.580	-0.060	-0.380	0.100
2020/01/31 10:29:37.3	301.610	-0.050	-0.340	0.080
2020/01/31 10:29:37.4	301.640	-0.040	-0.290	0.070
2020/01/31 10:29:37.5	301.680	-0.030	-0.240	0.050
2020/01/31 10:29:37.6	301.710	-0.020	-0.200	0.030
2020/01/31 10:29:37.7	301.740	-0.010	-0.150	0.020
2020/01/31 10:29:37.8	301.770	0.000	-0.110	0.000
2020/01/31 10:29:37.9	301.810	0.010	-0.070	-0.010
2020/01/31 10:29:38.0	301.840	0.030	-0.030	-0.030
2020/01/31 10:29:38.1	301.870	0.040	0.010	-0.040
2020/01/31 10:29:38.2	301.900	0.050	0.050	-0.050
2020/01/31 10:29:38.3	301.930	0.070	0.090	-0.060
2020/01/31 10:29:38.4	301.950	0.080	0.130	-0.060
2020/01/31 10:29:38.5	301.970	0.090	0.170	-0.070
2020/01/31 10:29:38.6	302.000	0.110	0.200	-0.070
2020/01/31 10:29:38.7	302.020	0.120	0.240	-0.070
2020/01/31 10:29:38.8	302.040	0.130	0.270	-0.070
2020/01/31 10:29:38.9	302.060	0.140	0.300	-0.060
2020/01/31 10:29:39.0	302.080	0.160	0.340	-0.050
2020/01/31 10:29:39.1	302.100	0.170	0.370	-0.040
2020/01/31 10:29:39.2	302.110	0.180	0.400	-0.020
2020/01/31 10:29:39.3	302.120	0.190	0.430	-0.010
2020/01/31 10:29:39.4	302.140	0.200	0.460	0.010
2020/01/31 10:29:39.5	302.150	0.210	0.480	0.040
2020/01/31 10:29:39.6	302.150	0.220	0.510	0.060
2020/01/31 10:29:39.7	302.150	0.230	0.530	0.090
2020/01/31 10:29:39.8	302.150	0.240	0.560	0.120
2020/01/31 10:29:39.9	302.140	0.250	0.580	0.150
2020/01/31 10:29:40.0	302.140	0.250	0.590	0.180
2020/01/31 10:29:40.1	302.130	0.260	0.610	0.220
2020/01/31 10:29:40.2	302.110	0.270	0.620	0.250
2020/01/31 10:29:40.3	302.100	0.270	0.630	0.290
2020/01/31 10:29:40.4	302.070	0.270	0.640	0.320
2020/01/31 10:29:40.5	302.050	0.280	0.640	0.360
2020/01/31 10:29:40.6	302.030	0.280	0.640	0.390
2020/01/31 10:29:40.7	302.010	0.280	0.640	0.420
2020/01/31 10:29:40.8	301.990	0.280	0.640	0.450
2020/01/31 10:29:40.9	301.960	0.280	0.630	0.480
2020/01/31 10:29:41.0	301.930	0.290	0.610	0.510
2020/01/31 10:29:41.1	301.910	0.280	0.600	0.540
2020/01/31 10:29:41.2	301.880	0.280	0.580	0.570
2020/01/31 10:29:41.3	301.850	0.280	0.550	0.590
2020/01/31 10:29:41.4	301.810	0.280	0.530	0.610
2020/01/31 10:29:41.5	301.780	0.280	0.500	0.630
2020/01/31 10:29:41.6	301.750	0.280	0.470	0.650
2020/01/31 10:29:41.7	301.720	0.280	0.430	0.670
2020/01/31 10:29:41.8	301.690	0.270	0.390	0.680
2020/01/31 10:29:41.9	301.660	0.270	0.350	0.690
2020/01/31 10:29:42.0	301.630	0.270	0.310	0.700
2020/01/31 10:29:42.1	301.600	0.260	0.270	0.700
2020/01/31 10:29:42.2	301.570	0.260	0.220	0.700
2020/01/31 10:29:42.3	301.540	0.260	0.170	0.700
2020/01/31 10:29:42.4	301.510	0.250	0.120	0.700
2020/01/31 10:29:42.5	301.480	0.250	0.070	0.690
2020/01/31 10:29:42.6	301.460	0.240	0.020	0.680
2020/01/31 10:29:42.7	301.430	0.240	-0.040	0.660
2020/01/31 10:29:42.8	301.410	0.230	-0.090	0.640
2020/01/31 10:29:42.9	301.380	0.230	-0.150	0.620
2020/01/31 10:29:43.0	301.360	0.220	-0.200	0.590
2020/01/31 10:29:43.1	301.330	0.210	-0.250	0.570
2020/01/31 10:29:43.2	301.310	0.210	-0.300	0.530
2020/01/31 10:29:43.3	301.290	0.200	-0.360	0.500
2020/01/31 10:29:43.4	301.280	0.190	-0.410	0.460
2020/01/31 10:29:43.5	301.260	0.180	-0.460	0.420
2020/01/31 10:29:43.6	301.240	0.160	-0.500	0.380
2020/01/31 10:29:43.7	301.230	0.150	-0.550	0.340
2020/01/31 10:29:43.8	301.210	0.140	-0.590	0.300
2020/01/31 10:29:43.9	301.190	0.120	-0.630	0.260
2020/01/31 10:29:44.0	301.180	0.110	-0.660	0.210
2020/01/31 10:29:44.1	301.160	0.090	-0.700	0.170
2020/01/31 10:29:44.2	301.150	0.070	-0.730	0.120
2020/01/31 10:29:44.3	301.140	0.050	-0.760	0.080
2020/01/31 10:29:44.4	301.130	0.030	-0.780	0.030
2020/01/31 10:29:44.5	301.120	0.010	-0.800	-0.010
2020/01/31 10:29:44.6	301.110	-0.010	-0.820	-0.060
2020/01/31 10:29:44.7	301.100	-0.030	-0.840	-0.110
2020/01/31 10:29:44.8	301.100	-0.060	-0.850	-0.150
2020/01/31 10:29:44.9	301.090	-0.080	-0.860	-0.200
2020/01/31 10:29:45.0	301.090	-0.100	-0.870	-0.240
2020/01/31 10:29:45.1	301.080	-0.130	-0.870	-0.290
2020/01/31 10:29:45.2	301.080	-0.150	-0.870	-0.330
2020/01/31 10:29:45.3	301.080	-0.180	-0.870	-0.370
2020/01/31 10:29:45.4	301.080	-0.200	-0.860	-0.410
2020/01/31 10:29:45.5	301.080	-0.220	-0.860	-0.450
2020/01/31 10:29:45.6	301.080	-0.250	-0.840	-0.490
2020/01/31 10:29:45.7	301.080	-0.270	-0.830	-0.530
2020/01/31 10:29:45.8	301.090	-0.290	-0.810	-0.570
2020/01/31 10:29:45.9	301.090	-0.310	-0.800	-0.610
2020/01/31 10:29:46.0	301.100	-0.330	-0.780	-0.650
2020/01/31 10:29:46.1	301.100	-0.350	-0.760	-0.680
2020/01/31 10:29:46.2	301.110	-0.370	-0.730	-0.710
2020/01/31 10:29:46.3	301.120	-0.390	-0.710	-0.740
2020/01/31 10:29:46.4	301.120	-0.400	-0.680	-0.780
2020/01/31 10:29:46.5	301.130	-0.410	-0.660	-0.800
2020/01/31 10:29:46.6	301.140	-0.420	-0.630	-0.830
2020/01/31 10:29:46.7	301.150	-0.430	-0.600	-0.850
2020/01/31 10:29:46.8	301.160	-0.440	-0.570	-0.870
2020/01/31 10:29:46.9	301.170	-0.450	-0.550	-0.890
2020/01/31 10:29:47.0	301.180	-0.450	-0.520	-0.910
2020/01/31 10:29:47.1	301.190	-0.450	-0.490	-0.920
2020/01/31 10:29:47.2	301.210	-0.450	-0.470	-0.930
2020/01/31 10:29:47.3	301.220	-0.450	-0.440	-0.930
2020/01/31 10:29:47.4	301.240	-0.440	-0.420	-0.940
2020/01/31 10:29:47.5	301.250	-0.430	-0.390	-0.940
2020/01/31 10:29:47.6	301.260	-0.420	-0.370	-0.930
2020/01/31 10:29:47.7	301.280	-0.410	-0.350	-0.930
2020/01/31 10:29:47.8	301.290	-0.400	-0.330	-0.920
2020/01/31 10:29:47.9	301.310	-0.380	-0.310	-0.910
2020/01/31 10:29:48.0	301.320	-0.370	-0.300	-0.900
2020/01/31 10:29:48.1	301.340	-0.350	-0.290	-0.880
2020/01/31 10:29:48.2	301.360	-0.330	-0.280	-0.870
2020/01/31 10:29:48.3	301.370	-0.300	-0.270	-0.850
2020/01/31 10:29:48.4	301.400	-0.280	-0.260	-0.830
2020/01/31 10:29:48.5	301.420	-0.260	-0.260	-0.800
2020/01/31 10:29:48.6	301.440	-0.230	-0.260	-0.780
2020/01/31 10:29:48.7	301.460	-0.210	-0.260	-0.750
2020/01/31 10:29:48.8	301.490	-0.180	-0.260	-0.720
2020/01/31 10:29:48.9	301.510	-0.150	-0.270	-0.690
2020/01/31 10:29:49.0	301.540	-0.130	-0.280	-0.660
2020/01/31 10:29:49.1	301.560	-0.100	-0.280	-0.620
2020/01/31 10:29:49.2	301.590	-0.070	-0.290	-0.580
2020/01/31 10:29:49.3	301.620	-0.040	-0.300	-0.540
2020/01/31 10:29:49.4	301.650	-0.020	-0.320	-0.500
2020/01/31 10:29:49.5	301.680	0.010	-0.330	-0.450
2020/01/31 10:29:49.6	301.710	0.030	-0.340	-0.410
2020/01/31 10:29:49.7	301.740	0.060	-0.350	-0.360
2020/01/31 10:29:49.8	301.770	0.080	-0.360	-0.310
2020/01/31 10:29:49.9	301.800	0.100	-0.360	-0.260
2020/01/31 10:29:50.0	301.820	0.120	-0.370	-0.200
2020/01/31 10:29:50.1	301.850	0.140	-0.380	-0.150
2020/01/31 10:29:50.2	301.880	0.160	-0.380	-0.090
2020/01/31 10:29:50.3	301.900	0.180	-0.390	-0.030
2020/01/31 10:29:50.4	301.930	0.190	-0.390	0.020
2020/01/31 10:29:50.5	301.950	0.200	-0.390	0.080
2020/01/31 10:29:50.6	301.970	0.210	-0.390	0.140
2020/01/31 10:29:50.7	301.990	0.220	-0.380	0.200
2020/01/31 10:29:50.8	302.010	0.230	-0.380	0.260
2020/01/31 10:29:50.9	302.030	0.240	-0.370	0.320
2020/01/31 10:29:51.0	302.050	0.240	-0.360	0.380
2020/01/31 10:29:51.1	302.060	0.240	-0.350	0.440
2020/01/31 10:29:51.2	302.080	0.240	-0.340	0.500
2020/01/31 10:29:51.3	302.090	0.240	-0.330	0.560
2020/01/31 10:29:51.4	302.100	0.240	-0.310	0.620
2020/01/31 10:29:51.5	302.110	0.230	-0.290	0.670
2020/01/31 10:29:51.6	302.120	0.230	-0.270	0.730
2020/01/31 10:29:51.7	302.120	0.220	-0.250	0.780
2020/01/31 10:29:51.8	302.120	0.210	-0.230	0.830
2020/01/31 10:29:51.9	302.120	0.200	-0.200	0.870
2020/01/31 10:29:52.0	302.120	0.180	-0.170	0.910
2020/01/31 10:29:52.1	302.120	0.170	-0.150	0.950
2020/01/31 10:29:52.2	302.110	0.150	-0.120	0.990
2020/01/31 10:29:52.3	302.100	0.140	-0.090	1.020
2020/01/31 10:29:52.4	302.080	0.120	-0.060	1.050
2020/01/31 10:29:52.5	302.070	0.100	-0.030	1.070
2020/01/31 10:29:52.6	302.050	0.090	0.000	1.090
2020/01/31 10:29:52.7	302.030	0.070	0.030	1.110
2020/01/31 10:29:52.8	302.020	0.050	0.060	1.130
2020/01/31 10:29:52.9	301.990	0.030	0.090	1.140
2020/01/31 10:29:53.0	301.970	0.020	0.120	1.140
2020/01/31 10:29:53.1	301.940	-0.000	0.150	1.150
2020/01/31 10:29:53.2	301.910	-0.020	0.180	1.150
2020/01/31 10:29:53.3	301.880	-0.040	0.200	1.150
2020/01/31 10:29:53.4	301.850	-0.050	0.230	1.140
2020/01/31 10:29:53.5	301.820	-0.070	0.250	1.140
2020/01/31 10:29:53.6	301.780	-0.080	0.270	1.130
2020/01/31 10:29:53.7	301.740	-0.090	0.290	1.120
2020/01/31 10:29:53.8	301.700	-0.110	0.310	1.110
2020/01/31 10:29:53.9	301.660	-0.120	0.330	1.100
2020/01/31 10:29:54.0	301.610	-0.130	0.340	1.090
2020/01/31 10:29:54.1	301.560	-0.140	0.350	1.080
2020/01/31 10:29:54.2	301.510	-0.140	0.360	1.070
2020/01/31 10:29:54.3	301.460	-0.150	0.370	1.060
2020/01/31 10:29:54.4	301.410	-0.160	0.370	1.040
2020/01/31 10:29:54.5	301.350	-0.160	0.370	1.030
2020/01/31 10:29:54.6	301.290	-0.160	0.370	1.020
2020/01/31 10:29:54.7	301.240	-0.170	0.370	1.010
2020/01/31 10:29:54.8	301.180	-0.170	0.360	0.990
2020/01/31 10:29:54.9	301.120	-0.160	0.360	0.980
2020/01/31 10:29:55.0	301.060	-0.160	0.350	0.960
2020/01/31 10:29:55.1	300.990	-0.160	0.340	0.940
2020/01/31 10:29:55.2	300.930	-0.150	0.320	0.930
2020/01/31 10:29:55.3	300.870	-0.150	0.310	0.910
2020/01/31 10:29:55.4	300.820	-0.140	0.290	0.890
2020/01/31 10:29:55.5	300.760	-0.130	0.270	0.870
2020/01/31 10:29:55.6	300.700	-0.120	0.240	0.840
2020/01/31 10:29:55.7	300.650	-0.110	0.220	0.820
2020/01/31 10:29:55.8	300.590	-0.100	0.190	0.790
2020/01/31 10:29:55.9	300.540	-0.090	0.150	0.760
2020/01/31 10:29:56.0	300.490	-0.070	0.120	0.720
2020/01/31 10:29:56.1	300.450	-0.060	0.080	0.690
2020/01/31 10:29:56.2	300.410	-0.040	0.040	0.650
2020/01/31 10:29:56.3	300.370	-0.030	0.000	0.610
2020/01/31 10:29:56.4	300.340	-0.010	-0.050	0.570
2020/01/31 10:29:56.5	300.310	0.010	-0.090	0.520
2020/01/31 10:29:56.6	300.290	0.030	-0.140	0.470
2020/01/31 10:29:56.7	300.270	0.050	-0.190	0.420
2020/01/31 10:29:56.8	300.250	0.070	-0.240	0.360
2020/01/31 10:29:56.9	300.240	0.090	-0.290	0.310
2020/01/31 10:29:57.0	300.230	0.110	-0.340	0.250
2020/01/31 10:29:57.1	300.230	0.130	-0.390	0.190
2020/01/31 10:29:57.2	300.230	0.150	-0.440	0.130
2020/01/31 10:29:57.3	300.230	0.170	-0.490	0.070
2020/01/31 10:29:57.4	300.230	0.180	-0.540	0.000
2020/01/31 10:29:57.5	300.240	0.200	-0.590	-0.060
2020/01/31 10:29:57.6	300.260	0.220	-0.630	-0.120
2020/01/31 10:29:57.7	300.280	0.240	-0.670	-0.180
2020/01/31 10:29:57.8	300.300	0.260	-0.710	-0.240
2020/01/31 10:29:57.9	300.320	0.270	-0.750	-0.300
2020/01/31 10:29:58.0	300.350	0.280	-0.780	-0.350
2020/01/31 10:29:58.1	300.380	0.300	-0.810	-0.410
2020/01/31 10:29:58.2	300.410	0.310	-0.830	-0.460
2020/01/31 10:29:58.3	300.450	0.320	-0.850	-0.510
2020/01/31 10:29:58.4	300.480	0.330	-0.870	-0.550
2020/01/31 10:29:58.5	300.520	0.340	-0.880	-0.600
2020/01/31 10:29:58.6	300.560	0.340	-0.890	-0.640
2020/01/31 10:29:58.7	300.600	0.350	-0.890	-0.670
2020/01/31 10:29:58.8	300.640	0.350	-0.890	-0.710
2020/01/31 10:29:58.9	300.690	0.350	-0.880	-0.740
2020/01/31 10:29:59.0	300.740	0.350	-0.870	-0.760
2020/01/31 10:29:59.1	300.790	0.350	-0.860	-0.790
2020/01/31 10:29:59.2	300.830	0.340	-0.850	-0.800
2020/01/31 10:29:59.3	300.890	0.340	-0.830	-0.820
2020/01/31 10:29:59.4	300.940	0.330	-0.810	-0.820
2020/01/31 10:29:59.5	301.000	0.320	-0.780	-0.830
2020/01/31 10:29:59.6	301.050	0.310	-0.760	-0.830
2020/01/31 10:29:59.7	301.100	0.310	-0.730	-0.820
2020/01/31 10:29:59.8	301.150	0.290	-0.700	-0.820
2020/01/31 10:29:59.9	301.200	0.280	-0.670	-0.800
2020/01/31 10:30:00.0	301.250	0.270	-0.630	-0.790
2020/01/31 10:30:00.1	301.300	0.260	-0.600	-0.760
2020/01/31 10:30:00.2	301.350	0.240	-0.570	-0.740
2020/01/31 10:30:00.3	301.400	0.230	-0.530	-0.710
2020/01/31 10:30:00.4	301.450	0.210	-0.500	-0.680
2020/01/31 10:30:00.5	301.490	0.190	-0.460	-0.640
2020/01/31 10:30:00.6	301.540	0.180	-0.430	-0.600
2020/01/31 10:30:00.7	301.580	0.160	-0.390	-0.560
2020/01/31 10:30:00.8	301.620	0.140	-0.360	-0.520
2020/01/31 10:30:00.9	301.650	0.120	-0.330	-0.470
2020/01/31 10:30:01.0	301.690	0.100	-0.300	-0.420
2020/01/31 10:30:01.1	301.720	0.080	-0.270	-0.370
2020/01/31 10:30:01.2	301.750	0.060	-0.240	-0.320
2020/01/31 10:30:01.3	301.780	0.040	-0.210	-0.270
2020/01/31 10:30:01.4	301.810	0.030	-0.180	-0.220
2020/01/31 10:30:01.5	301.830	0.010	-0.160	-0.170
2020/01/31 10:30:01.6	301.850	-0.010	-0.140	-0.120
2020/01/31 10:30:01.7	301.870	-0.030	-0.120	-0.060
2020/01/31 10:30:01.8	301.890	-0.050	-0.100	-0.010
2020/01/31 10:30:01.9	301.900	-0.060	-0.090	0.040
2020/01/31 10:30:02.0	301.910	-0.080	-0.070	0.090
2020/01/31 10:30:02.1	301.920	-0.100	-0.060	0.140
2020/01/31 10:30:02.2	301.930	-0.110	-0.050	0.190
2020/01/31 10:30:02.3	301.940	-0.130	-0.040	0.240
2020/01/31 10:30:02.4	301.930	-0.140	-0.040	0.280
2020/01/31 10:30:02.5	301.930	-0.150	-0.040	0.330
2020/01/31 10:30:02.6	301.930	-0.170	-0.030	0.370
2020/01/31 10:30:02.7	301.920	-0.180	-0.030	0.420
2020/01/31 10:30:02.8	301.920	-0.190	-0.030	0.460
2020/01/31 10:30:02.9	301.910	-0.200	-0.040	0.500
2020/01/31 10:30:03.0	301.900	-0.210	-0.040	0.530
2020/01/31 10:30:03.1	301.880	-0.210	-0.040	0.570
2020/01/31 10:30:03.2	301.870	-0.220	-0.050	0.600
2020/01/31 10:30:03.3	301.850	-0.230	-0.050	0.640
2020/01/31 10:30:03.4	301.820	-0.230	-0.060	0.660
2020/01/31 10:30:03.5	301.800	-0.240	-0.070	0.690
2020/01/31 10:30:03.6	301.780	-0.240	-0.070	0.720
2020/01/31 10:30:03.7	301.760	-0.240	-0.080	0.740
2020/01/31 10:30:03.8	301.730	-0.240	-0.080	0.760
2020/01/31 10:30:03.9	301.700	-0.240	-0.090	0.780
2020/01/31 10:30:04.0	301.680	-0.240	-0.100	0.800
2020/01/31 10:30:04.1	301.650	-0.240	-0.100	0.810
2020/01/31 10:30:04.2	301.620	-0.240	-0.110	0.830
2020/01/31 10:30:04.3	301.580	-0.230	-0.110	0.840
2020/01/31 10:30:04.4	301.540	-0.230	-0.120	0.850
2020/01/31 10:30:04.5	301.510	-0.230	-0.120	0.860
2020/01/31 10:30:04.6	301.480	-0.220	-0.120	0.860
2020/01/31 10:30:04.7	301.450	-0.220	-0.120	0.870
2020/01/31 10:30:04.8	301.410	-0.210	-0.120	0.870
2020/01/31 10:30:04.9	301.380	-0.200	-0.120	0.870
2020/01/31 10:30:05.0	301.340	-0.200	-0.120	0.870
2020/01/31 10:30:05.1	301.310	-0.190	-0.120	0.870
2020/01/31 10:30:05.2	301.270	-0.180	-0.120	0.860
2020/01/31 10:30:05.3	301.230	-0.180	-0.110	0.860
2020/01/31 10:30:05.4	301.190	-0.170	-0.110	0.850
2020/01/31 10:30:05.5	301.160	-0.160	-0.110	0.850
2020/01/31 10:30:05.6	301.120	-0.150	-0.100	0.840
2020/01/31 10:30:05.7	301.090	-0.150	-0.100	0.830
2020/01/31 10:30:05.8	301.050	-0.140	-0.090	0.820
2020/01/31 10:30:05.9	301.020	-0.130	-0.090	0.810
2020/01/31 10:30:06.0	300.980	-0.130	-0.080	0.800
2020/01/31 10:30:06.1	300.950	-0.120	-0.080	0.780
2020/01/31 10:30:06.2	300.920	-0.110	-0.070	0.770
2020/01/31 10:30:06.3	300.880	-0.110	-0.070	0.750
2020/01/31 10:30:06.4	300.850	-0.100	-0.070	0.730
2020/01/31 10:30:06.5	300.820	-0.090	-0.070	0.710
2020/01/31 10:30:06.6	300.790	-0.090	-0.070	0.690
2020/01/31 10:30:06.7	300.770	-0.080	-0.070	0.670
2020/01/31 10:30:06.8	300.740	-0.070	-0.070	0.650
2020/01/31 10:30:06.9	300.720	-0.070	-0.070	0.620
2020/01/31 10:30:07.0	300.710	-0.060	-0.080	0.590
2020/01/31 10:30:07.1	300.690	-0.060	-0.090	0.560
2020/01/31 10:30:07.2	300.680	-0.050	-0.090	0.530
2020/01/31 10:30:07.3	300.670	-0.050	-0.100	0.490
2020/01/31 10:30:07.4	300.670	-0.040	-0.120	0.460
2020/01/31 10:30:07.5	300.670	-0.040	-0.130	0.420
2020/01/31 10:30:07.6	300.670	-0.030	-0.150	0.380
2020/01/31 10:30:07.7	300.680	-0.030	-0.160	0.340
2020/01/31 10:30:07.8	300.680	-0.020	-0.180	0.300
2020/01/31 10:30:07.9	300.690	-0.020	-0.200	0.250
2020/01/31 10:30:08.0	300.710	-0.010	-0.220	0.210
2020/01/31 10:30:08.1	300.720	-0.010	-0.240	0.170
2020/01/31 10:30:08.2	300.740	-0.000	-0.260	0.120
2020/01/31 10:30:08.3	300.760	-0.000	-0.280	0.080
2020/01/31 10:30:08.4	300.780	0.000	-0.310	0.040
2020/01/31 10:30:08.5	300.800	0.000	-0.330	-0.010
2020/01/31 10:30:08.6	300.820	0.010	-0.350	-0.050
2020/01/31 10:30:08.7	300.850	0.010	-0.370	-0.090
2020/01/31 10:30:08.8	300.870	0.010	-0.380	-0.130
2020/01/31 10:30:08.9	300.900	0.010	-0.400	-0.160
2020/01/31 10:30:09.0	300.930	0.010	-0.410	-0.200
2020/01/31 10:30:09.1	300.950	0.010	-0.420	-0.240
2020/01/31 10:30:09.2	300.980	0.000	-0.430	-0.270
2020/01/31 10:30:09.3	301.010	-0.000	-0.440	-0.300
2020/01/31 10:30:09.4	301.040	-0.010	-0.440	-0.330
2020/01/31 10:30:09.5	301.070	-0.010	-0.440	-0.360
2020/01/31 10:30:09.6	301.100	-0.020	-0.450	-0.390
2020/01/31 10:30:09.7	301.130	-0.030	-0.440	-0.410
2020/01/31 10:30:09.8	301.160	-0.030	-0.440	-0.440
2020/01/31 10:30:09.9	301.190	-0.040	-0.440	-0.460
2020/01/31 10:30:10.0	301.220	-0.050	-0.430	-0.480
2020/01/31 10:30:10.1	301.240	-0.060	-0.420	-0.500
2020/01/31 10:30:10.2	301.270	-0.080	-0.410	-0.510
2020/01/31 10:30:10.3	301.300	-0.090	-0.400	-0.520
2020/01/31 10:30:10.4	301.340	-0.100	-0.390	-0.530
2020/01/31 10:30:10.5	301.360	-0.110	-0.380	-0.540
2020/01/31 10:30:10.6	301.390	-0.130	-0.360	-0.550
2020/01/31 10:30:10.7	301.420	-0.140	-0.350	-0.550
2020/01/31 10:30:10.8	301.440	-0.150	-0.330	-0.550
2020/01/31 10:30:10.9	301.460	-0.160	-0.320	-0.550
2020/01/31 10:30:11.0	301.490	-0.180	-0.300	-0.550
2020/01/31 10:30:11.1	301.510	-0.190	-0.280	-0.550
2020/01/31 10:30:11.2	301.530	-0.200	-0.260	-0.540
2020/01/31 10:30:11.3	301.560	-0.220	-0.250	-0.530
2020/01/31 10:30:11.4	301.580	-0.230	-0.230	-0.520
2020/01/31 10:30:11.5	301.600	-0.240	-0.210	-0.500
2020/01/31 10:30:11.6	301.620	-0.250	-0.190	-0.490
2020/01/31 10:30:11.7	301.640	-0.260	-0.180	-0.470
2020/01/31 10:30:11.8	301.660	-0.260	-0.160	-0.450
2020/01/31 10:30:11.9	301.680	-0.270	-0.140	-0.430
2020/01/31 10:30:12.0	301.690	-0.270	-0.130	-0.410
2020/01/31 10:30:12.1	301.710	-0.280	-0.110	-0.390
2020/01/31 10:30:12.2	301.720	-0.280	-0.100	-0.360
2020/01/31 10:30:12.3	301.730	-0.280	-0.080	-0.330
2020/01/31 10:30:12.4	301.740	-0.280	-0.070	-0.310
2020/01/31 10:30:12.5	301.750	-0.280	-0.060	-0.270
2020/01/31 10:30:12.6	301.760	-0.270	-0.050	-0.240
2020/01/31 10:30:12.7	301.770	-0.260	-0.040	-0.200
2020/01/31 10:30:12.8	301.770	-0.250	-0.030	-0.170
2020/01/31 10:30:12.9	301.780	-0.240	-0.020	-0.130
2020/01/31 10:30:13.0	301.780	-0.230	-0.020	-0.090
2020/01/31 10:30:13.1	301.790	-0.210	-0.010	-0.040
2020/01/31 10:30:13.2	301.790	-0.200	-0.010	0.000
2020/01/31 10:30:13.3	301.790	-0.180	-0.010	0.050
2020/01/31 10:30:13.4	301.790	-0.160	-0.010	0.090
2020/01/31 10:30:13.5	301.790	-0.140	-0.020	0.140
2020/01/31 10:30:13.6	301.790	-0.110	-0.020	0.190
2020/01/31 10:30:13.7	301.790	-0.080	-0.030	0.240
2020/01/31 10:30:13.8	301.790	-0.060	-0.040	0.280
2020/01/31 10:30:13.9	301.780	-0.030	-0.050	0.330
2020/01/31 10:30:14.0	301.780	0.000	-0.070	0.380
2020/01/31 10:30:14.1	301.780	0.040	-0.080	0.420
2020/01/31 10:30:14.2	301.780	0.070	-0.100	0.470
2020/01/31 10:30:14.3	301.770	0.110	-0.120	0.510
2020/01/31 10:30:14.4	301.780	0.140	-0.140	0.550
2020/01/31 10:30:14.5	301.780	0.180	-0.160	0.590
2020/01/31 10:30:14.6	301.770	0.210	-0.180	0.630
2020/01/31 10:30:14.7	301.770	0.250	-0.210	0.660
2020/01/31 10:30:14.8	301.770	0.290	-0.230	0.700
2020/01/31 10:30:14.9	301.760	0.320	-0.260	0.720
2020/01/31 10:30:15.0	301.760	0.360	-0.280	0.750
2020/01/31 10:30:15.1	301.750	0.390	-0.310	0.780
2020/01/31 10:30:15.2	301.750	0.430	-0.340	0.800
2020/01/31 10:30:15.3	301.740	0.460	-0.360	0.810
2020/01/31 10:30:15.4	301.740	0.490	-0.390	0.820
2020/01/31 10:30:15.5	301.730	0.520	-0.410	0.840
2020/01/31 10:30:15.6	301.730	0.550	-0.440	0.840
2020/01/31 10:30:15.7	301.730	0.570	-0.460	0.850
2020/01/31 10:30:15.8	301.720	0.600	-0.480	0.850
2020/01/31 10:30:15.9	301.720	0.620	-0.500	0.850
2020/01/31 10:30:16.0	301.710	0.630	-0.510	0.850
2020/01/31 10:30:16.1	301.700	0.650	-0.520	0.840
2020/01/31 10:30:16.2	301.700	0.660	-0.530	0.830
2020/01/31 10:30:16.3	301.690	0.670	-0.540	0.820
2020/01/31 10:30:16.4	301.690	0.680	-0.550	0.810
2020/01/31 10:30:16.5	301.680	0.680	-0.550	0.800
2020/01/31 10:30:16.6	301.670	0.680	-0.550	0.780
2020/01/31 10:30:16.7	301.660	0.680	-0.540	0.770
2020/01/31 10:30:16.8	301.650	0.670	-0.540	0.750
2020/01/31 10:30:16.9	301.640	0.660	-0.530	0.730
2020/01/31 10:30:17.0	301.630	0.650	-0.510	0.710
2020/01/31 10:30:17.1	301.620	0.630	-0.500	0.690
2020/01/31 10:30:17.2	301.600	0.610	-0.480	0.670
2020/01/31 10:30:17.3	301.590	0.590	-0.460	0.640
2020/01/31 10:30:17.4	301.580	0.570	-0.440	0.620
2020/01/31 10:30:17.5	301.570	0.540	-0.420	0.600
2020/01/31 10:30:17.6	301.550	0.510	-0.400	0.570
2020/01/31 10:30:17.7	301.540	0.480	-0.370	0.540
2020/01/31 10:30:17.8	301.520	0.450	-0.350	0.520
2020/01/31 10:30:17.9	301.510	0.420	-0.320	0.490
2020/01/31 10:30:18.0	301.490	0.390	-0.290	0.460
2020/01/31 10:30:18.1	301.480	0.350	-0.270	0.440
2020/01/31 10:30:18.2	301.460	0.310	-0.240	0.410
2020/01/31 10:30:18.3	301.450	0.280	-0.220	0.380
2020/01/31 10:30:18.4	301.430	0.240	-0.190	0.350
2020/01/31 10:30:18.5	301.420	0.200	-0.170	0.320
2020/01/31 10:30:18.6	301.400	0.170	-0.150	0.290
2020/01/31 10:30:18.7	301.380	0.130	-0.130	0.270
2020/01/31 10:30:18.8	301.370	0.100	-0.110	0.240
2020/01/31 10:30:18.9	301.350	0.060	-0.090	0.220
2020/01/31 10:30:19.0	301.330	0.030	-0.070	0.190
2020/01/31 10:30:19.1	301.310	-0.010	-0.050	0.170
2020/01/31 10:30:19.2	301.300	-0.040	-0.040	0.150
2020/01/31 10:30:19.3	301.280	-0.070	-0.020	0.130
2020/01/31 10:30:19.4	301.240	-0.100	-0.020	0.120
2020/01/31 10:30:19.5	301.220	-0.130	-0.000	0.100
2020/01/31 10:30:19.6	301.200	-0.160	0.010	0.090
2020/01/31 10:30:19.7	301.180	-0.190	0.020	0.080
2020/01/31 10:30:19.8	301.160	-0.210	0.020	0.070
2020/01/31 10:30:19.9	301.140	-0.240	0.030	0.060
2020/01/31 10:30:20.0	301.110	-0.260	0.040	0.050
2020/01/31 10:30:20.1	301.090	-0.280	0.040	0.050
2020/01/31 10:30:20.2	301.070	-0.300	0.040	0.040
2020/01/31 10:30:20.3	301.050	-0.320	0.050	0.040
2020/01/31 10:30:20.4	301.020	-0.330	0.050	0.040
2020/01/31 10:30:20.5	301.000	-0.350	0.050	0.040
2020/01/31 10:30:20.6	300.990	-0.360	0.040	0.030
2020/01/31 10:30:20.7	300.970	-0.370	0.040	0.030
2020/01/31 10:30:20.8	300.960	-0.380	0.040	0.030
2020/01/31 10:30:20.9	300.940	-0.390	0.030	0.040
2020/01/31 10:30:21.0	300.930	-0.400	0.030	0.040
2020/01/31 10:30:21.1	300.920	-0.410	0.020	0.040
2020/01/31 10:30:21.2	300.910	-0.410	0.010	0.040
2020/01/31 10:30:21.3	300.910	-0.420	0.000	0.040
2020/01/31 10:30:21.4	300.910	-0.420	-0.010	0.040
2020/01/31 10:30:21.5	300.910	-0.420	-0.020	0.040
2020/01/31 10:30:21.6	300.920	-0.420	-0.040	0.030
2020/01/31 10:30:21.7	300.920	-0.420	-0.050	0.030
2020/01/31 10:30:21.8	300.930	-0.420	-0.070	0.020
2020/01/31 10:30:21.9	300.930	-0.420	-0.090	0.020
2020/01/31 10:30:22.0	300.950	-0.420	-0.110	0.010
2020/01/31 10:30:22.1	300.960	-0.410	-0.130	0.010
2020/01/31 10:30:22.2	300.980	-0.410	-0.150	-0.000
2020/01/31 10:30:22.3	301.000	-0.410	-0.170	-0.010
2020/01/31 10:30:22.4	301.020	-0.400	-0.200	-0.020
2020/01/31 10:30:22.5	301.040	-0.400	-0.220	-0.030
2020/01/31 10:30:22.6	301.070	-0.390	-0.250	-0.040
2020/01/31 10:30:22.7	301.090	-0.380	-0.270	-0.050
2020/01/31 10:30:22.8	301.120	-0.370	-0.290	-0.060
2020/01/31 10:30:22.9	301.150	-0.370	-0.320	-0.070
2020/01/31 10:30:23.0	301.180	-0.360	-0.340	-0.080
2020/01/31 10:30:23.1	301.210	-0.350	-0.370	-0.080
2020/01/31 10:30:23.2	301.240	-0.340	-0.390	-0.090
2020/01/31 10:30:23.3	301.270	-0.330	-0.420	-0.100
2020/01/31 10:30:23.4	301.300	-0.320	-0.440	-0.100
2020/01/31 10:30:23.5	301.330	-0.310	-0.460	-0.100
2020/01/31 10:30:23.6	301.370	-0.300	-0.480	-0.110
2020/01/31 10:30:23.7	301.400	-0.290	-0.500	-0.110
2020/01/31 10:30:23.8	301.440	-0.280	-0.520	-0.110
2020/01/31 10:30:23.9	301.470	-0.270	-0.540	-0.100
2020/01/31 10:30:24.0	301.500	-0.260	-0.560	-0.100
2020/01/31 10:30:24.1	301.540	-0.250	-0.570	-0.090
2020/01/31 10:30:24.2	301.570	-0.240	-0.590	-0.090
2020/01/31 10:30:24.3	301.600	-0.230	-0.600	-0.080
2020/01/31 10:30:24.4	301.640	-0.220	-0.610	-0.070
2020/01/31 10:30:24.5	301.670	-0.200	-0.620	-0.050
2020/01/31 10:30:24.6	301.700	-0.190	-0.620	-0.040
2020/01/31 10:30:24.7	301.730	-0.180	-0.630	-0.030
2020/01/31 10:30:24.8	301.760	-0.170	-0.630	-0.010
2020/01/31 10:30:24.9	301.780	-0.160	-0.630	0.010
2020/01/31 10:30:25.0	301.810	-0.150	-0.630	0.030
2020/01/31 10:30:25.1	301.830	-0.140	-0.630	0.050
2020/01/31 10:30:25.2	301.850	-0.130	-0.630	0.070
2020/01/31 10:30:25.3	301.880	-0.130	-0.620	0.100
2020/01/31 10:30:25.4	301.900	-0.120	-0.610	0.120
2020/01/31 10:30:25.5	301.920	-0.110	-0.600	0.150
2020/01/31 10:30:25.6	301.940	-0.100	-0.590	0.180
2020/01/31 10:30:25.7	301.960	-0.090	-0.580	0.210
2020/01/31 10:30:25.8	301.970	-0.080	-0.570	0.240
2020/01/31 10:30:25.9	301.990	-0.070	-0.550	0.270
2020/01/31 10:30:26.0	302.000	-0.070	-0.530	0.300
2020/01/31 10:30:26.1	302.010	-0.060	-0.510	0.330
2020/01/31 10:30:26.2	302.020	-0.050	-0.490	0.360
2020/01/31 10:30:26.3	302.030	-0.050	-0.470	0.390
2020/01/31 10:30:26.4	302.040	-0.040	-0.450	0.420
2020/01/31 10:30:26.5	302.050	-0.030	-0.420	0.450
2020/01/31 10:30:26.6	302.050	-0.030	-0.400	0.480
2020/01/31 10:30:26.7	302.050	-0.020	-0.370	0.510
2020/01/31 10:30:26.8	302.050	-0.020	-0.350	0.540
2020/01/31 10:30:26.9	302.050	-0.010	-0.320	0.560
2020/01/31 10:30:27.0	302.050	-0.000	-0.290	0.590
2020/01/31 10:30:27.1	302.050	0.000	-0.260	0.610
2020/01/31 10:30:27.2	302.040	0.010	-0.230	0.640
2020/01/31 10:30:27.3	302.040	0.010	-0.200	0.660
2020/01/31 10:30:27.4	302.030	0.020	-0.170	0.690
2020/01/31 10:30:27.5	302.020	0.020	-0.140	0.710
2020/01/31 10:30:27.6	302.010	0.030	-0.120	0.730
2020/01/31 10:30:27.7	302.000	0.030	-0.090	0.740
2020/01/31 10:30:27.8	301.990	0.040	-0.060	0.760
2020/01/31 10:30:27.9	301.970	0.040	-0.030	0.780
2020/01/31 10:30:28.0	301.960	0.050	-0.010	0.790
2020/01/31 10:30:28.1	301.940	0.060	0.020	0.810
2020/01/31 10:30:28.2	301.930	0.060	0.040	0.820
2020/01/31 10:30:28.3	301.910	0.070	0.060	0.830
2020/01/31 10:30:28.4	301.890	0.070	0.080	0.840
2020/01/31 10:30:28.5	301.870	0.080	0.100	0.850
2020/01/31 10:30:28.6	301.850	0.090	0.120	0.860
2020/01/31 10:30:28.7	301.830	0.090	0.140	0.870
2020/01/31 10:30:28.8	301.810	0.100	0.150	0.870
2020/01/31 10:30:28.9	301.790	0.110	0.170	0.880
2020/01/31 10:30:29.0	301.770	0.110	0.180	0.880
2020/01/31 10:30:29.1	301.750	0.120	0.190	0.890
2020/01/31 10:30:29.2	301.730	0.130	0.190	0.890
2020/01/31 10:30:29.3	301.710	0.140	0.200	0.890
2020/01/31 10:30:29.4	301.670	0.150	0.200	0.890
2020/01/31 10:30:29.5	301.650	0.160	0.200	0.890
2020/01/31 10:30:29.6	301.630	0.170	0.200	0.880
2020/01/31 10:30:29.7	301.610	0.180	0.190	0.880
2020/01/31 10:30:29.8	301.590	0.190	0.190	0.870
2020/01/31 10:30:29.9	301.570	0.200	0.180	0.860
2020/01/31 10:30:30.0	301.550	0.210	0.170	0.850
2020/01/31 10:30:30.1	301.530	0.220	0.160	0.840
2020/01/31 10:30:30.2	301.510	0.230	0.140	0.830
2020/01/31 10:30:30.3	301.500	0.240	0.130	0.820
2020/01/31 10:30:30.4	301.490	0.250	0.110	0.800
2020/01/31 10:30:30.5	301.470	0.260	0.100	0.780
2020/01/31 10:30:30.6	301.460	0.270	0.080	0.760
2020/01/31 10:30:30.7	301.450	0.280	0.060	0.750
2020/01/31 10:30:30.8	301.440	0.290	0.040	0.730
2020/01/31 10:30:30.9	301.430	0.300	0.020	0.710
2020/01/31 10:30:31.0	301.420	0.310	0.000	0.690
2020/01/31 10:30:31.1	301.410	0.320	-0.020	0.670
2020/01/31 10:30:31.2	301.410	0.330	-0.040	0.650
2020/01/31 10:30:31.3	301.400	0.340	-0.060	0.630
2020/01/31 10:30:31.4	301.390	0.340	-0.080	0.610
2020/01/31 10:30:31.5	301.380	0.350	-0.100	0.590
2020/01/31 10:30:31.6	301.380	0.360	-0.120	0.570
2020/01/31 10:30:31.7	301.370	0.360	-0.140	0.540
2020/01/31 10:30:31.8	301.370	0.370	-0.160	0.520
2020/01/31 10:30:31.9	301.360	0.370	-0.180	0.500
2020/01/31 10:30:32.0	301.360	0.370	-0.200	0.480
2020/01/31 10:30:32.1	301.350	0.370	-0.220	0.460
2020/01/31 10:30:32.2	301.350	0.370	-0.240	0.440
2020/01/31 10:30:32.3	301.350	0.370	-0.260	0.420
2020/01/31 10:30:32.4	301.340	0.370	-0.270	0.400
2020/01/31 10:30:32.5	301.340	0.370	-0.290	0.370
2020/01/31 10:30:32.6	301.330	0.360	-0.310	0.350
2020/01/31 10:30:32.7	301.340	0.360	-0.330	0.330
2020/01/31 10:30:32.8	301.340	0.350	-0.350	0.300
2020/01/31 10:30:32.9	301.340	0.350	-0.360	0.280
2020/01/31 10:30:33.0	301.340	0.340	-0.380	0.250
2020/01/31 10:30:33.1	301.350	0.340	-0.400	0.220
2020/01/31 10:30:33.2	301.360	0.330	-0.420	0.190
2020/01/31 10:30:33.3	301.370	0.320	-0.440	0.160
2020/01/31 10:30:33.4	301.380	0.310	-0.450	0.130
2020/01/31 10:30:33.5	301.400	0.300	-0.470	0.100
2020/01/31 10:30:33.6	301.410	0.290	-0.490	0.060
2020/01/31 10:30:33.7	301.430	0.280	-0.510	0.030
2020/01/31 10:30:33.8	301.450	0.270	-0.520	-0.010
2020/01/31 10:30:33.9	301.470	0.260	-0.540	-0.050
2020/01/31 10:30:34.0	301.490	0.250	-0.560	-0.090
2020/01/31 10:30:34.1	301.520	0.240	-0.570	-0.120
2020/01/31 10:30:34.2	301.540	0.230	-0.580	-0.160
2020/01/31 10:30:34.3	301.570	0.210	-0.600	-0.200
2020/01/31 10:30:34.4	301.590	0.200	-0.610	-0.230
2020/01/31 10:30:34.5	301.620	0.190	-0.610	-0.270
2020/01/31 10:30:34.6	301.650	0.170	-0.620	-0.300
2020/01/31 10:30:34.7	301.680	0.160	-0.620	-0.330
2020/01/31 10:30:34.8	301.700	0.140	-0.620	-0.360
2020/01/31 10:30:34.9	301.730	0.130	-0.620	-0.390
2020/01/31 10:30:35.0	301.760	0.110	-0.610	-0.420
2020/01/31 10:30:35.1	301.780	0.090	-0.600	-0.440
2020/01/31 10:30:35.2	301.810	0.070	-0.590	-0.470
2020/01/31 10:30:35.3	301.840	0.060	-0.580	-0.490
2020/01/31 10:30:35.4	301.860	0.040	-0.560	-0.510
2020/01/31 10:30:35.5	301.880	0.020	-0.540	-0.520
2020/01/31 10:30:35.6	301.910	-0.000	-0.520	-0.540
2020/01/31 10:30:35.7	301.930	-0.020	-0.500	-0.550
2020/01/31 10:30:35.8	301.960	-0.040	-0.470	-0.560
2020/01/31 10:30:35.9	301.980	-0.060	-0.440	-0.570
2020/01/31 10:30:36.0	302.000	-0.080	-0.420	-0.580
2020/01/31 10:30:36.1	302.030	-0.100	-0.390	-0.580
2020/01/31 10:30:36.2	302.050	-0.130	-0.360	-0.580
2020/01/31 10:30:36.3	302.070	-0.150	-0.330	-0.580
2020/01/31 10:30:36.4	302.100	-0.170	-0.300	-0.570
2020/01/31 10:30:36.5	302.120	-0.190	-0.270	-0.560
2020/01/31 10:30:36.6	302.140	-0.210	-0.240	-0.550
2020/01/31 10:30:36.7	302.150	-0.230	-0.210	-0.540
2020/01/31 10:30:36.8	302.170	-0.240	-0.180	-0.520
2020/01/31 10:30:36.9	302.190	-0.260	-0.150	-0.500
2020/01/31 10:30:37.0	302.200	-0.280	-0.120	-0.480
2020/01/31 10:30:37.1	302.210	-0.300	-0.100	-0.450
2020/01/31 10:30:37.2	302.220	-0.310	-0.070	-0.420
2020/01/31 10:30:37.3	302.230	-0.330	-0.050	-0.390
2020/01/31 10:30:37.4	302.250	-0.340	-0.030	-0.360
2020/01/31 10:30:37.5	302.260	-0.350	-0.010	-0.330
2020/01/31 10:30:37.6	302.260	-0.360	0.000	-0.290
2020/01/31 10:30:37.7	302.270	-0.370	0.010	-0.260
2020/01/31 10:30:37.8	302.270	-0.380	0.020	-0.220
2020/01/31 10:30:37.9	302.270	-0.390	0.030	-0.190
2020/01/31 10:30:38.0	302.270	-0.390	0.030	-0.150
2020/01/31 10:30:38.1	302.270	-0.400	0.030	-0.120
2020/01/31 10:30:38.2	302.270	-0.400	0.030	-0.080
2020/01/31 10:30:38.3	302.270	-0.400	0.020	-0.040
2020/01/31 10:30:38.4	302.280	-0.400	0.010	-0.010
2020/01/31 10:30:38.5	302.280	-0.390	0.000	0.030
2020/01/31 10:30:38.6	302.270	-0.390	-0.010	0.060
2020/01/31 10:30:38.7	302.270	-0.380	-0.030	0.090
2020/01/31 10:30:38.8	302.270	-0.370	-0.050	0.130
2020/01/31 10:30:38.9	302.260	-0.360	-0.080	0.160
2020/01/31 10:30:39.0	302.260	-0.350	-0.100	0.190
2020/01/31 10:30:39.1	302.250	-0.340	-0.130	0.220
2020/01/31 10:30:39.2	302.240	-0.330	-0.160	0.250
2020/01/31 10:30:39.3	302.240	-0.320	-0.190	0.270
2020/01/31 10:30:39.4	302.230	-0.300	-0.230	0.300
2020/01/31 10:30:39.5	302.220	-0.290	-0.260	0.330
2020/01/31 10:30:39.6	302.210	-0.270	-0.290	0.350
2020/01/31 10:30:39.7	302.200	-0.260	-0.320	0.370
2020/01/31 10:30:39.8	302.190	-0.240	-0.350	0.400
2020/01/31 10:30:39.9	302.180	-0.230	-0.390	0.420
2020/01/31 10:30:40.0	302.170	-0.220	-0.420	0.440
2020/01/31 10:30:40.1	302.160	-0.210	-0.440	0.460
2020/01/31 10:30:40.2	302.140	-0.190	-0.470	0.480
2020/01/31 10:30:40.3	302.130	-0.180	-0.500	0.490
2020/01/31 10:30:40.4	302.080	-0.170	-0.520	0.500
2020/01/31 10:30:40.5	302.070	-0.170	-0.540	0.520
2020/01/31 10:30:40.6	302.050	-0.160	-0.550	0.530
2020/01/31 10:30:40.7	302.030	-0.150	-0.570	0.540
2020/01/31 10:30:40.8	302.010	-0.150	-0.580	0.550
2020/01/31 10:30:40.9	301.990	-0.150	-0.590	0.560
2020/01/31 10:30:41.0	301.970	-0.150	-0.590	0.560
2020/01/31 10:30:41.1	301.950	-0.150	-0.590	0.560
2020/01/31 10:30:41.2	301.930	-0.150	-0.590	0.570
2020/01/31 10:30:41.3	301.910	-0.150	-0.590	0.570
2020/01/31 10:30:41.4	301.900	-0.160	-0.570	0.560
2020/01/31 10:30:41.5	301.880	-0.160	-0.560	0.560
2020/01/31 10:30:41.6	301.860	-0.170	-0.540	0.560
2020/01/31 10:30:41.7	301.840	-0.180	-0.520	0.550
2020/01/31 10:30:41.8	301.820	-0.190	-0.500	0.550
2020/01/31 10:30:41.9	301.800	-0.200	-0.470	0.540
2020/01/31 10:30:42.0	301.780	-0.210	-0.430	0.530
2020/01/31 10:30:42.1	301.760	-0.220	-0.400	0.530
2020/01/31 10:30:42.2	301.740	-0.230	-0.360	0.520
2020/01/31 10:30:42.3	301.720	-0.240	-0.320	0.510
2020/01/31 10:30:42.4	301.720	-0.250	-0.280	0.500
2020/01/31 10:30:42.5	301.700	-0.260	-0.240	0.500
2020/01/31 10:30:42.6	301.680	-0.270	-0.200	0.490
2020/01/31 10:30:42.7	301.670	-0.280	-0.160	0.480
2020/01/31 10:30:42.8	301.650	-0.290	-0.110	0.470
2020/01/31 10:30:42.9	301.640	-0.290	-0.070	0.470
2020/01/31 10:30:43.0	301.630	-0.300	-0.030	0.460
2020/01/31 10:30:43.1	301.620	-0.300	0.010	0.450
2020/01/31 10:30:43.2	301.610	-0.310	0.050	0.440
2020/01/31 10:30:43.3	301.600	-0.310	0.080	0.440
2020/01/31 10:30:43.4	301.590	-0.310	0.110	0.430
2020/01/31 10:30:43.5	301.580	-0.310	0.140	0.420
2020/01/31 10:30:43.6	301.580	-0.300	0.170	0.410
2020/01/31 10:30:43.7	301.570	-0.300	0.190	0.410
2020/01/31 10:30:43.8	301.570	-0.290	0.210	0.400
2020/01/31 10:30:43.9	301.570	-0.280	0.220	0.390
2020/01/31 10:30:44.0	301.560	-0.260	0.240	0.380
2020/01/31 10:30:44.1	301.560	-0.250	0.240	0.370
2020/01/31 10:30:44.2	301.560	-0.230	0.240	0.370
2020/01/31 10:30:44.3	301.570	-0.210	0.240	0.360
2020/01/31 10:30:44.4	301.560	-0.190	0.240	0.350
2020/01/31 10:30:44.5	301.570	-0.160	0.230	0.340
2020/01/31 10:30:44.6	301.570	-0.130	0.210	0.330
2020/01/31 10:30:44.7	301.580	-0.100	0.200	0.330
2020/01/31 10:30:44.8	301.590	-0.070	0.180	0.320
2020/01/31 10:30:44.9	301.600	-0.040	0.150	0.320
2020/01/31 10:30:45.0	301.610	-0.000	0.130	0.310
2020/01/31 10:30:45.1	301.620	0.030	0.100	0.310
2020/01/31 10:30:45.2	301.630	0.070	0.060	0.310
2020/01/31 10:30:45.3	301.650	0.110	0.030	0.300
2020/01/31 10:30:45.4	301.660	0.150	-0.000	0.300
2020/01/31 10:30:45.5	301.670	0.180	-0.040	0.300
2020/01/31 10:30:45.6	301.690	0.220	-0.080	0.300
2020/01/31 10:30:45.7	301.700	0.260	-0.110	0.300
2020/01/31 10:30:45.8	301.720	0.300	-0.150	0.300
2020/01/31 10:30:45.9	301.740	0.340	-0.190	0.290
2020/01/31 10:30:46.0	301.750	0.370	-0.220	0.290
2020/01/31 10:30:46.1	301.770	0.410	-0.260	0.290
2020/01/31 10:30:46.2	301.780	0.440	-0.290	0.290
2020/01/31 10:30:46.3	301.800	0.470	-0.320	0.290
2020/01/31 10:30:46.4	301.810	0.500	-0.360	0.290
2020/01/31 10:30:46.5	301.830	0.530	-0.380	0.280
2020/01/31 10:30:46.6	301.840	0.550	-0.410	0.280
2020/01/31 10:30:46.7	301.850	0.580	-0.430	0.280
2020/01/31 10:30:46.8	301.870	0.590	-0.450	0.280
2020/01/31 10:30:46.9	301.880	0.610	-0.460	0.280
2020/01/31 10:30:47.0	301.890	0.620	-0.470	0.280
2020/01/31 10:30:47.1	301.900	0.630	-0.480	0.270
2020/01/31 10:30:47.2	301.920	0.640	-0.490	0.270
2020/01/31 10:30:47.3	301.930	0.650	-0.490	0.270
2020/01/31 10:30:47.4	301.930	0.650	-0.490	0.270
2020/01/31 10:30:47.5	301.940	0.650	-0.490	0.270
2020/01/31 10:30:47.6	301.950	0.640	-0.480	0.260
2020/01/31 10:30:47.7	301.950	0.640	-0.470	0.260
2020/01/31 10:30:47.8	301.960	0.630	-0.450	0.260
2020/01/31 10:30:47.9	301.970	0.610	-0.440	0.260
2020/01/31 10:30:48.0	301.970	0.600	-0.420	0.260
2020/01/31 10:30:48.1	301.980	0.580	-0.400	0.260
2020/01/31 10:30:48.2	301.980	0.560	-0.380	0.260
2020/01/31 10:30:48.3	301.980	0.540	-0.360	0.250
2020/01/31 10:30:48.4	301.990	0.520	-0.340	0.260
2020/01/31 10:30:48.5	302.000	0.500	-0.310	0.260
2020/01/31 10:30:48.6	302.000	0.470	-0.290	0.250
2020/01/31 10:30:48.7	302.000	0.450	-0.270	0.250
2020/01/31 10:30:48.8	302.000	0.420	-0.250	0.250
2020/01/31 10:30:48.9	301.990	0.390	-0.220	0.240
2020/01/31 10:30:49.0	301.990	0.360	-0.200	0.240
2020/01/31 10:30:49.1	301.990	0.340	-0.180	0.240
2020/01/31 10:30:49.2	301.990	0.310	-0.160	0.230
2020/01/31 10:30:49.3	301.980	0.280	-0.150	0.230
2020/01/31 10:30:49.4	301.980	0.250	-0.130	0.220
2020/01/31 10:30:49.5	301.970	0.220	-0.120	0.210
2020/01/31 10:30:49.6	301.970	0.190	-0.110	0.210
2020/01/31 10:30:49.7	301.960	0.160	-0.100	0.200
2020/01/31 10:30:49.8	301.960	0.130	-0.100	0.190
2020/01/31 10:30:49.9	301.960	0.110	-0.090	0.180
2020/01/31 10:30:50.0	301.950	0.080	-0.090	0.170
2020/01/31 10:30:50.1	301.950	0.050	-0.090	0.160
2020/01/31 10:30:50.2	301.950	0.030	-0.090	0.140
2020/01/31 10:30:50.3	301.940	0.000	-0.090	0.130
2020/01/31 10:30:50.4	301.950	-0.020	-0.100	0.120
2020/01/31 10:30:50.5	301.940	-0.050	-0.110	0.100
2020/01/31 10:30:50.6	301.940	-0.070	-0.110	0.090
2020/01/31 10:30:50.7	301.940	-0.090	-0.120	0.070
2020/01/31 10:30:50.8	301.940	-0.110	-0.130	0.060
2020/01/31 10:30:50.9	301.930	-0.130	-0.150	0.040
2020/01/31 10:30:51.0	301.930	-0.150	-0.160	0.030
2020/01/31 10:30:51.1	301.930	-0.170	-0.170	0.010
2020/01/31 10:30:51.2	301.930	-0.190	-0.180	-0.000
2020/01/31 10:30:51.3	301.930	-0.200	-0.200	-0.010
2020/01/31 10:30:51.4	301.920	-0.220	-0.210	-0.030
2020/01/31 10:30:51.5	301.920	-0.240	-0.220	-0.040
2020/01/31 10:30:51.6	301.910	-0.250	-0.240	-0.050
2020/01/31 10:30:51.7	301.910	-0.260	-0.250	-0.070
2020/01/31 10:30:51.8	301.910	-0.270	-0.260	-0.080
2020/01/31 10:30:51.9	301.900	-0.290	-0.270	-0.090
2020/01/31 10:30:52.0	301.900	-0.300	-0.280	-0.100
2020/01/31 10:30:52.1	301.900	-0.310	-0.290	-0.110
2020/01/31 10:30:52.2	301.890	-0.310	-0.290	-0.110
2020/01/31 10:30:52.3	301.890	-0.320	-0.300	-0.120
2020/01/31 10:30:52.4	301.890	-0.330	-0.310	-0.130
2020/01/31 10:30:52.5	301.880	-0.330	-0.310	-0.130
2020/01/31 10:30:52.6	301.880	-0.340	-0.310	-0.130
2020/01/31 10:30:52.7	301.880	-0.340	-0.320	-0.140
2020/01/31 10:30:52.8	301.870	-0.350	-0.320	-0.140
2020/01/31 10:30:52.9	301.870	-0.350	-0.320	-0.140
2020/01/31 10:30:53.0	301.870	-0.350	-0.320	-0.140
2020/01/31 10:30:53.1	301.860	-0.350	-0.320	-0.140
2020/01/31 10:30:53.2	301.860	-0.350	-0.330	-0.130
2020/01/31 10:30:53.3	301.860	-0.350	-0.330	-0.130
2020/01/31 10:30:53.4	301.850	-0.340	-0.330	-0.120
2020/01/31 10:30:53.5	301.850	-0.340	-0.330	-0.120
2020/01/31 10:30:53.6	301.850	-0.330	-0.340	-0.110
2020/01/31 10:30:53.7	301.850	-0.330	-0.340	-0.110
2020/01/31 10:30:53.8	301.850	-0.320	-0.340	-0.100
2020/01/31 10:30:53.9	301.850	-0.320	-0.350	-0.090
2020/01/31 10:30:54.0	301.850	-0.310	-0.350	-0.080
2020/01/31 10:30:54.1	301.840	-0.300	-0.360	-0.070
2020/01/31 10:30:54.2	301.840	-0.290	-0.360	-0.050
2020/01/31 10:30:54.3	301.840	-0.280	-0.370	-0.040
2020/01/31 10:30:54.4	301.840	-0.270	-0.370	-0.020
2020/01/31 10:30:54.5	301.840	-0.260	-0.380	-0.000
2020/01/31 10:30:54.6	301.830	-0.250	-0.390	0.020
2020/01/31 10:30:54.7	301.830	-0.240	-0.390	0.040
2020/01/31 10:30:54.8	301.820	-0.220	-0.400	0.060
2020/01/31 10:30:54.9	301.820	-0.210	-0.410	0.080
2020/01/31 10:30:55.0	301.810	-0.200	-0.410	0.110
2020/01/31 10:30:55.1	301.800	-0.190	-0.420	0.130
2020/01/31 10:30:55.2	301.800	-0.170	-0.420	0.160
2020/01/31 10:30:55.3	301.790	-0.160	-0.430	0.180
2020/01/31 10:30:55.4	301.790	-0.150	-0.430	0.210
2020/01/31 10:30:55.5	301.780	-0.140	-0.440	0.240
2020/01/31 10:30:55.6	301.770	-0.130	-0.440	0.270
2020/01/31 10:30:55.7	301.760	-0.120	-0.440	0.300
2020/01/31 10:30:55.8	301.760	-0.110	-0.440	0.330
2020/01/31 10:30:55.9	301.750	-0.100	-0.440	0.360
2020/01/31 10:30:56.0	301.740	-0.090	-0.440	0.390
2020/01/31 10:30:56.1	301.730	-0.080	-0.440	0.420
2020/01/31 10:30:56.2	301.730	-0.070	-0.440	0.450
2020/01/31 10:30:56.3	301.720	-0.060	-0.430	0.480
2020/01/31 10:30:56.4	301.720	-0.060	-0.430	0.520
2020/01/31 10:30:56.5	301.710	-0.050	-0.420	0.550
2020/01/31 10:30:56.6	301.700	-0.050	-0.410	0.580
2020/01/31 10:30:56.7	301.700	-0.040	-0.400	0.610
2020/01/31 10:30:56.8	301.690	-0.040	-0.390	0.640
2020/01/31 10:30:56.9	301.690	-0.040	-0.380	0.670
2020/01/31 10:30:57.0	301.680	-0.040	-0.370	0.710
2020/01/31 10:30:57.1	301.680	-0.040	-0.350	0.740
2020/01/31 10:30:57.2	301.670	-0.040	-0.340	0.770
2020/01/31 10:30:57.3	301.670	-0.040	-0.320	0.790
2020/01/31 10:30:57.4	301.670	-0.040	-0.310	0.830
2020/01/31 10:30:57.5	301.660	-0.040	-0.290	0.850
2020/01/31 10:30:57.6	301.660	-0.050	-0.280	0.880
2020/01/31 10:30:57.7	301.660	-0.050	-0.260	0.900
2020/01/31 10:30:57.8	301.660	-0.050	-0.240	0.930
2020/01/31 10:30:57.9	301.660	-0.060	-0.220	0.950
2020/01/31 10:30:58.0	301.660	-0.060	-0.210	0.960
2020/01/31 10:30:58.1	301.660	-0.060	-0.190	0.980
2020/01/31 10:30:58.2	301.660	-0.070	-0.170	0.990
2020/01/31 10:30:58.3	301.660	-0.070	-0.160	1.000
2020/01/31 10:30:58.4	301.670	-0.070	-0.140	1.010
2020/01/31 10:30:58.5	301.680	-0.070	-0.130	1.020
2020/01/31 10:30:58.6	301.680	-0.070	-0.120	1.020
2020/01/31 10:30:58.7	301.690	-0.070	-0.100	1.020
2020/01/31 10:30:58.8	301.690	-0.070	-0.090	1.020
2020/01/31 10:30:58.9	301.700	-0.070	-0.080	1.020
2020/01/31 10:30:59.0	301.700	-0.060	-0.080	1.010
2020/01/31 10:30:59.1	301.710	-0.060	-0.070	1.010
2020/01/31 10:30:59.2	301.710	-0.050	-0.060	1.000
2020/01/31 10:30:59.3	301.720	-0.040	-0.060	0.980
2020/01/31 10:30:59.4	301.720	-0.030	-0.060	0.970
2020/01/31 10:30:59.5	301.720	-0.020	-0.050	0.950
2020/01/31 10:30:59.6	301.730	-0.010	-0.050	0.930
2020/01/31 10:30:59.7	301.740	0.010	-0.050	0.910
2020/01/31 10:30:59.8	301.740	0.020	-0.050	0.890
2020/01/31 10:30:59.9	301.750	0.030	-0.050	0.870
2020/01/31 10:31:00.0	301.750	0.050	-0.060	0.840
2020/01/31 10:31:00.1	301.750	0.070	-0.060	0.820
2020/01/31 10:31:00.2	301.760	0.090	-0.060	0.790
2020/01/31 10:31:00.3	301.760	0.100	-0.070	0.760
2020/01/31 10:31:00.4	301.760	0.120	-0.070	0.730
2020/01/31 10:31:00.5	301.760	0.140	-0.080	0.700
2020/01/31 10:31:00.6	301.770	0.160	-0.080	0.660
2020/01/31 10:31:00.7	301.770	0.180	-0.090	0.630
2020/01/31 10:31:00.8	301.780	0.200	-0.090	0.590
2020/01/31 10:31:00.9	301.790	0.210	-0.100	0.560
2020/01/31 10:31:01.0	301.790	0.230	-0.100	0.520
2020/01/31 10:31:01.1	301.800	0.250	-0.110	0.480
2020/01/31 10:31:01.2	301.810	0.260	-0.110	0.440
2020/01/31 10:31:01.3	301.810	0.270	-0.110	0.400
2020/01/31 10:31:01.4	301.810	0.290	-0.120	0.360
2020/01/31 10:31:01.5	301.820	0.300	-0.120	0.320
2020/01/31 10:31:01.6	301.830	0.310	-0.120	0.280
2020/01/31 10:31:01.7	301.840	0.320	-0.120	0.250
2020/01/31 10:31:01.8	301.840	0.320	-0.110	0.210
2020/01/31 10:31:01.9	301.850	0.330	-0.110	0.170
2020/01/31 10:31:02.0	301.860	0.330	-0.100	0.130
2020/01/31 10:31:02.1	301.870	0.330	-0.090	0.090
2020/01/31 10:31:02.2	301.870	0.330	-0.080	0.060
2020/01/31 10:31:02.3	301.880	0.330	-0.070	0.030
2020/01/31 10:31:02.4	301.880	0.330	-0.060	-0.000
2020/01/31 10:31:02.5	301.880	0.320	-0.050	-0.040
2020/01/31 10:31:02.6	301.890	0.320	-0.040	-0.060
2020/01/31 10:31:02.7	301.890	0.310	-0.020	-0.090
2020/01/31 10:31:02.8	301.890	0.300	-0.010	-0.120
2020/01/31 10:31:02.9	301.900	0.290	0.000	-0.140
2020/01/31 10:31:03.0	301.900	0.270	0.020	-0.160
2020/01/31 10:31:03.1	301.900	0.260	0.030	-0.180
2020/01/31 10:31:03.2	301.900	0.250	0.040	-0.200
2020/01/31 10:31:03.3	301.900	0.230	0.060	-0.220
2020/01/31 10:31:03.4	301.890	0.220	0.070	-0.230
2020/01/31 10:31:03.5	301.890	0.200	0.080	-0.240
2020/01/31 10:31:03.6	301.890	0.180	0.090	-0.250
2020/01/31 10:31:03.7	301.890	0.170	0.100	-0.260
2020/01/31 10:31:03.8	301.880	0.150	0.100	-0.260
2020/01/31 10:31:03.9	301.880	0.130	0.110	-0.260
2020/01/31 10:31:04.0	301.870	0.120	0.110	-0.260
2020/01/31 10:31:04.1	301.870	0.100	0.110	-0.260
2020/01/31 10:31:04.2	301.860	0.090	0.110	-0.260
2020/01/31 10:31:04.3	301.850	0.070	0.110	-0.250
2020/01/31 10:31:04.4	301.850	0.060	0.100	-0.240
2020/01/31 10:31:04.5	301.840	0.050	0.090	-0.230
2020/01/31 10:31:04.6	301.830	0.040	0.080	-0.220
2020/01/31 10:31:04.7	301.820	0.030	0.060	-0.210
2020/01/31 10:31:04.8	301.810	0.020	0.040	-0.200
2020/01/31 10:31:04.9	301.800	0.010	0.010	-0.180
2020/01/31 10:31:05.0	301.790	-0.000	-0.020	-0.170
2020/01/31 10:31:05.1	301.780	-0.010	-0.050	-0.160
2020/01/31 10:31:05.2	301.770	-0.010	-0.080	-0.150
2020/01/31 10:31:05.3	301.760	-0.020	-0.120	-0.140
2020/01/31 10:31:05.4	301.760	-0.020	-0.170	-0.120
2020/01/31 10:31:05.5	301.750	-0.030	-0.220	-0.110
2020/01/31 10:31:05.6	301.740	-0.030	-0.260	-0.100
2020/01/31 10:31:05.7	301.730	-0.030	-0.320	-0.090
2020/01/31 10:31:05.8	301.720	-0.030	-0.370	-0.080
2020/01/31 10:31:05.9	301.720	-0.030	-0.420	-0.070
2020/01/31 10:31:06.0	301.710	-0.040	-0.480	-0.070
2020/01/31 10:31:06.1	301.700	-0.040	-0.540	-0.060
2020/01/31 10:31:06.2	301.700	-0.040	-0.600	-0.050
2020/01/31 10:31:06.3	301.700	-0.040	-0.650	-0.040
2020/01/31 10:31:06.4	301.680	-0.040	-0.710	-0.030
2020/01/31 10:31:06.5	301.680	-0.040	-0.760	-0.030
2020/01/31 10:31:06.6	301.670	-0.040	-0.820	-0.020
2020/01/31 10:31:06.7	301.670	-0.040	-0.870	-0.000
2020/01/31 10:31:06.8	301.670	-0.040	-0.920	0.010
2020/01/31 10:31:06.9	301.670	-0.040	-0.960	0.020
2020/01/31 10:31:07.0	301.670	-0.040	-1.000	0.040
2020/01/31 10:31:07.1	301.670	-0.050	-1.030	0.050
2020/01/31 10:31:07.2	301.670	-0.050	-1.060	0.070
2020/01/31 10:31:07.3	301.670	-0.050	-1.090	0.090
2020/01/31 10:31:07.4	301.680	-0.060	-1.100	0.120
2020/01/31 10:31:07.5	301.680	-0.060	-1.110	0.140
2020/01/31 10:31:07.6	301.680	-0.070	-1.120	0.170
2020/01/31 10:31:07.7	301.680	-0.080	-1.110	0.190
2020/01/31 10:31:07.8	301.670	-0.090	-1.110	0.230
2020/01/31 10:31:07.9	301.670	-0.100	-1.090	0.260
2020/01/31 10:31:08.0	301.660	-0.110	-1.070	0.290
2020/01/31 10:31:08.1	301.660	-0.120	-1.040	0.330
2020/01/31 10:31:08.2	301.650	-0.130	-1.010	0.370
2020/01/31 10:31:08.3	301.640	-0.140	-0.970	0.400
2020/01/31 10:31:08.4	301.640	-0.150	-0.930	0.450
2020/01/31 10:31:08.5	301.630	-0.170	-0.880	0.490
2020/01/31 10:31:08.6	301.620	-0.180	-0.820	0.530
2020/01/31 10:31:08.7	301.610	-0.190	-0.770	0.570
2020/01/31 10:31:08.8	301.600	-0.200	-0.710	0.610
2020/01/31 10:31:08.9	301.590	-0.210	-0.640	0.640
2020/01/31 10:31:09.0	301.570	-0.230	-0.580	0.680
2020/01/31 10:31:09.1	301.560	-0.240	-0.510	0.720
2020/01/31 10:31:09.2	301.550	-0.250	-0.450	0.750
2020/01/31 10:31:09.3	301.540	-0.250	-0.380	0.780
2020/01/31 10:31:09.4	301.550	-0.260	-0.320	0.820
2020/01/31 10:31:09.5	301.530	-0.270	-0.250	0.840
2020/01/31 10:31:09.6	301.520	-0.270	-0.190	0.870
2020/01/31 10:31:09.7	301.510	-0.280	-0.130	0.890
2020/01/31 10:31:09.8	301.500	-0.280	-0.070	0.910
2020/01/31 10:31:09.9	301.490	-0.280	-0.010	0.930
2020/01/31 10:31:10.0	301.480	-0.280	0.040	0.940
2020/01/31 10:31:10.1	301.470	-0.280	0.090	0.950
2020/01/31 10:31:10.2	301.460	-0.270	0.140	0.960
2020/01/31 10:31:10.3	301.450	-0.270	0.180	0.960
2020/01/31 10:31:10.4	301.440	-0.260	0.220	0.970
2020/01/31 10:31:10.5	301.430	-0.250	0.260	0.970
2020/01/31 10:31:10.6	301.420	-0.240	0.290	0.960
2020/01/31 10:31:10.7	301.420	-0.230	0.310	0.960
2020/01/31 10:31:10.8	301.410	-0.210	0.340	0.950
2020/01/31 10:31:10.9	301.400	-0.200	0.350	0.940
2020/01/31 10:31:11.0	301.400	-0.180	0.370	0.930
2020/01/31 10:31:11.1	301.390	-0.170	0.380	0.910
2020/01/31 10:31:11.2	301.380	-0.150	0.390	0.900
2020/01/31 10:31:11.3	301.380	-0.130	0.390	0.880
2020/01/31 10:31:11.4	301.370	-0.110	0.390	0.860
2020/01/31 10:31:11.5	301.370	-0.090	0.380	0.840
2020/01/31 10:31:11.6	301.360	-0.070	0.380	0.810
2020/01/31 10:31:11.7	301.360	-0.050	0.360	0.790
2020/01/31 10:31:11.8	301.360	-0.030	0.350	0.760
2020/01/31 10:31:11.9	301.360	-0.010	0.330	0.730
2020/01/31 10:31:12.0	301.360	0.010	0.310	0.700
2020/01/31 10:31:12.1	301.360	0.030	0.280	0.670
2020/01/31 10:31:12.2	301.360	0.050	0.260	0.640
2020/01/31 10:31:12.3	301.360	0.070	0.230	0.610
2020/01/31 10:31:12.4	301.360	0.090	0.200	0.570
2020/01/31 10:31:12.5	301.360	0.110	0.170	0.540
2020/01/31 10:31:12.6	301.360	0.120	0.140	0.500
2020/01/31 10:31:12.7	301.360	0.140	0.110	0.470
2020/01/31 10:31:12.8	301.360	0.150	0.080	0.440
2020/01/31 10:31:12.9	301.360	0.160	0.050	0.400
2020/01/31 10:31:13.0	301.360	0.170	0.020	0.370
2020/01/31 10:31:13.1	301.360	0.180	-0.010	0.340
2020/01/31 10:31:13.2	301.360	0.190	-0.040	0.300
2020/01/31 10:31:13.3	301.360	0.190	-0.060	0.270
2020/01/31 10:31:13.4	301.350	0.200	-0.090	0.240
2020/01/31 10:31:13.5	301.350	0.200	-0.110	0.210
2020/01/31 10:31:13.6	301.350	0.200	-0.130	0.170
2020/01/31 10:31:13.7	301.350	0.200	-0.150	0.140
2020/01/31 10:31:13.8	301.350	0.190	-0.170	0.110
2020/01/31 10:31:13.9	301.360	0.190	-0.190	0.080
2020/01/31 10:31:14.0	301.360	0.190	-0.210	0.060
2020/01/31 10:31:14.1	301.360	0.180	-0.220	0.030
2020/01/31 10:31:14.2	301.370	0.170	-0.240	0.000
2020/01/31 10:31:14.3	301.370	0.160	-0.250	-0.020
2020/01/31 10:31:14.4	301.380	0.150	-0.260	-0.050
2020/01/31 10:31:14.5	301.380	0.140	-0.270	-0.070
2020/01/31 10:31:14.6	301.390	0.130	-0.280	-0.090
2020/01/31 10:31:14.7	301.400	0.120	-0.290	-0.110
2020/01/31 10:31:14.8	301.410	0.110	-0.300	-0.130
2020/01/31 10:31:14.9	301.420	0.100	-0.310	-0.150
2020/01/31 10:31:15.0	301.430	0.090	-0.320	-0.160
2020/01/31 10:31:15.1	301.440	0.070	-0.330	-0.180
2020/01/31 10:31:15.2	301.450	0.060	-0.330	-0.190
2020/01/31 10:31:15.3	301.460	0.050	-0.340	-0.200
2020/01/31 10:31:15.4	301.460	0.040	-0.350	-0.210
2020/01/31 10:31:15.5	301.470	0.030	-0.350	-0.220
2020/01/31 10:31:15.6	301.480	0.020	-0.360	-0.220
2020/01/31 10:31:15.7	301.500	0.010	-0.360	-0.220
2020/01/31 10:31:15.8	301.510	-0.000	-0.360	-0.220
2020/01/31 10:31:15.9	301.520	-0.010	-0.370	-0.220
2020/01/31 10:31:16.0	301.530	-0.020	-0.370	-0.210
2020/01/31 10:31:16.1	301.540	-0.020	-0.370	-0.200
2020/01/31 10:31:16.2	301.550	-0.030	-0.370	-0.190
2020/01/31 10:31:16.3	301.560	-0.030	-0.370	-0.180
2020/01/31 10:31:16.4	301.590	-0.040	-0.370	-0.160
2020/01/31 10:31:16.5	301.600	-0.040	-0.370	-0.140
2020/01/31 10:31:16.6	301.600	-0.040	-0.380	-0.120
2020/01/31 10:31:16.7	301.610	-0.040	-0.380	-0.100
2020/01/31 10:31:16.8	301.620	-0.040	-0.380	-0.080
2020/01/31 10:31:16.9	301.630	-0.030	-0.380	-0.050
2020/01/31 10:31:17.0	301.640	-0.030	-0.380	-0.020
2020/01/31 10:31:17.1	301.640	-0.030	-0.380	0.000
2020/01/31 10:31:17.2	301.650	-0.020	-0.380	0.030
2020/01/31 10:31:17.3	301.650	-0.020	-0.390	0.060
2020/01/31 10:31:17.4	301.660	-0.010	-0.390	0.090
2020/01/31 10:31:17.5	301.660	-0.000	-0.400	0.120
2020/01/31 10:31:17.6	301.670	0.000	-0.400	0.150
2020/01/31 10:31:17.7	301.670	0.010	-0.400	0.180
2020/01/31 10:31:17.8	301.670	0.020	-0.400	0.210
2020/01/31 10:31:17.9	301.670	0.030	-0.410	0.240
2020/01/31 10:31:18.0	301.670	0.040	-0.410	0.270
2020/01/31 10:31:18.1	301.670	0.050	-0.420	0.290
2020/01/31 10:31:18.2	301.670	0.060	-0.420	0.320
2020/01/31 10:31:18.3	301.670	0.070	-0.420	0.350
2020/01/31 10:31:18.4	301.660	0.080	-0.420	0.380
2020/01/31 10:31:18.5	301.660	0.090	-0.420	0.410
2020/01/31 10:31:18.6	301.660	0.100	-0.420	0.440
2020/01/31 10:31:18.7	301.650	0.110	-0.420	0.460
2020/01/31 10:31:18.8	301.650	0.120	-0.420	0.490
2020/01/31 10:31:18.9	301.640	0.130	-0.420	0.520
2020/01/31 10:31:19.0	301.630	0.130	-0.420	0.550
2020/01/31 10:31:19.1	301.630	0.140	-0.410	0.580
2020/01/31 10:31:19.2	301.620	0.150	-0.410	0.610
2020/01/31 10:31:19.3	301.610	0.160	-0.400	0.630
2020/01/31 10:31:19.4	301.610	0.170	-0.390	0.670
2020/01/31 10:31:19.5	301.600	0.170	-0.380	0.690
2020/01/31 10:31:19.6	301.590	0.180	-0.370	0.720
2020/01/31 10:31:19.7	301.580	0.190	-0.360	0.740
2020/01/31 10:31:19.8	301.570	0.190	-0.350	0.770
2020/01/31 10:31:19.9	301.570	0.200	-0.330	0.790
2020/01/31 10:31:20.0	301.560	0.200	-0.320	0.810
2020/01/31 10:31:20.1	301.550	0.210	-0.310	0.830
2020/01/31 10:31:20.2	301.550	0.210	-0.290	0.840
2020/01/31 10:31:20.3	301.540	0.220	-0.280	0.860
2020/01/31 10:31:20.4	301.540	0.220	-0.270	0.870
2020/01/31 10:31:20.5	301.530	0.220	-0.250	0.890
2020/01/31 10:31:20.6	301.530	0.220	-0.240	0.890
2020/01/31 10:31:20.7	301.520	0.230	-0.230	0.900
2020/01/31 10:31:20.8	301.520	0.230	-0.220	0.910
2020/01/31 10:31:20.9	301.520	0.230	-0.210	0.910
2020/01/31 10:31:21.0	301.510	0.220	-0.200	0.910
2020/01/31 10:31:21.1	301.510	0.220	-0.190	0.910
2020/01/31 10:31:21.2	301.500	0.220	-0.180	0.910
2020/01/31 10:31:21.3	301.490	0.210	-0.170	0.900
2020/01/31 10:31:21.4	301.500	0.210	-0.170	0.890
2020/01/31 10:31:21.5	301.490	0.200	-0.160	0.880
2020/01/31 10:31:21.6	301.480	0.190	-0.160	0.870
2020/01/31 10:31:21.7	301.470	0.190	-0.160	0.860
2020/01/31 10:31:21.8	301.460	0.180	-0.150	0.840
2020/01/31 10:31:21.9	301.450	0.170	-0.150	0.830
2020/01/31 10:31:22.0	301.440	0.150	-0.150	0.810
2020/01/31 10:31:22.1	301.430	0.140	-0.150	0.790
2020/01/31 10:31:22.2	301.420	0.130	-0.140	0.760
2020/01/31 10:31:22.3	301.410	0.110	-0.140	0.740
2020/01/31 10:31:22.4	301.390	0.090	-0.140	0.710
2020/01/31 10:31:22.5	301.380	0.080	-0.140	0.690
2020/01/31 10:31:22.6	301.370	0.060	-0.140	0.660
2020/01/31 10:31:22.7	301.350	0.040	-0.140	0.630
2020/01/31 10:31:22.8	301.340	0.020	-0.140	0.600
2020/01/31 10:31:22.9	301.320	0.000	-0.130	0.570
2020/01/31 10:31:23.0	301.310	-0.020	-0.130	0.540
2020/01/31 10:31:23.1	301.300	-0.040	-0.130	0.500
2020/01/31 10:31:23.2	301.280	-0.060	-0.130	0.470
2020/01/31 10:31:23.3	301.270	-0.080	-0.120	0.440
2020/01/31 10:31:23.4	301.250	-0.100	-0.120	0.400
2020/01/31 10:31:23.5	301.240	-0.130	-0.120	0.370
2020/01/31 10:31:23.6	301.220	-0.150	-0.120	0.330
2020/01/31 10:31:23.7	301.210	-0.170	-0.120	0.300
2020/01/31 10:31:23.8	301.200	-0.190	-0.110	0.270
2020/01/31 10:31:23.9	301.190	-0.210	-0.110	0.240
2020/01/31 10:31:24.0	301.170	-0.230	-0.110	0.200
2020/01/31 10:31:24.1	301.160	-0.250	-0.110	0.170
2020/01/31 10:31:24.2	301.150	-0.260	-0.110	0.140
2020/01/31 10:31:24.3	301.150	-0.280	-0.110	0.110
2020/01/31 10:31:24.4	301.120	-0.300	-0.110	0.080
2020/01/31 10:31:24.5	301.110	-0.310	-0.120	0.050
2020/01/31 10:31:24.6	301.100	-0.330	-0.120	0.020
2020/01/31 10:31:24.7	301.100	-0.340	-0.130	-0.010
2020/01/31 10:31:24.8	301.100	-0.350	-0.130	-0.040
2020/01/31 10:31:24.9	301.100	-0.370	-0.140	-0.070
2020/01/31 10:31:25.0	301.100	-0.370	-0.150	-0.100
2020/01/31 10:31:25.1	301.110	-0.380	-0.170	-0.130
2020/01/31 10:31:25.2	301.110	-0.390	-0.180	-0.160
2020/01/31 10:31:25.3	301.120	-0.400	-0.190	-0.180
2020/01/31 10:31:25.4	301.130	-0.400	-0.210	-0.210
2020/01/31 10:31:25.5	301.140	-0.400	-0.230	-0.240
2020/01/31 10:31:25.6	301.150	-0.400	-0.240	-0.260
2020/01/31 10:31:25.7	301.160	-0.400	-0.260	-0.280
2020/01/31 10:31:25.8	301.180	-0.400	-0.280	-0.310
2020/01/31 10:31:25.9	301.190	-0.400	-0.290	-0.320
2020/01/31 10:31:26.0	301.210	-0.390	-0.310	-0.340
2020/01/31 10:31:26.1	301.220	-0.390	-0.320	-0.350
2020/01/31 10:31:26.2	301.240	-0.380	-0.330	-0.370
2020/01/31 10:31:26.3	301.260	-0.370	-0.350	-0.380
2020/01/31 10:31:26.4	301.280	-0.360	-0.360	-0.380
2020/01/31 10:31:26.5	301.290	-0.350	-0.370	-0.380
2020/01/31 10:31:26.6	301.310	-0.330	-0.370	-0.380
2020/01/31 10:31:26.7	301.330	-0.320	-0.380	-0.380
2020/01/31 10:31:26.8	301.350	-0.300	-0.380	-0.380
2020/01/31 10:31:26.9	301.360	-0.290	-0.390	-0.370
2020/01/31 10:31:27.0	301.380	-0.270	-0.390	-0.360
2020/01/31 10:31:27.1	301.390	-0.250	-0.390	-0.340
2020/01/31 10:31:27.2	301.410	-0.230	-0.390	-0.320
2020/01/31 10:31:27.3	301.420	-0.210	-0.380	-0.300
2020/01/31 10:31:27.4	301.440	-0.190	-0.370	-0.280
2020/01/31 10:31:27.5	301.450	-0.160	-0.370	-0.250
2020/01/31 10:31:27.6	301.460	-0.140	-0.360	-0.220
2020/01/31 10:31:27.7	301.470	-0.120	-0.350	-0.190
2020/01/31 10:31:27.8	301.480	-0.100	-0.340	-0.150
2020/01/31 10:31:27.9	301.480	-0.070	-0.330	-0.110
2020/01/31 10:31:28.0	301.490	-0.050	-0.320	-0.070
2020/01/31 10:31:28.1	301.490	-0.020	-0.310	-0.030
2020/01/31 10:31:28.2	301.490	-0.000	-0.300	0.010
2020/01/31 10:31:28.3	301.490	0.020	-0.280	0.060
2020/01/31 10:31:28.4	301.500	0.040	-0.280	0.110
2020/01/31 10:31:28.5	301.500	0.070	-0.260	0.150
2020/01/31 10:31:28.6	301.500	0.090	-0.250	0.200
2020/01/31 10:31:28.7	301.500	0.110	-0.240	0.240
2020/01/31 10:31:28.8	301.490	0.130	-0.230	0.290
2020/01/31 10:31:28.9	301.490	0.150	-0.220	0.330
2020/01/31 10:31:29.0	301.490	0.170	-0.210	0.380
2020/01/31 10:31:29.1	301.480	0.190	-0.200	0.420
2020/01/31 10:31:29.2	301.480	0.210	-0.200	0.460
2020/01/31 10:31:29.3	301.480	0.220	-0.190	0.500
2020/01/31 10:31:29.4	301.480	0.240	-0.180	0.530
2020/01/31 10:31:29.5	301.480	0.250	-0.180	0.570
2020/01/31 10:31:29.6	301.480	0.270	-0.180	0.600
2020/01/31 10:31:29.7	301.480	0.280	-0.180	0.630
2020/01/31 10:31:29.8	301.480	0.290	-0.180	0.660
2020/01/31 10:31:29.9	301.480	0.300	-0.180	0.680
2020/01/31 10:31:30.0	301.480	0.310	-0.180	0.700
2020/01/31 10:31:30.1	301.480	0.320	-0.180	0.720
2020/01/31 10:31:30.2	301.490	0.330	-0.190	0.730
2020/01/31 10:31:30.3	301.490	0.340	-0.190	0.750
2020/01/31 10:31:30.4	301.480	0.340	-0.200	0.760
2020/01/31 10:31:30.5	301.490	0.340	-0.200	0.760
2020/01/31 10:31:30.6	301.490	0.340	-0.210	0.770
2020/01/31 10:31:30.7	301.500	0.350	-0.210	0.770
2020/01/31 10:31:30.8	301.500	0.340	-0.210	0.770
2020/01/31 10:31:30.9	301.510	0.340	-0.220	0.770
2020/01/31 10:31:31.0	301.510	0.340	-0.220	0.760
2020/01/31 10:31:31.1	301.520	0.330	-0.220	0.760
2020/01/31 10:31:31.2	301.520	0.330	-0.220	0.750
2020/01/31 10:31:31.3	301.530	0.320	-0.220	0.740
2020/01/31 10:31:31.4	301.530	0.310	-0.220	0.740
2020/01/31 10:31:31.5	301.530	0.300	-0.210	0.730
2020/01/31 10:31:31.6	301.540	0.290	-0.210	0.720
2020/01/31 10:31:31.7	301.540	0.280	-0.200	0.710
2020/01/31 10:31:31.8	301.540	0.270	-0.200	0.690
2020/01/31 10:31:31.9	301.540	0.250	-0.190	0.680
2020/01/31 10:31:32.0	301.540	0.240	-0.180	0.670
2020/01/31 10:31:32.1	301.540	0.220	-0.170	0.660
2020/01/31 10:31:32.2	301.540	0.210	-0.160	0.650
2020/01/31 10:31:32.3	301.540	0.190	-0.150	0.640
2020/01/31 10:31:32.4	301.540	0.170	-0.140	0.630
2020/01/31 10:31:32.5	301.530	0.150	-0.140	0.630
2020/01/31 10:31:32.6	301.530	0.140	-0.130	0.620
2020/01/31 10:31:32.7	301.520	0.120	-0.120	0.610
2020/01/31 10:31:32.8	301.510	0.100	-0.110	0.610
2020/01/31 10:31:32.9	301.500	0.080	-0.100	0.600
2020/01/31 10:31:33.0	301.490	0.060	-0.090	0.600
2020/01/31 10:31:33.1	301.480	0.040	-0.090	0.590
2020/01/31 10:31:33.2	301.470	0.020	-0.080	0.590
2020/01/31 10:31:33.3	301.460	0.010	-0.070	0.590
2020/01/31 10:31:33.4	301.450	-0.010	-0.070	0.580
2020/01/31 10:31:33.5	301.440	-0.030	-0.070	0.580
2020/01/31 10:31:33.6	301.430	-0.040	-0.060	0.580
2020/01/31 10:31:33.7	301.410	-0.060	-0.060	0.580
2020/01/31 10:31:33.8	301.400	-0.070	-0.060	0.580
2020/01/31 10:31:33.9	301.380	-0.080	-0.060	0.580
2020/01/31 10:31:34.0	301.370	-0.090	-0.060	0.570
2020/01/31 10:31:34.1	301.360	-0.100	-0.070	0.570
2020/01/31 10:31:34.2	301.340	-0.110	-0.070	0.560
2020/01/31 10:31:34.3	301.330	-0.120	-0.080	0.560
2020/01/31 10:31:34.4	301.310	-0.120	-0.090	0.550
2020/01/31 10:31:34.5	301.300	-0.130	-0.100	0.540
2020/01/31 10:31:34.6	301.290	-0.130	-0.120	0.530
2020/01/31 10:31:34.7	301.280	-0.130	-0.130	0.510
2020/01/31 10:31:34.8	301.270	-0.130	-0.150	0.500
2020/01/31 10:31:34.9	301.260	-0.130	-0.170	0.480
2020/01/31 10:31:35.0	301.250	-0.130	-0.190	0.460
2020/01/31 10:31:35.1	301.240	-0.130	-0.210	0.430
2020/01/31 10:31:35.2	301.240	-0.120	-0.230	0.410
2020/01/31 10:31:35.3	301.230	-0.120	-0.250	0.380
2020/01/31 10:31:35.4	301.220	-0.110	-0.280	0.350
2020/01/31 10:31:35.5	301.220	-0.110	-0.300	0.310
2020/01/31 10:31:35.6	301.210	-0.100	-0.330	0.280
2020/01/31 10:31:35.7	301.210	-0.090	-0.360	0.250
2020/01/31 10:31:35.8	301.210	-0.090	-0.390	0.210
2020/01/31 10:31:35.9	301.210	-0.080	-0.410	0.170
2020/01/31 10:31:36.0	301.210	-0.070	-0.440	0.130
2020/01/31 10:31:36.1	301.210	-0.070	-0.470	0.090
2020/01/31 10:31:36.2	301.210	-0.060	-0.500	0.060
2020/01/31 10:31:36.3	301.210	-0.050	-0.520	0.020
2020/01/31 10:31:36.4	301.200	-0.050	-0.550	-0.020
2020/01/31 10:31:36.5	301.200	-0.040	-0.570	-0.060
2020/01/31 10:31:36.6	301.210	-0.030	-0.600	-0.100
2020/01/31 10:31:36.7	301.210	-0.030	-0.620	-0.130
2020/01/31 10:31:36.8	301.220	-0.020	-0.640	-0.170
2020/01/31 10:31:36.9	301.220	-0.020	-0.660	-0.200
2020/01/31 10:31:37.0	301.230	-0.010	-0.670	-0.230
2020/01/31 10:31:37.1	301.240	-0.010	-0.680	-0.260
2020/01/31 10:31:37.2	301.240	-0.010	-0.690	-0.290
2020/01/31 10:31:37.3	301.250	-0.010	-0.700	-0.320
2020/01/31 10:31:37.4	301.250	-0.000	-0.710	-0.340
2020/01/31 10:31:37.5	301.260	-0.000	-0.710	-0.360
2020/01/31 10:31:37.6	301.270	-0.000	-0.700	-0.380
2020/01/31 10:31:37.7	301.280	-0.000	-0.700	-0.390
2020/01/31 10:31:37.8	301.280	-0.000	-0.690	-0.400
2020/01/31 10:31:37.9	301.290	-0.000	-0.670	-0.410
2020/01/31 10:31:38.0	301.300	-0.010	-0.660	-0.420
2020/01/31 10:31:38.1	301.300	-0.010	-0.640	-0.410
2020/01/31 10:31:38.2	301.310	-0.010	-0.610	-0.410
2020/01/31 10:31:38.3	301.310	-0.010	-0.580	-0.400
2020/01/31 10:31:38.4	301.330	-0.020	-0.550	-0.390
2020/01/31 10:31:38.5	301.330	-0.020	-0.520	-0.370
2020/01/31 10:31:38.6	301.330	-0.030	-0.480	-0.350
2020/01/31 10:31:38.7	301.330	-0.030	-0.440	-0.330
2020/01/31 10:31:38.8	301.330	-0.040	-0.400	-0.300
2020/01/31 10:31:38.9	301.340	-0.050	-0.350	-0.280
2020/01/31 10:31:39.0	301.330	-0.050	-0.310	-0.240
2020/01/31 10:31:39.1	301.330	-0.060	-0.260	-0.210
2020/01/31 10:31:39.2	301.330	-0.070	-0.210	-0.170
2020/01/31 10:31:39.3	301.330	-0.080	-0.170	-0.140
2020/01/31 10:31:39.4	301.340	-0.090	-0.120	-0.090
2020/01/31 10:31:39.5	301.340	-0.100	-0.070	-0.050
2020/01/31 10:31:39.6	301.340	-0.110	-0.020	-0.010
2020/01/31 10:31:39.7	301.340	-0.120	0.020	0.030
2020/01/31 10:31:39.8	301.330	-0.130	0.070	0.070
2020/01/31 10:31:39.9	301.330	-0.140	0.110	0.110
2020/01/31 10:31:40.0	301.330	-0.150	0.140	0.160
2020/01/31 10:31:40.1	301.330	-0.150	0.180	0.200
2020/01/31 10:31:40.2	301.330	-0.160	0.210	0.240
2020/01/31 10:31:40.3	301.330	-0.170	0.240	0.280
2020/01/31 10:31:40.4	301.340	-0.180	0.260	0.320
2020/01/31 10:31:40.5	301.340	-0.180	0.280	0.350
2020/01/31 10:31:40.6	301.340	-0.190	0.300	0.390
2020/01/31 10:31:40.7	301.340	-0.200	0.310	0.420
2020/01/31 10:31:40.8	301.350	-0.200	0.320	0.450
2020/01/31 10:31:40.9	301.350	-0.200	0.330	0.480
2020/01/31 10:31:41.0	301.350	-0.200	0.330	0.510
2020/01/31 10:31:41.1	301.360	-0.210	0.330	0.540
2020/01/31 10:31:41.2	301.360	-0.210	0.320	0.560
2020/01/31 10:31:41.3	301.370	-0.210	0.310	0.580
2020/01/31 10:31:41.4	301.370	-0.200	0.300	0.600
2020/01/31 10:31:41.5	301.380	-0.200	0.280	0.620
2020/01/31 10:31:41.6	301.380	-0.200	0.270	0.640
2020/01/31 10:31:41.7	301.380	-0.190	0.250	0.650
2020/01/31 10:31:41.8	301.390	-0.190	0.230	0.660
2020/01/31 10:31:41.9	301.390	-0.180	0.200	0.680
2020/01/31 10:31:42.0	301.400	-0.170	0.180	0.680
2020/01/31 10:31:42.1	301.400	-0.160	0.150	0.690
2020/01/31 10:31:42.2	301.410	-0.160	0.120	0.700
2020/01/31 10:31:42.3	301.410	-0.150	0.090	0.700
2020/01/31 10:31:42.4	301.420	-0.140	0.060	0.700
2020/01/31 10:31:42.5	301.420	-0.120	0.030	0.700
2020/01/31 10:31:42.6	301.420	-0.110	-0.010	0.690
2020/01/31 10:31:42.7	301.430	-0.100	-0.040	0.680
2020/01/31 10:31:42.8	301.430	-0.090	-0.080	0.670
2020/01/31 10:31:42.9	301.440	-0.080	-0.110	0.660
2020/01/31 10:31:43.0	301.440	-0.060	-0.140	0.650
2020/01/31 10:31:43.1	301.450	-0.050	-0.180	0.630
2020/01/31 10:31:43.2	301.450	-0.040	-0.210	0.620
2020/01/31 10:31:43.3	301.460	-0.020	-0.250	0.600
2020/01/31 10:31:43.4	301.470	-0.010	-0.280	0.570
2020/01/31 10:31:43.5	301.470	0.000	-0.310	0.550
2020/01/31 10:31:43.6	301.480	0.020	-0.340	0.530
2020/01/31 10:31:43.7	301.490	0.030	-0.370	0.500
2020/01/31 10:31:43.8	301.490	0.040	-0.400	0.470
2020/01/31 10:31:43.9	301.500	0.060	-0.430	0.450
2020/01/31 10:31:44.0	301.500	0.070	-0.450	0.420
2020/01/31 10:31:44.1	301.510	0.080	-0.470	0.390
2020/01/31 10:31:44.2	301.520	0.090	-0.500	0.350
2020/01/31 10:31:44.3	301.520	0.100	-0.510	0.320
2020/01/31 10:31:44.4	301.540	0.110	-0.530	0.290
2020/01/31 10:31:44.5	301.540	0.120	-0.540	0.260
2020/01/31 10:31:44.6	301.550	0.130	-0.560	0.230
2020/01/31 10:31:44.7	301.550	0.140	-0.570	0.190
2020/01/31 10:31:44.8	301.560	0.150	-0.580	0.160
2020/01/31 10:31:44.9	301.560	0.160	-0.580	0.130
2020/01/31 10:31:45.0	301.570	0.160	-0.590	0.100
2020/01/31 10:31:45.1	301.570	0.170	-0.590	0.070
2020/01/31 10:31:45.2	301.580	0.180	-0.590	0.040
2020/01/31 10:31:45.3	301.580	0.180	-0.590	0.010
2020/01/31 10:31:45.4	301.560	0.180	-0.590	-0.010
2020/01/31 10:31:45.5	301.560	0.190	-0.590	-0.040
2020/01/31 10:31:45.6	301.560	0.190	-0.590	-0.060
2020/01/31 10:31:45.7	301.560	0.190	-0.580	-0.090
2020/01/31 10:31:45.8	301.560	0.190	-0.580	-0.110
2020/01/31 10:31:45.9	301.560	0.190	-0.570	-0.130
2020/01/31 10:31:46.0	301.560	0.190	-0.560	-0.140
2020/01/31 10:31:46.1	301.550	0.190	-0.560	-0.160
2020/01/31 10:31:46.2	301.540	0.190	-0.550	-0.160
2020/01/31 10:31:46.3	301.540	0.190	-0.540	-0.170
2020/01/31 10:31:46.4	301.530	0.190	-0.530	-0.180
2020/01/31 10:31:46.5	301.520	0.190	-0.520	-0.180
2020/01/31 10:31:46.6	301.510	0.190	-0.520	-0.180
2020/01/31 10:31:46.7	301.500	0.190	-0.510	-0.170
2020/01/31 10:31:46.8	301.480	0.190	-0.500	-0.160
2020/01/31 10:31:46.9	301.470	0.190	-0.490	-0.150
2020/01/31 10:31:47.0	301.450	0.180	-0.480	-0.130
2020/01/31 10:31:47.1	301.440	0.180	-0.480	-0.110
2020/01/31 10:31:47.2	301.420	0.180	-0.470	-0.090
2020/01/31 10:31:47.3	301.410	0.180	-0.460	-0.070
2020/01/31 10:31:47.4	301.390	0.180	-0.450	-0.050
2020/01/31 10:31:47.5	301.380	0.180	-0.440	-0.020
2020/01/31 10:31:47.6	301.360	0.180	-0.440	0.010
2020/01/31 10:31:47.7	301.340	0.180	-0.430	0.030
2020/01/31 10:31:47.8	301.330	0.180	-0.420	0.060
2020/01/31 10:31:47.9	301.310	0.180	-0.420	0.090
2020/01/31 10:31:48.0	301.290	0.180	-0.410	0.120
2020/01/31 10:31:48.1	301.280	0.180	-0.410	0.150
2020/01/31 10:31:48.2	301.270	0.180	-0.400	0.170
2020/01/31 10:31:48.3	301.250	0.180	-0.390	0.200
2020/01/31 10:31:48.4	301.250	0.180	-0.390	0.230
2020/01/31 10:31:48.5	301.240	0.180	-0.380	0.260
2020/01/31 10:31:48.6	301.230	0.180	-0.380	0.290
2020/01/31 10:31:48.7	301.220	0.180	-0.370	0.320
2020/01/31 10:31:48.8	301.220	0.180	-0.360	0.340
2020/01/31 10:31:48.9	301.210	0.180	-0.350	0.370
2020/01/31 10:31:49.0	301.210	0.180	-0.350	0.400
2020/01/31 10:31:49.1	301.210	0.170	-0.340	0.420
2020/01/31 10:31:49.2	301.210	0.170	-0.330	0.450
2020/01/31 10:31:49.3	301.210	0.170	-0.320	0.470
2020/01/31 10:31:49.4	301.200	0.170	-0.300	0.500
2020/01/31 10:31:49.5	301.210	0.160	-0.290	0.520
2020/01/31 10:31:49.6	301.210	0.160	-0.280	0.540
2020/01/31 10:31:49.7	301.220	0.150	-0.270	0.560
2020/01/31 10:31:49.8	301.230	0.150	-0.250	0.570
2020/01/31 10:31:49.9	301.230	0.140	-0.240	0.590
2020/01/31 10:31:50.0	301.240	0.130	-0.220	0.600
2020/01/31 10:31:50.1	301.250	0.120	-0.200	0.610
2020/01/31 10:31:50.2	301.260	0.110	-0.180	0.620
2020/01/31 10:31:50.3	301.280	0.100	-0.160	0.630
2020/01/31 10:31:50.4	301.280	0.090	-0.140	0.640
2020/01/31 10:31:50.5	301.290	0.070	-0.110	0.640
2020/01/31 10:31:50.6	301.300	0.060	-0.090	0.640
2020/01/31 10:31:50.7	301.310	0.040	-0.060	0.640
2020/01/31 10:31:50.8	301.320	0.020	-0.030	0.640
2020/01/31 10:31:50.9	301.330	0.010	-0.000	0.640
2020/01/31 10:31:51.0	301.330	-0.010	0.030	0.630
2020/01/31 10:31:51.1	301.340	-0.030	0.060	0.620
2020/01/31 10:31:51.2	301.350	-0.050	0.090	0.620
2020/01/31 10:31:51.3	301.350	-0.080	0.120	0.610
2020/01/31 10:31:51.4	301.360	-0.100	0.150	0.600
2020/01/31 10:31:51.5	301.360	-0.120	0.180	0.590
2020/01/31 10:31:51.6	301.370	-0.140	0.210	0.570
2020/01/31 10:31:51.7	301.370	-0.160	0.250	0.560
2020/01/31 10:31:51.8	301.370	-0.190	0.270	0.540
2020/01/31 10:31:51.9	301.370	-0.210	0.300	0.530
2020/01/31 10:31:52.0	301.370	-0.230	0.330	0.510
2020/01/31 10:31:52.1	301.370	-0.250	0.350	0.490
2020/01/31 10:31:52.2	301.370	-0.270	0.370	0.480
2020/01/31 10:31:52.3	301.370	-0.290	0.390	0.460
2020/01/31 10:31:52.4	301.360	-0.310	0.410	0.440
2020/01/31 10:31:52.5	301.350	-0.320	0.420	0.420
2020/01/31 10:31:52.6	301.350	-0.340	0.430	0.400
2020/01/31 10:31:52.7	301.350	-0.350	0.440	0.380
2020/01/31 10:31:52.8	301.350	-0.360	0.440	0.360
2020/01/31 10:31:52.9	301.340	-0.380	0.440	0.350
2020/01/31 10:31:53.0	301.340	-0.380	0.430	0.330
2020/01/31 10:31:53.1	301.330	-0.390	0.420	0.310
2020/01/31 10:31:53.2	301.330	-0.400	0.410	0.300
2020/01/31 10:31:53.3	301.320	-0.400	0.400	0.280
2020/01/31 10:31:53.4	301.320	-0.400	0.370	0.270
2020/01/31 10:31:53.5	301.310	-0.400	0.350	0.250
2020/01/31 10:31:53.6	301.300	-0.400	0.320	0.240
2020/01/31 10:31:53.7	301.290	-0.400	0.290	0.230
2020/01/31 10:31:53.8	301.280	-0.390	0.260	0.210
2020/01/31 10:31:53.9	301.270	-0.390	0.220	0.200
2020/01/31 10:31:54.0	301.250	-0.380	0.180	0.190
2020/01/31 10:31:54.1	301.240	-0.370	0.140	0.180
2020/01/31 10:31:54.2	301.230	-0.360	0.090	0.170
2020/01/31 10:31:54.3	301.210	-0.340	0.050	0.160
2020/01/31 10:31:54.4	301.190	-0.330	-0.000	0.150
2020/01/31 10:31:54.5	301.180	-0.310	-0.050	0.140
2020/01/31 10:31:54.6	301.160	-0.300	-0.100	0.140
2020/01/31 10:31:54.7	301.150	-0.280	-0.150	0.130
2020/01/31 10:31:54.8	301.130	-0.260	-0.210	0.120
2020/01/31 10:31:54.9	301.120	-0.240	-0.260	0.120
2020/01/31 10:31:55.0	301.110	-0.210	-0.310	0.110
2020/01/31 10:31:55.1	301.090	-0.190	-0.360	0.110
2020/01/31 10:31:55.2	301.080	-0.170	-0.420	0.100
2020/01/31 10:31:55.3	301.070	-0.150	-0.470	0.090
2020/01/31 10:31:55.4	301.060	-0.120	-0.520	0.090
2020/01/31 10:31:55.5	301.050	-0.100	-0.570	0.080
2020/01/31 10:31:55.6	301.040	-0.070	-0.610	0.080
2020/01/31 10:31:55.7	301.040	-0.050	-0.660	0.070
2020/01/31 10:31:55.8	301.040	-0.030	-0.700	0.070
2020/01/31 10:31:55.9	301.040	-0.000	-0.740	0.060
2020/01/31 10:31:56.0	301.030	0.020	-0.780	0.050
2020/01/31 10:31:56.1	301.040	0.040	-0.820	0.050
2020/01/31 10:31:56.2	301.040	0.060	-0.850	0.040
2020/01/31 10:31:56.3	301.040	0.080	-0.880	0.040
2020/01/31 10:31:56.4	301.040	0.100	-0.900	0.040
2020/01/31 10:31:56.5	301.050	0.120	-0.920	0.030
2020/01/31 10:31:56.6	301.050	0.140	-0.930	0.030
2020/01/31 10:31:56.7	301.060	0.160	-0.950	0.030
2020/01/31 10:31:56.8	301.070	0.170	-0.960	0.030
2020/01/31 10:31:56.9	301.070	0.190	-0.960	0.030
2020/01/31 10:31:57.0	301.080	0.200	-0.970	0.040
2020/01/31 10:31:57.1	301.090	0.210	-0.960	0.040
2020/01/31 10:31:57.2	301.100	0.220	-0.960	0.050
2020/01/31 10:31:57.3	301.100	0.230	-0.950	0.060
2020/01/31 10:31:57.4	301.140	0.240	-0.940	0.070
2020/01/31 10:31:57.5	301.150	0.250	-0.920	0.080
2020/01/31 10:31:57.6	301.160	0.260	-0.900	0.090
2020/01/31 10:31:57.7	301.160	0.260	-0.880	0.110
2020/01/31 10:31:57.8	301.170	0.270	-0.860	0.130
2020/01/31 10:31:57.9	301.180	0.270	-0.830	0.150
2020/01/31 10:31:58.0	301.190	0.280	-0.810	0.170
2020/01/31 10:31:58.1	301.190	0.280	-0.780	0.200
2020/01/31 10:31:58.2	301.200	0.280	-0.750	0.220
2020/01/31 10:31:58.3	301.200	0.280	-0.710	0.250
2020/01/31 10:31:58.4	301.220	0.290	-0.680	0.280
2020/01/31 10:31:58.5	301.230	0.290	-0.650	0.310
2020/01/31 10:31:58.6	301.230	0.290	-0.620	0.350
2020/01/31 10:31:58.7	301.230	0.290	-0.580	0.380
2020/01/31 10:31:58.8	301.230	0.290	-0.550	0.410
2020/01/31 10:31:58.9	301.230	0.290	-0.520	0.450
2020/01/31 10:31:59.0	301.230	0.290	-0.490	0.480
2020/01/31 10:31:59.1	301.220	0.290	-0.460	0.510
2020/01/31 10:31:59.2	301.220	0.290	-0.430	0.550
2020/01/31 10:31:59.3	301.220	0.290	-0.400	0.580
2020/01/31 10:31:59.4	301.220	0.290	-0.380	0.610
2020/01/31 10:31:59.5	301.210	0.290	-0.350	0.640
2020/01/31 10:31:59.6	301.210	0.290	-0.330	0.670
2020/01/31 10:31:59.7	301.200	0.290	-0.310	0.690
2020/01/31 10:31:59.8	301.200	0.290	-0.290	0.720
2020/01/31 10:31:59.9	301.190	0.280	-0.270	0.740
2020/01/31 10:32:00.0	301.190	0.280	-0.260	0.770
2020/01/31 10:32:00.1	301.190	0.280	-0.240	0.790
2020/01/31 10:32:00.2	301.180	0.280	-0.230	0.810
2020/01/31 10:32:00.3	301.180	0.270	-0.220	0.820
2020/01/31 10:32:00.4	301.170	0.270	-0.200	0.840
2020/01/31 10:32:00.5	301.170	0.260	-0.190	0.860
2020/01/31 10:32:00.6	301.160	0.260	-0.180	0.870
2020/01/31 10:32:00.7	301.160	0.250	-0.170	0.880
2020/01/31 10:32:00.8	301.160	0.240	-0.170	0.890
2020/01/31 10:32:00.9	301.150	0.230	-0.160	0.900
2020/01/31 10:32:01.0	301.150	0.220	-0.150	0.900
2020/01/31 10:32:01.1	301.150	0.210	-0.140	0.910
2020/01/31 10:32:01.2	301.140	0.200	-0.130	0.910
2020/01/31 10:32:01.3	301.140	0.180	-0.120	0.910
2020/01/31 10:32:01.4	301.140	0.160	-0.110	0.910
2020/01/31 10:32:01.5	301.130	0.150	-0.100	0.910
2020/01/31 10:32:01.6	301.130	0.130	-0.090	0.910
2020/01/31 10:32:01.7	301.130	0.110	-0.080	0.900
2020/01/31 10:32:01.8	301.120	0.090	-0.060	0.900
2020/01/31 10:32:01.9	301.120	0.060	-0.050	0.890
2020/01/31 10:32:02.0	301.120	0.040	-0.030	0.880
2020/01/31 10:32:02.1	301.110	0.020	-0.010	0.870
2020/01/31 10:32:02.2	301.110	-0.010	0.010	0.860
2020/01/31 10:32:02.3	301.100	-0.030	0.030	0.850
2020/01/31 10:32:02.4	301.110	-0.060	0.050	0.840
2020/01/31 10:32:02.5	301.100	-0.080	0.070	0.820
2020/01/31 10:32:02.6	301.100	-0.110	0.090	0.810
2020/01/31 10:32:02.7	301.090	-0.140	0.110	0.790
2020/01/31 10:32:02.8	301.090	-0.160	0.130	0.770
2020/01/31 10:32:02.9	301.090	-0.190	0.150	0.750
2020/01/31 10:32:03.0	301.080	-0.210	0.170	0.730
2020/01/31 10:32:03.1	301.080	-0.230	0.200	0.710
2020/01/31 10:32:03.2	301.080	-0.260	0.220	0.680
2020/01/31 10:32:03.3	301.080	-0.280	0.240	0.660
2020/01/31 10:32:03.4	301.070	-0.300	0.260	0.630
2020/01/31 10:32:03.5	301.070	-0.310	0.270	0.600
2020/01/31 10:32:03.6	301.070	-0.330	0.290	0.570
2020/01/31 10:32:03.7	301.070	-0.340	0.310	0.540
2020/01/31 10:32:03.8	301.070	-0.350	0.320	0.510
2020/01/31 10:32:03.9	301.070	-0.360	0.330	0.470
2020/01/31 10:32:04.0	301.080	-0.370	0.340	0.440
2020/01/31 10:32:04.1	301.080	-0.370	0.350	0.410
2020/01/31 10:32:04.2	301.080	-0.380	0.360	0.370
2020/01/31 10:32:04.3	301.090	-0.370	0.360	0.340
2020/01/31 10:32:04.4	301.080	-0.370	0.360	0.300
2020/01/31 10:32:04.5	301.080	-0.370	0.360	0.270
2020/01/31 10:32:04.6	301.090	-0.360	0.360	0.240
2020/01/31 10:32:04.7	301.090	-0.350	0.360	0.210
2020/01/31 10:32:04.8	301.090	-0.330	0.350	0.180
2020/01/31 10:32:04.9	301.090	-0.320	0.340	0.150
2020/01/31 10:32:05.0	301.100	-0.300	0.330	0.120
2020/01/31 10:32:05.1	301.100	-0.280	0.310	0.100
2020/01/31 10:32:05.2	301.100	-0.260	0.300	0.070
2020/01/31 10:32:05.3	301.100	-0.240	0.280	0.050
2020/01/31 10:32:05.4	301.090	-0.220	0.250	0.030
2020/01/31 10:32:05.5	301.090	-0.190	0.230	0.010
2020/01/31 10:32:05.6	301.090	-0.170	0.200	-0.000
2020/01/31 10:32:05.7	301.090	-0.140	0.170	-0.020
2020/01/31 10:32:05.8	301.090	-0.110	0.140	-0.030
2020/01/31 10:32:05.9	301.080	-0.080	0.110	-0.040
2020/01/31 10:32:06.0	301.080	-0.060	0.070	-0.050
2020/01/31 10:32:06.1	301.080	-0.030	0.040	-0.060
2020/01/31 10:32:06.2	301.080	-0.000	-0.000	-0.060
2020/01/31 10:32:06.3	301.070	0.030	-0.040	-0.070
2020/01/31 10:32:06.4	301.070	0.050	-0.090	-0.070
2020/01/31 10:32:06.5	301.060	0.080	-0.130	-0.070
2020/01/31 10:32:06.6	301.060	0.110	-0.170	-0.070
2020/01/31 10:32:06.7	301.050	0.130	-0.220	-0.060
2020/01/31 10:32:06.8	301.050	0.150	-0.260	-0.060
2020/01/31 10:32:06.9	301.050	0.180	-0.310	-0.050
2020/01/31 10:32:07.0	301.040	0.200	-0.350	-0.040
2020/01/31 10:32:07.1	301.040	0.220	-0.390	-0.030
2020/01/31 10:32:07.2	301.030	0.240	-0.440	-0.020
2020/01/31 10:32:07.3	301.030	0.250	-0.480	-0.010
2020/01/31 10:32:07.4	301.040	0.270	-0.520	0.000
2020/01/31 10:32:07.5	301.040	0.280	-0.570	0.020
2020/01/31 10:32:07.6	301.030	0.290	-0.610	0.030
2020/01/31 10:32:07.7	301.030	0.300	-0.640	0.040
2020/01/31 10:32:07.8	301.030	0.310	-0.680	0.060
2020/01/31 10:32:07.9	301.030	0.320	-0.720	0.070
2020/01/31 10:32:08.0	301.030	0.320	-0.750	0.080
2020/01/31 10:32:08.1	301.030	0.320	-0.780	0.100
2020/01/31 10:32:08.2	301.030	0.320	-0.810	0.110
2020/01/31 10:32:08.3	301.040	0.320	-0.840	0.120
2020/01/31 10:32:08.4	301.040	0.310	-0.860	0.140
2020/01/31 10:32:08.5	301.040	0.310	-0.880	0.150
2020/01/31 10:32:08.6	301.040	0.300	-0.890	0.160
2020/01/31 10:32:08.7	301.050	0.290	-0.910	0.170
2020/01/31 10:32:08.8	301.050	0.270	-0.920	0.190
2020/01/31 10:32:08.9	301.050	0.260	-0.920	0.200
2020/01/31 10:32:09.0	301.060	0.240	-0.930	0.220
2020/01/31 10:32:09.1	301.060	0.220	-0.930	0.230
2020/01/31 10:32:09.2	301.060	0.200	-0.920	0.250
2020/01/31 10:32:09.3	301.070	0.180	-0.910	0.260
2020/01/31 10:32:09.4	301.080	0.160	-0.900	0.280
2020/01/31 10:32:09.5	301.080	0.140	-0.880	0.300
2020/01/31 10:32:09.6	301.080	0.120	-0.870	0.310
2020/01/31 10:32:09.7	301.080	0.090	-0.850	0.330
2020/01/31 10:32:09.8	301.080	0.070	-0.820	0.350
2020/01/31 10:32:09.9	301.080	0.040	-0.790	0.370
2020/01/31 10:32:10.0	301.080	0.010	-0.770	0.390
2020/01/31 10:32:10.1	301.070	-0.010	-0.730	0.400
2020/01/31 10:32:10.2	301.070	-0.040	-0.700	0.420
2020/01/31 10:32:10.3	301.070	-0.060	-0.670	0.440
2020/01/31 10:32:10.4	301.070	-0.090	-0.630	0.460
2020/01/31 10:32:10.5	301.060	-0.110	-0.600	0.480
2020/01/31 10:32:10.6	301.060	-0.140	-0.560	0.500
2020/01/31 10:32:10.7	301.050	-0.160	-0.520	0.510
2020/01/31 10:32:10.8	301.040	-0.180	-0.490	0.530
2020/01/31 10:32:10.9	301.030	-0.200	-0.450	0.550
2020/01/31 10:32:11.0	301.020	-0.220	-0.420	0.560
2020/01/31 10:32:11.1	301.010	-0.240	-0.380	0.580
2020/01/31 10:32:11.2	301.000	-0.260	-0.350	0.590
2020/01/31 10:32:11.3	300.990	-0.270	-0.320	0.610
2020/01/31 10:32:11.4	300.970	-0.290	-0.290	0.620
2020/01/31 10:32:11.5	300.960	-0.300	-0.270	0.640
2020/01/31 10:32:11.6	300.950	-0.310	-0.240	0.650
2020/01/31 10:32:11.7	300.940	-0.310	-0.220	0.660
2020/01/31 10:32:11.8	300.930	-0.320	-0.190	0.670
2020/01/31 10:32:11.9	300.920	-0.320	-0.170	0.680
2020/01/31 10:32:12.0	300.910	-0.330	-0.160	0.690
2020/01/31 10:32:12.1	300.900	-0.330	-0.140	0.700
2020/01/31 10:32:12.2	300.890	-0.330	-0.130	0.710
2020/01/31 10:32:12.3	300.890	-0.320	-0.110	0.710
2020/01/31 10:32:12.4	300.880	-0.320	-0.100	0.720
2020/01/31 10:32:12.5	300.870	-0.310	-0.100	0.720
2020/01/31 10:32:12.6	300.870	-0.310	-0.090	0.720
2020/01/31 10:32:12.7	300.870	-0.300	-0.080	0.720
2020/01/31 10:32:12.8	300.860	-0.290	-0.080	0.720
2020/01/31 10:32:12.9	300.860	-0.280	-0.080	0.720
2020/01/31 10:32:13.0	300.860	-0.260	-0.080	0.720
2020/01/31 10:32:13.1	300.860	-0.250	-0.080	0.710
2020/01/31 10:32:13.2	300.870	-0.240	-0.080	0.710
2020/01/31 10:32:13.3	300.870	-0.220	-0.080	0.700
2020/01/31 10:32:13.4	300.870	-0.210	-0.070	0.690
2020/01/31 10:32:13.5	300.870	-0.190	-0.070	0.680
2020/01/31 10:32:13.6	300.880	-0.180	-0.070	0.670
2020/01/31 10:32:13.7	300.880	-0.160	-0.070	0.660
2020/01/31 10:32:13.8	300.890	-0.150	-0.070	0.650
2020/01/31 10:32:13.9	300.900	-0.130	-0.060	0.640
2020/01/31 10:32:14.0	300.900	-0.120	-0.060	0.630
2020/01/31 10:32:14.1	300.910	-0.100	-0.050	0.620
2020/01/31 10:32:14.2	300.920	-0.090	-0.040	0.610
2020/01/31 10:32:14.3	300.920	-0.080	-0.040	0.600
2020/01/31 10:32:14.4	300.930	-0.060	-0.030	0.590
2020/01/31 10:32:14.5	300.940	-0.050	-0.010	0.580
2020/01/31 10:32:14.6	300.940	-0.040	-0.000	0.560
2020/01/31 10:32:14.7	300.950	-0.030	0.010	0.550
2020/01/31 10:32:14.8	300.950	-0.010	0.030	0.540
2020/01/31 10:32:14.9	300.960	-0.000	0.040	0.530
2020/01/31 10:32:15.0	300.960	0.010	0.060	0.520
2020/01/31 10:32:15.1	300.960	0.020	0.080	0.510
2020/01/31 10:32:15.2	300.970	0.030	0.090	0.500
2020/01/31 10:32:15.3	300.970	0.040	0.110	0.490
2020/01/31 10:32:15.4	300.970	0.050	0.130	0.480
2020/01/31 10:32:15.5	300.970	0.060	0.140	0.470
2020/01/31 10:32:15.6	300.970	0.070	0.160	0.460
2020/01/31 10:32:15.7	300.970	0.080	0.170	0.450
2020/01/31 10:32:15.8	300.970	0.090	0.180	0.450
2020/01/31 10:32:15.9	300.970	0.100	0.190	0.440
2020/01/31 10:32:16.0	300.960	0.110	0.200	0.430
2020/01/31 10:32:16.1	300.960	0.120	0.210	0.420
2020/01/31 10:32:16.2	300.950	0.130	0.210	0.420
2020/01/31 10:32:16.3	300.950	0.140	0.220	0.410
2020/01/31 10:32:16.4	300.940	0.160	0.210	0.400
2020/01/31 10:32:16.5	300.940	0.170	0.210	0.390
2020/01/31 10:32:16.6	300.930	0.180	0.200	0.380
2020/01/31 10:32:16.7	300.930	0.190	0.200	0.370
2020/01/31 10:32:16.8	300.920	0.210	0.190	0.360
2020/01/31 10:32:16.9	300.920	0.220	0.170	0.350
2020/01/31 10:32:17.0	300.910	0.230	0.160	0.340
2020/01/31 10:32:17.1	300.910	0.250	0.140	0.330
2020/01/31 10:32:17.2	300.900	0.260	0.120	0.320
2020/01/31 10:32:17.3	300.900	0.270	0.090	0.310
2020/01/31 10:32:17.4	300.880	0.290	0.070	0.300
2020/01/31 10:32:17.5	300.880	0.300	0.040	0.290
2020/01/31 10:32:17.6	300.870	0.310	0.010	0.280
2020/01/31 10:32:17.7	300.870	0.320	-0.020	0.260
2020/01/31 10:32:17.8	300.860	0.330	-0.050	0.250
2020/01/31 10:32:17.9	300.850	0.340	-0.090	0.240
2020/01/31 10:32:18.0	300.850	0.350	-0.120	0.220
2020/01/31 10:32:18.1	300.840	0.360	-0.160	0.210
2020/01/31 10:32:18.2	300.840	0.370	-0.200	0.190
2020/01/31 10:32:18.3	300.830	0.380	-0.230	0.180
2020/01/31 10:32:18.4	300.830	0.380	-0.270	0.160
2020/01/31 10:32:18.5	300.830	0.390	-0.310	0.140
2020/01/31 10:32:18.6	300.830	0.390	-0.340	0.130
2020/01/31 10:32:18.7	300.830	0.390	-0.380	0.110
2020/01/31 10:32:18.8	300.830	0.390	-0.420	0.090
2020/01/31 10:32:18.9	300.830	0.390	-0.450	0.080
2020/01/31 10:32:19.0	300.840	0.380	-0.480	0.060
2020/01/31 10:32:19.1	300.840	0.380	-0.510	0.040
2020/01/31 10:32:19.2	300.850	0.370	-0.540	0.020
2020/01/31 10:32:19.3	300.850	0.360	-0.570	0.010
2020/01/31 10:32:19.4	300.860	0.350	-0.600	-0.010
2020/01/31 10:32:19.5	300.860	0.340	-0.620	-0.020
2020/01/31 10:32:19.6	300.870	0.330	-0.640	-0.040
2020/01/31 10:32:19.7	300.880	0.310	-0.650	-0.050
2020/01/31 10:32:19.8	300.890	0.290	-0.670	-0.070
2020/01/31 10:32:19.9	300.900	0.280	-0.680	-0.080
2020/01/31 10:32:20.0	300.900	0.260	-0.690	-0.090
2020/01/31 10:32:20.1	300.910	0.240	-0.690	-0.100
2020/01/31 10:32:20.2	300.920	0.210	-0.700	-0.100
2020/01/31 10:32:20.3	300.920	0.190	-0.700	-0.110
2020/01/31 10:32:20.4	300.940	0.170	-0.700	-0.110
2020/01/31 10:32:20.5	300.940	0.140	-0.690	-0.110
2020/01/31 10:32:20.6	300.940	0.120	-0.680	-0.110
2020/01/31 10:32:20.7	300.940	0.090	-0.670	-0.110
2020/01/31 10:32:20.8	300.940	0.060	-0.660	-0.110
2020/01/31 10:32:20.9	300.940	0.040	-0.640	-0.100
2020/01/31 10:32:21.0	300.940	0.010	-0.630	-0.090
2020/01/31 10:32:21.1	300.930	-0.020	-0.610	-0.080
2020/01/31 10:32:21.2	300.930	-0.040	-0.580	-0.070
2020/01/31 10:32:21.3	300.920	-0.070	-0.560	-0.050
2020/01/31 10:32:21.4	300.920	-0.100	-0.530	-0.040
2020/01/31 10:32:21.5	300.910	-0.120	-0.510	-0.020
2020/01/31 10:32:21.6	300.900	-0.150	-0.480	0.000
2020/01/31 10:32:21.7	300.890	-0.170	-0.450	0.030
2020/01/31 10:32:21.8	300.880	-0.190	-0.420	0.050
2020/01/31 10:32:21.9	300.870	-0.220	-0.380	0.080
2020/01/31 10:32:22.0	300.850	-0.240	-0.350	0.110
2020/01/31 10:32:22.1	300.840	-0.260	-0.320	0.140
2020/01/31 10:32:22.2	300.820	-0.270	-0.290	0.180
2020/01/31 10:32:22.3	300.810	-0.290	-0.250	0.210
2020/01/31 10:32:22.4	300.810	-0.310	-0.220	0.250
2020/01/31 10:32:22.5	300.790	-0.320	-0.190	0.290
2020/01/31 10:32:22.6	300.770	-0.330	-0.160	0.330
2020/01/31 10:32:22.7	300.750	-0.350	-0.130	0.370
2020/01/31 10:32:22.8	300.730	-0.360	-0.100	0.410
2020/01/31 10:32:22.9	300.710	-0.370	-0.080	0.450
2020/01/31 10:32:23.0	300.690	-0.370	-0.050	0.490
2020/01/31 10:32:23.1	300.670	-0.380	-0.030	0.520
2020/01/31 10:32:23.2	300.660	-0.380	-0.010	0.560
2020/01/31 10:32:23.3	300.640	-0.390	0.000	0.590
2020/01/31 10:32:23.4	300.630	-0.390	0.010	0.620
2020/01/31 10:32:23.5	300.610	-0.390	0.020	0.650
2020/01/31 10:32:23.6	300.590	-0.390	0.030	0.680
2020/01/31 10:32:23.7	300.570	-0.390	0.030	0.700
2020/01/31 10:32:23.8	300.560	-0.390	0.030	0.720
2020/01/31 10:32:23.9	300.540	-0.380	0.030	0.740
2020/01/31 10:32:24.0	300.520	-0.370	0.020	0.760
2020/01/31 10:32:24.1	300.510	-0.370	0.020	0.770
2020/01/31 10:32:24.2	300.500	-0.360	0.010	0.780
2020/01/31 10:32:24.3	300.480	-0.350	-0.010	0.790
2020/01/31 10:32:24.4	300.460	-0.340	-0.020	0.800
2020/01/31 10:32:24.5	300.450	-0.330	-0.040	0.800
2020/01/31 10:32:24.6	300.440	-0.320	-0.060	0.800
2020/01/31 10:32:24.7	300.430	-0.300	-0.080	0.800
2020/01/31 10:32:24.8	300.430	-0.290	-0.100	0.800
2020/01/31 10:32:24.9	300.420	-0.270	-0.120	0.790
2020/01/31 10:32:25.0	300.420	-0.260	-0.140	0.780
2020/01/31 10:32:25.1	300.420	-0.240	-0.170	0.770
2020/01/31 10:32:25.2	300.410	-0.230	-0.190	0.760
2020/01/31 10:32:25.3	300.410	-0.210	-0.210	0.750
2020/01/31 10:32:25.4	300.410	-0.190	-0.240	0.730
2020/01/31 10:32:25.5	300.410	-0.170	-0.270	0.720
2020/01/31 10:32:25.6	300.410	-0.150	-0.290	0.700
2020/01/31 10:32:25.7	300.420	-0.140	-0.310	0.680
2020/01/31 10:32:25.8	300.420	-0.120	-0.330	0.670
2020/01/31 10:32:25.9	300.420	-0.100	-0.350	0.650
2020/01/31 10:32:26.0	300.430	-0.080	-0.360	0.630
2020/01/31 10:32:26.1	300.430	-0.070	-0.380	0.620
2020/01/31 10:32:26.2	300.440	-0.050	-0.390	0.600
2020/01/31 10:32:26.3	300.450	-0.040	-0.410	0.580
2020/01/31 10:32:26.4	300.440	-0.020	-0.420	0.560
2020/01/31 10:32:26.5	300.450	-0.010	-0.430	0.550
2020/01/31 10:32:26.6	300.460	0.010	-0.430	0.530
2020/01/31 10:32:26.7	300.470	0.020	-0.440	0.520
2020/01/31 10:32:26.8	300.480	0.030	-0.440	0.500
2020/01/31 10:32:26.9	300.490	0.040	-0.450	0.480
2020/01/31 10:32:27.0	300.500	0.050	-0.450	0.470
2020/01/31 10:32:27.1	300.510	0.060	-0.450	0.450
2020/01/31 10:32:27.2	300.520	0.070	-0.450	0.440
2020/01/31 10:32:27.3	300.530	0.080	-0.450	0.420
2020/01/31 10:32:27.4	300.550	0.090	-0.450	0.410
2020/01/31 10:32:27.5	300.560	0.100	-0.450	0.390
2020/01/31 10:32:27.6	300.580	0.100	-0.450	0.380
2020/01/31 10:32:27.7	300.590	0.110	-0.450	0.360
2020/01/31 10:32:27.8	300.610	0.110	-0.440	0.340
2020/01/31 10:32:27.9	300.630	0.120	-0.440	0.330
2020/01/31 10:32:28.0	300.650	0.130	-0.440	0.310
2020/01/31 10:32:28.1	300.670	0.130	-0.440	0.290
2020/01/31 10:32:28.2	300.690	0.140	-0.430	0.270
2020/01/31 10:32:28.3	300.710	0.140	-0.430	0.250
2020/01/31 10:32:28.4	300.730	0.150	-0.420	0.230
2020/01/31 10:32:28.5	300.750	0.150	-0.420	0.210
2020/01/31 10:32:28.6	300.780	0.150	-0.410	0.190
2020/01/31 10:32:28.7	300.800	0.160	-0.400	0.170
2020/01/31 10:32:28.8	300.820	0.160	-0.400	0.150
2020/01/31 10:32:28.9	300.850	0.170	-0.390	0.130
2020/01/31 10:32:29.0	300.870	0.170	-0.370	0.110
2020/01/31 10:32:29.1	300.890	0.180	-0.360	0.090
2020/01/31 10:32:29.2	300.910	0.180	-0.350	0.080
2020/01/31 10:32:29.3	300.930	0.180	-0.330	0.060
2020/01/31 10:32:29.4	300.950	0.190	-0.310	0.050
2020/01/31 10:32:29.5	300.960	0.190	-0.290	0.040
2020/01/31 10:32:29.6	300.980	0.190	-0.270	0.030
2020/01/31 10:32:29.7	300.990	0.190	-0.250	0.030
2020/01/31 10:32:29.8	301.000	0.190	-0.220	0.020
2020/01/31 10:32:29.9	301.010	0.190	-0.190	0.020
2020/01/31 10:32:30.0	301.020	0.190	-0.160	0.030
2020/01/31 10:32:30.1	301.020	0.190	-0.130	0.030
2020/01/31 10:32:30.2	301.020	0.190	-0.100	0.040
2020/01/31 10:32:30.3	301.020	0.190	-0.060	0.050
2020/01/31 10:32:30.4	301.020	0.190	-0.030	0.070
2020/01/31 10:32:30.5	301.020	0.180	0.010	0.090
2020/01/31 10:32:30.6	301.010	0.180	0.040	0.110
2020/01/31 10:32:30.7	301.000	0.170	0.080	0.130
2020/01/31 10:32:30.8	300.990	0.170	0.120	0.150
2020/01/31 10:32:30.9	300.980	0.160	0.150	0.180
2020/01/31 10:32:31.0	300.960	0.150	0.180	0.210
2020/01/31 10:32:31.1	300.940	0.150	0.220	0.240
2020/01/31 10:32:31.2	300.920	0.140	0.250	0.270
2020/01/31 10:32:31.3	300.900	0.130	0.280	0.300
2020/01/31 10:32:31.4	300.880	0.120	0.300	0.330
2020/01/31 10:32:31.5	300.860	0.110	0.320	0.360
2020/01/31 10:32:31.6	300.830	0.100	0.350	0.400
2020/01/31 10:32:31.7	300.810	0.090	0.360	0.430
2020/01/31 10:32:31.8	300.780	0.080	0.380	0.460
2020/01/31 10:32:31.9	300.750	0.070	0.390	0.490
2020/01/31 10:32:32.0	300.730	0.060	0.400	0.530
2020/01/31 10:32:32.1	300.700	0.050	0.400	0.560
2020/01/31 10:32:32.2	300.670	0.040	0.400	0.590
2020/01/31 10:32:32.3	300.640	0.030	0.390	0.610
2020/01/31 10:32:32.4	300.610	0.020	0.390	0.640
2020/01/31 10:32:32.5	300.590	0.010	0.370	0.670
2020/01/31 10:32:32.6	300.560	-0.000	0.360	0.690
2020/01/31 10:32:32.7	300.530	-0.010	0.340	0.710
2020/01/31 10:32:32.8	300.500	-0.020	0.310	0.730
2020/01/31 10:32:32.9	300.470	-0.030	0.280	0.750
2020/01/31 10:32:33.0	300.450	-0.040	0.250	0.770
2020/01/31 10:32:33.1	300.420	-0.040	0.210	0.780
2020/01/31 10:32:33.2	300.390	-0.050	0.170	0.790
2020/01/31 10:32:33.3	300.370	-0.050	0.130	0.800
2020/01/31 10:32:33.4	300.350	-0.060	0.080	0.810
2020/01/31 10:32:33.5	300.330	-0.060	0.040	0.810
2020/01/31 10:32:33.6	300.310	-0.070	-0.010	0.810
2020/01/31 10:32:33.7	300.280	-0.070	-0.060	0.810
2020/01/31 10:32:33.8	300.260	-0.070	-0.120	0.800
2020/01/31 10:32:33.9	300.240	-0.070	-0.170	0.790
2020/01/31 10:32:34.0	300.220	-0.070	-0.220	0.780
2020/01/31 10:32:34.1	300.210	-0.060	-0.280	0.770
2020/01/31 10:32:34.2	300.190	-0.060	-0.330	0.760
2020/01/31 10:32:34.3	300.170	-0.060	-0.380	0.740
2020/01/31 10:32:34.4	300.170	-0.050	-0.430	0.720
2020/01/31 10:32:34.5	300.150	-0.050	-0.490	0.700
2020/01/31 10:32:34.6	300.140	-0.040	-0.530	0.680
2020/01/31 10:32:34.7	300.120	-0.030	-0.580	0.660
2020/01/31 10:32:34.8	300.110	-0.030	-0.630	0.640
2020/01/31 10:32:34.9	300.100	-0.020	-0.670	0.620
2020/01/31 10:32:35.0	300.090	-0.010	-0.710	0.600
2020/01/31 10:32:35.1	300.080	-0.000	-0.750	0.570
2020/01/31 10:32:35.2	300.080	0.010	-0.790	0.550
2020/01/31 10:32:35.3	300.070	0.020	-0.820	0.530
2020/01/31 10:32:35.4	300.040	0.030	-0.850	0.500
2020/01/31 10:32:35.5	300.040	0.040	-0.880	0.480
2020/01/31 10:32:35.6	300.030	0.040	-0.900	0.460
2020/01/31 10:32:35.7	300.030	0.050	-0.920	0.440
2020/01/31 10:32:35.8	300.030	0.060	-0.940	0.420
2020/01/31 10:32:35.9	300.030	0.070	-0.950	0.400
2020/01/31 10:32:36.0	300.030	0.080	-0.960	0.380
2020/01/31 10:32:36.1	300.030	0.080	-0.970	0.360
2020/01/31 10:32:36.2	300.040	0.090	-0.970	0.340
2020/01/31 10:32:36.3	300.040	0.100	-0.970	0.320
2020/01/31 10:32:36.4	300.050	0.100	-0.970	0.300
2020/01/31 10:32:36.5	300.060	0.100	-0.960	0.290
2020/01/31 10:32:36.6	300.070	0.110	-0.960	0.270
2020/01/31 10:32:36.7	300.080	0.110	-0.940	0.250
2020/01/31 10:32:36.8	300.090	0.110	-0.930	0.240
2020/01/31 10:32:36.9	300.100	0.110	-0.910	0.220
2020/01/31 10:32:37.0	300.120	0.110	-0.900	0.210
2020/01/31 10:32:37.1	300.130	0.100	-0.870	0.190
2020/01/31 10:32:37.2	300.150	0.100	-0.850	0.180
2020/01/31 10:32:37.3	300.170	0.100	-0.830	0.170
2020/01/31 10:32:37.4	300.190	0.090	-0.800	0.150
2020/01/31 10:32:37.5	300.210	0.090	-0.770	0.140
2020/01/31 10:32:37.6	300.230	0.080	-0.740	0.130
2020/01/31 10:32:37.7	300.250	0.070	-0.710	0.110
2020/01/31 10:32:37.8	300.270	0.060	-0.680	0.100
2020/01/31 10:32:37.9	300.300	0.050	-0.640	0.090
2020/01/31 10:32:38.0	300.320	0.040	-0.600	0.080
2020/01/31 10:32:38.1	300.340	0.030	-0.570	0.060
2020/01/31 10:32:38.2	300.370	0.020	-0.530	0.050
2020/01/31 10:32:38.3	300.390	0.010	-0.490	0.050
2020/01/31 10:32:38.4	300.420	-0.010	-0.450	0.040
2020/01/31 10:32:38.5	300.450	-0.020	-0.410	0.030
2020/01/31 10:32:38.6	300.470	-0.030	-0.370	0.030
2020/01/31 10:32:38.7	300.500	-0.050	-0.330	0.030
2020/01/31 10:32:38.8	300.520	-0.060	-0.290	0.020
2020/01/31 10:32:38.9	300.540	-0.070	-0.250	0.020
2020/01/31 10:32:39.0	300.570	-0.090	-0.210	0.020
2020/01/31 10:32:39.1	300.590	-0.100	-0.170	0.030
2020/01/31 10:32:39.2	300.610	-0.110	-0.130	0.030
2020/01/31 10:32:39.3	300.630	-0.130	-0.090	0.030
2020/01/31 10:32:39.4	300.640	-0.140	-0.050	0.040
2020/01/31 10:32:39.5	300.660	-0.150	-0.010	0.040
2020/01/31 10:32:39.6	300.680	-0.160	0.030	0.050
2020/01/31 10:32:39.7	300.700	-0.170	0.060	0.060
2020/01/31 10:32:39.8	300.710	-0.180	0.100	0.070
2020/01/31 10:32:39.9	300.730	-0.190	0.130	0.080
2020/01/31 10:32:40.0	300.740	-0.190	0.160	0.090
2020/01/31 10:32:40.1	300.750	-0.200	0.190	0.100
2020/01/31 10:32:40.2	300.770	-0.200	0.220	0.120
2020/01/31 10:32:40.3	300.780	-0.200	0.250	0.130
2020/01/31 10:32:40.4	300.780	-0.200	0.270	0.150
2020/01/31 10:32:40.5	300.790	-0.200	0.290	0.170
2020/01/31 10:32:40.6	300.800	-0.200	0.320	0.180
2020/01/31 10:32:40.7	300.800	-0.200	0.340	0.200
2020/01/31 10:32:40.8	300.800	-0.190	0.350	0.230
2020/01/31 10:32:40.9	300.800	-0.190	0.370	0.250
2020/01/31 10:32:41.0	300.800	-0.180	0.380	0.270
2020/01/31 10:32:41.1	300.790	-0.170	0.390	0.300
2020/01/31 10:32:41.2	300.790	-0.160	0.400	0.330
2020/01/31 10:32:41.3	300.780	-0.150	0.410	0.350
2020/01/31 10:32:41.4	300.770	-0.140	0.410	0.380
2020/01/31 10:32:41.5	300.760	-0.130	0.410	0.410
2020/01/31 10:32:41.6	300.750	-0.110	0.410	0.430
2020/01/31 10:32:41.7	300.740	-0.100	0.410	0.460
2020/01/31 10:32:41.8	300.730	-0.080	0.400	0.490
2020/01/31 10:32:41.9	300.710	-0.070	0.390	0.510
2020/01/31 10:32:42.0	300.700	-0.050	0.380	0.540
2020/01/31 10:32:42.1	300.680	-0.040	0.360	0.560
2020/01/31 10:32:42.2	300.670	-0.020	0.340	0.580
2020/01/31 10:32:42.3	300.650	-0.010	0.320	0.600
2020/01/31 10:32:42.4	300.640	0.010	0.300	0.620
2020/01/31 10:32:42.5	300.620	0.030	0.270	0.630
2020/01/31 10:32:42.6	300.600	0.040	0.240	0.650
2020/01/31 10:32:42.7	300.580	0.060	0.210	0.660
2020/01/31 10:32:42.8	300.570	0.070	0.180	0.670
2020/01/31 10:32:42.9	300.550	0.080	0.150	0.680
2020/01/31 10:32:43.0	300.530	0.100	0.110	0.690
2020/01/31 10:32:43.1	300.510	0.110	0.080	0.700
2020/01/31 10:32:43.2	300.490	0.120	0.040	0.700
2020/01/31 10:32:43.3	300.470	0.130	0.010	0.710
2020/01/31 10:32:43.4	300.450	0.140	-0.030	0.710
2020/01/31 10:32:43.5	300.430	0.150	-0.060	0.710
2020/01/31 10:32:43.6	300.410	0.160	-0.100	0.720
2020/01/31 10:32:43.7	300.390	0.170	-0.130	0.710
2020/01/31 10:32:43.8	300.370	0.170	-0.160	0.710
2020/01/31 10:32:43.9	300.350	0.180	-0.200	0.710
2020/01/31 10:32:44.0	300.330	0.180	-0.230	0.710
2020/01/31 10:32:44.1	300.320	0.190	-0.250	0.710
2020/01/31 10:32:44.2	300.300	0.190	-0.280	0.710
2020/01/31 10:32:44.3	300.280	0.190	-0.310	0.700
2020/01/31 10:32:44.4	300.270	0.190	-0.330	0.690
2020/01/31 10:32:44.5	300.260	0.190	-0.360	0.690
2020/01/31 10:32:44.6	300.240	0.190	-0.380	0.680
2020/01/31 10:32:44.7	300.220	0.190	-0.400	0.670
2020/01/31 10:32:44.8	300.210	0.180	-0.420	0.660
2020/01/31 10:32:44.9	300.200	0.180	-0.430	0.650
2020/01/31 10:32:45.0	300.180	0.180	-0.450	0.640
2020/01/31 10:32:45.1	300.170	0.170	-0.460	0.620
2020/01/31 10:32:45.2	300.160	0.170	-0.480	0.610
2020/01/31 10:32:45.3	300.150	0.160	-0.490	0.590
2020/01/31 10:32:45.4	300.140	0.150	-0.510	0.570
2020/01/31 10:32:45.5	300.130	0.150	-0.520	0.550
2020/01/31 10:32:45.6	300.130	0.140	-0.530	0.530
2020/01/31 10:32:45.7	300.120	0.130	-0.540	0.500
2020/01/31 10:32:45.8	300.110	0.120	-0.560	0.480
2020/01/31 10:32:45.9	300.110	0.120	-0.570	0.460
2020/01/31 10:32:46.0	300.100	0.110	-0.580	0.430
2020/01/31 10:32:46.1	300.100	0.100	-0.590	0.410
2020/01/31 10:32:46.2	300.100	0.090	-0.600	0.380
2020/01/31 10:32:46.3	300.100	0.090	-0.610	0.350
2020/01/31 10:32:46.4	300.090	0.080	-0.630	0.320
2020/01/31 10:32:46.5	300.090	0.070	-0.640	0.300
2020/01/31 10:32:46.6	300.090	0.060	-0.650	0.270
2020/01/31 10:32:46.7	300.090	0.060	-0.650	0.240
2020/01/31 10:32:46.8	300.100	0.050	-0.660	0.210
2020/01/31 10:32:46.9	300.100	0.040	-0.670	0.180
2020/01/31 10:32:47.0	300.100	0.030	-0.680	0.150
2020/01/31 10:32:47.1	300.110	0.030	-0.690	0.120
2020/01/31 10:32:47.2	300.120	0.020	-0.700	0.090
2020/01/31 10:32:47.3	300.120	0.010	-0.700	0.060
2020/01/31 10:32:47.4	300.130	0.010	-0.710	0.030
2020/01/31 10:32:47.5	300.140	-0.000	-0.710	0.000
2020/01/31 10:32:47.6	300.150	-0.010	-0.710	-0.020
2020/01/31 10:32:47.7	300.160	-0.020	-0.720	-0.040
2020/01/31 10:32:47.8	300.170	-0.020	-0.720	-0.070
2020/01/31 10:32:47.9	300.180	-0.030	-0.710	-0.090
2020/01/31 10:32:48.0	300.190	-0.040	-0.710	-0.100
2020/01/31 10:32:48.1	300.210	-0.040	-0.710	-0.120
2020/01/31 10:32:48.2	300.220	-0.050	-0.700	-0.130
2020/01/31 10:32:48.3	300.230	-0.060	-0.690	-0.140
2020/01/31 10:32:48.4	300.240	-0.070	-0.680	-0.140
2020/01/31 10:32:48.5	300.250	-0.070	-0.670	-0.140
2020/01/31 10:32:48.6	300.260	-0.080	-0.650	-0.140
2020/01/31 10:32:48.7	300.270	-0.090	-0.630	-0.140
2020/01/31 10:32:48.8	300.280	-0.100	-0.610	-0.130
2020/01/31 10:32:48.9	300.290	-0.110	-0.580	-0.120
2020/01/31 10:32:49.0	300.310	-0.110	-0.550	-0.100
2020/01/31 10:32:49.1	300.310	-0.120	-0.520	-0.080
2020/01/31 10:32:49.2	300.320	-0.130	-0.480	-0.050
2020/01/31 10:32:49.3	300.330	-0.140	-0.450	-0.030
2020/01/31 10:32:49.4	300.360	-0.150	-0.400	0.000
2020/01/31 10:32:49.5	300.370	-0.160	-0.360	0.040
2020/01/31 10:32:49.6	300.370	-0.170	-0.320	0.070
2020/01/31 10:32:49.7	300.380	-0.180	-0.280	0.110
2020/01/31 10:32:49.8	300.390	-0.180	-0.230	0.140
2020/01/31 10:32:49.9	300.400	-0.190	-0.190	0.180
2020/01/31 10:32:50.0	300.410	-0.200	-0.140	0.220
2020/01/31 10:32:50.1	300.420	-0.210	-0.100	0.250
2020/01/31 10:32:50.2	300.430	-0.220	-0.060	0.290
2020/01/31 10:32:50.3	300.430	-0.220	-0.020	0.320
2020/01/31 10:32:50.4	300.460	-0.230	0.020	0.360
2020/01/31 10:32:50.5	300.460	-0.230	0.060	0.390
2020/01/31 10:32:50.6	300.470	-0.240	0.090	0.420
2020/01/31 10:32:50.7	300.480	-0.240	0.120	0.440
2020/01/31 10:32:50.8	300.490	-0.250	0.150	0.470
2020/01/31 10:32:50.9	300.500	-0.250	0.170	0.490
2020/01/31 10:32:51.0	300.510	-0.250	0.190	0.510
2020/01/31 10:32:51.1	300.510	-0.250	0.210	0.520
2020/01/31 10:32:51.2	300.520	-0.250	0.220	0.540
2020/01/31 10:32:51.3	300.530	-0.250	0.230	0.550
2020/01/31 10:32:51.4	300.530	-0.240	0.240	0.560
2020/01/31 10:32:51.5	300.530	-0.240	0.240	0.570
2020/01/31 10:32:51.6	300.540	-0.230	0.240	0.580
2020/01/31 10:32:51.7	300.540	-0.230	0.240	0.580
2020/01/31 10:32:51.8	300.540	-0.220	0.240	0.580
2020/01/31 10:32:51.9	300.540	-0.210	0.240	0.580
2020/01/31 10:32:52.0	300.540	-0.200	0.230	0.580
2020/01/31 10:32:52.1	300.540	-0.190	0.220	0.580
2020/01/31 10:32:52.2	300.540	-0.180	0.210	0.570
2020/01/31 10:32:52.3	300.540	-0.160	0.190	0.570
2020/01/31 10:32:52.4	300.530	-0.150	0.180	0.560
2020/01/31 10:32:52.5	300.520	-0.130	0.160	0.540
2020/01/31 10:32:52.6	300.520	-0.110	0.140	0.530
2020/01/31 10:32:52.7	300.520	-0.100	0.130	0.510
2020/01/31 10:32:52.8	300.510	-0.080	0.110	0.500
2020/01/31 10:32:52.9	300.510	-0.060	0.080	0.480
2020/01/31 10:32:53.0	300.510	-0.040	0.060	0.460
2020/01/31 10:32:53.1	300.510	-0.020	0.040	0.430
2020/01/31 10:32:53.2	300.510	0.010	0.010	0.410
2020/01/31 10:32:53.3	300.510	0.030	-0.010	0.380
2020/01/31 10:32:53.4	300.510	0.050	-0.040	0.350
2020/01/31 10:32:53.5	300.510	0.080	-0.070	0.320
2020/01/31 10:32:53.6	300.510	0.100	-0.090	0.290
2020/01/31 10:32:53.7	300.510	0.130	-0.120	0.260
2020/01/31 10:32:53.8	300.520	0.150	-0.150	0.220
2020/01/31 10:32:53.9	300.520	0.170	-0.170	0.190
2020/01/31 10:32:54.0	300.530	0.200	-0.200	0.160
2020/01/31 10:32:54.1	300.540	0.220	-0.220	0.130
2020/01/31 10:32:54.2	300.540	0.240	-0.250	0.090
2020/01/31 10:32:54.3	300.550	0.260	-0.270	0.060
2020/01/31 10:32:54.4	300.550	0.280	-0.290	0.040
2020/01/31 10:32:54.5	300.550	0.300	-0.310	0.010
2020/01/31 10:32:54.6	300.560	0.310	-0.330	-0.020
2020/01/31 10:32:54.7	300.560	0.330	-0.350	-0.040
2020/01/31 10:32:54.8	300.570	0.340	-0.360	-0.070
2020/01/31 10:32:54.9	300.570	0.350	-0.370	-0.090
2020/01/31 10:32:55.0	300.570	0.360	-0.390	-0.110
2020/01/31 10:32:55.1	300.580	0.370	-0.400	-0.120
2020/01/31 10:32:55.2	300.580	0.370	-0.400	-0.140
2020/01/31 10:32:55.3	300.580	0.380	-0.410	-0.150
2020/01/31 10:32:55.4	300.590	0.380	-0.410	-0.160
2020/01/31 10:32:55.5	300.590	0.370	-0.420	-0.160
2020/01/31 10:32:55.6	300.590	0.370	-0.420	-0.170
2020/01/31 10:32:55.7	300.590	0.360	-0.410	-0.170
2020/01/31 10:32:55.8	300.590	0.360	-0.410	-0.170
2020/01/31 10:32:55.9	300.590	0.340	-0.400	-0.160
2020/01/31 10:32:56.0	300.580	0.330	-0.400	-0.160
2020/01/31 10:32:56.1	300.580	0.320	-0.390	-0.150
2020/01/31 10:32:56.2	300.580	0.300	-0.380	-0.130
2020/01/31 10:32:56.3	300.570	0.280	-0.370	-0.120
2020/01/31 10:32:56.4	300.580	0.270	-0.350	-0.090
2020/01/31 10:32:56.5	300.580	0.250	-0.340	-0.070
2020/01/31 10:32:56.6	300.570	0.230	-0.320	-0.050
2020/01/31 10:32:56.7	300.560	0.200	-0.310	-0.020
2020/01/31 10:32:56.8	300.560	0.180	-0.290	0.010
2020/01/31 10:32:56.9	300.550	0.160	-0.270	0.050
2020/01/31 10:32:57.0	300.540	0.130	-0.250	0.080
2020/01/31 10:32:57.1	300.530	0.110	-0.230	0.120
2020/01/31 10:32:57.2	300.520	0.090	-0.200	0.160
2020/01/31 10:32:57.3	300.510	0.060	-0.180	0.200
2020/01/31 10:32:57.4	300.510	0.040	-0.160	0.250
2020/01/31 10:32:57.5	300.490	0.020	-0.140	0.290
2020/01/31 10:32:57.6	300.480	-0.010	-0.110	0.340
2020/01/31 10:32:57.7	300.460	-0.030	-0.090	0.380
2020/01/31 10:32:57.8	300.440	-0.050	-0.070	0.430
2020/01/31 10:32:57.9	300.430	-0.070	-0.060	0.480
2020/01/31 10:32:58.0	300.410	-0.090	-0.040	0.520
2020/01/31 10:32:58.1	300.390	-0.110	-0.020	0.570
2020/01/31 10:32:58.2	300.370	-0.130	-0.010	0.610
2020/01/31 10:32:58.3	300.350	-0.140	0.000	0.660
2020/01/31 10:32:58.4	300.330	-0.160	0.010	0.700
2020/01/31 10:32:58.5	300.310	-0.170	0.020	0.730
2020/01/31 10:32:58.6	300.290	-0.180	0.020	0.770
2020/01/31 10:32:58.7	300.270	-0.190	0.020	0.810
2020/01/31 10:32:58.8	300.250	-0.200	0.020	0.840
2020/01/31 10:32:58.9	300.240	-0.210	0.010	0.860
2020/01/31 10:32:59.0	300.220	-0.210	0.000	0.890
2020/01/31 10:32:59.1	300.210	-0.220	-0.010	0.910
2020/01/31 10:32:59.2	300.190	-0.220	-0.020	0.920
2020/01/31 10:32:59.3	300.180	-0.220	-0.040	0.940
2020/01/31 10:32:59.4	300.180	-0.220	-0.060	0.950
2020/01/31 10:32:59.5	300.170	-0.210	-0.090	0.950
2020/01/31 10:32:59.6	300.160	-0.210	-0.120	0.950
2020/01/31 10:32:59.7	300.150	-0.200	-0.150	0.950
2020/01/31 10:32:59.8	300.150	-0.200	-0.180	0.940
2020/01/31 10:32:59.9	300.140	-0.190	-0.210	0.930
2020/01/31 10:33:00.0	300.140	-0.180	-0.250	0.920
2020/01/31 10:33:00.1	300.140	-0.170	-0.280	0.900
2020/01/31 10:33:00.2	300.140	-0.160	-0.320	0.880
2020/01/31 10:33:00.3	300.140	-0.140	-0.360	0.860
2020/01/31 10:33:00.4	300.150	-0.130	-0.400	0.830
2020/01/31 10:33:00.5	300.160	-0.120	-0.440	0.800
2020/01/31 10:33:00.6	300.170	-0.100	-0.480	0.770
2020/01/31 10:33:00.7	300.180	-0.090	-0.510	0.740
2020/01/31 10:33:00.8	300.190	-0.070	-0.550	0.710
2020/01/31 10:33:00.9	300.200	-0.060	-0.580	0.670
2020/01/31 10:33:01.0	300.210	-0.040	-0.620	0.640
2020/01/31 10:33:01.1	300.230	-0.030	-0.650	0.600
2020/01/31 10:33:01.2	300.240	-0.010	-0.680	0.560
2020/01/31 10:33:01.3	300.260	0.000	-0.700	0.530
2020/01/31 10:33:01.4	300.270	0.010	-0.730	0.490
2020/01/31 10:33:01.5	300.290	0.030	-0.750	0.450
2020/01/31 10:33:01.6	300.310	0.040	-0.770	0.410
2020/01/31 10:33:01.7	300.330	0.050	-0.790	0.380
2020/01/31 10:33:01.8	300.350	0.060	-0.800	0.340
2020/01/31 10:33:01.9	300.370	0.070	-0.810	0.300
2020/01/31 10:33:02.0	300.390	0.080	-0.820	0.270
2020/01/31 10:33:02.1	300.410	0.080	-0.820	0.230
2020/01/31 10:33:02.2	300.430	0.090	-0.820	0.200
2020/01/31 10:33:02.3	300.450	0.090	-0.820	0.170
2020/01/31 10:33:02.4	300.470	0.100	-0.810	0.140
2020/01/31 10:33:02.5	300.490	0.100	-0.810	0.110
2020/01/31 10:33:02.6	300.510	0.100	-0.790	0.090
2020/01/31 10:33:02.7	300.530	0.100	-0.780	0.060
2020/01/31 10:33:02.8	300.540	0.090	-0.760	0.040
2020/01/31 10:33:02.9	300.560	0.090	-0.740	0.020
2020/01/31 10:33:03.0	300.570	0.090	-0.720	-0.000
2020/01/31 10:33:03.1	300.590	0.080	-0.690	-0.020
2020/01/31 10:33:03.2	300.600	0.070	-0.670	-0.040
2020/01/31 10:33:03.3	300.620	0.070	-0.640	-0.050
2020/01/31 10:33:03.4	300.640	0.060	-0.610	-0.060
2020/01/31 10:33:03.5	300.650	0.050	-0.580	-0.070
2020/01/31 10:33:03.6	300.660	0.040	-0.540	-0.080
2020/01/31 10:33:03.7	300.670	0.030	-0.510	-0.090
2020/01/31 10:33:03.8	300.680	0.010	-0.470	-0.100
2020/01/31 10:33:03.9	300.680	0.000	-0.430	-0.100
2020/01/31 10:33:04.0	300.690	-0.010	-0.400	-0.100
2020/01/31 10:33:04.1	300.690	-0.030	-0.360	-0.100
2020/01/31 10:33:04.2	300.690	-0.040	-0.320	-0.100
2020/01/31 10:33:04.3	300.700	-0.050	-0.280	-0.100
2020/01/31 10:33:04.4	300.710	-0.070	-0.240	-0.090
2020/01/31 10:33:04.5	300.710	-0.080	-0.210	-0.080
2020/01/31 10:33:04.6	300.710	-0.100	-0.170	-0.070
2020/01/31 10:33:04.7	300.710	-0.110	-0.130	-0.060
2020/01/31 10:33:04.8	300.710	-0.130	-0.100	-0.050
2020/01/31 10:33:04.9	300.700	-0.140	-0.060	-0.030
2020/01/31 10:33:05.0	300.700	-0.160	-0.030	-0.020
2020/01/31 10:33:05.1	300.700	-0.170	-0.000	-0.000
2020/01/31 10:33:05.2	300.700	-0.180	0.030	0.020
2020/01/31 10:33:05.3	300.690	-0.200	0.050	0.040
2020/01/31 10:33:05.4	300.690	-0.210	0.080	0.060
2020/01/31 10:33:05.5	300.690	-0.220	0.100	0.080
2020/01/31 10:33:05.6	300.690	-0.230	0.120	0.100
2020/01/31 10:33:05.7	300.680	-0.240	0.140	0.130
2020/01/31 10:33:05.8	300.680	-0.250	0.160	0.150
2020/01/31 10:33:05.9	300.680	-0.260	0.170	0.180
2020/01/31 10:33:06.0	300.670	-0.270	0.180	0.200
2020/01/31 10:33:06.1	300.670	-0.270	0.190	0.230
2020/01/31 10:33:06.2	300.670	-0.280	0.200	0.260
2020/01/31 10:33:06.3	300.670	-0.280	0.200	0.280
2020/01/31 10:33:06.4	300.660	-0.280	0.200	0.310
2020/01/31 10:33:06.5	300.660	-0.280	0.200	0.340
2020/01/31 10:33:06.6	300.660	-0.280	0.200	0.360
2020/01/31 10:33:06.7	300.660	-0.280	0.200	0.390
2020/01/31 10:33:06.8	300.660	-0.280	0.190	0.420
2020/01/31 10:33:06.9	300.660	-0.270	0.190	0.450
2020/01/31 10:33:07.0	300.670	-0.260	0.180	0.470
2020/01/31 10:33:07.1	300.670	-0.260	0.170	0.500
2020/01/31 10:33:07.2	300.670	-0.250	0.170	0.530
2020/01/31 10:33:07.3	300.680	-0.230	0.160	0.560
2020/01/31 10:33:07.4	300.680	-0.220	0.150	0.580
2020/01/31 10:33:07.5	300.680	-0.210	0.140	0.610
2020/01/31 10:33:07.6	300.680	-0.200	0.130	0.630
2020/01/31 10:33:07.7	300.690	-0.180	0.120	0.660
2020/01/31 10:33:07.8	300.690	-0.160	0.120	0.680
2020/01/31 10:33:07.9	300.690	-0.150	0.110	0.710
2020/01/31 10:33:08.0	300.700	-0.130	0.100	0.730
2020/01/31 10:33:08.1	300.700	-0.110	0.100	0.750
2020/01/31 10:33:08.2	300.700	-0.090	0.090	0.770
2020/01/31 10:33:08.3	300.710	-0.080	0.090	0.790
2020/01/31 10:33:08.4	300.700	-0.060	0.090	0.810
2020/01/31 10:33:08.5	300.700	-0.040	0.090	0.830
2020/01/31 10:33:08.6	300.700	-0.020	0.080	0.850
2020/01/31 10:33:08.7	300.710	-0.000	0.090	0.860
2020/01/31 10:33:08.8	300.710	0.010	0.090	0.870
2020/01/31 10:33:08.9	300.710	0.030	0.090	0.890
2020/01/31 10:33:09.0	300.710	0.050	0.090	0.900
2020/01/31 10:33:09.1	300.710	0.060	0.090	0.910
2020/01/31 10:33:09.2	300.720	0.080	0.100	0.910
2020/01/31 10:33:09.3	300.720	0.090	0.100	0.920
2020/01/31 10:33:09.4	300.720	0.110	0.110	0.930
2020/01/31 10:33:09.5	300.720	0.120	0.110	0.930
2020/01/31 10:33:09.6	300.710	0.130	0.120	0.930
2020/01/31 10:33:09.7	300.710	0.150	0.120	0.930
2020/01/31 10:33:09.8	300.710	0.160	0.130	0.930
2020/01/31 10:33:09.9	300.710	0.170	0.130	0.930
2020/01/31 10:33:10.0	300.700	0.170	0.130	0.930
2020/01/31 10:33:10.1	300.690	0.180	0.130	0.930
2020/01/31 10:33:10.2	300.690	0.190	0.130	0.920
2020/01/31 10:33:10.3	300.680	0.200	0.130	0.910
2020/01/31 10:33:10.4	300.670	0.200	0.120	0.910
2020/01/31 10:33:10.5	300.660	0.210	0.120	0.900
2020/01/31 10:33:10.6	300.650	0.210	0.110	0.890
2020/01/31 10:33:10.7	300.640	0.220	0.100	0.880
2020/01/31 10:33:10.8	300.620	0.220	0.090	0.870
2020/01/31 10:33:10.9	300.610	0.230	0.070	0.850
2020/01/31 10:33:11.0	300.600	0.230	0.050	0.840
2020/01/31 10:33:11.1	300.590	0.240	0.030	0.820
2020/01/31 10:33:11.2	300.570	0.240	0.010	0.800
2020/01/31 10:33:11.3	300.560	0.250	-0.020	0.780
2020/01/31 10:33:11.4	300.550	0.250	-0.050	0.760
2020/01/31 10:33:11.5	300.540	0.260	-0.090	0.730
2020/01/31 10:33:11.6	300.530	0.260	-0.130	0.710
2020/01/31 10:33:11.7	300.530	0.270	-0.170	0.680
2020/01/31 10:33:11.8	300.520	0.280	-0.210	0.650
2020/01/31 10:33:11.9	300.520	0.280	-0.250	0.620
2020/01/31 10:33:12.0	300.510	0.290	-0.300	0.580
2020/01/31 10:33:12.1	300.510	0.300	-0.350	0.550
2020/01/31 10:33:12.2	300.510	0.310	-0.400	0.510
2020/01/31 10:33:12.3	300.510	0.310	-0.450	0.470
2020/01/31 10:33:12.4	300.510	0.320	-0.510	0.430
2020/01/31 10:33:12.5	300.510	0.320	-0.560	0.390
2020/01/31 10:33:12.6	300.510	0.330	-0.610	0.350
2020/01/31 10:33:12.7	300.520	0.330	-0.660	0.310
2020/01/31 10:33:12.8	300.520	0.340	-0.700	0.270
2020/01/31 10:33:12.9	300.530	0.340	-0.750	0.220
2020/01/31 10:33:13.0	300.530	0.340	-0.790	0.180
2020/01/31 10:33:13.1	300.540	0.340	-0.830	0.140
2020/01/31 10:33:13.2	300.540	0.340	-0.870	0.100
2020/01/31 10:33:13.3	300.550	0.340	-0.910	0.060
2020/01/31 10:33:13.4	300.560	0.340	-0.940	0.020
2020/01/31 10:33:13.5	300.560	0.340	-0.960	-0.010
2020/01/31 10:33:13.6	300.570	0.330	-0.990	-0.050
2020/01/31 10:33:13.7	300.580	0.320	-1.010	-0.080
2020/01/31 10:33:13.8	300.580	0.320	-1.030	-0.110
2020/01/31 10:33:13.9	300.590	0.310	-1.040	-0.140
2020/01/31 10:33:14.0	300.600	0.300	-1.050	-0.170
2020/01/31 10:33:14.1	300.610	0.280	-1.050	-0.200
2020/01/31 10:33:14.2	300.620	0.270	-1.050	-0.220
2020/01/31 10:33:14.3	300.620	0.250	-1.050	-0.240
2020/01/31 10:33:14.4	300.640	0.240	-1.050	-0.260
2020/01/31 10:33:14.5	300.650	0.220	-1.040	-0.270
2020/01/31 10:33:14.6	300.660	0.200	-1.040	-0.290
2020/01/31 10:33:14.7	300.670	0.180	-1.020	-0.300
2020/01/31 10:33:14.8	300.690	0.160	-1.010	-0.310
2020/01/31 10:33:14.9	300.700	0.140	-1.000	-0.320
2020/01/31 10:33:15.0	300.720	0.120	-0.980	-0.330
2020/01/31 10:33:15.1	300.730	0.100	-0.960	-0.340
2020/01/31 10:33:15.2	300.750	0.070	-0.940	-0.350
2020/01/31 10:33:15.3	300.770	0.050	-0.930	-0.350
2020/01/31 10:33:15.4	300.800	0.030	-0.900	-0.350
2020/01/31 10:33:15.5	300.820	0.000	-0.890	-0.360
2020/01/31 10:33:15.6	300.840	-0.020	-0.870	-0.360
2020/01/31 10:33:15.7	300.860	-0.040	-0.850	-0.360
2020/01/31 10:33:15.8	300.890	-0.070	-0.830	-0.350
2020/01/31 10:33:15.9	300.910	-0.090	-0.810	-0.350
2020/01/31 10:33:16.0	300.940	-0.110	-0.790	-0.340
2020/01/31 10:33:16.1	300.960	-0.130	-0.770	-0.340
2020/01/31 10:33:16.2	300.990	-0.150	-0.750	-0.320
2020/01/31 10:33:16.3	301.020	-0.170	-0.720	-0.310
2020/01/31 10:33:16.4	301.050	-0.190	-0.700	-0.300
2020/01/31 10:33:16.5	301.070	-0.210	-0.680	-0.290
2020/01/31 10:33:16.6	301.090	-0.230	-0.650	-0.270
2020/01/31 10:33:16.7	301.110	-0.250	-0.630	-0.250
2020/01/31 10:33:16.8	301.130	-0.260	-0.600	-0.230
2020/01/31 10:33:16.9	301.150	-0.280	-0.570	-0.200
2020/01/31 10:33:17.0	301.170	-0.300	-0.540	-0.180
2020/01/31 10:33:17.1	301.180	-0.310	-0.510	-0.150
2020/01/31 10:33:17.2	301.190	-0.330	-0.480	-0.120
2020/01/31 10:33:17.3	301.200	-0.340	-0.440	-0.090
2020/01/31 10:33:17.4	301.200	-0.350	-0.400	-0.060
2020/01/31 10:33:17.5	301.210	-0.360	-0.360	-0.020
2020/01/31 10:33:17.6	301.210	-0.370	-0.320	0.010
2020/01/31 10:33:17.7	301.210	-0.380	-0.280	0.050
2020/01/31 10:33:17.8	301.210	-0.390	-0.230	0.090
2020/01/31 10:33:17.9	301.210	-0.400	-0.190	0.130
2020/01/31 10:33:18.0	301.210	-0.410	-0.140	0.170
2020/01/31 10:33:18.1	301.200	-0.420	-0.100	0.210
2020/01/31 10:33:18.2	301.190	-0.420	-0.050	0.240
2020/01/31 10:33:18.3	301.190	-0.430	-0.000	0.280
2020/01/31 10:33:18.4	301.170	-0.430	0.040	0.330
2020/01/31 10:33:18.5	301.170	-0.440	0.090	0.360
2020/01/31 10:33:18.6	301.160	-0.440	0.140	0.400
2020/01/31 10:33:18.7	301.150	-0.450	0.180	0.430
2020/01/31 10:33:18.8	301.130	-0.450	0.230	0.470
2020/01/31 10:33:18.9	301.120	-0.450	0.270	0.500
2020/01/31 10:33:19.0	301.110	-0.450	0.320	0.530
2020/01/31 10:33:19.1	301.100	-0.450	0.360	0.560
2020/01/31 10:33:19.2	301.090	-0.450	0.400	0.580
2020/01/31 10:33:19.3	301.070	-0.450	0.440	0.610
2020/01/31 10:33:19.4	301.060	-0.450	0.480	0.630
2020/01/31 10:33:19.5	301.040	-0.440	0.520	0.650
2020/01/31 10:33:19.6	301.030	-0.440	0.560	0.670
2020/01/31 10:33:19.7	301.010	-0.440	0.590	0.690
2020/01/31 10:33:19.8	301.000	-0.430	0.630	0.710
2020/01/31 10:33:19.9	300.980	-0.430	0.660	0.720
2020/01/31 10:33:20.0	300.970	-0.420	0.690	0.740
2020/01/31 10:33:20.1	300.950	-0.410	0.710	0.750
2020/01/31 10:33:20.2	300.930	-0.400	0.740	0.760
2020/01/31 10:33:20.3	300.910	-0.390	0.760	0.770
2020/01/31 10:33:20.4	300.880	-0.390	0.780	0.780
2020/01/31 10:33:20.5	300.870	-0.370	0.800	0.790
2020/01/31 10:33:20.6	300.850	-0.360	0.810	0.800
2020/01/31 10:33:20.7	300.830	-0.350	0.820	0.800
2020/01/31 10:33:20.8	300.810	-0.340	0.820	0.810
2020/01/31 10:33:20.9	300.780	-0.320	0.830	0.810
2020/01/31 10:33:21.0	300.760	-0.310	0.820	0.810
2020/01/31 10:33:21.1	300.740	-0.290	0.820	0.810
2020/01/31 10:33:21.2	300.720	-0.280	0.810	0.810
2020/01/31 10:33:21.3	300.700	-0.260	0.790	0.810
2020/01/31 10:33:21.4	300.670	-0.240	0.770	0.810
2020/01/31 10:33:21.5	300.650	-0.220	0.750	0.800
2020/01/31 10:33:21.6	300.630	-0.200	0.720	0.800
2020/01/31 10:33:21.7	300.600	-0.180	0.690	0.790
2020/01/31 10:33:21.8	300.580	-0.160	0.660	0.790
2020/01/31 10:33:21.9	300.560	-0.140	0.620	0.780
2020/01/31 10:33:22.0	300.540	-0.110	0.580	0.770
2020/01/31 10:33:22.1	300.520	-0.090	0.530	0.760
2020/01/31 10:33:22.2	300.500	-0.060	0.480	0.740
2020/01/31 10:33:22.3	300.480	-0.040	0.430	0.730
2020/01/31 10:33:22.4	300.450	-0.010	0.370	0.710
2020/01/31 10:33:22.5	300.440	0.020	0.310	0.690
2020/01/31 10:33:22.6	300.420	0.040	0.250	0.670
2020/01/31 10:33:22.7	300.410	0.070	0.180	0.650
2020/01/31 10:33:22.8	300.390	0.100	0.120	0.630
2020/01/31 10:33:22.9	300.380	0.130	0.050	0.610
2020/01/31 10:33:23.0	300.370	0.160	-0.020	0.590
2020/01/31 10:33:23.1	300.360	0.190	-0.090	0.570
2020/01/31 10:33:23.2	300.350	0.220	-0.150	0.550
2020/01/31 10:33:23.3	300.340	0.250	-0.220	0.520
2020/01/31 10:33:23.4	300.330	0.280	-0.290	0.500
2020/01/31 10:33:23.5	300.320	0.310	-0.360	0.480
2020/01/31 10:33:23.6	300.320	0.340	-0.420	0.460
2020/01/31 10:33:23.7	300.320	0.370	-0.490	0.430
2020/01/31 10:33:23.8	300.310	0.400	-0.550	0.410
2020/01/31 10:33:23.9	300.320	0.420	-0.610	0.390
2020/01/31 10:33:24.0	300.320	0.450	-0.660	0.370
2020/01/31 10:33:24.1	300.320	0.480	-0.720	0.350
2020/01/31 10:33:24.2	300.320	0.500	-0.770	0.330
2020/01/31 10:33:24.3	300.330	0.530	-0.820	0.310
2020/01/31 10:33:24.4	300.340	0.550	-0.860	0.290
2020/01/31 10:33:24.5	300.350	0.570	-0.900	0.270
2020/01/31 10:33:24.6	300.360	0.590	-0.940	0.250
2020/01/31 10:33:24.7	300.370	0.610	-0.970	0.230
2020/01/31 10:33:24.8	300.380	0.620	-1.000	0.210
2020/01/31 10:33:24.9	300.390	0.630	-1.030	0.190
2020/01/31 10:33:25.0	300.400	0.650	-1.050	0.170
2020/01/31 10:33:25.1	300.410	0.660	-1.070	0.150
2020/01/31 10:33:25.2	300.430	0.660	-1.090	0.130
2020/01/31 10:33:25.3	300.450	0.670	-1.100	0.110
2020/01/31 10:33:25.4	300.460	0.670	-1.110	0.090
2020/01/31 10:33:25.5	300.480	0.670	-1.120	0.070
2020/01/31 10:33:25.6	300.500	0.670	-1.130	0.050
2020/01/31 10:33:25.7	300.520	0.660	-1.130	0.030
2020/01/31 10:33:25.8	300.540	0.660	-1.130	0.010
2020/01/31 10:33:25.9	300.560	0.650	-1.120	-0.010
2020/01/31 10:33:26.0	300.590	0.630	-1.120	-0.030
2020/01/31 10:33:26.1	300.610	0.620	-1.110	-0.050
2020/01/31 10:33:26.2	300.630	0.600	-1.100	-0.060
2020/01/31 10:33:26.3	300.660	0.580	-1.090	-0.080
2020/01/31 10:33:26.4	300.700	0.560	-1.080	-0.100
2020/01/31 10:33:26.5	300.730	0.530	-1.060	-0.110
2020/01/31 10:33:26.6	300.750	0.510	-1.050	-0.130
2020/01/31 10:33:26.7	300.780	0.480	-1.030	-0.150
2020/01/31 10:33:26.8	300.810	0.450	-1.010	-0.160
2020/01/31 10:33:26.9	300.830	0.420	-0.990	-0.170
2020/01/31 10:33:27.0	300.860	0.380	-0.970	-0.190
2020/01/31 10:33:27.1	300.890	0.350	-0.950	-0.200
2020/01/31 10:33:27.2	300.920	0.310	-0.930	-0.210
2020/01/31 10:33:27.3	300.940	0.270	-0.900	-0.220
2020/01/31 10:33:27.4	300.980	0.240	-0.880	-0.220
2020/01/31 10:33:27.5	301.010	0.200	-0.850	-0.230
2020/01/31 10:33:27.6	301.040	0.160	-0.820	-0.230
2020/01/31 10:33:27.7	301.060	0.120	-0.800	-0.240
2020/01/31 10:33:27.8	301.090	0.080	-0.770	-0.240
2020/01/31 10:33:27.9	301.120	0.040	-0.740	-0.240
2020/01/31 10:33:28.0	301.140	-0.000	-0.710	-0.240
2020/01/31 10:33:28.1	301.160	-0.040	-0.690	-0.230
2020/01/31 10:33:28.2	301.190	-0.080	-0.660	-0.230
2020/01/31 10:33:28.3	301.210	-0.120	-0.630	-0.220
2020/01/31 10:33:28.4	301.220	-0.150	-0.600	-0.210
2020/01/31 10:33:28.5	301.240	-0.190	-0.570	-0.200
2020/01/31 10:33:28.6	301.260	-0.220	-0.530	-0.190
2020/01/31 10:33:28.7	301.280	-0.250	-0.500	-0.170
2020/01/31 10:33:28.8	301.290	-0.290	-0.470	-0.160
2020/01/31 10:33:28.9	301.310	-0.310	-0.440	-0.140
2020/01/31 10:33:29.0	301.320	-0.340	-0.400	-0.120
2020/01/31 10:33:29.1	301.320	-0.370	-0.370	-0.090
2020/01/31 10:33:29.2	301.330	-0.390	-0.330	-0.060
2020/01/31 10:33:29.3	301.340	-0.410	-0.300	-0.030
2020/01/31 10:33:29.4	301.340	-0.430	-0.260	-0.000
2020/01/31 10:33:29.5	301.340	-0.450	-0.220	0.030
2020/01/31 10:33:29.6	301.340	-0.470	-0.180	0.070
2020/01/31 10:33:29.7	301.330	-0.480	-0.140	0.110
2020/01/31 10:33:29.8	301.330	-0.500	-0.100	0.140
2020/01/31 10:33:29.9	301.320	-0.510	-0.060	0.180
2020/01/31 10:33:30.0	301.310	-0.510	-0.020	0.220
2020/01/31 10:33:30.1	301.300	-0.520	0.020	0.260
2020/01/31 10:33:30.2	301.290	-0.520	0.060	0.300
2020/01/31 10:33:30.3	301.280	-0.530	0.100	0.350
2020/01/31 10:33:30.4	301.270	-0.530	0.140	0.390
2020/01/31 10:33:30.5	301.250	-0.530	0.180	0.430
2020/01/31 10:33:30.6	301.230	-0.520	0.220	0.470
2020/01/31 10:33:30.7	301.220	-0.520	0.260	0.510
2020/01/31 10:33:30.8	301.200	-0.510	0.290	0.550
2020/01/31 10:33:30.9	301.170	-0.500	0.330	0.590
2020/01/31 10:33:31.0	301.150	-0.490	0.370	0.640
2020/01/31 10:33:31.1	301.130	-0.480	0.400	0.680
2020/01/31 10:33:31.2	301.100	-0.470	0.430	0.710
2020/01/31 10:33:31.3	301.080	-0.450	0.470	0.750
2020/01/31 10:33:31.4	301.040	-0.440	0.500	0.790
2020/01/31 10:33:31.5	301.010	-0.420	0.520	0.830
2020/01/31 10:33:31.6	300.980	-0.400	0.550	0.860
2020/01/31 10:33:31.7	300.950	-0.380	0.580	0.900
2020/01/31 10:33:31.8	300.920	-0.360	0.600	0.930
2020/01/31 10:33:31.9	300.890	-0.340	0.620	0.960
2020/01/31 10:33:32.0	300.860	-0.320	0.640	1.000
2020/01/31 10:33:32.1	300.820	-0.290	0.650	1.030
2020/01/31 10:33:32.2	300.790	-0.270	0.660	1.050
2020/01/31 10:33:32.3	300.760	-0.250	0.670	1.080
2020/01/31 10:33:32.4	300.710	-0.220	0.670	1.100
2020/01/31 10:33:32.5	300.680	-0.200	0.680	1.120
2020/01/31 10:33:32.6	300.650	-0.180	0.680	1.140
2020/01/31 10:33:32.7	300.620	-0.150	0.670	1.150
2020/01/31 10:33:32.8	300.590	-0.130	0.660	1.160
2020/01/31 10:33:32.9	300.560	-0.100	0.650	1.170
2020/01/31 10:33:33.0	300.530	-0.080	0.630	1.170
2020/01/31 10:33:33.1	300.500	-0.060	0.610	1.170
2020/01/31 10:33:33.2	300.470	-0.040	0.590	1.170
2020/01/31 10:33:33.3	300.450	-0.010	0.560	1.160
2020/01/31 10:33:33.4	300.430	0.010	0.520	1.140
2020/01/31 10:33:33.5	300.400	0.030	0.480	1.130
2020/01/31 10:33:33.6	300.390	0.050	0.440	1.110
2020/01/31 10:33:33.7	300.370	0.060	0.400	1.090
2020/01/31 10:33:33.8	300.350	0.080	0.350	1.070
2020/01/31 10:33:33.9	300.340	0.100	0.300	1.040
2020/01/31 10:33:34.0	300.330	0.110	0.250	1.000
2020/01/31 10:33:34.1	300.330	0.130	0.190	0.970
2020/01/31 10:33:34.2	300.320	0.140	0.140	0.930
2020/01/31 10:33:34.3	300.320	0.150	0.080	0.880
2020/01/31 10:33:34.4	300.330	0.160	0.010	0.840
2020/01/31 10:33:34.5	300.340	0.170	-0.050	0.790
2020/01/31 10:33:34.6	300.350	0.180	-0.110	0.730
2020/01/31 10:33:34.7	300.360	0.190	-0.180	0.680
2020/01/31 10:33:34.8	300.370	0.200	-0.240	0.620
2020/01/31 10:33:34.9	300.390	0.200	-0.310	0.560
2020/01/31 10:33:35.0	300.410	0.210	-0.370	0.500
2020/01/31 10:33:35.1	300.430	0.210	-0.430	0.440
2020/01/31 10:33:35.2	300.460	0.210	-0.490	0.380
2020/01/31 10:33:35.3	300.490	0.220	-0.550	0.310
2020/01/31 10:33:35.4	300.520	0.220	-0.600	0.250
2020/01/31 10:33:35.5	300.550	0.220	-0.650	0.190
2020/01/31 10:33:35.6	300.580	0.220	-0.700	0.130
2020/01/31 10:33:35.7	300.610	0.220	-0.750	0.070
2020/01/31 10:33:35.8	300.650	0.210	-0.790	0.020
2020/01/31 10:33:35.9	300.680	0.210	-0.830	-0.040
2020/01/31 10:33:36.0	300.710	0.210	-0.860	-0.090
2020/01/31 10:33:36.1	300.750	0.200	-0.890	-0.130
2020/01/31 10:33:36.2	300.780	0.200	-0.910	-0.180
2020/01/31 10:33:36.3	300.810	0.190	-0.930	-0.220
2020/01/31 10:33:36.4	300.840	0.190	-0.950	-0.250
2020/01/31 10:33:36.5	300.870	0.180	-0.960	-0.280
2020/01/31 10:33:36.6	300.900	0.170	-0.960	-0.310
2020/01/31 10:33:36.7	300.920	0.160	-0.960	-0.330
2020/01/31 10:33:36.8	300.950	0.150	-0.960	-0.350
2020/01/31 10:33:36.9	300.970	0.140	-0.950	-0.360
2020/01/31 10:33:37.0	300.990	0.130	-0.930	-0.370
2020/01/31 10:33:37.1	301.000	0.120	-0.920	-0.380
2020/01/31 10:33:37.2	301.020	0.110	-0.900	-0.380
2020/01/31 10:33:37.3	301.040	0.100	-0.870	-0.370
2020/01/31 10:33:37.4	301.050	0.090	-0.850	-0.360
2020/01/31 10:33:37.5	301.060	0.080	-0.820	-0.350
2020/01/31 10:33:37.6	301.070	0.060	-0.790	-0.330
2020/01/31 10:33:37.7	301.080	0.050	-0.760	-0.320
2020/01/31 10:33:37.8	301.090	0.040	-0.720	-0.300
2020/01/31 10:33:37.9	301.100	0.030	-0.690	-0.270
2020/01/31 10:33:38.0	301.100	0.010	-0.650	-0.250
2020/01/31 10:33:38.1	301.100	0.000	-0.610	-0.220
2020/01/31 10:33:38.2	301.110	-0.010	-0.570	-0.190
2020/01/31 10:33:38.3	301.110	-0.020	-0.530	-0.160
2020/01/31 10:33:38.4	301.120	-0.030	-0.490	-0.130
2020/01/31 10:33:38.5	301.120	-0.040	-0.450	-0.100
2020/01/31 10:33:38.6	301.120	-0.050	-0.420	-0.060
2020/01/31 10:33:38.7	301.110	-0.050	-0.380	-0.030
2020/01/31 10:33:38.8	301.110	-0.060	-0.340	0.010
2020/01/31 10:33:38.9	301.100	-0.070	-0.310	0.040
2020/01/31 10:33:39.0	301.100	-0.070	-0.270	0.080
2020/01/31 10:33:39.1	301.090	-0.080	-0.240	0.120
2020/01/31 10:33:39.2	301.090	-0.080	-0.210	0.150
2020/01/31 10:33:39.3	301.080	-0.090	-0.180	0.190
2020/01/31 10:33:39.4	301.080	-0.090	-0.150	0.230
2020/01/31 10:33:39.5	301.070	-0.090	-0.120	0.260
2020/01/31 10:33:39.6	301.060	-0.090	-0.100	0.290
2020/01/31 10:33:39.7	301.050	-0.090	-0.080	0.330
2020/01/31 10:33:39.8	301.050	-0.090	-0.060	0.360
2020/01/31 10:33:39.9	301.040	-0.090	-0.040	0.390
2020/01/31 10:33:40.0	301.030	-0.090	-0.020	0.420
2020/01/31 10:33:40.1	301.030	-0.080	-0.010	0.450
2020/01/31 10:33:40.2	301.020	-0.080	0.010	0.480
2020/01/31 10:33:40.3	301.020	-0.070	0.020	0.500
2020/01/31 10:33:40.4	301.010	-0.060	0.030	0.530
2020/01/31 10:33:40.5	301.010	-0.060	0.030	0.550
2020/01/31 10:33:40.6	301.000	-0.050	0.040	0.570
2020/01/31 10:33:40.7	301.000	-0.040	0.040	0.590
2020/01/31 10:33:40.8	301.000	-0.030	0.040	0.600
2020/01/31 10:33:40.9	300.990	-0.020	0.040	0.610
2020/01/31 10:33:41.0	300.990	-0.010	0.030	0.630
2020/01/31 10:33:41.1	300.990	0.000	0.020	0.630
2020/01/31 10:33:41.2	300.990	0.020	0.010	0.640
2020/01/31 10:33:41.3	300.990	0.030	0.000	0.640
2020/01/31 10:33:41.4	300.970	0.040	-0.010	0.640
2020/01/31 10:33:41.5	300.970	0.060	-0.030	0.640
2020/01/31 10:33:41.6	300.970	0.070	-0.050	0.640
2020/01/31 10:33:41.7	300.970	0.090	-0.060	0.630
2020/01/31 10:33:41.8	300.970	0.100	-0.080	0.630
2020/01/31 10:33:41.9	300.970	0.120	-0.100	0.620
2020/01/31 10:33:42.0	300.980	0.130	-0.120	0.610
2020/01/31 10:33:42.1	300.980	0.150	-0.150	0.590
2020/01/31 10:33:42.2	300.980	0.170	-0.170	0.580
2020/01/31 10:33:42.3	300.990	0.180	-0.190	0.560
2020/01/31 10:33:42.4	300.990	0.200	-0.220	0.540
2020/01/31 10:33:42.5	301.000	0.210	-0.240	0.530
2020/01/31 10:33:42.6	301.000	0.230	-0.260	0.510
2020/01/31 10:33:42.7	301.010	0.240	-0.290	0.490
2020/01/31 10:33:42.8	301.020	0.250	-0.310	0.470
2020/01/31 10:33:42.9	301.030	0.270	-0.330	0.450
2020/01/31 10:33:43.0	301.040	0.280	-0.360	0.430
2020/01/31 10:33:43.1	301.050	0.290	-0.380	0.410
2020/01/31 10:33:43.2	301.060	0.300	-0.400	0.390
2020/01/31 10:33:43.3	301.080	0.310	-0.420	0.370
2020/01/31 10:33:43.4	301.090	0.310	-0.440	0.350
2020/01/31 10:33:43.5	301.110	0.320	-0.460	0.330
2020/01/31 10:33:43.6	301.120	0.320	-0.470	0.310
2020/01/31 10:33:43.7	301.140	0.330	-0.490	0.290
2020/01/31 10:33:43.8	301.160	0.330	-0.500	0.270
2020/01/31 10:33:43.9	301.180	0.330	-0.520	0.240
2020/01/31 10:33:44.0	301.190	0.330	-0.530	0.220
2020/01/31 10:33:44.1	301.220	0.320	-0.540	0.200
2020/01/31 10:33:44.2	301.240	0.320	-0.540	0.180
2020/01/31 10:33:44.3	301.260	0.310	-0.550	0.160
2020/01/31 10:33:44.4	301.280	0.300	-0.550	0.140
2020/01/31 10:33:44.5	301.300	0.300	-0.550	0.110
2020/01/31 10:33:44.6	301.330	0.290	-0.550	0.090
2020/01/31 10:33:44.7	301.350	0.270	-0.540	0.070
2020/01/31 10:33:44.8	301.380	0.260	-0.540	0.050
2020/01/31 10:33:44.9	301.400	0.240	-0.530	0.030
2020/01/31 10:33:45.0	301.430	0.230	-0.520	0.020
2020/01/31 10:33:45.1	301.450	0.210	-0.500	-0.000
2020/01/31 10:33:45.2	301.470	0.190	-0.490	-0.020
2020/01/31 10:33:45.3	301.490	0.170	-0.470	-0.040
2020/01/31 10:33:45.4	301.510	0.150	-0.450	-0.050
2020/01/31 10:33:45.5	301.530	0.130	-0.420	-0.060
2020/01/31 10:33:45.6	301.550	0.110	-0.400	-0.070
2020/01/31 10:33:45.7	301.570	0.080	-0.370	-0.080
2020/01/31 10:33:45.8	301.580	0.060	-0.340	-0.090
2020/01/31 10:33:45.9	301.590	0.030	-0.310	-0.090
2020/01/31 10:33:46.0	301.600	0.010	-0.280	-0.090
2020/01/31 10:33:46.1	301.610	-0.020	-0.240	-0.090
2020/01/31 10:33:46.2	301.610	-0.040	-0.210	-0.090
2020/01/31 10:33:46.3	301.620	-0.070	-0.180	-0.090
2020/01/31 10:33:46.4	301.620	-0.100	-0.140	-0.080
2020/01/31 10:33:46.5	301.620	-0.120	-0.110	-0.070
2020/01/31 10:33:46.6	301.620	-0.150	-0.070	-0.060
2020/01/31 10:33:46.7	301.610	-0.170	-0.040	-0.040
2020/01/31 10:33:46.8	301.600	-0.200	-0.010	-0.030
2020/01/31 10:33:46.9	301.590	-0.220	0.030	-0.010
2020/01/31 10:33:47.0	301.580	-0.240	0.060	0.010
2020/01/31 10:33:47.1	301.570	-0.260	0.090	0.040
2020/01/31 10:33:47.2	301.550	-0.280	0.120	0.060
2020/01/31 10:33:47.3	301.540	-0.300	0.150	0.090
2020/01/31 10:33:47.4	301.510	-0.320	0.170	0.120
2020/01/31 10:33:47.5	301.490	-0.340	0.200	0.150
2020/01/31 10:33:47.6	301.470	-0.350	0.220	0.180
2020/01/31 10:33:47.7	301.450	-0.370	0.240	0.210
2020/01/31 10:33:47.8	301.430	-0.380	0.260	0.250
2020/01/31 10:33:47.9	301.410	-0.390	0.280	0.280
2020/01/31 10:33:48.0	301.380	-0.400	0.290	0.310
2020/01/31 10:33:48.1	301.360	-0.410	0.300	0.350
2020/01/31 10:33:48.2	301.340	-0.420	0.310	0.380
2020/01/31 10:33:48.3	301.310	-0.420	0.320	0.420
2020/01/31 10:33:48.4	301.290	-0.430	0.320	0.450
2020/01/31 10:33:48.5	301.260	-0.430	0.320	0.480
2020/01/31 10:33:48.6	301.240	-0.430	0.320	0.510
2020/01/31 10:33:48.7	301.220	-0.430	0.310	0.540
2020/01/31 10:33:48.8	301.190	-0.430	0.310	0.570
2020/01/31 10:33:48.9	301.170	-0.430	0.300	0.590
2020/01/31 10:33:49.0	301.150	-0.430	0.280	0.610
2020/01/31 10:33:49.1	301.130	-0.420	0.270	0.630
2020/01/31 10:33:49.2	301.110	-0.420	0.250	0.650
2020/01/31 10:33:49.3	301.090	-0.410	0.230	0.660
2020/01/31 10:33:49.4	301.060	-0.400	0.210	0.670
2020/01/31 10:33:49.5	301.040	-0.390	0.180	0.680
2020/01/31 10:33:49.6	301.020	-0.380	0.160	0.690
2020/01/31 10:33:49.7	301.000	-0.370	0.130	0.690
2020/01/31 10:33:49.8	300.980	-0.360	0.100	0.690
2020/01/31 10:33:49.9	300.960	-0.350	0.060	0.690
2020/01/31 10:33:50.0	300.950	-0.330	0.030	0.680
2020/01/31 10:33:50.1	300.930	-0.320	-0.000	0.670
2020/01/31 10:33:50.2	300.920	-0.310	-0.040	0.660
2020/01/31 10:33:50.3	300.900	-0.290	-0.070	0.650
2020/01/31 10:33:50.4	300.890	-0.270	-0.110	0.630
2020/01/31 10:33:50.5	300.880	-0.260	-0.150	0.610
2020/01/31 10:33:50.6	300.870	-0.240	-0.180	0.590
2020/01/31 10:33:50.7	300.860	-0.220	-0.220	0.570
2020/01/31 10:33:50.8	300.850	-0.200	-0.250	0.550
2020/01/31 10:33:50.9	300.840	-0.190	-0.290	0.520
2020/01/31 10:33:51.0	300.840	-0.170	-0.320	0.500
2020/01/31 10:33:51.1	300.840	-0.150	-0.360	0.470
2020/01/31 10:33:51.2	300.830	-0.130	-0.390	0.450
2020/01/31 10:33:51.3	300.830	-0.110	-0.420	0.420
2020/01/31 10:33:51.4	300.830	-0.090	-0.460	0.390
2020/01/31 10:33:51.5	300.830	-0.070	-0.490	0.370
2020/01/31 10:33:51.6	300.830	-0.050	-0.520	0.340
2020/01/31 10:33:51.7	300.840	-0.020	-0.540	0.310
2020/01/31 10:33:51.8	300.850	-0.000	-0.570	0.290
2020/01/31 10:33:51.9	300.860	0.020	-0.590	0.260
2020/01/31 10:33:52.0	300.870	0.040	-0.610	0.240
2020/01/31 10:33:52.1	300.880	0.060	-0.630	0.220
2020/01/31 10:33:52.2	300.890	0.080	-0.650	0.190
2020/01/31 10:33:52.3	300.910	0.100	-0.670	0.170
2020/01/31 10:33:52.4	300.930	0.120	-0.680	0.150
2020/01/31 10:33:52.5	300.950	0.140	-0.690	0.140
2020/01/31 10:33:52.6	300.960	0.160	-0.700	0.120
2020/01/31 10:33:52.7	300.980	0.180	-0.710	0.110
2020/01/31 10:33:52.8	301.000	0.200	-0.710	0.100
2020/01/31 10:33:52.9	301.020	0.220	-0.710	0.090
2020/01/31 10:33:53.0	301.050	0.240	-0.710	0.090
2020/01/31 10:33:53.1	301.070	0.260	-0.710	0.090
2020/01/31 10:33:53.2	301.090	0.280	-0.710	0.090
2020/01/31 10:33:53.3	301.120	0.300	-0.710	0.090
2020/01/31 10:33:53.4	301.150	0.310	-0.700	0.100
2020/01/31 10:33:53.5	301.180	0.330	-0.690	0.100
2020/01/31 10:33:53.6	301.210	0.340	-0.690	0.110
2020/01/31 10:33:53.7	301.230	0.360	-0.680	0.120
2020/01/31 10:33:53.8	301.260	0.370	-0.670	0.130
2020/01/31 10:33:53.9	301.290	0.390	-0.660	0.140
2020/01/31 10:33:54.0	301.310	0.400	-0.650	0.150
2020/01/31 10:33:54.1	301.340	0.410	-0.640	0.170
2020/01/31 10:33:54.2	301.370	0.420	-0.630	0.180
2020/01/31 10:33:54.3	301.390	0.430	-0.630	0.190
2020/01/31 10:33:54.4	301.420	0.440	-0.620	0.210
2020/01/31 10:33:54.5	301.450	0.440	-0.610	0.230
2020/01/31 10:33:54.6	301.470	0.450	-0.600	0.250
2020/01/31 10:33:54.7	301.500	0.450	-0.590	0.270
2020/01/31 10:33:54.8	301.520	0.460	-0.580	0.290
2020/01/31 10:33:54.9	301.540	0.460	-0.560	0.310
2020/01/31 10:33:55.0	301.560	0.460	-0.550	0.330
2020/01/31 10:33:55.1	301.580	0.460	-0.540	0.360
2020/01/31 10:33:55.2	301.600	0.450	-0.530	0.380
2020/01/31 10:33:55.3	301.610	0.450	-0.510	0.410
2020/01/31 10:33:55.4	301.630	0.440	-0.500	0.440
2020/01/31 10:33:55.5	301.650	0.430	-0.480	0.460
2020/01/31 10:33:55.6	301.660	0.420	-0.470	0.490
2020/01/31 10:33:55.7	301.670	0.410	-0.450	0.510
2020/01/31 10:33:55.8	301.680	0.400	-0.430	0.540
2020/01/31 10:33:55.9	301.680	0.380	-0.410	0.560
2020/01/31 10:33:56.0	301.690	0.360	-0.390	0.580
2020/01/31 10:33:56.1	301.690	0.340	-0.370	0.600
2020/01/31 10:33:56.2	301.700	0.320	-0.350	0.620
2020/01/31 10:33:56.3	301.700	0.300	-0.330	0.640
2020/01/31 10:33:56.4	301.690	0.270	-0.300	0.660
2020/01/31 10:33:56.5	301.700	0.250	-0.280	0.670
2020/01/31 10:33:56.6	301.700	0.220	-0.250	0.680
2020/01/31 10:33:56.7	301.700	0.190	-0.230	0.700
2020/01/31 10:33:56.8	301.700	0.160	-0.200	0.710
2020/01/31 10:33:56.9	301.700	0.130	-0.180	0.710
2020/01/31 10:33:57.0	301.700	0.100	-0.150	0.720
2020/01/31 10:33:57.1	301.700	0.070	-0.120	0.720
2020/01/31 10:33:57.2	301.690	0.030	-0.100	0.730
2020/01/31 10:33:57.3	301.690	0.000	-0.070	0.730
2020/01/31 10:33:57.4	301.690	-0.030	-0.040	0.730
2020/01/31 10:33:57.5	301.690	-0.060	-0.020	0.730
2020/01/31 10:33:57.6	301.680	-0.090	0.010	0.730
2020/01/31 10:33:57.7	301.680	-0.120	0.040	0.730
2020/01/31 10:33:57.8	301.670	-0.160	0.070	0.730
2020/01/31 10:33:57.9	301.670	-0.190	0.090	0.720
2020/01/31 10:33:58.0	301.660	-0.210	0.120	0.710
2020/01/31 10:33:58.1	301.660	-0.240	0.140	0.710
2020/01/31 10:33:58.2	301.650	-0.270	0.170	0.700
2020/01/31 10:33:58.3	301.640	-0.290	0.190	0.690
2020/01/31 10:33:58.4	301.630	-0.310	0.210	0.670
2020/01/31 10:33:58.5	301.620	-0.330	0.220	0.660
2020/01/31 10:33:58.6	301.610	-0.350	0.240	0.640
2020/01/31 10:33:58.7	301.600	-0.370	0.250	0.620
2020/01/31 10:33:58.8	301.590	-0.380	0.260	0.600
2020/01/31 10:33:58.9	301.580	-0.390	0.270	0.580
2020/01/31 10:33:59.0	301.570	-0.400	0.270	0.560
2020/01/31 10:33:59.1	301.560	-0.410	0.280	0.530
2020/01/31 10:33:59.2	301.550	-0.410	0.280	0.510
2020/01/31 10:33:59.3	301.540	-0.410	0.280	0.480
2020/01/31 10:33:59.4	301.530	-0.410	0.270	0.450
2020/01/31 10:33:59.5	301.520	-0.410	0.260	0.430
2020/01/31 10:33:59.6	301.510	-0.400	0.250	0.400
2020/01/31 10:33:59.7	301.500	-0.390	0.240	0.370
2020/01/31 10:33:59.8	301.490	-0.380	0.230	0.340
2020/01/31 10:33:59.9	301.480	-0.360	0.210	0.310
2020/01/31 10:34:00.0	301.460	-0.350	0.190	0.280
2020/01/31 10:34:00.1	301.450	-0.330	0.180	0.250
2020/01/31 10:34:00.2	301.430	-0.310	0.160	0.220
2020/01/31 10:34:00.3	301.420	-0.280	0.140	0.190
2020/01/31 10:34:00.4	301.390	-0.260	0.110	0.160
2020/01/31 10:34:00.5	301.380	-0.230	0.090	0.140
2020/01/31 10:34:00.6	301.360	-0.210	0.070	0.110
2020/01/31 10:34:00.7	301.340	-0.180	0.040	0.090
2020/01/31 10:34:00.8	301.330	-0.150	0.020	0.070
2020/01/31 10:34:00.9	301.310	-0.120	-0.000	0.050
2020/01/31 10:34:01.0	301.290	-0.090	-0.030	0.030
2020/01/31 10:34:01.1	301.270	-0.060	-0.050	0.010
2020/01/31 10:34:01.2	301.250	-0.030	-0.070	-0.000
2020/01/31 10:34:01.3	301.240	0.000	-0.100	-0.020
2020/01/31 10:34:01.4	301.210	0.030	-0.120	-0.030
2020/01/31 10:34:01.5	301.190	0.060	-0.140	-0.040
2020/01/31 10:34:01.6	301.170	0.090	-0.170	-0.050
2020/01/31 10:34:01.7	301.150	0.120	-0.190	-0.050
2020/01/31 10:34:01.8	301.130	0.140	-0.200	-0.060
2020/01/31 10:34:01.9	301.110	0.170	-0.220	-0.060
2020/01/31 10:34:02.0	301.100	0.190	-0.240	-0.060
2020/01/31 10:34:02.1	301.080	0.210	-0.260	-0.060
2020/01/31 10:34:02.2	301.060	0.230	-0.270	-0.060
2020/01/31 10:34:02.3	301.050	0.250	-0.280	-0.050
2020/01/31 10:34:02.4	301.040	0.260	-0.290	-0.040
2020/01/31 10:34:02.5	301.030	0.280	-0.300	-0.030
2020/01/31 10:34:02.6	301.020	0.290	-0.320	-0.020
2020/01/31 10:34:02.7	301.010	0.300	-0.330	-0.010
2020/01/31 10:34:02.8	301.000	0.300	-0.330	-0.000
2020/01/31 10:34:02.9	300.990	0.310	-0.340	0.010
2020/01/31 10:34:03.0	300.980	0.310	-0.350	0.020
2020/01/31 10:34:03.1	300.980	0.310	-0.360	0.040
2020/01/31 10:34:03.2	300.980	0.310	-0.360	0.050
2020/01/31 10:34:03.3	300.970	0.310	-0.370	0.070
2020/01/31 10:34:03.4	300.980	0.300	-0.380	0.080
2020/01/31 10:34:03.5	300.980	0.290	-0.380	0.100
2020/01/31 10:34:03.6	300.980	0.280	-0.390	0.120
2020/01/31 10:34:03.7	300.980	0.270	-0.390	0.130
2020/01/31 10:34:03.8	300.990	0.260	-0.390	0.150
2020/01/31 10:34:03.9	300.990	0.240	-0.400	0.170
2020/01/31 10:34:04.0	301.000	0.220	-0.400	0.190
2020/01/31 10:34:04.1	301.000	0.210	-0.410	0.200
2020/01/31 10:34:04.2	301.010	0.190	-0.410	0.220
2020/01/31 10:34:04.3	301.020	0.170	-0.420	0.240
2020/01/31 10:34:04.4	301.030	0.150	-0.420	0.260
2020/01/31 10:34:04.5	301.040	0.130	-0.430	0.270
2020/01/31 10:34:04.6	301.050	0.110	-0.430	0.290
2020/01/31 10:34:04.7	301.060	0.090	-0.430	0.310
2020/01/31 10:34:04.8	301.080	0.070	-0.440	0.320
2020/01/31 10:34:04.9	301.090	0.050	-0.440	0.340
2020/01/31 10:34:05.0	301.110	0.030	-0.450	0.350
2020/01/31 10:34:05.1	301.120	0.010	-0.450	0.360
2020/01/31 10:34:05.2	301.140	-0.000	-0.460	0.370
2020/01/31 10:34:05.3	301.160	-0.020	-0.470	0.380
2020/01/31 10:34:05.4	301.170	-0.040	-0.470	0.390
2020/01/31 10:34:05.5	301.200	-0.050	-0.480	0.390
2020/01/31 10:34:05.6	301.220	-0.070	-0.490	0.400
2020/01/31 10:34:05.7	301.240	-0.080	-0.500	0.400
2020/01/31 10:34:05.8	301.270	-0.090	-0.510	0.400
2020/01/31 10:34:05.9	301.300	-0.110	-0.520	0.400
2020/01/31 10:34:06.0	301.320	-0.120	-0.530	0.400
2020/01/31 10:34:06.1	301.350	-0.130	-0.540	0.390
2020/01/31 10:34:06.2	301.380	-0.140	-0.550	0.390
2020/01/31 10:34:06.3	301.410	-0.140	-0.560	0.380
2020/01/31 10:34:06.4	301.440	-0.150	-0.570	0.370
2020/01/31 10:34:06.5	301.470	-0.160	-0.580	0.360
2020/01/31 10:34:06.6	301.500	-0.160	-0.590	0.350
2020/01/31 10:34:06.7	301.530	-0.170	-0.600	0.340
2020/01/31 10:34:06.8	301.550	-0.180	-0.610	0.330
2020/01/31 10:34:06.9	301.580	-0.180	-0.620	0.320
2020/01/31 10:34:07.0	301.610	-0.180	-0.630	0.310
2020/01/31 10:34:07.1	301.640	-0.190	-0.640	0.290
2020/01/31 10:34:07.2	301.670	-0.190	-0.640	0.280
2020/01/31 10:34:07.3	301.690	-0.190	-0.650	0.270
2020/01/31 10:34:07.4	301.720	-0.200	-0.650	0.250
2020/01/31 10:34:07.5	301.750	-0.200	-0.650	0.240
2020/01/31 10:34:07.6	301.770	-0.200	-0.650	0.230
2020/01/31 10:34:07.7	301.790	-0.210	-0.640	0.210
2020/01/31 10:34:07.8	301.810	-0.210	-0.640	0.200
2020/01/31 10:34:07.9	301.830	-0.210	-0.630	0.180
2020/01/31 10:34:08.0	301.850	-0.220	-0.620	0.170
2020/01/31 10:34:08.1	301.860	-0.220	-0.610	0.160
2020/01/31 10:34:08.2	301.880	-0.220	-0.590	0.140
2020/01/31 10:34:08.3	301.890	-0.220	-0.580	0.130
2020/01/31 10:34:08.4	301.900	-0.230	-0.560	0.110
2020/01/31 10:34:08.5	301.910	-0.230	-0.530	0.100
2020/01/31 10:34:08.6	301.920	-0.230	-0.510	0.090
2020/01/31 10:34:08.7	301.930	-0.230	-0.480	0.070
2020/01/31 10:34:08.8	301.930	-0.230	-0.460	0.060
2020/01/31 10:34:08.9	301.930	-0.230	-0.420	0.040
2020/01/31 10:34:09.0	301.930	-0.230	-0.390	0.030
2020/01/31 10:34:09.1	301.930	-0.230	-0.360	0.020
2020/01/31 10:34:09.2	301.930	-0.230	-0.330	0.010
2020/01/31 10:34:09.3	301.920	-0.230	-0.290	-0.000
2020/01/31 10:34:09.4	301.930	-0.230	-0.260	-0.010
2020/01/31 10:34:09.5	301.920	-0.230	-0.220	-0.020
2020/01/31 10:34:09.6	301.910	-0.220	-0.190	-0.030
2020/01/31 10:34:09.7	301.900	-0.220	-0.150	-0.040
2020/01/31 10:34:09.8	301.890	-0.210	-0.110	-0.040
2020/01/31 10:34:09.9	301.880	-0.200	-0.080	-0.050
2020/01/31 10:34:10.0	301.860	-0.200	-0.040	-0.050
2020/01/31 10:34:10.1	301.850	-0.190	-0.010	-0.050
2020/01/31 10:34:10.2	301.830	-0.180	0.030	-0.060
2020/01/31 10:34:10.3	301.820	-0.160	0.060	-0.050
2020/01/31 10:34:10.4	301.810	-0.150	0.090	-0.060
2020/01/31 10:34:10.5	301.790	-0.140	0.120	-0.050
2020/01/31 10:34:10.6	301.770	-0.120	0.150	-0.040
2020/01/31 10:34:10.7	301.740	-0.100	0.180	-0.030
2020/01/31 10:34:10.8	301.720	-0.090	0.210	-0.020
2020/01/31 10:34:10.9	301.700	-0.070	0.230	-0.010
2020/01/31 10:34:11.0	301.670	-0.050	0.260	0.010
2020/01/31 10:34:11.1	301.650	-0.030	0.280	0.020
2020/01/31 10:34:11.2	301.620	-0.010	0.300	0.040
2020/01/31 10:34:11.3	301.590	0.010	0.320	0.060
2020/01/31 10:34:11.4	301.570	0.030	0.330	0.090
2020/01/31 10:34:11.5	301.540	0.050	0.340	0.110
2020/01/31 10:34:11.6	301.510	0.080	0.350	0.140
2020/01/31 10:34:11.7	301.480	0.100	0.360	0.170
2020/01/31 10:34:11.8	301.450	0.120	0.360	0.190
2020/01/31 10:34:11.9	301.420	0.140	0.360	0.220
2020/01/31 10:34:12.0	301.380	0.160	0.360	0.250
2020/01/31 10:34:12.1	301.350	0.180	0.350	0.280
2020/01/31 10:34:12.2	301.320	0.200	0.340	0.310
2020/01/31 10:34:12.3	301.300	0.220	0.330	0.340
2020/01/31 10:34:12.4	301.250	0.240	0.310	0.360
2020/01/31 10:34:12.5	301.230	0.260	0.300	0.380
2020/01/31 10:34:12.6	301.200	0.270	0.280	0.410
2020/01/31 10:34:12.7	301.180	0.290	0.250	0.430
2020/01/31 10:34:12.8	301.150	0.300	0.230	0.450
2020/01/31 10:34:12.9	301.130	0.320	0.200	0.470
2020/01/31 10:34:13.0	301.110	0.330	0.170	0.490
2020/01/31 10:34:13.1	301.100	0.340	0.130	0.500
2020/01/31 10:34:13.2	301.080	0.350	0.100	0.520
2020/01/31 10:34:13.3	301.070	0.360	0.060	0.530
2020/01/31 10:34:13.4	301.060	0.360	0.030	0.540
2020/01/31 10:34:13.5	301.050	0.370	-0.010	0.550
2020/01/31 10:34:13.6	301.050	0.370	-0.040	0.560
2020/01/31 10:34:13.7	301.040	0.380	-0.080	0.560
2020/01/31 10:34:13.8	301.040	0.380	-0.120	0.560
2020/01/31 10:34:13.9	301.050	0.380	-0.150	0.560
2020/01/31 10:34:14.0	301.050	0.380	-0.190	0.560
2020/01/31 10:34:14.1	301.060	0.370	-0.220	0.560
2020/01/31 10:34:14.2	301.070	0.370	-0.260	0.560
2020/01/31 10:34:14.3	301.080	0.370	-0.290	0.550
2020/01/31 10:34:14.4	301.090	0.360	-0.320	0.540
2020/01/31 10:34:14.5	301.110	0.350	-0.350	0.530
2020/01/31 10:34:14.6	301.120	0.340	-0.370	0.520
2020/01/31 10:34:14.7	301.150	0.330	-0.400	0.500
2020/01/31 10:34:14.8	301.170	0.320	-0.420	0.490
2020/01/31 10:34:14.9	301.190	0.310	-0.430	0.470
2020/01/31 10:34:15.0	301.220	0.300	-0.450	0.450
2020/01/31 10:34:15.1	301.240	0.280	-0.460	0.430
2020/01/31 10:34:15.2	301.270	0.270	-0.470	0.410
2020/01/31 10:34:15.3	301.300	0.250	-0.480	0.380
2020/01/31 10:34:15.4	301.330	0.240	-0.480	0.360
2020/01/31 10:34:15.5	301.350	0.220	-0.480	0.340
2020/01/31 10:34:15.6	301.380	0.200	-0.480	0.320
2020/01/31 10:34:15.7	301.410	0.180	-0.480	0.300
2020/01/31 10:34:15.8	301.440	0.170	-0.480	0.280
2020/01/31 10:34:15.9	301.470	0.150	-0.470	0.250
2020/01/31 10:34:16.0	301.500	0.130	-0.460	0.230
2020/01/31 10:34:16.1	301.530	0.110	-0.450	0.210
2020/01/31 10:34:16.2	301.560	0.090	-0.440	0.190
2020/01/31 10:34:16.3	301.580	0.080	-0.430	0.170
2020/01/31 10:34:16.4	301.620	0.060	-0.420	0.160
2020/01/31 10:34:16.5	301.640	0.040	-0.410	0.140
2020/01/31 10:34:16.6	301.670	0.020	-0.400	0.120
2020/01/31 10:34:16.7	301.700	0.010	-0.390	0.100
2020/01/31 10:34:16.8	301.720	-0.010	-0.380	0.080
2020/01/31 10:34:16.9	301.750	-0.030	-0.370	0.070
2020/01/31 10:34:17.0	301.770	-0.040	-0.370	0.050
2020/01/31 10:34:17.1	301.790	-0.060	-0.360	0.030
2020/01/31 10:34:17.2	301.810	-0.070	-0.350	0.020
2020/01/31 10:34:17.3	301.830	-0.080	-0.350	0.010
2020/01/31 10:34:17.4	301.860	-0.090	-0.340	-0.010
2020/01/31 10:34:17.5	301.870	-0.110	-0.340	-0.020
2020/01/31 10:34:17.6	301.890	-0.120	-0.340	-0.030
2020/01/31 10:34:17.7	301.900	-0.130	-0.330	-0.040
2020/01/31 10:34:17.8	301.920	-0.130	-0.330	-0.050
2020/01/31 10:34:17.9	301.930	-0.140	-0.330	-0.060
2020/01/31 10:34:18.0	301.940	-0.150	-0.340	-0.060
2020/01/31 10:34:18.1	301.950	-0.160	-0.340	-0.070
2020/01/31 10:34:18.2	301.960	-0.160	-0.340	-0.070
2020/01/31 10:34:18.3	301.960	-0.170	-0.350	-0.070
2020/01/31 10:34:18.4	301.960	-0.170	-0.350	-0.070
2020/01/31 10:34:18.5	301.960	-0.170	-0.360	-0.060
2020/01/31 10:34:18.6	301.960	-0.180	-0.370	-0.060
2020/01/31 10:34:18.7	301.950	-0.180	-0.380	-0.050
2020/01/31 10:34:18.8	301.950	-0.180	-0.380	-0.040
2020/01/31 10:34:18.9	301.940	-0.180	-0.390	-0.030
2020/01/31 10:34:19.0	301.930	-0.180	-0.400	-0.010
2020/01/31 10:34:19.1	301.920	-0.180	-0.410	0.000
2020/01/31 10:34:19.2	301.900	-0.180	-0.420	0.020
2020/01/31 10:34:19.3	301.890	-0.180	-0.430	0.040
2020/01/31 10:34:19.4	301.880	-0.180	-0.440	0.060
2020/01/31 10:34:19.5	301.860	-0.180	-0.450	0.080
2020/01/31 10:34:19.6	301.840	-0.180	-0.460	0.110
2020/01/31 10:34:19.7	301.820	-0.180	-0.470	0.130
2020/01/31 10:34:19.8	301.790	-0.180	-0.480	0.160
2020/01/31 10:34:19.9	301.770	-0.190	-0.490	0.190
2020/01/31 10:34:20.0	301.750	-0.190	-0.500	0.220
2020/01/31 10:34:20.1	301.720	-0.190	-0.500	0.240
2020/01/31 10:34:20.2	301.690	-0.190	-0.510	0.270
2020/01/31 10:34:20.3	301.670	-0.190	-0.520	0.300
2020/01/31 10:34:20.4	301.650	-0.190	-0.520	0.330
2020/01/31 10:34:20.5	301.620	-0.190	-0.520	0.360
2020/01/31 10:34:20.6	301.590	-0.190	-0.520	0.390
2020/01/31 10:34:20.7	301.570	-0.190	-0.520	0.410
2020/01/31 10:34:20.8	301.540	-0.200	-0.520	0.440
2020/01/31 10:34:20.9	301.510	-0.200	-0.510	0.460
2020/01/31 10:34:21.0	301.490	-0.200	-0.510	0.490
2020/01/31 10:34:21.1	301.470	-0.210	-0.500	0.510
2020/01/31 10:34:21.2	301.440	-0.210	-0.490	0.530
2020/01/31 10:34:21.3	301.420	-0.210	-0.480	0.550
2020/01/31 10:34:21.4	301.400	-0.220	-0.470	0.570
2020/01/31 10:34:21.5	301.380	-0.220	-0.450	0.580
2020/01/31 10:34:21.6	301.360	-0.230	-0.440	0.600
2020/01/31 10:34:21.7	301.340	-0.240	-0.420	0.600
2020/01/31 10:34:21.8	301.330	-0.240	-0.400	0.610
2020/01/31 10:34:21.9	301.310	-0.250	-0.390	0.610
2020/01/31 10:34:22.0	301.300	-0.260	-0.370	0.610
2020/01/31 10:34:22.1	301.290	-0.260	-0.350	0.610
2020/01/31 10:34:22.2	301.280	-0.270	-0.330	0.610
2020/01/31 10:34:22.3	301.280	-0.280	-0.310	0.600
2020/01/31 10:34:22.4	301.270	-0.290	-0.290	0.590
2020/01/31 10:34:22.5	301.270	-0.290	-0.260	0.580
2020/01/31 10:34:22.6	301.270	-0.300	-0.240	0.570
2020/01/31 10:34:22.7	301.270	-0.310	-0.220	0.560
2020/01/31 10:34:22.8	301.270	-0.320	-0.200	0.540
2020/01/31 10:34:22.9	301.270	-0.320	-0.180	0.520
2020/01/31 10:34:23.0	301.280	-0.330	-0.160	0.500
2020/01/31 10:34:23.1	301.290	-0.330	-0.140	0.480
2020/01/31 10:34:23.2	301.290	-0.340	-0.120	0.460
2020/01/31 10:34:23.3	301.300	-0.340	-0.100	0.440
2020/01/31 10:34:23.4	301.310	-0.340	-0.080	0.420
2020/01/31 10:34:23.5	301.320	-0.340	-0.070	0.390
2020/01/31 10:34:23.6	301.330	-0.340	-0.050	0.370
2020/01/31 10:34:23.7	301.350	-0.340	-0.040	0.350
2020/01/31 10:34:23.8	301.360	-0.340	-0.020	0.330
2020/01/31 10:34:23.9	301.370	-0.330	-0.010	0.300
2020/01/31 10:34:24.0	301.380	-0.320	0.000	0.280
2020/01/31 10:34:24.1	301.390	-0.310	0.010	0.270
2020/01/31 10:34:24.2	301.410	-0.300	0.020	0.250
2020/01/31 10:34:24.3	301.420	-0.290	0.030	0.240
2020/01/31 10:34:24.4	301.430	-0.270	0.040	0.230
2020/01/31 10:34:24.5	301.440	-0.250	0.040	0.220
2020/01/31 10:34:24.6	301.450	-0.230	0.050	0.220
2020/01/31 10:34:24.7	301.460	-0.210	0.050	0.220
2020/01/31 10:34:24.8	301.470	-0.190	0.060	0.220
2020/01/31 10:34:24.9	301.480	-0.160	0.060	0.220
2020/01/31 10:34:25.0	301.500	-0.130	0.060	0.230
2020/01/31 10:34:25.1	301.500	-0.100	0.060	0.240
2020/01/31 10:34:25.2	301.510	-0.070	0.060	0.250
2020/01/31 10:34:25.3	301.520	-0.040	0.050	0.270
2020/01/31 10:34:25.4	301.540	-0.000	0.050	0.290
2020/01/31 10:34:25.5	301.550	0.030	0.050	0.310
2020/01/31 10:34:25.6	301.560	0.070	0.040	0.330
2020/01/31 10:34:25.7	301.570	0.110	0.030	0.360
2020/01/31 10:34:25.8	301.570	0.140	0.020	0.380
2020/01/31 10:34:25.9	301.580	0.180	0.010	0.410
2020/01/31 10:34:26.0	301.590	0.220	0.010	0.450
2020/01/31 10:34:26.1	301.600	0.260	-0.000	0.480
2020/01/31 10:34:26.2	301.610	0.300	-0.010	0.510
2020/01/31 10:34:26.3	301.610	0.330	-0.020	0.550
2020/01/31 10:34:26.4	301.630	0.370	-0.040	0.590
2020/01/31 10:34:26.5	301.640	0.410	-0.050	0.620
2020/01/31 10:34:26.6	301.640	0.440	-0.060	0.660
2020/01/31 10:34:26.7	301.650	0.480	-0.060	0.700
2020/01/31 10:34:26.8	301.650	0.510	-0.070	0.740
2020/01/31 10:34:26.9	301.650	0.540	-0.080	0.780
2020/01/31 10:34:27.0	301.650	0.570	-0.090	0.820
2020/01/31 10:34:27.1	301.660	0.590	-0.090	0.860
2020/01/31 10:34:27.2	301.660	0.620	-0.090	0.900
2020/01/31 10:34:27.3	301.650	0.640	-0.100	0.940
2020/01/31 10:34:27.4	301.660	0.660	-0.100	0.980
2020/01/31 10:34:27.5	301.650	0.680	-0.100	1.010
2020/01/31 10:34:27.6	301.650	0.700	-0.100	1.050
2020/01/31 10:34:27.7	301.640	0.710	-0.100	1.080
2020/01/31 10:34:27.8	301.640	0.720	-0.090	1.110
2020/01/31 10:34:27.9	301.630	0.720	-0.090	1.140
2020/01/31 10:34:28.0	301.630	0.730	-0.090	1.160
2020/01/31 10:34:28.1	301.620	0.730	-0.090	1.180
2020/01/31 10:34:28.2	301.610	0.730	-0.080	1.200
2020/01/31 10:34:28.3	301.610	0.720	-0.080	1.210
2020/01/31 10:34:28.4	301.600	0.720	-0.080	1.220
2020/01/31 10:34:28.5	301.590	0.710	-0.070	1.220
2020/01/31 10:34:28.6	301.590	0.700	-0.070	1.220
2020/01/31 10:34:28.7	301.580	0.680	-0.070	1.220
2020/01/31 10:34:28.8	301.570	0.660	-0.070	1.210
2020/01/31 10:34:28.9	301.560	0.640	-0.060	1.190
2020/01/31 10:34:29.0	301.560	0.620	-0.060	1.170
2020/01/31 10:34:29.1	301.550	0.600	-0.070	1.150
2020/01/31 10:34:29.2	301.550	0.570	-0.070	1.120
2020/01/31 10:34:29.3	301.540	0.540	-0.070	1.090
2020/01/31 10:34:29.4	301.550	0.510	-0.080	1.050
2020/01/31 10:34:29.5	301.540	0.480	-0.090	1.010
2020/01/31 10:34:29.6	301.540	0.450	-0.100	0.970
2020/01/31 10:34:29.7	301.540	0.410	-0.100	0.920
2020/01/31 10:34:29.8	301.540	0.380	-0.120	0.880
2020/01/31 10:34:29.9	301.540	0.340	-0.130	0.820
2020/01/31 10:34:30.0	301.540	0.300	-0.140	0.770
2020/01/31 10:34:30.1	301.540	0.260	-0.150	0.710
2020/01/31 10:34:30.2	301.540	0.230	-0.170	0.660
2020/01/31 10:34:30.3	301.550	0.190	-0.180	0.600
2020/01/31 10:34:30.4	301.560	0.150	-0.200	0.530
2020/01/31 10:34:30.5	301.560	0.110	-0.220	0.470
2020/01/31 10:34:30.6	301.570	0.070	-0.240	0.410
2020/01/31 10:34:30.7	301.570	0.030	-0.260	0.340
2020/01/31 10:34:30.8	301.580	-0.010	-0.280	0.280
2020/01/31 10:34:30.9	301.590	-0.040	-0.300	0.220
2020/01/31 10:34:31.0	301.590	-0.080	-0.320	0.160
2020/01/31 10:34:31.1	301.600	-0.110	-0.340	0.090
2020/01/31 10:34:31.2	301.600	-0.150	-0.370	0.030
2020/01/31 10:34:31.3	301.610	-0.180	-0.390	-0.030
2020/01/31 10:34:31.4	301.610	-0.210	-0.420	-0.090
2020/01/31 10:34:31.5	301.620	-0.240	-0.440	-0.150
2020/01/31 10:34:31.6	301.620	-0.270	-0.460	-0.200
2020/01/31 10:34:31.7	301.630	-0.300	-0.490	-0.260
2020/01/31 10:34:31.8	301.640	-0.320	-0.510	-0.310
2020/01/31 10:34:31.9	301.640	-0.350	-0.530	-0.360
2020/01/31 10:34:32.0	301.650	-0.370	-0.560	-0.410
2020/01/31 10:34:32.1	301.650	-0.390	-0.580	-0.460
2020/01/31 10:34:32.2	301.660	-0.410	-0.600	-0.500
2020/01/31 10:34:32.3	301.660	-0.420	-0.620	-0.540
2020/01/31 10:34:32.4	301.660	-0.440	-0.640	-0.580
2020/01/31 10:34:32.5	301.660	-0.450	-0.660	-0.610
2020/01/31 10:34:32.6	301.660	-0.460	-0.680	-0.640
2020/01/31 10:34:32.7	301.660	-0.470	-0.690	-0.660
2020/01/31 10:34:32.8	301.660	-0.480	-0.710	-0.680
2020/01/31 10:34:32.9	301.660	-0.490	-0.720	-0.690
2020/01/31 10:34:33.0	301.660	-0.490	-0.730	-0.710
2020/01/31 10:34:33.1	301.660	-0.500	-0.740	-0.710
2020/01/31 10:34:33.2	301.650	-0.500	-0.750	-0.710
2020/01/31 10:34:33.3	301.650	-0.500	-0.760	-0.710
2020/01/31 10:34:33.4	301.640	-0.510	-0.760	-0.700
2020/01/31 10:34:33.5	301.630	-0.510	-0.760	-0.690
2020/01/31 10:34:33.6	301.620	-0.510	-0.760	-0.670
2020/01/31 10:34:33.7	301.610	-0.510	-0.760	-0.650
2020/01/31 10:34:33.8	301.600	-0.500	-0.750	-0.630
2020/01/31 10:34:33.9	301.590	-0.500	-0.740	-0.600
2020/01/31 10:34:34.0	301.580	-0.500	-0.730	-0.570
2020/01/31 10:34:34.1	301.570	-0.500	-0.720	-0.540
2020/01/31 10:34:34.2	301.550	-0.500	-0.700	-0.510
2020/01/31 10:34:34.3	301.540	-0.490	-0.680	-0.470
2020/01/31 10:34:34.4	301.530	-0.490	-0.660	-0.420
2020/01/31 10:34:34.5	301.510	-0.480	-0.630	-0.380
2020/01/31 10:34:34.6	301.500	-0.480	-0.610	-0.340
2020/01/31 10:34:34.7	301.480	-0.480	-0.580	-0.290
2020/01/31 10:34:34.8	301.470	-0.470	-0.550	-0.240
2020/01/31 10:34:34.9	301.450	-0.470	-0.520	-0.190
2020/01/31 10:34:35.0	301.440	-0.460	-0.490	-0.150
2020/01/31 10:34:35.1	301.420	-0.460	-0.450	-0.100
2020/01/31 10:34:35.2	301.410	-0.450	-0.420	-0.040
2020/01/31 10:34:35.3	301.400	-0.440	-0.390	0.010
2020/01/31 10:34:35.4	301.390	-0.440	-0.350	0.060
2020/01/31 10:34:35.5	301.370	-0.430	-0.320	0.110
2020/01/31 10:34:35.6	301.360	-0.420	-0.290	0.160
2020/01/31 10:34:35.7	301.350	-0.410	-0.260	0.210
2020/01/31 10:34:35.8	301.340	-0.410	-0.220	0.260
2020/01/31 10:34:35.9	301.320	-0.400	-0.190	0.310
2020/01/31 10:34:36.0	301.310	-0.390	-0.170	0.360
2020/01/31 10:34:36.1	301.300	-0.380	-0.140	0.400
2020/01/31 10:34:36.2	301.290	-0.370	-0.110	0.450
2020/01/31 10:34:36.3	301.280	-0.360	-0.090	0.490
2020/01/31 10:34:36.4	301.260	-0.340	-0.060	0.540
2020/01/31 10:34:36.5	301.250	-0.330	-0.040	0.580
2020/01/31 10:34:36.6	301.240	-0.320	-0.020	0.620
2020/01/31 10:34:36.7	301.230	-0.300	-0.000	0.660
2020/01/31 10:34:36.8	301.230	-0.290	0.010	0.700
2020/01/31 10:34:36.9	301.220	-0.270	0.030	0.730
2020/01/31 10:34:37.0	301.210	-0.250	0.040	0.770
2020/01/31 10:34:37.1	301.210	-0.230	0.050	0.800
2020/01/31 10:34:37.2	301.200	-0.210	0.060	0.830
2020/01/31 10:34:37.3	301.200	-0.190	0.070	0.860
2020/01/31 10:34:37.4	301.190	-0.160	0.080	0.890
2020/01/31 10:34:37.5	301.180	-0.140	0.080	0.920
2020/01/31 10:34:37.6	301.180	-0.120	0.090	0.940
2020/01/31 10:34:37.7	301.180	-0.090	0.090	0.970
2020/01/31 10:34:37.8	301.190	-0.060	0.100	0.990
2020/01/31 10:34:37.9	301.190	-0.040	0.100	1.010
2020/01/31 10:34:38.0	301.190	-0.010	0.100	1.030
2020/01/31 10:34:38.1	301.200	0.020	0.100	1.040
2020/01/31 10:34:38.2	301.210	0.050	0.100	1.050
2020/01/31 10:34:38.3	301.210	0.080	0.090	1.070
2020/01/31 10:34:38.4	301.210	0.110	0.090	1.080
2020/01/31 10:34:38.5	301.220	0.140	0.080	1.090
2020/01/31 10:34:38.6	301.230	0.170	0.080	1.090
2020/01/31 10:34:38.7	301.240	0.200	0.070	1.090
2020/01/31 10:34:38.8	301.250	0.220	0.060	1.090
2020/01/31 10:34:38.9	301.260	0.250	0.060	1.090
2020/01/31 10:34:39.0	301.270	0.280	0.050	1.090
2020/01/31 10:34:39.1	301.280	0.300	0.040	1.090
2020/01/31 10:34:39.2	301.290	0.330	0.030	1.080
2020/01/31 10:34:39.3	301.300	0.350	0.020	1.080
2020/01/31 10:34:39.4	301.310	0.370	0.010	1.060
2020/01/31 10:34:39.5	301.320	0.390	0.000	1.060
2020/01/31 10:34:39.6	301.330	0.400	-0.010	1.050
2020/01/31 10:34:39.7	301.340	0.420	-0.020	1.040
2020/01/31 10:34:39.8	301.350	0.430	-0.030	1.030
2020/01/31 10:34:39.9	301.350	0.440	-0.040	1.020
2020/01/31 10:34:40.0	301.360	0.450	-0.040	1.010
2020/01/31 10:34:40.1	301.360	0.450	-0.050	1.000
2020/01/31 10:34:40.2	301.370	0.460	-0.060	0.990
2020/01/31 10:34:40.3	301.370	0.460	-0.070	0.980
2020/01/31 10:34:40.4	301.370	0.460	-0.080	0.970
2020/01/31 10:34:40.5	301.370	0.460	-0.080	0.960
2020/01/31 10:34:40.6	301.360	0.450	-0.090	0.940
2020/01/31 10:34:40.7	301.360	0.440	-0.100	0.930
2020/01/31 10:34:40.8	301.360	0.440	-0.100	0.910
2020/01/31 10:34:40.9	301.360	0.430	-0.100	0.890
2020/01/31 10:34:41.0	301.350	0.410	-0.110	0.880
2020/01/31 10:34:41.1	301.340	0.400	-0.110	0.860
2020/01/31 10:34:41.2	301.340	0.390	-0.120	0.840
2020/01/31 10:34:41.3	301.330	0.370	-0.120	0.820
2020/01/31 10:34:41.4	301.320	0.360	-0.120	0.790
2020/01/31 10:34:41.5	301.310	0.340	-0.120	0.770
2020/01/31 10:34:41.6	301.300	0.330	-0.120	0.750
2020/01/31 10:34:41.7	301.290	0.310	-0.120	0.730
2020/01/31 10:34:41.8	301.280	0.300	-0.120	0.710
2020/01/31 10:34:41.9	301.260	0.280	-0.120	0.690
2020/01/31 10:34:42.0	301.240	0.270	-0.120	0.670
2020/01/31 10:34:42.1	301.230	0.250	-0.110	0.650
2020/01/31 10:34:42.2	301.210	0.240	-0.110	0.630
2020/01/31 10:34:42.3	301.190	0.220	-0.110	0.600
2020/01/31 10:34:42.4	301.180	0.210	-0.110	0.580
2020/01/31 10:34:42.5	301.160	0.200	-0.110	0.560
2020/01/31 10:34:42.6	301.140	0.190	-0.110	0.540
2020/01/31 10:34:42.7	301.130	0.180	-0.110	0.520
2020/01/31 10:34:42.8	301.110	0.170	-0.110	0.500
2020/01/31 10:34:42.9	301.090	0.170	-0.120	0.470
2020/01/31 10:34:43.0	301.080	0.160	-0.120	0.450
2020/01/31 10:34:43.1	301.060	0.150	-0.130	0.420
2020/01/31 10:34:43.2	301.050	0.150	-0.140	0.390
2020/01/31 10:34:43.3	301.040	0.150	-0.150	0.360
2020/01/31 10:34:43.4	301.020	0.140	-0.170	0.330
2020/01/31 10:34:43.5	301.010	0.140	-0.190	0.300
2020/01/31 10:34:43.6	301.000	0.140	-0.200	0.270
2020/01/31 10:34:43.7	300.990	0.140	-0.220	0.230
2020/01/31 10:34:43.8	300.980	0.140	-0.250	0.190
2020/01/31 10:34:43.9	300.980	0.140	-0.270	0.150
2020/01/31 10:34:44.0	300.970	0.140	-0.300	0.110
2020/01/31 10:34:44.1	300.970	0.140	-0.320	0.070
2020/01/31 10:34:44.2	300.970	0.140	-0.350	0.020
2020/01/31 10:34:44.3	300.970	0.140	-0.380	-0.020
2020/01/31 10:34:44.4	300.970	0.140	-0.410	-0.070
2020/01/31 10:34:44.5	300.980	0.140	-0.430	-0.110
2020/01/31 10:34:44.6	300.980	0.130	-0.460	-0.160
2020/01/31 10:34:44.7	300.990	0.130	-0.490	-0.200
2020/01/31 10:34:44.8	300.990	0.130	-0.520	-0.240
2020/01/31 10:34:44.9	301.000	0.120	-0.540	-0.280
2020/01/31 10:34:45.0	301.010	0.120	-0.560	-0.320
2020/01/31 10:34:45.1	301.020	0.110	-0.590	-0.360
2020/01/31 10:34:45.2	301.030	0.110	-0.610	-0.390
2020/01/31 10:34:45.3	301.040	0.100	-0.630	-0.420
2020/01/31 10:34:45.4	301.050	0.090	-0.640	-0.450
2020/01/31 10:34:45.5	301.060	0.080	-0.660	-0.470
2020/01/31 10:34:45.6	301.070	0.070	-0.670	-0.490
2020/01/31 10:34:45.7	301.080	0.060	-0.670	-0.510
2020/01/31 10:34:45.8	301.100	0.040	-0.680	-0.520
2020/01/31 10:34:45.9	301.110	0.030	-0.680	-0.530
2020/01/31 10:34:46.0	301.120	0.010	-0.680	-0.530
2020/01/31 10:34:46.1	301.130	-0.000	-0.670	-0.530
2020/01/31 10:34:46.2	301.140	-0.020	-0.670	-0.520
2020/01/31 10:34:46.3	301.150	-0.030	-0.660	-0.510
2020/01/31 10:34:46.4	301.160	-0.050	-0.650	-0.500
2020/01/31 10:34:46.5	301.170	-0.070	-0.630	-0.480
2020/01/31 10:34:46.6	301.180	-0.090	-0.620	-0.460
2020/01/31 10:34:46.7	301.190	-0.100	-0.600	-0.430
2020/01/31 10:34:46.8	301.190	-0.120	-0.580	-0.400
2020/01/31 10:34:46.9	301.200	-0.140	-0.560	-0.370
2020/01/31 10:34:47.0	301.210	-0.160	-0.530	-0.340
2020/01/31 10:34:47.1	301.220	-0.170	-0.510	-0.300
2020/01/31 10:34:47.2	301.220	-0.190	-0.490	-0.260
2020/01/31 10:34:47.3	301.230	-0.210	-0.460	-0.220
2020/01/31 10:34:47.4	301.260	-0.220	-0.430	-0.170
2020/01/31 10:34:47.5	301.260	-0.240	-0.410	-0.130
2020/01/31 10:34:47.6	301.260	-0.250	-0.380	-0.080
2020/01/31 10:34:47.7	301.270	-0.260	-0.360	-0.030
2020/01/31 10:34:47.8	301.270	-0.270	-0.330	0.010
2020/01/31 10:34:47.9	301.270	-0.280	-0.310	0.060
2020/01/31 10:34:48.0	301.270	-0.290	-0.280	0.110
2020/01/31 10:34:48.1	301.270	-0.300	-0.260	0.160
2020/01/31 10:34:48.2	301.270	-0.310	-0.240	0.220
2020/01/31 10:34:48.3	301.260	-0.320	-0.220	0.270
2020/01/31 10:34:48.4	301.270	-0.320	-0.200	0.320
2020/01/31 10:34:48.5	301.270	-0.330	-0.180	0.370
2020/01/31 10:34:48.6	301.260	-0.330	-0.170	0.420
2020/01/31 10:34:48.7	301.260	-0.330	-0.160	0.470
2020/01/31 10:34:48.8	301.250	-0.330	-0.140	0.520
2020/01/31 10:34:48.9	301.240	-0.330	-0.130	0.560
2020/01/31 10:34:49.0	301.230	-0.330	-0.120	0.610
2020/01/31 10:34:49.1	301.220	-0.330	-0.120	0.650
2020/01/31 10:34:49.2	301.210	-0.320	-0.110	0.700
2020/01/31 10:34:49.3	301.200	-0.320	-0.110	0.740
2020/01/31 10:34:49.4	301.180	-0.320	-0.110	0.780
2020/01/31 10:34:49.5	301.170	-0.310	-0.110	0.810
2020/01/31 10:34:49.6	301.160	-0.310	-0.110	0.850
2020/01/31 10:34:49.7	301.150	-0.300	-0.110	0.880
2020/01/31 10:34:49.8	301.130	-0.300	-0.110	0.900
2020/01/31 10:34:49.9	301.120	-0.290	-0.110	0.930
2020/01/31 10:34:50.0	301.100	-0.290	-0.120	0.950
2020/01/31 10:34:50.1	301.090	-0.280	-0.120	0.970
2020/01/31 10:34:50.2	301.070	-0.280	-0.130	0.990
2020/01/31 10:34:50.3	301.050	-0.270	-0.130	1.000
2020/01/31 10:34:50.4	301.050	-0.270	-0.140	1.010
2020/01/31 10:34:50.5	301.030	-0.260	-0.140	1.020
2020/01/31 10:34:50.6	301.010	-0.260	-0.150	1.030
2020/01/31 10:34:50.7	300.990	-0.250	-0.150	1.030
2020/01/31 10:34:50.8	300.980	-0.250	-0.160	1.030
2020/01/31 10:34:50.9	300.960	-0.250	-0.160	1.020
2020/01/31 10:34:51.0	300.940	-0.240	-0.160	1.020
2020/01/31 10:34:51.1	300.930	-0.240	-0.160	1.010
2020/01/31 10:34:51.2	300.910	-0.240	-0.170	1.000
2020/01/31 10:34:51.3	300.900	-0.240	-0.170	0.990
2020/01/31 10:34:51.4	300.880	-0.240	-0.170	0.970
2020/01/31 10:34:51.5	300.870	-0.230	-0.160	0.960
2020/01/31 10:34:51.6	300.850	-0.230	-0.160	0.940
2020/01/31 10:34:51.7	300.840	-0.230	-0.160	0.930
2020/01/31 10:34:51.8	300.830	-0.230	-0.150	0.910
2020/01/31 10:34:51.9	300.820	-0.230	-0.140	0.890
2020/01/31 10:34:52.0	300.810	-0.230	-0.140	0.870
2020/01/31 10:34:52.1	300.800	-0.220	-0.130	0.850
2020/01/31 10:34:52.2	300.790	-0.220	-0.120	0.830
2020/01/31 10:34:52.3	300.780	-0.210	-0.110	0.810
2020/01/31 10:34:52.4	300.780	-0.210	-0.100	0.790
2020/01/31 10:34:52.5	300.770	-0.200	-0.090	0.770
2020/01/31 10:34:52.6	300.760	-0.200	-0.080	0.750
2020/01/31 10:34:52.7	300.750	-0.190	-0.070	0.730
2020/01/31 10:34:52.8	300.750	-0.180	-0.060	0.710
2020/01/31 10:34:52.9	300.740	-0.170	-0.050	0.690
2020/01/31 10:34:53.0	300.740	-0.160	-0.040	0.670
2020/01/31 10:34:53.1	300.740	-0.140	-0.040	0.660
2020/01/31 10:34:53.2	300.730	-0.130	-0.030	0.640
2020/01/31 10:34:53.3	300.730	-0.110	-0.030	0.620
2020/01/31 10:34:53.4	300.720	-0.090	-0.020	0.600
2020/01/31 10:34:53.5	300.720	-0.080	-0.020	0.580
2020/01/31 10:34:53.6	300.720	-0.060	-0.030	0.560
2020/01/31 10:34:53.7	300.720	-0.040	-0.030	0.540
2020/01/31 10:34:53.8	300.720	-0.010	-0.030	0.520
2020/01/31 10:34:53.9	300.720	0.010	-0.040	0.500
2020/01/31 10:34:54.0	300.730	0.040	-0.050	0.480
2020/01/31 10:34:54.1	300.730	0.060	-0.060	0.460
2020/01/31 10:34:54.2	300.740	0.090	-0.070	0.440
2020/01/31 10:34:54.3	300.750	0.110	-0.090	0.420
2020/01/31 10:34:54.4	300.750	0.140	-0.110	0.390
2020/01/31 10:34:54.5	300.760	0.170	-0.130	0.370
2020/01/31 10:34:54.6	300.770	0.200	-0.150	0.350
2020/01/31 10:34:54.7	300.780	0.230	-0.170	0.330
2020/01/31 10:34:54.8	300.800	0.260	-0.190	0.300
2020/01/31 10:34:54.9	300.810	0.280	-0.210	0.280
2020/01/31 10:34:55.0	300.830	0.310	-0.240	0.260
2020/01/31 10:34:55.1	300.850	0.340	-0.260	0.230
2020/01/31 10:34:55.2	300.870	0.370	-0.280	0.210
2020/01/31 10:34:55.3	300.890	0.390	-0.300	0.190
2020/01/31 10:34:55.4	300.910	0.410	-0.320	0.160
2020/01/31 10:34:55.5	300.930	0.440	-0.340	0.140
2020/01/31 10:34:55.6	300.960	0.460	-0.360	0.120
2020/01/31 10:34:55.7	300.980	0.480	-0.380	0.100
2020/01/31 10:34:55.8	301.000	0.500	-0.400	0.080
2020/01/31 10:34:55.9	301.030	0.510	-0.410	0.060
2020/01/31 10:34:56.0	301.050	0.520	-0.420	0.040
2020/01/31 10:34:56.1	301.070	0.540	-0.430	0.030
2020/01/31 10:34:56.2	301.100	0.540	-0.440	0.010
2020/01/31 10:34:56.3	301.120	0.550	-0.440	-0.000
2020/01/31 10:34:56.4	301.150	0.550	-0.450	-0.010
2020/01/31 10:34:56.5	301.170	0.550	-0.440	-0.020
2020/01/31 10:34:56.6	301.190	0.550	-0.440	-0.030
2020/01/31 10:34:56.7	301.220	0.550	-0.430	-0.030
2020/01/31 10:34:56.8	301.240	0.540	-0.420	-0.030
2020/01/31 10:34:56.9	301.260	0.530	-0.410	-0.030
2020/01/31 10:34:57.0	301.270	0.520	-0.400	-0.030
2020/01/31 10:34:57.1	301.290	0.510	-0.380	-0.020
2020/01/31 10:34:57.2	301.300	0.490	-0.360	-0.010
2020/01/31 10:34:57.3	301.320	0.470	-0.340	-0.000
2020/01/31 10:34:57.4	301.330	0.460	-0.320	0.010
2020/01/31 10:34:57.5	301.340	0.430	-0.300	0.030
2020/01/31 10:34:57.6	301.350	0.410	-0.280	0.040
2020/01/31 10:34:57.7	301.350	0.390	-0.250	0.060
2020/01/31 10:34:57.8	301.360	0.360	-0.230	0.080
2020/01/31 10:34:57.9	301.360	0.340	-0.210	0.100
2020/01/31 10:34:58.0	301.360	0.310	-0.190	0.130
2020/01/31 10:34:58.1	301.360	0.290	-0.170	0.150
2020/01/31 10:34:58.2	301.350	0.260	-0.150	0.180
2020/01/31 10:34:58.3	301.350	0.230	-0.130	0.200
2020/01/31 10:34:58.4	301.340	0.210	-0.120	0.230
2020/01/31 10:34:58.5	301.330	0.180	-0.110	0.260
2020/01/31 10:34:58.6	301.330	0.160	-0.100	0.280
2020/01/31 10:34:58.7	301.320	0.130	-0.100	0.310
2020/01/31 10:34:58.8	301.310	0.110	-0.090	0.340
2020/01/31 10:34:58.9	301.300	0.090	-0.090	0.370
2020/01/31 10:34:59.0	301.290	0.060	-0.100	0.400
2020/01/31 10:34:59.1	301.280	0.040	-0.100	0.430
2020/01/31 10:34:59.2	301.270	0.030	-0.110	0.460
2020/01/31 10:34:59.3	301.260	0.010	-0.120	0.490
2020/01/31 10:34:59.4	301.240	-0.010	-0.140	0.510
2020/01/31 10:34:59.5	301.230	-0.020	-0.150	0.540
2020/01/31 10:34:59.6	301.220	-0.030	-0.170	0.570
2020/01/31 10:34:59.7	301.200	-0.040	-0.190	0.610
2020/01/31 10:34:59.8	301.190	-0.050	-0.210	0.640
2020/01/31 10:34:59.9	301.170	-0.060	-0.230	0.670
2020/01/31 10:35:00.0	301.150	-0.070	-0.250	0.700
2020/01/31 10:35:00.1	301.140	-0.070	-0.270	0.740
2020/01/31 10:35:00.2	301.120	-0.070	-0.290	0.770
2020/01/31 10:35:00.3	301.100	-0.080	-0.310	0.800
2020/01/31 10:35:00.4	301.070	-0.080	-0.330	0.830
2020/01/31 10:35:00.5	301.050	-0.080	-0.350	0.860
2020/01/31 10:35:00.6	301.030	-0.080	-0.370	0.890
2020/01/31 10:35:00.7	301.010	-0.070	-0.390	0.920
2020/01/31 10:35:00.8	300.990	-0.070	-0.410	0.950
2020/01/31 10:35:00.9	300.970	-0.070	-0.430	0.970
2020/01/31 10:35:01.0	300.950	-0.070	-0.440	0.990
2020/01/31 10:35:01.1	300.930	-0.060	-0.450	1.010
2020/01/31 10:35:01.2	300.900	-0.060	-0.460	1.030
2020/01/31 10:35:01.3	300.880	-0.060	-0.470	1.050
2020/01/31 10:35:01.4	300.870	-0.060	-0.480	1.060
2020/01/31 10:35:01.5	300.850	-0.060	-0.480	1.070
2020/01/31 10:35:01.6	300.830	-0.060	-0.480	1.070
2020/01/31 10:35:01.7	300.810	-0.060	-0.480	1.080
2020/01/31 10:35:01.8	300.790	-0.060	-0.480	1.080
2020/01/31 10:35:01.9	300.770	-0.060	-0.470	1.070
2020/01/31 10:35:02.0	300.750	-0.060	-0.470	1.070
2020/01/31 10:35:02.1	300.730	-0.070	-0.450	1.060
2020/01/31 10:35:02.2	300.710	-0.070	-0.440	1.040
2020/01/31 10:35:02.3	300.690	-0.080	-0.420	1.030
2020/01/31 10:35:02.4	300.680	-0.080	-0.410	1.010
2020/01/31 10:35:02.5	300.660	-0.090	-0.390	0.990
2020/01/31 10:35:02.6	300.650	-0.100	-0.360	0.970
2020/01/31 10:35:02.7	300.630	-0.110	-0.330	0.950
2020/01/31 10:35:02.8	300.610	-0.120	-0.310	0.920
2020/01/31 10:35:02.9	300.590	-0.130	-0.270	0.890
2020/01/31 10:35:03.0	300.580	-0.150	-0.240	0.860
2020/01/31 10:35:03.1	300.560	-0.160	-0.210	0.830
2020/01/31 10:35:03.2	300.550	-0.180	-0.170	0.800
2020/01/31 10:35:03.3	300.530	-0.190	-0.140	0.770
2020/01/31 10:35:03.4	300.530	-0.210	-0.100	0.730
2020/01/31 10:35:03.5	300.520	-0.220	-0.070	0.700
2020/01/31 10:35:03.6	300.510	-0.240	-0.030	0.660
2020/01/31 10:35:03.7	300.500	-0.250	0.000	0.620
2020/01/31 10:35:03.8	300.490	-0.270	0.030	0.580
2020/01/31 10:35:03.9	300.490	-0.280	0.060	0.530
2020/01/31 10:35:04.0	300.480	-0.300	0.090	0.490
2020/01/31 10:35:04.1	300.480	-0.320	0.110	0.440
2020/01/31 10:35:04.2	300.480	-0.330	0.130	0.400
2020/01/31 10:35:04.3	300.480	-0.340	0.150	0.350
2020/01/31 10:35:04.4	300.490	-0.360	0.160	0.300
2020/01/31 10:35:04.5	300.500	-0.370	0.170	0.240
2020/01/31 10:35:04.6	300.510	-0.380	0.180	0.190
2020/01/31 10:35:04.7	300.520	-0.390	0.180	0.140
2020/01/31 10:35:04.8	300.530	-0.400	0.180	0.090
2020/01/31 10:35:04.9	300.550	-0.410	0.180	0.040
2020/01/31 10:35:05.0	300.560	-0.410	0.170	-0.010
2020/01/31 10:35:05.1	300.580	-0.420	0.160	-0.060
2020/01/31 10:35:05.2	300.600	-0.420	0.140	-0.110
2020/01/31 10:35:05.3	300.630	-0.420	0.120	-0.160
2020/01/31 10:35:05.4	300.640	-0.420	0.100	-0.200
2020/01/31 10:35:05.5	300.670	-0.420	0.070	-0.250
2020/01/31 10:35:05.6	300.690	-0.420	0.050	-0.290
2020/01/31 10:35:05.7	300.720	-0.410	0.020	-0.330
2020/01/31 10:35:05.8	300.750	-0.400	-0.010	-0.370
2020/01/31 10:35:05.9	300.780	-0.390	-0.050	-0.400
2020/01/31 10:35:06.0	300.810	-0.380	-0.080	-0.440
2020/01/31 10:35:06.1	300.840	-0.370	-0.110	-0.470
2020/01/31 10:35:06.2	300.870	-0.360	-0.150	-0.490
2020/01/31 10:35:06.3	300.900	-0.340	-0.180	-0.520
2020/01/31 10:35:06.4	300.950	-0.320	-0.220	-0.540
2020/01/31 10:35:06.5	300.980	-0.310	-0.250	-0.550
2020/01/31 10:35:06.6	301.010	-0.290	-0.280	-0.570
2020/01/31 10:35:06.7	301.050	-0.270	-0.320	-0.580
2020/01/31 10:35:06.8	301.080	-0.240	-0.350	-0.580
2020/01/31 10:35:06.9	301.120	-0.220	-0.370	-0.590
2020/01/31 10:35:07.0	301.150	-0.200	-0.400	-0.580
2020/01/31 10:35:07.1	301.180	-0.170	-0.430	-0.580
2020/01/31 10:35:07.2	301.220	-0.150	-0.450	-0.570
2020/01/31 10:35:07.3	301.250	-0.120	-0.470	-0.560
2020/01/31 10:35:07.4	301.290	-0.090	-0.490	-0.530
2020/01/31 10:35:07.5	301.320	-0.070	-0.500	-0.510
2020/01/31 10:35:07.6	301.360	-0.040	-0.520	-0.480
2020/01/31 10:35:07.7	301.390	-0.010	-0.530	-0.450
2020/01/31 10:35:07.8	301.410	0.010	-0.540	-0.420
2020/01/31 10:35:07.9	301.440	0.040	-0.540	-0.370
2020/01/31 10:35:08.0	301.460	0.070	-0.540	-0.330
2020/01/31 10:35:08.1	301.480	0.090	-0.540	-0.280
2020/01/31 10:35:08.2	301.500	0.120	-0.540	-0.220
2020/01/31 10:35:08.3	301.520	0.140	-0.540	-0.160
2020/01/31 10:35:08.4	301.540	0.160	-0.530	-0.090
2020/01/31 10:35:08.5	301.550	0.190	-0.520	-0.030
2020/01/31 10:35:08.6	301.560	0.210	-0.510	0.040
2020/01/31 10:35:08.7	301.570	0.230	-0.490	0.110
2020/01/31 10:35:08.8	301.570	0.250	-0.480	0.190
2020/01/31 10:35:08.9	301.570	0.270	-0.460	0.260
2020/01/31 10:35:09.0	301.570	0.280	-0.450	0.340
2020/01/31 10:35:09.1	301.570	0.300	-0.430	0.420
2020/01/31 10:35:09.2	301.570	0.310	-0.410	0.500
2020/01/31 10:35:09.3	301.560	0.330	-0.390	0.570
2020/01/31 10:35:09.4	301.550	0.340	-0.370	0.660
2020/01/31 10:35:09.5	301.540	0.350	-0.360	0.730
2020/01/31 10:35:09.6	301.530	0.360	-0.340	0.810
2020/01/31 10:35:09.7	301.520	0.370	-0.330	0.880
2020/01/31 10:35:09.8	301.510	0.380	-0.320	0.950
2020/01/31 10:35:09.9	301.500	0.390	-0.300	1.010
2020/01/31 10:35:10.0	301.480	0.390	-0.300	1.070
2020/01/31 10:35:10.1	301.470	0.400	-0.290	1.130
2020/01/31 10:35:10.2	301.450	0.400	-0.280	1.190
2020/01/31 10:35:10.3	301.440	0.410	-0.280	1.240
2020/01/31 10:35:10.4	301.410	0.410	-0.280	1.280
2020/01/31 10:35:10.5	301.400	0.410	-0.280	1.330
2020/01/31 10:35:10.6	301.380	0.410	-0.280	1.360
2020/01/31 10:35:10.7	301.370	0.410	-0.290	1.390
2020/01/31 10:35:10.8	301.350	0.410	-0.290	1.420
2020/01/31 10:35:10.9	301.340	0.400	-0.300	1.440
2020/01/31 10:35:11.0	301.320	0.400	-0.310	1.460
2020/01/31 10:35:11.1	301.310	0.400	-0.320	1.470
2020/01/31 10:35:11.2	301.290	0.390	-0.330	1.470
2020/01/31 10:35:11.3	301.280	0.380	-0.340	1.480
2020/01/31 10:35:11.4	301.270	0.380	-0.340	1.470
2020/01/31 10:35:11.5	301.250	0.370	-0.350	1.470
2020/01/31 10:35:11.6	301.240	0.360	-0.360	1.460
2020/01/31 10:35:11.7	301.220	0.350	-0.370	1.450
2020/01/31 10:35:11.8	301.210	0.340	-0.370	1.430
2020/01/31 10:35:11.9	301.190	0.330	-0.370	1.410
2020/01/31 10:35:12.0	301.180	0.310	-0.370	1.390
2020/01/31 10:35:12.1	301.160	0.300	-0.370	1.360
2020/01/31 10:35:12.2	301.140	0.280	-0.370	1.340
2020/01/31 10:35:12.3	301.130	0.270	-0.360	1.310
2020/01/31 10:35:12.4	301.110	0.250	-0.360	1.270
2020/01/31 10:35:12.5	301.090	0.230	-0.350	1.240
2020/01/31 10:35:12.6	301.070	0.210	-0.330	1.200
2020/01/31 10:35:12.7	301.050	0.190	-0.320	1.160
2020/01/31 10:35:12.8	301.040	0.170	-0.300	1.110
2020/01/31 10:35:12.9	301.020	0.150	-0.290	1.070
2020/01/31 10:35:13.0	301.000	0.120	-0.270	1.020
2020/01/31 10:35:13.1	300.980	0.100	-0.250	0.970
2020/01/31 10:35:13.2	300.970	0.070	-0.230	0.920
2020/01/31 10:35:13.3	300.950	0.050	-0.210	0.870
2020/01/31 10:35:13.4	300.940	0.020	-0.180	0.810
2020/01/31 10:35:13.5	300.920	-0.000	-0.160	0.750
2020/01/31 10:35:13.6	300.910	-0.030	-0.140	0.690
2020/01/31 10:35:13.7	300.900	-0.060	-0.120	0.620
2020/01/31 10:35:13.8	300.890	-0.080	-0.100	0.560
2020/01/31 10:35:13.9	300.880	-0.110	-0.090	0.490
2020/01/31 10:35:14.0	300.870	-0.140	-0.070	0.420
2020/01/31 10:35:14.1	300.860	-0.160	-0.060	0.350
2020/01/31 10:35:14.2	300.860	-0.190	-0.050	0.280
2020/01/31 10:35:14.3	300.860	-0.210	-0.040	0.210
2020/01/31 10:35:14.4	300.850	-0.230	-0.040	0.130
2020/01/31 10:35:14.5	300.850	-0.250	-0.040	0.060
2020/01/31 10:35:14.6	300.860	-0.270	-0.040	-0.010
2020/01/31 10:35:14.7	300.860	-0.290	-0.040	-0.080
2020/01/31 10:35:14.8	300.870	-0.310	-0.040	-0.150
2020/01/31 10:35:14.9	300.880	-0.320	-0.040	-0.220
2020/01/31 10:35:15.0	300.890	-0.330	-0.050	-0.290
2020/01/31 10:35:15.1	300.910	-0.340	-0.060	-0.360
2020/01/31 10:35:15.2	300.930	-0.350	-0.070	-0.420
2020/01/31 10:35:15.3	300.950	-0.360	-0.080	-0.480
2020/01/31 10:35:15.4	300.950	-0.360	-0.090	-0.540
2020/01/31 10:35:15.5	300.980	-0.360	-0.110	-0.600
2020/01/31 10:35:15.6	301.000	-0.360	-0.120	-0.650
2020/01/31 10:35:15.7	301.030	-0.360	-0.140	-0.700
2020/01/31 10:35:15.8	301.050	-0.350	-0.150	-0.750
2020/01/31 10:35:15.9	301.080	-0.350	-0.170	-0.790
2020/01/31 10:35:16.0	301.110	-0.340	-0.180	-0.830
2020/01/31 10:35:16.1	301.140	-0.330	-0.200	-0.870
2020/01/31 10:35:16.2	301.170	-0.320	-0.210	-0.900
2020/01/31 10:35:16.3	301.200	-0.310	-0.220	-0.930
2020/01/31 10:35:16.4	301.230	-0.290	-0.240	-0.950
2020/01/31 10:35:16.5	301.260	-0.280	-0.250	-0.960
2020/01/31 10:35:16.6	301.290	-0.260	-0.260	-0.980
2020/01/31 10:35:16.7	301.320	-0.250	-0.260	-0.980
2020/01/31 10:35:16.8	301.350	-0.230	-0.270	-0.990
2020/01/31 10:35:16.9	301.380	-0.210	-0.270	-0.980
2020/01/31 10:35:17.0	301.400	-0.200	-0.270	-0.980
2020/01/31 10:35:17.1	301.430	-0.180	-0.260	-0.970
2020/01/31 10:35:17.2	301.450	-0.160	-0.260	-0.950
2020/01/31 10:35:17.3	301.470	-0.150	-0.250	-0.930
2020/01/31 10:35:17.4	301.500	-0.130	-0.240	-0.910
2020/01/31 10:35:17.5	301.510	-0.110	-0.220	-0.880
2020/01/31 10:35:17.6	301.530	-0.100	-0.210	-0.850
2020/01/31 10:35:17.7	301.550	-0.080	-0.190	-0.820
2020/01/31 10:35:17.8	301.560	-0.070	-0.170	-0.780
2020/01/31 10:35:17.9	301.570	-0.050	-0.150	-0.740
2020/01/31 10:35:18.0	301.580	-0.040	-0.130	-0.690
2020/01/31 10:35:18.1	301.590	-0.030	-0.100	-0.640
2020/01/31 10:35:18.2	301.590	-0.010	-0.080	-0.590
2020/01/31 10:35:18.3	301.590	-0.000	-0.050	-0.530
2020/01/31 10:35:18.4	301.590	0.010	-0.030	-0.470
2020/01/31 10:35:18.5	301.590	0.020	0.000	-0.410
2020/01/31 10:35:18.6	301.580	0.030	0.030	-0.350
2020/01/31 10:35:18.7	301.570	0.030	0.050	-0.280
2020/01/31 10:35:18.8	301.560	0.040	0.080	-0.210
2020/01/31 10:35:18.9	301.550	0.050	0.100	-0.140
2020/01/31 10:35:19.0	301.530	0.050	0.120	-0.070
2020/01/31 10:35:19.1	301.510	0.060	0.150	0.000
2020/01/31 10:35:19.2	301.480	0.060	0.160	0.070
2020/01/31 10:35:19.3	301.460	0.060	0.180	0.150
2020/01/31 10:35:19.4	301.430	0.060	0.190	0.220
2020/01/31 10:35:19.5	301.390	0.060	0.200	0.290
2020/01/31 10:35:19.6	301.360	0.060	0.210	0.360
2020/01/31 10:35:19.7	301.330	0.060	0.210	0.430
2020/01/31 10:35:19.8	301.290	0.060	0.210	0.500
2020/01/31 10:35:19.9	301.260	0.060	0.210	0.560
2020/01/31 10:35:20.0	301.220	0.050	0.200	0.620
2020/01/31 10:35:20.1	301.190	0.050	0.190	0.680
2020/01/31 10:35:20.2	301.150	0.040	0.170	0.740
2020/01/31 10:35:20.3	301.110	0.040	0.150	0.790
2020/01/31 10:35:20.4	301.070	0.030	0.120	0.830
2020/01/31 10:35:20.5	301.040	0.020	0.090	0.870
2020/01/31 10:35:20.6	301.000	0.010	0.060	0.910
2020/01/31 10:35:20.7	300.970	0.010	0.020	0.950
2020/01/31 10:35:20.8	300.940	-0.000	-0.020	0.970
2020/01/31 10:35:20.9	300.910	-0.010	-0.060	1.000
2020/01/31 10:35:21.0	300.880	-0.020	-0.100	1.020
2020/01/31 10:35:21.1	300.850	-0.030	-0.150	1.030
2020/01/31 10:35:21.2	300.820	-0.040	-0.200	1.040
2020/01/31 10:35:21.3	300.800	-0.050	-0.250	1.050
2020/01/31 10:35:21.4	300.790	-0.060	-0.300	1.050
2020/01/31 10:35:21.5	300.770	-0.070	-0.350	1.040
2020/01/31 10:35:21.6	300.750	-0.080	-0.400	1.040
2020/01/31 10:35:21.7	300.730	-0.090	-0.450	1.030
2020/01/31 10:35:21.8	300.710	-0.100	-0.510	1.020
2020/01/31 10:35:21.9	300.700	-0.110	-0.550	1.000
2020/01/31 10:35:22.0	300.680	-0.120	-0.600	0.980
2020/01/31 10:35:22.1	300.670	-0.130	-0.650	0.960
2020/01/31 10:35:22.2	300.660	-0.140	-0.690	0.930
2020/01/31 10:35:22.3	300.660	-0.150	-0.730	0.910
2020/01/31 10:35:22.4	300.660	-0.160	-0.770	0.880
2020/01/31 10:35:22.5	300.660	-0.170	-0.800	0.840
2020/01/31 10:35:22.6	300.660	-0.180	-0.840	0.810
2020/01/31 10:35:22.7	300.660	-0.190	-0.870	0.770
2020/01/31 10:35:22.8	300.670	-0.190	-0.890	0.730
2020/01/31 10:35:22.9	300.670	-0.200	-0.920	0.690
2020/01/31 10:35:23.0	300.680	-0.200	-0.940	0.650
2020/01/31 10:35:23.1	300.690	-0.210	-0.950	0.610
2020/01/31 10:35:23.2	300.700	-0.210	-0.970	0.560
2020/01/31 10:35:23.3	300.720	-0.210	-0.980	0.520
2020/01/31 10:35:23.4	300.730	-0.220	-0.990	0.470
2020/01/31 10:35:23.5	300.750	-0.220	-0.990	0.430
2020/01/31 10:35:23.6	300.770	-0.210	-0.990	0.380
2020/01/31 10:35:23.7	300.790	-0.210	-0.990	0.340
2020/01/31 10:35:23.8	300.820	-0.210	-0.980	0.290
2020/01/31 10:35:23.9	300.840	-0.200	-0.970	0.250
2020/01/31 10:35:24.0	300.860	-0.190	-0.960	0.210
2020/01/31 10:35:24.1	300.890	-0.190	-0.950	0.170
2020/01/31 10:35:24.2	300.920	-0.170	-0.930	0.130
2020/01/31 10:35:24.3	300.940	-0.160	-0.910	0.090
2020/01/31 10:35:24.4	300.970	-0.150	-0.890	0.060
2020/01/31 10:35:24.5	301.000	-0.130	-0.870	0.030
2020/01/31 10:35:24.6	301.030	-0.120	-0.850	-0.000
2020/01/31 10:35:24.7	301.050	-0.100	-0.820	-0.030
2020/01/31 10:35:24.8	301.080	-0.080	-0.790	-0.060
2020/01/31 10:35:24.9	301.110	-0.060	-0.770	-0.080
2020/01/31 10:35:25.0	301.140	-0.040	-0.740	-0.110
2020/01/31 10:35:25.1	301.170	-0.020	-0.710	-0.130
2020/01/31 10:35:25.2	301.200	0.010	-0.680	-0.140
2020/01/31 10:35:25.3	301.230	0.030	-0.640	-0.160
2020/01/31 10:35:25.4	301.260	0.060	-0.610	-0.170
2020/01/31 10:35:25.5	301.280	0.080	-0.580	-0.180
2020/01/31 10:35:25.6	301.310	0.110	-0.550	-0.180
2020/01/31 10:35:25.7	301.340	0.130	-0.510	-0.190
2020/01/31 10:35:25.8	301.360	0.160	-0.480	-0.190
2020/01/31 10:35:25.9	301.390	0.180	-0.440	-0.180
2020/01/31 10:35:26.0	301.410	0.210	-0.410	-0.180
2020/01/31 10:35:26.1	301.430	0.230	-0.370	-0.170
2020/01/31 10:35:26.2	301.450	0.250	-0.340	-0.150
2020/01/31 10:35:26.3	301.470	0.270	-0.300	-0.130
2020/01/31 10:35:26.4	301.500	0.300	-0.260	-0.110
2020/01/31 10:35:26.5	301.510	0.310	-0.230	-0.080
2020/01/31 10:35:26.6	301.520	0.330	-0.190	-0.060
2020/01/31 10:35:26.7	301.530	0.350	-0.150	-0.020
2020/01/31 10:35:26.8	301.540	0.360	-0.110	0.010
2020/01/31 10:35:26.9	301.550	0.380	-0.070	0.050
2020/01/31 10:35:27.0	301.550	0.390	-0.040	0.090
2020/01/31 10:35:27.1	301.550	0.400	0.000	0.130
2020/01/31 10:35:27.2	301.550	0.400	0.040	0.170
2020/01/31 10:35:27.3	301.550	0.410	0.080	0.220
2020/01/31 10:35:27.4	301.540	0.410	0.110	0.270
2020/01/31 10:35:27.5	301.530	0.410	0.150	0.310
2020/01/31 10:35:27.6	301.520	0.410	0.180	0.360
2020/01/31 10:35:27.7	301.510	0.410	0.220	0.410
2020/01/31 10:35:27.8	301.500	0.400	0.250	0.460
2020/01/31 10:35:27.9	301.480	0.400	0.280	0.510
2020/01/31 10:35:28.0	301.460	0.390	0.310	0.550
2020/01/31 10:35:28.1	301.440	0.380	0.340	0.600
2020/01/31 10:35:28.2	301.420	0.360	0.370	0.650
2020/01/31 10:35:28.3	301.400	0.350	0.390	0.700
2020/01/31 10:35:28.4	301.370	0.330	0.420	0.740
2020/01/31 10:35:28.5	301.350	0.320	0.440	0.790
2020/01/31 10:35:28.6	301.320	0.300	0.470	0.830
2020/01/31 10:35:28.7	301.290	0.280	0.490	0.880
2020/01/31 10:35:28.8	301.260	0.260	0.510	0.920
2020/01/31 10:35:28.9	301.220	0.240	0.520	0.970
2020/01/31 10:35:29.0	301.190	0.220	0.540	1.010
2020/01/31 10:35:29.1	301.150	0.200	0.550	1.050
2020/01/31 10:35:29.2	301.110	0.180	0.560	1.080
2020/01/31 10:35:29.3	301.080	0.160	0.570	1.120
2020/01/31 10:35:29.4	301.030	0.140	0.570	1.150
2020/01/31 10:35:29.5	300.990	0.120	0.570	1.170
2020/01/31 10:35:29.6	300.950	0.100	0.570	1.200
2020/01/31 10:35:29.7	300.920	0.080	0.560	1.220
2020/01/31 10:35:29.8	300.880	0.060	0.560	1.230
2020/01/31 10:35:29.9	300.850	0.040	0.540	1.240
2020/01/31 10:35:30.0	300.810	0.020	0.530	1.240
2020/01/31 10:35:30.1	300.780	0.010	0.510	1.240
2020/01/31 10:35:30.2	300.750	-0.010	0.480	1.230
2020/01/31 10:35:30.3	300.720	-0.020	0.450	1.210
2020/01/31 10:35:30.4	300.690	-0.030	0.420	1.190
2020/01/31 10:35:30.5	300.660	-0.050	0.390	1.160
2020/01/31 10:35:30.6	300.640	-0.060	0.340	1.130
2020/01/31 10:35:30.7	300.620	-0.070	0.300	1.090
2020/01/31 10:35:30.8	300.600	-0.070	0.250	1.050
2020/01/31 10:35:30.9	300.580	-0.080	0.200	1.010
2020/01/31 10:35:31.0	300.570	-0.090	0.140	0.960
2020/01/31 10:35:31.1	300.560	-0.090	0.080	0.910
2020/01/31 10:35:31.2	300.550	-0.100	0.020	0.850
2020/01/31 10:35:31.3	300.540	-0.100	-0.040	0.790
2020/01/31 10:35:31.4	300.540	-0.100	-0.110	0.730
2020/01/31 10:35:31.5	300.540	-0.100	-0.170	0.670
2020/01/31 10:35:31.6	300.530	-0.100	-0.240	0.610
2020/01/31 10:35:31.7	300.530	-0.100	-0.300	0.540
2020/01/31 10:35:31.8	300.530	-0.100	-0.360	0.470
2020/01/31 10:35:31.9	300.530	-0.100	-0.430	0.410
2020/01/31 10:35:32.0	300.530	-0.100	-0.490	0.340
2020/01/31 10:35:32.1	300.530	-0.100	-0.540	0.280
2020/01/31 10:35:32.2	300.540	-0.100	-0.600	0.210
2020/01/31 10:35:32.3	300.540	-0.100	-0.650	0.150
2020/01/31 10:35:32.4	300.550	-0.100	-0.700	0.080
2020/01/31 10:35:32.5	300.550	-0.100	-0.740	0.020
2020/01/31 10:35:32.6	300.550	-0.110	-0.780	-0.040
2020/01/31 10:35:32.7	300.560	-0.110	-0.820	-0.090
2020/01/31 10:35:32.8	300.570	-0.110	-0.840	-0.140
2020/01/31 10:35:32.9	300.570	-0.110	-0.870	-0.190
2020/01/31 10:35:33.0	300.580	-0.110	-0.890	-0.240
2020/01/31 10:35:33.1	300.590	-0.110	-0.900	-0.280
2020/01/31 10:35:33.2	300.600	-0.120	-0.900	-0.320
2020/01/31 10:35:33.3	300.610	-0.120	-0.910	-0.350
2020/01/31 10:35:33.4	300.610	-0.130	-0.900	-0.380
2020/01/31 10:35:33.5	300.620	-0.130	-0.900	-0.410
2020/01/31 10:35:33.6	300.630	-0.140	-0.880	-0.430
2020/01/31 10:35:33.7	300.640	-0.140	-0.870	-0.450
2020/01/31 10:35:33.8	300.660	-0.150	-0.840	-0.470
2020/01/31 10:35:33.9	300.670	-0.150	-0.820	-0.480
2020/01/31 10:35:34.0	300.680	-0.160	-0.790	-0.490
2020/01/31 10:35:34.1	300.700	-0.170	-0.760	-0.490
2020/01/31 10:35:34.2	300.710	-0.180	-0.730	-0.490
2020/01/31 10:35:34.3	300.730	-0.190	-0.690	-0.490
2020/01/31 10:35:34.4	300.740	-0.200	-0.650	-0.490
2020/01/31 10:35:34.5	300.760	-0.210	-0.610	-0.480
2020/01/31 10:35:34.6	300.770	-0.220	-0.570	-0.470
2020/01/31 10:35:34.7	300.790	-0.230	-0.530	-0.470
2020/01/31 10:35:34.8	300.810	-0.240	-0.490	-0.450
2020/01/31 10:35:34.9	300.820	-0.250	-0.450	-0.440
2020/01/31 10:35:35.0	300.840	-0.260	-0.410	-0.430
2020/01/31 10:35:35.1	300.860	-0.270	-0.370	-0.410
2020/01/31 10:35:35.2	300.880	-0.280	-0.330	-0.390
2020/01/31 10:35:35.3	300.890	-0.290	-0.290	-0.370
2020/01/31 10:35:35.4	300.910	-0.290	-0.260	-0.350
2020/01/31 10:35:35.5	300.930	-0.300	-0.230	-0.330
2020/01/31 10:35:35.6	300.950	-0.310	-0.200	-0.300
2020/01/31 10:35:35.7	300.970	-0.310	-0.170	-0.280
2020/01/31 10:35:35.8	300.990	-0.320	-0.150	-0.260
2020/01/31 10:35:35.9	301.010	-0.320	-0.120	-0.230
2020/01/31 10:35:36.0	301.030	-0.320	-0.110	-0.210
2020/01/31 10:35:36.1	301.050	-0.320	-0.090	-0.180
2020/01/31 10:35:36.2	301.080	-0.320	-0.080	-0.150
2020/01/31 10:35:36.3	301.100	-0.320	-0.070	-0.130
2020/01/31 10:35:36.4	301.130	-0.320	-0.060	-0.100
2020/01/31 10:35:36.5	301.150	-0.310	-0.060	-0.070
2020/01/31 10:35:36.6	301.170	-0.310	-0.060	-0.040
2020/01/31 10:35:36.7	301.190	-0.300	-0.060	-0.020
2020/01/31 10:35:36.8	301.210	-0.290	-0.070	0.010
2020/01/31 10:35:36.9	301.230	-0.280	-0.080	0.040
2020/01/31 10:35:37.0	301.250	-0.270	-0.090	0.070
2020/01/31 10:35:37.1	301.270	-0.250	-0.100	0.100
2020/01/31 10:35:37.2	301.290	-0.240	-0.120	0.120
2020/01/31 10:35:37.3	301.300	-0.220	-0.140	0.150
2020/01/31 10:35:37.4	301.310	-0.210	-0.160	0.180
2020/01/31 10:35:37.5	301.320	-0.190	-0.180	0.210
2020/01/31 10:35:37.6	301.330	-0.170	-0.200	0.240
2020/01/31 10:35:37.7	301.340	-0.160	-0.230	0.260
2020/01/31 10:35:37.8	301.350	-0.140	-0.250	0.290
2020/01/31 10:35:37.9	301.360	-0.120	-0.280	0.320
2020/01/31 10:35:38.0	301.360	-0.100	-0.310	0.340
2020/01/31 10:35:38.1	301.370	-0.080	-0.340	0.370
2020/01/31 10:35:38.2	301.370	-0.060	-0.370	0.390
2020/01/31 10:35:38.3	301.370	-0.040	-0.400	0.410
2020/01/31 10:35:38.4	301.360	-0.020	-0.430	0.430
2020/01/31 10:35:38.5	301.360	-0.010	-0.460	0.450
2020/01/31 10:35:38.6	301.360	0.010	-0.490	0.470
2020/01/31 10:35:38.7	301.360	0.030	-0.520	0.490
2020/01/31 10:35:38.8	301.360	0.050	-0.540	0.500
2020/01/31 10:35:38.9	301.350	0.060	-0.570	0.520
2020/01/31 10:35:39.0	301.350	0.080	-0.600	0.540
2020/01/31 10:35:39.1	301.350	0.100	-0.620	0.550
2020/01/31 10:35:39.2	301.340	0.110	-0.650	0.560
2020/01/31 10:35:39.3	301.340	0.130	-0.670	0.570
2020/01/31 10:35:39.4	301.310	0.140	-0.690	0.590
2020/01/31 10:35:39.5	301.310	0.160	-0.700	0.600
2020/01/31 10:35:39.6	301.300	0.170	-0.720	0.610
2020/01/31 10:35:39.7	301.290	0.180	-0.730	0.620
2020/01/31 10:35:39.8	301.280	0.190	-0.730	0.630
2020/01/31 10:35:39.9	301.270	0.210	-0.740	0.640
2020/01/31 10:35:40.0	301.260	0.220	-0.740	0.650
2020/01/31 10:35:40.1	301.250	0.230	-0.730	0.660
2020/01/31 10:35:40.2	301.240	0.240	-0.720	0.670
2020/01/31 10:35:40.3	301.230	0.250	-0.710	0.680
2020/01/31 10:35:40.4	301.210	0.260	-0.700	0.690
2020/01/31 10:35:40.5	301.200	0.260	-0.680	0.700
2020/01/31 10:35:40.6	301.180	0.270	-0.650	0.710
2020/01/31 10:35:40.7	301.170	0.280	-0.630	0.730
2020/01/31 10:35:40.8	301.150	0.290	-0.600	0.740
2020/01/31 10:35:40.9	301.130	0.290	-0.560	0.750
2020/01/31 10:35:41.0	301.120	0.300	-0.530	0.760
2020/01/31 10:35:41.1	301.100	0.300	-0.490	0.770
2020/01/31 10:35:41.2	301.080	0.310	-0.450	0.790
2020/01/31 10:35:41.3	301.070	0.310	-0.410	0.800
2020/01/31 10:35:41.4	301.050	0.320	-0.360	0.810
2020/01/31 10:35:41.5	301.030	0.320	-0.320	0.820
2020/01/31 10:35:41.6	301.020	0.330	-0.270	0.830
2020/01/31 10:35:41.7	301.000	0.330	-0.220	0.840
2020/01/31 10:35:41.8	300.980	0.330	-0.170	0.850
2020/01/31 10:35:41.9	300.960	0.330	-0.130	0.860
2020/01/31 10:35:42.0	300.950	0.330	-0.080	0.860
2020/01/31 10:35:42.1	300.930	0.330	-0.030	0.870
2020/01/31 10:35:42.2	300.910	0.330	0.020	0.870
2020/01/31 10:35:42.3	300.900	0.330	0.060	0.880
2020/01/31 10:35:42.4	300.880	0.330	0.100	0.880
2020/01/31 10:35:42.5	300.870	0.330	0.150	0.880
2020/01/31 10:35:42.6	300.850	0.320	0.190	0.880
2020/01/31 10:35:42.7	300.830	0.320	0.230	0.890
2020/01/31 10:35:42.8	300.820	0.310	0.260	0.880
2020/01/31 10:35:42.9	300.800	0.310	0.300	0.880
2020/01/31 10:35:43.0	300.790	0.300	0.330	0.880
2020/01/31 10:35:43.1	300.780	0.290	0.360	0.870
2020/01/31 10:35:43.2	300.760	0.290	0.390	0.870
2020/01/31 10:35:43.3	300.750	0.280	0.410	0.860
2020/01/31 10:35:43.4	300.740	0.270	0.430	0.850
2020/01/31 10:35:43.5	300.730	0.260	0.450	0.840
2020/01/31 10:35:43.6	300.720	0.250	0.470	0.820
2020/01/31 10:35:43.7	300.710	0.240	0.480	0.810
2020/01/31 10:35:43.8	300.700	0.220	0.490	0.790
2020/01/31 10:35:43.9	300.690	0.210	0.500	0.770
2020/01/31 10:35:44.0	300.680	0.200	0.510	0.750
2020/01/31 10:35:44.1	300.680	0.180	0.510	0.720
2020/01/31 10:35:44.2	300.670	0.160	0.520	0.700
2020/01/31 10:35:44.3	300.670	0.150	0.510	0.670
2020/01/31 10:35:44.4	300.670	0.130	0.510	0.640
2020/01/31 10:35:44.5	300.670	0.110	0.500	0.610
2020/01/31 10:35:44.6	300.660	0.100	0.500	0.570
2020/01/31 10:35:44.7	300.660	0.080	0.490	0.530
2020/01/31 10:35:44.8	300.660	0.060	0.480	0.490
2020/01/31 10:35:44.9	300.660	0.040	0.460	0.450
2020/01/31 10:35:45.0	300.660	0.020	0.440	0.410
2020/01/31 10:35:45.1	300.660	-0.000	0.430	0.360
2020/01/31 10:35:45.2	300.670	-0.020	0.400	0.320
2020/01/31 10:35:45.3	300.670	-0.040	0.380	0.270
2020/01/31 10:35:45.4	300.680	-0.060	0.350	0.220
2020/01/31 10:35:45.5	300.690	-0.080	0.330	0.160
2020/01/31 10:35:45.6	300.700	-0.100	0.300	0.110
2020/01/31 10:35:45.7	300.710	-0.120	0.260	0.060
2020/01/31 10:35:45.8	300.720	-0.130	0.230	0.000
2020/01/31 10:35:45.9	300.730	-0.150	0.190	-0.060
2020/01/31 10:35:46.0	300.750	-0.170	0.150	-0.110
2020/01/31 10:35:46.1	300.770	-0.180	0.110	-0.170
2020/01/31 10:35:46.2	300.790	-0.200	0.070	-0.230
2020/01/31 10:35:46.3	300.810	-0.210	0.030	-0.290
2020/01/31 10:35:46.4	300.830	-0.220	-0.020	-0.350
2020/01/31 10:35:46.5	300.850	-0.230	-0.070	-0.410
2020/01/31 10:35:46.6	300.880	-0.240	-0.120	-0.470
2020/01/31 10:35:46.7	300.900	-0.250	-0.170	-0.530
2020/01/31 10:35:46.8	300.930	-0.260	-0.220	-0.580
2020/01/31 10:35:46.9	300.960	-0.270	-0.270	-0.640
2020/01/31 10:35:47.0	300.990	-0.270	-0.320	-0.690
2020/01/31 10:35:47.1	301.020	-0.270	-0.370	-0.740
2020/01/31 10:35:47.2	301.050	-0.280	-0.420	-0.780
2020/01/31 10:35:47.3	301.090	-0.280	-0.470	-0.830
2020/01/31 10:35:47.4	301.120	-0.280	-0.520	-0.870
2020/01/31 10:35:47.5	301.150	-0.280	-0.570	-0.910
2020/01/31 10:35:47.6	301.180	-0.270	-0.610	-0.940
2020/01/31 10:35:47.7	301.210	-0.270	-0.660	-0.970
2020/01/31 10:35:47.8	301.250	-0.270	-0.700	-0.990
2020/01/31 10:35:47.9	301.280	-0.260	-0.750	-1.010
2020/01/31 10:35:48.0	301.310	-0.250	-0.790	-1.020
2020/01/31 10:35:48.1	301.340	-0.250	-0.830	-1.030
2020/01/31 10:35:48.2	301.370	-0.240	-0.860	-1.040
2020/01/31 10:35:48.3	301.400	-0.230	-0.900	-1.040
2020/01/31 10:35:48.4	301.430	-0.220	-0.930	-1.030
2020/01/31 10:35:48.5	301.460	-0.210	-0.960	-1.020
2020/01/31 10:35:48.6	301.490	-0.200	-0.990	-1.010
2020/01/31 10:35:48.7	301.510	-0.190	-1.010	-0.990
2020/01/31 10:35:48.8	301.530	-0.180	-1.030	-0.970
2020/01/31 10:35:48.9	301.550	-0.170	-1.050	-0.940
2020/01/31 10:35:49.0	301.570	-0.160	-1.060	-0.910
2020/01/31 10:35:49.1	301.580	-0.150	-1.070	-0.870
2020/01/31 10:35:49.2	301.590	-0.140	-1.070	-0.830
2020/01/31 10:35:49.3	301.600	-0.130	-1.070	-0.790
2020/01/31 10:35:49.4	301.610	-0.120	-1.060	-0.740
2020/01/31 10:35:49.5	301.620	-0.110	-1.060	-0.680
2020/01/31 10:35:49.6	301.620	-0.110	-1.050	-0.630
2020/01/31 10:35:49.7	301.620	-0.100	-1.030	-0.570
2020/01/31 10:35:49.8	301.620	-0.090	-1.010	-0.500
2020/01/31 10:35:49.9	301.610	-0.080	-0.990	-0.440
2020/01/31 10:35:50.0	301.610	-0.080	-0.970	-0.370
2020/01/31 10:35:50.1	301.600	-0.070	-0.940	-0.300
2020/01/31 10:35:50.2	301.590	-0.070	-0.910	-0.220
2020/01/31 10:35:50.3	301.580	-0.060	-0.880	-0.150
2020/01/31 10:35:50.4	301.570	-0.060	-0.840	-0.070
2020/01/31 10:35:50.5	301.560	-0.060	-0.800	0.010
2020/01/31 10:35:50.6	301.540	-0.050	-0.760	0.080
2020/01/31 10:35:50.7	301.530	-0.050	-0.720	0.160
2020/01/31 10:35:50.8	301.510	-0.050	-0.680	0.240
2020/01/31 10:35:50.9	301.490	-0.050	-0.630	0.310
2020/01/31 10:35:51.0	301.480	-0.050	-0.590	0.390
2020/01/31 10:35:51.1	301.460	-0.050	-0.540	0.460
2020/01/31 10:35:51.2	301.440	-0.050	-0.500	0.530
2020/01/31 10:35:51.3	301.420	-0.050	-0.450	0.600
2020/01/31 10:35:51.4	301.410	-0.060	-0.400	0.670
2020/01/31 10:35:51.5	301.390	-0.060	-0.360	0.740
2020/01/31 10:35:51.6	301.370	-0.060	-0.320	0.800
2020/01/31 10:35:51.7	301.360	-0.060	-0.280	0.860
2020/01/31 10:35:51.8	301.340	-0.060	-0.240	0.920
2020/01/31 10:35:51.9	301.320	-0.070	-0.210	0.980
2020/01/31 10:35:52.0	301.310	-0.070	-0.180	1.030
2020/01/31 10:35:52.1	301.290	-0.070	-0.140	1.080
2020/01/31 10:35:52.2	301.280	-0.070	-0.120	1.120
2020/01/31 10:35:52.3	301.260	-0.070	-0.090	1.160
2020/01/31 10:35:52.4	301.240	-0.070	-0.070	1.200
2020/01/31 10:35:52.5	301.230	-0.070	-0.050	1.230
2020/01/31 10:35:52.6	301.220	-0.070	-0.030	1.260
2020/01/31 10:35:52.7	301.200	-0.070	-0.010	1.290
2020/01/31 10:35:52.8	301.190	-0.070	0.010	1.310
2020/01/31 10:35:52.9	301.180	-0.070	0.020	1.330
2020/01/31 10:35:53.0	301.170	-0.060	0.030	1.350
2020/01/31 10:35:53.1	301.160	-0.060	0.040	1.360
2020/01/31 10:35:53.2	301.150	-0.060	0.050	1.370
2020/01/31 10:35:53.3	301.150	-0.050	0.050	1.370
2020/01/31 10:35:53.4	301.150	-0.050	0.060	1.370
2020/01/31 10:35:53.5	301.140	-0.040	0.060	1.370
2020/01/31 10:35:53.6	301.140	-0.030	0.060	1.370
2020/01/31 10:35:53.7	301.130	-0.030	0.060	1.360
2020/01/31 10:35:53.8	301.130	-0.020	0.060	1.350
2020/01/31 10:35:53.9	301.130	-0.010	0.060	1.340
2020/01/31 10:35:54.0	301.130	-0.010	0.060	1.320
2020/01/31 10:35:54.1	301.130	0.000	0.060	1.300
2020/01/31 10:35:54.2	301.130	0.010	0.060	1.280
2020/01/31 10:35:54.3	301.130	0.020	0.060	1.260
2020/01/31 10:35:54.4	301.140	0.030	0.060	1.240
2020/01/31 10:35:54.5	301.140	0.040	0.070	1.220
2020/01/31 10:35:54.6	301.150	0.040	0.070	1.190
2020/01/31 10:35:54.7	301.150	0.050	0.070	1.170
2020/01/31 10:35:54.8	301.160	0.060	0.080	1.140
2020/01/31 10:35:54.9	301.170	0.070	0.080	1.110
2020/01/31 10:35:55.0	301.170	0.080	0.090	1.080
2020/01/31 10:35:55.1	301.180	0.080	0.100	1.050
2020/01/31 10:35:55.2	301.190	0.090	0.100	1.020
2020/01/31 10:35:55.3	301.200	0.100	0.110	0.990
2020/01/31 10:35:55.4	301.210	0.100	0.110	0.960
2020/01/31 10:35:55.5	301.220	0.110	0.120	0.920
2020/01/31 10:35:55.6	301.230	0.120	0.130	0.890
2020/01/31 10:35:55.7	301.240	0.120	0.130	0.850
2020/01/31 10:35:55.8	301.250	0.130	0.140	0.820
2020/01/31 10:35:55.9	301.260	0.130	0.140	0.780
2020/01/31 10:35:56.0	301.270	0.140	0.140	0.740
2020/01/31 10:35:56.1	301.280	0.140	0.140	0.700
2020/01/31 10:35:56.2	301.300	0.150	0.140	0.670
2020/01/31 10:35:56.3	301.310	0.150	0.140	0.630
2020/01/31 10:35:56.4	301.310	0.150	0.140	0.590
2020/01/31 10:35:56.5	301.320	0.160	0.130	0.550
2020/01/31 10:35:56.6	301.330	0.160	0.120	0.520
2020/01/31 10:35:56.7	301.350	0.160	0.110	0.480
2020/01/31 10:35:56.8	301.360	0.160	0.100	0.450
2020/01/31 10:35:56.9	301.370	0.170	0.080	0.410
2020/01/31 10:35:57.0	301.380	0.170	0.070	0.370
2020/01/31 10:35:57.1	301.390	0.170	0.050	0.340
2020/01/31 10:35:57.2	301.410	0.180	0.030	0.300
2020/01/31 10:35:57.3	301.420	0.180	0.000	0.270
2020/01/31 10:35:57.4	301.410	0.180	-0.030	0.230
2020/01/31 10:35:57.5	301.420	0.190	-0.050	0.200
2020/01/31 10:35:57.6	301.440	0.190	-0.080	0.160
2020/01/31 10:35:57.7	301.450	0.190	-0.120	0.130
2020/01/31 10:35:57.8	301.470	0.200	-0.150	0.100
2020/01/31 10:35:57.9	301.480	0.200	-0.190	0.060
2020/01/31 10:35:58.0	301.500	0.210	-0.220	0.030
2020/01/31 10:35:58.1	301.510	0.210	-0.260	0.000
2020/01/31 10:35:58.2	301.530	0.220	-0.300	-0.030
2020/01/31 10:35:58.3	301.540	0.220	-0.330	-0.060
2020/01/31 10:35:58.4	301.560	0.230	-0.370	-0.090
2020/01/31 10:35:58.5	301.580	0.230	-0.410	-0.110
2020/01/31 10:35:58.6	301.600	0.240	-0.450	-0.140
2020/01/31 10:35:58.7	301.620	0.240	-0.480	-0.160
2020/01/31 10:35:58.8	301.640	0.240	-0.510	-0.190
2020/01/31 10:35:58.9	301.660	0.250	-0.540	-0.210
2020/01/31 10:35:59.0	301.680	0.250	-0.570	-0.230
2020/01/31 10:35:59.1	301.700	0.250	-0.600	-0.250
2020/01/31 10:35:59.2	301.720	0.250	-0.620	-0.270
2020/01/31 10:35:59.3	301.740	0.250	-0.640	-0.280
2020/01/31 10:35:59.4	301.750	0.250	-0.660	-0.290
2020/01/31 10:35:59.5	301.770	0.240	-0.670	-0.300
2020/01/31 10:35:59.6	301.790	0.240	-0.680	-0.310
2020/01/31 10:35:59.7	301.800	0.230	-0.690	-0.320
2020/01/31 10:35:59.8	301.820	0.220	-0.690	-0.320
2020/01/31 10:35:59.9	301.830	0.210	-0.690	-0.320
2020/01/31 10:36:00.0	301.840	0.200	-0.680	-0.320
2020/01/31 10:36:00.1	301.850	0.190	-0.670	-0.310
2020/01/31 10:36:00.2	301.860	0.180	-0.660	-0.300
2020/01/31 10:36:00.3	301.870	0.160	-0.650	-0.290
2020/01/31 10:36:00.4	301.860	0.140	-0.630	-0.280
2020/01/31 10:36:00.5	301.860	0.120	-0.610	-0.270
2020/01/31 10:36:00.6	301.860	0.100	-0.580	-0.250
2020/01/31 10:36:00.7	301.860	0.080	-0.550	-0.230
2020/01/31 10:36:00.8	301.860	0.060	-0.530	-0.210
2020/01/31 10:36:00.9	301.850	0.040	-0.490	-0.190
2020/01/31 10:36:01.0	301.850	0.010	-0.460	-0.170
2020/01/31 10:36:01.1	301.840	-0.010	-0.430	-0.140
2020/01/31 10:36:01.2	301.830	-0.040	-0.400	-0.120
2020/01/31 10:36:01.3	301.820	-0.060	-0.360	-0.090
2020/01/31 10:36:01.4	301.810	-0.080	-0.330	-0.060
2020/01/31 10:36:01.5	301.790	-0.110	-0.290	-0.030
2020/01/31 10:36:01.6	301.780	-0.130	-0.260	-0.010
2020/01/31 10:36:01.7	301.770	-0.150	-0.230	0.020
2020/01/31 10:36:01.8	301.760	-0.170	-0.200	0.050
2020/01/31 10:36:01.9	301.740	-0.190	-0.170	0.070
2020/01/31 10:36:02.0	301.730	-0.210	-0.140	0.100
2020/01/31 10:36:02.1	301.720	-0.230	-0.120	0.120
2020/01/31 10:36:02.2	301.710	-0.240	-0.090	0.150
2020/01/31 10:36:02.3	301.690	-0.250	-0.070	0.170
2020/01/31 10:36:02.4	301.680	-0.270	-0.050	0.190
2020/01/31 10:36:02.5	301.670	-0.270	-0.040	0.210
2020/01/31 10:36:02.6	301.660	-0.280	-0.020	0.230
2020/01/31 10:36:02.7	301.650	-0.290	-0.010	0.250
2020/01/31 10:36:02.8	301.630	-0.290	-0.000	0.270
2020/01/31 10:36:02.9	301.620	-0.290	0.000	0.290
2020/01/31 10:36:03.0	301.610	-0.290	0.010	0.310
2020/01/31 10:36:03.1	301.600	-0.280	0.010	0.330
2020/01/31 10:36:03.2	301.590	-0.280	0.010	0.350
2020/01/31 10:36:03.3	301.580	-0.270	0.010	0.370
2020/01/31 10:36:03.4	301.570	-0.260	0.000	0.390
2020/01/31 10:36:03.5	301.560	-0.250	-0.010	0.410
2020/01/31 10:36:03.6	301.550	-0.240	-0.010	0.420
2020/01/31 10:36:03.7	301.540	-0.230	-0.020	0.440
2020/01/31 10:36:03.8	301.530	-0.210	-0.030	0.460
2020/01/31 10:36:03.9	301.520	-0.200	-0.050	0.480
2020/01/31 10:36:04.0	301.510	-0.190	-0.060	0.500
2020/01/31 10:36:04.1	301.500	-0.170	-0.080	0.520
2020/01/31 10:36:04.2	301.490	-0.160	-0.090	0.530
2020/01/31 10:36:04.3	301.490	-0.140	-0.110	0.550
2020/01/31 10:36:04.4	301.480	-0.130	-0.130	0.560
2020/01/31 10:36:04.5	301.470	-0.110	-0.150	0.570
2020/01/31 10:36:04.6	301.470	-0.100	-0.170	0.580
2020/01/31 10:36:04.7	301.460	-0.090	-0.190	0.590
2020/01/31 10:36:04.8	301.460	-0.080	-0.200	0.600
2020/01/31 10:36:04.9	301.460	-0.070	-0.220	0.610
2020/01/31 10:36:05.0	301.450	-0.060	-0.240	0.610
2020/01/31 10:36:05.1	301.450	-0.050	-0.260	0.610
2020/01/31 10:36:05.2	301.450	-0.040	-0.280	0.610
2020/01/31 10:36:05.3	301.450	-0.040	-0.300	0.610
2020/01/31 10:36:05.4	301.450	-0.030	-0.320	0.610
2020/01/31 10:36:05.5	301.440	-0.030	-0.330	0.610
2020/01/31 10:36:05.6	301.450	-0.030	-0.340	0.610
2020/01/31 10:36:05.7	301.450	-0.030	-0.350	0.610
2020/01/31 10:36:05.8	301.450	-0.030	-0.360	0.600
2020/01/31 10:36:05.9	301.450	-0.030	-0.370	0.600
2020/01/31 10:36:06.0	301.450	-0.030	-0.380	0.590
2020/01/31 10:36:06.1	301.450	-0.030	-0.380	0.590
2020/01/31 10:36:06.2	301.450	-0.040	-0.380	0.580
2020/01/31 10:36:06.3	301.450	-0.040	-0.380	0.570
2020/01/31 10:36:06.4	301.470	-0.050	-0.370	0.570
2020/01/31 10:36:06.5	301.470	-0.050	-0.370	0.560
2020/01/31 10:36:06.6	301.470	-0.060	-0.360	0.550
2020/01/31 10:36:06.7	301.470	-0.070	-0.350	0.540
2020/01/31 10:36:06.8	301.470	-0.070	-0.340	0.530
2020/01/31 10:36:06.9	301.480	-0.080	-0.320	0.520
2020/01/31 10:36:07.0	301.480	-0.090	-0.310	0.510
2020/01/31 10:36:07.1	301.480	-0.090	-0.290	0.500
2020/01/31 10:36:07.2	301.480	-0.100	-0.270	0.480
2020/01/31 10:36:07.3	301.480	-0.100	-0.250	0.470
2020/01/31 10:36:07.4	301.490	-0.110	-0.240	0.460
2020/01/31 10:36:07.5	301.490	-0.110	-0.210	0.450
2020/01/31 10:36:07.6	301.490	-0.110	-0.190	0.440
2020/01/31 10:36:07.7	301.490	-0.120	-0.170	0.430
2020/01/31 10:36:07.8	301.490	-0.120	-0.150	0.420
2020/01/31 10:36:07.9	301.490	-0.120	-0.120	0.410
2020/01/31 10:36:08.0	301.490	-0.120	-0.100	0.400
2020/01/31 10:36:08.1	301.490	-0.120	-0.080	0.390
2020/01/31 10:36:08.2	301.490	-0.110	-0.060	0.380
2020/01/31 10:36:08.3	301.500	-0.110	-0.040	0.370
2020/01/31 10:36:08.4	301.490	-0.110	-0.030	0.360
2020/01/31 10:36:08.5	301.500	-0.100	-0.020	0.340
2020/01/31 10:36:08.6	301.500	-0.100	-0.000	0.330
2020/01/31 10:36:08.7	301.500	-0.090	0.000	0.310
2020/01/31 10:36:08.8	301.510	-0.080	0.010	0.290
2020/01/31 10:36:08.9	301.510	-0.080	0.010	0.270
2020/01/31 10:36:09.0	301.520	-0.070	0.010	0.250
2020/01/31 10:36:09.1	301.530	-0.060	0.010	0.220
2020/01/31 10:36:09.2	301.540	-0.050	0.000	0.200
2020/01/31 10:36:09.3	301.550	-0.030	-0.010	0.170
2020/01/31 10:36:09.4	301.560	-0.020	-0.020	0.140
2020/01/31 10:36:09.5	301.570	-0.010	-0.030	0.110
2020/01/31 10:36:09.6	301.590	0.010	-0.050	0.070
2020/01/31 10:36:09.7	301.600	0.020	-0.080	0.040
2020/01/31 10:36:09.8	301.620	0.040	-0.100	0.010
2020/01/31 10:36:09.9	301.640	0.050	-0.120	-0.020
2020/01/31 10:36:10.0	301.650	0.070	-0.150	-0.050
2020/01/31 10:36:10.1	301.670	0.090	-0.180	-0.080
2020/01/31 10:36:10.2	301.690	0.100	-0.210	-0.110
2020/01/31 10:36:10.3	301.710	0.120	-0.240	-0.130
2020/01/31 10:36:10.4	301.730	0.140	-0.280	-0.160
2020/01/31 10:36:10.5	301.740	0.150	-0.310	-0.180
2020/01/31 10:36:10.6	301.760	0.170	-0.340	-0.200
2020/01/31 10:36:10.7	301.770	0.190	-0.370	-0.220
2020/01/31 10:36:10.8	301.790	0.200	-0.400	-0.230
2020/01/31 10:36:10.9	301.800	0.220	-0.420	-0.240
2020/01/31 10:36:11.0	301.810	0.230	-0.450	-0.250
2020/01/31 10:36:11.1	301.820	0.250	-0.470	-0.250
2020/01/31 10:36:11.2	301.830	0.260	-0.500	-0.260
2020/01/31 10:36:11.3	301.840	0.270	-0.520	-0.250
2020/01/31 10:36:11.4	301.860	0.280	-0.530	-0.250
2020/01/31 10:36:11.5	301.860	0.290	-0.550	-0.240
2020/01/31 10:36:11.6	301.860	0.300	-0.560	-0.230
2020/01/31 10:36:11.7	301.870	0.310	-0.570	-0.220
2020/01/31 10:36:11.8	301.870	0.310	-0.580	-0.200
2020/01/31 10:36:11.9	301.870	0.320	-0.590	-0.170
2020/01/31 10:36:12.0	301.860	0.320	-0.590	-0.150
2020/01/31 10:36:12.1	301.860	0.320	-0.600	-0.120
2020/01/31 10:36:12.2	301.860	0.320	-0.600	-0.090
2020/01/31 10:36:12.3	301.850	0.320	-0.590	-0.060
2020/01/31 10:36:12.4	301.860	0.320	-0.590	-0.020
2020/01/31 10:36:12.5	301.850	0.320	-0.580	0.020
2020/01/31 10:36:12.6	301.840	0.310	-0.570	0.060
2020/01/31 10:36:12.7	301.830	0.310	-0.560	0.100
2020/01/31 10:36:12.8	301.820	0.300	-0.550	0.140
2020/01/31 10:36:12.9	301.810	0.290	-0.540	0.180
2020/01/31 10:36:13.0	301.800	0.280	-0.520	0.230
2020/01/31 10:36:13.1	301.780	0.270	-0.500	0.270
2020/01/31 10:36:13.2	301.770	0.260	-0.490	0.320
2020/01/31 10:36:13.3	301.760	0.250	-0.470	0.360
2020/01/31 10:36:13.4	301.750	0.240	-0.450	0.410
2020/01/31 10:36:13.5	301.740	0.220	-0.430	0.450
2020/01/31 10:36:13.6	301.720	0.210	-0.410	0.490
2020/01/31 10:36:13.7	301.710	0.190	-0.400	0.530
2020/01/31 10:36:13.8	301.700	0.180	-0.380	0.570
2020/01/31 10:36:13.9	301.680	0.160	-0.360	0.610
2020/01/31 10:36:14.0	301.670	0.150	-0.340	0.650
2020/01/31 10:36:14.1	301.660	0.130	-0.320	0.680
2020/01/31 10:36:14.2	301.640	0.110	-0.300	0.710
2020/01/31 10:36:14.3	301.630	0.090	-0.290	0.740
2020/01/31 10:36:14.4	301.610	0.080	-0.280	0.760
2020/01/31 10:36:14.5	301.600	0.060	-0.260	0.780
2020/01/31 10:36:14.6	301.590	0.040	-0.250	0.800
2020/01/31 10:36:14.7	301.580	0.020	-0.230	0.820
2020/01/31 10:36:14.8	301.570	-0.000	-0.220	0.830
2020/01/31 10:36:14.9	301.560	-0.020	-0.210	0.840
2020/01/31 10:36:15.0	301.550	-0.040	-0.190	0.840
2020/01/31 10:36:15.1	301.540	-0.060	-0.180	0.840
2020/01/31 10:36:15.2	301.540	-0.080	-0.170	0.840
2020/01/31 10:36:15.3	301.530	-0.100	-0.160	0.840
2020/01/31 10:36:15.4	301.530	-0.120	-0.150	0.830
2020/01/31 10:36:15.5	301.520	-0.140	-0.140	0.820
2020/01/31 10:36:15.6	301.520	-0.160	-0.130	0.810
2020/01/31 10:36:15.7	301.510	-0.180	-0.120	0.790
2020/01/31 10:36:15.8	301.500	-0.200	-0.110	0.780
2020/01/31 10:36:15.9	301.500	-0.220	-0.110	0.760
2020/01/31 10:36:16.0	301.490	-0.240	-0.100	0.740
2020/01/31 10:36:16.1	301.490	-0.250	-0.090	0.720
2020/01/31 10:36:16.2	301.480	-0.270	-0.070	0.700
2020/01/31 10:36:16.3	301.470	-0.290	-0.060	0.670
2020/01/31 10:36:16.4	301.470	-0.310	-0.050	0.650
2020/01/31 10:36:16.5	301.460	-0.320	-0.040	0.630
2020/01/31 10:36:16.6	301.450	-0.340	-0.030	0.600
2020/01/31 10:36:16.7	301.450	-0.350	-0.010	0.580
2020/01/31 10:36:16.8	301.440	-0.360	0.000	0.550
2020/01/31 10:36:16.9	301.430	-0.370	0.020	0.530
2020/01/31 10:36:17.0	301.420	-0.390	0.030	0.500
2020/01/31 10:36:17.1	301.410	-0.390	0.050	0.470
2020/01/31 10:36:17.2	301.400	-0.400	0.060	0.450
2020/01/31 10:36:17.3	301.390	-0.410	0.080	0.420
2020/01/31 10:36:17.4	301.380	-0.410	0.090	0.400
2020/01/31 10:36:17.5	301.370	-0.420	0.100	0.370
2020/01/31 10:36:17.6	301.360	-0.420	0.110	0.340
2020/01/31 10:36:17.7	301.350	-0.420	0.120	0.320
2020/01/31 10:36:17.8	301.340	-0.410	0.130	0.290
2020/01/31 10:36:17.9	301.330	-0.410	0.140	0.270
2020/01/31 10:36:18.0	301.330	-0.400	0.150	0.240
2020/01/31 10:36:18.1	301.320	-0.400	0.150	0.220
2020/01/31 10:36:18.2	301.320	-0.380	0.150	0.190
2020/01/31 10:36:18.3	301.310	-0.370	0.150	0.170
2020/01/31 10:36:18.4	301.300	-0.360	0.150	0.150
2020/01/31 10:36:18.5	301.290	-0.340	0.150	0.120
2020/01/31 10:36:18.6	301.290	-0.320	0.140	0.100
2020/01/31 10:36:18.7	301.280	-0.300	0.130	0.080
2020/01/31 10:36:18.8	301.280	-0.280	0.120	0.060
2020/01/31 10:36:18.9	301.280	-0.250	0.100	0.050
2020/01/31 10:36:19.0	301.280	-0.230	0.090	0.030
2020/01/31 10:36:19.1	301.280	-0.200	0.070	0.020
2020/01/31 10:36:19.2	301.280	-0.170	0.050	0.000
2020/01/31 10:36:19.3	301.280	-0.140	0.020	-0.010
2020/01/31 10:36:19.4	301.290	-0.110	-0.000	-0.020
2020/01/31 10:36:19.5	301.290	-0.080	-0.030	-0.030
2020/01/31 10:36:19.6	301.290	-0.050	-0.050	-0.030
2020/01/31 10:36:19.7	301.290	-0.020	-0.080	-0.030
2020/01/31 10:36:19.8	301.290	0.020	-0.110	-0.040
2020/01/31 10:36:19.9	301.290	0.050	-0.130	-0.030
2020/01/31 10:36:20.0	301.290	0.080	-0.160	-0.030
2020/01/31 10:36:20.1	301.290	0.110	-0.180	-0.020
2020/01/31 10:36:20.2	301.290	0.140	-0.210	-0.010
2020/01/31 10:36:20.3	301.290	0.170	-0.230	0.010
2020/01/31 10:36:20.4	301.290	0.200	-0.250	0.030
2020/01/31 10:36:20.5	301.280	0.230	-0.270	0.050
2020/01/31 10:36:20.6	301.280	0.260	-0.290	0.070
2020/01/31 10:36:20.7	301.270	0.280	-0.300	0.100
2020/01/31 10:36:20.8	301.270	0.310	-0.310	0.130
2020/01/31 10:36:20.9	301.260	0.330	-0.330	0.160
2020/01/31 10:36:21.0	301.260	0.350	-0.340	0.190
2020/01/31 10:36:21.1	301.250	0.360	-0.350	0.230
2020/01/31 10:36:21.2	301.250	0.380	-0.350	0.270
2020/01/31 10:36:21.3	301.240	0.390	-0.360	0.300
2020/01/31 10:36:21.4	301.240	0.400	-0.360	0.350
2020/01/31 10:36:21.5	301.240	0.410	-0.370	0.390
2020/01/31 10:36:21.6	301.230	0.410	-0.370	0.420
2020/01/31 10:36:21.7	301.230	0.420	-0.370	0.460
2020/01/31 10:36:21.8	301.220	0.420	-0.370	0.500
2020/01/31 10:36:21.9	301.210	0.420	-0.370	0.540
2020/01/31 10:36:22.0	301.210	0.410	-0.380	0.580
2020/01/31 10:36:22.1	301.210	0.410	-0.380	0.620
2020/01/31 10:36:22.2	301.200	0.400	-0.380	0.650
2020/01/31 10:36:22.3	301.200	0.390	-0.380	0.680
2020/01/31 10:36:22.4	301.180	0.370	-0.380	0.720
2020/01/31 10:36:22.5	301.180	0.360	-0.380	0.750
2020/01/31 10:36:22.6	301.180	0.340	-0.380	0.770
2020/01/31 10:36:22.7	301.170	0.320	-0.380	0.800
2020/01/31 10:36:22.8	301.170	0.300	-0.390	0.820
2020/01/31 10:36:22.9	301.170	0.280	-0.390	0.840
2020/01/31 10:36:23.0	301.160	0.260	-0.400	0.860
2020/01/31 10:36:23.1	301.160	0.230	-0.400	0.870
2020/01/31 10:36:23.2	301.160	0.210	-0.410	0.880
2020/01/31 10:36:23.3	301.160	0.190	-0.420	0.880
2020/01/31 10:36:23.4	301.160	0.160	-0.430	0.890
2020/01/31 10:36:23.5	301.160	0.130	-0.440	0.880
2020/01/31 10:36:23.6	301.170	0.110	-0.450	0.870
2020/01/31 10:36:23.7	301.170	0.080	-0.470	0.860
2020/01/31 10:36:23.8	301.180	0.060	-0.480	0.850
2020/01/31 10:36:23.9	301.180	0.030	-0.490	0.830
2020/01/31 10:36:24.0	301.190	0.010	-0.510	0.800
2020/01/31 10:36:24.1	301.200	-0.010	-0.520	0.780
2020/01/31 10:36:24.2	301.210	-0.030	-0.540	0.750
2020/01/31 10:36:24.3	301.220	-0.050	-0.550	0.720
2020/01/31 10:36:24.4	301.240	-0.070	-0.570	0.690
2020/01/31 10:36:24.5	301.260	-0.090	-0.580	0.650
2020/01/31 10:36:24.6	301.270	-0.100	-0.600	0.620
2020/01/31 10:36:24.7	301.280	-0.120	-0.610	0.580
2020/01/31 10:36:24.8	301.300	-0.130	-0.620	0.550
2020/01/31 10:36:24.9	301.310	-0.140	-0.630	0.510
2020/01/31 10:36:25.0	301.330	-0.150	-0.640	0.480
2020/01/31 10:36:25.1	301.340	-0.160	-0.650	0.440
2020/01/31 10:36:25.2	301.360	-0.160	-0.660	0.410
2020/01/31 10:36:25.3	301.370	-0.170	-0.660	0.370
2020/01/31 10:36:25.4	301.380	-0.170	-0.670	0.340
2020/01/31 10:36:25.5	301.400	-0.170	-0.670	0.310
2020/01/31 10:36:25.6	301.410	-0.170	-0.670	0.280
2020/01/31 10:36:25.7	301.430	-0.170	-0.670	0.250
2020/01/31 10:36:25.8	301.450	-0.170	-0.660	0.220
2020/01/31 10:36:25.9	301.470	-0.160	-0.660	0.190
2020/01/31 10:36:26.0	301.480	-0.160	-0.650	0.170
2020/01/31 10:36:26.1	301.500	-0.150	-0.640	0.140
2020/01/31 10:36:26.2	301.520	-0.150	-0.630	0.120
2020/01/31 10:36:26.3	301.530	-0.140	-0.610	0.100
2020/01/31 10:36:26.4	301.540	-0.130	-0.600	0.080
2020/01/31 10:36:26.5	301.560	-0.130	-0.580	0.070
2020/01/31 10:36:26.6	301.570	-0.120	-0.560	0.050
2020/01/31 10:36:26.7	301.590	-0.110	-0.530	0.040
2020/01/31 10:36:26.8	301.600	-0.110	-0.510	0.030
2020/01/31 10:36:26.9	301.610	-0.100	-0.480	0.030
2020/01/31 10:36:27.0	301.630	-0.090	-0.450	0.030
2020/01/31 10:36:27.1	301.630	-0.090	-0.420	0.030
2020/01/31 10:36:27.2	301.640	-0.080	-0.380	0.040
2020/01/31 10:36:27.3	301.650	-0.070	-0.350	0.040
2020/01/31 10:36:27.4	301.650	-0.070	-0.310	0.060
2020/01/31 10:36:27.5	301.650	-0.060	-0.270	0.080
2020/01/31 10:36:27.6	301.650	-0.060	-0.230	0.100
2020/01/31 10:36:27.7	301.640	-0.050	-0.190	0.120
2020/01/31 10:36:27.8	301.640	-0.050	-0.140	0.150
2020/01/31 10:36:27.9	301.630	-0.040	-0.100	0.180
2020/01/31 10:36:28.0	301.620	-0.040	-0.050	0.220
2020/01/31 10:36:28.1	301.610	-0.040	-0.010	0.250
2020/01/31 10:36:28.2	301.590	-0.030	0.030	0.290
2020/01/31 10:36:28.3	301.580	-0.030	0.080	0.330
2020/01/31 10:36:28.4	301.570	-0.030	0.120	0.370
2020/01/31 10:36:28.5	301.550	-0.020	0.160	0.410
2020/01/31 10:36:28.6	301.530	-0.020	0.200	0.450
2020/01/31 10:36:28.7	301.510	-0.020	0.230	0.490
2020/01/31 10:36:28.8	301.490	-0.020	0.270	0.530
2020/01/31 10:36:28.9	301.460	-0.010	0.300	0.560
2020/01/31 10:36:29.0	301.440	-0.010	0.320	0.600
2020/01/31 10:36:29.1	301.420	-0.010	0.340	0.630
2020/01/31 10:36:29.2	301.390	-0.010	0.360	0.660
2020/01/31 10:36:29.3	301.370	-0.000	0.380	0.690
2020/01/31 10:36:29.4	301.340	0.000	0.390	0.720
2020/01/31 10:36:29.5	301.310	0.000	0.390	0.750
2020/01/31 10:36:29.6	301.280	0.010	0.390	0.770
2020/01/31 10:36:29.7	301.260	0.010	0.390	0.790
2020/01/31 10:36:29.8	301.230	0.020	0.380	0.810
2020/01/31 10:36:29.9	301.200	0.020	0.370	0.830
2020/01/31 10:36:30.0	301.180	0.030	0.360	0.840
2020/01/31 10:36:30.1	301.150	0.040	0.340	0.850
2020/01/31 10:36:30.2	301.130	0.040	0.310	0.860
2020/01/31 10:36:30.3	301.110	0.050	0.290	0.860
2020/01/31 10:36:30.4	301.090	0.050	0.260	0.860
2020/01/31 10:36:30.5	301.070	0.060	0.230	0.860
2020/01/31 10:36:30.6	301.050	0.070	0.190	0.850
2020/01/31 10:36:30.7	301.030	0.080	0.160	0.840
2020/01/31 10:36:30.8	301.010	0.080	0.120	0.830
2020/01/31 10:36:30.9	301.000	0.090	0.080	0.820
2020/01/31 10:36:31.0	300.980	0.100	0.050	0.800
2020/01/31 10:36:31.1	300.970	0.110	0.010	0.780
2020/01/31 10:36:31.2	300.950	0.110	-0.030	0.760
2020/01/31 10:36:31.3	300.940	0.120	-0.060	0.740
2020/01/31 10:36:31.4	300.930	0.130	-0.100	0.720
2020/01/31 10:36:31.5	300.920	0.130	-0.130	0.700
2020/01/31 10:36:31.6	300.910	0.140	-0.160	0.670
2020/01/31 10:36:31.7	300.900	0.140	-0.190	0.650
2020/01/31 10:36:31.8	300.890	0.150	-0.210	0.630
2020/01/31 10:36:31.9	300.890	0.150	-0.230	0.600
2020/01/31 10:36:32.0	300.880	0.150	-0.250	0.580
2020/01/31 10:36:32.1	300.870	0.150	-0.270	0.560
2020/01/31 10:36:32.2	300.860	0.150	-0.290	0.530
2020/01/31 10:36:32.3	300.850	0.150	-0.300	0.510
2020/01/31 10:36:32.4	300.850	0.150	-0.310	0.490
2020/01/31 10:36:32.5	300.840	0.150	-0.320	0.470
2020/01/31 10:36:32.6	300.830	0.140	-0.330	0.440
2020/01/31 10:36:32.7	300.830	0.140	-0.330	0.420
2020/01/31 10:36:32.8	300.820	0.130	-0.340	0.390
2020/01/31 10:36:32.9	300.810	0.120	-0.340	0.370
2020/01/31 10:36:33.0	300.810	0.110	-0.340	0.350
2020/01/31 10:36:33.1	300.800	0.100	-0.340	0.320
2020/01/31 10:36:33.2	300.790	0.090	-0.340	0.300
2020/01/31 10:36:33.3	300.790	0.080	-0.340	0.280
2020/01/31 10:36:33.4	300.780	0.070	-0.340	0.250
2020/01/31 10:36:33.5	300.780	0.060	-0.340	0.230
2020/01/31 10:36:33.6	300.770	0.040	-0.340	0.210
2020/01/31 10:36:33.7	300.770	0.030	-0.340	0.190
2020/01/31 10:36:33.8	300.760	0.010	-0.340	0.170
2020/01/31 10:36:33.9	300.760	-0.000	-0.340	0.150
2020/01/31 10:36:34.0	300.760	-0.020	-0.340	0.130
2020/01/31 10:36:34.1	300.750	-0.040	-0.340	0.110
2020/01/31 10:36:34.2	300.750	-0.050	-0.340	0.090
2020/01/31 10:36:34.3	300.750	-0.070	-0.340	0.070
2020/01/31 10:36:34.4	300.740	-0.090	-0.350	0.050
2020/01/31 10:36:34.5	300.750	-0.100	-0.350	0.040
2020/01/31 10:36:34.6	300.750	-0.120	-0.360	0.020
2020/01/31 10:36:34.7	300.750	-0.130	-0.360	-0.000
2020/01/31 10:36:34.8	300.760	-0.150	-0.370	-0.020
2020/01/31 10:36:34.9	300.760	-0.160	-0.380	-0.030
2020/01/31 10:36:35.0	300.770	-0.180	-0.390	-0.050
2020/01/31 10:36:35.1	300.770	-0.190	-0.390	-0.060
2020/01/31 10:36:35.2	300.780	-0.200	-0.400	-0.080
2020/01/31 10:36:35.3	300.790	-0.210	-0.420	-0.090
2020/01/31 10:36:35.4	300.790	-0.220	-0.430	-0.110
2020/01/31 10:36:35.5	300.800	-0.230	-0.440	-0.120
2020/01/31 10:36:35.6	300.810	-0.240	-0.450	-0.130
2020/01/31 10:36:35.7	300.820	-0.240	-0.470	-0.140
2020/01/31 10:36:35.8	300.830	-0.250	-0.480	-0.150
2020/01/31 10:36:35.9	300.850	-0.250	-0.490	-0.160
2020/01/31 10:36:36.0	300.860	-0.250	-0.510	-0.170
2020/01/31 10:36:36.1	300.880	-0.250	-0.520	-0.170
2020/01/31 10:36:36.2	300.900	-0.250	-0.530	-0.180
2020/01/31 10:36:36.3	300.920	-0.250	-0.550	-0.180
2020/01/31 10:36:36.4	300.930	-0.240	-0.560	-0.180
2020/01/31 10:36:36.5	300.950	-0.240	-0.570	-0.180
2020/01/31 10:36:36.6	300.970	-0.230	-0.580	-0.180
2020/01/31 10:36:36.7	300.990	-0.220	-0.590	-0.180
2020/01/31 10:36:36.8	301.020	-0.210	-0.600	-0.170
2020/01/31 10:36:36.9	301.040	-0.200	-0.610	-0.160
2020/01/31 10:36:37.0	301.060	-0.190	-0.610	-0.160
2020/01/31 10:36:37.1	301.080	-0.170	-0.620	-0.150
2020/01/31 10:36:37.2	301.100	-0.160	-0.620	-0.140
2020/01/31 10:36:37.3	301.120	-0.140	-0.620	-0.120
2020/01/31 10:36:37.4	301.140	-0.120	-0.620	-0.110
2020/01/31 10:36:37.5	301.160	-0.110	-0.620	-0.090
2020/01/31 10:36:37.6	301.180	-0.090	-0.610	-0.070
2020/01/31 10:36:37.7	301.200	-0.070	-0.610	-0.050
2020/01/31 10:36:37.8	301.210	-0.050	-0.600	-0.020
2020/01/31 10:36:37.9	301.230	-0.030	-0.590	0.000
2020/01/31 10:36:38.0	301.250	-0.000	-0.570	0.030
2020/01/31 10:36:38.1	301.260	0.020	-0.560	0.060
2020/01/31 10:36:38.2	301.280	0.040	-0.540	0.090
2020/01/31 10:36:38.3	301.290	0.060	-0.520	0.120
2020/01/31 10:36:38.4	301.310	0.080	-0.500	0.160
2020/01/31 10:36:38.5	301.320	0.100	-0.480	0.200
2020/01/31 10:36:38.6	301.330	0.120	-0.450	0.230
2020/01/31 10:36:38.7	301.340	0.140	-0.420	0.270
2020/01/31 10:36:38.8	301.340	0.160	-0.390	0.310
2020/01/31 10:36:38.9	301.350	0.180	-0.360	0.350
2020/01/31 10:36:39.0	301.350	0.200	-0.330	0.390
2020/01/31 10:36:39.1	301.350	0.210	-0.300	0.430
2020/01/31 10:36:39.2	301.350	0.230	-0.260	0.480
2020/01/31 10:36:39.3	301.350	0.240	-0.230	0.520
2020/01/31 10:36:39.4	301.350	0.250	-0.190	0.570
2020/01/31 10:36:39.5	301.340	0.260	-0.160	0.610
2020/01/31 10:36:39.6	301.330	0.270	-0.120	0.650
2020/01/31 10:36:39.7	301.320	0.280	-0.080	0.700
2020/01/31 10:36:39.8	301.310	0.290	-0.040	0.740
2020/01/31 10:36:39.9	301.290	0.300	-0.010	0.790
2020/01/31 10:36:40.0	301.280	0.300	0.030	0.830
2020/01/31 10:36:40.1	301.260	0.300	0.060	0.870
2020/01/31 10:36:40.2	301.240	0.310	0.100	0.910
2020/01/31 10:36:40.3	301.210	0.300	0.130	0.950
2020/01/31 10:36:40.4	301.180	0.300	0.170	0.990
2020/01/31 10:36:40.5	301.160	0.300	0.200	1.020
2020/01/31 10:36:40.6	301.130	0.300	0.230	1.050
2020/01/31 10:36:40.7	301.110	0.290	0.260	1.080
2020/01/31 10:36:40.8	301.080	0.280	0.280	1.110
2020/01/31 10:36:40.9	301.050	0.270	0.300	1.130
2020/01/31 10:36:41.0	301.020	0.260	0.330	1.150
2020/01/31 10:36:41.1	300.990	0.250	0.340	1.170
2020/01/31 10:36:41.2	300.960	0.240	0.360	1.190
2020/01/31 10:36:41.3	300.930	0.220	0.370	1.200
2020/01/31 10:36:41.4	300.910	0.210	0.380	1.200
2020/01/31 10:36:41.5	300.880	0.190	0.390	1.210
2020/01/31 10:36:41.6	300.850	0.180	0.400	1.210
2020/01/31 10:36:41.7	300.820	0.160	0.400	1.200
2020/01/31 10:36:41.8	300.790	0.140	0.400	1.200
2020/01/31 10:36:41.9	300.760	0.120	0.390	1.190
2020/01/31 10:36:42.0	300.730	0.100	0.390	1.170
2020/01/31 10:36:42.1	300.700	0.090	0.370	1.160
2020/01/31 10:36:42.2	300.680	0.070	0.360	1.140
2020/01/31 10:36:42.3	300.650	0.050	0.340	1.110
2020/01/31 10:36:42.4	300.630	0.030	0.320	1.090
2020/01/31 10:36:42.5	300.600	0.010	0.300	1.060
2020/01/31 10:36:42.6	300.570	-0.000	0.270	1.030
2020/01/31 10:36:42.7	300.550	-0.020	0.240	1.000
2020/01/31 10:36:42.8	300.520	-0.030	0.210	0.970
2020/01/31 10:36:42.9	300.490	-0.050	0.170	0.940
2020/01/31 10:36:43.0	300.470	-0.060	0.130	0.900
2020/01/31 10:36:43.1	300.450	-0.070	0.080	0.870
2020/01/31 10:36:43.2	300.430	-0.080	0.040	0.830
2020/01/31 10:36:43.3	300.410	-0.090	-0.010	0.790
2020/01/31 10:36:43.4	300.380	-0.100	-0.060	0.750
2020/01/31 10:36:43.5	300.360	-0.100	-0.120	0.710
2020/01/31 10:36:43.6	300.350	-0.110	-0.170	0.670
2020/01/31 10:36:43.7	300.340	-0.110	-0.230	0.630
2020/01/31 10:36:43.8	300.330	-0.110	-0.290	0.580
2020/01/31 10:36:43.9	300.320	-0.110	-0.350	0.540
2020/01/31 10:36:44.0	300.320	-0.110	-0.420	0.500
2020/01/31 10:36:44.1	300.320	-0.100	-0.480	0.450
2020/01/31 10:36:44.2	300.320	-0.100	-0.540	0.400
2020/01/31 10:36:44.3	300.320	-0.090	-0.610	0.360
2020/01/31 10:36:44.4	300.320	-0.080	-0.670	0.310
2020/01/31 10:36:44.5	300.330	-0.070	-0.730	0.260
2020/01/31 10:36:44.6	300.340	-0.060	-0.790	0.210
2020/01/31 10:36:44.7	300.360	-0.050	-0.850	0.160
2020/01/31 10:36:44.8	300.380	-0.030	-0.910	0.120
2020/01/31 10:36:44.9	300.400	-0.020	-0.970	0.070
2020/01/31 10:36:45.0	300.420	-0.010	-1.020	0.020
2020/01/31 10:36:45.1	300.440	0.010	-1.060	-0.020
2020/01/31 10:36:45.2	300.470	0.020	-1.100	-0.060
2020/01/31 10:36:45.3	300.500	0.040	-1.140	-0.100
2020/01/31 10:36:45.4	300.520	0.050	-1.170	-0.140
2020/01/31 10:36:45.5	300.550	0.060	-1.200	-0.170
2020/01/31 10:36:45.6	300.580	0.080	-1.220	-0.200
2020/01/31 10:36:45.7	300.600	0.090	-1.230	-0.220
2020/01/31 10:36:45.8	300.630	0.100	-1.240	-0.250
2020/01/31 10:36:45.9	300.660	0.110	-1.230	-0.260
2020/01/31 10:36:46.0	300.690	0.110	-1.230	-0.280
2020/01/31 10:36:46.1	300.710	0.120	-1.210	-0.290
2020/01/31 10:36:46.2	300.740	0.120	-1.190	-0.300
2020/01/31 10:36:46.3	300.760	0.120	-1.160	-0.300
2020/01/31 10:36:46.4	300.790	0.120	-1.120	-0.290
2020/01/31 10:36:46.5	300.810	0.120	-1.080	-0.280
2020/01/31 10:36:46.6	300.830	0.110	-1.030	-0.270
2020/01/31 10:36:46.7	300.840	0.110	-0.980	-0.260
2020/01/31 10:36:46.8	300.860	0.100	-0.920	-0.240
2020/01/31 10:36:46.9	300.870	0.080	-0.850	-0.220
2020/01/31 10:36:47.0	300.880	0.070	-0.780	-0.200
2020/01/31 10:36:47.1	300.900	0.050	-0.710	-0.170
2020/01/31 10:36:47.2	300.900	0.040	-0.630	-0.150
2020/01/31 10:36:47.3	300.910	0.020	-0.550	-0.120
2020/01/31 10:36:47.4	300.920	-0.010	-0.470	-0.080
2020/01/31 10:36:47.5	300.920	-0.030	-0.390	-0.050
2020/01/31 10:36:47.6	300.920	-0.050	-0.310	-0.010
2020/01/31 10:36:47.7	300.920	-0.080	-0.230	0.030
2020/01/31 10:36:47.8	300.920	-0.100	-0.150	0.070
2020/01/31 10:36:47.9	300.920	-0.130	-0.070	0.100
2020/01/31 10:36:48.0	300.920	-0.150	0.010	0.140
2020/01/31 10:36:48.1	300.910	-0.180	0.080	0.180
2020/01/31 10:36:48.2	300.910	-0.210	0.150	0.220
2020/01/31 10:36:48.3	300.900	-0.230	0.220	0.260
2020/01/31 10:36:48.4	300.900	-0.260	0.280	0.300
2020/01/31 10:36:48.5	300.890	-0.280	0.340	0.330
2020/01/31 10:36:48.6	300.890	-0.300	0.390	0.370
2020/01/31 10:36:48.7	300.880	-0.320	0.440	0.400
2020/01/31 10:36:48.8	300.870	-0.340	0.480	0.430
2020/01/31 10:36:48.9	300.860	-0.360	0.520	0.460
2020/01/31 10:36:49.0	300.860	-0.380	0.550	0.480
2020/01/31 10:36:49.1	300.850	-0.390	0.580	0.510
2020/01/31 10:36:49.2	300.840	-0.400	0.600	0.530
2020/01/31 10:36:49.3	300.830	-0.410	0.610	0.550
2020/01/31 10:36:49.4	300.820	-0.420	0.620	0.560
2020/01/31 10:36:49.5	300.810	-0.420	0.620	0.570
2020/01/31 10:36:49.6	300.800	-0.420	0.620	0.580
2020/01/31 10:36:49.7	300.790	-0.420	0.620	0.590
2020/01/31 10:36:49.8	300.780	-0.420	0.610	0.590
2020/01/31 10:36:49.9	300.760	-0.420	0.590	0.590
2020/01/31 10:36:50.0	300.750	-0.410	0.570	0.590
2020/01/31 10:36:50.1	300.740	-0.400	0.550	0.590
2020/01/31 10:36:50.2	300.730	-0.390	0.530	0.590
2020/01/31 10:36:50.3	300.720	-0.370	0.500	0.580
2020/01/31 10:36:50.4	300.710	-0.360	0.460	0.570
2020/01/31 10:36:50.5	300.700	-0.340	0.430	0.560
2020/01/31 10:36:50.6	300.690	-0.320	0.390	0.550
2020/01/31 10:36:50.7	300.680	-0.300	0.360	0.540
2020/01/31 10:36:50.8	300.670	-0.280	0.320	0.520
2020/01/31 10:36:50.9	300.660	-0.260	0.280	0.510
2020/01/31 10:36:51.0	300.650	-0.230	0.240	0.490
2020/01/31 10:36:51.1	300.650	-0.210	0.200	0.480
2020/01/31 10:36:51.2	300.640	-0.180	0.150	0.460
2020/01/31 10:36:51.3	300.640	-0.150	0.110	0.440
2020/01/31 10:36:51.4	300.620	-0.130	0.070	0.420
2020/01/31 10:36:51.5	300.620	-0.100	0.030	0.400
2020/01/31 10:36:51.6	300.620	-0.070	-0.020	0.380
2020/01/31 10:36:51.7	300.620	-0.050	-0.060	0.360
2020/01/31 10:36:51.8	300.620	-0.020	-0.100	0.340
2020/01/31 10:36:51.9	300.630	0.000	-0.140	0.320
2020/01/31 10:36:52.0	300.630	0.030	-0.170	0.300
2020/01/31 10:36:52.1	300.630	0.050	-0.210	0.280
2020/01/31 10:36:52.2	300.640	0.080	-0.240	0.260
2020/01/31 10:36:52.3	300.650	0.100	-0.270	0.240
2020/01/31 10:36:52.4	300.650	0.120	-0.310	0.220
2020/01/31 10:36:52.5	300.660	0.140	-0.330	0.200
2020/01/31 10:36:52.6	300.660	0.160	-0.360	0.180
2020/01/31 10:36:52.7	300.670	0.170	-0.380	0.170
2020/01/31 10:36:52.8	300.680	0.190	-0.400	0.150
2020/01/31 10:36:52.9	300.690	0.200	-0.420	0.140
2020/01/31 10:36:53.0	300.700	0.220	-0.440	0.130
2020/01/31 10:36:53.1	300.700	0.230	-0.460	0.120
2020/01/31 10:36:53.2	300.710	0.240	-0.470	0.120
2020/01/31 10:36:53.3	300.720	0.250	-0.480	0.110
2020/01/31 10:36:53.4	300.730	0.260	-0.490	0.110
2020/01/31 10:36:53.5	300.740	0.260	-0.500	0.110
2020/01/31 10:36:53.6	300.750	0.270	-0.510	0.100
2020/01/31 10:36:53.7	300.770	0.280	-0.520	0.110
2020/01/31 10:36:53.8	300.780	0.280	-0.520	0.110
2020/01/31 10:36:53.9	300.790	0.290	-0.530	0.110
2020/01/31 10:36:54.0	300.800	0.290	-0.540	0.110
2020/01/31 10:36:54.1	300.820	0.300	-0.540	0.120
2020/01/31 10:36:54.2	300.830	0.300	-0.550	0.130
2020/01/31 10:36:54.3	300.850	0.300	-0.550	0.130
2020/01/31 10:36:54.4	300.860	0.310	-0.560	0.140
2020/01/31 10:36:54.5	300.870	0.310	-0.570	0.150
2020/01/31 10:36:54.6	300.890	0.310	-0.570	0.170
2020/01/31 10:36:54.7	300.900	0.310	-0.570	0.180
2020/01/31 10:36:54.8	300.910	0.320	-0.570	0.200
2020/01/31 10:36:54.9	300.930	0.320	-0.580	0.220
2020/01/31 10:36:55.0	300.940	0.320	-0.580	0.240
2020/01/31 10:36:55.1	300.950	0.320	-0.580	0.260
2020/01/31 10:36:55.2	300.960	0.320	-0.590	0.280
2020/01/31 10:36:55.3	300.970	0.320	-0.590	0.300
2020/01/31 10:36:55.4	300.990	0.320	-0.590	0.330
2020/01/31 10:36:55.5	301.000	0.320	-0.590	0.360
2020/01/31 10:36:55.6	301.010	0.320	-0.600	0.380
2020/01/31 10:36:55.7	301.020	0.310	-0.600	0.410
2020/01/31 10:36:55.8	301.040	0.310	-0.600	0.430
2020/01/31 10:36:55.9	301.050	0.310	-0.610	0.460
2020/01/31 10:36:56.0	301.060	0.310	-0.610	0.480
2020/01/31 10:36:56.1	301.070	0.310	-0.610	0.510
2020/01/31 10:36:56.2	301.080	0.300	-0.610	0.540
2020/01/31 10:36:56.3	301.090	0.300	-0.610	0.560
2020/01/31 10:36:56.4	301.090	0.300	-0.620	0.590
2020/01/31 10:36:56.5	301.100	0.290	-0.620	0.610
2020/01/31 10:36:56.6	301.110	0.290	-0.610	0.640
2020/01/31 10:36:56.7	301.120	0.290	-0.610	0.660
2020/01/31 10:36:56.8	301.130	0.280	-0.610	0.690
2020/01/31 10:36:56.9	301.130	0.280	-0.600	0.710
2020/01/31 10:36:57.0	301.140	0.270	-0.590	0.740
2020/01/31 10:36:57.1	301.140	0.260	-0.580	0.760
2020/01/31 10:36:57.2	301.140	0.250	-0.570	0.780
2020/01/31 10:36:57.3	301.140	0.250	-0.550	0.810
2020/01/31 10:36:57.4	301.140	0.240	-0.530	0.830
2020/01/31 10:36:57.5	301.140	0.230	-0.510	0.850
2020/01/31 10:36:57.6	301.130	0.220	-0.490	0.870
2020/01/31 10:36:57.7	301.130	0.200	-0.470	0.890
2020/01/31 10:36:57.8	301.120	0.190	-0.450	0.910
2020/01/31 10:36:57.9	301.120	0.180	-0.420	0.930
2020/01/31 10:36:58.0	301.110	0.160	-0.390	0.940
2020/01/31 10:36:58.1	301.100	0.150	-0.370	0.960
2020/01/31 10:36:58.2	301.090	0.130	-0.340	0.970
2020/01/31 10:36:58.3	301.080	0.110	-0.310	0.980
2020/01/31 10:36:58.4	301.070	0.090	-0.280	0.990
2020/01/31 10:36:58.5	301.050	0.070	-0.250	0.990
2020/01/31 10:36:58.6	301.040	0.050	-0.220	0.990
2020/01/31 10:36:58.7	301.020	0.030	-0.190	0.990
2020/01/31 10:36:58.8	301.010	0.010	-0.170	0.990
2020/01/31 10:36:58.9	300.990	-0.010	-0.140	0.980
2020/01/31 10:36:59.0	300.980	-0.030	-0.110	0.970
2020/01/31 10:36:59.1	300.960	-0.060	-0.090	0.950
2020/01/31 10:36:59.2	300.940	-0.080	-0.060	0.940
2020/01/31 10:36:59.3	300.920	-0.110	-0.040	0.920
2020/01/31 10:36:59.4	300.910	-0.130	-0.020	0.900
2020/01/31 10:36:59.5	300.890	-0.150	0.000	0.870
2020/01/31 10:36:59.6	300.880	-0.180	0.020	0.840
2020/01/31 10:36:59.7	300.860	-0.200	0.040	0.810
2020/01/31 10:36:59.8	300.840	-0.230	0.050	0.780
2020/01/31 10:36:59.9	300.820	-0.250	0.060	0.750
2020/01/31 10:37:00.0	300.790	-0.280	0.080	0.720
2020/01/31 10:37:00.1	300.770	-0.300	0.090	0.680
2020/01/31 10:37:00.2	300.750	-0.320	0.100	0.640
2020/01/31 10:37:00.3	300.730	-0.340	0.100	0.610
2020/01/31 10:37:00.4	300.710	-0.360	0.110	0.570
2020/01/31 10:37:00.5	300.690	-0.380	0.110	0.530
2020/01/31 10:37:00.6	300.660	-0.390	0.110	0.490
2020/01/31 10:37:00.7	300.640	-0.410	0.120	0.450
2020/01/31 10:37:00.8	300.620	-0.420	0.120	0.410
2020/01/31 10:37:00.9	300.600	-0.430	0.110	0.370
2020/01/31 10:37:01.0	300.580	-0.440	0.110	0.330
2020/01/31 10:37:01.1	300.560	-0.450	0.100	0.290
2020/01/31 10:37:01.2	300.540	-0.450	0.100	0.250
2020/01/31 10:37:01.3	300.530	-0.460	0.090	0.210
2020/01/31 10:37:01.4	300.510	-0.460	0.080	0.170
2020/01/31 10:37:01.5	300.500	-0.460	0.070	0.130
2020/01/31 10:37:01.6	300.480	-0.450	0.050	0.090
2020/01/31 10:37:01.7	300.480	-0.450	0.040	0.050
2020/01/31 10:37:01.8	300.470	-0.440	0.020	0.000
2020/01/31 10:37:01.9	300.460	-0.430	0.010	-0.040
2020/01/31 10:37:02.0	300.460	-0.410	-0.010	-0.080
2020/01/31 10:37:02.1	300.460	-0.400	-0.030	-0.120
2020/01/31 10:37:02.2	300.460	-0.380	-0.050	-0.160
2020/01/31 10:37:02.3	300.460	-0.360	-0.080	-0.200
2020/01/31 10:37:02.4	300.460	-0.340	-0.110	-0.240
2020/01/31 10:37:02.5	300.470	-0.320	-0.130	-0.270
2020/01/31 10:37:02.6	300.480	-0.290	-0.150	-0.310
2020/01/31 10:37:02.7	300.490	-0.270	-0.180	-0.340
2020/01/31 10:37:02.8	300.510	-0.240	-0.200	-0.380
2020/01/31 10:37:02.9	300.530	-0.210	-0.230	-0.410
2020/01/31 10:37:03.0	300.550	-0.180	-0.250	-0.440
2020/01/31 10:37:03.1	300.570	-0.150	-0.270	-0.460
2020/01/31 10:37:03.2	300.590	-0.120	-0.290	-0.490
2020/01/31 10:37:03.3	300.620	-0.090	-0.320	-0.510
2020/01/31 10:37:03.4	300.660	-0.060	-0.340	-0.530
2020/01/31 10:37:03.5	300.690	-0.030	-0.350	-0.550
2020/01/31 10:37:03.6	300.720	-0.000	-0.370	-0.560
2020/01/31 10:37:03.7	300.760	0.030	-0.390	-0.580
2020/01/31 10:37:03.8	300.800	0.050	-0.400	-0.590
2020/01/31 10:37:03.9	300.840	0.080	-0.410	-0.600
2020/01/31 10:37:04.0	300.880	0.110	-0.420	-0.600
2020/01/31 10:37:04.1	300.920	0.130	-0.430	-0.610
2020/01/31 10:37:04.2	300.960	0.150	-0.440	-0.610
2020/01/31 10:37:04.3	301.010	0.170	-0.440	-0.610
2020/01/31 10:37:04.4	301.060	0.190	-0.440	-0.610
2020/01/31 10:37:04.5	301.110	0.210	-0.440	-0.610
2020/01/31 10:37:04.6	301.150	0.220	-0.430	-0.600
2020/01/31 10:37:04.7	301.200	0.230	-0.420	-0.590
2020/01/31 10:37:04.8	301.240	0.240	-0.410	-0.580
2020/01/31 10:37:04.9	301.280	0.250	-0.400	-0.560
2020/01/31 10:37:05.0	301.320	0.250	-0.380	-0.550
2020/01/31 10:37:05.1	301.360	0.250	-0.360	-0.520
2020/01/31 10:37:05.2	301.400	0.250	-0.340	-0.500
2020/01/31 10:37:05.3	301.430	0.240	-0.310	-0.470
2020/01/31 10:37:05.4	301.470	0.240	-0.290	-0.440
2020/01/31 10:37:05.5	301.500	0.230	-0.260	-0.410
2020/01/31 10:37:05.6	301.520	0.210	-0.230	-0.370
2020/01/31 10:37:05.7	301.540	0.200	-0.190	-0.340
2020/01/31 10:37:05.8	301.560	0.180	-0.160	-0.300
2020/01/31 10:37:05.9	301.570	0.160	-0.130	-0.250
2020/01/31 10:37:06.0	301.580	0.140	-0.090	-0.210
2020/01/31 10:37:06.1	301.590	0.120	-0.060	-0.160
2020/01/31 10:37:06.2	301.590	0.100	-0.020	-0.110
2020/01/31 10:37:06.3	301.590	0.070	0.010	-0.060
2020/01/31 10:37:06.4	301.590	0.050	0.040	-0.010
2020/01/31 10:37:06.5	301.590	0.020	0.080	0.050
2020/01/31 10:37:06.6	301.580	-0.000	0.100	0.100
2020/01/31 10:37:06.7	301.570	-0.030	0.130	0.150
2020/01/31 10:37:06.8	301.550	-0.050	0.150	0.200
2020/01/31 10:37:06.9	301.540	-0.070	0.170	0.260
2020/01/31 10:37:07.0	301.520	-0.100	0.190	0.310
2020/01/31 10:37:07.1	301.500	-0.120	0.200	0.360
2020/01/31 10:37:07.2	301.480	-0.140	0.220	0.410
2020/01/31 10:37:07.3	301.460	-0.160	0.220	0.460
2020/01/31 10:37:07.4	301.430	-0.170	0.220	0.510
2020/01/31 10:37:07.5	301.410	-0.190	0.220	0.550
2020/01/31 10:37:07.6	301.380	-0.200	0.220	0.600
2020/01/31 10:37:07.7	301.350	-0.210	0.210	0.640
2020/01/31 10:37:07.8	301.320	-0.220	0.200	0.680
2020/01/31 10:37:07.9	301.290	-0.220	0.180	0.720
2020/01/31 10:37:08.0	301.260	-0.220	0.160	0.760
2020/01/31 10:37:08.1	301.230	-0.220	0.140	0.800
2020/01/31 10:37:08.2	301.200	-0.220	0.120	0.830
2020/01/31 10:37:08.3	301.160	-0.220	0.090	0.860
2020/01/31 10:37:08.4	301.120	-0.210	0.060	0.890
2020/01/31 10:37:08.5	301.090	-0.200	0.020	0.910
2020/01/31 10:37:08.6	301.050	-0.190	-0.010	0.930
2020/01/31 10:37:08.7	301.020	-0.170	-0.050	0.950
2020/01/31 10:37:08.8	300.990	-0.160	-0.100	0.970
2020/01/31 10:37:08.9	300.960	-0.140	-0.140	0.980
2020/01/31 10:37:09.0	300.930	-0.120	-0.190	0.990
2020/01/31 10:37:09.1	300.900	-0.100	-0.230	1.000
2020/01/31 10:37:09.2	300.870	-0.080	-0.280	1.000
2020/01/31 10:37:09.3	300.840	-0.050	-0.330	1.000
2020/01/31 10:37:09.4	300.810	-0.030	-0.380	0.990
2020/01/31 10:37:09.5	300.790	-0.010	-0.440	0.980
2020/01/31 10:37:09.6	300.760	0.020	-0.490	0.970
2020/01/31 10:37:09.7	300.740	0.040	-0.540	0.960
2020/01/31 10:37:09.8	300.720	0.070	-0.590	0.940
2020/01/31 10:37:09.9	300.700	0.090	-0.640	0.920
2020/01/31 10:37:10.0	300.680	0.120	-0.690	0.900
2020/01/31 10:37:10.1	300.670	0.140	-0.740	0.880
2020/01/31 10:37:10.2	300.650	0.160	-0.790	0.860
2020/01/31 10:37:10.3	300.640	0.190	-0.830	0.830
2020/01/31 10:37:10.4	300.640	0.210	-0.870	0.810
2020/01/31 10:37:10.5	300.620	0.230	-0.900	0.780
2020/01/31 10:37:10.6	300.620	0.250	-0.940	0.760
2020/01/31 10:37:10.7	300.610	0.270	-0.970	0.740
2020/01/31 10:37:10.8	300.600	0.290	-0.990	0.710
2020/01/31 10:37:10.9	300.590	0.300	-1.010	0.690
2020/01/31 10:37:11.0	300.590	0.320	-1.020	0.670
2020/01/31 10:37:11.1	300.590	0.330	-1.030	0.640
2020/01/31 10:37:11.2	300.580	0.350	-1.030	0.620
2020/01/31 10:37:11.3	300.580	0.360	-1.030	0.600
2020/01/31 10:37:11.4	300.570	0.370	-1.030	0.580
2020/01/31 10:37:11.5	300.570	0.370	-1.020	0.560
2020/01/31 10:37:11.6	300.580	0.380	-1.000	0.540
2020/01/31 10:37:11.7	300.580	0.380	-0.980	0.520
2020/01/31 10:37:11.8	300.580	0.390	-0.960	0.500
2020/01/31 10:37:11.9	300.590	0.390	-0.930	0.480
2020/01/31 10:37:12.0	300.600	0.390	-0.900	0.460
2020/01/31 10:37:12.1	300.600	0.380	-0.860	0.440
2020/01/31 10:37:12.2	300.610	0.380	-0.820	0.420
2020/01/31 10:37:12.3	300.620	0.370	-0.780	0.400
2020/01/31 10:37:12.4	300.630	0.370	-0.740	0.380
2020/01/31 10:37:12.5	300.640	0.360	-0.690	0.360
2020/01/31 10:37:12.6	300.660	0.350	-0.640	0.340
2020/01/31 10:37:12.7	300.670	0.340	-0.590	0.320
2020/01/31 10:37:12.8	300.680	0.330	-0.540	0.310
2020/01/31 10:37:12.9	300.690	0.320	-0.490	0.290
2020/01/31 10:37:13.0	300.700	0.300	-0.440	0.270
2020/01/31 10:37:13.1	300.720	0.290	-0.380	0.260
2020/01/31 10:37:13.2	300.730	0.270	-0.330	0.250
2020/01/31 10:37:13.3	300.750	0.260	-0.280	0.230
2020/01/31 10:37:13.4	300.760	0.240	-0.230	0.230
2020/01/31 10:37:13.5	300.770	0.220	-0.180	0.220
2020/01/31 10:37:13.6	300.780	0.210	-0.130	0.210
2020/01/31 10:37:13.7	300.790	0.190	-0.080	0.200
2020/01/31 10:37:13.8	300.810	0.170	-0.040	0.190
2020/01/31 10:37:13.9	300.820	0.160	0.010	0.190
2020/01/31 10:37:14.0	300.830	0.140	0.050	0.180
2020/01/31 10:37:14.1	300.840	0.120	0.090	0.180
2020/01/31 10:37:14.2	300.850	0.100	0.120	0.170
2020/01/31 10:37:14.3	300.860	0.090	0.150	0.170
2020/01/31 10:37:14.4	300.880	0.070	0.180	0.170
2020/01/31 10:37:14.5	300.890	0.050	0.210	0.170
2020/01/31 10:37:14.6	300.900	0.040	0.230	0.170
2020/01/31 10:37:14.7	300.910	0.020	0.250	0.170
2020/01/31 10:37:14.8	300.910	0.010	0.270	0.170
2020/01/31 10:37:14.9	300.920	-0.010	0.280	0.160
2020/01/31 10:37:15.0	300.930	-0.020	0.290	0.160
2020/01/31 10:37:15.1	300.940	-0.040	0.290	0.160
2020/01/31 10:37:15.2	300.950	-0.050	0.300	0.160
2020/01/31 10:37:15.3	300.960	-0.070	0.300	0.150
2020/01/31 10:37:15.4	300.960	-0.090	0.290	0.150
2020/01/31 10:37:15.5	300.970	-0.100	0.290	0.140
2020/01/31 10:37:15.6	300.980	-0.120	0.280	0.140
2020/01/31 10:37:15.7	300.990	-0.130	0.270	0.130
2020/01/31 10:37:15.8	301.000	-0.150	0.260	0.120
2020/01/31 10:37:15.9	301.010	-0.160	0.240	0.110
2020/01/31 10:37:16.0	301.020	-0.180	0.230	0.100
2020/01/31 10:37:16.1	301.030	-0.190	0.210	0.090
2020/01/31 10:37:16.2	301.040	-0.210	0.190	0.080
2020/01/31 10:37:16.3	301.050	-0.220	0.170	0.070
2020/01/31 10:37:16.4	301.060	-0.240	0.160	0.050
2020/01/31 10:37:16.5	301.070	-0.260	0.140	0.040
2020/01/31 10:37:16.6	301.080	-0.270	0.120	0.030
2020/01/31 10:37:16.7	301.090	-0.290	0.100	0.020
2020/01/31 10:37:16.8	301.100	-0.310	0.080	0.010
2020/01/31 10:37:16.9	301.110	-0.320	0.060	0.000
2020/01/31 10:37:17.0	301.110	-0.340	0.050	-0.010
2020/01/31 10:37:17.1	301.120	-0.350	0.030	-0.020
2020/01/31 10:37:17.2	301.120	-0.370	0.010	-0.020
2020/01/31 10:37:17.3	301.130	-0.380	-0.000	-0.030
2020/01/31 10:37:17.4	301.130	-0.400	-0.020	-0.030
2020/01/31 10:37:17.5	301.140	-0.410	-0.030	-0.040
2020/01/31 10:37:17.6	301.140	-0.420	-0.040	-0.040
2020/01/31 10:37:17.7	301.140	-0.440	-0.060	-0.050
2020/01/31 10:37:17.8	301.140	-0.450	-0.070	-0.050
2020/01/31 10:37:17.9	301.150	-0.460	-0.080	-0.050
2020/01/31 10:37:18.0	301.150	-0.470	-0.090	-0.050
2020/01/31 10:37:18.1	301.150	-0.470	-0.090	-0.050
2020/01/31 10:37:18.2	301.150	-0.480	-0.100	-0.050
2020/01/31 10:37:18.3	301.150	-0.480	-0.110	-0.050
2020/01/31 10:37:18.4	301.150	-0.480	-0.120	-0.050
2020/01/31 10:37:18.5	301.150	-0.480	-0.120	-0.040
2020/01/31 10:37:18.6	301.150	-0.480	-0.130	-0.030
2020/01/31 10:37:18.7	301.150	-0.480	-0.130	-0.020
2020/01/31 10:37:18.8	301.150	-0.470	-0.140	-0.010
2020/01/31 10:37:18.9	301.140	-0.460	-0.140	0.010
2020/01/31 10:37:19.0	301.140	-0.450	-0.140	0.030
2020/01/31 10:37:19.1	301.140	-0.440	-0.150	0.050
2020/01/31 10:37:19.2	301.130	-0.420	-0.150	0.070
2020/01/31 10:37:19.3	301.130	-0.400	-0.150	0.100
2020/01/31 10:37:19.4	301.120	-0.380	-0.160	0.130
2020/01/31 10:37:19.5	301.120	-0.360	-0.170	0.170
2020/01/31 10:37:19.6	301.110	-0.340	-0.170	0.200
2020/01/31 10:37:19.7	301.100	-0.310	-0.180	0.230
2020/01/31 10:37:19.8	301.090	-0.280	-0.180	0.270
2020/01/31 10:37:19.9	301.080	-0.260	-0.190	0.300
2020/01/31 10:37:20.0	301.070	-0.230	-0.200	0.340
2020/01/31 10:37:20.1	301.070	-0.190	-0.210	0.380
2020/01/31 10:37:20.2	301.060	-0.160	-0.220	0.410
2020/01/31 10:37:20.3	301.050	-0.130	-0.230	0.450
2020/01/31 10:37:20.4	301.040	-0.090	-0.240	0.490
2020/01/31 10:37:20.5	301.040	-0.060	-0.260	0.520
2020/01/31 10:37:20.6	301.030	-0.030	-0.270	0.550
2020/01/31 10:37:20.7	301.020	0.010	-0.290	0.590
2020/01/31 10:37:20.8	301.020	0.040	-0.300	0.620
2020/01/31 10:37:20.9	301.020	0.080	-0.320	0.650
2020/01/31 10:37:21.0	301.010	0.110	-0.340	0.670
2020/01/31 10:37:21.1	301.010	0.140	-0.350	0.700
2020/01/31 10:37:21.2	301.010	0.170	-0.370	0.720
2020/01/31 10:37:21.3	301.000	0.200	-0.390	0.740
2020/01/31 10:37:21.4	300.990	0.230	-0.410	0.760
2020/01/31 10:37:21.5	300.990	0.260	-0.430	0.780
2020/01/31 10:37:21.6	300.990	0.280	-0.450	0.790
2020/01/31 10:37:21.7	300.990	0.300	-0.460	0.810
2020/01/31 10:37:21.8	300.990	0.320	-0.480	0.820
2020/01/31 10:37:21.9	300.990	0.340	-0.500	0.830
2020/01/31 10:37:22.0	300.990	0.360	-0.510	0.830
2020/01/31 10:37:22.1	300.990	0.370	-0.520	0.840
2020/01/31 10:37:22.2	300.990	0.390	-0.540	0.840
2020/01/31 10:37:22.3	300.990	0.400	-0.550	0.850
2020/01/31 10:37:22.4	300.980	0.410	-0.560	0.850
2020/01/31 10:37:22.5	300.980	0.410	-0.560	0.850
2020/01/31 10:37:22.6	300.980	0.420	-0.570	0.850
2020/01/31 10:37:22.7	300.980	0.420	-0.570	0.850
2020/01/31 10:37:22.8	300.980	0.420	-0.570	0.850
2020/01/31 10:37:22.9	300.980	0.420	-0.570	0.840
2020/01/31 10:37:23.0	300.970	0.420	-0.570	0.840
2020/01/31 10:37:23.1	300.970	0.410	-0.560	0.830
2020/01/31 10:37:23.2	300.970	0.400	-0.560	0.830
2020/01/31 10:37:23.3	300.970	0.400	-0.550	0.820
2020/01/31 10:37:23.4	300.970	0.390	-0.540	0.810
2020/01/31 10:37:23.5	300.970	0.380	-0.540	0.800
2020/01/31 10:37:23.6	300.970	0.370	-0.530	0.790
2020/01/31 10:37:23.7	300.960	0.350	-0.520	0.780
2020/01/31 10:37:23.8	300.960	0.340	-0.510	0.760
2020/01/31 10:37:23.9	300.960	0.330	-0.500	0.750
2020/01/31 10:37:24.0	300.960	0.320	-0.490	0.730
2020/01/31 10:37:24.1	300.960	0.300	-0.480	0.720
2020/01/31 10:37:24.2	300.950	0.290	-0.480	0.700
2020/01/31 10:37:24.3	300.950	0.270	-0.470	0.690
2020/01/31 10:37:24.4	300.950	0.260	-0.460	0.670
2020/01/31 10:37:24.5	300.940	0.250	-0.460	0.660
2020/01/31 10:37:24.6	300.940	0.230	-0.450	0.640
2020/01/31 10:37:24.7	300.940	0.220	-0.450	0.620
2020/01/31 10:37:24.8	300.940	0.210	-0.440	0.600
2020/01/31 10:37:24.9	300.940	0.200	-0.440	0.580
2020/01/31 10:37:25.0	300.940	0.180	-0.440	0.560
2020/01/31 10:37:25.1	300.940	0.170	-0.440	0.540
2020/01/31 10:37:25.2	300.950	0.160	-0.440	0.520
2020/01/31 10:37:25.3	300.950	0.150	-0.440	0.500
2020/01/31 10:37:25.4	300.950	0.140	-0.440	0.470
2020/01/31 10:37:25.5	300.950	0.130	-0.440	0.450
2020/01/31 10:37:25.6	300.950	0.120	-0.440	0.430
2020/01/31 10:37:25.7	300.960	0.110	-0.440	0.400
2020/01/31 10:37:25.8	300.960	0.100	-0.440	0.380
2020/01/31 10:37:25.9	300.970	0.090	-0.440	0.350
2020/01/31 10:37:26.0	300.980	0.080	-0.440	0.330
2020/01/31 10:37:26.1	300.980	0.070	-0.430	0.300
2020/01/31 10:37:26.2	300.990	0.060	-0.430	0.270
2020/01/31 10:37:26.3	301.000	0.050	-0.430	0.250
2020/01/31 10:37:26.4	301.010	0.040	-0.410	0.220
2020/01/31 10:37:26.5	301.020	0.030	-0.410	0.200
2020/01/31 10:37:26.6	301.030	0.020	-0.400	0.170
2020/01/31 10:37:26.7	301.040	0.010	-0.390	0.150
2020/01/31 10:37:26.8	301.050	0.000	-0.370	0.120
2020/01/31 10:37:26.9	301.070	-0.010	-0.360	0.100
2020/01/31 10:37:27.0	301.080	-0.020	-0.340	0.080
2020/01/31 10:37:27.1	301.090	-0.030	-0.320	0.060
2020/01/31 10:37:27.2	301.100	-0.040	-0.300	0.050
2020/01/31 10:37:27.3	301.110	-0.060	-0.280	0.030
2020/01/31 10:37:27.4	301.120	-0.070	-0.260	0.020
2020/01/31 10:37:27.5	301.130	-0.080	-0.230	0.010
2020/01/31 10:37:27.6	301.130	-0.090	-0.200	0.000
2020/01/31 10:37:27.7	301.140	-0.100	-0.170	-0.000
2020/01/31 10:37:27.8	301.140	-0.120	-0.140	-0.000
2020/01/31 10:37:27.9	301.140	-0.130	-0.100	-0.000
2020/01/31 10:37:28.0	301.140	-0.140	-0.070	0.000
2020/01/31 10:37:28.1	301.140	-0.150	-0.030	0.010
2020/01/31 10:37:28.2	301.140	-0.160	0.000	0.020
2020/01/31 10:37:28.3	301.140	-0.180	0.040	0.030
2020/01/31 10:37:28.4	301.140	-0.190	0.080	0.040
2020/01/31 10:37:28.5	301.130	-0.200	0.110	0.050
2020/01/31 10:37:28.6	301.130	-0.210	0.150	0.070
2020/01/31 10:37:28.7	301.120	-0.220	0.180	0.080
2020/01/31 10:37:28.8	301.120	-0.230	0.210	0.100
2020/01/31 10:37:28.9	301.110	-0.230	0.240	0.120
2020/01/31 10:37:29.0	301.100	-0.240	0.270	0.140
2020/01/31 10:37:29.1	301.100	-0.250	0.300	0.160
2020/01/31 10:37:29.2	301.090	-0.250	0.320	0.180
2020/01/31 10:37:29.3	301.090	-0.260	0.340	0.200
2020/01/31 10:37:29.4	301.080	-0.260	0.350	0.220
2020/01/31 10:37:29.5	301.080	-0.260	0.370	0.230
2020/01/31 10:37:29.6	301.070	-0.260	0.380	0.260
2020/01/31 10:37:29.7	301.060	-0.260	0.390	0.270
2020/01/31 10:37:29.8	301.060	-0.260	0.400	0.290
2020/01/31 10:37:29.9	301.060	-0.260	0.410	0.310
2020/01/31 10:37:30.0	301.050	-0.250	0.410	0.330
2020/01/31 10:37:30.1	301.050	-0.250	0.410	0.350
2020/01/31 10:37:30.2	301.040	-0.240	0.400	0.370
2020/01/31 10:37:30.3	301.040	-0.240	0.400	0.390
2020/01/31 10:37:30.4	301.040	-0.230	0.390	0.410
2020/01/31 10:37:30.5	301.030	-0.220	0.370	0.430
2020/01/31 10:37:30.6	301.030	-0.210	0.360	0.450
2020/01/31 10:37:30.7	301.020	-0.200	0.340	0.460
2020/01/31 10:37:30.8	301.010	-0.190	0.320	0.480
2020/01/31 10:37:30.9	301.010	-0.170	0.300	0.490
2020/01/31 10:37:31.0	301.000	-0.160	0.270	0.510
2020/01/31 10:37:31.1	301.000	-0.150	0.240	0.520
2020/01/31 10:37:31.2	300.990	-0.130	0.210	0.530
2020/01/31 10:37:31.3	300.980	-0.120	0.180	0.540
2020/01/31 10:37:31.4	300.970	-0.100	0.140	0.550
2020/01/31 10:37:31.5	300.970	-0.080	0.100	0.550
2020/01/31 10:37:31.6	300.960	-0.070	0.070	0.560
2020/01/31 10:37:31.7	300.950	-0.050	0.030	0.560
2020/01/31 10:37:31.8	300.950	-0.030	-0.010	0.560
2020/01/31 10:37:31.9	300.950	-0.010	-0.050	0.570
2020/01/31 10:37:32.0	300.940	0.010	-0.090	0.560
2020/01/31 10:37:32.1	300.940	0.030	-0.130	0.560
2020/01/31 10:37:32.2	300.930	0.040	-0.170	0.560
2020/01/31 10:37:32.3	300.930	0.060	-0.210	0.550
2020/01/31 10:37:32.4	300.930	0.080	-0.260	0.540
2020/01/31 10:37:32.5	300.930	0.100	-0.300	0.540
2020/01/31 10:37:32.6	300.920	0.120	-0.340	0.530
2020/01/31 10:37:32.7	300.920	0.130	-0.380	0.510
2020/01/31 10:37:32.8	300.920	0.150	-0.420	0.500
2020/01/31 10:37:32.9	300.920	0.170	-0.460	0.490
2020/01/31 10:37:33.0	300.920	0.180	-0.500	0.470
2020/01/31 10:37:33.1	300.910	0.200	-0.530	0.450
2020/01/31 10:37:33.2	300.910	0.210	-0.570	0.440
2020/01/31 10:37:33.3	300.910	0.220	-0.610	0.410
2020/01/31 10:37:33.4	300.910	0.230	-0.650	0.390
2020/01/31 10:37:33.5	300.910	0.240	-0.680	0.370
2020/01/31 10:37:33.6	300.910	0.250	-0.720	0.350
2020/01/31 10:37:33.7	300.920	0.260	-0.750	0.320
2020/01/31 10:37:33.8	300.920	0.270	-0.790	0.290
2020/01/31 10:37:33.9	300.930	0.270	-0.820	0.260
2020/01/31 10:37:34.0	300.930	0.280	-0.850	0.230
2020/01/31 10:37:34.1	300.940	0.280	-0.880	0.200
2020/01/31 10:37:34.2	300.950	0.280	-0.910	0.170
2020/01/31 10:37:34.3	300.960	0.280	-0.940	0.140
2020/01/31 10:37:34.4	300.970	0.280	-0.960	0.110
2020/01/31 10:37:34.5	300.980	0.280	-0.990	0.080
2020/01/31 10:37:34.6	300.990	0.270	-1.010	0.050
2020/01/31 10:37:34.7	301.010	0.270	-1.020	0.020
2020/01/31 10:37:34.8	301.030	0.260	-1.040	-0.010
2020/01/31 10:37:34.9	301.050	0.250	-1.050	-0.040
2020/01/31 10:37:35.0	301.070	0.240	-1.060	-0.060
2020/01/31 10:37:35.1	301.090	0.230	-1.060	-0.090
2020/01/31 10:37:35.2	301.110	0.220	-1.060	-0.110
2020/01/31 10:37:35.3	301.130	0.210	-1.050	-0.130
2020/01/31 10:37:35.4	301.150	0.190	-1.050	-0.150
2020/01/31 10:37:35.5	301.170	0.180	-1.030	-0.170
2020/01/31 10:37:35.6	301.200	0.160	-1.010	-0.180
2020/01/31 10:37:35.7	301.220	0.140	-0.990	-0.200
2020/01/31 10:37:35.8	301.240	0.120	-0.960	-0.210
2020/01/31 10:37:35.9	301.260	0.100	-0.930	-0.210
2020/01/31 10:37:36.0	301.270	0.080	-0.890	-0.220
2020/01/31 10:37:36.1	301.290	0.050	-0.850	-0.220
2020/01/31 10:37:36.2	301.310	0.030	-0.810	-0.220
2020/01/31 10:37:36.3	301.320	0.000	-0.760	-0.220
2020/01/31 10:37:36.4	301.340	-0.020	-0.710	-0.210
2020/01/31 10:37:36.5	301.350	-0.050	-0.650	-0.210
2020/01/31 10:37:36.6	301.360	-0.070	-0.590	-0.200
2020/01/31 10:37:36.7	301.370	-0.100	-0.530	-0.180
2020/01/31 10:37:36.8	301.370	-0.130	-0.470	-0.170
2020/01/31 10:37:36.9	301.380	-0.150	-0.400	-0.150
2020/01/31 10:37:37.0	301.380	-0.180	-0.340	-0.130
2020/01/31 10:37:37.1	301.380	-0.210	-0.270	-0.100
2020/01/31 10:37:37.2	301.380	-0.230	-0.200	-0.080
2020/01/31 10:37:37.3	301.380	-0.260	-0.130	-0.050
2020/01/31 10:37:37.4	301.380	-0.280	-0.060	-0.010
2020/01/31 10:37:37.5	301.370	-0.310	0.010	0.020
2020/01/31 10:37:37.6	301.360	-0.330	0.070	0.060
2020/01/31 10:37:37.7	301.350	-0.350	0.140	0.100
2020/01/31 10:37:37.8	301.330	-0.370	0.200	0.140
2020/01/31 10:37:37.9	301.310	-0.390	0.260	0.180
2020/01/31 10:37:38.0	301.290	-0.410	0.310	0.220
2020/01/31 10:37:38.1	301.270	-0.420	0.370	0.260
2020/01/31 10:37:38.2	301.250	-0.440	0.420	0.300
2020/01/31 10:37:38.3	301.220	-0.450	0.460	0.350
2020/01/31 10:37:38.4	301.200	-0.460	0.500	0.390
2020/01/31 10:37:38.5	301.170	-0.460	0.530	0.430
2020/01/31 10:37:38.6	301.140	-0.470	0.560	0.470
2020/01/31 10:37:38.7	301.110	-0.470	0.590	0.510
2020/01/31 10:37:38.8	301.080	-0.470	0.600	0.550
2020/01/31 10:37:38.9	301.050	-0.470	0.620	0.590
2020/01/31 10:37:39.0	301.020	-0.460	0.630	0.620
2020/01/31 10:37:39.1	300.990	-0.450	0.630	0.650
2020/01/31 10:37:39.2	300.950	-0.440	0.620	0.680
2020/01/31 10:37:39.3	300.920	-0.430	0.620	0.710
2020/01/31 10:37:39.4	300.900	-0.410	0.600	0.730
2020/01/31 10:37:39.5	300.870	-0.400	0.580	0.750
2020/01/31 10:37:39.6	300.840	-0.380	0.560	0.770
2020/01/31 10:37:39.7	300.810	-0.350	0.530	0.780
2020/01/31 10:37:39.8	300.780	-0.330	0.500	0.790
2020/01/31 10:37:39.9	300.750	-0.300	0.460	0.800
2020/01/31 10:37:40.0	300.730	-0.270	0.410	0.800
2020/01/31 10:37:40.1	300.700	-0.240	0.370	0.800
2020/01/31 10:37:40.2	300.680	-0.210	0.320	0.800
2020/01/31 10:37:40.3	300.660	-0.170	0.270	0.790
2020/01/31 10:37:40.4	300.650	-0.140	0.210	0.780
2020/01/31 10:37:40.5	300.630	-0.100	0.150	0.770
2020/01/31 10:37:40.6	300.620	-0.060	0.090	0.750
2020/01/31 10:37:40.7	300.610	-0.030	0.040	0.730
2020/01/31 10:37:40.8	300.600	0.010	-0.020	0.710
2020/01/31 10:37:40.9	300.590	0.050	-0.080	0.690
2020/01/31 10:37:41.0	300.580	0.090	-0.140	0.670
2020/01/31 10:37:41.1	300.570	0.120	-0.200	0.650
2020/01/31 10:37:41.2	300.570	0.160	-0.260	0.620
2020/01/31 10:37:41.3	300.570	0.200	-0.310	0.600
2020/01/31 10:37:41.4	300.560	0.230	-0.370	0.580
2020/01/31 10:37:41.5	300.560	0.270	-0.420	0.550
2020/01/31 10:37:41.6	300.560	0.300	-0.470	0.530
2020/01/31 10:37:41.7	300.570	0.330	-0.520	0.500
2020/01/31 10:37:41.8	300.580	0.360	-0.560	0.480
2020/01/31 10:37:41.9	300.580	0.390	-0.600	0.460
2020/01/31 10:37:42.0	300.590	0.420	-0.640	0.430
2020/01/31 10:37:42.1	300.600	0.440	-0.670	0.410
2020/01/31 10:37:42.2	300.620	0.460	-0.700	0.390
2020/01/31 10:37:42.3	300.630	0.480	-0.730	0.370
2020/01/31 10:37:42.4	300.650	0.500	-0.750	0.350
2020/01/31 10:37:42.5	300.660	0.510	-0.770	0.330
2020/01/31 10:37:42.6	300.680	0.520	-0.780	0.310
2020/01/31 10:37:42.7	300.690	0.530	-0.790	0.290
2020/01/31 10:37:42.8	300.710	0.540	-0.790	0.270
2020/01/31 10:37:42.9	300.730	0.540	-0.790	0.250
2020/01/31 10:37:43.0	300.750	0.540	-0.780	0.230
2020/01/31 10:37:43.1	300.770	0.540	-0.770	0.220
2020/01/31 10:37:43.2	300.790	0.540	-0.760	0.200
2020/01/31 10:37:43.3	300.810	0.530	-0.740	0.180
2020/01/31 10:37:43.4	300.840	0.520	-0.720	0.160
2020/01/31 10:37:43.5	300.860	0.510	-0.690	0.150
2020/01/31 10:37:43.6	300.880	0.500	-0.660	0.130
2020/01/31 10:37:43.7	300.910	0.490	-0.630	0.110
2020/01/31 10:37:43.8	300.930	0.470	-0.600	0.100
2020/01/31 10:37:43.9	300.960	0.450	-0.570	0.080
2020/01/31 10:37:44.0	300.990	0.430	-0.530	0.070
2020/01/31 10:37:44.1	301.010	0.410	-0.490	0.050
2020/01/31 10:37:44.2	301.040	0.390	-0.450	0.040
2020/01/31 10:37:44.3	301.060	0.360	-0.410	0.030
2020/01/31 10:37:44.4	301.090	0.340	-0.370	0.010
2020/01/31 10:37:44.5	301.110	0.310	-0.330	0.000
2020/01/31 10:37:44.6	301.130	0.280	-0.280	-0.010
2020/01/31 10:37:44.7	301.160	0.260	-0.240	-0.030
2020/01/31 10:37:44.8	301.180	0.230	-0.200	-0.040
2020/01/31 10:37:44.9	301.210	0.200	-0.160	-0.050
2020/01/31 10:37:45.0	301.230	0.170	-0.120	-0.060
2020/01/31 10:37:45.1	301.250	0.140	-0.090	-0.080
2020/01/31 10:37:45.2	301.270	0.110	-0.050	-0.090
2020/01/31 10:37:45.3	301.290	0.070	-0.020	-0.100
2020/01/31 10:37:45.4	301.300	0.040	0.010	-0.110
2020/01/31 10:37:45.5	301.320	0.010	0.040	-0.120
2020/01/31 10:37:45.6	301.330	-0.020	0.070	-0.130
2020/01/31 10:37:45.7	301.350	-0.040	0.090	-0.140
2020/01/31 10:37:45.8	301.360	-0.070	0.110	-0.140
2020/01/31 10:37:45.9	301.380	-0.100	0.130	-0.150
2020/01/31 10:37:46.0	301.390	-0.130	0.140	-0.150
2020/01/31 10:37:46.1	301.390	-0.150	0.150	-0.160
2020/01/31 10:37:46.2	301.400	-0.180	0.160	-0.160
2020/01/31 10:37:46.3	301.410	-0.200	0.170	-0.160
2020/01/31 10:37:46.4	301.410	-0.220	0.170	-0.160
2020/01/31 10:37:46.5	301.410	-0.240	0.170	-0.150
2020/01/31 10:37:46.6	301.410	-0.260	0.170	-0.150
2020/01/31 10:37:46.7	301.400	-0.280	0.170	-0.150
2020/01/31 10:37:46.8	301.400	-0.300	0.160	-0.140
2020/01/31 10:37:46.9	301.390	-0.310	0.150	-0.130
2020/01/31 10:37:47.0	301.380	-0.320	0.140	-0.120
2020/01/31 10:37:47.1	301.370	-0.330	0.120	-0.110
2020/01/31 10:37:47.2	301.350	-0.340	0.110	-0.090
2020/01/31 10:37:47.3	301.340	-0.350	0.090	-0.080
2020/01/31 10:37:47.4	301.310	-0.360	0.070	-0.070
2020/01/31 10:37:47.5	301.290	-0.370	0.050	-0.050
2020/01/31 10:37:47.6	301.270	-0.370	0.030	-0.020
2020/01/31 10:37:47.7	301.250	-0.370	0.000	0.000
2020/01/31 10:37:47.8	301.220	-0.370	-0.020	0.030
2020/01/31 10:37:47.9	301.200	-0.370	-0.050	0.060
2020/01/31 10:37:48.0	301.170	-0.370	-0.080	0.090
2020/01/31 10:37:48.1	301.140	-0.370	-0.110	0.120
2020/01/31 10:37:48.2	301.120	-0.370	-0.140	0.150
2020/01/31 10:37:48.3	301.090	-0.360	-0.170	0.180
2020/01/31 10:37:48.4	301.060	-0.360	-0.200	0.220
2020/01/31 10:37:48.5	301.030	-0.350	-0.230	0.250
2020/01/31 10:37:48.6	301.000	-0.340	-0.270	0.280
2020/01/31 10:37:48.7	300.980	-0.330	-0.300	0.310
2020/01/31 10:37:48.8	300.950	-0.320	-0.340	0.340
2020/01/31 10:37:48.9	300.930	-0.310	-0.370	0.380
2020/01/31 10:37:49.0	300.900	-0.290	-0.410	0.410
2020/01/31 10:37:49.1	300.880	-0.280	-0.450	0.440
2020/01/31 10:37:49.2	300.850	-0.270	-0.480	0.460
2020/01/31 10:37:49.3	300.830	-0.250	-0.520	0.490
2020/01/31 10:37:49.4	300.800	-0.240	-0.550	0.510
2020/01/31 10:37:49.5	300.780	-0.220	-0.590	0.540
2020/01/31 10:37:49.6	300.760	-0.200	-0.620	0.560
2020/01/31 10:37:49.7	300.740	-0.180	-0.650	0.590
2020/01/31 10:37:49.8	300.730	-0.160	-0.680	0.610
2020/01/31 10:37:49.9	300.710	-0.150	-0.710	0.630
2020/01/31 10:37:50.0	300.700	-0.130	-0.730	0.650
2020/01/31 10:37:50.1	300.690	-0.110	-0.760	0.670
2020/01/31 10:37:50.2	300.680	-0.090	-0.780	0.690
2020/01/31 10:37:50.3	300.670	-0.070	-0.800	0.710
2020/01/31 10:37:50.4	300.660	-0.050	-0.820	0.730
2020/01/31 10:37:50.5	300.660	-0.030	-0.830	0.740
2020/01/31 10:37:50.6	300.650	-0.010	-0.840	0.760
2020/01/31 10:37:50.7	300.650	0.010	-0.850	0.770
2020/01/31 10:37:50.8	300.650	0.020	-0.850	0.770
2020/01/31 10:37:50.9	300.650	0.040	-0.860	0.780
2020/01/31 10:37:51.0	300.650	0.060	-0.860	0.790
2020/01/31 10:37:51.1	300.660	0.070	-0.850	0.790
2020/01/31 10:37:51.2	300.660	0.090	-0.840	0.800
2020/01/31 10:37:51.3	300.670	0.100	-0.830	0.800
2020/01/31 10:37:51.4	300.690	0.110	-0.820	0.800
2020/01/31 10:37:51.5	300.700	0.130	-0.800	0.800
2020/01/31 10:37:51.6	300.710	0.140	-0.780	0.800
2020/01/31 10:37:51.7	300.720	0.150	-0.760	0.800
2020/01/31 10:37:51.8	300.740	0.160	-0.730	0.790
2020/01/31 10:37:51.9	300.750	0.160	-0.710	0.780
2020/01/31 10:37:52.0	300.770	0.170	-0.670	0.770
2020/01/31 10:37:52.1	300.780	0.180	-0.640	0.760
2020/01/31 10:37:52.2	300.800	0.180	-0.600	0.750
2020/01/31 10:37:52.3	300.820	0.180	-0.560	0.740
2020/01/31 10:37:52.4	300.850	0.190	-0.530	0.730
2020/01/31 10:37:52.5	300.870	0.190	-0.480	0.710
2020/01/31 10:37:52.6	300.890	0.190	-0.440	0.690
2020/01/31 10:37:52.7	300.910	0.190	-0.390	0.670
2020/01/31 10:37:52.8	300.940	0.180	-0.350	0.650
2020/01/31 10:37:52.9	300.960	0.180	-0.300	0.630
2020/01/31 10:37:53.0	300.990	0.180	-0.250	0.600
2020/01/31 10:37:53.1	301.010	0.180	-0.200	0.570
2020/01/31 10:37:53.2	301.040	0.170	-0.150	0.550
2020/01/31 10:37:53.3	301.070	0.160	-0.100	0.520
2020/01/31 10:37:53.4	301.100	0.160	-0.060	0.480
2020/01/31 10:37:53.5	301.130	0.150	-0.010	0.450
2020/01/31 10:37:53.6	301.160	0.140	0.040	0.420
2020/01/31 10:37:53.7	301.190	0.140	0.090	0.380
2020/01/31 10:37:53.8	301.220	0.130	0.130	0.340
2020/01/31 10:37:53.9	301.250	0.120	0.180	0.310
2020/01/31 10:37:54.0	301.290	0.110	0.220	0.270
2020/01/31 10:37:54.1	301.320	0.100	0.260	0.230
2020/01/31 10:37:54.2	301.350	0.090	0.300	0.190
2020/01/31 10:37:54.3	301.380	0.070	0.340	0.150
2020/01/31 10:37:54.4	301.410	0.060	0.370	0.120
2020/01/31 10:37:54.5	301.440	0.050	0.400	0.080
2020/01/31 10:37:54.6	301.480	0.040	0.440	0.040
2020/01/31 10:37:54.7	301.510	0.030	0.460	0.010
2020/01/31 10:37:54.8	301.540	0.020	0.490	-0.020
2020/01/31 10:37:54.9	301.560	0.000	0.520	-0.060
2020/01/31 10:37:55.0	301.590	-0.010	0.540	-0.080
2020/01/31 10:37:55.1	301.620	-0.020	0.560	-0.110
2020/01/31 10:37:55.2	301.640	-0.030	0.570	-0.140
2020/01/31 10:37:55.3	301.660	-0.040	0.590	-0.160
2020/01/31 10:37:55.4	301.680	-0.050	0.600	-0.180
2020/01/31 10:37:55.5	301.700	-0.060	0.610	-0.200
2020/01/31 10:37:55.6	301.710	-0.070	0.610	-0.210
2020/01/31 10:37:55.7	301.730	-0.080	0.620	-0.220
2020/01/31 10:37:55.8	301.740	-0.090	0.620	-0.230
2020/01/31 10:37:55.9	301.740	-0.100	0.610	-0.230
2020/01/31 10:37:56.0	301.750	-0.100	0.610	-0.230
2020/01/31 10:37:56.1	301.750	-0.110	0.600	-0.230
2020/01/31 10:37:56.2	301.750	-0.110	0.590	-0.220
2020/01/31 10:37:56.3	301.750	-0.120	0.570	-0.210
2020/01/31 10:37:56.4	301.740	-0.120	0.560	-0.200
2020/01/31 10:37:56.5	301.740	-0.120	0.530	-0.180
2020/01/31 10:37:56.6	301.730	-0.120	0.510	-0.160
2020/01/31 10:37:56.7	301.720	-0.120	0.480	-0.150
2020/01/31 10:37:56.8	301.710	-0.120	0.450	-0.130
2020/01/31 10:37:56.9	301.700	-0.120	0.420	-0.100
2020/01/31 10:37:57.0	301.680	-0.110	0.380	-0.080
2020/01/31 10:37:57.1	301.670	-0.110	0.340	-0.060
2020/01/31 10:37:57.2	301.660	-0.100	0.290	-0.040
2020/01/31 10:37:57.3	301.640	-0.090	0.250	-0.010
2020/01/31 10:37:57.4	301.630	-0.080	0.200	0.010
2020/01/31 10:37:57.5	301.620	-0.070	0.140	0.030
2020/01/31 10:37:57.6	301.600	-0.060	0.090	0.050
2020/01/31 10:37:57.7	301.590	-0.050	0.030	0.080
2020/01/31 10:37:57.8	301.570	-0.030	-0.030	0.100
2020/01/31 10:37:57.9	301.560	-0.010	-0.090	0.120
2020/01/31 10:37:58.0	301.550	0.000	-0.150	0.150
2020/01/31 10:37:58.1	301.530	0.020	-0.220	0.170
2020/01/31 10:37:58.2	301.520	0.040	-0.280	0.190
2020/01/31 10:37:58.3	301.500	0.060	-0.350	0.210
2020/01/31 10:37:58.4	301.490	0.080	-0.420	0.240
2020/01/31 10:37:58.5	301.470	0.100	-0.480	0.260
2020/01/31 10:37:58.6	301.460	0.120	-0.550	0.280
2020/01/31 10:37:58.7	301.440	0.140	-0.610	0.300
2020/01/31 10:37:58.8	301.430	0.160	-0.680	0.320
2020/01/31 10:37:58.9	301.420	0.180	-0.740	0.340
2020/01/31 10:37:59.0	301.410	0.210	-0.800	0.350
2020/01/31 10:37:59.1	301.390	0.230	-0.850	0.370
2020/01/31 10:37:59.2	301.380	0.240	-0.910	0.390
2020/01/31 10:37:59.3	301.370	0.260	-0.960	0.400
2020/01/31 10:37:59.4	301.350	0.280	-1.010	0.410
2020/01/31 10:37:59.5	301.350	0.300	-1.050	0.420
2020/01/31 10:37:59.6	301.340	0.310	-1.090	0.430
2020/01/31 10:37:59.7	301.330	0.330	-1.130	0.430
2020/01/31 10:37:59.8	301.330	0.340	-1.160	0.440
2020/01/31 10:37:59.9	301.330	0.350	-1.190	0.440
2020/01/31 10:38:00.0	301.320	0.360	-1.220	0.440
2020/01/31 10:38:00.1	301.320	0.370	-1.240	0.440
2020/01/31 10:38:00.2	301.320	0.370	-1.250	0.440
2020/01/31 10:38:00.3	301.320	0.380	-1.260	0.430
2020/01/31 10:38:00.4	301.330	0.380	-1.270	0.430
2020/01/31 10:38:00.5	301.340	0.380	-1.270	0.420
2020/01/31 10:38:00.6	301.340	0.380	-1.260	0.410
2020/01/31 10:38:00.7	301.350	0.370	-1.250	0.410
2020/01/31 10:38:00.8	301.350	0.370	-1.240	0.400
2020/01/31 10:38:00.9	301.360	0.360	-1.220	0.390
2020/01/31 10:38:01.0	301.370	0.350	-1.190	0.380
2020/01/31 10:38:01.1	301.370	0.340	-1.160	0.370
2020/01/31 10:38:01.2	301.380	0.330	-1.130	0.360
2020/01/31 10:38:01.3	301.390	0.310	-1.090	0.350
2020/01/31 10:38:01.4	301.410	0.300	-1.060	0.350
2020/01/31 10:38:01.5	301.420	0.280	-1.010	0.340
2020/01/31 10:38:01.6	301.430	0.260	-0.970	0.340
2020/01/31 10:38:01.7	301.430	0.240	-0.920	0.330
2020/01/31 10:38:01.8	301.440	0.220	-0.870	0.330
2020/01/31 10:38:01.9	301.450	0.200	-0.810	0.320
2020/01/31 10:38:02.0	301.460	0.170	-0.760	0.320
2020/01/31 10:38:02.1	301.470	0.150	-0.700	0.320
2020/01/31 10:38:02.2	301.470	0.130	-0.650	0.320
2020/01/31 10:38:02.3	301.480	0.100	-0.590	0.320
2020/01/31 10:38:02.4	301.500	0.070	-0.530	0.310
2020/01/31 10:38:02.5	301.500	0.050	-0.470	0.310
2020/01/31 10:38:02.6	301.510	0.020	-0.420	0.310
2020/01/31 10:38:02.7	301.520	-0.000	-0.370	0.310
2020/01/31 10:38:02.8	301.530	-0.030	-0.310	0.310
2020/01/31 10:38:02.9	301.540	-0.050	-0.260	0.310
2020/01/31 10:38:03.0	301.550	-0.070	-0.220	0.300
2020/01/31 10:38:03.1	301.550	-0.100	-0.170	0.300
2020/01/31 10:38:03.2	301.560	-0.120	-0.130	0.290
2020/01/31 10:38:03.3	301.570	-0.140	-0.090	0.280
2020/01/31 10:38:03.4	301.590	-0.160	-0.060	0.270
2020/01/31 10:38:03.5	301.600	-0.180	-0.030	0.260
2020/01/31 10:38:03.6	301.610	-0.200	0.010	0.250
2020/01/31 10:38:03.7	301.620	-0.220	0.030	0.240
2020/01/31 10:38:03.8	301.630	-0.240	0.060	0.220
2020/01/31 10:38:03.9	301.640	-0.250	0.080	0.200
2020/01/31 10:38:04.0	301.650	-0.270	0.100	0.180
2020/01/31 10:38:04.1	301.650	-0.280	0.120	0.170
2020/01/31 10:38:04.2	301.660	-0.290	0.130	0.150
2020/01/31 10:38:04.3	301.670	-0.300	0.150	0.120
2020/01/31 10:38:04.4	301.670	-0.310	0.160	0.100
2020/01/31 10:38:04.5	301.680	-0.320	0.170	0.080
2020/01/31 10:38:04.6	301.680	-0.330	0.180	0.060
2020/01/31 10:38:04.7	301.690	-0.340	0.190	0.040
2020/01/31 10:38:04.8	301.690	-0.350	0.200	0.020
2020/01/31 10:38:04.9	301.700	-0.360	0.210	-0.000
2020/01/31 10:38:05.0	301.700	-0.360	0.220	-0.020
2020/01/31 10:38:05.1	301.710	-0.370	0.230	-0.040
2020/01/31 10:38:05.2	301.710	-0.370	0.240	-0.060
2020/01/31 10:38:05.3	301.710	-0.380	0.250	-0.070
2020/01/31 10:38:05.4	301.710	-0.380	0.250	-0.090
2020/01/31 10:38:05.5	301.710	-0.390	0.260	-0.100
2020/01/31 10:38:05.6	301.720	-0.390	0.270	-0.120
2020/01/31 10:38:05.7	301.720	-0.390	0.280	-0.130
2020/01/31 10:38:05.8	301.720	-0.400	0.280	-0.140
2020/01/31 10:38:05.9	301.720	-0.400	0.290	-0.150
2020/01/31 10:38:06.0	301.720	-0.400	0.290	-0.160
2020/01/31 10:38:06.1	301.730	-0.410	0.300	-0.170
2020/01/31 10:38:06.2	301.730	-0.410	0.300	-0.180
2020/01/31 10:38:06.3	301.730	-0.410	0.310	-0.190
2020/01/31 10:38:06.4	301.730	-0.410	0.300	-0.190
2020/01/31 10:38:06.5	301.730	-0.410	0.300	-0.200
2020/01/31 10:38:06.6	301.730	-0.420	0.300	-0.200
2020/01/31 10:38:06.7	301.730	-0.420	0.300	-0.200
2020/01/31 10:38:06.8	301.740	-0.410	0.300	-0.200
2020/01/31 10:38:06.9	301.740	-0.410	0.290	-0.210
2020/01/31 10:38:07.0	301.740	-0.410	0.290	-0.200
2020/01/31 10:38:07.1	301.750	-0.410	0.280	-0.200
2020/01/31 10:38:07.2	301.750	-0.400	0.270	-0.200
2020/01/31 10:38:07.3	301.750	-0.400	0.260	-0.190
2020/01/31 10:38:07.4	301.760	-0.390	0.250	-0.190
2020/01/31 10:38:07.5	301.760	-0.380	0.240	-0.180
2020/01/31 10:38:07.6	301.770	-0.380	0.220	-0.170
2020/01/31 10:38:07.7	301.770	-0.370	0.210	-0.150
2020/01/31 10:38:07.8	301.780	-0.360	0.190	-0.140
2020/01/31 10:38:07.9	301.780	-0.340	0.170	-0.130
2020/01/31 10:38:08.0	301.780	-0.330	0.150	-0.110
2020/01/31 10:38:08.1	301.790	-0.320	0.130	-0.090
2020/01/31 10:38:08.2	301.790	-0.300	0.110	-0.070
2020/01/31 10:38:08.3	301.800	-0.280	0.090	-0.050
2020/01/31 10:38:08.4	301.810	-0.270	0.060	-0.020
2020/01/31 10:38:08.5	301.810	-0.250	0.030	0.000
2020/01/31 10:38:08.6	301.810	-0.230	0.010	0.030
2020/01/31 10:38:08.7	301.820	-0.210	-0.020	0.060
2020/01/31 10:38:08.8	301.820	-0.180	-0.050	0.090
2020/01/31 10:38:08.9	301.820	-0.160	-0.070	0.120
2020/01/31 10:38:09.0	301.820	-0.140	-0.100	0.150
2020/01/31 10:38:09.1	301.820	-0.110	-0.130	0.180
2020/01/31 10:38:09.2	301.820	-0.090	-0.160	0.210
2020/01/31 10:38:09.3	301.820	-0.060	-0.180	0.250
2020/01/31 10:38:09.4	301.820	-0.040	-0.210	0.290
2020/01/31 10:38:09.5	301.820	-0.010	-0.240	0.320
2020/01/31 10:38:09.6	301.820	0.020	-0.260	0.360
2020/01/31 10:38:09.7	301.810	0.050	-0.290	0.390
2020/01/31 10:38:09.8	301.810	0.070	-0.310	0.430
2020/01/31 10:38:09.9	301.800	0.100	-0.340	0.460
2020/01/31 10:38:10.0	301.790	0.130	-0.360	0.500
2020/01/31 10:38:10.1	301.790	0.160	-0.380	0.540
2020/01/31 10:38:10.2	301.780	0.190	-0.400	0.570
2020/01/31 10:38:10.3	301.770	0.220	-0.420	0.610
2020/01/31 10:38:10.4	301.760	0.250	-0.440	0.640
2020/01/31 10:38:10.5	301.750	0.270	-0.450	0.680
2020/01/31 10:38:10.6	301.740	0.300	-0.460	0.710
2020/01/31 10:38:10.7	301.730	0.330	-0.470	0.750
2020/01/31 10:38:10.8	301.720	0.360	-0.480	0.780
2020/01/31 10:38:10.9	301.710	0.380	-0.490	0.820
2020/01/31 10:38:11.0	301.700	0.410	-0.500	0.850
2020/01/31 10:38:11.1	301.680	0.430	-0.510	0.880
2020/01/31 10:38:11.2	301.670	0.460	-0.510	0.910
2020/01/31 10:38:11.3	301.660	0.480	-0.510	0.940
2020/01/31 10:38:11.4	301.640	0.500	-0.520	0.970
2020/01/31 10:38:11.5	301.630	0.520	-0.520	1.000
2020/01/31 10:38:11.6	301.620	0.540	-0.520	1.020
2020/01/31 10:38:11.7	301.600	0.560	-0.520	1.050
2020/01/31 10:38:11.8	301.590	0.570	-0.520	1.070
2020/01/31 10:38:11.9	301.580	0.590	-0.520	1.090
2020/01/31 10:38:12.0	301.560	0.600	-0.520	1.100
2020/01/31 10:38:12.1	301.550	0.610	-0.510	1.110
2020/01/31 10:38:12.2	301.540	0.620	-0.510	1.120
2020/01/31 10:38:12.3	301.530	0.620	-0.510	1.130
2020/01/31 10:38:12.4	301.520	0.630	-0.510	1.140
2020/01/31 10:38:12.5	301.510	0.630	-0.510	1.140
2020/01/31 10:38:12.6	301.500	0.630	-0.510	1.140
2020/01/31 10:38:12.7	301.490	0.630	-0.510	1.130
2020/01/31 10:38:12.8	301.480	0.620	-0.510	1.120
2020/01/31 10:38:12.9	301.470	0.620	-0.510	1.110
2020/01/31 10:38:13.0	301.460	0.610	-0.510	1.100
2020/01/31 10:38:13.1	301.460	0.600	-0.510	1.080
2020/01/31 10:38:13.2	301.450	0.590	-0.520	1.060
2020/01/31 10:38:13.3	301.450	0.580	-0.520	1.040
2020/01/31 10:38:13.4	301.460	0.560	-0.530	1.020
2020/01/31 10:38:13.5	301.450	0.550	-0.530	0.990
2020/01/31 10:38:13.6	301.450	0.530	-0.540	0.960
2020/01/31 10:38:13.7	301.460	0.510	-0.540	0.930
2020/01/31 10:38:13.8	301.460	0.500	-0.550	0.900
2020/01/31 10:38:13.9	301.460	0.480	-0.560	0.870
2020/01/31 10:38:14.0	301.470	0.460	-0.560	0.830
2020/01/31 10:38:14.1	301.470	0.430	-0.570	0.800
2020/01/31 10:38:14.2	301.480	0.410	-0.580	0.760
2020/01/31 10:38:14.3	301.490	0.390	-0.580	0.730
2020/01/31 10:38:14.4	301.500	0.360	-0.590	0.680
2020/01/31 10:38:14.5	301.510	0.340	-0.600	0.650
2020/01/31 10:38:14.6	301.520	0.320	-0.600	0.610
2020/01/31 10:38:14.7	301.530	0.290	-0.600	0.560
2020/01/31 10:38:14.8	301.540	0.260	-0.600	0.520
2020/01/31 10:38:14.9	301.550	0.240	-0.590	0.480
2020/01/31 10:38:15.0	301.560	0.210	-0.590	0.440
2020/01/31 10:38:15.1	301.570	0.190	-0.580	0.400
2020/01/31 10:38:15.2	301.580	0.160	-0.570	0.360
2020/01/31 10:38:15.3	301.590	0.130	-0.560	0.310
2020/01/31 10:38:15.4	301.610	0.110	-0.540	0.270
2020/01/31 10:38:15.5	301.620	0.080	-0.530	0.230
2020/01/31 10:38:15.6	301.630	0.060	-0.510	0.190
2020/01/31 10:38:15.7	301.630	0.030	-0.490	0.160
2020/01/31 10:38:15.8	301.640	0.010	-0.460	0.120
2020/01/31 10:38:15.9	301.650	-0.020	-0.440	0.080
2020/01/31 10:38:16.0	301.660	-0.040	-0.420	0.040
2020/01/31 10:38:16.1	301.660	-0.070	-0.390	0.010
2020/01/31 10:38:16.2	301.670	-0.090	-0.360	-0.030
2020/01/31 10:38:16.3	301.680	-0.120	-0.330	-0.060
2020/01/31 10:38:16.4	301.680	-0.140	-0.310	-0.090
2020/01/31 10:38:16.5	301.690	-0.160	-0.280	-0.120
2020/01/31 10:38:16.6	301.690	-0.180	-0.250	-0.160
2020/01/31 10:38:16.7	301.690	-0.200	-0.220	-0.190
2020/01/31 10:38:16.8	301.700	-0.230	-0.190	-0.210
2020/01/31 10:38:16.9	301.700	-0.250	-0.160	-0.240
2020/01/31 10:38:17.0	301.700	-0.270	-0.140	-0.270
2020/01/31 10:38:17.1	301.700	-0.290	-0.110	-0.290
2020/01/31 10:38:17.2	301.700	-0.310	-0.080	-0.310
2020/01/31 10:38:17.3	301.690	-0.320	-0.060	-0.320
2020/01/31 10:38:17.4	301.690	-0.340	-0.040	-0.340
2020/01/31 10:38:17.5	301.680	-0.360	-0.010	-0.350
2020/01/31 10:38:17.6	301.670	-0.370	0.010	-0.360
2020/01/31 10:38:17.7	301.670	-0.390	0.030	-0.370
2020/01/31 10:38:17.8	301.660	-0.400	0.050	-0.370
2020/01/31 10:38:17.9	301.650	-0.420	0.070	-0.370
2020/01/31 10:38:18.0	301.640	-0.430	0.090	-0.370
2020/01/31 10:38:18.1	301.630	-0.440	0.100	-0.360
2020/01/31 10:38:18.2	301.610	-0.450	0.120	-0.350
2020/01/31 10:38:18.3	301.600	-0.460	0.140	-0.340
2020/01/31 10:38:18.4	301.590	-0.470	0.150	-0.320
2020/01/31 10:38:18.5	301.580	-0.480	0.160	-0.310
2020/01/31 10:38:18.6	301.560	-0.480	0.170	-0.290
2020/01/31 10:38:18.7	301.550	-0.490	0.180	-0.260
2020/01/31 10:38:18.8	301.540	-0.490	0.190	-0.240
2020/01/31 10:38:18.9	301.520	-0.490	0.200	-0.210
2020/01/31 10:38:19.0	301.500	-0.490	0.210	-0.180
2020/01/31 10:38:19.1	301.490	-0.490	0.220	-0.140
2020/01/31 10:38:19.2	301.470	-0.490	0.220	-0.110
2020/01/31 10:38:19.3	301.450	-0.480	0.230	-0.070
2020/01/31 10:38:19.4	301.430	-0.480	0.230	-0.030
2020/01/31 10:38:19.5	301.410	-0.470	0.230	0.010
2020/01/31 10:38:19.6	301.390	-0.460	0.230	0.050
2020/01/31 10:38:19.7	301.370	-0.460	0.230	0.090
2020/01/31 10:38:19.8	301.350	-0.450	0.230	0.140
2020/01/31 10:38:19.9	301.330	-0.440	0.220	0.180
2020/01/31 10:38:20.0	301.310	-0.420	0.210	0.220
2020/01/31 10:38:20.1	301.290	-0.410	0.200	0.260
2020/01/31 10:38:20.2	301.270	-0.400	0.190	0.300
2020/01/31 10:38:20.3	301.250	-0.380	0.180	0.340
2020/01/31 10:38:20.4	301.250	-0.370	0.160	0.390
2020/01/31 10:38:20.5	301.230	-0.350	0.140	0.420
2020/01/31 10:38:20.6	301.210	-0.330	0.120	0.460
2020/01/31 10:38:20.7	301.200	-0.320	0.100	0.490
2020/01/31 10:38:20.8	301.180	-0.300	0.070	0.530
2020/01/31 10:38:20.9	301.170	-0.280	0.040	0.560
2020/01/31 10:38:21.0	301.150	-0.260	0.010	0.590
2020/01/31 10:38:21.1	301.140	-0.240	-0.020	0.610
2020/01/31 10:38:21.2	301.130	-0.220	-0.050	0.630
2020/01/31 10:38:21.3	301.120	-0.200	-0.090	0.660
2020/01/31 10:38:21.4	301.100	-0.180	-0.120	0.680
2020/01/31 10:38:21.5	301.100	-0.160	-0.160	0.690
2020/01/31 10:38:21.6	301.090	-0.140	-0.200	0.700
2020/01/31 10:38:21.7	301.090	-0.120	-0.240	0.710
2020/01/31 10:38:21.8	301.090	-0.100	-0.280	0.720
2020/01/31 10:38:21.9	301.080	-0.080	-0.320	0.720
2020/01/31 10:38:22.0	301.090	-0.060	-0.360	0.720
2020/01/31 10:38:22.1	301.090	-0.040	-0.400	0.710
2020/01/31 10:38:22.2	301.100	-0.020	-0.430	0.700
2020/01/31 10:38:22.3	301.100	-0.000	-0.470	0.690
2020/01/31 10:38:22.4	301.110	0.020	-0.510	0.670
2020/01/31 10:38:22.5	301.130	0.030	-0.550	0.650
2020/01/31 10:38:22.6	301.140	0.050	-0.580	0.630
2020/01/31 10:38:22.7	301.150	0.060	-0.610	0.600
2020/01/31 10:38:22.8	301.170	0.080	-0.640	0.580
2020/01/31 10:38:22.9	301.190	0.090	-0.670	0.550
2020/01/31 10:38:23.0	301.210	0.110	-0.690	0.520
2020/01/31 10:38:23.1	301.230	0.120	-0.710	0.480
2020/01/31 10:38:23.2	301.260	0.130	-0.730	0.450
2020/01/31 10:38:23.3	301.280	0.140	-0.750	0.410
2020/01/31 10:38:23.4	301.310	0.150	-0.760	0.380
2020/01/31 10:38:23.5	301.330	0.150	-0.760	0.340
2020/01/31 10:38:23.6	301.360	0.160	-0.760	0.310
2020/01/31 10:38:23.7	301.390	0.160	-0.760	0.270
2020/01/31 10:38:23.8	301.420	0.160	-0.750	0.240
2020/01/31 10:38:23.9	301.440	0.170	-0.740	0.200
2020/01/31 10:38:24.0	301.470	0.170	-0.730	0.170
2020/01/31 10:38:24.1	301.500	0.160	-0.710	0.140
2020/01/31 10:38:24.2	301.530	0.160	-0.690	0.110
2020/01/31 10:38:24.3	301.560	0.160	-0.660	0.080
2020/01/31 10:38:24.4	301.590	0.150	-0.630	0.060
2020/01/31 10:38:24.5	301.610	0.150	-0.590	0.040
2020/01/31 10:38:24.6	301.640	0.140	-0.560	0.020
2020/01/31 10:38:24.7	301.660	0.130	-0.520	0.010
2020/01/31 10:38:24.8	301.680	0.120	-0.480	-0.000
2020/01/31 10:38:24.9	301.700	0.110	-0.430	-0.010
2020/01/31 10:38:25.0	301.710	0.100	-0.390	-0.010
2020/01/31 10:38:25.1	301.730	0.090	-0.340	-0.010
2020/01/31 10:38:25.2	301.740	0.080	-0.290	-0.010
2020/01/31 10:38:25.3	301.750	0.070	-0.250	0.000
2020/01/31 10:38:25.4	301.760	0.060	-0.200	0.010
2020/01/31 10:38:25.5	301.770	0.050	-0.160	0.030
2020/01/31 10:38:25.6	301.780	0.040	-0.110	0.050
2020/01/31 10:38:25.7	301.780	0.030	-0.070	0.070
2020/01/31 10:38:25.8	301.790	0.020	-0.030	0.090
2020/01/31 10:38:25.9	301.790	0.020	0.010	0.120
2020/01/31 10:38:26.0	301.790	0.010	0.050	0.150
2020/01/31 10:38:26.1	301.780	0.010	0.080	0.180
2020/01/31 10:38:26.2	301.780	0.010	0.110	0.220
2020/01/31 10:38:26.3	301.770	0.000	0.140	0.250
2020/01/31 10:38:26.4	301.770	0.010	0.170	0.290
2020/01/31 10:38:26.5	301.770	0.010	0.190	0.330
2020/01/31 10:38:26.6	301.750	0.010	0.200	0.370
2020/01/31 10:38:26.7	301.740	0.020	0.220	0.420
2020/01/31 10:38:26.8	301.730	0.020	0.230	0.460
2020/01/31 10:38:26.9	301.710	0.030	0.240	0.500
2020/01/31 10:38:27.0	301.690	0.050	0.240	0.540
2020/01/31 10:38:27.1	301.670	0.060	0.240	0.590
2020/01/31 10:38:27.2	301.650	0.070	0.240	0.630
2020/01/31 10:38:27.3	301.620	0.090	0.230	0.670
2020/01/31 10:38:27.4	301.600	0.100	0.220	0.710
2020/01/31 10:38:27.5	301.570	0.120	0.200	0.760
2020/01/31 10:38:27.6	301.540	0.140	0.190	0.800
2020/01/31 10:38:27.7	301.510	0.160	0.170	0.840
2020/01/31 10:38:27.8	301.480	0.190	0.150	0.880
2020/01/31 10:38:27.9	301.450	0.210	0.130	0.910
2020/01/31 10:38:28.0	301.420	0.230	0.100	0.950
2020/01/31 10:38:28.1	301.380	0.250	0.080	0.990
2020/01/31 10:38:28.2	301.350	0.280	0.050	1.020
2020/01/31 10:38:28.3	301.320	0.300	0.020	1.050
2020/01/31 10:38:28.4	301.280	0.320	-0.010	1.080
2020/01/31 10:38:28.5	301.250	0.350	-0.050	1.100
2020/01/31 10:38:28.6	301.220	0.370	-0.080	1.120
2020/01/31 10:38:28.7	301.190	0.390	-0.120	1.140
2020/01/31 10:38:28.8	301.160	0.410	-0.150	1.160
2020/01/31 10:38:28.9	301.140	0.430	-0.190	1.160
2020/01/31 10:38:29.0	301.110	0.450	-0.230	1.170
2020/01/31 10:38:29.1	301.090	0.470	-0.270	1.170
2020/01/31 10:38:29.2	301.070	0.480	-0.310	1.160
2020/01/31 10:38:29.3	301.060	0.490	-0.350	1.150
2020/01/31 10:38:29.4	301.040	0.500	-0.390	1.130
2020/01/31 10:38:29.5	301.030	0.510	-0.420	1.110
2020/01/31 10:38:29.6	301.020	0.520	-0.460	1.090
2020/01/31 10:38:29.7	301.020	0.520	-0.490	1.060
2020/01/31 10:38:29.8	301.010	0.520	-0.530	1.030
2020/01/31 10:38:29.9	301.010	0.520	-0.560	0.990
2020/01/31 10:38:30.0	301.010	0.510	-0.590	0.950
2020/01/31 10:38:30.1	301.020	0.500	-0.620	0.910
2020/01/31 10:38:30.2	301.020	0.490	-0.640	0.860
2020/01/31 10:38:30.3	301.030	0.480	-0.660	0.820
2020/01/31 10:38:30.4	301.040	0.460	-0.680	0.770
2020/01/31 10:38:30.5	301.060	0.440	-0.700	0.720
2020/01/31 10:38:30.6	301.070	0.420	-0.710	0.670
2020/01/31 10:38:30.7	301.080	0.400	-0.720	0.620
2020/01/31 10:38:30.8	301.100	0.370	-0.730	0.570
2020/01/31 10:38:30.9	301.120	0.340	-0.730	0.520
2020/01/31 10:38:31.0	301.130	0.310	-0.740	0.470
2020/01/31 10:38:31.1	301.150	0.280	-0.730	0.420
2020/01/31 10:38:31.2	301.170	0.250	-0.730	0.380
2020/01/31 10:38:31.3	301.190	0.210	-0.720	0.330
2020/01/31 10:38:31.4	301.210	0.180	-0.710	0.290
2020/01/31 10:38:31.5	301.230	0.140	-0.700	0.240
2020/01/31 10:38:31.6	301.250	0.100	-0.680	0.200
2020/01/31 10:38:31.7	301.280	0.060	-0.660	0.160
2020/01/31 10:38:31.8	301.300	0.030	-0.640	0.120
2020/01/31 10:38:31.9	301.320	-0.010	-0.610	0.080
2020/01/31 10:38:32.0	301.340	-0.050	-0.590	0.050
2020/01/31 10:38:32.1	301.360	-0.090	-0.560	0.010
2020/01/31 10:38:32.2	301.380	-0.130	-0.530	-0.020
2020/01/31 10:38:32.3	301.400	-0.160	-0.510	-0.050
2020/01/31 10:38:32.4	301.430	-0.200	-0.480	-0.080
2020/01/31 10:38:32.5	301.450	-0.230	-0.450	-0.110
2020/01/31 10:38:32.6	301.470	-0.270	-0.420	-0.140
2020/01/31 10:38:32.7	301.490	-0.300	-0.390	-0.160
2020/01/31 10:38:32.8	301.510	-0.330	-0.370	-0.180
2020/01/31 10:38:32.9	301.530	-0.360	-0.340	-0.210
2020/01/31 10:38:33.0	301.550	-0.390	-0.320	-0.230
2020/01/31 10:38:33.1	301.570	-0.410	-0.290	-0.240
2020/01/31 10:38:33.2	301.590	-0.440	-0.270	-0.260
2020/01/31 10:38:33.3	301.600	-0.460	-0.250	-0.280
2020/01/31 10:38:33.4	301.620	-0.480	-0.230	-0.290
2020/01/31 10:38:33.5	301.630	-0.500	-0.210	-0.300
2020/01/31 10:38:33.6	301.650	-0.520	-0.190	-0.310
2020/01/31 10:38:33.7	301.660	-0.530	-0.180	-0.310
2020/01/31 10:38:33.8	301.680	-0.550	-0.160	-0.320
2020/01/31 10:38:33.9	301.690	-0.560	-0.150	-0.320
2020/01/31 10:38:34.0	301.700	-0.570	-0.140	-0.330
2020/01/31 10:38:34.1	301.720	-0.580	-0.130	-0.330
2020/01/31 10:38:34.2	301.730	-0.580	-0.130	-0.330
2020/01/31 10:38:34.3	301.740	-0.590	-0.120	-0.330
2020/01/31 10:38:34.4	301.750	-0.590	-0.110	-0.320
2020/01/31 10:38:34.5	301.760	-0.590	-0.110	-0.320
2020/01/31 10:38:34.6	301.770	-0.590	-0.100	-0.310
2020/01/31 10:38:34.7	301.780	-0.590	-0.100	-0.310
2020/01/31 10:38:34.8	301.790	-0.580	-0.090	-0.300
2020/01/31 10:38:34.9	301.800	-0.580	-0.090	-0.300
2020/01/31 10:38:35.0	301.810	-0.570	-0.090	-0.290
2020/01/31 10:38:35.1	301.820	-0.570	-0.080	-0.280
2020/01/31 10:38:35.2	301.840	-0.560	-0.080	-0.280
2020/01/31 10:38:35.3	301.850	-0.550	-0.080	-0.270
2020/01/31 10:38:35.4	301.860	-0.540	-0.070	-0.260
2020/01/31 10:38:35.5	301.880	-0.530	-0.070	-0.250
2020/01/31 10:38:35.6	301.890	-0.510	-0.060	-0.240
2020/01/31 10:38:35.7	301.900	-0.500	-0.050	-0.230
2020/01/31 10:38:35.8	301.910	-0.480	-0.050	-0.220
2020/01/31 10:38:35.9	301.920	-0.470	-0.040	-0.200
2020/01/31 10:38:36.0	301.930	-0.450	-0.030	-0.190
2020/01/31 10:38:36.1	301.940	-0.430	-0.020	-0.170
2020/01/31 10:38:36.2	301.950	-0.420	-0.010	-0.160
2020/01/31 10:38:36.3	301.950	-0.400	0.010	-0.140
2020/01/31 10:38:36.4	301.960	-0.380	0.020	-0.120
2020/01/31 10:38:36.5	301.960	-0.360	0.030	-0.090
2020/01/31 10:38:36.6	301.960	-0.330	0.040	-0.070
2020/01/31 10:38:36.7	301.960	-0.310	0.060	-0.050
2020/01/31 10:38:36.8	301.960	-0.290	0.070	-0.020
2020/01/31 10:38:36.9	301.950	-0.270	0.080	0.010
2020/01/31 10:38:37.0	301.950	-0.240	0.100	0.040
2020/01/31 10:38:37.1	301.940	-0.220	0.110	0.070
2020/01/31 10:38:37.2	301.930	-0.200	0.120	0.100
2020/01/31 10:38:37.3	301.920	-0.170	0.130	0.130
2020/01/31 10:38:37.4	301.910	-0.150	0.140	0.170
2020/01/31 10:38:37.5	301.900	-0.120	0.150	0.200
2020/01/31 10:38:37.6	301.890	-0.090	0.160	0.230
2020/01/31 10:38:37.7	301.880	-0.070	0.160	0.260
2020/01/31 10:38:37.8	301.860	-0.040	0.160	0.300
2020/01/31 10:38:37.9	301.850	-0.020	0.170	0.330
2020/01/31 10:38:38.0	301.830	0.010	0.160	0.360
2020/01/31 10:38:38.1	301.810	0.040	0.160	0.390
2020/01/31 10:38:38.2	301.800	0.070	0.160	0.430
2020/01/31 10:38:38.3	301.780	0.090	0.150	0.460
2020/01/31 10:38:38.4	301.760	0.120	0.140	0.490
2020/01/31 10:38:38.5	301.740	0.140	0.130	0.520
2020/01/31 10:38:38.6	301.720	0.170	0.110	0.540
2020/01/31 10:38:38.7	301.710	0.200	0.100	0.570
2020/01/31 10:38:38.8	301.690	0.220	0.080	0.600
2020/01/31 10:38:38.9	301.670	0.240	0.060	0.620
2020/01/31 10:38:39.0	301.660	0.270	0.030	0.640
2020/01/31 10:38:39.1	301.640	0.290	0.010	0.660
2020/01/31 10:38:39.2	301.620	0.310	-0.010	0.680
2020/01/31 10:38:39.3	301.610	0.330	-0.040	0.700
2020/01/31 10:38:39.4	301.610	0.350	-0.070	0.720
2020/01/31 10:38:39.5	301.590	0.370	-0.090	0.730
2020/01/31 10:38:39.6	301.580	0.380	-0.120	0.740
2020/01/31 10:38:39.7	301.570	0.400	-0.150	0.750
2020/01/31 10:38:39.8	301.550	0.410	-0.180	0.760
2020/01/31 10:38:39.9	301.540	0.420	-0.210	0.770
2020/01/31 10:38:40.0	301.530	0.430	-0.240	0.770
2020/01/31 10:38:40.1	301.520	0.440	-0.270	0.780
2020/01/31 10:38:40.2	301.510	0.440	-0.290	0.780
2020/01/31 10:38:40.3	301.500	0.450	-0.320	0.780
2020/01/31 10:38:40.4	301.490	0.450	-0.350	0.790
2020/01/31 10:38:40.5	301.480	0.450	-0.370	0.780
2020/01/31 10:38:40.6	301.470	0.450	-0.390	0.780
2020/01/31 10:38:40.7	301.460	0.450	-0.420	0.780
2020/01/31 10:38:40.8	301.450	0.440	-0.440	0.770
2020/01/31 10:38:40.9	301.450	0.440	-0.460	0.770
2020/01/31 10:38:41.0	301.440	0.430	-0.480	0.760
2020/01/31 10:38:41.1	301.430	0.420	-0.490	0.750
2020/01/31 10:38:41.2	301.420	0.410	-0.510	0.740
2020/01/31 10:38:41.3	301.420	0.400	-0.530	0.730
2020/01/31 10:38:41.4	301.410	0.380	-0.540	0.710
2020/01/31 10:38:41.5	301.410	0.370	-0.560	0.700
2020/01/31 10:38:41.6	301.410	0.350	-0.570	0.680
2020/01/31 10:38:41.7	301.400	0.340	-0.580	0.670
2020/01/31 10:38:41.8	301.400	0.320	-0.590	0.650
2020/01/31 10:38:41.9	301.400	0.310	-0.600	0.630
2020/01/31 10:38:42.0	301.400	0.290	-0.610	0.610
2020/01/31 10:38:42.1	301.400	0.270	-0.620	0.580
2020/01/31 10:38:42.2	301.400	0.260	-0.620	0.560
2020/01/31 10:38:42.3	301.400	0.240	-0.630	0.540
2020/01/31 10:38:42.4	301.400	0.220	-0.630	0.510
2020/01/31 10:38:42.5	301.410	0.210	-0.640	0.490
2020/01/31 10:38:42.6	301.410	0.190	-0.640	0.460
2020/01/31 10:38:42.7	301.420	0.180	-0.640	0.440
2020/01/31 10:38:42.8	301.420	0.160	-0.640	0.410
2020/01/31 10:38:42.9	301.430	0.150	-0.640	0.390
2020/01/31 10:38:43.0	301.440	0.140	-0.640	0.360
2020/01/31 10:38:43.1	301.440	0.120	-0.640	0.340
2020/01/31 10:38:43.2	301.450	0.110	-0.630	0.310
2020/01/31 10:38:43.3	301.460	0.100	-0.630	0.290
2020/01/31 10:38:43.4	301.460	0.090	-0.620	0.270
2020/01/31 10:38:43.5	301.470	0.080	-0.610	0.250
2020/01/31 10:38:43.6	301.480	0.070	-0.610	0.230
2020/01/31 10:38:43.7	301.490	0.060	-0.600	0.210
2020/01/31 10:38:43.8	301.500	0.050	-0.580	0.190
2020/01/31 10:38:43.9	301.510	0.050	-0.570	0.170
2020/01/31 10:38:44.0	301.510	0.040	-0.560	0.160
2020/01/31 10:38:44.1	301.520	0.030	-0.540	0.140
2020/01/31 10:38:44.2	301.530	0.030	-0.530	0.130
2020/01/31 10:38:44.3	301.540	0.020	-0.510	0.120
2020/01/31 10:38:44.4	301.540	0.010	-0.490	0.110
2020/01/31 10:38:44.5	301.550	0.010	-0.480	0.100
2020/01/31 10:38:44.6	301.560	0.000	-0.460	0.090
2020/01/31 10:38:44.7	301.570	-0.000	-0.440	0.080
2020/01/31 10:38:44.8	301.580	-0.010	-0.420	0.080
2020/01/31 10:38:44.9	301.580	-0.010	-0.400	0.070
2020/01/31 10:38:45.0	301.590	-0.020	-0.380	0.060
2020/01/31 10:38:45.1	301.600	-0.020	-0.360	0.060
2020/01/31 10:38:45.2	301.600	-0.020	-0.340	0.060
2020/01/31 10:38:45.3	301.610	-0.030	-0.320	0.050
2020/01/31 10:38:45.4	301.610	-0.030	-0.310	0.050
2020/01/31 10:38:45.5	301.620	-0.040	-0.290	0.050
2020/01/31 10:38:45.6	301.620	-0.040	-0.270	0.050
2020/01/31 10:38:45.7	301.630	-0.040	-0.250	0.050
2020/01/31 10:38:45.8	301.630	-0.050	-0.230	0.060
2020/01/31 10:38:45.9	301.640	-0.050	-0.210	0.060
2020/01/31 10:38:46.0	301.640	-0.060	-0.190	0.070
2020/01/31 10:38:46.1	301.650	-0.060	-0.180	0.070
2020/01/31 10:38:46.2	301.650	-0.060	-0.160	0.080
2020/01/31 10:38:46.3	301.650	-0.070	-0.140	0.090
2020/01/31 10:38:46.4	301.660	-0.070	-0.130	0.100
2020/01/31 10:38:46.5	301.660	-0.070	-0.110	0.110
2020/01/31 10:38:46.6	301.670	-0.070	-0.100	0.120
2020/01/31 10:38:46.7	301.670	-0.080	-0.090	0.130
2020/01/31 10:38:46.8	301.680	-0.080	-0.080	0.130
2020/01/31 10:38:46.9	301.680	-0.080	-0.070	0.150
2020/01/31 10:38:47.0	301.690	-0.080	-0.060	0.160
2020/01/31 10:38:47.1	301.690	-0.090	-0.060	0.170
2020/01/31 10:38:47.2	301.700	-0.090	-0.050	0.180
2020/01/31 10:38:47.3	301.700	-0.090	-0.050	0.190
2020/01/31 10:38:47.4	301.700	-0.090	-0.040	0.210
2020/01/31 10:38:47.5	301.710	-0.100	-0.040	0.220
2020/01/31 10:38:47.6	301.710	-0.100	-0.040	0.240
2020/01/31 10:38:47.7	301.720	-0.100	-0.040	0.260
2020/01/31 10:38:47.8	301.720	-0.110	-0.030	0.270
2020/01/31 10:38:47.9	301.730	-0.110	-0.030	0.290
2020/01/31 10:38:48.0	301.730	-0.110	-0.030	0.310
2020/01/31 10:38:48.1	301.730	-0.120	-0.030	0.320
2020/01/31 10:38:48.2	301.740	-0.120	-0.030	0.340
2020/01/31 10:38:48.3	301.740	-0.120	-0.030	0.360
2020/01/31 10:38:48.4	301.730	-0.120	-0.030	0.380
2020/01/31 10:38:48.5	301.730	-0.130	-0.020	0.400
2020/01/31 10:38:48.6	301.730	-0.130	-0.020	0.420
2020/01/31 10:38:48.7	301.730	-0.130	-0.020	0.440
2020/01/31 10:38:48.8	301.720	-0.140	-0.020	0.450
2020/01/31 10:38:48.9	301.710	-0.140	-0.010	0.470
2020/01/31 10:38:49.0	301.710	-0.140	-0.010	0.490
2020/01/31 10:38:49.1	301.700	-0.150	-0.010	0.510
2020/01/31 10:38:49.2	301.690	-0.150	-0.000	0.530
2020/01/31 10:38:49.3	301.680	-0.150	0.000	0.550
2020/01/31 10:38:49.4	301.660	-0.160	0.000	0.560
2020/01/31 10:38:49.5	301.650	-0.160	0.010	0.580
2020/01/31 10:38:49.6	301.640	-0.160	0.010	0.590
2020/01/31 10:38:49.7	301.630	-0.160	0.010	0.600
2020/01/31 10:38:49.8	301.610	-0.160	0.010	0.620
2020/01/31 10:38:49.9	301.600	-0.170	0.010	0.630
2020/01/31 10:38:50.0	301.580	-0.170	0.010	0.640
2020/01/31 10:38:50.1	301.570	-0.170	0.010	0.640
2020/01/31 10:38:50.2	301.550	-0.170	0.010	0.650
2020/01/31 10:38:50.3	301.530	-0.170	0.010	0.650
2020/01/31 10:38:50.4	301.520	-0.170	0.010	0.660
2020/01/31 10:38:50.5	301.500	-0.180	0.000	0.660
2020/01/31 10:38:50.6	301.480	-0.180	-0.000	0.660
2020/01/31 10:38:50.7	301.460	-0.180	-0.010	0.650
2020/01/31 10:38:50.8	301.440	-0.180	-0.020	0.650
2020/01/31 10:38:50.9	301.430	-0.180	-0.020	0.640
2020/01/31 10:38:51.0	301.410	-0.180	-0.030	0.630
2020/01/31 10:38:51.1	301.390	-0.180	-0.040	0.620
2020/01/31 10:38:51.2	301.370	-0.180	-0.050	0.600
2020/01/31 10:38:51.3	301.350	-0.180	-0.070	0.580
2020/01/31 10:38:51.4	301.340	-0.180	-0.080	0.560
2020/01/31 10:38:51.5	301.320	-0.180	-0.090	0.540
2020/01/31 10:38:51.6	301.310	-0.180	-0.110	0.520
2020/01/31 10:38:51.7	301.290	-0.180	-0.120	0.490
2020/01/31 10:38:51.8	301.280	-0.180	-0.140	0.470
2020/01/31 10:38:51.9	301.260	-0.180	-0.150	0.440
2020/01/31 10:38:52.0	301.250	-0.170	-0.170	0.410
2020/01/31 10:38:52.1	301.240	-0.170	-0.180	0.390
2020/01/31 10:38:52.2	301.230	-0.160	-0.190	0.360
2020/01/31 10:38:52.3	301.220	-0.160	-0.210	0.330
2020/01/31 10:38:52.4	301.210	-0.150	-0.220	0.300
2020/01/31 10:38:52.5	301.200	-0.150	-0.230	0.280
2020/01/31 10:38:52.6	301.200	-0.140	-0.250	0.250
2020/01/31 10:38:52.7	301.190	-0.130	-0.260	0.230
2020/01/31 10:38:52.8	301.180	-0.120	-0.270	0.210
2020/01/31 10:38:52.9	301.180	-0.110	-0.270	0.180
2020/01/31 10:38:53.0	301.170	-0.100	-0.280	0.160
2020/01/31 10:38:53.1	301.170	-0.090	-0.290	0.150
2020/01/31 10:38:53.2	301.170	-0.080	-0.290	0.130
2020/01/31 10:38:53.3	301.160	-0.070	-0.300	0.120
2020/01/31 10:38:53.4	301.160	-0.060	-0.300	0.100
2020/01/31 10:38:53.5	301.160	-0.050	-0.310	0.090
2020/01/31 10:38:53.6	301.160	-0.030	-0.310	0.080
2020/01/31 10:38:53.7	301.160	-0.020	-0.310	0.080
2020/01/31 10:38:53.8	301.160	-0.010	-0.310	0.070
2020/01/31 10:38:53.9	301.160	0.010	-0.310	0.070
2020/01/31 10:38:54.0	301.160	0.020	-0.320	0.070
2020/01/31 10:38:54.1	301.170	0.030	-0.320	0.080
2020/01/31 10:38:54.2	301.170	0.050	-0.320	0.080
2020/01/31 10:38:54.3	301.180	0.060	-0.320	0.090
2020/01/31 10:38:54.4	301.190	0.070	-0.320	0.100
2020/01/31 10:38:54.5	301.200	0.080	-0.330	0.120
2020/01/31 10:38:54.6	301.210	0.100	-0.330	0.130
2020/01/31 10:38:54.7	301.220	0.110	-0.330	0.150
2020/01/31 10:38:54.8	301.230	0.120	-0.340	0.160
2020/01/31 10:38:54.9	301.240	0.130	-0.340	0.180
2020/01/31 10:38:55.0	301.250	0.140	-0.340	0.210
2020/01/31 10:38:55.1	301.260	0.150	-0.350	0.230
2020/01/31 10:38:55.2	301.270	0.160	-0.360	0.260
2020/01/31 10:38:55.3	301.270	0.170	-0.360	0.290
2020/01/31 10:38:55.4	301.290	0.180	-0.370	0.320
2020/01/31 10:38:55.5	301.300	0.190	-0.380	0.350
2020/01/31 10:38:55.6	301.310	0.200	-0.380	0.380
2020/01/31 10:38:55.7	301.320	0.200	-0.390	0.410
2020/01/31 10:38:55.8	301.330	0.210	-0.400	0.450
2020/01/31 10:38:55.9	301.340	0.210	-0.400	0.480
2020/01/31 10:38:56.0	301.350	0.220	-0.410	0.520
2020/01/31 10:38:56.1	301.360	0.220	-0.420	0.560
2020/01/31 10:38:56.2	301.370	0.230	-0.420	0.590
2020/01/31 10:38:56.3	301.380	0.230	-0.430	0.630
2020/01/31 10:38:56.4	301.390	0.240	-0.440	0.660
2020/01/31 10:38:56.5	301.400	0.240	-0.440	0.700
2020/01/31 10:38:56.6	301.410	0.240	-0.450	0.730
2020/01/31 10:38:56.7	301.420	0.240	-0.460	0.760
2020/01/31 10:38:56.8	301.430	0.240	-0.460	0.800
2020/01/31 10:38:56.9	301.440	0.250	-0.470	0.830
2020/01/31 10:38:57.0	301.450	0.250	-0.470	0.850
2020/01/31 10:38:57.1	301.460	0.250	-0.480	0.880
2020/01/31 10:38:57.2	301.470	0.250	-0.490	0.900
2020/01/31 10:38:57.3	301.490	0.250	-0.490	0.920
2020/01/31 10:38:57.4	301.510	0.250	-0.500	0.950
2020/01/31 10:38:57.5	301.520	0.240	-0.500	0.960
2020/01/31 10:38:57.6	301.530	0.240	-0.510	0.980
2020/01/31 10:38:57.7	301.550	0.240	-0.510	0.990
2020/01/31 10:38:57.8	301.560	0.240	-0.510	1.000
2020/01/31 10:38:57.9	301.570	0.240	-0.510	1.010
2020/01/31 10:38:58.0	301.590	0.230	-0.510	1.010
2020/01/31 10:38:58.1	301.600	0.230	-0.510	1.010
2020/01/31 10:38:58.2	301.610	0.230	-0.510	1.010
2020/01/31 10:38:58.3	301.620	0.220	-0.510	1.010
2020/01/31 10:38:58.4	301.650	0.220	-0.500	1.000
2020/01/31 10:38:58.5	301.660	0.210	-0.500	0.990
2020/01/31 10:38:58.6	301.670	0.210	-0.490	0.980
2020/01/31 10:38:58.7	301.680	0.200	-0.480	0.960
2020/01/31 10:38:58.8	301.690	0.190	-0.480	0.940
2020/01/31 10:38:58.9	301.700	0.190	-0.470	0.920
2020/01/31 10:38:59.0	301.700	0.180	-0.450	0.900
2020/01/31 10:38:59.1	301.710	0.170	-0.440	0.880
2020/01/31 10:38:59.2	301.710	0.160	-0.430	0.860
2020/01/31 10:38:59.3	301.720	0.150	-0.410	0.830
2020/01/31 10:38:59.4	301.720	0.140	-0.400	0.810
2020/01/31 10:38:59.5	301.720	0.130	-0.380	0.780
2020/01/31 10:38:59.6	301.720	0.120	-0.360	0.760
2020/01/31 10:38:59.7	301.720	0.110	-0.330	0.730
2020/01/31 10:38:59.8	301.710	0.100	-0.310	0.710
2020/01/31 10:38:59.9	301.700	0.090	-0.280	0.680
2020/01/31 10:39:00.0	301.690	0.070	-0.260	0.660
2020/01/31 10:39:00.1	301.680	0.060	-0.230	0.640
2020/01/31 10:39:00.2	301.670	0.050	-0.200	0.610
2020/01/31 10:39:00.3	301.650	0.040	-0.170	0.590
2020/01/31 10:39:00.4	301.640	0.020	-0.140	0.570
2020/01/31 10:39:00.5	301.620	0.010	-0.110	0.550
2020/01/31 10:39:00.6	301.600	-0.000	-0.080	0.530
2020/01/31 10:39:00.7	301.580	-0.010	-0.050	0.510
2020/01/31 10:39:00.8	301.560	-0.030	-0.030	0.490
2020/01/31 10:39:00.9	301.540	-0.040	-0.000	0.470
2020/01/31 10:39:01.0	301.520	-0.050	0.030	0.450
2020/01/31 10:39:01.1	301.500	-0.060	0.050	0.430
2020/01/31 10:39:01.2	301.480	-0.070	0.070	0.410
2020/01/31 10:39:01.3	301.460	-0.080	0.090	0.390
2020/01/31 10:39:01.4	301.440	-0.090	0.110	0.380
2020/01/31 10:39:01.5	301.420	-0.100	0.120	0.360
2020/01/31 10:39:01.6	301.400	-0.100	0.130	0.340
2020/01/31 10:39:01.7	301.380	-0.110	0.150	0.330
2020/01/31 10:39:01.8	301.360	-0.110	0.150	0.310
2020/01/31 10:39:01.9	301.340	-0.120	0.160	0.290
2020/01/31 10:39:02.0	301.320	-0.120	0.160	0.270
2020/01/31 10:39:02.1	301.300	-0.130	0.170	0.260
2020/01/31 10:39:02.2	301.280	-0.130	0.160	0.240
2020/01/31 10:39:02.3	301.270	-0.130	0.160	0.220
2020/01/31 10:39:02.4	301.250	-0.130	0.150	0.200
2020/01/31 10:39:02.5	301.230	-0.130	0.150	0.190
2020/01/31 10:39:02.6	301.220	-0.130	0.140	0.170
2020/01/31 10:39:02.7	301.200	-0.130	0.130	0.160
2020/01/31 10:39:02.8	301.190	-0.130	0.110	0.150
2020/01/31 10:39:02.9	301.180	-0.120	0.100	0.130
2020/01/31 10:39:03.0	301.170	-0.120	0.080	0.120
2020/01/31 10:39:03.1	301.160	-0.120	0.060	0.110
2020/01/31 10:39:03.2	301.150	-0.110	0.040	0.100
2020/01/31 10:39:03.3	301.140	-0.110	0.030	0.090
2020/01/31 10:39:03.4	301.130	-0.110	0.010	0.080
2020/01/31 10:39:03.5	301.120	-0.100	-0.010	0.070
2020/01/31 10:39:03.6	301.120	-0.100	-0.030	0.070
2020/01/31 10:39:03.7	301.110	-0.090	-0.060	0.060
2020/01/31 10:39:03.8	301.110	-0.090	-0.080	0.060
2020/01/31 10:39:03.9	301.100	-0.080	-0.100	0.060
2020/01/31 10:39:04.0	301.100	-0.080	-0.120	0.050
2020/01/31 10:39:04.1	301.100	-0.070	-0.140	0.050
2020/01/31 10:39:04.2	301.100	-0.070	-0.160	0.050
2020/01/31 10:39:04.3	301.100	-0.060	-0.180	0.050
2020/01/31 10:39:04.4	301.100	-0.060	-0.200	0.060
2020/01/31 10:39:04.5	301.100	-0.060	-0.220	0.060
2020/01/31 10:39:04.6	301.110	-0.050	-0.240	0.060
2020/01/31 10:39:04.7	301.110	-0.050	-0.260	0.070
2020/01/31 10:39:04.8	301.120	-0.050	-0.280	0.070
2020/01/31 10:39:04.9	301.130	-0.050	-0.290	0.080
2020/01/31 10:39:05.0	301.140	-0.050	-0.310	0.080
2020/01/31 10:39:05.1	301.150	-0.050	-0.320	0.090
2020/01/31 10:39:05.2	301.160	-0.050	-0.340	0.100
2020/01/31 10:39:05.3	301.180	-0.050	-0.350	0.110
2020/01/31 10:39:05.4	301.190	-0.050	-0.360	0.120
2020/01/31 10:39:05.5	301.200	-0.050	-0.370	0.130
2020/01/31 10:39:05.6	301.220	-0.050	-0.380	0.140
2020/01/31 10:39:05.7	301.240	-0.060	-0.390	0.150
2020/01/31 10:39:05.8	301.260	-0.060	-0.390	0.170
2020/01/31 10:39:05.9	301.280	-0.070	-0.400	0.180
2020/01/31 10:39:06.0	301.300	-0.070	-0.410	0.200
2020/01/31 10:39:06.1	301.320	-0.080	-0.410	0.210
2020/01/31 10:39:06.2	301.350	-0.080	-0.420	0.230
2020/01/31 10:39:06.3	301.370	-0.090	-0.420	0.250
2020/01/31 10:39:06.4	301.390	-0.100	-0.420	0.270
2020/01/31 10:39:06.5	301.410	-0.100	-0.420	0.280
2020/01/31 10:39:06.6	301.430	-0.110	-0.430	0.300
2020/01/31 10:39:06.7	301.450	-0.120	-0.430	0.320
2020/01/31 10:39:06.8	301.470	-0.130	-0.430	0.350
2020/01/31 10:39:06.9	301.490	-0.140	-0.430	0.370
2020/01/31 10:39:07.0	301.510	-0.140	-0.430	0.390
2020/01/31 10:39:07.1	301.530	-0.150	-0.430	0.410
2020/01/31 10:39:07.2	301.540	-0.160	-0.440	0.430
2020/01/31 10:39:07.3	301.560	-0.170	-0.440	0.460
2020/01/31 10:39:07.4	301.570	-0.180	-0.440	0.480
2020/01/31 10:39:07.5	301.580	-0.180	-0.440	0.500
2020/01/31 10:39:07.6	301.590	-0.190	-0.440	0.530
2020/01/31 10:39:07.7	301.600	-0.190	-0.440	0.550
2020/01/31 10:39:07.8	301.610	-0.200	-0.440	0.570
2020/01/31 10:39:07.9	301.620	-0.210	-0.440	0.590
2020/01/31 10:39:08.0	301.620	-0.210	-0.430	0.620
2020/01/31 10:39:08.1	301.630	-0.210	-0.430	0.640
2020/01/31 10:39:08.2	301.630	-0.220	-0.430	0.660
2020/01/31 10:39:08.3	301.630	-0.220	-0.420	0.680
2020/01/31 10:39:08.4	301.630	-0.220	-0.420	0.700
2020/01/31 10:39:08.5	301.620	-0.220	-0.410	0.730
2020/01/31 10:39:08.6	301.620	-0.220	-0.400	0.750
2020/01/31 10:39:08.7	301.610	-0.220	-0.390	0.770
2020/01/31 10:39:08.8	301.610	-0.220	-0.380	0.790
2020/01/31 10:39:08.9	301.600	-0.220	-0.370	0.810
2020/01/31 10:39:09.0	301.590	-0.220	-0.360	0.830
2020/01/31 10:39:09.1	301.570	-0.210	-0.340	0.850
2020/01/31 10:39:09.2	301.560	-0.210	-0.330	0.870
2020/01/31 10:39:09.3	301.550	-0.210	-0.310	0.890
2020/01/31 10:39:09.4	301.530	-0.200	-0.300	0.910
2020/01/31 10:39:09.5	301.520	-0.200	-0.280	0.930
2020/01/31 10:39:09.6	301.500	-0.190	-0.260	0.950
2020/01/31 10:39:09.7	301.480	-0.190	-0.240	0.960
2020/01/31 10:39:09.8	301.460	-0.180	-0.220	0.970
2020/01/31 10:39:09.9	301.440	-0.180	-0.200	0.990
2020/01/31 10:39:10.0	301.420	-0.170	-0.180	1.000
2020/01/31 10:39:10.1	301.400	-0.170	-0.160	1.010
2020/01/31 10:39:10.2	301.380	-0.160	-0.140	1.020
2020/01/31 10:39:10.3	301.360	-0.150	-0.120	1.030
2020/01/31 10:39:10.4	301.340	-0.140	-0.100	1.040
2020/01/31 10:39:10.5	301.310	-0.140	-0.080	1.040
2020/01/31 10:39:10.6	301.290	-0.130	-0.060	1.050
2020/01/31 10:39:10.7	301.270	-0.120	-0.040	1.050
2020/01/31 10:39:10.8	301.240	-0.110	-0.030	1.050
2020/01/31 10:39:10.9	301.220	-0.100	-0.010	1.050
2020/01/31 10:39:11.0	301.190	-0.090	0.000	1.050
2020/01/31 10:39:11.1	301.170	-0.080	0.020	1.050
2020/01/31 10:39:11.2	301.140	-0.070	0.030	1.050
2020/01/31 10:39:11.3	301.120	-0.060	0.040	1.040
2020/01/31 10:39:11.4	301.090	-0.050	0.040	1.040
2020/01/31 10:39:11.5	301.070	-0.040	0.050	1.030
2020/01/31 10:39:11.6	301.050	-0.020	0.050	1.010
2020/01/31 10:39:11.7	301.020	-0.010	0.060	1.000
2020/01/31 10:39:11.8	301.000	0.010	0.050	0.980
2020/01/31 10:39:11.9	300.980	0.020	0.050	0.960
2020/01/31 10:39:12.0	300.960	0.040	0.050	0.940
2020/01/31 10:39:12.1	300.950	0.060	0.040	0.910
2020/01/31 10:39:12.2	300.930	0.070	0.030	0.890
2020/01/31 10:39:12.3	300.910	0.090	0.020	0.860
2020/01/31 10:39:12.4	300.900	0.110	0.010	0.830
2020/01/31 10:39:12.5	300.890	0.130	-0.010	0.800
2020/01/31 10:39:12.6	300.880	0.150	-0.030	0.760
2020/01/31 10:39:12.7	300.870	0.170	-0.040	0.730
2020/01/31 10:39:12.8	300.860	0.190	-0.070	0.690
2020/01/31 10:39:12.9	300.860	0.210	-0.090	0.660
2020/01/31 10:39:13.0	300.850	0.230	-0.120	0.620
2020/01/31 10:39:13.1	300.850	0.250	-0.140	0.580
2020/01/31 10:39:13.2	300.840	0.270	-0.170	0.540
2020/01/31 10:39:13.3	300.840	0.290	-0.200	0.500
2020/01/31 10:39:13.4	300.830	0.310	-0.240	0.460
2020/01/31 10:39:13.5	300.840	0.330	-0.270	0.420
2020/01/31 10:39:13.6	300.840	0.350	-0.300	0.380
2020/01/31 10:39:13.7	300.850	0.370	-0.340	0.340
2020/01/31 10:39:13.8	300.850	0.380	-0.370	0.300
2020/01/31 10:39:13.9	300.860	0.400	-0.410	0.260
2020/01/31 10:39:14.0	300.870	0.410	-0.440	0.220
2020/01/31 10:39:14.1	300.880	0.430	-0.470	0.180
2020/01/31 10:39:14.2	300.890	0.440	-0.510	0.150
2020/01/31 10:39:14.3	300.910	0.450	-0.540	0.110
2020/01/31 10:39:14.4	300.920	0.460	-0.570	0.080
2020/01/31 10:39:14.5	300.930	0.460	-0.590	0.050
2020/01/31 10:39:14.6	300.950	0.470	-0.620	0.020
2020/01/31 10:39:14.7	300.960	0.470	-0.640	-0.010
2020/01/31 10:39:14.8	300.980	0.470	-0.660	-0.030
2020/01/31 10:39:14.9	300.990	0.470	-0.670	-0.060
2020/01/31 10:39:15.0	301.010	0.460	-0.680	-0.080
2020/01/31 10:39:15.1	301.030	0.460	-0.690	-0.100
2020/01/31 10:39:15.2	301.040	0.450	-0.690	-0.110
2020/01/31 10:39:15.3	301.060	0.430	-0.690	-0.130
2020/01/31 10:39:15.4	301.080	0.420	-0.690	-0.140
2020/01/31 10:39:15.5	301.090	0.400	-0.680	-0.150
2020/01/31 10:39:15.6	301.110	0.380	-0.670	-0.160
2020/01/31 10:39:15.7	301.120	0.360	-0.650	-0.160
2020/01/31 10:39:15.8	301.130	0.340	-0.630	-0.170
2020/01/31 10:39:15.9	301.150	0.310	-0.610	-0.170
2020/01/31 10:39:16.0	301.160	0.290	-0.580	-0.170
2020/01/31 10:39:16.1	301.170	0.260	-0.550	-0.160
2020/01/31 10:39:16.2	301.190	0.220	-0.520	-0.160
2020/01/31 10:39:16.3	301.200	0.190	-0.490	-0.150
2020/01/31 10:39:16.4	301.210	0.160	-0.450	-0.140
2020/01/31 10:39:16.5	301.220	0.120	-0.420	-0.130
2020/01/31 10:39:16.6	301.240	0.090	-0.380	-0.120
2020/01/31 10:39:16.7	301.240	0.050	-0.340	-0.110
2020/01/31 10:39:16.8	301.250	0.020	-0.300	-0.100
2020/01/31 10:39:16.9	301.260	-0.020	-0.260	-0.080
2020/01/31 10:39:17.0	301.270	-0.060	-0.220	-0.070
2020/01/31 10:39:17.1	301.280	-0.090	-0.180	-0.050
2020/01/31 10:39:17.2	301.280	-0.130	-0.140	-0.030
2020/01/31 10:39:17.3	301.290	-0.160	-0.110	-0.010
2020/01/31 10:39:17.4	301.300	-0.200	-0.070	0.010
2020/01/31 10:39:17.5	301.300	-0.230	-0.040	0.030
2020/01/31 10:39:17.6	301.300	-0.260	-0.000	0.050
2020/01/31 10:39:17.7	301.310	-0.290	0.030	0.080
2020/01/31 10:39:17.8	301.310	-0.310	0.060	0.100
2020/01/31 10:39:17.9	301.310	-0.340	0.080	0.130
2020/01/31 10:39:18.0	301.310	-0.360	0.110	0.160
2020/01/31 10:39:18.1	301.300	-0.380	0.130	0.180
2020/01/31 10:39:18.2	301.300	-0.400	0.150	0.210
2020/01/31 10:39:18.3	301.300	-0.410	0.160	0.240
2020/01/31 10:39:18.4	301.290	-0.420	0.170	0.270
2020/01/31 10:39:18.5	301.280	-0.430	0.180	0.300
2020/01/31 10:39:18.6	301.280	-0.440	0.190	0.330
2020/01/31 10:39:18.7	301.270	-0.440	0.190	0.370
2020/01/31 10:39:18.8	301.260	-0.440	0.190	0.400
2020/01/31 10:39:18.9	301.250	-0.440	0.190	0.430
2020/01/31 10:39:19.0	301.230	-0.430	0.180	0.460
2020/01/31 10:39:19.1	301.220	-0.430	0.170	0.490
2020/01/31 10:39:19.2	301.210	-0.420	0.160	0.520
2020/01/31 10:39:19.3	301.200	-0.410	0.140	0.550
2020/01/31 10:39:19.4	301.170	-0.390	0.130	0.580
2020/01/31 10:39:19.5	301.160	-0.370	0.110	0.600
2020/01/31 10:39:19.6	301.150	-0.360	0.090	0.630
2020/01/31 10:39:19.7	301.130	-0.340	0.060	0.660
2020/01/31 10:39:19.8	301.120	-0.320	0.040	0.680
2020/01/31 10:39:19.9	301.100	-0.290	0.010	0.700
2020/01/31 10:39:20.0	301.080	-0.270	-0.020	0.720
2020/01/31 10:39:20.1	301.070	-0.250	-0.040	0.740
2020/01/31 10:39:20.2	301.050	-0.220	-0.070	0.760
2020/01/31 10:39:20.3	301.030	-0.200	-0.100	0.780
2020/01/31 10:39:20.4	301.020	-0.180	-0.130	0.790
2020/01/31 10:39:20.5	301.000	-0.150	-0.150	0.800
2020/01/31 10:39:20.6	300.980	-0.130	-0.180	0.820
2020/01/31 10:39:20.7	300.960	-0.110	-0.200	0.820
2020/01/31 10:39:20.8	300.940	-0.090	-0.230	0.830
2020/01/31 10:39:20.9	300.920	-0.060	-0.250	0.840
2020/01/31 10:39:21.0	300.900	-0.050	-0.270	0.840
2020/01/31 10:39:21.1	300.880	-0.030	-0.280	0.840
2020/01/31 10:39:21.2	300.860	-0.010	-0.300	0.840
2020/01/31 10:39:21.3	300.830	0.000	-0.310	0.840
2020/01/31 10:39:21.4	300.820	0.020	-0.320	0.830
2020/01/31 10:39:21.5	300.790	0.030	-0.320	0.830
2020/01/31 10:39:21.6	300.770	0.040	-0.330	0.820
2020/01/31 10:39:21.7	300.750	0.050	-0.330	0.810
2020/01/31 10:39:21.8	300.730	0.050	-0.340	0.790
2020/01/31 10:39:21.9	300.710	0.060	-0.330	0.780
2020/01/31 10:39:22.0	300.690	0.060	-0.330	0.760
2020/01/31 10:39:22.1	300.670	0.060	-0.330	0.740
2020/01/31 10:39:22.2	300.650	0.060	-0.320	0.720
2020/01/31 10:39:22.3	300.630	0.060	-0.310	0.700
2020/01/31 10:39:22.4	300.610	0.050	-0.310	0.670
2020/01/31 10:39:22.5	300.600	0.050	-0.300	0.650
2020/01/31 10:39:22.6	300.580	0.040	-0.290	0.620
2020/01/31 10:39:22.7	300.570	0.030	-0.280	0.590
2020/01/31 10:39:22.8	300.550	0.030	-0.270	0.560
2020/01/31 10:39:22.9	300.540	0.020	-0.260	0.530
2020/01/31 10:39:23.0	300.530	0.010	-0.250	0.500
2020/01/31 10:39:23.1	300.520	0.000	-0.250	0.460
2020/01/31 10:39:23.2	300.520	-0.010	-0.240	0.430
2020/01/31 10:39:23.3	300.510	-0.010	-0.230	0.400
2020/01/31 10:39:23.4	300.500	-0.020	-0.230	0.360
2020/01/31 10:39:23.5	300.500	-0.030	-0.230	0.330
2020/01/31 10:39:23.6	300.490	-0.040	-0.230	0.290
2020/01/31 10:39:23.7	300.490	-0.050	-0.230	0.260
2020/01/31 10:39:23.8	300.490	-0.050	-0.230	0.220
2020/01/31 10:39:23.9	300.490	-0.060	-0.230	0.190
2020/01/31 10:39:24.0	300.490	-0.060	-0.240	0.150
2020/01/31 10:39:24.1	300.490	-0.070	-0.240	0.120
2020/01/31 10:39:24.2	300.490	-0.070	-0.250	0.090
2020/01/31 10:39:24.3	300.500	-0.070	-0.260	0.060
2020/01/31 10:39:24.4	300.490	-0.070	-0.280	0.030
2020/01/31 10:39:24.5	300.500	-0.070	-0.290	0.000
2020/01/31 10:39:24.6	300.500	-0.070	-0.310	-0.020
2020/01/31 10:39:24.7	300.510	-0.070	-0.320	-0.040
2020/01/31 10:39:24.8	300.510	-0.070	-0.340	-0.060
2020/01/31 10:39:24.9	300.520	-0.060	-0.360	-0.080
2020/01/31 10:39:25.0	300.530	-0.060	-0.380	-0.100
2020/01/31 10:39:25.1	300.540	-0.050	-0.400	-0.110
2020/01/31 10:39:25.2	300.540	-0.040	-0.420	-0.120
2020/01/31 10:39:25.3	300.550	-0.040	-0.440	-0.130
2020/01/31 10:39:25.4	300.560	-0.030	-0.460	-0.130
2020/01/31 10:39:25.5	300.570	-0.020	-0.480	-0.130
2020/01/31 10:39:25.6	300.580	-0.010	-0.500	-0.130
2020/01/31 10:39:25.7	300.600	-0.000	-0.520	-0.130
2020/01/31 10:39:25.8	300.610	0.010	-0.540	-0.120
2020/01/31 10:39:25.9	300.620	0.020	-0.560	-0.120
2020/01/31 10:39:26.0	300.630	0.020	-0.580	-0.110
2020/01/31 10:39:26.1	300.640	0.030	-0.590	-0.090
2020/01/31 10:39:26.2	300.650	0.040	-0.600	-0.080
2020/01/31 10:39:26.3	300.670	0.050	-0.610	-0.060
2020/01/31 10:39:26.4	300.690	0.060	-0.620	-0.030
2020/01/31 10:39:26.5	300.700	0.060	-0.630	-0.010
2020/01/31 10:39:26.6	300.710	0.070	-0.630	0.010
2020/01/31 10:39:26.7	300.730	0.080	-0.630	0.040
2020/01/31 10:39:26.8	300.740	0.080	-0.630	0.070
2020/01/31 10:39:26.9	300.750	0.080	-0.620	0.090
2020/01/31 10:39:27.0	300.760	0.090	-0.610	0.120
2020/01/31 10:39:27.1	300.780	0.090	-0.600	0.150
2020/01/31 10:39:27.2	300.790	0.090	-0.590	0.180
2020/01/31 10:39:27.3	300.800	0.090	-0.570	0.220
2020/01/31 10:39:27.4	300.820	0.090	-0.550	0.250
2020/01/31 10:39:27.5	300.830	0.090	-0.530	0.290
2020/01/31 10:39:27.6	300.840	0.080	-0.500	0.320
2020/01/31 10:39:27.7	300.850	0.080	-0.470	0.350
2020/01/31 10:39:27.8	300.860	0.070	-0.440	0.380
2020/01/31 10:39:27.9	300.870	0.070	-0.410	0.410
2020/01/31 10:39:28.0	300.890	0.060	-0.370	0.450
2020/01/31 10:39:28.1	300.900	0.050	-0.340	0.480
2020/01/31 10:39:28.2	300.910	0.040	-0.300	0.510
2020/01/31 10:39:28.3	300.920	0.030	-0.260	0.540
2020/01/31 10:39:28.4	300.930	0.020	-0.230	0.570
2020/01/31 10:39:28.5	300.940	0.010	-0.190	0.600
2020/01/31 10:39:28.6	300.950	0.000	-0.150	0.630
2020/01/31 10:39:28.7	300.960	-0.010	-0.110	0.660
2020/01/31 10:39:28.8	300.970	-0.020	-0.070	0.680
2020/01/31 10:39:28.9	300.970	-0.030	-0.030	0.710
2020/01/31 10:39:29.0	300.980	-0.040	0.010	0.730
2020/01/31 10:39:29.1	300.990	-0.040	0.050	0.760
2020/01/31 10:39:29.2	300.990	-0.050	0.080	0.780
2020/01/31 10:39:29.3	301.000	-0.060	0.120	0.800
2020/01/31 10:39:29.4	301.000	-0.070	0.150	0.820
2020/01/31 10:39:29.5	301.010	-0.080	0.180	0.840
2020/01/31 10:39:29.6	301.010	-0.080	0.200	0.850
2020/01/31 10:39:29.7	301.010	-0.090	0.230	0.860
2020/01/31 10:39:29.8	301.020	-0.090	0.250	0.870
2020/01/31 10:39:29.9	301.020	-0.100	0.270	0.880
2020/01/31 10:39:30.0	301.010	-0.100	0.280	0.890
2020/01/31 10:39:30.1	301.010	-0.100	0.300	0.890
2020/01/31 10:39:30.2	301.010	-0.100	0.310	0.890
2020/01/31 10:39:30.3	301.010	-0.100	0.310	0.890
2020/01/31 10:39:30.4	300.990	-0.100	0.320	0.890
2020/01/31 10:39:30.5	300.980	-0.100	0.320	0.880
2020/01/31 10:39:30.6	300.980	-0.090	0.310	0.870
2020/01/31 10:39:30.7	300.970	-0.090	0.310	0.870
2020/01/31 10:39:30.8	300.960	-0.080	0.300	0.850
2020/01/31 10:39:30.9	300.950	-0.080	0.290	0.840
2020/01/31 10:39:31.0	300.930	-0.070	0.270	0.830
2020/01/31 10:39:31.1	300.920	-0.060	0.260	0.810
2020/01/31 10:39:31.2	300.900	-0.060	0.240	0.790
2020/01/31 10:39:31.3	300.890	-0.050	0.220	0.770
2020/01/31 10:39:31.4	300.870	-0.040	0.190	0.750
2020/01/31 10:39:31.5	300.860	-0.030	0.160	0.730
2020/01/31 10:39:31.6	300.840	-0.020	0.140	0.700
2020/01/31 10:39:31.7	300.820	-0.010	0.110	0.680
2020/01/31 10:39:31.8	300.790	0.000	0.090	0.660
2020/01/31 10:39:31.9	300.770	0.010	0.060	0.630
2020/01/31 10:39:32.0	300.750	0.020	0.030	0.610
2020/01/31 10:39:32.1	300.730	0.030	0.000	0.580
2020/01/31 10:39:32.2	300.700	0.040	-0.020	0.560
2020/01/31 10:39:32.3	300.680	0.050	-0.050	0.530
2020/01/31 10:39:32.4	300.650	0.060	-0.080	0.510
2020/01/31 10:39:32.5	300.630	0.060	-0.100	0.480
2020/01/31 10:39:32.6	300.600	0.070	-0.130	0.460
2020/01/31 10:39:32.7	300.580	0.080	-0.150	0.430
2020/01/31 10:39:32.8	300.560	0.080	-0.180	0.410
2020/01/31 10:39:32.9	300.530	0.090	-0.200	0.380
2020/01/31 10:39:33.0	300.510	0.090	-0.220	0.350
2020/01/31 10:39:33.1	300.480	0.100	-0.240	0.330
2020/01/31 10:39:33.2	300.460	0.100	-0.260	0.300
2020/01/31 10:39:33.3	300.440	0.100	-0.280	0.280
2020/01/31 10:39:33.4	300.420	0.110	-0.300	0.250
2020/01/31 10:39:33.5	300.400	0.110	-0.320	0.230
2020/01/31 10:39:33.6	300.380	0.110	-0.330	0.210
2020/01/31 10:39:33.7	300.360	0.110	-0.350	0.180
2020/01/31 10:39:33.8	300.350	0.110	-0.360	0.160
2020/01/31 10:39:33.9	300.330	0.120	-0.370	0.140
2020/01/31 10:39:34.0	300.320	0.120	-0.390	0.120
2020/01/31 10:39:34.1	300.310	0.120	-0.400	0.100
2020/01/31 10:39:34.2	300.300	0.120	-0.410	0.090
2020/01/31 10:39:34.3	300.290	0.120	-0.430	0.070
2020/01/31 10:39:34.4	300.290	0.130	-0.440	0.050
2020/01/31 10:39:34.5	300.280	0.130	-0.460	0.040
2020/01/31 10:39:34.6	300.280	0.130	-0.470	0.020
2020/01/31 10:39:34.7	300.280	0.140	-0.480	0.010
2020/01/31 10:39:34.8	300.290	0.140	-0.500	-0.000
2020/01/31 10:39:34.9	300.290	0.150	-0.510	-0.010
2020/01/31 10:39:35.0	300.300	0.160	-0.530	-0.020
2020/01/31 10:39:35.1	300.310	0.160	-0.540	-0.030
2020/01/31 10:39:35.2	300.320	0.170	-0.560	-0.040
2020/01/31 10:39:35.3	300.340	0.180	-0.570	-0.050
2020/01/31 10:39:35.4	300.350	0.190	-0.590	-0.050
2020/01/31 10:39:35.5	300.370	0.190	-0.600	-0.050
2020/01/31 10:39:35.6	300.380	0.200	-0.620	-0.060
2020/01/31 10:39:35.7	300.400	0.210	-0.630	-0.060
2020/01/31 10:39:35.8	300.420	0.220	-0.640	-0.060
2020/01/31 10:39:35.9	300.430	0.230	-0.660	-0.050
2020/01/31 10:39:36.0	300.450	0.240	-0.670	-0.050
2020/01/31 10:39:36.1	300.460	0.250	-0.670	-0.040
2020/01/31 10:39:36.2	300.480	0.250	-0.680	-0.030
2020/01/31 10:39:36.3	300.490	0.260	-0.690	-0.020
2020/01/31 10:39:36.4	300.510	0.270	-0.700	-0.000
2020/01/31 10:39:36.5	300.520	0.270	-0.700	0.010
2020/01/31 10:39:36.6	300.530	0.280	-0.700	0.030
2020/01/31 10:39:36.7	300.540	0.280	-0.700	0.050
2020/01/31 10:39:36.8	300.550	0.280	-0.700	0.080
2020/01/31 10:39:36.9	300.560	0.280	-0.690	0.100
2020/01/31 10:39:37.0	300.560	0.280	-0.690	0.130
2020/01/31 10:39:37.1	300.570	0.280	-0.680	0.160
2020/01/31 10:39:37.2	300.570	0.270	-0.670	0.180
2020/01/31 10:39:37.3	300.570	0.270	-0.660	0.210
2020/01/31 10:39:37.4	300.580	0.260	-0.650	0.250
2020/01/31 10:39:37.5	300.580	0.250	-0.640	0.280
2020/01/31 10:39:37.6	300.580	0.240	-0.620	0.310
2020/01/31 10:39:37.7	300.580	0.230	-0.610	0.340
2020/01/31 10:39:37.8	300.580	0.210	-0.590	0.370
2020/01/31 10:39:37.9	300.580	0.200	-0.570	0.390
2020/01/31 10:39:38.0	300.580	0.180	-0.550	0.420
2020/01/31 10:39:38.1	300.570	0.160	-0.530	0.450
2020/01/31 10:39:38.2	300.570	0.140	-0.510	0.470
2020/01/31 10:39:38.3	300.570	0.110	-0.490	0.500
2020/01/31 10:39:38.4	300.570	0.090	-0.460	0.520
2020/01/31 10:39:38.5	300.560	0.060	-0.440	0.550
2020/01/31 10:39:38.6	300.560	0.040	-0.410	0.570
2020/01/31 10:39:38.7	300.560	0.010	-0.380	0.590
2020/01/31 10:39:38.8	300.560	-0.020	-0.360	0.610
2020/01/31 10:39:38.9	300.550	-0.050	-0.330	0.630
2020/01/31 10:39:39.0	300.550	-0.080	-0.300	0.650
2020/01/31 10:39:39.1	300.540	-0.120	-0.260	0.670
2020/01/31 10:39:39.2	300.540	-0.150	-0.230	0.690
2020/01/31 10:39:39.3	300.530	-0.180	-0.200	0.700
2020/01/31 10:39:39.4	300.530	-0.220	-0.160	0.720
2020/01/31 10:39:39.5	300.530	-0.250	-0.130	0.740
2020/01/31 10:39:39.6	300.520	-0.290	-0.100	0.750
2020/01/31 10:39:39.7	300.520	-0.320	-0.060	0.760
2020/01/31 10:39:39.8	300.510	-0.350	-0.030	0.770
2020/01/31 10:39:39.9	300.510	-0.390	0.010	0.780
2020/01/31 10:39:40.0	300.500	-0.420	0.040	0.790
2020/01/31 10:39:40.1	300.500	-0.450	0.080	0.800
2020/01/31 10:39:40.2	300.500	-0.480	0.110	0.800
2020/01/31 10:39:40.3	300.490	-0.510	0.140	0.810
2020/01/31 10:39:40.4	300.490	-0.540	0.170	0.810
2020/01/31 10:39:40.5	300.490	-0.560	0.200	0.800
2020/01/31 10:39:40.6	300.490	-0.590	0.230	0.800
2020/01/31 10:39:40.7	300.480	-0.610	0.260	0.790
2020/01/31 10:39:40.8	300.480	-0.630	0.280	0.780
2020/01/31 10:39:40.9	300.480	-0.650	0.300	0.770
2020/01/31 10:39:41.0	300.490	-0.670	0.320	0.750
2020/01/31 10:39:41.1	300.490	-0.680	0.340	0.730
2020/01/31 10:39:41.2	300.490	-0.700	0.360	0.710
2020/01/31 10:39:41.3	300.490	-0.700	0.370	0.690
2020/01/31 10:39:41.4	300.500	-0.710	0.370	0.660
2020/01/31 10:39:41.5	300.510	-0.720	0.380	0.630
2020/01/31 10:39:41.6	300.510	-0.720	0.380	0.600
2020/01/31 10:39:41.7	300.520	-0.720	0.380	0.570
2020/01/31 10:39:41.8	300.530	-0.710	0.370	0.540
2020/01/31 10:39:41.9	300.540	-0.710	0.360	0.510
2020/01/31 10:39:42.0	300.540	-0.700	0.350	0.480
2020/01/31 10:39:42.1	300.550	-0.690	0.340	0.440
2020/01/31 10:39:42.2	300.560	-0.670	0.320	0.410
2020/01/31 10:39:42.3	300.570	-0.650	0.300	0.380
2020/01/31 10:39:42.4	300.580	-0.630	0.280	0.350
2020/01/31 10:39:42.5	300.590	-0.610	0.250	0.320
2020/01/31 10:39:42.6	300.600	-0.580	0.220	0.290
2020/01/31 10:39:42.7	300.610	-0.560	0.190	0.260
2020/01/31 10:39:42.8	300.620	-0.530	0.160	0.230
2020/01/31 10:39:42.9	300.630	-0.500	0.130	0.200
2020/01/31 10:39:43.0	300.640	-0.460	0.090	0.180
2020/01/31 10:39:43.1	300.650	-0.430	0.050	0.150
2020/01/31 10:39:43.2	300.660	-0.390	0.020	0.130
2020/01/31 10:39:43.3	300.670	-0.350	-0.020	0.110
2020/01/31 10:39:43.4	300.680	-0.310	-0.060	0.090
2020/01/31 10:39:43.5	300.690	-0.270	-0.100	0.080
2020/01/31 10:39:43.6	300.700	-0.230	-0.140	0.070
2020/01/31 10:39:43.7	300.710	-0.190	-0.180	0.060
2020/01/31 10:39:43.8	300.720	-0.150	-0.210	0.050
2020/01/31 10:39:43.9	300.740	-0.100	-0.250	0.040
2020/01/31 10:39:44.0	300.750	-0.060	-0.280	0.040
2020/01/31 10:39:44.1	300.760	-0.020	-0.320	0.040
2020/01/31 10:39:44.2	300.780	0.030	-0.350	0.040
2020/01/31 10:39:44.3	300.790	0.070	-0.380	0.040
2020/01/31 10:39:44.4	300.810	0.110	-0.400	0.050
2020/01/31 10:39:44.5	300.820	0.150	-0.430	0.060
2020/01/31 10:39:44.6	300.840	0.190	-0.450	0.070
2020/01/31 10:39:44.7	300.850	0.230	-0.470	0.090
2020/01/31 10:39:44.8	300.870	0.270	-0.490	0.100
2020/01/31 10:39:44.9	300.880	0.310	-0.510	0.120
2020/01/31 10:39:45.0	300.900	0.350	-0.520	0.150
2020/01/31 10:39:45.1	300.910	0.380	-0.530	0.170
2020/01/31 10:39:45.2	300.920	0.420	-0.540	0.200
2020/01/31 10:39:45.3	300.930	0.450	-0.550	0.230
2020/01/31 10:39:45.4	300.950	0.480	-0.550	0.260
2020/01/31 10:39:45.5	300.960	0.500	-0.550	0.290
2020/01/31 10:39:45.6	300.970	0.530	-0.550	0.330
2020/01/31 10:39:45.7	300.980	0.550	-0.550	0.360
2020/01/31 10:39:45.8	300.990	0.570	-0.540	0.400
2020/01/31 10:39:45.9	301.000	0.590	-0.530	0.440
2020/01/31 10:39:46.0	301.010	0.610	-0.520	0.480
2020/01/31 10:39:46.1	301.010	0.620	-0.510	0.520
2020/01/31 10:39:46.2	301.020	0.640	-0.500	0.550
2020/01/31 10:39:46.3	301.020	0.650	-0.490	0.590
2020/01/31 10:39:46.4	301.040	0.660	-0.480	0.640
2020/01/31 10:39:46.5	301.040	0.660	-0.470	0.670
2020/01/31 10:39:46.6	301.040	0.670	-0.460	0.710
2020/01/31 10:39:46.7	301.050	0.670	-0.440	0.740
2020/01/31 10:39:46.8	301.050	0.670	-0.430	0.770
2020/01/31 10:39:46.9	301.050	0.670	-0.420	0.800
2020/01/31 10:39:47.0	301.050	0.670	-0.400	0.830
2020/01/31 10:39:47.1	301.050	0.660	-0.390	0.860
2020/01/31 10:39:47.2	301.050	0.660	-0.380	0.880
2020/01/31 10:39:47.3	301.050	0.650	-0.370	0.910
2020/01/31 10:39:47.4	301.050	0.640	-0.350	0.930
2020/01/31 10:39:47.5	301.050	0.630	-0.340	0.950
2020/01/31 10:39:47.6	301.040	0.620	-0.330	0.960
2020/01/31 10:39:47.7	301.040	0.610	-0.320	0.980
2020/01/31 10:39:47.8	301.030	0.600	-0.310	0.990
2020/01/31 10:39:47.9	301.030	0.590	-0.300	1.010
2020/01/31 10:39:48.0	301.020	0.570	-0.290	1.020
2020/01/31 10:39:48.1	301.010	0.560	-0.280	1.030
2020/01/31 10:39:48.2	301.000	0.540	-0.270	1.030
2020/01/31 10:39:48.3	301.000	0.520	-0.260	1.040
2020/01/31 10:39:48.4	300.980	0.500	-0.260	1.040
2020/01/31 10:39:48.5	300.970	0.490	-0.250	1.040
2020/01/31 10:39:48.6	300.960	0.470	-0.250	1.040
2020/01/31 10:39:48.7	300.950	0.450	-0.240	1.040
2020/01/31 10:39:48.8	300.940	0.420	-0.230	1.030
2020/01/31 10:39:48.9	300.930	0.400	-0.230	1.020
2020/01/31 10:39:49.0	300.920	0.380	-0.230	1.010
2020/01/31 10:39:49.1	300.910	0.360	-0.220	1.000
2020/01/31 10:39:49.2	300.910	0.330	-0.220	0.980
2020/01/31 10:39:49.3	300.900	0.310	-0.220	0.960
2020/01/31 10:39:49.4	300.900	0.280	-0.220	0.940
2020/01/31 10:39:49.5	300.900	0.250	-0.220	0.920
2020/01/31 10:39:49.6	300.890	0.230	-0.220	0.890
2020/01/31 10:39:49.7	300.890	0.200	-0.220	0.870
2020/01/31 10:39:49.8	300.880	0.170	-0.230	0.840
2020/01/31 10:39:49.9	300.880	0.140	-0.230	0.800
2020/01/31 10:39:50.0	300.880	0.110	-0.240	0.770
2020/01/31 10:39:50.1	300.870	0.090	-0.250	0.740
2020/01/31 10:39:50.2	300.870	0.060	-0.260	0.700
2020/01/31 10:39:50.3	300.870	0.030	-0.270	0.660
2020/01/31 10:39:50.4	300.870	-0.000	-0.290	0.620
2020/01/31 10:39:50.5	300.870	-0.030	-0.300	0.580
2020/01/31 10:39:50.6	300.860	-0.060	-0.310	0.540
2020/01/31 10:39:50.7	300.860	-0.090	-0.320	0.500
2020/01/31 10:39:50.8	300.860	-0.120	-0.340	0.450
2020/01/31 10:39:50.9	300.860	-0.150	-0.350	0.410
2020/01/31 10:39:51.0	300.860	-0.170	-0.360	0.370
2020/01/31 10:39:51.1	300.850	-0.200	-0.370	0.330
2020/01/31 10:39:51.2	300.850	-0.230	-0.390	0.290
2020/01/31 10:39:51.3	300.850	-0.250	-0.400	0.250
2020/01/31 10:39:51.4	300.840	-0.280	-0.410	0.210
2020/01/31 10:39:51.5	300.840	-0.310	-0.420	0.170
2020/01/31 10:39:51.6	300.830	-0.330	-0.430	0.130
2020/01/31 10:39:51.7	300.830	-0.350	-0.440	0.090
2020/01/31 10:39:51.8	300.830	-0.370	-0.440	0.050
2020/01/31 10:39:51.9	300.820	-0.400	-0.450	0.020
2020/01/31 10:39:52.0	300.820	-0.420	-0.450	-0.020
2020/01/31 10:39:52.1	300.810	-0.430	-0.450	-0.050
2020/01/31 10:39:52.2	300.810	-0.450	-0.450	-0.080
2020/01/31 10:39:52.3	300.810	-0.470	-0.450	-0.110
2020/01/31 10:39:52.4	300.800	-0.480	-0.450	-0.130
2020/01/31 10:39:52.5	300.800	-0.490	-0.450	-0.160
2020/01/31 10:39:52.6	300.790	-0.510	-0.440	-0.190
2020/01/31 10:39:52.7	300.790	-0.510	-0.440	-0.210
2020/01/31 10:39:52.8	300.790	-0.520	-0.430	-0.230
2020/01/31 10:39:52.9	300.790	-0.530	-0.420	-0.250
2020/01/31 10:39:53.0	300.790	-0.530	-0.410	-0.270
2020/01/31 10:39:53.1	300.800	-0.530	-0.400	-0.280
2020/01/31 10:39:53.2	300.800	-0.530	-0.390	-0.300
2020/01/31 10:39:53.3	300.810	-0.530	-0.380	-0.310
2020/01/31 10:39:53.4	300.810	-0.530	-0.370	-0.320
2020/01/31 10:39:53.5	300.820	-0.520	-0.350	-0.330
2020/01/31 10:39:53.6	300.830	-0.510	-0.340	-0.340
2020/01/31 10:39:53.7	300.850	-0.500	-0.320	-0.350
2020/01/31 10:39:53.8	300.860	-0.490	-0.300	-0.360
2020/01/31 10:39:53.9	300.880	-0.480	-0.290	-0.360
2020/01/31 10:39:54.0	300.890	-0.460	-0.270	-0.370
2020/01/31 10:39:54.1	300.910	-0.450	-0.250	-0.370
2020/01/31 10:39:54.2	300.930	-0.430	-0.230	-0.370
2020/01/31 10:39:54.3	300.950	-0.410	-0.210	-0.370
2020/01/31 10:39:54.4	300.970	-0.390	-0.190	-0.360
2020/01/31 10:39:54.5	300.990	-0.370	-0.170	-0.360
2020/01/31 10:39:54.6	301.010	-0.350	-0.150	-0.350
2020/01/31 10:39:54.7	301.030	-0.330	-0.130	-0.340
2020/01/31 10:39:54.8	301.050	-0.310	-0.100	-0.330
2020/01/31 10:39:54.9	301.080	-0.290	-0.080	-0.320
2020/01/31 10:39:55.0	301.100	-0.260	-0.060	-0.300
2020/01/31 10:39:55.1	301.120	-0.240	-0.040	-0.280
2020/01/31 10:39:55.2	301.140	-0.220	-0.020	-0.260
2020/01/31 10:39:55.3	301.160	-0.200	0.010	-0.240
2020/01/31 10:39:55.4	301.170	-0.180	0.020	-0.210
2020/01/31 10:39:55.5	301.190	-0.160	0.040	-0.190
2020/01/31 10:39:55.6	301.200	-0.140	0.060	-0.160
2020/01/31 10:39:55.7	301.220	-0.120	0.080	-0.130
2020/01/31 10:39:55.8	301.230	-0.100	0.100	-0.100
2020/01/31 10:39:55.9	301.240	-0.080	0.120	-0.070
2020/01/31 10:39:56.0	301.250	-0.070	0.140	-0.030
2020/01/31 10:39:56.1	301.260	-0.050	0.160	0.000
2020/01/31 10:39:56.2	301.270	-0.040	0.170	0.040
2020/01/31 10:39:56.3	301.280	-0.030	0.180	0.070
2020/01/31 10:39:56.4	301.280	-0.020	0.200	0.110
2020/01/31 10:39:56.5	301.290	-0.010	0.210	0.150
2020/01/31 10:39:56.6	301.290	0.000	0.220	0.190
2020/01/31 10:39:56.7	301.290	0.010	0.230	0.220
2020/01/31 10:39:56.8	301.290	0.020	0.240	0.260
2020/01/31 10:39:56.9	301.290	0.030	0.240	0.300
2020/01/31 10:39:57.0	301.280	0.030	0.240	0.340
2020/01/31 10:39:57.1	301.280	0.040	0.240	0.380
2020/01/31 10:39:57.2	301.270	0.040	0.240	0.430
2020/01/31 10:39:57.3	301.270	0.040	0.240	0.470
2020/01/31 10:39:57.4	301.250	0.040	0.240	0.510
2020/01/31 10:39:57.5	301.240	0.050	0.230	0.550
2020/01/31 10:39:57.6	301.230	0.050	0.220	0.590
2020/01/31 10:39:57.7	301.220	0.050	0.210	0.630
2020/01/31 10:39:57.8	301.210	0.050	0.200	0.670
2020/01/31 10:39:57.9	301.200	0.050	0.190	0.710
2020/01/31 10:39:58.0	301.180	0.050	0.180	0.750
2020/01/31 10:39:58.1	301.170	0.050	0.160	0.790
2020/01/31 10:39:58.2	301.150	0.050	0.140	0.820
2020/01/31 10:39:58.3	301.140	0.050	0.120	0.860
2020/01/31 10:39:58.4	301.130	0.060	0.110	0.900
2020/01/31 10:39:58.5	301.110	0.060	0.090	0.930
2020/01/31 10:39:58.6	301.090	0.060	0.070	0.960
2020/01/31 10:39:58.7	301.080	0.070	0.040	1.000
2020/01/31 10:39:58.8	301.060	0.070	0.020	1.030
2020/01/31 10:39:58.9	301.040	0.080	-0.010	1.060
2020/01/31 10:39:59.0	301.020	0.080	-0.040	1.090
2020/01/31 10:39:59.1	301.010	0.090	-0.060	1.110
2020/01/31 10:39:59.2	300.990	0.100	-0.090	1.130
2020/01/31 10:39:59.3	300.970	0.100	-0.130	1.150
2020/01/31 10:39:59.4	300.960	0.110	-0.170	1.170
2020/01/31 10:39:59.5	300.940	0.120	-0.200	1.180
2020/01/31 10:39:59.6	300.930	0.140	-0.240	1.190
2020/01/31 10:39:59.7	300.920	0.150	-0.270	1.200
2020/01/31 10:39:59.8	300.910	0.160	-0.310	1.200
2020/01/31 10:39:59.9	300.890	0.170	-0.350	1.200
2020/01/31 10:40:00.0	300.880	0.190	-0.390	1.200
2020/01/31 10:40:00.1	300.870	0.200	-0.430	1.190
2020/01/31 10:40:00.2	300.870	0.220	-0.470	1.180
2020/01/31 10:40:00.3	300.860	0.230	-0.510	1.160
2020/01/31 10:40:00.4	300.850	0.250	-0.550	1.140
2020/01/31 10:40:00.5	300.850	0.260	-0.590	1.120
2020/01/31 10:40:00.6	300.840	0.280	-0.630	1.100
2020/01/31 10:40:00.7	300.840	0.290	-0.660	1.070
2020/01/31 10:40:00.8	300.830	0.310	-0.700	1.040
2020/01/31 10:40:00.9	300.830	0.320	-0.730	1.010
2020/01/31 10:40:01.0	300.830	0.330	-0.770	0.990
2020/01/31 10:40:01.1	300.830	0.350	-0.800	0.950
2020/01/31 10:40:01.2	300.830	0.360	-0.830	0.920
2020/01/31 10:40:01.3	300.830	0.370	-0.850	0.890
2020/01/31 10:40:01.4	300.830	0.380	-0.880	0.860
2020/01/31 10:40:01.5	300.830	0.390	-0.890	0.830
2020/01/31 10:40:01.6	300.830	0.400	-0.910	0.790
2020/01/31 10:40:01.7	300.830	0.410	-0.920	0.760
2020/01/31 10:40:01.8	300.830	0.410	-0.930	0.730
2020/01/31 10:40:01.9	300.830	0.420	-0.940	0.700
2020/01/31 10:40:02.0	300.830	0.420	-0.940	0.670
2020/01/31 10:40:02.1	300.840	0.420	-0.940	0.640
2020/01/31 10:40:02.2	300.840	0.420	-0.930	0.610
2020/01/31 10:40:02.3	300.840	0.420	-0.930	0.590
2020/01/31 10:40:02.4	300.840	0.420	-0.920	0.560
2020/01/31 10:40:02.5	300.850	0.420	-0.900	0.530
2020/01/31 10:40:02.6	300.850	0.410	-0.890	0.510
2020/01/31 10:40:02.7	300.850	0.400	-0.870	0.480
2020/01/31 10:40:02.8	300.860	0.400	-0.850	0.460
2020/01/31 10:40:02.9	300.860	0.390	-0.830	0.440
2020/01/31 10:40:03.0	300.860	0.380	-0.800	0.420
2020/01/31 10:40:03.1	300.870	0.360	-0.780	0.400
2020/01/31 10:40:03.2	300.870	0.350	-0.750	0.380
2020/01/31 10:40:03.3	300.870	0.340	-0.720	0.360
2020/01/31 10:40:03.4	300.880	0.320	-0.700	0.350
2020/01/31 10:40:03.5	300.880	0.300	-0.670	0.330
2020/01/31 10:40:03.6	300.890	0.280	-0.640	0.320
2020/01/31 10:40:03.7	300.890	0.270	-0.610	0.300
2020/01/31 10:40:03.8	300.900	0.250	-0.580	0.290
2020/01/31 10:40:03.9	300.900	0.230	-0.560	0.280
2020/01/31 10:40:04.0	300.900	0.200	-0.530	0.260
2020/01/31 10:40:04.1	300.910	0.180	-0.500	0.250
2020/01/31 10:40:04.2	300.910	0.160	-0.470	0.240
2020/01/31 10:40:04.3	300.910	0.140	-0.440	0.230
2020/01/31 10:40:04.4	300.920	0.110	-0.420	0.220
2020/01/31 10:40:04.5	300.930	0.090	-0.390	0.200
2020/01/31 10:40:04.6	300.930	0.070	-0.370	0.190
2020/01/31 10:40:04.7	300.940	0.040	-0.340	0.180
2020/01/31 10:40:04.8	300.940	0.020	-0.320	0.170
2020/01/31 10:40:04.9	300.950	-0.010	-0.290	0.160
2020/01/31 10:40:05.0	300.950	-0.030	-0.270	0.150
2020/01/31 10:40:05.1	300.950	-0.060	-0.250	0.150
2020/01/31 10:40:05.2	300.960	-0.080	-0.220	0.140
2020/01/31 10:40:05.3	300.960	-0.110	-0.200	0.130
2020/01/31 10:40:05.4	300.960	-0.130	-0.180	0.130
2020/01/31 10:40:05.5	300.960	-0.160	-0.160	0.120
2020/01/31 10:40:05.6	300.970	-0.180	-0.130	0.120
2020/01/31 10:40:05.7	300.970	-0.210	-0.110	0.120
2020/01/31 10:40:05.8	300.970	-0.230	-0.090	0.120
2020/01/31 10:40:05.9	300.970	-0.250	-0.070	0.110
2020/01/31 10:40:06.0	300.980	-0.280	-0.040	0.110
2020/01/31 10:40:06.1	300.980	-0.300	-0.020	0.110
2020/01/31 10:40:06.2	300.980	-0.320	0.000	0.110
2020/01/31 10:40:06.3	300.980	-0.340	0.020	0.110
2020/01/31 10:40:06.4	300.980	-0.360	0.050	0.110
2020/01/31 10:40:06.5	300.980	-0.380	0.070	0.120
2020/01/31 10:40:06.6	300.980	-0.400	0.090	0.120
2020/01/31 10:40:06.7	300.980	-0.420	0.120	0.120
2020/01/31 10:40:06.8	300.980	-0.440	0.140	0.120
2020/01/31 10:40:06.9	300.990	-0.460	0.160	0.130
2020/01/31 10:40:07.0	300.990	-0.480	0.180	0.130
2020/01/31 10:40:07.1	300.990	-0.490	0.210	0.140
2020/01/31 10:40:07.2	300.990	-0.510	0.230	0.140
2020/01/31 10:40:07.3	300.990	-0.520	0.250	0.150
2020/01/31 10:40:07.4	300.990	-0.540	0.270	0.160
2020/01/31 10:40:07.5	300.990	-0.550	0.290	0.160
2020/01/31 10:40:07.6	301.000	-0.560	0.310	0.170
2020/01/31 10:40:07.7	301.000	-0.570	0.330	0.180
2020/01/31 10:40:07.8	301.000	-0.580	0.350	0.180
2020/01/31 10:40:07.9	301.010	-0.590	0.360	0.190
2020/01/31 10:40:08.0	301.010	-0.590	0.380	0.200
2020/01/31 10:40:08.1	301.010	-0.600	0.400	0.210
2020/01/31 10:40:08.2	301.010	-0.600	0.410	0.230
2020/01/31 10:40:08.3	301.020	-0.600	0.420	0.240
2020/01/31 10:40:08.4	301.020	-0.600	0.430	0.260
2020/01/31 10:40:08.5	301.020	-0.590	0.440	0.270
2020/01/31 10:40:08.6	301.020	-0.590	0.450	0.290
2020/01/31 10:40:08.7	301.020	-0.580	0.460	0.310
2020/01/31 10:40:08.8	301.020	-0.570	0.460	0.330
2020/01/31 10:40:08.9	301.030	-0.560	0.470	0.350
2020/01/31 10:40:09.0	301.020	-0.540	0.470	0.370
2020/01/31 10:40:09.1	301.020	-0.530	0.470	0.400
2020/01/31 10:40:09.2	301.020	-0.510	0.470	0.420
2020/01/31 10:40:09.3	301.020	-0.490	0.460	0.440
2020/01/31 10:40:09.4	301.020	-0.470	0.460	0.470
2020/01/31 10:40:09.5	301.020	-0.440	0.450	0.500
2020/01/31 10:40:09.6	301.020	-0.420	0.430	0.520
2020/01/31 10:40:09.7	301.020	-0.390	0.420	0.550
2020/01/31 10:40:09.8	301.020	-0.360	0.400	0.570
2020/01/31 10:40:09.9	301.020	-0.330	0.380	0.600
2020/01/31 10:40:10.0	301.020	-0.290	0.360	0.630
2020/01/31 10:40:10.1	301.020	-0.260	0.330	0.650
2020/01/31 10:40:10.2	301.020	-0.220	0.300	0.680
2020/01/31 10:40:10.3	301.020	-0.180	0.270	0.700
2020/01/31 10:40:10.4	301.020	-0.140	0.240	0.720
2020/01/31 10:40:10.5	301.020	-0.100	0.210	0.750
2020/01/31 10:40:10.6	301.020	-0.060	0.170	0.770
2020/01/31 10:40:10.7	301.030	-0.020	0.130	0.790
2020/01/31 10:40:10.8	301.030	0.020	0.090	0.810
2020/01/31 10:40:10.9	301.030	0.060	0.040	0.830
2020/01/31 10:40:11.0	301.040	0.100	0.000	0.850
2020/01/31 10:40:11.1	301.040	0.150	-0.050	0.870
2020/01/31 10:40:11.2	301.040	0.190	-0.090	0.890
2020/01/31 10:40:11.3	301.050	0.230	-0.140	0.900
2020/01/31 10:40:11.4	301.040	0.270	-0.190	0.920
2020/01/31 10:40:11.5	301.040	0.300	-0.240	0.940
2020/01/31 10:40:11.6	301.040	0.340	-0.280	0.950
2020/01/31 10:40:11.7	301.040	0.380	-0.330	0.960
2020/01/31 10:40:11.8	301.030	0.410	-0.380	0.980
2020/01/31 10:40:11.9	301.030	0.440	-0.420	0.990
2020/01/31 10:40:12.0	301.030	0.470	-0.460	1.000
2020/01/31 10:40:12.1	301.020	0.500	-0.510	1.010
2020/01/31 10:40:12.2	301.010	0.520	-0.550	1.020
2020/01/31 10:40:12.3	301.010	0.550	-0.580	1.020
2020/01/31 10:40:12.4	301.000	0.570	-0.620	1.030
2020/01/31 10:40:12.5	300.990	0.590	-0.660	1.030
2020/01/31 10:40:12.6	300.980	0.600	-0.690	1.040
2020/01/31 10:40:12.7	300.970	0.620	-0.720	1.040
2020/01/31 10:40:12.8	300.960	0.630	-0.750	1.030
2020/01/31 10:40:12.9	300.950	0.640	-0.780	1.030
2020/01/31 10:40:13.0	300.940	0.640	-0.810	1.030
2020/01/31 10:40:13.1	300.930	0.650	-0.840	1.020
2020/01/31 10:40:13.2	300.930	0.650	-0.860	1.010
2020/01/31 10:40:13.3	300.920	0.650	-0.890	0.990
2020/01/31 10:40:13.4	300.920	0.650	-0.910	0.980
2020/01/31 10:40:13.5	300.910	0.650	-0.930	0.960
2020/01/31 10:40:13.6	300.910	0.640	-0.950	0.930
2020/01/31 10:40:13.7	300.910	0.640	-0.970	0.910
2020/01/31 10:40:13.8	300.900	0.630	-0.990	0.880
2020/01/31 10:40:13.9	300.900	0.620	-1.010	0.850
2020/01/31 10:40:14.0	300.900	0.610	-1.020	0.820
2020/01/31 10:40:14.1	300.900	0.600	-1.040	0.780
2020/01/31 10:40:14.2	300.900	0.590	-1.050	0.740
2020/01/31 10:40:14.3	300.900	0.580	-1.070	0.710
2020/01/31 10:40:14.4	300.910	0.570	-1.080	0.660
2020/01/31 10:40:14.5	300.910	0.550	-1.090	0.620
2020/01/31 10:40:14.6	300.910	0.540	-1.100	0.580
2020/01/31 10:40:14.7	300.920	0.530	-1.100	0.540
2020/01/31 10:40:14.8	300.920	0.510	-1.110	0.500
2020/01/31 10:40:14.9	300.930	0.490	-1.110	0.460
2020/01/31 10:40:15.0	300.930	0.480	-1.110	0.410
2020/01/31 10:40:15.1	300.940	0.460	-1.100	0.370
2020/01/31 10:40:15.2	300.950	0.440	-1.100	0.330
2020/01/31 10:40:15.3	300.960	0.420	-1.090	0.290
2020/01/31 10:40:15.4	300.960	0.400	-1.080	0.250
2020/01/31 10:40:15.5	300.970	0.370	-1.060	0.210
2020/01/31 10:40:15.6	300.980	0.350	-1.040	0.180
2020/01/31 10:40:15.7	300.990	0.320	-1.020	0.140
2020/01/31 10:40:15.8	301.000	0.300	-1.000	0.110
2020/01/31 10:40:15.9	301.000	0.270	-0.970	0.070
2020/01/31 10:40:16.0	301.010	0.240	-0.940	0.040
2020/01/31 10:40:16.1	301.020	0.210	-0.910	0.010
2020/01/31 10:40:16.2	301.030	0.170	-0.870	-0.020
2020/01/31 10:40:16.3	301.040	0.140	-0.830	-0.040
2020/01/31 10:40:16.4	301.050	0.100	-0.780	-0.070
2020/01/31 10:40:16.5	301.060	0.070	-0.740	-0.090
2020/01/31 10:40:16.6	301.070	0.030	-0.690	-0.110
2020/01/31 10:40:16.7	301.080	-0.010	-0.640	-0.130
2020/01/31 10:40:16.8	301.090	-0.050	-0.580	-0.140
2020/01/31 10:40:16.9	301.100	-0.090	-0.530	-0.160
2020/01/31 10:40:17.0	301.100	-0.140	-0.470	-0.170
2020/01/31 10:40:17.1	301.110	-0.180	-0.420	-0.180
2020/01/31 10:40:17.2	301.120	-0.220	-0.360	-0.190
2020/01/31 10:40:17.3	301.130	-0.260	-0.300	-0.190
2020/01/31 10:40:17.4	301.140	-0.300	-0.230	-0.200
2020/01/31 10:40:17.5	301.150	-0.350	-0.170	-0.200
2020/01/31 10:40:17.6	301.160	-0.390	-0.110	-0.200
2020/01/31 10:40:17.7	301.170	-0.430	-0.060	-0.200
2020/01/31 10:40:17.8	301.170	-0.470	0.000	-0.200
2020/01/31 10:40:17.9	301.180	-0.500	0.060	-0.200
2020/01/31 10:40:18.0	301.190	-0.540	0.120	-0.200
2020/01/31 10:40:18.1	301.200	-0.570	0.170	-0.190
2020/01/31 10:40:18.2	301.200	-0.600	0.220	-0.190
2020/01/31 10:40:18.3	301.210	-0.630	0.270	-0.180
2020/01/31 10:40:18.4	301.220	-0.660	0.310	-0.180
2020/01/31 10:40:18.5	301.230	-0.680	0.360	-0.170
2020/01/31 10:40:18.6	301.240	-0.700	0.400	-0.160
2020/01/31 10:40:18.7	301.240	-0.720	0.440	-0.150
2020/01/31 10:40:18.8	301.250	-0.730	0.470	-0.140
2020/01/31 10:40:18.9	301.260	-0.740	0.500	-0.130
2020/01/31 10:40:19.0	301.260	-0.750	0.530	-0.110
2020/01/31 10:40:19.1	301.270	-0.750	0.560	-0.100
2020/01/31 10:40:19.2	301.280	-0.750	0.580	-0.090
2020/01/31 10:40:19.3	301.280	-0.750	0.590	-0.070
2020/01/31 10:40:19.4	301.290	-0.740	0.610	-0.060
2020/01/31 10:40:19.5	301.290	-0.730	0.620	-0.050
2020/01/31 10:40:19.6	301.300	-0.720	0.620	-0.030
2020/01/31 10:40:19.7	301.300	-0.710	0.620	-0.020
2020/01/31 10:40:19.8	301.310	-0.690	0.620	-0.000
2020/01/31 10:40:19.9	301.310	-0.670	0.610	0.010
2020/01/31 10:40:20.0	301.310	-0.650	0.600	0.020
2020/01/31 10:40:20.1	301.310	-0.620	0.590	0.040
2020/01/31 10:40:20.2	301.320	-0.600	0.580	0.050
2020/01/31 10:40:20.3	301.320	-0.570	0.560	0.070
2020/01/31 10:40:20.4	301.330	-0.540	0.540	0.080
2020/01/31 10:40:20.5	301.330	-0.510	0.510	0.100
2020/01/31 10:40:20.6	301.330	-0.480	0.490	0.110
2020/01/31 10:40:20.7	301.330	-0.440	0.460	0.130
2020/01/31 10:40:20.8	301.340	-0.410	0.430	0.140
2020/01/31 10:40:20.9	301.340	-0.380	0.400	0.150
2020/01/31 10:40:21.0	301.340	-0.350	0.370	0.160
2020/01/31 10:40:21.1	301.340	-0.310	0.340	0.180
2020/01/31 10:40:21.2	301.350	-0.280	0.310	0.190
2020/01/31 10:40:21.3	301.350	-0.250	0.280	0.200
2020/01/31 10:40:21.4	301.350	-0.210	0.250	0.220
2020/01/31 10:40:21.5	301.350	-0.180	0.220	0.240
2020/01/31 10:40:21.6	301.350	-0.150	0.190	0.250
2020/01/31 10:40:21.7	301.350	-0.120	0.160	0.260
2020/01/31 10:40:21.8	301.350	-0.090	0.130	0.280
2020/01/31 10:40:21.9	301.340	-0.070	0.110	0.300
2020/01/31 10:40:22.0	301.340	-0.040	0.090	0.310
2020/01/31 10:40:22.1	301.340	-0.020	0.070	0.330
2020/01/31 10:40:22.2	301.330	0.010	0.050	0.350
2020/01/31 10:40:22.3	301.320	0.030	0.030	0.370
2020/01/31 10:40:22.4	301.320	0.050	0.020	0.390
2020/01/31 10:40:22.5	301.310	0.070	0.000	0.410
2020/01/31 10:40:22.6	301.300	0.090	-0.010	0.430
2020/01/31 10:40:22.7	301.290	0.100	-0.020	0.450
2020/01/31 10:40:22.8	301.270	0.120	-0.030	0.470
2020/01/31 10:40:22.9	301.260	0.140	-0.030	0.490
2020/01/31 10:40:23.0	301.240	0.150	-0.040	0.510
2020/01/31 10:40:23.1	301.230	0.160	-0.050	0.540
2020/01/31 10:40:23.2	301.210	0.180	-0.060	0.560
2020/01/31 10:40:23.3	301.190	0.190	-0.060	0.580
2020/01/31 10:40:23.4	301.180	0.200	-0.070	0.600
2020/01/31 10:40:23.5	301.160	0.210	-0.080	0.620
2020/01/31 10:40:23.6	301.140	0.220	-0.090	0.640
2020/01/31 10:40:23.7	301.120	0.240	-0.100	0.660
2020/01/31 10:40:23.8	301.110	0.250	-0.110	0.680
2020/01/31 10:40:23.9	301.090	0.260	-0.130	0.690
2020/01/31 10:40:24.0	301.070	0.270	-0.150	0.710
2020/01/31 10:40:24.1	301.060	0.280	-0.160	0.720
2020/01/31 10:40:24.2	301.040	0.290	-0.180	0.730
2020/01/31 10:40:24.3	301.030	0.310	-0.210	0.740
2020/01/31 10:40:24.4	301.010	0.320	-0.230	0.750
2020/01/31 10:40:24.5	301.000	0.330	-0.260	0.760
2020/01/31 10:40:24.6	300.990	0.340	-0.290	0.770
2020/01/31 10:40:24.7	300.980	0.360	-0.320	0.780
2020/01/31 10:40:24.8	300.970	0.370	-0.350	0.780
2020/01/31 10:40:24.9	300.960	0.380	-0.390	0.790
2020/01/31 10:40:25.0	300.950	0.400	-0.420	0.790
2020/01/31 10:40:25.1	300.950	0.410	-0.460	0.790
2020/01/31 10:40:25.2	300.940	0.420	-0.500	0.790
2020/01/31 10:40:25.3	300.930	0.430	-0.530	0.790
2020/01/31 10:40:25.4	300.920	0.440	-0.570	0.790
2020/01/31 10:40:25.5	300.920	0.460	-0.610	0.790
2020/01/31 10:40:25.6	300.920	0.470	-0.650	0.790
2020/01/31 10:40:25.7	300.910	0.480	-0.680	0.790
2020/01/31 10:40:25.8	300.910	0.480	-0.720	0.780
2020/01/31 10:40:25.9	300.910	0.490	-0.760	0.780
2020/01/31 10:40:26.0	300.910	0.500	-0.790	0.770
2020/01/31 10:40:26.1	300.910	0.500	-0.820	0.760
2020/01/31 10:40:26.2	300.910	0.500	-0.850	0.750
2020/01/31 10:40:26.3	300.910	0.500	-0.880	0.740
2020/01/31 10:40:26.4	300.930	0.500	-0.910	0.730
2020/01/31 10:40:26.5	300.930	0.500	-0.940	0.710
2020/01/31 10:40:26.6	300.940	0.500	-0.960	0.700
2020/01/31 10:40:26.7	300.950	0.490	-0.980	0.680
2020/01/31 10:40:26.8	300.950	0.480	-1.000	0.660
2020/01/31 10:40:26.9	300.960	0.470	-1.010	0.630
2020/01/31 10:40:27.0	300.970	0.460	-1.020	0.610
2020/01/31 10:40:27.1	300.980	0.440	-1.030	0.580
2020/01/31 10:40:27.2	300.990	0.430	-1.030	0.550
2020/01/31 10:40:27.3	301.000	0.410	-1.030	0.530
2020/01/31 10:40:27.4	301.020	0.390	-1.030	0.490
2020/01/31 10:40:27.5	301.030	0.370	-1.020	0.460
2020/01/31 10:40:27.6	301.040	0.350	-1.020	0.430
2020/01/31 10:40:27.7	301.050	0.320	-1.000	0.400
2020/01/31 10:40:27.8	301.060	0.300	-0.980	0.370
2020/01/31 10:40:27.9	301.070	0.270	-0.960	0.340
2020/01/31 10:40:28.0	301.080	0.240	-0.940	0.310
2020/01/31 10:40:28.1	301.100	0.210	-0.910	0.270
2020/01/31 10:40:28.2	301.110	0.190	-0.880	0.240
2020/01/31 10:40:28.3	301.120	0.160	-0.850	0.210
2020/01/31 10:40:28.4	301.130	0.130	-0.820	0.180
2020/01/31 10:40:28.5	301.150	0.100	-0.780	0.140
2020/01/31 10:40:28.6	301.160	0.070	-0.740	0.110
2020/01/31 10:40:28.7	301.170	0.040	-0.700	0.080
2020/01/31 10:40:28.8	301.180	0.010	-0.660	0.040
2020/01/31 10:40:28.9	301.200	-0.020	-0.620	0.010
2020/01/31 10:40:29.0	301.210	-0.050	-0.580	-0.020
2020/01/31 10:40:29.1	301.230	-0.070	-0.530	-0.050
2020/01/31 10:40:29.2	301.240	-0.100	-0.490	-0.090
2020/01/31 10:40:29.3	301.250	-0.120	-0.450	-0.120
2020/01/31 10:40:29.4	301.270	-0.150	-0.410	-0.150
2020/01/31 10:40:29.5	301.280	-0.170	-0.370	-0.180
2020/01/31 10:40:29.6	301.300	-0.190	-0.330	-0.200
2020/01/31 10:40:29.7	301.320	-0.210	-0.300	-0.230
2020/01/31 10:40:29.8	301.330	-0.220	-0.260	-0.250
2020/01/31 10:40:29.9	301.350	-0.240	-0.230	-0.280
2020/01/31 10:40:30.0	301.370	-0.250	-0.200	-0.300
2020/01/31 10:40:30.1	301.380	-0.260	-0.170	-0.320
2020/01/31 10:40:30.2	301.400	-0.270	-0.150	-0.340
2020/01/31 10:40:30.3	301.420	-0.280	-0.130	-0.350
2020/01/31 10:40:30.4	301.430	-0.290	-0.110	-0.370
2020/01/31 10:40:30.5	301.450	-0.290	-0.090	-0.380
2020/01/31 10:40:30.6	301.470	-0.300	-0.070	-0.390
2020/01/31 10:40:30.7	301.490	-0.300	-0.060	-0.390
2020/01/31 10:40:30.8	301.500	-0.300	-0.050	-0.400
2020/01/31 10:40:30.9	301.520	-0.300	-0.040	-0.400
2020/01/31 10:40:31.0	301.540	-0.290	-0.030	-0.390
2020/01/31 10:40:31.1	301.550	-0.290	-0.020	-0.390
2020/01/31 10:40:31.2	301.570	-0.290	-0.010	-0.380
2020/01/31 10:40:31.3	301.580	-0.280	-0.000	-0.370
2020/01/31 10:40:31.4	301.590	-0.270	0.000	-0.350
2020/01/31 10:40:31.5	301.600	-0.260	0.010	-0.330
2020/01/31 10:40:31.6	301.610	-0.260	0.020	-0.300
2020/01/31 10:40:31.7	301.610	-0.250	0.030	-0.280
2020/01/31 10:40:31.8	301.620	-0.240	0.030	-0.250
2020/01/31 10:40:31.9	301.620	-0.230	0.040	-0.220
2020/01/31 10:40:32.0	301.630	-0.220	0.050	-0.180
2020/01/31 10:40:32.1	301.630	-0.210	0.060	-0.140
2020/01/31 10:40:32.2	301.630	-0.200	0.070	-0.100
2020/01/31 10:40:32.3	301.620	-0.190	0.080	-0.060
2020/01/31 10:40:32.4	301.620	-0.180	0.090	-0.010
2020/01/31 10:40:32.5	301.620	-0.170	0.100	0.030
2020/01/31 10:40:32.6	301.610	-0.160	0.120	0.080
2020/01/31 10:40:32.7	301.600	-0.150	0.130	0.120
2020/01/31 10:40:32.8	301.590	-0.150	0.150	0.170
2020/01/31 10:40:32.9	301.570	-0.140	0.160	0.220
2020/01/31 10:40:33.0	301.560	-0.130	0.170	0.270
2020/01/31 10:40:33.1	301.540	-0.130	0.190	0.320
2020/01/31 10:40:33.2	301.520	-0.120	0.210	0.370
2020/01/31 10:40:33.3	301.510	-0.120	0.220	0.420
2020/01/31 10:40:33.4	301.490	-0.110	0.240	0.470
2020/01/31 10:40:33.5	301.480	-0.110	0.260	0.510
2020/01/31 10:40:33.6	301.460	-0.100	0.270	0.560
2020/01/31 10:40:33.7	301.440	-0.100	0.280	0.600
2020/01/31 10:40:33.8	301.420	-0.090	0.290	0.640
2020/01/31 10:40:33.9	301.400	-0.090	0.300	0.680
2020/01/31 10:40:34.0	301.380	-0.090	0.310	0.720
2020/01/31 10:40:34.1	301.360	-0.080	0.320	0.750
2020/01/31 10:40:34.2	301.340	-0.080	0.330	0.780
2020/01/31 10:40:34.3	301.320	-0.080	0.340	0.810
2020/01/31 10:40:34.4	301.300	-0.070	0.340	0.840
2020/01/31 10:40:34.5	301.280	-0.070	0.340	0.870
2020/01/31 10:40:34.6	301.260	-0.060	0.340	0.890
2020/01/31 10:40:34.7	301.240	-0.060	0.330	0.910
2020/01/31 10:40:34.8	301.230	-0.050	0.330	0.920
2020/01/31 10:40:34.9	301.210	-0.050	0.320	0.930
2020/01/31 10:40:35.0	301.190	-0.040	0.310	0.940
2020/01/31 10:40:35.1	301.180	-0.040	0.300	0.950
2020/01/31 10:40:35.2	301.160	-0.030	0.290	0.950
2020/01/31 10:40:35.3	301.150	-0.020	0.270	0.950
2020/01/31 10:40:35.4	301.140	-0.020	0.250	0.950
2020/01/31 10:40:35.5	301.120	-0.010	0.230	0.950
2020/01/31 10:40:35.6	301.110	-0.000	0.210	0.940
2020/01/31 10:40:35.7	301.100	0.000	0.180	0.920
2020/01/31 10:40:35.8	301.090	0.010	0.150	0.910
2020/01/31 10:40:35.9	301.070	0.020	0.120	0.890
2020/01/31 10:40:36.0	301.060	0.020	0.090	0.870
2020/01/31 10:40:36.1	301.050	0.030	0.060	0.850
2020/01/31 10:40:36.2	301.040	0.030	0.030	0.830
2020/01/31 10:40:36.3	301.030	0.040	-0.010	0.800
2020/01/31 10:40:36.4	301.030	0.040	-0.050	0.770
2020/01/31 10:40:36.5	301.020	0.050	-0.090	0.740
2020/01/31 10:40:36.6	301.010	0.050	-0.130	0.710
2020/01/31 10:40:36.7	301.010	0.050	-0.160	0.670
2020/01/31 10:40:36.8	301.000	0.060	-0.200	0.630
2020/01/31 10:40:36.9	301.000	0.060	-0.240	0.600
2020/01/31 10:40:37.0	301.000	0.060	-0.280	0.550
2020/01/31 10:40:37.1	301.000	0.060	-0.320	0.510
2020/01/31 10:40:37.2	301.000	0.060	-0.360	0.470
2020/01/31 10:40:37.3	301.000	0.060	-0.400	0.420
2020/01/31 10:40:37.4	301.010	0.060	-0.430	0.380
2020/01/31 10:40:37.5	301.010	0.050	-0.470	0.330
2020/01/31 10:40:37.6	301.020	0.050	-0.500	0.280
2020/01/31 10:40:37.7	301.020	0.050	-0.540	0.240
2020/01/31 10:40:37.8	301.030	0.050	-0.570	0.190
2020/01/31 10:40:37.9	301.040	0.040	-0.600	0.140
2020/01/31 10:40:38.0	301.050	0.040	-0.620	0.100
2020/01/31 10:40:38.1	301.060	0.030	-0.650	0.050
2020/01/31 10:40:38.2	301.070	0.030	-0.670	0.010
2020/01/31 10:40:38.3	301.090	0.030	-0.690	-0.030
2020/01/31 10:40:38.4	301.100	0.020	-0.710	-0.070
2020/01/31 10:40:38.5	301.110	0.020	-0.730	-0.110
2020/01/31 10:40:38.6	301.130	0.020	-0.750	-0.140
2020/01/31 10:40:38.7	301.140	0.010	-0.760	-0.170
2020/01/31 10:40:38.8	301.150	0.010	-0.770	-0.200
2020/01/31 10:40:38.9	301.170	0.010	-0.770	-0.220
2020/01/31 10:40:39.0	301.180	0.010	-0.780	-0.240
2020/01/31 10:40:39.1	301.190	0.010	-0.780	-0.250
2020/01/31 10:40:39.2	301.200	0.000	-0.780	-0.260
2020/01/31 10:40:39.3	301.220	0.000	-0.780	-0.260
2020/01/31 10:40:39.4	301.220	0.000	-0.770	-0.260
2020/01/31 10:40:39.5	301.230	0.010	-0.770	-0.260
2020/01/31 10:40:39.6	301.240	0.010	-0.760	-0.250
2020/01/31 10:40:39.7	301.250	0.010	-0.750	-0.240
2020/01/31 10:40:39.8	301.260	0.010	-0.740	-0.220
2020/01/31 10:40:39.9	301.260	0.020	-0.730	-0.200
2020/01/31 10:40:40.0	301.270	0.020	-0.710	-0.180
2020/01/31 10:40:40.1	301.270	0.020	-0.700	-0.150
2020/01/31 10:40:40.2	301.280	0.030	-0.690	-0.120
2020/01/31 10:40:40.3	301.280	0.040	-0.670	-0.090
2020/01/31 10:40:40.4	301.290	0.040	-0.660	-0.050
2020/01/31 10:40:40.5	301.290	0.050	-0.640	-0.010
2020/01/31 10:40:40.6	301.300	0.060	-0.620	0.030
2020/01/31 10:40:40.7	301.300	0.070	-0.600	0.070
2020/01/31 10:40:40.8	301.300	0.070	-0.590	0.120
2020/01/31 10:40:40.9	301.300	0.080	-0.570	0.160
2020/01/31 10:40:41.0	301.300	0.090	-0.550	0.210
2020/01/31 10:40:41.1	301.300	0.100	-0.530	0.260
2020/01/31 10:40:41.2	301.300	0.110	-0.510	0.310
2020/01/31 10:40:41.3	301.300	0.130	-0.490	0.360
2020/01/31 10:40:41.4	301.300	0.140	-0.470	0.420
2020/01/31 10:40:41.5	301.300	0.150	-0.460	0.470
2020/01/31 10:40:41.6	301.300	0.160	-0.440	0.520
2020/01/31 10:40:41.7	301.290	0.170	-0.420	0.570
2020/01/31 10:40:41.8	301.290	0.180	-0.400	0.620
2020/01/31 10:40:41.9	301.290	0.190	-0.390	0.670
2020/01/31 10:40:42.0	301.290	0.200	-0.370	0.720
2020/01/31 10:40:42.1	301.280	0.220	-0.360	0.760
2020/01/31 10:40:42.2	301.280	0.230	-0.340	0.800
2020/01/31 10:40:42.3	301.280	0.240	-0.330	0.840
2020/01/31 10:40:42.4	301.270	0.250	-0.310	0.880
2020/01/31 10:40:42.5	301.270	0.250	-0.300	0.910
2020/01/31 10:40:42.6	301.270	0.260	-0.290	0.940
2020/01/31 10:40:42.7	301.270	0.270	-0.280	0.970
2020/01/31 10:40:42.8	301.270	0.280	-0.280	0.990
2020/01/31 10:40:42.9	301.270	0.280	-0.270	1.010
2020/01/31 10:40:43.0	301.270	0.290	-0.260	1.030
2020/01/31 10:40:43.1	301.270	0.290	-0.260	1.040
2020/01/31 10:40:43.2	301.270	0.300	-0.250	1.050
2020/01/31 10:40:43.3	301.270	0.300	-0.250	1.060
2020/01/31 10:40:43.4	301.270	0.300	-0.240	1.060
2020/01/31 10:40:43.5	301.270	0.300	-0.230	1.070
2020/01/31 10:40:43.6	301.280	0.300	-0.230	1.060
2020/01/31 10:40:43.7	301.280	0.300	-0.230	1.060
2020/01/31 10:40:43.8	301.280	0.300	-0.220	1.050
2020/01/31 10:40:43.9	301.280	0.290	-0.220	1.040
2020/01/31 10:40:44.0	301.280	0.290	-0.210	1.030
2020/01/31 10:40:44.1	301.290	0.280	-0.200	1.020
2020/01/31 10:40:44.2	301.290	0.280	-0.200	1.000
2020/01/31 10:40:44.3	301.290	0.270	-0.190	0.990
2020/01/31 10:40:44.4	301.290	0.260	-0.180	0.970
2020/01/31 10:40:44.5	301.290	0.250	-0.170	0.950
2020/01/31 10:40:44.6	301.290	0.230	-0.160	0.930
2020/01/31 10:40:44.7	301.290	0.220	-0.150	0.900
2020/01/31 10:40:44.8	301.290	0.210	-0.140	0.880
2020/01/31 10:40:44.9	301.290	0.190	-0.130	0.850
2020/01/31 10:40:45.0	301.280	0.170	-0.120	0.830
2020/01/31 10:40:45.1	301.280	0.160	-0.100	0.800
2020/01/31 10:40:45.2	301.280	0.140	-0.090	0.770
2020/01/31 10:40:45.3	301.270	0.120	-0.070	0.750
2020/01/31 10:40:45.4	301.260	0.100	-0.060	0.720
2020/01/31 10:40:45.5	301.250	0.080	-0.040	0.690
2020/01/31 10:40:45.6	301.250	0.050	-0.030	0.660
2020/01/31 10:40:45.7	301.240	0.030	-0.010	0.630
2020/01/31 10:40:45.8	301.230	0.010	0.010	0.600
2020/01/31 10:40:45.9	301.220	-0.010	0.030	0.580
2020/01/31 10:40:46.0	301.220	-0.040	0.040	0.540
2020/01/31 10:40:46.1	301.210	-0.060	0.060	0.510
2020/01/31 10:40:46.2	301.200	-0.080	0.080	0.480
2020/01/31 10:40:46.3	301.190	-0.100	0.090	0.450
2020/01/31 10:40:46.4	301.180	-0.120	0.110	0.420
2020/01/31 10:40:46.5	301.180	-0.150	0.120	0.390
2020/01/31 10:40:46.6	301.170	-0.170	0.140	0.360
2020/01/31 10:40:46.7	301.170	-0.190	0.150	0.320
2020/01/31 10:40:46.8	301.160	-0.200	0.160	0.290
2020/01/31 10:40:46.9	301.150	-0.220	0.170	0.260
2020/01/31 10:40:47.0	301.150	-0.240	0.180	0.230
2020/01/31 10:40:47.1	301.140	-0.260	0.190	0.200
2020/01/31 10:40:47.2	301.140	-0.270	0.200	0.170
2020/01/31 10:40:47.3	301.130	-0.280	0.210	0.140
2020/01/31 10:40:47.4	301.120	-0.300	0.210	0.120
2020/01/31 10:40:47.5	301.120	-0.310	0.220	0.090
2020/01/31 10:40:47.6	301.110	-0.320	0.220	0.070
2020/01/31 10:40:47.7	301.110	-0.320	0.220	0.040
2020/01/31 10:40:47.8	301.110	-0.330	0.220	0.020
2020/01/31 10:40:47.9	301.100	-0.340	0.220	-0.000
2020/01/31 10:40:48.0	301.100	-0.340	0.220	-0.020
2020/01/31 10:40:48.1	301.100	-0.340	0.210	-0.040
2020/01/31 10:40:48.2	301.100	-0.340	0.200	-0.060
2020/01/31 10:40:48.3	301.100	-0.340	0.190	-0.080
2020/01/31 10:40:48.4	301.090	-0.340	0.180	-0.100
2020/01/31 10:40:48.5	301.090	-0.340	0.160	-0.120
2020/01/31 10:40:48.6	301.090	-0.330	0.140	-0.130
2020/01/31 10:40:48.7	301.090	-0.330	0.120	-0.140
2020/01/31 10:40:48.8	301.100	-0.320	0.100	-0.160
2020/01/31 10:40:48.9	301.100	-0.320	0.080	-0.170
2020/01/31 10:40:49.0	301.100	-0.310	0.050	-0.170
2020/01/31 10:40:49.1	301.110	-0.300	0.020	-0.180
2020/01/31 10:40:49.2	301.110	-0.290	-0.000	-0.180
2020/01/31 10:40:49.3	301.120	-0.280	-0.030	-0.180
2020/01/31 10:40:49.4	301.120	-0.260	-0.070	-0.180
2020/01/31 10:40:49.5	301.130	-0.250	-0.100	-0.170
2020/01/31 10:40:49.6	301.130	-0.240	-0.130	-0.160
2020/01/31 10:40:49.7	301.140	-0.230	-0.170	-0.140
2020/01/31 10:40:49.8	301.150	-0.210	-0.200	-0.130
2020/01/31 10:40:49.9	301.150	-0.200	-0.240	-0.110
2020/01/31 10:40:50.0	301.160	-0.180	-0.270	-0.080
2020/01/31 10:40:50.1	301.160	-0.170	-0.310	-0.060
2020/01/31 10:40:50.2	301.160	-0.160	-0.340	-0.030
2020/01/31 10:40:50.3	301.170	-0.140	-0.370	0.000
2020/01/31 10:40:50.4	301.180	-0.130	-0.410	0.030
2020/01/31 10:40:50.5	301.180	-0.110	-0.440	0.070
2020/01/31 10:40:50.6	301.180	-0.100	-0.470	0.100
2020/01/31 10:40:50.7	301.180	-0.080	-0.500	0.140
2020/01/31 10:40:50.8	301.190	-0.070	-0.530	0.170
2020/01/31 10:40:50.9	301.190	-0.060	-0.560	0.210
2020/01/31 10:40:51.0	301.190	-0.040	-0.590	0.250
2020/01/31 10:40:51.1	301.190	-0.030	-0.610	0.280
2020/01/31 10:40:51.2	301.190	-0.020	-0.630	0.320
2020/01/31 10:40:51.3	301.190	-0.010	-0.660	0.360
2020/01/31 10:40:51.4	301.190	0.000	-0.670	0.400
2020/01/31 10:40:51.5	301.190	0.020	-0.690	0.440
2020/01/31 10:40:51.6	301.190	0.030	-0.700	0.470
2020/01/31 10:40:51.7	301.180	0.040	-0.720	0.510
2020/01/31 10:40:51.8	301.180	0.050	-0.730	0.550
2020/01/31 10:40:51.9	301.170	0.060	-0.740	0.590
2020/01/31 10:40:52.0	301.170	0.070	-0.740	0.620
2020/01/31 10:40:52.1	301.160	0.070	-0.750	0.660
2020/01/31 10:40:52.2	301.160	0.080	-0.750	0.690
2020/01/31 10:40:52.3	301.150	0.090	-0.750	0.720
2020/01/31 10:40:52.4	301.150	0.100	-0.750	0.750
2020/01/31 10:40:52.5	301.140	0.110	-0.750	0.780
2020/01/31 10:40:52.6	301.140	0.110	-0.750	0.810
2020/01/31 10:40:52.7	301.130	0.120	-0.750	0.830
2020/01/31 10:40:52.8	301.130	0.120	-0.740	0.850
2020/01/31 10:40:52.9	301.120	0.130	-0.740	0.880
2020/01/31 10:40:53.0	301.120	0.130	-0.730	0.890
2020/01/31 10:40:53.1	301.120	0.140	-0.720	0.910
2020/01/31 10:40:53.2	301.120	0.140	-0.710	0.930
2020/01/31 10:40:53.3	301.120	0.150	-0.700	0.940
2020/01/31 10:40:53.4	301.110	0.150	-0.690	0.960
2020/01/31 10:40:53.5	301.110	0.150	-0.680	0.970
2020/01/31 10:40:53.6	301.110	0.150	-0.670	0.980
2020/01/31 10:40:53.7	301.110	0.150	-0.650	0.990
2020/01/31 10:40:53.8	301.120	0.160	-0.640	0.990
2020/01/31 10:40:53.9	301.120	0.160	-0.620	1.000
2020/01/31 10:40:54.0	301.120	0.160	-0.600	1.000
2020/01/31 10:40:54.1	301.120	0.150	-0.580	1.000
2020/01/31 10:40:54.2	301.130	0.150	-0.560	1.000
2020/01/31 10:40:54.3	301.130	0.150	-0.540	1.000
2020/01/31 10:40:54.4	301.130	0.150	-0.510	1.000
2020/01/31 10:40:54.5	301.140	0.150	-0.490	1.000
2020/01/31 10:40:54.6	301.140	0.140	-0.460	0.990
2020/01/31 10:40:54.7	301.140	0.140	-0.440	0.980
2020/01/31 10:40:54.8	301.150	0.130	-0.410	0.980
2020/01/31 10:40:54.9	301.150	0.130	-0.380	0.970
2020/01/31 10:40:55.0	301.150	0.120	-0.350	0.960
2020/01/31 10:40:55.1	301.150	0.120	-0.310	0.940
2020/01/31 10:40:55.2	301.150	0.110	-0.280	0.930
2020/01/31 10:40:55.3	301.150	0.110	-0.240	0.920
2020/01/31 10:40:55.4	301.150	0.100	-0.210	0.910
2020/01/31 10:40:55.5	301.150	0.090	-0.170	0.890
2020/01/31 10:40:55.6	301.140	0.090	-0.130	0.880
2020/01/31 10:40:55.7	301.140	0.080	-0.090	0.860
2020/01/31 10:40:55.8	301.130	0.070	-0.060	0.840
2020/01/31 10:40:55.9	301.120	0.070	-0.020	0.830
2020/01/31 10:40:56.0	301.110	0.060	0.020	0.810
2020/01/31 10:40:56.1	301.110	0.050	0.060	0.790
2020/01/31 10:40:56.2	301.100	0.050	0.090	0.770
2020/01/31 10:40:56.3	301.090	0.040	0.130	0.750
2020/01/31 10:40:56.4	301.080	0.030	0.160	0.720
2020/01/31 10:40:56.5	301.070	0.020	0.190	0.700
2020/01/31 10:40:56.6	301.060	0.020	0.220	0.680
2020/01/31 10:40:56.7	301.050	0.010	0.250	0.650
2020/01/31 10:40:56.8	301.040	0.000	0.270	0.630
2020/01/31 10:40:56.9	301.030	-0.000	0.290	0.600
2020/01/31 10:40:57.0	301.030	-0.010	0.310	0.570
2020/01/31 10:40:57.1	301.020	-0.020	0.320	0.550
2020/01/31 10:40:57.2	301.010	-0.020	0.340	0.520
2020/01/31 10:40:57.3	301.000	-0.030	0.340	0.490
2020/01/31 10:40:57.4	300.990	-0.030	0.350	0.470
2020/01/31 10:40:57.5	300.980	-0.040	0.350	0.440
2020/01/31 10:40:57.6	300.980	-0.040	0.340	0.410
2020/01/31 10:40:57.7	300.970	-0.040	0.340	0.380
2020/01/31 10:40:57.8	300.960	-0.050	0.330	0.360
2020/01/31 10:40:57.9	300.960	-0.050	0.310	0.330
2020/01/31 10:40:58.0	300.950	-0.050	0.300	0.300
2020/01/31 10:40:58.1	300.950	-0.050	0.280	0.280
2020/01/31 10:40:58.2	300.950	-0.050	0.260	0.250
2020/01/31 10:40:58.3	300.940	-0.050	0.230	0.230
2020/01/31 10:40:58.4	300.940	-0.050	0.200	0.200
2020/01/31 10:40:58.5	300.940	-0.050	0.170	0.170
2020/01/31 10:40:58.6	300.940	-0.050	0.140	0.150
2020/01/31 10:40:58.7	300.940	-0.050	0.100	0.130
2020/01/31 10:40:58.8	300.940	-0.040	0.060	0.100
2020/01/31 10:40:58.9	300.950	-0.040	0.020	0.080
2020/01/31 10:40:59.0	300.950	-0.040	-0.010	0.060
2020/01/31 10:40:59.1	300.960	-0.030	-0.050	0.040
2020/01/31 10:40:59.2	300.970	-0.030	-0.090	0.020
2020/01/31 10:40:59.3	300.980	-0.030	-0.130	0.010
2020/01/31 10:40:59.4	300.990	-0.020	-0.180	-0.010
2020/01/31 10:40:59.5	301.000	-0.020	-0.220	-0.030
2020/01/31 10:40:59.6	301.010	-0.020	-0.250	-0.040
2020/01/31 10:40:59.7	301.030	-0.010	-0.290	-0.050
2020/01/31 10:40:59.8	301.040	-0.010	-0.320	-0.060
2020/01/31 10:40:59.9	301.060	-0.010	-0.360	-0.060
2020/01/31 10:41:00.0	301.070	-0.000	-0.390	-0.070
2020/01/31 10:41:00.1	301.090	-0.000	-0.410	-0.070
2020/01/31 10:41:00.2	301.100	0.000	-0.440	-0.070
2020/01/31 10:41:00.3	301.120	0.000	-0.460	-0.060
2020/01/31 10:41:00.4	301.130	0.000	-0.480	-0.060
2020/01/31 10:41:00.5	301.150	0.010	-0.490	-0.050
2020/01/31 10:41:00.6	301.160	0.010	-0.510	-0.030
2020/01/31 10:41:00.7	301.170	0.010	-0.510	-0.020
2020/01/31 10:41:00.8	301.180	0.010	-0.520	-0.000
2020/01/31 10:41:00.9	301.190	0.010	-0.520	0.020
2020/01/31 10:41:01.0	301.200	0.000	-0.520	0.040
2020/01/31 10:41:01.1	301.200	0.000	-0.510	0.070
2020/01/31 10:41:01.2	301.210	0.000	-0.500	0.100
2020/01/31 10:41:01.3	301.210	0.000	-0.490	0.130
2020/01/31 10:41:01.4	301.220	-0.000	-0.480	0.160
2020/01/31 10:41:01.5	301.220	-0.000	-0.460	0.200
2020/01/31 10:41:01.6	301.220	-0.000	-0.440	0.230
2020/01/31 10:41:01.7	301.210	-0.010	-0.430	0.260
2020/01/31 10:41:01.8	301.210	-0.010	-0.410	0.300
2020/01/31 10:41:01.9	301.210	-0.010	-0.390	0.340
2020/01/31 10:41:02.0	301.210	-0.010	-0.370	0.370
2020/01/31 10:41:02.1	301.200	-0.010	-0.350	0.400
2020/01/31 10:41:02.2	301.200	-0.010	-0.330	0.440
2020/01/31 10:41:02.3	301.200	-0.010	-0.320	0.470
2020/01/31 10:41:02.4	301.200	-0.000	-0.300	0.500
2020/01/31 10:41:02.5	301.190	-0.000	-0.290	0.530
2020/01/31 10:41:02.6	301.190	0.000	-0.280	0.550
2020/01/31 10:41:02.7	301.190	0.000	-0.280	0.570
2020/01/31 10:41:02.8	301.190	0.010	-0.270	0.600
2020/01/31 10:41:02.9	301.190	0.010	-0.270	0.610
2020/01/31 10:41:03.0	301.190	0.020	-0.270	0.630
2020/01/31 10:41:03.1	301.200	0.030	-0.270	0.650
2020/01/31 10:41:03.2	301.200	0.030	-0.280	0.660
2020/01/31 10:41:03.3	301.200	0.040	-0.290	0.670
2020/01/31 10:41:03.4	301.200	0.050	-0.300	0.670
2020/01/31 10:41:03.5	301.200	0.060	-0.320	0.680
2020/01/31 10:41:03.6	301.210	0.060	-0.330	0.680
2020/01/31 10:41:03.7	301.210	0.070	-0.350	0.680
2020/01/31 10:41:03.8	301.210	0.080	-0.370	0.680
2020/01/31 10:41:03.9	301.220	0.090	-0.390	0.680
2020/01/31 10:41:04.0	301.220	0.100	-0.410	0.670
2020/01/31 10:41:04.1	301.220	0.100	-0.430	0.670
2020/01/31 10:41:04.2	301.220	0.110	-0.450	0.660
2020/01/31 10:41:04.3	301.220	0.120	-0.470	0.660
2020/01/31 10:41:04.4	301.210	0.120	-0.490	0.650
2020/01/31 10:41:04.5	301.200	0.130	-0.510	0.640
2020/01/31 10:41:04.6	301.200	0.130	-0.530	0.630
2020/01/31 10:41:04.7	301.190	0.130	-0.540	0.630
2020/01/31 10:41:04.8	301.180	0.130	-0.560	0.620
2020/01/31 10:41:04.9	301.170	0.130	-0.570	0.610
2020/01/31 10:41:05.0	301.160	0.130	-0.580	0.600
2020/01/31 10:41:05.1	301.150	0.120	-0.590	0.590
2020/01/31 10:41:05.2	301.130	0.120	-0.590	0.580
2020/01/31 10:41:05.3	301.120	0.110	-0.590	0.570
2020/01/31 10:41:05.4	301.100	0.100	-0.590	0.560
2020/01/31 10:41:05.5	301.090	0.090	-0.590	0.550
2020/01/31 10:41:05.6	301.070	0.080	-0.590	0.540
2020/01/31 10:41:05.7	301.060	0.060	-0.580	0.530
2020/01/31 10:41:05.8	301.040	0.050	-0.570	0.520
2020/01/31 10:41:05.9	301.020	0.030	-0.560	0.510
2020/01/31 10:41:06.0	301.010	0.010	-0.540	0.500
2020/01/31 10:41:06.1	300.990	-0.010	-0.520	0.480
2020/01/31 10:41:06.2	300.980	-0.030	-0.510	0.470
2020/01/31 10:41:06.3	300.960	-0.050	-0.490	0.460
2020/01/31 10:41:06.4	300.950	-0.070	-0.460	0.450
2020/01/31 10:41:06.5	300.940	-0.090	-0.440	0.440
2020/01/31 10:41:06.6	300.920	-0.120	-0.410	0.420
2020/01/31 10:41:06.7	300.910	-0.140	-0.390	0.410
2020/01/31 10:41:06.8	300.900	-0.160	-0.360	0.400
2020/01/31 10:41:06.9	300.880	-0.190	-0.330	0.390
2020/01/31 10:41:07.0	300.870	-0.210	-0.300	0.380
2020/01/31 10:41:07.1	300.860	-0.240	-0.270	0.370
2020/01/31 10:41:07.2	300.840	-0.260	-0.240	0.360
2020/01/31 10:41:07.3	300.830	-0.290	-0.210	0.350
2020/01/31 10:41:07.4	300.820	-0.310	-0.170	0.340
2020/01/31 10:41:07.5	300.800	-0.330	-0.140	0.340
2020/01/31 10:41:07.6	300.790	-0.350	-0.110	0.330
2020/01/31 10:41:07.7	300.780	-0.380	-0.080	0.320
2020/01/31 10:41:07.8	300.770	-0.400	-0.050	0.320
2020/01/31 10:41:07.9	300.750	-0.420	-0.020	0.310
2020/01/31 10:41:08.0	300.740	-0.430	0.010	0.310
2020/01/31 10:41:08.1	300.730	-0.450	0.040	0.300
2020/01/31 10:41:08.2	300.720	-0.460	0.070	0.300
2020/01/31 10:41:08.3	300.710	-0.480	0.090	0.300
2020/01/31 10:41:08.4	300.700	-0.490	0.120	0.290
2020/01/31 10:41:08.5	300.700	-0.500	0.140	0.290
2020/01/31 10:41:08.6	300.690	-0.500	0.160	0.290
2020/01/31 10:41:08.7	300.690	-0.510	0.180	0.290
2020/01/31 10:41:08.8	300.680	-0.510	0.190	0.290
2020/01/31 10:41:08.9	300.680	-0.510	0.200	0.290
2020/01/31 10:41:09.0	300.680	-0.500	0.210	0.290
2020/01/31 10:41:09.1	300.680	-0.500	0.220	0.290
2020/01/31 10:41:09.2	300.690	-0.490	0.220	0.290
2020/01/31 10:41:09.3	300.690	-0.480	0.220	0.300
2020/01/31 10:41:09.4	300.700	-0.470	0.220	0.300
2020/01/31 10:41:09.5	300.700	-0.450	0.210	0.300
2020/01/31 10:41:09.6	300.710	-0.430	0.210	0.300
2020/01/31 10:41:09.7	300.720	-0.410	0.200	0.310
2020/01/31 10:41:09.8	300.730	-0.390	0.190	0.320
2020/01/31 10:41:09.9	300.740	-0.360	0.170	0.320
2020/01/31 10:41:10.0	300.750	-0.330	0.160	0.330
2020/01/31 10:41:10.1	300.760	-0.300	0.140	0.340
2020/01/31 10:41:10.2	300.770	-0.270	0.120	0.350
2020/01/31 10:41:10.3	300.780	-0.240	0.110	0.360
2020/01/31 10:41:10.4	300.790	-0.200	0.090	0.380
2020/01/31 10:41:10.5	300.800	-0.170	0.070	0.390
2020/01/31 10:41:10.6	300.810	-0.130	0.050	0.410
2020/01/31 10:41:10.7	300.810	-0.090	0.030	0.420
2020/01/31 10:41:10.8	300.820	-0.060	0.010	0.440
2020/01/31 10:41:10.9	300.830	-0.020	-0.000	0.460
2020/01/31 10:41:11.0	300.830	0.020	-0.020	0.470
2020/01/31 10:41:11.1	300.840	0.060	-0.040	0.490
2020/01/31 10:41:11.2	300.840	0.100	-0.050	0.510
2020/01/31 10:41:11.3	300.850	0.130	-0.070	0.530
2020/01/31 10:41:11.4	300.860	0.170	-0.080	0.540
2020/01/31 10:41:11.5	300.860	0.200	-0.100	0.560
2020/01/31 10:41:11.6	300.860	0.230	-0.110	0.570
2020/01/31 10:41:11.7	300.870	0.270	-0.120	0.590
2020/01/31 10:41:11.8	300.870	0.300	-0.140	0.600
2020/01/31 10:41:11.9	300.870	0.320	-0.150	0.610
2020/01/31 10:41:12.0	300.870	0.350	-0.160	0.620
2020/01/31 10:41:12.1	300.880	0.370	-0.170	0.630
2020/01/31 10:41:12.2	300.880	0.400	-0.180	0.640
2020/01/31 10:41:12.3	300.880	0.420	-0.190	0.650
2020/01/31 10:41:12.4	300.880	0.430	-0.210	0.660
2020/01/31 10:41:12.5	300.880	0.450	-0.220	0.660
2020/01/31 10:41:12.6	300.880	0.460	-0.230	0.660
2020/01/31 10:41:12.7	300.890	0.470	-0.240	0.670
2020/01/31 10:41:12.8	300.890	0.480	-0.250	0.670
2020/01/31 10:41:12.9	300.890	0.490	-0.260	0.670
2020/01/31 10:41:13.0	300.900	0.490	-0.270	0.670
2020/01/31 10:41:13.1	300.900	0.500	-0.280	0.660
2020/01/31 10:41:13.2	300.900	0.500	-0.290	0.660
2020/01/31 10:41:13.3	300.910	0.500	-0.300	0.660
2020/01/31 10:41:13.4	300.920	0.490	-0.320	0.660
2020/01/31 10:41:13.5	300.920	0.490	-0.330	0.650
2020/01/31 10:41:13.6	300.930	0.490	-0.350	0.650
2020/01/31 10:41:13.7	300.940	0.480	-0.360	0.640
2020/01/31 10:41:13.8	300.950	0.470	-0.370	0.630
2020/01/31 10:41:13.9	300.950	0.470	-0.390	0.630
2020/01/31 10:41:14.0	300.960	0.460	-0.400	0.620
2020/01/31 10:41:14.1	300.970	0.450	-0.410	0.610
2020/01/31 10:41:14.2	300.980	0.440	-0.430	0.610
2020/01/31 10:41:14.3	300.990	0.420	-0.440	0.610
2020/01/31 10:41:14.4	300.990	0.410	-0.450	0.600
2020/01/31 10:41:14.5	301.000	0.400	-0.460	0.600
2020/01/31 10:41:14.6	301.010	0.390	-0.470	0.600
2020/01/31 10:41:14.7	301.010	0.380	-0.480	0.600
2020/01/31 10:41:14.8	301.020	0.360	-0.490	0.600
2020/01/31 10:41:14.9	301.020	0.350	-0.500	0.600
2020/01/31 10:41:15.0	301.030	0.340	-0.510	0.600
2020/01/31 10:41:15.1	301.030	0.320	-0.510	0.600
2020/01/31 10:41:15.2	301.030	0.310	-0.520	0.610
2020/01/31 10:41:15.3	301.030	0.300	-0.520	0.610
2020/01/31 10:41:15.4	301.040	0.280	-0.530	0.620
2020/01/31 10:41:15.5	301.040	0.270	-0.530	0.630
2020/01/31 10:41:15.6	301.030	0.260	-0.540	0.630
2020/01/31 10:41:15.7	301.030	0.240	-0.540	0.640
2020/01/31 10:41:15.8	301.030	0.230	-0.540	0.640
2020/01/31 10:41:15.9	301.020	0.210	-0.550	0.650
2020/01/31 10:41:16.0	301.020	0.200	-0.550	0.650
2020/01/31 10:41:16.1	301.010	0.190	-0.550	0.650
2020/01/31 10:41:16.2	301.000	0.170	-0.560	0.650
2020/01/31 10:41:16.3	301.000	0.160	-0.560	0.650
2020/01/31 10:41:16.4	300.990	0.140	-0.560	0.650
2020/01/31 10:41:16.5	300.980	0.130	-0.560	0.640
2020/01/31 10:41:16.6	300.980	0.110	-0.570	0.630
2020/01/31 10:41:16.7	300.970	0.100	-0.570	0.630
2020/01/31 10:41:16.8	300.960	0.080	-0.560	0.620
2020/01/31 10:41:16.9	300.960	0.070	-0.560	0.610
2020/01/31 10:41:17.0	300.950	0.050	-0.560	0.600
2020/01/31 10:41:17.1	300.950	0.040	-0.560	0.590
2020/01/31 10:41:17.2	300.940	0.020	-0.550	0.580
2020/01/31 10:41:17.3	300.940	0.000	-0.540	0.560
2020/01/31 10:41:17.4	300.930	-0.020	-0.540	0.550
2020/01/31 10:41:17.5	300.930	-0.030	-0.530	0.540
2020/01/31 10:41:17.6	300.920	-0.050	-0.510	0.530
2020/01/31 10:41:17.7	300.920	-0.070	-0.500	0.510
2020/01/31 10:41:17.8	300.910	-0.090	-0.480	0.500
2020/01/31 10:41:17.9	300.900	-0.110	-0.460	0.490
2020/01/31 10:41:18.0	300.900	-0.130	-0.440	0.480
2020/01/31 10:41:18.1	300.890	-0.150	-0.420	0.470
2020/01/31 10:41:18.2	300.880	-0.180	-0.400	0.470
2020/01/31 10:41:18.3	300.870	-0.200	-0.370	0.460
2020/01/31 10:41:18.4	300.860	-0.220	-0.340	0.460
2020/01/31 10:41:18.5	300.850	-0.240	-0.310	0.460
2020/01/31 10:41:18.6	300.830	-0.270	-0.280	0.460
2020/01/31 10:41:18.7	300.820	-0.290	-0.250	0.460
2020/01/31 10:41:18.8	300.800	-0.310	-0.220	0.470
2020/01/31 10:41:18.9	300.780	-0.330	-0.180	0.470
2020/01/31 10:41:19.0	300.770	-0.360	-0.150	0.480
2020/01/31 10:41:19.1	300.750	-0.380	-0.110	0.480
2020/01/31 10:41:19.2	300.730	-0.400	-0.080	0.490
2020/01/31 10:41:19.3	300.710	-0.420	-0.050	0.500
2020/01/31 10:41:19.4	300.690	-0.450	-0.020	0.510
2020/01/31 10:41:19.5	300.670	-0.470	0.010	0.520
2020/01/31 10:41:19.6	300.650	-0.480	0.040	0.520
2020/01/31 10:41:19.7	300.630	-0.500	0.070	0.530
2020/01/31 10:41:19.8	300.610	-0.520	0.090	0.540
2020/01/31 10:41:19.9	300.590	-0.530	0.110	0.540
2020/01/31 10:41:20.0	300.570	-0.550	0.130	0.540
2020/01/31 10:41:20.1	300.550	-0.560	0.140	0.550
2020/01/31 10:41:20.2	300.530	-0.570	0.150	0.550
2020/01/31 10:41:20.3	300.510	-0.580	0.160	0.550
2020/01/31 10:41:20.4	300.490	-0.580	0.160	0.550
2020/01/31 10:41:20.5	300.470	-0.590	0.160	0.540
2020/01/31 10:41:20.6	300.450	-0.590	0.160	0.540
2020/01/31 10:41:20.7	300.440	-0.590	0.150	0.530
2020/01/31 10:41:20.8	300.420	-0.580	0.140	0.530
2020/01/31 10:41:20.9	300.400	-0.580	0.130	0.520
2020/01/31 10:41:21.0	300.390	-0.570	0.110	0.510
2020/01/31 10:41:21.1	300.380	-0.560	0.090	0.500
2020/01/31 10:41:21.2	300.370	-0.550	0.070	0.480
2020/01/31 10:41:21.3	300.360	-0.530	0.040	0.470
2020/01/31 10:41:21.4	300.350	-0.520	0.020	0.450
2020/01/31 10:41:21.5	300.350	-0.500	-0.010	0.440
2020/01/31 10:41:21.6	300.340	-0.480	-0.040	0.420
2020/01/31 10:41:21.7	300.340	-0.450	-0.080	0.400
2020/01/31 10:41:21.8	300.330	-0.430	-0.110	0.380
2020/01/31 10:41:21.9	300.330	-0.400	-0.140	0.360
2020/01/31 10:41:22.0	300.330	-0.370	-0.180	0.330
2020/01/31 10:41:22.1	300.330	-0.340	-0.210	0.310
2020/01/31 10:41:22.2	300.340	-0.300	-0.240	0.290
2020/01/31 10:41:22.3	300.340	-0.270	-0.280	0.260
2020/01/31 10:41:22.4	300.340	-0.230	-0.310	0.230
2020/01/31 10:41:22.5	300.350	-0.200	-0.340	0.210
2020/01/31 10:41:22.6	300.360	-0.160	-0.370	0.180
2020/01/31 10:41:22.7	300.370	-0.120	-0.400	0.160
2020/01/31 10:41:22.8	300.390	-0.090	-0.430	0.130
2020/01/31 10:41:22.9	300.410	-0.050	-0.450	0.110
2020/01/31 10:41:23.0	300.420	-0.010	-0.470	0.090
2020/01/31 10:41:23.1	300.440	0.020	-0.480	0.070
2020/01/31 10:41:23.2	300.460	0.060	-0.500	0.040
2020/01/31 10:41:23.3	300.490	0.100	-0.510	0.030
2020/01/31 10:41:23.4	300.510	0.130	-0.520	0.010
2020/01/31 10:41:23.5	300.530	0.160	-0.520	-0.010
2020/01/31 10:41:23.6	300.560	0.200	-0.520	-0.020
2020/01/31 10:41:23.7	300.590	0.230	-0.520	-0.030
2020/01/31 10:41:23.8	300.610	0.250	-0.510	-0.040
2020/01/31 10:41:23.9	300.640	0.280	-0.500	-0.040
2020/01/31 10:41:24.0	300.660	0.300	-0.490	-0.040
2020/01/31 10:41:24.1	300.690	0.330	-0.480	-0.040
2020/01/31 10:41:24.2	300.720	0.340	-0.460	-0.040
2020/01/31 10:41:24.3	300.740	0.360	-0.440	-0.030
2020/01/31 10:41:24.4	300.770	0.380	-0.410	-0.020
2020/01/31 10:41:24.5	300.800	0.390	-0.390	-0.010
2020/01/31 10:41:24.6	300.820	0.400	-0.360	0.010
2020/01/31 10:41:24.7	300.850	0.410	-0.330	0.020
2020/01/31 10:41:24.8	300.870	0.410	-0.310	0.040
2020/01/31 10:41:24.9	300.890	0.420	-0.280	0.070
2020/01/31 10:41:25.0	300.910	0.420	-0.250	0.090
2020/01/31 10:41:25.1	300.930	0.420	-0.220	0.120
2020/01/31 10:41:25.2	300.950	0.410	-0.190	0.150
2020/01/31 10:41:25.3	300.970	0.410	-0.160	0.190
2020/01/31 10:41:25.4	300.990	0.400	-0.120	0.220
2020/01/31 10:41:25.5	301.010	0.390	-0.100	0.250
2020/01/31 10:41:25.6	301.020	0.380	-0.070	0.290
2020/01/31 10:41:25.7	301.030	0.370	-0.040	0.330
2020/01/31 10:41:25.8	301.040	0.360	-0.010	0.370
2020/01/31 10:41:25.9	301.050	0.350	0.010	0.410
2020/01/31 10:41:26.0	301.050	0.330	0.030	0.450
2020/01/31 10:41:26.1	301.060	0.320	0.050	0.490
2020/01/31 10:41:26.2	301.060	0.310	0.070	0.530
2020/01/31 10:41:26.3	301.060	0.290	0.080	0.570
2020/01/31 10:41:26.4	301.060	0.280	0.090	0.610
2020/01/31 10:41:26.5	301.050	0.260	0.100	0.650
2020/01/31 10:41:26.6	301.050	0.250	0.110	0.690
2020/01/31 10:41:26.7	301.050	0.230	0.110	0.730
2020/01/31 10:41:26.8	301.040	0.220	0.110	0.770
2020/01/31 10:41:26.9	301.040	0.200	0.110	0.800
2020/01/31 10:41:27.0	301.030	0.190	0.100	0.830
2020/01/31 10:41:27.1	301.020	0.180	0.090	0.860
2020/01/31 10:41:27.2	301.010	0.160	0.080	0.890
2020/01/31 10:41:27.3	301.000	0.150	0.070	0.920
2020/01/31 10:41:27.4	300.990	0.140	0.050	0.940
2020/01/31 10:41:27.5	300.980	0.130	0.030	0.960
2020/01/31 10:41:27.6	300.970	0.120	0.010	0.980
2020/01/31 10:41:27.7	300.960	0.110	-0.010	0.990
2020/01/31 10:41:27.8	300.950	0.100	-0.040	1.000
2020/01/31 10:41:27.9	300.930	0.100	-0.060	1.010
2020/01/31 10:41:28.0	300.920	0.090	-0.090	1.010
2020/01/31 10:41:28.1	300.900	0.080	-0.120	1.010
2020/01/31 10:41:28.2	300.890	0.080	-0.150	1.010
2020/01/31 10:41:28.3	300.870	0.070	-0.180	1.000
2020/01/31 10:41:28.4	300.860	0.060	-0.210	0.990
2020/01/31 10:41:28.5	300.850	0.060	-0.240	0.980
2020/01/31 10:41:28.6	300.830	0.050	-0.270	0.960
2020/01/31 10:41:28.7	300.820	0.050	-0.300	0.930
2020/01/31 10:41:28.8	300.810	0.040	-0.330	0.910
2020/01/31 10:41:28.9	300.790	0.030	-0.360	0.880
2020/01/31 10:41:29.0	300.780	0.030	-0.390	0.850
2020/01/31 10:41:29.1	300.770	0.020	-0.410	0.820
2020/01/31 10:41:29.2	300.750	0.010	-0.440	0.780
2020/01/31 10:41:29.3	300.740	0.010	-0.460	0.740
2020/01/31 10:41:29.4	300.730	-0.000	-0.480	0.700
2020/01/31 10:41:29.5	300.720	-0.010	-0.500	0.660
2020/01/31 10:41:29.6	300.710	-0.020	-0.510	0.620
2020/01/31 10:41:29.7	300.700	-0.030	-0.530	0.580
2020/01/31 10:41:29.8	300.690	-0.040	-0.540	0.540
2020/01/31 10:41:29.9	300.670	-0.040	-0.550	0.500
2020/01/31 10:41:30.0	300.660	-0.050	-0.550	0.460
2020/01/31 10:41:30.1	300.650	-0.060	-0.550	0.430
2020/01/31 10:41:30.2	300.630	-0.070	-0.550	0.390
2020/01/31 10:41:30.3	300.620	-0.080	-0.550	0.350
2020/01/31 10:41:30.4	300.610	-0.090	-0.550	0.310
2020/01/31 10:41:30.5	300.600	-0.100	-0.540	0.280
2020/01/31 10:41:30.6	300.590	-0.110	-0.520	0.240
2020/01/31 10:41:30.7	300.570	-0.120	-0.510	0.210
2020/01/31 10:41:30.8	300.560	-0.130	-0.490	0.170
2020/01/31 10:41:30.9	300.550	-0.140	-0.480	0.140
2020/01/31 10:41:31.0	300.540	-0.150	-0.450	0.110
2020/01/31 10:41:31.1	300.520	-0.160	-0.430	0.080
2020/01/31 10:41:31.2	300.510	-0.170	-0.410	0.050
2020/01/31 10:41:31.3	300.500	-0.170	-0.390	0.030
2020/01/31 10:41:31.4	300.490	-0.180	-0.360	0.000
2020/01/31 10:41:31.5	300.480	-0.190	-0.330	-0.020
2020/01/31 10:41:31.6	300.470	-0.190	-0.310	-0.040
2020/01/31 10:41:31.7	300.460	-0.200	-0.290	-0.060
2020/01/31 10:41:31.8	300.450	-0.200	-0.260	-0.080
2020/01/31 10:41:31.9	300.450	-0.210	-0.240	-0.100
2020/01/31 10:41:32.0	300.440	-0.210	-0.220	-0.120
2020/01/31 10:41:32.1	300.440	-0.210	-0.200	-0.130
2020/01/31 10:41:32.2	300.430	-0.210	-0.180	-0.140
2020/01/31 10:41:32.3	300.430	-0.210	-0.160	-0.150
2020/01/31 10:41:32.4	300.430	-0.220	-0.150	-0.160
2020/01/31 10:41:32.5	300.430	-0.210	-0.140	-0.160
2020/01/31 10:41:32.6	300.440	-0.210	-0.130	-0.170
2020/01/31 10:41:32.7	300.440	-0.210	-0.120	-0.170
2020/01/31 10:41:32.8	300.440	-0.210	-0.110	-0.170
2020/01/31 10:41:32.9	300.450	-0.210	-0.110	-0.160
2020/01/31 10:41:33.0	300.450	-0.200	-0.100	-0.160
2020/01/31 10:41:33.1	300.460	-0.200	-0.100	-0.150
2020/01/31 10:41:33.2	300.460	-0.200	-0.100	-0.140
2020/01/31 10:41:33.3	300.470	-0.190	-0.100	-0.120
2020/01/31 10:41:33.4	300.480	-0.180	-0.110	-0.100
2020/01/31 10:41:33.5	300.480	-0.180	-0.110	-0.080
2020/01/31 10:41:33.6	300.490	-0.170	-0.110	-0.060
2020/01/31 10:41:33.7	300.490	-0.160	-0.120	-0.040
2020/01/31 10:41:33.8	300.500	-0.160	-0.130	-0.010
2020/01/31 10:41:33.9	300.500	-0.150	-0.140	0.020
2020/01/31 10:41:34.0	300.510	-0.140	-0.140	0.050
2020/01/31 10:41:34.1	300.520	-0.130	-0.150	0.090
2020/01/31 10:41:34.2	300.520	-0.120	-0.160	0.120
2020/01/31 10:41:34.3	300.530	-0.110	-0.180	0.160
2020/01/31 10:41:34.4	300.540	-0.090	-0.180	0.190
2020/01/31 10:41:34.5	300.540	-0.080	-0.200	0.230
2020/01/31 10:41:34.6	300.550	-0.070	-0.210	0.260
2020/01/31 10:41:34.7	300.560	-0.060	-0.230	0.300
2020/01/31 10:41:34.8	300.570	-0.040	-0.240	0.330
2020/01/31 10:41:34.9	300.580	-0.030	-0.260	0.360
2020/01/31 10:41:35.0	300.590	-0.020	-0.270	0.390
2020/01/31 10:41:35.1	300.600	-0.000	-0.290	0.420
2020/01/31 10:41:35.2	300.620	0.010	-0.310	0.440
2020/01/31 10:41:35.3	300.630	0.030	-0.330	0.470
2020/01/31 10:41:35.4	300.650	0.040	-0.340	0.490
2020/01/31 10:41:35.5	300.670	0.060	-0.360	0.510
2020/01/31 10:41:35.6	300.690	0.070	-0.380	0.530
2020/01/31 10:41:35.7	300.710	0.090	-0.400	0.550
2020/01/31 10:41:35.8	300.730	0.100	-0.420	0.570
2020/01/31 10:41:35.9	300.750	0.120	-0.430	0.580
2020/01/31 10:41:36.0	300.770	0.130	-0.450	0.600
2020/01/31 10:41:36.1	300.790	0.140	-0.460	0.610
2020/01/31 10:41:36.2	300.820	0.160	-0.480	0.620
2020/01/31 10:41:36.3	300.840	0.170	-0.490	0.630
2020/01/31 10:41:36.4	300.860	0.180	-0.490	0.640
2020/01/31 10:41:36.5	300.880	0.190	-0.500	0.650
2020/01/31 10:41:36.6	300.900	0.200	-0.510	0.650
2020/01/31 10:41:36.7	300.920	0.210	-0.510	0.660
2020/01/31 10:41:36.8	300.940	0.220	-0.520	0.660
2020/01/31 10:41:36.9	300.960	0.220	-0.520	0.670
2020/01/31 10:41:37.0	300.980	0.230	-0.520	0.670
2020/01/31 10:41:37.1	301.000	0.230	-0.510	0.670
2020/01/31 10:41:37.2	301.010	0.240	-0.510	0.670
2020/01/31 10:41:37.3	301.030	0.240	-0.500	0.660
2020/01/31 10:41:37.4	301.050	0.240	-0.500	0.660
2020/01/31 10:41:37.5	301.060	0.240	-0.480	0.660
2020/01/31 10:41:37.6	301.080	0.230	-0.470	0.650
2020/01/31 10:41:37.7	301.090	0.230	-0.460	0.640
2020/01/31 10:41:37.8	301.110	0.220	-0.440	0.630
2020/01/31 10:41:37.9	301.120	0.220	-0.430	0.610
2020/01/31 10:41:38.0	301.140	0.210	-0.410	0.600
2020/01/31 10:41:38.1	301.150	0.200	-0.390	0.590
2020/01/31 10:41:38.2	301.160	0.190	-0.370	0.570
2020/01/31 10:41:38.3	301.180	0.180	-0.350	0.550
2020/01/31 10:41:38.4	301.190	0.160	-0.330	0.530
2020/01/31 10:41:38.5	301.200	0.150	-0.310	0.510
2020/01/31 10:41:38.6	301.220	0.130	-0.290	0.490
2020/01/31 10:41:38.7	301.230	0.120	-0.270	0.460
2020/01/31 10:41:38.8	301.250	0.100	-0.250	0.440
2020/01/31 10:41:38.9	301.260	0.080	-0.230	0.420
2020/01/31 10:41:39.0	301.270	0.060	-0.220	0.390
2020/01/31 10:41:39.1	301.290	0.040	-0.200	0.370
2020/01/31 10:41:39.2	301.300	0.020	-0.180	0.340
2020/01/31 10:41:39.3	301.310	0.000	-0.160	0.320
2020/01/31 10:41:39.4	301.320	-0.020	-0.150	0.300
2020/01/31 10:41:39.5	301.330	-0.040	-0.130	0.280
2020/01/31 10:41:39.6	301.340	-0.060	-0.110	0.260
2020/01/31 10:41:39.7	301.340	-0.090	-0.100	0.240
2020/01/31 10:41:39.8	301.350	-0.110	-0.080	0.220
2020/01/31 10:41:39.9	301.350	-0.130	-0.070	0.210
2020/01/31 10:41:40.0	301.350	-0.150	-0.050	0.190
2020/01/31 10:41:40.1	301.350	-0.170	-0.040	0.180
2020/01/31 10:41:40.2	301.350	-0.190	-0.020	0.170
2020/01/31 10:41:40.3	301.350	-0.220	-0.010	0.170
2020/01/31 10:41:40.4	301.330	-0.240	0.000	0.160
2020/01/31 10:41:40.5	301.320	-0.250	0.010	0.150
2020/01/31 10:41:40.6	301.310	-0.270	0.020	0.150
2020/01/31 10:41:40.7	301.300	-0.290	0.040	0.150
2020/01/31 10:41:40.8	301.280	-0.300	0.050	0.150
2020/01/31 10:41:40.9	301.270	-0.320	0.060	0.150
2020/01/31 10:41:41.0	301.250	-0.330	0.070	0.150
2020/01/31 10:41:41.1	301.230	-0.340	0.070	0.150
2020/01/31 10:41:41.2	301.210	-0.350	0.080	0.150
2020/01/31 10:41:41.3	301.190	-0.360	0.090	0.160
2020/01/31 10:41:41.4	301.160	-0.370	0.090	0.160
2020/01/31 10:41:41.5	301.130	-0.370	0.100	0.170
2020/01/31 10:41:41.6	301.110	-0.380	0.100	0.170
2020/01/31 10:41:41.7	301.090	-0.380	0.100	0.180
2020/01/31 10:41:41.8	301.060	-0.380	0.100	0.180
2020/01/31 10:41:41.9	301.040	-0.380	0.100	0.190
2020/01/31 10:41:42.0	301.010	-0.370	0.090	0.190
2020/01/31 10:41:42.1	300.990	-0.360	0.090	0.200
2020/01/31 10:41:42.2	300.970	-0.360	0.080	0.200
2020/01/31 10:41:42.3	300.950	-0.350	0.070	0.210
2020/01/31 10:41:42.4	300.920	-0.330	0.060	0.210
2020/01/31 10:41:42.5	300.900	-0.320	0.050	0.220
2020/01/31 10:41:42.6	300.880	-0.300	0.040	0.230
2020/01/31 10:41:42.7	300.860	-0.280	0.030	0.230
2020/01/31 10:41:42.8	300.850	-0.260	0.010	0.240
2020/01/31 10:41:42.9	300.830	-0.240	-0.000	0.250
2020/01/31 10:41:43.0	300.810	-0.210	-0.020	0.250
2020/01/31 10:41:43.1	300.800	-0.190	-0.040	0.260
2020/01/31 10:41:43.2	300.790	-0.160	-0.060	0.270
2020/01/31 10:41:43.3	300.770	-0.130	-0.070	0.290
2020/01/31 10:41:43.4	300.760	-0.100	-0.100	0.300
2020/01/31 10:41:43.5	300.750	-0.070	-0.110	0.310
2020/01/31 10:41:43.6	300.740	-0.040	-0.130	0.330
2020/01/31 10:41:43.7	300.730	-0.000	-0.150	0.350
2020/01/31 10:41:43.8	300.720	0.030	-0.170	0.370
2020/01/31 10:41:43.9	300.710	0.060	-0.180	0.390
2020/01/31 10:41:44.0	300.700	0.100	-0.200	0.410
2020/01/31 10:41:44.1	300.700	0.130	-0.210	0.430
2020/01/31 10:41:44.2	300.690	0.170	-0.230	0.460
2020/01/31 10:41:44.3	300.680	0.200	-0.240	0.480
2020/01/31 10:41:44.4	300.680	0.240	-0.260	0.510
2020/01/31 10:41:44.5	300.670	0.270	-0.270	0.540
2020/01/31 10:41:44.6	300.670	0.300	-0.280	0.560
2020/01/31 10:41:44.7	300.660	0.330	-0.290	0.580
2020/01/31 10:41:44.8	300.660	0.360	-0.300	0.610
2020/01/31 10:41:44.9	300.660	0.390	-0.310	0.630
2020/01/31 10:41:45.0	300.660	0.420	-0.320	0.650
2020/01/31 10:41:45.1	300.660	0.440	-0.330	0.670
2020/01/31 10:41:45.2	300.660	0.470	-0.330	0.690
2020/01/31 10:41:45.3	300.660	0.490	-0.340	0.710
2020/01/31 10:41:45.4	300.670	0.510	-0.340	0.730
2020/01/31 10:41:45.5	300.670	0.530	-0.340	0.740
2020/01/31 10:41:45.6	300.680	0.540	-0.340	0.760
2020/01/31 10:41:45.7	300.690	0.550	-0.350	0.780
2020/01/31 10:41:45.8	300.690	0.560	-0.350	0.790
2020/01/31 10:41:45.9	300.700	0.570	-0.350	0.800
2020/01/31 10:41:46.0	300.710	0.580	-0.340	0.820
2020/01/31 10:41:46.1	300.720	0.580	-0.340	0.830
2020/01/31 10:41:46.2	300.730	0.580	-0.340	0.840
2020/01/31 10:41:46.3	300.740	0.580	-0.330	0.850
2020/01/31 10:41:46.4	300.750	0.570	-0.330	0.850
2020/01/31 10:41:46.5	300.760	0.570	-0.320	0.860
2020/01/31 10:41:46.6	300.770	0.560	-0.310	0.860
2020/01/31 10:41:46.7	300.780	0.540	-0.310	0.870
2020/01/31 10:41:46.8	300.790	0.530	-0.300	0.870
2020/01/31 10:41:46.9	300.800	0.510	-0.290	0.870
2020/01/31 10:41:47.0	300.810	0.490	-0.290	0.860
2020/01/31 10:41:47.1	300.830	0.470	-0.280	0.860
2020/01/31 10:41:47.2	300.840	0.440	-0.270	0.850
2020/01/31 10:41:47.3	300.850	0.420	-0.270	0.830
2020/01/31 10:41:47.4	300.870	0.390	-0.270	0.820
2020/01/31 10:41:47.5	300.880	0.360	-0.260	0.800
2020/01/31 10:41:47.6	300.900	0.330	-0.260	0.780
2020/01/31 10:41:47.7	300.910	0.300	-0.260	0.750
2020/01/31 10:41:47.8	300.930	0.260	-0.270	0.730
2020/01/31 10:41:47.9	300.940	0.230	-0.270	0.700
2020/01/31 10:41:48.0	300.960	0.200	-0.280	0.670
2020/01/31 10:41:48.1	300.970	0.160	-0.280	0.630
2020/01/31 10:41:48.2	300.990	0.130	-0.290	0.600
2020/01/31 10:41:48.3	301.000	0.090	-0.300	0.570
2020/01/31 10:41:48.4	301.030	0.060	-0.320	0.530
2020/01/31 10:41:48.5	301.040	0.020	-0.330	0.490
2020/01/31 10:41:48.6	301.060	-0.020	-0.350	0.450
2020/01/31 10:41:48.7	301.070	-0.050	-0.360	0.410
2020/01/31 10:41:48.8	301.080	-0.080	-0.380	0.380
2020/01/31 10:41:48.9	301.100	-0.120	-0.400	0.340
2020/01/31 10:41:49.0	301.110	-0.150	-0.420	0.300
2020/01/31 10:41:49.1	301.130	-0.180	-0.440	0.260
2020/01/31 10:41:49.2	301.140	-0.210	-0.460	0.230
2020/01/31 10:41:49.3	301.160	-0.240	-0.480	0.190
2020/01/31 10:41:49.4	301.170	-0.270	-0.490	0.160
2020/01/31 10:41:49.5	301.190	-0.300	-0.520	0.130
2020/01/31 10:41:49.6	301.200	-0.320	-0.540	0.090
2020/01/31 10:41:49.7	301.220	-0.340	-0.560	0.060
2020/01/31 10:41:49.8	301.230	-0.370	-0.570	0.030
2020/01/31 10:41:49.9	301.250	-0.390	-0.590	0.000
2020/01/31 10:41:50.0	301.260	-0.400	-0.610	-0.030
2020/01/31 10:41:50.1	301.280	-0.420	-0.630	-0.050
2020/01/31 10:41:50.2	301.290	-0.440	-0.640	-0.080
2020/01/31 10:41:50.3	301.310	-0.450	-0.660	-0.100
2020/01/31 10:41:50.4	301.320	-0.460	-0.680	-0.120
2020/01/31 10:41:50.5	301.330	-0.470	-0.690	-0.140
2020/01/31 10:41:50.6	301.350	-0.480	-0.700	-0.160
2020/01/31 10:41:50.7	301.360	-0.490	-0.710	-0.170
2020/01/31 10:41:50.8	301.370	-0.490	-0.720	-0.180
2020/01/31 10:41:50.9	301.380	-0.500	-0.720	-0.190
2020/01/31 10:41:51.0	301.390	-0.500	-0.720	-0.200
2020/01/31 10:41:51.1	301.400	-0.500	-0.720	-0.200
2020/01/31 10:41:51.2	301.410	-0.500	-0.720	-0.210
2020/01/31 10:41:51.3	301.420	-0.490	-0.710	-0.210
2020/01/31 10:41:51.4	301.420	-0.490	-0.710	-0.200
2020/01/31 10:41:51.5	301.420	-0.490	-0.700	-0.200
2020/01/31 10:41:51.6	301.420	-0.480	-0.680	-0.190
2020/01/31 10:41:51.7	301.410	-0.470	-0.670	-0.180
2020/01/31 10:41:51.8	301.410	-0.460	-0.650	-0.160
2020/01/31 10:41:51.9	301.400	-0.450	-0.630	-0.150
2020/01/31 10:41:52.0	301.390	-0.440	-0.610	-0.130
2020/01/31 10:41:52.1	301.380	-0.430	-0.580	-0.110
2020/01/31 10:41:52.2	301.370	-0.420	-0.550	-0.090
2020/01/31 10:41:52.3	301.360	-0.400	-0.520	-0.060
2020/01/31 10:41:52.4	301.340	-0.390	-0.490	-0.030
2020/01/31 10:41:52.5	301.330	-0.370	-0.460	-0.000
2020/01/31 10:41:52.6	301.310	-0.360	-0.420	0.030
2020/01/31 10:41:52.7	301.290	-0.340	-0.380	0.060
2020/01/31 10:41:52.8	301.270	-0.320	-0.340	0.090
2020/01/31 10:41:52.9	301.250	-0.310	-0.300	0.120
2020/01/31 10:41:53.0	301.220	-0.290	-0.260	0.160
2020/01/31 10:41:53.1	301.200	-0.270	-0.220	0.190
2020/01/31 10:41:53.2	301.180	-0.250	-0.170	0.220
2020/01/31 10:41:53.3	301.150	-0.230	-0.130	0.260
2020/01/31 10:41:53.4	301.130	-0.210	-0.090	0.290
2020/01/31 10:41:53.5	301.100	-0.190	-0.050	0.330
2020/01/31 10:41:53.6	301.080	-0.170	-0.010	0.370
2020/01/31 10:41:53.7	301.050	-0.150	0.040	0.400
2020/01/31 10:41:53.8	301.020	-0.130	0.080	0.440
2020/01/31 10:41:53.9	301.000	-0.110	0.120	0.470
2020/01/31 10:41:54.0	300.970	-0.090	0.160	0.500
2020/01/31 10:41:54.1	300.950	-0.080	0.190	0.540
2020/01/31 10:41:54.2	300.920	-0.060	0.230	0.570
2020/01/31 10:41:54.3	300.900	-0.040	0.260	0.600
2020/01/31 10:41:54.4	300.880	-0.020	0.280	0.630
2020/01/31 10:41:54.5	300.860	-0.010	0.310	0.660
2020/01/31 10:41:54.6	300.840	0.010	0.340	0.690
2020/01/31 10:41:54.7	300.820	0.020	0.360	0.710
2020/01/31 10:41:54.8	300.800	0.040	0.380	0.730
2020/01/31 10:41:54.9	300.790	0.050	0.390	0.750
2020/01/31 10:41:55.0	300.770	0.070	0.410	0.770
2020/01/31 10:41:55.1	300.760	0.080	0.420	0.790
2020/01/31 10:41:55.2	300.740	0.090	0.430	0.810
2020/01/31 10:41:55.3	300.730	0.110	0.430	0.820
2020/01/31 10:41:55.4	300.720	0.120	0.430	0.830
2020/01/31 10:41:55.5	300.710	0.130	0.430	0.840
2020/01/31 10:41:55.6	300.700	0.140	0.430	0.850
2020/01/31 10:41:55.7	300.700	0.150	0.420	0.850
2020/01/31 10:41:55.8	300.690	0.160	0.420	0.850
2020/01/31 10:41:55.9	300.680	0.170	0.400	0.850
2020/01/31 10:41:56.0	300.680	0.180	0.390	0.850
2020/01/31 10:41:56.1	300.680	0.190	0.380	0.850
2020/01/31 10:41:56.2	300.680	0.190	0.360	0.840
2020/01/31 10:41:56.3	300.680	0.200	0.340	0.840
2020/01/31 10:41:56.4	300.680	0.210	0.330	0.820
2020/01/31 10:41:56.5	300.690	0.220	0.300	0.810
2020/01/31 10:41:56.6	300.690	0.230	0.280	0.800
2020/01/31 10:41:56.7	300.700	0.230	0.260	0.790
2020/01/31 10:41:56.8	300.710	0.240	0.230	0.770
2020/01/31 10:41:56.9	300.710	0.250	0.210	0.760
2020/01/31 10:41:57.0	300.720	0.250	0.180	0.740
2020/01/31 10:41:57.1	300.740	0.260	0.150	0.720
2020/01/31 10:41:57.2	300.750	0.270	0.120	0.700
2020/01/31 10:41:57.3	300.770	0.280	0.090	0.680
2020/01/31 10:41:57.4	300.780	0.280	0.050	0.660
2020/01/31 10:41:57.5	300.800	0.290	0.020	0.640
2020/01/31 10:41:57.6	300.820	0.300	-0.020	0.610
2020/01/31 10:41:57.7	300.840	0.300	-0.050	0.590
2020/01/31 10:41:57.8	300.860	0.310	-0.090	0.560
2020/01/31 10:41:57.9	300.880	0.320	-0.120	0.540
2020/01/31 10:41:58.0	300.910	0.320	-0.160	0.510
2020/01/31 10:41:58.1	300.930	0.330	-0.200	0.490
2020/01/31 10:41:58.2	300.960	0.330	-0.230	0.460
2020/01/31 10:41:58.3	300.980	0.340	-0.270	0.430
2020/01/31 10:41:58.4	301.010	0.340	-0.300	0.410
2020/01/31 10:41:58.5	301.030	0.340	-0.340	0.380
2020/01/31 10:41:58.6	301.060	0.350	-0.370	0.360
2020/01/31 10:41:58.7	301.090	0.350	-0.410	0.330
2020/01/31 10:41:58.8	301.110	0.350	-0.440	0.310
2020/01/31 10:41:58.9	301.140	0.350	-0.470	0.280
2020/01/31 10:41:59.0	301.170	0.350	-0.500	0.260
2020/01/31 10:41:59.1	301.200	0.350	-0.520	0.240
2020/01/31 10:41:59.2	301.220	0.350	-0.550	0.220
2020/01/31 10:41:59.3	301.250	0.350	-0.570	0.200
2020/01/31 10:41:59.4	301.270	0.350	-0.590	0.180
2020/01/31 10:41:59.5	301.300	0.340	-0.610	0.160
2020/01/31 10:41:59.6	301.320	0.340	-0.630	0.140
2020/01/31 10:41:59.7	301.350	0.340	-0.640	0.130
2020/01/31 10:41:59.8	301.370	0.330	-0.650	0.120
2020/01/31 10:41:59.9	301.390	0.320	-0.660	0.110
2020/01/31 10:42:00.0	301.410	0.320	-0.670	0.100
2020/01/31 10:42:00.1	301.430	0.310	-0.680	0.090
2020/01/31 10:42:00.2	301.450	0.300	-0.680	0.090
2020/01/31 10:42:00.3	301.470	0.290	-0.680	0.080
2020/01/31 10:42:00.4	301.490	0.280	-0.680	0.090
2020/01/31 10:42:00.5	301.500	0.270	-0.670	0.090
2020/01/31 10:42:00.6	301.520	0.260	-0.670	0.090
2020/01/31 10:42:00.7	301.530	0.250	-0.660	0.090
2020/01/31 10:42:00.8	301.540	0.240	-0.660	0.090
2020/01/31 10:42:00.9	301.550	0.220	-0.650	0.100
2020/01/31 10:42:01.0	301.560	0.210	-0.640	0.110
2020/01/31 10:42:01.1	301.570	0.190	-0.630	0.120
2020/01/31 10:42:01.2	301.570	0.180	-0.620	0.120
2020/01/31 10:42:01.3	301.580	0.160	-0.610	0.140
2020/01/31 10:42:01.4	301.580	0.150	-0.600	0.150
2020/01/31 10:42:01.5	301.580	0.130	-0.590	0.160
2020/01/31 10:42:01.6	301.590	0.110	-0.580	0.170
2020/01/31 10:42:01.7	301.590	0.100	-0.570	0.180
2020/01/31 10:42:01.8	301.590	0.080	-0.560	0.190
2020/01/31 10:42:01.9	301.580	0.060	-0.550	0.210
2020/01/31 10:42:02.0	301.580	0.040	-0.540	0.220
2020/01/31 10:42:02.1	301.580	0.020	-0.520	0.240
2020/01/31 10:42:02.2	301.580	0.000	-0.510	0.250
2020/01/31 10:42:02.3	301.570	-0.020	-0.500	0.270
2020/01/31 10:42:02.4	301.560	-0.040	-0.490	0.280
2020/01/31 10:42:02.5	301.550	-0.060	-0.480	0.300
2020/01/31 10:42:02.6	301.540	-0.080	-0.470	0.320
2020/01/31 10:42:02.7	301.530	-0.100	-0.450	0.330
2020/01/31 10:42:02.8	301.520	-0.120	-0.440	0.350
2020/01/31 10:42:02.9	301.510	-0.140	-0.430	0.360
2020/01/31 10:42:03.0	301.500	-0.160	-0.420	0.380
2020/01/31 10:42:03.1	301.490	-0.180	-0.400	0.390
2020/01/31 10:42:03.2	301.470	-0.210	-0.390	0.410
2020/01/31 10:42:03.3	301.460	-0.230	-0.380	0.420
2020/01/31 10:42:03.4	301.440	-0.250	-0.360	0.440
2020/01/31 10:42:03.5	301.420	-0.270	-0.350	0.450
2020/01/31 10:42:03.6	301.400	-0.290	-0.340	0.460
2020/01/31 10:42:03.7	301.380	-0.310	-0.320	0.470
2020/01/31 10:42:03.8	301.360	-0.330	-0.310	0.480
2020/01/31 10:42:03.9	301.340	-0.350	-0.300	0.490
2020/01/31 10:42:04.0	301.320	-0.370	-0.280	0.490
2020/01/31 10:42:04.1	301.290	-0.390	-0.270	0.500
2020/01/31 10:42:04.2	301.270	-0.400	-0.260	0.510
2020/01/31 10:42:04.3	301.250	-0.420	-0.250	0.510
2020/01/31 10:42:04.4	301.220	-0.430	-0.240	0.510
2020/01/31 10:42:04.5	301.190	-0.450	-0.230	0.510
2020/01/31 10:42:04.6	301.170	-0.460	-0.230	0.520
2020/01/31 10:42:04.7	301.140	-0.470	-0.220	0.520
2020/01/31 10:42:04.8	301.120	-0.480	-0.210	0.530
2020/01/31 10:42:04.9	301.090	-0.490	-0.200	0.530
2020/01/31 10:42:05.0	301.060	-0.500	-0.200	0.530
2020/01/31 10:42:05.1	301.040	-0.500	-0.190	0.540
2020/01/31 10:42:05.2	301.010	-0.510	-0.190	0.540
2020/01/31 10:42:05.3	300.990	-0.510	-0.190	0.540
2020/01/31 10:42:05.4	300.960	-0.510	-0.180	0.550
2020/01/31 10:42:05.5	300.940	-0.510	-0.180	0.550
2020/01/31 10:42:05.6	300.910	-0.510	-0.180	0.560
2020/01/31 10:42:05.7	300.890	-0.500	-0.180	0.560
2020/01/31 10:42:05.8	300.870	-0.500	-0.180	0.570
2020/01/31 10:42:05.9	300.850	-0.490	-0.180	0.580
2020/01/31 10:42:06.0	300.830	-0.480	-0.180	0.580
2020/01/31 10:42:06.1	300.810	-0.470	-0.180	0.590
2020/01/31 10:42:06.2	300.790	-0.450	-0.180	0.590
2020/01/31 10:42:06.3	300.770	-0.440	-0.180	0.600
2020/01/31 10:42:06.4	300.760	-0.420	-0.190	0.600
2020/01/31 10:42:06.5	300.740	-0.410	-0.190	0.600
2020/01/31 10:42:06.6	300.730	-0.390	-0.190	0.610
2020/01/31 10:42:06.7	300.730	-0.370	-0.190	0.610
2020/01/31 10:42:06.8	300.720	-0.340	-0.200	0.610
2020/01/31 10:42:06.9	300.720	-0.320	-0.200	0.610
2020/01/31 10:42:07.0	300.720	-0.300	-0.200	0.610
2020/01/31 10:42:07.1	300.720	-0.270	-0.210	0.610
2020/01/31 10:42:07.2	300.730	-0.250	-0.210	0.610
2020/01/31 10:42:07.3	300.740	-0.220	-0.210	0.610
2020/01/31 10:42:07.4	300.750	-0.190	-0.210	0.610
2020/01/31 10:42:07.5	300.760	-0.170	-0.210	0.610
2020/01/31 10:42:07.6	300.780	-0.140	-0.210	0.600
2020/01/31 10:42:07.7	300.800	-0.110	-0.210	0.600
2020/01/31 10:42:07.8	300.820	-0.080	-0.210	0.600
2020/01/31 10:42:07.9	300.840	-0.050	-0.200	0.600
2020/01/31 10:42:08.0	300.860	-0.020	-0.200	0.590
2020/01/31 10:42:08.1	300.890	0.010	-0.190	0.590
2020/01/31 10:42:08.2	300.920	0.030	-0.190	0.590
2020/01/31 10:42:08.3	300.950	0.060	-0.180	0.590
2020/01/31 10:42:08.4	300.980	0.090	-0.170	0.590
2020/01/31 10:42:08.5	301.010	0.120	-0.160	0.590
2020/01/31 10:42:08.6	301.040	0.140	-0.150	0.590
2020/01/31 10:42:08.7	301.080	0.170	-0.140	0.590
2020/01/31 10:42:08.8	301.110	0.200	-0.130	0.580
2020/01/31 10:42:08.9	301.150	0.220	-0.120	0.580
2020/01/31 10:42:09.0	301.190	0.250	-0.110	0.580
2020/01/31 10:42:09.1	301.230	0.270	-0.100	0.570
2020/01/31 10:42:09.2	301.270	0.290	-0.090	0.570
2020/01/31 10:42:09.3	301.310	0.320	-0.070	0.570
2020/01/31 10:42:09.4	301.350	0.340	-0.070	0.560
2020/01/31 10:42:09.5	301.390	0.360	-0.060	0.560
2020/01/31 10:42:09.6	301.430	0.380	-0.050	0.560
2020/01/31 10:42:09.7	301.470	0.390	-0.030	0.550
2020/01/31 10:42:09.8	301.510	0.410	-0.020	0.550
2020/01/31 10:42:09.9	301.550	0.430	-0.010	0.550
2020/01/31 10:42:10.0	301.590	0.440	-0.000	0.540
2020/01/31 10:42:10.1	301.620	0.460	0.010	0.540
2020/01/31 10:42:10.2	301.660	0.470	0.020	0.540
2020/01/31 10:42:10.3	301.690	0.480	0.030	0.540
2020/01/31 10:42:10.4	301.720	0.490	0.040	0.540
2020/01/31 10:42:10.5	301.750	0.500	0.050	0.540
2020/01/31 10:42:10.6	301.770	0.500	0.060	0.540
2020/01/31 10:42:10.7	301.800	0.510	0.070	0.530
2020/01/31 10:42:10.8	301.820	0.510	0.080	0.530
2020/01/31 10:42:10.9	301.840	0.520	0.090	0.530
2020/01/31 10:42:11.0	301.860	0.520	0.090	0.530
2020/01/31 10:42:11.1	301.880	0.520	0.090	0.530
2020/01/31 10:42:11.2	301.890	0.510	0.100	0.530
2020/01/31 10:42:11.3	301.900	0.510	0.100	0.530
2020/01/31 10:42:11.4	301.910	0.500	0.100	0.530
2020/01/31 10:42:11.5	301.920	0.500	0.090	0.530
2020/01/31 10:42:11.6	301.920	0.490	0.090	0.520
2020/01/31 10:42:11.7	301.930	0.480	0.080	0.520
2020/01/31 10:42:11.8	301.930	0.470	0.070	0.510
2020/01/31 10:42:11.9	301.930	0.460	0.060	0.510
2020/01/31 10:42:12.0	301.930	0.440	0.050	0.500
2020/01/31 10:42:12.1	301.920	0.430	0.030	0.500
2020/01/31 10:42:12.2	301.910	0.410	0.010	0.490
2020/01/31 10:42:12.3	301.900	0.400	-0.000	0.480
2020/01/31 10:42:12.4	301.890	0.380	-0.030	0.470
2020/01/31 10:42:12.5	301.880	0.360	-0.050	0.470
2020/01/31 10:42:12.6	301.860	0.340	-0.070	0.460
2020/01/31 10:42:12.7	301.840	0.320	-0.090	0.450
2020/01/31 10:42:12.8	301.820	0.290	-0.110	0.440
2020/01/31 10:42:12.9	301.800	0.270	-0.140	0.430
2020/01/31 10:42:13.0	301.770	0.250	-0.160	0.420
2020/01/31 10:42:13.1	301.740	0.220	-0.180	0.410
2020/01/31 10:42:13.2	301.710	0.200	-0.200	0.400
2020/01/31 10:42:13.3	301.680	0.170	-0.230	0.390
2020/01/31 10:42:13.4	301.640	0.150	-0.250	0.370
2020/01/31 10:42:13.5	301.610	0.120	-0.270	0.360
2020/01/31 10:42:13.6	301.570	0.100	-0.290	0.350
2020/01/31 10:42:13.7	301.530	0.070	-0.310	0.330
2020/01/31 10:42:13.8	301.490	0.050	-0.330	0.320
2020/01/31 10:42:13.9	301.450	0.020	-0.350	0.310
2020/01/31 10:42:14.0	301.410	-0.000	-0.360	0.300
2020/01/31 10:42:14.1	301.370	-0.030	-0.380	0.280
2020/01/31 10:42:14.2	301.330	-0.050	-0.390	0.270
2020/01/31 10:42:14.3	301.290	-0.070	-0.410	0.260
2020/01/31 10:42:14.4	301.250	-0.090	-0.420	0.250
2020/01/31 10:42:14.5	301.200	-0.110	-0.430	0.230
2020/01/31 10:42:14.6	301.160	-0.130	-0.440	0.220
2020/01/31 10:42:14.7	301.120	-0.150	-0.460	0.210
2020/01/31 10:42:14.8	301.080	-0.170	-0.470	0.200
2020/01/31 10:42:14.9	301.050	-0.190	-0.480	0.180
2020/01/31 10:42:15.0	301.010	-0.200	-0.490	0.170
2020/01/31 10:42:15.1	300.970	-0.220	-0.500	0.150
2020/01/31 10:42:15.2	300.940	-0.230	-0.510	0.140
2020/01/31 10:42:15.3	300.910	-0.240	-0.520	0.120
2020/01/31 10:42:15.4	300.880	-0.250	-0.530	0.100
2020/01/31 10:42:15.5	300.850	-0.260	-0.540	0.080
2020/01/31 10:42:15.6	300.820	-0.270	-0.550	0.060
2020/01/31 10:42:15.7	300.800	-0.280	-0.560	0.030
2020/01/31 10:42:15.8	300.780	-0.290	-0.570	0.010
2020/01/31 10:42:15.9	300.760	-0.290	-0.580	-0.020
2020/01/31 10:42:16.0	300.750	-0.300	-0.590	-0.050
2020/01/31 10:42:16.1	300.740	-0.300	-0.600	-0.090
2020/01/31 10:42:16.2	300.730	-0.300	-0.600	-0.120
2020/01/31 10:42:16.3	300.730	-0.310	-0.610	-0.150
2020/01/31 10:42:16.4	300.730	-0.310	-0.620	-0.190
2020/01/31 10:42:16.5	300.730	-0.310	-0.630	-0.230
2020/01/31 10:42:16.6	300.730	-0.300	-0.630	-0.270
2020/01/31 10:42:16.7	300.740	-0.300	-0.640	-0.310
2020/01/31 10:42:16.8	300.750	-0.300	-0.640	-0.350
2020/01/31 10:42:16.9	300.770	-0.300	-0.640	-0.380
2020/01/31 10:42:17.0	300.780	-0.300	-0.640	-0.420
2020/01/31 10:42:17.1	300.800	-0.290	-0.640	-0.460
2020/01/31 10:42:17.2	300.820	-0.290	-0.630	-0.490
2020/01/31 10:42:17.3	300.840	-0.290	-0.630	-0.530
2020/01/31 10:42:17.4	300.860	-0.280	-0.620	-0.550
2020/01/31 10:42:17.5	300.880	-0.280	-0.600	-0.580
2020/01/31 10:42:17.6	300.900	-0.270	-0.590	-0.610
2020/01/31 10:42:17.7	300.920	-0.270	-0.570	-0.630
2020/01/31 10:42:17.8	300.940	-0.270	-0.550	-0.650
2020/01/31 10:42:17.9	300.960	-0.260	-0.520	-0.660
2020/01/31 10:42:18.0	300.980	-0.260	-0.490	-0.670
2020/01/31 10:42:18.1	301.000	-0.250	-0.460	-0.680
2020/01/31 10:42:18.2	301.020	-0.250	-0.430	-0.690
2020/01/31 10:42:18.3	301.040	-0.240	-0.400	-0.690
2020/01/31 10:42:18.4	301.060	-0.240	-0.370	-0.680
2020/01/31 10:42:18.5	301.080	-0.230	-0.330	-0.670
2020/01/31 10:42:18.6	301.100	-0.220	-0.300	-0.660
2020/01/31 10:42:18.7	301.110	-0.220	-0.260	-0.650
2020/01/31 10:42:18.8	301.130	-0.210	-0.220	-0.620
2020/01/31 10:42:18.9	301.140	-0.200	-0.190	-0.600
2020/01/31 10:42:19.0	301.160	-0.200	-0.150	-0.570
2020/01/31 10:42:19.1	301.170	-0.190	-0.120	-0.540
2020/01/31 10:42:19.2	301.180	-0.180	-0.080	-0.500
2020/01/31 10:42:19.3	301.190	-0.170	-0.050	-0.460
2020/01/31 10:42:19.4	301.210	-0.160	-0.020	-0.410
2020/01/31 10:42:19.5	301.220	-0.150	0.000	-0.360
2020/01/31 10:42:19.6	301.220	-0.140	0.030	-0.310
2020/01/31 10:42:19.7	301.230	-0.120	0.050	-0.260
2020/01/31 10:42:19.8	301.230	-0.110	0.070	-0.200
2020/01/31 10:42:19.9	301.230	-0.100	0.080	-0.140
2020/01/31 10:42:20.0	301.240	-0.080	0.090	-0.080
2020/01/31 10:42:20.1	301.240	-0.060	0.100	-0.020
2020/01/31 10:42:20.2	301.240	-0.050	0.100	0.030
2020/01/31 10:42:20.3	301.240	-0.030	0.100	0.090
2020/01/31 10:42:20.4	301.240	-0.010	0.100	0.150
2020/01/31 10:42:20.5	301.240	0.000	0.090	0.210
2020/01/31 10:42:20.6	301.240	0.020	0.080	0.260
2020/01/31 10:42:20.7	301.250	0.040	0.070	0.320
2020/01/31 10:42:20.8	301.250	0.060	0.050	0.370
2020/01/31 10:42:20.9	301.250	0.080	0.030	0.420
2020/01/31 10:42:21.0	301.250	0.100	0.000	0.470
2020/01/31 10:42:21.1	301.260	0.120	-0.020	0.510
2020/01/31 10:42:21.2	301.260	0.140	-0.050	0.550
2020/01/31 10:42:21.3	301.260	0.160	-0.080	0.590
2020/01/31 10:42:21.4	301.260	0.170	-0.110	0.630
2020/01/31 10:42:21.5	301.270	0.190	-0.150	0.660
2020/01/31 10:42:21.6	301.270	0.210	-0.180	0.690
2020/01/31 10:42:21.7	301.280	0.220	-0.220	0.720
2020/01/31 10:42:21.8	301.280	0.240	-0.250	0.740
2020/01/31 10:42:21.9	301.290	0.250	-0.290	0.760
2020/01/31 10:42:22.0	301.290	0.270	-0.320	0.770
2020/01/31 10:42:22.1	301.300	0.280	-0.350	0.780
2020/01/31 10:42:22.2	301.310	0.290	-0.390	0.790
2020/01/31 10:42:22.3	301.320	0.290	-0.410	0.800
2020/01/31 10:42:22.4	301.330	0.300	-0.440	0.800
2020/01/31 10:42:22.5	301.340	0.300	-0.470	0.800
2020/01/31 10:42:22.6	301.350	0.300	-0.490	0.800
2020/01/31 10:42:22.7	301.360	0.300	-0.500	0.800
2020/01/31 10:42:22.8	301.360	0.300	-0.520	0.790
2020/01/31 10:42:22.9	301.370	0.300	-0.530	0.780
2020/01/31 10:42:23.0	301.380	0.290	-0.530	0.780
2020/01/31 10:42:23.1	301.380	0.280	-0.540	0.770
2020/01/31 10:42:23.2	301.390	0.270	-0.530	0.760
2020/01/31 10:42:23.3	301.390	0.260	-0.530	0.750
2020/01/31 10:42:23.4	301.400	0.240	-0.520	0.730
2020/01/31 10:42:23.5	301.400	0.220	-0.500	0.720
2020/01/31 10:42:23.6	301.400	0.200	-0.490	0.710
2020/01/31 10:42:23.7	301.400	0.180	-0.470	0.700
2020/01/31 10:42:23.8	301.400	0.160	-0.440	0.690
2020/01/31 10:42:23.9	301.390	0.140	-0.420	0.680
2020/01/31 10:42:24.0	301.390	0.110	-0.390	0.670
2020/01/31 10:42:24.1	301.380	0.090	-0.360	0.660
2020/01/31 10:42:24.2	301.380	0.060	-0.330	0.650
2020/01/31 10:42:24.3	301.370	0.030	-0.290	0.640
2020/01/31 10:42:24.4	301.370	0.010	-0.270	0.630
2020/01/31 10:42:24.5	301.360	-0.020	-0.230	0.620
2020/01/31 10:42:24.6	301.350	-0.050	-0.200	0.610
2020/01/31 10:42:24.7	301.350	-0.070	-0.160	0.600
2020/01/31 10:42:24.8	301.340	-0.100	-0.130	0.590
2020/01/31 10:42:24.9	301.330	-0.120	-0.100	0.570
2020/01/31 10:42:25.0	301.330	-0.150	-0.070	0.560
2020/01/31 10:42:25.1	301.320	-0.170	-0.030	0.550
2020/01/31 10:42:25.2	301.310	-0.190	-0.010	0.540
2020/01/31 10:42:25.3	301.300	-0.210	0.020	0.530
2020/01/31 10:42:25.4	301.300	-0.230	0.040	0.520
2020/01/31 10:42:25.5	301.290	-0.240	0.070	0.510
2020/01/31 10:42:25.6	301.280	-0.250	0.090	0.510
2020/01/31 10:42:25.7	301.270	-0.260	0.110	0.500
2020/01/31 10:42:25.8	301.260	-0.270	0.130	0.500
2020/01/31 10:42:25.9	301.240	-0.280	0.140	0.500
2020/01/31 10:42:26.0	301.230	-0.280	0.160	0.490
2020/01/31 10:42:26.1	301.220	-0.280	0.170	0.500
2020/01/31 10:42:26.2	301.200	-0.280	0.170	0.500
2020/01/31 10:42:26.3	301.190	-0.280	0.180	0.500
2020/01/31 10:42:26.4	301.160	-0.270	0.180	0.500
2020/01/31 10:42:26.5	301.150	-0.260	0.190	0.510
2020/01/31 10:42:26.6	301.130	-0.250	0.190	0.510
2020/01/31 10:42:26.7	301.110	-0.240	0.180	0.520
2020/01/31 10:42:26.8	301.090	-0.230	0.180	0.520
2020/01/31 10:42:26.9	301.070	-0.210	0.170	0.530
2020/01/31 10:42:27.0	301.050	-0.200	0.160	0.530
2020/01/31 10:42:27.1	301.030	-0.180	0.150	0.540
2020/01/31 10:42:27.2	301.010	-0.160	0.140	0.540
2020/01/31 10:42:27.3	301.000	-0.140	0.130	0.550
2020/01/31 10:42:27.4	300.980	-0.110	0.110	0.550
2020/01/31 10:42:27.5	300.960	-0.090	0.090	0.550
2020/01/31 10:42:27.6	300.940	-0.070	0.070	0.550
2020/01/31 10:42:27.7	300.930	-0.040	0.060	0.550
2020/01/31 10:42:27.8	300.910	-0.020	0.040	0.550
2020/01/31 10:42:27.9	300.900	0.010	0.010	0.550
2020/01/31 10:42:28.0	300.880	0.030	-0.010	0.540
2020/01/31 10:42:28.1	300.870	0.050	-0.030	0.530
2020/01/31 10:42:28.2	300.860	0.080	-0.050	0.520
2020/01/31 10:42:28.3	300.850	0.100	-0.070	0.510
2020/01/31 10:42:28.4	300.840	0.120	-0.090	0.500
2020/01/31 10:42:28.5	300.840	0.150	-0.110	0.480
2020/01/31 10:42:28.6	300.830	0.170	-0.130	0.470
2020/01/31 10:42:28.7	300.820	0.190	-0.140	0.450
2020/01/31 10:42:28.8	300.810	0.200	-0.160	0.430
2020/01/31 10:42:28.9	300.810	0.220	-0.180	0.410
2020/01/31 10:42:29.0	300.800	0.240	-0.190	0.390
2020/01/31 10:42:29.1	300.790	0.250	-0.200	0.370
2020/01/31 10:42:29.2	300.790	0.260	-0.210	0.340
2020/01/31 10:42:29.3	300.780	0.280	-0.230	0.320
2020/01/31 10:42:29.4	300.780	0.280	-0.240	0.300
2020/01/31 10:42:29.5	300.770	0.290	-0.250	0.280
2020/01/31 10:42:29.6	300.760	0.300	-0.250	0.250
2020/01/31 10:42:29.7	300.760	0.300	-0.260	0.220
2020/01/31 10:42:29.8	300.750	0.310	-0.270	0.200
2020/01/31 10:42:29.9	300.740	0.310	-0.280	0.170
2020/01/31 10:42:30.0	300.740	0.310	-0.290	0.140
2020/01/31 10:42:30.1	300.730	0.310	-0.300	0.120
2020/01/31 10:42:30.2	300.730	0.300	-0.310	0.090
2020/01/31 10:42:30.3	300.720	0.300	-0.320	0.060
2020/01/31 10:42:30.4	300.720	0.290	-0.330	0.030
2020/01/31 10:42:30.5	300.710	0.290	-0.340	0.000
2020/01/31 10:42:30.6	300.710	0.280	-0.360	-0.020
2020/01/31 10:42:30.7	300.710	0.270	-0.370	-0.050
2020/01/31 10:42:30.8	300.700	0.260	-0.390	-0.070
2020/01/31 10:42:30.9	300.700	0.250	-0.400	-0.090
2020/01/31 10:42:31.0	300.700	0.240	-0.420	-0.110
2020/01/31 10:42:31.1	300.700	0.230	-0.440	-0.130
2020/01/31 10:42:31.2	300.710	0.210	-0.460	-0.150
2020/01/31 10:42:31.3	300.710	0.200	-0.480	-0.170
2020/01/31 10:42:31.4	300.710	0.190	-0.500	-0.180
2020/01/31 10:42:31.5	300.720	0.170	-0.530	-0.190
2020/01/31 10:42:31.6	300.730	0.160	-0.550	-0.210
2020/01/31 10:42:31.7	300.740	0.140	-0.580	-0.220
2020/01/31 10:42:31.8	300.750	0.130	-0.600	-0.220
2020/01/31 10:42:31.9	300.760	0.110	-0.630	-0.230
2020/01/31 10:42:32.0	300.770	0.100	-0.650	-0.230
2020/01/31 10:42:32.1	300.780	0.080	-0.680	-0.230
2020/01/31 10:42:32.2	300.800	0.060	-0.710	-0.230
2020/01/31 10:42:32.3	300.820	0.050	-0.730	-0.230
2020/01/31 10:42:32.4	300.830	0.030	-0.760	-0.230
2020/01/31 10:42:32.5	300.850	0.020	-0.780	-0.220
2020/01/31 10:42:32.6	300.870	0.010	-0.810	-0.210
2020/01/31 10:42:32.7	300.900	-0.010	-0.830	-0.190
2020/01/31 10:42:32.8	300.920	-0.020	-0.850	-0.180
2020/01/31 10:42:32.9	300.950	-0.040	-0.870	-0.160
2020/01/31 10:42:33.0	300.970	-0.050	-0.880	-0.140
2020/01/31 10:42:33.1	301.000	-0.060	-0.900	-0.110
2020/01/31 10:42:33.2	301.030	-0.070	-0.910	-0.090
2020/01/31 10:42:33.3	301.060	-0.080	-0.920	-0.060
2020/01/31 10:42:33.4	301.090	-0.100	-0.920	-0.030
2020/01/31 10:42:33.5	301.120	-0.110	-0.930	0.000
2020/01/31 10:42:33.6	301.150	-0.120	-0.920	0.030
2020/01/31 10:42:33.7	301.180	-0.130	-0.920	0.070
2020/01/31 10:42:33.8	301.200	-0.140	-0.910	0.100
2020/01/31 10:42:33.9	301.230	-0.150	-0.890	0.140
2020/01/31 10:42:34.0	301.250	-0.150	-0.870	0.180
2020/01/31 10:42:34.1	301.280	-0.160	-0.850	0.220
2020/01/31 10:42:34.2	301.300	-0.170	-0.820	0.260
2020/01/31 10:42:34.3	301.320	-0.180	-0.790	0.300
2020/01/31 10:42:34.4	301.350	-0.180	-0.750	0.340
2020/01/31 10:42:34.5	301.370	-0.190	-0.720	0.380
2020/01/31 10:42:34.6	301.390	-0.200	-0.680	0.420
2020/01/31 10:42:34.7	301.400	-0.200	-0.630	0.450
2020/01/31 10:42:34.8	301.420	-0.210	-0.590	0.490
2020/01/31 10:42:34.9	301.430	-0.220	-0.540	0.530
2020/01/31 10:42:35.0	301.440	-0.220	-0.490	0.560
2020/01/31 10:42:35.1	301.460	-0.230	-0.440	0.600
2020/01/31 10:42:35.2	301.470	-0.230	-0.390	0.630
2020/01/31 10:42:35.3	301.470	-0.240	-0.340	0.660
2020/01/31 10:42:35.4	301.480	-0.240	-0.290	0.690
2020/01/31 10:42:35.5	301.490	-0.240	-0.240	0.710
2020/01/31 10:42:35.6	301.490	-0.250	-0.190	0.730
2020/01/31 10:42:35.7	301.500	-0.250	-0.140	0.750
2020/01/31 10:42:35.8	301.500	-0.250	-0.090	0.770
2020/01/31 10:42:35.9	301.500	-0.260	-0.040	0.780
2020/01/31 10:42:36.0	301.500	-0.260	0.000	0.800
2020/01/31 10:42:36.1	301.490	-0.260	0.050	0.800
2020/01/31 10:42:36.2	301.490	-0.260	0.090	0.810
2020/01/31 10:42:36.3	301.480	-0.260	0.130	0.810
2020/01/31 10:42:36.4	301.480	-0.260	0.160	0.810
2020/01/31 10:42:36.5	301.470	-0.260	0.200	0.800
2020/01/31 10:42:36.6	301.450	-0.260	0.230	0.790
2020/01/31 10:42:36.7	301.440	-0.260	0.270	0.780
2020/01/31 10:42:36.8	301.430	-0.260	0.300	0.770
2020/01/31 10:42:36.9	301.410	-0.250	0.320	0.760
2020/01/31 10:42:37.0	301.390	-0.250	0.350	0.740
2020/01/31 10:42:37.1	301.370	-0.250	0.370	0.730
2020/01/31 10:42:37.2	301.350	-0.240	0.390	0.710
2020/01/31 10:42:37.3	301.330	-0.240	0.420	0.690
2020/01/31 10:42:37.4	301.300	-0.230	0.430	0.670
2020/01/31 10:42:37.5	301.280	-0.230	0.450	0.650
2020/01/31 10:42:37.6	301.250	-0.220	0.470	0.630
2020/01/31 10:42:37.7	301.220	-0.210	0.480	0.610
2020/01/31 10:42:37.8	301.180	-0.210	0.490	0.580
2020/01/31 10:42:37.9	301.150	-0.200	0.500	0.560
2020/01/31 10:42:38.0	301.110	-0.190	0.510	0.530
2020/01/31 10:42:38.1	301.080	-0.180	0.510	0.510
2020/01/31 10:42:38.2	301.040	-0.170	0.520	0.480
2020/01/31 10:42:38.3	301.010	-0.160	0.520	0.450
2020/01/31 10:42:38.4	300.980	-0.150	0.520	0.420
2020/01/31 10:42:38.5	300.940	-0.140	0.510	0.390
2020/01/31 10:42:38.6	300.910	-0.120	0.510	0.360
2020/01/31 10:42:38.7	300.870	-0.110	0.500	0.330
2020/01/31 10:42:38.8	300.840	-0.100	0.490	0.300
2020/01/31 10:42:38.9	300.810	-0.080	0.470	0.260
2020/01/31 10:42:39.0	300.780	-0.070	0.460	0.230
2020/01/31 10:42:39.1	300.750	-0.060	0.440	0.200
2020/01/31 10:42:39.2	300.720	-0.040	0.420	0.170
2020/01/31 10:42:39.3	300.690	-0.020	0.400	0.140
2020/01/31 10:42:39.4	300.660	-0.010	0.370	0.100
2020/01/31 10:42:39.5	300.640	0.010	0.340	0.070
2020/01/31 10:42:39.6	300.620	0.030	0.310	0.040
2020/01/31 10:42:39.7	300.600	0.040	0.280	0.020
2020/01/31 10:42:39.8	300.580	0.060	0.240	-0.010
2020/01/31 10:42:39.9	300.560	0.080	0.210	-0.030
2020/01/31 10:42:40.0	300.540	0.100	0.170	-0.050
2020/01/31 10:42:40.1	300.530	0.120	0.130	-0.070
2020/01/31 10:42:40.2	300.510	0.140	0.090	-0.090
2020/01/31 10:42:40.3	300.500	0.150	0.050	-0.110
2020/01/31 10:42:40.4	300.500	0.170	0.010	-0.120
2020/01/31 10:42:40.5	300.490	0.190	-0.030	-0.140
2020/01/31 10:42:40.6	300.480	0.210	-0.070	-0.150
2020/01/31 10:42:40.7	300.480	0.230	-0.110	-0.160
2020/01/31 10:42:40.8	300.480	0.250	-0.160	-0.160
2020/01/31 10:42:40.9	300.490	0.260	-0.200	-0.170
2020/01/31 10:42:41.0	300.490	0.280	-0.240	-0.170
2020/01/31 10:42:41.1	300.490	0.300	-0.290	-0.170
2020/01/31 10:42:41.2	300.500	0.310	-0.330	-0.170
2020/01/31 10:42:41.3	300.510	0.330	-0.370	-0.170
2020/01/31 10:42:41.4	300.530	0.340	-0.410	-0.160
2020/01/31 10:42:41.5	300.540	0.360	-0.450	-0.150
2020/01/31 10:42:41.6	300.560	0.370	-0.500	-0.140
2020/01/31 10:42:41.7	300.570	0.380	-0.530	-0.130
2020/01/31 10:42:41.8	300.590	0.390	-0.570	-0.110
2020/01/31 10:42:41.9	300.600	0.400	-0.610	-0.100
2020/01/31 10:42:42.0	300.620	0.410	-0.650	-0.080
2020/01/31 10:42:42.1	300.640	0.420	-0.680	-0.050
2020/01/31 10:42:42.2	300.650	0.430	-0.720	-0.030
2020/01/31 10:42:42.3	300.670	0.430	-0.750	-0.000
2020/01/31 10:42:42.4	300.700	0.440	-0.780	0.030
2020/01/31 10:42:42.5	300.710	0.440	-0.810	0.060
2020/01/31 10:42:42.6	300.730	0.450	-0.840	0.090
2020/01/31 10:42:42.7	300.750	0.450	-0.860	0.120
2020/01/31 10:42:42.8	300.760	0.450	-0.890	0.150
2020/01/31 10:42:42.9	300.780	0.450	-0.910	0.190
2020/01/31 10:42:43.0	300.790	0.450	-0.930	0.220
2020/01/31 10:42:43.1	300.810	0.440	-0.950	0.250
2020/01/31 10:42:43.2	300.820	0.440	-0.960	0.290
2020/01/31 10:42:43.3	300.840	0.430	-0.980	0.320
2020/01/31 10:42:43.4	300.850	0.420	-0.990	0.350
2020/01/31 10:42:43.5	300.870	0.420	-1.000	0.380
2020/01/31 10:42:43.6	300.880	0.410	-1.010	0.400
2020/01/31 10:42:43.7	300.890	0.400	-1.020	0.430
2020/01/31 10:42:43.8	300.900	0.380	-1.030	0.450
2020/01/31 10:42:43.9	300.920	0.370	-1.030	0.470
2020/01/31 10:42:44.0	300.930	0.360	-1.040	0.490
2020/01/31 10:42:44.1	300.940	0.340	-1.040	0.510
2020/01/31 10:42:44.2	300.960	0.320	-1.040	0.520
2020/01/31 10:42:44.3	300.970	0.300	-1.040	0.540
2020/01/31 10:42:44.4	300.990	0.280	-1.040	0.550
2020/01/31 10:42:44.5	301.000	0.260	-1.040	0.550
2020/01/31 10:42:44.6	301.010	0.240	-1.040	0.560
2020/01/31 10:42:44.7	301.030	0.220	-1.030	0.560
2020/01/31 10:42:44.8	301.040	0.190	-1.020	0.550
2020/01/31 10:42:44.9	301.050	0.170	-1.010	0.550
2020/01/31 10:42:45.0	301.070	0.140	-1.000	0.540
2020/01/31 10:42:45.1	301.080	0.120	-0.980	0.530
2020/01/31 10:42:45.2	301.090	0.090	-0.970	0.520
2020/01/31 10:42:45.3	301.110	0.060	-0.950	0.500
2020/01/31 10:42:45.4	301.120	0.030	-0.920	0.480
2020/01/31 10:42:45.5	301.140	0.000	-0.890	0.460
2020/01/31 10:42:45.6	301.150	-0.030	-0.860	0.440
2020/01/31 10:42:45.7	301.160	-0.060	-0.830	0.420
2020/01/31 10:42:45.8	301.170	-0.090	-0.790	0.400
2020/01/31 10:42:45.9	301.180	-0.120	-0.750	0.380
2020/01/31 10:42:46.0	301.180	-0.150	-0.710	0.360
2020/01/31 10:42:46.1	301.190	-0.180	-0.660	0.340
2020/01/31 10:42:46.2	301.200	-0.210	-0.610	0.320
2020/01/31 10:42:46.3	301.200	-0.240	-0.560	0.300
2020/01/31 10:42:46.4	301.200	-0.270	-0.500	0.280
2020/01/31 10:42:46.5	301.210	-0.300	-0.450	0.260
2020/01/31 10:42:46.6	301.210	-0.320	-0.380	0.240
2020/01/31 10:42:46.7	301.210	-0.350	-0.320	0.230
2020/01/31 10:42:46.8	301.200	-0.380	-0.250	0.210
2020/01/31 10:42:46.9	301.200	-0.400	-0.180	0.190
2020/01/31 10:42:47.0	301.190	-0.430	-0.110	0.180
2020/01/31 10:42:47.1	301.180	-0.450	-0.040	0.170
2020/01/31 10:42:47.2	301.170	-0.470	0.040	0.160
2020/01/31 10:42:47.3	301.160	-0.490	0.110	0.150
2020/01/31 10:42:47.4	301.140	-0.500	0.190	0.140
2020/01/31 10:42:47.5	301.120	-0.520	0.260	0.140
2020/01/31 10:42:47.6	301.100	-0.530	0.340	0.130
2020/01/31 10:42:47.7	301.080	-0.550	0.410	0.130
2020/01/31 10:42:47.8	301.060	-0.560	0.480	0.130
2020/01/31 10:42:47.9	301.040	-0.570	0.540	0.140
2020/01/31 10:42:48.0	301.010	-0.570	0.610	0.140
2020/01/31 10:42:48.1	300.980	-0.580	0.670	0.150
2020/01/31 10:42:48.2	300.950	-0.580	0.730	0.160
2020/01/31 10:42:48.3	300.930	-0.580	0.780	0.170
2020/01/31 10:42:48.4	300.890	-0.570	0.820	0.180
2020/01/31 10:42:48.5	300.860	-0.570	0.870	0.190
2020/01/31 10:42:48.6	300.830	-0.560	0.900	0.200
2020/01/31 10:42:48.7	300.800	-0.550	0.930	0.220
2020/01/31 10:42:48.8	300.770	-0.540	0.960	0.230
2020/01/31 10:42:48.9	300.740	-0.520	0.980	0.250
2020/01/31 10:42:49.0	300.710	-0.500	0.990	0.270
2020/01/31 10:42:49.1	300.680	-0.490	1.000	0.280
2020/01/31 10:42:49.2	300.650	-0.470	1.000	0.300
2020/01/31 10:42:49.3	300.620	-0.440	0.990	0.320
2020/01/31 10:42:49.4	300.580	-0.420	0.970	0.330
2020/01/31 10:42:49.5	300.550	-0.390	0.960	0.350
2020/01/31 10:42:49.6	300.520	-0.370	0.930	0.370
2020/01/31 10:42:49.7	300.500	-0.340	0.900	0.390
2020/01/31 10:42:49.8	300.470	-0.310	0.870	0.400
2020/01/31 10:42:49.9	300.440	-0.280	0.830	0.420
2020/01/31 10:42:50.0	300.410	-0.250	0.790	0.440
2020/01/31 10:42:50.1	300.390	-0.210	0.740	0.460
2020/01/31 10:42:50.2	300.370	-0.180	0.690	0.480
2020/01/31 10:42:50.3	300.340	-0.150	0.630	0.490
2020/01/31 10:42:50.4	300.330	-0.120	0.570	0.510
2020/01/31 10:42:50.5	300.310	-0.090	0.510	0.530
2020/01/31 10:42:50.6	300.290	-0.050	0.450	0.540
2020/01/31 10:42:50.7	300.280	-0.020	0.380	0.560
2020/01/31 10:42:50.8	300.260	0.010	0.310	0.570
2020/01/31 10:42:50.9	300.250	0.040	0.240	0.590
2020/01/31 10:42:51.0	300.240	0.070	0.170	0.600
2020/01/31 10:42:51.1	300.230	0.100	0.100	0.610
2020/01/31 10:42:51.2	300.230	0.130	0.030	0.610
2020/01/31 10:42:51.3	300.220	0.160	-0.040	0.620
2020/01/31 10:42:51.4	300.220	0.180	-0.120	0.620
2020/01/31 10:42:51.5	300.220	0.210	-0.190	0.620
2020/01/31 10:42:51.6	300.230	0.230	-0.260	0.620
2020/01/31 10:42:51.7	300.230	0.250	-0.330	0.610
2020/01/31 10:42:51.8	300.240	0.280	-0.400	0.600
2020/01/31 10:42:51.9	300.240	0.300	-0.470	0.590
2020/01/31 10:42:52.0	300.250	0.310	-0.540	0.580
2020/01/31 10:42:52.1	300.270	0.330	-0.610	0.560
2020/01/31 10:42:52.2	300.280	0.350	-0.670	0.540
2020/01/31 10:42:52.3	300.300	0.360	-0.730	0.520
2020/01/31 10:42:52.4	300.310	0.370	-0.790	0.500
2020/01/31 10:42:52.5	300.330	0.380	-0.840	0.470
2020/01/31 10:42:52.6	300.350	0.390	-0.900	0.440
2020/01/31 10:42:52.7	300.380	0.400	-0.940	0.420
2020/01/31 10:42:52.8	300.400	0.410	-0.990	0.380
2020/01/31 10:42:52.9	300.430	0.410	-1.030	0.350
2020/01/31 10:42:53.0	300.460	0.420	-1.070	0.320
2020/01/31 10:42:53.1	300.490	0.420	-1.100	0.290
2020/01/31 10:42:53.2	300.520	0.420	-1.130	0.250
2020/01/31 10:42:53.3	300.550	0.420	-1.160	0.220
2020/01/31 10:42:53.4	300.590	0.420	-1.180	0.190
2020/01/31 10:42:53.5	300.630	0.410	-1.200	0.160
2020/01/31 10:42:53.6	300.670	0.410	-1.210	0.120
2020/01/31 10:42:53.7	300.700	0.400	-1.210	0.090
2020/01/31 10:42:53.8	300.740	0.400	-1.220	0.060
2020/01/31 10:42:53.9	300.780	0.390	-1.210	0.030
2020/01/31 10:42:54.0	300.820	0.380	-1.210	0.000
2020/01/31 10:42:54.1	300.860	0.370	-1.200	-0.020
2020/01/31 10:42:54.2	300.900	0.350	-1.180	-0.050
2020/01/31 10:42:54.3	300.940	0.340	-1.160	-0.070
2020/01/31 10:42:54.4	300.980	0.320	-1.140	-0.080
2020/01/31 10:42:54.5	301.020	0.310	-1.110	-0.100
2020/01/31 10:42:54.6	301.060	0.290	-1.080	-0.120
2020/01/31 10:42:54.7	301.090	0.270	-1.050	-0.130
2020/01/31 10:42:54.8	301.130	0.250	-1.020	-0.140
2020/01/31 10:42:54.9	301.160	0.230	-0.980	-0.140
2020/01/31 10:42:55.0	301.190	0.210	-0.940	-0.140
2020/01/31 10:42:55.1	301.220	0.190	-0.900	-0.140
2020/01/31 10:42:55.2	301.250	0.170	-0.860	-0.140
2020/01/31 10:42:55.3	301.280	0.150	-0.820	-0.130
2020/01/31 10:42:55.4	301.310	0.130	-0.770	-0.120
2020/01/31 10:42:55.5	301.330	0.110	-0.730	-0.100
2020/01/31 10:42:55.6	301.350	0.090	-0.690	-0.090
2020/01/31 10:42:55.7	301.370	0.070	-0.650	-0.070
2020/01/31 10:42:55.8	301.390	0.040	-0.600	-0.050
2020/01/31 10:42:55.9	301.410	0.020	-0.560	-0.020
2020/01/31 10:42:56.0	301.420	0.010	-0.530	0.000
2020/01/31 10:42:56.1	301.440	-0.010	-0.490	0.030
2020/01/31 10:42:56.2	301.450	-0.030	-0.450	0.060
2020/01/31 10:42:56.3	301.450	-0.050	-0.420	0.090
2020/01/31 10:42:56.4	301.460	-0.060	-0.390	0.130
2020/01/31 10:42:56.5	301.460	-0.080	-0.360	0.160
2020/01/31 10:42:56.6	301.470	-0.090	-0.330	0.200
2020/01/31 10:42:56.7	301.470	-0.100	-0.310	0.240
2020/01/31 10:42:56.8	301.460	-0.110	-0.280	0.280
2020/01/31 10:42:56.9	301.460	-0.120	-0.260	0.320
2020/01/31 10:42:57.0	301.450	-0.120	-0.240	0.360
2020/01/31 10:42:57.1	301.440	-0.130	-0.220	0.400
2020/01/31 10:42:57.2	301.430	-0.130	-0.210	0.440
2020/01/31 10:42:57.3	301.410	-0.130	-0.190	0.490
2020/01/31 10:42:57.4	301.390	-0.130	-0.180	0.530
2020/01/31 10:42:57.5	301.370	-0.130	-0.170	0.580
2020/01/31 10:42:57.6	301.340	-0.130	-0.160	0.630
2020/01/31 10:42:57.7	301.320	-0.130	-0.150	0.680
2020/01/31 10:42:57.8	301.290	-0.120	-0.140	0.730
2020/01/31 10:42:57.9	301.260	-0.120	-0.130	0.780
2020/01/31 10:42:58.0	301.230	-0.110	-0.130	0.830
2020/01/31 10:42:58.1	301.200	-0.100	-0.120	0.870
2020/01/31 10:42:58.2	301.160	-0.090	-0.120	0.920
2020/01/31 10:42:58.3	301.120	-0.080	-0.110	0.970
2020/01/31 10:42:58.4	301.080	-0.070	-0.100	1.010
2020/01/31 10:42:58.5	301.040	-0.060	-0.100	1.060
2020/01/31 10:42:58.6	301.000	-0.050	-0.090	1.100
2020/01/31 10:42:58.7	300.950	-0.040	-0.090	1.130
2020/01/31 10:42:58.8	300.910	-0.020	-0.090	1.170
2020/01/31 10:42:58.9	300.870	-0.010	-0.080	1.200
2020/01/31 10:42:59.0	300.830	-0.000	-0.080	1.230
2020/01/31 10:42:59.1	300.780	0.010	-0.070	1.250
2020/01/31 10:42:59.2	300.740	0.020	-0.070	1.270
2020/01/31 10:42:59.3	300.690	0.030	-0.060	1.290
2020/01/31 10:42:59.4	300.650	0.040	-0.050	1.300
2020/01/31 10:42:59.5	300.610	0.050	-0.050	1.310
2020/01/31 10:42:59.6	300.570	0.050	-0.040	1.310
2020/01/31 10:42:59.7	300.530	0.060	-0.030	1.310
2020/01/31 10:42:59.8	300.490	0.060	-0.010	1.310
2020/01/31 10:42:59.9	300.450	0.070	-0.000	1.300
2020/01/31 10:43:00.0	300.410	0.070	0.010	1.280
2020/01/31 10:43:00.1	300.370	0.070	0.030	1.270
2020/01/31 10:43:00.2	300.340	0.070	0.050	1.250
2020/01/31 10:43:00.3	300.310	0.070	0.060	1.220
2020/01/31 10:43:00.4	300.280	0.070	0.080	1.190
2020/01/31 10:43:00.5	300.250	0.070	0.100	1.160
2020/01/31 10:43:00.6	300.230	0.060	0.130	1.130
2020/01/31 10:43:00.7	300.200	0.060	0.150	1.100
2020/01/31 10:43:00.8	300.180	0.050	0.170	1.060
2020/01/31 10:43:00.9	300.160	0.040	0.200	1.020
2020/01/31 10:43:01.0	300.140	0.030	0.220	0.970
2020/01/31 10:43:01.1	300.130	0.020	0.250	0.930
2020/01/31 10:43:01.2	300.110	0.010	0.270	0.880
2020/01/31 10:43:01.3	300.100	-0.000	0.300	0.820
2020/01/31 10:43:01.4	300.100	-0.020	0.320	0.770
2020/01/31 10:43:01.5	300.090	-0.040	0.350	0.710
2020/01/31 10:43:01.6	300.090	-0.050	0.370	0.650
2020/01/31 10:43:01.7	300.090	-0.070	0.390	0.590
2020/01/31 10:43:01.8	300.090	-0.090	0.410	0.530
2020/01/31 10:43:01.9	300.090	-0.110	0.430	0.460
2020/01/31 10:43:02.0	300.100	-0.130	0.450	0.390
2020/01/31 10:43:02.1	300.110	-0.150	0.460	0.320
2020/01/31 10:43:02.2	300.120	-0.160	0.470	0.250
2020/01/31 10:43:02.3	300.130	-0.180	0.480	0.180
2020/01/31 10:43:02.4	300.150	-0.200	0.480	0.110
2020/01/31 10:43:02.5	300.170	-0.220	0.480	0.040
2020/01/31 10:43:02.6	300.190	-0.240	0.480	-0.030
2020/01/31 10:43:02.7	300.210	-0.250	0.480	-0.100
2020/01/31 10:43:02.8	300.230	-0.270	0.470	-0.170
2020/01/31 10:43:02.9	300.250	-0.280	0.460	-0.230
2020/01/31 10:43:03.0	300.280	-0.300	0.440	-0.290
2020/01/31 10:43:03.1	300.310	-0.310	0.420	-0.350
2020/01/31 10:43:03.2	300.330	-0.320	0.400	-0.410
2020/01/31 10:43:03.3	300.360	-0.320	0.370	-0.460
2020/01/31 10:43:03.4	300.380	-0.330	0.340	-0.510
2020/01/31 10:43:03.5	300.410	-0.330	0.310	-0.560
2020/01/31 10:43:03.6	300.440	-0.340	0.280	-0.600
2020/01/31 10:43:03.7	300.470	-0.330	0.240	-0.640
2020/01/31 10:43:03.8	300.500	-0.330	0.200	-0.670
2020/01/31 10:43:03.9	300.540	-0.330	0.160	-0.700
2020/01/31 10:43:04.0	300.570	-0.320	0.120	-0.730
2020/01/31 10:43:04.1	300.600	-0.310	0.070	-0.750
2020/01/31 10:43:04.2	300.640	-0.300	0.020	-0.770
2020/01/31 10:43:04.3	300.670	-0.290	-0.030	-0.790
2020/01/31 10:43:04.4	300.710	-0.280	-0.080	-0.800
2020/01/31 10:43:04.5	300.750	-0.260	-0.140	-0.810
2020/01/31 10:43:04.6	300.790	-0.240	-0.190	-0.820
2020/01/31 10:43:04.7	300.830	-0.220	-0.240	-0.820
2020/01/31 10:43:04.8	300.870	-0.200	-0.300	-0.830
2020/01/31 10:43:04.9	300.920	-0.180	-0.350	-0.820
2020/01/31 10:43:05.0	300.960	-0.160	-0.410	-0.820
2020/01/31 10:43:05.1	301.010	-0.130	-0.460	-0.810
2020/01/31 10:43:05.2	301.050	-0.110	-0.520	-0.800
2020/01/31 10:43:05.3	301.100	-0.090	-0.570	-0.790
2020/01/31 10:43:05.4	301.150	-0.060	-0.620	-0.760
2020/01/31 10:43:05.5	301.190	-0.040	-0.670	-0.740
2020/01/31 10:43:05.6	301.230	-0.010	-0.710	-0.720
2020/01/31 10:43:05.7	301.270	0.010	-0.750	-0.690
2020/01/31 10:43:05.8	301.310	0.040	-0.790	-0.650
2020/01/31 10:43:05.9	301.340	0.060	-0.830	-0.620
2020/01/31 10:43:06.0	301.370	0.090	-0.860	-0.580
2020/01/31 10:43:06.1	301.400	0.110	-0.890	-0.530
2020/01/31 10:43:06.2	301.430	0.130	-0.920	-0.480
2020/01/31 10:43:06.3	301.460	0.150	-0.940	-0.430
2020/01/31 10:43:06.4	301.480	0.170	-0.960	-0.380
2020/01/31 10:43:06.5	301.500	0.190	-0.980	-0.320
2020/01/31 10:43:06.6	301.520	0.210	-0.990	-0.260
2020/01/31 10:43:06.7	301.530	0.230	-1.000	-0.200
2020/01/31 10:43:06.8	301.540	0.240	-1.000	-0.140
2020/01/31 10:43:06.9	301.550	0.260	-1.010	-0.080
2020/01/31 10:43:07.0	301.560	0.270	-1.000	-0.020
2020/01/31 10:43:07.1	301.560	0.280	-1.000	0.050
2020/01/31 10:43:07.2	301.560	0.290	-0.990	0.120
2020/01/31 10:43:07.3	301.560	0.300	-0.980	0.180
2020/01/31 10:43:07.4	301.570	0.310	-0.960	0.260
2020/01/31 10:43:07.5	301.560	0.310	-0.940	0.330
2020/01/31 10:43:07.6	301.550	0.320	-0.930	0.400
2020/01/31 10:43:07.7	301.540	0.330	-0.900	0.460
2020/01/31 10:43:07.8	301.530	0.330	-0.880	0.530
2020/01/31 10:43:07.9	301.520	0.330	-0.860	0.600
2020/01/31 10:43:08.0	301.500	0.330	-0.830	0.670
2020/01/31 10:43:08.1	301.480	0.330	-0.800	0.740
2020/01/31 10:43:08.2	301.460	0.330	-0.780	0.800
2020/01/31 10:43:08.3	301.440	0.330	-0.750	0.870
2020/01/31 10:43:08.4	301.410	0.330	-0.720	0.930
2020/01/31 10:43:08.5	301.390	0.330	-0.690	0.990
2020/01/31 10:43:08.6	301.360	0.330	-0.660	1.050
2020/01/31 10:43:08.7	301.340	0.320	-0.640	1.100
2020/01/31 10:43:08.8	301.310	0.320	-0.610	1.150
2020/01/31 10:43:08.9	301.280	0.310	-0.580	1.200
2020/01/31 10:43:09.0	301.250	0.310	-0.560	1.240
2020/01/31 10:43:09.1	301.230	0.300	-0.530	1.280
2020/01/31 10:43:09.2	301.200	0.300	-0.510	1.320
2020/01/31 10:43:09.3	301.170	0.290	-0.490	1.350
2020/01/31 10:43:09.4	301.130	0.290	-0.460	1.380
2020/01/31 10:43:09.5	301.100	0.280	-0.440	1.400
2020/01/31 10:43:09.6	301.080	0.270	-0.430	1.420
2020/01/31 10:43:09.7	301.050	0.270	-0.410	1.430
2020/01/31 10:43:09.8	301.030	0.260	-0.400	1.440
2020/01/31 10:43:09.9	301.000	0.250	-0.390	1.450
2020/01/31 10:43:10.0	300.980	0.250	-0.370	1.450
2020/01/31 10:43:10.1	300.950	0.240	-0.360	1.450
2020/01/31 10:43:10.2	300.930	0.240	-0.350	1.450
2020/01/31 10:43:10.3	300.910	0.230	-0.350	1.440
2020/01/31 10:43:10.4	300.890	0.220	-0.340	1.430
2020/01/31 10:43:10.5	300.870	0.220	-0.330	1.420
2020/01/31 10:43:10.6	300.850	0.210	-0.330	1.410
2020/01/31 10:43:10.7	300.830	0.210	-0.320	1.390
2020/01/31 10:43:10.8	300.810	0.200	-0.310	1.380
2020/01/31 10:43:10.9	300.790	0.200	-0.300	1.360
2020/01/31 10:43:11.0	300.780	0.190	-0.290	1.340
2020/01/31 10:43:11.1	300.760	0.190	-0.280	1.310
2020/01/31 10:43:11.2	300.750	0.180	-0.270	1.290
2020/01/31 10:43:11.3	300.740	0.170	-0.260	1.270
2020/01/31 10:43:11.4	300.720	0.170	-0.240	1.240
2020/01/31 10:43:11.5	300.710	0.160	-0.230	1.210
2020/01/31 10:43:11.6	300.700	0.160	-0.210	1.180
2020/01/31 10:43:11.7	300.700	0.150	-0.200	1.150
2020/01/31 10:43:11.8	300.700	0.140	-0.180	1.120
2020/01/31 10:43:11.9	300.690	0.140	-0.160	1.080
2020/01/31 10:43:12.0	300.690	0.130	-0.140	1.040
2020/01/31 10:43:12.1	300.700	0.120	-0.120	1.010
2020/01/31 10:43:12.2	300.700	0.110	-0.100	0.960
2020/01/31 10:43:12.3	300.700	0.100	-0.080	0.920
2020/01/31 10:43:12.4	300.710	0.090	-0.060	0.880
2020/01/31 10:43:12.5	300.720	0.080	-0.030	0.830
2020/01/31 10:43:12.6	300.730	0.070	-0.010	0.780
2020/01/31 10:43:12.7	300.740	0.060	0.010	0.730
2020/01/31 10:43:12.8	300.750	0.040	0.040	0.680
2020/01/31 10:43:12.9	300.770	0.030	0.060	0.630
2020/01/31 10:43:13.0	300.780	0.020	0.090	0.570
2020/01/31 10:43:13.1	300.790	0.000	0.110	0.510
2020/01/31 10:43:13.2	300.810	-0.010	0.130	0.460
2020/01/31 10:43:13.3	300.830	-0.030	0.150	0.400
2020/01/31 10:43:13.4	300.840	-0.050	0.170	0.330
2020/01/31 10:43:13.5	300.860	-0.070	0.190	0.270
2020/01/31 10:43:13.6	300.880	-0.080	0.210	0.210
2020/01/31 10:43:13.7	300.900	-0.100	0.230	0.150
2020/01/31 10:43:13.8	300.910	-0.120	0.240	0.090
2020/01/31 10:43:13.9	300.930	-0.140	0.260	0.020
2020/01/31 10:43:14.0	300.950	-0.160	0.270	-0.040
2020/01/31 10:43:14.1	300.970	-0.180	0.280	-0.100
2020/01/31 10:43:14.2	300.990	-0.190	0.290	-0.150
2020/01/31 10:43:14.3	301.010	-0.210	0.290	-0.210
2020/01/31 10:43:14.4	301.020	-0.230	0.290	-0.270
2020/01/31 10:43:14.5	301.040	-0.250	0.300	-0.320
2020/01/31 10:43:14.6	301.060	-0.270	0.300	-0.380
2020/01/31 10:43:14.7	301.080	-0.280	0.290	-0.430
2020/01/31 10:43:14.8	301.100	-0.300	0.290	-0.470
2020/01/31 10:43:14.9	301.120	-0.310	0.280	-0.520
2020/01/31 10:43:15.0	301.140	-0.320	0.280	-0.560
2020/01/31 10:43:15.1	301.160	-0.340	0.270	-0.600
2020/01/31 10:43:15.2	301.180	-0.350	0.250	-0.640
2020/01/31 10:43:15.3	301.200	-0.360	0.240	-0.680
2020/01/31 10:43:15.4	301.220	-0.370	0.220	-0.710
2020/01/31 10:43:15.5	301.240	-0.380	0.210	-0.740
2020/01/31 10:43:15.6	301.260	-0.380	0.190	-0.760
2020/01/31 10:43:15.7	301.280	-0.390	0.170	-0.780
2020/01/31 10:43:15.8	301.290	-0.390	0.160	-0.800
2020/01/31 10:43:15.9	301.310	-0.390	0.140	-0.810
2020/01/31 10:43:16.0	301.330	-0.390	0.120	-0.820
2020/01/31 10:43:16.1	301.350	-0.390	0.090	-0.830
2020/01/31 10:43:16.2	301.370	-0.390	0.070	-0.830
2020/01/31 10:43:16.3	301.380	-0.390	0.050	-0.820
2020/01/31 10:43:16.4	301.400	-0.380	0.030	-0.820
2020/01/31 10:43:16.5	301.410	-0.380	0.000	-0.810
2020/01/31 10:43:16.6	301.430	-0.370	-0.020	-0.790
2020/01/31 10:43:16.7	301.440	-0.360	-0.040	-0.780
2020/01/31 10:43:16.8	301.460	-0.350	-0.070	-0.750
2020/01/31 10:43:16.9	301.470	-0.350	-0.090	-0.730
2020/01/31 10:43:17.0	301.490	-0.340	-0.120	-0.700
2020/01/31 10:43:17.1	301.500	-0.330	-0.140	-0.670
2020/01/31 10:43:17.2	301.520	-0.310	-0.170	-0.640
2020/01/31 10:43:17.3	301.530	-0.300	-0.190	-0.600
2020/01/31 10:43:17.4	301.540	-0.290	-0.220	-0.550
2020/01/31 10:43:17.5	301.550	-0.280	-0.240	-0.510
2020/01/31 10:43:17.6	301.560	-0.270	-0.270	-0.470
2020/01/31 10:43:17.7	301.570	-0.260	-0.290	-0.420
2020/01/31 10:43:17.8	301.570	-0.250	-0.310	-0.370
2020/01/31 10:43:17.9	301.580	-0.240	-0.330	-0.320
2020/01/31 10:43:18.0	301.580	-0.220	-0.350	-0.270
2020/01/31 10:43:18.1	301.580	-0.210	-0.370	-0.220
2020/01/31 10:43:18.2	301.580	-0.200	-0.380	-0.170
2020/01/31 10:43:18.3	301.580	-0.190	-0.400	-0.110
2020/01/31 10:43:18.4	301.580	-0.180	-0.410	-0.050
2020/01/31 10:43:18.5	301.570	-0.170	-0.420	0.000
2020/01/31 10:43:18.6	301.560	-0.160	-0.430	0.060
2020/01/31 10:43:18.7	301.550	-0.150	-0.440	0.120
2020/01/31 10:43:18.8	301.540	-0.140	-0.440	0.170
2020/01/31 10:43:18.9	301.520	-0.130	-0.450	0.230
2020/01/31 10:43:19.0	301.510	-0.120	-0.450	0.290
2020/01/31 10:43:19.1	301.490	-0.110	-0.450	0.340
2020/01/31 10:43:19.2	301.480	-0.100	-0.450	0.400
2020/01/31 10:43:19.3	301.460	-0.090	-0.450	0.450
2020/01/31 10:43:19.4	301.440	-0.080	-0.450	0.500
2020/01/31 10:43:19.5	301.420	-0.070	-0.450	0.550
2020/01/31 10:43:19.6	301.400	-0.060	-0.450	0.600
2020/01/31 10:43:19.7	301.390	-0.050	-0.450	0.640
2020/01/31 10:43:19.8	301.370	-0.040	-0.440	0.690
2020/01/31 10:43:19.9	301.350	-0.030	-0.440	0.730
2020/01/31 10:43:20.0	301.340	-0.020	-0.440	0.770
2020/01/31 10:43:20.1	301.330	-0.000	-0.440	0.800
2020/01/31 10:43:20.2	301.310	0.010	-0.440	0.830
2020/01/31 10:43:20.3	301.300	0.020	-0.440	0.860
2020/01/31 10:43:20.4	301.280	0.040	-0.440	0.890
2020/01/31 10:43:20.5	301.270	0.050	-0.440	0.910
2020/01/31 10:43:20.6	301.260	0.070	-0.440	0.940
2020/01/31 10:43:20.7	301.260	0.080	-0.450	0.950
2020/01/31 10:43:20.8	301.250	0.100	-0.450	0.970
2020/01/31 10:43:20.9	301.250	0.120	-0.460	0.980
2020/01/31 10:43:21.0	301.240	0.130	-0.460	0.990
2020/01/31 10:43:21.1	301.240	0.150	-0.470	1.000
2020/01/31 10:43:21.2	301.230	0.160	-0.480	1.010
2020/01/31 10:43:21.3	301.230	0.180	-0.480	1.020
2020/01/31 10:43:21.4	301.210	0.200	-0.500	1.020
2020/01/31 10:43:21.5	301.210	0.210	-0.500	1.020
2020/01/31 10:43:21.6	301.210	0.230	-0.510	1.020
2020/01/31 10:43:21.7	301.200	0.240	-0.520	1.020
2020/01/31 10:43:21.8	301.200	0.260	-0.530	1.020
2020/01/31 10:43:21.9	301.190	0.270	-0.540	1.020
2020/01/31 10:43:22.0	301.180	0.290	-0.540	1.020
2020/01/31 10:43:22.1	301.180	0.300	-0.550	1.010
2020/01/31 10:43:22.2	301.170	0.310	-0.560	1.000
2020/01/31 10:43:22.3	301.170	0.320	-0.560	0.990
2020/01/31 10:43:22.4	301.160	0.340	-0.570	0.990
2020/01/31 10:43:22.5	301.150	0.350	-0.570	0.970
2020/01/31 10:43:22.6	301.150	0.360	-0.580	0.960
2020/01/31 10:43:22.7	301.140	0.370	-0.580	0.940
2020/01/31 10:43:22.8	301.130	0.380	-0.580	0.930
2020/01/31 10:43:22.9	301.130	0.380	-0.590	0.910
2020/01/31 10:43:23.0	301.120	0.390	-0.590	0.890
2020/01/31 10:43:23.1	301.110	0.400	-0.590	0.860
2020/01/31 10:43:23.2	301.110	0.400	-0.580	0.840
2020/01/31 10:43:23.3	301.100	0.410	-0.580	0.820
2020/01/31 10:43:23.4	301.100	0.410	-0.580	0.790
2020/01/31 10:43:23.5	301.090	0.410	-0.570	0.760
2020/01/31 10:43:23.6	301.080	0.420	-0.570	0.740
2020/01/31 10:43:23.7	301.070	0.420	-0.560	0.710
2020/01/31 10:43:23.8	301.060	0.420	-0.540	0.690
2020/01/31 10:43:23.9	301.050	0.420	-0.530	0.660
2020/01/31 10:43:24.0	301.050	0.410	-0.510	0.640
2020/01/31 10:43:24.1	301.030	0.410	-0.500	0.610
2020/01/31 10:43:24.2	301.020	0.410	-0.480	0.590
2020/01/31 10:43:24.3	301.010	0.400	-0.450	0.560
2020/01/31 10:43:24.4	301.000	0.400	-0.430	0.540
2020/01/31 10:43:24.5	300.990	0.390	-0.410	0.520
2020/01/31 10:43:24.6	300.980	0.380	-0.380	0.500
2020/01/31 10:43:24.7	300.970	0.370	-0.350	0.480
2020/01/31 10:43:24.8	300.960	0.360	-0.320	0.470
2020/01/31 10:43:24.9	300.950	0.350	-0.290	0.450
2020/01/31 10:43:25.0	300.940	0.340	-0.260	0.430
2020/01/31 10:43:25.1	300.930	0.330	-0.230	0.420
2020/01/31 10:43:25.2	300.920	0.320	-0.200	0.410
2020/01/31 10:43:25.3	300.920	0.310	-0.160	0.400
2020/01/31 10:43:25.4	300.910	0.300	-0.130	0.380
2020/01/31 10:43:25.5	300.900	0.280	-0.100	0.370
2020/01/31 10:43:25.6	300.900	0.270	-0.070	0.360
2020/01/31 10:43:25.7	300.890	0.250	-0.040	0.360
2020/01/31 10:43:25.8	300.890	0.240	-0.010	0.350
2020/01/31 10:43:25.9	300.890	0.230	0.010	0.340
2020/01/31 10:43:26.0	300.890	0.210	0.040	0.340
2020/01/31 10:43:26.1	300.890	0.190	0.060	0.330
2020/01/31 10:43:26.2	300.890	0.180	0.080	0.320
2020/01/31 10:43:26.3	300.890	0.160	0.100	0.320
2020/01/31 10:43:26.4	300.900	0.150	0.110	0.320
2020/01/31 10:43:26.5	300.900	0.130	0.120	0.310
2020/01/31 10:43:26.6	300.910	0.110	0.130	0.300
2020/01/31 10:43:26.7	300.910	0.100	0.140	0.300
2020/01/31 10:43:26.8	300.920	0.080	0.150	0.290
2020/01/31 10:43:26.9	300.930	0.060	0.150	0.280
2020/01/31 10:43:27.0	300.940	0.040	0.150	0.270
2020/01/31 10:43:27.1	300.960	0.020	0.150	0.260
2020/01/31 10:43:27.2	300.970	0.010	0.150	0.250
2020/01/31 10:43:27.3	300.980	-0.010	0.150	0.240
2020/01/31 10:43:27.4	300.990	-0.030	0.140	0.220
2020/01/31 10:43:27.5	301.010	-0.050	0.140	0.210
2020/01/31 10:43:27.6	301.020	-0.070	0.130	0.190
2020/01/31 10:43:27.7	301.040	-0.090	0.120	0.180
2020/01/31 10:43:27.8	301.050	-0.110	0.110	0.170
2020/01/31 10:43:27.9	301.070	-0.140	0.100	0.160
2020/01/31 10:43:28.0	301.080	-0.160	0.090	0.150
2020/01/31 10:43:28.1	301.100	-0.180	0.080	0.140
2020/01/31 10:43:28.2	301.110	-0.200	0.080	0.140
2020/01/31 10:43:28.3	301.130	-0.220	0.070	0.130
2020/01/31 10:43:28.4	301.140	-0.240	0.050	0.130
2020/01/31 10:43:28.5	301.150	-0.260	0.040	0.130
2020/01/31 10:43:28.6	301.160	-0.280	0.030	0.130
2020/01/31 10:43:28.7	301.170	-0.300	0.020	0.130
2020/01/31 10:43:28.8	301.190	-0.320	0.010	0.130
2020/01/31 10:43:28.9	301.200	-0.340	0.000	0.130
2020/01/31 10:43:29.0	301.210	-0.360	-0.010	0.140
2020/01/31 10:43:29.1	301.220	-0.380	-0.020	0.140
2020/01/31 10:43:29.2	301.230	-0.400	-0.030	0.150
2020/01/31 10:43:29.3	301.240	-0.410	-0.040	0.150
2020/01/31 10:43:29.4	301.250	-0.430	-0.060	0.160
2020/01/31 10:43:29.5	301.270	-0.440	-0.070	0.160
2020/01/31 10:43:29.6	301.280	-0.450	-0.090	0.170
2020/01/31 10:43:29.7	301.290	-0.460	-0.110	0.180
2020/01/31 10:43:29.8	301.310	-0.470	-0.120	0.180
2020/01/31 10:43:29.9	301.320	-0.480	-0.140	0.190
2020/01/31 10:43:30.0	301.330	-0.490	-0.160	0.190
2020/01/31 10:43:30.1	301.350	-0.490	-0.180	0.200
2020/01/31 10:43:30.2	301.360	-0.490	-0.210	0.210
2020/01/31 10:43:30.3	301.370	-0.490	-0.230	0.220
2020/01/31 10:43:30.4	301.380	-0.490	-0.250	0.220
2020/01/31 10:43:30.5	301.390	-0.490	-0.270	0.230
2020/01/31 10:43:30.6	301.400	-0.480	-0.290	0.240
2020/01/31 10:43:30.7	301.410	-0.470	-0.310	0.250
2020/01/31 10:43:30.8	301.420	-0.460	-0.330	0.270
2020/01/31 10:43:30.9	301.430	-0.450	-0.350	0.280
2020/01/31 10:43:31.0	301.430	-0.440	-0.370	0.300
2020/01/31 10:43:31.1	301.440	-0.430	-0.380	0.320
2020/01/31 10:43:31.2	301.440	-0.410	-0.390	0.340
2020/01/31 10:43:31.3	301.440	-0.400	-0.410	0.360
2020/01/31 10:43:31.4	301.440	-0.380	-0.420	0.380
2020/01/31 10:43:31.5	301.430	-0.360	-0.430	0.410
2020/01/31 10:43:31.6	301.430	-0.350	-0.430	0.430
2020/01/31 10:43:31.7	301.420	-0.330	-0.440	0.460
2020/01/31 10:43:31.8	301.420	-0.310	-0.440	0.480
2020/01/31 10:43:31.9	301.410	-0.290	-0.450	0.510
2020/01/31 10:43:32.0	301.390	-0.270	-0.450	0.530
2020/01/31 10:43:32.1	301.380	-0.250	-0.450	0.560
2020/01/31 10:43:32.2	301.360	-0.230	-0.450	0.590
2020/01/31 10:43:32.3	301.340	-0.210	-0.450	0.610
2020/01/31 10:43:32.4	301.320	-0.190	-0.440	0.640
2020/01/31 10:43:32.5	301.300	-0.170	-0.440	0.670
2020/01/31 10:43:32.6	301.280	-0.150	-0.430	0.690
2020/01/31 10:43:32.7	301.250	-0.130	-0.430	0.720
2020/01/31 10:43:32.8	301.220	-0.110	-0.420	0.740
2020/01/31 10:43:32.9	301.190	-0.100	-0.410	0.770
2020/01/31 10:43:33.0	301.150	-0.080	-0.400	0.800
2020/01/31 10:43:33.1	301.120	-0.060	-0.390	0.820
2020/01/31 10:43:33.2	301.080	-0.050	-0.380	0.850
2020/01/31 10:43:33.3	301.040	-0.030	-0.370	0.870
2020/01/31 10:43:33.4	301.010	-0.020	-0.350	0.900
2020/01/31 10:43:33.5	300.970	-0.000	-0.340	0.920
2020/01/31 10:43:33.6	300.930	0.010	-0.320	0.950
2020/01/31 10:43:33.7	300.880	0.020	-0.310	0.970
2020/01/31 10:43:33.8	300.840	0.030	-0.300	1.000
2020/01/31 10:43:33.9	300.800	0.050	-0.280	1.020
2020/01/31 10:43:34.0	300.750	0.060	-0.270	1.040
2020/01/31 10:43:34.1	300.710	0.070	-0.260	1.060
2020/01/31 10:43:34.2	300.670	0.080	-0.240	1.070
2020/01/31 10:43:34.3	300.620	0.090	-0.230	1.090
2020/01/31 10:43:34.4	300.590	0.090	-0.230	1.110
2020/01/31 10:43:34.5	300.550	0.100	-0.220	1.120
2020/01/31 10:43:34.6	300.510	0.110	-0.210	1.130
2020/01/31 10:43:34.7	300.470	0.120	-0.200	1.140
2020/01/31 10:43:34.8	300.430	0.130	-0.200	1.140
2020/01/31 10:43:34.9	300.400	0.130	-0.190	1.140
2020/01/31 10:43:35.0	300.360	0.140	-0.190	1.140
2020/01/31 10:43:35.1	300.330	0.150	-0.190	1.140
2020/01/31 10:43:35.2	300.300	0.160	-0.190	1.140
2020/01/31 10:43:35.3	300.270	0.160	-0.190	1.130
2020/01/31 10:43:35.4	300.250	0.170	-0.190	1.120
2020/01/31 10:43:35.5	300.230	0.180	-0.200	1.110
2020/01/31 10:43:35.6	300.200	0.190	-0.210	1.090
2020/01/31 10:43:35.7	300.190	0.200	-0.220	1.070
2020/01/31 10:43:35.8	300.170	0.210	-0.230	1.050
2020/01/31 10:43:35.9	300.160	0.220	-0.240	1.020
2020/01/31 10:43:36.0	300.150	0.230	-0.250	0.990
2020/01/31 10:43:36.1	300.140	0.240	-0.270	0.960
2020/01/31 10:43:36.2	300.140	0.260	-0.280	0.920
2020/01/31 10:43:36.3	300.140	0.270	-0.300	0.890
2020/01/31 10:43:36.4	300.140	0.280	-0.310	0.850
2020/01/31 10:43:36.5	300.150	0.300	-0.330	0.810
2020/01/31 10:43:36.6	300.160	0.310	-0.350	0.770
2020/01/31 10:43:36.7	300.170	0.330	-0.360	0.720
2020/01/31 10:43:36.8	300.190	0.340	-0.380	0.670
2020/01/31 10:43:36.9	300.210	0.350	-0.400	0.630
2020/01/31 10:43:37.0	300.230	0.370	-0.420	0.580
2020/01/31 10:43:37.1	300.250	0.380	-0.430	0.530
2020/01/31 10:43:37.2	300.280	0.390	-0.450	0.480
2020/01/31 10:43:37.3	300.310	0.400	-0.460	0.430
2020/01/31 10:43:37.4	300.340	0.420	-0.480	0.380
2020/01/31 10:43:37.5	300.380	0.420	-0.490	0.330
2020/01/31 10:43:37.6	300.410	0.430	-0.500	0.280
2020/01/31 10:43:37.7	300.450	0.440	-0.510	0.240
2020/01/31 10:43:37.8	300.490	0.440	-0.520	0.190
2020/01/31 10:43:37.9	300.540	0.440	-0.520	0.140
2020/01/31 10:43:38.0	300.580	0.440	-0.520	0.100
2020/01/31 10:43:38.1	300.620	0.440	-0.520	0.060
2020/01/31 10:43:38.2	300.670	0.430	-0.510	0.020
2020/01/31 10:43:38.3	300.710	0.420	-0.510	-0.020
2020/01/31 10:43:38.4	300.760	0.410	-0.500	-0.050
2020/01/31 10:43:38.5	300.810	0.400	-0.480	-0.080
2020/01/31 10:43:38.6	300.850	0.390	-0.470	-0.110
2020/01/31 10:43:38.7	300.900	0.370	-0.450	-0.140
2020/01/31 10:43:38.8	300.950	0.350	-0.430	-0.160
2020/01/31 10:43:38.9	300.990	0.330	-0.410	-0.180
2020/01/31 10:43:39.0	301.040	0.310	-0.380	-0.200
2020/01/31 10:43:39.1	301.080	0.280	-0.360	-0.210
2020/01/31 10:43:39.2	301.130	0.250	-0.330	-0.220
2020/01/31 10:43:39.3	301.170	0.230	-0.300	-0.230
2020/01/31 10:43:39.4	301.210	0.200	-0.260	-0.230
2020/01/31 10:43:39.5	301.250	0.170	-0.230	-0.230
2020/01/31 10:43:39.6	301.290	0.130	-0.190	-0.230
2020/01/31 10:43:39.7	301.330	0.100	-0.160	-0.220
2020/01/31 10:43:39.8	301.370	0.070	-0.120	-0.210
2020/01/31 10:43:39.9	301.400	0.040	-0.080	-0.200
2020/01/31 10:43:40.0	301.430	0.010	-0.040	-0.180
2020/01/31 10:43:40.1	301.460	-0.030	-0.000	-0.170
2020/01/31 10:43:40.2	301.490	-0.060	0.030	-0.150
2020/01/31 10:43:40.3	301.510	-0.090	0.070	-0.120
2020/01/31 10:43:40.4	301.540	-0.120	0.110	-0.100
2020/01/31 10:43:40.5	301.560	-0.150	0.140	-0.070
2020/01/31 10:43:40.6	301.580	-0.170	0.180	-0.040
2020/01/31 10:43:40.7	301.590	-0.200	0.210	-0.010
2020/01/31 10:43:40.8	301.590	-0.220	0.240	0.030
2020/01/31 10:43:40.9	301.600	-0.240	0.270	0.060
2020/01/31 10:43:41.0	301.600	-0.260	0.290	0.100
2020/01/31 10:43:41.1	301.590	-0.280	0.320	0.140
2020/01/31 10:43:41.2	301.590	-0.290	0.340	0.170
2020/01/31 10:43:41.3	301.580	-0.310	0.350	0.210
2020/01/31 10:43:41.4	301.570	-0.320	0.360	0.250
2020/01/31 10:43:41.5	301.560	-0.330	0.370	0.290
2020/01/31 10:43:41.6	301.540	-0.330	0.370	0.330
2020/01/31 10:43:41.7	301.520	-0.340	0.370	0.370
2020/01/31 10:43:41.8	301.500	-0.340	0.360	0.410
2020/01/31 10:43:41.9	301.480	-0.340	0.350	0.440
2020/01/31 10:43:42.0	301.460	-0.340	0.340	0.470
2020/01/31 10:43:42.1	301.430	-0.340	0.320	0.500
2020/01/31 10:43:42.2	301.410	-0.330	0.290	0.530
2020/01/31 10:43:42.3	301.380	-0.330	0.260	0.550
2020/01/31 10:43:42.4	301.360	-0.320	0.220	0.570
2020/01/31 10:43:42.5	301.330	-0.310	0.180	0.590
2020/01/31 10:43:42.6	301.300	-0.300	0.140	0.610
2020/01/31 10:43:42.7	301.270	-0.290	0.090	0.620
2020/01/31 10:43:42.8	301.240	-0.270	0.040	0.630
2020/01/31 10:43:42.9	301.210	-0.260	-0.010	0.640
2020/01/31 10:43:43.0	301.180	-0.250	-0.070	0.640
2020/01/31 10:43:43.1	301.150	-0.230	-0.130	0.640
2020/01/31 10:43:43.2	301.110	-0.220	-0.190	0.640
2020/01/31 10:43:43.3	301.080	-0.200	-0.250	0.630
2020/01/31 10:43:43.4	301.060	-0.190	-0.310	0.630
2020/01/31 10:43:43.5	301.030	-0.170	-0.370	0.610
2020/01/31 10:43:43.6	301.000	-0.160	-0.440	0.600
2020/01/31 10:43:43.7	300.960	-0.140	-0.500	0.580
2020/01/31 10:43:43.8	300.930	-0.130	-0.560	0.560
2020/01/31 10:43:43.9	300.900	-0.110	-0.620	0.540
2020/01/31 10:43:44.0	300.860	-0.100	-0.670	0.520
2020/01/31 10:43:44.1	300.830	-0.090	-0.720	0.490
2020/01/31 10:43:44.2	300.800	-0.080	-0.770	0.460
2020/01/31 10:43:44.3	300.770	-0.060	-0.820	0.440
2020/01/31 10:43:44.4	300.750	-0.050	-0.860	0.410
2020/01/31 10:43:44.5	300.720	-0.040	-0.900	0.380
2020/01/31 10:43:44.6	300.700	-0.030	-0.940	0.350
2020/01/31 10:43:44.7	300.670	-0.030	-0.960	0.320
2020/01/31 10:43:44.8	300.650	-0.020	-0.990	0.290
2020/01/31 10:43:44.9	300.620	-0.010	-1.010	0.250
2020/01/31 10:43:45.0	300.600	-0.010	-1.020	0.220
2020/01/31 10:43:45.1	300.570	-0.000	-1.030	0.190
2020/01/31 10:43:45.2	300.550	-0.000	-1.040	0.160
2020/01/31 10:43:45.3	300.530	0.000	-1.030	0.130
2020/01/31 10:43:45.4	300.500	0.000	-1.040	0.100
2020/01/31 10:43:45.5	300.480	0.000	-1.020	0.070
2020/01/31 10:43:45.6	300.470	0.000	-1.010	0.050
2020/01/31 10:43:45.7	300.450	-0.000	-0.990	0.020
2020/01/31 10:43:45.8	300.440	-0.000	-0.960	-0.010
2020/01/31 10:43:45.9	300.420	-0.010	-0.930	-0.030
2020/01/31 10:43:46.0	300.410	-0.010	-0.900	-0.050
2020/01/31 10:43:46.1	300.400	-0.020	-0.870	-0.070
2020/01/31 10:43:46.2	300.390	-0.020	-0.830	-0.090
2020/01/31 10:43:46.3	300.380	-0.030	-0.790	-0.110
2020/01/31 10:43:46.4	300.370	-0.030	-0.740	-0.120
2020/01/31 10:43:46.5	300.360	-0.040	-0.690	-0.130
2020/01/31 10:43:46.6	300.360	-0.050	-0.650	-0.140
2020/01/31 10:43:46.7	300.350	-0.050	-0.600	-0.150
2020/01/31 10:43:46.8	300.350	-0.060	-0.560	-0.160
2020/01/31 10:43:46.9	300.350	-0.060	-0.510	-0.160
2020/01/31 10:43:47.0	300.350	-0.070	-0.470	-0.160
2020/01/31 10:43:47.1	300.360	-0.070	-0.420	-0.160
2020/01/31 10:43:47.2	300.360	-0.080	-0.380	-0.160
2020/01/31 10:43:47.3	300.370	-0.080	-0.340	-0.160
2020/01/31 10:43:47.4	300.380	-0.090	-0.300	-0.160
2020/01/31 10:43:47.5	300.390	-0.090	-0.260	-0.150
2020/01/31 10:43:47.6	300.400	-0.090	-0.230	-0.140
2020/01/31 10:43:47.7	300.410	-0.090	-0.200	-0.140
2020/01/31 10:43:47.8	300.430	-0.090	-0.160	-0.130
2020/01/31 10:43:47.9	300.440	-0.090	-0.130	-0.120
2020/01/31 10:43:48.0	300.460	-0.090	-0.100	-0.120
2020/01/31 10:43:48.1	300.480	-0.090	-0.080	-0.110
2020/01/31 10:43:48.2	300.500	-0.090	-0.050	-0.100
2020/01/31 10:43:48.3	300.520	-0.090	-0.030	-0.080
2020/01/31 10:43:48.4	300.560	-0.080	-0.010	-0.070
2020/01/31 10:43:48.5	300.580	-0.080	0.010	-0.050
2020/01/31 10:43:48.6	300.600	-0.070	0.030	-0.040
2020/01/31 10:43:48.7	300.630	-0.070	0.050	-0.020
2020/01/31 10:43:48.8	300.650	-0.060	0.070	0.000
2020/01/31 10:43:48.9	300.670	-0.050	0.080	0.020
2020/01/31 10:43:49.0	300.700	-0.050	0.100	0.040
2020/01/31 10:43:49.1	300.720	-0.040	0.120	0.070
2020/01/31 10:43:49.2	300.750	-0.030	0.130	0.090
2020/01/31 10:43:49.3	300.770	-0.020	0.150	0.120
2020/01/31 10:43:49.4	300.800	-0.010	0.160	0.150
2020/01/31 10:43:49.5	300.830	-0.000	0.180	0.170
2020/01/31 10:43:49.6	300.850	0.000	0.190	0.200
2020/01/31 10:43:49.7	300.880	0.010	0.200	0.230
2020/01/31 10:43:49.8	300.900	0.020	0.220	0.260
2020/01/31 10:43:49.9	300.920	0.030	0.230	0.280
2020/01/31 10:43:50.0	300.950	0.040	0.250	0.310
2020/01/31 10:43:50.1	300.970	0.050	0.260	0.340
2020/01/31 10:43:50.2	300.990	0.060	0.280	0.370
2020/01/31 10:43:50.3	301.010	0.060	0.290	0.390
2020/01/31 10:43:50.4	301.030	0.070	0.300	0.420
2020/01/31 10:43:50.5	301.050	0.080	0.320	0.450
2020/01/31 10:43:50.6	301.070	0.080	0.330	0.470
2020/01/31 10:43:50.7	301.080	0.090	0.350	0.500
2020/01/31 10:43:50.8	301.090	0.090	0.360	0.520
2020/01/31 10:43:50.9	301.110	0.100	0.370	0.540
2020/01/31 10:43:51.0	301.120	0.100	0.390	0.560
2020/01/31 10:43:51.1	301.120	0.100	0.400	0.590
2020/01/31 10:43:51.2	301.130	0.110	0.410	0.600
2020/01/31 10:43:51.3	301.140	0.110	0.420	0.620
2020/01/31 10:43:51.4	301.130	0.110	0.430	0.640
2020/01/31 10:43:51.5	301.140	0.110	0.440	0.650
2020/01/31 10:43:51.6	301.140	0.110	0.440	0.660
2020/01/31 10:43:51.7	301.140	0.110	0.450	0.670
2020/01/31 10:43:51.8	301.140	0.110	0.450	0.680
2020/01/31 10:43:51.9	301.150	0.100	0.450	0.690
2020/01/31 10:43:52.0	301.150	0.100	0.440	0.690
2020/01/31 10:43:52.1	301.150	0.100	0.440	0.690
2020/01/31 10:43:52.2	301.150	0.100	0.420	0.690
2020/01/31 10:43:52.3	301.150	0.090	0.410	0.680
2020/01/31 10:43:52.4	301.150	0.090	0.390	0.680
2020/01/31 10:43:52.5	301.160	0.090	0.370	0.660
2020/01/31 10:43:52.6	301.160	0.080	0.340	0.650
2020/01/31 10:43:52.7	301.160	0.080	0.310	0.630
2020/01/31 10:43:52.8	301.170	0.080	0.280	0.610
2020/01/31 10:43:52.9	301.170	0.070	0.240	0.590
2020/01/31 10:43:53.0	301.180	0.070	0.210	0.560
2020/01/31 10:43:53.1	301.180	0.070	0.160	0.540
2020/01/31 10:43:53.2	301.190	0.070	0.120	0.510
2020/01/31 10:43:53.3	301.190	0.060	0.070	0.480
2020/01/31 10:43:53.4	301.200	0.060	0.020	0.450
2020/01/31 10:43:53.5	301.200	0.060	-0.030	0.430
2020/01/31 10:43:53.6	301.210	0.060	-0.090	0.400
2020/01/31 10:43:53.7	301.210	0.060	-0.140	0.370
2020/01/31 10:43:53.8	301.210	0.060	-0.200	0.350
2020/01/31 10:43:53.9	301.210	0.060	-0.260	0.320
2020/01/31 10:43:54.0	301.210	0.050	-0.310	0.290
2020/01/31 10:43:54.1	301.210	0.050	-0.370	0.270
2020/01/31 10:43:54.2	301.210	0.050	-0.430	0.250
2020/01/31 10:43:54.3	301.210	0.050	-0.490	0.220
2020/01/31 10:43:54.4	301.210	0.050	-0.550	0.200
2020/01/31 10:43:54.5	301.210	0.050	-0.610	0.180
2020/01/31 10:43:54.6	301.200	0.050	-0.660	0.160
2020/01/31 10:43:54.7	301.200	0.050	-0.710	0.140
2020/01/31 10:43:54.8	301.200	0.050	-0.770	0.120
2020/01/31 10:43:54.9	301.190	0.050	-0.820	0.110
2020/01/31 10:43:55.0	301.190	0.050	-0.860	0.090
2020/01/31 10:43:55.1	301.180	0.050	-0.910	0.080
2020/01/31 10:43:55.2	301.180	0.050	-0.950	0.060
2020/01/31 10:43:55.3	301.170	0.040	-0.990	0.050
2020/01/31 10:43:55.4	301.160	0.040	-1.040	0.040
2020/01/31 10:43:55.5	301.160	0.040	-1.070	0.030
2020/01/31 10:43:55.6	301.150	0.040	-1.100	0.020
2020/01/31 10:43:55.7	301.150	0.030	-1.130	0.010
2020/01/31 10:43:55.8	301.140	0.030	-1.150	0.000
2020/01/31 10:43:55.9	301.140	0.030	-1.170	-0.010
2020/01/31 10:43:56.0	301.130	0.020	-1.190	-0.010
2020/01/31 10:43:56.1	301.130	0.020	-1.200	-0.010
2020/01/31 10:43:56.2	301.120	0.010	-1.210	-0.010
2020/01/31 10:43:56.3	301.120	0.000	-1.210	-0.010
2020/01/31 10:43:56.4	301.120	-0.000	-1.210	-0.010
2020/01/31 10:43:56.5	301.110	-0.010	-1.210	-0.000
2020/01/31 10:43:56.6	301.110	-0.020	-1.200	0.000
2020/01/31 10:43:56.7	301.100	-0.020	-1.190	0.010
2020/01/31 10:43:56.8	301.090	-0.030	-1.180	0.020
2020/01/31 10:43:56.9	301.080	-0.040	-1.160	0.030
2020/01/31 10:43:57.0	301.070	-0.050	-1.130	0.050
2020/01/31 10:43:57.1	301.060	-0.050	-1.110	0.060
2020/01/31 10:43:57.2	301.050	-0.060	-1.080	0.080
2020/01/31 10:43:57.3	301.040	-0.070	-1.040	0.100
2020/01/31 10:43:57.4	301.040	-0.080	-1.010	0.120
2020/01/31 10:43:57.5	301.030	-0.080	-0.970	0.150
2020/01/31 10:43:57.6	301.010	-0.090	-0.930	0.170
2020/01/31 10:43:57.7	300.990	-0.100	-0.890	0.200
2020/01/31 10:43:57.8	300.980	-0.100	-0.840	0.230
2020/01/31 10:43:57.9	300.960	-0.100	-0.800	0.260
2020/01/31 10:43:58.0	300.940	-0.110	-0.750	0.290
2020/01/31 10:43:58.1	300.920	-0.110	-0.700	0.330
2020/01/31 10:43:58.2	300.900	-0.110	-0.650	0.360
2020/01/31 10:43:58.3	300.880	-0.110	-0.600	0.390
2020/01/31 10:43:58.4	300.860	-0.110	-0.550	0.430
2020/01/31 10:43:58.5	300.850	-0.110	-0.500	0.460
2020/01/31 10:43:58.6	300.830	-0.110	-0.450	0.490
2020/01/31 10:43:58.7	300.810	-0.100	-0.410	0.520
2020/01/31 10:43:58.8	300.790	-0.100	-0.360	0.550
2020/01/31 10:43:58.9	300.770	-0.090	-0.320	0.580
2020/01/31 10:43:59.0	300.760	-0.080	-0.280	0.610
2020/01/31 10:43:59.1	300.740	-0.070	-0.250	0.630
2020/01/31 10:43:59.2	300.730	-0.060	-0.210	0.650
2020/01/31 10:43:59.3	300.720	-0.050	-0.180	0.670
2020/01/31 10:43:59.4	300.710	-0.040	-0.150	0.690
2020/01/31 10:43:59.5	300.700	-0.030	-0.120	0.710
2020/01/31 10:43:59.6	300.700	-0.020	-0.100	0.720
2020/01/31 10:43:59.7	300.690	-0.000	-0.080	0.730
2020/01/31 10:43:59.8	300.690	0.010	-0.060	0.740
2020/01/31 10:43:59.9	300.680	0.020	-0.040	0.750
2020/01/31 10:44:00.0	300.680	0.040	-0.030	0.750
2020/01/31 10:44:00.1	300.680	0.050	-0.020	0.750
2020/01/31 10:44:00.2	300.680	0.060	-0.010	0.750
2020/01/31 10:44:00.3	300.690	0.070	0.000	0.750
2020/01/31 10:44:00.4	300.690	0.090	0.010	0.740
2020/01/31 10:44:00.5	300.700	0.100	0.020	0.730
2020/01/31 10:44:00.6	300.700	0.110	0.020	0.720
2020/01/31 10:44:00.7	300.710	0.120	0.030	0.710
2020/01/31 10:44:00.8	300.720	0.120	0.030	0.700
2020/01/31 10:44:00.9	300.730	0.130	0.040	0.680
2020/01/31 10:44:01.0	300.750	0.140	0.050	0.670
2020/01/31 10:44:01.1	300.760	0.140	0.050	0.650
2020/01/31 10:44:01.2	300.780	0.140	0.060	0.630
2020/01/31 10:44:01.3	300.790	0.140	0.070	0.610
2020/01/31 10:44:01.4	300.810	0.140	0.080	0.600
2020/01/31 10:44:01.5	300.830	0.140	0.090	0.580
2020/01/31 10:44:01.6	300.840	0.130	0.110	0.560
2020/01/31 10:44:01.7	300.860	0.130	0.120	0.540
2020/01/31 10:44:01.8	300.880	0.120	0.140	0.520
2020/01/31 10:44:01.9	300.900	0.110	0.150	0.500
2020/01/31 10:44:02.0	300.920	0.100	0.170	0.490
2020/01/31 10:44:02.1	300.940	0.080	0.190	0.470
2020/01/31 10:44:02.2	300.960	0.070	0.210	0.450
2020/01/31 10:44:02.3	300.980	0.050	0.230	0.430
2020/01/31 10:44:02.4	301.000	0.030	0.250	0.410
2020/01/31 10:44:02.5	301.020	0.010	0.270	0.400
2020/01/31 10:44:02.6	301.040	-0.010	0.290	0.380
2020/01/31 10:44:02.7	301.060	-0.030	0.310	0.360
2020/01/31 10:44:02.8	301.080	-0.060	0.330	0.350
2020/01/31 10:44:02.9	301.100	-0.080	0.350	0.330
2020/01/31 10:44:03.0	301.120	-0.100	0.370	0.320
2020/01/31 10:44:03.1	301.140	-0.130	0.390	0.300
2020/01/31 10:44:03.2	301.150	-0.150	0.400	0.290
2020/01/31 10:44:03.3	301.170	-0.170	0.420	0.280
2020/01/31 10:44:03.4	301.190	-0.200	0.430	0.260
2020/01/31 10:44:03.5	301.200	-0.220	0.440	0.250
2020/01/31 10:44:03.6	301.220	-0.240	0.450	0.240
2020/01/31 10:44:03.7	301.230	-0.260	0.460	0.230
2020/01/31 10:44:03.8	301.250	-0.280	0.460	0.220
2020/01/31 10:44:03.9	301.270	-0.300	0.460	0.210
2020/01/31 10:44:04.0	301.280	-0.320	0.460	0.200
2020/01/31 10:44:04.1	301.300	-0.340	0.450	0.190
2020/01/31 10:44:04.2	301.310	-0.350	0.450	0.180
2020/01/31 10:44:04.3	301.330	-0.360	0.440	0.170
2020/01/31 10:44:04.4	301.340	-0.370	0.420	0.160
2020/01/31 10:44:04.5	301.350	-0.380	0.410	0.150
2020/01/31 10:44:04.6	301.360	-0.390	0.390	0.140
2020/01/31 10:44:04.7	301.370	-0.400	0.380	0.140
2020/01/31 10:44:04.8	301.380	-0.400	0.360	0.130
2020/01/31 10:44:04.9	301.390	-0.400	0.340	0.130
2020/01/31 10:44:05.0	301.400	-0.400	0.320	0.130
2020/01/31 10:44:05.1	301.410	-0.400	0.290	0.130
2020/01/31 10:44:05.2	301.420	-0.400	0.270	0.120
2020/01/31 10:44:05.3	301.420	-0.400	0.240	0.120
2020/01/31 10:44:05.4	301.410	-0.390	0.220	0.120
2020/01/31 10:44:05.5	301.420	-0.380	0.190	0.130
2020/01/31 10:44:05.6	301.420	-0.370	0.170	0.130
2020/01/31 10:44:05.7	301.420	-0.360	0.140	0.130
2020/01/31 10:44:05.8	301.430	-0.350	0.110	0.140
2020/01/31 10:44:05.9	301.430	-0.340	0.080	0.150
2020/01/31 10:44:06.0	301.430	-0.330	0.060	0.160
2020/01/31 10:44:06.1	301.430	-0.310	0.030	0.170
2020/01/31 10:44:06.2	301.430	-0.290	-0.000	0.180
2020/01/31 10:44:06.3	301.420	-0.280	-0.030	0.190
2020/01/31 10:44:06.4	301.420	-0.260	-0.070	0.210
2020/01/31 10:44:06.5	301.410	-0.240	-0.100	0.220
2020/01/31 10:44:06.6	301.410	-0.220	-0.130	0.240
2020/01/31 10:44:06.7	301.410	-0.200	-0.160	0.260
2020/01/31 10:44:06.8	301.410	-0.180	-0.190	0.280
2020/01/31 10:44:06.9	301.410	-0.160	-0.230	0.300
2020/01/31 10:44:07.0	301.410	-0.130	-0.260	0.320
2020/01/31 10:44:07.1	301.410	-0.110	-0.300	0.340
2020/01/31 10:44:07.2	301.410	-0.090	-0.330	0.360
2020/01/31 10:44:07.3	301.410	-0.060	-0.370	0.380
2020/01/31 10:44:07.4	301.410	-0.040	-0.410	0.400
2020/01/31 10:44:07.5	301.410	-0.020	-0.450	0.430
2020/01/31 10:44:07.6	301.410	0.010	-0.480	0.450
2020/01/31 10:44:07.7	301.420	0.030	-0.520	0.480
2020/01/31 10:44:07.8	301.420	0.060	-0.560	0.500
2020/01/31 10:44:07.9	301.430	0.080	-0.600	0.530
2020/01/31 10:44:08.0	301.430	0.110	-0.640	0.550
2020/01/31 10:44:08.1	301.440	0.130	-0.680	0.580
2020/01/31 10:44:08.2	301.450	0.160	-0.720	0.600
2020/01/31 10:44:08.3	301.460	0.180	-0.760	0.630
2020/01/31 10:44:08.4	301.460	0.210	-0.800	0.660
2020/01/31 10:44:08.5	301.470	0.230	-0.840	0.680
2020/01/31 10:44:08.6	301.480	0.250	-0.870	0.710
2020/01/31 10:44:08.7	301.490	0.280	-0.910	0.730
2020/01/31 10:44:08.8	301.500	0.300	-0.940	0.760
2020/01/31 10:44:08.9	301.520	0.320	-0.970	0.780
2020/01/31 10:44:09.0	301.530	0.340	-1.000	0.810
2020/01/31 10:44:09.1	301.540	0.360	-1.020	0.830
2020/01/31 10:44:09.2	301.550	0.380	-1.050	0.860
2020/01/31 10:44:09.3	301.570	0.400	-1.070	0.880
2020/01/31 10:44:09.4	301.570	0.420	-1.090	0.910
2020/01/31 10:44:09.5	301.590	0.440	-1.100	0.940
2020/01/31 10:44:09.6	301.600	0.450	-1.110	0.960
2020/01/31 10:44:09.7	301.610	0.470	-1.120	0.990
2020/01/31 10:44:09.8	301.630	0.480	-1.130	1.020
2020/01/31 10:44:09.9	301.650	0.490	-1.130	1.040
2020/01/31 10:44:10.0	301.670	0.500	-1.130	1.070
2020/01/31 10:44:10.1	301.680	0.510	-1.130	1.090
2020/01/31 10:44:10.2	301.700	0.520	-1.120	1.120
2020/01/31 10:44:10.3	301.730	0.530	-1.120	1.140
2020/01/31 10:44:10.4	301.750	0.540	-1.110	1.170
2020/01/31 10:44:10.5	301.780	0.540	-1.100	1.190
2020/01/31 10:44:10.6	301.800	0.540	-1.080	1.210
2020/01/31 10:44:10.7	301.830	0.550	-1.070	1.240
2020/01/31 10:44:10.8	301.860	0.550	-1.050	1.250
2020/01/31 10:44:10.9	301.890	0.550	-1.030	1.270
2020/01/31 10:44:11.0	301.920	0.540	-1.010	1.290
2020/01/31 10:44:11.1	301.950	0.540	-0.990	1.300
2020/01/31 10:44:11.2	301.990	0.530	-0.970	1.310
2020/01/31 10:44:11.3	302.030	0.530	-0.950	1.310
2020/01/31 10:44:11.4	302.080	0.520	-0.930	1.320
2020/01/31 10:44:11.5	302.120	0.510	-0.900	1.320
2020/01/31 10:44:11.6	302.160	0.490	-0.880	1.320
2020/01/31 10:44:11.7	302.200	0.480	-0.850	1.320
2020/01/31 10:44:11.8	302.240	0.460	-0.820	1.310
2020/01/31 10:44:11.9	302.290	0.450	-0.790	1.300
2020/01/31 10:44:12.0	302.330	0.430	-0.760	1.290
2020/01/31 10:44:12.1	302.380	0.410	-0.730	1.270
2020/01/31 10:44:12.2	302.430	0.380	-0.700	1.260
2020/01/31 10:44:12.3	302.480	0.360	-0.660	1.240
2020/01/31 10:44:12.4	302.520	0.340	-0.630	1.220
2020/01/31 10:44:12.5	302.570	0.310	-0.600	1.200
2020/01/31 10:44:12.6	302.620	0.280	-0.560	1.180
2020/01/31 10:44:12.7	302.670	0.260	-0.520	1.160
2020/01/31 10:44:12.8	302.730	0.230	-0.480	1.140
2020/01/31 10:44:12.9	302.780	0.200	-0.430	1.120
2020/01/31 10:44:13.0	302.830	0.170	-0.390	1.100
2020/01/31 10:44:13.1	302.890	0.140	-0.340	1.080
2020/01/31 10:44:13.2	302.940	0.100	-0.300	1.050
2020/01/31 10:44:13.3	303.000	0.070	-0.250	1.030
2020/01/31 10:44:13.4	303.050	0.040	-0.200	1.010
2020/01/31 10:44:13.5	303.100	0.000	-0.150	0.980
2020/01/31 10:44:13.6	303.160	-0.030	-0.100	0.960
2020/01/31 10:44:13.7	303.220	-0.070	-0.040	0.930
2020/01/31 10:44:13.8	303.270	-0.100	0.010	0.900
2020/01/31 10:44:13.9	303.330	-0.140	0.060	0.880
2020/01/31 10:44:14.0	303.390	-0.170	0.110	0.850
2020/01/31 10:44:14.1	303.450	-0.210	0.160	0.820
2020/01/31 10:44:14.2	303.510	-0.240	0.210	0.790
2020/01/31 10:44:14.3	303.570	-0.270	0.260	0.750
2020/01/31 10:44:14.4	303.620	-0.310	0.300	0.720
2020/01/31 10:44:14.5	303.680	-0.340	0.350	0.680
2020/01/31 10:44:14.6	303.740	-0.370	0.390	0.650
2020/01/31 10:44:14.7	303.800	-0.400	0.430	0.610
2020/01/31 10:44:14.8	303.860	-0.430	0.470	0.570
2020/01/31 10:44:14.9	303.920	-0.460	0.510	0.530
2020/01/31 10:44:15.0	303.990	-0.480	0.550	0.490
2020/01/31 10:44:15.1	304.050	-0.510	0.580	0.450
2020/01/31 10:44:15.2	304.110	-0.530	0.610	0.410
2020/01/31 10:44:15.3	304.170	-0.550	0.640	0.370
2020/01/31 10:44:15.4	304.240	-0.570	0.670	0.330
2020/01/31 10:44:15.5	304.300	-0.590	0.690	0.290
2020/01/31 10:44:15.6	304.370	-0.600	0.710	0.250
2020/01/31 10:44:15.7	304.430	-0.620	0.730	0.220
2020/01/31 10:44:15.8	304.490	-0.630	0.740	0.180
2020/01/31 10:44:15.9	304.550	-0.640	0.750	0.140
2020/01/31 10:44:16.0	304.620	-0.640	0.760	0.110
2020/01/31 10:44:16.1	304.680	-0.650	0.770	0.070
2020/01/31 10:44:16.2	304.740	-0.650	0.780	0.040
2020/01/31 10:44:16.3	304.800	-0.650	0.780	0.010
2020/01/31 10:44:16.4	304.860	-0.650	0.770	-0.010
2020/01/31 10:44:16.5	304.920	-0.650	0.770	-0.040
2020/01/31 10:44:16.6	304.970	-0.640	0.770	-0.060
2020/01/31 10:44:16.7	305.030	-0.640	0.760	-0.080
2020/01/31 10:44:16.8	305.090	-0.630	0.750	-0.100
2020/01/31 10:44:16.9	305.140	-0.620	0.730	-0.110
2020/01/31 10:44:17.0	305.200	-0.600	0.710	-0.130
2020/01/31 10:44:17.1	305.250	-0.590	0.690	-0.140
2020/01/31 10:44:17.2	305.300	-0.570	0.670	-0.150
2020/01/31 10:44:17.3	305.360	-0.560	0.640	-0.160
2020/01/31 10:44:17.4	305.410	-0.540	0.610	-0.180
2020/01/31 10:44:17.5	305.460	-0.510	0.580	-0.190
2020/01/31 10:44:17.6	305.520	-0.490	0.540	-0.190
2020/01/31 10:44:17.7	305.570	-0.470	0.500	-0.200
2020/01/31 10:44:17.8	305.630	-0.440	0.460	-0.210
2020/01/31 10:44:17.9	305.680	-0.420	0.410	-0.220
2020/01/31 10:44:18.0	305.740	-0.390	0.370	-0.230
2020/01/31 10:44:18.1	305.800	-0.360	0.320	-0.240
2020/01/31 10:44:18.2	305.860	-0.330	0.260	-0.250
2020/01/31 10:44:18.3	305.920	-0.300	0.210	-0.260
2020/01/31 10:44:18.4	305.990	-0.270	0.160	-0.270
2020/01/31 10:44:18.5	306.050	-0.240	0.100	-0.280
2020/01/31 10:44:18.6	306.120	-0.210	0.040	-0.290
2020/01/31 10:44:18.7	306.180	-0.180	-0.020	-0.300
2020/01/31 10:44:18.8	306.240	-0.150	-0.070	-0.310
2020/01/31 10:44:18.9	306.310	-0.120	-0.130	-0.320
2020/01/31 10:44:19.0	306.370	-0.090	-0.190	-0.330
2020/01/31 10:44:19.1	306.440	-0.060	-0.250	-0.340
2020/01/31 10:44:19.2	306.500	-0.030	-0.310	-0.350
2020/01/31 10:44:19.3	306.560	-0.010	-0.360	-0.350
2020/01/31 10:44:19.4	306.630	0.020	-0.420	-0.360
2020/01/31 10:44:19.5	306.690	0.050	-0.470	-0.360
2020/01/31 10:44:19.6	306.760	0.070	-0.530	-0.370
2020/01/31 10:44:19.7	306.820	0.100	-0.580	-0.370
2020/01/31 10:44:19.8	306.890	0.120	-0.620	-0.370
2020/01/31 10:44:19.9	306.950	0.140	-0.670	-0.370
2020/01/31 10:44:20.0	307.020	0.160	-0.710	-0.360
2020/01/31 10:44:20.1	307.080	0.180	-0.750	-0.360
2020/01/31 10:44:20.2	307.150	0.200	-0.790	-0.350
2020/01/31 10:44:20.3	307.210	0.220	-0.830	-0.340
2020/01/31 10:44:20.4	307.290	0.230	-0.860	-0.320
2020/01/31 10:44:20.5	307.350	0.250	-0.890	-0.310
2020/01/31 10:44:20.6	307.420	0.260	-0.910	-0.300
2020/01/31 10:44:20.7	307.480	0.270	-0.940	-0.290
2020/01/31 10:44:20.8	307.550	0.280	-0.960	-0.270
2020/01/31 10:44:20.9	307.610	0.290	-0.980	-0.260
2020/01/31 10:44:21.0	307.680	0.300	-0.990	-0.240
2020/01/31 10:44:21.1	307.750	0.310	-1.010	-0.220
2020/01/31 10:44:21.2	307.820	0.320	-1.020	-0.200
2020/01/31 10:44:21.3	307.890	0.320	-1.030	-0.190
2020/01/31 10:44:21.4	307.960	0.330	-1.030	-0.170
2020/01/31 10:44:21.5	308.030	0.330	-1.040	-0.150
2020/01/31 10:44:21.6	308.100	0.330	-1.040	-0.140
2020/01/31 10:44:21.7	308.180	0.340	-1.040	-0.120
2020/01/31 10:44:21.8	308.250	0.340	-1.040	-0.100
2020/01/31 10:44:21.9	308.330	0.340	-1.030	-0.090
2020/01/31 10:44:22.0	308.410	0.340	-1.030	-0.070
2020/01/31 10:44:22.1	308.490	0.340	-1.020	-0.060
2020/01/31 10:44:22.2	308.570	0.340	-1.010	-0.050
2020/01/31 10:44:22.3	308.660	0.340	-1.000	-0.040
2020/01/31 10:44:22.4	308.740	0.340	-0.990	-0.020
2020/01/31 10:44:22.5	308.830	0.340	-0.970	-0.010
2020/01/31 10:44:22.6	308.910	0.330	-0.950	-0.010
2020/01/31 10:44:22.7	309.000	0.330	-0.940	-0.000
2020/01/31 10:44:22.8	309.090	0.330	-0.920	0.010
2020/01/31 10:44:22.9	309.180	0.330	-0.890	0.010
2020/01/31 10:44:23.0	309.280	0.320	-0.870	0.010
2020/01/31 10:44:23.1	309.370	0.320	-0.850	0.020
2020/01/31 10:44:23.2	309.460	0.310	-0.820	0.020
2020/01/31 10:44:23.3	309.550	0.310	-0.790	0.020
2020/01/31 10:44:23.4	309.650	0.300	-0.760	0.030
2020/01/31 10:44:23.5	309.740	0.300	-0.730	0.030
2020/01/31 10:44:23.6	309.840	0.290	-0.700	0.030
2020/01/31 10:44:23.7	309.930	0.290	-0.660	0.030
2020/01/31 10:44:23.8	310.020	0.280	-0.620	0.030
2020/01/31 10:44:23.9	310.120	0.270	-0.590	0.040
2020/01/31 10:44:24.0	310.210	0.270	-0.550	0.040
2020/01/31 10:44:24.1	310.300	0.260	-0.510	0.040
2020/01/31 10:44:24.2	310.400	0.250	-0.470	0.040
2020/01/31 10:44:24.3	310.490	0.250	-0.420	0.040
2020/01/31 10:44:24.4	310.570	0.240	-0.380	0.040
2020/01/31 10:44:24.5	310.660	0.230	-0.340	0.040
2020/01/31 10:44:24.6	310.750	0.230	-0.290	0.040
2020/01/31 10:44:24.7	310.850	0.220	-0.250	0.040
2020/01/31 10:44:24.8	310.940	0.210	-0.210	0.040
2020/01/31 10:44:24.9	311.030	0.200	-0.170	0.040
2020/01/31 10:44:25.0	311.120	0.200	-0.130	0.040
2020/01/31 10:44:25.1	311.210	0.190	-0.090	0.040
2020/01/31 10:44:25.2	311.300	0.180	-0.050	0.030
2020/01/31 10:44:25.3	311.390	0.180	-0.010	0.020
2020/01/31 10:44:25.4	311.480	0.170	0.020	0.020
2020/01/31 10:44:25.5	311.570	0.160	0.060	0.010
2020/01/31 10:44:25.6	311.660	0.160	0.090	-0.010
2020/01/31 10:44:25.7	311.760	0.150	0.120	-0.020
2020/01/31 10:44:25.8	311.850	0.140	0.150	-0.030
2020/01/31 10:44:25.9	311.940	0.140	0.180	-0.050
2020/01/31 10:44:26.0	312.030	0.130	0.200	-0.070
2020/01/31 10:44:26.1	312.120	0.120	0.220	-0.080
2020/01/31 10:44:26.2	312.210	0.120	0.240	-0.100
2020/01/31 10:44:26.3	312.300	0.110	0.260	-0.130
2020/01/31 10:44:26.4	312.390	0.100	0.270	-0.150
2020/01/31 10:44:26.5	312.480	0.090	0.280	-0.180
2020/01/31 10:44:26.6	312.570	0.080	0.290	-0.210
2020/01/31 10:44:26.7	312.660	0.070	0.300	-0.230
2020/01/31 10:44:26.8	312.750	0.060	0.310	-0.260
2020/01/31 10:44:26.9	312.850	0.060	0.310	-0.300
2020/01/31 10:44:27.0	312.940	0.040	0.310	-0.330
2020/01/31 10:44:27.1	313.030	0.030	0.310	-0.360
2020/01/31 10:44:27.2	313.130	0.020	0.310	-0.400
2020/01/31 10:44:27.3	313.220	0.010	0.310	-0.440
2020/01/31 10:44:27.4	313.300	-0.000	0.300	-0.470
2020/01/31 10:44:27.5	313.400	-0.010	0.300	-0.510
2020/01/31 10:44:27.6	313.490	-0.030	0.290	-0.550
2020/01/31 10:44:27.7	313.590	-0.040	0.280	-0.580
2020/01/31 10:44:27.8	313.680	-0.060	0.270	-0.620
2020/01/31 10:44:27.9	313.780	-0.070	0.260	-0.660
2020/01/31 10:44:28.0	313.870	-0.090	0.260	-0.700
2020/01/31 10:44:28.1	313.960	-0.100	0.250	-0.740
2020/01/31 10:44:28.2	314.050	-0.120	0.240	-0.770
2020/01/31 10:44:28.3	314.150	-0.140	0.230	-0.810
2020/01/31 10:44:28.4	314.240	-0.150	0.210	-0.850
2020/01/31 10:44:28.5	314.330	-0.170	0.200	-0.880
2020/01/31 10:44:28.6	314.420	-0.190	0.190	-0.920
2020/01/31 10:44:28.7	314.510	-0.210	0.180	-0.950
2020/01/31 10:44:28.8	314.600	-0.230	0.170	-0.990
2020/01/31 10:44:28.9	314.680	-0.240	0.160	-1.020
2020/01/31 10:44:29.0	314.770	-0.260	0.150	-1.060
2020/01/31 10:44:29.1	314.860	-0.280	0.140	-1.090
2020/01/31 10:44:29.2	314.940	-0.300	0.130	-1.120
2020/01/31 10:44:29.3	315.030	-0.310	0.120	-1.160
2020/01/31 10:44:29.4	315.120	-0.330	0.110	-1.190
2020/01/31 10:44:29.5	315.210	-0.340	0.090	-1.220
2020/01/31 10:44:29.6	315.290	-0.360	0.080	-1.250
2020/01/31 10:44:29.7	315.380	-0.370	0.070	-1.290
2020/01/31 10:44:29.8	315.470	-0.380	0.050	-1.320
2020/01/31 10:44:29.9	315.560	-0.390	0.040	-1.350
2020/01/31 10:44:30.0	315.650	-0.400	0.020	-1.380
2020/01/31 10:44:30.1	315.740	-0.410	0.010	-1.410
2020/01/31 10:44:30.2	315.830	-0.420	-0.010	-1.440
2020/01/31 10:44:30.3	315.920	-0.420	-0.030	-1.470
2020/01/31 10:44:30.4	316.020	-0.430	-0.050	-1.500
2020/01/31 10:44:30.5	316.110	-0.430	-0.070	-1.520
2020/01/31 10:44:30.6	316.210	-0.430	-0.090	-1.550
2020/01/31 10:44:30.7	316.310	-0.430	-0.110	-1.570
2020/01/31 10:44:30.8	316.400	-0.420	-0.130	-1.600
2020/01/31 10:44:30.9	316.500	-0.420	-0.160	-1.620
2020/01/31 10:44:31.0	316.600	-0.410	-0.180	-1.640
2020/01/31 10:44:31.1	316.700	-0.410	-0.200	-1.660
2020/01/31 10:44:31.2	316.800	-0.400	-0.220	-1.670
2020/01/31 10:44:31.3	316.900	-0.390	-0.240	-1.690
2020/01/31 10:44:31.4	317.000	-0.380	-0.260	-1.700
2020/01/31 10:44:31.5	317.100	-0.370	-0.290	-1.700
2020/01/31 10:44:31.6	317.200	-0.360	-0.310	-1.710
2020/01/31 10:44:31.7	317.300	-0.350	-0.320	-1.710
2020/01/31 10:44:31.8	317.390	-0.330	-0.340	-1.700
2020/01/31 10:44:31.9	317.490	-0.320	-0.360	-1.700
2020/01/31 10:44:32.0	317.590	-0.310	-0.370	-1.690
2020/01/31 10:44:32.1	317.680	-0.290	-0.390	-1.670
2020/01/31 10:44:32.2	317.780	-0.280	-0.400	-1.650
2020/01/31 10:44:32.3	317.870	-0.260	-0.420	-1.630
2020/01/31 10:44:32.4	317.960	-0.250	-0.430	-1.610
2020/01/31 10:44:32.5	318.060	-0.240	-0.440	-1.580
2020/01/31 10:44:32.6	318.150	-0.220	-0.450	-1.550
2020/01/31 10:44:32.7	318.240	-0.210	-0.460	-1.520
2020/01/31 10:44:32.8	318.330	-0.200	-0.460	-1.490
2020/01/31 10:44:32.9	318.420	-0.180	-0.470	-1.450
2020/01/31 10:44:33.0	318.510	-0.170	-0.480	-1.410
2020/01/31 10:44:33.1	318.590	-0.150	-0.490	-1.370
2020/01/31 10:44:33.2	318.680	-0.140	-0.490	-1.330
2020/01/31 10:44:33.3	318.770	-0.130	-0.500	-1.290
2020/01/31 10:44:33.4	318.870	-0.110	-0.500	-1.240
2020/01/31 10:44:33.5	318.960	-0.100	-0.510	-1.200
2020/01/31 10:44:33.6	319.040	-0.090	-0.510	-1.160
2020/01/31 10:44:33.7	319.130	-0.070	-0.520	-1.110
2020/01/31 10:44:33.8	319.220	-0.060	-0.530	-1.070
2020/01/31 10:44:33.9	319.320	-0.040	-0.530	-1.030
2020/01/31 10:44:34.0	319.410	-0.030	-0.540	-0.980
2020/01/31 10:44:34.1	319.500	-0.020	-0.540	-0.940
2020/01/31 10:44:34.2	319.600	-0.000	-0.550	-0.900
2020/01/31 10:44:34.3	319.700	0.010	-0.560	-0.860
2020/01/31 10:44:34.4	319.800	0.030	-0.570	-0.830
2020/01/31 10:44:34.5	319.900	0.050	-0.580	-0.790
2020/01/31 10:44:34.6	320.000	0.060	-0.590	-0.760
2020/01/31 10:44:34.7	320.110	0.080	-0.600	-0.730
2020/01/31 10:44:34.8	320.210	0.100	-0.620	-0.700
2020/01/31 10:44:34.9	320.320	0.110	-0.630	-0.680
2020/01/31 10:44:35.0	320.440	0.130	-0.640	-0.650
2020/01/31 10:44:35.1	320.550	0.150	-0.650	-0.630
2020/01/31 10:44:35.2	320.670	0.160	-0.670	-0.620
2020/01/31 10:44:35.3	320.780	0.180	-0.680	-0.600
2020/01/31 10:44:35.4	320.910	0.200	-0.690	-0.590
2020/01/31 10:44:35.5	321.030	0.220	-0.700	-0.580
2020/01/31 10:44:35.6	321.150	0.240	-0.710	-0.580
2020/01/31 10:44:35.7	321.280	0.250	-0.710	-0.570
2020/01/31 10:44:35.8	321.400	0.270	-0.710	-0.570
2020/01/31 10:44:35.9	321.530	0.290	-0.720	-0.570
2020/01/31 10:44:36.0	321.660	0.300	-0.710	-0.570
2020/01/31 10:44:36.1	321.780	0.310	-0.710	-0.580
2020/01/31 10:44:36.2	321.910	0.330	-0.700	-0.580
2020/01/31 10:44:36.3	322.040	0.340	-0.680	-0.580
2020/01/31 10:44:36.4	322.170	0.350	-0.670	-0.590
2020/01/31 10:44:36.5	322.300	0.360	-0.640	-0.590
2020/01/31 10:44:36.6	322.420	0.370	-0.620	-0.590
2020/01/31 10:44:36.7	322.540	0.370	-0.590	-0.590
2020/01/31 10:44:36.8	322.660	0.370	-0.550	-0.590
2020/01/31 10:44:36.9	322.780	0.380	-0.510	-0.590
2020/01/31 10:44:37.0	322.900	0.370	-0.470	-0.590
2020/01/31 10:44:37.1	323.020	0.370	-0.430	-0.590
2020/01/31 10:44:37.2	323.130	0.360	-0.380	-0.590
2020/01/31 10:44:37.3	323.250	0.360	-0.330	-0.590
2020/01/31 10:44:37.4	323.360	0.350	-0.270	-0.590
2020/01/31 10:44:37.5	323.480	0.330	-0.210	-0.590
2020/01/31 10:44:37.6	323.590	0.320	-0.160	-0.600
2020/01/31 10:44:37.7	323.700	0.300	-0.100	-0.600
2020/01/31 10:44:37.8	323.810	0.280	-0.040	-0.610
2020/01/31 10:44:37.9	323.920	0.260	0.020	-0.620
2020/01/31 10:44:38.0	324.030	0.240	0.080	-0.630
2020/01/31 10:44:38.1	324.140	0.220	0.140	-0.640
2020/01/31 10:44:38.2	324.250	0.190	0.190	-0.650
2020/01/31 10:44:38.3	324.360	0.170	0.250	-0.670
2020/01/31 10:44:38.4	324.460	0.140	0.300	-0.690
2020/01/31 10:44:38.5	324.560	0.110	0.350	-0.710
2020/01/31 10:44:38.6	324.670	0.080	0.400	-0.740
2020/01/31 10:44:38.7	324.770	0.060	0.450	-0.760
2020/01/31 10:44:38.8	324.870	0.030	0.490	-0.780
2020/01/31 10:44:38.9	324.970	-0.000	0.530	-0.810
2020/01/31 10:44:39.0	325.060	-0.030	0.570	-0.840
2020/01/31 10:44:39.1	325.160	-0.060	0.600	-0.860
2020/01/31 10:44:39.2	325.250	-0.080	0.630	-0.890
2020/01/31 10:44:39.3	325.340	-0.110	0.650	-0.920
2020/01/31 10:44:39.4	325.400	-0.130	0.670	-0.950
2020/01/31 10:44:39.5	325.490	-0.150	0.690	-0.980
2020/01/31 10:44:39.6	325.580	-0.170	0.700	-1.010
2020/01/31 10:44:39.7	325.660	-0.190	0.710	-1.040
2020/01/31 10:44:39.8	325.740	-0.210	0.720	-1.060
2020/01/31 10:44:39.9	325.830	-0.220	0.720	-1.090
2020/01/31 10:44:40.0	325.910	-0.240	0.710	-1.120
2020/01/31 10:44:40.1	325.990	-0.250	0.710	-1.140
2020/01/31 10:44:40.2	326.070	-0.250	0.690	-1.170
2020/01/31 10:44:40.3	326.150	-0.260	0.680	-1.190
2020/01/31 10:44:40.4	326.200	-0.260	0.650	-1.220
2020/01/31 10:44:40.5	326.280	-0.260	0.630	-1.240
2020/01/31 10:44:40.6	326.360	-0.260	0.600	-1.260
2020/01/31 10:44:40.7	326.440	-0.260	0.570	-1.280
2020/01/31 10:44:40.8	326.510	-0.250	0.530	-1.300
2020/01/31 10:44:40.9	326.590	-0.250	0.490	-1.320
2020/01/31 10:44:41.0	326.670	-0.240	0.450	-1.340
2020/01/31 10:44:41.1	326.750	-0.220	0.400	-1.360
2020/01/31 10:44:41.2	326.830	-0.210	0.350	-1.380
2020/01/31 10:44:41.3	326.910	-0.190	0.290	-1.400
2020/01/31 10:44:41.4	327.000	-0.180	0.240	-1.420
2020/01/31 10:44:41.5	327.080	-0.160	0.180	-1.440
2020/01/31 10:44:41.6	327.170	-0.140	0.120	-1.460
2020/01/31 10:44:41.7	327.260	-0.110	0.050	-1.470
2020/01/31 10:44:41.8	327.350	-0.090	-0.010	-1.490
2020/01/31 10:44:41.9	327.450	-0.070	-0.080	-1.510
2020/01/31 10:44:42.0	327.540	-0.040	-0.150	-1.520
2020/01/31 10:44:42.1	327.640	-0.020	-0.220	-1.540
2020/01/31 10:44:42.2	327.750	0.000	-0.280	-1.550
2020/01/31 10:44:42.3	327.850	0.030	-0.350	-1.570
2020/01/31 10:44:42.4	327.960	0.050	-0.420	-1.580
2020/01/31 10:44:42.5	328.070	0.080	-0.490	-1.590
2020/01/31 10:44:42.6	328.190	0.100	-0.550	-1.600
2020/01/31 10:44:42.7	328.300	0.130	-0.610	-1.610
2020/01/31 10:44:42.8	328.410	0.150	-0.670	-1.620
2020/01/31 10:44:42.9	328.530	0.170	-0.730	-1.630
2020/01/31 10:44:43.0	328.650	0.190	-0.780	-1.630
2020/01/31 10:44:43.1	328.770	0.210	-0.830	-1.640
2020/01/31 10:44:43.2	328.890	0.220	-0.870	-1.640
2020/01/31 10:44:43.3	329.020	0.240	-0.910	-1.650
2020/01/31 10:44:43.4	329.150	0.250	-0.950	-1.640
2020/01/31 10:44:43.5	329.280	0.260	-0.980	-1.650
2020/01/31 10:44:43.6	329.400	0.270	-1.010	-1.650
2020/01/31 10:44:43.7	329.530	0.280	-1.030	-1.650
2020/01/31 10:44:43.8	329.660	0.290	-1.040	-1.650
2020/01/31 10:44:43.9	329.780	0.290	-1.050	-1.650
2020/01/31 10:44:44.0	329.910	0.290	-1.060	-1.640
2020/01/31 10:44:44.1	330.040	0.290	-1.060	-1.640
2020/01/31 10:44:44.2	330.170	0.290	-1.060	-1.640
2020/01/31 10:44:44.3	330.300	0.280	-1.050	-1.630
2020/01/31 10:44:44.4	330.420	0.280	-1.040	-1.620
2020/01/31 10:44:44.5	330.550	0.270	-1.020	-1.620
2020/01/31 10:44:44.6	330.670	0.260	-1.000	-1.610
2020/01/31 10:44:44.7	330.800	0.240	-0.980	-1.600
2020/01/31 10:44:44.8	330.930	0.230	-0.950	-1.580
2020/01/31 10:44:44.9	331.050	0.220	-0.920	-1.570
2020/01/31 10:44:45.0	331.180	0.200	-0.880	-1.560
2020/01/31 10:44:45.1	331.310	0.180	-0.840	-1.540
2020/01/31 10:44:45.2	331.430	0.160	-0.800	-1.520
2020/01/31 10:44:45.3	331.550	0.140	-0.760	-1.510
2020/01/31 10:44:45.4	331.670	0.120	-0.720	-1.480
2020/01/31 10:44:45.5	331.790	0.100	-0.670	-1.460
2020/01/31 10:44:45.6	331.920	0.070	-0.620	-1.440
2020/01/31 10:44:45.7	332.040	0.050	-0.570	-1.420
2020/01/31 10:44:45.8	332.160	0.020	-0.520	-1.400
2020/01/31 10:44:45.9	332.280	-0.000	-0.460	-1.380
2020/01/31 10:44:46.0	332.400	-0.030	-0.410	-1.360
2020/01/31 10:44:46.1	332.520	-0.050	-0.360	-1.340
2020/01/31 10:44:46.2	332.630	-0.080	-0.310	-1.320
2020/01/31 10:44:46.3	332.750	-0.110	-0.250	-1.300
2020/01/31 10:44:46.4	332.860	-0.130	-0.200	-1.270
2020/01/31 10:44:46.5	332.980	-0.160	-0.150	-1.250
2020/01/31 10:44:46.6	333.090	-0.180	-0.110	-1.230
2020/01/31 10:44:46.7	333.200	-0.200	-0.060	-1.210
2020/01/31 10:44:46.8	333.310	-0.230	-0.010	-1.190
2020/01/31 10:44:46.9	333.420	-0.250	0.030	-1.180
2020/01/31 10:44:47.0	333.530	-0.270	0.070	-1.160
2020/01/31 10:44:47.1	333.640	-0.290	0.100	-1.140
2020/01/31 10:44:47.2	333.750	-0.300	0.140	-1.130
2020/01/31 10:44:47.3	333.850	-0.320	0.170	-1.120
2020/01/31 10:44:47.4	333.960	-0.330	0.200	-1.110
2020/01/31 10:44:47.5	334.070	-0.340	0.230	-1.100
2020/01/31 10:44:47.6	334.170	-0.350	0.250	-1.090
2020/01/31 10:44:47.7	334.270	-0.360	0.270	-1.090
2020/01/31 10:44:47.8	334.370	-0.370	0.290	-1.080
2020/01/31 10:44:47.9	334.460	-0.370	0.300	-1.080
2020/01/31 10:44:48.0	334.560	-0.380	0.310	-1.070
2020/01/31 10:44:48.1	334.660	-0.380	0.320	-1.070
2020/01/31 10:44:48.2	334.750	-0.370	0.330	-1.070
2020/01/31 10:44:48.3	334.840	-0.370	0.330	-1.070
2020/01/31 10:44:48.4	334.940	-0.370	0.340	-1.070
2020/01/31 10:44:48.5	335.030	-0.360	0.340	-1.070
2020/01/31 10:44:48.6	335.120	-0.350	0.330	-1.080
2020/01/31 10:44:48.7	335.200	-0.340	0.330	-1.080
2020/01/31 10:44:48.8	335.290	-0.330	0.320	-1.080
2020/01/31 10:44:48.9	335.370	-0.310	0.310	-1.090
2020/01/31 10:44:49.0	335.460	-0.300	0.300	-1.100
2020/01/31 10:44:49.1	335.540	-0.280	0.290	-1.100
2020/01/31 10:44:49.2	335.620	-0.270	0.270	-1.110
2020/01/31 10:44:49.3	335.700	-0.250	0.260	-1.120
2020/01/31 10:44:49.4	335.800	-0.230	0.240	-1.140
2020/01/31 10:44:49.5	335.880	-0.210	0.230	-1.150
2020/01/31 10:44:49.6	335.950	-0.190	0.210	-1.160
2020/01/31 10:44:49.7	336.030	-0.170	0.190	-1.170
2020/01/31 10:44:49.8	336.100	-0.150	0.180	-1.180
2020/01/31 10:44:49.9	336.170	-0.130	0.160	-1.190
2020/01/31 10:44:50.0	336.240	-0.110	0.140	-1.200
2020/01/31 10:44:50.1	336.310	-0.090	0.120	-1.220
2020/01/31 10:44:50.2	336.380	-0.070	0.100	-1.230
2020/01/31 10:44:50.3	336.450	-0.050	0.090	-1.240
2020/01/31 10:44:50.4	336.520	-0.030	0.060	-1.250
2020/01/31 10:44:50.5	336.590	-0.010	0.050	-1.270
2020/01/31 10:44:50.6	336.650	0.010	0.030	-1.280
2020/01/31 10:44:50.7	336.720	0.030	0.010	-1.300
2020/01/31 10:44:50.8	336.790	0.050	-0.000	-1.310
2020/01/31 10:44:50.9	336.860	0.070	-0.020	-1.320
2020/01/31 10:44:51.0	336.930	0.090	-0.030	-1.340
2020/01/31 10:44:51.1	336.990	0.100	-0.050	-1.350
2020/01/31 10:44:51.2	337.060	0.120	-0.060	-1.360
2020/01/31 10:44:51.3	337.130	0.140	-0.080	-1.380
2020/01/31 10:44:51.4	337.200	0.150	-0.090	-1.400
2020/01/31 10:44:51.5	337.280	0.170	-0.100	-1.410
2020/01/31 10:44:51.6	337.350	0.180	-0.120	-1.420
2020/01/31 10:44:51.7	337.420	0.200	-0.130	-1.440
2020/01/31 10:44:51.8	337.500	0.210	-0.150	-1.450
2020/01/31 10:44:51.9	337.580	0.230	-0.160	-1.460
2020/01/31 10:44:52.0	337.660	0.240	-0.180	-1.480
2020/01/31 10:44:52.1	337.740	0.260	-0.190	-1.490
2020/01/31 10:44:52.2	337.820	0.270	-0.210	-1.500
2020/01/31 10:44:52.3	337.900	0.280	-0.230	-1.520
2020/01/31 10:44:52.4	337.990	0.300	-0.250	-1.530
2020/01/31 10:44:52.5	338.070	0.310	-0.270	-1.550
2020/01/31 10:44:52.6	338.160	0.320	-0.290	-1.560
2020/01/31 10:44:52.7	338.250	0.340	-0.320	-1.580
2020/01/31 10:44:52.8	338.330	0.350	-0.340	-1.590
2020/01/31 10:44:52.9	338.430	0.360	-0.360	-1.600
2020/01/31 10:44:53.0	338.520	0.370	-0.390	-1.620
2020/01/31 10:44:53.1	338.610	0.380	-0.410	-1.630
2020/01/31 10:44:53.2	338.700	0.390	-0.440	-1.640
2020/01/31 10:44:53.3	338.800	0.400	-0.460	-1.650
2020/01/31 10:44:53.4	338.880	0.410	-0.480	-1.660
2020/01/31 10:44:53.5	338.980	0.410	-0.510	-1.670
2020/01/31 10:44:53.6	339.070	0.420	-0.540	-1.680
2020/01/31 10:44:53.7	339.170	0.430	-0.560	-1.690
2020/01/31 10:44:53.8	339.260	0.430	-0.580	-1.690
2020/01/31 10:44:53.9	339.360	0.430	-0.600	-1.700
2020/01/31 10:44:54.0	339.450	0.430	-0.620	-1.700
2020/01/31 10:44:54.1	339.540	0.430	-0.640	-1.700
2020/01/31 10:44:54.2	339.640	0.430	-0.660	-1.710
2020/01/31 10:44:54.3	339.730	0.430	-0.670	-1.710
2020/01/31 10:44:54.4	339.820	0.420	-0.690	-1.710
2020/01/31 10:44:54.5	339.920	0.410	-0.700	-1.710
2020/01/31 10:44:54.6	340.010	0.400	-0.700	-1.710
2020/01/31 10:44:54.7	340.100	0.390	-0.710	-1.710
2020/01/31 10:44:54.8	340.200	0.380	-0.710	-1.710
2020/01/31 10:44:54.9	340.290	0.360	-0.700	-1.710
2020/01/31 10:44:55.0	340.390	0.350	-0.700	-1.710
2020/01/31 10:44:55.1	340.480	0.330	-0.690	-1.710
2020/01/31 10:44:55.2	340.580	0.310	-0.680	-1.710
2020/01/31 10:44:55.3	340.680	0.280	-0.660	-1.710
2020/01/31 10:44:55.4	340.790	0.260	-0.640	-1.710
2020/01/31 10:44:55.5	340.890	0.230	-0.620	-1.720
2020/01/31 10:44:55.6	340.990	0.210	-0.590	-1.720
2020/01/31 10:44:55.7	341.090	0.180	-0.560	-1.730
2020/01/31 10:44:55.8	341.190	0.150	-0.530	-1.730
2020/01/31 10:44:55.9	341.290	0.120	-0.500	-1.740
2020/01/31 10:44:56.0	341.390	0.090	-0.460	-1.740
2020/01/31 10:44:56.1	341.490	0.050	-0.420	-1.750
2020/01/31 10:44:56.2	341.580	0.020	-0.380	-1.750
2020/01/31 10:44:56.3	341.680	-0.010	-0.340	-1.760
2020/01/31 10:44:56.4	341.790	-0.050	-0.300	-1.770
2020/01/31 10:44:56.5	341.880	-0.090	-0.250	-1.770
2020/01/31 10:44:56.6	341.980	-0.120	-0.210	-1.780
2020/01/31 10:44:56.7	342.070	-0.160	-0.160	-1.780
2020/01/31 10:44:56.8	342.150	-0.190	-0.110	-1.790
2020/01/31 10:44:56.9	342.240	-0.230	-0.060	-1.790
2020/01/31 10:44:57.0	342.320	-0.260	-0.010	-1.800
2020/01/31 10:44:57.1	342.410	-0.300	0.030	-1.800
2020/01/31 10:44:57.2	342.490	-0.330	0.080	-1.800
2020/01/31 10:44:57.3	342.560	-0.360	0.130	-1.800
2020/01/31 10:44:57.4	342.650	-0.390	0.170	-1.800
2020/01/31 10:44:57.5	342.720	-0.420	0.210	-1.800
2020/01/31 10:44:57.6	342.790	-0.450	0.250	-1.800
2020/01/31 10:44:57.7	342.850	-0.470	0.290	-1.800
2020/01/31 10:44:57.8	342.920	-0.500	0.330	-1.800
2020/01/31 10:44:57.9	342.980	-0.520	0.360	-1.800
2020/01/31 10:44:58.0	343.040	-0.540	0.390	-1.790
2020/01/31 10:44:58.1	343.090	-0.550	0.420	-1.790
2020/01/31 10:44:58.2	343.150	-0.570	0.450	-1.790
2020/01/31 10:44:58.3	343.200	-0.580	0.470	-1.780
2020/01/31 10:44:58.4	343.240	-0.580	0.490	-1.780
2020/01/31 10:44:58.5	343.290	-0.590	0.500	-1.770
2020/01/31 10:44:58.6	343.340	-0.590	0.520	-1.760
2020/01/31 10:44:58.7	343.380	-0.590	0.520	-1.750
2020/01/31 10:44:58.8	343.420	-0.590	0.530	-1.750
2020/01/31 10:44:58.9	343.460	-0.590	0.530	-1.740
2020/01/31 10:44:59.0	343.490	-0.580	0.530	-1.720
2020/01/31 10:44:59.1	343.530	-0.570	0.520	-1.710
2020/01/31 10:44:59.2	343.560	-0.550	0.510	-1.700
2020/01/31 10:44:59.3	343.590	-0.540	0.500	-1.680
2020/01/31 10:44:59.4	343.610	-0.520	0.480	-1.660
2020/01/31 10:44:59.5	343.630	-0.500	0.450	-1.640
2020/01/31 10:44:59.6	343.660	-0.470	0.430	-1.620
2020/01/31 10:44:59.7	343.680	-0.450	0.400	-1.590
2020/01/31 10:44:59.8	343.690	-0.420	0.370	-1.570
2020/01/31 10:44:59.9	343.710	-0.390	0.330	-1.540
2020/01/31 10:45:00.0	343.720	-0.360	0.290	-1.510
2020/01/31 10:45:00.1	343.740	-0.320	0.250	-1.480
2020/01/31 10:45:00.2	343.750	-0.290	0.210	-1.450
2020/01/31 10:45:00.3	343.760	-0.250	0.160	-1.420
2020/01/31 10:45:00.4	343.760	-0.210	0.110	-1.390
2020/01/31 10:45:00.5	343.770	-0.170	0.060	-1.360
2020/01/31 10:45:00.6	343.780	-0.130	0.010	-1.330
2020/01/31 10:45:00.7	343.790	-0.090	-0.040	-1.300
2020/01/31 10:45:00.8	343.800	-0.050	-0.100	-1.260
2020/01/31 10:45:00.9	343.810	-0.000	-0.150	-1.230
2020/01/31 10:45:01.0	343.820	0.040	-0.210	-1.200
2020/01/31 10:45:01.1	343.830	0.080	-0.260	-1.160
2020/01/31 10:45:01.2	343.840	0.130	-0.310	-1.130
2020/01/31 10:45:01.3	343.860	0.170	-0.360	-1.100
2020/01/31 10:45:01.4	343.860	0.210	-0.410	-1.060
2020/01/31 10:45:01.5	343.880	0.250	-0.460	-1.030
2020/01/31 10:45:01.6	343.890	0.290	-0.510	-0.990
2020/01/31 10:45:01.7	343.900	0.330	-0.550	-0.960
2020/01/31 10:45:01.8	343.920	0.370	-0.590	-0.930
2020/01/31 10:45:01.9	343.930	0.400	-0.630	-0.900
2020/01/31 10:45:02.0	343.940	0.430	-0.670	-0.870
2020/01/31 10:45:02.1	343.960	0.460	-0.700	-0.840
2020/01/31 10:45:02.2	343.980	0.490	-0.730	-0.810
2020/01/31 10:45:02.3	344.000	0.520	-0.760	-0.790
2020/01/31 10:45:02.4	344.010	0.540	-0.780	-0.760
2020/01/31 10:45:02.5	344.030	0.560	-0.800	-0.740
2020/01/31 10:45:02.6	344.060	0.580	-0.820	-0.730
2020/01/31 10:45:02.7	344.090	0.600	-0.840	-0.720
2020/01/31 10:45:02.8	344.120	0.610	-0.850	-0.710
2020/01/31 10:45:02.9	344.160	0.620	-0.870	-0.700
2020/01/31 10:45:03.0	344.200	0.630	-0.880	-0.700
2020/01/31 10:45:03.1	344.240	0.630	-0.880	-0.700
2020/01/31 10:45:03.2	344.280	0.630	-0.890	-0.710
2020/01/31 10:45:03.3	344.330	0.630	-0.890	-0.720
2020/01/31 10:45:03.4	344.370	0.630	-0.900	-0.730
2020/01/31 10:45:03.5	344.420	0.620	-0.900	-0.750
2020/01/31 10:45:03.6	344.480	0.620	-0.900	-0.770
2020/01/31 10:45:03.7	344.530	0.600	-0.890	-0.790
2020/01/31 10:45:03.8	344.580	0.590	-0.890	-0.810
2020/01/31 10:45:03.9	344.640	0.580	-0.880	-0.830
2020/01/31 10:45:04.0	344.700	0.560	-0.870	-0.860
2020/01/31 10:45:04.1	344.750	0.540	-0.860	-0.890
2020/01/31 10:45:04.2	344.810	0.520	-0.850	-0.920
2020/01/31 10:45:04.3	344.870	0.500	-0.830	-0.950
2020/01/31 10:45:04.4	344.920	0.470	-0.820	-0.990
2020/01/31 10:45:04.5	344.970	0.450	-0.800	-1.020
2020/01/31 10:45:04.6	345.030	0.420	-0.780	-1.060
2020/01/31 10:45:04.7	345.080	0.390	-0.750	-1.090
2020/01/31 10:45:04.8	345.140	0.360	-0.720	-1.130
2020/01/31 10:45:04.9	345.190	0.330	-0.700	-1.170
2020/01/31 10:45:05.0	345.250	0.300	-0.660	-1.200
2020/01/31 10:45:05.1	345.300	0.270	-0.630	-1.240
2020/01/31 10:45:05.2	345.340	0.240	-0.590	-1.280
2020/01/31 10:45:05.3	345.390	0.210	-0.560	-1.310
2020/01/31 10:45:05.4	345.440	0.170	-0.510	-1.350
2020/01/31 10:45:05.5	345.480	0.140	-0.470	-1.380
2020/01/31 10:45:05.6	345.520	0.110	-0.430	-1.410
2020/01/31 10:45:05.7	345.560	0.080	-0.380	-1.440
2020/01/31 10:45:05.8	345.600	0.050	-0.330	-1.470
2020/01/31 10:45:05.9	345.640	0.010	-0.280	-1.490
2020/01/31 10:45:06.0	345.670	-0.020	-0.230	-1.520
2020/01/31 10:45:06.1	345.700	-0.050	-0.180	-1.540
2020/01/31 10:45:06.2	345.730	-0.080	-0.120	-1.550
2020/01/31 10:45:06.3	345.750	-0.110	-0.070	-1.570
2020/01/31 10:45:06.4	345.790	-0.140	-0.020	-1.580
2020/01/31 10:45:06.5	345.810	-0.160	0.030	-1.590
2020/01/31 10:45:06.6	345.830	-0.190	0.090	-1.600
2020/01/31 10:45:06.7	345.840	-0.220	0.140	-1.600
2020/01/31 10:45:06.8	345.860	-0.240	0.190	-1.600
2020/01/31 10:45:06.9	345.870	-0.260	0.240	-1.600
2020/01/31 10:45:07.0	345.880	-0.280	0.280	-1.600
2020/01/31 10:45:07.1	345.890	-0.300	0.330	-1.600
2020/01/31 10:45:07.2	345.900	-0.320	0.370	-1.590
2020/01/31 10:45:07.3	345.910	-0.340	0.410	-1.590
2020/01/31 10:45:07.4	345.920	-0.350	0.440	-1.580
2020/01/31 10:45:07.5	345.930	-0.360	0.470	-1.580
2020/01/31 10:45:07.6	345.930	-0.370	0.500	-1.560
2020/01/31 10:45:07.7	345.930	-0.380	0.520	-1.550
2020/01/31 10:45:07.8	345.930	-0.390	0.530	-1.540
2020/01/31 10:45:07.9	345.940	-0.390	0.550	-1.530
2020/01/31 10:45:08.0	345.940	-0.390	0.560	-1.510
2020/01/31 10:45:08.1	345.940	-0.390	0.560	-1.500
2020/01/31 10:45:08.2	345.940	-0.390	0.560	-1.480
2020/01/31 10:45:08.3	345.940	-0.380	0.550	-1.460
2020/01/31 10:45:08.4	345.930	-0.370	0.540	-1.450
2020/01/31 10:45:08.5	345.930	-0.370	0.530	-1.430
2020/01/31 10:45:08.6	345.930	-0.350	0.510	-1.410
2020/01/31 10:45:08.7	345.930	-0.340	0.490	-1.390
2020/01/31 10:45:08.8	345.920	-0.330	0.470	-1.360
2020/01/31 10:45:08.9	345.920	-0.310	0.450	-1.340
2020/01/31 10:45:09.0	345.920	-0.290	0.420	-1.310
2020/01/31 10:45:09.1	345.910	-0.270	0.390	-1.280
2020/01/31 10:45:09.2	345.900	-0.250	0.360	-1.250
2020/01/31 10:45:09.3	345.900	-0.230	0.330	-1.220
2020/01/31 10:45:09.4	345.890	-0.200	0.300	-1.190
2020/01/31 10:45:09.5	345.880	-0.180	0.260	-1.160
2020/01/31 10:45:09.6	345.870	-0.150	0.230	-1.120
2020/01/31 10:45:09.7	345.860	-0.130	0.200	-1.080
2020/01/31 10:45:09.8	345.850	-0.100	0.160	-1.040
2020/01/31 10:45:09.9	345.840	-0.070	0.130	-1.000
2020/01/31 10:45:10.0	345.830	-0.040	0.090	-0.960
2020/01/31 10:45:10.1	345.810	-0.020	0.050	-0.920
2020/01/31 10:45:10.2	345.800	0.010	0.020	-0.880
2020/01/31 10:45:10.3	345.790	0.040	-0.020	-0.830
2020/01/31 10:45:10.4	345.780	0.060	-0.050	-0.780
2020/01/31 10:45:10.5	345.760	0.090	-0.090	-0.740
2020/01/31 10:45:10.6	345.750	0.110	-0.120	-0.690
2020/01/31 10:45:10.7	345.730	0.130	-0.160	-0.650
2020/01/31 10:45:10.8	345.710	0.150	-0.190	-0.600
2020/01/31 10:45:10.9	345.700	0.170	-0.220	-0.560
2020/01/31 10:45:11.0	345.680	0.190	-0.250	-0.520
2020/01/31 10:45:11.1	345.660	0.210	-0.280	-0.480
2020/01/31 10:45:11.2	345.650	0.220	-0.310	-0.450
2020/01/31 10:45:11.3	345.630	0.240	-0.340	-0.410
2020/01/31 10:45:11.4	345.610	0.250	-0.370	-0.380
2020/01/31 10:45:11.5	345.600	0.260	-0.390	-0.350
2020/01/31 10:45:11.6	345.580	0.270	-0.420	-0.330
2020/01/31 10:45:11.7	345.570	0.270	-0.440	-0.310
2020/01/31 10:45:11.8	345.550	0.280	-0.460	-0.290
2020/01/31 10:45:11.9	345.540	0.280	-0.480	-0.270
2020/01/31 10:45:12.0	345.530	0.280	-0.490	-0.250
2020/01/31 10:45:12.1	345.510	0.280	-0.510	-0.240
2020/01/31 10:45:12.2	345.500	0.270	-0.520	-0.230
2020/01/31 10:45:12.3	345.490	0.270	-0.530	-0.230
2020/01/31 10:45:12.4	345.460	0.260	-0.540	-0.230
2020/01/31 10:45:12.5	345.450	0.250	-0.540	-0.220
2020/01/31 10:45:12.6	345.440	0.240	-0.550	-0.220
2020/01/31 10:45:12.7	345.440	0.230	-0.550	-0.220
2020/01/31 10:45:12.8	345.430	0.220	-0.540	-0.220
2020/01/31 10:45:12.9	345.420	0.200	-0.540	-0.230
2020/01/31 10:45:13.0	345.420	0.190	-0.540	-0.230
2020/01/31 10:45:13.1	345.420	0.170	-0.530	-0.240
2020/01/31 10:45:13.2	345.430	0.160	-0.520	-0.250
2020/01/31 10:45:13.3	345.430	0.140	-0.520	-0.250
2020/01/31 10:45:13.4	345.430	0.120	-0.510	-0.270
2020/01/31 10:45:13.5	345.450	0.110	-0.510	-0.280
2020/01/31 10:45:13.6	345.460	0.090	-0.500	-0.290
2020/01/31 10:45:13.7	345.480	0.080	-0.490	-0.300
2020/01/31 10:45:13.8	345.500	0.060	-0.490	-0.320
2020/01/31 10:45:13.9	345.530	0.050	-0.480	-0.340
2020/01/31 10:45:14.0	345.560	0.040	-0.480	-0.360
2020/01/31 10:45:14.1	345.590	0.020	-0.480	-0.380
2020/01/31 10:45:14.2	345.630	0.010	-0.480	-0.400
2020/01/31 10:45:14.3	345.670	0.010	-0.480	-0.420
2020/01/31 10:45:14.4	345.700	-0.000	-0.480	-0.450
2020/01/31 10:45:14.5	345.750	-0.010	-0.480	-0.480
2020/01/31 10:45:14.6	345.800	-0.010	-0.490	-0.500
2020/01/31 10:45:14.7	345.850	-0.010	-0.490	-0.530
2020/01/31 10:45:14.8	345.900	-0.010	-0.500	-0.560
2020/01/31 10:45:14.9	345.960	-0.010	-0.510	-0.590
2020/01/31 10:45:15.0	346.010	-0.000	-0.520	-0.620
2020/01/31 10:45:15.1	346.070	0.000	-0.530	-0.640
2020/01/31 10:45:15.2	346.130	0.010	-0.530	-0.670
2020/01/31 10:45:15.3	346.190	0.020	-0.540	-0.700
2020/01/31 10:45:15.4	346.240	0.030	-0.550	-0.730
2020/01/31 10:45:15.5	346.300	0.040	-0.550	-0.750
2020/01/31 10:45:15.6	346.350	0.050	-0.550	-0.770
2020/01/31 10:45:15.7	346.410	0.060	-0.550	-0.790
2020/01/31 10:45:15.8	346.460	0.080	-0.550	-0.810
2020/01/31 10:45:15.9	346.500	0.090	-0.540	-0.820
2020/01/31 10:45:16.0	346.550	0.110	-0.530	-0.820
2020/01/31 10:45:16.1	346.580	0.120	-0.520	-0.830
2020/01/31 10:45:16.2	346.620	0.130	-0.500	-0.820
2020/01/31 10:45:16.3	346.650	0.150	-0.480	-0.810
2020/01/31 10:45:16.4	346.690	0.160	-0.450	-0.800
2020/01/31 10:45:16.5	346.710	0.180	-0.420	-0.770
2020/01/31 10:45:16.6	346.720	0.190	-0.390	-0.740
2020/01/31 10:45:16.7	346.720	0.200	-0.350	-0.710
2020/01/31 10:45:16.8	346.720	0.210	-0.310	-0.670
2020/01/31 10:45:16.9	346.710	0.220	-0.270	-0.630
2020/01/31 10:45:17.0	346.700	0.220	-0.230	-0.580
2020/01/31 10:45:17.1	346.690	0.230	-0.190	-0.530
2020/01/31 10:45:17.2	346.660	0.230	-0.150	-0.490
2020/01/31 10:45:17.3	346.640	0.230	-0.110	-0.440
2020/01/31 10:45:17.4	346.610	0.230	-0.070	-0.380
2020/01/31 10:45:17.5	346.590	0.230	-0.030	-0.340
2020/01/31 10:45:17.6	346.550	0.230	0.010	-0.290
2020/01/31 10:45:17.7	346.520	0.220	0.040	-0.250
2020/01/31 10:45:17.8	346.490	0.220	0.060	-0.210
2020/01/31 10:45:17.9	346.460	0.210	0.090	-0.180
2020/01/31 10:45:18.0	346.430	0.200	0.100	-0.160
2020/01/31 10:45:18.1	346.400	0.190	0.120	-0.140
2020/01/31 10:45:18.2	346.370	0.180	0.120	-0.130
2020/01/31 10:45:18.3	346.340	0.160	0.130	-0.120
2020/01/31 10:45:18.4	346.320	0.150	0.120	-0.130
2020/01/31 10:45:18.5	346.300	0.140	0.110	-0.140
2020/01/31 10:45:18.6	346.290	0.120	0.100	-0.160
2020/01/31 10:45:18.7	346.280	0.110	0.080	-0.180
2020/01/31 10:45:18.8	346.270	0.100	0.060	-0.210
2020/01/31 10:45:18.9	346.260	0.090	0.030	-0.250
2020/01/31 10:45:19.0	346.260	0.070	-0.000	-0.290
2020/01/31 10:45:19.1	346.260	0.060	-0.040	-0.330
2020/01/31 10:45:19.2	346.270	0.050	-0.070	-0.380
2020/01/31 10:45:19.3	346.280	0.040	-0.110	-0.440
2020/01/31 10:45:19.4	346.290	0.030	-0.150	-0.500
2020/01/31 10:45:19.5	346.310	0.020	-0.180	-0.560
2020/01/31 10:45:19.6	346.330	0.010	-0.220	-0.620
2020/01/31 10:45:19.7	346.350	0.000	-0.260	-0.680
2020/01/31 10:45:19.8	346.370	-0.000	-0.300	-0.740
2020/01/31 10:45:19.9	346.400	-0.010	-0.330	-0.810
2020/01/31 10:45:20.0	346.430	-0.020	-0.360	-0.870
2020/01/31 10:45:20.1	346.460	-0.020	-0.390	-0.930
2020/01/31 10:45:20.2	346.490	-0.030	-0.420	-0.990
2020/01/31 10:45:20.3	346.520	-0.030	-0.440	-1.040
2020/01/31 10:45:20.4	346.550	-0.040	-0.470	-1.100
2020/01/31 10:45:20.5	346.580	-0.040	-0.480	-1.150
2020/01/31 10:45:20.6	346.620	-0.050	-0.490	-1.200
2020/01/31 10:45:20.7	346.650	-0.050	-0.500	-1.240
2020/01/31 10:45:20.8	346.680	-0.060	-0.500	-1.280
2020/01/31 10:45:20.9	346.720	-0.060	-0.490	-1.320
2020/01/31 10:45:21.0	346.750	-0.060	-0.490	-1.360
2020/01/31 10:45:21.1	346.780	-0.070	-0.470	-1.380
2020/01/31 10:45:21.2	346.810	-0.070	-0.450	-1.410
2020/01/31 10:45:21.3	346.840	-0.080	-0.430	-1.430
2020/01/31 10:45:21.4	346.870	-0.080	-0.400	-1.440
2020/01/31 10:45:21.5	346.900	-0.080	-0.370	-1.450
2020/01/31 10:45:21.6	346.920	-0.090	-0.340	-1.460
2020/01/31 10:45:21.7	346.950	-0.090	-0.300	-1.460
2020/01/31 10:45:21.8	346.970	-0.100	-0.260	-1.460
2020/01/31 10:45:21.9	346.990	-0.100	-0.210	-1.450
2020/01/31 10:45:22.0	347.000	-0.100	-0.170	-1.430
2020/01/31 10:45:22.1	347.020	-0.110	-0.120	-1.420
2020/01/31 10:45:22.2	347.030	-0.110	-0.070	-1.390
2020/01/31 10:45:22.3	347.050	-0.110	-0.020	-1.370
2020/01/31 10:45:22.4	347.080	-0.110	0.020	-1.340
2020/01/31 10:45:22.5	347.090	-0.110	0.070	-1.300
2020/01/31 10:45:22.6	347.100	-0.110	0.120	-1.260
2020/01/31 10:45:22.7	347.110	-0.110	0.170	-1.220
2020/01/31 10:45:22.8	347.120	-0.110	0.220	-1.180
2020/01/31 10:45:22.9	347.120	-0.110	0.260	-1.130
2020/01/31 10:45:23.0	347.130	-0.100	0.300	-1.080
2020/01/31 10:45:23.1	347.140	-0.100	0.340	-1.030
2020/01/31 10:45:23.2	347.140	-0.090	0.370	-0.970
2020/01/31 10:45:23.3	347.150	-0.080	0.400	-0.910
2020/01/31 10:45:23.4	347.160	-0.070	0.420	-0.860
2020/01/31 10:45:23.5	347.160	-0.060	0.440	-0.790
2020/01/31 10:45:23.6	347.170	-0.050	0.460	-0.730
2020/01/31 10:45:23.7	347.170	-0.030	0.470	-0.670
2020/01/31 10:45:23.8	347.170	-0.020	0.470	-0.600
2020/01/31 10:45:23.9	347.170	-0.010	0.470	-0.540
2020/01/31 10:45:24.0	347.170	0.010	0.470	-0.470
2020/01/31 10:45:24.1	347.170	0.020	0.450	-0.400
2020/01/31 10:45:24.2	347.170	0.040	0.440	-0.340
2020/01/31 10:45:24.3	347.170	0.050	0.420	-0.270
2020/01/31 10:45:24.4	347.160	0.070	0.390	-0.210
2020/01/31 10:45:24.5	347.150	0.090	0.360	-0.150
2020/01/31 10:45:24.6	347.140	0.100	0.320	-0.090
2020/01/31 10:45:24.7	347.140	0.120	0.280	-0.030
2020/01/31 10:45:24.8	347.130	0.130	0.240	0.020
2020/01/31 10:45:24.9	347.130	0.150	0.190	0.070
2020/01/31 10:45:25.0	347.120	0.160	0.140	0.110
2020/01/31 10:45:25.1	347.110	0.170	0.080	0.150
2020/01/31 10:45:25.2	347.110	0.190	0.030	0.190
2020/01/31 10:45:25.3	347.110	0.200	-0.030	0.220
2020/01/31 10:45:25.4	347.110	0.210	-0.090	0.240
2020/01/31 10:45:25.5	347.110	0.220	-0.150	0.260
2020/01/31 10:45:25.6	347.110	0.230	-0.210	0.280
2020/01/31 10:45:25.7	347.110	0.240	-0.270	0.290
2020/01/31 10:45:25.8	347.120	0.250	-0.330	0.290
2020/01/31 10:45:25.9	347.120	0.250	-0.390	0.290
2020/01/31 10:45:26.0	347.130	0.260	-0.450	0.280
2020/01/31 10:45:26.1	347.140	0.260	-0.510	0.270
2020/01/31 10:45:26.2	347.160	0.270	-0.560	0.260
2020/01/31 10:45:26.3	347.170	0.270	-0.610	0.240
2020/01/31 10:45:26.4	347.190	0.270	-0.660	0.220
2020/01/31 10:45:26.5	347.200	0.270	-0.700	0.190
2020/01/31 10:45:26.6	347.220	0.270	-0.740	0.170
2020/01/31 10:45:26.7	347.240	0.270	-0.780	0.140
2020/01/31 10:45:26.8	347.250	0.260	-0.810	0.110
2020/01/31 10:45:26.9	347.270	0.260	-0.840	0.070
2020/01/31 10:45:27.0	347.280	0.250	-0.860	0.040
2020/01/31 10:45:27.1	347.300	0.240	-0.880	0.010
2020/01/31 10:45:27.2	347.310	0.230	-0.890	-0.030
2020/01/31 10:45:27.3	347.330	0.220	-0.890	-0.060
2020/01/31 10:45:27.4	347.330	0.200	-0.890	-0.100
2020/01/31 10:45:27.5	347.340	0.190	-0.890	-0.140
2020/01/31 10:45:27.6	347.350	0.170	-0.880	-0.170
2020/01/31 10:45:27.7	347.360	0.150	-0.860	-0.210
2020/01/31 10:45:27.8	347.360	0.130	-0.840	-0.250
2020/01/31 10:45:27.9	347.370	0.110	-0.820	-0.280
2020/01/31 10:45:28.0	347.370	0.080	-0.790	-0.320
2020/01/31 10:45:28.1	347.370	0.060	-0.760	-0.360
2020/01/31 10:45:28.2	347.370	0.030	-0.720	-0.390
2020/01/31 10:45:28.3	347.380	0.010	-0.690	-0.420
2020/01/31 10:45:28.4	347.390	-0.020	-0.650	-0.460
2020/01/31 10:45:28.5	347.390	-0.050	-0.610	-0.490
2020/01/31 10:45:28.6	347.390	-0.080	-0.570	-0.520
2020/01/31 10:45:28.7	347.390	-0.100	-0.520	-0.550
2020/01/31 10:45:28.8	347.390	-0.130	-0.480	-0.580
2020/01/31 10:45:28.9	347.400	-0.160	-0.440	-0.610
2020/01/31 10:45:29.0	347.400	-0.180	-0.400	-0.640
2020/01/31 10:45:29.1	347.410	-0.210	-0.360	-0.660
2020/01/31 10:45:29.2	347.410	-0.230	-0.320	-0.690
2020/01/31 10:45:29.3	347.420	-0.250	-0.290	-0.720
2020/01/31 10:45:29.4	347.430	-0.270	-0.260	-0.740
2020/01/31 10:45:29.5	347.440	-0.290	-0.230	-0.770
2020/01/31 10:45:29.6	347.450	-0.300	-0.200	-0.790
2020/01/31 10:45:29.7	347.470	-0.320	-0.180	-0.820
2020/01/31 10:45:29.8	347.480	-0.330	-0.160	-0.840
2020/01/31 10:45:29.9	347.500	-0.340	-0.140	-0.860
2020/01/31 10:45:30.0	347.520	-0.340	-0.120	-0.880
2020/01/31 10:45:30.1	347.540	-0.350	-0.120	-0.900
2020/01/31 10:45:30.2	347.560	-0.350	-0.110	-0.920
2020/01/31 10:45:30.3	347.580	-0.340	-0.110	-0.930
2020/01/31 10:45:30.4	347.600	-0.340	-0.110	-0.950
2020/01/31 10:45:30.5	347.620	-0.330	-0.110	-0.970
2020/01/31 10:45:30.6	347.640	-0.320	-0.120	-0.980
2020/01/31 10:45:30.7	347.670	-0.310	-0.130	-0.990
2020/01/31 10:45:30.8	347.690	-0.290	-0.140	-0.990
2020/01/31 10:45:30.9	347.710	-0.270	-0.150	-0.990
2020/01/31 10:45:31.0	347.730	-0.250	-0.160	-0.990
2020/01/31 10:45:31.1	347.750	-0.230	-0.180	-0.990
2020/01/31 10:45:31.2	347.770	-0.210	-0.190	-0.980
2020/01/31 10:45:31.3	347.790	-0.180	-0.210	-0.960
2020/01/31 10:45:31.4	347.820	-0.150	-0.220	-0.950
2020/01/31 10:45:31.5	347.840	-0.130	-0.230	-0.920
2020/01/31 10:45:31.6	347.850	-0.100	-0.250	-0.900
2020/01/31 10:45:31.7	347.870	-0.070	-0.260	-0.870
2020/01/31 10:45:31.8	347.880	-0.040	-0.270	-0.830
2020/01/31 10:45:31.9	347.890	-0.010	-0.280	-0.800
2020/01/31 10:45:32.0	347.910	0.020	-0.290	-0.760
2020/01/31 10:45:32.1	347.920	0.050	-0.290	-0.710
2020/01/31 10:45:32.2	347.930	0.070	-0.290	-0.670
2020/01/31 10:45:32.3	347.940	0.100	-0.290	-0.620
2020/01/31 10:45:32.4	347.950	0.130	-0.290	-0.570
2020/01/31 10:45:32.5	347.950	0.150	-0.290	-0.520
2020/01/31 10:45:32.6	347.960	0.170	-0.280	-0.470
2020/01/31 10:45:32.7	347.970	0.190	-0.280	-0.420
2020/01/31 10:45:32.8	347.980	0.210	-0.270	-0.360
2020/01/31 10:45:32.9	347.980	0.230	-0.260	-0.310
2020/01/31 10:45:33.0	347.990	0.240	-0.240	-0.260
2020/01/31 10:45:33.1	347.990	0.250	-0.230	-0.210
2020/01/31 10:45:33.2	348.000	0.260	-0.220	-0.160
2020/01/31 10:45:33.3	348.000	0.270	-0.200	-0.110
2020/01/31 10:45:33.4	348.020	0.280	-0.190	-0.060
2020/01/31 10:45:33.5	348.020	0.280	-0.170	-0.010
2020/01/31 10:45:33.6	348.020	0.280	-0.150	0.030
2020/01/31 10:45:33.7	348.030	0.280	-0.140	0.080
2020/01/31 10:45:33.8	348.030	0.280	-0.120	0.120
2020/01/31 10:45:33.9	348.030	0.280	-0.100	0.160
2020/01/31 10:45:34.0	348.020	0.270	-0.080	0.200
2020/01/31 10:45:34.1	348.020	0.260	-0.060	0.230
2020/01/31 10:45:34.2	348.020	0.250	-0.040	0.270
2020/01/31 10:45:34.3	348.010	0.240	-0.020	0.300
2020/01/31 10:45:34.4	347.990	0.230	-0.000	0.330
2020/01/31 10:45:34.5	347.990	0.220	0.020	0.360
2020/01/31 10:45:34.6	347.980	0.200	0.040	0.390
2020/01/31 10:45:34.7	347.970	0.190	0.060	0.410
2020/01/31 10:45:34.8	347.960	0.170	0.080	0.430
2020/01/31 10:45:34.9	347.950	0.160	0.100	0.450
2020/01/31 10:45:35.0	347.930	0.140	0.110	0.470
2020/01/31 10:45:35.1	347.920	0.130	0.130	0.490
2020/01/31 10:45:35.2	347.910	0.110	0.150	0.500
2020/01/31 10:45:35.3	347.900	0.100	0.160	0.510
2020/01/31 10:45:35.4	347.880	0.080	0.170	0.520
2020/01/31 10:45:35.5	347.870	0.070	0.180	0.520
2020/01/31 10:45:35.6	347.860	0.060	0.180	0.520
2020/01/31 10:45:35.7	347.850	0.050	0.190	0.520
2020/01/31 10:45:35.8	347.840	0.030	0.190	0.520
2020/01/31 10:45:35.9	347.830	0.020	0.190	0.510
2020/01/31 10:45:36.0	347.820	0.020	0.190	0.500
2020/01/31 10:45:36.1	347.810	0.010	0.190	0.490
2020/01/31 10:45:36.2	347.800	0.000	0.180	0.470
2020/01/31 10:45:36.3	347.800	-0.010	0.170	0.450
2020/01/31 10:45:36.4	347.790	-0.010	0.160	0.430
2020/01/31 10:45:36.5	347.790	-0.020	0.140	0.400
2020/01/31 10:45:36.6	347.780	-0.020	0.130	0.380
2020/01/31 10:45:36.7	347.780	-0.030	0.110	0.350
2020/01/31 10:45:36.8	347.780	-0.030	0.090	0.310
2020/01/31 10:45:36.9	347.770	-0.040	0.070	0.280
2020/01/31 10:45:37.0	347.770	-0.040	0.050	0.240
2020/01/31 10:45:37.1	347.770	-0.050	0.030	0.200
2020/01/31 10:45:37.2	347.770	-0.050	0.010	0.160
2020/01/31 10:45:37.3	347.760	-0.060	-0.010	0.120
2020/01/31 10:45:37.4	347.770	-0.060	-0.030	0.080
2020/01/31 10:45:37.5	347.770	-0.070	-0.050	0.040
2020/01/31 10:45:37.6	347.760	-0.080	-0.070	-0.000
2020/01/31 10:45:37.7	347.760	-0.080	-0.090	-0.040
2020/01/31 10:45:37.8	347.750	-0.090	-0.110	-0.080
2020/01/31 10:45:37.9	347.750	-0.100	-0.130	-0.110
2020/01/31 10:45:38.0	347.740	-0.110	-0.140	-0.150
2020/01/31 10:45:38.1	347.730	-0.120	-0.160	-0.180
2020/01/31 10:45:38.2	347.730	-0.130	-0.170	-0.210
2020/01/31 10:45:38.3	347.720	-0.140	-0.180	-0.240
2020/01/31 10:45:38.4	347.700	-0.150	-0.190	-0.260
2020/01/31 10:45:38.5	347.690	-0.160	-0.200	-0.290
2020/01/31 10:45:38.6	347.670	-0.170	-0.210	-0.310
2020/01/31 10:45:38.7	347.660	-0.180	-0.220	-0.330
2020/01/31 10:45:38.8	347.650	-0.190	-0.230	-0.350
2020/01/31 10:45:38.9	347.640	-0.200	-0.240	-0.370
2020/01/31 10:45:39.0	347.620	-0.210	-0.250	-0.390
2020/01/31 10:45:39.1	347.610	-0.220	-0.270	-0.410
2020/01/31 10:45:39.2	347.600	-0.230	-0.280	-0.430
2020/01/31 10:45:39.3	347.600	-0.230	-0.290	-0.450
2020/01/31 10:45:39.4	347.590	-0.240	-0.310	-0.470
2020/01/31 10:45:39.5	347.580	-0.240	-0.320	-0.490
2020/01/31 10:45:39.6	347.580	-0.250	-0.340	-0.510
2020/01/31 10:45:39.7	347.580	-0.250	-0.360	-0.530
2020/01/31 10:45:39.8	347.580	-0.240	-0.380	-0.550
2020/01/31 10:45:39.9	347.590	-0.240	-0.400	-0.570
2020/01/31 10:45:40.0	347.600	-0.230	-0.420	-0.600
2020/01/31 10:45:40.1	347.610	-0.220	-0.450	-0.620
2020/01/31 10:45:40.2	347.620	-0.210	-0.470	-0.640
2020/01/31 10:45:40.3	347.630	-0.200	-0.500	-0.670
2020/01/31 10:45:40.4	347.660	-0.180	-0.530	-0.690
2020/01/31 10:45:40.5	347.680	-0.160	-0.550	-0.710
2020/01/31 10:45:40.6	347.690	-0.140	-0.580	-0.730
2020/01/31 10:45:40.7	347.710	-0.120	-0.610	-0.750
2020/01/31 10:45:40.8	347.730	-0.090	-0.630	-0.760
2020/01/31 10:45:40.9	347.750	-0.070	-0.660	-0.770
2020/01/31 10:45:41.0	347.760	-0.040	-0.680	-0.780
2020/01/31 10:45:41.1	347.770	-0.020	-0.690	-0.780
2020/01/31 10:45:41.2	347.790	0.010	-0.710	-0.780
2020/01/31 10:45:41.3	347.800	0.040	-0.720	-0.770
2020/01/31 10:45:41.4	347.820	0.070	-0.730	-0.760
2020/01/31 10:45:41.5	347.830	0.100	-0.740	-0.740
2020/01/31 10:45:41.6	347.840	0.130	-0.740	-0.720
2020/01/31 10:45:41.7	347.840	0.160	-0.740	-0.700
2020/01/31 10:45:41.8	347.850	0.190	-0.740	-0.680
2020/01/31 10:45:41.9	347.860	0.210	-0.730	-0.650
2020/01/31 10:45:42.0	347.860	0.240	-0.720	-0.620
2020/01/31 10:45:42.1	347.870	0.260	-0.710	-0.590
2020/01/31 10:45:42.2	347.870	0.290	-0.690	-0.550
2020/01/31 10:45:42.3	347.880	0.310	-0.670	-0.520
2020/01/31 10:45:42.4	347.890	0.330	-0.650	-0.480
2020/01/31 10:45:42.5	347.900	0.350	-0.630	-0.440
2020/01/31 10:45:42.6	347.900	0.360	-0.610	-0.400
2020/01/31 10:45:42.7	347.910	0.370	-0.590	-0.360
2020/01/31 10:45:42.8	347.920	0.380	-0.560	-0.320
2020/01/31 10:45:42.9	347.930	0.390	-0.540	-0.280
2020/01/31 10:45:43.0	347.940	0.400	-0.510	-0.240
2020/01/31 10:45:43.1	347.960	0.400	-0.490	-0.200
2020/01/31 10:45:43.2	347.970	0.400	-0.460	-0.160
2020/01/31 10:45:43.3	347.980	0.400	-0.440	-0.130
2020/01/31 10:45:43.4	347.990	0.400	-0.410	-0.090
2020/01/31 10:45:43.5	348.000	0.390	-0.380	-0.050
2020/01/31 10:45:43.6	348.010	0.380	-0.350	-0.010
2020/01/31 10:45:43.7	348.020	0.360	-0.320	0.030
2020/01/31 10:45:43.8	348.020	0.350	-0.290	0.070
2020/01/31 10:45:43.9	348.020	0.330	-0.260	0.100
2020/01/31 10:45:44.0	348.020	0.300	-0.230	0.140
2020/01/31 10:45:44.1	348.020	0.280	-0.200	0.170
2020/01/31 10:45:44.2	348.020	0.250	-0.160	0.200
2020/01/31 10:45:44.3	348.010	0.210	-0.130	0.230
2020/01/31 10:45:44.4	348.000	0.180	-0.090	0.260
2020/01/31 10:45:44.5	347.990	0.140	-0.060	0.290
2020/01/31 10:45:44.6	347.980	0.100	-0.020	0.310
2020/01/31 10:45:44.7	347.970	0.060	0.010	0.330
2020/01/31 10:45:44.8	347.960	0.020	0.040	0.350
2020/01/31 10:45:44.9	347.950	-0.020	0.080	0.360
2020/01/31 10:45:45.0	347.940	-0.070	0.110	0.380
2020/01/31 10:45:45.1	347.930	-0.110	0.140	0.390
2020/01/31 10:45:45.2	347.920	-0.160	0.160	0.390
2020/01/31 10:45:45.3	347.910	-0.200	0.190	0.400
2020/01/31 10:45:45.4	347.900	-0.240	0.210	0.400
2020/01/31 10:45:45.5	347.900	-0.280	0.220	0.390
2020/01/31 10:45:45.6	347.890	-0.320	0.240	0.390
2020/01/31 10:45:45.7	347.890	-0.360	0.250	0.380
2020/01/31 10:45:45.8	347.880	-0.400	0.250	0.370
2020/01/31 10:45:45.9	347.880	-0.430	0.260	0.360
2020/01/31 10:45:46.0	347.880	-0.460	0.260	0.350
2020/01/31 10:45:46.1	347.880	-0.490	0.250	0.330
2020/01/31 10:45:46.2	347.890	-0.510	0.240	0.310
2020/01/31 10:45:46.3	347.890	-0.530	0.230	0.290
2020/01/31 10:45:46.4	347.900	-0.540	0.210	0.270
2020/01/31 10:45:46.5	347.900	-0.550	0.190	0.250
2020/01/31 10:45:46.6	347.900	-0.560	0.160	0.230
2020/01/31 10:45:46.7	347.910	-0.560	0.140	0.210
2020/01/31 10:45:46.8	347.910	-0.560	0.110	0.190
2020/01/31 10:45:46.9	347.920	-0.560	0.080	0.170
2020/01/31 10:45:47.0	347.920	-0.550	0.050	0.150
2020/01/31 10:45:47.1	347.920	-0.530	0.020	0.130
2020/01/31 10:45:47.2	347.920	-0.520	-0.010	0.110
2020/01/31 10:45:47.3	347.910	-0.500	-0.040	0.090
2020/01/31 10:45:47.4	347.920	-0.470	-0.080	0.080
2020/01/31 10:45:47.5	347.910	-0.450	-0.100	0.060
2020/01/31 10:45:47.6	347.900	-0.420	-0.130	0.050
2020/01/31 10:45:47.7	347.890	-0.390	-0.160	0.040
2020/01/31 10:45:47.8	347.880	-0.350	-0.180	0.030
2020/01/31 10:45:47.9	347.870	-0.320	-0.200	0.020
2020/01/31 10:45:48.0	347.850	-0.280	-0.210	0.010
2020/01/31 10:45:48.1	347.840	-0.250	-0.230	0.010
2020/01/31 10:45:48.2	347.820	-0.210	-0.240	0.000
2020/01/31 10:45:48.3	347.800	-0.170	-0.250	0.000
2020/01/31 10:45:48.4	347.770	-0.140	-0.250	0.010
2020/01/31 10:45:48.5	347.750	-0.100	-0.250	0.010
2020/01/31 10:45:48.6	347.720	-0.070	-0.250	0.020
2020/01/31 10:45:48.7	347.700	-0.030	-0.240	0.030
2020/01/31 10:45:48.8	347.670	-0.000	-0.240	0.040
2020/01/31 10:45:48.9	347.640	0.030	-0.230	0.050
2020/01/31 10:45:49.0	347.620	0.060	-0.220	0.070
2020/01/31 10:45:49.1	347.590	0.080	-0.210	0.080
2020/01/31 10:45:49.2				
2020/01/31 10:45:49.3	347.560	0.110	-0.200	0.100
2020/01/31 10:45:49.4	347.510	0.150	-0.170	0.130
2020/01/31 10:45:49.5	347.490	0.170	-0.160	0.150
2020/01/31 10:45:49.6	347.470	0.180	-0.150	0.160
2020/01/31 10:45:49.7	347.450	0.190	-0.140	0.180
2020/01/31 10:45:49.8	347.430	0.200	-0.130	0.190
2020/01/31 10:45:49.9	347.410	0.210	-0.120	0.200
2020/01/31 10:45:50.0	347.390	0.220	-0.120	0.210
2020/01/31 10:45:50.1	347.380	0.220	-0.110	0.220
2020/01/31 10:45:50.2	347.370	0.220	-0.110	0.220
2020/01/31 10:45:50.3	347.370	0.220	-0.110	0.220
2020/01/31 10:45:50.4	347.360	0.220	-0.120	0.220
2020/01/31 10:45:50.5	347.360	0.210	-0.120	0.220
2020/01/31 10:45:50.6	347.360	0.210	-0.130	0.210
2020/01/31 10:45:50.7	347.360	0.200	-0.140	0.200
2020/01/31 10:45:50.8	347.360	0.200	-0.150	0.190
2020/01/31 10:45:50.9	347.360	0.190	-0.160	0.180
2020/01/31 10:45:51.0	347.370	0.180	-0.180	0.170
2020/01/31 10:45:51.1	347.370	0.170	-0.190	0.160
2020/01/31 10:45:51.2	347.380	0.160	-0.200	0.140
2020/01/31 10:45:51.3	347.390	0.160	-0.220	0.130
2020/01/31 10:45:51.4	347.390	0.150	-0.240	0.120
2020/01/31 10:45:51.5	347.390	0.140	-0.250	0.100
2020/01/31 10:45:51.6	347.400	0.130	-0.260	0.090
2020/01/31 10:45:51.7	347.410	0.120	-0.280	0.080
2020/01/31 10:45:51.8	347.420	0.110	-0.290	0.060
2020/01/31 10:45:51.9	347.420	0.100	-0.300	0.050
2020/01/31 10:45:52.0	347.430	0.090	-0.310	0.040
2020/01/31 10:45:52.1	347.440	0.080	-0.320	0.020
2020/01/31 10:45:52.2	347.440	0.070	-0.330	0.010
2020/01/31 10:45:52.3	347.450	0.060	-0.330	0.000
2020/01/31 10:45:52.4	347.440	0.050	-0.340	-0.000
2020/01/31 10:45:52.5	347.450	0.040	-0.350	-0.010
2020/01/31 10:45:52.6	347.450	0.030	-0.350	-0.020
2020/01/31 10:45:52.7	347.460	0.020	-0.360	-0.020
2020/01/31 10:45:52.8	347.460	0.010	-0.370	-0.030
2020/01/31 10:45:52.9	347.460	-0.010	-0.370	-0.030
2020/01/31 10:45:53.0	347.470	-0.020	-0.380	-0.030
2020/01/31 10:45:53.1	347.470	-0.030	-0.390	-0.040
2020/01/31 10:45:53.2	347.470	-0.040	-0.390	-0.040
2020/01/31 10:45:53.3	347.480	-0.050	-0.400	-0.040
2020/01/31 10:45:53.4	347.470	-0.060	-0.410	-0.040
2020/01/31 10:45:53.5	347.480	-0.070	-0.420	-0.040
2020/01/31 10:45:53.6	347.480	-0.080	-0.430	-0.040
2020/01/31 10:45:53.7	347.490	-0.090	-0.440	-0.040
2020/01/31 10:45:53.8	347.490	-0.100	-0.450	-0.040
2020/01/31 10:45:53.9	347.500	-0.100	-0.460	-0.040
2020/01/31 10:45:54.0	347.510	-0.110	-0.470	-0.040
2020/01/31 10:45:54.1	347.520	-0.110	-0.480	-0.040
2020/01/31 10:45:54.2	347.530	-0.110	-0.490	-0.040
2020/01/31 10:45:54.3	347.540	-0.110	-0.500	-0.050
2020/01/31 10:45:54.4	347.540	-0.110	-0.510	-0.040
2020/01/31 10:45:54.5	347.550	-0.100	-0.520	-0.040
2020/01/31 10:45:54.6	347.560	-0.100	-0.520	-0.040
2020/01/31 10:45:54.7	347.580	-0.090	-0.530	-0.030
2020/01/31 10:45:54.8	347.590	-0.070	-0.530	-0.030
2020/01/31 10:45:54.9	347.600	-0.060	-0.540	-0.020
2020/01/31 10:45:55.0	347.610	-0.040	-0.540	-0.010
2020/01/31 10:45:55.1	347.610	-0.030	-0.540	0.000
2020/01/31 10:45:55.2	347.620	-0.010	-0.530	0.020
2020/01/31 10:45:55.3	347.630	0.010	-0.530	0.030
2020/01/31 10:45:55.4	347.650	0.030	-0.530	0.050
2020/01/31 10:45:55.5	347.650	0.060	-0.520	0.070
2020/01/31 10:45:55.6	347.660	0.080	-0.500	0.100
2020/01/31 10:45:55.7	347.670	0.100	-0.490	0.120
2020/01/31 10:45:55.8	347.670	0.120	-0.470	0.150
2020/01/31 10:45:55.9	347.680	0.150	-0.450	0.170
2020/01/31 10:45:56.0	347.680	0.170	-0.440	0.200
2020/01/31 10:45:56.1	347.690	0.190	-0.410	0.220
2020/01/31 10:45:56.2	347.690	0.200	-0.390	0.250
2020/01/31 10:45:56.3	347.700	0.220	-0.370	0.280
2020/01/31 10:45:56.4	347.700	0.240	-0.350	0.310
2020/01/31 10:45:56.5	347.700	0.250	-0.320	0.330
2020/01/31 10:45:56.6	347.710	0.260	-0.300	0.350
2020/01/31 10:45:56.7	347.710	0.270	-0.270	0.370
2020/01/31 10:45:56.8	347.710	0.280	-0.250	0.390
2020/01/31 10:45:56.9	347.720	0.280	-0.230	0.410
2020/01/31 10:45:57.0	347.720	0.280	-0.210	0.430
2020/01/31 10:45:57.1	347.720	0.280	-0.180	0.440
2020/01/31 10:45:57.2	347.720	0.280	-0.160	0.450
2020/01/31 10:45:57.3	347.720	0.270	-0.140	0.460
2020/01/31 10:45:57.4	347.710	0.260	-0.130	0.470
2020/01/31 10:45:57.5	347.710	0.250	-0.110	0.470
2020/01/31 10:45:57.6	347.710	0.240	-0.090	0.470
2020/01/31 10:45:57.7	347.700	0.220	-0.080	0.470
2020/01/31 10:45:57.8	347.700	0.210	-0.060	0.470
2020/01/31 10:45:57.9	347.690	0.190	-0.050	0.460
2020/01/31 10:45:58.0	347.680	0.170	-0.040	0.450
2020/01/31 10:45:58.1	347.670	0.140	-0.020	0.440
2020/01/31 10:45:58.2	347.660	0.120	-0.010	0.430
2020/01/31 10:45:58.3	347.650	0.090	-0.000	0.420
2020/01/31 10:45:58.4	347.640	0.070	0.010	0.400
2020/01/31 10:45:58.5	347.630	0.040	0.020	0.380
2020/01/31 10:45:58.6	347.610	0.020	0.030	0.360
2020/01/31 10:45:58.7	347.600	-0.010	0.040	0.340
2020/01/31 10:45:58.8	347.580	-0.040	0.050	0.320
2020/01/31 10:45:58.9	347.560	-0.060	0.060	0.290
2020/01/31 10:45:59.0	347.550	-0.090	0.070	0.270
2020/01/31 10:45:59.1	347.530	-0.110	0.080	0.250
2020/01/31 10:45:59.2	347.510	-0.140	0.100	0.220
2020/01/31 10:45:59.3	347.490	-0.160	0.110	0.200
2020/01/31 10:45:59.4	347.460	-0.180	0.120	0.170
2020/01/31 10:45:59.5	347.450	-0.200	0.140	0.150
2020/01/31 10:45:59.6	347.430	-0.220	0.150	0.130
2020/01/31 10:45:59.7	347.410	-0.240	0.160	0.110
2020/01/31 10:45:59.8	347.400	-0.260	0.170	0.080
2020/01/31 10:45:59.9	347.390	-0.270	0.190	0.060
2020/01/31 10:46:00.0	347.370	-0.280	0.200	0.040
2020/01/31 10:46:00.1	347.360	-0.300	0.210	0.030
2020/01/31 10:46:00.2	347.340	-0.310	0.220	0.010
2020/01/31 10:46:00.3	347.330	-0.320	0.220	-0.000
2020/01/31 10:46:00.4	347.320	-0.330	0.220	-0.020
2020/01/31 10:46:00.5	347.300	-0.340	0.230	-0.030
2020/01/31 10:46:00.6	347.290	-0.340	0.230	-0.040
2020/01/31 10:46:00.7	347.270	-0.350	0.230	-0.050
2020/01/31 10:46:00.8	347.260	-0.360	0.230	-0.050
2020/01/31 10:46:00.9	347.240	-0.360	0.230	-0.060
2020/01/31 10:46:01.0	347.230	-0.360	0.230	-0.060
2020/01/31 10:46:01.1	347.210	-0.360	0.220	-0.060
2020/01/31 10:46:01.2	347.190	-0.370	0.210	-0.060
2020/01/31 10:46:01.3	347.180	-0.370	0.200	-0.060
2020/01/31 10:46:01.4	347.160	-0.370	0.180	-0.050
2020/01/31 10:46:01.5	347.150	-0.360	0.170	-0.050
2020/01/31 10:46:01.6	347.130	-0.360	0.150	-0.040
2020/01/31 10:46:01.7	347.120	-0.360	0.120	-0.030
2020/01/31 10:46:01.8	347.100	-0.350	0.100	-0.030
2020/01/31 10:46:01.9	347.090	-0.350	0.070	-0.020
2020/01/31 10:46:02.0	347.080	-0.340	0.040	-0.010
2020/01/31 10:46:02.1	347.070	-0.330	0.010	-0.010
2020/01/31 10:46:02.2	347.060	-0.320	-0.030	0.000
2020/01/31 10:46:02.3	347.060	-0.310	-0.070	0.010
2020/01/31 10:46:02.4	347.050	-0.300	-0.110	0.010
2020/01/31 10:46:02.5	347.050	-0.290	-0.150	0.010
2020/01/31 10:46:02.6	347.050	-0.280	-0.190	0.020
2020/01/31 10:46:02.7	347.050	-0.260	-0.240	0.020
2020/01/31 10:46:02.8	347.050	-0.250	-0.290	0.020
2020/01/31 10:46:02.9	347.060	-0.230	-0.340	0.010
2020/01/31 10:46:03.0	347.060	-0.220	-0.390	0.010
2020/01/31 10:46:03.1	347.070	-0.200	-0.440	0.010
2020/01/31 10:46:03.2	347.080	-0.180	-0.490	0.000
2020/01/31 10:46:03.3	347.090	-0.160	-0.540	-0.000
2020/01/31 10:46:03.4	347.110	-0.150	-0.590	-0.010
2020/01/31 10:46:03.5	347.120	-0.130	-0.630	-0.020
2020/01/31 10:46:03.6	347.130	-0.110	-0.680	-0.020
2020/01/31 10:46:03.7	347.140	-0.090	-0.720	-0.030
2020/01/31 10:46:03.8	347.150	-0.080	-0.760	-0.030
2020/01/31 10:46:03.9				
2020/01/31 10:46:04.0	347.160	-0.060	-0.800	-0.030
2020/01/31 10:46:04.1	347.170	-0.030	-0.860	-0.030
2020/01/31 10:46:04.2	347.180	-0.020	-0.880	-0.030
2020/01/31 10:46:04.3	347.190	-0.000	-0.900	-0.030
2020/01/31 10:46:04.4	347.190	0.010	-0.910	-0.020
2020/01/31 10:46:04.5	347.190	0.020	-0.920	-0.010
2020/01/31 10:46:04.6	347.200	0.030	-0.930	-0.010
2020/01/31 10:46:04.7	347.200	0.040	-0.930	0.000
2020/01/31 10:46:04.8	347.210	0.050	-0.920	0.010
2020/01/31 10:46:04.9	347.210	0.050	-0.920	0.020
2020/01/31 10:46:05.0	347.220	0.060	-0.900	0.020
2020/01/31 10:46:05.1	347.230	0.060	-0.890	0.030
2020/01/31 10:46:05.2	347.230	0.070	-0.870	0.040
2020/01/31 10:46:05.3	347.240	0.070	-0.840	0.040
2020/01/31 10:46:05.4	347.250	0.070	-0.820	0.050
2020/01/31 10:46:05.5	347.260	0.070	-0.790	0.050
2020/01/31 10:46:05.6	347.280	0.070	-0.760	0.050
2020/01/31 10:46:05.7	347.290	0.070	-0.730	0.060
2020/01/31 10:46:05.8	347.300	0.070	-0.690	0.060
2020/01/31 10:46:05.9	347.320	0.070	-0.660	0.060
2020/01/31 10:46:06.0	347.330	0.070	-0.620	0.060
2020/01/31 10:46:06.1	347.350	0.070	-0.580	0.060
2020/01/31 10:46:06.2	347.360	0.070	-0.540	0.060
2020/01/31 10:46:06.3	347.380	0.070	-0.510	0.070
2020/01/31 10:46:06.4	347.400	0.070	-0.470	0.070
2020/01/31 10:46:06.5	347.420	0.070	-0.430	0.070
2020/01/31 10:46:06.6	347.430	0.070	-0.390	0.080
2020/01/31 10:46:06.7	347.450	0.060	-0.350	0.080
2020/01/31 10:46:06.8	347.460	0.060	-0.310	0.090
2020/01/31 10:46:06.9	347.470	0.060	-0.270	0.100
2020/01/31 10:46:07.0	347.480	0.060	-0.240	0.110
2020/01/31 10:46:07.1	347.500	0.060	-0.200	0.120
2020/01/31 10:46:07.2	347.510	0.070	-0.160	0.130
2020/01/31 10:46:07.3	347.510	0.070	-0.120	0.140
2020/01/31 10:46:07.4	347.530	0.070	-0.090	0.160
2020/01/31 10:46:07.5	347.540	0.070	-0.060	0.170
2020/01/31 10:46:07.6	347.550	0.070	-0.020	0.190
2020/01/31 10:46:07.7	347.550	0.070	0.010	0.210
2020/01/31 10:46:07.8	347.550	0.070	0.040	0.230
2020/01/31 10:46:07.9	347.550	0.070	0.070	0.250
2020/01/31 10:46:08.0	347.550	0.080	0.100	0.280
2020/01/31 10:46:08.1	347.550	0.080	0.130	0.300
2020/01/31 10:46:08.2	347.540	0.080	0.150	0.330
2020/01/31 10:46:08.3	347.530	0.080	0.170	0.350
2020/01/31 10:46:08.4	347.530	0.080	0.190	0.380
2020/01/31 10:46:08.5	347.520	0.080	0.210	0.400
2020/01/31 10:46:08.6	347.510	0.080	0.230	0.430
2020/01/31 10:46:08.7	347.490	0.080	0.240	0.460
2020/01/31 10:46:08.8	347.480	0.080	0.250	0.490
2020/01/31 10:46:08.9	347.460	0.080	0.260	0.520
2020/01/31 10:46:09.0	347.440	0.080	0.260	0.550
2020/01/31 10:46:09.1	347.410	0.080	0.270	0.580
2020/01/31 10:46:09.2	347.390	0.080	0.270	0.600
2020/01/31 10:46:09.3	347.360	0.080	0.270	0.630
2020/01/31 10:46:09.4	347.340	0.080	0.260	0.660
2020/01/31 10:46:09.5	347.310	0.080	0.260	0.680
2020/01/31 10:46:09.6	347.280	0.080	0.250	0.710
2020/01/31 10:46:09.7	347.250	0.070	0.250	0.730
2020/01/31 10:46:09.8	347.220	0.070	0.240	0.760
2020/01/31 10:46:09.9	347.200	0.070	0.230	0.780
2020/01/31 10:46:10.0	347.170	0.070	0.220	0.800
2020/01/31 10:46:10.1	347.140	0.070	0.200	0.820
2020/01/31 10:46:10.2	347.110	0.070	0.190	0.840
2020/01/31 10:46:10.3	347.090	0.070	0.180	0.860
2020/01/31 10:46:10.4	347.060	0.070	0.160	0.870
2020/01/31 10:46:10.5	347.030	0.070	0.150	0.890
2020/01/31 10:46:10.6	347.010	0.070	0.130	0.900
2020/01/31 10:46:10.7	346.980	0.070	0.120	0.910
2020/01/31 10:46:10.8	346.960	0.070	0.100	0.920
2020/01/31 10:46:10.9	346.940	0.070	0.080	0.930
2020/01/31 10:46:11.0	346.910	0.070	0.070	0.930
2020/01/31 10:46:11.1	346.890	0.070	0.050	0.930
2020/01/31 10:46:11.2	346.870	0.070	0.030	0.930
2020/01/31 10:46:11.3	346.840	0.070	0.020	0.930
2020/01/31 10:46:11.4	346.820	0.070	0.000	0.920
2020/01/31 10:46:11.5	346.790	0.070	-0.020	0.920
2020/01/31 10:46:11.6	346.770	0.070	-0.030	0.910
2020/01/31 10:46:11.7	346.750	0.070	-0.050	0.890
2020/01/31 10:46:11.8	346.730	0.070	-0.070	0.870
2020/01/31 10:46:11.9	346.700	0.070	-0.090	0.850
2020/01/31 10:46:12.0	346.680	0.070	-0.100	0.830
2020/01/31 10:46:12.1	346.660	0.060	-0.120	0.800
2020/01/31 10:46:12.2	346.640	0.060	-0.140	0.770
2020/01/31 10:46:12.3	346.620	0.050	-0.160	0.740
2020/01/31 10:46:12.4	346.610	0.040	-0.180	0.700
2020/01/31 10:46:12.5	346.600	0.040	-0.210	0.660
2020/01/31 10:46:12.6	346.590	0.030	-0.230	0.620
2020/01/31 10:46:12.7	346.580	0.020	-0.250	0.570
2020/01/31 10:46:12.8	346.570	0.010	-0.280	0.520
2020/01/31 10:46:12.9	346.570	-0.000	-0.310	0.470
2020/01/31 10:46:13.0	346.570	-0.020	-0.340	0.420
2020/01/31 10:46:13.1	346.570	-0.030	-0.370	0.360
2020/01/31 10:46:13.2	346.580	-0.040	-0.400	0.300
2020/01/31 10:46:13.3	346.600	-0.050	-0.440	0.240
2020/01/31 10:46:13.4	346.620	-0.060	-0.480	0.170
2020/01/31 10:46:13.5	346.640	-0.080	-0.520	0.100
2020/01/31 10:46:13.6	346.660	-0.090	-0.560	0.040
2020/01/31 10:46:13.7	346.690	-0.100	-0.590	-0.030
2020/01/31 10:46:13.8	346.720	-0.110	-0.630	-0.100
2020/01/31 10:46:13.9	346.750	-0.120	-0.680	-0.170
2020/01/31 10:46:14.0	346.780	-0.130	-0.710	-0.230
2020/01/31 10:46:14.1	346.810	-0.140	-0.750	-0.300
2020/01/31 10:46:14.2	346.850	-0.150	-0.790	-0.360
2020/01/31 10:46:14.3	346.890	-0.150	-0.820	-0.420
2020/01/31 10:46:14.4	346.920	-0.160	-0.860	-0.480
2020/01/31 10:46:14.5	346.950	-0.160	-0.880	-0.530
2020/01/31 10:46:14.6	346.990	-0.170	-0.910	-0.570
2020/01/31 10:46:14.7	347.020	-0.170	-0.930	-0.610
2020/01/31 10:46:14.8	347.050	-0.170	-0.940	-0.640
2020/01/31 10:46:14.9	347.080	-0.170	-0.950	-0.670
2020/01/31 10:46:15.0	347.110	-0.170	-0.950	-0.690
2020/01/31 10:46:15.1	347.130	-0.170	-0.940	-0.710
2020/01/31 10:46:15.2	347.150	-0.160	-0.930	-0.720
2020/01/31 10:46:15.3	347.170	-0.160	-0.920	-0.730
2020/01/31 10:46:15.4	347.200	-0.150	-0.890	-0.720
2020/01/31 10:46:15.5	347.210	-0.140	-0.860	-0.720
2020/01/31 10:46:15.6	347.220	-0.140	-0.830	-0.700
2020/01/31 10:46:15.7	347.230	-0.130	-0.790	-0.690
2020/01/31 10:46:15.8	347.240	-0.120	-0.740	-0.670
2020/01/31 10:46:15.9	347.240	-0.110	-0.700	-0.640
2020/01/31 10:46:16.0	347.240	-0.090	-0.640	-0.620
2020/01/31 10:46:16.1	347.240	-0.080	-0.590	-0.580
2020/01/31 10:46:16.2	347.240	-0.070	-0.540	-0.550
2020/01/31 10:46:16.3	347.240	-0.060	-0.480	-0.520
2020/01/31 10:46:16.4	347.250	-0.050	-0.430	-0.480
2020/01/31 10:46:16.5				
2020/01/31 10:46:16.6	347.250	-0.030	-0.370	-0.440
2020/01/31 10:46:16.7	347.240	-0.010	-0.270	-0.360
2020/01/31 10:46:16.8	347.230	0.010	-0.220	-0.330
2020/01/31 10:46:16.9	347.230	0.020	-0.170	-0.290
2020/01/31 10:46:17.0	347.220	0.030	-0.120	-0.250
2020/01/31 10:46:17.1	347.220	0.040	-0.080	-0.210
2020/01/31 10:46:17.2	347.210	0.050	-0.050	-0.180
2020/01/31 10:46:17.3	347.210	0.060	-0.010	-0.140
2020/01/31 10:46:17.4	347.210	0.070	0.020	-0.100
2020/01/31 10:46:17.5	347.200	0.080	0.050	-0.070
2020/01/31 10:46:17.6	347.200	0.080	0.070	-0.040
2020/01/31 10:46:17.7	347.190	0.090	0.090	-0.020
2020/01/31 10:46:17.8	347.190	0.090	0.110	0.010
2020/01/31 10:46:17.9	347.190	0.090	0.120	0.030
2020/01/31 10:46:18.0	347.180	0.090	0.130	0.060
2020/01/31 10:46:18.1	347.180	0.090	0.140	0.080
2020/01/31 10:46:18.2	347.170	0.080	0.150	0.090
2020/01/31 10:46:18.3	347.170	0.080	0.160	0.110
2020/01/31 10:46:18.4	347.150	0.070	0.160	0.120
2020/01/31 10:46:18.5	347.140	0.060	0.170	0.140
2020/01/31 10:46:18.6				
2020/01/31 10:46:18.7	347.130	0.050	0.170	0.150
2020/01/31 10:46:18.8	347.110	0.030	0.190	0.180
2020/01/31 10:46:18.9	347.100	0.010	0.190	0.200
2020/01/31 10:46:19.0	347.080	-0.000	0.200	0.210
2020/01/31 10:46:19.1	347.060	-0.020	0.210	0.230
2020/01/31 10:46:19.2	347.040	-0.040	0.220	0.250
2020/01/31 10:46:19.3	347.010	-0.060	0.240	0.260
2020/01/31 10:46:19.4	346.970	-0.080	0.260	0.280
2020/01/31 10:46:19.5	346.940	-0.110	0.270	0.300
2020/01/31 10:46:19.6	346.910	-0.130	0.290	0.320
2020/01/31 10:46:19.7	346.870	-0.150	0.310	0.340
2020/01/31 10:46:19.8	346.840	-0.180	0.330	0.370
2020/01/31 10:46:19.9	346.800	-0.200	0.350	0.390
2020/01/31 10:46:20.0	346.760	-0.220	0.370	0.410
2020/01/31 10:46:20.1	346.720	-0.240	0.390	0.440
2020/01/31 10:46:20.2	346.680	-0.270	0.400	0.460
2020/01/31 10:46:20.3	346.640	-0.290	0.420	0.490
2020/01/31 10:46:20.4	346.590	-0.310	0.430	0.510
2020/01/31 10:46:20.5	346.550	-0.330	0.440	0.530
2020/01/31 10:46:20.6	346.510	-0.340	0.440	0.550
2020/01/31 10:46:20.7				
2020/01/31 10:46:20.8	346.470	-0.360	0.450	0.570
2020/01/31 10:46:20.9	346.390	-0.380	0.430	0.600
2020/01/31 10:46:21.0	346.360	-0.390	0.420	0.610
2020/01/31 10:46:21.1	346.330	-0.400	0.400	0.620
2020/01/31 10:46:21.2	346.300	-0.400	0.370	0.620
2020/01/31 10:46:21.3	346.280	-0.400	0.330	0.620
2020/01/31 10:46:21.4	346.260	-0.390	0.290	0.610
2020/01/31 10:46:21.5	346.250	-0.380	0.240	0.600
2020/01/31 10:46:21.6	346.230	-0.370	0.180	0.580
2020/01/31 10:46:21.7	346.230	-0.360	0.120	0.560
2020/01/31 10:46:21.8	346.220	-0.340	0.050	0.540
2020/01/31 10:46:21.9	346.220	-0.320	-0.020	0.520
2020/01/31 10:46:22.0	346.230	-0.290	-0.100	0.490
2020/01/31 10:46:22.1	346.230	-0.260	-0.190	0.460
2020/01/31 10:46:22.2	346.240	-0.230	-0.270	0.430
2020/01/31 10:46:22.3	346.250	-0.200	-0.360	0.390
2020/01/31 10:46:22.4	346.290	-0.170	-0.450	0.360
2020/01/31 10:46:22.5	346.310	-0.130	-0.540	0.330
2020/01/31 10:46:22.6	346.320	-0.090	-0.630	0.290
2020/01/31 10:46:22.7	346.340	-0.050	-0.720	0.260
2020/01/31 10:46:22.8				
2020/01/31 10:46:22.9	346.370	-0.010	-0.800	0.220
2020/01/31 10:46:23.0	346.410	0.070	-0.950	0.150
2020/01/31 10:46:23.1	346.430	0.100	-1.020	0.120
2020/01/31 10:46:23.2	346.450	0.140	-1.080	0.090
2020/01/31 10:46:23.3	346.470	0.180	-1.130	0.070
2020/01/31 10:46:23.4	346.480	0.220	-1.170	0.040
2020/01/31 10:46:23.5	346.500	0.250	-1.210	0.020
2020/01/31 10:46:23.6	346.510	0.280	-1.240	0.000
2020/01/31 10:46:23.7	346.520	0.310	-1.260	-0.010
2020/01/31 10:46:23.8	346.530	0.340	-1.270	-0.030
2020/01/31 10:46:23.9	346.540	0.360	-1.270	-0.040
2020/01/31 10:46:24.0	346.550	0.380	-1.260	-0.050
2020/01/31 10:46:24.1	346.560	0.400	-1.250	-0.050
2020/01/31 10:46:24.2	346.560	0.420	-1.220	-0.060
2020/01/31 10:46:24.3	346.570	0.430	-1.190	-0.060
2020/01/31 10:46:24.4	346.590	0.440	-1.160	-0.060
2020/01/31 10:46:24.5	346.590	0.440	-1.110	-0.050
2020/01/31 10:46:24.6	346.590	0.440	-1.060	-0.050
2020/01/31 10:46:24.7	346.590	0.440	-1.000	-0.040
2020/01/31 10:46:24.8	346.590	0.440	-0.940	-0.030
2020/01/31 10:46:24.9				
2020/01/31 10:46:25.0	346.590	0.430	-0.880	-0.020
2020/01/31 10:46:25.1	346.590	0.410	-0.740	0.010
2020/01/31 10:46:25.2	346.590	0.390	-0.670	0.020
2020/01/31 10:46:25.3	346.590	0.380	-0.600	0.030
2020/01/31 10:46:25.4	346.600	0.360	-0.530	0.050
2020/01/31 10:46:25.5	346.600	0.340	-0.460	0.060
2020/01/31 10:46:25.6	346.600	0.320	-0.390	0.070
2020/01/31 10:46:25.7	346.610	0.290	-0.330	0.080
2020/01/31 10:46:25.8	346.610	0.270	-0.260	0.090
2020/01/31 10:46:25.9	346.620	0.240	-0.200	0.100
2020/01/31 10:46:26.0	346.620	0.220	-0.140	0.110
2020/01/31 10:46:26.1	346.630	0.190	-0.090	0.120
2020/01/31 10:46:26.2	346.630	0.160	-0.030	0.130
2020/01/31 10:46:26.3	346.630	0.130	0.020	0.140
2020/01/31 10:46:26.4	346.620	0.110	0.060	0.150
2020/01/31 10:46:26.5	346.620	0.080	0.100	0.160
2020/01/31 10:46:26.6	346.620	0.050	0.140	0.160
2020/01/31 10:46:26.7	346.610	0.020	0.170	0.170
2020/01/31 10:46:26.8	346.610	-0.010	0.200	0.180
2020/01/31 10:46:26.9	346.610	-0.040	0.220	0.180
2020/01/31 10:46:27.0				
2020/01/31 10:46:27.1	346.600	-0.070	0.240	0.180
2020/01/31 10:46:27.2	346.590	-0.120	0.270	0.190
2020/01/31 10:46:27.3	346.580	-0.150	0.280	0.190
2020/01/31 10:46:27.4	346.580	-0.170	0.290	0.190
2020/01/31 10:46:27.5	346.580	-0.200	0.290	0.180
2020/01/31 10:46:27.6	346.570	-0.220	0.290	0.180
2020/01/31 10:46:27.7	346.570	-0.240	0.290	0.180
2020/01/31 10:46:27.8	346.560	-0.250	0.280	0.170
2020/01/31 10:46:27.9	346.560	-0.270	0.270	0.170
2020/01/31 10:46:28.0	346.550	-0.280	0.260	0.170
2020/01/31 10:46:28.1	346.550	-0.300	0.250	0.160
2020/01/31 10:46:28.2	346.550	-0.310	0.230	0.160
2020/01/31 10:46:28.3	346.540	-0.310	0.220	0.160
2020/01/31 10:46:28.4	346.530	-0.320	0.200	0.160
2020/01/31 10:46:28.5	346.520	-0.320	0.180	0.160
2020/01/31 10:46:28.6	346.520	-0.320	0.170	0.160
2020/01/31 10:46:28.7	346.510	-0.320	0.150	0.170
2020/01/31 10:46:28.8	346.510	-0.320	0.130	0.170
2020/01/31 10:46:28.9	346.500	-0.310	0.110	0.180
2020/01/31 10:46:29.0	346.490	-0.310	0.100	0.200
2020/01/31 10:46:29.1				
2020/01/31 10:46:29.2	346.480	-0.300	0.080	0.210
2020/01/31 10:46:29.3	346.450	-0.270	0.050	0.250
2020/01/31 10:46:29.4	346.440	-0.260	0.040	0.270
2020/01/31 10:46:29.5	346.430	-0.250	0.020	0.290
2020/01/31 10:46:29.6	346.410	-0.230	0.010	0.320
2020/01/31 10:46:29.7	346.400	-0.210	-0.000	0.340
2020/01/31 10:46:29.8	346.380	-0.200	-0.010	0.370
2020/01/31 10:46:29.9	346.360	-0.180	-0.020	0.400
2020/01/31 10:46:30.0	346.350	-0.170	-0.040	0.430
2020/01/31 10:46:30.1	346.330	-0.150	-0.050	0.460
2020/01/31 10:46:30.2	346.310	-0.130	-0.060	0.490
2020/01/31 10:46:30.3	346.290	-0.120	-0.070	0.510
2020/01/31 10:46:30.4	346.260	-0.100	-0.080	0.540
2020/01/31 10:46:30.5	346.250	-0.080	-0.090	0.570
2020/01/31 10:46:30.6	346.230	-0.070	-0.110	0.600
2020/01/31 10:46:30.7	346.210	-0.050	-0.120	0.630
2020/01/31 10:46:30.8	346.190	-0.040	-0.130	0.650
2020/01/31 10:46:30.9	346.170	-0.030	-0.150	0.680
2020/01/31 10:46:31.0	346.150	-0.010	-0.160	0.700
2020/01/31 10:46:31.1	346.130	0.000	-0.170	0.720
2020/01/31 10:46:31.2				
2020/01/31 10:46:31.3	346.110	0.010	-0.190	0.740
2020/01/31 10:46:31.4	346.080	0.040	-0.220	0.780
2020/01/31 10:46:31.5	346.060	0.050	-0.240	0.790
2020/01/31 10:46:31.6	346.050	0.060	-0.260	0.810
2020/01/31 10:46:31.7	346.030	0.080	-0.280	0.820
2020/01/31 10:46:31.8	346.020	0.090	-0.290	0.830
2020/01/31 10:46:31.9	346.010	0.100	-0.310	0.830
2020/01/31 10:46:32.0	346.000	0.120	-0.330	0.840
2020/01/31 10:46:32.1	345.990	0.130	-0.360	0.840
2020/01/31 10:46:32.2	345.980	0.140	-0.380	0.840
2020/01/31 10:46:32.3	345.980	0.160	-0.400	0.830
2020/01/31 10:46:32.4	345.950	0.170	-0.420	0.820
2020/01/31 10:46:32.5	345.950	0.190	-0.440	0.820
2020/01/31 10:46:32.6	345.950	0.210	-0.460	0.800
2020/01/31 10:46:32.7	345.960	0.220	-0.480	0.790
2020/01/31 10:46:32.8	345.960	0.240	-0.500	0.770
2020/01/31 10:46:32.9	345.960	0.260	-0.520	0.760
2020/01/31 10:46:33.0	345.970	0.280	-0.540	0.740
2020/01/31 10:46:33.1	345.970	0.290	-0.550	0.720
2020/01/31 10:46:33.2	345.980	0.310	-0.560	0.690
2020/01/31 10:46:33.3				
2020/01/31 10:46:33.4	345.990	0.320	-0.570	0.670
2020/01/31 10:46:33.5	346.000	0.340	-0.590	0.620
2020/01/31 10:46:33.6	346.010	0.350	-0.590	0.590
2020/01/31 10:46:33.7	346.010	0.360	-0.580	0.570
2020/01/31 10:46:33.8	346.020	0.360	-0.580	0.540
2020/01/31 10:46:33.9	346.030	0.370	-0.570	0.510
2020/01/31 10:46:34.0	346.040	0.360	-0.560	0.480
2020/01/31 10:46:34.1	346.040	0.360	-0.540	0.450
2020/01/31 10:46:34.2	346.050	0.350	-0.520	0.420
2020/01/31 10:46:34.3	346.060	0.340	-0.500	0.390
2020/01/31 10:46:34.4	346.070	0.320	-0.480	0.350
2020/01/31 10:46:34.5	346.070	0.310	-0.460	0.320
2020/01/31 10:46:34.6	346.080	0.280	-0.430	0.290
2020/01/31 10:46:34.7	346.090	0.260	-0.400	0.250
2020/01/31 10:46:34.8	346.090	0.230	-0.370	0.220
2020/01/31 10:46:34.9	346.100	0.200	-0.340	0.180
2020/01/31 10:46:35.0	346.100	0.160	-0.310	0.150
2020/01/31 10:46:35.1	346.110	0.130	-0.280	0.110
2020/01/31 10:46:35.2	346.110	0.090	-0.250	0.080
2020/01/31 10:46:35.3	346.120	0.050	-0.220	0.040
2020/01/31 10:46:35.4				
2020/01/31 10:46:35.5	346.130	0.000	-0.180	0.010
2020/01/31 10:46:35.6	346.130	-0.080	-0.130	-0.060
2020/01/31 10:46:35.7	346.140	-0.130	-0.100	-0.090
2020/01/31 10:46:35.8	346.140	-0.180	-0.080	-0.120
2020/01/31 10:46:35.9	346.140	-0.220	-0.060	-0.150
2020/01/31 10:46:36.0	346.140	-0.270	-0.040	-0.180
2020/01/31 10:46:36.1	346.140	-0.310	-0.020	-0.200
2020/01/31 10:46:36.2	346.150	-0.350	-0.010	-0.230
2020/01/31 10:46:36.3	346.150	-0.390	0.010	-0.250
2020/01/31 10:46:36.4	346.140	-0.420	0.010	-0.270
2020/01/31 10:46:36.5	346.140	-0.460	0.010	-0.290
2020/01/31 10:46:36.6	346.150	-0.490	0.020	-0.310
2020/01/31 10:46:36.7	346.150	-0.510	0.020	-0.320
2020/01/31 10:46:36.8	346.150	-0.530	0.010	-0.330
2020/01/31 10:46:36.9	346.150	-0.550	0.010	-0.340
2020/01/31 10:46:37.0	346.160	-0.560	-0.000	-0.350
2020/01/31 10:46:37.1	346.160	-0.570	-0.010	-0.350
2020/01/31 10:46:37.2	346.160	-0.570	-0.030	-0.360
2020/01/31 10:46:37.3	346.160	-0.570	-0.040	-0.350
2020/01/31 10:46:37.4	346.180	-0.560	-0.060	-0.350
2020/01/31 10:46:37.5				
2020/01/31 10:46:37.6	346.180	-0.550	-0.080	-0.340
2020/01/31 10:46:37.7	346.180	-0.510	-0.120	-0.320
2020/01/31 10:46:37.8	346.180	-0.480	-0.140	-0.300
2020/01/31 10:46:37.9	346.180	-0.450	-0.160	-0.280
2020/01/31 10:46:38.0	346.180	-0.410	-0.180	-0.260
2020/01/31 10:46:38.1	346.180	-0.370	-0.200	-0.230
2020/01/31 10:46:38.2	346.170	-0.330	-0.220	-0.190
2020/01/31 10:46:38.3	346.170	-0.280	-0.240	-0.160
2020/01/31 10:46:38.4	346.170	-0.230	-0.250	-0.120
2020/01/31 10:46:38.5	346.160	-0.180	-0.270	-0.070
2020/01/31 10:46:38.6	346.150	-0.120	-0.290	-0.030
2020/01/31 10:46:38.7	346.140	-0.070	-0.300	0.020
2020/01/31 10:46:38.8	346.130	-0.010	-0.310	0.080
2020/01/31 10:46:38.9	346.110	0.040	-0.330	0.130
2020/01/31 10:46:39.0	346.100	0.090	-0.340	0.190
2020/01/31 10:46:39.1	346.090	0.150	-0.350	0.240
2020/01/31 10:46:39.2	346.070	0.200	-0.350	0.300
2020/01/31 10:46:39.3	346.060	0.250	-0.360	0.360
2020/01/31 10:46:39.4	346.040	0.290	-0.360	0.420
2020/01/31 10:46:39.5	346.020	0.330	-0.360	0.470
2020/01/31 10:46:39.6				
2020/01/31 10:46:39.7	346.010	0.370	-0.350	0.530
2020/01/31 10:46:39.8	345.980	0.430	-0.340	0.640
2020/01/31 10:46:39.9	345.960	0.460	-0.340	0.680
2020/01/31 10:46:40.0	345.940	0.480	-0.330	0.730
2020/01/31 10:46:40.1	345.930	0.490	-0.310	0.780
2020/01/31 10:46:40.2	345.910	0.500	-0.300	0.820
2020/01/31 10:46:40.3	345.890	0.510	-0.280	0.860
2020/01/31 10:46:40.4	345.870	0.510	-0.260	0.890
2020/01/31 10:46:40.5	345.850	0.500	-0.240	0.930
2020/01/31 10:46:40.6	345.830	0.490	-0.220	0.960
2020/01/31 10:46:40.7	345.810	0.480	-0.200	0.980
2020/01/31 10:46:40.8	345.790	0.460	-0.180	1.010
2020/01/31 10:46:40.9	345.770	0.430	-0.150	1.030
2020/01/31 10:46:41.0	345.750	0.410	-0.130	1.050
2020/01/31 10:46:41.1	345.730	0.370	-0.100	1.060
2020/01/31 10:46:41.2	345.710	0.340	-0.080	1.080
2020/01/31 10:46:41.3	345.690	0.300	-0.050	1.090
2020/01/31 10:46:41.4	345.670	0.260	-0.030	1.090
2020/01/31 10:46:41.5	345.650	0.220	-0.010	1.090
2020/01/31 10:46:41.6	345.640	0.170	0.010	1.090
2020/01/31 10:46:41.7				
2020/01/31 10:46:41.8	345.620	0.130	0.030	1.080
2020/01/31 10:46:41.9	345.590	0.040	0.060	1.060
2020/01/31 10:46:42.0	345.580	-0.010	0.080	1.040
2020/01/31 10:46:42.1	345.580	-0.050	0.080	1.020
2020/01/31 10:46:42.2	345.570	-0.090	0.090	0.990
2020/01/31 10:46:42.3	345.570	-0.140	0.090	0.960
2020/01/31 10:46:42.4	345.570	-0.170	0.080	0.920
2020/01/31 10:46:42.5	345.580	-0.210	0.070	0.880
2020/01/31 10:46:42.6	345.590	-0.240	0.060	0.830
2020/01/31 10:46:42.7	345.610	-0.270	0.040	0.780
2020/01/31 10:46:42.8	345.620	-0.300	0.020	0.720
2020/01/31 10:46:42.9	345.640	-0.330	-0.010	0.660
2020/01/31 10:46:43.0	345.670	-0.350	-0.040	0.600
2020/01/31 10:46:43.1	345.690	-0.360	-0.080	0.540
2020/01/31 10:46:43.2	345.720	-0.370	-0.110	0.470
2020/01/31 10:46:43.3	345.740	-0.380	-0.150	0.400
2020/01/31 10:46:43.4	345.780	-0.390	-0.200	0.330
2020/01/31 10:46:43.5	345.800	-0.390	-0.240	0.260
2020/01/31 10:46:43.6	345.830	-0.390	-0.290	0.190
2020/01/31 10:46:43.7	345.860	-0.380	-0.330	0.120
2020/01/31 10:46:43.8				
2020/01/31 10:46:43.9	345.890	-0.370	-0.380	0.050
2020/01/31 10:46:44.0	345.950	-0.350	-0.470	-0.070
2020/01/31 10:46:44.1	345.980	-0.330	-0.510	-0.130
2020/01/31 10:46:44.2	346.010	-0.310	-0.550	-0.190
2020/01/31 10:46:44.3	346.030	-0.290	-0.580	-0.250
2020/01/31 10:46:44.4	346.070	-0.270	-0.620	-0.300
2020/01/31 10:46:44.5	346.090	-0.250	-0.650	-0.340
2020/01/31 10:46:44.6	346.110	-0.230	-0.670	-0.390
2020/01/31 10:46:44.7	346.130	-0.210	-0.690	-0.420
2020/01/31 10:46:44.8	346.140	-0.180	-0.700	-0.460
2020/01/31 10:46:44.9	346.160	-0.160	-0.710	-0.490
2020/01/31 10:46:45.0	346.170	-0.140	-0.720	-0.510
2020/01/31 10:46:45.1	346.180	-0.120	-0.710	-0.530
2020/01/31 10:46:45.2	346.190	-0.100	-0.710	-0.540
2020/01/31 10:46:45.3	346.190	-0.080	-0.700	-0.540
2020/01/31 10:46:45.4	346.200	-0.060	-0.680	-0.550
2020/01/31 10:46:45.5	346.200	-0.040	-0.660	-0.540
2020/01/31 10:46:45.6	346.200	-0.030	-0.640	-0.530
2020/01/31 10:46:45.7	346.190	-0.020	-0.610	-0.520
2020/01/31 10:46:45.8	346.180	-0.010	-0.580	-0.500
2020/01/31 10:46:45.9				
2020/01/31 10:46:46.0	346.170	0.000	-0.540	-0.470
2020/01/31 10:46:46.1	346.140	0.020	-0.470	-0.410
2020/01/31 10:46:46.2	346.120	0.020	-0.430	-0.370
2020/01/31 10:46:46.3	346.100	0.020	-0.390	-0.330
2020/01/31 10:46:46.4	346.090	0.030	-0.350	-0.280
2020/01/31 10:46:46.5	346.070	0.030	-0.310	-0.230
2020/01/31 10:46:46.6	346.050	0.030	-0.270	-0.190
2020/01/31 10:46:46.7	346.030	0.030	-0.230	-0.140
2020/01/31 10:46:46.8	346.010	0.030	-0.200	-0.090
2020/01/31 10:46:46.9	345.990	0.020	-0.160	-0.030
2020/01/31 10:46:47.0	345.970	0.020	-0.130	0.020
2020/01/31 10:46:47.1	345.950	0.020	-0.100	0.070
2020/01/31 10:46:47.2	345.930	0.030	-0.080	0.110
2020/01/31 10:46:47.3	345.920	0.030	-0.060	0.160
2020/01/31 10:46:47.4	345.910	0.030	-0.040	0.210
2020/01/31 10:46:47.5	345.900	0.040	-0.030	0.250
2020/01/31 10:46:47.6	345.890	0.050	-0.020	0.290
2020/01/31 10:46:47.7	345.880	0.060	-0.010	0.330
2020/01/31 10:46:47.8	345.870	0.070	-0.010	0.360
2020/01/31 10:46:47.9	345.870	0.080	-0.010	0.400
2020/01/31 10:46:48.0				
2020/01/31 10:46:48.1	345.870	0.100	-0.020	0.430
2020/01/31 10:46:48.2	345.860	0.130	-0.030	0.490
2020/01/31 10:46:48.3	345.860	0.160	-0.040	0.510
2020/01/31 10:46:48.4	345.860	0.180	-0.060	0.530
2020/01/31 10:46:48.5	345.860	0.200	-0.070	0.560
2020/01/31 10:46:48.6	345.850	0.220	-0.080	0.580
2020/01/31 10:46:48.7	345.850	0.240	-0.100	0.600
2020/01/31 10:46:48.8	345.850	0.270	-0.110	0.630
2020/01/31 10:46:48.9	345.840	0.290	-0.120	0.650
2020/01/31 10:46:49.0	345.830	0.310	-0.130	0.670
2020/01/31 10:46:49.1	345.830	0.330	-0.130	0.680
2020/01/31 10:46:49.2	345.820	0.350	-0.140	0.700
2020/01/31 10:46:49.3	345.810	0.360	-0.140	0.720
2020/01/31 10:46:49.4	345.780	0.380	-0.140	0.740
2020/01/31 10:46:49.5	345.770	0.390	-0.140	0.760
2020/01/31 10:46:49.6	345.760	0.400	-0.130	0.770
2020/01/31 10:46:49.7	345.740	0.400	-0.130	0.790
2020/01/31 10:46:49.8	345.730	0.400	-0.120	0.800
2020/01/31 10:46:49.9	345.720	0.410	-0.110	0.820
2020/01/31 10:46:50.0	345.700	0.400	-0.100	0.830
2020/01/31 10:46:50.1				
2020/01/31 10:46:50.2	345.690	0.400	-0.090	0.840
2020/01/31 10:46:50.3	345.670	0.380	-0.080	0.850
2020/01/31 10:46:50.4	345.650	0.360	-0.070	0.850
2020/01/31 10:46:50.5	345.650	0.340	-0.060	0.850
2020/01/31 10:46:50.6	345.640	0.320	-0.050	0.850
2020/01/31 10:46:50.7	345.630	0.300	-0.050	0.840
2020/01/31 10:46:50.8	345.630	0.280	-0.050	0.830
2020/01/31 10:46:50.9	345.620	0.250	-0.050	0.810
2020/01/31 10:46:51.0	345.620	0.220	-0.050	0.790
2020/01/31 10:46:51.1	345.620	0.190	-0.050	0.770
2020/01/31 10:46:51.2	345.620	0.160	-0.060	0.740
2020/01/31 10:46:51.3	345.620	0.130	-0.070	0.710
2020/01/31 10:46:51.4	345.620	0.100	-0.080	0.680
2020/01/31 10:46:51.5	345.630	0.070	-0.090	0.640
2020/01/31 10:46:51.6	345.630	0.030	-0.110	0.600
2020/01/31 10:46:51.7	345.630	0.000	-0.120	0.560
2020/01/31 10:46:51.8	345.630	-0.030	-0.140	0.520
2020/01/31 10:46:51.9	345.630	-0.060	-0.150	0.470
2020/01/31 10:46:52.0	345.640	-0.090	-0.170	0.430
2020/01/31 10:46:52.1	345.640	-0.120	-0.180	0.380
2020/01/31 10:46:52.2				
2020/01/31 10:46:52.3	345.640	-0.140	-0.190	0.330
2020/01/31 10:46:52.4	345.650	-0.190	-0.220	0.230
2020/01/31 10:46:52.5	345.650	-0.210	-0.230	0.180
2020/01/31 10:46:52.6	345.660	-0.220	-0.240	0.140
2020/01/31 10:46:52.7	345.660	-0.240	-0.250	0.090
2020/01/31 10:46:52.8	345.660	-0.250	-0.260	0.050
2020/01/31 10:46:52.9	345.670	-0.260	-0.270	0.010
2020/01/31 10:46:53.0	345.670	-0.270	-0.270	-0.030
2020/01/31 10:46:53.1	345.670	-0.270	-0.280	-0.070
2020/01/31 10:46:53.2	345.680	-0.280	-0.280	-0.110
2020/01/31 10:46:53.3	345.690	-0.280	-0.280	-0.140
2020/01/31 10:46:53.4	345.690	-0.280	-0.290	-0.170
2020/01/31 10:46:53.5	345.700	-0.280	-0.280	-0.190
2020/01/31 10:46:53.6	345.710	-0.270	-0.280	-0.220
2020/01/31 10:46:53.7	345.720	-0.270	-0.280	-0.250
2020/01/31 10:46:53.8	345.730	-0.260	-0.270	-0.270
2020/01/31 10:46:53.9	345.730	-0.250	-0.270	-0.290
2020/01/31 10:46:54.0	345.740	-0.240	-0.260	-0.300
2020/01/31 10:46:54.1				
2020/01/31 10:46:54.2	345.750	-0.230	-0.250	-0.320
2020/01/31 10:46:54.3				
2020/01/31 10:46:54.4	345.760	-0.210	-0.230	-0.340
2020/01/31 10:46:54.5	345.780	-0.190	-0.210	-0.350
2020/01/31 10:46:54.6	345.780	-0.180	-0.200	-0.350
2020/01/31 10:46:54.7	345.780	-0.170	-0.180	-0.350
2020/01/31 10:46:54.8	345.780	-0.160	-0.170	-0.340
2020/01/31 10:46:54.9	345.770	-0.150	-0.150	-0.330
2020/01/31 10:46:55.0	345.770	-0.140	-0.140	-0.310
2020/01/31 10:46:55.1	345.760	-0.130	-0.130	-0.300
2020/01/31 10:46:55.2	345.760	-0.120	-0.120	-0.280
2020/01/31 10:46:55.3				
2020/01/31 10:46:55.4	345.750	-0.110	-0.100	-0.260
2020/01/31 10:46:55.5	345.730	-0.100	-0.090	-0.210
2020/01/31 10:46:55.6	345.720	-0.090	-0.080	-0.190
2020/01/31 10:46:55.7	345.710	-0.080	-0.080	-0.160
2020/01/31 10:46:55.8	345.700	-0.070	-0.080	-0.130
2020/01/31 10:46:55.9	345.690	-0.060	-0.080	-0.100
2020/01/31 10:46:56.0	345.690	-0.050	-0.090	-0.080
2020/01/31 10:46:56.1	345.680	-0.040	-0.100	-0.050
2020/01/31 10:46:56.2	345.680	-0.030	-0.110	-0.020
2020/01/31 10:46:56.3	345.680	-0.020	-0.130	0.000
2020/01/31 10:46:56.4				
2020/01/31 10:46:56.5	345.680	-0.010	-0.150	0.030
2020/01/31 10:46:56.6	345.690	0.010	-0.200	0.070
2020/01/31 10:46:56.7	345.690	0.020	-0.230	0.090
2020/01/31 10:46:56.8	345.700	0.030	-0.270	0.110
2020/01/31 10:46:56.9				
2020/01/31 10:46:57.0	345.710	0.040	-0.300	0.130
2020/01/31 10:46:57.1	345.730	0.060	-0.370	0.160
2020/01/31 10:46:57.2	345.740	0.070	-0.410	0.170
2020/01/31 10:46:57.3	345.740	0.080	-0.440	0.180
2020/01/31 10:46:57.4	345.750	0.090	-0.480	0.190
2020/01/31 10:46:57.5				
2020/01/31 10:46:57.6	345.750	0.100	-0.510	0.210
2020/01/31 10:46:57.7	345.760	0.110	-0.570	0.240
2020/01/31 10:46:57.8	345.750	0.110	-0.600	0.250
2020/01/31 10:46:57.9				
2020/01/31 10:46:58.0	345.750	0.110	-0.620	0.270
2020/01/31 10:46:58.1	345.740	0.110	-0.660	0.300
2020/01/31 10:46:58.2	345.730	0.110	-0.670	0.320
2020/01/31 10:46:58.3	345.730	0.100	-0.670	0.340
2020/01/31 10:46:58.4				
2020/01/31 10:46:58.5	345.710	0.100	-0.670	0.360
2020/01/31 10:46:58.6	345.700	0.090	-0.670	0.380
2020/01/31 10:46:58.7	345.680	0.080	-0.650	0.410
2020/01/31 10:46:58.8	345.670	0.070	-0.630	0.430
2020/01/31 10:46:58.9	345.660	0.060	-0.610	0.450
2020/01/31 10:46:59.0	345.650	0.050	-0.590	0.460
2020/01/31 10:46:59.1	345.640	0.040	-0.560	0.480
2020/01/31 10:46:59.2	345.640	0.020	-0.530	0.490
2020/01/31 10:46:59.3	345.630	0.010	-0.500	0.500
2020/01/31 10:46:59.4	345.630	0.000	-0.460	0.510
2020/01/31 10:46:59.5				
2020/01/31 10:46:59.6	345.630	-0.010	-0.420	0.520
2020/01/31 10:46:59.7	345.610	-0.030	-0.340	0.540
2020/01/31 10:46:59.8				
2020/01/31 10:46:59.9	345.610	-0.040	-0.300	0.540
2020/01/31 10:47:00.0	345.600	-0.050	-0.260	0.550
2020/01/31 10:47:00.1	345.590	-0.060	-0.170	0.560
2020/01/31 10:47:00.2	345.580	-0.070	-0.130	0.560
2020/01/31 10:47:00.3				
2020/01/31 10:47:00.4	345.580	-0.070	-0.090	0.560
2020/01/31 10:47:00.5	345.560	-0.080	-0.020	0.560
2020/01/31 10:47:00.6				
2020/01/31 10:47:00.7	345.550	-0.080	0.010	0.550
2020/01/31 10:47:00.8	345.550	-0.080	0.040	0.550
2020/01/31 10:47:00.9	345.540	-0.080	0.080	0.530
2020/01/31 10:47:01.0	345.540	-0.080	0.100	0.520
2020/01/31 10:47:01.1	345.540	-0.080	0.110	0.500
2020/01/31 10:47:01.2	345.540	-0.070	0.120	0.490
2020/01/31 10:47:01.3	345.540	-0.060	0.120	0.470
2020/01/31 10:47:01.4				
2020/01/31 10:47:01.5	345.550	-0.060	0.120	0.440
2020/01/31 10:47:01.6				
2020/01/31 10:47:01.7	345.550	-0.040	0.100	0.390
2020/01/31 10:47:01.8	345.570	-0.010	0.060	0.340
2020/01/31 10:47:01.9	345.570	-0.000	0.040	0.310
2020/01/31 10:47:02.0				
2020/01/31 10:47:02.1	345.580	0.010	0.010	0.270
2020/01/31 10:47:02.2	345.600	0.050	-0.050	0.210
2020/01/31 10:47:02.3	345.610	0.070	-0.080	0.180
2020/01/31 10:47:02.4	345.620	0.080	-0.120	0.150
2020/01/31 10:47:02.5				
2020/01/31 10:47:02.6	345.630	0.100	-0.150	0.120
2020/01/31 10:47:02.7				
2020/01/31 10:47:02.8	345.650	0.140	-0.220	0.070
2020/01/31 10:47:02.9	345.670	0.180	-0.280	0.020
2020/01/31 10:47:03.0	345.680	0.200	-0.300	0.000
2020/01/31 10:47:03.1				
2020/01/31 10:47:03.2	345.690	0.220	-0.330	-0.020
2020/01/31 10:47:03.3	345.700	0.240	-0.350	-0.030
2020/01/31 10:47:03.4				
2020/01/31 10:47:03.5	345.720	0.270	-0.390	-0.060
2020/01/31 10:47:03.6	345.740	0.300	-0.410	-0.080
2020/01/31 10:47:03.7				
2020/01/31 10:47:03.8	345.740	0.320	-0.420	-0.080
2020/01/31 10:47:03.9	345.750	0.330	-0.420	-0.090
2020/01/31 10:47:04.0	345.770	0.340	-0.420	-0.090
2020/01/31 10:47:04.1				
2020/01/31 10:47:04.2	345.780	0.350	-0.420	-0.090
2020/01/31 10:47:04.3	345.800	0.360	-0.400	-0.080
2020/01/31 10:47:04.4	345.810	0.360	-0.400	-0.070
2020/01/31 10:47:04.5	345.820	0.360	-0.380	-0.060
2020/01/31 10:47:04.6	345.840	0.350	-0.370	-0.050
2020/01/31 10:47:04.7	345.850	0.350	-0.360	-0.040
2020/01/31 10:47:04.8				
2020/01/31 10:47:04.9	345.860	0.340	-0.340	-0.030
2020/01/31 10:47:05.0	345.880	0.330	-0.320	-0.020
2020/01/31 10:47:05.1	345.900	0.310	-0.290	0.000
2020/01/31 10:47:05.2				
2020/01/31 10:47:05.3	345.920	0.290	-0.270	0.010
2020/01/31 10:47:05.4	345.930	0.270	-0.250	0.030
2020/01/31 10:47:05.5				
2020/01/31 10:47:05.6	345.960	0.230	-0.200	0.050
2020/01/31 10:47:05.7	345.970	0.190	-0.150	0.070
2020/01/31 10:47:05.8	345.970	0.160	-0.120	0.080
2020/01/31 10:47:05.9				
2020/01/31 10:47:06.0	345.970	0.130	-0.100	0.090
2020/01/31 10:47:06.1				
2020/01/31 10:47:06.2	345.970	0.070	-0.040	0.110
2020/01/31 10:47:06.3	345.960	0.040	-0.010	0.120
2020/01/31 10:47:06.4				
2020/01/31 10:47:06.5	345.940	-0.030	0.040	0.140
2020/01/31 10:47:06.6	345.920	-0.100	0.100	0.150
2020/01/31 10:47:06.7				
2020/01/31 10:47:06.8	345.900	-0.130	0.120	0.160
2020/01/31 10:47:06.9				
2020/01/31 10:47:07.0	345.880	-0.190	0.170	0.170
2020/01/31 10:47:07.1				
2020/01/31 10:47:07.2	345.850	-0.250	0.210	0.190
2020/01/31 10:47:07.3	345.830	-0.280	0.230	0.190
2020/01/31 10:47:07.4				
2020/01/31 10:47:07.5	345.800	-0.330	0.250	0.200
2020/01/31 10:47:07.6				
2020/01/31 10:47:07.7	345.770	-0.370	0.260	0.210
2020/01/31 10:47:07.8				
2020/01/31 10:47:07.9	345.750	-0.400	0.260	0.220
2020/01/31 10:47:08.0				
2020/01/31 10:47:08.1	345.730	-0.410	0.250	0.230
2020/01/31 10:47:08.2	345.710	-0.420	0.220	0.240
2020/01/31 10:47:08.3				
2020/01/31 10:47:08.4	345.700	-0.420	0.200	0.240
2020/01/31 10:47:08.5	345.690	-0.410	0.180	0.240
2020/01/31 10:47:08.6	345.670	-0.390	0.130	0.240
2020/01/31 10:47:08.7				
2020/01/31 10:47:08.8	345.660	-0.380	0.100	0.240
2020/01/31 10:47:08.9	345.650	-0.340	0.040	0.250
2020/01/31 10:47:09.0				
2020/01/31 10:47:09.1	345.640	-0.310	0.000	0.250
2020/01/31 10:47:09.2	345.620	-0.260	-0.070	0.250
2020/01/31 10:47:09.3	345.610	-0.230	-0.110	0.250
2020/01/31 10:47:09.4				
2020/01/31 10:47:09.5	345.600	-0.200	-0.150	0.250
2020/01/31 10:47:09.6	345.580	-0.140	-0.230	0.250
2020/01/31 10:47:09.7	345.570	-0.100	-0.270	0.260
2020/01/31 10:47:09.8	345.560	-0.070	-0.310	0.260
2020/01/31 10:47:09.9				
2020/01/31 10:47:10.0	345.550	-0.030	-0.340	0.270
2020/01/31 10:47:10.1	345.520	0.030	-0.420	0.280
2020/01/31 10:47:10.2	345.510	0.060	-0.450	0.280
2020/01/31 10:47:10.3				
2020/01/31 10:47:10.4	345.490	0.090	-0.490	0.290
2020/01/31 10:47:10.5	345.450	0.150	-0.560	0.310
2020/01/31 10:47:10.6	345.440	0.170	-0.590	0.310
2020/01/31 10:47:10.7	345.420	0.190	-0.620	0.320
2020/01/31 10:47:10.8				
2020/01/31 10:47:10.9	345.400	0.210	-0.650	0.320
2020/01/31 10:47:11.0	345.370	0.240	-0.700	0.320
2020/01/31 10:47:11.1				
2020/01/31 10:47:11.2	345.350	0.250	-0.730	0.320
2020/01/31 10:47:11.3	345.340	0.260	-0.750	0.320
2020/01/31 10:47:11.4	345.330	0.260	-0.780	0.320
2020/01/31 10:47:11.5				
2020/01/31 10:47:11.6	345.320	0.260	-0.820	0.300
2020/01/31 10:47:11.7	345.300	0.250	-0.860	0.270
2020/01/31 10:47:11.8	345.300	0.240	-0.880	0.260
2020/01/31 10:47:11.9				
2020/01/31 10:47:12.0	345.300	0.220	-0.890	0.230
2020/01/31 10:47:12.1	345.320	0.190	-0.920	0.180
2020/01/31 10:47:12.2				
2020/01/31 10:47:12.3	345.330	0.170	-0.930	0.150
2020/01/31 10:47:12.4	345.370	0.130	-0.950	0.070
2020/01/31 10:47:12.5	345.380	0.110	-0.960	0.030
2020/01/31 10:47:12.6				
2020/01/31 10:47:12.7	345.410	0.090	-0.960	-0.010
2020/01/31 10:47:12.8	345.460	0.040	-0.960	-0.100
2020/01/31 10:47:12.9				
2020/01/31 10:47:13.0	345.480	0.020	-0.960	-0.140
2020/01/31 10:47:13.1	345.540	-0.020	-0.930	-0.230
2020/01/31 10:47:13.2				
2020/01/31 10:47:13.3	345.570	-0.040	-0.920	-0.270
2020/01/31 10:47:13.4	345.610	-0.060	-0.900	-0.310
2020/01/31 10:47:13.5	345.630	-0.080	-0.880	-0.350
2020/01/31 10:47:13.6	345.700	-0.110	-0.810	-0.410
2020/01/31 10:47:13.7	345.730	-0.120	-0.780	-0.440
2020/01/31 10:47:13.8	345.770	-0.130	-0.740	-0.460
2020/01/31 10:47:13.9	345.800	-0.140	-0.690	-0.480
2020/01/31 10:47:14.0				
2020/01/31 10:47:14.1	345.830	-0.140	-0.650	-0.490
2020/01/31 10:47:14.2	345.900	-0.150	-0.550	-0.510
2020/01/31 10:47:14.3				
2020/01/31 10:47:14.4	345.940	-0.150	-0.500	-0.510
2020/01/31 10:47:14.5	346.010	-0.140	-0.390	-0.510
2020/01/31 10:47:14.6				
2020/01/31 10:47:14.7	346.050	-0.130	-0.330	-0.500
2020/01/31 10:47:14.8	346.080	-0.120	-0.280	-0.490
2020/01/31 10:47:14.9				
2020/01/31 10:47:15.0	346.150	-0.100	-0.170	-0.470
2020/01/31 10:47:15.1	346.180	-0.080	-0.110	-0.450
2020/01/31 10:47:15.2	346.250	-0.050	-0.010	-0.410
2020/01/31 10:47:15.3				
2020/01/31 10:47:15.4	346.280	-0.030	0.040	-0.380
2020/01/31 10:47:15.5	346.360	0.000	0.130	-0.330
2020/01/31 10:47:15.6				
2020/01/31 10:47:15.7	346.390	0.020	0.170	-0.310
2020/01/31 10:47:15.8				
2020/01/31 10:47:15.9	346.450	0.060	0.260	-0.250
2020/01/31 10:47:16.0				
2020/01/31 10:47:16.1	346.500	0.100	0.330	-0.190
2020/01/31 10:47:16.2				
2020/01/31 10:47:16.3	346.530	0.130	0.410	-0.120
2020/01/31 10:47:16.4	346.550	0.140	0.440	-0.080
2020/01/31 10:47:16.5				
2020/01/31 10:47:16.6	346.570	0.170	0.510	-0.000
2020/01/31 10:47:16.7	346.570	0.180	0.570	0.080
2020/01/31 10:47:16.8	346.560	0.190	0.600	0.130
2020/01/31 10:47:16.9				
2020/01/31 10:47:17.0	346.550	0.190	0.630	0.170
2020/01/31 10:47:17.1				
2020/01/31 10:47:17.2	346.510	0.190	0.680	0.270
2020/01/31 10:47:17.3	346.480	0.180	0.700	0.320
2020/01/31 10:47:17.4	346.450	0.180	0.720	0.370
2020/01/31 10:47:17.5	346.420	0.170	0.730	0.420
2020/01/31 10:47:17.6				
2020/01/31 10:47:17.7	346.330	0.140	0.760	0.530
2020/01/31 10:47:17.8				
2020/01/31 10:47:17.9	346.240	0.110	0.770	0.620
2020/01/31 10:47:18.0				
2020/01/31 10:47:18.1	346.130	0.070	0.770	0.710
2020/01/31 10:47:18.2	346.070	0.050	0.760	0.750
2020/01/31 10:47:18.3	346.020	0.030	0.750	0.790
2020/01/31 10:47:18.4				
2020/01/31 10:47:18.5	345.880	-0.010	0.710	0.840
2020/01/31 10:47:18.6				
2020/01/31 10:47:18.7	345.760	-0.050	0.660	0.890
2020/01/31 10:47:18.8				
2020/01/31 10:47:18.9	345.640	-0.090	0.580	0.920
2020/01/31 10:47:19.0	345.580	-0.110	0.530	0.920
2020/01/31 10:47:19.1				
2020/01/31 10:47:19.2	345.470	-0.130	0.430	0.920
2020/01/31 10:47:19.3	345.420	-0.140	0.370	0.910
2020/01/31 10:47:19.4	345.330	-0.160	0.230	0.870
2020/01/31 10:47:19.5				
2020/01/31 10:47:19.6	345.290	-0.160	0.160	0.850
2020/01/31 10:47:19.7				
2020/01/31 10:47:19.8	345.210	-0.150	0.010	0.790
2020/01/31 10:47:19.9	345.140	-0.130	-0.150	0.720
2020/01/31 10:47:20.0				
2020/01/31 10:47:20.1	345.110	-0.110	-0.230	0.680
2020/01/31 10:47:20.2	345.080	-0.090	-0.310	0.640
2020/01/31 10:47:20.3	345.050	-0.070	-0.390	0.600
2020/01/31 10:47:20.4				
2020/01/31 10:47:20.5	345.010	-0.030	-0.560	0.510
2020/01/31 10:47:20.6				
2020/01/31 10:47:20.7	344.980	0.030	-0.720	0.410
2020/01/31 10:47:20.8	344.960	0.090	-0.880	0.310
2020/01/31 10:47:20.9				
2020/01/31 10:47:21.0	344.950	0.120	-0.950	0.260
2020/01/31 10:47:21.1	344.940	0.140	-1.020	0.210
2020/01/31 10:47:21.2				
2020/01/31 10:47:21.3	344.940	0.200	-1.150	0.110
2020/01/31 10:47:21.4	344.940	0.220	-1.210	0.060
2020/01/31 10:47:21.5	344.940	0.240	-1.270	0.000
2020/01/31 10:47:21.6				
2020/01/31 10:47:21.7	344.950	0.280	-1.360	-0.100
2020/01/31 10:47:21.8	344.970	0.310	-1.430	-0.210
2020/01/31 10:47:21.9				
2020/01/31 10:47:22.0	344.990	0.320	-1.460	-0.260
2020/01/31 10:47:22.1				
2020/01/31 10:47:22.2	345.030	0.320	-1.500	-0.370
2020/01/31 10:47:22.3	345.050	0.320	-1.510	-0.420
2020/01/31 10:47:22.4	345.120	0.310	-1.520	-0.530
2020/01/31 10:47:22.5	345.150	0.300	-1.520	-0.580
2020/01/31 10:47:22.6				
2020/01/31 10:47:22.7	345.190	0.290	-1.510	-0.630
2020/01/31 10:47:22.8	345.240	0.270	-1.500	-0.680
2020/01/31 10:47:22.9	345.290	0.250	-1.480	-0.730
2020/01/31 10:47:23.0	345.390	0.210	-1.440	-0.820
2020/01/31 10:47:23.1				
2020/01/31 10:47:23.2	345.450	0.180	-1.410	-0.870
2020/01/31 10:47:23.3	345.510	0.160	-1.370	-0.910
2020/01/31 10:47:23.4				
2020/01/31 10:47:23.5	345.650	0.100	-1.290	-0.990
2020/01/31 10:47:23.6	345.710	0.070	-1.250	-1.030
2020/01/31 10:47:23.7	345.780	0.040	-1.190	-1.070
2020/01/31 10:47:23.8	345.850	0.010	-1.130	-1.100
2020/01/31 10:47:23.9	345.910	-0.030	-1.070	-1.130
2020/01/31 10:47:24.0	346.040	-0.090	-0.930	-1.180
2020/01/31 10:47:24.1				
2020/01/31 10:47:24.2	346.110	-0.130	-0.860	-1.190
2020/01/31 10:47:24.3	346.170	-0.160	-0.780	-1.200
2020/01/31 10:47:24.4	346.220	-0.190	-0.690	-1.210
2020/01/31 10:47:24.5	346.280	-0.220	-0.600	-1.210
2020/01/31 10:47:24.6	346.370	-0.280	-0.410	-1.190
2020/01/31 10:47:24.7				
2020/01/31 10:47:24.8	346.410	-0.310	-0.320	-1.170
2020/01/31 10:47:24.9	346.480	-0.360	-0.110	-1.110
2020/01/31 10:47:25.0	346.510	-0.380	-0.010	-1.070
2020/01/31 10:47:25.1				
2020/01/31 10:47:25.2	346.530	-0.400	0.100	-1.030
2020/01/31 10:47:25.3	346.540	-0.420	0.200	-0.980
2020/01/31 10:47:25.4				
2020/01/31 10:47:25.5	346.580	-0.450	0.400	-0.860
2020/01/31 10:47:25.6	346.580	-0.460	0.490	-0.800
2020/01/31 10:47:25.7	346.570	-0.480	0.670	-0.660
2020/01/31 10:47:25.8				
2020/01/31 10:47:25.9	346.570	-0.480	0.750	-0.590
2020/01/31 10:47:26.0				
2020/01/31 10:47:26.1	346.540	-0.480	0.880	-0.440
2020/01/31 10:47:26.2				
2020/01/31 10:47:26.3	346.510	-0.470	0.990	-0.290
2020/01/31 10:47:26.4	346.490	-0.460	1.020	-0.210
2020/01/31 10:47:26.5	346.460	-0.450	1.050	-0.140
2020/01/31 10:47:26.6				
2020/01/31 10:47:26.7	346.410	-0.420	1.080	0.000
2020/01/31 10:47:26.8	346.350	-0.390	1.070	0.140
2020/01/31 10:47:26.9				
2020/01/31 10:47:27.0	346.320	-0.370	1.050	0.200
2020/01/31 10:47:27.1	346.290	-0.350	1.030	0.260
2020/01/31 10:47:27.2				
2020/01/31 10:47:27.3	346.220	-0.300	0.950	0.380
2020/01/31 10:47:27.4	346.180	-0.270	0.900	0.430
2020/01/31 10:47:27.5	346.140	-0.240	0.850	0.480
2020/01/31 10:47:27.6				
2020/01/31 10:47:27.7	346.050	-0.190	0.720	0.580
2020/01/31 10:47:27.8	346.010	-0.160	0.650	0.620
2020/01/31 10:47:27.9	345.970	-0.130	0.570	0.650
2020/01/31 10:47:28.0	345.920	-0.100	0.490	0.690
2020/01/31 10:47:28.1				
2020/01/31 10:47:28.2	345.830	-0.040	0.330	0.740
2020/01/31 10:47:28.3	345.790	-0.010	0.240	0.760
2020/01/31 10:47:28.4				
2020/01/31 10:47:28.5	345.700	0.040	0.080	0.780
2020/01/31 10:47:28.6				
2020/01/31 10:47:28.7	345.620	0.100	-0.090	0.790
2020/01/31 10:47:28.8	345.580	0.120	-0.160	0.780
2020/01/31 10:47:28.9	345.540	0.150	-0.240	0.770
2020/01/31 10:47:29.0				
2020/01/31 10:47:29.1	345.470	0.200	-0.380	0.740
2020/01/31 10:47:29.2				
2020/01/31 10:47:29.3	345.410	0.240	-0.500	0.680
2020/01/31 10:47:29.4	345.380	0.260	-0.560	0.650
2020/01/31 10:47:29.5				
2020/01/31 10:47:29.6	345.330	0.300	-0.650	0.580
2020/01/31 10:47:29.7	345.310	0.310	-0.690	0.530
2020/01/31 10:47:29.8	345.290	0.330	-0.720	0.490
2020/01/31 10:47:29.9	345.280	0.340	-0.750	0.450
2020/01/31 10:47:30.0	345.270	0.350	-0.770	0.400
2020/01/31 10:47:30.1	345.260	0.360	-0.790	0.350
2020/01/31 10:47:30.2	345.260	0.370	-0.800	0.300
2020/01/31 10:47:30.3	345.260	0.380	-0.810	0.260
2020/01/31 10:47:30.4	345.270	0.390	-0.810	0.210
2020/01/31 10:47:30.5	345.270	0.400	-0.810	0.160
2020/01/31 10:47:30.6	345.280	0.400	-0.810	0.110
2020/01/31 10:47:30.7	345.300	0.410	-0.790	0.060
2020/01/31 10:47:30.8	345.320	0.410	-0.780	0.010
2020/01/31 10:47:30.9	345.340	0.410	-0.760	-0.030
2020/01/31 10:47:31.0	345.360	0.410	-0.740	-0.080
2020/01/31 10:47:31.1				
2020/01/31 10:47:31.2	345.410	0.410	-0.680	-0.160
2020/01/31 10:47:31.3	345.440	0.400	-0.650	-0.200
2020/01/31 10:47:31.4	345.460	0.400	-0.620	-0.240
2020/01/31 10:47:31.5	345.500	0.390	-0.590	-0.280
2020/01/31 10:47:31.6				
2020/01/31 10:47:31.7	345.550	0.370	-0.510	-0.340
2020/01/31 10:47:31.8	345.580	0.350	-0.470	-0.370
2020/01/31 10:47:31.9	345.610	0.340	-0.430	-0.390
2020/01/31 10:47:32.0	345.630	0.320	-0.400	-0.410
2020/01/31 10:47:32.1	345.660	0.300	-0.360	-0.430
2020/01/31 10:47:32.2	345.690	0.290	-0.320	-0.450
2020/01/31 10:47:32.3	345.710	0.260	-0.290	-0.460
2020/01/31 10:47:32.4	345.730	0.240	-0.250	-0.480
2020/01/31 10:47:32.5	345.750	0.220	-0.230	-0.490
2020/01/31 10:47:32.6	345.770	0.200	-0.200	-0.490
2020/01/31 10:47:32.7	345.800	0.170	-0.170	-0.500
2020/01/31 10:47:32.8	345.820	0.150	-0.150	-0.500
2020/01/31 10:47:32.9	345.840	0.120	-0.130	-0.500
2020/01/31 10:47:33.0	345.860	0.100	-0.120	-0.500
2020/01/31 10:47:33.1	345.880	0.070	-0.110	-0.490
2020/01/31 10:47:33.2	345.910	0.040	-0.100	-0.490
2020/01/31 10:47:33.3	345.930	0.020	-0.100	-0.480
2020/01/31 10:47:33.4	345.950	-0.010	-0.100	-0.470
2020/01/31 10:47:33.5	345.970	-0.030	-0.110	-0.470
2020/01/31 10:47:33.6	345.980	-0.050	-0.120	-0.450
2020/01/31 10:47:33.7	346.000	-0.080	-0.130	-0.440
2020/01/31 10:47:33.8	346.020	-0.100	-0.150	-0.420
2020/01/31 10:47:33.9	346.040	-0.120	-0.170	-0.400
2020/01/31 10:47:34.0	346.050	-0.140	-0.190	-0.380
2020/01/31 10:47:34.1	346.070	-0.160	-0.210	-0.360
2020/01/31 10:47:34.2	346.080	-0.170	-0.230	-0.340
2020/01/31 10:47:34.3	346.090	-0.190	-0.260	-0.310
2020/01/31 10:47:34.4	346.100	-0.200	-0.280	-0.280
2020/01/31 10:47:34.5	346.100	-0.210	-0.310	-0.260
2020/01/31 10:47:34.6	346.100	-0.230	-0.330	-0.230
2020/01/31 10:47:34.7	346.100	-0.230	-0.350	-0.200
2020/01/31 10:47:34.8	346.100	-0.240	-0.380	-0.170
2020/01/31 10:47:34.9	346.100	-0.250	-0.400	-0.140
2020/01/31 10:47:35.0	346.100	-0.250	-0.410	-0.110
2020/01/31 10:47:35.1	346.100	-0.260	-0.430	-0.080
2020/01/31 10:47:35.2	346.090	-0.260	-0.440	-0.050
2020/01/31 10:47:35.3	346.090	-0.250	-0.450	-0.020
2020/01/31 10:47:35.4	346.080	-0.250	-0.460	0.010
2020/01/31 10:47:35.5	346.070	-0.250	-0.460	0.040
2020/01/31 10:47:35.6	346.060	-0.240	-0.460	0.070
2020/01/31 10:47:35.7	346.060	-0.240	-0.460	0.100
2020/01/31 10:47:35.8	346.050	-0.230	-0.460	0.130
2020/01/31 10:47:35.9	346.050	-0.220	-0.450	0.150
2020/01/31 10:47:36.0	346.040	-0.210	-0.440	0.180
2020/01/31 10:47:36.1	346.030	-0.190	-0.430	0.210
2020/01/31 10:47:36.2	346.030	-0.180	-0.420	0.230
2020/01/31 10:47:36.3	346.030	-0.170	-0.400	0.260
2020/01/31 10:47:36.4	346.020	-0.150	-0.380	0.290
2020/01/31 10:47:36.5	346.010	-0.140	-0.370	0.310
2020/01/31 10:47:36.6	346.000	-0.120	-0.350	0.340
2020/01/31 10:47:36.7	346.000	-0.100	-0.330	0.360
2020/01/31 10:47:36.8	346.010	-0.090	-0.310	0.380
2020/01/31 10:47:36.9	346.010	-0.070	-0.290	0.410
2020/01/31 10:47:37.0	346.010	-0.050	-0.270	0.430
2020/01/31 10:47:37.1	346.020	-0.040	-0.250	0.450
2020/01/31 10:47:37.2	346.030	-0.020	-0.230	0.470
2020/01/31 10:47:37.3	346.030	-0.010	-0.210	0.480
2020/01/31 10:47:37.4	346.040	0.010	-0.190	0.500
2020/01/31 10:47:37.5	346.050	0.020	-0.170	0.500
2020/01/31 10:47:37.6	346.060	0.040	-0.150	0.510
2020/01/31 10:47:37.7	346.070	0.050	-0.130	0.520
2020/01/31 10:47:37.8	346.080	0.060	-0.110	0.530
2020/01/31 10:47:37.9	346.090	0.070	-0.100	0.530
2020/01/31 10:47:38.0	346.100	0.080	-0.080	0.530
2020/01/31 10:47:38.1	346.110	0.090	-0.060	0.530
2020/01/31 10:47:38.2	346.120	0.090	-0.050	0.520
2020/01/31 10:47:38.3	346.130	0.100	-0.030	0.520
2020/01/31 10:47:38.4	346.130	0.100	-0.020	0.510
2020/01/31 10:47:38.5	346.130	0.110	-0.010	0.500
2020/01/31 10:47:38.6	346.130	0.110	0.010	0.500
2020/01/31 10:47:38.7	346.130	0.110	0.030	0.490
2020/01/31 10:47:38.8	346.130	0.110	0.040	0.480
2020/01/31 10:47:38.9	346.130	0.110	0.060	0.470
2020/01/31 10:47:39.0	346.120	0.110	0.080	0.460
2020/01/31 10:47:39.1	346.110	0.110	0.100	0.450
2020/01/31 10:47:39.2	346.100	0.110	0.110	0.440
2020/01/31 10:47:39.3	346.090	0.100	0.130	0.430
2020/01/31 10:47:39.4	346.080	0.100	0.150	0.420
2020/01/31 10:47:39.5	346.050	0.090	0.170	0.410
2020/01/31 10:47:39.6	346.040	0.090	0.190	0.410
2020/01/31 10:47:39.7	346.020	0.080	0.210	0.400
2020/01/31 10:47:39.8	346.000	0.080	0.230	0.400
2020/01/31 10:47:39.9	345.980	0.070	0.250	0.390
2020/01/31 10:47:40.0	345.960	0.060	0.260	0.390
2020/01/31 10:47:40.1	345.940	0.060	0.280	0.380
2020/01/31 10:47:40.2	345.910	0.050	0.290	0.370
2020/01/31 10:47:40.3	345.890	0.040	0.300	0.370
2020/01/31 10:47:40.4	345.870	0.030	0.300	0.360
2020/01/31 10:47:40.5	345.840	0.020	0.300	0.350
2020/01/31 10:47:40.6	345.820	0.010	0.300	0.340
2020/01/31 10:47:40.7	345.790	-0.000	0.290	0.320
2020/01/31 10:47:40.8	345.770	-0.010	0.280	0.310
2020/01/31 10:47:40.9	345.750	-0.030	0.260	0.290
2020/01/31 10:47:41.0	345.730	-0.040	0.240	0.270
2020/01/31 10:47:41.1	345.710	-0.050	0.220	0.240
2020/01/31 10:47:41.2	345.690	-0.060	0.190	0.220
2020/01/31 10:47:41.3	345.680	-0.080	0.160	0.190
2020/01/31 10:47:41.4	345.670	-0.090	0.120	0.160
2020/01/31 10:47:41.5	345.660	-0.100	0.080	0.130
2020/01/31 10:47:41.6	345.660	-0.110	0.030	0.090
2020/01/31 10:47:41.7	345.650	-0.120	-0.020	0.050
2020/01/31 10:47:41.8	345.650	-0.130	-0.070	0.020
2020/01/31 10:47:41.9	345.660	-0.140	-0.130	-0.030
2020/01/31 10:47:42.0	345.660	-0.150	-0.190	-0.070
2020/01/31 10:47:42.1	345.680	-0.150	-0.260	-0.110
2020/01/31 10:47:42.2	345.690	-0.160	-0.320	-0.160
2020/01/31 10:47:42.3	345.710	-0.160	-0.390	-0.210
2020/01/31 10:47:42.4	345.730	-0.160	-0.460	-0.260
2020/01/31 10:47:42.5	345.760	-0.160	-0.530	-0.310
2020/01/31 10:47:42.6	345.790	-0.160	-0.590	-0.360
2020/01/31 10:47:42.7	345.820	-0.150	-0.660	-0.400
2020/01/31 10:47:42.8	345.850	-0.140	-0.720	-0.450
2020/01/31 10:47:42.9	345.880	-0.140	-0.780	-0.500
2020/01/31 10:47:43.0	345.910	-0.130	-0.840	-0.540
2020/01/31 10:47:43.1	345.950	-0.120	-0.900	-0.580
2020/01/31 10:47:43.2	345.990	-0.110	-0.950	-0.630
2020/01/31 10:47:43.3	346.020	-0.090	-0.990	-0.660
2020/01/31 10:47:43.4	346.060	-0.080	-1.040	-0.700
2020/01/31 10:47:43.5	346.090	-0.060	-1.070	-0.730
2020/01/31 10:47:43.6	346.130	-0.050	-1.100	-0.760
2020/01/31 10:47:43.7	346.170	-0.030	-1.130	-0.790
2020/01/31 10:47:43.8	346.210	-0.010	-1.150	-0.820
2020/01/31 10:47:43.9	346.250	0.010	-1.160	-0.840
2020/01/31 10:47:44.0	346.290	0.030	-1.170	-0.850
2020/01/31 10:47:44.1	346.320	0.050	-1.170	-0.870
2020/01/31 10:47:44.2	346.360	0.070	-1.170	-0.880
2020/01/31 10:47:44.3	346.400	0.090	-1.160	-0.880
2020/01/31 10:47:44.4	346.430	0.110	-1.140	-0.880
2020/01/31 10:47:44.5	346.480	0.130	-1.120	-0.880
2020/01/31 10:47:44.6	346.510	0.140	-1.090	-0.870
2020/01/31 10:47:44.7	346.540	0.160	-1.060	-0.860
2020/01/31 10:47:44.8	346.580	0.180	-1.020	-0.840
2020/01/31 10:47:44.9	346.610	0.190	-0.980	-0.810
2020/01/31 10:47:45.0	346.640	0.210	-0.930	-0.780
2020/01/31 10:47:45.1	346.660	0.220	-0.880	-0.750
2020/01/31 10:47:45.2	346.690	0.230	-0.830	-0.710
2020/01/31 10:47:45.3	346.710	0.240	-0.770	-0.670
2020/01/31 10:47:45.4	346.730	0.250	-0.700	-0.630
2020/01/31 10:47:45.5	346.750	0.250	-0.640	-0.580
2020/01/31 10:47:45.6	346.770	0.250	-0.580	-0.530
2020/01/31 10:47:45.7	346.780	0.250	-0.510	-0.480
2020/01/31 10:47:45.8	346.790	0.250	-0.440	-0.420
2020/01/31 10:47:45.9	346.800	0.240	-0.370	-0.370
2020/01/31 10:47:46.0	346.800	0.240	-0.300	-0.310
2020/01/31 10:47:46.1	346.800	0.220	-0.230	-0.260
2020/01/31 10:47:46.2	346.800	0.210	-0.160	-0.200
2020/01/31 10:47:46.3	346.800	0.200	-0.090	-0.150
2020/01/31 10:47:46.4	346.790	0.180	-0.020	-0.090
2020/01/31 10:47:46.5	346.770	0.160	0.040	-0.040
2020/01/31 10:47:46.6	346.770	0.140	0.100	0.010
2020/01/31 10:47:46.7	346.760	0.120	0.160	0.060
2020/01/31 10:47:46.8	346.750	0.090	0.220	0.110
2020/01/31 10:47:46.9	346.740	0.070	0.280	0.150
2020/01/31 10:47:47.0	346.720	0.040	0.330	0.190
2020/01/31 10:47:47.1	346.710	0.020	0.370	0.230
2020/01/31 10:47:47.2	346.700	-0.010	0.420	0.270
2020/01/31 10:47:47.3	346.690	-0.040	0.460	0.310
2020/01/31 10:47:47.4	346.670	-0.060	0.490	0.340
2020/01/31 10:47:47.5	346.660	-0.090	0.520	0.370
2020/01/31 10:47:47.6	346.650	-0.110	0.550	0.400
2020/01/31 10:47:47.7	346.630	-0.140	0.580	0.430
2020/01/31 10:47:47.8	346.620	-0.160	0.600	0.450
2020/01/31 10:47:47.9	346.600	-0.180	0.610	0.480
2020/01/31 10:47:48.0	346.580	-0.200	0.630	0.500
2020/01/31 10:47:48.1	346.560	-0.220	0.640	0.520
2020/01/31 10:47:48.2	346.550	-0.230	0.650	0.550
2020/01/31 10:47:48.3	346.520	-0.240	0.650	0.570
2020/01/31 10:47:48.4	346.500	-0.260	0.650	0.590
2020/01/31 10:47:48.5	346.470	-0.270	0.650	0.610
2020/01/31 10:47:48.6	346.450	-0.270	0.640	0.630
2020/01/31 10:47:48.7	346.420	-0.280	0.640	0.640
2020/01/31 10:47:48.8	346.390	-0.280	0.620	0.660
2020/01/31 10:47:48.9	346.360	-0.280	0.610	0.680
2020/01/31 10:47:49.0	346.330	-0.280	0.590	0.690
2020/01/31 10:47:49.1	346.300	-0.280	0.560	0.700
2020/01/31 10:47:49.2	346.270	-0.270	0.530	0.710
2020/01/31 10:47:49.3	346.240	-0.260	0.500	0.720
2020/01/31 10:47:49.4	346.210	-0.250	0.460	0.730
2020/01/31 10:47:49.5	346.180	-0.230	0.420	0.720
2020/01/31 10:47:49.6	346.150	-0.220	0.370	0.720
2020/01/31 10:47:49.7	346.120	-0.200	0.320	0.720
2020/01/31 10:47:49.8	346.090	-0.180	0.270	0.710
2020/01/31 10:47:49.9	346.070	-0.160	0.210	0.700
2020/01/31 10:47:50.0	346.040	-0.130	0.150	0.690
2020/01/31 10:47:50.1	346.020	-0.110	0.080	0.670
2020/01/31 10:47:50.2	346.000	-0.080	0.020	0.650
2020/01/31 10:47:50.3	345.990	-0.050	-0.050	0.630
2020/01/31 10:47:50.4	345.970	-0.020	-0.120	0.610
2020/01/31 10:47:50.5	345.970	0.010	-0.200	0.580
2020/01/31 10:47:50.6	345.960	0.050	-0.270	0.550
2020/01/31 10:47:50.7	345.950	0.080	-0.350	0.520
2020/01/31 10:47:50.8	345.950	0.120	-0.420	0.490
2020/01/31 10:47:50.9	345.950	0.150	-0.490	0.450
2020/01/31 10:47:51.0	345.950	0.190	-0.570	0.420
2020/01/31 10:47:51.1	345.950	0.220	-0.640	0.380
2020/01/31 10:47:51.2	345.950	0.250	-0.700	0.350
2020/01/31 10:47:51.3	345.950	0.290	-0.770	0.310
2020/01/31 10:47:51.4	345.960	0.320	-0.820	0.280
2020/01/31 10:47:51.5	345.970	0.350	-0.880	0.250
2020/01/31 10:47:51.6	345.970	0.370	-0.930	0.210
2020/01/31 10:47:51.7	345.980	0.400	-0.970	0.180
2020/01/31 10:47:51.8	345.980	0.420	-1.010	0.150
2020/01/31 10:47:51.9	345.990	0.440	-1.040	0.120
2020/01/31 10:47:52.0	346.000	0.460	-1.070	0.090
2020/01/31 10:47:52.1	346.000	0.470	-1.090	0.060
2020/01/31 10:47:52.2	346.010	0.480	-1.100	0.030
2020/01/31 10:47:52.3	346.020	0.490	-1.110	0.000
2020/01/31 10:47:52.4	346.030	0.490	-1.100	-0.030
2020/01/31 10:47:52.5	346.040	0.490	-1.100	-0.060
2020/01/31 10:47:52.6	346.050	0.490	-1.080	-0.090
2020/01/31 10:47:52.7	346.060	0.480	-1.060	-0.110
2020/01/31 10:47:52.8	346.070	0.470	-1.040	-0.140
2020/01/31 10:47:52.9	346.090	0.450	-1.000	-0.170
2020/01/31 10:47:53.0	346.110	0.430	-0.970	-0.190
2020/01/31 10:47:53.1	346.130	0.410	-0.930	-0.220
2020/01/31 10:47:53.2	346.150	0.380	-0.880	-0.250
2020/01/31 10:47:53.3	346.170	0.350	-0.830	-0.270
2020/01/31 10:47:53.4	346.200	0.320	-0.780	-0.300
2020/01/31 10:47:53.5	346.240	0.290	-0.730	-0.330
2020/01/31 10:47:53.6	346.280	0.250	-0.680	-0.350
2020/01/31 10:47:53.7	346.310	0.210	-0.620	-0.380
2020/01/31 10:47:53.8	346.350	0.170	-0.570	-0.410
2020/01/31 10:47:53.9	346.390	0.120	-0.520	-0.440
2020/01/31 10:47:54.0	346.430	0.080	-0.470	-0.470
2020/01/31 10:47:54.1	346.470	0.030	-0.420	-0.500
2020/01/31 10:47:54.2	346.520	-0.010	-0.370	-0.530
2020/01/31 10:47:54.3	346.570	-0.060	-0.320	-0.560
2020/01/31 10:47:54.4	346.610	-0.110	-0.280	-0.590
2020/01/31 10:47:54.5	346.650	-0.150	-0.240	-0.630
2020/01/31 10:47:54.6	346.700	-0.200	-0.210	-0.660
2020/01/31 10:47:54.7	346.750	-0.240	-0.170	-0.680
2020/01/31 10:47:54.8	346.800	-0.290	-0.140	-0.710
2020/01/31 10:47:54.9	346.840	-0.330	-0.110	-0.730
2020/01/31 10:47:55.0	346.890	-0.370	-0.080	-0.750
2020/01/31 10:47:55.1	346.930	-0.410	-0.050	-0.770
2020/01/31 10:47:55.2	346.960	-0.450	-0.030	-0.780
2020/01/31 10:47:55.3	347.000	-0.490	-0.010	-0.790
2020/01/31 10:47:55.4	347.030	-0.520	0.010	-0.790
2020/01/31 10:47:55.5	347.060	-0.550	0.030	-0.790
2020/01/31 10:47:55.6	347.080	-0.580	0.050	-0.790
2020/01/31 10:47:55.7	347.100	-0.600	0.070	-0.770
2020/01/31 10:47:55.8	347.110	-0.620	0.090	-0.750
2020/01/31 10:47:55.9	347.120	-0.640	0.110	-0.730
2020/01/31 10:47:56.0	347.120	-0.650	0.130	-0.700
2020/01/31 10:47:56.1	347.120	-0.660	0.150	-0.670
2020/01/31 10:47:56.2	347.110	-0.670	0.170	-0.630
2020/01/31 10:47:56.3	347.100	-0.670	0.190	-0.580
2020/01/31 10:47:56.4	347.080	-0.670	0.210	-0.530
2020/01/31 10:47:56.5	347.070	-0.670	0.230	-0.480
2020/01/31 10:47:56.6	347.040	-0.660	0.250	-0.430
2020/01/31 10:47:56.7	347.020	-0.650	0.270	-0.370
2020/01/31 10:47:56.8	346.990	-0.630	0.290	-0.310
2020/01/31 10:47:56.9	346.960	-0.620	0.310	-0.240
2020/01/31 10:47:57.0	346.930	-0.600	0.320	-0.180
2020/01/31 10:47:57.1	346.890	-0.570	0.340	-0.110
2020/01/31 10:47:57.2	346.850	-0.550	0.350	-0.040
2020/01/31 10:47:57.3	346.810	-0.520	0.350	0.020
2020/01/31 10:47:57.4	346.770	-0.490	0.360	0.090
2020/01/31 10:47:57.5	346.730	-0.450	0.360	0.160
2020/01/31 10:47:57.6	346.690	-0.410	0.350	0.230
2020/01/31 10:47:57.7	346.650	-0.380	0.350	0.300
2020/01/31 10:47:57.8	346.610	-0.340	0.330	0.370
2020/01/31 10:47:57.9	346.570	-0.290	0.320	0.440
2020/01/31 10:47:58.0	346.530	-0.250	0.300	0.500
2020/01/31 10:47:58.1	346.490	-0.210	0.270	0.570
2020/01/31 10:47:58.2	346.450	-0.160	0.250	0.630
2020/01/31 10:47:58.3	346.410	-0.110	0.210	0.680
2020/01/31 10:47:58.4	346.370	-0.070	0.180	0.740
2020/01/31 10:47:58.5	346.330	-0.020	0.140	0.790
2020/01/31 10:47:58.6	346.290	0.030	0.100	0.830
2020/01/31 10:47:58.7	346.250	0.070	0.060	0.880
2020/01/31 10:47:58.8	346.220	0.120	0.020	0.920
2020/01/31 10:47:58.9	346.190	0.160	-0.030	0.950
2020/01/31 10:47:59.0	346.160	0.210	-0.080	0.990
2020/01/31 10:47:59.1	346.130	0.250	-0.120	1.010
2020/01/31 10:47:59.2	346.100	0.290	-0.170	1.040
2020/01/31 10:47:59.3	346.070	0.330	-0.220	1.060
2020/01/31 10:47:59.4	346.050	0.370	-0.260	1.070
2020/01/31 10:47:59.5	346.030	0.410	-0.310	1.080
2020/01/31 10:47:59.6	346.010	0.440	-0.360	1.090
2020/01/31 10:47:59.7	345.990	0.470	-0.400	1.090
2020/01/31 10:47:59.8	345.970	0.500	-0.440	1.090
2020/01/31 10:47:59.9	345.950	0.530	-0.480	1.090
2020/01/31 10:48:00.0	345.940	0.550	-0.520	1.080
2020/01/31 10:48:00.1	345.920	0.570	-0.560	1.070
2020/01/31 10:48:00.2	345.910	0.580	-0.590	1.060
2020/01/31 10:48:00.3	345.900	0.600	-0.620	1.050
2020/01/31 10:48:00.4	345.890	0.610	-0.650	1.030
2020/01/31 10:48:00.5	345.890	0.610	-0.680	1.000
2020/01/31 10:48:00.6	345.880	0.620	-0.710	0.980
2020/01/31 10:48:00.7	345.880	0.620	-0.730	0.950
2020/01/31 10:48:00.8	345.880	0.610	-0.740	0.910
2020/01/31 10:48:00.9	345.890	0.610	-0.760	0.880
2020/01/31 10:48:01.0	345.890	0.600	-0.770	0.840
2020/01/31 10:48:01.1	345.900	0.580	-0.780	0.800
2020/01/31 10:48:01.2	345.910	0.570	-0.780	0.750
2020/01/31 10:48:01.3	345.920	0.550	-0.780	0.700
2020/01/31 10:48:01.4	345.940	0.530	-0.780	0.650
2020/01/31 10:48:01.5	345.960	0.500	-0.780	0.600
2020/01/31 10:48:01.6	345.980	0.480	-0.770	0.540
2020/01/31 10:48:01.7	346.000	0.450	-0.760	0.480
2020/01/31 10:48:01.8	346.030	0.420	-0.750	0.420
2020/01/31 10:48:01.9	346.060	0.390	-0.730	0.360
2020/01/31 10:48:02.0	346.090	0.350	-0.720	0.290
2020/01/31 10:48:02.1	346.120	0.320	-0.700	0.230
2020/01/31 10:48:02.2	346.150	0.280	-0.680	0.170
2020/01/31 10:48:02.3	346.180	0.250	-0.660	0.100
2020/01/31 10:48:02.4	346.220	0.210	-0.630	0.040
2020/01/31 10:48:02.5	346.260	0.180	-0.610	-0.030
2020/01/31 10:48:02.6	346.300	0.140	-0.590	-0.090
2020/01/31 10:48:02.7	346.340	0.110	-0.560	-0.150
2020/01/31 10:48:02.8	346.380	0.070	-0.530	-0.210
2020/01/31 10:48:02.9	346.420	0.040	-0.500	-0.270
2020/01/31 10:48:03.0	346.460	0.000	-0.460	-0.320
2020/01/31 10:48:03.1	346.500	-0.030	-0.430	-0.370
2020/01/31 10:48:03.2	346.550	-0.060	-0.400	-0.420
2020/01/31 10:48:03.3	346.580	-0.090	-0.360	-0.470
2020/01/31 10:48:03.4	346.620	-0.120	-0.330	-0.510
2020/01/31 10:48:03.5	346.650	-0.150	-0.290	-0.550
2020/01/31 10:48:03.6	346.690	-0.170	-0.260	-0.580
2020/01/31 10:48:03.7	346.720	-0.200	-0.230	-0.610
2020/01/31 10:48:03.8	346.750	-0.220	-0.190	-0.630
2020/01/31 10:48:03.9	346.780	-0.240	-0.160	-0.650
2020/01/31 10:48:04.0	346.810	-0.260	-0.130	-0.670
2020/01/31 10:48:04.1	346.830	-0.280	-0.100	-0.680
2020/01/31 10:48:04.2	346.860	-0.290	-0.070	-0.690
2020/01/31 10:48:04.3	346.880	-0.300	-0.050	-0.690
2020/01/31 10:48:04.4	346.900	-0.310	-0.030	-0.700
2020/01/31 10:48:04.5	346.920	-0.320	-0.010	-0.700
2020/01/31 10:48:04.6	346.930	-0.320	0.010	-0.690
2020/01/31 10:48:04.7	346.950	-0.330	0.030	-0.690
2020/01/31 10:48:04.8	346.960	-0.330	0.040	-0.680
2020/01/31 10:48:04.9	346.970	-0.320	0.050	-0.670
2020/01/31 10:48:05.0	346.970	-0.320	0.060	-0.660
2020/01/31 10:48:05.1	346.980	-0.310	0.060	-0.650
2020/01/31 10:48:05.2	346.980	-0.310	0.060	-0.640
2020/01/31 10:48:05.3	346.980	-0.300	0.070	-0.620
2020/01/31 10:48:05.4	346.980	-0.280	0.060	-0.600
2020/01/31 10:48:05.5	346.980	-0.270	0.060	-0.580
2020/01/31 10:48:05.6	346.970	-0.260	0.060	-0.560
2020/01/31 10:48:05.7	346.960	-0.240	0.050	-0.540
2020/01/31 10:48:05.8	346.950	-0.220	0.050	-0.520
2020/01/31 10:48:05.9	346.940	-0.210	0.040	-0.490
2020/01/31 10:48:06.0	346.920	-0.190	0.030	-0.460
2020/01/31 10:48:06.1	346.900	-0.170	0.020	-0.430
2020/01/31 10:48:06.2	346.880	-0.150	0.010	-0.400
2020/01/31 10:48:06.3	346.860	-0.130	0.000	-0.360
2020/01/31 10:48:06.4	346.830	-0.120	-0.000	-0.320
2020/01/31 10:48:06.5	346.800	-0.100	-0.010	-0.280
2020/01/31 10:48:06.6	346.780	-0.080	-0.010	-0.240
2020/01/31 10:48:06.7	346.750	-0.070	-0.020	-0.200
2020/01/31 10:48:06.8	346.710	-0.050	-0.020	-0.150
2020/01/31 10:48:06.9	346.680	-0.040	-0.020	-0.100
2020/01/31 10:48:07.0	346.650	-0.020	-0.020	-0.050
2020/01/31 10:48:07.1	346.610	-0.010	-0.020	-0.000
2020/01/31 10:48:07.2	346.580	-0.000	-0.010	0.050
2020/01/31 10:48:07.3	346.540	0.010	-0.000	0.100
2020/01/31 10:48:07.4	346.500	0.010	0.000	0.160
2020/01/31 10:48:07.5	346.460	0.020	0.020	0.210
2020/01/31 10:48:07.6	346.420	0.030	0.030	0.270
2020/01/31 10:48:07.7	346.380	0.030	0.040	0.330
2020/01/31 10:48:07.8	346.340	0.030	0.060	0.380
2020/01/31 10:48:07.9	346.300	0.040	0.070	0.440
2020/01/31 10:48:08.0	346.260	0.040	0.090	0.490
2020/01/31 10:48:08.1	346.220	0.040	0.100	0.540
2020/01/31 10:48:08.2	346.180	0.040	0.120	0.600
2020/01/31 10:48:08.3	346.140	0.040	0.130	0.650
2020/01/31 10:48:08.4	346.100	0.040	0.140	0.690
2020/01/31 10:48:08.5	346.070	0.040	0.150	0.740
2020/01/31 10:48:08.6	346.030	0.030	0.160	0.780
2020/01/31 10:48:08.7	346.000	0.030	0.160	0.820
2020/01/31 10:48:08.8	345.960	0.030	0.160	0.860
2020/01/31 10:48:08.9	345.930	0.030	0.160	0.890
2020/01/31 10:48:09.0	345.900	0.030	0.160	0.910
2020/01/31 10:48:09.1	345.880	0.030	0.150	0.930
2020/01/31 10:48:09.2	345.850	0.030	0.130	0.950
2020/01/31 10:48:09.3	345.830	0.030	0.120	0.960
2020/01/31 10:48:09.4	345.810	0.030	0.090	0.970
2020/01/31 10:48:09.5	345.800	0.030	0.070	0.970
2020/01/31 10:48:09.6	345.790	0.030	0.040	0.960
2020/01/31 10:48:09.7	345.780	0.040	0.000	0.950
2020/01/31 10:48:09.8	345.770	0.040	-0.040	0.940
2020/01/31 10:48:09.9	345.770	0.040	-0.080	0.920
2020/01/31 10:48:10.0	345.770	0.040	-0.120	0.900
2020/01/31 10:48:10.1	345.770	0.050	-0.170	0.860
2020/01/31 10:48:10.2	345.780	0.050	-0.220	0.830
2020/01/31 10:48:10.3	345.790	0.050	-0.280	0.790
2020/01/31 10:48:10.4	345.800	0.050	-0.330	0.740
2020/01/31 10:48:10.5	345.820	0.050	-0.390	0.690
2020/01/31 10:48:10.6	345.840	0.050	-0.440	0.630
2020/01/31 10:48:10.7	345.860	0.050	-0.500	0.570
2020/01/31 10:48:10.8	345.890	0.050	-0.560	0.510
2020/01/31 10:48:10.9	345.920	0.050	-0.610	0.440
2020/01/31 10:48:11.0	345.960	0.040	-0.670	0.370
2020/01/31 10:48:11.1	346.000	0.040	-0.720	0.300
2020/01/31 10:48:11.2	346.040	0.030	-0.770	0.230
2020/01/31 10:48:11.3	346.090	0.020	-0.820	0.160
2020/01/31 10:48:11.4	346.140	0.020	-0.870	0.080
2020/01/31 10:48:11.5	346.190	0.010	-0.910	0.000
2020/01/31 10:48:11.6	346.250	-0.000	-0.950	-0.070
2020/01/31 10:48:11.7	346.310	-0.010	-0.990	-0.150
2020/01/31 10:48:11.8	346.370	-0.020	-1.020	-0.220
2020/01/31 10:48:11.9	346.430	-0.030	-1.040	-0.290
2020/01/31 10:48:12.0	346.490	-0.050	-1.070	-0.360
2020/01/31 10:48:12.1	346.560	-0.060	-1.080	-0.430
2020/01/31 10:48:12.2	346.620	-0.070	-1.090	-0.500
2020/01/31 10:48:12.3	346.680	-0.090	-1.100	-0.560
2020/01/31 10:48:12.4	346.750	-0.100	-1.100	-0.610
2020/01/31 10:48:12.5	346.800	-0.110	-1.100	-0.670
2020/01/31 10:48:12.6	346.860	-0.130	-1.090	-0.720
2020/01/31 10:48:12.7	346.910	-0.140	-1.070	-0.760
2020/01/31 10:48:12.8	346.970	-0.160	-1.040	-0.800
2020/01/31 10:48:12.9	347.020	-0.170	-1.010	-0.840
2020/01/31 10:48:13.0	347.070	-0.180	-0.980	-0.860
2020/01/31 10:48:13.1	347.120	-0.190	-0.940	-0.880
2020/01/31 10:48:13.2	347.160	-0.210	-0.890	-0.900
2020/01/31 10:48:13.3	347.200	-0.220	-0.830	-0.910
2020/01/31 10:48:13.4	347.230	-0.220	-0.770	-0.910
2020/01/31 10:48:13.5	347.270	-0.230	-0.710	-0.900
2020/01/31 10:48:13.6	347.290	-0.240	-0.640	-0.890
2020/01/31 10:48:13.7	347.310	-0.240	-0.570	-0.870
2020/01/31 10:48:13.8	347.320	-0.250	-0.490	-0.840
2020/01/31 10:48:13.9	347.330	-0.250	-0.410	-0.810
2020/01/31 10:48:14.0	347.330	-0.250	-0.330	-0.770
2020/01/31 10:48:14.1	347.320	-0.240	-0.240	-0.720
2020/01/31 10:48:14.2	347.310	-0.240	-0.150	-0.670
2020/01/31 10:48:14.3	347.300	-0.230	-0.070	-0.620
2020/01/31 10:48:14.4	347.280	-0.230	0.020	-0.560
2020/01/31 10:48:14.5	347.260	-0.220	0.100	-0.500
2020/01/31 10:48:14.6	347.240	-0.210	0.180	-0.440
2020/01/31 10:48:14.7	347.200	-0.200	0.250	-0.370
2020/01/31 10:48:14.8	347.170	-0.180	0.320	-0.300
2020/01/31 10:48:14.9	347.130	-0.170	0.390	-0.240
2020/01/31 10:48:15.0	347.090	-0.150	0.450	-0.170
2020/01/31 10:48:15.1	347.040	-0.140	0.500	-0.100
2020/01/31 10:48:15.2	346.990	-0.120	0.550	-0.040
2020/01/31 10:48:15.3	346.940	-0.100	0.590	0.030
2020/01/31 10:48:15.4	346.890	-0.080	0.620	0.090
2020/01/31 10:48:15.5	346.840	-0.060	0.650	0.140
2020/01/31 10:48:15.6	346.790	-0.040	0.660	0.200
2020/01/31 10:48:15.7	346.740	-0.010	0.670	0.250
2020/01/31 10:48:15.8	346.690	0.010	0.670	0.300
2020/01/31 10:48:15.9	346.640	0.040	0.660	0.340
2020/01/31 10:48:16.0	346.590	0.060	0.640	0.380
2020/01/31 10:48:16.1	346.540	0.090	0.620	0.410
2020/01/31 10:48:16.2	346.500	0.120	0.590	0.440
2020/01/31 10:48:16.3	346.450	0.150	0.550	0.470
2020/01/31 10:48:16.4	346.410	0.180	0.500	0.490
2020/01/31 10:48:16.5	346.380	0.210	0.460	0.510
2020/01/31 10:48:16.6	346.350	0.240	0.400	0.520
2020/01/31 10:48:16.7	346.320	0.270	0.340	0.530
2020/01/31 10:48:16.8	346.290	0.300	0.280	0.540
2020/01/31 10:48:16.9	346.270	0.340	0.210	0.540
2020/01/31 10:48:17.0	346.240	0.370	0.140	0.540
2020/01/31 10:48:17.1	346.230	0.400	0.070	0.540
2020/01/31 10:48:17.2	346.210	0.440	0.000	0.530
2020/01/31 10:48:17.3	346.200	0.470	-0.060	0.530
2020/01/31 10:48:17.4	346.190	0.500	-0.130	0.520
2020/01/31 10:48:17.5	346.180	0.530	-0.210	0.500
2020/01/31 10:48:17.6	346.170	0.550	-0.270	0.490
2020/01/31 10:48:17.7	346.160	0.580	-0.320	0.480
2020/01/31 10:48:17.8	346.150	0.600	-0.380	0.470
2020/01/31 10:48:17.9	346.150	0.620	-0.430	0.450
2020/01/31 10:48:18.0	346.140	0.630	-0.470	0.440
2020/01/31 10:48:18.1	346.130	0.650	-0.510	0.430
2020/01/31 10:48:18.2	346.120	0.660	-0.540	0.410
2020/01/31 10:48:18.3	346.110	0.660	-0.570	0.400
2020/01/31 10:48:18.4	346.110	0.660	-0.590	0.390
2020/01/31 10:48:18.5	346.100	0.660	-0.600	0.370
2020/01/31 10:48:18.6	346.090	0.650	-0.610	0.360
2020/01/31 10:48:18.7	346.090	0.640	-0.620	0.350
2020/01/31 10:48:18.8	346.080	0.630	-0.620	0.330
2020/01/31 10:48:18.9	346.080	0.610	-0.620	0.320
2020/01/31 10:48:19.0	346.080	0.590	-0.610	0.300
2020/01/31 10:48:19.1	346.080	0.560	-0.610	0.280
2020/01/31 10:48:19.2	346.090	0.530	-0.590	0.260
2020/01/31 10:48:19.3	346.090	0.500	-0.580	0.240
2020/01/31 10:48:19.4	346.100	0.460	-0.570	0.220
2020/01/31 10:48:19.5	346.120	0.430	-0.560	0.190
2020/01/31 10:48:19.6	346.130	0.390	-0.540	0.160
2020/01/31 10:48:19.7	346.150	0.350	-0.520	0.130
2020/01/31 10:48:19.8	346.180	0.300	-0.510	0.100
2020/01/31 10:48:19.9	346.200	0.260	-0.490	0.070
2020/01/31 10:48:20.0	346.230	0.220	-0.480	0.030
2020/01/31 10:48:20.1	346.260	0.170	-0.470	-0.000
2020/01/31 10:48:20.2	346.300	0.130	-0.460	-0.040
2020/01/31 10:48:20.3	346.340	0.090	-0.450	-0.080
2020/01/31 10:48:20.4	346.380	0.040	-0.440	-0.130
2020/01/31 10:48:20.5	346.420	0.000	-0.430	-0.170
2020/01/31 10:48:20.6	346.460	-0.040	-0.430	-0.210
2020/01/31 10:48:20.7	346.510	-0.080	-0.420	-0.260
2020/01/31 10:48:20.8	346.560	-0.110	-0.420	-0.300
2020/01/31 10:48:20.9	346.600	-0.150	-0.410	-0.340
2020/01/31 10:48:21.0	346.650	-0.180	-0.410	-0.380
2020/01/31 10:48:21.1	346.690	-0.220	-0.400	-0.420
2020/01/31 10:48:21.2	346.740	-0.250	-0.400	-0.460
2020/01/31 10:48:21.3	346.780	-0.270	-0.390	-0.490
2020/01/31 10:48:21.4	346.820	-0.300	-0.390	-0.520
2020/01/31 10:48:21.5	346.850	-0.320	-0.380	-0.550
2020/01/31 10:48:21.6	346.880	-0.350	-0.370	-0.570
2020/01/31 10:48:21.7	346.910	-0.370	-0.360	-0.590
2020/01/31 10:48:21.8	346.940	-0.390	-0.350	-0.610
2020/01/31 10:48:21.9	346.970	-0.400	-0.340	-0.620
2020/01/31 10:48:22.0	346.990	-0.420	-0.330	-0.630
2020/01/31 10:48:22.1	347.000	-0.430	-0.320	-0.630
2020/01/31 10:48:22.2	347.020	-0.450	-0.310	-0.630
2020/01/31 10:48:22.3	347.030	-0.460	-0.290	-0.630
2020/01/31 10:48:22.4	347.040	-0.470	-0.280	-0.620
2020/01/31 10:48:22.5	347.040	-0.480	-0.260	-0.610
2020/01/31 10:48:22.6	347.050	-0.490	-0.250	-0.600
2020/01/31 10:48:22.7	347.050	-0.490	-0.230	-0.590
2020/01/31 10:48:22.8	347.050	-0.500	-0.220	-0.580
2020/01/31 10:48:22.9	347.050	-0.510	-0.210	-0.560
2020/01/31 10:48:23.0	347.050	-0.510	-0.190	-0.550
2020/01/31 10:48:23.1	347.040	-0.520	-0.180	-0.540
2020/01/31 10:48:23.2	347.040	-0.520	-0.170	-0.520
2020/01/31 10:48:23.3	347.030	-0.530	-0.150	-0.510
2020/01/31 10:48:23.4	347.030	-0.530	-0.140	-0.500
2020/01/31 10:48:23.5	347.010	-0.530	-0.130	-0.490
2020/01/31 10:48:23.6	347.010	-0.540	-0.120	-0.480
2020/01/31 10:48:23.7	347.000	-0.540	-0.110	-0.470
2020/01/31 10:48:23.8	346.990	-0.540	-0.100	-0.460
2020/01/31 10:48:23.9	346.980	-0.540	-0.100	-0.460
2020/01/31 10:48:24.0	346.970	-0.540	-0.090	-0.450
2020/01/31 10:48:24.1	346.960	-0.540	-0.080	-0.440
2020/01/31 10:48:24.2	346.950	-0.540	-0.070	-0.430
2020/01/31 10:48:24.3	346.940	-0.540	-0.060	-0.430
2020/01/31 10:48:24.4	346.930	-0.530	-0.050	-0.420
2020/01/31 10:48:24.5	346.920	-0.530	-0.040	-0.410
2020/01/31 10:48:24.6	346.910	-0.530	-0.030	-0.400
2020/01/31 10:48:24.7	346.890	-0.520	-0.030	-0.390
2020/01/31 10:48:24.8	346.880	-0.520	-0.020	-0.380
2020/01/31 10:48:24.9	346.860	-0.510	-0.010	-0.370
2020/01/31 10:48:25.0	346.850	-0.500	-0.000	-0.350
2020/01/31 10:48:25.1	346.830	-0.490	0.010	-0.340
2020/01/31 10:48:25.2	346.820	-0.480	0.010	-0.320
2020/01/31 10:48:25.3	346.800	-0.470	0.020	-0.300
2020/01/31 10:48:25.4	346.790	-0.450	0.030	-0.280
2020/01/31 10:48:25.5	346.770	-0.440	0.030	-0.260
2020/01/31 10:48:25.6	346.760	-0.420	0.030	-0.240
2020/01/31 10:48:25.7	346.740	-0.400	0.040	-0.220
2020/01/31 10:48:25.8	346.730	-0.380	0.040	-0.190
2020/01/31 10:48:25.9	346.720	-0.360	0.040	-0.170
2020/01/31 10:48:26.0	346.710	-0.330	0.040	-0.140
2020/01/31 10:48:26.1	346.700	-0.310	0.040	-0.120
2020/01/31 10:48:26.2	346.690	-0.280	0.030	-0.090
2020/01/31 10:48:26.3	346.690	-0.250	0.030	-0.070
2020/01/31 10:48:26.4	346.680	-0.220	0.020	-0.050
2020/01/31 10:48:26.5	346.670	-0.180	0.010	-0.030
2020/01/31 10:48:26.6	346.670	-0.150	0.000	-0.000
2020/01/31 10:48:26.7	346.670	-0.110	-0.010	0.020
2020/01/31 10:48:26.8	346.660	-0.070	-0.030	0.040
2020/01/31 10:48:26.9	346.660	-0.030	-0.040	0.070
2020/01/31 10:48:27.0	346.660	0.010	-0.060	0.090
2020/01/31 10:48:27.1	346.660	0.050	-0.080	0.120
2020/01/31 10:48:27.2	346.660	0.090	-0.090	0.140
2020/01/31 10:48:27.3	346.660	0.130	-0.110	0.170
2020/01/31 10:48:27.4	346.660	0.180	-0.130	0.190
2020/01/31 10:48:27.5	346.660	0.220	-0.150	0.220
2020/01/31 10:48:27.6	346.660	0.260	-0.170	0.250
2020/01/31 10:48:27.7	346.660	0.300	-0.190	0.280
2020/01/31 10:48:27.8	346.650	0.340	-0.210	0.310
2020/01/31 10:48:27.9	346.650	0.380	-0.240	0.340
2020/01/31 10:48:28.0	346.650	0.420	-0.250	0.370
2020/01/31 10:48:28.1	346.640	0.460	-0.270	0.400
2020/01/31 10:48:28.2	346.640	0.490	-0.290	0.430
2020/01/31 10:48:28.3	346.630	0.520	-0.310	0.460
2020/01/31 10:48:28.4	346.630	0.550	-0.320	0.490
2020/01/31 10:48:28.5	346.620	0.580	-0.340	0.520
2020/01/31 10:48:28.6	346.620	0.610	-0.350	0.540
2020/01/31 10:48:28.7	346.610	0.630	-0.360	0.570
2020/01/31 10:48:28.8	346.610	0.650	-0.370	0.590
2020/01/31 10:48:28.9	346.610	0.670	-0.380	0.610
2020/01/31 10:48:29.0	346.600	0.680	-0.390	0.630
2020/01/31 10:48:29.1	346.600	0.690	-0.400	0.640
2020/01/31 10:48:29.2	346.600	0.700	-0.410	0.660
2020/01/31 10:48:29.3	346.600	0.700	-0.410	0.670
2020/01/31 10:48:29.4	346.600	0.710	-0.420	0.680
2020/01/31 10:48:29.5	346.590	0.710	-0.420	0.680
2020/01/31 10:48:29.6	346.590	0.700	-0.420	0.680
2020/01/31 10:48:29.7	346.590	0.700	-0.430	0.680
2020/01/31 10:48:29.8	346.590	0.690	-0.430	0.680
2020/01/31 10:48:29.9	346.590	0.680	-0.430	0.680
2020/01/31 10:48:30.0	346.600	0.670	-0.430	0.670
2020/01/31 10:48:30.1	346.600	0.660	-0.430	0.660
2020/01/31 10:48:30.2	346.610	0.640	-0.430	0.650
2020/01/31 10:48:30.3	346.610	0.620	-0.420	0.640
2020/01/31 10:48:30.4	346.620	0.610	-0.420	0.630
2020/01/31 10:48:30.5	346.620	0.590	-0.420	0.610
2020/01/31 10:48:30.6	346.630	0.570	-0.420	0.600
2020/01/31 10:48:30.7	346.640	0.550	-0.410	0.580
2020/01/31 10:48:30.8	346.640	0.530	-0.410	0.570
2020/01/31 10:48:30.9	346.650	0.500	-0.410	0.550
2020/01/31 10:48:31.0	346.650	0.480	-0.400	0.540
2020/01/31 10:48:31.1	346.660	0.460	-0.400	0.520
2020/01/31 10:48:31.2	346.660	0.440	-0.400	0.500
2020/01/31 10:48:31.3	346.660	0.420	-0.390	0.480
2020/01/31 10:48:31.4	346.660	0.390	-0.390	0.470
2020/01/31 10:48:31.5	346.660	0.370	-0.390	0.440
2020/01/31 10:48:31.6	346.660	0.350	-0.390	0.420
2020/01/31 10:48:31.7	346.670	0.330	-0.400	0.390
2020/01/31 10:48:31.8	346.670	0.310	-0.400	0.370
2020/01/31 10:48:31.9	346.670	0.290	-0.410	0.340
2020/01/31 10:48:32.0	346.680	0.270	-0.420	0.300
2020/01/31 10:48:32.1	346.680	0.250	-0.430	0.260
2020/01/31 10:48:32.2	346.690	0.230	-0.440	0.220
2020/01/31 10:48:32.3	346.700	0.210	-0.450	0.180
2020/01/31 10:48:32.4	346.710	0.200	-0.470	0.130
2020/01/31 10:48:32.5	346.720	0.180	-0.480	0.080
2020/01/31 10:48:32.6	346.730	0.160	-0.500	0.020
2020/01/31 10:48:32.7	346.740	0.140	-0.520	-0.030
2020/01/31 10:48:32.8	346.750	0.130	-0.530	-0.090
2020/01/31 10:48:32.9	346.760	0.110	-0.550	-0.150
2020/01/31 10:48:33.0	346.780	0.090	-0.560	-0.210
2020/01/31 10:48:33.1	346.790	0.070	-0.580	-0.260
2020/01/31 10:48:33.2	346.800	0.050	-0.590	-0.320
2020/01/31 10:48:33.3	346.820	0.030	-0.600	-0.380
2020/01/31 10:48:33.4	346.830	0.010	-0.610	-0.430
2020/01/31 10:48:33.5	346.840	-0.010	-0.610	-0.490
2020/01/31 10:48:33.6	346.850	-0.030	-0.610	-0.540
2020/01/31 10:48:33.7	346.860	-0.050	-0.610	-0.590
2020/01/31 10:48:33.8	346.870	-0.080	-0.600	-0.630
2020/01/31 10:48:33.9	346.880	-0.100	-0.590	-0.680
2020/01/31 10:48:34.0	346.890	-0.130	-0.570	-0.720
2020/01/31 10:48:34.1	346.900	-0.150	-0.550	-0.760
2020/01/31 10:48:34.2	346.910	-0.180	-0.520	-0.790
2020/01/31 10:48:34.3	346.920	-0.210	-0.490	-0.820
2020/01/31 10:48:34.4	346.930	-0.240	-0.450	-0.850
2020/01/31 10:48:34.5	346.940	-0.270	-0.410	-0.880
2020/01/31 10:48:34.6	346.950	-0.300	-0.360	-0.900
2020/01/31 10:48:34.7	346.950	-0.330	-0.310	-0.910
2020/01/31 10:48:34.8	346.960	-0.360	-0.260	-0.930
2020/01/31 10:48:34.9	346.960	-0.390	-0.200	-0.930
2020/01/31 10:48:35.0	346.970	-0.420	-0.140	-0.940
2020/01/31 10:48:35.1	346.970	-0.460	-0.070	-0.930
2020/01/31 10:48:35.2	346.970	-0.490	-0.010	-0.930
2020/01/31 10:48:35.3	346.970	-0.520	0.060	-0.920
2020/01/31 10:48:35.4	346.970	-0.550	0.130	-0.900
2020/01/31 10:48:35.5	346.980	-0.570	0.200	-0.890
2020/01/31 10:48:35.6	346.980	-0.600	0.270	-0.870
2020/01/31 10:48:35.7	346.980	-0.630	0.340	-0.840
2020/01/31 10:48:35.8	346.970	-0.650	0.410	-0.810
2020/01/31 10:48:35.9	346.970	-0.680	0.470	-0.780
2020/01/31 10:48:36.0	346.960	-0.700	0.530	-0.750
2020/01/31 10:48:36.1	346.950	-0.720	0.590	-0.710
2020/01/31 10:48:36.2	346.940	-0.740	0.640	-0.670
2020/01/31 10:48:36.3	346.930	-0.750	0.690	-0.630
2020/01/31 10:48:36.4	346.920	-0.770	0.730	-0.590
2020/01/31 10:48:36.5	346.910	-0.780	0.760	-0.540
2020/01/31 10:48:36.6	346.900	-0.790	0.790	-0.490
2020/01/31 10:48:36.7	346.890	-0.790	0.810	-0.440
2020/01/31 10:48:36.8	346.870	-0.790	0.820	-0.390
2020/01/31 10:48:36.9	346.850	-0.790	0.820	-0.340
2020/01/31 10:48:37.0	346.840	-0.790	0.820	-0.280
2020/01/31 10:48:37.1	346.820	-0.780	0.810	-0.230
2020/01/31 10:48:37.2	346.810	-0.770	0.780	-0.180
2020/01/31 10:48:37.3	346.790	-0.760	0.750	-0.130
2020/01/31 10:48:37.4	346.780	-0.740	0.720	-0.090
2020/01/31 10:48:37.5	346.770	-0.720	0.670	-0.040
2020/01/31 10:48:37.6	346.760	-0.690	0.620	0.000
2020/01/31 10:48:37.7	346.750	-0.670	0.560	0.040
2020/01/31 10:48:37.8	346.750	-0.640	0.490	0.080
2020/01/31 10:48:37.9	346.740	-0.600	0.410	0.110
2020/01/31 10:48:38.0	346.740	-0.560	0.330	0.140
2020/01/31 10:48:38.1	346.740	-0.520	0.240	0.170
2020/01/31 10:48:38.2	346.740	-0.480	0.150	0.200
2020/01/31 10:48:38.3	346.740	-0.440	0.050	0.220
2020/01/31 10:48:38.4	346.740	-0.390	-0.040	0.240
2020/01/31 10:48:38.5	346.740	-0.340	-0.140	0.260
2020/01/31 10:48:38.6	346.750	-0.290	-0.240	0.270
2020/01/31 10:48:38.7	346.760	-0.230	-0.340	0.290
2020/01/31 10:48:38.8	346.770	-0.180	-0.440	0.300
2020/01/31 10:48:38.9	346.780	-0.120	-0.530	0.310
2020/01/31 10:48:39.0	346.790	-0.070	-0.630	0.310
2020/01/31 10:48:39.1	346.800	-0.010	-0.710	0.320
2020/01/31 10:48:39.2	346.810	0.040	-0.800	0.330
2020/01/31 10:48:39.3	346.820	0.090	-0.880	0.330
2020/01/31 10:48:39.4	346.840	0.150	-0.950	0.340
2020/01/31 10:48:39.5	346.840	0.200	-1.010	0.330
2020/01/31 10:48:39.6	346.860	0.240	-1.070	0.340
2020/01/31 10:48:39.7	346.870	0.290	-1.120	0.340
2020/01/31 10:48:39.8	346.890	0.330	-1.170	0.340
2020/01/31 10:48:39.9	346.900	0.380	-1.200	0.340
2020/01/31 10:48:40.0	346.920	0.410	-1.230	0.340
2020/01/31 10:48:40.1	346.930	0.450	-1.250	0.340
2020/01/31 10:48:40.2	346.950	0.480	-1.270	0.340
2020/01/31 10:48:40.3	346.960	0.510	-1.270	0.340
2020/01/31 10:48:40.4	346.980	0.530	-1.270	0.340
2020/01/31 10:48:40.5	346.980	0.550	-1.260	0.340
2020/01/31 10:48:40.6	346.990	0.560	-1.240	0.340
2020/01/31 10:48:40.7	347.000	0.580	-1.210	0.340
2020/01/31 10:48:40.8	347.010	0.590	-1.180	0.350
2020/01/31 10:48:40.9	347.020	0.590	-1.140	0.350
2020/01/31 10:48:41.0	347.030	0.590	-1.090	0.350
2020/01/31 10:48:41.1	347.030	0.590	-1.040	0.350
2020/01/31 10:48:41.2	347.030	0.580	-0.980	0.360
2020/01/31 10:48:41.3	347.040	0.570	-0.920	0.360
2020/01/31 10:48:41.4	347.030	0.560	-0.850	0.370
2020/01/31 10:48:41.5	347.030	0.550	-0.780	0.370
2020/01/31 10:48:41.6	347.030	0.530	-0.710	0.380
2020/01/31 10:48:41.7	347.020	0.510	-0.640	0.390
2020/01/31 10:48:41.8	347.010	0.490	-0.560	0.400
2020/01/31 10:48:41.9	347.000	0.470	-0.480	0.410
2020/01/31 10:48:42.0	346.990	0.450	-0.400	0.420
2020/01/31 10:48:42.1	346.970	0.420	-0.320	0.430
2020/01/31 10:48:42.2	346.960	0.400	-0.240	0.450
2020/01/31 10:48:42.3	346.940	0.380	-0.170	0.470
2020/01/31 10:48:42.4	346.920	0.350	-0.090	0.480
2020/01/31 10:48:42.5	346.890	0.330	-0.020	0.500
2020/01/31 10:48:42.6	346.870	0.310	0.050	0.520
2020/01/31 10:48:42.7	346.850	0.290	0.110	0.540
2020/01/31 10:48:42.8	346.820	0.270	0.180	0.560
2020/01/31 10:48:42.9	346.800	0.250	0.230	0.580
2020/01/31 10:48:43.0	346.780	0.230	0.280	0.590
2020/01/31 10:48:43.1	346.760	0.210	0.330	0.610
2020/01/31 10:48:43.2	346.740	0.200	0.360	0.620
2020/01/31 10:48:43.3	346.720	0.190	0.390	0.640
2020/01/31 10:48:43.4	346.710	0.180	0.420	0.650
2020/01/31 10:48:43.5	346.690	0.170	0.430	0.650
2020/01/31 10:48:43.6	346.670	0.160	0.440	0.660
2020/01/31 10:48:43.7	346.660	0.160	0.450	0.660
2020/01/31 10:48:43.8	346.650	0.150	0.440	0.650
2020/01/31 10:48:43.9	346.640	0.150	0.430	0.640
2020/01/31 10:48:44.0	346.630	0.150	0.410	0.630
2020/01/31 10:48:44.1	346.620	0.160	0.380	0.620
2020/01/31 10:48:44.2	346.620	0.160	0.350	0.600
2020/01/31 10:48:44.3	346.610	0.160	0.310	0.580
2020/01/31 10:48:44.4	346.610	0.170	0.270	0.550
2020/01/31 10:48:44.5	346.610	0.170	0.220	0.530
2020/01/31 10:48:44.6	346.610	0.180	0.170	0.500
2020/01/31 10:48:44.7	346.610	0.190	0.110	0.470
2020/01/31 10:48:44.8	346.610	0.200	0.050	0.430
2020/01/31 10:48:44.9	346.610	0.210	-0.010	0.400
2020/01/31 10:48:45.0	346.610	0.210	-0.070	0.370
2020/01/31 10:48:45.1	346.610	0.220	-0.140	0.330
2020/01/31 10:48:45.2	346.610	0.230	-0.200	0.290
2020/01/31 10:48:45.3	346.610	0.240	-0.270	0.250
2020/01/31 10:48:45.4	346.620	0.240	-0.340	0.210
2020/01/31 10:48:45.5	346.620	0.250	-0.400	0.170
2020/01/31 10:48:45.6	346.630	0.250	-0.460	0.130
2020/01/31 10:48:45.7	346.630	0.260	-0.520	0.080
2020/01/31 10:48:45.8	346.640	0.260	-0.580	0.040
2020/01/31 10:48:45.9	346.650	0.260	-0.630	-0.010
2020/01/31 10:48:46.0	346.650	0.250	-0.680	-0.050
2020/01/31 10:48:46.1	346.660	0.250	-0.720	-0.100
2020/01/31 10:48:46.2	346.670	0.250	-0.760	-0.140
2020/01/31 10:48:46.3	346.680	0.240	-0.790	-0.190
2020/01/31 10:48:46.4	346.680	0.230	-0.820	-0.230
2020/01/31 10:48:46.5	346.690	0.220	-0.850	-0.280
2020/01/31 10:48:46.6	346.700	0.200	-0.870	-0.320
2020/01/31 10:48:46.7	346.710	0.190	-0.880	-0.370
2020/01/31 10:48:46.8	346.710	0.170	-0.880	-0.420
2020/01/31 10:48:46.9	346.720	0.150	-0.880	-0.460
2020/01/31 10:48:47.0	346.720	0.120	-0.880	-0.500
2020/01/31 10:48:47.1	346.730	0.100	-0.870	-0.550
2020/01/31 10:48:47.2	346.730	0.070	-0.850	-0.590
2020/01/31 10:48:47.3	346.740	0.040	-0.830	-0.620
2020/01/31 10:48:47.4	346.740	0.010	-0.800	-0.660
2020/01/31 10:48:47.5	346.760	-0.020	-0.770	-0.690
2020/01/31 10:48:47.6	346.760	-0.060	-0.730	-0.720
2020/01/31 10:48:47.7	346.770	-0.090	-0.690	-0.740
2020/01/31 10:48:47.8	346.770	-0.120	-0.650	-0.760
2020/01/31 10:48:47.9	346.780	-0.160	-0.600	-0.770
2020/01/31 10:48:48.0	346.790	-0.190	-0.550	-0.780
2020/01/31 10:48:48.1	346.790	-0.230	-0.490	-0.790
2020/01/31 10:48:48.2	346.800	-0.260	-0.440	-0.790
2020/01/31 10:48:48.3	346.810	-0.290	-0.380	-0.790
2020/01/31 10:48:48.4	346.820	-0.320	-0.320	-0.780
2020/01/31 10:48:48.5	346.840	-0.350	-0.260	-0.770
2020/01/31 10:48:48.6	346.850	-0.380	-0.190	-0.760
2020/01/31 10:48:48.7	346.860	-0.400	-0.130	-0.740
2020/01/31 10:48:48.8	346.870	-0.430	-0.070	-0.720
2020/01/31 10:48:48.9	346.870	-0.450	-0.010	-0.700
2020/01/31 10:48:49.0	346.880	-0.470	0.050	-0.670
2020/01/31 10:48:49.1	346.890	-0.480	0.110	-0.640
2020/01/31 10:48:49.2	346.890	-0.500	0.170	-0.600
2020/01/31 10:48:49.3	346.900	-0.510	0.230	-0.560
2020/01/31 10:48:49.4	346.900	-0.520	0.280	-0.520
2020/01/31 10:48:49.5	346.910	-0.520	0.330	-0.480
2020/01/31 10:48:49.6	346.910	-0.530	0.390	-0.430
2020/01/31 10:48:49.7	346.910	-0.530	0.430	-0.390
2020/01/31 10:48:49.8	346.910	-0.520	0.480	-0.340
2020/01/31 10:48:49.9	346.900	-0.520	0.520	-0.290
2020/01/31 10:48:50.0	346.900	-0.510	0.550	-0.240
2020/01/31 10:48:50.1	346.900	-0.500	0.580	-0.190
2020/01/31 10:48:50.2	346.890	-0.480	0.610	-0.140
2020/01/31 10:48:50.3	346.890	-0.470	0.630	-0.090
2020/01/31 10:48:50.4	346.880	-0.450	0.640	-0.030
2020/01/31 10:48:50.5	346.870	-0.430	0.650	0.020
2020/01/31 10:48:50.6	346.860	-0.410	0.660	0.070
2020/01/31 10:48:50.7	346.860	-0.380	0.650	0.120
2020/01/31 10:48:50.8	346.850	-0.360	0.650	0.170
2020/01/31 10:48:50.9	346.840	-0.330	0.630	0.210
2020/01/31 10:48:51.0	346.830	-0.300	0.620	0.260
2020/01/31 10:48:51.1	346.820	-0.280	0.590	0.310
2020/01/31 10:48:51.2	346.810	-0.250	0.570	0.350
2020/01/31 10:48:51.3	346.800	-0.220	0.540	0.390
2020/01/31 10:48:51.4	346.780	-0.190	0.500	0.430
2020/01/31 10:48:51.5	346.760	-0.170	0.460	0.470
2020/01/31 10:48:51.6	346.740	-0.140	0.420	0.500
2020/01/31 10:48:51.7	346.720	-0.110	0.380	0.530
2020/01/31 10:48:51.8	346.700	-0.090	0.330	0.560
2020/01/31 10:48:51.9	346.680	-0.070	0.290	0.590
2020/01/31 10:48:52.0	346.650	-0.040	0.240	0.620
2020/01/31 10:48:52.1	346.620	-0.020	0.190	0.640
2020/01/31 10:48:52.2	346.590	-0.000	0.140	0.670
2020/01/31 10:48:52.3	346.560	0.020	0.090	0.690
2020/01/31 10:48:52.4	346.520	0.040	0.040	0.700
2020/01/31 10:48:52.5	346.480	0.050	-0.000	0.720
2020/01/31 10:48:52.6	346.440	0.070	-0.050	0.730
2020/01/31 10:48:52.7	346.400	0.080	-0.100	0.740
2020/01/31 10:48:52.8	346.360	0.090	-0.140	0.750
2020/01/31 10:48:52.9	346.320	0.100	-0.180	0.750
2020/01/31 10:48:53.0	346.280	0.110	-0.220	0.750
2020/01/31 10:48:53.1	346.240	0.120	-0.260	0.750
2020/01/31 10:48:53.2	346.190	0.120	-0.300	0.750
2020/01/31 10:48:53.3	346.150	0.120	-0.340	0.740
2020/01/31 10:48:53.4	346.110	0.130	-0.370	0.730
2020/01/31 10:48:53.5	346.080	0.130	-0.410	0.710
2020/01/31 10:48:53.6	346.040	0.130	-0.440	0.690
2020/01/31 10:48:53.7	346.010	0.130	-0.480	0.670
2020/01/31 10:48:53.8	345.970	0.130	-0.510	0.640
2020/01/31 10:48:53.9	345.940	0.130	-0.550	0.610
2020/01/31 10:48:54.0	345.920	0.130	-0.580	0.580
2020/01/31 10:48:54.1	345.890	0.130	-0.620	0.540
2020/01/31 10:48:54.2	345.870	0.120	-0.650	0.500
2020/01/31 10:48:54.3	345.850	0.120	-0.680	0.450
2020/01/31 10:48:54.4	345.830	0.120	-0.720	0.400
2020/01/31 10:48:54.5	345.820	0.120	-0.750	0.350
2020/01/31 10:48:54.6	345.810	0.110	-0.790	0.290
2020/01/31 10:48:54.7	345.800	0.110	-0.820	0.230
2020/01/31 10:48:54.8	345.800	0.100	-0.860	0.170
2020/01/31 10:48:54.9	345.800	0.100	-0.890	0.110
2020/01/31 10:48:55.0	345.800	0.100	-0.920	0.040
2020/01/31 10:48:55.1	345.800	0.090	-0.960	-0.030
2020/01/31 10:48:55.2	345.810	0.090	-0.990	-0.100
2020/01/31 10:48:55.3	345.820	0.090	-1.020	-0.170
2020/01/31 10:48:55.4	345.830	0.080	-1.050	-0.240
2020/01/31 10:48:55.5	345.840	0.080	-1.080	-0.310
2020/01/31 10:48:55.6	345.850	0.080	-1.110	-0.380
2020/01/31 10:48:55.7	345.870	0.080	-1.130	-0.450
2020/01/31 10:48:55.8	345.880	0.080	-1.160	-0.520
2020/01/31 10:48:55.9	345.900	0.070	-1.180	-0.580
2020/01/31 10:48:56.0	345.920	0.070	-1.200	-0.650
2020/01/31 10:48:56.1	345.940	0.070	-1.210	-0.710
2020/01/31 10:48:56.2	345.960	0.070	-1.220	-0.770
2020/01/31 10:48:56.3	345.980	0.070	-1.230	-0.820
2020/01/31 10:48:56.4	345.990	0.070	-1.240	-0.880
2020/01/31 10:48:56.5	346.020	0.070	-1.240	-0.920
2020/01/31 10:48:56.6	346.040	0.070	-1.230	-0.970
2020/01/31 10:48:56.7	346.050	0.070	-1.220	-1.010
2020/01/31 10:48:56.8	346.070	0.070	-1.210	-1.050
2020/01/31 10:48:56.9	346.090	0.070	-1.190	-1.080
2020/01/31 10:48:57.0	346.110	0.070	-1.170	-1.110
2020/01/31 10:48:57.1	346.130	0.080	-1.150	-1.140
2020/01/31 10:48:57.2	346.150	0.080	-1.120	-1.160
2020/01/31 10:48:57.3	346.170	0.080	-1.080	-1.180
2020/01/31 10:48:57.4	346.190	0.080	-1.050	-1.200
2020/01/31 10:48:57.5	346.230	0.080	-1.000	-1.210
2020/01/31 10:48:57.6	346.250	0.080	-0.960	-1.220
2020/01/31 10:48:57.7	346.280	0.090	-0.910	-1.220
2020/01/31 10:48:57.8	346.300	0.090	-0.860	-1.220
2020/01/31 10:48:57.9	346.320	0.090	-0.810	-1.220
2020/01/31 10:48:58.0	346.340	0.090	-0.750	-1.210
2020/01/31 10:48:58.1	346.370	0.100	-0.700	-1.200
2020/01/31 10:48:58.2	346.390	0.100	-0.630	-1.180
2020/01/31 10:48:58.3	346.410	0.100	-0.570	-1.160
2020/01/31 10:48:58.4	346.420	0.100	-0.500	-1.130
2020/01/31 10:48:58.5	346.450	0.100	-0.430	-1.100
2020/01/31 10:48:58.6	346.470	0.100	-0.360	-1.070
2020/01/31 10:48:58.7	346.480	0.110	-0.290	-1.030
2020/01/31 10:48:58.8	346.490	0.110	-0.210	-0.980
2020/01/31 10:48:58.9	346.490	0.110	-0.130	-0.930
2020/01/31 10:48:59.0	346.500	0.110	-0.050	-0.880
2020/01/31 10:48:59.1	346.490	0.110	0.030	-0.820
2020/01/31 10:48:59.2	346.490	0.110	0.110	-0.760
2020/01/31 10:48:59.3	346.480	0.110	0.190	-0.680
2020/01/31 10:48:59.4	346.470	0.110	0.280	-0.610
2020/01/31 10:48:59.5	346.460	0.110	0.360	-0.530
2020/01/31 10:48:59.6	346.440	0.110	0.440	-0.440
2020/01/31 10:48:59.7	346.410	0.120	0.530	-0.350
2020/01/31 10:48:59.8	346.380	0.120	0.610	-0.260
2020/01/31 10:48:59.9	346.340	0.120	0.680	-0.160
2020/01/31 10:49:00.0	346.300	0.120	0.760	-0.060
2020/01/31 10:49:00.1	346.250	0.120	0.830	0.050
2020/01/31 10:49:00.2	346.200	0.120	0.900	0.160
2020/01/31 10:49:00.3	346.150	0.120	0.960	0.260
2020/01/31 10:49:00.4	346.090	0.110	1.020	0.370
2020/01/31 10:49:00.5	346.030	0.110	1.070	0.470
2020/01/31 10:49:00.6	345.970	0.110	1.110	0.570
2020/01/31 10:49:00.7	345.910	0.110	1.150	0.670
2020/01/31 10:49:00.8	345.840	0.110	1.180	0.760
2020/01/31 10:49:00.9	345.780	0.110	1.200	0.850
2020/01/31 10:49:01.0	345.710	0.100	1.210	0.930
2020/01/31 10:49:01.1	345.650	0.100	1.220	1.010
2020/01/31 10:49:01.2	345.580	0.100	1.210	1.070
2020/01/31 10:49:01.3	345.520	0.090	1.200	1.130
2020/01/31 10:49:01.4	345.460	0.090	1.170	1.180
2020/01/31 10:49:01.5	345.400	0.090	1.150	1.210
2020/01/31 10:49:01.6	345.340	0.080	1.100	1.240
2020/01/31 10:49:01.7	345.280	0.080	1.050	1.250
2020/01/31 10:49:01.8	345.230	0.080	0.990	1.260
2020/01/31 10:49:01.9	345.170	0.070	0.920	1.260
2020/01/31 10:49:02.0	345.120	0.070	0.840	1.250
2020/01/31 10:49:02.1	345.070	0.060	0.750	1.230
2020/01/31 10:49:02.2	345.020	0.060	0.660	1.200
2020/01/31 10:49:02.3	344.970	0.050	0.560	1.170
2020/01/31 10:49:02.4	344.930	0.040	0.460	1.130
2020/01/31 10:49:02.5	344.890	0.040	0.340	1.080
2020/01/31 10:49:02.6	344.850	0.030	0.230	1.030
2020/01/31 10:49:02.7	344.810	0.020	0.120	0.970
2020/01/31 10:49:02.8	344.780	0.010	-0.000	0.910
2020/01/31 10:49:02.9	344.740	0.010	-0.120	0.840
2020/01/31 10:49:03.0	344.710	-0.000	-0.240	0.770
2020/01/31 10:49:03.1	344.690	-0.010	-0.350	0.700
2020/01/31 10:49:03.2	344.660	-0.030	-0.470	0.620
2020/01/31 10:49:03.3	344.640	-0.040	-0.580	0.530
2020/01/31 10:49:03.4	344.620	-0.050	-0.690	0.450
2020/01/31 10:49:03.5	344.620	-0.060	-0.790	0.350
2020/01/31 10:49:03.6	344.610	-0.070	-0.890	0.260
2020/01/31 10:49:03.7	344.600	-0.080	-0.980	0.170
2020/01/31 10:49:03.8	344.600	-0.100	-1.070	0.070
2020/01/31 10:49:03.9	344.600	-0.110	-1.150	-0.030
2020/01/31 10:49:04.0	344.600	-0.120	-1.220	-0.120
2020/01/31 10:49:04.1	344.610	-0.130	-1.290	-0.220
2020/01/31 10:49:04.2	344.620	-0.140	-1.350	-0.320
2020/01/31 10:49:04.3	344.630	-0.150	-1.400	-0.410
2020/01/31 10:49:04.4	344.640	-0.160	-1.440	-0.500
2020/01/31 10:49:04.5	344.650	-0.170	-1.470	-0.590
2020/01/31 10:49:04.6	344.660	-0.180	-1.490	-0.670
2020/01/31 10:49:04.7	344.670	-0.190	-1.500	-0.750
2020/01/31 10:49:04.8	344.690	-0.190	-1.500	-0.830
2020/01/31 10:49:04.9	344.700	-0.200	-1.500	-0.890
2020/01/31 10:49:05.0	344.710	-0.200	-1.480	-0.950
2020/01/31 10:49:05.1	344.720	-0.200	-1.450	-1.000
2020/01/31 10:49:05.2	344.730	-0.210	-1.410	-1.050
2020/01/31 10:49:05.3	344.740	-0.210	-1.360	-1.090
2020/01/31 10:49:05.4	344.740	-0.210	-1.310	-1.120
2020/01/31 10:49:05.5	344.750	-0.200	-1.250	-1.140
2020/01/31 10:49:05.6	344.750	-0.200	-1.180	-1.150
2020/01/31 10:49:05.7	344.740	-0.200	-1.100	-1.150
2020/01/31 10:49:05.8	344.740	-0.190	-1.020	-1.150
2020/01/31 10:49:05.9	344.730	-0.190	-0.930	-1.130
2020/01/31 10:49:06.0	344.720	-0.180	-0.840	-1.110
2020/01/31 10:49:06.1	344.710	-0.170	-0.750	-1.090
2020/01/31 10:49:06.2	344.700	-0.160	-0.650	-1.060
2020/01/31 10:49:06.3	344.690	-0.150	-0.560	-1.020
2020/01/31 10:49:06.4	344.670	-0.150	-0.460	-0.970
2020/01/31 10:49:06.5	344.660	-0.140	-0.370	-0.920
2020/01/31 10:49:06.6	344.640	-0.130	-0.280	-0.870
2020/01/31 10:49:06.7	344.610	-0.120	-0.190	-0.810
2020/01/31 10:49:06.8	344.590	-0.110	-0.110	-0.750
2020/01/31 10:49:06.9	344.560	-0.100	-0.030	-0.690
2020/01/31 10:49:07.0	344.530	-0.090	0.040	-0.620
2020/01/31 10:49:07.1	344.500	-0.080	0.110	-0.550
2020/01/31 10:49:07.2	344.470	-0.070	0.170	-0.490
2020/01/31 10:49:07.3	344.440	-0.060	0.220	-0.420
2020/01/31 10:49:07.4	344.400	-0.050	0.260	-0.350
2020/01/31 10:49:07.5	344.370	-0.050	0.300	-0.280
2020/01/31 10:49:07.6	344.340	-0.040	0.330	-0.210
2020/01/31 10:49:07.7	344.300	-0.030	0.350	-0.150
2020/01/31 10:49:07.8	344.260	-0.030	0.360	-0.080
2020/01/31 10:49:07.9	344.230	-0.020	0.370	-0.020
2020/01/31 10:49:08.0	344.190	-0.010	0.370	0.050
2020/01/31 10:49:08.1	344.160	-0.010	0.360	0.110
2020/01/31 10:49:08.2	344.120	-0.000	0.350	0.170
2020/01/31 10:49:08.3	344.090	0.000	0.330	0.220
2020/01/31 10:49:08.4	344.050	0.000	0.300	0.280
2020/01/31 10:49:08.5	344.000	0.010	0.270	0.330
2020/01/31 10:49:08.6	343.970	0.010	0.240	0.380
2020/01/31 10:49:08.7	343.940	0.010	0.200	0.430
2020/01/31 10:49:08.8	343.910	0.020	0.160	0.470
2020/01/31 10:49:08.9	343.880	0.020	0.110	0.520
2020/01/31 10:49:09.0	343.850	0.020	0.070	0.560
2020/01/31 10:49:09.1	343.820	0.020	0.020	0.600
2020/01/31 10:49:09.2	343.790	0.020	-0.020	0.630
2020/01/31 10:49:09.3	343.760	0.020	-0.070	0.660
2020/01/31 10:49:09.4	343.730	0.020	-0.120	0.690
2020/01/31 10:49:09.5	343.700	0.020	-0.160	0.720
2020/01/31 10:49:09.6	343.670	0.020	-0.210	0.740
2020/01/31 10:49:09.7	343.640	0.020	-0.250	0.760
2020/01/31 10:49:09.8	343.620	0.020	-0.290	0.780
2020/01/31 10:49:09.9	343.590	0.020	-0.330	0.790
2020/01/31 10:49:10.0	343.560	0.020	-0.360	0.800
2020/01/31 10:49:10.1	343.540	0.010	-0.400	0.810
2020/01/31 10:49:10.2	343.510	0.010	-0.430	0.820
2020/01/31 10:49:10.3	343.490	0.010	-0.460	0.820
2020/01/31 10:49:10.4	343.460	0.010	-0.480	0.820
2020/01/31 10:49:10.5	343.440	0.000	-0.500	0.820
2020/01/31 10:49:10.6	343.410	-0.000	-0.520	0.820
2020/01/31 10:49:10.7	343.390	-0.000	-0.540	0.810
2020/01/31 10:49:10.8	343.360	-0.010	-0.550	0.800
2020/01/31 10:49:10.9	343.340	-0.010	-0.560	0.780
2020/01/31 10:49:11.0	343.320	-0.020	-0.560	0.770
2020/01/31 10:49:11.1	343.290	-0.020	-0.570	0.750
2020/01/31 10:49:11.2	343.270	-0.020	-0.570	0.730
2020/01/31 10:49:11.3	343.240	-0.030	-0.560	0.700
2020/01/31 10:49:11.4	343.220	-0.030	-0.560	0.680
2020/01/31 10:49:11.5	343.200	-0.040	-0.550	0.650
2020/01/31 10:49:11.6	343.170	-0.040	-0.540	0.620
2020/01/31 10:49:11.7	343.150	-0.040	-0.530	0.600
2020/01/31 10:49:11.8	343.120	-0.050	-0.510	0.570
2020/01/31 10:49:11.9	343.100	-0.050	-0.490	0.540
2020/01/31 10:49:12.0	343.070	-0.050	-0.470	0.510
2020/01/31 10:49:12.1	343.040	-0.050	-0.450	0.490
2020/01/31 10:49:12.2	343.020	-0.050	-0.430	0.460
2020/01/31 10:49:12.3	342.990	-0.050	-0.410	0.440
2020/01/31 10:49:12.4	342.960	-0.040	-0.380	0.410
2020/01/31 10:49:12.5	342.920	-0.040	-0.360	0.390
2020/01/31 10:49:12.6	342.890	-0.030	-0.330	0.370
2020/01/31 10:49:12.7	342.860	-0.030	-0.310	0.350
2020/01/31 10:49:12.8	342.820	-0.020	-0.280	0.340
2020/01/31 10:49:12.9	342.790	-0.010	-0.260	0.320
2020/01/31 10:49:13.0	342.760	-0.000	-0.230	0.310
2020/01/31 10:49:13.1	342.720	0.010	-0.210	0.300
2020/01/31 10:49:13.2	342.690	0.020	-0.180	0.300
2020/01/31 10:49:13.3	342.650	0.040	-0.160	0.290
2020/01/31 10:49:13.4	342.620	0.050	-0.140	0.290
2020/01/31 10:49:13.5	342.570	0.070	-0.120	0.290
2020/01/31 10:49:13.6	342.520	0.080	-0.100	0.290
2020/01/31 10:49:13.7	342.480	0.100	-0.080	0.300
2020/01/31 10:49:13.8	342.440	0.110	-0.060	0.310
2020/01/31 10:49:13.9	342.390	0.130	-0.050	0.320
2020/01/31 10:49:14.0	342.340	0.140	-0.030	0.340
2020/01/31 10:49:14.1	342.290	0.160	-0.010	0.350
2020/01/31 10:49:14.2	342.240	0.170	-0.000	0.370
2020/01/31 10:49:14.3	342.180	0.190	0.010	0.390
2020/01/31 10:49:14.4	342.130	0.200	0.020	0.410
2020/01/31 10:49:14.5	342.070	0.210	0.030	0.430
2020/01/31 10:49:14.6	342.010	0.220	0.040	0.450
2020/01/31 10:49:14.7	341.960	0.230	0.040	0.460
2020/01/31 10:49:14.8	341.900	0.240	0.040	0.480
2020/01/31 10:49:14.9	341.840	0.240	0.040	0.490
2020/01/31 10:49:15.0	341.790	0.250	0.040	0.500
2020/01/31 10:49:15.1	341.730	0.250	0.030	0.510
2020/01/31 10:49:15.2	341.680	0.250	0.030	0.520
2020/01/31 10:49:15.3	341.630	0.250	0.020	0.520
2020/01/31 10:49:15.4	341.580	0.250	0.000	0.530
2020/01/31 10:49:15.5	341.530	0.240	-0.010	0.520
2020/01/31 10:49:15.6	341.480	0.230	-0.030	0.520
2020/01/31 10:49:15.7	341.440	0.230	-0.050	0.520
2020/01/31 10:49:15.8	341.390	0.220	-0.070	0.510
2020/01/31 10:49:15.9	341.350	0.200	-0.090	0.510
2020/01/31 10:49:16.0	341.310	0.190	-0.120	0.500
2020/01/31 10:49:16.1	341.270	0.180	-0.140	0.490
2020/01/31 10:49:16.2	341.230	0.160	-0.160	0.480
2020/01/31 10:49:16.3	341.200	0.150	-0.190	0.470
2020/01/31 10:49:16.4	341.160	0.130	-0.220	0.460
2020/01/31 10:49:16.5	341.120	0.110	-0.250	0.440
2020/01/31 10:49:16.6	341.090	0.100	-0.270	0.430
2020/01/31 10:49:16.7	341.060	0.080	-0.290	0.420
2020/01/31 10:49:16.8	341.020	0.060	-0.320	0.420
2020/01/31 10:49:16.9	340.990	0.040	-0.340	0.410
2020/01/31 10:49:17.0	340.960	0.030	-0.360	0.400
2020/01/31 10:49:17.1	340.930	0.010	-0.380	0.390
2020/01/31 10:49:17.2	340.900	-0.010	-0.390	0.390
2020/01/31 10:49:17.3	340.870	-0.020	-0.410	0.380
2020/01/31 10:49:17.4	340.840	-0.040	-0.420	0.380
2020/01/31 10:49:17.5	340.810	-0.050	-0.430	0.380
2020/01/31 10:49:17.6	340.780	-0.060	-0.430	0.380
2020/01/31 10:49:17.7	340.750	-0.070	-0.440	0.380
2020/01/31 10:49:17.8	340.720	-0.080	-0.440	0.390
2020/01/31 10:49:17.9	340.690	-0.090	-0.430	0.390
2020/01/31 10:49:18.0	340.650	-0.090	-0.430	0.400
2020/01/31 10:49:18.1	340.620	-0.100	-0.420	0.410
2020/01/31 10:49:18.2	340.580	-0.100	-0.410	0.420
2020/01/31 10:49:18.3	340.540	-0.100	-0.390	0.430
2020/01/31 10:49:18.4	340.500	-0.100	-0.370	0.450
2020/01/31 10:49:18.5	340.460	-0.100	-0.350	0.460
2020/01/31 10:49:18.6	340.420	-0.100	-0.330	0.490
2020/01/31 10:49:18.7	340.380	-0.090	-0.300	0.510
2020/01/31 10:49:18.8	340.330	-0.080	-0.270	0.540
2020/01/31 10:49:18.9	340.280	-0.080	-0.230	0.560
2020/01/31 10:49:19.0	340.230	-0.070	-0.200	0.590
2020/01/31 10:49:19.1	340.190	-0.060	-0.160	0.630
2020/01/31 10:49:19.2	340.130	-0.050	-0.130	0.660
2020/01/31 10:49:19.3	340.080	-0.050	-0.090	0.690
2020/01/31 10:49:19.4	340.030	-0.040	-0.050	0.730
2020/01/31 10:49:19.5	339.970	-0.030	-0.020	0.760
2020/01/31 10:49:19.6	339.920	-0.020	0.010	0.790
2020/01/31 10:49:19.7	339.870	-0.020	0.040	0.830
2020/01/31 10:49:19.8	339.810	-0.010	0.070	0.860
2020/01/31 10:49:19.9	339.760	-0.010	0.090	0.880
2020/01/31 10:49:20.0	339.710	-0.010	0.120	0.910
2020/01/31 10:49:20.1	339.660	-0.010	0.130	0.930
2020/01/31 10:49:20.2	339.610	-0.010	0.150	0.950
2020/01/31 10:49:20.3	339.560	-0.010	0.160	0.970
2020/01/31 10:49:20.4	339.510	-0.010	0.160	0.980
2020/01/31 10:49:20.5	339.470	-0.020	0.160	0.990
2020/01/31 10:49:20.6	339.420	-0.020	0.160	1.000
2020/01/31 10:49:20.7	339.380	-0.030	0.150	1.000
2020/01/31 10:49:20.8	339.340	-0.040	0.130	1.000
2020/01/31 10:49:20.9	339.300	-0.050	0.120	0.990
2020/01/31 10:49:21.0	339.260	-0.060	0.090	0.980
2020/01/31 10:49:21.1	339.220	-0.070	0.070	0.970
2020/01/31 10:49:21.2	339.180	-0.090	0.040	0.950
2020/01/31 10:49:21.3	339.150	-0.100	0.010	0.930
2020/01/31 10:49:21.4	339.110	-0.110	-0.030	0.910
2020/01/31 10:49:21.5	339.070	-0.130	-0.070	0.880
2020/01/31 10:49:21.6	339.040	-0.140	-0.110	0.860
2020/01/31 10:49:21.7	339.010	-0.150	-0.150	0.830
2020/01/31 10:49:21.8	338.980	-0.170	-0.190	0.800
2020/01/31 10:49:21.9	338.950	-0.180	-0.230	0.770
2020/01/31 10:49:22.0	338.920	-0.190	-0.280	0.740
2020/01/31 10:49:22.1	338.890	-0.200	-0.320	0.710
2020/01/31 10:49:22.2	338.860	-0.210	-0.370	0.690
2020/01/31 10:49:22.3	338.830	-0.220	-0.410	0.660
2020/01/31 10:49:22.4	338.800	-0.220	-0.450	0.630
2020/01/31 10:49:22.5	338.770	-0.230	-0.490	0.600
2020/01/31 10:49:22.6	338.740	-0.230	-0.520	0.570
2020/01/31 10:49:22.7	338.720	-0.230	-0.560	0.550
2020/01/31 10:49:22.8	338.690	-0.230	-0.590	0.520
2020/01/31 10:49:22.9	338.670	-0.230	-0.620	0.500
2020/01/31 10:49:23.0	338.640	-0.230	-0.650	0.480
2020/01/31 10:49:23.1	338.620	-0.220	-0.670	0.450
2020/01/31 10:49:23.2	338.590	-0.220	-0.690	0.430
2020/01/31 10:49:23.3	338.570	-0.210	-0.710	0.420
2020/01/31 10:49:23.4	338.540	-0.200	-0.730	0.400
2020/01/31 10:49:23.5	338.510	-0.190	-0.730	0.390
2020/01/31 10:49:23.6	338.480	-0.180	-0.740	0.370
2020/01/31 10:49:23.7	338.450	-0.170	-0.740	0.370
2020/01/31 10:49:23.8	338.410	-0.160	-0.740	0.360
2020/01/31 10:49:23.9	338.370	-0.140	-0.730	0.360
2020/01/31 10:49:24.0	338.330	-0.130	-0.720	0.360
2020/01/31 10:49:24.1	338.290	-0.120	-0.700	0.360
2020/01/31 10:49:24.2	338.240	-0.100	-0.680	0.370
2020/01/31 10:49:24.3	338.190	-0.090	-0.650	0.380
2020/01/31 10:49:24.4	338.140	-0.080	-0.630	0.390
2020/01/31 10:49:24.5	338.100	-0.060	-0.600	0.410
2020/01/31 10:49:24.6	338.040	-0.050	-0.570	0.430
2020/01/31 10:49:24.7	337.980	-0.040	-0.530	0.450
2020/01/31 10:49:24.8	337.930	-0.030	-0.490	0.480
2020/01/31 10:49:24.9	337.870	-0.020	-0.460	0.510
2020/01/31 10:49:25.0	337.810	-0.000	-0.420	0.540
2020/01/31 10:49:25.1	337.750	0.010	-0.380	0.570
2020/01/31 10:49:25.2	337.690	0.020	-0.340	0.610
2020/01/31 10:49:25.3	337.630	0.030	-0.310	0.640
2020/01/31 10:49:25.4	337.560	0.040	-0.270	0.680
2020/01/31 10:49:25.5	337.500	0.050	-0.240	0.710
2020/01/31 10:49:25.6	337.440	0.060	-0.210	0.750
2020/01/31 10:49:25.7	337.380	0.060	-0.180	0.780
2020/01/31 10:49:25.8	337.320	0.070	-0.160	0.810
2020/01/31 10:49:25.9	337.270	0.080	-0.140	0.840
2020/01/31 10:49:26.0	337.210	0.090	-0.120	0.870
2020/01/31 10:49:26.1	337.150	0.100	-0.100	0.900
2020/01/31 10:49:26.2	337.090	0.110	-0.090	0.930
2020/01/31 10:49:26.3	337.040	0.120	-0.080	0.950
2020/01/31 10:49:26.4	336.980	0.120	-0.070	0.970
2020/01/31 10:49:26.5	336.930	0.130	-0.070	0.990
2020/01/31 10:49:26.6	336.880	0.140	-0.070	1.010
2020/01/31 10:49:26.7	336.820	0.150	-0.070	1.030
2020/01/31 10:49:26.8	336.770	0.160	-0.070	1.040
2020/01/31 10:49:26.9	336.720	0.170	-0.080	1.050
2020/01/31 10:49:27.0	336.670	0.170	-0.090	1.060
2020/01/31 10:49:27.1	336.620	0.180	-0.090	1.070
2020/01/31 10:49:27.2	336.570	0.190	-0.100	1.080
2020/01/31 10:49:27.3	336.520	0.200	-0.110	1.080
2020/01/31 10:49:27.4	336.470	0.200	-0.120	1.090
2020/01/31 10:49:27.5	336.430	0.210	-0.130	1.090
2020/01/31 10:49:27.6	336.390	0.210	-0.140	1.090
2020/01/31 10:49:27.7	336.340	0.210	-0.150	1.080
2020/01/31 10:49:27.8	336.300	0.220	-0.160	1.070
2020/01/31 10:49:27.9	336.250	0.220	-0.170	1.070
2020/01/31 10:49:28.0	336.210	0.220	-0.180	1.050
2020/01/31 10:49:28.1	336.160	0.210	-0.190	1.040
2020/01/31 10:49:28.2	336.120	0.210	-0.190	1.020
2020/01/31 10:49:28.3	336.080	0.210	-0.200	1.010
2020/01/31 10:49:28.4	336.030	0.200	-0.200	0.990
2020/01/31 10:49:28.5	335.990	0.190	-0.210	0.970
2020/01/31 10:49:28.6	335.950	0.180	-0.210	0.950
2020/01/31 10:49:28.7	335.910	0.170	-0.210	0.930
2020/01/31 10:49:28.8	335.870	0.160	-0.210	0.910
2020/01/31 10:49:28.9	335.830	0.150	-0.210	0.890
2020/01/31 10:49:29.0	335.790	0.130	-0.200	0.870
2020/01/31 10:49:29.1	335.750	0.120	-0.200	0.850
2020/01/31 10:49:29.2	335.710	0.110	-0.190	0.840
2020/01/31 10:49:29.3	335.670	0.090	-0.180	0.820
2020/01/31 10:49:29.4	335.630	0.070	-0.170	0.810
2020/01/31 10:49:29.5	335.580	0.060	-0.150	0.800
2020/01/31 10:49:29.6	335.540	0.040	-0.140	0.790
2020/01/31 10:49:29.7	335.500	0.030	-0.130	0.790
2020/01/31 10:49:29.8	335.460	0.010	-0.110	0.790
2020/01/31 10:49:29.9	335.420	-0.010	-0.090	0.790
2020/01/31 10:49:30.0	335.380	-0.020	-0.070	0.800
2020/01/31 10:49:30.1	335.330	-0.030	-0.060	0.810
2020/01/31 10:49:30.2	335.290	-0.050	-0.040	0.820
2020/01/31 10:49:30.3	335.250	-0.060	-0.020	0.840
2020/01/31 10:49:30.4	335.200	-0.070	0.000	0.860
2020/01/31 10:49:30.5	335.150	-0.080	0.020	0.880
2020/01/31 10:49:30.6	335.100	-0.090	0.040	0.910
2020/01/31 10:49:30.7	335.050	-0.100	0.050	0.930
2020/01/31 10:49:30.8	335.010	-0.100	0.070	0.960
2020/01/31 10:49:30.9	334.960	-0.110	0.080	0.990
2020/01/31 10:49:31.0	334.910	-0.110	0.090	1.030
2020/01/31 10:49:31.1	334.850	-0.110	0.100	1.060
2020/01/31 10:49:31.2	334.800	-0.110	0.110	1.100
2020/01/31 10:49:31.3	334.740	-0.110	0.110	1.140
2020/01/31 10:49:31.4	334.680	-0.100	0.110	1.170
2020/01/31 10:49:31.5	334.620	-0.100	0.110	1.210
2020/01/31 10:49:31.6	334.560	-0.090	0.100	1.250
2020/01/31 10:49:31.7	334.500	-0.080	0.100	1.290
2020/01/31 10:49:31.8	334.430	-0.070	0.090	1.320
2020/01/31 10:49:31.9	334.370	-0.060	0.070	1.350
2020/01/31 10:49:32.0	334.300	-0.050	0.060	1.390
2020/01/31 10:49:32.1	334.230	-0.040	0.040	1.410
2020/01/31 10:49:32.2	334.170	-0.030	0.020	1.440
2020/01/31 10:49:32.3	334.100	-0.010	-0.010	1.460
2020/01/31 10:49:32.4	334.030	0.000	-0.040	1.480
2020/01/31 10:49:32.5	333.970	0.020	-0.070	1.500
2020/01/31 10:49:32.6	333.900	0.040	-0.100	1.510
2020/01/31 10:49:32.7	333.830	0.050	-0.130	1.520
2020/01/31 10:49:32.8	333.770	0.070	-0.160	1.530
2020/01/31 10:49:32.9	333.700	0.090	-0.200	1.530
2020/01/31 10:49:33.0	333.640	0.100	-0.230	1.520
2020/01/31 10:49:33.1	333.570	0.120	-0.270	1.510
2020/01/31 10:49:33.2	333.510	0.130	-0.300	1.500
2020/01/31 10:49:33.3	333.450	0.150	-0.330	1.480
2020/01/31 10:49:33.4	333.390	0.160	-0.370	1.460
2020/01/31 10:49:33.5	333.330	0.180	-0.400	1.440
2020/01/31 10:49:33.6	333.270	0.190	-0.430	1.410
2020/01/31 10:49:33.7	333.210	0.200	-0.450	1.390
2020/01/31 10:49:33.8	333.160	0.210	-0.480	1.360
2020/01/31 10:49:33.9	333.100	0.210	-0.500	1.320
2020/01/31 10:49:34.0	333.050	0.220	-0.510	1.290
2020/01/31 10:49:34.1	332.990	0.220	-0.530	1.260
2020/01/31 10:49:34.2	332.940	0.220	-0.540	1.220
2020/01/31 10:49:34.3	332.890	0.210	-0.540	1.190
2020/01/31 10:49:34.4	332.840	0.210	-0.550	1.150
2020/01/31 10:49:34.5	332.800	0.200	-0.550	1.120
2020/01/31 10:49:34.6	332.760	0.190	-0.540	1.080
2020/01/31 10:49:34.7	332.710	0.170	-0.540	1.050
2020/01/31 10:49:34.8	332.670	0.150	-0.530	1.010
2020/01/31 10:49:34.9	332.630	0.130	-0.510	0.970
2020/01/31 10:49:35.0	332.590	0.110	-0.500	0.940
2020/01/31 10:49:35.1	332.560	0.080	-0.490	0.900
2020/01/31 10:49:35.2	332.530	0.060	-0.470	0.860
2020/01/31 10:49:35.3	332.490	0.030	-0.450	0.820
2020/01/31 10:49:35.4	332.460	-0.010	-0.440	0.790
2020/01/31 10:49:35.5	332.440	-0.040	-0.420	0.750
2020/01/31 10:49:35.6	332.410	-0.080	-0.400	0.710
2020/01/31 10:49:35.7	332.380	-0.110	-0.380	0.680
2020/01/31 10:49:35.8	332.350	-0.150	-0.360	0.650
2020/01/31 10:49:35.9	332.320	-0.190	-0.340	0.620
2020/01/31 10:49:36.0	332.290	-0.230	-0.320	0.590
2020/01/31 10:49:36.1	332.260	-0.270	-0.300	0.570
2020/01/31 10:49:36.2	332.230	-0.310	-0.280	0.550
2020/01/31 10:49:36.3	332.200	-0.350	-0.260	0.530
2020/01/31 10:49:36.4	332.160	-0.390	-0.230	0.510
2020/01/31 10:49:36.5	332.120	-0.430	-0.210	0.510
2020/01/31 10:49:36.6	332.070	-0.460	-0.190	0.500
2020/01/31 10:49:36.7	332.030	-0.500	-0.170	0.500
2020/01/31 10:49:36.8	331.980	-0.530	-0.150	0.500
2020/01/31 10:49:36.9	331.930	-0.570	-0.120	0.510
2020/01/31 10:49:37.0	331.880	-0.600	-0.100	0.520
2020/01/31 10:49:37.1	331.820	-0.620	-0.080	0.540
2020/01/31 10:49:37.2	331.760	-0.650	-0.050	0.560
2020/01/31 10:49:37.3	331.700	-0.670	-0.030	0.590
2020/01/31 10:49:37.4	331.640	-0.680	-0.010	0.610
2020/01/31 10:49:37.5	331.560	-0.700	0.000	0.650
2020/01/31 10:49:37.6	331.490	-0.710	0.020	0.680
2020/01/31 10:49:37.7	331.420	-0.720	0.030	0.710
2020/01/31 10:49:37.8	331.340	-0.720	0.040	0.750
2020/01/31 10:49:37.9	331.270	-0.720	0.050	0.780
2020/01/31 10:49:38.0	331.190	-0.720	0.050	0.820
2020/01/31 10:49:38.1	331.120	-0.710	0.050	0.850
2020/01/31 10:49:38.2	331.040	-0.700	0.040	0.890
2020/01/31 10:49:38.3	330.970	-0.680	0.030	0.920
2020/01/31 10:49:38.4	330.890	-0.660	0.020	0.950
2020/01/31 10:49:38.5	330.810	-0.640	0.000	0.980
2020/01/31 10:49:38.6	330.740	-0.610	-0.020	1.010
2020/01/31 10:49:38.7	330.670	-0.580	-0.040	1.030
2020/01/31 10:49:38.8	330.600	-0.550	-0.070	1.060
2020/01/31 10:49:38.9	330.540	-0.510	-0.100	1.080
2020/01/31 10:49:39.0	330.480	-0.470	-0.130	1.100
2020/01/31 10:49:39.1	330.420	-0.420	-0.170	1.120
2020/01/31 10:49:39.2	330.360	-0.380	-0.210	1.140
2020/01/31 10:49:39.3	330.310	-0.330	-0.250	1.160
2020/01/31 10:49:39.4	330.260	-0.280	-0.290	1.170
2020/01/31 10:49:39.5	330.210	-0.220	-0.340	1.190
2020/01/31 10:49:39.6	330.170	-0.160	-0.380	1.200
2020/01/31 10:49:39.7	330.140	-0.110	-0.420	1.210
2020/01/31 10:49:39.8	330.110	-0.050	-0.470	1.220
2020/01/31 10:49:39.9	330.080	0.010	-0.510	1.230
2020/01/31 10:49:40.0	330.050	0.070	-0.550	1.230
2020/01/31 10:49:40.1	330.030	0.130	-0.600	1.240
2020/01/31 10:49:40.2	330.010	0.190	-0.640	1.240
2020/01/31 10:49:40.3	330.000	0.250	-0.670	1.250
2020/01/31 10:49:40.4	329.990	0.310	-0.710	1.250
2020/01/31 10:49:40.5	329.980	0.360	-0.740	1.250
2020/01/31 10:49:40.6	329.970	0.410	-0.760	1.250
2020/01/31 10:49:40.7	329.970	0.460	-0.790	1.260
2020/01/31 10:49:40.8	329.960	0.510	-0.800	1.260
2020/01/31 10:49:40.9	329.960	0.550	-0.820	1.270
2020/01/31 10:49:41.0	329.960	0.590	-0.820	1.270
2020/01/31 10:49:41.1	329.950	0.630	-0.830	1.280
2020/01/31 10:49:41.2	329.950	0.660	-0.820	1.290
2020/01/31 10:49:41.3	329.940	0.680	-0.810	1.310
2020/01/31 10:49:41.4	329.930	0.700	-0.800	1.320
2020/01/31 10:49:41.5	329.920	0.720	-0.780	1.340
2020/01/31 10:49:41.6	329.900	0.730	-0.750	1.360
2020/01/31 10:49:41.7	329.880	0.730	-0.710	1.380
2020/01/31 10:49:41.8	329.860	0.730	-0.670	1.400
2020/01/31 10:49:41.9	329.840	0.720	-0.630	1.420
2020/01/31 10:49:42.0	329.810	0.710	-0.580	1.450
2020/01/31 10:49:42.1	329.780	0.700	-0.520	1.470
2020/01/31 10:49:42.2	329.740	0.680	-0.460	1.500
2020/01/31 10:49:42.3	329.700	0.650	-0.400	1.530
2020/01/31 10:49:42.4	329.660	0.630	-0.340	1.550
2020/01/31 10:49:42.5	329.630	0.600	-0.270	1.580
2020/01/31 10:49:42.6	329.580	0.560	-0.210	1.610
2020/01/31 10:49:42.7	329.540	0.530	-0.140	1.640
2020/01/31 10:49:42.8	329.490	0.490	-0.070	1.670
2020/01/31 10:49:42.9	329.450	0.450	-0.010	1.690
2020/01/31 10:49:43.0	329.400	0.400	0.050	1.720
2020/01/31 10:49:43.1	329.350	0.360	0.110	1.740
2020/01/31 10:49:43.2	329.300	0.320	0.170	1.760
2020/01/31 10:49:43.3	329.260	0.280	0.220	1.770
2020/01/31 10:49:43.4	329.210	0.230	0.270	1.780
2020/01/31 10:49:43.5	329.170	0.190	0.310	1.790
2020/01/31 10:49:43.6	329.120	0.150	0.350	1.800
2020/01/31 10:49:43.7	329.080	0.110	0.380	1.800
2020/01/31 10:49:43.8	329.030	0.070	0.410	1.800
2020/01/31 10:49:43.9	328.980	0.040	0.430	1.790
2020/01/31 10:49:44.0	328.930	0.000	0.450	1.780
2020/01/31 10:49:44.1	328.890	-0.030	0.460	1.760
2020/01/31 10:49:44.2	328.840	-0.060	0.470	1.750
2020/01/31 10:49:44.3	328.790	-0.080	0.470	1.720
2020/01/31 10:49:44.4	328.740	-0.100	0.470	1.700
2020/01/31 10:49:44.5	328.700	-0.120	0.470	1.670
2020/01/31 10:49:44.6	328.640	-0.140	0.460	1.640
2020/01/31 10:49:44.7	328.590	-0.150	0.440	1.610
2020/01/31 10:49:44.8	328.540	-0.160	0.420	1.580
2020/01/31 10:49:44.9	328.490	-0.170	0.400	1.550
2020/01/31 10:49:45.0	328.440	-0.180	0.380	1.510
2020/01/31 10:49:45.1	328.380	-0.180	0.350	1.470
2020/01/31 10:49:45.2	328.330	-0.180	0.320	1.440
2020/01/31 10:49:45.3	328.270	-0.170	0.280	1.400
2020/01/31 10:49:45.4	328.220	-0.170	0.250	1.360
2020/01/31 10:49:45.5	328.170	-0.160	0.210	1.320
2020/01/31 10:49:45.6	328.110	-0.150	0.170	1.280
2020/01/31 10:49:45.7	328.050	-0.140	0.130	1.240
2020/01/31 10:49:45.8	328.000	-0.130	0.080	1.190
2020/01/31 10:49:45.9	327.940	-0.120	0.040	1.150
2020/01/31 10:49:46.0	327.880	-0.110	-0.000	1.110
2020/01/31 10:49:46.1	327.820	-0.090	-0.050	1.060
2020/01/31 10:49:46.2	327.770	-0.080	-0.090	1.020
2020/01/31 10:49:46.3	327.710	-0.070	-0.140	0.970
2020/01/31 10:49:46.4	327.650	-0.050	-0.180	0.930
2020/01/31 10:49:46.5	327.590	-0.040	-0.230	0.880
2020/01/31 10:49:46.6	327.540	-0.030	-0.280	0.830
2020/01/31 10:49:46.7	327.480	-0.010	-0.320	0.790
2020/01/31 10:49:46.8	327.430	-0.000	-0.370	0.740
2020/01/31 10:49:46.9	327.380	0.010	-0.410	0.700
2020/01/31 10:49:47.0	327.320	0.020	-0.450	0.650
2020/01/31 10:49:47.1	327.280	0.020	-0.500	0.610
2020/01/31 10:49:47.2	327.230	0.030	-0.540	0.570
2020/01/31 10:49:47.3	327.180	0.040	-0.570	0.540
2020/01/31 10:49:47.4	327.130	0.040	-0.610	0.500
2020/01/31 10:49:47.5	327.080	0.040	-0.650	0.460
2020/01/31 10:49:47.6	327.040	0.040	-0.680	0.430
2020/01/31 10:49:47.7	326.990	0.040	-0.710	0.400
2020/01/31 10:49:47.8	326.950	0.040	-0.740	0.380
2020/01/31 10:49:47.9	326.910	0.040	-0.760	0.350
2020/01/31 10:49:48.0	326.870	0.030	-0.780	0.340
2020/01/31 10:49:48.1	326.830	0.030	-0.790	0.320
2020/01/31 10:49:48.2	326.790	0.020	-0.800	0.310
2020/01/31 10:49:48.3	326.750	0.010	-0.800	0.300
2020/01/31 10:49:48.4	326.710	-0.000	-0.810	0.290
2020/01/31 10:49:48.5	326.670	-0.010	-0.800	0.290
2020/01/31 10:49:48.6	326.640	-0.030	-0.790	0.290
2020/01/31 10:49:48.7	326.600	-0.040	-0.780	0.300
2020/01/31 10:49:48.8	326.560	-0.060	-0.760	0.300
2020/01/31 10:49:48.9	326.530	-0.080	-0.740	0.310
2020/01/31 10:49:49.0	326.500	-0.100	-0.720	0.330
2020/01/31 10:49:49.1	326.460	-0.120	-0.690	0.340
2020/01/31 10:49:49.2	326.430	-0.140	-0.660	0.350
2020/01/31 10:49:49.3	326.400	-0.160	-0.630	0.370
2020/01/31 10:49:49.4	326.370	-0.190	-0.600	0.390
2020/01/31 10:49:49.5	326.350	-0.210	-0.560	0.410
2020/01/31 10:49:49.6	326.320	-0.240	-0.520	0.430
2020/01/31 10:49:49.7	326.290	-0.260	-0.490	0.450
2020/01/31 10:49:49.8	326.260	-0.290	-0.450	0.470
2020/01/31 10:49:49.9	326.230	-0.310	-0.410	0.490
2020/01/31 10:49:50.0	326.200	-0.340	-0.370	0.520
2020/01/31 10:49:50.1	326.170	-0.360	-0.320	0.540
2020/01/31 10:49:50.2	326.140	-0.390	-0.280	0.570
2020/01/31 10:49:50.3	326.110	-0.410	-0.240	0.590
2020/01/31 10:49:50.4	326.080	-0.440	-0.200	0.620
2020/01/31 10:49:50.5	326.040	-0.460	-0.160	0.650
2020/01/31 10:49:50.6	326.010	-0.480	-0.120	0.680
2020/01/31 10:49:50.7	325.970	-0.510	-0.080	0.710
2020/01/31 10:49:50.8	325.940	-0.530	-0.050	0.740
2020/01/31 10:49:50.9	325.900	-0.550	-0.010	0.770
2020/01/31 10:49:51.0	325.870	-0.560	0.020	0.800
2020/01/31 10:49:51.1	325.830	-0.580	0.060	0.830
2020/01/31 10:49:51.2	325.790	-0.590	0.090	0.860
2020/01/31 10:49:51.3	325.760	-0.600	0.110	0.890
2020/01/31 10:49:51.4	325.720	-0.610	0.140	0.910
2020/01/31 10:49:51.5	325.690	-0.620	0.160	0.940
2020/01/31 10:49:51.6	325.650	-0.630	0.180	0.960
2020/01/31 10:49:51.7	325.610	-0.630	0.200	0.990
2020/01/31 10:49:51.8	325.580	-0.630	0.210	1.010
2020/01/31 10:49:51.9	325.540	-0.620	0.220	1.030
2020/01/31 10:49:52.0	325.500	-0.620	0.230	1.060
2020/01/31 10:49:52.1	325.470	-0.610	0.230	1.080
2020/01/31 10:49:52.2	325.430	-0.590	0.230	1.090
2020/01/31 10:49:52.3	325.390	-0.580	0.230	1.110
2020/01/31 10:49:52.4	325.350	-0.560	0.220	1.130
2020/01/31 10:49:52.5	325.310	-0.540	0.210	1.150
2020/01/31 10:49:52.6	325.270	-0.510	0.200	1.170
2020/01/31 10:49:52.7	325.230	-0.480	0.180	1.180
2020/01/31 10:49:52.8	325.190	-0.450	0.160	1.200
2020/01/31 10:49:52.9	325.150	-0.420	0.140	1.220
2020/01/31 10:49:53.0	325.110	-0.380	0.120	1.230
2020/01/31 10:49:53.1	325.070	-0.340	0.090	1.250
2020/01/31 10:49:53.2	325.040	-0.300	0.060	1.260
2020/01/31 10:49:53.3	325.000	-0.260	0.030	1.270
2020/01/31 10:49:53.4	324.970	-0.220	-0.010	1.280
2020/01/31 10:49:53.5	324.940	-0.170	-0.040	1.290
2020/01/31 10:49:53.6	324.910	-0.120	-0.080	1.300
2020/01/31 10:49:53.7	324.880	-0.070	-0.120	1.300
2020/01/31 10:49:53.8	324.850	-0.020	-0.160	1.310
2020/01/31 10:49:53.9	324.820	0.030	-0.210	1.310
2020/01/31 10:49:54.0	324.800	0.080	-0.250	1.310
2020/01/31 10:49:54.1	324.770	0.130	-0.300	1.300
2020/01/31 10:49:54.2	324.750	0.180	-0.340	1.300
2020/01/31 10:49:54.3	324.730	0.230	-0.380	1.300
2020/01/31 10:49:54.4	324.710	0.280	-0.420	1.290
2020/01/31 10:49:54.5	324.690	0.320	-0.460	1.290
2020/01/31 10:49:54.6	324.660	0.370	-0.490	1.280
2020/01/31 10:49:54.7	324.640	0.410	-0.530	1.270
2020/01/31 10:49:54.8	324.620	0.450	-0.550	1.270
2020/01/31 10:49:54.9	324.590	0.490	-0.580	1.260
2020/01/31 10:49:55.0	324.570	0.520	-0.600	1.260
2020/01/31 10:49:55.1	324.540	0.560	-0.610	1.250
2020/01/31 10:49:55.2	324.510	0.590	-0.620	1.250
2020/01/31 10:49:55.3	324.480	0.610	-0.630	1.250
2020/01/31 10:49:55.4	324.440	0.630	-0.630	1.250
2020/01/31 10:49:55.5	324.410	0.650	-0.620	1.260
2020/01/31 10:49:55.6	324.370	0.670	-0.610	1.270
2020/01/31 10:49:55.7	324.330	0.680	-0.590	1.270
2020/01/31 10:49:55.8	324.280	0.690	-0.570	1.280
2020/01/31 10:49:55.9	324.230	0.690	-0.540	1.280
2020/01/31 10:49:56.0	324.180	0.690	-0.510	1.290
2020/01/31 10:49:56.1	324.130	0.690	-0.480	1.300
2020/01/31 10:49:56.2	324.070	0.680	-0.440	1.300
2020/01/31 10:49:56.3	324.010	0.670	-0.410	1.310
2020/01/31 10:49:56.4	323.960	0.660	-0.370	1.310
2020/01/31 10:49:56.5	323.910	0.640	-0.330	1.310
2020/01/31 10:49:56.6	323.850	0.620	-0.290	1.310
2020/01/31 10:49:56.7	323.790	0.600	-0.250	1.310
2020/01/31 10:49:56.8	323.730	0.570	-0.220	1.300
2020/01/31 10:49:56.9	323.670	0.540	-0.180	1.300
2020/01/31 10:49:57.0	323.610	0.510	-0.150	1.290
2020/01/31 10:49:57.1	323.550	0.480	-0.120	1.270
2020/01/31 10:49:57.2	323.490	0.450	-0.090	1.260
2020/01/31 10:49:57.3	323.430	0.420	-0.070	1.240
2020/01/31 10:49:57.4	323.370	0.380	-0.050	1.220
2020/01/31 10:49:57.5	323.320	0.350	-0.030	1.200
2020/01/31 10:49:57.6	323.260	0.310	-0.020	1.170
2020/01/31 10:49:57.7	323.200	0.270	-0.020	1.150
2020/01/31 10:49:57.8	323.130	0.240	-0.010	1.110
2020/01/31 10:49:57.9	323.070	0.200	-0.010	1.080
2020/01/31 10:49:58.0	323.010	0.170	-0.020	1.040
2020/01/31 10:49:58.1	322.960	0.130	-0.030	1.000
2020/01/31 10:49:58.2	322.900	0.100	-0.050	0.960
2020/01/31 10:49:58.3	322.850	0.060	-0.070	0.920
2020/01/31 10:49:58.4	322.790	0.030	-0.090	0.880
2020/01/31 10:49:58.5	322.750	0.000	-0.120	0.830
2020/01/31 10:49:58.6	322.710	-0.030	-0.150	0.780
2020/01/31 10:49:58.7	322.660	-0.050	-0.190	0.730
2020/01/31 10:49:58.8	322.620	-0.080	-0.230	0.680
2020/01/31 10:49:58.9	322.580	-0.100	-0.270	0.630
2020/01/31 10:49:59.0	322.550	-0.120	-0.310	0.570
2020/01/31 10:49:59.1	322.510	-0.140	-0.360	0.520
2020/01/31 10:49:59.2	322.480	-0.160	-0.410	0.470
2020/01/31 10:49:59.3	322.460	-0.180	-0.450	0.420
2020/01/31 10:49:59.4	322.430	-0.190	-0.500	0.370
2020/01/31 10:49:59.5	322.410	-0.200	-0.550	0.320
2020/01/31 10:49:59.6	322.390	-0.210	-0.590	0.270
2020/01/31 10:49:59.7	322.380	-0.220	-0.640	0.220
2020/01/31 10:49:59.8	322.360	-0.230	-0.680	0.180
2020/01/31 10:49:59.9	322.350	-0.240	-0.710	0.130
2020/01/31 10:50:00.0	322.340	-0.240	-0.750	0.090
2020/01/31 10:50:00.1	322.320	-0.240	-0.780	0.060
2020/01/31 10:50:00.2	322.310	-0.250	-0.800	0.020
2020/01/31 10:50:00.3	322.300	-0.250	-0.820	-0.010
2020/01/31 10:50:00.4	322.290	-0.250	-0.840	-0.030
2020/01/31 10:50:00.5	322.290	-0.250	-0.840	-0.060
2020/01/31 10:50:00.6	322.270	-0.250	-0.840	-0.070
2020/01/31 10:50:00.7	322.260	-0.250	-0.840	-0.080
2020/01/31 10:50:00.8	322.250	-0.250	-0.830	-0.090
2020/01/31 10:50:00.9	322.230	-0.250	-0.810	-0.090
2020/01/31 10:50:01.0	322.210	-0.250	-0.790	-0.080
2020/01/31 10:50:01.1	322.190	-0.250	-0.760	-0.080
2020/01/31 10:50:01.2	322.170	-0.250	-0.730	-0.060
2020/01/31 10:50:01.3	322.150	-0.250	-0.690	-0.040
2020/01/31 10:50:01.4	322.120	-0.250	-0.640	-0.020
2020/01/31 10:50:01.5	322.090	-0.250	-0.600	0.010
2020/01/31 10:50:01.6	322.050	-0.250	-0.540	0.040
2020/01/31 10:50:01.7	322.020	-0.250	-0.490	0.080
2020/01/31 10:50:01.8	321.980	-0.250	-0.430	0.120
2020/01/31 10:50:01.9	321.940	-0.250	-0.370	0.160
2020/01/31 10:50:02.0	321.900	-0.250	-0.310	0.200
2020/01/31 10:50:02.1	321.860	-0.260	-0.240	0.240
2020/01/31 10:50:02.2	321.810	-0.260	-0.180	0.290
2020/01/31 10:50:02.3	321.760	-0.260	-0.110	0.340
2020/01/31 10:50:02.4	321.710	-0.260	-0.040	0.390
2020/01/31 10:50:02.5	321.660	-0.260	0.020	0.450
2020/01/31 10:50:02.6	321.600	-0.260	0.090	0.500
2020/01/31 10:50:02.7	321.540	-0.270	0.150	0.560
2020/01/31 10:50:02.8	321.480	-0.270	0.220	0.610
2020/01/31 10:50:02.9	321.420	-0.270	0.280	0.670
2020/01/31 10:50:03.0	321.350	-0.270	0.340	0.730
2020/01/31 10:50:03.1	321.280	-0.270	0.390	0.790
2020/01/31 10:50:03.2	321.210	-0.270	0.440	0.850
2020/01/31 10:50:03.3	321.140	-0.270	0.490	0.910
2020/01/31 10:50:03.4	321.070	-0.260	0.540	0.960
2020/01/31 10:50:03.5	320.990	-0.260	0.580	1.020
2020/01/31 10:50:03.6	320.910	-0.260	0.610	1.080
2020/01/31 10:50:03.7	320.840	-0.250	0.640	1.130
2020/01/31 10:50:03.8	320.770	-0.240	0.660	1.190
2020/01/31 10:50:03.9	320.690	-0.240	0.670	1.240
2020/01/31 10:50:04.0	320.620	-0.230	0.680	1.280
2020/01/31 10:50:04.1	320.550	-0.220	0.690	1.330
2020/01/31 10:50:04.2	320.470	-0.210	0.680	1.370
2020/01/31 10:50:04.3	320.400	-0.200	0.670	1.410
2020/01/31 10:50:04.4	320.340	-0.180	0.650	1.440
2020/01/31 10:50:04.5	320.270	-0.170	0.630	1.470
2020/01/31 10:50:04.6	320.200	-0.160	0.600	1.490
2020/01/31 10:50:04.7	320.140	-0.140	0.570	1.510
2020/01/31 10:50:04.8	320.070	-0.130	0.530	1.530
2020/01/31 10:50:04.9	320.010	-0.110	0.480	1.540
2020/01/31 10:50:05.0	319.950	-0.090	0.440	1.540
2020/01/31 10:50:05.1	319.890	-0.070	0.380	1.540
2020/01/31 10:50:05.2	319.840	-0.060	0.330	1.530
2020/01/31 10:50:05.3	319.780	-0.040	0.270	1.520
2020/01/31 10:50:05.4	319.730	-0.020	0.210	1.510
2020/01/31 10:50:05.5	319.690	-0.010	0.150	1.490
2020/01/31 10:50:05.6	319.640	0.010	0.080	1.460
2020/01/31 10:50:05.7	319.600	0.030	0.020	1.430
2020/01/31 10:50:05.8	319.550	0.040	-0.050	1.400
2020/01/31 10:50:05.9	319.520	0.060	-0.110	1.370
2020/01/31 10:50:06.0	319.480	0.070	-0.180	1.330
2020/01/31 10:50:06.1	319.450	0.080	-0.240	1.300
2020/01/31 10:50:06.2	319.410	0.100	-0.310	1.260
2020/01/31 10:50:06.3	319.380	0.110	-0.370	1.220
2020/01/31 10:50:06.4	319.360	0.120	-0.420	1.170
2020/01/31 10:50:06.5	319.320	0.120	-0.480	1.130
2020/01/31 10:50:06.6	319.290	0.130	-0.530	1.090
2020/01/31 10:50:06.7	319.270	0.140	-0.580	1.040
2020/01/31 10:50:06.8	319.250	0.140	-0.620	1.000
2020/01/31 10:50:06.9	319.230	0.140	-0.660	0.960
2020/01/31 10:50:07.0	319.210	0.140	-0.690	0.920
2020/01/31 10:50:07.1	319.190	0.140	-0.720	0.880
2020/01/31 10:50:07.2	319.170	0.140	-0.750	0.840
2020/01/31 10:50:07.3	319.150	0.140	-0.760	0.810
2020/01/31 10:50:07.4	319.140	0.140	-0.780	0.770
2020/01/31 10:50:07.5	319.110	0.130	-0.780	0.740
2020/01/31 10:50:07.6	319.100	0.130	-0.790	0.720
2020/01/31 10:50:07.7	319.080	0.130	-0.780	0.700
2020/01/31 10:50:07.8	319.060	0.120	-0.780	0.680
2020/01/31 10:50:07.9	319.040	0.120	-0.770	0.660
2020/01/31 10:50:08.0	319.030	0.110	-0.750	0.650
2020/01/31 10:50:08.1	319.010	0.110	-0.730	0.640
2020/01/31 10:50:08.2	318.990	0.110	-0.710	0.640
2020/01/31 10:50:08.3	318.970	0.100	-0.690	0.640
2020/01/31 10:50:08.4	318.950	0.100	-0.660	0.650
2020/01/31 10:50:08.5	318.920	0.100	-0.630	0.660
2020/01/31 10:50:08.6	318.900	0.100	-0.600	0.670
2020/01/31 10:50:08.7	318.870	0.100	-0.570	0.690
2020/01/31 10:50:08.8	318.850	0.100	-0.540	0.710
2020/01/31 10:50:08.9	318.820	0.100	-0.500	0.740
2020/01/31 10:50:09.0	318.790	0.100	-0.470	0.770
2020/01/31 10:50:09.1	318.760	0.100	-0.440	0.800
2020/01/31 10:50:09.2	318.720	0.110	-0.400	0.830
2020/01/31 10:50:09.3	318.690	0.110	-0.370	0.870
2020/01/31 10:50:09.4	318.650	0.120	-0.340	0.910
2020/01/31 10:50:09.5	318.600	0.120	-0.310	0.950
2020/01/31 10:50:09.6	318.550	0.130	-0.290	0.990
2020/01/31 10:50:09.7	318.510	0.130	-0.260	1.040
2020/01/31 10:50:09.8	318.460	0.140	-0.240	1.080
2020/01/31 10:50:09.9	318.400	0.140	-0.220	1.120
2020/01/31 10:50:10.0	318.350	0.150	-0.200	1.170
2020/01/31 10:50:10.1	318.290	0.150	-0.190	1.210
2020/01/31 10:50:10.2	318.230	0.160	-0.180	1.250
2020/01/31 10:50:10.3	318.170	0.170	-0.170	1.300
2020/01/31 10:50:10.4	318.100	0.170	-0.170	1.340
2020/01/31 10:50:10.5	318.050	0.180	-0.160	1.370
2020/01/31 10:50:10.6	317.990	0.180	-0.170	1.410
2020/01/31 10:50:10.7	317.920	0.180	-0.170	1.450
2020/01/31 10:50:10.8	317.850	0.190	-0.190	1.480
2020/01/31 10:50:10.9	317.790	0.190	-0.200	1.510
2020/01/31 10:50:11.0	317.720	0.190	-0.220	1.540
2020/01/31 10:50:11.1	317.660	0.190	-0.240	1.560
2020/01/31 10:50:11.2	317.600	0.190	-0.260	1.580
2020/01/31 10:50:11.3	317.530	0.200	-0.290	1.600
2020/01/31 10:50:11.4	317.470	0.200	-0.320	1.610
2020/01/31 10:50:11.5	317.410	0.190	-0.350	1.620
2020/01/31 10:50:11.6	317.350	0.190	-0.390	1.630
2020/01/31 10:50:11.7	317.300	0.190	-0.420	1.630
2020/01/31 10:50:11.8	317.240	0.190	-0.460	1.630
2020/01/31 10:50:11.9	317.190	0.190	-0.500	1.620
2020/01/31 10:50:12.0	317.130	0.180	-0.540	1.620
2020/01/31 10:50:12.1	317.080	0.180	-0.570	1.610
2020/01/31 10:50:12.2	317.030	0.170	-0.610	1.600
2020/01/31 10:50:12.3	316.980	0.170	-0.640	1.580
2020/01/31 10:50:12.4	316.940	0.160	-0.670	1.570
2020/01/31 10:50:12.5	316.900	0.160	-0.700	1.550
2020/01/31 10:50:12.6	316.850	0.150	-0.730	1.540
2020/01/31 10:50:12.7	316.800	0.140	-0.750	1.530
2020/01/31 10:50:12.8	316.750	0.130	-0.770	1.520
2020/01/31 10:50:12.9	316.710	0.130	-0.780	1.500
2020/01/31 10:50:13.0	316.660	0.120	-0.790	1.490
2020/01/31 10:50:13.1	316.620	0.110	-0.800	1.480
2020/01/31 10:50:13.2	316.570	0.100	-0.800	1.480
2020/01/31 10:50:13.3	316.530	0.090	-0.790	1.470
2020/01/31 10:50:13.4	316.480	0.080	-0.780	1.460
2020/01/31 10:50:13.5	316.450	0.070	-0.760	1.460
2020/01/31 10:50:13.6	316.400	0.050	-0.740	1.460
2020/01/31 10:50:13.7	316.360	0.040	-0.710	1.450
2020/01/31 10:50:13.8	316.310	0.030	-0.680	1.450
2020/01/31 10:50:13.9	316.270	0.020	-0.650	1.450
2020/01/31 10:50:14.0	316.230	0.010	-0.610	1.450
2020/01/31 10:50:14.1	316.180	-0.000	-0.570	1.450
2020/01/31 10:50:14.2	316.140	-0.010	-0.520	1.450
2020/01/31 10:50:14.3	316.100	-0.020	-0.480	1.440
2020/01/31 10:50:14.4	316.060	-0.030	-0.430	1.440
2020/01/31 10:50:14.5	316.030	-0.040	-0.380	1.440
2020/01/31 10:50:14.6	315.990	-0.060	-0.330	1.440
2020/01/31 10:50:14.7	315.950	-0.070	-0.280	1.430
2020/01/31 10:50:14.8	315.910	-0.080	-0.230	1.430
2020/01/31 10:50:14.9	315.880	-0.090	-0.180	1.430
2020/01/31 10:50:15.0	315.840	-0.100	-0.130	1.420
2020/01/31 10:50:15.1	315.800	-0.110	-0.080	1.410
2020/01/31 10:50:15.2	315.770	-0.110	-0.030	1.410
2020/01/31 10:50:15.3	315.730	-0.120	0.010	1.400
2020/01/31 10:50:15.4	315.690	-0.130	0.060	1.400
2020/01/31 10:50:15.5	315.670	-0.140	0.100	1.390
2020/01/31 10:50:15.6	315.640	-0.150	0.140	1.380
2020/01/31 10:50:15.7	315.600	-0.160	0.180	1.380
2020/01/31 10:50:15.8	315.560	-0.160	0.210	1.370
2020/01/31 10:50:15.9	315.520	-0.170	0.250	1.360
2020/01/31 10:50:16.0	315.480	-0.180	0.280	1.350
2020/01/31 10:50:16.1	315.440	-0.180	0.310	1.350
2020/01/31 10:50:16.2	315.400	-0.190	0.340	1.340
2020/01/31 10:50:16.3	315.350	-0.190	0.360	1.330
2020/01/31 10:50:16.4	315.310	-0.200	0.390	1.320
2020/01/31 10:50:16.5	315.270	-0.200	0.410	1.310
2020/01/31 10:50:16.6	315.220	-0.200	0.430	1.300
2020/01/31 10:50:16.7	315.180	-0.210	0.450	1.300
2020/01/31 10:50:16.8	315.130	-0.210	0.470	1.290
2020/01/31 10:50:16.9	315.080	-0.210	0.480	1.280
2020/01/31 10:50:17.0	315.030	-0.210	0.500	1.270
2020/01/31 10:50:17.1	314.980	-0.210	0.510	1.270
2020/01/31 10:50:17.2	314.930	-0.210	0.520	1.260
2020/01/31 10:50:17.3	314.870	-0.210	0.530	1.250
2020/01/31 10:50:17.4	314.820	-0.210	0.530	1.240
2020/01/31 10:50:17.5	314.760	-0.210	0.530	1.230
2020/01/31 10:50:17.6	314.700	-0.210	0.540	1.220
2020/01/31 10:50:17.7	314.640	-0.210	0.530	1.200
2020/01/31 10:50:17.8	314.590	-0.210	0.530	1.190
2020/01/31 10:50:17.9	314.530	-0.210	0.520	1.170
2020/01/31 10:50:18.0	314.470	-0.210	0.510	1.150
2020/01/31 10:50:18.1	314.420	-0.210	0.500	1.130
2020/01/31 10:50:18.2	314.360	-0.200	0.480	1.100
2020/01/31 10:50:18.3	314.300	-0.200	0.460	1.080
2020/01/31 10:50:18.4	314.250	-0.200	0.440	1.050
2020/01/31 10:50:18.5	314.190	-0.200	0.420	1.020
2020/01/31 10:50:18.6	314.130	-0.200	0.400	0.980
2020/01/31 10:50:18.7	314.080	-0.200	0.370	0.950
2020/01/31 10:50:18.8	314.020	-0.190	0.340	0.920
2020/01/31 10:50:18.9	313.970	-0.190	0.310	0.880
2020/01/31 10:50:19.0	313.920	-0.190	0.270	0.850
2020/01/31 10:50:19.1	313.870	-0.180	0.240	0.810
2020/01/31 10:50:19.2	313.820	-0.180	0.210	0.770
2020/01/31 10:50:19.3	313.770	-0.170	0.170	0.740
2020/01/31 10:50:19.4	313.730	-0.160	0.130	0.710
2020/01/31 10:50:19.5	313.670	-0.150	0.090	0.670
2020/01/31 10:50:19.6	313.620	-0.140	0.060	0.640
2020/01/31 10:50:19.7	313.570	-0.130	0.020	0.610
2020/01/31 10:50:19.8	313.530	-0.120	-0.020	0.590
2020/01/31 10:50:19.9	313.480	-0.110	-0.050	0.570
2020/01/31 10:50:20.0	313.440	-0.100	-0.090	0.550
2020/01/31 10:50:20.1	313.390	-0.080	-0.120	0.530
2020/01/31 10:50:20.2	313.350	-0.070	-0.160	0.520
2020/01/31 10:50:20.3	313.300	-0.050	-0.190	0.510
2020/01/31 10:50:20.4	313.260	-0.040	-0.220	0.510
2020/01/31 10:50:20.5	313.210	-0.020	-0.250	0.510
2020/01/31 10:50:20.6	313.160	-0.000	-0.280	0.510
2020/01/31 10:50:20.7	313.120	0.020	-0.300	0.520
2020/01/31 10:50:20.8	313.070	0.030	-0.330	0.530
2020/01/31 10:50:20.9	313.030	0.050	-0.350	0.540
2020/01/31 10:50:21.0	312.990	0.070	-0.370	0.550
2020/01/31 10:50:21.1	312.950	0.090	-0.400	0.570
2020/01/31 10:50:21.2	312.910	0.110	-0.420	0.580
2020/01/31 10:50:21.3	312.870	0.130	-0.440	0.600
2020/01/31 10:50:21.4	312.830	0.140	-0.470	0.620
2020/01/31 10:50:21.5	312.780	0.160	-0.490	0.640
2020/01/31 10:50:21.6	312.750	0.180	-0.510	0.660
2020/01/31 10:50:21.7	312.710	0.190	-0.540	0.690
2020/01/31 10:50:21.8	312.680	0.210	-0.570	0.710
2020/01/31 10:50:21.9	312.650	0.220	-0.590	0.730
2020/01/31 10:50:22.0	312.620	0.240	-0.620	0.750
2020/01/31 10:50:22.1	312.590	0.250	-0.650	0.770
2020/01/31 10:50:22.2	312.560	0.260	-0.680	0.800
2020/01/31 10:50:22.3	312.530	0.270	-0.700	0.820
2020/01/31 10:50:22.4	312.500	0.280	-0.730	0.840
2020/01/31 10:50:22.5	312.470	0.280	-0.760	0.870
2020/01/31 10:50:22.6	312.440	0.290	-0.790	0.890
2020/01/31 10:50:22.7	312.410	0.290	-0.820	0.910
2020/01/31 10:50:22.8	312.380	0.300	-0.850	0.940
2020/01/31 10:50:22.9	312.360	0.300	-0.870	0.960
2020/01/31 10:50:23.0	312.330	0.300	-0.900	0.990
2020/01/31 10:50:23.1	312.300	0.300	-0.920	1.010
2020/01/31 10:50:23.2	312.270	0.300	-0.950	1.040
2020/01/31 10:50:23.3	312.250	0.300	-0.970	1.070
2020/01/31 10:50:23.4	312.220	0.300	-0.990	1.090
2020/01/31 10:50:23.5	312.160	0.290	-1.010	1.120
2020/01/31 10:50:23.6	312.130	0.290	-1.020	1.150
2020/01/31 10:50:23.7	312.100	0.280	-1.040	1.180
2020/01/31 10:50:23.8	312.070	0.280	-1.050	1.210
2020/01/31 10:50:23.9	312.040	0.270	-1.060	1.240
2020/01/31 10:50:24.0	312.010	0.270	-1.070	1.270
2020/01/31 10:50:24.1	311.980	0.260	-1.070	1.300
2020/01/31 10:50:24.2	311.950	0.250	-1.070	1.340
2020/01/31 10:50:24.3	311.910	0.240	-1.070	1.370
2020/01/31 10:50:24.4	311.880	0.240	-1.060	1.400
2020/01/31 10:50:24.5	311.840	0.230	-1.050	1.440
2020/01/31 10:50:24.6	311.800	0.220	-1.040	1.470
2020/01/31 10:50:24.7	311.760	0.210	-1.030	1.500
2020/01/31 10:50:24.8	311.720	0.210	-1.010	1.540
2020/01/31 10:50:24.9	311.690	0.200	-0.990	1.570
2020/01/31 10:50:25.0	311.650	0.190	-0.970	1.610
2020/01/31 10:50:25.1	311.610	0.180	-0.940	1.640
2020/01/31 10:50:25.2	311.570	0.170	-0.910	1.670
2020/01/31 10:50:25.3	311.520	0.160	-0.880	1.710
2020/01/31 10:50:25.4	311.480	0.160	-0.840	1.740
2020/01/31 10:50:25.5	311.430	0.150	-0.810	1.770
2020/01/31 10:50:25.6	311.390	0.140	-0.770	1.800
2020/01/31 10:50:25.7	311.340	0.130	-0.730	1.830
2020/01/31 10:50:25.8	311.290	0.120	-0.680	1.860
2020/01/31 10:50:25.9	311.240	0.110	-0.630	1.880
2020/01/31 10:50:26.0	311.190	0.100	-0.590	1.910
2020/01/31 10:50:26.1	311.140	0.090	-0.530	1.930
2020/01/31 10:50:26.2	311.080	0.080	-0.480	1.950
2020/01/31 10:50:26.3	311.030	0.070	-0.430	1.970
2020/01/31 10:50:26.4	310.970	0.060	-0.370	1.990
2020/01/31 10:50:26.5	310.920	0.040	-0.320	2.010
2020/01/31 10:50:26.6	310.860	0.030	-0.260	2.020
2020/01/31 10:50:26.7	310.790	0.020	-0.200	2.030
2020/01/31 10:50:26.8	310.730	0.000	-0.150	2.040
2020/01/31 10:50:26.9	310.670	-0.010	-0.090	2.040
2020/01/31 10:50:27.0	310.610	-0.030	-0.040	2.040
2020/01/31 10:50:27.1	310.540	-0.040	0.010	2.040
2020/01/31 10:50:27.2	310.480	-0.060	0.070	2.030
2020/01/31 10:50:27.3	310.420	-0.070	0.120	2.030
2020/01/31 10:50:27.4	310.350	-0.090	0.160	2.010
2020/01/31 10:50:27.5	310.300	-0.100	0.210	2.000
2020/01/31 10:50:27.6	310.240	-0.120	0.260	1.980
2020/01/31 10:50:27.7	310.180	-0.130	0.300	1.960
2020/01/31 10:50:27.8	310.120	-0.150	0.340	1.930
2020/01/31 10:50:27.9	310.060	-0.160	0.380	1.900
2020/01/31 10:50:28.0	310.000	-0.180	0.410	1.870
2020/01/31 10:50:28.1	309.950	-0.190	0.440	1.830
2020/01/31 10:50:28.2	309.890	-0.200	0.470	1.790
2020/01/31 10:50:28.3	309.840	-0.220	0.490	1.750
2020/01/31 10:50:28.4	309.790	-0.230	0.510	1.710
2020/01/31 10:50:28.5	309.750	-0.240	0.530	1.660
2020/01/31 10:50:28.6	309.700	-0.250	0.540	1.610
2020/01/31 10:50:28.7	309.660	-0.260	0.550	1.560
2020/01/31 10:50:28.8	309.610	-0.270	0.550	1.510
2020/01/31 10:50:28.9	309.570	-0.280	0.560	1.460
2020/01/31 10:50:29.0	309.520	-0.290	0.560	1.400
2020/01/31 10:50:29.1	309.480	-0.290	0.560	1.350
2020/01/31 10:50:29.2	309.440	-0.300	0.550	1.290
2020/01/31 10:50:29.3	309.400	-0.300	0.540	1.240
2020/01/31 10:50:29.4	309.370	-0.310	0.530	1.180
2020/01/31 10:50:29.5	309.340	-0.310	0.520	1.120
2020/01/31 10:50:29.6	309.300	-0.310	0.510	1.070
2020/01/31 10:50:29.7	309.270	-0.310	0.490	1.020
2020/01/31 10:50:29.8	309.230	-0.310	0.470	0.960
2020/01/31 10:50:29.9	309.200	-0.310	0.450	0.910
2020/01/31 10:50:30.0	309.170	-0.310	0.430	0.860
2020/01/31 10:50:30.1	309.130	-0.310	0.410	0.810
2020/01/31 10:50:30.2	309.100	-0.300	0.390	0.760
2020/01/31 10:50:30.3	309.070	-0.300	0.370	0.720
2020/01/31 10:50:30.4	309.040	-0.300	0.340	0.670
2020/01/31 10:50:30.5	309.000	-0.290	0.320	0.630
2020/01/31 10:50:30.6	308.970	-0.280	0.300	0.590
2020/01/31 10:50:30.7	308.940	-0.280	0.270	0.560
2020/01/31 10:50:30.8	308.900	-0.270	0.250	0.530
2020/01/31 10:50:30.9	308.870	-0.260	0.230	0.500
2020/01/31 10:50:31.0	308.840	-0.250	0.200	0.470
2020/01/31 10:50:31.1	308.810	-0.250	0.180	0.450
2020/01/31 10:50:31.2	308.770	-0.240	0.160	0.430
2020/01/31 10:50:31.3	308.740	-0.230	0.140	0.410
2020/01/31 10:50:31.4	308.710	-0.220	0.120	0.400
2020/01/31 10:50:31.5	308.670	-0.210	0.100	0.390
2020/01/31 10:50:31.6	308.640	-0.200	0.090	0.380
2020/01/31 10:50:31.7	308.610	-0.190	0.070	0.380
2020/01/31 10:50:31.8	308.570	-0.180	0.050	0.380
2020/01/31 10:50:31.9	308.540	-0.170	0.040	0.390
2020/01/31 10:50:32.0	308.510	-0.160	0.020	0.390
2020/01/31 10:50:32.1	308.470	-0.150	0.000	0.410
2020/01/31 10:50:32.2	308.440	-0.140	-0.010	0.420
2020/01/31 10:50:32.3	308.400	-0.130	-0.030	0.430
2020/01/31 10:50:32.4	308.370	-0.120	-0.050	0.450
2020/01/31 10:50:32.5	308.340	-0.110	-0.060	0.470
2020/01/31 10:50:32.6	308.310	-0.100	-0.080	0.490
2020/01/31 10:50:32.7	308.270	-0.090	-0.100	0.520
2020/01/31 10:50:32.8	308.240	-0.080	-0.120	0.540
2020/01/31 10:50:32.9	308.210	-0.070	-0.140	0.560
2020/01/31 10:50:33.0	308.170	-0.060	-0.160	0.590
2020/01/31 10:50:33.1	308.140	-0.050	-0.180	0.620
2020/01/31 10:50:33.2	308.110	-0.050	-0.200	0.650
2020/01/31 10:50:33.3	308.070	-0.040	-0.220	0.680
2020/01/31 10:50:33.4	308.040	-0.030	-0.240	0.710
2020/01/31 10:50:33.5	307.990	-0.020	-0.260	0.750
2020/01/31 10:50:33.6	307.960	-0.010	-0.290	0.780
2020/01/31 10:50:33.7	307.920	-0.000	-0.310	0.820
2020/01/31 10:50:33.8	307.880	0.010	-0.330	0.850
2020/01/31 10:50:33.9	307.850	0.020	-0.350	0.890
2020/01/31 10:50:34.0	307.810	0.020	-0.380	0.930
2020/01/31 10:50:34.1	307.770	0.030	-0.400	0.970
2020/01/31 10:50:34.2	307.730	0.040	-0.420	1.000
2020/01/31 10:50:34.3	307.690	0.050	-0.450	1.040
2020/01/31 10:50:34.4	307.650	0.060	-0.470	1.080
2020/01/31 10:50:34.5	307.590	0.070	-0.500	1.120
2020/01/31 10:50:34.6	307.550	0.080	-0.520	1.160
2020/01/31 10:50:34.7	307.510	0.090	-0.550	1.190
2020/01/31 10:50:34.8	307.470	0.110	-0.570	1.230
2020/01/31 10:50:34.9	307.430	0.120	-0.590	1.260
2020/01/31 10:50:35.0	307.390	0.130	-0.620	1.300
2020/01/31 10:50:35.1	307.350	0.140	-0.640	1.330
2020/01/31 10:50:35.2	307.310	0.160	-0.670	1.360
2020/01/31 10:50:35.3	307.260	0.170	-0.690	1.390
2020/01/31 10:50:35.4	307.220	0.180	-0.720	1.420
2020/01/31 10:50:35.5	307.180	0.200	-0.740	1.440
2020/01/31 10:50:35.6	307.140	0.210	-0.760	1.460
2020/01/31 10:50:35.7	307.100	0.230	-0.790	1.490
2020/01/31 10:50:35.8	307.050	0.240	-0.810	1.510
2020/01/31 10:50:35.9	307.010	0.250	-0.830	1.520
2020/01/31 10:50:36.0	306.970	0.270	-0.840	1.540
2020/01/31 10:50:36.1	306.920	0.280	-0.860	1.550
2020/01/31 10:50:36.2	306.880	0.290	-0.880	1.560
2020/01/31 10:50:36.3	306.830	0.300	-0.890	1.570
2020/01/31 10:50:36.4	306.780	0.310	-0.910	1.580
2020/01/31 10:50:36.5	306.730	0.320	-0.910	1.590
2020/01/31 10:50:36.6	306.680	0.330	-0.930	1.590
2020/01/31 10:50:36.7	306.640	0.340	-0.940	1.590
2020/01/31 10:50:36.8	306.590	0.340	-0.940	1.580
2020/01/31 10:50:36.9	306.550	0.340	-0.950	1.570
2020/01/31 10:50:37.0	306.500	0.350	-0.960	1.560
2020/01/31 10:50:37.1	306.460	0.350	-0.960	1.550
2020/01/31 10:50:37.2	306.420	0.340	-0.960	1.530
2020/01/31 10:50:37.3	306.370	0.340	-0.960	1.510
2020/01/31 10:50:37.4	306.330	0.330	-0.960	1.490
2020/01/31 10:50:37.5	306.300	0.320	-0.960	1.460
2020/01/31 10:50:37.6	306.260	0.310	-0.950	1.430
2020/01/31 10:50:37.7	306.220	0.300	-0.940	1.400
2020/01/31 10:50:37.8	306.190	0.280	-0.930	1.370
2020/01/31 10:50:37.9	306.150	0.270	-0.920	1.340
2020/01/31 10:50:38.0	306.110	0.250	-0.900	1.300
2020/01/31 10:50:38.1	306.080	0.230	-0.880	1.270
2020/01/31 10:50:38.2	306.040	0.210	-0.860	1.240
2020/01/31 10:50:38.3	306.010	0.190	-0.830	1.200
2020/01/31 10:50:38.4	305.980	0.160	-0.800	1.170
2020/01/31 10:50:38.5	305.940	0.140	-0.770	1.140
2020/01/31 10:50:38.6	305.910	0.110	-0.730	1.110
2020/01/31 10:50:38.7	305.870	0.090	-0.690	1.090
2020/01/31 10:50:38.8	305.840	0.060	-0.650	1.060
2020/01/31 10:50:38.9	305.810	0.040	-0.610	1.040
2020/01/31 10:50:39.0	305.780	0.010	-0.560	1.020
2020/01/31 10:50:39.1	305.740	-0.010	-0.510	1.010
2020/01/31 10:50:39.2	305.710	-0.040	-0.450	0.990
2020/01/31 10:50:39.3	305.680	-0.060	-0.400	0.990
2020/01/31 10:50:39.4	305.640	-0.090	-0.340	0.980
2020/01/31 10:50:39.5	305.600	-0.110	-0.290	0.990
2020/01/31 10:50:39.6	305.570	-0.130	-0.220	0.990
2020/01/31 10:50:39.7	305.530	-0.150	-0.160	0.990
2020/01/31 10:50:39.8	305.490	-0.160	-0.100	1.000
2020/01/31 10:50:39.9	305.460	-0.180	-0.040	1.020
2020/01/31 10:50:40.0	305.420	-0.190	0.020	1.030
2020/01/31 10:50:40.1	305.380	-0.210	0.080	1.050
2020/01/31 10:50:40.2	305.340	-0.210	0.140	1.070
2020/01/31 10:50:40.3	305.300	-0.220	0.200	1.090
2020/01/31 10:50:40.4	305.260	-0.230	0.250	1.120
2020/01/31 10:50:40.5	305.220	-0.230	0.300	1.140
2020/01/31 10:50:40.6	305.180	-0.230	0.350	1.170
2020/01/31 10:50:40.7	305.140	-0.230	0.400	1.200
2020/01/31 10:50:40.8	305.100	-0.230	0.440	1.220
2020/01/31 10:50:40.9	305.060	-0.220	0.470	1.250
2020/01/31 10:50:41.0	305.010	-0.220	0.510	1.280
2020/01/31 10:50:41.1	304.970	-0.210	0.540	1.310
2020/01/31 10:50:41.2	304.920	-0.200	0.560	1.330
2020/01/31 10:50:41.3	304.880	-0.180	0.590	1.360
2020/01/31 10:50:41.4	304.830	-0.170	0.600	1.380
2020/01/31 10:50:41.5	304.790	-0.160	0.620	1.410
2020/01/31 10:50:41.6	304.740	-0.140	0.630	1.430
2020/01/31 10:50:41.7	304.700	-0.120	0.630	1.460
2020/01/31 10:50:41.8	304.650	-0.110	0.630	1.480
2020/01/31 10:50:41.9	304.600	-0.090	0.630	1.500
2020/01/31 10:50:42.0	304.550	-0.070	0.630	1.520
2020/01/31 10:50:42.1	304.500	-0.050	0.620	1.540
2020/01/31 10:50:42.2	304.450	-0.030	0.610	1.560
2020/01/31 10:50:42.3	304.400	-0.020	0.590	1.570
2020/01/31 10:50:42.4	304.340	-0.000	0.570	1.580
2020/01/31 10:50:42.5	304.300	0.010	0.550	1.590
2020/01/31 10:50:42.6	304.240	0.030	0.530	1.600
2020/01/31 10:50:42.7	304.190	0.040	0.510	1.600
2020/01/31 10:50:42.8	304.130	0.050	0.480	1.600
2020/01/31 10:50:42.9	304.080	0.060	0.450	1.600
2020/01/31 10:50:43.0	304.030	0.070	0.420	1.600
2020/01/31 10:50:43.1	303.970	0.080	0.390	1.590
2020/01/31 10:50:43.2	303.920	0.090	0.360	1.570
2020/01/31 10:50:43.3	303.870	0.090	0.320	1.550
2020/01/31 10:50:43.4	303.820	0.090	0.290	1.530
2020/01/31 10:50:43.5	303.770	0.090	0.260	1.510
2020/01/31 10:50:43.6	303.720	0.090	0.220	1.480
2020/01/31 10:50:43.7	303.670	0.090	0.190	1.440
2020/01/31 10:50:43.8	303.620	0.080	0.150	1.410
2020/01/31 10:50:43.9	303.570	0.080	0.120	1.370
2020/01/31 10:50:44.0	303.520	0.070	0.090	1.330
2020/01/31 10:50:44.1	303.480	0.060	0.060	1.280
2020/01/31 10:50:44.2	303.440	0.050	0.020	1.230
2020/01/31 10:50:44.3	303.400	0.040	-0.010	1.180
2020/01/31 10:50:44.4	303.360	0.030	-0.040	1.130
2020/01/31 10:50:44.5	303.320	0.010	-0.060	1.080
2020/01/31 10:50:44.6	303.280	-0.000	-0.090	1.030
2020/01/31 10:50:44.7	303.250	-0.020	-0.120	0.970
2020/01/31 10:50:44.8	303.210	-0.030	-0.140	0.920
2020/01/31 10:50:44.9	303.180	-0.050	-0.160	0.870
2020/01/31 10:50:45.0	303.150	-0.070	-0.190	0.810
2020/01/31 10:50:45.1	303.120	-0.080	-0.210	0.760
2020/01/31 10:50:45.2	303.090	-0.100	-0.230	0.710
2020/01/31 10:50:45.3	303.060	-0.120	-0.250	0.660
2020/01/31 10:50:45.4	303.040	-0.130	-0.280	0.610
2020/01/31 10:50:45.5	303.020	-0.150	-0.300	0.570
2020/01/31 10:50:45.6	302.990	-0.170	-0.320	0.520
2020/01/31 10:50:45.7	302.970	-0.180	-0.340	0.480
2020/01/31 10:50:45.8	302.950	-0.200	-0.360	0.440
2020/01/31 10:50:45.9	302.930	-0.210	-0.390	0.400
2020/01/31 10:50:46.0	302.910	-0.220	-0.410	0.360
2020/01/31 10:50:46.1	302.890	-0.230	-0.430	0.320
2020/01/31 10:50:46.2	302.870	-0.240	-0.460	0.290
2020/01/31 10:50:46.3	302.850	-0.250	-0.480	0.260
2020/01/31 10:50:46.4	302.830	-0.260	-0.510	0.230
2020/01/31 10:50:46.5	302.810	-0.270	-0.530	0.210
2020/01/31 10:50:46.6	302.790	-0.270	-0.560	0.190
2020/01/31 10:50:46.7	302.770	-0.270	-0.580	0.170
2020/01/31 10:50:46.8	302.750	-0.270	-0.610	0.160
2020/01/31 10:50:46.9	302.720	-0.270	-0.640	0.150
2020/01/31 10:50:47.0	302.700	-0.270	-0.660	0.140
2020/01/31 10:50:47.1	302.680	-0.270	-0.690	0.140
2020/01/31 10:50:47.2	302.650	-0.260	-0.710	0.140
2020/01/31 10:50:47.3	302.630	-0.250	-0.730	0.150
2020/01/31 10:50:47.4	302.600	-0.240	-0.760	0.160
2020/01/31 10:50:47.5	302.570	-0.230	-0.780	0.180
2020/01/31 10:50:47.6	302.540	-0.220	-0.810	0.190
2020/01/31 10:50:47.7	302.510	-0.210	-0.830	0.220
2020/01/31 10:50:47.8	302.490	-0.200	-0.850	0.240
2020/01/31 10:50:47.9	302.460	-0.180	-0.870	0.270
2020/01/31 10:50:48.0	302.430	-0.170	-0.880	0.300
2020/01/31 10:50:48.1	302.390	-0.150	-0.900	0.340
2020/01/31 10:50:48.2	302.360	-0.130	-0.910	0.370
2020/01/31 10:50:48.3	302.330	-0.120	-0.930	0.410
2020/01/31 10:50:48.4	302.300	-0.100	-0.940	0.460
2020/01/31 10:50:48.5	302.270	-0.080	-0.940	0.500
2020/01/31 10:50:48.6	302.240	-0.060	-0.940	0.550
2020/01/31 10:50:48.7	302.200	-0.040	-0.940	0.600
2020/01/31 10:50:48.8	302.170	-0.020	-0.940	0.650
2020/01/31 10:50:48.9	302.130	-0.010	-0.930	0.710
2020/01/31 10:50:49.0	302.090	0.010	-0.920	0.760
2020/01/31 10:50:49.1	302.050	0.030	-0.910	0.820
2020/01/31 10:50:49.2	302.010	0.050	-0.890	0.880
2020/01/31 10:50:49.3	301.970	0.070	-0.870	0.940
2020/01/31 10:50:49.4	301.920	0.080	-0.850	1.010
2020/01/31 10:50:49.5	301.870	0.100	-0.810	1.070
2020/01/31 10:50:49.6	301.830	0.110	-0.780	1.140
2020/01/31 10:50:49.7	301.780	0.130	-0.740	1.200
2020/01/31 10:50:49.8	301.740	0.140	-0.700	1.270
2020/01/31 10:50:49.9	301.690	0.150	-0.660	1.340
2020/01/31 10:50:50.0	301.640	0.160	-0.620	1.400
2020/01/31 10:50:50.1	301.590	0.170	-0.570	1.470
2020/01/31 10:50:50.2	301.540	0.180	-0.520	1.540
2020/01/31 10:50:50.3	301.490	0.190	-0.460	1.610
2020/01/31 10:50:50.4	301.440	0.200	-0.410	1.670
2020/01/31 10:50:50.5	301.380	0.200	-0.350	1.740
2020/01/31 10:50:50.6	301.330	0.210	-0.300	1.800
2020/01/31 10:50:50.7	301.280	0.210	-0.240	1.870
2020/01/31 10:50:50.8	301.220	0.210	-0.190	1.930
2020/01/31 10:50:50.9	301.170	0.210	-0.130	1.990
2020/01/31 10:50:51.0	301.120	0.210	-0.080	2.050
2020/01/31 10:50:51.1	301.060	0.210	-0.020	2.110
2020/01/31 10:50:51.2	301.010	0.210	0.030	2.160
2020/01/31 10:50:51.3	300.950	0.200	0.080	2.210
2020/01/31 10:50:51.4	300.900	0.200	0.130	2.260
2020/01/31 10:50:51.5	300.840	0.190	0.170	2.310
2020/01/31 10:50:51.6	300.790	0.190	0.210	2.350
2020/01/31 10:50:51.7	300.730	0.180	0.250	2.380
2020/01/31 10:50:51.8	300.680	0.170	0.280	2.420
2020/01/31 10:50:51.9	300.630	0.170	0.310	2.440
2020/01/31 10:50:52.0	300.580	0.160	0.340	2.460
2020/01/31 10:50:52.1	300.530	0.150	0.360	2.480
2020/01/31 10:50:52.2	300.490	0.140	0.370	2.490
2020/01/31 10:50:52.3	300.440	0.140	0.380	2.490
2020/01/31 10:50:52.4	300.400	0.130	0.390	2.490
2020/01/31 10:50:52.5	300.370	0.120	0.390	2.490
2020/01/31 10:50:52.6	300.330	0.120	0.390	2.470
2020/01/31 10:50:52.7	300.290	0.110	0.380	2.460
2020/01/31 10:50:52.8	300.260	0.100	0.360	2.440
2020/01/31 10:50:52.9	300.220	0.100	0.340	2.410
2020/01/31 10:50:53.0	300.190	0.100	0.320	2.380
2020/01/31 10:50:53.1	300.160	0.090	0.290	2.340
2020/01/31 10:50:53.2	300.130	0.090	0.260	2.300
2020/01/31 10:50:53.3	300.100	0.090	0.220	2.260
2020/01/31 10:50:53.4	300.080	0.090	0.180	2.220
2020/01/31 10:50:53.5	300.060	0.090	0.140	2.170
2020/01/31 10:50:53.6	300.040	0.090	0.090	2.120
2020/01/31 10:50:53.7	300.020	0.100	0.050	2.060
2020/01/31 10:50:53.8	300.000	0.100	-0.000	2.010
2020/01/31 10:50:53.9	299.990	0.100	-0.050	1.950
2020/01/31 10:50:54.0	299.970	0.100	-0.100	1.890
2020/01/31 10:50:54.1	299.960	0.110	-0.140	1.830
2020/01/31 10:50:54.2	299.940	0.110	-0.190	1.770
2020/01/31 10:50:54.3	299.930	0.110	-0.230	1.710
2020/01/31 10:50:54.4	299.920	0.120	-0.270	1.650
2020/01/31 10:50:54.5	299.910	0.120	-0.310	1.580
2020/01/31 10:50:54.6	299.900	0.120	-0.350	1.530
2020/01/31 10:50:54.7	299.890	0.130	-0.380	1.470
2020/01/31 10:50:54.8	299.880	0.130	-0.400	1.410
2020/01/31 10:50:54.9	299.870	0.130	-0.430	1.360
2020/01/31 10:50:55.0	299.860	0.130	-0.440	1.310
2020/01/31 10:50:55.1	299.860	0.130	-0.450	1.260
2020/01/31 10:50:55.2	299.850	0.130	-0.460	1.210
2020/01/31 10:50:55.3	299.840	0.130	-0.460	1.170
2020/01/31 10:50:55.4	299.830	0.120	-0.460	1.130
2020/01/31 10:50:55.5	299.820	0.120	-0.450	1.100
2020/01/31 10:50:55.6	299.810	0.110	-0.430	1.060
2020/01/31 10:50:55.7	299.800	0.110	-0.410	1.030
2020/01/31 10:50:55.8	299.790	0.100	-0.390	1.010
2020/01/31 10:50:55.9	299.780	0.090	-0.360	0.990
2020/01/31 10:50:56.0	299.760	0.080	-0.330	0.980
2020/01/31 10:50:56.1	299.750	0.070	-0.290	0.970
2020/01/31 10:50:56.2	299.740	0.060	-0.250	0.960
2020/01/31 10:50:56.3	299.720	0.040	-0.210	0.960
2020/01/31 10:50:56.4	299.700	0.030	-0.170	0.960
2020/01/31 10:50:56.5	299.690	0.020	-0.120	0.970
2020/01/31 10:50:56.6	299.670	0.000	-0.070	0.980
2020/01/31 10:50:56.7	299.650	-0.020	-0.030	0.990
2020/01/31 10:50:56.8	299.630	-0.030	0.010	1.010
2020/01/31 10:50:56.9	299.600	-0.050	0.050	1.020
2020/01/31 10:50:57.0	299.580	-0.070	0.090	1.040
2020/01/31 10:50:57.1	299.550	-0.080	0.130	1.060
2020/01/31 10:50:57.2	299.520	-0.100	0.160	1.070
2020/01/31 10:50:57.3	299.490	-0.120	0.190	1.090
2020/01/31 10:50:57.4	299.470	-0.130	0.220	1.110
2020/01/31 10:50:57.5	299.430	-0.150	0.240	1.120
2020/01/31 10:50:57.6	299.400	-0.160	0.260	1.130
2020/01/31 10:50:57.7	299.370	-0.180	0.270	1.140
2020/01/31 10:50:57.8	299.350	-0.190	0.280	1.150
2020/01/31 10:50:57.9	299.320	-0.200	0.280	1.160
2020/01/31 10:50:58.0	299.290	-0.210	0.270	1.170
2020/01/31 10:50:58.1	299.260	-0.220	0.270	1.170
2020/01/31 10:50:58.2	299.230	-0.230	0.250	1.170
2020/01/31 10:50:58.3	299.200	-0.240	0.230	1.170
2020/01/31 10:50:58.4	299.170	-0.240	0.210	1.170
2020/01/31 10:50:58.5	299.150	-0.240	0.180	1.160
2020/01/31 10:50:58.6	299.120	-0.240	0.150	1.150
2020/01/31 10:50:58.7	299.100	-0.240	0.120	1.140
2020/01/31 10:50:58.8	299.070	-0.240	0.080	1.130
2020/01/31 10:50:58.9	299.050	-0.240	0.040	1.120
2020/01/31 10:50:59.0	299.030	-0.230	-0.010	1.100
2020/01/31 10:50:59.1	299.000	-0.220	-0.050	1.090
2020/01/31 10:50:59.2	298.980	-0.220	-0.100	1.070
2020/01/31 10:50:59.3	298.960	-0.210	-0.150	1.050
2020/01/31 10:50:59.4	298.940	-0.190	-0.200	1.030
2020/01/31 10:50:59.5	298.920	-0.180	-0.240	1.010
2020/01/31 10:50:59.6	298.900	-0.170	-0.290	0.990
2020/01/31 10:50:59.7	298.880	-0.160	-0.340	0.960
2020/01/31 10:50:59.8	298.860	-0.140	-0.390	0.940
2020/01/31 10:50:59.9	298.840	-0.130	-0.430	0.910
2020/01/31 10:51:00.0	298.820	-0.120	-0.470	0.890
2020/01/31 10:51:00.1	298.800	-0.110	-0.520	0.860
2020/01/31 10:51:00.2	298.780	-0.090	-0.560	0.840
2020/01/31 10:51:00.3	298.770	-0.080	-0.590	0.810
2020/01/31 10:51:00.4	298.750	-0.070	-0.630	0.790
2020/01/31 10:51:00.5	298.730	-0.060	-0.660	0.760
2020/01/31 10:51:00.6	298.710	-0.050	-0.690	0.740
2020/01/31 10:51:00.7	298.690	-0.040	-0.720	0.710
2020/01/31 10:51:00.8	298.670	-0.030	-0.750	0.690
2020/01/31 10:51:00.9	298.650	-0.020	-0.770	0.670
2020/01/31 10:51:01.0	298.640	-0.020	-0.790	0.650
2020/01/31 10:51:01.1	298.620	-0.010	-0.810	0.630
2020/01/31 10:51:01.2	298.600	-0.000	-0.820	0.620
2020/01/31 10:51:01.3	298.580	-0.000	-0.840	0.600
2020/01/31 10:51:01.4	298.560	0.000	-0.850	0.590
2020/01/31 10:51:01.5	298.540	0.000	-0.860	0.580
2020/01/31 10:51:01.6	298.520	0.010	-0.860	0.570
2020/01/31 10:51:01.7	298.500	0.010	-0.870	0.560
2020/01/31 10:51:01.8	298.490	0.010	-0.870	0.550
2020/01/31 10:51:01.9	298.470	0.010	-0.870	0.540
2020/01/31 10:51:02.0	298.450	0.010	-0.870	0.540
2020/01/31 10:51:02.1	298.440	0.000	-0.860	0.540
2020/01/31 10:51:02.2	298.430	0.000	-0.860	0.530
2020/01/31 10:51:02.3	298.410	0.000	-0.850	0.530
2020/01/31 10:51:02.4	298.400	-0.000	-0.840	0.530
2020/01/31 10:51:02.5	298.370	-0.000	-0.830	0.540
2020/01/31 10:51:02.6	298.360	-0.000	-0.820	0.540
2020/01/31 10:51:02.7	298.350	-0.010	-0.800	0.540
2020/01/31 10:51:02.8	298.340	-0.010	-0.790	0.540
2020/01/31 10:51:02.9	298.340	-0.010	-0.770	0.550
2020/01/31 10:51:03.0	298.330	-0.010	-0.750	0.560
2020/01/31 10:51:03.1	298.320	-0.010	-0.730	0.570
2020/01/31 10:51:03.2	298.310	-0.010	-0.700	0.580
2020/01/31 10:51:03.3	298.300	-0.010	-0.680	0.590
2020/01/31 10:51:03.4	298.290	-0.010	-0.650	0.600
2020/01/31 10:51:03.5	298.290	-0.010	-0.620	0.620
2020/01/31 10:51:03.6	298.280	-0.010	-0.590	0.640
2020/01/31 10:51:03.7	298.270	-0.010	-0.550	0.660
2020/01/31 10:51:03.8	298.260	-0.000	-0.520	0.680
2020/01/31 10:51:03.9	298.250	-0.000	-0.480	0.700
2020/01/31 10:51:04.0	298.240	0.000	-0.440	0.730
2020/01/31 10:51:04.1	298.220	0.010	-0.400	0.760
2020/01/31 10:51:04.2	298.210	0.010	-0.360	0.790
2020/01/31 10:51:04.3	298.190	0.010	-0.310	0.820
2020/01/31 10:51:04.4	298.180	0.020	-0.270	0.850
2020/01/31 10:51:04.5	298.150	0.020	-0.220	0.890
2020/01/31 10:51:04.6	298.130	0.030	-0.180	0.930
2020/01/31 10:51:04.7	298.120	0.030	-0.130	0.970
2020/01/31 10:51:04.8	298.100	0.030	-0.090	1.000
2020/01/31 10:51:04.9	298.080	0.040	-0.050	1.040
2020/01/31 10:51:05.0	298.060	0.040	-0.010	1.080
2020/01/31 10:51:05.1	298.040	0.040	0.030	1.120
2020/01/31 10:51:05.2	298.010	0.050	0.070	1.150
2020/01/31 10:51:05.3	297.990	0.050	0.110	1.190
2020/01/31 10:51:05.4	297.970	0.050	0.150	1.230
2020/01/31 10:51:05.5	297.950	0.050	0.180	1.260
2020/01/31 10:51:05.6	297.920	0.050	0.220	1.290
2020/01/31 10:51:05.7	297.900	0.050	0.250	1.320
2020/01/31 10:51:05.8	297.880	0.050	0.280	1.350
2020/01/31 10:51:05.9	297.860	0.050	0.310	1.380
2020/01/31 10:51:06.0	297.830	0.050	0.330	1.410
2020/01/31 10:51:06.1	297.810	0.050	0.360	1.430
2020/01/31 10:51:06.2	297.780	0.040	0.380	1.450
2020/01/31 10:51:06.3	297.760	0.040	0.400	1.470
2020/01/31 10:51:06.4	297.730	0.030	0.410	1.490
2020/01/31 10:51:06.5	297.710	0.030	0.430	1.510
2020/01/31 10:51:06.6	297.690	0.020	0.440	1.520
2020/01/31 10:51:06.7	297.670	0.020	0.450	1.530
2020/01/31 10:51:06.8	297.640	0.010	0.460	1.530
2020/01/31 10:51:06.9	297.620	0.010	0.460	1.540
2020/01/31 10:51:07.0	297.600	0.000	0.460	1.540
2020/01/31 10:51:07.1	297.580	-0.000	0.460	1.530
2020/01/31 10:51:07.2	297.560	-0.010	0.450	1.530
2020/01/31 10:51:07.3	297.540	-0.010	0.440	1.520
2020/01/31 10:51:07.4	297.520	-0.020	0.430	1.500
2020/01/31 10:51:07.5	297.510	-0.020	0.410	1.490
2020/01/31 10:51:07.6	297.490	-0.030	0.400	1.470
2020/01/31 10:51:07.7	297.480	-0.030	0.380	1.450
2020/01/31 10:51:07.8	297.460	-0.030	0.360	1.430
2020/01/31 10:51:07.9	297.450	-0.030	0.330	1.410
2020/01/31 10:51:08.0	297.430	-0.030	0.310	1.390
2020/01/31 10:51:08.1	297.420	-0.030	0.280	1.370
2020/01/31 10:51:08.2	297.400	-0.030	0.250	1.350
2020/01/31 10:51:08.3	297.390	-0.030	0.220	1.330
2020/01/31 10:51:08.4	297.380	-0.030	0.190	1.310
2020/01/31 10:51:08.5	297.370	-0.020	0.160	1.290
2020/01/31 10:51:08.6	297.350	-0.020	0.130	1.270
2020/01/31 10:51:08.7	297.330	-0.010	0.100	1.240
2020/01/31 10:51:08.8	297.320	-0.010	0.060	1.220
2020/01/31 10:51:08.9	297.300	-0.000	0.030	1.200
2020/01/31 10:51:09.0	297.280	0.010	-0.010	1.180
2020/01/31 10:51:09.1	297.270	0.020	-0.050	1.160
2020/01/31 10:51:09.2	297.250	0.030	-0.080	1.140
2020/01/31 10:51:09.3	297.230	0.030	-0.120	1.120
2020/01/31 10:51:09.4	297.210	0.050	-0.150	1.100
2020/01/31 10:51:09.5	297.180	0.060	-0.190	1.070
2020/01/31 10:51:09.6	297.160	0.070	-0.220	1.060
2020/01/31 10:51:09.7	297.140	0.080	-0.260	1.040
2020/01/31 10:51:09.8	297.120	0.090	-0.290	1.030
2020/01/31 10:51:09.9	297.090	0.100	-0.320	1.010
2020/01/31 10:51:10.0	297.070	0.110	-0.350	1.000
2020/01/31 10:51:10.1	297.050	0.130	-0.380	0.990
2020/01/31 10:51:10.2	297.020	0.140	-0.400	0.980
2020/01/31 10:51:10.3	296.990	0.150	-0.430	0.970
2020/01/31 10:51:10.4	296.970	0.160	-0.450	0.960
2020/01/31 10:51:10.5	296.960	0.170	-0.480	0.950
2020/01/31 10:51:10.6	296.930	0.180	-0.500	0.940
2020/01/31 10:51:10.7	296.900	0.190	-0.520	0.930
2020/01/31 10:51:10.8	296.880	0.200	-0.540	0.920
2020/01/31 10:51:10.9	296.850	0.210	-0.560	0.910
2020/01/31 10:51:11.0	296.820	0.220	-0.580	0.900
2020/01/31 10:51:11.1	296.790	0.220	-0.600	0.890
2020/01/31 10:51:11.2	296.760	0.230	-0.610	0.880
2020/01/31 10:51:11.3	296.730	0.230	-0.630	0.870
2020/01/31 10:51:11.4	296.700	0.240	-0.640	0.860
2020/01/31 10:51:11.5	296.680	0.240	-0.650	0.840
2020/01/31 10:51:11.6	296.650	0.240	-0.660	0.830
2020/01/31 10:51:11.7	296.620	0.240	-0.670	0.820
2020/01/31 10:51:11.8	296.590	0.240	-0.670	0.800
2020/01/31 10:51:11.9	296.560	0.230	-0.670	0.790
2020/01/31 10:51:12.0	296.540	0.230	-0.670	0.770
2020/01/31 10:51:12.1	296.510	0.220	-0.670	0.760
2020/01/31 10:51:12.2	296.480	0.210	-0.670	0.740
2020/01/31 10:51:12.3	296.460	0.200	-0.670	0.730
2020/01/31 10:51:12.4	296.430	0.190	-0.660	0.720
2020/01/31 10:51:12.5	296.410	0.180	-0.650	0.700
2020/01/31 10:51:12.6	296.380	0.170	-0.640	0.680
2020/01/31 10:51:12.7	296.360	0.150	-0.630	0.670
2020/01/31 10:51:12.8	296.330	0.140	-0.610	0.660
2020/01/31 10:51:12.9	296.310	0.120	-0.600	0.640
2020/01/31 10:51:13.0	296.290	0.100	-0.580	0.630
2020/01/31 10:51:13.1	296.270	0.080	-0.560	0.610
2020/01/31 10:51:13.2	296.260	0.060	-0.540	0.600
2020/01/31 10:51:13.3	296.240	0.040	-0.530	0.580
2020/01/31 10:51:13.4	296.220	0.020	-0.510	0.570
2020/01/31 10:51:13.5	296.220	-0.000	-0.490	0.560
2020/01/31 10:51:13.6	296.210	-0.030	-0.470	0.550
2020/01/31 10:51:13.7	296.200	-0.050	-0.450	0.530
2020/01/31 10:51:13.8	296.190	-0.070	-0.430	0.520
2020/01/31 10:51:13.9	296.180	-0.100	-0.410	0.510
2020/01/31 10:51:14.0	296.180	-0.120	-0.390	0.500
2020/01/31 10:51:14.1	296.170	-0.150	-0.380	0.490
2020/01/31 10:51:14.2	296.170	-0.170	-0.360	0.480
2020/01/31 10:51:14.3	296.160	-0.190	-0.340	0.480
2020/01/31 10:51:14.4	296.160	-0.210	-0.330	0.470
2020/01/31 10:51:14.5	296.170	-0.240	-0.320	0.470
2020/01/31 10:51:14.6	296.170	-0.260	-0.310	0.470
2020/01/31 10:51:14.7	296.160	-0.270	-0.300	0.480
2020/01/31 10:51:14.8	296.160	-0.290	-0.290	0.480
2020/01/31 10:51:14.9	296.160	-0.310	-0.280	0.490
2020/01/31 10:51:15.0	296.160	-0.320	-0.270	0.500
2020/01/31 10:51:15.1	296.150	-0.340	-0.270	0.520
2020/01/31 10:51:15.2	296.150	-0.350	-0.270	0.530
2020/01/31 10:51:15.3	296.150	-0.360	-0.260	0.550
2020/01/31 10:51:15.4	296.140	-0.370	-0.260	0.570
2020/01/31 10:51:15.5	296.130	-0.380	-0.260	0.590
2020/01/31 10:51:15.6	296.130	-0.380	-0.260	0.610
2020/01/31 10:51:15.7	296.130	-0.380	-0.260	0.630
2020/01/31 10:51:15.8	296.120	-0.390	-0.270	0.660
2020/01/31 10:51:15.9	296.120	-0.390	-0.270	0.680
2020/01/31 10:51:16.0	296.110	-0.390	-0.270	0.710
2020/01/31 10:51:16.1	296.110	-0.380	-0.280	0.740
2020/01/31 10:51:16.2	296.100	-0.380	-0.280	0.770
2020/01/31 10:51:16.3	296.100	-0.380	-0.290	0.800
2020/01/31 10:51:16.4	296.090	-0.370	-0.300	0.830
2020/01/31 10:51:16.5	296.080	-0.360	-0.300	0.860
2020/01/31 10:51:16.6	296.080	-0.360	-0.300	0.880
2020/01/31 10:51:16.7	296.070	-0.350	-0.310	0.910
2020/01/31 10:51:16.8	296.060	-0.340	-0.310	0.940
2020/01/31 10:51:16.9	296.050	-0.330	-0.320	0.970
2020/01/31 10:51:17.0	296.050	-0.320	-0.320	0.990
2020/01/31 10:51:17.1	296.040	-0.310	-0.320	1.020
2020/01/31 10:51:17.2	296.030	-0.300	-0.320	1.040
2020/01/31 10:51:17.3	296.020	-0.280	-0.320	1.070
2020/01/31 10:51:17.4	296.010	-0.270	-0.310	1.090
2020/01/31 10:51:17.5	296.000	-0.260	-0.310	1.110
2020/01/31 10:51:17.6	295.990	-0.250	-0.310	1.120
2020/01/31 10:51:17.7	295.980	-0.240	-0.300	1.140
2020/01/31 10:51:17.8	295.970	-0.230	-0.290	1.160
2020/01/31 10:51:17.9	295.950	-0.220	-0.280	1.170
2020/01/31 10:51:18.0	295.940	-0.210	-0.260	1.180
2020/01/31 10:51:18.1	295.920	-0.200	-0.240	1.190
2020/01/31 10:51:18.2	295.910	-0.200	-0.230	1.200
2020/01/31 10:51:18.3	295.890	-0.190	-0.210	1.210
2020/01/31 10:51:18.4	295.870	-0.180	-0.180	1.220
2020/01/31 10:51:18.5	295.860	-0.180	-0.160	1.230
2020/01/31 10:51:18.6	295.840	-0.170	-0.130	1.230
2020/01/31 10:51:18.7	295.820	-0.170	-0.100	1.240
2020/01/31 10:51:18.8	295.790	-0.160	-0.080	1.240
2020/01/31 10:51:18.9	295.760	-0.160	-0.040	1.240
2020/01/31 10:51:19.0	295.740	-0.160	-0.010	1.240
2020/01/31 10:51:19.1	295.710	-0.150	0.020	1.250
2020/01/31 10:51:19.2	295.670	-0.150	0.050	1.250
2020/01/31 10:51:19.3	295.640	-0.150	0.080	1.250
2020/01/31 10:51:19.4	295.610	-0.150	0.110	1.240
2020/01/31 10:51:19.5	295.580	-0.140	0.140	1.240
2020/01/31 10:51:19.6	295.540	-0.140	0.170	1.240
2020/01/31 10:51:19.7	295.500	-0.140	0.190	1.230
2020/01/31 10:51:19.8	295.460	-0.130	0.220	1.230
2020/01/31 10:51:19.9	295.420	-0.130	0.250	1.220
2020/01/31 10:51:20.0	295.380	-0.130	0.270	1.220
2020/01/31 10:51:20.1	295.330	-0.120	0.290	1.210
2020/01/31 10:51:20.2	295.290	-0.110	0.300	1.210
2020/01/31 10:51:20.3	295.240	-0.100	0.320	1.200
2020/01/31 10:51:20.4	295.200	-0.100	0.330	1.190
2020/01/31 10:51:20.5	295.150	-0.090	0.330	1.180
2020/01/31 10:51:20.6	295.110	-0.070	0.340	1.180
2020/01/31 10:51:20.7	295.060	-0.060	0.340	1.170
2020/01/31 10:51:20.8	295.010	-0.040	0.340	1.160
2020/01/31 10:51:20.9	294.970	-0.030	0.330	1.160
2020/01/31 10:51:21.0	294.920	-0.010	0.330	1.150
2020/01/31 10:51:21.1	294.880	0.010	0.320	1.150
2020/01/31 10:51:21.2	294.830	0.030	0.300	1.140
2020/01/31 10:51:21.3	294.790	0.060	0.290	1.140
2020/01/31 10:51:21.4	294.740	0.080	0.270	1.130
2020/01/31 10:51:21.5	294.710	0.110	0.250	1.130
2020/01/31 10:51:21.6	294.660	0.140	0.220	1.130
2020/01/31 10:51:21.7	294.620	0.170	0.200	1.130
2020/01/31 10:51:21.8	294.580	0.200	0.170	1.120
2020/01/31 10:51:21.9	294.540	0.230	0.140	1.120
2020/01/31 10:51:22.0	294.510	0.270	0.110	1.120
2020/01/31 10:51:22.1	294.470	0.300	0.080	1.120
2020/01/31 10:51:22.2	294.430	0.330	0.050	1.120
2020/01/31 10:51:22.3	294.400	0.370	0.020	1.120
2020/01/31 10:51:22.4	294.360	0.400	-0.010	1.130
2020/01/31 10:51:22.5	294.320	0.440	-0.040	1.130
2020/01/31 10:51:22.6	294.290	0.470	-0.070	1.130
2020/01/31 10:51:22.7	294.260	0.510	-0.100	1.140
2020/01/31 10:51:22.8	294.230	0.540	-0.130	1.140
2020/01/31 10:51:22.9	294.200	0.570	-0.160	1.150
2020/01/31 10:51:23.0	294.170	0.600	-0.190	1.160
2020/01/31 10:51:23.1	294.140	0.630	-0.210	1.160
2020/01/31 10:51:23.2	294.120	0.660	-0.240	1.170
2020/01/31 10:51:23.3	294.100	0.690	-0.270	1.180
2020/01/31 10:51:23.4	294.080	0.710	-0.290	1.190
2020/01/31 10:51:23.5	294.050	0.730	-0.310	1.190
2020/01/31 10:51:23.6	294.030	0.750	-0.330	1.200
2020/01/31 10:51:23.7	294.020	0.760	-0.360	1.200
2020/01/31 10:51:23.8	294.010	0.780	-0.380	1.200
2020/01/31 10:51:23.9	294.000	0.790	-0.400	1.200
2020/01/31 10:51:24.0	293.990	0.790	-0.420	1.200
2020/01/31 10:51:24.1	293.990	0.800	-0.450	1.200
2020/01/31 10:51:24.2	293.980	0.800	-0.470	1.200
2020/01/31 10:51:24.3	293.980	0.790	-0.490	1.190
2020/01/31 10:51:24.4	293.980	0.790	-0.510	1.180
2020/01/31 10:51:24.5	293.980	0.770	-0.530	1.170
2020/01/31 10:51:24.6	293.990	0.760	-0.560	1.160
2020/01/31 10:51:24.7	293.990	0.740	-0.580	1.140
2020/01/31 10:51:24.8	294.000	0.720	-0.600	1.120
2020/01/31 10:51:24.9	294.010	0.700	-0.620	1.100
2020/01/31 10:51:25.0	294.020	0.670	-0.640	1.080
2020/01/31 10:51:25.1	294.030	0.640	-0.670	1.050
2020/01/31 10:51:25.2	294.040	0.610	-0.690	1.030
2020/01/31 10:51:25.3	294.050	0.570	-0.710	1.000
2020/01/31 10:51:25.4	294.070	0.530	-0.730	0.970
2020/01/31 10:51:25.5	294.070	0.490	-0.750	0.930
2020/01/31 10:51:25.6	294.090	0.450	-0.760	0.900
2020/01/31 10:51:25.7	294.100	0.400	-0.780	0.870
2020/01/31 10:51:25.8	294.110	0.360	-0.800	0.830
2020/01/31 10:51:25.9	294.120	0.310	-0.810	0.800
2020/01/31 10:51:26.0	294.140	0.250	-0.830	0.760
2020/01/31 10:51:26.1	294.150	0.200	-0.840	0.720
2020/01/31 10:51:26.2	294.160	0.150	-0.850	0.680
2020/01/31 10:51:26.3	294.180	0.090	-0.860	0.640
2020/01/31 10:51:26.4	294.190	0.040	-0.860	0.610
2020/01/31 10:51:26.5	294.200	-0.020	-0.870	0.560
2020/01/31 10:51:26.6	294.210	-0.080	-0.870	0.530
2020/01/31 10:51:26.7	294.220	-0.130	-0.870	0.490
2020/01/31 10:51:26.8	294.230	-0.190	-0.870	0.450
2020/01/31 10:51:26.9	294.230	-0.240	-0.860	0.410
2020/01/31 10:51:27.0	294.240	-0.300	-0.860	0.370
2020/01/31 10:51:27.1	294.250	-0.350	-0.850	0.330
2020/01/31 10:51:27.2	294.260	-0.400	-0.840	0.300
2020/01/31 10:51:27.3	294.260	-0.450	-0.820	0.260
2020/01/31 10:51:27.4	294.270	-0.500	-0.810	0.230
2020/01/31 10:51:27.5	294.270	-0.550	-0.790	0.190
2020/01/31 10:51:27.6	294.280	-0.590	-0.770	0.160
2020/01/31 10:51:27.7	294.280	-0.630	-0.740	0.130
2020/01/31 10:51:27.8	294.280	-0.670	-0.710	0.110
2020/01/31 10:51:27.9	294.280	-0.700	-0.680	0.080
2020/01/31 10:51:28.0	294.290	-0.740	-0.650	0.060
2020/01/31 10:51:28.1	294.280	-0.770	-0.620	0.040
2020/01/31 10:51:28.2	294.280	-0.790	-0.580	0.020
2020/01/31 10:51:28.3	294.280	-0.820	-0.540	0.010
2020/01/31 10:51:28.4	294.280	-0.840	-0.500	-0.010
2020/01/31 10:51:28.5	294.270	-0.850	-0.460	-0.010
2020/01/31 10:51:28.6	294.260	-0.870	-0.410	-0.020
2020/01/31 10:51:28.7	294.250	-0.880	-0.370	-0.020
2020/01/31 10:51:28.8	294.240	-0.880	-0.320	-0.020
2020/01/31 10:51:28.9	294.230	-0.890	-0.270	-0.010
2020/01/31 10:51:29.0	294.220	-0.890	-0.230	-0.000
2020/01/31 10:51:29.1	294.200	-0.880	-0.180	0.010
2020/01/31 10:51:29.2	294.180	-0.880	-0.130	0.030
2020/01/31 10:51:29.3	294.170	-0.870	-0.080	0.050
2020/01/31 10:51:29.4	294.150	-0.850	-0.030	0.080
2020/01/31 10:51:29.5	294.120	-0.840	0.010	0.110
2020/01/31 10:51:29.6	294.100	-0.820	0.060	0.150
2020/01/31 10:51:29.7	294.070	-0.800	0.100	0.190
2020/01/31 10:51:29.8	294.050	-0.770	0.150	0.230
2020/01/31 10:51:29.9	294.020	-0.750	0.190	0.270
2020/01/31 10:51:30.0	294.000	-0.720	0.220	0.310
2020/01/31 10:51:30.1	293.970	-0.690	0.260	0.360
2020/01/31 10:51:30.2	293.940	-0.660	0.290	0.410
2020/01/31 10:51:30.3	293.920	-0.620	0.320	0.460
2020/01/31 10:51:30.4	293.890	-0.590	0.350	0.510
2020/01/31 10:51:30.5	293.850	-0.550	0.360	0.560
2020/01/31 10:51:30.6	293.820	-0.520	0.380	0.610
2020/01/31 10:51:30.7	293.790	-0.480	0.400	0.670
2020/01/31 10:51:30.8	293.760	-0.440	0.410	0.720
2020/01/31 10:51:30.9	293.730	-0.400	0.420	0.770
2020/01/31 10:51:31.0	293.700	-0.370	0.430	0.830
2020/01/31 10:51:31.1	293.670	-0.330	0.440	0.880
2020/01/31 10:51:31.2	293.640	-0.290	0.440	0.930
2020/01/31 10:51:31.3	293.600	-0.250	0.430	0.980
2020/01/31 10:51:31.4	293.570	-0.220	0.430	1.030
2020/01/31 10:51:31.5	293.540	-0.180	0.420	1.080
2020/01/31 10:51:31.6	293.510	-0.150	0.410	1.120
2020/01/31 10:51:31.7	293.470	-0.110	0.400	1.170
2020/01/31 10:51:31.8	293.440	-0.080	0.390	1.210
2020/01/31 10:51:31.9	293.410	-0.050	0.370	1.240
2020/01/31 10:51:32.0	293.390	-0.020	0.350	1.280
2020/01/31 10:51:32.1	293.360	0.010	0.330	1.310
2020/01/31 10:51:32.2	293.330	0.040	0.310	1.340
2020/01/31 10:51:32.3	293.300	0.070	0.280	1.360
2020/01/31 10:51:32.4	293.280	0.090	0.260	1.380
2020/01/31 10:51:32.5	293.250	0.120	0.230	1.400
2020/01/31 10:51:32.6	293.220	0.140	0.200	1.420
2020/01/31 10:51:32.7	293.200	0.160	0.180	1.430
2020/01/31 10:51:32.8	293.180	0.180	0.150	1.440
2020/01/31 10:51:32.9	293.160	0.200	0.120	1.450
2020/01/31 10:51:33.0	293.140	0.220	0.090	1.450
2020/01/31 10:51:33.1	293.130	0.240	0.060	1.460
2020/01/31 10:51:33.2	293.110	0.260	0.030	1.460
2020/01/31 10:51:33.3	293.090	0.270	-0.000	1.460
2020/01/31 10:51:33.4	293.080	0.290	-0.030	1.450
2020/01/31 10:51:33.5	293.060	0.310	-0.070	1.450
2020/01/31 10:51:33.6	293.050	0.320	-0.090	1.450
2020/01/31 10:51:33.7	293.040	0.330	-0.120	1.440
2020/01/31 10:51:33.8	293.030	0.350	-0.150	1.430
2020/01/31 10:51:33.9	293.020	0.360	-0.180	1.430
2020/01/31 10:51:34.0	293.000	0.370	-0.200	1.420
2020/01/31 10:51:34.1	293.000	0.390	-0.230	1.410
2020/01/31 10:51:34.2	292.990	0.400	-0.250	1.400
2020/01/31 10:51:34.3	292.980	0.410	-0.280	1.380
2020/01/31 10:51:34.4	292.970	0.420	-0.300	1.370
2020/01/31 10:51:34.5	292.960	0.430	-0.320	1.360
2020/01/31 10:51:34.6	292.950	0.450	-0.340	1.350
2020/01/31 10:51:34.7	292.940	0.460	-0.360	1.330
2020/01/31 10:51:34.8	292.930	0.470	-0.380	1.320
2020/01/31 10:51:34.9	292.930	0.480	-0.400	1.300
2020/01/31 10:51:35.0	292.920	0.490	-0.420	1.280
2020/01/31 10:51:35.1	292.910	0.500	-0.430	1.260
2020/01/31 10:51:35.2	292.910	0.510	-0.450	1.240
2020/01/31 10:51:35.3	292.900	0.520	-0.460	1.220
2020/01/31 10:51:35.4	292.900	0.530	-0.480	1.200
2020/01/31 10:51:35.5	292.880	0.540	-0.490	1.180
2020/01/31 10:51:35.6	292.880	0.550	-0.510	1.150
2020/01/31 10:51:35.7	292.870	0.550	-0.520	1.130
2020/01/31 10:51:35.8	292.870	0.560	-0.530	1.100
2020/01/31 10:51:35.9	292.870	0.560	-0.540	1.070
2020/01/31 10:51:36.0	292.860	0.570	-0.550	1.040
2020/01/31 10:51:36.1	292.860	0.570	-0.560	1.010
2020/01/31 10:51:36.2	292.860	0.570	-0.560	0.980
2020/01/31 10:51:36.3	292.860	0.570	-0.570	0.950
2020/01/31 10:51:36.4	292.850	0.570	-0.580	0.920
2020/01/31 10:51:36.5	292.850	0.560	-0.580	0.890
2020/01/31 10:51:36.6	292.840	0.560	-0.580	0.850
2020/01/31 10:51:36.7	292.840	0.550	-0.580	0.820
2020/01/31 10:51:36.8	292.840	0.540	-0.590	0.790
2020/01/31 10:51:36.9	292.830	0.530	-0.590	0.750
2020/01/31 10:51:37.0	292.830	0.520	-0.590	0.720
2020/01/31 10:51:37.1	292.830	0.510	-0.590	0.680
2020/01/31 10:51:37.2	292.820	0.490	-0.590	0.650
2020/01/31 10:51:37.3	292.820	0.470	-0.590	0.610
2020/01/31 10:51:37.4	292.820	0.450	-0.590	0.580
2020/01/31 10:51:37.5	292.810	0.430	-0.590	0.550
2020/01/31 10:51:37.6	292.810	0.410	-0.590	0.510
2020/01/31 10:51:37.7	292.810	0.390	-0.580	0.480
2020/01/31 10:51:37.8	292.800	0.360	-0.580	0.440
2020/01/31 10:51:37.9	292.800	0.340	-0.580	0.410
2020/01/31 10:51:38.0	292.800	0.310	-0.580	0.380
2020/01/31 10:51:38.1	292.790	0.280	-0.580	0.350
2020/01/31 10:51:38.2	292.790	0.260	-0.570	0.330
2020/01/31 10:51:38.3	292.790	0.230	-0.570	0.300
2020/01/31 10:51:38.4	292.780	0.200	-0.560	0.280
2020/01/31 10:51:38.5	292.770	0.170	-0.550	0.260
2020/01/31 10:51:38.6	292.770	0.140	-0.550	0.240
2020/01/31 10:51:38.7	292.760	0.110	-0.540	0.220
2020/01/31 10:51:38.8	292.750	0.080	-0.530	0.210
2020/01/31 10:51:38.9	292.740	0.050	-0.510	0.190
2020/01/31 10:51:39.0	292.730	0.020	-0.500	0.180
2020/01/31 10:51:39.1	292.720	-0.010	-0.480	0.180
2020/01/31 10:51:39.2	292.710	-0.030	-0.470	0.170
2020/01/31 10:51:39.3	292.690	-0.060	-0.450	0.170
2020/01/31 10:51:39.4	292.680	-0.090	-0.430	0.170
2020/01/31 10:51:39.5	292.650	-0.120	-0.410	0.170
2020/01/31 10:51:39.6	292.630	-0.140	-0.380	0.170
2020/01/31 10:51:39.7	292.610	-0.170	-0.360	0.180
2020/01/31 10:51:39.8	292.590	-0.190	-0.340	0.190
2020/01/31 10:51:39.9	292.570	-0.220	-0.310	0.200
2020/01/31 10:51:40.0	292.550	-0.240	-0.290	0.210
2020/01/31 10:51:40.1	292.530	-0.260	-0.260	0.220
2020/01/31 10:51:40.2	292.500	-0.280	-0.240	0.240
2020/01/31 10:51:40.3	292.480	-0.300	-0.220	0.250
2020/01/31 10:51:40.4	292.460	-0.320	-0.190	0.270
2020/01/31 10:51:40.5	292.430	-0.340	-0.170	0.290
2020/01/31 10:51:40.6	292.400	-0.350	-0.150	0.310
2020/01/31 10:51:40.7	292.380	-0.370	-0.130	0.340
2020/01/31 10:51:40.8	292.350	-0.380	-0.110	0.360
2020/01/31 10:51:40.9	292.320	-0.390	-0.090	0.380
2020/01/31 10:51:41.0	292.300	-0.400	-0.080	0.410
2020/01/31 10:51:41.1	292.270	-0.410	-0.060	0.440
2020/01/31 10:51:41.2	292.240	-0.420	-0.050	0.460
2020/01/31 10:51:41.3	292.220	-0.420	-0.040	0.490
2020/01/31 10:51:41.4	292.190	-0.430	-0.030	0.510
2020/01/31 10:51:41.5	292.150	-0.430	-0.020	0.540
2020/01/31 10:51:41.6	292.130	-0.430	-0.010	0.570
2020/01/31 10:51:41.7	292.100	-0.430	-0.010	0.600
2020/01/31 10:51:41.8	292.070	-0.430	-0.000	0.620
2020/01/31 10:51:41.9	292.050	-0.430	0.000	0.650
2020/01/31 10:51:42.0	292.020	-0.430	0.000	0.680
2020/01/31 10:51:42.1	291.990	-0.420	0.000	0.700
2020/01/31 10:51:42.2	291.960	-0.420	0.000	0.730
2020/01/31 10:51:42.3	291.940	-0.410	-0.000	0.750
2020/01/31 10:51:42.4	291.910	-0.400	-0.000	0.780
2020/01/31 10:51:42.5	291.890	-0.390	-0.010	0.800
2020/01/31 10:51:42.6	291.860	-0.380	-0.010	0.830
2020/01/31 10:51:42.7	291.830	-0.370	-0.010	0.850
2020/01/31 10:51:42.8	291.810	-0.360	-0.020	0.880
2020/01/31 10:51:42.9	291.780	-0.340	-0.020	0.900
2020/01/31 10:51:43.0	291.760	-0.330	-0.020	0.920
2020/01/31 10:51:43.1	291.730	-0.310	-0.020	0.950
2020/01/31 10:51:43.2	291.700	-0.300	-0.020	0.970
2020/01/31 10:51:43.3	291.680	-0.280	-0.020	0.990
2020/01/31 10:51:43.4	291.650	-0.260	-0.020	1.020
2020/01/31 10:51:43.5	291.640	-0.250	-0.020	1.050
2020/01/31 10:51:43.6	291.610	-0.230	-0.020	1.070
2020/01/31 10:51:43.7	291.580	-0.210	-0.020	1.090
2020/01/31 10:51:43.8	291.560	-0.190	-0.010	1.120
2020/01/31 10:51:43.9	291.530	-0.180	-0.010	1.140
2020/01/31 10:51:44.0	291.510	-0.160	0.000	1.160
2020/01/31 10:51:44.1	291.480	-0.140	0.010	1.190
2020/01/31 10:51:44.2	291.450	-0.120	0.010	1.210
2020/01/31 10:51:44.3	291.420	-0.100	0.020	1.230
2020/01/31 10:51:44.4	291.400	-0.090	0.030	1.250
2020/01/31 10:51:44.5	291.370	-0.070	0.030	1.270
2020/01/31 10:51:44.6	291.350	-0.050	0.040	1.290
2020/01/31 10:51:44.7	291.320	-0.030	0.050	1.310
2020/01/31 10:51:44.8	291.290	-0.020	0.050	1.330
2020/01/31 10:51:44.9	291.270	-0.000	0.050	1.340
2020/01/31 10:51:45.0	291.240	0.010	0.060	1.350
2020/01/31 10:51:45.1	291.220	0.030	0.060	1.370
2020/01/31 10:51:45.2	291.200	0.040	0.060	1.370
2020/01/31 10:51:45.3	291.170	0.060	0.050	1.380
2020/01/31 10:51:45.4	291.150	0.070	0.050	1.380
2020/01/31 10:51:45.5	291.140	0.080	0.040	1.380
2020/01/31 10:51:45.6	291.120	0.090	0.030	1.380
2020/01/31 10:51:45.7	291.100	0.100	0.020	1.370
2020/01/31 10:51:45.8	291.090	0.110	0.010	1.360
2020/01/31 10:51:45.9	291.080	0.120	-0.010	1.350
2020/01/31 10:51:46.0	291.070	0.130	-0.030	1.330
2020/01/31 10:51:46.1	291.060	0.140	-0.040	1.310
2020/01/31 10:51:46.2	291.050	0.150	-0.070	1.290
2020/01/31 10:51:46.3	291.040	0.150	-0.090	1.260
2020/01/31 10:51:46.4	291.040	0.160	-0.110	1.230
2020/01/31 10:51:46.5	291.040	0.170	-0.140	1.200
2020/01/31 10:51:46.6	291.040	0.170	-0.160	1.170
2020/01/31 10:51:46.7	291.040	0.170	-0.190	1.140
2020/01/31 10:51:46.8	291.040	0.180	-0.220	1.100
2020/01/31 10:51:46.9	291.040	0.180	-0.250	1.070
2020/01/31 10:51:47.0	291.050	0.180	-0.280	1.030
2020/01/31 10:51:47.1	291.050	0.190	-0.300	0.990
2020/01/31 10:51:47.2	291.050	0.190	-0.330	0.960
2020/01/31 10:51:47.3	291.060	0.190	-0.360	0.920
2020/01/31 10:51:47.4	291.070	0.190	-0.390	0.890
2020/01/31 10:51:47.5	291.070	0.190	-0.420	0.850
2020/01/31 10:51:47.6	291.080	0.190	-0.440	0.820
2020/01/31 10:51:47.7	291.090	0.190	-0.460	0.780
2020/01/31 10:51:47.8	291.100	0.180	-0.490	0.750
2020/01/31 10:51:47.9	291.100	0.180	-0.510	0.720
2020/01/31 10:51:48.0	291.110	0.180	-0.530	0.690
2020/01/31 10:51:48.1	291.120	0.180	-0.540	0.660
2020/01/31 10:51:48.2	291.130	0.170	-0.560	0.630
2020/01/31 10:51:48.3	291.130	0.170	-0.570	0.600
2020/01/31 10:51:48.4	291.140	0.160	-0.590	0.580
2020/01/31 10:51:48.5	291.150	0.160	-0.600	0.560
2020/01/31 10:51:48.6	291.150	0.150	-0.610	0.540
2020/01/31 10:51:48.7	291.150	0.150	-0.610	0.510
2020/01/31 10:51:48.8	291.160	0.140	-0.620	0.500
2020/01/31 10:51:48.9	291.160	0.140	-0.620	0.480
2020/01/31 10:51:49.0	291.160	0.130	-0.620	0.460
2020/01/31 10:51:49.1	291.160	0.130	-0.620	0.450
2020/01/31 10:51:49.2	291.150	0.120	-0.620	0.440
2020/01/31 10:51:49.3	291.150	0.120	-0.620	0.430
2020/01/31 10:51:49.4	291.140	0.110	-0.610	0.420
2020/01/31 10:51:49.5	291.140	0.110	-0.610	0.420
2020/01/31 10:51:49.6	291.130	0.100	-0.600	0.410
2020/01/31 10:51:49.7	291.120	0.100	-0.590	0.410
2020/01/31 10:51:49.8	291.110	0.090	-0.580	0.410
2020/01/31 10:51:49.9	291.100	0.090	-0.570	0.410
2020/01/31 10:51:50.0	291.090	0.080	-0.560	0.410
2020/01/31 10:51:50.1	291.080	0.080	-0.540	0.410
2020/01/31 10:51:50.2	291.060	0.080	-0.530	0.410
2020/01/31 10:51:50.3	291.050	0.080	-0.520	0.420
2020/01/31 10:51:50.4	291.040	0.080	-0.500	0.420
2020/01/31 10:51:50.5	291.020	0.070	-0.490	0.430
2020/01/31 10:51:50.6	291.010	0.070	-0.480	0.440
2020/01/31 10:51:50.7	290.990	0.070	-0.460	0.450
2020/01/31 10:51:50.8	290.980	0.080	-0.450	0.460
2020/01/31 10:51:50.9	290.960	0.080	-0.430	0.480
2020/01/31 10:51:51.0	290.940	0.080	-0.420	0.490
2020/01/31 10:51:51.1	290.930	0.080	-0.400	0.510
2020/01/31 10:51:51.2	290.910	0.080	-0.390	0.530
2020/01/31 10:51:51.3	290.890	0.090	-0.370	0.550
2020/01/31 10:51:51.4	290.880	0.090	-0.350	0.570
2020/01/31 10:51:51.5	290.860	0.090	-0.330	0.600
2020/01/31 10:51:51.6	290.840	0.090	-0.320	0.620
2020/01/31 10:51:51.7	290.820	0.100	-0.300	0.640
2020/01/31 10:51:51.8	290.800	0.100	-0.280	0.670
2020/01/31 10:51:51.9	290.780	0.100	-0.270	0.700
2020/01/31 10:51:52.0	290.760	0.100	-0.250	0.720
2020/01/31 10:51:52.1	290.740	0.110	-0.230	0.750
2020/01/31 10:51:52.2	290.720	0.110	-0.210	0.780
2020/01/31 10:51:52.3	290.700	0.110	-0.190	0.810
2020/01/31 10:51:52.4	290.680	0.110	-0.180	0.840
2020/01/31 10:51:52.5	290.660	0.110	-0.160	0.870
2020/01/31 10:51:52.6	290.630	0.110	-0.140	0.900
2020/01/31 10:51:52.7	290.610	0.110	-0.120	0.930
2020/01/31 10:51:52.8	290.580	0.110	-0.100	0.960
2020/01/31 10:51:52.9	290.560	0.110	-0.080	0.990
2020/01/31 10:51:53.0	290.530	0.100	-0.060	1.020
2020/01/31 10:51:53.1	290.500	0.100	-0.050	1.050
2020/01/31 10:51:53.2	290.470	0.100	-0.030	1.080
2020/01/31 10:51:53.3	290.450	0.100	-0.010	1.110
2020/01/31 10:51:53.4	290.420	0.090	0.000	1.140
2020/01/31 10:51:53.5	290.390	0.090	0.010	1.160
2020/01/31 10:51:53.6	290.360	0.080	0.030	1.190
2020/01/31 10:51:53.7	290.340	0.080	0.040	1.220
2020/01/31 10:51:53.8	290.310	0.080	0.050	1.240
2020/01/31 10:51:53.9	290.280	0.070	0.060	1.270
2020/01/31 10:51:54.0	290.250	0.070	0.070	1.290
2020/01/31 10:51:54.1	290.220	0.060	0.080	1.310
2020/01/31 10:51:54.2	290.190	0.060	0.080	1.330
2020/01/31 10:51:54.3	290.160	0.050	0.090	1.340
2020/01/31 10:51:54.4	290.130	0.050	0.090	1.360
2020/01/31 10:51:54.5	290.100	0.040	0.090	1.370
2020/01/31 10:51:54.6	290.080	0.040	0.090	1.380
2020/01/31 10:51:54.7	290.050	0.030	0.090	1.390
2020/01/31 10:51:54.8	290.020	0.030	0.090	1.400
2020/01/31 10:51:54.9	290.000	0.030	0.080	1.400
2020/01/31 10:51:55.0	289.970	0.020	0.080	1.400
2020/01/31 10:51:55.1	289.950	0.020	0.070	1.400
2020/01/31 10:51:55.2	289.930	0.020	0.070	1.400
2020/01/31 10:51:55.3	289.910	0.010	0.060	1.390
2020/01/31 10:51:55.4	289.890	0.010	0.050	1.380
2020/01/31 10:51:55.5	289.880	0.010	0.040	1.370
2020/01/31 10:51:55.6	289.860	0.010	0.040	1.360
2020/01/31 10:51:55.7	289.840	0.010	0.030	1.340
2020/01/31 10:51:55.8	289.830	0.010	0.020	1.330
2020/01/31 10:51:55.9	289.810	0.010	0.010	1.310
2020/01/31 10:51:56.0	289.800	0.010	0.000	1.280
2020/01/31 10:51:56.1	289.790	0.010	-0.010	1.260
2020/01/31 10:51:56.2	289.780	0.010	-0.020	1.240
2020/01/31 10:51:56.3	289.770	0.010	-0.020	1.210
2020/01/31 10:51:56.4	289.760	0.010	-0.030	1.190
2020/01/31 10:51:56.5	289.760	0.020	-0.040	1.150
2020/01/31 10:51:56.6	289.760	0.020	-0.050	1.130
2020/01/31 10:51:56.7	289.750	0.020	-0.060	1.100
2020/01/31 10:51:56.8	289.750	0.030	-0.070	1.070
2020/01/31 10:51:56.9	289.740	0.030	-0.070	1.040
2020/01/31 10:51:57.0	289.740	0.040	-0.080	1.010
2020/01/31 10:51:57.1	289.740	0.040	-0.090	0.980
2020/01/31 10:51:57.2	289.740	0.050	-0.100	0.950
2020/01/31 10:51:57.3	289.740	0.050	-0.110	0.920
2020/01/31 10:51:57.4	289.740	0.060	-0.120	0.890
2020/01/31 10:51:57.5	289.740	0.060	-0.130	0.860
2020/01/31 10:51:57.6	289.750	0.070	-0.140	0.830
2020/01/31 10:51:57.7	289.750	0.080	-0.160	0.800
2020/01/31 10:51:57.8	289.760	0.080	-0.170	0.760
2020/01/31 10:51:57.9	289.770	0.090	-0.190	0.730
2020/01/31 10:51:58.0	289.780	0.100	-0.210	0.700
2020/01/31 10:51:58.1	289.790	0.100	-0.230	0.670
2020/01/31 10:51:58.2	289.800	0.110	-0.250	0.640
2020/01/31 10:51:58.3	289.810	0.120	-0.280	0.610
2020/01/31 10:51:58.4	289.830	0.120	-0.300	0.580
2020/01/31 10:51:58.5	289.840	0.130	-0.330	0.560
2020/01/31 10:51:58.6	289.850	0.130	-0.360	0.530
2020/01/31 10:51:58.7	289.870	0.140	-0.390	0.510
2020/01/31 10:51:58.8	289.890	0.150	-0.410	0.480
2020/01/31 10:51:58.9	289.900	0.150	-0.440	0.460
2020/01/31 10:51:59.0	289.920	0.150	-0.470	0.440
2020/01/31 10:51:59.1	289.940	0.160	-0.490	0.430
2020/01/31 10:51:59.2	289.950	0.160	-0.520	0.410
2020/01/31 10:51:59.3	289.970	0.160	-0.540	0.400
2020/01/31 10:51:59.4	289.980	0.160	-0.570	0.390
2020/01/31 10:51:59.5	290.000	0.160	-0.590	0.390
2020/01/31 10:51:59.6	290.010	0.160	-0.610	0.380
2020/01/31 10:51:59.7	290.030	0.160	-0.620	0.380
2020/01/31 10:51:59.8	290.040	0.150	-0.640	0.380
2020/01/31 10:51:59.9	290.050	0.150	-0.650	0.390
2020/01/31 10:52:00.0	290.060	0.140	-0.660	0.390
2020/01/31 10:52:00.1	290.080	0.130	-0.660	0.400
2020/01/31 10:52:00.2	290.090	0.120	-0.670	0.410
2020/01/31 10:52:00.3	290.100	0.110	-0.670	0.420
2020/01/31 10:52:00.4	290.110	0.100	-0.670	0.440
2020/01/31 10:52:00.5	290.110	0.090	-0.660	0.450
2020/01/31 10:52:00.6	290.120	0.070	-0.660	0.470
2020/01/31 10:52:00.7	290.130	0.050	-0.650	0.490
2020/01/31 10:52:00.8	290.130	0.040	-0.640	0.510
2020/01/31 10:52:00.9	290.140	0.020	-0.630	0.540
2020/01/31 10:52:01.0	290.150	-0.000	-0.610	0.560
2020/01/31 10:52:01.1	290.160	-0.030	-0.600	0.580
2020/01/31 10:52:01.2	290.170	-0.050	-0.580	0.610
2020/01/31 10:52:01.3	290.170	-0.070	-0.560	0.630
2020/01/31 10:52:01.4	290.180	-0.100	-0.540	0.660
2020/01/31 10:52:01.5	290.180	-0.120	-0.510	0.680
2020/01/31 10:52:01.6	290.190	-0.150	-0.490	0.700
2020/01/31 10:52:01.7	290.190	-0.170	-0.460	0.730
2020/01/31 10:52:01.8	290.200	-0.200	-0.440	0.750
2020/01/31 10:52:01.9	290.200	-0.220	-0.410	0.770
2020/01/31 10:52:02.0	290.200	-0.250	-0.380	0.790
2020/01/31 10:52:02.1	290.200	-0.280	-0.360	0.810
2020/01/31 10:52:02.2	290.200	-0.300	-0.330	0.830
2020/01/31 10:52:02.3	290.190	-0.330	-0.300	0.840
2020/01/31 10:52:02.4	290.190	-0.350	-0.270	0.860
2020/01/31 10:52:02.5	290.190	-0.370	-0.250	0.870
2020/01/31 10:52:02.6	290.180	-0.390	-0.220	0.880
2020/01/31 10:52:02.7	290.170	-0.410	-0.200	0.890
2020/01/31 10:52:02.8	290.170	-0.430	-0.180	0.900
2020/01/31 10:52:02.9	290.160	-0.450	-0.150	0.910
2020/01/31 10:52:03.0	290.150	-0.470	-0.130	0.910
2020/01/31 10:52:03.1	290.140	-0.480	-0.110	0.910
2020/01/31 10:52:03.2	290.130	-0.500	-0.090	0.910
2020/01/31 10:52:03.3	290.120	-0.510	-0.080	0.910
2020/01/31 10:52:03.4	290.110	-0.520	-0.060	0.900
2020/01/31 10:52:03.5	290.100	-0.520	-0.050	0.890
2020/01/31 10:52:03.6	290.090	-0.530	-0.040	0.880
2020/01/31 10:52:03.7	290.070	-0.530	-0.030	0.870
2020/01/31 10:52:03.8	290.060	-0.540	-0.020	0.860
2020/01/31 10:52:03.9	290.050	-0.540	-0.010	0.850
2020/01/31 10:52:04.0	290.040	-0.530	-0.010	0.830
2020/01/31 10:52:04.1	290.020	-0.530	-0.000	0.810
2020/01/31 10:52:04.2	290.010	-0.520	-0.000	0.800
2020/01/31 10:52:04.3	290.000	-0.510	-0.000	0.780
2020/01/31 10:52:04.4	289.980	-0.500	-0.000	0.760
2020/01/31 10:52:04.5	289.970	-0.490	-0.010	0.740
2020/01/31 10:52:04.6	289.960	-0.480	-0.010	0.710
2020/01/31 10:52:04.7	289.940	-0.460	-0.020	0.690
2020/01/31 10:52:04.8	289.930	-0.440	-0.030	0.670
2020/01/31 10:52:04.9	289.920	-0.420	-0.040	0.640
2020/01/31 10:52:05.0	289.910	-0.400	-0.050	0.620
2020/01/31 10:52:05.1	289.900	-0.380	-0.060	0.600
2020/01/31 10:52:05.2	289.900	-0.350	-0.070	0.570
2020/01/31 10:52:05.3	289.890	-0.330	-0.090	0.550
2020/01/31 10:52:05.4	289.880	-0.300	-0.100	0.530
2020/01/31 10:52:05.5	289.880	-0.270	-0.120	0.510
2020/01/31 10:52:05.6	289.870	-0.240	-0.140	0.490
2020/01/31 10:52:05.7	289.870	-0.210	-0.160	0.470
2020/01/31 10:52:05.8	289.870	-0.170	-0.170	0.460
2020/01/31 10:52:05.9	289.870	-0.140	-0.190	0.450
2020/01/31 10:52:06.0	289.870	-0.110	-0.210	0.440
2020/01/31 10:52:06.1	289.870	-0.070	-0.230	0.430
2020/01/31 10:52:06.2	289.870	-0.030	-0.240	0.420
2020/01/31 10:52:06.3	289.880	0.000	-0.260	0.420
2020/01/31 10:52:06.4	289.880	0.040	-0.280	0.420
2020/01/31 10:52:06.5	289.890	0.080	-0.290	0.420
2020/01/31 10:52:06.6	289.890	0.110	-0.300	0.420
2020/01/31 10:52:06.7	289.900	0.150	-0.310	0.430
2020/01/31 10:52:06.8	289.910	0.180	-0.320	0.440
2020/01/31 10:52:06.9	289.920	0.220	-0.330	0.450
2020/01/31 10:52:07.0	289.930	0.250	-0.330	0.470
2020/01/31 10:52:07.1	289.950	0.290	-0.340	0.480
2020/01/31 10:52:07.2	289.960	0.320	-0.340	0.500
2020/01/31 10:52:07.3	289.970	0.350	-0.340	0.520
2020/01/31 10:52:07.4	289.990	0.390	-0.330	0.540
2020/01/31 10:52:07.5	290.010	0.410	-0.330	0.570
2020/01/31 10:52:07.6	290.020	0.440	-0.320	0.600
2020/01/31 10:52:07.7	290.040	0.470	-0.310	0.620
2020/01/31 10:52:07.8	290.060	0.500	-0.290	0.650
2020/01/31 10:52:07.9	290.080	0.520	-0.280	0.690
2020/01/31 10:52:08.0	290.100	0.540	-0.260	0.720
2020/01/31 10:52:08.1	290.120	0.560	-0.250	0.750
2020/01/31 10:52:08.2	290.140	0.580	-0.230	0.780
2020/01/31 10:52:08.3	290.160	0.600	-0.210	0.820
2020/01/31 10:52:08.4	290.180	0.610	-0.190	0.850
2020/01/31 10:52:08.5	290.200	0.620	-0.170	0.890
2020/01/31 10:52:08.6	290.220	0.630	-0.150	0.920
2020/01/31 10:52:08.7	290.230	0.640	-0.130	0.960
2020/01/31 10:52:08.8	290.250	0.650	-0.110	0.990
2020/01/31 10:52:08.9	290.270	0.660	-0.090	1.020
2020/01/31 10:52:09.0	290.290	0.660	-0.070	1.060
2020/01/31 10:52:09.1	290.300	0.660	-0.060	1.090
2020/01/31 10:52:09.2	290.320	0.660	-0.040	1.120
2020/01/31 10:52:09.3	290.330	0.660	-0.020	1.140
2020/01/31 10:52:09.4	290.340	0.660	-0.010	1.170
2020/01/31 10:52:09.5	290.360	0.650	0.010	1.200
2020/01/31 10:52:09.6	290.370	0.650	0.020	1.220
2020/01/31 10:52:09.7	290.380	0.640	0.030	1.240
2020/01/31 10:52:09.8	290.390	0.630	0.040	1.260
2020/01/31 10:52:09.9	290.390	0.620	0.050	1.280
2020/01/31 10:52:10.0	290.400	0.610	0.050	1.300
2020/01/31 10:52:10.1	290.400	0.590	0.060	1.310
2020/01/31 10:52:10.2	290.400	0.580	0.060	1.320
2020/01/31 10:52:10.3	290.400	0.570	0.060	1.320
2020/01/31 10:52:10.4	290.400	0.550	0.060	1.330
2020/01/31 10:52:10.5	290.400	0.530	0.050	1.330
2020/01/31 10:52:10.6	290.400	0.510	0.050	1.320
2020/01/31 10:52:10.7	290.390	0.500	0.040	1.310
2020/01/31 10:52:10.8	290.390	0.480	0.040	1.300
2020/01/31 10:52:10.9	290.380	0.450	0.030	1.290
2020/01/31 10:52:11.0	290.380	0.430	0.020	1.270
2020/01/31 10:52:11.1	290.370	0.410	0.010	1.250
2020/01/31 10:52:11.2	290.370	0.390	-0.010	1.230
2020/01/31 10:52:11.3	290.360	0.360	-0.020	1.200
2020/01/31 10:52:11.4	290.350	0.340	-0.040	1.170
2020/01/31 10:52:11.5	290.350	0.320	-0.050	1.130
2020/01/31 10:52:11.6	290.350	0.290	-0.070	1.100
2020/01/31 10:52:11.7	290.340	0.270	-0.090	1.060
2020/01/31 10:52:11.8	290.330	0.240	-0.110	1.020
2020/01/31 10:52:11.9	290.330	0.220	-0.130	0.980
2020/01/31 10:52:12.0	290.320	0.190	-0.150	0.930
2020/01/31 10:52:12.1	290.310	0.160	-0.170	0.890
2020/01/31 10:52:12.2	290.310	0.140	-0.190	0.840
2020/01/31 10:52:12.3	290.300	0.110	-0.210	0.790
2020/01/31 10:52:12.4	290.300	0.080	-0.230	0.740
2020/01/31 10:52:12.5	290.280	0.060	-0.260	0.680
2020/01/31 10:52:12.6	290.280	0.030	-0.280	0.630
2020/01/31 10:52:12.7	290.280	0.000	-0.300	0.580
2020/01/31 10:52:12.8	290.280	-0.020	-0.310	0.530
2020/01/31 10:52:12.9	290.270	-0.050	-0.330	0.480
2020/01/31 10:52:13.0	290.270	-0.070	-0.350	0.420
2020/01/31 10:52:13.1	290.270	-0.100	-0.360	0.370
2020/01/31 10:52:13.2	290.270	-0.130	-0.380	0.320
2020/01/31 10:52:13.3	290.270	-0.150	-0.390	0.270
2020/01/31 10:52:13.4	290.280	-0.180	-0.410	0.220
2020/01/31 10:52:13.5	290.270	-0.200	-0.410	0.170
2020/01/31 10:52:13.6	290.280	-0.220	-0.430	0.120
2020/01/31 10:52:13.7	290.280	-0.250	-0.440	0.070
2020/01/31 10:52:13.8	290.290	-0.270	-0.450	0.030
2020/01/31 10:52:13.9	290.290	-0.290	-0.450	-0.020
2020/01/31 10:52:14.0	290.300	-0.310	-0.460	-0.060
2020/01/31 10:52:14.1	290.300	-0.330	-0.470	-0.100
2020/01/31 10:52:14.2	290.310	-0.360	-0.480	-0.140
2020/01/31 10:52:14.3	290.320	-0.380	-0.480	-0.180
2020/01/31 10:52:14.4	290.330	-0.390	-0.490	-0.210
2020/01/31 10:52:14.5	290.330	-0.410	-0.500	-0.240
2020/01/31 10:52:14.6	290.340	-0.430	-0.500	-0.280
2020/01/31 10:52:14.7	290.350	-0.450	-0.510	-0.310
2020/01/31 10:52:14.8	290.360	-0.470	-0.510	-0.330
2020/01/31 10:52:14.9	290.370	-0.490	-0.510	-0.360
2020/01/31 10:52:15.0	290.380	-0.500	-0.520	-0.380
2020/01/31 10:52:15.1	290.390	-0.520	-0.520	-0.410
2020/01/31 10:52:15.2	290.400	-0.530	-0.520	-0.430
2020/01/31 10:52:15.3	290.410	-0.550	-0.520	-0.440
2020/01/31 10:52:15.4	290.410	-0.560	-0.520	-0.460
2020/01/31 10:52:15.5	290.410	-0.580	-0.520	-0.470
2020/01/31 10:52:15.6	290.420	-0.590	-0.520	-0.480
2020/01/31 10:52:15.7	290.430	-0.600	-0.510	-0.490
2020/01/31 10:52:15.8	290.440	-0.610	-0.510	-0.500
2020/01/31 10:52:15.9	290.450	-0.630	-0.510	-0.500
2020/01/31 10:52:16.0	290.460	-0.640	-0.510	-0.500
2020/01/31 10:52:16.1	290.470	-0.640	-0.500	-0.500
2020/01/31 10:52:16.2	290.480	-0.650	-0.500	-0.500
2020/01/31 10:52:16.3	290.490	-0.660	-0.500	-0.500
2020/01/31 10:52:16.4	290.510	-0.670	-0.490	-0.500
2020/01/31 10:52:16.5	290.510	-0.670	-0.490	-0.490
2020/01/31 10:52:16.6	290.530	-0.680	-0.490	-0.480
2020/01/31 10:52:16.7	290.540	-0.680	-0.480	-0.470
2020/01/31 10:52:16.8	290.560	-0.680	-0.480	-0.460
2020/01/31 10:52:16.9	290.570	-0.680	-0.470	-0.450
2020/01/31 10:52:17.0	290.590	-0.680	-0.470	-0.430
2020/01/31 10:52:17.1	290.600	-0.670	-0.460	-0.420
2020/01/31 10:52:17.2	290.620	-0.670	-0.460	-0.400
2020/01/31 10:52:17.3	290.640	-0.660	-0.450	-0.380
2020/01/31 10:52:17.4	290.650	-0.650	-0.450	-0.360
2020/01/31 10:52:17.5	290.660	-0.640	-0.440	-0.340
2020/01/31 10:52:17.6	290.680	-0.630	-0.440	-0.310
2020/01/31 10:52:17.7	290.700	-0.610	-0.430	-0.290
2020/01/31 10:52:17.8	290.720	-0.600	-0.420	-0.260
2020/01/31 10:52:17.9	290.740	-0.580	-0.420	-0.230
2020/01/31 10:52:18.0	290.760	-0.560	-0.410	-0.200
2020/01/31 10:52:18.1	290.780	-0.540	-0.400	-0.160
2020/01/31 10:52:18.2	290.800	-0.520	-0.400	-0.130
2020/01/31 10:52:18.3	290.830	-0.490	-0.390	-0.090
2020/01/31 10:52:18.4	290.850	-0.470	-0.380	-0.050
2020/01/31 10:52:18.5	290.870	-0.440	-0.370	-0.010
2020/01/31 10:52:18.6	290.900	-0.410	-0.360	0.040
2020/01/31 10:52:18.7	290.920	-0.380	-0.350	0.080
2020/01/31 10:52:18.8	290.950	-0.350	-0.340	0.120
2020/01/31 10:52:18.9	290.970	-0.310	-0.330	0.170
2020/01/31 10:52:19.0	291.000	-0.280	-0.320	0.220
2020/01/31 10:52:19.1	291.020	-0.240	-0.310	0.270
2020/01/31 10:52:19.2	291.050	-0.210	-0.300	0.320
2020/01/31 10:52:19.3	291.070	-0.170	-0.290	0.370
2020/01/31 10:52:19.4	291.090	-0.130	-0.280	0.430
2020/01/31 10:52:19.5	291.130	-0.100	-0.270	0.480
2020/01/31 10:52:19.6	291.150	-0.060	-0.260	0.540
2020/01/31 10:52:19.7	291.170	-0.020	-0.240	0.590
2020/01/31 10:52:19.8	291.190	0.020	-0.230	0.650
2020/01/31 10:52:19.9	291.210	0.050	-0.210	0.710
2020/01/31 10:52:20.0	291.230	0.090	-0.200	0.770
2020/01/31 10:52:20.1	291.250	0.130	-0.180	0.830
2020/01/31 10:52:20.2	291.260	0.160	-0.160	0.880
2020/01/31 10:52:20.3	291.280	0.200	-0.150	0.940
2020/01/31 10:52:20.4	291.290	0.230	-0.130	1.000
2020/01/31 10:52:20.5	291.310	0.260	-0.110	1.050
2020/01/31 10:52:20.6	291.320	0.290	-0.090	1.110
2020/01/31 10:52:20.7	291.330	0.320	-0.080	1.160
2020/01/31 10:52:20.8	291.330	0.350	-0.060	1.200
2020/01/31 10:52:20.9	291.340	0.380	-0.040	1.250
2020/01/31 10:52:21.0	291.340	0.400	-0.020	1.290
2020/01/31 10:52:21.1	291.340	0.420	-0.010	1.330
2020/01/31 10:52:21.2	291.340	0.440	0.010	1.370
2020/01/31 10:52:21.3	291.340	0.460	0.030	1.400
2020/01/31 10:52:21.4	291.340	0.480	0.040	1.430
2020/01/31 10:52:21.5	291.340	0.490	0.060	1.450
2020/01/31 10:52:21.6	291.330	0.500	0.070	1.470
2020/01/31 10:52:21.7	291.330	0.510	0.090	1.490
2020/01/31 10:52:21.8	291.320	0.520	0.110	1.500
2020/01/31 10:52:21.9	291.310	0.530	0.120	1.510
2020/01/31 10:52:22.0	291.310	0.530	0.130	1.510
2020/01/31 10:52:22.1	291.300	0.530	0.150	1.520
2020/01/31 10:52:22.2	291.280	0.530	0.160	1.510
2020/01/31 10:52:22.3	291.270	0.530	0.170	1.510
2020/01/31 10:52:22.4	291.260	0.530	0.190	1.500
2020/01/31 10:52:22.5	291.250	0.520	0.200	1.490
2020/01/31 10:52:22.6	291.240	0.520	0.210	1.480
2020/01/31 10:52:22.7	291.220	0.510	0.220	1.460
2020/01/31 10:52:22.8	291.210	0.500	0.230	1.440
2020/01/31 10:52:22.9	291.190	0.490	0.230	1.420
2020/01/31 10:52:23.0	291.180	0.480	0.240	1.400
2020/01/31 10:52:23.1	291.170	0.470	0.250	1.380
2020/01/31 10:52:23.2	291.150	0.450	0.260	1.350
2020/01/31 10:52:23.3	291.140	0.440	0.260	1.320
2020/01/31 10:52:23.4	291.130	0.430	0.270	1.290
2020/01/31 10:52:23.5	291.120	0.410	0.270	1.260
2020/01/31 10:52:23.6	291.110	0.400	0.270	1.220
2020/01/31 10:52:23.7	291.090	0.380	0.270	1.180
2020/01/31 10:52:23.8	291.080	0.360	0.270	1.150
2020/01/31 10:52:23.9	291.070	0.350	0.270	1.110
2020/01/31 10:52:24.0	291.060	0.330	0.270	1.070
2020/01/31 10:52:24.1	291.050	0.320	0.260	1.030
2020/01/31 10:52:24.2	291.040	0.300	0.250	0.980
2020/01/31 10:52:24.3	291.040	0.290	0.240	0.940
2020/01/31 10:52:24.4	291.030	0.270	0.230	0.900
2020/01/31 10:52:24.5	291.030	0.260	0.210	0.850
2020/01/31 10:52:24.6	291.020	0.240	0.190	0.800
2020/01/31 10:52:24.7	291.010	0.230	0.170	0.760
2020/01/31 10:52:24.8	291.010	0.220	0.150	0.710
2020/01/31 10:52:24.9	291.010	0.200	0.130	0.660
2020/01/31 10:52:25.0	291.000	0.190	0.100	0.610
2020/01/31 10:52:25.1	291.000	0.180	0.070	0.560
2020/01/31 10:52:25.2	291.000	0.170	0.040	0.510
2020/01/31 10:52:25.3	291.000	0.160	0.000	0.460
2020/01/31 10:52:25.4	291.000	0.160	-0.030	0.410
2020/01/31 10:52:25.5	291.010	0.150	-0.070	0.370
2020/01/31 10:52:25.6	291.010	0.140	-0.110	0.320
2020/01/31 10:52:25.7	291.020	0.140	-0.150	0.270
2020/01/31 10:52:25.8	291.020	0.130	-0.190	0.220
2020/01/31 10:52:25.9	291.030	0.130	-0.230	0.170
2020/01/31 10:52:26.0	291.030	0.120	-0.280	0.120
2020/01/31 10:52:26.1	291.040	0.120	-0.320	0.070
2020/01/31 10:52:26.2	291.050	0.120	-0.360	0.020
2020/01/31 10:52:26.3	291.060	0.120	-0.400	-0.020
2020/01/31 10:52:26.4	291.070	0.110	-0.450	-0.070
2020/01/31 10:52:26.5	291.070	0.110	-0.490	-0.110
2020/01/31 10:52:26.6	291.080	0.110	-0.530	-0.160
2020/01/31 10:52:26.7	291.100	0.110	-0.570	-0.200
2020/01/31 10:52:26.8	291.110	0.110	-0.610	-0.240
2020/01/31 10:52:26.9	291.130	0.110	-0.650	-0.280
2020/01/31 10:52:27.0	291.150	0.100	-0.690	-0.320
2020/01/31 10:52:27.1	291.170	0.100	-0.730	-0.350
2020/01/31 10:52:27.2	291.190	0.100	-0.760	-0.390
2020/01/31 10:52:27.3	291.210	0.100	-0.790	-0.420
2020/01/31 10:52:27.4	291.240	0.090	-0.820	-0.450
2020/01/31 10:52:27.5	291.260	0.090	-0.850	-0.470
2020/01/31 10:52:27.6	291.290	0.090	-0.870	-0.500
2020/01/31 10:52:27.7	291.320	0.080	-0.890	-0.520
2020/01/31 10:52:27.8	291.350	0.080	-0.910	-0.540
2020/01/31 10:52:27.9	291.380	0.070	-0.930	-0.560
2020/01/31 10:52:28.0	291.410	0.070	-0.940	-0.570
2020/01/31 10:52:28.1	291.440	0.060	-0.940	-0.580
2020/01/31 10:52:28.2	291.470	0.050	-0.950	-0.590
2020/01/31 10:52:28.3	291.500	0.050	-0.950	-0.600
2020/01/31 10:52:28.4	291.530	0.040	-0.950	-0.600
2020/01/31 10:52:28.5	291.550	0.030	-0.940	-0.600
2020/01/31 10:52:28.6	291.580	0.020	-0.930	-0.590
2020/01/31 10:52:28.7	291.610	0.010	-0.920	-0.580
2020/01/31 10:52:28.8	291.640	-0.000	-0.910	-0.570
2020/01/31 10:52:28.9	291.670	-0.010	-0.890	-0.560
2020/01/31 10:52:29.0	291.700	-0.020	-0.870	-0.540
2020/01/31 10:52:29.1	291.730	-0.040	-0.850	-0.520
2020/01/31 10:52:29.2	291.750	-0.050	-0.820	-0.500
2020/01/31 10:52:29.3	291.780	-0.060	-0.800	-0.470
2020/01/31 10:52:29.4	291.800	-0.070	-0.770	-0.450
2020/01/31 10:52:29.5	291.830	-0.090	-0.740	-0.420
2020/01/31 10:52:29.6	291.850	-0.100	-0.710	-0.380
2020/01/31 10:52:29.7	291.870	-0.110	-0.680	-0.350
2020/01/31 10:52:29.8	291.890	-0.130	-0.640	-0.320
2020/01/31 10:52:29.9	291.900	-0.140	-0.610	-0.280
2020/01/31 10:52:30.0	291.920	-0.160	-0.570	-0.250
2020/01/31 10:52:30.1	291.930	-0.170	-0.530	-0.210
2020/01/31 10:52:30.2	291.950	-0.190	-0.490	-0.170
2020/01/31 10:52:30.3	291.960	-0.200	-0.460	-0.130
2020/01/31 10:52:30.4	291.970	-0.220	-0.420	-0.090
2020/01/31 10:52:30.5	291.980	-0.230	-0.380	-0.050
2020/01/31 10:52:30.6	291.990	-0.250	-0.340	-0.010
2020/01/31 10:52:30.7	291.990	-0.270	-0.300	0.030
2020/01/31 10:52:30.8	292.000	-0.280	-0.270	0.070
2020/01/31 10:52:30.9	292.000	-0.300	-0.230	0.110
2020/01/31 10:52:31.0	292.000	-0.310	-0.190	0.150
2020/01/31 10:52:31.1	292.000	-0.330	-0.160	0.190
2020/01/31 10:52:31.2	292.000	-0.340	-0.130	0.230
2020/01/31 10:52:31.3	292.000	-0.360	-0.090	0.270
2020/01/31 10:52:31.4	292.000	-0.370	-0.060	0.300
2020/01/31 10:52:31.5	292.000	-0.390	-0.030	0.340
2020/01/31 10:52:31.6	292.000	-0.400	-0.000	0.380
2020/01/31 10:52:31.7	291.990	-0.420	0.020	0.410
2020/01/31 10:52:31.8	291.990	-0.430	0.050	0.450
2020/01/31 10:52:31.9	291.980	-0.440	0.070	0.480
2020/01/31 10:52:32.0	291.980	-0.460	0.090	0.520
2020/01/31 10:52:32.1	291.970	-0.470	0.110	0.550
2020/01/31 10:52:32.2	291.960	-0.480	0.130	0.580
2020/01/31 10:52:32.3	291.960	-0.490	0.140	0.610
2020/01/31 10:52:32.4	291.950	-0.500	0.160	0.630
2020/01/31 10:52:32.5	291.940	-0.510	0.170	0.660
2020/01/31 10:52:32.6	291.930	-0.520	0.180	0.680
2020/01/31 10:52:32.7	291.920	-0.530	0.190	0.710
2020/01/31 10:52:32.8	291.910	-0.530	0.190	0.730
2020/01/31 10:52:32.9	291.900	-0.540	0.200	0.750
2020/01/31 10:52:33.0	291.890	-0.540	0.200	0.780
2020/01/31 10:52:33.1	291.880	-0.540	0.200	0.800
2020/01/31 10:52:33.2	291.870	-0.550	0.200	0.810
2020/01/31 10:52:33.3	291.870	-0.550	0.200	0.830
2020/01/31 10:52:33.4	291.860	-0.550	0.190	0.850
2020/01/31 10:52:33.5	291.850	-0.540	0.180	0.860
2020/01/31 10:52:33.6	291.840	-0.540	0.170	0.870
2020/01/31 10:52:33.7	291.840	-0.530	0.160	0.880
2020/01/31 10:52:33.8	291.830	-0.530	0.150	0.880
2020/01/31 10:52:33.9	291.830	-0.520	0.130	0.890
2020/01/31 10:52:34.0	291.830	-0.510	0.120	0.890
2020/01/31 10:52:34.1	291.830	-0.500	0.100	0.890
2020/01/31 10:52:34.2	291.830	-0.480	0.070	0.880
2020/01/31 10:52:34.3	291.830	-0.470	0.050	0.880
2020/01/31 10:52:34.4	291.840	-0.450	0.030	0.870
2020/01/31 10:52:34.5	291.840	-0.430	-0.000	0.860
2020/01/31 10:52:34.6	291.850	-0.410	-0.030	0.850
2020/01/31 10:52:34.7	291.860	-0.390	-0.060	0.830
2020/01/31 10:52:34.8	291.870	-0.370	-0.090	0.820
2020/01/31 10:52:34.9	291.880	-0.340	-0.120	0.800
2020/01/31 10:52:35.0	291.890	-0.310	-0.150	0.790
2020/01/31 10:52:35.1	291.910	-0.290	-0.180	0.770
2020/01/31 10:52:35.2	291.930	-0.260	-0.210	0.750
2020/01/31 10:52:35.3	291.940	-0.230	-0.240	0.720
2020/01/31 10:52:35.4	291.960	-0.200	-0.270	0.700
2020/01/31 10:52:35.5	291.980	-0.160	-0.300	0.680
2020/01/31 10:52:35.6	292.000	-0.130	-0.330	0.650
2020/01/31 10:52:35.7	292.020	-0.090	-0.350	0.630
2020/01/31 10:52:35.8	292.050	-0.060	-0.380	0.600
2020/01/31 10:52:35.9	292.070	-0.020	-0.400	0.570
2020/01/31 10:52:36.0	292.100	0.010	-0.420	0.550
2020/01/31 10:52:36.1	292.120	0.050	-0.440	0.520
2020/01/31 10:52:36.2	292.150	0.090	-0.450	0.500
2020/01/31 10:52:36.3	292.180	0.120	-0.470	0.470
2020/01/31 10:52:36.4	292.210	0.160	-0.480	0.440
2020/01/31 10:52:36.5	292.240	0.190	-0.490	0.420
2020/01/31 10:52:36.6	292.260	0.230	-0.490	0.400
2020/01/31 10:52:36.7	292.290	0.260	-0.490	0.380
2020/01/31 10:52:36.8	292.320	0.300	-0.490	0.360
2020/01/31 10:52:36.9	292.350	0.330	-0.490	0.340
2020/01/31 10:52:37.0	292.370	0.360	-0.480	0.320
2020/01/31 10:52:37.1	292.400	0.390	-0.470	0.310
2020/01/31 10:52:37.2	292.430	0.420	-0.460	0.300
2020/01/31 10:52:37.3	292.450	0.450	-0.440	0.300
2020/01/31 10:52:37.4	292.480	0.480	-0.430	0.290
2020/01/31 10:52:37.5	292.500	0.500	-0.410	0.290
2020/01/31 10:52:37.6	292.520	0.520	-0.380	0.290
2020/01/31 10:52:37.7	292.540	0.540	-0.350	0.300
2020/01/31 10:52:37.8	292.550	0.560	-0.320	0.310
2020/01/31 10:52:37.9	292.570	0.580	-0.290	0.320
2020/01/31 10:52:38.0	292.590	0.590	-0.260	0.340
2020/01/31 10:52:38.1	292.600	0.600	-0.230	0.350
2020/01/31 10:52:38.2	292.610	0.620	-0.190	0.370
2020/01/31 10:52:38.3	292.620	0.620	-0.150	0.390
2020/01/31 10:52:38.4	292.630	0.630	-0.120	0.410
2020/01/31 10:52:38.5	292.640	0.640	-0.080	0.440
2020/01/31 10:52:38.6	292.650	0.640	-0.040	0.460
2020/01/31 10:52:38.7	292.660	0.640	-0.010	0.490
2020/01/31 10:52:38.8	292.660	0.640	0.030	0.520
2020/01/31 10:52:38.9	292.670	0.640	0.060	0.540
2020/01/31 10:52:39.0	292.680	0.640	0.090	0.570
2020/01/31 10:52:39.1	292.680	0.640	0.120	0.600
2020/01/31 10:52:39.2	292.690	0.630	0.140	0.620
2020/01/31 10:52:39.3	292.690	0.630	0.170	0.650
2020/01/31 10:52:39.4	292.700	0.620	0.190	0.670
2020/01/31 10:52:39.5	292.710	0.610	0.200	0.690
2020/01/31 10:52:39.6	292.710	0.600	0.210	0.710
2020/01/31 10:52:39.7	292.720	0.590	0.220	0.720
2020/01/31 10:52:39.8	292.720	0.580	0.230	0.740
2020/01/31 10:52:39.9	292.730	0.570	0.230	0.750
2020/01/31 10:52:40.0	292.740	0.560	0.230	0.760
2020/01/31 10:52:40.1	292.740	0.540	0.220	0.770
2020/01/31 10:52:40.2	292.750	0.530	0.210	0.780
2020/01/31 10:52:40.3	292.750	0.510	0.200	0.780
2020/01/31 10:52:40.4	292.760	0.500	0.180	0.780
2020/01/31 10:52:40.5	292.770	0.480	0.170	0.780
2020/01/31 10:52:40.6	292.770	0.460	0.150	0.770
2020/01/31 10:52:40.7	292.780	0.440	0.120	0.770
2020/01/31 10:52:40.8	292.780	0.430	0.090	0.760
2020/01/31 10:52:40.9	292.780	0.410	0.060	0.750
2020/01/31 10:52:41.0	292.780	0.390	0.030	0.740
2020/01/31 10:52:41.1	292.790	0.370	0.000	0.720
2020/01/31 10:52:41.2	292.790	0.350	-0.030	0.710
2020/01/31 10:52:41.3	292.790	0.330	-0.070	0.690
2020/01/31 10:52:41.4	292.790	0.310	-0.110	0.660
2020/01/31 10:52:41.5	292.800	0.280	-0.150	0.640
2020/01/31 10:52:41.6	292.800	0.260	-0.190	0.610
2020/01/31 10:52:41.7	292.800	0.240	-0.230	0.580
2020/01/31 10:52:41.8	292.810	0.220	-0.260	0.550
2020/01/31 10:52:41.9	292.810	0.190	-0.300	0.520
2020/01/31 10:52:42.0	292.820	0.170	-0.340	0.480
2020/01/31 10:52:42.1	292.820	0.150	-0.380	0.450
2020/01/31 10:52:42.2	292.830	0.120	-0.410	0.410
2020/01/31 10:52:42.3	292.830	0.100	-0.450	0.370
2020/01/31 10:52:42.4	292.840	0.070	-0.480	0.330
2020/01/31 10:52:42.5	292.850	0.050	-0.520	0.290
2020/01/31 10:52:42.6	292.850	0.020	-0.550	0.240
2020/01/31 10:52:42.7	292.860	-0.000	-0.580	0.200
2020/01/31 10:52:42.8	292.870	-0.030	-0.610	0.160
2020/01/31 10:52:42.9	292.880	-0.050	-0.630	0.120
2020/01/31 10:52:43.0	292.880	-0.080	-0.660	0.070
2020/01/31 10:52:43.1	292.890	-0.100	-0.680	0.030
2020/01/31 10:52:43.2	292.900	-0.130	-0.700	-0.010
2020/01/31 10:52:43.3	292.910	-0.150	-0.710	-0.050
2020/01/31 10:52:43.4	292.920	-0.180	-0.730	-0.090
2020/01/31 10:52:43.5	292.940	-0.200	-0.740	-0.130
2020/01/31 10:52:43.6	292.950	-0.230	-0.750	-0.170
2020/01/31 10:52:43.7	292.970	-0.250	-0.750	-0.210
2020/01/31 10:52:43.8	292.980	-0.280	-0.760	-0.250
2020/01/31 10:52:43.9	292.990	-0.300	-0.760	-0.290
2020/01/31 10:52:44.0	293.010	-0.320	-0.760	-0.320
2020/01/31 10:52:44.1	293.020	-0.350	-0.760	-0.350
2020/01/31 10:52:44.2	293.040	-0.370	-0.760	-0.380
2020/01/31 10:52:44.3	293.050	-0.390	-0.750	-0.410
2020/01/31 10:52:44.4	293.070	-0.410	-0.750	-0.430
2020/01/31 10:52:44.5	293.080	-0.430	-0.740	-0.450
2020/01/31 10:52:44.6	293.100	-0.440	-0.730	-0.480
2020/01/31 10:52:44.7	293.110	-0.460	-0.720	-0.500
2020/01/31 10:52:44.8	293.130	-0.470	-0.710	-0.510
2020/01/31 10:52:44.9	293.150	-0.490	-0.700	-0.530
2020/01/31 10:52:45.0	293.160	-0.500	-0.690	-0.540
2020/01/31 10:52:45.1	293.180	-0.510	-0.670	-0.550
2020/01/31 10:52:45.2	293.190	-0.520	-0.660	-0.560
2020/01/31 10:52:45.3	293.210	-0.530	-0.650	-0.570
2020/01/31 10:52:45.4	293.230	-0.540	-0.640	-0.570
2020/01/31 10:52:45.5	293.250	-0.550	-0.620	-0.580
2020/01/31 10:52:45.6	293.270	-0.550	-0.610	-0.580
2020/01/31 10:52:45.7	293.280	-0.550	-0.600	-0.580
2020/01/31 10:52:45.8	293.300	-0.560	-0.590	-0.570
2020/01/31 10:52:45.9	293.320	-0.560	-0.580	-0.570
2020/01/31 10:52:46.0	293.330	-0.550	-0.560	-0.560
2020/01/31 10:52:46.1	293.350	-0.550	-0.550	-0.540
2020/01/31 10:52:46.2	293.370	-0.540	-0.540	-0.530
2020/01/31 10:52:46.3	293.380	-0.540	-0.520	-0.510
2020/01/31 10:52:46.4	293.400	-0.530	-0.510	-0.490
2020/01/31 10:52:46.5	293.420	-0.520	-0.500	-0.460
2020/01/31 10:52:46.6	293.430	-0.510	-0.480	-0.430
2020/01/31 10:52:46.7	293.440	-0.490	-0.470	-0.400
2020/01/31 10:52:46.8	293.460	-0.480	-0.450	-0.370
2020/01/31 10:52:46.9	293.470	-0.460	-0.430	-0.330
2020/01/31 10:52:47.0	293.480	-0.450	-0.410	-0.290
2020/01/31 10:52:47.1	293.490	-0.430	-0.390	-0.250
2020/01/31 10:52:47.2	293.500	-0.410	-0.370	-0.210
2020/01/31 10:52:47.3	293.510	-0.390	-0.350	-0.170
2020/01/31 10:52:47.4	293.520	-0.370	-0.330	-0.120
2020/01/31 10:52:47.5	293.530	-0.350	-0.300	-0.080
2020/01/31 10:52:47.6	293.540	-0.330	-0.280	-0.040
2020/01/31 10:52:47.7	293.540	-0.310	-0.250	0.010
2020/01/31 10:52:47.8	293.550	-0.290	-0.220	0.060
2020/01/31 10:52:47.9	293.560	-0.260	-0.190	0.100
2020/01/31 10:52:48.0	293.560	-0.240	-0.170	0.150
2020/01/31 10:52:48.1	293.570	-0.220	-0.130	0.190
2020/01/31 10:52:48.2	293.570	-0.200	-0.100	0.230
2020/01/31 10:52:48.3	293.580	-0.180	-0.070	0.280
2020/01/31 10:52:48.4	293.580	-0.160	-0.040	0.320
2020/01/31 10:52:48.5	293.590	-0.150	-0.010	0.360
2020/01/31 10:52:48.6	293.600	-0.130	0.030	0.400
2020/01/31 10:52:48.7	293.600	-0.110	0.060	0.440
2020/01/31 10:52:48.8	293.610	-0.090	0.090	0.480
2020/01/31 10:52:48.9	293.610	-0.080	0.120	0.510
2020/01/31 10:52:49.0	293.620	-0.060	0.160	0.540
2020/01/31 10:52:49.1	293.630	-0.050	0.190	0.570
2020/01/31 10:52:49.2	293.630	-0.040	0.220	0.600
2020/01/31 10:52:49.3	293.640	-0.020	0.250	0.620
2020/01/31 10:52:49.4	293.650	-0.010	0.280	0.650
2020/01/31 10:52:49.5	293.660	0.000	0.300	0.670
2020/01/31 10:52:49.6	293.670	0.010	0.330	0.680
2020/01/31 10:52:49.7	293.690	0.020	0.350	0.700
2020/01/31 10:52:49.8	293.700	0.030	0.380	0.710
2020/01/31 10:52:49.9	293.710	0.040	0.400	0.720
2020/01/31 10:52:50.0	293.720	0.050	0.420	0.730
2020/01/31 10:52:50.1	293.740	0.060	0.430	0.740
2020/01/31 10:52:50.2	293.750	0.070	0.450	0.740
2020/01/31 10:52:50.3	293.760	0.080	0.460	0.740
2020/01/31 10:52:50.4	293.780	0.090	0.470	0.740
2020/01/31 10:52:50.5	293.790	0.100	0.470	0.730
2020/01/31 10:52:50.6	293.810	0.110	0.470	0.730
2020/01/31 10:52:50.7	293.820	0.120	0.470	0.720
2020/01/31 10:52:50.8	293.840	0.130	0.470	0.710
2020/01/31 10:52:50.9	293.850	0.140	0.460	0.700
2020/01/31 10:52:51.0	293.870	0.150	0.450	0.690
2020/01/31 10:52:51.1	293.890	0.160	0.440	0.670
2020/01/31 10:52:51.2	293.900	0.170	0.430	0.660
2020/01/31 10:52:51.3	293.920	0.180	0.410	0.640
2020/01/31 10:52:51.4	293.930	0.190	0.390	0.630
2020/01/31 10:52:51.5	293.950	0.200	0.360	0.600
2020/01/31 10:52:51.6	293.960	0.220	0.330	0.590
2020/01/31 10:52:51.7	293.970	0.230	0.300	0.570
2020/01/31 10:52:51.8	293.990	0.240	0.270	0.550
2020/01/31 10:52:51.9	294.000	0.250	0.240	0.530
2020/01/31 10:52:52.0	294.010	0.260	0.200	0.510
2020/01/31 10:52:52.1	294.030	0.270	0.160	0.490
2020/01/31 10:52:52.2	294.040	0.290	0.120	0.470
2020/01/31 10:52:52.3	294.050	0.300	0.090	0.450
2020/01/31 10:52:52.4	294.060	0.310	0.050	0.430
2020/01/31 10:52:52.5	294.080	0.320	0.000	0.410
2020/01/31 10:52:52.6	294.090	0.330	-0.040	0.390
2020/01/31 10:52:52.7	294.100	0.340	-0.080	0.370
2020/01/31 10:52:52.8	294.110	0.350	-0.120	0.350
2020/01/31 10:52:52.9	294.120	0.360	-0.160	0.340
2020/01/31 10:52:53.0	294.130	0.360	-0.200	0.320
2020/01/31 10:52:53.1	294.140	0.370	-0.230	0.300
2020/01/31 10:52:53.2	294.140	0.380	-0.270	0.290
2020/01/31 10:52:53.3	294.150	0.380	-0.300	0.270
2020/01/31 10:52:53.4	294.150	0.390	-0.330	0.260
2020/01/31 10:52:53.5	294.150	0.390	-0.360	0.240
2020/01/31 10:52:53.6	294.160	0.390	-0.390	0.230
2020/01/31 10:52:53.7	294.160	0.390	-0.420	0.210
2020/01/31 10:52:53.8	294.160	0.390	-0.440	0.200
2020/01/31 10:52:53.9	294.160	0.390	-0.470	0.190
2020/01/31 10:52:54.0	294.160	0.390	-0.490	0.170
2020/01/31 10:52:54.1	294.160	0.380	-0.500	0.160
2020/01/31 10:52:54.2	294.160	0.380	-0.520	0.150
2020/01/31 10:52:54.3	294.160	0.370	-0.540	0.140
2020/01/31 10:52:54.4	294.160	0.360	-0.550	0.130
2020/01/31 10:52:54.5	294.170	0.350	-0.570	0.120
2020/01/31 10:52:54.6	294.170	0.350	-0.580	0.110
2020/01/31 10:52:54.7	294.170	0.340	-0.590	0.100
2020/01/31 10:52:54.8	294.170	0.330	-0.600	0.090
2020/01/31 10:52:54.9	294.170	0.310	-0.610	0.080
2020/01/31 10:52:55.0	294.170	0.300	-0.620	0.070
2020/01/31 10:52:55.1	294.180	0.290	-0.630	0.060
2020/01/31 10:52:55.2	294.180	0.280	-0.640	0.050
2020/01/31 10:52:55.3	294.180	0.260	-0.640	0.050
2020/01/31 10:52:55.4	294.180	0.250	-0.650	0.040
2020/01/31 10:52:55.5	294.190	0.240	-0.660	0.040
2020/01/31 10:52:55.6	294.190	0.220	-0.670	0.030
2020/01/31 10:52:55.7	294.200	0.210	-0.680	0.030
2020/01/31 10:52:55.8	294.200	0.200	-0.680	0.030
2020/01/31 10:52:55.9	294.200	0.180	-0.690	0.020
2020/01/31 10:52:56.0	294.200	0.170	-0.690	0.020
2020/01/31 10:52:56.1	294.200	0.150	-0.700	0.030
2020/01/31 10:52:56.2	294.200	0.140	-0.700	0.030
2020/01/31 10:52:56.3	294.200	0.130	-0.710	0.030
2020/01/31 10:52:56.4	294.200	0.110	-0.710	0.040
2020/01/31 10:52:56.5	294.200	0.100	-0.720	0.040
2020/01/31 10:52:56.6	294.200	0.080	-0.720	0.050
2020/01/31 10:52:56.7	294.190	0.070	-0.720	0.060
2020/01/31 10:52:56.8	294.180	0.050	-0.720	0.070
2020/01/31 10:52:56.9	294.180	0.040	-0.720	0.080
2020/01/31 10:52:57.0	294.170	0.030	-0.720	0.090
2020/01/31 10:52:57.1	294.160	0.010	-0.720	0.110
2020/01/31 10:52:57.2	294.150	-0.000	-0.710	0.120
2020/01/31 10:52:57.3	294.140	-0.020	-0.710	0.130
2020/01/31 10:52:57.4	294.130	-0.030	-0.700	0.150
2020/01/31 10:52:57.5	294.120	-0.040	-0.700	0.160
2020/01/31 10:52:57.6	294.110	-0.060	-0.690	0.180
2020/01/31 10:52:57.7	294.100	-0.070	-0.680	0.200
2020/01/31 10:52:57.8	294.080	-0.080	-0.670	0.210
2020/01/31 10:52:57.9	294.070	-0.100	-0.660	0.230
2020/01/31 10:52:58.0	294.060	-0.110	-0.650	0.250
2020/01/31 10:52:58.1	294.050	-0.120	-0.640	0.260
2020/01/31 10:52:58.2	294.040	-0.130	-0.620	0.280
2020/01/31 10:52:58.3	294.030	-0.140	-0.610	0.300
2020/01/31 10:52:58.4	294.020	-0.160	-0.590	0.320
2020/01/31 10:52:58.5	294.020	-0.170	-0.570	0.340
2020/01/31 10:52:58.6	294.010	-0.180	-0.550	0.360
2020/01/31 10:52:58.7	294.000	-0.190	-0.530	0.370
2020/01/31 10:52:58.8	293.990	-0.200	-0.520	0.390
2020/01/31 10:52:58.9	293.990	-0.210	-0.490	0.410
2020/01/31 10:52:59.0	293.980	-0.210	-0.470	0.420
2020/01/31 10:52:59.1	293.980	-0.220	-0.450	0.440
2020/01/31 10:52:59.2	293.970	-0.230	-0.430	0.450
2020/01/31 10:52:59.3	293.970	-0.240	-0.410	0.460
2020/01/31 10:52:59.4	293.970	-0.250	-0.390	0.480
2020/01/31 10:52:59.5	293.960	-0.250	-0.360	0.490
2020/01/31 10:52:59.6	293.970	-0.260	-0.340	0.500
2020/01/31 10:52:59.7	293.970	-0.270	-0.320	0.510
2020/01/31 10:52:59.8	293.970	-0.270	-0.290	0.510
2020/01/31 10:52:59.9	293.980	-0.280	-0.270	0.520
2020/01/31 10:53:00.0	293.990	-0.280	-0.250	0.530
2020/01/31 10:53:00.1	293.990	-0.290	-0.220	0.530
2020/01/31 10:53:00.2	294.000	-0.290	-0.200	0.540
2020/01/31 10:53:00.3	294.010	-0.300	-0.180	0.540
2020/01/31 10:53:00.4	294.030	-0.310	-0.160	0.540
2020/01/31 10:53:00.5	294.040	-0.310	-0.140	0.540
2020/01/31 10:53:00.6	294.050	-0.320	-0.110	0.540
2020/01/31 10:53:00.7	294.070	-0.320	-0.090	0.540
2020/01/31 10:53:00.8	294.080	-0.320	-0.070	0.540
2020/01/31 10:53:00.9	294.100	-0.330	-0.050	0.540
2020/01/31 10:53:01.0	294.120	-0.330	-0.030	0.540
2020/01/31 10:53:01.1	294.140	-0.340	-0.010	0.540
2020/01/31 10:53:01.2	294.160	-0.340	0.010	0.540
2020/01/31 10:53:01.3	294.180	-0.340	0.020	0.530
2020/01/31 10:53:01.4	294.200	-0.340	0.040	0.530
2020/01/31 10:53:01.5	294.220	-0.350	0.050	0.530
2020/01/31 10:53:01.6	294.240	-0.350	0.070	0.530
2020/01/31 10:53:01.7	294.260	-0.350	0.080	0.520
2020/01/31 10:53:01.8	294.290	-0.350	0.100	0.520
2020/01/31 10:53:01.9	294.310	-0.340	0.110	0.520
2020/01/31 10:53:02.0	294.330	-0.340	0.120	0.510
2020/01/31 10:53:02.1	294.350	-0.340	0.130	0.510
2020/01/31 10:53:02.2	294.370	-0.330	0.140	0.510
2020/01/31 10:53:02.3	294.390	-0.330	0.150	0.510
2020/01/31 10:53:02.4	294.410	-0.320	0.160	0.510
2020/01/31 10:53:02.5	294.440	-0.310	0.170	0.510
2020/01/31 10:53:02.6	294.450	-0.300	0.180	0.510
2020/01/31 10:53:02.7	294.470	-0.290	0.180	0.510
2020/01/31 10:53:02.8	294.490	-0.280	0.190	0.510
2020/01/31 10:53:02.9	294.500	-0.270	0.190	0.510
2020/01/31 10:53:03.0	294.520	-0.260	0.200	0.510
2020/01/31 10:53:03.1	294.530	-0.240	0.200	0.510
2020/01/31 10:53:03.2	294.540	-0.230	0.200	0.510
2020/01/31 10:53:03.3	294.550	-0.220	0.200	0.510
2020/01/31 10:53:03.4	294.560	-0.200	0.200	0.510
2020/01/31 10:53:03.5	294.560	-0.180	0.200	0.510
2020/01/31 10:53:03.6	294.570	-0.170	0.200	0.510
2020/01/31 10:53:03.7	294.580	-0.150	0.190	0.510
2020/01/31 10:53:03.8	294.590	-0.130	0.190	0.500
2020/01/31 10:53:03.9	294.600	-0.110	0.180	0.500
2020/01/31 10:53:04.0	294.600	-0.100	0.180	0.500
2020/01/31 10:53:04.1	294.610	-0.080	0.170	0.490
2020/01/31 10:53:04.2	294.620	-0.060	0.170	0.490
2020/01/31 10:53:04.3	294.630	-0.040	0.160	0.480
2020/01/31 10:53:04.4	294.630	-0.020	0.150	0.470
2020/01/31 10:53:04.5	294.630	-0.000	0.140	0.470
2020/01/31 10:53:04.6	294.640	0.020	0.130	0.460
2020/01/31 10:53:04.7	294.650	0.030	0.120	0.450
2020/01/31 10:53:04.8	294.660	0.050	0.110	0.440
2020/01/31 10:53:04.9	294.660	0.070	0.100	0.430
2020/01/31 10:53:05.0	294.670	0.090	0.100	0.420
2020/01/31 10:53:05.1	294.680	0.110	0.090	0.410
2020/01/31 10:53:05.2	294.680	0.130	0.080	0.400
2020/01/31 10:53:05.3	294.690	0.140	0.070	0.390
2020/01/31 10:53:05.4	294.700	0.160	0.070	0.380
2020/01/31 10:53:05.5	294.700	0.180	0.060	0.370
2020/01/31 10:53:05.6	294.710	0.190	0.050	0.360
2020/01/31 10:53:05.7	294.720	0.210	0.050	0.350
2020/01/31 10:53:05.8	294.720	0.220	0.040	0.340
2020/01/31 10:53:05.9	294.730	0.240	0.040	0.340
2020/01/31 10:53:06.0	294.730	0.250	0.040	0.330
2020/01/31 10:53:06.1	294.730	0.270	0.030	0.330
2020/01/31 10:53:06.2	294.740	0.280	0.030	0.320
2020/01/31 10:53:06.3	294.740	0.290	0.030	0.320
2020/01/31 10:53:06.4	294.740	0.310	0.030	0.320
2020/01/31 10:53:06.5	294.740	0.320	0.020	0.310
2020/01/31 10:53:06.6	294.740	0.330	0.020	0.310
2020/01/31 10:53:06.7	294.750	0.340	0.020	0.320
2020/01/31 10:53:06.8	294.750	0.350	0.010	0.320
2020/01/31 10:53:06.9	294.750	0.360	0.000	0.320
2020/01/31 10:53:07.0	294.750	0.370	-0.000	0.330
2020/01/31 10:53:07.1	294.750	0.380	-0.010	0.330
2020/01/31 10:53:07.2	294.740	0.390	-0.030	0.340
2020/01/31 10:53:07.3	294.740	0.390	-0.040	0.340
2020/01/31 10:53:07.4	294.740	0.400	-0.060	0.350
2020/01/31 10:53:07.5	294.740	0.410	-0.080	0.360
2020/01/31 10:53:07.6	294.740	0.410	-0.100	0.370
2020/01/31 10:53:07.7	294.740	0.420	-0.120	0.380
2020/01/31 10:53:07.8	294.730	0.420	-0.150	0.390
2020/01/31 10:53:07.9	294.720	0.430	-0.180	0.410
2020/01/31 10:53:08.0	294.720	0.430	-0.210	0.420
2020/01/31 10:53:08.1	294.710	0.430	-0.240	0.440
2020/01/31 10:53:08.2	294.700	0.430	-0.270	0.450
2020/01/31 10:53:08.3	294.690	0.440	-0.310	0.470
2020/01/31 10:53:08.4	294.680	0.440	-0.350	0.480
2020/01/31 10:53:08.5	294.670	0.440	-0.380	0.500
2020/01/31 10:53:08.6	294.660	0.440	-0.430	0.510
2020/01/31 10:53:08.7	294.650	0.440	-0.470	0.530
2020/01/31 10:53:08.8	294.630	0.430	-0.510	0.550
2020/01/31 10:53:08.9	294.620	0.430	-0.560	0.560
2020/01/31 10:53:09.0	294.610	0.430	-0.600	0.580
2020/01/31 10:53:09.1	294.590	0.420	-0.640	0.590
2020/01/31 10:53:09.2	294.580	0.420	-0.690	0.600
2020/01/31 10:53:09.3	294.570	0.410	-0.730	0.610
2020/01/31 10:53:09.4	294.550	0.400	-0.770	0.620
2020/01/31 10:53:09.5	294.540	0.390	-0.820	0.630
2020/01/31 10:53:09.6	294.530	0.380	-0.860	0.630
2020/01/31 10:53:09.7	294.520	0.370	-0.890	0.640
2020/01/31 10:53:09.8	294.510	0.360	-0.930	0.640
2020/01/31 10:53:09.9	294.490	0.350	-0.960	0.630
2020/01/31 10:53:10.0	294.480	0.330	-0.990	0.630
2020/01/31 10:53:10.1	294.470	0.310	-1.010	0.630
2020/01/31 10:53:10.2	294.460	0.300	-1.030	0.620
2020/01/31 10:53:10.3	294.450	0.280	-1.050	0.610
2020/01/31 10:53:10.4	294.440	0.260	-1.060	0.600
2020/01/31 10:53:10.5	294.430	0.230	-1.070	0.580
2020/01/31 10:53:10.6	294.420	0.210	-1.070	0.570
2020/01/31 10:53:10.7	294.410	0.190	-1.070	0.550
2020/01/31 10:53:10.8	294.410	0.160	-1.070	0.530
2020/01/31 10:53:10.9	294.400	0.130	-1.060	0.510
2020/01/31 10:53:11.0	294.390	0.110	-1.050	0.490
2020/01/31 10:53:11.1	294.390	0.080	-1.030	0.460
2020/01/31 10:53:11.2	294.380	0.050	-1.010	0.440
2020/01/31 10:53:11.3	294.380	0.020	-0.990	0.410
2020/01/31 10:53:11.4	294.380	-0.010	-0.970	0.380
2020/01/31 10:53:11.5	294.380	-0.040	-0.940	0.350
2020/01/31 10:53:11.6	294.380	-0.070	-0.910	0.320
2020/01/31 10:53:11.7	294.380	-0.100	-0.870	0.280
2020/01/31 10:53:11.8	294.390	-0.140	-0.840	0.250
2020/01/31 10:53:11.9	294.390	-0.170	-0.800	0.210
2020/01/31 10:53:12.0	294.400	-0.200	-0.770	0.180
2020/01/31 10:53:12.1	294.410	-0.220	-0.730	0.140
2020/01/31 10:53:12.2	294.420	-0.250	-0.690	0.100
2020/01/31 10:53:12.3	294.430	-0.280	-0.660	0.070
2020/01/31 10:53:12.4	294.440	-0.310	-0.620	0.030
2020/01/31 10:53:12.5	294.460	-0.330	-0.590	-0.010
2020/01/31 10:53:12.6	294.470	-0.350	-0.560	-0.050
2020/01/31 10:53:12.7	294.490	-0.380	-0.520	-0.080
2020/01/31 10:53:12.8	294.500	-0.400	-0.490	-0.120
2020/01/31 10:53:12.9	294.520	-0.420	-0.450	-0.150
2020/01/31 10:53:13.0	294.540	-0.430	-0.420	-0.180
2020/01/31 10:53:13.1	294.560	-0.450	-0.390	-0.210
2020/01/31 10:53:13.2	294.590	-0.460	-0.360	-0.240
2020/01/31 10:53:13.3	294.610	-0.470	-0.340	-0.270
2020/01/31 10:53:13.4	294.630	-0.480	-0.310	-0.300
2020/01/31 10:53:13.5	294.650	-0.490	-0.280	-0.330
2020/01/31 10:53:13.6	294.680	-0.500	-0.260	-0.350
2020/01/31 10:53:13.7	294.700	-0.500	-0.230	-0.370
2020/01/31 10:53:13.8	294.730	-0.510	-0.210	-0.400
2020/01/31 10:53:13.9	294.750	-0.510	-0.190	-0.420
2020/01/31 10:53:14.0	294.780	-0.510	-0.170	-0.430
2020/01/31 10:53:14.1	294.810	-0.510	-0.150	-0.450
2020/01/31 10:53:14.2	294.830	-0.510	-0.130	-0.460
2020/01/31 10:53:14.3	294.860	-0.500	-0.110	-0.470
2020/01/31 10:53:14.4	294.890	-0.500	-0.090	-0.480
2020/01/31 10:53:14.5	294.920	-0.490	-0.070	-0.490
2020/01/31 10:53:14.6	294.950	-0.480	-0.050	-0.490
2020/01/31 10:53:14.7	294.980	-0.470	-0.030	-0.490
2020/01/31 10:53:14.8	295.010	-0.470	-0.020	-0.490
2020/01/31 10:53:14.9	295.030	-0.460	0.000	-0.490
2020/01/31 10:53:15.0	295.060	-0.440	0.020	-0.480
2020/01/31 10:53:15.1	295.090	-0.430	0.040	-0.470
2020/01/31 10:53:15.2	295.110	-0.420	0.050	-0.460
2020/01/31 10:53:15.3	295.140	-0.410	0.070	-0.440
2020/01/31 10:53:15.4	295.160	-0.390	0.090	-0.420
2020/01/31 10:53:15.5	295.180	-0.380	0.110	-0.400
2020/01/31 10:53:15.6	295.200	-0.360	0.120	-0.370
2020/01/31 10:53:15.7	295.220	-0.350	0.140	-0.340
2020/01/31 10:53:15.8	295.240	-0.330	0.160	-0.310
2020/01/31 10:53:15.9	295.260	-0.310	0.180	-0.280
2020/01/31 10:53:16.0	295.280	-0.300	0.200	-0.240
2020/01/31 10:53:16.1	295.290	-0.280	0.210	-0.200
2020/01/31 10:53:16.2	295.310	-0.260	0.230	-0.160
2020/01/31 10:53:16.3	295.320	-0.240	0.250	-0.120
2020/01/31 10:53:16.4	295.330	-0.230	0.270	-0.080
2020/01/31 10:53:16.5	295.330	-0.210	0.290	-0.030
2020/01/31 10:53:16.6	295.340	-0.190	0.300	0.020
2020/01/31 10:53:16.7	295.340	-0.170	0.320	0.060
2020/01/31 10:53:16.8	295.340	-0.150	0.340	0.110
2020/01/31 10:53:16.9	295.340	-0.140	0.360	0.160
2020/01/31 10:53:17.0	295.340	-0.120	0.380	0.210
2020/01/31 10:53:17.1	295.340	-0.100	0.400	0.260
2020/01/31 10:53:17.2	295.330	-0.080	0.420	0.310
2020/01/31 10:53:17.3	295.330	-0.060	0.440	0.360
2020/01/31 10:53:17.4	295.320	-0.050	0.450	0.410
2020/01/31 10:53:17.5	295.310	-0.030	0.470	0.450
2020/01/31 10:53:17.6	295.300	-0.010	0.490	0.490
2020/01/31 10:53:17.7	295.280	0.010	0.500	0.530
2020/01/31 10:53:17.8	295.270	0.020	0.510	0.570
2020/01/31 10:53:17.9	295.250	0.040	0.520	0.610
2020/01/31 10:53:18.0	295.240	0.050	0.520	0.640
2020/01/31 10:53:18.1	295.220	0.070	0.530	0.680
2020/01/31 10:53:18.2	295.200	0.090	0.530	0.700
2020/01/31 10:53:18.3	295.180	0.100	0.530	0.730
2020/01/31 10:53:18.4	295.160	0.120	0.530	0.750
2020/01/31 10:53:18.5	295.140	0.130	0.510	0.770
2020/01/31 10:53:18.6	295.120	0.140	0.500	0.780
2020/01/31 10:53:18.7	295.090	0.160	0.490	0.790
2020/01/31 10:53:18.8	295.070	0.170	0.480	0.790
2020/01/31 10:53:18.9	295.050	0.180	0.460	0.790
2020/01/31 10:53:19.0	295.030	0.190	0.430	0.790
2020/01/31 10:53:19.1	295.010	0.200	0.410	0.780
2020/01/31 10:53:19.2	294.990	0.210	0.380	0.770
2020/01/31 10:53:19.3	294.960	0.220	0.350	0.760
2020/01/31 10:53:19.4	294.940	0.230	0.310	0.740
2020/01/31 10:53:19.5	294.910	0.240	0.270	0.720
2020/01/31 10:53:19.6	294.890	0.250	0.230	0.700
2020/01/31 10:53:19.7	294.870	0.260	0.190	0.670
2020/01/31 10:53:19.8	294.850	0.270	0.150	0.640
2020/01/31 10:53:19.9	294.830	0.270	0.100	0.620
2020/01/31 10:53:20.0	294.810	0.280	0.050	0.590
2020/01/31 10:53:20.1	294.800	0.290	-0.000	0.560
2020/01/31 10:53:20.2	294.780	0.290	-0.060	0.520
2020/01/31 10:53:20.3	294.760	0.300	-0.110	0.490
2020/01/31 10:53:20.4	294.750	0.300	-0.170	0.460
2020/01/31 10:53:20.5	294.730	0.310	-0.230	0.430
2020/01/31 10:53:20.6	294.720	0.310	-0.280	0.390
2020/01/31 10:53:20.7	294.710	0.310	-0.340	0.360
2020/01/31 10:53:20.8	294.700	0.320	-0.400	0.330
2020/01/31 10:53:20.9	294.690	0.320	-0.450	0.300
2020/01/31 10:53:21.0	294.690	0.320	-0.500	0.270
2020/01/31 10:53:21.1	294.680	0.320	-0.560	0.250
2020/01/31 10:53:21.2	294.680	0.320	-0.610	0.220
2020/01/31 10:53:21.3	294.680	0.320	-0.660	0.190
2020/01/31 10:53:21.4	294.670	0.320	-0.700	0.170
2020/01/31 10:53:21.5	294.670	0.310	-0.750	0.140
2020/01/31 10:53:21.6	294.680	0.310	-0.790	0.120
2020/01/31 10:53:21.7	294.680	0.310	-0.830	0.090
2020/01/31 10:53:21.8	294.680	0.300	-0.860	0.070
2020/01/31 10:53:21.9	294.690	0.300	-0.890	0.050
2020/01/31 10:53:22.0	294.700	0.290	-0.920	0.020
2020/01/31 10:53:22.1	294.710	0.280	-0.940	0.000
2020/01/31 10:53:22.2	294.720	0.270	-0.960	-0.020
2020/01/31 10:53:22.3	294.730	0.260	-0.980	-0.040
2020/01/31 10:53:22.4	294.740	0.250	-0.990	-0.050
2020/01/31 10:53:22.5	294.760	0.240	-1.000	-0.070
2020/01/31 10:53:22.6	294.770	0.230	-1.000	-0.090
2020/01/31 10:53:22.7	294.790	0.220	-1.010	-0.100
2020/01/31 10:53:22.8	294.810	0.210	-1.000	-0.120
2020/01/31 10:53:22.9	294.820	0.190	-1.000	-0.130
2020/01/31 10:53:23.0	294.840	0.180	-0.990	-0.140
2020/01/31 10:53:23.1	294.860	0.170	-0.980	-0.150
2020/01/31 10:53:23.2	294.870	0.150	-0.970	-0.160
2020/01/31 10:53:23.3	294.890	0.140	-0.950	-0.170
2020/01/31 10:53:23.4	294.910	0.120	-0.940	-0.180
2020/01/31 10:53:23.5	294.930	0.110	-0.920	-0.180
2020/01/31 10:53:23.6	294.950	0.090	-0.900	-0.190
2020/01/31 10:53:23.7	294.970	0.080	-0.880	-0.190
2020/01/31 10:53:23.8	294.990	0.070	-0.860	-0.190
2020/01/31 10:53:23.9	295.010	0.050	-0.840	-0.190
2020/01/31 10:53:24.0	295.020	0.040	-0.820	-0.180
2020/01/31 10:53:24.1	295.040	0.030	-0.790	-0.180
2020/01/31 10:53:24.2	295.060	0.020	-0.770	-0.170
2020/01/31 10:53:24.3	295.080	0.000	-0.750	-0.170
2020/01/31 10:53:24.4	295.090	-0.010	-0.730	-0.160
2020/01/31 10:53:24.5	295.110	-0.020	-0.710	-0.140
2020/01/31 10:53:24.6	295.130	-0.030	-0.690	-0.130
2020/01/31 10:53:24.7	295.150	-0.030	-0.670	-0.110
2020/01/31 10:53:24.8	295.160	-0.040	-0.650	-0.100
2020/01/31 10:53:24.9	295.180	-0.050	-0.630	-0.080
2020/01/31 10:53:25.0	295.190	-0.050	-0.610	-0.050
2020/01/31 10:53:25.1	295.200	-0.060	-0.600	-0.030
2020/01/31 10:53:25.2	295.210	-0.060	-0.580	-0.010
2020/01/31 10:53:25.3	295.230	-0.070	-0.570	0.020
2020/01/31 10:53:25.4	295.240	-0.070	-0.550	0.050
2020/01/31 10:53:25.5	295.250	-0.070	-0.540	0.080
2020/01/31 10:53:25.6	295.250	-0.070	-0.520	0.110
2020/01/31 10:53:25.7	295.260	-0.080	-0.510	0.140
2020/01/31 10:53:25.8	295.270	-0.080	-0.500	0.170
2020/01/31 10:53:25.9	295.270	-0.080	-0.480	0.200
2020/01/31 10:53:26.0	295.280	-0.070	-0.470	0.230
2020/01/31 10:53:26.1	295.280	-0.070	-0.460	0.260
2020/01/31 10:53:26.2	295.280	-0.070	-0.440	0.290
2020/01/31 10:53:26.3	295.280	-0.070	-0.430	0.330
2020/01/31 10:53:26.4	295.280	-0.070	-0.420	0.360
2020/01/31 10:53:26.5	295.280	-0.070	-0.400	0.390
2020/01/31 10:53:26.6	295.280	-0.060	-0.380	0.410
2020/01/31 10:53:26.7	295.280	-0.060	-0.370	0.440
2020/01/31 10:53:26.8	295.280	-0.060	-0.350	0.470
2020/01/31 10:53:26.9	295.280	-0.060	-0.330	0.490
2020/01/31 10:53:27.0	295.280	-0.060	-0.310	0.510
2020/01/31 10:53:27.1	295.280	-0.050	-0.290	0.540
2020/01/31 10:53:27.2	295.270	-0.050	-0.270	0.560
2020/01/31 10:53:27.3	295.270	-0.050	-0.250	0.570
2020/01/31 10:53:27.4	295.270	-0.050	-0.230	0.590
2020/01/31 10:53:27.5	295.260	-0.050	-0.200	0.610
2020/01/31 10:53:27.6	295.260	-0.060	-0.180	0.620
2020/01/31 10:53:27.7	295.250	-0.060	-0.150	0.630
2020/01/31 10:53:27.8	295.250	-0.060	-0.120	0.640
2020/01/31 10:53:27.9	295.240	-0.070	-0.100	0.650
2020/01/31 10:53:28.0	295.240	-0.070	-0.070	0.650
2020/01/31 10:53:28.1	295.240	-0.080	-0.040	0.660
2020/01/31 10:53:28.2	295.230	-0.080	-0.010	0.660
2020/01/31 10:53:28.3	295.230	-0.090	0.020	0.660
2020/01/31 10:53:28.4	295.220	-0.100	0.050	0.660
2020/01/31 10:53:28.5	295.220	-0.110	0.080	0.660
2020/01/31 10:53:28.6	295.210	-0.110	0.110	0.650
2020/01/31 10:53:28.7	295.210	-0.120	0.140	0.650
2020/01/31 10:53:28.8	295.210	-0.130	0.170	0.640
2020/01/31 10:53:28.9	295.200	-0.140	0.200	0.630
2020/01/31 10:53:29.0	295.200	-0.150	0.230	0.630
2020/01/31 10:53:29.1	295.190	-0.160	0.260	0.620
2020/01/31 10:53:29.2	295.180	-0.170	0.280	0.600
2020/01/31 10:53:29.3	295.180	-0.180	0.310	0.590
2020/01/31 10:53:29.4	295.170	-0.190	0.330	0.580
2020/01/31 10:53:29.5	295.170	-0.200	0.350	0.570
2020/01/31 10:53:29.6	295.160	-0.210	0.370	0.550
2020/01/31 10:53:29.7	295.150	-0.220	0.380	0.540
2020/01/31 10:53:29.8	295.150	-0.230	0.400	0.530
2020/01/31 10:53:29.9	295.140	-0.240	0.410	0.510
2020/01/31 10:53:30.0	295.140	-0.240	0.420	0.500
2020/01/31 10:53:30.1	295.130	-0.250	0.420	0.480
2020/01/31 10:53:30.2	295.120	-0.250	0.430	0.470
2020/01/31 10:53:30.3	295.110	-0.250	0.430	0.450
2020/01/31 10:53:30.4	295.110	-0.260	0.430	0.430
2020/01/31 10:53:30.5	295.090	-0.260	0.420	0.410
2020/01/31 10:53:30.6	295.080	-0.250	0.410	0.400
2020/01/31 10:53:30.7	295.080	-0.250	0.400	0.380
2020/01/31 10:53:30.8	295.070	-0.250	0.390	0.360
2020/01/31 10:53:30.9	295.070	-0.240	0.380	0.340
2020/01/31 10:53:31.0	295.060	-0.240	0.360	0.320
2020/01/31 10:53:31.1	295.050	-0.230	0.340	0.300
2020/01/31 10:53:31.2	295.050	-0.220	0.320	0.280
2020/01/31 10:53:31.3	295.040	-0.210	0.290	0.260
2020/01/31 10:53:31.4	295.040	-0.200	0.270	0.240
2020/01/31 10:53:31.5	295.030	-0.190	0.240	0.210
2020/01/31 10:53:31.6	295.030	-0.180	0.210	0.190
2020/01/31 10:53:31.7	295.020	-0.160	0.180	0.170
2020/01/31 10:53:31.8	295.020	-0.150	0.150	0.150
2020/01/31 10:53:31.9	295.010	-0.130	0.120	0.130
2020/01/31 10:53:32.0	295.000	-0.120	0.080	0.120
2020/01/31 10:53:32.1	295.000	-0.100	0.050	0.100
2020/01/31 10:53:32.2	294.990	-0.090	0.020	0.080
2020/01/31 10:53:32.3	294.980	-0.070	-0.010	0.060
2020/01/31 10:53:32.4	294.980	-0.050	-0.040	0.040
2020/01/31 10:53:32.5	294.970	-0.040	-0.080	0.030
2020/01/31 10:53:32.6	294.960	-0.020	-0.110	0.010
2020/01/31 10:53:32.7	294.950	-0.010	-0.140	-0.000
2020/01/31 10:53:32.8	294.940	0.010	-0.160	-0.020
2020/01/31 10:53:32.9	294.930	0.020	-0.190	-0.030
2020/01/31 10:53:33.0	294.920	0.040	-0.210	-0.040
2020/01/31 10:53:33.1	294.910	0.050	-0.240	-0.050
2020/01/31 10:53:33.2	294.900	0.060	-0.250	-0.060
2020/01/31 10:53:33.3	294.890	0.070	-0.270	-0.060
2020/01/31 10:53:33.4	294.880	0.080	-0.290	-0.070
2020/01/31 10:53:33.5	294.870	0.090	-0.300	-0.070
2020/01/31 10:53:33.6	294.860	0.100	-0.310	-0.070
2020/01/31 10:53:33.7	294.850	0.110	-0.320	-0.070
2020/01/31 10:53:33.8	294.830	0.110	-0.320	-0.070
2020/01/31 10:53:33.9	294.820	0.120	-0.330	-0.070
2020/01/31 10:53:34.0	294.810	0.120	-0.330	-0.060
2020/01/31 10:53:34.1	294.800	0.120	-0.330	-0.060
2020/01/31 10:53:34.2	294.790	0.130	-0.330	-0.050
2020/01/31 10:53:34.3	294.780	0.130	-0.340	-0.040
2020/01/31 10:53:34.4	294.770	0.130	-0.340	-0.030
2020/01/31 10:53:34.5	294.760	0.130	-0.340	-0.020
2020/01/31 10:53:34.6	294.750	0.120	-0.340	-0.010
2020/01/31 10:53:34.7	294.740	0.120	-0.340	-0.000
2020/01/31 10:53:34.8	294.730	0.120	-0.340	0.010
2020/01/31 10:53:34.9	294.730	0.120	-0.340	0.020
2020/01/31 10:53:35.0	294.720	0.110	-0.350	0.030
2020/01/31 10:53:35.1	294.720	0.110	-0.350	0.050
2020/01/31 10:53:35.2	294.720	0.110	-0.360	0.060
2020/01/31 10:53:35.3	294.720	0.110	-0.370	0.070
2020/01/31 10:53:35.4	294.720	0.100	-0.380	0.080
2020/01/31 10:53:35.5	294.720	0.100	-0.400	0.100
2020/01/31 10:53:35.6	294.720	0.100	-0.410	0.110
2020/01/31 10:53:35.7	294.720	0.100	-0.430	0.130
2020/01/31 10:53:35.8	294.720	0.100	-0.450	0.140
2020/01/31 10:53:35.9	294.720	0.100	-0.470	0.160
2020/01/31 10:53:36.0	294.730	0.100	-0.490	0.170
2020/01/31 10:53:36.1	294.730	0.110	-0.520	0.190
2020/01/31 10:53:36.2	294.740	0.110	-0.540	0.200
2020/01/31 10:53:36.3	294.740	0.110	-0.570	0.220
2020/01/31 10:53:36.4	294.750	0.120	-0.600	0.240
2020/01/31 10:53:36.5	294.760	0.130	-0.630	0.250
2020/01/31 10:53:36.6	294.770	0.130	-0.660	0.270
2020/01/31 10:53:36.7	294.780	0.140	-0.680	0.280
2020/01/31 10:53:36.8	294.790	0.150	-0.710	0.300
2020/01/31 10:53:36.9	294.800	0.160	-0.740	0.310
2020/01/31 10:53:37.0	294.810	0.170	-0.770	0.330
2020/01/31 10:53:37.1	294.820	0.180	-0.800	0.340
2020/01/31 10:53:37.2	294.840	0.200	-0.830	0.350
2020/01/31 10:53:37.3	294.850	0.210	-0.860	0.360
2020/01/31 10:53:37.4	294.860	0.220	-0.890	0.370
2020/01/31 10:53:37.5	294.880	0.230	-0.910	0.380
2020/01/31 10:53:37.6	294.900	0.250	-0.940	0.390
2020/01/31 10:53:37.7	294.920	0.260	-0.960	0.400
2020/01/31 10:53:37.8	294.930	0.270	-0.980	0.400
2020/01/31 10:53:37.9	294.950	0.280	-1.000	0.400
2020/01/31 10:53:38.0	294.970	0.300	-1.010	0.410
2020/01/31 10:53:38.1	294.990	0.310	-1.030	0.410
2020/01/31 10:53:38.2	295.000	0.320	-1.040	0.410
2020/01/31 10:53:38.3	295.020	0.320	-1.040	0.410
2020/01/31 10:53:38.4	295.040	0.330	-1.040	0.410
2020/01/31 10:53:38.5	295.050	0.340	-1.040	0.410
2020/01/31 10:53:38.6	295.070	0.340	-1.040	0.410
2020/01/31 10:53:38.7	295.090	0.350	-1.030	0.400
2020/01/31 10:53:38.8	295.100	0.350	-1.010	0.400
2020/01/31 10:53:38.9	295.120	0.350	-1.000	0.400
2020/01/31 10:53:39.0	295.140	0.340	-0.970	0.400
2020/01/31 10:53:39.1	295.150	0.340	-0.950	0.400
2020/01/31 10:53:39.2	295.170	0.330	-0.920	0.390
2020/01/31 10:53:39.3	295.180	0.320	-0.880	0.390
2020/01/31 10:53:39.4	295.190	0.310	-0.840	0.390
2020/01/31 10:53:39.5	295.200	0.300	-0.800	0.390
2020/01/31 10:53:39.6	295.210	0.290	-0.750	0.390
2020/01/31 10:53:39.7	295.220	0.270	-0.700	0.400
2020/01/31 10:53:39.8	295.230	0.250	-0.640	0.400
2020/01/31 10:53:39.9	295.230	0.230	-0.580	0.410
2020/01/31 10:53:40.0	295.230	0.210	-0.520	0.410
2020/01/31 10:53:40.1	295.240	0.190	-0.450	0.420
2020/01/31 10:53:40.2	295.230	0.160	-0.380	0.430
2020/01/31 10:53:40.3	295.230	0.140	-0.310	0.440
2020/01/31 10:53:40.4	295.230	0.110	-0.240	0.450
2020/01/31 10:53:40.5	295.220	0.080	-0.160	0.460
2020/01/31 10:53:40.6	295.210	0.050	-0.090	0.480
2020/01/31 10:53:40.7	295.190	0.020	-0.010	0.490
2020/01/31 10:53:40.8	295.180	-0.010	0.060	0.510
2020/01/31 10:53:40.9	295.160	-0.050	0.130	0.520
2020/01/31 10:53:41.0	295.140	-0.080	0.200	0.540
2020/01/31 10:53:41.1	295.120	-0.110	0.270	0.560
2020/01/31 10:53:41.2	295.100	-0.150	0.340	0.570
2020/01/31 10:53:41.3	295.070	-0.180	0.410	0.590
2020/01/31 10:53:41.4	295.050	-0.210	0.470	0.600
2020/01/31 10:53:41.5	295.020	-0.240	0.520	0.620
2020/01/31 10:53:41.6	294.990	-0.280	0.580	0.630
2020/01/31 10:53:41.7	294.960	-0.310	0.620	0.640
2020/01/31 10:53:41.8	294.920	-0.340	0.670	0.650
2020/01/31 10:53:41.9	294.890	-0.370	0.710	0.650
2020/01/31 10:53:42.0	294.860	-0.400	0.740	0.650
2020/01/31 10:53:42.1	294.820	-0.420	0.770	0.660
2020/01/31 10:53:42.2	294.790	-0.450	0.790	0.650
2020/01/31 10:53:42.3	294.750	-0.470	0.800	0.650
2020/01/31 10:53:42.4	294.710	-0.500	0.820	0.640
2020/01/31 10:53:42.5	294.680	-0.520	0.820	0.630
2020/01/31 10:53:42.6	294.640	-0.540	0.820	0.620
2020/01/31 10:53:42.7	294.610	-0.550	0.810	0.600
2020/01/31 10:53:42.8	294.570	-0.570	0.800	0.580
2020/01/31 10:53:42.9	294.540	-0.580	0.780	0.550
2020/01/31 10:53:43.0	294.500	-0.600	0.760	0.530
2020/01/31 10:53:43.1	294.470	-0.610	0.730	0.500
2020/01/31 10:53:43.2	294.440	-0.610	0.700	0.460
2020/01/31 10:53:43.3	294.410	-0.620	0.660	0.430
2020/01/31 10:53:43.4	294.370	-0.620	0.620	0.390
2020/01/31 10:53:43.5	294.340	-0.630	0.580	0.350
2020/01/31 10:53:43.6	294.310	-0.630	0.530	0.300
2020/01/31 10:53:43.7	294.280	-0.620	0.480	0.260
2020/01/31 10:53:43.8	294.250	-0.620	0.430	0.220
2020/01/31 10:53:43.9	294.220	-0.610	0.370	0.170
2020/01/31 10:53:44.0	294.190	-0.600	0.320	0.130
2020/01/31 10:53:44.1	294.170	-0.590	0.260	0.090
2020/01/31 10:53:44.2	294.150	-0.570	0.210	0.040
2020/01/31 10:53:44.3	294.120	-0.560	0.150	-0.000
2020/01/31 10:53:44.4	294.100	-0.540	0.100	-0.040
2020/01/31 10:53:44.5	294.080	-0.520	0.040	-0.080
2020/01/31 10:53:44.6	294.070	-0.500	-0.010	-0.120
2020/01/31 10:53:44.7	294.050	-0.480	-0.070	-0.160
2020/01/31 10:53:44.8	294.040	-0.450	-0.120	-0.190
2020/01/31 10:53:44.9	294.020	-0.420	-0.170	-0.230
2020/01/31 10:53:45.0	294.010	-0.390	-0.210	-0.260
2020/01/31 10:53:45.1	294.000	-0.370	-0.260	-0.290
2020/01/31 10:53:45.2	293.990	-0.330	-0.300	-0.310
2020/01/31 10:53:45.3	293.990	-0.300	-0.340	-0.330
2020/01/31 10:53:45.4	293.980	-0.270	-0.380	-0.360
2020/01/31 10:53:45.5	293.980	-0.240	-0.420	-0.370
2020/01/31 10:53:45.6	293.980	-0.200	-0.450	-0.390
2020/01/31 10:53:45.7	293.980	-0.170	-0.480	-0.400
2020/01/31 10:53:45.8	293.990	-0.130	-0.510	-0.410
2020/01/31 10:53:45.9	293.990	-0.100	-0.540	-0.410
2020/01/31 10:53:46.0	294.000	-0.060	-0.560	-0.420
2020/01/31 10:53:46.1	294.010	-0.030	-0.580	-0.420
2020/01/31 10:53:46.2	294.020	0.000	-0.600	-0.410
2020/01/31 10:53:46.3	294.030	0.040	-0.620	-0.410
2020/01/31 10:53:46.4	294.040	0.070	-0.630	-0.400
2020/01/31 10:53:46.5	294.070	0.110	-0.650	-0.380
2020/01/31 10:53:46.6	294.080	0.140	-0.660	-0.360
2020/01/31 10:53:46.7	294.100	0.170	-0.670	-0.350
2020/01/31 10:53:46.8	294.120	0.210	-0.670	-0.320
2020/01/31 10:53:46.9	294.150	0.240	-0.670	-0.300
2020/01/31 10:53:47.0	294.170	0.270	-0.670	-0.270
2020/01/31 10:53:47.1	294.190	0.300	-0.670	-0.250
2020/01/31 10:53:47.2	294.220	0.330	-0.670	-0.220
2020/01/31 10:53:47.3	294.250	0.360	-0.660	-0.180
2020/01/31 10:53:47.4	294.280	0.380	-0.660	-0.150
2020/01/31 10:53:47.5	294.310	0.410	-0.650	-0.110
2020/01/31 10:53:47.6	294.340	0.430	-0.640	-0.070
2020/01/31 10:53:47.7	294.370	0.460	-0.630	-0.030
2020/01/31 10:53:47.8	294.400	0.480	-0.620	0.010
2020/01/31 10:53:47.9	294.430	0.500	-0.600	0.050
2020/01/31 10:53:48.0	294.460	0.520	-0.590	0.100
2020/01/31 10:53:48.1	294.490	0.530	-0.570	0.140
2020/01/31 10:53:48.2	294.520	0.550	-0.560	0.190
2020/01/31 10:53:48.3	294.540	0.560	-0.540	0.240
2020/01/31 10:53:48.4	294.570	0.580	-0.530	0.290
2020/01/31 10:53:48.5	294.600	0.590	-0.510	0.340
2020/01/31 10:53:48.6	294.620	0.600	-0.490	0.390
2020/01/31 10:53:48.7	294.650	0.600	-0.480	0.430
2020/01/31 10:53:48.8	294.670	0.610	-0.460	0.480
2020/01/31 10:53:48.9	294.690	0.610	-0.450	0.530
2020/01/31 10:53:49.0	294.710	0.620	-0.440	0.580
2020/01/31 10:53:49.1	294.730	0.620	-0.420	0.630
2020/01/31 10:53:49.2	294.750	0.620	-0.410	0.670
2020/01/31 10:53:49.3	294.760	0.610	-0.400	0.720
2020/01/31 10:53:49.4	294.770	0.610	-0.390	0.760
2020/01/31 10:53:49.5	294.780	0.600	-0.380	0.810
2020/01/31 10:53:49.6	294.790	0.590	-0.380	0.850
2020/01/31 10:53:49.7	294.790	0.590	-0.370	0.900
2020/01/31 10:53:49.8	294.790	0.570	-0.370	0.940
2020/01/31 10:53:49.9	294.790	0.560	-0.360	0.980
2020/01/31 10:53:50.0	294.790	0.550	-0.360	1.010
2020/01/31 10:53:50.1	294.780	0.530	-0.360	1.050
2020/01/31 10:53:50.2	294.770	0.510	-0.360	1.080
2020/01/31 10:53:50.3	294.760	0.500	-0.360	1.120
2020/01/31 10:53:50.4	294.750	0.480	-0.370	1.150
2020/01/31 10:53:50.5	294.730	0.460	-0.370	1.170
2020/01/31 10:53:50.6	294.710	0.430	-0.370	1.200
2020/01/31 10:53:50.7	294.700	0.410	-0.380	1.220
2020/01/31 10:53:50.8	294.680	0.390	-0.390	1.230
2020/01/31 10:53:50.9	294.660	0.360	-0.390	1.250
2020/01/31 10:53:51.0	294.630	0.330	-0.400	1.250
2020/01/31 10:53:51.1	294.610	0.310	-0.410	1.260
2020/01/31 10:53:51.2	294.590	0.280	-0.410	1.260
2020/01/31 10:53:51.3	294.560	0.250	-0.420	1.250
2020/01/31 10:53:51.4	294.540	0.220	-0.430	1.240
2020/01/31 10:53:51.5	294.510	0.190	-0.430	1.230
2020/01/31 10:53:51.6	294.490	0.160	-0.440	1.210
2020/01/31 10:53:51.7	294.460	0.130	-0.440	1.190
2020/01/31 10:53:51.8	294.440	0.100	-0.450	1.170
2020/01/31 10:53:51.9	294.410	0.070	-0.450	1.140
2020/01/31 10:53:52.0	294.380	0.040	-0.460	1.100
2020/01/31 10:53:52.1	294.360	0.010	-0.460	1.070
2020/01/31 10:53:52.2	294.330	-0.020	-0.460	1.030
2020/01/31 10:53:52.3	294.310	-0.050	-0.460	0.990
2020/01/31 10:53:52.4	294.280	-0.090	-0.460	0.950
2020/01/31 10:53:52.5	294.270	-0.120	-0.460	0.900
2020/01/31 10:53:52.6	294.240	-0.140	-0.460	0.860
2020/01/31 10:53:52.7	294.220	-0.170	-0.450	0.810
2020/01/31 10:53:52.8	294.200	-0.200	-0.450	0.770
2020/01/31 10:53:52.9	294.180	-0.230	-0.440	0.720
2020/01/31 10:53:53.0	294.160	-0.260	-0.430	0.680
2020/01/31 10:53:53.1	294.140	-0.280	-0.420	0.630
2020/01/31 10:53:53.2	294.120	-0.310	-0.410	0.590
2020/01/31 10:53:53.3	294.100	-0.330	-0.400	0.540
2020/01/31 10:53:53.4	294.080	-0.350	-0.390	0.500
2020/01/31 10:53:53.5	294.070	-0.370	-0.370	0.460
2020/01/31 10:53:53.6	294.050	-0.390	-0.360	0.420
2020/01/31 10:53:53.7	294.040	-0.410	-0.340	0.380
2020/01/31 10:53:53.8	294.020	-0.430	-0.320	0.340
2020/01/31 10:53:53.9	294.010	-0.440	-0.300	0.310
2020/01/31 10:53:54.0	294.000	-0.450	-0.280	0.270
2020/01/31 10:53:54.1	293.990	-0.460	-0.260	0.240
2020/01/31 10:53:54.2	293.980	-0.470	-0.240	0.210
2020/01/31 10:53:54.3	293.970	-0.480	-0.220	0.190
2020/01/31 10:53:54.4	293.960	-0.490	-0.200	0.160
2020/01/31 10:53:54.5	293.940	-0.490	-0.190	0.140
2020/01/31 10:53:54.6	293.930	-0.500	-0.170	0.120
2020/01/31 10:53:54.7	293.930	-0.500	-0.150	0.110
2020/01/31 10:53:54.8	293.920	-0.500	-0.130	0.100
2020/01/31 10:53:54.9	293.910	-0.500	-0.110	0.090
2020/01/31 10:53:55.0	293.910	-0.500	-0.090	0.090
2020/01/31 10:53:55.1	293.900	-0.490	-0.070	0.090
2020/01/31 10:53:55.2	293.900	-0.490	-0.060	0.090
2020/01/31 10:53:55.3	293.890	-0.480	-0.040	0.090
2020/01/31 10:53:55.4	293.890	-0.470	-0.020	0.100
2020/01/31 10:53:55.5	293.880	-0.460	-0.010	0.110
2020/01/31 10:53:55.6	293.880	-0.450	0.000	0.120
2020/01/31 10:53:55.7	293.870	-0.440	0.020	0.140
2020/01/31 10:53:55.8	293.870	-0.430	0.030	0.150
2020/01/31 10:53:55.9	293.870	-0.420	0.050	0.170
2020/01/31 10:53:56.0	293.870	-0.400	0.060	0.190
2020/01/31 10:53:56.1	293.870	-0.390	0.080	0.210
2020/01/31 10:53:56.2	293.870	-0.380	0.090	0.220
2020/01/31 10:53:56.3	293.870	-0.360	0.100	0.240
2020/01/31 10:53:56.4	293.870	-0.350	0.120	0.260
2020/01/31 10:53:56.5	293.870	-0.330	0.130	0.280
2020/01/31 10:53:56.6	293.880	-0.320	0.140	0.300
2020/01/31 10:53:56.7	293.880	-0.300	0.150	0.310
2020/01/31 10:53:56.8	293.890	-0.280	0.170	0.330
2020/01/31 10:53:56.9	293.900	-0.270	0.180	0.350
2020/01/31 10:53:57.0	293.910	-0.250	0.190	0.360
2020/01/31 10:53:57.1	293.920	-0.230	0.210	0.370
2020/01/31 10:53:57.2	293.940	-0.220	0.220	0.390
2020/01/31 10:53:57.3	293.950	-0.200	0.230	0.400
2020/01/31 10:53:57.4	293.960	-0.180	0.240	0.410
2020/01/31 10:53:57.5	293.980	-0.160	0.250	0.420
2020/01/31 10:53:57.6	294.000	-0.150	0.260	0.430
2020/01/31 10:53:57.7	294.010	-0.130	0.260	0.440
2020/01/31 10:53:57.8	294.030	-0.110	0.270	0.460
2020/01/31 10:53:57.9	294.050	-0.090	0.270	0.460
2020/01/31 10:53:58.0	294.060	-0.070	0.280	0.470
2020/01/31 10:53:58.1	294.080	-0.050	0.280	0.480
2020/01/31 10:53:58.2	294.090	-0.030	0.280	0.490
2020/01/31 10:53:58.3	294.110	-0.010	0.270	0.500
2020/01/31 10:53:58.4	294.120	0.010	0.270	0.510
2020/01/31 10:53:58.5	294.120	0.030	0.260	0.520
2020/01/31 10:53:58.6	294.130	0.050	0.250	0.530
2020/01/31 10:53:58.7	294.140	0.070	0.240	0.530
2020/01/31 10:53:58.8	294.150	0.090	0.230	0.540
2020/01/31 10:53:58.9	294.160	0.110	0.210	0.550
2020/01/31 10:53:59.0	294.160	0.130	0.200	0.560
2020/01/31 10:53:59.1	294.160	0.150	0.180	0.570
2020/01/31 10:53:59.2	294.170	0.170	0.160	0.570
2020/01/31 10:53:59.3	294.170	0.200	0.140	0.580
2020/01/31 10:53:59.4	294.170	0.220	0.120	0.590
2020/01/31 10:53:59.5	294.160	0.240	0.100	0.600
2020/01/31 10:53:59.6	294.160	0.250	0.080	0.610
2020/01/31 10:53:59.7	294.150	0.270	0.060	0.610
2020/01/31 10:53:59.8	294.150	0.290	0.040	0.620
2020/01/31 10:53:59.9	294.140	0.310	0.010	0.630
2020/01/31 10:54:00.0	294.130	0.330	-0.010	0.640
2020/01/31 10:54:00.1	294.120	0.340	-0.030	0.640
2020/01/31 10:54:00.2	294.110	0.360	-0.060	0.650
2020/01/31 10:54:00.3	294.100	0.370	-0.080	0.650
2020/01/31 10:54:00.4	294.090	0.380	-0.100	0.660
2020/01/31 10:54:00.5	294.070	0.400	-0.130	0.670
2020/01/31 10:54:00.6	294.060	0.410	-0.150	0.670
2020/01/31 10:54:00.7	294.040	0.420	-0.170	0.670
2020/01/31 10:54:00.8	294.030	0.430	-0.200	0.680
2020/01/31 10:54:00.9	294.010	0.440	-0.220	0.680
2020/01/31 10:54:01.0	294.000	0.440	-0.250	0.680
2020/01/31 10:54:01.1	293.980	0.450	-0.270	0.670
2020/01/31 10:54:01.2	293.970	0.450	-0.300	0.670
2020/01/31 10:54:01.3	293.950	0.460	-0.320	0.670
2020/01/31 10:54:01.4	293.930	0.460	-0.350	0.660
2020/01/31 10:54:01.5	293.910	0.470	-0.380	0.650
2020/01/31 10:54:01.6	293.900	0.470	-0.400	0.640
2020/01/31 10:54:01.7	293.880	0.470	-0.430	0.630
2020/01/31 10:54:01.8	293.870	0.470	-0.460	0.620
2020/01/31 10:54:01.9	293.850	0.470	-0.480	0.600
2020/01/31 10:54:02.0	293.840	0.470	-0.510	0.590
2020/01/31 10:54:02.1	293.830	0.470	-0.540	0.570
2020/01/31 10:54:02.2	293.820	0.470	-0.570	0.550
2020/01/31 10:54:02.3	293.810	0.460	-0.610	0.530
2020/01/31 10:54:02.4	293.810	0.460	-0.640	0.500
2020/01/31 10:54:02.5	293.800	0.450	-0.670	0.480
2020/01/31 10:54:02.6	293.800	0.450	-0.700	0.450
2020/01/31 10:54:02.7	293.800	0.440	-0.730	0.430
2020/01/31 10:54:02.8	293.800	0.440	-0.770	0.400
2020/01/31 10:54:02.9	293.800	0.430	-0.800	0.370
2020/01/31 10:54:03.0	293.800	0.420	-0.830	0.340
2020/01/31 10:54:03.1	293.800	0.410	-0.860	0.310
2020/01/31 10:54:03.2	293.810	0.400	-0.890	0.270
2020/01/31 10:54:03.3	293.810	0.390	-0.920	0.240
2020/01/31 10:54:03.4	293.820	0.380	-0.950	0.210
2020/01/31 10:54:03.5	293.810	0.360	-0.980	0.170
2020/01/31 10:54:03.6	293.820	0.350	-1.010	0.140
2020/01/31 10:54:03.7	293.830	0.330	-1.030	0.110
2020/01/31 10:54:03.8	293.840	0.310	-1.050	0.070
2020/01/31 10:54:03.9	293.850	0.300	-1.070	0.040
2020/01/31 10:54:04.0	293.870	0.280	-1.090	0.010
2020/01/31 10:54:04.1	293.880	0.260	-1.100	-0.020
2020/01/31 10:54:04.2	293.890	0.240	-1.110	-0.050
2020/01/31 10:54:04.3	293.900	0.210	-1.110	-0.080
2020/01/31 10:54:04.4	293.910	0.190	-1.120	-0.110
2020/01/31 10:54:04.5	293.920	0.160	-1.110	-0.140
2020/01/31 10:54:04.6	293.930	0.140	-1.110	-0.160
2020/01/31 10:54:04.7	293.940	0.110	-1.100	-0.190
2020/01/31 10:54:04.8	293.950	0.080	-1.090	-0.210
2020/01/31 10:54:04.9	293.960	0.050	-1.070	-0.230
2020/01/31 10:54:05.0	293.970	0.020	-1.050	-0.250
2020/01/31 10:54:05.1	293.970	-0.010	-1.030	-0.270
2020/01/31 10:54:05.2	293.980	-0.040	-1.000	-0.290
2020/01/31 10:54:05.3	293.990	-0.070	-0.970	-0.310
2020/01/31 10:54:05.4	293.990	-0.110	-0.940	-0.320
2020/01/31 10:54:05.5	294.000	-0.140	-0.900	-0.330
2020/01/31 10:54:05.6	294.000	-0.170	-0.860	-0.340
2020/01/31 10:54:05.7	294.000	-0.210	-0.820	-0.350
2020/01/31 10:54:05.8	294.000	-0.240	-0.780	-0.360
2020/01/31 10:54:05.9	294.000	-0.270	-0.730	-0.360
2020/01/31 10:54:06.0	294.000	-0.310	-0.680	-0.360
2020/01/31 10:54:06.1	294.000	-0.340	-0.640	-0.360
2020/01/31 10:54:06.2	294.000	-0.370	-0.580	-0.360
2020/01/31 10:54:06.3	293.990	-0.400	-0.530	-0.350
2020/01/31 10:54:06.4	293.980	-0.430	-0.480	-0.350
2020/01/31 10:54:06.5	293.980	-0.460	-0.420	-0.330
2020/01/31 10:54:06.6	293.970	-0.490	-0.370	-0.320
2020/01/31 10:54:06.7	293.960	-0.510	-0.310	-0.310
2020/01/31 10:54:06.8	293.950	-0.540	-0.250	-0.290
2020/01/31 10:54:06.9	293.930	-0.560	-0.200	-0.270
2020/01/31 10:54:07.0	293.920	-0.580	-0.140	-0.240
2020/01/31 10:54:07.1	293.900	-0.600	-0.080	-0.220
2020/01/31 10:54:07.2	293.880	-0.620	-0.030	-0.190
2020/01/31 10:54:07.3	293.860	-0.640	0.030	-0.160
2020/01/31 10:54:07.4	293.840	-0.650	0.090	-0.130
2020/01/31 10:54:07.5	293.820	-0.670	0.140	-0.090
2020/01/31 10:54:07.6	293.800	-0.680	0.190	-0.060
2020/01/31 10:54:07.7	293.780	-0.680	0.240	-0.020
2020/01/31 10:54:07.8	293.750	-0.690	0.290	0.010
2020/01/31 10:54:07.9	293.730	-0.690	0.340	0.050
2020/01/31 10:54:08.0	293.710	-0.700	0.390	0.090
2020/01/31 10:54:08.1	293.680	-0.700	0.430	0.130
2020/01/31 10:54:08.2	293.660	-0.690	0.470	0.170
2020/01/31 10:54:08.3	293.640	-0.690	0.510	0.210
2020/01/31 10:54:08.4	293.620	-0.680	0.550	0.250
2020/01/31 10:54:08.5	293.590	-0.670	0.580	0.280
2020/01/31 10:54:08.6	293.570	-0.660	0.610	0.330
2020/01/31 10:54:08.7	293.550	-0.650	0.640	0.370
2020/01/31 10:54:08.8	293.530	-0.630	0.660	0.410
2020/01/31 10:54:08.9	293.510	-0.620	0.680	0.450
2020/01/31 10:54:09.0	293.490	-0.600	0.700	0.490
2020/01/31 10:54:09.1	293.470	-0.580	0.720	0.540
2020/01/31 10:54:09.2	293.450	-0.550	0.730	0.580
2020/01/31 10:54:09.3	293.430	-0.530	0.740	0.620
2020/01/31 10:54:09.4	293.410	-0.500	0.750	0.670
2020/01/31 10:54:09.5	293.380	-0.480	0.750	0.710
2020/01/31 10:54:09.6	293.360	-0.450	0.760	0.760
2020/01/31 10:54:09.7	293.340	-0.420	0.750	0.800
2020/01/31 10:54:09.8	293.320	-0.390	0.750	0.840
2020/01/31 10:54:09.9	293.300	-0.360	0.740	0.880
2020/01/31 10:54:10.0	293.280	-0.320	0.730	0.920
2020/01/31 10:54:10.1	293.260	-0.290	0.720	0.960
2020/01/31 10:54:10.2	293.240	-0.260	0.700	0.990
2020/01/31 10:54:10.3	293.230	-0.220	0.680	1.020
2020/01/31 10:54:10.4	293.210	-0.190	0.660	1.060
2020/01/31 10:54:10.5	293.180	-0.150	0.640	1.080
2020/01/31 10:54:10.6	293.170	-0.120	0.610	1.110
2020/01/31 10:54:10.7	293.160	-0.080	0.580	1.130
2020/01/31 10:54:10.8	293.140	-0.050	0.550	1.150
2020/01/31 10:54:10.9	293.130	-0.010	0.510	1.170
2020/01/31 10:54:11.0	293.120	0.020	0.470	1.190
2020/01/31 10:54:11.1	293.110	0.060	0.430	1.200
2020/01/31 10:54:11.2	293.100	0.090	0.390	1.210
2020/01/31 10:54:11.3	293.090	0.120	0.340	1.210
2020/01/31 10:54:11.4	293.090	0.160	0.300	1.210
2020/01/31 10:54:11.5	293.080	0.190	0.250	1.210
2020/01/31 10:54:11.6	293.080	0.220	0.200	1.210
2020/01/31 10:54:11.7	293.080	0.250	0.150	1.200
2020/01/31 10:54:11.8	293.080	0.280	0.090	1.180
2020/01/31 10:54:11.9	293.080	0.310	0.040	1.170
2020/01/31 10:54:12.0	293.080	0.340	-0.020	1.150
2020/01/31 10:54:12.1	293.090	0.370	-0.070	1.120
2020/01/31 10:54:12.2	293.090	0.400	-0.130	1.100
2020/01/31 10:54:12.3	293.100	0.420	-0.180	1.070
2020/01/31 10:54:12.4	293.110	0.450	-0.240	1.040
2020/01/31 10:54:12.5	293.120	0.470	-0.300	1.010
2020/01/31 10:54:12.6	293.140	0.500	-0.360	0.970
2020/01/31 10:54:12.7	293.150	0.520	-0.410	0.940
2020/01/31 10:54:12.8	293.170	0.540	-0.470	0.900
2020/01/31 10:54:12.9	293.190	0.560	-0.520	0.860
2020/01/31 10:54:13.0	293.200	0.580	-0.580	0.820
2020/01/31 10:54:13.1	293.230	0.600	-0.630	0.780
2020/01/31 10:54:13.2	293.250	0.610	-0.680	0.750
2020/01/31 10:54:13.3	293.270	0.630	-0.730	0.710
2020/01/31 10:54:13.4	293.300	0.640	-0.780	0.670
2020/01/31 10:54:13.5	293.330	0.660	-0.830	0.630
2020/01/31 10:54:13.6	293.350	0.670	-0.870	0.590
2020/01/31 10:54:13.7	293.380	0.680	-0.910	0.550
2020/01/31 10:54:13.8	293.400	0.690	-0.950	0.520
2020/01/31 10:54:13.9	293.430	0.690	-0.990	0.480
2020/01/31 10:54:14.0	293.460	0.700	-1.030	0.440
2020/01/31 10:54:14.1	293.480	0.700	-1.060	0.410
2020/01/31 10:54:14.2	293.510	0.700	-1.090	0.380
2020/01/31 10:54:14.3	293.530	0.700	-1.120	0.350
2020/01/31 10:54:14.4	293.550	0.700	-1.140	0.320
2020/01/31 10:54:14.5	293.580	0.690	-1.160	0.290
2020/01/31 10:54:14.6	293.600	0.690	-1.180	0.270
2020/01/31 10:54:14.7	293.620	0.680	-1.200	0.250
2020/01/31 10:54:14.8	293.630	0.670	-1.210	0.230
2020/01/31 10:54:14.9	293.650	0.660	-1.220	0.210
2020/01/31 10:54:15.0	293.660	0.650	-1.220	0.200
2020/01/31 10:54:15.1	293.680	0.630	-1.220	0.190
2020/01/31 10:54:15.2	293.690	0.610	-1.220	0.180
2020/01/31 10:54:15.3	293.700	0.590	-1.220	0.170
2020/01/31 10:54:15.4	293.710	0.570	-1.210	0.170
2020/01/31 10:54:15.5	293.720	0.550	-1.190	0.170
2020/01/31 10:54:15.6	293.720	0.530	-1.180	0.170
2020/01/31 10:54:15.7	293.730	0.500	-1.160	0.170
2020/01/31 10:54:15.8	293.730	0.470	-1.130	0.180
2020/01/31 10:54:15.9	293.730	0.440	-1.110	0.190
2020/01/31 10:54:16.0	293.730	0.410	-1.080	0.200
2020/01/31 10:54:16.1	293.720	0.380	-1.040	0.210
2020/01/31 10:54:16.2	293.720	0.350	-1.010	0.220
2020/01/31 10:54:16.3	293.710	0.310	-0.970	0.240
2020/01/31 10:54:16.4	293.700	0.280	-0.930	0.250
2020/01/31 10:54:16.5	293.700	0.240	-0.880	0.270
2020/01/31 10:54:16.6	293.690	0.210	-0.830	0.290
2020/01/31 10:54:16.7	293.670	0.170	-0.790	0.310
2020/01/31 10:54:16.8	293.660	0.130	-0.730	0.330
2020/01/31 10:54:16.9	293.640	0.090	-0.680	0.350
2020/01/31 10:54:17.0	293.620	0.060	-0.630	0.380
2020/01/31 10:54:17.1	293.600	0.020	-0.570	0.400
2020/01/31 10:54:17.2	293.580	-0.020	-0.520	0.420
2020/01/31 10:54:17.3	293.560	-0.060	-0.460	0.450
2020/01/31 10:54:17.4	293.540	-0.090	-0.400	0.470
2020/01/31 10:54:17.5	293.520	-0.130	-0.340	0.490
2020/01/31 10:54:17.6	293.490	-0.170	-0.280	0.520
2020/01/31 10:54:17.7	293.470	-0.200	-0.230	0.540
2020/01/31 10:54:17.8	293.440	-0.240	-0.170	0.560
2020/01/31 10:54:17.9	293.420	-0.270	-0.120	0.580
2020/01/31 10:54:18.0	293.390	-0.300	-0.060	0.600
2020/01/31 10:54:18.1	293.360	-0.340	-0.010	0.620
2020/01/31 10:54:18.2	293.330	-0.370	0.050	0.640
2020/01/31 10:54:18.3	293.300	-0.390	0.100	0.660
2020/01/31 10:54:18.4	293.270	-0.420	0.150	0.680
2020/01/31 10:54:18.5	293.230	-0.450	0.190	0.700
2020/01/31 10:54:18.6	293.210	-0.470	0.240	0.710
2020/01/31 10:54:18.7	293.180	-0.490	0.280	0.730
2020/01/31 10:54:18.8	293.150	-0.520	0.330	0.740
2020/01/31 10:54:18.9	293.120	-0.530	0.370	0.750
2020/01/31 10:54:19.0	293.100	-0.550	0.400	0.760
2020/01/31 10:54:19.1	293.070	-0.570	0.430	0.760
2020/01/31 10:54:19.2	293.050	-0.580	0.470	0.770
2020/01/31 10:54:19.3	293.030	-0.590	0.490	0.770
2020/01/31 10:54:19.4	293.010	-0.600	0.520	0.770
2020/01/31 10:54:19.5	292.990	-0.610	0.540	0.770
2020/01/31 10:54:19.6	292.970	-0.620	0.550	0.760
2020/01/31 10:54:19.7	292.960	-0.620	0.560	0.750
2020/01/31 10:54:19.8	292.950	-0.630	0.570	0.750
2020/01/31 10:54:19.9	292.930	-0.630	0.580	0.730
2020/01/31 10:54:20.0	292.920	-0.630	0.580	0.720
2020/01/31 10:54:20.1	292.920	-0.630	0.570	0.700
2020/01/31 10:54:20.2	292.910	-0.630	0.570	0.690
2020/01/31 10:54:20.3	292.900	-0.620	0.560	0.670
2020/01/31 10:54:20.4	292.900	-0.620	0.540	0.650
2020/01/31 10:54:20.5	292.890	-0.610	0.530	0.630
2020/01/31 10:54:20.6	292.890	-0.600	0.510	0.600
2020/01/31 10:54:20.7	292.890	-0.590	0.480	0.580
2020/01/31 10:54:20.8	292.890	-0.580	0.460	0.560
2020/01/31 10:54:20.9	292.890	-0.570	0.430	0.530
2020/01/31 10:54:21.0	292.880	-0.560	0.400	0.510
2020/01/31 10:54:21.1	292.880	-0.550	0.370	0.490
2020/01/31 10:54:21.2	292.880	-0.530	0.330	0.470
2020/01/31 10:54:21.3	292.880	-0.520	0.300	0.450
2020/01/31 10:54:21.4	292.880	-0.510	0.260	0.430
2020/01/31 10:54:21.5	292.870	-0.490	0.220	0.400
2020/01/31 10:54:21.6	292.870	-0.470	0.180	0.380
2020/01/31 10:54:21.7	292.880	-0.460	0.140	0.370
2020/01/31 10:54:21.8	292.880	-0.440	0.100	0.350
2020/01/31 10:54:21.9	292.880	-0.430	0.050	0.330
2020/01/31 10:54:22.0	292.880	-0.410	0.010	0.320
2020/01/31 10:54:22.1	292.890	-0.390	-0.040	0.300
2020/01/31 10:54:22.2	292.890	-0.380	-0.080	0.290
2020/01/31 10:54:22.3	292.900	-0.360	-0.130	0.270
2020/01/31 10:54:22.4	292.900	-0.340	-0.170	0.260
2020/01/31 10:54:22.5	292.910	-0.330	-0.220	0.250
2020/01/31 10:54:22.6	292.920	-0.310	-0.260	0.240
2020/01/31 10:54:22.7	292.920	-0.290	-0.310	0.230
2020/01/31 10:54:22.8	292.940	-0.270	-0.350	0.220
2020/01/31 10:54:22.9	292.950	-0.260	-0.390	0.210
2020/01/31 10:54:23.0	292.960	-0.240	-0.420	0.200
2020/01/31 10:54:23.1	292.970	-0.220	-0.460	0.190
2020/01/31 10:54:23.2	292.990	-0.200	-0.490	0.180
2020/01/31 10:54:23.3	293.010	-0.190	-0.530	0.180
2020/01/31 10:54:23.4	293.020	-0.170	-0.560	0.170
2020/01/31 10:54:23.5	293.050	-0.150	-0.580	0.160
2020/01/31 10:54:23.6	293.070	-0.130	-0.600	0.150
2020/01/31 10:54:23.7	293.090	-0.110	-0.630	0.140
2020/01/31 10:54:23.8	293.110	-0.090	-0.640	0.140
2020/01/31 10:54:23.9	293.130	-0.070	-0.660	0.130
2020/01/31 10:54:24.0	293.160	-0.050	-0.670	0.120
2020/01/31 10:54:24.1	293.180	-0.030	-0.680	0.120
2020/01/31 10:54:24.2	293.210	-0.010	-0.690	0.110
2020/01/31 10:54:24.3	293.230	0.010	-0.690	0.110
2020/01/31 10:54:24.4	293.260	0.030	-0.700	0.100
2020/01/31 10:54:24.5	293.290	0.050	-0.700	0.100
2020/01/31 10:54:24.6	293.320	0.080	-0.700	0.100
2020/01/31 10:54:24.7	293.350	0.100	-0.690	0.100
2020/01/31 10:54:24.8	293.380	0.120	-0.690	0.100
2020/01/31 10:54:24.9	293.410	0.140	-0.680	0.100
2020/01/31 10:54:25.0	293.440	0.170	-0.670	0.100
2020/01/31 10:54:25.1	293.460	0.190	-0.660	0.110
2020/01/31 10:54:25.2	293.490	0.220	-0.640	0.120
2020/01/31 10:54:25.3	293.520	0.240	-0.630	0.120
2020/01/31 10:54:25.4	293.550	0.260	-0.610	0.130
2020/01/31 10:54:25.5	293.570	0.290	-0.600	0.150
2020/01/31 10:54:25.6	293.600	0.310	-0.580	0.160
2020/01/31 10:54:25.7	293.630	0.330	-0.560	0.180
2020/01/31 10:54:25.8	293.650	0.360	-0.540	0.190
2020/01/31 10:54:25.9	293.680	0.380	-0.520	0.210
2020/01/31 10:54:26.0	293.700	0.400	-0.500	0.240
2020/01/31 10:54:26.1	293.720	0.420	-0.480	0.260
2020/01/31 10:54:26.2	293.740	0.450	-0.450	0.290
2020/01/31 10:54:26.3	293.760	0.470	-0.430	0.320
2020/01/31 10:54:26.4	293.780	0.490	-0.410	0.350
2020/01/31 10:54:26.5	293.800	0.500	-0.390	0.380
2020/01/31 10:54:26.6	293.810	0.520	-0.360	0.420
2020/01/31 10:54:26.7	293.830	0.540	-0.340	0.450
2020/01/31 10:54:26.8	293.830	0.550	-0.310	0.490
2020/01/31 10:54:26.9	293.840	0.570	-0.290	0.530
2020/01/31 10:54:27.0	293.850	0.580	-0.270	0.580
2020/01/31 10:54:27.1	293.850	0.590	-0.250	0.620
2020/01/31 10:54:27.2	293.850	0.600	-0.220	0.670
2020/01/31 10:54:27.3	293.850	0.610	-0.200	0.710
2020/01/31 10:54:27.4	293.840	0.610	-0.180	0.760
2020/01/31 10:54:27.5	293.840	0.620	-0.160	0.810
2020/01/31 10:54:27.6	293.830	0.620	-0.150	0.850
2020/01/31 10:54:27.7	293.820	0.620	-0.130	0.900
2020/01/31 10:54:27.8	293.800	0.620	-0.110	0.940
2020/01/31 10:54:27.9	293.790	0.610	-0.100	0.980
2020/01/31 10:54:28.0	293.770	0.610	-0.080	1.020
2020/01/31 10:54:28.1	293.750	0.600	-0.070	1.060
2020/01/31 10:54:28.2	293.730	0.590	-0.060	1.090
2020/01/31 10:54:28.3	293.710	0.580	-0.040	1.130
2020/01/31 10:54:28.4	293.690	0.570	-0.030	1.160
2020/01/31 10:54:28.5	293.670	0.550	-0.020	1.180
2020/01/31 10:54:28.6	293.640	0.540	-0.020	1.210
2020/01/31 10:54:28.7	293.620	0.520	-0.010	1.230
2020/01/31 10:54:28.8	293.590	0.500	-0.000	1.250
2020/01/31 10:54:28.9	293.560	0.480	0.000	1.260
2020/01/31 10:54:29.0	293.540	0.460	0.010	1.270
2020/01/31 10:54:29.1	293.510	0.440	0.010	1.280
2020/01/31 10:54:29.2	293.480	0.420	0.010	1.280
2020/01/31 10:54:29.3	293.450	0.390	0.020	1.280
2020/01/31 10:54:29.4	293.420	0.360	0.020	1.270
2020/01/31 10:54:29.5	293.400	0.340	0.020	1.260
2020/01/31 10:54:29.6	293.370	0.310	0.010	1.250
2020/01/31 10:54:29.7	293.340	0.280	0.010	1.230
2020/01/31 10:54:29.8	293.310	0.250	0.010	1.220
2020/01/31 10:54:29.9	293.290	0.220	0.000	1.190
2020/01/31 10:54:30.0	293.260	0.190	-0.000	1.170
2020/01/31 10:54:30.1	293.240	0.160	-0.010	1.140
2020/01/31 10:54:30.2	293.220	0.130	-0.020	1.110
2020/01/31 10:54:30.3	293.190	0.100	-0.030	1.080
2020/01/31 10:54:30.4	293.170	0.080	-0.040	1.050
2020/01/31 10:54:30.5	293.160	0.050	-0.040	1.010
2020/01/31 10:54:30.6	293.140	0.020	-0.060	0.980
2020/01/31 10:54:30.7	293.120	-0.010	-0.070	0.940
2020/01/31 10:54:30.8	293.110	-0.030	-0.080	0.900
2020/01/31 10:54:30.9	293.090	-0.060	-0.090	0.860
2020/01/31 10:54:31.0	293.080	-0.090	-0.110	0.830
2020/01/31 10:54:31.1	293.070	-0.110	-0.120	0.790
2020/01/31 10:54:31.2	293.060	-0.130	-0.140	0.750
2020/01/31 10:54:31.3	293.050	-0.150	-0.150	0.710
2020/01/31 10:54:31.4	293.050	-0.170	-0.160	0.670
2020/01/31 10:54:31.5	293.040	-0.190	-0.180	0.630
2020/01/31 10:54:31.6	293.030	-0.210	-0.200	0.590
2020/01/31 10:54:31.7	293.030	-0.230	-0.210	0.550
2020/01/31 10:54:31.8	293.030	-0.250	-0.220	0.510
2020/01/31 10:54:31.9	293.020	-0.260	-0.240	0.480
2020/01/31 10:54:32.0	293.030	-0.280	-0.250	0.440
2020/01/31 10:54:32.1	293.030	-0.290	-0.260	0.400
2020/01/31 10:54:32.2	293.030	-0.300	-0.270	0.360
2020/01/31 10:54:32.3	293.040	-0.320	-0.290	0.320
2020/01/31 10:54:32.4	293.040	-0.330	-0.300	0.290
2020/01/31 10:54:32.5	293.040	-0.340	-0.310	0.260
2020/01/31 10:54:32.6	293.050	-0.350	-0.330	0.220
2020/01/31 10:54:32.7	293.060	-0.360	-0.340	0.180
2020/01/31 10:54:32.8	293.070	-0.370	-0.350	0.150
2020/01/31 10:54:32.9	293.080	-0.370	-0.370	0.110
2020/01/31 10:54:33.0	293.100	-0.380	-0.380	0.080
2020/01/31 10:54:33.1	293.110	-0.390	-0.390	0.050
2020/01/31 10:54:33.2	293.130	-0.390	-0.410	0.010
2020/01/31 10:54:33.3	293.140	-0.400	-0.420	-0.020
2020/01/31 10:54:33.4	293.160	-0.400	-0.440	-0.050
2020/01/31 10:54:33.5	293.180	-0.410	-0.450	-0.080
2020/01/31 10:54:33.6	293.200	-0.410	-0.470	-0.120
2020/01/31 10:54:33.7	293.220	-0.420	-0.480	-0.150
2020/01/31 10:54:33.8	293.240	-0.420	-0.500	-0.170
2020/01/31 10:54:33.9	293.260	-0.420	-0.510	-0.200
2020/01/31 10:54:34.0	293.280	-0.420	-0.530	-0.230
2020/01/31 10:54:34.1	293.300	-0.430	-0.540	-0.260
2020/01/31 10:54:34.2	293.320	-0.430	-0.550	-0.280
2020/01/31 10:54:34.3	293.350	-0.430	-0.570	-0.310
2020/01/31 10:54:34.4	293.370	-0.430	-0.580	-0.330
2020/01/31 10:54:34.5	293.390	-0.430	-0.590	-0.360
2020/01/31 10:54:34.6	293.410	-0.430	-0.600	-0.380
2020/01/31 10:54:34.7	293.430	-0.430	-0.610	-0.400
2020/01/31 10:54:34.8	293.450	-0.430	-0.620	-0.420
2020/01/31 10:54:34.9	293.480	-0.430	-0.620	-0.430
2020/01/31 10:54:35.0	293.500	-0.430	-0.620	-0.450
2020/01/31 10:54:35.1	293.520	-0.430	-0.630	-0.460
2020/01/31 10:54:35.2	293.540	-0.430	-0.620	-0.470
2020/01/31 10:54:35.3	293.560	-0.420	-0.620	-0.480
2020/01/31 10:54:35.4	293.590	-0.420	-0.620	-0.490
2020/01/31 10:54:35.5	293.600	-0.420	-0.610	-0.490
2020/01/31 10:54:35.6	293.620	-0.420	-0.600	-0.500
2020/01/31 10:54:35.7	293.640	-0.420	-0.580	-0.500
2020/01/31 10:54:35.8	293.660	-0.410	-0.570	-0.500
2020/01/31 10:54:35.9	293.680	-0.410	-0.550	-0.490
2020/01/31 10:54:36.0	293.690	-0.410	-0.530	-0.480
2020/01/31 10:54:36.1	293.710	-0.400	-0.510	-0.470
2020/01/31 10:54:36.2	293.720	-0.400	-0.480	-0.460
2020/01/31 10:54:36.3	293.730	-0.390	-0.450	-0.440
2020/01/31 10:54:36.4	293.740	-0.390	-0.420	-0.420
2020/01/31 10:54:36.5	293.740	-0.380	-0.390	-0.390
2020/01/31 10:54:36.6	293.750	-0.380	-0.360	-0.370
2020/01/31 10:54:36.7	293.760	-0.370	-0.320	-0.340
2020/01/31 10:54:36.8	293.760	-0.360	-0.290	-0.310
2020/01/31 10:54:36.9	293.760	-0.360	-0.250	-0.270
2020/01/31 10:54:37.0	293.760	-0.350	-0.210	-0.240
2020/01/31 10:54:37.1	293.760	-0.340	-0.180	-0.200
2020/01/31 10:54:37.2	293.760	-0.330	-0.140	-0.160
2020/01/31 10:54:37.3	293.760	-0.320	-0.100	-0.120
2020/01/31 10:54:37.4	293.750	-0.300	-0.070	-0.070
2020/01/31 10:54:37.5	293.740	-0.290	-0.030	-0.030
2020/01/31 10:54:37.6	293.740	-0.280	0.000	0.020
2020/01/31 10:54:37.7	293.730	-0.260	0.030	0.070
2020/01/31 10:54:37.8	293.720	-0.250	0.060	0.120
2020/01/31 10:54:37.9	293.710	-0.230	0.090	0.170
2020/01/31 10:54:38.0	293.700	-0.210	0.110	0.220
2020/01/31 10:54:38.1	293.690	-0.190	0.130	0.270
2020/01/31 10:54:38.2	293.670	-0.170	0.150	0.320
2020/01/31 10:54:38.3	293.660	-0.150	0.160	0.380
2020/01/31 10:54:38.4	293.650	-0.120	0.180	0.430
2020/01/31 10:54:38.5	293.630	-0.100	0.180	0.480
2020/01/31 10:54:38.6	293.610	-0.070	0.190	0.530
2020/01/31 10:54:38.7	293.600	-0.040	0.190	0.590
2020/01/31 10:54:38.8	293.580	-0.020	0.190	0.640
2020/01/31 10:54:38.9	293.570	0.010	0.190	0.690
2020/01/31 10:54:39.0	293.550	0.040	0.180	0.730
2020/01/31 10:54:39.1	293.540	0.070	0.170	0.780
2020/01/31 10:54:39.2	293.520	0.100	0.160	0.830
2020/01/31 10:54:39.3	293.510	0.140	0.140	0.880
2020/01/31 10:54:39.4	293.490	0.170	0.130	0.920
2020/01/31 10:54:39.5	293.470	0.200	0.110	0.960
2020/01/31 10:54:39.6	293.460	0.240	0.090	1.010
2020/01/31 10:54:39.7	293.440	0.270	0.070	1.050
2020/01/31 10:54:39.8	293.430	0.300	0.040	1.090
2020/01/31 10:54:39.9	293.420	0.340	0.020	1.120
2020/01/31 10:54:40.0	293.410	0.370	-0.000	1.160
2020/01/31 10:54:40.1	293.400	0.400	-0.020	1.190
2020/01/31 10:54:40.2	293.380	0.440	-0.050	1.220
2020/01/31 10:54:40.3	293.380	0.470	-0.070	1.250
2020/01/31 10:54:40.4	293.370	0.500	-0.090	1.280
2020/01/31 10:54:40.5	293.370	0.530	-0.120	1.310
2020/01/31 10:54:40.6	293.360	0.560	-0.140	1.330
2020/01/31 10:54:40.7	293.350	0.590	-0.160	1.350
2020/01/31 10:54:40.8	293.350	0.610	-0.180	1.370
2020/01/31 10:54:40.9	293.340	0.640	-0.190	1.390
2020/01/31 10:54:41.0	293.340	0.660	-0.210	1.400
2020/01/31 10:54:41.1	293.330	0.680	-0.220	1.410
2020/01/31 10:54:41.2	293.330	0.700	-0.230	1.420
2020/01/31 10:54:41.3	293.320	0.720	-0.240	1.420
2020/01/31 10:54:41.4	293.320	0.730	-0.250	1.430
2020/01/31 10:54:41.5	293.320	0.740	-0.260	1.430
2020/01/31 10:54:41.6	293.320	0.760	-0.260	1.420
2020/01/31 10:54:41.7	293.320	0.760	-0.270	1.410
2020/01/31 10:54:41.8	293.320	0.770	-0.270	1.400
2020/01/31 10:54:41.9	293.320	0.770	-0.280	1.390
2020/01/31 10:54:42.0	293.320	0.770	-0.280	1.380
2020/01/31 10:54:42.1	293.320	0.770	-0.280	1.360
2020/01/31 10:54:42.2	293.310	0.770	-0.280	1.340
2020/01/31 10:54:42.3	293.310	0.760	-0.280	1.310
2020/01/31 10:54:42.4	293.310	0.750	-0.280	1.290
2020/01/31 10:54:42.5	293.320	0.740	-0.280	1.260
2020/01/31 10:54:42.6	293.320	0.730	-0.280	1.230
2020/01/31 10:54:42.7	293.320	0.710	-0.280	1.190
2020/01/31 10:54:42.8	293.320	0.690	-0.280	1.160
2020/01/31 10:54:42.9	293.320	0.670	-0.270	1.120
2020/01/31 10:54:43.0	293.320	0.650	-0.270	1.080
2020/01/31 10:54:43.1	293.310	0.620	-0.270	1.040
2020/01/31 10:54:43.2	293.310	0.590	-0.260	1.000
2020/01/31 10:54:43.3	293.310	0.560	-0.260	0.960
2020/01/31 10:54:43.4	293.310	0.530	-0.260	0.910
2020/01/31 10:54:43.5	293.300	0.500	-0.250	0.860
2020/01/31 10:54:43.6	293.300	0.470	-0.250	0.820
2020/01/31 10:54:43.7	293.290	0.430	-0.250	0.770
2020/01/31 10:54:43.8	293.290	0.390	-0.250	0.720
2020/01/31 10:54:43.9	293.280	0.360	-0.240	0.670
2020/01/31 10:54:44.0	293.280	0.320	-0.240	0.620
2020/01/31 10:54:44.1	293.270	0.280	-0.240	0.570
2020/01/31 10:54:44.2	293.260	0.240	-0.240	0.520
2020/01/31 10:54:44.3	293.250	0.200	-0.240	0.460
2020/01/31 10:54:44.4	293.250	0.160	-0.240	0.410
2020/01/31 10:54:44.5	293.240	0.120	-0.250	0.360
2020/01/31 10:54:44.6	293.240	0.080	-0.250	0.310
2020/01/31 10:54:44.7	293.230	0.040	-0.250	0.260
2020/01/31 10:54:44.8	293.220	-0.000	-0.250	0.200
2020/01/31 10:54:44.9	293.210	-0.040	-0.260	0.150
2020/01/31 10:54:45.0	293.200	-0.080	-0.260	0.100
2020/01/31 10:54:45.1	293.190	-0.120	-0.270	0.050
2020/01/31 10:54:45.2	293.180	-0.160	-0.280	0.000
2020/01/31 10:54:45.3	293.170	-0.200	-0.280	-0.050
2020/01/31 10:54:45.4	293.160	-0.230	-0.290	-0.100
2020/01/31 10:54:45.5	293.160	-0.270	-0.300	-0.140
2020/01/31 10:54:45.6	293.150	-0.300	-0.310	-0.190
2020/01/31 10:54:45.7	293.140	-0.330	-0.320	-0.230
2020/01/31 10:54:45.8	293.130	-0.360	-0.330	-0.270
2020/01/31 10:54:45.9	293.120	-0.390	-0.340	-0.310
2020/01/31 10:54:46.0	293.110	-0.410	-0.350	-0.350
2020/01/31 10:54:46.1	293.100	-0.430	-0.360	-0.380
2020/01/31 10:54:46.2	293.090	-0.460	-0.370	-0.410
2020/01/31 10:54:46.3	293.080	-0.480	-0.390	-0.440
2020/01/31 10:54:46.4	293.080	-0.490	-0.400	-0.470
2020/01/31 10:54:46.5	293.070	-0.510	-0.420	-0.500
2020/01/31 10:54:46.6	293.070	-0.520	-0.430	-0.520
2020/01/31 10:54:46.7	293.060	-0.540	-0.450	-0.540
2020/01/31 10:54:46.8	293.060	-0.550	-0.460	-0.560
2020/01/31 10:54:46.9	293.050	-0.550	-0.470	-0.570
2020/01/31 10:54:47.0	293.050	-0.560	-0.490	-0.580
2020/01/31 10:54:47.1	293.050	-0.560	-0.500	-0.590
2020/01/31 10:54:47.2	293.050	-0.560	-0.510	-0.590
2020/01/31 10:54:47.3	293.040	-0.560	-0.520	-0.590
2020/01/31 10:54:47.4	293.040	-0.560	-0.530	-0.590
2020/01/31 10:54:47.5	293.040	-0.560	-0.540	-0.580
2020/01/31 10:54:47.6	293.040	-0.550	-0.540	-0.570
2020/01/31 10:54:47.7	293.030	-0.550	-0.550	-0.560
2020/01/31 10:54:47.8	293.030	-0.540	-0.550	-0.550
2020/01/31 10:54:47.9	293.030	-0.530	-0.550	-0.530
2020/01/31 10:54:48.0	293.030	-0.530	-0.550	-0.510
2020/01/31 10:54:48.1	293.030	-0.520	-0.550	-0.480
2020/01/31 10:54:48.2	293.030	-0.510	-0.540	-0.460
2020/01/31 10:54:48.3	293.030	-0.490	-0.530	-0.430
2020/01/31 10:54:48.4	293.030	-0.480	-0.520	-0.400
2020/01/31 10:54:48.5	293.020	-0.470	-0.510	-0.370
2020/01/31 10:54:48.6	293.020	-0.460	-0.500	-0.340
2020/01/31 10:54:48.7	293.020	-0.450	-0.490	-0.300
2020/01/31 10:54:48.8	293.020	-0.430	-0.470	-0.260
2020/01/31 10:54:48.9	293.020	-0.420	-0.460	-0.230
2020/01/31 10:54:49.0	293.020	-0.410	-0.440	-0.190
2020/01/31 10:54:49.1	293.020	-0.400	-0.420	-0.150
2020/01/31 10:54:49.2	293.020	-0.390	-0.400	-0.110
2020/01/31 10:54:49.3	293.020	-0.380	-0.380	-0.070
2020/01/31 10:54:49.4	293.030	-0.360	-0.360	-0.020
2020/01/31 10:54:49.5	293.030	-0.350	-0.340	0.020
2020/01/31 10:54:49.6	293.030	-0.340	-0.320	0.060
2020/01/31 10:54:49.7	293.030	-0.330	-0.290	0.110
2020/01/31 10:54:49.8	293.030	-0.320	-0.270	0.150
2020/01/31 10:54:49.9	293.030	-0.310	-0.250	0.200
2020/01/31 10:54:50.0	293.040	-0.300	-0.230	0.240
2020/01/31 10:54:50.1	293.040	-0.290	-0.210	0.290
2020/01/31 10:54:50.2	293.040	-0.280	-0.190	0.330
2020/01/31 10:54:50.3	293.040	-0.270	-0.170	0.380
2020/01/31 10:54:50.4	293.040	-0.260	-0.160	0.420
2020/01/31 10:54:50.5	293.040	-0.250	-0.140	0.470
2020/01/31 10:54:50.6	293.040	-0.240	-0.130	0.510
2020/01/31 10:54:50.7	293.040	-0.230	-0.110	0.560
2020/01/31 10:54:50.8	293.040	-0.220	-0.100	0.600
2020/01/31 10:54:50.9	293.040	-0.210	-0.080	0.650
2020/01/31 10:54:51.0	293.030	-0.200	-0.070	0.690
2020/01/31 10:54:51.1	293.030	-0.180	-0.060	0.740
2020/01/31 10:54:51.2	293.030	-0.170	-0.050	0.780
2020/01/31 10:54:51.3	293.030	-0.160	-0.040	0.820
2020/01/31 10:54:51.4	293.020	-0.150	-0.030	0.860
2020/01/31 10:54:51.5	293.020	-0.130	-0.020	0.900
2020/01/31 10:54:51.6	293.010	-0.120	-0.020	0.940
2020/01/31 10:54:51.7	293.010	-0.100	-0.010	0.980
2020/01/31 10:54:51.8	293.000	-0.090	-0.010	1.010
2020/01/31 10:54:51.9	293.000	-0.070	0.000	1.050
2020/01/31 10:54:52.0	292.990	-0.050	0.010	1.090
2020/01/31 10:54:52.1	292.990	-0.030	0.010	1.120
2020/01/31 10:54:52.2	292.980	-0.010	0.010	1.150
2020/01/31 10:54:52.3	292.970	0.010	0.020	1.180
2020/01/31 10:54:52.4	292.970	0.030	0.020	1.210
2020/01/31 10:54:52.5	292.960	0.050	0.020	1.240
2020/01/31 10:54:52.6	292.950	0.070	0.020	1.260
2020/01/31 10:54:52.7	292.950	0.100	0.020	1.290
2020/01/31 10:54:52.8	292.940	0.120	0.020	1.310
2020/01/31 10:54:52.9	292.940	0.140	0.020	1.330
2020/01/31 10:54:53.0	292.940	0.170	0.020	1.340
2020/01/31 10:54:53.1	292.940	0.190	0.020	1.350
2020/01/31 10:54:53.2	292.940	0.220	0.020	1.360
2020/01/31 10:54:53.3	292.940	0.250	0.020	1.370
2020/01/31 10:54:53.4	292.940	0.270	0.010	1.380
2020/01/31 10:54:53.5	292.940	0.300	0.010	1.380
2020/01/31 10:54:53.6	292.940	0.320	0.000	1.380
2020/01/31 10:54:53.7	292.940	0.340	-0.010	1.380
2020/01/31 10:54:53.8	292.950	0.370	-0.010	1.370
2020/01/31 10:54:53.9	292.950	0.390	-0.020	1.370
2020/01/31 10:54:54.0	292.950	0.410	-0.030	1.360
2020/01/31 10:54:54.1	292.960	0.430	-0.040	1.340
2020/01/31 10:54:54.2	292.960	0.450	-0.050	1.330
2020/01/31 10:54:54.3	292.960	0.470	-0.060	1.310
2020/01/31 10:54:54.4	292.970	0.490	-0.080	1.300
2020/01/31 10:54:54.5	292.970	0.500	-0.090	1.270
2020/01/31 10:54:54.6	292.970	0.510	-0.100	1.250
2020/01/31 10:54:54.7	292.970	0.530	-0.120	1.220
2020/01/31 10:54:54.8	292.970	0.530	-0.130	1.200
2020/01/31 10:54:54.9	292.980	0.540	-0.150	1.170
2020/01/31 10:54:55.0	292.980	0.550	-0.160	1.130
2020/01/31 10:54:55.1	292.980	0.550	-0.180	1.100
2020/01/31 10:54:55.2	292.980	0.550	-0.190	1.060
2020/01/31 10:54:55.3	292.980	0.550	-0.210	1.030
2020/01/31 10:54:55.4	292.980	0.550	-0.220	0.990
2020/01/31 10:54:55.5	292.970	0.540	-0.230	0.950
2020/01/31 10:54:55.6	292.970	0.540	-0.250	0.910
2020/01/31 10:54:55.7	292.970	0.530	-0.260	0.860
2020/01/31 10:54:55.8	292.970	0.520	-0.270	0.820
2020/01/31 10:54:55.9	292.960	0.510	-0.280	0.780
2020/01/31 10:54:56.0	292.960	0.490	-0.290	0.740
2020/01/31 10:54:56.1	292.950	0.480	-0.290	0.700
2020/01/31 10:54:56.2	292.950	0.460	-0.300	0.660
2020/01/31 10:54:56.3	292.940	0.440	-0.300	0.620
2020/01/31 10:54:56.4	292.940	0.420	-0.310	0.580
2020/01/31 10:54:56.5	292.920	0.400	-0.310	0.540
2020/01/31 10:54:56.6	292.910	0.380	-0.310	0.500
2020/01/31 10:54:56.7	292.910	0.350	-0.310	0.460
2020/01/31 10:54:56.8	292.900	0.330	-0.310	0.420
2020/01/31 10:54:56.9	292.890	0.300	-0.310	0.390
2020/01/31 10:54:57.0	292.880	0.280	-0.300	0.350
2020/01/31 10:54:57.1	292.880	0.250	-0.300	0.320
2020/01/31 10:54:57.2	292.870	0.230	-0.300	0.280
2020/01/31 10:54:57.3	292.860	0.200	-0.300	0.250
2020/01/31 10:54:57.4	292.850	0.170	-0.300	0.220
2020/01/31 10:54:57.5	292.840	0.140	-0.290	0.190
2020/01/31 10:54:57.6	292.830	0.120	-0.290	0.160
2020/01/31 10:54:57.7	292.820	0.090	-0.290	0.130
2020/01/31 10:54:57.8	292.820	0.060	-0.290	0.100
2020/01/31 10:54:57.9	292.810	0.040	-0.290	0.070
2020/01/31 10:54:58.0	292.800	0.010	-0.290	0.050
2020/01/31 10:54:58.1	292.800	-0.010	-0.300	0.020
2020/01/31 10:54:58.2	292.800	-0.040	-0.300	-0.010
2020/01/31 10:54:58.3	292.790	-0.060	-0.300	-0.030
2020/01/31 10:54:58.4	292.790	-0.090	-0.310	-0.050
2020/01/31 10:54:58.5	292.780	-0.110	-0.320	-0.080
2020/01/31 10:54:58.6	292.780	-0.130	-0.320	-0.100
2020/01/31 10:54:58.7	292.780	-0.150	-0.330	-0.120
2020/01/31 10:54:58.8	292.780	-0.170	-0.340	-0.140
2020/01/31 10:54:58.9	292.780	-0.190	-0.340	-0.150
2020/01/31 10:54:59.0	292.780	-0.210	-0.350	-0.170
2020/01/31 10:54:59.1	292.780	-0.220	-0.360	-0.180
2020/01/31 10:54:59.2	292.780	-0.240	-0.370	-0.200
2020/01/31 10:54:59.3	292.790	-0.250	-0.390	-0.210
2020/01/31 10:54:59.4	292.790	-0.260	-0.400	-0.220
2020/01/31 10:54:59.5	292.800	-0.270	-0.410	-0.230
2020/01/31 10:54:59.6	292.800	-0.280	-0.420	-0.230
2020/01/31 10:54:59.7	292.810	-0.290	-0.430	-0.240
2020/01/31 10:54:59.8	292.810	-0.290	-0.450	-0.240
2020/01/31 10:54:59.9	292.820	-0.300	-0.460	-0.240
2020/01/31 10:55:00.0	292.830	-0.300	-0.470	-0.230
2020/01/31 10:55:00.1	292.840	-0.300	-0.480	-0.230
2020/01/31 10:55:00.2	292.850	-0.300	-0.490	-0.220
2020/01/31 10:55:00.3	292.860	-0.300	-0.500	-0.220
2020/01/31 10:55:00.4	292.870	-0.300	-0.510	-0.200
2020/01/31 10:55:00.5	292.870	-0.290	-0.520	-0.190
2020/01/31 10:55:00.6	292.890	-0.290	-0.530	-0.180
2020/01/31 10:55:00.7	292.900	-0.280	-0.530	-0.160
2020/01/31 10:55:00.8	292.910	-0.280	-0.540	-0.150
2020/01/31 10:55:00.9	292.920	-0.270	-0.540	-0.130
2020/01/31 10:55:01.0	292.940	-0.260	-0.540	-0.110
2020/01/31 10:55:01.1	292.950	-0.260	-0.540	-0.090
2020/01/31 10:55:01.2	292.960	-0.250	-0.540	-0.060
2020/01/31 10:55:01.3	292.980	-0.240	-0.530	-0.040
2020/01/31 10:55:01.4	292.990	-0.230	-0.530	-0.010
2020/01/31 10:55:01.5	293.010	-0.220	-0.520	0.020
2020/01/31 10:55:01.6	293.020	-0.210	-0.510	0.050
2020/01/31 10:55:01.7	293.040	-0.200	-0.500	0.080
2020/01/31 10:55:01.8	293.050	-0.190	-0.480	0.110
2020/01/31 10:55:01.9	293.060	-0.180	-0.470	0.140
2020/01/31 10:55:02.0	293.070	-0.170	-0.450	0.180
2020/01/31 10:55:02.1	293.080	-0.160	-0.430	0.210
2020/01/31 10:55:02.2	293.090	-0.150	-0.410	0.250
2020/01/31 10:55:02.3	293.100	-0.150	-0.380	0.290
2020/01/31 10:55:02.4	293.110	-0.140	-0.360	0.320
2020/01/31 10:55:02.5	293.110	-0.130	-0.340	0.360
2020/01/31 10:55:02.6	293.110	-0.130	-0.310	0.400
2020/01/31 10:55:02.7	293.120	-0.120	-0.290	0.440
2020/01/31 10:55:02.8	293.130	-0.110	-0.260	0.480
2020/01/31 10:55:02.9	293.130	-0.110	-0.240	0.510
2020/01/31 10:55:03.0	293.140	-0.100	-0.210	0.550
2020/01/31 10:55:03.1	293.140	-0.100	-0.180	0.590
2020/01/31 10:55:03.2	293.150	-0.100	-0.160	0.620
2020/01/31 10:55:03.3	293.150	-0.090	-0.130	0.650
2020/01/31 10:55:03.4	293.150	-0.090	-0.110	0.690
2020/01/31 10:55:03.5	293.170	-0.090	-0.080	0.720
2020/01/31 10:55:03.6	293.170	-0.090	-0.060	0.750
2020/01/31 10:55:03.7	293.170	-0.090	-0.040	0.770
2020/01/31 10:55:03.8	293.180	-0.080	-0.020	0.800
2020/01/31 10:55:03.9	293.180	-0.080	-0.010	0.820
2020/01/31 10:55:04.0	293.180	-0.080	0.010	0.850
2020/01/31 10:55:04.1	293.190	-0.080	0.020	0.870
2020/01/31 10:55:04.2	293.190	-0.080	0.040	0.880
2020/01/31 10:55:04.3	293.190	-0.080	0.050	0.900
2020/01/31 10:55:04.4	293.190	-0.080	0.060	0.910
2020/01/31 10:55:04.5	293.190	-0.080	0.060	0.920
2020/01/31 10:55:04.6	293.190	-0.080	0.070	0.930
2020/01/31 10:55:04.7	293.200	-0.080	0.080	0.930
2020/01/31 10:55:04.8	293.200	-0.080	0.090	0.930
2020/01/31 10:55:04.9	293.190	-0.090	0.090	0.930
2020/01/31 10:55:05.0	293.190	-0.090	0.100	0.930
2020/01/31 10:55:05.1	293.190	-0.090	0.100	0.920
2020/01/31 10:55:05.2	293.190	-0.090	0.100	0.920
2020/01/31 10:55:05.3	293.190	-0.090	0.110	0.910
2020/01/31 10:55:05.4	293.180	-0.090	0.110	0.900
2020/01/31 10:55:05.5	293.170	-0.090	0.110	0.880
2020/01/31 10:55:05.6	293.170	-0.090	0.110	0.870
2020/01/31 10:55:05.7	293.170	-0.090	0.110	0.850
2020/01/31 10:55:05.8	293.160	-0.090	0.110	0.840
2020/01/31 10:55:05.9	293.150	-0.090	0.110	0.820
2020/01/31 10:55:06.0	293.150	-0.090	0.110	0.800
2020/01/31 10:55:06.1	293.140	-0.080	0.110	0.780
2020/01/31 10:55:06.2	293.140	-0.080	0.100	0.760
2020/01/31 10:55:06.3	293.130	-0.080	0.100	0.740
2020/01/31 10:55:06.4	293.130	-0.070	0.100	0.720
2020/01/31 10:55:06.5	293.120	-0.070	0.090	0.700
2020/01/31 10:55:06.6	293.120	-0.070	0.090	0.680
2020/01/31 10:55:06.7	293.120	-0.060	0.080	0.660
2020/01/31 10:55:06.8	293.110	-0.050	0.070	0.630
2020/01/31 10:55:06.9	293.110	-0.050	0.060	0.610
2020/01/31 10:55:07.0	293.110	-0.040	0.050	0.580
2020/01/31 10:55:07.1	293.110	-0.030	0.040	0.560
2020/01/31 10:55:07.2	293.110	-0.020	0.020	0.530
2020/01/31 10:55:07.3	293.110	-0.010	0.010	0.500
2020/01/31 10:55:07.4	293.110	-0.000	-0.010	0.480
2020/01/31 10:55:07.5	293.100	0.010	-0.030	0.450
2020/01/31 10:55:07.6	293.100	0.020	-0.050	0.420
2020/01/31 10:55:07.7	293.110	0.040	-0.070	0.390
2020/01/31 10:55:07.8	293.110	0.050	-0.090	0.360
2020/01/31 10:55:07.9	293.110	0.060	-0.120	0.330
2020/01/31 10:55:08.0	293.110	0.080	-0.140	0.310
2020/01/31 10:55:08.1	293.120	0.090	-0.170	0.280
2020/01/31 10:55:08.2	293.120	0.110	-0.190	0.250
2020/01/31 10:55:08.3	293.120	0.120	-0.220	0.220
2020/01/31 10:55:08.4	293.130	0.140	-0.250	0.200
2020/01/31 10:55:08.5	293.140	0.150	-0.280	0.170
2020/01/31 10:55:08.6	293.140	0.170	-0.310	0.140
2020/01/31 10:55:08.7	293.150	0.180	-0.340	0.120
2020/01/31 10:55:08.8	293.160	0.200	-0.370	0.100
2020/01/31 10:55:08.9	293.170	0.210	-0.400	0.070
2020/01/31 10:55:09.0	293.180	0.230	-0.430	0.050
2020/01/31 10:55:09.1	293.190	0.240	-0.460	0.040
2020/01/31 10:55:09.2	293.200	0.260	-0.490	0.020
2020/01/31 10:55:09.3	293.210	0.270	-0.510	0.000
2020/01/31 10:55:09.4	293.220	0.280	-0.540	-0.010
2020/01/31 10:55:09.5	293.230	0.290	-0.570	-0.020
2020/01/31 10:55:09.6	293.240	0.300	-0.590	-0.030
2020/01/31 10:55:09.7	293.250	0.310	-0.610	-0.030
2020/01/31 10:55:09.8	293.260	0.310	-0.630	-0.040
2020/01/31 10:55:09.9	293.270	0.320	-0.650	-0.040
2020/01/31 10:55:10.0	293.290	0.320	-0.660	-0.040
2020/01/31 10:55:10.1	293.300	0.320	-0.680	-0.030
2020/01/31 10:55:10.2	293.310	0.320	-0.690	-0.030
2020/01/31 10:55:10.3	293.320	0.320	-0.690	-0.020
2020/01/31 10:55:10.4	293.330	0.320	-0.700	-0.010
2020/01/31 10:55:10.5	293.340	0.320	-0.700	0.010
2020/01/31 10:55:10.6	293.340	0.310	-0.700	0.020
2020/01/31 10:55:10.7	293.350	0.310	-0.690	0.040
2020/01/31 10:55:10.8	293.360	0.300	-0.690	0.060
2020/01/31 10:55:10.9	293.370	0.290	-0.680	0.080
2020/01/31 10:55:11.0	293.370	0.280	-0.670	0.100
2020/01/31 10:55:11.1	293.380	0.270	-0.650	0.130
2020/01/31 10:55:11.2	293.380	0.250	-0.640	0.150
2020/01/31 10:55:11.3	293.390	0.240	-0.620	0.180
2020/01/31 10:55:11.4	293.390	0.220	-0.600	0.200
2020/01/31 10:55:11.5	293.400	0.210	-0.590	0.230
2020/01/31 10:55:11.6	293.400	0.190	-0.560	0.260
2020/01/31 10:55:11.7	293.400	0.170	-0.540	0.280
2020/01/31 10:55:11.8	293.410	0.160	-0.520	0.310
2020/01/31 10:55:11.9	293.410	0.140	-0.500	0.330
2020/01/31 10:55:12.0	293.410	0.120	-0.470	0.350
2020/01/31 10:55:12.1	293.410	0.100	-0.450	0.380
2020/01/31 10:55:12.2	293.410	0.080	-0.430	0.400
2020/01/31 10:55:12.3	293.410	0.070	-0.410	0.420
2020/01/31 10:55:12.4	293.410	0.050	-0.390	0.440
2020/01/31 10:55:12.5	293.420	0.030	-0.370	0.450
2020/01/31 10:55:12.6	293.410	0.020	-0.350	0.470
2020/01/31 10:55:12.7	293.410	0.000	-0.330	0.490
2020/01/31 10:55:12.8	293.410	-0.010	-0.310	0.500
2020/01/31 10:55:12.9	293.410	-0.020	-0.290	0.520
2020/01/31 10:55:13.0	293.400	-0.040	-0.280	0.540
2020/01/31 10:55:13.1	293.400	-0.050	-0.260	0.550
2020/01/31 10:55:13.2	293.400	-0.060	-0.250	0.570
2020/01/31 10:55:13.3	293.390	-0.060	-0.240	0.580
2020/01/31 10:55:13.4	293.390	-0.070	-0.230	0.590
2020/01/31 10:55:13.5	293.380	-0.080	-0.220	0.600
2020/01/31 10:55:13.6	293.380	-0.080	-0.210	0.610
2020/01/31 10:55:13.7	293.370	-0.080	-0.200	0.620
2020/01/31 10:55:13.8	293.370	-0.090	-0.200	0.630
2020/01/31 10:55:13.9	293.360	-0.090	-0.190	0.640
2020/01/31 10:55:14.0	293.360	-0.090	-0.180	0.650
2020/01/31 10:55:14.1	293.350	-0.090	-0.180	0.650
2020/01/31 10:55:14.2	293.350	-0.090	-0.170	0.660
2020/01/31 10:55:14.3	293.350	-0.090	-0.170	0.660
2020/01/31 10:55:14.4	293.350	-0.090	-0.160	0.660
2020/01/31 10:55:14.5	293.340	-0.090	-0.160	0.660
2020/01/31 10:55:14.6	293.340	-0.090	-0.150	0.660
2020/01/31 10:55:14.7	293.340	-0.090	-0.140	0.660
2020/01/31 10:55:14.8	293.340	-0.090	-0.140	0.650
2020/01/31 10:55:14.9	293.340	-0.090	-0.130	0.650
2020/01/31 10:55:15.0	293.340	-0.090	-0.120	0.640
2020/01/31 10:55:15.1	293.340	-0.090	-0.110	0.630
2020/01/31 10:55:15.2	293.340	-0.090	-0.100	0.620
2020/01/31 10:55:15.3	293.340	-0.090	-0.090	0.600
2020/01/31 10:55:15.4	293.340	-0.100	-0.090	0.590
2020/01/31 10:55:15.5	293.340	-0.100	-0.080	0.570
2020/01/31 10:55:15.6	293.340	-0.100	-0.070	0.550
2020/01/31 10:55:15.7	293.340	-0.110	-0.060	0.530
2020/01/31 10:55:15.8	293.340	-0.110	-0.050	0.500
2020/01/31 10:55:15.9	293.350	-0.120	-0.040	0.480
2020/01/31 10:55:16.0	293.350	-0.130	-0.030	0.450
2020/01/31 10:55:16.1	293.350	-0.140	-0.020	0.420
2020/01/31 10:55:16.2	293.350	-0.140	-0.010	0.390
2020/01/31 10:55:16.3	293.360	-0.150	-0.010	0.360
2020/01/31 10:55:16.4	293.360	-0.160	0.000	0.320
2020/01/31 10:55:16.5	293.370	-0.170	0.000	0.290
2020/01/31 10:55:16.6	293.380	-0.180	0.010	0.250
2020/01/31 10:55:16.7	293.380	-0.190	0.010	0.220
2020/01/31 10:55:16.8	293.390	-0.200	0.020	0.180
2020/01/31 10:55:16.9	293.400	-0.210	0.020	0.140
2020/01/31 10:55:17.0	293.400	-0.230	0.030	0.110
2020/01/31 10:55:17.1	293.410	-0.240	0.030	0.070
2020/01/31 10:55:17.2	293.420	-0.250	0.030	0.040
2020/01/31 10:55:17.3	293.430	-0.250	0.030	0.000
2020/01/31 10:55:17.4	293.430	-0.260	0.030	-0.030
2020/01/31 10:55:17.5	293.440	-0.270	0.030	-0.070
2020/01/31 10:55:17.6	293.450	-0.280	0.030	-0.100
2020/01/31 10:55:17.7	293.450	-0.290	0.030	-0.130
2020/01/31 10:55:17.8	293.460	-0.290	0.030	-0.160
2020/01/31 10:55:17.9	293.470	-0.300	0.020	-0.190
2020/01/31 10:55:18.0	293.470	-0.300	0.020	-0.220
2020/01/31 10:55:18.1	293.480	-0.300	0.020	-0.240
2020/01/31 10:55:18.2	293.480	-0.310	0.010	-0.270
2020/01/31 10:55:18.3	293.490	-0.310	0.010	-0.290
2020/01/31 10:55:18.4	293.490	-0.310	0.010	-0.310
2020/01/31 10:55:18.5	293.490	-0.300	-0.000	-0.320
2020/01/31 10:55:18.6	293.490	-0.300	-0.010	-0.340
2020/01/31 10:55:18.7	293.490	-0.300	-0.010	-0.350
2020/01/31 10:55:18.8	293.490	-0.290	-0.020	-0.360
2020/01/31 10:55:18.9	293.490	-0.280	-0.020	-0.360
2020/01/31 10:55:19.0	293.490	-0.270	-0.030	-0.370
2020/01/31 10:55:19.1	293.490	-0.270	-0.040	-0.370
2020/01/31 10:55:19.2	293.490	-0.250	-0.050	-0.370
2020/01/31 10:55:19.3	293.490	-0.240	-0.050	-0.360
2020/01/31 10:55:19.4	293.490	-0.230	-0.060	-0.360
2020/01/31 10:55:19.5	293.490	-0.220	-0.070	-0.350
2020/01/31 10:55:19.6	293.480	-0.200	-0.080	-0.340
2020/01/31 10:55:19.7	293.480	-0.190	-0.090	-0.320
2020/01/31 10:55:19.8	293.470	-0.170	-0.100	-0.310
2020/01/31 10:55:19.9	293.460	-0.150	-0.110	-0.290
2020/01/31 10:55:20.0	293.460	-0.140	-0.120	-0.270
2020/01/31 10:55:20.1	293.450	-0.120	-0.130	-0.240
2020/01/31 10:55:20.2	293.440	-0.100	-0.140	-0.220
2020/01/31 10:55:20.3	293.440	-0.090	-0.160	-0.190
2020/01/31 10:55:20.4	293.430	-0.070	-0.170	-0.160
2020/01/31 10:55:20.5	293.430	-0.050	-0.180	-0.140
2020/01/31 10:55:20.6	293.420	-0.030	-0.190	-0.100
2020/01/31 10:55:20.7	293.410	-0.010	-0.210	-0.070
2020/01/31 10:55:20.8	293.400	0.000	-0.220	-0.040
2020/01/31 10:55:20.9	293.400	0.020	-0.230	-0.000
2020/01/31 10:55:21.0	293.390	0.040	-0.250	0.030
2020/01/31 10:55:21.1	293.380	0.060	-0.260	0.070
2020/01/31 10:55:21.2	293.380	0.070	-0.270	0.110
2020/01/31 10:55:21.3	293.370	0.090	-0.290	0.140
2020/01/31 10:55:21.4	293.360	0.110	-0.300	0.180
2020/01/31 10:55:21.5	293.360	0.120	-0.320	0.220
2020/01/31 10:55:21.6	293.350	0.140	-0.340	0.260
2020/01/31 10:55:21.7	293.350	0.150	-0.350	0.300
2020/01/31 10:55:21.8	293.350	0.170	-0.370	0.340
2020/01/31 10:55:21.9	293.340	0.180	-0.390	0.380
2020/01/31 10:55:22.0	293.340	0.190	-0.410	0.420
2020/01/31 10:55:22.1	293.340	0.210	-0.430	0.470
2020/01/31 10:55:22.2	293.330	0.220	-0.440	0.510
2020/01/31 10:55:22.3	293.330	0.230	-0.460	0.550
2020/01/31 10:55:22.4	293.330	0.250	-0.480	0.590
2020/01/31 10:55:22.5	293.330	0.260	-0.500	0.630
2020/01/31 10:55:22.6	293.330	0.270	-0.520	0.670
2020/01/31 10:55:22.7	293.330	0.280	-0.540	0.710
2020/01/31 10:55:22.8	293.330	0.290	-0.560	0.750
2020/01/31 10:55:22.9	293.330	0.300	-0.570	0.780
2020/01/31 10:55:23.0	293.330	0.310	-0.590	0.820
2020/01/31 10:55:23.1	293.330	0.320	-0.600	0.860
2020/01/31 10:55:23.2	293.330	0.330	-0.620	0.890
2020/01/31 10:55:23.3	293.340	0.330	-0.630	0.930
2020/01/31 10:55:23.4	293.340	0.340	-0.640	0.960
2020/01/31 10:55:23.5	293.340	0.350	-0.650	0.990
2020/01/31 10:55:23.6	293.350	0.350	-0.660	1.020
2020/01/31 10:55:23.7	293.350	0.360	-0.670	1.040
2020/01/31 10:55:23.8	293.360	0.360	-0.670	1.070
2020/01/31 10:55:23.9	293.360	0.370	-0.680	1.090
2020/01/31 10:55:24.0	293.370	0.370	-0.680	1.100
2020/01/31 10:55:24.1	293.380	0.370	-0.680	1.120
2020/01/31 10:55:24.2	293.390	0.370	-0.680	1.130
2020/01/31 10:55:24.3	293.390	0.370	-0.680	1.140
2020/01/31 10:55:24.4	293.400	0.370	-0.680	1.140
2020/01/31 10:55:24.5	293.420	0.370	-0.670	1.140
2020/01/31 10:55:24.6	293.430	0.360	-0.670	1.140
2020/01/31 10:55:24.7	293.440	0.360	-0.660	1.130
2020/01/31 10:55:24.8	293.450	0.350	-0.650	1.120
2020/01/31 10:55:24.9	293.460	0.350	-0.640	1.100
2020/01/31 10:55:25.0	293.470	0.340	-0.630	1.080
2020/01/31 10:55:25.1	293.490	0.330	-0.610	1.060
2020/01/31 10:55:25.2	293.500	0.320	-0.600	1.040
2020/01/31 10:55:25.3	293.510	0.310	-0.580	1.010
2020/01/31 10:55:25.4	293.520	0.300	-0.560	0.980
2020/01/31 10:55:25.5	293.540	0.280	-0.540	0.950
2020/01/31 10:55:25.6	293.560	0.270	-0.520	0.920
2020/01/31 10:55:25.7	293.570	0.260	-0.500	0.890
2020/01/31 10:55:25.8	293.580	0.240	-0.470	0.850
2020/01/31 10:55:25.9	293.590	0.220	-0.450	0.820
2020/01/31 10:55:26.0	293.600	0.210	-0.420	0.780
2020/01/31 10:55:26.1	293.600	0.190	-0.400	0.750
2020/01/31 10:55:26.2	293.610	0.170	-0.370	0.710
2020/01/31 10:55:26.3	293.610	0.150	-0.340	0.670
2020/01/31 10:55:26.4	293.620	0.140	-0.320	0.640
2020/01/31 10:55:26.5	293.620	0.120	-0.290	0.610
2020/01/31 10:55:26.6	293.620	0.100	-0.260	0.580
2020/01/31 10:55:26.7	293.620	0.080	-0.230	0.540
2020/01/31 10:55:26.8	293.610	0.060	-0.210	0.510
2020/01/31 10:55:26.9	293.610	0.040	-0.180	0.480
2020/01/31 10:55:27.0	293.600	0.020	-0.150	0.450
2020/01/31 10:55:27.1	293.590	-0.000	-0.120	0.430
2020/01/31 10:55:27.2	293.580	-0.020	-0.100	0.400
2020/01/31 10:55:27.3	293.570	-0.040	-0.070	0.370
2020/01/31 10:55:27.4	293.550	-0.060	-0.050	0.350
2020/01/31 10:55:27.5	293.530	-0.080	-0.030	0.330
2020/01/31 10:55:27.6	293.510	-0.100	-0.010	0.300
2020/01/31 10:55:27.7	293.500	-0.120	0.020	0.280
2020/01/31 10:55:27.8	293.480	-0.140	0.040	0.270
2020/01/31 10:55:27.9	293.460	-0.150	0.060	0.250
2020/01/31 10:55:28.0	293.440	-0.170	0.080	0.230
2020/01/31 10:55:28.1	293.410	-0.190	0.090	0.220
2020/01/31 10:55:28.2	293.390	-0.200	0.110	0.200
2020/01/31 10:55:28.3	293.370	-0.220	0.120	0.190
2020/01/31 10:55:28.4	293.350	-0.230	0.140	0.180
2020/01/31 10:55:28.5	293.330	-0.250	0.150	0.170
2020/01/31 10:55:28.6	293.300	-0.260	0.160	0.160
2020/01/31 10:55:28.7	293.280	-0.270	0.170	0.150
2020/01/31 10:55:28.8	293.260	-0.290	0.180	0.140
2020/01/31 10:55:28.9	293.240	-0.300	0.190	0.130
2020/01/31 10:55:29.0	293.230	-0.310	0.190	0.120
2020/01/31 10:55:29.1	293.210	-0.310	0.200	0.120
2020/01/31 10:55:29.2	293.190	-0.320	0.200	0.110
2020/01/31 10:55:29.3	293.180	-0.330	0.210	0.110
2020/01/31 10:55:29.4	293.160	-0.330	0.210	0.110
2020/01/31 10:55:29.5	293.150	-0.340	0.210	0.100
2020/01/31 10:55:29.6	293.130	-0.340	0.210	0.100
2020/01/31 10:55:29.7	293.120	-0.340	0.210	0.100
2020/01/31 10:55:29.8	293.110	-0.340	0.210	0.100
2020/01/31 10:55:29.9	293.100	-0.340	0.200	0.100
2020/01/31 10:55:30.0	293.100	-0.330	0.200	0.100
2020/01/31 10:55:30.1	293.090	-0.330	0.190	0.100
2020/01/31 10:55:30.2	293.080	-0.330	0.190	0.100
2020/01/31 10:55:30.3	293.080	-0.320	0.180	0.100
2020/01/31 10:55:30.4	293.080	-0.310	0.170	0.110
2020/01/31 10:55:30.5	293.070	-0.300	0.160	0.110
2020/01/31 10:55:30.6	293.070	-0.290	0.150	0.110
2020/01/31 10:55:30.7	293.070	-0.280	0.140	0.110
2020/01/31 10:55:30.8	293.080	-0.260	0.130	0.110
2020/01/31 10:55:30.9	293.080	-0.250	0.110	0.120
2020/01/31 10:55:31.0	293.080	-0.230	0.090	0.120
2020/01/31 10:55:31.1	293.090	-0.220	0.080	0.120
2020/01/31 10:55:31.2	293.090	-0.200	0.060	0.130
2020/01/31 10:55:31.3	293.100	-0.180	0.040	0.130
2020/01/31 10:55:31.4	293.110	-0.160	0.020	0.130
2020/01/31 10:55:31.5	293.120	-0.140	-0.000	0.140
2020/01/31 10:55:31.6	293.130	-0.120	-0.030	0.140
2020/01/31 10:55:31.7	293.140	-0.100	-0.050	0.150
2020/01/31 10:55:31.8	293.150	-0.080	-0.070	0.150
2020/01/31 10:55:31.9	293.170	-0.060	-0.100	0.160
2020/01/31 10:55:32.0	293.180	-0.040	-0.120	0.160
2020/01/31 10:55:32.1	293.200	-0.020	-0.150	0.170
2020/01/31 10:55:32.2	293.210	0.000	-0.170	0.180
2020/01/31 10:55:32.3	293.230	0.020	-0.200	0.180
2020/01/31 10:55:32.4	293.240	0.040	-0.220	0.190
2020/01/31 10:55:32.5	293.260	0.060	-0.250	0.210
2020/01/31 10:55:32.6	293.280	0.080	-0.270	0.220
2020/01/31 10:55:32.7	293.300	0.100	-0.290	0.230
2020/01/31 10:55:32.8	293.310	0.110	-0.320	0.250
2020/01/31 10:55:32.9	293.330	0.130	-0.340	0.270
2020/01/31 10:55:33.0	293.340	0.140	-0.360	0.280
2020/01/31 10:55:33.1	293.360	0.150	-0.380	0.300
2020/01/31 10:55:33.2	293.380	0.160	-0.390	0.320
2020/01/31 10:55:33.3	293.390	0.170	-0.410	0.340
2020/01/31 10:55:33.4	293.400	0.180	-0.430	0.360
2020/01/31 10:55:33.5	293.420	0.180	-0.440	0.380
2020/01/31 10:55:33.6	293.430	0.180	-0.450	0.410
2020/01/31 10:55:33.7	293.440	0.190	-0.460	0.430
2020/01/31 10:55:33.8	293.450	0.190	-0.480	0.460
2020/01/31 10:55:33.9	293.460	0.190	-0.490	0.480
2020/01/31 10:55:34.0	293.470	0.180	-0.490	0.510
2020/01/31 10:55:34.1	293.480	0.180	-0.500	0.530
2020/01/31 10:55:34.2	293.490	0.170	-0.510	0.560
2020/01/31 10:55:34.3	293.490	0.170	-0.510	0.580
2020/01/31 10:55:34.4	293.500	0.160	-0.520	0.610
2020/01/31 10:55:34.5	293.510	0.150	-0.530	0.640
2020/01/31 10:55:34.6	293.510	0.140	-0.530	0.660
2020/01/31 10:55:34.7	293.520	0.120	-0.530	0.690
2020/01/31 10:55:34.8	293.520	0.110	-0.540	0.710
2020/01/31 10:55:34.9	293.520	0.100	-0.540	0.730
2020/01/31 10:55:35.0	293.520	0.080	-0.540	0.750
2020/01/31 10:55:35.1	293.510	0.070	-0.540	0.770
2020/01/31 10:55:35.2	293.510	0.050	-0.540	0.780
2020/01/31 10:55:35.3	293.510	0.030	-0.550	0.800
2020/01/31 10:55:35.4	293.500	0.020	-0.550	0.810
2020/01/31 10:55:35.5	293.490	-0.000	-0.550	0.820
2020/01/31 10:55:35.6	293.490	-0.020	-0.550	0.830
2020/01/31 10:55:35.7	293.480	-0.030	-0.550	0.840
2020/01/31 10:55:35.8	293.470	-0.050	-0.550	0.840
2020/01/31 10:55:35.9	293.460	-0.070	-0.560	0.850
2020/01/31 10:55:36.0	293.450	-0.080	-0.560	0.850
2020/01/31 10:55:36.1	293.430	-0.100	-0.560	0.850
2020/01/31 10:55:36.2	293.420	-0.110	-0.570	0.850
2020/01/31 10:55:36.3	293.410	-0.130	-0.570	0.850
2020/01/31 10:55:36.4	293.390	-0.140	-0.570	0.850
2020/01/31 10:55:36.5	293.370	-0.150	-0.580	0.840
2020/01/31 10:55:36.6	293.360	-0.160	-0.590	0.840
2020/01/31 10:55:36.7	293.340	-0.170	-0.590	0.830
2020/01/31 10:55:36.8	293.320	-0.180	-0.600	0.830
2020/01/31 10:55:36.9	293.300	-0.180	-0.600	0.820
2020/01/31 10:55:37.0	293.280	-0.190	-0.600	0.810
2020/01/31 10:55:37.1	293.260	-0.190	-0.610	0.810
2020/01/31 10:55:37.2	293.240	-0.190	-0.610	0.800
2020/01/31 10:55:37.3	293.220	-0.190	-0.610	0.790
2020/01/31 10:55:37.4	293.200	-0.190	-0.610	0.780
2020/01/31 10:55:37.5	293.180	-0.190	-0.610	0.770
2020/01/31 10:55:37.6	293.160	-0.180	-0.610	0.760
2020/01/31 10:55:37.7	293.150	-0.180	-0.610	0.750
2020/01/31 10:55:37.8	293.130	-0.170	-0.610	0.740
2020/01/31 10:55:37.9	293.110	-0.160	-0.610	0.730
2020/01/31 10:55:38.0	293.090	-0.150	-0.600	0.710
2020/01/31 10:55:38.1	293.080	-0.140	-0.600	0.700
2020/01/31 10:55:38.2	293.070	-0.130	-0.590	0.680
2020/01/31 10:55:38.3	293.050	-0.120	-0.580	0.670
2020/01/31 10:55:38.4	293.040	-0.110	-0.580	0.650
2020/01/31 10:55:38.5	293.030	-0.090	-0.570	0.630
2020/01/31 10:55:38.6	293.020	-0.080	-0.550	0.610
2020/01/31 10:55:38.7	293.020	-0.070	-0.540	0.590
2020/01/31 10:55:38.8	293.010	-0.050	-0.520	0.570
2020/01/31 10:55:38.9	293.010	-0.040	-0.510	0.540
2020/01/31 10:55:39.0	293.010	-0.030	-0.490	0.520
2020/01/31 10:55:39.1	293.010	-0.010	-0.470	0.500
2020/01/31 10:55:39.2	293.010	-0.000	-0.450	0.480
2020/01/31 10:55:39.3	293.010	0.010	-0.420	0.460
2020/01/31 10:55:39.4	293.010	0.020	-0.390	0.430
2020/01/31 10:55:39.5	293.020	0.030	-0.360	0.410
2020/01/31 10:55:39.6	293.020	0.040	-0.330	0.390
2020/01/31 10:55:39.7	293.030	0.050	-0.300	0.370
2020/01/31 10:55:39.8	293.040	0.060	-0.270	0.350
2020/01/31 10:55:39.9	293.040	0.070	-0.240	0.330
2020/01/31 10:55:40.0	293.060	0.070	-0.200	0.310
2020/01/31 10:55:40.1	293.070	0.080	-0.160	0.290
2020/01/31 10:55:40.2	293.080	0.080	-0.130	0.280
2020/01/31 10:55:40.3	293.100	0.080	-0.090	0.260
2020/01/31 10:55:40.4	293.110	0.090	-0.050	0.240
2020/01/31 10:55:40.5	293.130	0.090	-0.010	0.220
2020/01/31 10:55:40.6	293.150	0.090	0.030	0.210
2020/01/31 10:55:40.7	293.170	0.090	0.060	0.190
2020/01/31 10:55:40.8	293.190	0.090	0.100	0.170
2020/01/31 10:55:40.9	293.220	0.080	0.140	0.160
2020/01/31 10:55:41.0	293.240	0.080	0.180	0.140
2020/01/31 10:55:41.1	293.270	0.080	0.210	0.130
2020/01/31 10:55:41.2	293.300	0.070	0.250	0.110
2020/01/31 10:55:41.3	293.330	0.070	0.280	0.090
2020/01/31 10:55:41.4	293.360	0.060	0.310	0.080
2020/01/31 10:55:41.5	293.390	0.060	0.340	0.060
2020/01/31 10:55:41.6	293.420	0.050	0.370	0.050
2020/01/31 10:55:41.7	293.450	0.040	0.390	0.030
2020/01/31 10:55:41.8	293.480	0.040	0.420	0.020
2020/01/31 10:55:41.9	293.510	0.030	0.440	0.000
2020/01/31 10:55:42.0	293.540	0.030	0.460	-0.010
2020/01/31 10:55:42.1	293.570	0.020	0.470	-0.020
2020/01/31 10:55:42.2	293.600	0.010	0.490	-0.030
2020/01/31 10:55:42.3	293.630	0.010	0.500	-0.040
2020/01/31 10:55:42.4	293.660	0.000	0.500	-0.050
2020/01/31 10:55:42.5	293.690	-0.000	0.510	-0.060
2020/01/31 10:55:42.6	293.710	-0.010	0.510	-0.060
2020/01/31 10:55:42.7	293.740	-0.010	0.510	-0.070
2020/01/31 10:55:42.8	293.760	-0.010	0.510	-0.070
2020/01/31 10:55:42.9	293.780	-0.020	0.500	-0.080
2020/01/31 10:55:43.0	293.800	-0.020	0.490	-0.080
2020/01/31 10:55:43.1	293.820	-0.020	0.470	-0.080
2020/01/31 10:55:43.2	293.830	-0.020	0.460	-0.080
2020/01/31 10:55:43.3	293.850	-0.020	0.440	-0.080
2020/01/31 10:55:43.4	293.860	-0.010	0.410	-0.080
2020/01/31 10:55:43.5	293.870	-0.010	0.380	-0.080
2020/01/31 10:55:43.6	293.880	-0.010	0.350	-0.070
2020/01/31 10:55:43.7	293.890	0.000	0.320	-0.070
2020/01/31 10:55:43.8	293.900	0.010	0.280	-0.060
2020/01/31 10:55:43.9	293.900	0.020	0.250	-0.050
2020/01/31 10:55:44.0	293.910	0.020	0.200	-0.040
2020/01/31 10:55:44.1	293.910	0.040	0.160	-0.030
2020/01/31 10:55:44.2	293.910	0.050	0.120	-0.010
2020/01/31 10:55:44.3	293.910	0.060	0.070	0.000
2020/01/31 10:55:44.4	293.910	0.070	0.030	0.020
2020/01/31 10:55:44.5	293.910	0.090	-0.020	0.040
2020/01/31 10:55:44.6	293.900	0.100	-0.060	0.070
2020/01/31 10:55:44.7	293.900	0.120	-0.110	0.090
2020/01/31 10:55:44.8	293.890	0.140	-0.160	0.120
2020/01/31 10:55:44.9	293.880	0.150	-0.200	0.150
2020/01/31 10:55:45.0	293.870	0.170	-0.250	0.190
2020/01/31 10:55:45.1	293.860	0.190	-0.290	0.220
2020/01/31 10:55:45.2	293.840	0.200	-0.340	0.260
2020/01/31 10:55:45.3	293.830	0.220	-0.380	0.290
2020/01/31 10:55:45.4	293.810	0.230	-0.420	0.330
2020/01/31 10:55:45.5	293.790	0.250	-0.460	0.370
2020/01/31 10:55:45.6	293.770	0.260	-0.490	0.410
2020/01/31 10:55:45.7	293.750	0.270	-0.530	0.450
2020/01/31 10:55:45.8	293.730	0.290	-0.560	0.490
2020/01/31 10:55:45.9	293.700	0.300	-0.590	0.530
2020/01/31 10:55:46.0	293.680	0.310	-0.620	0.560
2020/01/31 10:55:46.1	293.650	0.310	-0.640	0.600
2020/01/31 10:55:46.2	293.630	0.320	-0.670	0.640
2020/01/31 10:55:46.3	293.600	0.320	-0.690	0.670
2020/01/31 10:55:46.4	293.580	0.330	-0.710	0.710
2020/01/31 10:55:46.5	293.560	0.330	-0.720	0.730
2020/01/31 10:55:46.6	293.530	0.330	-0.730	0.760
2020/01/31 10:55:46.7	293.510	0.330	-0.750	0.790
2020/01/31 10:55:46.8	293.480	0.320	-0.760	0.810
2020/01/31 10:55:46.9	293.460	0.310	-0.760	0.840
2020/01/31 10:55:47.0	293.430	0.310	-0.770	0.860
2020/01/31 10:55:47.1	293.410	0.300	-0.770	0.870
2020/01/31 10:55:47.2	293.380	0.290	-0.770	0.890
2020/01/31 10:55:47.3	293.360	0.270	-0.770	0.900
2020/01/31 10:55:47.4	293.340	0.260	-0.770	0.910
2020/01/31 10:55:47.5	293.320	0.240	-0.760	0.910
2020/01/31 10:55:47.6	293.300	0.220	-0.760	0.920
2020/01/31 10:55:47.7	293.280	0.200	-0.750	0.910
2020/01/31 10:55:47.8	293.260	0.180	-0.740	0.910
2020/01/31 10:55:47.9	293.240	0.160	-0.730	0.900
2020/01/31 10:55:48.0	293.220	0.130	-0.710	0.890
2020/01/31 10:55:48.1	293.210	0.110	-0.700	0.880
2020/01/31 10:55:48.2	293.190	0.080	-0.690	0.860
2020/01/31 10:55:48.3	293.180	0.050	-0.670	0.840
2020/01/31 10:55:48.4	293.160	0.020	-0.660	0.820
2020/01/31 10:55:48.5	293.150	-0.010	-0.640	0.790
2020/01/31 10:55:48.6	293.140	-0.040	-0.630	0.760
2020/01/31 10:55:48.7	293.130	-0.070	-0.610	0.730
2020/01/31 10:55:48.8	293.120	-0.100	-0.600	0.700
2020/01/31 10:55:48.9	293.120	-0.130	-0.580	0.660
2020/01/31 10:55:49.0	293.120	-0.160	-0.570	0.630
2020/01/31 10:55:49.1	293.110	-0.190	-0.550	0.590
2020/01/31 10:55:49.2	293.110	-0.210	-0.540	0.540
2020/01/31 10:55:49.3	293.120	-0.240	-0.530	0.500
2020/01/31 10:55:49.4	293.120	-0.270	-0.520	0.450
2020/01/31 10:55:49.5	293.130	-0.290	-0.500	0.410
2020/01/31 10:55:49.6	293.140	-0.320	-0.490	0.360
2020/01/31 10:55:49.7	293.150	-0.340	-0.490	0.310
2020/01/31 10:55:49.8	293.160	-0.360	-0.480	0.250
2020/01/31 10:55:49.9	293.180	-0.380	-0.470	0.200
2020/01/31 10:55:50.0	293.200	-0.400	-0.470	0.150
2020/01/31 10:55:50.1	293.220	-0.410	-0.470	0.090
2020/01/31 10:55:50.2	293.240	-0.430	-0.470	0.040
2020/01/31 10:55:50.3	293.260	-0.440	-0.470	-0.010
2020/01/31 10:55:50.4	293.290	-0.450	-0.470	-0.070
2020/01/31 10:55:50.5	293.320	-0.450	-0.470	-0.120
2020/01/31 10:55:50.6	293.350	-0.460	-0.470	-0.170
2020/01/31 10:55:50.7	293.380	-0.460	-0.480	-0.220
2020/01/31 10:55:50.8	293.410	-0.460	-0.480	-0.270
2020/01/31 10:55:50.9	293.450	-0.460	-0.490	-0.320
2020/01/31 10:55:51.0	293.480	-0.460	-0.500	-0.360
2020/01/31 10:55:51.1	293.520	-0.450	-0.500	-0.410
2020/01/31 10:55:51.2	293.560	-0.440	-0.510	-0.450
2020/01/31 10:55:51.3	293.600	-0.430	-0.520	-0.490
2020/01/31 10:55:51.4	293.650	-0.420	-0.520	-0.530
2020/01/31 10:55:51.5	293.690	-0.410	-0.530	-0.560
2020/01/31 10:55:51.6	293.730	-0.400	-0.530	-0.600
2020/01/31 10:55:51.7	293.780	-0.380	-0.540	-0.630
2020/01/31 10:55:51.8	293.820	-0.360	-0.540	-0.650
2020/01/31 10:55:51.9	293.870	-0.350	-0.540	-0.680
2020/01/31 10:55:52.0	293.910	-0.330	-0.540	-0.690
2020/01/31 10:55:52.1	293.960	-0.310	-0.540	-0.710
2020/01/31 10:55:52.2	294.000	-0.290	-0.530	-0.720
2020/01/31 10:55:52.3	294.050	-0.270	-0.520	-0.730
2020/01/31 10:55:52.4	294.090	-0.260	-0.510	-0.740
2020/01/31 10:55:52.5	294.120	-0.240	-0.490	-0.740
2020/01/31 10:55:52.6	294.160	-0.220	-0.470	-0.740
2020/01/31 10:55:52.7	294.200	-0.200	-0.450	-0.730
2020/01/31 10:55:52.8	294.240	-0.190	-0.420	-0.720
2020/01/31 10:55:52.9	294.270	-0.170	-0.390	-0.700
2020/01/31 10:55:53.0	294.300	-0.160	-0.360	-0.680
2020/01/31 10:55:53.1	294.330	-0.150	-0.320	-0.660
2020/01/31 10:55:53.2	294.360	-0.130	-0.280	-0.630
2020/01/31 10:55:53.3	294.380	-0.130	-0.240	-0.600
2020/01/31 10:55:53.4	294.410	-0.120	-0.190	-0.560
2020/01/31 10:55:53.5	294.430	-0.110	-0.140	-0.520
2020/01/31 10:55:53.6	294.440	-0.100	-0.080	-0.480
2020/01/31 10:55:53.7	294.460	-0.100	-0.030	-0.440
2020/01/31 10:55:53.8	294.470	-0.100	0.030	-0.400
2020/01/31 10:55:53.9	294.490	-0.100	0.090	-0.350
2020/01/31 10:55:54.0	294.500	-0.100	0.150	-0.300
2020/01/31 10:55:54.1	294.500	-0.100	0.210	-0.250
2020/01/31 10:55:54.2	294.510	-0.100	0.280	-0.200
2020/01/31 10:55:54.3	294.510	-0.110	0.340	-0.150
2020/01/31 10:55:54.4	294.510	-0.110	0.400	-0.090
2020/01/31 10:55:54.5	294.520	-0.120	0.470	-0.040
2020/01/31 10:55:54.6	294.510	-0.130	0.530	0.020
2020/01/31 10:55:54.7	294.510	-0.130	0.590	0.070
2020/01/31 10:55:54.8	294.500	-0.140	0.640	0.130
2020/01/31 10:55:54.9	294.490	-0.150	0.700	0.190
2020/01/31 10:55:55.0	294.480	-0.150	0.750	0.240
2020/01/31 10:55:55.1	294.460	-0.160	0.800	0.300
2020/01/31 10:55:55.2	294.450	-0.170	0.840	0.350
2020/01/31 10:55:55.3	294.430	-0.170	0.880	0.400
2020/01/31 10:55:55.4	294.410	-0.180	0.910	0.450
2020/01/31 10:55:55.5	294.400	-0.180	0.940	0.500
2020/01/31 10:55:55.6	294.380	-0.180	0.970	0.550
2020/01/31 10:55:55.7	294.350	-0.180	0.980	0.600
2020/01/31 10:55:55.8	294.330	-0.180	1.000	0.640
2020/01/31 10:55:55.9	294.300	-0.180	1.000	0.680
2020/01/31 10:55:56.0	294.280	-0.170	1.000	0.720
2020/01/31 10:55:56.1	294.250	-0.170	1.000	0.760
2020/01/31 10:55:56.2	294.220	-0.160	0.980	0.790
2020/01/31 10:55:56.3	294.200	-0.140	0.960	0.820
2020/01/31 10:55:56.4	294.170	-0.130	0.930	0.850
2020/01/31 10:55:56.5	294.140	-0.110	0.900	0.870
2020/01/31 10:55:56.6	294.110	-0.090	0.860	0.890
2020/01/31 10:55:56.7	294.080	-0.070	0.810	0.910
2020/01/31 10:55:56.8	294.050	-0.050	0.750	0.930
2020/01/31 10:55:56.9	294.020	-0.020	0.690	0.940
2020/01/31 10:55:57.0	293.990	0.010	0.620	0.950
2020/01/31 10:55:57.1	293.960	0.040	0.550	0.960
2020/01/31 10:55:57.2	293.940	0.070	0.470	0.960
2020/01/31 10:55:57.3	293.910	0.110	0.380	0.960
2020/01/31 10:55:57.4	293.880	0.140	0.290	0.960
2020/01/31 10:55:57.5	293.870	0.180	0.200	0.960
2020/01/31 10:55:57.6	293.840	0.220	0.100	0.960
2020/01/31 10:55:57.7	293.820	0.260	-0.000	0.950
2020/01/31 10:55:57.8	293.790	0.300	-0.110	0.950
2020/01/31 10:55:57.9	293.770	0.340	-0.210	0.940
2020/01/31 10:55:58.0	293.750	0.390	-0.320	0.940
2020/01/31 10:55:58.1	293.730	0.430	-0.420	0.930
2020/01/31 10:55:58.2	293.710	0.470	-0.530	0.920
2020/01/31 10:55:58.3	293.690	0.510	-0.630	0.910
2020/01/31 10:55:58.4	293.670	0.550	-0.730	0.900
2020/01/31 10:55:58.5	293.650	0.580	-0.830	0.890
2020/01/31 10:55:58.6	293.630	0.620	-0.920	0.880
2020/01/31 10:55:58.7	293.620	0.650	-1.010	0.870
2020/01/31 10:55:58.8	293.610	0.680	-1.090	0.860
2020/01/31 10:55:58.9	293.590	0.710	-1.170	0.850
2020/01/31 10:55:59.0	293.580	0.740	-1.240	0.840
2020/01/31 10:55:59.1	293.570	0.760	-1.300	0.830
2020/01/31 10:55:59.2	293.570	0.780	-1.360	0.820
2020/01/31 10:55:59.3	293.560	0.800	-1.410	0.800
2020/01/31 10:55:59.4	293.550	0.810	-1.460	0.790
2020/01/31 10:55:59.5	293.550	0.820	-1.490	0.780
2020/01/31 10:55:59.6	293.550	0.820	-1.520	0.760
2020/01/31 10:55:59.7	293.550	0.820	-1.540	0.750
2020/01/31 10:55:59.8	293.550	0.820	-1.560	0.730
2020/01/31 10:55:59.9	293.560	0.810	-1.560	0.710
2020/01/31 10:56:00.0	293.560	0.800	-1.560	0.690
2020/01/31 10:56:00.1	293.570	0.780	-1.560	0.670
2020/01/31 10:56:00.2	293.570	0.770	-1.540	0.640
2020/01/31 10:56:00.3	293.580	0.740	-1.520	0.620
2020/01/31 10:56:00.4	293.590	0.720	-1.500	0.590
2020/01/31 10:56:00.5	293.600	0.690	-1.470	0.560
2020/01/31 10:56:00.6	293.610	0.660	-1.440	0.530
2020/01/31 10:56:00.7	293.630	0.620	-1.400	0.500
2020/01/31 10:56:00.8	293.640	0.590	-1.350	0.470
2020/01/31 10:56:00.9	293.660	0.550	-1.310	0.430
2020/01/31 10:56:01.0	293.680	0.510	-1.260	0.390
2020/01/31 10:56:01.1	293.700	0.460	-1.210	0.350
2020/01/31 10:56:01.2	293.720	0.420	-1.150	0.310
2020/01/31 10:56:01.3	293.740	0.380	-1.100	0.260
2020/01/31 10:56:01.4	293.760	0.330	-1.040	0.220
2020/01/31 10:56:01.5	293.790	0.280	-0.990	0.170
2020/01/31 10:56:01.6	293.810	0.230	-0.930	0.120
2020/01/31 10:56:01.7	293.840	0.190	-0.870	0.070
2020/01/31 10:56:01.8	293.870	0.140	-0.820	0.020
2020/01/31 10:56:01.9	293.900	0.090	-0.760	-0.030
2020/01/31 10:56:02.0	293.930	0.050	-0.700	-0.090
2020/01/31 10:56:02.1	293.960	0.000	-0.650	-0.140
2020/01/31 10:56:02.2	294.000	-0.040	-0.590	-0.190
2020/01/31 10:56:02.3	294.030	-0.080	-0.540	-0.240
2020/01/31 10:56:02.4	294.070	-0.130	-0.490	-0.300
2020/01/31 10:56:02.5	294.100	-0.170	-0.430	-0.350
2020/01/31 10:56:02.6	294.130	-0.200	-0.380	-0.400
2020/01/31 10:56:02.7	294.170	-0.240	-0.330	-0.450
2020/01/31 10:56:02.8	294.200	-0.280	-0.280	-0.490
2020/01/31 10:56:02.9	294.240	-0.310	-0.240	-0.530
2020/01/31 10:56:03.0	294.270	-0.340	-0.190	-0.580
2020/01/31 10:56:03.1	294.310	-0.370	-0.140	-0.610
2020/01/31 10:56:03.2	294.340	-0.400	-0.090	-0.650
2020/01/31 10:56:03.3	294.380	-0.430	-0.050	-0.680
2020/01/31 10:56:03.4	294.410	-0.450	-0.000	-0.700
2020/01/31 10:56:03.5	294.430	-0.480	0.040	-0.730
2020/01/31 10:56:03.6	294.460	-0.500	0.090	-0.750
2020/01/31 10:56:03.7	294.490	-0.520	0.130	-0.760
2020/01/31 10:56:03.8	294.510	-0.540	0.170	-0.770
2020/01/31 10:56:03.9	294.540	-0.560	0.220	-0.780
2020/01/31 10:56:04.0	294.560	-0.570	0.260	-0.780
2020/01/31 10:56:04.1	294.580	-0.590	0.300	-0.780
2020/01/31 10:56:04.2	294.590	-0.600	0.340	-0.770
2020/01/31 10:56:04.3	294.610	-0.610	0.380	-0.760
2020/01/31 10:56:04.4	294.620	-0.620	0.410	-0.740
2020/01/31 10:56:04.5	294.630	-0.630	0.450	-0.730
2020/01/31 10:56:04.6	294.630	-0.640	0.480	-0.700
2020/01/31 10:56:04.7	294.640	-0.650	0.510	-0.680
2020/01/31 10:56:04.8	294.640	-0.660	0.540	-0.650
2020/01/31 10:56:04.9	294.640	-0.660	0.570	-0.620
2020/01/31 10:56:05.0	294.640	-0.670	0.590	-0.580
2020/01/31 10:56:05.1	294.640	-0.670	0.620	-0.540
2020/01/31 10:56:05.2	294.630	-0.670	0.640	-0.500
2020/01/31 10:56:05.3	294.630	-0.670	0.660	-0.460
2020/01/31 10:56:05.4	294.620	-0.670	0.670	-0.410
2020/01/31 10:56:05.5	294.600	-0.670	0.690	-0.360
2020/01/31 10:56:05.6	294.590	-0.670	0.700	-0.310
2020/01/31 10:56:05.7	294.580	-0.670	0.700	-0.260
2020/01/31 10:56:05.8	294.560	-0.660	0.710	-0.210
2020/01/31 10:56:05.9	294.550	-0.660	0.710	-0.160
2020/01/31 10:56:06.0	294.530	-0.650	0.710	-0.100
2020/01/31 10:56:06.1	294.510	-0.650	0.710	-0.040
2020/01/31 10:56:06.2	294.490	-0.640	0.700	0.010
2020/01/31 10:56:06.3	294.470	-0.630	0.690	0.070
2020/01/31 10:56:06.4	294.450	-0.620	0.670	0.120
2020/01/31 10:56:06.5	294.440	-0.610	0.660	0.170
2020/01/31 10:56:06.6	294.410	-0.590	0.640	0.230
2020/01/31 10:56:06.7	294.400	-0.580	0.620	0.280
2020/01/31 10:56:06.8	294.380	-0.560	0.590	0.340
2020/01/31 10:56:06.9	294.360	-0.550	0.560	0.390
2020/01/31 10:56:07.0	294.340	-0.530	0.530	0.440
2020/01/31 10:56:07.1	294.320	-0.510	0.500	0.490
2020/01/31 10:56:07.2	294.300	-0.490	0.470	0.540
2020/01/31 10:56:07.3	294.280	-0.460	0.430	0.590
2020/01/31 10:56:07.4	294.260	-0.440	0.390	0.630
2020/01/31 10:56:07.5	294.230	-0.410	0.350	0.680
2020/01/31 10:56:07.6	294.210	-0.390	0.310	0.720
2020/01/31 10:56:07.7	294.190	-0.360	0.260	0.760
2020/01/31 10:56:07.8	294.180	-0.330	0.220	0.800
2020/01/31 10:56:07.9	294.160	-0.300	0.170	0.830
2020/01/31 10:56:08.0	294.140	-0.270	0.120	0.870
2020/01/31 10:56:08.1	294.120	-0.230	0.070	0.900
2020/01/31 10:56:08.2	294.100	-0.200	0.010	0.930
2020/01/31 10:56:08.3	294.080	-0.170	-0.040	0.960
2020/01/31 10:56:08.4	294.070	-0.130	-0.100	0.990
2020/01/31 10:56:08.5	294.050	-0.090	-0.150	1.010
2020/01/31 10:56:08.6	294.030	-0.060	-0.210	1.030
2020/01/31 10:56:08.7	294.020	-0.020	-0.270	1.050
2020/01/31 10:56:08.8	294.000	0.020	-0.330	1.070
2020/01/31 10:56:08.9	293.990	0.060	-0.390	1.080
2020/01/31 10:56:09.0	293.980	0.100	-0.440	1.090
2020/01/31 10:56:09.1	293.970	0.140	-0.500	1.100
2020/01/31 10:56:09.2	293.960	0.180	-0.560	1.110
2020/01/31 10:56:09.3	293.950	0.220	-0.620	1.120
2020/01/31 10:56:09.4	293.940	0.260	-0.670	1.120
2020/01/31 10:56:09.5	293.930	0.300	-0.720	1.120
2020/01/31 10:56:09.6	293.920	0.340	-0.780	1.120
2020/01/31 10:56:09.7	293.920	0.380	-0.830	1.120
2020/01/31 10:56:09.8	293.920	0.420	-0.880	1.120
2020/01/31 10:56:09.9	293.910	0.460	-0.920	1.110
2020/01/31 10:56:10.0	293.910	0.500	-0.970	1.110
2020/01/31 10:56:10.1	293.910	0.530	-1.010	1.100
2020/01/31 10:56:10.2	293.910	0.560	-1.040	1.090
2020/01/31 10:56:10.3	293.910	0.600	-1.080	1.080
2020/01/31 10:56:10.4	293.910	0.630	-1.110	1.070
2020/01/31 10:56:10.5	293.910	0.650	-1.130	1.050
2020/01/31 10:56:10.6	293.910	0.680	-1.150	1.040
2020/01/31 10:56:10.7	293.910	0.700	-1.170	1.020
2020/01/31 10:56:10.8	293.910	0.720	-1.180	1.010
2020/01/31 10:56:10.9	293.920	0.740	-1.190	0.990
2020/01/31 10:56:11.0	293.920	0.750	-1.190	0.970
2020/01/31 10:56:11.1	293.930	0.760	-1.190	0.950
2020/01/31 10:56:11.2	293.930	0.770	-1.180	0.930
2020/01/31 10:56:11.3	293.940	0.780	-1.170	0.910
2020/01/31 10:56:11.4	293.940	0.780	-1.160	0.890
2020/01/31 10:56:11.5	293.950	0.780	-1.140	0.870
2020/01/31 10:56:11.6	293.960	0.780	-1.120	0.840
2020/01/31 10:56:11.7	293.970	0.770	-1.090	0.810
2020/01/31 10:56:11.8	293.980	0.760	-1.060	0.780
2020/01/31 10:56:11.9	294.000	0.750	-1.020	0.740
2020/01/31 10:56:12.0	294.010	0.730	-0.990	0.710
2020/01/31 10:56:12.1	294.030	0.710	-0.950	0.670
2020/01/31 10:56:12.2	294.050	0.690	-0.910	0.630
2020/01/31 10:56:12.3	294.070	0.670	-0.870	0.590
2020/01/31 10:56:12.4	294.090	0.640	-0.820	0.550
2020/01/31 10:56:12.5	294.110	0.620	-0.780	0.500
2020/01/31 10:56:12.6	294.130	0.590	-0.730	0.460
2020/01/31 10:56:12.7	294.150	0.560	-0.690	0.410
2020/01/31 10:56:12.8	294.180	0.530	-0.640	0.370
2020/01/31 10:56:12.9	294.200	0.490	-0.590	0.320
2020/01/31 10:56:13.0	294.230	0.460	-0.550	0.280
2020/01/31 10:56:13.1	294.250	0.420	-0.500	0.230
2020/01/31 10:56:13.2	294.280	0.390	-0.460	0.190
2020/01/31 10:56:13.3	294.300	0.350	-0.410	0.140
2020/01/31 10:56:13.4	294.320	0.320	-0.370	0.100
2020/01/31 10:56:13.5	294.340	0.280	-0.320	0.070
2020/01/31 10:56:13.6	294.370	0.250	-0.280	0.030
2020/01/31 10:56:13.7	294.390	0.210	-0.240	-0.010
2020/01/31 10:56:13.8	294.400	0.180	-0.200	-0.040
2020/01/31 10:56:13.9	294.420	0.140	-0.160	-0.070
2020/01/31 10:56:14.0	294.440	0.110	-0.120	-0.100
2020/01/31 10:56:14.1	294.450	0.070	-0.090	-0.120
2020/01/31 10:56:14.2	294.460	0.040	-0.050	-0.140
2020/01/31 10:56:14.3	294.470	0.010	-0.020	-0.160
2020/01/31 10:56:14.4	294.480	-0.020	0.010	-0.170
2020/01/31 10:56:14.5	294.490	-0.040	0.040	-0.190
2020/01/31 10:56:14.6	294.490	-0.070	0.070	-0.200
2020/01/31 10:56:14.7	294.490	-0.100	0.100	-0.200
2020/01/31 10:56:14.8	294.490	-0.120	0.120	-0.210
2020/01/31 10:56:14.9	294.490	-0.140	0.150	-0.210
2020/01/31 10:56:15.0	294.490	-0.160	0.170	-0.210
2020/01/31 10:56:15.1	294.490	-0.180	0.190	-0.200
2020/01/31 10:56:15.2	294.490	-0.200	0.210	-0.200
2020/01/31 10:56:15.3	294.480	-0.210	0.230	-0.190
2020/01/31 10:56:15.4	294.480	-0.220	0.250	-0.180
2020/01/31 10:56:15.5	294.470	-0.240	0.260	-0.180
2020/01/31 10:56:15.6	294.470	-0.250	0.280	-0.170
2020/01/31 10:56:15.7	294.460	-0.250	0.290	-0.160
2020/01/31 10:56:15.8	294.460	-0.260	0.300	-0.150
2020/01/31 10:56:15.9	294.460	-0.270	0.310	-0.140
2020/01/31 10:56:16.0	294.450	-0.270	0.310	-0.130
2020/01/31 10:56:16.1	294.450	-0.270	0.320	-0.120
2020/01/31 10:56:16.2	294.450	-0.270	0.330	-0.110
2020/01/31 10:56:16.3	294.440	-0.270	0.330	-0.100
2020/01/31 10:56:16.4	294.440	-0.270	0.330	-0.090
2020/01/31 10:56:16.5	294.440	-0.270	0.330	-0.080
2020/01/31 10:56:16.6	294.440	-0.270	0.330	-0.070
2020/01/31 10:56:16.7	294.440	-0.260	0.330	-0.060
2020/01/31 10:56:16.8	294.440	-0.260	0.320	-0.050
2020/01/31 10:56:16.9	294.440	-0.250	0.320	-0.040
2020/01/31 10:56:17.0	294.440	-0.240	0.310	-0.030
2020/01/31 10:56:17.1	294.440	-0.240	0.310	-0.020
2020/01/31 10:56:17.2	294.450	-0.230	0.300	-0.010
2020/01/31 10:56:17.3	294.450	-0.220	0.290	0.000
2020/01/31 10:56:17.4	294.450	-0.210	0.280	0.020
2020/01/31 10:56:17.5	294.450	-0.200	0.270	0.040
2020/01/31 10:56:17.6	294.450	-0.190	0.250	0.050
2020/01/31 10:56:17.7	294.450	-0.190	0.240	0.070
2020/01/31 10:56:17.8	294.450	-0.180	0.230	0.090
2020/01/31 10:56:17.9	294.450	-0.170	0.210	0.110
2020/01/31 10:56:18.0	294.450	-0.160	0.200	0.130
2020/01/31 10:56:18.1	294.450	-0.150	0.180	0.150
2020/01/31 10:56:18.2	294.450	-0.140	0.170	0.170
2020/01/31 10:56:18.3	294.440	-0.140	0.150	0.190
2020/01/31 10:56:18.4	294.440	-0.130	0.140	0.210
2020/01/31 10:56:18.5	294.430	-0.120	0.120	0.230
2020/01/31 10:56:18.6	294.430	-0.120	0.100	0.250
2020/01/31 10:56:18.7	294.430	-0.110	0.080	0.280
2020/01/31 10:56:18.8	294.420	-0.110	0.060	0.300
2020/01/31 10:56:18.9	294.420	-0.110	0.040	0.320
2020/01/31 10:56:19.0	294.410	-0.100	0.020	0.350
2020/01/31 10:56:19.1	294.410	-0.100	0.000	0.370
2020/01/31 10:56:19.2	294.410	-0.100	-0.020	0.390
2020/01/31 10:56:19.3	294.400	-0.100	-0.040	0.410
2020/01/31 10:56:19.4	294.400	-0.100	-0.060	0.430
2020/01/31 10:56:19.5	294.400	-0.100	-0.080	0.450
2020/01/31 10:56:19.6	294.400	-0.100	-0.100	0.470
2020/01/31 10:56:19.7	294.390	-0.100	-0.130	0.490
2020/01/31 10:56:19.8	294.390	-0.110	-0.150	0.500
2020/01/31 10:56:19.9	294.390	-0.110	-0.170	0.520
2020/01/31 10:56:20.0	294.390	-0.110	-0.200	0.530
2020/01/31 10:56:20.1	294.390	-0.120	-0.220	0.540
2020/01/31 10:56:20.2	294.380	-0.120	-0.240	0.550
2020/01/31 10:56:20.3	294.380	-0.120	-0.270	0.560
2020/01/31 10:56:20.4	294.380	-0.130	-0.290	0.560
2020/01/31 10:56:20.5	294.370	-0.130	-0.320	0.570
2020/01/31 10:56:20.6	294.370	-0.140	-0.350	0.570
2020/01/31 10:56:20.7	294.370	-0.140	-0.370	0.570
2020/01/31 10:56:20.8	294.370	-0.150	-0.400	0.560
2020/01/31 10:56:20.9	294.370	-0.150	-0.420	0.560
2020/01/31 10:56:21.0	294.370	-0.160	-0.450	0.550
2020/01/31 10:56:21.1	294.370	-0.160	-0.480	0.540
2020/01/31 10:56:21.2	294.370	-0.160	-0.500	0.520
2020/01/31 10:56:21.3	294.370	-0.170	-0.530	0.510
2020/01/31 10:56:21.4	294.370	-0.170	-0.550	0.490
2020/01/31 10:56:21.5	294.370	-0.170	-0.580	0.470
2020/01/31 10:56:21.6	294.370	-0.170	-0.600	0.450
2020/01/31 10:56:21.7	294.370	-0.170	-0.630	0.420
2020/01/31 10:56:21.8	294.370	-0.170	-0.660	0.400
2020/01/31 10:56:21.9	294.370	-0.170	-0.680	0.370
2020/01/31 10:56:22.0	294.370	-0.170	-0.700	0.350
2020/01/31 10:56:22.1	294.370	-0.170	-0.730	0.320
2020/01/31 10:56:22.2	294.370	-0.170	-0.750	0.290
2020/01/31 10:56:22.3	294.370	-0.160	-0.770	0.270
2020/01/31 10:56:22.4	294.370	-0.160	-0.790	0.240
2020/01/31 10:56:22.5	294.360	-0.150	-0.810	0.210
2020/01/31 10:56:22.6	294.360	-0.150	-0.830	0.180
2020/01/31 10:56:22.7	294.360	-0.140	-0.840	0.150
2020/01/31 10:56:22.8	294.360	-0.130	-0.860	0.130
2020/01/31 10:56:22.9	294.360	-0.130	-0.870	0.100
2020/01/31 10:56:23.0	294.360	-0.120	-0.870	0.070
2020/01/31 10:56:23.1	294.360	-0.110	-0.880	0.050
2020/01/31 10:56:23.2	294.360	-0.100	-0.880	0.020
2020/01/31 10:56:23.3	294.360	-0.090	-0.880	0.000
2020/01/31 10:56:23.4	294.360	-0.080	-0.880	-0.020
2020/01/31 10:56:23.5	294.360	-0.070	-0.870	-0.040
2020/01/31 10:56:23.6	294.360	-0.060	-0.870	-0.060
2020/01/31 10:56:23.7	294.370	-0.050	-0.860	-0.080
2020/01/31 10:56:23.8	294.370	-0.040	-0.840	-0.090
2020/01/31 10:56:23.9	294.370	-0.030	-0.830	-0.100
2020/01/31 10:56:24.0	294.370	-0.020	-0.810	-0.120
2020/01/31 10:56:24.1	294.380	-0.010	-0.790	-0.120
2020/01/31 10:56:24.2	294.380	-0.010	-0.760	-0.130
2020/01/31 10:56:24.3	294.380	0.000	-0.730	-0.130
2020/01/31 10:56:24.4	294.390	0.010	-0.700	-0.130
2020/01/31 10:56:24.5	294.390	0.020	-0.670	-0.130
2020/01/31 10:56:24.6	294.400	0.030	-0.640	-0.120
2020/01/31 10:56:24.7	294.400	0.030	-0.600	-0.120
2020/01/31 10:56:24.8	294.410	0.040	-0.560	-0.100
2020/01/31 10:56:24.9	294.410	0.050	-0.520	-0.090
2020/01/31 10:56:25.0	294.410	0.050	-0.480	-0.070
2020/01/31 10:56:25.1	294.420	0.060	-0.440	-0.050
2020/01/31 10:56:25.2	294.420	0.070	-0.400	-0.020
2020/01/31 10:56:25.3	294.430	0.070	-0.350	0.000
2020/01/31 10:56:25.4	294.440	0.080	-0.310	0.030
2020/01/31 10:56:25.5	294.450	0.090	-0.260	0.060
2020/01/31 10:56:25.6	294.450	0.090	-0.210	0.100
2020/01/31 10:56:25.7	294.460	0.100	-0.170	0.130
2020/01/31 10:56:25.8	294.460	0.110	-0.130	0.170
2020/01/31 10:56:25.9	294.470	0.110	-0.080	0.200
2020/01/31 10:56:26.0	294.480	0.120	-0.040	0.240
2020/01/31 10:56:26.1	294.480	0.130	-0.000	0.280
2020/01/31 10:56:26.2	294.490	0.130	0.040	0.320
2020/01/31 10:56:26.3	294.490	0.140	0.080	0.360
2020/01/31 10:56:26.4	294.500	0.150	0.110	0.400
2020/01/31 10:56:26.5	294.500	0.160	0.140	0.440
2020/01/31 10:56:26.6	294.510	0.170	0.170	0.480
2020/01/31 10:56:26.7	294.510	0.180	0.200	0.520
2020/01/31 10:56:26.8	294.520	0.190	0.230	0.560
2020/01/31 10:56:26.9	294.520	0.200	0.250	0.600
2020/01/31 10:56:27.0	294.520	0.210	0.270	0.640
2020/01/31 10:56:27.1	294.530	0.220	0.280	0.680
2020/01/31 10:56:27.2	294.530	0.230	0.300	0.720
2020/01/31 10:56:27.3	294.530	0.240	0.310	0.760
2020/01/31 10:56:27.4	294.530	0.250	0.320	0.790
2020/01/31 10:56:27.5	294.530	0.260	0.320	0.820
2020/01/31 10:56:27.6	294.530	0.270	0.320	0.850
2020/01/31 10:56:27.7	294.530	0.280	0.310	0.880
2020/01/31 10:56:27.8	294.530	0.290	0.310	0.910
2020/01/31 10:56:27.9	294.530	0.300	0.300	0.930
2020/01/31 10:56:28.0	294.530	0.310	0.290	0.950
2020/01/31 10:56:28.1	294.530	0.330	0.270	0.970
2020/01/31 10:56:28.2	294.530	0.340	0.260	0.980
2020/01/31 10:56:28.3	294.530	0.340	0.240	0.990
2020/01/31 10:56:28.4	294.530	0.350	0.210	1.000
2020/01/31 10:56:28.5	294.520	0.360	0.190	1.010
2020/01/31 10:56:28.6	294.520	0.370	0.170	1.020
2020/01/31 10:56:28.7	294.520	0.380	0.140	1.020
2020/01/31 10:56:28.8	294.520	0.380	0.110	1.020
2020/01/31 10:56:28.9	294.510	0.390	0.080	1.010
2020/01/31 10:56:29.0	294.510	0.390	0.050	1.010
2020/01/31 10:56:29.1	294.500	0.400	0.020	1.000
2020/01/31 10:56:29.2	294.500	0.400	-0.010	0.990
2020/01/31 10:56:29.3	294.490	0.400	-0.030	0.970
2020/01/31 10:56:29.4	294.480	0.400	-0.060	0.960
2020/01/31 10:56:29.5	294.480	0.400	-0.090	0.940
2020/01/31 10:56:29.6	294.470	0.390	-0.120	0.920
2020/01/31 10:56:29.7	294.460	0.390	-0.140	0.900
2020/01/31 10:56:29.8	294.450	0.380	-0.170	0.880
2020/01/31 10:56:29.9	294.450	0.380	-0.190	0.860
2020/01/31 10:56:30.0	294.440	0.370	-0.210	0.840
2020/01/31 10:56:30.1	294.430	0.360	-0.230	0.810
2020/01/31 10:56:30.2	294.420	0.340	-0.240	0.790
2020/01/31 10:56:30.3	294.410	0.330	-0.260	0.760
2020/01/31 10:56:30.4	294.400	0.320	-0.270	0.740
2020/01/31 10:56:30.5	294.390	0.300	-0.280	0.710
2020/01/31 10:56:30.6	294.380	0.290	-0.290	0.680
2020/01/31 10:56:30.7	294.370	0.270	-0.290	0.650
2020/01/31 10:56:30.8	294.360	0.250	-0.290	0.630
2020/01/31 10:56:30.9	294.350	0.230	-0.290	0.600
2020/01/31 10:56:31.0	294.340	0.210	-0.290	0.570
2020/01/31 10:56:31.1	294.320	0.190	-0.290	0.540
2020/01/31 10:56:31.2	294.310	0.170	-0.290	0.500
2020/01/31 10:56:31.3	294.300	0.140	-0.290	0.470
2020/01/31 10:56:31.4	294.280	0.120	-0.280	0.440
2020/01/31 10:56:31.5	294.260	0.100	-0.280	0.410
2020/01/31 10:56:31.6	294.250	0.080	-0.270	0.380
2020/01/31 10:56:31.7	294.240	0.050	-0.270	0.340
2020/01/31 10:56:31.8	294.220	0.030	-0.270	0.310
2020/01/31 10:56:31.9	294.210	0.010	-0.260	0.280
2020/01/31 10:56:32.0	294.200	-0.010	-0.260	0.240
2020/01/31 10:56:32.1	294.180	-0.030	-0.260	0.210
2020/01/31 10:56:32.2	294.170	-0.050	-0.260	0.170
2020/01/31 10:56:32.3	294.160	-0.070	-0.260	0.140
2020/01/31 10:56:32.4	294.150	-0.090	-0.260	0.100
2020/01/31 10:56:32.5	294.130	-0.110	-0.270	0.070
2020/01/31 10:56:32.6	294.120	-0.130	-0.280	0.030
2020/01/31 10:56:32.7	294.110	-0.140	-0.280	0.000
2020/01/31 10:56:32.8	294.100	-0.160	-0.290	-0.030
2020/01/31 10:56:32.9	294.090	-0.170	-0.300	-0.070
2020/01/31 10:56:33.0	294.080	-0.180	-0.320	-0.100
2020/01/31 10:56:33.1	294.080	-0.190	-0.330	-0.140
2020/01/31 10:56:33.2	294.080	-0.200	-0.350	-0.170
2020/01/31 10:56:33.3	294.070	-0.210	-0.360	-0.200
2020/01/31 10:56:33.4	294.070	-0.220	-0.380	-0.240
2020/01/31 10:56:33.5	294.070	-0.230	-0.400	-0.270
2020/01/31 10:56:33.6	294.070	-0.230	-0.420	-0.310
2020/01/31 10:56:33.7	294.070	-0.240	-0.440	-0.340
2020/01/31 10:56:33.8	294.080	-0.240	-0.470	-0.370
2020/01/31 10:56:33.9	294.080	-0.240	-0.490	-0.400
2020/01/31 10:56:34.0	294.090	-0.240	-0.510	-0.430
2020/01/31 10:56:34.1	294.100	-0.250	-0.530	-0.460
2020/01/31 10:56:34.2	294.110	-0.250	-0.550	-0.490
2020/01/31 10:56:34.3	294.120	-0.250	-0.570	-0.510
2020/01/31 10:56:34.4	294.130	-0.240	-0.590	-0.540
2020/01/31 10:56:34.5	294.140	-0.240	-0.610	-0.560
2020/01/31 10:56:34.6	294.160	-0.240	-0.630	-0.580
2020/01/31 10:56:34.7	294.180	-0.240	-0.650	-0.600
2020/01/31 10:56:34.8	294.190	-0.240	-0.660	-0.620
2020/01/31 10:56:34.9	294.210	-0.230	-0.670	-0.630
2020/01/31 10:56:35.0	294.230	-0.230	-0.680	-0.640
2020/01/31 10:56:35.1	294.250	-0.230	-0.690	-0.650
2020/01/31 10:56:35.2	294.270	-0.230	-0.700	-0.660
2020/01/31 10:56:35.3	294.290	-0.220	-0.700	-0.670
2020/01/31 10:56:35.4	294.310	-0.220	-0.700	-0.670
2020/01/31 10:56:35.5	294.340	-0.220	-0.700	-0.680
2020/01/31 10:56:35.6	294.360	-0.220	-0.700	-0.680
2020/01/31 10:56:35.7	294.380	-0.220	-0.690	-0.670
2020/01/31 10:56:35.8	294.410	-0.220	-0.680	-0.670
2020/01/31 10:56:35.9	294.430	-0.220	-0.660	-0.660
2020/01/31 10:56:36.0	294.450	-0.220	-0.650	-0.650
2020/01/31 10:56:36.1	294.480	-0.220	-0.630	-0.630
2020/01/31 10:56:36.2	294.500	-0.220	-0.600	-0.620
2020/01/31 10:56:36.3	294.530	-0.220	-0.580	-0.600
2020/01/31 10:56:36.4	294.550	-0.220	-0.550	-0.580
2020/01/31 10:56:36.5	294.580	-0.220	-0.520	-0.550
2020/01/31 10:56:36.6	294.600	-0.220	-0.490	-0.520
2020/01/31 10:56:36.7	294.630	-0.220	-0.460	-0.490
2020/01/31 10:56:36.8	294.650	-0.230	-0.420	-0.460
2020/01/31 10:56:36.9	294.670	-0.230	-0.380	-0.430
2020/01/31 10:56:37.0	294.690	-0.230	-0.350	-0.400
2020/01/31 10:56:37.1	294.710	-0.230	-0.310	-0.360
2020/01/31 10:56:37.2	294.730	-0.230	-0.270	-0.320
2020/01/31 10:56:37.3	294.750	-0.230	-0.230	-0.280
2020/01/31 10:56:37.4	294.770	-0.230	-0.190	-0.240
2020/01/31 10:56:37.5	294.780	-0.240	-0.150	-0.200
2020/01/31 10:56:37.6	294.790	-0.240	-0.120	-0.160
2020/01/31 10:56:37.7	294.800	-0.240	-0.080	-0.110
2020/01/31 10:56:37.8	294.810	-0.240	-0.040	-0.060
2020/01/31 10:56:37.9	294.810	-0.230	-0.010	-0.010
2020/01/31 10:56:38.0	294.820	-0.230	0.030	0.040
2020/01/31 10:56:38.1	294.810	-0.230	0.060	0.100
2020/01/31 10:56:38.2	294.810	-0.230	0.100	0.150
2020/01/31 10:56:38.3	294.800	-0.220	0.130	0.210
2020/01/31 10:56:38.4	294.790	-0.220	0.160	0.270
2020/01/31 10:56:38.5	294.780	-0.210	0.190	0.340
2020/01/31 10:56:38.6	294.760	-0.200	0.210	0.400
2020/01/31 10:56:38.7	294.740	-0.200	0.240	0.460
2020/01/31 10:56:38.8	294.720	-0.190	0.260	0.530
2020/01/31 10:56:38.9	294.690	-0.180	0.280	0.600
2020/01/31 10:56:39.0	294.660	-0.170	0.300	0.660
2020/01/31 10:56:39.1	294.630	-0.160	0.310	0.730
2020/01/31 10:56:39.2	294.600	-0.150	0.330	0.800
2020/01/31 10:56:39.3	294.560	-0.130	0.340	0.860
2020/01/31 10:56:39.4	294.520	-0.120	0.340	0.930
2020/01/31 10:56:39.5	294.490	-0.110	0.350	0.990
2020/01/31 10:56:39.6	294.450	-0.090	0.350	1.060
2020/01/31 10:56:39.7	294.400	-0.080	0.350	1.120
2020/01/31 10:56:39.8	294.360	-0.060	0.340	1.170
2020/01/31 10:56:39.9	294.320	-0.050	0.330	1.230
2020/01/31 10:56:40.0	294.280	-0.030	0.320	1.280
2020/01/31 10:56:40.1	294.230	-0.010	0.310	1.330
2020/01/31 10:56:40.2	294.190	0.000	0.290	1.380
2020/01/31 10:56:40.3	294.150	0.020	0.260	1.420
2020/01/31 10:56:40.4	294.100	0.040	0.240	1.460
2020/01/31 10:56:40.5	294.060	0.060	0.210	1.490
2020/01/31 10:56:40.6	294.010	0.070	0.180	1.520
2020/01/31 10:56:40.7	293.970	0.090	0.150	1.550
2020/01/31 10:56:40.8	293.930	0.110	0.110	1.570
2020/01/31 10:56:40.9	293.890	0.120	0.080	1.580
2020/01/31 10:56:41.0	293.850	0.140	0.040	1.590
2020/01/31 10:56:41.1	293.820	0.150	0.000	1.600
2020/01/31 10:56:41.2	293.780	0.170	-0.040	1.600
2020/01/31 10:56:41.3	293.750	0.180	-0.070	1.590
2020/01/31 10:56:41.4	293.710	0.190	-0.110	1.580
2020/01/31 10:56:41.5	293.680	0.210	-0.150	1.570
2020/01/31 10:56:41.6	293.660	0.220	-0.190	1.550
2020/01/31 10:56:41.7	293.630	0.230	-0.230	1.520
2020/01/31 10:56:41.8	293.610	0.240	-0.270	1.500
2020/01/31 10:56:41.9	293.590	0.250	-0.310	1.460
2020/01/31 10:56:42.0	293.570	0.250	-0.340	1.420
2020/01/31 10:56:42.1	293.560	0.260	-0.380	1.380
2020/01/31 10:56:42.2	293.540	0.260	-0.410	1.330
2020/01/31 10:56:42.3	293.530	0.270	-0.450	1.280
2020/01/31 10:56:42.4	293.530	0.270	-0.480	1.230
2020/01/31 10:56:42.5	293.540	0.270	-0.510	1.170
2020/01/31 10:56:42.6	293.540	0.270	-0.540	1.110
2020/01/31 10:56:42.7	293.540	0.270	-0.570	1.050
2020/01/31 10:56:42.8	293.540	0.270	-0.590	0.990
2020/01/31 10:56:42.9	293.550	0.270	-0.620	0.930
2020/01/31 10:56:43.0	293.550	0.270	-0.640	0.860
2020/01/31 10:56:43.1	293.570	0.260	-0.660	0.790
2020/01/31 10:56:43.2	293.580	0.260	-0.680	0.730
2020/01/31 10:56:43.3	293.590	0.250	-0.690	0.660
2020/01/31 10:56:43.4	293.610	0.250	-0.700	0.590
2020/01/31 10:56:43.5	293.630	0.240	-0.720	0.530
2020/01/31 10:56:43.6	293.650	0.230	-0.730	0.460
2020/01/31 10:56:43.7	293.670	0.220	-0.730	0.400
2020/01/31 10:56:43.8	293.690	0.210	-0.740	0.340
2020/01/31 10:56:43.9	293.720	0.200	-0.740	0.270
2020/01/31 10:56:44.0	293.740	0.190	-0.740	0.210
2020/01/31 10:56:44.1	293.770	0.180	-0.740	0.150
2020/01/31 10:56:44.2	293.800	0.170	-0.740	0.090
2020/01/31 10:56:44.3	293.820	0.160	-0.740	0.030
2020/01/31 10:56:44.4	293.850	0.150	-0.730	-0.020
2020/01/31 10:56:44.5	293.880	0.140	-0.730	-0.080
2020/01/31 10:56:44.6	293.920	0.130	-0.720	-0.130
2020/01/31 10:56:44.7	293.950	0.110	-0.710	-0.180
2020/01/31 10:56:44.8	293.980	0.100	-0.700	-0.230
2020/01/31 10:56:44.9	294.010	0.090	-0.690	-0.280
2020/01/31 10:56:45.0	294.050	0.080	-0.680	-0.330
2020/01/31 10:56:45.1	294.080	0.070	-0.670	-0.370
2020/01/31 10:56:45.2	294.120	0.060	-0.660	-0.420
2020/01/31 10:56:45.3	294.150	0.050	-0.640	-0.460
2020/01/31 10:56:45.4	294.190	0.040	-0.630	-0.490
2020/01/31 10:56:45.5	294.220	0.030	-0.610	-0.530
2020/01/31 10:56:45.6	294.250	0.020	-0.600	-0.560
2020/01/31 10:56:45.7	294.290	0.010	-0.580	-0.590
2020/01/31 10:56:45.8	294.320	-0.000	-0.560	-0.610
2020/01/31 10:56:45.9	294.360	-0.010	-0.550	-0.630
2020/01/31 10:56:46.0	294.390	-0.020	-0.530	-0.650
2020/01/31 10:56:46.1	294.420	-0.020	-0.510	-0.670
2020/01/31 10:56:46.2	294.460	-0.030	-0.490	-0.680
2020/01/31 10:56:46.3	294.490	-0.040	-0.470	-0.680
2020/01/31 10:56:46.4	294.520	-0.040	-0.440	-0.680
2020/01/31 10:56:46.5	294.540	-0.050	-0.420	-0.680
2020/01/31 10:56:46.6	294.570	-0.050	-0.390	-0.670
2020/01/31 10:56:46.7	294.590	-0.060	-0.370	-0.660
2020/01/31 10:56:46.8	294.610	-0.060	-0.340	-0.640
2020/01/31 10:56:46.9	294.640	-0.060	-0.310	-0.630
2020/01/31 10:56:47.0	294.660	-0.070	-0.290	-0.600
2020/01/31 10:56:47.1	294.670	-0.070	-0.260	-0.580
2020/01/31 10:56:47.2	294.690	-0.070	-0.220	-0.550
2020/01/31 10:56:47.3	294.700	-0.070	-0.190	-0.510
2020/01/31 10:56:47.4	294.710	-0.070	-0.160	-0.480
2020/01/31 10:56:47.5	294.710	-0.080	-0.130	-0.440
2020/01/31 10:56:47.6	294.720	-0.080	-0.090	-0.390
2020/01/31 10:56:47.7	294.720	-0.080	-0.050	-0.350
2020/01/31 10:56:47.8	294.710	-0.080	-0.020	-0.300
2020/01/31 10:56:47.9	294.710	-0.090	0.020	-0.250
2020/01/31 10:56:48.0	294.700	-0.090	0.060	-0.190
2020/01/31 10:56:48.1	294.690	-0.090	0.100	-0.140
2020/01/31 10:56:48.2	294.670	-0.090	0.140	-0.080
2020/01/31 10:56:48.3	294.660	-0.090	0.170	-0.020
2020/01/31 10:56:48.4	294.630	-0.100	0.210	0.040
2020/01/31 10:56:48.5	294.610	-0.100	0.250	0.100
2020/01/31 10:56:48.6	294.580	-0.100	0.280	0.170
2020/01/31 10:56:48.7	294.560	-0.110	0.320	0.230
2020/01/31 10:56:48.8	294.520	-0.110	0.350	0.290
2020/01/31 10:56:48.9	294.490	-0.110	0.380	0.350
2020/01/31 10:56:49.0	294.460	-0.110	0.410	0.410
2020/01/31 10:56:49.1	294.420	-0.120	0.430	0.470
2020/01/31 10:56:49.2	294.380	-0.120	0.450	0.530
2020/01/31 10:56:49.3	294.340	-0.120	0.470	0.590
2020/01/31 10:56:49.4	294.300	-0.120	0.480	0.650
2020/01/31 10:56:49.5	294.260	-0.120	0.500	0.700
2020/01/31 10:56:49.6	294.220	-0.120	0.500	0.750
2020/01/31 10:56:49.7	294.180	-0.120	0.510	0.800
2020/01/31 10:56:49.8	294.140	-0.120	0.510	0.850
2020/01/31 10:56:49.9	294.090	-0.120	0.500	0.900
2020/01/31 10:56:50.0	294.050	-0.120	0.500	0.940
2020/01/31 10:56:50.1	294.010	-0.110	0.490	0.980
2020/01/31 10:56:50.2	293.970	-0.110	0.470	1.020
2020/01/31 10:56:50.3	293.920	-0.100	0.450	1.060
2020/01/31 10:56:50.4	293.880	-0.100	0.430	1.090
2020/01/31 10:56:50.5	293.840	-0.090	0.410	1.120
2020/01/31 10:56:50.6	293.800	-0.080	0.380	1.140
2020/01/31 10:56:50.7	293.760	-0.070	0.350	1.160
2020/01/31 10:56:50.8	293.720	-0.060	0.310	1.180
2020/01/31 10:56:50.9	293.680	-0.050	0.270	1.200
2020/01/31 10:56:51.0	293.640	-0.040	0.230	1.210
2020/01/31 10:56:51.1	293.600	-0.020	0.190	1.220
2020/01/31 10:56:51.2	293.560	-0.010	0.150	1.230
2020/01/31 10:56:51.3	293.530	0.010	0.100	1.230
2020/01/31 10:56:51.4	293.500	0.020	0.050	1.240
2020/01/31 10:56:51.5	293.460	0.040	0.000	1.240
2020/01/31 10:56:51.6	293.430	0.060	-0.050	1.240
2020/01/31 10:56:51.7	293.400	0.080	-0.100	1.230
2020/01/31 10:56:51.8	293.380	0.100	-0.160	1.230
2020/01/31 10:56:51.9	293.350	0.120	-0.210	1.220
2020/01/31 10:56:52.0	293.330	0.140	-0.260	1.210
2020/01/31 10:56:52.1	293.310	0.160	-0.310	1.200
2020/01/31 10:56:52.2	293.290	0.180	-0.370	1.180
2020/01/31 10:56:52.3	293.280	0.200	-0.420	1.160
2020/01/31 10:56:52.4	293.260	0.220	-0.470	1.140
2020/01/31 10:56:52.5	293.250	0.240	-0.520	1.120
2020/01/31 10:56:52.6	293.250	0.260	-0.570	1.090
2020/01/31 10:56:52.7	293.250	0.270	-0.620	1.060
2020/01/31 10:56:52.8	293.250	0.290	-0.670	1.030
2020/01/31 10:56:52.9	293.250	0.300	-0.720	1.000
2020/01/31 10:56:53.0	293.260	0.310	-0.760	0.960
2020/01/31 10:56:53.1	293.270	0.320	-0.800	0.920
2020/01/31 10:56:53.2	293.290	0.330	-0.840	0.880
2020/01/31 10:56:53.3	293.310	0.340	-0.870	0.830
2020/01/31 10:56:53.4	293.330	0.340	-0.910	0.790
2020/01/31 10:56:53.5	293.360	0.350	-0.940	0.740
2020/01/31 10:56:53.6	293.380	0.340	-0.960	0.690
2020/01/31 10:56:53.7	293.410	0.340	-0.980	0.640
2020/01/31 10:56:53.8	293.440	0.340	-1.000	0.590
2020/01/31 10:56:53.9	293.470	0.330	-1.020	0.530
2020/01/31 10:56:54.0	293.500	0.320	-1.030	0.480
2020/01/31 10:56:54.1	293.540	0.300	-1.030	0.430
2020/01/31 10:56:54.2	293.570	0.290	-1.030	0.380
2020/01/31 10:56:54.3	293.600	0.270	-1.030	0.320
2020/01/31 10:56:54.4	293.640	0.250	-1.020	0.270
2020/01/31 10:56:54.5	293.680	0.220	-1.010	0.220
2020/01/31 10:56:54.6	293.720	0.200	-0.990	0.170
2020/01/31 10:56:54.7	293.750	0.170	-0.970	0.120
2020/01/31 10:56:54.8	293.780	0.140	-0.950	0.080
2020/01/31 10:56:54.9	293.820	0.110	-0.920	0.030
2020/01/31 10:56:55.0	293.850	0.080	-0.890	-0.010
2020/01/31 10:56:55.1	293.880	0.040	-0.860	-0.050
2020/01/31 10:56:55.2	293.910	0.010	-0.820	-0.090
2020/01/31 10:56:55.3	293.940	-0.030	-0.780	-0.120
2020/01/31 10:56:55.4	293.970	-0.060	-0.740	-0.160
2020/01/31 10:56:55.5	294.000	-0.100	-0.700	-0.190
2020/01/31 10:56:55.6	294.030	-0.140	-0.660	-0.210
2020/01/31 10:56:55.7	294.050	-0.170	-0.610	-0.240
2020/01/31 10:56:55.8	294.080	-0.210	-0.570	-0.260
2020/01/31 10:56:55.9	294.100	-0.240	-0.530	-0.270
2020/01/31 10:56:56.0	294.120	-0.280	-0.480	-0.290
2020/01/31 10:56:56.1	294.140	-0.310	-0.440	-0.300
2020/01/31 10:56:56.2	294.160	-0.340	-0.400	-0.310
2020/01/31 10:56:56.3	294.180	-0.370	-0.360	-0.320
2020/01/31 10:56:56.4	294.200	-0.400	-0.330	-0.330
2020/01/31 10:56:56.5	294.210	-0.430	-0.290	-0.330
2020/01/31 10:56:56.6	294.230	-0.450	-0.260	-0.330
2020/01/31 10:56:56.7	294.240	-0.470	-0.230	-0.330
2020/01/31 10:56:56.8	294.260	-0.490	-0.200	-0.320
2020/01/31 10:56:56.9	294.270	-0.510	-0.170	-0.320
2020/01/31 10:56:57.0	294.280	-0.530	-0.140	-0.310
2020/01/31 10:56:57.1	294.290	-0.540	-0.120	-0.300
2020/01/31 10:56:57.2	294.300	-0.550	-0.100	-0.290
2020/01/31 10:56:57.3	294.300	-0.560	-0.080	-0.280
2020/01/31 10:56:57.4	294.310	-0.570	-0.060	-0.260
2020/01/31 10:56:57.5	294.310	-0.570	-0.040	-0.250
2020/01/31 10:56:57.6	294.310	-0.570	-0.020	-0.230
2020/01/31 10:56:57.7	294.310	-0.570	-0.010	-0.220
2020/01/31 10:56:57.8	294.310	-0.570	0.000	-0.200
2020/01/31 10:56:57.9	294.300	-0.570	0.020	-0.180
2020/01/31 10:56:58.0	294.300	-0.560	0.030	-0.160
2020/01/31 10:56:58.1	294.290	-0.550	0.040	-0.140
2020/01/31 10:56:58.2	294.280	-0.540	0.050	-0.110
2020/01/31 10:56:58.3	294.270	-0.520	0.050	-0.090
2020/01/31 10:56:58.4	294.260	-0.510	0.060	-0.070
2020/01/31 10:56:58.5	294.250	-0.490	0.070	-0.040
2020/01/31 10:56:58.6	294.230	-0.470	0.070	-0.020
2020/01/31 10:56:58.7	294.220	-0.450	0.080	0.010
2020/01/31 10:56:58.8	294.200	-0.430	0.080	0.040
2020/01/31 10:56:58.9	294.180	-0.400	0.080	0.060
2020/01/31 10:56:59.0	294.160	-0.380	0.090	0.090
2020/01/31 10:56:59.1	294.140	-0.350	0.090	0.120
2020/01/31 10:56:59.2	294.120	-0.330	0.090	0.150
2020/01/31 10:56:59.3	294.090	-0.300	0.090	0.180
2020/01/31 10:56:59.4	294.070	-0.270	0.090	0.210
2020/01/31 10:56:59.5	294.050	-0.240	0.090	0.250
2020/01/31 10:56:59.6	294.020	-0.210	0.090	0.280
2020/01/31 10:56:59.7	293.990	-0.180	0.080	0.320
2020/01/31 10:56:59.8	293.970	-0.150	0.080	0.350
2020/01/31 10:56:59.9	293.940	-0.120	0.080	0.390
2020/01/31 10:57:00.0	293.910	-0.090	0.070	0.430
2020/01/31 10:57:00.1	293.880	-0.060	0.070	0.470
2020/01/31 10:57:00.2	293.850	-0.030	0.060	0.510
2020/01/31 10:57:00.3	293.820	0.000	0.060	0.550
2020/01/31 10:57:00.4	293.790	0.030	0.050	0.590
2020/01/31 10:57:00.5	293.760	0.060	0.040	0.630
2020/01/31 10:57:00.6	293.730	0.090	0.040	0.670
2020/01/31 10:57:00.7	293.700	0.110	0.030	0.710
2020/01/31 10:57:00.8	293.670	0.140	0.020	0.760
2020/01/31 10:57:00.9	293.640	0.170	0.010	0.800
2020/01/31 10:57:01.0	293.610	0.190	0.000	0.840
2020/01/31 10:57:01.1	293.580	0.220	-0.010	0.880
2020/01/31 10:57:01.2	293.560	0.240	-0.020	0.920
2020/01/31 10:57:01.3	293.530	0.260	-0.030	0.960
2020/01/31 10:57:01.4	293.500	0.280	-0.040	1.000
2020/01/31 10:57:01.5	293.470	0.300	-0.060	1.040
2020/01/31 10:57:01.6	293.440	0.320	-0.070	1.080
2020/01/31 10:57:01.7	293.420	0.330	-0.080	1.110
2020/01/31 10:57:01.8	293.390	0.350	-0.090	1.140
2020/01/31 10:57:01.9	293.370	0.360	-0.110	1.170
2020/01/31 10:57:02.0	293.350	0.370	-0.120	1.200
2020/01/31 10:57:02.1	293.330	0.380	-0.130	1.220
2020/01/31 10:57:02.2	293.310	0.390	-0.150	1.240
2020/01/31 10:57:02.3	293.290	0.400	-0.160	1.260
2020/01/31 10:57:02.4	293.270	0.410	-0.170	1.270
2020/01/31 10:57:02.5	293.260	0.410	-0.190	1.280
2020/01/31 10:57:02.6	293.240	0.410	-0.200	1.290
2020/01/31 10:57:02.7	293.230	0.420	-0.210	1.300
2020/01/31 10:57:02.8	293.210	0.420	-0.220	1.300
2020/01/31 10:57:02.9	293.200	0.420	-0.230	1.300
2020/01/31 10:57:03.0	293.190	0.420	-0.230	1.300
2020/01/31 10:57:03.1	293.180	0.410	-0.240	1.290
2020/01/31 10:57:03.2	293.170	0.410	-0.250	1.280
2020/01/31 10:57:03.3	293.160	0.400	-0.250	1.270
2020/01/31 10:57:03.4	293.150	0.400	-0.250	1.260
2020/01/31 10:57:03.5	293.140	0.390	-0.250	1.250
2020/01/31 10:57:03.6	293.130	0.380	-0.250	1.230
2020/01/31 10:57:03.7	293.130	0.370	-0.250	1.210
2020/01/31 10:57:03.8	293.120	0.360	-0.250	1.190
2020/01/31 10:57:03.9	293.120	0.350	-0.250	1.170
2020/01/31 10:57:04.0	293.110	0.340	-0.240	1.150
2020/01/31 10:57:04.1	293.110	0.330	-0.230	1.130
2020/01/31 10:57:04.2	293.110	0.320	-0.230	1.100
2020/01/31 10:57:04.3	293.100	0.300	-0.220	1.080
2020/01/31 10:57:04.4	293.100	0.290	-0.210	1.050
2020/01/31 10:57:04.5	293.100	0.280	-0.210	1.020
2020/01/31 10:57:04.6	293.100	0.260	-0.200	0.990
2020/01/31 10:57:04.7	293.100	0.250	-0.190	0.960
2020/01/31 10:57:04.8	293.110	0.230	-0.180	0.920
2020/01/31 10:57:04.9	293.110	0.220	-0.170	0.890
2020/01/31 10:57:05.0	293.110	0.200	-0.170	0.850
2020/01/31 10:57:05.1	293.110	0.190	-0.160	0.810
2020/01/31 10:57:05.2	293.120	0.170	-0.160	0.780
2020/01/31 10:57:05.3	293.120	0.150	-0.160	0.740
2020/01/31 10:57:05.4	293.130	0.140	-0.160	0.700
2020/01/31 10:57:05.5	293.140	0.120	-0.160	0.660
2020/01/31 10:57:05.6	293.150	0.110	-0.160	0.610
2020/01/31 10:57:05.7	293.160	0.090	-0.160	0.570
2020/01/31 10:57:05.8	293.170	0.080	-0.170	0.530
2020/01/31 10:57:05.9	293.180	0.070	-0.180	0.490
2020/01/31 10:57:06.0	293.190	0.050	-0.190	0.440
2020/01/31 10:57:06.1	293.200	0.040	-0.200	0.400
2020/01/31 10:57:06.2	293.220	0.030	-0.210	0.350
2020/01/31 10:57:06.3	293.230	0.020	-0.220	0.310
2020/01/31 10:57:06.4	293.250	0.000	-0.240	0.260
2020/01/31 10:57:06.5	293.260	-0.010	-0.260	0.220
2020/01/31 10:57:06.6	293.280	-0.020	-0.280	0.180
2020/01/31 10:57:06.7	293.300	-0.030	-0.300	0.130
2020/01/31 10:57:06.8	293.320	-0.030	-0.320	0.090
2020/01/31 10:57:06.9	293.340	-0.040	-0.340	0.040
2020/01/31 10:57:07.0	293.360	-0.050	-0.360	-0.000
2020/01/31 10:57:07.1	293.380	-0.060	-0.380	-0.050
2020/01/31 10:57:07.2	293.400	-0.060	-0.400	-0.090
2020/01/31 10:57:07.3	293.420	-0.070	-0.420	-0.130
2020/01/31 10:57:07.4	293.450	-0.070	-0.440	-0.170
2020/01/31 10:57:07.5	293.470	-0.080	-0.460	-0.220
2020/01/31 10:57:07.6	293.500	-0.080	-0.480	-0.250
2020/01/31 10:57:07.7	293.530	-0.090	-0.500	-0.290
2020/01/31 10:57:07.8	293.550	-0.090	-0.520	-0.330
2020/01/31 10:57:07.9	293.580	-0.090	-0.530	-0.360
2020/01/31 10:57:08.0	293.610	-0.100	-0.540	-0.390
2020/01/31 10:57:08.1	293.630	-0.100	-0.560	-0.420
2020/01/31 10:57:08.2	293.660	-0.100	-0.570	-0.440
2020/01/31 10:57:08.3	293.680	-0.100	-0.570	-0.460
2020/01/31 10:57:08.4	293.710	-0.100	-0.580	-0.480
2020/01/31 10:57:08.5	293.730	-0.110	-0.590	-0.490
2020/01/31 10:57:08.6	293.750	-0.110	-0.590	-0.500
2020/01/31 10:57:08.7	293.770	-0.110	-0.590	-0.500
2020/01/31 10:57:08.8	293.790	-0.110	-0.590	-0.500
2020/01/31 10:57:08.9	293.800	-0.110	-0.580	-0.500
2020/01/31 10:57:09.0	293.820	-0.110	-0.580	-0.490
2020/01/31 10:57:09.1	293.830	-0.110	-0.570	-0.480
2020/01/31 10:57:09.2	293.840	-0.120	-0.560	-0.460
2020/01/31 10:57:09.3	293.850	-0.120	-0.550	-0.430
2020/01/31 10:57:09.4	293.850	-0.120	-0.540	-0.400
2020/01/31 10:57:09.5	293.850	-0.120	-0.520	-0.370
2020/01/31 10:57:09.6	293.850	-0.120	-0.500	-0.330
2020/01/31 10:57:09.7	293.840	-0.120	-0.490	-0.290
2020/01/31 10:57:09.8	293.840	-0.130	-0.470	-0.240
2020/01/31 10:57:09.9	293.830	-0.130	-0.460	-0.200
2020/01/31 10:57:10.0	293.810	-0.130	-0.440	-0.140
2020/01/31 10:57:10.1	293.800	-0.130	-0.430	-0.090
2020/01/31 10:57:10.2	293.780	-0.140	-0.410	-0.030
2020/01/31 10:57:10.3	293.760	-0.140	-0.400	0.030
2020/01/31 10:57:10.4	293.740	-0.140	-0.390	0.090
2020/01/31 10:57:10.5	293.720	-0.150	-0.370	0.150
2020/01/31 10:57:10.6	293.700	-0.150	-0.360	0.220
2020/01/31 10:57:10.7	293.670	-0.150	-0.350	0.280
2020/01/31 10:57:10.8	293.640	-0.160	-0.340	0.340
2020/01/31 10:57:10.9	293.610	-0.160	-0.340	0.410
2020/01/31 10:57:11.0	293.580	-0.170	-0.330	0.470
2020/01/31 10:57:11.1	293.550	-0.170	-0.320	0.530
2020/01/31 10:57:11.2	293.520	-0.170	-0.320	0.590
2020/01/31 10:57:11.3	293.480	-0.180	-0.320	0.650
2020/01/31 10:57:11.4	293.450	-0.180	-0.320	0.710
2020/01/31 10:57:11.5	293.420	-0.190	-0.310	0.760
2020/01/31 10:57:11.6	293.380	-0.190	-0.310	0.820
2020/01/31 10:57:11.7	293.350	-0.190	-0.320	0.870
2020/01/31 10:57:11.8	293.310	-0.200	-0.320	0.920
2020/01/31 10:57:11.9	293.280	-0.200	-0.330	0.970
2020/01/31 10:57:12.0	293.240	-0.200	-0.330	1.010
2020/01/31 10:57:12.1	293.200	-0.210	-0.340	1.060
2020/01/31 10:57:12.2	293.170	-0.210	-0.340	1.100
2020/01/31 10:57:12.3	293.140	-0.210	-0.350	1.130
2020/01/31 10:57:12.4	293.100	-0.210	-0.360	1.160
2020/01/31 10:57:12.5	293.070	-0.210	-0.360	1.200
2020/01/31 10:57:12.6	293.030	-0.210	-0.370	1.220
2020/01/31 10:57:12.7	293.000	-0.220	-0.370	1.250
2020/01/31 10:57:12.8	292.970	-0.220	-0.380	1.270
2020/01/31 10:57:12.9	292.940	-0.220	-0.380	1.280
2020/01/31 10:57:13.0	292.910	-0.220	-0.380	1.300
2020/01/31 10:57:13.1	292.890	-0.210	-0.380	1.310
2020/01/31 10:57:13.2	292.860	-0.210	-0.370	1.320
2020/01/31 10:57:13.3	292.840	-0.210	-0.370	1.320
2020/01/31 10:57:13.4	292.820	-0.210	-0.360	1.320
2020/01/31 10:57:13.5	292.810	-0.210	-0.350	1.320
2020/01/31 10:57:13.6	292.790	-0.210	-0.340	1.320
2020/01/31 10:57:13.7	292.770	-0.210	-0.330	1.310
2020/01/31 10:57:13.8	292.760	-0.200	-0.310	1.310
2020/01/31 10:57:13.9	292.750	-0.200	-0.290	1.300
2020/01/31 10:57:14.0	292.750	-0.200	-0.280	1.290
2020/01/31 10:57:14.1	292.740	-0.200	-0.260	1.270
2020/01/31 10:57:14.2	292.740	-0.190	-0.230	1.260
2020/01/31 10:57:14.3	292.740	-0.190	-0.210	1.240
2020/01/31 10:57:14.4	292.740	-0.190	-0.190	1.220
2020/01/31 10:57:14.5	292.740	-0.180	-0.160	1.200
2020/01/31 10:57:14.6	292.750	-0.180	-0.130	1.180
2020/01/31 10:57:14.7	292.760	-0.180	-0.110	1.150
2020/01/31 10:57:14.8	292.770	-0.170	-0.080	1.120
2020/01/31 10:57:14.9	292.780	-0.170	-0.050	1.090
2020/01/31 10:57:15.0	292.790	-0.170	-0.020	1.060
2020/01/31 10:57:15.1	292.810	-0.160	0.000	1.030
2020/01/31 10:57:15.2	292.830	-0.160	0.030	0.990
2020/01/31 10:57:15.3	292.850	-0.160	0.060	0.960
2020/01/31 10:57:15.4	292.870	-0.150	0.080	0.920
2020/01/31 10:57:15.5	292.890	-0.150	0.110	0.870
2020/01/31 10:57:15.6	292.910	-0.140	0.130	0.830
2020/01/31 10:57:15.7	292.930	-0.140	0.150	0.790
2020/01/31 10:57:15.8	292.960	-0.130	0.170	0.750
2020/01/31 10:57:15.9	292.980	-0.130	0.190	0.710
2020/01/31 10:57:16.0	293.000	-0.120	0.210	0.670
2020/01/31 10:57:16.1	293.020	-0.120	0.220	0.640
2020/01/31 10:57:16.2	293.040	-0.110	0.230	0.600
2020/01/31 10:57:16.3	293.060	-0.100	0.250	0.560
2020/01/31 10:57:16.4	293.080	-0.090	0.250	0.530
2020/01/31 10:57:16.5	293.090	-0.090	0.260	0.490
2020/01/31 10:57:16.6	293.110	-0.080	0.260	0.460
2020/01/31 10:57:16.7	293.130	-0.070	0.260	0.430
2020/01/31 10:57:16.8	293.140	-0.060	0.270	0.400
2020/01/31 10:57:16.9	293.160	-0.050	0.270	0.380
2020/01/31 10:57:17.0	293.170	-0.040	0.260	0.350
2020/01/31 10:57:17.1	293.180	-0.030	0.260	0.330
2020/01/31 10:57:17.2	293.190	-0.010	0.250	0.310
2020/01/31 10:57:17.3	293.200	-0.000	0.250	0.290
2020/01/31 10:57:17.4	293.200	0.010	0.240	0.270
2020/01/31 10:57:17.5	293.210	0.020	0.230	0.260
2020/01/31 10:57:17.6	293.210	0.040	0.220	0.250
2020/01/31 10:57:17.7	293.220	0.050	0.210	0.240
2020/01/31 10:57:17.8	293.220	0.070	0.190	0.230
2020/01/31 10:57:17.9	293.220	0.080	0.180	0.230
2020/01/31 10:57:18.0	293.230	0.090	0.170	0.220
2020/01/31 10:57:18.1	293.230	0.110	0.150	0.220
2020/01/31 10:57:18.2	293.230	0.120	0.130	0.220
2020/01/31 10:57:18.3	293.230	0.140	0.120	0.220
2020/01/31 10:57:18.4	293.230	0.150	0.100	0.220
2020/01/31 10:57:18.5	293.230	0.170	0.080	0.220
2020/01/31 10:57:18.6	293.230	0.180	0.060	0.230
2020/01/31 10:57:18.7	293.230	0.190	0.040	0.240
2020/01/31 10:57:18.8	293.230	0.210	0.030	0.250
2020/01/31 10:57:18.9	293.230	0.220	0.010	0.260
2020/01/31 10:57:19.0	293.220	0.230	-0.010	0.270
2020/01/31 10:57:19.1	293.220	0.240	-0.030	0.280
2020/01/31 10:57:19.2	293.220	0.250	-0.050	0.290
2020/01/31 10:57:19.3	293.220	0.270	-0.070	0.310
2020/01/31 10:57:19.4	293.210	0.280	-0.100	0.320
2020/01/31 10:57:19.5	293.210	0.290	-0.120	0.340
2020/01/31 10:57:19.6	293.200	0.290	-0.140	0.360
2020/01/31 10:57:19.7	293.200	0.300	-0.160	0.370
2020/01/31 10:57:19.8	293.190	0.310	-0.190	0.390
2020/01/31 10:57:19.9	293.190	0.320	-0.210	0.410
2020/01/31 10:57:20.0	293.190	0.320	-0.240	0.420
2020/01/31 10:57:20.1	293.180	0.320	-0.260	0.440
2020/01/31 10:57:20.2	293.180	0.330	-0.290	0.450
2020/01/31 10:57:20.3	293.180	0.330	-0.310	0.470
2020/01/31 10:57:20.4	293.170	0.330	-0.340	0.480
2020/01/31 10:57:20.5	293.170	0.330	-0.370	0.490
2020/01/31 10:57:20.6	293.170	0.330	-0.400	0.500
2020/01/31 10:57:20.7	293.170	0.330	-0.430	0.520
2020/01/31 10:57:20.8	293.160	0.330	-0.460	0.530
2020/01/31 10:57:20.9	293.160	0.330	-0.490	0.540
2020/01/31 10:57:21.0	293.160	0.330	-0.520	0.550
2020/01/31 10:57:21.1	293.160	0.320	-0.550	0.560
2020/01/31 10:57:21.2	293.160	0.320	-0.580	0.570
2020/01/31 10:57:21.3	293.150	0.310	-0.610	0.580
2020/01/31 10:57:21.4	293.150	0.310	-0.640	0.590
2020/01/31 10:57:21.5	293.150	0.300	-0.660	0.600
2020/01/31 10:57:21.6	293.140	0.300	-0.680	0.610
2020/01/31 10:57:21.7	293.140	0.290	-0.710	0.620
2020/01/31 10:57:21.8	293.140	0.280	-0.730	0.630
2020/01/31 10:57:21.9	293.130	0.270	-0.740	0.640
2020/01/31 10:57:22.0	293.130	0.260	-0.760	0.660
2020/01/31 10:57:22.1	293.120	0.260	-0.770	0.670
2020/01/31 10:57:22.2	293.110	0.250	-0.780	0.690
2020/01/31 10:57:22.3	293.110	0.240	-0.790	0.710
2020/01/31 10:57:22.4	293.100	0.230	-0.800	0.720
2020/01/31 10:57:22.5	293.080	0.210	-0.800	0.740
2020/01/31 10:57:22.6	293.070	0.200	-0.800	0.760
2020/01/31 10:57:22.7	293.060	0.190	-0.790	0.780
2020/01/31 10:57:22.8	293.050	0.180	-0.790	0.800
2020/01/31 10:57:22.9	293.040	0.160	-0.780	0.820
2020/01/31 10:57:23.0	293.020	0.150	-0.770	0.840
2020/01/31 10:57:23.1	293.010	0.130	-0.760	0.860
2020/01/31 10:57:23.2	293.000	0.120	-0.740	0.880
2020/01/31 10:57:23.3	292.980	0.100	-0.720	0.900
2020/01/31 10:57:23.4	292.970	0.080	-0.710	0.910
2020/01/31 10:57:23.5	292.950	0.070	-0.690	0.930
2020/01/31 10:57:23.6	292.940	0.050	-0.670	0.940
2020/01/31 10:57:23.7	292.920	0.030	-0.650	0.950
2020/01/31 10:57:23.8	292.910	0.010	-0.630	0.960
2020/01/31 10:57:23.9	292.890	-0.010	-0.610	0.960
2020/01/31 10:57:24.0	292.880	-0.020	-0.590	0.960
2020/01/31 10:57:24.1	292.860	-0.040	-0.570	0.960
2020/01/31 10:57:24.2	292.850	-0.060	-0.550	0.960
2020/01/31 10:57:24.3	292.840	-0.080	-0.530	0.950
2020/01/31 10:57:24.4	292.830	-0.090	-0.510	0.950
2020/01/31 10:57:24.5	292.820	-0.110	-0.500	0.930
2020/01/31 10:57:24.6	292.810	-0.130	-0.480	0.920
2020/01/31 10:57:24.7	292.800	-0.140	-0.470	0.900
2020/01/31 10:57:24.8	292.800	-0.150	-0.450	0.880
2020/01/31 10:57:24.9	292.790	-0.170	-0.440	0.860
2020/01/31 10:57:25.0	292.790	-0.180	-0.420	0.830
2020/01/31 10:57:25.1	292.780	-0.190	-0.410	0.800
2020/01/31 10:57:25.2	292.780	-0.200	-0.400	0.770
2020/01/31 10:57:25.3	292.780	-0.210	-0.390	0.730
2020/01/31 10:57:25.4	292.790	-0.210	-0.380	0.690
2020/01/31 10:57:25.5	292.790	-0.220	-0.370	0.650
2020/01/31 10:57:25.6	292.790	-0.220	-0.360	0.610
2020/01/31 10:57:25.7	292.800	-0.230	-0.360	0.570
2020/01/31 10:57:25.8	292.800	-0.230	-0.350	0.520
2020/01/31 10:57:25.9	292.810	-0.230	-0.350	0.480
2020/01/31 10:57:26.0	292.830	-0.230	-0.340	0.430
2020/01/31 10:57:26.1	292.840	-0.230	-0.340	0.380
2020/01/31 10:57:26.2	292.860	-0.230	-0.340	0.330
2020/01/31 10:57:26.3	292.870	-0.230	-0.330	0.280
2020/01/31 10:57:26.4	292.890	-0.230	-0.330	0.230
2020/01/31 10:57:26.5	292.900	-0.230	-0.320	0.170
2020/01/31 10:57:26.6	292.920	-0.220	-0.320	0.120
2020/01/31 10:57:26.7	292.950	-0.220	-0.320	0.070
2020/01/31 10:57:26.8	292.970	-0.220	-0.320	0.020
2020/01/31 10:57:26.9	292.990	-0.210	-0.310	-0.030
2020/01/31 10:57:27.0	293.020	-0.210	-0.310	-0.070
2020/01/31 10:57:27.1	293.050	-0.210	-0.310	-0.120
2020/01/31 10:57:27.2	293.070	-0.200	-0.300	-0.160
2020/01/31 10:57:27.3	293.100	-0.200	-0.290	-0.200
2020/01/31 10:57:27.4	293.130	-0.200	-0.290	-0.240
2020/01/31 10:57:27.5	293.160	-0.200	-0.280	-0.280
2020/01/31 10:57:27.6	293.190	-0.200	-0.270	-0.310
2020/01/31 10:57:27.7	293.220	-0.190	-0.260	-0.350
2020/01/31 10:57:27.8	293.250	-0.190	-0.240	-0.370
2020/01/31 10:57:27.9	293.280	-0.190	-0.230	-0.400
2020/01/31 10:57:28.0	293.310	-0.190	-0.210	-0.420
2020/01/31 10:57:28.1	293.330	-0.190	-0.190	-0.440
2020/01/31 10:57:28.2	293.360	-0.200	-0.170	-0.450
2020/01/31 10:57:28.3	293.390	-0.200	-0.150	-0.460
2020/01/31 10:57:28.4	293.420	-0.200	-0.130	-0.470
2020/01/31 10:57:28.5	293.450	-0.200	-0.100	-0.470
2020/01/31 10:57:28.6	293.470	-0.210	-0.080	-0.470
2020/01/31 10:57:28.7	293.500	-0.210	-0.050	-0.470
2020/01/31 10:57:28.8	293.520	-0.220	-0.020	-0.460
2020/01/31 10:57:28.9	293.540	-0.220	0.010	-0.450
2020/01/31 10:57:29.0	293.560	-0.230	0.040	-0.430
2020/01/31 10:57:29.1	293.580	-0.240	0.070	-0.410
2020/01/31 10:57:29.2	293.600	-0.240	0.100	-0.390
2020/01/31 10:57:29.3	293.620	-0.250	0.130	-0.360
2020/01/31 10:57:29.4	293.630	-0.260	0.160	-0.330
2020/01/31 10:57:29.5	293.640	-0.270	0.200	-0.300
2020/01/31 10:57:29.6	293.650	-0.280	0.230	-0.270
2020/01/31 10:57:29.7	293.660	-0.290	0.250	-0.230
2020/01/31 10:57:29.8	293.670	-0.290	0.280	-0.190
2020/01/31 10:57:29.9	293.680	-0.300	0.310	-0.140
2020/01/31 10:57:30.0	293.680	-0.310	0.330	-0.090
2020/01/31 10:57:30.1	293.680	-0.320	0.350	-0.040
2020/01/31 10:57:30.2	293.680	-0.320	0.370	0.010
2020/01/31 10:57:30.3	293.680	-0.330	0.390	0.060
2020/01/31 10:57:30.4	293.680	-0.330	0.400	0.110
2020/01/31 10:57:30.5	293.670	-0.340	0.420	0.170
2020/01/31 10:57:30.6	293.670	-0.340	0.420	0.230
2020/01/31 10:57:30.7	293.660	-0.340	0.430	0.280
2020/01/31 10:57:30.8	293.640	-0.340	0.430	0.340
2020/01/31 10:57:30.9	293.630	-0.340	0.430	0.400
2020/01/31 10:57:31.0	293.620	-0.340	0.430	0.450
2020/01/31 10:57:31.1	293.600	-0.340	0.420	0.510
2020/01/31 10:57:31.2	293.580	-0.330	0.410	0.570
2020/01/31 10:57:31.3	293.560	-0.330	0.400	0.620
2020/01/31 10:57:31.4	293.540	-0.320	0.380	0.670
2020/01/31 10:57:31.5	293.520	-0.310	0.360	0.720
2020/01/31 10:57:31.6	293.500	-0.300	0.340	0.770
2020/01/31 10:57:31.7	293.470	-0.290	0.320	0.820
2020/01/31 10:57:31.8	293.450	-0.280	0.300	0.860
2020/01/31 10:57:31.9	293.420	-0.260	0.270	0.910
2020/01/31 10:57:32.0	293.400	-0.240	0.250	0.950
2020/01/31 10:57:32.1	293.370	-0.230	0.220	0.990
2020/01/31 10:57:32.2	293.340	-0.210	0.190	1.020
2020/01/31 10:57:32.3	293.320	-0.190	0.160	1.050
2020/01/31 10:57:32.4	293.290	-0.170	0.130	1.080
2020/01/31 10:57:32.5	293.260	-0.140	0.090	1.110
2020/01/31 10:57:32.6	293.240	-0.120	0.060	1.140
2020/01/31 10:57:32.7	293.210	-0.100	0.030	1.160
2020/01/31 10:57:32.8	293.180	-0.070	-0.010	1.180
2020/01/31 10:57:32.9	293.160	-0.050	-0.040	1.190
2020/01/31 10:57:33.0	293.130	-0.020	-0.080	1.200
2020/01/31 10:57:33.1	293.110	0.000	-0.110	1.210
2020/01/31 10:57:33.2	293.080	0.030	-0.150	1.210
2020/01/31 10:57:33.3	293.060	0.060	-0.180	1.210
2020/01/31 10:57:33.4	293.040	0.080	-0.220	1.210
2020/01/31 10:57:33.5	293.020	0.110	-0.260	1.210
2020/01/31 10:57:33.6	293.000	0.130	-0.290	1.200
2020/01/31 10:57:33.7	292.980	0.160	-0.320	1.190
2020/01/31 10:57:33.8	292.970	0.180	-0.360	1.170
2020/01/31 10:57:33.9	292.950	0.210	-0.390	1.150
2020/01/31 10:57:34.0	292.940	0.230	-0.420	1.130
2020/01/31 10:57:34.1	292.930	0.250	-0.450	1.110
2020/01/31 10:57:34.2	292.920	0.270	-0.480	1.080
2020/01/31 10:57:34.3	292.910	0.290	-0.510	1.060
2020/01/31 10:57:34.4	292.900	0.310	-0.540	1.030
2020/01/31 10:57:34.5	292.890	0.330	-0.570	0.990
2020/01/31 10:57:34.6	292.890	0.350	-0.590	0.960
2020/01/31 10:57:34.7	292.890	0.360	-0.620	0.920
2020/01/31 10:57:34.8	292.890	0.380	-0.640	0.890
2020/01/31 10:57:34.9	292.890	0.390	-0.660	0.850
2020/01/31 10:57:35.0	292.890	0.400	-0.680	0.810
2020/01/31 10:57:35.1	292.900	0.410	-0.690	0.770
2020/01/31 10:57:35.2	292.900	0.420	-0.710	0.730
2020/01/31 10:57:35.3	292.910	0.430	-0.720	0.690
2020/01/31 10:57:35.4	292.910	0.440	-0.730	0.650
2020/01/31 10:57:35.5	292.920	0.440	-0.740	0.610
2020/01/31 10:57:35.6	292.930	0.440	-0.750	0.570
2020/01/31 10:57:35.7	292.940	0.450	-0.760	0.530
2020/01/31 10:57:35.8	292.950	0.450	-0.760	0.490
2020/01/31 10:57:35.9	292.960	0.450	-0.760	0.460
2020/01/31 10:57:36.0	292.970	0.450	-0.770	0.420
2020/01/31 10:57:36.1	292.990	0.450	-0.770	0.380
2020/01/31 10:57:36.2	293.000	0.450	-0.770	0.340
2020/01/31 10:57:36.3	293.020	0.440	-0.760	0.310
2020/01/31 10:57:36.4	293.040	0.440	-0.760	0.270
2020/01/31 10:57:36.5	293.050	0.440	-0.760	0.240
2020/01/31 10:57:36.6	293.070	0.430	-0.750	0.200
2020/01/31 10:57:36.7	293.090	0.430	-0.740	0.170
2020/01/31 10:57:36.8	293.110	0.420	-0.740	0.140
2020/01/31 10:57:36.9	293.130	0.410	-0.730	0.110
2020/01/31 10:57:37.0	293.150	0.410	-0.720	0.080
2020/01/31 10:57:37.1	293.170	0.400	-0.710	0.050
2020/01/31 10:57:37.2	293.190	0.390	-0.690	0.030
2020/01/31 10:57:37.3	293.210	0.380	-0.680	0.000
2020/01/31 10:57:37.4	293.230	0.370	-0.670	-0.020
2020/01/31 10:57:37.5	293.250	0.360	-0.650	-0.040
2020/01/31 10:57:37.6	293.280	0.360	-0.640	-0.060
2020/01/31 10:57:37.7	293.300	0.350	-0.620	-0.080
2020/01/31 10:57:37.8	293.330	0.340	-0.600	-0.090
2020/01/31 10:57:37.9	293.350	0.320	-0.580	-0.110
2020/01/31 10:57:38.0	293.370	0.310	-0.560	-0.120
2020/01/31 10:57:38.1	293.400	0.300	-0.540	-0.130
2020/01/31 10:57:38.2	293.420	0.290	-0.510	-0.140
2020/01/31 10:57:38.3	293.450	0.280	-0.490	-0.140
2020/01/31 10:57:38.4	293.470	0.270	-0.470	-0.140
2020/01/31 10:57:38.5	293.500	0.250	-0.440	-0.140
2020/01/31 10:57:38.6	293.530	0.240	-0.410	-0.140
2020/01/31 10:57:38.7	293.550	0.230	-0.390	-0.140
2020/01/31 10:57:38.8	293.570	0.210	-0.360	-0.130
2020/01/31 10:57:38.9	293.600	0.200	-0.340	-0.130
2020/01/31 10:57:39.0	293.620	0.190	-0.310	-0.120
2020/01/31 10:57:39.1	293.650	0.170	-0.280	-0.110
2020/01/31 10:57:39.2	293.670	0.150	-0.260	-0.100
2020/01/31 10:57:39.3	293.690	0.140	-0.240	-0.090
2020/01/31 10:57:39.4	293.710	0.120	-0.210	-0.080
2020/01/31 10:57:39.5	293.740	0.100	-0.190	-0.070
2020/01/31 10:57:39.6	293.760	0.090	-0.170	-0.050
2020/01/31 10:57:39.7	293.780	0.070	-0.150	-0.040
2020/01/31 10:57:39.8	293.790	0.050	-0.140	-0.030
2020/01/31 10:57:39.9	293.810	0.030	-0.120	-0.010
2020/01/31 10:57:40.0	293.830	0.010	-0.110	0.000
2020/01/31 10:57:40.1	293.840	-0.010	-0.090	0.020
2020/01/31 10:57:40.2	293.860	-0.030	-0.080	0.030
2020/01/31 10:57:40.3	293.870	-0.050	-0.070	0.050
2020/01/31 10:57:40.4	293.880	-0.070	-0.060	0.070
2020/01/31 10:57:40.5	293.890	-0.090	-0.050	0.090
2020/01/31 10:57:40.6	293.900	-0.120	-0.040	0.100
2020/01/31 10:57:40.7	293.910	-0.140	-0.040	0.120
2020/01/31 10:57:40.8	293.910	-0.160	-0.030	0.140
2020/01/31 10:57:40.9	293.910	-0.180	-0.030	0.160
2020/01/31 10:57:41.0	293.910	-0.200	-0.030	0.180
2020/01/31 10:57:41.1	293.910	-0.220	-0.030	0.200
2020/01/31 10:57:41.2	293.910	-0.240	-0.030	0.210
2020/01/31 10:57:41.3	293.910	-0.260	-0.030	0.230
2020/01/31 10:57:41.4	293.900	-0.280	-0.030	0.250
2020/01/31 10:57:41.5	293.900	-0.300	-0.030	0.270
2020/01/31 10:57:41.6	293.890	-0.320	-0.030	0.280
2020/01/31 10:57:41.7	293.880	-0.340	-0.030	0.300
2020/01/31 10:57:41.8	293.870	-0.360	-0.030	0.320
2020/01/31 10:57:41.9	293.860	-0.370	-0.030	0.340
2020/01/31 10:57:42.0	293.850	-0.390	-0.030	0.360
2020/01/31 10:57:42.1	293.840	-0.400	-0.030	0.380
2020/01/31 10:57:42.2	293.820	-0.410	-0.020	0.390
2020/01/31 10:57:42.3	293.810	-0.420	-0.020	0.410
2020/01/31 10:57:42.4	293.790	-0.430	-0.020	0.430
2020/01/31 10:57:42.5	293.770	-0.440	-0.020	0.450
2020/01/31 10:57:42.6	293.750	-0.450	-0.020	0.470
2020/01/31 10:57:42.7	293.730	-0.460	-0.020	0.490
2020/01/31 10:57:42.8	293.710	-0.460	-0.020	0.510
2020/01/31 10:57:42.9	293.690	-0.460	-0.010	0.530
2020/01/31 10:57:43.0	293.670	-0.460	-0.010	0.550
2020/01/31 10:57:43.1	293.650	-0.460	-0.010	0.570
2020/01/31 10:57:43.2	293.620	-0.460	-0.000	0.580
2020/01/31 10:57:43.3	293.600	-0.460	-0.000	0.600
2020/01/31 10:57:43.4	293.580	-0.450	0.000	0.610
2020/01/31 10:57:43.5	293.560	-0.450	0.000	0.620
2020/01/31 10:57:43.6	293.540	-0.440	0.010	0.630
2020/01/31 10:57:43.7	293.520	-0.430	0.010	0.640
2020/01/31 10:57:43.8	293.500	-0.420	0.010	0.650
2020/01/31 10:57:43.9	293.480	-0.410	0.010	0.660
2020/01/31 10:57:44.0	293.460	-0.400	0.010	0.660
2020/01/31 10:57:44.1	293.440	-0.380	0.010	0.670
2020/01/31 10:57:44.2	293.420	-0.370	0.010	0.670
2020/01/31 10:57:44.3	293.410	-0.350	0.000	0.670
2020/01/31 10:57:44.4	293.390	-0.340	-0.000	0.660
2020/01/31 10:57:44.5	293.370	-0.320	-0.010	0.660
2020/01/31 10:57:44.6	293.350	-0.300	-0.010	0.650
2020/01/31 10:57:44.7	293.340	-0.280	-0.020	0.640
2020/01/31 10:57:44.8	293.330	-0.260	-0.030	0.630
2020/01/31 10:57:44.9	293.320	-0.250	-0.040	0.620
2020/01/31 10:57:45.0	293.310	-0.230	-0.050	0.610
2020/01/31 10:57:45.1	293.300	-0.210	-0.060	0.590
2020/01/31 10:57:45.2	293.290	-0.190	-0.080	0.580
2020/01/31 10:57:45.3	293.280	-0.170	-0.090	0.560
2020/01/31 10:57:45.4	293.270	-0.150	-0.110	0.550
2020/01/31 10:57:45.5	293.260	-0.130	-0.120	0.520
2020/01/31 10:57:45.6	293.250	-0.110	-0.140	0.500
2020/01/31 10:57:45.7	293.250	-0.100	-0.160	0.480
2020/01/31 10:57:45.8	293.240	-0.080	-0.170	0.460
2020/01/31 10:57:45.9	293.230	-0.060	-0.190	0.440
2020/01/31 10:57:46.0	293.230	-0.050	-0.210	0.420
2020/01/31 10:57:46.1	293.220	-0.040	-0.220	0.400
2020/01/31 10:57:46.2	293.220	-0.020	-0.240	0.370
2020/01/31 10:57:46.3	293.210	-0.010	-0.260	0.350
2020/01/31 10:57:46.4	293.210	0.000	-0.280	0.330
2020/01/31 10:57:46.5	293.200	0.010	-0.290	0.310
2020/01/31 10:57:46.6	293.200	0.020	-0.310	0.280
2020/01/31 10:57:46.7	293.200	0.030	-0.320	0.260
2020/01/31 10:57:46.8	293.200	0.030	-0.340	0.240
2020/01/31 10:57:46.9	293.200	0.040	-0.350	0.210
2020/01/31 10:57:47.0	293.200	0.040	-0.370	0.190
2020/01/31 10:57:47.1	293.210	0.050	-0.380	0.170
2020/01/31 10:57:47.2	293.210	0.050	-0.390	0.140
2020/01/31 10:57:47.3	293.210	0.050	-0.400	0.120
2020/01/31 10:57:47.4	293.220	0.050	-0.410	0.100
2020/01/31 10:57:47.5	293.230	0.050	-0.420	0.080
2020/01/31 10:57:47.6	293.230	0.050	-0.420	0.060
2020/01/31 10:57:47.7	293.240	0.050	-0.420	0.040
2020/01/31 10:57:47.8	293.250	0.040	-0.420	0.020
2020/01/31 10:57:47.9	293.260	0.040	-0.420	0.010
2020/01/31 10:57:48.0	293.270	0.040	-0.420	-0.010
2020/01/31 10:57:48.1	293.280	0.030	-0.410	-0.020
2020/01/31 10:57:48.2	293.290	0.030	-0.400	-0.030
2020/01/31 10:57:48.3	293.300	0.030	-0.390	-0.040
2020/01/31 10:57:48.4	293.310	0.020	-0.370	-0.050
2020/01/31 10:57:48.5	293.320	0.020	-0.360	-0.050
2020/01/31 10:57:48.6	293.330	0.010	-0.340	-0.060
2020/01/31 10:57:48.7	293.340	0.010	-0.320	-0.060
2020/01/31 10:57:48.8	293.360	0.010	-0.300	-0.060
2020/01/31 10:57:48.9	293.370	0.010	-0.280	-0.070
2020/01/31 10:57:49.0	293.380	0.010	-0.260	-0.070
2020/01/31 10:57:49.1	293.400	0.000	-0.240	-0.060
2020/01/31 10:57:49.2	293.410	0.000	-0.220	-0.060
2020/01/31 10:57:49.3	293.430	0.010	-0.200	-0.060
2020/01/31 10:57:49.4	293.440	0.010	-0.190	-0.050
2020/01/31 10:57:49.5	293.460	0.010	-0.170	-0.050
2020/01/31 10:57:49.6	293.480	0.020	-0.160	-0.040
2020/01/31 10:57:49.7	293.490	0.020	-0.150	-0.030
2020/01/31 10:57:49.8	293.500	0.030	-0.140	-0.020
2020/01/31 10:57:49.9	293.520	0.040	-0.130	-0.010
2020/01/31 10:57:50.0	293.540	0.050	-0.130	-0.000
2020/01/31 10:57:50.1	293.550	0.060	-0.130	0.010
2020/01/31 10:57:50.2	293.570	0.070	-0.130	0.020
2020/01/31 10:57:50.3	293.580	0.080	-0.130	0.030
2020/01/31 10:57:50.4	293.600	0.090	-0.140	0.040
2020/01/31 10:57:50.5	293.610	0.100	-0.150	0.050
2020/01/31 10:57:50.6	293.630	0.120	-0.170	0.060
2020/01/31 10:57:50.7	293.650	0.130	-0.190	0.080
2020/01/31 10:57:50.8	293.660	0.150	-0.210	0.090
2020/01/31 10:57:50.9	293.680	0.160	-0.230	0.110
2020/01/31 10:57:51.0	293.700	0.180	-0.260	0.120
2020/01/31 10:57:51.1	293.710	0.200	-0.290	0.140
2020/01/31 10:57:51.2	293.730	0.210	-0.320	0.150
2020/01/31 10:57:51.3	293.740	0.230	-0.350	0.170
2020/01/31 10:57:51.4	293.760	0.250	-0.380	0.190
2020/01/31 10:57:51.5	293.770	0.260	-0.410	0.210
2020/01/31 10:57:51.6	293.780	0.280	-0.450	0.230
2020/01/31 10:57:51.7	293.800	0.290	-0.480	0.260
2020/01/31 10:57:51.8	293.810	0.310	-0.510	0.280
2020/01/31 10:57:51.9	293.820	0.320	-0.550	0.310
2020/01/31 10:57:52.0	293.830	0.330	-0.580	0.340
2020/01/31 10:57:52.1	293.840	0.340	-0.610	0.360
2020/01/31 10:57:52.2	293.850	0.350	-0.630	0.390
2020/01/31 10:57:52.3	293.850	0.360	-0.660	0.420
2020/01/31 10:57:52.4	293.860	0.370	-0.680	0.450
2020/01/31 10:57:52.5	293.850	0.370	-0.710	0.480
2020/01/31 10:57:52.6	293.860	0.380	-0.720	0.510
2020/01/31 10:57:52.7	293.860	0.380	-0.740	0.540
2020/01/31 10:57:52.8	293.860	0.380	-0.750	0.570
2020/01/31 10:57:52.9	293.860	0.380	-0.760	0.600
2020/01/31 10:57:53.0	293.860	0.380	-0.760	0.630
2020/01/31 10:57:53.1	293.860	0.370	-0.770	0.660
2020/01/31 10:57:53.2	293.850	0.370	-0.760	0.690
2020/01/31 10:57:53.3	293.850	0.360	-0.760	0.720
2020/01/31 10:57:53.4	293.850	0.350	-0.750	0.750
2020/01/31 10:57:53.5	293.840	0.340	-0.740	0.770
2020/01/31 10:57:53.6	293.830	0.330	-0.720	0.800
2020/01/31 10:57:53.7	293.830	0.320	-0.700	0.820
2020/01/31 10:57:53.8	293.820	0.300	-0.680	0.850
2020/01/31 10:57:53.9	293.810	0.280	-0.650	0.870
2020/01/31 10:57:54.0	293.800	0.270	-0.620	0.890
2020/01/31 10:57:54.1	293.790	0.250	-0.590	0.910
2020/01/31 10:57:54.2	293.770	0.230	-0.550	0.930
2020/01/31 10:57:54.3	293.760	0.210	-0.520	0.950
2020/01/31 10:57:54.4	293.740	0.180	-0.470	0.960
2020/01/31 10:57:54.5	293.730	0.160	-0.430	0.980
2020/01/31 10:57:54.6	293.710	0.140	-0.380	0.990
2020/01/31 10:57:54.7	293.700	0.110	-0.340	1.000
2020/01/31 10:57:54.8	293.670	0.090	-0.290	1.010
2020/01/31 10:57:54.9	293.650	0.060	-0.230	1.020
2020/01/31 10:57:55.0	293.630	0.030	-0.180	1.030
2020/01/31 10:57:55.1	293.610	0.010	-0.130	1.040
2020/01/31 10:57:55.2	293.580	-0.020	-0.070	1.040
2020/01/31 10:57:55.3	293.550	-0.050	-0.020	1.050
2020/01/31 10:57:55.4	293.530	-0.070	0.040	1.050
2020/01/31 10:57:55.5	293.500	-0.100	0.090	1.050
2020/01/31 10:57:55.6	293.480	-0.120	0.140	1.050
2020/01/31 10:57:55.7	293.450	-0.150	0.190	1.040
2020/01/31 10:57:55.8	293.420	-0.170	0.240	1.040
2020/01/31 10:57:55.9	293.390	-0.190	0.290	1.030
2020/01/31 10:57:56.0	293.370	-0.210	0.340	1.020
2020/01/31 10:57:56.1	293.340	-0.230	0.380	1.010
2020/01/31 10:57:56.2	293.310	-0.250	0.420	0.990
2020/01/31 10:57:56.3	293.290	-0.270	0.460	0.980
2020/01/31 10:57:56.4	293.260	-0.290	0.500	0.960
2020/01/31 10:57:56.5	293.240	-0.300	0.530	0.940
2020/01/31 10:57:56.6	293.210	-0.310	0.550	0.920
2020/01/31 10:57:56.7	293.190	-0.320	0.570	0.900
2020/01/31 10:57:56.8	293.160	-0.330	0.590	0.880
2020/01/31 10:57:56.9	293.140	-0.340	0.600	0.850
2020/01/31 10:57:57.0	293.120	-0.350	0.610	0.830
2020/01/31 10:57:57.1	293.100	-0.350	0.620	0.800
2020/01/31 10:57:57.2	293.080	-0.350	0.620	0.770
2020/01/31 10:57:57.3	293.060	-0.350	0.610	0.740
2020/01/31 10:57:57.4	293.040	-0.350	0.600	0.710
2020/01/31 10:57:57.5	293.020	-0.350	0.580	0.680
2020/01/31 10:57:57.6	293.010	-0.340	0.570	0.650
2020/01/31 10:57:57.7	292.990	-0.330	0.550	0.620
2020/01/31 10:57:57.8	292.980	-0.330	0.520	0.590
2020/01/31 10:57:57.9	292.960	-0.320	0.490	0.550
2020/01/31 10:57:58.0	292.950	-0.300	0.460	0.520
2020/01/31 10:57:58.1	292.940	-0.290	0.420	0.480
2020/01/31 10:57:58.2	292.930	-0.280	0.380	0.450
2020/01/31 10:57:58.3	292.930	-0.260	0.340	0.410
2020/01/31 10:57:58.4	292.920	-0.250	0.290	0.370
2020/01/31 10:57:58.5	292.920	-0.230	0.240	0.330
2020/01/31 10:57:58.6	292.920	-0.210	0.190	0.300
2020/01/31 10:57:58.7	292.920	-0.190	0.140	0.260
2020/01/31 10:57:58.8	292.920	-0.170	0.080	0.220
2020/01/31 10:57:58.9	292.930	-0.150	0.030	0.180
2020/01/31 10:57:59.0	292.930	-0.140	-0.030	0.140
2020/01/31 10:57:59.1	292.940	-0.120	-0.090	0.100
2020/01/31 10:57:59.2	292.950	-0.100	-0.150	0.050
2020/01/31 10:57:59.3	292.960	-0.080	-0.210	0.010
2020/01/31 10:57:59.4	292.970	-0.060	-0.270	-0.030
2020/01/31 10:57:59.5	292.990	-0.040	-0.330	-0.070
2020/01/31 10:57:59.6	293.010	-0.020	-0.390	-0.110
2020/01/31 10:57:59.7	293.030	-0.010	-0.450	-0.140
2020/01/31 10:57:59.8	293.040	0.010	-0.500	-0.180
2020/01/31 10:57:59.9	293.060	0.030	-0.560	-0.220
2020/01/31 10:58:00.0	293.080	0.040	-0.610	-0.250
2020/01/31 10:58:00.1	293.100	0.050	-0.660	-0.280
2020/01/31 10:58:00.2	293.120	0.070	-0.710	-0.310
2020/01/31 10:58:00.3	293.140	0.080	-0.750	-0.340
2020/01/31 10:58:00.4	293.170	0.090	-0.790	-0.360
2020/01/31 10:58:00.5	293.190	0.100	-0.830	-0.390
2020/01/31 10:58:00.6	293.210	0.110	-0.860	-0.410
2020/01/31 10:58:00.7	293.230	0.110	-0.890	-0.420
2020/01/31 10:58:00.8	293.250	0.120	-0.920	-0.430
2020/01/31 10:58:00.9	293.270	0.130	-0.940	-0.440
2020/01/31 10:58:01.0	293.300	0.130	-0.960	-0.450
2020/01/31 10:58:01.1	293.320	0.130	-0.980	-0.450
2020/01/31 10:58:01.2	293.340	0.130	-0.990	-0.450
2020/01/31 10:58:01.3	293.360	0.140	-0.990	-0.440
2020/01/31 10:58:01.4	293.380	0.130	-1.000	-0.430
2020/01/31 10:58:01.5	293.400	0.130	-1.000	-0.420
2020/01/31 10:58:01.6	293.420	0.130	-0.990	-0.410
2020/01/31 10:58:01.7	293.440	0.130	-0.980	-0.390
2020/01/31 10:58:01.8	293.460	0.120	-0.970	-0.360
2020/01/31 10:58:01.9	293.480	0.120	-0.960	-0.340
2020/01/31 10:58:02.0	293.500	0.110	-0.940	-0.310
2020/01/31 10:58:02.1	293.520	0.110	-0.920	-0.280
2020/01/31 10:58:02.2	293.540	0.100	-0.890	-0.240
2020/01/31 10:58:02.3	293.550	0.090	-0.870	-0.210
2020/01/31 10:58:02.4	293.570	0.090	-0.840	-0.170
2020/01/31 10:58:02.5	293.590	0.080	-0.810	-0.130
2020/01/31 10:58:02.6	293.610	0.070	-0.780	-0.080
2020/01/31 10:58:02.7	293.620	0.060	-0.750	-0.040
2020/01/31 10:58:02.8	293.640	0.050	-0.720	0.000
2020/01/31 10:58:02.9	293.650	0.040	-0.690	0.050
2020/01/31 10:58:03.0	293.670	0.040	-0.660	0.090
2020/01/31 10:58:03.1	293.680	0.030	-0.630	0.140
2020/01/31 10:58:03.2	293.690	0.020	-0.600	0.190
2020/01/31 10:58:03.3	293.700	0.010	-0.570	0.230
2020/01/31 10:58:03.4	293.710	0.000	-0.540	0.280
2020/01/31 10:58:03.5	293.720	-0.000	-0.510	0.320
2020/01/31 10:58:03.6	293.730	-0.010	-0.490	0.370
2020/01/31 10:58:03.7	293.740	-0.020	-0.460	0.420
2020/01/31 10:58:03.8	293.740	-0.020	-0.440	0.460
2020/01/31 10:58:03.9	293.750	-0.030	-0.410	0.510
2020/01/31 10:58:04.0	293.750	-0.030	-0.390	0.550
2020/01/31 10:58:04.1	293.750	-0.040	-0.370	0.590
2020/01/31 10:58:04.2	293.750	-0.040	-0.350	0.640
2020/01/31 10:58:04.3	293.750	-0.050	-0.340	0.680
2020/01/31 10:58:04.4	293.750	-0.050	-0.320	0.720
2020/01/31 10:58:04.5	293.750	-0.060	-0.300	0.760
2020/01/31 10:58:04.6	293.740	-0.060	-0.290	0.800
2020/01/31 10:58:04.7	293.740	-0.060	-0.280	0.840
2020/01/31 10:58:04.8	293.730	-0.070	-0.260	0.870
2020/01/31 10:58:04.9	293.720	-0.070	-0.250	0.910
2020/01/31 10:58:05.0	293.710	-0.070	-0.240	0.940
2020/01/31 10:58:05.1	293.700	-0.080	-0.230	0.970
2020/01/31 10:58:05.2	293.690	-0.080	-0.210	1.000
2020/01/31 10:58:05.3	293.680	-0.080	-0.200	1.030
2020/01/31 10:58:05.4	293.670	-0.090	-0.190	1.060
2020/01/31 10:58:05.5	293.650	-0.090	-0.180	1.080
2020/01/31 10:58:05.6	293.640	-0.090	-0.160	1.100
2020/01/31 10:58:05.7	293.620	-0.100	-0.150	1.120
2020/01/31 10:58:05.8	293.610	-0.100	-0.140	1.140
2020/01/31 10:58:05.9	293.590	-0.110	-0.120	1.160
2020/01/31 10:58:06.0	293.570	-0.120	-0.110	1.170
2020/01/31 10:58:06.1	293.550	-0.120	-0.090	1.190
2020/01/31 10:58:06.2	293.540	-0.130	-0.080	1.200
2020/01/31 10:58:06.3	293.520	-0.140	-0.060	1.210
2020/01/31 10:58:06.4	293.500	-0.140	-0.040	1.210
2020/01/31 10:58:06.5	293.480	-0.150	-0.020	1.220
2020/01/31 10:58:06.6	293.460	-0.160	-0.010	1.230
2020/01/31 10:58:06.7	293.430	-0.170	0.010	1.230
2020/01/31 10:58:06.8	293.410	-0.170	0.030	1.230
2020/01/31 10:58:06.9	293.390	-0.180	0.050	1.230
2020/01/31 10:58:07.0	293.360	-0.190	0.070	1.230
2020/01/31 10:58:07.1	293.340	-0.190	0.090	1.220
2020/01/31 10:58:07.2	293.310	-0.200	0.110	1.220
2020/01/31 10:58:07.3	293.290	-0.210	0.130	1.210
2020/01/31 10:58:07.4	293.260	-0.210	0.150	1.200
2020/01/31 10:58:07.5	293.240	-0.210	0.160	1.190
2020/01/31 10:58:07.6	293.210	-0.220	0.180	1.180
2020/01/31 10:58:07.7	293.190	-0.220	0.190	1.170
2020/01/31 10:58:07.8	293.170	-0.220	0.210	1.150
2020/01/31 10:58:07.9	293.140	-0.210	0.230	1.140
2020/01/31 10:58:08.0	293.120	-0.210	0.240	1.120
2020/01/31 10:58:08.1	293.100	-0.200	0.260	1.100
2020/01/31 10:58:08.2	293.080	-0.190	0.270	1.080
2020/01/31 10:58:08.3	293.050	-0.180	0.280	1.060
2020/01/31 10:58:08.4	293.040	-0.170	0.290	1.030
2020/01/31 10:58:08.5	293.020	-0.160	0.300	1.010
2020/01/31 10:58:08.6	293.000	-0.140	0.310	0.980
2020/01/31 10:58:08.7	292.990	-0.120	0.310	0.950
2020/01/31 10:58:08.8	292.970	-0.100	0.320	0.920
2020/01/31 10:58:08.9	292.960	-0.080	0.320	0.890
2020/01/31 10:58:09.0	292.950	-0.050	0.320	0.860
2020/01/31 10:58:09.1	292.950	-0.020	0.310	0.830
2020/01/31 10:58:09.2	292.940	0.010	0.310	0.790
2020/01/31 10:58:09.3	292.940	0.040	0.300	0.760
2020/01/31 10:58:09.4	292.940	0.070	0.290	0.720
2020/01/31 10:58:09.5	292.940	0.110	0.280	0.690
2020/01/31 10:58:09.6	292.940	0.140	0.260	0.650
2020/01/31 10:58:09.7	292.950	0.180	0.250	0.620
2020/01/31 10:58:09.8	292.950	0.220	0.230	0.590
2020/01/31 10:58:09.9	292.960	0.260	0.210	0.550
2020/01/31 10:58:10.0	292.970	0.300	0.190	0.520
2020/01/31 10:58:10.1	292.980	0.340	0.160	0.490
2020/01/31 10:58:10.2	292.990	0.380	0.140	0.460
2020/01/31 10:58:10.3	293.010	0.420	0.110	0.430
2020/01/31 10:58:10.4	293.020	0.450	0.080	0.400
2020/01/31 10:58:10.5	293.040	0.490	0.050	0.370
2020/01/31 10:58:10.6	293.060	0.530	0.020	0.340
2020/01/31 10:58:10.7	293.080	0.560	-0.020	0.310
2020/01/31 10:58:10.8	293.090	0.590	-0.050	0.290
2020/01/31 10:58:10.9	293.110	0.620	-0.080	0.260
2020/01/31 10:58:11.0	293.130	0.650	-0.120	0.240
2020/01/31 10:58:11.1	293.150	0.680	-0.150	0.220
2020/01/31 10:58:11.2	293.170	0.700	-0.180	0.200
2020/01/31 10:58:11.3	293.190	0.720	-0.220	0.180
2020/01/31 10:58:11.4	293.210	0.730	-0.250	0.160
2020/01/31 10:58:11.5	293.240	0.740	-0.280	0.140
2020/01/31 10:58:11.6	293.260	0.750	-0.310	0.130
2020/01/31 10:58:11.7	293.280	0.750	-0.340	0.110
2020/01/31 10:58:11.8	293.300	0.750	-0.370	0.100
2020/01/31 10:58:11.9	293.320	0.750	-0.400	0.090
2020/01/31 10:58:12.0	293.350	0.740	-0.430	0.080
2020/01/31 10:58:12.1	293.370	0.730	-0.450	0.070
2020/01/31 10:58:12.2	293.390	0.710	-0.480	0.060
2020/01/31 10:58:12.3	293.410	0.690	-0.500	0.050
2020/01/31 10:58:12.4	293.430	0.670	-0.520	0.050
2020/01/31 10:58:12.5	293.460	0.640	-0.540	0.040
2020/01/31 10:58:12.6	293.480	0.610	-0.560	0.030
2020/01/31 10:58:12.7	293.500	0.570	-0.580	0.030
2020/01/31 10:58:12.8	293.520	0.540	-0.590	0.020
2020/01/31 10:58:12.9	293.540	0.500	-0.610	0.020
2020/01/31 10:58:13.0	293.560	0.460	-0.620	0.010
2020/01/31 10:58:13.1	293.580	0.410	-0.630	0.010
2020/01/31 10:58:13.2	293.600	0.370	-0.640	0.000
2020/01/31 10:58:13.3	293.620	0.320	-0.650	0.000
2020/01/31 10:58:13.4	293.630	0.270	-0.660	-0.000
2020/01/31 10:58:13.5	293.650	0.220	-0.670	-0.010
2020/01/31 10:58:13.6	293.670	0.170	-0.670	-0.010
2020/01/31 10:58:13.7	293.680	0.120	-0.680	-0.010
2020/01/31 10:58:13.8	293.700	0.070	-0.680	-0.010
2020/01/31 10:58:13.9	293.710	0.020	-0.680	-0.010
2020/01/31 10:58:14.0	293.720	-0.030	-0.680	-0.010
2020/01/31 10:58:14.1	293.730	-0.070	-0.680	-0.000
2020/01/31 10:58:14.2	293.740	-0.120	-0.680	0.000
2020/01/31 10:58:14.3	293.750	-0.170	-0.680	0.010
2020/01/31 10:58:14.4	293.760	-0.210	-0.670	0.020
2020/01/31 10:58:14.5	293.760	-0.250	-0.670	0.030
2020/01/31 10:58:14.6	293.760	-0.290	-0.660	0.040
2020/01/31 10:58:14.7	293.770	-0.330	-0.650	0.060
2020/01/31 10:58:14.8	293.770	-0.360	-0.640	0.080
2020/01/31 10:58:14.9	293.770	-0.400	-0.640	0.100
2020/01/31 10:58:15.0	293.770	-0.430	-0.630	0.120
2020/01/31 10:58:15.1	293.770	-0.450	-0.620	0.140
2020/01/31 10:58:15.2	293.760	-0.480	-0.610	0.160
2020/01/31 10:58:15.3	293.760	-0.500	-0.600	0.180
2020/01/31 10:58:15.4	293.750	-0.520	-0.590	0.210
2020/01/31 10:58:15.5	293.750	-0.540	-0.580	0.230
2020/01/31 10:58:15.6	293.740	-0.550	-0.570	0.260
2020/01/31 10:58:15.7	293.730	-0.560	-0.560	0.280
2020/01/31 10:58:15.8	293.720	-0.570	-0.550	0.300
2020/01/31 10:58:15.9	293.720	-0.570	-0.540	0.330
2020/01/31 10:58:16.0	293.710	-0.580	-0.530	0.350
2020/01/31 10:58:16.1	293.700	-0.580	-0.520	0.380
2020/01/31 10:58:16.2	293.690	-0.580	-0.510	0.400
2020/01/31 10:58:16.3	293.680	-0.570	-0.500	0.420
2020/01/31 10:58:16.4	293.670	-0.570	-0.490	0.440
2020/01/31 10:58:16.5	293.650	-0.560	-0.480	0.460
2020/01/31 10:58:16.6	293.640	-0.550	-0.480	0.480
2020/01/31 10:58:16.7	293.630	-0.540	-0.470	0.500
2020/01/31 10:58:16.8	293.620	-0.530	-0.470	0.520
2020/01/31 10:58:16.9	293.610	-0.520	-0.460	0.540
2020/01/31 10:58:17.0	293.600	-0.510	-0.460	0.560
2020/01/31 10:58:17.1	293.590	-0.490	-0.450	0.570
2020/01/31 10:58:17.2	293.580	-0.480	-0.450	0.590
2020/01/31 10:58:17.3	293.570	-0.460	-0.440	0.600
2020/01/31 10:58:17.4	293.560	-0.440	-0.440	0.610
2020/01/31 10:58:17.5	293.550	-0.430	-0.430	0.620
2020/01/31 10:58:17.6	293.540	-0.410	-0.430	0.640
2020/01/31 10:58:17.7	293.530	-0.400	-0.420	0.650
2020/01/31 10:58:17.8	293.530	-0.380	-0.420	0.650
2020/01/31 10:58:17.9	293.520	-0.370	-0.410	0.660
2020/01/31 10:58:18.0	293.520	-0.350	-0.400	0.670
2020/01/31 10:58:18.1	293.510	-0.340	-0.390	0.680
2020/01/31 10:58:18.2	293.510	-0.320	-0.380	0.690
2020/01/31 10:58:18.3	293.500	-0.310	-0.370	0.690
2020/01/31 10:58:18.4	293.500	-0.290	-0.360	0.700
2020/01/31 10:58:18.5	293.490	-0.280	-0.340	0.710
2020/01/31 10:58:18.6	293.490	-0.270	-0.330	0.710
2020/01/31 10:58:18.7	293.480	-0.260	-0.310	0.720
2020/01/31 10:58:18.8	293.480	-0.250	-0.290	0.720
2020/01/31 10:58:18.9	293.470	-0.240	-0.270	0.730
2020/01/31 10:58:19.0	293.470	-0.230	-0.250	0.740
2020/01/31 10:58:19.1	293.460	-0.220	-0.220	0.740
2020/01/31 10:58:19.2	293.460	-0.220	-0.200	0.750
2020/01/31 10:58:19.3	293.450	-0.210	-0.180	0.750
2020/01/31 10:58:19.4	293.450	-0.200	-0.150	0.760
2020/01/31 10:58:19.5	293.440	-0.200	-0.120	0.760
2020/01/31 10:58:19.6	293.430	-0.190	-0.090	0.760
2020/01/31 10:58:19.7	293.430	-0.180	-0.060	0.770
2020/01/31 10:58:19.8	293.420	-0.180	-0.030	0.770
2020/01/31 10:58:19.9	293.420	-0.170	-0.000	0.780
2020/01/31 10:58:20.0	293.410	-0.170	0.030	0.780
2020/01/31 10:58:20.1	293.400	-0.160	0.060	0.780
2020/01/31 10:58:20.2	293.400	-0.150	0.090	0.790
2020/01/31 10:58:20.3	293.390	-0.150	0.120	0.790
2020/01/31 10:58:20.4	293.390	-0.140	0.150	0.790
2020/01/31 10:58:20.5	293.380	-0.130	0.180	0.800
2020/01/31 10:58:20.6	293.380	-0.120	0.200	0.800
2020/01/31 10:58:20.7	293.370	-0.110	0.230	0.800
2020/01/31 10:58:20.8	293.370	-0.100	0.260	0.800
2020/01/31 10:58:20.9	293.360	-0.090	0.280	0.800
2020/01/31 10:58:21.0	293.360	-0.080	0.300	0.800
2020/01/31 10:58:21.1	293.350	-0.070	0.320	0.800
2020/01/31 10:58:21.2	293.350	-0.060	0.340	0.800
2020/01/31 10:58:21.3	293.350	-0.040	0.360	0.790
2020/01/31 10:58:21.4	293.350	-0.030	0.370	0.790
2020/01/31 10:58:21.5	293.350	-0.010	0.380	0.780
2020/01/31 10:58:21.6	293.340	0.010	0.390	0.770
2020/01/31 10:58:21.7	293.340	0.020	0.400	0.760
2020/01/31 10:58:21.8	293.340	0.040	0.400	0.750
2020/01/31 10:58:21.9	293.350	0.060	0.410	0.730
2020/01/31 10:58:22.0	293.350	0.080	0.410	0.720
2020/01/31 10:58:22.1	293.350	0.100	0.400	0.700
2020/01/31 10:58:22.2	293.350	0.120	0.400	0.680
2020/01/31 10:58:22.3	293.350	0.140	0.400	0.660
2020/01/31 10:58:22.4	293.350	0.160	0.390	0.640
2020/01/31 10:58:22.5	293.350	0.180	0.380	0.620
2020/01/31 10:58:22.6	293.350	0.210	0.370	0.600
2020/01/31 10:58:22.7	293.360	0.230	0.350	0.570
2020/01/31 10:58:22.8	293.360	0.250	0.340	0.550
2020/01/31 10:58:22.9	293.360	0.270	0.320	0.520
2020/01/31 10:58:23.0	293.360	0.290	0.300	0.500
2020/01/31 10:58:23.1	293.360	0.320	0.280	0.480
2020/01/31 10:58:23.2	293.360	0.340	0.250	0.450
2020/01/31 10:58:23.3	293.360	0.360	0.230	0.430
2020/01/31 10:58:23.4	293.360	0.380	0.200	0.410
2020/01/31 10:58:23.5	293.360	0.400	0.170	0.390
2020/01/31 10:58:23.6	293.360	0.420	0.140	0.370
2020/01/31 10:58:23.7	293.360	0.440	0.110	0.350
2020/01/31 10:58:23.8	293.360	0.460	0.070	0.330
2020/01/31 10:58:23.9	293.360	0.480	0.040	0.310
2020/01/31 10:58:24.0	293.360	0.500	0.000	0.300
2020/01/31 10:58:24.1	293.360	0.510	-0.040	0.280
2020/01/31 10:58:24.2	293.360	0.530	-0.070	0.270
2020/01/31 10:58:24.3	293.360	0.540	-0.110	0.260
2020/01/31 10:58:24.4	293.360	0.550	-0.150	0.250
2020/01/31 10:58:24.5	293.360	0.570	-0.190	0.230
2020/01/31 10:58:24.6	293.370	0.580	-0.230	0.230
2020/01/31 10:58:24.7	293.370	0.580	-0.270	0.220
2020/01/31 10:58:24.8	293.370	0.590	-0.320	0.210
2020/01/31 10:58:24.9	293.380	0.600	-0.360	0.210
2020/01/31 10:58:25.0	293.380	0.600	-0.400	0.210
2020/01/31 10:58:25.1	293.390	0.610	-0.440	0.200
2020/01/31 10:58:25.2	293.400	0.610	-0.480	0.200
2020/01/31 10:58:25.3	293.400	0.610	-0.520	0.200
2020/01/31 10:58:25.4	293.410	0.600	-0.560	0.200
2020/01/31 10:58:25.5	293.420	0.600	-0.600	0.190
2020/01/31 10:58:25.6	293.420	0.600	-0.640	0.200
2020/01/31 10:58:25.7	293.430	0.590	-0.680	0.200
2020/01/31 10:58:25.8	293.440	0.580	-0.710	0.200
2020/01/31 10:58:25.9	293.460	0.570	-0.740	0.210
2020/01/31 10:58:26.0	293.470	0.560	-0.780	0.210
2020/01/31 10:58:26.1	293.480	0.550	-0.810	0.220
2020/01/31 10:58:26.2	293.490	0.540	-0.830	0.220
2020/01/31 10:58:26.3	293.500	0.530	-0.860	0.230
2020/01/31 10:58:26.4	293.520	0.510	-0.880	0.240
2020/01/31 10:58:26.5	293.530	0.500	-0.900	0.250
2020/01/31 10:58:26.6	293.550	0.480	-0.920	0.260
2020/01/31 10:58:26.7	293.560	0.460	-0.930	0.270
2020/01/31 10:58:26.8	293.570	0.440	-0.940	0.290
2020/01/31 10:58:26.9	293.580	0.420	-0.950	0.300
2020/01/31 10:58:27.0	293.600	0.400	-0.950	0.320
2020/01/31 10:58:27.1	293.610	0.380	-0.950	0.340
2020/01/31 10:58:27.2	293.620	0.360	-0.950	0.350
2020/01/31 10:58:27.3	293.630	0.340	-0.950	0.370
2020/01/31 10:58:27.4	293.640	0.320	-0.940	0.400
2020/01/31 10:58:27.5	293.640	0.290	-0.930	0.420
2020/01/31 10:58:27.6	293.650	0.270	-0.910	0.440
2020/01/31 10:58:27.7	293.660	0.250	-0.900	0.460
2020/01/31 10:58:27.8	293.660	0.220	-0.880	0.490
2020/01/31 10:58:27.9	293.660	0.200	-0.860	0.510
2020/01/31 10:58:28.0	293.660	0.170	-0.840	0.540
2020/01/31 10:58:28.1	293.660	0.150	-0.820	0.560
2020/01/31 10:58:28.2	293.660	0.120	-0.790	0.580
2020/01/31 10:58:28.3	293.660	0.100	-0.770	0.610
2020/01/31 10:58:28.4	293.660	0.070	-0.740	0.630
2020/01/31 10:58:28.5	293.650	0.040	-0.710	0.650
2020/01/31 10:58:28.6	293.650	0.020	-0.690	0.670
2020/01/31 10:58:28.7	293.640	-0.010	-0.660	0.680
2020/01/31 10:58:28.8	293.640	-0.040	-0.630	0.700
2020/01/31 10:58:28.9	293.630	-0.070	-0.610	0.710
2020/01/31 10:58:29.0	293.620	-0.090	-0.580	0.720
2020/01/31 10:58:29.1	293.620	-0.120	-0.560	0.730
2020/01/31 10:58:29.2	293.610	-0.150	-0.530	0.740
2020/01/31 10:58:29.3	293.600	-0.180	-0.500	0.740
2020/01/31 10:58:29.4	293.590	-0.210	-0.480	0.740
2020/01/31 10:58:29.5	293.580	-0.240	-0.460	0.740
2020/01/31 10:58:29.6	293.570	-0.270	-0.430	0.730
2020/01/31 10:58:29.7	293.560	-0.300	-0.410	0.730
2020/01/31 10:58:29.8	293.550	-0.330	-0.390	0.720
2020/01/31 10:58:29.9	293.540	-0.350	-0.360	0.710
2020/01/31 10:58:30.0	293.520	-0.380	-0.340	0.700
2020/01/31 10:58:30.1	293.510	-0.410	-0.320	0.680
2020/01/31 10:58:30.2	293.500	-0.440	-0.300	0.660
2020/01/31 10:58:30.3	293.490	-0.470	-0.270	0.640
2020/01/31 10:58:30.4	293.480	-0.500	-0.250	0.620
2020/01/31 10:58:30.5	293.460	-0.520	-0.230	0.590
2020/01/31 10:58:30.6	293.450	-0.550	-0.210	0.570
2020/01/31 10:58:30.7	293.430	-0.570	-0.180	0.540
2020/01/31 10:58:30.8	293.420	-0.600	-0.160	0.520
2020/01/31 10:58:30.9	293.400	-0.620	-0.140	0.490
2020/01/31 10:58:31.0	293.390	-0.640	-0.110	0.460
2020/01/31 10:58:31.1	293.370	-0.660	-0.090	0.440
2020/01/31 10:58:31.2	293.360	-0.680	-0.060	0.410
2020/01/31 10:58:31.3	293.340	-0.690	-0.040	0.390
2020/01/31 10:58:31.4	293.330	-0.700	-0.010	0.360
2020/01/31 10:58:31.5	293.310	-0.720	0.010	0.340
2020/01/31 10:58:31.6	293.300	-0.720	0.040	0.320
2020/01/31 10:58:31.7	293.280	-0.730	0.070	0.300
2020/01/31 10:58:31.8	293.260	-0.730	0.100	0.280
2020/01/31 10:58:31.9	293.250	-0.730	0.120	0.260
2020/01/31 10:58:32.0	293.230	-0.730	0.150	0.240
2020/01/31 10:58:32.1	293.210	-0.730	0.170	0.230
2020/01/31 10:58:32.2	293.190	-0.720	0.200	0.210
2020/01/31 10:58:32.3	293.180	-0.710	0.220	0.190
2020/01/31 10:58:32.4	293.160	-0.700	0.240	0.180
2020/01/31 10:58:32.5	293.150	-0.690	0.260	0.170
2020/01/31 10:58:32.6	293.130	-0.670	0.280	0.150
2020/01/31 10:58:32.7	293.120	-0.650	0.300	0.140
2020/01/31 10:58:32.8	293.100	-0.630	0.310	0.130
2020/01/31 10:58:32.9	293.090	-0.610	0.320	0.120
2020/01/31 10:58:33.0	293.070	-0.580	0.330	0.110
2020/01/31 10:58:33.1	293.060	-0.550	0.340	0.110
2020/01/31 10:58:33.2	293.050	-0.520	0.350	0.100
2020/01/31 10:58:33.3	293.030	-0.490	0.350	0.090
2020/01/31 10:58:33.4	293.020	-0.460	0.350	0.090
2020/01/31 10:58:33.5	293.010	-0.420	0.340	0.080
2020/01/31 10:58:33.6	293.010	-0.390	0.340	0.080
2020/01/31 10:58:33.7	293.000	-0.350	0.330	0.080
2020/01/31 10:58:33.8	292.990	-0.320	0.320	0.080
2020/01/31 10:58:33.9	292.990	-0.280	0.300	0.080
2020/01/31 10:58:34.0	292.990	-0.240	0.290	0.080
2020/01/31 10:58:34.1	292.980	-0.200	0.270	0.080
2020/01/31 10:58:34.2	292.980	-0.160	0.250	0.080
2020/01/31 10:58:34.3	292.990	-0.120	0.230	0.090
2020/01/31 10:58:34.4	292.990	-0.080	0.200	0.090
2020/01/31 10:58:34.5	292.990	-0.050	0.170	0.100
2020/01/31 10:58:34.6	293.000	-0.010	0.150	0.110
2020/01/31 10:58:34.7	293.000	0.030	0.120	0.120
2020/01/31 10:58:34.8	293.010	0.060	0.090	0.130
2020/01/31 10:58:34.9	293.020	0.100	0.070	0.140
2020/01/31 10:58:35.0	293.030	0.130	0.040	0.160
2020/01/31 10:58:35.1	293.040	0.160	0.010	0.170
2020/01/31 10:58:35.2	293.050	0.190	-0.010	0.190
2020/01/31 10:58:35.3	293.060	0.220	-0.040	0.210
2020/01/31 10:58:35.4	293.070	0.250	-0.060	0.240
2020/01/31 10:58:35.5	293.080	0.270	-0.080	0.260
2020/01/31 10:58:35.6	293.100	0.300	-0.100	0.290
2020/01/31 10:58:35.7	293.110	0.320	-0.120	0.320
2020/01/31 10:58:35.8	293.120	0.340	-0.140	0.350
2020/01/31 10:58:35.9	293.130	0.350	-0.150	0.380
2020/01/31 10:58:36.0	293.150	0.370	-0.170	0.420
2020/01/31 10:58:36.1	293.160	0.380	-0.180	0.460
2020/01/31 10:58:36.2	293.170	0.390	-0.190	0.490
2020/01/31 10:58:36.3	293.180	0.400	-0.190	0.530
2020/01/31 10:58:36.4	293.200	0.410	-0.200	0.570
2020/01/31 10:58:36.5	293.210	0.410	-0.200	0.610
2020/01/31 10:58:36.6	293.220	0.410	-0.200	0.650
2020/01/31 10:58:36.7	293.230	0.420	-0.210	0.690
2020/01/31 10:58:36.8	293.250	0.420	-0.210	0.730
2020/01/31 10:58:36.9	293.260	0.410	-0.200	0.770
2020/01/31 10:58:37.0	293.270	0.410	-0.200	0.810
2020/01/31 10:58:37.1	293.280	0.410	-0.200	0.850
2020/01/31 10:58:37.2	293.290	0.400	-0.200	0.880
2020/01/31 10:58:37.3	293.300	0.400	-0.200	0.920
2020/01/31 10:58:37.4	293.320	0.390	-0.200	0.950
2020/01/31 10:58:37.5	293.330	0.390	-0.200	0.990
2020/01/31 10:58:37.6	293.330	0.380	-0.210	1.020
2020/01/31 10:58:37.7	293.340	0.370	-0.210	1.050
2020/01/31 10:58:37.8	293.350	0.360	-0.220	1.080
2020/01/31 10:58:37.9	293.360	0.360	-0.220	1.100
2020/01/31 10:58:38.0	293.370	0.350	-0.230	1.130
2020/01/31 10:58:38.1	293.370	0.340	-0.240	1.150
2020/01/31 10:58:38.2	293.380	0.340	-0.260	1.160
2020/01/31 10:58:38.3	293.380	0.330	-0.270	1.180
2020/01/31 10:58:38.4	293.390	0.330	-0.290	1.190
2020/01/31 10:58:38.5	293.390	0.320	-0.310	1.200
2020/01/31 10:58:38.6	293.400	0.320	-0.330	1.200
2020/01/31 10:58:38.7	293.400	0.320	-0.360	1.200
2020/01/31 10:58:38.8	293.410	0.310	-0.380	1.200
2020/01/31 10:58:38.9	293.410	0.310	-0.410	1.200
2020/01/31 10:58:39.0	293.410	0.310	-0.440	1.190
2020/01/31 10:58:39.1	293.420	0.310	-0.470	1.170
2020/01/31 10:58:39.2	293.420	0.310	-0.510	1.160
2020/01/31 10:58:39.3	293.430	0.310	-0.540	1.140
2020/01/31 10:58:39.4	293.430	0.310	-0.580	1.120
2020/01/31 10:58:39.5	293.430	0.310	-0.610	1.090
2020/01/31 10:58:39.6	293.440	0.310	-0.650	1.070
2020/01/31 10:58:39.7	293.440	0.320	-0.690	1.040
2020/01/31 10:58:39.8	293.450	0.320	-0.720	1.010
2020/01/31 10:58:39.9	293.450	0.320	-0.760	0.980
2020/01/31 10:58:40.0	293.460	0.320	-0.790	0.950
2020/01/31 10:58:40.1	293.460	0.320	-0.830	0.920
2020/01/31 10:58:40.2	293.470	0.320	-0.860	0.880
2020/01/31 10:58:40.3	293.470	0.320	-0.890	0.850
2020/01/31 10:58:40.4	293.470	0.320	-0.920	0.810
2020/01/31 10:58:40.5	293.480	0.320	-0.940	0.780
2020/01/31 10:58:40.6	293.480	0.320	-0.960	0.750
2020/01/31 10:58:40.7	293.490	0.320	-0.980	0.710
2020/01/31 10:58:40.8	293.490	0.320	-0.990	0.680
2020/01/31 10:58:40.9	293.490	0.320	-1.000	0.650
2020/01/31 10:58:41.0	293.490	0.310	-1.010	0.620
2020/01/31 10:58:41.1	293.500	0.310	-1.010	0.590
2020/01/31 10:58:41.2	293.500	0.300	-1.010	0.560
2020/01/31 10:58:41.3	293.500	0.290	-1.000	0.530
2020/01/31 10:58:41.4	293.500	0.280	-1.000	0.500
2020/01/31 10:58:41.5	293.490	0.270	-0.990	0.470
2020/01/31 10:58:41.6	293.490	0.260	-0.970	0.450
2020/01/31 10:58:41.7	293.490	0.250	-0.950	0.420
2020/01/31 10:58:41.8	293.490	0.230	-0.930	0.400
2020/01/31 10:58:41.9	293.490	0.220	-0.900	0.380
2020/01/31 10:58:42.0	293.490	0.200	-0.870	0.360
2020/01/31 10:58:42.1	293.490	0.190	-0.840	0.330
2020/01/31 10:58:42.2	293.490	0.170	-0.810	0.310
2020/01/31 10:58:42.3	293.490	0.150	-0.770	0.290
2020/01/31 10:58:42.4	293.490	0.130	-0.740	0.280
2020/01/31 10:58:42.5	293.490	0.110	-0.700	0.260
2020/01/31 10:58:42.6	293.490	0.090	-0.660	0.240
2020/01/31 10:58:42.7	293.490	0.070	-0.610	0.230
2020/01/31 10:58:42.8	293.490	0.050	-0.570	0.210
2020/01/31 10:58:42.9	293.490	0.020	-0.530	0.200
2020/01/31 10:58:43.0	293.490	0.000	-0.490	0.180
2020/01/31 10:58:43.1	293.490	-0.020	-0.450	0.170
2020/01/31 10:58:43.2	293.490	-0.050	-0.400	0.150
2020/01/31 10:58:43.3	293.490	-0.070	-0.360	0.140
2020/01/31 10:58:43.4	293.490	-0.090	-0.320	0.130
2020/01/31 10:58:43.5	293.480	-0.120	-0.280	0.110
2020/01/31 10:58:43.6	293.480	-0.140	-0.240	0.100
2020/01/31 10:58:43.7	293.480	-0.160	-0.200	0.090
2020/01/31 10:58:43.8	293.480	-0.180	-0.170	0.080
2020/01/31 10:58:43.9	293.480	-0.200	-0.130	0.060
2020/01/31 10:58:44.0	293.480	-0.220	-0.100	0.050
2020/01/31 10:58:44.1	293.480	-0.240	-0.060	0.040
2020/01/31 10:58:44.2	293.480	-0.260	-0.030	0.030
2020/01/31 10:58:44.3	293.480	-0.280	0.000	0.020
2020/01/31 10:58:44.4	293.480	-0.300	0.030	0.020
2020/01/31 10:58:44.5	293.490	-0.310	0.070	0.010
2020/01/31 10:58:44.6	293.490	-0.330	0.090	0.000
2020/01/31 10:58:44.7	293.490	-0.340	0.120	-0.000
2020/01/31 10:58:44.8	293.490	-0.360	0.150	-0.000
2020/01/31 10:58:44.9	293.480	-0.370	0.180	-0.000
2020/01/31 10:58:45.0	293.480	-0.380	0.200	-0.000
2020/01/31 10:58:45.1	293.480	-0.390	0.230	-0.000
2020/01/31 10:58:45.2	293.480	-0.400	0.260	-0.000
2020/01/31 10:58:45.3	293.470	-0.410	0.280	0.000
2020/01/31 10:58:45.4	293.470	-0.410	0.310	0.010
2020/01/31 10:58:45.5	293.470	-0.420	0.330	0.020
2020/01/31 10:58:45.6	293.460	-0.420	0.360	0.030
2020/01/31 10:58:45.7	293.460	-0.430	0.380	0.040
2020/01/31 10:58:45.8	293.460	-0.430	0.410	0.050
2020/01/31 10:58:45.9	293.450	-0.430	0.430	0.060
2020/01/31 10:58:46.0	293.450	-0.440	0.450	0.070
2020/01/31 10:58:46.1	293.450	-0.440	0.470	0.090
2020/01/31 10:58:46.2	293.450	-0.440	0.490	0.100
2020/01/31 10:58:46.3	293.450	-0.440	0.510	0.120
2020/01/31 10:58:46.4	293.450	-0.440	0.530	0.130
2020/01/31 10:58:46.5	293.460	-0.430	0.540	0.150
2020/01/31 10:58:46.6	293.460	-0.430	0.560	0.160
2020/01/31 10:58:46.7	293.470	-0.430	0.570	0.180
2020/01/31 10:58:46.8	293.470	-0.420	0.570	0.190
2020/01/31 10:58:46.9	293.470	-0.420	0.580	0.210
2020/01/31 10:58:47.0	293.480	-0.420	0.580	0.220
2020/01/31 10:58:47.1	293.490	-0.410	0.570	0.240
2020/01/31 10:58:47.2	293.500	-0.400	0.570	0.250
2020/01/31 10:58:47.3	293.510	-0.400	0.560	0.260
2020/01/31 10:58:47.4	293.520	-0.390	0.550	0.280
2020/01/31 10:58:47.5	293.540	-0.380	0.520	0.290
2020/01/31 10:58:47.6	293.550	-0.370	0.510	0.300
2020/01/31 10:58:47.7	293.570	-0.360	0.480	0.300
2020/01/31 10:58:47.8	293.590	-0.350	0.460	0.310
2020/01/31 10:58:47.9	293.610	-0.340	0.430	0.320
2020/01/31 10:58:48.0	293.630	-0.330	0.400	0.320
2020/01/31 10:58:48.1	293.650	-0.310	0.370	0.320
2020/01/31 10:58:48.2	293.680	-0.300	0.330	0.330
2020/01/31 10:58:48.3	293.700	-0.280	0.300	0.330
2020/01/31 10:58:48.4	293.730	-0.270	0.260	0.330
2020/01/31 10:58:48.5	293.750	-0.250	0.220	0.320
2020/01/31 10:58:48.6	293.780	-0.230	0.180	0.320
2020/01/31 10:58:48.7	293.810	-0.210	0.140	0.320
2020/01/31 10:58:48.8	293.840	-0.190	0.100	0.310
2020/01/31 10:58:48.9	293.870	-0.170	0.060	0.310
2020/01/31 10:58:49.0	293.890	-0.150	0.010	0.310
2020/01/31 10:58:49.1	293.920	-0.120	-0.030	0.300
2020/01/31 10:58:49.2	293.950	-0.100	-0.070	0.300
2020/01/31 10:58:49.3	293.980	-0.080	-0.110	0.290
2020/01/31 10:58:49.4	294.010	-0.050	-0.160	0.290
2020/01/31 10:58:49.5	294.030	-0.030	-0.200	0.290
2020/01/31 10:58:49.6	294.060	-0.000	-0.240	0.280
2020/01/31 10:58:49.7	294.080	0.020	-0.280	0.280
2020/01/31 10:58:49.8	294.110	0.050	-0.320	0.280
2020/01/31 10:58:49.9	294.130	0.070	-0.360	0.270
2020/01/31 10:58:50.0	294.150	0.100	-0.390	0.270
2020/01/31 10:58:50.1	294.170	0.120	-0.430	0.270
2020/01/31 10:58:50.2	294.190	0.150	-0.470	0.270
2020/01/31 10:58:50.3	294.210	0.170	-0.500	0.270
2020/01/31 10:58:50.4	294.220	0.200	-0.540	0.270
2020/01/31 10:58:50.5	294.230	0.220	-0.570	0.270
2020/01/31 10:58:50.6	294.240	0.240	-0.600	0.270
2020/01/31 10:58:50.7	294.250	0.260	-0.630	0.270
2020/01/31 10:58:50.8	294.260	0.290	-0.660	0.270
2020/01/31 10:58:50.9	294.270	0.310	-0.690	0.280
2020/01/31 10:58:51.0	294.280	0.320	-0.710	0.280
2020/01/31 10:58:51.1	294.280	0.340	-0.740	0.280
2020/01/31 10:58:51.2	294.280	0.360	-0.760	0.290
2020/01/31 10:58:51.3	294.290	0.370	-0.790	0.290
2020/01/31 10:58:51.4	294.290	0.390	-0.810	0.300
2020/01/31 10:58:51.5	294.290	0.400	-0.830	0.300
2020/01/31 10:58:51.6	294.290	0.410	-0.850	0.310
2020/01/31 10:58:51.7	294.290	0.420	-0.860	0.310
2020/01/31 10:58:51.8	294.280	0.430	-0.880	0.320
2020/01/31 10:58:51.9	294.280	0.440	-0.890	0.320
2020/01/31 10:58:52.0	294.280	0.440	-0.910	0.320
2020/01/31 10:58:52.1	294.270	0.450	-0.920	0.330
2020/01/31 10:58:52.2	294.260	0.450	-0.930	0.330
2020/01/31 10:58:52.3	294.250	0.460	-0.940	0.340
2020/01/31 10:58:52.4	294.240	0.460	-0.950	0.340
2020/01/31 10:58:52.5	294.230	0.460	-0.960	0.340
2020/01/31 10:58:52.6	294.220	0.460	-0.960	0.340
2020/01/31 10:58:52.7	294.210	0.450	-0.970	0.340
2020/01/31 10:58:52.8	294.190	0.450	-0.970	0.340
2020/01/31 10:58:52.9	294.180	0.450	-0.970	0.340
2020/01/31 10:58:53.0	294.170	0.440	-0.970	0.340
2020/01/31 10:58:53.1	294.160	0.440	-0.970	0.340
2020/01/31 10:58:53.2	294.150	0.430	-0.970	0.330
2020/01/31 10:58:53.3	294.140	0.420	-0.970	0.330
2020/01/31 10:58:53.4	294.130	0.410	-0.960	0.320
2020/01/31 10:58:53.5	294.120	0.410	-0.950	0.320
2020/01/31 10:58:53.6	294.110	0.400	-0.940	0.310
2020/01/31 10:58:53.7	294.100	0.390	-0.930	0.300
2020/01/31 10:58:53.8	294.090	0.380	-0.920	0.290
2020/01/31 10:58:53.9	294.080	0.370	-0.910	0.280
2020/01/31 10:58:54.0	294.080	0.360	-0.890	0.270
2020/01/31 10:58:54.1	294.070	0.340	-0.880	0.260
2020/01/31 10:58:54.2	294.060	0.330	-0.860	0.250
2020/01/31 10:58:54.3	294.060	0.320	-0.840	0.230
2020/01/31 10:58:54.4	294.050	0.310	-0.820	0.220
2020/01/31 10:58:54.5	294.050	0.290	-0.800	0.200
2020/01/31 10:58:54.6	294.040	0.280	-0.770	0.190
2020/01/31 10:58:54.7	294.040	0.260	-0.750	0.180
2020/01/31 10:58:54.8	294.030	0.250	-0.720	0.160
2020/01/31 10:58:54.9	294.030	0.230	-0.690	0.150
2020/01/31 10:58:55.0	294.030	0.220	-0.660	0.140
2020/01/31 10:58:55.1	294.020	0.200	-0.630	0.130
2020/01/31 10:58:55.2	294.020	0.190	-0.590	0.120
2020/01/31 10:58:55.3	294.020	0.170	-0.560	0.110
2020/01/31 10:58:55.4	294.020	0.150	-0.520	0.110
2020/01/31 10:58:55.5	294.010	0.130	-0.490	0.100
2020/01/31 10:58:55.6	294.010	0.110	-0.450	0.090
2020/01/31 10:58:55.7	294.010	0.100	-0.410	0.090
2020/01/31 10:58:55.8	294.010	0.080	-0.370	0.090
2020/01/31 10:58:55.9	294.010	0.060	-0.330	0.080
2020/01/31 10:58:56.0	294.020	0.040	-0.290	0.080
2020/01/31 10:58:56.1	294.020	0.020	-0.250	0.080
2020/01/31 10:58:56.2	294.020	-0.010	-0.210	0.080
2020/01/31 10:58:56.3	294.020	-0.030	-0.170	0.080
2020/01/31 10:58:56.4	294.030	-0.050	-0.130	0.090
2020/01/31 10:58:56.5	294.030	-0.070	-0.100	0.090
2020/01/31 10:58:56.6	294.040	-0.090	-0.060	0.090
2020/01/31 10:58:56.7	294.040	-0.110	-0.020	0.100
2020/01/31 10:58:56.8	294.050	-0.130	0.020	0.100
2020/01/31 10:58:56.9	294.050	-0.150	0.050	0.110
2020/01/31 10:58:57.0	294.050	-0.170	0.090	0.110
2020/01/31 10:58:57.1	294.060	-0.190	0.120	0.120
2020/01/31 10:58:57.2	294.060	-0.210	0.160	0.130
2020/01/31 10:58:57.3	294.070	-0.230	0.190	0.130
2020/01/31 10:58:57.4	294.070	-0.250	0.220	0.140
2020/01/31 10:58:57.5	294.070	-0.260	0.250	0.140
2020/01/31 10:58:57.6	294.070	-0.280	0.270	0.150
2020/01/31 10:58:57.7	294.080	-0.300	0.300	0.150
2020/01/31 10:58:57.8	294.080	-0.310	0.320	0.160
2020/01/31 10:58:57.9	294.080	-0.330	0.340	0.160
2020/01/31 10:58:58.0	294.080	-0.340	0.360	0.170
2020/01/31 10:58:58.1	294.090	-0.350	0.380	0.170
2020/01/31 10:58:58.2	294.090	-0.360	0.390	0.170
2020/01/31 10:58:58.3	294.090	-0.380	0.410	0.170
2020/01/31 10:58:58.4	294.090	-0.380	0.420	0.170
2020/01/31 10:58:58.5	294.100	-0.390	0.430	0.160
2020/01/31 10:58:58.6	294.100	-0.400	0.440	0.160
2020/01/31 10:58:58.7	294.100	-0.400	0.440	0.150
2020/01/31 10:58:58.8	294.100	-0.410	0.450	0.140
2020/01/31 10:58:58.9	294.110	-0.410	0.450	0.130
2020/01/31 10:58:59.0	294.110	-0.410	0.450	0.120
2020/01/31 10:58:59.1	294.110	-0.420	0.450	0.110
2020/01/31 10:58:59.2	294.110	-0.420	0.450	0.090
2020/01/31 10:58:59.3	294.120	-0.410	0.450	0.080
2020/01/31 10:58:59.4	294.120	-0.410	0.450	0.060
2020/01/31 10:58:59.5	294.130	-0.410	0.450	0.040
2020/01/31 10:58:59.6	294.130	-0.410	0.440	0.030
2020/01/31 10:58:59.7	294.140	-0.400	0.440	0.010
2020/01/31 10:58:59.8	294.140	-0.400	0.430	-0.010
2020/01/31 10:58:59.9	294.140	-0.390	0.430	-0.030
2020/01/31 10:59:00.0	294.150	-0.380	0.420	-0.050
2020/01/31 10:59:00.1	294.150	-0.380	0.420	-0.070
2020/01/31 10:59:00.2	294.160	-0.370	0.410	-0.090
2020/01/31 10:59:00.3	294.160	-0.360	0.410	-0.110
2020/01/31 10:59:00.4	294.170	-0.350	0.400	-0.130
2020/01/31 10:59:00.5	294.170	-0.350	0.390	-0.150
2020/01/31 10:59:00.6	294.170	-0.340	0.380	-0.170
2020/01/31 10:59:00.7	294.180	-0.330	0.370	-0.190
2020/01/31 10:59:00.8	294.180	-0.320	0.360	-0.210
2020/01/31 10:59:00.9	294.180	-0.320	0.360	-0.220
2020/01/31 10:59:01.0	294.190	-0.310	0.350	-0.240
2020/01/31 10:59:01.1	294.190	-0.300	0.340	-0.250
2020/01/31 10:59:01.2	294.190	-0.290	0.320	-0.260
2020/01/31 10:59:01.3	294.190	-0.280	0.310	-0.280
2020/01/31 10:59:01.4	294.190	-0.280	0.300	-0.280
2020/01/31 10:59:01.5	294.190	-0.270	0.280	-0.290
2020/01/31 10:59:01.6	294.190	-0.260	0.270	-0.300
2020/01/31 10:59:01.7	294.190	-0.250	0.250	-0.300
2020/01/31 10:59:01.8	294.190	-0.240	0.230	-0.310
2020/01/31 10:59:01.9	294.190	-0.230	0.200	-0.310
2020/01/31 10:59:02.0	294.190	-0.220	0.180	-0.310
2020/01/31 10:59:02.1	294.190	-0.210	0.150	-0.310
2020/01/31 10:59:02.2	294.200	-0.200	0.120	-0.300
2020/01/31 10:59:02.3	294.200	-0.190	0.090	-0.300
2020/01/31 10:59:02.4	294.200	-0.180	0.060	-0.290
2020/01/31 10:59:02.5	294.200	-0.160	0.020	-0.280
2020/01/31 10:59:02.6	294.210	-0.150	-0.020	-0.270
2020/01/31 10:59:02.7	294.210	-0.130	-0.060	-0.250
2020/01/31 10:59:02.8	294.210	-0.110	-0.100	-0.230
2020/01/31 10:59:02.9	294.220	-0.100	-0.150	-0.210
2020/01/31 10:59:03.0	294.220	-0.080	-0.190	-0.190
2020/01/31 10:59:03.1	294.220	-0.060	-0.240	-0.170
2020/01/31 10:59:03.2	294.230	-0.030	-0.290	-0.140
2020/01/31 10:59:03.3	294.230	-0.010	-0.340	-0.110
2020/01/31 10:59:03.4	294.230	0.010	-0.390	-0.070
2020/01/31 10:59:03.5	294.240	0.030	-0.450	-0.040
2020/01/31 10:59:03.6	294.240	0.060	-0.500	-0.000
2020/01/31 10:59:03.7	294.240	0.090	-0.550	0.040
2020/01/31 10:59:03.8	294.240	0.110	-0.610	0.080
2020/01/31 10:59:03.9	294.240	0.140	-0.660	0.130
2020/01/31 10:59:04.0	294.240	0.170	-0.710	0.170
2020/01/31 10:59:04.1	294.230	0.190	-0.760	0.220
2020/01/31 10:59:04.2	294.230	0.220	-0.820	0.270
2020/01/31 10:59:04.3	294.220	0.250	-0.870	0.320
2020/01/31 10:59:04.4	294.220	0.280	-0.910	0.380
2020/01/31 10:59:04.5	294.210	0.310	-0.960	0.430
2020/01/31 10:59:04.6	294.200	0.330	-1.010	0.480
2020/01/31 10:59:04.7	294.190	0.360	-1.050	0.540
2020/01/31 10:59:04.8	294.190	0.390	-1.100	0.590
2020/01/31 10:59:04.9	294.180	0.410	-1.130	0.650
2020/01/31 10:59:05.0	294.170	0.440	-1.170	0.700
2020/01/31 10:59:05.1	294.160	0.460	-1.200	0.760
2020/01/31 10:59:05.2	294.150	0.490	-1.230	0.810
2020/01/31 10:59:05.3	294.130	0.510	-1.260	0.870
2020/01/31 10:59:05.4	294.120	0.530	-1.280	0.920
2020/01/31 10:59:05.5	294.120	0.550	-1.300	0.970
2020/01/31 10:59:05.6	294.100	0.560	-1.320	1.020
2020/01/31 10:59:05.7	294.090	0.580	-1.330	1.070
2020/01/31 10:59:05.8	294.080	0.590	-1.340	1.120
2020/01/31 10:59:05.9	294.060	0.600	-1.340	1.170
2020/01/31 10:59:06.0	294.050	0.610	-1.350	1.210
2020/01/31 10:59:06.1	294.030	0.620	-1.340	1.260
2020/01/31 10:59:06.2	294.010	0.620	-1.340	1.300
2020/01/31 10:59:06.3	294.000	0.620	-1.330	1.340
2020/01/31 10:59:06.4	293.980	0.620	-1.320	1.380
2020/01/31 10:59:06.5	293.960	0.620	-1.300	1.410
2020/01/31 10:59:06.6	293.940	0.610	-1.280	1.450
2020/01/31 10:59:06.7	293.920	0.600	-1.260	1.480
2020/01/31 10:59:06.8	293.900	0.590	-1.230	1.500
2020/01/31 10:59:06.9	293.890	0.580	-1.200	1.530
2020/01/31 10:59:07.0	293.870	0.570	-1.170	1.550
2020/01/31 10:59:07.1	293.850	0.550	-1.130	1.570
2020/01/31 10:59:07.2	293.830	0.530	-1.100	1.590
2020/01/31 10:59:07.3	293.810	0.510	-1.050	1.600
2020/01/31 10:59:07.4	293.790	0.480	-1.010	1.600
2020/01/31 10:59:07.5	293.770	0.460	-0.970	1.610
2020/01/31 10:59:07.6	293.760	0.430	-0.920	1.610
2020/01/31 10:59:07.7	293.740	0.400	-0.870	1.600
2020/01/31 10:59:07.8	293.720	0.370	-0.830	1.600
2020/01/31 10:59:07.9	293.710	0.340	-0.780	1.580
2020/01/31 10:59:08.0	293.690	0.310	-0.720	1.570
2020/01/31 10:59:08.1	293.680	0.270	-0.670	1.550
2020/01/31 10:59:08.2	293.660	0.240	-0.620	1.530
2020/01/31 10:59:08.3	293.650	0.200	-0.570	1.510
2020/01/31 10:59:08.4	293.640	0.160	-0.510	1.480
2020/01/31 10:59:08.5	293.620	0.130	-0.460	1.450
2020/01/31 10:59:08.6	293.610	0.090	-0.410	1.410
2020/01/31 10:59:08.7	293.610	0.050	-0.350	1.380
2020/01/31 10:59:08.8	293.600	0.010	-0.300	1.330
2020/01/31 10:59:08.9	293.600	-0.020	-0.250	1.290
2020/01/31 10:59:09.0	293.600	-0.060	-0.200	1.250
2020/01/31 10:59:09.1	293.600	-0.100	-0.150	1.200
2020/01/31 10:59:09.2	293.600	-0.130	-0.100	1.150
2020/01/31 10:59:09.3	293.600	-0.170	-0.060	1.100
2020/01/31 10:59:09.4	293.610	-0.210	-0.010	1.050
2020/01/31 10:59:09.5	293.610	-0.240	0.030	0.990
2020/01/31 10:59:09.6	293.620	-0.270	0.080	0.940
2020/01/31 10:59:09.7	293.620	-0.300	0.120	0.880
2020/01/31 10:59:09.8	293.640	-0.330	0.160	0.820
2020/01/31 10:59:09.9	293.650	-0.360	0.200	0.760
2020/01/31 10:59:10.0	293.660	-0.390	0.240	0.710
2020/01/31 10:59:10.1	293.680	-0.410	0.280	0.650
2020/01/31 10:59:10.2	293.690	-0.440	0.320	0.590
2020/01/31 10:59:10.3	293.710	-0.460	0.350	0.530
2020/01/31 10:59:10.4	293.730	-0.480	0.390	0.470
2020/01/31 10:59:10.5	293.760	-0.500	0.420	0.410
2020/01/31 10:59:10.6	293.780	-0.510	0.460	0.350
2020/01/31 10:59:10.7	293.810	-0.530	0.490	0.300
2020/01/31 10:59:10.8	293.830	-0.540	0.520	0.240
2020/01/31 10:59:10.9	293.850	-0.550	0.550	0.190
2020/01/31 10:59:11.0	293.880	-0.560	0.580	0.140
2020/01/31 10:59:11.1	293.900	-0.560	0.610	0.090
2020/01/31 10:59:11.2	293.930	-0.570	0.630	0.040
2020/01/31 10:59:11.3	293.960	-0.570	0.660	-0.010
2020/01/31 10:59:11.4	293.980	-0.570	0.690	-0.050
2020/01/31 10:59:11.5	294.020	-0.570	0.710	-0.090
2020/01/31 10:59:11.6	294.040	-0.560	0.730	-0.130
2020/01/31 10:59:11.7	294.070	-0.560	0.760	-0.160
2020/01/31 10:59:11.8	294.090	-0.550	0.780	-0.200
2020/01/31 10:59:11.9	294.120	-0.540	0.800	-0.230
2020/01/31 10:59:12.0	294.140	-0.530	0.820	-0.250
2020/01/31 10:59:12.1	294.170	-0.520	0.830	-0.270
2020/01/31 10:59:12.2	294.190	-0.510	0.850	-0.290
2020/01/31 10:59:12.3	294.210	-0.490	0.860	-0.310
2020/01/31 10:59:12.4	294.230	-0.480	0.880	-0.320
2020/01/31 10:59:12.5	294.250	-0.460	0.880	-0.320
2020/01/31 10:59:12.6	294.260	-0.440	0.890	-0.330
2020/01/31 10:59:12.7	294.280	-0.420	0.890	-0.320
2020/01/31 10:59:12.8	294.290	-0.400	0.900	-0.320
2020/01/31 10:59:12.9	294.310	-0.380	0.890	-0.310
2020/01/31 10:59:13.0	294.320	-0.350	0.890	-0.300
2020/01/31 10:59:13.1	294.330	-0.330	0.880	-0.280
2020/01/31 10:59:13.2	294.330	-0.300	0.870	-0.260
2020/01/31 10:59:13.3	294.340	-0.280	0.850	-0.240
2020/01/31 10:59:13.4	294.340	-0.250	0.830	-0.210
2020/01/31 10:59:13.5	294.350	-0.220	0.810	-0.190
2020/01/31 10:59:13.6	294.350	-0.200	0.780	-0.160
2020/01/31 10:59:13.7	294.350	-0.170	0.750	-0.130
2020/01/31 10:59:13.8	294.350	-0.140	0.710	-0.090
2020/01/31 10:59:13.9	294.350	-0.110	0.670	-0.050
2020/01/31 10:59:14.0	294.340	-0.080	0.630	-0.010
2020/01/31 10:59:14.1	294.330	-0.050	0.580	0.030
2020/01/31 10:59:14.2	294.330	-0.020	0.530	0.070
2020/01/31 10:59:14.3	294.320	0.010	0.470	0.110
2020/01/31 10:59:14.4	294.310	0.040	0.410	0.160
2020/01/31 10:59:14.5	294.310	0.070	0.350	0.200
2020/01/31 10:59:14.6	294.290	0.100	0.280	0.250
2020/01/31 10:59:14.7	294.280	0.130	0.210	0.290
2020/01/31 10:59:14.8	294.270	0.160	0.140	0.340
2020/01/31 10:59:14.9	294.260	0.190	0.070	0.390
2020/01/31 10:59:15.0	294.240	0.220	-0.010	0.430
2020/01/31 10:59:15.1	294.230	0.250	-0.090	0.480
2020/01/31 10:59:15.2	294.210	0.280	-0.170	0.520
2020/01/31 10:59:15.3	294.200	0.310	-0.250	0.560
2020/01/31 10:59:15.4	294.180	0.340	-0.340	0.610
2020/01/31 10:59:15.5	294.170	0.360	-0.420	0.650
2020/01/31 10:59:15.6	294.160	0.390	-0.500	0.690
2020/01/31 10:59:15.7	294.140	0.410	-0.580	0.730
2020/01/31 10:59:15.8	294.130	0.440	-0.660	0.770
2020/01/31 10:59:15.9	294.120	0.460	-0.750	0.800
2020/01/31 10:59:16.0	294.110	0.480	-0.820	0.840
2020/01/31 10:59:16.1	294.090	0.500	-0.900	0.870
2020/01/31 10:59:16.2	294.080	0.520	-0.970	0.900
2020/01/31 10:59:16.3	294.070	0.540	-1.050	0.930
2020/01/31 10:59:16.4	294.060	0.560	-1.110	0.960
2020/01/31 10:59:16.5	294.050	0.570	-1.180	0.980
2020/01/31 10:59:16.6	294.040	0.580	-1.240	1.000
2020/01/31 10:59:16.7	294.030	0.600	-1.300	1.020
2020/01/31 10:59:16.8	294.020	0.600	-1.350	1.040
2020/01/31 10:59:16.9	294.020	0.610	-1.400	1.060
2020/01/31 10:59:17.0	294.010	0.620	-1.450	1.070
2020/01/31 10:59:17.1	294.000	0.620	-1.490	1.080
2020/01/31 10:59:17.2	294.000	0.620	-1.530	1.090
2020/01/31 10:59:17.3	293.990	0.620	-1.560	1.090
2020/01/31 10:59:17.4	293.980	0.610	-1.590	1.090
2020/01/31 10:59:17.5	293.970	0.610	-1.610	1.090
2020/01/31 10:59:17.6	293.970	0.600	-1.630	1.090
2020/01/31 10:59:17.7	293.960	0.590	-1.640	1.080
2020/01/31 10:59:17.8	293.950	0.580	-1.650	1.070
2020/01/31 10:59:17.9	293.950	0.560	-1.650	1.060
2020/01/31 10:59:18.0	293.940	0.550	-1.650	1.050
2020/01/31 10:59:18.1	293.930	0.530	-1.640	1.040
2020/01/31 10:59:18.2	293.920	0.500	-1.630	1.020
2020/01/31 10:59:18.3	293.920	0.480	-1.610	1.000
2020/01/31 10:59:18.4	293.910	0.460	-1.590	0.980
2020/01/31 10:59:18.5	293.900	0.430	-1.560	0.960
2020/01/31 10:59:18.6	293.890	0.400	-1.530	0.940
2020/01/31 10:59:18.7	293.880	0.370	-1.490	0.920
2020/01/31 10:59:18.8	293.870	0.340	-1.450	0.890
2020/01/31 10:59:18.9	293.860	0.300	-1.410	0.870
2020/01/31 10:59:19.0	293.850	0.270	-1.360	0.840
2020/01/31 10:59:19.1	293.840	0.230	-1.310	0.810
2020/01/31 10:59:19.2	293.840	0.190	-1.250	0.780
2020/01/31 10:59:19.3	293.830	0.160	-1.200	0.750
2020/01/31 10:59:19.4	293.820	0.120	-1.140	0.720
2020/01/31 10:59:19.5	293.800	0.080	-1.070	0.690
2020/01/31 10:59:19.6	293.800	0.040	-1.010	0.650
2020/01/31 10:59:19.7	293.790	0.000	-0.940	0.620
2020/01/31 10:59:19.8	293.780	-0.040	-0.870	0.580
2020/01/31 10:59:19.9	293.780	-0.080	-0.800	0.550
2020/01/31 10:59:20.0	293.780	-0.120	-0.730	0.510
2020/01/31 10:59:20.1	293.770	-0.150	-0.660	0.470
2020/01/31 10:59:20.2	293.770	-0.190	-0.590	0.430
2020/01/31 10:59:20.3	293.770	-0.230	-0.520	0.400
2020/01/31 10:59:20.4	293.770	-0.260	-0.450	0.360
2020/01/31 10:59:20.5	293.770	-0.300	-0.380	0.320
2020/01/31 10:59:20.6	293.770	-0.330	-0.310	0.280
2020/01/31 10:59:20.7	293.780	-0.360	-0.240	0.240
2020/01/31 10:59:20.8	293.780	-0.390	-0.180	0.200
2020/01/31 10:59:20.9	293.790	-0.420	-0.110	0.160
2020/01/31 10:59:21.0	293.790	-0.450	-0.050	0.130
2020/01/31 10:59:21.1	293.800	-0.470	0.010	0.090
2020/01/31 10:59:21.2	293.810	-0.500	0.060	0.060
2020/01/31 10:59:21.3	293.820	-0.520	0.120	0.020
2020/01/31 10:59:21.4	293.830	-0.530	0.170	-0.010
2020/01/31 10:59:21.5	293.840	-0.550	0.220	-0.040
2020/01/31 10:59:21.6	293.850	-0.560	0.260	-0.070
2020/01/31 10:59:21.7	293.870	-0.570	0.310	-0.100
2020/01/31 10:59:21.8	293.890	-0.580	0.350	-0.120
2020/01/31 10:59:21.9	293.900	-0.590	0.380	-0.140
2020/01/31 10:59:22.0	293.920	-0.590	0.420	-0.170
2020/01/31 10:59:22.1	293.940	-0.590	0.450	-0.190
2020/01/31 10:59:22.2	293.960	-0.590	0.480	-0.200
2020/01/31 10:59:22.3	293.980	-0.580	0.500	-0.220
2020/01/31 10:59:22.4	294.010	-0.570	0.530	-0.230
2020/01/31 10:59:22.5	294.030	-0.560	0.550	-0.250
2020/01/31 10:59:22.6	294.060	-0.550	0.560	-0.260
2020/01/31 10:59:22.7	294.080	-0.540	0.570	-0.260
2020/01/31 10:59:22.8	294.110	-0.520	0.580	-0.270
2020/01/31 10:59:22.9	294.130	-0.500	0.590	-0.270
2020/01/31 10:59:23.0	294.160	-0.480	0.590	-0.270
2020/01/31 10:59:23.1	294.180	-0.460	0.600	-0.270
2020/01/31 10:59:23.2	294.210	-0.440	0.600	-0.270
2020/01/31 10:59:23.3	294.240	-0.410	0.590	-0.260
2020/01/31 10:59:23.4	294.260	-0.390	0.590	-0.250
2020/01/31 10:59:23.5	294.290	-0.360	0.580	-0.230
2020/01/31 10:59:23.6	294.310	-0.330	0.570	-0.220
2020/01/31 10:59:23.7	294.340	-0.310	0.560	-0.200
2020/01/31 10:59:23.8	294.360	-0.280	0.550	-0.170
2020/01/31 10:59:23.9	294.380	-0.250	0.540	-0.150
2020/01/31 10:59:24.0	294.400	-0.220	0.520	-0.120
2020/01/31 10:59:24.1	294.420	-0.190	0.510	-0.090
2020/01/31 10:59:24.2	294.430	-0.160	0.500	-0.060
2020/01/31 10:59:24.3	294.450	-0.130	0.480	-0.020
2020/01/31 10:59:24.4	294.460	-0.110	0.470	0.010
2020/01/31 10:59:24.5	294.480	-0.080	0.450	0.050
2020/01/31 10:59:24.6	294.490	-0.050	0.440	0.090
2020/01/31 10:59:24.7	294.500	-0.030	0.430	0.130
2020/01/31 10:59:24.8	294.510	-0.000	0.410	0.170
2020/01/31 10:59:24.9	294.520	0.020	0.400	0.210
2020/01/31 10:59:25.0	294.530	0.050	0.390	0.260
2020/01/31 10:59:25.1	294.530	0.070	0.370	0.300
2020/01/31 10:59:25.2	294.540	0.090	0.360	0.350
2020/01/31 10:59:25.3	294.540	0.110	0.350	0.390
2020/01/31 10:59:25.4	294.540	0.130	0.340	0.440
2020/01/31 10:59:25.5	294.550	0.150	0.320	0.480
2020/01/31 10:59:25.6	294.550	0.170	0.310	0.530
2020/01/31 10:59:25.7	294.550	0.180	0.300	0.570
2020/01/31 10:59:25.8	294.550	0.200	0.290	0.610
2020/01/31 10:59:25.9	294.540	0.210	0.280	0.660
2020/01/31 10:59:26.0	294.530	0.230	0.260	0.700
2020/01/31 10:59:26.1	294.520	0.240	0.250	0.740
2020/01/31 10:59:26.2	294.510	0.250	0.240	0.780
2020/01/31 10:59:26.3	294.500	0.260	0.230	0.820
2020/01/31 10:59:26.4	294.490	0.280	0.210	0.860
2020/01/31 10:59:26.5	294.480	0.290	0.200	0.890
2020/01/31 10:59:26.6	294.460	0.290	0.180	0.920
2020/01/31 10:59:26.7	294.440	0.300	0.160	0.950
2020/01/31 10:59:26.8	294.430	0.310	0.140	0.980
2020/01/31 10:59:26.9	294.410	0.320	0.120	1.010
2020/01/31 10:59:27.0	294.390	0.330	0.100	1.030
2020/01/31 10:59:27.1	294.370	0.330	0.080	1.050
2020/01/31 10:59:27.2	294.360	0.340	0.050	1.060
2020/01/31 10:59:27.3	294.340	0.340	0.020	1.070
2020/01/31 10:59:27.4	294.320	0.350	-0.000	1.080
2020/01/31 10:59:27.5	294.310	0.350	-0.040	1.080
2020/01/31 10:59:27.6	294.290	0.360	-0.070	1.080
2020/01/31 10:59:27.7	294.270	0.360	-0.110	1.080
2020/01/31 10:59:27.8	294.260	0.360	-0.150	1.070
2020/01/31 10:59:27.9	294.240	0.360	-0.190	1.060
2020/01/31 10:59:28.0	294.230	0.370	-0.230	1.050
2020/01/31 10:59:28.1	294.220	0.370	-0.270	1.030
2020/01/31 10:59:28.2	294.200	0.370	-0.320	1.010
2020/01/31 10:59:28.3	294.190	0.370	-0.360	0.980
2020/01/31 10:59:28.4	294.180	0.370	-0.410	0.960
2020/01/31 10:59:28.5	294.170	0.370	-0.460	0.920
2020/01/31 10:59:28.6	294.160	0.360	-0.510	0.890
2020/01/31 10:59:28.7	294.150	0.360	-0.560	0.860
2020/01/31 10:59:28.8	294.140	0.360	-0.610	0.830
2020/01/31 10:59:28.9	294.140	0.360	-0.660	0.790
2020/01/31 10:59:29.0	294.130	0.350	-0.710	0.750
2020/01/31 10:59:29.1	294.120	0.350	-0.760	0.710
2020/01/31 10:59:29.2	294.110	0.340	-0.810	0.670
2020/01/31 10:59:29.3	294.100	0.330	-0.860	0.630
2020/01/31 10:59:29.4	294.100	0.320	-0.900	0.590
2020/01/31 10:59:29.5	294.080	0.310	-0.950	0.550
2020/01/31 10:59:29.6	294.080	0.300	-0.990	0.510
2020/01/31 10:59:29.7	294.070	0.290	-1.030	0.470
2020/01/31 10:59:29.8	294.060	0.280	-1.070	0.430
2020/01/31 10:59:29.9	294.050	0.270	-1.100	0.390
2020/01/31 10:59:30.0	294.040	0.250	-1.140	0.350
2020/01/31 10:59:30.1	294.030	0.240	-1.160	0.320
2020/01/31 10:59:30.2	294.020	0.220	-1.190	0.280
2020/01/31 10:59:30.3	294.010	0.210	-1.210	0.240
2020/01/31 10:59:30.4	294.000	0.190	-1.230	0.210
2020/01/31 10:59:30.5	293.990	0.170	-1.240	0.170
2020/01/31 10:59:30.6	293.980	0.150	-1.250	0.140
2020/01/31 10:59:30.7	293.980	0.140	-1.260	0.110
2020/01/31 10:59:30.8	293.970	0.120	-1.270	0.080
2020/01/31 10:59:30.9	293.960	0.100	-1.270	0.050
2020/01/31 10:59:31.0	293.950	0.080	-1.260	0.030
2020/01/31 10:59:31.1	293.950	0.050	-1.260	0.000
2020/01/31 10:59:31.2	293.940	0.030	-1.250	-0.020
2020/01/31 10:59:31.3	293.930	0.010	-1.240	-0.040
2020/01/31 10:59:31.4	293.930	-0.010	-1.220	-0.060
2020/01/31 10:59:31.5	293.920	-0.030	-1.200	-0.080
2020/01/31 10:59:31.6	293.920	-0.050	-1.180	-0.090
2020/01/31 10:59:31.7	293.910	-0.070	-1.150	-0.110
2020/01/31 10:59:31.8	293.910	-0.090	-1.120	-0.120
2020/01/31 10:59:31.9	293.910	-0.100	-1.090	-0.130
2020/01/31 10:59:32.0	293.910	-0.120	-1.060	-0.140
2020/01/31 10:59:32.1	293.910	-0.140	-1.020	-0.140
2020/01/31 10:59:32.2	293.910	-0.150	-0.980	-0.150
2020/01/31 10:59:32.3	293.910	-0.170	-0.940	-0.150
2020/01/31 10:59:32.4	293.910	-0.180	-0.900	-0.150
2020/01/31 10:59:32.5	293.910	-0.190	-0.850	-0.150
2020/01/31 10:59:32.6	293.910	-0.210	-0.810	-0.150
2020/01/31 10:59:32.7	293.920	-0.210	-0.760	-0.140
2020/01/31 10:59:32.8	293.920	-0.220	-0.710	-0.130
2020/01/31 10:59:32.9	293.930	-0.230	-0.660	-0.120
2020/01/31 10:59:33.0	293.930	-0.240	-0.610	-0.100
2020/01/31 10:59:33.1	293.940	-0.240	-0.560	-0.090
2020/01/31 10:59:33.2	293.950	-0.240	-0.510	-0.070
2020/01/31 10:59:33.3	293.950	-0.240	-0.460	-0.050
2020/01/31 10:59:33.4	293.960	-0.240	-0.400	-0.030
2020/01/31 10:59:33.5	293.970	-0.240	-0.350	-0.010
2020/01/31 10:59:33.6	293.980	-0.240	-0.300	0.020
2020/01/31 10:59:33.7	293.980	-0.240	-0.250	0.040
2020/01/31 10:59:33.8	293.990	-0.230	-0.190	0.070
2020/01/31 10:59:33.9	294.000	-0.230	-0.140	0.100
2020/01/31 10:59:34.0	294.010	-0.220	-0.090	0.130
2020/01/31 10:59:34.1	294.010	-0.210	-0.040	0.170
2020/01/31 10:59:34.2	294.020	-0.200	0.010	0.200
2020/01/31 10:59:34.3	294.020	-0.200	0.060	0.240
2020/01/31 10:59:34.4	294.030	-0.190	0.110	0.270
2020/01/31 10:59:34.5	294.040	-0.180	0.160	0.310
2020/01/31 10:59:34.6	294.040	-0.170	0.200	0.350
2020/01/31 10:59:34.7	294.050	-0.160	0.250	0.390
2020/01/31 10:59:34.8	294.050	-0.150	0.290	0.430
2020/01/31 10:59:34.9	294.050	-0.140	0.330	0.470
2020/01/31 10:59:35.0	294.060	-0.130	0.380	0.510
2020/01/31 10:59:35.1	294.060	-0.120	0.420	0.550
2020/01/31 10:59:35.2	294.070	-0.110	0.450	0.590
2020/01/31 10:59:35.3	294.070	-0.100	0.490	0.620
2020/01/31 10:59:35.4	294.070	-0.090	0.520	0.660
2020/01/31 10:59:35.5	294.090	-0.090	0.550	0.700
2020/01/31 10:59:35.6	294.090	-0.080	0.580	0.740
2020/01/31 10:59:35.7	294.090	-0.080	0.610	0.770
2020/01/31 10:59:35.8	294.090	-0.070	0.630	0.810
2020/01/31 10:59:35.9	294.100	-0.070	0.650	0.840
2020/01/31 10:59:36.0	294.100	-0.060	0.670	0.870
2020/01/31 10:59:36.1	294.100	-0.060	0.690	0.900
2020/01/31 10:59:36.2	294.100	-0.060	0.700	0.930
2020/01/31 10:59:36.3	294.100	-0.060	0.710	0.960
2020/01/31 10:59:36.4	294.100	-0.060	0.720	0.980
2020/01/31 10:59:36.5	294.110	-0.060	0.730	1.000
2020/01/31 10:59:36.6	294.110	-0.060	0.730	1.020
2020/01/31 10:59:36.7	294.110	-0.060	0.730	1.040
2020/01/31 10:59:36.8	294.110	-0.070	0.730	1.050
2020/01/31 10:59:36.9	294.110	-0.070	0.720	1.060
2020/01/31 10:59:37.0	294.110	-0.070	0.710	1.070
2020/01/31 10:59:37.1	294.100	-0.080	0.700	1.080
2020/01/31 10:59:37.2	294.100	-0.080	0.680	1.080
2020/01/31 10:59:37.3	294.100	-0.080	0.660	1.080
2020/01/31 10:59:37.4	294.100	-0.090	0.640	1.080
2020/01/31 10:59:37.5	294.080	-0.090	0.610	1.070
2020/01/31 10:59:37.6	294.080	-0.100	0.580	1.060
2020/01/31 10:59:37.7	294.080	-0.100	0.550	1.040
2020/01/31 10:59:37.8	294.070	-0.100	0.520	1.030
2020/01/31 10:59:37.9	294.070	-0.100	0.480	1.000
2020/01/31 10:59:38.0	294.070	-0.110	0.450	0.980
2020/01/31 10:59:38.1	294.070	-0.110	0.410	0.950
2020/01/31 10:59:38.2	294.070	-0.110	0.360	0.920
2020/01/31 10:59:38.3	294.060	-0.110	0.320	0.890
2020/01/31 10:59:38.4	294.060	-0.110	0.270	0.860
2020/01/31 10:59:38.5	294.060	-0.100	0.220	0.810
2020/01/31 10:59:38.6	294.060	-0.100	0.170	0.780
2020/01/31 10:59:38.7	294.060	-0.100	0.110	0.730
2020/01/31 10:59:38.8	294.060	-0.090	0.060	0.690
2020/01/31 10:59:38.9	294.050	-0.090	0.000	0.650
2020/01/31 10:59:39.0	294.050	-0.080	-0.050	0.610
2020/01/31 10:59:39.1	294.050	-0.070	-0.110	0.560
2020/01/31 10:59:39.2	294.040	-0.060	-0.170	0.520
2020/01/31 10:59:39.3	294.040	-0.050	-0.230	0.470
2020/01/31 10:59:39.4	294.040	-0.040	-0.290	0.420
2020/01/31 10:59:39.5	294.030	-0.030	-0.360	0.380
2020/01/31 10:59:39.6	294.030	-0.020	-0.420	0.330
2020/01/31 10:59:39.7	294.020	-0.010	-0.480	0.290
2020/01/31 10:59:39.8	294.020	-0.000	-0.540	0.250
2020/01/31 10:59:39.9	294.020	0.010	-0.600	0.200
2020/01/31 10:59:40.0	294.020	0.020	-0.650	0.160
2020/01/31 10:59:40.1	294.020	0.030	-0.710	0.120
2020/01/31 10:59:40.2	294.010	0.040	-0.760	0.080
2020/01/31 10:59:40.3	294.010	0.060	-0.820	0.040
2020/01/31 10:59:40.4	294.010	0.070	-0.870	0.010
2020/01/31 10:59:40.5	294.000	0.080	-0.910	-0.030
2020/01/31 10:59:40.6	294.000	0.090	-0.960	-0.060
2020/01/31 10:59:40.7	294.000	0.100	-1.010	-0.090
2020/01/31 10:59:40.8	294.000	0.110	-1.050	-0.120
2020/01/31 10:59:40.9	294.000	0.110	-1.090	-0.150
2020/01/31 10:59:41.0	294.000	0.120	-1.120	-0.170
2020/01/31 10:59:41.1	294.000	0.130	-1.160	-0.200
2020/01/31 10:59:41.2	294.000	0.130	-1.180	-0.220
2020/01/31 10:59:41.3	294.000	0.140	-1.210	-0.240
2020/01/31 10:59:41.4	294.000	0.150	-1.230	-0.250
2020/01/31 10:59:41.5	294.010	0.150	-1.250	-0.270
2020/01/31 10:59:41.6	294.010	0.150	-1.260	-0.280
2020/01/31 10:59:41.7	294.010	0.160	-1.270	-0.290
2020/01/31 10:59:41.8	294.010	0.160	-1.280	-0.300
2020/01/31 10:59:41.9	294.020	0.160	-1.280	-0.300
2020/01/31 10:59:42.0	294.020	0.160	-1.280	-0.300
2020/01/31 10:59:42.1	294.020	0.160	-1.270	-0.300
2020/01/31 10:59:42.2	294.020	0.160	-1.260	-0.300
2020/01/31 10:59:42.3	294.020	0.160	-1.250	-0.290
2020/01/31 10:59:42.4	294.020	0.160	-1.230	-0.280
2020/01/31 10:59:42.5	294.030	0.150	-1.200	-0.270
2020/01/31 10:59:42.6	294.030	0.150	-1.170	-0.260
2020/01/31 10:59:42.7	294.030	0.150	-1.140	-0.240
2020/01/31 10:59:42.8	294.030	0.140	-1.100	-0.220
2020/01/31 10:59:42.9	294.030	0.140	-1.060	-0.190
2020/01/31 10:59:43.0	294.030	0.130	-1.010	-0.170
2020/01/31 10:59:43.1	294.030	0.130	-0.970	-0.140
2020/01/31 10:59:43.2	294.020	0.120	-0.910	-0.110
2020/01/31 10:59:43.3	294.020	0.120	-0.860	-0.080
2020/01/31 10:59:43.4	294.020	0.110	-0.800	-0.050
2020/01/31 10:59:43.5	294.020	0.100	-0.740	-0.020
2020/01/31 10:59:43.6	294.010	0.100	-0.680	0.020
2020/01/31 10:59:43.7	294.010	0.090	-0.610	0.050
2020/01/31 10:59:43.8	294.000	0.080	-0.550	0.090
2020/01/31 10:59:43.9	294.000	0.070	-0.480	0.120
2020/01/31 10:59:44.0	293.990	0.060	-0.420	0.160
2020/01/31 10:59:44.1	293.990	0.060	-0.350	0.200
2020/01/31 10:59:44.2	293.980	0.050	-0.280	0.230
2020/01/31 10:59:44.3	293.980	0.040	-0.220	0.270
2020/01/31 10:59:44.4	293.970	0.030	-0.160	0.310
2020/01/31 10:59:44.5	293.970	0.020	-0.090	0.340
2020/01/31 10:59:44.6	293.970	0.010	-0.030	0.380
2020/01/31 10:59:44.7	293.960	0.000	0.030	0.420
2020/01/31 10:59:44.8	293.960	-0.010	0.090	0.460
2020/01/31 10:59:44.9	293.950	-0.020	0.140	0.500
2020/01/31 10:59:45.0	293.940	-0.020	0.190	0.540
2020/01/31 10:59:45.1	293.940	-0.030	0.240	0.570
2020/01/31 10:59:45.2	293.930	-0.040	0.290	0.610
2020/01/31 10:59:45.3	293.920	-0.050	0.330	0.660
2020/01/31 10:59:45.4	293.910	-0.060	0.370	0.700
2020/01/31 10:59:45.5	293.910	-0.060	0.410	0.740
2020/01/31 10:59:45.6	293.900	-0.070	0.450	0.780
2020/01/31 10:59:45.7	293.890	-0.080	0.480	0.820
2020/01/31 10:59:45.8	293.880	-0.080	0.510	0.870
2020/01/31 10:59:45.9	293.870	-0.090	0.530	0.910
2020/01/31 10:59:46.0	293.850	-0.100	0.550	0.950
2020/01/31 10:59:46.1	293.840	-0.100	0.570	1.000
2020/01/31 10:59:46.2	293.830	-0.100	0.580	1.040
2020/01/31 10:59:46.3	293.820	-0.110	0.590	1.080
2020/01/31 10:59:46.4	293.810	-0.110	0.600	1.120
2020/01/31 10:59:46.5	293.810	-0.110	0.600	1.150
2020/01/31 10:59:46.6	293.790	-0.120	0.600	1.190
2020/01/31 10:59:46.7	293.780	-0.120	0.600	1.220
2020/01/31 10:59:46.8	293.770	-0.120	0.590	1.240
2020/01/31 10:59:46.9	293.770	-0.120	0.580	1.270
2020/01/31 10:59:47.0	293.760	-0.120	0.560	1.290
2020/01/31 10:59:47.1	293.750	-0.110	0.540	1.310
2020/01/31 10:59:47.2	293.750	-0.110	0.520	1.320
2020/01/31 10:59:47.3	293.740	-0.110	0.500	1.330
2020/01/31 10:59:47.4	293.740	-0.100	0.470	1.340
2020/01/31 10:59:47.5	293.730	-0.100	0.440	1.330
2020/01/31 10:59:47.6	293.720	-0.090	0.410	1.330
2020/01/31 10:59:47.7	293.730	-0.080	0.370	1.320
2020/01/31 10:59:47.8	293.730	-0.080	0.340	1.310
2020/01/31 10:59:47.9	293.730	-0.070	0.300	1.300
2020/01/31 10:59:48.0	293.740	-0.060	0.260	1.280
2020/01/31 10:59:48.1	293.740	-0.050	0.210	1.260
2020/01/31 10:59:48.2	293.750	-0.040	0.170	1.230
2020/01/31 10:59:48.3	293.760	-0.030	0.120	1.200
2020/01/31 10:59:48.4	293.770	-0.010	0.080	1.160
2020/01/31 10:59:48.5	293.780	-0.000	0.030	1.120
2020/01/31 10:59:48.6	293.790	0.010	-0.020	1.080
2020/01/31 10:59:48.7	293.800	0.020	-0.070	1.040
2020/01/31 10:59:48.8	293.820	0.040	-0.120	0.990
2020/01/31 10:59:48.9	293.830	0.050	-0.160	0.950
2020/01/31 10:59:49.0	293.840	0.060	-0.210	0.900
2020/01/31 10:59:49.1	293.860	0.070	-0.260	0.840
2020/01/31 10:59:49.2	293.870	0.090	-0.300	0.790
2020/01/31 10:59:49.3	293.880	0.100	-0.350	0.730
2020/01/31 10:59:49.4	293.900	0.110	-0.390	0.670
2020/01/31 10:59:49.5	293.910	0.120	-0.440	0.620
2020/01/31 10:59:49.6	293.930	0.130	-0.480	0.560
2020/01/31 10:59:49.7	293.950	0.140	-0.520	0.500
2020/01/31 10:59:49.8	293.960	0.150	-0.560	0.440
2020/01/31 10:59:49.9	293.980	0.160	-0.600	0.380
2020/01/31 10:59:50.0	293.990	0.160	-0.630	0.320
2020/01/31 10:59:50.1	294.010	0.170	-0.660	0.260
2020/01/31 10:59:50.2	294.030	0.180	-0.690	0.210
2020/01/31 10:59:50.3	294.040	0.180	-0.720	0.150
2020/01/31 10:59:50.4	294.060	0.180	-0.750	0.100
2020/01/31 10:59:50.5	294.080	0.190	-0.770	0.050
2020/01/31 10:59:50.6	294.090	0.190	-0.790	-0.000
2020/01/31 10:59:50.7	294.110	0.190	-0.800	-0.050
2020/01/31 10:59:50.8	294.120	0.190	-0.820	-0.090
2020/01/31 10:59:50.9	294.130	0.190	-0.830	-0.130
2020/01/31 10:59:51.0	294.150	0.180	-0.830	-0.170
2020/01/31 10:59:51.1	294.160	0.180	-0.840	-0.200
2020/01/31 10:59:51.2	294.170	0.170	-0.840	-0.230
2020/01/31 10:59:51.3	294.180	0.170	-0.840	-0.260
2020/01/31 10:59:51.4	294.190	0.160	-0.830	-0.280
2020/01/31 10:59:51.5	294.200	0.150	-0.830	-0.300
2020/01/31 10:59:51.6	294.200	0.140	-0.820	-0.320
2020/01/31 10:59:51.7	294.210	0.130	-0.800	-0.330
2020/01/31 10:59:51.8	294.210	0.120	-0.790	-0.340
2020/01/31 10:59:51.9	294.210	0.110	-0.770	-0.340
2020/01/31 10:59:52.0	294.210	0.100	-0.750	-0.340
2020/01/31 10:59:52.1	294.200	0.090	-0.730	-0.330
2020/01/31 10:59:52.2	294.200	0.080	-0.700	-0.320
2020/01/31 10:59:52.3	294.190	0.060	-0.680	-0.310
2020/01/31 10:59:52.4	294.180	0.050	-0.650	-0.300
2020/01/31 10:59:52.5	294.170	0.030	-0.620	-0.280
2020/01/31 10:59:52.6	294.160	0.020	-0.590	-0.260
2020/01/31 10:59:52.7	294.140	0.000	-0.560	-0.240
2020/01/31 10:59:52.8	294.130	-0.010	-0.530	-0.220
2020/01/31 10:59:52.9	294.110	-0.030	-0.500	-0.190
2020/01/31 10:59:53.0	294.090	-0.040	-0.470	-0.170
2020/01/31 10:59:53.1	294.070	-0.060	-0.440	-0.140
2020/01/31 10:59:53.2	294.050	-0.070	-0.410	-0.110
2020/01/31 10:59:53.3	294.030	-0.090	-0.380	-0.080
2020/01/31 10:59:53.4	294.010	-0.100	-0.350	-0.050
2020/01/31 10:59:53.5	293.990	-0.120	-0.320	-0.020
2020/01/31 10:59:53.6	293.970	-0.130	-0.290	0.010
2020/01/31 10:59:53.7	293.950	-0.150	-0.260	0.040
2020/01/31 10:59:53.8	293.930	-0.160	-0.230	0.060
2020/01/31 10:59:53.9	293.910	-0.170	-0.210	0.090
2020/01/31 10:59:54.0	293.890	-0.190	-0.190	0.120
2020/01/31 10:59:54.1	293.870	-0.200	-0.160	0.150
2020/01/31 10:59:54.2	293.850	-0.210	-0.140	0.170
2020/01/31 10:59:54.3	293.830	-0.220	-0.120	0.200
2020/01/31 10:59:54.4	293.810	-0.230	-0.100	0.220
2020/01/31 10:59:54.5	293.800	-0.240	-0.090	0.250
2020/01/31 10:59:54.6	293.780	-0.250	-0.070	0.270
2020/01/31 10:59:54.7	293.770	-0.260	-0.060	0.290
2020/01/31 10:59:54.8	293.760	-0.270	-0.040	0.320
2020/01/31 10:59:54.9	293.740	-0.270	-0.030	0.340
2020/01/31 10:59:55.0	293.730	-0.280	-0.020	0.360
2020/01/31 10:59:55.1	293.730	-0.280	-0.010	0.380
2020/01/31 10:59:55.2	293.720	-0.290	-0.010	0.400
2020/01/31 10:59:55.3	293.710	-0.290	0.000	0.420
2020/01/31 10:59:55.4	293.700	-0.300	0.010	0.440
2020/01/31 10:59:55.5	293.700	-0.300	0.010	0.460
2020/01/31 10:59:55.6	293.700	-0.300	0.010	0.480
2020/01/31 10:59:55.7	293.690	-0.300	0.010	0.500
2020/01/31 10:59:55.8	293.690	-0.300	0.020	0.520
2020/01/31 10:59:55.9	293.690	-0.300	0.020	0.540
2020/01/31 10:59:56.0	293.690	-0.300	0.010	0.570
2020/01/31 10:59:56.1	293.690	-0.300	0.010	0.590
2020/01/31 10:59:56.2	293.690	-0.300	0.010	0.610
2020/01/31 10:59:56.3	293.690	-0.290	0.010	0.630
2020/01/31 10:59:56.4	293.690	-0.290	0.000	0.650
2020/01/31 10:59:56.5	293.680	-0.290	0.000	0.660
2020/01/31 10:59:56.6	293.680	-0.280	-0.000	0.680
2020/01/31 10:59:56.7	293.690	-0.280	-0.010	0.700
2020/01/31 10:59:56.8	293.690	-0.270	-0.020	0.720
2020/01/31 10:59:56.9	293.690	-0.260	-0.030	0.730
2020/01/31 10:59:57.0	293.700	-0.250	-0.030	0.740
2020/01/31 10:59:57.1	293.700	-0.250	-0.040	0.750
2020/01/31 10:59:57.2	293.710	-0.240	-0.050	0.760
2020/01/31 10:59:57.3	293.720	-0.230	-0.060	0.770
2020/01/31 10:59:57.4	293.720	-0.220	-0.070	0.780
2020/01/31 10:59:57.5	293.740	-0.210	-0.080	0.780
2020/01/31 10:59:57.6	293.750	-0.200	-0.090	0.780
2020/01/31 10:59:57.7	293.750	-0.190	-0.100	0.780
2020/01/31 10:59:57.8	293.760	-0.180	-0.110	0.780
2020/01/31 10:59:57.9	293.770	-0.160	-0.120	0.780
2020/01/31 10:59:58.0	293.780	-0.150	-0.130	0.780
2020/01/31 10:59:58.1	293.790	-0.140	-0.140	0.770
2020/01/31 10:59:58.2	293.800	-0.120	-0.150	0.770
2020/01/31 10:59:58.3	293.810	-0.110	-0.160	0.770
2020/01/31 10:59:58.4	293.820	-0.100	-0.170	0.760
2020/01/31 10:59:58.5	293.830	-0.080	-0.180	0.750
2020/01/31 10:59:58.6	293.830	-0.070	-0.190	0.750
2020/01/31 10:59:58.7	293.840	-0.050	-0.190	0.740
2020/01/31 10:59:58.8	293.840	-0.040	-0.200	0.740
2020/01/31 10:59:58.9	293.850	-0.020	-0.210	0.730
2020/01/31 10:59:59.0	293.850	-0.010	-0.210	0.730
2020/01/31 10:59:59.1	293.850	0.010	-0.210	0.720
2020/01/31 10:59:59.2	293.850	0.030	-0.220	0.720
2020/01/31 10:59:59.3	293.850	0.040	-0.220	0.720
2020/01/31 10:59:59.4	293.850	0.060	-0.220	0.710
2020/01/31 10:59:59.5	293.840	0.080	-0.220	0.710
2020/01/31 10:59:59.6	293.840	0.090	-0.220	0.710
2020/01/31 10:59:59.7	293.830	0.110	-0.220	0.700
2020/01/31 10:59:59.8	293.820	0.120	-0.220	0.700
2020/01/31 10:59:59.9	293.810	0.140	-0.220	0.700
2020/01/31 11:00:00.0	293.800	0.150	-0.220	0.700
2020/01/31 11:00:00.1	293.790	0.170	-0.220	0.690
2020/01/31 11:00:00.2	293.780	0.180	-0.220	0.690
2020/01/31 11:00:00.3	293.770	0.200	-0.220	0.680
2020/01/31 11:00:00.4	293.760	0.210	-0.220	0.680
2020/01/31 11:00:00.5	293.740	0.220	-0.220	0.670
2020/01/31 11:00:00.6	293.730	0.230	-0.220	0.660
2020/01/31 11:00:00.7	293.720	0.240	-0.220	0.660
2020/01/31 11:00:00.8	293.700	0.260	-0.230	0.650
2020/01/31 11:00:00.9	293.690	0.270	-0.230	0.640
2020/01/31 11:00:01.0	293.670	0.270	-0.230	0.630
2020/01/31 11:00:01.1	293.660	0.280	-0.240	0.610
2020/01/31 11:00:01.2	293.650	0.290	-0.250	0.600
2020/01/31 11:00:01.3	293.630	0.300	-0.250	0.590
2020/01/31 11:00:01.4	293.620	0.300	-0.260	0.570
2020/01/31 11:00:01.5	293.610	0.310	-0.280	0.560
2020/01/31 11:00:01.6	293.590	0.310	-0.290	0.540
2020/01/31 11:00:01.7	293.580	0.310	-0.300	0.530
2020/01/31 11:00:01.8	293.560	0.310	-0.310	0.510
2020/01/31 11:00:01.9	293.550	0.320	-0.330	0.490
2020/01/31 11:00:02.0	293.540	0.320	-0.340	0.480
2020/01/31 11:00:02.1	293.530	0.310	-0.360	0.460
2020/01/31 11:00:02.2	293.520	0.310	-0.370	0.440
2020/01/31 11:00:02.3	293.510	0.310	-0.390	0.420
2020/01/31 11:00:02.4	293.500	0.300	-0.410	0.400
2020/01/31 11:00:02.5	293.490	0.300	-0.420	0.380
2020/01/31 11:00:02.6	293.480	0.290	-0.440	0.350
2020/01/31 11:00:02.7	293.470	0.290	-0.460	0.330
2020/01/31 11:00:02.8	293.470	0.280	-0.470	0.310
2020/01/31 11:00:02.9	293.460	0.270	-0.480	0.290
2020/01/31 11:00:03.0	293.460	0.260	-0.500	0.270
2020/01/31 11:00:03.1	293.460	0.250	-0.510	0.250
2020/01/31 11:00:03.2	293.460	0.240	-0.520	0.230
2020/01/31 11:00:03.3	293.450	0.230	-0.530	0.220
2020/01/31 11:00:03.4	293.450	0.220	-0.530	0.200
2020/01/31 11:00:03.5	293.450	0.210	-0.540	0.180
2020/01/31 11:00:03.6	293.450	0.190	-0.540	0.160
2020/01/31 11:00:03.7	293.450	0.180	-0.540	0.150
2020/01/31 11:00:03.8	293.450	0.170	-0.530	0.140
2020/01/31 11:00:03.9	293.450	0.150	-0.520	0.120
2020/01/31 11:00:04.0	293.450	0.140	-0.510	0.110
2020/01/31 11:00:04.1	293.450	0.120	-0.500	0.100
2020/01/31 11:00:04.2	293.460	0.100	-0.480	0.090
2020/01/31 11:00:04.3	293.460	0.090	-0.460	0.080
2020/01/31 11:00:04.4	293.460	0.070	-0.440	0.080
2020/01/31 11:00:04.5	293.460	0.060	-0.410	0.070
2020/01/31 11:00:04.6	293.460	0.040	-0.380	0.070
2020/01/31 11:00:04.7	293.460	0.020	-0.350	0.060
2020/01/31 11:00:04.8	293.460	0.010	-0.320	0.060
2020/01/31 11:00:04.9	293.460	-0.010	-0.280	0.060
2020/01/31 11:00:05.0	293.460	-0.020	-0.250	0.060
2020/01/31 11:00:05.1	293.470	-0.040	-0.210	0.060
2020/01/31 11:00:05.2	293.470	-0.060	-0.180	0.060
2020/01/31 11:00:05.3	293.470	-0.070	-0.140	0.070
2020/01/31 11:00:05.4	293.470	-0.090	-0.100	0.070
2020/01/31 11:00:05.5	293.480	-0.100	-0.070	0.070
2020/01/31 11:00:05.6	293.480	-0.120	-0.040	0.080
2020/01/31 11:00:05.7	293.480	-0.130	-0.000	0.080
2020/01/31 11:00:05.8	293.480	-0.140	0.020	0.090
2020/01/31 11:00:05.9	293.480	-0.150	0.050	0.090
2020/01/31 11:00:06.0	293.480	-0.160	0.070	0.100
2020/01/31 11:00:06.1	293.480	-0.180	0.090	0.100
2020/01/31 11:00:06.2	293.480	-0.180	0.110	0.110
2020/01/31 11:00:06.3	293.480	-0.190	0.120	0.120
2020/01/31 11:00:06.4	293.470	-0.200	0.120	0.120
2020/01/31 11:00:06.5	293.480	-0.210	0.130	0.130
2020/01/31 11:00:06.6	293.470	-0.210	0.130	0.140
2020/01/31 11:00:06.7	293.470	-0.220	0.120	0.150
2020/01/31 11:00:06.8	293.470	-0.220	0.110	0.160
2020/01/31 11:00:06.9	293.470	-0.220	0.100	0.170
2020/01/31 11:00:07.0	293.460	-0.220	0.090	0.180
2020/01/31 11:00:07.1	293.460	-0.220	0.070	0.190
2020/01/31 11:00:07.2	293.450	-0.220	0.040	0.200
2020/01/31 11:00:07.3	293.450	-0.220	0.020	0.220
2020/01/31 11:00:07.4	293.450	-0.210	-0.010	0.230
2020/01/31 11:00:07.5	293.440	-0.210	-0.040	0.250
2020/01/31 11:00:07.6	293.430	-0.210	-0.070	0.260
2020/01/31 11:00:07.7	293.430	-0.200	-0.110	0.280
2020/01/31 11:00:07.8	293.420	-0.190	-0.140	0.300
2020/01/31 11:00:07.9	293.420	-0.190	-0.180	0.320
2020/01/31 11:00:08.0	293.410	-0.180	-0.220	0.340
2020/01/31 11:00:08.1	293.410	-0.170	-0.250	0.360
2020/01/31 11:00:08.2	293.400	-0.160	-0.290	0.380
2020/01/31 11:00:08.3	293.390	-0.150	-0.330	0.400
2020/01/31 11:00:08.4	293.390	-0.150	-0.360	0.430
2020/01/31 11:00:08.5	293.380	-0.140	-0.400	0.450
2020/01/31 11:00:08.6	293.370	-0.130	-0.430	0.470
2020/01/31 11:00:08.7	293.370	-0.120	-0.470	0.500
2020/01/31 11:00:08.8	293.360	-0.110	-0.500	0.520
2020/01/31 11:00:08.9	293.360	-0.100	-0.520	0.550
2020/01/31 11:00:09.0	293.350	-0.100	-0.550	0.570
2020/01/31 11:00:09.1	293.350	-0.090	-0.570	0.600
2020/01/31 11:00:09.2	293.350	-0.080	-0.590	0.620
2020/01/31 11:00:09.3	293.350	-0.080	-0.600	0.650
2020/01/31 11:00:09.4	293.340	-0.070	-0.610	0.670
2020/01/31 11:00:09.5	293.350	-0.070	-0.610	0.690
2020/01/31 11:00:09.6	293.350	-0.070	-0.620	0.720
2020/01/31 11:00:09.7	293.350	-0.060	-0.620	0.740
2020/01/31 11:00:09.8	293.350	-0.060	-0.620	0.760
2020/01/31 11:00:09.9	293.350	-0.060	-0.610	0.780
2020/01/31 11:00:10.0	293.350	-0.060	-0.600	0.800
2020/01/31 11:00:10.1	293.340	-0.060	-0.590	0.820
2020/01/31 11:00:10.2	293.340	-0.060	-0.570	0.850
2020/01/31 11:00:10.3	293.340	-0.070	-0.550	0.870
2020/01/31 11:00:10.4	293.340	-0.070	-0.520	0.890
2020/01/31 11:00:10.5	293.340	-0.070	-0.500	0.910
2020/01/31 11:00:10.6	293.330	-0.080	-0.470	0.930
2020/01/31 11:00:10.7	293.330	-0.080	-0.430	0.960
2020/01/31 11:00:10.8	293.320	-0.090	-0.390	0.980
2020/01/31 11:00:10.9	293.310	-0.090	-0.350	1.000
2020/01/31 11:00:11.0	293.300	-0.100	-0.310	1.020
2020/01/31 11:00:11.1	293.290	-0.100	-0.270	1.050
2020/01/31 11:00:11.2	293.280	-0.110	-0.220	1.070
2020/01/31 11:00:11.3	293.260	-0.120	-0.170	1.090
2020/01/31 11:00:11.4	293.250	-0.120	-0.130	1.110
2020/01/31 11:00:11.5	293.230	-0.130	-0.080	1.130
2020/01/31 11:00:11.6	293.210	-0.130	-0.030	1.160
2020/01/31 11:00:11.7	293.190	-0.140	0.020	1.180
2020/01/31 11:00:11.8	293.170	-0.140	0.060	1.200
2020/01/31 11:00:11.9	293.150	-0.150	0.110	1.220
2020/01/31 11:00:12.0	293.120	-0.150	0.150	1.250
2020/01/31 11:00:12.1	293.090	-0.150	0.190	1.270
2020/01/31 11:00:12.2	293.060	-0.150	0.230	1.290
2020/01/31 11:00:12.3	293.040	-0.150	0.260	1.300
2020/01/31 11:00:12.4	293.010	-0.150	0.300	1.320
2020/01/31 11:00:12.5	292.980	-0.150	0.320	1.340
2020/01/31 11:00:12.6	292.950	-0.150	0.350	1.350
2020/01/31 11:00:12.7	292.920	-0.140	0.360	1.360
2020/01/31 11:00:12.8	292.890	-0.140	0.380	1.370
2020/01/31 11:00:12.9	292.860	-0.130	0.390	1.380
2020/01/31 11:00:13.0	292.830	-0.120	0.390	1.390
2020/01/31 11:00:13.1	292.800	-0.110	0.390	1.390
2020/01/31 11:00:13.2	292.770	-0.100	0.390	1.390
2020/01/31 11:00:13.3	292.740	-0.090	0.380	1.380
2020/01/31 11:00:13.4	292.710	-0.070	0.360	1.370
2020/01/31 11:00:13.5	292.680	-0.060	0.340	1.350
2020/01/31 11:00:13.6	292.660	-0.040	0.310	1.340
2020/01/31 11:00:13.7	292.630	-0.030	0.280	1.320
2020/01/31 11:00:13.8	292.610	-0.010	0.240	1.300
2020/01/31 11:00:13.9	292.590	0.010	0.200	1.270
2020/01/31 11:00:14.0	292.580	0.030	0.160	1.240
2020/01/31 11:00:14.1	292.560	0.050	0.110	1.210
2020/01/31 11:00:14.2	292.550	0.070	0.060	1.170
2020/01/31 11:00:14.3	292.540	0.090	0.000	1.130
2020/01/31 11:00:14.4	292.530	0.110	-0.060	1.090
2020/01/31 11:00:14.5	292.530	0.130	-0.120	1.050
2020/01/31 11:00:14.6	292.520	0.160	-0.180	1.000
2020/01/31 11:00:14.7	292.520	0.180	-0.250	0.960
2020/01/31 11:00:14.8	292.520	0.200	-0.310	0.910
2020/01/31 11:00:14.9	292.520	0.220	-0.380	0.860
2020/01/31 11:00:15.0	292.530	0.240	-0.440	0.810
2020/01/31 11:00:15.1	292.530	0.260	-0.510	0.760
2020/01/31 11:00:15.2	292.540	0.280	-0.570	0.710
2020/01/31 11:00:15.3	292.550	0.300	-0.630	0.660
2020/01/31 11:00:15.4	292.560	0.310	-0.690	0.610
2020/01/31 11:00:15.5	292.580	0.330	-0.750	0.560
2020/01/31 11:00:15.6	292.590	0.340	-0.800	0.520
2020/01/31 11:00:15.7	292.600	0.350	-0.850	0.470
2020/01/31 11:00:15.8	292.620	0.370	-0.900	0.420
2020/01/31 11:00:15.9	292.630	0.370	-0.940	0.380
2020/01/31 11:00:16.0	292.650	0.380	-0.980	0.330
2020/01/31 11:00:16.1	292.660	0.390	-1.020	0.290
2020/01/31 11:00:16.2	292.680	0.400	-1.050	0.250
2020/01/31 11:00:16.3	292.700	0.400	-1.070	0.210
2020/01/31 11:00:16.4	292.720	0.400	-1.090	0.170
2020/01/31 11:00:16.5	292.740	0.400	-1.110	0.130
2020/01/31 11:00:16.6	292.760	0.400	-1.120	0.100
2020/01/31 11:00:16.7	292.780	0.400	-1.120	0.070
2020/01/31 11:00:16.8	292.800	0.390	-1.120	0.050
2020/01/31 11:00:16.9	292.810	0.380	-1.110	0.020
2020/01/31 11:00:17.0	292.830	0.370	-1.100	-0.000
2020/01/31 11:00:17.1	292.850	0.360	-1.080	-0.020
2020/01/31 11:00:17.2	292.870	0.350	-1.060	-0.040
2020/01/31 11:00:17.3	292.890	0.340	-1.040	-0.050
2020/01/31 11:00:17.4	292.910	0.320	-1.010	-0.060
2020/01/31 11:00:17.5	292.930	0.300	-0.970	-0.060
2020/01/31 11:00:17.6	292.940	0.290	-0.940	-0.070
2020/01/31 11:00:17.7	292.960	0.270	-0.890	-0.070
2020/01/31 11:00:17.8	292.970	0.240	-0.850	-0.060
2020/01/31 11:00:17.9	292.990	0.220	-0.800	-0.060
2020/01/31 11:00:18.0	293.000	0.200	-0.750	-0.040
2020/01/31 11:00:18.1	293.010	0.170	-0.700	-0.030
2020/01/31 11:00:18.2	293.030	0.150	-0.650	-0.020
2020/01/31 11:00:18.3	293.040	0.120	-0.590	0.000
2020/01/31 11:00:18.4	293.050	0.090	-0.530	0.020
2020/01/31 11:00:18.5	293.070	0.070	-0.480	0.040
2020/01/31 11:00:18.6	293.080	0.040	-0.420	0.060
2020/01/31 11:00:18.7	293.090	0.010	-0.360	0.090
2020/01/31 11:00:18.8	293.100	-0.020	-0.300	0.110
2020/01/31 11:00:18.9	293.100	-0.050	-0.240	0.140
2020/01/31 11:00:19.0	293.110	-0.080	-0.180	0.160
2020/01/31 11:00:19.1	293.120	-0.110	-0.120	0.190
2020/01/31 11:00:19.2	293.130	-0.130	-0.060	0.220
2020/01/31 11:00:19.3	293.130	-0.160	-0.000	0.250
2020/01/31 11:00:19.4	293.140	-0.190	0.050	0.270
2020/01/31 11:00:19.5	293.140	-0.210	0.110	0.300
2020/01/31 11:00:19.6	293.150	-0.240	0.160	0.330
2020/01/31 11:00:19.7	293.150	-0.260	0.210	0.360
2020/01/31 11:00:19.8	293.150	-0.290	0.250	0.390
2020/01/31 11:00:19.9	293.150	-0.310	0.300	0.420
2020/01/31 11:00:20.0	293.150	-0.330	0.340	0.450
2020/01/31 11:00:20.1	293.150	-0.350	0.380	0.470
2020/01/31 11:00:20.2	293.150	-0.370	0.410	0.500
2020/01/31 11:00:20.3	293.150	-0.390	0.450	0.530
2020/01/31 11:00:20.4	293.150	-0.400	0.480	0.560
2020/01/31 11:00:20.5	293.140	-0.420	0.500	0.580
2020/01/31 11:00:20.6	293.130	-0.430	0.520	0.610
2020/01/31 11:00:20.7	293.130	-0.440	0.550	0.630
2020/01/31 11:00:20.8	293.130	-0.450	0.560	0.660
2020/01/31 11:00:20.9	293.130	-0.450	0.570	0.680
2020/01/31 11:00:21.0	293.120	-0.460	0.580	0.700
2020/01/31 11:00:21.1	293.120	-0.460	0.590	0.720
2020/01/31 11:00:21.2	293.110	-0.460	0.590	0.740
2020/01/31 11:00:21.3	293.110	-0.460	0.590	0.760
2020/01/31 11:00:21.4	293.110	-0.460	0.590	0.780
2020/01/31 11:00:21.5	293.100	-0.460	0.580	0.790
2020/01/31 11:00:21.6	293.090	-0.450	0.570	0.800
2020/01/31 11:00:21.7	293.080	-0.440	0.560	0.820
2020/01/31 11:00:21.8	293.080	-0.430	0.540	0.830
2020/01/31 11:00:21.9	293.070	-0.420	0.520	0.840
2020/01/31 11:00:22.0	293.060	-0.410	0.500	0.850
2020/01/31 11:00:22.1	293.050	-0.400	0.470	0.860
2020/01/31 11:00:22.2	293.040	-0.380	0.440	0.870
2020/01/31 11:00:22.3	293.020	-0.370	0.420	0.880
2020/01/31 11:00:22.4	293.010	-0.350	0.380	0.880
2020/01/31 11:00:22.5	293.000	-0.330	0.350	0.890
2020/01/31 11:00:22.6	292.980	-0.310	0.320	0.900
2020/01/31 11:00:22.7	292.960	-0.290	0.280	0.900
2020/01/31 11:00:22.8	292.940	-0.270	0.250	0.900
2020/01/31 11:00:22.9	292.920	-0.250	0.210	0.910
2020/01/31 11:00:23.0	292.890	-0.230	0.170	0.910
2020/01/31 11:00:23.1	292.870	-0.200	0.130	0.910
2020/01/31 11:00:23.2	292.840	-0.180	0.090	0.910
2020/01/31 11:00:23.3	292.810	-0.160	0.040	0.910
2020/01/31 11:00:23.4	292.780	-0.140	0.000	0.910
2020/01/31 11:00:23.5	292.740	-0.110	-0.040	0.910
2020/01/31 11:00:23.6	292.710	-0.090	-0.090	0.900
2020/01/31 11:00:23.7	292.670	-0.070	-0.130	0.900
2020/01/31 11:00:23.8	292.640	-0.050	-0.180	0.890
2020/01/31 11:00:23.9	292.610	-0.020	-0.230	0.880
2020/01/31 11:00:24.0	292.580	-0.000	-0.280	0.870
2020/01/31 11:00:24.1	292.550	0.020	-0.320	0.860
2020/01/31 11:00:24.2	292.520	0.040	-0.370	0.850
2020/01/31 11:00:24.3	292.490	0.060	-0.420	0.830
2020/01/31 11:00:24.4	292.460	0.080	-0.470	0.820
2020/01/31 11:00:24.5	292.430	0.100	-0.520	0.800
2020/01/31 11:00:24.6	292.400	0.120	-0.560	0.780
2020/01/31 11:00:24.7	292.380	0.130	-0.610	0.760
2020/01/31 11:00:24.8	292.350	0.150	-0.650	0.740
2020/01/31 11:00:24.9	292.320	0.170	-0.700	0.720
2020/01/31 11:00:25.0	292.300	0.180	-0.740	0.700
2020/01/31 11:00:25.1	292.270	0.190	-0.770	0.670
2020/01/31 11:00:25.2	292.240	0.200	-0.810	0.650
2020/01/31 11:00:25.3	292.220	0.220	-0.840	0.620
2020/01/31 11:00:25.4	292.200	0.230	-0.870	0.600
2020/01/31 11:00:25.5	292.180	0.230	-0.900	0.570
2020/01/31 11:00:25.6	292.160	0.240	-0.930	0.550
2020/01/31 11:00:25.7	292.140	0.250	-0.950	0.520
2020/01/31 11:00:25.8	292.120	0.250	-0.960	0.490
2020/01/31 11:00:25.9	292.100	0.250	-0.970	0.470
2020/01/31 11:00:26.0	292.080	0.260	-0.980	0.440
2020/01/31 11:00:26.1	292.070	0.260	-0.990	0.410
2020/01/31 11:00:26.2	292.060	0.250	-0.990	0.390
2020/01/31 11:00:26.3	292.050	0.250	-0.990	0.360
2020/01/31 11:00:26.4	292.040	0.250	-0.980	0.330
2020/01/31 11:00:26.5	292.050	0.240	-0.970	0.300
2020/01/31 11:00:26.6	292.040	0.240	-0.950	0.280
2020/01/31 11:00:26.7	292.040	0.230	-0.940	0.260
2020/01/31 11:00:26.8	292.050	0.220	-0.920	0.230
2020/01/31 11:00:26.9	292.050	0.210	-0.890	0.210
2020/01/31 11:00:27.0	292.060	0.200	-0.870	0.190
2020/01/31 11:00:27.1	292.070	0.190	-0.840	0.160
2020/01/31 11:00:27.2	292.080	0.180	-0.810	0.140
2020/01/31 11:00:27.3	292.090	0.170	-0.780	0.120
2020/01/31 11:00:27.4	292.110	0.160	-0.740	0.100
2020/01/31 11:00:27.5	292.130	0.140	-0.710	0.080
2020/01/31 11:00:27.6	292.150	0.130	-0.670	0.070
2020/01/31 11:00:27.7	292.180	0.120	-0.640	0.050
2020/01/31 11:00:27.8	292.200	0.100	-0.600	0.030
2020/01/31 11:00:27.9	292.230	0.090	-0.560	0.010
2020/01/31 11:00:28.0	292.260	0.080	-0.520	-0.000
2020/01/31 11:00:28.1	292.290	0.070	-0.480	-0.020
2020/01/31 11:00:28.2	292.320	0.050	-0.440	-0.030
2020/01/31 11:00:28.3	292.350	0.040	-0.400	-0.040
2020/01/31 11:00:28.4	292.390	0.030	-0.370	-0.050
2020/01/31 11:00:28.5	292.420	0.020	-0.330	-0.060
2020/01/31 11:00:28.6	292.460	0.010	-0.300	-0.070
2020/01/31 11:00:28.7	292.500	-0.000	-0.260	-0.070
2020/01/31 11:00:28.8	292.530	-0.010	-0.230	-0.070
2020/01/31 11:00:28.9	292.570	-0.020	-0.200	-0.070
2020/01/31 11:00:29.0	292.610	-0.020	-0.170	-0.070
2020/01/31 11:00:29.1	292.650	-0.030	-0.140	-0.070
2020/01/31 11:00:29.2	292.680	-0.030	-0.120	-0.060
2020/01/31 11:00:29.3	292.720	-0.030	-0.100	-0.050
2020/01/31 11:00:29.4	292.760	-0.030	-0.080	-0.040
2020/01/31 11:00:29.5	292.800	-0.030	-0.060	-0.020
2020/01/31 11:00:29.6	292.830	-0.030	-0.040	-0.010
2020/01/31 11:00:29.7	292.870	-0.030	-0.030	0.010
2020/01/31 11:00:29.8	292.900	-0.020	-0.010	0.030
2020/01/31 11:00:29.9	292.940	-0.020	-0.000	0.060
2020/01/31 11:00:30.0	292.970	-0.010	0.010	0.080
2020/01/31 11:00:30.1	293.000	-0.000	0.010	0.110
2020/01/31 11:00:30.2	293.030	0.010	0.020	0.140
2020/01/31 11:00:30.3	293.060	0.020	0.020	0.170
2020/01/31 11:00:30.4	293.090	0.030	0.020	0.210
2020/01/31 11:00:30.5	293.110	0.040	0.020	0.240
2020/01/31 11:00:30.6	293.140	0.050	0.020	0.280
2020/01/31 11:00:30.7	293.160	0.060	0.020	0.310
2020/01/31 11:00:30.8	293.180	0.080	0.020	0.350
2020/01/31 11:00:30.9	293.200	0.090	0.010	0.390
2020/01/31 11:00:31.0	293.210	0.110	0.000	0.430
2020/01/31 11:00:31.1	293.230	0.120	-0.000	0.470
2020/01/31 11:00:31.2	293.240	0.130	-0.010	0.510
2020/01/31 11:00:31.3	293.250	0.150	-0.020	0.550
2020/01/31 11:00:31.4	293.260	0.160	-0.030	0.590
2020/01/31 11:00:31.5	293.270	0.170	-0.030	0.630
2020/01/31 11:00:31.6	293.270	0.190	-0.040	0.670
2020/01/31 11:00:31.7	293.270	0.200	-0.050	0.710
2020/01/31 11:00:31.8	293.270	0.210	-0.060	0.740
2020/01/31 11:00:31.9	293.260	0.220	-0.060	0.780
2020/01/31 11:00:32.0	293.260	0.220	-0.070	0.820
2020/01/31 11:00:32.1	293.250	0.230	-0.070	0.850
2020/01/31 11:00:32.2	293.240	0.230	-0.080	0.890
2020/01/31 11:00:32.3	293.220	0.240	-0.080	0.920
2020/01/31 11:00:32.4	293.210	0.240	-0.080	0.950
2020/01/31 11:00:32.5	293.180	0.240	-0.080	0.980
2020/01/31 11:00:32.6	293.160	0.230	-0.080	1.010
2020/01/31 11:00:32.7	293.140	0.230	-0.080	1.040
2020/01/31 11:00:32.8	293.110	0.220	-0.070	1.060
2020/01/31 11:00:32.9	293.090	0.210	-0.070	1.080
2020/01/31 11:00:33.0	293.060	0.200	-0.070	1.100
2020/01/31 11:00:33.1	293.030	0.190	-0.060	1.110
2020/01/31 11:00:33.2	292.990	0.170	-0.050	1.120
2020/01/31 11:00:33.3	292.960	0.150	-0.050	1.130
2020/01/31 11:00:33.4	292.930	0.130	-0.040	1.130
2020/01/31 11:00:33.5	292.900	0.110	-0.030	1.120
2020/01/31 11:00:33.6	292.860	0.080	-0.030	1.120
2020/01/31 11:00:33.7	292.830	0.060	-0.020	1.100
2020/01/31 11:00:33.8	292.790	0.030	-0.020	1.090
2020/01/31 11:00:33.9	292.760	0.000	-0.010	1.060
2020/01/31 11:00:34.0	292.720	-0.030	-0.010	1.030
2020/01/31 11:00:34.1	292.690	-0.060	-0.010	1.000
2020/01/31 11:00:34.2	292.660	-0.090	-0.010	0.970
2020/01/31 11:00:34.3	292.630	-0.120	-0.010	0.920
2020/01/31 11:00:34.4	292.600	-0.150	-0.010	0.880
2020/01/31 11:00:34.5	292.580	-0.190	-0.020	0.830
2020/01/31 11:00:34.6	292.550	-0.220	-0.020	0.780
2020/01/31 11:00:34.7	292.530	-0.250	-0.030	0.730
2020/01/31 11:00:34.8	292.500	-0.280	-0.040	0.670
2020/01/31 11:00:34.9	292.480	-0.310	-0.050	0.610
2020/01/31 11:00:35.0	292.460	-0.340	-0.060	0.550
2020/01/31 11:00:35.1	292.450	-0.370	-0.070	0.490
2020/01/31 11:00:35.2	292.430	-0.400	-0.080	0.420
2020/01/31 11:00:35.3	292.420	-0.430	-0.100	0.360
2020/01/31 11:00:35.4	292.400	-0.450	-0.110	0.300
2020/01/31 11:00:35.5	292.390	-0.480	-0.130	0.230
2020/01/31 11:00:35.6	292.380	-0.500	-0.150	0.170
2020/01/31 11:00:35.7	292.370	-0.520	-0.170	0.110
2020/01/31 11:00:35.8	292.370	-0.540	-0.180	0.050
2020/01/31 11:00:35.9	292.360	-0.550	-0.200	-0.010
2020/01/31 11:00:36.0	292.360	-0.570	-0.220	-0.070
2020/01/31 11:00:36.1	292.360	-0.580	-0.240	-0.120
2020/01/31 11:00:36.2	292.350	-0.590	-0.260	-0.180
2020/01/31 11:00:36.3	292.350	-0.590	-0.280	-0.230
2020/01/31 11:00:36.4	292.350	-0.600	-0.300	-0.270
2020/01/31 11:00:36.5	292.350	-0.600	-0.320	-0.320
2020/01/31 11:00:36.6	292.350	-0.600	-0.340	-0.350
2020/01/31 11:00:36.7	292.360	-0.600	-0.350	-0.390
2020/01/31 11:00:36.8	292.360	-0.590	-0.370	-0.420
2020/01/31 11:00:36.9	292.360	-0.590	-0.380	-0.450
2020/01/31 11:00:37.0	292.360	-0.580	-0.400	-0.470
2020/01/31 11:00:37.1	292.370	-0.570	-0.410	-0.480
2020/01/31 11:00:37.2	292.370	-0.560	-0.420	-0.500
2020/01/31 11:00:37.3	292.370	-0.540	-0.430	-0.500
2020/01/31 11:00:37.4	292.370	-0.530	-0.430	-0.500
2020/01/31 11:00:37.5	292.370	-0.510	-0.440	-0.500
2020/01/31 11:00:37.6	292.370	-0.490	-0.440	-0.490
2020/01/31 11:00:37.7	292.370	-0.470	-0.440	-0.480
2020/01/31 11:00:37.8	292.370	-0.450	-0.440	-0.460
2020/01/31 11:00:37.9	292.380	-0.430	-0.440	-0.440
2020/01/31 11:00:38.0	292.380	-0.400	-0.440	-0.420
2020/01/31 11:00:38.1	292.390	-0.380	-0.430	-0.390
2020/01/31 11:00:38.2	292.390	-0.350	-0.430	-0.360
2020/01/31 11:00:38.3	292.400	-0.320	-0.420	-0.330
2020/01/31 11:00:38.4	292.400	-0.290	-0.410	-0.290
2020/01/31 11:00:38.5	292.420	-0.260	-0.410	-0.250
2020/01/31 11:00:38.6	292.420	-0.230	-0.400	-0.210
2020/01/31 11:00:38.7	292.440	-0.200	-0.390	-0.170
2020/01/31 11:00:38.8	292.450	-0.170	-0.380	-0.120
2020/01/31 11:00:38.9	292.460	-0.130	-0.360	-0.070
2020/01/31 11:00:39.0	292.470	-0.100	-0.350	-0.020
2020/01/31 11:00:39.1	292.490	-0.070	-0.340	0.030
2020/01/31 11:00:39.2	292.500	-0.030	-0.330	0.080
2020/01/31 11:00:39.3	292.520	0.000	-0.320	0.130
2020/01/31 11:00:39.4	292.540	0.040	-0.310	0.190
2020/01/31 11:00:39.5	292.550	0.070	-0.290	0.250
2020/01/31 11:00:39.6	292.560	0.110	-0.280	0.300
2020/01/31 11:00:39.7	292.580	0.140	-0.270	0.360
2020/01/31 11:00:39.8	292.600	0.180	-0.260	0.420
2020/01/31 11:00:39.9	292.620	0.210	-0.260	0.480
2020/01/31 11:00:40.0	292.630	0.250	-0.250	0.540
2020/01/31 11:00:40.1	292.650	0.280	-0.240	0.600
2020/01/31 11:00:40.2	292.670	0.320	-0.240	0.660
2020/01/31 11:00:40.3	292.680	0.350	-0.230	0.720
2020/01/31 11:00:40.4	292.700	0.380	-0.230	0.780
2020/01/31 11:00:40.5	292.710	0.420	-0.230	0.840
2020/01/31 11:00:40.6	292.730	0.450	-0.230	0.900
2020/01/31 11:00:40.7	292.750	0.480	-0.230	0.950
2020/01/31 11:00:40.8	292.770	0.500	-0.240	1.000
2020/01/31 11:00:40.9	292.780	0.530	-0.240	1.050
2020/01/31 11:00:41.0	292.800	0.560	-0.240	1.100
2020/01/31 11:00:41.1	292.820	0.580	-0.250	1.150
2020/01/31 11:00:41.2	292.840	0.600	-0.250	1.190
2020/01/31 11:00:41.3	292.860	0.620	-0.260	1.230
2020/01/31 11:00:41.4	292.880	0.640	-0.270	1.260
2020/01/31 11:00:41.5	292.910	0.660	-0.270	1.290
2020/01/31 11:00:41.6	292.930	0.670	-0.280	1.320
2020/01/31 11:00:41.7	292.950	0.680	-0.290	1.340
2020/01/31 11:00:41.8	292.970	0.700	-0.290	1.360
2020/01/31 11:00:41.9	292.990	0.700	-0.300	1.380
2020/01/31 11:00:42.0	293.020	0.710	-0.310	1.390
2020/01/31 11:00:42.1	293.040	0.710	-0.320	1.400
2020/01/31 11:00:42.2	293.060	0.720	-0.320	1.410
2020/01/31 11:00:42.3	293.080	0.720	-0.330	1.410
2020/01/31 11:00:42.4	293.110	0.710	-0.330	1.410
2020/01/31 11:00:42.5	293.120	0.710	-0.340	1.410
2020/01/31 11:00:42.6	293.140	0.700	-0.340	1.400
2020/01/31 11:00:42.7	293.160	0.690	-0.340	1.390
2020/01/31 11:00:42.8	293.180	0.680	-0.350	1.390
2020/01/31 11:00:42.9	293.200	0.670	-0.350	1.370
2020/01/31 11:00:43.0	293.220	0.660	-0.350	1.360
2020/01/31 11:00:43.1	293.240	0.640	-0.350	1.340
2020/01/31 11:00:43.2	293.250	0.620	-0.350	1.320
2020/01/31 11:00:43.3	293.270	0.600	-0.350	1.300
2020/01/31 11:00:43.4	293.280	0.580	-0.350	1.270
2020/01/31 11:00:43.5	293.300	0.560	-0.350	1.240
2020/01/31 11:00:43.6	293.310	0.530	-0.350	1.210
2020/01/31 11:00:43.7	293.320	0.510	-0.350	1.180
2020/01/31 11:00:43.8	293.330	0.480	-0.350	1.150
2020/01/31 11:00:43.9	293.340	0.450	-0.350	1.110
2020/01/31 11:00:44.0	293.340	0.430	-0.340	1.070
2020/01/31 11:00:44.1	293.350	0.400	-0.340	1.030
2020/01/31 11:00:44.2	293.350	0.370	-0.340	0.990
2020/01/31 11:00:44.3	293.350	0.340	-0.340	0.940
2020/01/31 11:00:44.4	293.350	0.310	-0.340	0.900
2020/01/31 11:00:44.5	293.360	0.270	-0.340	0.850
2020/01/31 11:00:44.6	293.360	0.240	-0.340	0.800
2020/01/31 11:00:44.7	293.360	0.210	-0.330	0.750
2020/01/31 11:00:44.8	293.350	0.180	-0.330	0.690
2020/01/31 11:00:44.9	293.350	0.150	-0.330	0.640
2020/01/31 11:00:45.0	293.340	0.110	-0.330	0.590
2020/01/31 11:00:45.1	293.340	0.080	-0.340	0.530
2020/01/31 11:00:45.2	293.330	0.050	-0.340	0.480
2020/01/31 11:00:45.3	293.320	0.020	-0.340	0.420
2020/01/31 11:00:45.4	293.320	-0.010	-0.340	0.360
2020/01/31 11:00:45.5	293.300	-0.040	-0.340	0.300
2020/01/31 11:00:45.6	293.300	-0.070	-0.340	0.250
2020/01/31 11:00:45.7	293.290	-0.100	-0.340	0.190
2020/01/31 11:00:45.8	293.280	-0.130	-0.340	0.130
2020/01/31 11:00:45.9	293.270	-0.160	-0.340	0.080
2020/01/31 11:00:46.0	293.260	-0.190	-0.340	0.030
2020/01/31 11:00:46.1	293.250	-0.220	-0.340	-0.020
2020/01/31 11:00:46.2	293.240	-0.240	-0.340	-0.070
2020/01/31 11:00:46.3	293.230	-0.270	-0.340	-0.120
2020/01/31 11:00:46.4	293.210	-0.290	-0.330	-0.170
2020/01/31 11:00:46.5	293.190	-0.320	-0.320	-0.220
2020/01/31 11:00:46.6	293.180	-0.340	-0.320	-0.260
2020/01/31 11:00:46.7	293.170	-0.370	-0.300	-0.300
2020/01/31 11:00:46.8	293.150	-0.390	-0.290	-0.330
2020/01/31 11:00:46.9	293.140	-0.410	-0.280	-0.360
2020/01/31 11:00:47.0	293.120	-0.430	-0.260	-0.390
2020/01/31 11:00:47.1	293.110	-0.450	-0.240	-0.420
2020/01/31 11:00:47.2	293.090	-0.470	-0.220	-0.440
2020/01/31 11:00:47.3	293.070	-0.490	-0.200	-0.460
2020/01/31 11:00:47.4	293.060	-0.500	-0.170	-0.470
2020/01/31 11:00:47.5	293.030	-0.520	-0.150	-0.480
2020/01/31 11:00:47.6	293.010	-0.530	-0.120	-0.490
2020/01/31 11:00:47.7	292.990	-0.550	-0.090	-0.490
2020/01/31 11:00:47.8	292.970	-0.560	-0.060	-0.490
2020/01/31 11:00:47.9	292.960	-0.570	-0.030	-0.480
2020/01/31 11:00:48.0	292.940	-0.580	-0.000	-0.470
2020/01/31 11:00:48.1	292.910	-0.590	0.030	-0.460
2020/01/31 11:00:48.2	292.890	-0.600	0.060	-0.450
2020/01/31 11:00:48.3	292.870	-0.610	0.090	-0.430
2020/01/31 11:00:48.4	292.860	-0.620	0.110	-0.410
2020/01/31 11:00:48.5	292.830	-0.620	0.140	-0.390
2020/01/31 11:00:48.6	292.820	-0.630	0.170	-0.370
2020/01/31 11:00:48.7	292.800	-0.630	0.190	-0.340
2020/01/31 11:00:48.8	292.780	-0.630	0.210	-0.320
2020/01/31 11:00:48.9	292.770	-0.630	0.220	-0.290
2020/01/31 11:00:49.0	292.760	-0.630	0.240	-0.260
2020/01/31 11:00:49.1	292.740	-0.630	0.250	-0.230
2020/01/31 11:00:49.2	292.730	-0.630	0.260	-0.200
2020/01/31 11:00:49.3	292.720	-0.620	0.270	-0.170
2020/01/31 11:00:49.4	292.710	-0.620	0.270	-0.140
2020/01/31 11:00:49.5	292.710	-0.610	0.270	-0.110
2020/01/31 11:00:49.6	292.700	-0.600	0.260	-0.080
2020/01/31 11:00:49.7	292.700	-0.590	0.250	-0.040
2020/01/31 11:00:49.8	292.690	-0.580	0.240	-0.010
2020/01/31 11:00:49.9	292.690	-0.560	0.220	0.020
2020/01/31 11:00:50.0	292.690	-0.550	0.210	0.060
2020/01/31 11:00:50.1	292.690	-0.530	0.180	0.090
2020/01/31 11:00:50.2	292.690	-0.510	0.160	0.130
2020/01/31 11:00:50.3	292.690	-0.490	0.130	0.160
2020/01/31 11:00:50.4	292.700	-0.470	0.100	0.190
2020/01/31 11:00:50.5	292.700	-0.440	0.060	0.230
2020/01/31 11:00:50.6	292.710	-0.420	0.020	0.260
2020/01/31 11:00:50.7	292.710	-0.390	-0.020	0.290
2020/01/31 11:00:50.8	292.720	-0.360	-0.060	0.320
2020/01/31 11:00:50.9	292.730	-0.330	-0.100	0.360
2020/01/31 11:00:51.0	292.740	-0.300	-0.150	0.390
2020/01/31 11:00:51.1	292.750	-0.270	-0.190	0.420
2020/01/31 11:00:51.2	292.760	-0.240	-0.240	0.450
2020/01/31 11:00:51.3	292.770	-0.210	-0.290	0.480
2020/01/31 11:00:51.4	292.780	-0.180	-0.330	0.510
2020/01/31 11:00:51.5	292.800	-0.140	-0.380	0.540
2020/01/31 11:00:51.6	292.810	-0.110	-0.420	0.570
2020/01/31 11:00:51.7	292.830	-0.080	-0.470	0.600
2020/01/31 11:00:51.8	292.840	-0.050	-0.510	0.630
2020/01/31 11:00:51.9	292.860	-0.010	-0.540	0.650
2020/01/31 11:00:52.0	292.880	0.020	-0.580	0.680
2020/01/31 11:00:52.1	292.890	0.050	-0.610	0.710
2020/01/31 11:00:52.2	292.910	0.080	-0.640	0.730
2020/01/31 11:00:52.3	292.930	0.100	-0.660	0.760
2020/01/31 11:00:52.4	292.940	0.130	-0.680	0.780
2020/01/31 11:00:52.5	292.950	0.160	-0.690	0.810
2020/01/31 11:00:52.6	292.970	0.180	-0.700	0.830
2020/01/31 11:00:52.7	292.990	0.200	-0.700	0.860
2020/01/31 11:00:52.8	293.010	0.230	-0.700	0.880
2020/01/31 11:00:52.9	293.020	0.250	-0.700	0.900
2020/01/31 11:00:53.0	293.040	0.260	-0.690	0.930
2020/01/31 11:00:53.1	293.050	0.280	-0.670	0.950
2020/01/31 11:00:53.2	293.070	0.290	-0.660	0.970
2020/01/31 11:00:53.3	293.080	0.310	-0.630	1.000
2020/01/31 11:00:53.4	293.100	0.320	-0.610	1.020
2020/01/31 11:00:53.5	293.100	0.330	-0.580	1.040
2020/01/31 11:00:53.6	293.110	0.340	-0.550	1.060
2020/01/31 11:00:53.7	293.130	0.340	-0.520	1.080
2020/01/31 11:00:53.8	293.140	0.350	-0.480	1.100
2020/01/31 11:00:53.9	293.150	0.350	-0.440	1.120
2020/01/31 11:00:54.0	293.160	0.360	-0.410	1.140
2020/01/31 11:00:54.1	293.170	0.360	-0.370	1.150
2020/01/31 11:00:54.2	293.180	0.360	-0.330	1.170
2020/01/31 11:00:54.3	293.180	0.360	-0.300	1.180
2020/01/31 11:00:54.4	293.190	0.360	-0.260	1.190
2020/01/31 11:00:54.5	293.210	0.360	-0.230	1.190
2020/01/31 11:00:54.6	293.210	0.360	-0.200	1.200
2020/01/31 11:00:54.7	293.220	0.360	-0.180	1.200
2020/01/31 11:00:54.8	293.220	0.360	-0.160	1.200
2020/01/31 11:00:54.9	293.230	0.360	-0.140	1.200
2020/01/31 11:00:55.0	293.230	0.360	-0.120	1.190
2020/01/31 11:00:55.1	293.240	0.360	-0.110	1.180
2020/01/31 11:00:55.2	293.240	0.360	-0.110	1.170
2020/01/31 11:00:55.3	293.250	0.360	-0.110	1.160
2020/01/31 11:00:55.4	293.250	0.360	-0.110	1.140
2020/01/31 11:00:55.5	293.250	0.360	-0.120	1.120
2020/01/31 11:00:55.6	293.250	0.360	-0.130	1.100
2020/01/31 11:00:55.7	293.250	0.360	-0.150	1.070
2020/01/31 11:00:55.8	293.260	0.370	-0.170	1.040
2020/01/31 11:00:55.9	293.260	0.370	-0.190	1.010
2020/01/31 11:00:56.0	293.260	0.370	-0.220	0.970
2020/01/31 11:00:56.1	293.270	0.380	-0.250	0.940
2020/01/31 11:00:56.2	293.270	0.380	-0.280	0.900
2020/01/31 11:00:56.3	293.270	0.380	-0.320	0.860
2020/01/31 11:00:56.4	293.280	0.390	-0.350	0.820
2020/01/31 11:00:56.5	293.290	0.390	-0.380	0.770
2020/01/31 11:00:56.6	293.290	0.400	-0.420	0.730
2020/01/31 11:00:56.7	293.290	0.400	-0.450	0.680
2020/01/31 11:00:56.8	293.300	0.410	-0.490	0.640
2020/01/31 11:00:56.9	293.300	0.410	-0.520	0.590
2020/01/31 11:00:57.0	293.310	0.420	-0.550	0.550
2020/01/31 11:00:57.1	293.320	0.420	-0.580	0.510
2020/01/31 11:00:57.2	293.320	0.420	-0.600	0.460
2020/01/31 11:00:57.3	293.330	0.420	-0.620	0.420
2020/01/31 11:00:57.4	293.330	0.430	-0.640	0.380
2020/01/31 11:00:57.5	293.330	0.430	-0.650	0.340
2020/01/31 11:00:57.6	293.330	0.420	-0.660	0.300
2020/01/31 11:00:57.7	293.340	0.420	-0.670	0.260
2020/01/31 11:00:57.8	293.340	0.420	-0.670	0.230
2020/01/31 11:00:57.9	293.340	0.410	-0.660	0.200
2020/01/31 11:00:58.0	293.340	0.410	-0.650	0.170
2020/01/31 11:00:58.1	293.340	0.400	-0.640	0.140
2020/01/31 11:00:58.2	293.340	0.390	-0.620	0.110
2020/01/31 11:00:58.3	293.340	0.380	-0.600	0.090
2020/01/31 11:00:58.4	293.340	0.370	-0.570	0.070
2020/01/31 11:00:58.5	293.340	0.360	-0.540	0.060
2020/01/31 11:00:58.6	293.330	0.340	-0.500	0.050
2020/01/31 11:00:58.7	293.330	0.330	-0.460	0.040
2020/01/31 11:00:58.8	293.320	0.310	-0.420	0.030
2020/01/31 11:00:58.9	293.310	0.290	-0.380	0.030
2020/01/31 11:00:59.0	293.300	0.270	-0.340	0.040
2020/01/31 11:00:59.1	293.280	0.240	-0.290	0.050
2020/01/31 11:00:59.2	293.270	0.220	-0.240	0.060
2020/01/31 11:00:59.3	293.250	0.200	-0.190	0.070
2020/01/31 11:00:59.4	293.240	0.170	-0.140	0.090
2020/01/31 11:00:59.5	293.220	0.140	-0.090	0.110
2020/01/31 11:00:59.6	293.200	0.110	-0.050	0.130
2020/01/31 11:00:59.7	293.180	0.080	0.000	0.160
2020/01/31 11:00:59.8	293.160	0.050	0.050	0.180
2020/01/31 11:00:59.9	293.140	0.020	0.090	0.210
2020/01/31 11:01:00.0	293.120	-0.010	0.140	0.240
2020/01/31 11:01:00.1	293.100	-0.040	0.170	0.260
2020/01/31 11:01:00.2	293.080	-0.080	0.210	0.290
2020/01/31 11:01:00.3	293.060	-0.110	0.240	0.310
2020/01/31 11:01:00.4	293.050	-0.140	0.270	0.340
2020/01/31 11:01:00.5	293.040	-0.170	0.300	0.360
2020/01/31 11:01:00.6	293.020	-0.210	0.320	0.380
2020/01/31 11:01:00.7	293.010	-0.240	0.330	0.400
2020/01/31 11:01:00.8	292.990	-0.270	0.350	0.420
2020/01/31 11:01:00.9	292.980	-0.300	0.350	0.430
2020/01/31 11:01:01.0	292.970	-0.330	0.360	0.440
2020/01/31 11:01:01.1	292.960	-0.350	0.360	0.450
2020/01/31 11:01:01.2	292.950	-0.380	0.350	0.450
2020/01/31 11:01:01.3	292.950	-0.410	0.340	0.460
2020/01/31 11:01:01.4	292.940	-0.430	0.330	0.450
2020/01/31 11:01:01.5	292.940	-0.450	0.320	0.440
2020/01/31 11:01:01.6	292.940	-0.470	0.300	0.440
2020/01/31 11:01:01.7	292.940	-0.490	0.280	0.430
2020/01/31 11:01:01.8	292.940	-0.510	0.250	0.410
2020/01/31 11:01:01.9	292.940	-0.520	0.220	0.400
2020/01/31 11:01:02.0	292.950	-0.530	0.200	0.380
2020/01/31 11:01:02.1	292.950	-0.550	0.170	0.360
2020/01/31 11:01:02.2	292.960	-0.550	0.130	0.340
2020/01/31 11:01:02.3	292.970	-0.560	0.100	0.310
2020/01/31 11:01:02.4	292.980	-0.570	0.070	0.290
2020/01/31 11:01:02.5	292.990	-0.570	0.030	0.260
2020/01/31 11:01:02.6	293.000	-0.570	-0.000	0.230
2020/01/31 11:01:02.7	293.020	-0.570	-0.040	0.210
2020/01/31 11:01:02.8	293.030	-0.570	-0.070	0.180
2020/01/31 11:01:02.9	293.040	-0.570	-0.100	0.150
2020/01/31 11:01:03.0	293.060	-0.560	-0.130	0.120
2020/01/31 11:01:03.1	293.080	-0.560	-0.160	0.100
2020/01/31 11:01:03.2	293.090	-0.550	-0.190	0.080
2020/01/31 11:01:03.3	293.110	-0.540	-0.220	0.050
2020/01/31 11:01:03.4	293.120	-0.530	-0.250	0.030
2020/01/31 11:01:03.5	293.130	-0.520	-0.270	0.010
2020/01/31 11:01:03.6	293.150	-0.500	-0.300	-0.010
2020/01/31 11:01:03.7	293.160	-0.490	-0.320	-0.020
2020/01/31 11:01:03.8	293.170	-0.470	-0.340	-0.040
2020/01/31 11:01:03.9	293.190	-0.460	-0.360	-0.050
2020/01/31 11:01:04.0	293.200	-0.440	-0.380	-0.060
2020/01/31 11:01:04.1	293.210	-0.420	-0.400	-0.060
2020/01/31 11:01:04.2	293.220	-0.400	-0.410	-0.070
2020/01/31 11:01:04.3	293.230	-0.380	-0.430	-0.070
2020/01/31 11:01:04.4	293.240	-0.360	-0.440	-0.070
2020/01/31 11:01:04.5	293.250	-0.340	-0.450	-0.070
2020/01/31 11:01:04.6	293.260	-0.320	-0.470	-0.060
2020/01/31 11:01:04.7	293.270	-0.300	-0.480	-0.050
2020/01/31 11:01:04.8	293.280	-0.280	-0.490	-0.050
2020/01/31 11:01:04.9	293.290	-0.250	-0.500	-0.040
2020/01/31 11:01:05.0	293.300	-0.230	-0.510	-0.020
2020/01/31 11:01:05.1	293.310	-0.210	-0.520	-0.010
2020/01/31 11:01:05.2	293.320	-0.180	-0.520	0.000
2020/01/31 11:01:05.3	293.330	-0.160	-0.530	0.020
2020/01/31 11:01:05.4	293.340	-0.130	-0.540	0.040
2020/01/31 11:01:05.5	293.340	-0.110	-0.550	0.060
2020/01/31 11:01:05.6	293.350	-0.080	-0.560	0.080
2020/01/31 11:01:05.7	293.360	-0.060	-0.570	0.100
2020/01/31 11:01:05.8	293.370	-0.030	-0.570	0.130
2020/01/31 11:01:05.9	293.380	-0.010	-0.580	0.150
2020/01/31 11:01:06.0	293.390	0.010	-0.580	0.180
2020/01/31 11:01:06.1	293.400	0.040	-0.590	0.200
2020/01/31 11:01:06.2	293.410	0.060	-0.590	0.230
2020/01/31 11:01:06.3	293.420	0.080	-0.590	0.250
2020/01/31 11:01:06.4	293.430	0.100	-0.590	0.280
2020/01/31 11:01:06.5	293.430	0.130	-0.590	0.310
2020/01/31 11:01:06.6	293.440	0.150	-0.590	0.340
2020/01/31 11:01:06.7	293.450	0.160	-0.580	0.360
2020/01/31 11:01:06.8	293.460	0.180	-0.580	0.390
2020/01/31 11:01:06.9	293.470	0.200	-0.580	0.420
2020/01/31 11:01:07.0	293.470	0.210	-0.570	0.450
2020/01/31 11:01:07.1	293.480	0.230	-0.560	0.470
2020/01/31 11:01:07.2	293.490	0.240	-0.550	0.500
2020/01/31 11:01:07.3	293.500	0.250	-0.540	0.530
2020/01/31 11:01:07.4	293.500	0.260	-0.530	0.550
2020/01/31 11:01:07.5	293.510	0.270	-0.510	0.580
2020/01/31 11:01:07.6	293.510	0.280	-0.490	0.600
2020/01/31 11:01:07.7	293.520	0.280	-0.480	0.630
2020/01/31 11:01:07.8	293.520	0.290	-0.460	0.650
2020/01/31 11:01:07.9	293.520	0.300	-0.440	0.680
2020/01/31 11:01:08.0	293.520	0.300	-0.420	0.710
2020/01/31 11:01:08.1	293.520	0.300	-0.400	0.730
2020/01/31 11:01:08.2	293.520	0.300	-0.380	0.760
2020/01/31 11:01:08.3	293.510	0.300	-0.360	0.790
2020/01/31 11:01:08.4	293.510	0.310	-0.340	0.810
2020/01/31 11:01:08.5	293.500	0.300	-0.320	0.840
2020/01/31 11:01:08.6	293.490	0.300	-0.300	0.870
2020/01/31 11:01:08.7	293.490	0.300	-0.280	0.890
2020/01/31 11:01:08.8	293.480	0.300	-0.260	0.920
2020/01/31 11:01:08.9	293.470	0.300	-0.240	0.940
2020/01/31 11:01:09.0	293.450	0.290	-0.230	0.960
2020/01/31 11:01:09.1	293.440	0.290	-0.210	0.990
2020/01/31 11:01:09.2	293.430	0.290	-0.190	1.010
2020/01/31 11:01:09.3	293.410	0.280	-0.180	1.030
2020/01/31 11:01:09.4	293.400	0.280	-0.160	1.050
2020/01/31 11:01:09.5	293.390	0.270	-0.150	1.070
2020/01/31 11:01:09.6	293.370	0.270	-0.140	1.090
2020/01/31 11:01:09.7	293.360	0.260	-0.130	1.110
2020/01/31 11:01:09.8	293.340	0.250	-0.120	1.120
2020/01/31 11:01:09.9	293.320	0.250	-0.110	1.140
2020/01/31 11:01:10.0	293.310	0.240	-0.110	1.150
2020/01/31 11:01:10.1	293.290	0.230	-0.100	1.150
2020/01/31 11:01:10.2	293.280	0.220	-0.100	1.160
2020/01/31 11:01:10.3	293.260	0.210	-0.100	1.160
2020/01/31 11:01:10.4	293.250	0.200	-0.100	1.160
2020/01/31 11:01:10.5	293.220	0.190	-0.090	1.160
2020/01/31 11:01:10.6	293.210	0.180	-0.090	1.150
2020/01/31 11:01:10.7	293.200	0.170	-0.100	1.140
2020/01/31 11:01:10.8	293.190	0.160	-0.100	1.130
2020/01/31 11:01:10.9	293.180	0.150	-0.100	1.110
2020/01/31 11:01:11.0	293.180	0.140	-0.100	1.090
2020/01/31 11:01:11.1	293.170	0.130	-0.110	1.070
2020/01/31 11:01:11.2	293.160	0.120	-0.110	1.040
2020/01/31 11:01:11.3	293.160	0.100	-0.110	1.020
2020/01/31 11:01:11.4	293.150	0.090	-0.120	0.990
2020/01/31 11:01:11.5	293.160	0.080	-0.120	0.950
2020/01/31 11:01:11.6	293.160	0.070	-0.120	0.920
2020/01/31 11:01:11.7	293.150	0.050	-0.120	0.890
2020/01/31 11:01:11.8	293.150	0.040	-0.120	0.860
2020/01/31 11:01:11.9	293.150	0.030	-0.130	0.820
2020/01/31 11:01:12.0	293.150	0.020	-0.130	0.780
2020/01/31 11:01:12.1	293.150	0.000	-0.130	0.750
2020/01/31 11:01:12.2	293.150	-0.010	-0.130	0.710
2020/01/31 11:01:12.3	293.150	-0.020	-0.130	0.670
2020/01/31 11:01:12.4	293.160	-0.030	-0.130	0.640
2020/01/31 11:01:12.5	293.160	-0.040	-0.120	0.600
2020/01/31 11:01:12.6	293.170	-0.050	-0.120	0.560
2020/01/31 11:01:12.7	293.170	-0.060	-0.120	0.530
2020/01/31 11:01:12.8	293.180	-0.070	-0.120	0.490
2020/01/31 11:01:12.9	293.190	-0.080	-0.120	0.450
2020/01/31 11:01:13.0	293.200	-0.090	-0.120	0.410
2020/01/31 11:01:13.1	293.210	-0.090	-0.120	0.380
2020/01/31 11:01:13.2	293.220	-0.100	-0.120	0.340
2020/01/31 11:01:13.3	293.230	-0.110	-0.120	0.310
2020/01/31 11:01:13.4	293.250	-0.110	-0.120	0.270
2020/01/31 11:01:13.5	293.260	-0.110	-0.130	0.240
2020/01/31 11:01:13.6	293.270	-0.120	-0.130	0.210
2020/01/31 11:01:13.7	293.290	-0.120	-0.130	0.180
2020/01/31 11:01:13.8	293.300	-0.120	-0.130	0.150
2020/01/31 11:01:13.9	293.320	-0.120	-0.140	0.130
2020/01/31 11:01:14.0	293.330	-0.120	-0.140	0.100
2020/01/31 11:01:14.1	293.350	-0.120	-0.140	0.080
2020/01/31 11:01:14.2	293.370	-0.120	-0.150	0.060
2020/01/31 11:01:14.3	293.390	-0.110	-0.150	0.040
2020/01/31 11:01:14.4	293.410	-0.110	-0.150	0.020
2020/01/31 11:01:14.5	293.430	-0.100	-0.160	0.010
2020/01/31 11:01:14.6	293.450	-0.100	-0.160	-0.000
2020/01/31 11:01:14.7	293.470	-0.090	-0.170	-0.010
2020/01/31 11:01:14.8	293.490	-0.090	-0.170	-0.020
2020/01/31 11:01:14.9	293.510	-0.080	-0.180	-0.030
2020/01/31 11:01:15.0	293.530	-0.070	-0.180	-0.030
2020/01/31 11:01:15.1	293.550	-0.060	-0.190	-0.030
2020/01/31 11:01:15.2	293.570	-0.050	-0.190	-0.030
2020/01/31 11:01:15.3	293.590	-0.040	-0.200	-0.020
2020/01/31 11:01:15.4	293.610	-0.030	-0.200	-0.020
2020/01/31 11:01:15.5	293.630	-0.020	-0.210	-0.010
2020/01/31 11:01:15.6	293.650	-0.010	-0.210	0.000
2020/01/31 11:01:15.7	293.670	0.000	-0.210	0.010
2020/01/31 11:01:15.8	293.690	0.010	-0.220	0.030
2020/01/31 11:01:15.9	293.700	0.020	-0.220	0.050
2020/01/31 11:01:16.0	293.720	0.030	-0.220	0.070
2020/01/31 11:01:16.1	293.730	0.050	-0.220	0.100
2020/01/31 11:01:16.2	293.750	0.060	-0.230	0.120
2020/01/31 11:01:16.3	293.760	0.070	-0.230	0.150
2020/01/31 11:01:16.4	293.770	0.080	-0.230	0.170
2020/01/31 11:01:16.5	293.780	0.090	-0.230	0.200
2020/01/31 11:01:16.6	293.790	0.100	-0.230	0.230
2020/01/31 11:01:16.7	293.800	0.110	-0.230	0.260
2020/01/31 11:01:16.8	293.810	0.120	-0.230	0.290
2020/01/31 11:01:16.9	293.810	0.130	-0.230	0.310
2020/01/31 11:01:17.0	293.820	0.140	-0.240	0.340
2020/01/31 11:01:17.1	293.820	0.150	-0.240	0.360
2020/01/31 11:01:17.2	293.830	0.160	-0.240	0.390
2020/01/31 11:01:17.3	293.830	0.170	-0.240	0.410
2020/01/31 11:01:17.4	293.830	0.170	-0.250	0.440
2020/01/31 11:01:17.5	293.830	0.180	-0.250	0.460
2020/01/31 11:01:17.6	293.830	0.190	-0.250	0.480
2020/01/31 11:01:17.7	293.820	0.190	-0.260	0.500
2020/01/31 11:01:17.8	293.820	0.200	-0.260	0.520
2020/01/31 11:01:17.9	293.810	0.210	-0.270	0.540
2020/01/31 11:01:18.0	293.800	0.210	-0.280	0.560
2020/01/31 11:01:18.1	293.790	0.210	-0.280	0.570
2020/01/31 11:01:18.2	293.780	0.210	-0.290	0.590
2020/01/31 11:01:18.3	293.770	0.210	-0.300	0.600
2020/01/31 11:01:18.4	293.750	0.210	-0.310	0.610
2020/01/31 11:01:18.5	293.740	0.210	-0.320	0.620
2020/01/31 11:01:18.6	293.730	0.210	-0.330	0.630
2020/01/31 11:01:18.7	293.710	0.210	-0.340	0.640
2020/01/31 11:01:18.8	293.700	0.200	-0.360	0.640
2020/01/31 11:01:18.9	293.680	0.200	-0.370	0.640
2020/01/31 11:01:19.0	293.670	0.190	-0.380	0.640
2020/01/31 11:01:19.1	293.650	0.180	-0.390	0.640
2020/01/31 11:01:19.2	293.640	0.180	-0.400	0.640
2020/01/31 11:01:19.3	293.620	0.170	-0.410	0.640
2020/01/31 11:01:19.4	293.610	0.160	-0.420	0.640
2020/01/31 11:01:19.5	293.590	0.140	-0.420	0.630
2020/01/31 11:01:19.6	293.570	0.130	-0.430	0.620
2020/01/31 11:01:19.7	293.560	0.120	-0.440	0.610
2020/01/31 11:01:19.8	293.540	0.100	-0.440	0.610
2020/01/31 11:01:19.9	293.530	0.090	-0.450	0.600
2020/01/31 11:01:20.0	293.510	0.070	-0.450	0.590
2020/01/31 11:01:20.1	293.500	0.050	-0.450	0.580
2020/01/31 11:01:20.2	293.480	0.040	-0.440	0.570
2020/01/31 11:01:20.3	293.470	0.020	-0.440	0.560
2020/01/31 11:01:20.4	293.450	-0.000	-0.440	0.550
2020/01/31 11:01:20.5	293.420	-0.020	-0.430	0.540
2020/01/31 11:01:20.6	293.410	-0.040	-0.420	0.520
2020/01/31 11:01:20.7	293.390	-0.060	-0.410	0.510
2020/01/31 11:01:20.8	293.380	-0.080	-0.400	0.500
2020/01/31 11:01:20.9	293.360	-0.100	-0.390	0.480
2020/01/31 11:01:21.0	293.350	-0.120	-0.380	0.470
2020/01/31 11:01:21.1	293.340	-0.140	-0.360	0.450
2020/01/31 11:01:21.2	293.330	-0.160	-0.350	0.440
2020/01/31 11:01:21.3	293.320	-0.180	-0.330	0.430
2020/01/31 11:01:21.4	293.310	-0.200	-0.320	0.410
2020/01/31 11:01:21.5	293.310	-0.210	-0.300	0.390
2020/01/31 11:01:21.6	293.300	-0.230	-0.290	0.380
2020/01/31 11:01:21.7	293.300	-0.250	-0.270	0.360
2020/01/31 11:01:21.8	293.290	-0.260	-0.260	0.350
2020/01/31 11:01:21.9	293.290	-0.280	-0.250	0.330
2020/01/31 11:01:22.0	293.290	-0.290	-0.230	0.310
2020/01/31 11:01:22.1	293.290	-0.310	-0.220	0.300
2020/01/31 11:01:22.2	293.300	-0.320	-0.210	0.280
2020/01/31 11:01:22.3	293.300	-0.330	-0.200	0.270
2020/01/31 11:01:22.4	293.310	-0.340	-0.190	0.250
2020/01/31 11:01:22.5	293.310	-0.350	-0.180	0.230
2020/01/31 11:01:22.6	293.320	-0.350	-0.170	0.220
2020/01/31 11:01:22.7	293.330	-0.360	-0.160	0.200
2020/01/31 11:01:22.8	293.340	-0.360	-0.160	0.190
2020/01/31 11:01:22.9	293.350	-0.370	-0.150	0.180
2020/01/31 11:01:23.0	293.360	-0.370	-0.150	0.170
2020/01/31 11:01:23.1	293.380	-0.370	-0.150	0.160
2020/01/31 11:01:23.2	293.390	-0.370	-0.140	0.150
2020/01/31 11:01:23.3	293.410	-0.360	-0.140	0.140
2020/01/31 11:01:23.4	293.420	-0.360	-0.140	0.130
2020/01/31 11:01:23.5	293.440	-0.350	-0.140	0.120
2020/01/31 11:01:23.6	293.460	-0.350	-0.150	0.120
2020/01/31 11:01:23.7	293.470	-0.340	-0.150	0.110
2020/01/31 11:01:23.8	293.490	-0.330	-0.150	0.110
2020/01/31 11:01:23.9	293.510	-0.320	-0.160	0.110
2020/01/31 11:01:24.0	293.530	-0.310	-0.160	0.100
2020/01/31 11:01:24.1	293.550	-0.290	-0.170	0.100
2020/01/31 11:01:24.2	293.560	-0.280	-0.180	0.100
2020/01/31 11:01:24.3	293.580	-0.270	-0.190	0.100
2020/01/31 11:01:24.4	293.600	-0.250	-0.190	0.100
2020/01/31 11:01:24.5	293.620	-0.230	-0.200	0.110
2020/01/31 11:01:24.6	293.640	-0.220	-0.210	0.110
2020/01/31 11:01:24.7	293.650	-0.200	-0.220	0.120
2020/01/31 11:01:24.8	293.670	-0.180	-0.230	0.120
2020/01/31 11:01:24.9	293.680	-0.160	-0.230	0.130
2020/01/31 11:01:25.0	293.700	-0.140	-0.240	0.140
2020/01/31 11:01:25.1	293.710	-0.120	-0.250	0.150
2020/01/31 11:01:25.2	293.720	-0.100	-0.260	0.160
2020/01/31 11:01:25.3	293.730	-0.080	-0.260	0.180
2020/01/31 11:01:25.4	293.750	-0.070	-0.270	0.190
2020/01/31 11:01:25.5	293.760	-0.050	-0.280	0.210
2020/01/31 11:01:25.6	293.770	-0.030	-0.280	0.220
2020/01/31 11:01:25.7	293.780	-0.010	-0.290	0.240
2020/01/31 11:01:25.8	293.790	0.010	-0.290	0.260
2020/01/31 11:01:25.9	293.800	0.030	-0.300	0.280
2020/01/31 11:01:26.0	293.800	0.050	-0.300	0.300
2020/01/31 11:01:26.1	293.810	0.060	-0.300	0.320
2020/01/31 11:01:26.2	293.820	0.080	-0.300	0.340
2020/01/31 11:01:26.3	293.820	0.090	-0.300	0.360
2020/01/31 11:01:26.4	293.830	0.110	-0.300	0.390
2020/01/31 11:01:26.5	293.830	0.120	-0.300	0.410
2020/01/31 11:01:26.6	293.840	0.140	-0.300	0.440
2020/01/31 11:01:26.7	293.840	0.150	-0.300	0.470
2020/01/31 11:01:26.8	293.840	0.160	-0.290	0.490
2020/01/31 11:01:26.9	293.840	0.170	-0.290	0.520
2020/01/31 11:01:27.0	293.840	0.180	-0.280	0.550
2020/01/31 11:01:27.1	293.840	0.190	-0.270	0.580
2020/01/31 11:01:27.2	293.840	0.190	-0.270	0.610
2020/01/31 11:01:27.3	293.830	0.200	-0.260	0.640
2020/01/31 11:01:27.4	293.830	0.210	-0.250	0.670
2020/01/31 11:01:27.5	293.820	0.210	-0.230	0.700
2020/01/31 11:01:27.6	293.820	0.210	-0.220	0.730
2020/01/31 11:01:27.7	293.810	0.220	-0.210	0.750
2020/01/31 11:01:27.8	293.800	0.220	-0.190	0.780
2020/01/31 11:01:27.9	293.800	0.220	-0.180	0.810
2020/01/31 11:01:28.0	293.790	0.230	-0.160	0.840
2020/01/31 11:01:28.1	293.780	0.230	-0.140	0.860
2020/01/31 11:01:28.2	293.770	0.230	-0.130	0.890
2020/01/31 11:01:28.3	293.770	0.230	-0.110	0.920
2020/01/31 11:01:28.4	293.760	0.230	-0.100	0.940
2020/01/31 11:01:28.5	293.750	0.230	-0.080	0.970
2020/01/31 11:01:28.6	293.740	0.230	-0.070	0.990
2020/01/31 11:01:28.7	293.730	0.230	-0.050	1.020
2020/01/31 11:01:28.8	293.720	0.230	-0.040	1.040
2020/01/31 11:01:28.9	293.710	0.230	-0.030	1.060
2020/01/31 11:01:29.0	293.700	0.230	-0.010	1.090
2020/01/31 11:01:29.1	293.690	0.240	-0.000	1.110
2020/01/31 11:01:29.2	293.670	0.240	0.010	1.130
2020/01/31 11:01:29.3	293.660	0.240	0.010	1.150
2020/01/31 11:01:29.4	293.650	0.240	0.020	1.170
2020/01/31 11:01:29.5	293.640	0.240	0.030	1.180
2020/01/31 11:01:29.6	293.620	0.250	0.030	1.200
2020/01/31 11:01:29.7	293.610	0.250	0.030	1.210
2020/01/31 11:01:29.8	293.600	0.250	0.030	1.220
2020/01/31 11:01:29.9	293.590	0.250	0.030	1.230
2020/01/31 11:01:30.0	293.580	0.260	0.020	1.240
2020/01/31 11:01:30.1	293.560	0.260	0.020	1.240
2020/01/31 11:01:30.2	293.550	0.260	0.010	1.240
2020/01/31 11:01:30.3	293.540	0.260	-0.000	1.230
2020/01/31 11:01:30.4	293.530	0.260	-0.020	1.230
2020/01/31 11:01:30.5	293.520	0.260	-0.030	1.210
2020/01/31 11:01:30.6	293.510	0.260	-0.050	1.200
2020/01/31 11:01:30.7	293.510	0.260	-0.060	1.180
2020/01/31 11:01:30.8	293.500	0.260	-0.080	1.150
2020/01/31 11:01:30.9	293.500	0.260	-0.110	1.130
2020/01/31 11:01:31.0	293.490	0.260	-0.130	1.090
2020/01/31 11:01:31.1	293.490	0.260	-0.150	1.060
2020/01/31 11:01:31.2	293.490	0.250	-0.180	1.020
2020/01/31 11:01:31.3	293.480	0.250	-0.210	0.980
2020/01/31 11:01:31.4	293.480	0.250	-0.240	0.940
2020/01/31 11:01:31.5	293.480	0.240	-0.270	0.890
2020/01/31 11:01:31.6	293.480	0.230	-0.300	0.840
2020/01/31 11:01:31.7	293.480	0.230	-0.330	0.790
2020/01/31 11:01:31.8	293.490	0.220	-0.360	0.740
2020/01/31 11:01:31.9	293.490	0.210	-0.390	0.680
2020/01/31 11:01:32.0	293.490	0.200	-0.420	0.620
2020/01/31 11:01:32.1	293.500	0.190	-0.450	0.560
2020/01/31 11:01:32.2	293.500	0.180	-0.480	0.510
2020/01/31 11:01:32.3	293.510	0.170	-0.510	0.440
2020/01/31 11:01:32.4	293.520	0.150	-0.530	0.380
2020/01/31 11:01:32.5	293.520	0.140	-0.560	0.320
2020/01/31 11:01:32.6	293.530	0.130	-0.580	0.260
2020/01/31 11:01:32.7	293.540	0.110	-0.600	0.190
2020/01/31 11:01:32.8	293.560	0.100	-0.620	0.130
2020/01/31 11:01:32.9	293.570	0.090	-0.640	0.070
2020/01/31 11:01:33.0	293.580	0.070	-0.660	0.010
2020/01/31 11:01:33.1	293.600	0.060	-0.670	-0.040
2020/01/31 11:01:33.2	293.610	0.040	-0.680	-0.100
2020/01/31 11:01:33.3	293.630	0.030	-0.690	-0.150
2020/01/31 11:01:33.4	293.640	0.010	-0.700	-0.200
2020/01/31 11:01:33.5	293.660	-0.000	-0.710	-0.250
2020/01/31 11:01:33.6	293.680	-0.020	-0.710	-0.300
2020/01/31 11:01:33.7	293.690	-0.030	-0.710	-0.340
2020/01/31 11:01:33.8	293.710	-0.040	-0.710	-0.380
2020/01/31 11:01:33.9	293.730	-0.060	-0.710	-0.410
2020/01/31 11:01:34.0	293.750	-0.070	-0.700	-0.440
2020/01/31 11:01:34.1	293.770	-0.080	-0.690	-0.470
2020/01/31 11:01:34.2	293.790	-0.090	-0.690	-0.490
2020/01/31 11:01:34.3	293.810	-0.100	-0.670	-0.510
2020/01/31 11:01:34.4	293.830	-0.110	-0.660	-0.520
2020/01/31 11:01:34.5	293.840	-0.120	-0.650	-0.530
2020/01/31 11:01:34.6	293.860	-0.130	-0.630	-0.540
2020/01/31 11:01:34.7	293.870	-0.140	-0.610	-0.540
2020/01/31 11:01:34.8	293.890	-0.150	-0.590	-0.530
2020/01/31 11:01:34.9	293.900	-0.150	-0.570	-0.520
2020/01/31 11:01:35.0	293.910	-0.160	-0.540	-0.510
2020/01/31 11:01:35.1	293.920	-0.160	-0.520	-0.490
2020/01/31 11:01:35.2	293.930	-0.170	-0.490	-0.470
2020/01/31 11:01:35.3	293.930	-0.180	-0.460	-0.450
2020/01/31 11:01:35.4	293.930	-0.180	-0.430	-0.420
2020/01/31 11:01:35.5	293.940	-0.190	-0.400	-0.390
2020/01/31 11:01:35.6	293.940	-0.190	-0.370	-0.360
2020/01/31 11:01:35.7	293.940	-0.200	-0.340	-0.320
2020/01/31 11:01:35.8	293.940	-0.200	-0.310	-0.280
2020/01/31 11:01:35.9	293.930	-0.210	-0.280	-0.250
2020/01/31 11:01:36.0	293.930	-0.210	-0.250	-0.200
2020/01/31 11:01:36.1	293.920	-0.210	-0.220	-0.160
2020/01/31 11:01:36.2	293.910	-0.220	-0.190	-0.120
2020/01/31 11:01:36.3	293.900	-0.220	-0.160	-0.070
2020/01/31 11:01:36.4	293.890	-0.230	-0.130	-0.030
2020/01/31 11:01:36.5	293.880	-0.230	-0.100	0.020
2020/01/31 11:01:36.6	293.870	-0.240	-0.080	0.070
2020/01/31 11:01:36.7	293.860	-0.240	-0.050	0.110
2020/01/31 11:01:36.8	293.850	-0.250	-0.030	0.160
2020/01/31 11:01:36.9	293.840	-0.250	-0.010	0.200
2020/01/31 11:01:37.0	293.830	-0.260	0.010	0.250
2020/01/31 11:01:37.1	293.820	-0.260	0.030	0.300
2020/01/31 11:01:37.2	293.800	-0.260	0.050	0.340
2020/01/31 11:01:37.3	293.790	-0.270	0.070	0.390
2020/01/31 11:01:37.4	293.780	-0.270	0.080	0.430
2020/01/31 11:01:37.5	293.760	-0.280	0.100	0.470
2020/01/31 11:01:37.6	293.750	-0.280	0.110	0.510
2020/01/31 11:01:37.7	293.730	-0.280	0.120	0.560
2020/01/31 11:01:37.8	293.710	-0.290	0.130	0.600
2020/01/31 11:01:37.9	293.690	-0.290	0.140	0.640
2020/01/31 11:01:38.0	293.680	-0.290	0.150	0.670
2020/01/31 11:01:38.1	293.660	-0.300	0.160	0.710
2020/01/31 11:01:38.2	293.640	-0.300	0.160	0.750
2020/01/31 11:01:38.3	293.610	-0.300	0.170	0.780
2020/01/31 11:01:38.4	293.590	-0.300	0.170	0.810
2020/01/31 11:01:38.5	293.580	-0.300	0.180	0.840
2020/01/31 11:01:38.6	293.560	-0.300	0.180	0.870
2020/01/31 11:01:38.7	293.540	-0.300	0.180	0.900
2020/01/31 11:01:38.8	293.520	-0.300	0.190	0.920
2020/01/31 11:01:38.9	293.500	-0.300	0.190	0.950
2020/01/31 11:01:39.0	293.480	-0.300	0.190	0.960
2020/01/31 11:01:39.1	293.460	-0.290	0.190	0.980
2020/01/31 11:01:39.2	293.440	-0.290	0.190	0.990
2020/01/31 11:01:39.3	293.430	-0.280	0.190	1.000
2020/01/31 11:01:39.4	293.410	-0.280	0.190	1.010
2020/01/31 11:01:39.5	293.390	-0.270	0.190	1.010
2020/01/31 11:01:39.6	293.380	-0.270	0.190	1.010
2020/01/31 11:01:39.7	293.370	-0.260	0.190	1.010
2020/01/31 11:01:39.8	293.360	-0.250	0.180	1.010
2020/01/31 11:01:39.9	293.350	-0.240	0.180	1.000
2020/01/31 11:01:40.0	293.350	-0.230	0.170	0.990
2020/01/31 11:01:40.1	293.340	-0.220	0.160	0.980
2020/01/31 11:01:40.2	293.330	-0.210	0.160	0.960
2020/01/31 11:01:40.3	293.330	-0.200	0.150	0.950
2020/01/31 11:01:40.4	293.330	-0.190	0.140	0.930
2020/01/31 11:01:40.5	293.330	-0.170	0.120	0.910
2020/01/31 11:01:40.6	293.320	-0.160	0.110	0.890
2020/01/31 11:01:40.7	293.320	-0.150	0.090	0.870
2020/01/31 11:01:40.8	293.320	-0.130	0.080	0.840
2020/01/31 11:01:40.9	293.320	-0.110	0.060	0.820
2020/01/31 11:01:41.0	293.320	-0.100	0.040	0.790
2020/01/31 11:01:41.1	293.320	-0.080	0.020	0.770
2020/01/31 11:01:41.2	293.320	-0.060	0.000	0.740
2020/01/31 11:01:41.3	293.320	-0.040	-0.020	0.710
2020/01/31 11:01:41.4	293.320	-0.030	-0.050	0.690
2020/01/31 11:01:41.5	293.320	-0.010	-0.070	0.660
2020/01/31 11:01:41.6	293.320	0.010	-0.090	0.630
2020/01/31 11:01:41.7	293.320	0.030	-0.120	0.600
2020/01/31 11:01:41.8	293.320	0.050	-0.150	0.570
2020/01/31 11:01:41.9	293.320	0.070	-0.180	0.550
2020/01/31 11:01:42.0	293.330	0.090	-0.210	0.520
2020/01/31 11:01:42.1	293.330	0.110	-0.240	0.490
2020/01/31 11:01:42.2	293.330	0.130	-0.280	0.460
2020/01/31 11:01:42.3	293.330	0.150	-0.310	0.440
2020/01/31 11:01:42.4	293.340	0.170	-0.350	0.410
2020/01/31 11:01:42.5	293.340	0.190	-0.390	0.390
2020/01/31 11:01:42.6	293.350	0.210	-0.430	0.370
2020/01/31 11:01:42.7	293.350	0.230	-0.460	0.340
2020/01/31 11:01:42.8	293.360	0.250	-0.500	0.320
2020/01/31 11:01:42.9	293.360	0.260	-0.540	0.300
2020/01/31 11:01:43.0	293.370	0.280	-0.580	0.280
2020/01/31 11:01:43.1	293.380	0.300	-0.620	0.260
2020/01/31 11:01:43.2	293.390	0.320	-0.660	0.250
2020/01/31 11:01:43.3	293.390	0.330	-0.700	0.230
2020/01/31 11:01:43.4	293.400	0.350	-0.740	0.210
2020/01/31 11:01:43.5	293.410	0.360	-0.770	0.200
2020/01/31 11:01:43.6	293.420	0.370	-0.810	0.190
2020/01/31 11:01:43.7	293.430	0.380	-0.840	0.180
2020/01/31 11:01:43.8	293.440	0.400	-0.870	0.170
2020/01/31 11:01:43.9	293.450	0.410	-0.900	0.170
2020/01/31 11:01:44.0	293.470	0.410	-0.930	0.160
2020/01/31 11:01:44.1	293.480	0.420	-0.950	0.160
2020/01/31 11:01:44.2	293.490	0.430	-0.980	0.160
2020/01/31 11:01:44.3	293.510	0.430	-1.000	0.160
2020/01/31 11:01:44.4	293.520	0.440	-1.010	0.170
2020/01/31 11:01:44.5	293.540	0.440	-1.020	0.180
2020/01/31 11:01:44.6	293.560	0.440	-1.030	0.180
2020/01/31 11:01:44.7	293.580	0.440	-1.040	0.200
2020/01/31 11:01:44.8	293.590	0.440	-1.040	0.210
2020/01/31 11:01:44.9	293.610	0.430	-1.040	0.220
2020/01/31 11:01:45.0	293.620	0.430	-1.030	0.240
2020/01/31 11:01:45.1	293.640	0.430	-1.020	0.250
2020/01/31 11:01:45.2	293.660	0.420	-1.010	0.270
2020/01/31 11:01:45.3	293.670	0.410	-0.990	0.290
2020/01/31 11:01:45.4	293.690	0.400	-0.970	0.320
2020/01/31 11:01:45.5	293.700	0.390	-0.940	0.340
2020/01/31 11:01:45.6	293.720	0.380	-0.920	0.360
2020/01/31 11:01:45.7	293.730	0.370	-0.880	0.390
2020/01/31 11:01:45.8	293.740	0.360	-0.850	0.410
2020/01/31 11:01:45.9	293.760	0.340	-0.810	0.440
2020/01/31 11:01:46.0	293.770	0.330	-0.770	0.470
2020/01/31 11:01:46.1	293.780	0.310	-0.730	0.490
2020/01/31 11:01:46.2	293.780	0.300	-0.690	0.520
2020/01/31 11:01:46.3	293.790	0.280	-0.640	0.550
2020/01/31 11:01:46.4	293.800	0.260	-0.590	0.580
2020/01/31 11:01:46.5	293.810	0.240	-0.540	0.610
2020/01/31 11:01:46.6	293.810	0.220	-0.490	0.640
2020/01/31 11:01:46.7	293.810	0.200	-0.450	0.670
2020/01/31 11:01:46.8	293.810	0.180	-0.400	0.700
2020/01/31 11:01:46.9	293.810	0.160	-0.350	0.730
2020/01/31 11:01:47.0	293.810	0.140	-0.300	0.760
2020/01/31 11:01:47.1	293.800	0.120	-0.250	0.790
2020/01/31 11:01:47.2	293.800	0.100	-0.200	0.810
2020/01/31 11:01:47.3	293.790	0.080	-0.160	0.840
2020/01/31 11:01:47.4	293.780	0.060	-0.110	0.870
2020/01/31 11:01:47.5	293.770	0.040	-0.070	0.890
2020/01/31 11:01:47.6	293.750	0.020	-0.030	0.920
2020/01/31 11:01:47.7	293.740	0.000	0.010	0.940
2020/01/31 11:01:47.8	293.720	-0.020	0.050	0.960
2020/01/31 11:01:47.9	293.710	-0.040	0.080	0.980
2020/01/31 11:01:48.0	293.690	-0.060	0.120	1.000
2020/01/31 11:01:48.1	293.670	-0.080	0.150	1.020
2020/01/31 11:01:48.2	293.650	-0.100	0.180	1.040
2020/01/31 11:01:48.3	293.620	-0.110	0.210	1.050
2020/01/31 11:01:48.4	293.600	-0.130	0.240	1.060
2020/01/31 11:01:48.5	293.570	-0.150	0.270	1.080
2020/01/31 11:01:48.6	293.540	-0.170	0.300	1.080
2020/01/31 11:01:48.7	293.520	-0.190	0.320	1.090
2020/01/31 11:01:48.8	293.490	-0.200	0.340	1.100
2020/01/31 11:01:48.9	293.460	-0.220	0.360	1.100
2020/01/31 11:01:49.0	293.430	-0.230	0.380	1.100
2020/01/31 11:01:49.1	293.410	-0.250	0.400	1.090
2020/01/31 11:01:49.2	293.380	-0.260	0.410	1.090
2020/01/31 11:01:49.3	293.350	-0.280	0.430	1.080
2020/01/31 11:01:49.4	293.330	-0.290	0.440	1.070
2020/01/31 11:01:49.5	293.300	-0.300	0.440	1.050
2020/01/31 11:01:49.6	293.280	-0.310	0.440	1.030
2020/01/31 11:01:49.7	293.250	-0.320	0.450	1.010
2020/01/31 11:01:49.8	293.230	-0.330	0.450	0.990
2020/01/31 11:01:49.9	293.210	-0.340	0.450	0.960
2020/01/31 11:01:50.0	293.190	-0.350	0.440	0.930
2020/01/31 11:01:50.1	293.170	-0.350	0.440	0.900
2020/01/31 11:01:50.2	293.160	-0.360	0.430	0.870
2020/01/31 11:01:50.3	293.140	-0.360	0.420	0.840
2020/01/31 11:01:50.4	293.130	-0.360	0.410	0.800
2020/01/31 11:01:50.5	293.110	-0.370	0.390	0.760
2020/01/31 11:01:50.6	293.100	-0.370	0.380	0.720
2020/01/31 11:01:50.7	293.100	-0.370	0.360	0.680
2020/01/31 11:01:50.8	293.090	-0.370	0.340	0.640
2020/01/31 11:01:50.9	293.090	-0.360	0.320	0.600
2020/01/31 11:01:51.0	293.080	-0.360	0.300	0.560
2020/01/31 11:01:51.1	293.080	-0.360	0.280	0.520
2020/01/31 11:01:51.2	293.080	-0.350	0.250	0.470
2020/01/31 11:01:51.3	293.080	-0.350	0.230	0.430
2020/01/31 11:01:51.4	293.090	-0.340	0.200	0.390
2020/01/31 11:01:51.5	293.080	-0.340	0.180	0.350
2020/01/31 11:01:51.6	293.090	-0.330	0.150	0.310
2020/01/31 11:01:51.7	293.090	-0.320	0.120	0.270
2020/01/31 11:01:51.8	293.100	-0.310	0.090	0.230
2020/01/31 11:01:51.9	293.110	-0.310	0.060	0.190
2020/01/31 11:01:52.0	293.110	-0.300	0.030	0.150
2020/01/31 11:01:52.1	293.120	-0.290	0.000	0.120
2020/01/31 11:01:52.2	293.130	-0.280	-0.030	0.080
2020/01/31 11:01:52.3	293.140	-0.270	-0.060	0.050
2020/01/31 11:01:52.4	293.150	-0.260	-0.090	0.010
2020/01/31 11:01:52.5	293.170	-0.250	-0.130	-0.020
2020/01/31 11:01:52.6	293.180	-0.240	-0.160	-0.050
2020/01/31 11:01:52.7	293.200	-0.230	-0.200	-0.080
2020/01/31 11:01:52.8	293.210	-0.230	-0.230	-0.110
2020/01/31 11:01:52.9	293.220	-0.220	-0.260	-0.130
2020/01/31 11:01:53.0	293.230	-0.210	-0.290	-0.160
2020/01/31 11:01:53.1	293.250	-0.200	-0.330	-0.180
2020/01/31 11:01:53.2	293.260	-0.190	-0.360	-0.190
2020/01/31 11:01:53.3	293.270	-0.180	-0.390	-0.210
2020/01/31 11:01:53.4	293.280	-0.170	-0.420	-0.220
2020/01/31 11:01:53.5	293.290	-0.160	-0.450	-0.230
2020/01/31 11:01:53.6	293.310	-0.160	-0.480	-0.230
2020/01/31 11:01:53.7	293.310	-0.150	-0.500	-0.230
2020/01/31 11:01:53.8	293.320	-0.140	-0.530	-0.230
2020/01/31 11:01:53.9	293.330	-0.130	-0.550	-0.230
2020/01/31 11:01:54.0	293.340	-0.120	-0.570	-0.230
2020/01/31 11:01:54.1	293.350	-0.110	-0.590	-0.220
2020/01/31 11:01:54.2	293.360	-0.110	-0.610	-0.200
2020/01/31 11:01:54.3	293.360	-0.100	-0.620	-0.190
2020/01/31 11:01:54.4	293.370	-0.090	-0.640	-0.170
2020/01/31 11:01:54.5	293.380	-0.080	-0.650	-0.160
2020/01/31 11:01:54.6	293.390	-0.070	-0.660	-0.130
2020/01/31 11:01:54.7	293.390	-0.060	-0.670	-0.110
2020/01/31 11:01:54.8	293.400	-0.050	-0.670	-0.080
2020/01/31 11:01:54.9	293.400	-0.050	-0.680	-0.050
2020/01/31 11:01:55.0	293.410	-0.040	-0.680	-0.020
2020/01/31 11:01:55.1	293.410	-0.030	-0.690	0.010
2020/01/31 11:01:55.2	293.420	-0.020	-0.690	0.040
2020/01/31 11:01:55.3	293.420	-0.010	-0.690	0.080
2020/01/31 11:01:55.4	293.430	0.000	-0.690	0.110
2020/01/31 11:01:55.5	293.430	0.010	-0.680	0.160
2020/01/31 11:01:55.6	293.440	0.020	-0.680	0.200
2020/01/31 11:01:55.7	293.440	0.030	-0.670	0.230
2020/01/31 11:01:55.8	293.450	0.040	-0.670	0.270
2020/01/31 11:01:55.9	293.460	0.050	-0.660	0.320
2020/01/31 11:01:56.0	293.460	0.060	-0.660	0.360
2020/01/31 11:01:56.1	293.470	0.070	-0.650	0.400
2020/01/31 11:01:56.2	293.480	0.090	-0.640	0.440
2020/01/31 11:01:56.3	293.480	0.100	-0.630	0.480
2020/01/31 11:01:56.4	293.490	0.110	-0.620	0.520
2020/01/31 11:01:56.5	293.500	0.120	-0.610	0.560
2020/01/31 11:01:56.6	293.510	0.130	-0.600	0.600
2020/01/31 11:01:56.7	293.520	0.140	-0.590	0.650
2020/01/31 11:01:56.8	293.530	0.160	-0.580	0.690
2020/01/31 11:01:56.9	293.540	0.170	-0.570	0.730
2020/01/31 11:01:57.0	293.550	0.180	-0.550	0.770
2020/01/31 11:01:57.1	293.550	0.190	-0.540	0.810
2020/01/31 11:01:57.2	293.560	0.200	-0.530	0.850
2020/01/31 11:01:57.3	293.570	0.210	-0.520	0.890
2020/01/31 11:01:57.4	293.580	0.220	-0.500	0.930
2020/01/31 11:01:57.5	293.590	0.240	-0.490	0.980
2020/01/31 11:01:57.6	293.600	0.250	-0.480	1.010
2020/01/31 11:01:57.7	293.610	0.260	-0.470	1.050
2020/01/31 11:01:57.8	293.610	0.270	-0.450	1.090
2020/01/31 11:01:57.9	293.620	0.280	-0.440	1.130
2020/01/31 11:01:58.0	293.630	0.290	-0.430	1.170
2020/01/31 11:01:58.1	293.630	0.300	-0.420	1.200
2020/01/31 11:01:58.2	293.640	0.310	-0.400	1.240
2020/01/31 11:01:58.3	293.640	0.320	-0.390	1.280
2020/01/31 11:01:58.4	293.650	0.320	-0.380	1.310
2020/01/31 11:01:58.5	293.660	0.330	-0.370	1.340
2020/01/31 11:01:58.6	293.660	0.340	-0.350	1.370
2020/01/31 11:01:58.7	293.660	0.350	-0.340	1.400
2020/01/31 11:01:58.8	293.670	0.350	-0.320	1.430
2020/01/31 11:01:58.9	293.670	0.360	-0.310	1.460
2020/01/31 11:01:59.0	293.670	0.360	-0.290	1.480
2020/01/31 11:01:59.1	293.670	0.370	-0.280	1.510
2020/01/31 11:01:59.2	293.670	0.370	-0.260	1.530
2020/01/31 11:01:59.3	293.660	0.370	-0.250	1.550
2020/01/31 11:01:59.4	293.660	0.370	-0.230	1.560
2020/01/31 11:01:59.5	293.660	0.380	-0.210	1.570
2020/01/31 11:01:59.6	293.650	0.380	-0.190	1.580
2020/01/31 11:01:59.7	293.650	0.370	-0.180	1.580
2020/01/31 11:01:59.8	293.640	0.370	-0.160	1.580
2020/01/31 11:01:59.9	293.640	0.370	-0.140	1.580
2020/01/31 11:02:00.0	293.630	0.370	-0.120	1.570
2020/01/31 11:02:00.1	293.620	0.360	-0.100	1.560
2020/01/31 11:02:00.2	293.620	0.360	-0.090	1.540
2020/01/31 11:02:00.3	293.610	0.350	-0.070	1.520
2020/01/31 11:02:00.4	293.600	0.340	-0.050	1.490
2020/01/31 11:02:00.5	293.600	0.340	-0.040	1.450
2020/01/31 11:02:00.6	293.590	0.330	-0.020	1.420
2020/01/31 11:02:00.7	293.580	0.320	-0.010	1.380
2020/01/31 11:02:00.8	293.570	0.310	0.010	1.340
2020/01/31 11:02:00.9	293.570	0.300	0.020	1.290
2020/01/31 11:02:01.0	293.560	0.290	0.030	1.240
2020/01/31 11:02:01.1	293.550	0.280	0.040	1.190
2020/01/31 11:02:01.2	293.540	0.270	0.050	1.140
2020/01/31 11:02:01.3	293.540	0.260	0.060	1.080
2020/01/31 11:02:01.4	293.530	0.250	0.070	1.020
2020/01/31 11:02:01.5	293.530	0.230	0.070	0.960
2020/01/31 11:02:01.6	293.520	0.220	0.080	0.900
2020/01/31 11:02:01.7	293.520	0.210	0.080	0.840
2020/01/31 11:02:01.8	293.510	0.200	0.090	0.780
2020/01/31 11:02:01.9	293.500	0.180	0.090	0.720
2020/01/31 11:02:02.0	293.500	0.170	0.080	0.660
2020/01/31 11:02:02.1	293.490	0.160	0.080	0.600
2020/01/31 11:02:02.2	293.490	0.150	0.080	0.540
2020/01/31 11:02:02.3	293.480	0.130	0.070	0.480
2020/01/31 11:02:02.4	293.480	0.120	0.060	0.420
2020/01/31 11:02:02.5	293.470	0.110	0.050	0.360
2020/01/31 11:02:02.6	293.470	0.090	0.040	0.300
2020/01/31 11:02:02.7	293.460	0.080	0.020	0.240
2020/01/31 11:02:02.8	293.460	0.070	0.010	0.180
2020/01/31 11:02:02.9	293.460	0.050	-0.010	0.130
2020/01/31 11:02:03.0	293.460	0.040	-0.030	0.080
2020/01/31 11:02:03.1	293.460	0.020	-0.050	0.020
2020/01/31 11:02:03.2	293.450	0.010	-0.070	-0.020
2020/01/31 11:02:03.3	293.450	-0.010	-0.090	-0.070
2020/01/31 11:02:03.4	293.450	-0.020	-0.110	-0.120
2020/01/31 11:02:03.5	293.440	-0.040	-0.140	-0.160
2020/01/31 11:02:03.6	293.440	-0.060	-0.160	-0.200
2020/01/31 11:02:03.7	293.440	-0.080	-0.190	-0.240
2020/01/31 11:02:03.8	293.430	-0.090	-0.210	-0.270
2020/01/31 11:02:03.9	293.430	-0.110	-0.230	-0.310
2020/01/31 11:02:04.0	293.430	-0.130	-0.250	-0.340
2020/01/31 11:02:04.1	293.430	-0.150	-0.270	-0.360
2020/01/31 11:02:04.2	293.430	-0.170	-0.300	-0.390
2020/01/31 11:02:04.3	293.420	-0.190	-0.310	-0.410
2020/01/31 11:02:04.4	293.420	-0.220	-0.330	-0.430
2020/01/31 11:02:04.5	293.420	-0.240	-0.350	-0.450
2020/01/31 11:02:04.6	293.420	-0.260	-0.360	-0.470
2020/01/31 11:02:04.7	293.420	-0.280	-0.370	-0.480
2020/01/31 11:02:04.8	293.420	-0.300	-0.390	-0.490
2020/01/31 11:02:04.9	293.430	-0.320	-0.400	-0.500
2020/01/31 11:02:05.0	293.430	-0.350	-0.400	-0.500
2020/01/31 11:02:05.1	293.430	-0.370	-0.410	-0.500
2020/01/31 11:02:05.2	293.440	-0.390	-0.410	-0.510
2020/01/31 11:02:05.3	293.440	-0.410	-0.410	-0.500
2020/01/31 11:02:05.4	293.450	-0.430	-0.410	-0.500
2020/01/31 11:02:05.5	293.450	-0.450	-0.410	-0.500
2020/01/31 11:02:05.6	293.460	-0.470	-0.410	-0.490
2020/01/31 11:02:05.7	293.470	-0.480	-0.400	-0.480
2020/01/31 11:02:05.8	293.480	-0.500	-0.400	-0.480
2020/01/31 11:02:05.9	293.490	-0.520	-0.390	-0.470
2020/01/31 11:02:06.0	293.500	-0.530	-0.380	-0.460
2020/01/31 11:02:06.1	293.520	-0.540	-0.370	-0.450
2020/01/31 11:02:06.2	293.530	-0.560	-0.360	-0.440
2020/01/31 11:02:06.3	293.550	-0.570	-0.340	-0.430
2020/01/31 11:02:06.4	293.560	-0.570	-0.330	-0.410
2020/01/31 11:02:06.5	293.580	-0.580	-0.310	-0.400
2020/01/31 11:02:06.6	293.600	-0.590	-0.300	-0.390
2020/01/31 11:02:06.7	293.610	-0.590	-0.280	-0.370
2020/01/31 11:02:06.8	293.630	-0.600	-0.260	-0.360
2020/01/31 11:02:06.9	293.650	-0.600	-0.240	-0.340
2020/01/31 11:02:07.0	293.670	-0.600	-0.220	-0.320
2020/01/31 11:02:07.1	293.680	-0.600	-0.210	-0.300
2020/01/31 11:02:07.2	293.700	-0.600	-0.190	-0.280
2020/01/31 11:02:07.3	293.720	-0.590	-0.170	-0.260
2020/01/31 11:02:07.4	293.730	-0.580	-0.150	-0.240
2020/01/31 11:02:07.5	293.750	-0.580	-0.130	-0.220
2020/01/31 11:02:07.6	293.760	-0.570	-0.110	-0.190
2020/01/31 11:02:07.7	293.780	-0.560	-0.090	-0.170
2020/01/31 11:02:07.8	293.790	-0.550	-0.080	-0.140
2020/01/31 11:02:07.9	293.810	-0.530	-0.060	-0.120
2020/01/31 11:02:08.0	293.820	-0.520	-0.050	-0.090
2020/01/31 11:02:08.1	293.840	-0.500	-0.030	-0.060
2020/01/31 11:02:08.2	293.850	-0.480	-0.020	-0.030
2020/01/31 11:02:08.3	293.860	-0.460	-0.010	-0.000
2020/01/31 11:02:08.4	293.870	-0.440	-0.000	0.030
2020/01/31 11:02:08.5	293.880	-0.420	0.010	0.060
2020/01/31 11:02:08.6	293.890	-0.400	0.010	0.090
2020/01/31 11:02:08.7	293.890	-0.380	0.020	0.120
2020/01/31 11:02:08.8	293.900	-0.360	0.020	0.160
2020/01/31 11:02:08.9	293.910	-0.330	0.020	0.190
2020/01/31 11:02:09.0	293.910	-0.310	0.020	0.220
2020/01/31 11:02:09.1	293.910	-0.280	0.020	0.260
2020/01/31 11:02:09.2	293.910	-0.250	0.010	0.290
2020/01/31 11:02:09.3	293.910	-0.230	0.000	0.330
2020/01/31 11:02:09.4	293.910	-0.200	-0.000	0.360
2020/01/31 11:02:09.5	293.910	-0.170	-0.010	0.400
2020/01/31 11:02:09.6	293.910	-0.140	-0.020	0.430
2020/01/31 11:02:09.7	293.910	-0.120	-0.040	0.470
2020/01/31 11:02:09.8	293.900	-0.090	-0.050	0.510
2020/01/31 11:02:09.9	293.890	-0.060	-0.060	0.550
2020/01/31 11:02:10.0	293.890	-0.030	-0.080	0.590
2020/01/31 11:02:10.1	293.880	-0.000	-0.090	0.630
2020/01/31 11:02:10.2	293.870	0.030	-0.110	0.670
2020/01/31 11:02:10.3	293.860	0.050	-0.130	0.710
2020/01/31 11:02:10.4	293.850	0.080	-0.150	0.740
2020/01/31 11:02:10.5	293.840	0.110	-0.170	0.780
2020/01/31 11:02:10.6	293.830	0.140	-0.190	0.820
2020/01/31 11:02:10.7	293.820	0.170	-0.210	0.860
2020/01/31 11:02:10.8	293.810	0.190	-0.230	0.900
2020/01/31 11:02:10.9	293.790	0.220	-0.250	0.940
2020/01/31 11:02:11.0	293.780	0.250	-0.270	0.970
2020/01/31 11:02:11.1	293.760	0.270	-0.290	1.010
2020/01/31 11:02:11.2	293.750	0.300	-0.320	1.040
2020/01/31 11:02:11.3	293.740	0.320	-0.340	1.070
2020/01/31 11:02:11.4	293.720	0.350	-0.360	1.100
2020/01/31 11:02:11.5	293.710	0.370	-0.390	1.130
2020/01/31 11:02:11.6	293.690	0.390	-0.410	1.160
2020/01/31 11:02:11.7	293.680	0.410	-0.440	1.180
2020/01/31 11:02:11.8	293.670	0.440	-0.460	1.210
2020/01/31 11:02:11.9	293.650	0.460	-0.480	1.230
2020/01/31 11:02:12.0	293.640	0.480	-0.510	1.250
2020/01/31 11:02:12.1	293.630	0.500	-0.530	1.270
2020/01/31 11:02:12.2	293.610	0.510	-0.550	1.280
2020/01/31 11:02:12.3	293.600	0.530	-0.570	1.290
2020/01/31 11:02:12.4	293.590	0.550	-0.590	1.300
2020/01/31 11:02:12.5	293.590	0.560	-0.610	1.310
2020/01/31 11:02:12.6	293.580	0.580	-0.630	1.310
2020/01/31 11:02:12.7	293.570	0.590	-0.650	1.310
2020/01/31 11:02:12.8	293.560	0.600	-0.660	1.310
2020/01/31 11:02:12.9	293.550	0.610	-0.670	1.310
2020/01/31 11:02:13.0	293.540	0.620	-0.690	1.310
2020/01/31 11:02:13.1	293.530	0.620	-0.690	1.300
2020/01/31 11:02:13.2	293.530	0.630	-0.700	1.290
2020/01/31 11:02:13.3	293.520	0.630	-0.710	1.280
2020/01/31 11:02:13.4	293.520	0.630	-0.710	1.270
2020/01/31 11:02:13.5	293.510	0.630	-0.710	1.250
2020/01/31 11:02:13.6	293.510	0.630	-0.700	1.240
2020/01/31 11:02:13.7	293.500	0.630	-0.700	1.220
2020/01/31 11:02:13.8	293.500	0.620	-0.690	1.200
2020/01/31 11:02:13.9	293.490	0.620	-0.680	1.180
2020/01/31 11:02:14.0	293.490	0.610	-0.670	1.160
2020/01/31 11:02:14.1	293.490	0.600	-0.650	1.130
2020/01/31 11:02:14.2	293.490	0.580	-0.640	1.110
2020/01/31 11:02:14.3	293.490	0.570	-0.620	1.080
2020/01/31 11:02:14.4	293.490	0.550	-0.600	1.050
2020/01/31 11:02:14.5	293.490	0.540	-0.570	1.020
2020/01/31 11:02:14.6	293.490	0.520	-0.550	0.990
2020/01/31 11:02:14.7	293.490	0.500	-0.520	0.960
2020/01/31 11:02:14.8	293.490	0.470	-0.490	0.920
2020/01/31 11:02:14.9	293.490	0.450	-0.460	0.890
2020/01/31 11:02:15.0	293.490	0.430	-0.430	0.850
2020/01/31 11:02:15.1	293.490	0.400	-0.400	0.810
2020/01/31 11:02:15.2	293.490	0.370	-0.370	0.770
2020/01/31 11:02:15.3	293.490	0.340	-0.330	0.730
2020/01/31 11:02:15.4	293.490	0.320	-0.300	0.690
2020/01/31 11:02:15.5	293.480	0.290	-0.270	0.640
2020/01/31 11:02:15.6	293.480	0.260	-0.240	0.590
2020/01/31 11:02:15.7	293.480	0.220	-0.210	0.550
2020/01/31 11:02:15.8	293.490	0.190	-0.180	0.500
2020/01/31 11:02:15.9	293.490	0.160	-0.150	0.450
2020/01/31 11:02:16.0	293.490	0.130	-0.130	0.400
2020/01/31 11:02:16.1	293.500	0.100	-0.100	0.360
2020/01/31 11:02:16.2	293.500	0.060	-0.080	0.310
2020/01/31 11:02:16.3	293.500	0.030	-0.060	0.260
2020/01/31 11:02:16.4	293.510	0.000	-0.040	0.210
2020/01/31 11:02:16.5	293.500	-0.030	-0.030	0.150
2020/01/31 11:02:16.6	293.510	-0.060	-0.020	0.110
2020/01/31 11:02:16.7	293.510	-0.090	-0.010	0.060
2020/01/31 11:02:16.8	293.520	-0.120	0.000	0.010
2020/01/31 11:02:16.9	293.520	-0.150	0.010	-0.030
2020/01/31 11:02:17.0	293.530	-0.180	0.020	-0.080
2020/01/31 11:02:17.1	293.530	-0.210	0.020	-0.120
2020/01/31 11:02:17.2	293.540	-0.240	0.020	-0.160
2020/01/31 11:02:17.3	293.540	-0.260	0.020	-0.200
2020/01/31 11:02:17.4	293.550	-0.290	0.020	-0.240
2020/01/31 11:02:17.5	293.550	-0.310	0.020	-0.280
2020/01/31 11:02:17.6	293.560	-0.340	0.020	-0.310
2020/01/31 11:02:17.7	293.560	-0.360	0.020	-0.340
2020/01/31 11:02:17.8	293.570	-0.380	0.020	-0.360
2020/01/31 11:02:17.9	293.570	-0.400	0.010	-0.390
2020/01/31 11:02:18.0	293.570	-0.420	0.010	-0.410
2020/01/31 11:02:18.1	293.580	-0.440	0.010	-0.430
2020/01/31 11:02:18.2	293.580	-0.460	0.000	-0.440
2020/01/31 11:02:18.3	293.590	-0.470	0.000	-0.450
2020/01/31 11:02:18.4	293.590	-0.490	-0.000	-0.460
2020/01/31 11:02:18.5	293.590	-0.500	-0.000	-0.470
2020/01/31 11:02:18.6	293.600	-0.510	-0.010	-0.470
2020/01/31 11:02:18.7	293.600	-0.520	-0.010	-0.470
2020/01/31 11:02:18.8	293.600	-0.530	-0.010	-0.470
2020/01/31 11:02:18.9	293.610	-0.540	-0.020	-0.470
2020/01/31 11:02:19.0	293.610	-0.550	-0.020	-0.460
2020/01/31 11:02:19.1	293.620	-0.550	-0.020	-0.450
2020/01/31 11:02:19.2	293.620	-0.550	-0.030	-0.430
2020/01/31 11:02:19.3	293.620	-0.560	-0.030	-0.420
2020/01/31 11:02:19.4	293.620	-0.560	-0.030	-0.400
2020/01/31 11:02:19.5	293.630	-0.560	-0.040	-0.380
2020/01/31 11:02:19.6	293.630	-0.550	-0.040	-0.350
2020/01/31 11:02:19.7	293.640	-0.550	-0.040	-0.330
2020/01/31 11:02:19.8	293.640	-0.540	-0.050	-0.300
2020/01/31 11:02:19.9	293.640	-0.540	-0.050	-0.270
2020/01/31 11:02:20.0	293.640	-0.530	-0.060	-0.240
2020/01/31 11:02:20.1	293.640	-0.520	-0.060	-0.210
2020/01/31 11:02:20.2	293.640	-0.510	-0.060	-0.170
2020/01/31 11:02:20.3	293.640	-0.490	-0.070	-0.130
2020/01/31 11:02:20.4	293.650	-0.480	-0.070	-0.100
2020/01/31 11:02:20.5	293.650	-0.460	-0.080	-0.060
2020/01/31 11:02:20.6	293.650	-0.440	-0.080	-0.020
2020/01/31 11:02:20.7	293.650	-0.430	-0.090	0.030
2020/01/31 11:02:20.8	293.650	-0.410	-0.090	0.070
2020/01/31 11:02:20.9	293.640	-0.390	-0.100	0.120
2020/01/31 11:02:21.0	293.640	-0.370	-0.100	0.160
2020/01/31 11:02:21.1	293.640	-0.340	-0.110	0.210
2020/01/31 11:02:21.2	293.640	-0.320	-0.110	0.260
2020/01/31 11:02:21.3	293.640	-0.300	-0.110	0.310
2020/01/31 11:02:21.4	293.640	-0.270	-0.120	0.360
2020/01/31 11:02:21.5	293.630	-0.250	-0.120	0.410
2020/01/31 11:02:21.6	293.630	-0.230	-0.120	0.460
2020/01/31 11:02:21.7	293.630	-0.200	-0.130	0.500
2020/01/31 11:02:21.8	293.630	-0.180	-0.130	0.550
2020/01/31 11:02:21.9	293.620	-0.150	-0.130	0.600
2020/01/31 11:02:22.0	293.620	-0.130	-0.140	0.650
2020/01/31 11:02:22.1	293.620	-0.100	-0.140	0.690
2020/01/31 11:02:22.2	293.610	-0.080	-0.140	0.740
2020/01/31 11:02:22.3	293.610	-0.060	-0.150	0.780
2020/01/31 11:02:22.4	293.610	-0.030	-0.150	0.820
2020/01/31 11:02:22.5	293.610	-0.010	-0.150	0.860
2020/01/31 11:02:22.6	293.610	0.010	-0.150	0.890
2020/01/31 11:02:22.7	293.610	0.030	-0.150	0.930
2020/01/31 11:02:22.8	293.600	0.050	-0.150	0.960
2020/01/31 11:02:22.9	293.600	0.070	-0.160	0.990
2020/01/31 11:02:23.0	293.600	0.090	-0.160	1.020
2020/01/31 11:02:23.1	293.600	0.110	-0.160	1.050
2020/01/31 11:02:23.2	293.600	0.120	-0.160	1.070
2020/01/31 11:02:23.3	293.590	0.140	-0.160	1.090
2020/01/31 11:02:23.4	293.590	0.150	-0.160	1.110
2020/01/31 11:02:23.5	293.590	0.170	-0.170	1.130
2020/01/31 11:02:23.6	293.580	0.180	-0.170	1.140
2020/01/31 11:02:23.7	293.580	0.190	-0.170	1.150
2020/01/31 11:02:23.8	293.580	0.200	-0.180	1.160
2020/01/31 11:02:23.9	293.570	0.210	-0.180	1.170
2020/01/31 11:02:24.0	293.570	0.220	-0.190	1.170
2020/01/31 11:02:24.1	293.570	0.230	-0.190	1.170
2020/01/31 11:02:24.2	293.560	0.230	-0.200	1.180
2020/01/31 11:02:24.3	293.560	0.240	-0.210	1.170
2020/01/31 11:02:24.4	293.550	0.240	-0.210	1.170
2020/01/31 11:02:24.5	293.550	0.250	-0.220	1.160
2020/01/31 11:02:24.6	293.550	0.250	-0.230	1.160
2020/01/31 11:02:24.7	293.540	0.250	-0.240	1.150
2020/01/31 11:02:24.8	293.540	0.260	-0.250	1.140
2020/01/31 11:02:24.9	293.530	0.260	-0.260	1.130
2020/01/31 11:02:25.0	293.520	0.260	-0.280	1.120
2020/01/31 11:02:25.1	293.520	0.260	-0.290	1.110
2020/01/31 11:02:25.2	293.510	0.260	-0.300	1.100
2020/01/31 11:02:25.3	293.500	0.260	-0.320	1.080
2020/01/31 11:02:25.4	293.500	0.260	-0.340	1.070
2020/01/31 11:02:25.5	293.470	0.260	-0.360	1.060
2020/01/31 11:02:25.6	293.460	0.270	-0.370	1.040
2020/01/31 11:02:25.7	293.460	0.270	-0.390	1.030
2020/01/31 11:02:25.8	293.450	0.270	-0.410	1.010
2020/01/31 11:02:25.9	293.440	0.270	-0.440	0.990
2020/01/31 11:02:26.0	293.440	0.270	-0.460	0.980
2020/01/31 11:02:26.1	293.430	0.270	-0.480	0.960
2020/01/31 11:02:26.2	293.420	0.270	-0.510	0.940
2020/01/31 11:02:26.3	293.410	0.270	-0.530	0.920
2020/01/31 11:02:26.4	293.410	0.270	-0.560	0.900
2020/01/31 11:02:26.5	293.400	0.270	-0.580	0.880
2020/01/31 11:02:26.6	293.390	0.280	-0.610	0.860
2020/01/31 11:02:26.7	293.390	0.280	-0.630	0.850
2020/01/31 11:02:26.8	293.380	0.280	-0.650	0.830
2020/01/31 11:02:26.9	293.370	0.280	-0.680	0.810
2020/01/31 11:02:27.0	293.360	0.280	-0.700	0.790
2020/01/31 11:02:27.1	293.360	0.280	-0.720	0.770
2020/01/31 11:02:27.2	293.350	0.280	-0.740	0.760
2020/01/31 11:02:27.3	293.350	0.290	-0.760	0.740
2020/01/31 11:02:27.4	293.340	0.290	-0.770	0.720
2020/01/31 11:02:27.5	293.340	0.290	-0.790	0.710
2020/01/31 11:02:27.6	293.330	0.290	-0.800	0.700
2020/01/31 11:02:27.7	293.330	0.280	-0.810	0.680
2020/01/31 11:02:27.8	293.320	0.280	-0.810	0.670
2020/01/31 11:02:27.9	293.320	0.280	-0.820	0.650
2020/01/31 11:02:28.0	293.320	0.280	-0.820	0.640
2020/01/31 11:02:28.1	293.310	0.270	-0.820	0.630
2020/01/31 11:02:28.2	293.310	0.270	-0.810	0.620
2020/01/31 11:02:28.3	293.310	0.260	-0.810	0.610
2020/01/31 11:02:28.4	293.310	0.260	-0.800	0.590
2020/01/31 11:02:28.5	293.310	0.250	-0.780	0.580
2020/01/31 11:02:28.6	293.310	0.240	-0.770	0.570
2020/01/31 11:02:28.7	293.310	0.230	-0.750	0.550
2020/01/31 11:02:28.8	293.310	0.220	-0.730	0.540
2020/01/31 11:02:28.9	293.310	0.210	-0.700	0.520
2020/01/31 11:02:29.0	293.320	0.190	-0.670	0.510
2020/01/31 11:02:29.1	293.320	0.180	-0.640	0.490
2020/01/31 11:02:29.2	293.330	0.160	-0.610	0.470
2020/01/31 11:02:29.3	293.340	0.150	-0.580	0.460
2020/01/31 11:02:29.4	293.340	0.130	-0.540	0.440
2020/01/31 11:02:29.5	293.360	0.110	-0.500	0.420
2020/01/31 11:02:29.6	293.370	0.090	-0.460	0.400
2020/01/31 11:02:29.7	293.380	0.070	-0.410	0.370
2020/01/31 11:02:29.8	293.390	0.050	-0.370	0.350
2020/01/31 11:02:29.9	293.400	0.020	-0.320	0.330
2020/01/31 11:02:30.0	293.420	0.000	-0.270	0.310
2020/01/31 11:02:30.1	293.430	-0.020	-0.220	0.280
2020/01/31 11:02:30.2	293.450	-0.050	-0.170	0.260
2020/01/31 11:02:30.3	293.460	-0.070	-0.120	0.240
2020/01/31 11:02:30.4	293.480	-0.100	-0.070	0.210
2020/01/31 11:02:30.5	293.500	-0.120	-0.020	0.190
2020/01/31 11:02:30.6	293.510	-0.150	0.030	0.160
2020/01/31 11:02:30.7	293.530	-0.170	0.080	0.140
2020/01/31 11:02:30.8	293.550	-0.190	0.120	0.110
2020/01/31 11:02:30.9	293.570	-0.220	0.170	0.090
2020/01/31 11:02:31.0	293.590	-0.240	0.210	0.070
2020/01/31 11:02:31.1	293.600	-0.260	0.250	0.040
2020/01/31 11:02:31.2	293.620	-0.280	0.290	0.020
2020/01/31 11:02:31.3	293.640	-0.290	0.320	-0.000
2020/01/31 11:02:31.4	293.660	-0.310	0.350	-0.030
2020/01/31 11:02:31.5	293.680	-0.320	0.370	-0.050
2020/01/31 11:02:31.6	293.700	-0.340	0.400	-0.070
2020/01/31 11:02:31.7	293.720	-0.350	0.410	-0.080
2020/01/31 11:02:31.8	293.740	-0.360	0.430	-0.100
2020/01/31 11:02:31.9	293.760	-0.360	0.440	-0.120
2020/01/31 11:02:32.0	293.780	-0.370	0.440	-0.140
2020/01/31 11:02:32.1	293.800	-0.370	0.440	-0.150
2020/01/31 11:02:32.2	293.820	-0.370	0.440	-0.160
2020/01/31 11:02:32.3	293.830	-0.360	0.430	-0.170
2020/01/31 11:02:32.4	293.850	-0.360	0.420	-0.180
2020/01/31 11:02:32.5	293.870	-0.350	0.410	-0.190
2020/01/31 11:02:32.6	293.880	-0.340	0.390	-0.190
2020/01/31 11:02:32.7	293.890	-0.330	0.360	-0.200
2020/01/31 11:02:32.8	293.910	-0.320	0.340	-0.200
2020/01/31 11:02:32.9	293.920	-0.310	0.310	-0.190
2020/01/31 11:02:33.0	293.930	-0.290	0.280	-0.190
2020/01/31 11:02:33.1	293.940	-0.270	0.240	-0.180
2020/01/31 11:02:33.2	293.940	-0.250	0.210	-0.170
2020/01/31 11:02:33.3	293.950	-0.230	0.170	-0.150
2020/01/31 11:02:33.4	293.950	-0.210	0.130	-0.130
2020/01/31 11:02:33.5	293.950	-0.190	0.090	-0.110
2020/01/31 11:02:33.6	293.950	-0.170	0.050	-0.080
2020/01/31 11:02:33.7	293.950	-0.140	0.010	-0.050
2020/01/31 11:02:33.8	293.940	-0.120	-0.030	-0.020
2020/01/31 11:02:33.9	293.930	-0.100	-0.070	0.020
2020/01/31 11:02:34.0	293.920	-0.070	-0.110	0.060
2020/01/31 11:02:34.1	293.910	-0.050	-0.140	0.100
2020/01/31 11:02:34.2	293.900	-0.030	-0.180	0.140
2020/01/31 11:02:34.3	293.880	-0.010	-0.210	0.180
2020/01/31 11:02:34.4	293.860	0.010	-0.250	0.230
2020/01/31 11:02:34.5	293.840	0.030	-0.270	0.280
2020/01/31 11:02:34.6	293.820	0.050	-0.300	0.320
2020/01/31 11:02:34.7	293.800	0.070	-0.330	0.370
2020/01/31 11:02:34.8	293.770	0.080	-0.350	0.420
2020/01/31 11:02:34.9	293.740	0.100	-0.370	0.470
2020/01/31 11:02:35.0	293.720	0.110	-0.390	0.520
2020/01/31 11:02:35.1	293.690	0.120	-0.400	0.570
2020/01/31 11:02:35.2	293.660	0.130	-0.410	0.610
2020/01/31 11:02:35.3	293.630	0.130	-0.410	0.660
2020/01/31 11:02:35.4	293.600	0.140	-0.420	0.710
2020/01/31 11:02:35.5	293.570	0.140	-0.420	0.750
2020/01/31 11:02:35.6	293.530	0.140	-0.420	0.790
2020/01/31 11:02:35.7	293.500	0.150	-0.410	0.840
2020/01/31 11:02:35.8	293.470	0.140	-0.400	0.880
2020/01/31 11:02:35.9	293.440	0.140	-0.390	0.920
2020/01/31 11:02:36.0	293.410	0.140	-0.380	0.950
2020/01/31 11:02:36.1	293.370	0.130	-0.360	0.990
2020/01/31 11:02:36.2	293.340	0.120	-0.350	1.020
2020/01/31 11:02:36.3	293.310	0.120	-0.330	1.050
2020/01/31 11:02:36.4	293.280	0.110	-0.310	1.080
2020/01/31 11:02:36.5	293.250	0.100	-0.290	1.110
2020/01/31 11:02:36.6	293.220	0.090	-0.270	1.140
2020/01/31 11:02:36.7	293.200	0.080	-0.250	1.160
2020/01/31 11:02:36.8	293.170	0.070	-0.230	1.180
2020/01/31 11:02:36.9	293.140	0.060	-0.210	1.190
2020/01/31 11:02:37.0	293.120	0.050	-0.200	1.210
2020/01/31 11:02:37.1	293.090	0.040	-0.180	1.220
2020/01/31 11:02:37.2	293.070	0.030	-0.170	1.230
2020/01/31 11:02:37.3	293.050	0.020	-0.150	1.230
2020/01/31 11:02:37.4	293.030	0.010	-0.140	1.240
2020/01/31 11:02:37.5	293.010	-0.000	-0.130	1.230
2020/01/31 11:02:37.6	293.000	-0.010	-0.120	1.230
2020/01/31 11:02:37.7	292.980	-0.020	-0.120	1.230
2020/01/31 11:02:37.8	292.970	-0.020	-0.120	1.220
2020/01/31 11:02:37.9	292.960	-0.030	-0.120	1.210
2020/01/31 11:02:38.0	292.950	-0.030	-0.120	1.200
2020/01/31 11:02:38.1	292.940	-0.030	-0.130	1.180
2020/01/31 11:02:38.2	292.930	-0.030	-0.140	1.160
2020/01/31 11:02:38.3	292.930	-0.030	-0.150	1.140
2020/01/31 11:02:38.4	292.930	-0.030	-0.170	1.120
2020/01/31 11:02:38.5	292.930	-0.030	-0.190	1.090
2020/01/31 11:02:38.6	292.930	-0.020	-0.210	1.060
2020/01/31 11:02:38.7	292.940	-0.020	-0.230	1.030
2020/01/31 11:02:38.8	292.940	-0.010	-0.260	1.000
2020/01/31 11:02:38.9	292.950	-0.000	-0.280	0.970
2020/01/31 11:02:39.0	292.950	0.010	-0.310	0.940
2020/01/31 11:02:39.1	292.960	0.020	-0.340	0.900
2020/01/31 11:02:39.2	292.970	0.030	-0.370	0.860
2020/01/31 11:02:39.3	292.980	0.050	-0.400	0.820
2020/01/31 11:02:39.4	293.000	0.060	-0.430	0.790
2020/01/31 11:02:39.5	293.010	0.070	-0.460	0.750
2020/01/31 11:02:39.6	293.030	0.090	-0.490	0.710
2020/01/31 11:02:39.7	293.050	0.110	-0.520	0.670
2020/01/31 11:02:39.8	293.060	0.120	-0.550	0.630
2020/01/31 11:02:39.9	293.080	0.140	-0.570	0.590
2020/01/31 11:02:40.0	293.100	0.160	-0.600	0.550
2020/01/31 11:02:40.1	293.120	0.170	-0.620	0.510
2020/01/31 11:02:40.2	293.140	0.190	-0.640	0.470
2020/01/31 11:02:40.3	293.160	0.200	-0.650	0.440
2020/01/31 11:02:40.4	293.180	0.220	-0.670	0.400
2020/01/31 11:02:40.5	293.200	0.230	-0.680	0.360
2020/01/31 11:02:40.6	293.230	0.250	-0.690	0.330
2020/01/31 11:02:40.7	293.250	0.260	-0.700	0.290
2020/01/31 11:02:40.8	293.270	0.270	-0.710	0.260
2020/01/31 11:02:40.9	293.300	0.280	-0.710	0.230
2020/01/31 11:02:41.0	293.320	0.290	-0.720	0.200
2020/01/31 11:02:41.1	293.340	0.290	-0.720	0.170
2020/01/31 11:02:41.2	293.360	0.300	-0.710	0.140
2020/01/31 11:02:41.3	293.390	0.300	-0.710	0.120
2020/01/31 11:02:41.4	293.410	0.310	-0.700	0.100
2020/01/31 11:02:41.5	293.430	0.310	-0.690	0.080
2020/01/31 11:02:41.6	293.450	0.310	-0.680	0.060
2020/01/31 11:02:41.7	293.460	0.300	-0.670	0.050
2020/01/31 11:02:41.8	293.480	0.300	-0.650	0.040
2020/01/31 11:02:41.9	293.500	0.290	-0.640	0.030
2020/01/31 11:02:42.0	293.520	0.290	-0.620	0.030
2020/01/31 11:02:42.1	293.530	0.280	-0.600	0.030
2020/01/31 11:02:42.2	293.540	0.260	-0.580	0.030
2020/01/31 11:02:42.3	293.560	0.250	-0.560	0.040
2020/01/31 11:02:42.4	293.560	0.240	-0.530	0.050
2020/01/31 11:02:42.5	293.570	0.220	-0.510	0.060
2020/01/31 11:02:42.6	293.580	0.200	-0.490	0.080
2020/01/31 11:02:42.7	293.580	0.180	-0.460	0.100
2020/01/31 11:02:42.8	293.580	0.160	-0.430	0.120
2020/01/31 11:02:42.9	293.590	0.140	-0.400	0.150
2020/01/31 11:02:43.0	293.580	0.120	-0.370	0.180
2020/01/31 11:02:43.1	293.580	0.100	-0.340	0.210
2020/01/31 11:02:43.2	293.580	0.070	-0.310	0.240
2020/01/31 11:02:43.3	293.570	0.050	-0.270	0.280
2020/01/31 11:02:43.4	293.560	0.020	-0.240	0.310
2020/01/31 11:02:43.5	293.550	-0.000	-0.210	0.340
2020/01/31 11:02:43.6	293.540	-0.030	-0.170	0.380
2020/01/31 11:02:43.7	293.530	-0.060	-0.140	0.410
2020/01/31 11:02:43.8	293.510	-0.080	-0.110	0.450
2020/01/31 11:02:43.9	293.500	-0.110	-0.080	0.480
2020/01/31 11:02:44.0	293.490	-0.140	-0.050	0.510
2020/01/31 11:02:44.1	293.470	-0.170	-0.020	0.540
2020/01/31 11:02:44.2	293.450	-0.190	0.020	0.570
2020/01/31 11:02:44.3	293.440	-0.220	0.040	0.600
2020/01/31 11:02:44.4	293.420	-0.240	0.070	0.630
2020/01/31 11:02:44.5	293.410	-0.270	0.100	0.660
2020/01/31 11:02:44.6	293.390	-0.290	0.120	0.680
2020/01/31 11:02:44.7	293.370	-0.320	0.150	0.700
2020/01/31 11:02:44.8	293.350	-0.340	0.170	0.730
2020/01/31 11:02:44.9	293.330	-0.360	0.190	0.740
2020/01/31 11:02:45.0	293.310	-0.380	0.210	0.760
2020/01/31 11:02:45.1	293.290	-0.400	0.230	0.780
2020/01/31 11:02:45.2	293.270	-0.420	0.250	0.790
2020/01/31 11:02:45.3	293.260	-0.430	0.260	0.800
2020/01/31 11:02:45.4	293.240	-0.440	0.270	0.810
2020/01/31 11:02:45.5	293.220	-0.460	0.280	0.820
2020/01/31 11:02:45.6	293.200	-0.470	0.290	0.820
2020/01/31 11:02:45.7	293.190	-0.480	0.290	0.820
2020/01/31 11:02:45.8	293.170	-0.480	0.290	0.820
2020/01/31 11:02:45.9	293.160	-0.480	0.280	0.820
2020/01/31 11:02:46.0	293.150	-0.490	0.270	0.810
2020/01/31 11:02:46.1	293.130	-0.490	0.260	0.800
2020/01/31 11:02:46.2	293.120	-0.480	0.250	0.790
2020/01/31 11:02:46.3	293.110	-0.480	0.230	0.780
2020/01/31 11:02:46.4	293.100	-0.470	0.220	0.770
2020/01/31 11:02:46.5	293.090	-0.460	0.190	0.750
2020/01/31 11:02:46.6	293.090	-0.450	0.170	0.730
2020/01/31 11:02:46.7	293.080	-0.430	0.140	0.710
2020/01/31 11:02:46.8	293.080	-0.410	0.110	0.700
2020/01/31 11:02:46.9	293.080	-0.390	0.080	0.680
2020/01/31 11:02:47.0	293.080	-0.370	0.050	0.660
2020/01/31 11:02:47.1	293.080	-0.340	0.010	0.640
2020/01/31 11:02:47.2	293.080	-0.320	-0.020	0.610
2020/01/31 11:02:47.3	293.090	-0.290	-0.060	0.590
2020/01/31 11:02:47.4	293.090	-0.260	-0.100	0.570
2020/01/31 11:02:47.5	293.100	-0.220	-0.130	0.550
2020/01/31 11:02:47.6	293.100	-0.190	-0.170	0.530
2020/01/31 11:02:47.7	293.110	-0.160	-0.210	0.510
2020/01/31 11:02:47.8	293.120	-0.120	-0.250	0.500
2020/01/31 11:02:47.9	293.130	-0.080	-0.280	0.480
2020/01/31 11:02:48.0	293.130	-0.050	-0.320	0.460
2020/01/31 11:02:48.1	293.140	-0.010	-0.350	0.450
2020/01/31 11:02:48.2	293.150	0.030	-0.390	0.440
2020/01/31 11:02:48.3	293.160	0.070	-0.420	0.420
2020/01/31 11:02:48.4	293.160	0.100	-0.450	0.420
2020/01/31 11:02:48.5	293.170	0.140	-0.480	0.410
2020/01/31 11:02:48.6	293.180	0.180	-0.500	0.400
2020/01/31 11:02:48.7	293.180	0.210	-0.520	0.400
2020/01/31 11:02:48.8	293.180	0.250	-0.540	0.400
2020/01/31 11:02:48.9	293.190	0.280	-0.550	0.400
2020/01/31 11:02:49.0	293.190	0.310	-0.560	0.410
2020/01/31 11:02:49.1	293.190	0.340	-0.570	0.410
2020/01/31 11:02:49.2	293.190	0.370	-0.570	0.420
2020/01/31 11:02:49.3	293.190	0.400	-0.580	0.430
2020/01/31 11:02:49.4	293.200	0.420	-0.570	0.450
2020/01/31 11:02:49.5	293.200	0.440	-0.570	0.460
2020/01/31 11:02:49.6	293.190	0.460	-0.550	0.480
2020/01/31 11:02:49.7	293.190	0.480	-0.540	0.500
2020/01/31 11:02:49.8	293.190	0.490	-0.520	0.520
2020/01/31 11:02:49.9	293.190	0.510	-0.500	0.550
2020/01/31 11:02:50.0	293.190	0.520	-0.480	0.580
2020/01/31 11:02:50.1	293.180	0.520	-0.460	0.600
2020/01/31 11:02:50.2	293.180	0.530	-0.430	0.630
2020/01/31 11:02:50.3	293.170	0.530	-0.400	0.670
2020/01/31 11:02:50.4	293.170	0.530	-0.370	0.700
2020/01/31 11:02:50.5	293.160	0.530	-0.340	0.730
2020/01/31 11:02:50.6	293.150	0.530	-0.300	0.770
2020/01/31 11:02:50.7	293.140	0.520	-0.270	0.800
2020/01/31 11:02:50.8	293.130	0.510	-0.240	0.830
2020/01/31 11:02:50.9	293.130	0.500	-0.200	0.870
2020/01/31 11:02:51.0	293.120	0.490	-0.170	0.900
2020/01/31 11:02:51.1	293.110	0.470	-0.140	0.930
2020/01/31 11:02:51.2	293.100	0.460	-0.110	0.960
2020/01/31 11:02:51.3	293.090	0.440	-0.080	0.990
2020/01/31 11:02:51.4	293.080	0.420	-0.050	1.020
2020/01/31 11:02:51.5	293.080	0.400	-0.030	1.050
2020/01/31 11:02:51.6	293.070	0.380	-0.010	1.070
2020/01/31 11:02:51.7	293.060	0.350	0.010	1.090
2020/01/31 11:02:51.8	293.060	0.330	0.030	1.110
2020/01/31 11:02:51.9	293.050	0.310	0.040	1.120
2020/01/31 11:02:52.0	293.050	0.280	0.050	1.130
2020/01/31 11:02:52.1	293.040	0.260	0.060	1.140
2020/01/31 11:02:52.2	293.040	0.230	0.070	1.150
2020/01/31 11:02:52.3	293.040	0.210	0.070	1.150
2020/01/31 11:02:52.4	293.040	0.180	0.060	1.140
2020/01/31 11:02:52.5	293.040	0.160	0.060	1.130
2020/01/31 11:02:52.6	293.040	0.130	0.050	1.120
2020/01/31 11:02:52.7	293.040	0.110	0.040	1.100
2020/01/31 11:02:52.8	293.050	0.090	0.020	1.080
2020/01/31 11:02:52.9	293.050	0.060	0.000	1.050
2020/01/31 11:02:53.0	293.050	0.040	-0.020	1.020
2020/01/31 11:02:53.1	293.060	0.020	-0.050	0.990
2020/01/31 11:02:53.2	293.060	-0.010	-0.070	0.950
2020/01/31 11:02:53.3	293.070	-0.030	-0.100	0.910
2020/01/31 11:02:53.4	293.080	-0.050	-0.140	0.860
2020/01/31 11:02:53.5	293.090	-0.070	-0.170	0.810
2020/01/31 11:02:53.6	293.100	-0.090	-0.210	0.760
2020/01/31 11:02:53.7	293.110	-0.100	-0.250	0.710
2020/01/31 11:02:53.8	293.120	-0.120	-0.280	0.650
2020/01/31 11:02:53.9	293.140	-0.140	-0.320	0.600
2020/01/31 11:02:54.0	293.150	-0.160	-0.360	0.540
2020/01/31 11:02:54.1	293.160	-0.170	-0.390	0.490
2020/01/31 11:02:54.2	293.180	-0.190	-0.430	0.430
2020/01/31 11:02:54.3	293.190	-0.200	-0.460	0.380
2020/01/31 11:02:54.4	293.210	-0.220	-0.500	0.320
2020/01/31 11:02:54.5	293.220	-0.230	-0.520	0.270
2020/01/31 11:02:54.6	293.230	-0.240	-0.550	0.220
2020/01/31 11:02:54.7	293.250	-0.260	-0.580	0.170
2020/01/31 11:02:54.8	293.260	-0.270	-0.600	0.120
2020/01/31 11:02:54.9	293.280	-0.280	-0.620	0.080
2020/01/31 11:02:55.0	293.290	-0.290	-0.640	0.030
2020/01/31 11:02:55.1	293.300	-0.310	-0.650	-0.010
2020/01/31 11:02:55.2	293.310	-0.320	-0.660	-0.050
2020/01/31 11:02:55.3	293.330	-0.330	-0.660	-0.080
2020/01/31 11:02:55.4	293.340	-0.340	-0.670	-0.110
2020/01/31 11:02:55.5	293.350	-0.350	-0.670	-0.140
2020/01/31 11:02:55.6	293.360	-0.360	-0.660	-0.170
2020/01/31 11:02:55.7	293.370	-0.370	-0.660	-0.190
2020/01/31 11:02:55.8	293.380	-0.370	-0.650	-0.200
2020/01/31 11:02:55.9	293.390	-0.380	-0.630	-0.220
2020/01/31 11:02:56.0	293.400	-0.390	-0.610	-0.230
2020/01/31 11:02:56.1	293.400	-0.390	-0.590	-0.230
2020/01/31 11:02:56.2	293.410	-0.400	-0.570	-0.240
2020/01/31 11:02:56.3	293.420	-0.400	-0.550	-0.240
2020/01/31 11:02:56.4	293.430	-0.410	-0.520	-0.230
2020/01/31 11:02:56.5	293.430	-0.410	-0.490	-0.230
2020/01/31 11:02:56.6	293.440	-0.410	-0.460	-0.220
2020/01/31 11:02:56.7	293.440	-0.410	-0.430	-0.210
2020/01/31 11:02:56.8	293.450	-0.410	-0.400	-0.200
2020/01/31 11:02:56.9	293.450	-0.410	-0.370	-0.180
2020/01/31 11:02:57.0	293.460	-0.410	-0.340	-0.170
2020/01/31 11:02:57.1	293.470	-0.400	-0.310	-0.150
2020/01/31 11:02:57.2	293.470	-0.400	-0.290	-0.140
2020/01/31 11:02:57.3	293.480	-0.390	-0.260	-0.120
2020/01/31 11:02:57.4	293.490	-0.380	-0.230	-0.100
2020/01/31 11:02:57.5	293.490	-0.370	-0.210	-0.080
2020/01/31 11:02:57.6	293.500	-0.360	-0.180	-0.060
2020/01/31 11:02:57.7	293.510	-0.350	-0.160	-0.040
2020/01/31 11:02:57.8	293.510	-0.340	-0.140	-0.020
2020/01/31 11:02:57.9	293.520	-0.320	-0.130	0.000
2020/01/31 11:02:58.0	293.530	-0.310	-0.110	0.030
2020/01/31 11:02:58.1	293.540	-0.290	-0.100	0.050
2020/01/31 11:02:58.2	293.540	-0.270	-0.090	0.080
2020/01/31 11:02:58.3	293.550	-0.250	-0.080	0.100
2020/01/31 11:02:58.4	293.550	-0.230	-0.080	0.130
2020/01/31 11:02:58.5	293.560	-0.210	-0.070	0.160
2020/01/31 11:02:58.6	293.560	-0.190	-0.070	0.190
2020/01/31 11:02:58.7	293.570	-0.170	-0.080	0.220
2020/01/31 11:02:58.8	293.570	-0.140	-0.080	0.250
2020/01/31 11:02:58.9	293.570	-0.120	-0.090	0.290
2020/01/31 11:02:59.0	293.570	-0.090	-0.100	0.320
2020/01/31 11:02:59.1	293.580	-0.070	-0.110	0.360
2020/01/31 11:02:59.2	293.580	-0.040	-0.120	0.400
2020/01/31 11:02:59.3	293.580	-0.010	-0.140	0.430
2020/01/31 11:02:59.4	293.580	0.010	-0.160	0.470
2020/01/31 11:02:59.5	293.570	0.040	-0.170	0.510
2020/01/31 11:02:59.6	293.570	0.070	-0.190	0.550
2020/01/31 11:02:59.7	293.570	0.100	-0.210	0.590
2020/01/31 11:02:59.8	293.570	0.120	-0.230	0.630
2020/01/31 11:02:59.9	293.570	0.150	-0.260	0.670
2020/01/31 11:03:00.0	293.570	0.180	-0.280	0.710
2020/01/31 11:03:00.1	293.570	0.210	-0.300	0.740
2020/01/31 11:03:00.2	293.570	0.230	-0.320	0.780
2020/01/31 11:03:00.3	293.570	0.260	-0.340	0.820
2020/01/31 11:03:00.4	293.570	0.280	-0.360	0.850
2020/01/31 11:03:00.5	293.570	0.310	-0.380	0.890
2020/01/31 11:03:00.6	293.570	0.330	-0.400	0.920
2020/01/31 11:03:00.7	293.570	0.350	-0.420	0.950
2020/01/31 11:03:00.8	293.560	0.370	-0.430	0.980
2020/01/31 11:03:00.9	293.560	0.390	-0.440	1.010
2020/01/31 11:03:01.0	293.560	0.410	-0.450	1.040
2020/01/31 11:03:01.1	293.550	0.420	-0.450	1.070
2020/01/31 11:03:01.2	293.550	0.440	-0.460	1.090
2020/01/31 11:03:01.3	293.540	0.450	-0.460	1.120
2020/01/31 11:03:01.4	293.540	0.460	-0.450	1.140
2020/01/31 11:03:01.5	293.530	0.470	-0.450	1.160
2020/01/31 11:03:01.6	293.520	0.480	-0.440	1.180
2020/01/31 11:03:01.7	293.510	0.480	-0.420	1.190
2020/01/31 11:03:01.8	293.500	0.480	-0.410	1.210
2020/01/31 11:03:01.9	293.490	0.480	-0.390	1.220
2020/01/31 11:03:02.0	293.470	0.480	-0.370	1.230
2020/01/31 11:03:02.1	293.460	0.480	-0.340	1.230
2020/01/31 11:03:02.2	293.440	0.470	-0.320	1.230
2020/01/31 11:03:02.3	293.420	0.460	-0.290	1.230
2020/01/31 11:03:02.4	293.410	0.450	-0.260	1.230
2020/01/31 11:03:02.5	293.390	0.440	-0.240	1.220
2020/01/31 11:03:02.6	293.370	0.430	-0.200	1.210
2020/01/31 11:03:02.7	293.350	0.410	-0.170	1.200
2020/01/31 11:03:02.8	293.330	0.390	-0.140	1.180
2020/01/31 11:03:02.9	293.310	0.370	-0.110	1.160
2020/01/31 11:03:03.0	293.290	0.350	-0.080	1.140
2020/01/31 11:03:03.1	293.270	0.320	-0.040	1.120
2020/01/31 11:03:03.2	293.260	0.300	-0.010	1.090
2020/01/31 11:03:03.3	293.240	0.270	0.020	1.060
2020/01/31 11:03:03.4	293.220	0.250	0.050	1.030
2020/01/31 11:03:03.5	293.200	0.220	0.080	1.000
2020/01/31 11:03:03.6	293.180	0.190	0.100	0.970
2020/01/31 11:03:03.7	293.160	0.160	0.130	0.930
2020/01/31 11:03:03.8	293.150	0.130	0.150	0.890
2020/01/31 11:03:03.9	293.140	0.100	0.170	0.850
2020/01/31 11:03:04.0	293.120	0.060	0.190	0.820
2020/01/31 11:03:04.1	293.110	0.030	0.210	0.780
2020/01/31 11:03:04.2	293.100	0.000	0.220	0.730
2020/01/31 11:03:04.3	293.090	-0.030	0.240	0.690
2020/01/31 11:03:04.4	293.080	-0.060	0.250	0.650
2020/01/31 11:03:04.5	293.060	-0.090	0.260	0.610
2020/01/31 11:03:04.6	293.060	-0.110	0.260	0.570
2020/01/31 11:03:04.7	293.050	-0.140	0.270	0.530
2020/01/31 11:03:04.8	293.040	-0.160	0.270	0.480
2020/01/31 11:03:04.9	293.040	-0.190	0.270	0.440
2020/01/31 11:03:05.0	293.030	-0.210	0.260	0.400
2020/01/31 11:03:05.1	293.030	-0.230	0.260	0.350
2020/01/31 11:03:05.2	293.030	-0.250	0.250	0.310
2020/01/31 11:03:05.3	293.030	-0.270	0.240	0.260
2020/01/31 11:03:05.4	293.030	-0.280	0.220	0.220
2020/01/31 11:03:05.5	293.040	-0.290	0.210	0.170
2020/01/31 11:03:05.6	293.040	-0.300	0.190	0.130
2020/01/31 11:03:05.7	293.050	-0.310	0.170	0.090
2020/01/31 11:03:05.8	293.060	-0.320	0.140	0.050
2020/01/31 11:03:05.9	293.060	-0.330	0.120	0.010
2020/01/31 11:03:06.0	293.080	-0.330	0.090	-0.030
2020/01/31 11:03:06.1	293.090	-0.330	0.070	-0.070
2020/01/31 11:03:06.2	293.100	-0.330	0.040	-0.110
2020/01/31 11:03:06.3	293.120	-0.330	0.010	-0.150
2020/01/31 11:03:06.4	293.130	-0.320	-0.030	-0.180
2020/01/31 11:03:06.5	293.150	-0.320	-0.060	-0.220
2020/01/31 11:03:06.6	293.170	-0.310	-0.090	-0.250
2020/01/31 11:03:06.7	293.190	-0.300	-0.130	-0.280
2020/01/31 11:03:06.8	293.210	-0.300	-0.160	-0.310
2020/01/31 11:03:06.9	293.230	-0.290	-0.200	-0.340
2020/01/31 11:03:07.0	293.260	-0.270	-0.230	-0.370
2020/01/31 11:03:07.1	293.280	-0.260	-0.270	-0.390
2020/01/31 11:03:07.2	293.300	-0.250	-0.300	-0.420
2020/01/31 11:03:07.3	293.330	-0.240	-0.340	-0.440
2020/01/31 11:03:07.4	293.350	-0.220	-0.370	-0.450
2020/01/31 11:03:07.5	293.370	-0.210	-0.410	-0.470
2020/01/31 11:03:07.6	293.390	-0.200	-0.450	-0.480
2020/01/31 11:03:07.7	293.420	-0.180	-0.480	-0.490
2020/01/31 11:03:07.8	293.440	-0.170	-0.510	-0.490
2020/01/31 11:03:07.9	293.460	-0.150	-0.540	-0.500
2020/01/31 11:03:08.0	293.490	-0.140	-0.570	-0.490
2020/01/31 11:03:08.1	293.510	-0.120	-0.600	-0.490
2020/01/31 11:03:08.2	293.530	-0.110	-0.630	-0.480
2020/01/31 11:03:08.3	293.550	-0.090	-0.650	-0.470
2020/01/31 11:03:08.4	293.570	-0.080	-0.680	-0.450
2020/01/31 11:03:08.5	293.580	-0.060	-0.700	-0.430
2020/01/31 11:03:08.6	293.600	-0.050	-0.720	-0.410
2020/01/31 11:03:08.7	293.620	-0.030	-0.740	-0.390
2020/01/31 11:03:08.8	293.640	-0.020	-0.760	-0.360
2020/01/31 11:03:08.9	293.650	-0.010	-0.770	-0.340
2020/01/31 11:03:09.0	293.670	0.010	-0.790	-0.310
2020/01/31 11:03:09.1	293.690	0.020	-0.800	-0.280
2020/01/31 11:03:09.2	293.700	0.030	-0.810	-0.250
2020/01/31 11:03:09.3	293.720	0.040	-0.810	-0.220
2020/01/31 11:03:09.4	293.740	0.050	-0.820	-0.180
2020/01/31 11:03:09.5	293.750	0.060	-0.810	-0.150
2020/01/31 11:03:09.6	293.760	0.070	-0.810	-0.110
2020/01/31 11:03:09.7	293.780	0.080	-0.810	-0.080
2020/01/31 11:03:09.8	293.790	0.090	-0.800	-0.040
2020/01/31 11:03:09.9	293.800	0.100	-0.790	-0.000
2020/01/31 11:03:10.0	293.810	0.100	-0.780	0.040
2020/01/31 11:03:10.1	293.820	0.110	-0.760	0.080
2020/01/31 11:03:10.2	293.830	0.110	-0.740	0.120
2020/01/31 11:03:10.3	293.840	0.120	-0.720	0.160
2020/01/31 11:03:10.4	293.840	0.120	-0.700	0.200
2020/01/31 11:03:10.5	293.840	0.120	-0.670	0.250
2020/01/31 11:03:10.6	293.850	0.120	-0.650	0.290
2020/01/31 11:03:10.7	293.850	0.120	-0.620	0.340
2020/01/31 11:03:10.8	293.850	0.120	-0.580	0.380
2020/01/31 11:03:10.9	293.850	0.120	-0.550	0.420
2020/01/31 11:03:11.0	293.840	0.120	-0.520	0.460
2020/01/31 11:03:11.1	293.840	0.120	-0.490	0.510
2020/01/31 11:03:11.2	293.840	0.110	-0.450	0.550
2020/01/31 11:03:11.3	293.830	0.110	-0.420	0.590
2020/01/31 11:03:11.4	293.820	0.100	-0.380	0.630
2020/01/31 11:03:11.5	293.810	0.100	-0.350	0.670
2020/01/31 11:03:11.6	293.800	0.090	-0.320	0.710
2020/01/31 11:03:11.7	293.790	0.090	-0.280	0.750
2020/01/31 11:03:11.8	293.780	0.080	-0.250	0.780
2020/01/31 11:03:11.9	293.770	0.080	-0.220	0.820
2020/01/31 11:03:12.0	293.760	0.070	-0.190	0.860
2020/01/31 11:03:12.1	293.750	0.060	-0.160	0.890
2020/01/31 11:03:12.2	293.730	0.060	-0.140	0.930
2020/01/31 11:03:12.3	293.720	0.050	-0.120	0.960
2020/01/31 11:03:12.4	293.700	0.050	-0.100	1.000
2020/01/31 11:03:12.5	293.680	0.040	-0.070	1.030
2020/01/31 11:03:12.6	293.660	0.040	-0.060	1.070
2020/01/31 11:03:12.7	293.650	0.030	-0.040	1.100
2020/01/31 11:03:12.8	293.630	0.030	-0.030	1.130
2020/01/31 11:03:12.9	293.610	0.020	-0.020	1.160
2020/01/31 11:03:13.0	293.590	0.020	-0.010	1.190
2020/01/31 11:03:13.1	293.560	0.020	-0.010	1.210
2020/01/31 11:03:13.2	293.540	0.010	-0.000	1.240
2020/01/31 11:03:13.3	293.520	0.010	0.000	1.260
2020/01/31 11:03:13.4	293.500	0.010	0.000	1.280
2020/01/31 11:03:13.5	293.470	0.010	-0.000	1.300
2020/01/31 11:03:13.6	293.450	0.010	-0.010	1.320
2020/01/31 11:03:13.7	293.420	0.010	-0.010	1.330
2020/01/31 11:03:13.8	293.400	0.010	-0.010	1.350
2020/01/31 11:03:13.9	293.380	0.010	-0.020	1.360
2020/01/31 11:03:14.0	293.360	0.010	-0.030	1.360
2020/01/31 11:03:14.1	293.340	0.010	-0.040	1.370
2020/01/31 11:03:14.2	293.310	0.010	-0.050	1.370
2020/01/31 11:03:14.3	293.290	0.010	-0.060	1.370
2020/01/31 11:03:14.4	293.270	0.010	-0.070	1.360
2020/01/31 11:03:14.5	293.260	0.010	-0.080	1.360
2020/01/31 11:03:14.6	293.240	0.020	-0.090	1.350
2020/01/31 11:03:14.7	293.220	0.020	-0.100	1.340
2020/01/31 11:03:14.8	293.200	0.020	-0.110	1.320
2020/01/31 11:03:14.9	293.180	0.020	-0.120	1.310
2020/01/31 11:03:15.0	293.170	0.020	-0.130	1.290
2020/01/31 11:03:15.1	293.150	0.030	-0.130	1.270
2020/01/31 11:03:15.2	293.140	0.030	-0.140	1.250
2020/01/31 11:03:15.3	293.120	0.030	-0.150	1.220
2020/01/31 11:03:15.4	293.110	0.030	-0.150	1.200
2020/01/31 11:03:15.5	293.110	0.040	-0.160	1.170
2020/01/31 11:03:15.6	293.100	0.040	-0.160	1.140
2020/01/31 11:03:15.7	293.090	0.040	-0.160	1.110
2020/01/31 11:03:15.8	293.080	0.040	-0.160	1.080
2020/01/31 11:03:15.9	293.070	0.040	-0.160	1.050
2020/01/31 11:03:16.0	293.060	0.040	-0.160	1.020
2020/01/31 11:03:16.1	293.050	0.040	-0.160	0.990
2020/01/31 11:03:16.2	293.040	0.040	-0.150	0.960
2020/01/31 11:03:16.3	293.040	0.040	-0.150	0.920
2020/01/31 11:03:16.4	293.030	0.030	-0.140	0.890
2020/01/31 11:03:16.5	293.030	0.030	-0.140	0.860
2020/01/31 11:03:16.6	293.020	0.030	-0.140	0.820
2020/01/31 11:03:16.7	293.020	0.020	-0.130	0.790
2020/01/31 11:03:16.8	293.010	0.020	-0.120	0.760
2020/01/31 11:03:16.9	293.010	0.020	-0.120	0.720
2020/01/31 11:03:17.0	293.000	0.010	-0.110	0.690
2020/01/31 11:03:17.1	293.000	0.010	-0.110	0.650
2020/01/31 11:03:17.2	293.000	-0.000	-0.110	0.610
2020/01/31 11:03:17.3	292.990	-0.010	-0.100	0.580
2020/01/31 11:03:17.4	292.990	-0.010	-0.100	0.540
2020/01/31 11:03:17.5	292.990	-0.020	-0.110	0.500
2020/01/31 11:03:17.6	292.990	-0.030	-0.110	0.460
2020/01/31 11:03:17.7	292.990	-0.040	-0.110	0.420
2020/01/31 11:03:17.8	292.990	-0.040	-0.110	0.380
2020/01/31 11:03:17.9	292.990	-0.050	-0.110	0.340
2020/01/31 11:03:18.0	293.000	-0.060	-0.120	0.300
2020/01/31 11:03:18.1	293.000	-0.070	-0.130	0.260
2020/01/31 11:03:18.2	293.010	-0.070	-0.130	0.220
2020/01/31 11:03:18.3	293.010	-0.080	-0.140	0.180
2020/01/31 11:03:18.4	293.020	-0.090	-0.150	0.140
2020/01/31 11:03:18.5	293.030	-0.090	-0.170	0.090
2020/01/31 11:03:18.6	293.040	-0.100	-0.180	0.050
2020/01/31 11:03:18.7	293.050	-0.110	-0.190	0.010
2020/01/31 11:03:18.8	293.060	-0.110	-0.200	-0.030
2020/01/31 11:03:18.9	293.080	-0.120	-0.210	-0.070
2020/01/31 11:03:19.0	293.090	-0.120	-0.220	-0.100
2020/01/31 11:03:19.1	293.110	-0.130	-0.230	-0.140
2020/01/31 11:03:19.2	293.130	-0.130	-0.250	-0.170
2020/01/31 11:03:19.3	293.140	-0.130	-0.260	-0.210
2020/01/31 11:03:19.4	293.160	-0.130	-0.270	-0.240
2020/01/31 11:03:19.5	293.180	-0.140	-0.280	-0.270
2020/01/31 11:03:19.6	293.200	-0.140	-0.290	-0.300
2020/01/31 11:03:19.7	293.230	-0.140	-0.300	-0.330
2020/01/31 11:03:19.8	293.250	-0.140	-0.310	-0.350
2020/01/31 11:03:19.9	293.280	-0.130	-0.320	-0.380
2020/01/31 11:03:20.0	293.310	-0.130	-0.330	-0.400
2020/01/31 11:03:20.1	293.340	-0.130	-0.340	-0.430
2020/01/31 11:03:20.2	293.370	-0.120	-0.350	-0.450
2020/01/31 11:03:20.3	293.400	-0.120	-0.360	-0.470
2020/01/31 11:03:20.4	293.430	-0.110	-0.370	-0.500
2020/01/31 11:03:20.5	293.470	-0.110	-0.380	-0.520
2020/01/31 11:03:20.6	293.510	-0.100	-0.380	-0.540
2020/01/31 11:03:20.7	293.550	-0.090	-0.390	-0.550
2020/01/31 11:03:20.8	293.590	-0.080	-0.400	-0.570
2020/01/31 11:03:20.9	293.630	-0.070	-0.400	-0.580
2020/01/31 11:03:21.0	293.670	-0.060	-0.400	-0.590
2020/01/31 11:03:21.1	293.710	-0.050	-0.410	-0.600
2020/01/31 11:03:21.2	293.750	-0.040	-0.410	-0.610
2020/01/31 11:03:21.3	293.790	-0.020	-0.410	-0.610
2020/01/31 11:03:21.4	293.830	-0.010	-0.400	-0.610
2020/01/31 11:03:21.5	293.880	-0.000	-0.400	-0.610
2020/01/31 11:03:21.6	293.910	0.010	-0.400	-0.600
2020/01/31 11:03:21.7	293.950	0.020	-0.390	-0.590
2020/01/31 11:03:21.8	293.990	0.040	-0.390	-0.580
2020/01/31 11:03:21.9	294.020	0.050	-0.380	-0.560
2020/01/31 11:03:22.0	294.060	0.060	-0.370	-0.540
2020/01/31 11:03:22.1	294.090	0.070	-0.360	-0.510
2020/01/31 11:03:22.2	294.110	0.080	-0.350	-0.480
2020/01/31 11:03:22.3	294.140	0.090	-0.330	-0.440
2020/01/31 11:03:22.4	294.160	0.100	-0.320	-0.410
2020/01/31 11:03:22.5	294.180	0.110	-0.310	-0.370
2020/01/31 11:03:22.6	294.200	0.120	-0.290	-0.320
2020/01/31 11:03:22.7	294.220	0.120	-0.270	-0.270
2020/01/31 11:03:22.8	294.230	0.130	-0.260	-0.220
2020/01/31 11:03:22.9	294.240	0.130	-0.240	-0.170
2020/01/31 11:03:23.0	294.250	0.140	-0.220	-0.110
2020/01/31 11:03:23.1	294.260	0.140	-0.200	-0.060
2020/01/31 11:03:23.2	294.260	0.140	-0.180	0.000
2020/01/31 11:03:23.3	294.270	0.140	-0.160	0.070
2020/01/31 11:03:23.4	294.260	0.150	-0.140	0.130
2020/01/31 11:03:23.5	294.260	0.140	-0.110	0.200
2020/01/31 11:03:23.6	294.250	0.140	-0.090	0.270
2020/01/31 11:03:23.7	294.240	0.140	-0.070	0.340
2020/01/31 11:03:23.8	294.230	0.140	-0.050	0.410
2020/01/31 11:03:23.9	294.220	0.140	-0.040	0.480
2020/01/31 11:03:24.0	294.200	0.130	-0.020	0.550
2020/01/31 11:03:24.1	294.180	0.130	-0.000	0.630
2020/01/31 11:03:24.2	294.160	0.120	0.010	0.700
2020/01/31 11:03:24.3	294.130	0.120	0.030	0.770
2020/01/31 11:03:24.4	294.100	0.110	0.040	0.840
2020/01/31 11:03:24.5	294.080	0.100	0.050	0.910
2020/01/31 11:03:24.6	294.040	0.090	0.060	0.980
2020/01/31 11:03:24.7	294.010	0.090	0.070	1.050
2020/01/31 11:03:24.8	293.970	0.080	0.070	1.110
2020/01/31 11:03:24.9	293.930	0.070	0.070	1.170
2020/01/31 11:03:25.0	293.890	0.060	0.070	1.230
2020/01/31 11:03:25.1	293.850	0.050	0.060	1.280
2020/01/31 11:03:25.2	293.810	0.040	0.060	1.330
2020/01/31 11:03:25.3	293.760	0.030	0.050	1.380
2020/01/31 11:03:25.4	293.720	0.030	0.040	1.420
2020/01/31 11:03:25.5	293.680	0.020	0.020	1.460
2020/01/31 11:03:25.6	293.630	0.010	0.000	1.490
2020/01/31 11:03:25.7	293.580	0.000	-0.020	1.520
2020/01/31 11:03:25.8	293.540	-0.010	-0.040	1.540
2020/01/31 11:03:25.9	293.490	-0.010	-0.070	1.560
2020/01/31 11:03:26.0	293.440	-0.020	-0.090	1.580
2020/01/31 11:03:26.1	293.400	-0.030	-0.120	1.590
2020/01/31 11:03:26.2	293.350	-0.030	-0.150	1.600
2020/01/31 11:03:26.3	293.310	-0.030	-0.180	1.600
2020/01/31 11:03:26.4	293.270	-0.040	-0.210	1.600
2020/01/31 11:03:26.5	293.210	-0.040	-0.250	1.600
2020/01/31 11:03:26.6	293.170	-0.040	-0.280	1.590
2020/01/31 11:03:26.7	293.130	-0.040	-0.310	1.580
2020/01/31 11:03:26.8	293.100	-0.040	-0.340	1.570
2020/01/31 11:03:26.9	293.060	-0.040	-0.380	1.560
2020/01/31 11:03:27.0	293.020	-0.040	-0.410	1.540
2020/01/31 11:03:27.1	292.990	-0.030	-0.440	1.530
2020/01/31 11:03:27.2	292.960	-0.030	-0.470	1.500
2020/01/31 11:03:27.3	292.930	-0.020	-0.500	1.480
2020/01/31 11:03:27.4	292.900	-0.020	-0.530	1.460
2020/01/31 11:03:27.5	292.870	-0.010	-0.560	1.430
2020/01/31 11:03:27.6	292.850	-0.000	-0.590	1.400
2020/01/31 11:03:27.7	292.820	0.010	-0.620	1.360
2020/01/31 11:03:27.8	292.800	0.010	-0.640	1.330
2020/01/31 11:03:27.9	292.790	0.020	-0.670	1.290
2020/01/31 11:03:28.0	292.770	0.030	-0.690	1.250
2020/01/31 11:03:28.1	292.760	0.050	-0.710	1.210
2020/01/31 11:03:28.2	292.740	0.060	-0.730	1.170
2020/01/31 11:03:28.3	292.730	0.070	-0.750	1.120
2020/01/31 11:03:28.4	292.730	0.080	-0.770	1.080
2020/01/31 11:03:28.5	292.720	0.090	-0.780	1.030
2020/01/31 11:03:28.6	292.720	0.100	-0.790	0.980
2020/01/31 11:03:28.7	292.720	0.110	-0.800	0.930
2020/01/31 11:03:28.8	292.720	0.120	-0.810	0.880
2020/01/31 11:03:28.9	292.730	0.130	-0.820	0.820
2020/01/31 11:03:29.0	292.730	0.140	-0.820	0.770
2020/01/31 11:03:29.1	292.740	0.150	-0.820	0.720
2020/01/31 11:03:29.2	292.760	0.160	-0.820	0.660
2020/01/31 11:03:29.3	292.770	0.160	-0.820	0.610
2020/01/31 11:03:29.4	292.790	0.170	-0.810	0.550
2020/01/31 11:03:29.5	292.810	0.170	-0.800	0.500
2020/01/31 11:03:29.6	292.840	0.180	-0.790	0.440
2020/01/31 11:03:29.7	292.860	0.180	-0.780	0.380
2020/01/31 11:03:29.8	292.890	0.180	-0.760	0.330
2020/01/31 11:03:29.9	292.920	0.180	-0.740	0.270
2020/01/31 11:03:30.0	292.960	0.170	-0.720	0.210
2020/01/31 11:03:30.1	293.000	0.170	-0.700	0.160
2020/01/31 11:03:30.2	293.030	0.160	-0.680	0.100
2020/01/31 11:03:30.3	293.070	0.160	-0.650	0.040
2020/01/31 11:03:30.4	293.120	0.150	-0.620	-0.010
2020/01/31 11:03:30.5	293.160	0.140	-0.590	-0.060
2020/01/31 11:03:30.6	293.200	0.120	-0.550	-0.120
2020/01/31 11:03:30.7	293.240	0.110	-0.520	-0.160
2020/01/31 11:03:30.8	293.290	0.090	-0.480	-0.210
2020/01/31 11:03:30.9	293.340	0.080	-0.440	-0.260
2020/01/31 11:03:31.0	293.380	0.060	-0.400	-0.300
2020/01/31 11:03:31.1	293.430	0.040	-0.360	-0.340
2020/01/31 11:03:31.2	293.480	0.020	-0.320	-0.380
2020/01/31 11:03:31.3	293.520	-0.000	-0.270	-0.410
2020/01/31 11:03:31.4	293.570	-0.020	-0.230	-0.450
2020/01/31 11:03:31.5	293.620	-0.040	-0.180	-0.480
2020/01/31 11:03:31.6	293.670	-0.070	-0.140	-0.500
2020/01/31 11:03:31.7	293.720	-0.090	-0.090	-0.530
2020/01/31 11:03:31.8	293.770	-0.110	-0.040	-0.550
2020/01/31 11:03:31.9	293.820	-0.140	0.000	-0.570
2020/01/31 11:03:32.0	293.860	-0.160	0.050	-0.580
2020/01/31 11:03:32.1	293.910	-0.180	0.090	-0.600
2020/01/31 11:03:32.2	293.960	-0.200	0.130	-0.600
2020/01/31 11:03:32.3	294.000	-0.230	0.170	-0.610
2020/01/31 11:03:32.4	294.050	-0.250	0.210	-0.610
2020/01/31 11:03:32.5	294.090	-0.270	0.250	-0.610
2020/01/31 11:03:32.6	294.140	-0.290	0.280	-0.610
2020/01/31 11:03:32.7	294.180	-0.300	0.320	-0.600
2020/01/31 11:03:32.8	294.220	-0.320	0.350	-0.590
2020/01/31 11:03:32.9	294.260	-0.340	0.380	-0.570
2020/01/31 11:03:33.0	294.290	-0.350	0.410	-0.550
2020/01/31 11:03:33.1	294.330	-0.360	0.430	-0.530
2020/01/31 11:03:33.2	294.360	-0.370	0.450	-0.500
2020/01/31 11:03:33.3	294.380	-0.380	0.470	-0.470
2020/01/31 11:03:33.4	294.400	-0.390	0.490	-0.440
2020/01/31 11:03:33.5	294.420	-0.400	0.510	-0.400
2020/01/31 11:03:33.6	294.440	-0.400	0.520	-0.360
2020/01/31 11:03:33.7	294.450	-0.410	0.530	-0.320
2020/01/31 11:03:33.8	294.460	-0.410	0.530	-0.270
2020/01/31 11:03:33.9	294.460	-0.410	0.540	-0.220
2020/01/31 11:03:34.0	294.460	-0.410	0.540	-0.170
2020/01/31 11:03:34.1	294.460	-0.400	0.530	-0.120
2020/01/31 11:03:34.2	294.460	-0.400	0.530	-0.060
2020/01/31 11:03:34.3	294.450	-0.390	0.520	-0.000
2020/01/31 11:03:34.4	294.430	-0.380	0.510	0.050
2020/01/31 11:03:34.5	294.410	-0.370	0.490	0.120
2020/01/31 11:03:34.6	294.390	-0.360	0.470	0.180
2020/01/31 11:03:34.7	294.370	-0.350	0.460	0.240
2020/01/31 11:03:34.8	294.350	-0.330	0.430	0.300
2020/01/31 11:03:34.9	294.320	-0.320	0.410	0.360
2020/01/31 11:03:35.0	294.290	-0.300	0.380	0.420
2020/01/31 11:03:35.1	294.260	-0.280	0.350	0.480
2020/01/31 11:03:35.2	294.220	-0.260	0.310	0.540
2020/01/31 11:03:35.3	294.180	-0.240	0.280	0.600
2020/01/31 11:03:35.4	294.150	-0.220	0.240	0.650
2020/01/31 11:03:35.5	294.100	-0.200	0.200	0.710
2020/01/31 11:03:35.6	294.060	-0.170	0.160	0.760
2020/01/31 11:03:35.7	294.020	-0.150	0.110	0.810
2020/01/31 11:03:35.8	293.980	-0.120	0.070	0.870
2020/01/31 11:03:35.9	293.930	-0.100	0.020	0.910
2020/01/31 11:03:36.0	293.890	-0.070	-0.020	0.960
2020/01/31 11:03:36.1	293.840	-0.040	-0.070	1.000
2020/01/31 11:03:36.2	293.800	-0.020	-0.120	1.050
2020/01/31 11:03:36.3	293.750	0.010	-0.170	1.080
2020/01/31 11:03:36.4	293.710	0.040	-0.220	1.120
2020/01/31 11:03:36.5	293.670	0.060	-0.260	1.160
2020/01/31 11:03:36.6	293.620	0.090	-0.310	1.190
2020/01/31 11:03:36.7	293.580	0.110	-0.350	1.210
2020/01/31 11:03:36.8	293.540	0.140	-0.400	1.240
2020/01/31 11:03:36.9	293.490	0.160	-0.440	1.260
2020/01/31 11:03:37.0	293.450	0.190	-0.480	1.280
2020/01/31 11:03:37.1	293.410	0.210	-0.520	1.300
2020/01/31 11:03:37.2	293.370	0.230	-0.550	1.310
2020/01/31 11:03:37.3	293.330	0.250	-0.590	1.320
2020/01/31 11:03:37.4	293.290	0.270	-0.620	1.330
2020/01/31 11:03:37.5	293.250	0.280	-0.650	1.340
2020/01/31 11:03:37.6	293.220	0.300	-0.680	1.350
2020/01/31 11:03:37.7	293.180	0.310	-0.700	1.350
2020/01/31 11:03:37.8	293.140	0.330	-0.730	1.350
2020/01/31 11:03:37.9	293.110	0.340	-0.750	1.350
2020/01/31 11:03:38.0	293.070	0.350	-0.760	1.350
2020/01/31 11:03:38.1	293.040	0.360	-0.780	1.350
2020/01/31 11:03:38.2	293.010	0.370	-0.790	1.340
2020/01/31 11:03:38.3	292.980	0.380	-0.800	1.330
2020/01/31 11:03:38.4	292.950	0.380	-0.800	1.320
2020/01/31 11:03:38.5	292.930	0.390	-0.810	1.310
2020/01/31 11:03:38.6	292.900	0.390	-0.810	1.300
2020/01/31 11:03:38.7	292.880	0.390	-0.810	1.280
2020/01/31 11:03:38.8	292.860	0.390	-0.810	1.270
2020/01/31 11:03:38.9	292.840	0.390	-0.810	1.250
2020/01/31 11:03:39.0	292.820	0.390	-0.810	1.230
2020/01/31 11:03:39.1	292.810	0.390	-0.800	1.200
2020/01/31 11:03:39.2	292.800	0.390	-0.790	1.180
2020/01/31 11:03:39.3	292.790	0.390	-0.790	1.150
2020/01/31 11:03:39.4	292.790	0.380	-0.780	1.120
2020/01/31 11:03:39.5	292.790	0.380	-0.770	1.090
2020/01/31 11:03:39.6	292.790	0.370	-0.770	1.060
2020/01/31 11:03:39.7	292.800	0.370	-0.760	1.020
2020/01/31 11:03:39.8	292.800	0.360	-0.750	0.980
2020/01/31 11:03:39.9	292.810	0.360	-0.740	0.940
2020/01/31 11:03:40.0	292.820	0.350	-0.730	0.900
2020/01/31 11:03:40.1	292.830	0.340	-0.720	0.860
2020/01/31 11:03:40.2	292.850	0.330	-0.720	0.810
2020/01/31 11:03:40.3	292.860	0.320	-0.710	0.770
2020/01/31 11:03:40.4	292.880	0.310	-0.700	0.720
2020/01/31 11:03:40.5	292.900	0.300	-0.690	0.670
2020/01/31 11:03:40.6	292.920	0.290	-0.680	0.620
2020/01/31 11:03:40.7	292.950	0.270	-0.670	0.570
2020/01/31 11:03:40.8	292.970	0.260	-0.660	0.520
2020/01/31 11:03:40.9	292.990	0.250	-0.650	0.470
2020/01/31 11:03:41.0	293.020	0.230	-0.640	0.410
2020/01/31 11:03:41.1	293.050	0.210	-0.620	0.360
2020/01/31 11:03:41.2	293.080	0.190	-0.610	0.310
2020/01/31 11:03:41.3	293.110	0.170	-0.600	0.250
2020/01/31 11:03:41.4	293.140	0.150	-0.580	0.200
2020/01/31 11:03:41.5	293.170	0.130	-0.560	0.140
2020/01/31 11:03:41.6	293.200	0.110	-0.540	0.090
2020/01/31 11:03:41.7	293.230	0.090	-0.520	0.030
2020/01/31 11:03:41.8	293.270	0.060	-0.500	-0.020
2020/01/31 11:03:41.9	293.300	0.040	-0.480	-0.070
2020/01/31 11:03:42.0	293.340	0.010	-0.460	-0.120
2020/01/31 11:03:42.1	293.370	-0.010	-0.440	-0.170
2020/01/31 11:03:42.2	293.410	-0.040	-0.410	-0.220
2020/01/31 11:03:42.3	293.440	-0.070	-0.390	-0.270
2020/01/31 11:03:42.4	293.470	-0.100	-0.360	-0.310
2020/01/31 11:03:42.5	293.500	-0.120	-0.330	-0.350
2020/01/31 11:03:42.6	293.530	-0.150	-0.300	-0.390
2020/01/31 11:03:42.7	293.570	-0.180	-0.270	-0.420
2020/01/31 11:03:42.8	293.600	-0.210	-0.240	-0.450
2020/01/31 11:03:42.9	293.630	-0.230	-0.210	-0.480
2020/01/31 11:03:43.0	293.660	-0.260	-0.170	-0.510
2020/01/31 11:03:43.1	293.690	-0.280	-0.140	-0.530
2020/01/31 11:03:43.2	293.720	-0.310	-0.110	-0.550
2020/01/31 11:03:43.3	293.750	-0.330	-0.070	-0.560
2020/01/31 11:03:43.4	293.780	-0.350	-0.040	-0.570
2020/01/31 11:03:43.5	293.800	-0.370	-0.010	-0.590
2020/01/31 11:03:43.6	293.830	-0.390	0.030	-0.590
2020/01/31 11:03:43.7	293.860	-0.410	0.060	-0.590
2020/01/31 11:03:43.8	293.880	-0.430	0.090	-0.580
2020/01/31 11:03:43.9	293.910	-0.440	0.120	-0.570
2020/01/31 11:03:44.0	293.930	-0.450	0.140	-0.560
2020/01/31 11:03:44.1	293.950	-0.460	0.170	-0.550
2020/01/31 11:03:44.2	293.970	-0.470	0.190	-0.530
2020/01/31 11:03:44.3	294.000	-0.470	0.210	-0.500
2020/01/31 11:03:44.4	294.010	-0.470	0.230	-0.480
2020/01/31 11:03:44.5	294.040	-0.470	0.240	-0.450
2020/01/31 11:03:44.6	294.050	-0.470	0.260	-0.420
2020/01/31 11:03:44.7	294.070	-0.470	0.270	-0.380
2020/01/31 11:03:44.8	294.080	-0.460	0.280	-0.350
2020/01/31 11:03:44.9	294.100	-0.450	0.280	-0.310
2020/01/31 11:03:45.0	294.110	-0.440	0.290	-0.270
2020/01/31 11:03:45.1	294.120	-0.430	0.290	-0.230
2020/01/31 11:03:45.2	294.130	-0.410	0.290	-0.190
2020/01/31 11:03:45.3	294.140	-0.390	0.280	-0.140
2020/01/31 11:03:45.4	294.150	-0.370	0.280	-0.100
2020/01/31 11:03:45.5	294.160	-0.350	0.270	-0.050
2020/01/31 11:03:45.6	294.160	-0.330	0.260	-0.000
2020/01/31 11:03:45.7	294.170	-0.310	0.250	0.040
2020/01/31 11:03:45.8	294.170	-0.290	0.230	0.090
2020/01/31 11:03:45.9	294.170	-0.260	0.220	0.140
2020/01/31 11:03:46.0	294.170	-0.240	0.200	0.190
2020/01/31 11:03:46.1	294.160	-0.210	0.180	0.240
2020/01/31 11:03:46.2	294.160	-0.190	0.160	0.290
2020/01/31 11:03:46.3	294.150	-0.160	0.140	0.340
2020/01/31 11:03:46.4	294.140	-0.140	0.120	0.390
2020/01/31 11:03:46.5	294.130	-0.110	0.100	0.440
2020/01/31 11:03:46.6	294.110	-0.090	0.080	0.490
2020/01/31 11:03:46.7	294.100	-0.060	0.060	0.540
2020/01/31 11:03:46.8	294.080	-0.040	0.040	0.590
2020/01/31 11:03:46.9	294.060	-0.020	0.020	0.640
2020/01/31 11:03:47.0	294.030	-0.000	-0.000	0.690
2020/01/31 11:03:47.1	294.010	0.020	-0.020	0.740
2020/01/31 11:03:47.2	293.980	0.030	-0.040	0.790
2020/01/31 11:03:47.3	293.950	0.050	-0.060	0.840
2020/01/31 11:03:47.4	293.920	0.060	-0.070	0.880
2020/01/31 11:03:47.5	293.900	0.080	-0.080	0.930
2020/01/31 11:03:47.6	293.860	0.090	-0.100	0.970
2020/01/31 11:03:47.7	293.830	0.100	-0.110	1.010
2020/01/31 11:03:47.8	293.790	0.110	-0.120	1.050
2020/01/31 11:03:47.9	293.750	0.110	-0.120	1.090
2020/01/31 11:03:48.0	293.720	0.120	-0.130	1.120
2020/01/31 11:03:48.1	293.680	0.120	-0.140	1.160
2020/01/31 11:03:48.2	293.640	0.120	-0.140	1.190
2020/01/31 11:03:48.3	293.600	0.120	-0.140	1.220
2020/01/31 11:03:48.4	293.560	0.120	-0.150	1.240
2020/01/31 11:03:48.5	293.510	0.120	-0.140	1.260
2020/01/31 11:03:48.6	293.470	0.120	-0.140	1.280
2020/01/31 11:03:48.7	293.420	0.110	-0.140	1.290
2020/01/31 11:03:48.8	293.390	0.110	-0.140	1.310
2020/01/31 11:03:48.9	293.350	0.100	-0.140	1.310
2020/01/31 11:03:49.0	293.310	0.100	-0.140	1.320
2020/01/31 11:03:49.1	293.270	0.090	-0.140	1.320
2020/01/31 11:03:49.2	293.240	0.090	-0.140	1.320
2020/01/31 11:03:49.3	293.200	0.080	-0.140	1.310
2020/01/31 11:03:49.4	293.170	0.080	-0.140	1.300
2020/01/31 11:03:49.5	293.140	0.070	-0.140	1.280
2020/01/31 11:03:49.6	293.110	0.060	-0.150	1.260
2020/01/31 11:03:49.7	293.090	0.060	-0.150	1.240
2020/01/31 11:03:49.8	293.060	0.060	-0.160	1.220
2020/01/31 11:03:49.9	293.040	0.050	-0.170	1.190
2020/01/31 11:03:50.0	293.020	0.050	-0.170	1.160
2020/01/31 11:03:50.1	293.000	0.050	-0.190	1.130
2020/01/31 11:03:50.2	292.990	0.040	-0.200	1.100
2020/01/31 11:03:50.3	292.970	0.040	-0.210	1.060
2020/01/31 11:03:50.4	292.960	0.040	-0.230	1.020
2020/01/31 11:03:50.5	292.950	0.040	-0.250	0.980
2020/01/31 11:03:50.6	292.950	0.050	-0.270	0.940
2020/01/31 11:03:50.7	292.940	0.050	-0.290	0.900
2020/01/31 11:03:50.8	292.940	0.050	-0.310	0.860
2020/01/31 11:03:50.9	292.930	0.060	-0.340	0.820
2020/01/31 11:03:51.0	292.930	0.060	-0.360	0.780
2020/01/31 11:03:51.1	292.930	0.070	-0.390	0.740
2020/01/31 11:03:51.2	292.930	0.080	-0.410	0.700
2020/01/31 11:03:51.3	292.940	0.080	-0.440	0.660
2020/01/31 11:03:51.4	292.940	0.090	-0.470	0.620
2020/01/31 11:03:51.5	292.950	0.100	-0.500	0.580
2020/01/31 11:03:51.6	292.960	0.110	-0.530	0.540
2020/01/31 11:03:51.7	292.970	0.120	-0.560	0.510
2020/01/31 11:03:51.8	292.980	0.130	-0.590	0.470
2020/01/31 11:03:51.9	292.990	0.140	-0.620	0.440
2020/01/31 11:03:52.0	293.000	0.150	-0.650	0.400
2020/01/31 11:03:52.1	293.010	0.160	-0.670	0.370
2020/01/31 11:03:52.2	293.030	0.170	-0.700	0.340
2020/01/31 11:03:52.3	293.040	0.180	-0.720	0.310
2020/01/31 11:03:52.4	293.060	0.190	-0.750	0.290
2020/01/31 11:03:52.5	293.070	0.200	-0.770	0.260
2020/01/31 11:03:52.6	293.090	0.210	-0.780	0.240
2020/01/31 11:03:52.7	293.110	0.220	-0.800	0.220
2020/01/31 11:03:52.8	293.130	0.230	-0.820	0.200
2020/01/31 11:03:52.9	293.140	0.230	-0.830	0.190
2020/01/31 11:03:53.0	293.160	0.240	-0.840	0.180
2020/01/31 11:03:53.1	293.180	0.250	-0.850	0.170
2020/01/31 11:03:53.2	293.200	0.250	-0.850	0.160
2020/01/31 11:03:53.3	293.210	0.250	-0.850	0.150
2020/01/31 11:03:53.4	293.230	0.250	-0.850	0.150
2020/01/31 11:03:53.5	293.250	0.250	-0.840	0.150
2020/01/31 11:03:53.6	293.270	0.250	-0.830	0.150
2020/01/31 11:03:53.7	293.280	0.250	-0.820	0.150
2020/01/31 11:03:53.8	293.300	0.250	-0.810	0.160
2020/01/31 11:03:53.9	293.320	0.240	-0.790	0.170
2020/01/31 11:03:54.0	293.330	0.230	-0.780	0.180
2020/01/31 11:03:54.1	293.350	0.230	-0.760	0.200
2020/01/31 11:03:54.2	293.370	0.220	-0.730	0.210
2020/01/31 11:03:54.3	293.380	0.210	-0.710	0.230
2020/01/31 11:03:54.4	293.400	0.200	-0.680	0.250
2020/01/31 11:03:54.5	293.410	0.190	-0.650	0.270
2020/01/31 11:03:54.6	293.430	0.180	-0.620	0.290
2020/01/31 11:03:54.7	293.450	0.160	-0.600	0.310
2020/01/31 11:03:54.8	293.460	0.150	-0.570	0.330
2020/01/31 11:03:54.9	293.480	0.140	-0.530	0.350
2020/01/31 11:03:55.0	293.500	0.130	-0.500	0.370
2020/01/31 11:03:55.1	293.510	0.110	-0.470	0.390
2020/01/31 11:03:55.2	293.530	0.100	-0.440	0.410
2020/01/31 11:03:55.3	293.550	0.090	-0.410	0.430
2020/01/31 11:03:55.4	293.560	0.080	-0.370	0.450
2020/01/31 11:03:55.5	293.580	0.060	-0.340	0.460
2020/01/31 11:03:55.6	293.600	0.050	-0.310	0.480
2020/01/31 11:03:55.7	293.620	0.040	-0.280	0.500
2020/01/31 11:03:55.8	293.630	0.030	-0.250	0.520
2020/01/31 11:03:55.9	293.650	0.020	-0.220	0.540
2020/01/31 11:03:56.0	293.660	0.010	-0.190	0.560
2020/01/31 11:03:56.1	293.680	-0.000	-0.160	0.570
2020/01/31 11:03:56.2	293.690	-0.010	-0.130	0.590
2020/01/31 11:03:56.3	293.710	-0.020	-0.100	0.610
2020/01/31 11:03:56.4	293.720	-0.030	-0.070	0.620
2020/01/31 11:03:56.5	293.730	-0.040	-0.040	0.640
2020/01/31 11:03:56.6	293.740	-0.050	-0.020	0.650
2020/01/31 11:03:56.7	293.750	-0.050	0.010	0.670
2020/01/31 11:03:56.8	293.760	-0.060	0.030	0.680
2020/01/31 11:03:56.9	293.770	-0.060	0.060	0.690
2020/01/31 11:03:57.0	293.780	-0.070	0.080	0.700
2020/01/31 11:03:57.1	293.790	-0.080	0.100	0.710
2020/01/31 11:03:57.2	293.790	-0.080	0.120	0.720
2020/01/31 11:03:57.3	293.800	-0.080	0.140	0.730
2020/01/31 11:03:57.4	293.800	-0.090	0.160	0.740
2020/01/31 11:03:57.5	293.800	-0.090	0.180	0.740
2020/01/31 11:03:57.6	293.800	-0.090	0.190	0.740
2020/01/31 11:03:57.7	293.800	-0.100	0.210	0.750
2020/01/31 11:03:57.8	293.800	-0.100	0.220	0.750
2020/01/31 11:03:57.9	293.800	-0.100	0.240	0.750
2020/01/31 11:03:58.0	293.790	-0.110	0.250	0.750
2020/01/31 11:03:58.1	293.790	-0.110	0.260	0.750
2020/01/31 11:03:58.2	293.780	-0.110	0.270	0.750
2020/01/31 11:03:58.3	293.770	-0.110	0.280	0.750
2020/01/31 11:03:58.4	293.770	-0.120	0.290	0.750
2020/01/31 11:03:58.5	293.750	-0.120	0.290	0.740
2020/01/31 11:03:58.6	293.740	-0.120	0.300	0.740
2020/01/31 11:03:58.7	293.730	-0.130	0.300	0.740
2020/01/31 11:03:58.8	293.710	-0.130	0.310	0.730
2020/01/31 11:03:58.9	293.690	-0.130	0.310	0.730
2020/01/31 11:03:59.0	293.680	-0.140	0.310	0.720
2020/01/31 11:03:59.1	293.660	-0.140	0.310	0.710
2020/01/31 11:03:59.2	293.640	-0.150	0.300	0.700
2020/01/31 11:03:59.3	293.620	-0.150	0.300	0.690
2020/01/31 11:03:59.4	293.600	-0.150	0.290	0.680
2020/01/31 11:03:59.5	293.570	-0.160	0.280	0.670
2020/01/31 11:03:59.6	293.550	-0.160	0.270	0.660
2020/01/31 11:03:59.7	293.520	-0.170	0.260	0.640
2020/01/31 11:03:59.8	293.500	-0.170	0.250	0.630
2020/01/31 11:03:59.9	293.470	-0.180	0.230	0.620
2020/01/31 11:04:00.0	293.450	-0.180	0.210	0.600
2020/01/31 11:04:00.1	293.420	-0.180	0.200	0.580
2020/01/31 11:04:00.2	293.400	-0.190	0.170	0.570
2020/01/31 11:04:00.3	293.370	-0.190	0.150	0.550
2020/01/31 11:04:00.4	293.350	-0.200	0.130	0.530
2020/01/31 11:04:00.5	293.320	-0.200	0.100	0.510
2020/01/31 11:04:00.6	293.300	-0.200	0.080	0.500
2020/01/31 11:04:00.7	293.270	-0.200	0.050	0.480
2020/01/31 11:04:00.8	293.240	-0.200	0.020	0.460
2020/01/31 11:04:00.9	293.220	-0.200	-0.010	0.440
2020/01/31 11:04:01.0	293.190	-0.200	-0.040	0.430
2020/01/31 11:04:01.1	293.170	-0.200	-0.070	0.410
2020/01/31 11:04:01.2	293.140	-0.200	-0.100	0.390
2020/01/31 11:04:01.3	293.120	-0.200	-0.130	0.380
2020/01/31 11:04:01.4	293.090	-0.200	-0.160	0.360
2020/01/31 11:04:01.5	293.060	-0.200	-0.200	0.350
2020/01/31 11:04:01.6	293.040	-0.190	-0.230	0.330
2020/01/31 11:04:01.7	293.020	-0.190	-0.260	0.310
2020/01/31 11:04:01.8	293.000	-0.190	-0.290	0.300
2020/01/31 11:04:01.9	292.980	-0.180	-0.330	0.280
2020/01/31 11:04:02.0	292.960	-0.180	-0.360	0.260
2020/01/31 11:04:02.1	292.940	-0.170	-0.390	0.250
2020/01/31 11:04:02.2	292.930	-0.160	-0.420	0.230
2020/01/31 11:04:02.3	292.910	-0.160	-0.450	0.210
2020/01/31 11:04:02.4	292.900	-0.150	-0.480	0.190
2020/01/31 11:04:02.5	292.890	-0.140	-0.510	0.170
2020/01/31 11:04:02.6	292.890	-0.130	-0.540	0.150
2020/01/31 11:04:02.7	292.880	-0.130	-0.570	0.120
2020/01/31 11:04:02.8	292.880	-0.120	-0.600	0.100
2020/01/31 11:04:02.9	292.880	-0.110	-0.630	0.080
2020/01/31 11:04:03.0	292.880	-0.100	-0.650	0.060
2020/01/31 11:04:03.1	292.880	-0.090	-0.680	0.030
2020/01/31 11:04:03.2	292.890	-0.080	-0.700	0.010
2020/01/31 11:04:03.3	292.890	-0.070	-0.730	-0.010
2020/01/31 11:04:03.4	292.900	-0.070	-0.750	-0.040
2020/01/31 11:04:03.5	292.910	-0.060	-0.770	-0.060
2020/01/31 11:04:03.6	292.920	-0.050	-0.780	-0.080
2020/01/31 11:04:03.7	292.930	-0.040	-0.800	-0.100
2020/01/31 11:04:03.8	292.950	-0.040	-0.810	-0.120
2020/01/31 11:04:03.9	292.960	-0.030	-0.820	-0.140
2020/01/31 11:04:04.0	292.980	-0.020	-0.820	-0.150
2020/01/31 11:04:04.1	293.000	-0.020	-0.830	-0.170
2020/01/31 11:04:04.2	293.010	-0.010	-0.830	-0.190
2020/01/31 11:04:04.3	293.030	-0.010	-0.830	-0.200
2020/01/31 11:04:04.4	293.050	-0.000	-0.820	-0.210
2020/01/31 11:04:04.5	293.070	-0.000	-0.810	-0.220
2020/01/31 11:04:04.6	293.090	0.000	-0.800	-0.230
2020/01/31 11:04:04.7	293.110	0.000	-0.790	-0.240
2020/01/31 11:04:04.8	293.130	0.010	-0.780	-0.240
2020/01/31 11:04:04.9	293.150	0.010	-0.760	-0.250
2020/01/31 11:04:05.0	293.170	0.010	-0.740	-0.250
2020/01/31 11:04:05.1	293.200	0.010	-0.720	-0.240
2020/01/31 11:04:05.2	293.220	0.010	-0.700	-0.240
2020/01/31 11:04:05.3	293.240	0.010	-0.670	-0.230
2020/01/31 11:04:05.4	293.260	0.010	-0.640	-0.220
2020/01/31 11:04:05.5	293.280	0.010	-0.620	-0.210
2020/01/31 11:04:05.6	293.300	0.020	-0.590	-0.200
2020/01/31 11:04:05.7	293.320	0.020	-0.560	-0.180
2020/01/31 11:04:05.8	293.340	0.020	-0.530	-0.160
2020/01/31 11:04:05.9	293.360	0.020	-0.490	-0.130
2020/01/31 11:04:06.0	293.370	0.020	-0.460	-0.110
2020/01/31 11:04:06.1	293.390	0.020	-0.430	-0.080
2020/01/31 11:04:06.2	293.410	0.030	-0.400	-0.040
2020/01/31 11:04:06.3	293.430	0.030	-0.370	-0.010
2020/01/31 11:04:06.4	293.450	0.030	-0.330	0.030
2020/01/31 11:04:06.5	293.460	0.040	-0.300	0.070
2020/01/31 11:04:06.6	293.480	0.040	-0.270	0.120
2020/01/31 11:04:06.7	293.500	0.050	-0.240	0.160
2020/01/31 11:04:06.8	293.510	0.060	-0.220	0.210
2020/01/31 11:04:06.9	293.530	0.060	-0.190	0.260
2020/01/31 11:04:07.0	293.540	0.070	-0.160	0.310
2020/01/31 11:04:07.1	293.560	0.080	-0.140	0.360
2020/01/31 11:04:07.2	293.570	0.090	-0.120	0.410
2020/01/31 11:04:07.3	293.590	0.100	-0.100	0.470
2020/01/31 11:04:07.4	293.600	0.110	-0.080	0.520
2020/01/31 11:04:07.5	293.610	0.120	-0.060	0.580
2020/01/31 11:04:07.6	293.620	0.130	-0.040	0.630
2020/01/31 11:04:07.7	293.630	0.150	-0.030	0.690
2020/01/31 11:04:07.8	293.640	0.160	-0.010	0.740
2020/01/31 11:04:07.9	293.650	0.170	-0.000	0.800
2020/01/31 11:04:08.0	293.650	0.180	0.010	0.860
2020/01/31 11:04:08.1	293.660	0.200	0.020	0.910
2020/01/31 11:04:08.2	293.660	0.210	0.020	0.960
2020/01/31 11:04:08.3	293.670	0.220	0.030	1.010
2020/01/31 11:04:08.4	293.670	0.240	0.040	1.060
2020/01/31 11:04:08.5	293.660	0.250	0.040	1.110
2020/01/31 11:04:08.6	293.660	0.260	0.050	1.160
2020/01/31 11:04:08.7	293.660	0.270	0.050	1.200
2020/01/31 11:04:08.8	293.650	0.280	0.050	1.250
2020/01/31 11:04:08.9	293.650	0.290	0.060	1.290
2020/01/31 11:04:09.0	293.640	0.300	0.060	1.330
2020/01/31 11:04:09.1	293.630	0.310	0.060	1.360
2020/01/31 11:04:09.2	293.620	0.310	0.070	1.390
2020/01/31 11:04:09.3	293.610	0.320	0.070	1.420
2020/01/31 11:04:09.4	293.600	0.320	0.070	1.440
2020/01/31 11:04:09.5	293.580	0.320	0.080	1.460
2020/01/31 11:04:09.6	293.570	0.320	0.080	1.480
2020/01/31 11:04:09.7	293.550	0.320	0.090	1.490
2020/01/31 11:04:09.8	293.540	0.320	0.090	1.500
2020/01/31 11:04:09.9	293.520	0.320	0.100	1.500
2020/01/31 11:04:10.0	293.500	0.310	0.100	1.500
2020/01/31 11:04:10.1	293.490	0.300	0.100	1.490
2020/01/31 11:04:10.2	293.470	0.290	0.110	1.480
2020/01/31 11:04:10.3	293.450	0.280	0.110	1.460
2020/01/31 11:04:10.4	293.430	0.270	0.110	1.440
2020/01/31 11:04:10.5	293.410	0.260	0.110	1.420
2020/01/31 11:04:10.6	293.400	0.240	0.110	1.390
2020/01/31 11:04:10.7	293.380	0.220	0.110	1.350
2020/01/31 11:04:10.8	293.360	0.210	0.110	1.310
2020/01/31 11:04:10.9	293.340	0.190	0.110	1.270
2020/01/31 11:04:11.0	293.320	0.170	0.110	1.220
2020/01/31 11:04:11.1	293.300	0.150	0.100	1.170
2020/01/31 11:04:11.2	293.280	0.130	0.100	1.110
2020/01/31 11:04:11.3	293.270	0.110	0.090	1.060
2020/01/31 11:04:11.4	293.250	0.090	0.080	1.000
2020/01/31 11:04:11.5	293.230	0.070	0.070	0.930
2020/01/31 11:04:11.6	293.210	0.050	0.060	0.870
2020/01/31 11:04:11.7	293.200	0.030	0.050	0.800
2020/01/31 11:04:11.8	293.180	0.010	0.030	0.730
2020/01/31 11:04:11.9	293.170	-0.000	0.010	0.670
2020/01/31 11:04:12.0	293.150	-0.020	-0.010	0.600
2020/01/31 11:04:12.1	293.140	-0.040	-0.030	0.540
2020/01/31 11:04:12.2	293.130	-0.050	-0.050	0.470
2020/01/31 11:04:12.3	293.120	-0.060	-0.080	0.400
2020/01/31 11:04:12.4	293.110	-0.070	-0.110	0.340
2020/01/31 11:04:12.5	293.100	-0.080	-0.140	0.270
2020/01/31 11:04:12.6	293.090	-0.090	-0.170	0.210
2020/01/31 11:04:12.7	293.080	-0.100	-0.200	0.140
2020/01/31 11:04:12.8	293.070	-0.100	-0.230	0.080
2020/01/31 11:04:12.9	293.070	-0.110	-0.260	0.020
2020/01/31 11:04:13.0	293.060	-0.110	-0.300	-0.040
2020/01/31 11:04:13.1	293.060	-0.110	-0.330	-0.100
2020/01/31 11:04:13.2	293.060	-0.110	-0.370	-0.160
2020/01/31 11:04:13.3	293.050	-0.110	-0.400	-0.210
2020/01/31 11:04:13.4	293.050	-0.110	-0.430	-0.260
2020/01/31 11:04:13.5	293.050	-0.100	-0.470	-0.320
2020/01/31 11:04:13.6	293.050	-0.100	-0.510	-0.360
2020/01/31 11:04:13.7	293.050	-0.090	-0.540	-0.410
2020/01/31 11:04:13.8	293.060	-0.090	-0.570	-0.450
2020/01/31 11:04:13.9	293.060	-0.080	-0.600	-0.490
2020/01/31 11:04:14.0	293.060	-0.080	-0.630	-0.520
2020/01/31 11:04:14.1	293.070	-0.070	-0.660	-0.560
2020/01/31 11:04:14.2	293.070	-0.060	-0.680	-0.590
2020/01/31 11:04:14.3	293.080	-0.060	-0.710	-0.610
2020/01/31 11:04:14.4	293.080	-0.050	-0.730	-0.630
2020/01/31 11:04:14.5	293.080	-0.040	-0.740	-0.650
2020/01/31 11:04:14.6	293.090	-0.040	-0.760	-0.670
2020/01/31 11:04:14.7	293.100	-0.040	-0.770	-0.680
2020/01/31 11:04:14.8	293.110	-0.030	-0.790	-0.690
2020/01/31 11:04:14.9	293.110	-0.030	-0.800	-0.690
2020/01/31 11:04:15.0	293.120	-0.030	-0.800	-0.690
2020/01/31 11:04:15.1	293.130	-0.030	-0.800	-0.690
2020/01/31 11:04:15.2	293.140	-0.030	-0.810	-0.690
2020/01/31 11:04:15.3	293.150	-0.030	-0.800	-0.680
2020/01/31 11:04:15.4	293.160	-0.030	-0.800	-0.670
2020/01/31 11:04:15.5	293.170	-0.040	-0.790	-0.660
2020/01/31 11:04:15.6	293.180	-0.040	-0.790	-0.640
2020/01/31 11:04:15.7	293.190	-0.050	-0.780	-0.620
2020/01/31 11:04:15.8	293.200	-0.060	-0.760	-0.600
2020/01/31 11:04:15.9	293.210	-0.060	-0.750	-0.570
2020/01/31 11:04:16.0	293.220	-0.070	-0.730	-0.540
2020/01/31 11:04:16.1	293.230	-0.080	-0.710	-0.510
2020/01/31 11:04:16.2	293.240	-0.090	-0.690	-0.470
2020/01/31 11:04:16.3	293.250	-0.110	-0.670	-0.430
2020/01/31 11:04:16.4	293.260	-0.120	-0.650	-0.390
2020/01/31 11:04:16.5	293.270	-0.130	-0.630	-0.350
2020/01/31 11:04:16.6	293.280	-0.140	-0.600	-0.300
2020/01/31 11:04:16.7	293.290	-0.150	-0.580	-0.250
2020/01/31 11:04:16.8	293.290	-0.170	-0.550	-0.200
2020/01/31 11:04:16.9	293.300	-0.180	-0.530	-0.150
2020/01/31 11:04:17.0	293.310	-0.190	-0.500	-0.090
2020/01/31 11:04:17.1	293.310	-0.200	-0.470	-0.040
2020/01/31 11:04:17.2	293.320	-0.220	-0.440	0.020
2020/01/31 11:04:17.3	293.330	-0.230	-0.420	0.070
2020/01/31 11:04:17.4	293.330	-0.240	-0.390	0.130
2020/01/31 11:04:17.5	293.350	-0.250	-0.360	0.190
2020/01/31 11:04:17.6	293.350	-0.260	-0.340	0.240
2020/01/31 11:04:17.7	293.360	-0.270	-0.310	0.300
2020/01/31 11:04:17.8	293.360	-0.280	-0.280	0.360
2020/01/31 11:04:17.9	293.370	-0.280	-0.260	0.410
2020/01/31 11:04:18.0	293.370	-0.290	-0.230	0.470
2020/01/31 11:04:18.1	293.370	-0.300	-0.210	0.520
2020/01/31 11:04:18.2	293.370	-0.300	-0.180	0.570
2020/01/31 11:04:18.3	293.380	-0.310	-0.160	0.620
2020/01/31 11:04:18.4	293.380	-0.310	-0.140	0.660
2020/01/31 11:04:18.5	293.380	-0.320	-0.120	0.710
2020/01/31 11:04:18.6	293.380	-0.320	-0.090	0.750
2020/01/31 11:04:18.7	293.380	-0.330	-0.070	0.800
2020/01/31 11:04:18.8	293.380	-0.330	-0.050	0.830
2020/01/31 11:04:18.9	293.380	-0.330	-0.030	0.870
2020/01/31 11:04:19.0	293.370	-0.330	-0.010	0.910
2020/01/31 11:04:19.1	293.370	-0.330	0.020	0.940
2020/01/31 11:04:19.2	293.370	-0.330	0.040	0.970
2020/01/31 11:04:19.3	293.370	-0.330	0.060	0.990
2020/01/31 11:04:19.4	293.360	-0.330	0.080	1.020
2020/01/31 11:04:19.5	293.350	-0.330	0.100	1.040
2020/01/31 11:04:19.6	293.350	-0.320	0.130	1.060
2020/01/31 11:04:19.7	293.350	-0.320	0.150	1.080
2020/01/31 11:04:19.8	293.340	-0.320	0.170	1.100
2020/01/31 11:04:19.9	293.340	-0.320	0.190	1.110
2020/01/31 11:04:20.0	293.330	-0.310	0.220	1.120
2020/01/31 11:04:20.1	293.320	-0.310	0.240	1.130
2020/01/31 11:04:20.2	293.320	-0.300	0.260	1.140
2020/01/31 11:04:20.3	293.310	-0.300	0.290	1.150
2020/01/31 11:04:20.4	293.300	-0.290	0.310	1.150
2020/01/31 11:04:20.5	293.300	-0.280	0.330	1.150
2020/01/31 11:04:20.6	293.290	-0.280	0.350	1.150
2020/01/31 11:04:20.7	293.280	-0.270	0.360	1.150
2020/01/31 11:04:20.8	293.270	-0.260	0.380	1.150
2020/01/31 11:04:20.9	293.260	-0.250	0.400	1.140
2020/01/31 11:04:21.0	293.250	-0.240	0.410	1.140
2020/01/31 11:04:21.1	293.240	-0.230	0.420	1.130
2020/01/31 11:04:21.2	293.230	-0.220	0.430	1.120
2020/01/31 11:04:21.3	293.220	-0.210	0.430	1.110
2020/01/31 11:04:21.4	293.210	-0.190	0.440	1.090
2020/01/31 11:04:21.5	293.200	-0.180	0.440	1.080
2020/01/31 11:04:21.6	293.190	-0.160	0.430	1.060
2020/01/31 11:04:21.7	293.180	-0.140	0.420	1.040
2020/01/31 11:04:21.8	293.180	-0.130	0.410	1.020
2020/01/31 11:04:21.9	293.170	-0.110	0.390	0.990
2020/01/31 11:04:22.0	293.160	-0.080	0.370	0.970
2020/01/31 11:04:22.1	293.160	-0.060	0.350	0.940
2020/01/31 11:04:22.2	293.150	-0.040	0.320	0.910
2020/01/31 11:04:22.3	293.150	-0.010	0.290	0.880
2020/01/31 11:04:22.4	293.150	0.010	0.250	0.850
2020/01/31 11:04:22.5	293.150	0.040	0.210	0.810
2020/01/31 11:04:22.6	293.140	0.070	0.170	0.780
2020/01/31 11:04:22.7	293.140	0.100	0.130	0.750
2020/01/31 11:04:22.8	293.140	0.120	0.080	0.710
2020/01/31 11:04:22.9	293.140	0.150	0.030	0.680
2020/01/31 11:04:23.0	293.150	0.180	-0.020	0.650
2020/01/31 11:04:23.1	293.150	0.220	-0.070	0.610
2020/01/31 11:04:23.2	293.150	0.250	-0.120	0.580
2020/01/31 11:04:23.3	293.150	0.280	-0.180	0.550
2020/01/31 11:04:23.4	293.150	0.310	-0.230	0.520
2020/01/31 11:04:23.5	293.150	0.340	-0.280	0.480
2020/01/31 11:04:23.6	293.160	0.370	-0.330	0.450
2020/01/31 11:04:23.7	293.160	0.390	-0.380	0.420
2020/01/31 11:04:23.8	293.160	0.420	-0.430	0.400
2020/01/31 11:04:23.9	293.160	0.450	-0.480	0.370
2020/01/31 11:04:24.0	293.170	0.470	-0.520	0.350
2020/01/31 11:04:24.1	293.170	0.500	-0.570	0.320
2020/01/31 11:04:24.2	293.170	0.520	-0.610	0.300
2020/01/31 11:04:24.3	293.170	0.540	-0.640	0.290
2020/01/31 11:04:24.4	293.180	0.550	-0.680	0.270
2020/01/31 11:04:24.5	293.170	0.570	-0.710	0.250
2020/01/31 11:04:24.6	293.180	0.580	-0.740	0.240
2020/01/31 11:04:24.7	293.180	0.590	-0.770	0.230
2020/01/31 11:04:24.8	293.180	0.600	-0.790	0.220
2020/01/31 11:04:24.9	293.180	0.610	-0.810	0.220
2020/01/31 11:04:25.0	293.180	0.610	-0.830	0.220
2020/01/31 11:04:25.1	293.180	0.620	-0.840	0.220
2020/01/31 11:04:25.2	293.170	0.620	-0.850	0.220
2020/01/31 11:04:25.3	293.170	0.610	-0.860	0.220
2020/01/31 11:04:25.4	293.170	0.610	-0.870	0.230
2020/01/31 11:04:25.5	293.160	0.600	-0.870	0.240
2020/01/31 11:04:25.6	293.150	0.590	-0.870	0.250
2020/01/31 11:04:25.7	293.150	0.580	-0.870	0.260
2020/01/31 11:04:25.8	293.140	0.560	-0.860	0.270
2020/01/31 11:04:25.9	293.140	0.550	-0.850	0.290
2020/01/31 11:04:26.0	293.130	0.530	-0.840	0.310
2020/01/31 11:04:26.1	293.130	0.510	-0.830	0.330
2020/01/31 11:04:26.2	293.120	0.490	-0.820	0.340
2020/01/31 11:04:26.3	293.110	0.460	-0.810	0.360
2020/01/31 11:04:26.4	293.110	0.440	-0.790	0.380
2020/01/31 11:04:26.5	293.100	0.420	-0.770	0.400
2020/01/31 11:04:26.6	293.090	0.390	-0.750	0.430
2020/01/31 11:04:26.7	293.090	0.360	-0.740	0.450
2020/01/31 11:04:26.8	293.080	0.340	-0.720	0.460
2020/01/31 11:04:26.9	293.070	0.310	-0.700	0.480
2020/01/31 11:04:27.0	293.070	0.280	-0.680	0.500
2020/01/31 11:04:27.1	293.070	0.250	-0.660	0.520
2020/01/31 11:04:27.2	293.060	0.220	-0.640	0.530
2020/01/31 11:04:27.3	293.060	0.200	-0.620	0.550
2020/01/31 11:04:27.4	293.060	0.170	-0.600	0.560
2020/01/31 11:04:27.5	293.060	0.140	-0.580	0.570
2020/01/31 11:04:27.6	293.060	0.110	-0.560	0.580
2020/01/31 11:04:27.7	293.070	0.090	-0.540	0.590
2020/01/31 11:04:27.8	293.070	0.060	-0.530	0.600
2020/01/31 11:04:27.9	293.070	0.040	-0.510	0.600
2020/01/31 11:04:28.0	293.070	0.020	-0.490	0.610
2020/01/31 11:04:28.1	293.080	-0.010	-0.470	0.610
2020/01/31 11:04:28.2	293.080	-0.030	-0.450	0.610
2020/01/31 11:04:28.3	293.090	-0.050	-0.440	0.610
2020/01/31 11:04:28.4	293.090	-0.070	-0.420	0.610
2020/01/31 11:04:28.5	293.100	-0.090	-0.400	0.600
2020/01/31 11:04:28.6	293.100	-0.110	-0.380	0.600
2020/01/31 11:04:28.7	293.110	-0.120	-0.360	0.590
2020/01/31 11:04:28.8	293.110	-0.140	-0.340	0.590
2020/01/31 11:04:28.9	293.120	-0.160	-0.330	0.580
2020/01/31 11:04:29.0	293.120	-0.170	-0.310	0.570
2020/01/31 11:04:29.1	293.130	-0.190	-0.290	0.570
2020/01/31 11:04:29.2	293.130	-0.200	-0.270	0.560
2020/01/31 11:04:29.3	293.140	-0.210	-0.250	0.550
2020/01/31 11:04:29.4	293.140	-0.220	-0.230	0.540
2020/01/31 11:04:29.5	293.150	-0.230	-0.210	0.530
2020/01/31 11:04:29.6	293.160	-0.250	-0.190	0.520
2020/01/31 11:04:29.7	293.160	-0.260	-0.170	0.500
2020/01/31 11:04:29.8	293.170	-0.270	-0.150	0.490
2020/01/31 11:04:29.9	293.170	-0.280	-0.130	0.480
2020/01/31 11:04:30.0	293.180	-0.280	-0.110	0.460
2020/01/31 11:04:30.1	293.180	-0.290	-0.090	0.440
2020/01/31 11:04:30.2	293.190	-0.300	-0.070	0.430
2020/01/31 11:04:30.3	293.200	-0.310	-0.050	0.410
2020/01/31 11:04:30.4	293.200	-0.320	-0.030	0.390
2020/01/31 11:04:30.5	293.200	-0.320	-0.020	0.370
2020/01/31 11:04:30.6	293.210	-0.330	0.000	0.350
2020/01/31 11:04:30.7	293.220	-0.330	0.020	0.330
2020/01/31 11:04:30.8	293.220	-0.340	0.040	0.310
2020/01/31 11:04:30.9	293.230	-0.340	0.060	0.290
2020/01/31 11:04:31.0	293.240	-0.350	0.080	0.270
2020/01/31 11:04:31.1	293.240	-0.350	0.090	0.250
2020/01/31 11:04:31.2	293.250	-0.350	0.110	0.230
2020/01/31 11:04:31.3	293.260	-0.360	0.130	0.220
2020/01/31 11:04:31.4	293.260	-0.360	0.140	0.200
2020/01/31 11:04:31.5	293.270	-0.360	0.160	0.180
2020/01/31 11:04:31.6	293.270	-0.360	0.170	0.170
2020/01/31 11:04:31.7	293.270	-0.360	0.180	0.160
2020/01/31 11:04:31.8	293.280	-0.360	0.190	0.150
2020/01/31 11:04:31.9	293.280	-0.360	0.200	0.140
2020/01/31 11:04:32.0	293.280	-0.360	0.210	0.130
2020/01/31 11:04:32.1	293.280	-0.350	0.220	0.130
2020/01/31 11:04:32.2	293.290	-0.350	0.220	0.120
2020/01/31 11:04:32.3	293.290	-0.350	0.230	0.120
2020/01/31 11:04:32.4	293.290	-0.340	0.230	0.120
2020/01/31 11:04:32.5	293.290	-0.340	0.230	0.120
2020/01/31 11:04:32.6	293.290	-0.330	0.230	0.120
2020/01/31 11:04:32.7	293.290	-0.330	0.220	0.130
2020/01/31 11:04:32.8	293.290	-0.320	0.220	0.130
2020/01/31 11:04:32.9	293.290	-0.310	0.210	0.140
2020/01/31 11:04:33.0	293.290	-0.300	0.210	0.140
2020/01/31 11:04:33.1	293.280	-0.290	0.200	0.150
2020/01/31 11:04:33.2	293.280	-0.280	0.180	0.160
2020/01/31 11:04:33.3	293.280	-0.280	0.170	0.170
2020/01/31 11:04:33.4	293.270	-0.270	0.160	0.180
2020/01/31 11:04:33.5	293.260	-0.260	0.140	0.190
2020/01/31 11:04:33.6	293.250	-0.240	0.120	0.200
2020/01/31 11:04:33.7	293.240	-0.230	0.110	0.220
2020/01/31 11:04:33.8	293.240	-0.220	0.090	0.230
2020/01/31 11:04:33.9	293.220	-0.210	0.070	0.250
2020/01/31 11:04:34.0	293.210	-0.200	0.050	0.270
2020/01/31 11:04:34.1	293.200	-0.190	0.030	0.290
2020/01/31 11:04:34.2	293.190	-0.180	0.010	0.310
2020/01/31 11:04:34.3	293.170	-0.170	-0.010	0.330
2020/01/31 11:04:34.4	293.160	-0.160	-0.030	0.350
2020/01/31 11:04:34.5	293.140	-0.140	-0.050	0.370
2020/01/31 11:04:34.6	293.120	-0.130	-0.070	0.400
2020/01/31 11:04:34.7	293.110	-0.120	-0.090	0.420
2020/01/31 11:04:34.8	293.090	-0.110	-0.110	0.440
2020/01/31 11:04:34.9	293.080	-0.100	-0.140	0.460
2020/01/31 11:04:35.0	293.060	-0.080	-0.160	0.490
2020/01/31 11:04:35.1	293.040	-0.070	-0.180	0.510
2020/01/31 11:04:35.2	293.030	-0.060	-0.200	0.530
2020/01/31 11:04:35.3	293.010	-0.040	-0.220	0.550
2020/01/31 11:04:35.4	293.000	-0.030	-0.250	0.570
2020/01/31 11:04:35.5	292.990	-0.020	-0.260	0.580
2020/01/31 11:04:35.6	292.980	-0.000	-0.280	0.600
2020/01/31 11:04:35.7	292.970	0.010	-0.310	0.620
2020/01/31 11:04:35.8	292.960	0.030	-0.330	0.630
2020/01/31 11:04:35.9	292.950	0.040	-0.350	0.650
2020/01/31 11:04:36.0	292.940	0.060	-0.360	0.660
2020/01/31 11:04:36.1	292.930	0.070	-0.380	0.680
2020/01/31 11:04:36.2	292.920	0.080	-0.400	0.690
2020/01/31 11:04:36.3	292.920	0.100	-0.420	0.700
2020/01/31 11:04:36.4	292.910	0.110	-0.430	0.710
2020/01/31 11:04:36.5	292.910	0.130	-0.450	0.720
2020/01/31 11:04:36.6	292.910	0.140	-0.470	0.730
2020/01/31 11:04:36.7	292.900	0.160	-0.480	0.730
2020/01/31 11:04:36.8	292.910	0.170	-0.490	0.740
2020/01/31 11:04:36.9	292.910	0.190	-0.500	0.740
2020/01/31 11:04:37.0	292.910	0.200	-0.510	0.750
2020/01/31 11:04:37.1	292.910	0.210	-0.520	0.750
2020/01/31 11:04:37.2	292.920	0.220	-0.530	0.750
2020/01/31 11:04:37.3	292.930	0.230	-0.540	0.750
2020/01/31 11:04:37.4	292.930	0.250	-0.550	0.750
2020/01/31 11:04:37.5	292.940	0.260	-0.550	0.750
2020/01/31 11:04:37.6	292.950	0.270	-0.550	0.750
2020/01/31 11:04:37.7	292.960	0.270	-0.560	0.750
2020/01/31 11:04:37.8	292.970	0.280	-0.560	0.750
2020/01/31 11:04:37.9	292.980	0.290	-0.560	0.740
2020/01/31 11:04:38.0	292.990	0.300	-0.560	0.740
2020/01/31 11:04:38.1	293.000	0.300	-0.560	0.740
2020/01/31 11:04:38.2	293.010	0.310	-0.560	0.740
2020/01/31 11:04:38.3	293.020	0.310	-0.560	0.730
2020/01/31 11:04:38.4	293.030	0.320	-0.550	0.730
2020/01/31 11:04:38.5	293.030	0.320	-0.550	0.730
2020/01/31 11:04:38.6	293.040	0.320	-0.540	0.730
2020/01/31 11:04:38.7	293.050	0.320	-0.540	0.730
2020/01/31 11:04:38.8	293.060	0.320	-0.530	0.740
2020/01/31 11:04:38.9	293.060	0.320	-0.520	0.740
2020/01/31 11:04:39.0	293.070	0.310	-0.520	0.750
2020/01/31 11:04:39.1	293.080	0.310	-0.510	0.750
2020/01/31 11:04:39.2	293.090	0.300	-0.500	0.760
2020/01/31 11:04:39.3	293.090	0.300	-0.490	0.770
2020/01/31 11:04:39.4	293.100	0.290	-0.470	0.780
2020/01/31 11:04:39.5	293.100	0.280	-0.460	0.780
2020/01/31 11:04:39.6	293.100	0.270	-0.450	0.790
2020/01/31 11:04:39.7	293.110	0.260	-0.440	0.810
2020/01/31 11:04:39.8	293.110	0.250	-0.420	0.820
2020/01/31 11:04:39.9	293.110	0.230	-0.410	0.830
2020/01/31 11:04:40.0	293.120	0.220	-0.390	0.840
2020/01/31 11:04:40.1	293.120	0.200	-0.380	0.850
2020/01/31 11:04:40.2	293.120	0.190	-0.360	0.870
2020/01/31 11:04:40.3	293.120	0.170	-0.350	0.880
2020/01/31 11:04:40.4	293.120	0.150	-0.330	0.890
2020/01/31 11:04:40.5	293.120	0.130	-0.310	0.900
2020/01/31 11:04:40.6	293.120	0.110	-0.300	0.910
2020/01/31 11:04:40.7	293.120	0.090	-0.280	0.920
2020/01/31 11:04:40.8	293.120	0.070	-0.260	0.920
2020/01/31 11:04:40.9	293.120	0.050	-0.250	0.930
2020/01/31 11:04:41.0	293.120	0.030	-0.230	0.940
2020/01/31 11:04:41.1	293.110	0.020	-0.220	0.950
2020/01/31 11:04:41.2	293.110	-0.000	-0.200	0.950
2020/01/31 11:04:41.3	293.110	-0.020	-0.190	0.960
2020/01/31 11:04:41.4	293.110	-0.040	-0.170	0.970
2020/01/31 11:04:41.5	293.110	-0.060	-0.160	0.970
2020/01/31 11:04:41.6	293.100	-0.070	-0.150	0.970
2020/01/31 11:04:41.7	293.100	-0.090	-0.140	0.970
2020/01/31 11:04:41.8	293.100	-0.100	-0.130	0.980
2020/01/31 11:04:41.9	293.100	-0.110	-0.130	0.970
2020/01/31 11:04:42.0	293.090	-0.120	-0.120	0.970
2020/01/31 11:04:42.1	293.090	-0.130	-0.120	0.970
2020/01/31 11:04:42.2	293.090	-0.140	-0.120	0.960
2020/01/31 11:04:42.3	293.090	-0.140	-0.120	0.960
2020/01/31 11:04:42.4	293.080	-0.150	-0.130	0.950
2020/01/31 11:04:42.5	293.080	-0.150	-0.130	0.930
2020/01/31 11:04:42.6	293.080	-0.150	-0.140	0.920
2020/01/31 11:04:42.7	293.080	-0.150	-0.150	0.900
2020/01/31 11:04:42.8	293.070	-0.150	-0.160	0.880
2020/01/31 11:04:42.9	293.070	-0.140	-0.180	0.860
2020/01/31 11:04:43.0	293.070	-0.140	-0.190	0.840
2020/01/31 11:04:43.1	293.070	-0.130	-0.210	0.820
2020/01/31 11:04:43.2	293.070	-0.120	-0.230	0.790
2020/01/31 11:04:43.3	293.070	-0.110	-0.250	0.760
2020/01/31 11:04:43.4	293.070	-0.100	-0.270	0.740
2020/01/31 11:04:43.5	293.070	-0.090	-0.280	0.710
2020/01/31 11:04:43.6	293.060	-0.070	-0.300	0.680
2020/01/31 11:04:43.7	293.060	-0.060	-0.330	0.650
2020/01/31 11:04:43.8	293.060	-0.040	-0.350	0.620
2020/01/31 11:04:43.9	293.060	-0.030	-0.360	0.580
2020/01/31 11:04:44.0	293.060	-0.010	-0.380	0.550
2020/01/31 11:04:44.1	293.060	0.000	-0.400	0.520
2020/01/31 11:04:44.2	293.050	0.020	-0.420	0.490
2020/01/31 11:04:44.3	293.050	0.040	-0.430	0.450
2020/01/31 11:04:44.4	293.050	0.050	-0.440	0.420
2020/01/31 11:04:44.5	293.040	0.070	-0.450	0.390
2020/01/31 11:04:44.6	293.030	0.080	-0.460	0.360
2020/01/31 11:04:44.7	293.030	0.100	-0.470	0.330
2020/01/31 11:04:44.8	293.030	0.110	-0.470	0.300
2020/01/31 11:04:44.9	293.020	0.120	-0.470	0.270
2020/01/31 11:04:45.0	293.020	0.130	-0.470	0.240
2020/01/31 11:04:45.1	293.020	0.140	-0.460	0.220
2020/01/31 11:04:45.2	293.010	0.150	-0.460	0.190
2020/01/31 11:04:45.3	293.010	0.160	-0.450	0.170
2020/01/31 11:04:45.4	293.010	0.160	-0.440	0.150
2020/01/31 11:04:45.5	293.010	0.170	-0.420	0.120
2020/01/31 11:04:45.6	293.000	0.170	-0.410	0.100
2020/01/31 11:04:45.7	293.000	0.170	-0.390	0.090
2020/01/31 11:04:45.8	293.000	0.170	-0.370	0.070
2020/01/31 11:04:45.9	292.990	0.160	-0.350	0.050
2020/01/31 11:04:46.0	292.990	0.160	-0.320	0.040
2020/01/31 11:04:46.1	292.980	0.150	-0.300	0.030
2020/01/31 11:04:46.2	292.980	0.140	-0.270	0.020
2020/01/31 11:04:46.3	292.980	0.130	-0.240	0.020
2020/01/31 11:04:46.4	292.970	0.120	-0.210	0.010
2020/01/31 11:04:46.5	292.970	0.110	-0.180	0.010
2020/01/31 11:04:46.6	292.970	0.100	-0.150	0.010
2020/01/31 11:04:46.7	292.960	0.080	-0.120	0.010
2020/01/31 11:04:46.8	292.960	0.070	-0.090	0.010
2020/01/31 11:04:46.9	292.950	0.050	-0.060	0.010
2020/01/31 11:04:47.0	292.950	0.030	-0.030	0.020
2020/01/31 11:04:47.1	292.950	0.020	0.000	0.030
2020/01/31 11:04:47.2	292.940	-0.000	0.030	0.040
2020/01/31 11:04:47.3	292.940	-0.020	0.060	0.050
2020/01/31 11:04:47.4	292.930	-0.040	0.090	0.060
2020/01/31 11:04:47.5	292.940	-0.050	0.120	0.080
2020/01/31 11:04:47.6	292.930	-0.070	0.140	0.090
2020/01/31 11:04:47.7	292.930	-0.090	0.170	0.110
2020/01/31 11:04:47.8	292.920	-0.100	0.190	0.130
2020/01/31 11:04:47.9	292.920	-0.120	0.210	0.150
2020/01/31 11:04:48.0	292.920	-0.130	0.220	0.170
2020/01/31 11:04:48.1	292.910	-0.150	0.240	0.190
2020/01/31 11:04:48.2	292.910	-0.160	0.250	0.220
2020/01/31 11:04:48.3	292.910	-0.170	0.260	0.240
2020/01/31 11:04:48.4	292.900	-0.180	0.260	0.260
2020/01/31 11:04:48.5	292.900	-0.190	0.260	0.280
2020/01/31 11:04:48.6	292.900	-0.200	0.260	0.310
2020/01/31 11:04:48.7	292.900	-0.200	0.250	0.330
2020/01/31 11:04:48.8	292.900	-0.210	0.250	0.350
2020/01/31 11:04:48.9	292.900	-0.210	0.230	0.370
2020/01/31 11:04:49.0	292.900	-0.210	0.220	0.390
2020/01/31 11:04:49.1	292.910	-0.210	0.200	0.410
2020/01/31 11:04:49.2	292.910	-0.210	0.180	0.430
2020/01/31 11:04:49.3	292.910	-0.210	0.160	0.440
2020/01/31 11:04:49.4	292.920	-0.200	0.130	0.460
2020/01/31 11:04:49.5	292.930	-0.200	0.110	0.470
2020/01/31 11:04:49.6	292.940	-0.190	0.080	0.480
2020/01/31 11:04:49.7	292.940	-0.180	0.040	0.500
2020/01/31 11:04:49.8	292.950	-0.180	0.010	0.510
2020/01/31 11:04:49.9	292.960	-0.170	-0.020	0.510
2020/01/31 11:04:50.0	292.970	-0.160	-0.060	0.520
2020/01/31 11:04:50.1	292.980	-0.150	-0.090	0.530
2020/01/31 11:04:50.2	292.990	-0.130	-0.130	0.530
2020/01/31 11:04:50.3	293.000	-0.120	-0.160	0.540
2020/01/31 11:04:50.4	293.010	-0.110	-0.190	0.540
2020/01/31 11:04:50.5	293.020	-0.100	-0.220	0.540
2020/01/31 11:04:50.6	293.030	-0.090	-0.260	0.540
2020/01/31 11:04:50.7	293.050	-0.080	-0.280	0.540
2020/01/31 11:04:50.8	293.060	-0.070	-0.310	0.540
2020/01/31 11:04:50.9	293.070	-0.060	-0.340	0.540
2020/01/31 11:04:51.0	293.080	-0.050	-0.360	0.530
2020/01/31 11:04:51.1	293.090	-0.040	-0.380	0.530
2020/01/31 11:04:51.2	293.110	-0.030	-0.400	0.530
2020/01/31 11:04:51.3	293.120	-0.020	-0.420	0.530
2020/01/31 11:04:51.4	293.130	-0.010	-0.430	0.520
2020/01/31 11:04:51.5	293.140	-0.000	-0.440	0.520
2020/01/31 11:04:51.6	293.150	0.000	-0.450	0.510
2020/01/31 11:04:51.7	293.160	0.010	-0.450	0.510
2020/01/31 11:04:51.8	293.170	0.010	-0.460	0.500
2020/01/31 11:04:51.9	293.180	0.010	-0.460	0.500
2020/01/31 11:04:52.0	293.190	0.020	-0.460	0.500
2020/01/31 11:04:52.1	293.200	0.020	-0.450	0.490
2020/01/31 11:04:52.2	293.200	0.020	-0.450	0.490
2020/01/31 11:04:52.3	293.210	0.020	-0.440	0.480
2020/01/31 11:04:52.4	293.220	0.020	-0.430	0.480
2020/01/31 11:04:52.5	293.220	0.020	-0.420	0.470
2020/01/31 11:04:52.6	293.220	0.020	-0.410	0.470
2020/01/31 11:04:52.7	293.230	0.020	-0.400	0.470
2020/01/31 11:04:52.8	293.230	0.010	-0.380	0.460
2020/01/31 11:04:52.9	293.240	0.010	-0.370	0.460
2020/01/31 11:04:53.0	293.240	0.010	-0.360	0.460
2020/01/31 11:04:53.1	293.240	0.010	-0.340	0.460
2020/01/31 11:04:53.2	293.240	0.000	-0.330	0.460
2020/01/31 11:04:53.3	293.240	0.000	-0.320	0.460
2020/01/31 11:04:53.4	293.240	-0.000	-0.310	0.450
2020/01/31 11:04:53.5	293.240	-0.000	-0.300	0.450
2020/01/31 11:04:53.6	293.240	-0.010	-0.290	0.450
2020/01/31 11:04:53.7	293.240	-0.010	-0.290	0.450
2020/01/31 11:04:53.8	293.240	-0.010	-0.280	0.450
2020/01/31 11:04:53.9	293.240	-0.010	-0.280	0.450
2020/01/31 11:04:54.0	293.240	-0.010	-0.280	0.440
2020/01/31 11:04:54.1	293.230	-0.010	-0.290	0.440
2020/01/31 11:04:54.2	293.230	-0.010	-0.290	0.440
2020/01/31 11:04:54.3	293.230	-0.010	-0.300	0.440
2020/01/31 11:04:54.4	293.220	-0.010	-0.310	0.430
2020/01/31 11:04:54.5	293.220	-0.010	-0.330	0.430
2020/01/31 11:04:54.6	293.210	-0.010	-0.350	0.420
2020/01/31 11:04:54.7	293.210	-0.010	-0.360	0.420
2020/01/31 11:04:54.8	293.200	-0.010	-0.380	0.420
2020/01/31 11:04:54.9	293.200	-0.000	-0.400	0.410
2020/01/31 11:04:55.0	293.190	0.000	-0.420	0.410
2020/01/31 11:04:55.1	293.180	0.010	-0.440	0.410
2020/01/31 11:04:55.2	293.180	0.010	-0.460	0.410
2020/01/31 11:04:55.3	293.170	0.020	-0.490	0.400
2020/01/31 11:04:55.4	293.160	0.020	-0.510	0.400
2020/01/31 11:04:55.5	293.150	0.030	-0.530	0.400
2020/01/31 11:04:55.6	293.140	0.030	-0.550	0.400
2020/01/31 11:04:55.7	293.130	0.040	-0.570	0.400
2020/01/31 11:04:55.8	293.120	0.050	-0.600	0.400
2020/01/31 11:04:55.9	293.110	0.050	-0.620	0.400
2020/01/31 11:04:56.0	293.100	0.060	-0.630	0.400
2020/01/31 11:04:56.1	293.090	0.070	-0.650	0.400
2020/01/31 11:04:56.2	293.080	0.080	-0.670	0.400
2020/01/31 11:04:56.3	293.070	0.080	-0.680	0.400
2020/01/31 11:04:56.4	293.050	0.090	-0.690	0.400
2020/01/31 11:04:56.5	293.050	0.100	-0.700	0.390
2020/01/31 11:04:56.6	293.030	0.100	-0.710	0.390
2020/01/31 11:04:56.7	293.020	0.110	-0.710	0.390
2020/01/31 11:04:56.8	293.010	0.110	-0.710	0.390
2020/01/31 11:04:56.9	293.000	0.120	-0.710	0.390
2020/01/31 11:04:57.0	292.990	0.120	-0.710	0.390
2020/01/31 11:04:57.1	292.980	0.130	-0.700	0.400
2020/01/31 11:04:57.2	292.960	0.130	-0.700	0.400
2020/01/31 11:04:57.3	292.950	0.130	-0.690	0.400
2020/01/31 11:04:57.4	292.940	0.130	-0.670	0.400
2020/01/31 11:04:57.5	292.930	0.130	-0.660	0.400
2020/01/31 11:04:57.6	292.920	0.130	-0.640	0.390
2020/01/31 11:04:57.7	292.910	0.130	-0.620	0.390
2020/01/31 11:04:57.8	292.900	0.130	-0.600	0.390
2020/01/31 11:04:57.9	292.890	0.130	-0.570	0.390
2020/01/31 11:04:58.0	292.880	0.130	-0.550	0.390
2020/01/31 11:04:58.1	292.870	0.120	-0.520	0.390
2020/01/31 11:04:58.2	292.860	0.120	-0.490	0.380
2020/01/31 11:04:58.3	292.860	0.110	-0.460	0.380
2020/01/31 11:04:58.4	292.850	0.110	-0.430	0.380
2020/01/31 11:04:58.5	292.850	0.100	-0.390	0.370
2020/01/31 11:04:58.6	292.840	0.100	-0.360	0.370
2020/01/31 11:04:58.7	292.840	0.090	-0.320	0.360
2020/01/31 11:04:58.8	292.840	0.090	-0.290	0.350
2020/01/31 11:04:58.9	292.830	0.080	-0.250	0.340
2020/01/31 11:04:59.0	292.830	0.070	-0.220	0.330
2020/01/31 11:04:59.1	292.840	0.070	-0.190	0.320
2020/01/31 11:04:59.2	292.840	0.060	-0.150	0.310
2020/01/31 11:04:59.3	292.840	0.060	-0.120	0.300
2020/01/31 11:04:59.4	292.850	0.050	-0.090	0.290
2020/01/31 11:04:59.5	292.860	0.040	-0.060	0.270
2020/01/31 11:04:59.6	292.870	0.040	-0.030	0.260
2020/01/31 11:04:59.7	292.880	0.030	-0.000	0.240
2020/01/31 11:04:59.8	292.890	0.030	0.020	0.230
2020/01/31 11:04:59.9	292.900	0.020	0.050	0.210
2020/01/31 11:05:00.0	292.910	0.020	0.070	0.190
2020/01/31 11:05:00.1	292.930	0.020	0.090	0.170
2020/01/31 11:05:00.2	292.950	0.010	0.110	0.150
2020/01/31 11:05:00.3	292.960	0.010	0.120	0.130
2020/01/31 11:05:00.4	292.980	0.010	0.140	0.110
2020/01/31 11:05:00.5	293.000	0.000	0.150	0.100
2020/01/31 11:05:00.6	293.030	0.000	0.160	0.070
2020/01/31 11:05:00.7	293.050	-0.000	0.170	0.050
2020/01/31 11:05:00.8	293.080	-0.000	0.180	0.030
2020/01/31 11:05:00.9	293.100	-0.010	0.180	0.010
2020/01/31 11:05:01.0	293.130	-0.010	0.190	-0.010
2020/01/31 11:05:01.1	293.160	-0.010	0.190	-0.020
2020/01/31 11:05:01.2	293.180	-0.020	0.200	-0.040
2020/01/31 11:05:01.3	293.210	-0.020	0.200	-0.060
2020/01/31 11:05:01.4	293.240	-0.020	0.200	-0.070
2020/01/31 11:05:01.5	293.270	-0.030	0.200	-0.090
2020/01/31 11:05:01.6	293.300	-0.030	0.200	-0.100
2020/01/31 11:05:01.7	293.320	-0.040	0.200	-0.110
2020/01/31 11:05:01.8	293.350	-0.040	0.200	-0.110
2020/01/31 11:05:01.9	293.380	-0.050	0.200	-0.120
2020/01/31 11:05:02.0	293.400	-0.050	0.200	-0.120
2020/01/31 11:05:02.1	293.430	-0.060	0.200	-0.120
2020/01/31 11:05:02.2	293.450	-0.060	0.200	-0.120
2020/01/31 11:05:02.3	293.470	-0.070	0.210	-0.110
2020/01/31 11:05:02.4	293.490	-0.080	0.210	-0.100
2020/01/31 11:05:02.5	293.510	-0.080	0.220	-0.090
2020/01/31 11:05:02.6	293.530	-0.090	0.220	-0.080
2020/01/31 11:05:02.7	293.540	-0.090	0.230	-0.060
2020/01/31 11:05:02.8	293.560	-0.100	0.230	-0.040
2020/01/31 11:05:02.9	293.570	-0.110	0.240	-0.020
2020/01/31 11:05:03.0	293.590	-0.110	0.240	0.010
2020/01/31 11:05:03.1	293.600	-0.120	0.240	0.040
2020/01/31 11:05:03.2	293.610	-0.120	0.250	0.070
2020/01/31 11:05:03.3	293.610	-0.130	0.250	0.100
2020/01/31 11:05:03.4	293.620	-0.130	0.250	0.130
2020/01/31 11:05:03.5	293.610	-0.140	0.250	0.170
2020/01/31 11:05:03.6	293.620	-0.140	0.250	0.200
2020/01/31 11:05:03.7	293.620	-0.140	0.250	0.240
2020/01/31 11:05:03.8	293.620	-0.140	0.240	0.280
2020/01/31 11:05:03.9	293.620	-0.150	0.230	0.320
2020/01/31 11:05:04.0	293.620	-0.150	0.220	0.360
2020/01/31 11:05:04.1	293.620	-0.150	0.210	0.390
2020/01/31 11:05:04.2	293.610	-0.150	0.190	0.430
2020/01/31 11:05:04.3	293.610	-0.140	0.180	0.470
2020/01/31 11:05:04.4	293.610	-0.140	0.150	0.500
2020/01/31 11:05:04.5	293.600	-0.140	0.130	0.540
2020/01/31 11:05:04.6	293.590	-0.130	0.100	0.570
2020/01/31 11:05:04.7	293.590	-0.130	0.080	0.600
2020/01/31 11:05:04.8	293.580	-0.120	0.050	0.630
2020/01/31 11:05:04.9	293.580	-0.120	0.010	0.660
2020/01/31 11:05:05.0	293.570	-0.110	-0.020	0.690
2020/01/31 11:05:05.1	293.560	-0.100	-0.060	0.710
2020/01/31 11:05:05.2	293.550	-0.100	-0.100	0.730
2020/01/31 11:05:05.3	293.540	-0.090	-0.140	0.750
2020/01/31 11:05:05.4	293.530	-0.080	-0.180	0.770
2020/01/31 11:05:05.5	293.530	-0.070	-0.220	0.780
2020/01/31 11:05:05.6	293.520	-0.060	-0.270	0.800
2020/01/31 11:05:05.7	293.510	-0.050	-0.310	0.810
2020/01/31 11:05:05.8	293.490	-0.040	-0.360	0.810
2020/01/31 11:05:05.9	293.480	-0.030	-0.400	0.820
2020/01/31 11:05:06.0	293.470	-0.010	-0.450	0.820
2020/01/31 11:05:06.1	293.450	-0.000	-0.490	0.820
2020/01/31 11:05:06.2	293.440	0.010	-0.540	0.820
2020/01/31 11:05:06.3	293.420	0.020	-0.580	0.810
2020/01/31 11:05:06.4	293.410	0.030	-0.630	0.810
2020/01/31 11:05:06.5	293.380	0.040	-0.670	0.790
2020/01/31 11:05:06.6	293.370	0.050	-0.710	0.790
2020/01/31 11:05:06.7	293.350	0.060	-0.750	0.770
2020/01/31 11:05:06.8	293.340	0.070	-0.790	0.760
2020/01/31 11:05:06.9	293.320	0.090	-0.830	0.750
2020/01/31 11:05:07.0	293.300	0.090	-0.870	0.740
2020/01/31 11:05:07.1	293.290	0.100	-0.900	0.720
2020/01/31 11:05:07.2	293.270	0.110	-0.930	0.710
2020/01/31 11:05:07.3	293.260	0.120	-0.960	0.690
2020/01/31 11:05:07.4	293.240	0.130	-0.980	0.670
2020/01/31 11:05:07.5	293.230	0.130	-1.010	0.660
2020/01/31 11:05:07.6	293.220	0.140	-1.020	0.640
2020/01/31 11:05:07.7	293.200	0.140	-1.040	0.620
2020/01/31 11:05:07.8	293.190	0.150	-1.050	0.600
2020/01/31 11:05:07.9	293.180	0.150	-1.060	0.590
2020/01/31 11:05:08.0	293.170	0.150	-1.060	0.570
2020/01/31 11:05:08.1	293.170	0.150	-1.060	0.550
2020/01/31 11:05:08.2	293.160	0.150	-1.060	0.530
2020/01/31 11:05:08.3	293.150	0.150	-1.050	0.520
2020/01/31 11:05:08.4	293.150	0.140	-1.040	0.500
2020/01/31 11:05:08.5	293.140	0.140	-1.030	0.480
2020/01/31 11:05:08.6	293.130	0.130	-1.010	0.470
2020/01/31 11:05:08.7	293.130	0.120	-0.990	0.450
2020/01/31 11:05:08.8	293.130	0.110	-0.960	0.440
2020/01/31 11:05:08.9	293.130	0.110	-0.930	0.430
2020/01/31 11:05:09.0	293.120	0.090	-0.900	0.410
2020/01/31 11:05:09.1	293.120	0.080	-0.870	0.400
2020/01/31 11:05:09.2	293.120	0.070	-0.830	0.390
2020/01/31 11:05:09.3	293.130	0.060	-0.790	0.380
2020/01/31 11:05:09.4	293.130	0.040	-0.750	0.380
2020/01/31 11:05:09.5	293.130	0.030	-0.710	0.370
2020/01/31 11:05:09.6	293.130	0.010	-0.660	0.370
2020/01/31 11:05:09.7	293.140	-0.000	-0.620	0.360
2020/01/31 11:05:09.8	293.140	-0.020	-0.570	0.360
2020/01/31 11:05:09.9	293.150	-0.030	-0.530	0.350
2020/01/31 11:05:10.0	293.150	-0.040	-0.480	0.350
2020/01/31 11:05:10.1	293.160	-0.060	-0.430	0.340
2020/01/31 11:05:10.2	293.170	-0.070	-0.390	0.340
2020/01/31 11:05:10.3	293.180	-0.090	-0.350	0.340
2020/01/31 11:05:10.4	293.190	-0.100	-0.300	0.330
2020/01/31 11:05:10.5	293.200	-0.110	-0.260	0.330
2020/01/31 11:05:10.6	293.220	-0.120	-0.220	0.320
2020/01/31 11:05:10.7	293.230	-0.130	-0.180	0.320
2020/01/31 11:05:10.8	293.240	-0.140	-0.150	0.320
2020/01/31 11:05:10.9	293.260	-0.150	-0.110	0.320
2020/01/31 11:05:11.0	293.280	-0.160	-0.080	0.310
2020/01/31 11:05:11.1	293.300	-0.160	-0.050	0.310
2020/01/31 11:05:11.2	293.320	-0.170	-0.030	0.310
2020/01/31 11:05:11.3	293.340	-0.170	-0.000	0.310
2020/01/31 11:05:11.4	293.360	-0.170	0.020	0.300
2020/01/31 11:05:11.5	293.390	-0.170	0.040	0.300
2020/01/31 11:05:11.6	293.410	-0.170	0.060	0.300
2020/01/31 11:05:11.7	293.440	-0.170	0.070	0.300
2020/01/31 11:05:11.8	293.460	-0.170	0.080	0.290
2020/01/31 11:05:11.9	293.490	-0.170	0.100	0.290
2020/01/31 11:05:12.0	293.520	-0.160	0.110	0.290
2020/01/31 11:05:12.1	293.540	-0.160	0.110	0.290
2020/01/31 11:05:12.2	293.570	-0.150	0.120	0.290
2020/01/31 11:05:12.3	293.600	-0.150	0.130	0.290
2020/01/31 11:05:12.4	293.630	-0.140	0.130	0.290
2020/01/31 11:05:12.5	293.660	-0.130	0.140	0.300
2020/01/31 11:05:12.6	293.690	-0.130	0.140	0.300
2020/01/31 11:05:12.7	293.710	-0.120	0.140	0.300
2020/01/31 11:05:12.8	293.740	-0.110	0.150	0.300
2020/01/31 11:05:12.9	293.770	-0.100	0.150	0.310
2020/01/31 11:05:13.0	293.790	-0.090	0.150	0.320
2020/01/31 11:05:13.1	293.820	-0.090	0.150	0.320
2020/01/31 11:05:13.2	293.840	-0.080	0.160	0.330
2020/01/31 11:05:13.3	293.870	-0.070	0.160	0.340
2020/01/31 11:05:13.4	293.890	-0.060	0.160	0.350
2020/01/31 11:05:13.5	293.920	-0.050	0.160	0.360
2020/01/31 11:05:13.6	293.940	-0.050	0.170	0.370
2020/01/31 11:05:13.7	293.960	-0.040	0.170	0.390
2020/01/31 11:05:13.8	293.980	-0.030	0.170	0.400
2020/01/31 11:05:13.9	294.000	-0.020	0.170	0.420
2020/01/31 11:05:14.0	294.020	-0.020	0.170	0.440
2020/01/31 11:05:14.1	294.030	-0.010	0.170	0.460
2020/01/31 11:05:14.2	294.050	-0.000	0.170	0.480
2020/01/31 11:05:14.3	294.060	0.010	0.170	0.500
2020/01/31 11:05:14.4	294.080	0.010	0.170	0.520
2020/01/31 11:05:14.5	294.080	0.020	0.170	0.550
2020/01/31 11:05:14.6	294.090	0.030	0.170	0.570
2020/01/31 11:05:14.7	294.100	0.040	0.170	0.600
2020/01/31 11:05:14.8	294.110	0.040	0.160	0.620
2020/01/31 11:05:14.9	294.120	0.050	0.160	0.650
2020/01/31 11:05:15.0	294.120	0.060	0.150	0.670
2020/01/31 11:05:15.1	294.130	0.070	0.140	0.700
2020/01/31 11:05:15.2	294.130	0.070	0.130	0.730
2020/01/31 11:05:15.3	294.130	0.080	0.120	0.760
2020/01/31 11:05:15.4	294.130	0.090	0.110	0.780
2020/01/31 11:05:15.5	294.130	0.100	0.100	0.810
2020/01/31 11:05:15.6	294.120	0.110	0.080	0.830
2020/01/31 11:05:15.7	294.120	0.110	0.070	0.860
2020/01/31 11:05:15.8	294.110	0.120	0.060	0.880
2020/01/31 11:05:15.9	294.110	0.130	0.040	0.910
2020/01/31 11:05:16.0	294.100	0.140	0.030	0.930
2020/01/31 11:05:16.1	294.090	0.150	0.010	0.950
2020/01/31 11:05:16.2	294.070	0.160	-0.010	0.970
2020/01/31 11:05:16.3	294.060	0.170	-0.030	0.990
2020/01/31 11:05:16.4	294.050	0.180	-0.040	1.010
2020/01/31 11:05:16.5	294.030	0.190	-0.060	1.030
2020/01/31 11:05:16.6	294.010	0.200	-0.080	1.040
2020/01/31 11:05:16.7	293.990	0.200	-0.100	1.060
2020/01/31 11:05:16.8	293.970	0.210	-0.120	1.070
2020/01/31 11:05:16.9	293.960	0.220	-0.140	1.090
2020/01/31 11:05:17.0	293.940	0.230	-0.160	1.100
2020/01/31 11:05:17.1	293.910	0.230	-0.180	1.100
2020/01/31 11:05:17.2	293.890	0.240	-0.200	1.110
2020/01/31 11:05:17.3	293.870	0.240	-0.220	1.120
2020/01/31 11:05:17.4	293.850	0.250	-0.240	1.120
2020/01/31 11:05:17.5	293.810	0.250	-0.260	1.120
2020/01/31 11:05:17.6	293.780	0.250	-0.280	1.120
2020/01/31 11:05:17.7	293.760	0.260	-0.300	1.120
2020/01/31 11:05:17.8	293.730	0.250	-0.320	1.110
2020/01/31 11:05:17.9	293.700	0.250	-0.350	1.110
2020/01/31 11:05:18.0	293.670	0.250	-0.370	1.090
2020/01/31 11:05:18.1	293.640	0.240	-0.390	1.080
2020/01/31 11:05:18.2	293.610	0.240	-0.410	1.060
2020/01/31 11:05:18.3	293.580	0.230	-0.430	1.040
2020/01/31 11:05:18.4	293.550	0.220	-0.450	1.020
2020/01/31 11:05:18.5	293.520	0.210	-0.480	0.990
2020/01/31 11:05:18.6	293.490	0.200	-0.500	0.960
2020/01/31 11:05:18.7	293.460	0.190	-0.520	0.920
2020/01/31 11:05:18.8	293.430	0.180	-0.540	0.890
2020/01/31 11:05:18.9	293.400	0.160	-0.560	0.850
2020/01/31 11:05:19.0	293.370	0.150	-0.590	0.800
2020/01/31 11:05:19.1	293.350	0.130	-0.610	0.760
2020/01/31 11:05:19.2	293.320	0.110	-0.630	0.710
2020/01/31 11:05:19.3	293.300	0.090	-0.650	0.660
2020/01/31 11:05:19.4	293.270	0.080	-0.670	0.610
2020/01/31 11:05:19.5	293.270	0.060	-0.690	0.560
2020/01/31 11:05:19.6	293.250	0.040	-0.710	0.510
2020/01/31 11:05:19.7	293.230	0.020	-0.730	0.460
2020/01/31 11:05:19.8	293.220	0.000	-0.740	0.400
2020/01/31 11:05:19.9	293.200	-0.010	-0.760	0.340
2020/01/31 11:05:20.0	293.190	-0.030	-0.770	0.290
2020/01/31 11:05:20.1	293.190	-0.050	-0.790	0.230
2020/01/31 11:05:20.2	293.180	-0.070	-0.800	0.170
2020/01/31 11:05:20.3	293.170	-0.080	-0.810	0.120
2020/01/31 11:05:20.4	293.170	-0.100	-0.820	0.060
2020/01/31 11:05:20.5	293.170	-0.110	-0.820	0.000
2020/01/31 11:05:20.6	293.170	-0.130	-0.830	-0.050
2020/01/31 11:05:20.7	293.170	-0.140	-0.830	-0.110
2020/01/31 11:05:20.8	293.180	-0.160	-0.830	-0.160
2020/01/31 11:05:20.9	293.190	-0.170	-0.830	-0.210
2020/01/31 11:05:21.0	293.200	-0.180	-0.820	-0.260
2020/01/31 11:05:21.1	293.210	-0.190	-0.820	-0.310
2020/01/31 11:05:21.2	293.220	-0.200	-0.810	-0.350
2020/01/31 11:05:21.3	293.240	-0.210	-0.800	-0.400
2020/01/31 11:05:21.4	293.250	-0.220	-0.780	-0.440
2020/01/31 11:05:21.5	293.270	-0.230	-0.770	-0.480
2020/01/31 11:05:21.6	293.290	-0.240	-0.750	-0.520
2020/01/31 11:05:21.7	293.310	-0.250	-0.730	-0.550
2020/01/31 11:05:21.8	293.330	-0.260	-0.710	-0.580
2020/01/31 11:05:21.9	293.360	-0.260	-0.690	-0.610
2020/01/31 11:05:22.0	293.380	-0.270	-0.660	-0.640
2020/01/31 11:05:22.1	293.410	-0.280	-0.630	-0.660
2020/01/31 11:05:22.2	293.440	-0.280	-0.600	-0.680
2020/01/31 11:05:22.3	293.470	-0.290	-0.570	-0.690
2020/01/31 11:05:22.4	293.490	-0.290	-0.530	-0.700
2020/01/31 11:05:22.5	293.530	-0.290	-0.490	-0.710
2020/01/31 11:05:22.6	293.560	-0.300	-0.460	-0.710
2020/01/31 11:05:22.7	293.590	-0.300	-0.420	-0.700
2020/01/31 11:05:22.8	293.610	-0.300	-0.370	-0.690
2020/01/31 11:05:22.9	293.640	-0.310	-0.330	-0.680
2020/01/31 11:05:23.0	293.670	-0.310	-0.290	-0.660
2020/01/31 11:05:23.1	293.700	-0.310	-0.240	-0.640
2020/01/31 11:05:23.2	293.730	-0.310	-0.200	-0.620
2020/01/31 11:05:23.3	293.750	-0.310	-0.150	-0.590
2020/01/31 11:05:23.4	293.780	-0.310	-0.100	-0.560
2020/01/31 11:05:23.5	293.820	-0.310	-0.060	-0.520
2020/01/31 11:05:23.6	293.840	-0.310	-0.010	-0.480
2020/01/31 11:05:23.7	293.870	-0.310	0.030	-0.440
2020/01/31 11:05:23.8	293.890	-0.310	0.080	-0.400
2020/01/31 11:05:23.9	293.920	-0.300	0.130	-0.350
2020/01/31 11:05:24.0	293.940	-0.300	0.170	-0.300
2020/01/31 11:05:24.1	293.960	-0.290	0.210	-0.250
2020/01/31 11:05:24.2	293.990	-0.290	0.260	-0.200
2020/01/31 11:05:24.3	294.010	-0.280	0.300	-0.150
2020/01/31 11:05:24.4	294.030	-0.270	0.340	-0.090
2020/01/31 11:05:24.5	294.050	-0.260	0.380	-0.030
2020/01/31 11:05:24.6	294.060	-0.250	0.410	0.030
2020/01/31 11:05:24.7	294.080	-0.240	0.440	0.090
2020/01/31 11:05:24.8	294.100	-0.230	0.470	0.150
2020/01/31 11:05:24.9	294.110	-0.220	0.490	0.210
2020/01/31 11:05:25.0	294.120	-0.200	0.510	0.280
2020/01/31 11:05:25.1	294.130	-0.180	0.530	0.340
2020/01/31 11:05:25.2	294.140	-0.170	0.550	0.400
2020/01/31 11:05:25.3	294.150	-0.150	0.560	0.460
2020/01/31 11:05:25.4	294.160	-0.130	0.560	0.530
2020/01/31 11:05:25.5	294.160	-0.110	0.560	0.580
2020/01/31 11:05:25.6	294.160	-0.090	0.560	0.640
2020/01/31 11:05:25.7	294.170	-0.070	0.560	0.700
2020/01/31 11:05:25.8	294.170	-0.050	0.550	0.760
2020/01/31 11:05:25.9	294.170	-0.030	0.530	0.810
2020/01/31 11:05:26.0	294.170	-0.000	0.520	0.860
2020/01/31 11:05:26.1	294.160	0.020	0.500	0.910
2020/01/31 11:05:26.2	294.160	0.040	0.470	0.960
2020/01/31 11:05:26.3	294.160	0.070	0.450	1.000
2020/01/31 11:05:26.4	294.150	0.090	0.420	1.040
2020/01/31 11:05:26.5	294.130	0.120	0.390	1.080
2020/01/31 11:05:26.6	294.130	0.140	0.350	1.110
2020/01/31 11:05:26.7	294.120	0.160	0.310	1.140
2020/01/31 11:05:26.8	294.110	0.190	0.270	1.170
2020/01/31 11:05:26.9	294.100	0.210	0.230	1.190
2020/01/31 11:05:27.0	294.090	0.230	0.190	1.210
2020/01/31 11:05:27.1	294.070	0.260	0.150	1.220
2020/01/31 11:05:27.2	294.060	0.280	0.100	1.230
2020/01/31 11:05:27.3	294.050	0.300	0.050	1.240
2020/01/31 11:05:27.4	294.040	0.320	0.010	1.240
2020/01/31 11:05:27.5	294.020	0.340	-0.040	1.240
2020/01/31 11:05:27.6	294.000	0.350	-0.090	1.230
2020/01/31 11:05:27.7	293.990	0.370	-0.130	1.220
2020/01/31 11:05:27.8	293.970	0.390	-0.180	1.210
2020/01/31 11:05:27.9	293.960	0.400	-0.220	1.200
2020/01/31 11:05:28.0	293.940	0.410	-0.260	1.180
2020/01/31 11:05:28.1	293.930	0.420	-0.310	1.160
2020/01/31 11:05:28.2	293.910	0.430	-0.350	1.140
2020/01/31 11:05:28.3	293.890	0.430	-0.380	1.110
2020/01/31 11:05:28.4	293.880	0.440	-0.420	1.080
2020/01/31 11:05:28.5	293.860	0.440	-0.450	1.050
2020/01/31 11:05:28.6	293.840	0.440	-0.480	1.020
2020/01/31 11:05:28.7	293.820	0.440	-0.510	0.990
2020/01/31 11:05:28.8	293.800	0.430	-0.540	0.950
2020/01/31 11:05:28.9	293.780	0.430	-0.570	0.920
2020/01/31 11:05:29.0	293.750	0.420	-0.590	0.880
2020/01/31 11:05:29.1	293.730	0.410	-0.610	0.840
2020/01/31 11:05:29.2	293.710	0.400	-0.630	0.810
2020/01/31 11:05:29.3	293.680	0.380	-0.640	0.770
2020/01/31 11:05:29.4	293.660	0.370	-0.660	0.730
2020/01/31 11:05:29.5	293.630	0.350	-0.670	0.690
2020/01/31 11:05:29.6	293.610	0.330	-0.680	0.650
2020/01/31 11:05:29.7	293.580	0.310	-0.690	0.610
2020/01/31 11:05:29.8	293.560	0.290	-0.700	0.580
2020/01/31 11:05:29.9	293.540	0.270	-0.700	0.540
2020/01/31 11:05:30.0	293.510	0.240	-0.710	0.500
2020/01/31 11:05:30.1	293.490	0.220	-0.710	0.460
2020/01/31 11:05:30.2	293.460	0.190	-0.720	0.420
2020/01/31 11:05:30.3	293.440	0.160	-0.720	0.390
2020/01/31 11:05:30.4	293.420	0.140	-0.720	0.350
2020/01/31 11:05:30.5	293.410	0.110	-0.720	0.310
2020/01/31 11:05:30.6	293.390	0.080	-0.720	0.270
2020/01/31 11:05:30.7	293.370	0.060	-0.730	0.240
2020/01/31 11:05:30.8	293.360	0.030	-0.730	0.200
2020/01/31 11:05:30.9	293.340	0.000	-0.730	0.160
2020/01/31 11:05:31.0	293.330	-0.020	-0.730	0.130
2020/01/31 11:05:31.1	293.320	-0.050	-0.740	0.090
2020/01/31 11:05:31.2	293.310	-0.070	-0.740	0.050
2020/01/31 11:05:31.3	293.300	-0.100	-0.750	0.020
2020/01/31 11:05:31.4	293.290	-0.120	-0.750	-0.020
2020/01/31 11:05:31.5	293.280	-0.140	-0.760	-0.050
2020/01/31 11:05:31.6	293.280	-0.160	-0.770	-0.080
2020/01/31 11:05:31.7	293.280	-0.180	-0.780	-0.110
2020/01/31 11:05:31.8	293.280	-0.190	-0.790	-0.140
2020/01/31 11:05:31.9	293.280	-0.210	-0.790	-0.170
2020/01/31 11:05:32.0	293.290	-0.220	-0.800	-0.190
2020/01/31 11:05:32.1	293.290	-0.230	-0.810	-0.210
2020/01/31 11:05:32.2	293.300	-0.240	-0.820	-0.230
2020/01/31 11:05:32.3	293.310	-0.250	-0.830	-0.250
2020/01/31 11:05:32.4	293.320	-0.250	-0.840	-0.260
2020/01/31 11:05:32.5	293.330	-0.260	-0.850	-0.280
2020/01/31 11:05:32.6	293.350	-0.260	-0.850	-0.290
2020/01/31 11:05:32.7	293.360	-0.260	-0.860	-0.290
2020/01/31 11:05:32.8	293.380	-0.260	-0.860	-0.300
2020/01/31 11:05:32.9	293.400	-0.260	-0.860	-0.300
2020/01/31 11:05:33.0	293.420	-0.260	-0.850	-0.300
2020/01/31 11:05:33.1	293.440	-0.250	-0.850	-0.300
2020/01/31 11:05:33.2	293.460	-0.250	-0.840	-0.290
2020/01/31 11:05:33.3	293.480	-0.240	-0.830	-0.280
2020/01/31 11:05:33.4	293.510	-0.230	-0.820	-0.270
2020/01/31 11:05:33.5	293.530	-0.220	-0.800	-0.250
2020/01/31 11:05:33.6	293.560	-0.210	-0.780	-0.240
2020/01/31 11:05:33.7	293.580	-0.210	-0.760	-0.220
2020/01/31 11:05:33.8	293.610	-0.200	-0.730	-0.200
2020/01/31 11:05:33.9	293.630	-0.190	-0.700	-0.170
2020/01/31 11:05:34.0	293.660	-0.180	-0.670	-0.140
2020/01/31 11:05:34.1	293.680	-0.170	-0.630	-0.110
2020/01/31 11:05:34.2	293.710	-0.160	-0.590	-0.080
2020/01/31 11:05:34.3	293.730	-0.150	-0.550	-0.050
2020/01/31 11:05:34.4	293.760	-0.140	-0.500	-0.010
2020/01/31 11:05:34.5	293.780	-0.130	-0.450	0.020
2020/01/31 11:05:34.6	293.800	-0.120	-0.400	0.060
2020/01/31 11:05:34.7	293.820	-0.110	-0.340	0.100
2020/01/31 11:05:34.8	293.840	-0.110	-0.280	0.140
2020/01/31 11:05:34.9	293.860	-0.100	-0.220	0.180
2020/01/31 11:05:35.0	293.880	-0.090	-0.150	0.230
2020/01/31 11:05:35.1	293.890	-0.090	-0.090	0.270
2020/01/31 11:05:35.2	293.910	-0.090	-0.020	0.320
2020/01/31 11:05:35.3	293.920	-0.080	0.050	0.360
2020/01/31 11:05:35.4	293.930	-0.080	0.120	0.410
2020/01/31 11:05:35.5	293.950	-0.080	0.200	0.460
2020/01/31 11:05:35.6	293.960	-0.080	0.260	0.510
2020/01/31 11:05:35.7	293.960	-0.070	0.330	0.550
2020/01/31 11:05:35.8	293.970	-0.070	0.400	0.590
2020/01/31 11:05:35.9	293.970	-0.070	0.460	0.640
2020/01/31 11:05:36.0	293.980	-0.070	0.520	0.680
2020/01/31 11:05:36.1	293.980	-0.070	0.580	0.720
2020/01/31 11:05:36.2	293.980	-0.070	0.640	0.760
2020/01/31 11:05:36.3	293.980	-0.070	0.690	0.790
2020/01/31 11:05:36.4	293.980	-0.070	0.730	0.820
2020/01/31 11:05:36.5	293.990	-0.070	0.770	0.850
2020/01/31 11:05:36.6	293.990	-0.070	0.810	0.880
2020/01/31 11:05:36.7	293.990	-0.070	0.840	0.900
2020/01/31 11:05:36.8	293.980	-0.070	0.860	0.920
2020/01/31 11:05:36.9	293.980	-0.060	0.880	0.940
2020/01/31 11:05:37.0	293.980	-0.060	0.890	0.950
2020/01/31 11:05:37.1	293.980	-0.060	0.900	0.950
2020/01/31 11:05:37.2	293.970	-0.050	0.900	0.960
2020/01/31 11:05:37.3	293.970	-0.050	0.890	0.960
2020/01/31 11:05:37.4	293.970	-0.040	0.880	0.950
2020/01/31 11:05:37.5	293.970	-0.040	0.860	0.950
2020/01/31 11:05:37.6	293.970	-0.030	0.840	0.930
2020/01/31 11:05:37.7	293.970	-0.020	0.810	0.920
2020/01/31 11:05:37.8	293.970	-0.010	0.780	0.900
2020/01/31 11:05:37.9	293.970	-0.000	0.730	0.880
2020/01/31 11:05:38.0	293.970	0.010	0.690	0.850
2020/01/31 11:05:38.1	293.970	0.020	0.640	0.830
2020/01/31 11:05:38.2	293.970	0.030	0.590	0.800
2020/01/31 11:05:38.3	293.960	0.040	0.530	0.770
2020/01/31 11:05:38.4	293.960	0.050	0.470	0.730
2020/01/31 11:05:38.5	293.960	0.060	0.400	0.700
2020/01/31 11:05:38.6	293.960	0.070	0.340	0.660
2020/01/31 11:05:38.7	293.960	0.080	0.270	0.630
2020/01/31 11:05:38.8	293.950	0.090	0.200	0.590
2020/01/31 11:05:38.9	293.950	0.100	0.140	0.560
2020/01/31 11:05:39.0	293.950	0.110	0.070	0.520
2020/01/31 11:05:39.1	293.940	0.120	-0.000	0.490
2020/01/31 11:05:39.2	293.930	0.130	-0.070	0.450
2020/01/31 11:05:39.3	293.930	0.130	-0.130	0.420
2020/01/31 11:05:39.4	293.920	0.140	-0.200	0.380
2020/01/31 11:05:39.5	293.900	0.150	-0.260	0.350
2020/01/31 11:05:39.6	293.890	0.150	-0.320	0.320
2020/01/31 11:05:39.7	293.880	0.150	-0.380	0.290
2020/01/31 11:05:39.8	293.860	0.160	-0.440	0.270
2020/01/31 11:05:39.9	293.850	0.160	-0.490	0.240
2020/01/31 11:05:40.0	293.830	0.160	-0.540	0.220
2020/01/31 11:05:40.1	293.810	0.160	-0.580	0.200
2020/01/31 11:05:40.2	293.790	0.150	-0.620	0.180
2020/01/31 11:05:40.3	293.770	0.150	-0.660	0.160
2020/01/31 11:05:40.4	293.750	0.140	-0.690	0.140
2020/01/31 11:05:40.5	293.720	0.140	-0.720	0.120
2020/01/31 11:05:40.6	293.700	0.130	-0.740	0.110
2020/01/31 11:05:40.7	293.680	0.130	-0.770	0.100
2020/01/31 11:05:40.8	293.660	0.120	-0.790	0.090
2020/01/31 11:05:40.9	293.640	0.110	-0.800	0.090
2020/01/31 11:05:41.0	293.610	0.100	-0.820	0.080
2020/01/31 11:05:41.1	293.590	0.090	-0.830	0.080
2020/01/31 11:05:41.2	293.570	0.080	-0.830	0.080
2020/01/31 11:05:41.3	293.550	0.070	-0.840	0.080
2020/01/31 11:05:41.4	293.540	0.070	-0.840	0.080
2020/01/31 11:05:41.5	293.520	0.060	-0.840	0.090
2020/01/31 11:05:41.6	293.500	0.050	-0.840	0.090
2020/01/31 11:05:41.7	293.480	0.040	-0.840	0.100
2020/01/31 11:05:41.8	293.470	0.030	-0.830	0.110
2020/01/31 11:05:41.9	293.460	0.020	-0.820	0.110
2020/01/31 11:05:42.0	293.450	0.020	-0.810	0.120
2020/01/31 11:05:42.1	293.440	0.010	-0.810	0.130
2020/01/31 11:05:42.2	293.430	0.010	-0.790	0.150
2020/01/31 11:05:42.3	293.420	0.000	-0.780	0.160
2020/01/31 11:05:42.4	293.410	-0.000	-0.770	0.170
2020/01/31 11:05:42.5	293.410	-0.000	-0.760	0.190
2020/01/31 11:05:42.6	293.410	-0.000	-0.750	0.210
2020/01/31 11:05:42.7	293.410	-0.000	-0.730	0.220
2020/01/31 11:05:42.8	293.410	-0.000	-0.720	0.240
2020/01/31 11:05:42.9	293.410	-0.000	-0.710	0.260
2020/01/31 11:05:43.0	293.410	-0.000	-0.700	0.270
2020/01/31 11:05:43.1	293.420	0.000	-0.680	0.290
2020/01/31 11:05:43.2	293.430	0.010	-0.670	0.310
2020/01/31 11:05:43.3	293.440	0.010	-0.660	0.320
2020/01/31 11:05:43.4	293.450	0.010	-0.650	0.340
2020/01/31 11:05:43.5	293.450	0.020	-0.640	0.350
2020/01/31 11:05:43.6	293.470	0.020	-0.630	0.370
2020/01/31 11:05:43.7	293.480	0.030	-0.620	0.380
2020/01/31 11:05:43.8	293.490	0.040	-0.610	0.400
2020/01/31 11:05:43.9	293.510	0.040	-0.600	0.410
2020/01/31 11:05:44.0	293.520	0.050	-0.590	0.430
2020/01/31 11:05:44.1	293.540	0.060	-0.580	0.440
2020/01/31 11:05:44.2	293.550	0.060	-0.570	0.450
2020/01/31 11:05:44.3	293.570	0.070	-0.560	0.470
2020/01/31 11:05:44.4	293.580	0.080	-0.540	0.480
2020/01/31 11:05:44.5	293.600	0.080	-0.530	0.500
2020/01/31 11:05:44.6	293.620	0.090	-0.520	0.510
2020/01/31 11:05:44.7	293.630	0.090	-0.510	0.530
2020/01/31 11:05:44.8	293.640	0.100	-0.490	0.540
2020/01/31 11:05:44.9	293.660	0.100	-0.480	0.560
2020/01/31 11:05:45.0	293.670	0.110	-0.470	0.570
2020/01/31 11:05:45.1	293.680	0.110	-0.450	0.590
2020/01/31 11:05:45.2	293.690	0.110	-0.440	0.600
2020/01/31 11:05:45.3	293.700	0.120	-0.420	0.610
2020/01/31 11:05:45.4	293.710	0.120	-0.410	0.620
2020/01/31 11:05:45.5	293.720	0.120	-0.390	0.630
2020/01/31 11:05:45.6	293.730	0.120	-0.370	0.640
2020/01/31 11:05:45.7	293.740	0.110	-0.350	0.650
2020/01/31 11:05:45.8	293.750	0.110	-0.330	0.650
2020/01/31 11:05:45.9	293.750	0.110	-0.320	0.660
2020/01/31 11:05:46.0	293.760	0.100	-0.300	0.660
2020/01/31 11:05:46.1	293.760	0.100	-0.280	0.670
2020/01/31 11:05:46.2	293.770	0.090	-0.260	0.670
2020/01/31 11:05:46.3	293.770	0.080	-0.240	0.670
2020/01/31 11:05:46.4	293.770	0.070	-0.220	0.670
2020/01/31 11:05:46.5	293.770	0.070	-0.200	0.660
2020/01/31 11:05:46.6	293.770	0.050	-0.180	0.660
2020/01/31 11:05:46.7	293.770	0.040	-0.160	0.660
2020/01/31 11:05:46.8	293.770	0.030	-0.140	0.650
2020/01/31 11:05:46.9	293.780	0.020	-0.120	0.650
2020/01/31 11:05:47.0	293.780	0.010	-0.100	0.640
2020/01/31 11:05:47.1	293.770	-0.000	-0.080	0.640
2020/01/31 11:05:47.2	293.770	-0.020	-0.060	0.630
2020/01/31 11:05:47.3	293.770	-0.030	-0.040	0.620
2020/01/31 11:05:47.4	293.770	-0.040	-0.020	0.610
2020/01/31 11:05:47.5	293.760	-0.060	-0.000	0.610
2020/01/31 11:05:47.6	293.750	-0.070	0.010	0.600
2020/01/31 11:05:47.7	293.750	-0.080	0.030	0.590
2020/01/31 11:05:47.8	293.740	-0.100	0.050	0.580
2020/01/31 11:05:47.9	293.730	-0.110	0.060	0.560
2020/01/31 11:05:48.0	293.720	-0.120	0.070	0.550
2020/01/31 11:05:48.1	293.720	-0.130	0.090	0.540
2020/01/31 11:05:48.2	293.710	-0.140	0.100	0.520
2020/01/31 11:05:48.3	293.700	-0.150	0.110	0.510
2020/01/31 11:05:48.4	293.690	-0.160	0.120	0.490
2020/01/31 11:05:48.5	293.670	-0.170	0.120	0.470
2020/01/31 11:05:48.6	293.660	-0.180	0.130	0.460
2020/01/31 11:05:48.7	293.650	-0.180	0.130	0.440
2020/01/31 11:05:48.8	293.640	-0.190	0.140	0.420
2020/01/31 11:05:48.9	293.630	-0.190	0.140	0.400
2020/01/31 11:05:49.0	293.630	-0.190	0.140	0.380
2020/01/31 11:05:49.1	293.620	-0.200	0.140	0.360
2020/01/31 11:05:49.2	293.610	-0.200	0.130	0.340
2020/01/31 11:05:49.3	293.600	-0.190	0.130	0.320
2020/01/31 11:05:49.4	293.600	-0.190	0.120	0.300
2020/01/31 11:05:49.5	293.580	-0.190	0.110	0.290
2020/01/31 11:05:49.6	293.570	-0.180	0.100	0.270
2020/01/31 11:05:49.7	293.570	-0.170	0.090	0.250
2020/01/31 11:05:49.8	293.560	-0.170	0.080	0.240
2020/01/31 11:05:49.9	293.560	-0.160	0.070	0.220
2020/01/31 11:05:50.0	293.550	-0.150	0.050	0.210
2020/01/31 11:05:50.1	293.550	-0.140	0.040	0.200
2020/01/31 11:05:50.2	293.540	-0.130	0.020	0.190
2020/01/31 11:05:50.3	293.540	-0.120	0.000	0.180
2020/01/31 11:05:50.4	293.540	-0.100	-0.010	0.170
2020/01/31 11:05:50.5	293.530	-0.090	-0.030	0.160
2020/01/31 11:05:50.6	293.530	-0.080	-0.050	0.160
2020/01/31 11:05:50.7	293.520	-0.060	-0.070	0.160
2020/01/31 11:05:50.8	293.520	-0.050	-0.090	0.150
2020/01/31 11:05:50.9	293.520	-0.040	-0.110	0.150
2020/01/31 11:05:51.0	293.510	-0.020	-0.120	0.150
2020/01/31 11:05:51.1	293.510	-0.010	-0.140	0.150
2020/01/31 11:05:51.2	293.510	0.000	-0.160	0.160
2020/01/31 11:05:51.3	293.510	0.010	-0.180	0.160
2020/01/31 11:05:51.4	293.510	0.030	-0.200	0.160
2020/01/31 11:05:51.5	293.510	0.040	-0.220	0.160
2020/01/31 11:05:51.6	293.510	0.050	-0.240	0.160
2020/01/31 11:05:51.7	293.510	0.060	-0.250	0.170
2020/01/31 11:05:51.8	293.520	0.070	-0.270	0.170
2020/01/31 11:05:51.9	293.520	0.080	-0.290	0.170
2020/01/31 11:05:52.0	293.530	0.090	-0.300	0.180
2020/01/31 11:05:52.1	293.530	0.100	-0.310	0.180
2020/01/31 11:05:52.2	293.540	0.100	-0.320	0.180
2020/01/31 11:05:52.3	293.550	0.110	-0.330	0.180
2020/01/31 11:05:52.4	293.560	0.120	-0.340	0.180
2020/01/31 11:05:52.5	293.580	0.120	-0.350	0.190
2020/01/31 11:05:52.6	293.590	0.120	-0.350	0.190
2020/01/31 11:05:52.7	293.600	0.130	-0.350	0.190
2020/01/31 11:05:52.8	293.620	0.130	-0.350	0.190
2020/01/31 11:05:52.9	293.630	0.130	-0.350	0.190
2020/01/31 11:05:53.0	293.650	0.140	-0.350	0.200
2020/01/31 11:05:53.1	293.660	0.140	-0.340	0.200
2020/01/31 11:05:53.2	293.670	0.140	-0.330	0.200
2020/01/31 11:05:53.3	293.690	0.140	-0.320	0.210
2020/01/31 11:05:53.4	293.700	0.130	-0.310	0.220
2020/01/31 11:05:53.5	293.710	0.130	-0.290	0.220
2020/01/31 11:05:53.6	293.720	0.130	-0.280	0.230
2020/01/31 11:05:53.7	293.730	0.130	-0.260	0.240
2020/01/31 11:05:53.8	293.740	0.120	-0.250	0.250
2020/01/31 11:05:53.9	293.750	0.120	-0.230	0.260
2020/01/31 11:05:54.0	293.760	0.120	-0.220	0.270
2020/01/31 11:05:54.1	293.770	0.110	-0.200	0.280
2020/01/31 11:05:54.2	293.770	0.110	-0.190	0.300
2020/01/31 11:05:54.3	293.780	0.100	-0.180	0.310
2020/01/31 11:05:54.4	293.780	0.090	-0.160	0.320
2020/01/31 11:05:54.5	293.780	0.090	-0.160	0.340
2020/01/31 11:05:54.6	293.780	0.080	-0.150	0.360
2020/01/31 11:05:54.7	293.780	0.080	-0.140	0.370
2020/01/31 11:05:54.8	293.780	0.070	-0.140	0.390
2020/01/31 11:05:54.9	293.780	0.070	-0.140	0.400
2020/01/31 11:05:55.0	293.770	0.060	-0.140	0.420
2020/01/31 11:05:55.1	293.760	0.050	-0.140	0.430
2020/01/31 11:05:55.2	293.760	0.050	-0.140	0.450
2020/01/31 11:05:55.3	293.750	0.040	-0.150	0.460
2020/01/31 11:05:55.4	293.740	0.040	-0.160	0.480
2020/01/31 11:05:55.5	293.720	0.040	-0.160	0.490
2020/01/31 11:05:55.6	293.710	0.030	-0.170	0.510
2020/01/31 11:05:55.7	293.700	0.030	-0.190	0.520
2020/01/31 11:05:55.8	293.690	0.030	-0.200	0.540
2020/01/31 11:05:55.9	293.670	0.020	-0.210	0.560
2020/01/31 11:05:56.0	293.660	0.020	-0.230	0.570
2020/01/31 11:05:56.1	293.650	0.020	-0.240	0.590
2020/01/31 11:05:56.2	293.630	0.020	-0.260	0.610
2020/01/31 11:05:56.3	293.620	0.020	-0.270	0.620
2020/01/31 11:05:56.4	293.600	0.010	-0.290	0.640
2020/01/31 11:05:56.5	293.590	0.010	-0.300	0.650
2020/01/31 11:05:56.6	293.570	0.010	-0.320	0.670
2020/01/31 11:05:56.7	293.560	0.010	-0.340	0.680
2020/01/31 11:05:56.8	293.550	0.010	-0.350	0.700
2020/01/31 11:05:56.9	293.540	0.010	-0.370	0.710
2020/01/31 11:05:57.0	293.530	0.010	-0.380	0.730
2020/01/31 11:05:57.1	293.520	0.010	-0.400	0.740
2020/01/31 11:05:57.2	293.510	0.010	-0.410	0.750
2020/01/31 11:05:57.3	293.500	0.010	-0.430	0.760
2020/01/31 11:05:57.4	293.490	0.010	-0.440	0.770
2020/01/31 11:05:57.5	293.490	0.000	-0.450	0.780
2020/01/31 11:05:57.6	293.480	0.000	-0.470	0.790
2020/01/31 11:05:57.7	293.470	0.000	-0.480	0.800
2020/01/31 11:05:57.8	293.470	0.000	-0.490	0.810
2020/01/31 11:05:57.9	293.460	-0.000	-0.500	0.820
2020/01/31 11:05:58.0	293.450	-0.000	-0.510	0.830
2020/01/31 11:05:58.1	293.440	-0.000	-0.520	0.840
2020/01/31 11:05:58.2	293.440	-0.010	-0.520	0.850
2020/01/31 11:05:58.3	293.430	-0.010	-0.530	0.860
2020/01/31 11:05:58.4	293.420	-0.010	-0.530	0.870
2020/01/31 11:05:58.5	293.410	-0.010	-0.530	0.880
2020/01/31 11:05:58.6	293.400	-0.010	-0.530	0.890
2020/01/31 11:05:58.7	293.400	-0.020	-0.530	0.890
2020/01/31 11:05:58.8	293.390	-0.020	-0.530	0.900
2020/01/31 11:05:58.9	293.380	-0.020	-0.530	0.910
2020/01/31 11:05:59.0	293.380	-0.020	-0.520	0.910
2020/01/31 11:05:59.1	293.370	-0.030	-0.520	0.920
2020/01/31 11:05:59.2	293.360	-0.030	-0.510	0.920
2020/01/31 11:05:59.3	293.360	-0.030	-0.500	0.930
2020/01/31 11:05:59.4	293.350	-0.030	-0.500	0.930
2020/01/31 11:05:59.5	293.340	-0.040	-0.490	0.930
2020/01/31 11:05:59.6	293.330	-0.040	-0.480	0.930
2020/01/31 11:05:59.7	293.330	-0.040	-0.470	0.930
2020/01/31 11:05:59.8	293.320	-0.040	-0.460	0.930
2020/01/31 11:05:59.9	293.320	-0.040	-0.450	0.930
2020/01/31 11:06:00.0	293.320	-0.040	-0.440	0.930
2020/01/31 11:06:00.1	293.320	-0.050	-0.430	0.920
2020/01/31 11:06:00.2	293.320	-0.050	-0.420	0.910
2020/01/31 11:06:00.3	293.320	-0.050	-0.410	0.900
2020/01/31 11:06:00.4	293.320	-0.050	-0.400	0.890
2020/01/31 11:06:00.5	293.320	-0.050	-0.390	0.880
2020/01/31 11:06:00.6	293.320	-0.050	-0.380	0.860
2020/01/31 11:06:00.7	293.330	-0.050	-0.370	0.840
2020/01/31 11:06:00.8	293.330	-0.050	-0.360	0.820
2020/01/31 11:06:00.9	293.340	-0.050	-0.350	0.790
2020/01/31 11:06:01.0	293.340	-0.050	-0.340	0.770
2020/01/31 11:06:01.1	293.350	-0.050	-0.330	0.740
2020/01/31 11:06:01.2	293.360	-0.050	-0.320	0.710
2020/01/31 11:06:01.3	293.370	-0.050	-0.310	0.680
2020/01/31 11:06:01.4	293.380	-0.050	-0.300	0.650
2020/01/31 11:06:01.5	293.390	-0.050	-0.280	0.610
2020/01/31 11:06:01.6	293.400	-0.050	-0.270	0.580
2020/01/31 11:06:01.7	293.410	-0.050	-0.250	0.540
2020/01/31 11:06:01.8	293.420	-0.050	-0.240	0.510
2020/01/31 11:06:01.9	293.430	-0.050	-0.230	0.470
2020/01/31 11:06:02.0	293.440	-0.050	-0.210	0.440
2020/01/31 11:06:02.1	293.450	-0.060	-0.200	0.400
2020/01/31 11:06:02.2	293.460	-0.060	-0.180	0.370
2020/01/31 11:06:02.3	293.470	-0.060	-0.170	0.330
2020/01/31 11:06:02.4	293.490	-0.060	-0.150	0.300
2020/01/31 11:06:02.5	293.500	-0.070	-0.140	0.270
2020/01/31 11:06:02.6	293.510	-0.070	-0.130	0.230
2020/01/31 11:06:02.7	293.520	-0.080	-0.110	0.200
2020/01/31 11:06:02.8	293.530	-0.080	-0.100	0.170
2020/01/31 11:06:02.9	293.540	-0.090	-0.080	0.130
2020/01/31 11:06:03.0	293.560	-0.090	-0.070	0.100
2020/01/31 11:06:03.1	293.570	-0.100	-0.060	0.070
2020/01/31 11:06:03.2	293.580	-0.100	-0.040	0.040
2020/01/31 11:06:03.3	293.590	-0.110	-0.030	0.010
2020/01/31 11:06:03.4	293.600	-0.110	-0.020	-0.010
2020/01/31 11:06:03.5	293.620	-0.120	-0.010	-0.040
2020/01/31 11:06:03.6	293.640	-0.120	0.000	-0.070
2020/01/31 11:06:03.7	293.650	-0.130	0.020	-0.090
2020/01/31 11:06:03.8	293.660	-0.130	0.030	-0.110
2020/01/31 11:06:03.9	293.670	-0.130	0.040	-0.130
2020/01/31 11:06:04.0	293.680	-0.140	0.040	-0.140
2020/01/31 11:06:04.1	293.690	-0.140	0.050	-0.150
2020/01/31 11:06:04.2	293.700	-0.140	0.060	-0.160
2020/01/31 11:06:04.3	293.710	-0.140	0.070	-0.170
2020/01/31 11:06:04.4	293.720	-0.140	0.070	-0.170
2020/01/31 11:06:04.5	293.730	-0.140	0.080	-0.180
2020/01/31 11:06:04.6	293.730	-0.130	0.080	-0.170
2020/01/31 11:06:04.7	293.740	-0.130	0.080	-0.170
2020/01/31 11:06:04.8	293.750	-0.130	0.080	-0.160
2020/01/31 11:06:04.9	293.750	-0.120	0.080	-0.150
2020/01/31 11:06:05.0	293.750	-0.110	0.080	-0.130
2020/01/31 11:06:05.1	293.750	-0.110	0.070	-0.110
2020/01/31 11:06:05.2	293.760	-0.100	0.070	-0.090
2020/01/31 11:06:05.3	293.760	-0.090	0.060	-0.060
2020/01/31 11:06:05.4	293.750	-0.080	0.050	-0.040
2020/01/31 11:06:05.5	293.760	-0.060	0.030	-0.010
2020/01/31 11:06:05.6	293.760	-0.050	0.020	0.030
2020/01/31 11:06:05.7	293.750	-0.040	0.010	0.060
2020/01/31 11:06:05.8	293.750	-0.020	-0.010	0.100
2020/01/31 11:06:05.9	293.740	-0.010	-0.030	0.130
2020/01/31 11:06:06.0	293.740	0.010	-0.050	0.170
2020/01/31 11:06:06.1	293.730	0.020	-0.070	0.210
2020/01/31 11:06:06.2	293.720	0.040	-0.090	0.250
2020/01/31 11:06:06.3	293.720	0.060	-0.120	0.290
2020/01/31 11:06:06.4	293.710	0.070	-0.140	0.330
2020/01/31 11:06:06.5	293.690	0.090	-0.160	0.370
2020/01/31 11:06:06.6	293.680	0.110	-0.190	0.410
2020/01/31 11:06:06.7	293.670	0.130	-0.210	0.450
2020/01/31 11:06:06.8	293.660	0.140	-0.240	0.490
2020/01/31 11:06:06.9	293.650	0.160	-0.260	0.530
2020/01/31 11:06:07.0	293.630	0.180	-0.290	0.570
2020/01/31 11:06:07.1	293.620	0.190	-0.310	0.610
2020/01/31 11:06:07.2	293.610	0.210	-0.330	0.650
2020/01/31 11:06:07.3	293.590	0.230	-0.350	0.690
2020/01/31 11:06:07.4	293.570	0.240	-0.370	0.730
2020/01/31 11:06:07.5	293.550	0.260	-0.390	0.770
2020/01/31 11:06:07.6	293.530	0.270	-0.410	0.810
2020/01/31 11:06:07.7	293.510	0.280	-0.420	0.840
2020/01/31 11:06:07.8	293.500	0.300	-0.430	0.870
2020/01/31 11:06:07.9	293.480	0.310	-0.440	0.910
2020/01/31 11:06:08.0	293.460	0.320	-0.450	0.940
2020/01/31 11:06:08.1	293.440	0.330	-0.460	0.970
2020/01/31 11:06:08.2	293.420	0.340	-0.460	0.990
2020/01/31 11:06:08.3	293.400	0.350	-0.460	1.020
2020/01/31 11:06:08.4	293.380	0.350	-0.460	1.040
2020/01/31 11:06:08.5	293.370	0.360	-0.460	1.060
2020/01/31 11:06:08.6	293.350	0.360	-0.450	1.080
2020/01/31 11:06:08.7	293.330	0.360	-0.450	1.100
2020/01/31 11:06:08.8	293.310	0.370	-0.440	1.110
2020/01/31 11:06:08.9	293.290	0.370	-0.430	1.120
2020/01/31 11:06:09.0	293.280	0.370	-0.430	1.130
2020/01/31 11:06:09.1	293.260	0.360	-0.420	1.130
2020/01/31 11:06:09.2	293.240	0.360	-0.410	1.140
2020/01/31 11:06:09.3	293.220	0.360	-0.400	1.140
2020/01/31 11:06:09.4	293.200	0.350	-0.390	1.130
2020/01/31 11:06:09.5	293.190	0.340	-0.380	1.130
2020/01/31 11:06:09.6	293.170	0.340	-0.370	1.120
2020/01/31 11:06:09.7	293.150	0.330	-0.360	1.110
2020/01/31 11:06:09.8	293.140	0.320	-0.350	1.100
2020/01/31 11:06:09.9	293.120	0.310	-0.340	1.080
2020/01/31 11:06:10.0	293.110	0.290	-0.330	1.060
2020/01/31 11:06:10.1	293.090	0.280	-0.320	1.040
2020/01/31 11:06:10.2	293.080	0.270	-0.320	1.020
2020/01/31 11:06:10.3	293.070	0.250	-0.310	0.990
2020/01/31 11:06:10.4	293.060	0.230	-0.310	0.960
2020/01/31 11:06:10.5	293.050	0.220	-0.300	0.930
2020/01/31 11:06:10.6	293.040	0.200	-0.300	0.900
2020/01/31 11:06:10.7	293.030	0.180	-0.300	0.860
2020/01/31 11:06:10.8	293.030	0.160	-0.300	0.820
2020/01/31 11:06:10.9	293.020	0.150	-0.300	0.790
2020/01/31 11:06:11.0	293.020	0.130	-0.300	0.740
2020/01/31 11:06:11.1	293.010	0.110	-0.300	0.700
2020/01/31 11:06:11.2	293.010	0.090	-0.300	0.660
2020/01/31 11:06:11.3	293.010	0.060	-0.300	0.610
2020/01/31 11:06:11.4	293.010	0.040	-0.300	0.570
2020/01/31 11:06:11.5	293.010	0.020	-0.300	0.520
2020/01/31 11:06:11.6	293.010	0.000	-0.300	0.470
2020/01/31 11:06:11.7	293.020	-0.020	-0.310	0.420
2020/01/31 11:06:11.8	293.020	-0.040	-0.300	0.370
2020/01/31 11:06:11.9	293.030	-0.060	-0.300	0.320
2020/01/31 11:06:12.0	293.040	-0.080	-0.300	0.270
2020/01/31 11:06:12.1	293.040	-0.110	-0.300	0.220
2020/01/31 11:06:12.2	293.050	-0.130	-0.300	0.180
2020/01/31 11:06:12.3	293.060	-0.150	-0.290	0.130
2020/01/31 11:06:12.4	293.070	-0.170	-0.290	0.080
2020/01/31 11:06:12.5	293.080	-0.190	-0.280	0.040
2020/01/31 11:06:12.6	293.100	-0.210	-0.270	-0.010
2020/01/31 11:06:12.7	293.110	-0.240	-0.260	-0.050
2020/01/31 11:06:12.8	293.120	-0.260	-0.250	-0.090
2020/01/31 11:06:12.9	293.140	-0.280	-0.240	-0.130
2020/01/31 11:06:13.0	293.150	-0.300	-0.220	-0.170
2020/01/31 11:06:13.1	293.170	-0.320	-0.210	-0.200
2020/01/31 11:06:13.2	293.190	-0.340	-0.190	-0.230
2020/01/31 11:06:13.3	293.200	-0.360	-0.180	-0.260
2020/01/31 11:06:13.4	293.220	-0.380	-0.160	-0.290
2020/01/31 11:06:13.5	293.240	-0.400	-0.150	-0.320
2020/01/31 11:06:13.6	293.260	-0.420	-0.130	-0.340
2020/01/31 11:06:13.7	293.280	-0.440	-0.120	-0.370
2020/01/31 11:06:13.8	293.300	-0.460	-0.100	-0.380
2020/01/31 11:06:13.9	293.320	-0.480	-0.080	-0.400
2020/01/31 11:06:14.0	293.340	-0.500	-0.070	-0.420
2020/01/31 11:06:14.1	293.360	-0.510	-0.060	-0.430
2020/01/31 11:06:14.2	293.380	-0.530	-0.040	-0.440
2020/01/31 11:06:14.3	293.400	-0.540	-0.030	-0.440
2020/01/31 11:06:14.4	293.420	-0.550	-0.020	-0.450
2020/01/31 11:06:14.5	293.450	-0.570	-0.010	-0.450
2020/01/31 11:06:14.6	293.470	-0.580	-0.000	-0.450
2020/01/31 11:06:14.7	293.490	-0.580	0.000	-0.450
2020/01/31 11:06:14.8	293.510	-0.590	0.000	-0.440
2020/01/31 11:06:14.9	293.530	-0.600	0.000	-0.430
2020/01/31 11:06:15.0	293.550	-0.600	0.000	-0.420
2020/01/31 11:06:15.1	293.570	-0.600	-0.000	-0.410
2020/01/31 11:06:15.2	293.580	-0.600	-0.010	-0.400
2020/01/31 11:06:15.3	293.600	-0.600	-0.020	-0.380
2020/01/31 11:06:15.4	293.620	-0.600	-0.030	-0.360
2020/01/31 11:06:15.5	293.640	-0.590	-0.040	-0.340
2020/01/31 11:06:15.6	293.650	-0.580	-0.050	-0.320
2020/01/31 11:06:15.7	293.670	-0.570	-0.070	-0.290
2020/01/31 11:06:15.8	293.680	-0.560	-0.090	-0.260
2020/01/31 11:06:15.9	293.690	-0.540	-0.110	-0.230
2020/01/31 11:06:16.0	293.710	-0.530	-0.130	-0.200
2020/01/31 11:06:16.1	293.720	-0.510	-0.160	-0.170
2020/01/31 11:06:16.2	293.730	-0.480	-0.180	-0.130
2020/01/31 11:06:16.3	293.740	-0.460	-0.210	-0.090
2020/01/31 11:06:16.4	293.740	-0.440	-0.240	-0.050
2020/01/31 11:06:16.5	293.750	-0.410	-0.260	-0.010
2020/01/31 11:06:16.6	293.750	-0.380	-0.290	0.030
2020/01/31 11:06:16.7	293.760	-0.350	-0.310	0.080
2020/01/31 11:06:16.8	293.760	-0.320	-0.340	0.120
2020/01/31 11:06:16.9	293.760	-0.280	-0.360	0.170
2020/01/31 11:06:17.0	293.760	-0.250	-0.390	0.220
2020/01/31 11:06:17.1	293.750	-0.220	-0.410	0.280
2020/01/31 11:06:17.2	293.750	-0.180	-0.430	0.330
2020/01/31 11:06:17.3	293.740	-0.150	-0.450	0.380
2020/01/31 11:06:17.4	293.740	-0.110	-0.470	0.440
2020/01/31 11:06:17.5	293.720	-0.070	-0.480	0.490
2020/01/31 11:06:17.6	293.710	-0.040	-0.500	0.550
2020/01/31 11:06:17.7	293.700	-0.000	-0.510	0.610
2020/01/31 11:06:17.8	293.690	0.030	-0.520	0.660
2020/01/31 11:06:17.9	293.670	0.070	-0.530	0.720
2020/01/31 11:06:18.0	293.650	0.100	-0.540	0.770
2020/01/31 11:06:18.1	293.640	0.130	-0.550	0.830
2020/01/31 11:06:18.2	293.620	0.170	-0.550	0.890
2020/01/31 11:06:18.3	293.600	0.200	-0.550	0.940
2020/01/31 11:06:18.4	293.570	0.230	-0.550	0.990
2020/01/31 11:06:18.5	293.550	0.250	-0.550	1.040
2020/01/31 11:06:18.6	293.530	0.280	-0.550	1.090
2020/01/31 11:06:18.7	293.500	0.310	-0.550	1.140
2020/01/31 11:06:18.8	293.480	0.330	-0.540	1.190
2020/01/31 11:06:18.9	293.450	0.350	-0.540	1.230
2020/01/31 11:06:19.0	293.420	0.370	-0.530	1.270
2020/01/31 11:06:19.1	293.390	0.390	-0.520	1.310
2020/01/31 11:06:19.2	293.370	0.410	-0.510	1.350
2020/01/31 11:06:19.3	293.340	0.420	-0.500	1.380
2020/01/31 11:06:19.4	293.310	0.440	-0.490	1.410
2020/01/31 11:06:19.5	293.280	0.450	-0.480	1.440
2020/01/31 11:06:19.6	293.250	0.460	-0.460	1.470
2020/01/31 11:06:19.7	293.220	0.470	-0.450	1.490
2020/01/31 11:06:19.8	293.190	0.480	-0.440	1.500
2020/01/31 11:06:19.9	293.160	0.480	-0.420	1.520
2020/01/31 11:06:20.0	293.140	0.490	-0.410	1.520
2020/01/31 11:06:20.1	293.110	0.490	-0.400	1.530
2020/01/31 11:06:20.2	293.090	0.490	-0.380	1.530
2020/01/31 11:06:20.3	293.070	0.490	-0.370	1.530
2020/01/31 11:06:20.4	293.050	0.490	-0.360	1.520
2020/01/31 11:06:20.5	293.030	0.480	-0.340	1.510
2020/01/31 11:06:20.6	293.010	0.480	-0.330	1.500
2020/01/31 11:06:20.7	292.990	0.470	-0.320	1.490
2020/01/31 11:06:20.8	292.980	0.470	-0.310	1.470
2020/01/31 11:06:20.9	292.970	0.460	-0.290	1.450
2020/01/31 11:06:21.0	292.960	0.450	-0.280	1.430
2020/01/31 11:06:21.1	292.950	0.440	-0.270	1.410
2020/01/31 11:06:21.2	292.940	0.430	-0.250	1.390
2020/01/31 11:06:21.3	292.930	0.420	-0.240	1.360
2020/01/31 11:06:21.4	292.930	0.410	-0.230	1.330
2020/01/31 11:06:21.5	292.930	0.400	-0.210	1.300
2020/01/31 11:06:21.6	292.930	0.390	-0.200	1.270
2020/01/31 11:06:21.7	292.930	0.370	-0.190	1.240
2020/01/31 11:06:21.8	292.940	0.360	-0.180	1.210
2020/01/31 11:06:21.9	292.940	0.350	-0.160	1.170
2020/01/31 11:06:22.0	292.950	0.330	-0.150	1.140
2020/01/31 11:06:22.1	292.950	0.320	-0.140	1.100
2020/01/31 11:06:22.2	292.960	0.300	-0.120	1.060
2020/01/31 11:06:22.3	292.980	0.290	-0.110	1.020
2020/01/31 11:06:22.4	292.990	0.280	-0.100	0.980
2020/01/31 11:06:22.5	293.000	0.260	-0.090	0.930
2020/01/31 11:06:22.6	293.020	0.250	-0.080	0.890
2020/01/31 11:06:22.7	293.030	0.230	-0.060	0.850
2020/01/31 11:06:22.8	293.050	0.220	-0.050	0.800
2020/01/31 11:06:22.9	293.070	0.210	-0.040	0.750
2020/01/31 11:06:23.0	293.090	0.190	-0.030	0.710
2020/01/31 11:06:23.1	293.110	0.180	-0.020	0.660
2020/01/31 11:06:23.2	293.130	0.170	-0.010	0.610
2020/01/31 11:06:23.3	293.150	0.160	0.010	0.570
2020/01/31 11:06:23.4	293.170	0.140	0.020	0.520
2020/01/31 11:06:23.5	293.190	0.130	0.030	0.470
2020/01/31 11:06:23.6	293.220	0.120	0.040	0.430
2020/01/31 11:06:23.7	293.240	0.110	0.050	0.380
2020/01/31 11:06:23.8	293.260	0.100	0.060	0.340
2020/01/31 11:06:23.9	293.280	0.090	0.060	0.290
2020/01/31 11:06:24.0	293.300	0.080	0.070	0.250
2020/01/31 11:06:24.1	293.310	0.070	0.080	0.210
2020/01/31 11:06:24.2	293.330	0.060	0.080	0.170
2020/01/31 11:06:24.3	293.350	0.040	0.090	0.130
2020/01/31 11:06:24.4	293.370	0.030	0.090	0.090
2020/01/31 11:06:24.5	293.370	0.020	0.090	0.050
2020/01/31 11:06:24.6	293.390	0.010	0.090	0.010
2020/01/31 11:06:24.7	293.400	0.000	0.090	-0.020
2020/01/31 11:06:24.8	293.410	-0.010	0.090	-0.060
2020/01/31 11:06:24.9	293.420	-0.020	0.090	-0.090
2020/01/31 11:06:25.0	293.430	-0.030	0.080	-0.120
2020/01/31 11:06:25.1	293.440	-0.040	0.070	-0.150
2020/01/31 11:06:25.2	293.450	-0.050	0.070	-0.180
2020/01/31 11:06:25.3	293.460	-0.060	0.060	-0.210
2020/01/31 11:06:25.4	293.460	-0.070	0.050	-0.230
2020/01/31 11:06:25.5	293.460	-0.080	0.030	-0.260
2020/01/31 11:06:25.6	293.470	-0.100	0.020	-0.280
2020/01/31 11:06:25.7	293.470	-0.110	0.010	-0.300
2020/01/31 11:06:25.8	293.470	-0.120	-0.010	-0.320
2020/01/31 11:06:25.9	293.470	-0.130	-0.030	-0.340
2020/01/31 11:06:26.0	293.460	-0.140	-0.040	-0.350
2020/01/31 11:06:26.1	293.460	-0.160	-0.060	-0.360
2020/01/31 11:06:26.2	293.460	-0.170	-0.080	-0.370
2020/01/31 11:06:26.3	293.450	-0.180	-0.090	-0.380
2020/01/31 11:06:26.4	293.450	-0.200	-0.110	-0.390
2020/01/31 11:06:26.5	293.440	-0.210	-0.130	-0.390
2020/01/31 11:06:26.6	293.430	-0.220	-0.150	-0.390
2020/01/31 11:06:26.7	293.420	-0.240	-0.160	-0.390
2020/01/31 11:06:26.8	293.420	-0.250	-0.180	-0.390
2020/01/31 11:06:26.9	293.410	-0.260	-0.200	-0.390
2020/01/31 11:06:27.0	293.400	-0.270	-0.210	-0.380
2020/01/31 11:06:27.1	293.390	-0.290	-0.230	-0.370
2020/01/31 11:06:27.2	293.380	-0.300	-0.250	-0.360
2020/01/31 11:06:27.3	293.370	-0.310	-0.260	-0.350
2020/01/31 11:06:27.4	293.360	-0.320	-0.280	-0.340
2020/01/31 11:06:27.5	293.350	-0.340	-0.290	-0.320
2020/01/31 11:06:27.6	293.340	-0.350	-0.310	-0.310
2020/01/31 11:06:27.7	293.330	-0.360	-0.320	-0.290
2020/01/31 11:06:27.8	293.320	-0.370	-0.340	-0.270
2020/01/31 11:06:27.9	293.310	-0.380	-0.350	-0.250
2020/01/31 11:06:28.0	293.300	-0.380	-0.370	-0.240
2020/01/31 11:06:28.1	293.280	-0.390	-0.380	-0.220
2020/01/31 11:06:28.2	293.270	-0.400	-0.400	-0.190
2020/01/31 11:06:28.3	293.260	-0.410	-0.410	-0.170
2020/01/31 11:06:28.4	293.250	-0.410	-0.420	-0.150
2020/01/31 11:06:28.5	293.250	-0.420	-0.440	-0.130
2020/01/31 11:06:28.6	293.240	-0.420	-0.460	-0.100
2020/01/31 11:06:28.7	293.230	-0.420	-0.470	-0.080
2020/01/31 11:06:28.8	293.220	-0.420	-0.480	-0.050
2020/01/31 11:06:28.9	293.210	-0.420	-0.490	-0.030
2020/01/31 11:06:29.0	293.200	-0.420	-0.510	0.000
2020/01/31 11:06:29.1	293.190	-0.420	-0.520	0.030
2020/01/31 11:06:29.2	293.180	-0.420	-0.530	0.060
2020/01/31 11:06:29.3	293.180	-0.420	-0.540	0.090
2020/01/31 11:06:29.4	293.170	-0.410	-0.550	0.120
2020/01/31 11:06:29.5	293.160	-0.410	-0.550	0.150
2020/01/31 11:06:29.6	293.150	-0.400	-0.560	0.180
2020/01/31 11:06:29.7	293.140	-0.390	-0.570	0.220
2020/01/31 11:06:29.8	293.140	-0.380	-0.570	0.250
2020/01/31 11:06:29.9	293.130	-0.370	-0.580	0.290
2020/01/31 11:06:30.0	293.120	-0.360	-0.580	0.320
2020/01/31 11:06:30.1	293.120	-0.350	-0.580	0.360
2020/01/31 11:06:30.2	293.110	-0.340	-0.580	0.400
2020/01/31 11:06:30.3	293.110	-0.320	-0.580	0.440
2020/01/31 11:06:30.4	293.100	-0.310	-0.580	0.480
2020/01/31 11:06:30.5	293.100	-0.290	-0.570	0.520
2020/01/31 11:06:30.6	293.090	-0.280	-0.570	0.560
2020/01/31 11:06:30.7	293.090	-0.260	-0.570	0.600
2020/01/31 11:06:30.8	293.080	-0.250	-0.560	0.640
2020/01/31 11:06:30.9	293.080	-0.230	-0.560	0.670
2020/01/31 11:06:31.0	293.080	-0.210	-0.550	0.710
2020/01/31 11:06:31.1	293.070	-0.190	-0.550	0.750
2020/01/31 11:06:31.2	293.070	-0.170	-0.540	0.780
2020/01/31 11:06:31.3	293.070	-0.150	-0.530	0.820
2020/01/31 11:06:31.4	293.070	-0.130	-0.530	0.850
2020/01/31 11:06:31.5	293.060	-0.110	-0.520	0.880
2020/01/31 11:06:31.6	293.060	-0.090	-0.510	0.900
2020/01/31 11:06:31.7	293.070	-0.070	-0.510	0.930
2020/01/31 11:06:31.8	293.070	-0.050	-0.500	0.950
2020/01/31 11:06:31.9	293.080	-0.030	-0.490	0.970
2020/01/31 11:06:32.0	293.090	-0.010	-0.490	0.990
2020/01/31 11:06:32.1	293.100	0.010	-0.480	1.010
2020/01/31 11:06:32.2	293.110	0.030	-0.470	1.020
2020/01/31 11:06:32.3	293.120	0.050	-0.470	1.030
2020/01/31 11:06:32.4	293.130	0.070	-0.460	1.040
2020/01/31 11:06:32.5	293.140	0.090	-0.450	1.050
2020/01/31 11:06:32.6	293.150	0.110	-0.440	1.050
2020/01/31 11:06:32.7	293.170	0.130	-0.430	1.050
2020/01/31 11:06:32.8	293.180	0.150	-0.420	1.050
2020/01/31 11:06:32.9	293.200	0.160	-0.410	1.050
2020/01/31 11:06:33.0	293.210	0.180	-0.400	1.040
2020/01/31 11:06:33.1	293.230	0.200	-0.390	1.030
2020/01/31 11:06:33.2	293.240	0.210	-0.370	1.030
2020/01/31 11:06:33.3	293.260	0.220	-0.360	1.010
2020/01/31 11:06:33.4	293.270	0.240	-0.340	1.000
2020/01/31 11:06:33.5	293.280	0.250	-0.320	0.990
2020/01/31 11:06:33.6	293.290	0.260	-0.300	0.970
2020/01/31 11:06:33.7	293.310	0.270	-0.280	0.960
2020/01/31 11:06:33.8	293.320	0.280	-0.260	0.940
2020/01/31 11:06:33.9	293.340	0.290	-0.240	0.920
2020/01/31 11:06:34.0	293.350	0.290	-0.220	0.900
2020/01/31 11:06:34.1	293.360	0.300	-0.190	0.880
2020/01/31 11:06:34.2	293.380	0.300	-0.170	0.860
2020/01/31 11:06:34.3	293.390	0.310	-0.140	0.840
2020/01/31 11:06:34.4	293.400	0.310	-0.110	0.820
2020/01/31 11:06:34.5	293.400	0.310	-0.090	0.800
2020/01/31 11:06:34.6	293.410	0.310	-0.060	0.790
2020/01/31 11:06:34.7	293.420	0.310	-0.030	0.770
2020/01/31 11:06:34.8	293.420	0.310	-0.000	0.750
2020/01/31 11:06:34.9	293.420	0.300	0.030	0.730
2020/01/31 11:06:35.0	293.430	0.300	0.050	0.720
2020/01/31 11:06:35.1	293.430	0.300	0.080	0.700
2020/01/31 11:06:35.2	293.420	0.290	0.100	0.690
2020/01/31 11:06:35.3	293.420	0.280	0.130	0.680
2020/01/31 11:06:35.4	293.420	0.270	0.150	0.660
2020/01/31 11:06:35.5	293.410	0.260	0.170	0.650
2020/01/31 11:06:35.6	293.400	0.250	0.180	0.630
2020/01/31 11:06:35.7	293.390	0.240	0.200	0.620
2020/01/31 11:06:35.8	293.380	0.230	0.210	0.610
2020/01/31 11:06:35.9	293.370	0.220	0.220	0.600
2020/01/31 11:06:36.0	293.360	0.210	0.230	0.580
2020/01/31 11:06:36.1	293.350	0.200	0.240	0.570
2020/01/31 11:06:36.2	293.330	0.190	0.240	0.560
2020/01/31 11:06:36.3	293.320	0.180	0.240	0.550
2020/01/31 11:06:36.4	293.300	0.160	0.240	0.540
2020/01/31 11:06:36.5	293.290	0.150	0.230	0.530
2020/01/31 11:06:36.6	293.270	0.140	0.230	0.520
2020/01/31 11:06:36.7	293.250	0.130	0.220	0.510
2020/01/31 11:06:36.8	293.230	0.120	0.200	0.500
2020/01/31 11:06:36.9	293.200	0.110	0.190	0.500
2020/01/31 11:06:37.0	293.180	0.100	0.170	0.490
2020/01/31 11:06:37.1	293.160	0.090	0.160	0.480
2020/01/31 11:06:37.2	293.140	0.080	0.140	0.480
2020/01/31 11:06:37.3	293.110	0.070	0.110	0.470
2020/01/31 11:06:37.4	293.090	0.070	0.090	0.460
2020/01/31 11:06:37.5	293.070	0.060	0.070	0.460
2020/01/31 11:06:37.6	293.050	0.060	0.040	0.450
2020/01/31 11:06:37.7	293.030	0.050	0.020	0.440
2020/01/31 11:06:37.8	293.010	0.050	-0.010	0.440
2020/01/31 11:06:37.9	292.990	0.050	-0.040	0.430
2020/01/31 11:06:38.0	292.970	0.040	-0.060	0.430
2020/01/31 11:06:38.1	292.950	0.040	-0.090	0.420
2020/01/31 11:06:38.2	292.930	0.040	-0.120	0.410
2020/01/31 11:06:38.3	292.910	0.040	-0.140	0.400
2020/01/31 11:06:38.4	292.900	0.040	-0.170	0.400
2020/01/31 11:06:38.5	292.880	0.050	-0.190	0.380
2020/01/31 11:06:38.6	292.870	0.050	-0.220	0.370
2020/01/31 11:06:38.7	292.860	0.050	-0.250	0.360
2020/01/31 11:06:38.8	292.850	0.060	-0.270	0.350
2020/01/31 11:06:38.9	292.840	0.060	-0.300	0.340
2020/01/31 11:06:39.0	292.840	0.070	-0.320	0.320
2020/01/31 11:06:39.1	292.830	0.070	-0.350	0.310
2020/01/31 11:06:39.2	292.830	0.080	-0.370	0.290
2020/01/31 11:06:39.3	292.830	0.090	-0.390	0.270
2020/01/31 11:06:39.4	292.840	0.090	-0.410	0.250
2020/01/31 11:06:39.5	292.860	0.100	-0.430	0.240
2020/01/31 11:06:39.6	292.860	0.110	-0.450	0.220
2020/01/31 11:06:39.7	292.870	0.120	-0.470	0.200
2020/01/31 11:06:39.8	292.880	0.120	-0.480	0.180
2020/01/31 11:06:39.9	292.890	0.130	-0.490	0.160
2020/01/31 11:06:40.0	292.910	0.140	-0.510	0.140
2020/01/31 11:06:40.1	292.920	0.150	-0.510	0.120
2020/01/31 11:06:40.2	292.940	0.160	-0.520	0.100
2020/01/31 11:06:40.3	292.950	0.160	-0.530	0.080
2020/01/31 11:06:40.4	292.970	0.170	-0.530	0.060
2020/01/31 11:06:40.5	292.980	0.180	-0.530	0.050
2020/01/31 11:06:40.6	293.000	0.180	-0.530	0.030
2020/01/31 11:06:40.7	293.020	0.190	-0.530	0.020
2020/01/31 11:06:40.8	293.040	0.190	-0.530	0.010
2020/01/31 11:06:40.9	293.060	0.200	-0.520	-0.000
2020/01/31 11:06:41.0	293.080	0.200	-0.510	-0.010
2020/01/31 11:06:41.1	293.100	0.200	-0.510	-0.020
2020/01/31 11:06:41.2	293.120	0.200	-0.500	-0.020
2020/01/31 11:06:41.3	293.140	0.200	-0.490	-0.030
2020/01/31 11:06:41.4	293.170	0.200	-0.470	-0.030
2020/01/31 11:06:41.5	293.190	0.200	-0.460	-0.040
2020/01/31 11:06:41.6	293.210	0.190	-0.450	-0.040
2020/01/31 11:06:41.7	293.230	0.190	-0.440	-0.040
2020/01/31 11:06:41.8	293.250	0.180	-0.420	-0.040
2020/01/31 11:06:41.9	293.270	0.170	-0.410	-0.030
2020/01/31 11:06:42.0	293.290	0.170	-0.400	-0.030
2020/01/31 11:06:42.1	293.310	0.160	-0.380	-0.020
2020/01/31 11:06:42.2	293.320	0.140	-0.370	-0.010
2020/01/31 11:06:42.3	293.340	0.130	-0.360	0.000
2020/01/31 11:06:42.4	293.350	0.120	-0.350	0.010
2020/01/31 11:06:42.5	293.360	0.110	-0.330	0.030
2020/01/31 11:06:42.6	293.370	0.090	-0.320	0.050
2020/01/31 11:06:42.7	293.380	0.080	-0.310	0.070
2020/01/31 11:06:42.8	293.390	0.060	-0.300	0.090
2020/01/31 11:06:42.9	293.390	0.040	-0.290	0.110
2020/01/31 11:06:43.0	293.400	0.020	-0.280	0.140
2020/01/31 11:06:43.1	293.400	0.000	-0.270	0.160
2020/01/31 11:06:43.2	293.400	-0.020	-0.260	0.190
2020/01/31 11:06:43.3	293.390	-0.040	-0.240	0.220
2020/01/31 11:06:43.4	293.390	-0.060	-0.240	0.250
2020/01/31 11:06:43.5	293.380	-0.080	-0.220	0.290
2020/01/31 11:06:43.6	293.370	-0.100	-0.210	0.320
2020/01/31 11:06:43.7	293.360	-0.120	-0.210	0.350
2020/01/31 11:06:43.8	293.350	-0.140	-0.200	0.390
2020/01/31 11:06:43.9	293.340	-0.160	-0.190	0.420
2020/01/31 11:06:44.0	293.320	-0.180	-0.180	0.450
2020/01/31 11:06:44.1	293.300	-0.200	-0.180	0.480
2020/01/31 11:06:44.2	293.290	-0.220	-0.170	0.520
2020/01/31 11:06:44.3	293.270	-0.240	-0.170	0.540
2020/01/31 11:06:44.4	293.250	-0.270	-0.170	0.570
2020/01/31 11:06:44.5	293.230	-0.280	-0.170	0.600
2020/01/31 11:06:44.6	293.210	-0.300	-0.170	0.620
2020/01/31 11:06:44.7	293.190	-0.320	-0.170	0.640
2020/01/31 11:06:44.8	293.170	-0.340	-0.170	0.660
2020/01/31 11:06:44.9	293.150	-0.360	-0.170	0.680
2020/01/31 11:06:45.0	293.130	-0.370	-0.180	0.700
2020/01/31 11:06:45.1	293.120	-0.390	-0.180	0.710
2020/01/31 11:06:45.2	293.100	-0.400	-0.190	0.720
2020/01/31 11:06:45.3	293.080	-0.410	-0.190	0.730
2020/01/31 11:06:45.4	293.060	-0.430	-0.200	0.730
2020/01/31 11:06:45.5	293.050	-0.440	-0.210	0.740
2020/01/31 11:06:45.6	293.030	-0.450	-0.220	0.740
2020/01/31 11:06:45.7	293.010	-0.460	-0.230	0.740
2020/01/31 11:06:45.8	293.000	-0.460	-0.240	0.740
2020/01/31 11:06:45.9	292.990	-0.470	-0.250	0.730
2020/01/31 11:06:46.0	292.970	-0.470	-0.260	0.720
2020/01/31 11:06:46.1	292.960	-0.480	-0.270	0.710
2020/01/31 11:06:46.2	292.950	-0.480	-0.280	0.700
2020/01/31 11:06:46.3	292.940	-0.480	-0.290	0.680
2020/01/31 11:06:46.4	292.930	-0.480	-0.300	0.670
2020/01/31 11:06:46.5	292.920	-0.480	-0.310	0.650
2020/01/31 11:06:46.6	292.910	-0.470	-0.320	0.630
2020/01/31 11:06:46.7	292.910	-0.470	-0.330	0.610
2020/01/31 11:06:46.8	292.900	-0.460	-0.340	0.580
2020/01/31 11:06:46.9	292.890	-0.460	-0.350	0.560
2020/01/31 11:06:47.0	292.890	-0.450	-0.360	0.530
2020/01/31 11:06:47.1	292.880	-0.440	-0.370	0.510
2020/01/31 11:06:47.2	292.880	-0.430	-0.380	0.480
2020/01/31 11:06:47.3	292.880	-0.420	-0.390	0.450
2020/01/31 11:06:47.4	292.880	-0.410	-0.390	0.420
2020/01/31 11:06:47.5	292.870	-0.400	-0.400	0.400
2020/01/31 11:06:47.6	292.870	-0.390	-0.400	0.370
2020/01/31 11:06:47.7	292.870	-0.380	-0.410	0.340
2020/01/31 11:06:47.8	292.870	-0.360	-0.410	0.310
2020/01/31 11:06:47.9	292.880	-0.350	-0.410	0.290
2020/01/31 11:06:48.0	292.880	-0.330	-0.410	0.260
2020/01/31 11:06:48.1	292.890	-0.320	-0.410	0.240
2020/01/31 11:06:48.2	292.890	-0.300	-0.410	0.220
2020/01/31 11:06:48.3	292.900	-0.280	-0.410	0.200
2020/01/31 11:06:48.4	292.900	-0.260	-0.400	0.180
2020/01/31 11:06:48.5	292.900	-0.240	-0.400	0.170
2020/01/31 11:06:48.6	292.910	-0.220	-0.390	0.150
2020/01/31 11:06:48.7	292.920	-0.200	-0.380	0.150
2020/01/31 11:06:48.8	292.920	-0.180	-0.370	0.140
2020/01/31 11:06:48.9	292.930	-0.160	-0.360	0.140
2020/01/31 11:06:49.0	292.940	-0.140	-0.350	0.140
2020/01/31 11:06:49.1	292.950	-0.120	-0.340	0.140
2020/01/31 11:06:49.2	292.960	-0.100	-0.320	0.140
2020/01/31 11:06:49.3	292.960	-0.080	-0.310	0.150
2020/01/31 11:06:49.4	292.970	-0.050	-0.290	0.170
2020/01/31 11:06:49.5	292.980	-0.030	-0.280	0.180
2020/01/31 11:06:49.6	292.990	-0.010	-0.260	0.200
2020/01/31 11:06:49.7	293.000	0.020	-0.240	0.220
2020/01/31 11:06:49.8	293.000	0.040	-0.230	0.250
2020/01/31 11:06:49.9	293.010	0.060	-0.210	0.280
2020/01/31 11:06:50.0	293.020	0.090	-0.190	0.310
2020/01/31 11:06:50.1	293.020	0.110	-0.170	0.340
2020/01/31 11:06:50.2	293.030	0.130	-0.150	0.380
2020/01/31 11:06:50.3	293.030	0.150	-0.130	0.410
2020/01/31 11:06:50.4	293.040	0.180	-0.110	0.450
2020/01/31 11:06:50.5	293.050	0.200	-0.090	0.490
2020/01/31 11:06:50.6	293.050	0.220	-0.070	0.530
2020/01/31 11:06:50.7	293.050	0.240	-0.060	0.580
2020/01/31 11:06:50.8	293.050	0.260	-0.040	0.620
2020/01/31 11:06:50.9	293.050	0.280	-0.020	0.660
2020/01/31 11:06:51.0	293.050	0.300	-0.010	0.700
2020/01/31 11:06:51.1	293.050	0.320	0.000	0.740
2020/01/31 11:06:51.2	293.050	0.340	0.020	0.780
2020/01/31 11:06:51.3	293.050	0.360	0.030	0.820
2020/01/31 11:06:51.4	293.050	0.370	0.040	0.860
2020/01/31 11:06:51.5	293.050	0.390	0.040	0.890
2020/01/31 11:06:51.6	293.040	0.410	0.050	0.930
2020/01/31 11:06:51.7	293.040	0.420	0.060	0.960
2020/01/31 11:06:51.8	293.030	0.430	0.060	0.980
2020/01/31 11:06:51.9	293.030	0.450	0.060	1.010
2020/01/31 11:06:52.0	293.030	0.460	0.060	1.030
2020/01/31 11:06:52.1	293.020	0.470	0.060	1.050
2020/01/31 11:06:52.2	293.020	0.480	0.060	1.060
2020/01/31 11:06:52.3	293.020	0.490	0.060	1.070
2020/01/31 11:06:52.4	293.020	0.490	0.050	1.080
2020/01/31 11:06:52.5	293.010	0.500	0.050	1.080
2020/01/31 11:06:52.6	293.000	0.510	0.040	1.090
2020/01/31 11:06:52.7	293.000	0.510	0.040	1.090
2020/01/31 11:06:52.8	293.000	0.520	0.030	1.080
2020/01/31 11:06:52.9	293.000	0.520	0.020	1.070
2020/01/31 11:06:53.0	293.000	0.520	0.000	1.060
2020/01/31 11:06:53.1	293.000	0.530	-0.010	1.050
2020/01/31 11:06:53.2	293.000	0.530	-0.020	1.030
2020/01/31 11:06:53.3	293.000	0.530	-0.040	1.010
2020/01/31 11:06:53.4	293.000	0.530	-0.050	0.990
2020/01/31 11:06:53.5	293.010	0.530	-0.070	0.970
2020/01/31 11:06:53.6	293.010	0.530	-0.080	0.940
2020/01/31 11:06:53.7	293.020	0.530	-0.100	0.910
2020/01/31 11:06:53.8	293.020	0.520	-0.120	0.880
2020/01/31 11:06:53.9	293.030	0.520	-0.140	0.850
2020/01/31 11:06:54.0	293.030	0.510	-0.160	0.820
2020/01/31 11:06:54.1	293.030	0.510	-0.170	0.780
2020/01/31 11:06:54.2	293.040	0.500	-0.190	0.750
2020/01/31 11:06:54.3	293.050	0.490	-0.210	0.710
2020/01/31 11:06:54.4	293.050	0.480	-0.230	0.670
2020/01/31 11:06:54.5	293.060	0.470	-0.250	0.640
2020/01/31 11:06:54.6	293.070	0.460	-0.260	0.600
2020/01/31 11:06:54.7	293.080	0.450	-0.280	0.560
2020/01/31 11:06:54.8	293.080	0.440	-0.290	0.520
2020/01/31 11:06:54.9	293.090	0.420	-0.300	0.480
2020/01/31 11:06:55.0	293.100	0.410	-0.320	0.440
2020/01/31 11:06:55.1	293.100	0.390	-0.330	0.400
2020/01/31 11:06:55.2	293.110	0.370	-0.340	0.350
2020/01/31 11:06:55.3	293.120	0.360	-0.350	0.310
2020/01/31 11:06:55.4	293.120	0.340	-0.360	0.270
2020/01/31 11:06:55.5	293.120	0.320	-0.370	0.230
2020/01/31 11:06:55.6	293.130	0.290	-0.380	0.190
2020/01/31 11:06:55.7	293.140	0.270	-0.390	0.150
2020/01/31 11:06:55.8	293.150	0.250	-0.400	0.120
2020/01/31 11:06:55.9	293.150	0.230	-0.410	0.080
2020/01/31 11:06:56.0	293.160	0.200	-0.420	0.040
2020/01/31 11:06:56.1	293.170	0.180	-0.430	0.010
2020/01/31 11:06:56.2	293.170	0.150	-0.440	-0.030
2020/01/31 11:06:56.3	293.180	0.120	-0.450	-0.060
2020/01/31 11:06:56.4	293.180	0.090	-0.460	-0.090
2020/01/31 11:06:56.5	293.180	0.070	-0.470	-0.120
2020/01/31 11:06:56.6	293.190	0.040	-0.480	-0.150
2020/01/31 11:06:56.7	293.190	0.010	-0.490	-0.180
2020/01/31 11:06:56.8	293.190	-0.020	-0.490	-0.200
2020/01/31 11:06:56.9	293.200	-0.050	-0.500	-0.230
2020/01/31 11:06:57.0	293.200	-0.080	-0.510	-0.250
2020/01/31 11:06:57.1	293.200	-0.110	-0.520	-0.270
2020/01/31 11:06:57.2	293.200	-0.140	-0.520	-0.280
2020/01/31 11:06:57.3	293.200	-0.160	-0.530	-0.290
2020/01/31 11:06:57.4	293.200	-0.190	-0.540	-0.310
2020/01/31 11:06:57.5	293.210	-0.220	-0.540	-0.310
2020/01/31 11:06:57.6	293.210	-0.250	-0.540	-0.320
2020/01/31 11:06:57.7	293.200	-0.270	-0.540	-0.320
2020/01/31 11:06:57.8	293.200	-0.300	-0.540	-0.320
2020/01/31 11:06:57.9	293.200	-0.320	-0.550	-0.320
2020/01/31 11:06:58.0	293.190	-0.350	-0.540	-0.310
2020/01/31 11:06:58.1	293.190	-0.370	-0.540	-0.300
2020/01/31 11:06:58.2	293.180	-0.390	-0.540	-0.280
2020/01/31 11:06:58.3	293.170	-0.410	-0.540	-0.270
2020/01/31 11:06:58.4	293.160	-0.430	-0.530	-0.250
2020/01/31 11:06:58.5	293.150	-0.440	-0.530	-0.230
2020/01/31 11:06:58.6	293.140	-0.460	-0.520	-0.200
2020/01/31 11:06:58.7	293.130	-0.470	-0.510	-0.180
2020/01/31 11:06:58.8	293.120	-0.490	-0.500	-0.150
2020/01/31 11:06:58.9	293.110	-0.500	-0.490	-0.120
2020/01/31 11:06:59.0	293.100	-0.500	-0.480	-0.080
2020/01/31 11:06:59.1	293.090	-0.510	-0.470	-0.050
2020/01/31 11:06:59.2	293.070	-0.520	-0.460	-0.010
2020/01/31 11:06:59.3	293.060	-0.520	-0.450	0.020
2020/01/31 11:06:59.4	293.050	-0.520	-0.440	0.060
2020/01/31 11:06:59.5	293.040	-0.520	-0.420	0.090
2020/01/31 11:06:59.6	293.020	-0.520	-0.410	0.130
2020/01/31 11:06:59.7	293.010	-0.520	-0.390	0.170
2020/01/31 11:06:59.8	293.010	-0.510	-0.380	0.200
2020/01/31 11:06:59.9	293.000	-0.510	-0.360	0.240
2020/01/31 11:07:00.0	292.990	-0.500	-0.350	0.280
2020/01/31 11:07:00.1	292.980	-0.490	-0.330	0.310
2020/01/31 11:07:00.2	292.970	-0.480	-0.310	0.340
2020/01/31 11:07:00.3	292.970	-0.470	-0.290	0.380
2020/01/31 11:07:00.4	292.960	-0.460	-0.270	0.410
2020/01/31 11:07:00.5	292.950	-0.440	-0.250	0.440
2020/01/31 11:07:00.6	292.950	-0.430	-0.230	0.470
2020/01/31 11:07:00.7	292.940	-0.410	-0.210	0.500
2020/01/31 11:07:00.8	292.940	-0.400	-0.190	0.520
2020/01/31 11:07:00.9	292.940	-0.380	-0.170	0.540
2020/01/31 11:07:01.0	292.930	-0.360	-0.140	0.570
2020/01/31 11:07:01.1	292.930	-0.350	-0.120	0.590
2020/01/31 11:07:01.2	292.930	-0.330	-0.100	0.610
2020/01/31 11:07:01.3	292.930	-0.310	-0.080	0.620
2020/01/31 11:07:01.4	292.920	-0.300	-0.050	0.640
2020/01/31 11:07:01.5	292.920	-0.280	-0.030	0.650
2020/01/31 11:07:01.6	292.920	-0.260	-0.010	0.670
2020/01/31 11:07:01.7	292.920	-0.250	0.020	0.680
2020/01/31 11:07:01.8	292.920	-0.230	0.040	0.690
2020/01/31 11:07:01.9	292.920	-0.210	0.060	0.700
2020/01/31 11:07:02.0	292.920	-0.200	0.080	0.700
2020/01/31 11:07:02.1	292.920	-0.180	0.100	0.710
2020/01/31 11:07:02.2	292.920	-0.170	0.120	0.710
2020/01/31 11:07:02.3	292.920	-0.150	0.140	0.720
2020/01/31 11:07:02.4	292.920	-0.140	0.160	0.720
2020/01/31 11:07:02.5	292.910	-0.130	0.170	0.720
2020/01/31 11:07:02.6	292.910	-0.120	0.190	0.720
2020/01/31 11:07:02.7	292.910	-0.100	0.200	0.720
2020/01/31 11:07:02.8	292.910	-0.090	0.210	0.720
2020/01/31 11:07:02.9	292.920	-0.080	0.220	0.720
2020/01/31 11:07:03.0	292.920	-0.070	0.220	0.710
2020/01/31 11:07:03.1	292.920	-0.060	0.230	0.710
2020/01/31 11:07:03.2	292.920	-0.050	0.230	0.700
2020/01/31 11:07:03.3	292.930	-0.040	0.230	0.690
2020/01/31 11:07:03.4	292.930	-0.030	0.230	0.680
2020/01/31 11:07:03.5	292.940	-0.020	0.220	0.670
2020/01/31 11:07:03.6	292.950	-0.010	0.210	0.660
2020/01/31 11:07:03.7	292.960	-0.000	0.190	0.650
2020/01/31 11:07:03.8	292.960	0.010	0.180	0.640
2020/01/31 11:07:03.9	292.970	0.020	0.160	0.620
2020/01/31 11:07:04.0	292.980	0.030	0.140	0.610
2020/01/31 11:07:04.1	292.990	0.040	0.120	0.600
2020/01/31 11:07:04.2	293.000	0.050	0.100	0.580
2020/01/31 11:07:04.3	293.010	0.060	0.070	0.570
2020/01/31 11:07:04.4	293.020	0.070	0.040	0.550
2020/01/31 11:07:04.5	293.030	0.080	0.010	0.540
2020/01/31 11:07:04.6	293.040	0.100	-0.020	0.520
2020/01/31 11:07:04.7	293.050	0.110	-0.060	0.510
2020/01/31 11:07:04.8	293.070	0.120	-0.090	0.490
2020/01/31 11:07:04.9	293.080	0.140	-0.130	0.480
2020/01/31 11:07:05.0	293.100	0.150	-0.170	0.460
2020/01/31 11:07:05.1	293.110	0.160	-0.200	0.450
2020/01/31 11:07:05.2	293.130	0.180	-0.240	0.440
2020/01/31 11:07:05.3	293.140	0.190	-0.280	0.420
2020/01/31 11:07:05.4	293.160	0.210	-0.320	0.410
2020/01/31 11:07:05.5	293.180	0.220	-0.360	0.400
2020/01/31 11:07:05.6	293.190	0.230	-0.400	0.390
2020/01/31 11:07:05.7	293.200	0.250	-0.430	0.380
2020/01/31 11:07:05.8	293.220	0.260	-0.470	0.370
2020/01/31 11:07:05.9	293.230	0.280	-0.500	0.360
2020/01/31 11:07:06.0	293.240	0.290	-0.530	0.360
2020/01/31 11:07:06.1	293.250	0.300	-0.560	0.350
2020/01/31 11:07:06.2	293.260	0.310	-0.580	0.350
2020/01/31 11:07:06.3	293.270	0.320	-0.600	0.350
2020/01/31 11:07:06.4	293.280	0.330	-0.620	0.340
2020/01/31 11:07:06.5	293.280	0.340	-0.640	0.340
2020/01/31 11:07:06.6	293.290	0.350	-0.660	0.340
2020/01/31 11:07:06.7	293.290	0.360	-0.670	0.350
2020/01/31 11:07:06.8	293.290	0.370	-0.670	0.350
2020/01/31 11:07:06.9	293.300	0.370	-0.680	0.360
2020/01/31 11:07:07.0	293.300	0.380	-0.680	0.370
2020/01/31 11:07:07.1	293.300	0.380	-0.680	0.370
2020/01/31 11:07:07.2	293.300	0.380	-0.680	0.380
2020/01/31 11:07:07.3	293.300	0.390	-0.670	0.400
2020/01/31 11:07:07.4	293.300	0.390	-0.670	0.410
2020/01/31 11:07:07.5	293.310	0.390	-0.660	0.420
2020/01/31 11:07:07.6	293.300	0.390	-0.650	0.440
2020/01/31 11:07:07.7	293.300	0.390	-0.640	0.450
2020/01/31 11:07:07.8	293.290	0.380	-0.620	0.470
2020/01/31 11:07:07.9	293.290	0.380	-0.610	0.480
2020/01/31 11:07:08.0	293.280	0.370	-0.600	0.500
2020/01/31 11:07:08.1	293.270	0.370	-0.590	0.520
2020/01/31 11:07:08.2	293.260	0.360	-0.580	0.540
2020/01/31 11:07:08.3	293.250	0.350	-0.560	0.560
2020/01/31 11:07:08.4	293.240	0.340	-0.550	0.570
2020/01/31 11:07:08.5	293.240	0.330	-0.540	0.590
2020/01/31 11:07:08.6	293.230	0.320	-0.530	0.610
2020/01/31 11:07:08.7	293.220	0.310	-0.520	0.620
2020/01/31 11:07:08.8	293.210	0.300	-0.500	0.640
2020/01/31 11:07:08.9	293.190	0.280	-0.490	0.650
2020/01/31 11:07:09.0	293.180	0.270	-0.480	0.670
2020/01/31 11:07:09.1	293.170	0.250	-0.470	0.690
2020/01/31 11:07:09.2	293.160	0.240	-0.460	0.700
2020/01/31 11:07:09.3	293.140	0.220	-0.450	0.710
2020/01/31 11:07:09.4	293.130	0.210	-0.440	0.730
2020/01/31 11:07:09.5	293.110	0.190	-0.420	0.740
2020/01/31 11:07:09.6	293.100	0.170	-0.410	0.760
2020/01/31 11:07:09.7	293.080	0.160	-0.400	0.770
2020/01/31 11:07:09.8	293.060	0.140	-0.390	0.780
2020/01/31 11:07:09.9	293.050	0.120	-0.370	0.790
2020/01/31 11:07:10.0	293.030	0.100	-0.360	0.800
2020/01/31 11:07:10.1	293.010	0.090	-0.340	0.820
2020/01/31 11:07:10.2	293.000	0.070	-0.330	0.830
2020/01/31 11:07:10.3	292.980	0.050	-0.310	0.840
2020/01/31 11:07:10.4	292.960	0.030	-0.290	0.850
2020/01/31 11:07:10.5	292.930	0.020	-0.280	0.850
2020/01/31 11:07:10.6	292.910	-0.000	-0.260	0.860
2020/01/31 11:07:10.7	292.900	-0.020	-0.240	0.870
2020/01/31 11:07:10.8	292.880	-0.030	-0.220	0.870
2020/01/31 11:07:10.9	292.860	-0.050	-0.210	0.880
2020/01/31 11:07:11.0	292.850	-0.070	-0.190	0.880
2020/01/31 11:07:11.1	292.830	-0.080	-0.170	0.880
2020/01/31 11:07:11.2	292.820	-0.100	-0.150	0.880
2020/01/31 11:07:11.3	292.800	-0.120	-0.140	0.880
2020/01/31 11:07:11.4	292.790	-0.130	-0.120	0.880
2020/01/31 11:07:11.5	292.790	-0.140	-0.100	0.880
2020/01/31 11:07:11.6	292.780	-0.160	-0.080	0.870
2020/01/31 11:07:11.7	292.760	-0.170	-0.060	0.870
2020/01/31 11:07:11.8	292.760	-0.190	-0.050	0.860
2020/01/31 11:07:11.9	292.750	-0.200	-0.030	0.860
2020/01/31 11:07:12.0	292.740	-0.210	-0.010	0.850
2020/01/31 11:07:12.1	292.730	-0.220	0.010	0.840
2020/01/31 11:07:12.2	292.720	-0.230	0.030	0.830
2020/01/31 11:07:12.3	292.710	-0.240	0.050	0.820
2020/01/31 11:07:12.4	292.710	-0.250	0.070	0.810
2020/01/31 11:07:12.5	292.720	-0.260	0.080	0.800
2020/01/31 11:07:12.6	292.710	-0.270	0.100	0.790
2020/01/31 11:07:12.7	292.700	-0.270	0.120	0.780
2020/01/31 11:07:12.8	292.700	-0.280	0.140	0.770
2020/01/31 11:07:12.9	292.690	-0.280	0.160	0.750
2020/01/31 11:07:13.0	292.690	-0.280	0.170	0.740
2020/01/31 11:07:13.1	292.690	-0.280	0.190	0.730
2020/01/31 11:07:13.2	292.680	-0.280	0.200	0.720
2020/01/31 11:07:13.3	292.680	-0.280	0.210	0.710
2020/01/31 11:07:13.4	292.680	-0.280	0.230	0.690
2020/01/31 11:07:13.5	292.680	-0.280	0.230	0.680
2020/01/31 11:07:13.6	292.680	-0.270	0.240	0.670
2020/01/31 11:07:13.7	292.680	-0.260	0.240	0.660
2020/01/31 11:07:13.8	292.680	-0.250	0.250	0.650
2020/01/31 11:07:13.9	292.690	-0.240	0.250	0.640
2020/01/31 11:07:14.0	292.690	-0.230	0.250	0.630
2020/01/31 11:07:14.1	292.700	-0.220	0.240	0.620
2020/01/31 11:07:14.2	292.700	-0.210	0.230	0.610
2020/01/31 11:07:14.3	292.710	-0.190	0.220	0.600
2020/01/31 11:07:14.4	292.720	-0.170	0.210	0.590
2020/01/31 11:07:14.5	292.730	-0.160	0.190	0.580
2020/01/31 11:07:14.6	292.740	-0.140	0.180	0.570
2020/01/31 11:07:14.7	292.750	-0.120	0.160	0.560
2020/01/31 11:07:14.8	292.760	-0.100	0.130	0.540
2020/01/31 11:07:14.9	292.780	-0.080	0.110	0.530
2020/01/31 11:07:15.0	292.790	-0.060	0.080	0.520
2020/01/31 11:07:15.1	292.810	-0.040	0.050	0.510
2020/01/31 11:07:15.2	292.830	-0.020	0.020	0.500
2020/01/31 11:07:15.3	292.850	0.000	-0.020	0.490
2020/01/31 11:07:15.4	292.870	0.020	-0.050	0.480
2020/01/31 11:07:15.5	292.880	0.050	-0.090	0.460
2020/01/31 11:07:15.6	292.910	0.070	-0.130	0.450
2020/01/31 11:07:15.7	292.930	0.090	-0.170	0.440
2020/01/31 11:07:15.8	292.950	0.110	-0.210	0.430
2020/01/31 11:07:15.9	292.970	0.120	-0.250	0.410
2020/01/31 11:07:16.0	292.990	0.140	-0.290	0.400
2020/01/31 11:07:16.1	293.020	0.160	-0.330	0.390
2020/01/31 11:07:16.2	293.040	0.170	-0.370	0.370
2020/01/31 11:07:16.3	293.060	0.190	-0.410	0.360
2020/01/31 11:07:16.4	293.080	0.200	-0.440	0.350
2020/01/31 11:07:16.5	293.100	0.220	-0.470	0.330
2020/01/31 11:07:16.6	293.130	0.230	-0.500	0.320
2020/01/31 11:07:16.7	293.150	0.240	-0.530	0.310
2020/01/31 11:07:16.8	293.170	0.240	-0.560	0.290
2020/01/31 11:07:16.9	293.190	0.250	-0.580	0.280
2020/01/31 11:07:17.0	293.210	0.260	-0.600	0.270
2020/01/31 11:07:17.1	293.230	0.260	-0.610	0.260
2020/01/31 11:07:17.2	293.250	0.260	-0.620	0.250
2020/01/31 11:07:17.3	293.270	0.260	-0.630	0.240
2020/01/31 11:07:17.4	293.290	0.260	-0.640	0.230
2020/01/31 11:07:17.5	293.290	0.260	-0.640	0.220
2020/01/31 11:07:17.6	293.300	0.250	-0.640	0.220
2020/01/31 11:07:17.7	293.320	0.240	-0.640	0.210
2020/01/31 11:07:17.8	293.330	0.240	-0.630	0.210
2020/01/31 11:07:17.9	293.340	0.230	-0.620	0.210
2020/01/31 11:07:18.0	293.350	0.220	-0.610	0.210
2020/01/31 11:07:18.1	293.360	0.200	-0.600	0.210
2020/01/31 11:07:18.2	293.370	0.190	-0.580	0.210
2020/01/31 11:07:18.3	293.370	0.170	-0.560	0.210
2020/01/31 11:07:18.4	293.370	0.160	-0.550	0.220
2020/01/31 11:07:18.5	293.380	0.140	-0.530	0.220
2020/01/31 11:07:18.6	293.380	0.130	-0.510	0.230
2020/01/31 11:07:18.7	293.380	0.110	-0.490	0.230
2020/01/31 11:07:18.8	293.380	0.090	-0.470	0.240
2020/01/31 11:07:18.9	293.370	0.070	-0.450	0.240
2020/01/31 11:07:19.0	293.370	0.050	-0.440	0.250
2020/01/31 11:07:19.1	293.370	0.030	-0.420	0.260
2020/01/31 11:07:19.2	293.360	0.010	-0.400	0.260
2020/01/31 11:07:19.3	293.350	-0.010	-0.390	0.270
2020/01/31 11:07:19.4	293.350	-0.030	-0.380	0.270
2020/01/31 11:07:19.5	293.340	-0.050	-0.370	0.270
2020/01/31 11:07:19.6	293.330	-0.070	-0.360	0.280
2020/01/31 11:07:19.7	293.320	-0.090	-0.360	0.280
2020/01/31 11:07:19.8	293.310	-0.110	-0.350	0.290
2020/01/31 11:07:19.9	293.300	-0.120	-0.350	0.290
2020/01/31 11:07:20.0	293.290	-0.140	-0.350	0.290
2020/01/31 11:07:20.1	293.280	-0.160	-0.350	0.300
2020/01/31 11:07:20.2	293.260	-0.170	-0.350	0.300
2020/01/31 11:07:20.3	293.250	-0.190	-0.350	0.310
2020/01/31 11:07:20.4	293.240	-0.200	-0.360	0.310
2020/01/31 11:07:20.5	293.240	-0.220	-0.360	0.320
2020/01/31 11:07:20.6	293.220	-0.230	-0.370	0.330
2020/01/31 11:07:20.7	293.210	-0.240	-0.380	0.330
2020/01/31 11:07:20.8	293.200	-0.250	-0.390	0.340
2020/01/31 11:07:20.9	293.180	-0.260	-0.390	0.340
2020/01/31 11:07:21.0	293.170	-0.270	-0.400	0.350
2020/01/31 11:07:21.1	293.150	-0.270	-0.410	0.360
2020/01/31 11:07:21.2	293.140	-0.280	-0.420	0.370
2020/01/31 11:07:21.3	293.120	-0.280	-0.430	0.370
2020/01/31 11:07:21.4	293.110	-0.290	-0.430	0.380
2020/01/31 11:07:21.5	293.100	-0.290	-0.440	0.390
2020/01/31 11:07:21.6	293.080	-0.290	-0.440	0.400
2020/01/31 11:07:21.7	293.070	-0.290	-0.450	0.420
2020/01/31 11:07:21.8	293.050	-0.290	-0.450	0.430
2020/01/31 11:07:21.9	293.030	-0.290	-0.450	0.450
2020/01/31 11:07:22.0	293.020	-0.290	-0.450	0.460
2020/01/31 11:07:22.1	293.000	-0.280	-0.450	0.480
2020/01/31 11:07:22.2	292.980	-0.280	-0.450	0.500
2020/01/31 11:07:22.3	292.960	-0.280	-0.440	0.520
2020/01/31 11:07:22.4	292.950	-0.270	-0.430	0.540
2020/01/31 11:07:22.5	292.930	-0.260	-0.420	0.560
2020/01/31 11:07:22.6	292.910	-0.260	-0.410	0.580
2020/01/31 11:07:22.7	292.890	-0.250	-0.400	0.600
2020/01/31 11:07:22.8	292.880	-0.240	-0.390	0.620
2020/01/31 11:07:22.9	292.860	-0.230	-0.370	0.650
2020/01/31 11:07:23.0	292.840	-0.220	-0.360	0.670
2020/01/31 11:07:23.1	292.830	-0.210	-0.350	0.690
2020/01/31 11:07:23.2	292.810	-0.200	-0.330	0.720
2020/01/31 11:07:23.3	292.800	-0.190	-0.310	0.740
2020/01/31 11:07:23.4	292.790	-0.170	-0.300	0.760
2020/01/31 11:07:23.5	292.780	-0.160	-0.290	0.780
2020/01/31 11:07:23.6	292.770	-0.150	-0.270	0.800
2020/01/31 11:07:23.7	292.760	-0.140	-0.250	0.830
2020/01/31 11:07:23.8	292.750	-0.120	-0.240	0.850
2020/01/31 11:07:23.9	292.750	-0.110	-0.220	0.870
2020/01/31 11:07:24.0	292.740	-0.090	-0.210	0.890
2020/01/31 11:07:24.1	292.740	-0.080	-0.190	0.900
2020/01/31 11:07:24.2	292.730	-0.070	-0.180	0.920
2020/01/31 11:07:24.3	292.730	-0.050	-0.170	0.940
2020/01/31 11:07:24.4	292.730	-0.040	-0.150	0.960
2020/01/31 11:07:24.5	292.720	-0.020	-0.140	0.980
2020/01/31 11:07:24.6	292.720	-0.010	-0.130	0.990
2020/01/31 11:07:24.7	292.720	0.010	-0.110	1.000
2020/01/31 11:07:24.8	292.720	0.020	-0.100	1.020
2020/01/31 11:07:24.9	292.730	0.030	-0.090	1.030
2020/01/31 11:07:25.0	292.730	0.050	-0.080	1.040
2020/01/31 11:07:25.1	292.740	0.060	-0.070	1.040
2020/01/31 11:07:25.2	292.740	0.070	-0.060	1.050
2020/01/31 11:07:25.3	292.750	0.090	-0.050	1.050
2020/01/31 11:07:25.4	292.760	0.100	-0.040	1.060
2020/01/31 11:07:25.5	292.770	0.110	-0.030	1.050
2020/01/31 11:07:25.6	292.770	0.120	-0.020	1.050
2020/01/31 11:07:25.7	292.780	0.130	-0.010	1.050
2020/01/31 11:07:25.8	292.790	0.140	0.000	1.050
2020/01/31 11:07:25.9	292.810	0.150	0.010	1.040
2020/01/31 11:07:26.0	292.820	0.150	0.020	1.030
2020/01/31 11:07:26.1	292.830	0.160	0.030	1.020
2020/01/31 11:07:26.2	292.840	0.170	0.050	1.010
2020/01/31 11:07:26.3	292.850	0.170	0.060	0.990
2020/01/31 11:07:26.4	292.870	0.180	0.070	0.980
2020/01/31 11:07:26.5	292.880	0.180	0.080	0.960
2020/01/31 11:07:26.6	292.890	0.180	0.100	0.940
2020/01/31 11:07:26.7	292.910	0.190	0.110	0.920
2020/01/31 11:07:26.8	292.920	0.190	0.120	0.900
2020/01/31 11:07:26.9	292.940	0.190	0.130	0.880
2020/01/31 11:07:27.0	292.950	0.190	0.140	0.850
2020/01/31 11:07:27.1	292.970	0.200	0.160	0.820
2020/01/31 11:07:27.2	292.990	0.200	0.170	0.800
2020/01/31 11:07:27.3	293.000	0.200	0.170	0.770
2020/01/31 11:07:27.4	293.020	0.200	0.180	0.740
2020/01/31 11:07:27.5	293.050	0.200	0.190	0.700
2020/01/31 11:07:27.6	293.070	0.200	0.190	0.670
2020/01/31 11:07:27.7	293.090	0.200	0.200	0.640
2020/01/31 11:07:27.8	293.110	0.200	0.200	0.610
2020/01/31 11:07:27.9	293.130	0.210	0.200	0.580
2020/01/31 11:07:28.0	293.150	0.210	0.200	0.550
2020/01/31 11:07:28.1	293.180	0.210	0.190	0.520
2020/01/31 11:07:28.2	293.200	0.210	0.180	0.480
2020/01/31 11:07:28.3	293.220	0.210	0.180	0.450
2020/01/31 11:07:28.4	293.250	0.210	0.160	0.420
2020/01/31 11:07:28.5	293.270	0.220	0.150	0.390
2020/01/31 11:07:28.6	293.290	0.220	0.130	0.350
2020/01/31 11:07:28.7	293.320	0.220	0.110	0.320
2020/01/31 11:07:28.8	293.340	0.220	0.090	0.290
2020/01/31 11:07:28.9	293.370	0.230	0.070	0.250
2020/01/31 11:07:29.0	293.390	0.230	0.040	0.220
2020/01/31 11:07:29.1	293.420	0.230	0.010	0.190
2020/01/31 11:07:29.2	293.440	0.240	-0.020	0.160
2020/01/31 11:07:29.3	293.470	0.240	-0.050	0.130
2020/01/31 11:07:29.4	293.490	0.240	-0.080	0.100
2020/01/31 11:07:29.5	293.510	0.240	-0.110	0.060
2020/01/31 11:07:29.6	293.530	0.240	-0.140	0.040
2020/01/31 11:07:29.7	293.550	0.250	-0.180	0.010
2020/01/31 11:07:29.8	293.570	0.250	-0.210	-0.020
2020/01/31 11:07:29.9	293.590	0.250	-0.240	-0.040
2020/01/31 11:07:30.0	293.600	0.250	-0.270	-0.060
2020/01/31 11:07:30.1	293.620	0.250	-0.300	-0.080
2020/01/31 11:07:30.2	293.630	0.250	-0.340	-0.100
2020/01/31 11:07:30.3	293.650	0.240	-0.360	-0.120
2020/01/31 11:07:30.4	293.660	0.240	-0.390	-0.130
2020/01/31 11:07:30.5	293.660	0.240	-0.420	-0.140
2020/01/31 11:07:30.6	293.670	0.230	-0.440	-0.150
2020/01/31 11:07:30.7	293.670	0.230	-0.470	-0.160
2020/01/31 11:07:30.8	293.680	0.220	-0.490	-0.170
2020/01/31 11:07:30.9	293.680	0.220	-0.510	-0.170
2020/01/31 11:07:31.0	293.680	0.210	-0.530	-0.170
2020/01/31 11:07:31.1	293.690	0.200	-0.540	-0.170
2020/01/31 11:07:31.2	293.680	0.190	-0.560	-0.170
2020/01/31 11:07:31.3	293.680	0.180	-0.570	-0.160
2020/01/31 11:07:31.4	293.670	0.170	-0.580	-0.160
2020/01/31 11:07:31.5	293.660	0.160	-0.590	-0.150
2020/01/31 11:07:31.6	293.650	0.140	-0.590	-0.140
2020/01/31 11:07:31.7	293.640	0.130	-0.600	-0.120
2020/01/31 11:07:31.8	293.620	0.110	-0.600	-0.110
2020/01/31 11:07:31.9	293.610	0.100	-0.600	-0.090
2020/01/31 11:07:32.0	293.590	0.080	-0.600	-0.070
2020/01/31 11:07:32.1	293.570	0.070	-0.600	-0.050
2020/01/31 11:07:32.2	293.550	0.050	-0.600	-0.020
2020/01/31 11:07:32.3	293.530	0.030	-0.600	0.010
2020/01/31 11:07:32.4	293.510	0.010	-0.590	0.030
2020/01/31 11:07:32.5	293.480	-0.000	-0.590	0.060
2020/01/31 11:07:32.6	293.460	-0.020	-0.580	0.090
2020/01/31 11:07:32.7	293.430	-0.040	-0.580	0.130
2020/01/31 11:07:32.8	293.400	-0.060	-0.570	0.160
2020/01/31 11:07:32.9	293.370	-0.080	-0.560	0.190
2020/01/31 11:07:33.0	293.340	-0.100	-0.550	0.220
2020/01/31 11:07:33.1	293.310	-0.120	-0.550	0.260
2020/01/31 11:07:33.2	293.280	-0.140	-0.540	0.290
2020/01/31 11:07:33.3	293.250	-0.150	-0.530	0.320
2020/01/31 11:07:33.4	293.230	-0.170	-0.530	0.350
2020/01/31 11:07:33.5	293.200	-0.190	-0.520	0.380
2020/01/31 11:07:33.6	293.170	-0.200	-0.510	0.410
2020/01/31 11:07:33.7	293.140	-0.220	-0.510	0.440
2020/01/31 11:07:33.8	293.120	-0.240	-0.510	0.470
2020/01/31 11:07:33.9	293.090	-0.250	-0.500	0.490
2020/01/31 11:07:34.0	293.070	-0.260	-0.500	0.520
2020/01/31 11:07:34.1	293.040	-0.280	-0.500	0.540
2020/01/31 11:07:34.2	293.020	-0.290	-0.500	0.570
2020/01/31 11:07:34.3	293.000	-0.300	-0.500	0.590
2020/01/31 11:07:34.4	292.980	-0.310	-0.500	0.610
2020/01/31 11:07:34.5	292.960	-0.320	-0.490	0.630
2020/01/31 11:07:34.6	292.940	-0.320	-0.490	0.650
2020/01/31 11:07:34.7	292.920	-0.330	-0.490	0.670
2020/01/31 11:07:34.8	292.910	-0.340	-0.490	0.680
2020/01/31 11:07:34.9	292.900	-0.340	-0.490	0.700
2020/01/31 11:07:35.0	292.880	-0.350	-0.490	0.710
2020/01/31 11:07:35.1	292.870	-0.350	-0.490	0.730
2020/01/31 11:07:35.2	292.860	-0.350	-0.480	0.740
2020/01/31 11:07:35.3	292.850	-0.350	-0.480	0.750
2020/01/31 11:07:35.4	292.840	-0.350	-0.470	0.770
2020/01/31 11:07:35.5	292.840	-0.350	-0.470	0.780
2020/01/31 11:07:35.6	292.830	-0.350	-0.460	0.790
2020/01/31 11:07:35.7	292.830	-0.350	-0.450	0.800
2020/01/31 11:07:35.8	292.820	-0.350	-0.440	0.800
2020/01/31 11:07:35.9	292.820	-0.350	-0.430	0.810
2020/01/31 11:07:36.0	292.820	-0.350	-0.420	0.810
2020/01/31 11:07:36.1	292.820	-0.340	-0.410	0.820
2020/01/31 11:07:36.2	292.820	-0.340	-0.390	0.820
2020/01/31 11:07:36.3	292.820	-0.340	-0.380	0.820
2020/01/31 11:07:36.4	292.820	-0.330	-0.360	0.820
2020/01/31 11:07:36.5	292.820	-0.330	-0.340	0.810
2020/01/31 11:07:36.6	292.820	-0.320	-0.320	0.810
2020/01/31 11:07:36.7	292.830	-0.320	-0.300	0.800
2020/01/31 11:07:36.8	292.840	-0.310	-0.280	0.790
2020/01/31 11:07:36.9	292.850	-0.310	-0.260	0.790
2020/01/31 11:07:37.0	292.860	-0.310	-0.240	0.780
2020/01/31 11:07:37.1	292.880	-0.300	-0.210	0.760
2020/01/31 11:07:37.2	292.890	-0.300	-0.190	0.750
2020/01/31 11:07:37.3	292.910	-0.290	-0.170	0.740
2020/01/31 11:07:37.4	292.920	-0.290	-0.150	0.730
2020/01/31 11:07:37.5	292.940	-0.280	-0.120	0.710
2020/01/31 11:07:37.6	292.960	-0.280	-0.100	0.700
2020/01/31 11:07:37.7	292.980	-0.270	-0.080	0.680
2020/01/31 11:07:37.8	293.000	-0.270	-0.060	0.670
2020/01/31 11:07:37.9	293.020	-0.260	-0.040	0.660
2020/01/31 11:07:38.0	293.040	-0.260	-0.020	0.640
2020/01/31 11:07:38.1	293.060	-0.250	-0.000	0.630
2020/01/31 11:07:38.2	293.080	-0.240	0.010	0.620
2020/01/31 11:07:38.3	293.100	-0.240	0.030	0.610
2020/01/31 11:07:38.4	293.120	-0.230	0.040	0.590
2020/01/31 11:07:38.5	293.130	-0.220	0.050	0.580
2020/01/31 11:07:38.6	293.150	-0.220	0.060	0.570
2020/01/31 11:07:38.7	293.170	-0.210	0.070	0.560
2020/01/31 11:07:38.8	293.190	-0.200	0.080	0.550
2020/01/31 11:07:38.9	293.220	-0.190	0.080	0.540
2020/01/31 11:07:39.0	293.240	-0.180	0.080	0.530
2020/01/31 11:07:39.1	293.260	-0.170	0.080	0.520
2020/01/31 11:07:39.2	293.280	-0.160	0.080	0.510
2020/01/31 11:07:39.3	293.300	-0.150	0.080	0.500
2020/01/31 11:07:39.4	293.320	-0.140	0.070	0.490
2020/01/31 11:07:39.5	293.350	-0.120	0.070	0.480
2020/01/31 11:07:39.6	293.370	-0.110	0.060	0.470
2020/01/31 11:07:39.7	293.390	-0.100	0.050	0.450
2020/01/31 11:07:39.8	293.410	-0.080	0.030	0.440
2020/01/31 11:07:39.9	293.430	-0.060	0.020	0.430
2020/01/31 11:07:40.0	293.450	-0.050	0.010	0.410
2020/01/31 11:07:40.1	293.470	-0.030	-0.010	0.400
2020/01/31 11:07:40.2	293.490	-0.010	-0.030	0.390
2020/01/31 11:07:40.3	293.510	0.010	-0.040	0.370
2020/01/31 11:07:40.4	293.530	0.020	-0.060	0.360
2020/01/31 11:07:40.5	293.550	0.040	-0.080	0.340
2020/01/31 11:07:40.6	293.570	0.060	-0.090	0.330
2020/01/31 11:07:40.7	293.590	0.080	-0.110	0.320
2020/01/31 11:07:40.8	293.610	0.100	-0.120	0.300
2020/01/31 11:07:40.9	293.630	0.120	-0.140	0.280
2020/01/31 11:07:41.0	293.640	0.140	-0.150	0.270
2020/01/31 11:07:41.1	293.660	0.160	-0.160	0.250
2020/01/31 11:07:41.2	293.670	0.180	-0.170	0.240
2020/01/31 11:07:41.3	293.680	0.200	-0.180	0.220
2020/01/31 11:07:41.4	293.700	0.220	-0.180	0.210
2020/01/31 11:07:41.5	293.710	0.240	-0.190	0.200
2020/01/31 11:07:41.6	293.720	0.260	-0.190	0.180
2020/01/31 11:07:41.7	293.730	0.280	-0.190	0.170
2020/01/31 11:07:41.8	293.740	0.290	-0.200	0.160
2020/01/31 11:07:41.9	293.750	0.310	-0.200	0.140
2020/01/31 11:07:42.0	293.750	0.320	-0.190	0.130
2020/01/31 11:07:42.1	293.760	0.340	-0.190	0.120
2020/01/31 11:07:42.2	293.760	0.350	-0.190	0.110
2020/01/31 11:07:42.3	293.760	0.360	-0.180	0.100
2020/01/31 11:07:42.4	293.770	0.370	-0.180	0.090
2020/01/31 11:07:42.5	293.760	0.380	-0.170	0.070
2020/01/31 11:07:42.6	293.760	0.390	-0.160	0.060
2020/01/31 11:07:42.7	293.760	0.390	-0.160	0.050
2020/01/31 11:07:42.8	293.750	0.400	-0.150	0.050
2020/01/31 11:07:42.9	293.750	0.400	-0.140	0.040
2020/01/31 11:07:43.0	293.750	0.400	-0.130	0.040
2020/01/31 11:07:43.1	293.740	0.410	-0.130	0.040
2020/01/31 11:07:43.2	293.740	0.410	-0.120	0.030
2020/01/31 11:07:43.3	293.730	0.400	-0.110	0.040
2020/01/31 11:07:43.4	293.720	0.400	-0.110	0.040
2020/01/31 11:07:43.5	293.710	0.400	-0.100	0.050
2020/01/31 11:07:43.6	293.700	0.390	-0.100	0.060
2020/01/31 11:07:43.7	293.690	0.390	-0.090	0.070
2020/01/31 11:07:43.8	293.680	0.380	-0.090	0.080
2020/01/31 11:07:43.9	293.670	0.370	-0.080	0.100
2020/01/31 11:07:44.0	293.650	0.370	-0.080	0.120
2020/01/31 11:07:44.1	293.640	0.360	-0.080	0.140
2020/01/31 11:07:44.2	293.620	0.350	-0.080	0.160
2020/01/31 11:07:44.3	293.610	0.340	-0.080	0.190
2020/01/31 11:07:44.4	293.590	0.320	-0.090	0.220
2020/01/31 11:07:44.5	293.560	0.310	-0.090	0.250
2020/01/31 11:07:44.6	293.540	0.300	-0.100	0.290
2020/01/31 11:07:44.7	293.520	0.290	-0.110	0.320
2020/01/31 11:07:44.8	293.490	0.270	-0.120	0.360
2020/01/31 11:07:44.9	293.470	0.260	-0.130	0.410
2020/01/31 11:07:45.0	293.440	0.250	-0.140	0.450
2020/01/31 11:07:45.1	293.420	0.230	-0.160	0.490
2020/01/31 11:07:45.2	293.390	0.220	-0.170	0.540
2020/01/31 11:07:45.3	293.370	0.210	-0.190	0.580
2020/01/31 11:07:45.4	293.340	0.190	-0.210	0.620
2020/01/31 11:07:45.5	293.330	0.180	-0.220	0.670
2020/01/31 11:07:45.6	293.300	0.170	-0.240	0.710
2020/01/31 11:07:45.7	293.270	0.160	-0.260	0.750
2020/01/31 11:07:45.8	293.240	0.140	-0.290	0.790
2020/01/31 11:07:45.9	293.220	0.130	-0.310	0.830
2020/01/31 11:07:46.0	293.190	0.120	-0.330	0.860
2020/01/31 11:07:46.1	293.170	0.110	-0.360	0.890
2020/01/31 11:07:46.2	293.140	0.100	-0.390	0.920
2020/01/31 11:07:46.3	293.120	0.090	-0.410	0.940
2020/01/31 11:07:46.4	293.100	0.080	-0.440	0.960
2020/01/31 11:07:46.5	293.070	0.070	-0.470	0.980
2020/01/31 11:07:46.6	293.050	0.060	-0.500	1.000
2020/01/31 11:07:46.7	293.040	0.050	-0.530	1.000
2020/01/31 11:07:46.8	293.020	0.050	-0.560	1.010
2020/01/31 11:07:46.9	293.010	0.040	-0.590	1.010
2020/01/31 11:07:47.0	292.990	0.030	-0.620	1.010
2020/01/31 11:07:47.1	292.980	0.020	-0.640	1.010
2020/01/31 11:07:47.2	292.970	0.020	-0.670	1.000
2020/01/31 11:07:47.3	292.970	0.010	-0.690	0.990
2020/01/31 11:07:47.4	292.960	0.000	-0.720	0.970
2020/01/31 11:07:47.5	292.970	-0.010	-0.740	0.950
2020/01/31 11:07:47.6	292.970	-0.010	-0.760	0.930
2020/01/31 11:07:47.7	292.970	-0.020	-0.770	0.910
2020/01/31 11:07:47.8	292.960	-0.030	-0.790	0.890
2020/01/31 11:07:47.9	292.960	-0.030	-0.800	0.860
2020/01/31 11:07:48.0	292.970	-0.040	-0.800	0.840
2020/01/31 11:07:48.1	292.970	-0.050	-0.810	0.810
2020/01/31 11:07:48.2	292.970	-0.060	-0.810	0.780
2020/01/31 11:07:48.3	292.970	-0.070	-0.810	0.760
2020/01/31 11:07:48.4	292.980	-0.080	-0.800	0.730
2020/01/31 11:07:48.5	292.990	-0.090	-0.790	0.700
2020/01/31 11:07:48.6	292.990	-0.100	-0.780	0.670
2020/01/31 11:07:48.7	293.000	-0.110	-0.770	0.640
2020/01/31 11:07:48.8	293.000	-0.120	-0.750	0.610
2020/01/31 11:07:48.9	293.010	-0.130	-0.730	0.580
2020/01/31 11:07:49.0	293.020	-0.150	-0.710	0.540
2020/01/31 11:07:49.1	293.020	-0.160	-0.680	0.510
2020/01/31 11:07:49.2	293.030	-0.170	-0.650	0.480
2020/01/31 11:07:49.3	293.040	-0.190	-0.620	0.450
2020/01/31 11:07:49.4	293.040	-0.200	-0.590	0.420
2020/01/31 11:07:49.5	293.050	-0.220	-0.560	0.390
2020/01/31 11:07:49.6	293.060	-0.230	-0.530	0.360
2020/01/31 11:07:49.7	293.070	-0.250	-0.490	0.330
2020/01/31 11:07:49.8	293.080	-0.260	-0.460	0.300
2020/01/31 11:07:49.9	293.080	-0.280	-0.420	0.270
2020/01/31 11:07:50.0	293.090	-0.290	-0.390	0.250
2020/01/31 11:07:50.1	293.100	-0.310	-0.350	0.220
2020/01/31 11:07:50.2	293.110	-0.320	-0.320	0.190
2020/01/31 11:07:50.3	293.120	-0.340	-0.280	0.160
2020/01/31 11:07:50.4	293.130	-0.350	-0.250	0.130
2020/01/31 11:07:50.5	293.140	-0.360	-0.220	0.110
2020/01/31 11:07:50.6	293.150	-0.380	-0.190	0.080
2020/01/31 11:07:50.7	293.170	-0.390	-0.160	0.050
2020/01/31 11:07:50.8	293.180	-0.400	-0.140	0.020
2020/01/31 11:07:50.9	293.200	-0.410	-0.110	-0.010
2020/01/31 11:07:51.0	293.220	-0.420	-0.090	-0.040
2020/01/31 11:07:51.1	293.240	-0.430	-0.060	-0.070
2020/01/31 11:07:51.2	293.260	-0.430	-0.040	-0.090
2020/01/31 11:07:51.3	293.280	-0.440	-0.020	-0.120
2020/01/31 11:07:51.4	293.300	-0.450	-0.010	-0.150
2020/01/31 11:07:51.5	293.310	-0.450	0.010	-0.180
2020/01/31 11:07:51.6	293.340	-0.450	0.030	-0.200
2020/01/31 11:07:51.7	293.360	-0.450	0.040	-0.230
2020/01/31 11:07:51.8	293.380	-0.450	0.060	-0.250
2020/01/31 11:07:51.9	293.410	-0.450	0.070	-0.270
2020/01/31 11:07:52.0	293.430	-0.450	0.080	-0.290
2020/01/31 11:07:52.1	293.460	-0.440	0.090	-0.300
2020/01/31 11:07:52.2	293.480	-0.440	0.100	-0.310
2020/01/31 11:07:52.3	293.500	-0.430	0.120	-0.320
2020/01/31 11:07:52.4	293.520	-0.420	0.130	-0.330
2020/01/31 11:07:52.5	293.530	-0.410	0.140	-0.330
2020/01/31 11:07:52.6	293.550	-0.400	0.150	-0.330
2020/01/31 11:07:52.7	293.570	-0.380	0.160	-0.320
2020/01/31 11:07:52.8	293.590	-0.370	0.170	-0.310
2020/01/31 11:07:52.9	293.600	-0.350	0.180	-0.300
2020/01/31 11:07:53.0	293.620	-0.340	0.190	-0.280
2020/01/31 11:07:53.1	293.630	-0.320	0.210	-0.260
2020/01/31 11:07:53.2	293.640	-0.300	0.220	-0.230
2020/01/31 11:07:53.3	293.650	-0.280	0.230	-0.210
2020/01/31 11:07:53.4	293.660	-0.260	0.240	-0.170
2020/01/31 11:07:53.5	293.670	-0.240	0.260	-0.130
2020/01/31 11:07:53.6	293.670	-0.220	0.270	-0.100
2020/01/31 11:07:53.7	293.680	-0.200	0.280	-0.050
2020/01/31 11:07:53.8	293.690	-0.180	0.290	-0.010
2020/01/31 11:07:53.9	293.690	-0.160	0.300	0.030
2020/01/31 11:07:54.0	293.690	-0.140	0.300	0.080
2020/01/31 11:07:54.1	293.690	-0.120	0.310	0.130
2020/01/31 11:07:54.2	293.690	-0.090	0.310	0.180
2020/01/31 11:07:54.3	293.690	-0.070	0.310	0.240
2020/01/31 11:07:54.4	293.680	-0.050	0.310	0.290
2020/01/31 11:07:54.5	293.680	-0.030	0.310	0.340
2020/01/31 11:07:54.6	293.680	-0.010	0.310	0.400
2020/01/31 11:07:54.7	293.670	0.020	0.300	0.450
2020/01/31 11:07:54.8	293.660	0.040	0.290	0.510
2020/01/31 11:07:54.9	293.660	0.060	0.270	0.560
2020/01/31 11:07:55.0	293.650	0.080	0.260	0.610
2020/01/31 11:07:55.1	293.640	0.100	0.240	0.670
2020/01/31 11:07:55.2	293.640	0.120	0.220	0.720
2020/01/31 11:07:55.3	293.630	0.140	0.190	0.770
2020/01/31 11:07:55.4	293.620	0.160	0.160	0.820
2020/01/31 11:07:55.5	293.620	0.180	0.130	0.860
2020/01/31 11:07:55.6	293.610	0.200	0.090	0.910
2020/01/31 11:07:55.7	293.600	0.220	0.060	0.950
2020/01/31 11:07:55.8	293.590	0.240	0.020	0.990
2020/01/31 11:07:55.9	293.580	0.260	-0.030	1.030
2020/01/31 11:07:56.0	293.580	0.280	-0.070	1.070
2020/01/31 11:07:56.1	293.570	0.290	-0.120	1.110
2020/01/31 11:07:56.2	293.560	0.310	-0.160	1.140
2020/01/31 11:07:56.3	293.560	0.330	-0.210	1.170
2020/01/31 11:07:56.4	293.550	0.340	-0.260	1.200
2020/01/31 11:07:56.5	293.540	0.360	-0.310	1.230
2020/01/31 11:07:56.6	293.540	0.380	-0.360	1.250
2020/01/31 11:07:56.7	293.530	0.390	-0.420	1.270
2020/01/31 11:07:56.8	293.520	0.400	-0.470	1.290
2020/01/31 11:07:56.9	293.520	0.420	-0.520	1.310
2020/01/31 11:07:57.0	293.520	0.430	-0.570	1.330
2020/01/31 11:07:57.1	293.510	0.440	-0.620	1.340
2020/01/31 11:07:57.2	293.510	0.450	-0.670	1.350
2020/01/31 11:07:57.3	293.510	0.460	-0.710	1.350
2020/01/31 11:07:57.4	293.510	0.460	-0.760	1.360
2020/01/31 11:07:57.5	293.510	0.470	-0.800	1.350
2020/01/31 11:07:57.6	293.500	0.480	-0.840	1.350
2020/01/31 11:07:57.7	293.500	0.480	-0.880	1.340
2020/01/31 11:07:57.8	293.510	0.480	-0.910	1.340
2020/01/31 11:07:57.9	293.510	0.480	-0.940	1.320
2020/01/31 11:07:58.0	293.510	0.480	-0.970	1.310
2020/01/31 11:07:58.1	293.510	0.480	-1.000	1.290
2020/01/31 11:07:58.2	293.510	0.470	-1.020	1.270
2020/01/31 11:07:58.3	293.520	0.470	-1.040	1.250
2020/01/31 11:07:58.4	293.520	0.460	-1.050	1.230
2020/01/31 11:07:58.5	293.530	0.450	-1.060	1.200
2020/01/31 11:07:58.6	293.530	0.440	-1.070	1.170
2020/01/31 11:07:58.7	293.530	0.430	-1.080	1.140
2020/01/31 11:07:58.8	293.530	0.420	-1.080	1.110
2020/01/31 11:07:58.9	293.530	0.410	-1.070	1.080
2020/01/31 11:07:59.0	293.530	0.390	-1.070	1.040
2020/01/31 11:07:59.1	293.530	0.380	-1.060	1.010
2020/01/31 11:07:59.2	293.530	0.360	-1.050	0.970
2020/01/31 11:07:59.3	293.530	0.350	-1.030	0.930
2020/01/31 11:07:59.4	293.520	0.330	-1.010	0.890
2020/01/31 11:07:59.5	293.530	0.310	-0.990	0.860
2020/01/31 11:07:59.6	293.520	0.290	-0.970	0.820
2020/01/31 11:07:59.7	293.510	0.270	-0.940	0.770
2020/01/31 11:07:59.8	293.510	0.250	-0.910	0.730
2020/01/31 11:07:59.9	293.500	0.230	-0.880	0.690
2020/01/31 11:08:00.0	293.500	0.210	-0.850	0.650
2020/01/31 11:08:00.1	293.490	0.180	-0.810	0.610
2020/01/31 11:08:00.2	293.480	0.160	-0.780	0.560
2020/01/31 11:08:00.3	293.470	0.140	-0.740	0.520
2020/01/31 11:08:00.4	293.460	0.120	-0.700	0.480
2020/01/31 11:08:00.5	293.440	0.100	-0.660	0.440
2020/01/31 11:08:00.6	293.430	0.080	-0.620	0.390
2020/01/31 11:08:00.7	293.420	0.050	-0.570	0.350
2020/01/31 11:08:00.8	293.420	0.030	-0.530	0.310
2020/01/31 11:08:00.9	293.410	0.010	-0.480	0.280
2020/01/31 11:08:01.0	293.400	-0.010	-0.440	0.240
2020/01/31 11:08:01.1	293.390	-0.030	-0.390	0.200
2020/01/31 11:08:01.2	293.380	-0.050	-0.350	0.170
2020/01/31 11:08:01.3	293.380	-0.070	-0.300	0.140
2020/01/31 11:08:01.4	293.370	-0.090	-0.260	0.110
2020/01/31 11:08:01.5	293.360	-0.110	-0.210	0.080
2020/01/31 11:08:01.6	293.350	-0.130	-0.170	0.050
2020/01/31 11:08:01.7	293.350	-0.150	-0.130	0.030
2020/01/31 11:08:01.8	293.340	-0.170	-0.090	0.000
2020/01/31 11:08:01.9	293.340	-0.190	-0.050	-0.020
2020/01/31 11:08:02.0	293.340	-0.200	-0.010	-0.040
2020/01/31 11:08:02.1	293.340	-0.220	0.030	-0.050
2020/01/31 11:08:02.2	293.340	-0.240	0.060	-0.070
2020/01/31 11:08:02.3	293.340	-0.250	0.100	-0.080
2020/01/31 11:08:02.4	293.340	-0.270	0.130	-0.090
2020/01/31 11:08:02.5	293.350	-0.280	0.160	-0.100
2020/01/31 11:08:02.6	293.360	-0.300	0.180	-0.110
2020/01/31 11:08:02.7	293.360	-0.310	0.210	-0.110
2020/01/31 11:08:02.8	293.370	-0.320	0.230	-0.120
2020/01/31 11:08:02.9	293.380	-0.340	0.260	-0.120
2020/01/31 11:08:03.0	293.390	-0.350	0.280	-0.120
2020/01/31 11:08:03.1	293.400	-0.360	0.300	-0.120
2020/01/31 11:08:03.2	293.420	-0.370	0.320	-0.110
2020/01/31 11:08:03.3	293.430	-0.380	0.340	-0.110
2020/01/31 11:08:03.4	293.450	-0.390	0.350	-0.100
2020/01/31 11:08:03.5	293.470	-0.400	0.370	-0.090
2020/01/31 11:08:03.6	293.490	-0.410	0.380	-0.090
2020/01/31 11:08:03.7	293.510	-0.420	0.400	-0.080
2020/01/31 11:08:03.8	293.530	-0.430	0.410	-0.070
2020/01/31 11:08:03.9	293.540	-0.440	0.420	-0.060
2020/01/31 11:08:04.0	293.570	-0.450	0.430	-0.050
2020/01/31 11:08:04.1	293.590	-0.450	0.440	-0.040
2020/01/31 11:08:04.2	293.610	-0.460	0.450	-0.030
2020/01/31 11:08:04.3	293.630	-0.460	0.460	-0.020
2020/01/31 11:08:04.4	293.650	-0.470	0.470	-0.010
2020/01/31 11:08:04.5	293.680	-0.470	0.480	0.000
2020/01/31 11:08:04.6	293.700	-0.470	0.490	0.020
2020/01/31 11:08:04.7	293.720	-0.470	0.500	0.040
2020/01/31 11:08:04.8	293.740	-0.470	0.500	0.050
2020/01/31 11:08:04.9	293.760	-0.470	0.510	0.070
2020/01/31 11:08:05.0	293.780	-0.470	0.510	0.090
2020/01/31 11:08:05.1	293.800	-0.470	0.510	0.110
2020/01/31 11:08:05.2	293.810	-0.460	0.520	0.130
2020/01/31 11:08:05.3	293.830	-0.460	0.520	0.150
2020/01/31 11:08:05.4	293.850	-0.450	0.510	0.180
2020/01/31 11:08:05.5	293.860	-0.440	0.510	0.200
2020/01/31 11:08:05.6	293.870	-0.430	0.500	0.230
2020/01/31 11:08:05.7	293.880	-0.420	0.490	0.260
2020/01/31 11:08:05.8	293.890	-0.410	0.480	0.280
2020/01/31 11:08:05.9	293.900	-0.390	0.470	0.310
2020/01/31 11:08:06.0	293.910	-0.380	0.450	0.340
2020/01/31 11:08:06.1	293.920	-0.360	0.430	0.370
2020/01/31 11:08:06.2	293.920	-0.340	0.400	0.400
2020/01/31 11:08:06.3	293.930	-0.320	0.380	0.430
2020/01/31 11:08:06.4	293.930	-0.300	0.350	0.460
2020/01/31 11:08:06.5	293.930	-0.280	0.320	0.490
2020/01/31 11:08:06.6	293.930	-0.260	0.280	0.520
2020/01/31 11:08:06.7	293.930	-0.230	0.240	0.550
2020/01/31 11:08:06.8	293.930	-0.200	0.190	0.570
2020/01/31 11:08:06.9	293.930	-0.180	0.140	0.600
2020/01/31 11:08:07.0	293.930	-0.150	0.090	0.620
2020/01/31 11:08:07.1	293.930	-0.120	0.030	0.650
2020/01/31 11:08:07.2	293.930	-0.080	-0.030	0.670
2020/01/31 11:08:07.3	293.930	-0.050	-0.090	0.700
2020/01/31 11:08:07.4	293.930	-0.020	-0.150	0.720
2020/01/31 11:08:07.5	293.930	0.020	-0.220	0.740
2020/01/31 11:08:07.6	293.930	0.050	-0.290	0.760
2020/01/31 11:08:07.7	293.920	0.090	-0.360	0.780
2020/01/31 11:08:07.8	293.920	0.120	-0.440	0.800
2020/01/31 11:08:07.9	293.910	0.160	-0.510	0.810
2020/01/31 11:08:08.0	293.910	0.200	-0.580	0.830
2020/01/31 11:08:08.1	293.900	0.230	-0.650	0.840
2020/01/31 11:08:08.2	293.900	0.270	-0.730	0.860
2020/01/31 11:08:08.3	293.890	0.310	-0.800	0.870
2020/01/31 11:08:08.4	293.890	0.340	-0.870	0.880
2020/01/31 11:08:08.5	293.880	0.370	-0.930	0.890
2020/01/31 11:08:08.6	293.870	0.410	-1.000	0.910
2020/01/31 11:08:08.7	293.860	0.440	-1.060	0.920
2020/01/31 11:08:08.8	293.860	0.470	-1.120	0.920
2020/01/31 11:08:08.9	293.850	0.500	-1.170	0.930
2020/01/31 11:08:09.0	293.850	0.530	-1.220	0.940
2020/01/31 11:08:09.1	293.840	0.550	-1.260	0.950
2020/01/31 11:08:09.2	293.830	0.580	-1.300	0.950
2020/01/31 11:08:09.3	293.820	0.600	-1.330	0.960
2020/01/31 11:08:09.4	293.810	0.620	-1.360	0.960
2020/01/31 11:08:09.5	293.800	0.630	-1.380	0.960
2020/01/31 11:08:09.6	293.790	0.650	-1.390	0.960
2020/01/31 11:08:09.7	293.780	0.660	-1.400	0.970
2020/01/31 11:08:09.8	293.770	0.670	-1.400	0.970
2020/01/31 11:08:09.9	293.760	0.670	-1.400	0.970
2020/01/31 11:08:10.0	293.750	0.680	-1.390	0.960
2020/01/31 11:08:10.1	293.730	0.680	-1.370	0.960
2020/01/31 11:08:10.2	293.720	0.680	-1.350	0.960
2020/01/31 11:08:10.3	293.710	0.670	-1.320	0.960
2020/01/31 11:08:10.4	293.700	0.660	-1.290	0.950
2020/01/31 11:08:10.5	293.690	0.650	-1.250	0.950
2020/01/31 11:08:10.6	293.680	0.640	-1.210	0.950
2020/01/31 11:08:10.7	293.660	0.620	-1.160	0.940
2020/01/31 11:08:10.8	293.640	0.610	-1.110	0.930
2020/01/31 11:08:10.9	293.630	0.590	-1.050	0.920
2020/01/31 11:08:11.0	293.610	0.560	-1.000	0.910
2020/01/31 11:08:11.1	293.590	0.540	-0.940	0.900
2020/01/31 11:08:11.2	293.570	0.510	-0.870	0.890
2020/01/31 11:08:11.3	293.560	0.480	-0.810	0.870
2020/01/31 11:08:11.4	293.540	0.450	-0.750	0.860
2020/01/31 11:08:11.5	293.520	0.420	-0.680	0.840
2020/01/31 11:08:11.6	293.500	0.380	-0.620	0.820
2020/01/31 11:08:11.7	293.480	0.350	-0.560	0.800
2020/01/31 11:08:11.8	293.470	0.310	-0.500	0.780
2020/01/31 11:08:11.9	293.450	0.280	-0.440	0.750
2020/01/31 11:08:12.0	293.440	0.240	-0.380	0.730
2020/01/31 11:08:12.1	293.430	0.200	-0.320	0.700
2020/01/31 11:08:12.2	293.420	0.160	-0.270	0.680
2020/01/31 11:08:12.3	293.410	0.120	-0.220	0.650
2020/01/31 11:08:12.4	293.400	0.090	-0.180	0.620
2020/01/31 11:08:12.5	293.400	0.050	-0.130	0.600
2020/01/31 11:08:12.6	293.390	0.010	-0.090	0.570
2020/01/31 11:08:12.7	293.380	-0.020	-0.060	0.540
2020/01/31 11:08:12.8	293.380	-0.060	-0.020	0.510
2020/01/31 11:08:12.9	293.370	-0.090	0.010	0.480
2020/01/31 11:08:13.0	293.370	-0.120	0.030	0.450
2020/01/31 11:08:13.1	293.370	-0.150	0.060	0.420
2020/01/31 11:08:13.2	293.370	-0.180	0.080	0.390
2020/01/31 11:08:13.3	293.370	-0.210	0.100	0.360
2020/01/31 11:08:13.4	293.370	-0.240	0.110	0.330
2020/01/31 11:08:13.5	293.370	-0.260	0.130	0.290
2020/01/31 11:08:13.6	293.370	-0.280	0.140	0.260
2020/01/31 11:08:13.7	293.370	-0.310	0.150	0.240
2020/01/31 11:08:13.8	293.380	-0.330	0.160	0.210
2020/01/31 11:08:13.9	293.380	-0.340	0.170	0.180
2020/01/31 11:08:14.0	293.390	-0.360	0.180	0.150
2020/01/31 11:08:14.1	293.390	-0.370	0.180	0.130
2020/01/31 11:08:14.2	293.400	-0.390	0.190	0.100
2020/01/31 11:08:14.3	293.410	-0.400	0.200	0.080
2020/01/31 11:08:14.4	293.420	-0.410	0.200	0.060
2020/01/31 11:08:14.5	293.430	-0.420	0.200	0.040
2020/01/31 11:08:14.6	293.440	-0.420	0.210	0.020
2020/01/31 11:08:14.7	293.450	-0.430	0.210	0.010
2020/01/31 11:08:14.8	293.460	-0.440	0.210	-0.010
2020/01/31 11:08:14.9	293.470	-0.440	0.210	-0.020
2020/01/31 11:08:15.0	293.490	-0.450	0.220	-0.040
2020/01/31 11:08:15.1	293.500	-0.450	0.220	-0.050
2020/01/31 11:08:15.2	293.520	-0.450	0.220	-0.060
2020/01/31 11:08:15.3	293.530	-0.450	0.210	-0.070
2020/01/31 11:08:15.4	293.550	-0.450	0.210	-0.070
2020/01/31 11:08:15.5	293.560	-0.460	0.210	-0.090
2020/01/31 11:08:15.6	293.580	-0.460	0.210	-0.090
2020/01/31 11:08:15.7	293.590	-0.460	0.210	-0.090
2020/01/31 11:08:15.8	293.610	-0.460	0.210	-0.090
2020/01/31 11:08:15.9	293.630	-0.460	0.200	-0.090
2020/01/31 11:08:16.0	293.650	-0.450	0.200	-0.090
2020/01/31 11:08:16.1	293.670	-0.450	0.200	-0.090
2020/01/31 11:08:16.2	293.690	-0.450	0.200	-0.080
2020/01/31 11:08:16.3	293.710	-0.450	0.200	-0.080
2020/01/31 11:08:16.4	293.730	-0.450	0.200	-0.070
2020/01/31 11:08:16.5	293.750	-0.440	0.200	-0.060
2020/01/31 11:08:16.6	293.770	-0.440	0.200	-0.040
2020/01/31 11:08:16.7	293.780	-0.440	0.200	-0.030
2020/01/31 11:08:16.8	293.800	-0.430	0.210	-0.010
2020/01/31 11:08:16.9	293.820	-0.430	0.210	0.010
2020/01/31 11:08:17.0	293.840	-0.420	0.210	0.030
2020/01/31 11:08:17.1	293.850	-0.420	0.220	0.060
2020/01/31 11:08:17.2	293.870	-0.410	0.220	0.090
2020/01/31 11:08:17.3	293.880	-0.400	0.230	0.120
2020/01/31 11:08:17.4	293.890	-0.390	0.230	0.150
2020/01/31 11:08:17.5	293.910	-0.380	0.240	0.180
2020/01/31 11:08:17.6	293.920	-0.370	0.240	0.220
2020/01/31 11:08:17.7	293.920	-0.360	0.250	0.250
2020/01/31 11:08:17.8	293.930	-0.340	0.250	0.290
2020/01/31 11:08:17.9	293.940	-0.330	0.250	0.320
2020/01/31 11:08:18.0	293.940	-0.320	0.250	0.360
2020/01/31 11:08:18.1	293.940	-0.300	0.250	0.400
2020/01/31 11:08:18.2	293.940	-0.280	0.250	0.430
2020/01/31 11:08:18.3	293.940	-0.270	0.250	0.460
2020/01/31 11:08:18.4	293.930	-0.250	0.240	0.500
2020/01/31 11:08:18.5	293.920	-0.230	0.230	0.530
2020/01/31 11:08:18.6	293.920	-0.210	0.220	0.560
2020/01/31 11:08:18.7	293.910	-0.190	0.210	0.590
2020/01/31 11:08:18.8	293.900	-0.170	0.190	0.620
2020/01/31 11:08:18.9	293.890	-0.150	0.180	0.640
2020/01/31 11:08:19.0	293.870	-0.130	0.160	0.670
2020/01/31 11:08:19.1	293.860	-0.110	0.130	0.690
2020/01/31 11:08:19.2	293.850	-0.080	0.100	0.710
2020/01/31 11:08:19.3	293.830	-0.060	0.070	0.720
2020/01/31 11:08:19.4	293.810	-0.040	0.040	0.740
2020/01/31 11:08:19.5	293.780	-0.010	0.010	0.750
2020/01/31 11:08:19.6	293.760	0.010	-0.030	0.760
2020/01/31 11:08:19.7	293.740	0.040	-0.070	0.780
2020/01/31 11:08:19.8	293.720	0.060	-0.110	0.790
2020/01/31 11:08:19.9	293.700	0.080	-0.160	0.790
2020/01/31 11:08:20.0	293.670	0.110	-0.210	0.800
2020/01/31 11:08:20.1	293.650	0.130	-0.250	0.800
2020/01/31 11:08:20.2	293.630	0.160	-0.300	0.810
2020/01/31 11:08:20.3	293.600	0.180	-0.360	0.810
2020/01/31 11:08:20.4	293.580	0.210	-0.410	0.810
2020/01/31 11:08:20.5	293.540	0.230	-0.460	0.810
2020/01/31 11:08:20.6	293.520	0.250	-0.510	0.810
2020/01/31 11:08:20.7	293.500	0.280	-0.560	0.810
2020/01/31 11:08:20.8	293.470	0.300	-0.610	0.810
2020/01/31 11:08:20.9	293.450	0.320	-0.660	0.810
2020/01/31 11:08:21.0	293.430	0.340	-0.710	0.810
2020/01/31 11:08:21.1	293.400	0.360	-0.760	0.810
2020/01/31 11:08:21.2	293.380	0.380	-0.800	0.800
2020/01/31 11:08:21.3	293.360	0.400	-0.840	0.800
2020/01/31 11:08:21.4	293.340	0.410	-0.880	0.800
2020/01/31 11:08:21.5	293.330	0.430	-0.910	0.790
2020/01/31 11:08:21.6	293.320	0.440	-0.950	0.790
2020/01/31 11:08:21.7	293.300	0.460	-0.970	0.780
2020/01/31 11:08:21.8	293.290	0.470	-1.000	0.780
2020/01/31 11:08:21.9	293.270	0.480	-1.030	0.780
2020/01/31 11:08:22.0	293.260	0.490	-1.050	0.780
2020/01/31 11:08:22.1	293.250	0.500	-1.060	0.770
2020/01/31 11:08:22.2	293.240	0.500	-1.080	0.770
2020/01/31 11:08:22.3	293.240	0.510	-1.090	0.760
2020/01/31 11:08:22.4	293.230	0.510	-1.090	0.760
2020/01/31 11:08:22.5	293.230	0.510	-1.100	0.750
2020/01/31 11:08:22.6	293.230	0.510	-1.100	0.750
2020/01/31 11:08:22.7	293.230	0.510	-1.100	0.740
2020/01/31 11:08:22.8	293.230	0.510	-1.090	0.730
2020/01/31 11:08:22.9	293.230	0.500	-1.080	0.730
2020/01/31 11:08:23.0	293.240	0.500	-1.070	0.720
2020/01/31 11:08:23.1	293.240	0.490	-1.050	0.710
2020/01/31 11:08:23.2	293.250	0.490	-1.040	0.700
2020/01/31 11:08:23.3	293.260	0.480	-1.020	0.690
2020/01/31 11:08:23.4	293.270	0.470	-0.990	0.680
2020/01/31 11:08:23.5	293.280	0.450	-0.960	0.670
2020/01/31 11:08:23.6	293.290	0.440	-0.930	0.670
2020/01/31 11:08:23.7	293.300	0.430	-0.900	0.660
2020/01/31 11:08:23.8	293.310	0.410	-0.870	0.650
2020/01/31 11:08:23.9	293.310	0.400	-0.840	0.650
2020/01/31 11:08:24.0	293.320	0.380	-0.800	0.640
2020/01/31 11:08:24.1	293.330	0.360	-0.770	0.640
2020/01/31 11:08:24.2	293.340	0.350	-0.730	0.630
2020/01/31 11:08:24.3	293.350	0.330	-0.690	0.630
2020/01/31 11:08:24.4	293.360	0.310	-0.650	0.630
2020/01/31 11:08:24.5	293.380	0.290	-0.610	0.630
2020/01/31 11:08:24.6	293.390	0.270	-0.570	0.630
2020/01/31 11:08:24.7	293.390	0.250	-0.520	0.630
2020/01/31 11:08:24.8	293.400	0.230	-0.480	0.630
2020/01/31 11:08:24.9	293.400	0.210	-0.440	0.630
2020/01/31 11:08:25.0	293.400	0.190	-0.390	0.630
2020/01/31 11:08:25.1	293.410	0.170	-0.350	0.630
2020/01/31 11:08:25.2	293.410	0.140	-0.300	0.630
2020/01/31 11:08:25.3	293.410	0.120	-0.260	0.640
2020/01/31 11:08:25.4	293.410	0.100	-0.220	0.640
2020/01/31 11:08:25.5	293.400	0.080	-0.170	0.640
2020/01/31 11:08:25.6	293.400	0.060	-0.130	0.640
2020/01/31 11:08:25.7	293.390	0.040	-0.090	0.640
2020/01/31 11:08:25.8	293.390	0.020	-0.040	0.640
2020/01/31 11:08:25.9	293.390	-0.000	-0.000	0.640
2020/01/31 11:08:26.0	293.380	-0.020	0.040	0.640
2020/01/31 11:08:26.1	293.370	-0.040	0.080	0.640
2020/01/31 11:08:26.2	293.370	-0.060	0.110	0.640
2020/01/31 11:08:26.3	293.360	-0.080	0.150	0.640
2020/01/31 11:08:26.4	293.350	-0.100	0.190	0.640
2020/01/31 11:08:26.5	293.330	-0.120	0.230	0.640
2020/01/31 11:08:26.6	293.320	-0.140	0.260	0.640
2020/01/31 11:08:26.7	293.310	-0.150	0.290	0.630
2020/01/31 11:08:26.8	293.300	-0.170	0.320	0.630
2020/01/31 11:08:26.9	293.290	-0.190	0.350	0.620
2020/01/31 11:08:27.0	293.280	-0.200	0.370	0.620
2020/01/31 11:08:27.1	293.270	-0.220	0.400	0.610
2020/01/31 11:08:27.2	293.260	-0.230	0.420	0.600
2020/01/31 11:08:27.3	293.250	-0.240	0.440	0.590
2020/01/31 11:08:27.4	293.240	-0.250	0.460	0.580
2020/01/31 11:08:27.5	293.250	-0.260	0.470	0.560
2020/01/31 11:08:27.6	293.240	-0.270	0.480	0.550
2020/01/31 11:08:27.7	293.230	-0.280	0.490	0.530
2020/01/31 11:08:27.8	293.220	-0.290	0.490	0.510
2020/01/31 11:08:27.9	293.220	-0.300	0.500	0.490
2020/01/31 11:08:28.0	293.210	-0.310	0.500	0.460
2020/01/31 11:08:28.1	293.210	-0.310	0.490	0.430
2020/01/31 11:08:28.2	293.210	-0.310	0.480	0.410
2020/01/31 11:08:28.3	293.210	-0.320	0.470	0.380
2020/01/31 11:08:28.4	293.210	-0.320	0.460	0.350
2020/01/31 11:08:28.5	293.230	-0.320	0.440	0.310
2020/01/31 11:08:28.6	293.230	-0.320	0.420	0.280
2020/01/31 11:08:28.7	293.240	-0.320	0.390	0.240
2020/01/31 11:08:28.8	293.250	-0.320	0.360	0.200
2020/01/31 11:08:28.9	293.260	-0.320	0.330	0.170
2020/01/31 11:08:29.0	293.270	-0.310	0.300	0.130
2020/01/31 11:08:29.1	293.280	-0.310	0.260	0.090
2020/01/31 11:08:29.2	293.290	-0.300	0.220	0.060
2020/01/31 11:08:29.3	293.310	-0.300	0.190	0.020
2020/01/31 11:08:29.4	293.320	-0.290	0.140	-0.010
2020/01/31 11:08:29.5	293.340	-0.280	0.100	-0.040
2020/01/31 11:08:29.6	293.350	-0.280	0.060	-0.070
2020/01/31 11:08:29.7	293.370	-0.270	0.020	-0.100
2020/01/31 11:08:29.8	293.390	-0.260	-0.030	-0.130
2020/01/31 11:08:29.9	293.400	-0.250	-0.070	-0.150
2020/01/31 11:08:30.0	293.420	-0.240	-0.120	-0.170
2020/01/31 11:08:30.1	293.440	-0.230	-0.160	-0.190
2020/01/31 11:08:30.2	293.450	-0.230	-0.200	-0.200
2020/01/31 11:08:30.3	293.470	-0.220	-0.240	-0.220
2020/01/31 11:08:30.4	293.490	-0.210	-0.280	-0.230
2020/01/31 11:08:30.5	293.500	-0.200	-0.320	-0.230
2020/01/31 11:08:30.6	293.520	-0.190	-0.360	-0.240
2020/01/31 11:08:30.7	293.540	-0.180	-0.390	-0.240
2020/01/31 11:08:30.8	293.550	-0.170	-0.420	-0.230
2020/01/31 11:08:30.9	293.570	-0.160	-0.450	-0.230
2020/01/31 11:08:31.0	293.580	-0.150	-0.470	-0.210
2020/01/31 11:08:31.1	293.600	-0.140	-0.500	-0.200
2020/01/31 11:08:31.2	293.610	-0.130	-0.520	-0.190
2020/01/31 11:08:31.3	293.620	-0.120	-0.540	-0.170
2020/01/31 11:08:31.4	293.630	-0.110	-0.560	-0.140
2020/01/31 11:08:31.5	293.630	-0.100	-0.570	-0.120
2020/01/31 11:08:31.6	293.640	-0.090	-0.580	-0.090
2020/01/31 11:08:31.7	293.650	-0.080	-0.590	-0.060
2020/01/31 11:08:31.8	293.660	-0.070	-0.600	-0.030
2020/01/31 11:08:31.9	293.670	-0.060	-0.610	0.000
2020/01/31 11:08:32.0	293.670	-0.050	-0.610	0.040
2020/01/31 11:08:32.1	293.680	-0.050	-0.610	0.070
2020/01/31 11:08:32.2	293.680	-0.040	-0.620	0.110
2020/01/31 11:08:32.3	293.690	-0.030	-0.620	0.150
2020/01/31 11:08:32.4	293.690	-0.020	-0.610	0.190
2020/01/31 11:08:32.5	293.690	-0.010	-0.610	0.230
2020/01/31 11:08:32.6	293.690	-0.010	-0.610	0.270
2020/01/31 11:08:32.7	293.690	0.000	-0.600	0.320
2020/01/31 11:08:32.8	293.690	0.010	-0.600	0.360
2020/01/31 11:08:32.9	293.690	0.020	-0.590	0.400
2020/01/31 11:08:33.0	293.680	0.020	-0.580	0.450
2020/01/31 11:08:33.1	293.680	0.030	-0.570	0.490
2020/01/31 11:08:33.2	293.670	0.040	-0.560	0.540
2020/01/31 11:08:33.3	293.660	0.040	-0.550	0.580
2020/01/31 11:08:33.4	293.650	0.050	-0.540	0.630
2020/01/31 11:08:33.5	293.650	0.060	-0.520	0.670
2020/01/31 11:08:33.6	293.640	0.060	-0.510	0.720
2020/01/31 11:08:33.7	293.630	0.070	-0.500	0.760
2020/01/31 11:08:33.8	293.610	0.080	-0.480	0.800
2020/01/31 11:08:33.9	293.600	0.080	-0.470	0.840
2020/01/31 11:08:34.0	293.590	0.090	-0.460	0.880
2020/01/31 11:08:34.1	293.570	0.100	-0.440	0.920
2020/01/31 11:08:34.2	293.550	0.100	-0.430	0.960
2020/01/31 11:08:34.3	293.530	0.110	-0.410	0.990
2020/01/31 11:08:34.4	293.510	0.110	-0.400	1.020
2020/01/31 11:08:34.5	293.490	0.120	-0.390	1.060
2020/01/31 11:08:34.6	293.470	0.130	-0.370	1.090
2020/01/31 11:08:34.7	293.450	0.130	-0.360	1.120
2020/01/31 11:08:34.8	293.430	0.140	-0.340	1.140
2020/01/31 11:08:34.9	293.400	0.140	-0.330	1.170
2020/01/31 11:08:35.0	293.380	0.150	-0.320	1.190
2020/01/31 11:08:35.1	293.360	0.150	-0.300	1.210
2020/01/31 11:08:35.2	293.340	0.160	-0.290	1.230
2020/01/31 11:08:35.3	293.320	0.170	-0.280	1.240
2020/01/31 11:08:35.4	293.300	0.170	-0.270	1.250
2020/01/31 11:08:35.5	293.280	0.180	-0.260	1.260
2020/01/31 11:08:35.6	293.260	0.180	-0.250	1.260
2020/01/31 11:08:35.7	293.240	0.190	-0.240	1.270
2020/01/31 11:08:35.8	293.230	0.190	-0.230	1.260
2020/01/31 11:08:35.9	293.210	0.200	-0.220	1.260
2020/01/31 11:08:36.0	293.200	0.200	-0.210	1.250
2020/01/31 11:08:36.1	293.190	0.210	-0.210	1.240
2020/01/31 11:08:36.2	293.180	0.210	-0.200	1.220
2020/01/31 11:08:36.3	293.170	0.210	-0.190	1.210
2020/01/31 11:08:36.4	293.160	0.220	-0.180	1.190
2020/01/31 11:08:36.5	293.160	0.220	-0.180	1.170
2020/01/31 11:08:36.6	293.150	0.220	-0.170	1.150
2020/01/31 11:08:36.7	293.150	0.220	-0.160	1.130
2020/01/31 11:08:36.8	293.140	0.230	-0.160	1.110
2020/01/31 11:08:36.9	293.140	0.230	-0.150	1.080
2020/01/31 11:08:37.0	293.140	0.230	-0.140	1.060
2020/01/31 11:08:37.1	293.130	0.230	-0.140	1.030
2020/01/31 11:08:37.2	293.130	0.230	-0.130	1.000
2020/01/31 11:08:37.3	293.140	0.230	-0.130	0.980
2020/01/31 11:08:37.4	293.140	0.220	-0.120	0.950
2020/01/31 11:08:37.5	293.150	0.220	-0.110	0.920
2020/01/31 11:08:37.6	293.150	0.220	-0.110	0.890
2020/01/31 11:08:37.7	293.150	0.210	-0.100	0.860
2020/01/31 11:08:37.8	293.160	0.210	-0.090	0.830
2020/01/31 11:08:37.9	293.170	0.200	-0.090	0.800
2020/01/31 11:08:38.0	293.180	0.200	-0.080	0.760
2020/01/31 11:08:38.1	293.190	0.190	-0.070	0.730
2020/01/31 11:08:38.2	293.200	0.180	-0.070	0.700
2020/01/31 11:08:38.3	293.210	0.170	-0.060	0.660
2020/01/31 11:08:38.4	293.220	0.160	-0.060	0.630
2020/01/31 11:08:38.5	293.210	0.150	-0.060	0.590
2020/01/31 11:08:38.6	293.230	0.140	-0.050	0.550
2020/01/31 11:08:38.7	293.240	0.130	-0.050	0.520
2020/01/31 11:08:38.8	293.250	0.120	-0.050	0.480
2020/01/31 11:08:38.9	293.260	0.110	-0.040	0.450
2020/01/31 11:08:39.0	293.280	0.100	-0.040	0.410
2020/01/31 11:08:39.1	293.290	0.080	-0.040	0.380
2020/01/31 11:08:39.2	293.300	0.070	-0.040	0.350
2020/01/31 11:08:39.3	293.320	0.060	-0.040	0.310
2020/01/31 11:08:39.4	293.330	0.040	-0.040	0.280
2020/01/31 11:08:39.5	293.330	0.030	-0.050	0.250
2020/01/31 11:08:39.6	293.350	0.020	-0.050	0.220
2020/01/31 11:08:39.7	293.360	0.010	-0.060	0.190
2020/01/31 11:08:39.8	293.380	-0.010	-0.060	0.160
2020/01/31 11:08:39.9	293.390	-0.020	-0.070	0.140
2020/01/31 11:08:40.0	293.410	-0.030	-0.070	0.120
2020/01/31 11:08:40.1	293.420	-0.040	-0.080	0.100
2020/01/31 11:08:40.2	293.440	-0.050	-0.090	0.080
2020/01/31 11:08:40.3	293.450	-0.060	-0.090	0.060
2020/01/31 11:08:40.4	293.470	-0.070	-0.100	0.050
2020/01/31 11:08:40.5	293.470	-0.080	-0.110	0.040
2020/01/31 11:08:40.6	293.490	-0.090	-0.120	0.030
2020/01/31 11:08:40.7	293.500	-0.090	-0.130	0.020
2020/01/31 11:08:40.8	293.520	-0.100	-0.140	0.020
2020/01/31 11:08:40.9	293.530	-0.100	-0.150	0.020
2020/01/31 11:08:41.0	293.550	-0.110	-0.160	0.020
2020/01/31 11:08:41.1	293.560	-0.110	-0.180	0.020
2020/01/31 11:08:41.2	293.570	-0.120	-0.190	0.030
2020/01/31 11:08:41.3	293.580	-0.120	-0.200	0.040
2020/01/31 11:08:41.4	293.600	-0.120	-0.220	0.050
2020/01/31 11:08:41.5	293.610	-0.120	-0.230	0.050
2020/01/31 11:08:41.6	293.610	-0.120	-0.250	0.070
2020/01/31 11:08:41.7	293.620	-0.120	-0.270	0.090
2020/01/31 11:08:41.8	293.630	-0.120	-0.290	0.110
2020/01/31 11:08:41.9	293.640	-0.120	-0.310	0.130
2020/01/31 11:08:42.0	293.640	-0.120	-0.330	0.160
2020/01/31 11:08:42.1	293.650	-0.110	-0.350	0.180
2020/01/31 11:08:42.2	293.650	-0.110	-0.380	0.210
2020/01/31 11:08:42.3	293.660	-0.110	-0.400	0.240
2020/01/31 11:08:42.4	293.660	-0.100	-0.420	0.270
2020/01/31 11:08:42.5	293.660	-0.100	-0.450	0.310
2020/01/31 11:08:42.6	293.660	-0.090	-0.470	0.340
2020/01/31 11:08:42.7	293.660	-0.090	-0.500	0.370
2020/01/31 11:08:42.8	293.660	-0.080	-0.520	0.410
2020/01/31 11:08:42.9	293.660	-0.080	-0.550	0.440
2020/01/31 11:08:43.0	293.660	-0.070	-0.570	0.470
2020/01/31 11:08:43.1	293.660	-0.070	-0.600	0.510
2020/01/31 11:08:43.2	293.660	-0.060	-0.620	0.540
2020/01/31 11:08:43.3	293.650	-0.060	-0.650	0.570
2020/01/31 11:08:43.4	293.650	-0.050	-0.670	0.610
2020/01/31 11:08:43.5	293.650	-0.040	-0.680	0.630
2020/01/31 11:08:43.6	293.640	-0.040	-0.700	0.660
2020/01/31 11:08:43.7	293.630	-0.030	-0.720	0.700
2020/01/31 11:08:43.8	293.630	-0.020	-0.730	0.730
2020/01/31 11:08:43.9	293.620	-0.020	-0.750	0.760
2020/01/31 11:08:44.0	293.610	-0.010	-0.760	0.790
2020/01/31 11:08:44.1	293.600	-0.010	-0.760	0.820
2020/01/31 11:08:44.2	293.590	-0.000	-0.770	0.850
2020/01/31 11:08:44.3	293.580	0.000	-0.770	0.870
2020/01/31 11:08:44.4	293.560	0.010	-0.770	0.900
2020/01/31 11:08:44.5	293.550	0.010	-0.760	0.930
2020/01/31 11:08:44.6	293.530	0.020	-0.760	0.960
2020/01/31 11:08:44.7	293.510	0.020	-0.750	0.990
2020/01/31 11:08:44.8	293.490	0.020	-0.730	1.010
2020/01/31 11:08:44.9	293.470	0.030	-0.720	1.040
2020/01/31 11:08:45.0	293.450	0.030	-0.700	1.060
2020/01/31 11:08:45.1	293.430	0.030	-0.670	1.090
2020/01/31 11:08:45.2	293.410	0.030	-0.650	1.110
2020/01/31 11:08:45.3	293.390	0.030	-0.620	1.130
2020/01/31 11:08:45.4	293.360	0.030	-0.590	1.150
2020/01/31 11:08:45.5	293.330	0.030	-0.560	1.170
2020/01/31 11:08:45.6	293.300	0.030	-0.530	1.190
2020/01/31 11:08:45.7	293.280	0.030	-0.500	1.210
2020/01/31 11:08:45.8	293.260	0.030	-0.460	1.220
2020/01/31 11:08:45.9	293.230	0.020	-0.430	1.230
2020/01/31 11:08:46.0	293.210	0.020	-0.390	1.240
2020/01/31 11:08:46.1	293.190	0.020	-0.350	1.250
2020/01/31 11:08:46.2	293.170	0.010	-0.320	1.250
2020/01/31 11:08:46.3	293.150	0.010	-0.280	1.250
2020/01/31 11:08:46.4	293.130	0.010	-0.250	1.250
2020/01/31 11:08:46.5	293.120	0.000	-0.210	1.250
2020/01/31 11:08:46.6	293.100	-0.000	-0.170	1.240
2020/01/31 11:08:46.7	293.090	-0.010	-0.140	1.230
2020/01/31 11:08:46.8	293.080	-0.010	-0.100	1.210
2020/01/31 11:08:46.9	293.070	-0.020	-0.070	1.190
2020/01/31 11:08:47.0	293.060	-0.030	-0.030	1.170
2020/01/31 11:08:47.1	293.050	-0.030	-0.000	1.150
2020/01/31 11:08:47.2	293.050	-0.040	0.030	1.120
2020/01/31 11:08:47.3	293.040	-0.050	0.060	1.090
2020/01/31 11:08:47.4	293.040	-0.050	0.090	1.060
2020/01/31 11:08:47.5	293.060	-0.060	0.120	1.030
2020/01/31 11:08:47.6	293.060	-0.070	0.150	0.990
2020/01/31 11:08:47.7	293.070	-0.070	0.180	0.960
2020/01/31 11:08:47.8	293.070	-0.080	0.210	0.920
2020/01/31 11:08:47.9	293.080	-0.090	0.230	0.880
2020/01/31 11:08:48.0	293.090	-0.100	0.260	0.840
2020/01/31 11:08:48.1	293.110	-0.110	0.290	0.790
2020/01/31 11:08:48.2	293.120	-0.110	0.310	0.750
2020/01/31 11:08:48.3	293.140	-0.120	0.340	0.710
2020/01/31 11:08:48.4	293.150	-0.130	0.360	0.660
2020/01/31 11:08:48.5	293.180	-0.140	0.380	0.620
2020/01/31 11:08:48.6	293.190	-0.140	0.400	0.580
2020/01/31 11:08:48.7	293.210	-0.150	0.430	0.540
2020/01/31 11:08:48.8	293.240	-0.160	0.440	0.490
2020/01/31 11:08:48.9	293.260	-0.160	0.460	0.450
2020/01/31 11:08:49.0	293.280	-0.170	0.480	0.410
2020/01/31 11:08:49.1	293.300	-0.180	0.490	0.380
2020/01/31 11:08:49.2	293.320	-0.180	0.510	0.340
2020/01/31 11:08:49.3	293.350	-0.180	0.520	0.300
2020/01/31 11:08:49.4	293.370	-0.190	0.530	0.270
2020/01/31 11:08:49.5	293.380	-0.190	0.540	0.240
2020/01/31 11:08:49.6	293.410	-0.190	0.540	0.210
2020/01/31 11:08:49.7	293.430	-0.190	0.540	0.180
2020/01/31 11:08:49.8	293.460	-0.190	0.540	0.150
2020/01/31 11:08:49.9	293.480	-0.190	0.530	0.120
2020/01/31 11:08:50.0	293.510	-0.180	0.530	0.100
2020/01/31 11:08:50.1	293.530	-0.180	0.510	0.080
2020/01/31 11:08:50.2	293.550	-0.170	0.500	0.060
2020/01/31 11:08:50.3	293.580	-0.160	0.480	0.040
2020/01/31 11:08:50.4	293.600	-0.150	0.450	0.030
2020/01/31 11:08:50.5	293.610	-0.140	0.420	0.010
2020/01/31 11:08:50.6	293.630	-0.130	0.390	-0.000
2020/01/31 11:08:50.7	293.650	-0.120	0.350	-0.010
2020/01/31 11:08:50.8	293.670	-0.110	0.310	-0.020
2020/01/31 11:08:50.9	293.690	-0.090	0.260	-0.020
2020/01/31 11:08:51.0	293.710	-0.080	0.210	-0.020
2020/01/31 11:08:51.1	293.720	-0.060	0.160	-0.020
2020/01/31 11:08:51.2	293.740	-0.040	0.100	-0.020
2020/01/31 11:08:51.3	293.750	-0.020	0.050	-0.020
2020/01/31 11:08:51.4	293.770	-0.000	-0.010	-0.010
2020/01/31 11:08:51.5	293.780	0.020	-0.070	0.000
2020/01/31 11:08:51.6	293.780	0.040	-0.140	0.010
2020/01/31 11:08:51.7	293.790	0.060	-0.200	0.030
2020/01/31 11:08:51.8	293.800	0.080	-0.270	0.050
2020/01/31 11:08:51.9	293.800	0.100	-0.330	0.070
2020/01/31 11:08:52.0	293.800	0.120	-0.400	0.090
2020/01/31 11:08:52.1	293.800	0.140	-0.460	0.110
2020/01/31 11:08:52.2	293.800	0.160	-0.530	0.140
2020/01/31 11:08:52.3	293.790	0.180	-0.590	0.170
2020/01/31 11:08:52.4	293.790	0.200	-0.650	0.200
2020/01/31 11:08:52.5	293.780	0.220	-0.710	0.230
2020/01/31 11:08:52.6	293.770	0.240	-0.760	0.270
2020/01/31 11:08:52.7	293.760	0.260	-0.810	0.300
2020/01/31 11:08:52.8	293.750	0.270	-0.860	0.340
2020/01/31 11:08:52.9	293.740	0.290	-0.910	0.380
2020/01/31 11:08:53.0	293.720	0.300	-0.950	0.420
2020/01/31 11:08:53.1	293.710	0.320	-0.990	0.460
2020/01/31 11:08:53.2	293.690	0.330	-1.020	0.500
2020/01/31 11:08:53.3	293.680	0.340	-1.050	0.540
2020/01/31 11:08:53.4	293.660	0.340	-1.080	0.590
2020/01/31 11:08:53.5	293.640	0.350	-1.100	0.630
2020/01/31 11:08:53.6	293.620	0.360	-1.120	0.680
2020/01/31 11:08:53.7	293.610	0.360	-1.130	0.720
2020/01/31 11:08:53.8	293.590	0.360	-1.140	0.770
2020/01/31 11:08:53.9	293.570	0.360	-1.150	0.810
2020/01/31 11:08:54.0	293.550	0.360	-1.150	0.860
2020/01/31 11:08:54.1	293.530	0.360	-1.150	0.900
2020/01/31 11:08:54.2	293.510	0.350	-1.150	0.950
2020/01/31 11:08:54.3	293.490	0.350	-1.140	0.990
2020/01/31 11:08:54.4	293.480	0.340	-1.130	1.030
2020/01/31 11:08:54.5	293.460	0.340	-1.120	1.070
2020/01/31 11:08:54.6	293.440	0.330	-1.110	1.110
2020/01/31 11:08:54.7	293.420	0.320	-1.090	1.150
2020/01/31 11:08:54.8	293.410	0.310	-1.070	1.190
2020/01/31 11:08:54.9	293.390	0.290	-1.050	1.220
2020/01/31 11:08:55.0	293.370	0.280	-1.030	1.260
2020/01/31 11:08:55.1	293.350	0.270	-1.000	1.290
2020/01/31 11:08:55.2	293.340	0.250	-0.980	1.320
2020/01/31 11:08:55.3	293.320	0.240	-0.950	1.340
2020/01/31 11:08:55.4	293.300	0.230	-0.920	1.370
2020/01/31 11:08:55.5	293.300	0.210	-0.890	1.390
2020/01/31 11:08:55.6	293.280	0.200	-0.850	1.410
2020/01/31 11:08:55.7	293.270	0.180	-0.820	1.430
2020/01/31 11:08:55.8	293.250	0.170	-0.790	1.440
2020/01/31 11:08:55.9	293.240	0.150	-0.760	1.450
2020/01/31 11:08:56.0	293.230	0.140	-0.730	1.460
2020/01/31 11:08:56.1	293.210	0.120	-0.690	1.470
2020/01/31 11:08:56.2	293.200	0.110	-0.660	1.470
2020/01/31 11:08:56.3	293.190	0.090	-0.620	1.460
2020/01/31 11:08:56.4	293.180	0.080	-0.590	1.460
2020/01/31 11:08:56.5	293.180	0.070	-0.560	1.450
2020/01/31 11:08:56.6	293.180	0.050	-0.520	1.440
2020/01/31 11:08:56.7	293.170	0.040	-0.490	1.420
2020/01/31 11:08:56.8	293.160	0.030	-0.460	1.400
2020/01/31 11:08:56.9	293.160	0.020	-0.420	1.380
2020/01/31 11:08:57.0	293.150	0.010	-0.390	1.360
2020/01/31 11:08:57.1	293.150	-0.000	-0.350	1.330
2020/01/31 11:08:57.2	293.150	-0.020	-0.320	1.300
2020/01/31 11:08:57.3	293.150	-0.030	-0.280	1.260
2020/01/31 11:08:57.4	293.150	-0.040	-0.250	1.230
2020/01/31 11:08:57.5	293.140	-0.040	-0.210	1.190
2020/01/31 11:08:57.6	293.150	-0.050	-0.180	1.150
2020/01/31 11:08:57.7	293.150	-0.060	-0.140	1.110
2020/01/31 11:08:57.8	293.150	-0.070	-0.110	1.060
2020/01/31 11:08:57.9	293.150	-0.080	-0.070	1.010
2020/01/31 11:08:58.0	293.160	-0.090	-0.040	0.970
2020/01/31 11:08:58.1	293.160	-0.100	-0.000	0.920
2020/01/31 11:08:58.2	293.170	-0.100	0.030	0.870
2020/01/31 11:08:58.3	293.170	-0.110	0.060	0.820
2020/01/31 11:08:58.4	293.180	-0.120	0.090	0.760
2020/01/31 11:08:58.5	293.190	-0.130	0.120	0.710
2020/01/31 11:08:58.6	293.190	-0.140	0.150	0.660
2020/01/31 11:08:58.7	293.200	-0.140	0.190	0.610
2020/01/31 11:08:58.8	293.210	-0.150	0.220	0.550
2020/01/31 11:08:58.9	293.210	-0.160	0.250	0.500
2020/01/31 11:08:59.0	293.220	-0.170	0.270	0.450
2020/01/31 11:08:59.1	293.220	-0.180	0.300	0.390
2020/01/31 11:08:59.2	293.230	-0.190	0.330	0.340
2020/01/31 11:08:59.3	293.240	-0.200	0.350	0.290
2020/01/31 11:08:59.4	293.240	-0.210	0.380	0.240
2020/01/31 11:08:59.5	293.240	-0.220	0.410	0.190
2020/01/31 11:08:59.6	293.250	-0.230	0.430	0.140
2020/01/31 11:08:59.7	293.250	-0.240	0.450	0.100
2020/01/31 11:08:59.8	293.260	-0.250	0.470	0.050
2020/01/31 11:08:59.9	293.270	-0.270	0.490	0.010
2020/01/31 11:09:00.0	293.280	-0.280	0.510	-0.040
2020/01/31 11:09:00.1	293.290	-0.290	0.530	-0.080
2020/01/31 11:09:00.2	293.300	-0.300	0.540	-0.120
2020/01/31 11:09:00.3	293.310	-0.320	0.560	-0.150
2020/01/31 11:09:00.4	293.320	-0.330	0.570	-0.190
2020/01/31 11:09:00.5	293.320	-0.340	0.570	-0.220
2020/01/31 11:09:00.6	293.330	-0.360	0.580	-0.250
2020/01/31 11:09:00.7	293.340	-0.370	0.590	-0.270
2020/01/31 11:09:00.8	293.350	-0.380	0.600	-0.300
2020/01/31 11:09:00.9	293.350	-0.390	0.600	-0.310
2020/01/31 11:09:01.0	293.360	-0.410	0.600	-0.330
2020/01/31 11:09:01.1	293.370	-0.420	0.600	-0.340
2020/01/31 11:09:01.2	293.370	-0.430	0.600	-0.350
2020/01/31 11:09:01.3	293.380	-0.440	0.590	-0.360
2020/01/31 11:09:01.4	293.380	-0.440	0.590	-0.360
2020/01/31 11:09:01.5	293.400	-0.450	0.580	-0.350
2020/01/31 11:09:01.6	293.400	-0.460	0.560	-0.350
2020/01/31 11:09:01.7	293.410	-0.460	0.550	-0.340
2020/01/31 11:09:01.8	293.410	-0.460	0.530	-0.330
2020/01/31 11:09:01.9	293.410	-0.470	0.500	-0.320
2020/01/31 11:09:02.0	293.420	-0.470	0.480	-0.300
2020/01/31 11:09:02.1	293.420	-0.460	0.440	-0.280
2020/01/31 11:09:02.2	293.420	-0.460	0.410	-0.260
2020/01/31 11:09:02.3	293.430	-0.450	0.370	-0.240
2020/01/31 11:09:02.4	293.430	-0.450	0.330	-0.210
2020/01/31 11:09:02.5	293.430	-0.440	0.280	-0.190
2020/01/31 11:09:02.6	293.440	-0.430	0.230	-0.160
2020/01/31 11:09:02.7	293.440	-0.410	0.180	-0.130
2020/01/31 11:09:02.8	293.440	-0.400	0.120	-0.090
2020/01/31 11:09:02.9	293.440	-0.380	0.060	-0.060
2020/01/31 11:09:03.0	293.440	-0.360	0.000	-0.020
2020/01/31 11:09:03.1	293.440	-0.340	-0.060	0.020
2020/01/31 11:09:03.2	293.440	-0.320	-0.130	0.060
2020/01/31 11:09:03.3	293.440	-0.300	-0.190	0.110
2020/01/31 11:09:03.4	293.440	-0.270	-0.260	0.150
2020/01/31 11:09:03.5	293.440	-0.240	-0.330	0.200
2020/01/31 11:09:03.6	293.440	-0.210	-0.390	0.250
2020/01/31 11:09:03.7	293.440	-0.180	-0.460	0.290
2020/01/31 11:09:03.8	293.440	-0.150	-0.530	0.340
2020/01/31 11:09:03.9	293.440	-0.120	-0.590	0.390
2020/01/31 11:09:04.0	293.440	-0.090	-0.650	0.440
2020/01/31 11:09:04.1	293.440	-0.060	-0.720	0.490
2020/01/31 11:09:04.2	293.430	-0.020	-0.770	0.530
2020/01/31 11:09:04.3	293.430	0.010	-0.830	0.580
2020/01/31 11:09:04.4	293.430	0.040	-0.880	0.630
2020/01/31 11:09:04.5	293.420	0.080	-0.930	0.680
2020/01/31 11:09:04.6	293.410	0.110	-0.980	0.720
2020/01/31 11:09:04.7	293.410	0.140	-1.020	0.770
2020/01/31 11:09:04.8	293.400	0.170	-1.050	0.810
2020/01/31 11:09:04.9	293.400	0.200	-1.090	0.860
2020/01/31 11:09:05.0	293.400	0.230	-1.110	0.900
2020/01/31 11:09:05.1	293.390	0.260	-1.140	0.940
2020/01/31 11:09:05.2	293.390	0.290	-1.150	0.980
2020/01/31 11:09:05.3	293.380	0.310	-1.170	1.020
2020/01/31 11:09:05.4	293.380	0.340	-1.180	1.050
2020/01/31 11:09:05.5	293.360	0.360	-1.180	1.080
2020/01/31 11:09:05.6	293.360	0.380	-1.180	1.110
2020/01/31 11:09:05.7	293.350	0.390	-1.180	1.140
2020/01/31 11:09:05.8	293.350	0.410	-1.170	1.170
2020/01/31 11:09:05.9	293.350	0.420	-1.160	1.190
2020/01/31 11:09:06.0	293.340	0.440	-1.140	1.210
2020/01/31 11:09:06.1	293.340	0.450	-1.120	1.220
2020/01/31 11:09:06.2	293.340	0.450	-1.100	1.230
2020/01/31 11:09:06.3	293.340	0.460	-1.070	1.240
2020/01/31 11:09:06.4	293.330	0.460	-1.040	1.250
2020/01/31 11:09:06.5	293.320	0.470	-1.010	1.250
2020/01/31 11:09:06.6	293.320	0.470	-0.980	1.250
2020/01/31 11:09:06.7	293.320	0.470	-0.940	1.250
2020/01/31 11:09:06.8	293.320	0.460	-0.900	1.250
2020/01/31 11:09:06.9	293.320	0.460	-0.860	1.240
2020/01/31 11:09:07.0	293.320	0.460	-0.820	1.230
2020/01/31 11:09:07.1	293.320	0.450	-0.780	1.220
2020/01/31 11:09:07.2	293.320	0.440	-0.740	1.210
2020/01/31 11:09:07.3	293.320	0.430	-0.700	1.190
2020/01/31 11:09:07.4	293.320	0.420	-0.650	1.170
2020/01/31 11:09:07.5	293.310	0.410	-0.610	1.160
2020/01/31 11:09:07.6	293.310	0.400	-0.560	1.140
2020/01/31 11:09:07.7	293.310	0.390	-0.520	1.120
2020/01/31 11:09:07.8	293.310	0.370	-0.480	1.100
2020/01/31 11:09:07.9	293.300	0.360	-0.440	1.080
2020/01/31 11:09:08.0	293.300	0.340	-0.400	1.060
2020/01/31 11:09:08.1	293.300	0.330	-0.360	1.040
2020/01/31 11:09:08.2	293.290	0.310	-0.320	1.010
2020/01/31 11:09:08.3	293.290	0.300	-0.280	0.990
2020/01/31 11:09:08.4	293.290	0.280	-0.240	0.970
2020/01/31 11:09:08.5	293.290	0.260	-0.210	0.950
2020/01/31 11:09:08.6	293.280	0.250	-0.170	0.920
2020/01/31 11:09:08.7	293.280	0.230	-0.140	0.900
2020/01/31 11:09:08.8	293.270	0.210	-0.110	0.870
2020/01/31 11:09:08.9	293.270	0.200	-0.070	0.850
2020/01/31 11:09:09.0	293.260	0.180	-0.040	0.820
2020/01/31 11:09:09.1	293.260	0.160	-0.020	0.790
2020/01/31 11:09:09.2	293.260	0.150	0.010	0.770
2020/01/31 11:09:09.3	293.250	0.130	0.040	0.740
2020/01/31 11:09:09.4	293.250	0.110	0.060	0.720
2020/01/31 11:09:09.5	293.240	0.100	0.090	0.690
2020/01/31 11:09:09.6	293.230	0.080	0.110	0.660
2020/01/31 11:09:09.7	293.230	0.060	0.130	0.630
2020/01/31 11:09:09.8	293.230	0.050	0.150	0.610
2020/01/31 11:09:09.9	293.220	0.030	0.170	0.580
2020/01/31 11:09:10.0	293.220	0.010	0.180	0.560
2020/01/31 11:09:10.1	293.220	-0.000	0.200	0.530
2020/01/31 11:09:10.2	293.220	-0.020	0.210	0.510
2020/01/31 11:09:10.3	293.220	-0.040	0.220	0.480
2020/01/31 11:09:10.4	293.220	-0.050	0.230	0.460
2020/01/31 11:09:10.5	293.220	-0.070	0.240	0.440
2020/01/31 11:09:10.6	293.220	-0.080	0.240	0.420
2020/01/31 11:09:10.7	293.210	-0.100	0.250	0.400
2020/01/31 11:09:10.8	293.210	-0.110	0.250	0.380
2020/01/31 11:09:10.9	293.210	-0.130	0.250	0.370
2020/01/31 11:09:11.0	293.210	-0.140	0.250	0.350
2020/01/31 11:09:11.1	293.210	-0.150	0.250	0.340
2020/01/31 11:09:11.2	293.210	-0.170	0.250	0.330
2020/01/31 11:09:11.3	293.210	-0.180	0.240	0.330
2020/01/31 11:09:11.4	293.210	-0.190	0.240	0.320
2020/01/31 11:09:11.5	293.210	-0.200	0.230	0.320
2020/01/31 11:09:11.6	293.200	-0.210	0.230	0.320
2020/01/31 11:09:11.7	293.200	-0.220	0.220	0.330
2020/01/31 11:09:11.8	293.200	-0.220	0.210	0.330
2020/01/31 11:09:11.9	293.190	-0.230	0.200	0.340
2020/01/31 11:09:12.0	293.190	-0.230	0.180	0.350
2020/01/31 11:09:12.1	293.180	-0.240	0.170	0.360
2020/01/31 11:09:12.2	293.170	-0.240	0.150	0.370
2020/01/31 11:09:12.3	293.170	-0.240	0.140	0.380
2020/01/31 11:09:12.4	293.160	-0.240	0.120	0.400
2020/01/31 11:09:12.5	293.150	-0.240	0.100	0.420
2020/01/31 11:09:12.6	293.150	-0.240	0.090	0.430
2020/01/31 11:09:12.7	293.140	-0.230	0.070	0.450
2020/01/31 11:09:12.8	293.130	-0.230	0.050	0.470
2020/01/31 11:09:12.9	293.130	-0.220	0.030	0.490
2020/01/31 11:09:13.0	293.120	-0.220	0.010	0.510
2020/01/31 11:09:13.1	293.110	-0.210	-0.010	0.530
2020/01/31 11:09:13.2	293.100	-0.200	-0.030	0.550
2020/01/31 11:09:13.3	293.100	-0.190	-0.060	0.570
2020/01/31 11:09:13.4	293.090	-0.180	-0.080	0.590
2020/01/31 11:09:13.5	293.090	-0.170	-0.100	0.600
2020/01/31 11:09:13.6	293.080	-0.150	-0.120	0.610
2020/01/31 11:09:13.7	293.080	-0.140	-0.150	0.630
2020/01/31 11:09:13.8	293.080	-0.130	-0.170	0.650
2020/01/31 11:09:13.9	293.070	-0.120	-0.200	0.660
2020/01/31 11:09:14.0	293.070	-0.100	-0.220	0.670
2020/01/31 11:09:14.1	293.070	-0.090	-0.250	0.680
2020/01/31 11:09:14.2	293.070	-0.070	-0.270	0.690
2020/01/31 11:09:14.3	293.070	-0.060	-0.300	0.700
2020/01/31 11:09:14.4	293.070	-0.050	-0.320	0.710
2020/01/31 11:09:14.5	293.070	-0.030	-0.350	0.710
2020/01/31 11:09:14.6	293.080	-0.020	-0.370	0.710
2020/01/31 11:09:14.7	293.080	-0.010	-0.400	0.710
2020/01/31 11:09:14.8	293.090	0.000	-0.420	0.710
2020/01/31 11:09:14.9	293.090	0.010	-0.440	0.710
2020/01/31 11:09:15.0	293.100	0.020	-0.460	0.700
2020/01/31 11:09:15.1	293.100	0.030	-0.480	0.700
2020/01/31 11:09:15.2	293.110	0.040	-0.500	0.690
2020/01/31 11:09:15.3	293.120	0.050	-0.510	0.680
2020/01/31 11:09:15.4	293.130	0.060	-0.520	0.670
2020/01/31 11:09:15.5	293.140	0.060	-0.530	0.650
2020/01/31 11:09:15.6	293.150	0.070	-0.540	0.640
2020/01/31 11:09:15.7	293.160	0.070	-0.540	0.620
2020/01/31 11:09:15.8	293.170	0.070	-0.540	0.610
2020/01/31 11:09:15.9	293.180	0.070	-0.540	0.590
2020/01/31 11:09:16.0	293.180	0.070	-0.540	0.570
2020/01/31 11:09:16.1	293.190	0.070	-0.530	0.550
2020/01/31 11:09:16.2	293.200	0.060	-0.520	0.530
2020/01/31 11:09:16.3	293.210	0.060	-0.510	0.520
2020/01/31 11:09:16.4	293.220	0.050	-0.490	0.500
2020/01/31 11:09:16.5	293.240	0.040	-0.480	0.480
2020/01/31 11:09:16.6	293.250	0.030	-0.460	0.460
2020/01/31 11:09:16.7	293.260	0.030	-0.440	0.440
2020/01/31 11:09:16.8	293.270	0.020	-0.420	0.410
2020/01/31 11:09:16.9	293.280	0.000	-0.400	0.390
2020/01/31 11:09:17.0	293.280	-0.010	-0.380	0.370
2020/01/31 11:09:17.1	293.290	-0.020	-0.350	0.350
2020/01/31 11:09:17.2	293.300	-0.030	-0.330	0.330
2020/01/31 11:09:17.3	293.310	-0.040	-0.310	0.310
2020/01/31 11:09:17.4	293.320	-0.050	-0.290	0.290
2020/01/31 11:09:17.5	293.310	-0.070	-0.270	0.270
2020/01/31 11:09:17.6	293.320	-0.080	-0.250	0.240
2020/01/31 11:09:17.7	293.330	-0.090	-0.230	0.220
2020/01/31 11:09:17.8	293.340	-0.100	-0.220	0.200
2020/01/31 11:09:17.9	293.340	-0.110	-0.200	0.180
2020/01/31 11:09:18.0	293.350	-0.120	-0.190	0.160
2020/01/31 11:09:18.1	293.350	-0.130	-0.180	0.140
2020/01/31 11:09:18.2	293.360	-0.130	-0.170	0.120
2020/01/31 11:09:18.3	293.360	-0.140	-0.170	0.100
2020/01/31 11:09:18.4	293.370	-0.150	-0.170	0.080
2020/01/31 11:09:18.5	293.360	-0.150	-0.170	0.060
2020/01/31 11:09:18.6	293.360	-0.150	-0.170	0.040
2020/01/31 11:09:18.7	293.360	-0.160	-0.180	0.030
2020/01/31 11:09:18.8	293.360	-0.160	-0.190	0.010
2020/01/31 11:09:18.9	293.360	-0.160	-0.200	-0.010
2020/01/31 11:09:19.0	293.360	-0.150	-0.220	-0.020
2020/01/31 11:09:19.1	293.360	-0.150	-0.240	-0.040
2020/01/31 11:09:19.2	293.360	-0.150	-0.260	-0.050
2020/01/31 11:09:19.3	293.360	-0.140	-0.280	-0.070
2020/01/31 11:09:19.4	293.360	-0.140	-0.300	-0.080
2020/01/31 11:09:19.5	293.360	-0.130	-0.320	-0.090
2020/01/31 11:09:19.6	293.360	-0.120	-0.350	-0.100
2020/01/31 11:09:19.7	293.360	-0.120	-0.370	-0.120
2020/01/31 11:09:19.8	293.360	-0.110	-0.400	-0.130
2020/01/31 11:09:19.9	293.350	-0.100	-0.420	-0.130
2020/01/31 11:09:20.0	293.350	-0.100	-0.450	-0.140
2020/01/31 11:09:20.1	293.340	-0.090	-0.470	-0.140
2020/01/31 11:09:20.2	293.340	-0.080	-0.490	-0.150
2020/01/31 11:09:20.3	293.330	-0.070	-0.510	-0.150
2020/01/31 11:09:20.4	293.320	-0.070	-0.530	-0.150
2020/01/31 11:09:20.5	293.320	-0.060	-0.540	-0.140
2020/01/31 11:09:20.6	293.310	-0.050	-0.550	-0.140
2020/01/31 11:09:20.7	293.310	-0.050	-0.560	-0.130
2020/01/31 11:09:20.8	293.300	-0.040	-0.560	-0.120
2020/01/31 11:09:20.9	293.290	-0.040	-0.560	-0.100
2020/01/31 11:09:21.0	293.280	-0.040	-0.560	-0.090
2020/01/31 11:09:21.1	293.270	-0.030	-0.560	-0.070
2020/01/31 11:09:21.2	293.260	-0.030	-0.550	-0.050
2020/01/31 11:09:21.3	293.240	-0.030	-0.530	-0.030
2020/01/31 11:09:21.4	293.230	-0.030	-0.520	-0.000
2020/01/31 11:09:21.5	293.220	-0.030	-0.500	0.030
2020/01/31 11:09:21.6	293.210	-0.030	-0.470	0.060
2020/01/31 11:09:21.7	293.190	-0.030	-0.450	0.090
2020/01/31 11:09:21.8	293.180	-0.030	-0.420	0.130
2020/01/31 11:09:21.9	293.170	-0.030	-0.390	0.160
2020/01/31 11:09:22.0	293.150	-0.040	-0.360	0.200
2020/01/31 11:09:22.1	293.140	-0.040	-0.320	0.240
2020/01/31 11:09:22.2	293.130	-0.040	-0.290	0.280
2020/01/31 11:09:22.3	293.110	-0.050	-0.250	0.320
2020/01/31 11:09:22.4	293.100	-0.050	-0.210	0.360
2020/01/31 11:09:22.5	293.100	-0.050	-0.170	0.410
2020/01/31 11:09:22.6	293.080	-0.050	-0.130	0.450
2020/01/31 11:09:22.7	293.070	-0.060	-0.100	0.490
2020/01/31 11:09:22.8	293.060	-0.060	-0.060	0.530
2020/01/31 11:09:22.9	293.040	-0.060	-0.030	0.570
2020/01/31 11:09:23.0	293.030	-0.060	0.000	0.610
2020/01/31 11:09:23.1	293.020	-0.060	0.030	0.660
2020/01/31 11:09:23.2	293.010	-0.060	0.060	0.690
2020/01/31 11:09:23.3	293.000	-0.060	0.080	0.730
2020/01/31 11:09:23.4	292.980	-0.050	0.110	0.770
2020/01/31 11:09:23.5	292.980	-0.050	0.130	0.810
2020/01/31 11:09:23.6	292.970	-0.050	0.150	0.840
2020/01/31 11:09:23.7	292.960	-0.040	0.160	0.880
2020/01/31 11:09:23.8	292.940	-0.040	0.180	0.910
2020/01/31 11:09:23.9	292.930	-0.030	0.190	0.940
2020/01/31 11:09:24.0	292.920	-0.020	0.200	0.970
2020/01/31 11:09:24.1	292.910	-0.020	0.210	0.990
2020/01/31 11:09:24.2	292.900	-0.010	0.210	1.010
2020/01/31 11:09:24.3	292.890	0.000	0.210	1.040
2020/01/31 11:09:24.4	292.870	0.010	0.210	1.050
2020/01/31 11:09:24.5	292.880	0.020	0.210	1.070
2020/01/31 11:09:24.6	292.870	0.030	0.210	1.090
2020/01/31 11:09:24.7	292.860	0.050	0.200	1.100
2020/01/31 11:09:24.8	292.840	0.060	0.190	1.100
2020/01/31 11:09:24.9	292.830	0.070	0.180	1.110
2020/01/31 11:09:25.0	292.820	0.080	0.170	1.110
2020/01/31 11:09:25.1	292.810	0.090	0.150	1.110
2020/01/31 11:09:25.2	292.800	0.110	0.130	1.110
2020/01/31 11:09:25.3	292.790	0.120	0.110	1.110
2020/01/31 11:09:25.4	292.780	0.130	0.090	1.100
2020/01/31 11:09:25.5	292.760	0.140	0.060	1.090
2020/01/31 11:09:25.6	292.760	0.150	0.030	1.070
2020/01/31 11:09:25.7	292.750	0.160	0.000	1.060
2020/01/31 11:09:25.8	292.740	0.180	-0.030	1.040
2020/01/31 11:09:25.9	292.740	0.190	-0.060	1.020
2020/01/31 11:09:26.0	292.740	0.190	-0.090	1.000
2020/01/31 11:09:26.1	292.730	0.200	-0.120	0.970
2020/01/31 11:09:26.2	292.730	0.210	-0.160	0.950
2020/01/31 11:09:26.3	292.730	0.220	-0.190	0.920
2020/01/31 11:09:26.4	292.730	0.220	-0.230	0.890
2020/01/31 11:09:26.5	292.720	0.230	-0.260	0.850
2020/01/31 11:09:26.6	292.730	0.230	-0.290	0.830
2020/01/31 11:09:26.7	292.730	0.230	-0.320	0.800
2020/01/31 11:09:26.8	292.730	0.240	-0.350	0.770
2020/01/31 11:09:26.9	292.740	0.240	-0.380	0.740
2020/01/31 11:09:27.0	292.740	0.240	-0.410	0.710
2020/01/31 11:09:27.1	292.750	0.230	-0.440	0.680
2020/01/31 11:09:27.2	292.760	0.230	-0.460	0.650
2020/01/31 11:09:27.3	292.770	0.230	-0.490	0.620
2020/01/31 11:09:27.4	292.770	0.220	-0.510	0.590
2020/01/31 11:09:27.5	292.770	0.220	-0.530	0.570
2020/01/31 11:09:27.6	292.780	0.210	-0.540	0.540
2020/01/31 11:09:27.7	292.780	0.210	-0.560	0.520
2020/01/31 11:09:27.8	292.790	0.200	-0.570	0.500
2020/01/31 11:09:27.9	292.800	0.190	-0.580	0.480
2020/01/31 11:09:28.0	292.810	0.180	-0.590	0.460
2020/01/31 11:09:28.1	292.810	0.170	-0.590	0.440
2020/01/31 11:09:28.2	292.820	0.160	-0.590	0.420
2020/01/31 11:09:28.3	292.830	0.150	-0.600	0.400
2020/01/31 11:09:28.4	292.840	0.140	-0.600	0.390
2020/01/31 11:09:28.5	292.850	0.130	-0.590	0.370
2020/01/31 11:09:28.6	292.860	0.130	-0.590	0.360
2020/01/31 11:09:28.7	292.870	0.120	-0.580	0.340
2020/01/31 11:09:28.8	292.880	0.110	-0.580	0.330
2020/01/31 11:09:28.9	292.890	0.100	-0.570	0.320
2020/01/31 11:09:29.0	292.900	0.090	-0.570	0.310
2020/01/31 11:09:29.1	292.910	0.080	-0.560	0.300
2020/01/31 11:09:29.2	292.920	0.070	-0.550	0.290
2020/01/31 11:09:29.3	292.930	0.070	-0.540	0.280
2020/01/31 11:09:29.4	292.940	0.060	-0.540	0.270
2020/01/31 11:09:29.5	292.950	0.050	-0.530	0.260
2020/01/31 11:09:29.6	292.970	0.050	-0.520	0.260
2020/01/31 11:09:29.7	292.980	0.040	-0.510	0.250
2020/01/31 11:09:29.8	292.990	0.040	-0.510	0.240
2020/01/31 11:09:29.9	292.990	0.040	-0.500	0.240
2020/01/31 11:09:30.0	293.000	0.030	-0.490	0.230
2020/01/31 11:09:30.1	293.010	0.030	-0.480	0.230
2020/01/31 11:09:30.2	293.020	0.030	-0.470	0.230
2020/01/31 11:09:30.3	293.030	0.030	-0.460	0.230
2020/01/31 11:09:30.4	293.040	0.020	-0.450	0.230
2020/01/31 11:09:30.5	293.060	0.020	-0.440	0.230
2020/01/31 11:09:30.6	293.070	0.020	-0.430	0.230
2020/01/31 11:09:30.7	293.070	0.020	-0.420	0.240
2020/01/31 11:09:30.8	293.080	0.010	-0.410	0.240
2020/01/31 11:09:30.9	293.080	0.010	-0.390	0.250
2020/01/31 11:09:31.0	293.080	0.010	-0.380	0.260
2020/01/31 11:09:31.1	293.080	0.000	-0.360	0.270
2020/01/31 11:09:31.2	293.080	-0.000	-0.340	0.270
2020/01/31 11:09:31.3	293.080	-0.010	-0.330	0.290
2020/01/31 11:09:31.4	293.070	-0.010	-0.310	0.300
2020/01/31 11:09:31.5	293.060	-0.020	-0.280	0.310
2020/01/31 11:09:31.6	293.050	-0.030	-0.260	0.320
2020/01/31 11:09:31.7	293.040	-0.040	-0.240	0.340
2020/01/31 11:09:31.8	293.030	-0.050	-0.220	0.350
2020/01/31 11:09:31.9	293.020	-0.060	-0.200	0.370
2020/01/31 11:09:32.0	293.000	-0.070	-0.180	0.380
2020/01/31 11:09:32.1	292.990	-0.090	-0.150	0.390
2020/01/31 11:09:32.2	292.970	-0.100	-0.130	0.410
2020/01/31 11:09:32.3	292.960	-0.120	-0.110	0.420
2020/01/31 11:09:32.4	292.940	-0.140	-0.080	0.430
2020/01/31 11:09:32.5	292.910	-0.150	-0.060	0.440
2020/01/31 11:09:32.6	292.890	-0.170	-0.040	0.460
2020/01/31 11:09:32.7	292.870	-0.190	-0.010	0.470
2020/01/31 11:09:32.8	292.860	-0.210	0.010	0.480
2020/01/31 11:09:32.9	292.840	-0.230	0.030	0.490
2020/01/31 11:09:33.0	292.820	-0.250	0.050	0.490
2020/01/31 11:09:33.1	292.800	-0.270	0.070	0.500
2020/01/31 11:09:33.2	292.790	-0.290	0.090	0.510
2020/01/31 11:09:33.3	292.770	-0.310	0.110	0.510
2020/01/31 11:09:33.4	292.760	-0.330	0.120	0.510
2020/01/31 11:09:33.5	292.730	-0.350	0.140	0.510
2020/01/31 11:09:33.6	292.720	-0.360	0.150	0.510
2020/01/31 11:09:33.7	292.710	-0.380	0.160	0.520
2020/01/31 11:09:33.8	292.700	-0.390	0.170	0.520
2020/01/31 11:09:33.9	292.690	-0.400	0.180	0.520
2020/01/31 11:09:34.0	292.680	-0.410	0.190	0.510
2020/01/31 11:09:34.1	292.680	-0.420	0.190	0.510
2020/01/31 11:09:34.2	292.670	-0.430	0.190	0.510
2020/01/31 11:09:34.3	292.670	-0.440	0.190	0.510
2020/01/31 11:09:34.4	292.660	-0.440	0.180	0.510
2020/01/31 11:09:34.5	292.650	-0.440	0.180	0.510
2020/01/31 11:09:34.6	292.650	-0.440	0.170	0.510
2020/01/31 11:09:34.7	292.650	-0.430	0.160	0.510
2020/01/31 11:09:34.8	292.660	-0.430	0.140	0.510
2020/01/31 11:09:34.9	292.660	-0.420	0.130	0.510
2020/01/31 11:09:35.0	292.660	-0.410	0.110	0.510
2020/01/31 11:09:35.1	292.670	-0.390	0.090	0.510
2020/01/31 11:09:35.2	292.680	-0.380	0.060	0.520
2020/01/31 11:09:35.3	292.690	-0.360	0.040	0.520
2020/01/31 11:09:35.4	292.700	-0.340	0.010	0.530
2020/01/31 11:09:35.5	292.710	-0.310	-0.020	0.540
2020/01/31 11:09:35.6	292.720	-0.290	-0.050	0.550
2020/01/31 11:09:35.7	292.740	-0.260	-0.080	0.560
2020/01/31 11:09:35.8	292.750	-0.240	-0.110	0.570
2020/01/31 11:09:35.9	292.770	-0.210	-0.140	0.580
2020/01/31 11:09:36.0	292.780	-0.180	-0.170	0.600
2020/01/31 11:09:36.1	292.800	-0.140	-0.210	0.610
2020/01/31 11:09:36.2	292.820	-0.110	-0.240	0.630
2020/01/31 11:09:36.3	292.830	-0.080	-0.270	0.650
2020/01/31 11:09:36.4	292.850	-0.040	-0.310	0.670
2020/01/31 11:09:36.5	292.870	-0.010	-0.340	0.700
2020/01/31 11:09:36.6	292.890	0.030	-0.370	0.720
2020/01/31 11:09:36.7	292.910	0.060	-0.400	0.740
2020/01/31 11:09:36.8	292.920	0.100	-0.430	0.770
2020/01/31 11:09:36.9	292.940	0.130	-0.460	0.790
2020/01/31 11:09:37.0	292.950	0.160	-0.490	0.820
2020/01/31 11:09:37.1	292.970	0.190	-0.510	0.850
2020/01/31 11:09:37.2	292.980	0.220	-0.540	0.880
2020/01/31 11:09:37.3	292.990	0.250	-0.560	0.910
2020/01/31 11:09:37.4	293.000	0.280	-0.570	0.940
2020/01/31 11:09:37.5	293.010	0.310	-0.590	0.970
2020/01/31 11:09:37.6	293.020	0.330	-0.600	1.000
2020/01/31 11:09:37.7	293.020	0.350	-0.620	1.030
2020/01/31 11:09:37.8	293.020	0.370	-0.620	1.060
2020/01/31 11:09:37.9	293.020	0.390	-0.630	1.090
2020/01/31 11:09:38.0	293.020	0.400	-0.640	1.120
2020/01/31 11:09:38.1	293.020	0.410	-0.640	1.140
2020/01/31 11:09:38.2	293.010	0.420	-0.640	1.170
2020/01/31 11:09:38.3	293.000	0.430	-0.640	1.200
2020/01/31 11:09:38.4	292.990	0.440	-0.630	1.230
2020/01/31 11:09:38.5	292.980	0.440	-0.630	1.260
2020/01/31 11:09:38.6	292.970	0.440	-0.620	1.280
2020/01/31 11:09:38.7	292.950	0.430	-0.610	1.300
2020/01/31 11:09:38.8	292.940	0.430	-0.600	1.320
2020/01/31 11:09:38.9	292.920	0.420	-0.590	1.340
2020/01/31 11:09:39.0	292.900	0.410	-0.580	1.350
2020/01/31 11:09:39.1	292.890	0.400	-0.570	1.360
2020/01/31 11:09:39.2	292.870	0.390	-0.550	1.370
2020/01/31 11:09:39.3	292.850	0.370	-0.540	1.380
2020/01/31 11:09:39.4	292.830	0.350	-0.520	1.380
2020/01/31 11:09:39.5	292.800	0.340	-0.500	1.380
2020/01/31 11:09:39.6	292.780	0.320	-0.480	1.370
2020/01/31 11:09:39.7	292.760	0.300	-0.460	1.360
2020/01/31 11:09:39.8	292.740	0.280	-0.440	1.340
2020/01/31 11:09:39.9	292.720	0.250	-0.420	1.330
2020/01/31 11:09:40.0	292.700	0.230	-0.400	1.300
2020/01/31 11:09:40.1	292.680	0.210	-0.380	1.280
2020/01/31 11:09:40.2	292.670	0.190	-0.360	1.250
2020/01/31 11:09:40.3	292.650	0.160	-0.330	1.220
2020/01/31 11:09:40.4	292.630	0.140	-0.310	1.180
2020/01/31 11:09:40.5	292.630	0.120	-0.280	1.140
2020/01/31 11:09:40.6	292.610	0.090	-0.250	1.100
2020/01/31 11:09:40.7	292.600	0.070	-0.230	1.060
2020/01/31 11:09:40.8	292.590	0.050	-0.200	1.010
2020/01/31 11:09:40.9	292.580	0.030	-0.170	0.970
2020/01/31 11:09:41.0	292.560	0.010	-0.150	0.920
2020/01/31 11:09:41.1	292.550	-0.010	-0.120	0.870
2020/01/31 11:09:41.2	292.540	-0.030	-0.090	0.820
2020/01/31 11:09:41.3	292.530	-0.040	-0.070	0.760
2020/01/31 11:09:41.4	292.520	-0.060	-0.050	0.710
2020/01/31 11:09:41.5	292.510	-0.070	-0.030	0.660
2020/01/31 11:09:41.6	292.510	-0.090	-0.010	0.600
2020/01/31 11:09:41.7	292.500	-0.100	0.010	0.540
2020/01/31 11:09:41.8	292.490	-0.110	0.030	0.480
2020/01/31 11:09:41.9	292.480	-0.120	0.040	0.430
2020/01/31 11:09:42.0	292.480	-0.140	0.050	0.370
2020/01/31 11:09:42.1	292.470	-0.140	0.060	0.310
2020/01/31 11:09:42.2	292.470	-0.150	0.070	0.250
2020/01/31 11:09:42.3	292.470	-0.160	0.080	0.190
2020/01/31 11:09:42.4	292.460	-0.170	0.080	0.130
2020/01/31 11:09:42.5	292.460	-0.170	0.090	0.070
2020/01/31 11:09:42.6	292.460	-0.180	0.090	0.020
2020/01/31 11:09:42.7	292.460	-0.180	0.080	-0.040
2020/01/31 11:09:42.8	292.460	-0.180	0.080	-0.090
2020/01/31 11:09:42.9	292.460	-0.180	0.070	-0.150
2020/01/31 11:09:43.0	292.460	-0.180	0.060	-0.200
2020/01/31 11:09:43.1	292.470	-0.180	0.040	-0.250
2020/01/31 11:09:43.2	292.470	-0.180	0.020	-0.290
2020/01/31 11:09:43.3	292.480	-0.180	0.010	-0.340
2020/01/31 11:09:43.4	292.490	-0.180	-0.020	-0.380
2020/01/31 11:09:43.5	292.500	-0.180	-0.040	-0.420
2020/01/31 11:09:43.6	292.520	-0.170	-0.060	-0.460
2020/01/31 11:09:43.7	292.530	-0.170	-0.090	-0.490
2020/01/31 11:09:43.8	292.540	-0.160	-0.110	-0.520
2020/01/31 11:09:43.9	292.560	-0.160	-0.140	-0.550
2020/01/31 11:09:44.0	292.570	-0.150	-0.160	-0.570
2020/01/31 11:09:44.1	292.590	-0.150	-0.190	-0.590
2020/01/31 11:09:44.2	292.610	-0.140	-0.220	-0.600
2020/01/31 11:09:44.3	292.630	-0.130	-0.240	-0.620
2020/01/31 11:09:44.4	292.650	-0.120	-0.270	-0.620
2020/01/31 11:09:44.5	292.680	-0.120	-0.290	-0.630
2020/01/31 11:09:44.6	292.700	-0.110	-0.310	-0.620
2020/01/31 11:09:44.7	292.720	-0.100	-0.330	-0.610
2020/01/31 11:09:44.8	292.750	-0.090	-0.350	-0.600
2020/01/31 11:09:44.9	292.770	-0.080	-0.370	-0.580
2020/01/31 11:09:45.0	292.790	-0.070	-0.380	-0.560
2020/01/31 11:09:45.1	292.810	-0.060	-0.400	-0.540
2020/01/31 11:09:45.2	292.840	-0.050	-0.410	-0.510
2020/01/31 11:09:45.3	292.860	-0.040	-0.410	-0.480
2020/01/31 11:09:45.4	292.880	-0.030	-0.420	-0.440
2020/01/31 11:09:45.5	292.900	-0.020	-0.430	-0.400
2020/01/31 11:09:45.6	292.930	-0.010	-0.430	-0.360
2020/01/31 11:09:45.7	292.950	-0.000	-0.430	-0.320
2020/01/31 11:09:45.8	292.970	0.010	-0.430	-0.270
2020/01/31 11:09:45.9	292.990	0.020	-0.430	-0.220
2020/01/31 11:09:46.0	293.010	0.030	-0.420	-0.170
2020/01/31 11:09:46.1	293.030	0.040	-0.420	-0.110
2020/01/31 11:09:46.2	293.050	0.050	-0.410	-0.060
2020/01/31 11:09:46.3	293.070	0.060	-0.400	0.000
2020/01/31 11:09:46.4	293.080	0.070	-0.400	0.060
2020/01/31 11:09:46.5	293.100	0.080	-0.390	0.120
2020/01/31 11:09:46.6	293.120	0.080	-0.380	0.180
2020/01/31 11:09:46.7	293.130	0.090	-0.370	0.240
2020/01/31 11:09:46.8	293.150	0.100	-0.360	0.300
2020/01/31 11:09:46.9	293.160	0.110	-0.360	0.360
2020/01/31 11:09:47.0	293.170	0.120	-0.350	0.420
2020/01/31 11:09:47.1	293.190	0.120	-0.340	0.480
2020/01/31 11:09:47.2	293.200	0.130	-0.340	0.540
2020/01/31 11:09:47.3	293.210	0.130	-0.330	0.590
2020/01/31 11:09:47.4	293.220	0.140	-0.330	0.650
2020/01/31 11:09:47.5	293.220	0.140	-0.320	0.690
2020/01/31 11:09:47.6	293.220	0.150	-0.310	0.740
2020/01/31 11:09:47.7	293.230	0.150	-0.310	0.790
2020/01/31 11:09:47.8	293.230	0.150	-0.300	0.840
2020/01/31 11:09:47.9	293.240	0.150	-0.300	0.880
2020/01/31 11:09:48.0	293.240	0.160	-0.290	0.930
2020/01/31 11:09:48.1	293.230	0.160	-0.280	0.970
2020/01/31 11:09:48.2	293.230	0.160	-0.280	1.010
2020/01/31 11:09:48.3	293.230	0.160	-0.270	1.050
2020/01/31 11:09:48.4	293.220	0.150	-0.260	1.090
2020/01/31 11:09:48.5	293.200	0.150	-0.260	1.120
2020/01/31 11:09:48.6	293.190	0.150	-0.250	1.150
2020/01/31 11:09:48.7	293.170	0.140	-0.240	1.180
2020/01/31 11:09:48.8	293.160	0.140	-0.220	1.210
2020/01/31 11:09:48.9	293.140	0.140	-0.210	1.240
2020/01/31 11:09:49.0	293.120	0.130	-0.200	1.260
2020/01/31 11:09:49.1	293.100	0.120	-0.190	1.280
2020/01/31 11:09:49.2	293.080	0.110	-0.170	1.300
2020/01/31 11:09:49.3	293.060	0.110	-0.160	1.320
2020/01/31 11:09:49.4	293.030	0.100	-0.150	1.330
2020/01/31 11:09:49.5	293.010	0.090	-0.130	1.340
2020/01/31 11:09:49.6	292.980	0.080	-0.110	1.350
2020/01/31 11:09:49.7	292.950	0.070	-0.100	1.350
2020/01/31 11:09:49.8	292.920	0.060	-0.090	1.350
2020/01/31 11:09:49.9	292.890	0.050	-0.080	1.350
2020/01/31 11:09:50.0	292.860	0.040	-0.070	1.350
2020/01/31 11:09:50.1	292.830	0.020	-0.050	1.350
2020/01/31 11:09:50.2	292.800	0.010	-0.050	1.340
2020/01/31 11:09:50.3	292.770	-0.000	-0.040	1.330
2020/01/31 11:09:50.4	292.730	-0.010	-0.030	1.310
2020/01/31 11:09:50.5	292.690	-0.030	-0.030	1.290
2020/01/31 11:09:50.6	292.660	-0.040	-0.030	1.280
2020/01/31 11:09:50.7	292.630	-0.050	-0.030	1.260
2020/01/31 11:09:50.8	292.590	-0.060	-0.030	1.230
2020/01/31 11:09:50.9	292.560	-0.070	-0.030	1.210
2020/01/31 11:09:51.0	292.530	-0.090	-0.030	1.180
2020/01/31 11:09:51.1	292.490	-0.100	-0.040	1.150
2020/01/31 11:09:51.2	292.460	-0.110	-0.040	1.120
2020/01/31 11:09:51.3	292.430	-0.120	-0.050	1.090
2020/01/31 11:09:51.4	292.400	-0.130	-0.060	1.050
2020/01/31 11:09:51.5	292.360	-0.140	-0.070	1.010
2020/01/31 11:09:51.6	292.330	-0.150	-0.080	0.970
2020/01/31 11:09:51.7	292.300	-0.160	-0.100	0.920
2020/01/31 11:09:51.8	292.270	-0.170	-0.110	0.880
2020/01/31 11:09:51.9	292.240	-0.180	-0.130	0.840
2020/01/31 11:09:52.0	292.220	-0.190	-0.150	0.790
2020/01/31 11:09:52.1	292.200	-0.200	-0.170	0.740
2020/01/31 11:09:52.2	292.180	-0.200	-0.190	0.690
2020/01/31 11:09:52.3	292.160	-0.210	-0.210	0.640
2020/01/31 11:09:52.4	292.140	-0.210	-0.230	0.590
2020/01/31 11:09:52.5	292.130	-0.220	-0.260	0.530
2020/01/31 11:09:52.6	292.120	-0.220	-0.280	0.480
2020/01/31 11:09:52.7	292.110	-0.220	-0.300	0.420
2020/01/31 11:09:52.8	292.110	-0.220	-0.330	0.370
2020/01/31 11:09:52.9	292.110	-0.220	-0.350	0.310
2020/01/31 11:09:53.0	292.110	-0.220	-0.370	0.260
2020/01/31 11:09:53.1	292.110	-0.210	-0.400	0.200
2020/01/31 11:09:53.2	292.120	-0.210	-0.420	0.150
2020/01/31 11:09:53.3	292.120	-0.200	-0.440	0.090
2020/01/31 11:09:53.4	292.140	-0.200	-0.470	0.030
2020/01/31 11:09:53.5	292.140	-0.190	-0.490	-0.020
2020/01/31 11:09:53.6	292.150	-0.180	-0.510	-0.080
2020/01/31 11:09:53.7	292.170	-0.180	-0.530	-0.130
2020/01/31 11:09:53.8	292.190	-0.170	-0.540	-0.180
2020/01/31 11:09:53.9	292.210	-0.160	-0.560	-0.240
2020/01/31 11:09:54.0	292.230	-0.150	-0.570	-0.280
2020/01/31 11:09:54.1	292.260	-0.140	-0.580	-0.330
2020/01/31 11:09:54.2	292.280	-0.130	-0.590	-0.380
2020/01/31 11:09:54.3	292.310	-0.120	-0.600	-0.420
2020/01/31 11:09:54.4	292.340	-0.110	-0.600	-0.460
2020/01/31 11:09:54.5	292.380	-0.100	-0.610	-0.500
2020/01/31 11:09:54.6	292.410	-0.090	-0.610	-0.540
2020/01/31 11:09:54.7	292.450	-0.070	-0.600	-0.570
2020/01/31 11:09:54.8	292.480	-0.060	-0.600	-0.600
2020/01/31 11:09:54.9	292.510	-0.050	-0.590	-0.630
2020/01/31 11:09:55.0	292.550	-0.040	-0.580	-0.650
2020/01/31 11:09:55.1	292.580	-0.030	-0.570	-0.670
2020/01/31 11:09:55.2	292.620	-0.020	-0.550	-0.680
2020/01/31 11:09:55.3	292.650	-0.020	-0.530	-0.690
2020/01/31 11:09:55.4	292.690	-0.010	-0.510	-0.690
2020/01/31 11:09:55.5	292.710	0.000	-0.490	-0.690
2020/01/31 11:09:55.6	292.750	0.010	-0.460	-0.690
2020/01/31 11:09:55.7	292.780	0.020	-0.440	-0.680
2020/01/31 11:09:55.8	292.810	0.030	-0.410	-0.660
2020/01/31 11:09:55.9	292.840	0.030	-0.380	-0.640
2020/01/31 11:09:56.0	292.870	0.040	-0.350	-0.620
2020/01/31 11:09:56.1	292.900	0.050	-0.330	-0.590
2020/01/31 11:09:56.2	292.920	0.050	-0.300	-0.560
2020/01/31 11:09:56.3	292.950	0.060	-0.270	-0.520
2020/01/31 11:09:56.4	292.970	0.060	-0.240	-0.480
2020/01/31 11:09:56.5	293.000	0.070	-0.210	-0.430
2020/01/31 11:09:56.6	293.020	0.070	-0.180	-0.380
2020/01/31 11:09:56.7	293.040	0.080	-0.160	-0.330
2020/01/31 11:09:56.8	293.050	0.080	-0.130	-0.270
2020/01/31 11:09:56.9	293.070	0.090	-0.110	-0.220
2020/01/31 11:09:57.0	293.080	0.090	-0.080	-0.150
2020/01/31 11:09:57.1	293.100	0.100	-0.060	-0.090
2020/01/31 11:09:57.2	293.110	0.100	-0.040	-0.020
2020/01/31 11:09:57.3	293.120	0.110	-0.020	0.040
2020/01/31 11:09:57.4	293.120	0.110	-0.010	0.110
2020/01/31 11:09:57.5	293.130	0.120	0.010	0.180
2020/01/31 11:09:57.6	293.140	0.130	0.020	0.250
2020/01/31 11:09:57.7	293.140	0.130	0.030	0.320
2020/01/31 11:09:57.8	293.140	0.140	0.040	0.390
2020/01/31 11:09:57.9	293.140	0.150	0.050	0.460
2020/01/31 11:09:58.0	293.140	0.150	0.050	0.530
2020/01/31 11:09:58.1	293.140	0.160	0.050	0.600
2020/01/31 11:09:58.2	293.130	0.170	0.050	0.670
2020/01/31 11:09:58.3	293.130	0.170	0.050	0.730
2020/01/31 11:09:58.4	293.120	0.180	0.050	0.800
2020/01/31 11:09:58.5	293.110	0.190	0.050	0.860
2020/01/31 11:09:58.6	293.100	0.190	0.040	0.930
2020/01/31 11:09:58.7	293.100	0.200	0.030	0.990
2020/01/31 11:09:58.8	293.090	0.210	0.020	1.040
2020/01/31 11:09:58.9	293.080	0.210	0.010	1.100
2020/01/31 11:09:59.0	293.070	0.220	-0.000	1.150
2020/01/31 11:09:59.1	293.060	0.220	-0.010	1.200
2020/01/31 11:09:59.2	293.060	0.230	-0.020	1.250
2020/01/31 11:09:59.3	293.050	0.230	-0.040	1.290
2020/01/31 11:09:59.4	293.040	0.240	-0.050	1.340
2020/01/31 11:09:59.5	293.020	0.240	-0.060	1.380
2020/01/31 11:09:59.6	293.010	0.240	-0.070	1.410
2020/01/31 11:09:59.7	293.000	0.240	-0.080	1.450
2020/01/31 11:09:59.8	292.990	0.240	-0.090	1.480
2020/01/31 11:09:59.9	292.970	0.230	-0.090	1.510
2020/01/31 11:10:00.0	292.960	0.230	-0.100	1.530
2020/01/31 11:10:00.1	292.940	0.230	-0.110	1.550
2020/01/31 11:10:00.2	292.920	0.220	-0.110	1.570
2020/01/31 11:10:00.3	292.910	0.210	-0.120	1.590
2020/01/31 11:10:00.4	292.890	0.200	-0.120	1.600
2020/01/31 11:10:00.5	292.870	0.190	-0.120	1.600
2020/01/31 11:10:00.6	292.850	0.180	-0.120	1.600
2020/01/31 11:10:00.7	292.830	0.170	-0.120	1.600
2020/01/31 11:10:00.8	292.810	0.160	-0.120	1.600
2020/01/31 11:10:00.9	292.790	0.140	-0.130	1.590
2020/01/31 11:10:01.0	292.770	0.130	-0.130	1.570
2020/01/31 11:10:01.1	292.750	0.110	-0.130	1.550
2020/01/31 11:10:01.2	292.730	0.100	-0.130	1.530
2020/01/31 11:10:01.3	292.710	0.080	-0.140	1.500
2020/01/31 11:10:01.4	292.690	0.060	-0.140	1.470
2020/01/31 11:10:01.5	292.670	0.040	-0.150	1.440
2020/01/31 11:10:01.6	292.650	0.030	-0.160	1.400
2020/01/31 11:10:01.7	292.640	0.010	-0.160	1.350
2020/01/31 11:10:01.8	292.620	-0.010	-0.170	1.300
2020/01/31 11:10:01.9	292.610	-0.020	-0.180	1.250
2020/01/31 11:10:02.0	292.590	-0.040	-0.200	1.200
2020/01/31 11:10:02.1	292.580	-0.050	-0.210	1.140
2020/01/31 11:10:02.2	292.570	-0.070	-0.220	1.080
2020/01/31 11:10:02.3	292.560	-0.080	-0.240	1.010
2020/01/31 11:10:02.4	292.550	-0.100	-0.260	0.940
2020/01/31 11:10:02.5	292.540	-0.110	-0.270	0.870
2020/01/31 11:10:02.6	292.530	-0.120	-0.290	0.800
2020/01/31 11:10:02.7	292.520	-0.130	-0.310	0.730
2020/01/31 11:10:02.8	292.520	-0.140	-0.330	0.660
2020/01/31 11:10:02.9	292.520	-0.150	-0.350	0.580
2020/01/31 11:10:03.0	292.510	-0.160	-0.370	0.510
2020/01/31 11:10:03.1	292.510	-0.160	-0.400	0.440
2020/01/31 11:10:03.2	292.510	-0.170	-0.420	0.370
2020/01/31 11:10:03.3	292.510	-0.170	-0.440	0.300
2020/01/31 11:10:03.4	292.510	-0.170	-0.460	0.220
2020/01/31 11:10:03.5	292.500	-0.170	-0.480	0.160
2020/01/31 11:10:03.6	292.510	-0.180	-0.500	0.090
2020/01/31 11:10:03.7	292.510	-0.180	-0.520	0.020
2020/01/31 11:10:03.8	292.510	-0.180	-0.540	-0.040
2020/01/31 11:10:03.9	292.520	-0.170	-0.550	-0.100
2020/01/31 11:10:04.0	292.520	-0.170	-0.570	-0.160
2020/01/31 11:10:04.1	292.530	-0.170	-0.580	-0.210
2020/01/31 11:10:04.2	292.540	-0.170	-0.600	-0.270
2020/01/31 11:10:04.3	292.550	-0.160	-0.610	-0.310
2020/01/31 11:10:04.4	292.550	-0.160	-0.620	-0.360
2020/01/31 11:10:04.5	292.570	-0.150	-0.630	-0.400
2020/01/31 11:10:04.6	292.570	-0.150	-0.630	-0.430
2020/01/31 11:10:04.7	292.580	-0.140	-0.640	-0.460
2020/01/31 11:10:04.8	292.590	-0.140	-0.640	-0.490
2020/01/31 11:10:04.9	292.600	-0.130	-0.640	-0.510
2020/01/31 11:10:05.0	292.610	-0.130	-0.630	-0.520
2020/01/31 11:10:05.1	292.620	-0.130	-0.630	-0.530
2020/01/31 11:10:05.2	292.620	-0.120	-0.620	-0.540
2020/01/31 11:10:05.3	292.630	-0.120	-0.610	-0.540
2020/01/31 11:10:05.4	292.640	-0.120	-0.600	-0.540
2020/01/31 11:10:05.5	292.660	-0.110	-0.580	-0.520
2020/01/31 11:10:05.6	292.660	-0.110	-0.570	-0.510
2020/01/31 11:10:05.7	292.670	-0.110	-0.550	-0.500
2020/01/31 11:10:05.8	292.680	-0.110	-0.530	-0.480
2020/01/31 11:10:05.9	292.690	-0.110	-0.510	-0.460
2020/01/31 11:10:06.0	292.690	-0.110	-0.490	-0.430
2020/01/31 11:10:06.1	292.700	-0.120	-0.460	-0.410
2020/01/31 11:10:06.2	292.710	-0.120	-0.440	-0.380
2020/01/31 11:10:06.3	292.720	-0.120	-0.420	-0.350
2020/01/31 11:10:06.4	292.730	-0.130	-0.390	-0.320
2020/01/31 11:10:06.5	292.750	-0.130	-0.360	-0.290
2020/01/31 11:10:06.6	292.760	-0.130	-0.340	-0.260
2020/01/31 11:10:06.7	292.770	-0.140	-0.310	-0.220
2020/01/31 11:10:06.8	292.780	-0.140	-0.290	-0.180
2020/01/31 11:10:06.9	292.790	-0.150	-0.270	-0.150
2020/01/31 11:10:07.0	292.800	-0.150	-0.240	-0.110
2020/01/31 11:10:07.1	292.810	-0.160	-0.220	-0.070
2020/01/31 11:10:07.2	292.820	-0.160	-0.200	-0.030
2020/01/31 11:10:07.3	292.840	-0.160	-0.180	0.010
2020/01/31 11:10:07.4	292.850	-0.170	-0.160	0.050
2020/01/31 11:10:07.5	292.860	-0.170	-0.140	0.090
2020/01/31 11:10:07.6	292.870	-0.170	-0.130	0.130
2020/01/31 11:10:07.7	292.890	-0.170	-0.110	0.170
2020/01/31 11:10:07.8	292.900	-0.170	-0.100	0.210
2020/01/31 11:10:07.9	292.920	-0.170	-0.090	0.250
2020/01/31 11:10:08.0	292.930	-0.160	-0.080	0.290
2020/01/31 11:10:08.1	292.950	-0.160	-0.070	0.320
2020/01/31 11:10:08.2	292.970	-0.160	-0.070	0.360
2020/01/31 11:10:08.3	292.990	-0.150	-0.060	0.390
2020/01/31 11:10:08.4	293.000	-0.140	-0.060	0.430
2020/01/31 11:10:08.5	293.020	-0.130	-0.060	0.460
2020/01/31 11:10:08.6	293.040	-0.120	-0.060	0.490
2020/01/31 11:10:08.7	293.060	-0.110	-0.060	0.520
2020/01/31 11:10:08.8	293.080	-0.090	-0.070	0.550
2020/01/31 11:10:08.9	293.100	-0.080	-0.070	0.580
2020/01/31 11:10:09.0	293.120	-0.060	-0.080	0.610
2020/01/31 11:10:09.1	293.140	-0.050	-0.090	0.640
2020/01/31 11:10:09.2	293.160	-0.030	-0.090	0.670
2020/01/31 11:10:09.3	293.180	-0.010	-0.100	0.700
2020/01/31 11:10:09.4	293.200	0.010	-0.110	0.730
2020/01/31 11:10:09.5	293.220	0.030	-0.120	0.760
2020/01/31 11:10:09.6	293.240	0.050	-0.120	0.790
2020/01/31 11:10:09.7	293.250	0.060	-0.130	0.820
2020/01/31 11:10:09.8	293.270	0.080	-0.140	0.840
2020/01/31 11:10:09.9	293.280	0.100	-0.140	0.870
2020/01/31 11:10:10.0	293.300	0.120	-0.140	0.900
2020/01/31 11:10:10.1	293.310	0.140	-0.150	0.920
2020/01/31 11:10:10.2	293.320	0.160	-0.150	0.950
2020/01/31 11:10:10.3	293.330	0.170	-0.150	0.970
2020/01/31 11:10:10.4	293.340	0.190	-0.150	0.990
2020/01/31 11:10:10.5	293.340	0.200	-0.140	1.010
2020/01/31 11:10:10.6	293.350	0.210	-0.140	1.030
2020/01/31 11:10:10.7	293.360	0.230	-0.140	1.050
2020/01/31 11:10:10.8	293.360	0.240	-0.130	1.060
2020/01/31 11:10:10.9	293.370	0.240	-0.120	1.070
2020/01/31 11:10:11.0	293.370	0.250	-0.120	1.080
2020/01/31 11:10:11.1	293.370	0.260	-0.110	1.090
2020/01/31 11:10:11.2	293.370	0.260	-0.100	1.090
2020/01/31 11:10:11.3	293.370	0.260	-0.090	1.100
2020/01/31 11:10:11.4	293.360	0.260	-0.080	1.100
2020/01/31 11:10:11.5	293.360	0.260	-0.070	1.100
2020/01/31 11:10:11.6	293.350	0.260	-0.070	1.090
2020/01/31 11:10:11.7	293.350	0.260	-0.060	1.080
2020/01/31 11:10:11.8	293.340	0.250	-0.050	1.070
2020/01/31 11:10:11.9	293.330	0.240	-0.040	1.060
2020/01/31 11:10:12.0	293.310	0.240	-0.030	1.050
2020/01/31 11:10:12.1	293.300	0.230	-0.020	1.030
2020/01/31 11:10:12.2	293.290	0.220	-0.020	1.020
2020/01/31 11:10:12.3	293.270	0.200	-0.010	1.000
2020/01/31 11:10:12.4	293.250	0.190	-0.000	0.970
2020/01/31 11:10:12.5	293.240	0.180	-0.000	0.940
2020/01/31 11:10:12.6	293.220	0.160	0.000	0.920
2020/01/31 11:10:12.7	293.200	0.150	0.010	0.890
2020/01/31 11:10:12.8	293.180	0.130	0.010	0.860
2020/01/31 11:10:12.9	293.160	0.120	0.010	0.830
2020/01/31 11:10:13.0	293.130	0.100	0.020	0.800
2020/01/31 11:10:13.1	293.110	0.080	0.020	0.770
2020/01/31 11:10:13.2	293.090	0.070	0.020	0.730
2020/01/31 11:10:13.3	293.070	0.050	0.020	0.700
2020/01/31 11:10:13.4	293.050	0.030	0.010	0.660
2020/01/31 11:10:13.5	293.030	0.020	0.010	0.620
2020/01/31 11:10:13.6	293.010	0.000	0.010	0.580
2020/01/31 11:10:13.7	292.990	-0.010	0.000	0.540
2020/01/31 11:10:13.8	292.970	-0.020	-0.010	0.500
2020/01/31 11:10:13.9	292.950	-0.040	-0.020	0.460
2020/01/31 11:10:14.0	292.930	-0.050	-0.030	0.420
2020/01/31 11:10:14.1	292.910	-0.060	-0.040	0.390
2020/01/31 11:10:14.2	292.890	-0.070	-0.050	0.350
2020/01/31 11:10:14.3	292.870	-0.080	-0.070	0.310
2020/01/31 11:10:14.4	292.860	-0.090	-0.080	0.280
2020/01/31 11:10:14.5	292.830	-0.100	-0.100	0.240
2020/01/31 11:10:14.6	292.820	-0.100	-0.120	0.210
2020/01/31 11:10:14.7	292.800	-0.110	-0.140	0.180
2020/01/31 11:10:14.8	292.790	-0.110	-0.160	0.150
2020/01/31 11:10:14.9	292.780	-0.110	-0.180	0.130
2020/01/31 11:10:15.0	292.760	-0.110	-0.200	0.110
2020/01/31 11:10:15.1	292.750	-0.110	-0.230	0.090
2020/01/31 11:10:15.2	292.740	-0.110	-0.250	0.070
2020/01/31 11:10:15.3	292.730	-0.110	-0.270	0.050
2020/01/31 11:10:15.4	292.730	-0.100	-0.300	0.040
2020/01/31 11:10:15.5	292.730	-0.100	-0.320	0.030
2020/01/31 11:10:15.6	292.720	-0.090	-0.350	0.020
2020/01/31 11:10:15.7	292.720	-0.080	-0.370	0.020
2020/01/31 11:10:15.8	292.720	-0.080	-0.390	0.010
2020/01/31 11:10:15.9	292.710	-0.070	-0.420	0.010
2020/01/31 11:10:16.0	292.710	-0.060	-0.440	0.010
2020/01/31 11:10:16.1	292.710	-0.050	-0.460	0.020
2020/01/31 11:10:16.2	292.710	-0.040	-0.480	0.020
2020/01/31 11:10:16.3	292.720	-0.030	-0.500	0.030
2020/01/31 11:10:16.4	292.720	-0.020	-0.520	0.040
2020/01/31 11:10:16.5	292.720	-0.010	-0.540	0.050
2020/01/31 11:10:16.6	292.730	-0.000	-0.560	0.060
2020/01/31 11:10:16.7	292.730	0.010	-0.580	0.070
2020/01/31 11:10:16.8	292.740	0.020	-0.590	0.090
2020/01/31 11:10:16.9	292.750	0.030	-0.610	0.100
2020/01/31 11:10:17.0	292.760	0.040	-0.620	0.120
2020/01/31 11:10:17.1	292.770	0.050	-0.630	0.130
2020/01/31 11:10:17.2	292.780	0.060	-0.640	0.150
2020/01/31 11:10:17.3	292.790	0.070	-0.650	0.170
2020/01/31 11:10:17.4	292.810	0.080	-0.660	0.180
2020/01/31 11:10:17.5	292.800	0.090	-0.660	0.200
2020/01/31 11:10:17.6	292.820	0.090	-0.660	0.220
2020/01/31 11:10:17.7	292.830	0.100	-0.670	0.240
2020/01/31 11:10:17.8	292.850	0.110	-0.670	0.250
2020/01/31 11:10:17.9	292.870	0.110	-0.670	0.270
2020/01/31 11:10:18.0	292.890	0.120	-0.670	0.290
2020/01/31 11:10:18.1	292.910	0.120	-0.670	0.310
2020/01/31 11:10:18.2	292.930	0.130	-0.660	0.320
2020/01/31 11:10:18.3	292.950	0.130	-0.660	0.340
2020/01/31 11:10:18.4	292.970	0.130	-0.650	0.360
2020/01/31 11:10:18.5	292.990	0.130	-0.640	0.370
2020/01/31 11:10:18.6	293.010	0.130	-0.630	0.390
2020/01/31 11:10:18.7	293.030	0.130	-0.630	0.400
2020/01/31 11:10:18.8	293.060	0.130	-0.610	0.420
2020/01/31 11:10:18.9	293.080	0.120	-0.600	0.430
2020/01/31 11:10:19.0	293.100	0.120	-0.590	0.440
2020/01/31 11:10:19.1	293.130	0.110	-0.580	0.460
2020/01/31 11:10:19.2	293.150	0.100	-0.560	0.470
2020/01/31 11:10:19.3	293.180	0.100	-0.550	0.470
2020/01/31 11:10:19.4	293.200	0.090	-0.530	0.480
2020/01/31 11:10:19.5	293.230	0.080	-0.520	0.480
2020/01/31 11:10:19.6	293.250	0.060	-0.500	0.490
2020/01/31 11:10:19.7	293.280	0.050	-0.480	0.490
2020/01/31 11:10:19.8	293.310	0.040	-0.470	0.490
2020/01/31 11:10:19.9	293.330	0.030	-0.450	0.480
2020/01/31 11:10:20.0	293.360	0.010	-0.440	0.480
2020/01/31 11:10:20.1	293.390	-0.000	-0.420	0.470
2020/01/31 11:10:20.2	293.420	-0.020	-0.400	0.460
2020/01/31 11:10:20.3	293.450	-0.030	-0.390	0.450
2020/01/31 11:10:20.4	293.480	-0.050	-0.370	0.440
2020/01/31 11:10:20.5	293.510	-0.060	-0.360	0.430
2020/01/31 11:10:20.6	293.540	-0.080	-0.340	0.410
2020/01/31 11:10:20.7	293.570	-0.090	-0.320	0.390
2020/01/31 11:10:20.8	293.590	-0.110	-0.310	0.380
2020/01/31 11:10:20.9	293.620	-0.120	-0.300	0.360
2020/01/31 11:10:21.0	293.640	-0.140	-0.280	0.350
2020/01/31 11:10:21.1	293.670	-0.150	-0.260	0.330
2020/01/31 11:10:21.2	293.690	-0.160	-0.250	0.310
2020/01/31 11:10:21.3	293.700	-0.170	-0.230	0.300
2020/01/31 11:10:21.4	293.720	-0.190	-0.220	0.280
2020/01/31 11:10:21.5	293.750	-0.200	-0.200	0.270
2020/01/31 11:10:21.6	293.760	-0.210	-0.180	0.260
2020/01/31 11:10:21.7	293.770	-0.210	-0.170	0.250
2020/01/31 11:10:21.8	293.770	-0.220	-0.150	0.240
2020/01/31 11:10:21.9	293.780	-0.230	-0.130	0.230
2020/01/31 11:10:22.0	293.780	-0.230	-0.120	0.220
2020/01/31 11:10:22.1	293.780	-0.240	-0.100	0.220
2020/01/31 11:10:22.2	293.770	-0.240	-0.080	0.210
2020/01/31 11:10:22.3	293.770	-0.240	-0.070	0.210
2020/01/31 11:10:22.4	293.760	-0.250	-0.050	0.210
2020/01/31 11:10:22.5	293.740	-0.250	-0.040	0.210
2020/01/31 11:10:22.6	293.730	-0.250	-0.020	0.210
2020/01/31 11:10:22.7	293.710	-0.240	-0.010	0.210
2020/01/31 11:10:22.8	293.700	-0.240	0.000	0.220
2020/01/31 11:10:22.9	293.680	-0.240	0.010	0.220
2020/01/31 11:10:23.0	293.650	-0.230	0.020	0.230
2020/01/31 11:10:23.1	293.630	-0.230	0.030	0.240
2020/01/31 11:10:23.2	293.610	-0.220	0.040	0.250
2020/01/31 11:10:23.3	293.580	-0.220	0.050	0.260
2020/01/31 11:10:23.4	293.550	-0.210	0.060	0.270
2020/01/31 11:10:23.5	293.510	-0.200	0.060	0.280
2020/01/31 11:10:23.6	293.480	-0.190	0.070	0.290
2020/01/31 11:10:23.7	293.450	-0.190	0.070	0.310
2020/01/31 11:10:23.8	293.410	-0.180	0.080	0.320
2020/01/31 11:10:23.9	293.380	-0.170	0.080	0.340
2020/01/31 11:10:24.0	293.340	-0.160	0.080	0.350
2020/01/31 11:10:24.1	293.310	-0.150	0.080	0.370
2020/01/31 11:10:24.2	293.270	-0.140	0.080	0.380
2020/01/31 11:10:24.3	293.230	-0.130	0.080	0.400
2020/01/31 11:10:24.4	293.200	-0.120	0.090	0.410
2020/01/31 11:10:24.5	293.160	-0.110	0.090	0.420
2020/01/31 11:10:24.6	293.130	-0.100	0.090	0.440
2020/01/31 11:10:24.7	293.090	-0.090	0.090	0.450
2020/01/31 11:10:24.8	293.060	-0.090	0.090	0.460
2020/01/31 11:10:24.9	293.020	-0.080	0.100	0.470
2020/01/31 11:10:25.0	292.990	-0.070	0.100	0.480
2020/01/31 11:10:25.1	292.960	-0.060	0.100	0.490
2020/01/31 11:10:25.2	292.930	-0.050	0.100	0.500
2020/01/31 11:10:25.3	292.900	-0.050	0.100	0.510
2020/01/31 11:10:25.4	292.880	-0.040	0.110	0.510
2020/01/31 11:10:25.5	292.850	-0.030	0.110	0.520
2020/01/31 11:10:25.6	292.830	-0.030	0.110	0.520
2020/01/31 11:10:25.7	292.810	-0.020	0.120	0.530
2020/01/31 11:10:25.8	292.790	-0.010	0.120	0.530
2020/01/31 11:10:25.9	292.770	-0.010	0.130	0.530
2020/01/31 11:10:26.0	292.760	-0.000	0.130	0.530
2020/01/31 11:10:26.1	292.740	0.000	0.130	0.540
2020/01/31 11:10:26.2	292.730	0.010	0.140	0.540
2020/01/31 11:10:26.3	292.720	0.010	0.140	0.540
2020/01/31 11:10:26.4	292.720	0.020	0.150	0.540
2020/01/31 11:10:26.5	292.700	0.030	0.150	0.540
2020/01/31 11:10:26.6	292.690	0.030	0.150	0.540
2020/01/31 11:10:26.7	292.690	0.040	0.150	0.530
2020/01/31 11:10:26.8	292.690	0.050	0.160	0.530
2020/01/31 11:10:26.9	292.690	0.050	0.150	0.530
2020/01/31 11:10:27.0	292.700	0.060	0.150	0.530
2020/01/31 11:10:27.1	292.700	0.070	0.150	0.530
2020/01/31 11:10:27.2	292.710	0.080	0.150	0.530
2020/01/31 11:10:27.3	292.720	0.090	0.140	0.530
2020/01/31 11:10:27.4	292.730	0.100	0.130	0.520
2020/01/31 11:10:27.5	292.740	0.110	0.120	0.520
2020/01/31 11:10:27.6	292.750	0.130	0.110	0.520
2020/01/31 11:10:27.7	292.770	0.140	0.090	0.520
2020/01/31 11:10:27.8	292.780	0.150	0.080	0.510
2020/01/31 11:10:27.9	292.800	0.170	0.050	0.510
2020/01/31 11:10:28.0	292.810	0.180	0.030	0.500
2020/01/31 11:10:28.1	292.830	0.200	0.010	0.500
2020/01/31 11:10:28.2	292.850	0.210	-0.020	0.500
2020/01/31 11:10:28.3	292.870	0.230	-0.060	0.490
2020/01/31 11:10:28.4	292.890	0.240	-0.090	0.490
2020/01/31 11:10:28.5	292.900	0.260	-0.130	0.480
2020/01/31 11:10:28.6	292.920	0.270	-0.170	0.470
2020/01/31 11:10:28.7	292.940	0.290	-0.210	0.460
2020/01/31 11:10:28.8	292.960	0.300	-0.250	0.460
2020/01/31 11:10:28.9	292.980	0.320	-0.300	0.450
2020/01/31 11:10:29.0	293.000	0.330	-0.350	0.440
2020/01/31 11:10:29.1	293.020	0.350	-0.390	0.440
2020/01/31 11:10:29.2	293.040	0.360	-0.440	0.430
2020/01/31 11:10:29.3	293.060	0.370	-0.500	0.430
2020/01/31 11:10:29.4	293.080	0.380	-0.550	0.420
2020/01/31 11:10:29.5	293.110	0.390	-0.600	0.420
2020/01/31 11:10:29.6	293.130	0.400	-0.650	0.420
2020/01/31 11:10:29.7	293.150	0.410	-0.700	0.410
2020/01/31 11:10:29.8	293.160	0.420	-0.750	0.410
2020/01/31 11:10:29.9	293.180	0.420	-0.790	0.410
2020/01/31 11:10:30.0	293.200	0.430	-0.840	0.410
2020/01/31 11:10:30.1	293.210	0.430	-0.890	0.410
2020/01/31 11:10:30.2	293.230	0.430	-0.930	0.420
2020/01/31 11:10:30.3	293.240	0.430	-0.970	0.420
2020/01/31 11:10:30.4	293.250	0.430	-1.000	0.430
2020/01/31 11:10:30.5	293.250	0.420	-1.030	0.430
2020/01/31 11:10:30.6	293.260	0.420	-1.060	0.430
2020/01/31 11:10:30.7	293.270	0.410	-1.090	0.440
2020/01/31 11:10:30.8	293.270	0.400	-1.110	0.450
2020/01/31 11:10:30.9	293.280	0.390	-1.130	0.460
2020/01/31 11:10:31.0	293.280	0.380	-1.140	0.470
2020/01/31 11:10:31.1	293.290	0.360	-1.150	0.490
2020/01/31 11:10:31.2	293.290	0.350	-1.160	0.500
2020/01/31 11:10:31.3	293.290	0.330	-1.160	0.510
2020/01/31 11:10:31.4	293.290	0.310	-1.160	0.520
2020/01/31 11:10:31.5	293.300	0.290	-1.150	0.540
2020/01/31 11:10:31.6	293.300	0.260	-1.140	0.550
2020/01/31 11:10:31.7	293.300	0.240	-1.130	0.560
2020/01/31 11:10:31.8	293.300	0.210	-1.110	0.570
2020/01/31 11:10:31.9	293.290	0.190	-1.090	0.580
2020/01/31 11:10:32.0	293.290	0.160	-1.060	0.590
2020/01/31 11:10:32.1	293.290	0.130	-1.040	0.600
2020/01/31 11:10:32.2	293.290	0.100	-1.010	0.610
2020/01/31 11:10:32.3	293.280	0.070	-0.970	0.620
2020/01/31 11:10:32.4	293.280	0.040	-0.940	0.620
2020/01/31 11:10:32.5	293.290	0.010	-0.890	0.630
2020/01/31 11:10:32.6	293.280	-0.030	-0.850	0.630
2020/01/31 11:10:32.7	293.280	-0.060	-0.810	0.640
2020/01/31 11:10:32.8	293.270	-0.090	-0.760	0.640
2020/01/31 11:10:32.9	293.270	-0.120	-0.720	0.640
2020/01/31 11:10:33.0	293.260	-0.150	-0.670	0.640
2020/01/31 11:10:33.1	293.250	-0.180	-0.620	0.640
2020/01/31 11:10:33.2	293.250	-0.210	-0.570	0.640
2020/01/31 11:10:33.3	293.240	-0.240	-0.520	0.650
2020/01/31 11:10:33.4	293.230	-0.270	-0.470	0.640
2020/01/31 11:10:33.5	293.210	-0.290	-0.410	0.640
2020/01/31 11:10:33.6	293.200	-0.320	-0.360	0.640
2020/01/31 11:10:33.7	293.190	-0.340	-0.310	0.640
2020/01/31 11:10:33.8	293.180	-0.360	-0.260	0.630
2020/01/31 11:10:33.9	293.170	-0.380	-0.210	0.630
2020/01/31 11:10:34.0	293.160	-0.400	-0.170	0.620
2020/01/31 11:10:34.1	293.150	-0.420	-0.120	0.620
2020/01/31 11:10:34.2	293.140	-0.430	-0.080	0.610
2020/01/31 11:10:34.3	293.130	-0.440	-0.030	0.610
2020/01/31 11:10:34.4	293.120	-0.460	0.010	0.600
2020/01/31 11:10:34.5	293.120	-0.460	0.050	0.590
2020/01/31 11:10:34.6	293.110	-0.470	0.080	0.590
2020/01/31 11:10:34.7	293.110	-0.480	0.120	0.580
2020/01/31 11:10:34.8	293.100	-0.480	0.150	0.570
2020/01/31 11:10:34.9	293.090	-0.480	0.180	0.560
2020/01/31 11:10:35.0	293.090	-0.480	0.200	0.550
2020/01/31 11:10:35.1	293.080	-0.480	0.230	0.540
2020/01/31 11:10:35.2	293.080	-0.480	0.250	0.540
2020/01/31 11:10:35.3	293.070	-0.470	0.270	0.530
2020/01/31 11:10:35.4	293.070	-0.460	0.290	0.520
2020/01/31 11:10:35.5	293.060	-0.460	0.300	0.510
2020/01/31 11:10:35.6	293.060	-0.450	0.310	0.500
2020/01/31 11:10:35.7	293.060	-0.440	0.330	0.480
2020/01/31 11:10:35.8	293.060	-0.420	0.340	0.480
2020/01/31 11:10:35.9	293.060	-0.410	0.350	0.460
2020/01/31 11:10:36.0	293.060	-0.400	0.350	0.460
2020/01/31 11:10:36.1	293.060	-0.380	0.360	0.450
2020/01/31 11:10:36.2	293.060	-0.370	0.360	0.440
2020/01/31 11:10:36.3	293.070	-0.350	0.370	0.430
2020/01/31 11:10:36.4	293.070	-0.340	0.370	0.420
2020/01/31 11:10:36.5	293.090	-0.320	0.380	0.410
2020/01/31 11:10:36.6	293.090	-0.300	0.380	0.400
2020/01/31 11:10:36.7	293.100	-0.290	0.380	0.390
2020/01/31 11:10:36.8	293.100	-0.270	0.380	0.390
2020/01/31 11:10:36.9	293.100	-0.250	0.390	0.380
2020/01/31 11:10:37.0	293.110	-0.230	0.390	0.370
2020/01/31 11:10:37.1	293.110	-0.220	0.390	0.370
2020/01/31 11:10:37.2	293.110	-0.200	0.390	0.370
2020/01/31 11:10:37.3	293.110	-0.180	0.390	0.360
2020/01/31 11:10:37.4	293.110	-0.160	0.400	0.360
2020/01/31 11:10:37.5	293.110	-0.150	0.390	0.360
2020/01/31 11:10:37.6	293.110	-0.130	0.390	0.370
2020/01/31 11:10:37.7	293.110	-0.120	0.400	0.370
2020/01/31 11:10:37.8	293.110	-0.100	0.400	0.370
2020/01/31 11:10:37.9	293.100	-0.090	0.400	0.380
2020/01/31 11:10:38.0	293.100	-0.080	0.400	0.390
2020/01/31 11:10:38.1	293.090	-0.060	0.400	0.400
2020/01/31 11:10:38.2	293.090	-0.050	0.400	0.410
2020/01/31 11:10:38.3	293.080	-0.040	0.390	0.420
2020/01/31 11:10:38.4	293.080	-0.030	0.390	0.430
2020/01/31 11:10:38.5	293.070	-0.020	0.380	0.440
2020/01/31 11:10:38.6	293.060	-0.010	0.380	0.460
2020/01/31 11:10:38.7	293.050	0.000	0.360	0.470
2020/01/31 11:10:38.8	293.050	0.010	0.350	0.490
2020/01/31 11:10:38.9	293.040	0.020	0.340	0.500
2020/01/31 11:10:39.0	293.040	0.030	0.320	0.520
2020/01/31 11:10:39.1	293.040	0.040	0.300	0.530
2020/01/31 11:10:39.2	293.030	0.050	0.270	0.540
2020/01/31 11:10:39.3	293.030	0.060	0.240	0.560
2020/01/31 11:10:39.4	293.030	0.070	0.210	0.570
2020/01/31 11:10:39.5	293.020	0.080	0.180	0.580
2020/01/31 11:10:39.6	293.020	0.090	0.140	0.590
2020/01/31 11:10:39.7	293.020	0.100	0.100	0.600
2020/01/31 11:10:39.8	293.020	0.110	0.060	0.610
2020/01/31 11:10:39.9	293.020	0.120	0.020	0.620
2020/01/31 11:10:40.0	293.020	0.130	-0.030	0.630
2020/01/31 11:10:40.1	293.020	0.140	-0.080	0.640
2020/01/31 11:10:40.2	293.030	0.160	-0.130	0.640
2020/01/31 11:10:40.3	293.030	0.170	-0.180	0.650
2020/01/31 11:10:40.4	293.030	0.190	-0.240	0.660
2020/01/31 11:10:40.5	293.040	0.200	-0.300	0.650
2020/01/31 11:10:40.6	293.040	0.220	-0.350	0.660
2020/01/31 11:10:40.7	293.040	0.230	-0.410	0.660
2020/01/31 11:10:40.8	293.050	0.250	-0.470	0.660
2020/01/31 11:10:40.9	293.060	0.270	-0.530	0.660
2020/01/31 11:10:41.0	293.060	0.280	-0.580	0.660
2020/01/31 11:10:41.1	293.070	0.300	-0.640	0.660
2020/01/31 11:10:41.2	293.080	0.320	-0.700	0.660
2020/01/31 11:10:41.3	293.090	0.330	-0.750	0.650
2020/01/31 11:10:41.4	293.100	0.350	-0.800	0.650
2020/01/31 11:10:41.5	293.120	0.360	-0.850	0.650
2020/01/31 11:10:41.6	293.130	0.380	-0.900	0.640
2020/01/31 11:10:41.7	293.150	0.390	-0.950	0.630
2020/01/31 11:10:41.8	293.160	0.400	-1.000	0.620
2020/01/31 11:10:41.9	293.170	0.420	-1.040	0.610
2020/01/31 11:10:42.0	293.190	0.420	-1.080	0.590
2020/01/31 11:10:42.1	293.210	0.430	-1.110	0.580
2020/01/31 11:10:42.2	293.220	0.440	-1.140	0.560
2020/01/31 11:10:42.3	293.240	0.440	-1.170	0.550
2020/01/31 11:10:42.4	293.250	0.440	-1.190	0.530
2020/01/31 11:10:42.5	293.260	0.440	-1.210	0.510
2020/01/31 11:10:42.6	293.270	0.440	-1.220	0.490
2020/01/31 11:10:42.7	293.290	0.440	-1.230	0.470
2020/01/31 11:10:42.8	293.310	0.430	-1.240	0.450
2020/01/31 11:10:42.9	293.320	0.430	-1.230	0.430
2020/01/31 11:10:43.0	293.330	0.410	-1.230	0.420
2020/01/31 11:10:43.1	293.350	0.400	-1.220	0.400
2020/01/31 11:10:43.2	293.360	0.390	-1.200	0.380
2020/01/31 11:10:43.3	293.370	0.370	-1.180	0.370
2020/01/31 11:10:43.4	293.380	0.350	-1.160	0.350
2020/01/31 11:10:43.5	293.380	0.330	-1.130	0.340
2020/01/31 11:10:43.6	293.390	0.310	-1.090	0.330
2020/01/31 11:10:43.7	293.390	0.290	-1.060	0.320
2020/01/31 11:10:43.8	293.400	0.260	-1.020	0.310
2020/01/31 11:10:43.9	293.400	0.230	-0.970	0.300
2020/01/31 11:10:44.0	293.400	0.210	-0.930	0.290
2020/01/31 11:10:44.1	293.400	0.180	-0.880	0.280
2020/01/31 11:10:44.2	293.400	0.150	-0.830	0.280
2020/01/31 11:10:44.3	293.400	0.120	-0.780	0.270
2020/01/31 11:10:44.4	293.400	0.090	-0.730	0.270
2020/01/31 11:10:44.5	293.400	0.060	-0.670	0.260
2020/01/31 11:10:44.6	293.400	0.030	-0.620	0.260
2020/01/31 11:10:44.7	293.390	-0.000	-0.570	0.250
2020/01/31 11:10:44.8	293.390	-0.030	-0.510	0.250
2020/01/31 11:10:44.9	293.390	-0.060	-0.460	0.250
2020/01/31 11:10:45.0	293.390	-0.080	-0.400	0.250
2020/01/31 11:10:45.1	293.390	-0.110	-0.350	0.250
2020/01/31 11:10:45.2	293.380	-0.140	-0.300	0.250
2020/01/31 11:10:45.3	293.380	-0.160	-0.240	0.250
2020/01/31 11:10:45.4	293.380	-0.180	-0.190	0.250
2020/01/31 11:10:45.5	293.360	-0.200	-0.140	0.250
2020/01/31 11:10:45.6	293.360	-0.220	-0.100	0.250
2020/01/31 11:10:45.7	293.360	-0.240	-0.050	0.260
2020/01/31 11:10:45.8	293.350	-0.260	-0.000	0.270
2020/01/31 11:10:45.9	293.350	-0.270	0.040	0.280
2020/01/31 11:10:46.0	293.340	-0.290	0.080	0.290
2020/01/31 11:10:46.1	293.330	-0.300	0.120	0.300
2020/01/31 11:10:46.2	293.330	-0.310	0.160	0.320
2020/01/31 11:10:46.3	293.320	-0.320	0.200	0.330
2020/01/31 11:10:46.4	293.310	-0.320	0.240	0.350
2020/01/31 11:10:46.5	293.310	-0.330	0.270	0.370
2020/01/31 11:10:46.6	293.300	-0.330	0.300	0.390
2020/01/31 11:10:46.7	293.290	-0.330	0.330	0.420
2020/01/31 11:10:46.8	293.280	-0.340	0.360	0.440
2020/01/31 11:10:46.9	293.270	-0.340	0.380	0.460
2020/01/31 11:10:47.0	293.260	-0.340	0.400	0.490
2020/01/31 11:10:47.1	293.250	-0.330	0.420	0.510
2020/01/31 11:10:47.2	293.240	-0.330	0.440	0.540
2020/01/31 11:10:47.3	293.230	-0.330	0.450	0.560
2020/01/31 11:10:47.4	293.210	-0.330	0.470	0.590
2020/01/31 11:10:47.5	293.190	-0.320	0.470	0.610
2020/01/31 11:10:47.6	293.180	-0.320	0.480	0.630
2020/01/31 11:10:47.7	293.170	-0.310	0.490	0.650
2020/01/31 11:10:47.8	293.160	-0.310	0.490	0.670
2020/01/31 11:10:47.9	293.150	-0.300	0.490	0.690
2020/01/31 11:10:48.0	293.140	-0.290	0.490	0.710
2020/01/31 11:10:48.1	293.130	-0.290	0.480	0.730
2020/01/31 11:10:48.2	293.110	-0.280	0.480	0.750
2020/01/31 11:10:48.3	293.100	-0.280	0.470	0.760
2020/01/31 11:10:48.4	293.090	-0.270	0.460	0.770
2020/01/31 11:10:48.5	293.100	-0.260	0.440	0.780
2020/01/31 11:10:48.6	293.090	-0.260	0.430	0.790
2020/01/31 11:10:48.7	293.080	-0.250	0.410	0.790
2020/01/31 11:10:48.8	293.070	-0.240	0.390	0.800
2020/01/31 11:10:48.9	293.070	-0.240	0.370	0.800
2020/01/31 11:10:49.0	293.060	-0.230	0.350	0.800
2020/01/31 11:10:49.1	293.060	-0.220	0.320	0.790
2020/01/31 11:10:49.2	293.060	-0.210	0.300	0.780
2020/01/31 11:10:49.3	293.050	-0.210	0.270	0.780
2020/01/31 11:10:49.4	293.050	-0.200	0.240	0.760
2020/01/31 11:10:49.5	293.040	-0.190	0.210	0.750
2020/01/31 11:10:49.6	293.050	-0.180	0.180	0.740
2020/01/31 11:10:49.7	293.050	-0.170	0.140	0.720
2020/01/31 11:10:49.8	293.050	-0.160	0.110	0.700
2020/01/31 11:10:49.9	293.050	-0.150	0.080	0.680
2020/01/31 11:10:50.0	293.050	-0.140	0.040	0.660
2020/01/31 11:10:50.1	293.060	-0.130	0.000	0.640
2020/01/31 11:10:50.2	293.060	-0.110	-0.030	0.610
2020/01/31 11:10:50.3	293.070	-0.100	-0.070	0.590
2020/01/31 11:10:50.4	293.080	-0.080	-0.110	0.570
2020/01/31 11:10:50.5	293.070	-0.070	-0.140	0.540
2020/01/31 11:10:50.6	293.080	-0.050	-0.180	0.510
2020/01/31 11:10:50.7	293.090	-0.030	-0.220	0.490
2020/01/31 11:10:50.8	293.100	-0.010	-0.250	0.460
2020/01/31 11:10:50.9	293.110	0.000	-0.290	0.440
2020/01/31 11:10:51.0	293.120	0.020	-0.320	0.410
2020/01/31 11:10:51.1	293.130	0.050	-0.360	0.390
2020/01/31 11:10:51.2	293.140	0.070	-0.390	0.360
2020/01/31 11:10:51.3	293.160	0.090	-0.430	0.340
2020/01/31 11:10:51.4	293.170	0.110	-0.460	0.310
2020/01/31 11:10:51.5	293.200	0.130	-0.500	0.290
2020/01/31 11:10:51.6	293.220	0.160	-0.530	0.270
2020/01/31 11:10:51.7	293.230	0.180	-0.560	0.240
2020/01/31 11:10:51.8	293.250	0.200	-0.590	0.220
2020/01/31 11:10:51.9	293.270	0.230	-0.620	0.200
2020/01/31 11:10:52.0	293.280	0.250	-0.660	0.180
2020/01/31 11:10:52.1	293.300	0.270	-0.680	0.160
2020/01/31 11:10:52.2	293.320	0.290	-0.710	0.140
2020/01/31 11:10:52.3	293.340	0.310	-0.740	0.120
2020/01/31 11:10:52.4	293.360	0.330	-0.770	0.100
2020/01/31 11:10:52.5	293.370	0.350	-0.790	0.080
2020/01/31 11:10:52.6	293.390	0.370	-0.820	0.070
2020/01/31 11:10:52.7	293.410	0.380	-0.840	0.060
2020/01/31 11:10:52.8	293.430	0.400	-0.860	0.050
2020/01/31 11:10:52.9	293.450	0.410	-0.870	0.050
2020/01/31 11:10:53.0	293.470	0.420	-0.890	0.050
2020/01/31 11:10:53.1	293.480	0.430	-0.900	0.040
2020/01/31 11:10:53.2	293.500	0.440	-0.910	0.050
2020/01/31 11:10:53.3	293.520	0.450	-0.920	0.050
2020/01/31 11:10:53.4	293.540	0.450	-0.920	0.060
2020/01/31 11:10:53.5	293.560	0.450	-0.920	0.070
2020/01/31 11:10:53.6	293.580	0.450	-0.920	0.080
2020/01/31 11:10:53.7	293.590	0.450	-0.920	0.100
2020/01/31 11:10:53.8	293.600	0.450	-0.910	0.110
2020/01/31 11:10:53.9	293.620	0.440	-0.900	0.130
2020/01/31 11:10:54.0	293.620	0.430	-0.890	0.150
2020/01/31 11:10:54.1	293.630	0.420	-0.870	0.180
2020/01/31 11:10:54.2	293.640	0.410	-0.860	0.210
2020/01/31 11:10:54.3	293.640	0.400	-0.830	0.240
2020/01/31 11:10:54.4	293.650	0.380	-0.810	0.270
2020/01/31 11:10:54.5	293.660	0.360	-0.780	0.300
2020/01/31 11:10:54.6	293.650	0.350	-0.750	0.340
2020/01/31 11:10:54.7	293.650	0.330	-0.720	0.370
2020/01/31 11:10:54.8	293.650	0.310	-0.690	0.410
2020/01/31 11:10:54.9	293.640	0.280	-0.650	0.450
2020/01/31 11:10:55.0	293.640	0.260	-0.620	0.490
2020/01/31 11:10:55.1	293.630	0.240	-0.580	0.530
2020/01/31 11:10:55.2	293.620	0.210	-0.540	0.560
2020/01/31 11:10:55.3	293.610	0.190	-0.500	0.600
2020/01/31 11:10:55.4	293.600	0.160	-0.450	0.640
2020/01/31 11:10:55.5	293.590	0.140	-0.410	0.670
2020/01/31 11:10:55.6	293.570	0.110	-0.360	0.710
2020/01/31 11:10:55.7	293.560	0.090	-0.320	0.740
2020/01/31 11:10:55.8	293.540	0.060	-0.280	0.770
2020/01/31 11:10:55.9	293.530	0.030	-0.240	0.800
2020/01/31 11:10:56.0	293.510	0.010	-0.200	0.830
2020/01/31 11:10:56.1	293.500	-0.020	-0.160	0.860
2020/01/31 11:10:56.2	293.480	-0.040	-0.120	0.880
2020/01/31 11:10:56.3	293.460	-0.060	-0.080	0.900
2020/01/31 11:10:56.4	293.450	-0.090	-0.050	0.920
2020/01/31 11:10:56.5	293.430	-0.110	-0.020	0.930
2020/01/31 11:10:56.6	293.420	-0.130	0.010	0.940
2020/01/31 11:10:56.7	293.400	-0.150	0.040	0.950
2020/01/31 11:10:56.8	293.380	-0.170	0.060	0.960
2020/01/31 11:10:56.9	293.360	-0.190	0.090	0.960
2020/01/31 11:10:57.0	293.340	-0.210	0.110	0.970
2020/01/31 11:10:57.1	293.320	-0.220	0.130	0.970
2020/01/31 11:10:57.2	293.310	-0.240	0.150	0.960
2020/01/31 11:10:57.3	293.290	-0.250	0.160	0.960
2020/01/31 11:10:57.4	293.270	-0.270	0.180	0.950
2020/01/31 11:10:57.5	293.250	-0.280	0.190	0.940
2020/01/31 11:10:57.6	293.230	-0.290	0.200	0.930
2020/01/31 11:10:57.7	293.210	-0.300	0.210	0.910
2020/01/31 11:10:57.8	293.190	-0.310	0.210	0.900
2020/01/31 11:10:57.9	293.180	-0.320	0.220	0.880
2020/01/31 11:10:58.0	293.160	-0.330	0.220	0.860
2020/01/31 11:10:58.1	293.140	-0.330	0.220	0.840
2020/01/31 11:10:58.2	293.120	-0.340	0.220	0.820
2020/01/31 11:10:58.3	293.100	-0.340	0.210	0.800
2020/01/31 11:10:58.4	293.080	-0.340	0.210	0.770
2020/01/31 11:10:58.5	293.060	-0.350	0.210	0.750
2020/01/31 11:10:58.6	293.040	-0.350	0.200	0.730
2020/01/31 11:10:58.7	293.030	-0.350	0.190	0.700
2020/01/31 11:10:58.8	293.010	-0.350	0.180	0.670
2020/01/31 11:10:58.9	293.000	-0.340	0.170	0.650
2020/01/31 11:10:59.0	292.980	-0.340	0.160	0.620
2020/01/31 11:10:59.1	292.970	-0.340	0.150	0.590
2020/01/31 11:10:59.2	292.960	-0.340	0.140	0.570
2020/01/31 11:10:59.3	292.950	-0.330	0.130	0.540
2020/01/31 11:10:59.4	292.940	-0.330	0.120	0.510
2020/01/31 11:10:59.5	292.930	-0.320	0.100	0.480
2020/01/31 11:10:59.6	292.920	-0.320	0.090	0.450
2020/01/31 11:10:59.7	292.910	-0.310	0.080	0.430
2020/01/31 11:10:59.8	292.910	-0.300	0.070	0.400
2020/01/31 11:10:59.9	292.900	-0.290	0.060	0.370
2020/01/31 11:11:00.0	292.900	-0.290	0.050	0.340
2020/01/31 11:11:00.1	292.900	-0.280	0.040	0.320
2020/01/31 11:11:00.2	292.900	-0.270	0.030	0.290
2020/01/31 11:11:00.3	292.900	-0.260	0.030	0.270
2020/01/31 11:11:00.4	292.890	-0.250	0.020	0.250
2020/01/31 11:11:00.5	292.900	-0.240	0.010	0.230
2020/01/31 11:11:00.6	292.900	-0.230	0.010	0.210
2020/01/31 11:11:00.7	292.900	-0.220	0.000	0.190
2020/01/31 11:11:00.8	292.900	-0.210	0.000	0.170
2020/01/31 11:11:00.9	292.910	-0.200	-0.000	0.160
2020/01/31 11:11:01.0	292.910	-0.190	-0.000	0.140
2020/01/31 11:11:01.1	292.920	-0.170	-0.010	0.130
2020/01/31 11:11:01.2	292.930	-0.160	-0.010	0.120
2020/01/31 11:11:01.3	292.930	-0.150	-0.010	0.110
2020/01/31 11:11:01.4	292.940	-0.130	-0.020	0.100
2020/01/31 11:11:01.5	292.960	-0.120	-0.030	0.100
2020/01/31 11:11:01.6	292.970	-0.110	-0.030	0.090
2020/01/31 11:11:01.7	292.980	-0.090	-0.040	0.090
2020/01/31 11:11:01.8	292.990	-0.080	-0.050	0.090
2020/01/31 11:11:01.9	293.000	-0.060	-0.060	0.100
2020/01/31 11:11:02.0	293.010	-0.050	-0.070	0.100
2020/01/31 11:11:02.1	293.020	-0.030	-0.080	0.110
2020/01/31 11:11:02.2	293.030	-0.010	-0.090	0.120
2020/01/31 11:11:02.3	293.040	0.000	-0.110	0.130
2020/01/31 11:11:02.4	293.050	0.020	-0.120	0.150
2020/01/31 11:11:02.5	293.080	0.030	-0.140	0.160
2020/01/31 11:11:02.6	293.090	0.050	-0.160	0.180
2020/01/31 11:11:02.7	293.100	0.070	-0.180	0.200
2020/01/31 11:11:02.8	293.110	0.080	-0.210	0.230
2020/01/31 11:11:02.9	293.110	0.100	-0.230	0.260
2020/01/31 11:11:03.0	293.120	0.120	-0.260	0.290
2020/01/31 11:11:03.1	293.130	0.130	-0.280	0.320
2020/01/31 11:11:03.2	293.130	0.150	-0.310	0.350
2020/01/31 11:11:03.3	293.140	0.170	-0.340	0.380
2020/01/31 11:11:03.4	293.150	0.180	-0.370	0.420
2020/01/31 11:11:03.5	293.160	0.200	-0.400	0.460
2020/01/31 11:11:03.6	293.160	0.210	-0.430	0.490
2020/01/31 11:11:03.7	293.170	0.230	-0.470	0.530
2020/01/31 11:11:03.8	293.170	0.240	-0.500	0.570
2020/01/31 11:11:03.9	293.170	0.260	-0.530	0.600
2020/01/31 11:11:04.0	293.170	0.270	-0.560	0.640
2020/01/31 11:11:04.1	293.180	0.280	-0.590	0.670
2020/01/31 11:11:04.2	293.180	0.300	-0.620	0.700
2020/01/31 11:11:04.3	293.180	0.310	-0.650	0.740
2020/01/31 11:11:04.4	293.180	0.320	-0.680	0.770
2020/01/31 11:11:04.5	293.170	0.330	-0.700	0.790
2020/01/31 11:11:04.6	293.170	0.340	-0.730	0.820
2020/01/31 11:11:04.7	293.160	0.350	-0.750	0.850
2020/01/31 11:11:04.8	293.160	0.360	-0.770	0.880
2020/01/31 11:11:04.9	293.160	0.370	-0.790	0.900
2020/01/31 11:11:05.0	293.160	0.370	-0.810	0.920
2020/01/31 11:11:05.1	293.160	0.380	-0.820	0.940
2020/01/31 11:11:05.2	293.150	0.380	-0.840	0.960
2020/01/31 11:11:05.3	293.150	0.380	-0.850	0.970
2020/01/31 11:11:05.4	293.150	0.390	-0.850	0.980
2020/01/31 11:11:05.5	293.140	0.390	-0.860	0.990
2020/01/31 11:11:05.6	293.140	0.390	-0.860	0.990
2020/01/31 11:11:05.7	293.140	0.380	-0.870	1.000
2020/01/31 11:11:05.8	293.140	0.380	-0.870	1.000
2020/01/31 11:11:05.9	293.150	0.380	-0.860	1.000
2020/01/31 11:11:06.0	293.150	0.370	-0.860	0.990
2020/01/31 11:11:06.1	293.150	0.360	-0.850	0.980
2020/01/31 11:11:06.2	293.150	0.360	-0.850	0.980
2020/01/31 11:11:06.3	293.150	0.350	-0.840	0.960
2020/01/31 11:11:06.4	293.160	0.340	-0.820	0.950
2020/01/31 11:11:06.5	293.140	0.320	-0.810	0.930
2020/01/31 11:11:06.6	293.140	0.310	-0.790	0.920
2020/01/31 11:11:06.7	293.140	0.300	-0.770	0.900
2020/01/31 11:11:06.8	293.150	0.280	-0.750	0.890
2020/01/31 11:11:06.9	293.150	0.270	-0.720	0.870
2020/01/31 11:11:07.0	293.150	0.250	-0.700	0.860
2020/01/31 11:11:07.1	293.140	0.240	-0.670	0.840
2020/01/31 11:11:07.2	293.140	0.220	-0.630	0.830
2020/01/31 11:11:07.3	293.140	0.200	-0.600	0.820
2020/01/31 11:11:07.4	293.130	0.180	-0.570	0.810
2020/01/31 11:11:07.5	293.120	0.160	-0.530	0.800
2020/01/31 11:11:07.6	293.120	0.140	-0.490	0.790
2020/01/31 11:11:07.7	293.110	0.120	-0.450	0.790
2020/01/31 11:11:07.8	293.100	0.100	-0.410	0.780
2020/01/31 11:11:07.9	293.090	0.080	-0.360	0.780
2020/01/31 11:11:08.0	293.080	0.070	-0.320	0.780
2020/01/31 11:11:08.1	293.070	0.050	-0.270	0.780
2020/01/31 11:11:08.2	293.060	0.030	-0.230	0.780
2020/01/31 11:11:08.3	293.040	0.010	-0.180	0.780
2020/01/31 11:11:08.4	293.030	-0.010	-0.140	0.790
2020/01/31 11:11:08.5	293.010	-0.030	-0.090	0.790
2020/01/31 11:11:08.6	293.000	-0.040	-0.040	0.800
2020/01/31 11:11:08.7	292.980	-0.060	-0.000	0.800
2020/01/31 11:11:08.8	292.970	-0.070	0.040	0.810
2020/01/31 11:11:08.9	292.950	-0.090	0.080	0.820
2020/01/31 11:11:09.0	292.940	-0.100	0.120	0.830
2020/01/31 11:11:09.1	292.920	-0.120	0.160	0.840
2020/01/31 11:11:09.2	292.900	-0.130	0.190	0.850
2020/01/31 11:11:09.3	292.880	-0.140	0.220	0.860
2020/01/31 11:11:09.4	292.870	-0.150	0.250	0.870
2020/01/31 11:11:09.5	292.840	-0.160	0.270	0.880
2020/01/31 11:11:09.6	292.830	-0.170	0.300	0.890
2020/01/31 11:11:09.7	292.810	-0.180	0.320	0.900
2020/01/31 11:11:09.8	292.790	-0.190	0.340	0.910
2020/01/31 11:11:09.9	292.770	-0.190	0.350	0.920
2020/01/31 11:11:10.0	292.760	-0.200	0.360	0.930
2020/01/31 11:11:10.1	292.740	-0.200	0.370	0.930
2020/01/31 11:11:10.2	292.720	-0.210	0.380	0.940
2020/01/31 11:11:10.3	292.710	-0.210	0.380	0.950
2020/01/31 11:11:10.4	292.690	-0.210	0.380	0.950
2020/01/31 11:11:10.5	292.680	-0.210	0.380	0.960
2020/01/31 11:11:10.6	292.670	-0.220	0.370	0.960
2020/01/31 11:11:10.7	292.650	-0.220	0.360	0.970
2020/01/31 11:11:10.8	292.640	-0.220	0.350	0.970
2020/01/31 11:11:10.9	292.630	-0.220	0.340	0.970
2020/01/31 11:11:11.0	292.620	-0.210	0.320	0.960
2020/01/31 11:11:11.1	292.610	-0.210	0.300	0.960
2020/01/31 11:11:11.2	292.600	-0.210	0.280	0.950
2020/01/31 11:11:11.3	292.590	-0.210	0.260	0.940
2020/01/31 11:11:11.4	292.590	-0.210	0.230	0.930
2020/01/31 11:11:11.5	292.590	-0.200	0.210	0.920
2020/01/31 11:11:11.6	292.580	-0.200	0.180	0.900
2020/01/31 11:11:11.7	292.580	-0.190	0.150	0.890
2020/01/31 11:11:11.8	292.580	-0.190	0.120	0.870
2020/01/31 11:11:11.9	292.580	-0.190	0.090	0.850
2020/01/31 11:11:12.0	292.580	-0.180	0.050	0.830
2020/01/31 11:11:12.1	292.580	-0.180	0.020	0.800
2020/01/31 11:11:12.2	292.580	-0.170	-0.010	0.780
2020/01/31 11:11:12.3	292.580	-0.170	-0.040	0.750
2020/01/31 11:11:12.4	292.590	-0.160	-0.080	0.720
2020/01/31 11:11:12.5	292.600	-0.160	-0.110	0.700
2020/01/31 11:11:12.6	292.600	-0.150	-0.140	0.670
2020/01/31 11:11:12.7	292.610	-0.150	-0.170	0.640
2020/01/31 11:11:12.8	292.620	-0.140	-0.200	0.610
2020/01/31 11:11:12.9	292.630	-0.140	-0.220	0.580
2020/01/31 11:11:13.0	292.640	-0.130	-0.250	0.550
2020/01/31 11:11:13.1	292.650	-0.130	-0.280	0.520
2020/01/31 11:11:13.2	292.660	-0.120	-0.300	0.490
2020/01/31 11:11:13.3	292.670	-0.120	-0.320	0.460
2020/01/31 11:11:13.4	292.680	-0.110	-0.340	0.430
2020/01/31 11:11:13.5	292.690	-0.110	-0.370	0.400
2020/01/31 11:11:13.6	292.700	-0.110	-0.380	0.370
2020/01/31 11:11:13.7	292.710	-0.100	-0.400	0.350
2020/01/31 11:11:13.8	292.730	-0.100	-0.410	0.320
2020/01/31 11:11:13.9	292.740	-0.100	-0.430	0.300
2020/01/31 11:11:14.0	292.750	-0.090	-0.440	0.270
2020/01/31 11:11:14.1	292.760	-0.090	-0.440	0.250
2020/01/31 11:11:14.2	292.770	-0.090	-0.450	0.230
2020/01/31 11:11:14.3	292.790	-0.080	-0.460	0.210
2020/01/31 11:11:14.4	292.800	-0.080	-0.460	0.190
2020/01/31 11:11:14.5	292.810	-0.080	-0.460	0.170
2020/01/31 11:11:14.6	292.820	-0.070	-0.460	0.150
2020/01/31 11:11:14.7	292.830	-0.070	-0.460	0.140
2020/01/31 11:11:14.8	292.840	-0.070	-0.460	0.120
2020/01/31 11:11:14.9	292.860	-0.060	-0.450	0.110
2020/01/31 11:11:15.0	292.870	-0.060	-0.450	0.100
2020/01/31 11:11:15.1	292.880	-0.060	-0.440	0.090
2020/01/31 11:11:15.2	292.890	-0.050	-0.440	0.080
2020/01/31 11:11:15.3	292.900	-0.050	-0.430	0.080
2020/01/31 11:11:15.4	292.920	-0.040	-0.420	0.070
2020/01/31 11:11:15.5	292.920	-0.040	-0.410	0.070
2020/01/31 11:11:15.6	292.940	-0.030	-0.410	0.070
2020/01/31 11:11:15.7	292.950	-0.020	-0.400	0.080
2020/01/31 11:11:15.8	292.960	-0.020	-0.390	0.080
2020/01/31 11:11:15.9	292.970	-0.010	-0.380	0.090
2020/01/31 11:11:16.0	292.990	-0.000	-0.370	0.100
2020/01/31 11:11:16.1	293.000	0.000	-0.360	0.110
2020/01/31 11:11:16.2	293.010	0.010	-0.360	0.120
2020/01/31 11:11:16.3	293.030	0.020	-0.350	0.140
2020/01/31 11:11:16.4	293.040	0.020	-0.340	0.160
2020/01/31 11:11:16.5	293.050	0.030	-0.330	0.170
2020/01/31 11:11:16.6	293.060	0.040	-0.320	0.190
2020/01/31 11:11:16.7	293.070	0.050	-0.310	0.220
2020/01/31 11:11:16.8	293.080	0.060	-0.310	0.240
2020/01/31 11:11:16.9	293.090	0.060	-0.300	0.270
2020/01/31 11:11:17.0	293.100	0.070	-0.290	0.300
2020/01/31 11:11:17.1	293.110	0.080	-0.280	0.330
2020/01/31 11:11:17.2	293.110	0.090	-0.280	0.370
2020/01/31 11:11:17.3	293.120	0.100	-0.270	0.400
2020/01/31 11:11:17.4	293.120	0.110	-0.270	0.440
2020/01/31 11:11:17.5	293.150	0.120	-0.260	0.470
2020/01/31 11:11:17.6	293.150	0.130	-0.250	0.510
2020/01/31 11:11:17.7	293.150	0.130	-0.250	0.550
2020/01/31 11:11:17.8	293.150	0.140	-0.250	0.580
2020/01/31 11:11:17.9	293.140	0.150	-0.250	0.620
2020/01/31 11:11:18.0	293.140	0.160	-0.250	0.660
2020/01/31 11:11:18.1	293.140	0.170	-0.260	0.700
2020/01/31 11:11:18.2	293.130	0.180	-0.260	0.740
2020/01/31 11:11:18.3	293.120	0.190	-0.270	0.770
2020/01/31 11:11:18.4	293.110	0.200	-0.280	0.810
2020/01/31 11:11:18.5	293.110	0.220	-0.290	0.850
2020/01/31 11:11:18.6	293.100	0.230	-0.310	0.880
2020/01/31 11:11:18.7	293.080	0.240	-0.320	0.910
2020/01/31 11:11:18.8	293.070	0.250	-0.340	0.940
2020/01/31 11:11:18.9	293.060	0.260	-0.360	0.970
2020/01/31 11:11:19.0	293.050	0.270	-0.380	1.000
2020/01/31 11:11:19.1	293.040	0.280	-0.400	1.030
2020/01/31 11:11:19.2	293.020	0.290	-0.420	1.050
2020/01/31 11:11:19.3	293.010	0.300	-0.440	1.070
2020/01/31 11:11:19.4	292.990	0.310	-0.460	1.100
2020/01/31 11:11:19.5	292.990	0.310	-0.480	1.110
2020/01/31 11:11:19.6	292.980	0.320	-0.510	1.130
2020/01/31 11:11:19.7	292.960	0.330	-0.530	1.150
2020/01/31 11:11:19.8	292.940	0.340	-0.550	1.160
2020/01/31 11:11:19.9	292.930	0.340	-0.560	1.170
2020/01/31 11:11:20.0	292.910	0.340	-0.580	1.180
2020/01/31 11:11:20.1	292.890	0.350	-0.600	1.190
2020/01/31 11:11:20.2	292.870	0.350	-0.610	1.190
2020/01/31 11:11:20.3	292.850	0.350	-0.620	1.190
2020/01/31 11:11:20.4	292.840	0.350	-0.620	1.190
2020/01/31 11:11:20.5	292.790	0.350	-0.630	1.190
2020/01/31 11:11:20.6	292.770	0.340	-0.630	1.180
2020/01/31 11:11:20.7	292.760	0.340	-0.620	1.180
2020/01/31 11:11:20.8	292.740	0.330	-0.620	1.170
2020/01/31 11:11:20.9	292.720	0.320	-0.610	1.160
2020/01/31 11:11:21.0	292.700	0.310	-0.600	1.150
2020/01/31 11:11:21.1	292.680	0.300	-0.580	1.140
2020/01/31 11:11:21.2	292.660	0.280	-0.560	1.120
2020/01/31 11:11:21.3	292.640	0.270	-0.540	1.100
2020/01/31 11:11:21.4	292.630	0.250	-0.510	1.090
2020/01/31 11:11:21.5	292.610	0.230	-0.480	1.060
2020/01/31 11:11:21.6	292.590	0.210	-0.450	1.040
2020/01/31 11:11:21.7	292.580	0.190	-0.420	1.020
2020/01/31 11:11:21.8	292.560	0.160	-0.390	0.990
2020/01/31 11:11:21.9	292.550	0.140	-0.350	0.970
2020/01/31 11:11:22.0	292.530	0.110	-0.320	0.940
2020/01/31 11:11:22.1	292.520	0.080	-0.280	0.910
2020/01/31 11:11:22.2	292.510	0.050	-0.240	0.880
2020/01/31 11:11:22.3	292.500	0.030	-0.200	0.840
2020/01/31 11:11:22.4	292.490	-0.000	-0.160	0.810
2020/01/31 11:11:22.5	292.480	-0.030	-0.130	0.780
2020/01/31 11:11:22.6	292.480	-0.070	-0.090	0.740
2020/01/31 11:11:22.7	292.470	-0.100	-0.050	0.700
2020/01/31 11:11:22.8	292.470	-0.130	-0.020	0.670
2020/01/31 11:11:22.9	292.460	-0.160	0.020	0.630
2020/01/31 11:11:23.0	292.460	-0.190	0.050	0.590
2020/01/31 11:11:23.1	292.460	-0.220	0.080	0.550
2020/01/31 11:11:23.2	292.460	-0.240	0.110	0.510
2020/01/31 11:11:23.3	292.460	-0.270	0.130	0.470
2020/01/31 11:11:23.4	292.460	-0.300	0.150	0.430
2020/01/31 11:11:23.5	292.460	-0.320	0.170	0.380
2020/01/31 11:11:23.6	292.470	-0.340	0.190	0.340
2020/01/31 11:11:23.7	292.470	-0.360	0.210	0.300
2020/01/31 11:11:23.8	292.480	-0.380	0.220	0.250
2020/01/31 11:11:23.9	292.490	-0.400	0.230	0.210
2020/01/31 11:11:24.0	292.500	-0.420	0.230	0.170
2020/01/31 11:11:24.1	292.510	-0.430	0.240	0.130
2020/01/31 11:11:24.2	292.520	-0.440	0.240	0.090
2020/01/31 11:11:24.3	292.540	-0.450	0.240	0.050
2020/01/31 11:11:24.4	292.550	-0.460	0.230	0.020
2020/01/31 11:11:24.5	292.560	-0.460	0.230	-0.020
2020/01/31 11:11:24.6	292.580	-0.470	0.220	-0.060
2020/01/31 11:11:24.7	292.600	-0.470	0.210	-0.090
2020/01/31 11:11:24.8	292.620	-0.470	0.190	-0.120
2020/01/31 11:11:24.9	292.640	-0.460	0.180	-0.150
2020/01/31 11:11:25.0	292.660	-0.460	0.160	-0.180
2020/01/31 11:11:25.1	292.680	-0.450	0.140	-0.210
2020/01/31 11:11:25.2	292.700	-0.440	0.120	-0.230
2020/01/31 11:11:25.3	292.720	-0.430	0.100	-0.260
2020/01/31 11:11:25.4	292.740	-0.420	0.080	-0.280
2020/01/31 11:11:25.5	292.780	-0.410	0.060	-0.290
2020/01/31 11:11:25.6	292.810	-0.390	0.040	-0.310
2020/01/31 11:11:25.7	292.830	-0.380	0.020	-0.320
2020/01/31 11:11:25.8	292.850	-0.360	-0.010	-0.330
2020/01/31 11:11:25.9	292.870	-0.340	-0.030	-0.330
2020/01/31 11:11:26.0	292.890	-0.320	-0.050	-0.330
2020/01/31 11:11:26.1	292.910	-0.300	-0.070	-0.330
2020/01/31 11:11:26.2	292.930	-0.280	-0.090	-0.330
2020/01/31 11:11:26.3	292.950	-0.260	-0.110	-0.320
2020/01/31 11:11:26.4	292.970	-0.240	-0.130	-0.310
2020/01/31 11:11:26.5	292.980	-0.220	-0.150	-0.290
2020/01/31 11:11:26.6	293.000	-0.200	-0.170	-0.270
2020/01/31 11:11:26.7	293.010	-0.180	-0.190	-0.250
2020/01/31 11:11:26.8	293.020	-0.160	-0.210	-0.230
2020/01/31 11:11:26.9	293.030	-0.140	-0.230	-0.200
2020/01/31 11:11:27.0	293.040	-0.130	-0.240	-0.170
2020/01/31 11:11:27.1	293.050	-0.110	-0.260	-0.140
2020/01/31 11:11:27.2	293.060	-0.090	-0.280	-0.100
2020/01/31 11:11:27.3	293.070	-0.080	-0.300	-0.070
2020/01/31 11:11:27.4	293.070	-0.060	-0.310	-0.030
2020/01/31 11:11:27.5	293.070	-0.050	-0.330	0.010
2020/01/31 11:11:27.6	293.080	-0.030	-0.350	0.050
2020/01/31 11:11:27.7	293.080	-0.020	-0.360	0.090
2020/01/31 11:11:27.8	293.080	-0.010	-0.380	0.130
2020/01/31 11:11:27.9	293.080	-0.000	-0.390	0.180
2020/01/31 11:11:28.0	293.080	0.010	-0.400	0.220
2020/01/31 11:11:28.1	293.080	0.010	-0.420	0.260
2020/01/31 11:11:28.2	293.080	0.020	-0.430	0.310
2020/01/31 11:11:28.3	293.080	0.030	-0.440	0.350
2020/01/31 11:11:28.4	293.070	0.030	-0.450	0.400
2020/01/31 11:11:28.5	293.070	0.040	-0.460	0.440
2020/01/31 11:11:28.6	293.070	0.040	-0.470	0.480
2020/01/31 11:11:28.7	293.060	0.040	-0.470	0.530
2020/01/31 11:11:28.8	293.050	0.040	-0.480	0.570
2020/01/31 11:11:28.9	293.040	0.050	-0.480	0.620
2020/01/31 11:11:29.0	293.020	0.050	-0.480	0.660
2020/01/31 11:11:29.1	293.010	0.050	-0.480	0.710
2020/01/31 11:11:29.2	292.990	0.050	-0.470	0.760
2020/01/31 11:11:29.3	292.980	0.050	-0.470	0.800
2020/01/31 11:11:29.4	292.960	0.050	-0.460	0.850
2020/01/31 11:11:29.5	292.940	0.050	-0.450	0.900
2020/01/31 11:11:29.6	292.920	0.050	-0.440	0.940
2020/01/31 11:11:29.7	292.900	0.050	-0.430	0.980
2020/01/31 11:11:29.8	292.880	0.050	-0.420	1.030
2020/01/31 11:11:29.9	292.850	0.050	-0.410	1.070
2020/01/31 11:11:30.0	292.830	0.050	-0.390	1.110
2020/01/31 11:11:30.1	292.800	0.050	-0.380	1.150
2020/01/31 11:11:30.2	292.770	0.050	-0.370	1.180
2020/01/31 11:11:30.3	292.750	0.050	-0.350	1.210
2020/01/31 11:11:30.4	292.720	0.060	-0.340	1.250
2020/01/31 11:11:30.5	292.690	0.060	-0.330	1.270
2020/01/31 11:11:30.6	292.660	0.060	-0.310	1.290
2020/01/31 11:11:30.7	292.640	0.070	-0.300	1.310
2020/01/31 11:11:30.8	292.610	0.070	-0.290	1.330
2020/01/31 11:11:30.9	292.590	0.080	-0.280	1.350
2020/01/31 11:11:31.0	292.560	0.090	-0.260	1.360
2020/01/31 11:11:31.1	292.540	0.100	-0.260	1.370
2020/01/31 11:11:31.2	292.510	0.110	-0.250	1.380
2020/01/31 11:11:31.3	292.490	0.120	-0.240	1.380
2020/01/31 11:11:31.4	292.470	0.130	-0.230	1.380
2020/01/31 11:11:31.5	292.440	0.140	-0.220	1.370
2020/01/31 11:11:31.6	292.420	0.150	-0.220	1.370
2020/01/31 11:11:31.7	292.400	0.160	-0.220	1.360
2020/01/31 11:11:31.8	292.380	0.170	-0.220	1.340
2020/01/31 11:11:31.9	292.360	0.190	-0.220	1.330
2020/01/31 11:11:32.0	292.350	0.200	-0.220	1.310
2020/01/31 11:11:32.1	292.330	0.210	-0.220	1.290
2020/01/31 11:11:32.2	292.320	0.220	-0.220	1.260
2020/01/31 11:11:32.3	292.310	0.240	-0.230	1.240
2020/01/31 11:11:32.4	292.300	0.250	-0.230	1.210
2020/01/31 11:11:32.5	292.290	0.260	-0.250	1.170
2020/01/31 11:11:32.6	292.280	0.280	-0.260	1.140
2020/01/31 11:11:32.7	292.280	0.290	-0.270	1.110
2020/01/31 11:11:32.8	292.280	0.300	-0.280	1.070
2020/01/31 11:11:32.9	292.280	0.310	-0.290	1.030
2020/01/31 11:11:33.0	292.280	0.320	-0.300	0.990
2020/01/31 11:11:33.1	292.290	0.330	-0.320	0.950
2020/01/31 11:11:33.2	292.290	0.340	-0.330	0.910
2020/01/31 11:11:33.3	292.300	0.350	-0.340	0.870
2020/01/31 11:11:33.4	292.320	0.350	-0.360	0.830
2020/01/31 11:11:33.5	292.320	0.360	-0.370	0.790
2020/01/31 11:11:33.6	292.330	0.360	-0.380	0.750
2020/01/31 11:11:33.7	292.350	0.360	-0.400	0.700
2020/01/31 11:11:33.8	292.370	0.360	-0.410	0.660
2020/01/31 11:11:33.9	292.390	0.360	-0.420	0.620
2020/01/31 11:11:34.0	292.410	0.360	-0.430	0.580
2020/01/31 11:11:34.1	292.440	0.360	-0.440	0.550
2020/01/31 11:11:34.2	292.460	0.350	-0.440	0.510
2020/01/31 11:11:34.3	292.480	0.340	-0.450	0.470
2020/01/31 11:11:34.4	292.510	0.340	-0.450	0.440
2020/01/31 11:11:34.5	292.530	0.330	-0.460	0.400
2020/01/31 11:11:34.6	292.560	0.310	-0.460	0.380
2020/01/31 11:11:34.7	292.580	0.300	-0.450	0.350
2020/01/31 11:11:34.8	292.610	0.290	-0.450	0.330
2020/01/31 11:11:34.9	292.630	0.270	-0.440	0.300
2020/01/31 11:11:35.0	292.660	0.260	-0.430	0.290
2020/01/31 11:11:35.1	292.680	0.240	-0.420	0.270
2020/01/31 11:11:35.2	292.700	0.220	-0.410	0.260
2020/01/31 11:11:35.3	292.720	0.200	-0.390	0.250
2020/01/31 11:11:35.4	292.740	0.180	-0.380	0.240
2020/01/31 11:11:35.5	292.750	0.160	-0.360	0.230
2020/01/31 11:11:35.6	292.770	0.130	-0.340	0.230
2020/01/31 11:11:35.7	292.790	0.110	-0.320	0.230
2020/01/31 11:11:35.8	292.800	0.090	-0.300	0.230
2020/01/31 11:11:35.9	292.820	0.060	-0.280	0.230
2020/01/31 11:11:36.0	292.830	0.040	-0.260	0.230
2020/01/31 11:11:36.1	292.850	0.010	-0.240	0.240
2020/01/31 11:11:36.2	292.860	-0.010	-0.220	0.240
2020/01/31 11:11:36.3	292.880	-0.030	-0.200	0.250
2020/01/31 11:11:36.4	292.890	-0.060	-0.180	0.260
2020/01/31 11:11:36.5	292.900	-0.080	-0.160	0.260
2020/01/31 11:11:36.6	292.910	-0.100	-0.150	0.270
2020/01/31 11:11:36.7	292.920	-0.130	-0.130	0.280
2020/01/31 11:11:36.8	292.930	-0.150	-0.120	0.290
2020/01/31 11:11:36.9	292.940	-0.170	-0.110	0.290
2020/01/31 11:11:37.0	292.950	-0.190	-0.090	0.300
2020/01/31 11:11:37.1	292.960	-0.210	-0.080	0.310
2020/01/31 11:11:37.2	292.970	-0.230	-0.080	0.310
2020/01/31 11:11:37.3	292.970	-0.250	-0.070	0.320
2020/01/31 11:11:37.4	292.980	-0.260	-0.060	0.320
2020/01/31 11:11:37.5	292.990	-0.280	-0.060	0.330
2020/01/31 11:11:37.6	293.000	-0.290	-0.060	0.340
2020/01/31 11:11:37.7	293.000	-0.310	-0.060	0.340
2020/01/31 11:11:37.8	293.000	-0.320	-0.050	0.350
2020/01/31 11:11:37.9	293.000	-0.330	-0.060	0.350
2020/01/31 11:11:38.0	293.000	-0.340	-0.060	0.360
2020/01/31 11:11:38.1	293.000	-0.350	-0.060	0.370
2020/01/31 11:11:38.2	293.000	-0.360	-0.060	0.370
2020/01/31 11:11:38.3	292.990	-0.370	-0.070	0.380
2020/01/31 11:11:38.4	292.990	-0.370	-0.070	0.390
2020/01/31 11:11:38.5	292.990	-0.380	-0.080	0.400
2020/01/31 11:11:38.6	292.990	-0.380	-0.080	0.410
2020/01/31 11:11:38.7	292.980	-0.380	-0.090	0.420
2020/01/31 11:11:38.8	292.970	-0.380	-0.100	0.440
2020/01/31 11:11:38.9	292.950	-0.380	-0.100	0.450
2020/01/31 11:11:39.0	292.940	-0.380	-0.110	0.470
2020/01/31 11:11:39.1	292.920	-0.380	-0.110	0.480
2020/01/31 11:11:39.2	292.910	-0.380	-0.120	0.500
2020/01/31 11:11:39.3	292.890	-0.380	-0.130	0.510
2020/01/31 11:11:39.4	292.870	-0.370	-0.130	0.530
2020/01/31 11:11:39.5	292.840	-0.370	-0.140	0.550
2020/01/31 11:11:39.6	292.820	-0.360	-0.140	0.570
2020/01/31 11:11:39.7	292.800	-0.360	-0.140	0.580
2020/01/31 11:11:39.8	292.780	-0.350	-0.150	0.600
2020/01/31 11:11:39.9	292.760	-0.340	-0.150	0.620
2020/01/31 11:11:40.0	292.740	-0.330	-0.160	0.630
2020/01/31 11:11:40.1	292.710	-0.320	-0.160	0.650
2020/01/31 11:11:40.2	292.690	-0.310	-0.160	0.660
2020/01/31 11:11:40.3	292.670	-0.300	-0.160	0.680
2020/01/31 11:11:40.4	292.650	-0.290	-0.160	0.690
2020/01/31 11:11:40.5	292.630	-0.280	-0.160	0.700
2020/01/31 11:11:40.6	292.610	-0.270	-0.160	0.710
2020/01/31 11:11:40.7	292.590	-0.260	-0.160	0.720
2020/01/31 11:11:40.8	292.570	-0.250	-0.160	0.720
2020/01/31 11:11:40.9	292.560	-0.230	-0.160	0.730
2020/01/31 11:11:41.0	292.540	-0.220	-0.160	0.730
2020/01/31 11:11:41.1	292.530	-0.200	-0.150	0.730
2020/01/31 11:11:41.2	292.510	-0.190	-0.150	0.730
2020/01/31 11:11:41.3	292.500	-0.180	-0.140	0.730
2020/01/31 11:11:41.4	292.490	-0.160	-0.140	0.730
2020/01/31 11:11:41.5	292.470	-0.140	-0.130	0.720
2020/01/31 11:11:41.6	292.470	-0.130	-0.130	0.720
2020/01/31 11:11:41.7	292.460	-0.110	-0.120	0.710
2020/01/31 11:11:41.8	292.460	-0.100	-0.110	0.700
2020/01/31 11:11:41.9	292.450	-0.080	-0.110	0.690
2020/01/31 11:11:42.0	292.450	-0.060	-0.100	0.670
2020/01/31 11:11:42.1	292.450	-0.050	-0.100	0.660
2020/01/31 11:11:42.2	292.460	-0.030	-0.090	0.640
2020/01/31 11:11:42.3	292.460	-0.010	-0.090	0.630
2020/01/31 11:11:42.4	292.470	0.000	-0.090	0.610
2020/01/31 11:11:42.5	292.480	0.020	-0.080	0.590
2020/01/31 11:11:42.6	292.490	0.030	-0.080	0.570
2020/01/31 11:11:42.7	292.500	0.050	-0.080	0.550
2020/01/31 11:11:42.8	292.510	0.070	-0.090	0.530
2020/01/31 11:11:42.9	292.520	0.080	-0.090	0.500
2020/01/31 11:11:43.0	292.530	0.100	-0.090	0.480
2020/01/31 11:11:43.1	292.540	0.110	-0.100	0.460
2020/01/31 11:11:43.2	292.550	0.130	-0.110	0.440
2020/01/31 11:11:43.3	292.570	0.140	-0.120	0.420
2020/01/31 11:11:43.4	292.580	0.150	-0.130	0.400
2020/01/31 11:11:43.5	292.590	0.170	-0.140	0.390
2020/01/31 11:11:43.6	292.600	0.180	-0.160	0.370
2020/01/31 11:11:43.7	292.610	0.190	-0.170	0.350
2020/01/31 11:11:43.8	292.620	0.210	-0.190	0.340
2020/01/31 11:11:43.9	292.630	0.220	-0.210	0.330
2020/01/31 11:11:44.0	292.640	0.230	-0.220	0.320
2020/01/31 11:11:44.1	292.650	0.240	-0.240	0.310
2020/01/31 11:11:44.2	292.660	0.250	-0.260	0.300
2020/01/31 11:11:44.3	292.670	0.270	-0.280	0.290
2020/01/31 11:11:44.4	292.680	0.280	-0.300	0.290
2020/01/31 11:11:44.5	292.680	0.290	-0.320	0.280
2020/01/31 11:11:44.6	292.680	0.300	-0.340	0.280
2020/01/31 11:11:44.7	292.690	0.300	-0.350	0.280
2020/01/31 11:11:44.8	292.700	0.310	-0.370	0.290
2020/01/31 11:11:44.9	292.710	0.320	-0.390	0.290
2020/01/31 11:11:45.0	292.710	0.330	-0.410	0.300
2020/01/31 11:11:45.1	292.720	0.330	-0.430	0.300
2020/01/31 11:11:45.2	292.730	0.340	-0.440	0.310
2020/01/31 11:11:45.3	292.730	0.340	-0.460	0.320
2020/01/31 11:11:45.4	292.740	0.350	-0.470	0.330
2020/01/31 11:11:45.5	292.750	0.350	-0.490	0.340
2020/01/31 11:11:45.6	292.750	0.350	-0.500	0.350
2020/01/31 11:11:45.7	292.760	0.360	-0.510	0.360
2020/01/31 11:11:45.8	292.770	0.360	-0.520	0.370
2020/01/31 11:11:45.9	292.770	0.350	-0.530	0.380
2020/01/31 11:11:46.0	292.780	0.350	-0.540	0.380
2020/01/31 11:11:46.1	292.790	0.350	-0.540	0.390
2020/01/31 11:11:46.2	292.790	0.350	-0.550	0.400
2020/01/31 11:11:46.3	292.800	0.340	-0.550	0.410
2020/01/31 11:11:46.4	292.810	0.330	-0.560	0.410
2020/01/31 11:11:46.5	292.810	0.330	-0.550	0.420
2020/01/31 11:11:46.6	292.820	0.320	-0.550	0.420
2020/01/31 11:11:46.7	292.830	0.310	-0.550	0.430
2020/01/31 11:11:46.8	292.840	0.300	-0.550	0.440
2020/01/31 11:11:46.9	292.840	0.290	-0.550	0.440
2020/01/31 11:11:47.0	292.850	0.270	-0.540	0.450
2020/01/31 11:11:47.1	292.860	0.260	-0.540	0.450
2020/01/31 11:11:47.2	292.860	0.240	-0.530	0.460
2020/01/31 11:11:47.3	292.870	0.230	-0.530	0.460
2020/01/31 11:11:47.4	292.880	0.210	-0.520	0.470
2020/01/31 11:11:47.5	292.890	0.190	-0.510	0.470
2020/01/31 11:11:47.6	292.900	0.170	-0.500	0.480
2020/01/31 11:11:47.7	292.910	0.150	-0.490	0.480
2020/01/31 11:11:47.8	292.910	0.130	-0.480	0.490
2020/01/31 11:11:47.9	292.920	0.110	-0.470	0.490
2020/01/31 11:11:48.0	292.930	0.090	-0.450	0.490
2020/01/31 11:11:48.1	292.940	0.070	-0.440	0.500
2020/01/31 11:11:48.2	292.950	0.040	-0.430	0.500
2020/01/31 11:11:48.3	292.950	0.020	-0.410	0.510
2020/01/31 11:11:48.4	292.960	-0.000	-0.400	0.510
2020/01/31 11:11:48.5	292.960	-0.020	-0.380	0.510
2020/01/31 11:11:48.6	292.970	-0.050	-0.360	0.510
2020/01/31 11:11:48.7	292.970	-0.070	-0.350	0.520
2020/01/31 11:11:48.8	292.970	-0.090	-0.330	0.520
2020/01/31 11:11:48.9	292.980	-0.110	-0.310	0.520
2020/01/31 11:11:49.0	292.980	-0.140	-0.300	0.530
2020/01/31 11:11:49.1	292.980	-0.160	-0.280	0.530
2020/01/31 11:11:49.2	292.980	-0.180	-0.270	0.540
2020/01/31 11:11:49.3	292.980	-0.190	-0.250	0.540
2020/01/31 11:11:49.4	292.980	-0.210	-0.240	0.550
2020/01/31 11:11:49.5	292.990	-0.230	-0.230	0.560
2020/01/31 11:11:49.6	292.990	-0.240	-0.220	0.560
2020/01/31 11:11:49.7	292.990	-0.260	-0.210	0.570
2020/01/31 11:11:49.8	292.990	-0.270	-0.200	0.570
2020/01/31 11:11:49.9	292.990	-0.280	-0.200	0.580
2020/01/31 11:11:50.0	292.980	-0.290	-0.190	0.580
2020/01/31 11:11:50.1	292.980	-0.300	-0.180	0.590
2020/01/31 11:11:50.2	292.970	-0.310	-0.180	0.600
2020/01/31 11:11:50.3	292.970	-0.310	-0.180	0.600
2020/01/31 11:11:50.4	292.970	-0.320	-0.170	0.610
2020/01/31 11:11:50.5	292.960	-0.320	-0.170	0.620
2020/01/31 11:11:50.6	292.950	-0.320	-0.170	0.620
2020/01/31 11:11:50.7	292.950	-0.320	-0.170	0.630
2020/01/31 11:11:50.8	292.940	-0.320	-0.170	0.640
2020/01/31 11:11:50.9	292.930	-0.310	-0.160	0.650
2020/01/31 11:11:51.0	292.930	-0.310	-0.160	0.660
2020/01/31 11:11:51.1	292.920	-0.300	-0.160	0.670
2020/01/31 11:11:51.2	292.910	-0.290	-0.160	0.680
2020/01/31 11:11:51.3	292.900	-0.290	-0.150	0.690
2020/01/31 11:11:51.4	292.890	-0.280	-0.150	0.700
2020/01/31 11:11:51.5	292.890	-0.270	-0.140	0.710
2020/01/31 11:11:51.6	292.880	-0.250	-0.140	0.720
2020/01/31 11:11:51.7	292.870	-0.240	-0.130	0.730
2020/01/31 11:11:51.8	292.860	-0.230	-0.120	0.740
2020/01/31 11:11:51.9	292.850	-0.220	-0.110	0.750
2020/01/31 11:11:52.0	292.840	-0.200	-0.100	0.760
2020/01/31 11:11:52.1	292.840	-0.190	-0.090	0.770
2020/01/31 11:11:52.2	292.830	-0.180	-0.080	0.780
2020/01/31 11:11:52.3	292.820	-0.160	-0.070	0.790
2020/01/31 11:11:52.4	292.810	-0.150	-0.050	0.800
2020/01/31 11:11:52.5	292.810	-0.140	-0.040	0.810
2020/01/31 11:11:52.6	292.800	-0.130	-0.020	0.820
2020/01/31 11:11:52.7	292.800	-0.120	-0.010	0.830
2020/01/31 11:11:52.8	292.790	-0.100	0.010	0.840
2020/01/31 11:11:52.9	292.780	-0.090	0.020	0.840
2020/01/31 11:11:53.0	292.770	-0.080	0.030	0.850
2020/01/31 11:11:53.1	292.760	-0.080	0.050	0.850
2020/01/31 11:11:53.2	292.760	-0.070	0.060	0.860
2020/01/31 11:11:53.3	292.750	-0.060	0.070	0.860
2020/01/31 11:11:53.4	292.740	-0.050	0.090	0.870
2020/01/31 11:11:53.5	292.730	-0.040	0.100	0.870
2020/01/31 11:11:53.6	292.720	-0.040	0.110	0.870
2020/01/31 11:11:53.7	292.710	-0.030	0.120	0.870
2020/01/31 11:11:53.8	292.700	-0.030	0.130	0.880
2020/01/31 11:11:53.9	292.700	-0.020	0.140	0.880
2020/01/31 11:11:54.0	292.690	-0.020	0.140	0.880
2020/01/31 11:11:54.1	292.680	-0.010	0.150	0.880
2020/01/31 11:11:54.2	292.670	-0.000	0.150	0.880
2020/01/31 11:11:54.3	292.660	0.000	0.150	0.880
2020/01/31 11:11:54.4	292.650	0.010	0.150	0.880
2020/01/31 11:11:54.5	292.650	0.010	0.150	0.880
2020/01/31 11:11:54.6	292.640	0.020	0.150	0.880
2020/01/31 11:11:54.7	292.640	0.030	0.140	0.870
2020/01/31 11:11:54.8	292.630	0.040	0.130	0.870
2020/01/31 11:11:54.9	292.620	0.040	0.110	0.860
2020/01/31 11:11:55.0	292.620	0.050	0.100	0.860
2020/01/31 11:11:55.1	292.620	0.060	0.080	0.850
2020/01/31 11:11:55.2	292.610	0.070	0.050	0.840
2020/01/31 11:11:55.3	292.610	0.090	0.030	0.830
2020/01/31 11:11:55.4	292.610	0.100	0.000	0.820
2020/01/31 11:11:55.5	292.600	0.110	-0.030	0.810
2020/01/31 11:11:55.6	292.600	0.130	-0.060	0.800
2020/01/31 11:11:55.7	292.590	0.140	-0.100	0.790
2020/01/31 11:11:55.8	292.590	0.150	-0.130	0.780
2020/01/31 11:11:55.9	292.590	0.170	-0.170	0.770
2020/01/31 11:11:56.0	292.590	0.190	-0.210	0.760
2020/01/31 11:11:56.1	292.590	0.200	-0.250	0.750
2020/01/31 11:11:56.2	292.590	0.220	-0.290	0.740
2020/01/31 11:11:56.3	292.600	0.230	-0.330	0.730
2020/01/31 11:11:56.4	292.600	0.250	-0.370	0.720
2020/01/31 11:11:56.5	292.590	0.270	-0.410	0.710
2020/01/31 11:11:56.6	292.600	0.280	-0.450	0.700
2020/01/31 11:11:56.7	292.600	0.300	-0.490	0.690
2020/01/31 11:11:56.8	292.610	0.310	-0.530	0.690
2020/01/31 11:11:56.9	292.610	0.320	-0.570	0.680
2020/01/31 11:11:57.0	292.620	0.340	-0.610	0.670
2020/01/31 11:11:57.1	292.620	0.350	-0.650	0.670
2020/01/31 11:11:57.2	292.630	0.360	-0.680	0.660
2020/01/31 11:11:57.3	292.640	0.360	-0.710	0.660
2020/01/31 11:11:57.4	292.640	0.370	-0.740	0.650
2020/01/31 11:11:57.5	292.650	0.380	-0.760	0.650
2020/01/31 11:11:57.6	292.660	0.380	-0.780	0.640
2020/01/31 11:11:57.7	292.670	0.380	-0.800	0.630
2020/01/31 11:11:57.8	292.680	0.380	-0.820	0.620
2020/01/31 11:11:57.9	292.690	0.380	-0.830	0.610
2020/01/31 11:11:58.0	292.700	0.370	-0.840	0.600
2020/01/31 11:11:58.1	292.710	0.360	-0.850	0.590
2020/01/31 11:11:58.2	292.720	0.350	-0.850	0.580
2020/01/31 11:11:58.3	292.740	0.340	-0.850	0.570
2020/01/31 11:11:58.4	292.750	0.320	-0.850	0.550
2020/01/31 11:11:58.5	292.770	0.310	-0.840	0.530
2020/01/31 11:11:58.6	292.780	0.290	-0.830	0.520
2020/01/31 11:11:58.7	292.800	0.260	-0.810	0.500
2020/01/31 11:11:58.8	292.810	0.240	-0.790	0.480
2020/01/31 11:11:58.9	292.820	0.210	-0.770	0.460
2020/01/31 11:11:59.0	292.840	0.190	-0.740	0.440
2020/01/31 11:11:59.1	292.850	0.160	-0.710	0.420
2020/01/31 11:11:59.2	292.870	0.130	-0.680	0.400
2020/01/31 11:11:59.3	292.880	0.090	-0.650	0.370
2020/01/31 11:11:59.4	292.900	0.060	-0.610	0.350
2020/01/31 11:11:59.5	292.910	0.030	-0.570	0.330
2020/01/31 11:11:59.6	292.920	-0.010	-0.530	0.310
2020/01/31 11:11:59.7	292.940	-0.040	-0.490	0.280
2020/01/31 11:11:59.8	292.950	-0.080	-0.450	0.260
2020/01/31 11:11:59.9	292.970	-0.110	-0.410	0.240
2020/01/31 11:12:00.0	292.980	-0.150	-0.370	0.220
2020/01/31 11:12:00.1	292.990	-0.180	-0.320	0.200
2020/01/31 11:12:00.2	293.010	-0.220	-0.280	0.180
2020/01/31 11:12:00.3	293.020	-0.250	-0.250	0.160
2020/01/31 11:12:00.4	293.030	-0.280	-0.210	0.140
2020/01/31 11:12:00.5	293.040	-0.310	-0.170	0.120
2020/01/31 11:12:00.6	293.050	-0.340	-0.140	0.100
2020/01/31 11:12:00.7	293.060	-0.370	-0.110	0.080
2020/01/31 11:12:00.8	293.070	-0.390	-0.080	0.070
2020/01/31 11:12:00.9	293.080	-0.420	-0.050	0.060
2020/01/31 11:12:01.0	293.090	-0.440	-0.030	0.050
2020/01/31 11:12:01.1	293.090	-0.460	-0.010	0.040
2020/01/31 11:12:01.2	293.100	-0.480	0.010	0.030
2020/01/31 11:12:01.3	293.100	-0.490	0.020	0.020
2020/01/31 11:12:01.4	293.110	-0.500	0.030	0.020
2020/01/31 11:12:01.5	293.120	-0.510	0.040	0.020
2020/01/31 11:12:01.6	293.120	-0.520	0.050	0.020
2020/01/31 11:12:01.7	293.130	-0.530	0.050	0.020
2020/01/31 11:12:01.8	293.130	-0.530	0.060	0.020
2020/01/31 11:12:01.9	293.140	-0.530	0.060	0.020
2020/01/31 11:12:02.0	293.140	-0.530	0.060	0.030
2020/01/31 11:12:02.1	293.140	-0.520	0.060	0.030
2020/01/31 11:12:02.2	293.150	-0.510	0.060	0.040
2020/01/31 11:12:02.3	293.150	-0.510	0.060	0.050
2020/01/31 11:12:02.4	293.150	-0.490	0.050	0.070
2020/01/31 11:12:02.5	293.170	-0.480	0.050	0.070
2020/01/31 11:12:02.6	293.170	-0.470	0.040	0.090
2020/01/31 11:12:02.7	293.170	-0.450	0.040	0.100
2020/01/31 11:12:02.8	293.180	-0.430	0.030	0.120
2020/01/31 11:12:02.9	293.180	-0.410	0.030	0.140
2020/01/31 11:12:03.0	293.180	-0.390	0.030	0.160
2020/01/31 11:12:03.1	293.180	-0.360	0.020	0.180
2020/01/31 11:12:03.2	293.180	-0.340	0.020	0.210
2020/01/31 11:12:03.3	293.170	-0.310	0.020	0.230
2020/01/31 11:12:03.4	293.170	-0.290	0.010	0.260
2020/01/31 11:12:03.5	293.170	-0.260	0.010	0.290
2020/01/31 11:12:03.6	293.170	-0.230	0.010	0.320
2020/01/31 11:12:03.7	293.160	-0.200	0.010	0.340
2020/01/31 11:12:03.8	293.150	-0.170	0.000	0.370
2020/01/31 11:12:03.9	293.140	-0.140	0.000	0.410
2020/01/31 11:12:04.0	293.140	-0.110	-0.000	0.440
2020/01/31 11:12:04.1	293.120	-0.080	-0.000	0.470
2020/01/31 11:12:04.2	293.110	-0.050	-0.010	0.500
2020/01/31 11:12:04.3	293.100	-0.020	-0.010	0.530
2020/01/31 11:12:04.4	293.090	0.010	-0.010	0.560
2020/01/31 11:12:04.5	293.080	0.040	-0.010	0.600
2020/01/31 11:12:04.6	293.070	0.070	-0.020	0.630
2020/01/31 11:12:04.7	293.050	0.100	-0.020	0.660
2020/01/31 11:12:04.8	293.040	0.130	-0.030	0.690
2020/01/31 11:12:04.9	293.020	0.160	-0.030	0.720
2020/01/31 11:12:05.0	293.010	0.180	-0.040	0.750
2020/01/31 11:12:05.1	292.990	0.210	-0.040	0.780
2020/01/31 11:12:05.2	292.980	0.230	-0.050	0.810
2020/01/31 11:12:05.3	292.970	0.260	-0.060	0.840
2020/01/31 11:12:05.4	292.950	0.280	-0.070	0.870
2020/01/31 11:12:05.5	292.940	0.300	-0.080	0.900
2020/01/31 11:12:05.6	292.920	0.320	-0.090	0.920
2020/01/31 11:12:05.7	292.910	0.340	-0.100	0.950
2020/01/31 11:12:05.8	292.900	0.350	-0.110	0.970
2020/01/31 11:12:05.9	292.880	0.370	-0.120	0.990
2020/01/31 11:12:06.0	292.870	0.380	-0.130	1.010
2020/01/31 11:12:06.1	292.860	0.390	-0.150	1.030
2020/01/31 11:12:06.2	292.850	0.400	-0.160	1.040
2020/01/31 11:12:06.3	292.840	0.410	-0.180	1.050
2020/01/31 11:12:06.4	292.820	0.410	-0.190	1.070
2020/01/31 11:12:06.5	292.820	0.420	-0.210	1.070
2020/01/31 11:12:06.6	292.810	0.420	-0.230	1.080
2020/01/31 11:12:06.7	292.800	0.420	-0.240	1.080
2020/01/31 11:12:06.8	292.790	0.420	-0.260	1.090
2020/01/31 11:12:06.9	292.780	0.420	-0.270	1.090
2020/01/31 11:12:07.0	292.770	0.420	-0.290	1.080
2020/01/31 11:12:07.1	292.760	0.410	-0.310	1.080
2020/01/31 11:12:07.2	292.750	0.400	-0.320	1.070
2020/01/31 11:12:07.3	292.740	0.390	-0.340	1.070
2020/01/31 11:12:07.4	292.730	0.380	-0.350	1.050
2020/01/31 11:12:07.5	292.710	0.370	-0.360	1.040
2020/01/31 11:12:07.6	292.700	0.360	-0.380	1.030
2020/01/31 11:12:07.7	292.680	0.350	-0.390	1.010
2020/01/31 11:12:07.8	292.680	0.330	-0.400	0.990
2020/01/31 11:12:07.9	292.670	0.310	-0.410	0.970
2020/01/31 11:12:08.0	292.660	0.300	-0.420	0.940
2020/01/31 11:12:08.1	292.650	0.280	-0.430	0.910
2020/01/31 11:12:08.2	292.640	0.260	-0.440	0.880
2020/01/31 11:12:08.3	292.640	0.240	-0.450	0.850
2020/01/31 11:12:08.4	292.630	0.220	-0.460	0.820
2020/01/31 11:12:08.5	292.610	0.190	-0.470	0.780
2020/01/31 11:12:08.6	292.610	0.170	-0.480	0.740
2020/01/31 11:12:08.7	292.610	0.150	-0.480	0.700
2020/01/31 11:12:08.8	292.610	0.120	-0.490	0.660
2020/01/31 11:12:08.9	292.610	0.100	-0.500	0.610
2020/01/31 11:12:09.0	292.620	0.080	-0.500	0.570
2020/01/31 11:12:09.1	292.620	0.050	-0.510	0.520
2020/01/31 11:12:09.2	292.630	0.030	-0.510	0.470
2020/01/31 11:12:09.3	292.640	0.010	-0.520	0.420
2020/01/31 11:12:09.4	292.650	-0.010	-0.520	0.370
2020/01/31 11:12:09.5	292.660	-0.030	-0.520	0.320
2020/01/31 11:12:09.6	292.670	-0.060	-0.530	0.270
2020/01/31 11:12:09.7	292.680	-0.080	-0.530	0.220
2020/01/31 11:12:09.8	292.700	-0.100	-0.520	0.170
2020/01/31 11:12:09.9	292.720	-0.110	-0.520	0.120
2020/01/31 11:12:10.0	292.730	-0.130	-0.520	0.070
2020/01/31 11:12:10.1	292.750	-0.150	-0.510	0.020
2020/01/31 11:12:10.2	292.770	-0.160	-0.510	-0.020
2020/01/31 11:12:10.3	292.790	-0.180	-0.500	-0.070
2020/01/31 11:12:10.4	292.810	-0.190	-0.490	-0.110
2020/01/31 11:12:10.5	292.820	-0.200	-0.480	-0.150
2020/01/31 11:12:10.6	292.840	-0.210	-0.470	-0.190
2020/01/31 11:12:10.7	292.860	-0.220	-0.460	-0.220
2020/01/31 11:12:10.8	292.890	-0.230	-0.450	-0.260
2020/01/31 11:12:10.9	292.910	-0.240	-0.440	-0.290
2020/01/31 11:12:11.0	292.930	-0.240	-0.430	-0.320
2020/01/31 11:12:11.1	292.960	-0.240	-0.410	-0.340
2020/01/31 11:12:11.2	292.980	-0.240	-0.400	-0.370
2020/01/31 11:12:11.3	293.010	-0.250	-0.390	-0.390
2020/01/31 11:12:11.4	293.030	-0.240	-0.380	-0.400
2020/01/31 11:12:11.5	293.060	-0.240	-0.370	-0.420
2020/01/31 11:12:11.6	293.080	-0.240	-0.360	-0.430
2020/01/31 11:12:11.7	293.110	-0.230	-0.350	-0.440
2020/01/31 11:12:11.8	293.130	-0.230	-0.340	-0.440
2020/01/31 11:12:11.9	293.160	-0.220	-0.330	-0.450
2020/01/31 11:12:12.0	293.180	-0.210	-0.320	-0.450
2020/01/31 11:12:12.1	293.200	-0.200	-0.310	-0.440
2020/01/31 11:12:12.2	293.230	-0.190	-0.300	-0.440
2020/01/31 11:12:12.3	293.250	-0.180	-0.300	-0.430
2020/01/31 11:12:12.4	293.280	-0.170	-0.290	-0.420
2020/01/31 11:12:12.5	293.300	-0.160	-0.280	-0.410
2020/01/31 11:12:12.6	293.330	-0.140	-0.280	-0.390
2020/01/31 11:12:12.7	293.350	-0.130	-0.270	-0.370
2020/01/31 11:12:12.8	293.370	-0.110	-0.270	-0.350
2020/01/31 11:12:12.9	293.390	-0.100	-0.270	-0.330
2020/01/31 11:12:13.0	293.410	-0.090	-0.270	-0.310
2020/01/31 11:12:13.1	293.430	-0.070	-0.260	-0.290
2020/01/31 11:12:13.2	293.450	-0.060	-0.260	-0.260
2020/01/31 11:12:13.3	293.470	-0.040	-0.260	-0.230
2020/01/31 11:12:13.4	293.490	-0.030	-0.250	-0.210
2020/01/31 11:12:13.5	293.520	-0.020	-0.250	-0.170
2020/01/31 11:12:13.6	293.540	-0.010	-0.240	-0.140
2020/01/31 11:12:13.7	293.560	0.000	-0.240	-0.110
2020/01/31 11:12:13.8	293.570	0.020	-0.230	-0.080
2020/01/31 11:12:13.9	293.580	0.020	-0.230	-0.040
2020/01/31 11:12:14.0	293.600	0.030	-0.220	-0.010
2020/01/31 11:12:14.1	293.610	0.040	-0.210	0.030
2020/01/31 11:12:14.2	293.620	0.050	-0.200	0.070
2020/01/31 11:12:14.3	293.620	0.050	-0.190	0.110
2020/01/31 11:12:14.4	293.630	0.060	-0.180	0.150
2020/01/31 11:12:14.5	293.640	0.060	-0.170	0.190
2020/01/31 11:12:14.6	293.640	0.060	-0.160	0.240
2020/01/31 11:12:14.7	293.640	0.060	-0.140	0.280
2020/01/31 11:12:14.8	293.640	0.060	-0.130	0.330
2020/01/31 11:12:14.9	293.640	0.060	-0.110	0.370
2020/01/31 11:12:15.0	293.640	0.060	-0.100	0.420
2020/01/31 11:12:15.1	293.630	0.060	-0.080	0.460
2020/01/31 11:12:15.2	293.620	0.050	-0.070	0.510
2020/01/31 11:12:15.3	293.610	0.050	-0.050	0.560
2020/01/31 11:12:15.4	293.600	0.040	-0.030	0.600
2020/01/31 11:12:15.5	293.590	0.030	-0.020	0.650
2020/01/31 11:12:15.6	293.580	0.030	-0.000	0.700
2020/01/31 11:12:15.7	293.560	0.020	0.010	0.740
2020/01/31 11:12:15.8	293.550	0.010	0.020	0.790
2020/01/31 11:12:15.9	293.530	0.010	0.040	0.830
2020/01/31 11:12:16.0	293.510	-0.000	0.050	0.870
2020/01/31 11:12:16.1	293.490	-0.010	0.060	0.920
2020/01/31 11:12:16.2	293.480	-0.020	0.070	0.960
2020/01/31 11:12:16.3	293.450	-0.030	0.070	1.000
2020/01/31 11:12:16.4	293.430	-0.040	0.080	1.030
2020/01/31 11:12:16.5	293.420	-0.040	0.080	1.070
2020/01/31 11:12:16.6	293.400	-0.050	0.080	1.100
2020/01/31 11:12:16.7	293.380	-0.060	0.080	1.130
2020/01/31 11:12:16.8	293.350	-0.070	0.080	1.160
2020/01/31 11:12:16.9	293.330	-0.070	0.080	1.190
2020/01/31 11:12:17.0	293.300	-0.080	0.070	1.220
2020/01/31 11:12:17.1	293.280	-0.080	0.070	1.250
2020/01/31 11:12:17.2	293.250	-0.090	0.060	1.270
2020/01/31 11:12:17.3	293.220	-0.100	0.050	1.290
2020/01/31 11:12:17.4	293.200	-0.100	0.040	1.310
2020/01/31 11:12:17.5	293.160	-0.110	0.020	1.330
2020/01/31 11:12:17.6	293.140	-0.110	0.010	1.340
2020/01/31 11:12:17.7	293.110	-0.110	-0.010	1.350
2020/01/31 11:12:17.8	293.080	-0.120	-0.020	1.360
2020/01/31 11:12:17.9	293.050	-0.120	-0.040	1.370
2020/01/31 11:12:18.0	293.030	-0.120	-0.060	1.370
2020/01/31 11:12:18.1	293.000	-0.130	-0.070	1.370
2020/01/31 11:12:18.2	292.970	-0.130	-0.090	1.360
2020/01/31 11:12:18.3	292.950	-0.130	-0.110	1.350
2020/01/31 11:12:18.4	292.920	-0.130	-0.130	1.340
2020/01/31 11:12:18.5	292.890	-0.130	-0.150	1.320
2020/01/31 11:12:18.6	292.870	-0.130	-0.170	1.300
2020/01/31 11:12:18.7	292.850	-0.130	-0.190	1.270
2020/01/31 11:12:18.8	292.830	-0.130	-0.210	1.240
2020/01/31 11:12:18.9	292.810	-0.130	-0.230	1.210
2020/01/31 11:12:19.0	292.790	-0.130	-0.250	1.180
2020/01/31 11:12:19.1	292.770	-0.130	-0.270	1.140
2020/01/31 11:12:19.2	292.750	-0.130	-0.290	1.100
2020/01/31 11:12:19.3	292.740	-0.130	-0.310	1.060
2020/01/31 11:12:19.4	292.730	-0.130	-0.330	1.020
2020/01/31 11:12:19.5	292.720	-0.120	-0.350	0.960
2020/01/31 11:12:19.6	292.720	-0.120	-0.370	0.910
2020/01/31 11:12:19.7	292.710	-0.120	-0.390	0.860
2020/01/31 11:12:19.8	292.700	-0.110	-0.410	0.810
2020/01/31 11:12:19.9	292.700	-0.110	-0.430	0.750
2020/01/31 11:12:20.0	292.700	-0.100	-0.450	0.690
2020/01/31 11:12:20.1	292.700	-0.100	-0.460	0.640
2020/01/31 11:12:20.2	292.700	-0.090	-0.480	0.580
2020/01/31 11:12:20.3	292.710	-0.080	-0.490	0.520
2020/01/31 11:12:20.4	292.720	-0.080	-0.510	0.460
2020/01/31 11:12:20.5	292.710	-0.070	-0.510	0.410
2020/01/31 11:12:20.6	292.720	-0.060	-0.530	0.360
2020/01/31 11:12:20.7	292.730	-0.050	-0.530	0.300
2020/01/31 11:12:20.8	292.750	-0.040	-0.540	0.250
2020/01/31 11:12:20.9	292.760	-0.030	-0.550	0.200
2020/01/31 11:12:21.0	292.780	-0.020	-0.550	0.150
2020/01/31 11:12:21.1	292.790	-0.000	-0.550	0.110
2020/01/31 11:12:21.2	292.810	0.010	-0.550	0.070
2020/01/31 11:12:21.3	292.830	0.020	-0.550	0.030
2020/01/31 11:12:21.4	292.850	0.030	-0.550	-0.010
2020/01/31 11:12:21.5	292.870	0.050	-0.540	-0.040
2020/01/31 11:12:21.6	292.890	0.060	-0.540	-0.070
2020/01/31 11:12:21.7	292.910	0.080	-0.530	-0.100
2020/01/31 11:12:21.8	292.930	0.090	-0.520	-0.120
2020/01/31 11:12:21.9	292.960	0.110	-0.510	-0.140
2020/01/31 11:12:22.0	292.980	0.120	-0.490	-0.150
2020/01/31 11:12:22.1	293.010	0.140	-0.480	-0.160
2020/01/31 11:12:22.2	293.040	0.150	-0.460	-0.170
2020/01/31 11:12:22.3	293.060	0.170	-0.450	-0.180
2020/01/31 11:12:22.4	293.090	0.180	-0.430	-0.180
2020/01/31 11:12:22.5	293.120	0.190	-0.410	-0.170
2020/01/31 11:12:22.6	293.140	0.210	-0.400	-0.170
2020/01/31 11:12:22.7	293.170	0.220	-0.380	-0.160
2020/01/31 11:12:22.8	293.190	0.230	-0.360	-0.140
2020/01/31 11:12:22.9	293.220	0.240	-0.340	-0.130
2020/01/31 11:12:23.0	293.240	0.250	-0.330	-0.110
2020/01/31 11:12:23.1	293.270	0.260	-0.310	-0.090
2020/01/31 11:12:23.2	293.290	0.270	-0.300	-0.070
2020/01/31 11:12:23.3	293.310	0.280	-0.280	-0.040
2020/01/31 11:12:23.4	293.330	0.290	-0.270	-0.020
2020/01/31 11:12:23.5	293.350	0.300	-0.250	0.010
2020/01/31 11:12:23.6	293.360	0.300	-0.240	0.040
2020/01/31 11:12:23.7	293.380	0.310	-0.230	0.070
2020/01/31 11:12:23.8	293.390	0.310	-0.220	0.110
2020/01/31 11:12:23.9	293.410	0.310	-0.210	0.140
2020/01/31 11:12:24.0	293.420	0.310	-0.200	0.180
2020/01/31 11:12:24.1	293.430	0.320	-0.190	0.220
2020/01/31 11:12:24.2	293.440	0.320	-0.180	0.260
2020/01/31 11:12:24.3	293.450	0.310	-0.180	0.290
2020/01/31 11:12:24.4	293.460	0.310	-0.170	0.330
2020/01/31 11:12:24.5	293.470	0.310	-0.170	0.370
2020/01/31 11:12:24.6	293.480	0.310	-0.170	0.410
2020/01/31 11:12:24.7	293.480	0.300	-0.170	0.450
2020/01/31 11:12:24.8	293.490	0.300	-0.170	0.490
2020/01/31 11:12:24.9	293.500	0.290	-0.170	0.520
2020/01/31 11:12:25.0	293.500	0.290	-0.170	0.560
2020/01/31 11:12:25.1	293.510	0.280	-0.180	0.590
2020/01/31 11:12:25.2	293.510	0.270	-0.180	0.620
2020/01/31 11:12:25.3	293.520	0.270	-0.190	0.650
2020/01/31 11:12:25.4	293.530	0.260	-0.200	0.680
2020/01/31 11:12:25.5	293.550	0.250	-0.210	0.710
2020/01/31 11:12:25.6	293.550	0.240	-0.220	0.730
2020/01/31 11:12:25.7	293.560	0.230	-0.220	0.750
2020/01/31 11:12:25.8	293.560	0.210	-0.230	0.770
2020/01/31 11:12:25.9	293.570	0.200	-0.250	0.780
2020/01/31 11:12:26.0	293.570	0.190	-0.260	0.800
2020/01/31 11:12:26.1	293.580	0.180	-0.260	0.810
2020/01/31 11:12:26.2	293.580	0.170	-0.270	0.820
2020/01/31 11:12:26.3	293.580	0.150	-0.280	0.820
2020/01/31 11:12:26.4	293.590	0.140	-0.290	0.830
2020/01/31 11:12:26.5	293.590	0.120	-0.300	0.830
2020/01/31 11:12:26.6	293.590	0.110	-0.310	0.830
2020/01/31 11:12:26.7	293.590	0.090	-0.310	0.830
2020/01/31 11:12:26.8	293.590	0.080	-0.310	0.830
2020/01/31 11:12:26.9	293.590	0.060	-0.320	0.820
2020/01/31 11:12:27.0	293.590	0.050	-0.320	0.820
2020/01/31 11:12:27.1	293.590	0.030	-0.320	0.810
2020/01/31 11:12:27.2	293.590	0.020	-0.310	0.800
2020/01/31 11:12:27.3	293.590	0.000	-0.310	0.790
2020/01/31 11:12:27.4	293.580	-0.020	-0.300	0.780
2020/01/31 11:12:27.5	293.570	-0.030	-0.290	0.770
2020/01/31 11:12:27.6	293.560	-0.050	-0.280	0.760
2020/01/31 11:12:27.7	293.560	-0.060	-0.270	0.750
2020/01/31 11:12:27.8	293.550	-0.080	-0.250	0.740
2020/01/31 11:12:27.9	293.540	-0.100	-0.240	0.730
2020/01/31 11:12:28.0	293.540	-0.110	-0.220	0.710
2020/01/31 11:12:28.1	293.530	-0.130	-0.200	0.700
2020/01/31 11:12:28.2	293.520	-0.140	-0.180	0.690
2020/01/31 11:12:28.3	293.510	-0.160	-0.160	0.680
2020/01/31 11:12:28.4	293.500	-0.170	-0.130	0.660
2020/01/31 11:12:28.5	293.490	-0.190	-0.110	0.650
2020/01/31 11:12:28.6	293.480	-0.200	-0.090	0.640
2020/01/31 11:12:28.7	293.470	-0.210	-0.070	0.620
2020/01/31 11:12:28.8	293.460	-0.230	-0.040	0.610
2020/01/31 11:12:28.9	293.450	-0.240	-0.020	0.600
2020/01/31 11:12:29.0	293.440	-0.250	0.000	0.580
2020/01/31 11:12:29.1	293.430	-0.270	0.030	0.570
2020/01/31 11:12:29.2	293.420	-0.280	0.050	0.550
2020/01/31 11:12:29.3	293.410	-0.290	0.070	0.540
2020/01/31 11:12:29.4	293.400	-0.300	0.090	0.520
2020/01/31 11:12:29.5	293.380	-0.310	0.100	0.500
2020/01/31 11:12:29.6	293.360	-0.320	0.120	0.480
2020/01/31 11:12:29.7	293.350	-0.330	0.130	0.470
2020/01/31 11:12:29.8	293.340	-0.340	0.140	0.460
2020/01/31 11:12:29.9	293.330	-0.340	0.160	0.440
2020/01/31 11:12:30.0	293.310	-0.350	0.160	0.430
2020/01/31 11:12:30.1	293.300	-0.360	0.170	0.410
2020/01/31 11:12:30.2	293.290	-0.360	0.170	0.400
2020/01/31 11:12:30.3	293.270	-0.370	0.180	0.390
2020/01/31 11:12:30.4	293.260	-0.370	0.180	0.380
2020/01/31 11:12:30.5	293.240	-0.370	0.180	0.370
2020/01/31 11:12:30.6	293.220	-0.370	0.170	0.360
2020/01/31 11:12:30.7	293.210	-0.370	0.160	0.350
2020/01/31 11:12:30.8	293.190	-0.370	0.150	0.340
2020/01/31 11:12:30.9	293.180	-0.370	0.140	0.340
2020/01/31 11:12:31.0	293.170	-0.370	0.120	0.330
2020/01/31 11:12:31.1	293.150	-0.360	0.100	0.320
2020/01/31 11:12:31.2	293.140	-0.360	0.080	0.320
2020/01/31 11:12:31.3	293.130	-0.350	0.060	0.310
2020/01/31 11:12:31.4	293.110	-0.340	0.040	0.310
2020/01/31 11:12:31.5	293.100	-0.330	0.000	0.300
2020/01/31 11:12:31.6	293.090	-0.320	-0.030	0.300
2020/01/31 11:12:31.7	293.080	-0.310	-0.060	0.300
2020/01/31 11:12:31.8	293.070	-0.300	-0.090	0.300
2020/01/31 11:12:31.9	293.060	-0.280	-0.120	0.300
2020/01/31 11:12:32.0	293.060	-0.260	-0.160	0.310
2020/01/31 11:12:32.1	293.050	-0.250	-0.200	0.310
2020/01/31 11:12:32.2	293.050	-0.230	-0.230	0.310
2020/01/31 11:12:32.3	293.040	-0.210	-0.270	0.320
2020/01/31 11:12:32.4	293.040	-0.190	-0.310	0.330
2020/01/31 11:12:32.5	293.040	-0.170	-0.350	0.330
2020/01/31 11:12:32.6	293.040	-0.150	-0.380	0.340
2020/01/31 11:12:32.7	293.040	-0.120	-0.420	0.350
2020/01/31 11:12:32.8	293.040	-0.100	-0.460	0.360
2020/01/31 11:12:32.9	293.040	-0.080	-0.500	0.370
2020/01/31 11:12:33.0	293.040	-0.060	-0.530	0.380
2020/01/31 11:12:33.1	293.040	-0.030	-0.570	0.390
2020/01/31 11:12:33.2	293.050	-0.010	-0.610	0.410
2020/01/31 11:12:33.3	293.050	0.010	-0.640	0.420
2020/01/31 11:12:33.4	293.060	0.030	-0.670	0.430
2020/01/31 11:12:33.5	293.050	0.050	-0.700	0.440
2020/01/31 11:12:33.6	293.060	0.070	-0.730	0.450
2020/01/31 11:12:33.7	293.070	0.090	-0.760	0.460
2020/01/31 11:12:33.8	293.080	0.110	-0.780	0.470
2020/01/31 11:12:33.9	293.090	0.130	-0.810	0.480
2020/01/31 11:12:34.0	293.110	0.150	-0.830	0.490
2020/01/31 11:12:34.1	293.120	0.160	-0.850	0.500
2020/01/31 11:12:34.2	293.130	0.180	-0.860	0.510
2020/01/31 11:12:34.3	293.150	0.190	-0.880	0.520
2020/01/31 11:12:34.4	293.160	0.210	-0.890	0.530
2020/01/31 11:12:34.5	293.170	0.220	-0.890	0.540
2020/01/31 11:12:34.6	293.190	0.230	-0.900	0.550
2020/01/31 11:12:34.7	293.200	0.240	-0.900	0.570
2020/01/31 11:12:34.8	293.220	0.240	-0.900	0.580
2020/01/31 11:12:34.9	293.230	0.250	-0.890	0.590
2020/01/31 11:12:35.0	293.250	0.260	-0.890	0.610
2020/01/31 11:12:35.1	293.270	0.260	-0.870	0.630
2020/01/31 11:12:35.2	293.280	0.260	-0.860	0.640
2020/01/31 11:12:35.3	293.300	0.260	-0.840	0.660
2020/01/31 11:12:35.4	293.310	0.260	-0.820	0.680
2020/01/31 11:12:35.5	293.330	0.260	-0.800	0.690
2020/01/31 11:12:35.6	293.340	0.260	-0.770	0.710
2020/01/31 11:12:35.7	293.360	0.260	-0.740	0.730
2020/01/31 11:12:35.8	293.370	0.250	-0.710	0.750
2020/01/31 11:12:35.9	293.390	0.250	-0.680	0.770
2020/01/31 11:12:36.0	293.400	0.240	-0.650	0.790
2020/01/31 11:12:36.1	293.420	0.240	-0.610	0.810
2020/01/31 11:12:36.2	293.430	0.230	-0.580	0.830
2020/01/31 11:12:36.3	293.450	0.220	-0.540	0.850
2020/01/31 11:12:36.4	293.460	0.210	-0.510	0.870
2020/01/31 11:12:36.5	293.480	0.200	-0.470	0.890
2020/01/31 11:12:36.6	293.500	0.190	-0.440	0.910
2020/01/31 11:12:36.7	293.510	0.180	-0.400	0.930
2020/01/31 11:12:36.8	293.530	0.170	-0.370	0.950
2020/01/31 11:12:36.9	293.540	0.170	-0.330	0.970
2020/01/31 11:12:37.0	293.560	0.160	-0.300	0.980
2020/01/31 11:12:37.1	293.570	0.150	-0.260	1.000
2020/01/31 11:12:37.2	293.580	0.140	-0.230	1.020
2020/01/31 11:12:37.3	293.600	0.130	-0.200	1.030
2020/01/31 11:12:37.4	293.610	0.120	-0.170	1.040
2020/01/31 11:12:37.5	293.620	0.110	-0.140	1.060
2020/01/31 11:12:37.6	293.630	0.100	-0.110	1.070
2020/01/31 11:12:37.7	293.640	0.090	-0.090	1.080
2020/01/31 11:12:37.8	293.650	0.080	-0.060	1.090
2020/01/31 11:12:37.9	293.660	0.070	-0.040	1.090
2020/01/31 11:12:38.0	293.670	0.070	-0.020	1.100
2020/01/31 11:12:38.1	293.670	0.060	0.000	1.100
2020/01/31 11:12:38.2	293.680	0.050	0.020	1.110
2020/01/31 11:12:38.3	293.680	0.050	0.040	1.110
2020/01/31 11:12:38.4	293.680	0.040	0.060	1.110
2020/01/31 11:12:38.5	293.690	0.030	0.080	1.110
2020/01/31 11:12:38.6	293.690	0.030	0.090	1.100
2020/01/31 11:12:38.7	293.690	0.020	0.110	1.090
2020/01/31 11:12:38.8	293.680	0.020	0.120	1.090
2020/01/31 11:12:38.9	293.680	0.010	0.130	1.080
2020/01/31 11:12:39.0	293.670	0.010	0.140	1.070
2020/01/31 11:12:39.1	293.670	0.000	0.150	1.050
2020/01/31 11:12:39.2	293.660	-0.000	0.170	1.040
2020/01/31 11:12:39.3	293.650	-0.000	0.180	1.020
2020/01/31 11:12:39.4	293.650	-0.010	0.190	1.000
2020/01/31 11:12:39.5	293.650	-0.010	0.190	0.980
2020/01/31 11:12:39.6	293.640	-0.020	0.200	0.960
2020/01/31 11:12:39.7	293.630	-0.020	0.210	0.930
2020/01/31 11:12:39.8	293.620	-0.030	0.220	0.910
2020/01/31 11:12:39.9	293.610	-0.030	0.230	0.880
2020/01/31 11:12:40.0	293.600	-0.030	0.240	0.850
2020/01/31 11:12:40.1	293.590	-0.040	0.250	0.820
2020/01/31 11:12:40.2	293.580	-0.040	0.260	0.790
2020/01/31 11:12:40.3	293.570	-0.050	0.270	0.760
2020/01/31 11:12:40.4	293.560	-0.050	0.280	0.730
2020/01/31 11:12:40.5	293.550	-0.050	0.290	0.690
2020/01/31 11:12:40.6	293.540	-0.060	0.290	0.660
2020/01/31 11:12:40.7	293.530	-0.060	0.300	0.620
2020/01/31 11:12:40.8	293.520	-0.060	0.310	0.580
2020/01/31 11:12:40.9	293.510	-0.060	0.310	0.550
2020/01/31 11:12:41.0	293.500	-0.070	0.320	0.510
2020/01/31 11:12:41.1	293.490	-0.070	0.320	0.470
2020/01/31 11:12:41.2	293.490	-0.070	0.320	0.430
2020/01/31 11:12:41.3	293.480	-0.070	0.320	0.400
2020/01/31 11:12:41.4	293.470	-0.070	0.320	0.360
2020/01/31 11:12:41.5	293.450	-0.070	0.310	0.330
2020/01/31 11:12:41.6	293.440	-0.070	0.310	0.290
2020/01/31 11:12:41.7	293.430	-0.070	0.300	0.260
2020/01/31 11:12:41.8	293.430	-0.060	0.290	0.230
2020/01/31 11:12:41.9	293.420	-0.060	0.280	0.200
2020/01/31 11:12:42.0	293.410	-0.060	0.260	0.170
2020/01/31 11:12:42.1	293.410	-0.060	0.240	0.140
2020/01/31 11:12:42.2	293.400	-0.050	0.230	0.110
2020/01/31 11:12:42.3	293.400	-0.050	0.200	0.090
2020/01/31 11:12:42.4	293.390	-0.040	0.180	0.070
2020/01/31 11:12:42.5	293.380	-0.030	0.150	0.050
2020/01/31 11:12:42.6	293.370	-0.030	0.130	0.030
2020/01/31 11:12:42.7	293.370	-0.020	0.100	0.010
2020/01/31 11:12:42.8	293.360	-0.010	0.070	-0.000
2020/01/31 11:12:42.9	293.350	-0.000	0.030	-0.020
2020/01/31 11:12:43.0	293.340	0.000	0.000	-0.030
2020/01/31 11:12:43.1	293.330	0.010	-0.030	-0.040
2020/01/31 11:12:43.2	293.330	0.020	-0.070	-0.040
2020/01/31 11:12:43.3	293.320	0.030	-0.100	-0.050
2020/01/31 11:12:43.4	293.310	0.040	-0.140	-0.050
2020/01/31 11:12:43.5	293.300	0.050	-0.170	-0.050
2020/01/31 11:12:43.6	293.280	0.060	-0.210	-0.050
2020/01/31 11:12:43.7	293.270	0.070	-0.240	-0.050
2020/01/31 11:12:43.8	293.260	0.080	-0.280	-0.050
2020/01/31 11:12:43.9	293.250	0.090	-0.310	-0.040
2020/01/31 11:12:44.0	293.240	0.100	-0.350	-0.030
2020/01/31 11:12:44.1	293.230	0.100	-0.380	-0.020
2020/01/31 11:12:44.2	293.210	0.110	-0.410	-0.010
2020/01/31 11:12:44.3	293.200	0.120	-0.440	0.000
2020/01/31 11:12:44.4	293.190	0.120	-0.470	0.020
2020/01/31 11:12:44.5	293.180	0.130	-0.500	0.030
2020/01/31 11:12:44.6	293.160	0.130	-0.530	0.050
2020/01/31 11:12:44.7	293.150	0.140	-0.560	0.070
2020/01/31 11:12:44.8	293.140	0.140	-0.580	0.090
2020/01/31 11:12:44.9	293.120	0.140	-0.610	0.110
2020/01/31 11:12:45.0	293.110	0.140	-0.640	0.130
2020/01/31 11:12:45.1	293.090	0.140	-0.660	0.150
2020/01/31 11:12:45.2	293.080	0.140	-0.690	0.170
2020/01/31 11:12:45.3	293.070	0.140	-0.710	0.190
2020/01/31 11:12:45.4	293.060	0.130	-0.740	0.210
2020/01/31 11:12:45.5	293.040	0.130	-0.760	0.230
2020/01/31 11:12:45.6	293.030	0.120	-0.780	0.250
2020/01/31 11:12:45.7	293.020	0.120	-0.800	0.270
2020/01/31 11:12:45.8	293.010	0.110	-0.820	0.290
2020/01/31 11:12:45.9	293.010	0.100	-0.840	0.310
2020/01/31 11:12:46.0	293.010	0.100	-0.860	0.330
2020/01/31 11:12:46.1	293.000	0.090	-0.880	0.350
2020/01/31 11:12:46.2	293.010	0.080	-0.890	0.370
2020/01/31 11:12:46.3	293.010	0.070	-0.910	0.380
2020/01/31 11:12:46.4	293.020	0.060	-0.920	0.400
2020/01/31 11:12:46.5	293.020	0.050	-0.930	0.410
2020/01/31 11:12:46.6	293.030	0.040	-0.940	0.420
2020/01/31 11:12:46.7	293.050	0.030	-0.950	0.430
2020/01/31 11:12:46.8	293.060	0.010	-0.950	0.440
2020/01/31 11:12:46.9	293.080	0.000	-0.960	0.440
2020/01/31 11:12:47.0	293.100	-0.010	-0.960	0.450
2020/01/31 11:12:47.1	293.120	-0.020	-0.960	0.450
2020/01/31 11:12:47.2	293.150	-0.040	-0.960	0.450
2020/01/31 11:12:47.3	293.170	-0.050	-0.960	0.450
2020/01/31 11:12:47.4	293.200	-0.060	-0.960	0.440
2020/01/31 11:12:47.5	293.230	-0.080	-0.950	0.440
2020/01/31 11:12:47.6	293.260	-0.090	-0.940	0.440
2020/01/31 11:12:47.7	293.290	-0.100	-0.930	0.430
2020/01/31 11:12:47.8	293.320	-0.110	-0.920	0.420
2020/01/31 11:12:47.9	293.350	-0.130	-0.900	0.420
2020/01/31 11:12:48.0	293.380	-0.140	-0.890	0.410
2020/01/31 11:12:48.1	293.410	-0.150	-0.870	0.400
2020/01/31 11:12:48.2	293.440	-0.160	-0.840	0.400
2020/01/31 11:12:48.3	293.470	-0.180	-0.820	0.390
2020/01/31 11:12:48.4	293.500	-0.190	-0.800	0.380
2020/01/31 11:12:48.5	293.540	-0.200	-0.760	0.380
2020/01/31 11:12:48.6	293.560	-0.210	-0.730	0.370
2020/01/31 11:12:48.7	293.590	-0.220	-0.700	0.370
2020/01/31 11:12:48.8	293.610	-0.230	-0.670	0.370
2020/01/31 11:12:48.9	293.630	-0.240	-0.630	0.370
2020/01/31 11:12:49.0	293.650	-0.250	-0.590	0.370
2020/01/31 11:12:49.1	293.670	-0.260	-0.550	0.370
2020/01/31 11:12:49.2	293.690	-0.260	-0.510	0.370
2020/01/31 11:12:49.3	293.700	-0.270	-0.470	0.380
2020/01/31 11:12:49.4	293.710	-0.280	-0.420	0.380
2020/01/31 11:12:49.5	293.710	-0.280	-0.380	0.390
2020/01/31 11:12:49.6	293.720	-0.290	-0.340	0.400
2020/01/31 11:12:49.7	293.720	-0.290	-0.290	0.400
2020/01/31 11:12:49.8	293.730	-0.300	-0.240	0.410
2020/01/31 11:12:49.9	293.730	-0.300	-0.200	0.420
2020/01/31 11:12:50.0	293.720	-0.310	-0.150	0.440
2020/01/31 11:12:50.1	293.720	-0.310	-0.110	0.450
2020/01/31 11:12:50.2	293.710	-0.310	-0.060	0.460
2020/01/31 11:12:50.3	293.700	-0.310	-0.020	0.480
2020/01/31 11:12:50.4	293.690	-0.310	0.020	0.490
2020/01/31 11:12:50.5	293.690	-0.310	0.070	0.510
2020/01/31 11:12:50.6	293.670	-0.300	0.110	0.530
2020/01/31 11:12:50.7	293.660	-0.300	0.150	0.540
2020/01/31 11:12:50.8	293.640	-0.300	0.180	0.560
2020/01/31 11:12:50.9	293.620	-0.290	0.220	0.580
2020/01/31 11:12:51.0	293.600	-0.280	0.250	0.590
2020/01/31 11:12:51.1	293.580	-0.280	0.280	0.610
2020/01/31 11:12:51.2	293.560	-0.270	0.310	0.620
2020/01/31 11:12:51.3	293.540	-0.260	0.340	0.640
2020/01/31 11:12:51.4	293.510	-0.250	0.370	0.650
2020/01/31 11:12:51.5	293.490	-0.230	0.390	0.660
2020/01/31 11:12:51.6	293.470	-0.220	0.410	0.670
2020/01/31 11:12:51.7	293.450	-0.210	0.430	0.680
2020/01/31 11:12:51.8	293.430	-0.190	0.450	0.680
2020/01/31 11:12:51.9	293.410	-0.180	0.460	0.690
2020/01/31 11:12:52.0	293.390	-0.160	0.470	0.690
2020/01/31 11:12:52.1	293.370	-0.150	0.470	0.690
2020/01/31 11:12:52.2	293.350	-0.130	0.470	0.690
2020/01/31 11:12:52.3	293.340	-0.110	0.470	0.690
2020/01/31 11:12:52.4	293.320	-0.090	0.470	0.690
2020/01/31 11:12:52.5	293.300	-0.070	0.460	0.680
2020/01/31 11:12:52.6	293.280	-0.050	0.460	0.680
2020/01/31 11:12:52.7	293.270	-0.030	0.440	0.670
2020/01/31 11:12:52.8	293.260	-0.010	0.430	0.660
2020/01/31 11:12:52.9	293.240	0.010	0.410	0.650
2020/01/31 11:12:53.0	293.230	0.030	0.400	0.640
2020/01/31 11:12:53.1	293.220	0.050	0.380	0.630
2020/01/31 11:12:53.2	293.210	0.060	0.350	0.620
2020/01/31 11:12:53.3	293.200	0.080	0.330	0.610
2020/01/31 11:12:53.4	293.190	0.100	0.300	0.600
2020/01/31 11:12:53.5	293.190	0.120	0.280	0.580
2020/01/31 11:12:53.6	293.190	0.140	0.250	0.570
2020/01/31 11:12:53.7	293.180	0.160	0.220	0.560
2020/01/31 11:12:53.8	293.180	0.170	0.190	0.550
2020/01/31 11:12:53.9	293.180	0.190	0.160	0.530
2020/01/31 11:12:54.0	293.180	0.210	0.130	0.520
2020/01/31 11:12:54.1	293.180	0.220	0.100	0.510
2020/01/31 11:12:54.2	293.190	0.230	0.070	0.490
2020/01/31 11:12:54.3	293.190	0.250	0.040	0.480
2020/01/31 11:12:54.4	293.190	0.260	0.010	0.460
2020/01/31 11:12:54.5	293.200	0.270	-0.030	0.450
2020/01/31 11:12:54.6	293.210	0.280	-0.050	0.430
2020/01/31 11:12:54.7	293.210	0.290	-0.080	0.420
2020/01/31 11:12:54.8	293.220	0.300	-0.110	0.400
2020/01/31 11:12:54.9	293.230	0.300	-0.130	0.380
2020/01/31 11:12:55.0	293.240	0.310	-0.150	0.370
2020/01/31 11:12:55.1	293.250	0.310	-0.170	0.350
2020/01/31 11:12:55.2	293.250	0.320	-0.190	0.340
2020/01/31 11:12:55.3	293.260	0.320	-0.210	0.320
2020/01/31 11:12:55.4	293.270	0.320	-0.230	0.300
2020/01/31 11:12:55.5	293.270	0.320	-0.240	0.290
2020/01/31 11:12:55.6	293.270	0.320	-0.260	0.270
2020/01/31 11:12:55.7	293.280	0.320	-0.270	0.260
2020/01/31 11:12:55.8	293.280	0.320	-0.280	0.240
2020/01/31 11:12:55.9	293.290	0.310	-0.290	0.230
2020/01/31 11:12:56.0	293.290	0.310	-0.290	0.220
2020/01/31 11:12:56.1	293.300	0.300	-0.300	0.210
2020/01/31 11:12:56.2	293.300	0.300	-0.300	0.200
2020/01/31 11:12:56.3	293.300	0.290	-0.310	0.190
2020/01/31 11:12:56.4	293.300	0.280	-0.310	0.180
2020/01/31 11:12:56.5	293.290	0.270	-0.320	0.170
2020/01/31 11:12:56.6	293.290	0.260	-0.320	0.170
2020/01/31 11:12:56.7	293.280	0.250	-0.320	0.160
2020/01/31 11:12:56.8	293.280	0.240	-0.320	0.160
2020/01/31 11:12:56.9	293.280	0.230	-0.320	0.160
2020/01/31 11:12:57.0	293.280	0.220	-0.320	0.150
2020/01/31 11:12:57.1	293.270	0.210	-0.320	0.150
2020/01/31 11:12:57.2	293.270	0.200	-0.330	0.150
2020/01/31 11:12:57.3	293.260	0.190	-0.330	0.150
2020/01/31 11:12:57.4	293.260	0.170	-0.330	0.150
2020/01/31 11:12:57.5	293.260	0.160	-0.340	0.140
2020/01/31 11:12:57.6	293.260	0.150	-0.350	0.140
2020/01/31 11:12:57.7	293.250	0.130	-0.360	0.140
2020/01/31 11:12:57.8	293.250	0.120	-0.370	0.140
2020/01/31 11:12:57.9	293.240	0.110	-0.380	0.140
2020/01/31 11:12:58.0	293.230	0.100	-0.390	0.140
2020/01/31 11:12:58.1	293.220	0.080	-0.410	0.140
2020/01/31 11:12:58.2	293.220	0.070	-0.430	0.140
2020/01/31 11:12:58.3	293.210	0.060	-0.440	0.140
2020/01/31 11:12:58.4	293.200	0.040	-0.460	0.140
2020/01/31 11:12:58.5	293.190	0.030	-0.480	0.140
2020/01/31 11:12:58.6	293.190	0.020	-0.510	0.140
2020/01/31 11:12:58.7	293.180	0.010	-0.530	0.140
2020/01/31 11:12:58.8	293.180	-0.000	-0.550	0.130
2020/01/31 11:12:58.9	293.170	-0.020	-0.570	0.130
2020/01/31 11:12:59.0	293.170	-0.030	-0.600	0.130
2020/01/31 11:12:59.1	293.160	-0.040	-0.620	0.120
2020/01/31 11:12:59.2	293.160	-0.050	-0.640	0.120
2020/01/31 11:12:59.3	293.160	-0.060	-0.670	0.110
2020/01/31 11:12:59.4	293.150	-0.070	-0.690	0.110
2020/01/31 11:12:59.5	293.160	-0.080	-0.700	0.100
2020/01/31 11:12:59.6	293.160	-0.090	-0.720	0.100
2020/01/31 11:12:59.7	293.160	-0.100	-0.740	0.100
2020/01/31 11:12:59.8	293.160	-0.110	-0.760	0.090
2020/01/31 11:12:59.9	293.160	-0.120	-0.770	0.090
2020/01/31 11:13:00.0	293.170	-0.120	-0.790	0.090
2020/01/31 11:13:00.1	293.170	-0.130	-0.800	0.090
2020/01/31 11:13:00.2	293.180	-0.140	-0.800	0.090
2020/01/31 11:13:00.3	293.180	-0.150	-0.810	0.100
2020/01/31 11:13:00.4	293.190	-0.160	-0.810	0.100
2020/01/31 11:13:00.5	293.200	-0.170	-0.810	0.110
2020/01/31 11:13:00.6	293.200	-0.170	-0.810	0.120
2020/01/31 11:13:00.7	293.210	-0.180	-0.800	0.130
2020/01/31 11:13:00.8	293.220	-0.190	-0.790	0.140
2020/01/31 11:13:00.9	293.230	-0.200	-0.780	0.160
2020/01/31 11:13:01.0	293.230	-0.210	-0.770	0.170
2020/01/31 11:13:01.1	293.240	-0.210	-0.750	0.190
2020/01/31 11:13:01.2	293.250	-0.220	-0.730	0.210
2020/01/31 11:13:01.3	293.250	-0.230	-0.710	0.240
2020/01/31 11:13:01.4	293.260	-0.230	-0.680	0.260
2020/01/31 11:13:01.5	293.260	-0.240	-0.650	0.290
2020/01/31 11:13:01.6	293.260	-0.250	-0.620	0.320
2020/01/31 11:13:01.7	293.270	-0.250	-0.590	0.350
2020/01/31 11:13:01.8	293.270	-0.260	-0.560	0.380
2020/01/31 11:13:01.9	293.270	-0.260	-0.530	0.410
2020/01/31 11:13:02.0	293.270	-0.270	-0.490	0.450
2020/01/31 11:13:02.1	293.280	-0.270	-0.460	0.480
2020/01/31 11:13:02.2	293.280	-0.270	-0.420	0.520
2020/01/31 11:13:02.3	293.280	-0.280	-0.390	0.560
2020/01/31 11:13:02.4	293.280	-0.280	-0.350	0.590
2020/01/31 11:13:02.5	293.280	-0.280	-0.320	0.630
2020/01/31 11:13:02.6	293.280	-0.280	-0.280	0.670
2020/01/31 11:13:02.7	293.280	-0.280	-0.250	0.700
2020/01/31 11:13:02.8	293.280	-0.270	-0.220	0.740
2020/01/31 11:13:02.9	293.290	-0.270	-0.190	0.770
2020/01/31 11:13:03.0	293.290	-0.270	-0.160	0.810
2020/01/31 11:13:03.1	293.290	-0.260	-0.130	0.840
2020/01/31 11:13:03.2	293.290	-0.250	-0.100	0.870
2020/01/31 11:13:03.3	293.290	-0.250	-0.080	0.900
2020/01/31 11:13:03.4	293.290	-0.240	-0.060	0.930
2020/01/31 11:13:03.5	293.300	-0.230	-0.040	0.960
2020/01/31 11:13:03.6	293.310	-0.220	-0.020	0.990
2020/01/31 11:13:03.7	293.310	-0.200	-0.000	1.010
2020/01/31 11:13:03.8	293.310	-0.190	0.010	1.030
2020/01/31 11:13:03.9	293.310	-0.180	0.030	1.050
2020/01/31 11:13:04.0	293.310	-0.160	0.040	1.070
2020/01/31 11:13:04.1	293.310	-0.150	0.040	1.090
2020/01/31 11:13:04.2	293.310	-0.130	0.050	1.100
2020/01/31 11:13:04.3	293.310	-0.110	0.060	1.120
2020/01/31 11:13:04.4	293.310	-0.100	0.060	1.130
2020/01/31 11:13:04.5	293.320	-0.080	0.070	1.140
2020/01/31 11:13:04.6	293.320	-0.060	0.070	1.140
2020/01/31 11:13:04.7	293.320	-0.040	0.070	1.140
2020/01/31 11:13:04.8	293.320	-0.020	0.070	1.150
2020/01/31 11:13:04.9	293.320	-0.010	0.070	1.140
2020/01/31 11:13:05.0	293.320	0.010	0.070	1.140
2020/01/31 11:13:05.1	293.320	0.030	0.070	1.130
2020/01/31 11:13:05.2	293.320	0.050	0.070	1.130
2020/01/31 11:13:05.3	293.320	0.070	0.070	1.120
2020/01/31 11:13:05.4	293.320	0.090	0.070	1.110
2020/01/31 11:13:05.5	293.330	0.100	0.080	1.090
2020/01/31 11:13:05.6	293.320	0.120	0.080	1.070
2020/01/31 11:13:05.7	293.320	0.140	0.080	1.060
2020/01/31 11:13:05.8	293.320	0.150	0.080	1.040
2020/01/31 11:13:05.9	293.310	0.160	0.090	1.020
2020/01/31 11:13:06.0	293.310	0.180	0.090	1.010
2020/01/31 11:13:06.1	293.310	0.190	0.100	0.990
2020/01/31 11:13:06.2	293.300	0.200	0.100	0.960
2020/01/31 11:13:06.3	293.290	0.210	0.110	0.940
2020/01/31 11:13:06.4	293.290	0.220	0.110	0.920
2020/01/31 11:13:06.5	293.270	0.230	0.120	0.890
2020/01/31 11:13:06.6	293.260	0.230	0.120	0.870
2020/01/31 11:13:06.7	293.250	0.240	0.130	0.840
2020/01/31 11:13:06.8	293.240	0.240	0.140	0.820
2020/01/31 11:13:06.9	293.230	0.240	0.140	0.790
2020/01/31 11:13:07.0	293.210	0.240	0.150	0.760
2020/01/31 11:13:07.1	293.200	0.240	0.150	0.730
2020/01/31 11:13:07.2	293.190	0.240	0.150	0.700
2020/01/31 11:13:07.3	293.170	0.240	0.160	0.670
2020/01/31 11:13:07.4	293.160	0.240	0.160	0.640
2020/01/31 11:13:07.5	293.140	0.240	0.160	0.600
2020/01/31 11:13:07.6	293.120	0.230	0.160	0.570
2020/01/31 11:13:07.7	293.100	0.230	0.160	0.540
2020/01/31 11:13:07.8	293.090	0.220	0.150	0.500
2020/01/31 11:13:07.9	293.070	0.220	0.150	0.470
2020/01/31 11:13:08.0	293.060	0.210	0.140	0.440
2020/01/31 11:13:08.1	293.040	0.210	0.130	0.400
2020/01/31 11:13:08.2	293.030	0.200	0.120	0.360
2020/01/31 11:13:08.3	293.010	0.190	0.100	0.330
2020/01/31 11:13:08.4	293.000	0.190	0.080	0.290
2020/01/31 11:13:08.5	292.970	0.180	0.060	0.250
2020/01/31 11:13:08.6	292.950	0.170	0.040	0.210
2020/01/31 11:13:08.7	292.940	0.170	0.020	0.180
2020/01/31 11:13:08.8	292.930	0.160	-0.000	0.140
2020/01/31 11:13:08.9	292.920	0.160	-0.030	0.110
2020/01/31 11:13:09.0	292.910	0.150	-0.060	0.070
2020/01/31 11:13:09.1	292.900	0.140	-0.090	0.040
2020/01/31 11:13:09.2	292.900	0.140	-0.120	0.000
2020/01/31 11:13:09.3	292.890	0.130	-0.160	-0.030
2020/01/31 11:13:09.4	292.890	0.130	-0.190	-0.070
2020/01/31 11:13:09.5	292.870	0.120	-0.230	-0.100
2020/01/31 11:13:09.6	292.870	0.120	-0.270	-0.130
2020/01/31 11:13:09.7	292.870	0.110	-0.310	-0.160
2020/01/31 11:13:09.8	292.870	0.110	-0.350	-0.180
2020/01/31 11:13:09.9	292.870	0.100	-0.390	-0.210
2020/01/31 11:13:10.0	292.870	0.100	-0.430	-0.240
2020/01/31 11:13:10.1	292.870	0.100	-0.480	-0.260
2020/01/31 11:13:10.2	292.870	0.090	-0.520	-0.280
2020/01/31 11:13:10.3	292.880	0.090	-0.560	-0.300
2020/01/31 11:13:10.4	292.880	0.080	-0.610	-0.320
2020/01/31 11:13:10.5	292.880	0.080	-0.650	-0.330
2020/01/31 11:13:10.6	292.880	0.070	-0.690	-0.350
2020/01/31 11:13:10.7	292.890	0.070	-0.730	-0.360
2020/01/31 11:13:10.8	292.900	0.060	-0.770	-0.370
2020/01/31 11:13:10.9	292.910	0.060	-0.810	-0.380
2020/01/31 11:13:11.0	292.920	0.050	-0.850	-0.380
2020/01/31 11:13:11.1	292.930	0.040	-0.880	-0.380
2020/01/31 11:13:11.2	292.940	0.040	-0.910	-0.390
2020/01/31 11:13:11.3	292.950	0.030	-0.940	-0.380
2020/01/31 11:13:11.4	292.970	0.020	-0.970	-0.380
2020/01/31 11:13:11.5	292.980	0.010	-0.990	-0.370
2020/01/31 11:13:11.6	293.000	-0.000	-1.000	-0.370
2020/01/31 11:13:11.7	293.010	-0.010	-1.020	-0.350
2020/01/31 11:13:11.8	293.030	-0.020	-1.020	-0.340
2020/01/31 11:13:11.9	293.040	-0.040	-1.020	-0.320
2020/01/31 11:13:12.0	293.060	-0.050	-1.020	-0.300
2020/01/31 11:13:12.1	293.070	-0.060	-1.010	-0.280
2020/01/31 11:13:12.2	293.090	-0.080	-1.000	-0.260
2020/01/31 11:13:12.3	293.100	-0.090	-0.980	-0.230
2020/01/31 11:13:12.4	293.120	-0.110	-0.960	-0.200
2020/01/31 11:13:12.5	293.130	-0.120	-0.930	-0.170
2020/01/31 11:13:12.6	293.150	-0.140	-0.890	-0.140
2020/01/31 11:13:12.7	293.160	-0.160	-0.860	-0.100
2020/01/31 11:13:12.8	293.170	-0.170	-0.820	-0.060
2020/01/31 11:13:12.9	293.180	-0.190	-0.770	-0.020
2020/01/31 11:13:13.0	293.190	-0.210	-0.730	0.020
2020/01/31 11:13:13.1	293.200	-0.230	-0.670	0.070
2020/01/31 11:13:13.2	293.210	-0.240	-0.620	0.110
2020/01/31 11:13:13.3	293.220	-0.260	-0.560	0.160
2020/01/31 11:13:13.4	293.220	-0.280	-0.510	0.210
2020/01/31 11:13:13.5	293.240	-0.300	-0.450	0.260
2020/01/31 11:13:13.6	293.250	-0.310	-0.390	0.310
2020/01/31 11:13:13.7	293.250	-0.330	-0.330	0.360
2020/01/31 11:13:13.8	293.260	-0.340	-0.270	0.410
2020/01/31 11:13:13.9	293.260	-0.350	-0.210	0.460
2020/01/31 11:13:14.0	293.260	-0.370	-0.150	0.500
2020/01/31 11:13:14.1	293.260	-0.380	-0.100	0.550
2020/01/31 11:13:14.2	293.260	-0.390	-0.040	0.600
2020/01/31 11:13:14.3	293.260	-0.400	0.010	0.650
2020/01/31 11:13:14.4	293.260	-0.410	0.060	0.690
2020/01/31 11:13:14.5	293.260	-0.410	0.110	0.730
2020/01/31 11:13:14.6	293.250	-0.420	0.160	0.780
2020/01/31 11:13:14.7	293.250	-0.420	0.200	0.820
2020/01/31 11:13:14.8	293.240	-0.430	0.240	0.860
2020/01/31 11:13:14.9	293.230	-0.430	0.270	0.890
2020/01/31 11:13:15.0	293.220	-0.430	0.300	0.930
2020/01/31 11:13:15.1	293.210	-0.420	0.330	0.960
2020/01/31 11:13:15.2	293.200	-0.420	0.350	0.990
2020/01/31 11:13:15.3	293.190	-0.410	0.370	1.020
2020/01/31 11:13:15.4	293.180	-0.410	0.380	1.040
2020/01/31 11:13:15.5	293.160	-0.400	0.390	1.070
2020/01/31 11:13:15.6	293.150	-0.380	0.400	1.080
2020/01/31 11:13:15.7	293.130	-0.370	0.400	1.100
2020/01/31 11:13:15.8	293.120	-0.360	0.390	1.110
2020/01/31 11:13:15.9	293.100	-0.340	0.380	1.120
2020/01/31 11:13:16.0	293.090	-0.320	0.370	1.120
2020/01/31 11:13:16.1	293.070	-0.300	0.350	1.120
2020/01/31 11:13:16.2	293.060	-0.280	0.330	1.120
2020/01/31 11:13:16.3	293.050	-0.260	0.310	1.110
2020/01/31 11:13:16.4	293.030	-0.240	0.280	1.090
2020/01/31 11:13:16.5	293.020	-0.210	0.250	1.080
2020/01/31 11:13:16.6	293.000	-0.190	0.220	1.060
2020/01/31 11:13:16.7	292.990	-0.160	0.180	1.030
2020/01/31 11:13:16.8	292.980	-0.130	0.140	1.010
2020/01/31 11:13:16.9	292.970	-0.100	0.100	0.980
2020/01/31 11:13:17.0	292.970	-0.070	0.060	0.950
2020/01/31 11:13:17.1	292.960	-0.040	0.020	0.920
2020/01/31 11:13:17.2	292.950	-0.010	-0.020	0.890
2020/01/31 11:13:17.3	292.940	0.020	-0.060	0.860
2020/01/31 11:13:17.4	292.940	0.050	-0.100	0.820
2020/01/31 11:13:17.5	292.930	0.080	-0.140	0.780
2020/01/31 11:13:17.6	292.930	0.110	-0.180	0.750
2020/01/31 11:13:17.7	292.920	0.140	-0.220	0.710
2020/01/31 11:13:17.8	292.920	0.170	-0.250	0.670
2020/01/31 11:13:17.9	292.910	0.200	-0.290	0.630
2020/01/31 11:13:18.0	292.910	0.230	-0.320	0.590
2020/01/31 11:13:18.1	292.910	0.260	-0.340	0.550
2020/01/31 11:13:18.2	292.910	0.290	-0.370	0.510
2020/01/31 11:13:18.3	292.910	0.310	-0.390	0.470
2020/01/31 11:13:18.4	292.920	0.340	-0.410	0.430
2020/01/31 11:13:18.5	292.910	0.360	-0.420	0.390
2020/01/31 11:13:18.6	292.910	0.390	-0.430	0.350
2020/01/31 11:13:18.7	292.920	0.410	-0.440	0.310
2020/01/31 11:13:18.8	292.920	0.430	-0.450	0.280
2020/01/31 11:13:18.9	292.930	0.450	-0.450	0.240
2020/01/31 11:13:19.0	292.940	0.460	-0.460	0.210
2020/01/31 11:13:19.1	292.950	0.480	-0.450	0.180
2020/01/31 11:13:19.2	292.960	0.500	-0.450	0.150
2020/01/31 11:13:19.3	292.960	0.510	-0.450	0.120
2020/01/31 11:13:19.4	292.970	0.520	-0.440	0.100
2020/01/31 11:13:19.5	292.990	0.530	-0.430	0.080
2020/01/31 11:13:19.6	293.000	0.550	-0.420	0.060
2020/01/31 11:13:19.7	293.010	0.550	-0.400	0.040
2020/01/31 11:13:19.8	293.020	0.560	-0.390	0.030
2020/01/31 11:13:19.9	293.040	0.570	-0.380	0.010
2020/01/31 11:13:20.0	293.050	0.570	-0.360	0.010
2020/01/31 11:13:20.1	293.060	0.580	-0.350	-0.000
2020/01/31 11:13:20.2	293.070	0.580	-0.330	-0.000
2020/01/31 11:13:20.3	293.080	0.580	-0.320	-0.010
2020/01/31 11:13:20.4	293.100	0.580	-0.300	-0.000
2020/01/31 11:13:20.5	293.110	0.580	-0.290	0.000
2020/01/31 11:13:20.6	293.120	0.580	-0.280	0.010
2020/01/31 11:13:20.7	293.130	0.580	-0.260	0.020
2020/01/31 11:13:20.8	293.150	0.570	-0.250	0.030
2020/01/31 11:13:20.9	293.160	0.570	-0.240	0.040
2020/01/31 11:13:21.0	293.170	0.560	-0.220	0.050
2020/01/31 11:13:21.1	293.180	0.550	-0.210	0.070
2020/01/31 11:13:21.2	293.190	0.540	-0.210	0.080
2020/01/31 11:13:21.3	293.200	0.530	-0.200	0.100
2020/01/31 11:13:21.4	293.210	0.520	-0.200	0.120
2020/01/31 11:13:21.5	293.210	0.510	-0.190	0.130
2020/01/31 11:13:21.6	293.220	0.490	-0.190	0.150
2020/01/31 11:13:21.7	293.230	0.480	-0.190	0.170
2020/01/31 11:13:21.8	293.240	0.460	-0.190	0.190
2020/01/31 11:13:21.9	293.250	0.440	-0.200	0.210
2020/01/31 11:13:22.0	293.260	0.420	-0.210	0.230
2020/01/31 11:13:22.1	293.270	0.400	-0.220	0.250
2020/01/31 11:13:22.2	293.280	0.380	-0.230	0.270
2020/01/31 11:13:22.3	293.280	0.360	-0.240	0.290
2020/01/31 11:13:22.4	293.290	0.330	-0.260	0.300
2020/01/31 11:13:22.5	293.300	0.310	-0.280	0.320
2020/01/31 11:13:22.6	293.310	0.280	-0.290	0.340
2020/01/31 11:13:22.7	293.310	0.250	-0.310	0.350
2020/01/31 11:13:22.8	293.320	0.220	-0.330	0.370
2020/01/31 11:13:22.9	293.320	0.200	-0.350	0.390
2020/01/31 11:13:23.0	293.320	0.170	-0.370	0.400
2020/01/31 11:13:23.1	293.320	0.130	-0.400	0.420
2020/01/31 11:13:23.2	293.320	0.100	-0.420	0.430
2020/01/31 11:13:23.3	293.320	0.070	-0.440	0.440
2020/01/31 11:13:23.4	293.320	0.040	-0.460	0.450
2020/01/31 11:13:23.5	293.320	0.010	-0.480	0.460
2020/01/31 11:13:23.6	293.320	-0.020	-0.500	0.470
2020/01/31 11:13:23.7	293.310	-0.060	-0.510	0.480
2020/01/31 11:13:23.8	293.310	-0.090	-0.530	0.480
2020/01/31 11:13:23.9	293.310	-0.120	-0.550	0.490
2020/01/31 11:13:24.0	293.310	-0.150	-0.560	0.490
2020/01/31 11:13:24.1	293.310	-0.190	-0.570	0.490
2020/01/31 11:13:24.2	293.300	-0.220	-0.580	0.490
2020/01/31 11:13:24.3	293.300	-0.250	-0.590	0.490
2020/01/31 11:13:24.4	293.300	-0.280	-0.590	0.490
2020/01/31 11:13:24.5	293.290	-0.310	-0.590	0.480
2020/01/31 11:13:24.6	293.290	-0.340	-0.590	0.480
2020/01/31 11:13:24.7	293.280	-0.370	-0.590	0.470
2020/01/31 11:13:24.8	293.280	-0.390	-0.590	0.460
2020/01/31 11:13:24.9	293.270	-0.420	-0.580	0.450
2020/01/31 11:13:25.0	293.270	-0.450	-0.580	0.430
2020/01/31 11:13:25.1	293.260	-0.470	-0.570	0.420
2020/01/31 11:13:25.2	293.250	-0.490	-0.550	0.400
2020/01/31 11:13:25.3	293.250	-0.520	-0.540	0.390
2020/01/31 11:13:25.4	293.240	-0.540	-0.530	0.370
2020/01/31 11:13:25.5	293.230	-0.550	-0.510	0.350
2020/01/31 11:13:25.6	293.230	-0.570	-0.490	0.330
2020/01/31 11:13:25.7	293.220	-0.590	-0.470	0.310
2020/01/31 11:13:25.8	293.210	-0.600	-0.450	0.290
2020/01/31 11:13:25.9	293.200	-0.620	-0.430	0.260
2020/01/31 11:13:26.0	293.190	-0.630	-0.410	0.240
2020/01/31 11:13:26.1	293.180	-0.640	-0.380	0.220
2020/01/31 11:13:26.2	293.170	-0.640	-0.360	0.190
2020/01/31 11:13:26.3	293.160	-0.650	-0.330	0.170
2020/01/31 11:13:26.4	293.150	-0.650	-0.300	0.140
2020/01/31 11:13:26.5	293.140	-0.660	-0.280	0.120
2020/01/31 11:13:26.6	293.130	-0.660	-0.250	0.090
2020/01/31 11:13:26.7	293.120	-0.660	-0.220	0.070
2020/01/31 11:13:26.8	293.110	-0.660	-0.190	0.050
2020/01/31 11:13:26.9	293.100	-0.650	-0.160	0.030
2020/01/31 11:13:27.0	293.090	-0.650	-0.140	0.010
2020/01/31 11:13:27.1	293.080	-0.640	-0.110	-0.010
2020/01/31 11:13:27.2	293.080	-0.630	-0.080	-0.030
2020/01/31 11:13:27.3	293.070	-0.620	-0.050	-0.050
2020/01/31 11:13:27.4	293.060	-0.610	-0.020	-0.060
2020/01/31 11:13:27.5	293.050	-0.600	0.010	-0.070
2020/01/31 11:13:27.6	293.040	-0.590	0.030	-0.090
2020/01/31 11:13:27.7	293.040	-0.570	0.060	-0.100
2020/01/31 11:13:27.8	293.030	-0.550	0.090	-0.110
2020/01/31 11:13:27.9	293.030	-0.540	0.110	-0.110
2020/01/31 11:13:28.0	293.020	-0.520	0.140	-0.120
2020/01/31 11:13:28.1	293.020	-0.500	0.160	-0.120
2020/01/31 11:13:28.2	293.020	-0.480	0.180	-0.120
2020/01/31 11:13:28.3	293.020	-0.460	0.200	-0.120
2020/01/31 11:13:28.4	293.020	-0.430	0.220	-0.120
2020/01/31 11:13:28.5	293.010	-0.410	0.240	-0.120
2020/01/31 11:13:28.6	293.010	-0.390	0.250	-0.120
2020/01/31 11:13:28.7	293.010	-0.360	0.270	-0.110
2020/01/31 11:13:28.8	293.020	-0.340	0.280	-0.100
2020/01/31 11:13:28.9	293.020	-0.310	0.280	-0.090
2020/01/31 11:13:29.0	293.030	-0.290	0.290	-0.080
2020/01/31 11:13:29.1	293.030	-0.260	0.290	-0.070
2020/01/31 11:13:29.2	293.040	-0.230	0.290	-0.060
2020/01/31 11:13:29.3	293.050	-0.210	0.290	-0.050
2020/01/31 11:13:29.4	293.060	-0.180	0.280	-0.040
2020/01/31 11:13:29.5	293.070	-0.150	0.270	-0.020
2020/01/31 11:13:29.6	293.080	-0.130	0.260	-0.000
2020/01/31 11:13:29.7	293.090	-0.100	0.250	0.010
2020/01/31 11:13:29.8	293.100	-0.070	0.230	0.030
2020/01/31 11:13:29.9	293.120	-0.040	0.210	0.050
2020/01/31 11:13:30.0	293.130	-0.020	0.190	0.060
2020/01/31 11:13:30.1	293.150	0.010	0.170	0.080
2020/01/31 11:13:30.2	293.170	0.030	0.140	0.100
2020/01/31 11:13:30.3	293.190	0.060	0.120	0.120
2020/01/31 11:13:30.4	293.200	0.080	0.090	0.140
2020/01/31 11:13:30.5	293.230	0.110	0.060	0.150
2020/01/31 11:13:30.6	293.250	0.130	0.030	0.170
2020/01/31 11:13:30.7	293.270	0.160	-0.000	0.200
2020/01/31 11:13:30.8	293.290	0.180	-0.040	0.220
2020/01/31 11:13:30.9	293.310	0.200	-0.070	0.240
2020/01/31 11:13:31.0	293.340	0.230	-0.110	0.260
2020/01/31 11:13:31.1	293.360	0.250	-0.140	0.290
2020/01/31 11:13:31.2	293.380	0.270	-0.170	0.310
2020/01/31 11:13:31.3	293.400	0.290	-0.210	0.330
2020/01/31 11:13:31.4	293.430	0.310	-0.240	0.360
2020/01/31 11:13:31.5	293.450	0.330	-0.270	0.380
2020/01/31 11:13:31.6	293.470	0.350	-0.300	0.410
2020/01/31 11:13:31.7	293.490	0.370	-0.330	0.440
2020/01/31 11:13:31.8	293.520	0.390	-0.360	0.460
2020/01/31 11:13:31.9	293.540	0.410	-0.390	0.490
2020/01/31 11:13:32.0	293.560	0.430	-0.410	0.520
2020/01/31 11:13:32.1	293.580	0.450	-0.440	0.540
2020/01/31 11:13:32.2	293.600	0.470	-0.460	0.570
2020/01/31 11:13:32.3	293.630	0.490	-0.480	0.600
2020/01/31 11:13:32.4	293.650	0.500	-0.500	0.630
2020/01/31 11:13:32.5	293.670	0.520	-0.520	0.660
2020/01/31 11:13:32.6	293.690	0.540	-0.530	0.680
2020/01/31 11:13:32.7	293.710	0.560	-0.540	0.710
2020/01/31 11:13:32.8	293.730	0.570	-0.560	0.740
2020/01/31 11:13:32.9	293.750	0.590	-0.570	0.770
2020/01/31 11:13:33.0	293.770	0.600	-0.570	0.800
2020/01/31 11:13:33.1	293.780	0.620	-0.580	0.830
2020/01/31 11:13:33.2	293.800	0.630	-0.590	0.850
2020/01/31 11:13:33.3	293.820	0.650	-0.590	0.880
2020/01/31 11:13:33.4	293.830	0.660	-0.600	0.910
2020/01/31 11:13:33.5	293.840	0.670	-0.600	0.930
2020/01/31 11:13:33.6	293.850	0.680	-0.600	0.960
2020/01/31 11:13:33.7	293.860	0.690	-0.600	0.990
2020/01/31 11:13:33.8	293.870	0.700	-0.600	1.010
2020/01/31 11:13:33.9	293.880	0.700	-0.600	1.040
2020/01/31 11:13:34.0	293.890	0.710	-0.610	1.060
2020/01/31 11:13:34.1	293.890	0.710	-0.610	1.090
2020/01/31 11:13:34.2	293.890	0.710	-0.610	1.110
2020/01/31 11:13:34.3	293.890	0.710	-0.610	1.130
2020/01/31 11:13:34.4	293.890	0.710	-0.610	1.150
2020/01/31 11:13:34.5	293.880	0.710	-0.610	1.170
2020/01/31 11:13:34.6	293.880	0.700	-0.610	1.190
2020/01/31 11:13:34.7	293.870	0.700	-0.610	1.200
2020/01/31 11:13:34.8	293.870	0.690	-0.610	1.220
2020/01/31 11:13:34.9	293.860	0.680	-0.620	1.230
2020/01/31 11:13:35.0	293.850	0.660	-0.620	1.240
2020/01/31 11:13:35.1	293.830	0.650	-0.620	1.240
2020/01/31 11:13:35.2	293.820	0.630	-0.620	1.250
2020/01/31 11:13:35.3	293.810	0.610	-0.630	1.250
2020/01/31 11:13:35.4	293.790	0.590	-0.630	1.240
2020/01/31 11:13:35.5	293.780	0.570	-0.630	1.240
2020/01/31 11:13:35.6	293.770	0.550	-0.630	1.230
2020/01/31 11:13:35.7	293.750	0.520	-0.630	1.220
2020/01/31 11:13:35.8	293.740	0.490	-0.630	1.200
2020/01/31 11:13:35.9	293.720	0.470	-0.620	1.180
2020/01/31 11:13:36.0	293.710	0.430	-0.620	1.160
2020/01/31 11:13:36.1	293.690	0.400	-0.610	1.130
2020/01/31 11:13:36.2	293.670	0.370	-0.610	1.100
2020/01/31 11:13:36.3	293.660	0.330	-0.600	1.070
2020/01/31 11:13:36.4	293.640	0.300	-0.590	1.030
2020/01/31 11:13:36.5	293.620	0.260	-0.580	0.990
2020/01/31 11:13:36.6	293.610	0.220	-0.560	0.950
2020/01/31 11:13:36.7	293.590	0.180	-0.550	0.900
2020/01/31 11:13:36.8	293.580	0.140	-0.530	0.860
2020/01/31 11:13:36.9	293.560	0.100	-0.510	0.810
2020/01/31 11:13:37.0	293.550	0.060	-0.490	0.760
2020/01/31 11:13:37.1	293.530	0.020	-0.460	0.710
2020/01/31 11:13:37.2	293.520	-0.020	-0.440	0.650
2020/01/31 11:13:37.3	293.500	-0.060	-0.410	0.600
2020/01/31 11:13:37.4	293.490	-0.100	-0.380	0.540
2020/01/31 11:13:37.5	293.490	-0.140	-0.350	0.480
2020/01/31 11:13:37.6	293.480	-0.180	-0.320	0.420
2020/01/31 11:13:37.7	293.470	-0.220	-0.280	0.360
2020/01/31 11:13:37.8	293.460	-0.260	-0.250	0.310
2020/01/31 11:13:37.9	293.460	-0.300	-0.210	0.250
2020/01/31 11:13:38.0	293.450	-0.340	-0.180	0.190
2020/01/31 11:13:38.1	293.440	-0.380	-0.140	0.130
2020/01/31 11:13:38.2	293.440	-0.410	-0.100	0.070
2020/01/31 11:13:38.3	293.430	-0.450	-0.060	0.010
2020/01/31 11:13:38.4	293.430	-0.480	-0.030	-0.050
2020/01/31 11:13:38.5	293.440	-0.510	0.010	-0.100
2020/01/31 11:13:38.6	293.440	-0.540	0.050	-0.160
2020/01/31 11:13:38.7	293.440	-0.570	0.090	-0.210
2020/01/31 11:13:38.8	293.440	-0.600	0.130	-0.270
2020/01/31 11:13:38.9	293.440	-0.630	0.160	-0.320
2020/01/31 11:13:39.0	293.450	-0.650	0.200	-0.360
2020/01/31 11:13:39.1	293.450	-0.670	0.230	-0.410
2020/01/31 11:13:39.2	293.450	-0.690	0.260	-0.450
2020/01/31 11:13:39.3	293.460	-0.710	0.290	-0.490
2020/01/31 11:13:39.4	293.470	-0.720	0.320	-0.530
2020/01/31 11:13:39.5	293.450	-0.740	0.340	-0.570
2020/01/31 11:13:39.6	293.460	-0.750	0.360	-0.610
2020/01/31 11:13:39.7	293.470	-0.760	0.380	-0.640
2020/01/31 11:13:39.8	293.480	-0.760	0.390	-0.670
2020/01/31 11:13:39.9	293.490	-0.760	0.400	-0.700
2020/01/31 11:13:40.0	293.510	-0.770	0.410	-0.720
2020/01/31 11:13:40.1	293.520	-0.770	0.420	-0.740
2020/01/31 11:13:40.2	293.540	-0.760	0.420	-0.760
2020/01/31 11:13:40.3	293.560	-0.760	0.410	-0.780
2020/01/31 11:13:40.4	293.580	-0.750	0.410	-0.790
2020/01/31 11:13:40.5	293.580	-0.740	0.400	-0.800
2020/01/31 11:13:40.6	293.610	-0.720	0.390	-0.810
2020/01/31 11:13:40.7	293.630	-0.710	0.370	-0.810
2020/01/31 11:13:40.8	293.650	-0.690	0.350	-0.810
2020/01/31 11:13:40.9	293.680	-0.680	0.330	-0.810
2020/01/31 11:13:41.0	293.710	-0.650	0.300	-0.810
2020/01/31 11:13:41.1	293.740	-0.630	0.280	-0.800
2020/01/31 11:13:41.2	293.770	-0.610	0.250	-0.790
2020/01/31 11:13:41.3	293.790	-0.590	0.220	-0.780
2020/01/31 11:13:41.4	293.820	-0.560	0.190	-0.770
2020/01/31 11:13:41.5	293.850	-0.530	0.150	-0.750
2020/01/31 11:13:41.6	293.880	-0.500	0.120	-0.730
2020/01/31 11:13:41.7	293.910	-0.470	0.090	-0.700
2020/01/31 11:13:41.8	293.930	-0.440	0.050	-0.670
2020/01/31 11:13:41.9	293.960	-0.410	0.020	-0.640
2020/01/31 11:13:42.0	293.990	-0.380	-0.010	-0.610
2020/01/31 11:13:42.1	294.010	-0.350	-0.050	-0.570
2020/01/31 11:13:42.2	294.030	-0.320	-0.080	-0.520
2020/01/31 11:13:42.3	294.060	-0.280	-0.110	-0.480
2020/01/31 11:13:42.4	294.070	-0.250	-0.130	-0.430
2020/01/31 11:13:42.5	294.110	-0.220	-0.160	-0.370
2020/01/31 11:13:42.6	294.120	-0.180	-0.180	-0.310
2020/01/31 11:13:42.7	294.140	-0.150	-0.210	-0.250
2020/01/31 11:13:42.8	294.150	-0.120	-0.230	-0.190
2020/01/31 11:13:42.9	294.150	-0.080	-0.260	-0.120
2020/01/31 11:13:43.0	294.160	-0.050	-0.280	-0.050
2020/01/31 11:13:43.1	294.160	-0.010	-0.300	0.030
2020/01/31 11:13:43.2	294.160	0.020	-0.320	0.100
2020/01/31 11:13:43.3	294.160	0.050	-0.330	0.180
2020/01/31 11:13:43.4	294.160	0.090	-0.350	0.260
2020/01/31 11:13:43.5	294.160	0.120	-0.370	0.340
2020/01/31 11:13:43.6	294.150	0.150	-0.390	0.430
2020/01/31 11:13:43.7	294.150	0.190	-0.400	0.510
2020/01/31 11:13:43.8	294.140	0.220	-0.420	0.590
2020/01/31 11:13:43.9	294.130	0.250	-0.440	0.670
2020/01/31 11:13:44.0	294.120	0.280	-0.450	0.740
2020/01/31 11:13:44.1	294.110	0.310	-0.470	0.820
2020/01/31 11:13:44.2	294.090	0.340	-0.490	0.890
2020/01/31 11:13:44.3	294.080	0.370	-0.510	0.960
2020/01/31 11:13:44.4	294.070	0.400	-0.530	1.030
2020/01/31 11:13:44.5	294.070	0.430	-0.550	1.090
2020/01/31 11:13:44.6	294.060	0.460	-0.570	1.150
2020/01/31 11:13:44.7	294.050	0.480	-0.590	1.210
2020/01/31 11:13:44.8	294.040	0.510	-0.620	1.260
2020/01/31 11:13:44.9	294.040	0.530	-0.640	1.300
2020/01/31 11:13:45.0	294.030	0.550	-0.660	1.350
2020/01/31 11:13:45.1	294.020	0.580	-0.690	1.380
2020/01/31 11:13:45.2	294.020	0.590	-0.710	1.410
2020/01/31 11:13:45.3	294.020	0.610	-0.730	1.430
2020/01/31 11:13:45.4	294.020	0.630	-0.760	1.450
2020/01/31 11:13:45.5	294.020	0.640	-0.780	1.460
2020/01/31 11:13:45.6	294.020	0.660	-0.800	1.470
2020/01/31 11:13:45.7	294.020	0.670	-0.820	1.470
2020/01/31 11:13:45.8	294.020	0.670	-0.840	1.470
2020/01/31 11:13:45.9	294.030	0.680	-0.850	1.460
2020/01/31 11:13:46.0	294.030	0.680	-0.870	1.450
2020/01/31 11:13:46.1	294.040	0.680	-0.880	1.430
2020/01/31 11:13:46.2	294.050	0.680	-0.890	1.410
2020/01/31 11:13:46.3	294.060	0.680	-0.900	1.380
2020/01/31 11:13:46.4	294.070	0.670	-0.900	1.360
2020/01/31 11:13:46.5	294.080	0.660	-0.910	1.320
2020/01/31 11:13:46.6	294.090	0.650	-0.910	1.280
2020/01/31 11:13:46.7	294.110	0.640	-0.900	1.240
2020/01/31 11:13:46.8	294.120	0.630	-0.890	1.200
2020/01/31 11:13:46.9	294.140	0.610	-0.880	1.160
2020/01/31 11:13:47.0	294.150	0.590	-0.870	1.110
2020/01/31 11:13:47.1	294.170	0.570	-0.850	1.060
2020/01/31 11:13:47.2	294.190	0.540	-0.830	1.010
2020/01/31 11:13:47.3	294.210	0.520	-0.800	0.960
2020/01/31 11:13:47.4	294.230	0.490	-0.770	0.910
2020/01/31 11:13:47.5	294.250	0.460	-0.740	0.850
2020/01/31 11:13:47.6	294.270	0.430	-0.700	0.800
2020/01/31 11:13:47.7	294.290	0.400	-0.660	0.750
2020/01/31 11:13:47.8	294.300	0.370	-0.620	0.690
2020/01/31 11:13:47.9	294.320	0.340	-0.580	0.640
2020/01/31 11:13:48.0	294.330	0.300	-0.530	0.590
2020/01/31 11:13:48.1	294.340	0.270	-0.480	0.540
2020/01/31 11:13:48.2	294.350	0.230	-0.430	0.500
2020/01/31 11:13:48.3	294.360	0.190	-0.380	0.450
2020/01/31 11:13:48.4	294.370	0.160	-0.320	0.410
2020/01/31 11:13:48.5	294.380	0.120	-0.270	0.370
2020/01/31 11:13:48.6	294.380	0.090	-0.210	0.330
2020/01/31 11:13:48.7	294.380	0.050	-0.160	0.290
2020/01/31 11:13:48.8	294.380	0.010	-0.100	0.260
2020/01/31 11:13:48.9	294.380	-0.020	-0.050	0.230
2020/01/31 11:13:49.0	294.380	-0.060	0.010	0.200
2020/01/31 11:13:49.1	294.370	-0.090	0.060	0.170
2020/01/31 11:13:49.2	294.370	-0.120	0.110	0.140
2020/01/31 11:13:49.3	294.360	-0.150	0.160	0.120
2020/01/31 11:13:49.4	294.360	-0.180	0.210	0.100
2020/01/31 11:13:49.5	294.340	-0.210	0.250	0.080
2020/01/31 11:13:49.6	294.330	-0.240	0.290	0.060
2020/01/31 11:13:49.7	294.320	-0.270	0.330	0.040
2020/01/31 11:13:49.8	294.310	-0.290	0.360	0.030
2020/01/31 11:13:49.9	294.290	-0.320	0.390	0.020
2020/01/31 11:13:50.0	294.280	-0.340	0.420	0.010
2020/01/31 11:13:50.1	294.270	-0.360	0.450	-0.000
2020/01/31 11:13:50.2	294.260	-0.380	0.470	-0.010
2020/01/31 11:13:50.3	294.240	-0.390	0.480	-0.020
2020/01/31 11:13:50.4	294.230	-0.400	0.490	-0.030
2020/01/31 11:13:50.5	294.230	-0.420	0.500	-0.030
2020/01/31 11:13:50.6	294.210	-0.420	0.510	-0.030
2020/01/31 11:13:50.7	294.200	-0.430	0.510	-0.040
2020/01/31 11:13:50.8	294.190	-0.440	0.510	-0.040
2020/01/31 11:13:50.9	294.170	-0.440	0.500	-0.030
2020/01/31 11:13:51.0	294.160	-0.440	0.490	-0.030
2020/01/31 11:13:51.1	294.150	-0.430	0.480	-0.030
2020/01/31 11:13:51.2	294.130	-0.430	0.460	-0.030
2020/01/31 11:13:51.3	294.120	-0.420	0.440	-0.020
2020/01/31 11:13:51.4	294.110	-0.410	0.420	-0.020
2020/01/31 11:13:51.5	294.090	-0.400	0.400	-0.020
2020/01/31 11:13:51.6	294.080	-0.390	0.370	-0.010
2020/01/31 11:13:51.7	294.070	-0.380	0.340	-0.010
2020/01/31 11:13:51.8	294.060	-0.360	0.310	-0.000
2020/01/31 11:13:51.9	294.050	-0.340	0.280	0.010
2020/01/31 11:13:52.0	294.040	-0.320	0.250	0.010
2020/01/31 11:13:52.1	294.040	-0.300	0.210	0.020
2020/01/31 11:13:52.2	294.030	-0.280	0.180	0.030
2020/01/31 11:13:52.3	294.030	-0.260	0.140	0.030
2020/01/31 11:13:52.4	294.020	-0.230	0.100	0.040
2020/01/31 11:13:52.5	294.020	-0.210	0.070	0.050
2020/01/31 11:13:52.6	294.020	-0.180	0.030	0.060
2020/01/31 11:13:52.7	294.020	-0.160	-0.010	0.070
2020/01/31 11:13:52.8	294.020	-0.130	-0.050	0.080
2020/01/31 11:13:52.9	294.020	-0.110	-0.080	0.100
2020/01/31 11:13:53.0	294.020	-0.080	-0.120	0.110
2020/01/31 11:13:53.1	294.020	-0.060	-0.160	0.130
2020/01/31 11:13:53.2	294.020	-0.030	-0.190	0.140
2020/01/31 11:13:53.3	294.020	-0.010	-0.230	0.160
2020/01/31 11:13:53.4	294.030	0.010	-0.260	0.180
2020/01/31 11:13:53.5	294.020	0.040	-0.290	0.200
2020/01/31 11:13:53.6	294.030	0.060	-0.330	0.220
2020/01/31 11:13:53.7	294.030	0.080	-0.360	0.240
2020/01/31 11:13:53.8	294.030	0.100	-0.380	0.270
2020/01/31 11:13:53.9	294.040	0.110	-0.410	0.290
2020/01/31 11:13:54.0	294.040	0.130	-0.440	0.310
2020/01/31 11:13:54.1	294.040	0.140	-0.460	0.340
2020/01/31 11:13:54.2	294.050	0.160	-0.480	0.360
2020/01/31 11:13:54.3	294.050	0.170	-0.500	0.390
2020/01/31 11:13:54.4	294.050	0.180	-0.520	0.420
2020/01/31 11:13:54.5	294.050	0.190	-0.540	0.440
2020/01/31 11:13:54.6	294.050	0.200	-0.560	0.460
2020/01/31 11:13:54.7	294.050	0.200	-0.570	0.490
2020/01/31 11:13:54.8	294.050	0.200	-0.580	0.520
2020/01/31 11:13:54.9	294.050	0.210	-0.600	0.540
2020/01/31 11:13:55.0	294.040	0.210	-0.610	0.560
2020/01/31 11:13:55.1	294.040	0.210	-0.620	0.590
2020/01/31 11:13:55.2	294.040	0.200	-0.630	0.610
2020/01/31 11:13:55.3	294.030	0.200	-0.630	0.630
2020/01/31 11:13:55.4	294.030	0.200	-0.640	0.650
2020/01/31 11:13:55.5	294.020	0.190	-0.650	0.670
2020/01/31 11:13:55.6	294.020	0.180	-0.660	0.690
2020/01/31 11:13:55.7	294.020	0.170	-0.660	0.700
2020/01/31 11:13:55.8	294.010	0.160	-0.670	0.710
2020/01/31 11:13:55.9	294.010	0.150	-0.670	0.720
2020/01/31 11:13:56.0	294.000	0.140	-0.670	0.730
2020/01/31 11:13:56.1	294.000	0.130	-0.680	0.730
2020/01/31 11:13:56.2	294.000	0.110	-0.680	0.740
2020/01/31 11:13:56.3	294.000	0.100	-0.680	0.730
2020/01/31 11:13:56.4	294.000	0.090	-0.680	0.730
2020/01/31 11:13:56.5	294.000	0.070	-0.680	0.720
2020/01/31 11:13:56.6	294.000	0.050	-0.680	0.710
2020/01/31 11:13:56.7	294.010	0.040	-0.680	0.700
2020/01/31 11:13:56.8	294.010	0.020	-0.680	0.680
2020/01/31 11:13:56.9	294.020	0.000	-0.680	0.660
2020/01/31 11:13:57.0	294.020	-0.010	-0.680	0.640
2020/01/31 11:13:57.1	294.030	-0.030	-0.670	0.610
2020/01/31 11:13:57.2	294.040	-0.050	-0.670	0.590
2020/01/31 11:13:57.3	294.050	-0.070	-0.660	0.560
2020/01/31 11:13:57.4	294.070	-0.080	-0.650	0.530
2020/01/31 11:13:57.5	294.080	-0.100	-0.650	0.490
2020/01/31 11:13:57.6	294.100	-0.110	-0.640	0.460
2020/01/31 11:13:57.7	294.110	-0.130	-0.630	0.430
2020/01/31 11:13:57.8	294.130	-0.140	-0.610	0.400
2020/01/31 11:13:57.9	294.140	-0.150	-0.600	0.370
2020/01/31 11:13:58.0	294.160	-0.160	-0.590	0.340
2020/01/31 11:13:58.1	294.180	-0.170	-0.570	0.310
2020/01/31 11:13:58.2	294.200	-0.180	-0.550	0.270
2020/01/31 11:13:58.3	294.210	-0.190	-0.530	0.240
2020/01/31 11:13:58.4	294.230	-0.200	-0.510	0.210
2020/01/31 11:13:58.5	294.250	-0.200	-0.490	0.190
2020/01/31 11:13:58.6	294.270	-0.200	-0.470	0.160
2020/01/31 11:13:58.7	294.290	-0.200	-0.440	0.130
2020/01/31 11:13:58.8	294.310	-0.200	-0.420	0.110
2020/01/31 11:13:58.9	294.330	-0.200	-0.390	0.080
2020/01/31 11:13:59.0	294.350	-0.200	-0.370	0.060
2020/01/31 11:13:59.1	294.360	-0.190	-0.340	0.040
2020/01/31 11:13:59.2	294.380	-0.190	-0.310	0.020
2020/01/31 11:13:59.3	294.400	-0.180	-0.290	0.010
2020/01/31 11:13:59.4	294.420	-0.170	-0.260	-0.010
2020/01/31 11:13:59.5	294.440	-0.160	-0.220	-0.020
2020/01/31 11:13:59.6	294.450	-0.150	-0.190	-0.030
2020/01/31 11:13:59.7	294.470	-0.140	-0.160	-0.040
2020/01/31 11:13:59.8	294.480	-0.130	-0.130	-0.040
2020/01/31 11:13:59.9	294.500	-0.120	-0.100	-0.040
2020/01/31 11:14:00.0	294.510	-0.110	-0.070	-0.040
2020/01/31 11:14:00.1	294.520	-0.090	-0.040	-0.030
2020/01/31 11:14:00.2	294.530	-0.080	-0.010	-0.030
2020/01/31 11:14:00.3	294.540	-0.070	0.020	-0.020
2020/01/31 11:14:00.4	294.550	-0.050	0.040	-0.000
2020/01/31 11:14:00.5	294.560	-0.040	0.070	0.020
2020/01/31 11:14:00.6	294.570	-0.020	0.090	0.040
2020/01/31 11:14:00.7	294.580	-0.010	0.120	0.060
2020/01/31 11:14:00.8	294.580	0.000	0.140	0.080
2020/01/31 11:14:00.9	294.580	0.020	0.170	0.100
2020/01/31 11:14:01.0	294.590	0.030	0.190	0.130
2020/01/31 11:14:01.1	294.590	0.040	0.210	0.160
2020/01/31 11:14:01.2	294.590	0.060	0.230	0.190
2020/01/31 11:14:01.3	294.590	0.070	0.250	0.220
2020/01/31 11:14:01.4	294.590	0.080	0.270	0.250
2020/01/31 11:14:01.5	294.570	0.090	0.280	0.280
2020/01/31 11:14:01.6	294.560	0.100	0.300	0.320
2020/01/31 11:14:01.7	294.560	0.110	0.310	0.350
2020/01/31 11:14:01.8	294.550	0.130	0.330	0.380
2020/01/31 11:14:01.9	294.540	0.140	0.340	0.420
2020/01/31 11:14:02.0	294.540	0.150	0.350	0.450
2020/01/31 11:14:02.1	294.530	0.160	0.360	0.490
2020/01/31 11:14:02.2	294.510	0.160	0.360	0.520
2020/01/31 11:14:02.3	294.500	0.170	0.370	0.550
2020/01/31 11:14:02.4	294.490	0.180	0.370	0.590
2020/01/31 11:14:02.5	294.470	0.190	0.380	0.620
2020/01/31 11:14:02.6	294.450	0.200	0.380	0.650
2020/01/31 11:14:02.7	294.430	0.210	0.370	0.680
2020/01/31 11:14:02.8	294.410	0.210	0.370	0.720
2020/01/31 11:14:02.9	294.390	0.220	0.370	0.750
2020/01/31 11:14:03.0	294.370	0.230	0.360	0.780
2020/01/31 11:14:03.1	294.350	0.230	0.350	0.810
2020/01/31 11:14:03.2	294.330	0.240	0.340	0.830
2020/01/31 11:14:03.3	294.300	0.250	0.330	0.860
2020/01/31 11:14:03.4	294.280	0.250	0.310	0.890
2020/01/31 11:14:03.5	294.260	0.260	0.290	0.920
2020/01/31 11:14:03.6	294.230	0.260	0.270	0.940
2020/01/31 11:14:03.7	294.210	0.260	0.250	0.950
2020/01/31 11:14:03.8	294.180	0.270	0.220	0.970
2020/01/31 11:14:03.9	294.160	0.270	0.190	0.980
2020/01/31 11:14:04.0	294.130	0.270	0.160	0.990
2020/01/31 11:14:04.1	294.110	0.280	0.130	1.000
2020/01/31 11:14:04.2	294.090	0.280	0.090	1.010
2020/01/31 11:14:04.3	294.070	0.280	0.050	1.010
2020/01/31 11:14:04.4	294.050	0.290	0.000	1.010
2020/01/31 11:14:04.5	294.040	0.290	-0.040	1.010
2020/01/31 11:14:04.6	294.020	0.290	-0.090	1.000
2020/01/31 11:14:04.7	294.000	0.300	-0.140	0.990
2020/01/31 11:14:04.8	293.990	0.300	-0.200	0.980
2020/01/31 11:14:04.9	293.970	0.300	-0.250	0.970
2020/01/31 11:14:05.0	293.960	0.300	-0.310	0.960
2020/01/31 11:14:05.1	293.940	0.310	-0.370	0.940
2020/01/31 11:14:05.2	293.930	0.310	-0.430	0.920
2020/01/31 11:14:05.3	293.920	0.310	-0.490	0.900
2020/01/31 11:14:05.4	293.910	0.310	-0.550	0.880
2020/01/31 11:14:05.5	293.900	0.310	-0.610	0.860
2020/01/31 11:14:05.6	293.890	0.320	-0.670	0.840
2020/01/31 11:14:05.7	293.880	0.320	-0.730	0.810
2020/01/31 11:14:05.8	293.870	0.320	-0.780	0.790
2020/01/31 11:14:05.9	293.870	0.320	-0.840	0.760
2020/01/31 11:14:06.0	293.860	0.310	-0.890	0.730
2020/01/31 11:14:06.1	293.860	0.310	-0.940	0.700
2020/01/31 11:14:06.2	293.850	0.310	-0.980	0.670
2020/01/31 11:14:06.3	293.840	0.300	-1.020	0.640
2020/01/31 11:14:06.4	293.840	0.290	-1.060	0.610
2020/01/31 11:14:06.5	293.830	0.290	-1.090	0.570
2020/01/31 11:14:06.6	293.820	0.280	-1.120	0.540
2020/01/31 11:14:06.7	293.820	0.260	-1.140	0.500
2020/01/31 11:14:06.8	293.810	0.250	-1.160	0.470
2020/01/31 11:14:06.9	293.810	0.240	-1.170	0.430
2020/01/31 11:14:07.0	293.800	0.220	-1.180	0.390
2020/01/31 11:14:07.1	293.800	0.200	-1.180	0.360
2020/01/31 11:14:07.2	293.800	0.180	-1.180	0.320
2020/01/31 11:14:07.3	293.790	0.160	-1.170	0.280
2020/01/31 11:14:07.4	293.790	0.130	-1.160	0.240
2020/01/31 11:14:07.5	293.790	0.110	-1.140	0.200
2020/01/31 11:14:07.6	293.790	0.080	-1.110	0.160
2020/01/31 11:14:07.7	293.790	0.050	-1.080	0.120
2020/01/31 11:14:07.8	293.790	0.030	-1.050	0.080
2020/01/31 11:14:07.9	293.790	-0.010	-1.010	0.040
2020/01/31 11:14:08.0	293.790	-0.040	-0.970	0.010
2020/01/31 11:14:08.1	293.790	-0.070	-0.930	-0.030
2020/01/31 11:14:08.2	293.800	-0.100	-0.880	-0.070
2020/01/31 11:14:08.3	293.800	-0.130	-0.820	-0.100
2020/01/31 11:14:08.4	293.810	-0.170	-0.770	-0.130
2020/01/31 11:14:08.5	293.820	-0.200	-0.710	-0.160
2020/01/31 11:14:08.6	293.820	-0.230	-0.660	-0.190
2020/01/31 11:14:08.7	293.830	-0.270	-0.600	-0.220
2020/01/31 11:14:08.8	293.840	-0.300	-0.540	-0.250
2020/01/31 11:14:08.9	293.850	-0.330	-0.480	-0.270
2020/01/31 11:14:09.0	293.860	-0.360	-0.420	-0.290
2020/01/31 11:14:09.1	293.870	-0.390	-0.360	-0.310
2020/01/31 11:14:09.2	293.890	-0.420	-0.300	-0.330
2020/01/31 11:14:09.3	293.900	-0.440	-0.250	-0.350
2020/01/31 11:14:09.4	293.910	-0.470	-0.190	-0.360
2020/01/31 11:14:09.5	293.920	-0.490	-0.140	-0.380
2020/01/31 11:14:09.6	293.930	-0.510	-0.090	-0.390
2020/01/31 11:14:09.7	293.940	-0.530	-0.040	-0.390
2020/01/31 11:14:09.8	293.960	-0.550	0.010	-0.400
2020/01/31 11:14:09.9	293.970	-0.570	0.050	-0.400
2020/01/31 11:14:10.0	293.980	-0.580	0.100	-0.400
2020/01/31 11:14:10.1	294.000	-0.590	0.140	-0.400
2020/01/31 11:14:10.2	294.010	-0.600	0.170	-0.390
2020/01/31 11:14:10.3	294.020	-0.610	0.200	-0.380
2020/01/31 11:14:10.4	294.040	-0.620	0.230	-0.370
2020/01/31 11:14:10.5	294.040	-0.620	0.260	-0.360
2020/01/31 11:14:10.6	294.060	-0.620	0.280	-0.350
2020/01/31 11:14:10.7	294.070	-0.620	0.300	-0.330
2020/01/31 11:14:10.8	294.080	-0.620	0.320	-0.310
2020/01/31 11:14:10.9	294.090	-0.610	0.330	-0.290
2020/01/31 11:14:11.0	294.110	-0.600	0.340	-0.270
2020/01/31 11:14:11.1	294.120	-0.590	0.340	-0.250
2020/01/31 11:14:11.2	294.130	-0.580	0.350	-0.220
2020/01/31 11:14:11.3	294.140	-0.570	0.350	-0.200
2020/01/31 11:14:11.4	294.160	-0.550	0.340	-0.170
2020/01/31 11:14:11.5	294.170	-0.530	0.340	-0.140
2020/01/31 11:14:11.6	294.180	-0.510	0.330	-0.110
2020/01/31 11:14:11.7	294.190	-0.490	0.320	-0.080
2020/01/31 11:14:11.8	294.200	-0.470	0.310	-0.050
2020/01/31 11:14:11.9	294.220	-0.440	0.300	-0.020
2020/01/31 11:14:12.0	294.230	-0.420	0.280	0.010
2020/01/31 11:14:12.1	294.240	-0.390	0.260	0.040
2020/01/31 11:14:12.2	294.250	-0.360	0.250	0.070
2020/01/31 11:14:12.3	294.260	-0.330	0.230	0.100
2020/01/31 11:14:12.4	294.270	-0.300	0.210	0.140
2020/01/31 11:14:12.5	294.290	-0.270	0.190	0.160
2020/01/31 11:14:12.6	294.300	-0.240	0.170	0.200
2020/01/31 11:14:12.7	294.310	-0.210	0.150	0.240
2020/01/31 11:14:12.8	294.320	-0.170	0.120	0.270
2020/01/31 11:14:12.9	294.330	-0.140	0.100	0.310
2020/01/31 11:14:13.0	294.330	-0.110	0.080	0.350
2020/01/31 11:14:13.1	294.340	-0.070	0.060	0.390
2020/01/31 11:14:13.2	294.340	-0.040	0.040	0.440
2020/01/31 11:14:13.3	294.340	-0.010	0.020	0.480
2020/01/31 11:14:13.4	294.340	0.030	0.000	0.520
2020/01/31 11:14:13.5	294.340	0.060	-0.020	0.570
2020/01/31 11:14:13.6	294.340	0.090	-0.040	0.620
2020/01/31 11:14:13.7	294.330	0.120	-0.060	0.660
2020/01/31 11:14:13.8	294.330	0.150	-0.080	0.710
2020/01/31 11:14:13.9	294.320	0.180	-0.090	0.750
2020/01/31 11:14:14.0	294.310	0.210	-0.110	0.800
2020/01/31 11:14:14.1	294.300	0.240	-0.130	0.840
2020/01/31 11:14:14.2	294.290	0.260	-0.150	0.880
2020/01/31 11:14:14.3	294.280	0.290	-0.170	0.920
2020/01/31 11:14:14.4	294.260	0.310	-0.180	0.970
2020/01/31 11:14:14.5	294.250	0.330	-0.200	1.000
2020/01/31 11:14:14.6	294.230	0.360	-0.210	1.040
2020/01/31 11:14:14.7	294.210	0.380	-0.230	1.080
2020/01/31 11:14:14.8	294.190	0.400	-0.250	1.120
2020/01/31 11:14:14.9	294.170	0.410	-0.260	1.150
2020/01/31 11:14:15.0	294.150	0.430	-0.280	1.190
2020/01/31 11:14:15.1	294.130	0.450	-0.290	1.220
2020/01/31 11:14:15.2	294.100	0.460	-0.310	1.250
2020/01/31 11:14:15.3	294.070	0.470	-0.320	1.280
2020/01/31 11:14:15.4	294.050	0.480	-0.340	1.310
2020/01/31 11:14:15.5	294.020	0.490	-0.350	1.340
2020/01/31 11:14:15.6	293.990	0.500	-0.360	1.370
2020/01/31 11:14:15.7	293.960	0.510	-0.380	1.390
2020/01/31 11:14:15.8	293.930	0.520	-0.390	1.410
2020/01/31 11:14:15.9	293.900	0.520	-0.400	1.430
2020/01/31 11:14:16.0	293.870	0.520	-0.410	1.450
2020/01/31 11:14:16.1	293.830	0.520	-0.420	1.460
2020/01/31 11:14:16.2	293.800	0.530	-0.430	1.470
2020/01/31 11:14:16.3	293.760	0.520	-0.430	1.480
2020/01/31 11:14:16.4	293.720	0.520	-0.440	1.490
2020/01/31 11:14:16.5	293.680	0.520	-0.440	1.490
2020/01/31 11:14:16.6	293.640	0.510	-0.450	1.480
2020/01/31 11:14:16.7	293.600	0.510	-0.450	1.480
2020/01/31 11:14:16.8	293.560	0.500	-0.450	1.480
2020/01/31 11:14:16.9	293.530	0.490	-0.450	1.470
2020/01/31 11:14:17.0	293.490	0.480	-0.450	1.460
2020/01/31 11:14:17.1	293.450	0.470	-0.450	1.440
2020/01/31 11:14:17.2	293.410	0.450	-0.450	1.430
2020/01/31 11:14:17.3	293.380	0.440	-0.440	1.410
2020/01/31 11:14:17.4	293.340	0.420	-0.440	1.390
2020/01/31 11:14:17.5	293.300	0.400	-0.430	1.360
2020/01/31 11:14:17.6	293.270	0.390	-0.420	1.330
2020/01/31 11:14:17.7	293.230	0.370	-0.420	1.300
2020/01/31 11:14:17.8	293.200	0.350	-0.410	1.270
2020/01/31 11:14:17.9	293.170	0.320	-0.400	1.230
2020/01/31 11:14:18.0	293.140	0.300	-0.400	1.190
2020/01/31 11:14:18.1	293.120	0.280	-0.390	1.150
2020/01/31 11:14:18.2	293.090	0.250	-0.380	1.110
2020/01/31 11:14:18.3	293.070	0.230	-0.370	1.060
2020/01/31 11:14:18.4	293.050	0.200	-0.370	1.020
2020/01/31 11:14:18.5	293.040	0.180	-0.370	0.970
2020/01/31 11:14:18.6	293.020	0.150	-0.360	0.910
2020/01/31 11:14:18.7	293.010	0.130	-0.360	0.860
2020/01/31 11:14:18.8	293.000	0.100	-0.350	0.810
2020/01/31 11:14:18.9	292.990	0.070	-0.350	0.750
2020/01/31 11:14:19.0	292.980	0.050	-0.350	0.690
2020/01/31 11:14:19.1	292.980	0.020	-0.340	0.630
2020/01/31 11:14:19.2	292.980	-0.010	-0.340	0.570
2020/01/31 11:14:19.3	292.980	-0.030	-0.340	0.510
2020/01/31 11:14:19.4	292.980	-0.060	-0.340	0.450
2020/01/31 11:14:19.5	293.000	-0.080	-0.340	0.390
2020/01/31 11:14:19.6	293.010	-0.110	-0.350	0.330
2020/01/31 11:14:19.7	293.020	-0.130	-0.350	0.260
2020/01/31 11:14:19.8	293.030	-0.150	-0.350	0.200
2020/01/31 11:14:19.9	293.050	-0.180	-0.360	0.140
2020/01/31 11:14:20.0	293.070	-0.200	-0.370	0.080
2020/01/31 11:14:20.1	293.090	-0.220	-0.370	0.020
2020/01/31 11:14:20.2	293.110	-0.230	-0.380	-0.040
2020/01/31 11:14:20.3	293.140	-0.250	-0.390	-0.100
2020/01/31 11:14:20.4	293.170	-0.270	-0.400	-0.160
2020/01/31 11:14:20.5	293.190	-0.280	-0.410	-0.210
2020/01/31 11:14:20.6	293.220	-0.300	-0.420	-0.270
2020/01/31 11:14:20.7	293.260	-0.310	-0.420	-0.320
2020/01/31 11:14:20.8	293.290	-0.320	-0.430	-0.370
2020/01/31 11:14:20.9	293.330	-0.330	-0.430	-0.410
2020/01/31 11:14:21.0	293.360	-0.340	-0.440	-0.460
2020/01/31 11:14:21.1	293.400	-0.350	-0.440	-0.500
2020/01/31 11:14:21.2	293.440	-0.360	-0.450	-0.540
2020/01/31 11:14:21.3	293.480	-0.360	-0.450	-0.570
2020/01/31 11:14:21.4	293.510	-0.370	-0.450	-0.600
2020/01/31 11:14:21.5	293.550	-0.370	-0.450	-0.620
2020/01/31 11:14:21.6	293.590	-0.370	-0.440	-0.650
2020/01/31 11:14:21.7	293.620	-0.370	-0.440	-0.660
2020/01/31 11:14:21.8	293.660	-0.370	-0.440	-0.670
2020/01/31 11:14:21.9	293.700	-0.370	-0.430	-0.680
2020/01/31 11:14:22.0	293.730	-0.360	-0.420	-0.680
2020/01/31 11:14:22.1	293.760	-0.360	-0.420	-0.680
2020/01/31 11:14:22.2	293.800	-0.350	-0.410	-0.680
2020/01/31 11:14:22.3	293.820	-0.350	-0.400	-0.660
2020/01/31 11:14:22.4	293.850	-0.340	-0.380	-0.650
2020/01/31 11:14:22.5	293.870	-0.330	-0.370	-0.630
2020/01/31 11:14:22.6	293.890	-0.320	-0.360	-0.600
2020/01/31 11:14:22.7	293.910	-0.310	-0.340	-0.570
2020/01/31 11:14:22.8	293.930	-0.300	-0.320	-0.540
2020/01/31 11:14:22.9	293.950	-0.290	-0.300	-0.500
2020/01/31 11:14:23.0	293.970	-0.280	-0.280	-0.470
2020/01/31 11:14:23.1	293.980	-0.270	-0.260	-0.420
2020/01/31 11:14:23.2	293.990	-0.260	-0.240	-0.380
2020/01/31 11:14:23.3	293.990	-0.240	-0.210	-0.330
2020/01/31 11:14:23.4	294.000	-0.230	-0.190	-0.280
2020/01/31 11:14:23.5	294.010	-0.220	-0.160	-0.230
2020/01/31 11:14:23.6	294.010	-0.210	-0.130	-0.180
2020/01/31 11:14:23.7	294.000	-0.190	-0.110	-0.120
2020/01/31 11:14:23.8	294.000	-0.180	-0.080	-0.060
2020/01/31 11:14:23.9	293.990	-0.170	-0.060	-0.010
2020/01/31 11:14:24.0	293.970	-0.150	-0.030	0.050
2020/01/31 11:14:24.1	293.960	-0.140	-0.010	0.120
2020/01/31 11:14:24.2	293.940	-0.130	0.020	0.180
2020/01/31 11:14:24.3	293.920	-0.120	0.040	0.240
2020/01/31 11:14:24.4	293.900	-0.110	0.060	0.310
2020/01/31 11:14:24.5	293.880	-0.090	0.080	0.370
2020/01/31 11:14:24.6	293.850	-0.080	0.110	0.440
2020/01/31 11:14:24.7	293.820	-0.070	0.120	0.500
2020/01/31 11:14:24.8	293.790	-0.060	0.140	0.570
2020/01/31 11:14:24.9	293.760	-0.050	0.160	0.630
2020/01/31 11:14:25.0	293.730	-0.040	0.170	0.700
2020/01/31 11:14:25.1	293.690	-0.030	0.180	0.760
2020/01/31 11:14:25.2	293.650	-0.020	0.190	0.820
2020/01/31 11:14:25.3	293.610	-0.010	0.200	0.880
2020/01/31 11:14:25.4	293.570	0.000	0.200	0.940
2020/01/31 11:14:25.5	293.520	0.010	0.200	0.990
2020/01/31 11:14:25.6	293.480	0.020	0.200	1.050
2020/01/31 11:14:25.7	293.440	0.030	0.190	1.100
2020/01/31 11:14:25.8	293.400	0.030	0.190	1.150
2020/01/31 11:14:25.9	293.350	0.040	0.180	1.190
2020/01/31 11:14:26.0	293.310	0.050	0.170	1.230
2020/01/31 11:14:26.1	293.270	0.050	0.150	1.270
2020/01/31 11:14:26.2	293.230	0.060	0.130	1.310
2020/01/31 11:14:26.3	293.180	0.070	0.110	1.340
2020/01/31 11:14:26.4	293.140	0.070	0.090	1.370
2020/01/31 11:14:26.5	293.110	0.080	0.070	1.380
2020/01/31 11:14:26.6	293.070	0.080	0.040	1.400
2020/01/31 11:14:26.7	293.030	0.090	0.010	1.420
2020/01/31 11:14:26.8	293.000	0.100	-0.010	1.430
2020/01/31 11:14:26.9	292.960	0.100	-0.050	1.430
2020/01/31 11:14:27.0	292.930	0.110	-0.080	1.430
2020/01/31 11:14:27.1	292.900	0.110	-0.110	1.430
2020/01/31 11:14:27.2	292.870	0.120	-0.150	1.420
2020/01/31 11:14:27.3	292.850	0.130	-0.190	1.410
2020/01/31 11:14:27.4	292.820	0.130	-0.220	1.390
2020/01/31 11:14:27.5	292.820	0.140	-0.260	1.370
2020/01/31 11:14:27.6	292.800	0.140	-0.300	1.350
2020/01/31 11:14:27.7	292.790	0.150	-0.340	1.320
2020/01/31 11:14:27.8	292.770	0.150	-0.380	1.280
2020/01/31 11:14:27.9	292.760	0.160	-0.410	1.250
2020/01/31 11:14:28.0	292.760	0.160	-0.450	1.210
2020/01/31 11:14:28.1	292.750	0.170	-0.480	1.160
2020/01/31 11:14:28.2	292.750	0.170	-0.520	1.120
2020/01/31 11:14:28.3	292.750	0.180	-0.550	1.070
2020/01/31 11:14:28.4	292.750	0.180	-0.580	1.010
2020/01/31 11:14:28.5	292.760	0.180	-0.610	0.950
2020/01/31 11:14:28.6	292.770	0.190	-0.630	0.900
2020/01/31 11:14:28.7	292.780	0.190	-0.650	0.840
2020/01/31 11:14:28.8	292.790	0.190	-0.670	0.780
2020/01/31 11:14:28.9	292.800	0.190	-0.680	0.730
2020/01/31 11:14:29.0	292.820	0.190	-0.690	0.670
2020/01/31 11:14:29.1	292.840	0.190	-0.700	0.610
2020/01/31 11:14:29.2	292.850	0.180	-0.710	0.560
2020/01/31 11:14:29.3	292.870	0.180	-0.710	0.500
2020/01/31 11:14:29.4	292.890	0.180	-0.700	0.450
2020/01/31 11:14:29.5	292.900	0.170	-0.690	0.400
2020/01/31 11:14:29.6	292.920	0.170	-0.680	0.350
2020/01/31 11:14:29.7	292.940	0.160	-0.670	0.310
2020/01/31 11:14:29.8	292.960	0.150	-0.650	0.270
2020/01/31 11:14:29.9	292.980	0.140	-0.630	0.230
2020/01/31 11:14:30.0	293.000	0.130	-0.610	0.190
2020/01/31 11:14:30.1	293.020	0.120	-0.580	0.160
2020/01/31 11:14:30.2	293.040	0.110	-0.560	0.130
2020/01/31 11:14:30.3	293.050	0.100	-0.530	0.100
2020/01/31 11:14:30.4	293.070	0.090	-0.500	0.080
2020/01/31 11:14:30.5	293.090	0.080	-0.470	0.060
2020/01/31 11:14:30.6	293.100	0.070	-0.440	0.050
2020/01/31 11:14:30.7	293.110	0.060	-0.410	0.040
2020/01/31 11:14:30.8	293.130	0.040	-0.380	0.030
2020/01/31 11:14:30.9	293.140	0.030	-0.350	0.020
2020/01/31 11:14:31.0	293.150	0.020	-0.310	0.020
2020/01/31 11:14:31.1	293.150	0.010	-0.280	0.020
2020/01/31 11:14:31.2	293.160	-0.000	-0.250	0.020
2020/01/31 11:14:31.3	293.160	-0.010	-0.230	0.020
2020/01/31 11:14:31.4	293.170	-0.030	-0.200	0.020
2020/01/31 11:14:31.5	293.150	-0.040	-0.170	0.030
2020/01/31 11:14:31.6	293.160	-0.050	-0.150	0.040
2020/01/31 11:14:31.7	293.160	-0.060	-0.130	0.040
2020/01/31 11:14:31.8	293.160	-0.070	-0.110	0.050
2020/01/31 11:14:31.9	293.160	-0.070	-0.090	0.060
2020/01/31 11:14:32.0	293.160	-0.080	-0.080	0.070
2020/01/31 11:14:32.1	293.160	-0.090	-0.070	0.080
2020/01/31 11:14:32.2	293.160	-0.100	-0.060	0.090
2020/01/31 11:14:32.3	293.150	-0.100	-0.050	0.100
2020/01/31 11:14:32.4	293.150	-0.110	-0.050	0.110
2020/01/31 11:14:32.5	293.170	-0.110	-0.050	0.120
2020/01/31 11:14:32.6	293.170	-0.120	-0.050	0.130
2020/01/31 11:14:32.7	293.170	-0.120	-0.050	0.140
2020/01/31 11:14:32.8	293.170	-0.120	-0.050	0.140
2020/01/31 11:14:32.9	293.170	-0.130	-0.060	0.150
2020/01/31 11:14:33.0	293.170	-0.130	-0.060	0.150
2020/01/31 11:14:33.1	293.170	-0.130	-0.070	0.160
2020/01/31 11:14:33.2	293.170	-0.130	-0.070	0.160
2020/01/31 11:14:33.3	293.180	-0.130	-0.080	0.160
2020/01/31 11:14:33.4	293.180	-0.130	-0.090	0.170
2020/01/31 11:14:33.5	293.180	-0.130	-0.090	0.170
2020/01/31 11:14:33.6	293.190	-0.130	-0.100	0.170
2020/01/31 11:14:33.7	293.190	-0.130	-0.110	0.170
2020/01/31 11:14:33.8	293.190	-0.120	-0.110	0.170
2020/01/31 11:14:33.9	293.190	-0.120	-0.120	0.180
2020/01/31 11:14:34.0	293.200	-0.120	-0.120	0.180
2020/01/31 11:14:34.1	293.200	-0.120	-0.120	0.180
2020/01/31 11:14:34.2	293.200	-0.120	-0.130	0.180
2020/01/31 11:14:34.3	293.200	-0.110	-0.130	0.180
2020/01/31 11:14:34.4	293.200	-0.110	-0.130	0.190
2020/01/31 11:14:34.5	293.190	-0.110	-0.130	0.190
2020/01/31 11:14:34.6	293.190	-0.110	-0.130	0.190
2020/01/31 11:14:34.7	293.190	-0.110	-0.130	0.190
2020/01/31 11:14:34.8	293.190	-0.100	-0.130	0.200
2020/01/31 11:14:34.9	293.190	-0.100	-0.130	0.200
2020/01/31 11:14:35.0	293.190	-0.100	-0.120	0.210
2020/01/31 11:14:35.1	293.190	-0.100	-0.120	0.220
2020/01/31 11:14:35.2	293.190	-0.100	-0.120	0.220
2020/01/31 11:14:35.3	293.190	-0.090	-0.120	0.230
2020/01/31 11:14:35.4	293.180	-0.090	-0.120	0.240
2020/01/31 11:14:35.5	293.170	-0.090	-0.120	0.260
2020/01/31 11:14:35.6	293.170	-0.080	-0.120	0.270
2020/01/31 11:14:35.7	293.170	-0.080	-0.120	0.280
2020/01/31 11:14:35.8	293.160	-0.070	-0.120	0.300
2020/01/31 11:14:35.9	293.150	-0.070	-0.120	0.310
2020/01/31 11:14:36.0	293.150	-0.060	-0.130	0.330
2020/01/31 11:14:36.1	293.140	-0.060	-0.140	0.350
2020/01/31 11:14:36.2	293.130	-0.050	-0.140	0.370
2020/01/31 11:14:36.3	293.120	-0.050	-0.150	0.390
2020/01/31 11:14:36.4	293.110	-0.040	-0.160	0.410
2020/01/31 11:14:36.5	293.100	-0.030	-0.170	0.440
2020/01/31 11:14:36.6	293.080	-0.020	-0.190	0.460
2020/01/31 11:14:36.7	293.070	-0.020	-0.200	0.480
2020/01/31 11:14:36.8	293.060	-0.010	-0.220	0.510
2020/01/31 11:14:36.9	293.040	0.000	-0.230	0.530
2020/01/31 11:14:37.0	293.030	0.010	-0.250	0.560
2020/01/31 11:14:37.1	293.010	0.020	-0.270	0.580
2020/01/31 11:14:37.2	292.990	0.030	-0.280	0.610
2020/01/31 11:14:37.3	292.980	0.040	-0.300	0.630
2020/01/31 11:14:37.4	292.960	0.050	-0.320	0.660
2020/01/31 11:14:37.5	292.950	0.050	-0.330	0.680
2020/01/31 11:14:37.6	292.930	0.060	-0.350	0.700
2020/01/31 11:14:37.7	292.910	0.070	-0.360	0.720
2020/01/31 11:14:37.8	292.890	0.070	-0.380	0.740
2020/01/31 11:14:37.9	292.880	0.080	-0.390	0.760
2020/01/31 11:14:38.0	292.860	0.080	-0.400	0.780
2020/01/31 11:14:38.1	292.840	0.090	-0.410	0.790
2020/01/31 11:14:38.2	292.830	0.090	-0.420	0.810
2020/01/31 11:14:38.3	292.820	0.090	-0.420	0.820
2020/01/31 11:14:38.4	292.810	0.090	-0.430	0.830
2020/01/31 11:14:38.5	292.800	0.090	-0.430	0.840
2020/01/31 11:14:38.6	292.790	0.090	-0.430	0.840
2020/01/31 11:14:38.7	292.780	0.090	-0.420	0.850
2020/01/31 11:14:38.8	292.780	0.090	-0.420	0.850
2020/01/31 11:14:38.9	292.770	0.080	-0.410	0.850
2020/01/31 11:14:39.0	292.770	0.070	-0.400	0.840
2020/01/31 11:14:39.1	292.770	0.070	-0.390	0.830
2020/01/31 11:14:39.2	292.770	0.060	-0.380	0.820
2020/01/31 11:14:39.3	292.770	0.050	-0.370	0.810
2020/01/31 11:14:39.4	292.770	0.040	-0.350	0.800
2020/01/31 11:14:39.5	292.790	0.030	-0.340	0.780
2020/01/31 11:14:39.6	292.790	0.020	-0.320	0.760
2020/01/31 11:14:39.7	292.800	0.000	-0.300	0.740
2020/01/31 11:14:39.8	292.810	-0.010	-0.280	0.710
2020/01/31 11:14:39.9	292.810	-0.020	-0.270	0.690
2020/01/31 11:14:40.0	292.820	-0.040	-0.250	0.660
2020/01/31 11:14:40.1	292.830	-0.050	-0.230	0.640
2020/01/31 11:14:40.2	292.840	-0.060	-0.220	0.610
2020/01/31 11:14:40.3	292.850	-0.080	-0.200	0.580
2020/01/31 11:14:40.4	292.860	-0.090	-0.180	0.550
2020/01/31 11:14:40.5	292.870	-0.100	-0.170	0.530
2020/01/31 11:14:40.6	292.870	-0.120	-0.160	0.500
2020/01/31 11:14:40.7	292.880	-0.130	-0.150	0.470
2020/01/31 11:14:40.8	292.890	-0.140	-0.140	0.450
2020/01/31 11:14:40.9	292.900	-0.150	-0.130	0.420
2020/01/31 11:14:41.0	292.910	-0.150	-0.130	0.400
2020/01/31 11:14:41.1	292.920	-0.160	-0.120	0.380
2020/01/31 11:14:41.2	292.930	-0.170	-0.120	0.360
2020/01/31 11:14:41.3	292.940	-0.170	-0.120	0.340
2020/01/31 11:14:41.4	292.950	-0.170	-0.120	0.320
2020/01/31 11:14:41.5	292.960	-0.170	-0.130	0.310
2020/01/31 11:14:41.6	292.970	-0.170	-0.140	0.290
2020/01/31 11:14:41.7	292.970	-0.170	-0.150	0.280
2020/01/31 11:14:41.8	292.980	-0.170	-0.160	0.270
2020/01/31 11:14:41.9	292.980	-0.160	-0.170	0.250
2020/01/31 11:14:42.0	292.990	-0.160	-0.180	0.240
2020/01/31 11:14:42.1	292.990	-0.150	-0.200	0.240
2020/01/31 11:14:42.2	292.990	-0.140	-0.220	0.230
2020/01/31 11:14:42.3	292.990	-0.130	-0.230	0.220
2020/01/31 11:14:42.4	292.990	-0.120	-0.250	0.220
2020/01/31 11:14:42.5	292.990	-0.100	-0.270	0.220
2020/01/31 11:14:42.6	292.990	-0.090	-0.290	0.220
2020/01/31 11:14:42.7	292.990	-0.080	-0.300	0.220
2020/01/31 11:14:42.8	292.990	-0.060	-0.320	0.220
2020/01/31 11:14:42.9	292.990	-0.040	-0.340	0.220
2020/01/31 11:14:43.0	292.990	-0.030	-0.360	0.230
2020/01/31 11:14:43.1	292.990	-0.010	-0.370	0.240
2020/01/31 11:14:43.2	292.980	0.010	-0.390	0.250
2020/01/31 11:14:43.3	292.980	0.030	-0.400	0.260
2020/01/31 11:14:43.4	292.970	0.040	-0.410	0.270
2020/01/31 11:14:43.5	292.970	0.060	-0.430	0.280
2020/01/31 11:14:43.6	292.970	0.080	-0.440	0.300
2020/01/31 11:14:43.7	292.960	0.100	-0.440	0.310
2020/01/31 11:14:43.8	292.960	0.110	-0.450	0.330
2020/01/31 11:14:43.9	292.950	0.130	-0.450	0.350
2020/01/31 11:14:44.0	292.950	0.140	-0.450	0.370
2020/01/31 11:14:44.1	292.940	0.160	-0.450	0.390
2020/01/31 11:14:44.2	292.940	0.170	-0.450	0.410
2020/01/31 11:14:44.3	292.930	0.180	-0.440	0.420
2020/01/31 11:14:44.4	292.930	0.190	-0.440	0.440
2020/01/31 11:14:44.5	292.930	0.200	-0.430	0.460
2020/01/31 11:14:44.6	292.930	0.210	-0.420	0.480
2020/01/31 11:14:44.7	292.930	0.220	-0.410	0.500
2020/01/31 11:14:44.8	292.930	0.220	-0.400	0.510
2020/01/31 11:14:44.9	292.930	0.230	-0.380	0.530
2020/01/31 11:14:45.0	292.930	0.230	-0.370	0.540
2020/01/31 11:14:45.1	292.930	0.230	-0.350	0.550
2020/01/31 11:14:45.2	292.940	0.230	-0.340	0.570
2020/01/31 11:14:45.3	292.940	0.230	-0.320	0.580
2020/01/31 11:14:45.4	292.950	0.230	-0.300	0.590
2020/01/31 11:14:45.5	292.960	0.230	-0.290	0.590
2020/01/31 11:14:45.6	292.970	0.220	-0.270	0.600
2020/01/31 11:14:45.7	292.970	0.220	-0.250	0.610
2020/01/31 11:14:45.8	292.980	0.210	-0.240	0.610
2020/01/31 11:14:45.9	292.990	0.200	-0.220	0.620
2020/01/31 11:14:46.0	293.000	0.190	-0.200	0.620
2020/01/31 11:14:46.1	293.000	0.190	-0.180	0.630
2020/01/31 11:14:46.2	293.010	0.180	-0.170	0.630
2020/01/31 11:14:46.3	293.020	0.170	-0.150	0.640
2020/01/31 11:14:46.4	293.020	0.160	-0.130	0.640
2020/01/31 11:14:46.5	293.030	0.150	-0.120	0.640
2020/01/31 11:14:46.6	293.030	0.140	-0.100	0.640
2020/01/31 11:14:46.7	293.040	0.120	-0.090	0.650
2020/01/31 11:14:46.8	293.040	0.110	-0.070	0.650
2020/01/31 11:14:46.9	293.050	0.100	-0.060	0.650
2020/01/31 11:14:47.0	293.050	0.090	-0.050	0.660
2020/01/31 11:14:47.1	293.050	0.080	-0.040	0.660
2020/01/31 11:14:47.2	293.050	0.070	-0.020	0.660
2020/01/31 11:14:47.3	293.050	0.060	-0.020	0.670
2020/01/31 11:14:47.4	293.050	0.050	-0.010	0.670
2020/01/31 11:14:47.5	293.040	0.040	-0.000	0.680
2020/01/31 11:14:47.6	293.040	0.030	0.000	0.680
2020/01/31 11:14:47.7	293.040	0.020	0.010	0.690
2020/01/31 11:14:47.8	293.030	0.010	0.010	0.690
2020/01/31 11:14:47.9	293.030	-0.000	0.010	0.700
2020/01/31 11:14:48.0	293.020	-0.010	0.010	0.700
2020/01/31 11:14:48.1	293.010	-0.020	0.000	0.710
2020/01/31 11:14:48.2	293.000	-0.030	-0.000	0.710
2020/01/31 11:14:48.3	292.990	-0.040	-0.010	0.720
2020/01/31 11:14:48.4	292.980	-0.050	-0.010	0.720
2020/01/31 11:14:48.5	292.980	-0.050	-0.020	0.720
2020/01/31 11:14:48.6	292.960	-0.060	-0.030	0.730
2020/01/31 11:14:48.7	292.950	-0.070	-0.040	0.730
2020/01/31 11:14:48.8	292.940	-0.080	-0.050	0.740
2020/01/31 11:14:48.9	292.920	-0.080	-0.060	0.740
2020/01/31 11:14:49.0	292.910	-0.090	-0.070	0.740
2020/01/31 11:14:49.1	292.890	-0.100	-0.090	0.740
2020/01/31 11:14:49.2	292.880	-0.110	-0.100	0.740
2020/01/31 11:14:49.3	292.860	-0.110	-0.110	0.740
2020/01/31 11:14:49.4	292.850	-0.120	-0.120	0.740
2020/01/31 11:14:49.5	292.830	-0.130	-0.130	0.730
2020/01/31 11:14:49.6	292.810	-0.140	-0.150	0.730
2020/01/31 11:14:49.7	292.800	-0.140	-0.160	0.720
2020/01/31 11:14:49.8	292.780	-0.150	-0.170	0.720
2020/01/31 11:14:49.9	292.760	-0.160	-0.180	0.710
2020/01/31 11:14:50.0	292.750	-0.170	-0.180	0.700
2020/01/31 11:14:50.1	292.730	-0.170	-0.190	0.680
2020/01/31 11:14:50.2	292.720	-0.180	-0.200	0.670
2020/01/31 11:14:50.3	292.700	-0.190	-0.200	0.660
2020/01/31 11:14:50.4	292.690	-0.200	-0.210	0.640
2020/01/31 11:14:50.5	292.680	-0.210	-0.210	0.620
2020/01/31 11:14:50.6	292.670	-0.210	-0.210	0.610
2020/01/31 11:14:50.7	292.660	-0.220	-0.210	0.590
2020/01/31 11:14:50.8	292.640	-0.230	-0.210	0.570
2020/01/31 11:14:50.9	292.630	-0.240	-0.210	0.540
2020/01/31 11:14:51.0	292.620	-0.240	-0.210	0.520
2020/01/31 11:14:51.1	292.610	-0.250	-0.210	0.500
2020/01/31 11:14:51.2	292.600	-0.260	-0.210	0.470
2020/01/31 11:14:51.3	292.590	-0.260	-0.210	0.450
2020/01/31 11:14:51.4	292.580	-0.270	-0.200	0.420
2020/01/31 11:14:51.5	292.580	-0.270	-0.200	0.390
2020/01/31 11:14:51.6	292.570	-0.270	-0.200	0.370
2020/01/31 11:14:51.7	292.570	-0.280	-0.200	0.340
2020/01/31 11:14:51.8	292.560	-0.280	-0.190	0.310
2020/01/31 11:14:51.9	292.550	-0.280	-0.190	0.280
2020/01/31 11:14:52.0	292.550	-0.280	-0.190	0.250
2020/01/31 11:14:52.1	292.540	-0.270	-0.190	0.220
2020/01/31 11:14:52.2	292.540	-0.270	-0.190	0.190
2020/01/31 11:14:52.3	292.540	-0.260	-0.190	0.160
2020/01/31 11:14:52.4	292.540	-0.260	-0.200	0.140
2020/01/31 11:14:52.5	292.530	-0.250	-0.200	0.110
2020/01/31 11:14:52.6	292.540	-0.240	-0.210	0.080
2020/01/31 11:14:52.7	292.540	-0.230	-0.210	0.060
2020/01/31 11:14:52.8	292.540	-0.220	-0.220	0.030
2020/01/31 11:14:52.9	292.550	-0.210	-0.230	0.010
2020/01/31 11:14:53.0	292.560	-0.190	-0.240	-0.010
2020/01/31 11:14:53.1	292.570	-0.180	-0.250	-0.040
2020/01/31 11:14:53.2	292.580	-0.160	-0.260	-0.060
2020/01/31 11:14:53.3	292.590	-0.140	-0.270	-0.080
2020/01/31 11:14:53.4	292.610	-0.120	-0.290	-0.090
2020/01/31 11:14:53.5	292.620	-0.110	-0.310	-0.110
2020/01/31 11:14:53.6	292.640	-0.090	-0.320	-0.130
2020/01/31 11:14:53.7	292.660	-0.070	-0.340	-0.140
2020/01/31 11:14:53.8	292.680	-0.050	-0.350	-0.150
2020/01/31 11:14:53.9	292.700	-0.030	-0.370	-0.160
2020/01/31 11:14:54.0	292.730	-0.010	-0.390	-0.170
2020/01/31 11:14:54.1	292.750	0.010	-0.400	-0.180
2020/01/31 11:14:54.2	292.780	0.030	-0.420	-0.180
2020/01/31 11:14:54.3	292.800	0.050	-0.440	-0.180
2020/01/31 11:14:54.4	292.830	0.070	-0.450	-0.180
2020/01/31 11:14:54.5	292.860	0.080	-0.460	-0.170
2020/01/31 11:14:54.6	292.890	0.100	-0.480	-0.170
2020/01/31 11:14:54.7	292.920	0.120	-0.490	-0.160
2020/01/31 11:14:54.8	292.940	0.130	-0.500	-0.150
2020/01/31 11:14:54.9	292.970	0.150	-0.510	-0.130
2020/01/31 11:14:55.0	293.000	0.160	-0.520	-0.120
2020/01/31 11:14:55.1	293.020	0.170	-0.530	-0.100
2020/01/31 11:14:55.2	293.050	0.180	-0.540	-0.070
2020/01/31 11:14:55.3	293.070	0.190	-0.540	-0.050
2020/01/31 11:14:55.4	293.100	0.200	-0.550	-0.020
2020/01/31 11:14:55.5	293.130	0.210	-0.550	0.000
2020/01/31 11:14:55.6	293.150	0.210	-0.550	0.030
2020/01/31 11:14:55.7	293.170	0.220	-0.550	0.060
2020/01/31 11:14:55.8	293.190	0.220	-0.550	0.090
2020/01/31 11:14:55.9	293.210	0.220	-0.540	0.130
2020/01/31 11:14:56.0	293.230	0.220	-0.540	0.160
2020/01/31 11:14:56.1	293.250	0.220	-0.530	0.200
2020/01/31 11:14:56.2	293.270	0.220	-0.530	0.230
2020/01/31 11:14:56.3	293.280	0.210	-0.520	0.270
2020/01/31 11:14:56.4	293.290	0.210	-0.510	0.310
2020/01/31 11:14:56.5	293.320	0.200	-0.500	0.350
2020/01/31 11:14:56.6	293.320	0.200	-0.490	0.390
2020/01/31 11:14:56.7	293.330	0.190	-0.480	0.430
2020/01/31 11:14:56.8	293.340	0.180	-0.460	0.470
2020/01/31 11:14:56.9	293.340	0.170	-0.450	0.510
2020/01/31 11:14:57.0	293.340	0.160	-0.440	0.550
2020/01/31 11:14:57.1	293.340	0.150	-0.420	0.590
2020/01/31 11:14:57.2	293.330	0.140	-0.410	0.630
2020/01/31 11:14:57.3	293.330	0.120	-0.390	0.670
2020/01/31 11:14:57.4	293.320	0.110	-0.380	0.700
2020/01/31 11:14:57.5	293.310	0.100	-0.360	0.740
2020/01/31 11:14:57.6	293.300	0.080	-0.350	0.770
2020/01/31 11:14:57.7	293.280	0.070	-0.340	0.800
2020/01/31 11:14:57.8	293.270	0.050	-0.320	0.840
2020/01/31 11:14:57.9	293.250	0.040	-0.310	0.870
2020/01/31 11:14:58.0	293.230	0.020	-0.300	0.890
2020/01/31 11:14:58.1	293.210	0.010	-0.290	0.920
2020/01/31 11:14:58.2	293.190	-0.010	-0.280	0.950
2020/01/31 11:14:58.3	293.160	-0.020	-0.260	0.970
2020/01/31 11:14:58.4	293.130	-0.030	-0.250	1.000
2020/01/31 11:14:58.5	293.090	-0.050	-0.240	1.020
2020/01/31 11:14:58.6	293.060	-0.060	-0.230	1.040
2020/01/31 11:14:58.7	293.030	-0.070	-0.210	1.060
2020/01/31 11:14:58.8	292.990	-0.080	-0.200	1.070
2020/01/31 11:14:58.9	292.960	-0.090	-0.190	1.090
2020/01/31 11:14:59.0	292.920	-0.100	-0.180	1.110
2020/01/31 11:14:59.1	292.890	-0.110	-0.160	1.120
2020/01/31 11:14:59.2	292.850	-0.120	-0.150	1.140
2020/01/31 11:14:59.3	292.810	-0.120	-0.140	1.150
2020/01/31 11:14:59.4	292.770	-0.130	-0.120	1.160
2020/01/31 11:14:59.5	292.740	-0.130	-0.110	1.170
2020/01/31 11:14:59.6	292.700	-0.130	-0.100	1.180
2020/01/31 11:14:59.7	292.660	-0.130	-0.080	1.180
2020/01/31 11:14:59.8	292.630	-0.130	-0.070	1.190
2020/01/31 11:14:59.9	292.590	-0.130	-0.060	1.190
2020/01/31 11:15:00.0	292.560	-0.130	-0.050	1.190
2020/01/31 11:15:00.1	292.520	-0.120	-0.040	1.190
2020/01/31 11:15:00.2	292.490	-0.120	-0.030	1.190
2020/01/31 11:15:00.3	292.460	-0.110	-0.020	1.190
2020/01/31 11:15:00.4	292.430	-0.110	-0.010	1.180
2020/01/31 11:15:00.5	292.380	-0.100	0.000	1.170
2020/01/31 11:15:00.6	292.350	-0.090	0.010	1.160
2020/01/31 11:15:00.7	292.330	-0.080	0.020	1.150
2020/01/31 11:15:00.8	292.300	-0.070	0.020	1.140
2020/01/31 11:15:00.9	292.280	-0.060	0.030	1.120
2020/01/31 11:15:01.0	292.260	-0.050	0.040	1.110
2020/01/31 11:15:01.1	292.240	-0.040	0.040	1.090
2020/01/31 11:15:01.2	292.220	-0.030	0.040	1.070
2020/01/31 11:15:01.3	292.210	-0.020	0.050	1.050
2020/01/31 11:15:01.4	292.190	-0.010	0.050	1.030
2020/01/31 11:15:01.5	292.180	0.000	0.050	1.000
2020/01/31 11:15:01.6	292.170	0.010	0.050	0.980
2020/01/31 11:15:01.7	292.160	0.020	0.050	0.950
2020/01/31 11:15:01.8	292.150	0.030	0.050	0.920
2020/01/31 11:15:01.9	292.150	0.040	0.050	0.890
2020/01/31 11:15:02.0	292.150	0.050	0.040	0.860
2020/01/31 11:15:02.1	292.150	0.060	0.040	0.830
2020/01/31 11:15:02.2	292.150	0.070	0.040	0.800
2020/01/31 11:15:02.3	292.160	0.080	0.040	0.760
2020/01/31 11:15:02.4	292.160	0.090	0.040	0.730
2020/01/31 11:15:02.5	292.200	0.090	0.030	0.690
2020/01/31 11:15:02.6	292.200	0.100	0.030	0.660
2020/01/31 11:15:02.7	292.220	0.110	0.030	0.620
2020/01/31 11:15:02.8	292.230	0.110	0.020	0.580
2020/01/31 11:15:02.9	292.240	0.110	0.020	0.550
2020/01/31 11:15:03.0	292.260	0.120	0.020	0.510
2020/01/31 11:15:03.1	292.270	0.120	0.010	0.470
2020/01/31 11:15:03.2	292.290	0.120	0.010	0.430
2020/01/31 11:15:03.3	292.300	0.120	0.010	0.400
2020/01/31 11:15:03.4	292.320	0.120	0.000	0.360
2020/01/31 11:15:03.5	292.330	0.120	-0.010	0.320
2020/01/31 11:15:03.6	292.350	0.120	-0.010	0.280
2020/01/31 11:15:03.7	292.370	0.110	-0.020	0.240
2020/01/31 11:15:03.8	292.390	0.110	-0.020	0.210
2020/01/31 11:15:03.9	292.410	0.100	-0.030	0.170
2020/01/31 11:15:04.0	292.430	0.100	-0.030	0.130
2020/01/31 11:15:04.1	292.460	0.090	-0.040	0.100
2020/01/31 11:15:04.2	292.480	0.080	-0.050	0.060
2020/01/31 11:15:04.3	292.500	0.070	-0.060	0.030
2020/01/31 11:15:04.4	292.530	0.070	-0.070	-0.010
2020/01/31 11:15:04.5	292.550	0.060	-0.080	-0.040
2020/01/31 11:15:04.6	292.580	0.050	-0.090	-0.070
2020/01/31 11:15:04.7	292.600	0.030	-0.100	-0.100
2020/01/31 11:15:04.8	292.630	0.020	-0.110	-0.140
2020/01/31 11:15:04.9	292.660	0.010	-0.120	-0.160
2020/01/31 11:15:05.0	292.680	-0.000	-0.140	-0.190
2020/01/31 11:15:05.1	292.710	-0.010	-0.150	-0.220
2020/01/31 11:15:05.2	292.740	-0.020	-0.170	-0.240
2020/01/31 11:15:05.3	292.770	-0.040	-0.190	-0.260
2020/01/31 11:15:05.4	292.790	-0.050	-0.210	-0.280
2020/01/31 11:15:05.5	292.810	-0.060	-0.230	-0.300
2020/01/31 11:15:05.6	292.830	-0.070	-0.250	-0.310
2020/01/31 11:15:05.7	292.860	-0.080	-0.270	-0.330
2020/01/31 11:15:05.8	292.880	-0.090	-0.290	-0.340
2020/01/31 11:15:05.9	292.910	-0.110	-0.310	-0.340
2020/01/31 11:15:06.0	292.930	-0.120	-0.330	-0.350
2020/01/31 11:15:06.1	292.960	-0.120	-0.350	-0.350
2020/01/31 11:15:06.2	292.980	-0.130	-0.370	-0.350
2020/01/31 11:15:06.3	293.000	-0.140	-0.390	-0.350
2020/01/31 11:15:06.4	293.020	-0.150	-0.410	-0.340
2020/01/31 11:15:06.5	293.040	-0.160	-0.420	-0.330
2020/01/31 11:15:06.6	293.050	-0.160	-0.440	-0.320
2020/01/31 11:15:06.7	293.070	-0.170	-0.460	-0.300
2020/01/31 11:15:06.8	293.080	-0.170	-0.480	-0.280
2020/01/31 11:15:06.9	293.090	-0.170	-0.500	-0.260
2020/01/31 11:15:07.0	293.100	-0.180	-0.510	-0.230
2020/01/31 11:15:07.1	293.110	-0.180	-0.530	-0.200
2020/01/31 11:15:07.2	293.120	-0.180	-0.540	-0.170
2020/01/31 11:15:07.3	293.130	-0.180	-0.560	-0.140
2020/01/31 11:15:07.4	293.130	-0.170	-0.570	-0.100
2020/01/31 11:15:07.5	293.150	-0.170	-0.590	-0.060
2020/01/31 11:15:07.6	293.150	-0.170	-0.600	-0.010
2020/01/31 11:15:07.7	293.150	-0.160	-0.610	0.030
2020/01/31 11:15:07.8	293.140	-0.150	-0.620	0.080
2020/01/31 11:15:07.9	293.140	-0.150	-0.630	0.130
2020/01/31 11:15:08.0	293.130	-0.140	-0.640	0.180
2020/01/31 11:15:08.1	293.130	-0.130	-0.650	0.240
2020/01/31 11:15:08.2	293.120	-0.120	-0.650	0.290
2020/01/31 11:15:08.3	293.110	-0.100	-0.660	0.350
2020/01/31 11:15:08.4	293.100	-0.090	-0.670	0.410
2020/01/31 11:15:08.5	293.090	-0.080	-0.670	0.470
2020/01/31 11:15:08.6	293.080	-0.060	-0.680	0.530
2020/01/31 11:15:08.7	293.070	-0.050	-0.680	0.580
2020/01/31 11:15:08.8	293.050	-0.030	-0.690	0.640
2020/01/31 11:15:08.9	293.040	-0.020	-0.690	0.700
2020/01/31 11:15:09.0	293.020	0.000	-0.690	0.760
2020/01/31 11:15:09.1	293.010	0.020	-0.700	0.810
2020/01/31 11:15:09.2	293.000	0.040	-0.700	0.860
2020/01/31 11:15:09.3	292.980	0.050	-0.700	0.910
2020/01/31 11:15:09.4	292.960	0.070	-0.700	0.960
2020/01/31 11:15:09.5	292.950	0.090	-0.700	1.010
2020/01/31 11:15:09.6	292.930	0.100	-0.700	1.050
2020/01/31 11:15:09.7	292.920	0.120	-0.700	1.100
2020/01/31 11:15:09.8	292.900	0.130	-0.700	1.130
2020/01/31 11:15:09.9	292.880	0.150	-0.700	1.170
2020/01/31 11:15:10.0	292.860	0.160	-0.700	1.200
2020/01/31 11:15:10.1	292.840	0.170	-0.690	1.230
2020/01/31 11:15:10.2	292.820	0.180	-0.680	1.260
2020/01/31 11:15:10.3	292.800	0.190	-0.670	1.290
2020/01/31 11:15:10.4	292.770	0.200	-0.660	1.310
2020/01/31 11:15:10.5	292.770	0.200	-0.650	1.330
2020/01/31 11:15:10.6	292.750	0.210	-0.640	1.340
2020/01/31 11:15:10.7	292.720	0.210	-0.620	1.360
2020/01/31 11:15:10.8	292.700	0.210	-0.600	1.370
2020/01/31 11:15:10.9	292.680	0.210	-0.580	1.370
2020/01/31 11:15:11.0	292.650	0.200	-0.550	1.380
2020/01/31 11:15:11.1	292.630	0.190	-0.530	1.380
2020/01/31 11:15:11.2	292.600	0.190	-0.500	1.380
2020/01/31 11:15:11.3	292.580	0.180	-0.470	1.380
2020/01/31 11:15:11.4	292.560	0.170	-0.430	1.380
2020/01/31 11:15:11.5	292.520	0.150	-0.390	1.370
2020/01/31 11:15:11.6	292.500	0.140	-0.360	1.360
2020/01/31 11:15:11.7	292.480	0.120	-0.320	1.350
2020/01/31 11:15:11.8	292.450	0.100	-0.270	1.340
2020/01/31 11:15:11.9	292.430	0.080	-0.230	1.330
2020/01/31 11:15:12.0	292.410	0.060	-0.190	1.310
2020/01/31 11:15:12.1	292.390	0.040	-0.140	1.290
2020/01/31 11:15:12.2	292.370	0.020	-0.100	1.270
2020/01/31 11:15:12.3	292.350	0.000	-0.050	1.240
2020/01/31 11:15:12.4	292.330	-0.020	-0.010	1.220
2020/01/31 11:15:12.5	292.330	-0.040	0.040	1.190
2020/01/31 11:15:12.6	292.310	-0.070	0.080	1.160
2020/01/31 11:15:12.7	292.300	-0.090	0.130	1.120
2020/01/31 11:15:12.8	292.290	-0.110	0.170	1.090
2020/01/31 11:15:12.9	292.280	-0.130	0.220	1.050
2020/01/31 11:15:13.0	292.270	-0.150	0.260	1.020
2020/01/31 11:15:13.1	292.260	-0.170	0.300	0.980
2020/01/31 11:15:13.2	292.260	-0.190	0.330	0.940
2020/01/31 11:15:13.3	292.260	-0.210	0.370	0.900
2020/01/31 11:15:13.4	292.250	-0.230	0.400	0.860
2020/01/31 11:15:13.5	292.260	-0.240	0.430	0.810
2020/01/31 11:15:13.6	292.260	-0.260	0.460	0.770
2020/01/31 11:15:13.7	292.260	-0.270	0.480	0.730
2020/01/31 11:15:13.8	292.270	-0.280	0.510	0.680
2020/01/31 11:15:13.9	292.270	-0.290	0.520	0.640
2020/01/31 11:15:14.0	292.280	-0.290	0.540	0.600
2020/01/31 11:15:14.1	292.290	-0.300	0.550	0.550
2020/01/31 11:15:14.2	292.300	-0.310	0.560	0.510
2020/01/31 11:15:14.3	292.310	-0.310	0.570	0.470
2020/01/31 11:15:14.4	292.320	-0.310	0.570	0.420
2020/01/31 11:15:14.5	292.340	-0.310	0.570	0.380
2020/01/31 11:15:14.6	292.350	-0.310	0.560	0.340
2020/01/31 11:15:14.7	292.360	-0.300	0.550	0.300
2020/01/31 11:15:14.8	292.380	-0.300	0.540	0.260
2020/01/31 11:15:14.9	292.390	-0.290	0.530	0.220
2020/01/31 11:15:15.0	292.400	-0.280	0.520	0.190
2020/01/31 11:15:15.1	292.420	-0.270	0.500	0.150
2020/01/31 11:15:15.2	292.430	-0.260	0.480	0.120
2020/01/31 11:15:15.3	292.450	-0.250	0.450	0.090
2020/01/31 11:15:15.4	292.460	-0.240	0.430	0.060
2020/01/31 11:15:15.5	292.490	-0.230	0.400	0.020
2020/01/31 11:15:15.6	292.500	-0.210	0.370	-0.000
2020/01/31 11:15:15.7	292.520	-0.200	0.340	-0.030
2020/01/31 11:15:15.8	292.540	-0.180	0.300	-0.050
2020/01/31 11:15:15.9	292.560	-0.170	0.270	-0.070
2020/01/31 11:15:16.0	292.570	-0.150	0.230	-0.090
2020/01/31 11:15:16.1	292.590	-0.130	0.200	-0.110
2020/01/31 11:15:16.2	292.610	-0.120	0.160	-0.120
2020/01/31 11:15:16.3	292.630	-0.100	0.120	-0.130
2020/01/31 11:15:16.4	292.660	-0.080	0.080	-0.140
2020/01/31 11:15:16.5	292.670	-0.060	0.030	-0.150
2020/01/31 11:15:16.6	292.690	-0.040	-0.010	-0.160
2020/01/31 11:15:16.7	292.720	-0.030	-0.050	-0.160
2020/01/31 11:15:16.8	292.740	-0.010	-0.100	-0.160
2020/01/31 11:15:16.9	292.770	0.010	-0.150	-0.160
2020/01/31 11:15:17.0	292.790	0.030	-0.190	-0.160
2020/01/31 11:15:17.1	292.820	0.050	-0.240	-0.150
2020/01/31 11:15:17.2	292.840	0.070	-0.290	-0.140
2020/01/31 11:15:17.3	292.870	0.080	-0.340	-0.130
2020/01/31 11:15:17.4	292.900	0.100	-0.380	-0.120
2020/01/31 11:15:17.5	292.920	0.120	-0.430	-0.110
2020/01/31 11:15:17.6	292.940	0.130	-0.480	-0.090
2020/01/31 11:15:17.7	292.970	0.150	-0.530	-0.080
2020/01/31 11:15:17.8	292.990	0.170	-0.570	-0.060
2020/01/31 11:15:17.9	293.020	0.180	-0.620	-0.040
2020/01/31 11:15:18.0	293.040	0.200	-0.660	-0.020
2020/01/31 11:15:18.1	293.060	0.210	-0.700	0.010
2020/01/31 11:15:18.2	293.080	0.230	-0.740	0.030
2020/01/31 11:15:18.3	293.100	0.240	-0.780	0.060
2020/01/31 11:15:18.4	293.120	0.250	-0.820	0.090
2020/01/31 11:15:18.5	293.130	0.260	-0.850	0.120
2020/01/31 11:15:18.6	293.150	0.280	-0.890	0.150
2020/01/31 11:15:18.7	293.160	0.290	-0.920	0.180
2020/01/31 11:15:18.8	293.170	0.300	-0.940	0.210
2020/01/31 11:15:18.9	293.180	0.300	-0.970	0.250
2020/01/31 11:15:19.0	293.190	0.310	-0.990	0.290
2020/01/31 11:15:19.1	293.200	0.320	-1.010	0.320
2020/01/31 11:15:19.2	293.210	0.330	-1.020	0.360
2020/01/31 11:15:19.3	293.210	0.330	-1.040	0.400
2020/01/31 11:15:19.4	293.210	0.340	-1.040	0.440
2020/01/31 11:15:19.5	293.210	0.340	-1.050	0.480
2020/01/31 11:15:19.6	293.210	0.340	-1.050	0.530
2020/01/31 11:15:19.7	293.200	0.350	-1.050	0.570
2020/01/31 11:15:19.8	293.200	0.350	-1.050	0.610
2020/01/31 11:15:19.9	293.190	0.350	-1.040	0.660
2020/01/31 11:15:20.0	293.180	0.350	-1.030	0.700
2020/01/31 11:15:20.1	293.160	0.350	-1.020	0.750
2020/01/31 11:15:20.2	293.150	0.350	-1.000	0.790
2020/01/31 11:15:20.3	293.130	0.340	-0.980	0.830
2020/01/31 11:15:20.4	293.110	0.340	-0.960	0.880
2020/01/31 11:15:20.5	293.090	0.340	-0.930	0.920
2020/01/31 11:15:20.6	293.060	0.330	-0.910	0.960
2020/01/31 11:15:20.7	293.040	0.320	-0.880	1.000
2020/01/31 11:15:20.8	293.010	0.320	-0.850	1.040
2020/01/31 11:15:20.9	292.990	0.310	-0.810	1.080
2020/01/31 11:15:21.0	292.960	0.300	-0.780	1.110
2020/01/31 11:15:21.1	292.930	0.290	-0.740	1.140
2020/01/31 11:15:21.2	292.900	0.270	-0.700	1.170
2020/01/31 11:15:21.3	292.870	0.260	-0.660	1.200
2020/01/31 11:15:21.4	292.840	0.250	-0.630	1.220
2020/01/31 11:15:21.5	292.820	0.230	-0.580	1.240
2020/01/31 11:15:21.6	292.790	0.210	-0.540	1.260
2020/01/31 11:15:21.7	292.760	0.200	-0.500	1.280
2020/01/31 11:15:21.8	292.730	0.180	-0.460	1.290
2020/01/31 11:15:21.9	292.700	0.160	-0.420	1.300
2020/01/31 11:15:22.0	292.660	0.140	-0.380	1.310
2020/01/31 11:15:22.1	292.630	0.120	-0.340	1.310
2020/01/31 11:15:22.2	292.600	0.100	-0.290	1.310
2020/01/31 11:15:22.3	292.560	0.070	-0.250	1.300
2020/01/31 11:15:22.4	292.530	0.050	-0.210	1.300
2020/01/31 11:15:22.5	292.490	0.030	-0.180	1.290
2020/01/31 11:15:22.6	292.460	0.000	-0.140	1.270
2020/01/31 11:15:22.7	292.430	-0.020	-0.100	1.260
2020/01/31 11:15:22.8	292.400	-0.040	-0.060	1.230
2020/01/31 11:15:22.9	292.370	-0.070	-0.020	1.210
2020/01/31 11:15:23.0	292.340	-0.090	0.010	1.180
2020/01/31 11:15:23.1	292.310	-0.120	0.040	1.150
2020/01/31 11:15:23.2	292.280	-0.140	0.070	1.120
2020/01/31 11:15:23.3	292.250	-0.160	0.100	1.080
2020/01/31 11:15:23.4	292.230	-0.180	0.130	1.050
2020/01/31 11:15:23.5	292.230	-0.210	0.160	1.000
2020/01/31 11:15:23.6	292.210	-0.230	0.180	0.960
2020/01/31 11:15:23.7	292.190	-0.250	0.200	0.920
2020/01/31 11:15:23.8	292.170	-0.270	0.220	0.870
2020/01/31 11:15:23.9	292.160	-0.280	0.230	0.830
2020/01/31 11:15:24.0	292.150	-0.300	0.250	0.780
2020/01/31 11:15:24.1	292.140	-0.310	0.260	0.730
2020/01/31 11:15:24.2	292.130	-0.330	0.270	0.680
2020/01/31 11:15:24.3	292.130	-0.340	0.270	0.630
2020/01/31 11:15:24.4	292.130	-0.350	0.270	0.580
2020/01/31 11:15:24.5	292.130	-0.360	0.270	0.530
2020/01/31 11:15:24.6	292.130	-0.370	0.270	0.480
2020/01/31 11:15:24.7	292.140	-0.370	0.260	0.430
2020/01/31 11:15:24.8	292.150	-0.380	0.260	0.380
2020/01/31 11:15:24.9	292.160	-0.380	0.250	0.340
2020/01/31 11:15:25.0	292.170	-0.380	0.240	0.290
2020/01/31 11:15:25.1	292.190	-0.380	0.230	0.240
2020/01/31 11:15:25.2	292.200	-0.380	0.220	0.200
2020/01/31 11:15:25.3	292.220	-0.380	0.210	0.160
2020/01/31 11:15:25.4	292.240	-0.380	0.190	0.120
2020/01/31 11:15:25.5	292.260	-0.370	0.180	0.090
2020/01/31 11:15:25.6	292.290	-0.370	0.160	0.050
2020/01/31 11:15:25.7	292.310	-0.360	0.150	0.030
2020/01/31 11:15:25.8	292.340	-0.350	0.140	-0.000
2020/01/31 11:15:25.9	292.370	-0.340	0.120	-0.030
2020/01/31 11:15:26.0	292.390	-0.330	0.110	-0.050
2020/01/31 11:15:26.1	292.420	-0.320	0.100	-0.060
2020/01/31 11:15:26.2	292.450	-0.310	0.090	-0.080
2020/01/31 11:15:26.3	292.480	-0.300	0.070	-0.090
2020/01/31 11:15:26.4	292.520	-0.290	0.060	-0.100
2020/01/31 11:15:26.5	292.550	-0.270	0.050	-0.100
2020/01/31 11:15:26.6	292.580	-0.260	0.040	-0.100
2020/01/31 11:15:26.7	292.610	-0.250	0.030	-0.100
2020/01/31 11:15:26.8	292.640	-0.230	0.030	-0.090
2020/01/31 11:15:26.9	292.680	-0.220	0.020	-0.080
2020/01/31 11:15:27.0	292.710	-0.200	0.010	-0.070
2020/01/31 11:15:27.1	292.740	-0.190	0.010	-0.060
2020/01/31 11:15:27.2	292.780	-0.170	0.000	-0.040
2020/01/31 11:15:27.3	292.810	-0.150	-0.000	-0.030
2020/01/31 11:15:27.4	292.840	-0.140	-0.010	-0.010
2020/01/31 11:15:27.5	292.880	-0.120	-0.020	0.010
2020/01/31 11:15:27.6	292.910	-0.100	-0.020	0.040
2020/01/31 11:15:27.7	292.940	-0.090	-0.030	0.060
2020/01/31 11:15:27.8	292.970	-0.070	-0.040	0.090
2020/01/31 11:15:27.9	293.000	-0.050	-0.050	0.120
2020/01/31 11:15:28.0	293.020	-0.040	-0.060	0.150
2020/01/31 11:15:28.1	293.050	-0.020	-0.070	0.180
2020/01/31 11:15:28.2	293.070	-0.000	-0.080	0.210
2020/01/31 11:15:28.3	293.090	0.010	-0.090	0.240
2020/01/31 11:15:28.4	293.110	0.030	-0.100	0.280
2020/01/31 11:15:28.5	293.140	0.050	-0.120	0.310
2020/01/31 11:15:28.6	293.150	0.070	-0.130	0.350
2020/01/31 11:15:28.7	293.170	0.080	-0.150	0.380
2020/01/31 11:15:28.8	293.180	0.100	-0.170	0.420
2020/01/31 11:15:28.9	293.190	0.120	-0.190	0.450
2020/01/31 11:15:29.0	293.200	0.130	-0.210	0.480
2020/01/31 11:15:29.1	293.210	0.150	-0.230	0.510
2020/01/31 11:15:29.2	293.210	0.170	-0.260	0.540
2020/01/31 11:15:29.3	293.220	0.180	-0.280	0.570
2020/01/31 11:15:29.4	293.220	0.200	-0.310	0.600
2020/01/31 11:15:29.5	293.200	0.210	-0.330	0.630
2020/01/31 11:15:29.6	293.200	0.230	-0.360	0.660
2020/01/31 11:15:29.7	293.200	0.240	-0.390	0.680
2020/01/31 11:15:29.8	293.190	0.260	-0.410	0.710
2020/01/31 11:15:29.9	293.190	0.270	-0.440	0.730
2020/01/31 11:15:30.0	293.180	0.280	-0.460	0.750
2020/01/31 11:15:30.1	293.170	0.300	-0.490	0.770
2020/01/31 11:15:30.2	293.160	0.310	-0.510	0.790
2020/01/31 11:15:30.3	293.150	0.320	-0.540	0.810
2020/01/31 11:15:30.4	293.130	0.330	-0.560	0.820
2020/01/31 11:15:30.5	293.120	0.330	-0.580	0.840
2020/01/31 11:15:30.6	293.100	0.340	-0.600	0.850
2020/01/31 11:15:30.7	293.090	0.350	-0.620	0.860
2020/01/31 11:15:30.8	293.070	0.350	-0.640	0.870
2020/01/31 11:15:30.9	293.050	0.350	-0.660	0.880
2020/01/31 11:15:31.0	293.030	0.360	-0.670	0.890
2020/01/31 11:15:31.1	293.010	0.360	-0.690	0.900
2020/01/31 11:15:31.2	292.990	0.350	-0.700	0.900
2020/01/31 11:15:31.3	292.960	0.350	-0.710	0.900
2020/01/31 11:15:31.4	292.940	0.350	-0.710	0.900
2020/01/31 11:15:31.5	292.920	0.340	-0.720	0.890
2020/01/31 11:15:31.6	292.900	0.330	-0.720	0.890
2020/01/31 11:15:31.7	292.870	0.320	-0.720	0.880
2020/01/31 11:15:31.8	292.850	0.310	-0.720	0.870
2020/01/31 11:15:31.9	292.820	0.300	-0.720	0.860
2020/01/31 11:15:32.0	292.800	0.290	-0.710	0.850
2020/01/31 11:15:32.1	292.780	0.270	-0.700	0.840
2020/01/31 11:15:32.2	292.750	0.250	-0.690	0.820
2020/01/31 11:15:32.3	292.730	0.240	-0.680	0.800
2020/01/31 11:15:32.4	292.700	0.220	-0.660	0.780
2020/01/31 11:15:32.5	292.670	0.200	-0.640	0.760
2020/01/31 11:15:32.6	292.650	0.170	-0.620	0.740
2020/01/31 11:15:32.7	292.620	0.150	-0.600	0.720
2020/01/31 11:15:32.8	292.600	0.130	-0.580	0.700
2020/01/31 11:15:32.9	292.580	0.110	-0.550	0.670
2020/01/31 11:15:33.0	292.560	0.080	-0.530	0.640
2020/01/31 11:15:33.1	292.550	0.060	-0.500	0.620
2020/01/31 11:15:33.2	292.530	0.030	-0.470	0.590
2020/01/31 11:15:33.3	292.520	0.010	-0.440	0.560
2020/01/31 11:15:33.4	292.500	-0.010	-0.410	0.530
2020/01/31 11:15:33.5	292.480	-0.040	-0.380	0.500
2020/01/31 11:15:33.6	292.470	-0.060	-0.340	0.470
2020/01/31 11:15:33.7	292.460	-0.080	-0.310	0.450
2020/01/31 11:15:33.8	292.460	-0.100	-0.280	0.420
2020/01/31 11:15:33.9	292.450	-0.120	-0.240	0.390
2020/01/31 11:15:34.0	292.450	-0.140	-0.210	0.360
2020/01/31 11:15:34.1	292.440	-0.160	-0.180	0.340
2020/01/31 11:15:34.2	292.440	-0.180	-0.150	0.310
2020/01/31 11:15:34.3	292.440	-0.190	-0.120	0.290
2020/01/31 11:15:34.4	292.450	-0.210	-0.090	0.270
2020/01/31 11:15:34.5	292.440	-0.220	-0.060	0.240
2020/01/31 11:15:34.6	292.440	-0.230	-0.030	0.220
2020/01/31 11:15:34.7	292.450	-0.230	-0.010	0.200
2020/01/31 11:15:34.8	292.450	-0.240	0.010	0.190
2020/01/31 11:15:34.9	292.460	-0.240	0.030	0.170
2020/01/31 11:15:35.0	292.470	-0.250	0.050	0.160
2020/01/31 11:15:35.1	292.480	-0.250	0.060	0.150
2020/01/31 11:15:35.2	292.490	-0.240	0.070	0.140
2020/01/31 11:15:35.3	292.510	-0.240	0.080	0.130
2020/01/31 11:15:35.4	292.520	-0.230	0.090	0.120
2020/01/31 11:15:35.5	292.530	-0.230	0.090	0.120
2020/01/31 11:15:35.6	292.550	-0.220	0.090	0.120
2020/01/31 11:15:35.7	292.570	-0.210	0.090	0.120
2020/01/31 11:15:35.8	292.590	-0.200	0.080	0.120
2020/01/31 11:15:35.9	292.600	-0.180	0.080	0.130
2020/01/31 11:15:36.0	292.620	-0.170	0.070	0.130
2020/01/31 11:15:36.1	292.640	-0.150	0.050	0.140
2020/01/31 11:15:36.2	292.660	-0.130	0.040	0.160
2020/01/31 11:15:36.3	292.690	-0.120	0.020	0.180
2020/01/31 11:15:36.4	292.710	-0.100	0.000	0.190
2020/01/31 11:15:36.5	292.720	-0.080	-0.020	0.220
2020/01/31 11:15:36.6	292.740	-0.060	-0.040	0.240
2020/01/31 11:15:36.7	292.760	-0.040	-0.060	0.270
2020/01/31 11:15:36.8	292.780	-0.030	-0.080	0.290
2020/01/31 11:15:36.9	292.800	-0.010	-0.100	0.320
2020/01/31 11:15:37.0	292.820	0.010	-0.120	0.360
2020/01/31 11:15:37.1	292.840	0.020	-0.140	0.390
2020/01/31 11:15:37.2	292.860	0.040	-0.160	0.420
2020/01/31 11:15:37.3	292.880	0.050	-0.180	0.460
2020/01/31 11:15:37.4	292.900	0.070	-0.200	0.490
2020/01/31 11:15:37.5	292.940	0.080	-0.220	0.530
2020/01/31 11:15:37.6	292.960	0.090	-0.240	0.560
2020/01/31 11:15:37.7	292.970	0.100	-0.260	0.600
2020/01/31 11:15:37.8	292.990	0.110	-0.270	0.630
2020/01/31 11:15:37.9	293.010	0.110	-0.290	0.670
2020/01/31 11:15:38.0	293.030	0.120	-0.300	0.700
2020/01/31 11:15:38.1	293.050	0.120	-0.310	0.730
2020/01/31 11:15:38.2	293.070	0.120	-0.330	0.760
2020/01/31 11:15:38.3	293.080	0.120	-0.340	0.790
2020/01/31 11:15:38.4	293.100	0.120	-0.340	0.820
2020/01/31 11:15:38.5	293.120	0.120	-0.350	0.840
2020/01/31 11:15:38.6	293.130	0.120	-0.360	0.870
2020/01/31 11:15:38.7	293.150	0.110	-0.360	0.890
2020/01/31 11:15:38.8	293.160	0.100	-0.370	0.910
2020/01/31 11:15:38.9	293.170	0.100	-0.370	0.930
2020/01/31 11:15:39.0	293.170	0.090	-0.370	0.940
2020/01/31 11:15:39.1	293.180	0.080	-0.370	0.960
2020/01/31 11:15:39.2	293.180	0.070	-0.370	0.970
2020/01/31 11:15:39.3	293.190	0.060	-0.370	0.980
2020/01/31 11:15:39.4	293.190	0.040	-0.370	0.990
2020/01/31 11:15:39.5	293.200	0.030	-0.360	1.000
2020/01/31 11:15:39.6	293.200	0.020	-0.360	1.010
2020/01/31 11:15:39.7	293.190	0.010	-0.360	1.010
2020/01/31 11:15:39.8	293.190	-0.010	-0.360	1.010
2020/01/31 11:15:39.9	293.180	-0.020	-0.350	1.010
2020/01/31 11:15:40.0	293.180	-0.030	-0.350	1.000
2020/01/31 11:15:40.1	293.170	-0.040	-0.350	1.000
2020/01/31 11:15:40.2	293.160	-0.060	-0.340	0.990
2020/01/31 11:15:40.3	293.150	-0.070	-0.340	0.970
2020/01/31 11:15:40.4	293.140	-0.080	-0.340	0.960
2020/01/31 11:15:40.5	293.130	-0.090	-0.340	0.940
2020/01/31 11:15:40.6	293.120	-0.100	-0.330	0.920
2020/01/31 11:15:40.7	293.100	-0.100	-0.330	0.900
2020/01/31 11:15:40.8	293.090	-0.110	-0.330	0.870
2020/01/31 11:15:40.9	293.080	-0.120	-0.320	0.840
2020/01/31 11:15:41.0	293.060	-0.120	-0.320	0.820
2020/01/31 11:15:41.1	293.050	-0.130	-0.310	0.790
2020/01/31 11:15:41.2	293.030	-0.130	-0.310	0.760
2020/01/31 11:15:41.3	293.010	-0.140	-0.300	0.720
2020/01/31 11:15:41.4	292.990	-0.140	-0.300	0.690
2020/01/31 11:15:41.5	292.970	-0.140	-0.290	0.660
2020/01/31 11:15:41.6	292.960	-0.140	-0.280	0.620
2020/01/31 11:15:41.7	292.940	-0.140	-0.270	0.590
2020/01/31 11:15:41.8	292.920	-0.140	-0.270	0.550
2020/01/31 11:15:41.9	292.900	-0.140	-0.260	0.520
2020/01/31 11:15:42.0	292.880	-0.130	-0.250	0.480
2020/01/31 11:15:42.1	292.860	-0.130	-0.230	0.450
2020/01/31 11:15:42.2	292.840	-0.130	-0.220	0.410
2020/01/31 11:15:42.3	292.830	-0.120	-0.210	0.370
2020/01/31 11:15:42.4	292.810	-0.120	-0.200	0.340
2020/01/31 11:15:42.5	292.790	-0.110	-0.180	0.300
2020/01/31 11:15:42.6	292.770	-0.110	-0.160	0.270
2020/01/31 11:15:42.7	292.760	-0.100	-0.150	0.240
2020/01/31 11:15:42.8	292.740	-0.100	-0.130	0.200
2020/01/31 11:15:42.9	292.730	-0.090	-0.110	0.170
2020/01/31 11:15:43.0	292.720	-0.090	-0.090	0.140
2020/01/31 11:15:43.1	292.710	-0.080	-0.070	0.120
2020/01/31 11:15:43.2	292.700	-0.070	-0.050	0.090
2020/01/31 11:15:43.3	292.690	-0.070	-0.030	0.070
2020/01/31 11:15:43.4	292.680	-0.060	-0.010	0.050
2020/01/31 11:15:43.5	292.660	-0.050	0.010	0.030
2020/01/31 11:15:43.6	292.660	-0.050	0.030	0.010
2020/01/31 11:15:43.7	292.650	-0.040	0.050	-0.000
2020/01/31 11:15:43.8	292.640	-0.030	0.070	-0.010
2020/01/31 11:15:43.9	292.640	-0.030	0.080	-0.020
2020/01/31 11:15:44.0	292.630	-0.020	0.100	-0.030
2020/01/31 11:15:44.1	292.630	-0.010	0.110	-0.030
2020/01/31 11:15:44.2	292.620	-0.010	0.120	-0.030
2020/01/31 11:15:44.3	292.620	0.000	0.130	-0.030
2020/01/31 11:15:44.4	292.620	0.010	0.140	-0.030
2020/01/31 11:15:44.5	292.610	0.020	0.140	-0.020
2020/01/31 11:15:44.6	292.610	0.030	0.150	-0.010
2020/01/31 11:15:44.7	292.610	0.040	0.150	0.000
2020/01/31 11:15:44.8	292.610	0.050	0.140	0.020
2020/01/31 11:15:44.9	292.610	0.060	0.140	0.040
2020/01/31 11:15:45.0	292.610	0.070	0.130	0.060
2020/01/31 11:15:45.1	292.610	0.080	0.110	0.080
2020/01/31 11:15:45.2	292.620	0.090	0.100	0.100
2020/01/31 11:15:45.3	292.620	0.100	0.080	0.120
2020/01/31 11:15:45.4	292.620	0.110	0.060	0.150
2020/01/31 11:15:45.5	292.640	0.130	0.040	0.170
2020/01/31 11:15:45.6	292.650	0.140	0.010	0.200
2020/01/31 11:15:45.7	292.650	0.150	-0.020	0.230
2020/01/31 11:15:45.8	292.660	0.170	-0.050	0.250
2020/01/31 11:15:45.9	292.670	0.180	-0.080	0.280
2020/01/31 11:15:46.0	292.680	0.190	-0.120	0.310
2020/01/31 11:15:46.1	292.690	0.210	-0.150	0.340
2020/01/31 11:15:46.2	292.710	0.220	-0.190	0.370
2020/01/31 11:15:46.3	292.720	0.230	-0.220	0.400
2020/01/31 11:15:46.4	292.730	0.250	-0.260	0.420
2020/01/31 11:15:46.5	292.760	0.260	-0.300	0.450
2020/01/31 11:15:46.6	292.770	0.270	-0.340	0.480
2020/01/31 11:15:46.7	292.790	0.280	-0.380	0.510
2020/01/31 11:15:46.8	292.810	0.290	-0.420	0.530
2020/01/31 11:15:46.9	292.820	0.300	-0.450	0.560
2020/01/31 11:15:47.0	292.840	0.300	-0.490	0.580
2020/01/31 11:15:47.1	292.860	0.310	-0.530	0.600
2020/01/31 11:15:47.2	292.880	0.310	-0.560	0.620
2020/01/31 11:15:47.3	292.900	0.320	-0.590	0.640
2020/01/31 11:15:47.4	292.920	0.320	-0.620	0.660
2020/01/31 11:15:47.5	292.940	0.320	-0.640	0.680
2020/01/31 11:15:47.6	292.960	0.320	-0.670	0.700
2020/01/31 11:15:47.7	292.980	0.310	-0.690	0.710
2020/01/31 11:15:47.8	293.000	0.310	-0.710	0.730
2020/01/31 11:15:47.9	293.020	0.300	-0.730	0.750
2020/01/31 11:15:48.0	293.030	0.290	-0.740	0.760
2020/01/31 11:15:48.1	293.050	0.280	-0.750	0.770
2020/01/31 11:15:48.2	293.070	0.270	-0.760	0.790
2020/01/31 11:15:48.3	293.080	0.250	-0.760	0.800
2020/01/31 11:15:48.4	293.090	0.240	-0.770	0.810
2020/01/31 11:15:48.5	293.110	0.220	-0.760	0.820
2020/01/31 11:15:48.6	293.120	0.200	-0.760	0.830
2020/01/31 11:15:48.7	293.130	0.180	-0.750	0.840
2020/01/31 11:15:48.8	293.140	0.160	-0.740	0.840
2020/01/31 11:15:48.9	293.150	0.140	-0.730	0.850
2020/01/31 11:15:49.0	293.150	0.110	-0.710	0.850
2020/01/31 11:15:49.1	293.160	0.090	-0.690	0.850
2020/01/31 11:15:49.2	293.170	0.060	-0.680	0.850
2020/01/31 11:15:49.3	293.170	0.030	-0.660	0.840
2020/01/31 11:15:49.4	293.180	0.010	-0.630	0.840
2020/01/31 11:15:49.5	293.170	-0.020	-0.610	0.820
2020/01/31 11:15:49.6	293.170	-0.050	-0.590	0.810
2020/01/31 11:15:49.7	293.180	-0.070	-0.560	0.800
2020/01/31 11:15:49.8	293.180	-0.100	-0.540	0.790
2020/01/31 11:15:49.9	293.180	-0.130	-0.520	0.770
2020/01/31 11:15:50.0	293.180	-0.150	-0.490	0.750
2020/01/31 11:15:50.1	293.180	-0.180	-0.470	0.730
2020/01/31 11:15:50.2	293.180	-0.200	-0.450	0.710
2020/01/31 11:15:50.3	293.180	-0.220	-0.430	0.690
2020/01/31 11:15:50.4	293.180	-0.240	-0.410	0.670
2020/01/31 11:15:50.5	293.180	-0.260	-0.400	0.650
2020/01/31 11:15:50.6	293.180	-0.280	-0.380	0.620
2020/01/31 11:15:50.7	293.180	-0.300	-0.370	0.600
2020/01/31 11:15:50.8	293.180	-0.320	-0.350	0.570
2020/01/31 11:15:50.9	293.180	-0.330	-0.340	0.550
2020/01/31 11:15:51.0	293.180	-0.340	-0.330	0.530
2020/01/31 11:15:51.1	293.180	-0.350	-0.320	0.500
2020/01/31 11:15:51.2	293.180	-0.360	-0.310	0.480
2020/01/31 11:15:51.3	293.170	-0.370	-0.300	0.460
2020/01/31 11:15:51.4	293.170	-0.370	-0.300	0.440
2020/01/31 11:15:51.5	293.150	-0.370	-0.290	0.410
2020/01/31 11:15:51.6	293.150	-0.370	-0.280	0.400
2020/01/31 11:15:51.7	293.140	-0.370	-0.280	0.380
2020/01/31 11:15:51.8	293.130	-0.370	-0.270	0.360
2020/01/31 11:15:51.9	293.130	-0.370	-0.260	0.340
2020/01/31 11:15:52.0	293.120	-0.360	-0.260	0.330
2020/01/31 11:15:52.1	293.110	-0.350	-0.250	0.320
2020/01/31 11:15:52.2	293.100	-0.340	-0.240	0.310
2020/01/31 11:15:52.3	293.090	-0.330	-0.230	0.300
2020/01/31 11:15:52.4	293.080	-0.320	-0.230	0.290
2020/01/31 11:15:52.5	293.050	-0.310	-0.210	0.280
2020/01/31 11:15:52.6	293.040	-0.290	-0.200	0.270
2020/01/31 11:15:52.7	293.030	-0.280	-0.190	0.270
2020/01/31 11:15:52.8	293.010	-0.260	-0.180	0.270
2020/01/31 11:15:52.9	293.000	-0.250	-0.170	0.270
2020/01/31 11:15:53.0	292.990	-0.230	-0.150	0.270
2020/01/31 11:15:53.1	292.970	-0.210	-0.130	0.280
2020/01/31 11:15:53.2	292.960	-0.200	-0.120	0.280
2020/01/31 11:15:53.3	292.950	-0.180	-0.100	0.290
2020/01/31 11:15:53.4	292.940	-0.160	-0.080	0.290
2020/01/31 11:15:53.5	292.930	-0.140	-0.060	0.300
2020/01/31 11:15:53.6	292.920	-0.130	-0.030	0.310
2020/01/31 11:15:53.7	292.910	-0.110	-0.010	0.320
2020/01/31 11:15:53.8	292.900	-0.100	0.020	0.330
2020/01/31 11:15:53.9	292.890	-0.080	0.040	0.340
2020/01/31 11:15:54.0	292.880	-0.070	0.070	0.350
2020/01/31 11:15:54.1	292.880	-0.050	0.100	0.360
2020/01/31 11:15:54.2	292.870	-0.040	0.120	0.370
2020/01/31 11:15:54.3	292.870	-0.030	0.150	0.380
2020/01/31 11:15:54.4	292.860	-0.020	0.180	0.390
2020/01/31 11:15:54.5	292.870	-0.010	0.210	0.400
2020/01/31 11:15:54.6	292.860	0.000	0.240	0.410
2020/01/31 11:15:54.7	292.860	0.010	0.260	0.420
2020/01/31 11:15:54.8	292.860	0.020	0.290	0.430
2020/01/31 11:15:54.9	292.860	0.020	0.320	0.440
2020/01/31 11:15:55.0	292.860	0.030	0.340	0.450
2020/01/31 11:15:55.1	292.860	0.030	0.360	0.460
2020/01/31 11:15:55.2	292.850	0.040	0.380	0.470
2020/01/31 11:15:55.3	292.850	0.040	0.400	0.480
2020/01/31 11:15:55.4	292.850	0.040	0.410	0.490
2020/01/31 11:15:55.5	292.850	0.040	0.420	0.500
2020/01/31 11:15:55.6	292.850	0.050	0.430	0.510
2020/01/31 11:15:55.7	292.850	0.050	0.440	0.520
2020/01/31 11:15:55.8	292.850	0.050	0.440	0.530
2020/01/31 11:15:55.9	292.850	0.050	0.440	0.540
2020/01/31 11:15:56.0	292.850	0.050	0.430	0.550
2020/01/31 11:15:56.1	292.850	0.050	0.430	0.560
2020/01/31 11:15:56.2	292.850	0.060	0.420	0.560
2020/01/31 11:15:56.3	292.850	0.060	0.400	0.570
2020/01/31 11:15:56.4	292.850	0.060	0.380	0.580
2020/01/31 11:15:56.5	292.840	0.060	0.360	0.580
2020/01/31 11:15:56.6	292.840	0.070	0.330	0.580
2020/01/31 11:15:56.7	292.850	0.070	0.300	0.580
2020/01/31 11:15:56.8	292.850	0.080	0.270	0.580
2020/01/31 11:15:56.9	292.860	0.080	0.230	0.580
2020/01/31 11:15:57.0	292.860	0.090	0.190	0.580
2020/01/31 11:15:57.1	292.870	0.090	0.150	0.580
2020/01/31 11:15:57.2	292.880	0.100	0.110	0.570
2020/01/31 11:15:57.3	292.890	0.110	0.060	0.560
2020/01/31 11:15:57.4	292.900	0.120	0.010	0.560
2020/01/31 11:15:57.5	292.910	0.130	-0.040	0.550
2020/01/31 11:15:57.6	292.920	0.130	-0.100	0.530
2020/01/31 11:15:57.7	292.940	0.140	-0.150	0.520
2020/01/31 11:15:57.8	292.950	0.150	-0.210	0.510
2020/01/31 11:15:57.9	292.970	0.160	-0.260	0.490
2020/01/31 11:15:58.0	292.990	0.170	-0.320	0.480
2020/01/31 11:15:58.1	293.010	0.180	-0.380	0.460
2020/01/31 11:15:58.2	293.030	0.190	-0.430	0.450
2020/01/31 11:15:58.3	293.050	0.200	-0.490	0.430
2020/01/31 11:15:58.4	293.070	0.210	-0.540	0.410
2020/01/31 11:15:58.5	293.100	0.220	-0.600	0.400
2020/01/31 11:15:58.6	293.120	0.230	-0.650	0.380
2020/01/31 11:15:58.7	293.150	0.240	-0.700	0.370
2020/01/31 11:15:58.8	293.170	0.250	-0.750	0.360
2020/01/31 11:15:58.9	293.200	0.260	-0.790	0.350
2020/01/31 11:15:59.0	293.220	0.270	-0.830	0.340
2020/01/31 11:15:59.1	293.250	0.270	-0.870	0.330
2020/01/31 11:15:59.2	293.270	0.280	-0.910	0.330
2020/01/31 11:15:59.3	293.290	0.280	-0.940	0.330
2020/01/31 11:15:59.4	293.320	0.290	-0.970	0.330
2020/01/31 11:15:59.5	293.340	0.290	-1.000	0.330
2020/01/31 11:15:59.6	293.360	0.300	-1.020	0.330
2020/01/31 11:15:59.7	293.380	0.300	-1.040	0.340
2020/01/31 11:15:59.8	293.400	0.300	-1.050	0.350
2020/01/31 11:15:59.9	293.420	0.300	-1.070	0.360
2020/01/31 11:16:00.0	293.430	0.300	-1.080	0.380
2020/01/31 11:16:00.1	293.440	0.300	-1.080	0.390
2020/01/31 11:16:00.2	293.450	0.290	-1.090	0.410
2020/01/31 11:16:00.3	293.460	0.290	-1.090	0.430
2020/01/31 11:16:00.4	293.470	0.280	-1.090	0.450
2020/01/31 11:16:00.5	293.470	0.280	-1.080	0.480
2020/01/31 11:16:00.6	293.480	0.270	-1.070	0.500
2020/01/31 11:16:00.7	293.480	0.260	-1.060	0.520
2020/01/31 11:16:00.8	293.480	0.250	-1.050	0.550
2020/01/31 11:16:00.9	293.470	0.240	-1.030	0.580
2020/01/31 11:16:01.0	293.470	0.230	-1.020	0.600
2020/01/31 11:16:01.1	293.460	0.220	-1.000	0.630
2020/01/31 11:16:01.2	293.450	0.210	-0.970	0.650
2020/01/31 11:16:01.3	293.450	0.190	-0.950	0.670
2020/01/31 11:16:01.4	293.440	0.180	-0.920	0.700
2020/01/31 11:16:01.5	293.430	0.170	-0.890	0.720
2020/01/31 11:16:01.6	293.420	0.150	-0.860	0.740
2020/01/31 11:16:01.7	293.410	0.130	-0.830	0.760
2020/01/31 11:16:01.8	293.400	0.120	-0.800	0.770
2020/01/31 11:16:01.9	293.380	0.100	-0.760	0.790
2020/01/31 11:16:02.0	293.370	0.080	-0.730	0.800
2020/01/31 11:16:02.1	293.350	0.060	-0.690	0.810
2020/01/31 11:16:02.2	293.340	0.050	-0.650	0.820
2020/01/31 11:16:02.3	293.320	0.030	-0.610	0.820
2020/01/31 11:16:02.4	293.310	0.010	-0.570	0.830
2020/01/31 11:16:02.5	293.300	-0.010	-0.530	0.820
2020/01/31 11:16:02.6	293.280	-0.020	-0.480	0.820
2020/01/31 11:16:02.7	293.270	-0.040	-0.440	0.810
2020/01/31 11:16:02.8	293.250	-0.060	-0.400	0.810
2020/01/31 11:16:02.9	293.240	-0.080	-0.350	0.800
2020/01/31 11:16:03.0	293.220	-0.090	-0.310	0.790
2020/01/31 11:16:03.1	293.210	-0.110	-0.270	0.770
2020/01/31 11:16:03.2	293.200	-0.120	-0.220	0.760
2020/01/31 11:16:03.3	293.180	-0.140	-0.180	0.740
2020/01/31 11:16:03.4	293.170	-0.150	-0.130	0.720
2020/01/31 11:16:03.5	293.150	-0.170	-0.090	0.710
2020/01/31 11:16:03.6	293.140	-0.180	-0.050	0.690
2020/01/31 11:16:03.7	293.120	-0.190	-0.000	0.670
2020/01/31 11:16:03.8	293.110	-0.200	0.040	0.650
2020/01/31 11:16:03.9	293.090	-0.210	0.080	0.630
2020/01/31 11:16:04.0	293.080	-0.220	0.120	0.600
2020/01/31 11:16:04.1	293.070	-0.230	0.160	0.580
2020/01/31 11:16:04.2	293.050	-0.240	0.200	0.560
2020/01/31 11:16:04.3	293.040	-0.250	0.230	0.530
2020/01/31 11:16:04.4	293.030	-0.250	0.270	0.510
2020/01/31 11:16:04.5	293.020	-0.260	0.310	0.480
2020/01/31 11:16:04.6	293.010	-0.270	0.340	0.460
2020/01/31 11:16:04.7	293.000	-0.270	0.370	0.430
2020/01/31 11:16:04.8	293.000	-0.270	0.400	0.410
2020/01/31 11:16:04.9	292.990	-0.280	0.420	0.380
2020/01/31 11:16:05.0	292.990	-0.280	0.450	0.360
2020/01/31 11:16:05.1	292.990	-0.280	0.470	0.340
2020/01/31 11:16:05.2	292.990	-0.290	0.490	0.310
2020/01/31 11:16:05.3	292.990	-0.290	0.510	0.280
2020/01/31 11:16:05.4	292.990	-0.290	0.530	0.260
2020/01/31 11:16:05.5	292.980	-0.290	0.540	0.230
2020/01/31 11:16:05.6	292.990	-0.290	0.550	0.210
2020/01/31 11:16:05.7	293.000	-0.290	0.560	0.180
2020/01/31 11:16:05.8	293.020	-0.290	0.570	0.160
2020/01/31 11:16:05.9	293.030	-0.290	0.570	0.130
2020/01/31 11:16:06.0	293.050	-0.290	0.580	0.110
2020/01/31 11:16:06.1	293.060	-0.290	0.580	0.090
2020/01/31 11:16:06.2	293.080	-0.290	0.580	0.070
2020/01/31 11:16:06.3	293.100	-0.290	0.570	0.050
2020/01/31 11:16:06.4	293.120	-0.290	0.560	0.030
2020/01/31 11:16:06.5	293.140	-0.280	0.550	0.020
2020/01/31 11:16:06.6	293.160	-0.280	0.540	0.000
2020/01/31 11:16:06.7	293.190	-0.280	0.530	-0.010
2020/01/31 11:16:06.8	293.210	-0.280	0.510	-0.020
2020/01/31 11:16:06.9	293.240	-0.270	0.490	-0.030
2020/01/31 11:16:07.0	293.260	-0.270	0.470	-0.030
2020/01/31 11:16:07.1	293.290	-0.260	0.450	-0.030
2020/01/31 11:16:07.2	293.310	-0.260	0.420	-0.030
2020/01/31 11:16:07.3	293.340	-0.250	0.400	-0.030
2020/01/31 11:16:07.4	293.360	-0.240	0.370	-0.020
2020/01/31 11:16:07.5	293.380	-0.230	0.340	-0.020
2020/01/31 11:16:07.6	293.400	-0.220	0.300	-0.000
2020/01/31 11:16:07.7	293.420	-0.210	0.270	0.010
2020/01/31 11:16:07.8	293.440	-0.200	0.230	0.030
2020/01/31 11:16:07.9	293.460	-0.190	0.190	0.050
2020/01/31 11:16:08.0	293.480	-0.180	0.140	0.080
2020/01/31 11:16:08.1	293.490	-0.160	0.100	0.100
2020/01/31 11:16:08.2	293.500	-0.150	0.050	0.130
2020/01/31 11:16:08.3	293.520	-0.130	0.010	0.170
2020/01/31 11:16:08.4	293.530	-0.120	-0.040	0.200
2020/01/31 11:16:08.5	293.530	-0.100	-0.090	0.240
2020/01/31 11:16:08.6	293.540	-0.080	-0.140	0.280
2020/01/31 11:16:08.7	293.550	-0.060	-0.190	0.320
2020/01/31 11:16:08.8	293.560	-0.040	-0.250	0.370
2020/01/31 11:16:08.9	293.560	-0.020	-0.300	0.410
2020/01/31 11:16:09.0	293.570	-0.000	-0.350	0.450
2020/01/31 11:16:09.1	293.570	0.020	-0.410	0.500
2020/01/31 11:16:09.2	293.570	0.040	-0.460	0.540
2020/01/31 11:16:09.3	293.580	0.060	-0.520	0.590
2020/01/31 11:16:09.4	293.580	0.080	-0.570	0.630
2020/01/31 11:16:09.5	293.580	0.100	-0.620	0.670
2020/01/31 11:16:09.6	293.580	0.120	-0.670	0.720
2020/01/31 11:16:09.7	293.580	0.130	-0.720	0.760
2020/01/31 11:16:09.8	293.580	0.150	-0.770	0.800
2020/01/31 11:16:09.9	293.580	0.170	-0.810	0.840
2020/01/31 11:16:10.0	293.580	0.190	-0.860	0.880
2020/01/31 11:16:10.1	293.570	0.210	-0.900	0.920
2020/01/31 11:16:10.2	293.560	0.220	-0.930	0.960
2020/01/31 11:16:10.3	293.560	0.240	-0.970	1.000
2020/01/31 11:16:10.4	293.550	0.250	-1.000	1.030
2020/01/31 11:16:10.5	293.540	0.260	-1.030	1.060
2020/01/31 11:16:10.6	293.530	0.270	-1.060	1.100
2020/01/31 11:16:10.7	293.520	0.280	-1.080	1.130
2020/01/31 11:16:10.8	293.510	0.290	-1.100	1.160
2020/01/31 11:16:10.9	293.490	0.300	-1.110	1.180
2020/01/31 11:16:11.0	293.480	0.300	-1.120	1.210
2020/01/31 11:16:11.1	293.460	0.310	-1.130	1.230
2020/01/31 11:16:11.2	293.450	0.310	-1.130	1.250
2020/01/31 11:16:11.3	293.440	0.310	-1.130	1.270
2020/01/31 11:16:11.4	293.420	0.310	-1.130	1.280
2020/01/31 11:16:11.5	293.390	0.310	-1.120	1.300
2020/01/31 11:16:11.6	293.370	0.310	-1.110	1.300
2020/01/31 11:16:11.7	293.360	0.300	-1.100	1.310
2020/01/31 11:16:11.8	293.340	0.300	-1.090	1.310
2020/01/31 11:16:11.9	293.330	0.290	-1.070	1.310
2020/01/31 11:16:12.0	293.320	0.280	-1.050	1.310
2020/01/31 11:16:12.1	293.310	0.270	-1.030	1.300
2020/01/31 11:16:12.2	293.300	0.260	-1.010	1.290
2020/01/31 11:16:12.3	293.290	0.250	-0.980	1.280
2020/01/31 11:16:12.4	293.280	0.240	-0.960	1.260
2020/01/31 11:16:12.5	293.290	0.230	-0.930	1.230
2020/01/31 11:16:12.6	293.290	0.210	-0.890	1.210
2020/01/31 11:16:12.7	293.280	0.200	-0.860	1.190
2020/01/31 11:16:12.8	293.280	0.190	-0.830	1.170
2020/01/31 11:16:12.9	293.270	0.170	-0.790	1.140
2020/01/31 11:16:13.0	293.270	0.160	-0.750	1.110
2020/01/31 11:16:13.1	293.270	0.140	-0.710	1.080
2020/01/31 11:16:13.2	293.260	0.130	-0.670	1.050
2020/01/31 11:16:13.3	293.260	0.120	-0.630	1.020
2020/01/31 11:16:13.4	293.260	0.100	-0.590	0.990
2020/01/31 11:16:13.5	293.270	0.090	-0.550	0.960
2020/01/31 11:16:13.6	293.270	0.080	-0.500	0.930
2020/01/31 11:16:13.7	293.270	0.070	-0.460	0.900
2020/01/31 11:16:13.8	293.270	0.060	-0.420	0.860
2020/01/31 11:16:13.9	293.270	0.050	-0.370	0.830
2020/01/31 11:16:14.0	293.280	0.040	-0.330	0.800
2020/01/31 11:16:14.1	293.280	0.030	-0.280	0.760
2020/01/31 11:16:14.2	293.290	0.020	-0.240	0.730
2020/01/31 11:16:14.3	293.290	0.010	-0.200	0.700
2020/01/31 11:16:14.4	293.300	0.010	-0.150	0.660
2020/01/31 11:16:14.5	293.300	-0.000	-0.110	0.630
2020/01/31 11:16:14.6	293.310	-0.010	-0.070	0.600
2020/01/31 11:16:14.7	293.320	-0.010	-0.030	0.560
2020/01/31 11:16:14.8	293.330	-0.010	0.010	0.530
2020/01/31 11:16:14.9	293.340	-0.020	0.040	0.500
2020/01/31 11:16:15.0	293.350	-0.020	0.080	0.470
2020/01/31 11:16:15.1	293.360	-0.020	0.110	0.440
2020/01/31 11:16:15.2	293.370	-0.020	0.150	0.410
2020/01/31 11:16:15.3	293.380	-0.020	0.180	0.390
2020/01/31 11:16:15.4	293.390	-0.020	0.210	0.360
2020/01/31 11:16:15.5	293.390	-0.020	0.240	0.330
2020/01/31 11:16:15.6	293.400	-0.020	0.270	0.310
2020/01/31 11:16:15.7	293.410	-0.030	0.290	0.290
2020/01/31 11:16:15.8	293.420	-0.030	0.310	0.270
2020/01/31 11:16:15.9	293.430	-0.030	0.330	0.250
2020/01/31 11:16:16.0	293.440	-0.030	0.350	0.230
2020/01/31 11:16:16.1	293.450	-0.030	0.370	0.210
2020/01/31 11:16:16.2	293.470	-0.030	0.390	0.200
2020/01/31 11:16:16.3	293.480	-0.030	0.400	0.180
2020/01/31 11:16:16.4	293.490	-0.030	0.420	0.170
2020/01/31 11:16:16.5	293.490	-0.030	0.430	0.150
2020/01/31 11:16:16.6	293.510	-0.030	0.440	0.140
2020/01/31 11:16:16.7	293.520	-0.030	0.440	0.130
2020/01/31 11:16:16.8	293.530	-0.030	0.450	0.130
2020/01/31 11:16:16.9	293.540	-0.040	0.450	0.120
2020/01/31 11:16:17.0	293.550	-0.040	0.460	0.110
2020/01/31 11:16:17.1	293.560	-0.040	0.460	0.110
2020/01/31 11:16:17.2	293.570	-0.050	0.460	0.110
2020/01/31 11:16:17.3	293.580	-0.050	0.460	0.110
2020/01/31 11:16:17.4	293.590	-0.050	0.460	0.110
2020/01/31 11:16:17.5	293.600	-0.060	0.450	0.120
2020/01/31 11:16:17.6	293.610	-0.060	0.450	0.120
2020/01/31 11:16:17.7	293.620	-0.070	0.440	0.130
2020/01/31 11:16:17.8	293.630	-0.070	0.430	0.130
2020/01/31 11:16:17.9	293.630	-0.080	0.420	0.140
2020/01/31 11:16:18.0	293.640	-0.080	0.410	0.150
2020/01/31 11:16:18.1	293.650	-0.090	0.400	0.170
2020/01/31 11:16:18.2	293.650	-0.090	0.380	0.180
2020/01/31 11:16:18.3	293.650	-0.100	0.370	0.200
2020/01/31 11:16:18.4	293.660	-0.100	0.350	0.210
2020/01/31 11:16:18.5	293.670	-0.110	0.330	0.230
2020/01/31 11:16:18.6	293.670	-0.110	0.310	0.250
2020/01/31 11:16:18.7	293.670	-0.120	0.290	0.270
2020/01/31 11:16:18.8	293.670	-0.120	0.270	0.290
2020/01/31 11:16:18.9	293.660	-0.130	0.240	0.320
2020/01/31 11:16:19.0	293.660	-0.130	0.220	0.340
2020/01/31 11:16:19.1	293.660	-0.130	0.190	0.360
2020/01/31 11:16:19.2	293.650	-0.140	0.160	0.380
2020/01/31 11:16:19.3	293.650	-0.140	0.130	0.410
2020/01/31 11:16:19.4	293.640	-0.140	0.100	0.430
2020/01/31 11:16:19.5	293.630	-0.140	0.070	0.450
2020/01/31 11:16:19.6	293.630	-0.140	0.030	0.480
2020/01/31 11:16:19.7	293.620	-0.140	-0.000	0.500
2020/01/31 11:16:19.8	293.610	-0.140	-0.040	0.520
2020/01/31 11:16:19.9	293.590	-0.130	-0.070	0.550
2020/01/31 11:16:20.0	293.580	-0.130	-0.110	0.570
2020/01/31 11:16:20.1	293.570	-0.130	-0.150	0.590
2020/01/31 11:16:20.2	293.560	-0.120	-0.190	0.610
2020/01/31 11:16:20.3	293.550	-0.120	-0.230	0.640
2020/01/31 11:16:20.4	293.530	-0.110	-0.270	0.660
2020/01/31 11:16:20.5	293.510	-0.100	-0.310	0.680
2020/01/31 11:16:20.6	293.500	-0.100	-0.350	0.700
2020/01/31 11:16:20.7	293.480	-0.090	-0.390	0.710
2020/01/31 11:16:20.8	293.470	-0.080	-0.430	0.730
2020/01/31 11:16:20.9	293.460	-0.070	-0.470	0.750
2020/01/31 11:16:21.0	293.450	-0.060	-0.510	0.760
2020/01/31 11:16:21.1	293.430	-0.050	-0.540	0.780
2020/01/31 11:16:21.2	293.420	-0.040	-0.580	0.790
2020/01/31 11:16:21.3	293.410	-0.030	-0.610	0.800
2020/01/31 11:16:21.4	293.400	-0.020	-0.640	0.810
2020/01/31 11:16:21.5	293.380	-0.020	-0.670	0.820
2020/01/31 11:16:21.6	293.370	-0.010	-0.700	0.830
2020/01/31 11:16:21.7	293.360	0.000	-0.730	0.830
2020/01/31 11:16:21.8	293.350	0.010	-0.760	0.840
2020/01/31 11:16:21.9	293.340	0.020	-0.790	0.840
2020/01/31 11:16:22.0	293.340	0.030	-0.810	0.840
2020/01/31 11:16:22.1	293.330	0.040	-0.840	0.840
2020/01/31 11:16:22.2	293.320	0.050	-0.860	0.830
2020/01/31 11:16:22.3	293.310	0.050	-0.880	0.830
2020/01/31 11:16:22.4	293.300	0.060	-0.900	0.820
2020/01/31 11:16:22.5	293.300	0.070	-0.910	0.820
2020/01/31 11:16:22.6	293.300	0.070	-0.920	0.800
2020/01/31 11:16:22.7	293.290	0.080	-0.930	0.790
2020/01/31 11:16:22.8	293.290	0.080	-0.940	0.780
2020/01/31 11:16:22.9	293.280	0.080	-0.950	0.760
2020/01/31 11:16:23.0	293.280	0.090	-0.960	0.750
2020/01/31 11:16:23.1	293.280	0.090	-0.960	0.730
2020/01/31 11:16:23.2	293.280	0.090	-0.960	0.710
2020/01/31 11:16:23.3	293.280	0.090	-0.960	0.690
2020/01/31 11:16:23.4	293.270	0.090	-0.950	0.670
2020/01/31 11:16:23.5	293.280	0.090	-0.950	0.650
2020/01/31 11:16:23.6	293.280	0.090	-0.940	0.630
2020/01/31 11:16:23.7	293.280	0.080	-0.930	0.600
2020/01/31 11:16:23.8	293.280	0.080	-0.920	0.580
2020/01/31 11:16:23.9	293.280	0.080	-0.900	0.560
2020/01/31 11:16:24.0	293.270	0.070	-0.880	0.540
2020/01/31 11:16:24.1	293.270	0.070	-0.860	0.520
2020/01/31 11:16:24.2	293.270	0.060	-0.840	0.500
2020/01/31 11:16:24.3	293.270	0.060	-0.820	0.480
2020/01/31 11:16:24.4	293.270	0.050	-0.790	0.470
2020/01/31 11:16:24.5	293.260	0.040	-0.760	0.450
2020/01/31 11:16:24.6	293.260	0.030	-0.730	0.430
2020/01/31 11:16:24.7	293.250	0.030	-0.700	0.420
2020/01/31 11:16:24.8	293.250	0.020	-0.670	0.400
2020/01/31 11:16:24.9	293.250	0.010	-0.640	0.390
2020/01/31 11:16:25.0	293.240	-0.000	-0.610	0.370
2020/01/31 11:16:25.1	293.230	-0.010	-0.570	0.360
2020/01/31 11:16:25.2	293.230	-0.020	-0.530	0.350
2020/01/31 11:16:25.3	293.220	-0.030	-0.500	0.330
2020/01/31 11:16:25.4	293.220	-0.040	-0.460	0.320
2020/01/31 11:16:25.5	293.210	-0.050	-0.430	0.310
2020/01/31 11:16:25.6	293.210	-0.060	-0.390	0.300
2020/01/31 11:16:25.7	293.200	-0.070	-0.350	0.300
2020/01/31 11:16:25.8	293.190	-0.080	-0.310	0.290
2020/01/31 11:16:25.9	293.190	-0.090	-0.280	0.280
2020/01/31 11:16:26.0	293.180	-0.100	-0.240	0.280
2020/01/31 11:16:26.1	293.180	-0.100	-0.200	0.270
2020/01/31 11:16:26.2	293.170	-0.110	-0.170	0.270
2020/01/31 11:16:26.3	293.170	-0.120	-0.130	0.270
2020/01/31 11:16:26.4	293.160	-0.130	-0.100	0.270
2020/01/31 11:16:26.5	293.160	-0.140	-0.070	0.260
2020/01/31 11:16:26.6	293.160	-0.140	-0.040	0.260
2020/01/31 11:16:26.7	293.150	-0.150	-0.010	0.270
2020/01/31 11:16:26.8	293.150	-0.160	0.020	0.270
2020/01/31 11:16:26.9	293.150	-0.160	0.050	0.270
2020/01/31 11:16:27.0	293.150	-0.170	0.070	0.280
2020/01/31 11:16:27.1	293.150	-0.170	0.090	0.280
2020/01/31 11:16:27.2	293.150	-0.180	0.110	0.290
2020/01/31 11:16:27.3	293.150	-0.180	0.130	0.300
2020/01/31 11:16:27.4	293.150	-0.180	0.150	0.310
2020/01/31 11:16:27.5	293.160	-0.180	0.160	0.320
2020/01/31 11:16:27.6	293.160	-0.180	0.180	0.330
2020/01/31 11:16:27.7	293.160	-0.180	0.190	0.340
2020/01/31 11:16:27.8	293.160	-0.180	0.200	0.360
2020/01/31 11:16:27.9	293.160	-0.180	0.200	0.370
2020/01/31 11:16:28.0	293.170	-0.170	0.210	0.390
2020/01/31 11:16:28.1	293.170	-0.170	0.210	0.410
2020/01/31 11:16:28.2	293.170	-0.170	0.220	0.430
2020/01/31 11:16:28.3	293.170	-0.160	0.220	0.460
2020/01/31 11:16:28.4	293.170	-0.150	0.220	0.480
2020/01/31 11:16:28.5	293.170	-0.140	0.220	0.520
2020/01/31 11:16:28.6	293.170	-0.140	0.210	0.550
2020/01/31 11:16:28.7	293.170	-0.130	0.210	0.580
2020/01/31 11:16:28.8	293.170	-0.120	0.210	0.610
2020/01/31 11:16:28.9	293.160	-0.100	0.210	0.640
2020/01/31 11:16:29.0	293.160	-0.090	0.200	0.680
2020/01/31 11:16:29.1	293.150	-0.080	0.200	0.720
2020/01/31 11:16:29.2	293.150	-0.060	0.190	0.750
2020/01/31 11:16:29.3	293.140	-0.050	0.180	0.790
2020/01/31 11:16:29.4	293.130	-0.030	0.180	0.820
2020/01/31 11:16:29.5	293.120	-0.020	0.170	0.850
2020/01/31 11:16:29.6	293.110	-0.000	0.160	0.890
2020/01/31 11:16:29.7	293.100	0.020	0.160	0.920
2020/01/31 11:16:29.8	293.090	0.040	0.150	0.950
2020/01/31 11:16:29.9	293.080	0.050	0.130	0.990
2020/01/31 11:16:30.0	293.070	0.070	0.120	1.010
2020/01/31 11:16:30.1	293.060	0.090	0.110	1.040
2020/01/31 11:16:30.2	293.050	0.110	0.100	1.070
2020/01/31 11:16:30.3	293.040	0.130	0.090	1.090
2020/01/31 11:16:30.4	293.030	0.150	0.070	1.120
2020/01/31 11:16:30.5	293.020	0.170	0.060	1.130
2020/01/31 11:16:30.6	293.010	0.200	0.040	1.150
2020/01/31 11:16:30.7	293.000	0.220	0.030	1.170
2020/01/31 11:16:30.8	292.990	0.240	0.020	1.180
2020/01/31 11:16:30.9	292.990	0.260	0.000	1.190
2020/01/31 11:16:31.0	292.980	0.280	-0.010	1.190
2020/01/31 11:16:31.1	292.980	0.300	-0.020	1.200
2020/01/31 11:16:31.2	292.970	0.310	-0.030	1.200
2020/01/31 11:16:31.3	292.970	0.330	-0.040	1.200
2020/01/31 11:16:31.4	292.970	0.350	-0.050	1.200
2020/01/31 11:16:31.5	292.980	0.360	-0.050	1.190
2020/01/31 11:16:31.6	292.980	0.380	-0.060	1.190
2020/01/31 11:16:31.7	292.980	0.390	-0.070	1.180
2020/01/31 11:16:31.8	292.980	0.400	-0.070	1.170
2020/01/31 11:16:31.9	292.970	0.410	-0.080	1.160
2020/01/31 11:16:32.0	292.970	0.420	-0.080	1.150
2020/01/31 11:16:32.1	292.970	0.430	-0.090	1.140
2020/01/31 11:16:32.2	292.970	0.430	-0.090	1.130
2020/01/31 11:16:32.3	292.960	0.430	-0.090	1.110
2020/01/31 11:16:32.4	292.960	0.440	-0.100	1.100
2020/01/31 11:16:32.5	292.960	0.440	-0.110	1.080
2020/01/31 11:16:32.6	292.960	0.430	-0.120	1.060
2020/01/31 11:16:32.7	292.950	0.430	-0.120	1.050
2020/01/31 11:16:32.8	292.950	0.430	-0.130	1.030
2020/01/31 11:16:32.9	292.940	0.420	-0.140	1.010
2020/01/31 11:16:33.0	292.930	0.410	-0.140	0.990
2020/01/31 11:16:33.1	292.930	0.410	-0.150	0.970
2020/01/31 11:16:33.2	292.920	0.400	-0.160	0.950
2020/01/31 11:16:33.3	292.910	0.380	-0.180	0.930
2020/01/31 11:16:33.4	292.900	0.370	-0.190	0.900
2020/01/31 11:16:33.5	292.890	0.360	-0.200	0.880
2020/01/31 11:16:33.6	292.880	0.340	-0.210	0.860
2020/01/31 11:16:33.7	292.870	0.330	-0.230	0.830
2020/01/31 11:16:33.8	292.860	0.310	-0.250	0.810
2020/01/31 11:16:33.9	292.850	0.290	-0.260	0.780
2020/01/31 11:16:34.0	292.850	0.280	-0.280	0.760
2020/01/31 11:16:34.1	292.840	0.260	-0.300	0.730
2020/01/31 11:16:34.2	292.830	0.240	-0.320	0.700
2020/01/31 11:16:34.3	292.820	0.220	-0.340	0.680
2020/01/31 11:16:34.4	292.810	0.190	-0.370	0.650
2020/01/31 11:16:34.5	292.790	0.170	-0.390	0.620
2020/01/31 11:16:34.6	292.790	0.150	-0.410	0.590
2020/01/31 11:16:34.7	292.780	0.130	-0.440	0.560
2020/01/31 11:16:34.8	292.770	0.100	-0.460	0.530
2020/01/31 11:16:34.9	292.760	0.080	-0.480	0.500
2020/01/31 11:16:35.0	292.760	0.050	-0.500	0.470
2020/01/31 11:16:35.1	292.750	0.030	-0.530	0.450
2020/01/31 11:16:35.2	292.740	0.000	-0.550	0.420
2020/01/31 11:16:35.3	292.740	-0.020	-0.570	0.390
2020/01/31 11:16:35.4	292.730	-0.050	-0.590	0.360
2020/01/31 11:16:35.5	292.730	-0.070	-0.600	0.330
2020/01/31 11:16:35.6	292.720	-0.100	-0.620	0.300
2020/01/31 11:16:35.7	292.710	-0.130	-0.640	0.280
2020/01/31 11:16:35.8	292.700	-0.160	-0.650	0.260
2020/01/31 11:16:35.9	292.690	-0.180	-0.660	0.240
2020/01/31 11:16:36.0	292.680	-0.210	-0.670	0.220
2020/01/31 11:16:36.1	292.670	-0.240	-0.680	0.200
2020/01/31 11:16:36.2	292.660	-0.260	-0.690	0.180
2020/01/31 11:16:36.3	292.640	-0.290	-0.700	0.170
2020/01/31 11:16:36.4	292.630	-0.320	-0.700	0.160
2020/01/31 11:16:36.5	292.600	-0.340	-0.700	0.150
2020/01/31 11:16:36.6	292.590	-0.360	-0.710	0.140
2020/01/31 11:16:36.7	292.570	-0.390	-0.710	0.130
2020/01/31 11:16:36.8	292.560	-0.410	-0.700	0.120
2020/01/31 11:16:36.9	292.540	-0.430	-0.700	0.120
2020/01/31 11:16:37.0	292.530	-0.450	-0.700	0.120
2020/01/31 11:16:37.1	292.510	-0.470	-0.690	0.120
2020/01/31 11:16:37.2	292.500	-0.480	-0.690	0.120
2020/01/31 11:16:37.3	292.490	-0.500	-0.680	0.120
2020/01/31 11:16:37.4	292.470	-0.510	-0.670	0.120
2020/01/31 11:16:37.5	292.460	-0.520	-0.660	0.120
2020/01/31 11:16:37.6	292.450	-0.530	-0.650	0.120
2020/01/31 11:16:37.7	292.440	-0.540	-0.650	0.130
2020/01/31 11:16:37.8	292.430	-0.550	-0.640	0.130
2020/01/31 11:16:37.9	292.430	-0.550	-0.630	0.140
2020/01/31 11:16:38.0	292.420	-0.550	-0.620	0.150
2020/01/31 11:16:38.1	292.420	-0.550	-0.610	0.160
2020/01/31 11:16:38.2	292.410	-0.550	-0.600	0.170
2020/01/31 11:16:38.3	292.410	-0.540	-0.590	0.190
2020/01/31 11:16:38.4	292.410	-0.530	-0.580	0.200
2020/01/31 11:16:38.5	292.410	-0.520	-0.570	0.220
2020/01/31 11:16:38.6	292.410	-0.510	-0.560	0.240
2020/01/31 11:16:38.7	292.420	-0.500	-0.550	0.250
2020/01/31 11:16:38.8	292.420	-0.490	-0.540	0.280
2020/01/31 11:16:38.9	292.420	-0.470	-0.530	0.300
2020/01/31 11:16:39.0	292.430	-0.450	-0.520	0.320
2020/01/31 11:16:39.1	292.430	-0.430	-0.510	0.350
2020/01/31 11:16:39.2	292.440	-0.410	-0.500	0.380
2020/01/31 11:16:39.3	292.450	-0.390	-0.480	0.400
2020/01/31 11:16:39.4	292.460	-0.370	-0.470	0.430
2020/01/31 11:16:39.5	292.480	-0.350	-0.450	0.460
2020/01/31 11:16:39.6	292.490	-0.330	-0.440	0.490
2020/01/31 11:16:39.7	292.500	-0.300	-0.430	0.520
2020/01/31 11:16:39.8	292.510	-0.280	-0.410	0.560
2020/01/31 11:16:39.9	292.520	-0.260	-0.400	0.590
2020/01/31 11:16:40.0	292.540	-0.240	-0.380	0.620
2020/01/31 11:16:40.1	292.550	-0.210	-0.360	0.650
2020/01/31 11:16:40.2	292.570	-0.190	-0.350	0.680
2020/01/31 11:16:40.3	292.590	-0.170	-0.330	0.710
2020/01/31 11:16:40.4	292.600	-0.150	-0.310	0.740
2020/01/31 11:16:40.5	292.620	-0.130	-0.290	0.770
2020/01/31 11:16:40.6	292.640	-0.110	-0.270	0.800
2020/01/31 11:16:40.7	292.660	-0.090	-0.250	0.830
2020/01/31 11:16:40.8	292.680	-0.070	-0.230	0.860
2020/01/31 11:16:40.9	292.700	-0.050	-0.210	0.890
2020/01/31 11:16:41.0	292.720	-0.030	-0.180	0.920
2020/01/31 11:16:41.1	292.740	-0.010	-0.160	0.940
2020/01/31 11:16:41.2	292.760	0.000	-0.130	0.970
2020/01/31 11:16:41.3	292.780	0.020	-0.110	1.000
2020/01/31 11:16:41.4	292.800	0.040	-0.080	1.030
2020/01/31 11:16:41.5	292.830	0.050	-0.050	1.060
2020/01/31 11:16:41.6	292.840	0.060	-0.020	1.090
2020/01/31 11:16:41.7	292.860	0.080	0.010	1.110
2020/01/31 11:16:41.8	292.880	0.090	0.040	1.140
2020/01/31 11:16:41.9	292.890	0.100	0.070	1.170
2020/01/31 11:16:42.0	292.910	0.110	0.100	1.200
2020/01/31 11:16:42.1	292.920	0.130	0.140	1.220
2020/01/31 11:16:42.2	292.930	0.140	0.170	1.250
2020/01/31 11:16:42.3	292.940	0.150	0.200	1.270
2020/01/31 11:16:42.4	292.950	0.160	0.230	1.300
2020/01/31 11:16:42.5	292.950	0.160	0.260	1.320
2020/01/31 11:16:42.6	292.950	0.170	0.280	1.350
2020/01/31 11:16:42.7	292.960	0.180	0.310	1.370
2020/01/31 11:16:42.8	292.960	0.190	0.340	1.390
2020/01/31 11:16:42.9	292.960	0.200	0.360	1.410
2020/01/31 11:16:43.0	292.960	0.200	0.390	1.430
2020/01/31 11:16:43.1	292.960	0.210	0.410	1.450
2020/01/31 11:16:43.2	292.960	0.220	0.430	1.470
2020/01/31 11:16:43.3	292.960	0.220	0.440	1.480
2020/01/31 11:16:43.4	292.950	0.230	0.460	1.500
2020/01/31 11:16:43.5	292.940	0.240	0.470	1.510
2020/01/31 11:16:43.6	292.930	0.240	0.480	1.520
2020/01/31 11:16:43.7	292.920	0.250	0.490	1.530
2020/01/31 11:16:43.8	292.910	0.250	0.490	1.530
2020/01/31 11:16:43.9	292.900	0.250	0.500	1.540
2020/01/31 11:16:44.0	292.880	0.260	0.500	1.540
2020/01/31 11:16:44.1	292.860	0.260	0.490	1.540
2020/01/31 11:16:44.2	292.850	0.270	0.480	1.540
2020/01/31 11:16:44.3	292.830	0.270	0.470	1.530
2020/01/31 11:16:44.4	292.810	0.270	0.460	1.520
2020/01/31 11:16:44.5	292.780	0.280	0.440	1.500
2020/01/31 11:16:44.6	292.760	0.280	0.420	1.490
2020/01/31 11:16:44.7	292.740	0.280	0.400	1.470
2020/01/31 11:16:44.8	292.720	0.280	0.380	1.440
2020/01/31 11:16:44.9	292.700	0.280	0.350	1.420
2020/01/31 11:16:45.0	292.680	0.290	0.320	1.390
2020/01/31 11:16:45.1	292.660	0.290	0.290	1.360
2020/01/31 11:16:45.2	292.640	0.290	0.250	1.320
2020/01/31 11:16:45.3	292.630	0.290	0.220	1.280
2020/01/31 11:16:45.4	292.610	0.290	0.180	1.240
2020/01/31 11:16:45.5	292.600	0.290	0.130	1.200
2020/01/31 11:16:45.6	292.580	0.290	0.090	1.160
2020/01/31 11:16:45.7	292.570	0.290	0.050	1.110
2020/01/31 11:16:45.8	292.550	0.290	0.000	1.060
2020/01/31 11:16:45.9	292.540	0.290	-0.040	1.010
2020/01/31 11:16:46.0	292.530	0.290	-0.090	0.960
2020/01/31 11:16:46.1	292.520	0.290	-0.140	0.910
2020/01/31 11:16:46.2	292.510	0.290	-0.190	0.850
2020/01/31 11:16:46.3	292.500	0.280	-0.240	0.800
2020/01/31 11:16:46.4	292.490	0.280	-0.280	0.740
2020/01/31 11:16:46.5	292.490	0.280	-0.330	0.680
2020/01/31 11:16:46.6	292.480	0.280	-0.380	0.620
2020/01/31 11:16:46.7	292.480	0.270	-0.420	0.560
2020/01/31 11:16:46.8	292.480	0.270	-0.470	0.500
2020/01/31 11:16:46.9	292.480	0.260	-0.510	0.440
2020/01/31 11:16:47.0	292.480	0.260	-0.560	0.380
2020/01/31 11:16:47.1	292.480	0.250	-0.600	0.320
2020/01/31 11:16:47.2	292.480	0.240	-0.640	0.260
2020/01/31 11:16:47.3	292.480	0.240	-0.670	0.200
2020/01/31 11:16:47.4	292.490	0.230	-0.710	0.140
2020/01/31 11:16:47.5	292.510	0.220	-0.740	0.080
2020/01/31 11:16:47.6	292.510	0.210	-0.770	0.030
2020/01/31 11:16:47.7	292.520	0.210	-0.800	-0.020
2020/01/31 11:16:47.8	292.530	0.200	-0.820	-0.070
2020/01/31 11:16:47.9	292.540	0.190	-0.840	-0.120
2020/01/31 11:16:48.0	292.550	0.180	-0.860	-0.160
2020/01/31 11:16:48.1	292.560	0.170	-0.880	-0.200
2020/01/31 11:16:48.2	292.570	0.160	-0.890	-0.240
2020/01/31 11:16:48.3	292.580	0.150	-0.900	-0.270
2020/01/31 11:16:48.4	292.590	0.140	-0.910	-0.300
2020/01/31 11:16:48.5	292.590	0.130	-0.910	-0.320
2020/01/31 11:16:48.6	292.600	0.120	-0.910	-0.340
2020/01/31 11:16:48.7	292.620	0.110	-0.920	-0.360
2020/01/31 11:16:48.8	292.630	0.090	-0.910	-0.370
2020/01/31 11:16:48.9	292.650	0.080	-0.910	-0.380
2020/01/31 11:16:49.0	292.670	0.070	-0.910	-0.380
2020/01/31 11:16:49.1	292.680	0.060	-0.900	-0.380
2020/01/31 11:16:49.2	292.700	0.050	-0.890	-0.380
2020/01/31 11:16:49.3	292.720	0.040	-0.880	-0.370
2020/01/31 11:16:49.4	292.740	0.030	-0.870	-0.350
2020/01/31 11:16:49.5	292.750	0.020	-0.860	-0.340
2020/01/31 11:16:49.6	292.770	0.010	-0.840	-0.320
2020/01/31 11:16:49.7	292.780	-0.000	-0.830	-0.300
2020/01/31 11:16:49.8	292.800	-0.020	-0.810	-0.270
2020/01/31 11:16:49.9	292.810	-0.030	-0.790	-0.240
2020/01/31 11:16:50.0	292.830	-0.040	-0.770	-0.210
2020/01/31 11:16:50.1	292.840	-0.050	-0.750	-0.170
2020/01/31 11:16:50.2	292.860	-0.060	-0.720	-0.140
2020/01/31 11:16:50.3	292.870	-0.070	-0.700	-0.100
2020/01/31 11:16:50.4	292.880	-0.080	-0.670	-0.050
2020/01/31 11:16:50.5	292.890	-0.090	-0.640	-0.010
2020/01/31 11:16:50.6	292.900	-0.110	-0.610	0.040
2020/01/31 11:16:50.7	292.900	-0.120	-0.580	0.090
2020/01/31 11:16:50.8	292.910	-0.130	-0.550	0.140
2020/01/31 11:16:50.9	292.910	-0.140	-0.520	0.190
2020/01/31 11:16:51.0	292.910	-0.150	-0.490	0.240
2020/01/31 11:16:51.1	292.910	-0.160	-0.460	0.290
2020/01/31 11:16:51.2	292.910	-0.170	-0.430	0.340
2020/01/31 11:16:51.3	292.910	-0.190	-0.390	0.390
2020/01/31 11:16:51.4	292.910	-0.200	-0.360	0.440
2020/01/31 11:16:51.5	292.910	-0.210	-0.330	0.490
2020/01/31 11:16:51.6	292.910	-0.220	-0.300	0.540
2020/01/31 11:16:51.7	292.900	-0.230	-0.260	0.590
2020/01/31 11:16:51.8	292.890	-0.240	-0.230	0.640
2020/01/31 11:16:51.9	292.880	-0.250	-0.200	0.680
2020/01/31 11:16:52.0	292.870	-0.260	-0.180	0.730
2020/01/31 11:16:52.1	292.860	-0.270	-0.150	0.770
2020/01/31 11:16:52.2	292.850	-0.280	-0.120	0.810
2020/01/31 11:16:52.3	292.840	-0.290	-0.100	0.840
2020/01/31 11:16:52.4	292.830	-0.300	-0.080	0.880
2020/01/31 11:16:52.5	292.810	-0.310	-0.060	0.900
2020/01/31 11:16:52.6	292.810	-0.320	-0.040	0.930
2020/01/31 11:16:52.7	292.800	-0.330	-0.020	0.950
2020/01/31 11:16:52.8	292.790	-0.340	-0.010	0.970
2020/01/31 11:16:52.9	292.780	-0.340	0.010	0.990
2020/01/31 11:16:53.0	292.770	-0.350	0.020	1.000
2020/01/31 11:16:53.1	292.760	-0.360	0.020	1.010
2020/01/31 11:16:53.2	292.760	-0.360	0.030	1.020
2020/01/31 11:16:53.3	292.750	-0.370	0.040	1.020
2020/01/31 11:16:53.4	292.750	-0.380	0.040	1.020
2020/01/31 11:16:53.5	292.740	-0.380	0.050	1.020
2020/01/31 11:16:53.6	292.730	-0.390	0.050	1.020
2020/01/31 11:16:53.7	292.730	-0.390	0.050	1.010
2020/01/31 11:16:53.8	292.730	-0.390	0.050	1.000
2020/01/31 11:16:53.9	292.720	-0.400	0.040	1.000
2020/01/31 11:16:54.0	292.720	-0.400	0.040	0.990
2020/01/31 11:16:54.1	292.720	-0.400	0.040	0.980
2020/01/31 11:16:54.2	292.720	-0.400	0.040	0.970
2020/01/31 11:16:54.3	292.710	-0.400	0.030	0.960
2020/01/31 11:16:54.4	292.710	-0.400	0.030	0.940
2020/01/31 11:16:54.5	292.710	-0.400	0.030	0.930
2020/01/31 11:16:54.6	292.710	-0.400	0.020	0.920
2020/01/31 11:16:54.7	292.710	-0.400	0.020	0.910
2020/01/31 11:16:54.8	292.700	-0.400	0.010	0.890
2020/01/31 11:16:54.9	292.700	-0.390	0.010	0.880
2020/01/31 11:16:55.0	292.700	-0.390	0.000	0.860
2020/01/31 11:16:55.1	292.700	-0.380	0.000	0.850
2020/01/31 11:16:55.2	292.690	-0.380	-0.000	0.840
2020/01/31 11:16:55.3	292.690	-0.370	-0.010	0.820
2020/01/31 11:16:55.4	292.690	-0.360	-0.010	0.810
2020/01/31 11:16:55.5	292.690	-0.350	-0.020	0.790
2020/01/31 11:16:55.6	292.690	-0.340	-0.020	0.780
2020/01/31 11:16:55.7	292.680	-0.330	-0.030	0.760
2020/01/31 11:16:55.8	292.680	-0.310	-0.040	0.750
2020/01/31 11:16:55.9	292.680	-0.300	-0.040	0.730
2020/01/31 11:16:56.0	292.670	-0.280	-0.050	0.720
2020/01/31 11:16:56.1	292.670	-0.270	-0.060	0.700
2020/01/31 11:16:56.2	292.660	-0.250	-0.060	0.680
2020/01/31 11:16:56.3	292.660	-0.230	-0.070	0.670
2020/01/31 11:16:56.4	292.650	-0.210	-0.080	0.650
2020/01/31 11:16:56.5	292.650	-0.190	-0.090	0.630
2020/01/31 11:16:56.6	292.650	-0.170	-0.100	0.620
2020/01/31 11:16:56.7	292.640	-0.140	-0.110	0.600
2020/01/31 11:16:56.8	292.640	-0.120	-0.120	0.580
2020/01/31 11:16:56.9	292.630	-0.100	-0.130	0.570
2020/01/31 11:16:57.0	292.620	-0.070	-0.140	0.550
2020/01/31 11:16:57.1	292.620	-0.050	-0.150	0.530
2020/01/31 11:16:57.2	292.610	-0.020	-0.160	0.520
2020/01/31 11:16:57.3	292.610	0.000	-0.170	0.500
2020/01/31 11:16:57.4	292.610	0.030	-0.180	0.490
2020/01/31 11:16:57.5	292.610	0.050	-0.190	0.470
2020/01/31 11:16:57.6	292.600	0.080	-0.200	0.450
2020/01/31 11:16:57.7	292.600	0.100	-0.210	0.440
2020/01/31 11:16:57.8	292.600	0.130	-0.210	0.430
2020/01/31 11:16:57.9	292.590	0.150	-0.220	0.420
2020/01/31 11:16:58.0	292.590	0.170	-0.220	0.410
2020/01/31 11:16:58.1	292.590	0.190	-0.220	0.400
2020/01/31 11:16:58.2	292.590	0.210	-0.230	0.400
2020/01/31 11:16:58.3	292.580	0.240	-0.230	0.400
2020/01/31 11:16:58.4	292.580	0.250	-0.230	0.400
2020/01/31 11:16:58.5	292.580	0.270	-0.230	0.400
2020/01/31 11:16:58.6	292.570	0.290	-0.220	0.400
2020/01/31 11:16:58.7	292.570	0.310	-0.220	0.410
2020/01/31 11:16:58.8	292.570	0.320	-0.210	0.420
2020/01/31 11:16:58.9	292.570	0.340	-0.200	0.440
2020/01/31 11:16:59.0	292.570	0.350	-0.190	0.450
2020/01/31 11:16:59.1	292.570	0.370	-0.180	0.470
2020/01/31 11:16:59.2	292.570	0.380	-0.170	0.490
2020/01/31 11:16:59.3	292.570	0.390	-0.160	0.520
2020/01/31 11:16:59.4	292.570	0.400	-0.140	0.540
2020/01/31 11:16:59.5	292.560	0.410	-0.120	0.570
2020/01/31 11:16:59.6	292.560	0.420	-0.110	0.600
2020/01/31 11:16:59.7	292.570	0.430	-0.090	0.630
2020/01/31 11:16:59.8	292.570	0.430	-0.080	0.660
2020/01/31 11:16:59.9	292.570	0.440	-0.060	0.690
2020/01/31 11:17:00.0	292.570	0.440	-0.050	0.720
2020/01/31 11:17:00.1	292.580	0.450	-0.040	0.760
2020/01/31 11:17:00.2	292.580	0.450	-0.020	0.790
2020/01/31 11:17:00.3	292.590	0.460	-0.010	0.820
2020/01/31 11:17:00.4	292.590	0.460	-0.000	0.850
2020/01/31 11:17:00.5	292.610	0.460	0.000	0.880
2020/01/31 11:17:00.6	292.610	0.460	0.010	0.910
2020/01/31 11:17:00.7	292.620	0.460	0.010	0.940
2020/01/31 11:17:00.8	292.630	0.460	0.010	0.970
2020/01/31 11:17:00.9	292.630	0.460	0.010	1.000
2020/01/31 11:17:01.0	292.640	0.460	0.010	1.020
2020/01/31 11:17:01.1	292.640	0.460	0.000	1.040
2020/01/31 11:17:01.2	292.650	0.460	-0.010	1.060
2020/01/31 11:17:01.3	292.650	0.460	-0.020	1.080
2020/01/31 11:17:01.4	292.650	0.460	-0.030	1.090
2020/01/31 11:17:01.5	292.660	0.460	-0.050	1.100
2020/01/31 11:17:01.6	292.660	0.450	-0.070	1.110
2020/01/31 11:17:01.7	292.660	0.450	-0.100	1.110
2020/01/31 11:17:01.8	292.660	0.450	-0.120	1.120
2020/01/31 11:17:01.9	292.660	0.440	-0.150	1.120
2020/01/31 11:17:02.0	292.660	0.440	-0.180	1.110
2020/01/31 11:17:02.1	292.660	0.430	-0.210	1.110
2020/01/31 11:17:02.2	292.660	0.430	-0.250	1.100
2020/01/31 11:17:02.3	292.660	0.420	-0.290	1.090
2020/01/31 11:17:02.4	292.660	0.420	-0.320	1.080
2020/01/31 11:17:02.5	292.660	0.410	-0.360	1.060
2020/01/31 11:17:02.6	292.660	0.400	-0.400	1.040
2020/01/31 11:17:02.7	292.650	0.390	-0.440	1.030
2020/01/31 11:17:02.8	292.650	0.380	-0.480	1.010
2020/01/31 11:17:02.9	292.640	0.370	-0.520	0.980
2020/01/31 11:17:03.0	292.640	0.360	-0.560	0.960
2020/01/31 11:17:03.1	292.630	0.350	-0.600	0.940
2020/01/31 11:17:03.2	292.620	0.330	-0.640	0.910
2020/01/31 11:17:03.3	292.610	0.320	-0.670	0.890
2020/01/31 11:17:03.4	292.600	0.300	-0.710	0.860
2020/01/31 11:17:03.5	292.600	0.280	-0.740	0.840
2020/01/31 11:17:03.6	292.590	0.260	-0.770	0.810
2020/01/31 11:17:03.7	292.580	0.240	-0.800	0.780
2020/01/31 11:17:03.8	292.560	0.220	-0.820	0.760
2020/01/31 11:17:03.9	292.550	0.190	-0.840	0.730
2020/01/31 11:17:04.0	292.540	0.170	-0.860	0.710
2020/01/31 11:17:04.1	292.530	0.140	-0.880	0.680
2020/01/31 11:17:04.2	292.510	0.110	-0.890	0.660
2020/01/31 11:17:04.3	292.500	0.080	-0.890	0.630
2020/01/31 11:17:04.4	292.480	0.050	-0.900	0.610
2020/01/31 11:17:04.5	292.470	0.020	-0.890	0.580
2020/01/31 11:17:04.6	292.450	-0.010	-0.890	0.560
2020/01/31 11:17:04.7	292.440	-0.050	-0.880	0.540
2020/01/31 11:17:04.8	292.420	-0.080	-0.860	0.520
2020/01/31 11:17:04.9	292.410	-0.120	-0.850	0.500
2020/01/31 11:17:05.0	292.390	-0.150	-0.830	0.480
2020/01/31 11:17:05.1	292.380	-0.190	-0.810	0.460
2020/01/31 11:17:05.2	292.370	-0.220	-0.780	0.440
2020/01/31 11:17:05.3	292.360	-0.260	-0.750	0.410
2020/01/31 11:17:05.4	292.350	-0.300	-0.720	0.390
2020/01/31 11:17:05.5	292.330	-0.330	-0.690	0.370
2020/01/31 11:17:05.6	292.320	-0.370	-0.660	0.350
2020/01/31 11:17:05.7	292.310	-0.410	-0.620	0.330
2020/01/31 11:17:05.8	292.310	-0.440	-0.580	0.310
2020/01/31 11:17:05.9	292.300	-0.480	-0.540	0.280
2020/01/31 11:17:06.0	292.300	-0.510	-0.500	0.260
2020/01/31 11:17:06.1	292.300	-0.540	-0.460	0.240
2020/01/31 11:17:06.2	292.300	-0.570	-0.420	0.210
2020/01/31 11:17:06.3	292.290	-0.600	-0.380	0.190
2020/01/31 11:17:06.4	292.290	-0.630	-0.340	0.170
2020/01/31 11:17:06.5	292.300	-0.660	-0.300	0.140
2020/01/31 11:17:06.6	292.300	-0.680	-0.260	0.120
2020/01/31 11:17:06.7	292.310	-0.700	-0.220	0.100
2020/01/31 11:17:06.8	292.310	-0.720	-0.180	0.080
2020/01/31 11:17:06.9	292.310	-0.740	-0.140	0.060
2020/01/31 11:17:07.0	292.310	-0.750	-0.100	0.040
2020/01/31 11:17:07.1	292.310	-0.760	-0.070	0.030
2020/01/31 11:17:07.2	292.320	-0.770	-0.040	0.010
2020/01/31 11:17:07.3	292.320	-0.780	-0.000	-0.000
2020/01/31 11:17:07.4	292.330	-0.780	0.030	-0.010
2020/01/31 11:17:07.5	292.320	-0.780	0.060	-0.020
2020/01/31 11:17:07.6	292.330	-0.780	0.080	-0.030
2020/01/31 11:17:07.7	292.330	-0.770	0.100	-0.040
2020/01/31 11:17:07.8	292.340	-0.760	0.120	-0.040
2020/01/31 11:17:07.9	292.350	-0.750	0.140	-0.050
2020/01/31 11:17:08.0	292.360	-0.740	0.150	-0.050
2020/01/31 11:17:08.1	292.370	-0.720	0.160	-0.050
2020/01/31 11:17:08.2	292.380	-0.700	0.170	-0.050
2020/01/31 11:17:08.3	292.390	-0.680	0.180	-0.040
2020/01/31 11:17:08.4	292.400	-0.660	0.180	-0.040
2020/01/31 11:17:08.5	292.400	-0.630	0.180	-0.030
2020/01/31 11:17:08.6	292.420	-0.610	0.180	-0.010
2020/01/31 11:17:08.7	292.430	-0.580	0.180	0.000
2020/01/31 11:17:08.8	292.450	-0.550	0.170	0.020
2020/01/31 11:17:08.9	292.460	-0.520	0.160	0.040
2020/01/31 11:17:09.0	292.470	-0.480	0.150	0.070
2020/01/31 11:17:09.1	292.490	-0.450	0.150	0.100
2020/01/31 11:17:09.2	292.500	-0.410	0.130	0.130
2020/01/31 11:17:09.3	292.520	-0.380	0.120	0.160
2020/01/31 11:17:09.4	292.530	-0.340	0.110	0.200
2020/01/31 11:17:09.5	292.560	-0.300	0.100	0.240
2020/01/31 11:17:09.6	292.570	-0.270	0.090	0.280
2020/01/31 11:17:09.7	292.580	-0.230	0.080	0.330
2020/01/31 11:17:09.8	292.590	-0.190	0.070	0.370
2020/01/31 11:17:09.9	292.610	-0.160	0.060	0.420
2020/01/31 11:17:10.0	292.620	-0.120	0.050	0.470
2020/01/31 11:17:10.1	292.630	-0.090	0.040	0.520
2020/01/31 11:17:10.2	292.640	-0.050	0.030	0.570
2020/01/31 11:17:10.3	292.650	-0.020	0.030	0.630
2020/01/31 11:17:10.4	292.650	0.010	0.020	0.680
2020/01/31 11:17:10.5	292.670	0.050	0.020	0.730
2020/01/31 11:17:10.6	292.680	0.080	0.020	0.790
2020/01/31 11:17:10.7	292.680	0.100	0.010	0.840
2020/01/31 11:17:10.8	292.690	0.130	0.010	0.890
2020/01/31 11:17:10.9	292.690	0.160	0.010	0.940
2020/01/31 11:17:11.0	292.690	0.180	0.010	0.990
2020/01/31 11:17:11.1	292.690	0.210	0.010	1.040
2020/01/31 11:17:11.2	292.690	0.230	0.000	1.090
2020/01/31 11:17:11.3	292.690	0.250	0.000	1.130
2020/01/31 11:17:11.4	292.690	0.270	-0.000	1.180
2020/01/31 11:17:11.5	292.700	0.290	-0.000	1.220
2020/01/31 11:17:11.6	292.700	0.310	-0.010	1.260
2020/01/31 11:17:11.7	292.690	0.330	-0.010	1.300
2020/01/31 11:17:11.8	292.690	0.340	-0.020	1.340
2020/01/31 11:17:11.9	292.680	0.360	-0.030	1.370
2020/01/31 11:17:12.0	292.670	0.370	-0.040	1.400
2020/01/31 11:17:12.1	292.670	0.380	-0.050	1.430
2020/01/31 11:17:12.2	292.660	0.390	-0.070	1.450
2020/01/31 11:17:12.3	292.650	0.400	-0.090	1.470
2020/01/31 11:17:12.4	292.640	0.410	-0.100	1.490
2020/01/31 11:17:12.5	292.630	0.420	-0.130	1.500
2020/01/31 11:17:12.6	292.620	0.430	-0.150	1.510
2020/01/31 11:17:12.7	292.610	0.440	-0.170	1.520
2020/01/31 11:17:12.8	292.600	0.450	-0.200	1.530
2020/01/31 11:17:12.9	292.590	0.450	-0.230	1.530
2020/01/31 11:17:13.0	292.580	0.460	-0.260	1.530
2020/01/31 11:17:13.1	292.570	0.470	-0.290	1.520
2020/01/31 11:17:13.2	292.570	0.470	-0.320	1.520
2020/01/31 11:17:13.3	292.560	0.480	-0.350	1.510
2020/01/31 11:17:13.4	292.550	0.480	-0.390	1.500
2020/01/31 11:17:13.5	292.540	0.480	-0.420	1.480
2020/01/31 11:17:13.6	292.530	0.490	-0.450	1.470
2020/01/31 11:17:13.7	292.520	0.490	-0.490	1.450
2020/01/31 11:17:13.8	292.520	0.490	-0.520	1.430
2020/01/31 11:17:13.9	292.510	0.490	-0.560	1.410
2020/01/31 11:17:14.0	292.500	0.490	-0.590	1.390
2020/01/31 11:17:14.1	292.490	0.490	-0.620	1.360
2020/01/31 11:17:14.2	292.490	0.490	-0.650	1.330
2020/01/31 11:17:14.3	292.480	0.490	-0.680	1.310
2020/01/31 11:17:14.4	292.480	0.480	-0.710	1.280
2020/01/31 11:17:14.5	292.470	0.480	-0.730	1.250
2020/01/31 11:17:14.6	292.470	0.480	-0.760	1.220
2020/01/31 11:17:14.7	292.460	0.470	-0.770	1.180
2020/01/31 11:17:14.8	292.460	0.460	-0.790	1.150
2020/01/31 11:17:14.9	292.460	0.460	-0.800	1.120
2020/01/31 11:17:15.0	292.450	0.450	-0.810	1.090
2020/01/31 11:17:15.1	292.450	0.440	-0.820	1.050
2020/01/31 11:17:15.2	292.450	0.430	-0.820	1.020
2020/01/31 11:17:15.3	292.450	0.410	-0.820	0.980
2020/01/31 11:17:15.4	292.450	0.400	-0.810	0.950
2020/01/31 11:17:15.5	292.470	0.380	-0.790	0.910
2020/01/31 11:17:15.6	292.470	0.370	-0.780	0.880
2020/01/31 11:17:15.7	292.480	0.350	-0.760	0.840
2020/01/31 11:17:15.8	292.480	0.330	-0.740	0.800
2020/01/31 11:17:15.9	292.480	0.310	-0.720	0.770
2020/01/31 11:17:16.0	292.490	0.290	-0.690	0.730
2020/01/31 11:17:16.1	292.490	0.260	-0.660	0.690
2020/01/31 11:17:16.2	292.500	0.240	-0.630	0.660
2020/01/31 11:17:16.3	292.510	0.210	-0.590	0.620
2020/01/31 11:17:16.4	292.510	0.190	-0.550	0.580
2020/01/31 11:17:16.5	292.510	0.160	-0.510	0.540
2020/01/31 11:17:16.6	292.520	0.130	-0.470	0.500
2020/01/31 11:17:16.7	292.520	0.100	-0.420	0.470
2020/01/31 11:17:16.8	292.530	0.070	-0.370	0.430
2020/01/31 11:17:16.9	292.530	0.040	-0.320	0.390
2020/01/31 11:17:17.0	292.540	0.000	-0.270	0.360
2020/01/31 11:17:17.1	292.540	-0.030	-0.220	0.320
2020/01/31 11:17:17.2	292.550	-0.060	-0.170	0.290
2020/01/31 11:17:17.3	292.550	-0.090	-0.120	0.250
2020/01/31 11:17:17.4	292.560	-0.130	-0.070	0.220
2020/01/31 11:17:17.5	292.550	-0.160	-0.020	0.180
2020/01/31 11:17:17.6	292.550	-0.190	0.030	0.150
2020/01/31 11:17:17.7	292.560	-0.220	0.080	0.120
2020/01/31 11:17:17.8	292.570	-0.250	0.120	0.090
2020/01/31 11:17:17.9	292.580	-0.280	0.160	0.050
2020/01/31 11:17:18.0	292.580	-0.310	0.200	0.020
2020/01/31 11:17:18.1	292.590	-0.330	0.230	-0.010
2020/01/31 11:17:18.2	292.610	-0.360	0.260	-0.030
2020/01/31 11:17:18.3	292.620	-0.380	0.290	-0.060
2020/01/31 11:17:18.4	292.630	-0.400	0.310	-0.090
2020/01/31 11:17:18.5	292.630	-0.420	0.330	-0.110
2020/01/31 11:17:18.6	292.650	-0.430	0.340	-0.130
2020/01/31 11:17:18.7	292.660	-0.450	0.350	-0.150
2020/01/31 11:17:18.8	292.680	-0.460	0.360	-0.170
2020/01/31 11:17:18.9	292.690	-0.470	0.360	-0.180
2020/01/31 11:17:19.0	292.700	-0.470	0.350	-0.190
2020/01/31 11:17:19.1	292.720	-0.480	0.350	-0.200
2020/01/31 11:17:19.2	292.730	-0.480	0.330	-0.210
2020/01/31 11:17:19.3	292.750	-0.480	0.320	-0.210
2020/01/31 11:17:19.4	292.760	-0.480	0.300	-0.200
2020/01/31 11:17:19.5	292.780	-0.470	0.270	-0.200
2020/01/31 11:17:19.6	292.790	-0.460	0.250	-0.190
2020/01/31 11:17:19.7	292.800	-0.450	0.220	-0.170
2020/01/31 11:17:19.8	292.810	-0.440	0.180	-0.150
2020/01/31 11:17:19.9	292.820	-0.430	0.150	-0.120
2020/01/31 11:17:20.0	292.830	-0.410	0.110	-0.100
2020/01/31 11:17:20.1	292.840	-0.390	0.080	-0.060
2020/01/31 11:17:20.2	292.840	-0.370	0.040	-0.030
2020/01/31 11:17:20.3	292.850	-0.350	-0.000	0.010
2020/01/31 11:17:20.4	292.850	-0.330	-0.050	0.060
2020/01/31 11:17:20.5	292.860	-0.310	-0.090	0.110
2020/01/31 11:17:20.6	292.870	-0.280	-0.130	0.160
2020/01/31 11:17:20.7	292.870	-0.260	-0.170	0.210
2020/01/31 11:17:20.8	292.870	-0.230	-0.210	0.270
2020/01/31 11:17:20.9	292.870	-0.210	-0.250	0.330
2020/01/31 11:17:21.0	292.870	-0.180	-0.290	0.390
2020/01/31 11:17:21.1	292.870	-0.160	-0.330	0.450
2020/01/31 11:17:21.2	292.870	-0.130	-0.370	0.520
2020/01/31 11:17:21.3	292.870	-0.100	-0.410	0.590
2020/01/31 11:17:21.4	292.860	-0.080	-0.440	0.650
2020/01/31 11:17:21.5	292.860	-0.050	-0.480	0.720
2020/01/31 11:17:21.6	292.860	-0.020	-0.510	0.790
2020/01/31 11:17:21.7	292.860	-0.000	-0.540	0.860
2020/01/31 11:17:21.8	292.850	0.020	-0.570	0.930
2020/01/31 11:17:21.9	292.850	0.050	-0.590	1.000
2020/01/31 11:17:22.0	292.840	0.070	-0.620	1.070
2020/01/31 11:17:22.1	292.830	0.090	-0.640	1.130
2020/01/31 11:17:22.2	292.830	0.110	-0.650	1.190
2020/01/31 11:17:22.3	292.820	0.120	-0.670	1.260
2020/01/31 11:17:22.4	292.810	0.140	-0.680	1.310
2020/01/31 11:17:22.5	292.800	0.150	-0.690	1.370
2020/01/31 11:17:22.6	292.800	0.160	-0.700	1.430
2020/01/31 11:17:22.7	292.790	0.170	-0.710	1.470
2020/01/31 11:17:22.8	292.780	0.180	-0.710	1.520
2020/01/31 11:17:22.9	292.770	0.190	-0.710	1.560
2020/01/31 11:17:23.0	292.760	0.190	-0.710	1.600
2020/01/31 11:17:23.1	292.760	0.190	-0.700	1.640
2020/01/31 11:17:23.2	292.750	0.190	-0.700	1.670
2020/01/31 11:17:23.3	292.740	0.190	-0.690	1.690
2020/01/31 11:17:23.4	292.730	0.190	-0.680	1.710
2020/01/31 11:17:23.5	292.720	0.180	-0.660	1.730
2020/01/31 11:17:23.6	292.720	0.180	-0.650	1.740
2020/01/31 11:17:23.7	292.710	0.170	-0.640	1.740
2020/01/31 11:17:23.8	292.710	0.160	-0.620	1.750
2020/01/31 11:17:23.9	292.710	0.150	-0.600	1.740
2020/01/31 11:17:24.0	292.700	0.140	-0.580	1.740
2020/01/31 11:17:24.1	292.700	0.120	-0.570	1.720
2020/01/31 11:17:24.2	292.710	0.110	-0.550	1.710
2020/01/31 11:17:24.3	292.710	0.100	-0.530	1.690
2020/01/31 11:17:24.4	292.720	0.080	-0.510	1.660
2020/01/31 11:17:24.5	292.720	0.060	-0.490	1.640
2020/01/31 11:17:24.6	292.730	0.050	-0.470	1.600
2020/01/31 11:17:24.7	292.740	0.030	-0.450	1.570
2020/01/31 11:17:24.8	292.760	0.020	-0.430	1.530
2020/01/31 11:17:24.9	292.770	0.000	-0.410	1.480
2020/01/31 11:17:25.0	292.790	-0.010	-0.390	1.440
2020/01/31 11:17:25.1	292.810	-0.030	-0.370	1.390
2020/01/31 11:17:25.2	292.830	-0.040	-0.350	1.330
2020/01/31 11:17:25.3	292.850	-0.060	-0.330	1.280
2020/01/31 11:17:25.4	292.870	-0.070	-0.310	1.220
2020/01/31 11:17:25.5	292.900	-0.080	-0.290	1.160
2020/01/31 11:17:25.6	292.930	-0.090	-0.270	1.110
2020/01/31 11:17:25.7	292.950	-0.100	-0.250	1.050
2020/01/31 11:17:25.8	292.980	-0.110	-0.230	0.990
2020/01/31 11:17:25.9	293.010	-0.120	-0.210	0.930
2020/01/31 11:17:26.0	293.030	-0.120	-0.190	0.870
2020/01/31 11:17:26.1	293.060	-0.130	-0.170	0.810
2020/01/31 11:17:26.2	293.090	-0.130	-0.150	0.750
2020/01/31 11:17:26.3	293.110	-0.130	-0.130	0.700
2020/01/31 11:17:26.4	293.140	-0.130	-0.110	0.640
2020/01/31 11:17:26.5	293.170	-0.130	-0.090	0.590
2020/01/31 11:17:26.6	293.200	-0.130	-0.070	0.540
2020/01/31 11:17:26.7	293.220	-0.120	-0.050	0.490
2020/01/31 11:17:26.8	293.250	-0.120	-0.020	0.450
2020/01/31 11:17:26.9	293.280	-0.110	-0.000	0.400
2020/01/31 11:17:27.0	293.300	-0.100	0.020	0.360
2020/01/31 11:17:27.1	293.320	-0.100	0.040	0.330
2020/01/31 11:17:27.2	293.350	-0.090	0.070	0.290
2020/01/31 11:17:27.3	293.370	-0.080	0.090	0.260
2020/01/31 11:17:27.4	293.390	-0.070	0.110	0.230
2020/01/31 11:17:27.5	293.400	-0.060	0.140	0.200
2020/01/31 11:17:27.6	293.420	-0.050	0.160	0.180
2020/01/31 11:17:27.7	293.430	-0.040	0.180	0.170
2020/01/31 11:17:27.8	293.450	-0.030	0.200	0.150
2020/01/31 11:17:27.9	293.460	-0.020	0.220	0.140
2020/01/31 11:17:28.0	293.480	-0.010	0.240	0.140
2020/01/31 11:17:28.1	293.490	-0.000	0.260	0.130
2020/01/31 11:17:28.2	293.500	0.010	0.280	0.140
2020/01/31 11:17:28.3	293.510	0.010	0.290	0.140
2020/01/31 11:17:28.4	293.530	0.020	0.310	0.140
2020/01/31 11:17:28.5	293.520	0.030	0.320	0.150
2020/01/31 11:17:28.6	293.530	0.040	0.330	0.160
2020/01/31 11:17:28.7	293.540	0.040	0.340	0.170
2020/01/31 11:17:28.8	293.540	0.050	0.350	0.180
2020/01/31 11:17:28.9	293.550	0.050	0.350	0.200
2020/01/31 11:17:29.0	293.560	0.060	0.350	0.220
2020/01/31 11:17:29.1	293.560	0.060	0.350	0.240
2020/01/31 11:17:29.2	293.570	0.070	0.340	0.260
2020/01/31 11:17:29.3	293.570	0.070	0.340	0.280
2020/01/31 11:17:29.4	293.580	0.070	0.330	0.300
2020/01/31 11:17:29.5	293.580	0.070	0.320	0.320
2020/01/31 11:17:29.6	293.590	0.080	0.300	0.350
2020/01/31 11:17:29.7	293.590	0.080	0.280	0.370
2020/01/31 11:17:29.8	293.600	0.080	0.260	0.400
2020/01/31 11:17:29.9	293.610	0.080	0.240	0.430
2020/01/31 11:17:30.0	293.620	0.080	0.210	0.450
2020/01/31 11:17:30.1	293.620	0.080	0.190	0.480
2020/01/31 11:17:30.2	293.630	0.090	0.160	0.500
2020/01/31 11:17:30.3	293.640	0.090	0.120	0.530
2020/01/31 11:17:30.4	293.650	0.090	0.090	0.560
2020/01/31 11:17:30.5	293.650	0.090	0.050	0.580
2020/01/31 11:17:30.6	293.660	0.100	0.020	0.610
2020/01/31 11:17:30.7	293.670	0.100	-0.020	0.630
2020/01/31 11:17:30.8	293.680	0.100	-0.070	0.650
2020/01/31 11:17:30.9	293.700	0.110	-0.110	0.680
2020/01/31 11:17:31.0	293.710	0.110	-0.150	0.700
2020/01/31 11:17:31.1	293.720	0.120	-0.200	0.720
2020/01/31 11:17:31.2	293.740	0.120	-0.240	0.740
2020/01/31 11:17:31.3	293.750	0.130	-0.290	0.760
2020/01/31 11:17:31.4	293.760	0.140	-0.340	0.780
2020/01/31 11:17:31.5	293.770	0.140	-0.380	0.790
2020/01/31 11:17:31.6	293.780	0.150	-0.430	0.800
2020/01/31 11:17:31.7	293.800	0.160	-0.480	0.820
2020/01/31 11:17:31.8	293.810	0.170	-0.530	0.830
2020/01/31 11:17:31.9	293.830	0.170	-0.580	0.840
2020/01/31 11:17:32.0	293.840	0.180	-0.630	0.850
2020/01/31 11:17:32.1	293.850	0.190	-0.670	0.850
2020/01/31 11:17:32.2	293.870	0.200	-0.720	0.860
2020/01/31 11:17:32.3	293.880	0.210	-0.760	0.860
2020/01/31 11:17:32.4	293.890	0.210	-0.810	0.860
2020/01/31 11:17:32.5	293.910	0.220	-0.850	0.860
2020/01/31 11:17:32.6	293.920	0.230	-0.890	0.860
2020/01/31 11:17:32.7	293.930	0.240	-0.930	0.860
2020/01/31 11:17:32.8	293.950	0.240	-0.960	0.850
2020/01/31 11:17:32.9	293.960	0.250	-1.000	0.850
2020/01/31 11:17:33.0	293.970	0.250	-1.030	0.840
2020/01/31 11:17:33.1	293.980	0.260	-1.050	0.830
2020/01/31 11:17:33.2	293.990	0.260	-1.080	0.820
2020/01/31 11:17:33.3	294.000	0.260	-1.100	0.810
2020/01/31 11:17:33.4	294.010	0.260	-1.120	0.800
2020/01/31 11:17:33.5	294.010	0.260	-1.130	0.790
2020/01/31 11:17:33.6	294.020	0.260	-1.140	0.780
2020/01/31 11:17:33.7	294.030	0.260	-1.150	0.770
2020/01/31 11:17:33.8	294.030	0.250	-1.140	0.750
2020/01/31 11:17:33.9	294.030	0.240	-1.140	0.740
2020/01/31 11:17:34.0	294.040	0.240	-1.130	0.730
2020/01/31 11:17:34.1	294.040	0.230	-1.120	0.720
2020/01/31 11:17:34.2	294.040	0.210	-1.100	0.710
2020/01/31 11:17:34.3	294.040	0.200	-1.080	0.690
2020/01/31 11:17:34.4	294.040	0.190	-1.050	0.680
2020/01/31 11:17:34.5	294.040	0.170	-1.010	0.670
2020/01/31 11:17:34.6	294.040	0.150	-0.980	0.660
2020/01/31 11:17:34.7	294.040	0.130	-0.940	0.650
2020/01/31 11:17:34.8	294.040	0.110	-0.890	0.640
2020/01/31 11:17:34.9	294.040	0.090	-0.850	0.630
2020/01/31 11:17:35.0	294.030	0.070	-0.800	0.610
2020/01/31 11:17:35.1	294.030	0.040	-0.750	0.600
2020/01/31 11:17:35.2	294.030	0.020	-0.700	0.590
2020/01/31 11:17:35.3	294.030	-0.010	-0.640	0.570
2020/01/31 11:17:35.4	294.040	-0.040	-0.590	0.560
2020/01/31 11:17:35.5	294.040	-0.060	-0.530	0.540
2020/01/31 11:17:35.6	294.040	-0.090	-0.480	0.530
2020/01/31 11:17:35.7	294.050	-0.120	-0.420	0.510
2020/01/31 11:17:35.8	294.050	-0.150	-0.360	0.490
2020/01/31 11:17:35.9	294.060	-0.170	-0.300	0.480
2020/01/31 11:17:36.0	294.070	-0.200	-0.240	0.460
2020/01/31 11:17:36.1	294.080	-0.230	-0.180	0.440
2020/01/31 11:17:36.2	294.090	-0.250	-0.130	0.420
2020/01/31 11:17:36.3	294.110	-0.280	-0.080	0.400
2020/01/31 11:17:36.4	294.120	-0.300	-0.020	0.380
2020/01/31 11:17:36.5	294.140	-0.320	0.030	0.360
2020/01/31 11:17:36.6	294.160	-0.350	0.080	0.340
2020/01/31 11:17:36.7	294.180	-0.370	0.120	0.320
2020/01/31 11:17:36.8	294.190	-0.380	0.170	0.300
2020/01/31 11:17:36.9	294.210	-0.400	0.210	0.270
2020/01/31 11:17:37.0	294.230	-0.420	0.250	0.250
2020/01/31 11:17:37.1	294.250	-0.430	0.290	0.230
2020/01/31 11:17:37.2	294.270	-0.440	0.320	0.210
2020/01/31 11:17:37.3	294.290	-0.450	0.350	0.180
2020/01/31 11:17:37.4	294.310	-0.460	0.380	0.160
2020/01/31 11:17:37.5	294.330	-0.470	0.410	0.140
2020/01/31 11:17:37.6	294.350	-0.470	0.430	0.120
2020/01/31 11:17:37.7	294.370	-0.470	0.450	0.100
2020/01/31 11:17:37.8	294.390	-0.470	0.470	0.080
2020/01/31 11:17:37.9	294.410	-0.470	0.490	0.060
2020/01/31 11:17:38.0	294.430	-0.470	0.500	0.050
2020/01/31 11:17:38.1	294.450	-0.470	0.510	0.030
2020/01/31 11:17:38.2	294.470	-0.460	0.520	0.020
2020/01/31 11:17:38.3	294.490	-0.450	0.520	0.000
2020/01/31 11:17:38.4	294.510	-0.440	0.520	-0.010
2020/01/31 11:17:38.5	294.530	-0.430	0.520	-0.020
2020/01/31 11:17:38.6	294.550	-0.420	0.520	-0.030
2020/01/31 11:17:38.7	294.570	-0.400	0.510	-0.040
2020/01/31 11:17:38.8	294.590	-0.390	0.500	-0.040
2020/01/31 11:17:38.9	294.610	-0.370	0.490	-0.050
2020/01/31 11:17:39.0	294.630	-0.350	0.470	-0.050
2020/01/31 11:17:39.1	294.650	-0.330	0.460	-0.060
2020/01/31 11:17:39.2	294.670	-0.310	0.440	-0.060
2020/01/31 11:17:39.3	294.690	-0.290	0.410	-0.060
2020/01/31 11:17:39.4	294.710	-0.270	0.390	-0.060
2020/01/31 11:17:39.5	294.730	-0.250	0.360	-0.050
2020/01/31 11:17:39.6	294.750	-0.230	0.330	-0.050
2020/01/31 11:17:39.7	294.770	-0.200	0.300	-0.040
2020/01/31 11:17:39.8	294.790	-0.180	0.270	-0.040
2020/01/31 11:17:39.9	294.810	-0.150	0.240	-0.030
2020/01/31 11:17:40.0	294.830	-0.130	0.200	-0.010
2020/01/31 11:17:40.1	294.850	-0.100	0.170	-0.000
2020/01/31 11:17:40.2	294.870	-0.080	0.130	0.010
2020/01/31 11:17:40.3	294.890	-0.050	0.100	0.030
2020/01/31 11:17:40.4	294.910	-0.030	0.060	0.050
2020/01/31 11:17:40.5	294.920	-0.010	0.020	0.070
2020/01/31 11:17:40.6	294.930	0.020	-0.010	0.090
2020/01/31 11:17:40.7	294.950	0.040	-0.050	0.120
2020/01/31 11:17:40.8	294.960	0.070	-0.080	0.150
2020/01/31 11:17:40.9	294.980	0.090	-0.110	0.180
2020/01/31 11:17:41.0	294.990	0.110	-0.140	0.220
2020/01/31 11:17:41.1	295.000	0.130	-0.170	0.250
2020/01/31 11:17:41.2	295.010	0.160	-0.200	0.290
2020/01/31 11:17:41.3	295.010	0.180	-0.220	0.330
2020/01/31 11:17:41.4	295.020	0.200	-0.250	0.370
2020/01/31 11:17:41.5	295.030	0.220	-0.270	0.420
2020/01/31 11:17:41.6	295.030	0.240	-0.290	0.460
2020/01/31 11:17:41.7	295.030	0.250	-0.310	0.510
2020/01/31 11:17:41.8	295.030	0.270	-0.330	0.550
2020/01/31 11:17:41.9	295.030	0.290	-0.340	0.600
2020/01/31 11:17:42.0	295.030	0.310	-0.360	0.640
2020/01/31 11:17:42.1	295.020	0.320	-0.380	0.690
2020/01/31 11:17:42.2	295.020	0.340	-0.390	0.730
2020/01/31 11:17:42.3	295.010	0.350	-0.400	0.770
2020/01/31 11:17:42.4	295.010	0.360	-0.410	0.820
2020/01/31 11:17:42.5	295.000	0.380	-0.430	0.850
2020/01/31 11:17:42.6	294.990	0.390	-0.440	0.890
2020/01/31 11:17:42.7	294.980	0.400	-0.450	0.930
2020/01/31 11:17:42.8	294.970	0.410	-0.460	0.970
2020/01/31 11:17:42.9	294.960	0.420	-0.470	1.000
2020/01/31 11:17:43.0	294.950	0.420	-0.480	1.030
2020/01/31 11:17:43.1	294.940	0.430	-0.490	1.060
2020/01/31 11:17:43.2	294.930	0.440	-0.500	1.090
2020/01/31 11:17:43.3	294.920	0.440	-0.510	1.110
2020/01/31 11:17:43.4	294.910	0.440	-0.530	1.130
2020/01/31 11:17:43.5	294.910	0.450	-0.540	1.150
2020/01/31 11:17:43.6	294.900	0.450	-0.550	1.170
2020/01/31 11:17:43.7	294.890	0.450	-0.560	1.180
2020/01/31 11:17:43.8	294.880	0.440	-0.570	1.190
2020/01/31 11:17:43.9	294.880	0.440	-0.590	1.190
2020/01/31 11:17:44.0	294.870	0.440	-0.600	1.190
2020/01/31 11:17:44.1	294.870	0.430	-0.610	1.190
2020/01/31 11:17:44.2	294.860	0.430	-0.630	1.180
2020/01/31 11:17:44.3	294.860	0.420	-0.640	1.170
2020/01/31 11:17:44.4	294.860	0.410	-0.650	1.150
2020/01/31 11:17:44.5	294.850	0.400	-0.670	1.130
2020/01/31 11:17:44.6	294.860	0.390	-0.680	1.110
2020/01/31 11:17:44.7	294.860	0.380	-0.690	1.090
2020/01/31 11:17:44.8	294.870	0.370	-0.700	1.060
2020/01/31 11:17:44.9	294.880	0.360	-0.710	1.040
2020/01/31 11:17:45.0	294.890	0.350	-0.720	1.000
2020/01/31 11:17:45.1	294.910	0.330	-0.730	0.970
2020/01/31 11:17:45.2	294.920	0.320	-0.740	0.940
2020/01/31 11:17:45.3	294.940	0.300	-0.750	0.900
2020/01/31 11:17:45.4	294.960	0.290	-0.750	0.860
2020/01/31 11:17:45.5	294.990	0.270	-0.750	0.820
2020/01/31 11:17:45.6	295.010	0.250	-0.750	0.780
2020/01/31 11:17:45.7	295.040	0.240	-0.750	0.740
2020/01/31 11:17:45.8	295.060	0.220	-0.750	0.700
2020/01/31 11:17:45.9	295.090	0.200	-0.740	0.660
2020/01/31 11:17:46.0	295.110	0.180	-0.740	0.620
2020/01/31 11:17:46.1	295.140	0.160	-0.730	0.580
2020/01/31 11:17:46.2	295.170	0.150	-0.720	0.540
2020/01/31 11:17:46.3	295.200	0.130	-0.700	0.500
2020/01/31 11:17:46.4	295.230	0.110	-0.690	0.460
2020/01/31 11:17:46.5	295.250	0.090	-0.670	0.420
2020/01/31 11:17:46.6	295.280	0.070	-0.650	0.390
2020/01/31 11:17:46.7	295.310	0.050	-0.620	0.350
2020/01/31 11:17:46.8	295.340	0.030	-0.600	0.320
2020/01/31 11:17:46.9	295.370	0.010	-0.580	0.280
2020/01/31 11:17:47.0	295.400	-0.000	-0.550	0.250
2020/01/31 11:17:47.1	295.430	-0.020	-0.520	0.220
2020/01/31 11:17:47.2	295.460	-0.040	-0.500	0.200
2020/01/31 11:17:47.3	295.490	-0.060	-0.470	0.170
2020/01/31 11:17:47.4	295.520	-0.080	-0.440	0.150
2020/01/31 11:17:47.5	295.530	-0.100	-0.410	0.120
2020/01/31 11:17:47.6	295.560	-0.110	-0.380	0.100
2020/01/31 11:17:47.7	295.590	-0.130	-0.350	0.090
2020/01/31 11:17:47.8	295.610	-0.150	-0.330	0.070
2020/01/31 11:17:47.9	295.640	-0.170	-0.300	0.060
2020/01/31 11:17:48.0	295.660	-0.190	-0.270	0.040
2020/01/31 11:17:48.1	295.690	-0.200	-0.250	0.030
2020/01/31 11:17:48.2	295.710	-0.220	-0.230	0.020
2020/01/31 11:17:48.3	295.730	-0.240	-0.200	0.020
2020/01/31 11:17:48.4	295.760	-0.260	-0.180	0.010
2020/01/31 11:17:48.5	295.770	-0.270	-0.160	0.010
2020/01/31 11:17:48.6	295.800	-0.290	-0.140	0.010
2020/01/31 11:17:48.7	295.820	-0.310	-0.120	0.010
2020/01/31 11:17:48.8	295.840	-0.320	-0.100	0.010
2020/01/31 11:17:48.9	295.860	-0.340	-0.090	0.010
2020/01/31 11:17:49.0	295.880	-0.360	-0.070	0.020
2020/01/31 11:17:49.1	295.900	-0.370	-0.060	0.020
2020/01/31 11:17:49.2	295.920	-0.390	-0.040	0.030
2020/01/31 11:17:49.3	295.930	-0.400	-0.030	0.040
2020/01/31 11:17:49.4	295.950	-0.420	-0.020	0.050
2020/01/31 11:17:49.5	295.970	-0.430	-0.000	0.060
2020/01/31 11:17:49.6	295.990	-0.440	0.010	0.080
2020/01/31 11:17:49.7	296.000	-0.460	0.020	0.090
2020/01/31 11:17:49.8	296.010	-0.470	0.030	0.110
2020/01/31 11:17:49.9	296.020	-0.480	0.040	0.120
2020/01/31 11:17:50.0	296.030	-0.490	0.050	0.140
2020/01/31 11:17:50.1	296.040	-0.500	0.070	0.160
2020/01/31 11:17:50.2	296.050	-0.510	0.080	0.180
2020/01/31 11:17:50.3	296.060	-0.520	0.090	0.200
2020/01/31 11:17:50.4	296.060	-0.530	0.100	0.220
2020/01/31 11:17:50.5	296.070	-0.530	0.110	0.240
2020/01/31 11:17:50.6	296.070	-0.540	0.120	0.260
2020/01/31 11:17:50.7	296.070	-0.540	0.130	0.280
2020/01/31 11:17:50.8	296.080	-0.540	0.140	0.300
2020/01/31 11:17:50.9	296.070	-0.540	0.160	0.330
2020/01/31 11:17:51.0	296.070	-0.540	0.170	0.350
2020/01/31 11:17:51.1	296.070	-0.540	0.180	0.380
2020/01/31 11:17:51.2	296.060	-0.540	0.190	0.400
2020/01/31 11:17:51.3	296.060	-0.530	0.200	0.430
2020/01/31 11:17:51.4	296.050	-0.530	0.200	0.460
2020/01/31 11:17:51.5	296.040	-0.520	0.210	0.480
2020/01/31 11:17:51.6	296.030	-0.500	0.220	0.510
2020/01/31 11:17:51.7	296.020	-0.490	0.230	0.540
2020/01/31 11:17:51.8	296.010	-0.480	0.230	0.570
2020/01/31 11:17:51.9	296.000	-0.460	0.240	0.600
2020/01/31 11:17:52.0	295.990	-0.440	0.240	0.630
2020/01/31 11:17:52.1	295.980	-0.420	0.240	0.660
2020/01/31 11:17:52.2	295.970	-0.400	0.240	0.690
2020/01/31 11:17:52.3	295.960	-0.370	0.240	0.710
2020/01/31 11:17:52.4	295.950	-0.350	0.240	0.740
2020/01/31 11:17:52.5	295.940	-0.320	0.230	0.760
2020/01/31 11:17:52.6	295.930	-0.290	0.220	0.790
2020/01/31 11:17:52.7	295.920	-0.260	0.210	0.810
2020/01/31 11:17:52.8	295.910	-0.230	0.200	0.830
2020/01/31 11:17:52.9	295.910	-0.200	0.190	0.840
2020/01/31 11:17:53.0	295.910	-0.160	0.170	0.860
2020/01/31 11:17:53.1	295.910	-0.130	0.150	0.870
2020/01/31 11:17:53.2	295.910	-0.090	0.130	0.880
2020/01/31 11:17:53.3	295.910	-0.060	0.110	0.880
2020/01/31 11:17:53.4	295.920	-0.020	0.080	0.880
2020/01/31 11:17:53.5	295.930	0.020	0.050	0.880
2020/01/31 11:17:53.6	295.930	0.060	0.020	0.880
2020/01/31 11:17:53.7	295.950	0.100	-0.010	0.870
2020/01/31 11:17:53.8	295.960	0.130	-0.040	0.860
2020/01/31 11:17:53.9	295.970	0.170	-0.080	0.850
2020/01/31 11:17:54.0	295.990	0.210	-0.110	0.840
2020/01/31 11:17:54.1	296.010	0.250	-0.150	0.830
2020/01/31 11:17:54.2	296.030	0.280	-0.180	0.810
2020/01/31 11:17:54.3	296.050	0.320	-0.220	0.800
2020/01/31 11:17:54.4	296.070	0.350	-0.250	0.780
2020/01/31 11:17:54.5	296.100	0.390	-0.280	0.760
2020/01/31 11:17:54.6	296.120	0.420	-0.320	0.750
2020/01/31 11:17:54.7	296.150	0.450	-0.350	0.730
2020/01/31 11:17:54.8	296.170	0.480	-0.380	0.720
2020/01/31 11:17:54.9	296.200	0.500	-0.400	0.700
2020/01/31 11:17:55.0	296.220	0.530	-0.430	0.690
2020/01/31 11:17:55.1	296.250	0.550	-0.450	0.680
2020/01/31 11:17:55.2	296.280	0.570	-0.470	0.660
2020/01/31 11:17:55.3	296.300	0.590	-0.490	0.650
2020/01/31 11:17:55.4	296.330	0.600	-0.500	0.640
2020/01/31 11:17:55.5	296.360	0.610	-0.520	0.630
2020/01/31 11:17:55.6	296.390	0.630	-0.520	0.630
2020/01/31 11:17:55.7	296.420	0.630	-0.530	0.620
2020/01/31 11:17:55.8	296.440	0.640	-0.540	0.610
2020/01/31 11:17:55.9	296.470	0.640	-0.540	0.610
2020/01/31 11:17:56.0	296.500	0.640	-0.540	0.610
2020/01/31 11:17:56.1	296.530	0.640	-0.540	0.600
2020/01/31 11:17:56.2	296.560	0.640	-0.530	0.600
2020/01/31 11:17:56.3	296.590	0.630	-0.530	0.600
2020/01/31 11:17:56.4	296.620	0.620	-0.520	0.600
2020/01/31 11:17:56.5	296.650	0.610	-0.510	0.600
2020/01/31 11:17:56.6	296.680	0.600	-0.500	0.600
2020/01/31 11:17:56.7	296.710	0.580	-0.490	0.600
2020/01/31 11:17:56.8	296.730	0.570	-0.490	0.600
2020/01/31 11:17:56.9	296.760	0.550	-0.480	0.600
2020/01/31 11:17:57.0	296.790	0.530	-0.470	0.610
2020/01/31 11:17:57.1	296.810	0.510	-0.460	0.610
2020/01/31 11:17:57.2	296.840	0.480	-0.450	0.610
2020/01/31 11:17:57.3	296.870	0.460	-0.440	0.620
2020/01/31 11:17:57.4	296.890	0.430	-0.430	0.620
2020/01/31 11:17:57.5	296.920	0.410	-0.420	0.620
2020/01/31 11:17:57.6	296.940	0.380	-0.410	0.620
2020/01/31 11:17:57.7	296.970	0.350	-0.410	0.620
2020/01/31 11:17:57.8	296.990	0.320	-0.400	0.620
2020/01/31 11:17:57.9	297.010	0.290	-0.400	0.620
2020/01/31 11:17:58.0	297.030	0.260	-0.390	0.620
2020/01/31 11:17:58.1	297.060	0.230	-0.390	0.610
2020/01/31 11:17:58.2	297.080	0.200	-0.390	0.610
2020/01/31 11:17:58.3	297.100	0.170	-0.390	0.600
2020/01/31 11:17:58.4	297.120	0.150	-0.390	0.590
2020/01/31 11:17:58.5	297.160	0.120	-0.400	0.570
2020/01/31 11:17:58.6	297.180	0.090	-0.400	0.560
2020/01/31 11:17:58.7	297.210	0.060	-0.410	0.540
2020/01/31 11:17:58.8	297.230	0.030	-0.420	0.520
2020/01/31 11:17:58.9	297.250	0.000	-0.420	0.500
2020/01/31 11:17:59.0	297.280	-0.020	-0.430	0.480
2020/01/31 11:17:59.1	297.300	-0.050	-0.440	0.460
2020/01/31 11:17:59.2	297.330	-0.080	-0.450	0.430
2020/01/31 11:17:59.3	297.350	-0.100	-0.470	0.400
2020/01/31 11:17:59.4	297.380	-0.130	-0.480	0.370
2020/01/31 11:17:59.5	297.410	-0.150	-0.490	0.340
2020/01/31 11:17:59.6	297.430	-0.170	-0.510	0.300
2020/01/31 11:17:59.7	297.460	-0.190	-0.520	0.270
2020/01/31 11:17:59.8	297.480	-0.210	-0.530	0.240
2020/01/31 11:17:59.9	297.510	-0.230	-0.550	0.200
2020/01/31 11:18:00.0	297.530	-0.250	-0.560	0.160
2020/01/31 11:18:00.1	297.560	-0.270	-0.570	0.130
2020/01/31 11:18:00.2	297.580	-0.280	-0.590	0.090
2020/01/31 11:18:00.3	297.610	-0.300	-0.600	0.050
2020/01/31 11:18:00.4	297.630	-0.310	-0.600	0.020
2020/01/31 11:18:00.5	297.660	-0.320	-0.610	-0.020
2020/01/31 11:18:00.6	297.690	-0.330	-0.610	-0.060
2020/01/31 11:18:00.7	297.720	-0.340	-0.620	-0.090
2020/01/31 11:18:00.8	297.740	-0.350	-0.620	-0.130
2020/01/31 11:18:00.9	297.770	-0.360	-0.620	-0.160
2020/01/31 11:18:01.0	297.790	-0.360	-0.610	-0.190
2020/01/31 11:18:01.1	297.820	-0.370	-0.610	-0.220
2020/01/31 11:18:01.2	297.840	-0.370	-0.600	-0.250
2020/01/31 11:18:01.3	297.870	-0.370	-0.590	-0.280
2020/01/31 11:18:01.4	297.890	-0.370	-0.570	-0.300
2020/01/31 11:18:01.5	297.910	-0.370	-0.560	-0.320
2020/01/31 11:18:01.6	297.930	-0.370	-0.540	-0.340
2020/01/31 11:18:01.7	297.950	-0.360	-0.510	-0.350
2020/01/31 11:18:01.8	297.970	-0.360	-0.490	-0.360
2020/01/31 11:18:01.9	297.990	-0.350	-0.460	-0.370
2020/01/31 11:18:02.0	298.010	-0.350	-0.430	-0.370
2020/01/31 11:18:02.1	298.030	-0.340	-0.400	-0.370
2020/01/31 11:18:02.2	298.050	-0.330	-0.360	-0.370
2020/01/31 11:18:02.3	298.060	-0.320	-0.330	-0.360
2020/01/31 11:18:02.4	298.080	-0.310	-0.290	-0.350
2020/01/31 11:18:02.5	298.100	-0.300	-0.250	-0.340
2020/01/31 11:18:02.6	298.110	-0.290	-0.210	-0.320
2020/01/31 11:18:02.7	298.120	-0.280	-0.170	-0.300
2020/01/31 11:18:02.8	298.140	-0.270	-0.130	-0.270
2020/01/31 11:18:02.9	298.140	-0.260	-0.090	-0.240
2020/01/31 11:18:03.0	298.150	-0.250	-0.050	-0.210
2020/01/31 11:18:03.1	298.160	-0.240	-0.010	-0.170
2020/01/31 11:18:03.2	298.170	-0.230	0.030	-0.140
2020/01/31 11:18:03.3	298.180	-0.220	0.070	-0.100
2020/01/31 11:18:03.4	298.180	-0.200	0.110	-0.060
2020/01/31 11:18:03.5	298.190	-0.190	0.150	-0.010
2020/01/31 11:18:03.6	298.190	-0.180	0.180	0.030
2020/01/31 11:18:03.7	298.200	-0.170	0.210	0.070
2020/01/31 11:18:03.8	298.210	-0.160	0.240	0.110
2020/01/31 11:18:03.9	298.220	-0.150	0.270	0.160
2020/01/31 11:18:04.0	298.220	-0.140	0.300	0.200
2020/01/31 11:18:04.1	298.230	-0.130	0.320	0.250
2020/01/31 11:18:04.2	298.240	-0.120	0.340	0.290
2020/01/31 11:18:04.3	298.250	-0.110	0.360	0.330
2020/01/31 11:18:04.4	298.260	-0.100	0.370	0.380
2020/01/31 11:18:04.5	298.270	-0.090	0.380	0.410
2020/01/31 11:18:04.6	298.280	-0.080	0.390	0.460
2020/01/31 11:18:04.7	298.290	-0.070	0.390	0.500
2020/01/31 11:18:04.8	298.300	-0.060	0.390	0.530
2020/01/31 11:18:04.9	298.310	-0.050	0.390	0.570
2020/01/31 11:18:05.0	298.330	-0.040	0.390	0.610
2020/01/31 11:18:05.1	298.340	-0.030	0.380	0.640
2020/01/31 11:18:05.2	298.350	-0.020	0.370	0.680
2020/01/31 11:18:05.3	298.370	-0.010	0.350	0.710
2020/01/31 11:18:05.4	298.380	0.000	0.340	0.740
2020/01/31 11:18:05.5	298.410	0.010	0.320	0.770
2020/01/31 11:18:05.6	298.420	0.020	0.300	0.800
2020/01/31 11:18:05.7	298.440	0.030	0.270	0.820
2020/01/31 11:18:05.8	298.460	0.040	0.250	0.840
2020/01/31 11:18:05.9	298.480	0.050	0.220	0.860
2020/01/31 11:18:06.0	298.500	0.060	0.190	0.880
2020/01/31 11:18:06.1	298.520	0.070	0.160	0.900
2020/01/31 11:18:06.2	298.540	0.080	0.130	0.910
2020/01/31 11:18:06.3	298.560	0.090	0.100	0.930
2020/01/31 11:18:06.4	298.580	0.100	0.060	0.930
2020/01/31 11:18:06.5	298.610	0.110	0.030	0.940
2020/01/31 11:18:06.6	298.630	0.120	-0.010	0.940
2020/01/31 11:18:06.7	298.650	0.120	-0.040	0.940
2020/01/31 11:18:06.8	298.670	0.130	-0.070	0.950
2020/01/31 11:18:06.9	298.690	0.130	-0.110	0.940
2020/01/31 11:18:07.0	298.710	0.140	-0.140	0.940
2020/01/31 11:18:07.1	298.730	0.140	-0.170	0.930
2020/01/31 11:18:07.2	298.760	0.150	-0.200	0.920
2020/01/31 11:18:07.3	298.780	0.150	-0.240	0.910
2020/01/31 11:18:07.4	298.800	0.150	-0.270	0.900
2020/01/31 11:18:07.5	298.820	0.150	-0.290	0.890
2020/01/31 11:18:07.6	298.840	0.150	-0.320	0.870
2020/01/31 11:18:07.7	298.860	0.150	-0.350	0.850
2020/01/31 11:18:07.8	298.880	0.150	-0.370	0.830
2020/01/31 11:18:07.9	298.900	0.150	-0.390	0.810
2020/01/31 11:18:08.0	298.920	0.150	-0.420	0.790
2020/01/31 11:18:08.1	298.940	0.150	-0.440	0.760
2020/01/31 11:18:08.2	298.960	0.150	-0.460	0.740
2020/01/31 11:18:08.3	298.980	0.140	-0.470	0.710
2020/01/31 11:18:08.4	299.000	0.140	-0.490	0.680
2020/01/31 11:18:08.5	299.010	0.140	-0.510	0.650
2020/01/31 11:18:08.6	299.030	0.130	-0.520	0.620
2020/01/31 11:18:08.7	299.050	0.130	-0.530	0.590
2020/01/31 11:18:08.8	299.060	0.130	-0.540	0.550
2020/01/31 11:18:08.9	299.080	0.120	-0.560	0.520
2020/01/31 11:18:09.0	299.090	0.120	-0.570	0.490
2020/01/31 11:18:09.1	299.100	0.110	-0.580	0.450
2020/01/31 11:18:09.2	299.110	0.110	-0.580	0.410
2020/01/31 11:18:09.3	299.130	0.110	-0.590	0.380
2020/01/31 11:18:09.4	299.140	0.100	-0.600	0.340
2020/01/31 11:18:09.5	299.130	0.100	-0.610	0.300
2020/01/31 11:18:09.6	299.150	0.100	-0.620	0.260
2020/01/31 11:18:09.7	299.160	0.090	-0.620	0.220
2020/01/31 11:18:09.8	299.170	0.090	-0.630	0.190
2020/01/31 11:18:09.9	299.180	0.090	-0.640	0.150
2020/01/31 11:18:10.0	299.190	0.090	-0.640	0.110
2020/01/31 11:18:10.1	299.200	0.090	-0.650	0.070
2020/01/31 11:18:10.2	299.210	0.090	-0.650	0.030
2020/01/31 11:18:10.3	299.230	0.090	-0.660	-0.000
2020/01/31 11:18:10.4	299.240	0.090	-0.660	-0.040
2020/01/31 11:18:10.5	299.260	0.090	-0.660	-0.070
2020/01/31 11:18:10.6	299.270	0.090	-0.670	-0.100
2020/01/31 11:18:10.7	299.280	0.090	-0.670	-0.140
2020/01/31 11:18:10.8	299.300	0.100	-0.670	-0.170
2020/01/31 11:18:10.9	299.310	0.100	-0.670	-0.190
2020/01/31 11:18:11.0	299.330	0.100	-0.660	-0.220
2020/01/31 11:18:11.1	299.350	0.110	-0.660	-0.240
2020/01/31 11:18:11.2	299.360	0.110	-0.650	-0.270
2020/01/31 11:18:11.3	299.380	0.110	-0.640	-0.290
2020/01/31 11:18:11.4	299.400	0.120	-0.630	-0.300
2020/01/31 11:18:11.5	299.410	0.120	-0.620	-0.320
2020/01/31 11:18:11.6	299.430	0.120	-0.600	-0.330
2020/01/31 11:18:11.7	299.450	0.130	-0.580	-0.340
2020/01/31 11:18:11.8	299.470	0.130	-0.560	-0.340
2020/01/31 11:18:11.9	299.490	0.130	-0.530	-0.340
2020/01/31 11:18:12.0	299.510	0.130	-0.510	-0.340
2020/01/31 11:18:12.1	299.530	0.130	-0.480	-0.340
2020/01/31 11:18:12.2	299.550	0.140	-0.440	-0.330
2020/01/31 11:18:12.3	299.570	0.130	-0.410	-0.320
2020/01/31 11:18:12.4	299.590	0.130	-0.370	-0.310
2020/01/31 11:18:12.5	299.620	0.130	-0.330	-0.290
2020/01/31 11:18:12.6	299.650	0.130	-0.290	-0.280
2020/01/31 11:18:12.7	299.670	0.130	-0.250	-0.260
2020/01/31 11:18:12.8	299.700	0.120	-0.210	-0.240
2020/01/31 11:18:12.9	299.720	0.120	-0.170	-0.210
2020/01/31 11:18:13.0	299.750	0.110	-0.130	-0.190
2020/01/31 11:18:13.1	299.780	0.100	-0.090	-0.170
2020/01/31 11:18:13.2	299.800	0.100	-0.050	-0.140
2020/01/31 11:18:13.3	299.830	0.090	-0.020	-0.110
2020/01/31 11:18:13.4	299.860	0.080	0.020	-0.090
2020/01/31 11:18:13.5	299.890	0.070	0.060	-0.060
2020/01/31 11:18:13.6	299.920	0.060	0.090	-0.030
2020/01/31 11:18:13.7	299.950	0.050	0.120	-0.000
2020/01/31 11:18:13.8	299.980	0.040	0.150	0.030
2020/01/31 11:18:13.9	300.010	0.030	0.170	0.060
2020/01/31 11:18:14.0	300.030	0.030	0.190	0.090
2020/01/31 11:18:14.1	300.060	0.020	0.210	0.110
2020/01/31 11:18:14.2	300.090	0.010	0.230	0.140
2020/01/31 11:18:14.3	300.120	-0.000	0.240	0.170
2020/01/31 11:18:14.4	300.150	-0.010	0.250	0.200
2020/01/31 11:18:14.5	300.170	-0.020	0.250	0.220
2020/01/31 11:18:14.6	300.200	-0.030	0.250	0.240
2020/01/31 11:18:14.7	300.230	-0.030	0.250	0.270
2020/01/31 11:18:14.8	300.260	-0.040	0.240	0.290
2020/01/31 11:18:14.9	300.290	-0.040	0.230	0.310
2020/01/31 11:18:15.0	300.320	-0.050	0.210	0.330
2020/01/31 11:18:15.1	300.350	-0.050	0.200	0.340
2020/01/31 11:18:15.2	300.380	-0.060	0.180	0.360
2020/01/31 11:18:15.3	300.410	-0.060	0.150	0.380
2020/01/31 11:18:15.4	300.440	-0.060	0.120	0.390
2020/01/31 11:18:15.5	300.460	-0.060	0.090	0.400
2020/01/31 11:18:15.6	300.490	-0.060	0.060	0.410
2020/01/31 11:18:15.7	300.520	-0.060	0.030	0.420
2020/01/31 11:18:15.8	300.550	-0.070	-0.010	0.420
2020/01/31 11:18:15.9	300.570	-0.070	-0.050	0.430
2020/01/31 11:18:16.0	300.600	-0.070	-0.080	0.430
2020/01/31 11:18:16.1	300.620	-0.070	-0.120	0.430
2020/01/31 11:18:16.2	300.640	-0.070	-0.160	0.430
2020/01/31 11:18:16.3	300.660	-0.070	-0.200	0.430
2020/01/31 11:18:16.4	300.680	-0.070	-0.240	0.430
2020/01/31 11:18:16.5	300.680	-0.070	-0.280	0.430
2020/01/31 11:18:16.6	300.700	-0.070	-0.320	0.420
2020/01/31 11:18:16.7	300.720	-0.070	-0.350	0.420
2020/01/31 11:18:16.8	300.730	-0.070	-0.390	0.410
2020/01/31 11:18:16.9	300.750	-0.070	-0.420	0.400
2020/01/31 11:18:17.0	300.760	-0.080	-0.450	0.400
2020/01/31 11:18:17.1	300.770	-0.080	-0.480	0.390
2020/01/31 11:18:17.2	300.780	-0.080	-0.510	0.370
2020/01/31 11:18:17.3	300.790	-0.090	-0.530	0.360
2020/01/31 11:18:17.4	300.800	-0.090	-0.550	0.350
2020/01/31 11:18:17.5	300.810	-0.100	-0.570	0.340
2020/01/31 11:18:17.6	300.820	-0.100	-0.590	0.320
2020/01/31 11:18:17.7	300.830	-0.110	-0.600	0.300
2020/01/31 11:18:17.8	300.830	-0.120	-0.610	0.290
2020/01/31 11:18:17.9	300.830	-0.120	-0.610	0.270
2020/01/31 11:18:18.0	300.840	-0.130	-0.610	0.260
2020/01/31 11:18:18.1	300.840	-0.140	-0.610	0.240
2020/01/31 11:18:18.2	300.840	-0.150	-0.600	0.230
2020/01/31 11:18:18.3	300.840	-0.160	-0.600	0.220
2020/01/31 11:18:18.4	300.840	-0.160	-0.590	0.200
2020/01/31 11:18:18.5	300.830	-0.170	-0.570	0.190
2020/01/31 11:18:18.6	300.830	-0.180	-0.550	0.180
2020/01/31 11:18:18.7	300.820	-0.190	-0.530	0.180
2020/01/31 11:18:18.8	300.810	-0.190	-0.510	0.170
2020/01/31 11:18:18.9	300.800	-0.200	-0.490	0.170
2020/01/31 11:18:19.0	300.790	-0.200	-0.460	0.160
2020/01/31 11:18:19.1	300.780	-0.210	-0.440	0.160
2020/01/31 11:18:19.2	300.770	-0.210	-0.410	0.170
2020/01/31 11:18:19.3	300.750	-0.210	-0.380	0.170
2020/01/31 11:18:19.4	300.740	-0.210	-0.360	0.180
2020/01/31 11:18:19.5	300.720	-0.210	-0.330	0.180
2020/01/31 11:18:19.6	300.700	-0.210	-0.310	0.190
2020/01/31 11:18:19.7	300.680	-0.210	-0.280	0.210
2020/01/31 11:18:19.8	300.670	-0.210	-0.250	0.220
2020/01/31 11:18:19.9	300.650	-0.200	-0.230	0.240
2020/01/31 11:18:20.0	300.630	-0.200	-0.200	0.250
2020/01/31 11:18:20.1	300.620	-0.190	-0.180	0.270
2020/01/31 11:18:20.2	300.600	-0.180	-0.160	0.290
2020/01/31 11:18:20.3	300.590	-0.170	-0.140	0.310
2020/01/31 11:18:20.4	300.570	-0.160	-0.130	0.340
2020/01/31 11:18:20.5	300.560	-0.140	-0.120	0.360
2020/01/31 11:18:20.6	300.550	-0.130	-0.110	0.390
2020/01/31 11:18:20.7	300.540	-0.110	-0.100	0.410
2020/01/31 11:18:20.8	300.530	-0.100	-0.090	0.440
2020/01/31 11:18:20.9	300.520	-0.080	-0.090	0.460
2020/01/31 11:18:21.0	300.510	-0.060	-0.080	0.490
2020/01/31 11:18:21.1	300.500	-0.040	-0.080	0.520
2020/01/31 11:18:21.2	300.500	-0.020	-0.080	0.540
2020/01/31 11:18:21.3	300.490	-0.000	-0.080	0.570
2020/01/31 11:18:21.4	300.490	0.020	-0.090	0.590
2020/01/31 11:18:21.5	300.480	0.040	-0.090	0.610
2020/01/31 11:18:21.6	300.480	0.060	-0.090	0.640
2020/01/31 11:18:21.7	300.480	0.080	-0.100	0.660
2020/01/31 11:18:21.8	300.480	0.100	-0.110	0.680
2020/01/31 11:18:21.9	300.480	0.120	-0.120	0.700
2020/01/31 11:18:22.0	300.490	0.140	-0.130	0.720
2020/01/31 11:18:22.1	300.490	0.160	-0.140	0.730
2020/01/31 11:18:22.2	300.500	0.170	-0.140	0.750
2020/01/31 11:18:22.3	300.500	0.190	-0.150	0.760
2020/01/31 11:18:22.4	300.510	0.210	-0.160	0.770
2020/01/31 11:18:22.5	300.540	0.220	-0.170	0.780
2020/01/31 11:18:22.6	300.550	0.240	-0.180	0.790
2020/01/31 11:18:22.7	300.560	0.250	-0.180	0.800
2020/01/31 11:18:22.8	300.580	0.260	-0.190	0.800
2020/01/31 11:18:22.9	300.590	0.280	-0.200	0.800
2020/01/31 11:18:23.0	300.610	0.290	-0.200	0.800
2020/01/31 11:18:23.1	300.630	0.300	-0.200	0.800
2020/01/31 11:18:23.2	300.640	0.310	-0.210	0.800
2020/01/31 11:18:23.3	300.670	0.310	-0.210	0.790
2020/01/31 11:18:23.4	300.690	0.320	-0.210	0.790
2020/01/31 11:18:23.5	300.720	0.330	-0.200	0.780
2020/01/31 11:18:23.6	300.750	0.330	-0.200	0.770
2020/01/31 11:18:23.7	300.770	0.330	-0.200	0.760
2020/01/31 11:18:23.8	300.800	0.340	-0.200	0.740
2020/01/31 11:18:23.9	300.830	0.340	-0.200	0.730
2020/01/31 11:18:24.0	300.860	0.340	-0.190	0.710
2020/01/31 11:18:24.1	300.890	0.340	-0.190	0.690
2020/01/31 11:18:24.2	300.930	0.330	-0.190	0.670
2020/01/31 11:18:24.3	300.960	0.330	-0.190	0.650
2020/01/31 11:18:24.4	301.000	0.330	-0.190	0.620
2020/01/31 11:18:24.5	301.030	0.320	-0.190	0.590
2020/01/31 11:18:24.6	301.070	0.320	-0.180	0.570
2020/01/31 11:18:24.7	301.110	0.310	-0.190	0.540
2020/01/31 11:18:24.8	301.150	0.300	-0.190	0.500
2020/01/31 11:18:24.9	301.200	0.290	-0.190	0.470
2020/01/31 11:18:25.0	301.240	0.280	-0.190	0.440
2020/01/31 11:18:25.1	301.280	0.270	-0.200	0.400
2020/01/31 11:18:25.2	301.330	0.260	-0.200	0.360
2020/01/31 11:18:25.3	301.370	0.240	-0.210	0.330
2020/01/31 11:18:25.4	301.410	0.230	-0.220	0.290
2020/01/31 11:18:25.5	301.450	0.220	-0.220	0.250
2020/01/31 11:18:25.6	301.490	0.200	-0.230	0.210
2020/01/31 11:18:25.7	301.540	0.190	-0.240	0.170
2020/01/31 11:18:25.8	301.580	0.170	-0.250	0.130
2020/01/31 11:18:25.9	301.620	0.150	-0.260	0.090
2020/01/31 11:18:26.0	301.660	0.130	-0.260	0.050
2020/01/31 11:18:26.1	301.700	0.120	-0.270	0.010
2020/01/31 11:18:26.2	301.740	0.100	-0.280	-0.030
2020/01/31 11:18:26.3	301.780	0.080	-0.280	-0.060
2020/01/31 11:18:26.4	301.820	0.060	-0.290	-0.100
2020/01/31 11:18:26.5	301.840	0.040	-0.290	-0.130
2020/01/31 11:18:26.6	301.870	0.020	-0.290	-0.160
2020/01/31 11:18:26.7	301.900	0.000	-0.290	-0.190
2020/01/31 11:18:26.8	301.930	-0.020	-0.290	-0.220
2020/01/31 11:18:26.9	301.960	-0.040	-0.280	-0.240
2020/01/31 11:18:27.0	301.990	-0.060	-0.280	-0.260
2020/01/31 11:18:27.1	302.010	-0.080	-0.270	-0.280
2020/01/31 11:18:27.2	302.040	-0.100	-0.260	-0.300
2020/01/31 11:18:27.3	302.060	-0.120	-0.250	-0.310
2020/01/31 11:18:27.4	302.080	-0.140	-0.240	-0.320
2020/01/31 11:18:27.5	302.080	-0.150	-0.230	-0.330
2020/01/31 11:18:27.6	302.100	-0.170	-0.220	-0.330
2020/01/31 11:18:27.7	302.110	-0.190	-0.200	-0.330
2020/01/31 11:18:27.8	302.120	-0.210	-0.190	-0.330
2020/01/31 11:18:27.9	302.130	-0.220	-0.170	-0.320
2020/01/31 11:18:28.0	302.130	-0.240	-0.150	-0.310
2020/01/31 11:18:28.1	302.140	-0.250	-0.140	-0.290
2020/01/31 11:18:28.2	302.140	-0.260	-0.120	-0.270
2020/01/31 11:18:28.3	302.140	-0.270	-0.100	-0.250
2020/01/31 11:18:28.4	302.140	-0.280	-0.090	-0.230
2020/01/31 11:18:28.5	302.120	-0.290	-0.070	-0.200
2020/01/31 11:18:28.6	302.120	-0.300	-0.060	-0.170
2020/01/31 11:18:28.7	302.110	-0.310	-0.040	-0.140
2020/01/31 11:18:28.8	302.100	-0.310	-0.030	-0.110
2020/01/31 11:18:28.9	302.090	-0.320	-0.030	-0.070
2020/01/31 11:18:29.0	302.080	-0.320	-0.020	-0.040
2020/01/31 11:18:29.1	302.070	-0.320	-0.020	-0.000
2020/01/31 11:18:29.2	302.060	-0.320	-0.010	0.040
2020/01/31 11:18:29.3	302.040	-0.320	-0.010	0.080
2020/01/31 11:18:29.4	302.030	-0.310	-0.020	0.120
2020/01/31 11:18:29.5	302.000	-0.310	-0.020	0.160
2020/01/31 11:18:29.6	301.980	-0.300	-0.030	0.200
2020/01/31 11:18:29.7	301.970	-0.290	-0.040	0.240
2020/01/31 11:18:29.8	301.950	-0.280	-0.050	0.280
2020/01/31 11:18:29.9	301.940	-0.270	-0.060	0.330
2020/01/31 11:18:30.0	301.920	-0.260	-0.080	0.370
2020/01/31 11:18:30.1	301.910	-0.240	-0.100	0.410
2020/01/31 11:18:30.2	301.890	-0.230	-0.120	0.450
2020/01/31 11:18:30.3	301.880	-0.220	-0.140	0.490
2020/01/31 11:18:30.4	301.860	-0.200	-0.160	0.540
2020/01/31 11:18:30.5	301.830	-0.180	-0.180	0.570
2020/01/31 11:18:30.6	301.820	-0.170	-0.200	0.610
2020/01/31 11:18:30.7	301.800	-0.150	-0.230	0.650
2020/01/31 11:18:30.8	301.780	-0.130	-0.250	0.690
2020/01/31 11:18:30.9	301.770	-0.110	-0.270	0.730
2020/01/31 11:18:31.0	301.750	-0.090	-0.300	0.770
2020/01/31 11:18:31.1	301.730	-0.070	-0.320	0.800
2020/01/31 11:18:31.2	301.710	-0.060	-0.350	0.840
2020/01/31 11:18:31.3	301.700	-0.040	-0.370	0.870
2020/01/31 11:18:31.4	301.680	-0.020	-0.400	0.900
2020/01/31 11:18:31.5	301.660	0.000	-0.420	0.930
2020/01/31 11:18:31.6	301.650	0.020	-0.440	0.950
2020/01/31 11:18:31.7	301.630	0.040	-0.460	0.980
2020/01/31 11:18:31.8	301.620	0.050	-0.480	1.000
2020/01/31 11:18:31.9	301.600	0.070	-0.500	1.020
2020/01/31 11:18:32.0	301.590	0.090	-0.520	1.030
2020/01/31 11:18:32.1	301.580	0.110	-0.540	1.050
2020/01/31 11:18:32.2	301.570	0.120	-0.560	1.060
2020/01/31 11:18:32.3	301.560	0.140	-0.580	1.070
2020/01/31 11:18:32.4	301.550	0.150	-0.590	1.070
2020/01/31 11:18:32.5	301.550	0.170	-0.610	1.080
2020/01/31 11:18:32.6	301.540	0.180	-0.620	1.080
2020/01/31 11:18:32.7	301.530	0.200	-0.630	1.070
2020/01/31 11:18:32.8	301.530	0.210	-0.640	1.070
2020/01/31 11:18:32.9	301.530	0.220	-0.650	1.060
2020/01/31 11:18:33.0	301.520	0.230	-0.660	1.050
2020/01/31 11:18:33.1	301.520	0.240	-0.670	1.040
2020/01/31 11:18:33.2	301.520	0.260	-0.670	1.030
2020/01/31 11:18:33.3	301.520	0.270	-0.670	1.020
2020/01/31 11:18:33.4	301.520	0.270	-0.670	1.000
2020/01/31 11:18:33.5	301.510	0.280	-0.670	0.990
2020/01/31 11:18:33.6	301.520	0.290	-0.670	0.980
2020/01/31 11:18:33.7	301.520	0.300	-0.670	0.960
2020/01/31 11:18:33.8	301.520	0.300	-0.660	0.950
2020/01/31 11:18:33.9	301.530	0.300	-0.650	0.930
2020/01/31 11:18:34.0	301.530	0.310	-0.640	0.910
2020/01/31 11:18:34.1	301.540	0.310	-0.630	0.900
2020/01/31 11:18:34.2	301.550	0.310	-0.620	0.880
2020/01/31 11:18:34.3	301.550	0.300	-0.610	0.870
2020/01/31 11:18:34.4	301.560	0.300	-0.590	0.850
2020/01/31 11:18:34.5	301.570	0.300	-0.570	0.830
2020/01/31 11:18:34.6	301.580	0.290	-0.550	0.810
2020/01/31 11:18:34.7	301.590	0.280	-0.530	0.790
2020/01/31 11:18:34.8	301.600	0.270	-0.510	0.780
2020/01/31 11:18:34.9	301.610	0.260	-0.490	0.760
2020/01/31 11:18:35.0	301.620	0.250	-0.460	0.740
2020/01/31 11:18:35.1	301.640	0.240	-0.440	0.720
2020/01/31 11:18:35.2	301.650	0.220	-0.420	0.700
2020/01/31 11:18:35.3	301.670	0.200	-0.390	0.680
2020/01/31 11:18:35.4	301.690	0.190	-0.370	0.650
2020/01/31 11:18:35.5	301.710	0.170	-0.340	0.630
2020/01/31 11:18:35.6	301.730	0.150	-0.320	0.610
2020/01/31 11:18:35.7	301.760	0.130	-0.290	0.590
2020/01/31 11:18:35.8	301.780	0.110	-0.270	0.570
2020/01/31 11:18:35.9	301.800	0.090	-0.240	0.550
2020/01/31 11:18:36.0	301.830	0.070	-0.220	0.520
2020/01/31 11:18:36.1	301.850	0.050	-0.190	0.500
2020/01/31 11:18:36.2	301.880	0.030	-0.170	0.480
2020/01/31 11:18:36.3	301.900	0.010	-0.140	0.460
2020/01/31 11:18:36.4	301.930	-0.010	-0.120	0.440
2020/01/31 11:18:36.5	301.950	-0.030	-0.090	0.420
2020/01/31 11:18:36.6	301.970	-0.050	-0.070	0.400
2020/01/31 11:18:36.7	302.000	-0.070	-0.040	0.390
2020/01/31 11:18:36.8	302.030	-0.080	-0.020	0.370
2020/01/31 11:18:36.9	302.060	-0.100	0.000	0.350
2020/01/31 11:18:37.0	302.090	-0.120	0.030	0.340
2020/01/31 11:18:37.1	302.120	-0.140	0.050	0.330
2020/01/31 11:18:37.2	302.140	-0.150	0.070	0.310
2020/01/31 11:18:37.3	302.170	-0.170	0.090	0.300
2020/01/31 11:18:37.4	302.200	-0.180	0.110	0.290
2020/01/31 11:18:37.5	302.230	-0.190	0.130	0.280
2020/01/31 11:18:37.6	302.260	-0.210	0.140	0.270
2020/01/31 11:18:37.7	302.280	-0.220	0.160	0.260
2020/01/31 11:18:37.8	302.310	-0.230	0.170	0.250
2020/01/31 11:18:37.9	302.340	-0.240	0.180	0.240
2020/01/31 11:18:38.0	302.360	-0.250	0.190	0.230
2020/01/31 11:18:38.1	302.390	-0.260	0.200	0.230
2020/01/31 11:18:38.2	302.410	-0.260	0.210	0.220
2020/01/31 11:18:38.3	302.440	-0.270	0.210	0.210
2020/01/31 11:18:38.4	302.460	-0.270	0.220	0.210
2020/01/31 11:18:38.5	302.500	-0.280	0.220	0.200
2020/01/31 11:18:38.6	302.520	-0.280	0.220	0.200
2020/01/31 11:18:38.7	302.540	-0.280	0.220	0.190
2020/01/31 11:18:38.8	302.560	-0.280	0.220	0.190
2020/01/31 11:18:38.9	302.580	-0.280	0.220	0.190
2020/01/31 11:18:39.0	302.600	-0.280	0.220	0.190
2020/01/31 11:18:39.1	302.620	-0.280	0.210	0.190
2020/01/31 11:18:39.2	302.640	-0.280	0.210	0.190
2020/01/31 11:18:39.3	302.650	-0.270	0.200	0.190
2020/01/31 11:18:39.4	302.670	-0.270	0.190	0.190
2020/01/31 11:18:39.5	302.700	-0.260	0.190	0.190
2020/01/31 11:18:39.6	302.710	-0.250	0.180	0.200
2020/01/31 11:18:39.7	302.720	-0.250	0.170	0.200
2020/01/31 11:18:39.8	302.730	-0.240	0.150	0.210
2020/01/31 11:18:39.9	302.740	-0.230	0.140	0.210
2020/01/31 11:18:40.0	302.750	-0.220	0.130	0.220
2020/01/31 11:18:40.1	302.750	-0.210	0.110	0.220
2020/01/31 11:18:40.2	302.760	-0.200	0.100	0.230
2020/01/31 11:18:40.3	302.760	-0.180	0.080	0.240
2020/01/31 11:18:40.4	302.770	-0.170	0.070	0.240
2020/01/31 11:18:40.5	302.790	-0.160	0.050	0.250
2020/01/31 11:18:40.6	302.790	-0.140	0.030	0.260
2020/01/31 11:18:40.7	302.790	-0.130	0.010	0.260
2020/01/31 11:18:40.8	302.800	-0.110	-0.010	0.270
2020/01/31 11:18:40.9	302.800	-0.100	-0.020	0.270
2020/01/31 11:18:41.0	302.800	-0.080	-0.040	0.280
2020/01/31 11:18:41.1	302.800	-0.060	-0.060	0.280
2020/01/31 11:18:41.2	302.800	-0.050	-0.090	0.290
2020/01/31 11:18:41.3	302.800	-0.030	-0.110	0.290
2020/01/31 11:18:41.4	302.810	-0.010	-0.130	0.300
2020/01/31 11:18:41.5	302.810	0.010	-0.150	0.310
2020/01/31 11:18:41.6	302.810	0.030	-0.170	0.310
2020/01/31 11:18:41.7	302.810	0.040	-0.190	0.320
2020/01/31 11:18:41.8	302.800	0.060	-0.210	0.330
2020/01/31 11:18:41.9	302.800	0.080	-0.230	0.340
2020/01/31 11:18:42.0	302.800	0.100	-0.250	0.350
2020/01/31 11:18:42.1	302.800	0.110	-0.270	0.360
2020/01/31 11:18:42.2	302.790	0.130	-0.290	0.370
2020/01/31 11:18:42.3	302.790	0.150	-0.310	0.380
2020/01/31 11:18:42.4	302.790	0.160	-0.320	0.400
2020/01/31 11:18:42.5	302.790	0.180	-0.340	0.410
2020/01/31 11:18:42.6	302.780	0.190	-0.360	0.430
2020/01/31 11:18:42.7	302.770	0.210	-0.370	0.450
2020/01/31 11:18:42.8	302.760	0.220	-0.390	0.470
2020/01/31 11:18:42.9	302.750	0.230	-0.400	0.490
2020/01/31 11:18:43.0	302.740	0.240	-0.420	0.510
2020/01/31 11:18:43.1	302.730	0.250	-0.430	0.530
2020/01/31 11:18:43.2	302.720	0.260	-0.440	0.550
2020/01/31 11:18:43.3	302.710	0.270	-0.450	0.580
2020/01/31 11:18:43.4	302.700	0.280	-0.460	0.600
2020/01/31 11:18:43.5	302.700	0.280	-0.470	0.620
2020/01/31 11:18:43.6	302.680	0.290	-0.480	0.640
2020/01/31 11:18:43.7	302.670	0.290	-0.490	0.670
2020/01/31 11:18:43.8	302.660	0.290	-0.500	0.690
2020/01/31 11:18:43.9	302.640	0.290	-0.500	0.710
2020/01/31 11:18:44.0	302.630	0.290	-0.510	0.730
2020/01/31 11:18:44.1	302.620	0.290	-0.520	0.750
2020/01/31 11:18:44.2	302.600	0.290	-0.520	0.770
2020/01/31 11:18:44.3	302.590	0.280	-0.530	0.780
2020/01/31 11:18:44.4	302.580	0.280	-0.530	0.800
2020/01/31 11:18:44.5	302.580	0.270	-0.530	0.820
2020/01/31 11:18:44.6	302.560	0.260	-0.540	0.830
2020/01/31 11:18:44.7	302.550	0.250	-0.540	0.840
2020/01/31 11:18:44.8	302.540	0.240	-0.540	0.850
2020/01/31 11:18:44.9	302.530	0.220	-0.540	0.860
2020/01/31 11:18:45.0	302.520	0.210	-0.540	0.870
2020/01/31 11:18:45.1	302.510	0.190	-0.540	0.870
2020/01/31 11:18:45.2	302.500	0.180	-0.540	0.880
2020/01/31 11:18:45.3	302.490	0.160	-0.540	0.880
2020/01/31 11:18:45.4	302.480	0.140	-0.540	0.880
2020/01/31 11:18:45.5	302.460	0.120	-0.540	0.880
2020/01/31 11:18:45.6	302.450	0.100	-0.540	0.880
2020/01/31 11:18:45.7	302.440	0.080	-0.540	0.880
2020/01/31 11:18:45.8	302.440	0.060	-0.540	0.870
2020/01/31 11:18:45.9	302.430	0.040	-0.540	0.870
2020/01/31 11:18:46.0	302.420	0.020	-0.540	0.870
2020/01/31 11:18:46.1	302.420	-0.000	-0.540	0.860
2020/01/31 11:18:46.2	302.410	-0.030	-0.540	0.850
2020/01/31 11:18:46.3	302.410	-0.050	-0.540	0.840
2020/01/31 11:18:46.4	302.410	-0.070	-0.540	0.830
2020/01/31 11:18:46.5	302.410	-0.090	-0.540	0.820
2020/01/31 11:18:46.6	302.410	-0.110	-0.540	0.800
2020/01/31 11:18:46.7	302.410	-0.120	-0.540	0.790
2020/01/31 11:18:46.8	302.420	-0.140	-0.540	0.770
2020/01/31 11:18:46.9	302.420	-0.160	-0.550	0.750
2020/01/31 11:18:47.0	302.430	-0.170	-0.550	0.730
2020/01/31 11:18:47.1	302.440	-0.190	-0.550	0.710
2020/01/31 11:18:47.2	302.450	-0.200	-0.560	0.690
2020/01/31 11:18:47.3	302.460	-0.210	-0.560	0.670
2020/01/31 11:18:47.4	302.470	-0.220	-0.570	0.640
2020/01/31 11:18:47.5	302.480	-0.230	-0.570	0.620
2020/01/31 11:18:47.6	302.500	-0.230	-0.570	0.600
2020/01/31 11:18:47.7	302.520	-0.240	-0.570	0.570
2020/01/31 11:18:47.8	302.530	-0.240	-0.570	0.550
2020/01/31 11:18:47.9	302.550	-0.240	-0.570	0.530
2020/01/31 11:18:48.0	302.570	-0.240	-0.570	0.510
2020/01/31 11:18:48.1	302.590	-0.240	-0.570	0.500
2020/01/31 11:18:48.2	302.610	-0.240	-0.570	0.480
2020/01/31 11:18:48.3	302.630	-0.240	-0.560	0.460
2020/01/31 11:18:48.4	302.650	-0.230	-0.550	0.450
2020/01/31 11:18:48.5	302.680	-0.220	-0.540	0.440
2020/01/31 11:18:48.6	302.700	-0.210	-0.530	0.430
2020/01/31 11:18:48.7	302.720	-0.200	-0.510	0.430
2020/01/31 11:18:48.8	302.740	-0.190	-0.500	0.420
2020/01/31 11:18:48.9	302.750	-0.180	-0.480	0.420
2020/01/31 11:18:49.0	302.770	-0.170	-0.450	0.420
2020/01/31 11:18:49.1	302.790	-0.150	-0.430	0.420
2020/01/31 11:18:49.2	302.810	-0.140	-0.400	0.430
2020/01/31 11:18:49.3	302.830	-0.120	-0.380	0.430
2020/01/31 11:18:49.4	302.840	-0.110	-0.350	0.440
2020/01/31 11:18:49.5	302.860	-0.090	-0.310	0.450
2020/01/31 11:18:49.6	302.870	-0.070	-0.280	0.460
2020/01/31 11:18:49.7	302.890	-0.050	-0.250	0.470
2020/01/31 11:18:49.8	302.900	-0.030	-0.220	0.480
2020/01/31 11:18:49.9	302.910	-0.020	-0.180	0.490
2020/01/31 11:18:50.0	302.930	0.000	-0.150	0.510
2020/01/31 11:18:50.1	302.940	0.020	-0.110	0.520
2020/01/31 11:18:50.2	302.950	0.040	-0.080	0.530
2020/01/31 11:18:50.3	302.960	0.060	-0.050	0.550
2020/01/31 11:18:50.4	302.970	0.080	-0.010	0.560
2020/01/31 11:18:50.5	302.980	0.100	0.020	0.580
2020/01/31 11:18:50.6	302.990	0.120	0.050	0.590
2020/01/31 11:18:50.7	303.000	0.130	0.080	0.600
2020/01/31 11:18:50.8	303.000	0.150	0.100	0.610
2020/01/31 11:18:50.9	303.010	0.170	0.130	0.620
2020/01/31 11:18:51.0	303.010	0.180	0.150	0.630
2020/01/31 11:18:51.1	303.010	0.200	0.170	0.630
2020/01/31 11:18:51.2	303.020	0.210	0.190	0.640
2020/01/31 11:18:51.3	303.020	0.220	0.210	0.640
2020/01/31 11:18:51.4	303.020	0.230	0.230	0.650
2020/01/31 11:18:51.5	303.020	0.240	0.240	0.640
2020/01/31 11:18:51.6	303.020	0.250	0.250	0.640
2020/01/31 11:18:51.7	303.020	0.260	0.260	0.640
2020/01/31 11:18:51.8	303.020	0.270	0.270	0.630
2020/01/31 11:18:51.9	303.020	0.270	0.270	0.630
2020/01/31 11:18:52.0	303.020	0.280	0.270	0.620
2020/01/31 11:18:52.1	303.020	0.280	0.280	0.610
2020/01/31 11:18:52.2	303.020	0.280	0.270	0.600
2020/01/31 11:18:52.3	303.020	0.280	0.270	0.580
2020/01/31 11:18:52.4	303.020	0.280	0.270	0.570
2020/01/31 11:18:52.5	303.030	0.280	0.260	0.560
2020/01/31 11:18:52.6	303.030	0.270	0.260	0.540
2020/01/31 11:18:52.7	303.030	0.270	0.250	0.520
2020/01/31 11:18:52.8	303.030	0.260	0.240	0.500
2020/01/31 11:18:52.9	303.030	0.250	0.230	0.480
2020/01/31 11:18:53.0	303.030	0.240	0.220	0.470
2020/01/31 11:18:53.1	303.020	0.230	0.200	0.450
2020/01/31 11:18:53.2	303.020	0.220	0.190	0.430
2020/01/31 11:18:53.3	303.020	0.210	0.180	0.410
2020/01/31 11:18:53.4	303.010	0.200	0.170	0.390
2020/01/31 11:18:53.5	303.000	0.180	0.150	0.370
2020/01/31 11:18:53.6	303.000	0.170	0.140	0.350
2020/01/31 11:18:53.7	302.990	0.150	0.120	0.330
2020/01/31 11:18:53.8	302.980	0.140	0.110	0.310
2020/01/31 11:18:53.9	302.980	0.120	0.090	0.290
2020/01/31 11:18:54.0	302.970	0.100	0.080	0.270
2020/01/31 11:18:54.1	302.960	0.090	0.060	0.250
2020/01/31 11:18:54.2	302.950	0.070	0.040	0.230
2020/01/31 11:18:54.3	302.940	0.050	0.030	0.220
2020/01/31 11:18:54.4	302.930	0.030	0.010	0.200
2020/01/31 11:18:54.5	302.910	0.020	-0.010	0.180
2020/01/31 11:18:54.6	302.900	0.000	-0.030	0.160
2020/01/31 11:18:54.7	302.890	-0.020	-0.050	0.150
2020/01/31 11:18:54.8	302.880	-0.030	-0.070	0.130
2020/01/31 11:18:54.9	302.870	-0.050	-0.090	0.120
2020/01/31 11:18:55.0	302.850	-0.060	-0.120	0.100
2020/01/31 11:18:55.1	302.840	-0.080	-0.140	0.090
2020/01/31 11:18:55.2	302.830	-0.090	-0.170	0.080
2020/01/31 11:18:55.3	302.820	-0.100	-0.190	0.070
2020/01/31 11:18:55.4	302.810	-0.120	-0.220	0.060
2020/01/31 11:18:55.5	302.780	-0.130	-0.240	0.060
2020/01/31 11:18:55.6	302.770	-0.140	-0.270	0.050
2020/01/31 11:18:55.7	302.750	-0.150	-0.300	0.050
2020/01/31 11:18:55.8	302.740	-0.160	-0.320	0.050
2020/01/31 11:18:55.9	302.730	-0.170	-0.350	0.050
2020/01/31 11:18:56.0	302.710	-0.180	-0.380	0.050
2020/01/31 11:18:56.1	302.700	-0.190	-0.400	0.060
2020/01/31 11:18:56.2	302.680	-0.190	-0.430	0.060
2020/01/31 11:18:56.3	302.670	-0.200	-0.450	0.070
2020/01/31 11:18:56.4	302.660	-0.210	-0.480	0.080
2020/01/31 11:18:56.5	302.640	-0.210	-0.500	0.090
2020/01/31 11:18:56.6	302.630	-0.220	-0.520	0.100
2020/01/31 11:18:56.7	302.610	-0.220	-0.540	0.110
2020/01/31 11:18:56.8	302.600	-0.230	-0.560	0.130
2020/01/31 11:18:56.9	302.590	-0.230	-0.580	0.150
2020/01/31 11:18:57.0	302.580	-0.240	-0.600	0.160
2020/01/31 11:18:57.1	302.570	-0.240	-0.610	0.190
2020/01/31 11:18:57.2	302.570	-0.240	-0.620	0.210
2020/01/31 11:18:57.3	302.560	-0.240	-0.630	0.230
2020/01/31 11:18:57.4	302.550	-0.250	-0.640	0.250
2020/01/31 11:18:57.5	302.550	-0.250	-0.650	0.270
2020/01/31 11:18:57.6	302.540	-0.250	-0.660	0.300
2020/01/31 11:18:57.7	302.540	-0.250	-0.660	0.330
2020/01/31 11:18:57.8	302.530	-0.250	-0.660	0.350
2020/01/31 11:18:57.9	302.530	-0.250	-0.660	0.380
2020/01/31 11:18:58.0	302.520	-0.250	-0.660	0.410
2020/01/31 11:18:58.1	302.520	-0.250	-0.650	0.440
2020/01/31 11:18:58.2	302.510	-0.250	-0.640	0.470
2020/01/31 11:18:58.3	302.510	-0.250	-0.640	0.500
2020/01/31 11:18:58.4	302.510	-0.240	-0.630	0.530
2020/01/31 11:18:58.5	302.520	-0.240	-0.610	0.570
2020/01/31 11:18:58.6	302.510	-0.240	-0.600	0.600
2020/01/31 11:18:58.7	302.500	-0.230	-0.580	0.630
2020/01/31 11:18:58.8	302.500	-0.230	-0.560	0.660
2020/01/31 11:18:58.9	302.490	-0.230	-0.540	0.690
2020/01/31 11:18:59.0	302.490	-0.220	-0.520	0.730
2020/01/31 11:18:59.1	302.480	-0.210	-0.500	0.760
2020/01/31 11:18:59.2	302.480	-0.210	-0.480	0.790
2020/01/31 11:18:59.3	302.470	-0.200	-0.460	0.820
2020/01/31 11:18:59.4	302.460	-0.190	-0.440	0.850
2020/01/31 11:18:59.5	302.480	-0.180	-0.410	0.880
2020/01/31 11:18:59.6	302.480	-0.180	-0.390	0.910
2020/01/31 11:18:59.7	302.470	-0.170	-0.370	0.940
2020/01/31 11:18:59.8	302.470	-0.150	-0.340	0.970
2020/01/31 11:18:59.9	302.460	-0.140	-0.320	1.000
2020/01/31 11:19:00.0	302.460	-0.130	-0.290	1.030
2020/01/31 11:19:00.1	302.460	-0.120	-0.270	1.060
2020/01/31 11:19:00.2	302.450	-0.110	-0.250	1.090
2020/01/31 11:19:00.3	302.450	-0.090	-0.220	1.110
2020/01/31 11:19:00.4	302.450	-0.080	-0.200	1.130
2020/01/31 11:19:00.5	302.440	-0.060	-0.190	1.160
2020/01/31 11:19:00.6	302.430	-0.040	-0.170	1.180
2020/01/31 11:19:00.7	302.430	-0.030	-0.150	1.200
2020/01/31 11:19:00.8	302.430	-0.010	-0.130	1.220
2020/01/31 11:19:00.9	302.420	0.010	-0.120	1.230
2020/01/31 11:19:01.0	302.420	0.030	-0.100	1.250
2020/01/31 11:19:01.1	302.420	0.040	-0.090	1.260
2020/01/31 11:19:01.2	302.410	0.060	-0.080	1.270
2020/01/31 11:19:01.3	302.410	0.080	-0.070	1.280
2020/01/31 11:19:01.4	302.400	0.100	-0.060	1.290
2020/01/31 11:19:01.5	302.390	0.120	-0.060	1.290
2020/01/31 11:19:01.6	302.390	0.140	-0.050	1.300
2020/01/31 11:19:01.7	302.380	0.160	-0.050	1.300
2020/01/31 11:19:01.8	302.380	0.180	-0.050	1.300
2020/01/31 11:19:01.9	302.380	0.200	-0.050	1.290
2020/01/31 11:19:02.0	302.370	0.220	-0.060	1.290
2020/01/31 11:19:02.1	302.370	0.240	-0.060	1.280
2020/01/31 11:19:02.2	302.370	0.260	-0.070	1.270
2020/01/31 11:19:02.3	302.370	0.280	-0.070	1.250
2020/01/31 11:19:02.4	302.360	0.300	-0.080	1.240
2020/01/31 11:19:02.5	302.370	0.320	-0.090	1.220
2020/01/31 11:19:02.6	302.370	0.340	-0.110	1.200
2020/01/31 11:19:02.7	302.370	0.350	-0.120	1.180
2020/01/31 11:19:02.8	302.370	0.370	-0.130	1.150
2020/01/31 11:19:02.9	302.370	0.380	-0.150	1.130
2020/01/31 11:19:03.0	302.370	0.400	-0.160	1.100
2020/01/31 11:19:03.1	302.380	0.410	-0.180	1.080
2020/01/31 11:19:03.2	302.380	0.420	-0.200	1.050
2020/01/31 11:19:03.3	302.380	0.430	-0.210	1.020
2020/01/31 11:19:03.4	302.390	0.440	-0.230	1.000
2020/01/31 11:19:03.5	302.400	0.450	-0.250	0.970
2020/01/31 11:19:03.6	302.400	0.460	-0.260	0.940
2020/01/31 11:19:03.7	302.410	0.460	-0.280	0.910
2020/01/31 11:19:03.8	302.420	0.470	-0.300	0.880
2020/01/31 11:19:03.9	302.420	0.470	-0.320	0.860
2020/01/31 11:19:04.0	302.430	0.470	-0.330	0.830
2020/01/31 11:19:04.1	302.440	0.470	-0.350	0.800
2020/01/31 11:19:04.2	302.450	0.470	-0.370	0.770
2020/01/31 11:19:04.3	302.460	0.460	-0.380	0.740
2020/01/31 11:19:04.4	302.470	0.460	-0.390	0.720
2020/01/31 11:19:04.5	302.480	0.450	-0.410	0.690
2020/01/31 11:19:04.6	302.490	0.440	-0.420	0.660
2020/01/31 11:19:04.7	302.500	0.430	-0.430	0.630
2020/01/31 11:19:04.8	302.510	0.420	-0.440	0.610
2020/01/31 11:19:04.9	302.530	0.410	-0.450	0.580
2020/01/31 11:19:05.0	302.540	0.390	-0.460	0.560
2020/01/31 11:19:05.1	302.550	0.380	-0.460	0.540
2020/01/31 11:19:05.2	302.570	0.360	-0.460	0.520
2020/01/31 11:19:05.3	302.580	0.340	-0.470	0.500
2020/01/31 11:19:05.4	302.590	0.320	-0.460	0.480
2020/01/31 11:19:05.5	302.620	0.290	-0.460	0.460
2020/01/31 11:19:05.6	302.630	0.270	-0.450	0.450
2020/01/31 11:19:05.7	302.640	0.250	-0.450	0.430
2020/01/31 11:19:05.8	302.650	0.220	-0.440	0.420
2020/01/31 11:19:05.9	302.660	0.190	-0.430	0.410
2020/01/31 11:19:06.0	302.670	0.160	-0.420	0.400
2020/01/31 11:19:06.1	302.670	0.130	-0.400	0.390
2020/01/31 11:19:06.2	302.680	0.100	-0.390	0.390
2020/01/31 11:19:06.3	302.680	0.070	-0.370	0.380
2020/01/31 11:19:06.4	302.690	0.040	-0.350	0.380
2020/01/31 11:19:06.5	302.690	0.010	-0.330	0.380
2020/01/31 11:19:06.6	302.690	-0.020	-0.310	0.370
2020/01/31 11:19:06.7	302.690	-0.060	-0.290	0.370
2020/01/31 11:19:06.8	302.690	-0.090	-0.270	0.370
2020/01/31 11:19:06.9	302.690	-0.120	-0.250	0.370
2020/01/31 11:19:07.0	302.680	-0.150	-0.230	0.380
2020/01/31 11:19:07.1	302.680	-0.180	-0.210	0.380
2020/01/31 11:19:07.2	302.670	-0.220	-0.190	0.380
2020/01/31 11:19:07.3	302.670	-0.250	-0.170	0.380
2020/01/31 11:19:07.4	302.660	-0.280	-0.150	0.390
2020/01/31 11:19:07.5	302.650	-0.300	-0.130	0.390
2020/01/31 11:19:07.6	302.640	-0.330	-0.120	0.390
2020/01/31 11:19:07.7	302.630	-0.360	-0.100	0.390
2020/01/31 11:19:07.8	302.620	-0.380	-0.080	0.400
2020/01/31 11:19:07.9	302.610	-0.410	-0.070	0.400
2020/01/31 11:19:08.0	302.600	-0.430	-0.060	0.410
2020/01/31 11:19:08.1	302.590	-0.450	-0.050	0.410
2020/01/31 11:19:08.2	302.570	-0.470	-0.040	0.420
2020/01/31 11:19:08.3	302.560	-0.480	-0.030	0.420
2020/01/31 11:19:08.4	302.550	-0.500	-0.020	0.430
2020/01/31 11:19:08.5	302.520	-0.510	-0.010	0.440
2020/01/31 11:19:08.6	302.500	-0.520	-0.010	0.440
2020/01/31 11:19:08.7	302.490	-0.530	-0.000	0.450
2020/01/31 11:19:08.8	302.470	-0.540	-0.000	0.460
2020/01/31 11:19:08.9	302.450	-0.550	-0.000	0.460
2020/01/31 11:19:09.0	302.440	-0.550	-0.000	0.470
2020/01/31 11:19:09.1	302.420	-0.550	-0.000	0.480
2020/01/31 11:19:09.2	302.400	-0.550	-0.000	0.490
2020/01/31 11:19:09.3	302.390	-0.550	-0.010	0.490
2020/01/31 11:19:09.4	302.370	-0.540	-0.010	0.500
2020/01/31 11:19:09.5	302.350	-0.540	-0.020	0.500
2020/01/31 11:19:09.6	302.340	-0.530	-0.020	0.510
2020/01/31 11:19:09.7	302.320	-0.520	-0.030	0.520
2020/01/31 11:19:09.8	302.300	-0.500	-0.030	0.520
2020/01/31 11:19:09.9	302.290	-0.490	-0.040	0.530
2020/01/31 11:19:10.0	302.270	-0.480	-0.050	0.530
2020/01/31 11:19:10.1	302.260	-0.460	-0.060	0.540
2020/01/31 11:19:10.2	302.240	-0.440	-0.060	0.550
2020/01/31 11:19:10.3	302.230	-0.420	-0.070	0.560
2020/01/31 11:19:10.4	302.210	-0.400	-0.080	0.570
2020/01/31 11:19:10.5	302.180	-0.380	-0.080	0.580
2020/01/31 11:19:10.6	302.170	-0.360	-0.090	0.590
2020/01/31 11:19:10.7	302.150	-0.330	-0.090	0.600
2020/01/31 11:19:10.8	302.130	-0.310	-0.100	0.620
2020/01/31 11:19:10.9	302.120	-0.290	-0.100	0.640
2020/01/31 11:19:11.0	302.100	-0.260	-0.110	0.660
2020/01/31 11:19:11.1	302.080	-0.240	-0.110	0.680
2020/01/31 11:19:11.2	302.060	-0.210	-0.110	0.700
2020/01/31 11:19:11.3	302.050	-0.190	-0.110	0.730
2020/01/31 11:19:11.4	302.030	-0.160	-0.110	0.750
2020/01/31 11:19:11.5	302.000	-0.140	-0.110	0.790
2020/01/31 11:19:11.6	301.990	-0.110	-0.110	0.810
2020/01/31 11:19:11.7	301.970	-0.090	-0.110	0.840
2020/01/31 11:19:11.8	301.950	-0.060	-0.110	0.870
2020/01/31 11:19:11.9	301.940	-0.040	-0.110	0.900
2020/01/31 11:19:12.0	301.920	-0.020	-0.110	0.930
2020/01/31 11:19:12.1	301.910	0.000	-0.120	0.960
2020/01/31 11:19:12.2	301.890	0.030	-0.120	0.990
2020/01/31 11:19:12.3	301.880	0.050	-0.120	1.020
2020/01/31 11:19:12.4	301.870	0.070	-0.120	1.050
2020/01/31 11:19:12.5	301.860	0.090	-0.120	1.080
2020/01/31 11:19:12.6	301.850	0.110	-0.130	1.110
2020/01/31 11:19:12.7	301.840	0.130	-0.130	1.130
2020/01/31 11:19:12.8	301.840	0.150	-0.140	1.160
2020/01/31 11:19:12.9	301.830	0.170	-0.140	1.180
2020/01/31 11:19:13.0	301.830	0.180	-0.150	1.200
2020/01/31 11:19:13.1	301.830	0.200	-0.160	1.220
2020/01/31 11:19:13.2	301.820	0.220	-0.170	1.240
2020/01/31 11:19:13.3	301.820	0.230	-0.180	1.260
2020/01/31 11:19:13.4	301.820	0.240	-0.180	1.280
2020/01/31 11:19:13.5	301.810	0.260	-0.190	1.290
2020/01/31 11:19:13.6	301.810	0.270	-0.200	1.300
2020/01/31 11:19:13.7	301.810	0.280	-0.210	1.310
2020/01/31 11:19:13.8	301.810	0.290	-0.220	1.320
2020/01/31 11:19:13.9	301.810	0.300	-0.230	1.330
2020/01/31 11:19:14.0	301.800	0.300	-0.240	1.330
2020/01/31 11:19:14.1	301.800	0.310	-0.250	1.330
2020/01/31 11:19:14.2	301.800	0.310	-0.260	1.330
2020/01/31 11:19:14.3	301.800	0.320	-0.270	1.330
2020/01/31 11:19:14.4	301.800	0.320	-0.270	1.330
2020/01/31 11:19:14.5	301.800	0.330	-0.280	1.320
2020/01/31 11:19:14.6	301.800	0.330	-0.290	1.320
2020/01/31 11:19:14.7	301.800	0.330	-0.300	1.300
2020/01/31 11:19:14.8	301.800	0.330	-0.310	1.290
2020/01/31 11:19:14.9	301.800	0.330	-0.320	1.280
2020/01/31 11:19:15.0	301.800	0.330	-0.330	1.260
2020/01/31 11:19:15.1	301.800	0.330	-0.340	1.240
2020/01/31 11:19:15.2	301.810	0.330	-0.350	1.220
2020/01/31 11:19:15.3	301.810	0.320	-0.360	1.190
2020/01/31 11:19:15.4	301.820	0.320	-0.370	1.170
2020/01/31 11:19:15.5	301.830	0.320	-0.380	1.140
2020/01/31 11:19:15.6	301.840	0.320	-0.400	1.110
2020/01/31 11:19:15.7	301.850	0.310	-0.410	1.080
2020/01/31 11:19:15.8	301.860	0.310	-0.430	1.040
2020/01/31 11:19:15.9	301.870	0.300	-0.440	1.010
2020/01/31 11:19:16.0	301.880	0.300	-0.460	0.970
2020/01/31 11:19:16.1	301.880	0.300	-0.470	0.940
2020/01/31 11:19:16.2	301.890	0.290	-0.490	0.900
2020/01/31 11:19:16.3	301.900	0.290	-0.510	0.860
2020/01/31 11:19:16.4	301.910	0.280	-0.520	0.820
2020/01/31 11:19:16.5	301.920	0.280	-0.530	0.790
2020/01/31 11:19:16.6	301.930	0.270	-0.550	0.750
2020/01/31 11:19:16.7	301.940	0.270	-0.560	0.710
2020/01/31 11:19:16.8	301.950	0.260	-0.580	0.680
2020/01/31 11:19:16.9	301.960	0.260	-0.590	0.640
2020/01/31 11:19:17.0	301.970	0.250	-0.600	0.610
2020/01/31 11:19:17.1	301.990	0.240	-0.610	0.570
2020/01/31 11:19:17.2	302.000	0.240	-0.620	0.540
2020/01/31 11:19:17.3	302.010	0.230	-0.630	0.510
2020/01/31 11:19:17.4	302.020	0.230	-0.630	0.480
2020/01/31 11:19:17.5	302.030	0.220	-0.640	0.450
2020/01/31 11:19:17.6	302.040	0.220	-0.640	0.420
2020/01/31 11:19:17.7	302.050	0.210	-0.640	0.390
2020/01/31 11:19:17.8	302.070	0.200	-0.640	0.370
2020/01/31 11:19:17.9	302.080	0.200	-0.640	0.340
2020/01/31 11:19:18.0	302.090	0.190	-0.630	0.320
2020/01/31 11:19:18.1	302.100	0.190	-0.630	0.300
2020/01/31 11:19:18.2	302.110	0.180	-0.620	0.280
2020/01/31 11:19:18.3	302.120	0.170	-0.610	0.270
2020/01/31 11:19:18.4	302.130	0.170	-0.600	0.250
2020/01/31 11:19:18.5	302.130	0.160	-0.590	0.240
2020/01/31 11:19:18.6	302.140	0.150	-0.580	0.230
2020/01/31 11:19:18.7	302.140	0.140	-0.570	0.230
2020/01/31 11:19:18.8	302.150	0.140	-0.550	0.220
2020/01/31 11:19:18.9	302.150	0.130	-0.540	0.220
2020/01/31 11:19:19.0	302.150	0.120	-0.520	0.220
2020/01/31 11:19:19.1	302.150	0.110	-0.500	0.220
2020/01/31 11:19:19.2	302.150	0.100	-0.480	0.230
2020/01/31 11:19:19.3	302.140	0.090	-0.470	0.230
2020/01/31 11:19:19.4	302.140	0.080	-0.450	0.240
2020/01/31 11:19:19.5	302.120	0.070	-0.420	0.250
2020/01/31 11:19:19.6	302.110	0.060	-0.400	0.270
2020/01/31 11:19:19.7	302.100	0.050	-0.380	0.290
2020/01/31 11:19:19.8	302.080	0.030	-0.360	0.310
2020/01/31 11:19:19.9	302.070	0.020	-0.330	0.330
2020/01/31 11:19:20.0	302.050	0.010	-0.310	0.360
2020/01/31 11:19:20.1	302.030	-0.000	-0.280	0.380
2020/01/31 11:19:20.2	302.010	-0.020	-0.260	0.410
2020/01/31 11:19:20.3	301.980	-0.030	-0.230	0.440
2020/01/31 11:19:20.4	301.960	-0.040	-0.210	0.470
2020/01/31 11:19:20.5	301.930	-0.060	-0.180	0.500
2020/01/31 11:19:20.6	301.900	-0.070	-0.150	0.540
2020/01/31 11:19:20.7	301.880	-0.090	-0.130	0.570
2020/01/31 11:19:20.8	301.840	-0.100	-0.100	0.600
2020/01/31 11:19:20.9	301.810	-0.110	-0.080	0.640
2020/01/31 11:19:21.0	301.780	-0.130	-0.050	0.670
2020/01/31 11:19:21.1	301.750	-0.140	-0.030	0.700
2020/01/31 11:19:21.2	301.720	-0.160	-0.010	0.740
2020/01/31 11:19:21.3	301.680	-0.170	0.010	0.770
2020/01/31 11:19:21.4	301.650	-0.190	0.030	0.800
2020/01/31 11:19:21.5	301.620	-0.200	0.050	0.830
2020/01/31 11:19:21.6	301.580	-0.220	0.070	0.860
2020/01/31 11:19:21.7	301.550	-0.230	0.080	0.890
2020/01/31 11:19:21.8	301.520	-0.250	0.100	0.920
2020/01/31 11:19:21.9	301.490	-0.260	0.110	0.950
2020/01/31 11:19:22.0	301.460	-0.270	0.120	0.970
2020/01/31 11:19:22.1	301.430	-0.290	0.130	0.990
2020/01/31 11:19:22.2	301.400	-0.300	0.140	1.010
2020/01/31 11:19:22.3	301.370	-0.310	0.150	1.030
2020/01/31 11:19:22.4	301.350	-0.330	0.160	1.050
2020/01/31 11:19:22.5	301.330	-0.340	0.160	1.060
2020/01/31 11:19:22.6	301.310	-0.350	0.170	1.080
2020/01/31 11:19:22.7	301.280	-0.360	0.170	1.090
2020/01/31 11:19:22.8	301.260	-0.370	0.170	1.100
2020/01/31 11:19:22.9	301.240	-0.380	0.170	1.100
2020/01/31 11:19:23.0	301.220	-0.380	0.170	1.110
2020/01/31 11:19:23.1	301.200	-0.390	0.170	1.110
2020/01/31 11:19:23.2	301.180	-0.400	0.170	1.110
2020/01/31 11:19:23.3	301.160	-0.400	0.170	1.110
2020/01/31 11:19:23.4	301.140	-0.410	0.160	1.100
2020/01/31 11:19:23.5	301.130	-0.410	0.160	1.100
2020/01/31 11:19:23.6	301.110	-0.410	0.160	1.090
2020/01/31 11:19:23.7	301.100	-0.420	0.150	1.080
2020/01/31 11:19:23.8	301.090	-0.420	0.140	1.070
2020/01/31 11:19:23.9	301.070	-0.420	0.140	1.050
2020/01/31 11:19:24.0	301.060	-0.410	0.130	1.040
2020/01/31 11:19:24.1	301.050	-0.410	0.120	1.020
2020/01/31 11:19:24.2	301.040	-0.410	0.110	1.000
2020/01/31 11:19:24.3	301.030	-0.410	0.100	0.980
2020/01/31 11:19:24.4	301.030	-0.400	0.090	0.950
2020/01/31 11:19:24.5	301.030	-0.400	0.070	0.930
2020/01/31 11:19:24.6	301.030	-0.390	0.060	0.900
2020/01/31 11:19:24.7	301.020	-0.380	0.040	0.870
2020/01/31 11:19:24.8	301.020	-0.370	0.030	0.840
2020/01/31 11:19:24.9	301.020	-0.360	0.010	0.810
2020/01/31 11:19:25.0	301.020	-0.350	-0.010	0.780
2020/01/31 11:19:25.1	301.020	-0.340	-0.030	0.750
2020/01/31 11:19:25.2	301.020	-0.330	-0.040	0.720
2020/01/31 11:19:25.3	301.020	-0.320	-0.060	0.690
2020/01/31 11:19:25.4	301.020	-0.310	-0.080	0.650
2020/01/31 11:19:25.5	301.010	-0.290	-0.100	0.620
2020/01/31 11:19:25.6	301.020	-0.280	-0.120	0.590
2020/01/31 11:19:25.7	301.020	-0.270	-0.140	0.560
2020/01/31 11:19:25.8	301.030	-0.250	-0.160	0.530
2020/01/31 11:19:25.9	301.030	-0.230	-0.180	0.500
2020/01/31 11:19:26.0	301.040	-0.220	-0.200	0.470
2020/01/31 11:19:26.1	301.050	-0.200	-0.220	0.440
2020/01/31 11:19:26.2	301.050	-0.190	-0.240	0.410
2020/01/31 11:19:26.3	301.060	-0.170	-0.260	0.390
2020/01/31 11:19:26.4	301.070	-0.150	-0.280	0.360
2020/01/31 11:19:26.5	301.080	-0.130	-0.300	0.340
2020/01/31 11:19:26.6	301.090	-0.110	-0.320	0.320
2020/01/31 11:19:26.7	301.100	-0.100	-0.330	0.300
2020/01/31 11:19:26.8	301.110	-0.080	-0.350	0.280
2020/01/31 11:19:26.9	301.120	-0.060	-0.370	0.270
2020/01/31 11:19:27.0	301.130	-0.040	-0.390	0.260
2020/01/31 11:19:27.1	301.150	-0.020	-0.400	0.250
2020/01/31 11:19:27.2	301.160	0.000	-0.420	0.240
2020/01/31 11:19:27.3	301.170	0.020	-0.430	0.230
2020/01/31 11:19:27.4	301.190	0.040	-0.450	0.230
2020/01/31 11:19:27.5	301.210	0.060	-0.460	0.230
2020/01/31 11:19:27.6	301.220	0.080	-0.470	0.230
2020/01/31 11:19:27.7	301.230	0.100	-0.480	0.230
2020/01/31 11:19:27.8	301.250	0.120	-0.490	0.240
2020/01/31 11:19:27.9	301.260	0.140	-0.510	0.260
2020/01/31 11:19:28.0	301.270	0.160	-0.510	0.270
2020/01/31 11:19:28.1	301.280	0.180	-0.520	0.290
2020/01/31 11:19:28.2	301.290	0.200	-0.530	0.310
2020/01/31 11:19:28.3	301.300	0.210	-0.540	0.340
2020/01/31 11:19:28.4	301.310	0.230	-0.540	0.370
2020/01/31 11:19:28.5	301.300	0.250	-0.550	0.410
2020/01/31 11:19:28.6	301.310	0.270	-0.550	0.440
2020/01/31 11:19:28.7	301.310	0.290	-0.560	0.480
2020/01/31 11:19:28.8	301.310	0.300	-0.560	0.520
2020/01/31 11:19:28.9	301.310	0.320	-0.560	0.560
2020/01/31 11:19:29.0	301.310	0.340	-0.560	0.600
2020/01/31 11:19:29.1	301.300	0.350	-0.560	0.640
2020/01/31 11:19:29.2	301.300	0.370	-0.570	0.690
2020/01/31 11:19:29.3	301.290	0.380	-0.570	0.740
2020/01/31 11:19:29.4	301.280	0.400	-0.570	0.780
2020/01/31 11:19:29.5	301.280	0.410	-0.570	0.830
2020/01/31 11:19:29.6	301.270	0.420	-0.570	0.870
2020/01/31 11:19:29.7	301.260	0.430	-0.570	0.920
2020/01/31 11:19:29.8	301.250	0.440	-0.570	0.960
2020/01/31 11:19:29.9	301.240	0.450	-0.570	1.000
2020/01/31 11:19:30.0	301.230	0.460	-0.570	1.050
2020/01/31 11:19:30.1	301.210	0.460	-0.570	1.090
2020/01/31 11:19:30.2	301.200	0.470	-0.570	1.130
2020/01/31 11:19:30.3	301.190	0.470	-0.570	1.160
2020/01/31 11:19:30.4	301.170	0.480	-0.560	1.200
2020/01/31 11:19:30.5	301.180	0.480	-0.560	1.240
2020/01/31 11:19:30.6	301.170	0.480	-0.560	1.270
2020/01/31 11:19:30.7	301.150	0.470	-0.550	1.300
2020/01/31 11:19:30.8	301.130	0.470	-0.550	1.330
2020/01/31 11:19:30.9	301.110	0.460	-0.540	1.360
2020/01/31 11:19:31.0	301.100	0.460	-0.530	1.380
2020/01/31 11:19:31.1	301.080	0.450	-0.520	1.410
2020/01/31 11:19:31.2	301.060	0.440	-0.510	1.430
2020/01/31 11:19:31.3	301.040	0.430	-0.500	1.450
2020/01/31 11:19:31.4	301.010	0.410	-0.490	1.460
2020/01/31 11:19:31.5	301.000	0.400	-0.470	1.480
2020/01/31 11:19:31.6	300.980	0.380	-0.450	1.490
2020/01/31 11:19:31.7	300.950	0.360	-0.430	1.500
2020/01/31 11:19:31.8	300.930	0.340	-0.410	1.510
2020/01/31 11:19:31.9	300.900	0.320	-0.380	1.510
2020/01/31 11:19:32.0	300.880	0.290	-0.360	1.510
2020/01/31 11:19:32.1	300.850	0.270	-0.330	1.510
2020/01/31 11:19:32.2	300.830	0.240	-0.300	1.510
2020/01/31 11:19:32.3	300.800	0.220	-0.270	1.500
2020/01/31 11:19:32.4	300.770	0.190	-0.240	1.490
2020/01/31 11:19:32.5	300.760	0.160	-0.210	1.480
2020/01/31 11:19:32.6	300.740	0.130	-0.180	1.470
2020/01/31 11:19:32.7	300.710	0.100	-0.140	1.460
2020/01/31 11:19:32.8	300.680	0.070	-0.110	1.440
2020/01/31 11:19:32.9	300.650	0.040	-0.080	1.430
2020/01/31 11:19:33.0	300.620	0.010	-0.050	1.410
2020/01/31 11:19:33.1	300.590	-0.020	-0.020	1.390
2020/01/31 11:19:33.2	300.570	-0.050	0.010	1.370
2020/01/31 11:19:33.3	300.540	-0.080	0.040	1.350
2020/01/31 11:19:33.4	300.510	-0.100	0.070	1.330
2020/01/31 11:19:33.5	300.480	-0.130	0.090	1.300
2020/01/31 11:19:33.6	300.450	-0.150	0.110	1.280
2020/01/31 11:19:33.7	300.430	-0.180	0.130	1.250
2020/01/31 11:19:33.8	300.400	-0.200	0.150	1.230
2020/01/31 11:19:33.9	300.370	-0.220	0.170	1.200
2020/01/31 11:19:34.0	300.340	-0.240	0.180	1.170
2020/01/31 11:19:34.1	300.320	-0.260	0.190	1.140
2020/01/31 11:19:34.2	300.290	-0.270	0.200	1.110
2020/01/31 11:19:34.3	300.270	-0.290	0.200	1.080
2020/01/31 11:19:34.4	300.240	-0.300	0.200	1.050
2020/01/31 11:19:34.5	300.230	-0.310	0.190	1.020
2020/01/31 11:19:34.6	300.210	-0.310	0.190	0.990
2020/01/31 11:19:34.7	300.190	-0.320	0.180	0.950
2020/01/31 11:19:34.8	300.170	-0.320	0.170	0.920
2020/01/31 11:19:34.9	300.150	-0.320	0.150	0.890
2020/01/31 11:19:35.0	300.130	-0.320	0.140	0.850
2020/01/31 11:19:35.1	300.120	-0.320	0.120	0.820
2020/01/31 11:19:35.2	300.100	-0.320	0.100	0.780
2020/01/31 11:19:35.3	300.090	-0.310	0.070	0.750
2020/01/31 11:19:35.4	300.080	-0.300	0.050	0.710
2020/01/31 11:19:35.5	300.080	-0.290	0.020	0.680
2020/01/31 11:19:35.6	300.070	-0.280	-0.010	0.640
2020/01/31 11:19:35.7	300.070	-0.270	-0.040	0.610
2020/01/31 11:19:35.8	300.060	-0.260	-0.070	0.570
2020/01/31 11:19:35.9	300.060	-0.240	-0.100	0.540
2020/01/31 11:19:36.0	300.070	-0.230	-0.130	0.510
2020/01/31 11:19:36.1	300.070	-0.210	-0.160	0.470
2020/01/31 11:19:36.2	300.080	-0.190	-0.190	0.440
2020/01/31 11:19:36.3	300.090	-0.180	-0.220	0.410
2020/01/31 11:19:36.4	300.100	-0.160	-0.260	0.380
2020/01/31 11:19:36.5	300.090	-0.140	-0.290	0.350
2020/01/31 11:19:36.6	300.110	-0.130	-0.320	0.320
2020/01/31 11:19:36.7	300.120	-0.110	-0.350	0.290
2020/01/31 11:19:36.8	300.140	-0.090	-0.380	0.270
2020/01/31 11:19:36.9	300.160	-0.080	-0.400	0.240
2020/01/31 11:19:37.0	300.190	-0.060	-0.430	0.220
2020/01/31 11:19:37.1	300.210	-0.050	-0.460	0.200
2020/01/31 11:19:37.2	300.230	-0.040	-0.480	0.180
2020/01/31 11:19:37.3	300.260	-0.030	-0.500	0.160
2020/01/31 11:19:37.4	300.290	-0.020	-0.520	0.140
2020/01/31 11:19:37.5	300.340	-0.010	-0.540	0.120
2020/01/31 11:19:37.6	300.370	0.000	-0.560	0.110
2020/01/31 11:19:37.7	300.400	0.010	-0.570	0.100
2020/01/31 11:19:37.8	300.430	0.010	-0.580	0.090
2020/01/31 11:19:37.9	300.460	0.020	-0.590	0.080
2020/01/31 11:19:38.0	300.500	0.020	-0.600	0.080
2020/01/31 11:19:38.1	300.530	0.020	-0.600	0.070
2020/01/31 11:19:38.2	300.560	0.010	-0.600	0.080
2020/01/31 11:19:38.3	300.600	0.010	-0.600	0.080
2020/01/31 11:19:38.4	300.630	0.000	-0.590	0.080
2020/01/31 11:19:38.5	300.680	-0.010	-0.580	0.090
2020/01/31 11:19:38.6	300.710	-0.020	-0.570	0.100
2020/01/31 11:19:38.7	300.740	-0.030	-0.560	0.120
2020/01/31 11:19:38.8	300.760	-0.040	-0.540	0.140
2020/01/31 11:19:38.9	300.790	-0.060	-0.520	0.160
2020/01/31 11:19:39.0	300.810	-0.070	-0.500	0.180
2020/01/31 11:19:39.1	300.840	-0.090	-0.470	0.210
2020/01/31 11:19:39.2	300.850	-0.110	-0.450	0.250
2020/01/31 11:19:39.3	300.870	-0.130	-0.420	0.280
2020/01/31 11:19:39.4	300.880	-0.150	-0.380	0.320
2020/01/31 11:19:39.5	300.880	-0.170	-0.350	0.360
2020/01/31 11:19:39.6	300.890	-0.200	-0.310	0.410
2020/01/31 11:19:39.7	300.890	-0.220	-0.280	0.460
2020/01/31 11:19:39.8	300.890	-0.240	-0.240	0.510
2020/01/31 11:19:39.9	300.890	-0.270	-0.200	0.560
2020/01/31 11:19:40.0	300.880	-0.290	-0.160	0.610
2020/01/31 11:19:40.1	300.870	-0.310	-0.120	0.670
2020/01/31 11:19:40.2	300.860	-0.330	-0.090	0.720
2020/01/31 11:19:40.3	300.840	-0.350	-0.050	0.780
2020/01/31 11:19:40.4	300.820	-0.370	-0.010	0.840
2020/01/31 11:19:40.5	300.790	-0.390	0.020	0.900
2020/01/31 11:19:40.6	300.760	-0.410	0.060	0.950
2020/01/31 11:19:40.7	300.730	-0.430	0.090	1.010
2020/01/31 11:19:40.8	300.690	-0.440	0.120	1.070
2020/01/31 11:19:40.9	300.660	-0.450	0.150	1.130
2020/01/31 11:19:41.0	300.620	-0.460	0.170	1.180
2020/01/31 11:19:41.1	300.580	-0.470	0.190	1.230
2020/01/31 11:19:41.2	300.530	-0.480	0.210	1.290
2020/01/31 11:19:41.3	300.490	-0.480	0.230	1.340
2020/01/31 11:19:41.4	300.440	-0.480	0.240	1.380
2020/01/31 11:19:41.5	300.390	-0.480	0.250	1.430
2020/01/31 11:19:41.6	300.340	-0.480	0.250	1.470
2020/01/31 11:19:41.7	300.290	-0.470	0.250	1.510
2020/01/31 11:19:41.8	300.240	-0.460	0.240	1.550
2020/01/31 11:19:41.9	300.190	-0.450	0.230	1.580
2020/01/31 11:19:42.0	300.140	-0.440	0.220	1.610
2020/01/31 11:19:42.1	300.090	-0.420	0.200	1.640
2020/01/31 11:19:42.2	300.040	-0.400	0.180	1.660
2020/01/31 11:19:42.3	299.990	-0.380	0.160	1.680
2020/01/31 11:19:42.4	299.940	-0.360	0.130	1.700
2020/01/31 11:19:42.5	299.900	-0.330	0.100	1.720
2020/01/31 11:19:42.6	299.850	-0.310	0.070	1.720
2020/01/31 11:19:42.7	299.800	-0.280	0.030	1.730
2020/01/31 11:19:42.8	299.760	-0.250	-0.010	1.730
2020/01/31 11:19:42.9	299.720	-0.210	-0.050	1.730
2020/01/31 11:19:43.0	299.680	-0.180	-0.090	1.720
2020/01/31 11:19:43.1	299.640	-0.150	-0.130	1.710
2020/01/31 11:19:43.2	299.610	-0.110	-0.170	1.700
2020/01/31 11:19:43.3	299.570	-0.080	-0.220	1.690
2020/01/31 11:19:43.4	299.540	-0.040	-0.260	1.670
2020/01/31 11:19:43.5	299.500	-0.000	-0.310	1.640
2020/01/31 11:19:43.6	299.480	0.040	-0.350	1.620
2020/01/31 11:19:43.7	299.450	0.070	-0.400	1.600
2020/01/31 11:19:43.8	299.430	0.110	-0.440	1.570
2020/01/31 11:19:43.9	299.410	0.150	-0.480	1.550
2020/01/31 11:19:44.0	299.400	0.180	-0.520	1.520
2020/01/31 11:19:44.1	299.380	0.220	-0.560	1.490
2020/01/31 11:19:44.2	299.370	0.260	-0.590	1.460
2020/01/31 11:19:44.3	299.360	0.290	-0.620	1.430
2020/01/31 11:19:44.4	299.360	0.330	-0.650	1.400
2020/01/31 11:19:44.5	299.360	0.360	-0.670	1.370
2020/01/31 11:19:44.6	299.360	0.400	-0.700	1.340
2020/01/31 11:19:44.7	299.370	0.430	-0.720	1.300
2020/01/31 11:19:44.8	299.370	0.460	-0.730	1.280
2020/01/31 11:19:44.9	299.380	0.490	-0.740	1.250
2020/01/31 11:19:45.0	299.390	0.520	-0.750	1.220
2020/01/31 11:19:45.1	299.400	0.540	-0.760	1.190
2020/01/31 11:19:45.2	299.420	0.570	-0.760	1.160
2020/01/31 11:19:45.3	299.440	0.590	-0.760	1.130
2020/01/31 11:19:45.4	299.470	0.620	-0.760	1.110
2020/01/31 11:19:45.5	299.500	0.640	-0.760	1.080
2020/01/31 11:19:45.6	299.520	0.660	-0.750	1.050
2020/01/31 11:19:45.7	299.560	0.680	-0.740	1.020
2020/01/31 11:19:45.8	299.590	0.690	-0.730	1.000
2020/01/31 11:19:45.9	299.630	0.710	-0.720	0.970
2020/01/31 11:19:46.0	299.670	0.720	-0.700	0.940
2020/01/31 11:19:46.1	299.710	0.730	-0.680	0.920
2020/01/31 11:19:46.2	299.750	0.730	-0.660	0.890
2020/01/31 11:19:46.3	299.790	0.740	-0.640	0.870
2020/01/31 11:19:46.4	299.830	0.740	-0.620	0.850
2020/01/31 11:19:46.5	299.870	0.740	-0.590	0.820
2020/01/31 11:19:46.6	299.910	0.740	-0.560	0.810
2020/01/31 11:19:46.7	299.950	0.730	-0.530	0.790
2020/01/31 11:19:46.8	300.000	0.730	-0.500	0.770
2020/01/31 11:19:46.9	300.040	0.720	-0.470	0.760
2020/01/31 11:19:47.0	300.080	0.700	-0.440	0.740
2020/01/31 11:19:47.1	300.120	0.690	-0.400	0.730
2020/01/31 11:19:47.2	300.150	0.670	-0.360	0.730
2020/01/31 11:19:47.3	300.190	0.650	-0.330	0.720
2020/01/31 11:19:47.4	300.220	0.630	-0.290	0.720
2020/01/31 11:19:47.5	300.250	0.600	-0.250	0.720
2020/01/31 11:19:47.6	300.280	0.570	-0.210	0.720
2020/01/31 11:19:47.7	300.310	0.540	-0.160	0.720
2020/01/31 11:19:47.8	300.330	0.510	-0.120	0.720
2020/01/31 11:19:47.9	300.350	0.480	-0.080	0.730
2020/01/31 11:19:48.0	300.370	0.440	-0.040	0.730
2020/01/31 11:19:48.1	300.390	0.400	-0.000	0.740
2020/01/31 11:19:48.2	300.400	0.360	0.040	0.750
2020/01/31 11:19:48.3	300.410	0.320	0.070	0.750
2020/01/31 11:19:48.4	300.420	0.280	0.110	0.760
2020/01/31 11:19:48.5	300.410	0.240	0.140	0.760
2020/01/31 11:19:48.6	300.420	0.190	0.170	0.770
2020/01/31 11:19:48.7	300.420	0.150	0.200	0.770
2020/01/31 11:19:48.8	300.420	0.100	0.230	0.780
2020/01/31 11:19:48.9	300.420	0.060	0.250	0.780
2020/01/31 11:19:49.0	300.420	0.010	0.270	0.780
2020/01/31 11:19:49.1	300.410	-0.030	0.290	0.790
2020/01/31 11:19:49.2	300.400	-0.080	0.310	0.790
2020/01/31 11:19:49.3	300.400	-0.120	0.320	0.780
2020/01/31 11:19:49.4	300.390	-0.160	0.320	0.780
2020/01/31 11:19:49.5	300.370	-0.210	0.330	0.780
2020/01/31 11:19:49.6	300.350	-0.250	0.330	0.770
2020/01/31 11:19:49.7	300.340	-0.290	0.320	0.770
2020/01/31 11:19:49.8	300.330	-0.330	0.320	0.760
2020/01/31 11:19:49.9	300.310	-0.360	0.310	0.750
2020/01/31 11:19:50.0	300.290	-0.400	0.290	0.740
2020/01/31 11:19:50.1	300.280	-0.440	0.280	0.730
2020/01/31 11:19:50.2	300.260	-0.470	0.260	0.720
2020/01/31 11:19:50.3	300.240	-0.500	0.230	0.710
2020/01/31 11:19:50.4	300.220	-0.530	0.210	0.690
2020/01/31 11:19:50.5	300.200	-0.550	0.180	0.680
2020/01/31 11:19:50.6	300.180	-0.580	0.150	0.670
2020/01/31 11:19:50.7	300.160	-0.600	0.120	0.650
2020/01/31 11:19:50.8	300.140	-0.620	0.080	0.640
2020/01/31 11:19:50.9	300.120	-0.640	0.040	0.620
2020/01/31 11:19:51.0	300.100	-0.650	0.000	0.610
2020/01/31 11:19:51.1	300.080	-0.660	-0.040	0.590
2020/01/31 11:19:51.2	300.060	-0.670	-0.080	0.570
2020/01/31 11:19:51.3	300.040	-0.680	-0.120	0.560
2020/01/31 11:19:51.4	300.020	-0.690	-0.160	0.540
2020/01/31 11:19:51.5	300.000	-0.690	-0.210	0.520
2020/01/31 11:19:51.6	299.980	-0.690	-0.250	0.510
2020/01/31 11:19:51.7	299.960	-0.690	-0.290	0.490
2020/01/31 11:19:51.8	299.940	-0.690	-0.340	0.480
2020/01/31 11:19:51.9	299.920	-0.680	-0.380	0.470
2020/01/31 11:19:52.0	299.900	-0.670	-0.420	0.460
2020/01/31 11:19:52.1	299.880	-0.660	-0.460	0.450
2020/01/31 11:19:52.2	299.860	-0.650	-0.500	0.440
2020/01/31 11:19:52.3	299.840	-0.630	-0.530	0.440
2020/01/31 11:19:52.4	299.830	-0.620	-0.570	0.440
2020/01/31 11:19:52.5	299.790	-0.600	-0.600	0.440
2020/01/31 11:19:52.6	299.770	-0.580	-0.630	0.440
2020/01/31 11:19:52.7	299.750	-0.560	-0.650	0.440
2020/01/31 11:19:52.8	299.730	-0.540	-0.680	0.450
2020/01/31 11:19:52.9	299.710	-0.520	-0.700	0.460
2020/01/31 11:19:53.0	299.690	-0.500	-0.710	0.480
2020/01/31 11:19:53.1	299.660	-0.480	-0.730	0.490
2020/01/31 11:19:53.2	299.640	-0.460	-0.740	0.510
2020/01/31 11:19:53.3	299.620	-0.430	-0.740	0.530
2020/01/31 11:19:53.4	299.600	-0.410	-0.750	0.550
2020/01/31 11:19:53.5	299.570	-0.390	-0.750	0.580
2020/01/31 11:19:53.6	299.550	-0.370	-0.750	0.600
2020/01/31 11:19:53.7	299.530	-0.340	-0.740	0.620
2020/01/31 11:19:53.8	299.510	-0.320	-0.740	0.650
2020/01/31 11:19:53.9	299.490	-0.300	-0.730	0.670
2020/01/31 11:19:54.0	299.470	-0.280	-0.720	0.690
2020/01/31 11:19:54.1	299.460	-0.260	-0.700	0.720
2020/01/31 11:19:54.2	299.440	-0.240	-0.690	0.740
2020/01/31 11:19:54.3	299.430	-0.220	-0.680	0.760
2020/01/31 11:19:54.4	299.410	-0.200	-0.660	0.780
2020/01/31 11:19:54.5	299.430	-0.190	-0.640	0.800
2020/01/31 11:19:54.6	299.420	-0.170	-0.620	0.820
2020/01/31 11:19:54.7	299.410	-0.150	-0.600	0.840
2020/01/31 11:19:54.8	299.410	-0.140	-0.580	0.860
2020/01/31 11:19:54.9	299.410	-0.120	-0.560	0.870
2020/01/31 11:19:55.0	299.410	-0.100	-0.540	0.890
2020/01/31 11:19:55.1	299.410	-0.090	-0.520	0.900
2020/01/31 11:19:55.2	299.410	-0.070	-0.500	0.910
2020/01/31 11:19:55.3	299.420	-0.060	-0.470	0.930
2020/01/31 11:19:55.4	299.430	-0.040	-0.450	0.940
2020/01/31 11:19:55.5	299.440	-0.030	-0.420	0.950
2020/01/31 11:19:55.6	299.450	-0.010	-0.400	0.960
2020/01/31 11:19:55.7	299.460	0.000	-0.370	0.970
2020/01/31 11:19:55.8	299.480	0.020	-0.350	0.990
2020/01/31 11:19:55.9	299.490	0.030	-0.320	1.000
2020/01/31 11:19:56.0	299.510	0.050	-0.290	1.010
2020/01/31 11:19:56.1	299.530	0.060	-0.260	1.020
2020/01/31 11:19:56.2	299.550	0.080	-0.240	1.030
2020/01/31 11:19:56.3	299.570	0.090	-0.210	1.040
2020/01/31 11:19:56.4	299.590	0.110	-0.180	1.050
2020/01/31 11:19:56.5	299.590	0.130	-0.150	1.060
2020/01/31 11:19:56.6	299.620	0.140	-0.120	1.070
2020/01/31 11:19:56.7	299.640	0.160	-0.090	1.080
2020/01/31 11:19:56.8	299.670	0.170	-0.060	1.090
2020/01/31 11:19:56.9	299.690	0.180	-0.040	1.100
2020/01/31 11:19:57.0	299.720	0.200	-0.010	1.110
2020/01/31 11:19:57.1	299.750	0.210	0.020	1.120
2020/01/31 11:19:57.2	299.770	0.230	0.040	1.130
2020/01/31 11:19:57.3	299.790	0.240	0.070	1.140
2020/01/31 11:19:57.4	299.820	0.250	0.090	1.140
2020/01/31 11:19:57.5	299.830	0.260	0.120	1.150
2020/01/31 11:19:57.6	299.860	0.270	0.140	1.160
2020/01/31 11:19:57.7	299.880	0.280	0.160	1.170
2020/01/31 11:19:57.8	299.900	0.290	0.180	1.170
2020/01/31 11:19:57.9	299.920	0.300	0.190	1.180
2020/01/31 11:19:58.0	299.930	0.310	0.210	1.190
2020/01/31 11:19:58.1	299.950	0.320	0.230	1.200
2020/01/31 11:19:58.2	299.970	0.330	0.240	1.210
2020/01/31 11:19:58.3	299.980	0.330	0.250	1.210
2020/01/31 11:19:58.4	299.990	0.340	0.260	1.220
2020/01/31 11:19:58.5	300.000	0.350	0.260	1.230
2020/01/31 11:19:58.6	300.010	0.350	0.260	1.230
2020/01/31 11:19:58.7	300.020	0.350	0.270	1.240
2020/01/31 11:19:58.8	300.030	0.360	0.270	1.240
2020/01/31 11:19:58.9	300.040	0.360	0.260	1.240
2020/01/31 11:19:59.0	300.050	0.360	0.260	1.240
2020/01/31 11:19:59.1	300.060	0.360	0.250	1.240
2020/01/31 11:19:59.2	300.070	0.360	0.240	1.240
2020/01/31 11:19:59.3	300.070	0.360	0.220	1.230
2020/01/31 11:19:59.4	300.080	0.360	0.210	1.220
2020/01/31 11:19:59.5	300.090	0.360	0.190	1.210
2020/01/31 11:19:59.6	300.100	0.360	0.170	1.190
2020/01/31 11:19:59.7	300.100	0.360	0.150	1.180
2020/01/31 11:19:59.8	300.100	0.360	0.120	1.160
2020/01/31 11:19:59.9	300.110	0.350	0.100	1.140
2020/01/31 11:20:00.0	300.120	0.350	0.070	1.110
2020/01/31 11:20:00.1	300.120	0.340	0.040	1.080
2020/01/31 11:20:00.2	300.120	0.340	0.010	1.050
2020/01/31 11:20:00.3	300.130	0.340	-0.020	1.020
2020/01/31 11:20:00.4	300.130	0.330	-0.050	0.980
2020/01/31 11:20:00.5	300.130	0.330	-0.090	0.950
2020/01/31 11:20:00.6	300.140	0.320	-0.120	0.910
2020/01/31 11:20:00.7	300.140	0.320	-0.150	0.870
2020/01/31 11:20:00.8	300.140	0.310	-0.190	0.830
2020/01/31 11:20:00.9	300.150	0.300	-0.220	0.780
2020/01/31 11:20:01.0	300.150	0.300	-0.250	0.740
2020/01/31 11:20:01.1	300.150	0.290	-0.290	0.700
2020/01/31 11:20:01.2	300.160	0.290	-0.320	0.650
2020/01/31 11:20:01.3	300.160	0.280	-0.350	0.600
2020/01/31 11:20:01.4	300.160	0.280	-0.380	0.560
2020/01/31 11:20:01.5	300.150	0.270	-0.410	0.510
2020/01/31 11:20:01.6	300.150	0.260	-0.440	0.470
2020/01/31 11:20:01.7	300.150	0.260	-0.460	0.420
2020/01/31 11:20:01.8	300.150	0.250	-0.490	0.380
2020/01/31 11:20:01.9	300.150	0.240	-0.510	0.330
2020/01/31 11:20:02.0	300.150	0.240	-0.530	0.290
2020/01/31 11:20:02.1	300.150	0.230	-0.550	0.250
2020/01/31 11:20:02.2	300.150	0.220	-0.570	0.210
2020/01/31 11:20:02.3	300.150	0.210	-0.590	0.180
2020/01/31 11:20:02.4	300.140	0.200	-0.610	0.140
2020/01/31 11:20:02.5	300.140	0.190	-0.620	0.110
2020/01/31 11:20:02.6	300.130	0.180	-0.630	0.080
2020/01/31 11:20:02.7	300.130	0.170	-0.650	0.050
2020/01/31 11:20:02.8	300.120	0.160	-0.660	0.030
2020/01/31 11:20:02.9	300.120	0.150	-0.670	0.000
2020/01/31 11:20:03.0	300.110	0.140	-0.670	-0.020
2020/01/31 11:20:03.1	300.100	0.120	-0.680	-0.030
2020/01/31 11:20:03.2	300.090	0.110	-0.680	-0.050
2020/01/31 11:20:03.3	300.080	0.090	-0.690	-0.060
2020/01/31 11:20:03.4	300.070	0.080	-0.690	-0.070
2020/01/31 11:20:03.5	300.070	0.060	-0.690	-0.070
2020/01/31 11:20:03.6	300.060	0.050	-0.690	-0.070
2020/01/31 11:20:03.7	300.050	0.030	-0.680	-0.070
2020/01/31 11:20:03.8	300.040	0.010	-0.680	-0.070
2020/01/31 11:20:03.9	300.020	-0.010	-0.670	-0.060
2020/01/31 11:20:04.0	300.000	-0.030	-0.670	-0.040
2020/01/31 11:20:04.1	299.990	-0.050	-0.660	-0.030
2020/01/31 11:20:04.2	299.970	-0.070	-0.650	-0.010
2020/01/31 11:20:04.3	299.950	-0.090	-0.640	0.010
2020/01/31 11:20:04.4	299.930	-0.110	-0.620	0.030
2020/01/31 11:20:04.5	299.930	-0.130	-0.610	0.060
2020/01/31 11:20:04.6	299.910	-0.150	-0.600	0.090
2020/01/31 11:20:04.7	299.880	-0.170	-0.580	0.120
2020/01/31 11:20:04.8	299.860	-0.200	-0.570	0.150
2020/01/31 11:20:04.9	299.840	-0.220	-0.550	0.180
2020/01/31 11:20:05.0	299.820	-0.240	-0.530	0.220
2020/01/31 11:20:05.1	299.790	-0.260	-0.510	0.260
2020/01/31 11:20:05.2	299.770	-0.280	-0.500	0.300
2020/01/31 11:20:05.3	299.740	-0.300	-0.480	0.340
2020/01/31 11:20:05.4	299.720	-0.320	-0.460	0.380
2020/01/31 11:20:05.5	299.690	-0.340	-0.440	0.420
2020/01/31 11:20:05.6	299.670	-0.350	-0.420	0.460
2020/01/31 11:20:05.7	299.640	-0.370	-0.400	0.500
2020/01/31 11:20:05.8	299.620	-0.390	-0.390	0.550
2020/01/31 11:20:05.9	299.590	-0.400	-0.370	0.590
2020/01/31 11:20:06.0	299.570	-0.410	-0.350	0.630
2020/01/31 11:20:06.1	299.540	-0.430	-0.330	0.680
2020/01/31 11:20:06.2	299.520	-0.440	-0.310	0.720
2020/01/31 11:20:06.3	299.490	-0.450	-0.290	0.770
2020/01/31 11:20:06.4	299.470	-0.460	-0.270	0.810
2020/01/31 11:20:06.5	299.460	-0.460	-0.250	0.850
2020/01/31 11:20:06.6	299.430	-0.470	-0.230	0.900
2020/01/31 11:20:06.7	299.410	-0.480	-0.210	0.940
2020/01/31 11:20:06.8	299.390	-0.480	-0.190	0.980
2020/01/31 11:20:06.9	299.370	-0.480	-0.170	1.010
2020/01/31 11:20:07.0	299.360	-0.480	-0.150	1.050
2020/01/31 11:20:07.1	299.340	-0.480	-0.130	1.090
2020/01/31 11:20:07.2	299.320	-0.480	-0.120	1.120
2020/01/31 11:20:07.3	299.310	-0.480	-0.100	1.150
2020/01/31 11:20:07.4	299.300	-0.480	-0.080	1.180
2020/01/31 11:20:07.5	299.300	-0.470	-0.060	1.210
2020/01/31 11:20:07.6	299.290	-0.470	-0.040	1.230
2020/01/31 11:20:07.7	299.280	-0.460	-0.020	1.250
2020/01/31 11:20:07.8	299.280	-0.450	-0.000	1.270
2020/01/31 11:20:07.9	299.270	-0.450	0.010	1.290
2020/01/31 11:20:08.0	299.270	-0.440	0.030	1.300
2020/01/31 11:20:08.1	299.280	-0.430	0.040	1.310
2020/01/31 11:20:08.2	299.280	-0.420	0.060	1.320
2020/01/31 11:20:08.3	299.290	-0.410	0.070	1.320
2020/01/31 11:20:08.4	299.300	-0.400	0.080	1.330
2020/01/31 11:20:08.5	299.310	-0.390	0.100	1.330
2020/01/31 11:20:08.6	299.330	-0.380	0.110	1.320
2020/01/31 11:20:08.7	299.340	-0.360	0.110	1.320
2020/01/31 11:20:08.8	299.360	-0.350	0.120	1.310
2020/01/31 11:20:08.9	299.380	-0.340	0.130	1.300
2020/01/31 11:20:09.0	299.400	-0.320	0.130	1.290
2020/01/31 11:20:09.1	299.420	-0.300	0.140	1.270
2020/01/31 11:20:09.2	299.440	-0.290	0.140	1.260
2020/01/31 11:20:09.3	299.470	-0.270	0.140	1.240
2020/01/31 11:20:09.4	299.490	-0.250	0.140	1.230
2020/01/31 11:20:09.5	299.520	-0.230	0.140	1.210
2020/01/31 11:20:09.6	299.550	-0.210	0.140	1.190
2020/01/31 11:20:09.7	299.580	-0.190	0.130	1.170
2020/01/31 11:20:09.8	299.600	-0.170	0.130	1.150
2020/01/31 11:20:09.9	299.630	-0.140	0.120	1.130
2020/01/31 11:20:10.0	299.660	-0.120	0.110	1.110
2020/01/31 11:20:10.1	299.690	-0.100	0.100	1.090
2020/01/31 11:20:10.2	299.720	-0.070	0.090	1.070
2020/01/31 11:20:10.3	299.740	-0.040	0.080	1.050
2020/01/31 11:20:10.4	299.770	-0.020	0.070	1.020
2020/01/31 11:20:10.5	299.780	0.010	0.060	1.000
2020/01/31 11:20:10.6	299.800	0.040	0.040	0.980
2020/01/31 11:20:10.7	299.820	0.060	0.030	0.960
2020/01/31 11:20:10.8	299.850	0.090	0.020	0.940
2020/01/31 11:20:10.9	299.870	0.120	0.000	0.920
2020/01/31 11:20:11.0	299.890	0.150	-0.010	0.900
2020/01/31 11:20:11.1	299.910	0.170	-0.030	0.880
2020/01/31 11:20:11.2	299.920	0.200	-0.040	0.860
2020/01/31 11:20:11.3	299.940	0.230	-0.060	0.840
2020/01/31 11:20:11.4	299.960	0.250	-0.070	0.820
2020/01/31 11:20:11.5	299.960	0.280	-0.090	0.800
2020/01/31 11:20:11.6	299.980	0.300	-0.100	0.780
2020/01/31 11:20:11.7	299.990	0.330	-0.120	0.760
2020/01/31 11:20:11.8	300.000	0.350	-0.140	0.740
2020/01/31 11:20:11.9	300.020	0.370	-0.160	0.720
2020/01/31 11:20:12.0	300.030	0.390	-0.180	0.700
2020/01/31 11:20:12.1	300.040	0.420	-0.200	0.680
2020/01/31 11:20:12.2	300.060	0.430	-0.220	0.660
2020/01/31 11:20:12.3	300.070	0.450	-0.240	0.640
2020/01/31 11:20:12.4	300.080	0.470	-0.260	0.620
2020/01/31 11:20:12.5	300.090	0.480	-0.290	0.610
2020/01/31 11:20:12.6	300.100	0.500	-0.310	0.590
2020/01/31 11:20:12.7	300.120	0.510	-0.330	0.570
2020/01/31 11:20:12.8	300.120	0.520	-0.350	0.560
2020/01/31 11:20:12.9	300.130	0.530	-0.380	0.550
2020/01/31 11:20:13.0	300.140	0.540	-0.400	0.530
2020/01/31 11:20:13.1	300.150	0.550	-0.420	0.520
2020/01/31 11:20:13.2	300.160	0.550	-0.440	0.510
2020/01/31 11:20:13.3	300.160	0.560	-0.460	0.500
2020/01/31 11:20:13.4	300.170	0.560	-0.480	0.500
2020/01/31 11:20:13.5	300.160	0.560	-0.500	0.490
2020/01/31 11:20:13.6	300.160	0.560	-0.510	0.490
2020/01/31 11:20:13.7	300.160	0.550	-0.530	0.490
2020/01/31 11:20:13.8	300.160	0.550	-0.540	0.490
2020/01/31 11:20:13.9	300.160	0.540	-0.550	0.490
2020/01/31 11:20:14.0	300.160	0.530	-0.560	0.490
2020/01/31 11:20:14.1	300.160	0.520	-0.570	0.490
2020/01/31 11:20:14.2	300.160	0.510	-0.570	0.500
2020/01/31 11:20:14.3	300.150	0.500	-0.570	0.500
2020/01/31 11:20:14.4	300.150	0.480	-0.570	0.510
2020/01/31 11:20:14.5	300.130	0.470	-0.570	0.520
2020/01/31 11:20:14.6	300.120	0.450	-0.570	0.530
2020/01/31 11:20:14.7	300.120	0.430	-0.560	0.540
2020/01/31 11:20:14.8	300.110	0.410	-0.560	0.550
2020/01/31 11:20:14.9	300.100	0.390	-0.550	0.560
2020/01/31 11:20:15.0	300.090	0.370	-0.540	0.570
2020/01/31 11:20:15.1	300.080	0.350	-0.530	0.580
2020/01/31 11:20:15.2	300.070	0.320	-0.520	0.600
2020/01/31 11:20:15.3	300.050	0.300	-0.500	0.610
2020/01/31 11:20:15.4	300.040	0.280	-0.490	0.630
2020/01/31 11:20:15.5	300.040	0.250	-0.480	0.640
2020/01/31 11:20:15.6	300.020	0.230	-0.470	0.660
2020/01/31 11:20:15.7	300.010	0.210	-0.450	0.680
2020/01/31 11:20:15.8	300.000	0.180	-0.440	0.700
2020/01/31 11:20:15.9	299.980	0.160	-0.430	0.720
2020/01/31 11:20:16.0	299.970	0.140	-0.420	0.740
2020/01/31 11:20:16.1	299.960	0.110	-0.410	0.760
2020/01/31 11:20:16.2	299.940	0.090	-0.400	0.780
2020/01/31 11:20:16.3	299.930	0.070	-0.390	0.800
2020/01/31 11:20:16.4	299.920	0.050	-0.390	0.820
2020/01/31 11:20:16.5	299.900	0.030	-0.380	0.840
2020/01/31 11:20:16.6	299.890	0.010	-0.380	0.860
2020/01/31 11:20:16.7	299.870	-0.010	-0.370	0.870
2020/01/31 11:20:16.8	299.860	-0.030	-0.370	0.890
2020/01/31 11:20:16.9	299.840	-0.050	-0.360	0.910
2020/01/31 11:20:17.0	299.830	-0.060	-0.360	0.930
2020/01/31 11:20:17.1	299.810	-0.080	-0.360	0.950
2020/01/31 11:20:17.2	299.790	-0.100	-0.350	0.970
2020/01/31 11:20:17.3	299.770	-0.110	-0.350	0.990
2020/01/31 11:20:17.4	299.760	-0.130	-0.340	1.010
2020/01/31 11:20:17.5	299.740	-0.140	-0.340	1.030
2020/01/31 11:20:17.6	299.720	-0.160	-0.330	1.050
2020/01/31 11:20:17.7	299.700	-0.170	-0.320	1.070
2020/01/31 11:20:17.8	299.680	-0.190	-0.320	1.090
2020/01/31 11:20:17.9	299.650	-0.200	-0.310	1.110
2020/01/31 11:20:18.0	299.630	-0.210	-0.300	1.130
2020/01/31 11:20:18.1	299.610	-0.230	-0.280	1.150
2020/01/31 11:20:18.2	299.580	-0.240	-0.270	1.170
2020/01/31 11:20:18.3	299.560	-0.250	-0.260	1.190
2020/01/31 11:20:18.4	299.540	-0.260	-0.240	1.210
2020/01/31 11:20:18.5	299.530	-0.280	-0.220	1.220
2020/01/31 11:20:18.6	299.500	-0.290	-0.200	1.240
2020/01/31 11:20:18.7	299.480	-0.300	-0.190	1.260
2020/01/31 11:20:18.8	299.460	-0.310	-0.170	1.270
2020/01/31 11:20:18.9	299.440	-0.330	-0.150	1.280
2020/01/31 11:20:19.0	299.420	-0.340	-0.130	1.290
2020/01/31 11:20:19.1	299.400	-0.350	-0.110	1.300
2020/01/31 11:20:19.2	299.380	-0.360	-0.100	1.300
2020/01/31 11:20:19.3	299.360	-0.370	-0.080	1.300
2020/01/31 11:20:19.4	299.350	-0.380	-0.060	1.300
2020/01/31 11:20:19.5	299.330	-0.390	-0.050	1.300
2020/01/31 11:20:19.6	299.320	-0.400	-0.030	1.290
2020/01/31 11:20:19.7	299.310	-0.410	-0.020	1.280
2020/01/31 11:20:19.8	299.310	-0.420	-0.010	1.260
2020/01/31 11:20:19.9	299.300	-0.420	0.000	1.250
2020/01/31 11:20:20.0	299.300	-0.430	0.010	1.220
2020/01/31 11:20:20.1	299.300	-0.430	0.020	1.200
2020/01/31 11:20:20.2	299.300	-0.440	0.020	1.170
2020/01/31 11:20:20.3	299.310	-0.440	0.030	1.140
2020/01/31 11:20:20.4	299.310	-0.440	0.030	1.110
2020/01/31 11:20:20.5	299.340	-0.440	0.030	1.070
2020/01/31 11:20:20.6	299.350	-0.440	0.020	1.040
2020/01/31 11:20:20.7	299.370	-0.440	0.020	0.990
2020/01/31 11:20:20.8	299.380	-0.440	0.010	0.950
2020/01/31 11:20:20.9	299.400	-0.430	0.000	0.910
2020/01/31 11:20:21.0	299.420	-0.430	-0.010	0.860
2020/01/31 11:20:21.1	299.450	-0.420	-0.020	0.810
2020/01/31 11:20:21.2	299.470	-0.410	-0.030	0.760
2020/01/31 11:20:21.3	299.500	-0.400	-0.050	0.710
2020/01/31 11:20:21.4	299.530	-0.380	-0.070	0.660
2020/01/31 11:20:21.5	299.570	-0.370	-0.080	0.610
2020/01/31 11:20:21.6	299.600	-0.350	-0.100	0.550
2020/01/31 11:20:21.7	299.630	-0.340	-0.120	0.500
2020/01/31 11:20:21.8	299.670	-0.320	-0.140	0.440
2020/01/31 11:20:21.9	299.710	-0.300	-0.160	0.390
2020/01/31 11:20:22.0	299.750	-0.280	-0.190	0.340
2020/01/31 11:20:22.1	299.790	-0.260	-0.210	0.290
2020/01/31 11:20:22.2	299.830	-0.230	-0.230	0.230
2020/01/31 11:20:22.3	299.870	-0.210	-0.250	0.190
2020/01/31 11:20:22.4	299.910	-0.190	-0.270	0.140
2020/01/31 11:20:22.5	299.960	-0.160	-0.300	0.090
2020/01/31 11:20:22.6	300.000	-0.140	-0.310	0.050
2020/01/31 11:20:22.7	300.040	-0.110	-0.330	0.010
2020/01/31 11:20:22.8	300.090	-0.090	-0.350	-0.020
2020/01/31 11:20:22.9	300.130	-0.060	-0.360	-0.060
2020/01/31 11:20:23.0	300.170	-0.040	-0.380	-0.090
2020/01/31 11:20:23.1	300.210	-0.010	-0.390	-0.110
2020/01/31 11:20:23.2	300.250	0.010	-0.400	-0.130
2020/01/31 11:20:23.3	300.290	0.040	-0.400	-0.150
2020/01/31 11:20:23.4	300.330	0.060	-0.410	-0.160
2020/01/31 11:20:23.5	300.360	0.080	-0.400	-0.170
2020/01/31 11:20:23.6	300.400	0.100	-0.400	-0.170
2020/01/31 11:20:23.7	300.430	0.120	-0.400	-0.170
2020/01/31 11:20:23.8	300.460	0.140	-0.400	-0.160
2020/01/31 11:20:23.9	300.480	0.160	-0.390	-0.150
2020/01/31 11:20:24.0	300.510	0.170	-0.380	-0.130
2020/01/31 11:20:24.1	300.530	0.190	-0.370	-0.110
2020/01/31 11:20:24.2	300.540	0.200	-0.350	-0.080
2020/01/31 11:20:24.3	300.560	0.210	-0.340	-0.050
2020/01/31 11:20:24.4	300.570	0.230	-0.320	-0.010
2020/01/31 11:20:24.5	300.580	0.230	-0.310	0.030
2020/01/31 11:20:24.6	300.580	0.240	-0.290	0.070
2020/01/31 11:20:24.7	300.580	0.250	-0.270	0.110
2020/01/31 11:20:24.8	300.580	0.260	-0.250	0.160
2020/01/31 11:20:24.9	300.580	0.260	-0.230	0.210
2020/01/31 11:20:25.0	300.580	0.260	-0.210	0.270
2020/01/31 11:20:25.1	300.570	0.270	-0.190	0.320
2020/01/31 11:20:25.2	300.560	0.270	-0.170	0.380
2020/01/31 11:20:25.3	300.550	0.270	-0.150	0.430
2020/01/31 11:20:25.4	300.530	0.270	-0.130	0.490
2020/01/31 11:20:25.5	300.520	0.270	-0.110	0.550
2020/01/31 11:20:25.6	300.500	0.270	-0.100	0.610
2020/01/31 11:20:25.7	300.480	0.270	-0.080	0.660
2020/01/31 11:20:25.8	300.460	0.270	-0.070	0.720
2020/01/31 11:20:25.9	300.440	0.270	-0.060	0.770
2020/01/31 11:20:26.0	300.420	0.270	-0.050	0.830
2020/01/31 11:20:26.1	300.400	0.260	-0.040	0.880
2020/01/31 11:20:26.2	300.380	0.260	-0.040	0.930
2020/01/31 11:20:26.3	300.350	0.260	-0.040	0.980
2020/01/31 11:20:26.4	300.330	0.260	-0.030	1.030
2020/01/31 11:20:26.5	300.290	0.260	-0.040	1.080
2020/01/31 11:20:26.6	300.260	0.260	-0.040	1.120
2020/01/31 11:20:26.7	300.240	0.260	-0.040	1.160
2020/01/31 11:20:26.8	300.210	0.250	-0.050	1.200
2020/01/31 11:20:26.9	300.190	0.250	-0.060	1.230
2020/01/31 11:20:27.0	300.170	0.250	-0.070	1.270
2020/01/31 11:20:27.1	300.140	0.250	-0.080	1.290
2020/01/31 11:20:27.2	300.120	0.250	-0.100	1.320
2020/01/31 11:20:27.3	300.100	0.250	-0.110	1.340
2020/01/31 11:20:27.4	300.090	0.250	-0.130	1.350
2020/01/31 11:20:27.5	300.080	0.250	-0.150	1.360
2020/01/31 11:20:27.6	300.070	0.250	-0.170	1.370
2020/01/31 11:20:27.7	300.050	0.240	-0.200	1.370
2020/01/31 11:20:27.8	300.040	0.240	-0.220	1.360
2020/01/31 11:20:27.9	300.030	0.240	-0.250	1.350
2020/01/31 11:20:28.0	300.020	0.240	-0.280	1.340
2020/01/31 11:20:28.1	300.020	0.230	-0.300	1.320
2020/01/31 11:20:28.2	300.010	0.230	-0.330	1.300
2020/01/31 11:20:28.3	300.010	0.220	-0.360	1.280
2020/01/31 11:20:28.4	300.010	0.220	-0.390	1.250
2020/01/31 11:20:28.5	300.020	0.210	-0.410	1.220
2020/01/31 11:20:28.6	300.020	0.200	-0.440	1.190
2020/01/31 11:20:28.7	300.020	0.200	-0.470	1.150
2020/01/31 11:20:28.8	300.030	0.190	-0.490	1.110
2020/01/31 11:20:28.9	300.030	0.180	-0.520	1.080
2020/01/31 11:20:29.0	300.040	0.170	-0.540	1.040
2020/01/31 11:20:29.1	300.050	0.160	-0.560	1.000
2020/01/31 11:20:29.2	300.060	0.140	-0.580	0.960
2020/01/31 11:20:29.3	300.070	0.130	-0.590	0.910
2020/01/31 11:20:29.4	300.080	0.120	-0.610	0.870
2020/01/31 11:20:29.5	300.090	0.100	-0.620	0.830
2020/01/31 11:20:29.6	300.100	0.090	-0.630	0.790
2020/01/31 11:20:29.7	300.120	0.070	-0.640	0.750
2020/01/31 11:20:29.8	300.130	0.060	-0.640	0.710
2020/01/31 11:20:29.9	300.140	0.040	-0.640	0.670
2020/01/31 11:20:30.0	300.160	0.020	-0.630	0.630
2020/01/31 11:20:30.1	300.170	0.010	-0.630	0.590
2020/01/31 11:20:30.2	300.180	-0.010	-0.620	0.560
2020/01/31 11:20:30.3	300.200	-0.030	-0.600	0.520
2020/01/31 11:20:30.4	300.210	-0.050	-0.590	0.490
2020/01/31 11:20:30.5	300.220	-0.070	-0.570	0.460
2020/01/31 11:20:30.6	300.230	-0.080	-0.550	0.430
2020/01/31 11:20:30.7	300.240	-0.100	-0.530	0.410
2020/01/31 11:20:30.8	300.250	-0.120	-0.500	0.390
2020/01/31 11:20:30.9	300.270	-0.140	-0.480	0.360
2020/01/31 11:20:31.0	300.280	-0.150	-0.460	0.350
2020/01/31 11:20:31.1	300.290	-0.170	-0.430	0.330
2020/01/31 11:20:31.2	300.300	-0.180	-0.400	0.320
2020/01/31 11:20:31.3	300.310	-0.200	-0.370	0.310
2020/01/31 11:20:31.4	300.320	-0.210	-0.350	0.300
2020/01/31 11:20:31.5	300.320	-0.220	-0.320	0.290
2020/01/31 11:20:31.6	300.330	-0.240	-0.290	0.290
2020/01/31 11:20:31.7	300.340	-0.250	-0.270	0.280
2020/01/31 11:20:31.8	300.350	-0.260	-0.240	0.280
2020/01/31 11:20:31.9	300.360	-0.260	-0.220	0.280
2020/01/31 11:20:32.0	300.370	-0.270	-0.190	0.290
2020/01/31 11:20:32.1	300.380	-0.280	-0.170	0.290
2020/01/31 11:20:32.2	300.390	-0.280	-0.150	0.300
2020/01/31 11:20:32.3	300.400	-0.280	-0.130	0.300
2020/01/31 11:20:32.4	300.410	-0.280	-0.110	0.310
2020/01/31 11:20:32.5	300.440	-0.280	-0.090	0.320
2020/01/31 11:20:32.6	300.450	-0.280	-0.080	0.330
2020/01/31 11:20:32.7	300.460	-0.280	-0.060	0.340
2020/01/31 11:20:32.8	300.470	-0.270	-0.050	0.350
2020/01/31 11:20:32.9	300.470	-0.260	-0.040	0.360
2020/01/31 11:20:33.0	300.480	-0.260	-0.030	0.380
2020/01/31 11:20:33.1	300.490	-0.250	-0.020	0.390
2020/01/31 11:20:33.2	300.490	-0.230	-0.010	0.400
2020/01/31 11:20:33.3	300.500	-0.220	-0.010	0.410
2020/01/31 11:20:33.4	300.510	-0.210	-0.000	0.420
2020/01/31 11:20:33.5	300.510	-0.190	0.000	0.440
2020/01/31 11:20:33.6	300.520	-0.180	0.010	0.450
2020/01/31 11:20:33.7	300.520	-0.160	0.010	0.460
2020/01/31 11:20:33.8	300.530	-0.140	0.010	0.470
2020/01/31 11:20:33.9	300.530	-0.130	0.010	0.480
2020/01/31 11:20:34.0	300.530	-0.110	0.010	0.490
2020/01/31 11:20:34.1	300.540	-0.090	0.010	0.500
2020/01/31 11:20:34.2	300.540	-0.070	0.010	0.510
2020/01/31 11:20:34.3	300.550	-0.050	0.000	0.520
2020/01/31 11:20:34.4	300.550	-0.030	0.000	0.530
2020/01/31 11:20:34.5	300.550	-0.010	0.000	0.530
2020/01/31 11:20:34.6	300.560	0.010	-0.000	0.540
2020/01/31 11:20:34.7	300.560	0.030	-0.010	0.550
2020/01/31 11:20:34.8	300.570	0.050	-0.010	0.560
2020/01/31 11:20:34.9	300.570	0.070	-0.010	0.570
2020/01/31 11:20:35.0	300.570	0.090	-0.020	0.580
2020/01/31 11:20:35.1	300.580	0.100	-0.020	0.590
2020/01/31 11:20:35.2	300.580	0.120	-0.030	0.600
2020/01/31 11:20:35.3	300.590	0.130	-0.030	0.610
2020/01/31 11:20:35.4	300.590	0.150	-0.040	0.620
2020/01/31 11:20:35.5	300.590	0.160	-0.040	0.630
2020/01/31 11:20:35.6	300.600	0.170	-0.050	0.640
2020/01/31 11:20:35.7	300.600	0.180	-0.050	0.650
2020/01/31 11:20:35.8	300.600	0.190	-0.060	0.660
2020/01/31 11:20:35.9	300.610	0.190	-0.060	0.670
2020/01/31 11:20:36.0	300.610	0.200	-0.070	0.680
2020/01/31 11:20:36.1	300.610	0.200	-0.070	0.690
2020/01/31 11:20:36.2	300.620	0.200	-0.080	0.700
2020/01/31 11:20:36.3	300.620	0.200	-0.090	0.710
2020/01/31 11:20:36.4	300.620	0.200	-0.090	0.710
2020/01/31 11:20:36.5	300.610	0.190	-0.100	0.720
2020/01/31 11:20:36.6	300.610	0.190	-0.110	0.730
2020/01/31 11:20:36.7	300.610	0.180	-0.120	0.730
2020/01/31 11:20:36.8	300.610	0.170	-0.130	0.740
2020/01/31 11:20:36.9	300.610	0.160	-0.140	0.740
2020/01/31 11:20:37.0	300.610	0.150	-0.150	0.750
2020/01/31 11:20:37.1	300.610	0.140	-0.160	0.750
2020/01/31 11:20:37.2	300.610	0.120	-0.170	0.760
2020/01/31 11:20:37.3	300.610	0.110	-0.180	0.760
2020/01/31 11:20:37.4	300.610	0.090	-0.190	0.760
2020/01/31 11:20:37.5	300.600	0.080	-0.210	0.760
2020/01/31 11:20:37.6	300.600	0.060	-0.220	0.760
2020/01/31 11:20:37.7	300.600	0.040	-0.240	0.760
2020/01/31 11:20:37.8	300.590	0.020	-0.250	0.760
2020/01/31 11:20:37.9	300.590	0.000	-0.270	0.750
2020/01/31 11:20:38.0	300.590	-0.020	-0.280	0.750
2020/01/31 11:20:38.1	300.580	-0.030	-0.300	0.740
2020/01/31 11:20:38.2	300.580	-0.050	-0.320	0.730
2020/01/31 11:20:38.3	300.580	-0.070	-0.330	0.720
2020/01/31 11:20:38.4	300.570	-0.090	-0.350	0.710
2020/01/31 11:20:38.5	300.570	-0.110	-0.370	0.700
2020/01/31 11:20:38.6	300.560	-0.130	-0.380	0.690
2020/01/31 11:20:38.7	300.560	-0.150	-0.400	0.680
2020/01/31 11:20:38.8	300.560	-0.160	-0.410	0.660
2020/01/31 11:20:38.9	300.550	-0.180	-0.420	0.650
2020/01/31 11:20:39.0	300.550	-0.200	-0.440	0.640
2020/01/31 11:20:39.1	300.540	-0.210	-0.450	0.620
2020/01/31 11:20:39.2	300.540	-0.230	-0.460	0.600
2020/01/31 11:20:39.3	300.540	-0.240	-0.470	0.590
2020/01/31 11:20:39.4	300.530	-0.250	-0.480	0.570
2020/01/31 11:20:39.5	300.530	-0.260	-0.480	0.560
2020/01/31 11:20:39.6	300.530	-0.270	-0.490	0.540
2020/01/31 11:20:39.7	300.520	-0.280	-0.500	0.520
2020/01/31 11:20:39.8	300.520	-0.280	-0.500	0.510
2020/01/31 11:20:39.9	300.520	-0.280	-0.500	0.500
2020/01/31 11:20:40.0	300.520	-0.290	-0.500	0.480
2020/01/31 11:20:40.1	300.520	-0.290	-0.510	0.470
2020/01/31 11:20:40.2	300.520	-0.290	-0.510	0.460
2020/01/31 11:20:40.3	300.520	-0.280	-0.510	0.450
2020/01/31 11:20:40.4	300.520	-0.280	-0.510	0.440
2020/01/31 11:20:40.5	300.520	-0.270	-0.500	0.430
2020/01/31 11:20:40.6	300.520	-0.270	-0.500	0.420
2020/01/31 11:20:40.7	300.520	-0.260	-0.500	0.410
2020/01/31 11:20:40.8	300.520	-0.250	-0.490	0.410
2020/01/31 11:20:40.9	300.520	-0.230	-0.490	0.400
2020/01/31 11:20:41.0	300.530	-0.220	-0.480	0.400
2020/01/31 11:20:41.1	300.530	-0.200	-0.480	0.400
2020/01/31 11:20:41.2	300.530	-0.190	-0.470	0.400
2020/01/31 11:20:41.3	300.540	-0.170	-0.460	0.390
2020/01/31 11:20:41.4	300.540	-0.150	-0.450	0.390
2020/01/31 11:20:41.5	300.550	-0.130	-0.450	0.390
2020/01/31 11:20:41.6	300.560	-0.100	-0.440	0.390
2020/01/31 11:20:41.7	300.560	-0.080	-0.430	0.390
2020/01/31 11:20:41.8	300.570	-0.060	-0.420	0.390
2020/01/31 11:20:41.9	300.570	-0.030	-0.420	0.400
2020/01/31 11:20:42.0	300.580	-0.010	-0.410	0.400
2020/01/31 11:20:42.1	300.590	0.020	-0.400	0.400
2020/01/31 11:20:42.2	300.590	0.050	-0.390	0.400
2020/01/31 11:20:42.3	300.600	0.070	-0.380	0.410
2020/01/31 11:20:42.4	300.610	0.100	-0.370	0.410
2020/01/31 11:20:42.5	300.610	0.130	-0.360	0.410
2020/01/31 11:20:42.6	300.620	0.160	-0.350	0.420
2020/01/31 11:20:42.7	300.620	0.180	-0.340	0.420
2020/01/31 11:20:42.8	300.630	0.210	-0.330	0.430
2020/01/31 11:20:42.9	300.640	0.240	-0.320	0.430
2020/01/31 11:20:43.0	300.640	0.260	-0.310	0.440
2020/01/31 11:20:43.1	300.650	0.290	-0.300	0.450
2020/01/31 11:20:43.2	300.660	0.310	-0.290	0.450
2020/01/31 11:20:43.3	300.660	0.340	-0.280	0.460
2020/01/31 11:20:43.4	300.670	0.360	-0.270	0.470
2020/01/31 11:20:43.5	300.680	0.380	-0.260	0.480
2020/01/31 11:20:43.6	300.680	0.400	-0.250	0.480
2020/01/31 11:20:43.7	300.680	0.420	-0.240	0.490
2020/01/31 11:20:43.8	300.690	0.440	-0.230	0.500
2020/01/31 11:20:43.9	300.690	0.450	-0.220	0.510
2020/01/31 11:20:44.0	300.690	0.470	-0.210	0.520
2020/01/31 11:20:44.1	300.690	0.480	-0.200	0.530
2020/01/31 11:20:44.2	300.690	0.490	-0.190	0.540
2020/01/31 11:20:44.3	300.690	0.500	-0.180	0.560
2020/01/31 11:20:44.4	300.690	0.510	-0.160	0.570
2020/01/31 11:20:44.5	300.680	0.510	-0.150	0.580
2020/01/31 11:20:44.6	300.670	0.510	-0.140	0.590
2020/01/31 11:20:44.7	300.670	0.510	-0.130	0.610
2020/01/31 11:20:44.8	300.660	0.510	-0.120	0.620
2020/01/31 11:20:44.9	300.660	0.510	-0.100	0.640
2020/01/31 11:20:45.0	300.650	0.500	-0.090	0.650
2020/01/31 11:20:45.1	300.640	0.490	-0.080	0.670
2020/01/31 11:20:45.2	300.640	0.480	-0.070	0.690
2020/01/31 11:20:45.3	300.630	0.470	-0.060	0.710
2020/01/31 11:20:45.4	300.620	0.450	-0.040	0.720
2020/01/31 11:20:45.5	300.620	0.430	-0.030	0.740
2020/01/31 11:20:45.6	300.610	0.410	-0.020	0.760
2020/01/31 11:20:45.7	300.600	0.390	-0.010	0.770
2020/01/31 11:20:45.8	300.590	0.370	-0.010	0.790
2020/01/31 11:20:45.9	300.570	0.340	0.000	0.810
2020/01/31 11:20:46.0	300.560	0.310	0.010	0.820
2020/01/31 11:20:46.1	300.550	0.290	0.010	0.840
2020/01/31 11:20:46.2	300.530	0.250	0.020	0.850
2020/01/31 11:20:46.3	300.520	0.220	0.020	0.870
2020/01/31 11:20:46.4	300.510	0.190	0.020	0.880
2020/01/31 11:20:46.5	300.500	0.150	0.030	0.890
2020/01/31 11:20:46.6	300.490	0.120	0.020	0.900
2020/01/31 11:20:46.7	300.480	0.080	0.020	0.910
2020/01/31 11:20:46.8	300.470	0.040	0.020	0.910
2020/01/31 11:20:46.9	300.460	0.000	0.010	0.910
2020/01/31 11:20:47.0	300.460	-0.030	0.010	0.910
2020/01/31 11:20:47.1	300.450	-0.070	-0.000	0.910
2020/01/31 11:20:47.2	300.440	-0.110	-0.010	0.900
2020/01/31 11:20:47.3	300.440	-0.150	-0.020	0.900
2020/01/31 11:20:47.4	300.430	-0.190	-0.030	0.890
2020/01/31 11:20:47.5	300.440	-0.230	-0.050	0.870
2020/01/31 11:20:47.6	300.430	-0.270	-0.060	0.860
2020/01/31 11:20:47.7	300.430	-0.310	-0.070	0.840
2020/01/31 11:20:47.8	300.430	-0.340	-0.090	0.820
2020/01/31 11:20:47.9	300.430	-0.380	-0.100	0.800
2020/01/31 11:20:48.0	300.440	-0.410	-0.110	0.780
2020/01/31 11:20:48.1	300.440	-0.450	-0.130	0.760
2020/01/31 11:20:48.2	300.440	-0.480	-0.140	0.730
2020/01/31 11:20:48.3	300.450	-0.510	-0.150	0.700
2020/01/31 11:20:48.4	300.450	-0.530	-0.170	0.670
2020/01/31 11:20:48.5	300.460	-0.560	-0.180	0.640
2020/01/31 11:20:48.6	300.460	-0.580	-0.190	0.610
2020/01/31 11:20:48.7	300.470	-0.600	-0.200	0.580
2020/01/31 11:20:48.8	300.480	-0.620	-0.210	0.550
2020/01/31 11:20:48.9	300.480	-0.640	-0.220	0.520
2020/01/31 11:20:49.0	300.490	-0.650	-0.230	0.490
2020/01/31 11:20:49.1	300.500	-0.660	-0.240	0.460
2020/01/31 11:20:49.2	300.510	-0.670	-0.240	0.430
2020/01/31 11:20:49.3	300.520	-0.680	-0.250	0.400
2020/01/31 11:20:49.4	300.530	-0.680	-0.250	0.370
2020/01/31 11:20:49.5	300.540	-0.680	-0.250	0.340
2020/01/31 11:20:49.6	300.550	-0.680	-0.260	0.320
2020/01/31 11:20:49.7	300.560	-0.670	-0.260	0.300
2020/01/31 11:20:49.8	300.570	-0.660	-0.260	0.270
2020/01/31 11:20:49.9	300.580	-0.650	-0.260	0.250
2020/01/31 11:20:50.0	300.590	-0.640	-0.260	0.240
2020/01/31 11:20:50.1	300.600	-0.620	-0.250	0.220
2020/01/31 11:20:50.2	300.610	-0.600	-0.250	0.210
2020/01/31 11:20:50.3	300.630	-0.580	-0.250	0.200
2020/01/31 11:20:50.4	300.640	-0.560	-0.250	0.190
2020/01/31 11:20:50.5	300.640	-0.530	-0.250	0.180
2020/01/31 11:20:50.6	300.650	-0.500	-0.250	0.170
2020/01/31 11:20:50.7	300.660	-0.470	-0.250	0.170
2020/01/31 11:20:50.8	300.670	-0.440	-0.250	0.170
2020/01/31 11:20:50.9	300.680	-0.410	-0.250	0.170
2020/01/31 11:20:51.0	300.690	-0.370	-0.250	0.180
2020/01/31 11:20:51.1	300.700	-0.330	-0.250	0.180
2020/01/31 11:20:51.2	300.710	-0.290	-0.250	0.190
2020/01/31 11:20:51.3	300.710	-0.250	-0.260	0.200
2020/01/31 11:20:51.4	300.720	-0.210	-0.260	0.220
2020/01/31 11:20:51.5	300.730	-0.170	-0.270	0.240
2020/01/31 11:20:51.6	300.730	-0.130	-0.280	0.250
2020/01/31 11:20:51.7	300.740	-0.090	-0.290	0.270
2020/01/31 11:20:51.8	300.740	-0.040	-0.300	0.290
2020/01/31 11:20:51.9	300.750	0.000	-0.310	0.320
2020/01/31 11:20:52.0	300.750	0.040	-0.320	0.340
2020/01/31 11:20:52.1	300.750	0.090	-0.340	0.370
2020/01/31 11:20:52.2	300.760	0.130	-0.350	0.390
2020/01/31 11:20:52.3	300.760	0.170	-0.370	0.420
2020/01/31 11:20:52.4	300.760	0.210	-0.380	0.450
2020/01/31 11:20:52.5	300.750	0.250	-0.400	0.480
2020/01/31 11:20:52.6	300.750	0.290	-0.420	0.510
2020/01/31 11:20:52.7	300.750	0.330	-0.430	0.540
2020/01/31 11:20:52.8	300.750	0.360	-0.450	0.570
2020/01/31 11:20:52.9	300.740	0.390	-0.470	0.610
2020/01/31 11:20:53.0	300.730	0.430	-0.480	0.640
2020/01/31 11:20:53.1	300.730	0.450	-0.500	0.670
2020/01/31 11:20:53.2	300.720	0.480	-0.510	0.700
2020/01/31 11:20:53.3	300.710	0.510	-0.520	0.740
2020/01/31 11:20:53.4	300.700	0.530	-0.530	0.770
2020/01/31 11:20:53.5	300.680	0.550	-0.540	0.810
2020/01/31 11:20:53.6	300.670	0.560	-0.550	0.840
2020/01/31 11:20:53.7	300.660	0.580	-0.560	0.880
2020/01/31 11:20:53.8	300.650	0.590	-0.560	0.910
2020/01/31 11:20:53.9	300.640	0.600	-0.560	0.940
2020/01/31 11:20:54.0	300.620	0.610	-0.560	0.970
2020/01/31 11:20:54.1	300.610	0.610	-0.560	1.000
2020/01/31 11:20:54.2	300.600	0.610	-0.560	1.030
2020/01/31 11:20:54.3	300.590	0.610	-0.550	1.060
2020/01/31 11:20:54.4	300.570	0.610	-0.550	1.090
2020/01/31 11:20:54.5	300.550	0.600	-0.540	1.110
2020/01/31 11:20:54.6	300.540	0.600	-0.530	1.140
2020/01/31 11:20:54.7	300.530	0.590	-0.520	1.160
2020/01/31 11:20:54.8	300.520	0.580	-0.510	1.190
2020/01/31 11:20:54.9	300.510	0.570	-0.500	1.210
2020/01/31 11:20:55.0	300.500	0.550	-0.490	1.230
2020/01/31 11:20:55.1	300.490	0.540	-0.470	1.250
2020/01/31 11:20:55.2	300.480	0.520	-0.460	1.270
2020/01/31 11:20:55.3	300.470	0.500	-0.450	1.280
2020/01/31 11:20:55.4	300.460	0.480	-0.430	1.300
2020/01/31 11:20:55.5	300.460	0.460	-0.410	1.310
2020/01/31 11:20:55.6	300.450	0.440	-0.390	1.320
2020/01/31 11:20:55.7	300.440	0.420	-0.380	1.330
2020/01/31 11:20:55.8	300.430	0.400	-0.360	1.340
2020/01/31 11:20:55.9	300.430	0.370	-0.340	1.340
2020/01/31 11:20:56.0	300.420	0.350	-0.330	1.350
2020/01/31 11:20:56.1	300.410	0.330	-0.310	1.350
2020/01/31 11:20:56.2	300.410	0.300	-0.300	1.350
2020/01/31 11:20:56.3	300.400	0.280	-0.280	1.340
2020/01/31 11:20:56.4	300.400	0.250	-0.270	1.340
2020/01/31 11:20:56.5	300.410	0.230	-0.250	1.330
2020/01/31 11:20:56.6	300.410	0.200	-0.240	1.320
2020/01/31 11:20:56.7	300.410	0.180	-0.230	1.300
2020/01/31 11:20:56.8	300.410	0.150	-0.210	1.290
2020/01/31 11:20:56.9	300.410	0.130	-0.200	1.270
2020/01/31 11:20:57.0	300.410	0.100	-0.190	1.250
2020/01/31 11:20:57.1	300.410	0.080	-0.180	1.230
2020/01/31 11:20:57.2	300.410	0.050	-0.170	1.210
2020/01/31 11:20:57.3	300.420	0.030	-0.160	1.190
2020/01/31 11:20:57.4	300.420	0.000	-0.150	1.160
2020/01/31 11:20:57.5	300.420	-0.020	-0.150	1.140
2020/01/31 11:20:57.6	300.420	-0.050	-0.140	1.110
2020/01/31 11:20:57.7	300.430	-0.070	-0.130	1.090
2020/01/31 11:20:57.8	300.430	-0.090	-0.120	1.060
2020/01/31 11:20:57.9	300.430	-0.120	-0.120	1.030
2020/01/31 11:20:58.0	300.430	-0.140	-0.110	1.010
2020/01/31 11:20:58.1	300.430	-0.160	-0.110	0.980
2020/01/31 11:20:58.2	300.430	-0.180	-0.100	0.950
2020/01/31 11:20:58.3	300.440	-0.200	-0.100	0.920
2020/01/31 11:20:58.4	300.440	-0.220	-0.090	0.890
2020/01/31 11:20:58.5	300.440	-0.240	-0.090	0.850
2020/01/31 11:20:58.6	300.440	-0.260	-0.080	0.820
2020/01/31 11:20:58.7	300.440	-0.280	-0.080	0.780
2020/01/31 11:20:58.8	300.440	-0.300	-0.080	0.750
2020/01/31 11:20:58.9	300.450	-0.310	-0.070	0.710
2020/01/31 11:20:59.0	300.450	-0.330	-0.070	0.670
2020/01/31 11:20:59.1	300.460	-0.340	-0.060	0.630
2020/01/31 11:20:59.2	300.460	-0.350	-0.060	0.600
2020/01/31 11:20:59.3	300.470	-0.360	-0.060	0.560
2020/01/31 11:20:59.4	300.470	-0.370	-0.050	0.520
2020/01/31 11:20:59.5	300.480	-0.380	-0.050	0.470
2020/01/31 11:20:59.6	300.490	-0.390	-0.040	0.430
2020/01/31 11:20:59.7	300.500	-0.390	-0.040	0.390
2020/01/31 11:20:59.8	300.510	-0.390	-0.030	0.350
2020/01/31 11:20:59.9	300.520	-0.400	-0.030	0.300
2020/01/31 11:21:00.0	300.530	-0.400	-0.030	0.260
2020/01/31 11:21:00.1	300.540	-0.400	-0.020	0.220
2020/01/31 11:21:00.2	300.550	-0.400	-0.020	0.180
2020/01/31 11:21:00.3	300.560	-0.390	-0.010	0.140
2020/01/31 11:21:00.4	300.580	-0.390	-0.010	0.110
2020/01/31 11:21:00.5	300.580	-0.380	-0.010	0.070
2020/01/31 11:21:00.6	300.590	-0.370	-0.000	0.040
2020/01/31 11:21:00.7	300.610	-0.370	-0.000	0.000
2020/01/31 11:21:00.8	300.620	-0.360	0.000	-0.030
2020/01/31 11:21:00.9	300.630	-0.350	0.010	-0.060
2020/01/31 11:21:01.0	300.650	-0.330	0.010	-0.090
2020/01/31 11:21:01.1	300.660	-0.320	0.010	-0.120
2020/01/31 11:21:01.2	300.670	-0.310	0.010	-0.140
2020/01/31 11:21:01.3	300.680	-0.290	0.010	-0.160
2020/01/31 11:21:01.4	300.690	-0.270	0.010	-0.180
2020/01/31 11:21:01.5	300.690	-0.260	0.010	-0.200
2020/01/31 11:21:01.6	300.700	-0.240	0.010	-0.210
2020/01/31 11:21:01.7	300.710	-0.220	0.010	-0.220
2020/01/31 11:21:01.8	300.720	-0.200	0.010	-0.220
2020/01/31 11:21:01.9	300.720	-0.180	0.010	-0.220
2020/01/31 11:21:02.0	300.730	-0.160	0.000	-0.220
2020/01/31 11:21:02.1	300.730	-0.140	-0.000	-0.210
2020/01/31 11:21:02.2	300.730	-0.120	-0.010	-0.200
2020/01/31 11:21:02.3	300.730	-0.100	-0.010	-0.190
2020/01/31 11:21:02.4	300.740	-0.080	-0.020	-0.170
2020/01/31 11:21:02.5	300.730	-0.050	-0.030	-0.150
2020/01/31 11:21:02.6	300.730	-0.030	-0.040	-0.130
2020/01/31 11:21:02.7	300.720	-0.010	-0.040	-0.100
2020/01/31 11:21:02.8	300.720	0.010	-0.050	-0.070
2020/01/31 11:21:02.9	300.720	0.040	-0.070	-0.030
2020/01/31 11:21:03.0	300.710	0.060	-0.080	0.000
2020/01/31 11:21:03.1	300.710	0.080	-0.090	0.040
2020/01/31 11:21:03.2	300.710	0.100	-0.100	0.080
2020/01/31 11:21:03.3	300.700	0.120	-0.120	0.120
2020/01/31 11:21:03.4	300.700	0.150	-0.130	0.170
2020/01/31 11:21:03.5	300.690	0.170	-0.150	0.220
2020/01/31 11:21:03.6	300.680	0.190	-0.160	0.270
2020/01/31 11:21:03.7	300.680	0.200	-0.180	0.310
2020/01/31 11:21:03.8	300.670	0.220	-0.200	0.360
2020/01/31 11:21:03.9	300.660	0.240	-0.220	0.410
2020/01/31 11:21:04.0	300.660	0.250	-0.240	0.460
2020/01/31 11:21:04.1	300.650	0.270	-0.260	0.510
2020/01/31 11:21:04.2	300.650	0.280	-0.290	0.560
2020/01/31 11:21:04.3	300.650	0.290	-0.310	0.610
2020/01/31 11:21:04.4	300.640	0.310	-0.330	0.650
2020/01/31 11:21:04.5	300.650	0.310	-0.350	0.700
2020/01/31 11:21:04.6	300.650	0.320	-0.380	0.750
2020/01/31 11:21:04.7	300.650	0.330	-0.400	0.790
2020/01/31 11:21:04.8	300.650	0.330	-0.420	0.840
2020/01/31 11:21:04.9	300.650	0.340	-0.450	0.880
2020/01/31 11:21:05.0	300.640	0.340	-0.470	0.920
2020/01/31 11:21:05.1	300.640	0.340	-0.490	0.960
2020/01/31 11:21:05.2	300.640	0.330	-0.510	1.000
2020/01/31 11:21:05.3	300.640	0.330	-0.530	1.040
2020/01/31 11:21:05.4	300.640	0.320	-0.550	1.080
2020/01/31 11:21:05.5	300.650	0.320	-0.570	1.120
2020/01/31 11:21:05.6	300.650	0.310	-0.580	1.150
2020/01/31 11:21:05.7	300.650	0.300	-0.600	1.190
2020/01/31 11:21:05.8	300.640	0.280	-0.610	1.220
2020/01/31 11:21:05.9	300.640	0.270	-0.620	1.250
2020/01/31 11:21:06.0	300.640	0.260	-0.630	1.270
2020/01/31 11:21:06.1	300.630	0.240	-0.640	1.300
2020/01/31 11:21:06.2	300.630	0.220	-0.640	1.320
2020/01/31 11:21:06.3	300.620	0.200	-0.640	1.340
2020/01/31 11:21:06.4	300.620	0.180	-0.650	1.350
2020/01/31 11:21:06.5	300.620	0.160	-0.640	1.360
2020/01/31 11:21:06.6	300.610	0.140	-0.640	1.370
2020/01/31 11:21:06.7	300.610	0.120	-0.640	1.380
2020/01/31 11:21:06.8	300.610	0.100	-0.640	1.380
2020/01/31 11:21:06.9	300.600	0.080	-0.630	1.380
2020/01/31 11:21:07.0	300.600	0.060	-0.620	1.380
2020/01/31 11:21:07.1	300.600	0.040	-0.620	1.370
2020/01/31 11:21:07.2	300.600	0.020	-0.610	1.360
2020/01/31 11:21:07.3	300.610	-0.000	-0.600	1.350
2020/01/31 11:21:07.4	300.610	-0.020	-0.590	1.330
2020/01/31 11:21:07.5	300.620	-0.040	-0.580	1.310
2020/01/31 11:21:07.6	300.620	-0.060	-0.570	1.290
2020/01/31 11:21:07.7	300.630	-0.070	-0.560	1.260
2020/01/31 11:21:07.8	300.640	-0.090	-0.550	1.230
2020/01/31 11:21:07.9	300.650	-0.100	-0.550	1.210
2020/01/31 11:21:08.0	300.660	-0.110	-0.540	1.180
2020/01/31 11:21:08.1	300.670	-0.130	-0.530	1.140
2020/01/31 11:21:08.2	300.680	-0.140	-0.520	1.110
2020/01/31 11:21:08.3	300.700	-0.140	-0.520	1.080
2020/01/31 11:21:08.4	300.710	-0.150	-0.510	1.040
2020/01/31 11:21:08.5	300.730	-0.150	-0.510	1.000
2020/01/31 11:21:08.6	300.750	-0.160	-0.500	0.970
2020/01/31 11:21:08.7	300.770	-0.160	-0.500	0.930
2020/01/31 11:21:08.8	300.790	-0.160	-0.490	0.890
2020/01/31 11:21:08.9	300.810	-0.160	-0.490	0.850
2020/01/31 11:21:09.0	300.820	-0.150	-0.490	0.820
2020/01/31 11:21:09.1	300.840	-0.150	-0.480	0.780
2020/01/31 11:21:09.2	300.860	-0.140	-0.480	0.740
2020/01/31 11:21:09.3	300.880	-0.140	-0.480	0.710
2020/01/31 11:21:09.4	300.900	-0.130	-0.470	0.670
2020/01/31 11:21:09.5	300.910	-0.120	-0.470	0.640
2020/01/31 11:21:09.6	300.930	-0.110	-0.460	0.610
2020/01/31 11:21:09.7	300.940	-0.100	-0.450	0.580
2020/01/31 11:21:09.8	300.960	-0.090	-0.450	0.550
2020/01/31 11:21:09.9	300.980	-0.080	-0.440	0.520
2020/01/31 11:21:10.0	300.990	-0.070	-0.430	0.500
2020/01/31 11:21:10.1	301.010	-0.050	-0.420	0.480
2020/01/31 11:21:10.2	301.020	-0.040	-0.410	0.460
2020/01/31 11:21:10.3	301.030	-0.030	-0.390	0.440
2020/01/31 11:21:10.4	301.040	-0.020	-0.380	0.430
2020/01/31 11:21:10.5	301.050	-0.010	-0.360	0.410
2020/01/31 11:21:10.6	301.060	0.000	-0.340	0.400
2020/01/31 11:21:10.7	301.060	0.010	-0.320	0.390
2020/01/31 11:21:10.8	301.070	0.020	-0.290	0.390
2020/01/31 11:21:10.9	301.080	0.030	-0.260	0.380
2020/01/31 11:21:11.0	301.080	0.030	-0.240	0.380
2020/01/31 11:21:11.1	301.090	0.040	-0.200	0.370
2020/01/31 11:21:11.2	301.090	0.040	-0.170	0.370
2020/01/31 11:21:11.3	301.090	0.040	-0.140	0.380
2020/01/31 11:21:11.4	301.090	0.040	-0.100	0.380
2020/01/31 11:21:11.5	301.090	0.040	-0.060	0.380
2020/01/31 11:21:11.6	301.080	0.040	-0.020	0.390
2020/01/31 11:21:11.7	301.080	0.040	0.030	0.400
2020/01/31 11:21:11.8	301.080	0.040	0.070	0.410
2020/01/31 11:21:11.9	301.070	0.030	0.110	0.430
2020/01/31 11:21:12.0	301.070	0.030	0.160	0.440
2020/01/31 11:21:12.1	301.060	0.020	0.200	0.460
2020/01/31 11:21:12.2	301.050	0.010	0.240	0.470
2020/01/31 11:21:12.3	301.040	0.000	0.290	0.490
2020/01/31 11:21:12.4	301.030	-0.010	0.330	0.510
2020/01/31 11:21:12.5	301.020	-0.020	0.370	0.530
2020/01/31 11:21:12.6	301.010	-0.030	0.410	0.550
2020/01/31 11:21:12.7	301.000	-0.040	0.440	0.560
2020/01/31 11:21:12.8	300.980	-0.060	0.480	0.580
2020/01/31 11:21:12.9	300.970	-0.070	0.510	0.590
2020/01/31 11:21:13.0	300.960	-0.080	0.530	0.610
2020/01/31 11:21:13.1	300.950	-0.090	0.560	0.620
2020/01/31 11:21:13.2	300.940	-0.110	0.580	0.630
2020/01/31 11:21:13.3	300.920	-0.120	0.590	0.640
2020/01/31 11:21:13.4	300.910	-0.130	0.600	0.640
2020/01/31 11:21:13.5	300.890	-0.140	0.610	0.640
2020/01/31 11:21:13.6	300.880	-0.150	0.610	0.650
2020/01/31 11:21:13.7	300.870	-0.150	0.600	0.650
2020/01/31 11:21:13.8	300.870	-0.160	0.590	0.640
2020/01/31 11:21:13.9	300.860	-0.170	0.580	0.640
2020/01/31 11:21:14.0	300.850	-0.170	0.560	0.630
2020/01/31 11:21:14.1	300.850	-0.180	0.530	0.620
2020/01/31 11:21:14.2	300.840	-0.180	0.500	0.610
2020/01/31 11:21:14.3	300.840	-0.180	0.470	0.600
2020/01/31 11:21:14.4	300.840	-0.180	0.430	0.580
2020/01/31 11:21:14.5	300.840	-0.170	0.380	0.560
2020/01/31 11:21:14.6	300.850	-0.170	0.330	0.540
2020/01/31 11:21:14.7	300.850	-0.160	0.270	0.520
2020/01/31 11:21:14.8	300.860	-0.150	0.220	0.490
2020/01/31 11:21:14.9	300.860	-0.140	0.160	0.470
2020/01/31 11:21:15.0	300.870	-0.130	0.090	0.440
2020/01/31 11:21:15.1	300.880	-0.120	0.030	0.410
2020/01/31 11:21:15.2	300.890	-0.110	-0.040	0.380
2020/01/31 11:21:15.3	300.900	-0.100	-0.100	0.350
2020/01/31 11:21:15.4	300.920	-0.080	-0.170	0.320
2020/01/31 11:21:15.5	300.930	-0.070	-0.230	0.290
2020/01/31 11:21:15.6	300.940	-0.050	-0.300	0.260
2020/01/31 11:21:15.7	300.960	-0.030	-0.360	0.230
2020/01/31 11:21:15.8	300.970	-0.020	-0.430	0.200
2020/01/31 11:21:15.9	300.980	-0.000	-0.490	0.180
2020/01/31 11:21:16.0	301.000	0.020	-0.540	0.150
2020/01/31 11:21:16.1	301.010	0.030	-0.600	0.130
2020/01/31 11:21:16.2	301.030	0.050	-0.650	0.110
2020/01/31 11:21:16.3	301.040	0.070	-0.690	0.100
2020/01/31 11:21:16.4	301.050	0.080	-0.730	0.080
2020/01/31 11:21:16.5	301.080	0.100	-0.770	0.070
2020/01/31 11:21:16.6	301.090	0.110	-0.800	0.060
2020/01/31 11:21:16.7	301.100	0.130	-0.830	0.050
2020/01/31 11:21:16.8	301.110	0.140	-0.850	0.050
2020/01/31 11:21:16.9	301.120	0.150	-0.870	0.050
2020/01/31 11:21:17.0	301.130	0.160	-0.880	0.050
2020/01/31 11:21:17.1	301.140	0.170	-0.890	0.060
2020/01/31 11:21:17.2	301.150	0.180	-0.890	0.060
2020/01/31 11:21:17.3	301.160	0.190	-0.880	0.070
2020/01/31 11:21:17.4	301.170	0.190	-0.880	0.090
2020/01/31 11:21:17.5	301.180	0.200	-0.860	0.100
2020/01/31 11:21:17.6	301.180	0.200	-0.850	0.120
2020/01/31 11:21:17.7	301.190	0.200	-0.830	0.140
2020/01/31 11:21:17.8	301.200	0.200	-0.810	0.150
2020/01/31 11:21:17.9	301.200	0.200	-0.780	0.170
2020/01/31 11:21:18.0	301.210	0.200	-0.760	0.200
2020/01/31 11:21:18.1	301.210	0.200	-0.730	0.220
2020/01/31 11:21:18.2	301.220	0.200	-0.700	0.240
2020/01/31 11:21:18.3	301.220	0.190	-0.670	0.270
2020/01/31 11:21:18.4	301.230	0.190	-0.640	0.290
2020/01/31 11:21:18.5	301.230	0.180	-0.610	0.320
2020/01/31 11:21:18.6	301.230	0.170	-0.580	0.340
2020/01/31 11:21:18.7	301.230	0.170	-0.550	0.370
2020/01/31 11:21:18.8	301.240	0.160	-0.520	0.390
2020/01/31 11:21:18.9	301.240	0.150	-0.490	0.420
2020/01/31 11:21:19.0	301.240	0.140	-0.460	0.440
2020/01/31 11:21:19.1	301.240	0.130	-0.440	0.470
2020/01/31 11:21:19.2	301.250	0.120	-0.410	0.490
2020/01/31 11:21:19.3	301.250	0.110	-0.390	0.520
2020/01/31 11:21:19.4	301.250	0.100	-0.360	0.540
2020/01/31 11:21:19.5	301.250	0.090	-0.350	0.560
2020/01/31 11:21:19.6	301.250	0.080	-0.330	0.590
2020/01/31 11:21:19.7	301.250	0.070	-0.310	0.610
2020/01/31 11:21:19.8	301.250	0.060	-0.290	0.630
2020/01/31 11:21:19.9	301.250	0.050	-0.280	0.650
2020/01/31 11:21:20.0	301.250	0.040	-0.270	0.670
2020/01/31 11:21:20.1	301.250	0.030	-0.260	0.690
2020/01/31 11:21:20.2	301.250	0.020	-0.250	0.700
2020/01/31 11:21:20.3	301.250	0.020	-0.240	0.720
2020/01/31 11:21:20.4	301.250	0.010	-0.240	0.740
2020/01/31 11:21:20.5	301.250	0.000	-0.240	0.760
2020/01/31 11:21:20.6	301.250	-0.000	-0.240	0.770
2020/01/31 11:21:20.7	301.240	-0.010	-0.240	0.790
2020/01/31 11:21:20.8	301.240	-0.010	-0.240	0.800
2020/01/31 11:21:20.9	301.240	-0.020	-0.240	0.810
2020/01/31 11:21:21.0	301.230	-0.020	-0.240	0.830
2020/01/31 11:21:21.1	301.230	-0.020	-0.250	0.840
2020/01/31 11:21:21.2	301.220	-0.030	-0.250	0.850
2020/01/31 11:21:21.3	301.210	-0.030	-0.260	0.860
2020/01/31 11:21:21.4	301.210	-0.030	-0.270	0.870
2020/01/31 11:21:21.5	301.210	-0.030	-0.270	0.880
2020/01/31 11:21:21.6	301.200	-0.030	-0.280	0.880
2020/01/31 11:21:21.7	301.190	-0.030	-0.290	0.890
2020/01/31 11:21:21.8	301.180	-0.030	-0.290	0.890
2020/01/31 11:21:21.9	301.170	-0.030	-0.300	0.900
2020/01/31 11:21:22.0	301.160	-0.030	-0.300	0.900
2020/01/31 11:21:22.1	301.150	-0.030	-0.310	0.900
2020/01/31 11:21:22.2	301.150	-0.030	-0.310	0.900
2020/01/31 11:21:22.3	301.140	-0.020	-0.310	0.900
2020/01/31 11:21:22.4	301.130	-0.020	-0.320	0.890
2020/01/31 11:21:22.5	301.110	-0.020	-0.320	0.890
2020/01/31 11:21:22.6	301.100	-0.020	-0.320	0.890
2020/01/31 11:21:22.7	301.100	-0.020	-0.320	0.880
2020/01/31 11:21:22.8	301.090	-0.020	-0.310	0.880
2020/01/31 11:21:22.9	301.080	-0.010	-0.310	0.870
2020/01/31 11:21:23.0	301.080	-0.010	-0.310	0.860
2020/01/31 11:21:23.1	301.070	-0.010	-0.300	0.860
2020/01/31 11:21:23.2	301.060	-0.010	-0.290	0.850
2020/01/31 11:21:23.3	301.060	-0.000	-0.280	0.840
2020/01/31 11:21:23.4	301.050	-0.000	-0.280	0.840
2020/01/31 11:21:23.5	301.030	-0.000	-0.270	0.830
2020/01/31 11:21:23.6	301.020	0.000	-0.250	0.830
2020/01/31 11:21:23.7	301.010	0.000	-0.240	0.820
2020/01/31 11:21:23.8	301.000	0.000	-0.230	0.820
2020/01/31 11:21:23.9	301.000	0.010	-0.210	0.810
2020/01/31 11:21:24.0	300.990	0.010	-0.200	0.810
2020/01/31 11:21:24.1	300.980	0.010	-0.180	0.800
2020/01/31 11:21:24.2	300.970	0.010	-0.160	0.800
2020/01/31 11:21:24.3	300.960	0.010	-0.140	0.790
2020/01/31 11:21:24.4	300.950	0.010	-0.130	0.790
2020/01/31 11:21:24.5	300.930	0.010	-0.110	0.790
2020/01/31 11:21:24.6	300.910	0.010	-0.090	0.780
2020/01/31 11:21:24.7	300.900	0.010	-0.070	0.780
2020/01/31 11:21:24.8	300.890	0.010	-0.050	0.770
2020/01/31 11:21:24.9	300.880	0.010	-0.040	0.760
2020/01/31 11:21:25.0	300.870	0.020	-0.020	0.760
2020/01/31 11:21:25.1	300.860	0.020	-0.010	0.750
2020/01/31 11:21:25.2	300.860	0.020	0.000	0.740
2020/01/31 11:21:25.3	300.850	0.020	0.010	0.730
2020/01/31 11:21:25.4	300.840	0.020	0.020	0.720
2020/01/31 11:21:25.5	300.840	0.020	0.020	0.710
2020/01/31 11:21:25.6	300.840	0.020	0.030	0.700
2020/01/31 11:21:25.7	300.830	0.030	0.030	0.680
2020/01/31 11:21:25.8	300.830	0.030	0.030	0.670
2020/01/31 11:21:25.9	300.820	0.030	0.030	0.660
2020/01/31 11:21:26.0	300.820	0.030	0.030	0.640
2020/01/31 11:21:26.1	300.820	0.030	0.020	0.620
2020/01/31 11:21:26.2	300.820	0.040	0.010	0.610
2020/01/31 11:21:26.3	300.820	0.040	0.010	0.590
2020/01/31 11:21:26.4	300.830	0.040	-0.000	0.570
2020/01/31 11:21:26.5	300.840	0.040	-0.010	0.550
2020/01/31 11:21:26.6	300.850	0.040	-0.020	0.530
2020/01/31 11:21:26.7	300.860	0.040	-0.030	0.510
2020/01/31 11:21:26.8	300.870	0.040	-0.050	0.490
2020/01/31 11:21:26.9	300.880	0.040	-0.060	0.470
2020/01/31 11:21:27.0	300.890	0.040	-0.070	0.450
2020/01/31 11:21:27.1	300.900	0.040	-0.080	0.420
2020/01/31 11:21:27.2	300.910	0.030	-0.100	0.400
2020/01/31 11:21:27.3	300.930	0.030	-0.110	0.380
2020/01/31 11:21:27.4	300.940	0.030	-0.120	0.350
2020/01/31 11:21:27.5	300.940	0.020	-0.130	0.320
2020/01/31 11:21:27.6	300.960	0.010	-0.140	0.300
2020/01/31 11:21:27.7	300.980	0.000	-0.150	0.270
2020/01/31 11:21:27.8	300.990	-0.010	-0.160	0.250
2020/01/31 11:21:27.9	301.010	-0.020	-0.170	0.220
2020/01/31 11:21:28.0	301.020	-0.030	-0.180	0.200
2020/01/31 11:21:28.1	301.040	-0.040	-0.180	0.170
2020/01/31 11:21:28.2	301.060	-0.060	-0.190	0.150
2020/01/31 11:21:28.3	301.070	-0.080	-0.190	0.130
2020/01/31 11:21:28.4	301.090	-0.090	-0.190	0.110
2020/01/31 11:21:28.5	301.100	-0.110	-0.190	0.080
2020/01/31 11:21:28.6	301.110	-0.130	-0.190	0.060
2020/01/31 11:21:28.7	301.130	-0.150	-0.190	0.050
2020/01/31 11:21:28.8	301.140	-0.170	-0.190	0.030
2020/01/31 11:21:28.9	301.150	-0.190	-0.190	0.010
2020/01/31 11:21:29.0	301.160	-0.210	-0.180	-0.000
2020/01/31 11:21:29.1	301.180	-0.230	-0.180	-0.020
2020/01/31 11:21:29.2	301.190	-0.250	-0.170	-0.030
2020/01/31 11:21:29.3	301.190	-0.270	-0.170	-0.040
2020/01/31 11:21:29.4	301.200	-0.290	-0.170	-0.050
2020/01/31 11:21:29.5	301.200	-0.310	-0.160	-0.050
2020/01/31 11:21:29.6	301.210	-0.330	-0.160	-0.060
2020/01/31 11:21:29.7	301.220	-0.350	-0.150	-0.060
2020/01/31 11:21:29.8	301.220	-0.360	-0.150	-0.060
2020/01/31 11:21:29.9	301.220	-0.380	-0.150	-0.060
2020/01/31 11:21:30.0	301.230	-0.390	-0.140	-0.060
2020/01/31 11:21:30.1	301.230	-0.400	-0.140	-0.050
2020/01/31 11:21:30.2	301.230	-0.410	-0.140	-0.040
2020/01/31 11:21:30.3	301.240	-0.420	-0.140	-0.030
2020/01/31 11:21:30.4	301.240	-0.420	-0.150	-0.020
2020/01/31 11:21:30.5	301.230	-0.430	-0.150	-0.010
2020/01/31 11:21:30.6	301.230	-0.430	-0.150	0.000
2020/01/31 11:21:30.7	301.230	-0.420	-0.160	0.020
2020/01/31 11:21:30.8	301.220	-0.420	-0.170	0.040
2020/01/31 11:21:30.9	301.220	-0.410	-0.180	0.060
2020/01/31 11:21:31.0	301.220	-0.400	-0.190	0.080
2020/01/31 11:21:31.1	301.210	-0.390	-0.200	0.110
2020/01/31 11:21:31.2	301.210	-0.370	-0.210	0.130
2020/01/31 11:21:31.3	301.200	-0.350	-0.230	0.160
2020/01/31 11:21:31.4	301.200	-0.330	-0.250	0.190
2020/01/31 11:21:31.5	301.210	-0.310	-0.270	0.220
2020/01/31 11:21:31.6	301.200	-0.290	-0.290	0.260
2020/01/31 11:21:31.7	301.190	-0.260	-0.310	0.290
2020/01/31 11:21:31.8	301.190	-0.230	-0.330	0.320
2020/01/31 11:21:31.9	301.180	-0.200	-0.360	0.360
2020/01/31 11:21:32.0	301.180	-0.170	-0.380	0.400
2020/01/31 11:21:32.1	301.170	-0.130	-0.400	0.430
2020/01/31 11:21:32.2	301.160	-0.100	-0.430	0.470
2020/01/31 11:21:32.3	301.160	-0.060	-0.450	0.510
2020/01/31 11:21:32.4	301.150	-0.030	-0.470	0.550
2020/01/31 11:21:32.5	301.160	0.010	-0.490	0.590
2020/01/31 11:21:32.6	301.160	0.040	-0.510	0.630
2020/01/31 11:21:32.7	301.150	0.080	-0.530	0.670
2020/01/31 11:21:32.8	301.140	0.120	-0.550	0.710
2020/01/31 11:21:32.9	301.130	0.150	-0.570	0.750
2020/01/31 11:21:33.0	301.120	0.180	-0.580	0.790
2020/01/31 11:21:33.1	301.110	0.220	-0.600	0.830
2020/01/31 11:21:33.2	301.090	0.250	-0.610	0.870
2020/01/31 11:21:33.3	301.080	0.280	-0.620	0.910
2020/01/31 11:21:33.4	301.070	0.310	-0.630	0.950
2020/01/31 11:21:33.5	301.060	0.340	-0.630	0.990
2020/01/31 11:21:33.6	301.050	0.370	-0.630	1.030
2020/01/31 11:21:33.7	301.030	0.390	-0.630	1.070
2020/01/31 11:21:33.8	301.020	0.420	-0.630	1.100
2020/01/31 11:21:33.9	301.010	0.440	-0.630	1.140
2020/01/31 11:21:34.0	301.000	0.460	-0.630	1.180
2020/01/31 11:21:34.1	300.990	0.470	-0.620	1.210
2020/01/31 11:21:34.2	300.980	0.490	-0.610	1.240
2020/01/31 11:21:34.3	300.970	0.500	-0.600	1.280
2020/01/31 11:21:34.4	300.970	0.510	-0.590	1.310
2020/01/31 11:21:34.5	300.970	0.520	-0.580	1.340
2020/01/31 11:21:34.6	300.970	0.530	-0.570	1.370
2020/01/31 11:21:34.7	300.960	0.530	-0.550	1.400
2020/01/31 11:21:34.8	300.950	0.540	-0.530	1.430
2020/01/31 11:21:34.9	300.950	0.540	-0.510	1.450
2020/01/31 11:21:35.0	300.940	0.530	-0.500	1.480
2020/01/31 11:21:35.1	300.940	0.530	-0.470	1.500
2020/01/31 11:21:35.2	300.930	0.520	-0.450	1.530
2020/01/31 11:21:35.3	300.930	0.520	-0.430	1.550
2020/01/31 11:21:35.4	300.920	0.510	-0.400	1.570
2020/01/31 11:21:35.5	300.920	0.490	-0.370	1.590
2020/01/31 11:21:35.6	300.910	0.480	-0.350	1.610
2020/01/31 11:21:35.7	300.900	0.470	-0.320	1.620
2020/01/31 11:21:35.8	300.900	0.450	-0.290	1.640
2020/01/31 11:21:35.9	300.890	0.430	-0.260	1.650
2020/01/31 11:21:36.0	300.880	0.410	-0.230	1.660
2020/01/31 11:21:36.1	300.870	0.390	-0.200	1.660
2020/01/31 11:21:36.2	300.860	0.360	-0.170	1.670
2020/01/31 11:21:36.3	300.850	0.340	-0.140	1.670
2020/01/31 11:21:36.4	300.840	0.310	-0.110	1.660
2020/01/31 11:21:36.5	300.830	0.290	-0.090	1.650
2020/01/31 11:21:36.6	300.820	0.260	-0.060	1.640
2020/01/31 11:21:36.7	300.810	0.230	-0.030	1.630
2020/01/31 11:21:36.8	300.800	0.200	-0.000	1.610
2020/01/31 11:21:36.9	300.790	0.170	0.020	1.580
2020/01/31 11:21:37.0	300.780	0.140	0.050	1.560
2020/01/31 11:21:37.1	300.770	0.110	0.070	1.520
2020/01/31 11:21:37.2	300.760	0.080	0.090	1.490
2020/01/31 11:21:37.3	300.750	0.050	0.110	1.450
2020/01/31 11:21:37.4	300.740	0.020	0.130	1.410
2020/01/31 11:21:37.5	300.740	-0.010	0.140	1.360
2020/01/31 11:21:37.6	300.740	-0.040	0.150	1.320
2020/01/31 11:21:37.7	300.730	-0.070	0.170	1.270
2020/01/31 11:21:37.8	300.720	-0.090	0.170	1.220
2020/01/31 11:21:37.9	300.720	-0.120	0.180	1.160
2020/01/31 11:21:38.0	300.720	-0.150	0.180	1.100
2020/01/31 11:21:38.1	300.710	-0.170	0.180	1.040
2020/01/31 11:21:38.2	300.710	-0.200	0.180	0.980
2020/01/31 11:21:38.3	300.720	-0.220	0.180	0.920
2020/01/31 11:21:38.4	300.720	-0.240	0.170	0.860
2020/01/31 11:21:38.5	300.730	-0.260	0.160	0.790
2020/01/31 11:21:38.6	300.740	-0.270	0.150	0.730
2020/01/31 11:21:38.7	300.750	-0.290	0.140	0.660
2020/01/31 11:21:38.8	300.760	-0.300	0.120	0.600
2020/01/31 11:21:38.9	300.770	-0.310	0.100	0.530
2020/01/31 11:21:39.0	300.780	-0.320	0.080	0.470
2020/01/31 11:21:39.1	300.800	-0.330	0.060	0.400
2020/01/31 11:21:39.2	300.820	-0.330	0.040	0.340
2020/01/31 11:21:39.3	300.840	-0.340	0.010	0.280
2020/01/31 11:21:39.4	300.860	-0.340	-0.010	0.230
2020/01/31 11:21:39.5	300.870	-0.330	-0.040	0.170
2020/01/31 11:21:39.6	300.890	-0.330	-0.070	0.120
2020/01/31 11:21:39.7	300.920	-0.320	-0.100	0.070
2020/01/31 11:21:39.8	300.940	-0.320	-0.120	0.020
2020/01/31 11:21:39.9	300.960	-0.310	-0.150	-0.020
2020/01/31 11:21:40.0	300.990	-0.290	-0.180	-0.060
2020/01/31 11:21:40.1	301.010	-0.280	-0.200	-0.100
2020/01/31 11:21:40.2	301.030	-0.270	-0.230	-0.130
2020/01/31 11:21:40.3	301.060	-0.250	-0.250	-0.160
2020/01/31 11:21:40.4	301.080	-0.230	-0.280	-0.180
2020/01/31 11:21:40.5	301.090	-0.210	-0.300	-0.200
2020/01/31 11:21:40.6	301.110	-0.190	-0.320	-0.220
2020/01/31 11:21:40.7	301.130	-0.170	-0.340	-0.230
2020/01/31 11:21:40.8	301.150	-0.150	-0.360	-0.230
2020/01/31 11:21:40.9	301.170	-0.130	-0.370	-0.240
2020/01/31 11:21:41.0	301.190	-0.110	-0.380	-0.230
2020/01/31 11:21:41.1	301.200	-0.080	-0.400	-0.230
2020/01/31 11:21:41.2	301.220	-0.060	-0.410	-0.220
2020/01/31 11:21:41.3	301.230	-0.040	-0.420	-0.200
2020/01/31 11:21:41.4	301.240	-0.020	-0.420	-0.190
2020/01/31 11:21:41.5	301.260	0.010	-0.430	-0.160
2020/01/31 11:21:41.6	301.270	0.030	-0.430	-0.140
2020/01/31 11:21:41.7	301.270	0.050	-0.440	-0.110
2020/01/31 11:21:41.8	301.280	0.070	-0.440	-0.080
2020/01/31 11:21:41.9	301.280	0.090	-0.440	-0.050
2020/01/31 11:21:42.0	301.290	0.110	-0.440	-0.020
2020/01/31 11:21:42.1	301.290	0.120	-0.440	0.020
2020/01/31 11:21:42.2	301.290	0.140	-0.440	0.060
2020/01/31 11:21:42.3	301.290	0.150	-0.430	0.110
2020/01/31 11:21:42.4	301.290	0.170	-0.430	0.150
2020/01/31 11:21:42.5	301.270	0.180	-0.420	0.200
2020/01/31 11:21:42.6	301.260	0.190	-0.420	0.240
2020/01/31 11:21:42.7	301.250	0.200	-0.410	0.290
2020/01/31 11:21:42.8	301.250	0.200	-0.400	0.340
2020/01/31 11:21:42.9	301.240	0.210	-0.390	0.390
2020/01/31 11:21:43.0	301.230	0.210	-0.380	0.440
2020/01/31 11:21:43.1	301.220	0.210	-0.370	0.490
2020/01/31 11:21:43.2	301.210	0.210	-0.360	0.540
2020/01/31 11:21:43.3	301.200	0.210	-0.350	0.580
2020/01/31 11:21:43.4	301.190	0.200	-0.340	0.630
2020/01/31 11:21:43.5	301.190	0.200	-0.330	0.670
2020/01/31 11:21:43.6	301.180	0.190	-0.320	0.710
2020/01/31 11:21:43.7	301.170	0.180	-0.310	0.760
2020/01/31 11:21:43.8	301.160	0.170	-0.300	0.790
2020/01/31 11:21:43.9	301.150	0.160	-0.300	0.830
2020/01/31 11:21:44.0	301.140	0.140	-0.290	0.870
2020/01/31 11:21:44.1	301.120	0.130	-0.280	0.900
2020/01/31 11:21:44.2	301.110	0.110	-0.270	0.940
2020/01/31 11:21:44.3	301.100	0.100	-0.270	0.970
2020/01/31 11:21:44.4	301.090	0.080	-0.260	0.990
2020/01/31 11:21:44.5	301.090	0.060	-0.260	1.020
2020/01/31 11:21:44.6	301.070	0.040	-0.260	1.050
2020/01/31 11:21:44.7	301.060	0.030	-0.260	1.070
2020/01/31 11:21:44.8	301.050	0.010	-0.260	1.090
2020/01/31 11:21:44.9	301.030	-0.010	-0.260	1.100
2020/01/31 11:21:45.0	301.020	-0.030	-0.260	1.120
2020/01/31 11:21:45.1	301.010	-0.050	-0.260	1.130
2020/01/31 11:21:45.2	301.000	-0.060	-0.270	1.130
2020/01/31 11:21:45.3	300.990	-0.080	-0.270	1.140
2020/01/31 11:21:45.4	300.980	-0.100	-0.280	1.140
2020/01/31 11:21:45.5	300.960	-0.110	-0.290	1.140
2020/01/31 11:21:45.6	300.950	-0.130	-0.290	1.130
2020/01/31 11:21:45.7	300.950	-0.140	-0.300	1.120
2020/01/31 11:21:45.8	300.940	-0.150	-0.310	1.110
2020/01/31 11:21:45.9	300.940	-0.160	-0.320	1.100
2020/01/31 11:21:46.0	300.930	-0.170	-0.330	1.080
2020/01/31 11:21:46.1	300.930	-0.180	-0.340	1.070
2020/01/31 11:21:46.2	300.930	-0.190	-0.350	1.040
2020/01/31 11:21:46.3	300.930	-0.190	-0.360	1.020
2020/01/31 11:21:46.4	300.930	-0.200	-0.370	1.000
2020/01/31 11:21:46.5	300.930	-0.200	-0.380	0.980
2020/01/31 11:21:46.6	300.940	-0.200	-0.390	0.950
2020/01/31 11:21:46.7	300.940	-0.200	-0.400	0.920
2020/01/31 11:21:46.8	300.940	-0.200	-0.410	0.900
2020/01/31 11:21:46.9	300.940	-0.200	-0.420	0.870
2020/01/31 11:21:47.0	300.940	-0.200	-0.420	0.840
2020/01/31 11:21:47.1	300.940	-0.200	-0.430	0.820
2020/01/31 11:21:47.2	300.940	-0.200	-0.430	0.790
2020/01/31 11:21:47.3	300.940	-0.190	-0.440	0.770
2020/01/31 11:21:47.4	300.950	-0.190	-0.440	0.740
2020/01/31 11:21:47.5	300.940	-0.190	-0.440	0.720
2020/01/31 11:21:47.6	300.940	-0.180	-0.440	0.690
2020/01/31 11:21:47.7	300.940	-0.180	-0.440	0.670
2020/01/31 11:21:47.8	300.940	-0.170	-0.430	0.650
2020/01/31 11:21:47.9	300.940	-0.170	-0.430	0.620
2020/01/31 11:21:48.0	300.940	-0.170	-0.420	0.600
2020/01/31 11:21:48.1	300.940	-0.160	-0.420	0.580
2020/01/31 11:21:48.2	300.940	-0.160	-0.410	0.560
2020/01/31 11:21:48.3	300.940	-0.150	-0.400	0.550
2020/01/31 11:21:48.4	300.940	-0.150	-0.390	0.530
2020/01/31 11:21:48.5	300.920	-0.140	-0.380	0.510
2020/01/31 11:21:48.6	300.920	-0.140	-0.360	0.500
2020/01/31 11:21:48.7	300.920	-0.140	-0.350	0.480
2020/01/31 11:21:48.8	300.920	-0.130	-0.330	0.470
2020/01/31 11:21:48.9	300.920	-0.130	-0.320	0.460
2020/01/31 11:21:49.0	300.920	-0.120	-0.300	0.450
2020/01/31 11:21:49.1	300.920	-0.120	-0.280	0.450
2020/01/31 11:21:49.2	300.910	-0.120	-0.260	0.440
2020/01/31 11:21:49.3	300.910	-0.110	-0.240	0.440
2020/01/31 11:21:49.4	300.910	-0.110	-0.220	0.440
2020/01/31 11:21:49.5	300.900	-0.100	-0.200	0.440
2020/01/31 11:21:49.6	300.900	-0.100	-0.180	0.450
2020/01/31 11:21:49.7	300.900	-0.090	-0.150	0.460
2020/01/31 11:21:49.8	300.890	-0.090	-0.130	0.470
2020/01/31 11:21:49.9	300.890	-0.080	-0.100	0.480
2020/01/31 11:21:50.0	300.880	-0.080	-0.080	0.490
2020/01/31 11:21:50.1	300.880	-0.070	-0.050	0.510
2020/01/31 11:21:50.2	300.880	-0.070	-0.030	0.530
2020/01/31 11:21:50.3	300.870	-0.060	-0.000	0.550
2020/01/31 11:21:50.4	300.870	-0.050	0.020	0.570
2020/01/31 11:21:50.5	300.860	-0.050	0.050	0.590
2020/01/31 11:21:50.6	300.860	-0.040	0.070	0.620
2020/01/31 11:21:50.7	300.860	-0.030	0.090	0.640
2020/01/31 11:21:50.8	300.850	-0.020	0.110	0.670
2020/01/31 11:21:50.9	300.850	-0.020	0.130	0.690
2020/01/31 11:21:51.0	300.850	-0.010	0.140	0.710
2020/01/31 11:21:51.1	300.850	-0.000	0.160	0.730
2020/01/31 11:21:51.2	300.850	0.010	0.170	0.750
2020/01/31 11:21:51.3	300.850	0.010	0.180	0.770
2020/01/31 11:21:51.4	300.850	0.020	0.190	0.780
2020/01/31 11:21:51.5	300.870	0.030	0.200	0.800
2020/01/31 11:21:51.6	300.870	0.040	0.200	0.810
2020/01/31 11:21:51.7	300.870	0.050	0.200	0.820
2020/01/31 11:21:51.8	300.870	0.060	0.210	0.830
2020/01/31 11:21:51.9	300.870	0.060	0.210	0.840
2020/01/31 11:21:52.0	300.870	0.070	0.210	0.850
2020/01/31 11:21:52.1	300.880	0.080	0.200	0.850
2020/01/31 11:21:52.2	300.880	0.090	0.200	0.860
2020/01/31 11:21:52.3	300.880	0.100	0.190	0.860
2020/01/31 11:21:52.4	300.880	0.110	0.190	0.860
2020/01/31 11:21:52.5	300.900	0.120	0.180	0.860
2020/01/31 11:21:52.6	300.900	0.130	0.170	0.860
2020/01/31 11:21:52.7	300.900	0.130	0.160	0.860
2020/01/31 11:21:52.8	300.900	0.140	0.150	0.860
2020/01/31 11:21:52.9	300.910	0.150	0.130	0.850
2020/01/31 11:21:53.0	300.910	0.160	0.120	0.850
2020/01/31 11:21:53.1	300.910	0.170	0.100	0.840
2020/01/31 11:21:53.2	300.910	0.180	0.090	0.840
2020/01/31 11:21:53.3	300.910	0.190	0.070	0.830
2020/01/31 11:21:53.4	300.920	0.200	0.050	0.820
2020/01/31 11:21:53.5	300.930	0.210	0.030	0.810
2020/01/31 11:21:53.6	300.930	0.220	0.010	0.800
2020/01/31 11:21:53.7	300.930	0.230	-0.020	0.790
2020/01/31 11:21:53.8	300.930	0.230	-0.040	0.780
2020/01/31 11:21:53.9	300.930	0.240	-0.070	0.780
2020/01/31 11:21:54.0	300.930	0.250	-0.100	0.770
2020/01/31 11:21:54.1	300.920	0.260	-0.120	0.760
2020/01/31 11:21:54.2	300.920	0.260	-0.150	0.750
2020/01/31 11:21:54.3	300.920	0.270	-0.190	0.740
2020/01/31 11:21:54.4	300.910	0.270	-0.220	0.740
2020/01/31 11:21:54.5	300.910	0.280	-0.260	0.730
2020/01/31 11:21:54.6	300.910	0.280	-0.290	0.720
2020/01/31 11:21:54.7	300.900	0.280	-0.320	0.720
2020/01/31 11:21:54.8	300.900	0.280	-0.360	0.710
2020/01/31 11:21:54.9	300.890	0.280	-0.390	0.710
2020/01/31 11:21:55.0	300.880	0.280	-0.430	0.700
2020/01/31 11:21:55.1	300.870	0.280	-0.460	0.700
2020/01/31 11:21:55.2	300.860	0.280	-0.490	0.690
2020/01/31 11:21:55.3	300.850	0.280	-0.530	0.690
2020/01/31 11:21:55.4	300.850	0.270	-0.560	0.680
2020/01/31 11:21:55.5	300.830	0.270	-0.590	0.670
2020/01/31 11:21:55.6	300.820	0.260	-0.620	0.670
2020/01/31 11:21:55.7	300.810	0.260	-0.640	0.660
2020/01/31 11:21:55.8	300.800	0.250	-0.670	0.660
2020/01/31 11:21:55.9	300.790	0.250	-0.690	0.660
2020/01/31 11:21:56.0	300.780	0.240	-0.710	0.650
2020/01/31 11:21:56.1	300.770	0.230	-0.730	0.650
2020/01/31 11:21:56.2	300.760	0.220	-0.750	0.650
2020/01/31 11:21:56.3	300.750	0.210	-0.760	0.640
2020/01/31 11:21:56.4	300.740	0.200	-0.770	0.640
2020/01/31 11:21:56.5	300.730	0.190	-0.780	0.640
2020/01/31 11:21:56.6	300.720	0.180	-0.780	0.640
2020/01/31 11:21:56.7	300.710	0.170	-0.780	0.640
2020/01/31 11:21:56.8	300.700	0.160	-0.780	0.640
2020/01/31 11:21:56.9	300.680	0.150	-0.780	0.640
2020/01/31 11:21:57.0	300.670	0.140	-0.770	0.640
2020/01/31 11:21:57.1	300.660	0.130	-0.760	0.640
2020/01/31 11:21:57.2	300.640	0.120	-0.750	0.640
2020/01/31 11:21:57.3	300.630	0.110	-0.730	0.640
2020/01/31 11:21:57.4	300.620	0.100	-0.710	0.640
2020/01/31 11:21:57.5	300.590	0.090	-0.690	0.640
2020/01/31 11:21:57.6	300.580	0.070	-0.670	0.640
2020/01/31 11:21:57.7	300.560	0.060	-0.650	0.640
2020/01/31 11:21:57.8	300.550	0.050	-0.630	0.640
2020/01/31 11:21:57.9	300.530	0.040	-0.600	0.640
2020/01/31 11:21:58.0	300.520	0.030	-0.580	0.640
2020/01/31 11:21:58.1	300.500	0.020	-0.560	0.640
2020/01/31 11:21:58.2	300.490	0.000	-0.530	0.640
2020/01/31 11:21:58.3	300.480	-0.010	-0.510	0.640
2020/01/31 11:21:58.4	300.460	-0.020	-0.490	0.640
2020/01/31 11:21:58.5	300.450	-0.030	-0.460	0.630
2020/01/31 11:21:58.6	300.440	-0.040	-0.440	0.630
2020/01/31 11:21:58.7	300.430	-0.050	-0.430	0.630
2020/01/31 11:21:58.8	300.420	-0.060	-0.410	0.620
2020/01/31 11:21:58.9	300.410	-0.070	-0.390	0.610
2020/01/31 11:21:59.0	300.400	-0.080	-0.380	0.600
2020/01/31 11:21:59.1	300.390	-0.080	-0.370	0.590
2020/01/31 11:21:59.2	300.390	-0.090	-0.360	0.580
2020/01/31 11:21:59.3	300.380	-0.100	-0.350	0.570
2020/01/31 11:21:59.4	300.380	-0.100	-0.350	0.550
2020/01/31 11:21:59.5	300.380	-0.110	-0.350	0.540
2020/01/31 11:21:59.6	300.390	-0.120	-0.340	0.520
2020/01/31 11:21:59.7	300.390	-0.120	-0.350	0.500
2020/01/31 11:21:59.8	300.390	-0.130	-0.350	0.480
2020/01/31 11:21:59.9	300.400	-0.130	-0.350	0.460
2020/01/31 11:22:00.0	300.410	-0.130	-0.350	0.430
2020/01/31 11:22:00.1	300.420	-0.140	-0.360	0.410
2020/01/31 11:22:00.2	300.430	-0.140	-0.360	0.390
2020/01/31 11:22:00.3	300.440	-0.140	-0.360	0.370
2020/01/31 11:22:00.4	300.450	-0.150	-0.370	0.340
2020/01/31 11:22:00.5	300.470	-0.150	-0.370	0.320
2020/01/31 11:22:00.6	300.490	-0.150	-0.370	0.300
2020/01/31 11:22:00.7	300.500	-0.160	-0.370	0.270
2020/01/31 11:22:00.8	300.520	-0.160	-0.360	0.250
2020/01/31 11:22:00.9	300.540	-0.170	-0.350	0.230
2020/01/31 11:22:01.0	300.560	-0.170	-0.350	0.220
2020/01/31 11:22:01.1	300.580	-0.180	-0.330	0.200
2020/01/31 11:22:01.2	300.600	-0.180	-0.320	0.180
2020/01/31 11:22:01.3	300.620	-0.190	-0.300	0.170
2020/01/31 11:22:01.4	300.640	-0.200	-0.280	0.160
2020/01/31 11:22:01.5	300.650	-0.200	-0.260	0.150
2020/01/31 11:22:01.6	300.670	-0.210	-0.230	0.140
2020/01/31 11:22:01.7	300.700	-0.220	-0.200	0.130
2020/01/31 11:22:01.8	300.720	-0.230	-0.170	0.130
2020/01/31 11:22:01.9	300.740	-0.240	-0.140	0.120
2020/01/31 11:22:02.0	300.760	-0.250	-0.100	0.120
2020/01/31 11:22:02.1	300.780	-0.260	-0.060	0.120
2020/01/31 11:22:02.2	300.800	-0.270	-0.020	0.120
2020/01/31 11:22:02.3	300.820	-0.290	0.020	0.130
2020/01/31 11:22:02.4	300.830	-0.300	0.070	0.130
2020/01/31 11:22:02.5	300.850	-0.310	0.110	0.140
2020/01/31 11:22:02.6	300.860	-0.320	0.160	0.150
2020/01/31 11:22:02.7	300.870	-0.330	0.200	0.160
2020/01/31 11:22:02.8	300.880	-0.340	0.240	0.180
2020/01/31 11:22:02.9	300.890	-0.350	0.290	0.190
2020/01/31 11:22:03.0	300.900	-0.360	0.330	0.210
2020/01/31 11:22:03.1	300.910	-0.370	0.370	0.230
2020/01/31 11:22:03.2	300.920	-0.380	0.410	0.250
2020/01/31 11:22:03.3	300.920	-0.380	0.440	0.280
2020/01/31 11:22:03.4	300.930	-0.390	0.470	0.300
2020/01/31 11:22:03.5	300.950	-0.390	0.500	0.330
2020/01/31 11:22:03.6	300.950	-0.390	0.520	0.350
2020/01/31 11:22:03.7	300.950	-0.390	0.550	0.380
2020/01/31 11:22:03.8	300.950	-0.390	0.560	0.410
2020/01/31 11:22:03.9	300.950	-0.390	0.580	0.440
2020/01/31 11:22:04.0	300.950	-0.380	0.580	0.470
2020/01/31 11:22:04.1	300.950	-0.370	0.590	0.500
2020/01/31 11:22:04.2	300.940	-0.360	0.590	0.540
2020/01/31 11:22:04.3	300.930	-0.350	0.590	0.570
2020/01/31 11:22:04.4	300.930	-0.340	0.580	0.610
2020/01/31 11:22:04.5	300.930	-0.320	0.570	0.650
2020/01/31 11:22:04.6	300.920	-0.300	0.550	0.690
2020/01/31 11:22:04.7	300.910	-0.280	0.530	0.730
2020/01/31 11:22:04.8	300.900	-0.260	0.500	0.770
2020/01/31 11:22:04.9	300.890	-0.240	0.470	0.800
2020/01/31 11:22:05.0	300.880	-0.210	0.440	0.840
2020/01/31 11:22:05.1	300.860	-0.180	0.410	0.880
2020/01/31 11:22:05.2	300.850	-0.150	0.370	0.920
2020/01/31 11:22:05.3	300.840	-0.120	0.320	0.960
2020/01/31 11:22:05.4	300.820	-0.090	0.280	0.990
2020/01/31 11:22:05.5	300.800	-0.060	0.230	1.030
2020/01/31 11:22:05.6	300.790	-0.030	0.180	1.060
2020/01/31 11:22:05.7	300.770	0.000	0.120	1.100
2020/01/31 11:22:05.8	300.760	0.040	0.070	1.130
2020/01/31 11:22:05.9	300.740	0.070	0.010	1.160
2020/01/31 11:22:06.0	300.720	0.100	-0.050	1.190
2020/01/31 11:22:06.1	300.710	0.130	-0.110	1.210
2020/01/31 11:22:06.2	300.690	0.170	-0.160	1.240
2020/01/31 11:22:06.3	300.680	0.200	-0.220	1.260
2020/01/31 11:22:06.4	300.660	0.230	-0.280	1.280
2020/01/31 11:22:06.5	300.640	0.260	-0.340	1.290
2020/01/31 11:22:06.6	300.620	0.280	-0.390	1.300
2020/01/31 11:22:06.7	300.610	0.310	-0.450	1.320
2020/01/31 11:22:06.8	300.590	0.340	-0.510	1.320
2020/01/31 11:22:06.9	300.580	0.360	-0.560	1.330
2020/01/31 11:22:07.0	300.570	0.380	-0.620	1.330
2020/01/31 11:22:07.1	300.550	0.400	-0.670	1.330
2020/01/31 11:22:07.2	300.540	0.410	-0.710	1.330
2020/01/31 11:22:07.3	300.530	0.430	-0.760	1.330
2020/01/31 11:22:07.4	300.510	0.440	-0.800	1.320
2020/01/31 11:22:07.5	300.480	0.450	-0.850	1.310
2020/01/31 11:22:07.6	300.470	0.460	-0.890	1.300
2020/01/31 11:22:07.7	300.460	0.470	-0.920	1.290
2020/01/31 11:22:07.8	300.440	0.470	-0.950	1.270
2020/01/31 11:22:07.9	300.430	0.470	-0.980	1.260
2020/01/31 11:22:08.0	300.410	0.470	-1.000	1.240
2020/01/31 11:22:08.1	300.400	0.470	-1.020	1.230
2020/01/31 11:22:08.2	300.390	0.460	-1.030	1.210
2020/01/31 11:22:08.3	300.370	0.450	-1.050	1.190
2020/01/31 11:22:08.4	300.360	0.440	-1.050	1.170
2020/01/31 11:22:08.5	300.360	0.430	-1.060	1.160
2020/01/31 11:22:08.6	300.350	0.420	-1.060	1.140
2020/01/31 11:22:08.7	300.330	0.410	-1.060	1.120
2020/01/31 11:22:08.8	300.320	0.390	-1.050	1.100
2020/01/31 11:22:08.9	300.310	0.380	-1.040	1.080
2020/01/31 11:22:09.0	300.300	0.360	-1.030	1.050
2020/01/31 11:22:09.1	300.290	0.340	-1.020	1.030
2020/01/31 11:22:09.2	300.280	0.320	-1.000	1.010
2020/01/31 11:22:09.3	300.280	0.300	-0.990	0.980
2020/01/31 11:22:09.4	300.270	0.280	-0.970	0.960
2020/01/31 11:22:09.5	300.270	0.260	-0.950	0.940
2020/01/31 11:22:09.6	300.270	0.240	-0.930	0.910
2020/01/31 11:22:09.7	300.270	0.220	-0.900	0.880
2020/01/31 11:22:09.8	300.270	0.200	-0.880	0.850
2020/01/31 11:22:09.9	300.270	0.180	-0.860	0.820
2020/01/31 11:22:10.0	300.280	0.160	-0.840	0.790
2020/01/31 11:22:10.1	300.280	0.140	-0.810	0.760
2020/01/31 11:22:10.2	300.290	0.120	-0.790	0.730
2020/01/31 11:22:10.3	300.300	0.100	-0.770	0.700
2020/01/31 11:22:10.4	300.310	0.080	-0.740	0.660
2020/01/31 11:22:10.5	300.320	0.070	-0.720	0.630
2020/01/31 11:22:10.6	300.340	0.050	-0.700	0.590
2020/01/31 11:22:10.7	300.360	0.030	-0.680	0.560
2020/01/31 11:22:10.8	300.380	0.020	-0.660	0.530
2020/01/31 11:22:10.9	300.400	0.000	-0.640	0.490
2020/01/31 11:22:11.0	300.430	-0.010	-0.610	0.460
2020/01/31 11:22:11.1	300.450	-0.020	-0.590	0.430
2020/01/31 11:22:11.2	300.480	-0.040	-0.570	0.400
2020/01/31 11:22:11.3	300.500	-0.050	-0.550	0.370
2020/01/31 11:22:11.4	300.530	-0.060	-0.520	0.340
2020/01/31 11:22:11.5	300.570	-0.070	-0.500	0.310
2020/01/31 11:22:11.6	300.600	-0.080	-0.470	0.290
2020/01/31 11:22:11.7	300.620	-0.090	-0.440	0.260
2020/01/31 11:22:11.8	300.650	-0.100	-0.410	0.240
2020/01/31 11:22:11.9	300.680	-0.110	-0.380	0.220
2020/01/31 11:22:12.0	300.700	-0.120	-0.350	0.200
2020/01/31 11:22:12.1	300.730	-0.130	-0.320	0.180
2020/01/31 11:22:12.2	300.750	-0.130	-0.280	0.170
2020/01/31 11:22:12.3	300.770	-0.140	-0.240	0.160
2020/01/31 11:22:12.4	300.790	-0.150	-0.200	0.150
2020/01/31 11:22:12.5	300.800	-0.160	-0.160	0.140
2020/01/31 11:22:12.6	300.820	-0.170	-0.120	0.140
2020/01/31 11:22:12.7	300.830	-0.180	-0.080	0.140
2020/01/31 11:22:12.8	300.850	-0.190	-0.030	0.140
2020/01/31 11:22:12.9	300.860	-0.200	0.010	0.140
2020/01/31 11:22:13.0	300.870	-0.210	0.060	0.140
2020/01/31 11:22:13.1	300.870	-0.220	0.100	0.150
2020/01/31 11:22:13.2	300.880	-0.230	0.150	0.160
2020/01/31 11:22:13.3	300.890	-0.240	0.190	0.170
2020/01/31 11:22:13.4	300.890	-0.260	0.240	0.180
2020/01/31 11:22:13.5	300.900	-0.270	0.280	0.190
2020/01/31 11:22:13.6	300.910	-0.280	0.320	0.200
2020/01/31 11:22:13.7	300.910	-0.290	0.360	0.220
2020/01/31 11:22:13.8	300.910	-0.300	0.400	0.230
2020/01/31 11:22:13.9	300.910	-0.310	0.440	0.240
2020/01/31 11:22:14.0	300.910	-0.320	0.470	0.260
2020/01/31 11:22:14.1	300.910	-0.330	0.500	0.270
2020/01/31 11:22:14.2	300.910	-0.340	0.530	0.290
2020/01/31 11:22:14.3	300.900	-0.350	0.560	0.300
2020/01/31 11:22:14.4	300.900	-0.360	0.580	0.310
2020/01/31 11:22:14.5	300.890	-0.360	0.590	0.330
2020/01/31 11:22:14.6	300.890	-0.370	0.610	0.340
2020/01/31 11:22:14.7	300.890	-0.370	0.620	0.360
2020/01/31 11:22:14.8	300.890	-0.380	0.630	0.370
2020/01/31 11:22:14.9	300.880	-0.380	0.640	0.390
2020/01/31 11:22:15.0	300.880	-0.380	0.640	0.400
2020/01/31 11:22:15.1	300.870	-0.380	0.640	0.410
2020/01/31 11:22:15.2	300.870	-0.380	0.640	0.430
2020/01/31 11:22:15.3	300.870	-0.380	0.630	0.440
2020/01/31 11:22:15.4	300.860	-0.370	0.620	0.450
2020/01/31 11:22:15.5	300.860	-0.370	0.610	0.470
2020/01/31 11:22:15.6	300.860	-0.360	0.600	0.480
2020/01/31 11:22:15.7	300.850	-0.350	0.580	0.500
2020/01/31 11:22:15.8	300.840	-0.350	0.560	0.510
2020/01/31 11:22:15.9	300.840	-0.340	0.540	0.530
2020/01/31 11:22:16.0	300.830	-0.320	0.510	0.540
2020/01/31 11:22:16.1	300.820	-0.310	0.480	0.560
2020/01/31 11:22:16.2	300.810	-0.300	0.450	0.580
2020/01/31 11:22:16.3	300.800	-0.280	0.420	0.600
2020/01/31 11:22:16.4	300.800	-0.270	0.390	0.620
2020/01/31 11:22:16.5	300.800	-0.250	0.350	0.640
2020/01/31 11:22:16.6	300.790	-0.230	0.310	0.660
2020/01/31 11:22:16.7	300.780	-0.210	0.280	0.680
2020/01/31 11:22:16.8	300.770	-0.190	0.230	0.700
2020/01/31 11:22:16.9	300.760	-0.170	0.190	0.720
2020/01/31 11:22:17.0	300.750	-0.150	0.150	0.740
2020/01/31 11:22:17.1	300.740	-0.130	0.110	0.760
2020/01/31 11:22:17.2	300.730	-0.110	0.060	0.770
2020/01/31 11:22:17.3	300.720	-0.080	0.010	0.790
2020/01/31 11:22:17.4	300.710	-0.060	-0.030	0.810
2020/01/31 11:22:17.5	300.700	-0.040	-0.080	0.820
2020/01/31 11:22:17.6	300.690	-0.020	-0.130	0.840
2020/01/31 11:22:17.7	300.680	0.010	-0.180	0.850
2020/01/31 11:22:17.8	300.670	0.030	-0.230	0.870
2020/01/31 11:22:17.9	300.660	0.050	-0.270	0.880
2020/01/31 11:22:18.0	300.650	0.070	-0.320	0.890
2020/01/31 11:22:18.1	300.640	0.090	-0.370	0.900
2020/01/31 11:22:18.2	300.630	0.110	-0.410	0.900
2020/01/31 11:22:18.3	300.620	0.140	-0.460	0.910
2020/01/31 11:22:18.4	300.610	0.150	-0.500	0.910
2020/01/31 11:22:18.5	300.590	0.170	-0.540	0.910
2020/01/31 11:22:18.6	300.590	0.190	-0.580	0.910
2020/01/31 11:22:18.7	300.580	0.210	-0.620	0.910
2020/01/31 11:22:18.8	300.570	0.230	-0.650	0.910
2020/01/31 11:22:18.9	300.560	0.240	-0.690	0.910
2020/01/31 11:22:19.0	300.550	0.260	-0.720	0.910
2020/01/31 11:22:19.1	300.550	0.270	-0.740	0.910
2020/01/31 11:22:19.2	300.540	0.280	-0.770	0.900
2020/01/31 11:22:19.3	300.530	0.290	-0.790	0.900
2020/01/31 11:22:19.4	300.520	0.300	-0.810	0.900
2020/01/31 11:22:19.5	300.500	0.310	-0.820	0.900
2020/01/31 11:22:19.6	300.490	0.320	-0.840	0.900
2020/01/31 11:22:19.7	300.480	0.330	-0.850	0.900
2020/01/31 11:22:19.8	300.470	0.340	-0.860	0.900
2020/01/31 11:22:19.9	300.460	0.340	-0.870	0.890
2020/01/31 11:22:20.0	300.440	0.350	-0.870	0.890
2020/01/31 11:22:20.1	300.430	0.360	-0.880	0.890
2020/01/31 11:22:20.2	300.420	0.360	-0.880	0.890
2020/01/31 11:22:20.3	300.410	0.360	-0.880	0.890
2020/01/31 11:22:20.4	300.400	0.370	-0.880	0.890
2020/01/31 11:22:20.5	300.380	0.370	-0.890	0.880
2020/01/31 11:22:20.6	300.370	0.370	-0.880	0.880
2020/01/31 11:22:20.7	300.360	0.370	-0.880	0.880
2020/01/31 11:22:20.8	300.360	0.380	-0.880	0.880
2020/01/31 11:22:20.9	300.350	0.380	-0.880	0.870
2020/01/31 11:22:21.0	300.340	0.380	-0.880	0.870
2020/01/31 11:22:21.1	300.330	0.380	-0.880	0.870
2020/01/31 11:22:21.2	300.330	0.380	-0.880	0.870
2020/01/31 11:22:21.3	300.320	0.380	-0.880	0.860
2020/01/31 11:22:21.4	300.310	0.380	-0.880	0.860
2020/01/31 11:22:21.5	300.330	0.380	-0.880	0.860
2020/01/31 11:22:21.6	300.320	0.380	-0.880	0.860
2020/01/31 11:22:21.7	300.320	0.370	-0.880	0.860
2020/01/31 11:22:21.8	300.310	0.370	-0.870	0.850
2020/01/31 11:22:21.9	300.310	0.370	-0.870	0.840
2020/01/31 11:22:22.0	300.300	0.360	-0.870	0.840
2020/01/31 11:22:22.1	300.300	0.360	-0.870	0.830
2020/01/31 11:22:22.2	300.290	0.350	-0.860	0.820
2020/01/31 11:22:22.3	300.290	0.350	-0.860	0.810
2020/01/31 11:22:22.4	300.290	0.340	-0.850	0.800
2020/01/31 11:22:22.5	300.290	0.330	-0.840	0.780
2020/01/31 11:22:22.6	300.290	0.330	-0.830	0.770
2020/01/31 11:22:22.7	300.290	0.320	-0.830	0.750
2020/01/31 11:22:22.8	300.300	0.300	-0.810	0.730
2020/01/31 11:22:22.9	300.300	0.290	-0.800	0.720
2020/01/31 11:22:23.0	300.310	0.280	-0.790	0.700
2020/01/31 11:22:23.1	300.310	0.270	-0.770	0.670
2020/01/31 11:22:23.2	300.320	0.250	-0.750	0.650
2020/01/31 11:22:23.3	300.330	0.230	-0.730	0.630
2020/01/31 11:22:23.4	300.340	0.220	-0.710	0.610
2020/01/31 11:22:23.5	300.350	0.200	-0.690	0.590
2020/01/31 11:22:23.6	300.360	0.180	-0.660	0.560
2020/01/31 11:22:23.7	300.380	0.150	-0.630	0.530
2020/01/31 11:22:23.8	300.390	0.130	-0.600	0.510
2020/01/31 11:22:23.9	300.410	0.100	-0.570	0.480
2020/01/31 11:22:24.0	300.430	0.080	-0.530	0.460
2020/01/31 11:22:24.1	300.450	0.050	-0.490	0.430
2020/01/31 11:22:24.2	300.470	0.020	-0.450	0.400
2020/01/31 11:22:24.3	300.490	-0.010	-0.410	0.370
2020/01/31 11:22:24.4	300.510	-0.040	-0.370	0.350
2020/01/31 11:22:24.5	300.530	-0.070	-0.320	0.320
2020/01/31 11:22:24.6	300.550	-0.110	-0.270	0.290
2020/01/31 11:22:24.7	300.570	-0.140	-0.220	0.260
2020/01/31 11:22:24.8	300.590	-0.180	-0.170	0.240
2020/01/31 11:22:24.9	300.610	-0.220	-0.120	0.210
2020/01/31 11:22:25.0	300.630	-0.250	-0.070	0.190
2020/01/31 11:22:25.1	300.650	-0.290	-0.020	0.160
2020/01/31 11:22:25.2	300.670	-0.330	0.040	0.140
2020/01/31 11:22:25.3	300.690	-0.360	0.090	0.120
2020/01/31 11:22:25.4	300.710	-0.400	0.140	0.100
2020/01/31 11:22:25.5	300.720	-0.440	0.200	0.080
2020/01/31 11:22:25.6	300.740	-0.480	0.250	0.060
2020/01/31 11:22:25.7	300.760	-0.510	0.300	0.040
2020/01/31 11:22:25.8	300.770	-0.550	0.350	0.030
2020/01/31 11:22:25.9	300.780	-0.580	0.400	0.010
2020/01/31 11:22:26.0	300.790	-0.610	0.450	0.000
2020/01/31 11:22:26.1	300.810	-0.640	0.490	-0.010
2020/01/31 11:22:26.2	300.820	-0.670	0.530	-0.020
2020/01/31 11:22:26.3	300.820	-0.690	0.570	-0.030
2020/01/31 11:22:26.4	300.830	-0.720	0.610	-0.040
2020/01/31 11:22:26.5	300.840	-0.740	0.640	-0.050
2020/01/31 11:22:26.6	300.850	-0.750	0.670	-0.060
2020/01/31 11:22:26.7	300.850	-0.770	0.700	-0.060
2020/01/31 11:22:26.8	300.850	-0.780	0.720	-0.070
2020/01/31 11:22:26.9	300.860	-0.790	0.740	-0.070
2020/01/31 11:22:27.0	300.860	-0.790	0.750	-0.070
2020/01/31 11:22:27.1	300.860	-0.800	0.760	-0.070
2020/01/31 11:22:27.2	300.860	-0.790	0.770	-0.070
2020/01/31 11:22:27.3	300.850	-0.790	0.770	-0.060
2020/01/31 11:22:27.4	300.850	-0.780	0.770	-0.060
2020/01/31 11:22:27.5	300.840	-0.770	0.760	-0.050
2020/01/31 11:22:27.6	300.840	-0.750	0.750	-0.040
2020/01/31 11:22:27.7	300.830	-0.730	0.740	-0.020
2020/01/31 11:22:27.8	300.820	-0.710	0.720	-0.010
2020/01/31 11:22:27.9	300.810	-0.680	0.700	0.010
2020/01/31 11:22:28.0	300.790	-0.650	0.670	0.030
2020/01/31 11:22:28.1	300.780	-0.620	0.650	0.050
2020/01/31 11:22:28.2	300.770	-0.580	0.620	0.070
2020/01/31 11:22:28.3	300.750	-0.540	0.590	0.100
2020/01/31 11:22:28.4	300.740	-0.500	0.550	0.120
2020/01/31 11:22:28.5	300.710	-0.460	0.520	0.150
2020/01/31 11:22:28.6	300.700	-0.410	0.480	0.180
2020/01/31 11:22:28.7	300.680	-0.360	0.440	0.210
2020/01/31 11:22:28.8	300.660	-0.310	0.400	0.240
2020/01/31 11:22:28.9	300.650	-0.260	0.350	0.280
2020/01/31 11:22:29.0	300.630	-0.210	0.310	0.310
2020/01/31 11:22:29.1	300.610	-0.150	0.260	0.340
2020/01/31 11:22:29.2	300.590	-0.100	0.210	0.380
2020/01/31 11:22:29.3	300.570	-0.040	0.170	0.420
2020/01/31 11:22:29.4	300.560	0.010	0.120	0.460
2020/01/31 11:22:29.5	300.540	0.070	0.070	0.490
2020/01/31 11:22:29.6	300.520	0.120	0.020	0.530
2020/01/31 11:22:29.7	300.500	0.180	-0.030	0.580
2020/01/31 11:22:29.8	300.480	0.230	-0.070	0.620
2020/01/31 11:22:29.9	300.460	0.280	-0.120	0.660
2020/01/31 11:22:30.0	300.440	0.330	-0.170	0.710
2020/01/31 11:22:30.1	300.410	0.380	-0.210	0.750
2020/01/31 11:22:30.2	300.390	0.430	-0.250	0.800
2020/01/31 11:22:30.3	300.370	0.470	-0.300	0.850
2020/01/31 11:22:30.4	300.340	0.510	-0.340	0.890
2020/01/31 11:22:30.5	300.320	0.550	-0.370	0.940
2020/01/31 11:22:30.6	300.290	0.590	-0.410	0.990
2020/01/31 11:22:30.7	300.270	0.620	-0.450	1.040
2020/01/31 11:22:30.8	300.240	0.650	-0.480	1.090
2020/01/31 11:22:30.9	300.220	0.680	-0.520	1.130
2020/01/31 11:22:31.0	300.190	0.700	-0.550	1.180
2020/01/31 11:22:31.1	300.170	0.720	-0.580	1.220
2020/01/31 11:22:31.2	300.140	0.740	-0.610	1.260
2020/01/31 11:22:31.3	300.120	0.760	-0.640	1.300
2020/01/31 11:22:31.4	300.100	0.770	-0.670	1.340
2020/01/31 11:22:31.5	300.090	0.780	-0.690	1.370
2020/01/31 11:22:31.6	300.060	0.780	-0.720	1.400
2020/01/31 11:22:31.7	300.040	0.780	-0.740	1.420
2020/01/31 11:22:31.8	300.030	0.780	-0.760	1.450
2020/01/31 11:22:31.9	300.010	0.780	-0.790	1.470
2020/01/31 11:22:32.0	299.990	0.770	-0.810	1.490
2020/01/31 11:22:32.1	299.980	0.760	-0.830	1.500
2020/01/31 11:22:32.2	299.960	0.750	-0.840	1.510
2020/01/31 11:22:32.3	299.950	0.740	-0.860	1.520
2020/01/31 11:22:32.4	299.940	0.720	-0.880	1.520
2020/01/31 11:22:32.5	299.940	0.700	-0.890	1.530
2020/01/31 11:22:32.6	299.930	0.680	-0.910	1.520
2020/01/31 11:22:32.7	299.930	0.650	-0.920	1.520
2020/01/31 11:22:32.8	299.920	0.630	-0.930	1.510
2020/01/31 11:22:32.9	299.910	0.600	-0.940	1.500
2020/01/31 11:22:33.0	299.910	0.570	-0.950	1.490
2020/01/31 11:22:33.1	299.900	0.540	-0.960	1.470
2020/01/31 11:22:33.2	299.900	0.500	-0.960	1.450
2020/01/31 11:22:33.3	299.900	0.470	-0.970	1.430
2020/01/31 11:22:33.4	299.890	0.430	-0.970	1.410
2020/01/31 11:22:33.5	299.880	0.390	-0.970	1.380
2020/01/31 11:22:33.6	299.870	0.350	-0.970	1.350
2020/01/31 11:22:33.7	299.870	0.310	-0.970	1.320
2020/01/31 11:22:33.8	299.870	0.270	-0.970	1.290
2020/01/31 11:22:33.9	299.880	0.230	-0.960	1.260
2020/01/31 11:22:34.0	299.880	0.190	-0.950	1.230
2020/01/31 11:22:34.1	299.880	0.150	-0.940	1.190
2020/01/31 11:22:34.2	299.890	0.100	-0.930	1.150
2020/01/31 11:22:34.3	299.890	0.060	-0.920	1.110
2020/01/31 11:22:34.4	299.900	0.020	-0.910	1.070
2020/01/31 11:22:34.5	299.910	-0.020	-0.890	1.030
2020/01/31 11:22:34.6	299.920	-0.060	-0.880	0.980
2020/01/31 11:22:34.7	299.930	-0.110	-0.860	0.940
2020/01/31 11:22:34.8	299.940	-0.150	-0.840	0.890
2020/01/31 11:22:34.9	299.950	-0.190	-0.820	0.840
2020/01/31 11:22:35.0	299.970	-0.220	-0.810	0.800
2020/01/31 11:22:35.1	299.980	-0.260	-0.790	0.750
2020/01/31 11:22:35.2	300.000	-0.300	-0.770	0.700
2020/01/31 11:22:35.3	300.020	-0.330	-0.750	0.650
2020/01/31 11:22:35.4	300.030	-0.360	-0.730	0.600
2020/01/31 11:22:35.5	300.060	-0.390	-0.700	0.560
2020/01/31 11:22:35.6	300.080	-0.420	-0.680	0.510
2020/01/31 11:22:35.7	300.100	-0.450	-0.660	0.470
2020/01/31 11:22:35.8	300.120	-0.470	-0.630	0.420
2020/01/31 11:22:35.9	300.140	-0.490	-0.610	0.380
2020/01/31 11:22:36.0	300.160	-0.510	-0.580	0.340
2020/01/31 11:22:36.1	300.190	-0.530	-0.550	0.300
2020/01/31 11:22:36.2	300.210	-0.540	-0.530	0.270
2020/01/31 11:22:36.3	300.230	-0.560	-0.500	0.230
2020/01/31 11:22:36.4	300.250	-0.570	-0.470	0.200
2020/01/31 11:22:36.5	300.250	-0.570	-0.440	0.170
2020/01/31 11:22:36.6	300.270	-0.580	-0.410	0.140
2020/01/31 11:22:36.7	300.290	-0.580	-0.380	0.120
2020/01/31 11:22:36.8	300.310	-0.580	-0.350	0.090
2020/01/31 11:22:36.9	300.330	-0.580	-0.310	0.070
2020/01/31 11:22:37.0	300.350	-0.580	-0.280	0.060
2020/01/31 11:22:37.1	300.370	-0.570	-0.240	0.040
2020/01/31 11:22:37.2	300.390	-0.560	-0.210	0.030
2020/01/31 11:22:37.3	300.400	-0.550	-0.170	0.020
2020/01/31 11:22:37.4	300.420	-0.540	-0.130	0.020
2020/01/31 11:22:37.5	300.430	-0.530	-0.090	0.020
2020/01/31 11:22:37.6	300.440	-0.510	-0.050	0.020
2020/01/31 11:22:37.7	300.450	-0.490	-0.010	0.020
2020/01/31 11:22:37.8	300.460	-0.480	0.030	0.030
2020/01/31 11:22:37.9	300.470	-0.460	0.080	0.040
2020/01/31 11:22:38.0	300.480	-0.430	0.120	0.060
2020/01/31 11:22:38.1	300.480	-0.410	0.160	0.070
2020/01/31 11:22:38.2	300.490	-0.390	0.200	0.090
2020/01/31 11:22:38.3	300.490	-0.360	0.250	0.110
2020/01/31 11:22:38.4	300.490	-0.340	0.290	0.140
2020/01/31 11:22:38.5	300.500	-0.320	0.330	0.170
2020/01/31 11:22:38.6	300.500	-0.290	0.370	0.200
2020/01/31 11:22:38.7	300.500	-0.260	0.410	0.230
2020/01/31 11:22:38.8	300.500	-0.240	0.450	0.260
2020/01/31 11:22:38.9	300.500	-0.210	0.480	0.290
2020/01/31 11:22:39.0	300.490	-0.190	0.510	0.320
2020/01/31 11:22:39.1	300.490	-0.160	0.540	0.360
2020/01/31 11:22:39.2	300.490	-0.130	0.570	0.400
2020/01/31 11:22:39.3	300.480	-0.110	0.590	0.430
2020/01/31 11:22:39.4	300.480	-0.090	0.610	0.470
2020/01/31 11:22:39.5	300.460	-0.060	0.620	0.510
2020/01/31 11:22:39.6	300.450	-0.040	0.640	0.550
2020/01/31 11:22:39.7	300.450	-0.020	0.650	0.590
2020/01/31 11:22:39.8	300.440	0.000	0.660	0.630
2020/01/31 11:22:39.9	300.430	0.020	0.660	0.670
2020/01/31 11:22:40.0	300.420	0.040	0.660	0.710
2020/01/31 11:22:40.1	300.410	0.060	0.660	0.750
2020/01/31 11:22:40.2	300.400	0.080	0.650	0.790
2020/01/31 11:22:40.3	300.380	0.100	0.640	0.830
2020/01/31 11:22:40.4	300.370	0.110	0.630	0.860
2020/01/31 11:22:40.5	300.370	0.130	0.620	0.900
2020/01/31 11:22:40.6	300.360	0.140	0.600	0.930
2020/01/31 11:22:40.7	300.350	0.150	0.580	0.960
2020/01/31 11:22:40.8	300.340	0.160	0.550	0.980
2020/01/31 11:22:40.9	300.330	0.180	0.520	1.000
2020/01/31 11:22:41.0	300.330	0.190	0.490	1.020
2020/01/31 11:22:41.1	300.320	0.200	0.450	1.040
2020/01/31 11:22:41.2	300.310	0.210	0.410	1.060
2020/01/31 11:22:41.3	300.300	0.210	0.370	1.070
2020/01/31 11:22:41.4	300.300	0.220	0.330	1.080
2020/01/31 11:22:41.5	300.300	0.230	0.290	1.090
2020/01/31 11:22:41.6	300.300	0.240	0.240	1.090
2020/01/31 11:22:41.7	300.300	0.250	0.190	1.100
2020/01/31 11:22:41.8	300.290	0.260	0.140	1.100
2020/01/31 11:22:41.9	300.290	0.260	0.090	1.100
2020/01/31 11:22:42.0	300.290	0.270	0.030	1.090
2020/01/31 11:22:42.1	300.290	0.280	-0.020	1.090
2020/01/31 11:22:42.2	300.300	0.290	-0.070	1.080
2020/01/31 11:22:42.3	300.300	0.290	-0.120	1.080
2020/01/31 11:22:42.4	300.300	0.300	-0.180	1.070
2020/01/31 11:22:42.5	300.290	0.310	-0.230	1.060
2020/01/31 11:22:42.6	300.290	0.310	-0.280	1.050
2020/01/31 11:22:42.7	300.290	0.320	-0.330	1.040
2020/01/31 11:22:42.8	300.300	0.320	-0.380	1.020
2020/01/31 11:22:42.9	300.300	0.330	-0.430	1.010
2020/01/31 11:22:43.0	300.300	0.330	-0.480	1.000
2020/01/31 11:22:43.1	300.300	0.340	-0.520	0.990
2020/01/31 11:22:43.2	300.300	0.340	-0.560	0.970
2020/01/31 11:22:43.3	300.300	0.340	-0.600	0.960
2020/01/31 11:22:43.4	300.290	0.340	-0.640	0.940
2020/01/31 11:22:43.5	300.300	0.340	-0.670	0.930
2020/01/31 11:22:43.6	300.290	0.340	-0.700	0.920
2020/01/31 11:22:43.7	300.290	0.340	-0.730	0.900
2020/01/31 11:22:43.8	300.280	0.340	-0.760	0.890
2020/01/31 11:22:43.9	300.280	0.340	-0.780	0.880
2020/01/31 11:22:44.0	300.270	0.330	-0.800	0.860
2020/01/31 11:22:44.1	300.260	0.330	-0.820	0.850
2020/01/31 11:22:44.2	300.250	0.320	-0.830	0.840
2020/01/31 11:22:44.3	300.240	0.310	-0.840	0.830
2020/01/31 11:22:44.4	300.230	0.300	-0.850	0.820
2020/01/31 11:22:44.5	300.220	0.300	-0.860	0.810
2020/01/31 11:22:44.6	300.210	0.290	-0.860	0.800
2020/01/31 11:22:44.7	300.190	0.280	-0.870	0.790
2020/01/31 11:22:44.8	300.180	0.260	-0.870	0.770
2020/01/31 11:22:44.9	300.170	0.250	-0.860	0.760
2020/01/31 11:22:45.0	300.150	0.240	-0.860	0.750
2020/01/31 11:22:45.1	300.140	0.230	-0.860	0.740
2020/01/31 11:22:45.2	300.120	0.210	-0.850	0.720
2020/01/31 11:22:45.3	300.110	0.200	-0.840	0.710
2020/01/31 11:22:45.4	300.090	0.190	-0.840	0.700
2020/01/31 11:22:45.5	300.080	0.170	-0.830	0.680
2020/01/31 11:22:45.6	300.060	0.160	-0.820	0.670
2020/01/31 11:22:45.7	300.050	0.140	-0.810	0.650
2020/01/31 11:22:45.8	300.040	0.130	-0.800	0.630
2020/01/31 11:22:45.9	300.020	0.110	-0.790	0.610
2020/01/31 11:22:46.0	300.010	0.090	-0.790	0.590
2020/01/31 11:22:46.1	300.010	0.080	-0.780	0.570
2020/01/31 11:22:46.2	300.000	0.060	-0.770	0.550
2020/01/31 11:22:46.3	299.990	0.050	-0.770	0.530
2020/01/31 11:22:46.4	299.990	0.030	-0.760	0.510
2020/01/31 11:22:46.5	299.990	0.020	-0.760	0.490
2020/01/31 11:22:46.6	299.990	0.000	-0.750	0.460
2020/01/31 11:22:46.7	299.990	-0.010	-0.750	0.430
2020/01/31 11:22:46.8	299.990	-0.030	-0.740	0.410
2020/01/31 11:22:46.9	300.000	-0.040	-0.740	0.380
2020/01/31 11:22:47.0	300.000	-0.060	-0.740	0.350
2020/01/31 11:22:47.1	300.010	-0.070	-0.730	0.330
2020/01/31 11:22:47.2	300.010	-0.090	-0.720	0.300
2020/01/31 11:22:47.3	300.020	-0.100	-0.720	0.270
2020/01/31 11:22:47.4	300.030	-0.120	-0.710	0.250
2020/01/31 11:22:47.5	300.040	-0.130	-0.700	0.220
2020/01/31 11:22:47.6	300.050	-0.150	-0.680	0.190
2020/01/31 11:22:47.7	300.060	-0.160	-0.670	0.170
2020/01/31 11:22:47.8	300.070	-0.170	-0.660	0.150
2020/01/31 11:22:47.9	300.090	-0.190	-0.640	0.130
2020/01/31 11:22:48.0	300.100	-0.200	-0.620	0.110
2020/01/31 11:22:48.1	300.110	-0.210	-0.600	0.090
2020/01/31 11:22:48.2	300.120	-0.230	-0.580	0.080
2020/01/31 11:22:48.3	300.130	-0.240	-0.550	0.070
2020/01/31 11:22:48.4	300.140	-0.250	-0.530	0.060
2020/01/31 11:22:48.5	300.130	-0.260	-0.500	0.050
2020/01/31 11:22:48.6	300.140	-0.280	-0.470	0.040
2020/01/31 11:22:48.7	300.150	-0.290	-0.430	0.040
2020/01/31 11:22:48.8	300.160	-0.300	-0.400	0.040
2020/01/31 11:22:48.9	300.170	-0.310	-0.360	0.040
2020/01/31 11:22:49.0	300.170	-0.320	-0.320	0.040
2020/01/31 11:22:49.1	300.180	-0.330	-0.280	0.050
2020/01/31 11:22:49.2	300.190	-0.340	-0.240	0.060
2020/01/31 11:22:49.3	300.200	-0.350	-0.200	0.070
2020/01/31 11:22:49.4	300.200	-0.350	-0.160	0.080
2020/01/31 11:22:49.5	300.230	-0.360	-0.110	0.100
2020/01/31 11:22:49.6	300.240	-0.360	-0.070	0.110
2020/01/31 11:22:49.7	300.240	-0.370	-0.030	0.130
2020/01/31 11:22:49.8	300.250	-0.370	0.010	0.150
2020/01/31 11:22:49.9	300.260	-0.370	0.050	0.170
2020/01/31 11:22:50.0	300.270	-0.370	0.090	0.190
2020/01/31 11:22:50.1	300.280	-0.370	0.120	0.210
2020/01/31 11:22:50.2	300.290	-0.370	0.160	0.230
2020/01/31 11:22:50.3	300.310	-0.370	0.190	0.260
2020/01/31 11:22:50.4	300.320	-0.360	0.220	0.280
2020/01/31 11:22:50.5	300.320	-0.360	0.250	0.300
2020/01/31 11:22:50.6	300.340	-0.350	0.280	0.330
2020/01/31 11:22:50.7	300.350	-0.340	0.310	0.350
2020/01/31 11:22:50.8	300.360	-0.330	0.330	0.380
2020/01/31 11:22:50.9	300.370	-0.320	0.350	0.410
2020/01/31 11:22:51.0	300.390	-0.310	0.380	0.430
2020/01/31 11:22:51.1	300.400	-0.290	0.400	0.460
2020/01/31 11:22:51.2	300.410	-0.280	0.410	0.490
2020/01/31 11:22:51.3	300.430	-0.260	0.430	0.520
2020/01/31 11:22:51.4	300.440	-0.240	0.450	0.550
2020/01/31 11:22:51.5	300.450	-0.220	0.460	0.590
2020/01/31 11:22:51.6	300.460	-0.200	0.470	0.620
2020/01/31 11:22:51.7	300.470	-0.180	0.480	0.650
2020/01/31 11:22:51.8	300.480	-0.160	0.490	0.680
2020/01/31 11:22:51.9	300.490	-0.140	0.500	0.710
2020/01/31 11:22:52.0	300.500	-0.120	0.500	0.740
2020/01/31 11:22:52.1	300.510	-0.100	0.510	0.780
2020/01/31 11:22:52.2	300.520	-0.080	0.510	0.810
2020/01/31 11:22:52.3	300.530	-0.050	0.510	0.840
2020/01/31 11:22:52.4	300.530	-0.030	0.510	0.870
2020/01/31 11:22:52.5	300.550	-0.010	0.500	0.900
2020/01/31 11:22:52.6	300.560	0.010	0.500	0.920
2020/01/31 11:22:52.7	300.560	0.030	0.490	0.950
2020/01/31 11:22:52.8	300.570	0.060	0.480	0.980
2020/01/31 11:22:52.9	300.570	0.080	0.460	1.000
2020/01/31 11:22:53.0	300.580	0.090	0.450	1.030
2020/01/31 11:22:53.1	300.580	0.110	0.430	1.050
2020/01/31 11:22:53.2	300.580	0.130	0.410	1.070
2020/01/31 11:22:53.3	300.580	0.150	0.390	1.090
2020/01/31 11:22:53.4	300.590	0.160	0.360	1.100
2020/01/31 11:22:53.5	300.590	0.180	0.340	1.120
2020/01/31 11:22:53.6	300.590	0.190	0.310	1.130
2020/01/31 11:22:53.7	300.590	0.210	0.270	1.140
2020/01/31 11:22:53.8	300.590	0.220	0.240	1.150
2020/01/31 11:22:53.9	300.590	0.230	0.200	1.160
2020/01/31 11:22:54.0	300.590	0.240	0.170	1.160
2020/01/31 11:22:54.1	300.590	0.250	0.130	1.160
2020/01/31 11:22:54.2	300.590	0.260	0.080	1.160
2020/01/31 11:22:54.3	300.590	0.270	0.040	1.160
2020/01/31 11:22:54.4	300.590	0.270	-0.010	1.160
2020/01/31 11:22:54.5	300.570	0.280	-0.050	1.160
2020/01/31 11:22:54.6	300.570	0.280	-0.100	1.150
2020/01/31 11:22:54.7	300.570	0.290	-0.150	1.140
2020/01/31 11:22:54.8	300.560	0.290	-0.200	1.130
2020/01/31 11:22:54.9	300.550	0.290	-0.250	1.110
2020/01/31 11:22:55.0	300.550	0.290	-0.300	1.100
2020/01/31 11:22:55.1	300.540	0.290	-0.350	1.080
2020/01/31 11:22:55.2	300.530	0.290	-0.410	1.070
2020/01/31 11:22:55.3	300.530	0.290	-0.460	1.050
2020/01/31 11:22:55.4	300.520	0.290	-0.510	1.030
2020/01/31 11:22:55.5	300.500	0.290	-0.560	1.010
2020/01/31 11:22:55.6	300.490	0.290	-0.610	0.990
2020/01/31 11:22:55.7	300.480	0.280	-0.660	0.970
2020/01/31 11:22:55.8	300.480	0.280	-0.710	0.940
2020/01/31 11:22:55.9	300.460	0.280	-0.750	0.920
2020/01/31 11:22:56.0	300.450	0.270	-0.800	0.900
2020/01/31 11:22:56.1	300.440	0.270	-0.840	0.870
2020/01/31 11:22:56.2	300.430	0.270	-0.880	0.850
2020/01/31 11:22:56.3	300.420	0.260	-0.920	0.820
2020/01/31 11:22:56.4	300.410	0.260	-0.960	0.800
2020/01/31 11:22:56.5	300.400	0.250	-0.990	0.770
2020/01/31 11:22:56.6	300.390	0.250	-1.020	0.750
2020/01/31 11:22:56.7	300.380	0.240	-1.050	0.720
2020/01/31 11:22:56.8	300.370	0.240	-1.080	0.690
2020/01/31 11:22:56.9	300.360	0.240	-1.100	0.670
2020/01/31 11:22:57.0	300.350	0.230	-1.120	0.640
2020/01/31 11:22:57.1	300.340	0.230	-1.140	0.610
2020/01/31 11:22:57.2	300.330	0.230	-1.150	0.580
2020/01/31 11:22:57.3	300.330	0.220	-1.160	0.560
2020/01/31 11:22:57.4	300.320	0.220	-1.170	0.530
2020/01/31 11:22:57.5	300.310	0.220	-1.170	0.500
2020/01/31 11:22:57.6	300.300	0.220	-1.170	0.480
2020/01/31 11:22:57.7	300.300	0.210	-1.170	0.450
2020/01/31 11:22:57.8	300.290	0.210	-1.160	0.420
2020/01/31 11:22:57.9	300.280	0.210	-1.160	0.400
2020/01/31 11:22:58.0	300.280	0.200	-1.140	0.370
2020/01/31 11:22:58.1	300.280	0.200	-1.130	0.350
2020/01/31 11:22:58.2	300.270	0.190	-1.110	0.330
2020/01/31 11:22:58.3	300.270	0.190	-1.090	0.300
2020/01/31 11:22:58.4	300.270	0.180	-1.060	0.280
2020/01/31 11:22:58.5	300.260	0.180	-1.030	0.260
2020/01/31 11:22:58.6	300.260	0.170	-1.000	0.240
2020/01/31 11:22:58.7	300.260	0.170	-0.970	0.220
2020/01/31 11:22:58.8	300.260	0.160	-0.940	0.200
2020/01/31 11:22:58.9	300.270	0.150	-0.900	0.190
2020/01/31 11:22:59.0	300.270	0.140	-0.860	0.170
2020/01/31 11:22:59.1	300.280	0.140	-0.820	0.150
2020/01/31 11:22:59.2	300.280	0.130	-0.780	0.140
2020/01/31 11:22:59.3	300.290	0.120	-0.740	0.130
2020/01/31 11:22:59.4	300.300	0.110	-0.700	0.110
2020/01/31 11:22:59.5	300.310	0.100	-0.650	0.100
2020/01/31 11:22:59.6	300.320	0.080	-0.610	0.090
2020/01/31 11:22:59.7	300.340	0.070	-0.560	0.090
2020/01/31 11:22:59.8	300.350	0.060	-0.520	0.080
2020/01/31 11:22:59.9	300.360	0.050	-0.470	0.070
2020/01/31 11:23:00.0	300.380	0.030	-0.420	0.070
2020/01/31 11:23:00.1	300.390	0.020	-0.380	0.070
2020/01/31 11:23:00.2	300.410	0.000	-0.330	0.070
2020/01/31 11:23:00.3	300.420	-0.010	-0.280	0.080
2020/01/31 11:23:00.4	300.440	-0.030	-0.230	0.080
2020/01/31 11:23:00.5	300.450	-0.040	-0.180	0.090
2020/01/31 11:23:00.6	300.460	-0.060	-0.130	0.100
2020/01/31 11:23:00.7	300.480	-0.070	-0.080	0.110
2020/01/31 11:23:00.8	300.490	-0.090	-0.030	0.120
2020/01/31 11:23:00.9	300.510	-0.110	0.020	0.140
2020/01/31 11:23:01.0	300.520	-0.130	0.060	0.160
2020/01/31 11:23:01.1	300.540	-0.140	0.110	0.180
2020/01/31 11:23:01.2	300.550	-0.160	0.160	0.200
2020/01/31 11:23:01.3	300.560	-0.180	0.200	0.230
2020/01/31 11:23:01.4	300.580	-0.200	0.250	0.250
2020/01/31 11:23:01.5	300.590	-0.210	0.300	0.280
2020/01/31 11:23:01.6	300.610	-0.230	0.340	0.310
2020/01/31 11:23:01.7	300.610	-0.250	0.380	0.340
2020/01/31 11:23:01.8	300.620	-0.260	0.420	0.370
2020/01/31 11:23:01.9	300.630	-0.280	0.460	0.400
2020/01/31 11:23:02.0	300.640	-0.300	0.490	0.440
2020/01/31 11:23:02.1	300.640	-0.310	0.530	0.470
2020/01/31 11:23:02.2	300.650	-0.330	0.560	0.500
2020/01/31 11:23:02.3	300.650	-0.340	0.590	0.540
2020/01/31 11:23:02.4	300.650	-0.350	0.610	0.570
2020/01/31 11:23:02.5	300.680	-0.370	0.630	0.610
2020/01/31 11:23:02.6	300.680	-0.380	0.650	0.640
2020/01/31 11:23:02.7	300.680	-0.390	0.670	0.670
2020/01/31 11:23:02.8	300.680	-0.400	0.680	0.700
2020/01/31 11:23:02.9	300.680	-0.400	0.690	0.730
2020/01/31 11:23:03.0	300.680	-0.410	0.690	0.760
2020/01/31 11:23:03.1	300.680	-0.420	0.700	0.780
2020/01/31 11:23:03.2	300.670	-0.420	0.690	0.810
2020/01/31 11:23:03.3	300.670	-0.420	0.690	0.830
2020/01/31 11:23:03.4	300.670	-0.420	0.680	0.850
2020/01/31 11:23:03.5	300.660	-0.420	0.660	0.870
2020/01/31 11:23:03.6	300.660	-0.410	0.640	0.880
2020/01/31 11:23:03.7	300.660	-0.410	0.620	0.890
2020/01/31 11:23:03.8	300.660	-0.400	0.590	0.900
2020/01/31 11:23:03.9	300.660	-0.390	0.560	0.910
2020/01/31 11:23:04.0	300.660	-0.380	0.530	0.910
2020/01/31 11:23:04.1	300.660	-0.370	0.490	0.910
2020/01/31 11:23:04.2	300.660	-0.350	0.450	0.910
2020/01/31 11:23:04.3	300.660	-0.340	0.400	0.900
2020/01/31 11:23:04.4	300.670	-0.320	0.350	0.890
2020/01/31 11:23:04.5	300.670	-0.300	0.300	0.880
2020/01/31 11:23:04.6	300.680	-0.280	0.250	0.860
2020/01/31 11:23:04.7	300.680	-0.260	0.190	0.840
2020/01/31 11:23:04.8	300.690	-0.230	0.130	0.810
2020/01/31 11:23:04.9	300.700	-0.210	0.070	0.790
2020/01/31 11:23:05.0	300.710	-0.180	0.010	0.760
2020/01/31 11:23:05.1	300.730	-0.160	-0.050	0.730
2020/01/31 11:23:05.2	300.740	-0.130	-0.110	0.700
2020/01/31 11:23:05.3	300.750	-0.100	-0.180	0.670
2020/01/31 11:23:05.4	300.760	-0.070	-0.240	0.630
2020/01/31 11:23:05.5	300.780	-0.040	-0.300	0.600
2020/01/31 11:23:05.6	300.790	-0.020	-0.360	0.570
2020/01/31 11:23:05.7	300.800	0.010	-0.420	0.530
2020/01/31 11:23:05.8	300.820	0.040	-0.480	0.500
2020/01/31 11:23:05.9	300.830	0.070	-0.530	0.470
2020/01/31 11:23:06.0	300.840	0.100	-0.580	0.440
2020/01/31 11:23:06.1	300.860	0.120	-0.630	0.410
2020/01/31 11:23:06.2	300.870	0.150	-0.680	0.380
2020/01/31 11:23:06.3	300.880	0.170	-0.720	0.360
2020/01/31 11:23:06.4	300.890	0.200	-0.760	0.340
2020/01/31 11:23:06.5	300.910	0.220	-0.790	0.310
2020/01/31 11:23:06.6	300.910	0.240	-0.830	0.300
2020/01/31 11:23:06.7	300.920	0.260	-0.850	0.280
2020/01/31 11:23:06.8	300.930	0.280	-0.880	0.270
2020/01/31 11:23:06.9	300.940	0.300	-0.900	0.260
2020/01/31 11:23:07.0	300.940	0.310	-0.910	0.250
2020/01/31 11:23:07.1	300.950	0.320	-0.920	0.240
2020/01/31 11:23:07.2	300.950	0.340	-0.930	0.240
2020/01/31 11:23:07.3	300.960	0.340	-0.940	0.230
2020/01/31 11:23:07.4	300.960	0.350	-0.940	0.230
2020/01/31 11:23:07.5	300.950	0.360	-0.930	0.230
2020/01/31 11:23:07.6	300.960	0.360	-0.930	0.240
2020/01/31 11:23:07.7	300.960	0.360	-0.920	0.240
2020/01/31 11:23:07.8	300.960	0.360	-0.910	0.240
2020/01/31 11:23:07.9	300.970	0.360	-0.890	0.250
2020/01/31 11:23:08.0	300.970	0.360	-0.880	0.260
2020/01/31 11:23:08.1	300.980	0.350	-0.860	0.270
2020/01/31 11:23:08.2	300.980	0.340	-0.840	0.270
2020/01/31 11:23:08.3	300.990	0.340	-0.820	0.280
2020/01/31 11:23:08.4	300.990	0.330	-0.800	0.290
2020/01/31 11:23:08.5	301.000	0.310	-0.780	0.310
2020/01/31 11:23:08.6	301.010	0.300	-0.750	0.320
2020/01/31 11:23:08.7	301.020	0.290	-0.720	0.330
2020/01/31 11:23:08.8	301.020	0.270	-0.700	0.340
2020/01/31 11:23:08.9	301.030	0.250	-0.670	0.360
2020/01/31 11:23:09.0	301.040	0.230	-0.640	0.370
2020/01/31 11:23:09.1	301.050	0.210	-0.610	0.390
2020/01/31 11:23:09.2	301.050	0.190	-0.580	0.400
2020/01/31 11:23:09.3	301.060	0.170	-0.550	0.420
2020/01/31 11:23:09.4	301.070	0.150	-0.520	0.430
2020/01/31 11:23:09.5	301.080	0.130	-0.490	0.450
2020/01/31 11:23:09.6	301.080	0.110	-0.460	0.470
2020/01/31 11:23:09.7	301.090	0.080	-0.430	0.480
2020/01/31 11:23:09.8	301.100	0.060	-0.400	0.500
2020/01/31 11:23:09.9	301.110	0.040	-0.370	0.520
2020/01/31 11:23:10.0	301.110	0.020	-0.340	0.530
2020/01/31 11:23:10.1	301.120	-0.000	-0.320	0.550
2020/01/31 11:23:10.2	301.130	-0.020	-0.290	0.560
2020/01/31 11:23:10.3	301.140	-0.040	-0.260	0.580
2020/01/31 11:23:10.4	301.140	-0.060	-0.230	0.600
2020/01/31 11:23:10.5	301.150	-0.080	-0.210	0.610
2020/01/31 11:23:10.6	301.160	-0.100	-0.190	0.620
2020/01/31 11:23:10.7	301.170	-0.110	-0.160	0.630
2020/01/31 11:23:10.8	301.180	-0.120	-0.140	0.650
2020/01/31 11:23:10.9	301.190	-0.130	-0.120	0.660
2020/01/31 11:23:11.0	301.200	-0.140	-0.100	0.670
2020/01/31 11:23:11.1	301.210	-0.150	-0.080	0.670
2020/01/31 11:23:11.2	301.220	-0.160	-0.070	0.680
2020/01/31 11:23:11.3	301.230	-0.160	-0.050	0.690
2020/01/31 11:23:11.4	301.240	-0.170	-0.040	0.690
2020/01/31 11:23:11.5	301.260	-0.170	-0.030	0.690
2020/01/31 11:23:11.6	301.270	-0.170	-0.020	0.690
2020/01/31 11:23:11.7	301.280	-0.170	-0.010	0.690
2020/01/31 11:23:11.8	301.290	-0.160	-0.010	0.690
2020/01/31 11:23:11.9	301.300	-0.160	-0.000	0.680
2020/01/31 11:23:12.0	301.310	-0.150	0.000	0.680
2020/01/31 11:23:12.1	301.320	-0.140	0.010	0.670
2020/01/31 11:23:12.2	301.330	-0.130	0.010	0.670
2020/01/31 11:23:12.3	301.340	-0.130	0.010	0.660
2020/01/31 11:23:12.4	301.350	-0.120	0.010	0.660
2020/01/31 11:23:12.5	301.360	-0.110	0.020	0.650
2020/01/31 11:23:12.6	301.360	-0.090	0.020	0.650
2020/01/31 11:23:12.7	301.360	-0.080	0.020	0.650
2020/01/31 11:23:12.8	301.370	-0.070	0.030	0.640
2020/01/31 11:23:12.9	301.370	-0.060	0.030	0.640
2020/01/31 11:23:13.0	301.370	-0.050	0.040	0.640
2020/01/31 11:23:13.1	301.360	-0.040	0.040	0.640
2020/01/31 11:23:13.2	301.360	-0.030	0.050	0.640
2020/01/31 11:23:13.3	301.350	-0.020	0.060	0.640
2020/01/31 11:23:13.4	301.350	-0.010	0.060	0.640
2020/01/31 11:23:13.5	301.320	0.000	0.070	0.650
2020/01/31 11:23:13.6	301.310	0.010	0.080	0.650
2020/01/31 11:23:13.7	301.300	0.020	0.090	0.660
2020/01/31 11:23:13.8	301.290	0.020	0.090	0.660
2020/01/31 11:23:13.9	301.280	0.030	0.100	0.670
2020/01/31 11:23:14.0	301.260	0.040	0.110	0.670
2020/01/31 11:23:14.1	301.250	0.040	0.110	0.680
2020/01/31 11:23:14.2	301.230	0.040	0.110	0.690
2020/01/31 11:23:14.3	301.220	0.050	0.110	0.690
2020/01/31 11:23:14.4	301.200	0.050	0.110	0.700
2020/01/31 11:23:14.5	301.180	0.050	0.110	0.700
2020/01/31 11:23:14.6	301.170	0.050	0.100	0.700
2020/01/31 11:23:14.7	301.150	0.060	0.100	0.700
2020/01/31 11:23:14.8	301.140	0.060	0.090	0.700
2020/01/31 11:23:14.9	301.120	0.060	0.080	0.700
2020/01/31 11:23:15.0	301.110	0.060	0.060	0.690
2020/01/31 11:23:15.1	301.090	0.060	0.050	0.680
2020/01/31 11:23:15.2	301.080	0.060	0.030	0.680
2020/01/31 11:23:15.3	301.070	0.060	0.010	0.660
2020/01/31 11:23:15.4	301.060	0.060	-0.010	0.650
2020/01/31 11:23:15.5	301.040	0.050	-0.040	0.630
2020/01/31 11:23:15.6	301.040	0.050	-0.060	0.610
2020/01/31 11:23:15.7	301.030	0.050	-0.090	0.590
2020/01/31 11:23:15.8	301.020	0.050	-0.120	0.570
2020/01/31 11:23:15.9	301.020	0.050	-0.150	0.540
2020/01/31 11:23:16.0	301.020	0.040	-0.180	0.510
2020/01/31 11:23:16.1	301.020	0.040	-0.210	0.480
2020/01/31 11:23:16.2	301.020	0.040	-0.240	0.450
2020/01/31 11:23:16.3	301.020	0.040	-0.270	0.410
2020/01/31 11:23:16.4	301.030	0.030	-0.300	0.370
2020/01/31 11:23:16.5	301.040	0.030	-0.330	0.330
2020/01/31 11:23:16.6	301.050	0.020	-0.360	0.290
2020/01/31 11:23:16.7	301.060	0.020	-0.380	0.250
2020/01/31 11:23:16.8	301.070	0.010	-0.410	0.210
2020/01/31 11:23:16.9	301.090	0.010	-0.430	0.170
2020/01/31 11:23:17.0	301.110	-0.000	-0.460	0.120
2020/01/31 11:23:17.1	301.120	-0.010	-0.480	0.080
2020/01/31 11:23:17.2	301.140	-0.010	-0.500	0.030
2020/01/31 11:23:17.3	301.160	-0.020	-0.520	-0.010
2020/01/31 11:23:17.4	301.190	-0.030	-0.540	-0.050
2020/01/31 11:23:17.5	301.220	-0.040	-0.550	-0.090
2020/01/31 11:23:17.6	301.240	-0.050	-0.570	-0.130
2020/01/31 11:23:17.7	301.270	-0.060	-0.580	-0.170
2020/01/31 11:23:17.8	301.290	-0.070	-0.590	-0.200
2020/01/31 11:23:17.9	301.320	-0.080	-0.590	-0.240
2020/01/31 11:23:18.0	301.350	-0.090	-0.600	-0.270
2020/01/31 11:23:18.1	301.370	-0.090	-0.600	-0.300
2020/01/31 11:23:18.2	301.400	-0.100	-0.600	-0.330
2020/01/31 11:23:18.3	301.430	-0.110	-0.600	-0.350
2020/01/31 11:23:18.4	301.450	-0.120	-0.600	-0.380
2020/01/31 11:23:18.5	301.470	-0.130	-0.590	-0.390
2020/01/31 11:23:18.6	301.500	-0.140	-0.580	-0.410
2020/01/31 11:23:18.7	301.530	-0.140	-0.580	-0.420
2020/01/31 11:23:18.8	301.550	-0.150	-0.570	-0.430
2020/01/31 11:23:18.9	301.570	-0.150	-0.560	-0.440
2020/01/31 11:23:19.0	301.600	-0.160	-0.550	-0.440
2020/01/31 11:23:19.1	301.620	-0.160	-0.540	-0.440
2020/01/31 11:23:19.2	301.640	-0.170	-0.530	-0.440
2020/01/31 11:23:19.3	301.660	-0.170	-0.510	-0.430
2020/01/31 11:23:19.4	301.680	-0.170	-0.500	-0.420
2020/01/31 11:23:19.5	301.700	-0.170	-0.490	-0.410
2020/01/31 11:23:19.6	301.720	-0.170	-0.480	-0.400
2020/01/31 11:23:19.7	301.740	-0.160	-0.460	-0.380
2020/01/31 11:23:19.8	301.750	-0.160	-0.450	-0.360
2020/01/31 11:23:19.9	301.770	-0.150	-0.440	-0.330
2020/01/31 11:23:20.0	301.790	-0.150	-0.420	-0.310
2020/01/31 11:23:20.1	301.800	-0.140	-0.410	-0.280
2020/01/31 11:23:20.2	301.820	-0.130	-0.390	-0.250
2020/01/31 11:23:20.3	301.830	-0.130	-0.380	-0.220
2020/01/31 11:23:20.4	301.840	-0.120	-0.370	-0.190
2020/01/31 11:23:20.5	301.850	-0.110	-0.350	-0.150
2020/01/31 11:23:20.6	301.860	-0.100	-0.330	-0.110
2020/01/31 11:23:20.7	301.860	-0.080	-0.320	-0.070
2020/01/31 11:23:20.8	301.870	-0.070	-0.300	-0.030
2020/01/31 11:23:20.9	301.870	-0.060	-0.290	0.020
2020/01/31 11:23:21.0	301.870	-0.050	-0.270	0.060
2020/01/31 11:23:21.1	301.870	-0.030	-0.260	0.110
2020/01/31 11:23:21.2	301.870	-0.020	-0.240	0.160
2020/01/31 11:23:21.3	301.870	-0.010	-0.220	0.210
2020/01/31 11:23:21.4	301.860	0.010	-0.210	0.260
2020/01/31 11:23:21.5	301.870	0.020	-0.190	0.320
2020/01/31 11:23:21.6	301.860	0.040	-0.180	0.370
2020/01/31 11:23:21.7	301.850	0.050	-0.160	0.430
2020/01/31 11:23:21.8	301.840	0.060	-0.140	0.480
2020/01/31 11:23:21.9	301.830	0.080	-0.130	0.530
2020/01/31 11:23:22.0	301.810	0.090	-0.110	0.590
2020/01/31 11:23:22.1	301.800	0.110	-0.100	0.640
2020/01/31 11:23:22.2	301.790	0.120	-0.090	0.700
2020/01/31 11:23:22.3	301.770	0.130	-0.070	0.750
2020/01/31 11:23:22.4	301.760	0.150	-0.060	0.800
2020/01/31 11:23:22.5	301.750	0.160	-0.050	0.850
2020/01/31 11:23:22.6	301.740	0.170	-0.040	0.900
2020/01/31 11:23:22.7	301.720	0.180	-0.030	0.950
2020/01/31 11:23:22.8	301.700	0.190	-0.020	1.000
2020/01/31 11:23:22.9	301.680	0.200	-0.010	1.050
2020/01/31 11:23:23.0	301.660	0.210	0.000	1.090
2020/01/31 11:23:23.1	301.640	0.220	0.010	1.130
2020/01/31 11:23:23.2	301.620	0.230	0.020	1.170
2020/01/31 11:23:23.3	301.600	0.240	0.030	1.210
2020/01/31 11:23:23.4	301.580	0.240	0.030	1.250
2020/01/31 11:23:23.5	301.560	0.250	0.040	1.280
2020/01/31 11:23:23.6	301.540	0.250	0.050	1.320
2020/01/31 11:23:23.7	301.520	0.250	0.050	1.340
2020/01/31 11:23:23.8	301.500	0.260	0.060	1.370
2020/01/31 11:23:23.9	301.480	0.260	0.060	1.390
2020/01/31 11:23:24.0	301.460	0.260	0.060	1.410
2020/01/31 11:23:24.1	301.440	0.260	0.060	1.430
2020/01/31 11:23:24.2	301.420	0.250	0.060	1.440
2020/01/31 11:23:24.3	301.410	0.250	0.050	1.440
2020/01/31 11:23:24.4	301.390	0.250	0.050	1.450
2020/01/31 11:23:24.5	301.370	0.240	0.040	1.440
2020/01/31 11:23:24.6	301.350	0.230	0.030	1.430
2020/01/31 11:23:24.7	301.340	0.230	0.020	1.420
2020/01/31 11:23:24.8	301.320	0.220	0.010	1.410
2020/01/31 11:23:24.9	301.310	0.210	-0.000	1.390
2020/01/31 11:23:25.0	301.300	0.200	-0.010	1.360
2020/01/31 11:23:25.1	301.290	0.190	-0.030	1.340
2020/01/31 11:23:25.2	301.280	0.180	-0.050	1.300
2020/01/31 11:23:25.3	301.280	0.160	-0.070	1.270
2020/01/31 11:23:25.4	301.270	0.150	-0.090	1.230
2020/01/31 11:23:25.5	301.260	0.130	-0.110	1.190
2020/01/31 11:23:25.6	301.260	0.120	-0.130	1.150
2020/01/31 11:23:25.7	301.260	0.100	-0.150	1.100
2020/01/31 11:23:25.8	301.260	0.080	-0.180	1.050
2020/01/31 11:23:25.9	301.260	0.070	-0.200	1.000
2020/01/31 11:23:26.0	301.260	0.050	-0.220	0.950
2020/01/31 11:23:26.1	301.260	0.030	-0.240	0.890
2020/01/31 11:23:26.2	301.260	0.010	-0.270	0.840
2020/01/31 11:23:26.3	301.260	-0.010	-0.290	0.780
2020/01/31 11:23:26.4	301.270	-0.030	-0.310	0.720
2020/01/31 11:23:26.5	301.270	-0.050	-0.330	0.660
2020/01/31 11:23:26.6	301.280	-0.070	-0.350	0.610
2020/01/31 11:23:26.7	301.280	-0.100	-0.370	0.550
2020/01/31 11:23:26.8	301.290	-0.120	-0.380	0.490
2020/01/31 11:23:26.9	301.290	-0.140	-0.400	0.440
2020/01/31 11:23:27.0	301.300	-0.160	-0.410	0.380
2020/01/31 11:23:27.1	301.300	-0.180	-0.420	0.330
2020/01/31 11:23:27.2	301.310	-0.200	-0.430	0.270
2020/01/31 11:23:27.3	301.310	-0.220	-0.440	0.220
2020/01/31 11:23:27.4	301.320	-0.240	-0.440	0.170
2020/01/31 11:23:27.5	301.310	-0.260	-0.450	0.120
2020/01/31 11:23:27.6	301.320	-0.280	-0.450	0.080
2020/01/31 11:23:27.7	301.330	-0.290	-0.450	0.040
2020/01/31 11:23:27.8	301.330	-0.310	-0.450	-0.010
2020/01/31 11:23:27.9	301.340	-0.320	-0.450	-0.040
2020/01/31 11:23:28.0	301.350	-0.330	-0.450	-0.080
2020/01/31 11:23:28.1	301.350	-0.340	-0.440	-0.110
2020/01/31 11:23:28.2	301.360	-0.350	-0.440	-0.140
2020/01/31 11:23:28.3	301.370	-0.360	-0.430	-0.170
2020/01/31 11:23:28.4	301.370	-0.370	-0.430	-0.190
2020/01/31 11:23:28.5	301.380	-0.370	-0.420	-0.210
2020/01/31 11:23:28.6	301.380	-0.370	-0.410	-0.230
2020/01/31 11:23:28.7	301.390	-0.370	-0.400	-0.240
2020/01/31 11:23:28.8	301.400	-0.370	-0.400	-0.250
2020/01/31 11:23:28.9	301.400	-0.370	-0.390	-0.250
2020/01/31 11:23:29.0	301.410	-0.360	-0.380	-0.250
2020/01/31 11:23:29.1	301.420	-0.350	-0.370	-0.250
2020/01/31 11:23:29.2	301.420	-0.340	-0.360	-0.240
2020/01/31 11:23:29.3	301.430	-0.330	-0.350	-0.230
2020/01/31 11:23:29.4	301.440	-0.320	-0.340	-0.220
2020/01/31 11:23:29.5	301.450	-0.300	-0.330	-0.200
2020/01/31 11:23:29.6	301.460	-0.290	-0.320	-0.180
2020/01/31 11:23:29.7	301.460	-0.270	-0.310	-0.160
2020/01/31 11:23:29.8	301.470	-0.250	-0.310	-0.140
2020/01/31 11:23:29.9	301.480	-0.220	-0.300	-0.110
2020/01/31 11:23:30.0	301.490	-0.200	-0.290	-0.090
2020/01/31 11:23:30.1	301.500	-0.180	-0.290	-0.060
2020/01/31 11:23:30.2	301.510	-0.150	-0.280	-0.030
2020/01/31 11:23:30.3	301.510	-0.120	-0.280	0.000
2020/01/31 11:23:30.4	301.530	-0.100	-0.270	0.030
2020/01/31 11:23:30.5	301.550	-0.070	-0.270	0.070
2020/01/31 11:23:30.6	301.560	-0.040	-0.270	0.100
2020/01/31 11:23:30.7	301.570	-0.010	-0.270	0.130
2020/01/31 11:23:30.8	301.580	0.020	-0.270	0.170
2020/01/31 11:23:30.9	301.600	0.050	-0.270	0.200
2020/01/31 11:23:31.0	301.620	0.080	-0.280	0.240
2020/01/31 11:23:31.1	301.630	0.100	-0.280	0.270
2020/01/31 11:23:31.2	301.650	0.130	-0.290	0.310
2020/01/31 11:23:31.3	301.660	0.160	-0.290	0.340
2020/01/31 11:23:31.4	301.680	0.190	-0.300	0.380
2020/01/31 11:23:31.5	301.720	0.210	-0.300	0.420
2020/01/31 11:23:31.6	301.730	0.230	-0.310	0.450
2020/01/31 11:23:31.7	301.750	0.260	-0.320	0.480
2020/01/31 11:23:31.8	301.770	0.280	-0.320	0.520
2020/01/31 11:23:31.9	301.780	0.300	-0.330	0.550
2020/01/31 11:23:32.0	301.800	0.320	-0.340	0.590
2020/01/31 11:23:32.1	301.810	0.330	-0.340	0.620
2020/01/31 11:23:32.2	301.820	0.350	-0.350	0.650
2020/01/31 11:23:32.3	301.830	0.360	-0.350	0.690
2020/01/31 11:23:32.4	301.840	0.370	-0.350	0.720
2020/01/31 11:23:32.5	301.860	0.380	-0.360	0.760
2020/01/31 11:23:32.6	301.870	0.390	-0.360	0.790
2020/01/31 11:23:32.7	301.880	0.400	-0.360	0.830
2020/01/31 11:23:32.8	301.880	0.400	-0.350	0.860
2020/01/31 11:23:32.9	301.890	0.410	-0.350	0.890
2020/01/31 11:23:33.0	301.890	0.410	-0.340	0.920
2020/01/31 11:23:33.1	301.890	0.410	-0.340	0.960
2020/01/31 11:23:33.2	301.890	0.410	-0.330	0.990
2020/01/31 11:23:33.3	301.890	0.400	-0.320	1.020
2020/01/31 11:23:33.4	301.890	0.400	-0.310	1.050
2020/01/31 11:23:33.5	301.880	0.390	-0.290	1.070
2020/01/31 11:23:33.6	301.870	0.380	-0.270	1.100
2020/01/31 11:23:33.7	301.870	0.380	-0.260	1.120
2020/01/31 11:23:33.8	301.860	0.370	-0.240	1.140
2020/01/31 11:23:33.9	301.850	0.360	-0.230	1.160
2020/01/31 11:23:34.0	301.840	0.340	-0.210	1.170
2020/01/31 11:23:34.1	301.830	0.330	-0.200	1.190
2020/01/31 11:23:34.2	301.820	0.320	-0.180	1.200
2020/01/31 11:23:34.3	301.810	0.310	-0.160	1.200
2020/01/31 11:23:34.4	301.800	0.290	-0.150	1.210
2020/01/31 11:23:34.5	301.780	0.280	-0.140	1.210
2020/01/31 11:23:34.6	301.770	0.270	-0.120	1.200
2020/01/31 11:23:34.7	301.760	0.250	-0.110	1.190
2020/01/31 11:23:34.8	301.750	0.240	-0.100	1.180
2020/01/31 11:23:34.9	301.740	0.220	-0.090	1.170
2020/01/31 11:23:35.0	301.730	0.210	-0.080	1.150
2020/01/31 11:23:35.1	301.720	0.190	-0.070	1.130
2020/01/31 11:23:35.2	301.710	0.180	-0.070	1.110
2020/01/31 11:23:35.3	301.690	0.160	-0.060	1.080
2020/01/31 11:23:35.4	301.680	0.150	-0.060	1.060
2020/01/31 11:23:35.5	301.670	0.130	-0.060	1.020
2020/01/31 11:23:35.6	301.660	0.120	-0.050	1.000
2020/01/31 11:23:35.7	301.650	0.100	-0.050	0.970
2020/01/31 11:23:35.8	301.630	0.090	-0.050	0.940
2020/01/31 11:23:35.9	301.620	0.080	-0.050	0.910
2020/01/31 11:23:36.0	301.610	0.060	-0.060	0.880
2020/01/31 11:23:36.1	301.600	0.050	-0.060	0.850
2020/01/31 11:23:36.2	301.580	0.030	-0.060	0.820
2020/01/31 11:23:36.3	301.570	0.020	-0.060	0.790
2020/01/31 11:23:36.4	301.560	0.000	-0.070	0.760
2020/01/31 11:23:36.5	301.550	-0.010	-0.070	0.730
2020/01/31 11:23:36.6	301.540	-0.030	-0.080	0.710
2020/01/31 11:23:36.7	301.530	-0.040	-0.080	0.680
2020/01/31 11:23:36.8	301.520	-0.060	-0.090	0.660
2020/01/31 11:23:36.9	301.510	-0.070	-0.090	0.630
2020/01/31 11:23:37.0	301.500	-0.090	-0.100	0.610
2020/01/31 11:23:37.1	301.490	-0.100	-0.100	0.590
2020/01/31 11:23:37.2	301.480	-0.120	-0.110	0.570
2020/01/31 11:23:37.3	301.470	-0.140	-0.110	0.550
2020/01/31 11:23:37.4	301.460	-0.150	-0.120	0.530
2020/01/31 11:23:37.5	301.450	-0.170	-0.120	0.510
2020/01/31 11:23:37.6	301.440	-0.180	-0.120	0.490
2020/01/31 11:23:37.7	301.440	-0.200	-0.130	0.480
2020/01/31 11:23:37.8	301.430	-0.210	-0.130	0.460
2020/01/31 11:23:37.9	301.430	-0.220	-0.130	0.450
2020/01/31 11:23:38.0	301.430	-0.240	-0.130	0.440
2020/01/31 11:23:38.1	301.420	-0.250	-0.130	0.430
2020/01/31 11:23:38.2	301.420	-0.260	-0.130	0.420
2020/01/31 11:23:38.3	301.420	-0.280	-0.130	0.410
2020/01/31 11:23:38.4	301.410	-0.290	-0.130	0.400
2020/01/31 11:23:38.5	301.390	-0.300	-0.130	0.390
2020/01/31 11:23:38.6	301.390	-0.310	-0.130	0.390
2020/01/31 11:23:38.7	301.390	-0.310	-0.120	0.380
2020/01/31 11:23:38.8	301.390	-0.320	-0.120	0.380
2020/01/31 11:23:38.9	301.390	-0.330	-0.120	0.370
2020/01/31 11:23:39.0	301.380	-0.330	-0.120	0.370
2020/01/31 11:23:39.1	301.380	-0.340	-0.120	0.370
2020/01/31 11:23:39.2	301.380	-0.340	-0.110	0.370
2020/01/31 11:23:39.3	301.380	-0.340	-0.110	0.370
2020/01/31 11:23:39.4	301.380	-0.340	-0.110	0.370
2020/01/31 11:23:39.5	301.370	-0.340	-0.110	0.370
2020/01/31 11:23:39.6	301.370	-0.340	-0.110	0.370
2020/01/31 11:23:39.7	301.370	-0.340	-0.120	0.370
2020/01/31 11:23:39.8	301.370	-0.330	-0.120	0.370
2020/01/31 11:23:39.9	301.370	-0.330	-0.120	0.370
2020/01/31 11:23:40.0	301.370	-0.320	-0.130	0.370
2020/01/31 11:23:40.1	301.370	-0.310	-0.130	0.380
2020/01/31 11:23:40.2	301.370	-0.300	-0.140	0.380
2020/01/31 11:23:40.3	301.370	-0.290	-0.150	0.380
2020/01/31 11:23:40.4	301.380	-0.280	-0.160	0.380
2020/01/31 11:23:40.5	301.380	-0.270	-0.170	0.380
2020/01/31 11:23:40.6	301.380	-0.250	-0.190	0.380
2020/01/31 11:23:40.7	301.380	-0.240	-0.200	0.380
2020/01/31 11:23:40.8	301.390	-0.230	-0.220	0.380
2020/01/31 11:23:40.9	301.390	-0.210	-0.240	0.380
2020/01/31 11:23:41.0	301.400	-0.200	-0.260	0.380
2020/01/31 11:23:41.1	301.410	-0.180	-0.280	0.380
2020/01/31 11:23:41.2	301.420	-0.160	-0.300	0.380
2020/01/31 11:23:41.3	301.420	-0.150	-0.320	0.380
2020/01/31 11:23:41.4	301.430	-0.130	-0.340	0.390
2020/01/31 11:23:41.5	301.440	-0.110	-0.370	0.390
2020/01/31 11:23:41.6	301.450	-0.100	-0.390	0.390
2020/01/31 11:23:41.7	301.460	-0.080	-0.410	0.400
2020/01/31 11:23:41.8	301.470	-0.060	-0.440	0.400
2020/01/31 11:23:41.9	301.480	-0.050	-0.460	0.410
2020/01/31 11:23:42.0	301.490	-0.030	-0.480	0.420
2020/01/31 11:23:42.1	301.500	-0.020	-0.500	0.420
2020/01/31 11:23:42.2	301.520	-0.000	-0.530	0.430
2020/01/31 11:23:42.3	301.530	0.010	-0.550	0.450
2020/01/31 11:23:42.4	301.540	0.030	-0.560	0.460
2020/01/31 11:23:42.5	301.560	0.050	-0.580	0.470
2020/01/31 11:23:42.6	301.570	0.060	-0.590	0.490
2020/01/31 11:23:42.7	301.580	0.070	-0.610	0.510
2020/01/31 11:23:42.8	301.590	0.090	-0.620	0.530
2020/01/31 11:23:42.9	301.600	0.100	-0.630	0.550
2020/01/31 11:23:43.0	301.610	0.110	-0.630	0.570
2020/01/31 11:23:43.1	301.620	0.130	-0.640	0.590
2020/01/31 11:23:43.2	301.630	0.140	-0.640	0.620
2020/01/31 11:23:43.3	301.640	0.150	-0.640	0.650
2020/01/31 11:23:43.4	301.640	0.160	-0.640	0.670
2020/01/31 11:23:43.5	301.660	0.170	-0.630	0.710
2020/01/31 11:23:43.6	301.660	0.190	-0.620	0.730
2020/01/31 11:23:43.7	301.670	0.200	-0.610	0.760
2020/01/31 11:23:43.8	301.670	0.210	-0.610	0.790
2020/01/31 11:23:43.9	301.670	0.220	-0.590	0.820
2020/01/31 11:23:44.0	301.670	0.230	-0.580	0.840
2020/01/31 11:23:44.1	301.670	0.240	-0.570	0.870
2020/01/31 11:23:44.2	301.670	0.250	-0.550	0.900
2020/01/31 11:23:44.3	301.670	0.250	-0.540	0.920
2020/01/31 11:23:44.4	301.660	0.260	-0.520	0.940
2020/01/31 11:23:44.5	301.670	0.270	-0.510	0.970
2020/01/31 11:23:44.6	301.670	0.280	-0.490	0.990
2020/01/31 11:23:44.7	301.660	0.290	-0.470	1.010
2020/01/31 11:23:44.8	301.660	0.290	-0.460	1.030
2020/01/31 11:23:44.9	301.660	0.300	-0.440	1.050
2020/01/31 11:23:45.0	301.650	0.300	-0.430	1.060
2020/01/31 11:23:45.1	301.650	0.310	-0.410	1.080
2020/01/31 11:23:45.2	301.640	0.310	-0.400	1.100
2020/01/31 11:23:45.3	301.640	0.320	-0.390	1.110
2020/01/31 11:23:45.4	301.630	0.320	-0.370	1.120
2020/01/31 11:23:45.5	301.630	0.320	-0.360	1.130
2020/01/31 11:23:45.6	301.630	0.320	-0.340	1.140
2020/01/31 11:23:45.7	301.620	0.330	-0.330	1.150
2020/01/31 11:23:45.8	301.610	0.330	-0.320	1.160
2020/01/31 11:23:45.9	301.610	0.330	-0.310	1.160
2020/01/31 11:23:46.0	301.600	0.320	-0.290	1.160
2020/01/31 11:23:46.1	301.590	0.320	-0.280	1.170
2020/01/31 11:23:46.2	301.590	0.320	-0.270	1.170
2020/01/31 11:23:46.3	301.580	0.310	-0.260	1.170
2020/01/31 11:23:46.4	301.570	0.310	-0.250	1.170
2020/01/31 11:23:46.5	301.560	0.300	-0.230	1.170
2020/01/31 11:23:46.6	301.550	0.300	-0.220	1.160
2020/01/31 11:23:46.7	301.540	0.290	-0.210	1.160
2020/01/31 11:23:46.8	301.530	0.280	-0.190	1.150
2020/01/31 11:23:46.9	301.520	0.270	-0.180	1.150
2020/01/31 11:23:47.0	301.510	0.260	-0.170	1.140
2020/01/31 11:23:47.1	301.500	0.250	-0.160	1.130
2020/01/31 11:23:47.2	301.490	0.240	-0.140	1.110
2020/01/31 11:23:47.3	301.480	0.220	-0.130	1.100
2020/01/31 11:23:47.4	301.470	0.210	-0.120	1.080
2020/01/31 11:23:47.5	301.460	0.190	-0.100	1.060
2020/01/31 11:23:47.6	301.460	0.180	-0.090	1.040
2020/01/31 11:23:47.7	301.450	0.160	-0.080	1.020
2020/01/31 11:23:47.8	301.450	0.140	-0.070	0.990
2020/01/31 11:23:47.9	301.440	0.120	-0.050	0.960
2020/01/31 11:23:48.0	301.440	0.110	-0.040	0.930
2020/01/31 11:23:48.1	301.440	0.090	-0.030	0.900
2020/01/31 11:23:48.2	301.440	0.070	-0.020	0.860
2020/01/31 11:23:48.3	301.440	0.050	-0.000	0.820
2020/01/31 11:23:48.4	301.440	0.030	0.010	0.780
2020/01/31 11:23:48.5	301.440	0.000	0.020	0.740
2020/01/31 11:23:48.6	301.440	-0.020	0.030	0.690
2020/01/31 11:23:48.7	301.450	-0.040	0.040	0.650
2020/01/31 11:23:48.8	301.450	-0.060	0.060	0.600
2020/01/31 11:23:48.9	301.450	-0.080	0.070	0.560
2020/01/31 11:23:49.0	301.460	-0.100	0.080	0.510
2020/01/31 11:23:49.1	301.460	-0.120	0.090	0.470
2020/01/31 11:23:49.2	301.470	-0.140	0.100	0.420
2020/01/31 11:23:49.3	301.470	-0.160	0.110	0.380
2020/01/31 11:23:49.4	301.480	-0.180	0.130	0.330
2020/01/31 11:23:49.5	301.480	-0.200	0.140	0.290
2020/01/31 11:23:49.6	301.490	-0.220	0.150	0.250
2020/01/31 11:23:49.7	301.490	-0.230	0.160	0.210
2020/01/31 11:23:49.8	301.490	-0.250	0.170	0.180
2020/01/31 11:23:49.9	301.490	-0.260	0.190	0.150
2020/01/31 11:23:50.0	301.490	-0.270	0.200	0.120
2020/01/31 11:23:50.1	301.490	-0.280	0.210	0.090
2020/01/31 11:23:50.2	301.480	-0.290	0.220	0.070
2020/01/31 11:23:50.3	301.480	-0.300	0.230	0.040
2020/01/31 11:23:50.4	301.470	-0.310	0.230	0.030
2020/01/31 11:23:50.5	301.460	-0.310	0.240	0.010
2020/01/31 11:23:50.6	301.460	-0.320	0.240	-0.000
2020/01/31 11:23:50.7	301.450	-0.320	0.240	-0.010
2020/01/31 11:23:50.8	301.440	-0.320	0.240	-0.020
2020/01/31 11:23:50.9	301.420	-0.320	0.240	-0.020
2020/01/31 11:23:51.0	301.410	-0.320	0.230	-0.020
2020/01/31 11:23:51.1	301.390	-0.320	0.230	-0.020
2020/01/31 11:23:51.2	301.380	-0.310	0.220	-0.010
2020/01/31 11:23:51.3	301.360	-0.310	0.200	-0.010
2020/01/31 11:23:51.4	301.340	-0.300	0.190	0.000
2020/01/31 11:23:51.5	301.320	-0.290	0.170	0.010
2020/01/31 11:23:51.6	301.300	-0.280	0.140	0.030
2020/01/31 11:23:51.7	301.280	-0.270	0.120	0.050
2020/01/31 11:23:51.8	301.260	-0.260	0.090	0.070
2020/01/31 11:23:51.9	301.240	-0.250	0.060	0.090
2020/01/31 11:23:52.0	301.220	-0.240	0.030	0.110
2020/01/31 11:23:52.1	301.200	-0.230	-0.010	0.130
2020/01/31 11:23:52.2	301.170	-0.220	-0.050	0.160
2020/01/31 11:23:52.3	301.150	-0.200	-0.090	0.180
2020/01/31 11:23:52.4	301.130	-0.190	-0.130	0.210
2020/01/31 11:23:52.5	301.100	-0.180	-0.170	0.240
2020/01/31 11:23:52.6	301.080	-0.170	-0.210	0.270
2020/01/31 11:23:52.7	301.050	-0.150	-0.260	0.290
2020/01/31 11:23:52.8	301.040	-0.140	-0.310	0.320
2020/01/31 11:23:52.9	301.020	-0.130	-0.350	0.350
2020/01/31 11:23:53.0	301.000	-0.120	-0.400	0.380
2020/01/31 11:23:53.1	300.980	-0.110	-0.450	0.400
2020/01/31 11:23:53.2	300.970	-0.090	-0.500	0.430
2020/01/31 11:23:53.3	300.950	-0.080	-0.540	0.450
2020/01/31 11:23:53.4	300.940	-0.070	-0.590	0.480
2020/01/31 11:23:53.5	300.930	-0.070	-0.630	0.500
2020/01/31 11:23:53.6	300.920	-0.060	-0.680	0.520
2020/01/31 11:23:53.7	300.910	-0.050	-0.720	0.540
2020/01/31 11:23:53.8	300.900	-0.040	-0.750	0.560
2020/01/31 11:23:53.9	300.890	-0.040	-0.790	0.580
2020/01/31 11:23:54.0	300.890	-0.040	-0.820	0.590
2020/01/31 11:23:54.1	300.880	-0.030	-0.850	0.610
2020/01/31 11:23:54.2	300.880	-0.030	-0.870	0.630
2020/01/31 11:23:54.3	300.870	-0.030	-0.890	0.640
2020/01/31 11:23:54.4	300.870	-0.030	-0.910	0.650
2020/01/31 11:23:54.5	300.880	-0.030	-0.920	0.660
2020/01/31 11:23:54.6	300.880	-0.030	-0.930	0.680
2020/01/31 11:23:54.7	300.880	-0.030	-0.930	0.690
2020/01/31 11:23:54.8	300.880	-0.030	-0.930	0.690
2020/01/31 11:23:54.9	300.880	-0.040	-0.930	0.700
2020/01/31 11:23:55.0	300.890	-0.040	-0.920	0.710
2020/01/31 11:23:55.1	300.890	-0.050	-0.910	0.710
2020/01/31 11:23:55.2	300.900	-0.050	-0.900	0.720
2020/01/31 11:23:55.3	300.910	-0.060	-0.880	0.720
2020/01/31 11:23:55.4	300.920	-0.060	-0.860	0.720
2020/01/31 11:23:55.5	300.930	-0.070	-0.840	0.720
2020/01/31 11:23:55.6	300.940	-0.070	-0.810	0.720
2020/01/31 11:23:55.7	300.950	-0.080	-0.780	0.720
2020/01/31 11:23:55.8	300.960	-0.080	-0.750	0.720
2020/01/31 11:23:55.9	300.980	-0.090	-0.720	0.710
2020/01/31 11:23:56.0	300.990	-0.090	-0.680	0.710
2020/01/31 11:23:56.1	301.010	-0.100	-0.640	0.700
2020/01/31 11:23:56.2	301.020	-0.100	-0.600	0.690
2020/01/31 11:23:56.3	301.030	-0.100	-0.570	0.690
2020/01/31 11:23:56.4	301.050	-0.100	-0.520	0.680
2020/01/31 11:23:56.5	301.070	-0.110	-0.480	0.680
2020/01/31 11:23:56.6	301.080	-0.110	-0.440	0.670
2020/01/31 11:23:56.7	301.100	-0.110	-0.400	0.670
2020/01/31 11:23:56.8	301.110	-0.110	-0.360	0.670
2020/01/31 11:23:56.9	301.120	-0.110	-0.320	0.660
2020/01/31 11:23:57.0	301.130	-0.110	-0.290	0.660
2020/01/31 11:23:57.1	301.140	-0.100	-0.250	0.660
2020/01/31 11:23:57.2	301.150	-0.100	-0.210	0.660
2020/01/31 11:23:57.3	301.160	-0.100	-0.180	0.660
2020/01/31 11:23:57.4	301.160	-0.090	-0.150	0.660
2020/01/31 11:23:57.5	301.170	-0.090	-0.120	0.660
2020/01/31 11:23:57.6	301.170	-0.080	-0.090	0.670
2020/01/31 11:23:57.7	301.180	-0.070	-0.060	0.670
2020/01/31 11:23:57.8	301.180	-0.070	-0.030	0.670
2020/01/31 11:23:57.9	301.180	-0.060	-0.010	0.680
2020/01/31 11:23:58.0	301.180	-0.050	0.010	0.690
2020/01/31 11:23:58.1	301.180	-0.040	0.030	0.700
2020/01/31 11:23:58.2	301.180	-0.030	0.050	0.710
2020/01/31 11:23:58.3	301.180	-0.020	0.070	0.720
2020/01/31 11:23:58.4	301.170	-0.010	0.080	0.730
2020/01/31 11:23:58.5	301.160	-0.000	0.090	0.740
2020/01/31 11:23:58.6	301.150	0.010	0.100	0.750
2020/01/31 11:23:58.7	301.140	0.020	0.110	0.760
2020/01/31 11:23:58.8	301.130	0.030	0.120	0.780
2020/01/31 11:23:58.9	301.120	0.040	0.120	0.790
2020/01/31 11:23:59.0	301.110	0.050	0.120	0.810
2020/01/31 11:23:59.1	301.100	0.060	0.130	0.820
2020/01/31 11:23:59.2	301.090	0.080	0.120	0.840
2020/01/31 11:23:59.3	301.080	0.090	0.120	0.850
2020/01/31 11:23:59.4	301.060	0.100	0.120	0.870
2020/01/31 11:23:59.5	301.060	0.110	0.110	0.880
2020/01/31 11:23:59.6	301.040	0.120	0.100	0.900
2020/01/31 11:23:59.7	301.030	0.130	0.100	0.910
2020/01/31 11:23:59.8	301.010	0.140	0.090	0.920
2020/01/31 11:23:59.9	301.000	0.150	0.080	0.940
2020/01/31 11:24:00.0	300.980	0.160	0.060	0.950
2020/01/31 11:24:00.1	300.970	0.180	0.050	0.960
2020/01/31 11:24:00.2	300.950	0.190	0.040	0.970
2020/01/31 11:24:00.3	300.940	0.200	0.020	0.980
2020/01/31 11:24:00.4	300.920	0.210	0.000	0.990
2020/01/31 11:24:00.5	300.910	0.220	-0.010	0.990
2020/01/31 11:24:00.6	300.890	0.230	-0.030	1.000
2020/01/31 11:24:00.7	300.880	0.240	-0.050	1.010
2020/01/31 11:24:00.8	300.860	0.250	-0.070	1.010
2020/01/31 11:24:00.9	300.850	0.260	-0.090	1.010
2020/01/31 11:24:01.0	300.840	0.280	-0.110	1.020
2020/01/31 11:24:01.1	300.830	0.290	-0.130	1.020
2020/01/31 11:24:01.2	300.810	0.300	-0.150	1.020
2020/01/31 11:24:01.3	300.800	0.310	-0.170	1.030
2020/01/31 11:24:01.4	300.790	0.320	-0.200	1.030
2020/01/31 11:24:01.5	300.790	0.330	-0.220	1.020
2020/01/31 11:24:01.6	300.780	0.340	-0.240	1.020
2020/01/31 11:24:01.7	300.770	0.340	-0.260	1.020
2020/01/31 11:24:01.8	300.760	0.350	-0.280	1.010
2020/01/31 11:24:01.9	300.750	0.360	-0.310	1.010
2020/01/31 11:24:02.0	300.750	0.360	-0.330	1.000
2020/01/31 11:24:02.1	300.740	0.370	-0.340	0.990
2020/01/31 11:24:02.2	300.740	0.370	-0.360	0.980
2020/01/31 11:24:02.3	300.730	0.380	-0.380	0.960
2020/01/31 11:24:02.4	300.730	0.380	-0.400	0.950
2020/01/31 11:24:02.5	300.730	0.380	-0.410	0.930
2020/01/31 11:24:02.6	300.730	0.380	-0.420	0.910
2020/01/31 11:24:02.7	300.720	0.380	-0.440	0.890
2020/01/31 11:24:02.8	300.720	0.380	-0.450	0.870
2020/01/31 11:24:02.9	300.720	0.370	-0.460	0.850
2020/01/31 11:24:03.0	300.710	0.370	-0.460	0.830
2020/01/31 11:24:03.1	300.710	0.360	-0.470	0.810
2020/01/31 11:24:03.2	300.710	0.350	-0.470	0.790
2020/01/31 11:24:03.3	300.710	0.340	-0.470	0.770
2020/01/31 11:24:03.4	300.700	0.330	-0.470	0.750
2020/01/31 11:24:03.5	300.700	0.310	-0.470	0.730
2020/01/31 11:24:03.6	300.690	0.300	-0.460	0.710
2020/01/31 11:24:03.7	300.690	0.280	-0.450	0.690
2020/01/31 11:24:03.8	300.690	0.260	-0.440	0.670
2020/01/31 11:24:03.9	300.680	0.240	-0.430	0.650
2020/01/31 11:24:04.0	300.680	0.220	-0.410	0.640
2020/01/31 11:24:04.1	300.680	0.200	-0.400	0.620
2020/01/31 11:24:04.2	300.670	0.180	-0.380	0.600
2020/01/31 11:24:04.3	300.670	0.150	-0.360	0.580
2020/01/31 11:24:04.4	300.670	0.120	-0.340	0.570
2020/01/31 11:24:04.5	300.670	0.100	-0.320	0.550
2020/01/31 11:24:04.6	300.660	0.070	-0.290	0.540
2020/01/31 11:24:04.7	300.660	0.040	-0.270	0.520
2020/01/31 11:24:04.8	300.660	0.010	-0.240	0.510
2020/01/31 11:24:04.9	300.650	-0.020	-0.210	0.490
2020/01/31 11:24:05.0	300.650	-0.060	-0.180	0.480
2020/01/31 11:24:05.1	300.650	-0.090	-0.150	0.470
2020/01/31 11:24:05.2	300.650	-0.120	-0.130	0.460
2020/01/31 11:24:05.3	300.640	-0.150	-0.100	0.440
2020/01/31 11:24:05.4	300.640	-0.190	-0.070	0.430
2020/01/31 11:24:05.5	300.630	-0.220	-0.040	0.420
2020/01/31 11:24:05.6	300.630	-0.250	-0.010	0.410
2020/01/31 11:24:05.7	300.630	-0.280	0.010	0.400
2020/01/31 11:24:05.8	300.630	-0.320	0.040	0.390
2020/01/31 11:24:05.9	300.630	-0.350	0.060	0.380
2020/01/31 11:24:06.0	300.620	-0.380	0.080	0.380
2020/01/31 11:24:06.1	300.620	-0.410	0.090	0.370
2020/01/31 11:24:06.2	300.620	-0.430	0.110	0.360
2020/01/31 11:24:06.3	300.620	-0.460	0.120	0.360
2020/01/31 11:24:06.4	300.610	-0.490	0.140	0.350
2020/01/31 11:24:06.5	300.610	-0.510	0.140	0.350
2020/01/31 11:24:06.6	300.610	-0.530	0.150	0.340
2020/01/31 11:24:06.7	300.600	-0.550	0.150	0.340
2020/01/31 11:24:06.8	300.600	-0.570	0.150	0.340
2020/01/31 11:24:06.9	300.590	-0.590	0.150	0.340
2020/01/31 11:24:07.0	300.580	-0.600	0.140	0.340
2020/01/31 11:24:07.1	300.580	-0.610	0.140	0.350
2020/01/31 11:24:07.2	300.570	-0.620	0.120	0.350
2020/01/31 11:24:07.3	300.560	-0.630	0.110	0.350
2020/01/31 11:24:07.4	300.550	-0.640	0.090	0.360
2020/01/31 11:24:07.5	300.530	-0.640	0.070	0.370
2020/01/31 11:24:07.6	300.520	-0.640	0.050	0.370
2020/01/31 11:24:07.7	300.510	-0.640	0.020	0.380
2020/01/31 11:24:07.8	300.500	-0.640	-0.010	0.390
2020/01/31 11:24:07.9	300.490	-0.630	-0.040	0.400
2020/01/31 11:24:08.0	300.480	-0.620	-0.070	0.400
2020/01/31 11:24:08.1	300.470	-0.610	-0.110	0.410
2020/01/31 11:24:08.2	300.450	-0.600	-0.150	0.420
2020/01/31 11:24:08.3	300.440	-0.580	-0.190	0.430
2020/01/31 11:24:08.4	300.430	-0.560	-0.240	0.440
2020/01/31 11:24:08.5	300.420	-0.540	-0.280	0.440
2020/01/31 11:24:08.6	300.410	-0.520	-0.320	0.450
2020/01/31 11:24:08.7	300.400	-0.500	-0.370	0.460
2020/01/31 11:24:08.8	300.390	-0.470	-0.420	0.470
2020/01/31 11:24:08.9	300.380	-0.440	-0.460	0.480
2020/01/31 11:24:09.0	300.370	-0.410	-0.510	0.490
2020/01/31 11:24:09.1	300.360	-0.380	-0.550	0.510
2020/01/31 11:24:09.2	300.350	-0.350	-0.600	0.520
2020/01/31 11:24:09.3	300.350	-0.320	-0.640	0.530
2020/01/31 11:24:09.4	300.340	-0.290	-0.680	0.540
2020/01/31 11:24:09.5	300.320	-0.250	-0.720	0.560
2020/01/31 11:24:09.6	300.310	-0.220	-0.750	0.570
2020/01/31 11:24:09.7	300.310	-0.180	-0.790	0.590
2020/01/31 11:24:09.8	300.300	-0.150	-0.820	0.600
2020/01/31 11:24:09.9	300.300	-0.110	-0.840	0.620
2020/01/31 11:24:10.0	300.290	-0.080	-0.860	0.640
2020/01/31 11:24:10.1	300.290	-0.040	-0.880	0.660
2020/01/31 11:24:10.2	300.290	-0.010	-0.890	0.680
2020/01/31 11:24:10.3	300.290	0.030	-0.900	0.700
2020/01/31 11:24:10.4	300.280	0.060	-0.900	0.720
2020/01/31 11:24:10.5	300.300	0.090	-0.900	0.750
2020/01/31 11:24:10.6	300.300	0.120	-0.890	0.780
2020/01/31 11:24:10.7	300.300	0.150	-0.880	0.800
2020/01/31 11:24:10.8	300.300	0.180	-0.870	0.830
2020/01/31 11:24:10.9	300.300	0.210	-0.850	0.870
2020/01/31 11:24:11.0	300.300	0.230	-0.820	0.900
2020/01/31 11:24:11.1	300.290	0.260	-0.800	0.930
2020/01/31 11:24:11.2	300.300	0.280	-0.760	0.960
2020/01/31 11:24:11.3	300.300	0.300	-0.730	1.000
2020/01/31 11:24:11.4	300.300	0.320	-0.690	1.030
2020/01/31 11:24:11.5	300.310	0.340	-0.640	1.070
2020/01/31 11:24:11.6	300.310	0.350	-0.600	1.100
2020/01/31 11:24:11.7	300.310	0.370	-0.550	1.130
2020/01/31 11:24:11.8	300.310	0.380	-0.510	1.160
2020/01/31 11:24:11.9	300.310	0.390	-0.460	1.200
2020/01/31 11:24:12.0	300.310	0.400	-0.400	1.230
2020/01/31 11:24:12.1	300.310	0.400	-0.350	1.260
2020/01/31 11:24:12.2	300.320	0.410	-0.300	1.290
2020/01/31 11:24:12.3	300.320	0.410	-0.250	1.320
2020/01/31 11:24:12.4	300.320	0.420	-0.200	1.340
2020/01/31 11:24:12.5	300.310	0.420	-0.150	1.370
2020/01/31 11:24:12.6	300.300	0.420	-0.090	1.400
2020/01/31 11:24:12.7	300.300	0.420	-0.040	1.420
2020/01/31 11:24:12.8	300.300	0.410	0.000	1.440
2020/01/31 11:24:12.9	300.300	0.410	0.050	1.460
2020/01/31 11:24:13.0	300.290	0.400	0.100	1.480
2020/01/31 11:24:13.1	300.290	0.400	0.140	1.490
2020/01/31 11:24:13.2	300.290	0.390	0.180	1.510
2020/01/31 11:24:13.3	300.290	0.380	0.210	1.520
2020/01/31 11:24:13.4	300.280	0.370	0.250	1.530
2020/01/31 11:24:13.5	300.280	0.370	0.280	1.530
2020/01/31 11:24:13.6	300.280	0.360	0.300	1.530
2020/01/31 11:24:13.7	300.280	0.350	0.330	1.530
2020/01/31 11:24:13.8	300.280	0.330	0.350	1.530
2020/01/31 11:24:13.9	300.280	0.320	0.360	1.520
2020/01/31 11:24:14.0	300.280	0.310	0.370	1.510
2020/01/31 11:24:14.1	300.280	0.300	0.380	1.500
2020/01/31 11:24:14.2	300.280	0.290	0.390	1.480
2020/01/31 11:24:14.3	300.290	0.280	0.390	1.470
2020/01/31 11:24:14.4	300.290	0.270	0.380	1.440
2020/01/31 11:24:14.5	300.300	0.250	0.380	1.420
2020/01/31 11:24:14.6	300.300	0.240	0.360	1.390
2020/01/31 11:24:14.7	300.300	0.230	0.350	1.370
2020/01/31 11:24:14.8	300.310	0.220	0.330	1.340
2020/01/31 11:24:14.9	300.310	0.210	0.310	1.310
2020/01/31 11:24:15.0	300.310	0.200	0.290	1.280
2020/01/31 11:24:15.1	300.320	0.190	0.260	1.240
2020/01/31 11:24:15.2	300.320	0.180	0.230	1.210
2020/01/31 11:24:15.3	300.320	0.170	0.200	1.170
2020/01/31 11:24:15.4	300.330	0.160	0.170	1.140
2020/01/31 11:24:15.5	300.330	0.160	0.130	1.100
2020/01/31 11:24:15.6	300.330	0.150	0.090	1.060
2020/01/31 11:24:15.7	300.340	0.140	0.050	1.020
2020/01/31 11:24:15.8	300.340	0.130	0.010	0.970
2020/01/31 11:24:15.9	300.340	0.130	-0.030	0.930
2020/01/31 11:24:16.0	300.340	0.120	-0.080	0.880
2020/01/31 11:24:16.1	300.340	0.120	-0.120	0.840
2020/01/31 11:24:16.2	300.340	0.110	-0.170	0.790
2020/01/31 11:24:16.3	300.350	0.110	-0.220	0.740
2020/01/31 11:24:16.4	300.350	0.100	-0.260	0.690
2020/01/31 11:24:16.5	300.350	0.100	-0.310	0.640
2020/01/31 11:24:16.6	300.350	0.100	-0.350	0.590
2020/01/31 11:24:16.7	300.350	0.090	-0.390	0.540
2020/01/31 11:24:16.8	300.360	0.090	-0.440	0.490
2020/01/31 11:24:16.9	300.370	0.090	-0.480	0.450
2020/01/31 11:24:17.0	300.370	0.080	-0.520	0.400
2020/01/31 11:24:17.1	300.380	0.080	-0.550	0.350
2020/01/31 11:24:17.2	300.380	0.080	-0.590	0.300
2020/01/31 11:24:17.3	300.390	0.080	-0.620	0.260
2020/01/31 11:24:17.4	300.400	0.070	-0.650	0.220
2020/01/31 11:24:17.5	300.400	0.070	-0.680	0.170
2020/01/31 11:24:17.6	300.400	0.070	-0.700	0.130
2020/01/31 11:24:17.7	300.410	0.060	-0.720	0.090
2020/01/31 11:24:17.8	300.410	0.060	-0.740	0.060
2020/01/31 11:24:17.9	300.410	0.050	-0.750	0.030
2020/01/31 11:24:18.0	300.420	0.040	-0.760	-0.010
2020/01/31 11:24:18.1	300.420	0.040	-0.760	-0.030
2020/01/31 11:24:18.2	300.420	0.030	-0.760	-0.060
2020/01/31 11:24:18.3	300.420	0.020	-0.760	-0.080
2020/01/31 11:24:18.4	300.410	0.000	-0.750	-0.100
2020/01/31 11:24:18.5	300.400	-0.010	-0.740	-0.120
2020/01/31 11:24:18.6	300.390	-0.020	-0.720	-0.130
2020/01/31 11:24:18.7	300.380	-0.040	-0.700	-0.140
2020/01/31 11:24:18.8	300.380	-0.050	-0.680	-0.140
2020/01/31 11:24:18.9	300.370	-0.070	-0.660	-0.150
2020/01/31 11:24:19.0	300.360	-0.090	-0.630	-0.150
2020/01/31 11:24:19.1	300.340	-0.110	-0.600	-0.140
2020/01/31 11:24:19.2	300.330	-0.130	-0.560	-0.130
2020/01/31 11:24:19.3	300.320	-0.150	-0.530	-0.120
2020/01/31 11:24:19.4	300.300	-0.170	-0.490	-0.110
2020/01/31 11:24:19.5	300.290	-0.200	-0.450	-0.090
2020/01/31 11:24:19.6	300.270	-0.220	-0.410	-0.070
2020/01/31 11:24:19.7	300.260	-0.240	-0.370	-0.050
2020/01/31 11:24:19.8	300.240	-0.260	-0.330	-0.030
2020/01/31 11:24:19.9	300.220	-0.290	-0.300	-0.000
2020/01/31 11:24:20.0	300.210	-0.310	-0.260	0.020
2020/01/31 11:24:20.1	300.190	-0.330	-0.220	0.050
2020/01/31 11:24:20.2	300.180	-0.350	-0.190	0.080
2020/01/31 11:24:20.3	300.160	-0.370	-0.160	0.110
2020/01/31 11:24:20.4	300.150	-0.390	-0.130	0.140
2020/01/31 11:24:20.5	300.140	-0.410	-0.100	0.170
2020/01/31 11:24:20.6	300.120	-0.430	-0.070	0.200
2020/01/31 11:24:20.7	300.110	-0.450	-0.050	0.230
2020/01/31 11:24:20.8	300.100	-0.460	-0.030	0.260
2020/01/31 11:24:20.9	300.080	-0.480	-0.020	0.290
2020/01/31 11:24:21.0	300.070	-0.490	-0.000	0.320
2020/01/31 11:24:21.1	300.060	-0.500	0.010	0.350
2020/01/31 11:24:21.2	300.050	-0.510	0.010	0.370
2020/01/31 11:24:21.3	300.040	-0.520	0.020	0.400
2020/01/31 11:24:21.4	300.030	-0.520	0.020	0.430
2020/01/31 11:24:21.5	300.010	-0.530	0.020	0.460
2020/01/31 11:24:21.6	300.010	-0.530	0.020	0.480
2020/01/31 11:24:21.7	300.000	-0.530	0.010	0.510
2020/01/31 11:24:21.8	299.990	-0.530	0.010	0.530
2020/01/31 11:24:21.9	299.990	-0.530	-0.010	0.550
2020/01/31 11:24:22.0	299.980	-0.530	-0.020	0.570
2020/01/31 11:24:22.1	299.980	-0.520	-0.030	0.600
2020/01/31 11:24:22.2	299.970	-0.510	-0.040	0.620
2020/01/31 11:24:22.3	299.970	-0.510	-0.060	0.630
2020/01/31 11:24:22.4	299.970	-0.500	-0.080	0.650
2020/01/31 11:24:22.5	299.980	-0.480	-0.090	0.670
2020/01/31 11:24:22.6	299.980	-0.470	-0.110	0.690
2020/01/31 11:24:22.7	299.980	-0.460	-0.130	0.710
2020/01/31 11:24:22.8	299.980	-0.440	-0.140	0.720
2020/01/31 11:24:22.9	299.980	-0.420	-0.160	0.740
2020/01/31 11:24:23.0	299.980	-0.400	-0.180	0.760
2020/01/31 11:24:23.1	299.990	-0.380	-0.190	0.770
2020/01/31 11:24:23.2	299.990	-0.360	-0.200	0.790
2020/01/31 11:24:23.3	299.990	-0.340	-0.220	0.800
2020/01/31 11:24:23.4	300.000	-0.320	-0.230	0.820
2020/01/31 11:24:23.5	300.010	-0.290	-0.240	0.840
2020/01/31 11:24:23.6	300.010	-0.270	-0.250	0.850
2020/01/31 11:24:23.7	300.020	-0.240	-0.260	0.870
2020/01/31 11:24:23.8	300.020	-0.220	-0.270	0.880
2020/01/31 11:24:23.9	300.030	-0.190	-0.280	0.900
2020/01/31 11:24:24.0	300.040	-0.160	-0.290	0.910
2020/01/31 11:24:24.1	300.040	-0.130	-0.300	0.930
2020/01/31 11:24:24.2	300.050	-0.100	-0.300	0.940
2020/01/31 11:24:24.3	300.060	-0.070	-0.310	0.960
2020/01/31 11:24:24.4	300.060	-0.040	-0.310	0.970
2020/01/31 11:24:24.5	300.060	-0.010	-0.320	0.980
2020/01/31 11:24:24.6	300.070	0.020	-0.320	0.990
2020/01/31 11:24:24.7	300.080	0.050	-0.320	1.010
2020/01/31 11:24:24.8	300.090	0.080	-0.330	1.020
2020/01/31 11:24:24.9	300.100	0.110	-0.330	1.030
2020/01/31 11:24:25.0	300.100	0.140	-0.330	1.040
2020/01/31 11:24:25.1	300.110	0.170	-0.320	1.050
2020/01/31 11:24:25.2	300.120	0.200	-0.320	1.060
2020/01/31 11:24:25.3	300.130	0.230	-0.320	1.070
2020/01/31 11:24:25.4	300.140	0.260	-0.310	1.080
2020/01/31 11:24:25.5	300.160	0.290	-0.300	1.080
2020/01/31 11:24:25.6	300.170	0.320	-0.300	1.090
2020/01/31 11:24:25.7	300.170	0.350	-0.290	1.100
2020/01/31 11:24:25.8	300.180	0.370	-0.280	1.110
2020/01/31 11:24:25.9	300.180	0.400	-0.270	1.110
2020/01/31 11:24:26.0	300.190	0.420	-0.260	1.120
2020/01/31 11:24:26.1	300.190	0.450	-0.240	1.120
2020/01/31 11:24:26.2	300.200	0.470	-0.230	1.130
2020/01/31 11:24:26.3	300.200	0.490	-0.220	1.130
2020/01/31 11:24:26.4	300.200	0.510	-0.210	1.140
2020/01/31 11:24:26.5	300.210	0.530	-0.200	1.140
2020/01/31 11:24:26.6	300.210	0.540	-0.180	1.140
2020/01/31 11:24:26.7	300.210	0.560	-0.170	1.150
2020/01/31 11:24:26.8	300.220	0.570	-0.160	1.150
2020/01/31 11:24:26.9	300.220	0.580	-0.150	1.140
2020/01/31 11:24:27.0	300.220	0.590	-0.130	1.140
2020/01/31 11:24:27.1	300.220	0.600	-0.120	1.140
2020/01/31 11:24:27.2	300.230	0.600	-0.110	1.130
2020/01/31 11:24:27.3	300.230	0.610	-0.100	1.120
2020/01/31 11:24:27.4	300.230	0.610	-0.090	1.110
2020/01/31 11:24:27.5	300.230	0.610	-0.080	1.100
2020/01/31 11:24:27.6	300.240	0.610	-0.070	1.090
2020/01/31 11:24:27.7	300.240	0.600	-0.060	1.070
2020/01/31 11:24:27.8	300.240	0.600	-0.060	1.050
2020/01/31 11:24:27.9	300.250	0.590	-0.050	1.030
2020/01/31 11:24:28.0	300.250	0.580	-0.040	1.010
2020/01/31 11:24:28.1	300.250	0.570	-0.040	0.990
2020/01/31 11:24:28.2	300.250	0.560	-0.040	0.960
2020/01/31 11:24:28.3	300.260	0.540	-0.030	0.930
2020/01/31 11:24:28.4	300.260	0.530	-0.030	0.900
2020/01/31 11:24:28.5	300.260	0.510	-0.030	0.880
2020/01/31 11:24:28.6	300.270	0.490	-0.030	0.840
2020/01/31 11:24:28.7	300.270	0.470	-0.030	0.810
2020/01/31 11:24:28.8	300.270	0.450	-0.040	0.770
2020/01/31 11:24:28.9	300.270	0.420	-0.040	0.740
2020/01/31 11:24:29.0	300.280	0.400	-0.050	0.700
2020/01/31 11:24:29.1	300.280	0.370	-0.060	0.660
2020/01/31 11:24:29.2	300.280	0.350	-0.070	0.620
2020/01/31 11:24:29.3	300.280	0.320	-0.090	0.580
2020/01/31 11:24:29.4	300.280	0.290	-0.100	0.540
2020/01/31 11:24:29.5	300.290	0.260	-0.120	0.490
2020/01/31 11:24:29.6	300.290	0.230	-0.130	0.450
2020/01/31 11:24:29.7	300.290	0.200	-0.150	0.400
2020/01/31 11:24:29.8	300.290	0.160	-0.170	0.360
2020/01/31 11:24:29.9	300.290	0.130	-0.200	0.310
2020/01/31 11:24:30.0	300.290	0.100	-0.220	0.270
2020/01/31 11:24:30.1	300.290	0.070	-0.250	0.230
2020/01/31 11:24:30.2	300.290	0.040	-0.270	0.180
2020/01/31 11:24:30.3	300.290	0.010	-0.300	0.140
2020/01/31 11:24:30.4	300.280	-0.030	-0.330	0.100
2020/01/31 11:24:30.5	300.280	-0.060	-0.350	0.060
2020/01/31 11:24:30.6	300.270	-0.090	-0.380	0.020
2020/01/31 11:24:30.7	300.270	-0.110	-0.410	-0.020
2020/01/31 11:24:30.8	300.270	-0.140	-0.440	-0.050
2020/01/31 11:24:30.9	300.260	-0.170	-0.460	-0.090
2020/01/31 11:24:31.0	300.260	-0.200	-0.490	-0.120
2020/01/31 11:24:31.1	300.260	-0.220	-0.520	-0.150
2020/01/31 11:24:31.2	300.250	-0.240	-0.540	-0.170
2020/01/31 11:24:31.3	300.250	-0.270	-0.570	-0.200
2020/01/31 11:24:31.4	300.250	-0.290	-0.590	-0.220
2020/01/31 11:24:31.5	300.240	-0.310	-0.610	-0.240
2020/01/31 11:24:31.6	300.240	-0.320	-0.630	-0.250
2020/01/31 11:24:31.7	300.240	-0.340	-0.650	-0.260
2020/01/31 11:24:31.8	300.240	-0.350	-0.660	-0.270
2020/01/31 11:24:31.9	300.240	-0.370	-0.680	-0.280
2020/01/31 11:24:32.0	300.240	-0.380	-0.690	-0.280
2020/01/31 11:24:32.1	300.240	-0.390	-0.700	-0.280
2020/01/31 11:24:32.2	300.240	-0.400	-0.700	-0.280
2020/01/31 11:24:32.3	300.240	-0.410	-0.710	-0.270
2020/01/31 11:24:32.4	300.240	-0.410	-0.710	-0.260
2020/01/31 11:24:32.5	300.250	-0.420	-0.700	-0.240
2020/01/31 11:24:32.6	300.250	-0.420	-0.700	-0.220
2020/01/31 11:24:32.7	300.250	-0.420	-0.690	-0.200
2020/01/31 11:24:32.8	300.240	-0.420	-0.680	-0.170
2020/01/31 11:24:32.9	300.240	-0.420	-0.660	-0.150
2020/01/31 11:24:33.0	300.240	-0.420	-0.650	-0.120
2020/01/31 11:24:33.1	300.230	-0.420	-0.630	-0.080
2020/01/31 11:24:33.2	300.230	-0.420	-0.610	-0.050
2020/01/31 11:24:33.3	300.230	-0.420	-0.590	-0.010
2020/01/31 11:24:33.4	300.220	-0.410	-0.560	0.030
2020/01/31 11:24:33.5	300.210	-0.410	-0.540	0.070
2020/01/31 11:24:33.6	300.210	-0.400	-0.510	0.110
2020/01/31 11:24:33.7	300.200	-0.400	-0.480	0.150
2020/01/31 11:24:33.8	300.190	-0.390	-0.450	0.200
2020/01/31 11:24:33.9	300.190	-0.390	-0.420	0.240
2020/01/31 11:24:34.0	300.180	-0.380	-0.390	0.290
2020/01/31 11:24:34.1	300.180	-0.380	-0.360	0.340
2020/01/31 11:24:34.2	300.170	-0.370	-0.320	0.390
2020/01/31 11:24:34.3	300.160	-0.360	-0.290	0.430
2020/01/31 11:24:34.4	300.160	-0.360	-0.260	0.480
2020/01/31 11:24:34.5	300.150	-0.350	-0.230	0.530
2020/01/31 11:24:34.6	300.140	-0.340	-0.190	0.570
2020/01/31 11:24:34.7	300.140	-0.340	-0.160	0.620
2020/01/31 11:24:34.8	300.130	-0.330	-0.130	0.660
2020/01/31 11:24:34.9	300.130	-0.320	-0.100	0.710
2020/01/31 11:24:35.0	300.120	-0.320	-0.070	0.750
2020/01/31 11:24:35.1	300.110	-0.310	-0.040	0.790
2020/01/31 11:24:35.2	300.110	-0.300	-0.020	0.830
2020/01/31 11:24:35.3	300.100	-0.290	0.010	0.870
2020/01/31 11:24:35.4	300.100	-0.280	0.040	0.910
2020/01/31 11:24:35.5	300.110	-0.280	0.060	0.950
2020/01/31 11:24:35.6	300.100	-0.270	0.080	0.990
2020/01/31 11:24:35.7	300.090	-0.260	0.100	1.020
2020/01/31 11:24:35.8	300.090	-0.250	0.120	1.050
2020/01/31 11:24:35.9	300.080	-0.240	0.140	1.090
2020/01/31 11:24:36.0	300.080	-0.230	0.150	1.110
2020/01/31 11:24:36.1	300.070	-0.220	0.170	1.140
2020/01/31 11:24:36.2	300.070	-0.210	0.180	1.170
2020/01/31 11:24:36.3	300.060	-0.200	0.180	1.190
2020/01/31 11:24:36.4	300.060	-0.190	0.190	1.210
2020/01/31 11:24:36.5	300.060	-0.180	0.190	1.220
2020/01/31 11:24:36.6	300.060	-0.160	0.190	1.240
2020/01/31 11:24:36.7	300.050	-0.150	0.190	1.250
2020/01/31 11:24:36.8	300.050	-0.140	0.180	1.260
2020/01/31 11:24:36.9	300.050	-0.130	0.180	1.270
2020/01/31 11:24:37.0	300.050	-0.110	0.170	1.270
2020/01/31 11:24:37.1	300.040	-0.100	0.150	1.270
2020/01/31 11:24:37.2	300.040	-0.090	0.140	1.280
2020/01/31 11:24:37.3	300.040	-0.070	0.120	1.270
2020/01/31 11:24:37.4	300.040	-0.060	0.100	1.270
2020/01/31 11:24:37.5	300.040	-0.050	0.080	1.270
2020/01/31 11:24:37.6	300.040	-0.030	0.050	1.260
2020/01/31 11:24:37.7	300.040	-0.020	0.030	1.250
2020/01/31 11:24:37.8	300.040	-0.000	0.000	1.250
2020/01/31 11:24:37.9	300.040	0.010	-0.030	1.230
2020/01/31 11:24:38.0	300.050	0.030	-0.060	1.220
2020/01/31 11:24:38.1	300.050	0.050	-0.090	1.210
2020/01/31 11:24:38.2	300.060	0.060	-0.120	1.190
2020/01/31 11:24:38.3	300.060	0.080	-0.150	1.180
2020/01/31 11:24:38.4	300.070	0.090	-0.180	1.160
2020/01/31 11:24:38.5	300.080	0.110	-0.210	1.140
2020/01/31 11:24:38.6	300.090	0.130	-0.240	1.110
2020/01/31 11:24:38.7	300.090	0.140	-0.260	1.090
2020/01/31 11:24:38.8	300.100	0.160	-0.290	1.070
2020/01/31 11:24:38.9	300.110	0.180	-0.310	1.040
2020/01/31 11:24:39.0	300.120	0.190	-0.340	1.020
2020/01/31 11:24:39.1	300.140	0.210	-0.360	0.990
2020/01/31 11:24:39.2	300.150	0.220	-0.380	0.960
2020/01/31 11:24:39.3	300.160	0.240	-0.390	0.940
2020/01/31 11:24:39.4	300.170	0.250	-0.400	0.910
2020/01/31 11:24:39.5	300.170	0.270	-0.410	0.880
2020/01/31 11:24:39.6	300.190	0.280	-0.420	0.850
2020/01/31 11:24:39.7	300.200	0.290	-0.420	0.830
2020/01/31 11:24:39.8	300.210	0.300	-0.420	0.800
2020/01/31 11:24:39.9	300.220	0.310	-0.420	0.780
2020/01/31 11:24:40.0	300.230	0.320	-0.420	0.750
2020/01/31 11:24:40.1	300.240	0.330	-0.410	0.720
2020/01/31 11:24:40.2	300.250	0.340	-0.400	0.700
2020/01/31 11:24:40.3	300.260	0.340	-0.380	0.680
2020/01/31 11:24:40.4	300.270	0.350	-0.370	0.650
2020/01/31 11:24:40.5	300.270	0.350	-0.350	0.630
2020/01/31 11:24:40.6	300.280	0.360	-0.330	0.610
2020/01/31 11:24:40.7	300.290	0.360	-0.310	0.590
2020/01/31 11:24:40.8	300.290	0.360	-0.290	0.560
2020/01/31 11:24:40.9	300.300	0.360	-0.260	0.540
2020/01/31 11:24:41.0	300.300	0.350	-0.240	0.520
2020/01/31 11:24:41.1	300.300	0.350	-0.220	0.500
2020/01/31 11:24:41.2	300.310	0.350	-0.200	0.480
2020/01/31 11:24:41.3	300.310	0.340	-0.180	0.460
2020/01/31 11:24:41.4	300.310	0.340	-0.160	0.440
2020/01/31 11:24:41.5	300.300	0.330	-0.140	0.420
2020/01/31 11:24:41.6	300.310	0.320	-0.120	0.400
2020/01/31 11:24:41.7	300.310	0.310	-0.100	0.380
2020/01/31 11:24:41.8	300.310	0.310	-0.090	0.360
2020/01/31 11:24:41.9	300.310	0.300	-0.070	0.350
2020/01/31 11:24:42.0	300.310	0.290	-0.060	0.330
2020/01/31 11:24:42.1	300.310	0.280	-0.060	0.320
2020/01/31 11:24:42.2	300.310	0.270	-0.050	0.310
2020/01/31 11:24:42.3	300.310	0.260	-0.050	0.290
2020/01/31 11:24:42.4	300.310	0.250	-0.050	0.280
2020/01/31 11:24:42.5	300.320	0.240	-0.050	0.270
2020/01/31 11:24:42.6	300.320	0.240	-0.050	0.260
2020/01/31 11:24:42.7	300.320	0.230	-0.060	0.260
2020/01/31 11:24:42.8	300.320	0.220	-0.070	0.250
2020/01/31 11:24:42.9	300.320	0.210	-0.080	0.250
2020/01/31 11:24:43.0	300.320	0.210	-0.090	0.240
2020/01/31 11:24:43.1	300.320	0.200	-0.110	0.240
2020/01/31 11:24:43.2	300.320	0.200	-0.120	0.240
2020/01/31 11:24:43.3	300.330	0.190	-0.140	0.240
2020/01/31 11:24:43.4	300.330	0.190	-0.160	0.240
2020/01/31 11:24:43.5	300.320	0.180	-0.180	0.240
2020/01/31 11:24:43.6	300.320	0.180	-0.200	0.250
2020/01/31 11:24:43.7	300.320	0.180	-0.220	0.250
2020/01/31 11:24:43.8	300.320	0.180	-0.240	0.260
2020/01/31 11:24:43.9	300.320	0.180	-0.270	0.270
2020/01/31 11:24:44.0	300.320	0.180	-0.290	0.280
2020/01/31 11:24:44.1	300.320	0.180	-0.310	0.290
2020/01/31 11:24:44.2	300.320	0.180	-0.340	0.300
2020/01/31 11:24:44.3	300.320	0.180	-0.360	0.320
2020/01/31 11:24:44.4	300.320	0.180	-0.380	0.340
2020/01/31 11:24:44.5	300.320	0.190	-0.400	0.360
2020/01/31 11:24:44.6	300.320	0.190	-0.420	0.380
2020/01/31 11:24:44.7	300.320	0.190	-0.440	0.410
2020/01/31 11:24:44.8	300.320	0.190	-0.460	0.430
2020/01/31 11:24:44.9	300.320	0.190	-0.480	0.460
2020/01/31 11:24:45.0	300.320	0.190	-0.490	0.490
2020/01/31 11:24:45.1	300.320	0.200	-0.510	0.520
2020/01/31 11:24:45.2	300.320	0.200	-0.530	0.560
2020/01/31 11:24:45.3	300.310	0.200	-0.540	0.590
2020/01/31 11:24:45.4	300.310	0.190	-0.550	0.620
2020/01/31 11:24:45.5	300.310	0.190	-0.560	0.660
2020/01/31 11:24:45.6	300.310	0.190	-0.570	0.690
2020/01/31 11:24:45.7	300.300	0.190	-0.590	0.730
2020/01/31 11:24:45.8	300.300	0.180	-0.590	0.770
2020/01/31 11:24:45.9	300.290	0.170	-0.600	0.800
2020/01/31 11:24:46.0	300.280	0.170	-0.610	0.840
2020/01/31 11:24:46.1	300.280	0.160	-0.610	0.870
2020/01/31 11:24:46.2	300.270	0.150	-0.610	0.910
2020/01/31 11:24:46.3	300.260	0.140	-0.620	0.940
2020/01/31 11:24:46.4	300.240	0.120	-0.620	0.970
2020/01/31 11:24:46.5	300.230	0.110	-0.620	1.010
2020/01/31 11:24:46.6	300.210	0.090	-0.610	1.040
2020/01/31 11:24:46.7	300.200	0.080	-0.610	1.070
2020/01/31 11:24:46.8	300.180	0.060	-0.600	1.100
2020/01/31 11:24:46.9	300.170	0.040	-0.590	1.120
2020/01/31 11:24:47.0	300.150	0.020	-0.580	1.150
2020/01/31 11:24:47.1	300.130	-0.000	-0.570	1.170
2020/01/31 11:24:47.2	300.110	-0.020	-0.560	1.190
2020/01/31 11:24:47.3	300.090	-0.050	-0.540	1.210
2020/01/31 11:24:47.4	300.070	-0.070	-0.530	1.230
2020/01/31 11:24:47.5	300.050	-0.090	-0.500	1.240
2020/01/31 11:24:47.6	300.030	-0.120	-0.480	1.250
2020/01/31 11:24:47.7	300.010	-0.140	-0.460	1.260
2020/01/31 11:24:47.8	299.990	-0.170	-0.440	1.260
2020/01/31 11:24:47.9	299.960	-0.200	-0.420	1.260
2020/01/31 11:24:48.0	299.940	-0.220	-0.400	1.250
2020/01/31 11:24:48.1	299.920	-0.250	-0.370	1.240
2020/01/31 11:24:48.2	299.900	-0.280	-0.350	1.230
2020/01/31 11:24:48.3	299.880	-0.300	-0.320	1.210
2020/01/31 11:24:48.4	299.860	-0.330	-0.300	1.190
2020/01/31 11:24:48.5	299.840	-0.350	-0.280	1.170
2020/01/31 11:24:48.6	299.820	-0.380	-0.260	1.130
2020/01/31 11:24:48.7	299.810	-0.400	-0.230	1.100
2020/01/31 11:24:48.8	299.800	-0.420	-0.210	1.060
2020/01/31 11:24:48.9	299.790	-0.440	-0.190	1.020
2020/01/31 11:24:49.0	299.780	-0.460	-0.180	0.980
2020/01/31 11:24:49.1	299.780	-0.480	-0.160	0.930
2020/01/31 11:24:49.2	299.780	-0.500	-0.150	0.870
2020/01/31 11:24:49.3	299.780	-0.510	-0.140	0.820
2020/01/31 11:24:49.4	299.780	-0.530	-0.130	0.760
2020/01/31 11:24:49.5	299.790	-0.540	-0.120	0.700
2020/01/31 11:24:49.6	299.800	-0.550	-0.120	0.640
2020/01/31 11:24:49.7	299.810	-0.560	-0.120	0.580
2020/01/31 11:24:49.8	299.820	-0.570	-0.110	0.520
2020/01/31 11:24:49.9	299.840	-0.570	-0.120	0.450
2020/01/31 11:24:50.0	299.850	-0.580	-0.120	0.390
2020/01/31 11:24:50.1	299.870	-0.580	-0.120	0.320
2020/01/31 11:24:50.2	299.890	-0.580	-0.130	0.260
2020/01/31 11:24:50.3	299.910	-0.580	-0.140	0.200
2020/01/31 11:24:50.4	299.930	-0.580	-0.150	0.140
2020/01/31 11:24:50.5	299.940	-0.570	-0.150	0.080
2020/01/31 11:24:50.6	299.960	-0.570	-0.160	0.020
2020/01/31 11:24:50.7	299.980	-0.560	-0.170	-0.040
2020/01/31 11:24:50.8	300.010	-0.550	-0.180	-0.090
2020/01/31 11:24:50.9	300.030	-0.540	-0.190	-0.130
2020/01/31 11:24:51.0	300.060	-0.530	-0.200	-0.180
2020/01/31 11:24:51.1	300.080	-0.510	-0.210	-0.220
2020/01/31 11:24:51.2	300.110	-0.500	-0.220	-0.250
2020/01/31 11:24:51.3	300.130	-0.480	-0.230	-0.280
2020/01/31 11:24:51.4	300.160	-0.460	-0.230	-0.300
2020/01/31 11:24:51.5	300.180	-0.440	-0.230	-0.320
2020/01/31 11:24:51.6	300.200	-0.420	-0.230	-0.330
2020/01/31 11:24:51.7	300.230	-0.390	-0.230	-0.340
2020/01/31 11:24:51.8	300.250	-0.370	-0.230	-0.340
2020/01/31 11:24:51.9	300.270	-0.340	-0.220	-0.340
2020/01/31 11:24:52.0	300.300	-0.320	-0.210	-0.320
2020/01/31 11:24:52.1	300.320	-0.290	-0.200	-0.310
2020/01/31 11:24:52.2	300.340	-0.260	-0.190	-0.290
2020/01/31 11:24:52.3	300.360	-0.230	-0.170	-0.260
2020/01/31 11:24:52.4	300.380	-0.200	-0.150	-0.230
2020/01/31 11:24:52.5	300.400	-0.170	-0.130	-0.190
2020/01/31 11:24:52.6	300.420	-0.140	-0.100	-0.160
2020/01/31 11:24:52.7	300.440	-0.110	-0.080	-0.110
2020/01/31 11:24:52.8	300.460	-0.080	-0.050	-0.070
2020/01/31 11:24:52.9	300.470	-0.040	-0.020	-0.020
2020/01/31 11:24:53.0	300.490	-0.010	0.010	0.040
2020/01/31 11:24:53.1	300.500	0.020	0.040	0.090
2020/01/31 11:24:53.2	300.520	0.050	0.080	0.150
2020/01/31 11:24:53.3	300.530	0.080	0.110	0.210
2020/01/31 11:24:53.4	300.540	0.110	0.140	0.270
2020/01/31 11:24:53.5	300.540	0.140	0.170	0.340
2020/01/31 11:24:53.6	300.550	0.170	0.200	0.400
2020/01/31 11:24:53.7	300.570	0.200	0.230	0.460
2020/01/31 11:24:53.8	300.570	0.230	0.260	0.530
2020/01/31 11:24:53.9	300.580	0.260	0.280	0.590
2020/01/31 11:24:54.0	300.590	0.280	0.310	0.660
2020/01/31 11:24:54.1	300.600	0.310	0.330	0.720
2020/01/31 11:24:54.2	300.600	0.330	0.340	0.780
2020/01/31 11:24:54.3	300.610	0.350	0.360	0.840
2020/01/31 11:24:54.4	300.610	0.380	0.370	0.900
2020/01/31 11:24:54.5	300.610	0.400	0.370	0.960
2020/01/31 11:24:54.6	300.610	0.420	0.370	1.020
2020/01/31 11:24:54.7	300.610	0.430	0.370	1.070
2020/01/31 11:24:54.8	300.610	0.450	0.360	1.120
2020/01/31 11:24:54.9	300.610	0.470	0.350	1.170
2020/01/31 11:24:55.0	300.600	0.480	0.340	1.210
2020/01/31 11:24:55.1	300.600	0.490	0.320	1.250
2020/01/31 11:24:55.2	300.590	0.500	0.290	1.290
2020/01/31 11:24:55.3	300.580	0.510	0.270	1.320
2020/01/31 11:24:55.4	300.570	0.520	0.240	1.350
2020/01/31 11:24:55.5	300.560	0.520	0.200	1.380
2020/01/31 11:24:55.6	300.550	0.530	0.160	1.400
2020/01/31 11:24:55.7	300.530	0.530	0.120	1.410
2020/01/31 11:24:55.8	300.520	0.530	0.080	1.430
2020/01/31 11:24:55.9	300.500	0.530	0.030	1.430
2020/01/31 11:24:56.0	300.490	0.530	-0.010	1.440
2020/01/31 11:24:56.1	300.470	0.530	-0.060	1.440
2020/01/31 11:24:56.2	300.450	0.520	-0.110	1.430
2020/01/31 11:24:56.3	300.430	0.520	-0.160	1.430
2020/01/31 11:24:56.4	300.420	0.510	-0.220	1.410
2020/01/31 11:24:56.5	300.410	0.500	-0.270	1.400
2020/01/31 11:24:56.6	300.390	0.490	-0.320	1.380
2020/01/31 11:24:56.7	300.370	0.480	-0.370	1.360
2020/01/31 11:24:56.8	300.350	0.470	-0.420	1.340
2020/01/31 11:24:56.9	300.330	0.460	-0.470	1.310
2020/01/31 11:24:57.0	300.320	0.440	-0.520	1.280
2020/01/31 11:24:57.1	300.300	0.430	-0.570	1.250
2020/01/31 11:24:57.2	300.280	0.410	-0.610	1.210
2020/01/31 11:24:57.3	300.270	0.400	-0.650	1.180
2020/01/31 11:24:57.4	300.260	0.380	-0.690	1.140
2020/01/31 11:24:57.5	300.230	0.360	-0.730	1.100
2020/01/31 11:24:57.6	300.220	0.340	-0.770	1.060
2020/01/31 11:24:57.7	300.210	0.320	-0.800	1.020
2020/01/31 11:24:57.8	300.200	0.300	-0.820	0.970
2020/01/31 11:24:57.9	300.190	0.280	-0.850	0.930
2020/01/31 11:24:58.0	300.180	0.260	-0.870	0.890
2020/01/31 11:24:58.1	300.180	0.240	-0.890	0.840
2020/01/31 11:24:58.2	300.170	0.220	-0.900	0.800
2020/01/31 11:24:58.3	300.170	0.200	-0.910	0.750
2020/01/31 11:24:58.4	300.170	0.180	-0.920	0.710
2020/01/31 11:24:58.5	300.170	0.160	-0.920	0.660
2020/01/31 11:24:58.6	300.170	0.140	-0.920	0.620
2020/01/31 11:24:58.7	300.170	0.120	-0.920	0.580
2020/01/31 11:24:58.8	300.170	0.090	-0.910	0.540
2020/01/31 11:24:58.9	300.170	0.070	-0.910	0.500
2020/01/31 11:24:59.0	300.170	0.050	-0.890	0.460
2020/01/31 11:24:59.1	300.170	0.030	-0.880	0.420
2020/01/31 11:24:59.2	300.170	0.010	-0.860	0.380
2020/01/31 11:24:59.3	300.180	-0.010	-0.840	0.350
2020/01/31 11:24:59.4	300.180	-0.030	-0.820	0.310
2020/01/31 11:24:59.5	300.170	-0.050	-0.800	0.280
2020/01/31 11:24:59.6	300.180	-0.060	-0.780	0.250
2020/01/31 11:24:59.7	300.180	-0.080	-0.750	0.220
2020/01/31 11:24:59.8	300.180	-0.100	-0.720	0.190
2020/01/31 11:24:59.9	300.180	-0.120	-0.700	0.170
2020/01/31 11:25:00.0	300.190	-0.130	-0.670	0.140
2020/01/31 11:25:00.1	300.190	-0.150	-0.640	0.120
2020/01/31 11:25:00.2	300.190	-0.170	-0.610	0.100
2020/01/31 11:25:00.3	300.200	-0.180	-0.570	0.080
2020/01/31 11:25:00.4	300.200	-0.200	-0.540	0.060
2020/01/31 11:25:00.5	300.200	-0.210	-0.510	0.050
2020/01/31 11:25:00.6	300.200	-0.230	-0.480	0.040
2020/01/31 11:25:00.7	300.200	-0.240	-0.450	0.020
2020/01/31 11:25:00.8	300.210	-0.250	-0.430	0.010
2020/01/31 11:25:00.9	300.210	-0.260	-0.400	0.010
2020/01/31 11:25:01.0	300.210	-0.270	-0.370	-0.000
2020/01/31 11:25:01.1	300.220	-0.290	-0.340	-0.010
2020/01/31 11:25:01.2	300.220	-0.300	-0.320	-0.010
2020/01/31 11:25:01.3	300.230	-0.300	-0.300	-0.010
2020/01/31 11:25:01.4	300.230	-0.310	-0.270	-0.010
2020/01/31 11:25:01.5	300.240	-0.320	-0.250	-0.010
2020/01/31 11:25:01.6	300.240	-0.330	-0.230	-0.000
2020/01/31 11:25:01.7	300.250	-0.330	-0.210	-0.000
2020/01/31 11:25:01.8	300.260	-0.340	-0.200	0.010
2020/01/31 11:25:01.9	300.260	-0.340	-0.180	0.010
2020/01/31 11:25:02.0	300.270	-0.340	-0.170	0.020
2020/01/31 11:25:02.1	300.270	-0.350	-0.160	0.030
2020/01/31 11:25:02.2	300.280	-0.350	-0.150	0.040
2020/01/31 11:25:02.3	300.290	-0.350	-0.140	0.050
2020/01/31 11:25:02.4	300.290	-0.350	-0.140	0.070
2020/01/31 11:25:02.5	300.300	-0.340	-0.130	0.080
2020/01/31 11:25:02.6	300.300	-0.340	-0.130	0.090
2020/01/31 11:25:02.7	300.310	-0.340	-0.120	0.100
2020/01/31 11:25:02.8	300.320	-0.330	-0.120	0.110
2020/01/31 11:25:02.9	300.330	-0.330	-0.120	0.120
2020/01/31 11:25:03.0	300.340	-0.320	-0.120	0.120
2020/01/31 11:25:03.1	300.360	-0.320	-0.120	0.130
2020/01/31 11:25:03.2	300.370	-0.310	-0.120	0.140
2020/01/31 11:25:03.3	300.380	-0.300	-0.120	0.150
2020/01/31 11:25:03.4	300.390	-0.290	-0.120	0.150
2020/01/31 11:25:03.5	300.400	-0.280	-0.130	0.160
2020/01/31 11:25:03.6	300.420	-0.270	-0.130	0.170
2020/01/31 11:25:03.7	300.430	-0.260	-0.130	0.170
2020/01/31 11:25:03.8	300.450	-0.250	-0.130	0.180
2020/01/31 11:25:03.9	300.470	-0.240	-0.140	0.180
2020/01/31 11:25:04.0	300.490	-0.230	-0.140	0.180
2020/01/31 11:25:04.1	300.510	-0.220	-0.140	0.190
2020/01/31 11:25:04.2	300.530	-0.210	-0.140	0.190
2020/01/31 11:25:04.3	300.540	-0.200	-0.140	0.190
2020/01/31 11:25:04.4	300.570	-0.190	-0.140	0.200
2020/01/31 11:25:04.5	300.610	-0.190	-0.130	0.200
2020/01/31 11:25:04.6	300.630	-0.180	-0.130	0.210
2020/01/31 11:25:04.7	300.650	-0.170	-0.130	0.210
2020/01/31 11:25:04.8	300.670	-0.160	-0.120	0.220
2020/01/31 11:25:04.9	300.680	-0.150	-0.110	0.240
2020/01/31 11:25:05.0	300.700	-0.140	-0.100	0.250
2020/01/31 11:25:05.1	300.720	-0.130	-0.090	0.270
2020/01/31 11:25:05.2	300.730	-0.130	-0.070	0.290
2020/01/31 11:25:05.3	300.750	-0.120	-0.060	0.310
2020/01/31 11:25:05.4	300.760	-0.110	-0.040	0.340
2020/01/31 11:25:05.5	300.770	-0.110	-0.020	0.370
2020/01/31 11:25:05.6	300.770	-0.100	0.000	0.400
2020/01/31 11:25:05.7	300.780	-0.090	0.020	0.430
2020/01/31 11:25:05.8	300.780	-0.090	0.050	0.470
2020/01/31 11:25:05.9	300.780	-0.080	0.070	0.510
2020/01/31 11:25:06.0	300.780	-0.080	0.100	0.550
2020/01/31 11:25:06.1	300.780	-0.070	0.130	0.600
2020/01/31 11:25:06.2	300.780	-0.060	0.150	0.640
2020/01/31 11:25:06.3	300.770	-0.060	0.180	0.690
2020/01/31 11:25:06.4	300.760	-0.050	0.200	0.740
2020/01/31 11:25:06.5	300.770	-0.050	0.230	0.790
2020/01/31 11:25:06.6	300.760	-0.040	0.250	0.840
2020/01/31 11:25:06.7	300.750	-0.030	0.280	0.890
2020/01/31 11:25:06.8	300.730	-0.030	0.300	0.940
2020/01/31 11:25:06.9	300.720	-0.020	0.320	0.980
2020/01/31 11:25:07.0	300.700	-0.010	0.330	1.030
2020/01/31 11:25:07.1	300.680	-0.000	0.350	1.080
2020/01/31 11:25:07.2	300.670	0.010	0.350	1.130
2020/01/31 11:25:07.3	300.650	0.020	0.360	1.180
2020/01/31 11:25:07.4	300.630	0.030	0.370	1.220
2020/01/31 11:25:07.5	300.600	0.040	0.360	1.260
2020/01/31 11:25:07.6	300.580	0.050	0.360	1.300
2020/01/31 11:25:07.7	300.560	0.060	0.350	1.340
2020/01/31 11:25:07.8	300.540	0.070	0.340	1.370
2020/01/31 11:25:07.9	300.520	0.090	0.320	1.400
2020/01/31 11:25:08.0	300.500	0.100	0.300	1.430
2020/01/31 11:25:08.1	300.490	0.120	0.270	1.450
2020/01/31 11:25:08.2	300.470	0.130	0.240	1.470
2020/01/31 11:25:08.3	300.460	0.140	0.200	1.480
2020/01/31 11:25:08.4	300.440	0.160	0.170	1.480
2020/01/31 11:25:08.5	300.440	0.170	0.120	1.480
2020/01/31 11:25:08.6	300.420	0.190	0.080	1.480
2020/01/31 11:25:08.7	300.410	0.210	0.030	1.470
2020/01/31 11:25:08.8	300.410	0.220	-0.020	1.450
2020/01/31 11:25:08.9	300.400	0.240	-0.080	1.430
2020/01/31 11:25:09.0	300.390	0.250	-0.130	1.410
2020/01/31 11:25:09.1	300.390	0.260	-0.190	1.370
2020/01/31 11:25:09.2	300.380	0.280	-0.250	1.340
2020/01/31 11:25:09.3	300.380	0.290	-0.310	1.300
2020/01/31 11:25:09.4	300.380	0.300	-0.360	1.260
2020/01/31 11:25:09.5	300.360	0.320	-0.420	1.210
2020/01/31 11:25:09.6	300.360	0.330	-0.480	1.160
2020/01/31 11:25:09.7	300.370	0.340	-0.530	1.110
2020/01/31 11:25:09.8	300.370	0.340	-0.580	1.060
2020/01/31 11:25:09.9	300.370	0.350	-0.630	1.000
2020/01/31 11:25:10.0	300.380	0.360	-0.680	0.950
2020/01/31 11:25:10.1	300.390	0.360	-0.720	0.890
2020/01/31 11:25:10.2	300.390	0.360	-0.760	0.830
2020/01/31 11:25:10.3	300.400	0.360	-0.800	0.770
2020/01/31 11:25:10.4	300.410	0.360	-0.830	0.710
2020/01/31 11:25:10.5	300.420	0.360	-0.850	0.650
2020/01/31 11:25:10.6	300.430	0.350	-0.870	0.590
2020/01/31 11:25:10.7	300.440	0.350	-0.890	0.530
2020/01/31 11:25:10.8	300.450	0.340	-0.900	0.470
2020/01/31 11:25:10.9	300.460	0.330	-0.910	0.410
2020/01/31 11:25:11.0	300.480	0.310	-0.910	0.350
2020/01/31 11:25:11.1	300.490	0.300	-0.910	0.300
2020/01/31 11:25:11.2	300.500	0.280	-0.910	0.240
2020/01/31 11:25:11.3	300.520	0.270	-0.900	0.190
2020/01/31 11:25:11.4	300.540	0.250	-0.890	0.130
2020/01/31 11:25:11.5	300.550	0.230	-0.870	0.080
2020/01/31 11:25:11.6	300.570	0.210	-0.850	0.030
2020/01/31 11:25:11.7	300.580	0.180	-0.830	-0.020
2020/01/31 11:25:11.8	300.600	0.160	-0.810	-0.060
2020/01/31 11:25:11.9	300.620	0.140	-0.780	-0.100
2020/01/31 11:25:12.0	300.640	0.110	-0.750	-0.140
2020/01/31 11:25:12.1	300.660	0.090	-0.720	-0.170
2020/01/31 11:25:12.2	300.680	0.070	-0.680	-0.200
2020/01/31 11:25:12.3	300.700	0.040	-0.650	-0.230
2020/01/31 11:25:12.4	300.720	0.020	-0.610	-0.250
2020/01/31 11:25:12.5	300.750	-0.010	-0.580	-0.260
2020/01/31 11:25:12.6	300.770	-0.030	-0.540	-0.280
2020/01/31 11:25:12.7	300.780	-0.050	-0.500	-0.280
2020/01/31 11:25:12.8	300.800	-0.080	-0.470	-0.290
2020/01/31 11:25:12.9	300.810	-0.100	-0.430	-0.280
2020/01/31 11:25:13.0	300.820	-0.120	-0.390	-0.280
2020/01/31 11:25:13.1	300.840	-0.140	-0.360	-0.260
2020/01/31 11:25:13.2	300.850	-0.150	-0.320	-0.250
2020/01/31 11:25:13.3	300.850	-0.170	-0.290	-0.230
2020/01/31 11:25:13.4	300.860	-0.190	-0.260	-0.200
2020/01/31 11:25:13.5	300.880	-0.200	-0.230	-0.170
2020/01/31 11:25:13.6	300.880	-0.210	-0.200	-0.140
2020/01/31 11:25:13.7	300.880	-0.220	-0.180	-0.110
2020/01/31 11:25:13.8	300.880	-0.230	-0.160	-0.070
2020/01/31 11:25:13.9	300.880	-0.240	-0.140	-0.030
2020/01/31 11:25:14.0	300.880	-0.250	-0.120	0.010
2020/01/31 11:25:14.1	300.880	-0.250	-0.100	0.060
2020/01/31 11:25:14.2	300.880	-0.250	-0.090	0.110
2020/01/31 11:25:14.3	300.870	-0.250	-0.080	0.150
2020/01/31 11:25:14.4	300.870	-0.250	-0.070	0.200
2020/01/31 11:25:14.5	300.860	-0.250	-0.060	0.250
2020/01/31 11:25:14.6	300.850	-0.250	-0.050	0.300
2020/01/31 11:25:14.7	300.840	-0.240	-0.050	0.350
2020/01/31 11:25:14.8	300.830	-0.240	-0.050	0.400
2020/01/31 11:25:14.9	300.830	-0.230	-0.050	0.450
2020/01/31 11:25:15.0	300.820	-0.220	-0.050	0.500
2020/01/31 11:25:15.1	300.810	-0.210	-0.050	0.550
2020/01/31 11:25:15.2	300.810	-0.190	-0.060	0.600
2020/01/31 11:25:15.3	300.800	-0.180	-0.060	0.640
2020/01/31 11:25:15.4	300.800	-0.170	-0.070	0.680
2020/01/31 11:25:15.5	300.780	-0.150	-0.080	0.720
2020/01/31 11:25:15.6	300.780	-0.140	-0.090	0.750
2020/01/31 11:25:15.7	300.780	-0.130	-0.100	0.790
2020/01/31 11:25:15.8	300.780	-0.110	-0.110	0.820
2020/01/31 11:25:15.9	300.770	-0.090	-0.120	0.850
2020/01/31 11:25:16.0	300.770	-0.080	-0.120	0.870
2020/01/31 11:25:16.1	300.770	-0.060	-0.130	0.890
2020/01/31 11:25:16.2	300.770	-0.050	-0.140	0.910
2020/01/31 11:25:16.3	300.770	-0.030	-0.150	0.930
2020/01/31 11:25:16.4	300.780	-0.020	-0.160	0.940
2020/01/31 11:25:16.5	300.760	-0.010	-0.170	0.950
2020/01/31 11:25:16.6	300.770	0.010	-0.170	0.950
2020/01/31 11:25:16.7	300.770	0.020	-0.180	0.950
2020/01/31 11:25:16.8	300.770	0.030	-0.180	0.950
2020/01/31 11:25:16.9	300.780	0.040	-0.180	0.950
2020/01/31 11:25:17.0	300.780	0.050	-0.190	0.940
2020/01/31 11:25:17.1	300.790	0.060	-0.190	0.930
2020/01/31 11:25:17.2	300.800	0.060	-0.190	0.920
2020/01/31 11:25:17.3	300.810	0.070	-0.190	0.910
2020/01/31 11:25:17.4	300.820	0.070	-0.180	0.900
2020/01/31 11:25:17.5	300.820	0.080	-0.180	0.880
2020/01/31 11:25:17.6	300.830	0.080	-0.180	0.860
2020/01/31 11:25:17.7	300.840	0.080	-0.180	0.840
2020/01/31 11:25:17.8	300.850	0.080	-0.170	0.820
2020/01/31 11:25:17.9	300.870	0.080	-0.170	0.800
2020/01/31 11:25:18.0	300.890	0.080	-0.160	0.780
2020/01/31 11:25:18.1	300.900	0.080	-0.160	0.760
2020/01/31 11:25:18.2	300.920	0.080	-0.150	0.740
2020/01/31 11:25:18.3	300.940	0.080	-0.150	0.720
2020/01/31 11:25:18.4	300.960	0.070	-0.150	0.700
2020/01/31 11:25:18.5	301.000	0.070	-0.140	0.680
2020/01/31 11:25:18.6	301.020	0.070	-0.140	0.660
2020/01/31 11:25:18.7	301.040	0.060	-0.140	0.640
2020/01/31 11:25:18.8	301.050	0.060	-0.140	0.620
2020/01/31 11:25:18.9	301.080	0.050	-0.130	0.610
2020/01/31 11:25:19.0	301.090	0.050	-0.130	0.590
2020/01/31 11:25:19.1	301.110	0.040	-0.140	0.570
2020/01/31 11:25:19.2	301.130	0.040	-0.140	0.560
2020/01/31 11:25:19.3	301.150	0.040	-0.140	0.540
2020/01/31 11:25:19.4	301.170	0.030	-0.140	0.530
2020/01/31 11:25:19.5	301.190	0.030	-0.140	0.510
2020/01/31 11:25:19.6	301.210	0.030	-0.150	0.500
2020/01/31 11:25:19.7	301.220	0.020	-0.150	0.490
2020/01/31 11:25:19.8	301.240	0.020	-0.160	0.480
2020/01/31 11:25:19.9	301.260	0.020	-0.160	0.470
2020/01/31 11:25:20.0	301.270	0.020	-0.170	0.460
2020/01/31 11:25:20.1	301.290	0.020	-0.180	0.440
2020/01/31 11:25:20.2	301.310	0.020	-0.180	0.430
2020/01/31 11:25:20.3	301.320	0.020	-0.190	0.420
2020/01/31 11:25:20.4	301.340	0.020	-0.200	0.410
2020/01/31 11:25:20.5	301.350	0.020	-0.200	0.400
2020/01/31 11:25:20.6	301.360	0.020	-0.210	0.390
2020/01/31 11:25:20.7	301.380	0.020	-0.220	0.380
2020/01/31 11:25:20.8	301.390	0.030	-0.230	0.370
2020/01/31 11:25:20.9	301.400	0.030	-0.230	0.360
2020/01/31 11:25:21.0	301.420	0.030	-0.240	0.350
2020/01/31 11:25:21.1	301.430	0.040	-0.240	0.340
2020/01/31 11:25:21.2	301.440	0.040	-0.250	0.330
2020/01/31 11:25:21.3	301.450	0.040	-0.250	0.320
2020/01/31 11:25:21.4	301.450	0.050	-0.260	0.320
2020/01/31 11:25:21.5	301.460	0.050	-0.260	0.310
2020/01/31 11:25:21.6	301.460	0.050	-0.270	0.300
2020/01/31 11:25:21.7	301.470	0.060	-0.270	0.290
2020/01/31 11:25:21.8	301.470	0.060	-0.270	0.290
2020/01/31 11:25:21.9	301.480	0.060	-0.270	0.290
2020/01/31 11:25:22.0	301.480	0.060	-0.270	0.280
2020/01/31 11:25:22.1	301.480	0.070	-0.270	0.280
2020/01/31 11:25:22.2	301.480	0.070	-0.270	0.280
2020/01/31 11:25:22.3	301.480	0.070	-0.270	0.280
2020/01/31 11:25:22.4	301.480	0.070	-0.270	0.280
2020/01/31 11:25:22.5	301.480	0.070	-0.260	0.280
2020/01/31 11:25:22.6	301.470	0.070	-0.260	0.280
2020/01/31 11:25:22.7	301.470	0.060	-0.250	0.280
2020/01/31 11:25:22.8	301.460	0.060	-0.240	0.280
2020/01/31 11:25:22.9	301.460	0.060	-0.240	0.290
2020/01/31 11:25:23.0	301.450	0.060	-0.230	0.290
2020/01/31 11:25:23.1	301.440	0.050	-0.220	0.300
2020/01/31 11:25:23.2	301.430	0.050	-0.210	0.300
2020/01/31 11:25:23.3	301.420	0.040	-0.210	0.310
2020/01/31 11:25:23.4	301.410	0.040	-0.200	0.320
2020/01/31 11:25:23.5	301.390	0.030	-0.190	0.330
2020/01/31 11:25:23.6	301.380	0.030	-0.180	0.340
2020/01/31 11:25:23.7	301.370	0.020	-0.170	0.350
2020/01/31 11:25:23.8	301.350	0.020	-0.170	0.360
2020/01/31 11:25:23.9	301.340	0.010	-0.160	0.380
2020/01/31 11:25:24.0	301.330	0.010	-0.150	0.390
2020/01/31 11:25:24.1	301.310	0.000	-0.150	0.400
2020/01/31 11:25:24.2	301.300	-0.000	-0.140	0.420
2020/01/31 11:25:24.3	301.280	-0.010	-0.140	0.430
2020/01/31 11:25:24.4	301.270	-0.020	-0.140	0.450
2020/01/31 11:25:24.5	301.250	-0.020	-0.140	0.460
2020/01/31 11:25:24.6	301.240	-0.030	-0.140	0.480
2020/01/31 11:25:24.7	301.220	-0.030	-0.150	0.490
2020/01/31 11:25:24.8	301.200	-0.040	-0.160	0.510
2020/01/31 11:25:24.9	301.190	-0.040	-0.160	0.520
2020/01/31 11:25:25.0	301.170	-0.050	-0.180	0.540
2020/01/31 11:25:25.1	301.160	-0.050	-0.190	0.550
2020/01/31 11:25:25.2	301.140	-0.050	-0.210	0.570
2020/01/31 11:25:25.3	301.130	-0.060	-0.230	0.580
2020/01/31 11:25:25.4	301.120	-0.060	-0.240	0.590
2020/01/31 11:25:25.5	301.090	-0.060	-0.270	0.600
2020/01/31 11:25:25.6	301.080	-0.070	-0.290	0.610
2020/01/31 11:25:25.7	301.070	-0.070	-0.310	0.620
2020/01/31 11:25:25.8	301.060	-0.070	-0.340	0.630
2020/01/31 11:25:25.9	301.050	-0.070	-0.360	0.640
2020/01/31 11:25:26.0	301.050	-0.070	-0.390	0.640
2020/01/31 11:25:26.1	301.040	-0.080	-0.420	0.650
2020/01/31 11:25:26.2	301.040	-0.080	-0.440	0.650
2020/01/31 11:25:26.3	301.030	-0.080	-0.470	0.660
2020/01/31 11:25:26.4	301.030	-0.080	-0.490	0.660
2020/01/31 11:25:26.5	301.010	-0.080	-0.520	0.660
2020/01/31 11:25:26.6	301.010	-0.080	-0.540	0.670
2020/01/31 11:25:26.7	301.020	-0.080	-0.560	0.670
2020/01/31 11:25:26.8	301.020	-0.080	-0.580	0.680
2020/01/31 11:25:26.9	301.020	-0.080	-0.590	0.680
2020/01/31 11:25:27.0	301.020	-0.080	-0.610	0.690
2020/01/31 11:25:27.1	301.030	-0.080	-0.620	0.700
2020/01/31 11:25:27.2	301.030	-0.090	-0.630	0.700
2020/01/31 11:25:27.3	301.040	-0.090	-0.640	0.710
2020/01/31 11:25:27.4	301.050	-0.090	-0.640	0.720
2020/01/31 11:25:27.5	301.060	-0.090	-0.640	0.730
2020/01/31 11:25:27.6	301.070	-0.090	-0.640	0.740
2020/01/31 11:25:27.7	301.080	-0.090	-0.640	0.750
2020/01/31 11:25:27.8	301.090	-0.090	-0.630	0.750
2020/01/31 11:25:27.9	301.100	-0.100	-0.620	0.760
2020/01/31 11:25:28.0	301.110	-0.100	-0.610	0.770
2020/01/31 11:25:28.1	301.130	-0.100	-0.600	0.780
2020/01/31 11:25:28.2	301.140	-0.100	-0.580	0.790
2020/01/31 11:25:28.3	301.150	-0.100	-0.560	0.800
2020/01/31 11:25:28.4	301.170	-0.100	-0.540	0.800
2020/01/31 11:25:28.5	301.200	-0.110	-0.520	0.810
2020/01/31 11:25:28.6	301.210	-0.110	-0.490	0.820
2020/01/31 11:25:28.7	301.220	-0.110	-0.470	0.830
2020/01/31 11:25:28.8	301.240	-0.110	-0.440	0.830
2020/01/31 11:25:28.9	301.250	-0.110	-0.410	0.840
2020/01/31 11:25:29.0	301.260	-0.110	-0.390	0.850
2020/01/31 11:25:29.1	301.280	-0.110	-0.360	0.850
2020/01/31 11:25:29.2	301.290	-0.110	-0.330	0.860
2020/01/31 11:25:29.3	301.310	-0.110	-0.290	0.860
2020/01/31 11:25:29.4	301.320	-0.110	-0.260	0.860
2020/01/31 11:25:29.5	301.340	-0.110	-0.230	0.860
2020/01/31 11:25:29.6	301.360	-0.110	-0.200	0.860
2020/01/31 11:25:29.7	301.370	-0.110	-0.170	0.860
2020/01/31 11:25:29.8	301.390	-0.100	-0.140	0.850
2020/01/31 11:25:29.9	301.400	-0.100	-0.120	0.850
2020/01/31 11:25:30.0	301.420	-0.100	-0.090	0.840
2020/01/31 11:25:30.1	301.440	-0.090	-0.070	0.820
2020/01/31 11:25:30.2	301.450	-0.080	-0.040	0.810
2020/01/31 11:25:30.3	301.470	-0.080	-0.020	0.790
2020/01/31 11:25:30.4	301.490	-0.070	-0.000	0.770
2020/01/31 11:25:30.5	301.510	-0.060	0.010	0.740
2020/01/31 11:25:30.6	301.530	-0.050	0.020	0.720
2020/01/31 11:25:30.7	301.550	-0.040	0.040	0.690
2020/01/31 11:25:30.8	301.570	-0.030	0.050	0.660
2020/01/31 11:25:30.9	301.590	-0.020	0.050	0.620
2020/01/31 11:25:31.0	301.610	-0.010	0.060	0.590
2020/01/31 11:25:31.1	301.630	0.010	0.060	0.550
2020/01/31 11:25:31.2	301.650	0.020	0.070	0.510
2020/01/31 11:25:31.3	301.670	0.030	0.070	0.470
2020/01/31 11:25:31.4	301.690	0.040	0.070	0.430
2020/01/31 11:25:31.5	301.710	0.060	0.060	0.390
2020/01/31 11:25:31.6	301.730	0.070	0.060	0.350
2020/01/31 11:25:31.7	301.750	0.090	0.060	0.310
2020/01/31 11:25:31.8	301.770	0.100	0.050	0.280
2020/01/31 11:25:31.9	301.780	0.110	0.040	0.240
2020/01/31 11:25:32.0	301.800	0.130	0.040	0.200
2020/01/31 11:25:32.1	301.820	0.140	0.030	0.170
2020/01/31 11:25:32.2	301.830	0.150	0.020	0.140
2020/01/31 11:25:32.3	301.840	0.160	0.020	0.110
2020/01/31 11:25:32.4	301.860	0.170	0.010	0.090
2020/01/31 11:25:32.5	301.870	0.180	0.010	0.070
2020/01/31 11:25:32.6	301.870	0.190	0.000	0.050
2020/01/31 11:25:32.7	301.880	0.200	-0.010	0.030
2020/01/31 11:25:32.8	301.880	0.210	-0.010	0.020
2020/01/31 11:25:32.9	301.890	0.210	-0.020	0.010
2020/01/31 11:25:33.0	301.890	0.220	-0.020	0.000
2020/01/31 11:25:33.1	301.880	0.220	-0.030	0.000
2020/01/31 11:25:33.2	301.880	0.220	-0.030	0.000
2020/01/31 11:25:33.3	301.870	0.220	-0.030	0.010
2020/01/31 11:25:33.4	301.860	0.220	-0.030	0.020
2020/01/31 11:25:33.5	301.850	0.220	-0.040	0.030
2020/01/31 11:25:33.6	301.830	0.220	-0.040	0.050
2020/01/31 11:25:33.7	301.820	0.210	-0.040	0.070
2020/01/31 11:25:33.8	301.800	0.210	-0.040	0.100
2020/01/31 11:25:33.9	301.770	0.200	-0.040	0.130
2020/01/31 11:25:34.0	301.750	0.190	-0.030	0.160
2020/01/31 11:25:34.1	301.730	0.180	-0.030	0.190
2020/01/31 11:25:34.2	301.700	0.170	-0.030	0.230
2020/01/31 11:25:34.3	301.670	0.160	-0.030	0.270
2020/01/31 11:25:34.4	301.640	0.150	-0.030	0.310
2020/01/31 11:25:34.5	301.610	0.130	-0.020	0.350
2020/01/31 11:25:34.6	301.580	0.120	-0.020	0.390
2020/01/31 11:25:34.7	301.540	0.110	-0.020	0.430
2020/01/31 11:25:34.8	301.510	0.090	-0.020	0.470
2020/01/31 11:25:34.9	301.470	0.080	-0.030	0.520
2020/01/31 11:25:35.0	301.430	0.060	-0.030	0.560
2020/01/31 11:25:35.1	301.390	0.040	-0.040	0.600
2020/01/31 11:25:35.2	301.350	0.030	-0.040	0.640
2020/01/31 11:25:35.3	301.310	0.010	-0.050	0.680
2020/01/31 11:25:35.4	301.270	-0.000	-0.060	0.720
2020/01/31 11:25:35.5	301.230	-0.020	-0.070	0.750
2020/01/31 11:25:35.6	301.190	-0.030	-0.090	0.790
2020/01/31 11:25:35.7	301.150	-0.050	-0.110	0.820
2020/01/31 11:25:35.8	301.110	-0.060	-0.120	0.850
2020/01/31 11:25:35.9	301.070	-0.070	-0.150	0.880
2020/01/31 11:25:36.0	301.040	-0.090	-0.170	0.900
2020/01/31 11:25:36.1	301.000	-0.100	-0.190	0.920
2020/01/31 11:25:36.2	300.970	-0.110	-0.220	0.940
2020/01/31 11:25:36.3	300.940	-0.120	-0.240	0.950
2020/01/31 11:25:36.4	300.910	-0.130	-0.270	0.960
2020/01/31 11:25:36.5	300.880	-0.130	-0.300	0.960
2020/01/31 11:25:36.6	300.850	-0.140	-0.330	0.960
2020/01/31 11:25:36.7	300.830	-0.150	-0.360	0.960
2020/01/31 11:25:36.8	300.810	-0.150	-0.400	0.950
2020/01/31 11:25:36.9	300.790	-0.150	-0.430	0.940
2020/01/31 11:25:37.0	300.780	-0.150	-0.460	0.920
2020/01/31 11:25:37.1	300.760	-0.150	-0.500	0.900
2020/01/31 11:25:37.2	300.750	-0.150	-0.530	0.880
2020/01/31 11:25:37.3	300.750	-0.150	-0.560	0.860
2020/01/31 11:25:37.4	300.740	-0.140	-0.590	0.840
2020/01/31 11:25:37.5	300.750	-0.140	-0.630	0.810
2020/01/31 11:25:37.6	300.750	-0.130	-0.660	0.780
2020/01/31 11:25:37.7	300.750	-0.130	-0.690	0.750
2020/01/31 11:25:37.8	300.760	-0.120	-0.720	0.720
2020/01/31 11:25:37.9	300.760	-0.110	-0.740	0.680
2020/01/31 11:25:38.0	300.780	-0.100	-0.770	0.650
2020/01/31 11:25:38.1	300.790	-0.090	-0.790	0.620
2020/01/31 11:25:38.2	300.800	-0.080	-0.810	0.580
2020/01/31 11:25:38.3	300.820	-0.080	-0.830	0.550
2020/01/31 11:25:38.4	300.840	-0.070	-0.850	0.510
2020/01/31 11:25:38.5	300.870	-0.060	-0.860	0.470
2020/01/31 11:25:38.6	300.890	-0.050	-0.880	0.440
2020/01/31 11:25:38.7	300.920	-0.040	-0.890	0.400
2020/01/31 11:25:38.8	300.940	-0.030	-0.900	0.370
2020/01/31 11:25:38.9	300.970	-0.020	-0.910	0.330
2020/01/31 11:25:39.0	301.000	-0.010	-0.910	0.300
2020/01/31 11:25:39.1	301.030	-0.000	-0.910	0.270
2020/01/31 11:25:39.2	301.060	0.010	-0.910	0.230
2020/01/31 11:25:39.3	301.100	0.010	-0.910	0.200
2020/01/31 11:25:39.4	301.130	0.020	-0.900	0.170
2020/01/31 11:25:39.5	301.140	0.030	-0.900	0.150
2020/01/31 11:25:39.6	301.180	0.030	-0.890	0.120
2020/01/31 11:25:39.7	301.220	0.030	-0.870	0.090
2020/01/31 11:25:39.8	301.250	0.040	-0.850	0.070
2020/01/31 11:25:39.9	301.290	0.040	-0.830	0.050
2020/01/31 11:25:40.0	301.330	0.040	-0.810	0.030
2020/01/31 11:25:40.1	301.370	0.040	-0.780	0.010
2020/01/31 11:25:40.2	301.410	0.040	-0.760	-0.000
2020/01/31 11:25:40.3	301.450	0.040	-0.730	-0.020
2020/01/31 11:25:40.4	301.480	0.040	-0.690	-0.030
2020/01/31 11:25:40.5	301.530	0.040	-0.660	-0.040
2020/01/31 11:25:40.6	301.570	0.030	-0.620	-0.040
2020/01/31 11:25:40.7	301.610	0.030	-0.580	-0.040
2020/01/31 11:25:40.8	301.640	0.020	-0.540	-0.040
2020/01/31 11:25:40.9	301.680	0.020	-0.500	-0.040
2020/01/31 11:25:41.0	301.710	0.010	-0.450	-0.030
2020/01/31 11:25:41.1	301.740	0.010	-0.410	-0.020
2020/01/31 11:25:41.2	301.770	-0.000	-0.360	-0.010
2020/01/31 11:25:41.3	301.800	-0.010	-0.310	0.010
2020/01/31 11:25:41.4	301.820	-0.020	-0.260	0.020
2020/01/31 11:25:41.5	301.840	-0.030	-0.210	0.050
2020/01/31 11:25:41.6	301.860	-0.040	-0.160	0.070
2020/01/31 11:25:41.7	301.880	-0.050	-0.110	0.100
2020/01/31 11:25:41.8	301.900	-0.060	-0.060	0.130
2020/01/31 11:25:41.9	301.910	-0.070	-0.010	0.160
2020/01/31 11:25:42.0	301.930	-0.080	0.040	0.200
2020/01/31 11:25:42.1	301.940	-0.090	0.090	0.230
2020/01/31 11:25:42.2	301.950	-0.100	0.140	0.270
2020/01/31 11:25:42.3	301.950	-0.110	0.190	0.310
2020/01/31 11:25:42.4	301.960	-0.120	0.230	0.350
2020/01/31 11:25:42.5	301.960	-0.120	0.280	0.390
2020/01/31 11:25:42.6	301.960	-0.130	0.320	0.440
2020/01/31 11:25:42.7	301.960	-0.140	0.360	0.480
2020/01/31 11:25:42.8	301.950	-0.150	0.390	0.520
2020/01/31 11:25:42.9	301.950	-0.150	0.430	0.570
2020/01/31 11:25:43.0	301.940	-0.160	0.460	0.610
2020/01/31 11:25:43.1	301.920	-0.160	0.490	0.660
2020/01/31 11:25:43.2	301.910	-0.170	0.510	0.700
2020/01/31 11:25:43.3	301.900	-0.170	0.530	0.750
2020/01/31 11:25:43.4	301.880	-0.170	0.550	0.790
2020/01/31 11:25:43.5	301.860	-0.170	0.560	0.830
2020/01/31 11:25:43.6	301.840	-0.170	0.570	0.870
2020/01/31 11:25:43.7	301.820	-0.170	0.580	0.910
2020/01/31 11:25:43.8	301.790	-0.160	0.580	0.950
2020/01/31 11:25:43.9	301.770	-0.160	0.580	0.990
2020/01/31 11:25:44.0	301.750	-0.150	0.570	1.020
2020/01/31 11:25:44.1	301.720	-0.150	0.560	1.050
2020/01/31 11:25:44.2	301.700	-0.140	0.550	1.070
2020/01/31 11:25:44.3	301.670	-0.130	0.530	1.100
2020/01/31 11:25:44.4	301.650	-0.120	0.510	1.120
2020/01/31 11:25:44.5	301.630	-0.110	0.480	1.130
2020/01/31 11:25:44.6	301.610	-0.100	0.450	1.150
2020/01/31 11:25:44.7	301.580	-0.090	0.420	1.160
2020/01/31 11:25:44.8	301.560	-0.080	0.390	1.160
2020/01/31 11:25:44.9	301.530	-0.070	0.360	1.170
2020/01/31 11:25:45.0	301.510	-0.060	0.320	1.170
2020/01/31 11:25:45.1	301.480	-0.040	0.280	1.160
2020/01/31 11:25:45.2	301.450	-0.030	0.240	1.160
2020/01/31 11:25:45.3	301.430	-0.020	0.200	1.150
2020/01/31 11:25:45.4	301.400	-0.010	0.160	1.130
2020/01/31 11:25:45.5	301.380	0.000	0.120	1.120
2020/01/31 11:25:45.6	301.350	0.020	0.080	1.100
2020/01/31 11:25:45.7	301.330	0.030	0.040	1.080
2020/01/31 11:25:45.8	301.300	0.040	-0.000	1.060
2020/01/31 11:25:45.9	301.280	0.050	-0.040	1.030
2020/01/31 11:25:46.0	301.250	0.060	-0.080	1.010
2020/01/31 11:25:46.1	301.230	0.070	-0.120	0.990
2020/01/31 11:25:46.2	301.200	0.080	-0.160	0.960
2020/01/31 11:25:46.3	301.170	0.080	-0.190	0.940
2020/01/31 11:25:46.4	301.150	0.090	-0.220	0.910
2020/01/31 11:25:46.5	301.120	0.100	-0.250	0.880
2020/01/31 11:25:46.6	301.090	0.100	-0.280	0.860
2020/01/31 11:25:46.7	301.060	0.110	-0.300	0.830
2020/01/31 11:25:46.8	301.040	0.110	-0.330	0.810
2020/01/31 11:25:46.9	301.010	0.110	-0.350	0.780
2020/01/31 11:25:47.0	300.990	0.120	-0.370	0.760
2020/01/31 11:25:47.1	300.960	0.120	-0.390	0.730
2020/01/31 11:25:47.2	300.930	0.120	-0.410	0.710
2020/01/31 11:25:47.3	300.910	0.120	-0.430	0.690
2020/01/31 11:25:47.4	300.890	0.120	-0.440	0.660
2020/01/31 11:25:47.5	300.860	0.110	-0.460	0.640
2020/01/31 11:25:47.6	300.840	0.110	-0.480	0.620
2020/01/31 11:25:47.7	300.820	0.110	-0.490	0.600
2020/01/31 11:25:47.8	300.810	0.110	-0.510	0.580
2020/01/31 11:25:47.9	300.790	0.100	-0.520	0.560
2020/01/31 11:25:48.0	300.780	0.100	-0.540	0.540
2020/01/31 11:25:48.1	300.770	0.090	-0.550	0.520
2020/01/31 11:25:48.2	300.760	0.090	-0.570	0.500
2020/01/31 11:25:48.3	300.760	0.090	-0.590	0.480
2020/01/31 11:25:48.4	300.760	0.080	-0.600	0.460
2020/01/31 11:25:48.5	300.740	0.080	-0.620	0.430
2020/01/31 11:25:48.6	300.750	0.070	-0.640	0.410
2020/01/31 11:25:48.7	300.750	0.070	-0.660	0.390
2020/01/31 11:25:48.8	300.760	0.070	-0.680	0.370
2020/01/31 11:25:48.9	300.770	0.060	-0.700	0.340
2020/01/31 11:25:49.0	300.780	0.060	-0.730	0.320
2020/01/31 11:25:49.1	300.800	0.060	-0.750	0.300
2020/01/31 11:25:49.2	300.810	0.060	-0.770	0.280
2020/01/31 11:25:49.3	300.830	0.050	-0.790	0.260
2020/01/31 11:25:49.4	300.850	0.050	-0.810	0.240
2020/01/31 11:25:49.5	300.900	0.050	-0.840	0.220
2020/01/31 11:25:49.6	300.920	0.050	-0.860	0.200
2020/01/31 11:25:49.7	300.950	0.050	-0.880	0.180
2020/01/31 11:25:49.8	300.970	0.050	-0.890	0.160
2020/01/31 11:25:49.9	301.000	0.050	-0.910	0.140
2020/01/31 11:25:50.0	301.030	0.050	-0.920	0.120
2020/01/31 11:25:50.1	301.060	0.040	-0.930	0.100
2020/01/31 11:25:50.2	301.090	0.040	-0.940	0.090
2020/01/31 11:25:50.3	301.130	0.040	-0.950	0.070
2020/01/31 11:25:50.4	301.160	0.040	-0.950	0.060
2020/01/31 11:25:50.5	301.190	0.040	-0.940	0.040
2020/01/31 11:25:50.6	301.220	0.040	-0.940	0.040
2020/01/31 11:25:50.7	301.250	0.040	-0.930	0.030
2020/01/31 11:25:50.8	301.280	0.040	-0.920	0.020
2020/01/31 11:25:50.9	301.310	0.030	-0.910	0.020
2020/01/31 11:25:51.0	301.340	0.030	-0.890	0.020
2020/01/31 11:25:51.1	301.370	0.030	-0.860	0.020
2020/01/31 11:25:51.2	301.400	0.020	-0.840	0.030
2020/01/31 11:25:51.3	301.430	0.020	-0.810	0.030
2020/01/31 11:25:51.4	301.450	0.010	-0.770	0.040
2020/01/31 11:25:51.5	301.480	0.010	-0.730	0.060
2020/01/31 11:25:51.6	301.500	0.000	-0.690	0.070
2020/01/31 11:25:51.7	301.530	-0.000	-0.650	0.090
2020/01/31 11:25:51.8	301.550	-0.010	-0.610	0.110
2020/01/31 11:25:51.9	301.560	-0.010	-0.560	0.120
2020/01/31 11:25:52.0	301.580	-0.020	-0.510	0.150
2020/01/31 11:25:52.1	301.600	-0.030	-0.460	0.170
2020/01/31 11:25:52.2	301.610	-0.030	-0.410	0.190
2020/01/31 11:25:52.3	301.630	-0.040	-0.350	0.220
2020/01/31 11:25:52.4	301.640	-0.050	-0.300	0.250
2020/01/31 11:25:52.5	301.640	-0.060	-0.250	0.270
2020/01/31 11:25:52.6	301.650	-0.070	-0.200	0.300
2020/01/31 11:25:52.7	301.660	-0.080	-0.140	0.330
2020/01/31 11:25:52.8	301.660	-0.080	-0.090	0.360
2020/01/31 11:25:52.9	301.670	-0.090	-0.040	0.390
2020/01/31 11:25:53.0	301.670	-0.100	0.010	0.420
2020/01/31 11:25:53.1	301.680	-0.110	0.050	0.460
2020/01/31 11:25:53.2	301.680	-0.120	0.100	0.490
2020/01/31 11:25:53.3	301.680	-0.130	0.140	0.520
2020/01/31 11:25:53.4	301.680	-0.130	0.180	0.550
2020/01/31 11:25:53.5	301.690	-0.140	0.220	0.580
2020/01/31 11:25:53.6	301.690	-0.150	0.250	0.610
2020/01/31 11:25:53.7	301.680	-0.160	0.290	0.640
2020/01/31 11:25:53.8	301.670	-0.160	0.310	0.670
2020/01/31 11:25:53.9	301.670	-0.170	0.340	0.690
2020/01/31 11:25:54.0	301.660	-0.170	0.360	0.720
2020/01/31 11:25:54.1	301.650	-0.180	0.380	0.740
2020/01/31 11:25:54.2	301.630	-0.180	0.400	0.770
2020/01/31 11:25:54.3	301.620	-0.180	0.410	0.790
2020/01/31 11:25:54.4	301.610	-0.180	0.420	0.810
2020/01/31 11:25:54.5	301.600	-0.180	0.430	0.830
2020/01/31 11:25:54.6	301.590	-0.180	0.430	0.840
2020/01/31 11:25:54.7	301.570	-0.180	0.430	0.860
2020/01/31 11:25:54.8	301.550	-0.180	0.420	0.880
2020/01/31 11:25:54.9	301.540	-0.170	0.420	0.890
2020/01/31 11:25:55.0	301.520	-0.170	0.410	0.900
2020/01/31 11:25:55.1	301.500	-0.160	0.400	0.910
2020/01/31 11:25:55.2	301.480	-0.150	0.380	0.920
2020/01/31 11:25:55.3	301.470	-0.140	0.360	0.930
2020/01/31 11:25:55.4	301.450	-0.130	0.350	0.940
2020/01/31 11:25:55.5	301.420	-0.120	0.320	0.940
2020/01/31 11:25:55.6	301.400	-0.110	0.300	0.940
2020/01/31 11:25:55.7	301.380	-0.100	0.280	0.950
2020/01/31 11:25:55.8	301.350	-0.080	0.260	0.950
2020/01/31 11:25:55.9	301.330	-0.070	0.230	0.950
2020/01/31 11:25:56.0	301.310	-0.050	0.200	0.950
2020/01/31 11:25:56.1	301.290	-0.030	0.180	0.950
2020/01/31 11:25:56.2	301.260	-0.020	0.150	0.950
2020/01/31 11:25:56.3	301.240	-0.000	0.120	0.940
2020/01/31 11:25:56.4	301.220	0.020	0.090	0.940
2020/01/31 11:25:56.5	301.190	0.040	0.060	0.930
2020/01/31 11:25:56.6	301.160	0.060	0.030	0.930
2020/01/31 11:25:56.7	301.140	0.070	0.010	0.920
2020/01/31 11:25:56.8	301.120	0.090	-0.030	0.910
2020/01/31 11:25:56.9	301.100	0.110	-0.060	0.900
2020/01/31 11:25:57.0	301.080	0.130	-0.090	0.880
2020/01/31 11:25:57.1	301.060	0.150	-0.120	0.870
2020/01/31 11:25:57.2	301.040	0.170	-0.150	0.850
2020/01/31 11:25:57.3	301.020	0.180	-0.180	0.830
2020/01/31 11:25:57.4	301.010	0.200	-0.210	0.810
2020/01/31 11:25:57.5	300.990	0.220	-0.240	0.790
2020/01/31 11:25:57.6	300.980	0.240	-0.270	0.760
2020/01/31 11:25:57.7	300.970	0.250	-0.310	0.740
2020/01/31 11:25:57.8	300.960	0.270	-0.340	0.710
2020/01/31 11:25:57.9	300.950	0.280	-0.370	0.680
2020/01/31 11:25:58.0	300.950	0.290	-0.390	0.650
2020/01/31 11:25:58.1	300.940	0.310	-0.420	0.630
2020/01/31 11:25:58.2	300.940	0.320	-0.450	0.600
2020/01/31 11:25:58.3	300.940	0.330	-0.480	0.570
2020/01/31 11:25:58.4	300.940	0.340	-0.510	0.540
2020/01/31 11:25:58.5	300.920	0.340	-0.530	0.510
2020/01/31 11:25:58.6	300.930	0.350	-0.550	0.480
2020/01/31 11:25:58.7	300.930	0.350	-0.570	0.450
2020/01/31 11:25:58.8	300.940	0.360	-0.590	0.420
2020/01/31 11:25:58.9	300.940	0.360	-0.610	0.400
2020/01/31 11:25:59.0	300.950	0.360	-0.630	0.370
2020/01/31 11:25:59.1	300.960	0.350	-0.640	0.350
2020/01/31 11:25:59.2	300.960	0.350	-0.650	0.320
2020/01/31 11:25:59.3	300.970	0.340	-0.660	0.300
2020/01/31 11:25:59.4	300.980	0.340	-0.660	0.280
2020/01/31 11:25:59.5	300.990	0.330	-0.670	0.260
2020/01/31 11:25:59.6	301.000	0.320	-0.670	0.240
2020/01/31 11:25:59.7	301.010	0.300	-0.660	0.230
2020/01/31 11:25:59.8	301.020	0.290	-0.660	0.210
2020/01/31 11:25:59.9	301.030	0.270	-0.660	0.200
2020/01/31 11:26:00.0	301.040	0.250	-0.650	0.190
2020/01/31 11:26:00.1	301.050	0.230	-0.640	0.180
2020/01/31 11:26:00.2	301.060	0.210	-0.630	0.170
2020/01/31 11:26:00.3	301.070	0.190	-0.610	0.170
2020/01/31 11:26:00.4	301.080	0.170	-0.600	0.160
2020/01/31 11:26:00.5	301.100	0.140	-0.590	0.170
2020/01/31 11:26:00.6	301.110	0.120	-0.570	0.170
2020/01/31 11:26:00.7	301.120	0.090	-0.550	0.170
2020/01/31 11:26:00.8	301.130	0.060	-0.530	0.170
2020/01/31 11:26:00.9	301.140	0.040	-0.520	0.170
2020/01/31 11:26:01.0	301.140	0.010	-0.500	0.170
2020/01/31 11:26:01.1	301.150	-0.020	-0.480	0.180
2020/01/31 11:26:01.2	301.160	-0.050	-0.450	0.180
2020/01/31 11:26:01.3	301.160	-0.070	-0.430	0.190
2020/01/31 11:26:01.4	301.170	-0.100	-0.410	0.190
2020/01/31 11:26:01.5	301.180	-0.130	-0.390	0.200
2020/01/31 11:26:01.6	301.180	-0.160	-0.370	0.210
2020/01/31 11:26:01.7	301.180	-0.180	-0.340	0.220
2020/01/31 11:26:01.8	301.190	-0.210	-0.320	0.230
2020/01/31 11:26:01.9	301.190	-0.230	-0.300	0.250
2020/01/31 11:26:02.0	301.190	-0.260	-0.280	0.260
2020/01/31 11:26:02.1	301.190	-0.280	-0.250	0.280
2020/01/31 11:26:02.2	301.190	-0.300	-0.230	0.300
2020/01/31 11:26:02.3	301.190	-0.320	-0.210	0.310
2020/01/31 11:26:02.4	301.190	-0.340	-0.180	0.340
2020/01/31 11:26:02.5	301.190	-0.350	-0.160	0.360
2020/01/31 11:26:02.6	301.190	-0.370	-0.140	0.380
2020/01/31 11:26:02.7	301.180	-0.380	-0.110	0.410
2020/01/31 11:26:02.8	301.180	-0.390	-0.090	0.440
2020/01/31 11:26:02.9	301.170	-0.400	-0.060	0.470
2020/01/31 11:26:03.0	301.170	-0.410	-0.040	0.500
2020/01/31 11:26:03.1	301.160	-0.420	-0.020	0.530
2020/01/31 11:26:03.2	301.150	-0.420	0.000	0.570
2020/01/31 11:26:03.3	301.140	-0.430	0.030	0.600
2020/01/31 11:26:03.4	301.130	-0.430	0.050	0.630
2020/01/31 11:26:03.5	301.130	-0.430	0.070	0.670
2020/01/31 11:26:03.6	301.120	-0.430	0.080	0.700
2020/01/31 11:26:03.7	301.110	-0.430	0.100	0.740
2020/01/31 11:26:03.8	301.100	-0.420	0.110	0.770
2020/01/31 11:26:03.9	301.090	-0.420	0.130	0.800
2020/01/31 11:26:04.0	301.080	-0.410	0.140	0.820
2020/01/31 11:26:04.1	301.080	-0.400	0.140	0.850
2020/01/31 11:26:04.2	301.070	-0.390	0.150	0.870
2020/01/31 11:26:04.3	301.060	-0.380	0.150	0.890
2020/01/31 11:26:04.4	301.050	-0.370	0.150	0.910
2020/01/31 11:26:04.5	301.040	-0.360	0.140	0.920
2020/01/31 11:26:04.6	301.030	-0.350	0.130	0.940
2020/01/31 11:26:04.7	301.030	-0.330	0.120	0.940
2020/01/31 11:26:04.8	301.020	-0.320	0.110	0.950
2020/01/31 11:26:04.9	301.020	-0.300	0.090	0.950
2020/01/31 11:26:05.0	301.010	-0.290	0.070	0.950
2020/01/31 11:26:05.1	301.010	-0.270	0.050	0.950
2020/01/31 11:26:05.2	301.010	-0.260	0.030	0.950
2020/01/31 11:26:05.3	301.000	-0.240	0.000	0.940
2020/01/31 11:26:05.4	301.000	-0.220	-0.030	0.930
2020/01/31 11:26:05.5	300.990	-0.200	-0.050	0.910
2020/01/31 11:26:05.6	300.990	-0.190	-0.080	0.900
2020/01/31 11:26:05.7	300.990	-0.170	-0.120	0.880
2020/01/31 11:26:05.8	300.990	-0.150	-0.150	0.870
2020/01/31 11:26:05.9	300.990	-0.130	-0.180	0.850
2020/01/31 11:26:06.0	300.980	-0.120	-0.210	0.830
2020/01/31 11:26:06.1	300.980	-0.100	-0.240	0.800
2020/01/31 11:26:06.2	300.980	-0.080	-0.270	0.780
2020/01/31 11:26:06.3	300.980	-0.060	-0.300	0.760
2020/01/31 11:26:06.4	300.980	-0.050	-0.330	0.740
2020/01/31 11:26:06.5	300.990	-0.030	-0.360	0.710
2020/01/31 11:26:06.6	300.990	-0.020	-0.380	0.690
2020/01/31 11:26:06.7	300.990	-0.000	-0.400	0.670
2020/01/31 11:26:06.8	300.990	0.010	-0.420	0.650
2020/01/31 11:26:06.9	300.990	0.030	-0.440	0.630
2020/01/31 11:26:07.0	300.980	0.040	-0.460	0.610
2020/01/31 11:26:07.1	300.980	0.050	-0.470	0.590
2020/01/31 11:26:07.2	300.980	0.070	-0.480	0.580
2020/01/31 11:26:07.3	300.980	0.080	-0.490	0.560
2020/01/31 11:26:07.4	300.980	0.090	-0.500	0.550
2020/01/31 11:26:07.5	300.970	0.100	-0.510	0.540
2020/01/31 11:26:07.6	300.970	0.110	-0.520	0.530
2020/01/31 11:26:07.7	300.970	0.120	-0.520	0.520
2020/01/31 11:26:07.8	300.970	0.130	-0.520	0.520
2020/01/31 11:26:07.9	300.970	0.140	-0.520	0.510
2020/01/31 11:26:08.0	300.970	0.150	-0.520	0.510
2020/01/31 11:26:08.1	300.970	0.160	-0.520	0.510
2020/01/31 11:26:08.2	300.970	0.160	-0.510	0.510
2020/01/31 11:26:08.3	300.970	0.170	-0.510	0.510
2020/01/31 11:26:08.4	300.980	0.180	-0.510	0.510
2020/01/31 11:26:08.5	300.970	0.180	-0.500	0.510
2020/01/31 11:26:08.6	300.970	0.190	-0.490	0.510
2020/01/31 11:26:08.7	300.970	0.200	-0.490	0.510
2020/01/31 11:26:08.8	300.980	0.200	-0.480	0.520
2020/01/31 11:26:08.9	300.980	0.210	-0.480	0.520
2020/01/31 11:26:09.0	300.990	0.210	-0.480	0.530
2020/01/31 11:26:09.1	300.990	0.210	-0.470	0.530
2020/01/31 11:26:09.2	301.000	0.220	-0.470	0.540
2020/01/31 11:26:09.3	301.000	0.220	-0.470	0.540
2020/01/31 11:26:09.4	301.010	0.230	-0.470	0.550
2020/01/31 11:26:09.5	301.010	0.230	-0.470	0.560
2020/01/31 11:26:09.6	301.020	0.240	-0.470	0.560
2020/01/31 11:26:09.7	301.030	0.240	-0.480	0.570
2020/01/31 11:26:09.8	301.040	0.240	-0.480	0.580
2020/01/31 11:26:09.9	301.050	0.250	-0.480	0.590
2020/01/31 11:26:10.0	301.060	0.250	-0.480	0.600
2020/01/31 11:26:10.1	301.070	0.260	-0.490	0.610
2020/01/31 11:26:10.2	301.090	0.260	-0.490	0.620
2020/01/31 11:26:10.3	301.100	0.270	-0.490	0.630
2020/01/31 11:26:10.4	301.110	0.270	-0.500	0.640
2020/01/31 11:26:10.5	301.120	0.270	-0.500	0.650
2020/01/31 11:26:10.6	301.130	0.280	-0.500	0.670
2020/01/31 11:26:10.7	301.140	0.280	-0.500	0.680
2020/01/31 11:26:10.8	301.150	0.280	-0.500	0.690
2020/01/31 11:26:10.9	301.160	0.290	-0.500	0.710
2020/01/31 11:26:11.0	301.170	0.290	-0.500	0.720
2020/01/31 11:26:11.1	301.180	0.290	-0.490	0.740
2020/01/31 11:26:11.2	301.190	0.290	-0.480	0.750
2020/01/31 11:26:11.3	301.200	0.290	-0.470	0.770
2020/01/31 11:26:11.4	301.210	0.290	-0.460	0.790
2020/01/31 11:26:11.5	301.200	0.290	-0.440	0.800
2020/01/31 11:26:11.6	301.200	0.290	-0.430	0.820
2020/01/31 11:26:11.7	301.210	0.290	-0.410	0.830
2020/01/31 11:26:11.8	301.210	0.290	-0.390	0.850
2020/01/31 11:26:11.9	301.220	0.280	-0.360	0.870
2020/01/31 11:26:12.0	301.220	0.280	-0.340	0.890
2020/01/31 11:26:12.1	301.220	0.270	-0.310	0.900
2020/01/31 11:26:12.2	301.220	0.270	-0.280	0.920
2020/01/31 11:26:12.3	301.220	0.260	-0.250	0.940
2020/01/31 11:26:12.4	301.220	0.260	-0.220	0.960
2020/01/31 11:26:12.5	301.210	0.250	-0.180	0.980
2020/01/31 11:26:12.6	301.210	0.240	-0.150	0.990
2020/01/31 11:26:12.7	301.200	0.240	-0.110	1.010
2020/01/31 11:26:12.8	301.200	0.230	-0.070	1.030
2020/01/31 11:26:12.9	301.190	0.220	-0.040	1.040
2020/01/31 11:26:13.0	301.180	0.210	0.000	1.060
2020/01/31 11:26:13.1	301.180	0.200	0.040	1.080
2020/01/31 11:26:13.2	301.170	0.180	0.080	1.090
2020/01/31 11:26:13.3	301.160	0.170	0.120	1.110
2020/01/31 11:26:13.4	301.140	0.160	0.150	1.120
2020/01/31 11:26:13.5	301.140	0.150	0.190	1.130
2020/01/31 11:26:13.6	301.120	0.130	0.230	1.150
2020/01/31 11:26:13.7	301.110	0.120	0.260	1.160
2020/01/31 11:26:13.8	301.090	0.100	0.290	1.170
2020/01/31 11:26:13.9	301.070	0.080	0.320	1.170
2020/01/31 11:26:14.0	301.060	0.070	0.350	1.180
2020/01/31 11:26:14.1	301.040	0.050	0.370	1.180
2020/01/31 11:26:14.2	301.020	0.030	0.390	1.180
2020/01/31 11:26:14.3	301.010	0.010	0.410	1.170
2020/01/31 11:26:14.4	300.990	-0.010	0.430	1.170
2020/01/31 11:26:14.5	300.980	-0.030	0.440	1.160
2020/01/31 11:26:14.6	300.970	-0.050	0.450	1.140
2020/01/31 11:26:14.7	300.950	-0.070	0.460	1.130
2020/01/31 11:26:14.8	300.930	-0.090	0.460	1.110
2020/01/31 11:26:14.9	300.910	-0.110	0.460	1.080
2020/01/31 11:26:15.0	300.900	-0.130	0.450	1.050
2020/01/31 11:26:15.1	300.880	-0.150	0.440	1.020
2020/01/31 11:26:15.2	300.870	-0.160	0.430	0.990
2020/01/31 11:26:15.3	300.850	-0.180	0.410	0.950
2020/01/31 11:26:15.4	300.840	-0.200	0.390	0.910
2020/01/31 11:26:15.5	300.810	-0.220	0.370	0.870
2020/01/31 11:26:15.6	300.800	-0.230	0.350	0.830
2020/01/31 11:26:15.7	300.790	-0.250	0.320	0.780
2020/01/31 11:26:15.8	300.780	-0.260	0.290	0.730
2020/01/31 11:26:15.9	300.770	-0.270	0.250	0.680
2020/01/31 11:26:16.0	300.760	-0.280	0.220	0.630
2020/01/31 11:26:16.1	300.750	-0.290	0.180	0.580
2020/01/31 11:26:16.2	300.740	-0.300	0.140	0.530
2020/01/31 11:26:16.3	300.730	-0.310	0.100	0.480
2020/01/31 11:26:16.4	300.720	-0.310	0.060	0.430
2020/01/31 11:26:16.5	300.730	-0.320	0.020	0.370
2020/01/31 11:26:16.6	300.720	-0.320	-0.030	0.320
2020/01/31 11:26:16.7	300.710	-0.320	-0.070	0.270
2020/01/31 11:26:16.8	300.700	-0.320	-0.110	0.220
2020/01/31 11:26:16.9	300.700	-0.320	-0.150	0.180
2020/01/31 11:26:17.0	300.690	-0.320	-0.200	0.130
2020/01/31 11:26:17.1	300.690	-0.310	-0.240	0.090
2020/01/31 11:26:17.2	300.680	-0.310	-0.280	0.040
2020/01/31 11:26:17.3	300.680	-0.300	-0.320	0.000
2020/01/31 11:26:17.4	300.670	-0.300	-0.360	-0.040
2020/01/31 11:26:17.5	300.670	-0.290	-0.400	-0.070
2020/01/31 11:26:17.6	300.670	-0.280	-0.430	-0.110
2020/01/31 11:26:17.7	300.670	-0.270	-0.470	-0.140
2020/01/31 11:26:17.8	300.670	-0.260	-0.500	-0.170
2020/01/31 11:26:17.9	300.670	-0.250	-0.540	-0.200
2020/01/31 11:26:18.0	300.670	-0.240	-0.570	-0.230
2020/01/31 11:26:18.1	300.680	-0.230	-0.600	-0.250
2020/01/31 11:26:18.2	300.680	-0.220	-0.630	-0.280
2020/01/31 11:26:18.3	300.690	-0.210	-0.650	-0.300
2020/01/31 11:26:18.4	300.700	-0.200	-0.680	-0.310
2020/01/31 11:26:18.5	300.710	-0.190	-0.700	-0.330
2020/01/31 11:26:18.6	300.710	-0.180	-0.720	-0.340
2020/01/31 11:26:18.7	300.720	-0.170	-0.730	-0.350
2020/01/31 11:26:18.8	300.730	-0.160	-0.750	-0.360
2020/01/31 11:26:18.9	300.740	-0.160	-0.760	-0.360
2020/01/31 11:26:19.0	300.760	-0.150	-0.780	-0.360
2020/01/31 11:26:19.1	300.770	-0.140	-0.780	-0.360
2020/01/31 11:26:19.2	300.780	-0.140	-0.790	-0.360
2020/01/31 11:26:19.3	300.790	-0.130	-0.800	-0.360
2020/01/31 11:26:19.4	300.810	-0.130	-0.800	-0.350
2020/01/31 11:26:19.5	300.800	-0.120	-0.810	-0.340
2020/01/31 11:26:19.6	300.820	-0.120	-0.810	-0.330
2020/01/31 11:26:19.7	300.830	-0.120	-0.810	-0.320
2020/01/31 11:26:19.8	300.850	-0.120	-0.810	-0.310
2020/01/31 11:26:19.9	300.860	-0.120	-0.800	-0.290
2020/01/31 11:26:20.0	300.880	-0.120	-0.800	-0.280
2020/01/31 11:26:20.1	300.890	-0.120	-0.790	-0.260
2020/01/31 11:26:20.2	300.910	-0.120	-0.790	-0.240
2020/01/31 11:26:20.3	300.930	-0.120	-0.780	-0.220
2020/01/31 11:26:20.4	300.940	-0.120	-0.770	-0.190
2020/01/31 11:26:20.5	300.960	-0.130	-0.760	-0.170
2020/01/31 11:26:20.6	300.980	-0.130	-0.750	-0.140
2020/01/31 11:26:20.7	300.990	-0.130	-0.740	-0.110
2020/01/31 11:26:20.8	301.010	-0.130	-0.730	-0.080
2020/01/31 11:26:20.9	301.020	-0.130	-0.710	-0.050
2020/01/31 11:26:21.0	301.040	-0.130	-0.700	-0.020
2020/01/31 11:26:21.1	301.060	-0.140	-0.690	0.010
2020/01/31 11:26:21.2	301.070	-0.140	-0.670	0.050
2020/01/31 11:26:21.3	301.090	-0.140	-0.660	0.080
2020/01/31 11:26:21.4	301.100	-0.130	-0.640	0.120
2020/01/31 11:26:21.5	301.130	-0.130	-0.630	0.160
2020/01/31 11:26:21.6	301.140	-0.130	-0.610	0.200
2020/01/31 11:26:21.7	301.160	-0.130	-0.590	0.240
2020/01/31 11:26:21.8	301.170	-0.120	-0.580	0.280
2020/01/31 11:26:21.9	301.190	-0.120	-0.560	0.320
2020/01/31 11:26:22.0	301.200	-0.110	-0.540	0.360
2020/01/31 11:26:22.1	301.210	-0.100	-0.520	0.410
2020/01/31 11:26:22.2	301.220	-0.090	-0.500	0.450
2020/01/31 11:26:22.3	301.230	-0.080	-0.480	0.500
2020/01/31 11:26:22.4	301.240	-0.070	-0.460	0.550
2020/01/31 11:26:22.5	301.260	-0.060	-0.440	0.600
2020/01/31 11:26:22.6	301.260	-0.050	-0.420	0.650
2020/01/31 11:26:22.7	301.270	-0.040	-0.400	0.700
2020/01/31 11:26:22.8	301.280	-0.020	-0.380	0.760
2020/01/31 11:26:22.9	301.280	-0.010	-0.370	0.810
2020/01/31 11:26:23.0	301.290	0.000	-0.350	0.870
2020/01/31 11:26:23.1	301.290	0.020	-0.330	0.920
2020/01/31 11:26:23.2	301.290	0.030	-0.310	0.980
2020/01/31 11:26:23.3	301.290	0.050	-0.290	1.040
2020/01/31 11:26:23.4	301.280	0.060	-0.270	1.100
2020/01/31 11:26:23.5	301.280	0.080	-0.250	1.150
2020/01/31 11:26:23.6	301.270	0.090	-0.230	1.210
2020/01/31 11:26:23.7	301.260	0.110	-0.210	1.270
2020/01/31 11:26:23.8	301.260	0.120	-0.200	1.320
2020/01/31 11:26:23.9	301.250	0.140	-0.180	1.380
2020/01/31 11:26:24.0	301.240	0.150	-0.160	1.430
2020/01/31 11:26:24.1	301.230	0.170	-0.140	1.480
2020/01/31 11:26:24.2	301.220	0.180	-0.120	1.530
2020/01/31 11:26:24.3	301.200	0.190	-0.100	1.580
2020/01/31 11:26:24.4	301.190	0.210	-0.090	1.630
2020/01/31 11:26:24.5	301.180	0.220	-0.070	1.670
2020/01/31 11:26:24.6	301.160	0.230	-0.050	1.710
2020/01/31 11:26:24.7	301.140	0.240	-0.030	1.750
2020/01/31 11:26:24.8	301.130	0.250	-0.010	1.780
2020/01/31 11:26:24.9	301.110	0.260	0.010	1.820
2020/01/31 11:26:25.0	301.090	0.260	0.030	1.840
2020/01/31 11:26:25.1	301.070	0.270	0.050	1.870
2020/01/31 11:26:25.2	301.050	0.270	0.070	1.890
2020/01/31 11:26:25.3	301.030	0.280	0.090	1.900
2020/01/31 11:26:25.4	301.010	0.280	0.110	1.920
2020/01/31 11:26:25.5	300.980	0.280	0.130	1.920
2020/01/31 11:26:25.6	300.960	0.290	0.150	1.930
2020/01/31 11:26:25.7	300.940	0.290	0.170	1.930
2020/01/31 11:26:25.8	300.920	0.290	0.190	1.920
2020/01/31 11:26:25.9	300.900	0.280	0.210	1.910
2020/01/31 11:26:26.0	300.880	0.280	0.220	1.900
2020/01/31 11:26:26.1	300.860	0.280	0.240	1.880
2020/01/31 11:26:26.2	300.840	0.280	0.260	1.870
2020/01/31 11:26:26.3	300.820	0.270	0.270	1.840
2020/01/31 11:26:26.4	300.810	0.270	0.290	1.820
2020/01/31 11:26:26.5	300.780	0.260	0.300	1.780
2020/01/31 11:26:26.6	300.760	0.260	0.310	1.750
2020/01/31 11:26:26.7	300.750	0.250	0.330	1.710
2020/01/31 11:26:26.8	300.730	0.250	0.330	1.670
2020/01/31 11:26:26.9	300.720	0.240	0.340	1.630
2020/01/31 11:26:27.0	300.700	0.240	0.350	1.580
2020/01/31 11:26:27.1	300.690	0.230	0.350	1.530
2020/01/31 11:26:27.2	300.680	0.230	0.360	1.480
2020/01/31 11:26:27.3	300.660	0.220	0.360	1.430
2020/01/31 11:26:27.4	300.650	0.220	0.360	1.370
2020/01/31 11:26:27.5	300.650	0.210	0.350	1.310
2020/01/31 11:26:27.6	300.640	0.200	0.350	1.250
2020/01/31 11:26:27.7	300.630	0.200	0.340	1.190
2020/01/31 11:26:27.8	300.630	0.190	0.330	1.120
2020/01/31 11:26:27.9	300.620	0.190	0.320	1.060
2020/01/31 11:26:28.0	300.620	0.190	0.310	0.990
2020/01/31 11:26:28.1	300.620	0.180	0.300	0.920
2020/01/31 11:26:28.2	300.610	0.180	0.280	0.850
2020/01/31 11:26:28.3	300.610	0.170	0.260	0.780
2020/01/31 11:26:28.4	300.610	0.170	0.240	0.710
2020/01/31 11:26:28.5	300.630	0.160	0.210	0.640
2020/01/31 11:26:28.6	300.630	0.160	0.190	0.560
2020/01/31 11:26:28.7	300.630	0.150	0.160	0.490
2020/01/31 11:26:28.8	300.640	0.150	0.130	0.420
2020/01/31 11:26:28.9	300.640	0.140	0.100	0.350
2020/01/31 11:26:29.0	300.650	0.140	0.070	0.280
2020/01/31 11:26:29.1	300.650	0.130	0.040	0.210
2020/01/31 11:26:29.2	300.660	0.130	0.010	0.140
2020/01/31 11:26:29.3	300.670	0.120	-0.030	0.080
2020/01/31 11:26:29.4	300.680	0.110	-0.060	0.010
2020/01/31 11:26:29.5	300.690	0.110	-0.100	-0.050
2020/01/31 11:26:29.6	300.700	0.100	-0.130	-0.100
2020/01/31 11:26:29.7	300.710	0.090	-0.160	-0.160
2020/01/31 11:26:29.8	300.720	0.090	-0.200	-0.210
2020/01/31 11:26:29.9	300.730	0.080	-0.230	-0.260
2020/01/31 11:26:30.0	300.740	0.070	-0.270	-0.300
2020/01/31 11:26:30.1	300.750	0.060	-0.300	-0.340
2020/01/31 11:26:30.2	300.760	0.050	-0.340	-0.380
2020/01/31 11:26:30.3	300.770	0.040	-0.370	-0.410
2020/01/31 11:26:30.4	300.780	0.030	-0.400	-0.440
2020/01/31 11:26:30.5	300.770	0.020	-0.440	-0.470
2020/01/31 11:26:30.6	300.780	0.010	-0.470	-0.490
2020/01/31 11:26:30.7	300.790	0.000	-0.500	-0.500
2020/01/31 11:26:30.8	300.800	-0.010	-0.530	-0.520
2020/01/31 11:26:30.9	300.810	-0.020	-0.560	-0.530
2020/01/31 11:26:31.0	300.820	-0.030	-0.590	-0.530
2020/01/31 11:26:31.1	300.830	-0.040	-0.620	-0.540
2020/01/31 11:26:31.2	300.840	-0.050	-0.650	-0.540
2020/01/31 11:26:31.3	300.840	-0.070	-0.670	-0.530
2020/01/31 11:26:31.4	300.850	-0.080	-0.700	-0.530
2020/01/31 11:26:31.5	300.840	-0.090	-0.730	-0.520
2020/01/31 11:26:31.6	300.850	-0.110	-0.750	-0.500
2020/01/31 11:26:31.7	300.850	-0.120	-0.770	-0.490
2020/01/31 11:26:31.8	300.860	-0.130	-0.790	-0.470
2020/01/31 11:26:31.9	300.860	-0.150	-0.810	-0.440
2020/01/31 11:26:32.0	300.860	-0.160	-0.820	-0.420
2020/01/31 11:26:32.1	300.870	-0.170	-0.840	-0.390
2020/01/31 11:26:32.2	300.870	-0.190	-0.850	-0.360
2020/01/31 11:26:32.3	300.870	-0.200	-0.860	-0.330
2020/01/31 11:26:32.4	300.870	-0.220	-0.860	-0.290
2020/01/31 11:26:32.5	300.860	-0.230	-0.870	-0.250
2020/01/31 11:26:32.6	300.860	-0.250	-0.870	-0.210
2020/01/31 11:26:32.7	300.850	-0.260	-0.870	-0.170
2020/01/31 11:26:32.8	300.850	-0.270	-0.870	-0.120
2020/01/31 11:26:32.9	300.850	-0.290	-0.860	-0.080
2020/01/31 11:26:33.0	300.840	-0.300	-0.860	-0.030
2020/01/31 11:26:33.1	300.840	-0.310	-0.850	0.020
2020/01/31 11:26:33.2	300.830	-0.320	-0.840	0.080
2020/01/31 11:26:33.3	300.830	-0.330	-0.820	0.130
2020/01/31 11:26:33.4	300.820	-0.340	-0.810	0.180
2020/01/31 11:26:33.5	300.820	-0.350	-0.800	0.240
2020/01/31 11:26:33.6	300.810	-0.360	-0.780	0.300
2020/01/31 11:26:33.7	300.810	-0.370	-0.760	0.350
2020/01/31 11:26:33.8	300.810	-0.370	-0.740	0.400
2020/01/31 11:26:33.9	300.800	-0.380	-0.730	0.460
2020/01/31 11:26:34.0	300.800	-0.380	-0.710	0.510
2020/01/31 11:26:34.1	300.800	-0.380	-0.690	0.570
2020/01/31 11:26:34.2	300.800	-0.380	-0.670	0.620
2020/01/31 11:26:34.3	300.790	-0.380	-0.650	0.670
2020/01/31 11:26:34.4	300.790	-0.380	-0.630	0.720
2020/01/31 11:26:34.5	300.810	-0.370	-0.610	0.770
2020/01/31 11:26:34.6	300.810	-0.360	-0.590	0.820
2020/01/31 11:26:34.7	300.810	-0.360	-0.570	0.860
2020/01/31 11:26:34.8	300.810	-0.350	-0.550	0.910
2020/01/31 11:26:34.9	300.810	-0.330	-0.530	0.950
2020/01/31 11:26:35.0	300.820	-0.320	-0.520	0.990
2020/01/31 11:26:35.1	300.820	-0.310	-0.500	1.030
2020/01/31 11:26:35.2	300.820	-0.290	-0.480	1.070
2020/01/31 11:26:35.3	300.830	-0.270	-0.460	1.110
2020/01/31 11:26:35.4	300.830	-0.260	-0.440	1.140
2020/01/31 11:26:35.5	300.840	-0.240	-0.430	1.180
2020/01/31 11:26:35.6	300.850	-0.220	-0.410	1.210
2020/01/31 11:26:35.7	300.850	-0.190	-0.390	1.230
2020/01/31 11:26:35.8	300.860	-0.170	-0.380	1.260
2020/01/31 11:26:35.9	300.870	-0.150	-0.360	1.280
2020/01/31 11:26:36.0	300.880	-0.130	-0.340	1.290
2020/01/31 11:26:36.1	300.890	-0.100	-0.330	1.310
2020/01/31 11:26:36.2	300.890	-0.080	-0.310	1.320
2020/01/31 11:26:36.3	300.900	-0.060	-0.290	1.330
2020/01/31 11:26:36.4	300.910	-0.040	-0.280	1.330
2020/01/31 11:26:36.5	300.920	-0.010	-0.260	1.340
2020/01/31 11:26:36.6	300.930	0.010	-0.240	1.340
2020/01/31 11:26:36.7	300.940	0.030	-0.220	1.330
2020/01/31 11:26:36.8	300.950	0.050	-0.200	1.330
2020/01/31 11:26:36.9	300.960	0.070	-0.180	1.320
2020/01/31 11:26:37.0	300.960	0.090	-0.160	1.320
2020/01/31 11:26:37.1	300.970	0.110	-0.140	1.310
2020/01/31 11:26:37.2	300.980	0.130	-0.110	1.300
2020/01/31 11:26:37.3	300.980	0.140	-0.090	1.290
2020/01/31 11:26:37.4	300.990	0.160	-0.070	1.270
2020/01/31 11:26:37.5	301.000	0.170	-0.040	1.260
2020/01/31 11:26:37.6	301.000	0.180	-0.020	1.250
2020/01/31 11:26:37.7	301.010	0.190	0.010	1.230
2020/01/31 11:26:37.8	301.010	0.200	0.030	1.210
2020/01/31 11:26:37.9	301.010	0.210	0.060	1.190
2020/01/31 11:26:38.0	301.010	0.220	0.090	1.170
2020/01/31 11:26:38.1	301.010	0.220	0.110	1.150
2020/01/31 11:26:38.2	301.010	0.230	0.140	1.130
2020/01/31 11:26:38.3	301.010	0.230	0.160	1.110
2020/01/31 11:26:38.4	301.000	0.230	0.180	1.080
2020/01/31 11:26:38.5	301.000	0.230	0.210	1.050
2020/01/31 11:26:38.6	300.990	0.230	0.230	1.020
2020/01/31 11:26:38.7	300.990	0.230	0.250	0.990
2020/01/31 11:26:38.8	300.980	0.220	0.270	0.960
2020/01/31 11:26:38.9	300.970	0.220	0.280	0.930
2020/01/31 11:26:39.0	300.970	0.210	0.300	0.900
2020/01/31 11:26:39.1	300.960	0.210	0.310	0.870
2020/01/31 11:26:39.2	300.950	0.200	0.320	0.830
2020/01/31 11:26:39.3	300.950	0.190	0.330	0.800
2020/01/31 11:26:39.4	300.940	0.190	0.340	0.760
2020/01/31 11:26:39.5	300.930	0.180	0.340	0.730
2020/01/31 11:26:39.6	300.930	0.170	0.340	0.690
2020/01/31 11:26:39.7	300.920	0.160	0.350	0.660
2020/01/31 11:26:39.8	300.910	0.150	0.350	0.630
2020/01/31 11:26:39.9	300.910	0.140	0.340	0.590
2020/01/31 11:26:40.0	300.900	0.140	0.340	0.560
2020/01/31 11:26:40.1	300.890	0.130	0.340	0.530
2020/01/31 11:26:40.2	300.890	0.120	0.330	0.500
2020/01/31 11:26:40.3	300.880	0.110	0.320	0.470
2020/01/31 11:26:40.4	300.870	0.100	0.310	0.440
2020/01/31 11:26:40.5	300.870	0.100	0.310	0.410
2020/01/31 11:26:40.6	300.860	0.090	0.290	0.380
2020/01/31 11:26:40.7	300.860	0.080	0.280	0.360
2020/01/31 11:26:40.8	300.850	0.080	0.270	0.330
2020/01/31 11:26:40.9	300.850	0.070	0.250	0.310
2020/01/31 11:26:41.0	300.840	0.070	0.240	0.280
2020/01/31 11:26:41.1	300.830	0.060	0.220	0.260
2020/01/31 11:26:41.2	300.830	0.060	0.200	0.240
2020/01/31 11:26:41.3	300.820	0.060	0.190	0.220
2020/01/31 11:26:41.4	300.820	0.050	0.170	0.200
2020/01/31 11:26:41.5	300.820	0.050	0.140	0.190
2020/01/31 11:26:41.6	300.810	0.050	0.120	0.170
2020/01/31 11:26:41.7	300.810	0.040	0.100	0.160
2020/01/31 11:26:41.8	300.800	0.040	0.080	0.140
2020/01/31 11:26:41.9	300.790	0.040	0.050	0.130
2020/01/31 11:26:42.0	300.790	0.040	0.030	0.120
2020/01/31 11:26:42.1	300.780	0.030	0.000	0.110
2020/01/31 11:26:42.2	300.770	0.030	-0.020	0.110
2020/01/31 11:26:42.3	300.760	0.030	-0.050	0.100
2020/01/31 11:26:42.4	300.760	0.030	-0.080	0.090
2020/01/31 11:26:42.5	300.750	0.030	-0.110	0.090
2020/01/31 11:26:42.6	300.740	0.030	-0.140	0.090
2020/01/31 11:26:42.7	300.740	0.030	-0.170	0.080
2020/01/31 11:26:42.8	300.730	0.020	-0.200	0.080
2020/01/31 11:26:42.9	300.720	0.020	-0.230	0.080
2020/01/31 11:26:43.0	300.720	0.020	-0.260	0.090
2020/01/31 11:26:43.1	300.710	0.020	-0.290	0.090
2020/01/31 11:26:43.2	300.710	0.020	-0.320	0.100
2020/01/31 11:26:43.3	300.700	0.020	-0.350	0.110
2020/01/31 11:26:43.4	300.700	0.020	-0.380	0.120
2020/01/31 11:26:43.5	300.690	0.020	-0.400	0.130
2020/01/31 11:26:43.6	300.690	0.020	-0.430	0.150
2020/01/31 11:26:43.7	300.680	0.020	-0.450	0.170
2020/01/31 11:26:43.8	300.680	0.020	-0.470	0.200
2020/01/31 11:26:43.9	300.670	0.020	-0.490	0.230
2020/01/31 11:26:44.0	300.670	0.020	-0.510	0.260
2020/01/31 11:26:44.1	300.660	0.020	-0.520	0.290
2020/01/31 11:26:44.2	300.650	0.030	-0.530	0.330
2020/01/31 11:26:44.3	300.640	0.030	-0.540	0.370
2020/01/31 11:26:44.4	300.640	0.040	-0.550	0.410
2020/01/31 11:26:44.5	300.620	0.040	-0.560	0.450
2020/01/31 11:26:44.6	300.610	0.050	-0.560	0.500
2020/01/31 11:26:44.7	300.600	0.050	-0.560	0.550
2020/01/31 11:26:44.8	300.590	0.060	-0.560	0.600
2020/01/31 11:26:44.9	300.570	0.070	-0.560	0.650
2020/01/31 11:26:45.0	300.560	0.080	-0.560	0.710
2020/01/31 11:26:45.1	300.550	0.090	-0.560	0.760
2020/01/31 11:26:45.2	300.530	0.100	-0.550	0.810
2020/01/31 11:26:45.3	300.520	0.110	-0.550	0.870
2020/01/31 11:26:45.4	300.510	0.120	-0.550	0.920
2020/01/31 11:26:45.5	300.490	0.140	-0.550	0.970
2020/01/31 11:26:45.6	300.470	0.150	-0.550	1.030
2020/01/31 11:26:45.7	300.460	0.160	-0.550	1.080
2020/01/31 11:26:45.8	300.450	0.170	-0.550	1.120
2020/01/31 11:26:45.9	300.440	0.190	-0.560	1.170
2020/01/31 11:26:46.0	300.430	0.200	-0.560	1.210
2020/01/31 11:26:46.1	300.420	0.210	-0.570	1.240
2020/01/31 11:26:46.2	300.410	0.220	-0.580	1.280
2020/01/31 11:26:46.3	300.400	0.240	-0.590	1.310
2020/01/31 11:26:46.4	300.390	0.250	-0.610	1.330
2020/01/31 11:26:46.5	300.400	0.260	-0.620	1.350
2020/01/31 11:26:46.6	300.390	0.260	-0.640	1.370
2020/01/31 11:26:46.7	300.390	0.270	-0.660	1.380
2020/01/31 11:26:46.8	300.390	0.280	-0.680	1.390
2020/01/31 11:26:46.9	300.390	0.280	-0.700	1.390
2020/01/31 11:26:47.0	300.390	0.290	-0.720	1.380
2020/01/31 11:26:47.1	300.400	0.290	-0.740	1.380
2020/01/31 11:26:47.2	300.400	0.290	-0.760	1.360
2020/01/31 11:26:47.3	300.410	0.290	-0.780	1.350
2020/01/31 11:26:47.4	300.410	0.290	-0.810	1.320
2020/01/31 11:26:47.5	300.420	0.290	-0.820	1.300
2020/01/31 11:26:47.6	300.430	0.280	-0.840	1.270
2020/01/31 11:26:47.7	300.440	0.270	-0.860	1.240
2020/01/31 11:26:47.8	300.450	0.270	-0.880	1.200
2020/01/31 11:26:47.9	300.460	0.260	-0.900	1.160
2020/01/31 11:26:48.0	300.470	0.240	-0.910	1.120
2020/01/31 11:26:48.1	300.490	0.230	-0.920	1.080
2020/01/31 11:26:48.2	300.500	0.220	-0.930	1.030
2020/01/31 11:26:48.3	300.510	0.200	-0.940	0.980
2020/01/31 11:26:48.4	300.530	0.180	-0.940	0.930
2020/01/31 11:26:48.5	300.550	0.160	-0.940	0.880
2020/01/31 11:26:48.6	300.560	0.140	-0.930	0.830
2020/01/31 11:26:48.7	300.580	0.120	-0.930	0.780
2020/01/31 11:26:48.8	300.600	0.100	-0.920	0.730
2020/01/31 11:26:48.9	300.610	0.080	-0.900	0.680
2020/01/31 11:26:49.0	300.630	0.050	-0.880	0.620
2020/01/31 11:26:49.1	300.650	0.030	-0.860	0.570
2020/01/31 11:26:49.2	300.670	-0.000	-0.840	0.520
2020/01/31 11:26:49.3	300.690	-0.030	-0.810	0.470
2020/01/31 11:26:49.4	300.710	-0.060	-0.770	0.420
2020/01/31 11:26:49.5	300.720	-0.080	-0.740	0.380
2020/01/31 11:26:49.6	300.740	-0.110	-0.700	0.330
2020/01/31 11:26:49.7	300.760	-0.140	-0.660	0.290
2020/01/31 11:26:49.8	300.780	-0.170	-0.610	0.250
2020/01/31 11:26:49.9	300.800	-0.200	-0.560	0.210
2020/01/31 11:26:50.0	300.820	-0.230	-0.510	0.180
2020/01/31 11:26:50.1	300.840	-0.260	-0.460	0.140
2020/01/31 11:26:50.2	300.850	-0.290	-0.400	0.110
2020/01/31 11:26:50.3	300.870	-0.320	-0.340	0.090
2020/01/31 11:26:50.4	300.890	-0.350	-0.280	0.060
2020/01/31 11:26:50.5	300.900	-0.380	-0.220	0.040
2020/01/31 11:26:50.6	300.910	-0.410	-0.160	0.020
2020/01/31 11:26:50.7	300.930	-0.430	-0.100	0.000
2020/01/31 11:26:50.8	300.940	-0.460	-0.030	-0.010
2020/01/31 11:26:50.9	300.950	-0.490	0.030	-0.020
2020/01/31 11:26:51.0	300.960	-0.510	0.090	-0.030
2020/01/31 11:26:51.1	300.970	-0.540	0.150	-0.040
2020/01/31 11:26:51.2	300.980	-0.560	0.210	-0.040
2020/01/31 11:26:51.3	300.980	-0.580	0.270	-0.040
2020/01/31 11:26:51.4	300.990	-0.600	0.330	-0.030
2020/01/31 11:26:51.5	301.000	-0.620	0.380	-0.030
2020/01/31 11:26:51.6	301.000	-0.640	0.430	-0.020
2020/01/31 11:26:51.7	301.000	-0.650	0.480	-0.010
2020/01/31 11:26:51.8	301.000	-0.660	0.530	0.010
2020/01/31 11:26:51.9	301.000	-0.670	0.580	0.030
2020/01/31 11:26:52.0	301.000	-0.680	0.620	0.050
2020/01/31 11:26:52.1	300.990	-0.690	0.660	0.070
2020/01/31 11:26:52.2	300.990	-0.690	0.700	0.090
2020/01/31 11:26:52.3	300.980	-0.700	0.730	0.120
2020/01/31 11:26:52.4	300.970	-0.700	0.760	0.140
2020/01/31 11:26:52.5	300.970	-0.690	0.790	0.170
2020/01/31 11:26:52.6	300.950	-0.690	0.810	0.210
2020/01/31 11:26:52.7	300.940	-0.680	0.830	0.240
2020/01/31 11:26:52.8	300.920	-0.670	0.840	0.280
2020/01/31 11:26:52.9	300.900	-0.660	0.850	0.310
2020/01/31 11:26:53.0	300.890	-0.640	0.860	0.350
2020/01/31 11:26:53.1	300.860	-0.630	0.860	0.390
2020/01/31 11:26:53.2	300.840	-0.610	0.860	0.430
2020/01/31 11:26:53.3	300.820	-0.590	0.850	0.470
2020/01/31 11:26:53.4	300.790	-0.560	0.840	0.510
2020/01/31 11:26:53.5	300.770	-0.530	0.830	0.550
2020/01/31 11:26:53.6	300.740	-0.500	0.810	0.590
2020/01/31 11:26:53.7	300.720	-0.470	0.790	0.630
2020/01/31 11:26:53.8	300.690	-0.440	0.760	0.670
2020/01/31 11:26:53.9	300.660	-0.400	0.730	0.710
2020/01/31 11:26:54.0	300.630	-0.370	0.700	0.750
2020/01/31 11:26:54.1	300.600	-0.330	0.660	0.790
2020/01/31 11:26:54.2	300.570	-0.290	0.620	0.830
2020/01/31 11:26:54.3	300.550	-0.250	0.580	0.870
2020/01/31 11:26:54.4	300.520	-0.200	0.530	0.910
2020/01/31 11:26:54.5	300.490	-0.160	0.480	0.940
2020/01/31 11:26:54.6	300.460	-0.120	0.430	0.970
2020/01/31 11:26:54.7	300.440	-0.070	0.380	1.000
2020/01/31 11:26:54.8	300.410	-0.030	0.320	1.030
2020/01/31 11:26:54.9	300.390	0.020	0.260	1.060
2020/01/31 11:26:55.0	300.360	0.070	0.200	1.080
2020/01/31 11:26:55.1	300.340	0.110	0.140	1.100
2020/01/31 11:26:55.2	300.320	0.160	0.080	1.120
2020/01/31 11:26:55.3	300.300	0.200	0.020	1.130
2020/01/31 11:26:55.4	300.280	0.240	-0.040	1.140
2020/01/31 11:26:55.5	300.250	0.290	-0.110	1.150
2020/01/31 11:26:55.6	300.230	0.330	-0.170	1.160
2020/01/31 11:26:55.7	300.220	0.370	-0.230	1.160
2020/01/31 11:26:55.8	300.200	0.410	-0.290	1.160
2020/01/31 11:26:55.9	300.190	0.440	-0.350	1.150
2020/01/31 11:26:56.0	300.180	0.480	-0.410	1.150
2020/01/31 11:26:56.1	300.170	0.510	-0.460	1.140
2020/01/31 11:26:56.2	300.160	0.540	-0.520	1.130
2020/01/31 11:26:56.3	300.150	0.570	-0.570	1.110
2020/01/31 11:26:56.4	300.140	0.600	-0.620	1.100
2020/01/31 11:26:56.5	300.150	0.620	-0.670	1.080
2020/01/31 11:26:56.6	300.150	0.640	-0.710	1.060
2020/01/31 11:26:56.7	300.140	0.660	-0.750	1.040
2020/01/31 11:26:56.8	300.140	0.680	-0.790	1.020
2020/01/31 11:26:56.9	300.140	0.690	-0.830	1.000
2020/01/31 11:26:57.0	300.140	0.700	-0.860	0.980
2020/01/31 11:26:57.1	300.140	0.710	-0.890	0.960
2020/01/31 11:26:57.2	300.140	0.710	-0.910	0.940
2020/01/31 11:26:57.3	300.140	0.720	-0.940	0.910
2020/01/31 11:26:57.4	300.140	0.720	-0.960	0.890
2020/01/31 11:26:57.5	300.140	0.720	-0.980	0.870
2020/01/31 11:26:57.6	300.140	0.710	-0.990	0.850
2020/01/31 11:26:57.7	300.150	0.710	-1.010	0.830
2020/01/31 11:26:57.8	300.150	0.700	-1.020	0.810
2020/01/31 11:26:57.9	300.160	0.690	-1.030	0.790
2020/01/31 11:26:58.0	300.170	0.680	-1.030	0.770
2020/01/31 11:26:58.1	300.180	0.670	-1.040	0.750
2020/01/31 11:26:58.2	300.190	0.650	-1.040	0.730
2020/01/31 11:26:58.3	300.200	0.640	-1.040	0.710
2020/01/31 11:26:58.4	300.210	0.620	-1.040	0.690
2020/01/31 11:26:58.5	300.210	0.600	-1.050	0.670
2020/01/31 11:26:58.6	300.220	0.590	-1.040	0.660
2020/01/31 11:26:58.7	300.240	0.570	-1.040	0.640
2020/01/31 11:26:58.8	300.250	0.550	-1.040	0.620
2020/01/31 11:26:58.9	300.270	0.530	-1.030	0.610
2020/01/31 11:26:59.0	300.290	0.510	-1.030	0.590
2020/01/31 11:26:59.1	300.300	0.490	-1.020	0.580
2020/01/31 11:26:59.2	300.320	0.470	-1.010	0.570
2020/01/31 11:26:59.3	300.340	0.450	-1.000	0.550
2020/01/31 11:26:59.4	300.370	0.430	-0.990	0.540
2020/01/31 11:26:59.5	300.390	0.410	-0.980	0.530
2020/01/31 11:26:59.6	300.420	0.390	-0.970	0.510
2020/01/31 11:26:59.7	300.440	0.360	-0.960	0.500
2020/01/31 11:26:59.8	300.470	0.340	-0.940	0.490
2020/01/31 11:26:59.9	300.490	0.320	-0.930	0.470
2020/01/31 11:27:00.0	300.510	0.300	-0.920	0.460
2020/01/31 11:27:00.1	300.540	0.280	-0.900	0.450
2020/01/31 11:27:00.2	300.560	0.260	-0.890	0.440
2020/01/31 11:27:00.3	300.590	0.230	-0.870	0.430
2020/01/31 11:27:00.4	300.610	0.210	-0.850	0.420
2020/01/31 11:27:00.5	300.640	0.190	-0.830	0.410
2020/01/31 11:27:00.6	300.660	0.160	-0.810	0.400
2020/01/31 11:27:00.7	300.680	0.140	-0.780	0.390
2020/01/31 11:27:00.8	300.700	0.120	-0.760	0.390
2020/01/31 11:27:00.9	300.720	0.090	-0.730	0.380
2020/01/31 11:27:01.0	300.730	0.060	-0.700	0.380
2020/01/31 11:27:01.1	300.750	0.040	-0.660	0.380
2020/01/31 11:27:01.2	300.760	0.010	-0.630	0.380
2020/01/31 11:27:01.3	300.770	-0.010	-0.590	0.380
2020/01/31 11:27:01.4	300.770	-0.040	-0.550	0.390
2020/01/31 11:27:01.5	300.780	-0.070	-0.510	0.390
2020/01/31 11:27:01.6	300.790	-0.100	-0.470	0.400
2020/01/31 11:27:01.7	300.790	-0.130	-0.420	0.400
2020/01/31 11:27:01.8	300.780	-0.160	-0.380	0.410
2020/01/31 11:27:01.9	300.780	-0.180	-0.330	0.420
2020/01/31 11:27:02.0	300.770	-0.210	-0.280	0.430
2020/01/31 11:27:02.1	300.760	-0.240	-0.230	0.440
2020/01/31 11:27:02.2	300.750	-0.270	-0.180	0.450
2020/01/31 11:27:02.3	300.730	-0.300	-0.130	0.460
2020/01/31 11:27:02.4	300.720	-0.330	-0.070	0.480
2020/01/31 11:27:02.5	300.700	-0.360	-0.020	0.490
2020/01/31 11:27:02.6	300.680	-0.390	0.030	0.500
2020/01/31 11:27:02.7	300.660	-0.410	0.090	0.520
2020/01/31 11:27:02.8	300.640	-0.440	0.140	0.530
2020/01/31 11:27:02.9	300.610	-0.460	0.190	0.550
2020/01/31 11:27:03.0	300.590	-0.490	0.240	0.570
2020/01/31 11:27:03.1	300.560	-0.510	0.280	0.580
2020/01/31 11:27:03.2	300.540	-0.530	0.330	0.600
2020/01/31 11:27:03.3	300.510	-0.550	0.370	0.620
2020/01/31 11:27:03.4	300.480	-0.570	0.410	0.630
2020/01/31 11:27:03.5	300.440	-0.590	0.450	0.650
2020/01/31 11:27:03.6	300.410	-0.600	0.480	0.670
2020/01/31 11:27:03.7	300.380	-0.620	0.520	0.680
2020/01/31 11:27:03.8	300.350	-0.630	0.550	0.700
2020/01/31 11:27:03.9	300.320	-0.640	0.570	0.720
2020/01/31 11:27:04.0	300.290	-0.650	0.600	0.730
2020/01/31 11:27:04.1	300.270	-0.650	0.610	0.740
2020/01/31 11:27:04.2	300.240	-0.650	0.630	0.760
2020/01/31 11:27:04.3	300.210	-0.650	0.640	0.770
2020/01/31 11:27:04.4	300.180	-0.650	0.650	0.780
2020/01/31 11:27:04.5	300.150	-0.650	0.650	0.780
2020/01/31 11:27:04.6	300.130	-0.650	0.660	0.790
2020/01/31 11:27:04.7	300.100	-0.640	0.650	0.800
2020/01/31 11:27:04.8	300.080	-0.630	0.640	0.800
2020/01/31 11:27:04.9	300.060	-0.620	0.630	0.810
2020/01/31 11:27:05.0	300.030	-0.610	0.620	0.810
2020/01/31 11:27:05.1	300.010	-0.590	0.600	0.810
2020/01/31 11:27:05.2	299.990	-0.570	0.580	0.810
2020/01/31 11:27:05.3	299.980	-0.560	0.560	0.810
2020/01/31 11:27:05.4	299.960	-0.540	0.530	0.810
2020/01/31 11:27:05.5	299.950	-0.510	0.500	0.810
2020/01/31 11:27:05.6	299.940	-0.490	0.470	0.810
2020/01/31 11:27:05.7	299.930	-0.470	0.440	0.810
2020/01/31 11:27:05.8	299.910	-0.440	0.400	0.810
2020/01/31 11:27:05.9	299.900	-0.420	0.370	0.800
2020/01/31 11:27:06.0	299.900	-0.390	0.330	0.800
2020/01/31 11:27:06.1	299.890	-0.360	0.290	0.800
2020/01/31 11:27:06.2	299.880	-0.330	0.250	0.790
2020/01/31 11:27:06.3	299.880	-0.300	0.210	0.790
2020/01/31 11:27:06.4	299.880	-0.270	0.170	0.790
2020/01/31 11:27:06.5	299.870	-0.240	0.120	0.780
2020/01/31 11:27:06.6	299.870	-0.210	0.080	0.780
2020/01/31 11:27:06.7	299.880	-0.180	0.040	0.780
2020/01/31 11:27:06.8	299.880	-0.150	-0.000	0.770
2020/01/31 11:27:06.9	299.890	-0.120	-0.040	0.770
2020/01/31 11:27:07.0	299.900	-0.090	-0.080	0.770
2020/01/31 11:27:07.1	299.910	-0.060	-0.120	0.760
2020/01/31 11:27:07.2	299.920	-0.030	-0.160	0.760
2020/01/31 11:27:07.3	299.930	-0.010	-0.200	0.760
2020/01/31 11:27:07.4	299.940	0.020	-0.240	0.750
2020/01/31 11:27:07.5	299.960	0.050	-0.270	0.750
2020/01/31 11:27:07.6	299.970	0.080	-0.300	0.750
2020/01/31 11:27:07.7	299.990	0.100	-0.330	0.750
2020/01/31 11:27:07.8	300.010	0.130	-0.360	0.750
2020/01/31 11:27:07.9	300.030	0.150	-0.390	0.750
2020/01/31 11:27:08.0	300.050	0.170	-0.410	0.750
2020/01/31 11:27:08.1	300.070	0.200	-0.430	0.750
2020/01/31 11:27:08.2	300.090	0.220	-0.450	0.750
2020/01/31 11:27:08.3	300.110	0.240	-0.470	0.750
2020/01/31 11:27:08.4	300.130	0.260	-0.490	0.760
2020/01/31 11:27:08.5	300.160	0.280	-0.510	0.760
2020/01/31 11:27:08.6	300.180	0.290	-0.520	0.770
2020/01/31 11:27:08.7	300.200	0.310	-0.530	0.780
2020/01/31 11:27:08.8	300.210	0.330	-0.540	0.780
2020/01/31 11:27:08.9	300.230	0.340	-0.550	0.790
2020/01/31 11:27:09.0	300.250	0.350	-0.560	0.800
2020/01/31 11:27:09.1	300.260	0.360	-0.560	0.810
2020/01/31 11:27:09.2	300.280	0.370	-0.570	0.830
2020/01/31 11:27:09.3	300.290	0.380	-0.570	0.840
2020/01/31 11:27:09.4	300.300	0.390	-0.580	0.850
2020/01/31 11:27:09.5	300.330	0.400	-0.580	0.870
2020/01/31 11:27:09.6	300.340	0.400	-0.580	0.890
2020/01/31 11:27:09.7	300.340	0.410	-0.580	0.900
2020/01/31 11:27:09.8	300.350	0.410	-0.580	0.920
2020/01/31 11:27:09.9	300.350	0.410	-0.570	0.940
2020/01/31 11:27:10.0	300.350	0.410	-0.570	0.960
2020/01/31 11:27:10.1	300.350	0.410	-0.570	0.980
2020/01/31 11:27:10.2	300.350	0.410	-0.570	0.990
2020/01/31 11:27:10.3	300.350	0.410	-0.560	1.010
2020/01/31 11:27:10.4	300.350	0.410	-0.560	1.030
2020/01/31 11:27:10.5	300.330	0.410	-0.550	1.050
2020/01/31 11:27:10.6	300.330	0.400	-0.550	1.060
2020/01/31 11:27:10.7	300.320	0.400	-0.550	1.080
2020/01/31 11:27:10.8	300.310	0.390	-0.550	1.090
2020/01/31 11:27:10.9	300.300	0.390	-0.550	1.110
2020/01/31 11:27:11.0	300.300	0.380	-0.550	1.120
2020/01/31 11:27:11.1	300.290	0.370	-0.550	1.130
2020/01/31 11:27:11.2	300.280	0.370	-0.550	1.130
2020/01/31 11:27:11.3	300.270	0.360	-0.550	1.140
2020/01/31 11:27:11.4	300.260	0.350	-0.560	1.140
2020/01/31 11:27:11.5	300.240	0.340	-0.560	1.140
2020/01/31 11:27:11.6	300.230	0.330	-0.570	1.140
2020/01/31 11:27:11.7	300.230	0.320	-0.570	1.130
2020/01/31 11:27:11.8	300.220	0.310	-0.580	1.120
2020/01/31 11:27:11.9	300.210	0.310	-0.590	1.110
2020/01/31 11:27:12.0	300.200	0.300	-0.600	1.090
2020/01/31 11:27:12.1	300.200	0.290	-0.610	1.080
2020/01/31 11:27:12.2	300.190	0.280	-0.620	1.060
2020/01/31 11:27:12.3	300.190	0.270	-0.630	1.030
2020/01/31 11:27:12.4	300.180	0.260	-0.640	1.010
2020/01/31 11:27:12.5	300.180	0.250	-0.650	0.970
2020/01/31 11:27:12.6	300.170	0.240	-0.660	0.940
2020/01/31 11:27:12.7	300.170	0.230	-0.670	0.910
2020/01/31 11:27:12.8	300.170	0.210	-0.680	0.880
2020/01/31 11:27:12.9	300.170	0.200	-0.680	0.850
2020/01/31 11:27:13.0	300.160	0.190	-0.690	0.810
2020/01/31 11:27:13.1	300.160	0.180	-0.690	0.780
2020/01/31 11:27:13.2	300.160	0.170	-0.690	0.740
2020/01/31 11:27:13.3	300.160	0.160	-0.690	0.710
2020/01/31 11:27:13.4	300.170	0.150	-0.690	0.670
2020/01/31 11:27:13.5	300.160	0.130	-0.680	0.650
2020/01/31 11:27:13.6	300.170	0.120	-0.680	0.610
2020/01/31 11:27:13.7	300.170	0.110	-0.670	0.580
2020/01/31 11:27:13.8	300.170	0.100	-0.660	0.550
2020/01/31 11:27:13.9	300.170	0.090	-0.640	0.530
2020/01/31 11:27:14.0	300.180	0.070	-0.630	0.500
2020/01/31 11:27:14.1	300.180	0.060	-0.610	0.480
2020/01/31 11:27:14.2	300.180	0.050	-0.590	0.460
2020/01/31 11:27:14.3	300.190	0.040	-0.570	0.440
2020/01/31 11:27:14.4	300.190	0.030	-0.550	0.420
2020/01/31 11:27:14.5	300.190	0.020	-0.520	0.410
2020/01/31 11:27:14.6	300.190	0.010	-0.500	0.400
2020/01/31 11:27:14.7	300.200	-0.010	-0.470	0.390
2020/01/31 11:27:14.8	300.200	-0.020	-0.440	0.390
2020/01/31 11:27:14.9	300.200	-0.020	-0.410	0.390
2020/01/31 11:27:15.0	300.200	-0.030	-0.370	0.390
2020/01/31 11:27:15.1	300.200	-0.040	-0.340	0.400
2020/01/31 11:27:15.2	300.200	-0.050	-0.310	0.400
2020/01/31 11:27:15.3	300.190	-0.060	-0.270	0.420
2020/01/31 11:27:15.4	300.190	-0.070	-0.240	0.430
2020/01/31 11:27:15.5	300.180	-0.070	-0.210	0.440
2020/01/31 11:27:15.6	300.180	-0.080	-0.170	0.460
2020/01/31 11:27:15.7	300.180	-0.090	-0.140	0.480
2020/01/31 11:27:15.8	300.170	-0.090	-0.100	0.490
2020/01/31 11:27:15.9	300.170	-0.100	-0.070	0.510
2020/01/31 11:27:16.0	300.160	-0.100	-0.040	0.530
2020/01/31 11:27:16.1	300.160	-0.110	-0.010	0.550
2020/01/31 11:27:16.2	300.160	-0.110	0.020	0.570
2020/01/31 11:27:16.3	300.150	-0.110	0.050	0.580
2020/01/31 11:27:16.4	300.150	-0.120	0.080	0.600
2020/01/31 11:27:16.5	300.140	-0.120	0.100	0.620
2020/01/31 11:27:16.6	300.140	-0.130	0.130	0.630
2020/01/31 11:27:16.7	300.130	-0.130	0.150	0.650
2020/01/31 11:27:16.8	300.130	-0.130	0.170	0.660
2020/01/31 11:27:16.9	300.130	-0.140	0.190	0.680
2020/01/31 11:27:17.0	300.120	-0.140	0.210	0.690
2020/01/31 11:27:17.1	300.120	-0.140	0.230	0.700
2020/01/31 11:27:17.2	300.120	-0.150	0.250	0.710
2020/01/31 11:27:17.3	300.110	-0.150	0.260	0.720
2020/01/31 11:27:17.4	300.110	-0.150	0.270	0.730
2020/01/31 11:27:17.5	300.120	-0.160	0.280	0.730
2020/01/31 11:27:17.6	300.110	-0.160	0.290	0.740
2020/01/31 11:27:17.7	300.110	-0.170	0.300	0.740
2020/01/31 11:27:17.8	300.110	-0.170	0.310	0.740
2020/01/31 11:27:17.9	300.110	-0.170	0.320	0.740
2020/01/31 11:27:18.0	300.110	-0.180	0.320	0.740
2020/01/31 11:27:18.1	300.120	-0.180	0.330	0.740
2020/01/31 11:27:18.2	300.120	-0.190	0.330	0.730
2020/01/31 11:27:18.3	300.120	-0.190	0.330	0.730
2020/01/31 11:27:18.4	300.120	-0.190	0.330	0.720
2020/01/31 11:27:18.5	300.140	-0.200	0.330	0.710
2020/01/31 11:27:18.6	300.140	-0.200	0.320	0.700
2020/01/31 11:27:18.7	300.140	-0.200	0.320	0.690
2020/01/31 11:27:18.8	300.150	-0.200	0.310	0.680
2020/01/31 11:27:18.9	300.150	-0.200	0.310	0.670
2020/01/31 11:27:19.0	300.160	-0.210	0.300	0.660
2020/01/31 11:27:19.1	300.170	-0.210	0.290	0.640
2020/01/31 11:27:19.2	300.170	-0.210	0.270	0.630
2020/01/31 11:27:19.3	300.180	-0.210	0.260	0.610
2020/01/31 11:27:19.4	300.180	-0.200	0.250	0.590
2020/01/31 11:27:19.5	300.190	-0.200	0.230	0.580
2020/01/31 11:27:19.6	300.200	-0.200	0.210	0.560
2020/01/31 11:27:19.7	300.200	-0.200	0.190	0.540
2020/01/31 11:27:19.8	300.210	-0.190	0.170	0.520
2020/01/31 11:27:19.9	300.210	-0.190	0.150	0.500
2020/01/31 11:27:20.0	300.220	-0.190	0.130	0.480
2020/01/31 11:27:20.1	300.220	-0.180	0.110	0.460
2020/01/31 11:27:20.2	300.230	-0.180	0.090	0.440
2020/01/31 11:27:20.3	300.230	-0.170	0.060	0.420
2020/01/31 11:27:20.4	300.240	-0.160	0.040	0.400
2020/01/31 11:27:20.5	300.240	-0.160	0.020	0.370
2020/01/31 11:27:20.6	300.240	-0.150	-0.010	0.350
2020/01/31 11:27:20.7	300.240	-0.140	-0.030	0.330
2020/01/31 11:27:20.8	300.240	-0.140	-0.050	0.310
2020/01/31 11:27:20.9	300.250	-0.130	-0.080	0.290
2020/01/31 11:27:21.0	300.250	-0.120	-0.100	0.270
2020/01/31 11:27:21.1	300.250	-0.120	-0.130	0.250
2020/01/31 11:27:21.2	300.250	-0.110	-0.150	0.230
2020/01/31 11:27:21.3	300.250	-0.110	-0.170	0.220
2020/01/31 11:27:21.4	300.250	-0.100	-0.200	0.200
2020/01/31 11:27:21.5	300.240	-0.090	-0.220	0.180
2020/01/31 11:27:21.6	300.240	-0.090	-0.240	0.160
2020/01/31 11:27:21.7	300.240	-0.080	-0.260	0.150
2020/01/31 11:27:21.8	300.240	-0.080	-0.280	0.130
2020/01/31 11:27:21.9	300.240	-0.070	-0.300	0.120
2020/01/31 11:27:22.0	300.240	-0.070	-0.320	0.100
2020/01/31 11:27:22.1	300.230	-0.060	-0.340	0.090
2020/01/31 11:27:22.2	300.230	-0.060	-0.360	0.080
2020/01/31 11:27:22.3	300.230	-0.060	-0.380	0.070
2020/01/31 11:27:22.4	300.240	-0.050	-0.400	0.060
2020/01/31 11:27:22.5	300.230	-0.050	-0.420	0.050
2020/01/31 11:27:22.6	300.230	-0.050	-0.430	0.040
2020/01/31 11:27:22.7	300.230	-0.050	-0.450	0.040
2020/01/31 11:27:22.8	300.240	-0.050	-0.470	0.030
2020/01/31 11:27:22.9	300.240	-0.040	-0.490	0.030
2020/01/31 11:27:23.0	300.240	-0.040	-0.500	0.020
2020/01/31 11:27:23.1	300.250	-0.040	-0.520	0.020
2020/01/31 11:27:23.2	300.250	-0.040	-0.540	0.030
2020/01/31 11:27:23.3	300.250	-0.040	-0.550	0.030
2020/01/31 11:27:23.4	300.260	-0.040	-0.570	0.040
2020/01/31 11:27:23.5	300.250	-0.040	-0.580	0.040
2020/01/31 11:27:23.6	300.250	-0.030	-0.590	0.060
2020/01/31 11:27:23.7	300.250	-0.030	-0.610	0.070
2020/01/31 11:27:23.8	300.250	-0.030	-0.620	0.090
2020/01/31 11:27:23.9	300.260	-0.030	-0.630	0.120
2020/01/31 11:27:24.0	300.260	-0.030	-0.640	0.140
2020/01/31 11:27:24.1	300.260	-0.030	-0.650	0.170
2020/01/31 11:27:24.2	300.260	-0.020	-0.660	0.210
2020/01/31 11:27:24.3	300.270	-0.020	-0.660	0.240
2020/01/31 11:27:24.4	300.270	-0.020	-0.670	0.280
2020/01/31 11:27:24.5	300.270	-0.010	-0.680	0.320
2020/01/31 11:27:24.6	300.270	-0.010	-0.680	0.360
2020/01/31 11:27:24.7	300.280	-0.010	-0.690	0.400
2020/01/31 11:27:24.8	300.280	0.000	-0.690	0.450
2020/01/31 11:27:24.9	300.280	0.010	-0.700	0.490
2020/01/31 11:27:25.0	300.290	0.010	-0.700	0.530
2020/01/31 11:27:25.1	300.290	0.020	-0.700	0.580
2020/01/31 11:27:25.2	300.290	0.030	-0.700	0.630
2020/01/31 11:27:25.3	300.300	0.040	-0.700	0.670
2020/01/31 11:27:25.4	300.300	0.050	-0.700	0.720
2020/01/31 11:27:25.5	300.310	0.060	-0.700	0.770
2020/01/31 11:27:25.6	300.310	0.070	-0.690	0.820
2020/01/31 11:27:25.7	300.310	0.080	-0.690	0.870
2020/01/31 11:27:25.8	300.300	0.090	-0.690	0.910
2020/01/31 11:27:25.9	300.300	0.100	-0.680	0.960
2020/01/31 11:27:26.0	300.290	0.120	-0.670	1.010
2020/01/31 11:27:26.1	300.290	0.130	-0.660	1.060
2020/01/31 11:27:26.2	300.280	0.150	-0.650	1.100
2020/01/31 11:27:26.3	300.270	0.160	-0.640	1.150
2020/01/31 11:27:26.4	300.260	0.180	-0.630	1.190
2020/01/31 11:27:26.5	300.260	0.200	-0.610	1.240
2020/01/31 11:27:26.6	300.250	0.220	-0.600	1.280
2020/01/31 11:27:26.7	300.240	0.230	-0.580	1.320
2020/01/31 11:27:26.8	300.220	0.250	-0.570	1.350
2020/01/31 11:27:26.9	300.210	0.270	-0.550	1.390
2020/01/31 11:27:27.0	300.200	0.280	-0.530	1.420
2020/01/31 11:27:27.1	300.180	0.300	-0.510	1.450
2020/01/31 11:27:27.2	300.170	0.320	-0.500	1.480
2020/01/31 11:27:27.3	300.150	0.330	-0.480	1.500
2020/01/31 11:27:27.4	300.140	0.350	-0.460	1.520
2020/01/31 11:27:27.5	300.140	0.360	-0.440	1.540
2020/01/31 11:27:27.6	300.120	0.380	-0.420	1.560
2020/01/31 11:27:27.7	300.110	0.390	-0.400	1.570
2020/01/31 11:27:27.8	300.090	0.400	-0.380	1.580
2020/01/31 11:27:27.9	300.080	0.410	-0.360	1.580
2020/01/31 11:27:28.0	300.070	0.410	-0.340	1.580
2020/01/31 11:27:28.1	300.050	0.420	-0.330	1.580
2020/01/31 11:27:28.2	300.040	0.430	-0.310	1.570
2020/01/31 11:27:28.3	300.030	0.430	-0.290	1.560
2020/01/31 11:27:28.4	300.020	0.430	-0.280	1.550
2020/01/31 11:27:28.5	300.010	0.430	-0.260	1.530
2020/01/31 11:27:28.6	300.000	0.420	-0.250	1.510
2020/01/31 11:27:28.7	299.990	0.420	-0.230	1.490
2020/01/31 11:27:28.8	299.990	0.410	-0.220	1.470
2020/01/31 11:27:28.9	299.980	0.400	-0.210	1.440
2020/01/31 11:27:29.0	299.980	0.390	-0.190	1.420
2020/01/31 11:27:29.1	299.970	0.380	-0.180	1.390
2020/01/31 11:27:29.2	299.970	0.370	-0.170	1.350
2020/01/31 11:27:29.3	299.960	0.350	-0.160	1.320
2020/01/31 11:27:29.4	299.960	0.340	-0.150	1.290
2020/01/31 11:27:29.5	299.960	0.320	-0.140	1.250
2020/01/31 11:27:29.6	299.960	0.300	-0.120	1.220
2020/01/31 11:27:29.7	299.960	0.270	-0.110	1.180
2020/01/31 11:27:29.8	299.960	0.250	-0.100	1.140
2020/01/31 11:27:29.9	299.960	0.230	-0.080	1.100
2020/01/31 11:27:30.0	299.960	0.200	-0.070	1.060
2020/01/31 11:27:30.1	299.960	0.180	-0.050	1.020
2020/01/31 11:27:30.2	299.960	0.150	-0.040	0.980
2020/01/31 11:27:30.3	299.970	0.120	-0.020	0.930
2020/01/31 11:27:30.4	299.970	0.090	-0.010	0.890
2020/01/31 11:27:30.5	299.970	0.070	0.010	0.840
2020/01/31 11:27:30.6	299.980	0.040	0.020	0.800
2020/01/31 11:27:30.7	299.990	0.010	0.040	0.760
2020/01/31 11:27:30.8	300.000	-0.020	0.060	0.710
2020/01/31 11:27:30.9	300.000	-0.050	0.070	0.670
2020/01/31 11:27:31.0	300.010	-0.070	0.090	0.630
2020/01/31 11:27:31.1	300.020	-0.100	0.110	0.590
2020/01/31 11:27:31.2	300.040	-0.130	0.120	0.550
2020/01/31 11:27:31.3	300.050	-0.150	0.140	0.510
2020/01/31 11:27:31.4	300.060	-0.170	0.150	0.470
2020/01/31 11:27:31.5	300.070	-0.200	0.170	0.430
2020/01/31 11:27:31.6	300.090	-0.220	0.180	0.390
2020/01/31 11:27:31.7	300.100	-0.240	0.190	0.360
2020/01/31 11:27:31.8	300.120	-0.260	0.200	0.320
2020/01/31 11:27:31.9	300.140	-0.280	0.210	0.290
2020/01/31 11:27:32.0	300.150	-0.290	0.220	0.260
2020/01/31 11:27:32.1	300.170	-0.310	0.230	0.230
2020/01/31 11:27:32.2	300.190	-0.320	0.230	0.210
2020/01/31 11:27:32.3	300.210	-0.340	0.240	0.180
2020/01/31 11:27:32.4	300.220	-0.350	0.240	0.160
2020/01/31 11:27:32.5	300.240	-0.360	0.250	0.140
2020/01/31 11:27:32.6	300.250	-0.370	0.250	0.120
2020/01/31 11:27:32.7	300.270	-0.380	0.250	0.100
2020/01/31 11:27:32.8	300.280	-0.380	0.250	0.090
2020/01/31 11:27:32.9	300.300	-0.390	0.240	0.070
2020/01/31 11:27:33.0	300.310	-0.390	0.240	0.060
2020/01/31 11:27:33.1	300.320	-0.390	0.230	0.060
2020/01/31 11:27:33.2	300.330	-0.390	0.230	0.050
2020/01/31 11:27:33.3	300.340	-0.390	0.220	0.050
2020/01/31 11:27:33.4	300.350	-0.390	0.210	0.050
2020/01/31 11:27:33.5	300.350	-0.380	0.190	0.050
2020/01/31 11:27:33.6	300.360	-0.380	0.180	0.050
2020/01/31 11:27:33.7	300.370	-0.370	0.170	0.060
2020/01/31 11:27:33.8	300.380	-0.370	0.150	0.070
2020/01/31 11:27:33.9	300.380	-0.360	0.140	0.080
2020/01/31 11:27:34.0	300.390	-0.350	0.120	0.090
2020/01/31 11:27:34.1	300.390	-0.340	0.100	0.100
2020/01/31 11:27:34.2	300.390	-0.330	0.080	0.120
2020/01/31 11:27:34.3	300.390	-0.320	0.070	0.140
2020/01/31 11:27:34.4	300.390	-0.300	0.040	0.160
2020/01/31 11:27:34.5	300.400	-0.290	0.020	0.180
2020/01/31 11:27:34.6	300.390	-0.280	0.000	0.200
2020/01/31 11:27:34.7	300.390	-0.260	-0.020	0.220
2020/01/31 11:27:34.8	300.390	-0.250	-0.040	0.250
2020/01/31 11:27:34.9	300.380	-0.240	-0.070	0.270
2020/01/31 11:27:35.0	300.380	-0.220	-0.090	0.300
2020/01/31 11:27:35.1	300.370	-0.210	-0.120	0.320
2020/01/31 11:27:35.2	300.360	-0.190	-0.150	0.350
2020/01/31 11:27:35.3	300.350	-0.180	-0.170	0.380
2020/01/31 11:27:35.4	300.350	-0.170	-0.200	0.400
2020/01/31 11:27:35.5	300.350	-0.150	-0.230	0.430
2020/01/31 11:27:35.6	300.340	-0.140	-0.250	0.460
2020/01/31 11:27:35.7	300.330	-0.130	-0.280	0.490
2020/01/31 11:27:35.8	300.320	-0.120	-0.310	0.510
2020/01/31 11:27:35.9	300.310	-0.100	-0.340	0.540
2020/01/31 11:27:36.0	300.300	-0.090	-0.360	0.560
2020/01/31 11:27:36.1	300.290	-0.080	-0.390	0.590
2020/01/31 11:27:36.2	300.280	-0.070	-0.420	0.610
2020/01/31 11:27:36.3	300.270	-0.060	-0.450	0.640
2020/01/31 11:27:36.4	300.260	-0.050	-0.470	0.660
2020/01/31 11:27:36.5	300.240	-0.050	-0.500	0.690
2020/01/31 11:27:36.6	300.230	-0.040	-0.520	0.710
2020/01/31 11:27:36.7	300.220	-0.030	-0.550	0.730
2020/01/31 11:27:36.8	300.210	-0.020	-0.570	0.750
2020/01/31 11:27:36.9	300.200	-0.010	-0.590	0.770
2020/01/31 11:27:37.0	300.190	-0.010	-0.610	0.790
2020/01/31 11:27:37.1	300.180	0.000	-0.640	0.810
2020/01/31 11:27:37.2	300.180	0.010	-0.650	0.820
2020/01/31 11:27:37.3	300.170	0.010	-0.670	0.840
2020/01/31 11:27:37.4	300.160	0.020	-0.690	0.850
2020/01/31 11:27:37.5	300.140	0.030	-0.700	0.860
2020/01/31 11:27:37.6	300.130	0.040	-0.720	0.880
2020/01/31 11:27:37.7	300.130	0.040	-0.730	0.890
2020/01/31 11:27:37.8	300.120	0.050	-0.740	0.900
2020/01/31 11:27:37.9	300.110	0.060	-0.750	0.910
2020/01/31 11:27:38.0	300.100	0.070	-0.750	0.920
2020/01/31 11:27:38.1	300.090	0.070	-0.760	0.930
2020/01/31 11:27:38.2	300.090	0.080	-0.760	0.930
2020/01/31 11:27:38.3	300.080	0.090	-0.760	0.940
2020/01/31 11:27:38.4	300.070	0.100	-0.760	0.950
2020/01/31 11:27:38.5	300.070	0.100	-0.760	0.950
2020/01/31 11:27:38.6	300.060	0.110	-0.760	0.960
2020/01/31 11:27:38.7	300.060	0.120	-0.760	0.960
2020/01/31 11:27:38.8	300.050	0.130	-0.750	0.970
2020/01/31 11:27:38.9	300.040	0.130	-0.740	0.970
2020/01/31 11:27:39.0	300.040	0.140	-0.740	0.970
2020/01/31 11:27:39.1	300.030	0.150	-0.730	0.970
2020/01/31 11:27:39.2	300.020	0.150	-0.720	0.970
2020/01/31 11:27:39.3	300.020	0.160	-0.710	0.970
2020/01/31 11:27:39.4	300.010	0.160	-0.700	0.970
2020/01/31 11:27:39.5	300.010	0.170	-0.690	0.960
2020/01/31 11:27:39.6	300.000	0.170	-0.670	0.960
2020/01/31 11:27:39.7	300.000	0.180	-0.660	0.950
2020/01/31 11:27:39.8	300.000	0.180	-0.640	0.940
2020/01/31 11:27:39.9	299.990	0.180	-0.630	0.930
2020/01/31 11:27:40.0	299.990	0.190	-0.610	0.920
2020/01/31 11:27:40.1	299.990	0.190	-0.600	0.910
2020/01/31 11:27:40.2	299.990	0.190	-0.580	0.900
2020/01/31 11:27:40.3	299.990	0.190	-0.560	0.890
2020/01/31 11:27:40.4	299.990	0.190	-0.550	0.870
2020/01/31 11:27:40.5	299.970	0.190	-0.530	0.860
2020/01/31 11:27:40.6	299.970	0.190	-0.510	0.850
2020/01/31 11:27:40.7	299.980	0.190	-0.490	0.830
2020/01/31 11:27:40.8	299.980	0.190	-0.470	0.820
2020/01/31 11:27:40.9	299.980	0.190	-0.450	0.800
2020/01/31 11:27:41.0	299.990	0.190	-0.430	0.790
2020/01/31 11:27:41.1	300.000	0.180	-0.410	0.770
2020/01/31 11:27:41.2	300.000	0.180	-0.400	0.750
2020/01/31 11:27:41.3	300.010	0.180	-0.380	0.740
2020/01/31 11:27:41.4	300.020	0.170	-0.360	0.720
2020/01/31 11:27:41.5	300.020	0.170	-0.340	0.710
2020/01/31 11:27:41.6	300.040	0.170	-0.320	0.690
2020/01/31 11:27:41.7	300.050	0.160	-0.300	0.680
2020/01/31 11:27:41.8	300.060	0.160	-0.280	0.660
2020/01/31 11:27:41.9	300.070	0.150	-0.250	0.650
2020/01/31 11:27:42.0	300.090	0.140	-0.230	0.640
2020/01/31 11:27:42.1	300.100	0.140	-0.210	0.630
2020/01/31 11:27:42.2	300.120	0.130	-0.180	0.620
2020/01/31 11:27:42.3	300.130	0.120	-0.160	0.610
2020/01/31 11:27:42.4	300.140	0.110	-0.130	0.600
2020/01/31 11:27:42.5	300.160	0.110	-0.100	0.590
2020/01/31 11:27:42.6	300.170	0.100	-0.070	0.590
2020/01/31 11:27:42.7	300.180	0.090	-0.050	0.590
2020/01/31 11:27:42.8	300.200	0.080	-0.020	0.590
2020/01/31 11:27:42.9	300.210	0.070	0.010	0.590
2020/01/31 11:27:43.0	300.220	0.060	0.040	0.590
2020/01/31 11:27:43.1	300.230	0.050	0.070	0.600
2020/01/31 11:27:43.2	300.240	0.040	0.100	0.600
2020/01/31 11:27:43.3	300.250	0.030	0.120	0.610
2020/01/31 11:27:43.4	300.260	0.020	0.150	0.620
2020/01/31 11:27:43.5	300.260	0.020	0.170	0.630
2020/01/31 11:27:43.6	300.270	0.010	0.200	0.640
2020/01/31 11:27:43.7	300.280	0.000	0.220	0.650
2020/01/31 11:27:43.8	300.280	-0.010	0.240	0.670
2020/01/31 11:27:43.9	300.290	-0.010	0.260	0.680
2020/01/31 11:27:44.0	300.300	-0.020	0.280	0.690
2020/01/31 11:27:44.1	300.300	-0.030	0.300	0.700
2020/01/31 11:27:44.2	300.300	-0.030	0.310	0.710
2020/01/31 11:27:44.3	300.310	-0.040	0.320	0.720
2020/01/31 11:27:44.4	300.310	-0.040	0.330	0.730
2020/01/31 11:27:44.5	300.310	-0.040	0.330	0.740
2020/01/31 11:27:44.6	300.320	-0.040	0.340	0.750
2020/01/31 11:27:44.7	300.320	-0.040	0.340	0.760
2020/01/31 11:27:44.8	300.320	-0.040	0.340	0.760
2020/01/31 11:27:44.9	300.330	-0.040	0.330	0.760
2020/01/31 11:27:45.0	300.330	-0.040	0.320	0.760
2020/01/31 11:27:45.1	300.330	-0.040	0.310	0.760
2020/01/31 11:27:45.2	300.340	-0.040	0.300	0.760
2020/01/31 11:27:45.3	300.340	-0.040	0.290	0.760
2020/01/31 11:27:45.4	300.340	-0.030	0.270	0.750
2020/01/31 11:27:45.5	300.340	-0.030	0.250	0.740
2020/01/31 11:27:45.6	300.340	-0.020	0.230	0.740
2020/01/31 11:27:45.7	300.340	-0.020	0.200	0.730
2020/01/31 11:27:45.8	300.350	-0.010	0.180	0.720
2020/01/31 11:27:45.9	300.350	-0.010	0.150	0.700
2020/01/31 11:27:46.0	300.350	-0.000	0.130	0.690
2020/01/31 11:27:46.1	300.350	0.000	0.100	0.680
2020/01/31 11:27:46.2	300.340	0.010	0.070	0.670
2020/01/31 11:27:46.3	300.340	0.010	0.040	0.650
2020/01/31 11:27:46.4	300.340	0.020	0.020	0.640
2020/01/31 11:27:46.5	300.330	0.020	-0.010	0.630
2020/01/31 11:27:46.6	300.320	0.030	-0.040	0.610
2020/01/31 11:27:46.7	300.310	0.030	-0.060	0.600
2020/01/31 11:27:46.8	300.300	0.030	-0.090	0.590
2020/01/31 11:27:46.9	300.290	0.030	-0.110	0.570
2020/01/31 11:27:47.0	300.270	0.040	-0.130	0.560
2020/01/31 11:27:47.1	300.260	0.040	-0.150	0.550
2020/01/31 11:27:47.2	300.240	0.040	-0.170	0.540
2020/01/31 11:27:47.3	300.220	0.040	-0.190	0.530
2020/01/31 11:27:47.4	300.210	0.040	-0.210	0.520
2020/01/31 11:27:47.5	300.190	0.030	-0.220	0.520
2020/01/31 11:27:47.6	300.170	0.030	-0.240	0.510
2020/01/31 11:27:47.7	300.140	0.030	-0.250	0.500
2020/01/31 11:27:47.8	300.120	0.030	-0.260	0.500
2020/01/31 11:27:47.9	300.100	0.020	-0.280	0.500
2020/01/31 11:27:48.0	300.070	0.020	-0.290	0.490
2020/01/31 11:27:48.1	300.040	0.020	-0.300	0.490
2020/01/31 11:27:48.2	300.020	0.010	-0.310	0.490
2020/01/31 11:27:48.3	299.990	0.010	-0.320	0.490
2020/01/31 11:27:48.4	299.970	0.000	-0.330	0.480
2020/01/31 11:27:48.5	299.940	-0.000	-0.340	0.480
2020/01/31 11:27:48.6	299.920	-0.010	-0.350	0.480
2020/01/31 11:27:48.7	299.890	-0.010	-0.360	0.480
2020/01/31 11:27:48.8	299.870	-0.020	-0.380	0.470
2020/01/31 11:27:48.9	299.850	-0.020	-0.390	0.470
2020/01/31 11:27:49.0	299.820	-0.020	-0.400	0.470
2020/01/31 11:27:49.1	299.800	-0.030	-0.410	0.470
2020/01/31 11:27:49.2	299.790	-0.030	-0.430	0.460
2020/01/31 11:27:49.3	299.770	-0.040	-0.440	0.460
2020/01/31 11:27:49.4	299.750	-0.040	-0.460	0.450
2020/01/31 11:27:49.5	299.740	-0.050	-0.480	0.450
2020/01/31 11:27:49.6	299.720	-0.050	-0.490	0.450
2020/01/31 11:27:49.7	299.710	-0.060	-0.510	0.440
2020/01/31 11:27:49.8	299.700	-0.060	-0.530	0.430
2020/01/31 11:27:49.9	299.700	-0.060	-0.550	0.430
2020/01/31 11:27:50.0	299.690	-0.070	-0.570	0.420
2020/01/31 11:27:50.1	299.690	-0.070	-0.590	0.420
2020/01/31 11:27:50.2	299.690	-0.070	-0.610	0.410
2020/01/31 11:27:50.3	299.700	-0.080	-0.630	0.400
2020/01/31 11:27:50.4	299.710	-0.080	-0.650	0.390
2020/01/31 11:27:50.5	299.740	-0.080	-0.670	0.380
2020/01/31 11:27:50.6	299.750	-0.090	-0.690	0.370
2020/01/31 11:27:50.7	299.770	-0.090	-0.710	0.360
2020/01/31 11:27:50.8	299.790	-0.090	-0.720	0.350
2020/01/31 11:27:50.9	299.810	-0.100	-0.740	0.340
2020/01/31 11:27:51.0	299.840	-0.100	-0.760	0.330
2020/01/31 11:27:51.1	299.870	-0.100	-0.770	0.320
2020/01/31 11:27:51.2	299.890	-0.110	-0.790	0.310
2020/01/31 11:27:51.3	299.920	-0.110	-0.800	0.300
2020/01/31 11:27:51.4	299.960	-0.110	-0.800	0.290
2020/01/31 11:27:51.5	299.980	-0.120	-0.810	0.290
2020/01/31 11:27:51.6	300.010	-0.120	-0.810	0.280
2020/01/31 11:27:51.7	300.040	-0.120	-0.810	0.280
2020/01/31 11:27:51.8	300.070	-0.130	-0.800	0.280
2020/01/31 11:27:51.9	300.110	-0.130	-0.790	0.280
2020/01/31 11:27:52.0	300.140	-0.140	-0.770	0.290
2020/01/31 11:27:52.1	300.170	-0.140	-0.760	0.290
2020/01/31 11:27:52.2	300.190	-0.150	-0.730	0.310
2020/01/31 11:27:52.3	300.220	-0.150	-0.700	0.320
2020/01/31 11:27:52.4	300.250	-0.160	-0.670	0.340
2020/01/31 11:27:52.5	300.270	-0.160	-0.640	0.360
2020/01/31 11:27:52.6	300.300	-0.170	-0.600	0.380
2020/01/31 11:27:52.7	300.320	-0.180	-0.560	0.410
2020/01/31 11:27:52.8	300.330	-0.180	-0.510	0.440
2020/01/31 11:27:52.9	300.350	-0.190	-0.460	0.470
2020/01/31 11:27:53.0	300.360	-0.190	-0.410	0.500
2020/01/31 11:27:53.1	300.380	-0.200	-0.360	0.540
2020/01/31 11:27:53.2	300.390	-0.200	-0.310	0.580
2020/01/31 11:27:53.3	300.400	-0.210	-0.260	0.620
2020/01/31 11:27:53.4	300.400	-0.210	-0.210	0.660
2020/01/31 11:27:53.5	300.410	-0.210	-0.150	0.700
2020/01/31 11:27:53.6	300.410	-0.220	-0.100	0.740
2020/01/31 11:27:53.7	300.410	-0.220	-0.060	0.780
2020/01/31 11:27:53.8	300.420	-0.220	-0.010	0.820
2020/01/31 11:27:53.9	300.420	-0.220	0.030	0.860
2020/01/31 11:27:54.0	300.410	-0.220	0.060	0.900
2020/01/31 11:27:54.1	300.410	-0.220	0.100	0.930
2020/01/31 11:27:54.2	300.410	-0.210	0.130	0.970
2020/01/31 11:27:54.3	300.400	-0.210	0.150	1.000
2020/01/31 11:27:54.4	300.400	-0.210	0.170	1.030
2020/01/31 11:27:54.5	300.400	-0.200	0.190	1.060
2020/01/31 11:27:54.6	300.390	-0.190	0.200	1.080
2020/01/31 11:27:54.7	300.390	-0.190	0.200	1.100
2020/01/31 11:27:54.8	300.380	-0.180	0.200	1.120
2020/01/31 11:27:54.9	300.370	-0.170	0.200	1.140
2020/01/31 11:27:55.0	300.360	-0.160	0.190	1.150
2020/01/31 11:27:55.1	300.350	-0.150	0.180	1.160
2020/01/31 11:27:55.2	300.340	-0.130	0.160	1.160
2020/01/31 11:27:55.3	300.330	-0.120	0.140	1.160
2020/01/31 11:27:55.4	300.320	-0.110	0.120	1.160
2020/01/31 11:27:55.5	300.310	-0.090	0.100	1.160
2020/01/31 11:27:55.6	300.300	-0.080	0.070	1.150
2020/01/31 11:27:55.7	300.290	-0.060	0.040	1.140
2020/01/31 11:27:55.8	300.270	-0.050	0.010	1.130
2020/01/31 11:27:55.9	300.260	-0.030	-0.020	1.120
2020/01/31 11:27:56.0	300.240	-0.010	-0.050	1.100
2020/01/31 11:27:56.1	300.230	0.000	-0.080	1.080
2020/01/31 11:27:56.2	300.220	0.020	-0.110	1.060
2020/01/31 11:27:56.3	300.200	0.040	-0.140	1.040
2020/01/31 11:27:56.4	300.190	0.050	-0.170	1.010
2020/01/31 11:27:56.5	300.180	0.070	-0.190	0.990
2020/01/31 11:27:56.6	300.170	0.080	-0.220	0.960
2020/01/31 11:27:56.7	300.150	0.100	-0.240	0.930
2020/01/31 11:27:56.8	300.140	0.110	-0.260	0.900
2020/01/31 11:27:56.9	300.130	0.120	-0.270	0.870
2020/01/31 11:27:57.0	300.120	0.140	-0.280	0.840
2020/01/31 11:27:57.1	300.110	0.150	-0.290	0.810
2020/01/31 11:27:57.2	300.100	0.160	-0.300	0.770
2020/01/31 11:27:57.3	300.090	0.170	-0.300	0.740
2020/01/31 11:27:57.4	300.090	0.180	-0.300	0.700
2020/01/31 11:27:57.5	300.090	0.180	-0.300	0.670
2020/01/31 11:27:57.6	300.080	0.190	-0.300	0.630
2020/01/31 11:27:57.7	300.080	0.200	-0.290	0.590
2020/01/31 11:27:57.8	300.080	0.200	-0.280	0.560
2020/01/31 11:27:57.9	300.080	0.200	-0.270	0.520
2020/01/31 11:27:58.0	300.080	0.200	-0.250	0.490
2020/01/31 11:27:58.1	300.090	0.200	-0.240	0.450
2020/01/31 11:27:58.2	300.090	0.200	-0.220	0.420
2020/01/31 11:27:58.3	300.100	0.200	-0.200	0.380
2020/01/31 11:27:58.4	300.110	0.200	-0.190	0.350
2020/01/31 11:27:58.5	300.110	0.200	-0.170	0.320
2020/01/31 11:27:58.6	300.120	0.190	-0.150	0.290
2020/01/31 11:27:58.7	300.130	0.190	-0.130	0.260
2020/01/31 11:27:58.8	300.140	0.180	-0.110	0.230
2020/01/31 11:27:58.9	300.150	0.170	-0.090	0.200
2020/01/31 11:27:59.0	300.160	0.170	-0.070	0.180
2020/01/31 11:27:59.1	300.170	0.160	-0.050	0.150
2020/01/31 11:27:59.2	300.180	0.150	-0.040	0.130
2020/01/31 11:27:59.3	300.200	0.150	-0.020	0.120
2020/01/31 11:27:59.4	300.210	0.140	-0.010	0.100
2020/01/31 11:27:59.5	300.220	0.130	0.000	0.080
2020/01/31 11:27:59.6	300.230	0.120	0.010	0.070
2020/01/31 11:27:59.7	300.240	0.120	0.020	0.070
2020/01/31 11:27:59.8	300.250	0.110	0.030	0.060
2020/01/31 11:27:59.9	300.260	0.100	0.030	0.060
2020/01/31 11:28:00.0	300.280	0.100	0.030	0.060
2020/01/31 11:28:00.1	300.290	0.090	0.030	0.070
2020/01/31 11:28:00.2	300.300	0.090	0.030	0.070
2020/01/31 11:28:00.3	300.310	0.080	0.020	0.080
2020/01/31 11:28:00.4	300.320	0.080	0.010	0.090
2020/01/31 11:28:00.5	300.330	0.080	0.000	0.100
2020/01/31 11:28:00.6	300.340	0.080	-0.010	0.120
2020/01/31 11:28:00.7	300.350	0.080	-0.030	0.130
2020/01/31 11:28:00.8	300.360	0.080	-0.050	0.150
2020/01/31 11:28:00.9	300.370	0.080	-0.070	0.160
2020/01/31 11:28:01.0	300.390	0.080	-0.090	0.180
2020/01/31 11:28:01.1	300.400	0.080	-0.120	0.200
2020/01/31 11:28:01.2	300.410	0.090	-0.140	0.210
2020/01/31 11:28:01.3	300.430	0.090	-0.170	0.230
2020/01/31 11:28:01.4	300.440	0.100	-0.210	0.250
2020/01/31 11:28:01.5	300.460	0.100	-0.240	0.270
2020/01/31 11:28:01.6	300.480	0.110	-0.270	0.280
2020/01/31 11:28:01.7	300.490	0.120	-0.300	0.300
2020/01/31 11:28:01.8	300.510	0.120	-0.340	0.320
2020/01/31 11:28:01.9	300.530	0.130	-0.370	0.330
2020/01/31 11:28:02.0	300.540	0.130	-0.410	0.350
2020/01/31 11:28:02.1	300.560	0.140	-0.440	0.360
2020/01/31 11:28:02.2	300.580	0.150	-0.480	0.380
2020/01/31 11:28:02.3	300.600	0.150	-0.510	0.390
2020/01/31 11:28:02.4	300.610	0.160	-0.540	0.400
2020/01/31 11:28:02.5	300.630	0.160	-0.570	0.420
2020/01/31 11:28:02.6	300.640	0.160	-0.600	0.430
2020/01/31 11:28:02.7	300.660	0.160	-0.620	0.440
2020/01/31 11:28:02.8	300.680	0.160	-0.640	0.450
2020/01/31 11:28:02.9	300.690	0.160	-0.660	0.460
2020/01/31 11:28:03.0	300.710	0.160	-0.680	0.470
2020/01/31 11:28:03.1	300.720	0.150	-0.690	0.480
2020/01/31 11:28:03.2	300.730	0.150	-0.700	0.490
2020/01/31 11:28:03.3	300.740	0.140	-0.700	0.500
2020/01/31 11:28:03.4	300.750	0.130	-0.700	0.510
2020/01/31 11:28:03.5	300.760	0.120	-0.700	0.520
2020/01/31 11:28:03.6	300.760	0.110	-0.690	0.530
2020/01/31 11:28:03.7	300.770	0.090	-0.680	0.530
2020/01/31 11:28:03.8	300.770	0.070	-0.670	0.540
2020/01/31 11:28:03.9	300.780	0.060	-0.650	0.550
2020/01/31 11:28:04.0	300.780	0.040	-0.630	0.560
2020/01/31 11:28:04.1	300.780	0.020	-0.600	0.560
2020/01/31 11:28:04.2	300.780	-0.000	-0.570	0.570
2020/01/31 11:28:04.3	300.770	-0.020	-0.540	0.580
2020/01/31 11:28:04.4	300.770	-0.050	-0.510	0.580
2020/01/31 11:28:04.5	300.770	-0.070	-0.480	0.590
2020/01/31 11:28:04.6	300.760	-0.100	-0.440	0.590
2020/01/31 11:28:04.7	300.760	-0.120	-0.400	0.600
2020/01/31 11:28:04.8	300.750	-0.150	-0.360	0.600
2020/01/31 11:28:04.9	300.740	-0.170	-0.320	0.600
2020/01/31 11:28:05.0	300.730	-0.200	-0.280	0.610
2020/01/31 11:28:05.1	300.720	-0.220	-0.240	0.610
2020/01/31 11:28:05.2	300.700	-0.250	-0.200	0.610
2020/01/31 11:28:05.3	300.690	-0.270	-0.160	0.610
2020/01/31 11:28:05.4	300.680	-0.290	-0.120	0.610
2020/01/31 11:28:05.5	300.660	-0.310	-0.090	0.610
2020/01/31 11:28:05.6	300.650	-0.340	-0.050	0.610
2020/01/31 11:28:05.7	300.630	-0.360	-0.020	0.610
2020/01/31 11:28:05.8	300.620	-0.370	0.020	0.610
2020/01/31 11:28:05.9	300.600	-0.390	0.050	0.600
2020/01/31 11:28:06.0	300.580	-0.410	0.080	0.600
2020/01/31 11:28:06.1	300.560	-0.420	0.100	0.600
2020/01/31 11:28:06.2	300.540	-0.430	0.130	0.600
2020/01/31 11:28:06.3	300.520	-0.440	0.150	0.590
2020/01/31 11:28:06.4	300.500	-0.450	0.170	0.590
2020/01/31 11:28:06.5	300.480	-0.450	0.180	0.590
2020/01/31 11:28:06.6	300.460	-0.460	0.190	0.590
2020/01/31 11:28:06.7	300.440	-0.460	0.200	0.590
2020/01/31 11:28:06.8	300.420	-0.460	0.200	0.590
2020/01/31 11:28:06.9	300.400	-0.450	0.200	0.590
2020/01/31 11:28:07.0	300.380	-0.450	0.200	0.590
2020/01/31 11:28:07.1	300.360	-0.440	0.200	0.590
2020/01/31 11:28:07.2	300.340	-0.430	0.190	0.590
2020/01/31 11:28:07.3	300.320	-0.410	0.170	0.590
2020/01/31 11:28:07.4	300.310	-0.400	0.150	0.590
2020/01/31 11:28:07.5	300.280	-0.380	0.130	0.590
2020/01/31 11:28:07.6	300.270	-0.360	0.110	0.590
2020/01/31 11:28:07.7	300.250	-0.350	0.080	0.580
2020/01/31 11:28:07.8	300.240	-0.320	0.050	0.580
2020/01/31 11:28:07.9	300.230	-0.300	0.020	0.580
2020/01/31 11:28:08.0	300.220	-0.280	-0.020	0.580
2020/01/31 11:28:08.1	300.210	-0.250	-0.060	0.570
2020/01/31 11:28:08.2	300.210	-0.230	-0.100	0.570
2020/01/31 11:28:08.3	300.210	-0.200	-0.140	0.560
2020/01/31 11:28:08.4	300.200	-0.170	-0.180	0.550
2020/01/31 11:28:08.5	300.220	-0.150	-0.230	0.540
2020/01/31 11:28:08.6	300.220	-0.120	-0.270	0.530
2020/01/31 11:28:08.7	300.230	-0.090	-0.320	0.520
2020/01/31 11:28:08.8	300.230	-0.070	-0.360	0.510
2020/01/31 11:28:08.9	300.240	-0.040	-0.400	0.500
2020/01/31 11:28:09.0	300.240	-0.020	-0.440	0.490
2020/01/31 11:28:09.1	300.250	0.010	-0.480	0.480
2020/01/31 11:28:09.2	300.260	0.030	-0.520	0.470
2020/01/31 11:28:09.3	300.270	0.050	-0.560	0.460
2020/01/31 11:28:09.4	300.290	0.070	-0.590	0.450
2020/01/31 11:28:09.5	300.280	0.090	-0.620	0.450
2020/01/31 11:28:09.6	300.300	0.110	-0.640	0.440
2020/01/31 11:28:09.7	300.310	0.130	-0.670	0.430
2020/01/31 11:28:09.8	300.330	0.140	-0.690	0.420
2020/01/31 11:28:09.9	300.340	0.160	-0.700	0.410
2020/01/31 11:28:10.0	300.360	0.170	-0.720	0.400
2020/01/31 11:28:10.1	300.380	0.180	-0.730	0.390
2020/01/31 11:28:10.2	300.390	0.190	-0.730	0.380
2020/01/31 11:28:10.3	300.410	0.200	-0.730	0.370
2020/01/31 11:28:10.4	300.430	0.210	-0.730	0.360
2020/01/31 11:28:10.5	300.450	0.210	-0.720	0.350
2020/01/31 11:28:10.6	300.470	0.220	-0.710	0.340
2020/01/31 11:28:10.7	300.490	0.220	-0.700	0.330
2020/01/31 11:28:10.8	300.510	0.220	-0.680	0.320
2020/01/31 11:28:10.9	300.540	0.220	-0.660	0.310
2020/01/31 11:28:11.0	300.560	0.220	-0.640	0.290
2020/01/31 11:28:11.1	300.590	0.220	-0.610	0.280
2020/01/31 11:28:11.2	300.610	0.220	-0.590	0.270
2020/01/31 11:28:11.3	300.640	0.220	-0.560	0.260
2020/01/31 11:28:11.4	300.660	0.210	-0.530	0.250
2020/01/31 11:28:11.5	300.700	0.210	-0.500	0.240
2020/01/31 11:28:11.6	300.730	0.200	-0.470	0.230
2020/01/31 11:28:11.7	300.750	0.200	-0.430	0.210
2020/01/31 11:28:11.8	300.780	0.190	-0.400	0.200
2020/01/31 11:28:11.9	300.800	0.180	-0.370	0.190
2020/01/31 11:28:12.0	300.830	0.180	-0.340	0.180
2020/01/31 11:28:12.1	300.850	0.170	-0.310	0.170
2020/01/31 11:28:12.2	300.880	0.160	-0.270	0.160
2020/01/31 11:28:12.3	300.900	0.160	-0.240	0.150
2020/01/31 11:28:12.4	300.920	0.150	-0.220	0.140
2020/01/31 11:28:12.5	300.940	0.140	-0.190	0.140
2020/01/31 11:28:12.6	300.960	0.140	-0.160	0.130
2020/01/31 11:28:12.7	300.980	0.130	-0.140	0.130
2020/01/31 11:28:12.8	301.000	0.120	-0.110	0.130
2020/01/31 11:28:12.9	301.010	0.120	-0.090	0.130
2020/01/31 11:28:13.0	301.030	0.110	-0.070	0.130
2020/01/31 11:28:13.1	301.040	0.110	-0.050	0.130
2020/01/31 11:28:13.2	301.050	0.100	-0.030	0.130
2020/01/31 11:28:13.3	301.060	0.100	-0.020	0.140
2020/01/31 11:28:13.4	301.060	0.100	-0.000	0.140
2020/01/31 11:28:13.5	301.070	0.090	0.010	0.150
2020/01/31 11:28:13.6	301.070	0.090	0.020	0.160
2020/01/31 11:28:13.7	301.080	0.090	0.030	0.170
2020/01/31 11:28:13.8	301.080	0.080	0.040	0.180
2020/01/31 11:28:13.9	301.080	0.080	0.050	0.200
2020/01/31 11:28:14.0	301.070	0.080	0.060	0.210
2020/01/31 11:28:14.1	301.070	0.070	0.060	0.230
2020/01/31 11:28:14.2	301.070	0.070	0.070	0.250
2020/01/31 11:28:14.3	301.060	0.070	0.070	0.260
2020/01/31 11:28:14.4	301.050	0.060	0.070	0.280
2020/01/31 11:28:14.5	301.040	0.060	0.070	0.300
2020/01/31 11:28:14.6	301.030	0.050	0.070	0.320
2020/01/31 11:28:14.7	301.030	0.050	0.070	0.350
2020/01/31 11:28:14.8	301.020	0.040	0.070	0.370
2020/01/31 11:28:14.9	301.010	0.040	0.070	0.390
2020/01/31 11:28:15.0	300.990	0.030	0.060	0.420
2020/01/31 11:28:15.1	300.980	0.020	0.060	0.440
2020/01/31 11:28:15.2	300.970	0.020	0.060	0.460
2020/01/31 11:28:15.3	300.960	0.010	0.050	0.490
2020/01/31 11:28:15.4	300.950	0.000	0.040	0.510
2020/01/31 11:28:15.5	300.940	-0.010	0.040	0.530
2020/01/31 11:28:15.6	300.930	-0.010	0.030	0.550
2020/01/31 11:28:15.7	300.920	-0.020	0.020	0.580
2020/01/31 11:28:15.8	300.910	-0.030	0.010	0.600
2020/01/31 11:28:15.9	300.890	-0.040	0.010	0.620
2020/01/31 11:28:16.0	300.880	-0.050	-0.000	0.640
2020/01/31 11:28:16.1	300.870	-0.060	-0.010	0.660
2020/01/31 11:28:16.2	300.860	-0.070	-0.020	0.680
2020/01/31 11:28:16.3	300.840	-0.080	-0.030	0.700
2020/01/31 11:28:16.4	300.830	-0.090	-0.040	0.720
2020/01/31 11:28:16.5	300.810	-0.090	-0.050	0.740
2020/01/31 11:28:16.6	300.800	-0.100	-0.060	0.750
2020/01/31 11:28:16.7	300.780	-0.110	-0.060	0.770
2020/01/31 11:28:16.8	300.770	-0.120	-0.070	0.790
2020/01/31 11:28:16.9	300.750	-0.120	-0.080	0.810
2020/01/31 11:28:17.0	300.730	-0.130	-0.090	0.830
2020/01/31 11:28:17.1	300.710	-0.140	-0.090	0.850
2020/01/31 11:28:17.2	300.690	-0.140	-0.100	0.860
2020/01/31 11:28:17.3	300.670	-0.140	-0.100	0.880
2020/01/31 11:28:17.4	300.640	-0.150	-0.110	0.900
2020/01/31 11:28:17.5	300.620	-0.150	-0.110	0.910
2020/01/31 11:28:17.6	300.590	-0.150	-0.120	0.930
2020/01/31 11:28:17.7	300.570	-0.150	-0.120	0.940
2020/01/31 11:28:17.8	300.540	-0.150	-0.120	0.950
2020/01/31 11:28:17.9	300.520	-0.150	-0.130	0.970
2020/01/31 11:28:18.0	300.490	-0.150	-0.130	0.980
2020/01/31 11:28:18.1	300.460	-0.140	-0.130	0.990
2020/01/31 11:28:18.2	300.440	-0.140	-0.140	0.990
2020/01/31 11:28:18.3	300.410	-0.130	-0.140	1.000
2020/01/31 11:28:18.4	300.390	-0.130	-0.140	1.000
2020/01/31 11:28:18.5	300.360	-0.120	-0.150	1.010
2020/01/31 11:28:18.6	300.330	-0.110	-0.150	1.010
2020/01/31 11:28:18.7	300.310	-0.100	-0.160	1.010
2020/01/31 11:28:18.8	300.290	-0.090	-0.160	1.010
2020/01/31 11:28:18.9	300.260	-0.080	-0.170	1.010
2020/01/31 11:28:19.0	300.240	-0.070	-0.180	1.000
2020/01/31 11:28:19.1	300.220	-0.060	-0.190	1.000
2020/01/31 11:28:19.2	300.200	-0.050	-0.200	0.990
2020/01/31 11:28:19.3	300.180	-0.030	-0.210	0.980
2020/01/31 11:28:19.4	300.170	-0.020	-0.220	0.970
2020/01/31 11:28:19.5	300.150	-0.010	-0.230	0.960
2020/01/31 11:28:19.6	300.140	0.010	-0.250	0.950
2020/01/31 11:28:19.7	300.120	0.020	-0.260	0.930
2020/01/31 11:28:19.8	300.110	0.040	-0.280	0.920
2020/01/31 11:28:19.9	300.100	0.050	-0.300	0.900
2020/01/31 11:28:20.0	300.090	0.070	-0.320	0.880
2020/01/31 11:28:20.1	300.080	0.080	-0.340	0.860
2020/01/31 11:28:20.2	300.070	0.100	-0.370	0.840
2020/01/31 11:28:20.3	300.070	0.110	-0.390	0.810
2020/01/31 11:28:20.4	300.060	0.120	-0.420	0.790
2020/01/31 11:28:20.5	300.060	0.140	-0.440	0.760
2020/01/31 11:28:20.6	300.060	0.150	-0.470	0.730
2020/01/31 11:28:20.7	300.060	0.160	-0.500	0.700
2020/01/31 11:28:20.8	300.070	0.180	-0.530	0.670
2020/01/31 11:28:20.9	300.080	0.190	-0.560	0.640
2020/01/31 11:28:21.0	300.090	0.200	-0.590	0.600
2020/01/31 11:28:21.1	300.110	0.210	-0.620	0.570
2020/01/31 11:28:21.2	300.130	0.220	-0.660	0.530
2020/01/31 11:28:21.3	300.150	0.220	-0.690	0.500
2020/01/31 11:28:21.4	300.170	0.230	-0.720	0.460
2020/01/31 11:28:21.5	300.210	0.240	-0.750	0.430
2020/01/31 11:28:21.6	300.230	0.240	-0.770	0.390
2020/01/31 11:28:21.7	300.260	0.250	-0.800	0.350
2020/01/31 11:28:21.8	300.290	0.250	-0.830	0.320
2020/01/31 11:28:21.9	300.330	0.250	-0.850	0.290
2020/01/31 11:28:22.0	300.360	0.250	-0.880	0.250
2020/01/31 11:28:22.1	300.400	0.250	-0.900	0.220
2020/01/31 11:28:22.2	300.440	0.250	-0.910	0.190
2020/01/31 11:28:22.3	300.470	0.250	-0.930	0.170
2020/01/31 11:28:22.4	300.510	0.240	-0.940	0.140
2020/01/31 11:28:22.5	300.570	0.240	-0.950	0.130
2020/01/31 11:28:22.6	300.610	0.230	-0.950	0.110
2020/01/31 11:28:22.7	300.650	0.220	-0.950	0.090
2020/01/31 11:28:22.8	300.690	0.210	-0.950	0.080
2020/01/31 11:28:22.9	300.730	0.200	-0.940	0.070
2020/01/31 11:28:23.0	300.770	0.190	-0.920	0.060
2020/01/31 11:28:23.1	300.810	0.180	-0.910	0.050
2020/01/31 11:28:23.2	300.850	0.170	-0.890	0.050
2020/01/31 11:28:23.3	300.880	0.160	-0.860	0.050
2020/01/31 11:28:23.4	300.920	0.140	-0.830	0.060
2020/01/31 11:28:23.5	300.950	0.130	-0.790	0.070
2020/01/31 11:28:23.6	300.980	0.110	-0.750	0.080
2020/01/31 11:28:23.7	301.010	0.090	-0.710	0.090
2020/01/31 11:28:23.8	301.040	0.070	-0.670	0.110
2020/01/31 11:28:23.9	301.070	0.060	-0.620	0.130
2020/01/31 11:28:24.0	301.090	0.040	-0.570	0.150
2020/01/31 11:28:24.1	301.120	0.020	-0.510	0.180
2020/01/31 11:28:24.2	301.140	-0.000	-0.450	0.200
2020/01/31 11:28:24.3	301.160	-0.030	-0.390	0.230
2020/01/31 11:28:24.4	301.180	-0.050	-0.330	0.260
2020/01/31 11:28:24.5	301.190	-0.070	-0.270	0.290
2020/01/31 11:28:24.6	301.200	-0.090	-0.210	0.320
2020/01/31 11:28:24.7	301.210	-0.110	-0.150	0.350
2020/01/31 11:28:24.8	301.220	-0.130	-0.080	0.380
2020/01/31 11:28:24.9	301.230	-0.160	-0.020	0.420
2020/01/31 11:28:25.0	301.240	-0.180	0.040	0.450
2020/01/31 11:28:25.1	301.240	-0.200	0.100	0.480
2020/01/31 11:28:25.2	301.240	-0.220	0.170	0.510
2020/01/31 11:28:25.3	301.250	-0.240	0.220	0.540
2020/01/31 11:28:25.4	301.240	-0.260	0.280	0.580
2020/01/31 11:28:25.5	301.250	-0.290	0.340	0.610
2020/01/31 11:28:25.6	301.240	-0.300	0.390	0.630
2020/01/31 11:28:25.7	301.230	-0.320	0.440	0.660
2020/01/31 11:28:25.8	301.220	-0.340	0.490	0.690
2020/01/31 11:28:25.9	301.210	-0.360	0.530	0.720
2020/01/31 11:28:26.0	301.200	-0.380	0.570	0.740
2020/01/31 11:28:26.1	301.180	-0.390	0.610	0.770
2020/01/31 11:28:26.2	301.170	-0.410	0.640	0.790
2020/01/31 11:28:26.3	301.150	-0.420	0.670	0.810
2020/01/31 11:28:26.4	301.130	-0.430	0.700	0.830
2020/01/31 11:28:26.5	301.120	-0.440	0.720	0.850
2020/01/31 11:28:26.6	301.100	-0.450	0.730	0.870
2020/01/31 11:28:26.7	301.070	-0.450	0.750	0.880
2020/01/31 11:28:26.8	301.050	-0.460	0.750	0.900
2020/01/31 11:28:26.9	301.020	-0.460	0.760	0.910
2020/01/31 11:28:27.0	300.990	-0.460	0.760	0.920
2020/01/31 11:28:27.1	300.960	-0.460	0.750	0.930
2020/01/31 11:28:27.2	300.930	-0.450	0.740	0.940
2020/01/31 11:28:27.3	300.900	-0.450	0.730	0.950
2020/01/31 11:28:27.4	300.870	-0.440	0.710	0.950
2020/01/31 11:28:27.5	300.840	-0.430	0.690	0.960
2020/01/31 11:28:27.6	300.800	-0.410	0.660	0.960
2020/01/31 11:28:27.7	300.770	-0.400	0.630	0.970
2020/01/31 11:28:27.8	300.740	-0.380	0.590	0.970
2020/01/31 11:28:27.9	300.700	-0.360	0.550	0.970
2020/01/31 11:28:28.0	300.670	-0.330	0.510	0.970
2020/01/31 11:28:28.1	300.640	-0.310	0.460	0.970
2020/01/31 11:28:28.2	300.610	-0.280	0.410	0.960
2020/01/31 11:28:28.3	300.580	-0.250	0.350	0.960
2020/01/31 11:28:28.4	300.550	-0.220	0.290	0.950
2020/01/31 11:28:28.5	300.510	-0.190	0.220	0.930
2020/01/31 11:28:28.6	300.480	-0.150	0.160	0.920
2020/01/31 11:28:28.7	300.460	-0.120	0.090	0.910
2020/01/31 11:28:28.8	300.440	-0.080	0.020	0.890
2020/01/31 11:28:28.9	300.420	-0.040	-0.060	0.870
2020/01/31 11:28:29.0	300.400	-0.000	-0.130	0.850
2020/01/31 11:28:29.1	300.390	0.030	-0.210	0.820
2020/01/31 11:28:29.2	300.380	0.070	-0.290	0.800
2020/01/31 11:28:29.3	300.370	0.110	-0.370	0.770
2020/01/31 11:28:29.4	300.360	0.150	-0.440	0.740
2020/01/31 11:28:29.5	300.350	0.180	-0.520	0.710
2020/01/31 11:28:29.6	300.350	0.220	-0.600	0.670
2020/01/31 11:28:29.7	300.350	0.250	-0.670	0.640
2020/01/31 11:28:29.8	300.350	0.290	-0.740	0.600
2020/01/31 11:28:29.9	300.360	0.320	-0.810	0.560
2020/01/31 11:28:30.0	300.370	0.350	-0.870	0.530
2020/01/31 11:28:30.1	300.380	0.380	-0.930	0.490
2020/01/31 11:28:30.2	300.390	0.410	-0.990	0.450
2020/01/31 11:28:30.3	300.400	0.430	-1.040	0.420
2020/01/31 11:28:30.4	300.410	0.450	-1.080	0.380
2020/01/31 11:28:30.5	300.440	0.470	-1.120	0.350
2020/01/31 11:28:30.6	300.450	0.490	-1.150	0.320
2020/01/31 11:28:30.7	300.470	0.510	-1.180	0.290
2020/01/31 11:28:30.8	300.480	0.520	-1.200	0.260
2020/01/31 11:28:30.9	300.500	0.530	-1.210	0.240
2020/01/31 11:28:31.0	300.520	0.540	-1.220	0.210
2020/01/31 11:28:31.1	300.540	0.540	-1.220	0.190
2020/01/31 11:28:31.2	300.560	0.540	-1.210	0.170
2020/01/31 11:28:31.3	300.580	0.550	-1.200	0.160
2020/01/31 11:28:31.4	300.600	0.540	-1.180	0.140
2020/01/31 11:28:31.5	300.610	0.540	-1.160	0.130
2020/01/31 11:28:31.6	300.630	0.530	-1.130	0.120
2020/01/31 11:28:31.7	300.650	0.530	-1.100	0.120
2020/01/31 11:28:31.8	300.680	0.520	-1.070	0.110
2020/01/31 11:28:31.9	300.700	0.500	-1.030	0.110
2020/01/31 11:28:32.0	300.720	0.490	-0.980	0.110
2020/01/31 11:28:32.1	300.740	0.480	-0.940	0.110
2020/01/31 11:28:32.2	300.760	0.460	-0.890	0.120
2020/01/31 11:28:32.3	300.780	0.440	-0.830	0.120
2020/01/31 11:28:32.4	300.800	0.420	-0.780	0.130
2020/01/31 11:28:32.5	300.830	0.400	-0.720	0.150
2020/01/31 11:28:32.6	300.840	0.380	-0.670	0.160
2020/01/31 11:28:32.7	300.860	0.360	-0.610	0.180
2020/01/31 11:28:32.8	300.880	0.340	-0.550	0.200
2020/01/31 11:28:32.9	300.900	0.310	-0.490	0.220
2020/01/31 11:28:33.0	300.910	0.290	-0.430	0.240
2020/01/31 11:28:33.1	300.930	0.270	-0.370	0.260
2020/01/31 11:28:33.2	300.940	0.240	-0.310	0.290
2020/01/31 11:28:33.3	300.960	0.210	-0.250	0.310
2020/01/31 11:28:33.4	300.970	0.190	-0.200	0.340
2020/01/31 11:28:33.5	300.980	0.160	-0.140	0.370
2020/01/31 11:28:33.6	300.990	0.140	-0.090	0.390
2020/01/31 11:28:33.7	301.000	0.110	-0.040	0.420
2020/01/31 11:28:33.8	301.010	0.090	0.010	0.450
2020/01/31 11:28:33.9	301.020	0.060	0.050	0.480
2020/01/31 11:28:34.0	301.030	0.040	0.090	0.500
2020/01/31 11:28:34.1	301.030	0.020	0.130	0.530
2020/01/31 11:28:34.2	301.040	-0.010	0.170	0.560
2020/01/31 11:28:34.3	301.050	-0.030	0.200	0.590
2020/01/31 11:28:34.4	301.050	-0.050	0.220	0.620
2020/01/31 11:28:34.5	301.050	-0.070	0.250	0.650
2020/01/31 11:28:34.6	301.060	-0.090	0.270	0.670
2020/01/31 11:28:34.7	301.060	-0.110	0.290	0.700
2020/01/31 11:28:34.8	301.060	-0.130	0.300	0.730
2020/01/31 11:28:34.9	301.060	-0.150	0.310	0.750
2020/01/31 11:28:35.0	301.060	-0.170	0.320	0.770
2020/01/31 11:28:35.1	301.060	-0.190	0.320	0.790
2020/01/31 11:28:35.2	301.060	-0.200	0.320	0.810
2020/01/31 11:28:35.3	301.060	-0.220	0.310	0.830
2020/01/31 11:28:35.4	301.060	-0.230	0.310	0.840
2020/01/31 11:28:35.5	301.060	-0.240	0.290	0.850
2020/01/31 11:28:35.6	301.050	-0.250	0.280	0.860
2020/01/31 11:28:35.7	301.050	-0.260	0.260	0.860
2020/01/31 11:28:35.8	301.050	-0.270	0.250	0.870
2020/01/31 11:28:35.9	301.050	-0.280	0.220	0.870
2020/01/31 11:28:36.0	301.050	-0.290	0.200	0.870
2020/01/31 11:28:36.1	301.040	-0.300	0.180	0.860
2020/01/31 11:28:36.2	301.040	-0.310	0.150	0.850
2020/01/31 11:28:36.3	301.040	-0.310	0.120	0.840
2020/01/31 11:28:36.4	301.040	-0.320	0.090	0.820
2020/01/31 11:28:36.5	301.040	-0.320	0.060	0.800
2020/01/31 11:28:36.6	301.040	-0.330	0.030	0.780
2020/01/31 11:28:36.7	301.040	-0.330	-0.000	0.760
2020/01/31 11:28:36.8	301.040	-0.330	-0.040	0.730
2020/01/31 11:28:36.9	301.040	-0.330	-0.070	0.700
2020/01/31 11:28:37.0	301.040	-0.330	-0.100	0.670
2020/01/31 11:28:37.1	301.050	-0.330	-0.140	0.640
2020/01/31 11:28:37.2	301.050	-0.330	-0.170	0.600
2020/01/31 11:28:37.3	301.060	-0.330	-0.200	0.570
2020/01/31 11:28:37.4	301.060	-0.330	-0.230	0.530
2020/01/31 11:28:37.5	301.060	-0.330	-0.260	0.490
2020/01/31 11:28:37.6	301.060	-0.330	-0.290	0.460
2020/01/31 11:28:37.7	301.070	-0.320	-0.310	0.420
2020/01/31 11:28:37.8	301.080	-0.320	-0.340	0.390
2020/01/31 11:28:37.9	301.080	-0.320	-0.360	0.360
2020/01/31 11:28:38.0	301.090	-0.310	-0.370	0.320
2020/01/31 11:28:38.1	301.100	-0.310	-0.390	0.290
2020/01/31 11:28:38.2	301.100	-0.310	-0.390	0.260
2020/01/31 11:28:38.3	301.110	-0.300	-0.400	0.240
2020/01/31 11:28:38.4	301.110	-0.300	-0.410	0.210
2020/01/31 11:28:38.5	301.120	-0.290	-0.410	0.190
2020/01/31 11:28:38.6	301.120	-0.290	-0.400	0.180
2020/01/31 11:28:38.7	301.120	-0.280	-0.400	0.160
2020/01/31 11:28:38.8	301.110	-0.280	-0.390	0.150
2020/01/31 11:28:38.9	301.110	-0.270	-0.380	0.140
2020/01/31 11:28:39.0	301.110	-0.260	-0.370	0.130
2020/01/31 11:28:39.1	301.100	-0.260	-0.360	0.130
2020/01/31 11:28:39.2	301.100	-0.250	-0.340	0.130
2020/01/31 11:28:39.3	301.090	-0.240	-0.330	0.130
2020/01/31 11:28:39.4	301.080	-0.230	-0.310	0.140
2020/01/31 11:28:39.5	301.070	-0.230	-0.300	0.140
2020/01/31 11:28:39.6	301.070	-0.220	-0.280	0.150
2020/01/31 11:28:39.7	301.060	-0.200	-0.270	0.170
2020/01/31 11:28:39.8	301.050	-0.190	-0.250	0.180
2020/01/31 11:28:39.9	301.040	-0.180	-0.240	0.200
2020/01/31 11:28:40.0	301.030	-0.170	-0.230	0.220
2020/01/31 11:28:40.1	301.030	-0.150	-0.220	0.240
2020/01/31 11:28:40.2	301.020	-0.140	-0.210	0.270
2020/01/31 11:28:40.3	301.010	-0.120	-0.210	0.290
2020/01/31 11:28:40.4	301.010	-0.100	-0.210	0.310
2020/01/31 11:28:40.5	301.000	-0.080	-0.210	0.340
2020/01/31 11:28:40.6	301.000	-0.060	-0.210	0.360
2020/01/31 11:28:40.7	301.000	-0.040	-0.220	0.380
2020/01/31 11:28:40.8	301.000	-0.020	-0.230	0.400
2020/01/31 11:28:40.9	301.000	0.000	-0.240	0.430
2020/01/31 11:28:41.0	301.000	0.030	-0.250	0.450
2020/01/31 11:28:41.1	301.000	0.050	-0.270	0.470
2020/01/31 11:28:41.2	301.010	0.080	-0.290	0.480
2020/01/31 11:28:41.3	301.010	0.100	-0.310	0.500
2020/01/31 11:28:41.4	301.020	0.130	-0.330	0.520
2020/01/31 11:28:41.5	301.030	0.150	-0.350	0.530
2020/01/31 11:28:41.6	301.040	0.180	-0.380	0.550
2020/01/31 11:28:41.7	301.050	0.200	-0.400	0.560
2020/01/31 11:28:41.8	301.060	0.230	-0.430	0.570
2020/01/31 11:28:41.9	301.070	0.250	-0.450	0.590
2020/01/31 11:28:42.0	301.070	0.270	-0.470	0.600
2020/01/31 11:28:42.1	301.080	0.290	-0.500	0.610
2020/01/31 11:28:42.2	301.090	0.320	-0.520	0.620
2020/01/31 11:28:42.3	301.100	0.330	-0.530	0.630
2020/01/31 11:28:42.4	301.110	0.350	-0.550	0.640
2020/01/31 11:28:42.5	301.120	0.370	-0.560	0.660
2020/01/31 11:28:42.6	301.120	0.380	-0.570	0.670
2020/01/31 11:28:42.7	301.130	0.390	-0.580	0.680
2020/01/31 11:28:42.8	301.130	0.400	-0.580	0.700
2020/01/31 11:28:42.9	301.130	0.410	-0.580	0.710
2020/01/31 11:28:43.0	301.130	0.410	-0.580	0.730
2020/01/31 11:28:43.1	301.130	0.410	-0.570	0.750
2020/01/31 11:28:43.2	301.130	0.410	-0.560	0.760
2020/01/31 11:28:43.3	301.130	0.410	-0.540	0.780
2020/01/31 11:28:43.4	301.130	0.410	-0.520	0.800
2020/01/31 11:28:43.5	301.120	0.400	-0.500	0.810
2020/01/31 11:28:43.6	301.120	0.390	-0.470	0.830
2020/01/31 11:28:43.7	301.110	0.380	-0.440	0.850
2020/01/31 11:28:43.8	301.110	0.360	-0.410	0.860
2020/01/31 11:28:43.9	301.100	0.350	-0.370	0.880
2020/01/31 11:28:44.0	301.100	0.330	-0.340	0.890
2020/01/31 11:28:44.1	301.090	0.310	-0.300	0.900
2020/01/31 11:28:44.2	301.090	0.290	-0.260	0.920
2020/01/31 11:28:44.3	301.080	0.270	-0.220	0.930
2020/01/31 11:28:44.4	301.080	0.250	-0.180	0.940
2020/01/31 11:28:44.5	301.070	0.230	-0.140	0.950
2020/01/31 11:28:44.6	301.070	0.210	-0.100	0.960
2020/01/31 11:28:44.7	301.060	0.190	-0.060	0.970
2020/01/31 11:28:44.8	301.050	0.160	-0.020	0.970
2020/01/31 11:28:44.9	301.050	0.140	0.020	0.980
2020/01/31 11:28:45.0	301.040	0.120	0.060	0.980
2020/01/31 11:28:45.1	301.030	0.090	0.090	0.990
2020/01/31 11:28:45.2	301.020	0.070	0.130	0.990
2020/01/31 11:28:45.3	301.020	0.050	0.160	0.980
2020/01/31 11:28:45.4	301.010	0.030	0.190	0.980
2020/01/31 11:28:45.5	301.010	0.010	0.210	0.980
2020/01/31 11:28:45.6	301.000	-0.000	0.230	0.970
2020/01/31 11:28:45.7	301.000	-0.020	0.250	0.960
2020/01/31 11:28:45.8	300.990	-0.030	0.270	0.940
2020/01/31 11:28:45.9	300.990	-0.050	0.280	0.930
2020/01/31 11:28:46.0	300.990	-0.060	0.290	0.910
2020/01/31 11:28:46.1	300.980	-0.060	0.300	0.890
2020/01/31 11:28:46.2	300.980	-0.070	0.300	0.860
2020/01/31 11:28:46.3	300.980	-0.080	0.300	0.840
2020/01/31 11:28:46.4	300.980	-0.080	0.290	0.810
2020/01/31 11:28:46.5	300.980	-0.080	0.280	0.770
2020/01/31 11:28:46.6	300.980	-0.080	0.270	0.740
2020/01/31 11:28:46.7	300.990	-0.080	0.250	0.700
2020/01/31 11:28:46.8	300.990	-0.080	0.230	0.660
2020/01/31 11:28:46.9	301.000	-0.070	0.200	0.620
2020/01/31 11:28:47.0	301.000	-0.070	0.180	0.570
2020/01/31 11:28:47.1	301.010	-0.060	0.150	0.530
2020/01/31 11:28:47.2	301.020	-0.050	0.110	0.480
2020/01/31 11:28:47.3	301.030	-0.040	0.080	0.430
2020/01/31 11:28:47.4	301.050	-0.030	0.040	0.380
2020/01/31 11:28:47.5	301.060	-0.020	-0.000	0.330
2020/01/31 11:28:47.6	301.080	-0.010	-0.050	0.280
2020/01/31 11:28:47.7	301.090	0.010	-0.090	0.230
2020/01/31 11:28:47.8	301.110	0.020	-0.130	0.190
2020/01/31 11:28:47.9	301.130	0.030	-0.180	0.140
2020/01/31 11:28:48.0	301.140	0.040	-0.220	0.090
2020/01/31 11:28:48.1	301.160	0.060	-0.260	0.050
2020/01/31 11:28:48.2	301.180	0.070	-0.310	0.010
2020/01/31 11:28:48.3	301.200	0.080	-0.350	-0.030
2020/01/31 11:28:48.4	301.210	0.090	-0.390	-0.060
2020/01/31 11:28:48.5	301.220	0.110	-0.430	-0.090
2020/01/31 11:28:48.6	301.240	0.120	-0.460	-0.120
2020/01/31 11:28:48.7	301.250	0.130	-0.490	-0.150
2020/01/31 11:28:48.8	301.270	0.140	-0.520	-0.170
2020/01/31 11:28:48.9	301.280	0.140	-0.550	-0.180
2020/01/31 11:28:49.0	301.290	0.150	-0.580	-0.190
2020/01/31 11:28:49.1	301.310	0.160	-0.600	-0.200
2020/01/31 11:28:49.2	301.320	0.160	-0.610	-0.200
2020/01/31 11:28:49.3	301.330	0.170	-0.630	-0.200
2020/01/31 11:28:49.4	301.330	0.170	-0.640	-0.190
2020/01/31 11:28:49.5	301.340	0.170	-0.650	-0.180
2020/01/31 11:28:49.6	301.340	0.170	-0.650	-0.160
2020/01/31 11:28:49.7	301.350	0.170	-0.650	-0.140
2020/01/31 11:28:49.8	301.350	0.170	-0.650	-0.120
2020/01/31 11:28:49.9	301.350	0.170	-0.650	-0.090
2020/01/31 11:28:50.0	301.350	0.170	-0.640	-0.050
2020/01/31 11:28:50.1	301.350	0.160	-0.630	-0.020
2020/01/31 11:28:50.2	301.340	0.160	-0.620	0.020
2020/01/31 11:28:50.3	301.340	0.150	-0.610	0.060
2020/01/31 11:28:50.4	301.330	0.140	-0.590	0.100
2020/01/31 11:28:50.5	301.320	0.140	-0.570	0.140
2020/01/31 11:28:50.6	301.310	0.130	-0.560	0.190
2020/01/31 11:28:50.7	301.300	0.120	-0.540	0.230
2020/01/31 11:28:50.8	301.290	0.110	-0.520	0.280
2020/01/31 11:28:50.9	301.270	0.100	-0.500	0.320
2020/01/31 11:28:51.0	301.260	0.090	-0.480	0.370
2020/01/31 11:28:51.1	301.250	0.080	-0.460	0.420
2020/01/31 11:28:51.2	301.230	0.060	-0.440	0.460
2020/01/31 11:28:51.3	301.210	0.050	-0.410	0.500
2020/01/31 11:28:51.4	301.200	0.040	-0.390	0.550
2020/01/31 11:28:51.5	301.180	0.030	-0.370	0.590
2020/01/31 11:28:51.6	301.170	0.020	-0.350	0.630
2020/01/31 11:28:51.7	301.150	0.000	-0.330	0.660
2020/01/31 11:28:51.8	301.130	-0.010	-0.320	0.700
2020/01/31 11:28:51.9	301.110	-0.020	-0.300	0.730
2020/01/31 11:28:52.0	301.090	-0.040	-0.280	0.760
2020/01/31 11:28:52.1	301.070	-0.050	-0.270	0.790
2020/01/31 11:28:52.2	301.050	-0.060	-0.260	0.810
2020/01/31 11:28:52.3	301.040	-0.070	-0.250	0.830
2020/01/31 11:28:52.4	301.020	-0.090	-0.240	0.850
2020/01/31 11:28:52.5	301.010	-0.100	-0.230	0.860
2020/01/31 11:28:52.6	301.000	-0.110	-0.220	0.870
2020/01/31 11:28:52.7	300.980	-0.120	-0.220	0.880
2020/01/31 11:28:52.8	300.960	-0.140	-0.220	0.890
2020/01/31 11:28:52.9	300.950	-0.150	-0.220	0.890
2020/01/31 11:28:53.0	300.930	-0.160	-0.220	0.890
2020/01/31 11:28:53.1	300.920	-0.170	-0.220	0.880
2020/01/31 11:28:53.2	300.910	-0.180	-0.220	0.880
2020/01/31 11:28:53.3	300.900	-0.190	-0.220	0.870
2020/01/31 11:28:53.4	300.880	-0.200	-0.230	0.860
2020/01/31 11:28:53.5	300.850	-0.200	-0.230	0.850
2020/01/31 11:28:53.6	300.840	-0.210	-0.240	0.840
2020/01/31 11:28:53.7	300.830	-0.220	-0.250	0.820
2020/01/31 11:28:53.8	300.820	-0.230	-0.250	0.810
2020/01/31 11:28:53.9	300.810	-0.230	-0.260	0.790
2020/01/31 11:28:54.0	300.810	-0.240	-0.270	0.770
2020/01/31 11:28:54.1	300.800	-0.240	-0.280	0.760
2020/01/31 11:28:54.2	300.790	-0.240	-0.280	0.740
2020/01/31 11:28:54.3	300.790	-0.250	-0.290	0.720
2020/01/31 11:28:54.4	300.790	-0.250	-0.300	0.700
2020/01/31 11:28:54.5	300.780	-0.250	-0.300	0.680
2020/01/31 11:28:54.6	300.780	-0.250	-0.310	0.670
2020/01/31 11:28:54.7	300.780	-0.250	-0.310	0.650
2020/01/31 11:28:54.8	300.780	-0.250	-0.310	0.630
2020/01/31 11:28:54.9	300.780	-0.250	-0.310	0.620
2020/01/31 11:28:55.0	300.780	-0.250	-0.310	0.600
2020/01/31 11:28:55.1	300.780	-0.240	-0.310	0.590
2020/01/31 11:28:55.2	300.780	-0.240	-0.310	0.580
2020/01/31 11:28:55.3	300.780	-0.240	-0.310	0.570
2020/01/31 11:28:55.4	300.780	-0.230	-0.300	0.560
2020/01/31 11:28:55.5	300.780	-0.230	-0.300	0.560
2020/01/31 11:28:55.6	300.790	-0.220	-0.290	0.550
2020/01/31 11:28:55.7	300.790	-0.220	-0.280	0.550
2020/01/31 11:28:55.8	300.790	-0.210	-0.270	0.540
2020/01/31 11:28:55.9	300.790	-0.210	-0.260	0.540
2020/01/31 11:28:56.0	300.790	-0.200	-0.250	0.540
2020/01/31 11:28:56.1	300.800	-0.190	-0.240	0.540
2020/01/31 11:28:56.2	300.800	-0.190	-0.230	0.550
2020/01/31 11:28:56.3	300.800	-0.180	-0.210	0.550
2020/01/31 11:28:56.4	300.800	-0.170	-0.200	0.550
2020/01/31 11:28:56.5	300.810	-0.160	-0.180	0.560
2020/01/31 11:28:56.6	300.810	-0.160	-0.170	0.560
2020/01/31 11:28:56.7	300.810	-0.150	-0.160	0.570
2020/01/31 11:28:56.8	300.810	-0.140	-0.140	0.570
2020/01/31 11:28:56.9	300.810	-0.140	-0.130	0.580
2020/01/31 11:28:57.0	300.820	-0.130	-0.120	0.590
2020/01/31 11:28:57.1	300.820	-0.120	-0.100	0.600
2020/01/31 11:28:57.2	300.820	-0.110	-0.090	0.600
2020/01/31 11:28:57.3	300.820	-0.100	-0.070	0.610
2020/01/31 11:28:57.4	300.820	-0.100	-0.060	0.620
2020/01/31 11:28:57.5	300.820	-0.090	-0.050	0.640
2020/01/31 11:28:57.6	300.820	-0.080	-0.040	0.650
2020/01/31 11:28:57.7	300.820	-0.070	-0.030	0.660
2020/01/31 11:28:57.8	300.820	-0.060	-0.020	0.670
2020/01/31 11:28:57.9	300.820	-0.050	-0.010	0.680
2020/01/31 11:28:58.0	300.820	-0.040	-0.010	0.690
2020/01/31 11:28:58.1	300.830	-0.030	-0.000	0.710
2020/01/31 11:28:58.2	300.830	-0.020	0.000	0.720
2020/01/31 11:28:58.3	300.830	-0.010	0.010	0.730
2020/01/31 11:28:58.4	300.840	0.000	0.010	0.750
2020/01/31 11:28:58.5	300.830	0.010	0.010	0.760
2020/01/31 11:28:58.6	300.840	0.030	0.010	0.770
2020/01/31 11:28:58.7	300.840	0.040	0.010	0.790
2020/01/31 11:28:58.8	300.850	0.050	0.010	0.800
2020/01/31 11:28:58.9	300.850	0.070	0.000	0.820
2020/01/31 11:28:59.0	300.850	0.080	-0.000	0.840
2020/01/31 11:28:59.1	300.850	0.100	-0.010	0.850
2020/01/31 11:28:59.2	300.860	0.110	-0.020	0.870
2020/01/31 11:28:59.3	300.860	0.120	-0.020	0.890
2020/01/31 11:28:59.4	300.860	0.140	-0.030	0.900
2020/01/31 11:28:59.5	300.860	0.160	-0.040	0.930
2020/01/31 11:28:59.6	300.860	0.170	-0.050	0.940
2020/01/31 11:28:59.7	300.860	0.190	-0.060	0.960
2020/01/31 11:28:59.8	300.860	0.200	-0.070	0.980
2020/01/31 11:28:59.9	300.860	0.220	-0.070	1.000
2020/01/31 11:29:00.0	300.860	0.230	-0.080	1.020
2020/01/31 11:29:00.1	300.860	0.250	-0.090	1.040
2020/01/31 11:29:00.2	300.860	0.260	-0.100	1.050
2020/01/31 11:29:00.3	300.860	0.280	-0.110	1.070
2020/01/31 11:29:00.4	300.860	0.290	-0.110	1.090
2020/01/31 11:29:00.5	300.870	0.310	-0.120	1.100
2020/01/31 11:29:00.6	300.870	0.320	-0.130	1.110
2020/01/31 11:29:00.7	300.880	0.330	-0.130	1.120
2020/01/31 11:29:00.8	300.880	0.350	-0.140	1.130
2020/01/31 11:29:00.9	300.890	0.360	-0.140	1.140
2020/01/31 11:29:01.0	300.890	0.370	-0.150	1.150
2020/01/31 11:29:01.1	300.900	0.390	-0.160	1.150
2020/01/31 11:29:01.2	300.900	0.400	-0.160	1.160
2020/01/31 11:29:01.3	300.910	0.410	-0.170	1.160
2020/01/31 11:29:01.4	300.920	0.420	-0.170	1.160
2020/01/31 11:29:01.5	300.930	0.430	-0.180	1.170
2020/01/31 11:29:01.6	300.940	0.440	-0.180	1.170
2020/01/31 11:29:01.7	300.950	0.450	-0.190	1.170
2020/01/31 11:29:01.8	300.960	0.450	-0.190	1.170
2020/01/31 11:29:01.9	300.970	0.460	-0.200	1.170
2020/01/31 11:29:02.0	300.980	0.460	-0.200	1.160
2020/01/31 11:29:02.1	300.990	0.470	-0.210	1.160
2020/01/31 11:29:02.2	301.000	0.470	-0.220	1.160
2020/01/31 11:29:02.3	301.000	0.470	-0.220	1.160
2020/01/31 11:29:02.4	301.010	0.480	-0.230	1.150
2020/01/31 11:29:02.5	301.030	0.480	-0.240	1.150
2020/01/31 11:29:02.6	301.030	0.470	-0.240	1.150
2020/01/31 11:29:02.7	301.040	0.470	-0.250	1.140
2020/01/31 11:29:02.8	301.040	0.470	-0.260	1.140
2020/01/31 11:29:02.9	301.050	0.470	-0.270	1.140
2020/01/31 11:29:03.0	301.050	0.460	-0.280	1.130
2020/01/31 11:29:03.1	301.050	0.450	-0.290	1.120
2020/01/31 11:29:03.2	301.050	0.450	-0.300	1.120
2020/01/31 11:29:03.3	301.050	0.440	-0.310	1.110
2020/01/31 11:29:03.4	301.040	0.430	-0.330	1.100
2020/01/31 11:29:03.5	301.030	0.420	-0.340	1.090
2020/01/31 11:29:03.6	301.020	0.410	-0.360	1.080
2020/01/31 11:29:03.7	301.020	0.400	-0.370	1.070
2020/01/31 11:29:03.8	301.010	0.380	-0.390	1.050
2020/01/31 11:29:03.9	301.000	0.370	-0.400	1.040
2020/01/31 11:29:04.0	300.990	0.350	-0.420	1.020
2020/01/31 11:29:04.1	300.980	0.340	-0.440	1.000
2020/01/31 11:29:04.2	300.970	0.320	-0.450	0.980
2020/01/31 11:29:04.3	300.950	0.300	-0.470	0.960
2020/01/31 11:29:04.4	300.940	0.290	-0.490	0.930
2020/01/31 11:29:04.5	300.920	0.270	-0.510	0.900
2020/01/31 11:29:04.6	300.910	0.250	-0.520	0.870
2020/01/31 11:29:04.7	300.890	0.230	-0.540	0.840
2020/01/31 11:29:04.8	300.870	0.210	-0.550	0.810
2020/01/31 11:29:04.9	300.860	0.180	-0.570	0.780
2020/01/31 11:29:05.0	300.840	0.160	-0.580	0.740
2020/01/31 11:29:05.1	300.830	0.140	-0.590	0.710
2020/01/31 11:29:05.2	300.810	0.110	-0.600	0.670
2020/01/31 11:29:05.3	300.790	0.090	-0.610	0.630
2020/01/31 11:29:05.4	300.780	0.060	-0.620	0.590
2020/01/31 11:29:05.5	300.760	0.040	-0.620	0.550
2020/01/31 11:29:05.6	300.740	0.010	-0.630	0.500
2020/01/31 11:29:05.7	300.730	-0.020	-0.630	0.460
2020/01/31 11:29:05.8	300.710	-0.050	-0.630	0.420
2020/01/31 11:29:05.9	300.700	-0.080	-0.620	0.370
2020/01/31 11:29:06.0	300.680	-0.110	-0.620	0.330
2020/01/31 11:29:06.1	300.670	-0.140	-0.610	0.290
2020/01/31 11:29:06.2	300.660	-0.170	-0.600	0.240
2020/01/31 11:29:06.3	300.650	-0.200	-0.590	0.200
2020/01/31 11:29:06.4	300.630	-0.230	-0.580	0.160
2020/01/31 11:29:06.5	300.630	-0.260	-0.560	0.120
2020/01/31 11:29:06.6	300.620	-0.290	-0.550	0.080
2020/01/31 11:29:06.7	300.610	-0.320	-0.530	0.040
2020/01/31 11:29:06.8	300.600	-0.350	-0.510	0.010
2020/01/31 11:29:06.9	300.590	-0.380	-0.480	-0.020
2020/01/31 11:29:07.0	300.580	-0.410	-0.460	-0.060
2020/01/31 11:29:07.1	300.570	-0.440	-0.440	-0.090
2020/01/31 11:29:07.2	300.570	-0.470	-0.410	-0.110
2020/01/31 11:29:07.3	300.560	-0.500	-0.380	-0.140
2020/01/31 11:29:07.4	300.560	-0.530	-0.360	-0.160
2020/01/31 11:29:07.5	300.540	-0.550	-0.330	-0.180
2020/01/31 11:29:07.6	300.540	-0.580	-0.310	-0.200
2020/01/31 11:29:07.7	300.540	-0.600	-0.280	-0.210
2020/01/31 11:29:07.8	300.540	-0.620	-0.260	-0.220
2020/01/31 11:29:07.9	300.540	-0.640	-0.230	-0.240
2020/01/31 11:29:08.0	300.540	-0.650	-0.210	-0.240
2020/01/31 11:29:08.1	300.550	-0.670	-0.180	-0.250
2020/01/31 11:29:08.2	300.550	-0.680	-0.160	-0.250
2020/01/31 11:29:08.3	300.560	-0.690	-0.140	-0.260
2020/01/31 11:29:08.4	300.570	-0.700	-0.120	-0.260
2020/01/31 11:29:08.5	300.590	-0.700	-0.100	-0.260
2020/01/31 11:29:08.6	300.600	-0.710	-0.080	-0.250
2020/01/31 11:29:08.7	300.620	-0.710	-0.070	-0.240
2020/01/31 11:29:08.8	300.630	-0.700	-0.050	-0.240
2020/01/31 11:29:08.9	300.640	-0.700	-0.040	-0.220
2020/01/31 11:29:09.0	300.660	-0.690	-0.030	-0.210
2020/01/31 11:29:09.1	300.670	-0.680	-0.020	-0.190
2020/01/31 11:29:09.2	300.680	-0.670	-0.010	-0.170
2020/01/31 11:29:09.3	300.690	-0.660	-0.000	-0.140
2020/01/31 11:29:09.4	300.710	-0.640	0.000	-0.110
2020/01/31 11:29:09.5	300.710	-0.620	0.010	-0.080
2020/01/31 11:29:09.6	300.720	-0.600	0.020	-0.050
2020/01/31 11:29:09.7	300.730	-0.580	0.020	-0.010
2020/01/31 11:29:09.8	300.740	-0.550	0.030	0.020
2020/01/31 11:29:09.9	300.740	-0.530	0.030	0.070
2020/01/31 11:29:10.0	300.750	-0.500	0.030	0.110
2020/01/31 11:29:10.1	300.750	-0.470	0.030	0.150
2020/01/31 11:29:10.2	300.750	-0.440	0.040	0.200
2020/01/31 11:29:10.3	300.750	-0.410	0.040	0.250
2020/01/31 11:29:10.4	300.750	-0.380	0.040	0.300
2020/01/31 11:29:10.5	300.750	-0.340	0.040	0.350
2020/01/31 11:29:10.6	300.750	-0.310	0.040	0.410
2020/01/31 11:29:10.7	300.750	-0.270	0.040	0.460
2020/01/31 11:29:10.8	300.740	-0.240	0.040	0.510
2020/01/31 11:29:10.9	300.740	-0.200	0.040	0.570
2020/01/31 11:29:11.0	300.730	-0.160	0.030	0.620
2020/01/31 11:29:11.1	300.730	-0.130	0.030	0.680
2020/01/31 11:29:11.2	300.720	-0.090	0.030	0.730
2020/01/31 11:29:11.3	300.720	-0.050	0.020	0.790
2020/01/31 11:29:11.4	300.710	-0.020	0.020	0.840
2020/01/31 11:29:11.5	300.710	0.020	0.010	0.900
2020/01/31 11:29:11.6	300.710	0.050	0.010	0.950
2020/01/31 11:29:11.7	300.700	0.090	0.000	1.000
2020/01/31 11:29:11.8	300.690	0.120	-0.000	1.050
2020/01/31 11:29:11.9	300.690	0.160	-0.010	1.100
2020/01/31 11:29:12.0	300.680	0.190	-0.010	1.150
2020/01/31 11:29:12.1	300.670	0.220	-0.020	1.190
2020/01/31 11:29:12.2	300.670	0.250	-0.030	1.230
2020/01/31 11:29:12.3	300.660	0.270	-0.040	1.270
2020/01/31 11:29:12.4	300.660	0.300	-0.050	1.310
2020/01/31 11:29:12.5	300.650	0.330	-0.060	1.340
2020/01/31 11:29:12.6	300.650	0.350	-0.070	1.370
2020/01/31 11:29:12.7	300.650	0.370	-0.080	1.390
2020/01/31 11:29:12.8	300.650	0.390	-0.100	1.410
2020/01/31 11:29:12.9	300.650	0.410	-0.110	1.430
2020/01/31 11:29:13.0	300.650	0.430	-0.130	1.450
2020/01/31 11:29:13.1	300.660	0.450	-0.150	1.460
2020/01/31 11:29:13.2	300.660	0.460	-0.170	1.460
2020/01/31 11:29:13.3	300.670	0.480	-0.190	1.460
2020/01/31 11:29:13.4	300.680	0.490	-0.210	1.460
2020/01/31 11:29:13.5	300.670	0.500	-0.230	1.460
2020/01/31 11:29:13.6	300.680	0.510	-0.260	1.450
2020/01/31 11:29:13.7	300.690	0.510	-0.280	1.430
2020/01/31 11:29:13.8	300.700	0.520	-0.310	1.420
2020/01/31 11:29:13.9	300.710	0.520	-0.330	1.400
2020/01/31 11:29:14.0	300.720	0.530	-0.360	1.380
2020/01/31 11:29:14.1	300.740	0.530	-0.390	1.350
2020/01/31 11:29:14.2	300.750	0.530	-0.410	1.320
2020/01/31 11:29:14.3	300.760	0.520	-0.440	1.290
2020/01/31 11:29:14.4	300.770	0.520	-0.460	1.260
2020/01/31 11:29:14.5	300.770	0.510	-0.490	1.220
2020/01/31 11:29:14.6	300.780	0.510	-0.520	1.180
2020/01/31 11:29:14.7	300.790	0.500	-0.540	1.140
2020/01/31 11:29:14.8	300.800	0.490	-0.560	1.100
2020/01/31 11:29:14.9	300.800	0.480	-0.580	1.060
2020/01/31 11:29:15.0	300.810	0.470	-0.600	1.020
2020/01/31 11:29:15.1	300.820	0.450	-0.610	0.970
2020/01/31 11:29:15.2	300.830	0.440	-0.620	0.930
2020/01/31 11:29:15.3	300.830	0.420	-0.630	0.890
2020/01/31 11:29:15.4	300.840	0.410	-0.640	0.840
2020/01/31 11:29:15.5	300.860	0.390	-0.640	0.800
2020/01/31 11:29:15.6	300.860	0.370	-0.640	0.760
2020/01/31 11:29:15.7	300.860	0.350	-0.640	0.720
2020/01/31 11:29:15.8	300.870	0.330	-0.630	0.690
2020/01/31 11:29:15.9	300.870	0.310	-0.620	0.650
2020/01/31 11:29:16.0	300.870	0.280	-0.610	0.620
2020/01/31 11:29:16.1	300.860	0.260	-0.600	0.590
2020/01/31 11:29:16.2	300.860	0.240	-0.580	0.560
2020/01/31 11:29:16.3	300.860	0.210	-0.560	0.530
2020/01/31 11:29:16.4	300.850	0.190	-0.540	0.510
2020/01/31 11:29:16.5	300.850	0.170	-0.520	0.490
2020/01/31 11:29:16.6	300.840	0.140	-0.500	0.470
2020/01/31 11:29:16.7	300.840	0.120	-0.470	0.450
2020/01/31 11:29:16.8	300.830	0.090	-0.440	0.440
2020/01/31 11:29:16.9	300.820	0.070	-0.410	0.420
2020/01/31 11:29:17.0	300.810	0.050	-0.380	0.410
2020/01/31 11:29:17.1	300.800	0.020	-0.350	0.400
2020/01/31 11:29:17.2	300.780	0.000	-0.320	0.400
2020/01/31 11:29:17.3	300.770	-0.020	-0.290	0.400
2020/01/31 11:29:17.4	300.760	-0.040	-0.260	0.390
2020/01/31 11:29:17.5	300.730	-0.060	-0.230	0.390
2020/01/31 11:29:17.6	300.720	-0.080	-0.200	0.390
2020/01/31 11:29:17.7	300.700	-0.090	-0.170	0.400
2020/01/31 11:29:17.8	300.690	-0.110	-0.140	0.400
2020/01/31 11:29:17.9	300.670	-0.120	-0.110	0.410
2020/01/31 11:29:18.0	300.660	-0.140	-0.090	0.420
2020/01/31 11:29:18.1	300.640	-0.150	-0.070	0.430
2020/01/31 11:29:18.2	300.630	-0.160	-0.050	0.440
2020/01/31 11:29:18.3	300.610	-0.170	-0.030	0.450
2020/01/31 11:29:18.4	300.590	-0.180	-0.010	0.470
2020/01/31 11:29:18.5	300.570	-0.180	0.000	0.480
2020/01/31 11:29:18.6	300.550	-0.190	0.020	0.500
2020/01/31 11:29:18.7	300.530	-0.190	0.030	0.520
2020/01/31 11:29:18.8	300.510	-0.200	0.030	0.540
2020/01/31 11:29:18.9	300.490	-0.200	0.040	0.550
2020/01/31 11:29:19.0	300.470	-0.200	0.040	0.570
2020/01/31 11:29:19.1	300.450	-0.200	0.050	0.590
2020/01/31 11:29:19.2	300.430	-0.200	0.050	0.610
2020/01/31 11:29:19.3	300.410	-0.200	0.040	0.630
2020/01/31 11:29:19.4	300.390	-0.200	0.040	0.650
2020/01/31 11:29:19.5	300.380	-0.190	0.030	0.660
2020/01/31 11:29:19.6	300.360	-0.190	0.030	0.680
2020/01/31 11:29:19.7	300.340	-0.190	0.020	0.690
2020/01/31 11:29:19.8	300.320	-0.180	0.010	0.710
2020/01/31 11:29:19.9	300.300	-0.180	-0.010	0.720
2020/01/31 11:29:20.0	300.280	-0.170	-0.020	0.740
2020/01/31 11:29:20.1	300.260	-0.170	-0.040	0.750
2020/01/31 11:29:20.2	300.240	-0.160	-0.050	0.760
2020/01/31 11:29:20.3	300.220	-0.160	-0.070	0.770
2020/01/31 11:29:20.4	300.210	-0.150	-0.090	0.780
2020/01/31 11:29:20.5	300.190	-0.150	-0.110	0.790
2020/01/31 11:29:20.6	300.180	-0.150	-0.120	0.790
2020/01/31 11:29:20.7	300.160	-0.140	-0.140	0.790
2020/01/31 11:29:20.8	300.150	-0.140	-0.160	0.790
2020/01/31 11:29:20.9	300.140	-0.140	-0.180	0.790
2020/01/31 11:29:21.0	300.130	-0.140	-0.190	0.790
2020/01/31 11:29:21.1	300.120	-0.130	-0.210	0.790
2020/01/31 11:29:21.2	300.110	-0.130	-0.230	0.780
2020/01/31 11:29:21.3	300.110	-0.130	-0.240	0.780
2020/01/31 11:29:21.4	300.100	-0.130	-0.250	0.770
2020/01/31 11:29:21.5	300.090	-0.130	-0.260	0.760
2020/01/31 11:29:21.6	300.090	-0.130	-0.270	0.750
2020/01/31 11:29:21.7	300.090	-0.140	-0.280	0.730
2020/01/31 11:29:21.8	300.090	-0.140	-0.290	0.720
2020/01/31 11:29:21.9	300.090	-0.140	-0.300	0.700
2020/01/31 11:29:22.0	300.090	-0.150	-0.300	0.690
2020/01/31 11:29:22.1	300.100	-0.150	-0.310	0.670
2020/01/31 11:29:22.2	300.100	-0.150	-0.310	0.650
2020/01/31 11:29:22.3	300.110	-0.160	-0.310	0.630
2020/01/31 11:29:22.4	300.120	-0.160	-0.310	0.610
2020/01/31 11:29:22.5	300.140	-0.170	-0.320	0.580
2020/01/31 11:29:22.6	300.150	-0.170	-0.320	0.560
2020/01/31 11:29:22.7	300.160	-0.180	-0.320	0.540
2020/01/31 11:29:22.8	300.180	-0.180	-0.310	0.510
2020/01/31 11:29:22.9	300.190	-0.190	-0.310	0.490
2020/01/31 11:29:23.0	300.210	-0.190	-0.310	0.460
2020/01/31 11:29:23.1	300.230	-0.200	-0.300	0.440
2020/01/31 11:29:23.2	300.250	-0.200	-0.300	0.410
2020/01/31 11:29:23.3	300.280	-0.200	-0.290	0.390
2020/01/31 11:29:23.4	300.300	-0.200	-0.290	0.360
2020/01/31 11:29:23.5	300.320	-0.200	-0.280	0.340
2020/01/31 11:29:23.6	300.350	-0.210	-0.270	0.320
2020/01/31 11:29:23.7	300.370	-0.200	-0.260	0.290
2020/01/31 11:29:23.8	300.400	-0.200	-0.260	0.270
2020/01/31 11:29:23.9	300.420	-0.200	-0.250	0.250
2020/01/31 11:29:24.0	300.450	-0.200	-0.240	0.240
2020/01/31 11:29:24.1	300.470	-0.190	-0.240	0.220
2020/01/31 11:29:24.2	300.500	-0.190	-0.230	0.210
2020/01/31 11:29:24.3	300.520	-0.180	-0.230	0.200
2020/01/31 11:29:24.4	300.540	-0.170	-0.220	0.190
2020/01/31 11:29:24.5	300.560	-0.160	-0.220	0.180
2020/01/31 11:29:24.6	300.580	-0.150	-0.210	0.180
2020/01/31 11:29:24.7	300.600	-0.140	-0.210	0.180
2020/01/31 11:29:24.8	300.610	-0.120	-0.200	0.190
2020/01/31 11:29:24.9	300.630	-0.110	-0.200	0.200
2020/01/31 11:29:25.0	300.640	-0.090	-0.200	0.210
2020/01/31 11:29:25.1	300.650	-0.080	-0.190	0.230
2020/01/31 11:29:25.2	300.660	-0.060	-0.190	0.250
2020/01/31 11:29:25.3	300.660	-0.050	-0.180	0.270
2020/01/31 11:29:25.4	300.670	-0.030	-0.180	0.300
2020/01/31 11:29:25.5	300.690	-0.010	-0.180	0.330
2020/01/31 11:29:25.6	300.690	0.010	-0.170	0.360
2020/01/31 11:29:25.7	300.690	0.020	-0.170	0.400
2020/01/31 11:29:25.8	300.680	0.040	-0.170	0.430
2020/01/31 11:29:25.9	300.680	0.060	-0.170	0.470
2020/01/31 11:29:26.0	300.670	0.080	-0.170	0.520
2020/01/31 11:29:26.1	300.660	0.090	-0.160	0.560
2020/01/31 11:29:26.2	300.650	0.110	-0.160	0.600
2020/01/31 11:29:26.3	300.640	0.120	-0.160	0.650
2020/01/31 11:29:26.4	300.630	0.130	-0.160	0.690
2020/01/31 11:29:26.5	300.600	0.150	-0.160	0.740
2020/01/31 11:29:26.6	300.590	0.160	-0.160	0.780
2020/01/31 11:29:26.7	300.570	0.170	-0.170	0.820
2020/01/31 11:29:26.8	300.560	0.180	-0.170	0.860
2020/01/31 11:29:26.9	300.540	0.190	-0.180	0.890
2020/01/31 11:29:27.0	300.530	0.190	-0.190	0.930
2020/01/31 11:29:27.1	300.510	0.200	-0.200	0.960
2020/01/31 11:29:27.2	300.490	0.200	-0.210	0.990
2020/01/31 11:29:27.3	300.480	0.200	-0.220	1.010
2020/01/31 11:29:27.4	300.460	0.210	-0.230	1.040
2020/01/31 11:29:27.5	300.450	0.210	-0.250	1.050
2020/01/31 11:29:27.6	300.430	0.210	-0.270	1.070
2020/01/31 11:29:27.7	300.420	0.210	-0.280	1.080
2020/01/31 11:29:27.8	300.400	0.200	-0.300	1.090
2020/01/31 11:29:27.9	300.390	0.200	-0.330	1.100
2020/01/31 11:29:28.0	300.380	0.200	-0.350	1.100
2020/01/31 11:29:28.1	300.360	0.190	-0.370	1.100
2020/01/31 11:29:28.2	300.350	0.190	-0.390	1.090
2020/01/31 11:29:28.3	300.340	0.180	-0.420	1.090
2020/01/31 11:29:28.4	300.330	0.180	-0.440	1.080
2020/01/31 11:29:28.5	300.330	0.170	-0.470	1.070
2020/01/31 11:29:28.6	300.320	0.160	-0.500	1.060
2020/01/31 11:29:28.7	300.320	0.160	-0.520	1.040
2020/01/31 11:29:28.8	300.310	0.150	-0.550	1.020
2020/01/31 11:29:28.9	300.310	0.140	-0.570	1.000
2020/01/31 11:29:29.0	300.300	0.130	-0.590	0.980
2020/01/31 11:29:29.1	300.300	0.130	-0.620	0.960
2020/01/31 11:29:29.2	300.300	0.120	-0.640	0.940
2020/01/31 11:29:29.3	300.300	0.110	-0.660	0.910
2020/01/31 11:29:29.4	300.300	0.100	-0.670	0.880
2020/01/31 11:29:29.5	300.300	0.090	-0.690	0.860
2020/01/31 11:29:29.6	300.310	0.090	-0.700	0.830
2020/01/31 11:29:29.7	300.310	0.080	-0.710	0.800
2020/01/31 11:29:29.8	300.320	0.070	-0.720	0.770
2020/01/31 11:29:29.9	300.330	0.060	-0.720	0.740
2020/01/31 11:29:30.0	300.330	0.050	-0.730	0.700
2020/01/31 11:29:30.1	300.340	0.050	-0.730	0.670
2020/01/31 11:29:30.2	300.350	0.040	-0.720	0.640
2020/01/31 11:29:30.3	300.360	0.030	-0.720	0.610
2020/01/31 11:29:30.4	300.370	0.020	-0.710	0.570
2020/01/31 11:29:30.5	300.390	0.010	-0.700	0.540
2020/01/31 11:29:30.6	300.400	0.010	-0.690	0.510
2020/01/31 11:29:30.7	300.410	-0.000	-0.670	0.480
2020/01/31 11:29:30.8	300.420	-0.010	-0.650	0.450
2020/01/31 11:29:30.9	300.440	-0.020	-0.620	0.430
2020/01/31 11:29:31.0	300.450	-0.030	-0.600	0.400
2020/01/31 11:29:31.1	300.460	-0.040	-0.570	0.370
2020/01/31 11:29:31.2	300.470	-0.040	-0.540	0.350
2020/01/31 11:29:31.3	300.480	-0.050	-0.500	0.330
2020/01/31 11:29:31.4	300.490	-0.060	-0.470	0.310
2020/01/31 11:29:31.5	300.520	-0.070	-0.420	0.290
2020/01/31 11:29:31.6	300.530	-0.070	-0.380	0.280
2020/01/31 11:29:31.7	300.540	-0.080	-0.340	0.260
2020/01/31 11:29:31.8	300.550	-0.080	-0.300	0.250
2020/01/31 11:29:31.9	300.560	-0.090	-0.260	0.240
2020/01/31 11:29:32.0	300.570	-0.090	-0.210	0.230
2020/01/31 11:29:32.1	300.570	-0.100	-0.170	0.220
2020/01/31 11:29:32.2	300.580	-0.100	-0.120	0.220
2020/01/31 11:29:32.3	300.590	-0.100	-0.080	0.220
2020/01/31 11:29:32.4	300.600	-0.100	-0.030	0.220
2020/01/31 11:29:32.5	300.600	-0.100	0.010	0.220
2020/01/31 11:29:32.6	300.610	-0.100	0.050	0.220
2020/01/31 11:29:32.7	300.610	-0.100	0.100	0.230
2020/01/31 11:29:32.8	300.620	-0.100	0.140	0.240
2020/01/31 11:29:32.9	300.620	-0.100	0.180	0.250
2020/01/31 11:29:33.0	300.630	-0.090	0.220	0.260
2020/01/31 11:29:33.1	300.630	-0.090	0.260	0.270
2020/01/31 11:29:33.2	300.630	-0.080	0.290	0.290
2020/01/31 11:29:33.3	300.640	-0.070	0.320	0.310
2020/01/31 11:29:33.4	300.640	-0.070	0.350	0.330
2020/01/31 11:29:33.5	300.630	-0.060	0.380	0.350
2020/01/31 11:29:33.6	300.630	-0.050	0.400	0.370
2020/01/31 11:29:33.7	300.630	-0.050	0.420	0.400
2020/01/31 11:29:33.8	300.630	-0.040	0.440	0.430
2020/01/31 11:29:33.9	300.630	-0.030	0.450	0.450
2020/01/31 11:29:34.0	300.620	-0.020	0.460	0.480
2020/01/31 11:29:34.1	300.620	-0.010	0.470	0.510
2020/01/31 11:29:34.2	300.610	-0.000	0.470	0.540
2020/01/31 11:29:34.3	300.600	0.000	0.480	0.580
2020/01/31 11:29:34.4	300.590	0.010	0.480	0.610
2020/01/31 11:29:34.5	300.580	0.020	0.470	0.640
2020/01/31 11:29:34.6	300.570	0.030	0.460	0.670
2020/01/31 11:29:34.7	300.560	0.030	0.450	0.700
2020/01/31 11:29:34.8	300.550	0.040	0.440	0.730
2020/01/31 11:29:34.9	300.530	0.040	0.430	0.760
2020/01/31 11:29:35.0	300.520	0.050	0.410	0.790
2020/01/31 11:29:35.1	300.510	0.050	0.400	0.810
2020/01/31 11:29:35.2	300.490	0.050	0.380	0.840
2020/01/31 11:29:35.3	300.480	0.050	0.350	0.860
2020/01/31 11:29:35.4	300.460	0.050	0.330	0.890
2020/01/31 11:29:35.5	300.430	0.050	0.310	0.910
2020/01/31 11:29:35.6	300.420	0.050	0.280	0.930
2020/01/31 11:29:35.7	300.400	0.050	0.260	0.940
2020/01/31 11:29:35.8	300.390	0.050	0.230	0.960
2020/01/31 11:29:35.9	300.370	0.040	0.200	0.970
2020/01/31 11:29:36.0	300.350	0.040	0.170	0.980
2020/01/31 11:29:36.1	300.340	0.030	0.140	0.990
2020/01/31 11:29:36.2	300.320	0.030	0.110	1.000
2020/01/31 11:29:36.3	300.310	0.020	0.080	1.000
2020/01/31 11:29:36.4	300.290	0.010	0.040	1.000
2020/01/31 11:29:36.5	300.270	0.000	0.010	1.000
2020/01/31 11:29:36.6	300.250	-0.000	-0.030	1.000
2020/01/31 11:29:36.7	300.240	-0.010	-0.060	0.990
2020/01/31 11:29:36.8	300.220	-0.020	-0.100	0.980
2020/01/31 11:29:36.9	300.210	-0.030	-0.140	0.970
2020/01/31 11:29:37.0	300.200	-0.040	-0.170	0.960
2020/01/31 11:29:37.1	300.190	-0.050	-0.210	0.940
2020/01/31 11:29:37.2	300.180	-0.060	-0.250	0.920
2020/01/31 11:29:37.3	300.180	-0.060	-0.290	0.890
2020/01/31 11:29:37.4	300.170	-0.070	-0.330	0.870
2020/01/31 11:29:37.5	300.190	-0.080	-0.370	0.840
2020/01/31 11:29:37.6	300.180	-0.090	-0.420	0.810
2020/01/31 11:29:37.7	300.180	-0.090	-0.460	0.780
2020/01/31 11:29:37.8	300.180	-0.100	-0.500	0.740
2020/01/31 11:29:37.9	300.180	-0.100	-0.540	0.710
2020/01/31 11:29:38.0	300.180	-0.110	-0.580	0.670
2020/01/31 11:29:38.1	300.190	-0.110	-0.620	0.630
2020/01/31 11:29:38.2	300.190	-0.110	-0.660	0.590
2020/01/31 11:29:38.3	300.200	-0.110	-0.700	0.560
2020/01/31 11:29:38.4	300.200	-0.120	-0.740	0.520
2020/01/31 11:29:38.5	300.210	-0.120	-0.780	0.480
2020/01/31 11:29:38.6	300.220	-0.120	-0.810	0.440
2020/01/31 11:29:38.7	300.230	-0.110	-0.840	0.400
2020/01/31 11:29:38.8	300.240	-0.110	-0.870	0.360
2020/01/31 11:29:38.9	300.250	-0.110	-0.900	0.320
2020/01/31 11:29:39.0	300.270	-0.110	-0.930	0.280
2020/01/31 11:29:39.1	300.280	-0.110	-0.950	0.240
2020/01/31 11:29:39.2	300.300	-0.100	-0.970	0.200
2020/01/31 11:29:39.3	300.320	-0.100	-0.990	0.170
2020/01/31 11:29:39.4	300.340	-0.100	-1.000	0.130
2020/01/31 11:29:39.5	300.350	-0.090	-1.020	0.100
2020/01/31 11:29:39.6	300.380	-0.090	-1.020	0.060
2020/01/31 11:29:39.7	300.400	-0.090	-1.030	0.030
2020/01/31 11:29:39.8	300.420	-0.080	-1.030	0.010
2020/01/31 11:29:39.9	300.440	-0.080	-1.030	-0.020
2020/01/31 11:29:40.0	300.460	-0.080	-1.030	-0.040
2020/01/31 11:29:40.1	300.480	-0.070	-1.020	-0.060
2020/01/31 11:29:40.2	300.500	-0.070	-1.000	-0.070
2020/01/31 11:29:40.3	300.520	-0.070	-0.990	-0.080
2020/01/31 11:29:40.4	300.540	-0.070	-0.970	-0.090
2020/01/31 11:29:40.5	300.550	-0.060	-0.950	-0.090
2020/01/31 11:29:40.6	300.570	-0.060	-0.930	-0.090
2020/01/31 11:29:40.7	300.580	-0.060	-0.900	-0.090
2020/01/31 11:29:40.8	300.590	-0.060	-0.870	-0.080
2020/01/31 11:29:40.9	300.610	-0.050	-0.830	-0.070
2020/01/31 11:29:41.0	300.620	-0.050	-0.800	-0.050
2020/01/31 11:29:41.1	300.630	-0.050	-0.760	-0.020
2020/01/31 11:29:41.2	300.630	-0.050	-0.720	0.000
2020/01/31 11:29:41.3	300.640	-0.040	-0.680	0.030
2020/01/31 11:29:41.4	300.640	-0.040	-0.640	0.070
2020/01/31 11:29:41.5	300.640	-0.040	-0.600	0.100
2020/01/31 11:29:41.6	300.640	-0.040	-0.560	0.140
2020/01/31 11:29:41.7	300.640	-0.030	-0.510	0.180
2020/01/31 11:29:41.8	300.640	-0.030	-0.470	0.230
2020/01/31 11:29:41.9	300.630	-0.020	-0.430	0.270
2020/01/31 11:29:42.0	300.630	-0.020	-0.380	0.320
2020/01/31 11:29:42.1	300.620	-0.010	-0.340	0.360
2020/01/31 11:29:42.2	300.610	-0.010	-0.300	0.410
2020/01/31 11:29:42.3	300.600	-0.000	-0.260	0.460
2020/01/31 11:29:42.4	300.590	0.010	-0.230	0.500
2020/01/31 11:29:42.5	300.570	0.010	-0.190	0.550
2020/01/31 11:29:42.6	300.550	0.020	-0.160	0.600
2020/01/31 11:29:42.7	300.540	0.030	-0.130	0.640
2020/01/31 11:29:42.8	300.530	0.040	-0.110	0.690
2020/01/31 11:29:42.9	300.510	0.050	-0.080	0.730
2020/01/31 11:29:43.0	300.500	0.060	-0.060	0.780
2020/01/31 11:29:43.1	300.480	0.070	-0.050	0.820
2020/01/31 11:29:43.2	300.470	0.080	-0.040	0.860
2020/01/31 11:29:43.3	300.450	0.090	-0.030	0.900
2020/01/31 11:29:43.4	300.440	0.100	-0.020	0.940
2020/01/31 11:29:43.5	300.440	0.110	-0.020	0.970
2020/01/31 11:29:43.6	300.430	0.130	-0.020	1.000
2020/01/31 11:29:43.7	300.420	0.140	-0.020	1.030
2020/01/31 11:29:43.8	300.400	0.150	-0.030	1.060
2020/01/31 11:29:43.9	300.390	0.160	-0.030	1.080
2020/01/31 11:29:44.0	300.390	0.170	-0.040	1.100
2020/01/31 11:29:44.1	300.380	0.180	-0.050	1.120
2020/01/31 11:29:44.2	300.370	0.190	-0.060	1.130
2020/01/31 11:29:44.3	300.370	0.200	-0.070	1.140
2020/01/31 11:29:44.4	300.360	0.210	-0.090	1.150
2020/01/31 11:29:44.5	300.360	0.210	-0.100	1.160
2020/01/31 11:29:44.6	300.360	0.220	-0.110	1.160
2020/01/31 11:29:44.7	300.360	0.220	-0.120	1.160
2020/01/31 11:29:44.8	300.360	0.220	-0.120	1.160
2020/01/31 11:29:44.9	300.360	0.220	-0.130	1.150
2020/01/31 11:29:45.0	300.360	0.220	-0.130	1.150
2020/01/31 11:29:45.1	300.370	0.220	-0.130	1.140
2020/01/31 11:29:45.2	300.370	0.220	-0.130	1.140
2020/01/31 11:29:45.3	300.370	0.210	-0.120	1.130
2020/01/31 11:29:45.4	300.370	0.200	-0.110	1.120
2020/01/31 11:29:45.5	300.380	0.190	-0.100	1.120
2020/01/31 11:29:45.6	300.380	0.180	-0.090	1.110
2020/01/31 11:29:45.7	300.380	0.170	-0.070	1.110
2020/01/31 11:29:45.8	300.380	0.150	-0.050	1.100
2020/01/31 11:29:45.9	300.380	0.130	-0.020	1.100
2020/01/31 11:29:46.0	300.380	0.110	0.010	1.090
2020/01/31 11:29:46.1	300.380	0.090	0.040	1.090
2020/01/31 11:29:46.2	300.380	0.070	0.070	1.090
2020/01/31 11:29:46.3	300.380	0.050	0.100	1.080
2020/01/31 11:29:46.4	300.380	0.030	0.130	1.080
2020/01/31 11:29:46.5	300.380	0.000	0.170	1.080
2020/01/31 11:29:46.6	300.380	-0.020	0.200	1.070
2020/01/31 11:29:46.7	300.370	-0.050	0.240	1.070
2020/01/31 11:29:46.8	300.370	-0.070	0.270	1.070
2020/01/31 11:29:46.9	300.360	-0.100	0.310	1.060
2020/01/31 11:29:47.0	300.360	-0.120	0.340	1.060
2020/01/31 11:29:47.1	300.350	-0.140	0.370	1.050
2020/01/31 11:29:47.2	300.340	-0.170	0.390	1.040
2020/01/31 11:29:47.3	300.330	-0.190	0.420	1.040
2020/01/31 11:29:47.4	300.320	-0.210	0.440	1.030
2020/01/31 11:29:47.5	300.320	-0.230	0.460	1.020
2020/01/31 11:29:47.6	300.310	-0.250	0.480	1.010
2020/01/31 11:29:47.7	300.300	-0.260	0.490	1.000
2020/01/31 11:29:47.8	300.280	-0.280	0.500	0.980
2020/01/31 11:29:47.9	300.270	-0.290	0.510	0.970
2020/01/31 11:29:48.0	300.260	-0.300	0.520	0.960
2020/01/31 11:29:48.1	300.250	-0.300	0.520	0.940
2020/01/31 11:29:48.2	300.230	-0.310	0.520	0.930
2020/01/31 11:29:48.3	300.220	-0.310	0.520	0.910
2020/01/31 11:29:48.4	300.210	-0.310	0.510	0.890
2020/01/31 11:29:48.5	300.190	-0.300	0.500	0.880
2020/01/31 11:29:48.6	300.180	-0.300	0.480	0.860
2020/01/31 11:29:48.7	300.170	-0.290	0.470	0.840
2020/01/31 11:29:48.8	300.160	-0.280	0.440	0.820
2020/01/31 11:29:48.9	300.150	-0.270	0.420	0.800
2020/01/31 11:29:49.0	300.140	-0.250	0.390	0.770
2020/01/31 11:29:49.1	300.140	-0.230	0.360	0.750
2020/01/31 11:29:49.2	300.130	-0.210	0.330	0.720
2020/01/31 11:29:49.3	300.130	-0.190	0.290	0.690
2020/01/31 11:29:49.4	300.120	-0.160	0.250	0.660
2020/01/31 11:29:49.5	300.130	-0.140	0.210	0.630
2020/01/31 11:29:49.6	300.130	-0.110	0.160	0.600
2020/01/31 11:29:49.7	300.140	-0.080	0.110	0.570
2020/01/31 11:29:49.8	300.140	-0.050	0.060	0.540
2020/01/31 11:29:49.9	300.150	-0.020	0.010	0.500
2020/01/31 11:29:50.0	300.150	0.010	-0.040	0.470
2020/01/31 11:29:50.1	300.160	0.040	-0.100	0.440
2020/01/31 11:29:50.2	300.170	0.070	-0.160	0.400
2020/01/31 11:29:50.3	300.180	0.100	-0.220	0.370
2020/01/31 11:29:50.4	300.180	0.130	-0.280	0.340
2020/01/31 11:29:50.5	300.190	0.160	-0.340	0.300
2020/01/31 11:29:50.6	300.200	0.180	-0.400	0.270
2020/01/31 11:29:50.7	300.210	0.210	-0.460	0.240
2020/01/31 11:29:50.8	300.210	0.230	-0.510	0.210
2020/01/31 11:29:50.9	300.220	0.260	-0.570	0.180
2020/01/31 11:29:51.0	300.230	0.280	-0.630	0.150
2020/01/31 11:29:51.1	300.240	0.290	-0.680	0.130
2020/01/31 11:29:51.2	300.240	0.310	-0.740	0.110
2020/01/31 11:29:51.3	300.250	0.320	-0.790	0.080
2020/01/31 11:29:51.4	300.250	0.330	-0.840	0.060
2020/01/31 11:29:51.5	300.250	0.340	-0.880	0.040
2020/01/31 11:29:51.6	300.250	0.340	-0.930	0.030
2020/01/31 11:29:51.7	300.250	0.350	-0.970	0.010
2020/01/31 11:29:51.8	300.250	0.340	-1.010	-0.000
2020/01/31 11:29:51.9	300.260	0.340	-1.040	-0.010
2020/01/31 11:29:52.0	300.260	0.330	-1.070	-0.020
2020/01/31 11:29:52.1	300.260	0.320	-1.100	-0.030
2020/01/31 11:29:52.2	300.250	0.310	-1.120	-0.040
2020/01/31 11:29:52.3	300.250	0.300	-1.150	-0.040
2020/01/31 11:29:52.4	300.250	0.280	-1.160	-0.040
2020/01/31 11:29:52.5	300.240	0.270	-1.180	-0.040
2020/01/31 11:29:52.6	300.240	0.250	-1.190	-0.030
2020/01/31 11:29:52.7	300.240	0.230	-1.190	-0.020
2020/01/31 11:29:52.8	300.230	0.200	-1.200	-0.010
2020/01/31 11:29:52.9	300.230	0.180	-1.200	-0.000
2020/01/31 11:29:53.0	300.230	0.150	-1.200	0.010
2020/01/31 11:29:53.1	300.220	0.130	-1.190	0.030
2020/01/31 11:29:53.2	300.220	0.100	-1.180	0.050
2020/01/31 11:29:53.3	300.220	0.080	-1.170	0.070
2020/01/31 11:29:53.4	300.220	0.050	-1.150	0.090
2020/01/31 11:29:53.5	300.220	0.020	-1.140	0.110
2020/01/31 11:29:53.6	300.220	-0.000	-1.120	0.140
2020/01/31 11:29:53.7	300.220	-0.030	-1.100	0.160
2020/01/31 11:29:53.8	300.220	-0.050	-1.070	0.190
2020/01/31 11:29:53.9	300.220	-0.080	-1.050	0.210
2020/01/31 11:29:54.0	300.220	-0.100	-1.020	0.240
2020/01/31 11:29:54.1	300.230	-0.120	-0.990	0.270
2020/01/31 11:29:54.2	300.230	-0.150	-0.960	0.300
2020/01/31 11:29:54.3	300.230	-0.170	-0.930	0.330
2020/01/31 11:29:54.4	300.240	-0.190	-0.890	0.360
2020/01/31 11:29:54.5	300.240	-0.210	-0.860	0.390
2020/01/31 11:29:54.6	300.240	-0.220	-0.820	0.420
2020/01/31 11:29:54.7	300.250	-0.240	-0.780	0.450
2020/01/31 11:29:54.8	300.250	-0.250	-0.740	0.490
2020/01/31 11:29:54.9	300.250	-0.270	-0.700	0.520
2020/01/31 11:29:55.0	300.250	-0.280	-0.660	0.550
2020/01/31 11:29:55.1	300.250	-0.290	-0.620	0.590
2020/01/31 11:29:55.2	300.250	-0.300	-0.580	0.620
2020/01/31 11:29:55.3	300.260	-0.310	-0.540	0.650
2020/01/31 11:29:55.4	300.260	-0.320	-0.500	0.680
2020/01/31 11:29:55.5	300.280	-0.330	-0.460	0.720
2020/01/31 11:29:55.6	300.280	-0.330	-0.420	0.750
2020/01/31 11:29:55.7	300.280	-0.340	-0.380	0.780
2020/01/31 11:29:55.8	300.280	-0.340	-0.340	0.810
2020/01/31 11:29:55.9	300.280	-0.350	-0.300	0.840
2020/01/31 11:29:56.0	300.280	-0.350	-0.260	0.860
2020/01/31 11:29:56.1	300.280	-0.350	-0.220	0.890
2020/01/31 11:29:56.2	300.280	-0.350	-0.190	0.910
2020/01/31 11:29:56.3	300.290	-0.350	-0.150	0.930
2020/01/31 11:29:56.4	300.290	-0.350	-0.120	0.950
2020/01/31 11:29:56.5	300.290	-0.350	-0.090	0.970
2020/01/31 11:29:56.6	300.300	-0.340	-0.060	0.990
2020/01/31 11:29:56.7	300.300	-0.340	-0.030	1.010
2020/01/31 11:29:56.8	300.300	-0.330	-0.010	1.020
2020/01/31 11:29:56.9	300.310	-0.330	0.020	1.030
2020/01/31 11:29:57.0	300.320	-0.320	0.040	1.040
2020/01/31 11:29:57.1	300.320	-0.310	0.060	1.050
2020/01/31 11:29:57.2	300.330	-0.300	0.080	1.060
2020/01/31 11:29:57.3	300.340	-0.290	0.100	1.070
2020/01/31 11:29:57.4	300.340	-0.280	0.120	1.080
2020/01/31 11:29:57.5	300.360	-0.270	0.140	1.080
2020/01/31 11:29:57.6	300.370	-0.260	0.150	1.090
2020/01/31 11:29:57.7	300.370	-0.250	0.170	1.090
2020/01/31 11:29:57.8	300.380	-0.240	0.180	1.100
2020/01/31 11:29:57.9	300.380	-0.220	0.200	1.100
2020/01/31 11:29:58.0	300.390	-0.210	0.210	1.100
2020/01/31 11:29:58.1	300.390	-0.200	0.230	1.100
2020/01/31 11:29:58.2	300.400	-0.180	0.240	1.100
2020/01/31 11:29:58.3	300.400	-0.170	0.260	1.090
2020/01/31 11:29:58.4	300.400	-0.150	0.270	1.090
2020/01/31 11:29:58.5	300.390	-0.130	0.290	1.090
2020/01/31 11:29:58.6	300.390	-0.120	0.300	1.080
2020/01/31 11:29:58.7	300.390	-0.100	0.320	1.080
2020/01/31 11:29:58.8	300.390	-0.080	0.330	1.070
2020/01/31 11:29:58.9	300.390	-0.070	0.350	1.060
2020/01/31 11:29:59.0	300.390	-0.050	0.370	1.050
2020/01/31 11:29:59.1	300.390	-0.030	0.380	1.050
2020/01/31 11:29:59.2	300.380	-0.010	0.400	1.040
2020/01/31 11:29:59.3	300.380	0.010	0.410	1.020
2020/01/31 11:29:59.4	300.370	0.020	0.420	1.010
2020/01/31 11:29:59.5	300.370	0.040	0.440	1.000
2020/01/31 11:29:59.6	300.360	0.060	0.450	0.990
2020/01/31 11:29:59.7	300.350	0.080	0.460	0.970
2020/01/31 11:29:59.8	300.340	0.090	0.470	0.950
2020/01/31 11:29:59.9	300.330	0.110	0.480	0.940
2020/01/31 11:30:00.0	300.310	0.130	0.490	0.920
2020/01/31 11:30:00.1	300.300	0.140	0.490	0.900
2020/01/31 11:30:00.2	300.280	0.160	0.500	0.880
2020/01/31 11:30:00.3	300.270	0.170	0.500	0.850
2020/01/31 11:30:00.4	300.250	0.190	0.500	0.830
2020/01/31 11:30:00.5	300.230	0.200	0.500	0.800
2020/01/31 11:30:00.6	300.210	0.220	0.500	0.780
2020/01/31 11:30:00.7	300.190	0.230	0.500	0.750
2020/01/31 11:30:00.8	300.170	0.240	0.490	0.720
2020/01/31 11:30:00.9	300.150	0.250	0.480	0.690
2020/01/31 11:30:01.0	300.130	0.260	0.470	0.670
2020/01/31 11:30:01.1	300.100	0.270	0.460	0.640
2020/01/31 11:30:01.2	300.080	0.280	0.450	0.600
2020/01/31 11:30:01.3	300.060	0.290	0.440	0.570
2020/01/31 11:30:01.4	300.040	0.290	0.420	0.540
2020/01/31 11:30:01.5	300.020	0.300	0.400	0.510
2020/01/31 11:30:01.6	300.000	0.300	0.380	0.480
2020/01/31 11:30:01.7	299.980	0.310	0.350	0.450
2020/01/31 11:30:01.8	299.960	0.310	0.330	0.420
2020/01/31 11:30:01.9	299.950	0.310	0.300	0.390
2020/01/31 11:30:02.0	299.930	0.320	0.270	0.360
2020/01/31 11:30:02.1	299.920	0.320	0.240	0.330
2020/01/31 11:30:02.2	299.910	0.320	0.200	0.310
2020/01/31 11:30:02.3	299.900	0.320	0.170	0.280
2020/01/31 11:30:02.4	299.890	0.320	0.130	0.250
2020/01/31 11:30:02.5	299.870	0.320	0.090	0.220
2020/01/31 11:30:02.6	299.860	0.320	0.050	0.200
2020/01/31 11:30:02.7	299.860	0.320	0.000	0.170
2020/01/31 11:30:02.8	299.850	0.310	-0.040	0.150
2020/01/31 11:30:02.9	299.850	0.310	-0.090	0.130
2020/01/31 11:30:03.0	299.850	0.310	-0.140	0.110
2020/01/31 11:30:03.1	299.850	0.300	-0.180	0.090
2020/01/31 11:30:03.2	299.860	0.300	-0.230	0.070
2020/01/31 11:30:03.3	299.860	0.300	-0.280	0.050
2020/01/31 11:30:03.4	299.870	0.290	-0.330	0.040
2020/01/31 11:30:03.5	299.870	0.290	-0.390	0.020
2020/01/31 11:30:03.6	299.880	0.280	-0.440	0.010
2020/01/31 11:30:03.7	299.890	0.280	-0.490	-0.000
2020/01/31 11:30:03.8	299.900	0.270	-0.540	-0.010
2020/01/31 11:30:03.9	299.920	0.260	-0.600	-0.020
2020/01/31 11:30:04.0	299.930	0.260	-0.650	-0.030
2020/01/31 11:30:04.1	299.950	0.250	-0.700	-0.040
2020/01/31 11:30:04.2	299.970	0.240	-0.750	-0.050
2020/01/31 11:30:04.3	299.990	0.240	-0.800	-0.050
2020/01/31 11:30:04.4	300.010	0.230	-0.850	-0.060
2020/01/31 11:30:04.5	300.040	0.220	-0.890	-0.060
2020/01/31 11:30:04.6	300.070	0.210	-0.940	-0.070
2020/01/31 11:30:04.7	300.090	0.200	-0.980	-0.070
2020/01/31 11:30:04.8	300.120	0.190	-1.020	-0.070
2020/01/31 11:30:04.9	300.150	0.180	-1.060	-0.070
2020/01/31 11:30:05.0	300.180	0.170	-1.100	-0.080
2020/01/31 11:30:05.1	300.210	0.150	-1.130	-0.080
2020/01/31 11:30:05.2	300.240	0.140	-1.170	-0.080
2020/01/31 11:30:05.3	300.270	0.130	-1.190	-0.070
2020/01/31 11:30:05.4	300.300	0.110	-1.220	-0.070
2020/01/31 11:30:05.5	300.340	0.100	-1.240	-0.060
2020/01/31 11:30:05.6	300.370	0.080	-1.260	-0.060
2020/01/31 11:30:05.7	300.400	0.060	-1.280	-0.050
2020/01/31 11:30:05.8	300.430	0.050	-1.300	-0.050
2020/01/31 11:30:05.9	300.460	0.030	-1.310	-0.040
2020/01/31 11:30:06.0	300.490	0.010	-1.310	-0.020
2020/01/31 11:30:06.1	300.520	-0.010	-1.320	-0.010
2020/01/31 11:30:06.2	300.540	-0.030	-1.320	0.000
2020/01/31 11:30:06.3	300.570	-0.050	-1.310	0.020
2020/01/31 11:30:06.4	300.590	-0.070	-1.310	0.040
2020/01/31 11:30:06.5	300.600	-0.090	-1.300	0.070
2020/01/31 11:30:06.6	300.630	-0.110	-1.280	0.090
2020/01/31 11:30:06.7	300.650	-0.130	-1.270	0.120
2020/01/31 11:30:06.8	300.660	-0.160	-1.250	0.150
2020/01/31 11:30:06.9	300.680	-0.180	-1.220	0.180
2020/01/31 11:30:07.0	300.700	-0.200	-1.200	0.210
2020/01/31 11:30:07.1	300.710	-0.220	-1.170	0.250
2020/01/31 11:30:07.2	300.720	-0.250	-1.140	0.280
2020/01/31 11:30:07.3	300.730	-0.270	-1.100	0.320
2020/01/31 11:30:07.4	300.740	-0.290	-1.060	0.360
2020/01/31 11:30:07.5	300.730	-0.310	-1.020	0.390
2020/01/31 11:30:07.6	300.740	-0.330	-0.980	0.430
2020/01/31 11:30:07.7	300.740	-0.350	-0.940	0.470
2020/01/31 11:30:07.8	300.740	-0.370	-0.890	0.500
2020/01/31 11:30:07.9	300.740	-0.390	-0.850	0.540
2020/01/31 11:30:08.0	300.740	-0.400	-0.800	0.570
2020/01/31 11:30:08.1	300.740	-0.420	-0.750	0.610
2020/01/31 11:30:08.2	300.740	-0.440	-0.690	0.640
2020/01/31 11:30:08.3	300.730	-0.450	-0.640	0.680
2020/01/31 11:30:08.4	300.720	-0.460	-0.590	0.710
2020/01/31 11:30:08.5	300.730	-0.470	-0.530	0.740
2020/01/31 11:30:08.6	300.720	-0.480	-0.480	0.770
2020/01/31 11:30:08.7	300.710	-0.490	-0.420	0.810
2020/01/31 11:30:08.8	300.690	-0.500	-0.370	0.840
2020/01/31 11:30:08.9	300.680	-0.500	-0.310	0.870
2020/01/31 11:30:09.0	300.670	-0.510	-0.250	0.900
2020/01/31 11:30:09.1	300.650	-0.510	-0.200	0.920
2020/01/31 11:30:09.2	300.630	-0.510	-0.140	0.950
2020/01/31 11:30:09.3	300.610	-0.510	-0.090	0.980
2020/01/31 11:30:09.4	300.600	-0.510	-0.030	1.000
2020/01/31 11:30:09.5	300.580	-0.510	0.020	1.030
2020/01/31 11:30:09.6	300.560	-0.500	0.070	1.050
2020/01/31 11:30:09.7	300.540	-0.490	0.130	1.070
2020/01/31 11:30:09.8	300.510	-0.490	0.180	1.090
2020/01/31 11:30:09.9	300.490	-0.480	0.220	1.100
2020/01/31 11:30:10.0	300.470	-0.460	0.270	1.120
2020/01/31 11:30:10.1	300.450	-0.450	0.320	1.130
2020/01/31 11:30:10.2	300.430	-0.440	0.360	1.140
2020/01/31 11:30:10.3	300.400	-0.420	0.400	1.150
2020/01/31 11:30:10.4	300.380	-0.410	0.440	1.150
2020/01/31 11:30:10.5	300.360	-0.390	0.480	1.150
2020/01/31 11:30:10.6	300.340	-0.370	0.510	1.160
2020/01/31 11:30:10.7	300.320	-0.350	0.540	1.160
2020/01/31 11:30:10.8	300.300	-0.330	0.570	1.150
2020/01/31 11:30:10.9	300.280	-0.310	0.600	1.150
2020/01/31 11:30:11.0	300.260	-0.290	0.620	1.150
2020/01/31 11:30:11.1	300.250	-0.260	0.650	1.140
2020/01/31 11:30:11.2	300.230	-0.240	0.670	1.130
2020/01/31 11:30:11.3	300.220	-0.210	0.680	1.120
2020/01/31 11:30:11.4	300.210	-0.190	0.700	1.110
2020/01/31 11:30:11.5	300.210	-0.160	0.710	1.100
2020/01/31 11:30:11.6	300.190	-0.140	0.720	1.090
2020/01/31 11:30:11.7	300.180	-0.110	0.720	1.080
2020/01/31 11:30:11.8	300.180	-0.090	0.730	1.070
2020/01/31 11:30:11.9	300.170	-0.060	0.730	1.050
2020/01/31 11:30:12.0	300.160	-0.030	0.730	1.040
2020/01/31 11:30:12.1	300.160	-0.010	0.720	1.020
2020/01/31 11:30:12.2	300.150	0.020	0.720	1.010
2020/01/31 11:30:12.3	300.150	0.050	0.710	0.990
2020/01/31 11:30:12.4	300.150	0.070	0.700	0.970
2020/01/31 11:30:12.5	300.140	0.100	0.680	0.960
2020/01/31 11:30:12.6	300.140	0.120	0.670	0.940
2020/01/31 11:30:12.7	300.140	0.150	0.650	0.930
2020/01/31 11:30:12.8	300.140	0.170	0.630	0.920
2020/01/31 11:30:12.9	300.140	0.200	0.600	0.900
2020/01/31 11:30:13.0	300.140	0.220	0.580	0.890
2020/01/31 11:30:13.1	300.140	0.250	0.550	0.880
2020/01/31 11:30:13.2	300.140	0.270	0.520	0.870
2020/01/31 11:30:13.3	300.140	0.290	0.480	0.860
2020/01/31 11:30:13.4	300.140	0.310	0.450	0.850
2020/01/31 11:30:13.5	300.150	0.340	0.410	0.830
2020/01/31 11:30:13.6	300.150	0.360	0.370	0.820
2020/01/31 11:30:13.7	300.150	0.380	0.330	0.800
2020/01/31 11:30:13.8	300.160	0.390	0.290	0.790
2020/01/31 11:30:13.9	300.160	0.410	0.240	0.780
2020/01/31 11:30:14.0	300.170	0.430	0.190	0.760
2020/01/31 11:30:14.1	300.180	0.440	0.140	0.750
2020/01/31 11:30:14.2	300.190	0.460	0.090	0.730
2020/01/31 11:30:14.3	300.200	0.470	0.040	0.710
2020/01/31 11:30:14.4	300.210	0.480	-0.010	0.690
2020/01/31 11:30:14.5	300.230	0.490	-0.070	0.670
2020/01/31 11:30:14.6	300.240	0.500	-0.120	0.650
2020/01/31 11:30:14.7	300.250	0.510	-0.180	0.620
2020/01/31 11:30:14.8	300.260	0.510	-0.240	0.600
2020/01/31 11:30:14.9	300.280	0.520	-0.290	0.570
2020/01/31 11:30:15.0	300.290	0.520	-0.350	0.540
2020/01/31 11:30:15.1	300.310	0.520	-0.400	0.510
2020/01/31 11:30:15.2	300.330	0.520	-0.460	0.470
2020/01/31 11:30:15.3	300.340	0.520	-0.510	0.440
2020/01/31 11:30:15.4	300.360	0.520	-0.570	0.400
2020/01/31 11:30:15.5	300.380	0.510	-0.620	0.360
2020/01/31 11:30:15.6	300.400	0.510	-0.670	0.320
2020/01/31 11:30:15.7	300.420	0.500	-0.710	0.280
2020/01/31 11:30:15.8	300.440	0.490	-0.760	0.240
2020/01/31 11:30:15.9	300.460	0.480	-0.800	0.200
2020/01/31 11:30:16.0	300.480	0.460	-0.830	0.160
2020/01/31 11:30:16.1	300.500	0.450	-0.870	0.120
2020/01/31 11:30:16.2	300.520	0.430	-0.900	0.080
2020/01/31 11:30:16.3	300.540	0.410	-0.930	0.040
2020/01/31 11:30:16.4	300.560	0.390	-0.950	-0.000
2020/01/31 11:30:16.5	300.570	0.360	-0.970	-0.050
2020/01/31 11:30:16.6	300.590	0.340	-0.990	-0.080
2020/01/31 11:30:16.7	300.610	0.310	-1.000	-0.120
2020/01/31 11:30:16.8	300.630	0.290	-1.010	-0.150
2020/01/31 11:30:16.9	300.650	0.260	-1.010	-0.190
2020/01/31 11:30:17.0	300.670	0.230	-1.020	-0.220
2020/01/31 11:30:17.1	300.690	0.200	-1.010	-0.240
2020/01/31 11:30:17.2	300.700	0.170	-1.010	-0.270
2020/01/31 11:30:17.3	300.720	0.140	-1.000	-0.290
2020/01/31 11:30:17.4	300.740	0.120	-0.990	-0.310
2020/01/31 11:30:17.5	300.770	0.090	-0.980	-0.330
2020/01/31 11:30:17.6	300.780	0.060	-0.960	-0.340
2020/01/31 11:30:17.7	300.800	0.030	-0.950	-0.350
2020/01/31 11:30:17.8	300.820	0.000	-0.930	-0.360
2020/01/31 11:30:17.9	300.830	-0.020	-0.910	-0.360
2020/01/31 11:30:18.0	300.850	-0.050	-0.890	-0.360
2020/01/31 11:30:18.1	300.860	-0.070	-0.860	-0.360
2020/01/31 11:30:18.2	300.870	-0.090	-0.840	-0.350
2020/01/31 11:30:18.3	300.880	-0.110	-0.810	-0.330
2020/01/31 11:30:18.4	300.880	-0.130	-0.790	-0.320
2020/01/31 11:30:18.5	300.890	-0.150	-0.760	-0.290
2020/01/31 11:30:18.6	300.890	-0.160	-0.730	-0.270
2020/01/31 11:30:18.7	300.900	-0.180	-0.700	-0.240
2020/01/31 11:30:18.8	300.900	-0.190	-0.680	-0.200
2020/01/31 11:30:18.9	300.890	-0.200	-0.650	-0.170
2020/01/31 11:30:19.0	300.890	-0.200	-0.620	-0.130
2020/01/31 11:30:19.1	300.880	-0.210	-0.590	-0.080
2020/01/31 11:30:19.2	300.880	-0.210	-0.560	-0.040
2020/01/31 11:30:19.3	300.870	-0.210	-0.530	0.010
2020/01/31 11:30:19.4	300.860	-0.210	-0.500	0.060
2020/01/31 11:30:19.5	300.840	-0.210	-0.470	0.110
2020/01/31 11:30:19.6	300.830	-0.210	-0.440	0.160
2020/01/31 11:30:19.7	300.820	-0.210	-0.420	0.210
2020/01/31 11:30:19.8	300.800	-0.200	-0.390	0.260
2020/01/31 11:30:19.9	300.790	-0.190	-0.370	0.320
2020/01/31 11:30:20.0	300.770	-0.190	-0.340	0.370
2020/01/31 11:30:20.1	300.750	-0.180	-0.320	0.420
2020/01/31 11:30:20.2	300.740	-0.170	-0.300	0.470
2020/01/31 11:30:20.3	300.720	-0.160	-0.280	0.520
2020/01/31 11:30:20.4	300.710	-0.150	-0.260	0.570
2020/01/31 11:30:20.5	300.690	-0.140	-0.240	0.630
2020/01/31 11:30:20.6	300.680	-0.130	-0.230	0.670
2020/01/31 11:30:20.7	300.660	-0.120	-0.210	0.720
2020/01/31 11:30:20.8	300.650	-0.110	-0.200	0.760
2020/01/31 11:30:20.9	300.630	-0.100	-0.180	0.800
2020/01/31 11:30:21.0	300.610	-0.090	-0.170	0.840
2020/01/31 11:30:21.1	300.600	-0.090	-0.150	0.870
2020/01/31 11:30:21.2	300.580	-0.080	-0.140	0.910
2020/01/31 11:30:21.3	300.570	-0.080	-0.130	0.940
2020/01/31 11:30:21.4	300.550	-0.070	-0.120	0.960
2020/01/31 11:30:21.5	300.540	-0.070	-0.110	0.990
2020/01/31 11:30:21.6	300.530	-0.070	-0.090	1.010
2020/01/31 11:30:21.7	300.510	-0.070	-0.080	1.030
2020/01/31 11:30:21.8	300.500	-0.070	-0.070	1.040
2020/01/31 11:30:21.9	300.480	-0.070	-0.060	1.050
2020/01/31 11:30:22.0	300.470	-0.070	-0.050	1.060
2020/01/31 11:30:22.1	300.460	-0.080	-0.040	1.070
2020/01/31 11:30:22.2	300.440	-0.090	-0.030	1.080
2020/01/31 11:30:22.3	300.430	-0.090	-0.020	1.080
2020/01/31 11:30:22.4	300.420	-0.100	-0.010	1.080
2020/01/31 11:30:22.5	300.420	-0.110	0.000	1.070
2020/01/31 11:30:22.6	300.410	-0.130	0.010	1.070
2020/01/31 11:30:22.7	300.400	-0.140	0.030	1.060
2020/01/31 11:30:22.8	300.390	-0.150	0.040	1.060
2020/01/31 11:30:22.9	300.380	-0.170	0.050	1.050
2020/01/31 11:30:23.0	300.370	-0.180	0.060	1.040
2020/01/31 11:30:23.1	300.360	-0.200	0.070	1.030
2020/01/31 11:30:23.2	300.360	-0.210	0.080	1.020
2020/01/31 11:30:23.3	300.350	-0.230	0.100	1.010
2020/01/31 11:30:23.4	300.350	-0.240	0.110	1.000
2020/01/31 11:30:23.5	300.340	-0.260	0.120	0.980
2020/01/31 11:30:23.6	300.340	-0.270	0.130	0.960
2020/01/31 11:30:23.7	300.340	-0.280	0.140	0.950
2020/01/31 11:30:23.8	300.330	-0.300	0.150	0.930
2020/01/31 11:30:23.9	300.330	-0.310	0.160	0.920
2020/01/31 11:30:24.0	300.330	-0.320	0.160	0.900
2020/01/31 11:30:24.1	300.330	-0.330	0.170	0.880
2020/01/31 11:30:24.2	300.330	-0.340	0.180	0.860
2020/01/31 11:30:24.3	300.330	-0.340	0.190	0.850
2020/01/31 11:30:24.4	300.330	-0.350	0.190	0.830
2020/01/31 11:30:24.5	300.320	-0.350	0.200	0.810
2020/01/31 11:30:24.6	300.320	-0.360	0.200	0.790
2020/01/31 11:30:24.7	300.320	-0.360	0.200	0.780
2020/01/31 11:30:24.8	300.320	-0.360	0.200	0.760
2020/01/31 11:30:24.9	300.320	-0.360	0.200	0.750
2020/01/31 11:30:25.0	300.320	-0.360	0.200	0.730
2020/01/31 11:30:25.1	300.320	-0.350	0.190	0.720
2020/01/31 11:30:25.2	300.320	-0.350	0.190	0.700
2020/01/31 11:30:25.3	300.320	-0.340	0.180	0.690
2020/01/31 11:30:25.4	300.320	-0.330	0.170	0.680
2020/01/31 11:30:25.5	300.320	-0.320	0.150	0.660
2020/01/31 11:30:25.6	300.320	-0.310	0.140	0.650
2020/01/31 11:30:25.7	300.320	-0.300	0.120	0.640
2020/01/31 11:30:25.8	300.320	-0.280	0.100	0.630
2020/01/31 11:30:25.9	300.330	-0.270	0.080	0.620
2020/01/31 11:30:26.0	300.330	-0.250	0.060	0.610
2020/01/31 11:30:26.1	300.330	-0.230	0.040	0.600
2020/01/31 11:30:26.2	300.330	-0.210	0.010	0.590
2020/01/31 11:30:26.3	300.340	-0.190	-0.010	0.580
2020/01/31 11:30:26.4	300.340	-0.160	-0.040	0.570
2020/01/31 11:30:26.5	300.350	-0.140	-0.070	0.560
2020/01/31 11:30:26.6	300.360	-0.110	-0.100	0.560
2020/01/31 11:30:26.7	300.370	-0.080	-0.140	0.550
2020/01/31 11:30:26.8	300.370	-0.060	-0.170	0.550
2020/01/31 11:30:26.9	300.390	-0.030	-0.210	0.540
2020/01/31 11:30:27.0	300.400	0.000	-0.240	0.540
2020/01/31 11:30:27.1	300.410	0.030	-0.280	0.530
2020/01/31 11:30:27.2	300.420	0.060	-0.310	0.530
2020/01/31 11:30:27.3	300.440	0.090	-0.350	0.530
2020/01/31 11:30:27.4	300.450	0.120	-0.380	0.530
2020/01/31 11:30:27.5	300.470	0.150	-0.420	0.530
2020/01/31 11:30:27.6	300.480	0.180	-0.450	0.530
2020/01/31 11:30:27.7	300.500	0.210	-0.490	0.540
2020/01/31 11:30:27.8	300.520	0.240	-0.520	0.540
2020/01/31 11:30:27.9	300.530	0.270	-0.550	0.550
2020/01/31 11:30:28.0	300.550	0.300	-0.570	0.560
2020/01/31 11:30:28.1	300.560	0.330	-0.600	0.570
2020/01/31 11:30:28.2	300.580	0.350	-0.620	0.580
2020/01/31 11:30:28.3	300.590	0.380	-0.650	0.590
2020/01/31 11:30:28.4	300.600	0.400	-0.670	0.600
2020/01/31 11:30:28.5	300.610	0.420	-0.690	0.620
2020/01/31 11:30:28.6	300.620	0.440	-0.700	0.630
2020/01/31 11:30:28.7	300.630	0.460	-0.720	0.640
2020/01/31 11:30:28.8	300.650	0.480	-0.730	0.660
2020/01/31 11:30:28.9	300.660	0.490	-0.740	0.670
2020/01/31 11:30:29.0	300.670	0.510	-0.740	0.690
2020/01/31 11:30:29.1	300.680	0.520	-0.750	0.710
2020/01/31 11:30:29.2	300.690	0.530	-0.750	0.720
2020/01/31 11:30:29.3	300.700	0.540	-0.750	0.740
2020/01/31 11:30:29.4	300.710	0.540	-0.740	0.750
2020/01/31 11:30:29.5	300.720	0.550	-0.740	0.760
2020/01/31 11:30:29.6	300.730	0.550	-0.730	0.770
2020/01/31 11:30:29.7	300.740	0.550	-0.720	0.790
2020/01/31 11:30:29.8	300.750	0.550	-0.710	0.800
2020/01/31 11:30:29.9	300.760	0.550	-0.700	0.810
2020/01/31 11:30:30.0	300.770	0.550	-0.690	0.810
2020/01/31 11:30:30.1	300.780	0.540	-0.670	0.820
2020/01/31 11:30:30.2	300.790	0.540	-0.650	0.820
2020/01/31 11:30:30.3	300.800	0.530	-0.630	0.830
2020/01/31 11:30:30.4	300.810	0.520	-0.610	0.830
2020/01/31 11:30:30.5	300.810	0.500	-0.590	0.840
2020/01/31 11:30:30.6	300.820	0.490	-0.570	0.840
2020/01/31 11:30:30.7	300.830	0.480	-0.540	0.840
2020/01/31 11:30:30.8	300.840	0.460	-0.520	0.840
2020/01/31 11:30:30.9	300.840	0.440	-0.490	0.840
2020/01/31 11:30:31.0	300.840	0.420	-0.460	0.840
2020/01/31 11:30:31.1	300.850	0.400	-0.430	0.840
2020/01/31 11:30:31.2	300.850	0.380	-0.400	0.840
2020/01/31 11:30:31.3	300.840	0.360	-0.360	0.840
2020/01/31 11:30:31.4	300.840	0.330	-0.330	0.840
2020/01/31 11:30:31.5	300.840	0.310	-0.290	0.840
2020/01/31 11:30:31.6	300.830	0.280	-0.260	0.840
2020/01/31 11:30:31.7	300.820	0.260	-0.220	0.840
2020/01/31 11:30:31.8	300.810	0.230	-0.190	0.840
2020/01/31 11:30:31.9	300.800	0.200	-0.150	0.830
2020/01/31 11:30:32.0	300.790	0.180	-0.120	0.830
2020/01/31 11:30:32.1	300.780	0.150	-0.090	0.830
2020/01/31 11:30:32.2	300.770	0.120	-0.050	0.830
2020/01/31 11:30:32.3	300.760	0.100	-0.020	0.830
2020/01/31 11:30:32.4	300.740	0.070	0.010	0.820
2020/01/31 11:30:32.5	300.730	0.040	0.030	0.820
2020/01/31 11:30:32.6	300.720	0.020	0.050	0.810
2020/01/31 11:30:32.7	300.700	-0.010	0.080	0.810
2020/01/31 11:30:32.8	300.690	-0.030	0.100	0.800
2020/01/31 11:30:32.9	300.670	-0.050	0.120	0.790
2020/01/31 11:30:33.0	300.660	-0.070	0.130	0.790
2020/01/31 11:30:33.1	300.650	-0.090	0.150	0.780
2020/01/31 11:30:33.2	300.630	-0.110	0.160	0.770
2020/01/31 11:30:33.3	300.620	-0.130	0.170	0.760
2020/01/31 11:30:33.4	300.610	-0.140	0.170	0.750
2020/01/31 11:30:33.5	300.610	-0.160	0.180	0.740
2020/01/31 11:30:33.6	300.590	-0.170	0.180	0.730
2020/01/31 11:30:33.7	300.580	-0.180	0.180	0.730
2020/01/31 11:30:33.8	300.570	-0.190	0.180	0.720
2020/01/31 11:30:33.9	300.550	-0.200	0.180	0.720
2020/01/31 11:30:34.0	300.540	-0.200	0.170	0.720
2020/01/31 11:30:34.1	300.520	-0.210	0.170	0.710
2020/01/31 11:30:34.2	300.510	-0.210	0.160	0.720
2020/01/31 11:30:34.3	300.490	-0.210	0.150	0.720
2020/01/31 11:30:34.4	300.480	-0.210	0.140	0.720
2020/01/31 11:30:34.5	300.470	-0.210	0.130	0.730
2020/01/31 11:30:34.6	300.450	-0.200	0.120	0.740
2020/01/31 11:30:34.7	300.440	-0.200	0.110	0.750
2020/01/31 11:30:34.8	300.420	-0.190	0.100	0.760
2020/01/31 11:30:34.9	300.410	-0.180	0.080	0.780
2020/01/31 11:30:35.0	300.390	-0.180	0.070	0.790
2020/01/31 11:30:35.1	300.380	-0.170	0.050	0.810
2020/01/31 11:30:35.2	300.360	-0.160	0.040	0.820
2020/01/31 11:30:35.3	300.350	-0.150	0.020	0.840
2020/01/31 11:30:35.4	300.330	-0.130	0.010	0.860
2020/01/31 11:30:35.5	300.330	-0.120	-0.010	0.880
2020/01/31 11:30:35.6	300.320	-0.110	-0.030	0.900
2020/01/31 11:30:35.7	300.300	-0.100	-0.040	0.920
2020/01/31 11:30:35.8	300.290	-0.090	-0.060	0.930
2020/01/31 11:30:35.9	300.280	-0.070	-0.080	0.950
2020/01/31 11:30:36.0	300.260	-0.060	-0.100	0.970
2020/01/31 11:30:36.1	300.250	-0.050	-0.120	0.990
2020/01/31 11:30:36.2	300.240	-0.040	-0.140	1.010
2020/01/31 11:30:36.3	300.220	-0.030	-0.160	1.020
2020/01/31 11:30:36.4	300.210	-0.020	-0.180	1.040
2020/01/31 11:30:36.5	300.190	-0.020	-0.200	1.050
2020/01/31 11:30:36.6	300.180	-0.010	-0.220	1.060
2020/01/31 11:30:36.7	300.170	-0.000	-0.230	1.070
2020/01/31 11:30:36.8	300.160	0.000	-0.250	1.070
2020/01/31 11:30:36.9	300.150	0.010	-0.270	1.080
2020/01/31 11:30:37.0	300.140	0.010	-0.290	1.080
2020/01/31 11:30:37.1	300.130	0.010	-0.310	1.080
2020/01/31 11:30:37.2	300.120	0.010	-0.330	1.070
2020/01/31 11:30:37.3	300.110	0.010	-0.350	1.060
2020/01/31 11:30:37.4	300.110	0.010	-0.370	1.050
2020/01/31 11:30:37.5	300.100	0.000	-0.390	1.040
2020/01/31 11:30:37.6	300.100	-0.000	-0.410	1.020
2020/01/31 11:30:37.7	300.100	-0.010	-0.430	1.000
2020/01/31 11:30:37.8	300.100	-0.020	-0.450	0.970
2020/01/31 11:30:37.9	300.110	-0.030	-0.470	0.940
2020/01/31 11:30:38.0	300.110	-0.040	-0.490	0.910
2020/01/31 11:30:38.1	300.120	-0.050	-0.510	0.870
2020/01/31 11:30:38.2	300.130	-0.060	-0.530	0.830
2020/01/31 11:30:38.3	300.150	-0.070	-0.550	0.790
2020/01/31 11:30:38.4	300.160	-0.080	-0.570	0.740
2020/01/31 11:30:38.5	300.190	-0.090	-0.590	0.690
2020/01/31 11:30:38.6	300.210	-0.100	-0.610	0.640
2020/01/31 11:30:38.7	300.230	-0.120	-0.630	0.590
2020/01/31 11:30:38.8	300.250	-0.130	-0.650	0.540
2020/01/31 11:30:38.9	300.270	-0.140	-0.670	0.480
2020/01/31 11:30:39.0	300.300	-0.150	-0.680	0.430
2020/01/31 11:30:39.1	300.320	-0.160	-0.700	0.370
2020/01/31 11:30:39.2	300.350	-0.170	-0.710	0.320
2020/01/31 11:30:39.3	300.380	-0.180	-0.720	0.270
2020/01/31 11:30:39.4	300.410	-0.190	-0.730	0.210
2020/01/31 11:30:39.5	300.440	-0.200	-0.740	0.160
2020/01/31 11:30:39.6	300.470	-0.200	-0.750	0.110
2020/01/31 11:30:39.7	300.500	-0.210	-0.750	0.060
2020/01/31 11:30:39.8	300.530	-0.220	-0.750	0.020
2020/01/31 11:30:39.9	300.550	-0.220	-0.750	-0.030
2020/01/31 11:30:40.0	300.580	-0.230	-0.740	-0.070
2020/01/31 11:30:40.1	300.610	-0.230	-0.740	-0.110
2020/01/31 11:30:40.2	300.640	-0.230	-0.730	-0.150
2020/01/31 11:30:40.3	300.670	-0.230	-0.710	-0.190
2020/01/31 11:30:40.4	300.690	-0.230	-0.700	-0.220
2020/01/31 11:30:40.5	300.700	-0.230	-0.680	-0.260
2020/01/31 11:30:40.6	300.730	-0.230	-0.660	-0.280
2020/01/31 11:30:40.7	300.760	-0.230	-0.640	-0.310
2020/01/31 11:30:40.8	300.780	-0.230	-0.620	-0.330
2020/01/31 11:30:40.9	300.810	-0.230	-0.590	-0.350
2020/01/31 11:30:41.0	300.840	-0.220	-0.560	-0.370
2020/01/31 11:30:41.1	300.860	-0.220	-0.530	-0.390
2020/01/31 11:30:41.2	300.890	-0.210	-0.500	-0.400
2020/01/31 11:30:41.3	300.910	-0.210	-0.470	-0.400
2020/01/31 11:30:41.4	300.940	-0.200	-0.440	-0.410
2020/01/31 11:30:41.5	300.950	-0.190	-0.400	-0.410
2020/01/31 11:30:41.6	300.970	-0.190	-0.370	-0.400
2020/01/31 11:30:41.7	300.990	-0.180	-0.330	-0.390
2020/01/31 11:30:41.8	301.010	-0.170	-0.300	-0.380
2020/01/31 11:30:41.9	301.030	-0.160	-0.260	-0.360
2020/01/31 11:30:42.0	301.050	-0.150	-0.220	-0.330
2020/01/31 11:30:42.1	301.060	-0.140	-0.180	-0.310
2020/01/31 11:30:42.2	301.080	-0.130	-0.150	-0.270
2020/01/31 11:30:42.3	301.090	-0.110	-0.110	-0.240
2020/01/31 11:30:42.4	301.100	-0.100	-0.070	-0.200
2020/01/31 11:30:42.5	301.100	-0.090	-0.040	-0.150
2020/01/31 11:30:42.6	301.100	-0.070	-0.000	-0.100
2020/01/31 11:30:42.7	301.110	-0.060	0.030	-0.050
2020/01/31 11:30:42.8	301.110	-0.050	0.060	0.010
2020/01/31 11:30:42.9	301.110	-0.030	0.090	0.070
2020/01/31 11:30:43.0	301.110	-0.020	0.120	0.130
2020/01/31 11:30:43.1	301.110	-0.000	0.150	0.190
2020/01/31 11:30:43.2	301.110	0.010	0.170	0.260
2020/01/31 11:30:43.3	301.110	0.030	0.200	0.330
2020/01/31 11:30:43.4	301.100	0.040	0.220	0.400
2020/01/31 11:30:43.5	301.110	0.060	0.240	0.470
2020/01/31 11:30:43.6	301.100	0.070	0.250	0.550
2020/01/31 11:30:43.7	301.090	0.090	0.270	0.620
2020/01/31 11:30:43.8	301.080	0.100	0.280	0.690
2020/01/31 11:30:43.9	301.080	0.120	0.290	0.760
2020/01/31 11:30:44.0	301.070	0.130	0.290	0.840
2020/01/31 11:30:44.1	301.060	0.150	0.300	0.910
2020/01/31 11:30:44.2	301.050	0.160	0.300	0.980
2020/01/31 11:30:44.3	301.030	0.170	0.300	1.040
2020/01/31 11:30:44.4	301.020	0.190	0.300	1.110
2020/01/31 11:30:44.5	301.010	0.200	0.300	1.170
2020/01/31 11:30:44.6	301.000	0.210	0.290	1.230
2020/01/31 11:30:44.7	300.990	0.220	0.280	1.290
2020/01/31 11:30:44.8	300.970	0.230	0.270	1.340
2020/01/31 11:30:44.9	300.960	0.240	0.260	1.390
2020/01/31 11:30:45.0	300.940	0.250	0.250	1.440
2020/01/31 11:30:45.1	300.930	0.250	0.240	1.480
2020/01/31 11:30:45.2	300.910	0.260	0.220	1.510
2020/01/31 11:30:45.3	300.900	0.260	0.200	1.550
2020/01/31 11:30:45.4	300.880	0.270	0.190	1.570
2020/01/31 11:30:45.5	300.890	0.270	0.170	1.590
2020/01/31 11:30:45.6	300.870	0.270	0.150	1.610
2020/01/31 11:30:45.7	300.850	0.270	0.130	1.620
2020/01/31 11:30:45.8	300.830	0.270	0.110	1.630
2020/01/31 11:30:45.9	300.810	0.270	0.080	1.630
2020/01/31 11:30:46.0	300.790	0.270	0.060	1.630
2020/01/31 11:30:46.1	300.770	0.270	0.040	1.620
2020/01/31 11:30:46.2	300.750	0.270	0.020	1.610
2020/01/31 11:30:46.3	300.730	0.270	-0.010	1.600
2020/01/31 11:30:46.4	300.700	0.260	-0.030	1.580
2020/01/31 11:30:46.5	300.670	0.260	-0.060	1.560
2020/01/31 11:30:46.6	300.650	0.260	-0.080	1.540
2020/01/31 11:30:46.7	300.620	0.250	-0.110	1.510
2020/01/31 11:30:46.8	300.600	0.250	-0.130	1.480
2020/01/31 11:30:46.9	300.570	0.240	-0.160	1.450
2020/01/31 11:30:47.0	300.540	0.240	-0.180	1.410
2020/01/31 11:30:47.1	300.520	0.230	-0.210	1.370
2020/01/31 11:30:47.2	300.490	0.230	-0.230	1.320
2020/01/31 11:30:47.3	300.470	0.220	-0.260	1.280
2020/01/31 11:30:47.4	300.450	0.220	-0.290	1.230
2020/01/31 11:30:47.5	300.430	0.220	-0.320	1.180
2020/01/31 11:30:47.6	300.410	0.210	-0.340	1.120
2020/01/31 11:30:47.7	300.390	0.210	-0.370	1.070
2020/01/31 11:30:47.8	300.370	0.210	-0.400	1.010
2020/01/31 11:30:47.9	300.360	0.200	-0.430	0.950
2020/01/31 11:30:48.0	300.340	0.200	-0.460	0.880
2020/01/31 11:30:48.1	300.330	0.200	-0.490	0.820
2020/01/31 11:30:48.2	300.320	0.190	-0.520	0.760
2020/01/31 11:30:48.3	300.310	0.190	-0.550	0.690
2020/01/31 11:30:48.4	300.310	0.190	-0.580	0.620
2020/01/31 11:30:48.5	300.300	0.190	-0.610	0.560
2020/01/31 11:30:48.6	300.300	0.180	-0.640	0.490
2020/01/31 11:30:48.7	300.300	0.180	-0.670	0.420
2020/01/31 11:30:48.8	300.300	0.180	-0.690	0.360
2020/01/31 11:30:48.9	300.310	0.170	-0.720	0.290
2020/01/31 11:30:49.0	300.320	0.170	-0.740	0.220
2020/01/31 11:30:49.1	300.330	0.160	-0.760	0.160
2020/01/31 11:30:49.2	300.340	0.160	-0.780	0.100
2020/01/31 11:30:49.3	300.350	0.150	-0.800	0.040
2020/01/31 11:30:49.4	300.360	0.140	-0.820	-0.020
2020/01/31 11:30:49.5	300.370	0.140	-0.830	-0.080
2020/01/31 11:30:49.6	300.380	0.130	-0.840	-0.130
2020/01/31 11:30:49.7	300.400	0.120	-0.850	-0.180
2020/01/31 11:30:49.8	300.420	0.110	-0.850	-0.230
2020/01/31 11:30:49.9	300.440	0.100	-0.850	-0.270
2020/01/31 11:30:50.0	300.470	0.080	-0.850	-0.320
2020/01/31 11:30:50.1	300.490	0.070	-0.850	-0.360
2020/01/31 11:30:50.2	300.520	0.060	-0.840	-0.390
2020/01/31 11:30:50.3	300.540	0.040	-0.830	-0.420
2020/01/31 11:30:50.4	300.570	0.020	-0.820	-0.450
2020/01/31 11:30:50.5	300.600	0.010	-0.810	-0.470
2020/01/31 11:30:50.6	300.630	-0.010	-0.790	-0.490
2020/01/31 11:30:50.7	300.660	-0.030	-0.770	-0.510
2020/01/31 11:30:50.8	300.680	-0.050	-0.750	-0.520
2020/01/31 11:30:50.9	300.710	-0.060	-0.720	-0.530
2020/01/31 11:30:51.0	300.740	-0.080	-0.690	-0.530
2020/01/31 11:30:51.1	300.770	-0.100	-0.670	-0.530
2020/01/31 11:30:51.2	300.800	-0.120	-0.640	-0.520
2020/01/31 11:30:51.3	300.830	-0.140	-0.600	-0.520
2020/01/31 11:30:51.4	300.850	-0.160	-0.570	-0.500
2020/01/31 11:30:51.5	300.880	-0.180	-0.540	-0.490
2020/01/31 11:30:51.6	300.910	-0.190	-0.500	-0.470
2020/01/31 11:30:51.7	300.930	-0.210	-0.460	-0.450
2020/01/31 11:30:51.8	300.960	-0.230	-0.430	-0.430
2020/01/31 11:30:51.9	300.980	-0.240	-0.390	-0.400
2020/01/31 11:30:52.0	301.010	-0.260	-0.350	-0.370
2020/01/31 11:30:52.1	301.030	-0.270	-0.310	-0.330
2020/01/31 11:30:52.2	301.050	-0.280	-0.280	-0.300
2020/01/31 11:30:52.3	301.080	-0.290	-0.240	-0.260
2020/01/31 11:30:52.4	301.090	-0.300	-0.200	-0.220
2020/01/31 11:30:52.5	301.100	-0.310	-0.160	-0.170
2020/01/31 11:30:52.6	301.120	-0.320	-0.130	-0.130
2020/01/31 11:30:52.7	301.130	-0.330	-0.100	-0.080
2020/01/31 11:30:52.8	301.150	-0.330	-0.060	-0.030
2020/01/31 11:30:52.9	301.160	-0.330	-0.030	0.020
2020/01/31 11:30:53.0	301.170	-0.340	0.000	0.070
2020/01/31 11:30:53.1	301.180	-0.340	0.030	0.130
2020/01/31 11:30:53.2	301.180	-0.340	0.060	0.180
2020/01/31 11:30:53.3	301.190	-0.340	0.080	0.230
2020/01/31 11:30:53.4	301.190	-0.340	0.110	0.290
2020/01/31 11:30:53.5	301.210	-0.330	0.130	0.340
2020/01/31 11:30:53.6	301.210	-0.330	0.150	0.390
2020/01/31 11:30:53.7	301.210	-0.320	0.170	0.440
2020/01/31 11:30:53.8	301.200	-0.320	0.180	0.490
2020/01/31 11:30:53.9	301.200	-0.310	0.200	0.540
2020/01/31 11:30:54.0	301.200	-0.300	0.210	0.590
2020/01/31 11:30:54.1	301.190	-0.290	0.220	0.640
2020/01/31 11:30:54.2	301.190	-0.290	0.220	0.680
2020/01/31 11:30:54.3	301.180	-0.280	0.230	0.730
2020/01/31 11:30:54.4	301.180	-0.270	0.230	0.760
2020/01/31 11:30:54.5	301.170	-0.260	0.220	0.810
2020/01/31 11:30:54.6	301.170	-0.250	0.220	0.840
2020/01/31 11:30:54.7	301.160	-0.240	0.220	0.870
2020/01/31 11:30:54.8	301.150	-0.230	0.210	0.900
2020/01/31 11:30:54.9	301.140	-0.220	0.200	0.930
2020/01/31 11:30:55.0	301.130	-0.200	0.190	0.950
2020/01/31 11:30:55.1	301.120	-0.190	0.180	0.970
2020/01/31 11:30:55.2	301.110	-0.180	0.160	0.990
2020/01/31 11:30:55.3	301.100	-0.170	0.150	1.000
2020/01/31 11:30:55.4	301.090	-0.160	0.130	1.010
2020/01/31 11:30:55.5	301.070	-0.150	0.110	1.010
2020/01/31 11:30:55.6	301.060	-0.140	0.100	1.020
2020/01/31 11:30:55.7	301.050	-0.140	0.070	1.010
2020/01/31 11:30:55.8	301.040	-0.130	0.050	1.010
2020/01/31 11:30:55.9	301.030	-0.120	0.030	1.000
2020/01/31 11:30:56.0	301.020	-0.110	0.010	0.990
2020/01/31 11:30:56.1	301.010	-0.100	-0.010	0.980
2020/01/31 11:30:56.2	301.010	-0.090	-0.040	0.960
2020/01/31 11:30:56.3	301.000	-0.080	-0.060	0.940
2020/01/31 11:30:56.4	301.000	-0.070	-0.080	0.920
2020/01/31 11:30:56.5	300.990	-0.060	-0.110	0.900
2020/01/31 11:30:56.6	300.980	-0.060	-0.130	0.870
2020/01/31 11:30:56.7	300.980	-0.050	-0.150	0.850
2020/01/31 11:30:56.8	300.980	-0.040	-0.180	0.820
2020/01/31 11:30:56.9	300.970	-0.030	-0.200	0.790
2020/01/31 11:30:57.0	300.970	-0.030	-0.220	0.760
2020/01/31 11:30:57.1	300.970	-0.020	-0.240	0.730
2020/01/31 11:30:57.2	300.970	-0.010	-0.260	0.700
2020/01/31 11:30:57.3	300.970	-0.000	-0.280	0.670
2020/01/31 11:30:57.4	300.960	0.000	-0.300	0.640
2020/01/31 11:30:57.5	300.950	0.010	-0.320	0.620
2020/01/31 11:30:57.6	300.950	0.020	-0.330	0.590
2020/01/31 11:30:57.7	300.950	0.020	-0.340	0.560
2020/01/31 11:30:57.8	300.950	0.030	-0.350	0.530
2020/01/31 11:30:57.9	300.950	0.030	-0.370	0.510
2020/01/31 11:30:58.0	300.940	0.040	-0.370	0.480
2020/01/31 11:30:58.1	300.940	0.040	-0.380	0.460
2020/01/31 11:30:58.2	300.940	0.050	-0.390	0.440
2020/01/31 11:30:58.3	300.940	0.050	-0.390	0.420
2020/01/31 11:30:58.4	300.940	0.050	-0.390	0.400
2020/01/31 11:30:58.5	300.940	0.060	-0.390	0.370
2020/01/31 11:30:58.6	300.940	0.060	-0.400	0.350
2020/01/31 11:30:58.7	300.940	0.060	-0.400	0.340
2020/01/31 11:30:58.8	300.940	0.070	-0.390	0.320
2020/01/31 11:30:58.9	300.940	0.070	-0.390	0.310
2020/01/31 11:30:59.0	300.930	0.070	-0.390	0.290
2020/01/31 11:30:59.1	300.930	0.070	-0.390	0.280
2020/01/31 11:30:59.2	300.930	0.070	-0.380	0.270
2020/01/31 11:30:59.3	300.930	0.070	-0.380	0.260
2020/01/31 11:30:59.4	300.920	0.080	-0.380	0.250
2020/01/31 11:30:59.5	300.910	0.080	-0.380	0.250
2020/01/31 11:30:59.6	300.910	0.080	-0.370	0.240
2020/01/31 11:30:59.7	300.900	0.080	-0.370	0.230
2020/01/31 11:30:59.8	300.900	0.080	-0.360	0.230
2020/01/31 11:30:59.9	300.900	0.080	-0.360	0.230
2020/01/31 11:31:00.0	300.890	0.080	-0.360	0.220
2020/01/31 11:31:00.1	300.890	0.080	-0.350	0.220
2020/01/31 11:31:00.2	300.890	0.080	-0.350	0.220
2020/01/31 11:31:00.3	300.890	0.080	-0.340	0.220
2020/01/31 11:31:00.4	300.880	0.080	-0.340	0.220
2020/01/31 11:31:00.5	300.880	0.080	-0.330	0.220
2020/01/31 11:31:00.6	300.880	0.080	-0.330	0.230
2020/01/31 11:31:00.7	300.880	0.080	-0.330	0.230
2020/01/31 11:31:00.8	300.880	0.080	-0.320	0.240
2020/01/31 11:31:00.9	300.870	0.080	-0.320	0.250
2020/01/31 11:31:01.0	300.870	0.080	-0.310	0.260
2020/01/31 11:31:01.1	300.870	0.080	-0.310	0.270
2020/01/31 11:31:01.2	300.870	0.080	-0.300	0.280
2020/01/31 11:31:01.3	300.860	0.080	-0.300	0.290
2020/01/31 11:31:01.4	300.860	0.080	-0.290	0.310
2020/01/31 11:31:01.5	300.860	0.070	-0.290	0.320
2020/01/31 11:31:01.6	300.860	0.070	-0.290	0.340
2020/01/31 11:31:01.7	300.850	0.070	-0.280	0.360
2020/01/31 11:31:01.8	300.850	0.070	-0.280	0.380
2020/01/31 11:31:01.9	300.850	0.070	-0.270	0.400
2020/01/31 11:31:02.0	300.840	0.070	-0.270	0.420
2020/01/31 11:31:02.1	300.840	0.070	-0.260	0.440
2020/01/31 11:31:02.2	300.840	0.060	-0.250	0.460
2020/01/31 11:31:02.3	300.830	0.060	-0.250	0.490
2020/01/31 11:31:02.4	300.830	0.060	-0.240	0.510
2020/01/31 11:31:02.5	300.840	0.060	-0.240	0.540
2020/01/31 11:31:02.6	300.830	0.060	-0.230	0.560
2020/01/31 11:31:02.7	300.830	0.060	-0.230	0.580
2020/01/31 11:31:02.8	300.820	0.050	-0.230	0.610
2020/01/31 11:31:02.9	300.820	0.050	-0.220	0.630
2020/01/31 11:31:03.0	300.820	0.050	-0.220	0.660
2020/01/31 11:31:03.1	300.810	0.050	-0.210	0.680
2020/01/31 11:31:03.2	300.810	0.050	-0.210	0.700
2020/01/31 11:31:03.3	300.800	0.050	-0.210	0.720
2020/01/31 11:31:03.4	300.800	0.050	-0.210	0.740
2020/01/31 11:31:03.5	300.810	0.050	-0.210	0.760
2020/01/31 11:31:03.6	300.800	0.050	-0.200	0.770
2020/01/31 11:31:03.7	300.800	0.050	-0.200	0.790
2020/01/31 11:31:03.8	300.800	0.050	-0.200	0.800
2020/01/31 11:31:03.9	300.800	0.050	-0.200	0.810
2020/01/31 11:31:04.0	300.800	0.050	-0.210	0.820
2020/01/31 11:31:04.1	300.800	0.050	-0.210	0.820
2020/01/31 11:31:04.2	300.800	0.050	-0.210	0.820
2020/01/31 11:31:04.3	300.800	0.060	-0.220	0.830
2020/01/31 11:31:04.4	300.800	0.060	-0.220	0.820
2020/01/31 11:31:04.5	300.800	0.060	-0.230	0.820
2020/01/31 11:31:04.6	300.810	0.070	-0.240	0.810
2020/01/31 11:31:04.7	300.810	0.070	-0.240	0.810
2020/01/31 11:31:04.8	300.820	0.070	-0.250	0.800
2020/01/31 11:31:04.9	300.820	0.080	-0.260	0.790
2020/01/31 11:31:05.0	300.830	0.080	-0.270	0.770
2020/01/31 11:31:05.1	300.840	0.090	-0.280	0.760
2020/01/31 11:31:05.2	300.840	0.100	-0.290	0.740
2020/01/31 11:31:05.3	300.850	0.100	-0.300	0.730
2020/01/31 11:31:05.4	300.860	0.110	-0.310	0.710
2020/01/31 11:31:05.5	300.880	0.110	-0.320	0.690
2020/01/31 11:31:05.6	300.890	0.120	-0.330	0.670
2020/01/31 11:31:05.7	300.900	0.130	-0.340	0.650
2020/01/31 11:31:05.8	300.910	0.130	-0.350	0.630
2020/01/31 11:31:05.9	300.920	0.140	-0.360	0.610
2020/01/31 11:31:06.0	300.930	0.140	-0.370	0.590
2020/01/31 11:31:06.1	300.950	0.150	-0.380	0.570
2020/01/31 11:31:06.2	300.960	0.150	-0.390	0.550
2020/01/31 11:31:06.3	300.980	0.160	-0.400	0.520
2020/01/31 11:31:06.4	300.990	0.160	-0.400	0.500
2020/01/31 11:31:06.5	301.000	0.160	-0.410	0.480
2020/01/31 11:31:06.6	301.020	0.160	-0.420	0.460
2020/01/31 11:31:06.7	301.030	0.160	-0.430	0.440
2020/01/31 11:31:06.8	301.050	0.160	-0.430	0.420
2020/01/31 11:31:06.9	301.070	0.160	-0.430	0.400
2020/01/31 11:31:07.0	301.080	0.160	-0.430	0.390
2020/01/31 11:31:07.1	301.100	0.160	-0.440	0.370
2020/01/31 11:31:07.2	301.110	0.150	-0.430	0.360
2020/01/31 11:31:07.3	301.130	0.150	-0.430	0.350
2020/01/31 11:31:07.4	301.140	0.140	-0.430	0.330
2020/01/31 11:31:07.5	301.150	0.130	-0.430	0.320
2020/01/31 11:31:07.6	301.160	0.120	-0.420	0.310
2020/01/31 11:31:07.7	301.180	0.110	-0.410	0.300
2020/01/31 11:31:07.8	301.190	0.100	-0.410	0.300
2020/01/31 11:31:07.9	301.200	0.090	-0.400	0.290
2020/01/31 11:31:08.0	301.210	0.080	-0.390	0.280
2020/01/31 11:31:08.1	301.220	0.070	-0.380	0.280
2020/01/31 11:31:08.2	301.220	0.050	-0.370	0.280
2020/01/31 11:31:08.3	301.230	0.040	-0.360	0.270
2020/01/31 11:31:08.4	301.240	0.020	-0.350	0.270
2020/01/31 11:31:08.5	301.230	0.010	-0.340	0.270
2020/01/31 11:31:08.6	301.240	-0.010	-0.320	0.270
2020/01/31 11:31:08.7	301.240	-0.020	-0.310	0.270
2020/01/31 11:31:08.8	301.240	-0.040	-0.300	0.270
2020/01/31 11:31:08.9	301.230	-0.050	-0.290	0.270
2020/01/31 11:31:09.0	301.230	-0.070	-0.270	0.270
2020/01/31 11:31:09.1	301.230	-0.080	-0.260	0.280
2020/01/31 11:31:09.2	301.220	-0.100	-0.250	0.280
2020/01/31 11:31:09.3	301.210	-0.110	-0.230	0.280
2020/01/31 11:31:09.4	301.200	-0.130	-0.220	0.290
2020/01/31 11:31:09.5	301.190	-0.140	-0.200	0.290
2020/01/31 11:31:09.6	301.180	-0.150	-0.190	0.300
2020/01/31 11:31:09.7	301.160	-0.170	-0.170	0.300
2020/01/31 11:31:09.8	301.150	-0.180	-0.160	0.310
2020/01/31 11:31:09.9	301.130	-0.190	-0.140	0.320
2020/01/31 11:31:10.0	301.110	-0.200	-0.130	0.330
2020/01/31 11:31:10.1	301.090	-0.210	-0.110	0.340
2020/01/31 11:31:10.2	301.070	-0.220	-0.090	0.350
2020/01/31 11:31:10.3	301.050	-0.230	-0.080	0.360
2020/01/31 11:31:10.4	301.030	-0.240	-0.060	0.370
2020/01/31 11:31:10.5	301.010	-0.250	-0.050	0.390
2020/01/31 11:31:10.6	300.980	-0.260	-0.030	0.400
2020/01/31 11:31:10.7	300.960	-0.270	-0.010	0.420
2020/01/31 11:31:10.8	300.930	-0.280	-0.000	0.430
2020/01/31 11:31:10.9	300.910	-0.280	0.010	0.450
2020/01/31 11:31:11.0	300.880	-0.290	0.030	0.460
2020/01/31 11:31:11.1	300.850	-0.290	0.040	0.480
2020/01/31 11:31:11.2	300.820	-0.300	0.050	0.500
2020/01/31 11:31:11.3	300.790	-0.300	0.060	0.510
2020/01/31 11:31:11.4	300.770	-0.310	0.080	0.530
2020/01/31 11:31:11.5	300.730	-0.310	0.080	0.550
2020/01/31 11:31:11.6	300.700	-0.310	0.090	0.560
2020/01/31 11:31:11.7	300.670	-0.310	0.100	0.580
2020/01/31 11:31:11.8	300.640	-0.320	0.100	0.600
2020/01/31 11:31:11.9	300.610	-0.320	0.110	0.620
2020/01/31 11:31:12.0	300.580	-0.320	0.110	0.630
2020/01/31 11:31:12.1	300.550	-0.320	0.110	0.650
2020/01/31 11:31:12.2	300.510	-0.320	0.110	0.670
2020/01/31 11:31:12.3	300.480	-0.320	0.110	0.680
2020/01/31 11:31:12.4	300.450	-0.310	0.100	0.700
2020/01/31 11:31:12.5	300.420	-0.310	0.100	0.710
2020/01/31 11:31:12.6	300.390	-0.310	0.090	0.730
2020/01/31 11:31:12.7	300.360	-0.310	0.090	0.740
2020/01/31 11:31:12.8	300.330	-0.300	0.080	0.750
2020/01/31 11:31:12.9	300.310	-0.300	0.070	0.770
2020/01/31 11:31:13.0	300.280	-0.290	0.050	0.780
2020/01/31 11:31:13.1	300.260	-0.290	0.040	0.790
2020/01/31 11:31:13.2	300.240	-0.280	0.020	0.800
2020/01/31 11:31:13.3	300.220	-0.270	0.010	0.810
2020/01/31 11:31:13.4	300.200	-0.260	-0.010	0.820
2020/01/31 11:31:13.5	300.190	-0.250	-0.030	0.820
2020/01/31 11:31:13.6	300.170	-0.250	-0.050	0.830
2020/01/31 11:31:13.7	300.160	-0.240	-0.070	0.830
2020/01/31 11:31:13.8	300.150	-0.220	-0.090	0.840
2020/01/31 11:31:13.9	300.140	-0.210	-0.120	0.840
2020/01/31 11:31:14.0	300.130	-0.200	-0.140	0.840
2020/01/31 11:31:14.1	300.120	-0.190	-0.160	0.850
2020/01/31 11:31:14.2	300.110	-0.180	-0.180	0.850
2020/01/31 11:31:14.3	300.110	-0.160	-0.210	0.840
2020/01/31 11:31:14.4	300.110	-0.150	-0.230	0.840
2020/01/31 11:31:14.5	300.120	-0.130	-0.250	0.840
2020/01/31 11:31:14.6	300.120	-0.120	-0.280	0.830
2020/01/31 11:31:14.7	300.130	-0.100	-0.300	0.820
2020/01/31 11:31:14.8	300.140	-0.090	-0.320	0.810
2020/01/31 11:31:14.9	300.140	-0.070	-0.350	0.800
2020/01/31 11:31:15.0	300.160	-0.050	-0.370	0.790
2020/01/31 11:31:15.1	300.170	-0.040	-0.390	0.780
2020/01/31 11:31:15.2	300.190	-0.020	-0.420	0.760
2020/01/31 11:31:15.3	300.210	-0.000	-0.440	0.740
2020/01/31 11:31:15.4	300.230	0.010	-0.460	0.720
2020/01/31 11:31:15.5	300.260	0.030	-0.480	0.700
2020/01/31 11:31:15.6	300.290	0.050	-0.500	0.680
2020/01/31 11:31:15.7	300.310	0.060	-0.520	0.660
2020/01/31 11:31:15.8	300.350	0.080	-0.540	0.630
2020/01/31 11:31:15.9	300.380	0.090	-0.560	0.600
2020/01/31 11:31:16.0	300.410	0.110	-0.580	0.580
2020/01/31 11:31:16.1	300.450	0.130	-0.590	0.550
2020/01/31 11:31:16.2	300.490	0.140	-0.610	0.520
2020/01/31 11:31:16.3	300.530	0.160	-0.620	0.490
2020/01/31 11:31:16.4	300.570	0.170	-0.640	0.460
2020/01/31 11:31:16.5	300.610	0.180	-0.650	0.430
2020/01/31 11:31:16.6	300.650	0.200	-0.660	0.400
2020/01/31 11:31:16.7	300.700	0.210	-0.660	0.380
2020/01/31 11:31:16.8	300.740	0.220	-0.670	0.350
2020/01/31 11:31:16.9	300.780	0.230	-0.670	0.330
2020/01/31 11:31:17.0	300.830	0.240	-0.670	0.310
2020/01/31 11:31:17.1	300.870	0.250	-0.670	0.290
2020/01/31 11:31:17.2	300.920	0.260	-0.660	0.280
2020/01/31 11:31:17.3	300.960	0.270	-0.650	0.260
2020/01/31 11:31:17.4	301.000	0.280	-0.640	0.260
2020/01/31 11:31:17.5	301.030	0.280	-0.630	0.250
2020/01/31 11:31:17.6	301.070	0.290	-0.610	0.250
2020/01/31 11:31:17.7	301.100	0.300	-0.590	0.250
2020/01/31 11:31:17.8	301.140	0.300	-0.560	0.260
2020/01/31 11:31:17.9	301.170	0.310	-0.540	0.270
2020/01/31 11:31:18.0	301.200	0.310	-0.510	0.280
2020/01/31 11:31:18.1	301.230	0.310	-0.480	0.290
2020/01/31 11:31:18.2	301.260	0.320	-0.450	0.310
2020/01/31 11:31:18.3	301.280	0.320	-0.420	0.330
2020/01/31 11:31:18.4	301.310	0.320	-0.380	0.360
2020/01/31 11:31:18.5	301.320	0.320	-0.340	0.380
2020/01/31 11:31:18.6	301.330	0.320	-0.310	0.410
2020/01/31 11:31:18.7	301.350	0.320	-0.270	0.440
2020/01/31 11:31:18.8	301.360	0.320	-0.230	0.460
2020/01/31 11:31:18.9	301.370	0.320	-0.200	0.490
2020/01/31 11:31:19.0	301.380	0.320	-0.160	0.520
2020/01/31 11:31:19.1	301.390	0.320	-0.130	0.550
2020/01/31 11:31:19.2	301.390	0.320	-0.100	0.580
2020/01/31 11:31:19.3	301.400	0.310	-0.070	0.610
2020/01/31 11:31:19.4	301.400	0.310	-0.040	0.640
2020/01/31 11:31:19.5	301.390	0.310	-0.020	0.670
2020/01/31 11:31:19.6	301.390	0.300	0.000	0.690
2020/01/31 11:31:19.7	301.390	0.300	0.020	0.720
2020/01/31 11:31:19.8	301.380	0.290	0.040	0.740
2020/01/31 11:31:19.9	301.370	0.290	0.050	0.760
2020/01/31 11:31:20.0	301.370	0.280	0.060	0.790
2020/01/31 11:31:20.1	301.360	0.280	0.070	0.810
2020/01/31 11:31:20.2	301.350	0.270	0.070	0.820
2020/01/31 11:31:20.3	301.330	0.260	0.070	0.840
2020/01/31 11:31:20.4	301.320	0.260	0.070	0.860
2020/01/31 11:31:20.5	301.300	0.250	0.070	0.880
2020/01/31 11:31:20.6	301.290	0.240	0.060	0.890
2020/01/31 11:31:20.7	301.270	0.230	0.050	0.900
2020/01/31 11:31:20.8	301.240	0.220	0.040	0.910
2020/01/31 11:31:20.9	301.220	0.210	0.020	0.920
2020/01/31 11:31:21.0	301.200	0.200	0.010	0.930
2020/01/31 11:31:21.1	301.170	0.190	-0.010	0.940
2020/01/31 11:31:21.2	301.140	0.180	-0.030	0.940
2020/01/31 11:31:21.3	301.110	0.170	-0.050	0.950
2020/01/31 11:31:21.4	301.080	0.160	-0.070	0.950
2020/01/31 11:31:21.5	301.060	0.150	-0.100	0.950
2020/01/31 11:31:21.6	301.030	0.130	-0.120	0.940
2020/01/31 11:31:21.7	301.000	0.120	-0.140	0.940
2020/01/31 11:31:21.8	300.960	0.110	-0.170	0.930
2020/01/31 11:31:21.9	300.930	0.090	-0.190	0.920
2020/01/31 11:31:22.0	300.900	0.080	-0.210	0.910
2020/01/31 11:31:22.1	300.870	0.060	-0.240	0.900
2020/01/31 11:31:22.2	300.830	0.050	-0.260	0.880
2020/01/31 11:31:22.3	300.800	0.030	-0.280	0.860
2020/01/31 11:31:22.4	300.770	0.010	-0.300	0.840
2020/01/31 11:31:22.5	300.740	-0.000	-0.320	0.820
2020/01/31 11:31:22.6	300.710	-0.020	-0.330	0.790
2020/01/31 11:31:22.7	300.680	-0.030	-0.350	0.770
2020/01/31 11:31:22.8	300.650	-0.050	-0.370	0.740
2020/01/31 11:31:22.9	300.630	-0.070	-0.380	0.710
2020/01/31 11:31:23.0	300.600	-0.080	-0.390	0.680
2020/01/31 11:31:23.1	300.580	-0.100	-0.400	0.650
2020/01/31 11:31:23.2	300.560	-0.120	-0.410	0.620
2020/01/31 11:31:23.3	300.540	-0.130	-0.420	0.580
2020/01/31 11:31:23.4	300.520	-0.150	-0.420	0.550
2020/01/31 11:31:23.5	300.510	-0.160	-0.430	0.510
2020/01/31 11:31:23.6	300.490	-0.170	-0.440	0.480
2020/01/31 11:31:23.7	300.480	-0.190	-0.440	0.440
2020/01/31 11:31:23.8	300.460	-0.200	-0.440	0.400
2020/01/31 11:31:23.9	300.450	-0.210	-0.440	0.370
2020/01/31 11:31:24.0	300.440	-0.230	-0.450	0.330
2020/01/31 11:31:24.1	300.430	-0.240	-0.450	0.290
2020/01/31 11:31:24.2	300.430	-0.250	-0.450	0.250
2020/01/31 11:31:24.3	300.420	-0.260	-0.450	0.220
2020/01/31 11:31:24.4	300.420	-0.270	-0.450	0.180
2020/01/31 11:31:24.5	300.430	-0.270	-0.450	0.140
2020/01/31 11:31:24.6	300.430	-0.280	-0.450	0.100
2020/01/31 11:31:24.7	300.440	-0.290	-0.450	0.060
2020/01/31 11:31:24.8	300.450	-0.290	-0.450	0.030
2020/01/31 11:31:24.9	300.450	-0.300	-0.450	-0.010
2020/01/31 11:31:25.0	300.460	-0.300	-0.450	-0.050
2020/01/31 11:31:25.1	300.480	-0.300	-0.450	-0.090
2020/01/31 11:31:25.2	300.490	-0.300	-0.450	-0.120
2020/01/31 11:31:25.3	300.510	-0.300	-0.450	-0.150
2020/01/31 11:31:25.4	300.530	-0.300	-0.450	-0.190
2020/01/31 11:31:25.5	300.540	-0.300	-0.450	-0.220
2020/01/31 11:31:25.6	300.560	-0.300	-0.440	-0.250
2020/01/31 11:31:25.7	300.580	-0.300	-0.440	-0.280
2020/01/31 11:31:25.8	300.610	-0.290	-0.440	-0.300
2020/01/31 11:31:25.9	300.630	-0.290	-0.430	-0.330
2020/01/31 11:31:26.0	300.650	-0.290	-0.430	-0.350
2020/01/31 11:31:26.1	300.680	-0.280	-0.420	-0.370
2020/01/31 11:31:26.2	300.700	-0.280	-0.410	-0.390
2020/01/31 11:31:26.3	300.730	-0.270	-0.400	-0.400
2020/01/31 11:31:26.4	300.760	-0.260	-0.390	-0.420
2020/01/31 11:31:26.5	300.790	-0.260	-0.380	-0.430
2020/01/31 11:31:26.6	300.810	-0.250	-0.360	-0.430
2020/01/31 11:31:26.7	300.840	-0.250	-0.340	-0.440
2020/01/31 11:31:26.8	300.860	-0.240	-0.320	-0.440
2020/01/31 11:31:26.9	300.890	-0.230	-0.290	-0.440
2020/01/31 11:31:27.0	300.910	-0.230	-0.270	-0.430
2020/01/31 11:31:27.1	300.940	-0.220	-0.240	-0.430
2020/01/31 11:31:27.2	300.960	-0.220	-0.210	-0.420
2020/01/31 11:31:27.3	300.980	-0.210	-0.180	-0.400
2020/01/31 11:31:27.4	301.000	-0.210	-0.140	-0.390
2020/01/31 11:31:27.5	301.030	-0.200	-0.110	-0.370
2020/01/31 11:31:27.6	301.050	-0.200	-0.070	-0.340
2020/01/31 11:31:27.7	301.070	-0.190	-0.030	-0.320
2020/01/31 11:31:27.8	301.090	-0.190	0.000	-0.300
2020/01/31 11:31:27.9	301.110	-0.180	0.040	-0.270
2020/01/31 11:31:28.0	301.120	-0.180	0.080	-0.240
2020/01/31 11:31:28.1	301.140	-0.180	0.110	-0.210
2020/01/31 11:31:28.2	301.160	-0.170	0.150	-0.170
2020/01/31 11:31:28.3	301.170	-0.170	0.180	-0.140
2020/01/31 11:31:28.4	301.190	-0.170	0.210	-0.100
2020/01/31 11:31:28.5	301.210	-0.160	0.240	-0.060
2020/01/31 11:31:28.6	301.220	-0.160	0.270	-0.020
2020/01/31 11:31:28.7	301.230	-0.150	0.290	0.020
2020/01/31 11:31:28.8	301.240	-0.150	0.320	0.060
2020/01/31 11:31:28.9	301.250	-0.140	0.330	0.100
2020/01/31 11:31:29.0	301.260	-0.140	0.350	0.140
2020/01/31 11:31:29.1	301.270	-0.130	0.360	0.180
2020/01/31 11:31:29.2	301.280	-0.130	0.360	0.220
2020/01/31 11:31:29.3	301.280	-0.120	0.360	0.260
2020/01/31 11:31:29.4	301.290	-0.110	0.360	0.300
2020/01/31 11:31:29.5	301.310	-0.100	0.350	0.340
2020/01/31 11:31:29.6	301.320	-0.090	0.340	0.380
2020/01/31 11:31:29.7	301.320	-0.080	0.320	0.420
2020/01/31 11:31:29.8	301.320	-0.070	0.300	0.450
2020/01/31 11:31:29.9	301.320	-0.060	0.280	0.490
2020/01/31 11:31:30.0	301.320	-0.050	0.250	0.520
2020/01/31 11:31:30.1	301.320	-0.040	0.210	0.550
2020/01/31 11:31:30.2	301.320	-0.030	0.180	0.580
2020/01/31 11:31:30.3	301.320	-0.010	0.140	0.610
2020/01/31 11:31:30.4	301.320	0.000	0.090	0.630
2020/01/31 11:31:30.5	301.310	0.020	0.050	0.650
2020/01/31 11:31:30.6	301.310	0.030	-0.000	0.670
2020/01/31 11:31:30.7	301.310	0.050	-0.050	0.690
2020/01/31 11:31:30.8	301.300	0.070	-0.100	0.710
2020/01/31 11:31:30.9	301.300	0.080	-0.150	0.730
2020/01/31 11:31:31.0	301.290	0.100	-0.200	0.750
2020/01/31 11:31:31.1	301.290	0.120	-0.260	0.760
2020/01/31 11:31:31.2	301.280	0.130	-0.310	0.770
2020/01/31 11:31:31.3	301.270	0.150	-0.360	0.780
2020/01/31 11:31:31.4	301.270	0.160	-0.410	0.790
2020/01/31 11:31:31.5	301.250	0.180	-0.450	0.800
2020/01/31 11:31:31.6	301.240	0.190	-0.500	0.810
2020/01/31 11:31:31.7	301.230	0.210	-0.540	0.820
2020/01/31 11:31:31.8	301.210	0.220	-0.570	0.830
2020/01/31 11:31:31.9	301.200	0.230	-0.610	0.840
2020/01/31 11:31:32.0	301.180	0.240	-0.640	0.840
2020/01/31 11:31:32.1	301.160	0.250	-0.670	0.850
2020/01/31 11:31:32.2	301.140	0.260	-0.690	0.860
2020/01/31 11:31:32.3	301.120	0.260	-0.710	0.860
2020/01/31 11:31:32.4	301.100	0.260	-0.720	0.870
2020/01/31 11:31:32.5	301.070	0.270	-0.730	0.870
2020/01/31 11:31:32.6	301.050	0.270	-0.740	0.870
2020/01/31 11:31:32.7	301.020	0.260	-0.740	0.880
2020/01/31 11:31:32.8	301.000	0.260	-0.730	0.880
2020/01/31 11:31:32.9	300.970	0.260	-0.730	0.880
2020/01/31 11:31:33.0	300.940	0.250	-0.720	0.870
2020/01/31 11:31:33.1	300.910	0.240	-0.700	0.870
2020/01/31 11:31:33.2	300.880	0.230	-0.680	0.860
2020/01/31 11:31:33.3	300.860	0.220	-0.660	0.850
2020/01/31 11:31:33.4	300.830	0.200	-0.640	0.840
2020/01/31 11:31:33.5	300.800	0.190	-0.610	0.830
2020/01/31 11:31:33.6	300.770	0.170	-0.590	0.820
2020/01/31 11:31:33.7	300.740	0.160	-0.560	0.800
2020/01/31 11:31:33.8	300.720	0.140	-0.530	0.780
2020/01/31 11:31:33.9	300.690	0.120	-0.510	0.760
2020/01/31 11:31:34.0	300.670	0.100	-0.480	0.740
2020/01/31 11:31:34.1	300.640	0.090	-0.450	0.720
2020/01/31 11:31:34.2	300.620	0.070	-0.420	0.690
2020/01/31 11:31:34.3	300.600	0.050	-0.400	0.670
2020/01/31 11:31:34.4	300.580	0.040	-0.370	0.640
2020/01/31 11:31:34.5	300.570	0.020	-0.350	0.620
2020/01/31 11:31:34.6	300.560	0.010	-0.330	0.590
2020/01/31 11:31:34.7	300.540	-0.010	-0.310	0.560
2020/01/31 11:31:34.8	300.530	-0.020	-0.300	0.540
2020/01/31 11:31:34.9	300.520	-0.030	-0.280	0.510
2020/01/31 11:31:35.0	300.510	-0.040	-0.270	0.480
2020/01/31 11:31:35.1	300.510	-0.050	-0.260	0.450
2020/01/31 11:31:35.2	300.500	-0.050	-0.260	0.430
2020/01/31 11:31:35.3	300.500	-0.060	-0.260	0.400
2020/01/31 11:31:35.4	300.500	-0.060	-0.260	0.380
2020/01/31 11:31:35.5	300.490	-0.060	-0.260	0.350
2020/01/31 11:31:35.6	300.500	-0.060	-0.270	0.330
2020/01/31 11:31:35.7	300.500	-0.050	-0.270	0.310
2020/01/31 11:31:35.8	300.500	-0.050	-0.280	0.290
2020/01/31 11:31:35.9	300.500	-0.040	-0.290	0.270
2020/01/31 11:31:36.0	300.510	-0.030	-0.300	0.260
2020/01/31 11:31:36.1	300.510	-0.020	-0.320	0.240
2020/01/31 11:31:36.2	300.510	-0.000	-0.330	0.230
2020/01/31 11:31:36.3	300.520	0.010	-0.350	0.230
2020/01/31 11:31:36.4	300.530	0.030	-0.360	0.220
2020/01/31 11:31:36.5	300.540	0.040	-0.370	0.220
2020/01/31 11:31:36.6	300.540	0.060	-0.390	0.210
2020/01/31 11:31:36.7	300.550	0.080	-0.410	0.210
2020/01/31 11:31:36.8	300.560	0.100	-0.420	0.220
2020/01/31 11:31:36.9	300.570	0.120	-0.440	0.220
2020/01/31 11:31:37.0	300.570	0.140	-0.450	0.230
2020/01/31 11:31:37.1	300.580	0.160	-0.460	0.240
2020/01/31 11:31:37.2	300.590	0.180	-0.470	0.250
2020/01/31 11:31:37.3	300.600	0.200	-0.480	0.260
2020/01/31 11:31:37.4	300.610	0.220	-0.490	0.280
2020/01/31 11:31:37.5	300.610	0.240	-0.500	0.290
2020/01/31 11:31:37.6	300.620	0.250	-0.500	0.310
2020/01/31 11:31:37.7	300.630	0.270	-0.500	0.340
2020/01/31 11:31:37.8	300.640	0.280	-0.500	0.360
2020/01/31 11:31:37.9	300.650	0.290	-0.500	0.380
2020/01/31 11:31:38.0	300.660	0.310	-0.490	0.410
2020/01/31 11:31:38.1	300.670	0.310	-0.480	0.440
2020/01/31 11:31:38.2	300.670	0.320	-0.470	0.470
2020/01/31 11:31:38.3	300.680	0.320	-0.450	0.500
2020/01/31 11:31:38.4	300.690	0.330	-0.440	0.530
2020/01/31 11:31:38.5	300.710	0.330	-0.410	0.560
2020/01/31 11:31:38.6	300.720	0.320	-0.390	0.590
2020/01/31 11:31:38.7	300.730	0.320	-0.360	0.620
2020/01/31 11:31:38.8	300.730	0.310	-0.340	0.650
2020/01/31 11:31:38.9	300.740	0.300	-0.310	0.680
2020/01/31 11:31:39.0	300.740	0.290	-0.280	0.700
2020/01/31 11:31:39.1	300.750	0.270	-0.250	0.730
2020/01/31 11:31:39.2	300.750	0.260	-0.220	0.750
2020/01/31 11:31:39.3	300.760	0.240	-0.190	0.770
2020/01/31 11:31:39.4	300.760	0.220	-0.150	0.790
2020/01/31 11:31:39.5	300.750	0.200	-0.130	0.810
2020/01/31 11:31:39.6	300.760	0.170	-0.090	0.830
2020/01/31 11:31:39.7	300.760	0.150	-0.060	0.840
2020/01/31 11:31:39.8	300.770	0.120	-0.030	0.850
2020/01/31 11:31:39.9	300.770	0.090	0.000	0.850
2020/01/31 11:31:40.0	300.780	0.060	0.030	0.850
2020/01/31 11:31:40.1	300.780	0.040	0.060	0.850
2020/01/31 11:31:40.2	300.790	0.010	0.090	0.840
2020/01/31 11:31:40.3	300.800	-0.020	0.120	0.830
2020/01/31 11:31:40.4	300.800	-0.050	0.140	0.810
2020/01/31 11:31:40.5	300.820	-0.080	0.170	0.790
2020/01/31 11:31:40.6	300.830	-0.110	0.190	0.770
2020/01/31 11:31:40.7	300.830	-0.140	0.210	0.750
2020/01/31 11:31:40.8	300.840	-0.170	0.230	0.720
2020/01/31 11:31:40.9	300.850	-0.200	0.240	0.700
2020/01/31 11:31:41.0	300.860	-0.230	0.260	0.670
2020/01/31 11:31:41.1	300.860	-0.260	0.270	0.640
2020/01/31 11:31:41.2	300.870	-0.280	0.280	0.610
2020/01/31 11:31:41.3	300.880	-0.310	0.290	0.580
2020/01/31 11:31:41.4	300.880	-0.330	0.300	0.550
2020/01/31 11:31:41.5	300.890	-0.360	0.300	0.520
2020/01/31 11:31:41.6	300.890	-0.380	0.310	0.490
2020/01/31 11:31:41.7	300.890	-0.400	0.310	0.460
2020/01/31 11:31:41.8	300.900	-0.420	0.310	0.430
2020/01/31 11:31:41.9	300.900	-0.440	0.310	0.400
2020/01/31 11:31:42.0	300.900	-0.460	0.300	0.360
2020/01/31 11:31:42.1	300.900	-0.470	0.300	0.340
2020/01/31 11:31:42.2	300.890	-0.490	0.290	0.310
2020/01/31 11:31:42.3	300.890	-0.500	0.280	0.280
2020/01/31 11:31:42.4	300.890	-0.510	0.270	0.250
2020/01/31 11:31:42.5	300.870	-0.520	0.250	0.220
2020/01/31 11:31:42.6	300.870	-0.530	0.240	0.190
2020/01/31 11:31:42.7	300.860	-0.540	0.220	0.170
2020/01/31 11:31:42.8	300.850	-0.550	0.200	0.140
2020/01/31 11:31:42.9	300.850	-0.550	0.180	0.120
2020/01/31 11:31:43.0	300.840	-0.560	0.160	0.100
2020/01/31 11:31:43.1	300.830	-0.560	0.130	0.080
2020/01/31 11:31:43.2	300.820	-0.560	0.110	0.060
2020/01/31 11:31:43.3	300.820	-0.560	0.080	0.040
2020/01/31 11:31:43.4	300.810	-0.560	0.050	0.020
2020/01/31 11:31:43.5	300.800	-0.550	0.020	-0.000
2020/01/31 11:31:43.6	300.800	-0.550	-0.010	-0.020
2020/01/31 11:31:43.7	300.790	-0.540	-0.040	-0.030
2020/01/31 11:31:43.8	300.780	-0.530	-0.080	-0.040
2020/01/31 11:31:43.9	300.780	-0.520	-0.120	-0.050
2020/01/31 11:31:44.0	300.770	-0.510	-0.150	-0.060
2020/01/31 11:31:44.1	300.770	-0.500	-0.190	-0.070
2020/01/31 11:31:44.2	300.770	-0.480	-0.230	-0.080
2020/01/31 11:31:44.3	300.770	-0.470	-0.270	-0.080
2020/01/31 11:31:44.4	300.760	-0.450	-0.310	-0.080
2020/01/31 11:31:44.5	300.760	-0.430	-0.350	-0.080
2020/01/31 11:31:44.6	300.760	-0.410	-0.390	-0.070
2020/01/31 11:31:44.7	300.760	-0.390	-0.430	-0.070
2020/01/31 11:31:44.8	300.770	-0.370	-0.470	-0.060
2020/01/31 11:31:44.9	300.770	-0.350	-0.510	-0.050
2020/01/31 11:31:45.0	300.770	-0.330	-0.550	-0.030
2020/01/31 11:31:45.1	300.770	-0.300	-0.580	-0.020
2020/01/31 11:31:45.2	300.770	-0.280	-0.620	0.000
2020/01/31 11:31:45.3	300.770	-0.250	-0.650	0.030
2020/01/31 11:31:45.4	300.780	-0.220	-0.680	0.050
2020/01/31 11:31:45.5	300.780	-0.200	-0.700	0.080
2020/01/31 11:31:45.6	300.780	-0.170	-0.730	0.110
2020/01/31 11:31:45.7	300.780	-0.140	-0.750	0.140
2020/01/31 11:31:45.8	300.780	-0.110	-0.770	0.180
2020/01/31 11:31:45.9	300.780	-0.080	-0.790	0.220
2020/01/31 11:31:46.0	300.790	-0.050	-0.800	0.260
2020/01/31 11:31:46.1	300.790	-0.020	-0.810	0.310
2020/01/31 11:31:46.2	300.780	0.000	-0.820	0.350
2020/01/31 11:31:46.3	300.780	0.030	-0.830	0.400
2020/01/31 11:31:46.4	300.780	0.060	-0.830	0.450
2020/01/31 11:31:46.5	300.780	0.090	-0.830	0.500
2020/01/31 11:31:46.6	300.780	0.120	-0.820	0.550
2020/01/31 11:31:46.7	300.780	0.150	-0.810	0.600
2020/01/31 11:31:46.8	300.770	0.180	-0.800	0.660
2020/01/31 11:31:46.9	300.770	0.200	-0.790	0.710
2020/01/31 11:31:47.0	300.760	0.230	-0.770	0.770
2020/01/31 11:31:47.1	300.760	0.260	-0.760	0.820
2020/01/31 11:31:47.2	300.750	0.280	-0.740	0.880
2020/01/31 11:31:47.3	300.740	0.300	-0.710	0.940
2020/01/31 11:31:47.4	300.730	0.330	-0.690	0.990
2020/01/31 11:31:47.5	300.710	0.350	-0.660	1.050
2020/01/31 11:31:47.6	300.700	0.370	-0.640	1.100
2020/01/31 11:31:47.7	300.700	0.390	-0.610	1.160
2020/01/31 11:31:47.8	300.690	0.410	-0.580	1.210
2020/01/31 11:31:47.9	300.680	0.420	-0.550	1.260
2020/01/31 11:31:48.0	300.670	0.440	-0.520	1.310
2020/01/31 11:31:48.1	300.660	0.450	-0.490	1.360
2020/01/31 11:31:48.2	300.650	0.470	-0.470	1.410
2020/01/31 11:31:48.3	300.640	0.480	-0.440	1.450
2020/01/31 11:31:48.4	300.630	0.490	-0.410	1.490
2020/01/31 11:31:48.5	300.620	0.490	-0.390	1.530
2020/01/31 11:31:48.6	300.610	0.500	-0.360	1.560
2020/01/31 11:31:48.7	300.600	0.500	-0.330	1.590
2020/01/31 11:31:48.8	300.590	0.510	-0.310	1.620
2020/01/31 11:31:48.9	300.580	0.510	-0.290	1.640
2020/01/31 11:31:49.0	300.570	0.510	-0.270	1.660
2020/01/31 11:31:49.1	300.570	0.510	-0.250	1.670
2020/01/31 11:31:49.2	300.560	0.510	-0.240	1.680
2020/01/31 11:31:49.3	300.560	0.500	-0.220	1.680
2020/01/31 11:31:49.4	300.560	0.500	-0.210	1.680
2020/01/31 11:31:49.5	300.570	0.490	-0.190	1.670
2020/01/31 11:31:49.6	300.570	0.480	-0.190	1.660
2020/01/31 11:31:49.7	300.570	0.470	-0.180	1.640
2020/01/31 11:31:49.8	300.570	0.460	-0.170	1.620
2020/01/31 11:31:49.9	300.580	0.450	-0.170	1.590
2020/01/31 11:31:50.0	300.580	0.440	-0.160	1.560
2020/01/31 11:31:50.1	300.590	0.430	-0.160	1.530
2020/01/31 11:31:50.2	300.590	0.410	-0.160	1.490
2020/01/31 11:31:50.3	300.600	0.400	-0.160	1.450
2020/01/31 11:31:50.4	300.610	0.380	-0.160	1.400
2020/01/31 11:31:50.5	300.640	0.360	-0.160	1.350
2020/01/31 11:31:50.6	300.650	0.350	-0.150	1.300
2020/01/31 11:31:50.7	300.660	0.330	-0.150	1.240
2020/01/31 11:31:50.8	300.670	0.310	-0.150	1.190
2020/01/31 11:31:50.9	300.690	0.290	-0.140	1.130
2020/01/31 11:31:51.0	300.700	0.280	-0.140	1.070
2020/01/31 11:31:51.1	300.720	0.260	-0.130	1.010
2020/01/31 11:31:51.2	300.730	0.240	-0.130	0.950
2020/01/31 11:31:51.3	300.750	0.220	-0.120	0.890
2020/01/31 11:31:51.4	300.760	0.200	-0.110	0.830
2020/01/31 11:31:51.5	300.800	0.180	-0.100	0.770
2020/01/31 11:31:51.6	300.820	0.160	-0.090	0.710
2020/01/31 11:31:51.7	300.840	0.140	-0.080	0.660
2020/01/31 11:31:51.8	300.860	0.120	-0.070	0.600
2020/01/31 11:31:51.9	300.870	0.100	-0.060	0.540
2020/01/31 11:31:52.0	300.890	0.080	-0.050	0.490
2020/01/31 11:31:52.1	300.910	0.060	-0.040	0.440
2020/01/31 11:31:52.2	300.930	0.040	-0.020	0.390
2020/01/31 11:31:52.3	300.940	0.030	-0.010	0.340
2020/01/31 11:31:52.4	300.960	0.010	-0.000	0.300
2020/01/31 11:31:52.5	300.980	-0.010	0.010	0.250
2020/01/31 11:31:52.6	300.990	-0.030	0.020	0.210
2020/01/31 11:31:52.7	301.010	-0.040	0.030	0.170
2020/01/31 11:31:52.8	301.020	-0.060	0.040	0.140
2020/01/31 11:31:52.9	301.040	-0.070	0.050	0.100
2020/01/31 11:31:53.0	301.050	-0.090	0.050	0.070
2020/01/31 11:31:53.1	301.070	-0.100	0.060	0.040
2020/01/31 11:31:53.2	301.080	-0.110	0.060	0.010
2020/01/31 11:31:53.3	301.090	-0.120	0.070	-0.010
2020/01/31 11:31:53.4	301.110	-0.130	0.070	-0.040
2020/01/31 11:31:53.5	301.120	-0.140	0.060	-0.060
2020/01/31 11:31:53.6	301.130	-0.150	0.060	-0.080
2020/01/31 11:31:53.7	301.140	-0.160	0.060	-0.100
2020/01/31 11:31:53.8	301.150	-0.170	0.060	-0.110
2020/01/31 11:31:53.9	301.160	-0.170	0.050	-0.130
2020/01/31 11:31:54.0	301.170	-0.180	0.050	-0.140
2020/01/31 11:31:54.1	301.180	-0.180	0.040	-0.150
2020/01/31 11:31:54.2	301.190	-0.190	0.030	-0.150
2020/01/31 11:31:54.3	301.190	-0.190	0.020	-0.150
2020/01/31 11:31:54.4	301.190	-0.190	0.010	-0.150
2020/01/31 11:31:54.5	301.200	-0.190	0.000	-0.150
2020/01/31 11:31:54.6	301.200	-0.190	-0.010	-0.150
2020/01/31 11:31:54.7	301.200	-0.190	-0.020	-0.140
2020/01/31 11:31:54.8	301.190	-0.190	-0.030	-0.130
2020/01/31 11:31:54.9	301.190	-0.190	-0.040	-0.120
2020/01/31 11:31:55.0	301.180	-0.190	-0.050	-0.110
2020/01/31 11:31:55.1	301.170	-0.180	-0.060	-0.090
2020/01/31 11:31:55.2	301.160	-0.180	-0.080	-0.080
2020/01/31 11:31:55.3	301.150	-0.180	-0.090	-0.060
2020/01/31 11:31:55.4	301.140	-0.170	-0.100	-0.040
2020/01/31 11:31:55.5	301.130	-0.170	-0.120	-0.030
2020/01/31 11:31:55.6	301.120	-0.160	-0.130	-0.010
2020/01/31 11:31:55.7	301.110	-0.150	-0.140	0.010
2020/01/31 11:31:55.8	301.100	-0.150	-0.160	0.030
2020/01/31 11:31:55.9	301.080	-0.140	-0.170	0.050
2020/01/31 11:31:56.0	301.070	-0.140	-0.190	0.070
2020/01/31 11:31:56.1	301.060	-0.130	-0.210	0.080
2020/01/31 11:31:56.2	301.050	-0.120	-0.230	0.100
2020/01/31 11:31:56.3	301.040	-0.110	-0.240	0.120
2020/01/31 11:31:56.4	301.030	-0.110	-0.260	0.140
2020/01/31 11:31:56.5	301.010	-0.100	-0.280	0.160
2020/01/31 11:31:56.6	301.000	-0.090	-0.300	0.170
2020/01/31 11:31:56.7	300.990	-0.080	-0.320	0.190
2020/01/31 11:31:56.8	300.980	-0.080	-0.340	0.210
2020/01/31 11:31:56.9	300.970	-0.070	-0.360	0.220
2020/01/31 11:31:57.0	300.960	-0.060	-0.380	0.240
2020/01/31 11:31:57.1	300.950	-0.050	-0.400	0.260
2020/01/31 11:31:57.2	300.940	-0.050	-0.420	0.270
2020/01/31 11:31:57.3	300.930	-0.040	-0.430	0.290
2020/01/31 11:31:57.4	300.920	-0.030	-0.450	0.310
2020/01/31 11:31:57.5	300.900	-0.030	-0.460	0.320
2020/01/31 11:31:57.6	300.890	-0.020	-0.480	0.340
2020/01/31 11:31:57.7	300.880	-0.020	-0.490	0.360
2020/01/31 11:31:57.8	300.870	-0.010	-0.500	0.380
2020/01/31 11:31:57.9	300.860	-0.010	-0.510	0.390
2020/01/31 11:31:58.0	300.850	-0.010	-0.510	0.410
2020/01/31 11:31:58.1	300.840	-0.010	-0.520	0.430
2020/01/31 11:31:58.2	300.830	-0.010	-0.520	0.450
2020/01/31 11:31:58.3	300.820	-0.010	-0.530	0.460
2020/01/31 11:31:58.4	300.810	-0.010	-0.530	0.480
2020/01/31 11:31:58.5	300.780	-0.010	-0.530	0.500
2020/01/31 11:31:58.6	300.770	-0.010	-0.530	0.510
2020/01/31 11:31:58.7	300.760	-0.020	-0.520	0.530
2020/01/31 11:31:58.8	300.750	-0.020	-0.510	0.550
2020/01/31 11:31:58.9	300.740	-0.020	-0.510	0.560
2020/01/31 11:31:59.0	300.730	-0.030	-0.500	0.580
2020/01/31 11:31:59.1	300.720	-0.040	-0.490	0.590
2020/01/31 11:31:59.2	300.710	-0.050	-0.480	0.610
2020/01/31 11:31:59.3	300.700	-0.050	-0.460	0.620
2020/01/31 11:31:59.4	300.690	-0.060	-0.450	0.630
2020/01/31 11:31:59.5	300.680	-0.070	-0.430	0.640
2020/01/31 11:31:59.6	300.670	-0.080	-0.420	0.660
2020/01/31 11:31:59.7	300.660	-0.100	-0.400	0.670
2020/01/31 11:31:59.8	300.660	-0.110	-0.390	0.670
2020/01/31 11:31:59.9	300.650	-0.120	-0.380	0.680
2020/01/31 11:32:00.0	300.650	-0.130	-0.360	0.690
2020/01/31 11:32:00.1	300.640	-0.140	-0.350	0.700
2020/01/31 11:32:00.2	300.640	-0.160	-0.340	0.700
2020/01/31 11:32:00.3	300.630	-0.170	-0.330	0.700
2020/01/31 11:32:00.4	300.630	-0.180	-0.320	0.700
2020/01/31 11:32:00.5	300.610	-0.190	-0.310	0.710
2020/01/31 11:32:00.6	300.600	-0.200	-0.300	0.710
2020/01/31 11:32:00.7	300.600	-0.210	-0.300	0.710
2020/01/31 11:32:00.8	300.600	-0.220	-0.290	0.700
2020/01/31 11:32:00.9	300.600	-0.230	-0.290	0.700
2020/01/31 11:32:01.0	300.600	-0.240	-0.280	0.690
2020/01/31 11:32:01.1	300.610	-0.250	-0.280	0.690
2020/01/31 11:32:01.2	300.610	-0.250	-0.280	0.680
2020/01/31 11:32:01.3	300.610	-0.260	-0.270	0.680
2020/01/31 11:32:01.4	300.610	-0.260	-0.270	0.670
2020/01/31 11:32:01.5	300.610	-0.260	-0.270	0.660
2020/01/31 11:32:01.6	300.610	-0.260	-0.270	0.660
2020/01/31 11:32:01.7	300.610	-0.260	-0.270	0.660
2020/01/31 11:32:01.8	300.610	-0.260	-0.270	0.650
2020/01/31 11:32:01.9	300.610	-0.250	-0.270	0.650
2020/01/31 11:32:02.0	300.610	-0.240	-0.270	0.650
2020/01/31 11:32:02.1	300.610	-0.240	-0.270	0.650
2020/01/31 11:32:02.2	300.610	-0.230	-0.260	0.650
2020/01/31 11:32:02.3	300.600	-0.210	-0.260	0.650
2020/01/31 11:32:02.4	300.600	-0.200	-0.260	0.660
2020/01/31 11:32:02.5	300.600	-0.190	-0.260	0.660
2020/01/31 11:32:02.6	300.600	-0.170	-0.260	0.670
2020/01/31 11:32:02.7	300.590	-0.160	-0.250	0.670
2020/01/31 11:32:02.8	300.590	-0.140	-0.250	0.680
2020/01/31 11:32:02.9	300.590	-0.120	-0.240	0.680
2020/01/31 11:32:03.0	300.580	-0.100	-0.240	0.690
2020/01/31 11:32:03.1	300.580	-0.080	-0.230	0.690
2020/01/31 11:32:03.2	300.580	-0.060	-0.230	0.690
2020/01/31 11:32:03.3	300.580	-0.040	-0.220	0.700
2020/01/31 11:32:03.4	300.580	-0.020	-0.220	0.700
2020/01/31 11:32:03.5	300.580	0.010	-0.210	0.700
2020/01/31 11:32:03.6	300.590	0.030	-0.200	0.700
2020/01/31 11:32:03.7	300.590	0.050	-0.200	0.700
2020/01/31 11:32:03.8	300.590	0.070	-0.190	0.700
2020/01/31 11:32:03.9	300.590	0.090	-0.190	0.700
2020/01/31 11:32:04.0	300.600	0.110	-0.180	0.690
2020/01/31 11:32:04.1	300.600	0.130	-0.170	0.690
2020/01/31 11:32:04.2	300.610	0.150	-0.170	0.680
2020/01/31 11:32:04.3	300.610	0.170	-0.160	0.680
2020/01/31 11:32:04.4	300.620	0.190	-0.150	0.670
2020/01/31 11:32:04.5	300.620	0.210	-0.150	0.670
2020/01/31 11:32:04.6	300.620	0.230	-0.140	0.660
2020/01/31 11:32:04.7	300.630	0.240	-0.130	0.650
2020/01/31 11:32:04.8	300.640	0.260	-0.120	0.640
2020/01/31 11:32:04.9	300.650	0.270	-0.110	0.640
2020/01/31 11:32:05.0	300.650	0.290	-0.100	0.630
2020/01/31 11:32:05.1	300.660	0.300	-0.090	0.620
2020/01/31 11:32:05.2	300.670	0.310	-0.080	0.610
2020/01/31 11:32:05.3	300.680	0.320	-0.070	0.600
2020/01/31 11:32:05.4	300.680	0.330	-0.060	0.590
2020/01/31 11:32:05.5	300.700	0.340	-0.050	0.570
2020/01/31 11:32:05.6	300.700	0.350	-0.040	0.560
2020/01/31 11:32:05.7	300.710	0.360	-0.040	0.550
2020/01/31 11:32:05.8	300.720	0.370	-0.030	0.540
2020/01/31 11:32:05.9	300.730	0.370	-0.030	0.530
2020/01/31 11:32:06.0	300.740	0.380	-0.020	0.520
2020/01/31 11:32:06.1	300.750	0.390	-0.020	0.510
2020/01/31 11:32:06.2	300.750	0.390	-0.020	0.500
2020/01/31 11:32:06.3	300.760	0.400	-0.020	0.490
2020/01/31 11:32:06.4	300.770	0.400	-0.020	0.470
2020/01/31 11:32:06.5	300.780	0.410	-0.030	0.460
2020/01/31 11:32:06.6	300.790	0.410	-0.040	0.450
2020/01/31 11:32:06.7	300.800	0.420	-0.050	0.440
2020/01/31 11:32:06.8	300.810	0.420	-0.060	0.430
2020/01/31 11:32:06.9	300.830	0.430	-0.070	0.420
2020/01/31 11:32:07.0	300.840	0.430	-0.080	0.410
2020/01/31 11:32:07.1	300.850	0.430	-0.100	0.400
2020/01/31 11:32:07.2	300.860	0.440	-0.120	0.390
2020/01/31 11:32:07.3	300.880	0.440	-0.140	0.380
2020/01/31 11:32:07.4	300.890	0.440	-0.160	0.370
2020/01/31 11:32:07.5	300.910	0.440	-0.180	0.360
2020/01/31 11:32:07.6	300.920	0.450	-0.200	0.350
2020/01/31 11:32:07.7	300.930	0.450	-0.220	0.350
2020/01/31 11:32:07.8	300.940	0.450	-0.240	0.340
2020/01/31 11:32:07.9	300.950	0.450	-0.270	0.340
2020/01/31 11:32:08.0	300.960	0.450	-0.290	0.340
2020/01/31 11:32:08.1	300.960	0.440	-0.310	0.340
2020/01/31 11:32:08.2	300.970	0.440	-0.330	0.340
2020/01/31 11:32:08.3	300.970	0.430	-0.350	0.340
2020/01/31 11:32:08.4	300.970	0.430	-0.370	0.340
2020/01/31 11:32:08.5	300.970	0.420	-0.390	0.350
2020/01/31 11:32:08.6	300.960	0.410	-0.410	0.350
2020/01/31 11:32:08.7	300.960	0.400	-0.420	0.360
2020/01/31 11:32:08.8	300.960	0.390	-0.430	0.370
2020/01/31 11:32:08.9	300.950	0.370	-0.440	0.380
2020/01/31 11:32:09.0	300.940	0.360	-0.450	0.390
2020/01/31 11:32:09.1	300.930	0.340	-0.460	0.400
2020/01/31 11:32:09.2	300.920	0.320	-0.460	0.410
2020/01/31 11:32:09.3	300.910	0.300	-0.460	0.430
2020/01/31 11:32:09.4	300.890	0.280	-0.460	0.440
2020/01/31 11:32:09.5	300.880	0.250	-0.460	0.450
2020/01/31 11:32:09.6	300.870	0.230	-0.450	0.460
2020/01/31 11:32:09.7	300.850	0.200	-0.440	0.470
2020/01/31 11:32:09.8	300.830	0.170	-0.440	0.480
2020/01/31 11:32:09.9	300.810	0.140	-0.430	0.490
2020/01/31 11:32:10.0	300.800	0.110	-0.410	0.500
2020/01/31 11:32:10.1	300.780	0.080	-0.400	0.510
2020/01/31 11:32:10.2	300.760	0.040	-0.380	0.520
2020/01/31 11:32:10.3	300.740	0.010	-0.370	0.530
2020/01/31 11:32:10.4	300.720	-0.030	-0.350	0.530
2020/01/31 11:32:10.5	300.700	-0.060	-0.340	0.540
2020/01/31 11:32:10.6	300.680	-0.100	-0.320	0.540
2020/01/31 11:32:10.7	300.660	-0.140	-0.300	0.550
2020/01/31 11:32:10.8	300.640	-0.170	-0.280	0.550
2020/01/31 11:32:10.9	300.620	-0.210	-0.260	0.550
2020/01/31 11:32:11.0	300.590	-0.240	-0.250	0.550
2020/01/31 11:32:11.1	300.570	-0.270	-0.230	0.550
2020/01/31 11:32:11.2	300.550	-0.300	-0.210	0.550
2020/01/31 11:32:11.3	300.530	-0.330	-0.200	0.550
2020/01/31 11:32:11.4	300.510	-0.360	-0.180	0.550
2020/01/31 11:32:11.5	300.490	-0.390	-0.170	0.540
2020/01/31 11:32:11.6	300.470	-0.410	-0.160	0.540
2020/01/31 11:32:11.7	300.450	-0.440	-0.150	0.540
2020/01/31 11:32:11.8	300.430	-0.460	-0.130	0.540
2020/01/31 11:32:11.9	300.410	-0.480	-0.130	0.540
2020/01/31 11:32:12.0	300.390	-0.490	-0.120	0.530
2020/01/31 11:32:12.1	300.370	-0.500	-0.110	0.530
2020/01/31 11:32:12.2	300.350	-0.520	-0.110	0.530
2020/01/31 11:32:12.3	300.330	-0.520	-0.110	0.530
2020/01/31 11:32:12.4	300.320	-0.530	-0.110	0.530
2020/01/31 11:32:12.5	300.290	-0.530	-0.110	0.530
2020/01/31 11:32:12.6	300.280	-0.530	-0.110	0.520
2020/01/31 11:32:12.7	300.270	-0.530	-0.120	0.520
2020/01/31 11:32:12.8	300.260	-0.530	-0.130	0.520
2020/01/31 11:32:12.9	300.250	-0.520	-0.140	0.520
2020/01/31 11:32:13.0	300.240	-0.510	-0.150	0.520
2020/01/31 11:32:13.1	300.230	-0.500	-0.170	0.520
2020/01/31 11:32:13.2	300.230	-0.490	-0.180	0.510
2020/01/31 11:32:13.3	300.230	-0.470	-0.200	0.510
2020/01/31 11:32:13.4	300.230	-0.460	-0.220	0.510
2020/01/31 11:32:13.5	300.250	-0.440	-0.240	0.500
2020/01/31 11:32:13.6	300.250	-0.420	-0.270	0.500
2020/01/31 11:32:13.7	300.250	-0.400	-0.290	0.500
2020/01/31 11:32:13.8	300.260	-0.380	-0.320	0.490
2020/01/31 11:32:13.9	300.260	-0.360	-0.340	0.490
2020/01/31 11:32:14.0	300.270	-0.340	-0.370	0.480
2020/01/31 11:32:14.1	300.280	-0.320	-0.390	0.480
2020/01/31 11:32:14.2	300.280	-0.290	-0.420	0.480
2020/01/31 11:32:14.3	300.290	-0.270	-0.440	0.470
2020/01/31 11:32:14.4	300.300	-0.250	-0.460	0.470
2020/01/31 11:32:14.5	300.310	-0.220	-0.480	0.470
2020/01/31 11:32:14.6	300.320	-0.200	-0.500	0.470
2020/01/31 11:32:14.7	300.330	-0.180	-0.520	0.470
2020/01/31 11:32:14.8	300.330	-0.160	-0.530	0.470
2020/01/31 11:32:14.9	300.340	-0.140	-0.540	0.470
2020/01/31 11:32:15.0	300.350	-0.120	-0.550	0.470
2020/01/31 11:32:15.1	300.360	-0.100	-0.550	0.480
2020/01/31 11:32:15.2	300.360	-0.080	-0.550	0.480
2020/01/31 11:32:15.3	300.370	-0.060	-0.550	0.490
2020/01/31 11:32:15.4	300.380	-0.050	-0.540	0.500
2020/01/31 11:32:15.5	300.380	-0.030	-0.520	0.500
2020/01/31 11:32:15.6	300.390	-0.020	-0.510	0.510
2020/01/31 11:32:15.7	300.400	-0.010	-0.490	0.520
2020/01/31 11:32:15.8	300.400	0.000	-0.470	0.540
2020/01/31 11:32:15.9	300.410	0.010	-0.440	0.550
2020/01/31 11:32:16.0	300.420	0.020	-0.410	0.560
2020/01/31 11:32:16.1	300.420	0.030	-0.380	0.580
2020/01/31 11:32:16.2	300.430	0.040	-0.350	0.590
2020/01/31 11:32:16.3	300.440	0.040	-0.310	0.610
2020/01/31 11:32:16.4	300.450	0.050	-0.280	0.620
2020/01/31 11:32:16.5	300.450	0.050	-0.240	0.640
2020/01/31 11:32:16.6	300.460	0.060	-0.200	0.650
2020/01/31 11:32:16.7	300.470	0.060	-0.160	0.670
2020/01/31 11:32:16.8	300.470	0.060	-0.110	0.690
2020/01/31 11:32:16.9	300.480	0.060	-0.070	0.700
2020/01/31 11:32:17.0	300.490	0.060	-0.030	0.720
2020/01/31 11:32:17.1	300.500	0.060	0.010	0.740
2020/01/31 11:32:17.2	300.510	0.060	0.050	0.750
2020/01/31 11:32:17.3	300.520	0.060	0.090	0.770
2020/01/31 11:32:17.4	300.520	0.060	0.120	0.780
2020/01/31 11:32:17.5	300.550	0.060	0.160	0.790
2020/01/31 11:32:17.6	300.550	0.060	0.190	0.810
2020/01/31 11:32:17.7	300.560	0.060	0.220	0.820
2020/01/31 11:32:17.8	300.570	0.060	0.240	0.830
2020/01/31 11:32:17.9	300.570	0.060	0.270	0.840
2020/01/31 11:32:18.0	300.580	0.060	0.290	0.840
2020/01/31 11:32:18.1	300.590	0.050	0.310	0.850
2020/01/31 11:32:18.2	300.590	0.050	0.320	0.850
2020/01/31 11:32:18.3	300.590	0.050	0.330	0.850
2020/01/31 11:32:18.4	300.600	0.050	0.340	0.850
2020/01/31 11:32:18.5	300.590	0.060	0.340	0.850
2020/01/31 11:32:18.6	300.590	0.060	0.330	0.850
2020/01/31 11:32:18.7	300.600	0.060	0.330	0.850
2020/01/31 11:32:18.8	300.600	0.060	0.320	0.840
2020/01/31 11:32:18.9	300.600	0.060	0.310	0.840
2020/01/31 11:32:19.0	300.600	0.060	0.300	0.830
2020/01/31 11:32:19.1	300.600	0.070	0.280	0.830
2020/01/31 11:32:19.2	300.590	0.070	0.260	0.820
2020/01/31 11:32:19.3	300.590	0.070	0.240	0.810
2020/01/31 11:32:19.4	300.590	0.080	0.210	0.800
2020/01/31 11:32:19.5	300.580	0.080	0.190	0.790
2020/01/31 11:32:19.6	300.570	0.090	0.160	0.780
2020/01/31 11:32:19.7	300.570	0.090	0.120	0.770
2020/01/31 11:32:19.8	300.570	0.100	0.090	0.760
2020/01/31 11:32:19.9	300.560	0.110	0.060	0.740
2020/01/31 11:32:20.0	300.560	0.110	0.020	0.730
2020/01/31 11:32:20.1	300.550	0.120	-0.020	0.720
2020/01/31 11:32:20.2	300.550	0.120	-0.060	0.710
2020/01/31 11:32:20.3	300.550	0.130	-0.100	0.700
2020/01/31 11:32:20.4	300.540	0.140	-0.140	0.680
2020/01/31 11:32:20.5	300.530	0.140	-0.180	0.670
2020/01/31 11:32:20.6	300.530	0.150	-0.230	0.660
2020/01/31 11:32:20.7	300.520	0.160	-0.270	0.650
2020/01/31 11:32:20.8	300.520	0.170	-0.310	0.640
2020/01/31 11:32:20.9	300.510	0.170	-0.350	0.630
2020/01/31 11:32:21.0	300.510	0.180	-0.390	0.620
2020/01/31 11:32:21.1	300.500	0.190	-0.430	0.610
2020/01/31 11:32:21.2	300.500	0.200	-0.460	0.600
2020/01/31 11:32:21.3	300.500	0.210	-0.500	0.590
2020/01/31 11:32:21.4	300.490	0.210	-0.540	0.580
2020/01/31 11:32:21.5	300.480	0.220	-0.570	0.580
2020/01/31 11:32:21.6	300.480	0.230	-0.600	0.570
2020/01/31 11:32:21.7	300.480	0.240	-0.640	0.560
2020/01/31 11:32:21.8	300.480	0.250	-0.660	0.560
2020/01/31 11:32:21.9	300.480	0.250	-0.690	0.550
2020/01/31 11:32:22.0	300.470	0.260	-0.720	0.540
2020/01/31 11:32:22.1	300.470	0.270	-0.740	0.540
2020/01/31 11:32:22.2	300.470	0.280	-0.770	0.540
2020/01/31 11:32:22.3	300.470	0.280	-0.790	0.530
2020/01/31 11:32:22.4	300.470	0.290	-0.810	0.530
2020/01/31 11:32:22.5	300.470	0.300	-0.820	0.520
2020/01/31 11:32:22.6	300.470	0.300	-0.840	0.520
2020/01/31 11:32:22.7	300.470	0.310	-0.850	0.520
2020/01/31 11:32:22.8	300.470	0.320	-0.860	0.520
2020/01/31 11:32:22.9	300.480	0.320	-0.870	0.520
2020/01/31 11:32:23.0	300.480	0.320	-0.880	0.520
2020/01/31 11:32:23.1	300.480	0.330	-0.880	0.520
2020/01/31 11:32:23.2	300.480	0.330	-0.890	0.520
2020/01/31 11:32:23.3	300.480	0.330	-0.890	0.520
2020/01/31 11:32:23.4	300.480	0.340	-0.890	0.520
2020/01/31 11:32:23.5	300.490	0.340	-0.880	0.530
2020/01/31 11:32:23.6	300.490	0.340	-0.880	0.530
2020/01/31 11:32:23.7	300.490	0.340	-0.870	0.530
2020/01/31 11:32:23.8	300.490	0.330	-0.860	0.540
2020/01/31 11:32:23.9	300.490	0.330	-0.850	0.540
2020/01/31 11:32:24.0	300.490	0.330	-0.840	0.550
2020/01/31 11:32:24.1	300.490	0.320	-0.820	0.550
2020/01/31 11:32:24.2	300.490	0.320	-0.810	0.560
2020/01/31 11:32:24.3	300.490	0.310	-0.790	0.560
2020/01/31 11:32:24.4	300.490	0.300	-0.770	0.570
2020/01/31 11:32:24.5	300.490	0.300	-0.750	0.570
2020/01/31 11:32:24.6	300.490	0.290	-0.730	0.580
2020/01/31 11:32:24.7	300.490	0.280	-0.710	0.580
2020/01/31 11:32:24.8	300.490	0.270	-0.680	0.590
2020/01/31 11:32:24.9	300.490	0.250	-0.660	0.590
2020/01/31 11:32:25.0	300.490	0.240	-0.630	0.600
2020/01/31 11:32:25.1	300.490	0.230	-0.600	0.600
2020/01/31 11:32:25.2	300.480	0.210	-0.570	0.610
2020/01/31 11:32:25.3	300.480	0.200	-0.550	0.610
2020/01/31 11:32:25.4	300.480	0.180	-0.520	0.620
2020/01/31 11:32:25.5	300.480	0.160	-0.480	0.620
2020/01/31 11:32:25.6	300.480	0.150	-0.450	0.630
2020/01/31 11:32:25.7	300.480	0.130	-0.420	0.630
2020/01/31 11:32:25.8	300.470	0.110	-0.390	0.640
2020/01/31 11:32:25.9	300.470	0.090	-0.350	0.640
2020/01/31 11:32:26.0	300.460	0.070	-0.320	0.650
2020/01/31 11:32:26.1	300.460	0.040	-0.280	0.650
2020/01/31 11:32:26.2	300.450	0.020	-0.250	0.660
2020/01/31 11:32:26.3	300.450	-0.000	-0.210	0.660
2020/01/31 11:32:26.4	300.440	-0.020	-0.170	0.670
2020/01/31 11:32:26.5	300.440	-0.050	-0.140	0.670
2020/01/31 11:32:26.6	300.430	-0.070	-0.100	0.670
2020/01/31 11:32:26.7	300.430	-0.100	-0.060	0.670
2020/01/31 11:32:26.8	300.420	-0.120	-0.020	0.680
2020/01/31 11:32:26.9	300.420	-0.150	0.020	0.680
2020/01/31 11:32:27.0	300.410	-0.180	0.060	0.680
2020/01/31 11:32:27.1	300.410	-0.200	0.100	0.670
2020/01/31 11:32:27.2	300.410	-0.230	0.140	0.670
2020/01/31 11:32:27.3	300.400	-0.250	0.180	0.670
2020/01/31 11:32:27.4	300.400	-0.280	0.220	0.670
2020/01/31 11:32:27.5	300.390	-0.310	0.260	0.670
2020/01/31 11:32:27.6	300.390	-0.330	0.300	0.660
2020/01/31 11:32:27.7	300.380	-0.360	0.340	0.660
2020/01/31 11:32:27.8	300.380	-0.380	0.380	0.650
2020/01/31 11:32:27.9	300.380	-0.410	0.420	0.650
2020/01/31 11:32:28.0	300.370	-0.430	0.450	0.640
2020/01/31 11:32:28.1	300.370	-0.450	0.490	0.640
2020/01/31 11:32:28.2	300.360	-0.480	0.520	0.630
2020/01/31 11:32:28.3	300.360	-0.500	0.550	0.620
2020/01/31 11:32:28.4	300.350	-0.520	0.580	0.620
2020/01/31 11:32:28.5	300.340	-0.540	0.610	0.610
2020/01/31 11:32:28.6	300.340	-0.560	0.630	0.600
2020/01/31 11:32:28.7	300.330	-0.570	0.650	0.590
2020/01/31 11:32:28.8	300.330	-0.590	0.670	0.580
2020/01/31 11:32:28.9	300.320	-0.600	0.680	0.570
2020/01/31 11:32:29.0	300.320	-0.620	0.690	0.560
2020/01/31 11:32:29.1	300.310	-0.630	0.700	0.550
2020/01/31 11:32:29.2	300.310	-0.640	0.700	0.540
2020/01/31 11:32:29.3	300.300	-0.640	0.700	0.530
2020/01/31 11:32:29.4	300.300	-0.650	0.700	0.510
2020/01/31 11:32:29.5	300.280	-0.650	0.690	0.490
2020/01/31 11:32:29.6	300.280	-0.660	0.670	0.480
2020/01/31 11:32:29.7	300.280	-0.660	0.650	0.460
2020/01/31 11:32:29.8	300.270	-0.650	0.630	0.440
2020/01/31 11:32:29.9	300.270	-0.650	0.600	0.420
2020/01/31 11:32:30.0	300.270	-0.640	0.570	0.400
2020/01/31 11:32:30.1	300.270	-0.640	0.530	0.380
2020/01/31 11:32:30.2	300.270	-0.630	0.490	0.360
2020/01/31 11:32:30.3	300.280	-0.610	0.440	0.330
2020/01/31 11:32:30.4	300.280	-0.600	0.390	0.310
2020/01/31 11:32:30.5	300.300	-0.580	0.330	0.290
2020/01/31 11:32:30.6	300.300	-0.560	0.280	0.260
2020/01/31 11:32:30.7	300.310	-0.540	0.220	0.230
2020/01/31 11:32:30.8	300.320	-0.520	0.150	0.210
2020/01/31 11:32:30.9	300.330	-0.500	0.090	0.180
2020/01/31 11:32:31.0	300.340	-0.470	0.020	0.160
2020/01/31 11:32:31.1	300.350	-0.440	-0.050	0.140
2020/01/31 11:32:31.2	300.360	-0.420	-0.120	0.120
2020/01/31 11:32:31.3	300.380	-0.390	-0.190	0.100
2020/01/31 11:32:31.4	300.390	-0.350	-0.260	0.080
2020/01/31 11:32:31.5	300.400	-0.320	-0.330	0.060
2020/01/31 11:32:31.6	300.420	-0.290	-0.390	0.050
2020/01/31 11:32:31.7	300.430	-0.260	-0.460	0.040
2020/01/31 11:32:31.8	300.440	-0.220	-0.530	0.030
2020/01/31 11:32:31.9	300.450	-0.190	-0.590	0.020
2020/01/31 11:32:32.0	300.460	-0.160	-0.650	0.020
2020/01/31 11:32:32.1	300.470	-0.120	-0.710	0.020
2020/01/31 11:32:32.2	300.480	-0.090	-0.760	0.030
2020/01/31 11:32:32.3	300.490	-0.050	-0.810	0.030
2020/01/31 11:32:32.4	300.500	-0.020	-0.860	0.040
2020/01/31 11:32:32.5	300.520	0.020	-0.900	0.050
2020/01/31 11:32:32.6	300.530	0.050	-0.940	0.070
2020/01/31 11:32:32.7	300.530	0.080	-0.970	0.090
2020/01/31 11:32:32.8	300.540	0.120	-1.000	0.110
2020/01/31 11:32:32.9	300.550	0.150	-1.030	0.130
2020/01/31 11:32:33.0	300.550	0.180	-1.050	0.160
2020/01/31 11:32:33.1	300.560	0.210	-1.070	0.190
2020/01/31 11:32:33.2	300.560	0.240	-1.080	0.220
2020/01/31 11:32:33.3	300.560	0.270	-1.090	0.260
2020/01/31 11:32:33.4	300.570	0.300	-1.090	0.300
2020/01/31 11:32:33.5	300.570	0.330	-1.090	0.340
2020/01/31 11:32:33.6	300.580	0.350	-1.090	0.380
2020/01/31 11:32:33.7	300.580	0.380	-1.080	0.420
2020/01/31 11:32:33.8	300.580	0.400	-1.070	0.470
2020/01/31 11:32:33.9	300.580	0.430	-1.050	0.510
2020/01/31 11:32:34.0	300.580	0.450	-1.030	0.550
2020/01/31 11:32:34.1	300.580	0.470	-1.010	0.600
2020/01/31 11:32:34.2	300.580	0.490	-0.980	0.640
2020/01/31 11:32:34.3	300.580	0.500	-0.950	0.690
2020/01/31 11:32:34.4	300.580	0.520	-0.920	0.730
2020/01/31 11:32:34.5	300.570	0.530	-0.890	0.780
2020/01/31 11:32:34.6	300.570	0.540	-0.850	0.820
2020/01/31 11:32:34.7	300.570	0.550	-0.810	0.860
2020/01/31 11:32:34.8	300.570	0.560	-0.770	0.900
2020/01/31 11:32:34.9	300.560	0.570	-0.730	0.940
2020/01/31 11:32:35.0	300.560	0.570	-0.690	0.980
2020/01/31 11:32:35.1	300.560	0.580	-0.650	1.020
2020/01/31 11:32:35.2	300.560	0.580	-0.600	1.050
2020/01/31 11:32:35.3	300.560	0.580	-0.560	1.090
2020/01/31 11:32:35.4	300.550	0.570	-0.520	1.120
2020/01/31 11:32:35.5	300.550	0.570	-0.470	1.150
2020/01/31 11:32:35.6	300.550	0.560	-0.430	1.180
2020/01/31 11:32:35.7	300.550	0.550	-0.390	1.200
2020/01/31 11:32:35.8	300.540	0.540	-0.350	1.230
2020/01/31 11:32:35.9	300.540	0.530	-0.310	1.250
2020/01/31 11:32:36.0	300.540	0.520	-0.270	1.270
2020/01/31 11:32:36.1	300.530	0.500	-0.230	1.280
2020/01/31 11:32:36.2	300.530	0.490	-0.200	1.300
2020/01/31 11:32:36.3	300.520	0.470	-0.160	1.310
2020/01/31 11:32:36.4	300.520	0.450	-0.130	1.320
2020/01/31 11:32:36.5	300.510	0.430	-0.110	1.330
2020/01/31 11:32:36.6	300.500	0.410	-0.080	1.330
2020/01/31 11:32:36.7	300.500	0.390	-0.060	1.330
2020/01/31 11:32:36.8	300.490	0.370	-0.040	1.330
2020/01/31 11:32:36.9	300.480	0.350	-0.020	1.330
2020/01/31 11:32:37.0	300.480	0.330	-0.010	1.320
2020/01/31 11:32:37.1	300.470	0.310	0.000	1.320
2020/01/31 11:32:37.2	300.470	0.290	0.010	1.300
2020/01/31 11:32:37.3	300.460	0.270	0.020	1.290
2020/01/31 11:32:37.4	300.450	0.250	0.020	1.270
2020/01/31 11:32:37.5	300.450	0.230	0.020	1.260
2020/01/31 11:32:37.6	300.440	0.210	0.010	1.230
2020/01/31 11:32:37.7	300.440	0.190	0.000	1.210
2020/01/31 11:32:37.8	300.440	0.170	-0.010	1.180
2020/01/31 11:32:37.9	300.430	0.150	-0.020	1.160
2020/01/31 11:32:38.0	300.430	0.140	-0.030	1.120
2020/01/31 11:32:38.1	300.430	0.120	-0.050	1.090
2020/01/31 11:32:38.2	300.430	0.110	-0.070	1.050
2020/01/31 11:32:38.3	300.440	0.090	-0.090	1.020
2020/01/31 11:32:38.4	300.440	0.080	-0.110	0.980
2020/01/31 11:32:38.5	300.440	0.070	-0.140	0.930
2020/01/31 11:32:38.6	300.440	0.060	-0.160	0.890
2020/01/31 11:32:38.7	300.450	0.050	-0.190	0.840
2020/01/31 11:32:38.8	300.450	0.040	-0.210	0.790
2020/01/31 11:32:38.9	300.460	0.030	-0.240	0.750
2020/01/31 11:32:39.0	300.470	0.020	-0.260	0.700
2020/01/31 11:32:39.1	300.480	0.010	-0.290	0.650
2020/01/31 11:32:39.2	300.480	0.000	-0.310	0.600
2020/01/31 11:32:39.3	300.490	-0.000	-0.330	0.550
2020/01/31 11:32:39.4	300.500	-0.010	-0.350	0.490
2020/01/31 11:32:39.5	300.500	-0.020	-0.370	0.440
2020/01/31 11:32:39.6	300.510	-0.020	-0.380	0.390
2020/01/31 11:32:39.7	300.520	-0.030	-0.400	0.350
2020/01/31 11:32:39.8	300.530	-0.030	-0.400	0.300
2020/01/31 11:32:39.9	300.540	-0.040	-0.410	0.250
2020/01/31 11:32:40.0	300.540	-0.050	-0.410	0.210
2020/01/31 11:32:40.1	300.550	-0.050	-0.410	0.170
2020/01/31 11:32:40.2	300.550	-0.060	-0.410	0.130
2020/01/31 11:32:40.3	300.560	-0.070	-0.400	0.090
2020/01/31 11:32:40.4	300.560	-0.080	-0.390	0.060
2020/01/31 11:32:40.5	300.570	-0.090	-0.370	0.030
2020/01/31 11:32:40.6	300.570	-0.090	-0.350	0.010
2020/01/31 11:32:40.7	300.570	-0.100	-0.330	-0.010
2020/01/31 11:32:40.8	300.560	-0.110	-0.300	-0.030
2020/01/31 11:32:40.9	300.560	-0.130	-0.270	-0.040
2020/01/31 11:32:41.0	300.550	-0.140	-0.230	-0.050
2020/01/31 11:32:41.1	300.540	-0.150	-0.200	-0.050
2020/01/31 11:32:41.2	300.530	-0.160	-0.160	-0.060
2020/01/31 11:32:41.3	300.520	-0.170	-0.110	-0.050
2020/01/31 11:32:41.4	300.510	-0.180	-0.070	-0.050
2020/01/31 11:32:41.5	300.500	-0.200	-0.030	-0.040
2020/01/31 11:32:41.6	300.490	-0.210	0.020	-0.020
2020/01/31 11:32:41.7	300.470	-0.220	0.070	-0.010
2020/01/31 11:32:41.8	300.460	-0.230	0.110	0.010
2020/01/31 11:32:41.9	300.440	-0.250	0.160	0.030
2020/01/31 11:32:42.0	300.420	-0.260	0.200	0.050
2020/01/31 11:32:42.1	300.400	-0.270	0.250	0.080
2020/01/31 11:32:42.2	300.380	-0.280	0.290	0.100
2020/01/31 11:32:42.3	300.350	-0.290	0.330	0.130
2020/01/31 11:32:42.4	300.330	-0.300	0.360	0.160
2020/01/31 11:32:42.5	300.320	-0.310	0.400	0.190
2020/01/31 11:32:42.6	300.290	-0.320	0.430	0.220
2020/01/31 11:32:42.7	300.270	-0.330	0.450	0.250
2020/01/31 11:32:42.8	300.240	-0.340	0.480	0.280
2020/01/31 11:32:42.9	300.220	-0.340	0.500	0.310
2020/01/31 11:32:43.0	300.190	-0.350	0.510	0.340
2020/01/31 11:32:43.1	300.170	-0.350	0.520	0.370
2020/01/31 11:32:43.2	300.140	-0.350	0.530	0.400
2020/01/31 11:32:43.3	300.120	-0.350	0.530	0.430
2020/01/31 11:32:43.4	300.100	-0.360	0.520	0.450
2020/01/31 11:32:43.5	300.080	-0.350	0.510	0.470
2020/01/31 11:32:43.6	300.060	-0.350	0.500	0.500
2020/01/31 11:32:43.7	300.040	-0.350	0.480	0.520
2020/01/31 11:32:43.8	300.030	-0.340	0.450	0.540
2020/01/31 11:32:43.9	300.010	-0.340	0.420	0.560
2020/01/31 11:32:44.0	300.000	-0.330	0.390	0.570
2020/01/31 11:32:44.1	299.980	-0.320	0.350	0.590
2020/01/31 11:32:44.2	299.970	-0.310	0.300	0.600
2020/01/31 11:32:44.3	299.960	-0.300	0.260	0.610
2020/01/31 11:32:44.4	299.960	-0.280	0.200	0.620
2020/01/31 11:32:44.5	299.960	-0.270	0.150	0.630
2020/01/31 11:32:44.6	299.950	-0.250	0.090	0.630
2020/01/31 11:32:44.7	299.950	-0.230	0.030	0.640
2020/01/31 11:32:44.8	299.950	-0.220	-0.030	0.640
2020/01/31 11:32:44.9	299.950	-0.200	-0.090	0.650
2020/01/31 11:32:45.0	299.950	-0.180	-0.160	0.650
2020/01/31 11:32:45.1	299.950	-0.160	-0.220	0.650
2020/01/31 11:32:45.2	299.950	-0.140	-0.280	0.650
2020/01/31 11:32:45.3	299.960	-0.120	-0.340	0.650
2020/01/31 11:32:45.4	299.960	-0.100	-0.400	0.650
2020/01/31 11:32:45.5	299.960	-0.080	-0.460	0.640
2020/01/31 11:32:45.6	299.970	-0.060	-0.520	0.640
2020/01/31 11:32:45.7	299.980	-0.040	-0.570	0.640
2020/01/31 11:32:45.8	299.980	-0.020	-0.620	0.640
2020/01/31 11:32:45.9	299.990	-0.000	-0.660	0.640
2020/01/31 11:32:46.0	300.000	0.010	-0.700	0.640
2020/01/31 11:32:46.1	300.010	0.030	-0.740	0.630
2020/01/31 11:32:46.2	300.030	0.040	-0.770	0.640
2020/01/31 11:32:46.3	300.040	0.060	-0.800	0.640
2020/01/31 11:32:46.4	300.050	0.070	-0.820	0.640
2020/01/31 11:32:46.5	300.060	0.080	-0.840	0.640
2020/01/31 11:32:46.6	300.070	0.090	-0.860	0.640
2020/01/31 11:32:46.7	300.090	0.090	-0.870	0.640
2020/01/31 11:32:46.8	300.100	0.100	-0.880	0.640
2020/01/31 11:32:46.9	300.120	0.100	-0.880	0.650
2020/01/31 11:32:47.0	300.130	0.110	-0.880	0.650
2020/01/31 11:32:47.1	300.150	0.110	-0.880	0.650
2020/01/31 11:32:47.2	300.160	0.110	-0.880	0.660
2020/01/31 11:32:47.3	300.180	0.110	-0.870	0.660
2020/01/31 11:32:47.4	300.190	0.110	-0.860	0.660
2020/01/31 11:32:47.5	300.210	0.100	-0.850	0.660
2020/01/31 11:32:47.6	300.230	0.100	-0.840	0.660
2020/01/31 11:32:47.7	300.240	0.090	-0.820	0.670
2020/01/31 11:32:47.8	300.250	0.090	-0.810	0.670
2020/01/31 11:32:47.9	300.260	0.080	-0.790	0.670
2020/01/31 11:32:48.0	300.270	0.070	-0.770	0.670
2020/01/31 11:32:48.1	300.280	0.060	-0.750	0.670
2020/01/31 11:32:48.2	300.290	0.050	-0.730	0.660
2020/01/31 11:32:48.3	300.300	0.050	-0.710	0.660
2020/01/31 11:32:48.4	300.300	0.040	-0.700	0.660
2020/01/31 11:32:48.5	300.290	0.030	-0.680	0.650
2020/01/31 11:32:48.6	300.290	0.020	-0.660	0.650
2020/01/31 11:32:48.7	300.290	0.010	-0.650	0.640
2020/01/31 11:32:48.8	300.290	0.000	-0.630	0.630
2020/01/31 11:32:48.9	300.300	-0.010	-0.610	0.610
2020/01/31 11:32:49.0	300.300	-0.010	-0.600	0.600
2020/01/31 11:32:49.1	300.300	-0.020	-0.580	0.590
2020/01/31 11:32:49.2	300.300	-0.030	-0.570	0.570
2020/01/31 11:32:49.3	300.300	-0.030	-0.560	0.560
2020/01/31 11:32:49.4	300.300	-0.030	-0.550	0.540
2020/01/31 11:32:49.5	300.290	-0.040	-0.530	0.520
2020/01/31 11:32:49.6	300.290	-0.040	-0.520	0.500
2020/01/31 11:32:49.7	300.290	-0.040	-0.520	0.480
2020/01/31 11:32:49.8	300.290	-0.040	-0.510	0.460
2020/01/31 11:32:49.9	300.290	-0.030	-0.500	0.440
2020/01/31 11:32:50.0	300.290	-0.030	-0.500	0.430
2020/01/31 11:32:50.1	300.290	-0.030	-0.490	0.410
2020/01/31 11:32:50.2	300.290	-0.020	-0.480	0.390
2020/01/31 11:32:50.3	300.280	-0.010	-0.480	0.380
2020/01/31 11:32:50.4	300.280	-0.000	-0.470	0.360
2020/01/31 11:32:50.5	300.280	0.010	-0.460	0.350
2020/01/31 11:32:50.6	300.280	0.020	-0.460	0.330
2020/01/31 11:32:50.7	300.280	0.030	-0.450	0.320
2020/01/31 11:32:50.8	300.280	0.040	-0.440	0.310
2020/01/31 11:32:50.9	300.270	0.050	-0.430	0.300
2020/01/31 11:32:51.0	300.270	0.060	-0.410	0.290
2020/01/31 11:32:51.1	300.270	0.080	-0.400	0.280
2020/01/31 11:32:51.2	300.260	0.090	-0.380	0.270
2020/01/31 11:32:51.3	300.260	0.110	-0.360	0.270
2020/01/31 11:32:51.4	300.250	0.120	-0.340	0.260
2020/01/31 11:32:51.5	300.260	0.130	-0.320	0.260
2020/01/31 11:32:51.6	300.250	0.150	-0.290	0.260
2020/01/31 11:32:51.7	300.250	0.160	-0.270	0.270
2020/01/31 11:32:51.8	300.240	0.170	-0.240	0.270
2020/01/31 11:32:51.9	300.230	0.180	-0.210	0.270
2020/01/31 11:32:52.0	300.230	0.190	-0.180	0.280
2020/01/31 11:32:52.1	300.220	0.210	-0.150	0.290
2020/01/31 11:32:52.2	300.210	0.210	-0.120	0.300
2020/01/31 11:32:52.3	300.200	0.220	-0.090	0.320
2020/01/31 11:32:52.4	300.200	0.230	-0.050	0.330
2020/01/31 11:32:52.5	300.200	0.240	-0.020	0.350
2020/01/31 11:32:52.6	300.190	0.240	0.010	0.360
2020/01/31 11:32:52.7	300.180	0.250	0.040	0.380
2020/01/31 11:32:52.8	300.180	0.250	0.070	0.400
2020/01/31 11:32:52.9	300.170	0.250	0.100	0.420
2020/01/31 11:32:53.0	300.160	0.250	0.130	0.450
2020/01/31 11:32:53.1	300.150	0.250	0.160	0.470
2020/01/31 11:32:53.2	300.150	0.250	0.190	0.490
2020/01/31 11:32:53.3	300.140	0.250	0.210	0.510
2020/01/31 11:32:53.4	300.140	0.250	0.240	0.540
2020/01/31 11:32:53.5	300.140	0.240	0.260	0.560
2020/01/31 11:32:53.6	300.140	0.240	0.280	0.580
2020/01/31 11:32:53.7	300.130	0.230	0.300	0.600
2020/01/31 11:32:53.8	300.130	0.220	0.320	0.620
2020/01/31 11:32:53.9	300.120	0.210	0.340	0.650
2020/01/31 11:32:54.0	300.120	0.200	0.350	0.670
2020/01/31 11:32:54.1	300.120	0.190	0.360	0.690
2020/01/31 11:32:54.2	300.110	0.180	0.370	0.710
2020/01/31 11:32:54.3	300.110	0.170	0.380	0.730
2020/01/31 11:32:54.4	300.100	0.160	0.390	0.760
2020/01/31 11:32:54.5	300.090	0.150	0.390	0.780
2020/01/31 11:32:54.6	300.090	0.140	0.390	0.800
2020/01/31 11:32:54.7	300.080	0.130	0.390	0.820
2020/01/31 11:32:54.8	300.070	0.120	0.390	0.840
2020/01/31 11:32:54.9	300.070	0.100	0.390	0.870
2020/01/31 11:32:55.0	300.060	0.090	0.390	0.890
2020/01/31 11:32:55.1	300.050	0.080	0.380	0.910
2020/01/31 11:32:55.2	300.040	0.070	0.380	0.940
2020/01/31 11:32:55.3	300.030	0.060	0.370	0.960
2020/01/31 11:32:55.4	300.020	0.060	0.350	0.980
2020/01/31 11:32:55.5	300.010	0.050	0.340	1.000
2020/01/31 11:32:55.6	300.000	0.040	0.320	1.020
2020/01/31 11:32:55.7	299.990	0.030	0.300	1.030
2020/01/31 11:32:55.8	299.980	0.030	0.280	1.050
2020/01/31 11:32:55.9	299.970	0.020	0.250	1.060
2020/01/31 11:32:56.0	299.970	0.020	0.230	1.070
2020/01/31 11:32:56.1	299.960	0.020	0.200	1.080
2020/01/31 11:32:56.2	299.950	0.020	0.160	1.090
2020/01/31 11:32:56.3	299.950	0.020	0.130	1.090
2020/01/31 11:32:56.4	299.940	0.020	0.090	1.090
2020/01/31 11:32:56.5	299.940	0.020	0.050	1.090
2020/01/31 11:32:56.6	299.940	0.020	0.010	1.090
2020/01/31 11:32:56.7	299.930	0.020	-0.030	1.080
2020/01/31 11:32:56.8	299.930	0.020	-0.080	1.080
2020/01/31 11:32:56.9	299.930	0.030	-0.120	1.070
2020/01/31 11:32:57.0	299.920	0.030	-0.170	1.060
2020/01/31 11:32:57.1	299.920	0.030	-0.210	1.050
2020/01/31 11:32:57.2	299.920	0.040	-0.250	1.040
2020/01/31 11:32:57.3	299.910	0.040	-0.300	1.020
2020/01/31 11:32:57.4	299.910	0.050	-0.340	1.010
2020/01/31 11:32:57.5	299.900	0.050	-0.390	0.990
2020/01/31 11:32:57.6	299.890	0.050	-0.430	0.980
2020/01/31 11:32:57.7	299.890	0.050	-0.470	0.960
2020/01/31 11:32:57.8	299.880	0.060	-0.510	0.940
2020/01/31 11:32:57.9	299.880	0.060	-0.550	0.920
2020/01/31 11:32:58.0	299.880	0.060	-0.590	0.900
2020/01/31 11:32:58.1	299.870	0.060	-0.620	0.880
2020/01/31 11:32:58.2	299.870	0.060	-0.660	0.860
2020/01/31 11:32:58.3	299.860	0.050	-0.690	0.830
2020/01/31 11:32:58.4	299.860	0.050	-0.720	0.810
2020/01/31 11:32:58.5	299.840	0.050	-0.750	0.780
2020/01/31 11:32:58.6	299.840	0.040	-0.780	0.750
2020/01/31 11:32:58.7	299.840	0.030	-0.800	0.720
2020/01/31 11:32:58.8	299.830	0.030	-0.830	0.690
2020/01/31 11:32:58.9	299.830	0.020	-0.850	0.650
2020/01/31 11:32:59.0	299.830	0.010	-0.870	0.620
2020/01/31 11:32:59.1	299.830	-0.000	-0.880	0.580
2020/01/31 11:32:59.2	299.820	-0.020	-0.890	0.550
2020/01/31 11:32:59.3	299.820	-0.030	-0.910	0.510
2020/01/31 11:32:59.4	299.820	-0.040	-0.910	0.470
2020/01/31 11:32:59.5	299.820	-0.060	-0.920	0.430
2020/01/31 11:32:59.6	299.820	-0.070	-0.920	0.390
2020/01/31 11:32:59.7	299.820	-0.090	-0.920	0.360
2020/01/31 11:32:59.8	299.820	-0.110	-0.920	0.320
2020/01/31 11:32:59.9	299.820	-0.130	-0.910	0.280
2020/01/31 11:33:00.0	299.820	-0.140	-0.900	0.240
2020/01/31 11:33:00.1	299.820	-0.160	-0.880	0.210
2020/01/31 11:33:00.2	299.810	-0.180	-0.860	0.180
2020/01/31 11:33:00.3	299.810	-0.200	-0.840	0.140
2020/01/31 11:33:00.4	299.810	-0.220	-0.820	0.110
2020/01/31 11:33:00.5	299.800	-0.240	-0.790	0.090
2020/01/31 11:33:00.6	299.800	-0.260	-0.750	0.060
2020/01/31 11:33:00.7	299.800	-0.270	-0.720	0.030
2020/01/31 11:33:00.8	299.800	-0.290	-0.680	0.010
2020/01/31 11:33:00.9	299.800	-0.310	-0.640	-0.010
2020/01/31 11:33:01.0	299.790	-0.330	-0.600	-0.030
2020/01/31 11:33:01.1	299.790	-0.340	-0.550	-0.040
2020/01/31 11:33:01.2	299.790	-0.350	-0.510	-0.050
2020/01/31 11:33:01.3	299.790	-0.370	-0.460	-0.060
2020/01/31 11:33:01.4	299.790	-0.380	-0.410	-0.070
2020/01/31 11:33:01.5	299.790	-0.390	-0.360	-0.080
2020/01/31 11:33:01.6	299.790	-0.400	-0.310	-0.080
2020/01/31 11:33:01.7	299.790	-0.400	-0.260	-0.080
2020/01/31 11:33:01.8	299.800	-0.410	-0.210	-0.080
2020/01/31 11:33:01.9	299.800	-0.410	-0.160	-0.080
2020/01/31 11:33:02.0	299.800	-0.410	-0.110	-0.070
2020/01/31 11:33:02.1	299.810	-0.410	-0.060	-0.070
2020/01/31 11:33:02.2	299.810	-0.410	-0.010	-0.060
2020/01/31 11:33:02.3	299.820	-0.400	0.030	-0.040
2020/01/31 11:33:02.4	299.820	-0.390	0.070	-0.030
2020/01/31 11:33:02.5	299.830	-0.380	0.110	-0.010
2020/01/31 11:33:02.6	299.840	-0.370	0.140	0.000
2020/01/31 11:33:02.7	299.840	-0.360	0.170	0.020
2020/01/31 11:33:02.8	299.850	-0.340	0.200	0.040
2020/01/31 11:33:02.9	299.870	-0.330	0.220	0.060
2020/01/31 11:33:03.0	299.880	-0.310	0.240	0.080
2020/01/31 11:33:03.1	299.890	-0.290	0.250	0.100
2020/01/31 11:33:03.2	299.910	-0.260	0.260	0.120
2020/01/31 11:33:03.3	299.920	-0.240	0.260	0.140
2020/01/31 11:33:03.4	299.940	-0.210	0.260	0.160
2020/01/31 11:33:03.5	299.960	-0.190	0.260	0.180
2020/01/31 11:33:03.6	299.980	-0.160	0.250	0.200
2020/01/31 11:33:03.7	300.000	-0.130	0.230	0.220
2020/01/31 11:33:03.8	300.020	-0.100	0.220	0.240
2020/01/31 11:33:03.9	300.040	-0.070	0.190	0.250
2020/01/31 11:33:04.0	300.070	-0.040	0.170	0.270
2020/01/31 11:33:04.1	300.090	-0.010	0.140	0.290
2020/01/31 11:33:04.2	300.110	0.020	0.110	0.310
2020/01/31 11:33:04.3	300.140	0.050	0.070	0.330
2020/01/31 11:33:04.4	300.160	0.080	0.030	0.350
2020/01/31 11:33:04.5	300.180	0.110	-0.000	0.370
2020/01/31 11:33:04.6	300.200	0.140	-0.040	0.390
2020/01/31 11:33:04.7	300.220	0.170	-0.080	0.410
2020/01/31 11:33:04.8	300.250	0.200	-0.120	0.430
2020/01/31 11:33:04.9	300.270	0.220	-0.160	0.450
2020/01/31 11:33:05.0	300.290	0.250	-0.200	0.470
2020/01/31 11:33:05.1	300.310	0.270	-0.240	0.490
2020/01/31 11:33:05.2	300.330	0.290	-0.280	0.520
2020/01/31 11:33:05.3	300.340	0.310	-0.310	0.540
2020/01/31 11:33:05.4	300.360	0.330	-0.350	0.570
2020/01/31 11:33:05.5	300.360	0.350	-0.380	0.590
2020/01/31 11:33:05.6	300.380	0.360	-0.410	0.620
2020/01/31 11:33:05.7	300.390	0.370	-0.430	0.650
2020/01/31 11:33:05.8	300.400	0.380	-0.450	0.670
2020/01/31 11:33:05.9	300.410	0.390	-0.470	0.700
2020/01/31 11:33:06.0	300.420	0.400	-0.490	0.730
2020/01/31 11:33:06.1	300.430	0.400	-0.510	0.760
2020/01/31 11:33:06.2	300.440	0.410	-0.520	0.790
2020/01/31 11:33:06.3	300.440	0.410	-0.520	0.810
2020/01/31 11:33:06.4	300.440	0.400	-0.530	0.840
2020/01/31 11:33:06.5	300.440	0.400	-0.530	0.870
2020/01/31 11:33:06.6	300.440	0.400	-0.530	0.900
2020/01/31 11:33:06.7	300.440	0.390	-0.520	0.920
2020/01/31 11:33:06.8	300.430	0.380	-0.510	0.950
2020/01/31 11:33:06.9	300.430	0.370	-0.500	0.980
2020/01/31 11:33:07.0	300.420	0.360	-0.490	1.000
2020/01/31 11:33:07.1	300.410	0.350	-0.470	1.020
2020/01/31 11:33:07.2	300.400	0.340	-0.460	1.050
2020/01/31 11:33:07.3	300.390	0.320	-0.440	1.070
2020/01/31 11:33:07.4	300.380	0.310	-0.420	1.090
2020/01/31 11:33:07.5	300.360	0.290	-0.390	1.110
2020/01/31 11:33:07.6	300.340	0.270	-0.370	1.120
2020/01/31 11:33:07.7	300.330	0.260	-0.340	1.140
2020/01/31 11:33:07.8	300.310	0.240	-0.320	1.150
2020/01/31 11:33:07.9	300.290	0.220	-0.290	1.170
2020/01/31 11:33:08.0	300.270	0.200	-0.260	1.180
2020/01/31 11:33:08.1	300.250	0.190	-0.240	1.180
2020/01/31 11:33:08.2	300.230	0.170	-0.210	1.190
2020/01/31 11:33:08.3	300.200	0.150	-0.190	1.190
2020/01/31 11:33:08.4	300.180	0.130	-0.160	1.200
2020/01/31 11:33:08.5	300.160	0.120	-0.140	1.200
2020/01/31 11:33:08.6	300.130	0.100	-0.130	1.190
2020/01/31 11:33:08.7	300.110	0.080	-0.110	1.190
2020/01/31 11:33:08.8	300.080	0.070	-0.100	1.180
2020/01/31 11:33:08.9	300.060	0.050	-0.080	1.170
2020/01/31 11:33:09.0	300.030	0.040	-0.080	1.150
2020/01/31 11:33:09.1	300.000	0.020	-0.070	1.140
2020/01/31 11:33:09.2	299.980	0.010	-0.070	1.120
2020/01/31 11:33:09.3	299.950	0.000	-0.070	1.100
2020/01/31 11:33:09.4	299.930	-0.010	-0.070	1.070
2020/01/31 11:33:09.5	299.900	-0.020	-0.080	1.050
2020/01/31 11:33:09.6	299.870	-0.030	-0.090	1.020
2020/01/31 11:33:09.7	299.850	-0.040	-0.100	0.990
2020/01/31 11:33:09.8	299.830	-0.050	-0.110	0.960
2020/01/31 11:33:09.9	299.800	-0.050	-0.130	0.920
2020/01/31 11:33:10.0	299.780	-0.060	-0.140	0.890
2020/01/31 11:33:10.1	299.760	-0.070	-0.160	0.850
2020/01/31 11:33:10.2	299.750	-0.070	-0.180	0.820
2020/01/31 11:33:10.3	299.730	-0.070	-0.200	0.780
2020/01/31 11:33:10.4	299.710	-0.080	-0.220	0.740
2020/01/31 11:33:10.5	299.720	-0.080	-0.240	0.700
2020/01/31 11:33:10.6	299.700	-0.090	-0.270	0.660
2020/01/31 11:33:10.7	299.700	-0.090	-0.290	0.620
2020/01/31 11:33:10.8	299.690	-0.090	-0.310	0.580
2020/01/31 11:33:10.9	299.680	-0.100	-0.330	0.540
2020/01/31 11:33:11.0	299.670	-0.100	-0.350	0.510
2020/01/31 11:33:11.1	299.670	-0.100	-0.360	0.470
2020/01/31 11:33:11.2	299.670	-0.100	-0.380	0.440
2020/01/31 11:33:11.3	299.660	-0.110	-0.390	0.400
2020/01/31 11:33:11.4	299.660	-0.110	-0.400	0.370
2020/01/31 11:33:11.5	299.670	-0.120	-0.410	0.350
2020/01/31 11:33:11.6	299.670	-0.120	-0.410	0.320
2020/01/31 11:33:11.7	299.670	-0.120	-0.410	0.300
2020/01/31 11:33:11.8	299.670	-0.130	-0.410	0.280
2020/01/31 11:33:11.9	299.670	-0.130	-0.400	0.260
2020/01/31 11:33:12.0	299.680	-0.140	-0.390	0.240
2020/01/31 11:33:12.1	299.680	-0.140	-0.380	0.230
2020/01/31 11:33:12.2	299.680	-0.150	-0.370	0.220
2020/01/31 11:33:12.3	299.680	-0.150	-0.350	0.210
2020/01/31 11:33:12.4	299.690	-0.160	-0.330	0.200
2020/01/31 11:33:12.5	299.680	-0.170	-0.310	0.200
2020/01/31 11:33:12.6	299.690	-0.170	-0.280	0.190
2020/01/31 11:33:12.7	299.690	-0.180	-0.260	0.190
2020/01/31 11:33:12.8	299.690	-0.180	-0.230	0.190
2020/01/31 11:33:12.9	299.690	-0.190	-0.200	0.190
2020/01/31 11:33:13.0	299.690	-0.190	-0.170	0.200
2020/01/31 11:33:13.1	299.700	-0.190	-0.130	0.200
2020/01/31 11:33:13.2	299.700	-0.200	-0.100	0.210
2020/01/31 11:33:13.3	299.700	-0.200	-0.070	0.220
2020/01/31 11:33:13.4	299.700	-0.200	-0.040	0.230
2020/01/31 11:33:13.5	299.710	-0.200	-0.010	0.240
2020/01/31 11:33:13.6	299.710	-0.200	0.020	0.260
2020/01/31 11:33:13.7	299.710	-0.190	0.050	0.270
2020/01/31 11:33:13.8	299.710	-0.190	0.080	0.290
2020/01/31 11:33:13.9	299.710	-0.190	0.110	0.310
2020/01/31 11:33:14.0	299.710	-0.180	0.130	0.330
2020/01/31 11:33:14.1	299.700	-0.170	0.150	0.350
2020/01/31 11:33:14.2	299.700	-0.170	0.170	0.370
2020/01/31 11:33:14.3	299.700	-0.160	0.190	0.390
2020/01/31 11:33:14.4	299.700	-0.150	0.200	0.410
2020/01/31 11:33:14.5	299.710	-0.140	0.210	0.430
2020/01/31 11:33:14.6	299.710	-0.120	0.210	0.450
2020/01/31 11:33:14.7	299.710	-0.110	0.210	0.470
2020/01/31 11:33:14.8	299.710	-0.100	0.210	0.490
2020/01/31 11:33:14.9	299.710	-0.080	0.200	0.510
2020/01/31 11:33:15.0	299.710	-0.070	0.190	0.520
2020/01/31 11:33:15.1	299.710	-0.050	0.180	0.530
2020/01/31 11:33:15.2	299.710	-0.040	0.160	0.550
2020/01/31 11:33:15.3	299.710	-0.020	0.140	0.560
2020/01/31 11:33:15.4	299.720	-0.000	0.120	0.560
2020/01/31 11:33:15.5	299.730	0.010	0.090	0.570
2020/01/31 11:33:15.6	299.740	0.030	0.060	0.570
2020/01/31 11:33:15.7	299.740	0.050	0.030	0.570
2020/01/31 11:33:15.8	299.750	0.070	-0.010	0.570
2020/01/31 11:33:15.9	299.760	0.080	-0.040	0.570
2020/01/31 11:33:16.0	299.780	0.100	-0.080	0.570
2020/01/31 11:33:16.1	299.790	0.120	-0.130	0.560
2020/01/31 11:33:16.2	299.810	0.130	-0.170	0.550
2020/01/31 11:33:16.3	299.820	0.150	-0.210	0.540
2020/01/31 11:33:16.4	299.840	0.160	-0.260	0.520
2020/01/31 11:33:16.5	299.850	0.170	-0.300	0.510
2020/01/31 11:33:16.6	299.870	0.180	-0.340	0.490
2020/01/31 11:33:16.7	299.890	0.190	-0.390	0.470
2020/01/31 11:33:16.8	299.910	0.200	-0.430	0.450
2020/01/31 11:33:16.9	299.930	0.210	-0.470	0.430
2020/01/31 11:33:17.0	299.960	0.210	-0.510	0.400
2020/01/31 11:33:17.1	299.980	0.220	-0.550	0.380
2020/01/31 11:33:17.2	300.010	0.220	-0.580	0.350
2020/01/31 11:33:17.3	300.040	0.220	-0.610	0.330
2020/01/31 11:33:17.4	300.060	0.220	-0.640	0.300
2020/01/31 11:33:17.5	300.080	0.220	-0.670	0.280
2020/01/31 11:33:17.6	300.110	0.210	-0.690	0.250
2020/01/31 11:33:17.7	300.140	0.210	-0.710	0.230
2020/01/31 11:33:17.8	300.170	0.200	-0.730	0.200
2020/01/31 11:33:17.9	300.200	0.190	-0.740	0.180
2020/01/31 11:33:18.0	300.230	0.180	-0.750	0.160
2020/01/31 11:33:18.1	300.260	0.170	-0.760	0.140
2020/01/31 11:33:18.2	300.280	0.160	-0.760	0.130
2020/01/31 11:33:18.3	300.310	0.150	-0.760	0.120
2020/01/31 11:33:18.4	300.340	0.140	-0.760	0.110
2020/01/31 11:33:18.5	300.360	0.130	-0.750	0.100
2020/01/31 11:33:18.6	300.390	0.110	-0.740	0.090
2020/01/31 11:33:18.7	300.410	0.100	-0.730	0.100
2020/01/31 11:33:18.8	300.430	0.090	-0.710	0.100
2020/01/31 11:33:18.9	300.450	0.070	-0.700	0.110
2020/01/31 11:33:19.0	300.470	0.060	-0.680	0.120
2020/01/31 11:33:19.1	300.490	0.050	-0.650	0.130
2020/01/31 11:33:19.2	300.500	0.030	-0.630	0.150
2020/01/31 11:33:19.3	300.520	0.020	-0.600	0.180
2020/01/31 11:33:19.4	300.530	0.010	-0.580	0.200
2020/01/31 11:33:19.5	300.530	0.000	-0.550	0.230
2020/01/31 11:33:19.6	300.540	-0.010	-0.520	0.270
2020/01/31 11:33:19.7	300.540	-0.020	-0.490	0.310
2020/01/31 11:33:19.8	300.540	-0.020	-0.460	0.350
2020/01/31 11:33:19.9	300.540	-0.030	-0.440	0.390
2020/01/31 11:33:20.0	300.530	-0.030	-0.410	0.430
2020/01/31 11:33:20.1	300.530	-0.040	-0.380	0.480
2020/01/31 11:33:20.2	300.520	-0.040	-0.360	0.530
2020/01/31 11:33:20.3	300.510	-0.040	-0.330	0.580
2020/01/31 11:33:20.4	300.500	-0.040	-0.310	0.630
2020/01/31 11:33:20.5	300.490	-0.040	-0.290	0.680
2020/01/31 11:33:20.6	300.470	-0.040	-0.270	0.730
2020/01/31 11:33:20.7	300.450	-0.040	-0.250	0.780
2020/01/31 11:33:20.8	300.430	-0.030	-0.240	0.830
2020/01/31 11:33:20.9	300.410	-0.030	-0.220	0.880
2020/01/31 11:33:21.0	300.390	-0.020	-0.210	0.930
2020/01/31 11:33:21.1	300.360	-0.020	-0.190	0.970
2020/01/31 11:33:21.2	300.340	-0.020	-0.180	1.020
2020/01/31 11:33:21.3	300.310	-0.010	-0.180	1.060
2020/01/31 11:33:21.4	300.280	-0.010	-0.170	1.100
2020/01/31 11:33:21.5	300.250	-0.000	-0.160	1.140
2020/01/31 11:33:21.6	300.230	0.000	-0.160	1.180
2020/01/31 11:33:21.7	300.200	0.000	-0.150	1.220
2020/01/31 11:33:21.8	300.170	0.010	-0.150	1.250
2020/01/31 11:33:21.9	300.130	0.010	-0.150	1.280
2020/01/31 11:33:22.0	300.100	0.010	-0.150	1.300
2020/01/31 11:33:22.1	300.070	0.010	-0.150	1.330
2020/01/31 11:33:22.2	300.040	0.010	-0.150	1.350
2020/01/31 11:33:22.3	300.010	0.000	-0.150	1.360
2020/01/31 11:33:22.4	299.980	0.000	-0.150	1.370
2020/01/31 11:33:22.5	299.950	-0.000	-0.140	1.380
2020/01/31 11:33:22.6	299.920	-0.010	-0.140	1.390
2020/01/31 11:33:22.7	299.890	-0.020	-0.140	1.390
2020/01/31 11:33:22.8	299.850	-0.030	-0.140	1.380
2020/01/31 11:33:22.9	299.820	-0.040	-0.140	1.370
2020/01/31 11:33:23.0	299.790	-0.050	-0.140	1.360
2020/01/31 11:33:23.1	299.770	-0.060	-0.130	1.350
2020/01/31 11:33:23.2	299.740	-0.070	-0.130	1.330
2020/01/31 11:33:23.3	299.710	-0.090	-0.120	1.310
2020/01/31 11:33:23.4	299.690	-0.100	-0.120	1.280
2020/01/31 11:33:23.5	299.670	-0.120	-0.110	1.260
2020/01/31 11:33:23.6	299.650	-0.130	-0.100	1.230
2020/01/31 11:33:23.7	299.630	-0.150	-0.090	1.200
2020/01/31 11:33:23.8	299.610	-0.170	-0.090	1.160
2020/01/31 11:33:23.9	299.590	-0.180	-0.080	1.130
2020/01/31 11:33:24.0	299.570	-0.200	-0.070	1.090
2020/01/31 11:33:24.1	299.560	-0.220	-0.060	1.050
2020/01/31 11:33:24.2	299.540	-0.240	-0.050	1.010
2020/01/31 11:33:24.3	299.530	-0.250	-0.040	0.970
2020/01/31 11:33:24.4	299.520	-0.270	-0.030	0.930
2020/01/31 11:33:24.5	299.510	-0.280	-0.030	0.890
2020/01/31 11:33:24.6	299.500	-0.300	-0.030	0.840
2020/01/31 11:33:24.7	299.500	-0.310	-0.020	0.790
2020/01/31 11:33:24.8	299.490	-0.330	-0.020	0.750
2020/01/31 11:33:24.9	299.490	-0.340	-0.020	0.700
2020/01/31 11:33:25.0	299.490	-0.350	-0.020	0.650
2020/01/31 11:33:25.1	299.490	-0.360	-0.020	0.600
2020/01/31 11:33:25.2	299.490	-0.360	-0.020	0.550
2020/01/31 11:33:25.3	299.500	-0.370	-0.030	0.500
2020/01/31 11:33:25.4	299.500	-0.370	-0.030	0.450
2020/01/31 11:33:25.5	299.510	-0.380	-0.040	0.400
2020/01/31 11:33:25.6	299.520	-0.380	-0.060	0.350
2020/01/31 11:33:25.7	299.530	-0.370	-0.070	0.300
2020/01/31 11:33:25.8	299.550	-0.370	-0.090	0.250
2020/01/31 11:33:25.9	299.560	-0.360	-0.110	0.210
2020/01/31 11:33:26.0	299.580	-0.360	-0.130	0.160
2020/01/31 11:33:26.1	299.600	-0.350	-0.150	0.120
2020/01/31 11:33:26.2	299.620	-0.330	-0.170	0.070
2020/01/31 11:33:26.3	299.640	-0.320	-0.190	0.030
2020/01/31 11:33:26.4	299.660	-0.310	-0.220	-0.010
2020/01/31 11:33:26.5	299.690	-0.290	-0.240	-0.040
2020/01/31 11:33:26.6	299.720	-0.270	-0.270	-0.080
2020/01/31 11:33:26.7	299.740	-0.250	-0.290	-0.110
2020/01/31 11:33:26.8	299.770	-0.230	-0.310	-0.140
2020/01/31 11:33:26.9	299.800	-0.210	-0.340	-0.170
2020/01/31 11:33:27.0	299.830	-0.180	-0.360	-0.200
2020/01/31 11:33:27.1	299.860	-0.160	-0.380	-0.220
2020/01/31 11:33:27.2	299.890	-0.140	-0.390	-0.240
2020/01/31 11:33:27.3	299.920	-0.110	-0.410	-0.260
2020/01/31 11:33:27.4	299.960	-0.090	-0.420	-0.270
2020/01/31 11:33:27.5	299.990	-0.060	-0.430	-0.280
2020/01/31 11:33:27.6	300.020	-0.040	-0.440	-0.280
2020/01/31 11:33:27.7	300.060	-0.010	-0.450	-0.280
2020/01/31 11:33:27.8	300.090	0.010	-0.450	-0.270
2020/01/31 11:33:27.9	300.120	0.030	-0.440	-0.260
2020/01/31 11:33:28.0	300.150	0.060	-0.440	-0.250
2020/01/31 11:33:28.1	300.190	0.080	-0.430	-0.230
2020/01/31 11:33:28.2	300.220	0.100	-0.420	-0.210
2020/01/31 11:33:28.3	300.250	0.120	-0.400	-0.180
2020/01/31 11:33:28.4	300.280	0.140	-0.380	-0.150
2020/01/31 11:33:28.5	300.320	0.160	-0.360	-0.110
2020/01/31 11:33:28.6	300.350	0.170	-0.340	-0.080
2020/01/31 11:33:28.7	300.380	0.190	-0.310	-0.040
2020/01/31 11:33:28.8	300.410	0.200	-0.290	0.000
2020/01/31 11:33:28.9	300.440	0.210	-0.260	0.050
2020/01/31 11:33:29.0	300.470	0.230	-0.230	0.090
2020/01/31 11:33:29.1	300.500	0.240	-0.200	0.140
2020/01/31 11:33:29.2	300.530	0.250	-0.170	0.190
2020/01/31 11:33:29.3	300.560	0.260	-0.140	0.240
2020/01/31 11:33:29.4	300.590	0.260	-0.110	0.290
2020/01/31 11:33:29.5	300.600	0.270	-0.080	0.340
2020/01/31 11:33:29.6	300.620	0.280	-0.050	0.400
2020/01/31 11:33:29.7	300.650	0.280	-0.030	0.450
2020/01/31 11:33:29.8	300.680	0.290	-0.000	0.500
2020/01/31 11:33:29.9	300.700	0.290	0.020	0.560
2020/01/31 11:33:30.0	300.720	0.300	0.040	0.610
2020/01/31 11:33:30.1	300.750	0.300	0.060	0.660
2020/01/31 11:33:30.2	300.770	0.310	0.080	0.720
2020/01/31 11:33:30.3	300.790	0.310	0.100	0.770
2020/01/31 11:33:30.4	300.810	0.310	0.110	0.820
2020/01/31 11:33:30.5	300.810	0.310	0.120	0.870
2020/01/31 11:33:30.6	300.830	0.320	0.130	0.920
2020/01/31 11:33:30.7	300.840	0.320	0.140	0.970
2020/01/31 11:33:30.8	300.850	0.320	0.140	1.020
2020/01/31 11:33:30.9	300.860	0.320	0.150	1.060
2020/01/31 11:33:31.0	300.870	0.320	0.150	1.110
2020/01/31 11:33:31.1	300.880	0.320	0.140	1.150
2020/01/31 11:33:31.2	300.880	0.320	0.140	1.190
2020/01/31 11:33:31.3	300.880	0.320	0.130	1.230
2020/01/31 11:33:31.4	300.880	0.320	0.120	1.260
2020/01/31 11:33:31.5	300.890	0.310	0.110	1.290
2020/01/31 11:33:31.6	300.880	0.310	0.100	1.320
2020/01/31 11:33:31.7	300.880	0.310	0.080	1.340
2020/01/31 11:33:31.8	300.870	0.310	0.070	1.360
2020/01/31 11:33:31.9	300.860	0.300	0.050	1.380
2020/01/31 11:33:32.0	300.850	0.300	0.030	1.390
2020/01/31 11:33:32.1	300.830	0.290	0.010	1.390
2020/01/31 11:33:32.2	300.820	0.290	-0.010	1.400
2020/01/31 11:33:32.3	300.800	0.280	-0.040	1.390
2020/01/31 11:33:32.4	300.790	0.280	-0.060	1.390
2020/01/31 11:33:32.5	300.770	0.270	-0.090	1.380
2020/01/31 11:33:32.6	300.750	0.270	-0.120	1.360
2020/01/31 11:33:32.7	300.730	0.260	-0.150	1.350
2020/01/31 11:33:32.8	300.710	0.260	-0.180	1.330
2020/01/31 11:33:32.9	300.690	0.250	-0.210	1.310
2020/01/31 11:33:33.0	300.670	0.240	-0.240	1.280
2020/01/31 11:33:33.1	300.650	0.240	-0.270	1.250
2020/01/31 11:33:33.2	300.620	0.230	-0.310	1.230
2020/01/31 11:33:33.3	300.600	0.230	-0.340	1.190
2020/01/31 11:33:33.4	300.580	0.220	-0.370	1.160
2020/01/31 11:33:33.5	300.540	0.210	-0.410	1.130
2020/01/31 11:33:33.6	300.520	0.210	-0.440	1.090
2020/01/31 11:33:33.7	300.500	0.200	-0.470	1.060
2020/01/31 11:33:33.8	300.480	0.200	-0.510	1.020
2020/01/31 11:33:33.9	300.460	0.190	-0.540	0.980
2020/01/31 11:33:34.0	300.440	0.190	-0.570	0.940
2020/01/31 11:33:34.1	300.420	0.180	-0.610	0.900
2020/01/31 11:33:34.2	300.400	0.180	-0.640	0.860
2020/01/31 11:33:34.3	300.380	0.170	-0.670	0.820
2020/01/31 11:33:34.4	300.360	0.160	-0.700	0.780
2020/01/31 11:33:34.5	300.350	0.160	-0.730	0.740
2020/01/31 11:33:34.6	300.330	0.150	-0.760	0.700
2020/01/31 11:33:34.7	300.310	0.140	-0.790	0.650
2020/01/31 11:33:34.8	300.300	0.130	-0.810	0.610
2020/01/31 11:33:34.9	300.290	0.120	-0.840	0.560
2020/01/31 11:33:35.0	300.270	0.110	-0.860	0.520
2020/01/31 11:33:35.1	300.260	0.100	-0.880	0.480
2020/01/31 11:33:35.2	300.250	0.080	-0.900	0.430
2020/01/31 11:33:35.3	300.240	0.070	-0.920	0.390
2020/01/31 11:33:35.4	300.230	0.050	-0.930	0.340
2020/01/31 11:33:35.5	300.230	0.040	-0.940	0.310
2020/01/31 11:33:35.6	300.230	0.020	-0.950	0.260
2020/01/31 11:33:35.7	300.220	-0.000	-0.960	0.220
2020/01/31 11:33:35.8	300.220	-0.020	-0.970	0.180
2020/01/31 11:33:35.9	300.210	-0.040	-0.970	0.140
2020/01/31 11:33:36.0	300.210	-0.070	-0.970	0.090
2020/01/31 11:33:36.1	300.210	-0.090	-0.960	0.050
2020/01/31 11:33:36.2	300.210	-0.110	-0.960	0.010
2020/01/31 11:33:36.3	300.210	-0.140	-0.950	-0.020
2020/01/31 11:33:36.4	300.220	-0.170	-0.940	-0.060
2020/01/31 11:33:36.5	300.230	-0.190	-0.930	-0.090
2020/01/31 11:33:36.6	300.230	-0.220	-0.910	-0.130
2020/01/31 11:33:36.7	300.240	-0.250	-0.890	-0.160
2020/01/31 11:33:36.8	300.250	-0.280	-0.870	-0.190
2020/01/31 11:33:36.9	300.260	-0.310	-0.850	-0.220
2020/01/31 11:33:37.0	300.280	-0.340	-0.820	-0.240
2020/01/31 11:33:37.1	300.290	-0.370	-0.790	-0.270
2020/01/31 11:33:37.2	300.310	-0.400	-0.760	-0.290
2020/01/31 11:33:37.3	300.330	-0.430	-0.730	-0.310
2020/01/31 11:33:37.4	300.350	-0.450	-0.690	-0.330
2020/01/31 11:33:37.5	300.370	-0.480	-0.660	-0.340
2020/01/31 11:33:37.6	300.390	-0.510	-0.620	-0.360
2020/01/31 11:33:37.7	300.420	-0.530	-0.580	-0.370
2020/01/31 11:33:37.8	300.440	-0.560	-0.530	-0.380
2020/01/31 11:33:37.9	300.460	-0.580	-0.490	-0.380
2020/01/31 11:33:38.0	300.490	-0.600	-0.440	-0.390
2020/01/31 11:33:38.1	300.510	-0.620	-0.390	-0.390
2020/01/31 11:33:38.2	300.540	-0.640	-0.350	-0.390
2020/01/31 11:33:38.3	300.560	-0.660	-0.300	-0.380
2020/01/31 11:33:38.4	300.590	-0.670	-0.250	-0.370
2020/01/31 11:33:38.5	300.630	-0.690	-0.200	-0.360
2020/01/31 11:33:38.6	300.660	-0.700	-0.150	-0.350
2020/01/31 11:33:38.7	300.680	-0.700	-0.100	-0.340
2020/01/31 11:33:38.8	300.710	-0.710	-0.050	-0.320
2020/01/31 11:33:38.9	300.740	-0.710	-0.010	-0.300
2020/01/31 11:33:39.0	300.760	-0.720	0.040	-0.280
2020/01/31 11:33:39.1	300.790	-0.710	0.090	-0.250
2020/01/31 11:33:39.2	300.820	-0.710	0.130	-0.230
2020/01/31 11:33:39.3	300.840	-0.700	0.170	-0.200
2020/01/31 11:33:39.4	300.870	-0.700	0.210	-0.170
2020/01/31 11:33:39.5	300.890	-0.690	0.250	-0.140
2020/01/31 11:33:39.6	300.920	-0.670	0.290	-0.110
2020/01/31 11:33:39.7	300.940	-0.660	0.330	-0.080
2020/01/31 11:33:39.8	300.970	-0.640	0.360	-0.050
2020/01/31 11:33:39.9	301.000	-0.620	0.390	-0.020
2020/01/31 11:33:40.0	301.020	-0.600	0.420	0.010
2020/01/31 11:33:40.1	301.050	-0.570	0.440	0.040
2020/01/31 11:33:40.2	301.070	-0.550	0.470	0.070
2020/01/31 11:33:40.3	301.100	-0.520	0.490	0.100
2020/01/31 11:33:40.4	301.120	-0.490	0.510	0.140
2020/01/31 11:33:40.5	301.140	-0.460	0.530	0.170
2020/01/31 11:33:40.6	301.160	-0.430	0.540	0.200
2020/01/31 11:33:40.7	301.180	-0.390	0.550	0.230
2020/01/31 11:33:40.8	301.190	-0.360	0.560	0.270
2020/01/31 11:33:40.9	301.200	-0.320	0.570	0.300
2020/01/31 11:33:41.0	301.220	-0.290	0.580	0.340
2020/01/31 11:33:41.1	301.230	-0.250	0.580	0.370
2020/01/31 11:33:41.2	301.230	-0.210	0.580	0.410
2020/01/31 11:33:41.3	301.240	-0.170	0.580	0.450
2020/01/31 11:33:41.4	301.240	-0.130	0.580	0.480
2020/01/31 11:33:41.5	301.240	-0.090	0.570	0.520
2020/01/31 11:33:41.6	301.240	-0.050	0.560	0.560
2020/01/31 11:33:41.7	301.240	-0.010	0.560	0.600
2020/01/31 11:33:41.8	301.230	0.030	0.540	0.630
2020/01/31 11:33:41.9	301.220	0.070	0.530	0.670
2020/01/31 11:33:42.0	301.210	0.110	0.520	0.710
2020/01/31 11:33:42.1	301.200	0.140	0.500	0.750
2020/01/31 11:33:42.2	301.190	0.180	0.480	0.790
2020/01/31 11:33:42.3	301.170	0.220	0.460	0.830
2020/01/31 11:33:42.4	301.160	0.250	0.440	0.860
2020/01/31 11:33:42.5	301.140	0.290	0.410	0.900
2020/01/31 11:33:42.6	301.120	0.320	0.390	0.930
2020/01/31 11:33:42.7	301.100	0.360	0.360	0.960
2020/01/31 11:33:42.8	301.080	0.390	0.330	0.990
2020/01/31 11:33:42.9	301.050	0.420	0.300	1.020
2020/01/31 11:33:43.0	301.030	0.450	0.270	1.050
2020/01/31 11:33:43.1	301.000	0.470	0.230	1.080
2020/01/31 11:33:43.2	300.980	0.500	0.200	1.100
2020/01/31 11:33:43.3	300.950	0.520	0.170	1.130
2020/01/31 11:33:43.4	300.920	0.550	0.130	1.150
2020/01/31 11:33:43.5	300.890	0.570	0.090	1.170
2020/01/31 11:33:43.6	300.860	0.590	0.050	1.180
2020/01/31 11:33:43.7	300.830	0.600	0.010	1.190
2020/01/31 11:33:43.8	300.810	0.620	-0.020	1.200
2020/01/31 11:33:43.9	300.780	0.630	-0.060	1.200
2020/01/31 11:33:44.0	300.760	0.650	-0.110	1.200
2020/01/31 11:33:44.1	300.730	0.660	-0.150	1.200
2020/01/31 11:33:44.2	300.710	0.670	-0.190	1.190
2020/01/31 11:33:44.3	300.690	0.670	-0.240	1.180
2020/01/31 11:33:44.4	300.670	0.680	-0.280	1.160
2020/01/31 11:33:44.5	300.650	0.680	-0.320	1.140
2020/01/31 11:33:44.6	300.630	0.690	-0.370	1.120
2020/01/31 11:33:44.7	300.610	0.690	-0.410	1.090
2020/01/31 11:33:44.8	300.600	0.690	-0.460	1.060
2020/01/31 11:33:44.9	300.580	0.680	-0.510	1.030
2020/01/31 11:33:45.0	300.570	0.680	-0.550	1.000
2020/01/31 11:33:45.1	300.560	0.680	-0.600	0.960
2020/01/31 11:33:45.2	300.550	0.670	-0.650	0.920
2020/01/31 11:33:45.3	300.550	0.660	-0.690	0.880
2020/01/31 11:33:45.4	300.540	0.650	-0.730	0.840
2020/01/31 11:33:45.5	300.530	0.640	-0.780	0.790
2020/01/31 11:33:45.6	300.530	0.630	-0.820	0.750
2020/01/31 11:33:45.7	300.530	0.610	-0.860	0.700
2020/01/31 11:33:45.8	300.540	0.590	-0.900	0.650
2020/01/31 11:33:45.9	300.540	0.580	-0.940	0.600
2020/01/31 11:33:46.0	300.550	0.560	-0.970	0.550
2020/01/31 11:33:46.1	300.550	0.540	-1.010	0.500
2020/01/31 11:33:46.2	300.560	0.520	-1.040	0.450
2020/01/31 11:33:46.3	300.570	0.500	-1.070	0.390
2020/01/31 11:33:46.4	300.590	0.480	-1.090	0.340
2020/01/31 11:33:46.5	300.590	0.450	-1.110	0.290
2020/01/31 11:33:46.6	300.600	0.430	-1.130	0.240
2020/01/31 11:33:46.7	300.610	0.400	-1.150	0.200
2020/01/31 11:33:46.8	300.630	0.380	-1.160	0.150
2020/01/31 11:33:46.9	300.640	0.350	-1.170	0.110
2020/01/31 11:33:47.0	300.660	0.320	-1.180	0.070
2020/01/31 11:33:47.1	300.670	0.290	-1.180	0.030
2020/01/31 11:33:47.2	300.680	0.270	-1.180	-0.000
2020/01/31 11:33:47.3	300.700	0.240	-1.180	-0.030
2020/01/31 11:33:47.4	300.710	0.210	-1.170	-0.060
2020/01/31 11:33:47.5	300.710	0.180	-1.160	-0.080
2020/01/31 11:33:47.6	300.720	0.150	-1.140	-0.100
2020/01/31 11:33:47.7	300.730	0.120	-1.130	-0.120
2020/01/31 11:33:47.8	300.740	0.090	-1.110	-0.140
2020/01/31 11:33:47.9	300.750	0.060	-1.080	-0.150
2020/01/31 11:33:48.0	300.760	0.030	-1.060	-0.150
2020/01/31 11:33:48.1	300.760	0.000	-1.030	-0.160
2020/01/31 11:33:48.2	300.770	-0.030	-1.000	-0.160
2020/01/31 11:33:48.3	300.770	-0.060	-0.960	-0.160
2020/01/31 11:33:48.4	300.780	-0.090	-0.920	-0.150
2020/01/31 11:33:48.5	300.780	-0.120	-0.890	-0.140
2020/01/31 11:33:48.6	300.780	-0.140	-0.850	-0.130
2020/01/31 11:33:48.7	300.780	-0.170	-0.800	-0.120
2020/01/31 11:33:48.8	300.780	-0.200	-0.760	-0.110
2020/01/31 11:33:48.9	300.780	-0.230	-0.710	-0.090
2020/01/31 11:33:49.0	300.770	-0.250	-0.670	-0.080
2020/01/31 11:33:49.1	300.770	-0.280	-0.620	-0.060
2020/01/31 11:33:49.2	300.760	-0.300	-0.570	-0.040
2020/01/31 11:33:49.3	300.760	-0.330	-0.520	-0.020
2020/01/31 11:33:49.4	300.750	-0.350	-0.460	-0.000
2020/01/31 11:33:49.5	300.760	-0.370	-0.410	0.020
2020/01/31 11:33:49.6	300.750	-0.400	-0.350	0.040
2020/01/31 11:33:49.7	300.740	-0.420	-0.300	0.060
2020/01/31 11:33:49.8	300.730	-0.440	-0.250	0.080
2020/01/31 11:33:49.9	300.720	-0.460	-0.190	0.110
2020/01/31 11:33:50.0	300.710	-0.470	-0.140	0.130
2020/01/31 11:33:50.1	300.700	-0.490	-0.090	0.160
2020/01/31 11:33:50.2	300.690	-0.510	-0.040	0.180
2020/01/31 11:33:50.3	300.680	-0.520	0.010	0.210
2020/01/31 11:33:50.4	300.670	-0.540	0.060	0.230
2020/01/31 11:33:50.5	300.650	-0.550	0.110	0.260
2020/01/31 11:33:50.6	300.640	-0.560	0.160	0.290
2020/01/31 11:33:50.7	300.630	-0.570	0.200	0.320
2020/01/31 11:33:50.8	300.610	-0.580	0.240	0.340
2020/01/31 11:33:50.9	300.600	-0.590	0.280	0.370
2020/01/31 11:33:51.0	300.590	-0.590	0.320	0.390
2020/01/31 11:33:51.1	300.580	-0.600	0.350	0.410
2020/01/31 11:33:51.2	300.570	-0.600	0.380	0.440
2020/01/31 11:33:51.3	300.560	-0.600	0.410	0.460
2020/01/31 11:33:51.4	300.550	-0.610	0.440	0.480
2020/01/31 11:33:51.5	300.550	-0.610	0.460	0.500
2020/01/31 11:33:51.6	300.550	-0.600	0.470	0.520
2020/01/31 11:33:51.7	300.540	-0.600	0.490	0.530
2020/01/31 11:33:51.8	300.540	-0.590	0.500	0.550
2020/01/31 11:33:51.9	300.530	-0.590	0.500	0.570
2020/01/31 11:33:52.0	300.530	-0.580	0.510	0.580
2020/01/31 11:33:52.1	300.530	-0.570	0.510	0.600
2020/01/31 11:33:52.2	300.520	-0.560	0.500	0.610
2020/01/31 11:33:52.3	300.520	-0.550	0.490	0.620
2020/01/31 11:33:52.4	300.520	-0.530	0.480	0.630
2020/01/31 11:33:52.5	300.530	-0.520	0.470	0.640
2020/01/31 11:33:52.6	300.530	-0.500	0.450	0.660
2020/01/31 11:33:52.7	300.530	-0.480	0.430	0.670
2020/01/31 11:33:52.8	300.540	-0.460	0.410	0.680
2020/01/31 11:33:52.9	300.540	-0.440	0.380	0.680
2020/01/31 11:33:53.0	300.540	-0.420	0.350	0.690
2020/01/31 11:33:53.1	300.550	-0.400	0.320	0.700
2020/01/31 11:33:53.2	300.550	-0.370	0.290	0.700
2020/01/31 11:33:53.3	300.560	-0.350	0.260	0.710
2020/01/31 11:33:53.4	300.570	-0.320	0.220	0.710
2020/01/31 11:33:53.5	300.580	-0.290	0.190	0.720
2020/01/31 11:33:53.6	300.590	-0.260	0.150	0.720
2020/01/31 11:33:53.7	300.600	-0.240	0.110	0.720
2020/01/31 11:33:53.8	300.610	-0.210	0.070	0.730
2020/01/31 11:33:53.9	300.630	-0.180	0.040	0.720
2020/01/31 11:33:54.0	300.640	-0.150	-0.000	0.720
2020/01/31 11:33:54.1	300.660	-0.120	-0.040	0.720
2020/01/31 11:33:54.2	300.670	-0.090	-0.080	0.720
2020/01/31 11:33:54.3	300.690	-0.060	-0.120	0.710
2020/01/31 11:33:54.4	300.710	-0.030	-0.150	0.710
2020/01/31 11:33:54.5	300.720	0.000	-0.190	0.700
2020/01/31 11:33:54.6	300.740	0.030	-0.220	0.690
2020/01/31 11:33:54.7	300.760	0.060	-0.250	0.680
2020/01/31 11:33:54.8	300.780	0.090	-0.290	0.680
2020/01/31 11:33:54.9	300.800	0.110	-0.310	0.670
2020/01/31 11:33:55.0	300.820	0.140	-0.340	0.660
2020/01/31 11:33:55.1	300.840	0.170	-0.370	0.650
2020/01/31 11:33:55.2	300.860	0.190	-0.390	0.640
2020/01/31 11:33:55.3	300.880	0.210	-0.410	0.630
2020/01/31 11:33:55.4	300.890	0.230	-0.420	0.620
2020/01/31 11:33:55.5	300.890	0.250	-0.440	0.610
2020/01/31 11:33:55.6	300.910	0.270	-0.450	0.610
2020/01/31 11:33:55.7	300.930	0.290	-0.460	0.600
2020/01/31 11:33:55.8	300.940	0.310	-0.470	0.590
2020/01/31 11:33:55.9	300.950	0.320	-0.470	0.580
2020/01/31 11:33:56.0	300.970	0.340	-0.470	0.580
2020/01/31 11:33:56.1	300.980	0.350	-0.470	0.570
2020/01/31 11:33:56.2	300.980	0.360	-0.470	0.570
2020/01/31 11:33:56.3	300.990	0.370	-0.460	0.560
2020/01/31 11:33:56.4	301.000	0.380	-0.460	0.560
2020/01/31 11:33:56.5	301.000	0.380	-0.450	0.560
2020/01/31 11:33:56.6	301.010	0.390	-0.440	0.560
2020/01/31 11:33:56.7	301.010	0.390	-0.430	0.560
2020/01/31 11:33:56.8	301.000	0.400	-0.420	0.550
2020/01/31 11:33:56.9	301.000	0.400	-0.400	0.560
2020/01/31 11:33:57.0	301.000	0.400	-0.390	0.560
2020/01/31 11:33:57.1	300.990	0.400	-0.380	0.560
2020/01/31 11:33:57.2	300.980	0.400	-0.360	0.560
2020/01/31 11:33:57.3	300.980	0.400	-0.350	0.560
2020/01/31 11:33:57.4	300.970	0.400	-0.330	0.560
2020/01/31 11:33:57.5	300.960	0.400	-0.320	0.570
2020/01/31 11:33:57.6	300.950	0.400	-0.300	0.570
2020/01/31 11:33:57.7	300.940	0.400	-0.290	0.570
2020/01/31 11:33:57.8	300.920	0.390	-0.270	0.570
2020/01/31 11:33:57.9	300.910	0.390	-0.260	0.570
2020/01/31 11:33:58.0	300.900	0.390	-0.250	0.570
2020/01/31 11:33:58.1	300.890	0.380	-0.240	0.570
2020/01/31 11:33:58.2	300.870	0.380	-0.220	0.570
2020/01/31 11:33:58.3	300.860	0.380	-0.210	0.570
2020/01/31 11:33:58.4	300.840	0.370	-0.200	0.570
2020/01/31 11:33:58.5	300.820	0.370	-0.200	0.580
2020/01/31 11:33:58.6	300.810	0.370	-0.190	0.580
2020/01/31 11:33:58.7	300.790	0.360	-0.180	0.580
2020/01/31 11:33:58.8	300.770	0.360	-0.170	0.580
2020/01/31 11:33:58.9	300.760	0.360	-0.170	0.590
2020/01/31 11:33:59.0	300.740	0.350	-0.160	0.590
2020/01/31 11:33:59.1	300.720	0.350	-0.160	0.600
2020/01/31 11:33:59.2	300.700	0.350	-0.150	0.600
2020/01/31 11:33:59.3	300.680	0.340	-0.150	0.610
2020/01/31 11:33:59.4	300.660	0.340	-0.150	0.620
2020/01/31 11:33:59.5	300.640	0.340	-0.150	0.630
2020/01/31 11:33:59.6	300.620	0.330	-0.150	0.640
2020/01/31 11:33:59.7	300.600	0.330	-0.150	0.650
2020/01/31 11:33:59.8	300.580	0.330	-0.150	0.660
2020/01/31 11:33:59.9	300.560	0.330	-0.150	0.670
2020/01/31 11:34:00.0	300.540	0.320	-0.160	0.680
2020/01/31 11:34:00.1	300.520	0.320	-0.160	0.700
2020/01/31 11:34:00.2	300.510	0.310	-0.170	0.710
2020/01/31 11:34:00.3	300.490	0.310	-0.180	0.720
2020/01/31 11:34:00.4	300.470	0.310	-0.180	0.730
2020/01/31 11:34:00.5	300.450	0.300	-0.190	0.750
2020/01/31 11:34:00.6	300.430	0.300	-0.210	0.760
2020/01/31 11:34:00.7	300.420	0.290	-0.220	0.770
2020/01/31 11:34:00.8	300.400	0.290	-0.230	0.780
2020/01/31 11:34:00.9	300.390	0.280	-0.250	0.790
2020/01/31 11:34:01.0	300.380	0.270	-0.270	0.800
2020/01/31 11:34:01.1	300.370	0.260	-0.280	0.810
2020/01/31 11:34:01.2	300.360	0.260	-0.300	0.810
2020/01/31 11:34:01.3	300.350	0.250	-0.320	0.810
2020/01/31 11:34:01.4	300.340	0.240	-0.340	0.820
2020/01/31 11:34:01.5	300.350	0.230	-0.370	0.810
2020/01/31 11:34:01.6	300.350	0.210	-0.390	0.810
2020/01/31 11:34:01.7	300.340	0.200	-0.410	0.800
2020/01/31 11:34:01.8	300.340	0.190	-0.430	0.800
2020/01/31 11:34:01.9	300.340	0.170	-0.460	0.790
2020/01/31 11:34:02.0	300.340	0.160	-0.480	0.780
2020/01/31 11:34:02.1	300.350	0.140	-0.500	0.760
2020/01/31 11:34:02.2	300.350	0.130	-0.530	0.750
2020/01/31 11:34:02.3	300.360	0.110	-0.550	0.730
2020/01/31 11:34:02.4	300.370	0.090	-0.570	0.720
2020/01/31 11:34:02.5	300.370	0.080	-0.580	0.700
2020/01/31 11:34:02.6	300.380	0.060	-0.600	0.680
2020/01/31 11:34:02.7	300.400	0.040	-0.620	0.660
2020/01/31 11:34:02.8	300.410	0.020	-0.630	0.630
2020/01/31 11:34:02.9	300.430	-0.010	-0.640	0.610
2020/01/31 11:34:03.0	300.450	-0.030	-0.650	0.590
2020/01/31 11:34:03.1	300.470	-0.050	-0.660	0.560
2020/01/31 11:34:03.2	300.480	-0.070	-0.660	0.540
2020/01/31 11:34:03.3	300.510	-0.100	-0.660	0.510
2020/01/31 11:34:03.4	300.530	-0.120	-0.660	0.490
2020/01/31 11:34:03.5	300.540	-0.150	-0.660	0.470
2020/01/31 11:34:03.6	300.560	-0.170	-0.660	0.440
2020/01/31 11:34:03.7	300.580	-0.200	-0.650	0.420
2020/01/31 11:34:03.8	300.600	-0.220	-0.640	0.400
2020/01/31 11:34:03.9	300.630	-0.250	-0.630	0.370
2020/01/31 11:34:04.0	300.650	-0.280	-0.610	0.350
2020/01/31 11:34:04.1	300.670	-0.300	-0.600	0.330
2020/01/31 11:34:04.2	300.700	-0.330	-0.580	0.310
2020/01/31 11:34:04.3	300.720	-0.350	-0.560	0.290
2020/01/31 11:34:04.4	300.750	-0.380	-0.540	0.270
2020/01/31 11:34:04.5	300.770	-0.400	-0.510	0.250
2020/01/31 11:34:04.6	300.800	-0.430	-0.490	0.230
2020/01/31 11:34:04.7	300.820	-0.450	-0.460	0.210
2020/01/31 11:34:04.8	300.840	-0.470	-0.430	0.190
2020/01/31 11:34:04.9	300.870	-0.490	-0.410	0.180
2020/01/31 11:34:05.0	300.890	-0.510	-0.380	0.160
2020/01/31 11:34:05.1	300.910	-0.530	-0.350	0.140
2020/01/31 11:34:05.2	300.930	-0.550	-0.320	0.130
2020/01/31 11:34:05.3	300.960	-0.570	-0.290	0.110
2020/01/31 11:34:05.4	300.980	-0.580	-0.260	0.100
2020/01/31 11:34:05.5	301.000	-0.600	-0.230	0.080
2020/01/31 11:34:05.6	301.020	-0.610	-0.210	0.070
2020/01/31 11:34:05.7	301.030	-0.620	-0.180	0.060
2020/01/31 11:34:05.8	301.050	-0.630	-0.150	0.040
2020/01/31 11:34:05.9	301.070	-0.640	-0.130	0.030
2020/01/31 11:34:06.0	301.080	-0.640	-0.110	0.020
2020/01/31 11:34:06.1	301.090	-0.640	-0.080	0.010
2020/01/31 11:34:06.2	301.110	-0.640	-0.060	0.000
2020/01/31 11:34:06.3	301.120	-0.640	-0.050	-0.010
2020/01/31 11:34:06.4	301.130	-0.640	-0.030	-0.020
2020/01/31 11:34:06.5	301.140	-0.640	-0.010	-0.020
2020/01/31 11:34:06.6	301.140	-0.630	-0.000	-0.030
2020/01/31 11:34:06.7	301.150	-0.620	0.010	-0.030
2020/01/31 11:34:06.8	301.160	-0.610	0.020	-0.030
2020/01/31 11:34:06.9	301.160	-0.600	0.030	-0.030
2020/01/31 11:34:07.0	301.170	-0.590	0.040	-0.030
2020/01/31 11:34:07.1	301.170	-0.570	0.050	-0.020
2020/01/31 11:34:07.2	301.170	-0.550	0.050	-0.020
2020/01/31 11:34:07.3	301.170	-0.540	0.060	-0.010
2020/01/31 11:34:07.4	301.170	-0.520	0.060	0.000
2020/01/31 11:34:07.5	301.180	-0.490	0.070	0.020
2020/01/31 11:34:07.6	301.170	-0.470	0.070	0.030
2020/01/31 11:34:07.7	301.170	-0.450	0.080	0.050
2020/01/31 11:34:07.8	301.160	-0.420	0.080	0.070
2020/01/31 11:34:07.9	301.160	-0.390	0.080	0.090
2020/01/31 11:34:08.0	301.150	-0.360	0.080	0.120
2020/01/31 11:34:08.1	301.140	-0.340	0.080	0.150
2020/01/31 11:34:08.2	301.130	-0.300	0.090	0.170
2020/01/31 11:34:08.3	301.120	-0.270	0.090	0.210
2020/01/31 11:34:08.4	301.110	-0.240	0.090	0.240
2020/01/31 11:34:08.5	301.100	-0.210	0.090	0.280
2020/01/31 11:34:08.6	301.090	-0.170	0.090	0.320
2020/01/31 11:34:08.7	301.080	-0.140	0.090	0.360
2020/01/31 11:34:08.8	301.060	-0.100	0.090	0.400
2020/01/31 11:34:08.9	301.040	-0.070	0.090	0.450
2020/01/31 11:34:09.0	301.030	-0.030	0.080	0.490
2020/01/31 11:34:09.1	301.010	0.010	0.080	0.540
2020/01/31 11:34:09.2	300.990	0.040	0.080	0.580
2020/01/31 11:34:09.3	300.970	0.080	0.070	0.630
2020/01/31 11:34:09.4	300.950	0.120	0.070	0.680
2020/01/31 11:34:09.5	300.940	0.160	0.060	0.730
2020/01/31 11:34:09.6	300.920	0.190	0.060	0.780
2020/01/31 11:34:09.7	300.890	0.230	0.050	0.820
2020/01/31 11:34:09.8	300.870	0.270	0.040	0.870
2020/01/31 11:34:09.9	300.850	0.300	0.030	0.920
2020/01/31 11:34:10.0	300.830	0.340	0.020	0.960
2020/01/31 11:34:10.1	300.810	0.370	0.000	1.010
2020/01/31 11:34:10.2	300.790	0.410	-0.010	1.050
2020/01/31 11:34:10.3	300.760	0.440	-0.030	1.090
2020/01/31 11:34:10.4	300.740	0.470	-0.050	1.130
2020/01/31 11:34:10.5	300.720	0.500	-0.060	1.170
2020/01/31 11:34:10.6	300.690	0.530	-0.080	1.210
2020/01/31 11:34:10.7	300.670	0.560	-0.110	1.250
2020/01/31 11:34:10.8	300.650	0.590	-0.130	1.280
2020/01/31 11:34:10.9	300.630	0.610	-0.150	1.320
2020/01/31 11:34:11.0	300.600	0.640	-0.170	1.350
2020/01/31 11:34:11.1	300.580	0.660	-0.190	1.380
2020/01/31 11:34:11.2	300.560	0.680	-0.220	1.410
2020/01/31 11:34:11.3	300.540	0.700	-0.240	1.440
2020/01/31 11:34:11.4	300.510	0.720	-0.260	1.460
2020/01/31 11:34:11.5	300.490	0.730	-0.290	1.490
2020/01/31 11:34:11.6	300.470	0.740	-0.310	1.510
2020/01/31 11:34:11.7	300.450	0.760	-0.330	1.530
2020/01/31 11:34:11.8	300.430	0.760	-0.350	1.550
2020/01/31 11:34:11.9	300.410	0.770	-0.370	1.570
2020/01/31 11:34:12.0	300.390	0.780	-0.390	1.580
2020/01/31 11:34:12.1	300.370	0.780	-0.410	1.600
2020/01/31 11:34:12.2	300.350	0.780	-0.420	1.610
2020/01/31 11:34:12.3	300.340	0.780	-0.440	1.610
2020/01/31 11:34:12.4	300.330	0.780	-0.460	1.610
2020/01/31 11:34:12.5	300.310	0.770	-0.470	1.610
2020/01/31 11:34:12.6	300.300	0.770	-0.480	1.610
2020/01/31 11:34:12.7	300.290	0.760	-0.490	1.600
2020/01/31 11:34:12.8	300.280	0.750	-0.500	1.590
2020/01/31 11:34:12.9	300.280	0.730	-0.510	1.570
2020/01/31 11:34:13.0	300.270	0.720	-0.520	1.550
2020/01/31 11:34:13.1	300.270	0.700	-0.530	1.530
2020/01/31 11:34:13.2	300.270	0.680	-0.530	1.500
2020/01/31 11:34:13.3	300.270	0.660	-0.540	1.470
2020/01/31 11:34:13.4	300.270	0.640	-0.540	1.440
2020/01/31 11:34:13.5	300.280	0.610	-0.540	1.410
2020/01/31 11:34:13.6	300.290	0.590	-0.540	1.370
2020/01/31 11:34:13.7	300.290	0.560	-0.540	1.320
2020/01/31 11:34:13.8	300.300	0.520	-0.540	1.280
2020/01/31 11:34:13.9	300.310	0.490	-0.530	1.230
2020/01/31 11:34:14.0	300.320	0.460	-0.530	1.180
2020/01/31 11:34:14.1	300.340	0.420	-0.520	1.130
2020/01/31 11:34:14.2	300.350	0.380	-0.510	1.070
2020/01/31 11:34:14.3	300.360	0.340	-0.490	1.010
2020/01/31 11:34:14.4	300.380	0.300	-0.480	0.950
2020/01/31 11:34:14.5	300.410	0.260	-0.470	0.900
2020/01/31 11:34:14.6	300.430	0.220	-0.450	0.830
2020/01/31 11:34:14.7	300.450	0.170	-0.430	0.770
2020/01/31 11:34:14.8	300.470	0.130	-0.410	0.700
2020/01/31 11:34:14.9	300.490	0.090	-0.390	0.630
2020/01/31 11:34:15.0	300.510	0.040	-0.370	0.560
2020/01/31 11:34:15.1	300.540	-0.000	-0.350	0.490
2020/01/31 11:34:15.2	300.560	-0.050	-0.330	0.420
2020/01/31 11:34:15.3	300.590	-0.090	-0.300	0.350
2020/01/31 11:34:15.4	300.610	-0.130	-0.280	0.280
2020/01/31 11:34:15.5	300.630	-0.170	-0.260	0.210
2020/01/31 11:34:15.6	300.660	-0.220	-0.240	0.140
2020/01/31 11:34:15.7	300.680	-0.260	-0.220	0.070
2020/01/31 11:34:15.8	300.710	-0.290	-0.190	0.010
2020/01/31 11:34:15.9	300.730	-0.330	-0.170	-0.060
2020/01/31 11:34:16.0	300.760	-0.360	-0.150	-0.120
2020/01/31 11:34:16.1	300.780	-0.400	-0.140	-0.170
2020/01/31 11:34:16.2	300.800	-0.430	-0.120	-0.230
2020/01/31 11:34:16.3	300.820	-0.460	-0.100	-0.280
2020/01/31 11:34:16.4	300.840	-0.480	-0.090	-0.330
2020/01/31 11:34:16.5	300.870	-0.510	-0.080	-0.370
2020/01/31 11:34:16.6	300.890	-0.530	-0.070	-0.410
2020/01/31 11:34:16.7	300.900	-0.550	-0.060	-0.440
2020/01/31 11:34:16.8	300.920	-0.560	-0.060	-0.480
2020/01/31 11:34:16.9	300.940	-0.580	-0.050	-0.510
2020/01/31 11:34:17.0	300.950	-0.590	-0.050	-0.530
2020/01/31 11:34:17.1	300.960	-0.600	-0.050	-0.550
2020/01/31 11:34:17.2	300.980	-0.600	-0.060	-0.570
2020/01/31 11:34:17.3	300.990	-0.600	-0.060	-0.580
2020/01/31 11:34:17.4	301.000	-0.600	-0.070	-0.590
2020/01/31 11:34:17.5	301.020	-0.600	-0.090	-0.590
2020/01/31 11:34:17.6	301.030	-0.590	-0.100	-0.600
2020/01/31 11:34:17.7	301.040	-0.580	-0.120	-0.600
2020/01/31 11:34:17.8	301.050	-0.570	-0.130	-0.590
2020/01/31 11:34:17.9	301.050	-0.560	-0.150	-0.580
2020/01/31 11:34:18.0	301.060	-0.540	-0.170	-0.570
2020/01/31 11:34:18.1	301.060	-0.530	-0.200	-0.560
2020/01/31 11:34:18.2	301.070	-0.510	-0.220	-0.550
2020/01/31 11:34:18.3	301.070	-0.480	-0.240	-0.530
2020/01/31 11:34:18.4	301.070	-0.460	-0.270	-0.500
2020/01/31 11:34:18.5	301.090	-0.440	-0.290	-0.480
2020/01/31 11:34:18.6	301.090	-0.410	-0.310	-0.450
2020/01/31 11:34:18.7	301.090	-0.380	-0.340	-0.420
2020/01/31 11:34:18.8	301.090	-0.360	-0.360	-0.380
2020/01/31 11:34:18.9	301.080	-0.330	-0.380	-0.350
2020/01/31 11:34:19.0	301.080	-0.300	-0.400	-0.310
2020/01/31 11:34:19.1	301.070	-0.270	-0.420	-0.260
2020/01/31 11:34:19.2	301.060	-0.250	-0.430	-0.220
2020/01/31 11:34:19.3	301.050	-0.220	-0.450	-0.170
2020/01/31 11:34:19.4	301.040	-0.200	-0.460	-0.120
2020/01/31 11:34:19.5	301.030	-0.170	-0.470	-0.070
2020/01/31 11:34:19.6	301.020	-0.150	-0.480	-0.010
2020/01/31 11:34:19.7	301.000	-0.120	-0.480	0.040
2020/01/31 11:34:19.8	300.980	-0.100	-0.480	0.100
2020/01/31 11:34:19.9	300.970	-0.080	-0.480	0.160
2020/01/31 11:34:20.0	300.950	-0.060	-0.480	0.220
2020/01/31 11:34:20.1	300.920	-0.050	-0.470	0.280
2020/01/31 11:34:20.2	300.900	-0.030	-0.460	0.340
2020/01/31 11:34:20.3	300.880	-0.020	-0.450	0.400
2020/01/31 11:34:20.4	300.850	-0.010	-0.430	0.470
2020/01/31 11:34:20.5	300.820	0.000	-0.420	0.530
2020/01/31 11:34:20.6	300.790	0.010	-0.390	0.590
2020/01/31 11:34:20.7	300.760	0.010	-0.370	0.650
2020/01/31 11:34:20.8	300.730	0.020	-0.340	0.720
2020/01/31 11:34:20.9	300.700	0.020	-0.320	0.780
2020/01/31 11:34:21.0	300.670	0.020	-0.290	0.840
2020/01/31 11:34:21.1	300.640	0.020	-0.260	0.890
2020/01/31 11:34:21.2	300.610	0.020	-0.220	0.950
2020/01/31 11:34:21.3	300.580	0.010	-0.190	1.010
2020/01/31 11:34:21.4	300.550	0.010	-0.160	1.060
2020/01/31 11:34:21.5	300.510	0.000	-0.130	1.110
2020/01/31 11:34:21.6	300.480	-0.000	-0.100	1.160
2020/01/31 11:34:21.7	300.460	-0.010	-0.070	1.200
2020/01/31 11:34:21.8	300.430	-0.010	-0.040	1.240
2020/01/31 11:34:21.9	300.400	-0.020	-0.010	1.280
2020/01/31 11:34:22.0	300.380	-0.030	0.010	1.310
2020/01/31 11:34:22.1	300.360	-0.040	0.030	1.340
2020/01/31 11:34:22.2	300.330	-0.040	0.040	1.360
2020/01/31 11:34:22.3	300.310	-0.050	0.050	1.380
2020/01/31 11:34:22.4	300.300	-0.060	0.060	1.390
2020/01/31 11:34:22.5	300.280	-0.060	0.070	1.400
2020/01/31 11:34:22.6	300.270	-0.070	0.060	1.400
2020/01/31 11:34:22.7	300.260	-0.070	0.060	1.400
2020/01/31 11:34:22.8	300.250	-0.070	0.050	1.400
2020/01/31 11:34:22.9	300.240	-0.070	0.030	1.390
2020/01/31 11:34:23.0	300.240	-0.070	0.010	1.380
2020/01/31 11:34:23.1	300.240	-0.070	-0.010	1.360
2020/01/31 11:34:23.2	300.230	-0.070	-0.040	1.340
2020/01/31 11:34:23.3	300.230	-0.070	-0.070	1.320
2020/01/31 11:34:23.4	300.240	-0.060	-0.100	1.300
2020/01/31 11:34:23.5	300.240	-0.060	-0.140	1.270
2020/01/31 11:34:23.6	300.250	-0.050	-0.170	1.240
2020/01/31 11:34:23.7	300.250	-0.040	-0.210	1.210
2020/01/31 11:34:23.8	300.260	-0.040	-0.250	1.180
2020/01/31 11:34:23.9	300.270	-0.030	-0.290	1.140
2020/01/31 11:34:24.0	300.280	-0.010	-0.340	1.110
2020/01/31 11:34:24.1	300.290	-0.000	-0.380	1.070
2020/01/31 11:34:24.2	300.300	0.010	-0.420	1.030
2020/01/31 11:34:24.3	300.320	0.020	-0.460	0.990
2020/01/31 11:34:24.4	300.330	0.040	-0.500	0.960
2020/01/31 11:34:24.5	300.340	0.050	-0.530	0.920
2020/01/31 11:34:24.6	300.360	0.070	-0.560	0.880
2020/01/31 11:34:24.7	300.370	0.090	-0.590	0.840
2020/01/31 11:34:24.8	300.390	0.100	-0.620	0.800
2020/01/31 11:34:24.9	300.410	0.120	-0.640	0.770
2020/01/31 11:34:25.0	300.420	0.140	-0.660	0.740
2020/01/31 11:34:25.1	300.440	0.160	-0.670	0.700
2020/01/31 11:34:25.2	300.460	0.170	-0.680	0.670
2020/01/31 11:34:25.3	300.470	0.190	-0.680	0.640
2020/01/31 11:34:25.4	300.490	0.210	-0.680	0.610
2020/01/31 11:34:25.5	300.490	0.220	-0.680	0.590
2020/01/31 11:34:25.6	300.510	0.240	-0.670	0.570
2020/01/31 11:34:25.7	300.520	0.250	-0.650	0.550
2020/01/31 11:34:25.8	300.540	0.270	-0.630	0.530
2020/01/31 11:34:25.9	300.550	0.280	-0.600	0.510
2020/01/31 11:34:26.0	300.560	0.290	-0.570	0.490
2020/01/31 11:34:26.1	300.570	0.300	-0.540	0.480
2020/01/31 11:34:26.2	300.580	0.310	-0.500	0.470
2020/01/31 11:34:26.3	300.590	0.320	-0.460	0.460
2020/01/31 11:34:26.4	300.600	0.330	-0.410	0.460
2020/01/31 11:34:26.5	300.600	0.340	-0.370	0.450
2020/01/31 11:34:26.6	300.610	0.340	-0.320	0.450
2020/01/31 11:34:26.7	300.610	0.350	-0.270	0.450
2020/01/31 11:34:26.8	300.620	0.350	-0.220	0.450
2020/01/31 11:34:26.9	300.620	0.350	-0.160	0.460
2020/01/31 11:34:27.0	300.620	0.350	-0.110	0.470
2020/01/31 11:34:27.1	300.620	0.350	-0.050	0.470
2020/01/31 11:34:27.2	300.620	0.340	-0.000	0.480
2020/01/31 11:34:27.3	300.610	0.340	0.050	0.500
2020/01/31 11:34:27.4	300.610	0.330	0.100	0.510
2020/01/31 11:34:27.5	300.600	0.330	0.150	0.520
2020/01/31 11:34:27.6	300.600	0.320	0.190	0.540
2020/01/31 11:34:27.7	300.590	0.310	0.240	0.550
2020/01/31 11:34:27.8	300.580	0.300	0.280	0.570
2020/01/31 11:34:27.9	300.570	0.290	0.310	0.590
2020/01/31 11:34:28.0	300.560	0.280	0.350	0.600
2020/01/31 11:34:28.1	300.550	0.260	0.380	0.620
2020/01/31 11:34:28.2	300.540	0.250	0.400	0.630
2020/01/31 11:34:28.3	300.520	0.240	0.420	0.640
2020/01/31 11:34:28.4	300.510	0.220	0.440	0.650
2020/01/31 11:34:28.5	300.510	0.210	0.450	0.660
2020/01/31 11:34:28.6	300.500	0.190	0.450	0.670
2020/01/31 11:34:28.7	300.490	0.180	0.450	0.670
2020/01/31 11:34:28.8	300.480	0.160	0.450	0.680
2020/01/31 11:34:28.9	300.480	0.150	0.440	0.680
2020/01/31 11:34:29.0	300.470	0.130	0.430	0.680
2020/01/31 11:34:29.1	300.470	0.120	0.410	0.670
2020/01/31 11:34:29.2	300.460	0.100	0.380	0.670
2020/01/31 11:34:29.3	300.460	0.090	0.350	0.660
2020/01/31 11:34:29.4	300.460	0.080	0.320	0.650
2020/01/31 11:34:29.5	300.460	0.070	0.280	0.640
2020/01/31 11:34:29.6	300.460	0.050	0.240	0.630
2020/01/31 11:34:29.7	300.460	0.040	0.200	0.610
2020/01/31 11:34:29.8	300.460	0.030	0.150	0.590
2020/01/31 11:34:29.9	300.470	0.020	0.100	0.580
2020/01/31 11:34:30.0	300.470	0.020	0.060	0.560
2020/01/31 11:34:30.1	300.480	0.010	0.000	0.530
2020/01/31 11:34:30.2	300.480	-0.000	-0.050	0.510
2020/01/31 11:34:30.3	300.490	-0.010	-0.100	0.490
2020/01/31 11:34:30.4	300.500	-0.010	-0.150	0.470
2020/01/31 11:34:30.5	300.500	-0.020	-0.210	0.440
2020/01/31 11:34:30.6	300.510	-0.020	-0.260	0.420
2020/01/31 11:34:30.7	300.520	-0.030	-0.310	0.390
2020/01/31 11:34:30.8	300.520	-0.030	-0.360	0.370
2020/01/31 11:34:30.9	300.530	-0.040	-0.400	0.350
2020/01/31 11:34:31.0	300.530	-0.040	-0.450	0.330
2020/01/31 11:34:31.1	300.540	-0.040	-0.490	0.300
2020/01/31 11:34:31.2	300.540	-0.050	-0.530	0.280
2020/01/31 11:34:31.3	300.550	-0.050	-0.560	0.260
2020/01/31 11:34:31.4	300.550	-0.050	-0.600	0.240
2020/01/31 11:34:31.5	300.540	-0.060	-0.630	0.230
2020/01/31 11:34:31.6	300.540	-0.060	-0.650	0.210
2020/01/31 11:34:31.7	300.540	-0.060	-0.680	0.200
2020/01/31 11:34:31.8	300.540	-0.070	-0.700	0.180
2020/01/31 11:34:31.9	300.540	-0.070	-0.720	0.170
2020/01/31 11:34:32.0	300.540	-0.070	-0.730	0.160
2020/01/31 11:34:32.1	300.530	-0.070	-0.740	0.150
2020/01/31 11:34:32.2	300.530	-0.080	-0.750	0.140
2020/01/31 11:34:32.3	300.530	-0.080	-0.750	0.130
2020/01/31 11:34:32.4	300.530	-0.080	-0.750	0.130
2020/01/31 11:34:32.5	300.530	-0.080	-0.750	0.130
2020/01/31 11:34:32.6	300.520	-0.090	-0.750	0.130
2020/01/31 11:34:32.7	300.520	-0.090	-0.740	0.130
2020/01/31 11:34:32.8	300.510	-0.090	-0.740	0.130
2020/01/31 11:34:32.9	300.510	-0.090	-0.730	0.140
2020/01/31 11:34:33.0	300.510	-0.090	-0.710	0.140
2020/01/31 11:34:33.1	300.500	-0.100	-0.700	0.150
2020/01/31 11:34:33.2	300.500	-0.100	-0.690	0.170
2020/01/31 11:34:33.3	300.500	-0.100	-0.670	0.180
2020/01/31 11:34:33.4	300.490	-0.100	-0.660	0.200
2020/01/31 11:34:33.5	300.490	-0.100	-0.640	0.210
2020/01/31 11:34:33.6	300.490	-0.100	-0.620	0.230
2020/01/31 11:34:33.7	300.490	-0.100	-0.610	0.250
2020/01/31 11:34:33.8	300.480	-0.100	-0.590	0.270
2020/01/31 11:34:33.9	300.480	-0.100	-0.570	0.300
2020/01/31 11:34:34.0	300.480	-0.100	-0.550	0.320
2020/01/31 11:34:34.1	300.480	-0.100	-0.540	0.340
2020/01/31 11:34:34.2	300.470	-0.100	-0.520	0.360
2020/01/31 11:34:34.3	300.470	-0.100	-0.500	0.390
2020/01/31 11:34:34.4	300.470	-0.100	-0.490	0.410
2020/01/31 11:34:34.5	300.470	-0.100	-0.470	0.430
2020/01/31 11:34:34.6	300.470	-0.100	-0.460	0.450
2020/01/31 11:34:34.7	300.470	-0.090	-0.450	0.480
2020/01/31 11:34:34.8	300.470	-0.090	-0.440	0.500
2020/01/31 11:34:34.9	300.470	-0.090	-0.430	0.520
2020/01/31 11:34:35.0	300.470	-0.090	-0.420	0.530
2020/01/31 11:34:35.1	300.470	-0.090	-0.420	0.550
2020/01/31 11:34:35.2	300.480	-0.100	-0.410	0.570
2020/01/31 11:34:35.3	300.480	-0.100	-0.410	0.580
2020/01/31 11:34:35.4	300.490	-0.100	-0.410	0.590
2020/01/31 11:34:35.5	300.500	-0.100	-0.410	0.600
2020/01/31 11:34:35.6	300.500	-0.100	-0.400	0.610
2020/01/31 11:34:35.7	300.510	-0.100	-0.400	0.620
2020/01/31 11:34:35.8	300.520	-0.110	-0.400	0.620
2020/01/31 11:34:35.9	300.520	-0.110	-0.400	0.630
2020/01/31 11:34:36.0	300.530	-0.110	-0.400	0.630
2020/01/31 11:34:36.1	300.540	-0.120	-0.390	0.630
2020/01/31 11:34:36.2	300.540	-0.120	-0.380	0.630
2020/01/31 11:34:36.3	300.550	-0.130	-0.380	0.640
2020/01/31 11:34:36.4	300.550	-0.140	-0.370	0.640
2020/01/31 11:34:36.5	300.560	-0.140	-0.350	0.640
2020/01/31 11:34:36.6	300.560	-0.150	-0.340	0.640
2020/01/31 11:34:36.7	300.560	-0.160	-0.320	0.640
2020/01/31 11:34:36.8	300.560	-0.170	-0.310	0.640
2020/01/31 11:34:36.9	300.560	-0.180	-0.290	0.630
2020/01/31 11:34:37.0	300.550	-0.190	-0.260	0.630
2020/01/31 11:34:37.1	300.550	-0.200	-0.240	0.630
2020/01/31 11:34:37.2	300.540	-0.210	-0.220	0.630
2020/01/31 11:34:37.3	300.530	-0.220	-0.190	0.630
2020/01/31 11:34:37.4	300.520	-0.230	-0.160	0.630
2020/01/31 11:34:37.5	300.500	-0.230	-0.130	0.630
2020/01/31 11:34:37.6	300.490	-0.240	-0.100	0.630
2020/01/31 11:34:37.7	300.470	-0.250	-0.070	0.630
2020/01/31 11:34:37.8	300.460	-0.260	-0.050	0.630
2020/01/31 11:34:37.9	300.450	-0.270	-0.020	0.630
2020/01/31 11:34:38.0	300.440	-0.270	0.010	0.630
2020/01/31 11:34:38.1	300.420	-0.280	0.040	0.630
2020/01/31 11:34:38.2	300.410	-0.280	0.070	0.630
2020/01/31 11:34:38.3	300.390	-0.290	0.100	0.630
2020/01/31 11:34:38.4	300.380	-0.290	0.120	0.630
2020/01/31 11:34:38.5	300.370	-0.290	0.140	0.630
2020/01/31 11:34:38.6	300.350	-0.290	0.160	0.630
2020/01/31 11:34:38.7	300.340	-0.290	0.180	0.630
2020/01/31 11:34:38.8	300.320	-0.280	0.200	0.630
2020/01/31 11:34:38.9	300.310	-0.270	0.220	0.630
2020/01/31 11:34:39.0	300.290	-0.270	0.230	0.630
2020/01/31 11:34:39.1	300.280	-0.260	0.240	0.640
2020/01/31 11:34:39.2	300.270	-0.250	0.250	0.640
2020/01/31 11:34:39.3	300.250	-0.230	0.260	0.640
2020/01/31 11:34:39.4	300.240	-0.220	0.270	0.640
2020/01/31 11:34:39.5	300.230	-0.200	0.270	0.650
2020/01/31 11:34:39.6	300.220	-0.190	0.270	0.650
2020/01/31 11:34:39.7	300.210	-0.170	0.270	0.660
2020/01/31 11:34:39.8	300.190	-0.150	0.270	0.660
2020/01/31 11:34:39.9	300.180	-0.120	0.270	0.670
2020/01/31 11:34:40.0	300.170	-0.100	0.270	0.670
2020/01/31 11:34:40.1	300.160	-0.080	0.260	0.680
2020/01/31 11:34:40.2	300.140	-0.050	0.260	0.690
2020/01/31 11:34:40.3	300.130	-0.030	0.250	0.700
2020/01/31 11:34:40.4	300.120	-0.000	0.240	0.710
2020/01/31 11:34:40.5	300.120	0.020	0.230	0.720
2020/01/31 11:34:40.6	300.110	0.050	0.220	0.730
2020/01/31 11:34:40.7	300.100	0.080	0.200	0.740
2020/01/31 11:34:40.8	300.090	0.100	0.190	0.750
2020/01/31 11:34:40.9	300.090	0.130	0.170	0.750
2020/01/31 11:34:41.0	300.080	0.150	0.150	0.760
2020/01/31 11:34:41.1	300.080	0.180	0.130	0.760
2020/01/31 11:34:41.2	300.080	0.200	0.110	0.760
2020/01/31 11:34:41.3	300.080	0.230	0.090	0.760
2020/01/31 11:34:41.4	300.080	0.250	0.070	0.760
2020/01/31 11:34:41.5	300.090	0.270	0.040	0.750
2020/01/31 11:34:41.6	300.090	0.290	0.020	0.750
2020/01/31 11:34:41.7	300.100	0.310	-0.010	0.740
2020/01/31 11:34:41.8	300.110	0.330	-0.040	0.730
2020/01/31 11:34:41.9	300.120	0.340	-0.070	0.720
2020/01/31 11:34:42.0	300.130	0.360	-0.100	0.700
2020/01/31 11:34:42.1	300.140	0.370	-0.130	0.690
2020/01/31 11:34:42.2	300.160	0.380	-0.160	0.670
2020/01/31 11:34:42.3	300.170	0.400	-0.190	0.650
2020/01/31 11:34:42.4	300.190	0.410	-0.230	0.630
2020/01/31 11:34:42.5	300.210	0.420	-0.260	0.610
2020/01/31 11:34:42.6	300.230	0.420	-0.290	0.590
2020/01/31 11:34:42.7	300.250	0.430	-0.320	0.560
2020/01/31 11:34:42.8	300.280	0.440	-0.350	0.540
2020/01/31 11:34:42.9	300.310	0.440	-0.380	0.510
2020/01/31 11:34:43.0	300.330	0.440	-0.410	0.480
2020/01/31 11:34:43.1	300.360	0.440	-0.440	0.450
2020/01/31 11:34:43.2	300.390	0.450	-0.460	0.420
2020/01/31 11:34:43.3	300.420	0.450	-0.490	0.390
2020/01/31 11:34:43.4	300.450	0.440	-0.510	0.360
2020/01/31 11:34:43.5	300.460	0.440	-0.530	0.330
2020/01/31 11:34:43.6	300.490	0.440	-0.550	0.300
2020/01/31 11:34:43.7	300.520	0.430	-0.570	0.270
2020/01/31 11:34:43.8	300.550	0.430	-0.590	0.240
2020/01/31 11:34:43.9	300.590	0.420	-0.610	0.210
2020/01/31 11:34:44.0	300.620	0.410	-0.620	0.180
2020/01/31 11:34:44.1	300.650	0.400	-0.630	0.150
2020/01/31 11:34:44.2	300.680	0.390	-0.640	0.120
2020/01/31 11:34:44.3	300.710	0.380	-0.650	0.100
2020/01/31 11:34:44.4	300.740	0.370	-0.660	0.070
2020/01/31 11:34:44.5	300.770	0.350	-0.660	0.040
2020/01/31 11:34:44.6	300.790	0.340	-0.670	0.020
2020/01/31 11:34:44.7	300.820	0.320	-0.670	0.000
2020/01/31 11:34:44.8	300.840	0.300	-0.670	-0.020
2020/01/31 11:34:44.9	300.870	0.280	-0.670	-0.030
2020/01/31 11:34:45.0	300.890	0.270	-0.670	-0.050
2020/01/31 11:34:45.1	300.910	0.250	-0.670	-0.060
2020/01/31 11:34:45.2	300.920	0.230	-0.670	-0.060
2020/01/31 11:34:45.3	300.940	0.200	-0.660	-0.070
2020/01/31 11:34:45.4	300.950	0.180	-0.660	-0.070
2020/01/31 11:34:45.5	300.960	0.160	-0.650	-0.070
2020/01/31 11:34:45.6	300.970	0.140	-0.640	-0.060
2020/01/31 11:34:45.7	300.980	0.110	-0.630	-0.060
2020/01/31 11:34:45.8	300.980	0.090	-0.620	-0.050
2020/01/31 11:34:45.9	300.980	0.070	-0.610	-0.040
2020/01/31 11:34:46.0	300.980	0.040	-0.600	-0.020
2020/01/31 11:34:46.1	300.980	0.020	-0.590	-0.010
2020/01/31 11:34:46.2	300.970	-0.000	-0.570	0.010
2020/01/31 11:34:46.3	300.970	-0.030	-0.550	0.040
2020/01/31 11:34:46.4	300.960	-0.050	-0.540	0.060
2020/01/31 11:34:46.5	300.960	-0.070	-0.520	0.090
2020/01/31 11:34:46.6	300.950	-0.090	-0.500	0.120
2020/01/31 11:34:46.7	300.930	-0.120	-0.480	0.150
2020/01/31 11:34:46.8	300.920	-0.140	-0.460	0.180
2020/01/31 11:34:46.9	300.900	-0.160	-0.440	0.210
2020/01/31 11:34:47.0	300.880	-0.180	-0.420	0.250
2020/01/31 11:34:47.1	300.860	-0.200	-0.400	0.280
2020/01/31 11:34:47.2	300.840	-0.220	-0.380	0.320
2020/01/31 11:34:47.3	300.820	-0.230	-0.360	0.360
2020/01/31 11:34:47.4	300.800	-0.250	-0.340	0.400
2020/01/31 11:34:47.5	300.780	-0.270	-0.310	0.440
2020/01/31 11:34:47.6	300.750	-0.290	-0.290	0.480
2020/01/31 11:34:47.7	300.730	-0.300	-0.270	0.520
2020/01/31 11:34:47.8	300.700	-0.320	-0.250	0.560
2020/01/31 11:34:47.9	300.670	-0.330	-0.230	0.600
2020/01/31 11:34:48.0	300.640	-0.340	-0.210	0.640
2020/01/31 11:34:48.1	300.610	-0.350	-0.190	0.680
2020/01/31 11:34:48.2	300.580	-0.370	-0.170	0.710
2020/01/31 11:34:48.3	300.550	-0.380	-0.150	0.750
2020/01/31 11:34:48.4	300.530	-0.390	-0.130	0.780
2020/01/31 11:34:48.5	300.510	-0.400	-0.110	0.820
2020/01/31 11:34:48.6	300.480	-0.400	-0.090	0.850
2020/01/31 11:34:48.7	300.450	-0.410	-0.070	0.870
2020/01/31 11:34:48.8	300.420	-0.420	-0.060	0.900
2020/01/31 11:34:48.9	300.400	-0.420	-0.040	0.930
2020/01/31 11:34:49.0	300.370	-0.420	-0.030	0.950
2020/01/31 11:34:49.1	300.350	-0.430	-0.010	0.970
2020/01/31 11:34:49.2	300.320	-0.430	-0.000	0.990
2020/01/31 11:34:49.3	300.300	-0.430	0.010	1.000
2020/01/31 11:34:49.4	300.280	-0.430	0.030	1.020
2020/01/31 11:34:49.5	300.260	-0.430	0.040	1.030
2020/01/31 11:34:49.6	300.240	-0.420	0.050	1.040
2020/01/31 11:34:49.7	300.220	-0.420	0.060	1.050
2020/01/31 11:34:49.8	300.200	-0.410	0.060	1.060
2020/01/31 11:34:49.9	300.180	-0.400	0.070	1.060
2020/01/31 11:34:50.0	300.170	-0.390	0.080	1.070
2020/01/31 11:34:50.1	300.150	-0.390	0.090	1.070
2020/01/31 11:34:50.2	300.140	-0.370	0.090	1.070
2020/01/31 11:34:50.3	300.120	-0.360	0.100	1.060
2020/01/31 11:34:50.4	300.110	-0.350	0.100	1.060
2020/01/31 11:34:50.5	300.080	-0.340	0.100	1.050
2020/01/31 11:34:50.6	300.070	-0.320	0.100	1.040
2020/01/31 11:34:50.7	300.060	-0.310	0.100	1.020
2020/01/31 11:34:50.8	300.050	-0.290	0.100	1.010
2020/01/31 11:34:50.9	300.050	-0.270	0.100	0.990
2020/01/31 11:34:51.0	300.040	-0.250	0.100	0.970
2020/01/31 11:34:51.1	300.030	-0.230	0.090	0.950
2020/01/31 11:34:51.2	300.030	-0.220	0.080	0.930
2020/01/31 11:34:51.3	300.030	-0.200	0.080	0.910
2020/01/31 11:34:51.4	300.030	-0.180	0.070	0.880
2020/01/31 11:34:51.5	300.030	-0.160	0.050	0.860
2020/01/31 11:34:51.6	300.030	-0.140	0.040	0.830
2020/01/31 11:34:51.7	300.030	-0.110	0.030	0.800
2020/01/31 11:34:51.8	300.030	-0.090	0.010	0.770
2020/01/31 11:34:51.9	300.030	-0.070	-0.000	0.740
2020/01/31 11:34:52.0	300.040	-0.050	-0.020	0.710
2020/01/31 11:34:52.1	300.040	-0.030	-0.040	0.680
2020/01/31 11:34:52.2	300.050	-0.010	-0.060	0.640
2020/01/31 11:34:52.3	300.060	0.010	-0.080	0.610
2020/01/31 11:34:52.4	300.070	0.030	-0.100	0.580
2020/01/31 11:34:52.5	300.080	0.050	-0.120	0.540
2020/01/31 11:34:52.6	300.090	0.060	-0.140	0.510
2020/01/31 11:34:52.7	300.110	0.080	-0.170	0.470
2020/01/31 11:34:52.8	300.120	0.100	-0.190	0.440
2020/01/31 11:34:52.9	300.140	0.120	-0.220	0.410
2020/01/31 11:34:53.0	300.160	0.130	-0.240	0.370
2020/01/31 11:34:53.1	300.180	0.150	-0.260	0.340
2020/01/31 11:34:53.2	300.210	0.160	-0.290	0.310
2020/01/31 11:34:53.3	300.230	0.170	-0.310	0.280
2020/01/31 11:34:53.4	300.260	0.180	-0.330	0.250
2020/01/31 11:34:53.5	300.290	0.190	-0.360	0.220
2020/01/31 11:34:53.6	300.320	0.200	-0.380	0.190
2020/01/31 11:34:53.7	300.350	0.210	-0.400	0.160
2020/01/31 11:34:53.8	300.380	0.220	-0.420	0.140
2020/01/31 11:34:53.9	300.410	0.220	-0.430	0.110
2020/01/31 11:34:54.0	300.440	0.230	-0.450	0.090
2020/01/31 11:34:54.1	300.480	0.230	-0.470	0.070
2020/01/31 11:34:54.2	300.510	0.230	-0.480	0.050
2020/01/31 11:34:54.3	300.550	0.230	-0.490	0.030
2020/01/31 11:34:54.4	300.580	0.230	-0.500	0.020
2020/01/31 11:34:54.5	300.610	0.230	-0.510	0.000
2020/01/31 11:34:54.6	300.650	0.220	-0.520	-0.010
2020/01/31 11:34:54.7	300.680	0.220	-0.520	-0.020
2020/01/31 11:34:54.8	300.720	0.210	-0.530	-0.020
2020/01/31 11:34:54.9	300.760	0.210	-0.530	-0.030
2020/01/31 11:34:55.0	300.790	0.200	-0.530	-0.030
2020/01/31 11:34:55.1	300.820	0.190	-0.530	-0.020
2020/01/31 11:34:55.2	300.860	0.180	-0.520	-0.020
2020/01/31 11:34:55.3	300.890	0.170	-0.520	-0.010
2020/01/31 11:34:55.4	300.920	0.160	-0.510	0.010
2020/01/31 11:34:55.5	300.970	0.150	-0.500	0.030
2020/01/31 11:34:55.6	301.000	0.140	-0.500	0.040
2020/01/31 11:34:55.7	301.020	0.130	-0.490	0.060
2020/01/31 11:34:55.8	301.050	0.120	-0.480	0.090
2020/01/31 11:34:55.9	301.070	0.110	-0.470	0.110
2020/01/31 11:34:56.0	301.100	0.090	-0.460	0.140
2020/01/31 11:34:56.1	301.120	0.080	-0.450	0.160
2020/01/31 11:34:56.2	301.140	0.070	-0.450	0.190
2020/01/31 11:34:56.3	301.160	0.070	-0.440	0.220
2020/01/31 11:34:56.4	301.180	0.060	-0.430	0.250
2020/01/31 11:34:56.5	301.190	0.050	-0.430	0.280
2020/01/31 11:34:56.6	301.200	0.040	-0.420	0.310
2020/01/31 11:34:56.7	301.220	0.040	-0.420	0.340
2020/01/31 11:34:56.8	301.230	0.030	-0.410	0.370
2020/01/31 11:34:56.9	301.250	0.030	-0.410	0.410
2020/01/31 11:34:57.0	301.260	0.030	-0.400	0.440
2020/01/31 11:34:57.1	301.270	0.030	-0.400	0.470
2020/01/31 11:34:57.2	301.280	0.030	-0.400	0.500
2020/01/31 11:34:57.3	301.290	0.030	-0.390	0.540
2020/01/31 11:34:57.4	301.300	0.030	-0.390	0.570
2020/01/31 11:34:57.5	301.320	0.040	-0.380	0.610
2020/01/31 11:34:57.6	301.330	0.040	-0.380	0.640
2020/01/31 11:34:57.7	301.330	0.050	-0.370	0.680
2020/01/31 11:34:57.8	301.340	0.050	-0.360	0.710
2020/01/31 11:34:57.9	301.340	0.060	-0.350	0.750
2020/01/31 11:34:58.0	301.340	0.070	-0.340	0.790
2020/01/31 11:34:58.1	301.340	0.080	-0.320	0.820
2020/01/31 11:34:58.2	301.340	0.080	-0.310	0.860
2020/01/31 11:34:58.3	301.340	0.090	-0.290	0.890
2020/01/31 11:34:58.4	301.330	0.100	-0.270	0.930
2020/01/31 11:34:58.5	301.320	0.110	-0.250	0.970
2020/01/31 11:34:58.6	301.310	0.120	-0.230	1.000
2020/01/31 11:34:58.7	301.300	0.120	-0.210	1.030
2020/01/31 11:34:58.8	301.290	0.130	-0.190	1.070
2020/01/31 11:34:58.9	301.270	0.130	-0.160	1.100
2020/01/31 11:34:59.0	301.260	0.140	-0.140	1.120
2020/01/31 11:34:59.1	301.240	0.140	-0.110	1.150
2020/01/31 11:34:59.2	301.220	0.140	-0.090	1.170
2020/01/31 11:34:59.3	301.200	0.140	-0.060	1.190
2020/01/31 11:34:59.4	301.180	0.140	-0.040	1.210
2020/01/31 11:34:59.5	301.160	0.140	-0.010	1.220
2020/01/31 11:34:59.6	301.130	0.140	0.010	1.240
2020/01/31 11:34:59.7	301.100	0.140	0.040	1.250
2020/01/31 11:34:59.8	301.080	0.130	0.060	1.260
2020/01/31 11:34:59.9	301.050	0.130	0.080	1.260
2020/01/31 11:35:00.0	301.010	0.120	0.110	1.270
2020/01/31 11:35:00.1	300.980	0.110	0.130	1.270
2020/01/31 11:35:00.2	300.950	0.100	0.150	1.270
2020/01/31 11:35:00.3	300.910	0.090	0.170	1.270
2020/01/31 11:35:00.4	300.880	0.080	0.180	1.260
2020/01/31 11:35:00.5	300.830	0.070	0.200	1.250
2020/01/31 11:35:00.6	300.800	0.050	0.210	1.240
2020/01/31 11:35:00.7	300.760	0.040	0.220	1.220
2020/01/31 11:35:00.8	300.720	0.030	0.230	1.200
2020/01/31 11:35:00.9	300.690	0.010	0.240	1.180
2020/01/31 11:35:01.0	300.650	-0.000	0.250	1.160
2020/01/31 11:35:01.1	300.610	-0.020	0.250	1.130
2020/01/31 11:35:01.2	300.580	-0.040	0.250	1.100
2020/01/31 11:35:01.3	300.540	-0.050	0.250	1.070
2020/01/31 11:35:01.4	300.510	-0.070	0.240	1.040
2020/01/31 11:35:01.5	300.490	-0.080	0.240	1.010
2020/01/31 11:35:01.6	300.460	-0.100	0.230	0.970
2020/01/31 11:35:01.7	300.430	-0.110	0.210	0.930
2020/01/31 11:35:01.8	300.400	-0.130	0.200	0.890
2020/01/31 11:35:01.9	300.370	-0.140	0.180	0.850
2020/01/31 11:35:02.0	300.340	-0.160	0.160	0.800
2020/01/31 11:35:02.1	300.310	-0.170	0.140	0.760
2020/01/31 11:35:02.2	300.290	-0.180	0.110	0.710
2020/01/31 11:35:02.3	300.270	-0.190	0.080	0.660
2020/01/31 11:35:02.4	300.250	-0.200	0.050	0.610
2020/01/31 11:35:02.5	300.230	-0.200	0.020	0.560
2020/01/31 11:35:02.6	300.220	-0.210	-0.020	0.510
2020/01/31 11:35:02.7	300.200	-0.220	-0.050	0.460
2020/01/31 11:35:02.8	300.190	-0.220	-0.090	0.410
2020/01/31 11:35:02.9	300.180	-0.220	-0.130	0.350
2020/01/31 11:35:03.0	300.170	-0.220	-0.170	0.300
2020/01/31 11:35:03.1	300.160	-0.230	-0.200	0.250
2020/01/31 11:35:03.2	300.150	-0.220	-0.240	0.190
2020/01/31 11:35:03.3	300.150	-0.220	-0.280	0.140
2020/01/31 11:35:03.4	300.140	-0.220	-0.320	0.090
2020/01/31 11:35:03.5	300.150	-0.220	-0.360	0.040
2020/01/31 11:35:03.6	300.150	-0.210	-0.390	-0.020
2020/01/31 11:35:03.7	300.150	-0.210	-0.430	-0.070
2020/01/31 11:35:03.8	300.160	-0.200	-0.470	-0.120
2020/01/31 11:35:03.9	300.170	-0.190	-0.500	-0.170
2020/01/31 11:35:04.0	300.180	-0.180	-0.530	-0.210
2020/01/31 11:35:04.1	300.190	-0.180	-0.560	-0.260
2020/01/31 11:35:04.2	300.200	-0.170	-0.600	-0.300
2020/01/31 11:35:04.3	300.220	-0.160	-0.620	-0.350
2020/01/31 11:35:04.4	300.240	-0.150	-0.650	-0.390
2020/01/31 11:35:04.5	300.260	-0.140	-0.680	-0.430
2020/01/31 11:35:04.6	300.280	-0.130	-0.700	-0.470
2020/01/31 11:35:04.7	300.300	-0.120	-0.720	-0.500
2020/01/31 11:35:04.8	300.330	-0.120	-0.740	-0.530
2020/01/31 11:35:04.9	300.360	-0.110	-0.760	-0.560
2020/01/31 11:35:05.0	300.390	-0.100	-0.770	-0.590
2020/01/31 11:35:05.1	300.420	-0.090	-0.780	-0.610
2020/01/31 11:35:05.2	300.460	-0.080	-0.790	-0.640
2020/01/31 11:35:05.3	300.490	-0.070	-0.800	-0.650
2020/01/31 11:35:05.4	300.530	-0.060	-0.810	-0.670
2020/01/31 11:35:05.5	300.580	-0.050	-0.810	-0.680
2020/01/31 11:35:05.6	300.620	-0.050	-0.820	-0.680
2020/01/31 11:35:05.7	300.660	-0.040	-0.820	-0.680
2020/01/31 11:35:05.8	300.700	-0.030	-0.810	-0.680
2020/01/31 11:35:05.9	300.730	-0.020	-0.810	-0.670
2020/01/31 11:35:06.0	300.770	-0.020	-0.800	-0.660
2020/01/31 11:35:06.1	300.810	-0.010	-0.800	-0.640
2020/01/31 11:35:06.2	300.850	-0.000	-0.790	-0.620
2020/01/31 11:35:06.3	300.890	0.010	-0.770	-0.600
2020/01/31 11:35:06.4	300.930	0.010	-0.760	-0.570
2020/01/31 11:35:06.5	300.970	0.020	-0.740	-0.540
2020/01/31 11:35:06.6	301.010	0.020	-0.720	-0.510
2020/01/31 11:35:06.7	301.040	0.030	-0.700	-0.470
2020/01/31 11:35:06.8	301.080	0.030	-0.680	-0.430
2020/01/31 11:35:06.9	301.110	0.040	-0.660	-0.390
2020/01/31 11:35:07.0	301.140	0.040	-0.630	-0.340
2020/01/31 11:35:07.1	301.170	0.050	-0.600	-0.290
2020/01/31 11:35:07.2	301.200	0.050	-0.570	-0.240
2020/01/31 11:35:07.3	301.230	0.050	-0.540	-0.180
2020/01/31 11:35:07.4	301.250	0.050	-0.510	-0.120
2020/01/31 11:35:07.5	301.290	0.050	-0.470	-0.060
2020/01/31 11:35:07.6	301.310	0.050	-0.440	0.000
2020/01/31 11:35:07.7	301.330	0.050	-0.400	0.060
2020/01/31 11:35:07.8	301.340	0.050	-0.370	0.130
2020/01/31 11:35:07.9	301.360	0.050	-0.330	0.190
2020/01/31 11:35:08.0	301.380	0.050	-0.290	0.260
2020/01/31 11:35:08.1	301.390	0.040	-0.250	0.320
2020/01/31 11:35:08.2	301.400	0.040	-0.220	0.380
2020/01/31 11:35:08.3	301.410	0.040	-0.180	0.450
2020/01/31 11:35:08.4	301.420	0.030	-0.140	0.510
2020/01/31 11:35:08.5	301.440	0.030	-0.100	0.570
2020/01/31 11:35:08.6	301.450	0.020	-0.070	0.630
2020/01/31 11:35:08.7	301.450	0.010	-0.030	0.690
2020/01/31 11:35:08.8	301.450	0.010	0.000	0.750
2020/01/31 11:35:08.9	301.450	-0.000	0.040	0.800
2020/01/31 11:35:09.0	301.450	-0.010	0.070	0.850
2020/01/31 11:35:09.1	301.440	-0.020	0.100	0.900
2020/01/31 11:35:09.2	301.440	-0.020	0.130	0.950
2020/01/31 11:35:09.3	301.430	-0.030	0.160	1.000
2020/01/31 11:35:09.4	301.420	-0.040	0.180	1.040
2020/01/31 11:35:09.5	301.420	-0.050	0.200	1.080
2020/01/31 11:35:09.6	301.400	-0.060	0.230	1.110
2020/01/31 11:35:09.7	301.390	-0.060	0.250	1.150
2020/01/31 11:35:09.8	301.370	-0.070	0.260	1.180
2020/01/31 11:35:09.9	301.350	-0.080	0.280	1.200
2020/01/31 11:35:10.0	301.330	-0.080	0.290	1.220
2020/01/31 11:35:10.1	301.310	-0.090	0.300	1.240
2020/01/31 11:35:10.2	301.290	-0.100	0.310	1.250
2020/01/31 11:35:10.3	301.270	-0.100	0.310	1.260
2020/01/31 11:35:10.4	301.240	-0.100	0.310	1.270
2020/01/31 11:35:10.5	301.220	-0.110	0.310	1.280
2020/01/31 11:35:10.6	301.190	-0.110	0.310	1.280
2020/01/31 11:35:10.7	301.170	-0.110	0.300	1.280
2020/01/31 11:35:10.8	301.140	-0.110	0.300	1.270
2020/01/31 11:35:10.9	301.120	-0.110	0.290	1.270
2020/01/31 11:35:11.0	301.090	-0.110	0.270	1.260
2020/01/31 11:35:11.1	301.060	-0.100	0.260	1.250
2020/01/31 11:35:11.2	301.030	-0.100	0.240	1.240
2020/01/31 11:35:11.3	301.010	-0.090	0.220	1.230
2020/01/31 11:35:11.4	300.980	-0.090	0.200	1.210
2020/01/31 11:35:11.5	300.940	-0.080	0.170	1.190
2020/01/31 11:35:11.6	300.910	-0.080	0.150	1.180
2020/01/31 11:35:11.7	300.880	-0.070	0.120	1.160
2020/01/31 11:35:11.8	300.850	-0.060	0.090	1.130
2020/01/31 11:35:11.9	300.820	-0.050	0.050	1.110
2020/01/31 11:35:12.0	300.790	-0.040	0.020	1.090
2020/01/31 11:35:12.1	300.770	-0.030	-0.010	1.060
2020/01/31 11:35:12.2	300.740	-0.020	-0.050	1.030
2020/01/31 11:35:12.3	300.710	-0.010	-0.090	1.000
2020/01/31 11:35:12.4	300.690	-0.000	-0.120	0.970
2020/01/31 11:35:12.5	300.670	0.010	-0.160	0.940
2020/01/31 11:35:12.6	300.640	0.020	-0.200	0.900
2020/01/31 11:35:12.7	300.620	0.030	-0.230	0.870
2020/01/31 11:35:12.8	300.600	0.040	-0.270	0.830
2020/01/31 11:35:12.9	300.590	0.050	-0.310	0.800
2020/01/31 11:35:13.0	300.570	0.050	-0.340	0.760
2020/01/31 11:35:13.1	300.550	0.060	-0.370	0.720
2020/01/31 11:35:13.2	300.540	0.070	-0.410	0.680
2020/01/31 11:35:13.3	300.530	0.080	-0.440	0.640
2020/01/31 11:35:13.4	300.520	0.090	-0.460	0.600
2020/01/31 11:35:13.5	300.500	0.090	-0.490	0.560
2020/01/31 11:35:13.6	300.490	0.100	-0.510	0.530
2020/01/31 11:35:13.7	300.480	0.110	-0.530	0.490
2020/01/31 11:35:13.8	300.480	0.110	-0.550	0.450
2020/01/31 11:35:13.9	300.470	0.120	-0.570	0.410
2020/01/31 11:35:14.0	300.470	0.120	-0.580	0.380
2020/01/31 11:35:14.1	300.470	0.120	-0.590	0.350
2020/01/31 11:35:14.2	300.460	0.120	-0.590	0.310
2020/01/31 11:35:14.3	300.460	0.120	-0.590	0.280
2020/01/31 11:35:14.4	300.460	0.120	-0.590	0.250
2020/01/31 11:35:14.5	300.460	0.120	-0.590	0.220
2020/01/31 11:35:14.6	300.460	0.120	-0.590	0.200
2020/01/31 11:35:14.7	300.470	0.120	-0.580	0.170
2020/01/31 11:35:14.8	300.470	0.110	-0.570	0.150
2020/01/31 11:35:14.9	300.470	0.110	-0.560	0.130
2020/01/31 11:35:15.0	300.480	0.100	-0.540	0.110
2020/01/31 11:35:15.1	300.480	0.100	-0.530	0.090
2020/01/31 11:35:15.2	300.490	0.090	-0.510	0.070
2020/01/31 11:35:15.3	300.500	0.080	-0.490	0.060
2020/01/31 11:35:15.4	300.510	0.070	-0.470	0.040
2020/01/31 11:35:15.5	300.500	0.070	-0.460	0.030
2020/01/31 11:35:15.6	300.510	0.060	-0.440	0.020
2020/01/31 11:35:15.7	300.520	0.050	-0.420	0.010
2020/01/31 11:35:15.8	300.530	0.040	-0.400	0.000
2020/01/31 11:35:15.9	300.540	0.030	-0.380	0.000
2020/01/31 11:35:16.0	300.550	0.020	-0.360	-0.000
2020/01/31 11:35:16.1	300.560	0.010	-0.340	-0.000
2020/01/31 11:35:16.2	300.570	-0.000	-0.320	0.000
2020/01/31 11:35:16.3	300.580	-0.010	-0.300	0.010
2020/01/31 11:35:16.4	300.590	-0.020	-0.290	0.010
2020/01/31 11:35:16.5	300.590	-0.030	-0.260	0.030
2020/01/31 11:35:16.6	300.600	-0.040	-0.250	0.040
2020/01/31 11:35:16.7	300.610	-0.050	-0.230	0.050
2020/01/31 11:35:16.8	300.620	-0.060	-0.220	0.070
2020/01/31 11:35:16.9	300.630	-0.070	-0.200	0.090
2020/01/31 11:35:17.0	300.640	-0.070	-0.190	0.120
2020/01/31 11:35:17.1	300.650	-0.080	-0.170	0.150
2020/01/31 11:35:17.2	300.650	-0.080	-0.160	0.180
2020/01/31 11:35:17.3	300.660	-0.090	-0.150	0.210
2020/01/31 11:35:17.4	300.670	-0.090	-0.140	0.240
2020/01/31 11:35:17.5	300.680	-0.090	-0.140	0.270
2020/01/31 11:35:17.6	300.680	-0.100	-0.130	0.310
2020/01/31 11:35:17.7	300.690	-0.100	-0.120	0.350
2020/01/31 11:35:17.8	300.690	-0.090	-0.120	0.390
2020/01/31 11:35:17.9	300.700	-0.090	-0.110	0.430
2020/01/31 11:35:18.0	300.700	-0.090	-0.110	0.470
2020/01/31 11:35:18.1	300.710	-0.090	-0.110	0.510
2020/01/31 11:35:18.2	300.710	-0.080	-0.110	0.550
2020/01/31 11:35:18.3	300.710	-0.070	-0.110	0.590
2020/01/31 11:35:18.4	300.720	-0.070	-0.120	0.630
2020/01/31 11:35:18.5	300.710	-0.060	-0.120	0.670
2020/01/31 11:35:18.6	300.710	-0.050	-0.130	0.710
2020/01/31 11:35:18.7	300.710	-0.040	-0.140	0.750
2020/01/31 11:35:18.8	300.710	-0.030	-0.150	0.780
2020/01/31 11:35:18.9	300.710	-0.020	-0.160	0.820
2020/01/31 11:35:19.0	300.710	-0.010	-0.170	0.850
2020/01/31 11:35:19.1	300.720	0.010	-0.190	0.880
2020/01/31 11:35:19.2	300.720	0.020	-0.200	0.910
2020/01/31 11:35:19.3	300.720	0.030	-0.220	0.940
2020/01/31 11:35:19.4	300.720	0.050	-0.240	0.960
2020/01/31 11:35:19.5	300.690	0.060	-0.260	0.980
2020/01/31 11:35:19.6	300.690	0.070	-0.280	1.000
2020/01/31 11:35:19.7	300.700	0.090	-0.300	1.020
2020/01/31 11:35:19.8	300.700	0.100	-0.320	1.030
2020/01/31 11:35:19.9	300.700	0.110	-0.330	1.040
2020/01/31 11:35:20.0	300.700	0.120	-0.350	1.050
2020/01/31 11:35:20.1	300.710	0.130	-0.370	1.060
2020/01/31 11:35:20.2	300.710	0.140	-0.390	1.060
2020/01/31 11:35:20.3	300.720	0.150	-0.410	1.060
2020/01/31 11:35:20.4	300.720	0.160	-0.420	1.050
2020/01/31 11:35:20.5	300.710	0.170	-0.430	1.050
2020/01/31 11:35:20.6	300.720	0.170	-0.440	1.040
2020/01/31 11:35:20.7	300.730	0.180	-0.450	1.030
2020/01/31 11:35:20.8	300.740	0.180	-0.460	1.010
2020/01/31 11:35:20.9	300.740	0.180	-0.470	1.000
2020/01/31 11:35:21.0	300.750	0.180	-0.470	0.980
2020/01/31 11:35:21.1	300.760	0.180	-0.470	0.960
2020/01/31 11:35:21.2	300.770	0.170	-0.470	0.940
2020/01/31 11:35:21.3	300.780	0.160	-0.470	0.920
2020/01/31 11:35:21.4	300.790	0.150	-0.460	0.900
2020/01/31 11:35:21.5	300.800	0.140	-0.450	0.870
2020/01/31 11:35:21.6	300.810	0.130	-0.440	0.850
2020/01/31 11:35:21.7	300.820	0.120	-0.430	0.820
2020/01/31 11:35:21.8	300.830	0.100	-0.410	0.800
2020/01/31 11:35:21.9	300.830	0.080	-0.390	0.770
2020/01/31 11:35:22.0	300.840	0.060	-0.370	0.740
2020/01/31 11:35:22.1	300.850	0.040	-0.340	0.720
2020/01/31 11:35:22.2	300.860	0.020	-0.320	0.690
2020/01/31 11:35:22.3	300.870	-0.000	-0.290	0.660
2020/01/31 11:35:22.4	300.870	-0.030	-0.260	0.630
2020/01/31 11:35:22.5	300.890	-0.060	-0.230	0.600
2020/01/31 11:35:22.6	300.890	-0.080	-0.200	0.570
2020/01/31 11:35:22.7	300.900	-0.110	-0.160	0.540
2020/01/31 11:35:22.8	300.910	-0.140	-0.130	0.510
2020/01/31 11:35:22.9	300.910	-0.170	-0.100	0.480
2020/01/31 11:35:23.0	300.920	-0.190	-0.070	0.450
2020/01/31 11:35:23.1	300.930	-0.220	-0.040	0.420
2020/01/31 11:35:23.2	300.930	-0.250	-0.010	0.390
2020/01/31 11:35:23.3	300.930	-0.270	0.020	0.360
2020/01/31 11:35:23.4	300.940	-0.300	0.040	0.330
2020/01/31 11:35:23.5	300.930	-0.320	0.070	0.300
2020/01/31 11:35:23.6	300.930	-0.350	0.090	0.270
2020/01/31 11:35:23.7	300.930	-0.370	0.110	0.250
2020/01/31 11:35:23.8	300.930	-0.390	0.120	0.220
2020/01/31 11:35:23.9	300.930	-0.400	0.140	0.190
2020/01/31 11:35:24.0	300.920	-0.420	0.150	0.170
2020/01/31 11:35:24.1	300.920	-0.430	0.160	0.150
2020/01/31 11:35:24.2	300.920	-0.440	0.170	0.130
2020/01/31 11:35:24.3	300.910	-0.450	0.170	0.110
2020/01/31 11:35:24.4	300.900	-0.460	0.170	0.090
2020/01/31 11:35:24.5	300.880	-0.460	0.170	0.070
2020/01/31 11:35:24.6	300.870	-0.460	0.160	0.060
2020/01/31 11:35:24.7	300.870	-0.460	0.160	0.050
2020/01/31 11:35:24.8	300.860	-0.450	0.140	0.040
2020/01/31 11:35:24.9	300.850	-0.440	0.130	0.030
2020/01/31 11:35:25.0	300.840	-0.430	0.120	0.020
2020/01/31 11:35:25.1	300.830	-0.420	0.100	0.020
2020/01/31 11:35:25.2	300.820	-0.400	0.080	0.020
2020/01/31 11:35:25.3	300.810	-0.380	0.060	0.020
2020/01/31 11:35:25.4	300.800	-0.360	0.030	0.030
2020/01/31 11:35:25.5	300.800	-0.340	0.000	0.040
2020/01/31 11:35:25.6	300.790	-0.310	-0.030	0.050
2020/01/31 11:35:25.7	300.780	-0.280	-0.060	0.060
2020/01/31 11:35:25.8	300.760	-0.250	-0.090	0.080
2020/01/31 11:35:25.9	300.750	-0.220	-0.120	0.100
2020/01/31 11:35:26.0	300.740	-0.190	-0.150	0.120
2020/01/31 11:35:26.1	300.730	-0.160	-0.190	0.140
2020/01/31 11:35:26.2	300.710	-0.120	-0.220	0.170
2020/01/31 11:35:26.3	300.700	-0.090	-0.260	0.200
2020/01/31 11:35:26.4	300.690	-0.050	-0.300	0.230
2020/01/31 11:35:26.5	300.690	-0.010	-0.330	0.270
2020/01/31 11:35:26.6	300.670	0.020	-0.360	0.310
2020/01/31 11:35:26.7	300.660	0.060	-0.400	0.340
2020/01/31 11:35:26.8	300.650	0.090	-0.440	0.380
2020/01/31 11:35:26.9	300.630	0.130	-0.470	0.420
2020/01/31 11:35:27.0	300.620	0.160	-0.500	0.470
2020/01/31 11:35:27.1	300.600	0.200	-0.540	0.510
2020/01/31 11:35:27.2	300.590	0.230	-0.570	0.550
2020/01/31 11:35:27.3	300.570	0.260	-0.600	0.600
2020/01/31 11:35:27.4	300.560	0.290	-0.620	0.650
2020/01/31 11:35:27.5	300.550	0.320	-0.640	0.690
2020/01/31 11:35:27.6	300.530	0.350	-0.670	0.740
2020/01/31 11:35:27.7	300.520	0.370	-0.690	0.790
2020/01/31 11:35:27.8	300.500	0.400	-0.700	0.830
2020/01/31 11:35:27.9	300.490	0.420	-0.720	0.880
2020/01/31 11:35:28.0	300.470	0.430	-0.730	0.930
2020/01/31 11:35:28.1	300.450	0.450	-0.740	0.970
2020/01/31 11:35:28.2	300.440	0.460	-0.750	1.020
2020/01/31 11:35:28.3	300.420	0.470	-0.760	1.060
2020/01/31 11:35:28.4	300.410	0.480	-0.760	1.100
2020/01/31 11:35:28.5	300.390	0.490	-0.750	1.140
2020/01/31 11:35:28.6	300.380	0.490	-0.750	1.180
2020/01/31 11:35:28.7	300.370	0.490	-0.740	1.220
2020/01/31 11:35:28.8	300.360	0.490	-0.730	1.250
2020/01/31 11:35:28.9	300.350	0.490	-0.720	1.280
2020/01/31 11:35:29.0	300.340	0.480	-0.710	1.310
2020/01/31 11:35:29.1	300.340	0.470	-0.690	1.330
2020/01/31 11:35:29.2	300.330	0.460	-0.670	1.350
2020/01/31 11:35:29.3	300.330	0.450	-0.650	1.360
2020/01/31 11:35:29.4	300.330	0.430	-0.630	1.380
2020/01/31 11:35:29.5	300.340	0.420	-0.610	1.380
2020/01/31 11:35:29.6	300.350	0.400	-0.580	1.390
2020/01/31 11:35:29.7	300.350	0.380	-0.550	1.390
2020/01/31 11:35:29.8	300.360	0.360	-0.520	1.390
2020/01/31 11:35:29.9	300.360	0.340	-0.490	1.380
2020/01/31 11:35:30.0	300.370	0.310	-0.460	1.370
2020/01/31 11:35:30.1	300.380	0.290	-0.430	1.360
2020/01/31 11:35:30.2	300.380	0.260	-0.390	1.340
2020/01/31 11:35:30.3	300.390	0.230	-0.360	1.320
2020/01/31 11:35:30.4	300.400	0.210	-0.330	1.300
2020/01/31 11:35:30.5	300.410	0.180	-0.300	1.280
2020/01/31 11:35:30.6	300.420	0.150	-0.260	1.250
2020/01/31 11:35:30.7	300.430	0.120	-0.230	1.220
2020/01/31 11:35:30.8	300.440	0.100	-0.190	1.190
2020/01/31 11:35:30.9	300.450	0.070	-0.160	1.160
2020/01/31 11:35:31.0	300.460	0.040	-0.130	1.120
2020/01/31 11:35:31.1	300.470	0.020	-0.100	1.080
2020/01/31 11:35:31.2	300.480	-0.010	-0.070	1.050
2020/01/31 11:35:31.3	300.490	-0.040	-0.040	1.000
2020/01/31 11:35:31.4	300.500	-0.060	-0.010	0.960
2020/01/31 11:35:31.5	300.510	-0.080	0.010	0.910
2020/01/31 11:35:31.6	300.520	-0.110	0.030	0.870
2020/01/31 11:35:31.7	300.530	-0.130	0.050	0.820
2020/01/31 11:35:31.8	300.540	-0.150	0.070	0.770
2020/01/31 11:35:31.9	300.550	-0.170	0.090	0.710
2020/01/31 11:35:32.0	300.560	-0.190	0.100	0.660
2020/01/31 11:35:32.1	300.570	-0.210	0.110	0.600
2020/01/31 11:35:32.2	300.580	-0.220	0.120	0.550
2020/01/31 11:35:32.3	300.600	-0.240	0.120	0.490
2020/01/31 11:35:32.4	300.610	-0.250	0.130	0.430
2020/01/31 11:35:32.5	300.630	-0.260	0.130	0.370
2020/01/31 11:35:32.6	300.640	-0.270	0.130	0.310
2020/01/31 11:35:32.7	300.660	-0.280	0.130	0.250
2020/01/31 11:35:32.8	300.670	-0.290	0.120	0.190
2020/01/31 11:35:32.9	300.680	-0.300	0.120	0.130
2020/01/31 11:35:33.0	300.700	-0.300	0.110	0.070
2020/01/31 11:35:33.1	300.710	-0.310	0.110	0.020
2020/01/31 11:35:33.2	300.730	-0.310	0.100	-0.040
2020/01/31 11:35:33.3	300.740	-0.320	0.090	-0.090
2020/01/31 11:35:33.4	300.760	-0.320	0.080	-0.150
2020/01/31 11:35:33.5	300.770	-0.320	0.070	-0.200
2020/01/31 11:35:33.6	300.790	-0.320	0.060	-0.250
2020/01/31 11:35:33.7	300.800	-0.310	0.050	-0.290
2020/01/31 11:35:33.8	300.820	-0.310	0.040	-0.330
2020/01/31 11:35:33.9	300.830	-0.310	0.040	-0.370
2020/01/31 11:35:34.0	300.840	-0.300	0.030	-0.410
2020/01/31 11:35:34.1	300.860	-0.300	0.020	-0.440
2020/01/31 11:35:34.2	300.870	-0.290	0.020	-0.470
2020/01/31 11:35:34.3	300.880	-0.290	0.020	-0.490
2020/01/31 11:35:34.4	300.890	-0.280	0.010	-0.510
2020/01/31 11:35:34.5	300.910	-0.280	0.020	-0.530
2020/01/31 11:35:34.6	300.910	-0.270	0.020	-0.540
2020/01/31 11:35:34.7	300.920	-0.260	0.020	-0.550
2020/01/31 11:35:34.8	300.920	-0.260	0.020	-0.550
2020/01/31 11:35:34.9	300.930	-0.250	0.020	-0.540
2020/01/31 11:35:35.0	300.930	-0.250	0.030	-0.540
2020/01/31 11:35:35.1	300.930	-0.240	0.030	-0.530
2020/01/31 11:35:35.2	300.920	-0.230	0.040	-0.510
2020/01/31 11:35:35.3	300.920	-0.230	0.040	-0.490
2020/01/31 11:35:35.4	300.910	-0.220	0.050	-0.470
2020/01/31 11:35:35.5	300.900	-0.210	0.050	-0.440
2020/01/31 11:35:35.6	300.890	-0.210	0.060	-0.410
2020/01/31 11:35:35.7	300.880	-0.200	0.060	-0.370
2020/01/31 11:35:35.8	300.870	-0.190	0.070	-0.340
2020/01/31 11:35:35.9	300.850	-0.190	0.070	-0.300
2020/01/31 11:35:36.0	300.830	-0.180	0.080	-0.250
2020/01/31 11:35:36.1	300.810	-0.180	0.080	-0.210
2020/01/31 11:35:36.2	300.800	-0.170	0.080	-0.160
2020/01/31 11:35:36.3	300.770	-0.160	0.080	-0.120
2020/01/31 11:35:36.4	300.750	-0.160	0.070	-0.070
2020/01/31 11:35:36.5	300.730	-0.150	0.070	-0.020
2020/01/31 11:35:36.6	300.710	-0.140	0.070	0.040
2020/01/31 11:35:36.7	300.680	-0.140	0.060	0.090
2020/01/31 11:35:36.8	300.660	-0.130	0.050	0.140
2020/01/31 11:35:36.9	300.630	-0.120	0.040	0.200
2020/01/31 11:35:37.0	300.600	-0.110	0.030	0.250
2020/01/31 11:35:37.1	300.570	-0.100	0.010	0.310
2020/01/31 11:35:37.2	300.540	-0.090	-0.000	0.370
2020/01/31 11:35:37.3	300.510	-0.080	-0.020	0.420
2020/01/31 11:35:37.4	300.480	-0.070	-0.040	0.480
2020/01/31 11:35:37.5	300.450	-0.060	-0.060	0.530
2020/01/31 11:35:37.6	300.420	-0.050	-0.090	0.590
2020/01/31 11:35:37.7	300.390	-0.040	-0.110	0.640
2020/01/31 11:35:37.8	300.360	-0.030	-0.140	0.690
2020/01/31 11:35:37.9	300.330	-0.020	-0.170	0.750
2020/01/31 11:35:38.0	300.300	-0.000	-0.200	0.800
2020/01/31 11:35:38.1	300.270	0.010	-0.230	0.850
2020/01/31 11:35:38.2	300.250	0.030	-0.270	0.890
2020/01/31 11:35:38.3	300.220	0.040	-0.300	0.940
2020/01/31 11:35:38.4	300.200	0.060	-0.340	0.980
2020/01/31 11:35:38.5	300.170	0.070	-0.370	1.020
2020/01/31 11:35:38.6	300.160	0.090	-0.410	1.050
2020/01/31 11:35:38.7	300.140	0.110	-0.450	1.080
2020/01/31 11:35:38.8	300.130	0.120	-0.490	1.110
2020/01/31 11:35:38.9	300.120	0.140	-0.530	1.130
2020/01/31 11:35:39.0	300.120	0.160	-0.570	1.150
2020/01/31 11:35:39.1	300.110	0.170	-0.620	1.170
2020/01/31 11:35:39.2	300.110	0.190	-0.660	1.180
2020/01/31 11:35:39.3	300.120	0.210	-0.700	1.190
2020/01/31 11:35:39.4	300.120	0.230	-0.740	1.190
2020/01/31 11:35:39.5	300.110	0.240	-0.780	1.190
2020/01/31 11:35:39.6	300.120	0.260	-0.820	1.190
2020/01/31 11:35:39.7	300.130	0.270	-0.860	1.180
2020/01/31 11:35:39.8	300.150	0.290	-0.900	1.170
2020/01/31 11:35:39.9	300.160	0.300	-0.930	1.160
2020/01/31 11:35:40.0	300.180	0.310	-0.970	1.150
2020/01/31 11:35:40.1	300.200	0.330	-1.000	1.140
2020/01/31 11:35:40.2	300.220	0.340	-1.030	1.120
2020/01/31 11:35:40.3	300.240	0.350	-1.060	1.100
2020/01/31 11:35:40.4	300.270	0.360	-1.080	1.080
2020/01/31 11:35:40.5	300.290	0.360	-1.110	1.060
2020/01/31 11:35:40.6	300.310	0.370	-1.130	1.040
2020/01/31 11:35:40.7	300.340	0.380	-1.150	1.020
2020/01/31 11:35:40.8	300.360	0.380	-1.160	1.000
2020/01/31 11:35:40.9	300.390	0.380	-1.170	0.980
2020/01/31 11:35:41.0	300.410	0.380	-1.180	0.960
2020/01/31 11:35:41.1	300.440	0.380	-1.180	0.950
2020/01/31 11:35:41.2	300.460	0.380	-1.180	0.930
2020/01/31 11:35:41.3	300.490	0.380	-1.170	0.910
2020/01/31 11:35:41.4	300.510	0.380	-1.160	0.890
2020/01/31 11:35:41.5	300.530	0.370	-1.150	0.880
2020/01/31 11:35:41.6	300.550	0.360	-1.130	0.860
2020/01/31 11:35:41.7	300.570	0.350	-1.110	0.840
2020/01/31 11:35:41.8	300.590	0.340	-1.080	0.830
2020/01/31 11:35:41.9	300.610	0.330	-1.050	0.810
2020/01/31 11:35:42.0	300.630	0.310	-1.010	0.790
2020/01/31 11:35:42.1	300.650	0.300	-0.970	0.780
2020/01/31 11:35:42.2	300.660	0.280	-0.930	0.760
2020/01/31 11:35:42.3	300.680	0.260	-0.880	0.750
2020/01/31 11:35:42.4	300.690	0.240	-0.830	0.730
2020/01/31 11:35:42.5	300.700	0.220	-0.770	0.720
2020/01/31 11:35:42.6	300.710	0.200	-0.710	0.700
2020/01/31 11:35:42.7	300.720	0.180	-0.650	0.690
2020/01/31 11:35:42.8	300.720	0.150	-0.590	0.680
2020/01/31 11:35:42.9	300.730	0.130	-0.520	0.670
2020/01/31 11:35:43.0	300.730	0.100	-0.450	0.660
2020/01/31 11:35:43.1	300.730	0.070	-0.380	0.650
2020/01/31 11:35:43.2	300.730	0.050	-0.310	0.640
2020/01/31 11:35:43.3	300.730	0.020	-0.240	0.630
2020/01/31 11:35:43.4	300.730	-0.010	-0.170	0.620
2020/01/31 11:35:43.5	300.730	-0.040	-0.100	0.610
2020/01/31 11:35:43.6	300.720	-0.070	-0.030	0.610
2020/01/31 11:35:43.7	300.720	-0.090	0.040	0.600
2020/01/31 11:35:43.8	300.710	-0.120	0.100	0.590
2020/01/31 11:35:43.9	300.700	-0.150	0.170	0.590
2020/01/31 11:35:44.0	300.680	-0.170	0.230	0.580
2020/01/31 11:35:44.1	300.670	-0.200	0.290	0.580
2020/01/31 11:35:44.2	300.660	-0.220	0.340	0.580
2020/01/31 11:35:44.3	300.640	-0.250	0.400	0.570
2020/01/31 11:35:44.4	300.620	-0.270	0.440	0.570
2020/01/31 11:35:44.5	300.610	-0.290	0.490	0.570
2020/01/31 11:35:44.6	300.590	-0.300	0.530	0.570
2020/01/31 11:35:44.7	300.570	-0.320	0.560	0.560
2020/01/31 11:35:44.8	300.550	-0.330	0.590	0.560
2020/01/31 11:35:44.9	300.540	-0.350	0.620	0.560
2020/01/31 11:35:45.0	300.520	-0.360	0.640	0.560
2020/01/31 11:35:45.1	300.500	-0.360	0.650	0.550
2020/01/31 11:35:45.2	300.480	-0.370	0.660	0.550
2020/01/31 11:35:45.3	300.460	-0.370	0.670	0.550
2020/01/31 11:35:45.4	300.440	-0.370	0.670	0.540
2020/01/31 11:35:45.5	300.440	-0.370	0.670	0.540
2020/01/31 11:35:45.6	300.420	-0.370	0.660	0.530
2020/01/31 11:35:45.7	300.410	-0.360	0.650	0.530
2020/01/31 11:35:45.8	300.390	-0.350	0.640	0.520
2020/01/31 11:35:45.9	300.380	-0.340	0.620	0.510
2020/01/31 11:35:46.0	300.370	-0.330	0.600	0.500
2020/01/31 11:35:46.1	300.360	-0.310	0.570	0.490
2020/01/31 11:35:46.2	300.350	-0.300	0.550	0.480
2020/01/31 11:35:46.3	300.340	-0.280	0.520	0.470
2020/01/31 11:35:46.4	300.330	-0.260	0.480	0.460
2020/01/31 11:35:46.5	300.330	-0.240	0.450	0.440
2020/01/31 11:35:46.6	300.320	-0.220	0.420	0.430
2020/01/31 11:35:46.7	300.310	-0.200	0.380	0.420
2020/01/31 11:35:46.8	300.310	-0.170	0.350	0.400
2020/01/31 11:35:46.9	300.300	-0.150	0.310	0.380
2020/01/31 11:35:47.0	300.300	-0.130	0.270	0.370
2020/01/31 11:35:47.1	300.300	-0.100	0.240	0.350
2020/01/31 11:35:47.2	300.300	-0.080	0.200	0.340
2020/01/31 11:35:47.3	300.300	-0.060	0.170	0.320
2020/01/31 11:35:47.4	300.300	-0.030	0.140	0.300
2020/01/31 11:35:47.5	300.300	-0.010	0.110	0.280
2020/01/31 11:35:47.6	300.300	0.010	0.080	0.260
2020/01/31 11:35:47.7	300.310	0.030	0.050	0.250
2020/01/31 11:35:47.8	300.320	0.050	0.030	0.230
2020/01/31 11:35:47.9	300.330	0.060	0.000	0.210
2020/01/31 11:35:48.0	300.340	0.080	-0.020	0.190
2020/01/31 11:35:48.1	300.350	0.090	-0.040	0.170
2020/01/31 11:35:48.2	300.360	0.100	-0.060	0.150
2020/01/31 11:35:48.3	300.380	0.110	-0.070	0.130
2020/01/31 11:35:48.4	300.390	0.120	-0.090	0.120
2020/01/31 11:35:48.5	300.400	0.120	-0.100	0.100
2020/01/31 11:35:48.6	300.420	0.130	-0.110	0.080
2020/01/31 11:35:48.7	300.430	0.130	-0.120	0.070
2020/01/31 11:35:48.8	300.450	0.130	-0.130	0.060
2020/01/31 11:35:48.9	300.460	0.130	-0.130	0.050
2020/01/31 11:35:49.0	300.480	0.120	-0.140	0.040
2020/01/31 11:35:49.1	300.500	0.120	-0.140	0.030
2020/01/31 11:35:49.2	300.510	0.110	-0.150	0.030
2020/01/31 11:35:49.3	300.530	0.100	-0.150	0.020
2020/01/31 11:35:49.4	300.540	0.100	-0.160	0.020
2020/01/31 11:35:49.5	300.550	0.090	-0.160	0.030
2020/01/31 11:35:49.6	300.570	0.080	-0.170	0.030
2020/01/31 11:35:49.7	300.580	0.070	-0.170	0.040
2020/01/31 11:35:49.8	300.600	0.050	-0.180	0.050
2020/01/31 11:35:49.9	300.610	0.040	-0.190	0.060
2020/01/31 11:35:50.0	300.630	0.030	-0.200	0.080
2020/01/31 11:35:50.1	300.640	0.020	-0.210	0.100
2020/01/31 11:35:50.2	300.650	0.010	-0.220	0.110
2020/01/31 11:35:50.3	300.670	-0.000	-0.240	0.130
2020/01/31 11:35:50.4	300.680	-0.010	-0.250	0.160
2020/01/31 11:35:50.5	300.690	-0.020	-0.270	0.180
2020/01/31 11:35:50.6	300.700	-0.030	-0.290	0.210
2020/01/31 11:35:50.7	300.700	-0.040	-0.310	0.240
2020/01/31 11:35:50.8	300.710	-0.050	-0.330	0.270
2020/01/31 11:35:50.9	300.720	-0.050	-0.350	0.300
2020/01/31 11:35:51.0	300.730	-0.060	-0.380	0.330
2020/01/31 11:35:51.1	300.730	-0.060	-0.400	0.370
2020/01/31 11:35:51.2	300.730	-0.070	-0.430	0.400
2020/01/31 11:35:51.3	300.730	-0.070	-0.450	0.440
2020/01/31 11:35:51.4	300.730	-0.070	-0.480	0.470
2020/01/31 11:35:51.5	300.740	-0.070	-0.500	0.510
2020/01/31 11:35:51.6	300.740	-0.080	-0.520	0.550
2020/01/31 11:35:51.7	300.730	-0.080	-0.550	0.580
2020/01/31 11:35:51.8	300.730	-0.070	-0.570	0.620
2020/01/31 11:35:51.9	300.720	-0.070	-0.590	0.650
2020/01/31 11:35:52.0	300.710	-0.070	-0.620	0.690
2020/01/31 11:35:52.1	300.700	-0.070	-0.640	0.720
2020/01/31 11:35:52.2	300.690	-0.060	-0.660	0.760
2020/01/31 11:35:52.3	300.670	-0.060	-0.670	0.790
2020/01/31 11:35:52.4	300.660	-0.050	-0.690	0.820
2020/01/31 11:35:52.5	300.640	-0.050	-0.700	0.860
2020/01/31 11:35:52.6	300.620	-0.040	-0.720	0.890
2020/01/31 11:35:52.7	300.600	-0.040	-0.730	0.920
2020/01/31 11:35:52.8	300.590	-0.030	-0.740	0.950
2020/01/31 11:35:52.9	300.570	-0.030	-0.750	0.980
2020/01/31 11:35:53.0	300.550	-0.020	-0.750	1.010
2020/01/31 11:35:53.1	300.530	-0.020	-0.760	1.030
2020/01/31 11:35:53.2	300.500	-0.010	-0.760	1.060
2020/01/31 11:35:53.3	300.480	-0.000	-0.770	1.080
2020/01/31 11:35:53.4	300.460	0.000	-0.770	1.100
2020/01/31 11:35:53.5	300.430	0.010	-0.770	1.120
2020/01/31 11:35:53.6	300.400	0.010	-0.770	1.140
2020/01/31 11:35:53.7	300.380	0.020	-0.770	1.160
2020/01/31 11:35:53.8	300.360	0.030	-0.770	1.170
2020/01/31 11:35:53.9	300.340	0.030	-0.760	1.180
2020/01/31 11:35:54.0	300.320	0.040	-0.760	1.190
2020/01/31 11:35:54.1	300.310	0.050	-0.760	1.200
2020/01/31 11:35:54.2	300.290	0.050	-0.750	1.200
2020/01/31 11:35:54.3	300.270	0.060	-0.750	1.200
2020/01/31 11:35:54.4	300.260	0.070	-0.750	1.200
2020/01/31 11:35:54.5	300.240	0.070	-0.740	1.200
2020/01/31 11:35:54.6	300.230	0.080	-0.740	1.190
2020/01/31 11:35:54.7	300.230	0.090	-0.740	1.170
2020/01/31 11:35:54.8	300.220	0.090	-0.730	1.160
2020/01/31 11:35:54.9	300.220	0.100	-0.730	1.140
2020/01/31 11:35:55.0	300.210	0.110	-0.720	1.120
2020/01/31 11:35:55.1	300.210	0.110	-0.720	1.100
2020/01/31 11:35:55.2	300.220	0.120	-0.720	1.070
2020/01/31 11:35:55.3	300.220	0.130	-0.710	1.040
2020/01/31 11:35:55.4	300.220	0.130	-0.710	1.010
2020/01/31 11:35:55.5	300.220	0.140	-0.710	0.980
2020/01/31 11:35:55.6	300.230	0.140	-0.700	0.940
2020/01/31 11:35:55.7	300.240	0.150	-0.700	0.900
2020/01/31 11:35:55.8	300.250	0.150	-0.690	0.860
2020/01/31 11:35:55.9	300.260	0.150	-0.680	0.820
2020/01/31 11:35:56.0	300.280	0.160	-0.670	0.780
2020/01/31 11:35:56.1	300.290	0.160	-0.660	0.730
2020/01/31 11:35:56.2	300.310	0.160	-0.650	0.690
2020/01/31 11:35:56.3	300.330	0.160	-0.640	0.640
2020/01/31 11:35:56.4	300.350	0.160	-0.620	0.590
2020/01/31 11:35:56.5	300.390	0.160	-0.600	0.540
2020/01/31 11:35:56.6	300.410	0.160	-0.590	0.490
2020/01/31 11:35:56.7	300.440	0.150	-0.570	0.440
2020/01/31 11:35:56.8	300.470	0.150	-0.540	0.390
2020/01/31 11:35:56.9	300.500	0.150	-0.520	0.340
2020/01/31 11:35:57.0	300.530	0.140	-0.490	0.280
2020/01/31 11:35:57.1	300.560	0.130	-0.460	0.230
2020/01/31 11:35:57.2	300.590	0.130	-0.420	0.190
2020/01/31 11:35:57.3	300.630	0.120	-0.390	0.140
2020/01/31 11:35:57.4	300.660	0.110	-0.350	0.090
2020/01/31 11:35:57.5	300.710	0.100	-0.310	0.050
2020/01/31 11:35:57.6	300.740	0.100	-0.270	0.010
2020/01/31 11:35:57.7	300.770	0.090	-0.220	-0.030
2020/01/31 11:35:57.8	300.800	0.080	-0.170	-0.070
2020/01/31 11:35:57.9	300.830	0.070	-0.120	-0.100
2020/01/31 11:35:58.0	300.860	0.060	-0.070	-0.130
2020/01/31 11:35:58.1	300.890	0.050	-0.020	-0.150
2020/01/31 11:35:58.2	300.920	0.030	0.030	-0.170
2020/01/31 11:35:58.3	300.940	0.020	0.080	-0.190
2020/01/31 11:35:58.4	300.970	0.010	0.130	-0.200
2020/01/31 11:35:58.5	300.990	0.000	0.180	-0.210
2020/01/31 11:35:58.6	301.010	-0.010	0.240	-0.220
2020/01/31 11:35:58.7	301.030	-0.010	0.290	-0.210
2020/01/31 11:35:58.8	301.050	-0.020	0.330	-0.210
2020/01/31 11:35:58.9	301.070	-0.030	0.380	-0.200
2020/01/31 11:35:59.0	301.080	-0.040	0.420	-0.190
2020/01/31 11:35:59.1	301.090	-0.050	0.460	-0.170
2020/01/31 11:35:59.2	301.110	-0.060	0.500	-0.150
2020/01/31 11:35:59.3	301.120	-0.060	0.540	-0.130
2020/01/31 11:35:59.4	301.120	-0.070	0.570	-0.100
2020/01/31 11:35:59.5	301.130	-0.070	0.600	-0.080
2020/01/31 11:35:59.6	301.140	-0.080	0.620	-0.050
2020/01/31 11:35:59.7	301.140	-0.080	0.640	-0.020
2020/01/31 11:35:59.8	301.140	-0.090	0.660	0.020
2020/01/31 11:35:59.9	301.140	-0.090	0.670	0.050
2020/01/31 11:36:00.0	301.140	-0.090	0.680	0.080
2020/01/31 11:36:00.1	301.140	-0.100	0.690	0.120
2020/01/31 11:36:00.2	301.130	-0.100	0.690	0.150
2020/01/31 11:36:00.3	301.130	-0.100	0.690	0.190
2020/01/31 11:36:00.4	301.120	-0.100	0.680	0.230
2020/01/31 11:36:00.5	301.130	-0.100	0.670	0.260
2020/01/31 11:36:00.6	301.120	-0.100	0.660	0.300
2020/01/31 11:36:00.7	301.110	-0.100	0.640	0.330
2020/01/31 11:36:00.8	301.100	-0.100	0.620	0.370
2020/01/31 11:36:00.9	301.090	-0.090	0.600	0.410
2020/01/31 11:36:01.0	301.080	-0.090	0.570	0.450
2020/01/31 11:36:01.1	301.070	-0.090	0.550	0.480
2020/01/31 11:36:01.2	301.060	-0.080	0.520	0.520
2020/01/31 11:36:01.3	301.040	-0.080	0.480	0.550
2020/01/31 11:36:01.4	301.030	-0.080	0.450	0.590
2020/01/31 11:36:01.5	301.020	-0.070	0.420	0.630
2020/01/31 11:36:01.6	301.000	-0.070	0.380	0.670
2020/01/31 11:36:01.7	300.990	-0.060	0.350	0.700
2020/01/31 11:36:01.8	300.970	-0.060	0.310	0.740
2020/01/31 11:36:01.9	300.940	-0.050	0.270	0.770
2020/01/31 11:36:02.0	300.920	-0.040	0.230	0.800
2020/01/31 11:36:02.1	300.900	-0.040	0.190	0.840
2020/01/31 11:36:02.2	300.880	-0.030	0.150	0.870
2020/01/31 11:36:02.3	300.850	-0.030	0.110	0.890
2020/01/31 11:36:02.4	300.830	-0.020	0.080	0.920
2020/01/31 11:36:02.5	300.820	-0.020	0.040	0.940
2020/01/31 11:36:02.6	300.800	-0.010	-0.000	0.960
2020/01/31 11:36:02.7	300.770	-0.000	-0.040	0.980
2020/01/31 11:36:02.8	300.750	0.000	-0.080	0.990
2020/01/31 11:36:02.9	300.730	0.010	-0.120	1.000
2020/01/31 11:36:03.0	300.710	0.010	-0.160	1.010
2020/01/31 11:36:03.1	300.690	0.020	-0.200	1.010
2020/01/31 11:36:03.2	300.670	0.020	-0.240	1.000
2020/01/31 11:36:03.3	300.660	0.030	-0.280	0.990
2020/01/31 11:36:03.4	300.650	0.030	-0.310	0.970
2020/01/31 11:36:03.5	300.650	0.040	-0.350	0.950
2020/01/31 11:36:03.6	300.640	0.050	-0.390	0.930
2020/01/31 11:36:03.7	300.630	0.050	-0.430	0.900
2020/01/31 11:36:03.8	300.630	0.060	-0.470	0.870
2020/01/31 11:36:03.9	300.630	0.060	-0.510	0.830
2020/01/31 11:36:04.0	300.630	0.070	-0.550	0.790
2020/01/31 11:36:04.1	300.640	0.070	-0.580	0.740
2020/01/31 11:36:04.2	300.650	0.080	-0.620	0.700
2020/01/31 11:36:04.3	300.660	0.090	-0.660	0.650
2020/01/31 11:36:04.4	300.670	0.090	-0.690	0.590
2020/01/31 11:36:04.5	300.700	0.100	-0.730	0.540
2020/01/31 11:36:04.6	300.720	0.100	-0.760	0.490
2020/01/31 11:36:04.7	300.740	0.110	-0.790	0.430
2020/01/31 11:36:04.8	300.760	0.110	-0.820	0.370
2020/01/31 11:36:04.9	300.790	0.120	-0.850	0.320
2020/01/31 11:36:05.0	300.820	0.120	-0.880	0.260
2020/01/31 11:36:05.1	300.840	0.130	-0.900	0.210
2020/01/31 11:36:05.2	300.870	0.130	-0.920	0.160
2020/01/31 11:36:05.3	300.900	0.140	-0.940	0.100
2020/01/31 11:36:05.4	300.930	0.140	-0.950	0.050
2020/01/31 11:36:05.5	300.950	0.140	-0.970	0.000
2020/01/31 11:36:05.6	300.990	0.140	-0.980	-0.040
2020/01/31 11:36:05.7	301.020	0.150	-0.990	-0.090
2020/01/31 11:36:05.8	301.050	0.150	-0.990	-0.130
2020/01/31 11:36:05.9	301.080	0.150	-0.990	-0.160
2020/01/31 11:36:06.0	301.120	0.150	-0.990	-0.200
2020/01/31 11:36:06.1	301.150	0.150	-0.980	-0.230
2020/01/31 11:36:06.2	301.180	0.150	-0.970	-0.250
2020/01/31 11:36:06.3	301.210	0.150	-0.960	-0.280
2020/01/31 11:36:06.4	301.240	0.140	-0.950	-0.290
2020/01/31 11:36:06.5	301.250	0.140	-0.930	-0.300
2020/01/31 11:36:06.6	301.270	0.140	-0.910	-0.310
2020/01/31 11:36:06.7	301.290	0.130	-0.890	-0.310
2020/01/31 11:36:06.8	301.310	0.130	-0.860	-0.300
2020/01/31 11:36:06.9	301.330	0.120	-0.840	-0.290
2020/01/31 11:36:07.0	301.350	0.120	-0.810	-0.280
2020/01/31 11:36:07.1	301.360	0.110	-0.770	-0.260
2020/01/31 11:36:07.2	301.370	0.100	-0.740	-0.230
2020/01/31 11:36:07.3	301.380	0.100	-0.710	-0.200
2020/01/31 11:36:07.4	301.390	0.090	-0.670	-0.170
2020/01/31 11:36:07.5	301.400	0.080	-0.630	-0.140
2020/01/31 11:36:07.6	301.400	0.070	-0.590	-0.100
2020/01/31 11:36:07.7	301.400	0.060	-0.560	-0.060
2020/01/31 11:36:07.8	301.400	0.050	-0.520	-0.020
2020/01/31 11:36:07.9	301.400	0.040	-0.480	0.020
2020/01/31 11:36:08.0	301.400	0.030	-0.450	0.060
2020/01/31 11:36:08.1	301.390	0.020	-0.410	0.100
2020/01/31 11:36:08.2	301.390	0.000	-0.380	0.150
2020/01/31 11:36:08.3	301.380	-0.010	-0.350	0.190
2020/01/31 11:36:08.4	301.370	-0.020	-0.310	0.230
2020/01/31 11:36:08.5	301.350	-0.030	-0.280	0.270
2020/01/31 11:36:08.6	301.340	-0.050	-0.260	0.310
2020/01/31 11:36:08.7	301.330	-0.060	-0.230	0.350
2020/01/31 11:36:08.8	301.320	-0.070	-0.200	0.390
2020/01/31 11:36:08.9	301.310	-0.080	-0.180	0.430
2020/01/31 11:36:09.0	301.290	-0.090	-0.150	0.460
2020/01/31 11:36:09.1	301.280	-0.110	-0.130	0.500
2020/01/31 11:36:09.2	301.270	-0.120	-0.110	0.530
2020/01/31 11:36:09.3	301.250	-0.130	-0.090	0.560
2020/01/31 11:36:09.4	301.240	-0.140	-0.080	0.580
2020/01/31 11:36:09.5	301.220	-0.150	-0.060	0.610
2020/01/31 11:36:09.6	301.210	-0.160	-0.040	0.630
2020/01/31 11:36:09.7	301.190	-0.170	-0.030	0.650
2020/01/31 11:36:09.8	301.180	-0.180	-0.020	0.660
2020/01/31 11:36:09.9	301.170	-0.180	-0.010	0.670
2020/01/31 11:36:10.0	301.150	-0.190	-0.000	0.680
2020/01/31 11:36:10.1	301.140	-0.200	0.010	0.690
2020/01/31 11:36:10.2	301.130	-0.200	0.010	0.690
2020/01/31 11:36:10.3	301.120	-0.210	0.020	0.690
2020/01/31 11:36:10.4	301.110	-0.210	0.020	0.690
2020/01/31 11:36:10.5	301.090	-0.210	0.030	0.690
2020/01/31 11:36:10.6	301.080	-0.210	0.030	0.680
2020/01/31 11:36:10.7	301.080	-0.210	0.030	0.670
2020/01/31 11:36:10.8	301.070	-0.210	0.030	0.660
2020/01/31 11:36:10.9	301.070	-0.210	0.030	0.640
2020/01/31 11:36:11.0	301.060	-0.200	0.030	0.630
2020/01/31 11:36:11.1	301.060	-0.200	0.020	0.610
2020/01/31 11:36:11.2	301.060	-0.190	0.020	0.590
2020/01/31 11:36:11.3	301.060	-0.180	0.010	0.570
2020/01/31 11:36:11.4	301.060	-0.180	0.010	0.550
2020/01/31 11:36:11.5	301.070	-0.170	0.000	0.530
2020/01/31 11:36:11.6	301.080	-0.160	-0.010	0.510
2020/01/31 11:36:11.7	301.090	-0.150	-0.020	0.480
2020/01/31 11:36:11.8	301.090	-0.140	-0.030	0.460
2020/01/31 11:36:11.9	301.100	-0.130	-0.040	0.430
2020/01/31 11:36:12.0	301.120	-0.120	-0.050	0.410
2020/01/31 11:36:12.1	301.130	-0.110	-0.060	0.380
2020/01/31 11:36:12.2	301.140	-0.100	-0.070	0.360
2020/01/31 11:36:12.3	301.160	-0.090	-0.080	0.330
2020/01/31 11:36:12.4	301.180	-0.080	-0.100	0.310
2020/01/31 11:36:12.5	301.200	-0.070	-0.110	0.280
2020/01/31 11:36:12.6	301.220	-0.060	-0.120	0.250
2020/01/31 11:36:12.7	301.240	-0.050	-0.130	0.230
2020/01/31 11:36:12.8	301.260	-0.040	-0.140	0.210
2020/01/31 11:36:12.9	301.280	-0.030	-0.150	0.190
2020/01/31 11:36:13.0	301.300	-0.020	-0.150	0.170
2020/01/31 11:36:13.1	301.320	-0.010	-0.160	0.150
2020/01/31 11:36:13.2	301.340	-0.000	-0.160	0.130
2020/01/31 11:36:13.3	301.360	0.010	-0.170	0.110
2020/01/31 11:36:13.4	301.390	0.010	-0.170	0.100
2020/01/31 11:36:13.5	301.400	0.020	-0.170	0.090
2020/01/31 11:36:13.6	301.420	0.020	-0.170	0.080
2020/01/31 11:36:13.7	301.440	0.030	-0.170	0.070
2020/01/31 11:36:13.8	301.460	0.030	-0.160	0.060
2020/01/31 11:36:13.9	301.480	0.030	-0.160	0.050
2020/01/31 11:36:14.0	301.500	0.040	-0.150	0.040
2020/01/31 11:36:14.1	301.520	0.040	-0.150	0.040
2020/01/31 11:36:14.2	301.540	0.040	-0.140	0.040
2020/01/31 11:36:14.3	301.560	0.040	-0.130	0.030
2020/01/31 11:36:14.4	301.580	0.040	-0.130	0.030
2020/01/31 11:36:14.5	301.590	0.040	-0.120	0.030
2020/01/31 11:36:14.6	301.610	0.040	-0.120	0.030
2020/01/31 11:36:14.7	301.620	0.040	-0.110	0.030
2020/01/31 11:36:14.8	301.640	0.040	-0.100	0.040
2020/01/31 11:36:14.9	301.650	0.040	-0.100	0.050
2020/01/31 11:36:15.0	301.660	0.040	-0.090	0.050
2020/01/31 11:36:15.1	301.670	0.040	-0.090	0.070
2020/01/31 11:36:15.2	301.680	0.040	-0.080	0.080
2020/01/31 11:36:15.3	301.690	0.040	-0.080	0.090
2020/01/31 11:36:15.4	301.690	0.040	-0.080	0.110
2020/01/31 11:36:15.5	301.690	0.040	-0.080	0.130
2020/01/31 11:36:15.6	301.690	0.050	-0.080	0.160
2020/01/31 11:36:15.7	301.690	0.050	-0.080	0.180
2020/01/31 11:36:15.8	301.680	0.050	-0.080	0.210
2020/01/31 11:36:15.9	301.680	0.050	-0.080	0.240
2020/01/31 11:36:16.0	301.670	0.060	-0.080	0.270
2020/01/31 11:36:16.1	301.660	0.060	-0.080	0.300
2020/01/31 11:36:16.2	301.650	0.060	-0.080	0.330
2020/01/31 11:36:16.3	301.640	0.070	-0.080	0.370
2020/01/31 11:36:16.4	301.620	0.070	-0.090	0.400
2020/01/31 11:36:16.5	301.600	0.080	-0.090	0.440
2020/01/31 11:36:16.6	301.580	0.080	-0.090	0.470
2020/01/31 11:36:16.7	301.560	0.090	-0.100	0.510
2020/01/31 11:36:16.8	301.540	0.090	-0.100	0.550
2020/01/31 11:36:16.9	301.520	0.100	-0.100	0.580
2020/01/31 11:36:17.0	301.490	0.100	-0.110	0.620
2020/01/31 11:36:17.1	301.460	0.110	-0.110	0.650
2020/01/31 11:36:17.2	301.440	0.120	-0.120	0.690
2020/01/31 11:36:17.3	301.410	0.120	-0.120	0.720
2020/01/31 11:36:17.4	301.380	0.130	-0.120	0.750
2020/01/31 11:36:17.5	301.350	0.130	-0.130	0.780
2020/01/31 11:36:17.6	301.310	0.140	-0.130	0.810
2020/01/31 11:36:17.7	301.280	0.140	-0.130	0.840
2020/01/31 11:36:17.8	301.250	0.150	-0.140	0.870
2020/01/31 11:36:17.9	301.210	0.150	-0.140	0.890
2020/01/31 11:36:18.0	301.180	0.150	-0.140	0.920
2020/01/31 11:36:18.1	301.140	0.160	-0.140	0.940
2020/01/31 11:36:18.2	301.110	0.160	-0.150	0.960
2020/01/31 11:36:18.3	301.070	0.160	-0.150	0.970
2020/01/31 11:36:18.4	301.040	0.160	-0.160	0.990
2020/01/31 11:36:18.5	301.000	0.160	-0.160	0.990
2020/01/31 11:36:18.6	300.970	0.160	-0.160	1.000
2020/01/31 11:36:18.7	300.940	0.160	-0.170	1.000
2020/01/31 11:36:18.8	300.910	0.160	-0.180	1.000
2020/01/31 11:36:18.9	300.880	0.160	-0.180	1.000
2020/01/31 11:36:19.0	300.850	0.160	-0.190	0.990
2020/01/31 11:36:19.1	300.830	0.160	-0.200	0.980
2020/01/31 11:36:19.2	300.810	0.150	-0.220	0.960
2020/01/31 11:36:19.3	300.790	0.150	-0.230	0.950
2020/01/31 11:36:19.4	300.770	0.140	-0.240	0.920
2020/01/31 11:36:19.5	300.760	0.140	-0.260	0.900
2020/01/31 11:36:19.6	300.740	0.130	-0.280	0.870
2020/01/31 11:36:19.7	300.730	0.130	-0.300	0.840
2020/01/31 11:36:19.8	300.730	0.120	-0.320	0.800
2020/01/31 11:36:19.9	300.720	0.120	-0.340	0.760
2020/01/31 11:36:20.0	300.720	0.110	-0.360	0.730
2020/01/31 11:36:20.1	300.720	0.100	-0.380	0.680
2020/01/31 11:36:20.2	300.720	0.090	-0.400	0.640
2020/01/31 11:36:20.3	300.730	0.090	-0.430	0.600
2020/01/31 11:36:20.4	300.730	0.080	-0.450	0.560
2020/01/31 11:36:20.5	300.750	0.070	-0.480	0.510
2020/01/31 11:36:20.6	300.760	0.060	-0.500	0.460
2020/01/31 11:36:20.7	300.770	0.050	-0.520	0.420
2020/01/31 11:36:20.8	300.790	0.040	-0.550	0.370
2020/01/31 11:36:20.9	300.800	0.030	-0.570	0.330
2020/01/31 11:36:21.0	300.820	0.030	-0.590	0.290
2020/01/31 11:36:21.1	300.840	0.020	-0.600	0.240
2020/01/31 11:36:21.2	300.860	0.010	-0.620	0.200
2020/01/31 11:36:21.3	300.880	0.000	-0.630	0.170
2020/01/31 11:36:21.4	300.900	-0.010	-0.650	0.130
2020/01/31 11:36:21.5	300.930	-0.020	-0.660	0.100
2020/01/31 11:36:21.6	300.960	-0.020	-0.670	0.070
2020/01/31 11:36:21.7	300.980	-0.030	-0.670	0.040
2020/01/31 11:36:21.8	301.010	-0.040	-0.670	0.010
2020/01/31 11:36:21.9	301.030	-0.040	-0.680	-0.010
2020/01/31 11:36:22.0	301.050	-0.050	-0.670	-0.030
2020/01/31 11:36:22.1	301.080	-0.050	-0.670	-0.040
2020/01/31 11:36:22.2	301.100	-0.060	-0.660	-0.060
2020/01/31 11:36:22.3	301.130	-0.060	-0.660	-0.070
2020/01/31 11:36:22.4	301.150	-0.060	-0.650	-0.070
2020/01/31 11:36:22.5	301.170	-0.070	-0.640	-0.080
2020/01/31 11:36:22.6	301.190	-0.070	-0.620	-0.080
2020/01/31 11:36:22.7	301.210	-0.070	-0.610	-0.070
2020/01/31 11:36:22.8	301.230	-0.070	-0.600	-0.070
2020/01/31 11:36:22.9	301.250	-0.070	-0.580	-0.060
2020/01/31 11:36:23.0	301.270	-0.070	-0.560	-0.050
2020/01/31 11:36:23.1	301.290	-0.070	-0.550	-0.040
2020/01/31 11:36:23.2	301.310	-0.060	-0.530	-0.020
2020/01/31 11:36:23.3	301.320	-0.060	-0.510	-0.000
2020/01/31 11:36:23.4	301.340	-0.050	-0.490	0.010
2020/01/31 11:36:23.5	301.370	-0.050	-0.470	0.030
2020/01/31 11:36:23.6	301.390	-0.040	-0.460	0.050
2020/01/31 11:36:23.7	301.400	-0.040	-0.440	0.070
2020/01/31 11:36:23.8	301.420	-0.030	-0.420	0.090
2020/01/31 11:36:23.9	301.430	-0.020	-0.410	0.110
2020/01/31 11:36:24.0	301.440	-0.010	-0.390	0.140
2020/01/31 11:36:24.1	301.460	-0.000	-0.380	0.160
2020/01/31 11:36:24.2	301.470	0.010	-0.360	0.180
2020/01/31 11:36:24.3	301.480	0.020	-0.350	0.200
2020/01/31 11:36:24.4	301.490	0.030	-0.330	0.220
2020/01/31 11:36:24.5	301.490	0.040	-0.320	0.250
2020/01/31 11:36:24.6	301.500	0.050	-0.310	0.270
2020/01/31 11:36:24.7	301.510	0.060	-0.300	0.290
2020/01/31 11:36:24.8	301.520	0.070	-0.290	0.310
2020/01/31 11:36:24.9	301.530	0.080	-0.270	0.340
2020/01/31 11:36:25.0	301.530	0.090	-0.260	0.360
2020/01/31 11:36:25.1	301.540	0.100	-0.250	0.380
2020/01/31 11:36:25.2	301.550	0.110	-0.240	0.400
2020/01/31 11:36:25.3	301.550	0.120	-0.230	0.420
2020/01/31 11:36:25.4	301.550	0.130	-0.210	0.450
2020/01/31 11:36:25.5	301.550	0.130	-0.200	0.470
2020/01/31 11:36:25.6	301.550	0.140	-0.190	0.490
2020/01/31 11:36:25.7	301.550	0.140	-0.180	0.510
2020/01/31 11:36:25.8	301.550	0.140	-0.160	0.530
2020/01/31 11:36:25.9	301.550	0.150	-0.150	0.550
2020/01/31 11:36:26.0	301.540	0.150	-0.130	0.570
2020/01/31 11:36:26.1	301.540	0.140	-0.120	0.590
2020/01/31 11:36:26.2	301.530	0.140	-0.100	0.610
2020/01/31 11:36:26.3	301.530	0.140	-0.090	0.620
2020/01/31 11:36:26.4	301.520	0.130	-0.070	0.640
2020/01/31 11:36:26.5	301.500	0.120	-0.050	0.650
2020/01/31 11:36:26.6	301.490	0.110	-0.030	0.670
2020/01/31 11:36:26.7	301.480	0.100	-0.010	0.680
2020/01/31 11:36:26.8	301.470	0.090	0.010	0.690
2020/01/31 11:36:26.9	301.450	0.080	0.030	0.700
2020/01/31 11:36:27.0	301.440	0.060	0.050	0.710
2020/01/31 11:36:27.1	301.420	0.050	0.070	0.720
2020/01/31 11:36:27.2	301.400	0.030	0.090	0.730
2020/01/31 11:36:27.3	301.380	0.010	0.110	0.740
2020/01/31 11:36:27.4	301.360	-0.010	0.130	0.740
2020/01/31 11:36:27.5	301.350	-0.020	0.150	0.740
2020/01/31 11:36:27.6	301.330	-0.050	0.170	0.740
2020/01/31 11:36:27.7	301.310	-0.070	0.190	0.740
2020/01/31 11:36:27.8	301.290	-0.090	0.210	0.740
2020/01/31 11:36:27.9	301.270	-0.110	0.230	0.730
2020/01/31 11:36:28.0	301.250	-0.130	0.240	0.730
2020/01/31 11:36:28.1	301.230	-0.160	0.250	0.720
2020/01/31 11:36:28.2	301.210	-0.180	0.260	0.700
2020/01/31 11:36:28.3	301.190	-0.200	0.270	0.690
2020/01/31 11:36:28.4	301.170	-0.220	0.280	0.670
2020/01/31 11:36:28.5	301.150	-0.240	0.280	0.650
2020/01/31 11:36:28.6	301.140	-0.270	0.280	0.630
2020/01/31 11:36:28.7	301.120	-0.280	0.280	0.610
2020/01/31 11:36:28.8	301.110	-0.300	0.270	0.590
2020/01/31 11:36:28.9	301.100	-0.320	0.260	0.560
2020/01/31 11:36:29.0	301.080	-0.340	0.250	0.530
2020/01/31 11:36:29.1	301.070	-0.350	0.240	0.500
2020/01/31 11:36:29.2	301.060	-0.370	0.220	0.470
2020/01/31 11:36:29.3	301.060	-0.380	0.200	0.440
2020/01/31 11:36:29.4	301.050	-0.390	0.170	0.410
2020/01/31 11:36:29.5	301.070	-0.400	0.150	0.380
2020/01/31 11:36:29.6	301.070	-0.400	0.120	0.350
2020/01/31 11:36:29.7	301.060	-0.410	0.090	0.320
2020/01/31 11:36:29.8	301.060	-0.410	0.060	0.290
2020/01/31 11:36:29.9	301.050	-0.410	0.030	0.260
2020/01/31 11:36:30.0	301.050	-0.410	-0.000	0.230
2020/01/31 11:36:30.1	301.050	-0.410	-0.040	0.210
2020/01/31 11:36:30.2	301.040	-0.410	-0.070	0.180
2020/01/31 11:36:30.3	301.040	-0.400	-0.110	0.160
2020/01/31 11:36:30.4	301.040	-0.390	-0.140	0.130
2020/01/31 11:36:30.5	301.030	-0.380	-0.180	0.120
2020/01/31 11:36:30.6	301.030	-0.370	-0.220	0.100
2020/01/31 11:36:30.7	301.030	-0.360	-0.250	0.080
2020/01/31 11:36:30.8	301.030	-0.350	-0.280	0.060
2020/01/31 11:36:30.9	301.030	-0.330	-0.310	0.040
2020/01/31 11:36:31.0	301.030	-0.320	-0.340	0.030
2020/01/31 11:36:31.1	301.030	-0.300	-0.370	0.020
2020/01/31 11:36:31.2	301.030	-0.280	-0.400	0.000
2020/01/31 11:36:31.3	301.030	-0.270	-0.430	-0.010
2020/01/31 11:36:31.4	301.040	-0.250	-0.460	-0.010
2020/01/31 11:36:31.5	301.040	-0.230	-0.480	-0.020
2020/01/31 11:36:31.6	301.040	-0.200	-0.500	-0.030
2020/01/31 11:36:31.7	301.050	-0.180	-0.520	-0.030
2020/01/31 11:36:31.8	301.060	-0.160	-0.540	-0.030
2020/01/31 11:36:31.9	301.060	-0.140	-0.560	-0.020
2020/01/31 11:36:32.0	301.070	-0.110	-0.570	-0.020
2020/01/31 11:36:32.1	301.080	-0.090	-0.580	-0.010
2020/01/31 11:36:32.2	301.080	-0.070	-0.600	-0.000
2020/01/31 11:36:32.3	301.090	-0.040	-0.610	0.010
2020/01/31 11:36:32.4	301.100	-0.020	-0.610	0.030
2020/01/31 11:36:32.5	301.120	0.000	-0.630	0.050
2020/01/31 11:36:32.6	301.130	0.030	-0.630	0.070
2020/01/31 11:36:32.7	301.130	0.050	-0.630	0.100
2020/01/31 11:36:32.8	301.140	0.080	-0.630	0.120
2020/01/31 11:36:32.9	301.150	0.100	-0.630	0.160
2020/01/31 11:36:33.0	301.150	0.120	-0.620	0.190
2020/01/31 11:36:33.1	301.160	0.150	-0.620	0.220
2020/01/31 11:36:33.2	301.160	0.170	-0.610	0.260
2020/01/31 11:36:33.3	301.160	0.190	-0.600	0.300
2020/01/31 11:36:33.4	301.160	0.210	-0.590	0.340
2020/01/31 11:36:33.5	301.180	0.230	-0.570	0.380
2020/01/31 11:36:33.6	301.180	0.250	-0.560	0.420
2020/01/31 11:36:33.7	301.170	0.270	-0.540	0.460
2020/01/31 11:36:33.8	301.170	0.280	-0.530	0.500
2020/01/31 11:36:33.9	301.170	0.300	-0.510	0.540
2020/01/31 11:36:34.0	301.160	0.320	-0.490	0.580
2020/01/31 11:36:34.1	301.160	0.330	-0.470	0.620
2020/01/31 11:36:34.2	301.150	0.350	-0.460	0.660
2020/01/31 11:36:34.3	301.150	0.360	-0.440	0.690
2020/01/31 11:36:34.4	301.140	0.370	-0.420	0.730
2020/01/31 11:36:34.5	301.130	0.380	-0.400	0.760
2020/01/31 11:36:34.6	301.120	0.390	-0.390	0.790
2020/01/31 11:36:34.7	301.110	0.400	-0.370	0.820
2020/01/31 11:36:34.8	301.100	0.410	-0.350	0.850
2020/01/31 11:36:34.9	301.090	0.410	-0.340	0.880
2020/01/31 11:36:35.0	301.080	0.420	-0.330	0.900
2020/01/31 11:36:35.1	301.070	0.420	-0.320	0.920
2020/01/31 11:36:35.2	301.060	0.430	-0.300	0.940
2020/01/31 11:36:35.3	301.050	0.430	-0.290	0.950
2020/01/31 11:36:35.4	301.040	0.430	-0.290	0.970
2020/01/31 11:36:35.5	301.020	0.430	-0.280	0.980
2020/01/31 11:36:35.6	301.010	0.430	-0.270	0.980
2020/01/31 11:36:35.7	301.000	0.430	-0.270	0.990
2020/01/31 11:36:35.8	301.000	0.430	-0.260	0.990
2020/01/31 11:36:35.9	300.990	0.430	-0.260	0.990
2020/01/31 11:36:36.0	300.990	0.430	-0.260	0.980
2020/01/31 11:36:36.1	300.980	0.430	-0.250	0.980
2020/01/31 11:36:36.2	300.980	0.430	-0.250	0.970
2020/01/31 11:36:36.3	300.970	0.420	-0.250	0.960
2020/01/31 11:36:36.4	300.970	0.420	-0.250	0.950
2020/01/31 11:36:36.5	300.970	0.410	-0.250	0.940
2020/01/31 11:36:36.6	300.970	0.410	-0.250	0.930
2020/01/31 11:36:36.7	300.970	0.400	-0.250	0.910
2020/01/31 11:36:36.8	300.970	0.390	-0.250	0.900
2020/01/31 11:36:36.9	300.980	0.390	-0.240	0.890
2020/01/31 11:36:37.0	300.980	0.380	-0.240	0.880
2020/01/31 11:36:37.1	300.980	0.370	-0.240	0.860
2020/01/31 11:36:37.2	300.980	0.360	-0.230	0.850
2020/01/31 11:36:37.3	300.990	0.350	-0.230	0.840
2020/01/31 11:36:37.4	300.990	0.330	-0.220	0.820
2020/01/31 11:36:37.5	300.990	0.320	-0.210	0.810
2020/01/31 11:36:37.6	301.000	0.310	-0.200	0.800
2020/01/31 11:36:37.7	301.000	0.290	-0.200	0.790
2020/01/31 11:36:37.8	301.010	0.280	-0.190	0.780
2020/01/31 11:36:37.9	301.010	0.260	-0.170	0.760
2020/01/31 11:36:38.0	301.010	0.240	-0.160	0.750
2020/01/31 11:36:38.1	301.020	0.220	-0.150	0.740
2020/01/31 11:36:38.2	301.020	0.200	-0.140	0.730
2020/01/31 11:36:38.3	301.020	0.180	-0.130	0.720
2020/01/31 11:36:38.4	301.030	0.160	-0.110	0.710
2020/01/31 11:36:38.5	301.020	0.140	-0.100	0.700
2020/01/31 11:36:38.6	301.020	0.120	-0.090	0.690
2020/01/31 11:36:38.7	301.030	0.100	-0.070	0.680
2020/01/31 11:36:38.8	301.030	0.070	-0.060	0.680
2020/01/31 11:36:38.9	301.030	0.050	-0.050	0.670
2020/01/31 11:36:39.0	301.030	0.030	-0.040	0.660
2020/01/31 11:36:39.1	301.040	0.000	-0.030	0.650
2020/01/31 11:36:39.2	301.040	-0.020	-0.020	0.650
2020/01/31 11:36:39.3	301.040	-0.050	-0.010	0.640
2020/01/31 11:36:39.4	301.040	-0.070	-0.000	0.630
2020/01/31 11:36:39.5	301.030	-0.090	0.000	0.620
2020/01/31 11:36:39.6	301.030	-0.120	0.010	0.620
2020/01/31 11:36:39.7	301.030	-0.140	0.010	0.610
2020/01/31 11:36:39.8	301.030	-0.160	0.010	0.600
2020/01/31 11:36:39.9	301.030	-0.180	0.010	0.590
2020/01/31 11:36:40.0	301.030	-0.200	0.010	0.580
2020/01/31 11:36:40.1	301.030	-0.220	0.010	0.570
2020/01/31 11:36:40.2	301.030	-0.240	0.000	0.560
2020/01/31 11:36:40.3	301.030	-0.260	-0.000	0.550
2020/01/31 11:36:40.4	301.020	-0.280	-0.010	0.540
2020/01/31 11:36:40.5	301.020	-0.290	-0.020	0.530
2020/01/31 11:36:40.6	301.020	-0.310	-0.030	0.510
2020/01/31 11:36:40.7	301.010	-0.320	-0.040	0.500
2020/01/31 11:36:40.8	301.010	-0.340	-0.050	0.480
2020/01/31 11:36:40.9	301.000	-0.350	-0.070	0.470
2020/01/31 11:36:41.0	301.000	-0.360	-0.090	0.450
2020/01/31 11:36:41.1	300.990	-0.370	-0.100	0.430
2020/01/31 11:36:41.2	300.990	-0.370	-0.120	0.400
2020/01/31 11:36:41.3	300.980	-0.380	-0.140	0.380
2020/01/31 11:36:41.4	300.980	-0.390	-0.160	0.360
2020/01/31 11:36:41.5	300.970	-0.390	-0.180	0.330
2020/01/31 11:36:41.6	300.970	-0.400	-0.200	0.300
2020/01/31 11:36:41.7	300.960	-0.400	-0.220	0.280
2020/01/31 11:36:41.8	300.950	-0.400	-0.250	0.250
2020/01/31 11:36:41.9	300.950	-0.400	-0.270	0.220
2020/01/31 11:36:42.0	300.940	-0.400	-0.290	0.190
2020/01/31 11:36:42.1	300.930	-0.400	-0.310	0.160
2020/01/31 11:36:42.2	300.920	-0.400	-0.330	0.130
2020/01/31 11:36:42.3	300.910	-0.390	-0.350	0.100
2020/01/31 11:36:42.4	300.900	-0.390	-0.370	0.070
2020/01/31 11:36:42.5	300.890	-0.390	-0.390	0.040
2020/01/31 11:36:42.6	300.880	-0.380	-0.410	0.010
2020/01/31 11:36:42.7	300.870	-0.380	-0.420	-0.010
2020/01/31 11:36:42.8	300.860	-0.370	-0.440	-0.040
2020/01/31 11:36:42.9	300.860	-0.360	-0.460	-0.060
2020/01/31 11:36:43.0	300.850	-0.360	-0.470	-0.080
2020/01/31 11:36:43.1	300.840	-0.350	-0.480	-0.110
2020/01/31 11:36:43.2	300.830	-0.340	-0.490	-0.130
2020/01/31 11:36:43.3	300.820	-0.330	-0.510	-0.140
2020/01/31 11:36:43.4	300.810	-0.320	-0.510	-0.160
2020/01/31 11:36:43.5	300.820	-0.310	-0.520	-0.180
2020/01/31 11:36:43.6	300.810	-0.290	-0.530	-0.190
2020/01/31 11:36:43.7	300.810	-0.280	-0.530	-0.200
2020/01/31 11:36:43.8	300.800	-0.270	-0.530	-0.210
2020/01/31 11:36:43.9	300.800	-0.250	-0.540	-0.210
2020/01/31 11:36:44.0	300.800	-0.240	-0.530	-0.210
2020/01/31 11:36:44.1	300.800	-0.220	-0.530	-0.210
2020/01/31 11:36:44.2	300.800	-0.210	-0.530	-0.210
2020/01/31 11:36:44.3	300.800	-0.190	-0.520	-0.210
2020/01/31 11:36:44.4	300.800	-0.170	-0.520	-0.200
2020/01/31 11:36:44.5	300.820	-0.160	-0.510	-0.190
2020/01/31 11:36:44.6	300.820	-0.140	-0.500	-0.180
2020/01/31 11:36:44.7	300.830	-0.130	-0.480	-0.160
2020/01/31 11:36:44.8	300.830	-0.110	-0.470	-0.140
2020/01/31 11:36:44.9	300.840	-0.090	-0.450	-0.120
2020/01/31 11:36:45.0	300.850	-0.080	-0.440	-0.100
2020/01/31 11:36:45.1	300.850	-0.060	-0.420	-0.070
2020/01/31 11:36:45.2	300.860	-0.050	-0.400	-0.040
2020/01/31 11:36:45.3	300.860	-0.040	-0.380	-0.000
2020/01/31 11:36:45.4	300.870	-0.020	-0.360	0.040
2020/01/31 11:36:45.5	300.890	-0.010	-0.330	0.080
2020/01/31 11:36:45.6	300.890	-0.000	-0.310	0.120
2020/01/31 11:36:45.7	300.890	0.010	-0.280	0.170
2020/01/31 11:36:45.8	300.900	0.020	-0.260	0.220
2020/01/31 11:36:45.9	300.900	0.020	-0.230	0.270
2020/01/31 11:36:46.0	300.890	0.030	-0.210	0.320
2020/01/31 11:36:46.1	300.890	0.030	-0.180	0.380
2020/01/31 11:36:46.2	300.890	0.040	-0.150	0.440
2020/01/31 11:36:46.3	300.880	0.040	-0.130	0.500
2020/01/31 11:36:46.4	300.870	0.040	-0.100	0.560
2020/01/31 11:36:46.5	300.880	0.040	-0.080	0.620
2020/01/31 11:36:46.6	300.870	0.050	-0.060	0.680
2020/01/31 11:36:46.7	300.850	0.040	-0.030	0.740
2020/01/31 11:36:46.8	300.840	0.040	-0.020	0.800
2020/01/31 11:36:46.9	300.830	0.040	0.000	0.860
2020/01/31 11:36:47.0	300.820	0.040	0.020	0.920
2020/01/31 11:36:47.1	300.800	0.040	0.030	0.980
2020/01/31 11:36:47.2	300.780	0.030	0.040	1.030
2020/01/31 11:36:47.3	300.770	0.030	0.050	1.080
2020/01/31 11:36:47.4	300.750	0.030	0.050	1.130
2020/01/31 11:36:47.5	300.740	0.030	0.060	1.180
2020/01/31 11:36:47.6	300.720	0.020	0.060	1.230
2020/01/31 11:36:47.7	300.700	0.020	0.050	1.270
2020/01/31 11:36:47.8	300.680	0.020	0.050	1.300
2020/01/31 11:36:47.9	300.660	0.020	0.040	1.340
2020/01/31 11:36:48.0	300.650	0.010	0.030	1.370
2020/01/31 11:36:48.1	300.630	0.010	0.010	1.390
2020/01/31 11:36:48.2	300.610	0.010	-0.000	1.420
2020/01/31 11:36:48.3	300.590	0.010	-0.020	1.430
2020/01/31 11:36:48.4	300.580	0.020	-0.040	1.450
2020/01/31 11:36:48.5	300.560	0.020	-0.060	1.450
2020/01/31 11:36:48.6	300.550	0.020	-0.080	1.460
2020/01/31 11:36:48.7	300.530	0.020	-0.100	1.460
2020/01/31 11:36:48.8	300.520	0.030	-0.120	1.450
2020/01/31 11:36:48.9	300.500	0.040	-0.150	1.440
2020/01/31 11:36:49.0	300.490	0.040	-0.170	1.430
2020/01/31 11:36:49.1	300.480	0.050	-0.200	1.420
2020/01/31 11:36:49.2	300.470	0.060	-0.220	1.400
2020/01/31 11:36:49.3	300.470	0.070	-0.240	1.380
2020/01/31 11:36:49.4	300.460	0.080	-0.260	1.350
2020/01/31 11:36:49.5	300.460	0.090	-0.290	1.330
2020/01/31 11:36:49.6	300.460	0.100	-0.310	1.300
2020/01/31 11:36:49.7	300.460	0.110	-0.320	1.260
2020/01/31 11:36:49.8	300.460	0.130	-0.340	1.220
2020/01/31 11:36:49.9	300.460	0.140	-0.350	1.180
2020/01/31 11:36:50.0	300.460	0.150	-0.370	1.140
2020/01/31 11:36:50.1	300.470	0.170	-0.380	1.100
2020/01/31 11:36:50.2	300.480	0.180	-0.390	1.050
2020/01/31 11:36:50.3	300.490	0.200	-0.400	1.010
2020/01/31 11:36:50.4	300.500	0.210	-0.410	0.960
2020/01/31 11:36:50.5	300.510	0.220	-0.410	0.910
2020/01/31 11:36:50.6	300.520	0.240	-0.410	0.850
2020/01/31 11:36:50.7	300.540	0.250	-0.420	0.800
2020/01/31 11:36:50.8	300.550	0.260	-0.420	0.750
2020/01/31 11:36:50.9	300.570	0.280	-0.420	0.700
2020/01/31 11:36:51.0	300.590	0.290	-0.410	0.640
2020/01/31 11:36:51.1	300.610	0.300	-0.410	0.590
2020/01/31 11:36:51.2	300.630	0.310	-0.410	0.540
2020/01/31 11:36:51.3	300.650	0.320	-0.400	0.490
2020/01/31 11:36:51.4	300.670	0.320	-0.390	0.440
2020/01/31 11:36:51.5	300.680	0.330	-0.390	0.380
2020/01/31 11:36:51.6	300.700	0.340	-0.380	0.340
2020/01/31 11:36:51.7	300.730	0.340	-0.370	0.290
2020/01/31 11:36:51.8	300.750	0.340	-0.360	0.240
2020/01/31 11:36:51.9	300.770	0.340	-0.350	0.200
2020/01/31 11:36:52.0	300.790	0.340	-0.330	0.160
2020/01/31 11:36:52.1	300.800	0.340	-0.320	0.120
2020/01/31 11:36:52.2	300.820	0.330	-0.310	0.080
2020/01/31 11:36:52.3	300.840	0.320	-0.290	0.050
2020/01/31 11:36:52.4	300.860	0.320	-0.280	0.010
2020/01/31 11:36:52.5	300.860	0.310	-0.260	-0.020
2020/01/31 11:36:52.6	300.880	0.300	-0.240	-0.050
2020/01/31 11:36:52.7	300.890	0.280	-0.230	-0.070
2020/01/31 11:36:52.8	300.910	0.270	-0.210	-0.100
2020/01/31 11:36:52.9	300.920	0.260	-0.190	-0.110
2020/01/31 11:36:53.0	300.940	0.240	-0.180	-0.130
2020/01/31 11:36:53.1	300.950	0.220	-0.160	-0.140
2020/01/31 11:36:53.2	300.960	0.200	-0.140	-0.150
2020/01/31 11:36:53.3	300.970	0.180	-0.130	-0.160
2020/01/31 11:36:53.4	300.980	0.160	-0.110	-0.160
2020/01/31 11:36:53.5	300.990	0.140	-0.100	-0.160
2020/01/31 11:36:53.6	301.000	0.120	-0.090	-0.160
2020/01/31 11:36:53.7	301.000	0.100	-0.080	-0.160
2020/01/31 11:36:53.8	301.010	0.080	-0.070	-0.150
2020/01/31 11:36:53.9	301.020	0.060	-0.060	-0.140
2020/01/31 11:36:54.0	301.020	0.030	-0.060	-0.130
2020/01/31 11:36:54.1	301.030	0.010	-0.050	-0.110
2020/01/31 11:36:54.2	301.030	-0.010	-0.050	-0.100
2020/01/31 11:36:54.3	301.040	-0.030	-0.050	-0.080
2020/01/31 11:36:54.4	301.040	-0.050	-0.060	-0.060
2020/01/31 11:36:54.5	301.050	-0.070	-0.060	-0.040
2020/01/31 11:36:54.6	301.050	-0.080	-0.070	-0.020
2020/01/31 11:36:54.7	301.050	-0.100	-0.070	0.000
2020/01/31 11:36:54.8	301.040	-0.110	-0.090	0.020
2020/01/31 11:36:54.9	301.040	-0.130	-0.100	0.050
2020/01/31 11:36:55.0	301.030	-0.140	-0.110	0.080
2020/01/31 11:36:55.1	301.030	-0.150	-0.130	0.100
2020/01/31 11:36:55.2	301.020	-0.160	-0.140	0.130
2020/01/31 11:36:55.3	301.010	-0.160	-0.160	0.160
2020/01/31 11:36:55.4	301.000	-0.170	-0.180	0.190
2020/01/31 11:36:55.5	300.990	-0.170	-0.200	0.220
2020/01/31 11:36:55.6	300.980	-0.170	-0.220	0.250
2020/01/31 11:36:55.7	300.970	-0.170	-0.240	0.290
2020/01/31 11:36:55.8	300.960	-0.170	-0.260	0.320
2020/01/31 11:36:55.9	300.940	-0.170	-0.280	0.350
2020/01/31 11:36:56.0	300.930	-0.160	-0.310	0.390
2020/01/31 11:36:56.1	300.910	-0.160	-0.330	0.420
2020/01/31 11:36:56.2	300.900	-0.150	-0.350	0.460
2020/01/31 11:36:56.3	300.880	-0.140	-0.370	0.490
2020/01/31 11:36:56.4	300.860	-0.130	-0.390	0.530
2020/01/31 11:36:56.5	300.820	-0.120	-0.400	0.560
2020/01/31 11:36:56.6	300.800	-0.110	-0.420	0.600
2020/01/31 11:36:56.7	300.790	-0.100	-0.430	0.630
2020/01/31 11:36:56.8	300.770	-0.090	-0.450	0.670
2020/01/31 11:36:56.9	300.750	-0.080	-0.460	0.700
2020/01/31 11:36:57.0	300.730	-0.070	-0.470	0.740
2020/01/31 11:36:57.1	300.710	-0.060	-0.480	0.770
2020/01/31 11:36:57.2	300.690	-0.050	-0.480	0.800
2020/01/31 11:36:57.3	300.680	-0.040	-0.490	0.830
2020/01/31 11:36:57.4	300.660	-0.030	-0.490	0.870
2020/01/31 11:36:57.5	300.650	-0.020	-0.490	0.890
2020/01/31 11:36:57.6	300.630	-0.010	-0.480	0.920
2020/01/31 11:36:57.7	300.620	-0.010	-0.480	0.950
2020/01/31 11:36:57.8	300.600	-0.000	-0.470	0.980
2020/01/31 11:36:57.9	300.590	0.000	-0.460	1.000
2020/01/31 11:36:58.0	300.580	0.010	-0.450	1.020
2020/01/31 11:36:58.1	300.560	0.010	-0.440	1.040
2020/01/31 11:36:58.2	300.550	0.010	-0.430	1.060
2020/01/31 11:36:58.3	300.550	0.010	-0.410	1.080
2020/01/31 11:36:58.4	300.540	0.000	-0.400	1.090
2020/01/31 11:36:58.5	300.530	0.000	-0.380	1.110
2020/01/31 11:36:58.6	300.520	-0.000	-0.360	1.120
2020/01/31 11:36:58.7	300.510	-0.010	-0.340	1.130
2020/01/31 11:36:58.8	300.510	-0.020	-0.320	1.130
2020/01/31 11:36:58.9	300.500	-0.030	-0.290	1.130
2020/01/31 11:36:59.0	300.500	-0.040	-0.270	1.130
2020/01/31 11:36:59.1	300.490	-0.050	-0.250	1.130
2020/01/31 11:36:59.2	300.490	-0.060	-0.230	1.120
2020/01/31 11:36:59.3	300.490	-0.070	-0.200	1.110
2020/01/31 11:36:59.4	300.480	-0.090	-0.180	1.100
2020/01/31 11:36:59.5	300.480	-0.100	-0.160	1.090
2020/01/31 11:36:59.6	300.480	-0.120	-0.140	1.070
2020/01/31 11:36:59.7	300.480	-0.130	-0.120	1.060
2020/01/31 11:36:59.8	300.480	-0.150	-0.100	1.040
2020/01/31 11:36:59.9	300.480	-0.160	-0.080	1.010
2020/01/31 11:37:00.0	300.480	-0.180	-0.060	0.990
2020/01/31 11:37:00.1	300.480	-0.190	-0.050	0.960
2020/01/31 11:37:00.2	300.480	-0.210	-0.030	0.930
2020/01/31 11:37:00.3	300.480	-0.220	-0.020	0.900
2020/01/31 11:37:00.4	300.480	-0.230	-0.010	0.870
2020/01/31 11:37:00.5	300.490	-0.250	0.000	0.840
2020/01/31 11:37:00.6	300.490	-0.260	0.010	0.800
2020/01/31 11:37:00.7	300.490	-0.270	0.020	0.760
2020/01/31 11:37:00.8	300.500	-0.280	0.020	0.720
2020/01/31 11:37:00.9	300.500	-0.290	0.020	0.680
2020/01/31 11:37:01.0	300.500	-0.300	0.020	0.640
2020/01/31 11:37:01.1	300.510	-0.310	0.010	0.590
2020/01/31 11:37:01.2	300.510	-0.320	0.000	0.550
2020/01/31 11:37:01.3	300.520	-0.320	-0.010	0.500
2020/01/31 11:37:01.4	300.520	-0.330	-0.020	0.460
2020/01/31 11:37:01.5	300.530	-0.330	-0.030	0.410
2020/01/31 11:37:01.6	300.530	-0.330	-0.050	0.360
2020/01/31 11:37:01.7	300.540	-0.330	-0.070	0.320
2020/01/31 11:37:01.8	300.550	-0.330	-0.090	0.270
2020/01/31 11:37:01.9	300.560	-0.330	-0.110	0.230
2020/01/31 11:37:02.0	300.570	-0.330	-0.130	0.180
2020/01/31 11:37:02.1	300.570	-0.320	-0.150	0.140
2020/01/31 11:37:02.2	300.580	-0.320	-0.180	0.100
2020/01/31 11:37:02.3	300.590	-0.310	-0.200	0.060
2020/01/31 11:37:02.4	300.600	-0.300	-0.220	0.020
2020/01/31 11:37:02.5	300.600	-0.290	-0.250	-0.010
2020/01/31 11:37:02.6	300.610	-0.280	-0.280	-0.040
2020/01/31 11:37:02.7	300.620	-0.270	-0.300	-0.070
2020/01/31 11:37:02.8	300.630	-0.260	-0.320	-0.100
2020/01/31 11:37:02.9	300.640	-0.240	-0.350	-0.120
2020/01/31 11:37:03.0	300.640	-0.230	-0.370	-0.140
2020/01/31 11:37:03.1	300.650	-0.210	-0.390	-0.160
2020/01/31 11:37:03.2	300.660	-0.200	-0.400	-0.170
2020/01/31 11:37:03.3	300.670	-0.180	-0.420	-0.180
2020/01/31 11:37:03.4	300.670	-0.160	-0.430	-0.190
2020/01/31 11:37:03.5	300.680	-0.140	-0.440	-0.200
2020/01/31 11:37:03.6	300.690	-0.130	-0.450	-0.200
2020/01/31 11:37:03.7	300.690	-0.110	-0.460	-0.190
2020/01/31 11:37:03.8	300.690	-0.090	-0.470	-0.190
2020/01/31 11:37:03.9	300.700	-0.070	-0.470	-0.180
2020/01/31 11:37:04.0	300.700	-0.050	-0.470	-0.160
2020/01/31 11:37:04.1	300.700	-0.040	-0.470	-0.150
2020/01/31 11:37:04.2	300.700	-0.020	-0.470	-0.130
2020/01/31 11:37:04.3	300.700	-0.000	-0.470	-0.110
2020/01/31 11:37:04.4	300.700	0.010	-0.460	-0.080
2020/01/31 11:37:04.5	300.700	0.030	-0.450	-0.050
2020/01/31 11:37:04.6	300.690	0.040	-0.440	-0.020
2020/01/31 11:37:04.7	300.690	0.050	-0.430	0.000
2020/01/31 11:37:04.8	300.690	0.070	-0.420	0.030
2020/01/31 11:37:04.9	300.680	0.080	-0.400	0.060
2020/01/31 11:37:05.0	300.680	0.090	-0.390	0.100
2020/01/31 11:37:05.1	300.670	0.100	-0.370	0.130
2020/01/31 11:37:05.2	300.660	0.110	-0.350	0.160
2020/01/31 11:37:05.3	300.660	0.110	-0.330	0.190
2020/01/31 11:37:05.4	300.650	0.120	-0.310	0.220
2020/01/31 11:37:05.5	300.660	0.130	-0.290	0.250
2020/01/31 11:37:05.6	300.650	0.130	-0.270	0.280
2020/01/31 11:37:05.7	300.650	0.140	-0.250	0.310
2020/01/31 11:37:05.8	300.640	0.140	-0.230	0.330
2020/01/31 11:37:05.9	300.640	0.140	-0.210	0.360
2020/01/31 11:37:06.0	300.640	0.140	-0.190	0.390
2020/01/31 11:37:06.1	300.640	0.150	-0.180	0.410
2020/01/31 11:37:06.2	300.630	0.150	-0.160	0.440
2020/01/31 11:37:06.3	300.630	0.150	-0.140	0.460
2020/01/31 11:37:06.4	300.630	0.150	-0.130	0.480
2020/01/31 11:37:06.5	300.630	0.150	-0.110	0.510
2020/01/31 11:37:06.6	300.630	0.150	-0.100	0.530
2020/01/31 11:37:06.7	300.630	0.150	-0.090	0.550
2020/01/31 11:37:06.8	300.630	0.150	-0.080	0.570
2020/01/31 11:37:06.9	300.640	0.160	-0.070	0.590
2020/01/31 11:37:07.0	300.640	0.160	-0.060	0.600
2020/01/31 11:37:07.1	300.640	0.160	-0.060	0.620
2020/01/31 11:37:07.2	300.640	0.160	-0.050	0.640
2020/01/31 11:37:07.3	300.640	0.160	-0.050	0.650
2020/01/31 11:37:07.4	300.650	0.170	-0.050	0.670
2020/01/31 11:37:07.5	300.650	0.170	-0.050	0.680
2020/01/31 11:37:07.6	300.650	0.180	-0.050	0.700
2020/01/31 11:37:07.7	300.650	0.180	-0.050	0.710
2020/01/31 11:37:07.8	300.650	0.190	-0.060	0.720
2020/01/31 11:37:07.9	300.660	0.190	-0.060	0.740
2020/01/31 11:37:08.0	300.660	0.200	-0.070	0.750
2020/01/31 11:37:08.1	300.660	0.210	-0.070	0.760
2020/01/31 11:37:08.2	300.670	0.210	-0.080	0.780
2020/01/31 11:37:08.3	300.670	0.220	-0.090	0.790
2020/01/31 11:37:08.4	300.670	0.230	-0.100	0.810
2020/01/31 11:37:08.5	300.680	0.240	-0.110	0.820
2020/01/31 11:37:08.6	300.680	0.250	-0.120	0.840
2020/01/31 11:37:08.7	300.680	0.260	-0.130	0.850
2020/01/31 11:37:08.8	300.680	0.260	-0.140	0.870
2020/01/31 11:37:08.9	300.680	0.270	-0.150	0.880
2020/01/31 11:37:09.0	300.690	0.280	-0.160	0.900
2020/01/31 11:37:09.1	300.690	0.290	-0.170	0.920
2020/01/31 11:37:09.2	300.680	0.300	-0.180	0.940
2020/01/31 11:37:09.3	300.680	0.310	-0.200	0.950
2020/01/31 11:37:09.4	300.680	0.310	-0.210	0.970
2020/01/31 11:37:09.5	300.680	0.320	-0.220	0.990
2020/01/31 11:37:09.6	300.670	0.330	-0.230	1.010
2020/01/31 11:37:09.7	300.670	0.330	-0.240	1.020
2020/01/31 11:37:09.8	300.670	0.340	-0.250	1.040
2020/01/31 11:37:09.9	300.660	0.340	-0.260	1.060
2020/01/31 11:37:10.0	300.660	0.340	-0.280	1.070
2020/01/31 11:37:10.1	300.650	0.350	-0.290	1.080
2020/01/31 11:37:10.2	300.640	0.350	-0.290	1.100
2020/01/31 11:37:10.3	300.640	0.350	-0.300	1.110
2020/01/31 11:37:10.4	300.630	0.340	-0.310	1.120
2020/01/31 11:37:10.5	300.620	0.340	-0.320	1.130
2020/01/31 11:37:10.6	300.610	0.340	-0.320	1.130
2020/01/31 11:37:10.7	300.590	0.330	-0.330	1.140
2020/01/31 11:37:10.8	300.580	0.320	-0.330	1.140
2020/01/31 11:37:10.9	300.570	0.320	-0.340	1.140
2020/01/31 11:37:11.0	300.560	0.310	-0.340	1.140
2020/01/31 11:37:11.1	300.540	0.290	-0.340	1.140
2020/01/31 11:37:11.2	300.530	0.280	-0.340	1.140
2020/01/31 11:37:11.3	300.510	0.270	-0.340	1.130
2020/01/31 11:37:11.4	300.500	0.250	-0.330	1.120
2020/01/31 11:37:11.5	300.490	0.240	-0.330	1.110
2020/01/31 11:37:11.6	300.470	0.220	-0.320	1.090
2020/01/31 11:37:11.7	300.460	0.200	-0.320	1.070
2020/01/31 11:37:11.8	300.440	0.180	-0.310	1.050
2020/01/31 11:37:11.9	300.430	0.160	-0.300	1.030
2020/01/31 11:37:12.0	300.420	0.130	-0.300	1.000
2020/01/31 11:37:12.1	300.400	0.110	-0.290	0.960
2020/01/31 11:37:12.2	300.390	0.090	-0.280	0.930
2020/01/31 11:37:12.3	300.370	0.060	-0.270	0.890
2020/01/31 11:37:12.4	300.360	0.040	-0.260	0.850
2020/01/31 11:37:12.5	300.370	0.010	-0.260	0.810
2020/01/31 11:37:12.6	300.360	-0.010	-0.250	0.760
2020/01/31 11:37:12.7	300.350	-0.040	-0.240	0.720
2020/01/31 11:37:12.8	300.340	-0.060	-0.230	0.670
2020/01/31 11:37:12.9	300.330	-0.090	-0.220	0.620
2020/01/31 11:37:13.0	300.320	-0.110	-0.210	0.570
2020/01/31 11:37:13.1	300.310	-0.130	-0.210	0.520
2020/01/31 11:37:13.2	300.310	-0.160	-0.200	0.470
2020/01/31 11:37:13.3	300.300	-0.180	-0.190	0.410
2020/01/31 11:37:13.4	300.290	-0.200	-0.190	0.360
2020/01/31 11:37:13.5	300.290	-0.220	-0.190	0.310
2020/01/31 11:37:13.6	300.290	-0.240	-0.180	0.260
2020/01/31 11:37:13.7	300.280	-0.260	-0.180	0.210
2020/01/31 11:37:13.8	300.280	-0.270	-0.180	0.160
2020/01/31 11:37:13.9	300.280	-0.290	-0.180	0.110
2020/01/31 11:37:14.0	300.280	-0.300	-0.190	0.060
2020/01/31 11:37:14.1	300.280	-0.320	-0.190	0.010
2020/01/31 11:37:14.2	300.280	-0.330	-0.200	-0.030
2020/01/31 11:37:14.3	300.280	-0.340	-0.200	-0.080
2020/01/31 11:37:14.4	300.290	-0.340	-0.210	-0.120
2020/01/31 11:37:14.5	300.280	-0.350	-0.220	-0.160
2020/01/31 11:37:14.6	300.290	-0.360	-0.230	-0.200
2020/01/31 11:37:14.7	300.290	-0.360	-0.240	-0.240
2020/01/31 11:37:14.8	300.300	-0.360	-0.260	-0.280
2020/01/31 11:37:14.9	300.300	-0.360	-0.270	-0.310
2020/01/31 11:37:15.0	300.310	-0.360	-0.280	-0.340
2020/01/31 11:37:15.1	300.320	-0.360	-0.290	-0.370
2020/01/31 11:37:15.2	300.330	-0.350	-0.310	-0.390
2020/01/31 11:37:15.3	300.340	-0.350	-0.320	-0.420
2020/01/31 11:37:15.4	300.350	-0.340	-0.330	-0.440
2020/01/31 11:37:15.5	300.350	-0.340	-0.340	-0.450
2020/01/31 11:37:15.6	300.360	-0.330	-0.350	-0.470
2020/01/31 11:37:15.7	300.380	-0.320	-0.360	-0.480
2020/01/31 11:37:15.8	300.390	-0.310	-0.370	-0.490
2020/01/31 11:37:15.9	300.410	-0.300	-0.380	-0.500
2020/01/31 11:37:16.0	300.420	-0.290	-0.380	-0.510
2020/01/31 11:37:16.1	300.430	-0.280	-0.390	-0.510
2020/01/31 11:37:16.2	300.450	-0.270	-0.390	-0.500
2020/01/31 11:37:16.3	300.470	-0.260	-0.390	-0.500
2020/01/31 11:37:16.4	300.480	-0.250	-0.390	-0.490
2020/01/31 11:37:16.5	300.500	-0.240	-0.390	-0.480
2020/01/31 11:37:16.6	300.510	-0.230	-0.380	-0.460
2020/01/31 11:37:16.7	300.530	-0.210	-0.380	-0.450
2020/01/31 11:37:16.8	300.550	-0.200	-0.370	-0.430
2020/01/31 11:37:16.9	300.560	-0.190	-0.370	-0.400
2020/01/31 11:37:17.0	300.580	-0.180	-0.360	-0.370
2020/01/31 11:37:17.1	300.600	-0.170	-0.350	-0.340
2020/01/31 11:37:17.2	300.610	-0.160	-0.340	-0.310
2020/01/31 11:37:17.3	300.630	-0.150	-0.320	-0.270
2020/01/31 11:37:17.4	300.650	-0.140	-0.310	-0.230
2020/01/31 11:37:17.5	300.680	-0.140	-0.300	-0.190
2020/01/31 11:37:17.6	300.690	-0.130	-0.280	-0.140
2020/01/31 11:37:17.7	300.710	-0.120	-0.270	-0.100
2020/01/31 11:37:17.8	300.730	-0.120	-0.250	-0.050
2020/01/31 11:37:17.9	300.750	-0.110	-0.240	-0.000
2020/01/31 11:37:18.0	300.760	-0.110	-0.230	0.050
2020/01/31 11:37:18.1	300.780	-0.100	-0.210	0.100
2020/01/31 11:37:18.2	300.790	-0.100	-0.200	0.150
2020/01/31 11:37:18.3	300.810	-0.090	-0.190	0.210
2020/01/31 11:37:18.4	300.820	-0.090	-0.170	0.260
2020/01/31 11:37:18.5	300.830	-0.090	-0.160	0.320
2020/01/31 11:37:18.6	300.840	-0.090	-0.150	0.370
2020/01/31 11:37:18.7	300.860	-0.080	-0.150	0.430
2020/01/31 11:37:18.8	300.870	-0.080	-0.140	0.490
2020/01/31 11:37:18.9	300.880	-0.080	-0.130	0.540
2020/01/31 11:37:19.0	300.880	-0.080	-0.130	0.600
2020/01/31 11:37:19.1	300.890	-0.080	-0.130	0.650
2020/01/31 11:37:19.2	300.900	-0.070	-0.120	0.710
2020/01/31 11:37:19.3	300.900	-0.070	-0.130	0.760
2020/01/31 11:37:19.4	300.910	-0.070	-0.130	0.820
2020/01/31 11:37:19.5	300.900	-0.060	-0.130	0.870
2020/01/31 11:37:19.6	300.910	-0.060	-0.130	0.920
2020/01/31 11:37:19.7	300.910	-0.050	-0.140	0.970
2020/01/31 11:37:19.8	300.910	-0.050	-0.140	1.010
2020/01/31 11:37:19.9	300.910	-0.040	-0.150	1.060
2020/01/31 11:37:20.0	300.910	-0.030	-0.160	1.100
2020/01/31 11:37:20.1	300.900	-0.020	-0.170	1.140
2020/01/31 11:37:20.2	300.900	-0.010	-0.180	1.180
2020/01/31 11:37:20.3	300.900	-0.000	-0.190	1.210
2020/01/31 11:37:20.4	300.890	0.010	-0.200	1.240
2020/01/31 11:37:20.5	300.880	0.020	-0.210	1.270
2020/01/31 11:37:20.6	300.880	0.030	-0.220	1.290
2020/01/31 11:37:20.7	300.870	0.050	-0.230	1.310
2020/01/31 11:37:20.8	300.870	0.060	-0.250	1.330
2020/01/31 11:37:20.9	300.860	0.070	-0.260	1.340
2020/01/31 11:37:21.0	300.860	0.090	-0.270	1.350
2020/01/31 11:37:21.1	300.850	0.110	-0.290	1.360
2020/01/31 11:37:21.2	300.840	0.120	-0.300	1.360
2020/01/31 11:37:21.3	300.840	0.140	-0.310	1.360
2020/01/31 11:37:21.4	300.830	0.150	-0.330	1.350
2020/01/31 11:37:21.5	300.830	0.170	-0.340	1.350
2020/01/31 11:37:21.6	300.820	0.180	-0.350	1.340
2020/01/31 11:37:21.7	300.820	0.200	-0.360	1.320
2020/01/31 11:37:21.8	300.820	0.210	-0.370	1.300
2020/01/31 11:37:21.9	300.820	0.230	-0.380	1.280
2020/01/31 11:37:22.0	300.810	0.240	-0.390	1.260
2020/01/31 11:37:22.1	300.810	0.250	-0.400	1.230
2020/01/31 11:37:22.2	300.810	0.260	-0.400	1.200
2020/01/31 11:37:22.3	300.810	0.280	-0.400	1.170
2020/01/31 11:37:22.4	300.810	0.280	-0.410	1.130
2020/01/31 11:37:22.5	300.820	0.290	-0.410	1.090
2020/01/31 11:37:22.6	300.820	0.300	-0.400	1.050
2020/01/31 11:37:22.7	300.820	0.310	-0.400	1.010
2020/01/31 11:37:22.8	300.820	0.310	-0.400	0.970
2020/01/31 11:37:22.9	300.820	0.310	-0.390	0.930
2020/01/31 11:37:23.0	300.820	0.310	-0.380	0.890
2020/01/31 11:37:23.1	300.820	0.310	-0.370	0.840
2020/01/31 11:37:23.2	300.810	0.310	-0.360	0.800
2020/01/31 11:37:23.3	300.810	0.310	-0.350	0.760
2020/01/31 11:37:23.4	300.810	0.310	-0.330	0.720
2020/01/31 11:37:23.5	300.810	0.300	-0.320	0.680
2020/01/31 11:37:23.6	300.810	0.290	-0.300	0.640
2020/01/31 11:37:23.7	300.800	0.280	-0.280	0.600
2020/01/31 11:37:23.8	300.800	0.270	-0.260	0.560
2020/01/31 11:37:23.9	300.790	0.260	-0.240	0.520
2020/01/31 11:37:24.0	300.790	0.250	-0.220	0.480
2020/01/31 11:37:24.1	300.780	0.230	-0.190	0.440
2020/01/31 11:37:24.2	300.770	0.220	-0.170	0.410
2020/01/31 11:37:24.3	300.770	0.200	-0.150	0.370
2020/01/31 11:37:24.4	300.760	0.190	-0.130	0.340
2020/01/31 11:37:24.5	300.760	0.170	-0.110	0.310
2020/01/31 11:37:24.6	300.750	0.150	-0.090	0.280
2020/01/31 11:37:24.7	300.740	0.140	-0.060	0.250
2020/01/31 11:37:24.8	300.740	0.120	-0.040	0.230
2020/01/31 11:37:24.9	300.730	0.100	-0.020	0.200
2020/01/31 11:37:25.0	300.720	0.080	-0.000	0.180
2020/01/31 11:37:25.1	300.710	0.070	0.020	0.160
2020/01/31 11:37:25.2	300.710	0.050	0.040	0.140
2020/01/31 11:37:25.3	300.700	0.030	0.060	0.130
2020/01/31 11:37:25.4	300.690	0.010	0.070	0.110
2020/01/31 11:37:25.5	300.680	-0.000	0.090	0.100
2020/01/31 11:37:25.6	300.670	-0.020	0.100	0.090
2020/01/31 11:37:25.7	300.670	-0.030	0.110	0.080
2020/01/31 11:37:25.8	300.660	-0.050	0.120	0.070
2020/01/31 11:37:25.9	300.650	-0.060	0.130	0.060
2020/01/31 11:37:26.0	300.640	-0.070	0.140	0.060
2020/01/31 11:37:26.1	300.640	-0.080	0.150	0.060
2020/01/31 11:37:26.2	300.630	-0.090	0.150	0.060
2020/01/31 11:37:26.3	300.630	-0.100	0.150	0.060
2020/01/31 11:37:26.4	300.620	-0.110	0.150	0.060
2020/01/31 11:37:26.5	300.610	-0.110	0.150	0.060
2020/01/31 11:37:26.6	300.600	-0.110	0.140	0.060
2020/01/31 11:37:26.7	300.600	-0.120	0.130	0.070
2020/01/31 11:37:26.8	300.600	-0.120	0.120	0.080
2020/01/31 11:37:26.9	300.600	-0.120	0.110	0.080
2020/01/31 11:37:27.0	300.590	-0.110	0.090	0.090
2020/01/31 11:37:27.1	300.590	-0.110	0.080	0.100
2020/01/31 11:37:27.2	300.590	-0.110	0.060	0.110
2020/01/31 11:37:27.3	300.590	-0.100	0.030	0.120
2020/01/31 11:37:27.4	300.590	-0.100	0.010	0.130
2020/01/31 11:37:27.5	300.590	-0.090	-0.020	0.140
2020/01/31 11:37:27.6	300.590	-0.080	-0.040	0.150
2020/01/31 11:37:27.7	300.600	-0.070	-0.070	0.160
2020/01/31 11:37:27.8	300.600	-0.060	-0.100	0.170
2020/01/31 11:37:27.9	300.600	-0.050	-0.140	0.180
2020/01/31 11:37:28.0	300.610	-0.040	-0.170	0.190
2020/01/31 11:37:28.1	300.610	-0.030	-0.210	0.200
2020/01/31 11:37:28.2	300.620	-0.020	-0.240	0.210
2020/01/31 11:37:28.3	300.630	-0.020	-0.280	0.220
2020/01/31 11:37:28.4	300.640	-0.010	-0.320	0.230
2020/01/31 11:37:28.5	300.640	0.000	-0.350	0.240
2020/01/31 11:37:28.6	300.650	0.010	-0.390	0.250
2020/01/31 11:37:28.7	300.660	0.020	-0.430	0.260
2020/01/31 11:37:28.8	300.680	0.020	-0.460	0.270
2020/01/31 11:37:28.9	300.690	0.030	-0.500	0.280
2020/01/31 11:37:29.0	300.700	0.040	-0.540	0.280
2020/01/31 11:37:29.1	300.720	0.040	-0.570	0.290
2020/01/31 11:37:29.2	300.730	0.040	-0.610	0.300
2020/01/31 11:37:29.3	300.750	0.050	-0.640	0.310
2020/01/31 11:37:29.4	300.760	0.050	-0.670	0.320
2020/01/31 11:37:29.5	300.780	0.050	-0.700	0.330
2020/01/31 11:37:29.6	300.800	0.050	-0.730	0.340
2020/01/31 11:37:29.7	300.810	0.050	-0.760	0.350
2020/01/31 11:37:29.8	300.830	0.050	-0.780	0.360
2020/01/31 11:37:29.9	300.850	0.050	-0.800	0.370
2020/01/31 11:37:30.0	300.870	0.050	-0.820	0.390
2020/01/31 11:37:30.1	300.890	0.040	-0.830	0.400
2020/01/31 11:37:30.2	300.910	0.040	-0.850	0.410
2020/01/31 11:37:30.3	300.920	0.040	-0.850	0.420
2020/01/31 11:37:30.4	300.940	0.030	-0.860	0.430
2020/01/31 11:37:30.5	300.960	0.030	-0.860	0.450
2020/01/31 11:37:30.6	300.980	0.020	-0.860	0.460
2020/01/31 11:37:30.7	300.990	0.020	-0.850	0.480
2020/01/31 11:37:30.8	301.010	0.010	-0.840	0.490
2020/01/31 11:37:30.9	301.020	0.010	-0.830	0.510
2020/01/31 11:37:31.0	301.030	0.000	-0.810	0.520
2020/01/31 11:37:31.1	301.040	-0.000	-0.790	0.540
2020/01/31 11:37:31.2	301.050	-0.010	-0.770	0.560
2020/01/31 11:37:31.3	301.060	-0.010	-0.740	0.570
2020/01/31 11:37:31.4	301.070	-0.020	-0.720	0.590
2020/01/31 11:37:31.5	301.080	-0.020	-0.690	0.610
2020/01/31 11:37:31.6	301.080	-0.030	-0.660	0.630
2020/01/31 11:37:31.7	301.090	-0.030	-0.620	0.640
2020/01/31 11:37:31.8	301.090	-0.040	-0.590	0.660
2020/01/31 11:37:31.9	301.090	-0.040	-0.550	0.670
2020/01/31 11:37:32.0	301.090	-0.040	-0.520	0.680
2020/01/31 11:37:32.1	301.090	-0.050	-0.480	0.690
2020/01/31 11:37:32.2	301.090	-0.050	-0.440	0.710
2020/01/31 11:37:32.3	301.090	-0.050	-0.410	0.720
2020/01/31 11:37:32.4	301.080	-0.050	-0.370	0.730
2020/01/31 11:37:32.5	301.070	-0.060	-0.330	0.730
2020/01/31 11:37:32.6	301.060	-0.060	-0.300	0.740
2020/01/31 11:37:32.7	301.050	-0.060	-0.260	0.740
2020/01/31 11:37:32.8	301.050	-0.060	-0.230	0.750
2020/01/31 11:37:32.9	301.040	-0.060	-0.190	0.750
2020/01/31 11:37:33.0	301.020	-0.060	-0.160	0.750
2020/01/31 11:37:33.1	301.010	-0.070	-0.130	0.750
2020/01/31 11:37:33.2	301.000	-0.070	-0.090	0.750
2020/01/31 11:37:33.3	300.980	-0.070	-0.060	0.750
2020/01/31 11:37:33.4	300.970	-0.070	-0.030	0.750
2020/01/31 11:37:33.5	300.940	-0.070	0.000	0.750
2020/01/31 11:37:33.6	300.920	-0.070	0.030	0.740
2020/01/31 11:37:33.7	300.900	-0.080	0.060	0.740
2020/01/31 11:37:33.8	300.890	-0.080	0.090	0.730
2020/01/31 11:37:33.9	300.870	-0.080	0.120	0.720
2020/01/31 11:37:34.0	300.850	-0.090	0.150	0.720
2020/01/31 11:37:34.1	300.830	-0.090	0.180	0.710
2020/01/31 11:37:34.2	300.810	-0.090	0.210	0.700
2020/01/31 11:37:34.3	300.790	-0.100	0.240	0.690
2020/01/31 11:37:34.4	300.770	-0.100	0.270	0.680
2020/01/31 11:37:34.5	300.740	-0.110	0.290	0.670
2020/01/31 11:37:34.6	300.720	-0.120	0.320	0.660
2020/01/31 11:37:34.7	300.700	-0.120	0.340	0.650
2020/01/31 11:37:34.8	300.670	-0.130	0.360	0.640
2020/01/31 11:37:34.9	300.650	-0.130	0.390	0.630
2020/01/31 11:37:35.0	300.630	-0.140	0.410	0.620
2020/01/31 11:37:35.1	300.610	-0.150	0.420	0.610
2020/01/31 11:37:35.2	300.590	-0.150	0.440	0.600
2020/01/31 11:37:35.3	300.560	-0.160	0.450	0.590
2020/01/31 11:37:35.4	300.540	-0.170	0.460	0.580
2020/01/31 11:37:35.5	300.510	-0.170	0.460	0.570
2020/01/31 11:37:35.6	300.490	-0.180	0.470	0.560
2020/01/31 11:37:35.7	300.470	-0.180	0.470	0.540
2020/01/31 11:37:35.8	300.450	-0.190	0.460	0.530
2020/01/31 11:37:35.9	300.430	-0.190	0.450	0.520
2020/01/31 11:37:36.0	300.410	-0.190	0.440	0.500
2020/01/31 11:37:36.1	300.400	-0.200	0.420	0.490
2020/01/31 11:37:36.2	300.380	-0.200	0.400	0.470
2020/01/31 11:37:36.3	300.370	-0.200	0.370	0.460
2020/01/31 11:37:36.4	300.360	-0.200	0.340	0.440
2020/01/31 11:37:36.5	300.350	-0.190	0.300	0.410
2020/01/31 11:37:36.6	300.340	-0.190	0.260	0.390
2020/01/31 11:37:36.7	300.330	-0.180	0.220	0.370
2020/01/31 11:37:36.8	300.330	-0.180	0.170	0.340
2020/01/31 11:37:36.9	300.320	-0.170	0.120	0.320
2020/01/31 11:37:37.0	300.320	-0.160	0.060	0.290
2020/01/31 11:37:37.1	300.320	-0.150	0.000	0.260
2020/01/31 11:37:37.2	300.330	-0.140	-0.060	0.230
2020/01/31 11:37:37.3	300.330	-0.120	-0.120	0.200
2020/01/31 11:37:37.4	300.340	-0.110	-0.180	0.170
2020/01/31 11:37:37.5	300.340	-0.090	-0.250	0.140
2020/01/31 11:37:37.6	300.350	-0.070	-0.320	0.110
2020/01/31 11:37:37.7	300.360	-0.060	-0.380	0.080
2020/01/31 11:37:37.8	300.380	-0.040	-0.450	0.050
2020/01/31 11:37:37.9	300.390	-0.020	-0.510	0.020
2020/01/31 11:37:38.0	300.400	0.000	-0.570	-0.010
2020/01/31 11:37:38.1	300.420	0.020	-0.630	-0.040
2020/01/31 11:37:38.2	300.440	0.040	-0.690	-0.070
2020/01/31 11:37:38.3	300.450	0.060	-0.750	-0.090
2020/01/31 11:37:38.4	300.470	0.080	-0.800	-0.120
2020/01/31 11:37:38.5	300.490	0.100	-0.840	-0.140
2020/01/31 11:37:38.6	300.510	0.120	-0.880	-0.150
2020/01/31 11:37:38.7	300.530	0.140	-0.920	-0.170
2020/01/31 11:37:38.8	300.560	0.160	-0.950	-0.190
2020/01/31 11:37:38.9	300.580	0.170	-0.980	-0.200
2020/01/31 11:37:39.0	300.600	0.190	-1.000	-0.210
2020/01/31 11:37:39.1	300.620	0.200	-1.010	-0.210
2020/01/31 11:37:39.2	300.640	0.210	-1.020	-0.220
2020/01/31 11:37:39.3	300.660	0.230	-1.030	-0.220
2020/01/31 11:37:39.4	300.690	0.230	-1.020	-0.220
2020/01/31 11:37:39.5	300.730	0.240	-1.020	-0.210
2020/01/31 11:37:39.6	300.750	0.250	-1.010	-0.200
2020/01/31 11:37:39.7	300.780	0.250	-0.990	-0.190
2020/01/31 11:37:39.8	300.800	0.250	-0.970	-0.170
2020/01/31 11:37:39.9	300.820	0.250	-0.940	-0.150
2020/01/31 11:37:40.0	300.840	0.250	-0.910	-0.130
2020/01/31 11:37:40.1	300.860	0.250	-0.870	-0.100
2020/01/31 11:37:40.2	300.880	0.250	-0.840	-0.070
2020/01/31 11:37:40.3	300.900	0.240	-0.800	-0.040
2020/01/31 11:37:40.4	300.920	0.230	-0.750	0.000
2020/01/31 11:37:40.5	300.950	0.220	-0.710	0.050
2020/01/31 11:37:40.6	300.960	0.210	-0.660	0.090
2020/01/31 11:37:40.7	300.980	0.200	-0.610	0.130
2020/01/31 11:37:40.8	300.990	0.190	-0.570	0.180
2020/01/31 11:37:40.9	301.000	0.180	-0.520	0.230
2020/01/31 11:37:41.0	301.000	0.160	-0.470	0.280
2020/01/31 11:37:41.1	301.010	0.150	-0.420	0.340
2020/01/31 11:37:41.2	301.010	0.130	-0.380	0.390
2020/01/31 11:37:41.3	301.010	0.120	-0.330	0.450
2020/01/31 11:37:41.4	301.000	0.100	-0.290	0.510
2020/01/31 11:37:41.5	301.000	0.090	-0.250	0.560
2020/01/31 11:37:41.6	301.000	0.080	-0.210	0.620
2020/01/31 11:37:41.7	300.980	0.060	-0.170	0.680
2020/01/31 11:37:41.8	300.970	0.050	-0.140	0.740
2020/01/31 11:37:41.9	300.960	0.030	-0.110	0.790
2020/01/31 11:37:42.0	300.940	0.020	-0.080	0.850
2020/01/31 11:37:42.1	300.920	0.010	-0.060	0.900
2020/01/31 11:37:42.2	300.900	-0.000	-0.030	0.960
2020/01/31 11:37:42.3	300.870	-0.010	-0.010	1.010
2020/01/31 11:37:42.4	300.850	-0.020	0.000	1.060
2020/01/31 11:37:42.5	300.810	-0.030	0.020	1.110
2020/01/31 11:37:42.6	300.790	-0.040	0.030	1.150
2020/01/31 11:37:42.7	300.760	-0.050	0.040	1.200
2020/01/31 11:37:42.8	300.720	-0.050	0.050	1.240
2020/01/31 11:37:42.9	300.690	-0.060	0.050	1.270
2020/01/31 11:37:43.0	300.660	-0.060	0.050	1.310
2020/01/31 11:37:43.1	300.630	-0.060	0.050	1.340
2020/01/31 11:37:43.2	300.590	-0.060	0.050	1.370
2020/01/31 11:37:43.3	300.560	-0.060	0.040	1.390
2020/01/31 11:37:43.4	300.530	-0.060	0.040	1.410
2020/01/31 11:37:43.5	300.500	-0.060	0.030	1.420
2020/01/31 11:37:43.6	300.460	-0.060	0.020	1.430
2020/01/31 11:37:43.7	300.430	-0.060	0.020	1.440
2020/01/31 11:37:43.8	300.400	-0.050	0.010	1.440
2020/01/31 11:37:43.9	300.370	-0.050	-0.000	1.440
2020/01/31 11:37:44.0	300.340	-0.050	-0.010	1.430
2020/01/31 11:37:44.1	300.310	-0.040	-0.020	1.420
2020/01/31 11:37:44.2	300.280	-0.040	-0.030	1.410
2020/01/31 11:37:44.3	300.250	-0.030	-0.040	1.400
2020/01/31 11:37:44.4	300.230	-0.030	-0.050	1.380
2020/01/31 11:37:44.5	300.220	-0.020	-0.060	1.360
2020/01/31 11:37:44.6	300.190	-0.020	-0.070	1.330
2020/01/31 11:37:44.7	300.170	-0.010	-0.070	1.300
2020/01/31 11:37:44.8	300.150	-0.010	-0.080	1.280
2020/01/31 11:37:44.9	300.130	-0.000	-0.090	1.240
2020/01/31 11:37:45.0	300.120	-0.000	-0.090	1.210
2020/01/31 11:37:45.1	300.100	0.000	-0.100	1.170
2020/01/31 11:37:45.2	300.090	0.010	-0.100	1.140
2020/01/31 11:37:45.3	300.070	0.010	-0.110	1.100
2020/01/31 11:37:45.4	300.060	0.010	-0.110	1.060
2020/01/31 11:37:45.5	300.070	0.010	-0.120	1.020
2020/01/31 11:37:45.6	300.060	0.010	-0.120	0.970
2020/01/31 11:37:45.7	300.050	0.010	-0.120	0.930
2020/01/31 11:37:45.8	300.050	0.010	-0.110	0.880
2020/01/31 11:37:45.9	300.050	0.010	-0.110	0.830
2020/01/31 11:37:46.0	300.050	0.010	-0.110	0.790
2020/01/31 11:37:46.1	300.050	0.010	-0.110	0.740
2020/01/31 11:37:46.2	300.050	0.010	-0.110	0.690
2020/01/31 11:37:46.3	300.050	0.010	-0.100	0.640
2020/01/31 11:37:46.4	300.060	0.000	-0.100	0.590
2020/01/31 11:37:46.5	300.040	0.000	-0.100	0.530
2020/01/31 11:37:46.6	300.040	-0.000	-0.100	0.480
2020/01/31 11:37:46.7	300.050	-0.000	-0.090	0.430
2020/01/31 11:37:46.8	300.060	-0.010	-0.090	0.380
2020/01/31 11:37:46.9	300.070	-0.010	-0.090	0.330
2020/01/31 11:37:47.0	300.080	-0.010	-0.090	0.290
2020/01/31 11:37:47.1	300.090	-0.020	-0.090	0.240
2020/01/31 11:37:47.2	300.100	-0.020	-0.100	0.200
2020/01/31 11:37:47.3	300.110	-0.020	-0.100	0.150
2020/01/31 11:37:47.4	300.130	-0.030	-0.100	0.110
2020/01/31 11:37:47.5	300.140	-0.030	-0.110	0.070
2020/01/31 11:37:47.6	300.160	-0.030	-0.120	0.030
2020/01/31 11:37:47.7	300.170	-0.030	-0.120	-0.010
2020/01/31 11:37:47.8	300.190	-0.040	-0.130	-0.040
2020/01/31 11:37:47.9	300.210	-0.040	-0.140	-0.070
2020/01/31 11:37:48.0	300.220	-0.040	-0.150	-0.100
2020/01/31 11:37:48.1	300.240	-0.040	-0.160	-0.130
2020/01/31 11:37:48.2	300.260	-0.040	-0.170	-0.150
2020/01/31 11:37:48.3	300.280	-0.040	-0.180	-0.170
2020/01/31 11:37:48.4	300.300	-0.040	-0.190	-0.190
2020/01/31 11:37:48.5	300.320	-0.030	-0.200	-0.200
2020/01/31 11:37:48.6	300.350	-0.030	-0.220	-0.210
2020/01/31 11:37:48.7	300.370	-0.030	-0.230	-0.220
2020/01/31 11:37:48.8	300.390	-0.020	-0.250	-0.230
2020/01/31 11:37:48.9	300.410	-0.020	-0.260	-0.230
2020/01/31 11:37:49.0	300.440	-0.020	-0.270	-0.230
2020/01/31 11:37:49.1	300.460	-0.010	-0.290	-0.230
2020/01/31 11:37:49.2	300.480	-0.010	-0.300	-0.220
2020/01/31 11:37:49.3	300.510	0.000	-0.320	-0.210
2020/01/31 11:37:49.4	300.530	0.010	-0.330	-0.200
2020/01/31 11:37:49.5	300.560	0.010	-0.340	-0.190
2020/01/31 11:37:49.6	300.590	0.020	-0.350	-0.170
2020/01/31 11:37:49.7	300.610	0.030	-0.360	-0.150
2020/01/31 11:37:49.8	300.630	0.030	-0.370	-0.130
2020/01/31 11:37:49.9	300.660	0.040	-0.380	-0.100
2020/01/31 11:37:50.0	300.680	0.040	-0.390	-0.080
2020/01/31 11:37:50.1	300.700	0.050	-0.400	-0.050
2020/01/31 11:37:50.2	300.720	0.050	-0.410	-0.020
2020/01/31 11:37:50.3	300.740	0.060	-0.410	0.010
2020/01/31 11:37:50.4	300.760	0.060	-0.420	0.050
2020/01/31 11:37:50.5	300.780	0.060	-0.420	0.090
2020/01/31 11:37:50.6	300.800	0.070	-0.420	0.130
2020/01/31 11:37:50.7	300.820	0.070	-0.420	0.170
2020/01/31 11:37:50.8	300.840	0.070	-0.420	0.210
2020/01/31 11:37:50.9	300.850	0.070	-0.420	0.250
2020/01/31 11:37:51.0	300.860	0.070	-0.420	0.290
2020/01/31 11:37:51.1	300.880	0.070	-0.420	0.340
2020/01/31 11:37:51.2	300.890	0.070	-0.410	0.390
2020/01/31 11:37:51.3	300.900	0.070	-0.410	0.430
2020/01/31 11:37:51.4	300.900	0.070	-0.400	0.480
2020/01/31 11:37:51.5	300.900	0.070	-0.390	0.530
2020/01/31 11:37:51.6	300.910	0.070	-0.390	0.580
2020/01/31 11:37:51.7	300.910	0.060	-0.380	0.630
2020/01/31 11:37:51.8	300.910	0.060	-0.370	0.680
2020/01/31 11:37:51.9	300.900	0.060	-0.360	0.730
2020/01/31 11:37:52.0	300.900	0.060	-0.350	0.780
2020/01/31 11:37:52.1	300.890	0.050	-0.350	0.840
2020/01/31 11:37:52.2	300.880	0.050	-0.340	0.890
2020/01/31 11:37:52.3	300.870	0.050	-0.330	0.930
2020/01/31 11:37:52.4	300.850	0.050	-0.320	0.980
2020/01/31 11:37:52.5	300.830	0.040	-0.310	1.030
2020/01/31 11:37:52.6	300.810	0.040	-0.310	1.080
2020/01/31 11:37:52.7	300.790	0.040	-0.300	1.120
2020/01/31 11:37:52.8	300.760	0.040	-0.290	1.170
2020/01/31 11:37:52.9	300.740	0.040	-0.290	1.210
2020/01/31 11:37:53.0	300.710	0.040	-0.290	1.250
2020/01/31 11:37:53.1	300.680	0.040	-0.280	1.280
2020/01/31 11:37:53.2	300.650	0.040	-0.280	1.320
2020/01/31 11:37:53.3	300.620	0.040	-0.280	1.350
2020/01/31 11:37:53.4	300.590	0.040	-0.280	1.380
2020/01/31 11:37:53.5	300.550	0.040	-0.280	1.400
2020/01/31 11:37:53.6	300.510	0.040	-0.280	1.420
2020/01/31 11:37:53.7	300.470	0.040	-0.280	1.440
2020/01/31 11:37:53.8	300.440	0.050	-0.280	1.460
2020/01/31 11:37:53.9	300.400	0.050	-0.290	1.470
2020/01/31 11:37:54.0	300.360	0.050	-0.290	1.480
2020/01/31 11:37:54.1	300.320	0.050	-0.300	1.480
2020/01/31 11:37:54.2	300.290	0.050	-0.310	1.480
2020/01/31 11:37:54.3	300.250	0.050	-0.310	1.470
2020/01/31 11:37:54.4	300.210	0.050	-0.320	1.460
2020/01/31 11:37:54.5	300.190	0.060	-0.330	1.450
2020/01/31 11:37:54.6	300.150	0.060	-0.340	1.430
2020/01/31 11:37:54.7	300.120	0.060	-0.350	1.410
2020/01/31 11:37:54.8	300.080	0.050	-0.350	1.380
2020/01/31 11:37:54.9	300.050	0.050	-0.360	1.350
2020/01/31 11:37:55.0	300.020	0.050	-0.370	1.320
2020/01/31 11:37:55.1	300.000	0.050	-0.380	1.290
2020/01/31 11:37:55.2	299.970	0.050	-0.380	1.250
2020/01/31 11:37:55.3	299.940	0.050	-0.390	1.210
2020/01/31 11:37:55.4	299.920	0.040	-0.400	1.170
2020/01/31 11:37:55.5	299.920	0.040	-0.400	1.120
2020/01/31 11:37:55.6	299.900	0.040	-0.400	1.080
2020/01/31 11:37:55.7	299.880	0.030	-0.410	1.030
2020/01/31 11:37:55.8	299.860	0.030	-0.410	0.980
2020/01/31 11:37:55.9	299.850	0.020	-0.410	0.930
2020/01/31 11:37:56.0	299.840	0.020	-0.410	0.880
2020/01/31 11:37:56.1	299.830	0.010	-0.410	0.830
2020/01/31 11:37:56.2	299.820	0.000	-0.400	0.780
2020/01/31 11:37:56.3	299.820	-0.000	-0.400	0.730
2020/01/31 11:37:56.4	299.810	-0.010	-0.390	0.670
2020/01/31 11:37:56.5	299.800	-0.020	-0.390	0.620
2020/01/31 11:37:56.6	299.800	-0.030	-0.380	0.570
2020/01/31 11:37:56.7	299.800	-0.040	-0.370	0.520
2020/01/31 11:37:56.8	299.800	-0.050	-0.350	0.470
2020/01/31 11:37:56.9	299.810	-0.060	-0.340	0.420
2020/01/31 11:37:57.0	299.820	-0.070	-0.330	0.380
2020/01/31 11:37:57.1	299.820	-0.080	-0.310	0.330
2020/01/31 11:37:57.2	299.830	-0.090	-0.300	0.290
2020/01/31 11:37:57.3	299.850	-0.100	-0.280	0.240
2020/01/31 11:37:57.4	299.860	-0.110	-0.260	0.200
2020/01/31 11:37:57.5	299.880	-0.120	-0.250	0.160
2020/01/31 11:37:57.6	299.900	-0.130	-0.230	0.110
2020/01/31 11:37:57.7	299.920	-0.140	-0.210	0.070
2020/01/31 11:37:57.8	299.940	-0.150	-0.190	0.030
2020/01/31 11:37:57.9	299.960	-0.160	-0.180	-0.000
2020/01/31 11:37:58.0	299.980	-0.170	-0.160	-0.040
2020/01/31 11:37:58.1	300.010	-0.180	-0.140	-0.080
2020/01/31 11:37:58.2	300.040	-0.190	-0.120	-0.110
2020/01/31 11:37:58.3	300.070	-0.200	-0.110	-0.140
2020/01/31 11:37:58.4	300.100	-0.210	-0.090	-0.170
2020/01/31 11:37:58.5	300.120	-0.220	-0.080	-0.200
2020/01/31 11:37:58.6	300.150	-0.230	-0.060	-0.230
2020/01/31 11:37:58.7	300.180	-0.230	-0.050	-0.250
2020/01/31 11:37:58.8	300.220	-0.240	-0.030	-0.270
2020/01/31 11:37:58.9	300.250	-0.240	-0.020	-0.290
2020/01/31 11:37:59.0	300.280	-0.250	-0.000	-0.310
2020/01/31 11:37:59.1	300.310	-0.250	0.020	-0.320
2020/01/31 11:37:59.2	300.350	-0.260	0.030	-0.330
2020/01/31 11:37:59.3	300.380	-0.260	0.050	-0.330
2020/01/31 11:37:59.4	300.410	-0.260	0.060	-0.340
2020/01/31 11:37:59.5	300.450	-0.260	0.080	-0.340
2020/01/31 11:37:59.6	300.480	-0.260	0.100	-0.330
2020/01/31 11:37:59.7	300.510	-0.260	0.110	-0.330
2020/01/31 11:37:59.8	300.540	-0.250	0.130	-0.320
2020/01/31 11:37:59.9	300.570	-0.250	0.140	-0.300
2020/01/31 11:38:00.0	300.600	-0.250	0.150	-0.290
2020/01/31 11:38:00.1	300.630	-0.240	0.170	-0.270
2020/01/31 11:38:00.2	300.650	-0.230	0.180	-0.250
2020/01/31 11:38:00.3	300.680	-0.230	0.190	-0.230
2020/01/31 11:38:00.4	300.710	-0.220	0.190	-0.200
2020/01/31 11:38:00.5	300.730	-0.210	0.200	-0.170
2020/01/31 11:38:00.6	300.750	-0.200	0.210	-0.140
2020/01/31 11:38:00.7	300.780	-0.180	0.210	-0.110
2020/01/31 11:38:00.8	300.800	-0.170	0.210	-0.080
2020/01/31 11:38:00.9	300.820	-0.150	0.210	-0.040
2020/01/31 11:38:01.0	300.840	-0.140	0.210	-0.010
2020/01/31 11:38:01.1	300.860	-0.120	0.200	0.030
2020/01/31 11:38:01.2	300.870	-0.100	0.190	0.080
2020/01/31 11:38:01.3	300.890	-0.080	0.180	0.120
2020/01/31 11:38:01.4	300.900	-0.060	0.170	0.160
2020/01/31 11:38:01.5	300.920	-0.040	0.150	0.210
2020/01/31 11:38:01.6	300.930	-0.010	0.140	0.250
2020/01/31 11:38:01.7	300.930	0.010	0.120	0.300
2020/01/31 11:38:01.8	300.940	0.030	0.100	0.350
2020/01/31 11:38:01.9	300.940	0.060	0.070	0.400
2020/01/31 11:38:02.0	300.940	0.090	0.050	0.450
2020/01/31 11:38:02.1	300.940	0.110	0.020	0.500
2020/01/31 11:38:02.2	300.940	0.140	-0.010	0.550
2020/01/31 11:38:02.3	300.930	0.170	-0.040	0.600
2020/01/31 11:38:02.4	300.920	0.190	-0.070	0.650
2020/01/31 11:38:02.5	300.900	0.220	-0.110	0.700
2020/01/31 11:38:02.6	300.890	0.250	-0.140	0.740
2020/01/31 11:38:02.7	300.880	0.280	-0.180	0.790
2020/01/31 11:38:02.8	300.860	0.310	-0.220	0.840
2020/01/31 11:38:02.9	300.840	0.330	-0.260	0.890
2020/01/31 11:38:03.0	300.820	0.360	-0.300	0.930
2020/01/31 11:38:03.1	300.810	0.390	-0.340	0.980
2020/01/31 11:38:03.2	300.780	0.410	-0.390	1.020
2020/01/31 11:38:03.3	300.760	0.440	-0.430	1.060
2020/01/31 11:38:03.4	300.740	0.460	-0.470	1.100
2020/01/31 11:38:03.5	300.700	0.480	-0.510	1.130
2020/01/31 11:38:03.6	300.680	0.500	-0.550	1.170
2020/01/31 11:38:03.7	300.650	0.520	-0.590	1.200
2020/01/31 11:38:03.8	300.620	0.540	-0.630	1.230
2020/01/31 11:38:03.9	300.590	0.550	-0.660	1.250
2020/01/31 11:38:04.0	300.570	0.570	-0.700	1.270
2020/01/31 11:38:04.1	300.540	0.580	-0.730	1.290
2020/01/31 11:38:04.2	300.510	0.590	-0.760	1.310
2020/01/31 11:38:04.3	300.480	0.600	-0.790	1.320
2020/01/31 11:38:04.4	300.450	0.610	-0.810	1.330
2020/01/31 11:38:04.5	300.430	0.610	-0.840	1.340
2020/01/31 11:38:04.6	300.400	0.620	-0.860	1.340
2020/01/31 11:38:04.7	300.370	0.620	-0.880	1.340
2020/01/31 11:38:04.8	300.350	0.610	-0.890	1.330
2020/01/31 11:38:04.9	300.320	0.610	-0.900	1.320
2020/01/31 11:38:05.0	300.290	0.600	-0.910	1.310
2020/01/31 11:38:05.1	300.270	0.590	-0.910	1.300
2020/01/31 11:38:05.2	300.240	0.580	-0.920	1.280
2020/01/31 11:38:05.3	300.220	0.570	-0.920	1.260
2020/01/31 11:38:05.4	300.200	0.550	-0.910	1.230
2020/01/31 11:38:05.5	300.180	0.530	-0.910	1.210
2020/01/31 11:38:05.6	300.160	0.510	-0.900	1.180
2020/01/31 11:38:05.7	300.140	0.490	-0.890	1.150
2020/01/31 11:38:05.8	300.120	0.460	-0.870	1.120
2020/01/31 11:38:05.9	300.100	0.440	-0.850	1.080
2020/01/31 11:38:06.0	300.080	0.410	-0.830	1.040
2020/01/31 11:38:06.1	300.070	0.380	-0.810	1.010
2020/01/31 11:38:06.2	300.050	0.340	-0.780	0.970
2020/01/31 11:38:06.3	300.040	0.310	-0.750	0.920
2020/01/31 11:38:06.4	300.030	0.270	-0.720	0.880
2020/01/31 11:38:06.5	300.020	0.230	-0.680	0.840
2020/01/31 11:38:06.6	300.010	0.190	-0.650	0.790
2020/01/31 11:38:06.7	300.000	0.150	-0.610	0.750
2020/01/31 11:38:06.8	299.990	0.110	-0.580	0.700
2020/01/31 11:38:06.9	299.990	0.070	-0.540	0.650
2020/01/31 11:38:07.0	299.990	0.030	-0.500	0.600
2020/01/31 11:38:07.1	299.980	-0.020	-0.460	0.560
2020/01/31 11:38:07.2	299.980	-0.060	-0.420	0.510
2020/01/31 11:38:07.3	299.980	-0.110	-0.390	0.460
2020/01/31 11:38:07.4	299.980	-0.150	-0.350	0.410
2020/01/31 11:38:07.5	299.990	-0.190	-0.310	0.370
2020/01/31 11:38:07.6	299.990	-0.240	-0.270	0.320
2020/01/31 11:38:07.7	300.000	-0.280	-0.240	0.280
2020/01/31 11:38:07.8	300.000	-0.320	-0.200	0.230
2020/01/31 11:38:07.9	300.000	-0.370	-0.160	0.190
2020/01/31 11:38:08.0	300.010	-0.410	-0.130	0.140
2020/01/31 11:38:08.1	300.020	-0.450	-0.090	0.100
2020/01/31 11:38:08.2	300.030	-0.480	-0.060	0.060
2020/01/31 11:38:08.3	300.030	-0.520	-0.030	0.020
2020/01/31 11:38:08.4	300.040	-0.550	0.010	-0.020
2020/01/31 11:38:08.5	300.070	-0.590	0.040	-0.070
2020/01/31 11:38:08.6	300.080	-0.620	0.070	-0.100
2020/01/31 11:38:08.7	300.090	-0.650	0.100	-0.140
2020/01/31 11:38:08.8	300.110	-0.680	0.130	-0.180
2020/01/31 11:38:08.9	300.120	-0.700	0.150	-0.210
2020/01/31 11:38:09.0	300.130	-0.730	0.180	-0.250
2020/01/31 11:38:09.1	300.150	-0.750	0.200	-0.280
2020/01/31 11:38:09.2	300.160	-0.770	0.230	-0.310
2020/01/31 11:38:09.3	300.180	-0.790	0.250	-0.340
2020/01/31 11:38:09.4	300.190	-0.800	0.270	-0.360
2020/01/31 11:38:09.5	300.200	-0.820	0.290	-0.380
2020/01/31 11:38:09.6	300.210	-0.830	0.310	-0.400
2020/01/31 11:38:09.7	300.230	-0.840	0.330	-0.420
2020/01/31 11:38:09.8	300.240	-0.840	0.340	-0.430
2020/01/31 11:38:09.9	300.250	-0.850	0.360	-0.450
2020/01/31 11:38:10.0	300.270	-0.850	0.380	-0.450
2020/01/31 11:38:10.1	300.280	-0.850	0.390	-0.460
2020/01/31 11:38:10.2	300.290	-0.850	0.400	-0.460
2020/01/31 11:38:10.3	300.300	-0.850	0.410	-0.460
2020/01/31 11:38:10.4	300.320	-0.840	0.420	-0.450
2020/01/31 11:38:10.5	300.330	-0.830	0.430	-0.440
2020/01/31 11:38:10.6	300.340	-0.820	0.430	-0.430
2020/01/31 11:38:10.7	300.350	-0.810	0.430	-0.420
2020/01/31 11:38:10.8	300.360	-0.800	0.430	-0.400
2020/01/31 11:38:10.9	300.360	-0.780	0.420	-0.380
2020/01/31 11:38:11.0	300.370	-0.760	0.410	-0.360
2020/01/31 11:38:11.1	300.380	-0.740	0.400	-0.330
2020/01/31 11:38:11.2	300.390	-0.710	0.380	-0.310
2020/01/31 11:38:11.3	300.400	-0.690	0.370	-0.280
2020/01/31 11:38:11.4	300.400	-0.660	0.340	-0.250
2020/01/31 11:38:11.5	300.410	-0.630	0.320	-0.210
2020/01/31 11:38:11.6	300.420	-0.590	0.290	-0.180
2020/01/31 11:38:11.7	300.420	-0.560	0.260	-0.150
2020/01/31 11:38:11.8	300.430	-0.520	0.220	-0.110
2020/01/31 11:38:11.9	300.440	-0.480	0.180	-0.080
2020/01/31 11:38:12.0	300.450	-0.440	0.140	-0.040
2020/01/31 11:38:12.1	300.450	-0.400	0.090	-0.000
2020/01/31 11:38:12.2	300.460	-0.350	0.040	0.040
2020/01/31 11:38:12.3	300.470	-0.310	-0.010	0.080
2020/01/31 11:38:12.4	300.480	-0.260	-0.060	0.120
2020/01/31 11:38:12.5	300.480	-0.210	-0.120	0.150
2020/01/31 11:38:12.6	300.490	-0.160	-0.180	0.190
2020/01/31 11:38:12.7	300.500	-0.110	-0.230	0.240
2020/01/31 11:38:12.8	300.510	-0.060	-0.290	0.280
2020/01/31 11:38:12.9	300.520	-0.010	-0.350	0.320
2020/01/31 11:38:13.0	300.530	0.040	-0.400	0.360
2020/01/31 11:38:13.1	300.540	0.090	-0.460	0.400
2020/01/31 11:38:13.2	300.550	0.140	-0.510	0.440
2020/01/31 11:38:13.3	300.560	0.190	-0.570	0.470
2020/01/31 11:38:13.4	300.570	0.240	-0.620	0.510
2020/01/31 11:38:13.5	300.580	0.280	-0.670	0.550
2020/01/31 11:38:13.6	300.590	0.330	-0.710	0.590
2020/01/31 11:38:13.7	300.600	0.370	-0.750	0.630
2020/01/31 11:38:13.8	300.610	0.420	-0.790	0.660
2020/01/31 11:38:13.9	300.630	0.460	-0.830	0.700
2020/01/31 11:38:14.0	300.640	0.500	-0.860	0.740
2020/01/31 11:38:14.1	300.650	0.530	-0.890	0.780
2020/01/31 11:38:14.2	300.660	0.570	-0.910	0.810
2020/01/31 11:38:14.3	300.660	0.600	-0.930	0.850
2020/01/31 11:38:14.4	300.670	0.630	-0.940	0.880
2020/01/31 11:38:14.5	300.680	0.660	-0.950	0.920
2020/01/31 11:38:14.6	300.690	0.680	-0.950	0.950
2020/01/31 11:38:14.7	300.690	0.700	-0.940	0.990
2020/01/31 11:38:14.8	300.700	0.720	-0.940	1.020
2020/01/31 11:38:14.9	300.700	0.730	-0.920	1.050
2020/01/31 11:38:15.0	300.700	0.750	-0.900	1.080
2020/01/31 11:38:15.1	300.690	0.750	-0.880	1.110
2020/01/31 11:38:15.2	300.690	0.760	-0.850	1.140
2020/01/31 11:38:15.3	300.690	0.760	-0.820	1.160
2020/01/31 11:38:15.4	300.680	0.760	-0.780	1.190
2020/01/31 11:38:15.5	300.670	0.760	-0.740	1.210
2020/01/31 11:38:15.6	300.660	0.750	-0.700	1.230
2020/01/31 11:38:15.7	300.650	0.740	-0.660	1.250
2020/01/31 11:38:15.8	300.640	0.730	-0.610	1.260
2020/01/31 11:38:15.9	300.620	0.710	-0.570	1.280
2020/01/31 11:38:16.0	300.610	0.700	-0.520	1.290
2020/01/31 11:38:16.1	300.590	0.680	-0.470	1.300
2020/01/31 11:38:16.2	300.570	0.660	-0.420	1.310
2020/01/31 11:38:16.3	300.550	0.640	-0.370	1.310
2020/01/31 11:38:16.4	300.530	0.620	-0.330	1.310
2020/01/31 11:38:16.5	300.510	0.590	-0.280	1.310
2020/01/31 11:38:16.6	300.490	0.570	-0.240	1.310
2020/01/31 11:38:16.7	300.460	0.540	-0.200	1.300
2020/01/31 11:38:16.8	300.440	0.510	-0.160	1.300
2020/01/31 11:38:16.9	300.420	0.490	-0.120	1.280
2020/01/31 11:38:17.0	300.400	0.460	-0.090	1.270
2020/01/31 11:38:17.1	300.370	0.430	-0.060	1.250
2020/01/31 11:38:17.2	300.350	0.410	-0.040	1.240
2020/01/31 11:38:17.3	300.330	0.380	-0.010	1.210
2020/01/31 11:38:17.4	300.310	0.350	0.000	1.190
2020/01/31 11:38:17.5	300.300	0.330	0.010	1.170
2020/01/31 11:38:17.6	300.280	0.300	0.020	1.140
2020/01/31 11:38:17.7	300.260	0.280	0.030	1.110
2020/01/31 11:38:17.8	300.240	0.260	0.030	1.080
2020/01/31 11:38:17.9	300.230	0.240	0.030	1.050
2020/01/31 11:38:18.0	300.210	0.220	0.030	1.010
2020/01/31 11:38:18.1	300.200	0.200	0.020	0.980
2020/01/31 11:38:18.2	300.190	0.190	0.010	0.940
2020/01/31 11:38:18.3	300.180	0.170	-0.010	0.900
2020/01/31 11:38:18.4	300.170	0.160	-0.020	0.860
2020/01/31 11:38:18.5	300.170	0.140	-0.040	0.810
2020/01/31 11:38:18.6	300.160	0.130	-0.060	0.770
2020/01/31 11:38:18.7	300.160	0.120	-0.080	0.720
2020/01/31 11:38:18.8	300.150	0.110	-0.100	0.670
2020/01/31 11:38:18.9	300.150	0.110	-0.130	0.630
2020/01/31 11:38:19.0	300.150	0.100	-0.150	0.580
2020/01/31 11:38:19.1	300.150	0.090	-0.170	0.530
2020/01/31 11:38:19.2	300.160	0.090	-0.190	0.480
2020/01/31 11:38:19.3	300.160	0.080	-0.210	0.430
2020/01/31 11:38:19.4	300.170	0.080	-0.230	0.380
2020/01/31 11:38:19.5	300.180	0.070	-0.240	0.320
2020/01/31 11:38:19.6	300.190	0.070	-0.260	0.270
2020/01/31 11:38:19.7	300.200	0.060	-0.270	0.220
2020/01/31 11:38:19.8	300.210	0.060	-0.280	0.170
2020/01/31 11:38:19.9	300.220	0.060	-0.280	0.120
2020/01/31 11:38:20.0	300.230	0.050	-0.290	0.070
2020/01/31 11:38:20.1	300.240	0.040	-0.290	0.020
2020/01/31 11:38:20.2	300.250	0.040	-0.290	-0.020
2020/01/31 11:38:20.3	300.260	0.030	-0.290	-0.070
2020/01/31 11:38:20.4	300.280	0.020	-0.290	-0.110
2020/01/31 11:38:20.5	300.300	0.010	-0.280	-0.150
2020/01/31 11:38:20.6	300.310	-0.000	-0.270	-0.190
2020/01/31 11:38:20.7	300.330	-0.020	-0.260	-0.230
2020/01/31 11:38:20.8	300.350	-0.030	-0.250	-0.260
2020/01/31 11:38:20.9	300.360	-0.050	-0.240	-0.300
2020/01/31 11:38:21.0	300.380	-0.060	-0.230	-0.330
2020/01/31 11:38:21.1	300.400	-0.080	-0.210	-0.360
2020/01/31 11:38:21.2	300.420	-0.100	-0.200	-0.380
2020/01/31 11:38:21.3	300.430	-0.120	-0.180	-0.410
2020/01/31 11:38:21.4	300.450	-0.150	-0.170	-0.430
2020/01/31 11:38:21.5	300.470	-0.170	-0.150	-0.450
2020/01/31 11:38:21.6	300.490	-0.200	-0.140	-0.460
2020/01/31 11:38:21.7	300.510	-0.220	-0.120	-0.470
2020/01/31 11:38:21.8	300.520	-0.250	-0.100	-0.480
2020/01/31 11:38:21.9	300.540	-0.280	-0.090	-0.480
2020/01/31 11:38:22.0	300.560	-0.300	-0.070	-0.480
2020/01/31 11:38:22.1	300.570	-0.330	-0.060	-0.480
2020/01/31 11:38:22.2	300.580	-0.360	-0.050	-0.470
2020/01/31 11:38:22.3	300.600	-0.390	-0.030	-0.460
2020/01/31 11:38:22.4	300.610	-0.410	-0.020	-0.440
2020/01/31 11:38:22.5	300.620	-0.440	-0.010	-0.420
2020/01/31 11:38:22.6	300.630	-0.460	0.000	-0.400
2020/01/31 11:38:22.7	300.640	-0.490	0.010	-0.380
2020/01/31 11:38:22.8	300.650	-0.510	0.020	-0.350
2020/01/31 11:38:22.9	300.660	-0.530	0.030	-0.320
2020/01/31 11:38:23.0	300.660	-0.550	0.030	-0.290
2020/01/31 11:38:23.1	300.670	-0.570	0.040	-0.250
2020/01/31 11:38:23.2	300.680	-0.580	0.040	-0.220
2020/01/31 11:38:23.3	300.680	-0.600	0.040	-0.180
2020/01/31 11:38:23.4	300.680	-0.610	0.040	-0.140
2020/01/31 11:38:23.5	300.670	-0.610	0.040	-0.100
2020/01/31 11:38:23.6	300.670	-0.620	0.040	-0.070
2020/01/31 11:38:23.7	300.670	-0.620	0.030	-0.030
2020/01/31 11:38:23.8	300.670	-0.620	0.030	0.010
2020/01/31 11:38:23.9	300.670	-0.620	0.020	0.050
2020/01/31 11:38:24.0	300.660	-0.610	0.010	0.090
2020/01/31 11:38:24.1	300.660	-0.610	0.000	0.130
2020/01/31 11:38:24.2	300.650	-0.590	-0.010	0.170
2020/01/31 11:38:24.3	300.640	-0.580	-0.020	0.210
2020/01/31 11:38:24.4	300.640	-0.570	-0.040	0.250
2020/01/31 11:38:24.5	300.620	-0.550	-0.050	0.290
2020/01/31 11:38:24.6	300.610	-0.530	-0.070	0.330
2020/01/31 11:38:24.7	300.600	-0.500	-0.090	0.370
2020/01/31 11:38:24.8	300.590	-0.480	-0.110	0.410
2020/01/31 11:38:24.9	300.580	-0.450	-0.130	0.440
2020/01/31 11:38:25.0	300.570	-0.430	-0.150	0.480
2020/01/31 11:38:25.1	300.560	-0.400	-0.180	0.510
2020/01/31 11:38:25.2	300.550	-0.370	-0.200	0.550
2020/01/31 11:38:25.3	300.540	-0.340	-0.220	0.580
2020/01/31 11:38:25.4	300.530	-0.300	-0.250	0.610
2020/01/31 11:38:25.5	300.490	-0.270	-0.280	0.640
2020/01/31 11:38:25.6	300.480	-0.240	-0.300	0.670
2020/01/31 11:38:25.7	300.470	-0.200	-0.330	0.700
2020/01/31 11:38:25.8	300.460	-0.170	-0.360	0.730
2020/01/31 11:38:25.9	300.450	-0.140	-0.390	0.750
2020/01/31 11:38:26.0	300.450	-0.110	-0.410	0.780
2020/01/31 11:38:26.1	300.440	-0.080	-0.440	0.800
2020/01/31 11:38:26.2	300.430	-0.050	-0.470	0.810
2020/01/31 11:38:26.3	300.430	-0.020	-0.500	0.830
2020/01/31 11:38:26.4	300.420	0.010	-0.520	0.840
2020/01/31 11:38:26.5	300.400	0.040	-0.550	0.850
2020/01/31 11:38:26.6	300.400	0.060	-0.570	0.860
2020/01/31 11:38:26.7	300.400	0.090	-0.590	0.870
2020/01/31 11:38:26.8	300.390	0.110	-0.620	0.870
2020/01/31 11:38:26.9	300.390	0.130	-0.640	0.870
2020/01/31 11:38:27.0	300.390	0.150	-0.660	0.860
2020/01/31 11:38:27.1	300.400	0.160	-0.670	0.860
2020/01/31 11:38:27.2	300.400	0.180	-0.690	0.850
2020/01/31 11:38:27.3	300.400	0.190	-0.700	0.840
2020/01/31 11:38:27.4	300.400	0.200	-0.720	0.820
2020/01/31 11:38:27.5	300.390	0.210	-0.720	0.810
2020/01/31 11:38:27.6	300.400	0.220	-0.730	0.800
2020/01/31 11:38:27.7	300.400	0.230	-0.730	0.780
2020/01/31 11:38:27.8	300.410	0.230	-0.740	0.760
2020/01/31 11:38:27.9	300.410	0.240	-0.740	0.740
2020/01/31 11:38:28.0	300.420	0.240	-0.730	0.720
2020/01/31 11:38:28.1	300.430	0.240	-0.730	0.710
2020/01/31 11:38:28.2	300.430	0.240	-0.720	0.680
2020/01/31 11:38:28.3	300.440	0.240	-0.710	0.670
2020/01/31 11:38:28.4	300.450	0.240	-0.700	0.640
2020/01/31 11:38:28.5	300.450	0.230	-0.680	0.630
2020/01/31 11:38:28.6	300.460	0.230	-0.670	0.610
2020/01/31 11:38:28.7	300.470	0.230	-0.650	0.590
2020/01/31 11:38:28.8	300.470	0.220	-0.630	0.570
2020/01/31 11:38:28.9	300.480	0.220	-0.600	0.550
2020/01/31 11:38:29.0	300.490	0.210	-0.580	0.540
2020/01/31 11:38:29.1	300.500	0.210	-0.550	0.520
2020/01/31 11:38:29.2	300.510	0.200	-0.530	0.510
2020/01/31 11:38:29.3	300.510	0.190	-0.500	0.490
2020/01/31 11:38:29.4	300.520	0.190	-0.470	0.480
2020/01/31 11:38:29.5	300.530	0.180	-0.440	0.470
2020/01/31 11:38:29.6	300.540	0.180	-0.410	0.460
2020/01/31 11:38:29.7	300.540	0.170	-0.380	0.460
2020/01/31 11:38:29.8	300.540	0.170	-0.340	0.450
2020/01/31 11:38:29.9	300.550	0.170	-0.310	0.450
2020/01/31 11:38:30.0	300.550	0.160	-0.280	0.440
2020/01/31 11:38:30.1	300.550	0.160	-0.240	0.440
2020/01/31 11:38:30.2	300.550	0.160	-0.210	0.440
2020/01/31 11:38:30.3	300.550	0.160	-0.180	0.450
2020/01/31 11:38:30.4	300.550	0.160	-0.140	0.450
2020/01/31 11:38:30.5	300.540	0.160	-0.110	0.460
2020/01/31 11:38:30.6	300.540	0.160	-0.080	0.470
2020/01/31 11:38:30.7	300.540	0.160	-0.040	0.480
2020/01/31 11:38:30.8	300.540	0.170	-0.010	0.490
2020/01/31 11:38:30.9	300.530	0.170	0.020	0.500
2020/01/31 11:38:31.0	300.530	0.170	0.050	0.510
2020/01/31 11:38:31.1	300.530	0.180	0.080	0.520
2020/01/31 11:38:31.2	300.530	0.180	0.100	0.540
2020/01/31 11:38:31.3	300.520	0.190	0.130	0.560
2020/01/31 11:38:31.4	300.520	0.200	0.160	0.570
2020/01/31 11:38:31.5	300.520	0.200	0.180	0.590
2020/01/31 11:38:31.6	300.510	0.210	0.200	0.610
2020/01/31 11:38:31.7	300.510	0.220	0.220	0.630
2020/01/31 11:38:31.8	300.510	0.220	0.240	0.650
2020/01/31 11:38:31.9	300.510	0.230	0.260	0.670
2020/01/31 11:38:32.0	300.510	0.240	0.270	0.680
2020/01/31 11:38:32.1	300.500	0.240	0.280	0.700
2020/01/31 11:38:32.2	300.500	0.250	0.290	0.720
2020/01/31 11:38:32.3	300.500	0.250	0.300	0.730
2020/01/31 11:38:32.4	300.500	0.260	0.300	0.750
2020/01/31 11:38:32.5	300.510	0.260	0.310	0.760
2020/01/31 11:38:32.6	300.510	0.260	0.310	0.770
2020/01/31 11:38:32.7	300.510	0.270	0.310	0.780
2020/01/31 11:38:32.8	300.510	0.270	0.300	0.790
2020/01/31 11:38:32.9	300.510	0.270	0.300	0.800
2020/01/31 11:38:33.0	300.510	0.270	0.290	0.800
2020/01/31 11:38:33.1	300.510	0.270	0.280	0.800
2020/01/31 11:38:33.2	300.510	0.270	0.270	0.810
2020/01/31 11:38:33.3	300.510	0.260	0.250	0.800
2020/01/31 11:38:33.4	300.510	0.260	0.240	0.800
2020/01/31 11:38:33.5	300.510	0.250	0.220	0.800
2020/01/31 11:38:33.6	300.520	0.250	0.200	0.790
2020/01/31 11:38:33.7	300.520	0.240	0.180	0.790
2020/01/31 11:38:33.8	300.520	0.230	0.160	0.780
2020/01/31 11:38:33.9	300.520	0.220	0.130	0.760
2020/01/31 11:38:34.0	300.530	0.210	0.110	0.750
2020/01/31 11:38:34.1	300.530	0.200	0.080	0.730
2020/01/31 11:38:34.2	300.530	0.190	0.050	0.710
2020/01/31 11:38:34.3	300.540	0.180	0.020	0.690
2020/01/31 11:38:34.4	300.550	0.160	-0.010	0.670
2020/01/31 11:38:34.5	300.550	0.150	-0.050	0.640
2020/01/31 11:38:34.6	300.560	0.140	-0.080	0.610
2020/01/31 11:38:34.7	300.570	0.120	-0.120	0.580
2020/01/31 11:38:34.8	300.580	0.110	-0.150	0.540
2020/01/31 11:38:34.9	300.590	0.090	-0.190	0.510
2020/01/31 11:38:35.0	300.600	0.080	-0.220	0.470
2020/01/31 11:38:35.1	300.610	0.060	-0.250	0.430
2020/01/31 11:38:35.2	300.630	0.050	-0.290	0.390
2020/01/31 11:38:35.3	300.640	0.030	-0.320	0.350
2020/01/31 11:38:35.4	300.660	0.020	-0.360	0.310
2020/01/31 11:38:35.5	300.680	0.010	-0.390	0.270
2020/01/31 11:38:35.6	300.700	-0.010	-0.420	0.230
2020/01/31 11:38:35.7	300.720	-0.020	-0.450	0.190
2020/01/31 11:38:35.8	300.740	-0.030	-0.480	0.150
2020/01/31 11:38:35.9	300.750	-0.040	-0.510	0.110
2020/01/31 11:38:36.0	300.770	-0.050	-0.530	0.080
2020/01/31 11:38:36.1	300.790	-0.060	-0.560	0.040
2020/01/31 11:38:36.2	300.810	-0.070	-0.580	0.010
2020/01/31 11:38:36.3	300.830	-0.070	-0.600	-0.020
2020/01/31 11:38:36.4	300.850	-0.080	-0.620	-0.050
2020/01/31 11:38:36.5	300.870	-0.090	-0.630	-0.080
2020/01/31 11:38:36.6	300.880	-0.090	-0.640	-0.110
2020/01/31 11:38:36.7	300.900	-0.100	-0.660	-0.130
2020/01/31 11:38:36.8	300.920	-0.100	-0.660	-0.150
2020/01/31 11:38:36.9	300.930	-0.100	-0.670	-0.170
2020/01/31 11:38:37.0	300.940	-0.110	-0.680	-0.180
2020/01/31 11:38:37.1	300.960	-0.110	-0.680	-0.200
2020/01/31 11:38:37.2	300.970	-0.110	-0.680	-0.210
2020/01/31 11:38:37.3	300.980	-0.110	-0.680	-0.220
2020/01/31 11:38:37.4	300.990	-0.110	-0.680	-0.230
2020/01/31 11:38:37.5	301.000	-0.110	-0.670	-0.230
2020/01/31 11:38:37.6	301.010	-0.120	-0.670	-0.240
2020/01/31 11:38:37.7	301.010	-0.120	-0.660	-0.240
2020/01/31 11:38:37.8	301.020	-0.120	-0.650	-0.240
2020/01/31 11:38:37.9	301.020	-0.120	-0.640	-0.230
2020/01/31 11:38:38.0	301.030	-0.120	-0.630	-0.230
2020/01/31 11:38:38.1	301.030	-0.120	-0.610	-0.220
2020/01/31 11:38:38.2	301.020	-0.130	-0.590	-0.210
2020/01/31 11:38:38.3	301.020	-0.130	-0.580	-0.190
2020/01/31 11:38:38.4	301.020	-0.130	-0.560	-0.180
2020/01/31 11:38:38.5	301.010	-0.140	-0.540	-0.160
2020/01/31 11:38:38.6	301.010	-0.140	-0.520	-0.140
2020/01/31 11:38:38.7	301.000	-0.150	-0.490	-0.110
2020/01/31 11:38:38.8	300.980	-0.150	-0.470	-0.090
2020/01/31 11:38:38.9	300.970	-0.160	-0.450	-0.060
2020/01/31 11:38:39.0	300.960	-0.160	-0.430	-0.030
2020/01/31 11:38:39.1	300.940	-0.170	-0.410	0.000
2020/01/31 11:38:39.2	300.930	-0.170	-0.390	0.030
2020/01/31 11:38:39.3	300.910	-0.180	-0.370	0.070
2020/01/31 11:38:39.4	300.900	-0.180	-0.350	0.100
2020/01/31 11:38:39.5	300.890	-0.190	-0.330	0.140
2020/01/31 11:38:39.6	300.870	-0.190	-0.310	0.170
2020/01/31 11:38:39.7	300.860	-0.200	-0.300	0.200
2020/01/31 11:38:39.8	300.840	-0.200	-0.280	0.240
2020/01/31 11:38:39.9	300.830	-0.210	-0.270	0.270
2020/01/31 11:38:40.0	300.820	-0.210	-0.260	0.300
2020/01/31 11:38:40.1	300.800	-0.210	-0.250	0.340
2020/01/31 11:38:40.2	300.790	-0.210	-0.250	0.370
2020/01/31 11:38:40.3	300.780	-0.210	-0.250	0.400
2020/01/31 11:38:40.4	300.770	-0.210	-0.250	0.430
2020/01/31 11:38:40.5	300.770	-0.210	-0.250	0.450
2020/01/31 11:38:40.6	300.760	-0.210	-0.250	0.480
2020/01/31 11:38:40.7	300.760	-0.210	-0.260	0.500
2020/01/31 11:38:40.8	300.750	-0.210	-0.270	0.530
2020/01/31 11:38:40.9	300.750	-0.200	-0.270	0.550
2020/01/31 11:38:41.0	300.740	-0.200	-0.280	0.570
2020/01/31 11:38:41.1	300.740	-0.190	-0.290	0.600
2020/01/31 11:38:41.2	300.740	-0.190	-0.310	0.610
2020/01/31 11:38:41.3	300.740	-0.180	-0.320	0.630
2020/01/31 11:38:41.4	300.740	-0.170	-0.330	0.650
2020/01/31 11:38:41.5	300.740	-0.160	-0.340	0.670
2020/01/31 11:38:41.6	300.740	-0.150	-0.350	0.680
2020/01/31 11:38:41.7	300.740	-0.140	-0.360	0.700
2020/01/31 11:38:41.8	300.740	-0.130	-0.370	0.710
2020/01/31 11:38:41.9	300.750	-0.120	-0.370	0.720
2020/01/31 11:38:42.0	300.750	-0.110	-0.380	0.730
2020/01/31 11:38:42.1	300.760	-0.100	-0.380	0.740
2020/01/31 11:38:42.2	300.770	-0.090	-0.380	0.740
2020/01/31 11:38:42.3	300.780	-0.080	-0.380	0.750
2020/01/31 11:38:42.4	300.790	-0.060	-0.380	0.750
2020/01/31 11:38:42.5	300.790	-0.050	-0.370	0.760
2020/01/31 11:38:42.6	300.800	-0.040	-0.360	0.760
2020/01/31 11:38:42.7	300.810	-0.030	-0.350	0.770
2020/01/31 11:38:42.8	300.820	-0.020	-0.330	0.770
2020/01/31 11:38:42.9	300.830	-0.010	-0.310	0.770
2020/01/31 11:38:43.0	300.840	0.000	-0.290	0.770
2020/01/31 11:38:43.1	300.850	0.010	-0.260	0.770
2020/01/31 11:38:43.2	300.860	0.020	-0.240	0.770
2020/01/31 11:38:43.3	300.870	0.020	-0.210	0.780
2020/01/31 11:38:43.4	300.870	0.030	-0.170	0.780
2020/01/31 11:38:43.5	300.900	0.030	-0.140	0.780
2020/01/31 11:38:43.6	300.910	0.040	-0.110	0.780
2020/01/31 11:38:43.7	300.910	0.040	-0.070	0.780
2020/01/31 11:38:43.8	300.920	0.040	-0.040	0.780
2020/01/31 11:38:43.9	300.920	0.040	-0.000	0.780
2020/01/31 11:38:44.0	300.920	0.040	0.040	0.780
2020/01/31 11:38:44.1	300.920	0.030	0.070	0.780
2020/01/31 11:38:44.2	300.920	0.030	0.110	0.770
2020/01/31 11:38:44.3	300.920	0.030	0.140	0.770
2020/01/31 11:38:44.4	300.920	0.020	0.180	0.770
2020/01/31 11:38:44.5	300.910	0.010	0.200	0.770
2020/01/31 11:38:44.6	300.900	0.010	0.230	0.760
2020/01/31 11:38:44.7	300.900	-0.000	0.260	0.750
2020/01/31 11:38:44.8	300.890	-0.010	0.290	0.750
2020/01/31 11:38:44.9	300.880	-0.020	0.310	0.740
2020/01/31 11:38:45.0	300.880	-0.030	0.330	0.730
2020/01/31 11:38:45.1	300.870	-0.040	0.350	0.720
2020/01/31 11:38:45.2	300.860	-0.040	0.360	0.710
2020/01/31 11:38:45.3	300.850	-0.050	0.370	0.700
2020/01/31 11:38:45.4	300.830	-0.060	0.380	0.690
2020/01/31 11:38:45.5	300.820	-0.070	0.380	0.670
2020/01/31 11:38:45.6	300.810	-0.070	0.380	0.650
2020/01/31 11:38:45.7	300.790	-0.080	0.380	0.640
2020/01/31 11:38:45.8	300.780	-0.090	0.370	0.620
2020/01/31 11:38:45.9	300.770	-0.090	0.360	0.600
2020/01/31 11:38:46.0	300.750	-0.100	0.340	0.580
2020/01/31 11:38:46.1	300.740	-0.100	0.320	0.570
2020/01/31 11:38:46.2	300.730	-0.100	0.300	0.550
2020/01/31 11:38:46.3	300.720	-0.100	0.280	0.520
2020/01/31 11:38:46.4	300.700	-0.110	0.250	0.500
2020/01/31 11:38:46.5	300.700	-0.110	0.220	0.490
2020/01/31 11:38:46.6	300.690	-0.110	0.190	0.460
2020/01/31 11:38:46.7	300.690	-0.110	0.160	0.440
2020/01/31 11:38:46.8	300.680	-0.100	0.120	0.410
2020/01/31 11:38:46.9	300.670	-0.100	0.080	0.390
2020/01/31 11:38:47.0	300.670	-0.100	0.050	0.360
2020/01/31 11:38:47.1	300.660	-0.100	0.010	0.340
2020/01/31 11:38:47.2	300.660	-0.090	-0.030	0.310
2020/01/31 11:38:47.3	300.660	-0.090	-0.070	0.280
2020/01/31 11:38:47.4	300.660	-0.080	-0.110	0.260
2020/01/31 11:38:47.5	300.670	-0.080	-0.150	0.230
2020/01/31 11:38:47.6	300.670	-0.070	-0.190	0.200
2020/01/31 11:38:47.7	300.670	-0.070	-0.230	0.170
2020/01/31 11:38:47.8	300.670	-0.060	-0.270	0.150
2020/01/31 11:38:47.9	300.680	-0.050	-0.310	0.120
2020/01/31 11:38:48.0	300.680	-0.050	-0.340	0.100
2020/01/31 11:38:48.1	300.690	-0.040	-0.380	0.070
2020/01/31 11:38:48.2	300.690	-0.030	-0.410	0.050
2020/01/31 11:38:48.3	300.700	-0.030	-0.440	0.030
2020/01/31 11:38:48.4	300.700	-0.020	-0.470	0.010
2020/01/31 11:38:48.5	300.710	-0.010	-0.500	-0.010
2020/01/31 11:38:48.6	300.720	0.000	-0.520	-0.020
2020/01/31 11:38:48.7	300.720	0.010	-0.550	-0.040
2020/01/31 11:38:48.8	300.730	0.020	-0.570	-0.050
2020/01/31 11:38:48.9	300.740	0.030	-0.590	-0.060
2020/01/31 11:38:49.0	300.750	0.040	-0.600	-0.070
2020/01/31 11:38:49.1	300.760	0.060	-0.620	-0.080
2020/01/31 11:38:49.2	300.770	0.070	-0.630	-0.080
2020/01/31 11:38:49.3	300.780	0.080	-0.650	-0.080
2020/01/31 11:38:49.4	300.780	0.090	-0.660	-0.080
2020/01/31 11:38:49.5	300.810	0.110	-0.670	-0.070
2020/01/31 11:38:49.6	300.820	0.120	-0.670	-0.070
2020/01/31 11:38:49.7	300.830	0.140	-0.680	-0.060
2020/01/31 11:38:49.8	300.840	0.150	-0.690	-0.050
2020/01/31 11:38:49.9	300.850	0.170	-0.690	-0.040
2020/01/31 11:38:50.0	300.860	0.180	-0.690	-0.020
2020/01/31 11:38:50.1	300.870	0.200	-0.700	-0.010
2020/01/31 11:38:50.2	300.880	0.210	-0.700	0.010
2020/01/31 11:38:50.3	300.890	0.230	-0.700	0.030
2020/01/31 11:38:50.4	300.900	0.240	-0.700	0.040
2020/01/31 11:38:50.5	300.920	0.260	-0.700	0.070
2020/01/31 11:38:50.6	300.930	0.270	-0.700	0.090
2020/01/31 11:38:50.7	300.940	0.280	-0.690	0.110
2020/01/31 11:38:50.8	300.960	0.300	-0.690	0.130
2020/01/31 11:38:50.9	300.970	0.310	-0.690	0.150
2020/01/31 11:38:51.0	300.990	0.320	-0.680	0.170
2020/01/31 11:38:51.1	301.010	0.330	-0.680	0.190
2020/01/31 11:38:51.2	301.020	0.340	-0.670	0.220
2020/01/31 11:38:51.3	301.040	0.350	-0.660	0.240
2020/01/31 11:38:51.4	301.060	0.360	-0.650	0.260
2020/01/31 11:38:51.5	301.070	0.360	-0.640	0.290
2020/01/31 11:38:51.6	301.090	0.370	-0.620	0.310
2020/01/31 11:38:51.7	301.110	0.370	-0.610	0.340
2020/01/31 11:38:51.8	301.120	0.370	-0.590	0.370
2020/01/31 11:38:51.9	301.130	0.370	-0.570	0.400
2020/01/31 11:38:52.0	301.140	0.370	-0.540	0.430
2020/01/31 11:38:52.1	301.150	0.370	-0.520	0.460
2020/01/31 11:38:52.2	301.160	0.370	-0.490	0.500
2020/01/31 11:38:52.3	301.170	0.370	-0.470	0.530
2020/01/31 11:38:52.4	301.170	0.360	-0.440	0.570
2020/01/31 11:38:52.5	301.180	0.350	-0.400	0.610
2020/01/31 11:38:52.6	301.170	0.350	-0.370	0.650
2020/01/31 11:38:52.7	301.170	0.340	-0.340	0.690
2020/01/31 11:38:52.8	301.170	0.330	-0.300	0.730
2020/01/31 11:38:52.9	301.160	0.320	-0.270	0.770
2020/01/31 11:38:53.0	301.150	0.300	-0.240	0.810
2020/01/31 11:38:53.1	301.150	0.290	-0.210	0.850
2020/01/31 11:38:53.2	301.140	0.280	-0.180	0.890
2020/01/31 11:38:53.3	301.130	0.260	-0.150	0.920
2020/01/31 11:38:53.4	301.110	0.250	-0.130	0.960
2020/01/31 11:38:53.5	301.100	0.230	-0.100	0.990
2020/01/31 11:38:53.6	301.090	0.210	-0.080	1.020
2020/01/31 11:38:53.7	301.080	0.200	-0.060	1.050
2020/01/31 11:38:53.8	301.060	0.180	-0.050	1.070
2020/01/31 11:38:53.9	301.050	0.170	-0.030	1.100
2020/01/31 11:38:54.0	301.040	0.150	-0.020	1.120
2020/01/31 11:38:54.1	301.020	0.130	-0.020	1.130
2020/01/31 11:38:54.2	301.010	0.120	-0.020	1.140
2020/01/31 11:38:54.3	300.990	0.100	-0.020	1.150
2020/01/31 11:38:54.4	300.980	0.090	-0.020	1.160
2020/01/31 11:38:54.5	300.970	0.070	-0.020	1.160
2020/01/31 11:38:54.6	300.950	0.060	-0.030	1.160
2020/01/31 11:38:54.7	300.940	0.050	-0.040	1.160
2020/01/31 11:38:54.8	300.930	0.030	-0.050	1.150
2020/01/31 11:38:54.9	300.910	0.020	-0.070	1.140
2020/01/31 11:38:55.0	300.900	0.010	-0.090	1.120
2020/01/31 11:38:55.1	300.890	-0.000	-0.110	1.100
2020/01/31 11:38:55.2	300.870	-0.010	-0.130	1.080
2020/01/31 11:38:55.3	300.860	-0.020	-0.150	1.060
2020/01/31 11:38:55.4	300.850	-0.030	-0.170	1.040
2020/01/31 11:38:55.5	300.840	-0.040	-0.190	1.010
2020/01/31 11:38:55.6	300.830	-0.050	-0.210	0.990
2020/01/31 11:38:55.7	300.810	-0.060	-0.230	0.960
2020/01/31 11:38:55.8	300.800	-0.070	-0.250	0.930
2020/01/31 11:38:55.9	300.780	-0.080	-0.260	0.900
2020/01/31 11:38:56.0	300.770	-0.090	-0.270	0.870
2020/01/31 11:38:56.1	300.750	-0.090	-0.290	0.840
2020/01/31 11:38:56.2	300.740	-0.100	-0.300	0.810
2020/01/31 11:38:56.3	300.720	-0.110	-0.300	0.770
2020/01/31 11:38:56.4	300.710	-0.120	-0.310	0.740
2020/01/31 11:38:56.5	300.690	-0.140	-0.300	0.710
2020/01/31 11:38:56.6	300.680	-0.150	-0.300	0.680
2020/01/31 11:38:56.7	300.670	-0.160	-0.300	0.650
2020/01/31 11:38:56.8	300.650	-0.170	-0.290	0.620
2020/01/31 11:38:56.9	300.640	-0.190	-0.280	0.580
2020/01/31 11:38:57.0	300.630	-0.200	-0.270	0.550
2020/01/31 11:38:57.1	300.620	-0.210	-0.260	0.520
2020/01/31 11:38:57.2	300.610	-0.230	-0.240	0.480
2020/01/31 11:38:57.3	300.600	-0.240	-0.220	0.450
2020/01/31 11:38:57.4	300.590	-0.260	-0.200	0.420
2020/01/31 11:38:57.5	300.590	-0.280	-0.190	0.390
2020/01/31 11:38:57.6	300.590	-0.290	-0.170	0.350
2020/01/31 11:38:57.7	300.580	-0.310	-0.140	0.320
2020/01/31 11:38:57.8	300.580	-0.330	-0.120	0.290
2020/01/31 11:38:57.9	300.570	-0.340	-0.090	0.260
2020/01/31 11:38:58.0	300.570	-0.360	-0.070	0.220
2020/01/31 11:38:58.1	300.570	-0.370	-0.050	0.190
2020/01/31 11:38:58.2	300.570	-0.390	-0.020	0.160
2020/01/31 11:38:58.3	300.570	-0.400	-0.000	0.130
2020/01/31 11:38:58.4	300.570	-0.420	0.020	0.100
2020/01/31 11:38:58.5	300.570	-0.430	0.040	0.070
2020/01/31 11:38:58.6	300.570	-0.440	0.060	0.040
2020/01/31 11:38:58.7	300.570	-0.450	0.080	0.020
2020/01/31 11:38:58.8	300.580	-0.450	0.090	-0.000
2020/01/31 11:38:58.9	300.580	-0.460	0.110	-0.030
2020/01/31 11:38:59.0	300.590	-0.460	0.120	-0.050
2020/01/31 11:38:59.1	300.600	-0.460	0.140	-0.060
2020/01/31 11:38:59.2	300.600	-0.460	0.140	-0.080
2020/01/31 11:38:59.3	300.610	-0.460	0.150	-0.090
2020/01/31 11:38:59.4	300.620	-0.460	0.160	-0.110
2020/01/31 11:38:59.5	300.630	-0.450	0.160	-0.120
2020/01/31 11:38:59.6	300.640	-0.440	0.160	-0.120
2020/01/31 11:38:59.7	300.650	-0.430	0.160	-0.130
2020/01/31 11:38:59.8	300.660	-0.420	0.160	-0.130
2020/01/31 11:38:59.9	300.670	-0.400	0.150	-0.130
2020/01/31 11:39:00.0	300.680	-0.380	0.140	-0.130
2020/01/31 11:39:00.1	300.690	-0.360	0.130	-0.130
2020/01/31 11:39:00.2	300.700	-0.340	0.120	-0.130
2020/01/31 11:39:00.3	300.710	-0.320	0.100	-0.120
2020/01/31 11:39:00.4	300.730	-0.300	0.080	-0.110
2020/01/31 11:39:00.5	300.740	-0.270	0.060	-0.100
2020/01/31 11:39:00.6	300.760	-0.250	0.040	-0.090
2020/01/31 11:39:00.7	300.770	-0.220	0.010	-0.070
2020/01/31 11:39:00.8	300.780	-0.190	-0.020	-0.060
2020/01/31 11:39:00.9	300.800	-0.160	-0.050	-0.040
2020/01/31 11:39:01.0	300.810	-0.140	-0.080	-0.020
2020/01/31 11:39:01.1	300.830	-0.110	-0.110	0.000
2020/01/31 11:39:01.2	300.840	-0.080	-0.140	0.030
2020/01/31 11:39:01.3	300.850	-0.050	-0.180	0.050
2020/01/31 11:39:01.4	300.870	-0.030	-0.210	0.080
2020/01/31 11:39:01.5	300.880	-0.000	-0.250	0.100
2020/01/31 11:39:01.6	300.900	0.020	-0.280	0.130
2020/01/31 11:39:01.7	300.910	0.050	-0.310	0.160
2020/01/31 11:39:01.8	300.930	0.070	-0.350	0.200
2020/01/31 11:39:01.9	300.940	0.090	-0.380	0.230
2020/01/31 11:39:02.0	300.960	0.110	-0.410	0.260
2020/01/31 11:39:02.1	300.970	0.130	-0.440	0.290
2020/01/31 11:39:02.2	300.990	0.140	-0.470	0.330
2020/01/31 11:39:02.3	301.010	0.160	-0.500	0.360
2020/01/31 11:39:02.4	301.020	0.170	-0.520	0.390
2020/01/31 11:39:02.5	301.030	0.180	-0.550	0.430
2020/01/31 11:39:02.6	301.040	0.190	-0.570	0.460
2020/01/31 11:39:02.7	301.060	0.200	-0.590	0.490
2020/01/31 11:39:02.8	301.080	0.200	-0.600	0.530
2020/01/31 11:39:02.9	301.090	0.210	-0.620	0.560
2020/01/31 11:39:03.0	301.110	0.210	-0.630	0.590
2020/01/31 11:39:03.1	301.130	0.210	-0.640	0.620
2020/01/31 11:39:03.2	301.140	0.210	-0.640	0.650
2020/01/31 11:39:03.3	301.160	0.210	-0.650	0.680
2020/01/31 11:39:03.4	301.180	0.210	-0.650	0.710
2020/01/31 11:39:03.5	301.210	0.210	-0.640	0.740
2020/01/31 11:39:03.6	301.220	0.200	-0.640	0.770
2020/01/31 11:39:03.7	301.230	0.200	-0.630	0.790
2020/01/31 11:39:03.8	301.250	0.190	-0.620	0.810
2020/01/31 11:39:03.9	301.260	0.180	-0.610	0.840
2020/01/31 11:39:04.0	301.270	0.180	-0.600	0.860
2020/01/31 11:39:04.1	301.280	0.170	-0.580	0.880
2020/01/31 11:39:04.2	301.280	0.160	-0.570	0.900
2020/01/31 11:39:04.3	301.290	0.150	-0.550	0.920
2020/01/31 11:39:04.4	301.290	0.140	-0.530	0.930
2020/01/31 11:39:04.5	301.290	0.130	-0.510	0.950
2020/01/31 11:39:04.6	301.290	0.130	-0.490	0.960
2020/01/31 11:39:04.7	301.290	0.120	-0.460	0.980
2020/01/31 11:39:04.8	301.290	0.110	-0.440	0.990
2020/01/31 11:39:04.9	301.280	0.100	-0.410	1.000
2020/01/31 11:39:05.0	301.270	0.100	-0.390	1.010
2020/01/31 11:39:05.1	301.260	0.090	-0.360	1.020
2020/01/31 11:39:05.2	301.250	0.090	-0.340	1.030
2020/01/31 11:39:05.3	301.240	0.080	-0.310	1.040
2020/01/31 11:39:05.4	301.220	0.080	-0.290	1.050
2020/01/31 11:39:05.5	301.210	0.080	-0.260	1.050
2020/01/31 11:39:05.6	301.190	0.070	-0.240	1.060
2020/01/31 11:39:05.7	301.170	0.070	-0.210	1.060
2020/01/31 11:39:05.8	301.140	0.070	-0.190	1.070
2020/01/31 11:39:05.9	301.120	0.070	-0.170	1.070
2020/01/31 11:39:06.0	301.090	0.070	-0.150	1.070
2020/01/31 11:39:06.1	301.060	0.070	-0.130	1.070
2020/01/31 11:39:06.2	301.030	0.080	-0.120	1.070
2020/01/31 11:39:06.3	301.000	0.080	-0.110	1.070
2020/01/31 11:39:06.4	300.970	0.080	-0.090	1.060
2020/01/31 11:39:06.5	300.940	0.090	-0.090	1.060
2020/01/31 11:39:06.6	300.910	0.090	-0.080	1.050
2020/01/31 11:39:06.7	300.870	0.100	-0.080	1.040
2020/01/31 11:39:06.8	300.840	0.100	-0.070	1.030
2020/01/31 11:39:06.9	300.800	0.110	-0.070	1.020
2020/01/31 11:39:07.0	300.770	0.120	-0.070	1.000
2020/01/31 11:39:07.1	300.740	0.120	-0.080	0.990
2020/01/31 11:39:07.2	300.700	0.130	-0.080	0.970
2020/01/31 11:39:07.3	300.670	0.140	-0.090	0.950
2020/01/31 11:39:07.4	300.640	0.140	-0.100	0.930
2020/01/31 11:39:07.5	300.610	0.150	-0.110	0.910
2020/01/31 11:39:07.6	300.580	0.150	-0.120	0.880
2020/01/31 11:39:07.7	300.550	0.160	-0.130	0.850
2020/01/31 11:39:07.8	300.530	0.160	-0.150	0.830
2020/01/31 11:39:07.9	300.500	0.170	-0.170	0.800
2020/01/31 11:39:08.0	300.480	0.170	-0.180	0.770
2020/01/31 11:39:08.1	300.460	0.180	-0.200	0.740
2020/01/31 11:39:08.2	300.450	0.180	-0.220	0.700
2020/01/31 11:39:08.3	300.430	0.180	-0.240	0.670
2020/01/31 11:39:08.4	300.420	0.180	-0.260	0.640
2020/01/31 11:39:08.5	300.410	0.180	-0.280	0.600
2020/01/31 11:39:08.6	300.400	0.180	-0.300	0.570
2020/01/31 11:39:08.7	300.390	0.180	-0.320	0.530
2020/01/31 11:39:08.8	300.390	0.180	-0.340	0.500
2020/01/31 11:39:08.9	300.390	0.180	-0.360	0.460
2020/01/31 11:39:09.0	300.390	0.180	-0.380	0.420
2020/01/31 11:39:09.1	300.390	0.170	-0.390	0.390
2020/01/31 11:39:09.2	300.390	0.170	-0.410	0.350
2020/01/31 11:39:09.3	300.400	0.170	-0.430	0.320
2020/01/31 11:39:09.4	300.410	0.160	-0.440	0.280
2020/01/31 11:39:09.5	300.440	0.150	-0.460	0.250
2020/01/31 11:39:09.6	300.450	0.150	-0.470	0.210
2020/01/31 11:39:09.7	300.470	0.140	-0.480	0.180
2020/01/31 11:39:09.8	300.490	0.130	-0.490	0.150
2020/01/31 11:39:09.9	300.510	0.120	-0.490	0.110
2020/01/31 11:39:10.0	300.530	0.120	-0.500	0.080
2020/01/31 11:39:10.1	300.550	0.110	-0.500	0.060
2020/01/31 11:39:10.2	300.580	0.100	-0.490	0.030
2020/01/31 11:39:10.3	300.600	0.090	-0.490	0.000
2020/01/31 11:39:10.4	300.630	0.080	-0.480	-0.020
2020/01/31 11:39:10.5	300.660	0.070	-0.470	-0.040
2020/01/31 11:39:10.6	300.690	0.060	-0.460	-0.060
2020/01/31 11:39:10.7	300.720	0.050	-0.450	-0.070
2020/01/31 11:39:10.8	300.750	0.040	-0.430	-0.090
2020/01/31 11:39:10.9	300.780	0.030	-0.410	-0.100
2020/01/31 11:39:11.0	300.800	0.010	-0.380	-0.110
2020/01/31 11:39:11.1	300.830	0.000	-0.360	-0.120
2020/01/31 11:39:11.2	300.860	-0.010	-0.330	-0.130
2020/01/31 11:39:11.3	300.890	-0.020	-0.300	-0.140
2020/01/31 11:39:11.4	300.920	-0.030	-0.270	-0.140
2020/01/31 11:39:11.5	300.960	-0.040	-0.240	-0.140
2020/01/31 11:39:11.6	300.980	-0.050	-0.200	-0.140
2020/01/31 11:39:11.7	301.010	-0.060	-0.170	-0.140
2020/01/31 11:39:11.8	301.040	-0.070	-0.130	-0.140
2020/01/31 11:39:11.9	301.070	-0.080	-0.100	-0.130
2020/01/31 11:39:12.0	301.090	-0.090	-0.060	-0.120
2020/01/31 11:39:12.1	301.120	-0.100	-0.030	-0.110
2020/01/31 11:39:12.2	301.140	-0.110	0.010	-0.100
2020/01/31 11:39:12.3	301.170	-0.120	0.040	-0.080
2020/01/31 11:39:12.4	301.190	-0.130	0.080	-0.070
2020/01/31 11:39:12.5	301.210	-0.140	0.110	-0.050
2020/01/31 11:39:12.6	301.230	-0.150	0.140	-0.030
2020/01/31 11:39:12.7	301.250	-0.160	0.160	-0.000
2020/01/31 11:39:12.8	301.270	-0.170	0.190	0.020
2020/01/31 11:39:12.9	301.280	-0.170	0.210	0.050
2020/01/31 11:39:13.0	301.290	-0.180	0.230	0.080
2020/01/31 11:39:13.1	301.310	-0.190	0.250	0.100
2020/01/31 11:39:13.2	301.320	-0.200	0.260	0.130
2020/01/31 11:39:13.3	301.330	-0.210	0.270	0.160
2020/01/31 11:39:13.4	301.330	-0.210	0.280	0.190
2020/01/31 11:39:13.5	301.330	-0.220	0.280	0.210
2020/01/31 11:39:13.6	301.340	-0.230	0.280	0.240
2020/01/31 11:39:13.7	301.340	-0.230	0.280	0.270
2020/01/31 11:39:13.8	301.340	-0.240	0.270	0.290
2020/01/31 11:39:13.9	301.350	-0.240	0.260	0.320
2020/01/31 11:39:14.0	301.350	-0.250	0.240	0.340
2020/01/31 11:39:14.1	301.350	-0.250	0.230	0.360
2020/01/31 11:39:14.2	301.350	-0.260	0.210	0.390
2020/01/31 11:39:14.3	301.340	-0.260	0.190	0.410
2020/01/31 11:39:14.4	301.340	-0.260	0.160	0.430
2020/01/31 11:39:14.5	301.340	-0.260	0.130	0.450
2020/01/31 11:39:14.6	301.330	-0.260	0.100	0.470
2020/01/31 11:39:14.7	301.320	-0.260	0.070	0.490
2020/01/31 11:39:14.8	301.310	-0.260	0.040	0.510
2020/01/31 11:39:14.9	301.300	-0.260	0.010	0.530
2020/01/31 11:39:15.0	301.290	-0.260	-0.030	0.540
2020/01/31 11:39:15.1	301.280	-0.250	-0.060	0.560
2020/01/31 11:39:15.2	301.260	-0.250	-0.090	0.580
2020/01/31 11:39:15.3	301.250	-0.250	-0.130	0.590
2020/01/31 11:39:15.4	301.230	-0.240	-0.160	0.610
2020/01/31 11:39:15.5	301.200	-0.240	-0.190	0.630
2020/01/31 11:39:15.6	301.180	-0.230	-0.220	0.640
2020/01/31 11:39:15.7	301.160	-0.230	-0.250	0.650
2020/01/31 11:39:15.8	301.140	-0.220	-0.280	0.670
2020/01/31 11:39:15.9	301.120	-0.210	-0.310	0.680
2020/01/31 11:39:16.0	301.100	-0.210	-0.340	0.690
2020/01/31 11:39:16.1	301.080	-0.200	-0.360	0.700
2020/01/31 11:39:16.2	301.050	-0.190	-0.380	0.710
2020/01/31 11:39:16.3	301.030	-0.180	-0.400	0.720
2020/01/31 11:39:16.4	301.010	-0.180	-0.420	0.730
2020/01/31 11:39:16.5	300.990	-0.170	-0.440	0.730
2020/01/31 11:39:16.6	300.970	-0.160	-0.460	0.740
2020/01/31 11:39:16.7	300.940	-0.150	-0.470	0.740
2020/01/31 11:39:16.8	300.920	-0.140	-0.480	0.740
2020/01/31 11:39:16.9	300.900	-0.130	-0.490	0.740
2020/01/31 11:39:17.0	300.880	-0.130	-0.500	0.730
2020/01/31 11:39:17.1	300.860	-0.120	-0.510	0.730
2020/01/31 11:39:17.2	300.840	-0.110	-0.510	0.720
2020/01/31 11:39:17.3	300.820	-0.100	-0.520	0.710
2020/01/31 11:39:17.4	300.800	-0.090	-0.520	0.700
2020/01/31 11:39:17.5	300.780	-0.080	-0.520	0.680
2020/01/31 11:39:17.6	300.770	-0.070	-0.520	0.670
2020/01/31 11:39:17.7	300.750	-0.060	-0.520	0.650
2020/01/31 11:39:17.8	300.740	-0.050	-0.520	0.630
2020/01/31 11:39:17.9	300.730	-0.040	-0.520	0.610
2020/01/31 11:39:18.0	300.720	-0.030	-0.520	0.590
2020/01/31 11:39:18.1	300.710	-0.020	-0.520	0.570
2020/01/31 11:39:18.2	300.700	-0.000	-0.510	0.550
2020/01/31 11:39:18.3	300.690	0.010	-0.510	0.520
2020/01/31 11:39:18.4	300.690	0.020	-0.500	0.500
2020/01/31 11:39:18.5	300.680	0.030	-0.500	0.480
2020/01/31 11:39:18.6	300.680	0.040	-0.500	0.460
2020/01/31 11:39:18.7	300.680	0.050	-0.490	0.430
2020/01/31 11:39:18.8	300.670	0.060	-0.490	0.410
2020/01/31 11:39:18.9	300.670	0.080	-0.480	0.390
2020/01/31 11:39:19.0	300.680	0.090	-0.480	0.360
2020/01/31 11:39:19.1	300.680	0.100	-0.480	0.340
2020/01/31 11:39:19.2	300.680	0.110	-0.470	0.320
2020/01/31 11:39:19.3	300.690	0.120	-0.470	0.300
2020/01/31 11:39:19.4	300.700	0.130	-0.460	0.280
2020/01/31 11:39:19.5	300.700	0.140	-0.460	0.260
2020/01/31 11:39:19.6	300.710	0.150	-0.460	0.240
2020/01/31 11:39:19.7	300.720	0.160	-0.450	0.230
2020/01/31 11:39:19.8	300.730	0.170	-0.450	0.210
2020/01/31 11:39:19.9	300.740	0.180	-0.450	0.190
2020/01/31 11:39:20.0	300.760	0.190	-0.450	0.180
2020/01/31 11:39:20.1	300.770	0.200	-0.450	0.170
2020/01/31 11:39:20.2	300.780	0.210	-0.450	0.160
2020/01/31 11:39:20.3	300.800	0.220	-0.450	0.150
2020/01/31 11:39:20.4	300.810	0.230	-0.450	0.140
2020/01/31 11:39:20.5	300.820	0.240	-0.450	0.130
2020/01/31 11:39:20.6	300.840	0.250	-0.460	0.130
2020/01/31 11:39:20.7	300.860	0.250	-0.460	0.120
2020/01/31 11:39:20.8	300.870	0.260	-0.460	0.120
2020/01/31 11:39:20.9	300.890	0.270	-0.460	0.120
2020/01/31 11:39:21.0	300.910	0.280	-0.470	0.130
2020/01/31 11:39:21.1	300.930	0.290	-0.470	0.130
2020/01/31 11:39:21.2	300.940	0.290	-0.470	0.140
2020/01/31 11:39:21.3	300.960	0.300	-0.480	0.150
2020/01/31 11:39:21.4	300.970	0.310	-0.480	0.160
2020/01/31 11:39:21.5	301.000	0.310	-0.480	0.180
2020/01/31 11:39:21.6	301.010	0.320	-0.490	0.190
2020/01/31 11:39:21.7	301.030	0.320	-0.490	0.210
2020/01/31 11:39:21.8	301.040	0.320	-0.490	0.230
2020/01/31 11:39:21.9	301.050	0.330	-0.490	0.250
2020/01/31 11:39:22.0	301.060	0.330	-0.500	0.270
2020/01/31 11:39:22.1	301.070	0.330	-0.500	0.290
2020/01/31 11:39:22.2	301.090	0.330	-0.490	0.320
2020/01/31 11:39:22.3	301.100	0.320	-0.490	0.340
2020/01/31 11:39:22.4	301.110	0.320	-0.490	0.360
2020/01/31 11:39:22.5	301.120	0.320	-0.480	0.390
2020/01/31 11:39:22.6	301.130	0.310	-0.470	0.410
2020/01/31 11:39:22.7	301.140	0.300	-0.460	0.440
2020/01/31 11:39:22.8	301.150	0.290	-0.450	0.460
2020/01/31 11:39:22.9	301.160	0.290	-0.440	0.480
2020/01/31 11:39:23.0	301.170	0.270	-0.420	0.500
2020/01/31 11:39:23.1	301.180	0.260	-0.400	0.520
2020/01/31 11:39:23.2	301.190	0.250	-0.380	0.550
2020/01/31 11:39:23.3	301.200	0.230	-0.360	0.570
2020/01/31 11:39:23.4	301.210	0.220	-0.330	0.590
2020/01/31 11:39:23.5	301.220	0.200	-0.310	0.600
2020/01/31 11:39:23.6	301.230	0.180	-0.280	0.620
2020/01/31 11:39:23.7	301.240	0.160	-0.240	0.640
2020/01/31 11:39:23.8	301.250	0.140	-0.210	0.660
2020/01/31 11:39:23.9	301.260	0.120	-0.180	0.670
2020/01/31 11:39:24.0	301.260	0.100	-0.140	0.690
2020/01/31 11:39:24.1	301.270	0.070	-0.100	0.700
2020/01/31 11:39:24.2	301.280	0.050	-0.060	0.710
2020/01/31 11:39:24.3	301.280	0.030	-0.020	0.730
2020/01/31 11:39:24.4	301.290	0.000	0.020	0.740
2020/01/31 11:39:24.5	301.300	-0.020	0.060	0.750
2020/01/31 11:39:24.6	301.300	-0.050	0.100	0.760
2020/01/31 11:39:24.7	301.310	-0.080	0.140	0.760
2020/01/31 11:39:24.8	301.310	-0.100	0.180	0.770
2020/01/31 11:39:24.9	301.310	-0.130	0.220	0.770
2020/01/31 11:39:25.0	301.310	-0.160	0.260	0.770
2020/01/31 11:39:25.1	301.310	-0.180	0.300	0.770
2020/01/31 11:39:25.2	301.310	-0.210	0.330	0.770
2020/01/31 11:39:25.3	301.310	-0.240	0.360	0.770
2020/01/31 11:39:25.4	301.310	-0.260	0.400	0.770
2020/01/31 11:39:25.5	301.320	-0.290	0.430	0.760
2020/01/31 11:39:25.6	301.320	-0.310	0.450	0.750
2020/01/31 11:39:25.7	301.310	-0.330	0.480	0.740
2020/01/31 11:39:25.8	301.310	-0.360	0.500	0.730
2020/01/31 11:39:25.9	301.300	-0.380	0.520	0.720
2020/01/31 11:39:26.0	301.290	-0.400	0.530	0.710
2020/01/31 11:39:26.1	301.280	-0.420	0.550	0.690
2020/01/31 11:39:26.2	301.270	-0.430	0.560	0.680
2020/01/31 11:39:26.3	301.260	-0.450	0.560	0.660
2020/01/31 11:39:26.4	301.240	-0.460	0.570	0.640
2020/01/31 11:39:26.5	301.220	-0.480	0.560	0.620
2020/01/31 11:39:26.6	301.200	-0.490	0.560	0.600
2020/01/31 11:39:26.7	301.180	-0.490	0.550	0.580
2020/01/31 11:39:26.8	301.160	-0.500	0.540	0.560
2020/01/31 11:39:26.9	301.140	-0.500	0.530	0.540
2020/01/31 11:39:27.0	301.120	-0.510	0.510	0.520
2020/01/31 11:39:27.1	301.100	-0.510	0.490	0.500
2020/01/31 11:39:27.2	301.080	-0.500	0.470	0.480
2020/01/31 11:39:27.3	301.050	-0.500	0.440	0.460
2020/01/31 11:39:27.4	301.030	-0.490	0.410	0.430
2020/01/31 11:39:27.5	301.000	-0.480	0.380	0.410
2020/01/31 11:39:27.6	300.980	-0.470	0.340	0.390
2020/01/31 11:39:27.7	300.950	-0.460	0.300	0.370
2020/01/31 11:39:27.8	300.930	-0.450	0.260	0.350
2020/01/31 11:39:27.9	300.900	-0.430	0.220	0.330
2020/01/31 11:39:28.0	300.880	-0.410	0.170	0.300
2020/01/31 11:39:28.1	300.850	-0.400	0.130	0.280
2020/01/31 11:39:28.2	300.830	-0.370	0.080	0.260
2020/01/31 11:39:28.3	300.800	-0.350	0.030	0.240
2020/01/31 11:39:28.4	300.780	-0.330	-0.030	0.220
2020/01/31 11:39:28.5	300.750	-0.300	-0.080	0.200
2020/01/31 11:39:28.6	300.730	-0.280	-0.140	0.180
2020/01/31 11:39:28.7	300.710	-0.250	-0.190	0.160
2020/01/31 11:39:28.8	300.690	-0.230	-0.240	0.140
2020/01/31 11:39:28.9	300.670	-0.200	-0.300	0.110
2020/01/31 11:39:29.0	300.650	-0.170	-0.350	0.090
2020/01/31 11:39:29.1	300.630	-0.140	-0.400	0.080
2020/01/31 11:39:29.2	300.620	-0.110	-0.450	0.060
2020/01/31 11:39:29.3	300.600	-0.080	-0.500	0.040
2020/01/31 11:39:29.4	300.580	-0.050	-0.550	0.030
2020/01/31 11:39:29.5	300.560	-0.020	-0.590	0.010
2020/01/31 11:39:29.6	300.540	0.000	-0.630	-0.000
2020/01/31 11:39:29.7	300.530	0.030	-0.670	-0.010
2020/01/31 11:39:29.8	300.520	0.060	-0.700	-0.020
2020/01/31 11:39:29.9	300.510	0.090	-0.740	-0.030
2020/01/31 11:39:30.0	300.500	0.120	-0.770	-0.040
2020/01/31 11:39:30.1	300.490	0.140	-0.800	-0.040
2020/01/31 11:39:30.2	300.480	0.170	-0.820	-0.040
2020/01/31 11:39:30.3	300.470	0.190	-0.850	-0.050
2020/01/31 11:39:30.4	300.470	0.220	-0.870	-0.050
2020/01/31 11:39:30.5	300.470	0.240	-0.890	-0.040
2020/01/31 11:39:30.6	300.470	0.270	-0.900	-0.040
2020/01/31 11:39:30.7	300.470	0.290	-0.920	-0.030
2020/01/31 11:39:30.8	300.480	0.310	-0.930	-0.030
2020/01/31 11:39:30.9	300.480	0.330	-0.940	-0.020
2020/01/31 11:39:31.0	300.490	0.350	-0.950	-0.010
2020/01/31 11:39:31.1	300.500	0.370	-0.960	0.000
2020/01/31 11:39:31.2	300.510	0.390	-0.960	0.010
2020/01/31 11:39:31.3	300.530	0.410	-0.970	0.030
2020/01/31 11:39:31.4	300.540	0.430	-0.970	0.040
2020/01/31 11:39:31.5	300.570	0.440	-0.980	0.060
2020/01/31 11:39:31.6	300.590	0.460	-0.980	0.070
2020/01/31 11:39:31.7	300.610	0.470	-0.990	0.090
2020/01/31 11:39:31.8	300.640	0.480	-0.990	0.110
2020/01/31 11:39:31.9	300.660	0.490	-0.990	0.120
2020/01/31 11:39:32.0	300.690	0.500	-0.990	0.140
2020/01/31 11:39:32.1	300.720	0.510	-0.990	0.160
2020/01/31 11:39:32.2	300.750	0.520	-0.990	0.180
2020/01/31 11:39:32.3	300.780	0.520	-0.990	0.200
2020/01/31 11:39:32.4	300.820	0.530	-0.990	0.230
2020/01/31 11:39:32.5	300.850	0.530	-0.980	0.250
2020/01/31 11:39:32.6	300.890	0.530	-0.980	0.280
2020/01/31 11:39:32.7	300.920	0.520	-0.970	0.300
2020/01/31 11:39:32.8	300.950	0.520	-0.960	0.330
2020/01/31 11:39:32.9	300.990	0.510	-0.950	0.360
2020/01/31 11:39:33.0	301.020	0.510	-0.930	0.390
2020/01/31 11:39:33.1	301.050	0.500	-0.910	0.420
2020/01/31 11:39:33.2	301.080	0.480	-0.890	0.440
2020/01/31 11:39:33.3	301.110	0.470	-0.860	0.470
2020/01/31 11:39:33.4	301.140	0.450	-0.830	0.500
2020/01/31 11:39:33.5	301.160	0.430	-0.800	0.530
2020/01/31 11:39:33.6	301.190	0.410	-0.760	0.560
2020/01/31 11:39:33.7	301.210	0.390	-0.720	0.580
2020/01/31 11:39:33.8	301.240	0.360	-0.670	0.610
2020/01/31 11:39:33.9	301.260	0.340	-0.630	0.640
2020/01/31 11:39:34.0	301.290	0.310	-0.570	0.660
2020/01/31 11:39:34.1	301.310	0.280	-0.520	0.680
2020/01/31 11:39:34.2	301.330	0.240	-0.460	0.710
2020/01/31 11:39:34.3	301.350	0.210	-0.400	0.730
2020/01/31 11:39:34.4	301.360	0.170	-0.330	0.750
2020/01/31 11:39:34.5	301.380	0.140	-0.270	0.770
2020/01/31 11:39:34.6	301.400	0.100	-0.200	0.790
2020/01/31 11:39:34.7	301.410	0.060	-0.130	0.810
2020/01/31 11:39:34.8	301.420	0.020	-0.060	0.820
2020/01/31 11:39:34.9	301.430	-0.020	0.000	0.840
2020/01/31 11:39:35.0	301.440	-0.070	0.070	0.850
2020/01/31 11:39:35.1	301.440	-0.110	0.130	0.860
2020/01/31 11:39:35.2	301.440	-0.150	0.200	0.870
2020/01/31 11:39:35.3	301.450	-0.190	0.260	0.880
2020/01/31 11:39:35.4	301.450	-0.240	0.310	0.880
2020/01/31 11:39:35.5	301.430	-0.280	0.370	0.880
2020/01/31 11:39:35.6	301.430	-0.320	0.420	0.880
2020/01/31 11:39:35.7	301.430	-0.360	0.460	0.880
2020/01/31 11:39:35.8	301.420	-0.400	0.500	0.870
2020/01/31 11:39:35.9	301.410	-0.440	0.540	0.860
2020/01/31 11:39:36.0	301.400	-0.480	0.570	0.850
2020/01/31 11:39:36.1	301.390	-0.510	0.600	0.830
2020/01/31 11:39:36.2	301.380	-0.540	0.620	0.820
2020/01/31 11:39:36.3	301.370	-0.570	0.640	0.800
2020/01/31 11:39:36.4	301.360	-0.600	0.650	0.780
2020/01/31 11:39:36.5	301.350	-0.630	0.650	0.750
2020/01/31 11:39:36.6	301.330	-0.650	0.650	0.730
2020/01/31 11:39:36.7	301.320	-0.670	0.650	0.700
2020/01/31 11:39:36.8	301.300	-0.690	0.640	0.670
2020/01/31 11:39:36.9	301.280	-0.700	0.620	0.640
2020/01/31 11:39:37.0	301.260	-0.710	0.610	0.620
2020/01/31 11:39:37.1	301.240	-0.720	0.580	0.590
2020/01/31 11:39:37.2	301.220	-0.720	0.550	0.560
2020/01/31 11:39:37.3	301.200	-0.720	0.520	0.530
2020/01/31 11:39:37.4	301.180	-0.720	0.490	0.500
2020/01/31 11:39:37.5	301.150	-0.710	0.440	0.470
2020/01/31 11:39:37.6	301.130	-0.700	0.400	0.440
2020/01/31 11:39:37.7	301.110	-0.680	0.360	0.420
2020/01/31 11:39:37.8	301.090	-0.670	0.320	0.390
2020/01/31 11:39:37.9	301.070	-0.640	0.270	0.360
2020/01/31 11:39:38.0	301.050	-0.620	0.220	0.340
2020/01/31 11:39:38.1	301.030	-0.590	0.180	0.310
2020/01/31 11:39:38.2	301.010	-0.560	0.130	0.290
2020/01/31 11:39:38.3	300.990	-0.530	0.080	0.270
2020/01/31 11:39:38.4	300.970	-0.490	0.030	0.250
2020/01/31 11:39:38.5	300.940	-0.450	-0.010	0.230
2020/01/31 11:39:38.6	300.920	-0.410	-0.060	0.220
2020/01/31 11:39:38.7	300.900	-0.370	-0.100	0.200
2020/01/31 11:39:38.8	300.880	-0.320	-0.150	0.190
2020/01/31 11:39:38.9	300.870	-0.280	-0.190	0.170
2020/01/31 11:39:39.0	300.850	-0.230	-0.230	0.160
2020/01/31 11:39:39.1	300.840	-0.190	-0.270	0.160
2020/01/31 11:39:39.2	300.820	-0.140	-0.300	0.150
2020/01/31 11:39:39.3	300.810	-0.090	-0.340	0.150
2020/01/31 11:39:39.4	300.800	-0.040	-0.370	0.140
2020/01/31 11:39:39.5	300.790	0.000	-0.390	0.140
2020/01/31 11:39:39.6	300.770	0.050	-0.420	0.140
2020/01/31 11:39:39.7	300.760	0.100	-0.440	0.150
2020/01/31 11:39:39.8	300.750	0.140	-0.460	0.160
2020/01/31 11:39:39.9	300.740	0.190	-0.480	0.170
2020/01/31 11:39:40.0	300.720	0.230	-0.490	0.180
2020/01/31 11:39:40.1	300.710	0.270	-0.500	0.200
2020/01/31 11:39:40.2	300.700	0.310	-0.510	0.220
2020/01/31 11:39:40.3	300.690	0.340	-0.520	0.240
2020/01/31 11:39:40.4	300.680	0.380	-0.520	0.260
2020/01/31 11:39:40.5	300.670	0.410	-0.530	0.280
2020/01/31 11:39:40.6	300.660	0.440	-0.520	0.310
2020/01/31 11:39:40.7	300.650	0.470	-0.520	0.330
2020/01/31 11:39:40.8	300.640	0.490	-0.510	0.350
2020/01/31 11:39:40.9	300.630	0.510	-0.500	0.380
2020/01/31 11:39:41.0	300.620	0.530	-0.490	0.400
2020/01/31 11:39:41.1	300.610	0.550	-0.480	0.430
2020/01/31 11:39:41.2	300.610	0.560	-0.470	0.450
2020/01/31 11:39:41.3	300.600	0.570	-0.450	0.470
2020/01/31 11:39:41.4	300.590	0.580	-0.430	0.490
2020/01/31 11:39:41.5	300.590	0.580	-0.410	0.510
2020/01/31 11:39:41.6	300.580	0.580	-0.390	0.530
2020/01/31 11:39:41.7	300.570	0.580	-0.370	0.550
2020/01/31 11:39:41.8	300.570	0.570	-0.350	0.570
2020/01/31 11:39:41.9	300.560	0.560	-0.330	0.580
2020/01/31 11:39:42.0	300.560	0.550	-0.300	0.600
2020/01/31 11:39:42.1	300.560	0.540	-0.280	0.610
2020/01/31 11:39:42.2	300.550	0.520	-0.260	0.620
2020/01/31 11:39:42.3	300.550	0.510	-0.240	0.630
2020/01/31 11:39:42.4	300.550	0.490	-0.220	0.640
2020/01/31 11:39:42.5	300.550	0.470	-0.190	0.640
2020/01/31 11:39:42.6	300.550	0.450	-0.170	0.650
2020/01/31 11:39:42.7	300.560	0.420	-0.150	0.650
2020/01/31 11:39:42.8	300.560	0.400	-0.130	0.650
2020/01/31 11:39:42.9	300.560	0.380	-0.110	0.650
2020/01/31 11:39:43.0	300.570	0.350	-0.100	0.640
2020/01/31 11:39:43.1	300.580	0.330	-0.080	0.640
2020/01/31 11:39:43.2	300.590	0.300	-0.070	0.630
2020/01/31 11:39:43.3	300.600	0.270	-0.050	0.620
2020/01/31 11:39:43.4	300.610	0.250	-0.040	0.600
2020/01/31 11:39:43.5	300.610	0.220	-0.030	0.590
2020/01/31 11:39:43.6	300.620	0.200	-0.030	0.570
2020/01/31 11:39:43.7	300.640	0.180	-0.030	0.550
2020/01/31 11:39:43.8	300.650	0.150	-0.020	0.530
2020/01/31 11:39:43.9	300.670	0.130	-0.030	0.500
2020/01/31 11:39:44.0	300.690	0.110	-0.030	0.480
2020/01/31 11:39:44.1	300.710	0.090	-0.040	0.450
2020/01/31 11:39:44.2	300.720	0.070	-0.050	0.420
2020/01/31 11:39:44.3	300.750	0.050	-0.060	0.390
2020/01/31 11:39:44.4	300.770	0.030	-0.070	0.360
2020/01/31 11:39:44.5	300.780	0.020	-0.090	0.330
2020/01/31 11:39:44.6	300.810	0.000	-0.110	0.300
2020/01/31 11:39:44.7	300.830	-0.010	-0.130	0.270
2020/01/31 11:39:44.8	300.850	-0.020	-0.150	0.240
2020/01/31 11:39:44.9	300.880	-0.030	-0.180	0.210
2020/01/31 11:39:45.0	300.910	-0.040	-0.200	0.180
2020/01/31 11:39:45.1	300.940	-0.050	-0.230	0.150
2020/01/31 11:39:45.2	300.960	-0.060	-0.260	0.120
2020/01/31 11:39:45.3	300.990	-0.060	-0.290	0.090
2020/01/31 11:39:45.4	301.020	-0.070	-0.320	0.070
2020/01/31 11:39:45.5	301.050	-0.070	-0.360	0.040
2020/01/31 11:39:45.6	301.080	-0.070	-0.390	0.020
2020/01/31 11:39:45.7	301.100	-0.080	-0.420	0.000
2020/01/31 11:39:45.8	301.130	-0.080	-0.450	-0.020
2020/01/31 11:39:45.9	301.160	-0.080	-0.490	-0.030
2020/01/31 11:39:46.0	301.190	-0.080	-0.520	-0.040
2020/01/31 11:39:46.1	301.210	-0.080	-0.550	-0.050
2020/01/31 11:39:46.2	301.240	-0.080	-0.570	-0.050
2020/01/31 11:39:46.3	301.260	-0.080	-0.600	-0.060
2020/01/31 11:39:46.4	301.290	-0.080	-0.630	-0.050
2020/01/31 11:39:46.5	301.300	-0.080	-0.650	-0.050
2020/01/31 11:39:46.6	301.320	-0.080	-0.670	-0.040
2020/01/31 11:39:46.7	301.340	-0.080	-0.690	-0.030
2020/01/31 11:39:46.8	301.350	-0.080	-0.700	-0.010
2020/01/31 11:39:46.9	301.370	-0.080	-0.720	0.000
2020/01/31 11:39:47.0	301.380	-0.080	-0.730	0.020
2020/01/31 11:39:47.1	301.390	-0.090	-0.740	0.050
2020/01/31 11:39:47.2	301.400	-0.090	-0.740	0.070
2020/01/31 11:39:47.3	301.410	-0.090	-0.740	0.100
2020/01/31 11:39:47.4	301.420	-0.090	-0.740	0.130
2020/01/31 11:39:47.5	301.430	-0.090	-0.740	0.170
2020/01/31 11:39:47.6	301.430	-0.100	-0.730	0.200
2020/01/31 11:39:47.7	301.430	-0.100	-0.730	0.240
2020/01/31 11:39:47.8	301.430	-0.100	-0.720	0.270
2020/01/31 11:39:47.9	301.430	-0.110	-0.700	0.310
2020/01/31 11:39:48.0	301.430	-0.110	-0.690	0.350
2020/01/31 11:39:48.1	301.430	-0.110	-0.670	0.390
2020/01/31 11:39:48.2	301.420	-0.120	-0.650	0.430
2020/01/31 11:39:48.3	301.410	-0.120	-0.630	0.480
2020/01/31 11:39:48.4	301.410	-0.130	-0.610	0.520
2020/01/31 11:39:48.5	301.410	-0.130	-0.580	0.560
2020/01/31 11:39:48.6	301.400	-0.140	-0.550	0.610
2020/01/31 11:39:48.7	301.390	-0.140	-0.520	0.650
2020/01/31 11:39:48.8	301.370	-0.150	-0.490	0.690
2020/01/31 11:39:48.9	301.350	-0.150	-0.460	0.730
2020/01/31 11:39:49.0	301.340	-0.160	-0.430	0.770
2020/01/31 11:39:49.1	301.320	-0.160	-0.390	0.810
2020/01/31 11:39:49.2	301.300	-0.170	-0.360	0.840
2020/01/31 11:39:49.3	301.270	-0.170	-0.330	0.880
2020/01/31 11:39:49.4	301.250	-0.180	-0.300	0.910
2020/01/31 11:39:49.5	301.230	-0.180	-0.270	0.940
2020/01/31 11:39:49.6	301.200	-0.190	-0.240	0.970
2020/01/31 11:39:49.7	301.180	-0.190	-0.210	0.990
2020/01/31 11:39:49.8	301.150	-0.200	-0.180	1.010
2020/01/31 11:39:49.9	301.130	-0.200	-0.160	1.030
2020/01/31 11:39:50.0	301.100	-0.200	-0.130	1.040
2020/01/31 11:39:50.1	301.080	-0.210	-0.110	1.050
2020/01/31 11:39:50.2	301.060	-0.210	-0.090	1.050
2020/01/31 11:39:50.3	301.040	-0.210	-0.080	1.050
2020/01/31 11:39:50.4	301.010	-0.210	-0.060	1.050
2020/01/31 11:39:50.5	300.990	-0.220	-0.050	1.040
2020/01/31 11:39:50.6	300.970	-0.220	-0.040	1.030
2020/01/31 11:39:50.7	300.960	-0.220	-0.040	1.010
2020/01/31 11:39:50.8	300.940	-0.220	-0.030	0.990
2020/01/31 11:39:50.9	300.930	-0.220	-0.030	0.970
2020/01/31 11:39:51.0	300.910	-0.210	-0.030	0.950
2020/01/31 11:39:51.1	300.900	-0.210	-0.040	0.920
2020/01/31 11:39:51.2	300.890	-0.210	-0.040	0.900
2020/01/31 11:39:51.3	300.880	-0.210	-0.050	0.870
2020/01/31 11:39:51.4	300.870	-0.200	-0.060	0.830
2020/01/31 11:39:51.5	300.870	-0.200	-0.070	0.800
2020/01/31 11:39:51.6	300.870	-0.190	-0.080	0.770
2020/01/31 11:39:51.7	300.860	-0.190	-0.090	0.740
2020/01/31 11:39:51.8	300.860	-0.180	-0.100	0.700
2020/01/31 11:39:51.9	300.860	-0.180	-0.110	0.670
2020/01/31 11:39:52.0	300.860	-0.170	-0.120	0.630
2020/01/31 11:39:52.1	300.850	-0.170	-0.120	0.600
2020/01/31 11:39:52.2	300.850	-0.160	-0.130	0.570
2020/01/31 11:39:52.3	300.850	-0.150	-0.140	0.530
2020/01/31 11:39:52.4	300.860	-0.150	-0.140	0.500
2020/01/31 11:39:52.5	300.850	-0.140	-0.140	0.470
2020/01/31 11:39:52.6	300.850	-0.130	-0.140	0.440
2020/01/31 11:39:52.7	300.850	-0.120	-0.130	0.410
2020/01/31 11:39:52.8	300.850	-0.120	-0.130	0.380
2020/01/31 11:39:52.9	300.850	-0.110	-0.120	0.360
2020/01/31 11:39:53.0	300.860	-0.100	-0.110	0.330
2020/01/31 11:39:53.1	300.860	-0.090	-0.100	0.310
2020/01/31 11:39:53.2	300.860	-0.080	-0.090	0.290
2020/01/31 11:39:53.3	300.860	-0.080	-0.070	0.280
2020/01/31 11:39:53.4	300.870	-0.070	-0.050	0.260
2020/01/31 11:39:53.5	300.860	-0.060	-0.030	0.250
2020/01/31 11:39:53.6	300.860	-0.050	-0.010	0.240
2020/01/31 11:39:53.7	300.860	-0.040	0.010	0.230
2020/01/31 11:39:53.8	300.860	-0.030	0.040	0.230
2020/01/31 11:39:53.9	300.870	-0.020	0.060	0.220
2020/01/31 11:39:54.0	300.870	-0.010	0.080	0.220
2020/01/31 11:39:54.1	300.870	0.010	0.110	0.220
2020/01/31 11:39:54.2	300.870	0.020	0.130	0.220
2020/01/31 11:39:54.3	300.880	0.030	0.150	0.230
2020/01/31 11:39:54.4	300.880	0.040	0.170	0.230
2020/01/31 11:39:54.5	300.880	0.060	0.190	0.240
2020/01/31 11:39:54.6	300.890	0.070	0.210	0.240
2020/01/31 11:39:54.7	300.890	0.080	0.220	0.250
2020/01/31 11:39:54.8	300.900	0.100	0.240	0.260
2020/01/31 11:39:54.9	300.910	0.110	0.250	0.270
2020/01/31 11:39:55.0	300.920	0.130	0.250	0.270
2020/01/31 11:39:55.1	300.920	0.140	0.260	0.280
2020/01/31 11:39:55.2	300.930	0.160	0.260	0.290
2020/01/31 11:39:55.3	300.940	0.170	0.260	0.300
2020/01/31 11:39:55.4	300.950	0.190	0.260	0.310
2020/01/31 11:39:55.5	300.960	0.200	0.260	0.320
2020/01/31 11:39:55.6	300.970	0.220	0.250	0.330
2020/01/31 11:39:55.7	300.980	0.230	0.250	0.340
2020/01/31 11:39:55.8	300.990	0.250	0.240	0.350
2020/01/31 11:39:55.9	301.000	0.260	0.230	0.360
2020/01/31 11:39:56.0	301.010	0.280	0.210	0.380
2020/01/31 11:39:56.1	301.020	0.290	0.200	0.390
2020/01/31 11:39:56.2	301.030	0.310	0.190	0.400
2020/01/31 11:39:56.3	301.040	0.320	0.170	0.410
2020/01/31 11:39:56.4	301.060	0.330	0.150	0.420
2020/01/31 11:39:56.5	301.060	0.340	0.140	0.440
2020/01/31 11:39:56.6	301.070	0.350	0.120	0.450
2020/01/31 11:39:56.7	301.080	0.360	0.100	0.460
2020/01/31 11:39:56.8	301.090	0.370	0.080	0.480
2020/01/31 11:39:56.9	301.090	0.380	0.060	0.490
2020/01/31 11:39:57.0	301.100	0.390	0.040	0.500
2020/01/31 11:39:57.1	301.110	0.390	0.020	0.510
2020/01/31 11:39:57.2	301.110	0.400	-0.010	0.520
2020/01/31 11:39:57.3	301.120	0.400	-0.030	0.530
2020/01/31 11:39:57.4	301.120	0.410	-0.050	0.540
2020/01/31 11:39:57.5	301.130	0.410	-0.080	0.550
2020/01/31 11:39:57.6	301.130	0.410	-0.100	0.560
2020/01/31 11:39:57.7	301.130	0.410	-0.130	0.560
2020/01/31 11:39:57.8	301.140	0.400	-0.160	0.560
2020/01/31 11:39:57.9	301.140	0.400	-0.190	0.570
2020/01/31 11:39:58.0	301.140	0.390	-0.220	0.560
2020/01/31 11:39:58.1	301.150	0.390	-0.250	0.560
2020/01/31 11:39:58.2	301.150	0.380	-0.280	0.560
2020/01/31 11:39:58.3	301.150	0.370	-0.310	0.560
2020/01/31 11:39:58.4	301.160	0.360	-0.340	0.550
2020/01/31 11:39:58.5	301.170	0.350	-0.370	0.540
2020/01/31 11:39:58.6	301.170	0.340	-0.400	0.530
2020/01/31 11:39:58.7	301.170	0.320	-0.430	0.520
2020/01/31 11:39:58.8	301.170	0.310	-0.460	0.520
2020/01/31 11:39:58.9	301.170	0.290	-0.490	0.510
2020/01/31 11:39:59.0	301.170	0.280	-0.520	0.500
2020/01/31 11:39:59.1	301.170	0.260	-0.550	0.490
2020/01/31 11:39:59.2	301.160	0.250	-0.580	0.470
2020/01/31 11:39:59.3	301.160	0.230	-0.610	0.460
2020/01/31 11:39:59.4	301.160	0.210	-0.640	0.450
2020/01/31 11:39:59.5	301.150	0.190	-0.660	0.450
2020/01/31 11:39:59.6	301.150	0.170	-0.690	0.440
2020/01/31 11:39:59.7	301.140	0.150	-0.710	0.430
2020/01/31 11:39:59.8	301.140	0.130	-0.730	0.420
2020/01/31 11:39:59.9	301.130	0.110	-0.750	0.410
2020/01/31 11:40:00.0	301.120	0.090	-0.770	0.400
2020/01/31 11:40:00.1	301.120	0.070	-0.790	0.390
2020/01/31 11:40:00.2	301.110	0.050	-0.810	0.380
2020/01/31 11:40:00.3	301.100	0.030	-0.820	0.370
2020/01/31 11:40:00.4	301.090	0.010	-0.840	0.360
2020/01/31 11:40:00.5	301.090	-0.010	-0.860	0.340
2020/01/31 11:40:00.6	301.080	-0.030	-0.870	0.330
2020/01/31 11:40:00.7	301.070	-0.050	-0.880	0.320
2020/01/31 11:40:00.8	301.060	-0.070	-0.890	0.310
2020/01/31 11:40:00.9	301.050	-0.080	-0.900	0.290
2020/01/31 11:40:01.0	301.040	-0.100	-0.910	0.280
2020/01/31 11:40:01.1	301.030	-0.120	-0.920	0.260
2020/01/31 11:40:01.2	301.020	-0.140	-0.930	0.250
2020/01/31 11:40:01.3	301.010	-0.150	-0.940	0.230
2020/01/31 11:40:01.4	301.010	-0.170	-0.940	0.210
2020/01/31 11:40:01.5	301.010	-0.190	-0.950	0.200
2020/01/31 11:40:01.6	301.010	-0.200	-0.950	0.170
2020/01/31 11:40:01.7	301.010	-0.210	-0.960	0.150
2020/01/31 11:40:01.8	301.010	-0.230	-0.960	0.130
2020/01/31 11:40:01.9	301.010	-0.240	-0.960	0.110
2020/01/31 11:40:02.0	301.010	-0.250	-0.960	0.080
2020/01/31 11:40:02.1	301.010	-0.260	-0.960	0.060
2020/01/31 11:40:02.2	301.010	-0.270	-0.960	0.040
2020/01/31 11:40:02.3	301.010	-0.270	-0.950	0.010
2020/01/31 11:40:02.4	301.020	-0.280	-0.940	-0.010
2020/01/31 11:40:02.5	301.020	-0.290	-0.940	-0.030
2020/01/31 11:40:02.6	301.030	-0.290	-0.930	-0.060
2020/01/31 11:40:02.7	301.030	-0.300	-0.910	-0.080
2020/01/31 11:40:02.8	301.040	-0.300	-0.890	-0.100
2020/01/31 11:40:02.9	301.040	-0.300	-0.870	-0.110
2020/01/31 11:40:03.0	301.050	-0.300	-0.850	-0.130
2020/01/31 11:40:03.1	301.060	-0.300	-0.830	-0.140
2020/01/31 11:40:03.2	301.060	-0.300	-0.800	-0.150
2020/01/31 11:40:03.3	301.070	-0.300	-0.760	-0.160
2020/01/31 11:40:03.4	301.070	-0.300	-0.730	-0.170
2020/01/31 11:40:03.5	301.080	-0.300	-0.690	-0.170
2020/01/31 11:40:03.6	301.090	-0.290	-0.650	-0.170
2020/01/31 11:40:03.7	301.090	-0.290	-0.610	-0.170
2020/01/31 11:40:03.8	301.090	-0.290	-0.560	-0.170
2020/01/31 11:40:03.9	301.090	-0.280	-0.510	-0.160
2020/01/31 11:40:04.0	301.100	-0.280	-0.460	-0.160
2020/01/31 11:40:04.1	301.100	-0.270	-0.410	-0.150
2020/01/31 11:40:04.2	301.100	-0.270	-0.360	-0.140
2020/01/31 11:40:04.3	301.100	-0.260	-0.310	-0.130
2020/01/31 11:40:04.4	301.100	-0.260	-0.250	-0.110
2020/01/31 11:40:04.5	301.090	-0.250	-0.200	-0.100
2020/01/31 11:40:04.6	301.090	-0.250	-0.150	-0.080
2020/01/31 11:40:04.7	301.090	-0.240	-0.090	-0.060
2020/01/31 11:40:04.8	301.080	-0.230	-0.040	-0.040
2020/01/31 11:40:04.9	301.080	-0.230	0.010	-0.020
2020/01/31 11:40:05.0	301.080	-0.220	0.060	0.000
2020/01/31 11:40:05.1	301.080	-0.210	0.110	0.030
2020/01/31 11:40:05.2	301.070	-0.200	0.160	0.050
2020/01/31 11:40:05.3	301.070	-0.200	0.200	0.080
2020/01/31 11:40:05.4	301.070	-0.190	0.240	0.110
2020/01/31 11:40:05.5	301.070	-0.180	0.290	0.140
2020/01/31 11:40:05.6	301.060	-0.170	0.330	0.170
2020/01/31 11:40:05.7	301.060	-0.160	0.360	0.200
2020/01/31 11:40:05.8	301.050	-0.150	0.390	0.230
2020/01/31 11:40:05.9	301.050	-0.130	0.420	0.260
2020/01/31 11:40:06.0	301.050	-0.120	0.450	0.300
2020/01/31 11:40:06.1	301.040	-0.110	0.470	0.330
2020/01/31 11:40:06.2	301.040	-0.100	0.500	0.370
2020/01/31 11:40:06.3	301.030	-0.080	0.520	0.400
2020/01/31 11:40:06.4	301.030	-0.070	0.530	0.440
2020/01/31 11:40:06.5	301.010	-0.050	0.550	0.470
2020/01/31 11:40:06.6	301.010	-0.040	0.560	0.510
2020/01/31 11:40:06.7	301.000	-0.020	0.570	0.550
2020/01/31 11:40:06.8	301.000	-0.010	0.570	0.580
2020/01/31 11:40:06.9	300.990	0.010	0.580	0.620
2020/01/31 11:40:07.0	300.980	0.020	0.580	0.650
2020/01/31 11:40:07.1	300.980	0.040	0.580	0.690
2020/01/31 11:40:07.2	300.970	0.060	0.580	0.720
2020/01/31 11:40:07.3	300.960	0.070	0.570	0.750
2020/01/31 11:40:07.4	300.960	0.090	0.560	0.780
2020/01/31 11:40:07.5	300.930	0.100	0.550	0.810
2020/01/31 11:40:07.6	300.920	0.120	0.540	0.840
2020/01/31 11:40:07.7	300.920	0.140	0.530	0.860
2020/01/31 11:40:07.8	300.910	0.150	0.510	0.890
2020/01/31 11:40:07.9	300.900	0.160	0.490	0.910
2020/01/31 11:40:08.0	300.890	0.180	0.470	0.930
2020/01/31 11:40:08.1	300.880	0.190	0.450	0.950
2020/01/31 11:40:08.2	300.870	0.200	0.420	0.960
2020/01/31 11:40:08.3	300.860	0.210	0.390	0.980
2020/01/31 11:40:08.4	300.850	0.220	0.370	0.990
2020/01/31 11:40:08.5	300.850	0.230	0.340	1.010
2020/01/31 11:40:08.6	300.840	0.230	0.310	1.010
2020/01/31 11:40:08.7	300.830	0.240	0.280	1.020
2020/01/31 11:40:08.8	300.820	0.240	0.250	1.020
2020/01/31 11:40:08.9	300.810	0.240	0.220	1.020
2020/01/31 11:40:09.0	300.800	0.240	0.190	1.020
2020/01/31 11:40:09.1	300.790	0.240	0.160	1.010
2020/01/31 11:40:09.2	300.790	0.240	0.130	1.010
2020/01/31 11:40:09.3	300.780	0.230	0.100	1.000
2020/01/31 11:40:09.4	300.770	0.230	0.070	0.990
2020/01/31 11:40:09.5	300.760	0.220	0.050	0.970
2020/01/31 11:40:09.6	300.760	0.210	0.020	0.960
2020/01/31 11:40:09.7	300.750	0.200	-0.000	0.940
2020/01/31 11:40:09.8	300.740	0.190	-0.030	0.930
2020/01/31 11:40:09.9	300.740	0.180	-0.050	0.910
2020/01/31 11:40:10.0	300.730	0.160	-0.070	0.890
2020/01/31 11:40:10.1	300.730	0.150	-0.090	0.870
2020/01/31 11:40:10.2	300.720	0.130	-0.100	0.840
2020/01/31 11:40:10.3	300.720	0.110	-0.120	0.820
2020/01/31 11:40:10.4	300.720	0.100	-0.130	0.790
2020/01/31 11:40:10.5	300.720	0.080	-0.150	0.770
2020/01/31 11:40:10.6	300.710	0.060	-0.160	0.740
2020/01/31 11:40:10.7	300.710	0.040	-0.170	0.720
2020/01/31 11:40:10.8	300.710	0.020	-0.190	0.690
2020/01/31 11:40:10.9	300.700	0.000	-0.200	0.660
2020/01/31 11:40:11.0	300.700	-0.010	-0.210	0.630
2020/01/31 11:40:11.1	300.690	-0.030	-0.220	0.610
2020/01/31 11:40:11.2	300.690	-0.050	-0.230	0.580
2020/01/31 11:40:11.3	300.690	-0.070	-0.240	0.550
2020/01/31 11:40:11.4	300.680	-0.080	-0.250	0.520
2020/01/31 11:40:11.5	300.690	-0.100	-0.260	0.490
2020/01/31 11:40:11.6	300.680	-0.110	-0.280	0.460
2020/01/31 11:40:11.7	300.680	-0.120	-0.290	0.430
2020/01/31 11:40:11.8	300.680	-0.130	-0.310	0.410
2020/01/31 11:40:11.9	300.680	-0.140	-0.320	0.380
2020/01/31 11:40:12.0	300.670	-0.150	-0.340	0.350
2020/01/31 11:40:12.1	300.670	-0.160	-0.360	0.320
2020/01/31 11:40:12.2	300.670	-0.160	-0.390	0.290
2020/01/31 11:40:12.3	300.670	-0.170	-0.410	0.260
2020/01/31 11:40:12.4	300.680	-0.170	-0.440	0.230
2020/01/31 11:40:12.5	300.670	-0.170	-0.480	0.200
2020/01/31 11:40:12.6	300.680	-0.160	-0.510	0.170
2020/01/31 11:40:12.7	300.680	-0.160	-0.550	0.140
2020/01/31 11:40:12.8	300.690	-0.150	-0.590	0.110
2020/01/31 11:40:12.9	300.690	-0.140	-0.630	0.080
2020/01/31 11:40:13.0	300.700	-0.130	-0.670	0.050
2020/01/31 11:40:13.1	300.710	-0.120	-0.720	0.020
2020/01/31 11:40:13.2	300.710	-0.110	-0.760	-0.010
2020/01/31 11:40:13.3	300.720	-0.090	-0.810	-0.040
2020/01/31 11:40:13.4	300.730	-0.080	-0.850	-0.060
2020/01/31 11:40:13.5	300.730	-0.060	-0.900	-0.090
2020/01/31 11:40:13.6	300.740	-0.040	-0.950	-0.110
2020/01/31 11:40:13.7	300.750	-0.020	-0.990	-0.130
2020/01/31 11:40:13.8	300.760	0.000	-1.040	-0.140
2020/01/31 11:40:13.9	300.770	0.020	-1.080	-0.160
2020/01/31 11:40:14.0	300.780	0.050	-1.120	-0.170
2020/01/31 11:40:14.1	300.790	0.070	-1.160	-0.180
2020/01/31 11:40:14.2	300.800	0.090	-1.200	-0.190
2020/01/31 11:40:14.3	300.800	0.120	-1.230	-0.190
2020/01/31 11:40:14.4	300.810	0.140	-1.260	-0.190
2020/01/31 11:40:14.5	300.830	0.160	-1.280	-0.190
2020/01/31 11:40:14.6	300.840	0.180	-1.300	-0.190
2020/01/31 11:40:14.7	300.850	0.200	-1.310	-0.180
2020/01/31 11:40:14.8	300.860	0.220	-1.320	-0.170
2020/01/31 11:40:14.9	300.860	0.240	-1.330	-0.150
2020/01/31 11:40:15.0	300.870	0.260	-1.320	-0.140
2020/01/31 11:40:15.1	300.880	0.280	-1.320	-0.120
2020/01/31 11:40:15.2	300.890	0.290	-1.300	-0.100
2020/01/31 11:40:15.3	300.890	0.310	-1.290	-0.070
2020/01/31 11:40:15.4	300.900	0.320	-1.260	-0.040
2020/01/31 11:40:15.5	300.920	0.330	-1.230	-0.010
2020/01/31 11:40:15.6	300.920	0.340	-1.200	0.020
2020/01/31 11:40:15.7	300.930	0.340	-1.160	0.050
2020/01/31 11:40:15.8	300.930	0.340	-1.120	0.090
2020/01/31 11:40:15.9	300.940	0.340	-1.070	0.120
2020/01/31 11:40:16.0	300.940	0.340	-1.020	0.160
2020/01/31 11:40:16.1	300.940	0.340	-0.960	0.200
2020/01/31 11:40:16.2	300.950	0.330	-0.910	0.240
2020/01/31 11:40:16.3	300.950	0.320	-0.850	0.280
2020/01/31 11:40:16.4	300.950	0.310	-0.790	0.320
2020/01/31 11:40:16.5	300.950	0.300	-0.720	0.360
2020/01/31 11:40:16.6	300.960	0.280	-0.650	0.400
2020/01/31 11:40:16.7	300.960	0.270	-0.590	0.440
2020/01/31 11:40:16.8	300.960	0.250	-0.520	0.490
2020/01/31 11:40:16.9	300.960	0.230	-0.460	0.530
2020/01/31 11:40:17.0	300.960	0.200	-0.390	0.570
2020/01/31 11:40:17.1	300.960	0.180	-0.330	0.610
2020/01/31 11:40:17.2	300.960	0.160	-0.260	0.650
2020/01/31 11:40:17.3	300.960	0.130	-0.200	0.690
2020/01/31 11:40:17.4	300.950	0.100	-0.140	0.730
2020/01/31 11:40:17.5	300.940	0.080	-0.080	0.770
2020/01/31 11:40:17.6	300.940	0.050	-0.020	0.810
2020/01/31 11:40:17.7	300.930	0.020	0.040	0.850
2020/01/31 11:40:17.8	300.920	-0.000	0.100	0.890
2020/01/31 11:40:17.9	300.920	-0.030	0.150	0.920
2020/01/31 11:40:18.0	300.910	-0.060	0.200	0.960
2020/01/31 11:40:18.1	300.900	-0.080	0.250	0.990
2020/01/31 11:40:18.2	300.890	-0.110	0.300	1.030
2020/01/31 11:40:18.3	300.880	-0.130	0.340	1.060
2020/01/31 11:40:18.4	300.860	-0.150	0.390	1.090
2020/01/31 11:40:18.5	300.840	-0.170	0.430	1.110
2020/01/31 11:40:18.6	300.830	-0.190	0.470	1.140
2020/01/31 11:40:18.7	300.810	-0.210	0.500	1.160
2020/01/31 11:40:18.8	300.800	-0.230	0.530	1.180
2020/01/31 11:40:18.9	300.790	-0.240	0.560	1.200
2020/01/31 11:40:19.0	300.770	-0.250	0.580	1.220
2020/01/31 11:40:19.1	300.760	-0.260	0.600	1.240
2020/01/31 11:40:19.2	300.740	-0.270	0.620	1.250
2020/01/31 11:40:19.3	300.720	-0.270	0.630	1.260
2020/01/31 11:40:19.4	300.710	-0.280	0.650	1.270
2020/01/31 11:40:19.5	300.700	-0.280	0.650	1.280
2020/01/31 11:40:19.6	300.680	-0.280	0.660	1.280
2020/01/31 11:40:19.7	300.660	-0.270	0.660	1.290
2020/01/31 11:40:19.8	300.640	-0.270	0.670	1.290
2020/01/31 11:40:19.9	300.620	-0.260	0.660	1.280
2020/01/31 11:40:20.0	300.600	-0.260	0.660	1.280
2020/01/31 11:40:20.1	300.580	-0.250	0.660	1.270
2020/01/31 11:40:20.2	300.560	-0.240	0.650	1.260
2020/01/31 11:40:20.3	300.540	-0.230	0.640	1.240
2020/01/31 11:40:20.4	300.520	-0.220	0.630	1.220
2020/01/31 11:40:20.5	300.500	-0.200	0.620	1.210
2020/01/31 11:40:20.6	300.480	-0.190	0.600	1.190
2020/01/31 11:40:20.7	300.460	-0.180	0.590	1.160
2020/01/31 11:40:20.8	300.440	-0.160	0.570	1.130
2020/01/31 11:40:20.9	300.420	-0.150	0.550	1.100
2020/01/31 11:40:21.0	300.410	-0.140	0.530	1.070
2020/01/31 11:40:21.1	300.390	-0.120	0.510	1.030
2020/01/31 11:40:21.2	300.380	-0.110	0.490	0.990
2020/01/31 11:40:21.3	300.370	-0.100	0.460	0.950
2020/01/31 11:40:21.4	300.360	-0.090	0.430	0.900
2020/01/31 11:40:21.5	300.360	-0.070	0.400	0.850
2020/01/31 11:40:21.6	300.360	-0.060	0.370	0.800
2020/01/31 11:40:21.7	300.350	-0.050	0.340	0.750
2020/01/31 11:40:21.8	300.350	-0.050	0.310	0.690
2020/01/31 11:40:21.9	300.350	-0.040	0.270	0.640
2020/01/31 11:40:22.0	300.350	-0.030	0.230	0.580
2020/01/31 11:40:22.1	300.360	-0.030	0.200	0.520
2020/01/31 11:40:22.2	300.360	-0.020	0.160	0.470
2020/01/31 11:40:22.3	300.370	-0.020	0.120	0.410
2020/01/31 11:40:22.4	300.380	-0.010	0.080	0.350
2020/01/31 11:40:22.5	300.390	-0.010	0.040	0.300
2020/01/31 11:40:22.6	300.400	-0.010	-0.000	0.240
2020/01/31 11:40:22.7	300.420	-0.010	-0.050	0.190
2020/01/31 11:40:22.8	300.430	-0.010	-0.090	0.130
2020/01/31 11:40:22.9	300.450	-0.010	-0.130	0.080
2020/01/31 11:40:23.0	300.470	-0.010	-0.170	0.030
2020/01/31 11:40:23.1	300.480	-0.010	-0.210	-0.020
2020/01/31 11:40:23.2	300.500	-0.010	-0.250	-0.070
2020/01/31 11:40:23.3	300.520	-0.010	-0.280	-0.110
2020/01/31 11:40:23.4	300.550	-0.020	-0.320	-0.150
2020/01/31 11:40:23.5	300.550	-0.020	-0.360	-0.190
2020/01/31 11:40:23.6	300.580	-0.020	-0.400	-0.220
2020/01/31 11:40:23.7	300.600	-0.020	-0.440	-0.250
2020/01/31 11:40:23.8	300.620	-0.020	-0.470	-0.270
2020/01/31 11:40:23.9	300.640	-0.020	-0.500	-0.290
2020/01/31 11:40:24.0	300.670	-0.020	-0.540	-0.310
2020/01/31 11:40:24.1	300.690	-0.010	-0.570	-0.320
2020/01/31 11:40:24.2	300.710	-0.010	-0.600	-0.320
2020/01/31 11:40:24.3	300.730	-0.010	-0.620	-0.320
2020/01/31 11:40:24.4	300.760	-0.000	-0.650	-0.320
2020/01/31 11:40:24.5	300.780	0.000	-0.680	-0.310
2020/01/31 11:40:24.6	300.800	0.010	-0.710	-0.290
2020/01/31 11:40:24.7	300.820	0.020	-0.730	-0.280
2020/01/31 11:40:24.8	300.840	0.030	-0.760	-0.250
2020/01/31 11:40:24.9	300.850	0.040	-0.780	-0.230
2020/01/31 11:40:25.0	300.870	0.050	-0.800	-0.200
2020/01/31 11:40:25.1	300.890	0.060	-0.830	-0.160
2020/01/31 11:40:25.2	300.900	0.070	-0.850	-0.130
2020/01/31 11:40:25.3	300.910	0.080	-0.870	-0.090
2020/01/31 11:40:25.4	300.920	0.100	-0.890	-0.050
2020/01/31 11:40:25.5	300.930	0.110	-0.910	-0.000
2020/01/31 11:40:25.6	300.940	0.130	-0.930	0.040
2020/01/31 11:40:25.7	300.940	0.140	-0.950	0.090
2020/01/31 11:40:25.8	300.950	0.150	-0.970	0.130
2020/01/31 11:40:25.9	300.950	0.170	-0.980	0.180
2020/01/31 11:40:26.0	300.950	0.180	-0.990	0.230
2020/01/31 11:40:26.1	300.950	0.200	-1.010	0.280
2020/01/31 11:40:26.2	300.950	0.210	-1.020	0.330
2020/01/31 11:40:26.3	300.940	0.220	-1.020	0.380
2020/01/31 11:40:26.4	300.940	0.230	-1.030	0.430
2020/01/31 11:40:26.5	300.920	0.240	-1.030	0.480
2020/01/31 11:40:26.6	300.920	0.250	-1.030	0.520
2020/01/31 11:40:26.7	300.910	0.260	-1.030	0.570
2020/01/31 11:40:26.8	300.900	0.260	-1.030	0.620
2020/01/31 11:40:26.9	300.890	0.270	-1.020	0.660
2020/01/31 11:40:27.0	300.880	0.270	-1.010	0.700
2020/01/31 11:40:27.1	300.870	0.270	-0.990	0.740
2020/01/31 11:40:27.2	300.860	0.270	-0.980	0.780
2020/01/31 11:40:27.3	300.840	0.270	-0.960	0.820
2020/01/31 11:40:27.4	300.830	0.260	-0.930	0.850
2020/01/31 11:40:27.5	300.810	0.260	-0.910	0.890
2020/01/31 11:40:27.6	300.800	0.250	-0.880	0.910
2020/01/31 11:40:27.7	300.790	0.240	-0.850	0.940
2020/01/31 11:40:27.8	300.780	0.230	-0.810	0.970
2020/01/31 11:40:27.9	300.770	0.210	-0.770	0.990
2020/01/31 11:40:28.0	300.750	0.200	-0.740	1.000
2020/01/31 11:40:28.1	300.740	0.180	-0.690	1.020
2020/01/31 11:40:28.2	300.730	0.160	-0.650	1.030
2020/01/31 11:40:28.3	300.720	0.140	-0.610	1.040
2020/01/31 11:40:28.4	300.710	0.120	-0.560	1.050
2020/01/31 11:40:28.5	300.700	0.100	-0.510	1.060
2020/01/31 11:40:28.6	300.680	0.080	-0.460	1.060
2020/01/31 11:40:28.7	300.670	0.060	-0.420	1.060
2020/01/31 11:40:28.8	300.660	0.030	-0.370	1.060
2020/01/31 11:40:28.9	300.650	0.010	-0.320	1.060
2020/01/31 11:40:29.0	300.640	-0.020	-0.270	1.060
2020/01/31 11:40:29.1	300.620	-0.040	-0.220	1.050
2020/01/31 11:40:29.2	300.610	-0.060	-0.170	1.050
2020/01/31 11:40:29.3	300.600	-0.090	-0.120	1.040
2020/01/31 11:40:29.4	300.590	-0.110	-0.070	1.030
2020/01/31 11:40:29.5	300.580	-0.130	-0.020	1.020
2020/01/31 11:40:29.6	300.570	-0.160	0.020	1.010
2020/01/31 11:40:29.7	300.560	-0.180	0.060	0.990
2020/01/31 11:40:29.8	300.560	-0.200	0.100	0.980
2020/01/31 11:40:29.9	300.550	-0.210	0.140	0.960
2020/01/31 11:40:30.0	300.540	-0.230	0.170	0.940
2020/01/31 11:40:30.1	300.540	-0.240	0.200	0.920
2020/01/31 11:40:30.2	300.540	-0.260	0.230	0.900
2020/01/31 11:40:30.3	300.540	-0.270	0.260	0.880
2020/01/31 11:40:30.4	300.540	-0.280	0.280	0.860
2020/01/31 11:40:30.5	300.540	-0.290	0.290	0.830
2020/01/31 11:40:30.6	300.550	-0.290	0.310	0.810
2020/01/31 11:40:30.7	300.550	-0.300	0.320	0.790
2020/01/31 11:40:30.8	300.560	-0.300	0.330	0.760
2020/01/31 11:40:30.9	300.560	-0.300	0.340	0.740
2020/01/31 11:40:31.0	300.570	-0.300	0.350	0.710
2020/01/31 11:40:31.1	300.580	-0.290	0.350	0.680
2020/01/31 11:40:31.2	300.590	-0.290	0.350	0.660
2020/01/31 11:40:31.3	300.600	-0.280	0.350	0.630
2020/01/31 11:40:31.4	300.610	-0.270	0.340	0.610
2020/01/31 11:40:31.5	300.620	-0.260	0.340	0.590
2020/01/31 11:40:31.6	300.630	-0.250	0.330	0.560
2020/01/31 11:40:31.7	300.640	-0.240	0.330	0.540
2020/01/31 11:40:31.8	300.650	-0.230	0.320	0.520
2020/01/31 11:40:31.9	300.660	-0.210	0.310	0.500
2020/01/31 11:40:32.0	300.680	-0.200	0.290	0.480
2020/01/31 11:40:32.1	300.690	-0.180	0.280	0.460
2020/01/31 11:40:32.2	300.700	-0.160	0.270	0.450
2020/01/31 11:40:32.3	300.710	-0.150	0.260	0.430
2020/01/31 11:40:32.4	300.720	-0.130	0.240	0.420
2020/01/31 11:40:32.5	300.720	-0.110	0.230	0.410
2020/01/31 11:40:32.6	300.730	-0.090	0.220	0.400
2020/01/31 11:40:32.7	300.740	-0.070	0.210	0.390
2020/01/31 11:40:32.8	300.750	-0.050	0.190	0.380
2020/01/31 11:40:32.9	300.760	-0.030	0.180	0.380
2020/01/31 11:40:33.0	300.760	-0.020	0.170	0.370
2020/01/31 11:40:33.1	300.770	0.000	0.160	0.370
2020/01/31 11:40:33.2	300.780	0.020	0.140	0.370
2020/01/31 11:40:33.3	300.780	0.040	0.130	0.370
2020/01/31 11:40:33.4	300.790	0.050	0.110	0.370
2020/01/31 11:40:33.5	300.790	0.070	0.100	0.370
2020/01/31 11:40:33.6	300.790	0.080	0.080	0.370
2020/01/31 11:40:33.7	300.790	0.090	0.070	0.380
2020/01/31 11:40:33.8	300.800	0.110	0.060	0.380
2020/01/31 11:40:33.9	300.800	0.120	0.040	0.390
2020/01/31 11:40:34.0	300.800	0.130	0.020	0.390
2020/01/31 11:40:34.1	300.800	0.140	0.010	0.400
2020/01/31 11:40:34.2	300.800	0.150	-0.010	0.400
2020/01/31 11:40:34.3	300.800	0.160	-0.030	0.410
2020/01/31 11:40:34.4	300.800	0.160	-0.040	0.420
2020/01/31 11:40:34.5	300.800	0.170	-0.060	0.420
2020/01/31 11:40:34.6	300.800	0.180	-0.080	0.430
2020/01/31 11:40:34.7	300.800	0.180	-0.100	0.440
2020/01/31 11:40:34.8	300.790	0.190	-0.110	0.440
2020/01/31 11:40:34.9	300.790	0.190	-0.130	0.450
2020/01/31 11:40:35.0	300.790	0.200	-0.150	0.460
2020/01/31 11:40:35.1	300.790	0.200	-0.170	0.470
2020/01/31 11:40:35.2	300.780	0.200	-0.190	0.470
2020/01/31 11:40:35.3	300.780	0.210	-0.210	0.480
2020/01/31 11:40:35.4	300.770	0.210	-0.240	0.490
2020/01/31 11:40:35.5	300.760	0.210	-0.260	0.500
2020/01/31 11:40:35.6	300.750	0.220	-0.280	0.510
2020/01/31 11:40:35.7	300.750	0.220	-0.300	0.520
2020/01/31 11:40:35.8	300.740	0.230	-0.320	0.520
2020/01/31 11:40:35.9	300.740	0.230	-0.340	0.530
2020/01/31 11:40:36.0	300.740	0.230	-0.360	0.540
2020/01/31 11:40:36.1	300.730	0.240	-0.390	0.550
2020/01/31 11:40:36.2	300.730	0.240	-0.410	0.560
2020/01/31 11:40:36.3	300.730	0.250	-0.430	0.570
2020/01/31 11:40:36.4	300.720	0.250	-0.450	0.580
2020/01/31 11:40:36.5	300.720	0.260	-0.470	0.590
2020/01/31 11:40:36.6	300.710	0.260	-0.490	0.600
2020/01/31 11:40:36.7	300.710	0.270	-0.510	0.610
2020/01/31 11:40:36.8	300.710	0.270	-0.530	0.610
2020/01/31 11:40:36.9	300.700	0.280	-0.550	0.620
2020/01/31 11:40:37.0	300.700	0.280	-0.570	0.630
2020/01/31 11:40:37.1	300.700	0.290	-0.590	0.640
2020/01/31 11:40:37.2	300.690	0.290	-0.610	0.650
2020/01/31 11:40:37.3	300.690	0.290	-0.630	0.660
2020/01/31 11:40:37.4	300.690	0.300	-0.650	0.660
2020/01/31 11:40:37.5	300.680	0.300	-0.670	0.670
2020/01/31 11:40:37.6	300.680	0.300	-0.690	0.680
2020/01/31 11:40:37.7	300.680	0.300	-0.710	0.690
2020/01/31 11:40:37.8	300.670	0.300	-0.720	0.690
2020/01/31 11:40:37.9	300.670	0.300	-0.740	0.700
2020/01/31 11:40:38.0	300.670	0.290	-0.750	0.710
2020/01/31 11:40:38.1	300.660	0.290	-0.770	0.710
2020/01/31 11:40:38.2	300.660	0.280	-0.780	0.720
2020/01/31 11:40:38.3	300.650	0.280	-0.790	0.730
2020/01/31 11:40:38.4	300.650	0.270	-0.800	0.740
2020/01/31 11:40:38.5	300.650	0.260	-0.800	0.740
2020/01/31 11:40:38.6	300.640	0.250	-0.810	0.750
2020/01/31 11:40:38.7	300.630	0.240	-0.810	0.760
2020/01/31 11:40:38.8	300.630	0.220	-0.810	0.770
2020/01/31 11:40:38.9	300.620	0.210	-0.810	0.780
2020/01/31 11:40:39.0	300.610	0.190	-0.800	0.790
2020/01/31 11:40:39.1	300.610	0.170	-0.800	0.810
2020/01/31 11:40:39.2	300.600	0.150	-0.790	0.820
2020/01/31 11:40:39.3	300.590	0.130	-0.780	0.830
2020/01/31 11:40:39.4	300.590	0.110	-0.770	0.840
2020/01/31 11:40:39.5	300.580	0.090	-0.760	0.850
2020/01/31 11:40:39.6	300.570	0.070	-0.740	0.860
2020/01/31 11:40:39.7	300.570	0.040	-0.730	0.870
2020/01/31 11:40:39.8	300.560	0.020	-0.710	0.870
2020/01/31 11:40:39.9	300.550	-0.010	-0.690	0.880
2020/01/31 11:40:40.0	300.550	-0.040	-0.660	0.890
2020/01/31 11:40:40.1	300.540	-0.070	-0.640	0.890
2020/01/31 11:40:40.2	300.530	-0.100	-0.610	0.890
2020/01/31 11:40:40.3	300.530	-0.120	-0.590	0.890
2020/01/31 11:40:40.4	300.520	-0.150	-0.560	0.890
2020/01/31 11:40:40.5	300.540	-0.180	-0.530	0.890
2020/01/31 11:40:40.6	300.530	-0.220	-0.500	0.880
2020/01/31 11:40:40.7	300.530	-0.250	-0.470	0.880
2020/01/31 11:40:40.8	300.530	-0.280	-0.430	0.870
2020/01/31 11:40:40.9	300.530	-0.310	-0.400	0.860
2020/01/31 11:40:41.0	300.530	-0.340	-0.370	0.850
2020/01/31 11:40:41.1	300.530	-0.370	-0.330	0.840
2020/01/31 11:40:41.2	300.530	-0.400	-0.300	0.830
2020/01/31 11:40:41.3	300.530	-0.420	-0.260	0.810
2020/01/31 11:40:41.4	300.540	-0.450	-0.230	0.790
2020/01/31 11:40:41.5	300.540	-0.480	-0.190	0.780
2020/01/31 11:40:41.6	300.550	-0.500	-0.160	0.760
2020/01/31 11:40:41.7	300.550	-0.530	-0.120	0.740
2020/01/31 11:40:41.8	300.560	-0.550	-0.080	0.720
2020/01/31 11:40:41.9	300.560	-0.570	-0.050	0.700
2020/01/31 11:40:42.0	300.570	-0.590	-0.010	0.690
2020/01/31 11:40:42.1	300.570	-0.610	0.020	0.670
2020/01/31 11:40:42.2	300.580	-0.620	0.060	0.650
2020/01/31 11:40:42.3	300.580	-0.640	0.090	0.630
2020/01/31 11:40:42.4	300.590	-0.650	0.120	0.610
2020/01/31 11:40:42.5	300.600	-0.650	0.150	0.590
2020/01/31 11:40:42.6	300.600	-0.660	0.190	0.580
2020/01/31 11:40:42.7	300.600	-0.660	0.220	0.560
2020/01/31 11:40:42.8	300.600	-0.660	0.240	0.550
2020/01/31 11:40:42.9	300.600	-0.660	0.270	0.540
2020/01/31 11:40:43.0	300.600	-0.660	0.300	0.530
2020/01/31 11:40:43.1	300.600	-0.650	0.320	0.520
2020/01/31 11:40:43.2	300.600	-0.640	0.350	0.510
2020/01/31 11:40:43.3	300.600	-0.630	0.370	0.510
2020/01/31 11:40:43.4	300.600	-0.610	0.390	0.500
2020/01/31 11:40:43.5	300.570	-0.590	0.410	0.500
2020/01/31 11:40:43.6	300.570	-0.570	0.420	0.500
2020/01/31 11:40:43.7	300.560	-0.550	0.440	0.500
2020/01/31 11:40:43.8	300.550	-0.520	0.450	0.500
2020/01/31 11:40:43.9	300.550	-0.490	0.460	0.510
2020/01/31 11:40:44.0	300.540	-0.460	0.470	0.520
2020/01/31 11:40:44.1	300.530	-0.430	0.470	0.520
2020/01/31 11:40:44.2	300.520	-0.400	0.470	0.530
2020/01/31 11:40:44.3	300.500	-0.360	0.470	0.540
2020/01/31 11:40:44.4	300.490	-0.330	0.460	0.550
2020/01/31 11:40:44.5	300.480	-0.290	0.460	0.560
2020/01/31 11:40:44.6	300.470	-0.250	0.440	0.580
2020/01/31 11:40:44.7	300.450	-0.210	0.430	0.590
2020/01/31 11:40:44.8	300.440	-0.160	0.410	0.610
2020/01/31 11:40:44.9	300.430	-0.120	0.390	0.620
2020/01/31 11:40:45.0	300.410	-0.080	0.370	0.630
2020/01/31 11:40:45.1	300.400	-0.030	0.340	0.650
2020/01/31 11:40:45.2	300.380	0.010	0.310	0.660
2020/01/31 11:40:45.3	300.370	0.050	0.280	0.670
2020/01/31 11:40:45.4	300.360	0.100	0.250	0.690
2020/01/31 11:40:45.5	300.360	0.140	0.210	0.700
2020/01/31 11:40:45.6	300.350	0.180	0.180	0.710
2020/01/31 11:40:45.7	300.340	0.220	0.140	0.720
2020/01/31 11:40:45.8	300.320	0.260	0.100	0.730
2020/01/31 11:40:45.9	300.310	0.300	0.060	0.740
2020/01/31 11:40:46.0	300.300	0.340	0.020	0.740
2020/01/31 11:40:46.1	300.290	0.380	-0.020	0.750
2020/01/31 11:40:46.2	300.280	0.420	-0.060	0.760
2020/01/31 11:40:46.3	300.270	0.450	-0.100	0.760
2020/01/31 11:40:46.4	300.260	0.480	-0.150	0.760
2020/01/31 11:40:46.5	300.250	0.510	-0.190	0.770
2020/01/31 11:40:46.6	300.240	0.540	-0.230	0.770
2020/01/31 11:40:46.7	300.240	0.560	-0.270	0.770
2020/01/31 11:40:46.8	300.230	0.590	-0.310	0.770
2020/01/31 11:40:46.9	300.230	0.610	-0.350	0.760
2020/01/31 11:40:47.0	300.220	0.630	-0.390	0.760
2020/01/31 11:40:47.1	300.220	0.640	-0.430	0.750
2020/01/31 11:40:47.2	300.220	0.660	-0.460	0.740
2020/01/31 11:40:47.3	300.210	0.670	-0.500	0.730
2020/01/31 11:40:47.4	300.220	0.680	-0.540	0.720
2020/01/31 11:40:47.5	300.220	0.690	-0.570	0.700
2020/01/31 11:40:47.6	300.220	0.690	-0.610	0.690
2020/01/31 11:40:47.7	300.230	0.690	-0.640	0.670
2020/01/31 11:40:47.8	300.230	0.690	-0.670	0.660
2020/01/31 11:40:47.9	300.240	0.690	-0.700	0.640
2020/01/31 11:40:48.0	300.250	0.690	-0.740	0.620
2020/01/31 11:40:48.1	300.260	0.680	-0.760	0.590
2020/01/31 11:40:48.2	300.270	0.670	-0.790	0.570
2020/01/31 11:40:48.3	300.280	0.660	-0.820	0.550
2020/01/31 11:40:48.4	300.290	0.650	-0.850	0.520
2020/01/31 11:40:48.5	300.310	0.640	-0.870	0.500
2020/01/31 11:40:48.6	300.320	0.620	-0.890	0.470
2020/01/31 11:40:48.7	300.340	0.610	-0.920	0.440
2020/01/31 11:40:48.8	300.350	0.590	-0.930	0.410
2020/01/31 11:40:48.9	300.370	0.570	-0.950	0.380
2020/01/31 11:40:49.0	300.390	0.550	-0.970	0.360
2020/01/31 11:40:49.1	300.410	0.530	-0.980	0.330
2020/01/31 11:40:49.2	300.420	0.510	-0.990	0.300
2020/01/31 11:40:49.3	300.440	0.480	-0.990	0.270
2020/01/31 11:40:49.4	300.460	0.460	-1.000	0.250
2020/01/31 11:40:49.5	300.470	0.430	-1.000	0.220
2020/01/31 11:40:49.6	300.490	0.400	-0.990	0.200
2020/01/31 11:40:49.7	300.500	0.370	-0.990	0.180
2020/01/31 11:40:49.8	300.520	0.340	-0.980	0.150
2020/01/31 11:40:49.9	300.530	0.310	-0.960	0.130
2020/01/31 11:40:50.0	300.550	0.280	-0.940	0.120
2020/01/31 11:40:50.1	300.560	0.250	-0.920	0.100
2020/01/31 11:40:50.2	300.570	0.220	-0.900	0.090
2020/01/31 11:40:50.3	300.580	0.180	-0.870	0.070
2020/01/31 11:40:50.4	300.580	0.150	-0.830	0.060
2020/01/31 11:40:50.5	300.590	0.110	-0.800	0.050
2020/01/31 11:40:50.6	300.600	0.080	-0.760	0.050
2020/01/31 11:40:50.7	300.600	0.040	-0.710	0.050
2020/01/31 11:40:50.8	300.600	0.010	-0.670	0.040
2020/01/31 11:40:50.9	300.600	-0.030	-0.620	0.050
2020/01/31 11:40:51.0	300.600	-0.070	-0.570	0.050
2020/01/31 11:40:51.1	300.600	-0.100	-0.510	0.060
2020/01/31 11:40:51.2	300.590	-0.140	-0.460	0.070
2020/01/31 11:40:51.3	300.590	-0.170	-0.400	0.080
2020/01/31 11:40:51.4	300.580	-0.210	-0.350	0.090
2020/01/31 11:40:51.5	300.580	-0.240	-0.290	0.110
2020/01/31 11:40:51.6	300.570	-0.280	-0.230	0.120
2020/01/31 11:40:51.7	300.560	-0.310	-0.170	0.140
2020/01/31 11:40:51.8	300.550	-0.340	-0.120	0.160
2020/01/31 11:40:51.9	300.530	-0.370	-0.060	0.180
2020/01/31 11:40:52.0	300.510	-0.400	-0.010	0.200
2020/01/31 11:40:52.1	300.500	-0.430	0.040	0.220
2020/01/31 11:40:52.2	300.480	-0.450	0.090	0.250
2020/01/31 11:40:52.3	300.460	-0.470	0.130	0.270
2020/01/31 11:40:52.4	300.430	-0.500	0.180	0.300
2020/01/31 11:40:52.5	300.410	-0.520	0.210	0.320
2020/01/31 11:40:52.6	300.390	-0.530	0.250	0.350
2020/01/31 11:40:52.7	300.360	-0.550	0.280	0.380
2020/01/31 11:40:52.8	300.340	-0.560	0.310	0.410
2020/01/31 11:40:52.9	300.310	-0.570	0.340	0.430
2020/01/31 11:40:53.0	300.280	-0.570	0.360	0.460
2020/01/31 11:40:53.1	300.250	-0.580	0.370	0.480
2020/01/31 11:40:53.2	300.220	-0.580	0.390	0.510
2020/01/31 11:40:53.3	300.190	-0.580	0.390	0.540
2020/01/31 11:40:53.4	300.160	-0.570	0.400	0.560
2020/01/31 11:40:53.5	300.120	-0.570	0.400	0.580
2020/01/31 11:40:53.6	300.090	-0.560	0.390	0.600
2020/01/31 11:40:53.7	300.070	-0.550	0.380	0.620
2020/01/31 11:40:53.8	300.040	-0.530	0.370	0.640
2020/01/31 11:40:53.9	300.010	-0.510	0.360	0.660
2020/01/31 11:40:54.0	299.980	-0.490	0.340	0.680
2020/01/31 11:40:54.1	299.960	-0.470	0.320	0.690
2020/01/31 11:40:54.2	299.930	-0.450	0.290	0.700
2020/01/31 11:40:54.3	299.900	-0.430	0.270	0.710
2020/01/31 11:40:54.4	299.880	-0.400	0.240	0.720
2020/01/31 11:40:54.5	299.860	-0.370	0.210	0.730
2020/01/31 11:40:54.6	299.830	-0.340	0.180	0.730
2020/01/31 11:40:54.7	299.810	-0.310	0.140	0.740
2020/01/31 11:40:54.8	299.790	-0.280	0.110	0.740
2020/01/31 11:40:54.9	299.780	-0.250	0.080	0.740
2020/01/31 11:40:55.0	299.760	-0.220	0.040	0.740
2020/01/31 11:40:55.1	299.740	-0.190	0.010	0.740
2020/01/31 11:40:55.2	299.730	-0.160	-0.020	0.740
2020/01/31 11:40:55.3	299.720	-0.130	-0.050	0.740
2020/01/31 11:40:55.4	299.700	-0.100	-0.070	0.730
2020/01/31 11:40:55.5	299.690	-0.070	-0.100	0.740
2020/01/31 11:40:55.6	299.680	-0.040	-0.120	0.730
2020/01/31 11:40:55.7	299.670	-0.020	-0.140	0.720
2020/01/31 11:40:55.8	299.660	0.000	-0.160	0.720
2020/01/31 11:40:55.9	299.660	0.020	-0.170	0.710
2020/01/31 11:40:56.0	299.650	0.040	-0.180	0.700
2020/01/31 11:40:56.1	299.650	0.060	-0.190	0.690
2020/01/31 11:40:56.2	299.650	0.080	-0.200	0.680
2020/01/31 11:40:56.3	299.640	0.090	-0.200	0.670
2020/01/31 11:40:56.4	299.640	0.100	-0.200	0.660
2020/01/31 11:40:56.5	299.640	0.110	-0.190	0.650
2020/01/31 11:40:56.6	299.640	0.110	-0.180	0.640
2020/01/31 11:40:56.7	299.650	0.110	-0.170	0.630
2020/01/31 11:40:56.8	299.650	0.110	-0.160	0.620
2020/01/31 11:40:56.9	299.650	0.110	-0.150	0.600
2020/01/31 11:40:57.0	299.660	0.110	-0.140	0.590
2020/01/31 11:40:57.1	299.660	0.100	-0.130	0.580
2020/01/31 11:40:57.2	299.670	0.100	-0.110	0.570
2020/01/31 11:40:57.3	299.670	0.090	-0.100	0.550
2020/01/31 11:40:57.4	299.680	0.080	-0.080	0.540
2020/01/31 11:40:57.5	299.690	0.070	-0.080	0.530
2020/01/31 11:40:57.6	299.700	0.060	-0.060	0.520
2020/01/31 11:40:57.7	299.710	0.050	-0.050	0.500
2020/01/31 11:40:57.8	299.710	0.030	-0.050	0.490
2020/01/31 11:40:57.9	299.720	0.020	-0.040	0.480
2020/01/31 11:40:58.0	299.730	0.010	-0.040	0.470
2020/01/31 11:40:58.1	299.740	0.000	-0.040	0.450
2020/01/31 11:40:58.2	299.750	-0.010	-0.040	0.440
2020/01/31 11:40:58.3	299.760	-0.020	-0.050	0.430
2020/01/31 11:40:58.4	299.770	-0.030	-0.060	0.420
2020/01/31 11:40:58.5	299.790	-0.030	-0.080	0.400
2020/01/31 11:40:58.6	299.800	-0.040	-0.090	0.390
2020/01/31 11:40:58.7	299.810	-0.040	-0.110	0.380
2020/01/31 11:40:58.8	299.830	-0.040	-0.140	0.370
2020/01/31 11:40:58.9	299.840	-0.040	-0.160	0.360
2020/01/31 11:40:59.0	299.860	-0.040	-0.190	0.360
2020/01/31 11:40:59.1	299.870	-0.040	-0.230	0.350
2020/01/31 11:40:59.2	299.890	-0.030	-0.260	0.340
2020/01/31 11:40:59.3	299.900	-0.020	-0.300	0.340
2020/01/31 11:40:59.4	299.920	-0.010	-0.340	0.330
2020/01/31 11:40:59.5	299.940	0.000	-0.390	0.330
2020/01/31 11:40:59.6	299.960	0.020	-0.430	0.320
2020/01/31 11:40:59.7	299.970	0.030	-0.480	0.320
2020/01/31 11:40:59.8	299.990	0.050	-0.530	0.320
2020/01/31 11:40:59.9	300.010	0.070	-0.580	0.320
2020/01/31 11:41:00.0	300.030	0.080	-0.630	0.320
2020/01/31 11:41:00.1	300.050	0.100	-0.680	0.320
2020/01/31 11:41:00.2	300.070	0.120	-0.730	0.310
2020/01/31 11:41:00.3	300.090	0.140	-0.780	0.310
2020/01/31 11:41:00.4	300.110	0.160	-0.830	0.310
2020/01/31 11:41:00.5	300.130	0.180	-0.870	0.310
2020/01/31 11:41:00.6	300.150	0.200	-0.920	0.310
2020/01/31 11:41:00.7	300.170	0.220	-0.960	0.310
2020/01/31 11:41:00.8	300.190	0.240	-1.000	0.320
2020/01/31 11:41:00.9	300.220	0.260	-1.040	0.320
2020/01/31 11:41:01.0	300.240	0.270	-1.070	0.320
2020/01/31 11:41:01.1	300.260	0.280	-1.100	0.330
2020/01/31 11:41:01.2	300.280	0.290	-1.120	0.330
2020/01/31 11:41:01.3	300.300	0.300	-1.140	0.330
2020/01/31 11:41:01.4	300.320	0.310	-1.150	0.340
2020/01/31 11:41:01.5	300.320	0.320	-1.160	0.350
2020/01/31 11:41:01.6	300.340	0.320	-1.160	0.360
2020/01/31 11:41:01.7	300.350	0.320	-1.150	0.360
2020/01/31 11:41:01.8	300.370	0.320	-1.140	0.370
2020/01/31 11:41:01.9	300.380	0.310	-1.130	0.390
2020/01/31 11:41:02.0	300.390	0.300	-1.110	0.400
2020/01/31 11:41:02.1	300.400	0.290	-1.080	0.410
2020/01/31 11:41:02.2	300.410	0.280	-1.050	0.420
2020/01/31 11:41:02.3	300.420	0.260	-1.010	0.440
2020/01/31 11:41:02.4	300.430	0.250	-0.960	0.450
2020/01/31 11:41:02.5	300.450	0.230	-0.910	0.470
2020/01/31 11:41:02.6	300.460	0.210	-0.860	0.480
2020/01/31 11:41:02.7	300.460	0.180	-0.800	0.500
2020/01/31 11:41:02.8	300.460	0.160	-0.740	0.510
2020/01/31 11:41:02.9	300.460	0.130	-0.670	0.530
2020/01/31 11:41:03.0	300.450	0.100	-0.610	0.540
2020/01/31 11:41:03.1	300.450	0.070	-0.540	0.550
2020/01/31 11:41:03.2	300.450	0.040	-0.460	0.570
2020/01/31 11:41:03.3	300.440	0.010	-0.390	0.580
2020/01/31 11:41:03.4	300.430	-0.030	-0.310	0.590
2020/01/31 11:41:03.5	300.430	-0.060	-0.240	0.600
2020/01/31 11:41:03.6	300.420	-0.090	-0.170	0.610
2020/01/31 11:41:03.7	300.410	-0.120	-0.090	0.620
2020/01/31 11:41:03.8	300.400	-0.150	-0.020	0.630
2020/01/31 11:41:03.9	300.390	-0.180	0.050	0.640
2020/01/31 11:41:04.0	300.380	-0.210	0.120	0.650
2020/01/31 11:41:04.1	300.360	-0.240	0.190	0.660
2020/01/31 11:41:04.2	300.350	-0.260	0.250	0.670
2020/01/31 11:41:04.3	300.330	-0.290	0.310	0.680
2020/01/31 11:41:04.4	300.320	-0.310	0.370	0.690
2020/01/31 11:41:04.5	300.290	-0.330	0.430	0.700
2020/01/31 11:41:04.6	300.280	-0.350	0.480	0.710
2020/01/31 11:41:04.7	300.260	-0.360	0.530	0.720
2020/01/31 11:41:04.8	300.240	-0.370	0.570	0.730
2020/01/31 11:41:04.9	300.220	-0.380	0.610	0.740
2020/01/31 11:41:05.0	300.200	-0.390	0.640	0.750
2020/01/31 11:41:05.1	300.170	-0.390	0.670	0.760
2020/01/31 11:41:05.2	300.150	-0.390	0.690	0.770
2020/01/31 11:41:05.3	300.130	-0.390	0.710	0.780
2020/01/31 11:41:05.4	300.100	-0.380	0.720	0.800
2020/01/31 11:41:05.5	300.060	-0.370	0.730	0.810
2020/01/31 11:41:05.6	300.030	-0.360	0.740	0.820
2020/01/31 11:41:05.7	300.000	-0.350	0.740	0.840
2020/01/31 11:41:05.8	299.970	-0.330	0.740	0.850
2020/01/31 11:41:05.9	299.940	-0.310	0.730	0.870
2020/01/31 11:41:06.0	299.910	-0.290	0.720	0.880
2020/01/31 11:41:06.1	299.870	-0.270	0.700	0.900
2020/01/31 11:41:06.2	299.840	-0.240	0.680	0.910
2020/01/31 11:41:06.3	299.810	-0.220	0.660	0.930
2020/01/31 11:41:06.4	299.770	-0.190	0.630	0.940
2020/01/31 11:41:06.5	299.740	-0.160	0.600	0.950
2020/01/31 11:41:06.6	299.700	-0.130	0.560	0.960
2020/01/31 11:41:06.7	299.670	-0.100	0.520	0.970
2020/01/31 11:41:06.8	299.630	-0.070	0.480	0.980
2020/01/31 11:41:06.9	299.600	-0.040	0.440	0.980
2020/01/31 11:41:07.0	299.570	-0.010	0.390	0.990
2020/01/31 11:41:07.1	299.540	0.030	0.340	0.990
2020/01/31 11:41:07.2	299.510	0.060	0.290	0.990
2020/01/31 11:41:07.3	299.490	0.080	0.230	0.980
2020/01/31 11:41:07.4	299.460	0.110	0.180	0.970
2020/01/31 11:41:07.5	299.440	0.140	0.120	0.970
2020/01/31 11:41:07.6	299.420	0.160	0.060	0.950
2020/01/31 11:41:07.7	299.400	0.190	0.010	0.940
2020/01/31 11:41:07.8	299.380	0.210	-0.050	0.920
2020/01/31 11:41:07.9	299.370	0.230	-0.100	0.910
2020/01/31 11:41:08.0	299.360	0.240	-0.160	0.890
2020/01/31 11:41:08.1	299.350	0.260	-0.210	0.870
2020/01/31 11:41:08.2	299.340	0.270	-0.270	0.850
2020/01/31 11:41:08.3	299.330	0.280	-0.320	0.820
2020/01/31 11:41:08.4	299.330	0.290	-0.360	0.800
2020/01/31 11:41:08.5	299.340	0.300	-0.410	0.770
2020/01/31 11:41:08.6	299.340	0.300	-0.450	0.750
2020/01/31 11:41:08.7	299.350	0.300	-0.490	0.720
2020/01/31 11:41:08.8	299.360	0.300	-0.530	0.690
2020/01/31 11:41:08.9	299.370	0.300	-0.560	0.660
2020/01/31 11:41:09.0	299.380	0.290	-0.600	0.630
2020/01/31 11:41:09.1	299.400	0.290	-0.630	0.600
2020/01/31 11:41:09.2	299.420	0.280	-0.650	0.570
2020/01/31 11:41:09.3	299.440	0.270	-0.680	0.530
2020/01/31 11:41:09.4	299.470	0.260	-0.700	0.500
2020/01/31 11:41:09.5	299.490	0.240	-0.710	0.460
2020/01/31 11:41:09.6	299.520	0.230	-0.730	0.430
2020/01/31 11:41:09.7	299.550	0.210	-0.740	0.400
2020/01/31 11:41:09.8	299.580	0.190	-0.750	0.360
2020/01/31 11:41:09.9	299.620	0.170	-0.750	0.330
2020/01/31 11:41:10.0	299.650	0.160	-0.750	0.290
2020/01/31 11:41:10.1	299.690	0.140	-0.750	0.260
2020/01/31 11:41:10.2	299.720	0.120	-0.750	0.230
2020/01/31 11:41:10.3	299.760	0.100	-0.740	0.190
2020/01/31 11:41:10.4	299.800	0.070	-0.740	0.160
2020/01/31 11:41:10.5	299.850	0.050	-0.730	0.140
2020/01/31 11:41:10.6	299.890	0.030	-0.720	0.110
2020/01/31 11:41:10.7	299.930	0.010	-0.700	0.080
2020/01/31 11:41:10.8	299.970	-0.000	-0.690	0.060
2020/01/31 11:41:10.9	300.010	-0.020	-0.670	0.030
2020/01/31 11:41:11.0	300.040	-0.040	-0.650	0.010
2020/01/31 11:41:11.1	300.080	-0.060	-0.640	-0.020
2020/01/31 11:41:11.2	300.120	-0.080	-0.620	-0.040
2020/01/31 11:41:11.3	300.160	-0.090	-0.600	-0.060
2020/01/31 11:41:11.4	300.200	-0.100	-0.580	-0.080
2020/01/31 11:41:11.5	300.240	-0.120	-0.560	-0.090
2020/01/31 11:41:11.6	300.280	-0.130	-0.540	-0.110
2020/01/31 11:41:11.7	300.310	-0.140	-0.530	-0.120
2020/01/31 11:41:11.8	300.350	-0.150	-0.510	-0.130
2020/01/31 11:41:11.9	300.380	-0.150	-0.490	-0.140
2020/01/31 11:41:12.0	300.420	-0.160	-0.480	-0.150
2020/01/31 11:41:12.1	300.450	-0.160	-0.470	-0.150
2020/01/31 11:41:12.2	300.480	-0.160	-0.450	-0.150
2020/01/31 11:41:12.3	300.510	-0.160	-0.440	-0.150
2020/01/31 11:41:12.4	300.530	-0.160	-0.430	-0.140
2020/01/31 11:41:12.5	300.570	-0.160	-0.420	-0.140
2020/01/31 11:41:12.6	300.590	-0.150	-0.420	-0.120
2020/01/31 11:41:12.7	300.610	-0.150	-0.410	-0.110
2020/01/31 11:41:12.8	300.630	-0.140	-0.410	-0.090
2020/01/31 11:41:12.9	300.650	-0.130	-0.400	-0.070
2020/01/31 11:41:13.0	300.670	-0.120	-0.400	-0.040
2020/01/31 11:41:13.1	300.680	-0.110	-0.400	-0.010
2020/01/31 11:41:13.2	300.690	-0.090	-0.400	0.020
2020/01/31 11:41:13.3	300.700	-0.080	-0.400	0.050
2020/01/31 11:41:13.4	300.710	-0.070	-0.400	0.090
2020/01/31 11:41:13.5	300.710	-0.050	-0.410	0.130
2020/01/31 11:41:13.6	300.710	-0.040	-0.410	0.170
2020/01/31 11:41:13.7	300.710	-0.020	-0.410	0.210
2020/01/31 11:41:13.8	300.710	-0.000	-0.420	0.250
2020/01/31 11:41:13.9	300.710	0.010	-0.420	0.290
2020/01/31 11:41:14.0	300.700	0.030	-0.430	0.330
2020/01/31 11:41:14.1	300.700	0.040	-0.430	0.380
2020/01/31 11:41:14.2	300.690	0.060	-0.440	0.420
2020/01/31 11:41:14.3	300.680	0.070	-0.440	0.470
2020/01/31 11:41:14.4	300.660	0.090	-0.450	0.510
2020/01/31 11:41:14.5	300.640	0.100	-0.450	0.550
2020/01/31 11:41:14.6	300.630	0.120	-0.450	0.600
2020/01/31 11:41:14.7	300.610	0.130	-0.460	0.640
2020/01/31 11:41:14.8	300.590	0.140	-0.460	0.690
2020/01/31 11:41:14.9	300.570	0.150	-0.460	0.730
2020/01/31 11:41:15.0	300.550	0.160	-0.460	0.770
2020/01/31 11:41:15.1	300.530	0.170	-0.460	0.820
2020/01/31 11:41:15.2	300.500	0.170	-0.460	0.860
2020/01/31 11:41:15.3	300.470	0.180	-0.450	0.900
2020/01/31 11:41:15.4	300.450	0.180	-0.450	0.950
2020/01/31 11:41:15.5	300.410	0.180	-0.440	0.990
2020/01/31 11:41:15.6	300.380	0.180	-0.430	1.030
2020/01/31 11:41:15.7	300.340	0.180	-0.420	1.070
2020/01/31 11:41:15.8	300.310	0.180	-0.410	1.110
2020/01/31 11:41:15.9	300.270	0.170	-0.390	1.150
2020/01/31 11:41:16.0	300.230	0.170	-0.370	1.190
2020/01/31 11:41:16.1	300.190	0.160	-0.350	1.230
2020/01/31 11:41:16.2	300.150	0.150	-0.320	1.260
2020/01/31 11:41:16.3	300.100	0.130	-0.300	1.300
2020/01/31 11:41:16.4	300.060	0.120	-0.270	1.330
2020/01/31 11:41:16.5	300.020	0.100	-0.230	1.360
2020/01/31 11:41:16.6	299.980	0.080	-0.200	1.390
2020/01/31 11:41:16.7	299.930	0.060	-0.160	1.410
2020/01/31 11:41:16.8	299.890	0.040	-0.130	1.440
2020/01/31 11:41:16.9	299.840	0.020	-0.090	1.450
2020/01/31 11:41:17.0	299.800	-0.010	-0.050	1.470
2020/01/31 11:41:17.1	299.750	-0.030	-0.010	1.480
2020/01/31 11:41:17.2	299.710	-0.060	0.030	1.490
2020/01/31 11:41:17.3	299.670	-0.090	0.070	1.490
2020/01/31 11:41:17.4	299.630	-0.110	0.110	1.480
2020/01/31 11:41:17.5	299.590	-0.140	0.150	1.480
2020/01/31 11:41:17.6	299.550	-0.170	0.190	1.470
2020/01/31 11:41:17.7	299.520	-0.200	0.220	1.450
2020/01/31 11:41:17.8	299.480	-0.230	0.260	1.430
2020/01/31 11:41:17.9	299.450	-0.260	0.300	1.410
2020/01/31 11:41:18.0	299.420	-0.290	0.330	1.380
2020/01/31 11:41:18.1	299.400	-0.320	0.360	1.350
2020/01/31 11:41:18.2	299.370	-0.340	0.390	1.320
2020/01/31 11:41:18.3	299.350	-0.370	0.410	1.290
2020/01/31 11:41:18.4	299.330	-0.390	0.440	1.250
2020/01/31 11:41:18.5	299.330	-0.420	0.460	1.210
2020/01/31 11:41:18.6	299.310	-0.440	0.470	1.170
2020/01/31 11:41:18.7	299.300	-0.460	0.480	1.120
2020/01/31 11:41:18.8	299.290	-0.470	0.490	1.080
2020/01/31 11:41:18.9	299.280	-0.490	0.500	1.040
2020/01/31 11:41:19.0	299.270	-0.500	0.500	0.990
2020/01/31 11:41:19.1	299.270	-0.510	0.490	0.940
2020/01/31 11:41:19.2	299.270	-0.510	0.490	0.900
2020/01/31 11:41:19.3	299.270	-0.520	0.470	0.850
2020/01/31 11:41:19.4	299.270	-0.520	0.460	0.800
2020/01/31 11:41:19.5	299.290	-0.510	0.430	0.760
2020/01/31 11:41:19.6	299.300	-0.510	0.400	0.710
2020/01/31 11:41:19.7	299.310	-0.500	0.370	0.660
2020/01/31 11:41:19.8	299.320	-0.490	0.340	0.610
2020/01/31 11:41:19.9	299.340	-0.480	0.300	0.560
2020/01/31 11:41:20.0	299.360	-0.460	0.250	0.510
2020/01/31 11:41:20.1	299.380	-0.440	0.210	0.460
2020/01/31 11:41:20.2	299.400	-0.420	0.160	0.410
2020/01/31 11:41:20.3	299.430	-0.390	0.100	0.370
2020/01/31 11:41:20.4	299.460	-0.370	0.050	0.320
2020/01/31 11:41:20.5	299.480	-0.340	-0.010	0.270
2020/01/31 11:41:20.6	299.510	-0.310	-0.070	0.220
2020/01/31 11:41:20.7	299.540	-0.280	-0.130	0.170
2020/01/31 11:41:20.8	299.580	-0.240	-0.190	0.130
2020/01/31 11:41:20.9	299.620	-0.210	-0.250	0.090
2020/01/31 11:41:21.0	299.660	-0.170	-0.310	0.040
2020/01/31 11:41:21.1	299.700	-0.140	-0.370	0.000
2020/01/31 11:41:21.2	299.740	-0.100	-0.430	-0.030
2020/01/31 11:41:21.3	299.780	-0.070	-0.490	-0.070
2020/01/31 11:41:21.4	299.830	-0.030	-0.540	-0.100
2020/01/31 11:41:21.5	299.870	0.010	-0.600	-0.130
2020/01/31 11:41:21.6	299.920	0.040	-0.650	-0.160
2020/01/31 11:41:21.7	299.970	0.080	-0.690	-0.190
2020/01/31 11:41:21.8	300.010	0.110	-0.730	-0.210
2020/01/31 11:41:21.9	300.060	0.140	-0.770	-0.230
2020/01/31 11:41:22.0	300.110	0.170	-0.800	-0.240
2020/01/31 11:41:22.1	300.160	0.200	-0.820	-0.250
2020/01/31 11:41:22.2	300.210	0.220	-0.840	-0.260
2020/01/31 11:41:22.3	300.250	0.250	-0.850	-0.260
2020/01/31 11:41:22.4	300.300	0.270	-0.860	-0.260
2020/01/31 11:41:22.5	300.350	0.290	-0.860	-0.250
2020/01/31 11:41:22.6	300.390	0.310	-0.850	-0.240
2020/01/31 11:41:22.7	300.430	0.320	-0.840	-0.220
2020/01/31 11:41:22.8	300.470	0.330	-0.830	-0.200
2020/01/31 11:41:22.9	300.500	0.340	-0.800	-0.180
2020/01/31 11:41:23.0	300.540	0.350	-0.770	-0.150
2020/01/31 11:41:23.1	300.570	0.360	-0.740	-0.120
2020/01/31 11:41:23.2	300.600	0.360	-0.700	-0.090
2020/01/31 11:41:23.3	300.630	0.360	-0.660	-0.050
2020/01/31 11:41:23.4	300.650	0.360	-0.620	-0.010
2020/01/31 11:41:23.5	300.680	0.360	-0.570	0.030
2020/01/31 11:41:23.6	300.700	0.350	-0.520	0.070
2020/01/31 11:41:23.7	300.720	0.350	-0.460	0.120
2020/01/31 11:41:23.8	300.740	0.340	-0.410	0.170
2020/01/31 11:41:23.9	300.750	0.330	-0.360	0.220
2020/01/31 11:41:24.0	300.760	0.320	-0.300	0.270
2020/01/31 11:41:24.1	300.770	0.310	-0.250	0.320
2020/01/31 11:41:24.2	300.780	0.300	-0.200	0.370
2020/01/31 11:41:24.3	300.780	0.290	-0.150	0.420
2020/01/31 11:41:24.4	300.790	0.290	-0.100	0.470
2020/01/31 11:41:24.5	300.780	0.280	-0.050	0.530
2020/01/31 11:41:24.6	300.780	0.270	-0.010	0.580
2020/01/31 11:41:24.7	300.780	0.260	0.030	0.630
2020/01/31 11:41:24.8	300.780	0.260	0.060	0.680
2020/01/31 11:41:24.9	300.770	0.250	0.080	0.730
2020/01/31 11:41:25.0	300.770	0.250	0.110	0.770
2020/01/31 11:41:25.1	300.760	0.250	0.120	0.820
2020/01/31 11:41:25.2	300.760	0.250	0.130	0.860
2020/01/31 11:41:25.3	300.750	0.250	0.140	0.910
2020/01/31 11:41:25.4	300.740	0.250	0.140	0.950
2020/01/31 11:41:25.5	300.720	0.250	0.130	0.990
2020/01/31 11:41:25.6	300.710	0.260	0.120	1.020
2020/01/31 11:41:25.7	300.700	0.270	0.110	1.060
2020/01/31 11:41:25.8	300.690	0.270	0.080	1.090
2020/01/31 11:41:25.9	300.670	0.280	0.060	1.120
2020/01/31 11:41:26.0	300.650	0.290	0.030	1.150
2020/01/31 11:41:26.1	300.640	0.300	-0.010	1.180
2020/01/31 11:41:26.2	300.620	0.320	-0.050	1.210
2020/01/31 11:41:26.3	300.600	0.330	-0.090	1.230
2020/01/31 11:41:26.4	300.580	0.340	-0.130	1.250
2020/01/31 11:41:26.5	300.560	0.350	-0.180	1.270
2020/01/31 11:41:26.6	300.540	0.360	-0.230	1.280
2020/01/31 11:41:26.7	300.520	0.380	-0.280	1.300
2020/01/31 11:41:26.8	300.500	0.390	-0.330	1.310
2020/01/31 11:41:26.9	300.470	0.400	-0.380	1.320
2020/01/31 11:41:27.0	300.450	0.410	-0.430	1.320
2020/01/31 11:41:27.1	300.430	0.420	-0.480	1.330
2020/01/31 11:41:27.2	300.400	0.420	-0.530	1.330
2020/01/31 11:41:27.3	300.380	0.430	-0.580	1.330
2020/01/31 11:41:27.4	300.350	0.430	-0.620	1.320
2020/01/31 11:41:27.5	300.330	0.440	-0.660	1.320
2020/01/31 11:41:27.6	300.300	0.440	-0.690	1.320
2020/01/31 11:41:27.7	300.270	0.430	-0.730	1.310
2020/01/31 11:41:27.8	300.250	0.430	-0.760	1.310
2020/01/31 11:41:27.9	300.220	0.430	-0.790	1.300
2020/01/31 11:41:28.0	300.190	0.420	-0.810	1.290
2020/01/31 11:41:28.1	300.160	0.410	-0.830	1.280
2020/01/31 11:41:28.2	300.140	0.400	-0.840	1.270
2020/01/31 11:41:28.3	300.110	0.380	-0.850	1.260
2020/01/31 11:41:28.4	300.080	0.360	-0.860	1.250
2020/01/31 11:41:28.5	300.060	0.340	-0.860	1.230
2020/01/31 11:41:28.6	300.040	0.320	-0.850	1.220
2020/01/31 11:41:28.7	300.010	0.300	-0.850	1.200
2020/01/31 11:41:28.8	299.990	0.270	-0.830	1.180
2020/01/31 11:41:28.9	299.960	0.250	-0.820	1.170
2020/01/31 11:41:29.0	299.940	0.220	-0.800	1.150
2020/01/31 11:41:29.1	299.920	0.190	-0.770	1.120
2020/01/31 11:41:29.2	299.900	0.150	-0.750	1.100
2020/01/31 11:41:29.3	299.880	0.120	-0.710	1.070
2020/01/31 11:41:29.4	299.860	0.080	-0.680	1.050
2020/01/31 11:41:29.5	299.860	0.040	-0.650	1.020
2020/01/31 11:41:29.6	299.840	0.000	-0.610	0.990
2020/01/31 11:41:29.7	299.830	-0.040	-0.570	0.960
2020/01/31 11:41:29.8	299.810	-0.080	-0.520	0.920
2020/01/31 11:41:29.9	299.800	-0.120	-0.480	0.890
2020/01/31 11:41:30.0	299.790	-0.160	-0.430	0.850
2020/01/31 11:41:30.1	299.780	-0.200	-0.390	0.810
2020/01/31 11:41:30.2	299.770	-0.250	-0.340	0.770
2020/01/31 11:41:30.3	299.770	-0.290	-0.290	0.730
2020/01/31 11:41:30.4	299.760	-0.330	-0.250	0.680
2020/01/31 11:41:30.5	299.750	-0.370	-0.200	0.640
2020/01/31 11:41:30.6	299.750	-0.420	-0.160	0.590
2020/01/31 11:41:30.7	299.750	-0.460	-0.110	0.550
2020/01/31 11:41:30.8	299.750	-0.500	-0.070	0.500
2020/01/31 11:41:30.9	299.760	-0.540	-0.020	0.450
2020/01/31 11:41:31.0	299.760	-0.570	0.020	0.410
2020/01/31 11:41:31.1	299.770	-0.610	0.050	0.360
2020/01/31 11:41:31.2	299.770	-0.640	0.090	0.310
2020/01/31 11:41:31.3	299.780	-0.680	0.120	0.260
2020/01/31 11:41:31.4	299.790	-0.710	0.160	0.220
2020/01/31 11:41:31.5	299.800	-0.740	0.180	0.170
2020/01/31 11:41:31.6	299.810	-0.760	0.210	0.120
2020/01/31 11:41:31.7	299.830	-0.780	0.230	0.080
2020/01/31 11:41:31.8	299.840	-0.810	0.250	0.040
2020/01/31 11:41:31.9	299.860	-0.820	0.270	-0.000
2020/01/31 11:41:32.0	299.870	-0.840	0.280	-0.040
2020/01/31 11:41:32.1	299.890	-0.850	0.300	-0.080
2020/01/31 11:41:32.2	299.910	-0.860	0.310	-0.120
2020/01/31 11:41:32.3	299.930	-0.870	0.310	-0.150
2020/01/31 11:41:32.4	299.950	-0.870	0.320	-0.180
2020/01/31 11:41:32.5	299.970	-0.880	0.320	-0.210
2020/01/31 11:41:32.6	299.990	-0.870	0.320	-0.230
2020/01/31 11:41:32.7	300.010	-0.870	0.320	-0.260
2020/01/31 11:41:32.8	300.030	-0.860	0.310	-0.280
2020/01/31 11:41:32.9	300.050	-0.850	0.310	-0.290
2020/01/31 11:41:33.0	300.080	-0.840	0.300	-0.310
2020/01/31 11:41:33.1	300.100	-0.820	0.290	-0.320
2020/01/31 11:41:33.2	300.120	-0.800	0.280	-0.320
2020/01/31 11:41:33.3	300.150	-0.780	0.270	-0.330
2020/01/31 11:41:33.4	300.170	-0.760	0.250	-0.330
2020/01/31 11:41:33.5	300.190	-0.730	0.230	-0.330
2020/01/31 11:41:33.6	300.220	-0.700	0.220	-0.330
2020/01/31 11:41:33.7	300.250	-0.670	0.200	-0.320
2020/01/31 11:41:33.8	300.270	-0.640	0.180	-0.320
2020/01/31 11:41:33.9	300.300	-0.610	0.150	-0.310
2020/01/31 11:41:34.0	300.330	-0.570	0.130	-0.300
2020/01/31 11:41:34.1	300.360	-0.530	0.110	-0.290
2020/01/31 11:41:34.2	300.390	-0.490	0.080	-0.270
2020/01/31 11:41:34.3	300.420	-0.450	0.060	-0.260
2020/01/31 11:41:34.4	300.450	-0.410	0.030	-0.250
2020/01/31 11:41:34.5	300.480	-0.370	0.000	-0.230
2020/01/31 11:41:34.6	300.510	-0.330	-0.030	-0.210
2020/01/31 11:41:34.7	300.540	-0.280	-0.050	-0.190
2020/01/31 11:41:34.8	300.570	-0.240	-0.080	-0.170
2020/01/31 11:41:34.9	300.600	-0.200	-0.110	-0.150
2020/01/31 11:41:35.0	300.630	-0.150	-0.140	-0.130
2020/01/31 11:41:35.1	300.660	-0.110	-0.160	-0.100
2020/01/31 11:41:35.2	300.690	-0.060	-0.190	-0.070
2020/01/31 11:41:35.3	300.720	-0.020	-0.220	-0.050
2020/01/31 11:41:35.4	300.740	0.020	-0.240	-0.020
2020/01/31 11:41:35.5	300.770	0.060	-0.260	0.010
2020/01/31 11:41:35.6	300.790	0.110	-0.290	0.050
2020/01/31 11:41:35.7	300.820	0.150	-0.300	0.080
2020/01/31 11:41:35.8	300.840	0.190	-0.320	0.120
2020/01/31 11:41:35.9	300.860	0.230	-0.340	0.160
2020/01/31 11:41:36.0	300.880	0.260	-0.350	0.200
2020/01/31 11:41:36.1	300.900	0.300	-0.360	0.240
2020/01/31 11:41:36.2	300.920	0.330	-0.370	0.290
2020/01/31 11:41:36.3	300.930	0.370	-0.380	0.330
2020/01/31 11:41:36.4	300.950	0.400	-0.380	0.380
2020/01/31 11:41:36.5	300.970	0.430	-0.380	0.430
2020/01/31 11:41:36.6	300.980	0.460	-0.390	0.470
2020/01/31 11:41:36.7	300.990	0.490	-0.390	0.520
2020/01/31 11:41:36.8	301.000	0.520	-0.390	0.570
2020/01/31 11:41:36.9	301.010	0.540	-0.380	0.620
2020/01/31 11:41:37.0	301.020	0.570	-0.380	0.670
2020/01/31 11:41:37.1	301.030	0.590	-0.380	0.710
2020/01/31 11:41:37.2	301.040	0.610	-0.370	0.760
2020/01/31 11:41:37.3	301.040	0.630	-0.370	0.800
2020/01/31 11:41:37.4	301.050	0.640	-0.360	0.850
2020/01/31 11:41:37.5	301.050	0.660	-0.360	0.890
2020/01/31 11:41:37.6	301.050	0.670	-0.360	0.930
2020/01/31 11:41:37.7	301.050	0.690	-0.350	0.970
2020/01/31 11:41:37.8	301.050	0.700	-0.350	1.010
2020/01/31 11:41:37.9	301.050	0.710	-0.350	1.050
2020/01/31 11:41:38.0	301.050	0.720	-0.340	1.090
2020/01/31 11:41:38.1	301.040	0.720	-0.340	1.120
2020/01/31 11:41:38.2	301.040	0.730	-0.340	1.150
2020/01/31 11:41:38.3	301.030	0.730	-0.340	1.180
2020/01/31 11:41:38.4	301.020	0.730	-0.340	1.210
2020/01/31 11:41:38.5	300.990	0.730	-0.340	1.240
2020/01/31 11:41:38.6	300.980	0.730	-0.340	1.270
2020/01/31 11:41:38.7	300.960	0.720	-0.340	1.290
2020/01/31 11:41:38.8	300.940	0.720	-0.340	1.320
2020/01/31 11:41:38.9	300.920	0.710	-0.340	1.340
2020/01/31 11:41:39.0	300.900	0.700	-0.340	1.360
2020/01/31 11:41:39.1	300.870	0.690	-0.340	1.370
2020/01/31 11:41:39.2	300.840	0.680	-0.340	1.390
2020/01/31 11:41:39.3	300.810	0.660	-0.340	1.400
2020/01/31 11:41:39.4	300.780	0.640	-0.340	1.410
2020/01/31 11:41:39.5	300.740	0.630	-0.340	1.420
2020/01/31 11:41:39.6	300.710	0.610	-0.340	1.420
2020/01/31 11:41:39.7	300.670	0.590	-0.340	1.420
2020/01/31 11:41:39.8	300.630	0.570	-0.340	1.420
2020/01/31 11:41:39.9	300.600	0.540	-0.340	1.420
2020/01/31 11:41:40.0	300.560	0.520	-0.340	1.420
2020/01/31 11:41:40.1	300.520	0.500	-0.340	1.410
2020/01/31 11:41:40.2	300.480	0.470	-0.350	1.400
2020/01/31 11:41:40.3	300.440	0.450	-0.350	1.380
2020/01/31 11:41:40.4	300.400	0.420	-0.360	1.370
2020/01/31 11:41:40.5	300.380	0.390	-0.360	1.350
2020/01/31 11:41:40.6	300.340	0.370	-0.370	1.330
2020/01/31 11:41:40.7	300.300	0.340	-0.380	1.310
2020/01/31 11:41:40.8	300.270	0.320	-0.390	1.290
2020/01/31 11:41:40.9	300.230	0.290	-0.400	1.260
2020/01/31 11:41:41.0	300.200	0.270	-0.410	1.240
2020/01/31 11:41:41.1	300.170	0.240	-0.420	1.210
2020/01/31 11:41:41.2	300.140	0.220	-0.430	1.180
2020/01/31 11:41:41.3	300.110	0.190	-0.450	1.140
2020/01/31 11:41:41.4	300.090	0.170	-0.460	1.110
2020/01/31 11:41:41.5	300.070	0.150	-0.480	1.080
2020/01/31 11:41:41.6	300.050	0.130	-0.490	1.040
2020/01/31 11:41:41.7	300.030	0.110	-0.510	1.000
2020/01/31 11:41:41.8	300.020	0.090	-0.520	0.960
2020/01/31 11:41:41.9	300.000	0.070	-0.540	0.920
2020/01/31 11:41:42.0	299.990	0.060	-0.560	0.880
2020/01/31 11:41:42.1	299.980	0.040	-0.570	0.840
2020/01/31 11:41:42.2	299.980	0.030	-0.580	0.790
2020/01/31 11:41:42.3	299.980	0.010	-0.590	0.750
2020/01/31 11:41:42.4	299.980	-0.000	-0.610	0.700
2020/01/31 11:41:42.5	299.980	-0.020	-0.610	0.660
2020/01/31 11:41:42.6	299.990	-0.030	-0.620	0.610
2020/01/31 11:41:42.7	299.990	-0.040	-0.630	0.570
2020/01/31 11:41:42.8	300.000	-0.050	-0.630	0.520
2020/01/31 11:41:42.9	300.010	-0.060	-0.630	0.480
2020/01/31 11:41:43.0	300.030	-0.070	-0.620	0.440
2020/01/31 11:41:43.1	300.040	-0.080	-0.620	0.400
2020/01/31 11:41:43.2	300.060	-0.100	-0.610	0.360
2020/01/31 11:41:43.3	300.080	-0.110	-0.590	0.320
2020/01/31 11:41:43.4	300.090	-0.120	-0.580	0.290
2020/01/31 11:41:43.5	300.110	-0.130	-0.560	0.250
2020/01/31 11:41:43.6	300.130	-0.140	-0.540	0.220
2020/01/31 11:41:43.7	300.160	-0.150	-0.520	0.190
2020/01/31 11:41:43.8	300.180	-0.170	-0.500	0.170
2020/01/31 11:41:43.9	300.200	-0.180	-0.470	0.140
2020/01/31 11:41:44.0	300.230	-0.190	-0.440	0.110
2020/01/31 11:41:44.1	300.260	-0.200	-0.410	0.090
2020/01/31 11:41:44.2	300.290	-0.220	-0.390	0.070
2020/01/31 11:41:44.3	300.320	-0.230	-0.350	0.050
2020/01/31 11:41:44.4	300.350	-0.250	-0.320	0.030
2020/01/31 11:41:44.5	300.380	-0.260	-0.290	0.010
2020/01/31 11:41:44.6	300.410	-0.280	-0.260	-0.010
2020/01/31 11:41:44.7	300.450	-0.290	-0.230	-0.030
2020/01/31 11:41:44.8	300.480	-0.310	-0.200	-0.040
2020/01/31 11:41:44.9	300.520	-0.320	-0.170	-0.060
2020/01/31 11:41:45.0	300.550	-0.340	-0.150	-0.080
2020/01/31 11:41:45.1	300.590	-0.350	-0.120	-0.090
2020/01/31 11:41:45.2	300.630	-0.370	-0.090	-0.110
2020/01/31 11:41:45.3	300.660	-0.380	-0.070	-0.120
2020/01/31 11:41:45.4	300.700	-0.400	-0.040	-0.130
2020/01/31 11:41:45.5	300.730	-0.410	-0.020	-0.140
2020/01/31 11:41:45.6	300.760	-0.430	0.000	-0.150
2020/01/31 11:41:45.7	300.800	-0.440	0.020	-0.160
2020/01/31 11:41:45.8	300.830	-0.460	0.040	-0.170
2020/01/31 11:41:45.9	300.860	-0.470	0.060	-0.180
2020/01/31 11:41:46.0	300.890	-0.480	0.080	-0.180
2020/01/31 11:41:46.1	300.920	-0.490	0.100	-0.190
2020/01/31 11:41:46.2	300.940	-0.500	0.110	-0.190
2020/01/31 11:41:46.3	300.970	-0.510	0.130	-0.190
2020/01/31 11:41:46.4	300.990	-0.520	0.150	-0.190
2020/01/31 11:41:46.5	301.010	-0.530	0.160	-0.180
2020/01/31 11:41:46.6	301.020	-0.540	0.180	-0.180
2020/01/31 11:41:46.7	301.040	-0.550	0.190	-0.170
2020/01/31 11:41:46.8	301.060	-0.550	0.200	-0.160
2020/01/31 11:41:46.9	301.070	-0.560	0.220	-0.140
2020/01/31 11:41:47.0	301.090	-0.560	0.230	-0.130
2020/01/31 11:41:47.1	301.100	-0.560	0.240	-0.110
2020/01/31 11:41:47.2	301.110	-0.560	0.250	-0.090
2020/01/31 11:41:47.3	301.120	-0.560	0.260	-0.070
2020/01/31 11:41:47.4	301.120	-0.560	0.260	-0.040
2020/01/31 11:41:47.5	301.130	-0.560	0.260	-0.020
2020/01/31 11:41:47.6	301.130	-0.560	0.270	0.010
2020/01/31 11:41:47.7	301.130	-0.550	0.270	0.030
2020/01/31 11:41:47.8	301.140	-0.550	0.270	0.060
2020/01/31 11:41:47.9	301.140	-0.540	0.270	0.090
2020/01/31 11:41:48.0	301.140	-0.530	0.260	0.120
2020/01/31 11:41:48.1	301.130	-0.520	0.250	0.140
2020/01/31 11:41:48.2	301.130	-0.510	0.240	0.170
2020/01/31 11:41:48.3	301.130	-0.500	0.230	0.200
2020/01/31 11:41:48.4	301.130	-0.490	0.220	0.220
2020/01/31 11:41:48.5	301.120	-0.470	0.210	0.250
2020/01/31 11:41:48.6	301.120	-0.460	0.190	0.280
2020/01/31 11:41:48.7	301.110	-0.440	0.170	0.300
2020/01/31 11:41:48.8	301.100	-0.420	0.150	0.330
2020/01/31 11:41:48.9	301.100	-0.400	0.130	0.350
2020/01/31 11:41:49.0	301.090	-0.380	0.100	0.370
2020/01/31 11:41:49.1	301.080	-0.360	0.080	0.400
2020/01/31 11:41:49.2	301.070	-0.340	0.050	0.420
2020/01/31 11:41:49.3	301.070	-0.320	0.030	0.440
2020/01/31 11:41:49.4	301.060	-0.290	0.000	0.470
2020/01/31 11:41:49.5	301.050	-0.270	-0.030	0.490
2020/01/31 11:41:49.6	301.040	-0.240	-0.050	0.510
2020/01/31 11:41:49.7	301.030	-0.220	-0.080	0.530
2020/01/31 11:41:49.8	301.020	-0.190	-0.110	0.550
2020/01/31 11:41:49.9	301.010	-0.160	-0.140	0.560
2020/01/31 11:41:50.0	301.000	-0.130	-0.160	0.580
2020/01/31 11:41:50.1	301.000	-0.100	-0.190	0.600
2020/01/31 11:41:50.2	300.990	-0.070	-0.220	0.610
2020/01/31 11:41:50.3	300.980	-0.040	-0.240	0.630
2020/01/31 11:41:50.4	300.970	-0.010	-0.270	0.640
2020/01/31 11:41:50.5	300.960	0.020	-0.290	0.660
2020/01/31 11:41:50.6	300.960	0.060	-0.320	0.670
2020/01/31 11:41:50.7	300.950	0.090	-0.340	0.680
2020/01/31 11:41:50.8	300.940	0.130	-0.360	0.700
2020/01/31 11:41:50.9	300.940	0.160	-0.380	0.710
2020/01/31 11:41:51.0	300.930	0.200	-0.400	0.720
2020/01/31 11:41:51.1	300.920	0.230	-0.420	0.740
2020/01/31 11:41:51.2	300.920	0.270	-0.440	0.750
2020/01/31 11:41:51.3	300.910	0.310	-0.460	0.760
2020/01/31 11:41:51.4	300.900	0.340	-0.480	0.780
2020/01/31 11:41:51.5	300.900	0.380	-0.500	0.790
2020/01/31 11:41:51.6	300.900	0.410	-0.520	0.800
2020/01/31 11:41:51.7	300.900	0.450	-0.530	0.810
2020/01/31 11:41:51.8	300.890	0.480	-0.550	0.820
2020/01/31 11:41:51.9	300.890	0.520	-0.560	0.830
2020/01/31 11:41:52.0	300.890	0.550	-0.580	0.840
2020/01/31 11:41:52.1	300.890	0.580	-0.590	0.850
2020/01/31 11:41:52.2	300.890	0.610	-0.610	0.860
2020/01/31 11:41:52.3	300.890	0.640	-0.620	0.870
2020/01/31 11:41:52.4	300.890	0.670	-0.630	0.870
2020/01/31 11:41:52.5	300.890	0.690	-0.640	0.880
2020/01/31 11:41:52.6	300.900	0.720	-0.650	0.890
2020/01/31 11:41:52.7	300.900	0.740	-0.660	0.900
2020/01/31 11:41:52.8	300.900	0.760	-0.660	0.910
2020/01/31 11:41:52.9	300.910	0.770	-0.660	0.920
2020/01/31 11:41:53.0	300.910	0.790	-0.670	0.930
2020/01/31 11:41:53.1	300.910	0.800	-0.670	0.940
2020/01/31 11:41:53.2	300.910	0.810	-0.670	0.950
2020/01/31 11:41:53.3	300.910	0.820	-0.660	0.970
2020/01/31 11:41:53.4	300.910	0.820	-0.660	0.980
2020/01/31 11:41:53.5	300.910	0.820	-0.650	1.000
2020/01/31 11:41:53.6	300.900	0.820	-0.640	1.020
2020/01/31 11:41:53.7	300.900	0.810	-0.630	1.030
2020/01/31 11:41:53.8	300.900	0.810	-0.620	1.050
2020/01/31 11:41:53.9	300.890	0.800	-0.600	1.070
2020/01/31 11:41:54.0	300.880	0.780	-0.590	1.090
2020/01/31 11:41:54.1	300.880	0.770	-0.570	1.110
2020/01/31 11:41:54.2	300.870	0.750	-0.550	1.130
2020/01/31 11:41:54.3	300.860	0.730	-0.530	1.150
2020/01/31 11:41:54.4	300.850	0.710	-0.510	1.170
2020/01/31 11:41:54.5	300.850	0.690	-0.490	1.190
2020/01/31 11:41:54.6	300.840	0.670	-0.460	1.200
2020/01/31 11:41:54.7	300.830	0.640	-0.440	1.220
2020/01/31 11:41:54.8	300.820	0.610	-0.420	1.230
2020/01/31 11:41:54.9	300.810	0.590	-0.400	1.240
2020/01/31 11:41:55.0	300.800	0.560	-0.380	1.250
2020/01/31 11:41:55.1	300.790	0.520	-0.350	1.250
2020/01/31 11:41:55.2	300.780	0.490	-0.330	1.260
2020/01/31 11:41:55.3	300.770	0.460	-0.310	1.260
2020/01/31 11:41:55.4	300.760	0.430	-0.290	1.250
2020/01/31 11:41:55.5	300.760	0.390	-0.270	1.240
2020/01/31 11:41:55.6	300.750	0.360	-0.250	1.230
2020/01/31 11:41:55.7	300.740	0.330	-0.230	1.220
2020/01/31 11:41:55.8	300.730	0.290	-0.220	1.200
2020/01/31 11:41:55.9	300.730	0.260	-0.200	1.190
2020/01/31 11:41:56.0	300.720	0.220	-0.180	1.160
2020/01/31 11:41:56.1	300.710	0.190	-0.170	1.140
2020/01/31 11:41:56.2	300.710	0.160	-0.160	1.110
2020/01/31 11:41:56.3	300.700	0.120	-0.150	1.070
2020/01/31 11:41:56.4	300.700	0.090	-0.130	1.040
2020/01/31 11:41:56.5	300.690	0.060	-0.130	1.000
2020/01/31 11:41:56.6	300.690	0.030	-0.120	0.960
2020/01/31 11:41:56.7	300.680	-0.000	-0.110	0.920
2020/01/31 11:41:56.8	300.680	-0.040	-0.110	0.880
2020/01/31 11:41:56.9	300.680	-0.060	-0.100	0.830
2020/01/31 11:41:57.0	300.680	-0.090	-0.100	0.780
2020/01/31 11:41:57.1	300.680	-0.120	-0.100	0.730
2020/01/31 11:41:57.2	300.680	-0.150	-0.090	0.680
2020/01/31 11:41:57.3	300.690	-0.170	-0.090	0.630
2020/01/31 11:41:57.4	300.690	-0.200	-0.090	0.580
2020/01/31 11:41:57.5	300.720	-0.220	-0.090	0.520
2020/01/31 11:41:57.6	300.720	-0.250	-0.100	0.460
2020/01/31 11:41:57.7	300.730	-0.270	-0.100	0.400
2020/01/31 11:41:57.8	300.740	-0.290	-0.100	0.340
2020/01/31 11:41:57.9	300.750	-0.310	-0.110	0.280
2020/01/31 11:41:58.0	300.770	-0.330	-0.120	0.210
2020/01/31 11:41:58.1	300.780	-0.350	-0.120	0.150
2020/01/31 11:41:58.2	300.800	-0.360	-0.130	0.080
2020/01/31 11:41:58.3	300.820	-0.380	-0.140	0.020
2020/01/31 11:41:58.4	300.840	-0.400	-0.150	-0.050
2020/01/31 11:41:58.5	300.870	-0.410	-0.160	-0.110
2020/01/31 11:41:58.6	300.890	-0.420	-0.180	-0.180
2020/01/31 11:41:58.7	300.920	-0.440	-0.190	-0.240
2020/01/31 11:41:58.8	300.940	-0.450	-0.200	-0.310
2020/01/31 11:41:58.9	300.970	-0.460	-0.210	-0.370
2020/01/31 11:41:59.0	301.000	-0.470	-0.220	-0.440
2020/01/31 11:41:59.1	301.030	-0.480	-0.230	-0.500
2020/01/31 11:41:59.2	301.060	-0.490	-0.240	-0.560
2020/01/31 11:41:59.3	301.080	-0.500	-0.250	-0.610
2020/01/31 11:41:59.4	301.110	-0.500	-0.250	-0.660
2020/01/31 11:41:59.5	301.140	-0.510	-0.260	-0.710
2020/01/31 11:41:59.6	301.170	-0.520	-0.270	-0.760
2020/01/31 11:41:59.7	301.190	-0.520	-0.270	-0.790
2020/01/31 11:41:59.8	301.220	-0.530	-0.270	-0.830
2020/01/31 11:41:59.9	301.240	-0.530	-0.270	-0.860
2020/01/31 11:42:00.0	301.260	-0.540	-0.270	-0.880
2020/01/31 11:42:00.1	301.280	-0.540	-0.270	-0.900
2020/01/31 11:42:00.2	301.300	-0.540	-0.260	-0.910
2020/01/31 11:42:00.3	301.310	-0.540	-0.250	-0.910
2020/01/31 11:42:00.4	301.330	-0.550	-0.240	-0.910
2020/01/31 11:42:00.5	301.330	-0.550	-0.240	-0.910
2020/01/31 11:42:00.6	301.340	-0.550	-0.230	-0.900
2020/01/31 11:42:00.7	301.350	-0.550	-0.210	-0.880
2020/01/31 11:42:00.8	301.360	-0.550	-0.200	-0.860
2020/01/31 11:42:00.9	301.360	-0.550	-0.180	-0.830
2020/01/31 11:42:01.0	301.370	-0.540	-0.170	-0.800
2020/01/31 11:42:01.1	301.370	-0.540	-0.150	-0.770
2020/01/31 11:42:01.2	301.370	-0.540	-0.130	-0.730
2020/01/31 11:42:01.3	301.370	-0.530	-0.120	-0.690
2020/01/31 11:42:01.4	301.360	-0.530	-0.100	-0.650
2020/01/31 11:42:01.5	301.360	-0.520	-0.080	-0.610
2020/01/31 11:42:01.6	301.360	-0.520	-0.070	-0.560
2020/01/31 11:42:01.7	301.350	-0.510	-0.050	-0.500
2020/01/31 11:42:01.8	301.350	-0.500	-0.040	-0.450
2020/01/31 11:42:01.9	301.340	-0.490	-0.030	-0.390
2020/01/31 11:42:02.0	301.330	-0.480	-0.020	-0.330
2020/01/31 11:42:02.1	301.320	-0.460	-0.010	-0.270
2020/01/31 11:42:02.2	301.310	-0.450	0.000	-0.210
2020/01/31 11:42:02.3	301.300	-0.430	0.010	-0.150
2020/01/31 11:42:02.4	301.290	-0.420	0.010	-0.080
2020/01/31 11:42:02.5	301.290	-0.400	0.010	-0.010
2020/01/31 11:42:02.6	301.280	-0.380	0.020	0.050
2020/01/31 11:42:02.7	301.260	-0.360	0.020	0.120
2020/01/31 11:42:02.8	301.250	-0.340	0.010	0.190
2020/01/31 11:42:02.9	301.240	-0.320	0.010	0.260
2020/01/31 11:42:03.0	301.220	-0.300	0.010	0.330
2020/01/31 11:42:03.1	301.200	-0.280	0.000	0.400
2020/01/31 11:42:03.2	301.190	-0.250	-0.000	0.460
2020/01/31 11:42:03.3	301.170	-0.230	-0.010	0.530
2020/01/31 11:42:03.4	301.150	-0.210	-0.020	0.600
2020/01/31 11:42:03.5	301.130	-0.180	-0.020	0.670
2020/01/31 11:42:03.6	301.120	-0.150	-0.030	0.740
2020/01/31 11:42:03.7	301.100	-0.130	-0.040	0.800
2020/01/31 11:42:03.8	301.080	-0.100	-0.060	0.870
2020/01/31 11:42:03.9	301.070	-0.080	-0.070	0.930
2020/01/31 11:42:04.0	301.050	-0.050	-0.080	1.000
2020/01/31 11:42:04.1	301.030	-0.020	-0.090	1.060
2020/01/31 11:42:04.2	301.020	0.000	-0.110	1.120
2020/01/31 11:42:04.3	301.000	0.030	-0.120	1.170
2020/01/31 11:42:04.4	300.990	0.060	-0.130	1.230
2020/01/31 11:42:04.5	300.970	0.080	-0.150	1.280
2020/01/31 11:42:04.6	300.960	0.110	-0.170	1.330
2020/01/31 11:42:04.7	300.950	0.140	-0.180	1.370
2020/01/31 11:42:04.8	300.940	0.160	-0.200	1.420
2020/01/31 11:42:04.9	300.930	0.190	-0.210	1.460
2020/01/31 11:42:05.0	300.920	0.210	-0.230	1.500
2020/01/31 11:42:05.1	300.910	0.240	-0.240	1.530
2020/01/31 11:42:05.2	300.900	0.260	-0.260	1.570
2020/01/31 11:42:05.3	300.890	0.290	-0.270	1.590
2020/01/31 11:42:05.4	300.890	0.310	-0.280	1.620
2020/01/31 11:42:05.5	300.860	0.330	-0.290	1.640
2020/01/31 11:42:05.6	300.860	0.350	-0.310	1.670
2020/01/31 11:42:05.7	300.850	0.370	-0.320	1.680
2020/01/31 11:42:05.8	300.840	0.390	-0.330	1.700
2020/01/31 11:42:05.9	300.830	0.400	-0.340	1.710
2020/01/31 11:42:06.0	300.830	0.420	-0.340	1.730
2020/01/31 11:42:06.1	300.820	0.440	-0.350	1.730
2020/01/31 11:42:06.2	300.810	0.450	-0.360	1.740
2020/01/31 11:42:06.3	300.810	0.460	-0.370	1.740
2020/01/31 11:42:06.4	300.800	0.470	-0.370	1.750
2020/01/31 11:42:06.5	300.800	0.480	-0.380	1.750
2020/01/31 11:42:06.6	300.800	0.490	-0.390	1.740
2020/01/31 11:42:06.7	300.790	0.500	-0.390	1.740
2020/01/31 11:42:06.8	300.790	0.510	-0.400	1.730
2020/01/31 11:42:06.9	300.780	0.510	-0.400	1.710
2020/01/31 11:42:07.0	300.780	0.520	-0.410	1.700
2020/01/31 11:42:07.1	300.780	0.520	-0.420	1.680
2020/01/31 11:42:07.2	300.770	0.520	-0.420	1.660
2020/01/31 11:42:07.3	300.770	0.520	-0.430	1.640
2020/01/31 11:42:07.4	300.770	0.520	-0.440	1.610
2020/01/31 11:42:07.5	300.770	0.520	-0.440	1.580
2020/01/31 11:42:07.6	300.770	0.520	-0.450	1.550
2020/01/31 11:42:07.7	300.770	0.520	-0.460	1.510
2020/01/31 11:42:07.8	300.770	0.510	-0.470	1.480
2020/01/31 11:42:07.9	300.770	0.510	-0.470	1.440
2020/01/31 11:42:08.0	300.780	0.500	-0.480	1.400
2020/01/31 11:42:08.1	300.780	0.490	-0.490	1.350
2020/01/31 11:42:08.2	300.780	0.490	-0.500	1.310
2020/01/31 11:42:08.3	300.790	0.480	-0.510	1.260
2020/01/31 11:42:08.4	300.790	0.470	-0.510	1.210
2020/01/31 11:42:08.5	300.800	0.460	-0.520	1.160
2020/01/31 11:42:08.6	300.810	0.440	-0.530	1.110
2020/01/31 11:42:08.7	300.810	0.430	-0.530	1.060
2020/01/31 11:42:08.8	300.810	0.420	-0.530	1.000
2020/01/31 11:42:08.9	300.820	0.400	-0.540	0.940
2020/01/31 11:42:09.0	300.820	0.380	-0.540	0.890
2020/01/31 11:42:09.1	300.820	0.370	-0.540	0.830
2020/01/31 11:42:09.2	300.830	0.350	-0.540	0.770
2020/01/31 11:42:09.3	300.830	0.330	-0.530	0.710
2020/01/31 11:42:09.4	300.830	0.310	-0.530	0.650
2020/01/31 11:42:09.5	300.840	0.290	-0.530	0.590
2020/01/31 11:42:09.6	300.850	0.270	-0.520	0.530
2020/01/31 11:42:09.7	300.850	0.250	-0.510	0.470
2020/01/31 11:42:09.8	300.850	0.230	-0.500	0.420
2020/01/31 11:42:09.9	300.850	0.200	-0.490	0.360
2020/01/31 11:42:10.0	300.860	0.180	-0.480	0.300
2020/01/31 11:42:10.1	300.860	0.160	-0.460	0.240
2020/01/31 11:42:10.2	300.870	0.130	-0.450	0.180
2020/01/31 11:42:10.3	300.870	0.110	-0.430	0.130
2020/01/31 11:42:10.4	300.880	0.080	-0.420	0.070
2020/01/31 11:42:10.5	300.870	0.060	-0.400	0.010
2020/01/31 11:42:10.6	300.880	0.030	-0.380	-0.040
2020/01/31 11:42:10.7	300.890	0.010	-0.360	-0.100
2020/01/31 11:42:10.8	300.890	-0.020	-0.340	-0.150
2020/01/31 11:42:10.9	300.900	-0.040	-0.320	-0.200
2020/01/31 11:42:11.0	300.910	-0.060	-0.300	-0.250
2020/01/31 11:42:11.1	300.920	-0.090	-0.280	-0.290
2020/01/31 11:42:11.2	300.930	-0.110	-0.260	-0.330
2020/01/31 11:42:11.3	300.930	-0.130	-0.240	-0.370
2020/01/31 11:42:11.4	300.940	-0.160	-0.220	-0.410
2020/01/31 11:42:11.5	300.960	-0.180	-0.190	-0.440
2020/01/31 11:42:11.6	300.960	-0.200	-0.170	-0.480
2020/01/31 11:42:11.7	300.970	-0.220	-0.150	-0.500
2020/01/31 11:42:11.8	300.980	-0.240	-0.130	-0.530
2020/01/31 11:42:11.9	300.980	-0.250	-0.110	-0.550
2020/01/31 11:42:12.0	300.990	-0.270	-0.080	-0.560
2020/01/31 11:42:12.1	300.990	-0.290	-0.060	-0.570
2020/01/31 11:42:12.2	301.000	-0.300	-0.040	-0.580
2020/01/31 11:42:12.3	301.000	-0.320	-0.020	-0.580
2020/01/31 11:42:12.4	301.000	-0.330	-0.010	-0.580
2020/01/31 11:42:12.5	301.010	-0.340	0.010	-0.580
2020/01/31 11:42:12.6	301.010	-0.350	0.020	-0.570
2020/01/31 11:42:12.7	301.010	-0.360	0.040	-0.560
2020/01/31 11:42:12.8	301.010	-0.370	0.050	-0.540
2020/01/31 11:42:12.9	301.020	-0.380	0.060	-0.520
2020/01/31 11:42:13.0	301.020	-0.380	0.060	-0.500
2020/01/31 11:42:13.1	301.020	-0.390	0.070	-0.480
2020/01/31 11:42:13.2	301.020	-0.390	0.070	-0.450
2020/01/31 11:42:13.3	301.030	-0.390	0.070	-0.430
2020/01/31 11:42:13.4	301.030	-0.390	0.060	-0.400
2020/01/31 11:42:13.5	301.040	-0.390	0.050	-0.360
2020/01/31 11:42:13.6	301.040	-0.390	0.040	-0.330
2020/01/31 11:42:13.7	301.050	-0.380	0.030	-0.290
2020/01/31 11:42:13.8	301.060	-0.380	0.020	-0.260
2020/01/31 11:42:13.9	301.070	-0.370	-0.000	-0.210
2020/01/31 11:42:14.0	301.070	-0.370	-0.020	-0.170
2020/01/31 11:42:14.1	301.080	-0.360	-0.040	-0.130
2020/01/31 11:42:14.2	301.090	-0.350	-0.060	-0.080
2020/01/31 11:42:14.3	301.100	-0.340	-0.080	-0.030
2020/01/31 11:42:14.4	301.110	-0.320	-0.110	0.020
2020/01/31 11:42:14.5	301.120	-0.310	-0.130	0.070
2020/01/31 11:42:14.6	301.120	-0.300	-0.160	0.120
2020/01/31 11:42:14.7	301.130	-0.290	-0.180	0.170
2020/01/31 11:42:14.8	301.140	-0.270	-0.210	0.230
2020/01/31 11:42:14.9	301.140	-0.260	-0.230	0.280
2020/01/31 11:42:15.0	301.150	-0.240	-0.250	0.340
2020/01/31 11:42:15.1	301.150	-0.230	-0.270	0.400
2020/01/31 11:42:15.2	301.150	-0.210	-0.290	0.450
2020/01/31 11:42:15.3	301.150	-0.200	-0.310	0.510
2020/01/31 11:42:15.4	301.150	-0.190	-0.320	0.570
2020/01/31 11:42:15.5	301.150	-0.170	-0.330	0.630
2020/01/31 11:42:15.6	301.150	-0.160	-0.340	0.680
2020/01/31 11:42:15.7	301.150	-0.150	-0.340	0.740
2020/01/31 11:42:15.8	301.140	-0.130	-0.350	0.790
2020/01/31 11:42:15.9	301.140	-0.120	-0.340	0.850
2020/01/31 11:42:16.0	301.130	-0.110	-0.340	0.900
2020/01/31 11:42:16.1	301.120	-0.100	-0.330	0.950
2020/01/31 11:42:16.2	301.110	-0.090	-0.320	1.010
2020/01/31 11:42:16.3	301.100	-0.080	-0.300	1.050
2020/01/31 11:42:16.4	301.090	-0.080	-0.290	1.100
2020/01/31 11:42:16.5	301.070	-0.070	-0.260	1.150
2020/01/31 11:42:16.6	301.060	-0.060	-0.240	1.190
2020/01/31 11:42:16.7	301.050	-0.060	-0.210	1.230
2020/01/31 11:42:16.8	301.040	-0.050	-0.180	1.270
2020/01/31 11:42:16.9	301.020	-0.050	-0.150	1.300
2020/01/31 11:42:17.0	301.010	-0.050	-0.120	1.340
2020/01/31 11:42:17.1	300.990	-0.050	-0.080	1.370
2020/01/31 11:42:17.2	300.970	-0.040	-0.050	1.390
2020/01/31 11:42:17.3	300.960	-0.040	-0.020	1.410
2020/01/31 11:42:17.4	300.940	-0.040	0.020	1.430
2020/01/31 11:42:17.5	300.920	-0.040	0.050	1.450
2020/01/31 11:42:17.6	300.900	-0.040	0.080	1.460
2020/01/31 11:42:17.7	300.880	-0.040	0.110	1.470
2020/01/31 11:42:17.8	300.860	-0.040	0.140	1.480
2020/01/31 11:42:17.9	300.850	-0.030	0.170	1.480
2020/01/31 11:42:18.0	300.830	-0.030	0.190	1.480
2020/01/31 11:42:18.1	300.810	-0.030	0.210	1.480
2020/01/31 11:42:18.2	300.790	-0.030	0.230	1.470
2020/01/31 11:42:18.3	300.770	-0.020	0.240	1.460
2020/01/31 11:42:18.4	300.760	-0.020	0.250	1.450
2020/01/31 11:42:18.5	300.740	-0.010	0.260	1.430
2020/01/31 11:42:18.6	300.720	-0.010	0.260	1.410
2020/01/31 11:42:18.7	300.710	0.000	0.250	1.390
2020/01/31 11:42:18.8	300.690	0.010	0.240	1.370
2020/01/31 11:42:18.9	300.670	0.020	0.230	1.350
2020/01/31 11:42:19.0	300.660	0.030	0.210	1.330
2020/01/31 11:42:19.1	300.640	0.040	0.190	1.300
2020/01/31 11:42:19.2	300.630	0.050	0.170	1.270
2020/01/31 11:42:19.3	300.610	0.070	0.140	1.250
2020/01/31 11:42:19.4	300.600	0.080	0.100	1.220
2020/01/31 11:42:19.5	300.590	0.090	0.060	1.190
2020/01/31 11:42:19.6	300.580	0.110	0.020	1.160
2020/01/31 11:42:19.7	300.560	0.120	-0.020	1.120
2020/01/31 11:42:19.8	300.550	0.140	-0.060	1.090
2020/01/31 11:42:19.9	300.530	0.160	-0.110	1.060
2020/01/31 11:42:20.0	300.520	0.170	-0.150	1.020
2020/01/31 11:42:20.1	300.500	0.190	-0.200	0.990
2020/01/31 11:42:20.2	300.490	0.200	-0.250	0.960
2020/01/31 11:42:20.3	300.470	0.220	-0.300	0.920
2020/01/31 11:42:20.4	300.460	0.240	-0.350	0.890
2020/01/31 11:42:20.5	300.460	0.250	-0.400	0.850
2020/01/31 11:42:20.6	300.450	0.260	-0.450	0.820
2020/01/31 11:42:20.7	300.430	0.280	-0.500	0.780
2020/01/31 11:42:20.8	300.420	0.290	-0.550	0.740
2020/01/31 11:42:20.9	300.410	0.300	-0.600	0.710
2020/01/31 11:42:21.0	300.400	0.310	-0.650	0.670
2020/01/31 11:42:21.1	300.390	0.320	-0.690	0.630
2020/01/31 11:42:21.2	300.390	0.320	-0.740	0.590
2020/01/31 11:42:21.3	300.380	0.330	-0.780	0.550
2020/01/31 11:42:21.4	300.380	0.330	-0.820	0.510
2020/01/31 11:42:21.5	300.370	0.330	-0.860	0.470
2020/01/31 11:42:21.6	300.370	0.330	-0.890	0.430
2020/01/31 11:42:21.7	300.380	0.330	-0.920	0.390
2020/01/31 11:42:21.8	300.380	0.330	-0.950	0.350
2020/01/31 11:42:21.9	300.380	0.320	-0.980	0.310
2020/01/31 11:42:22.0	300.390	0.310	-1.000	0.270
2020/01/31 11:42:22.1	300.400	0.300	-1.020	0.240
2020/01/31 11:42:22.2	300.410	0.290	-1.030	0.200
2020/01/31 11:42:22.3	300.420	0.280	-1.050	0.160
2020/01/31 11:42:22.4	300.430	0.270	-1.050	0.130
2020/01/31 11:42:22.5	300.450	0.250	-1.060	0.090
2020/01/31 11:42:22.6	300.460	0.240	-1.060	0.060
2020/01/31 11:42:22.7	300.480	0.220	-1.060	0.030
2020/01/31 11:42:22.8	300.500	0.200	-1.060	-0.010
2020/01/31 11:42:22.9	300.520	0.190	-1.050	-0.040
2020/01/31 11:42:23.0	300.540	0.170	-1.040	-0.070
2020/01/31 11:42:23.1	300.560	0.150	-1.030	-0.090
2020/01/31 11:42:23.2	300.590	0.130	-1.010	-0.120
2020/01/31 11:42:23.3	300.610	0.110	-1.000	-0.150
2020/01/31 11:42:23.4	300.640	0.090	-0.980	-0.170
2020/01/31 11:42:23.5	300.670	0.070	-0.960	-0.190
2020/01/31 11:42:23.6	300.690	0.050	-0.930	-0.210
2020/01/31 11:42:23.7	300.720	0.030	-0.910	-0.230
2020/01/31 11:42:23.8	300.750	0.010	-0.880	-0.250
2020/01/31 11:42:23.9	300.770	-0.010	-0.850	-0.260
2020/01/31 11:42:24.0	300.800	-0.030	-0.820	-0.280
2020/01/31 11:42:24.1	300.820	-0.050	-0.790	-0.290
2020/01/31 11:42:24.2	300.850	-0.070	-0.750	-0.300
2020/01/31 11:42:24.3	300.870	-0.080	-0.720	-0.300
2020/01/31 11:42:24.4	300.900	-0.100	-0.680	-0.300
2020/01/31 11:42:24.5	300.930	-0.110	-0.640	-0.300
2020/01/31 11:42:24.6	300.950	-0.130	-0.600	-0.300
2020/01/31 11:42:24.7	300.970	-0.140	-0.560	-0.290
2020/01/31 11:42:24.8	300.990	-0.150	-0.520	-0.280
2020/01/31 11:42:24.9	301.010	-0.160	-0.470	-0.270
2020/01/31 11:42:25.0	301.030	-0.170	-0.430	-0.250
2020/01/31 11:42:25.1	301.040	-0.180	-0.380	-0.240
2020/01/31 11:42:25.2	301.050	-0.190	-0.330	-0.210
2020/01/31 11:42:25.3	301.070	-0.200	-0.280	-0.190
2020/01/31 11:42:25.4	301.080	-0.200	-0.230	-0.160
2020/01/31 11:42:25.5	301.090	-0.210	-0.170	-0.130
2020/01/31 11:42:25.6	301.100	-0.210	-0.120	-0.100
2020/01/31 11:42:25.7	301.110	-0.210	-0.070	-0.060
2020/01/31 11:42:25.8	301.110	-0.210	-0.010	-0.020
2020/01/31 11:42:25.9	301.120	-0.220	0.050	0.020
2020/01/31 11:42:26.0	301.120	-0.220	0.100	0.060
2020/01/31 11:42:26.1	301.120	-0.220	0.160	0.110
2020/01/31 11:42:26.2	301.120	-0.220	0.210	0.160
2020/01/31 11:42:26.3	301.110	-0.210	0.270	0.210
2020/01/31 11:42:26.4	301.110	-0.210	0.320	0.270
2020/01/31 11:42:26.5	301.100	-0.210	0.370	0.320
2020/01/31 11:42:26.6	301.090	-0.210	0.430	0.380
2020/01/31 11:42:26.7	301.080	-0.200	0.480	0.440
2020/01/31 11:42:26.8	301.060	-0.200	0.520	0.500
2020/01/31 11:42:26.9	301.050	-0.190	0.570	0.560
2020/01/31 11:42:27.0	301.030	-0.190	0.610	0.620
2020/01/31 11:42:27.1	301.020	-0.180	0.650	0.680
2020/01/31 11:42:27.2	301.000	-0.180	0.690	0.740
2020/01/31 11:42:27.3	300.980	-0.170	0.720	0.800
2020/01/31 11:42:27.4	300.960	-0.170	0.750	0.850
2020/01/31 11:42:27.5	300.930	-0.160	0.770	0.900
2020/01/31 11:42:27.6	300.900	-0.160	0.790	0.960
2020/01/31 11:42:27.7	300.880	-0.150	0.810	1.000
2020/01/31 11:42:27.8	300.860	-0.140	0.820	1.050
2020/01/31 11:42:27.9	300.840	-0.140	0.830	1.090
2020/01/31 11:42:28.0	300.810	-0.130	0.830	1.130
2020/01/31 11:42:28.1	300.790	-0.120	0.830	1.170
2020/01/31 11:42:28.2	300.760	-0.110	0.820	1.200
2020/01/31 11:42:28.3	300.740	-0.110	0.810	1.230
2020/01/31 11:42:28.4	300.720	-0.100	0.800	1.260
2020/01/31 11:42:28.5	300.690	-0.090	0.780	1.280
2020/01/31 11:42:28.6	300.660	-0.090	0.760	1.300
2020/01/31 11:42:28.7	300.640	-0.080	0.740	1.310
2020/01/31 11:42:28.8	300.610	-0.070	0.710	1.320
2020/01/31 11:42:28.9	300.590	-0.060	0.680	1.330
2020/01/31 11:42:29.0	300.570	-0.060	0.640	1.330
2020/01/31 11:42:29.1	300.540	-0.050	0.600	1.330
2020/01/31 11:42:29.2	300.520	-0.040	0.560	1.320
2020/01/31 11:42:29.3	300.500	-0.030	0.520	1.310
2020/01/31 11:42:29.4	300.480	-0.030	0.470	1.300
2020/01/31 11:42:29.5	300.470	-0.020	0.420	1.290
2020/01/31 11:42:29.6	300.450	-0.010	0.370	1.270
2020/01/31 11:42:29.7	300.440	-0.000	0.320	1.240
2020/01/31 11:42:29.8	300.420	0.010	0.260	1.220
2020/01/31 11:42:29.9	300.410	0.020	0.200	1.190
2020/01/31 11:42:30.0	300.400	0.030	0.140	1.150
2020/01/31 11:42:30.1	300.380	0.040	0.080	1.120
2020/01/31 11:42:30.2	300.370	0.050	0.010	1.080
2020/01/31 11:42:30.3	300.370	0.060	-0.060	1.040
2020/01/31 11:42:30.4	300.360	0.070	-0.120	1.000
2020/01/31 11:42:30.5	300.350	0.080	-0.200	0.950
2020/01/31 11:42:30.6	300.350	0.090	-0.270	0.910
2020/01/31 11:42:30.7	300.340	0.100	-0.330	0.860
2020/01/31 11:42:30.8	300.340	0.110	-0.400	0.820
2020/01/31 11:42:30.9	300.330	0.120	-0.470	0.770
2020/01/31 11:42:31.0	300.330	0.130	-0.540	0.730
2020/01/31 11:42:31.1	300.330	0.140	-0.600	0.680
2020/01/31 11:42:31.2	300.320	0.150	-0.670	0.640
2020/01/31 11:42:31.3	300.320	0.160	-0.730	0.600
2020/01/31 11:42:31.4	300.310	0.170	-0.790	0.560
2020/01/31 11:42:31.5	300.310	0.180	-0.840	0.510
2020/01/31 11:42:31.6	300.310	0.190	-0.900	0.480
2020/01/31 11:42:31.7	300.310	0.190	-0.950	0.440
2020/01/31 11:42:31.8	300.300	0.200	-1.000	0.400
2020/01/31 11:42:31.9	300.300	0.200	-1.040	0.370
2020/01/31 11:42:32.0	300.300	0.210	-1.080	0.340
2020/01/31 11:42:32.1	300.290	0.210	-1.110	0.310
2020/01/31 11:42:32.2	300.290	0.210	-1.140	0.280
2020/01/31 11:42:32.3	300.290	0.210	-1.170	0.260
2020/01/31 11:42:32.4	300.290	0.210	-1.190	0.230
2020/01/31 11:42:32.5	300.270	0.210	-1.210	0.210
2020/01/31 11:42:32.6	300.270	0.210	-1.230	0.190
2020/01/31 11:42:32.7	300.270	0.210	-1.240	0.180
2020/01/31 11:42:32.8	300.270	0.200	-1.240	0.160
2020/01/31 11:42:32.9	300.270	0.200	-1.240	0.150
2020/01/31 11:42:33.0	300.270	0.190	-1.240	0.140
2020/01/31 11:42:33.1	300.270	0.180	-1.230	0.130
2020/01/31 11:42:33.2	300.270	0.170	-1.220	0.120
2020/01/31 11:42:33.3	300.270	0.160	-1.200	0.120
2020/01/31 11:42:33.4	300.280	0.150	-1.190	0.110
2020/01/31 11:42:33.5	300.290	0.140	-1.160	0.110
2020/01/31 11:42:33.6	300.300	0.130	-1.140	0.110
2020/01/31 11:42:33.7	300.300	0.120	-1.110	0.110
2020/01/31 11:42:33.8	300.310	0.110	-1.080	0.110
2020/01/31 11:42:33.9	300.320	0.090	-1.050	0.120
2020/01/31 11:42:34.0	300.320	0.080	-1.020	0.120
2020/01/31 11:42:34.1	300.330	0.070	-0.980	0.130
2020/01/31 11:42:34.2	300.340	0.050	-0.940	0.130
2020/01/31 11:42:34.3	300.350	0.040	-0.900	0.140
2020/01/31 11:42:34.4	300.360	0.020	-0.860	0.150
2020/01/31 11:42:34.5	300.380	0.010	-0.820	0.160
2020/01/31 11:42:34.6	300.390	-0.010	-0.780	0.170
2020/01/31 11:42:34.7	300.410	-0.020	-0.740	0.170
2020/01/31 11:42:34.8	300.420	-0.040	-0.700	0.180
2020/01/31 11:42:34.9	300.440	-0.060	-0.660	0.190
2020/01/31 11:42:35.0	300.450	-0.070	-0.620	0.190
2020/01/31 11:42:35.1	300.470	-0.090	-0.580	0.200
2020/01/31 11:42:35.2	300.490	-0.100	-0.530	0.200
2020/01/31 11:42:35.3	300.510	-0.120	-0.500	0.210
2020/01/31 11:42:35.4	300.530	-0.130	-0.460	0.220
2020/01/31 11:42:35.5	300.540	-0.140	-0.410	0.220
2020/01/31 11:42:35.6	300.560	-0.160	-0.380	0.220
2020/01/31 11:42:35.7	300.580	-0.170	-0.340	0.230
2020/01/31 11:42:35.8	300.600	-0.180	-0.300	0.240
2020/01/31 11:42:35.9	300.620	-0.190	-0.270	0.250
2020/01/31 11:42:36.0	300.640	-0.210	-0.230	0.250
2020/01/31 11:42:36.1	300.660	-0.220	-0.200	0.260
2020/01/31 11:42:36.2	300.680	-0.220	-0.160	0.270
2020/01/31 11:42:36.3	300.700	-0.230	-0.130	0.290
2020/01/31 11:42:36.4	300.720	-0.240	-0.100	0.300
2020/01/31 11:42:36.5	300.730	-0.240	-0.070	0.310
2020/01/31 11:42:36.6	300.750	-0.250	-0.030	0.330
2020/01/31 11:42:36.7	300.770	-0.250	-0.000	0.340
2020/01/31 11:42:36.8	300.780	-0.260	0.030	0.360
2020/01/31 11:42:36.9	300.800	-0.260	0.060	0.390
2020/01/31 11:42:37.0	300.810	-0.260	0.090	0.410
2020/01/31 11:42:37.1	300.820	-0.250	0.120	0.430
2020/01/31 11:42:37.2	300.830	-0.250	0.150	0.460
2020/01/31 11:42:37.3	300.850	-0.250	0.180	0.490
2020/01/31 11:42:37.4	300.860	-0.240	0.210	0.510
2020/01/31 11:42:37.5	300.860	-0.240	0.230	0.550
2020/01/31 11:42:37.6	300.870	-0.230	0.260	0.580
2020/01/31 11:42:37.7	300.870	-0.220	0.280	0.610
2020/01/31 11:42:37.8	300.880	-0.210	0.300	0.650
2020/01/31 11:42:37.9	300.880	-0.200	0.320	0.680
2020/01/31 11:42:38.0	300.880	-0.190	0.340	0.720
2020/01/31 11:42:38.1	300.880	-0.170	0.360	0.750
2020/01/31 11:42:38.2	300.880	-0.160	0.370	0.790
2020/01/31 11:42:38.3	300.880	-0.150	0.390	0.830
2020/01/31 11:42:38.4	300.880	-0.130	0.390	0.860
2020/01/31 11:42:38.5	300.870	-0.120	0.400	0.900
2020/01/31 11:42:38.6	300.860	-0.100	0.400	0.930
2020/01/31 11:42:38.7	300.860	-0.090	0.400	0.960
2020/01/31 11:42:38.8	300.860	-0.070	0.400	1.000
2020/01/31 11:42:38.9	300.850	-0.050	0.400	1.030
2020/01/31 11:42:39.0	300.840	-0.040	0.390	1.060
2020/01/31 11:42:39.1	300.840	-0.020	0.380	1.080
2020/01/31 11:42:39.2	300.830	-0.000	0.360	1.110
2020/01/31 11:42:39.3	300.820	0.010	0.350	1.130
2020/01/31 11:42:39.4	300.820	0.030	0.330	1.150
2020/01/31 11:42:39.5	300.800	0.040	0.310	1.170
2020/01/31 11:42:39.6	300.800	0.060	0.290	1.180
2020/01/31 11:42:39.7	300.790	0.070	0.270	1.200
2020/01/31 11:42:39.8	300.780	0.090	0.240	1.210
2020/01/31 11:42:39.9	300.770	0.100	0.220	1.210
2020/01/31 11:42:40.0	300.760	0.110	0.190	1.220
2020/01/31 11:42:40.1	300.750	0.120	0.170	1.220
2020/01/31 11:42:40.2	300.740	0.130	0.140	1.220
2020/01/31 11:42:40.3	300.730	0.140	0.120	1.210
2020/01/31 11:42:40.4	300.730	0.150	0.090	1.200
2020/01/31 11:42:40.5	300.710	0.160	0.070	1.190
2020/01/31 11:42:40.6	300.700	0.160	0.040	1.170
2020/01/31 11:42:40.7	300.690	0.160	0.020	1.160
2020/01/31 11:42:40.8	300.680	0.170	0.000	1.140
2020/01/31 11:42:40.9	300.670	0.170	-0.020	1.110
2020/01/31 11:42:41.0	300.650	0.170	-0.040	1.090
2020/01/31 11:42:41.1	300.640	0.170	-0.050	1.070
2020/01/31 11:42:41.2	300.620	0.170	-0.070	1.040
2020/01/31 11:42:41.3	300.610	0.170	-0.080	1.010
2020/01/31 11:42:41.4	300.590	0.160	-0.100	0.980
2020/01/31 11:42:41.5	300.580	0.160	-0.110	0.950
2020/01/31 11:42:41.6	300.560	0.160	-0.120	0.920
2020/01/31 11:42:41.7	300.540	0.150	-0.130	0.890
2020/01/31 11:42:41.8	300.520	0.140	-0.140	0.860
2020/01/31 11:42:41.9	300.500	0.140	-0.150	0.820
2020/01/31 11:42:42.0	300.480	0.130	-0.160	0.790
2020/01/31 11:42:42.1	300.460	0.120	-0.160	0.760
2020/01/31 11:42:42.2	300.440	0.120	-0.170	0.720
2020/01/31 11:42:42.3	300.420	0.110	-0.180	0.690
2020/01/31 11:42:42.4	300.390	0.100	-0.180	0.660
2020/01/31 11:42:42.5	300.380	0.100	-0.190	0.620
2020/01/31 11:42:42.6	300.360	0.090	-0.200	0.590
2020/01/31 11:42:42.7	300.330	0.080	-0.200	0.560
2020/01/31 11:42:42.8	300.310	0.080	-0.210	0.530
2020/01/31 11:42:42.9	300.300	0.070	-0.220	0.500
2020/01/31 11:42:43.0	300.280	0.060	-0.230	0.470
2020/01/31 11:42:43.1	300.260	0.060	-0.240	0.440
2020/01/31 11:42:43.2	300.240	0.060	-0.250	0.410
2020/01/31 11:42:43.3	300.230	0.050	-0.270	0.380
2020/01/31 11:42:43.4	300.220	0.050	-0.280	0.350
2020/01/31 11:42:43.5	300.210	0.050	-0.300	0.320
2020/01/31 11:42:43.6	300.200	0.050	-0.320	0.290
2020/01/31 11:42:43.7	300.190	0.040	-0.340	0.260
2020/01/31 11:42:43.8	300.180	0.040	-0.360	0.230
2020/01/31 11:42:43.9	300.170	0.040	-0.380	0.200
2020/01/31 11:42:44.0	300.170	0.050	-0.410	0.170
2020/01/31 11:42:44.1	300.160	0.050	-0.440	0.150
2020/01/31 11:42:44.2	300.160	0.050	-0.460	0.120
2020/01/31 11:42:44.3	300.160	0.050	-0.490	0.090
2020/01/31 11:42:44.4	300.150	0.050	-0.520	0.070
2020/01/31 11:42:44.5	300.150	0.060	-0.550	0.040
2020/01/31 11:42:44.6	300.160	0.060	-0.590	0.020
2020/01/31 11:42:44.7	300.160	0.060	-0.620	-0.010
2020/01/31 11:42:44.8	300.160	0.060	-0.650	-0.030
2020/01/31 11:42:44.9	300.170	0.070	-0.680	-0.060
2020/01/31 11:42:45.0	300.170	0.070	-0.710	-0.080
2020/01/31 11:42:45.1	300.180	0.070	-0.750	-0.100
2020/01/31 11:42:45.2	300.190	0.070	-0.780	-0.120
2020/01/31 11:42:45.3	300.200	0.070	-0.810	-0.140
2020/01/31 11:42:45.4	300.210	0.070	-0.830	-0.160
2020/01/31 11:42:45.5	300.230	0.070	-0.860	-0.170
2020/01/31 11:42:45.6	300.240	0.070	-0.880	-0.190
2020/01/31 11:42:45.7	300.250	0.070	-0.910	-0.200
2020/01/31 11:42:45.8	300.270	0.070	-0.920	-0.210
2020/01/31 11:42:45.9	300.290	0.070	-0.940	-0.220
2020/01/31 11:42:46.0	300.300	0.060	-0.950	-0.230
2020/01/31 11:42:46.1	300.320	0.060	-0.960	-0.230
2020/01/31 11:42:46.2	300.340	0.050	-0.970	-0.230
2020/01/31 11:42:46.3	300.360	0.050	-0.970	-0.230
2020/01/31 11:42:46.4	300.380	0.040	-0.970	-0.230
2020/01/31 11:42:46.5	300.400	0.030	-0.960	-0.220
2020/01/31 11:42:46.6	300.420	0.020	-0.950	-0.210
2020/01/31 11:42:46.7	300.440	0.010	-0.930	-0.200
2020/01/31 11:42:46.8	300.460	-0.000	-0.910	-0.190
2020/01/31 11:42:46.9	300.490	-0.010	-0.890	-0.170
2020/01/31 11:42:47.0	300.510	-0.020	-0.860	-0.150
2020/01/31 11:42:47.1	300.530	-0.040	-0.830	-0.120
2020/01/31 11:42:47.2	300.550	-0.050	-0.800	-0.100
2020/01/31 11:42:47.3	300.570	-0.060	-0.760	-0.070
2020/01/31 11:42:47.4	300.590	-0.080	-0.720	-0.030
2020/01/31 11:42:47.5	300.630	-0.090	-0.670	0.000
2020/01/31 11:42:47.6	300.650	-0.100	-0.630	0.040
2020/01/31 11:42:47.7	300.670	-0.120	-0.580	0.080
2020/01/31 11:42:47.8	300.680	-0.130	-0.520	0.120
2020/01/31 11:42:47.9	300.700	-0.140	-0.470	0.170
2020/01/31 11:42:48.0	300.710	-0.160	-0.410	0.210
2020/01/31 11:42:48.1	300.730	-0.170	-0.350	0.260
2020/01/31 11:42:48.2	300.740	-0.180	-0.300	0.300
2020/01/31 11:42:48.3	300.750	-0.190	-0.240	0.350
2020/01/31 11:42:48.4	300.760	-0.200	-0.180	0.400
2020/01/31 11:42:48.5	300.760	-0.210	-0.110	0.450
2020/01/31 11:42:48.6	300.770	-0.220	-0.060	0.490
2020/01/31 11:42:48.7	300.780	-0.230	-0.000	0.540
2020/01/31 11:42:48.8	300.790	-0.230	0.050	0.590
2020/01/31 11:42:48.9	300.800	-0.240	0.100	0.630
2020/01/31 11:42:49.0	300.800	-0.240	0.150	0.680
2020/01/31 11:42:49.1	300.800	-0.240	0.200	0.720
2020/01/31 11:42:49.2	300.810	-0.240	0.240	0.760
2020/01/31 11:42:49.3	300.810	-0.240	0.280	0.800
2020/01/31 11:42:49.4	300.820	-0.240	0.310	0.840
2020/01/31 11:42:49.5	300.820	-0.240	0.340	0.870
2020/01/31 11:42:49.6	300.820	-0.230	0.360	0.910
2020/01/31 11:42:49.7	300.820	-0.220	0.380	0.940
2020/01/31 11:42:49.8	300.820	-0.220	0.400	0.970
2020/01/31 11:42:49.9	300.820	-0.210	0.410	1.000
2020/01/31 11:42:50.0	300.820	-0.200	0.410	1.030
2020/01/31 11:42:50.1	300.820	-0.190	0.410	1.050
2020/01/31 11:42:50.2	300.810	-0.170	0.410	1.080
2020/01/31 11:42:50.3	300.810	-0.160	0.400	1.100
2020/01/31 11:42:50.4	300.800	-0.140	0.390	1.120
2020/01/31 11:42:50.5	300.790	-0.130	0.370	1.130
2020/01/31 11:42:50.6	300.780	-0.110	0.360	1.150
2020/01/31 11:42:50.7	300.780	-0.100	0.330	1.160
2020/01/31 11:42:50.8	300.770	-0.080	0.310	1.170
2020/01/31 11:42:50.9	300.760	-0.060	0.280	1.180
2020/01/31 11:42:51.0	300.750	-0.050	0.250	1.190
2020/01/31 11:42:51.1	300.740	-0.030	0.220	1.190
2020/01/31 11:42:51.2	300.730	-0.010	0.190	1.190
2020/01/31 11:42:51.3	300.720	0.000	0.150	1.190
2020/01/31 11:42:51.4	300.710	0.020	0.120	1.190
2020/01/31 11:42:51.5	300.690	0.030	0.090	1.180
2020/01/31 11:42:51.6	300.690	0.050	0.050	1.180
2020/01/31 11:42:51.7	300.680	0.060	0.020	1.170
2020/01/31 11:42:51.8	300.670	0.080	-0.010	1.160
2020/01/31 11:42:51.9	300.660	0.090	-0.050	1.140
2020/01/31 11:42:52.0	300.650	0.100	-0.080	1.130
2020/01/31 11:42:52.1	300.640	0.110	-0.110	1.120
2020/01/31 11:42:52.2	300.630	0.120	-0.130	1.100
2020/01/31 11:42:52.3	300.620	0.130	-0.160	1.080
2020/01/31 11:42:52.4	300.610	0.140	-0.180	1.060
2020/01/31 11:42:52.5	300.600	0.150	-0.210	1.040
2020/01/31 11:42:52.6	300.590	0.150	-0.230	1.020
2020/01/31 11:42:52.7	300.580	0.160	-0.250	1.000
2020/01/31 11:42:52.8	300.570	0.160	-0.260	0.980
2020/01/31 11:42:52.9	300.570	0.160	-0.280	0.960
2020/01/31 11:42:53.0	300.560	0.170	-0.290	0.940
2020/01/31 11:42:53.1	300.550	0.170	-0.290	0.920
2020/01/31 11:42:53.2	300.540	0.160	-0.300	0.890
2020/01/31 11:42:53.3	300.530	0.160	-0.300	0.870
2020/01/31 11:42:53.4	300.530	0.160	-0.310	0.850
2020/01/31 11:42:53.5	300.520	0.150	-0.310	0.820
2020/01/31 11:42:53.6	300.510	0.150	-0.310	0.800
2020/01/31 11:42:53.7	300.500	0.140	-0.300	0.770
2020/01/31 11:42:53.8	300.500	0.130	-0.300	0.750
2020/01/31 11:42:53.9	300.490	0.130	-0.290	0.720
2020/01/31 11:42:54.0	300.480	0.120	-0.290	0.700
2020/01/31 11:42:54.1	300.470	0.110	-0.280	0.670
2020/01/31 11:42:54.2	300.460	0.090	-0.270	0.640
2020/01/31 11:42:54.3	300.450	0.080	-0.260	0.620
2020/01/31 11:42:54.4	300.440	0.070	-0.250	0.590
2020/01/31 11:42:54.5	300.440	0.060	-0.250	0.560
2020/01/31 11:42:54.6	300.430	0.040	-0.240	0.530
2020/01/31 11:42:54.7	300.420	0.030	-0.230	0.500
2020/01/31 11:42:54.8	300.410	0.020	-0.230	0.470
2020/01/31 11:42:54.9	300.410	0.000	-0.230	0.440
2020/01/31 11:42:55.0	300.400	-0.010	-0.220	0.400
2020/01/31 11:42:55.1	300.400	-0.020	-0.220	0.370
2020/01/31 11:42:55.2	300.390	-0.040	-0.220	0.330
2020/01/31 11:42:55.3	300.390	-0.050	-0.230	0.290
2020/01/31 11:42:55.4	300.390	-0.060	-0.230	0.260
2020/01/31 11:42:55.5	300.390	-0.080	-0.240	0.220
2020/01/31 11:42:55.6	300.390	-0.090	-0.250	0.180
2020/01/31 11:42:55.7	300.400	-0.100	-0.260	0.140
2020/01/31 11:42:55.8	300.400	-0.110	-0.270	0.100
2020/01/31 11:42:55.9	300.400	-0.120	-0.280	0.060
2020/01/31 11:42:56.0	300.410	-0.130	-0.300	0.010
2020/01/31 11:42:56.1	300.420	-0.130	-0.320	-0.030
2020/01/31 11:42:56.2	300.430	-0.140	-0.330	-0.070
2020/01/31 11:42:56.3	300.440	-0.140	-0.350	-0.110
2020/01/31 11:42:56.4	300.450	-0.150	-0.370	-0.140
2020/01/31 11:42:56.5	300.450	-0.150	-0.390	-0.180
2020/01/31 11:42:56.6	300.460	-0.150	-0.410	-0.210
2020/01/31 11:42:56.7	300.480	-0.150	-0.430	-0.240
2020/01/31 11:42:56.8	300.490	-0.140	-0.450	-0.270
2020/01/31 11:42:56.9	300.510	-0.140	-0.470	-0.300
2020/01/31 11:42:57.0	300.520	-0.130	-0.490	-0.320
2020/01/31 11:42:57.1	300.540	-0.130	-0.500	-0.330
2020/01/31 11:42:57.2	300.560	-0.120	-0.520	-0.350
2020/01/31 11:42:57.3	300.570	-0.110	-0.530	-0.350
2020/01/31 11:42:57.4	300.590	-0.100	-0.540	-0.360
2020/01/31 11:42:57.5	300.610	-0.080	-0.550	-0.360
2020/01/31 11:42:57.6	300.620	-0.070	-0.550	-0.350
2020/01/31 11:42:57.7	300.630	-0.060	-0.560	-0.340
2020/01/31 11:42:57.8	300.640	-0.040	-0.560	-0.330
2020/01/31 11:42:57.9	300.660	-0.030	-0.560	-0.310
2020/01/31 11:42:58.0	300.670	-0.010	-0.550	-0.280
2020/01/31 11:42:58.1	300.680	0.000	-0.550	-0.250
2020/01/31 11:42:58.2	300.680	0.020	-0.540	-0.220
2020/01/31 11:42:58.3	300.690	0.040	-0.530	-0.190
2020/01/31 11:42:58.4	300.700	0.050	-0.510	-0.150
2020/01/31 11:42:58.5	300.710	0.070	-0.500	-0.110
2020/01/31 11:42:58.6	300.710	0.080	-0.480	-0.070
2020/01/31 11:42:58.7	300.710	0.100	-0.460	-0.030
2020/01/31 11:42:58.8	300.720	0.110	-0.440	0.020
2020/01/31 11:42:58.9	300.720	0.120	-0.420	0.070
2020/01/31 11:42:59.0	300.720	0.140	-0.400	0.110
2020/01/31 11:42:59.1	300.720	0.150	-0.380	0.160
2020/01/31 11:42:59.2	300.720	0.160	-0.350	0.210
2020/01/31 11:42:59.3	300.720	0.160	-0.330	0.260
2020/01/31 11:42:59.4	300.720	0.170	-0.310	0.310
2020/01/31 11:42:59.5	300.730	0.180	-0.280	0.360
2020/01/31 11:42:59.6	300.720	0.180	-0.260	0.410
2020/01/31 11:42:59.7	300.720	0.190	-0.230	0.460
2020/01/31 11:42:59.8	300.710	0.190	-0.210	0.510
2020/01/31 11:42:59.9	300.700	0.190	-0.190	0.560
2020/01/31 11:43:00.0	300.700	0.190	-0.170	0.610
2020/01/31 11:43:00.1	300.690	0.190	-0.150	0.660
2020/01/31 11:43:00.2	300.680	0.180	-0.140	0.700
2020/01/31 11:43:00.3	300.670	0.180	-0.120	0.750
2020/01/31 11:43:00.4	300.660	0.170	-0.110	0.790
2020/01/31 11:43:00.5	300.650	0.170	-0.090	0.840
2020/01/31 11:43:00.6	300.640	0.160	-0.080	0.880
2020/01/31 11:43:00.7	300.630	0.150	-0.070	0.920
2020/01/31 11:43:00.8	300.620	0.150	-0.070	0.960
2020/01/31 11:43:00.9	300.600	0.140	-0.060	0.990
2020/01/31 11:43:01.0	300.590	0.130	-0.050	1.030
2020/01/31 11:43:01.1	300.580	0.120	-0.050	1.060
2020/01/31 11:43:01.2	300.570	0.110	-0.050	1.090
2020/01/31 11:43:01.3	300.560	0.100	-0.050	1.110
2020/01/31 11:43:01.4	300.550	0.090	-0.060	1.130
2020/01/31 11:43:01.5	300.540	0.080	-0.060	1.150
2020/01/31 11:43:01.6	300.530	0.070	-0.060	1.170
2020/01/31 11:43:01.7	300.520	0.060	-0.070	1.180
2020/01/31 11:43:01.8	300.510	0.050	-0.080	1.190
2020/01/31 11:43:01.9	300.510	0.040	-0.090	1.190
2020/01/31 11:43:02.0	300.510	0.030	-0.100	1.200
2020/01/31 11:43:02.1	300.500	0.020	-0.110	1.190
2020/01/31 11:43:02.2	300.500	0.010	-0.130	1.190
2020/01/31 11:43:02.3	300.500	0.010	-0.140	1.180
2020/01/31 11:43:02.4	300.500	0.000	-0.150	1.170
2020/01/31 11:43:02.5	300.510	-0.000	-0.170	1.150
2020/01/31 11:43:02.6	300.520	-0.010	-0.190	1.130
2020/01/31 11:43:02.7	300.520	-0.010	-0.210	1.110
2020/01/31 11:43:02.8	300.530	-0.020	-0.220	1.090
2020/01/31 11:43:02.9	300.540	-0.020	-0.240	1.060
2020/01/31 11:43:03.0	300.550	-0.020	-0.260	1.030
2020/01/31 11:43:03.1	300.550	-0.030	-0.270	1.000
2020/01/31 11:43:03.2	300.570	-0.030	-0.290	0.970
2020/01/31 11:43:03.3	300.580	-0.030	-0.300	0.930
2020/01/31 11:43:03.4	300.590	-0.030	-0.320	0.900
2020/01/31 11:43:03.5	300.590	-0.040	-0.330	0.860
2020/01/31 11:43:03.6	300.610	-0.040	-0.340	0.820
2020/01/31 11:43:03.7	300.620	-0.040	-0.350	0.780
2020/01/31 11:43:03.8	300.640	-0.040	-0.360	0.740
2020/01/31 11:43:03.9	300.650	-0.050	-0.370	0.700
2020/01/31 11:43:04.0	300.670	-0.050	-0.370	0.660
2020/01/31 11:43:04.1	300.680	-0.050	-0.380	0.620
2020/01/31 11:43:04.2	300.700	-0.060	-0.380	0.580
2020/01/31 11:43:04.3	300.710	-0.060	-0.380	0.530
2020/01/31 11:43:04.4	300.720	-0.070	-0.380	0.490
2020/01/31 11:43:04.5	300.740	-0.070	-0.380	0.450
2020/01/31 11:43:04.6	300.750	-0.080	-0.370	0.410
2020/01/31 11:43:04.7	300.770	-0.090	-0.370	0.370
2020/01/31 11:43:04.8	300.780	-0.090	-0.360	0.330
2020/01/31 11:43:04.9	300.780	-0.100	-0.350	0.300
2020/01/31 11:43:05.0	300.790	-0.110	-0.340	0.260
2020/01/31 11:43:05.1	300.800	-0.120	-0.320	0.230
2020/01/31 11:43:05.2	300.810	-0.130	-0.310	0.200
2020/01/31 11:43:05.3	300.810	-0.140	-0.300	0.170
2020/01/31 11:43:05.4	300.820	-0.150	-0.280	0.150
2020/01/31 11:43:05.5	300.800	-0.160	-0.260	0.130
2020/01/31 11:43:05.6	300.810	-0.170	-0.250	0.100
2020/01/31 11:43:05.7	300.810	-0.180	-0.230	0.080
2020/01/31 11:43:05.8	300.810	-0.190	-0.210	0.070
2020/01/31 11:43:05.9	300.810	-0.200	-0.190	0.050
2020/01/31 11:43:06.0	300.800	-0.210	-0.170	0.040
2020/01/31 11:43:06.1	300.800	-0.220	-0.150	0.030
2020/01/31 11:43:06.2	300.800	-0.230	-0.130	0.030
2020/01/31 11:43:06.3	300.790	-0.230	-0.110	0.020
2020/01/31 11:43:06.4	300.790	-0.240	-0.100	0.020
2020/01/31 11:43:06.5	300.770	-0.250	-0.080	0.020
2020/01/31 11:43:06.6	300.760	-0.250	-0.060	0.030
2020/01/31 11:43:06.7	300.750	-0.250	-0.050	0.030
2020/01/31 11:43:06.8	300.740	-0.260	-0.040	0.050
2020/01/31 11:43:06.9	300.730	-0.260	-0.020	0.060
2020/01/31 11:43:07.0	300.720	-0.260	-0.010	0.080
2020/01/31 11:43:07.1	300.710	-0.260	-0.000	0.100
2020/01/31 11:43:07.2	300.700	-0.250	0.000	0.120
2020/01/31 11:43:07.3	300.680	-0.250	0.010	0.140
2020/01/31 11:43:07.4	300.670	-0.250	0.010	0.170
2020/01/31 11:43:07.5	300.650	-0.240	0.020	0.200
2020/01/31 11:43:07.6	300.640	-0.230	0.020	0.230
2020/01/31 11:43:07.7	300.620	-0.220	0.010	0.260
2020/01/31 11:43:07.8	300.610	-0.210	0.010	0.290
2020/01/31 11:43:07.9	300.590	-0.200	0.010	0.320
2020/01/31 11:43:08.0	300.580	-0.190	0.000	0.350
2020/01/31 11:43:08.1	300.560	-0.170	-0.010	0.380
2020/01/31 11:43:08.2	300.550	-0.160	-0.020	0.410
2020/01/31 11:43:08.3	300.530	-0.140	-0.030	0.440
2020/01/31 11:43:08.4	300.520	-0.120	-0.040	0.470
2020/01/31 11:43:08.5	300.520	-0.110	-0.060	0.500
2020/01/31 11:43:08.6	300.510	-0.090	-0.070	0.530
2020/01/31 11:43:08.7	300.500	-0.070	-0.090	0.560
2020/01/31 11:43:08.8	300.490	-0.050	-0.110	0.580
2020/01/31 11:43:08.9	300.480	-0.030	-0.130	0.610
2020/01/31 11:43:09.0	300.480	-0.000	-0.150	0.630
2020/01/31 11:43:09.1	300.470	0.020	-0.170	0.660
2020/01/31 11:43:09.2	300.470	0.040	-0.190	0.680
2020/01/31 11:43:09.3	300.470	0.060	-0.210	0.700
2020/01/31 11:43:09.4	300.470	0.080	-0.230	0.720
2020/01/31 11:43:09.5	300.470	0.100	-0.250	0.750
2020/01/31 11:43:09.6	300.470	0.120	-0.270	0.760
2020/01/31 11:43:09.7	300.480	0.140	-0.290	0.780
2020/01/31 11:43:09.8	300.480	0.160	-0.310	0.800
2020/01/31 11:43:09.9	300.490	0.170	-0.330	0.810
2020/01/31 11:43:10.0	300.500	0.190	-0.340	0.830
2020/01/31 11:43:10.1	300.500	0.200	-0.360	0.840
2020/01/31 11:43:10.2	300.510	0.220	-0.370	0.850
2020/01/31 11:43:10.3	300.520	0.230	-0.380	0.860
2020/01/31 11:43:10.4	300.530	0.240	-0.390	0.870
2020/01/31 11:43:10.5	300.530	0.250	-0.400	0.870
2020/01/31 11:43:10.6	300.540	0.260	-0.400	0.870
2020/01/31 11:43:10.7	300.550	0.260	-0.410	0.870
2020/01/31 11:43:10.8	300.560	0.270	-0.410	0.870
2020/01/31 11:43:10.9	300.570	0.270	-0.410	0.870
2020/01/31 11:43:11.0	300.580	0.270	-0.410	0.870
2020/01/31 11:43:11.1	300.590	0.270	-0.410	0.860
2020/01/31 11:43:11.2	300.590	0.270	-0.400	0.860
2020/01/31 11:43:11.3	300.600	0.260	-0.400	0.850
2020/01/31 11:43:11.4	300.610	0.260	-0.390	0.840
2020/01/31 11:43:11.5	300.620	0.250	-0.390	0.840
2020/01/31 11:43:11.6	300.630	0.240	-0.380	0.830
2020/01/31 11:43:11.7	300.630	0.230	-0.370	0.820
2020/01/31 11:43:11.8	300.640	0.220	-0.360	0.810
2020/01/31 11:43:11.9	300.640	0.210	-0.350	0.800
2020/01/31 11:43:12.0	300.650	0.200	-0.340	0.790
2020/01/31 11:43:12.1	300.650	0.190	-0.330	0.780
2020/01/31 11:43:12.2	300.650	0.170	-0.320	0.760
2020/01/31 11:43:12.3	300.660	0.160	-0.310	0.750
2020/01/31 11:43:12.4	300.660	0.140	-0.300	0.740
2020/01/31 11:43:12.5	300.650	0.130	-0.290	0.730
2020/01/31 11:43:12.6	300.660	0.110	-0.280	0.720
2020/01/31 11:43:12.7	300.660	0.100	-0.280	0.700
2020/01/31 11:43:12.8	300.660	0.080	-0.270	0.690
2020/01/31 11:43:12.9	300.660	0.070	-0.270	0.680
2020/01/31 11:43:13.0	300.660	0.050	-0.270	0.660
2020/01/31 11:43:13.1	300.670	0.040	-0.270	0.650
2020/01/31 11:43:13.2	300.670	0.030	-0.270	0.640
2020/01/31 11:43:13.3	300.670	0.010	-0.270	0.620
2020/01/31 11:43:13.4	300.670	0.000	-0.270	0.610
2020/01/31 11:43:13.5	300.660	-0.010	-0.270	0.600
2020/01/31 11:43:13.6	300.660	-0.020	-0.280	0.580
2020/01/31 11:43:13.7	300.660	-0.030	-0.280	0.570
2020/01/31 11:43:13.8	300.660	-0.040	-0.290	0.560
2020/01/31 11:43:13.9	300.660	-0.050	-0.290	0.550
2020/01/31 11:43:14.0	300.660	-0.060	-0.300	0.540
2020/01/31 11:43:14.1	300.650	-0.060	-0.300	0.530
2020/01/31 11:43:14.2	300.650	-0.070	-0.310	0.520
2020/01/31 11:43:14.3	300.640	-0.070	-0.310	0.520
2020/01/31 11:43:14.4	300.640	-0.080	-0.310	0.510
2020/01/31 11:43:14.5	300.620	-0.080	-0.320	0.510
2020/01/31 11:43:14.6	300.610	-0.080	-0.320	0.510
2020/01/31 11:43:14.7	300.600	-0.080	-0.320	0.510
2020/01/31 11:43:14.8	300.600	-0.090	-0.320	0.510
2020/01/31 11:43:14.9	300.590	-0.090	-0.320	0.510
2020/01/31 11:43:15.0	300.580	-0.080	-0.320	0.510
2020/01/31 11:43:15.1	300.570	-0.080	-0.320	0.510
2020/01/31 11:43:15.2	300.560	-0.080	-0.320	0.520
2020/01/31 11:43:15.3	300.550	-0.080	-0.310	0.520
2020/01/31 11:43:15.4	300.550	-0.080	-0.310	0.530
2020/01/31 11:43:15.5	300.530	-0.070	-0.300	0.530
2020/01/31 11:43:15.6	300.520	-0.070	-0.300	0.540
2020/01/31 11:43:15.7	300.510	-0.070	-0.290	0.540
2020/01/31 11:43:15.8	300.500	-0.060	-0.280	0.550
2020/01/31 11:43:15.9	300.490	-0.060	-0.280	0.560
2020/01/31 11:43:16.0	300.480	-0.060	-0.270	0.570
2020/01/31 11:43:16.1	300.470	-0.050	-0.260	0.570
2020/01/31 11:43:16.2	300.470	-0.050	-0.250	0.580
2020/01/31 11:43:16.3	300.460	-0.050	-0.250	0.590
2020/01/31 11:43:16.4	300.450	-0.050	-0.240	0.590
2020/01/31 11:43:16.5	300.450	-0.050	-0.230	0.600
2020/01/31 11:43:16.6	300.440	-0.040	-0.230	0.610
2020/01/31 11:43:16.7	300.440	-0.040	-0.220	0.610
2020/01/31 11:43:16.8	300.430	-0.040	-0.210	0.610
2020/01/31 11:43:16.9	300.430	-0.040	-0.210	0.610
2020/01/31 11:43:17.0	300.430	-0.040	-0.210	0.610
2020/01/31 11:43:17.1	300.430	-0.040	-0.200	0.610
2020/01/31 11:43:17.2	300.430	-0.040	-0.200	0.610
2020/01/31 11:43:17.3	300.440	-0.040	-0.200	0.600
2020/01/31 11:43:17.4	300.440	-0.050	-0.200	0.590
2020/01/31 11:43:17.5	300.460	-0.050	-0.200	0.590
2020/01/31 11:43:17.6	300.470	-0.050	-0.210	0.580
2020/01/31 11:43:17.7	300.480	-0.050	-0.210	0.560
2020/01/31 11:43:17.8	300.490	-0.050	-0.210	0.550
2020/01/31 11:43:17.9	300.500	-0.060	-0.220	0.540
2020/01/31 11:43:18.0	300.520	-0.060	-0.220	0.530
2020/01/31 11:43:18.1	300.530	-0.060	-0.230	0.510
2020/01/31 11:43:18.2	300.540	-0.060	-0.240	0.500
2020/01/31 11:43:18.3	300.560	-0.060	-0.240	0.480
2020/01/31 11:43:18.4	300.570	-0.070	-0.250	0.470
2020/01/31 11:43:18.5	300.580	-0.070	-0.260	0.460
2020/01/31 11:43:18.6	300.600	-0.070	-0.260	0.450
2020/01/31 11:43:18.7	300.610	-0.070	-0.260	0.430
2020/01/31 11:43:18.8	300.620	-0.070	-0.270	0.420
2020/01/31 11:43:18.9	300.630	-0.070	-0.270	0.410
2020/01/31 11:43:19.0	300.650	-0.070	-0.270	0.400
2020/01/31 11:43:19.1	300.660	-0.070	-0.270	0.390
2020/01/31 11:43:19.2	300.670	-0.070	-0.270	0.390
2020/01/31 11:43:19.3	300.680	-0.070	-0.260	0.380
2020/01/31 11:43:19.4	300.680	-0.070	-0.260	0.380
2020/01/31 11:43:19.5	300.690	-0.060	-0.250	0.370
2020/01/31 11:43:19.6	300.700	-0.060	-0.250	0.370
2020/01/31 11:43:19.7	300.700	-0.060	-0.240	0.370
2020/01/31 11:43:19.8	300.710	-0.060	-0.230	0.370
2020/01/31 11:43:19.9	300.710	-0.060	-0.220	0.370
2020/01/31 11:43:20.0	300.720	-0.050	-0.200	0.380
2020/01/31 11:43:20.1	300.720	-0.050	-0.190	0.380
2020/01/31 11:43:20.2	300.720	-0.050	-0.180	0.390
2020/01/31 11:43:20.3	300.720	-0.050	-0.160	0.390
2020/01/31 11:43:20.4	300.730	-0.040	-0.150	0.400
2020/01/31 11:43:20.5	300.730	-0.040	-0.140	0.410
2020/01/31 11:43:20.6	300.730	-0.040	-0.120	0.420
2020/01/31 11:43:20.7	300.730	-0.040	-0.110	0.430
2020/01/31 11:43:20.8	300.730	-0.040	-0.090	0.430
2020/01/31 11:43:20.9	300.730	-0.040	-0.080	0.440
2020/01/31 11:43:21.0	300.730	-0.040	-0.060	0.450
2020/01/31 11:43:21.1	300.730	-0.040	-0.050	0.460
2020/01/31 11:43:21.2	300.730	-0.040	-0.040	0.470
2020/01/31 11:43:21.3	300.720	-0.040	-0.030	0.480
2020/01/31 11:43:21.4	300.720	-0.050	-0.020	0.490
2020/01/31 11:43:21.5	300.720	-0.050	-0.010	0.500
2020/01/31 11:43:21.6	300.720	-0.050	0.000	0.510
2020/01/31 11:43:21.7	300.710	-0.060	0.010	0.520
2020/01/31 11:43:21.8	300.710	-0.060	0.020	0.530
2020/01/31 11:43:21.9	300.710	-0.070	0.020	0.540
2020/01/31 11:43:22.0	300.710	-0.070	0.030	0.540
2020/01/31 11:43:22.1	300.710	-0.070	0.030	0.550
2020/01/31 11:43:22.2	300.710	-0.080	0.040	0.560
2020/01/31 11:43:22.3	300.710	-0.080	0.040	0.570
2020/01/31 11:43:22.4	300.700	-0.090	0.040	0.570
2020/01/31 11:43:22.5	300.700	-0.090	0.030	0.580
2020/01/31 11:43:22.6	300.700	-0.090	0.030	0.590
2020/01/31 11:43:22.7	300.700	-0.090	0.030	0.590
2020/01/31 11:43:22.8	300.700	-0.090	0.020	0.600
2020/01/31 11:43:22.9	300.710	-0.090	0.010	0.600
2020/01/31 11:43:23.0	300.710	-0.090	0.010	0.610
2020/01/31 11:43:23.1	300.710	-0.090	-0.000	0.620
2020/01/31 11:43:23.2	300.710	-0.090	-0.020	0.620
2020/01/31 11:43:23.3	300.710	-0.080	-0.030	0.630
2020/01/31 11:43:23.4	300.720	-0.080	-0.040	0.640
2020/01/31 11:43:23.5	300.720	-0.070	-0.060	0.650
2020/01/31 11:43:23.6	300.720	-0.060	-0.080	0.660
2020/01/31 11:43:23.7	300.720	-0.050	-0.090	0.670
2020/01/31 11:43:23.8	300.720	-0.040	-0.110	0.680
2020/01/31 11:43:23.9	300.720	-0.030	-0.130	0.690
2020/01/31 11:43:24.0	300.720	-0.020	-0.150	0.700
2020/01/31 11:43:24.1	300.710	-0.010	-0.170	0.720
2020/01/31 11:43:24.2	300.710	0.000	-0.190	0.730
2020/01/31 11:43:24.3	300.710	0.020	-0.210	0.750
2020/01/31 11:43:24.4	300.700	0.030	-0.230	0.760
2020/01/31 11:43:24.5	300.700	0.050	-0.260	0.780
2020/01/31 11:43:24.6	300.690	0.060	-0.280	0.800
2020/01/31 11:43:24.7	300.680	0.080	-0.310	0.820
2020/01/31 11:43:24.8	300.680	0.090	-0.330	0.830
2020/01/31 11:43:24.9	300.670	0.110	-0.360	0.850
2020/01/31 11:43:25.0	300.660	0.120	-0.380	0.870
2020/01/31 11:43:25.1	300.660	0.140	-0.410	0.880
2020/01/31 11:43:25.2	300.650	0.150	-0.430	0.900
2020/01/31 11:43:25.3	300.640	0.160	-0.460	0.910
2020/01/31 11:43:25.4	300.630	0.180	-0.480	0.930
2020/01/31 11:43:25.5	300.610	0.190	-0.510	0.940
2020/01/31 11:43:25.6	300.600	0.200	-0.530	0.950
2020/01/31 11:43:25.7	300.590	0.210	-0.550	0.960
2020/01/31 11:43:25.8	300.580	0.220	-0.570	0.970
2020/01/31 11:43:25.9	300.570	0.230	-0.590	0.980
2020/01/31 11:43:26.0	300.550	0.240	-0.610	0.990
2020/01/31 11:43:26.1	300.540	0.240	-0.630	1.000
2020/01/31 11:43:26.2	300.530	0.250	-0.650	1.000
2020/01/31 11:43:26.3	300.520	0.250	-0.660	1.000
2020/01/31 11:43:26.4	300.500	0.250	-0.670	1.010
2020/01/31 11:43:26.5	300.480	0.250	-0.680	1.010
2020/01/31 11:43:26.6	300.470	0.250	-0.690	1.010
2020/01/31 11:43:26.7	300.460	0.240	-0.700	1.000
2020/01/31 11:43:26.8	300.440	0.240	-0.700	0.990
2020/01/31 11:43:26.9	300.430	0.230	-0.700	0.980
2020/01/31 11:43:27.0	300.420	0.220	-0.700	0.970
2020/01/31 11:43:27.1	300.410	0.210	-0.690	0.960
2020/01/31 11:43:27.2	300.400	0.200	-0.690	0.940
2020/01/31 11:43:27.3	300.390	0.180	-0.680	0.920
2020/01/31 11:43:27.4	300.380	0.170	-0.670	0.900
2020/01/31 11:43:27.5	300.370	0.150	-0.650	0.880
2020/01/31 11:43:27.6	300.360	0.130	-0.640	0.850
2020/01/31 11:43:27.7	300.350	0.110	-0.620	0.830
2020/01/31 11:43:27.8	300.340	0.090	-0.600	0.800
2020/01/31 11:43:27.9	300.340	0.070	-0.580	0.770
2020/01/31 11:43:28.0	300.330	0.050	-0.560	0.730
2020/01/31 11:43:28.1	300.330	0.020	-0.530	0.700
2020/01/31 11:43:28.2	300.320	0.000	-0.510	0.660
2020/01/31 11:43:28.3	300.320	-0.020	-0.490	0.630
2020/01/31 11:43:28.4	300.320	-0.050	-0.460	0.590
2020/01/31 11:43:28.5	300.320	-0.070	-0.430	0.550
2020/01/31 11:43:28.6	300.320	-0.090	-0.410	0.510
2020/01/31 11:43:28.7	300.320	-0.120	-0.380	0.470
2020/01/31 11:43:28.8	300.320	-0.140	-0.350	0.430
2020/01/31 11:43:28.9	300.320	-0.160	-0.330	0.400
2020/01/31 11:43:29.0	300.320	-0.180	-0.300	0.360
2020/01/31 11:43:29.1	300.330	-0.200	-0.280	0.320
2020/01/31 11:43:29.2	300.330	-0.220	-0.250	0.290
2020/01/31 11:43:29.3	300.330	-0.240	-0.230	0.250
2020/01/31 11:43:29.4	300.340	-0.260	-0.210	0.220
2020/01/31 11:43:29.5	300.340	-0.270	-0.180	0.190
2020/01/31 11:43:29.6	300.350	-0.290	-0.160	0.160
2020/01/31 11:43:29.7	300.350	-0.300	-0.140	0.130
2020/01/31 11:43:29.8	300.360	-0.310	-0.130	0.100
2020/01/31 11:43:29.9	300.370	-0.320	-0.110	0.080
2020/01/31 11:43:30.0	300.380	-0.330	-0.100	0.050
2020/01/31 11:43:30.1	300.400	-0.330	-0.080	0.030
2020/01/31 11:43:30.2	300.410	-0.340	-0.070	0.010
2020/01/31 11:43:30.3	300.430	-0.340	-0.060	-0.000
2020/01/31 11:43:30.4	300.440	-0.340	-0.050	-0.020
2020/01/31 11:43:30.5	300.460	-0.340	-0.050	-0.030
2020/01/31 11:43:30.6	300.480	-0.340	-0.040	-0.040
2020/01/31 11:43:30.7	300.500	-0.340	-0.040	-0.050
2020/01/31 11:43:30.8	300.520	-0.340	-0.030	-0.050
2020/01/31 11:43:30.9	300.540	-0.330	-0.030	-0.050
2020/01/31 11:43:31.0	300.560	-0.320	-0.030	-0.040
2020/01/31 11:43:31.1	300.580	-0.320	-0.030	-0.040
2020/01/31 11:43:31.2	300.600	-0.310	-0.030	-0.020
2020/01/31 11:43:31.3	300.630	-0.300	-0.030	-0.010
2020/01/31 11:43:31.4	300.650	-0.290	-0.030	0.010
2020/01/31 11:43:31.5	300.670	-0.280	-0.020	0.030
2020/01/31 11:43:31.6	300.690	-0.270	-0.020	0.050
2020/01/31 11:43:31.7	300.720	-0.260	-0.030	0.080
2020/01/31 11:43:31.8	300.740	-0.250	-0.030	0.110
2020/01/31 11:43:31.9	300.760	-0.240	-0.030	0.140
2020/01/31 11:43:32.0	300.780	-0.220	-0.030	0.170
2020/01/31 11:43:32.1	300.800	-0.210	-0.030	0.200
2020/01/31 11:43:32.2	300.820	-0.200	-0.030	0.240
2020/01/31 11:43:32.3	300.840	-0.190	-0.030	0.280
2020/01/31 11:43:32.4	300.860	-0.170	-0.030	0.310
2020/01/31 11:43:32.5	300.890	-0.160	-0.030	0.350
2020/01/31 11:43:32.6	300.900	-0.150	-0.030	0.390
2020/01/31 11:43:32.7	300.920	-0.140	-0.020	0.430
2020/01/31 11:43:32.8	300.930	-0.120	-0.020	0.470
2020/01/31 11:43:32.9	300.950	-0.110	-0.020	0.510
2020/01/31 11:43:33.0	300.960	-0.100	-0.010	0.550
2020/01/31 11:43:33.1	300.970	-0.090	-0.010	0.590
2020/01/31 11:43:33.2	300.980	-0.070	-0.010	0.630
2020/01/31 11:43:33.3	300.990	-0.060	-0.000	0.670
2020/01/31 11:43:33.4	301.000	-0.050	0.000	0.710
2020/01/31 11:43:33.5	301.010	-0.040	0.000	0.760
2020/01/31 11:43:33.6	301.010	-0.020	0.010	0.790
2020/01/31 11:43:33.7	301.020	-0.010	0.010	0.830
2020/01/31 11:43:33.8	301.020	0.000	0.020	0.870
2020/01/31 11:43:33.9	301.020	0.010	0.020	0.900
2020/01/31 11:43:34.0	301.020	0.030	0.020	0.940
2020/01/31 11:43:34.1	301.010	0.040	0.030	0.970
2020/01/31 11:43:34.2	301.010	0.050	0.030	1.000
2020/01/31 11:43:34.3	301.000	0.070	0.040	1.040
2020/01/31 11:43:34.4	301.000	0.080	0.040	1.070
2020/01/31 11:43:34.5	300.990	0.090	0.040	1.100
2020/01/31 11:43:34.6	300.980	0.110	0.050	1.130
2020/01/31 11:43:34.7	300.970	0.120	0.050	1.150
2020/01/31 11:43:34.8	300.950	0.140	0.050	1.180
2020/01/31 11:43:34.9	300.930	0.150	0.050	1.200
2020/01/31 11:43:35.0	300.920	0.160	0.050	1.220
2020/01/31 11:43:35.1	300.900	0.180	0.050	1.240
2020/01/31 11:43:35.2	300.880	0.190	0.040	1.260
2020/01/31 11:43:35.3	300.850	0.200	0.040	1.270
2020/01/31 11:43:35.4	300.830	0.210	0.030	1.290
2020/01/31 11:43:35.5	300.790	0.220	0.030	1.300
2020/01/31 11:43:35.6	300.770	0.230	0.020	1.300
2020/01/31 11:43:35.7	300.740	0.240	0.000	1.310
2020/01/31 11:43:35.8	300.720	0.250	-0.010	1.310
2020/01/31 11:43:35.9	300.690	0.260	-0.030	1.300
2020/01/31 11:43:36.0	300.660	0.270	-0.040	1.290
2020/01/31 11:43:36.1	300.640	0.270	-0.060	1.280
2020/01/31 11:43:36.2	300.610	0.280	-0.090	1.260
2020/01/31 11:43:36.3	300.580	0.280	-0.110	1.250
2020/01/31 11:43:36.4	300.560	0.290	-0.140	1.220
2020/01/31 11:43:36.5	300.540	0.290	-0.170	1.190
2020/01/31 11:43:36.6	300.520	0.290	-0.200	1.160
2020/01/31 11:43:36.7	300.490	0.290	-0.230	1.130
2020/01/31 11:43:36.8	300.470	0.290	-0.260	1.100
2020/01/31 11:43:36.9	300.450	0.290	-0.290	1.060
2020/01/31 11:43:37.0	300.430	0.280	-0.330	1.020
2020/01/31 11:43:37.1	300.420	0.280	-0.360	0.970
2020/01/31 11:43:37.2	300.400	0.270	-0.400	0.930
2020/01/31 11:43:37.3	300.380	0.270	-0.430	0.880
2020/01/31 11:43:37.4	300.370	0.260	-0.470	0.830
2020/01/31 11:43:37.5	300.370	0.250	-0.510	0.780
2020/01/31 11:43:37.6	300.360	0.240	-0.540	0.730
2020/01/31 11:43:37.7	300.350	0.240	-0.580	0.670
2020/01/31 11:43:37.8	300.340	0.230	-0.610	0.610
2020/01/31 11:43:37.9	300.340	0.220	-0.640	0.560
2020/01/31 11:43:38.0	300.330	0.200	-0.670	0.500
2020/01/31 11:43:38.1	300.330	0.190	-0.700	0.440
2020/01/31 11:43:38.2	300.320	0.180	-0.730	0.380
2020/01/31 11:43:38.3	300.320	0.170	-0.750	0.330
2020/01/31 11:43:38.4	300.320	0.160	-0.770	0.270
2020/01/31 11:43:38.5	300.330	0.150	-0.790	0.220
2020/01/31 11:43:38.6	300.330	0.130	-0.810	0.170
2020/01/31 11:43:38.7	300.330	0.120	-0.820	0.120
2020/01/31 11:43:38.8	300.340	0.110	-0.830	0.070
2020/01/31 11:43:38.9	300.340	0.100	-0.840	0.020
2020/01/31 11:43:39.0	300.350	0.080	-0.840	-0.020
2020/01/31 11:43:39.1	300.360	0.070	-0.850	-0.060
2020/01/31 11:43:39.2	300.370	0.060	-0.840	-0.100
2020/01/31 11:43:39.3	300.370	0.050	-0.840	-0.130
2020/01/31 11:43:39.4	300.390	0.040	-0.840	-0.160
2020/01/31 11:43:39.5	300.400	0.040	-0.830	-0.190
2020/01/31 11:43:39.6	300.410	0.030	-0.820	-0.210
2020/01/31 11:43:39.7	300.420	0.020	-0.810	-0.230
2020/01/31 11:43:39.8	300.430	0.010	-0.790	-0.250
2020/01/31 11:43:39.9	300.450	0.010	-0.780	-0.260
2020/01/31 11:43:40.0	300.460	0.000	-0.760	-0.270
2020/01/31 11:43:40.1	300.480	0.000	-0.740	-0.270
2020/01/31 11:43:40.2	300.490	-0.000	-0.720	-0.270
2020/01/31 11:43:40.3	300.510	-0.000	-0.700	-0.270
2020/01/31 11:43:40.4	300.520	-0.000	-0.670	-0.260
2020/01/31 11:43:40.5	300.550	-0.010	-0.650	-0.250
2020/01/31 11:43:40.6	300.570	-0.010	-0.630	-0.240
2020/01/31 11:43:40.7	300.590	-0.000	-0.600	-0.220
2020/01/31 11:43:40.8	300.600	-0.000	-0.570	-0.200
2020/01/31 11:43:40.9	300.620	-0.000	-0.550	-0.180
2020/01/31 11:43:41.0	300.640	-0.000	-0.520	-0.150
2020/01/31 11:43:41.1	300.660	-0.000	-0.490	-0.120
2020/01/31 11:43:41.2	300.670	0.000	-0.460	-0.090
2020/01/31 11:43:41.3	300.690	0.000	-0.430	-0.060
2020/01/31 11:43:41.4	300.710	0.000	-0.400	-0.030
2020/01/31 11:43:41.5	300.720	0.000	-0.370	0.010
2020/01/31 11:43:41.6	300.740	0.000	-0.340	0.050
2020/01/31 11:43:41.7	300.750	0.000	-0.310	0.090
2020/01/31 11:43:41.8	300.770	0.000	-0.280	0.130
2020/01/31 11:43:41.9	300.780	-0.000	-0.250	0.170
2020/01/31 11:43:42.0	300.790	-0.000	-0.210	0.210
2020/01/31 11:43:42.1	300.810	-0.010	-0.180	0.250
2020/01/31 11:43:42.2	300.820	-0.010	-0.150	0.290
2020/01/31 11:43:42.3	300.830	-0.020	-0.120	0.340
2020/01/31 11:43:42.4	300.840	-0.020	-0.080	0.380
2020/01/31 11:43:42.5	300.850	-0.030	-0.050	0.420
2020/01/31 11:43:42.6	300.860	-0.040	-0.020	0.450
2020/01/31 11:43:42.7	300.870	-0.050	0.010	0.490
2020/01/31 11:43:42.8	300.880	-0.060	0.040	0.530
2020/01/31 11:43:42.9	300.890	-0.070	0.070	0.560
2020/01/31 11:43:43.0	300.890	-0.080	0.100	0.600
2020/01/31 11:43:43.1	300.900	-0.090	0.130	0.630
2020/01/31 11:43:43.2	300.910	-0.100	0.150	0.660
2020/01/31 11:43:43.3	300.910	-0.120	0.170	0.690
2020/01/31 11:43:43.4	300.920	-0.130	0.200	0.710
2020/01/31 11:43:43.5	300.920	-0.150	0.220	0.740
2020/01/31 11:43:43.6	300.930	-0.160	0.240	0.760
2020/01/31 11:43:43.7	300.930	-0.170	0.250	0.780
2020/01/31 11:43:43.8	300.930	-0.190	0.270	0.790
2020/01/31 11:43:43.9	300.940	-0.200	0.280	0.800
2020/01/31 11:43:44.0	300.940	-0.220	0.290	0.810
2020/01/31 11:43:44.1	300.950	-0.230	0.300	0.820
2020/01/31 11:43:44.2	300.950	-0.250	0.300	0.820
2020/01/31 11:43:44.3	300.950	-0.260	0.300	0.820
2020/01/31 11:43:44.4	300.960	-0.270	0.310	0.820
2020/01/31 11:43:44.5	300.960	-0.280	0.300	0.810
2020/01/31 11:43:44.6	300.970	-0.290	0.300	0.800
2020/01/31 11:43:44.7	300.970	-0.300	0.300	0.790
2020/01/31 11:43:44.8	300.980	-0.310	0.290	0.780
2020/01/31 11:43:44.9	300.980	-0.320	0.290	0.770
2020/01/31 11:43:45.0	300.990	-0.330	0.280	0.750
2020/01/31 11:43:45.1	300.990	-0.330	0.270	0.730
2020/01/31 11:43:45.2	300.990	-0.340	0.260	0.710
2020/01/31 11:43:45.3	301.000	-0.340	0.240	0.690
2020/01/31 11:43:45.4	301.000	-0.340	0.230	0.670
2020/01/31 11:43:45.5	301.000	-0.350	0.220	0.650
2020/01/31 11:43:45.6	301.000	-0.340	0.200	0.630
2020/01/31 11:43:45.7	301.000	-0.340	0.190	0.610
2020/01/31 11:43:45.8	301.000	-0.340	0.170	0.590
2020/01/31 11:43:45.9	301.000	-0.340	0.150	0.570
2020/01/31 11:43:46.0	300.990	-0.330	0.140	0.550
2020/01/31 11:43:46.1	300.990	-0.320	0.120	0.530
2020/01/31 11:43:46.2	300.990	-0.320	0.100	0.510
2020/01/31 11:43:46.3	300.980	-0.310	0.080	0.490
2020/01/31 11:43:46.4	300.970	-0.300	0.060	0.470
2020/01/31 11:43:46.5	300.950	-0.290	0.030	0.450
2020/01/31 11:43:46.6	300.940	-0.280	0.010	0.430
2020/01/31 11:43:46.7	300.930	-0.260	-0.020	0.420
2020/01/31 11:43:46.8	300.920	-0.250	-0.040	0.410
2020/01/31 11:43:46.9	300.910	-0.240	-0.070	0.390
2020/01/31 11:43:47.0	300.900	-0.220	-0.090	0.380
2020/01/31 11:43:47.1	300.890	-0.210	-0.120	0.370
2020/01/31 11:43:47.2	300.870	-0.190	-0.150	0.370
2020/01/31 11:43:47.3	300.860	-0.180	-0.180	0.360
2020/01/31 11:43:47.4	300.850	-0.160	-0.210	0.360
2020/01/31 11:43:47.5	300.830	-0.140	-0.240	0.350
2020/01/31 11:43:47.6	300.810	-0.130	-0.280	0.350
2020/01/31 11:43:47.7	300.800	-0.110	-0.310	0.350
2020/01/31 11:43:47.8	300.780	-0.100	-0.340	0.350
2020/01/31 11:43:47.9	300.760	-0.080	-0.370	0.350
2020/01/31 11:43:48.0	300.740	-0.070	-0.400	0.360
2020/01/31 11:43:48.1	300.720	-0.050	-0.430	0.370
2020/01/31 11:43:48.2	300.700	-0.040	-0.460	0.370
2020/01/31 11:43:48.3	300.680	-0.020	-0.490	0.380
2020/01/31 11:43:48.4	300.660	-0.010	-0.520	0.390
2020/01/31 11:43:48.5	300.640	0.000	-0.540	0.410
2020/01/31 11:43:48.6	300.610	0.010	-0.570	0.420
2020/01/31 11:43:48.7	300.590	0.020	-0.590	0.430
2020/01/31 11:43:48.8	300.570	0.030	-0.610	0.450
2020/01/31 11:43:48.9	300.540	0.040	-0.630	0.470
2020/01/31 11:43:49.0	300.520	0.050	-0.650	0.480
2020/01/31 11:43:49.1	300.500	0.060	-0.660	0.500
2020/01/31 11:43:49.2	300.480	0.070	-0.680	0.520
2020/01/31 11:43:49.3	300.450	0.080	-0.690	0.540
2020/01/31 11:43:49.4	300.430	0.080	-0.700	0.560
2020/01/31 11:43:49.5	300.410	0.090	-0.710	0.580
2020/01/31 11:43:49.6	300.390	0.100	-0.710	0.590
2020/01/31 11:43:49.7	300.370	0.100	-0.710	0.610
2020/01/31 11:43:49.8	300.350	0.100	-0.710	0.630
2020/01/31 11:43:49.9	300.330	0.110	-0.710	0.640
2020/01/31 11:43:50.0	300.320	0.110	-0.710	0.660
2020/01/31 11:43:50.1	300.300	0.120	-0.700	0.680
2020/01/31 11:43:50.2	300.290	0.120	-0.690	0.690
2020/01/31 11:43:50.3	300.280	0.120	-0.680	0.710
2020/01/31 11:43:50.4	300.260	0.120	-0.660	0.720
2020/01/31 11:43:50.5	300.260	0.120	-0.650	0.740
2020/01/31 11:43:50.6	300.250	0.130	-0.630	0.750
2020/01/31 11:43:50.7	300.250	0.130	-0.610	0.770
2020/01/31 11:43:50.8	300.240	0.130	-0.590	0.780
2020/01/31 11:43:50.9	300.240	0.130	-0.570	0.790
2020/01/31 11:43:51.0	300.240	0.130	-0.540	0.800
2020/01/31 11:43:51.1	300.240	0.140	-0.520	0.820
2020/01/31 11:43:51.2	300.250	0.140	-0.490	0.830
2020/01/31 11:43:51.3	300.250	0.140	-0.460	0.840
2020/01/31 11:43:51.4	300.260	0.150	-0.440	0.840
2020/01/31 11:43:51.5	300.270	0.150	-0.410	0.860
2020/01/31 11:43:51.6	300.280	0.150	-0.380	0.860
2020/01/31 11:43:51.7	300.290	0.160	-0.360	0.870
2020/01/31 11:43:51.8	300.310	0.170	-0.330	0.870
2020/01/31 11:43:51.9	300.330	0.170	-0.310	0.880
2020/01/31 11:43:52.0	300.340	0.180	-0.280	0.880
2020/01/31 11:43:52.1	300.370	0.190	-0.260	0.880
2020/01/31 11:43:52.2	300.390	0.190	-0.240	0.890
2020/01/31 11:43:52.3	300.410	0.200	-0.220	0.890
2020/01/31 11:43:52.4	300.440	0.210	-0.200	0.890
2020/01/31 11:43:52.5	300.460	0.220	-0.180	0.890
2020/01/31 11:43:52.6	300.490	0.230	-0.170	0.890
2020/01/31 11:43:52.7	300.510	0.240	-0.160	0.890
2020/01/31 11:43:52.8	300.540	0.250	-0.150	0.880
2020/01/31 11:43:52.9	300.570	0.260	-0.140	0.880
2020/01/31 11:43:53.0	300.600	0.270	-0.130	0.880
2020/01/31 11:43:53.1	300.630	0.280	-0.120	0.880
2020/01/31 11:43:53.2	300.660	0.290	-0.120	0.880
2020/01/31 11:43:53.3	300.690	0.300	-0.110	0.870
2020/01/31 11:43:53.4	300.720	0.310	-0.110	0.870
2020/01/31 11:43:53.5	300.740	0.310	-0.110	0.870
2020/01/31 11:43:53.6	300.770	0.320	-0.110	0.870
2020/01/31 11:43:53.7	300.790	0.330	-0.110	0.860
2020/01/31 11:43:53.8	300.820	0.330	-0.110	0.860
2020/01/31 11:43:53.9	300.840	0.340	-0.110	0.850
2020/01/31 11:43:54.0	300.870	0.340	-0.110	0.850
2020/01/31 11:43:54.1	300.890	0.350	-0.110	0.840
2020/01/31 11:43:54.2	300.910	0.350	-0.110	0.840
2020/01/31 11:43:54.3	300.930	0.350	-0.110	0.830
2020/01/31 11:43:54.4	300.940	0.350	-0.120	0.820
2020/01/31 11:43:54.5	300.950	0.350	-0.110	0.810
2020/01/31 11:43:54.6	300.970	0.350	-0.110	0.810
2020/01/31 11:43:54.7	300.980	0.340	-0.110	0.790
2020/01/31 11:43:54.8	300.980	0.340	-0.110	0.780
2020/01/31 11:43:54.9	300.990	0.330	-0.110	0.770
2020/01/31 11:43:55.0	300.990	0.320	-0.110	0.750
2020/01/31 11:43:55.1	301.000	0.320	-0.110	0.740
2020/01/31 11:43:55.2	301.000	0.300	-0.110	0.720
2020/01/31 11:43:55.3	300.990	0.290	-0.110	0.700
2020/01/31 11:43:55.4	300.990	0.280	-0.110	0.680
2020/01/31 11:43:55.5	300.990	0.260	-0.110	0.650
2020/01/31 11:43:55.6	300.990	0.250	-0.110	0.630
2020/01/31 11:43:55.7	300.980	0.230	-0.110	0.600
2020/01/31 11:43:55.8	300.960	0.210	-0.120	0.580
2020/01/31 11:43:55.9	300.950	0.190	-0.120	0.550
2020/01/31 11:43:56.0	300.930	0.170	-0.120	0.520
2020/01/31 11:43:56.1	300.920	0.150	-0.130	0.490
2020/01/31 11:43:56.2	300.900	0.130	-0.130	0.450
2020/01/31 11:43:56.3	300.880	0.100	-0.130	0.420
2020/01/31 11:43:56.4	300.860	0.080	-0.140	0.390
2020/01/31 11:43:56.5	300.840	0.050	-0.150	0.360
2020/01/31 11:43:56.6	300.810	0.030	-0.150	0.320
2020/01/31 11:43:56.7	300.790	0.000	-0.160	0.290
2020/01/31 11:43:56.8	300.760	-0.030	-0.170	0.260
2020/01/31 11:43:56.9	300.740	-0.050	-0.170	0.230
2020/01/31 11:43:57.0	300.710	-0.080	-0.180	0.200
2020/01/31 11:43:57.1	300.690	-0.100	-0.190	0.170
2020/01/31 11:43:57.2	300.660	-0.130	-0.200	0.140
2020/01/31 11:43:57.3	300.640	-0.150	-0.210	0.110
2020/01/31 11:43:57.4	300.610	-0.180	-0.220	0.080
2020/01/31 11:43:57.5	300.580	-0.200	-0.230	0.060
2020/01/31 11:43:57.6	300.550	-0.220	-0.240	0.030
2020/01/31 11:43:57.7	300.530	-0.240	-0.250	0.010
2020/01/31 11:43:57.8	300.510	-0.260	-0.260	-0.010
2020/01/31 11:43:57.9	300.490	-0.280	-0.270	-0.030
2020/01/31 11:43:58.0	300.470	-0.300	-0.280	-0.050
2020/01/31 11:43:58.1	300.450	-0.320	-0.290	-0.070
2020/01/31 11:43:58.2	300.430	-0.330	-0.310	-0.090
2020/01/31 11:43:58.3	300.420	-0.350	-0.320	-0.100
2020/01/31 11:43:58.4	300.400	-0.360	-0.330	-0.120
2020/01/31 11:43:58.5	300.390	-0.370	-0.340	-0.130
2020/01/31 11:43:58.6	300.380	-0.380	-0.350	-0.140
2020/01/31 11:43:58.7	300.360	-0.380	-0.350	-0.150
2020/01/31 11:43:58.8	300.350	-0.390	-0.360	-0.150
2020/01/31 11:43:58.9	300.340	-0.400	-0.360	-0.160
2020/01/31 11:43:59.0	300.330	-0.400	-0.370	-0.160
2020/01/31 11:43:59.1	300.320	-0.400	-0.370	-0.160
2020/01/31 11:43:59.2	300.320	-0.410	-0.370	-0.160
2020/01/31 11:43:59.3	300.310	-0.410	-0.370	-0.160
2020/01/31 11:43:59.4	300.310	-0.410	-0.360	-0.160
2020/01/31 11:43:59.5	300.320	-0.410	-0.360	-0.150
2020/01/31 11:43:59.6	300.310	-0.400	-0.350	-0.150
2020/01/31 11:43:59.7	300.320	-0.400	-0.340	-0.140
2020/01/31 11:43:59.8	300.320	-0.400	-0.330	-0.130
2020/01/31 11:43:59.9	300.320	-0.400	-0.310	-0.120
2020/01/31 11:44:00.0	300.330	-0.390	-0.300	-0.120
2020/01/31 11:44:00.1	300.340	-0.390	-0.280	-0.110
2020/01/31 11:44:00.2	300.350	-0.380	-0.270	-0.100
2020/01/31 11:44:00.3	300.360	-0.380	-0.250	-0.090
2020/01/31 11:44:00.4	300.370	-0.370	-0.230	-0.080
2020/01/31 11:44:00.5	300.390	-0.370	-0.210	-0.070
2020/01/31 11:44:00.6	300.400	-0.360	-0.190	-0.050
2020/01/31 11:44:00.7	300.420	-0.360	-0.170	-0.040
2020/01/31 11:44:00.8	300.440	-0.350	-0.150	-0.030
2020/01/31 11:44:00.9	300.450	-0.350	-0.130	-0.010
2020/01/31 11:44:01.0	300.470	-0.340	-0.110	0.000
2020/01/31 11:44:01.1	300.490	-0.340	-0.090	0.020
2020/01/31 11:44:01.2	300.510	-0.330	-0.070	0.030
2020/01/31 11:44:01.3	300.530	-0.330	-0.040	0.050
2020/01/31 11:44:01.4	300.550	-0.320	-0.020	0.070
2020/01/31 11:44:01.5	300.580	-0.320	-0.000	0.090
2020/01/31 11:44:01.6	300.600	-0.310	0.010	0.110
2020/01/31 11:44:01.7	300.620	-0.310	0.030	0.140
2020/01/31 11:44:01.8	300.630	-0.300	0.050	0.160
2020/01/31 11:44:01.9	300.650	-0.300	0.060	0.190
2020/01/31 11:44:02.0	300.670	-0.290	0.080	0.210
2020/01/31 11:44:02.1	300.690	-0.290	0.090	0.240
2020/01/31 11:44:02.2	300.700	-0.280	0.100	0.260
2020/01/31 11:44:02.3	300.720	-0.270	0.110	0.290
2020/01/31 11:44:02.4	300.740	-0.270	0.110	0.320
2020/01/31 11:44:02.5	300.740	-0.260	0.110	0.350
2020/01/31 11:44:02.6	300.750	-0.250	0.110	0.380
2020/01/31 11:44:02.7	300.770	-0.240	0.110	0.400
2020/01/31 11:44:02.8	300.780	-0.230	0.110	0.430
2020/01/31 11:44:02.9	300.790	-0.220	0.100	0.450
2020/01/31 11:44:03.0	300.810	-0.200	0.090	0.470
2020/01/31 11:44:03.1	300.820	-0.190	0.070	0.500
2020/01/31 11:44:03.2	300.830	-0.170	0.060	0.520
2020/01/31 11:44:03.3	300.840	-0.160	0.040	0.540
2020/01/31 11:44:03.4	300.850	-0.140	0.020	0.560
2020/01/31 11:44:03.5	300.870	-0.120	-0.010	0.580
2020/01/31 11:44:03.6	300.880	-0.100	-0.040	0.600
2020/01/31 11:44:03.7	300.890	-0.080	-0.070	0.620
2020/01/31 11:44:03.8	300.900	-0.060	-0.090	0.640
2020/01/31 11:44:03.9	300.910	-0.030	-0.130	0.650
2020/01/31 11:44:04.0	300.910	-0.010	-0.160	0.670
2020/01/31 11:44:04.1	300.920	0.020	-0.190	0.690
2020/01/31 11:44:04.2	300.930	0.040	-0.230	0.710
2020/01/31 11:44:04.3	300.930	0.070	-0.260	0.720
2020/01/31 11:44:04.4	300.940	0.090	-0.300	0.740
2020/01/31 11:44:04.5	300.940	0.120	-0.320	0.760
2020/01/31 11:44:04.6	300.950	0.150	-0.360	0.780
2020/01/31 11:44:04.7	300.950	0.180	-0.390	0.800
2020/01/31 11:44:04.8	300.950	0.210	-0.430	0.820
2020/01/31 11:44:04.9	300.950	0.230	-0.460	0.840
2020/01/31 11:44:05.0	300.950	0.260	-0.490	0.860
2020/01/31 11:44:05.1	300.950	0.290	-0.520	0.880
2020/01/31 11:44:05.2	300.950	0.310	-0.540	0.900
2020/01/31 11:44:05.3	300.950	0.330	-0.570	0.930
2020/01/31 11:44:05.4	300.940	0.360	-0.590	0.950
2020/01/31 11:44:05.5	300.940	0.380	-0.610	0.970
2020/01/31 11:44:05.6	300.930	0.400	-0.640	1.000
2020/01/31 11:44:05.7	300.930	0.420	-0.650	1.020
2020/01/31 11:44:05.8	300.920	0.430	-0.670	1.050
2020/01/31 11:44:05.9	300.920	0.450	-0.680	1.070
2020/01/31 11:44:06.0	300.910	0.460	-0.700	1.090
2020/01/31 11:44:06.1	300.900	0.470	-0.710	1.120
2020/01/31 11:44:06.2	300.900	0.480	-0.710	1.140
2020/01/31 11:44:06.3	300.890	0.490	-0.720	1.160
2020/01/31 11:44:06.4	300.880	0.490	-0.720	1.180
2020/01/31 11:44:06.5	300.880	0.500	-0.720	1.190
2020/01/31 11:44:06.6	300.870	0.500	-0.710	1.210
2020/01/31 11:44:06.7	300.860	0.490	-0.710	1.220
2020/01/31 11:44:06.8	300.860	0.490	-0.700	1.230
2020/01/31 11:44:06.9	300.850	0.480	-0.700	1.240
2020/01/31 11:44:07.0	300.840	0.470	-0.680	1.250
2020/01/31 11:44:07.1	300.840	0.460	-0.670	1.250
2020/01/31 11:44:07.2	300.830	0.450	-0.660	1.250
2020/01/31 11:44:07.3	300.820	0.440	-0.640	1.250
2020/01/31 11:44:07.4	300.820	0.420	-0.620	1.250
2020/01/31 11:44:07.5	300.830	0.400	-0.610	1.240
2020/01/31 11:44:07.6	300.820	0.380	-0.590	1.230
2020/01/31 11:44:07.7	300.820	0.360	-0.560	1.210
2020/01/31 11:44:07.8	300.820	0.340	-0.540	1.200
2020/01/31 11:44:07.9	300.810	0.320	-0.520	1.180
2020/01/31 11:44:08.0	300.810	0.300	-0.490	1.160
2020/01/31 11:44:08.1	300.810	0.270	-0.470	1.130
2020/01/31 11:44:08.2	300.810	0.250	-0.440	1.110
2020/01/31 11:44:08.3	300.800	0.220	-0.410	1.080
2020/01/31 11:44:08.4	300.800	0.200	-0.380	1.050
2020/01/31 11:44:08.5	300.800	0.170	-0.350	1.020
2020/01/31 11:44:08.6	300.800	0.150	-0.330	0.990
2020/01/31 11:44:08.7	300.800	0.120	-0.300	0.950
2020/01/31 11:44:08.8	300.800	0.100	-0.270	0.910
2020/01/31 11:44:08.9	300.800	0.070	-0.240	0.880
2020/01/31 11:44:09.0	300.800	0.050	-0.210	0.840
2020/01/31 11:44:09.1	300.800	0.030	-0.180	0.800
2020/01/31 11:44:09.2	300.800	0.010	-0.150	0.760
2020/01/31 11:44:09.3	300.800	-0.010	-0.130	0.720
2020/01/31 11:44:09.4	300.800	-0.030	-0.100	0.680
2020/01/31 11:44:09.5	300.800	-0.050	-0.070	0.630
2020/01/31 11:44:09.6	300.800	-0.070	-0.050	0.590
2020/01/31 11:44:09.7	300.800	-0.090	-0.030	0.550
2020/01/31 11:44:09.8	300.800	-0.100	-0.010	0.510
2020/01/31 11:44:09.9	300.800	-0.110	0.010	0.460
2020/01/31 11:44:10.0	300.810	-0.130	0.030	0.420
2020/01/31 11:44:10.1	300.810	-0.140	0.040	0.380
2020/01/31 11:44:10.2	300.810	-0.140	0.060	0.340
2020/01/31 11:44:10.3	300.810	-0.150	0.070	0.300
2020/01/31 11:44:10.4	300.820	-0.160	0.080	0.260
2020/01/31 11:44:10.5	300.830	-0.160	0.080	0.220
2020/01/31 11:44:10.6	300.840	-0.160	0.090	0.180
2020/01/31 11:44:10.7	300.840	-0.160	0.090	0.140
2020/01/31 11:44:10.8	300.850	-0.160	0.090	0.100
2020/01/31 11:44:10.9	300.860	-0.160	0.090	0.060
2020/01/31 11:44:11.0	300.870	-0.160	0.090	0.030
2020/01/31 11:44:11.1	300.880	-0.160	0.090	-0.010
2020/01/31 11:44:11.2	300.890	-0.150	0.080	-0.050
2020/01/31 11:44:11.3	300.900	-0.140	0.080	-0.080
2020/01/31 11:44:11.4	300.920	-0.140	0.070	-0.110
2020/01/31 11:44:11.5	300.930	-0.130	0.060	-0.140
2020/01/31 11:44:11.6	300.950	-0.120	0.050	-0.170
2020/01/31 11:44:11.7	300.960	-0.110	0.040	-0.200
2020/01/31 11:44:11.8	300.980	-0.100	0.020	-0.220
2020/01/31 11:44:11.9	301.000	-0.090	0.010	-0.250
2020/01/31 11:44:12.0	301.010	-0.080	-0.000	-0.270
2020/01/31 11:44:12.1	301.030	-0.070	-0.010	-0.280
2020/01/31 11:44:12.2	301.050	-0.060	-0.030	-0.300
2020/01/31 11:44:12.3	301.060	-0.050	-0.040	-0.310
2020/01/31 11:44:12.4	301.080	-0.040	-0.050	-0.320
2020/01/31 11:44:12.5	301.100	-0.030	-0.070	-0.320
2020/01/31 11:44:12.6	301.120	-0.020	-0.080	-0.330
2020/01/31 11:44:12.7	301.130	-0.010	-0.090	-0.330
2020/01/31 11:44:12.8	301.140	-0.010	-0.100	-0.320
2020/01/31 11:44:12.9	301.160	0.000	-0.100	-0.310
2020/01/31 11:44:13.0	301.170	0.010	-0.110	-0.300
2020/01/31 11:44:13.1	301.180	0.010	-0.120	-0.290
2020/01/31 11:44:13.2	301.190	0.010	-0.120	-0.270
2020/01/31 11:44:13.3	301.200	0.020	-0.130	-0.250
2020/01/31 11:44:13.4	301.220	0.020	-0.130	-0.230
2020/01/31 11:44:13.5	301.240	0.020	-0.130	-0.210
2020/01/31 11:44:13.6	301.250	0.020	-0.130	-0.180
2020/01/31 11:44:13.7	301.260	0.010	-0.130	-0.160
2020/01/31 11:44:13.8	301.270	0.010	-0.130	-0.130
2020/01/31 11:44:13.9	301.270	0.000	-0.130	-0.100
2020/01/31 11:44:14.0	301.280	-0.000	-0.130	-0.070
2020/01/31 11:44:14.1	301.290	-0.010	-0.130	-0.040
2020/01/31 11:44:14.2	301.290	-0.020	-0.130	-0.000
2020/01/31 11:44:14.3	301.300	-0.030	-0.130	0.030
2020/01/31 11:44:14.4	301.300	-0.040	-0.130	0.060
2020/01/31 11:44:14.5	301.310	-0.050	-0.130	0.100
2020/01/31 11:44:14.6	301.310	-0.060	-0.130	0.130
2020/01/31 11:44:14.7	301.320	-0.070	-0.130	0.170
2020/01/31 11:44:14.8	301.320	-0.080	-0.130	0.200
2020/01/31 11:44:14.9	301.320	-0.090	-0.130	0.240
2020/01/31 11:44:15.0	301.330	-0.100	-0.130	0.270
2020/01/31 11:44:15.1	301.330	-0.120	-0.130	0.310
2020/01/31 11:44:15.2	301.330	-0.130	-0.140	0.340
2020/01/31 11:44:15.3	301.330	-0.140	-0.140	0.370
2020/01/31 11:44:15.4	301.340	-0.150	-0.140	0.400
2020/01/31 11:44:15.5	301.330	-0.160	-0.150	0.430
2020/01/31 11:44:15.6	301.330	-0.170	-0.150	0.460
2020/01/31 11:44:15.7	301.330	-0.180	-0.160	0.490
2020/01/31 11:44:15.8	301.340	-0.190	-0.170	0.520
2020/01/31 11:44:15.9	301.340	-0.200	-0.170	0.550
2020/01/31 11:44:16.0	301.340	-0.200	-0.180	0.570
2020/01/31 11:44:16.1	301.330	-0.210	-0.190	0.600
2020/01/31 11:44:16.2	301.330	-0.210	-0.190	0.630
2020/01/31 11:44:16.3	301.330	-0.220	-0.200	0.650
2020/01/31 11:44:16.4	301.330	-0.220	-0.210	0.680
2020/01/31 11:44:16.5	301.320	-0.220	-0.220	0.700
2020/01/31 11:44:16.6	301.320	-0.220	-0.230	0.730
2020/01/31 11:44:16.7	301.310	-0.220	-0.240	0.760
2020/01/31 11:44:16.8	301.300	-0.220	-0.250	0.780
2020/01/31 11:44:16.9	301.290	-0.220	-0.260	0.810
2020/01/31 11:44:17.0	301.290	-0.210	-0.260	0.830
2020/01/31 11:44:17.1	301.280	-0.210	-0.270	0.850
2020/01/31 11:44:17.2	301.270	-0.200	-0.280	0.870
2020/01/31 11:44:17.3	301.260	-0.200	-0.290	0.900
2020/01/31 11:44:17.4	301.240	-0.190	-0.300	0.920
2020/01/31 11:44:17.5	301.230	-0.180	-0.310	0.930
2020/01/31 11:44:17.6	301.220	-0.170	-0.320	0.950
2020/01/31 11:44:17.7	301.210	-0.160	-0.330	0.970
2020/01/31 11:44:17.8	301.190	-0.150	-0.340	0.980
2020/01/31 11:44:17.9	301.180	-0.140	-0.360	0.990
2020/01/31 11:44:18.0	301.170	-0.120	-0.370	1.000
2020/01/31 11:44:18.1	301.160	-0.110	-0.380	1.010
2020/01/31 11:44:18.2	301.150	-0.100	-0.400	1.020
2020/01/31 11:44:18.3	301.140	-0.080	-0.410	1.020
2020/01/31 11:44:18.4	301.130	-0.070	-0.420	1.020
2020/01/31 11:44:18.5	301.130	-0.050	-0.440	1.020
2020/01/31 11:44:18.6	301.120	-0.040	-0.460	1.010
2020/01/31 11:44:18.7	301.110	-0.020	-0.470	1.000
2020/01/31 11:44:18.8	301.110	-0.000	-0.490	0.990
2020/01/31 11:44:18.9	301.110	0.010	-0.510	0.980
2020/01/31 11:44:19.0	301.110	0.030	-0.530	0.960
2020/01/31 11:44:19.1	301.110	0.050	-0.540	0.930
2020/01/31 11:44:19.2	301.110	0.060	-0.560	0.910
2020/01/31 11:44:19.3	301.110	0.080	-0.580	0.880
2020/01/31 11:44:19.4	301.120	0.100	-0.600	0.850
2020/01/31 11:44:19.5	301.120	0.110	-0.620	0.820
2020/01/31 11:44:19.6	301.130	0.130	-0.640	0.790
2020/01/31 11:44:19.7	301.140	0.140	-0.650	0.760
2020/01/31 11:44:19.8	301.150	0.160	-0.670	0.720
2020/01/31 11:44:19.9	301.160	0.170	-0.680	0.680
2020/01/31 11:44:20.0	301.170	0.190	-0.700	0.650
2020/01/31 11:44:20.1	301.190	0.200	-0.710	0.610
2020/01/31 11:44:20.2	301.210	0.210	-0.720	0.570
2020/01/31 11:44:20.3	301.220	0.230	-0.720	0.530
2020/01/31 11:44:20.4	301.240	0.240	-0.730	0.490
2020/01/31 11:44:20.5	301.250	0.250	-0.730	0.450
2020/01/31 11:44:20.6	301.270	0.250	-0.730	0.410
2020/01/31 11:44:20.7	301.290	0.260	-0.730	0.380
2020/01/31 11:44:20.8	301.320	0.270	-0.720	0.340
2020/01/31 11:44:20.9	301.340	0.270	-0.710	0.300
2020/01/31 11:44:21.0	301.360	0.280	-0.690	0.270
2020/01/31 11:44:21.1	301.380	0.280	-0.680	0.240
2020/01/31 11:44:21.2	301.400	0.280	-0.660	0.200
2020/01/31 11:44:21.3	301.430	0.280	-0.640	0.170
2020/01/31 11:44:21.4	301.450	0.280	-0.610	0.140
2020/01/31 11:44:21.5	301.480	0.270	-0.590	0.110
2020/01/31 11:44:21.6	301.500	0.270	-0.550	0.090
2020/01/31 11:44:21.7	301.520	0.260	-0.520	0.060
2020/01/31 11:44:21.8	301.550	0.250	-0.480	0.030
2020/01/31 11:44:21.9	301.570	0.240	-0.440	0.010
2020/01/31 11:44:22.0	301.590	0.230	-0.400	-0.010
2020/01/31 11:44:22.1	301.610	0.220	-0.360	-0.040
2020/01/31 11:44:22.2	301.630	0.200	-0.310	-0.050
2020/01/31 11:44:22.3	301.650	0.190	-0.260	-0.070
2020/01/31 11:44:22.4	301.670	0.170	-0.210	-0.090
2020/01/31 11:44:22.5	301.690	0.160	-0.160	-0.100
2020/01/31 11:44:22.6	301.710	0.140	-0.110	-0.110
2020/01/31 11:44:22.7	301.720	0.120	-0.060	-0.110
2020/01/31 11:44:22.8	301.740	0.100	-0.010	-0.120
2020/01/31 11:44:22.9	301.760	0.080	0.040	-0.120
2020/01/31 11:44:23.0	301.770	0.060	0.090	-0.110
2020/01/31 11:44:23.1	301.790	0.050	0.140	-0.110
2020/01/31 11:44:23.2	301.800	0.030	0.190	-0.100
2020/01/31 11:44:23.3	301.810	0.010	0.230	-0.080
2020/01/31 11:44:23.4	301.820	-0.010	0.280	-0.070
2020/01/31 11:44:23.5	301.840	-0.030	0.320	-0.050
2020/01/31 11:44:23.6	301.850	-0.040	0.350	-0.020
2020/01/31 11:44:23.7	301.850	-0.060	0.380	0.000
2020/01/31 11:44:23.8	301.860	-0.070	0.410	0.030
2020/01/31 11:44:23.9	301.860	-0.080	0.440	0.060
2020/01/31 11:44:24.0	301.860	-0.100	0.460	0.100
2020/01/31 11:44:24.1	301.860	-0.110	0.470	0.140
2020/01/31 11:44:24.2	301.860	-0.110	0.480	0.170
2020/01/31 11:44:24.3	301.860	-0.120	0.490	0.220
2020/01/31 11:44:24.4	301.850	-0.120	0.490	0.260
2020/01/31 11:44:24.5	301.860	-0.130	0.480	0.300
2020/01/31 11:44:24.6	301.850	-0.130	0.470	0.340
2020/01/31 11:44:24.7	301.840	-0.130	0.450	0.380
2020/01/31 11:44:24.8	301.830	-0.120	0.430	0.430
2020/01/31 11:44:24.9	301.820	-0.120	0.410	0.470
2020/01/31 11:44:25.0	301.810	-0.110	0.380	0.510
2020/01/31 11:44:25.1	301.800	-0.110	0.350	0.560
2020/01/31 11:44:25.2	301.780	-0.100	0.310	0.600
2020/01/31 11:44:25.3	301.770	-0.090	0.270	0.640
2020/01/31 11:44:25.4	301.760	-0.080	0.220	0.680
2020/01/31 11:44:25.5	301.740	-0.060	0.180	0.720
2020/01/31 11:44:25.6	301.720	-0.050	0.130	0.760
2020/01/31 11:44:25.7	301.700	-0.030	0.070	0.790
2020/01/31 11:44:25.8	301.680	-0.020	0.020	0.830
2020/01/31 11:44:25.9	301.670	-0.000	-0.030	0.860
2020/01/31 11:44:26.0	301.650	0.010	-0.090	0.890
2020/01/31 11:44:26.1	301.630	0.030	-0.140	0.920
2020/01/31 11:44:26.2	301.610	0.040	-0.190	0.950
2020/01/31 11:44:26.3	301.580	0.060	-0.250	0.970
2020/01/31 11:44:26.4	301.560	0.070	-0.300	1.000
2020/01/31 11:44:26.5	301.550	0.080	-0.350	1.020
2020/01/31 11:44:26.6	301.530	0.100	-0.390	1.030
2020/01/31 11:44:26.7	301.500	0.110	-0.440	1.050
2020/01/31 11:44:26.8	301.480	0.120	-0.480	1.060
2020/01/31 11:44:26.9	301.460	0.130	-0.520	1.060
2020/01/31 11:44:27.0	301.440	0.130	-0.560	1.070
2020/01/31 11:44:27.1	301.410	0.140	-0.590	1.070
2020/01/31 11:44:27.2	301.390	0.140	-0.620	1.060
2020/01/31 11:44:27.3	301.370	0.150	-0.640	1.050
2020/01/31 11:44:27.4	301.350	0.150	-0.660	1.040
2020/01/31 11:44:27.5	301.350	0.150	-0.680	1.030
2020/01/31 11:44:27.6	301.330	0.150	-0.690	1.010
2020/01/31 11:44:27.7	301.310	0.150	-0.700	0.990
2020/01/31 11:44:27.8	301.290	0.140	-0.700	0.970
2020/01/31 11:44:27.9	301.280	0.140	-0.700	0.950
2020/01/31 11:44:28.0	301.260	0.130	-0.700	0.920
2020/01/31 11:44:28.1	301.250	0.130	-0.690	0.890
2020/01/31 11:44:28.2	301.230	0.120	-0.680	0.860
2020/01/31 11:44:28.3	301.220	0.110	-0.660	0.830
2020/01/31 11:44:28.4	301.210	0.100	-0.650	0.790
2020/01/31 11:44:28.5	301.210	0.090	-0.630	0.760
2020/01/31 11:44:28.6	301.200	0.080	-0.600	0.720
2020/01/31 11:44:28.7	301.200	0.060	-0.580	0.690
2020/01/31 11:44:28.8	301.190	0.050	-0.550	0.650
2020/01/31 11:44:28.9	301.190	0.040	-0.520	0.610
2020/01/31 11:44:29.0	301.190	0.030	-0.490	0.570
2020/01/31 11:44:29.1	301.190	0.010	-0.460	0.530
2020/01/31 11:44:29.2	301.200	0.000	-0.430	0.490
2020/01/31 11:44:29.3	301.200	-0.010	-0.400	0.450
2020/01/31 11:44:29.4	301.210	-0.030	-0.370	0.410
2020/01/31 11:44:29.5	301.210	-0.040	-0.340	0.370
2020/01/31 11:44:29.6	301.220	-0.050	-0.310	0.330
2020/01/31 11:44:29.7	301.230	-0.070	-0.290	0.290
2020/01/31 11:44:29.8	301.240	-0.080	-0.260	0.250
2020/01/31 11:44:29.9	301.260	-0.090	-0.230	0.210
2020/01/31 11:44:30.0	301.270	-0.110	-0.210	0.170
2020/01/31 11:44:30.1	301.280	-0.120	-0.180	0.130
2020/01/31 11:44:30.2	301.300	-0.130	-0.160	0.090
2020/01/31 11:44:30.3	301.320	-0.140	-0.140	0.050
2020/01/31 11:44:30.4	301.330	-0.160	-0.120	0.010
2020/01/31 11:44:30.5	301.340	-0.170	-0.110	-0.030
2020/01/31 11:44:30.6	301.360	-0.180	-0.090	-0.060
2020/01/31 11:44:30.7	301.380	-0.190	-0.080	-0.090
2020/01/31 11:44:30.8	301.400	-0.200	-0.070	-0.130
2020/01/31 11:44:30.9	301.420	-0.210	-0.060	-0.160
2020/01/31 11:44:31.0	301.440	-0.220	-0.050	-0.190
2020/01/31 11:44:31.1	301.460	-0.230	-0.050	-0.220
2020/01/31 11:44:31.2	301.480	-0.240	-0.040	-0.240
2020/01/31 11:44:31.3	301.500	-0.240	-0.040	-0.270
2020/01/31 11:44:31.4	301.520	-0.250	-0.040	-0.290
2020/01/31 11:44:31.5	301.540	-0.260	-0.040	-0.310
2020/01/31 11:44:31.6	301.570	-0.260	-0.050	-0.330
2020/01/31 11:44:31.7	301.590	-0.270	-0.050	-0.350
2020/01/31 11:44:31.8	301.610	-0.270	-0.060	-0.360
2020/01/31 11:44:31.9	301.640	-0.270	-0.060	-0.380
2020/01/31 11:44:32.0	301.660	-0.270	-0.070	-0.390
2020/01/31 11:44:32.1	301.680	-0.270	-0.080	-0.400
2020/01/31 11:44:32.2	301.700	-0.270	-0.090	-0.410
2020/01/31 11:44:32.3	301.730	-0.270	-0.100	-0.410
2020/01/31 11:44:32.4	301.750	-0.270	-0.110	-0.410
2020/01/31 11:44:32.5	301.780	-0.260	-0.120	-0.410
2020/01/31 11:44:32.6	301.800	-0.260	-0.130	-0.400
2020/01/31 11:44:32.7	301.820	-0.250	-0.140	-0.390
2020/01/31 11:44:32.8	301.840	-0.240	-0.160	-0.380
2020/01/31 11:44:32.9	301.860	-0.230	-0.170	-0.360
2020/01/31 11:44:33.0	301.880	-0.220	-0.180	-0.340
2020/01/31 11:44:33.1	301.890	-0.210	-0.190	-0.320
2020/01/31 11:44:33.2	301.910	-0.190	-0.200	-0.300
2020/01/31 11:44:33.3	301.930	-0.180	-0.220	-0.270
2020/01/31 11:44:33.4	301.940	-0.160	-0.230	-0.240
2020/01/31 11:44:33.5	301.970	-0.140	-0.240	-0.210
2020/01/31 11:44:33.6	301.980	-0.120	-0.250	-0.180
2020/01/31 11:44:33.7	301.990	-0.100	-0.270	-0.140
2020/01/31 11:44:33.8	302.010	-0.080	-0.280	-0.110
2020/01/31 11:44:33.9	302.020	-0.060	-0.300	-0.070
2020/01/31 11:44:34.0	302.040	-0.040	-0.310	-0.030
2020/01/31 11:44:34.1	302.050	-0.010	-0.320	0.010
2020/01/31 11:44:34.2	302.070	0.010	-0.340	0.050
2020/01/31 11:44:34.3	302.080	0.040	-0.350	0.090
2020/01/31 11:44:34.4	302.090	0.060	-0.370	0.130
2020/01/31 11:44:34.5	302.120	0.090	-0.380	0.170
2020/01/31 11:44:34.6	302.130	0.120	-0.400	0.220
2020/01/31 11:44:34.7	302.140	0.140	-0.410	0.260
2020/01/31 11:44:34.8	302.150	0.170	-0.420	0.310
2020/01/31 11:44:34.9	302.160	0.190	-0.440	0.350
2020/01/31 11:44:35.0	302.170	0.220	-0.450	0.400
2020/01/31 11:44:35.1	302.170	0.240	-0.460	0.450
2020/01/31 11:44:35.2	302.180	0.270	-0.460	0.500
2020/01/31 11:44:35.3	302.180	0.290	-0.470	0.540
2020/01/31 11:44:35.4	302.180	0.310	-0.480	0.590
2020/01/31 11:44:35.5	302.180	0.330	-0.480	0.640
2020/01/31 11:44:35.6	302.180	0.350	-0.480	0.690
2020/01/31 11:44:35.7	302.170	0.360	-0.480	0.740
2020/01/31 11:44:35.8	302.170	0.380	-0.480	0.780
2020/01/31 11:44:35.9	302.160	0.390	-0.470	0.830
2020/01/31 11:44:36.0	302.150	0.400	-0.470	0.870
2020/01/31 11:44:36.1	302.130	0.410	-0.460	0.910
2020/01/31 11:44:36.2	302.120	0.420	-0.450	0.960
2020/01/31 11:44:36.3	302.100	0.430	-0.430	0.990
2020/01/31 11:44:36.4	302.090	0.430	-0.420	1.030
2020/01/31 11:44:36.5	302.070	0.430	-0.400	1.070
2020/01/31 11:44:36.6	302.050	0.430	-0.380	1.110
2020/01/31 11:44:36.7	302.030	0.420	-0.360	1.140
2020/01/31 11:44:36.8	302.010	0.420	-0.340	1.170
2020/01/31 11:44:36.9	301.980	0.410	-0.320	1.200
2020/01/31 11:44:37.0	301.960	0.400	-0.290	1.230
2020/01/31 11:44:37.1	301.930	0.390	-0.270	1.250
2020/01/31 11:44:37.2	301.900	0.380	-0.240	1.270
2020/01/31 11:44:37.3	301.870	0.360	-0.210	1.290
2020/01/31 11:44:37.4	301.840	0.350	-0.180	1.310
2020/01/31 11:44:37.5	301.800	0.330	-0.150	1.320
2020/01/31 11:44:37.6	301.770	0.310	-0.130	1.330
2020/01/31 11:44:37.7	301.740	0.290	-0.100	1.340
2020/01/31 11:44:37.8	301.710	0.270	-0.070	1.340
2020/01/31 11:44:37.9	301.680	0.240	-0.040	1.340
2020/01/31 11:44:38.0	301.650	0.220	-0.020	1.340
2020/01/31 11:44:38.1	301.620	0.200	0.010	1.330
2020/01/31 11:44:38.2	301.590	0.170	0.030	1.330
2020/01/31 11:44:38.3	301.560	0.150	0.050	1.310
2020/01/31 11:44:38.4	301.530	0.120	0.070	1.300
2020/01/31 11:44:38.5	301.510	0.100	0.090	1.280
2020/01/31 11:44:38.6	301.490	0.070	0.100	1.260
2020/01/31 11:44:38.7	301.460	0.050	0.120	1.230
2020/01/31 11:44:38.8	301.440	0.020	0.130	1.210
2020/01/31 11:44:38.9	301.410	-0.000	0.140	1.180
2020/01/31 11:44:39.0	301.390	-0.030	0.140	1.150
2020/01/31 11:44:39.1	301.370	-0.050	0.140	1.110
2020/01/31 11:44:39.2	301.350	-0.070	0.140	1.080
2020/01/31 11:44:39.3	301.330	-0.090	0.140	1.040
2020/01/31 11:44:39.4	301.310	-0.110	0.140	1.000
2020/01/31 11:44:39.5	301.310	-0.130	0.130	0.960
2020/01/31 11:44:39.6	301.290	-0.150	0.120	0.910
2020/01/31 11:44:39.7	301.280	-0.160	0.100	0.870
2020/01/31 11:44:39.8	301.270	-0.180	0.090	0.820
2020/01/31 11:44:39.9	301.260	-0.190	0.070	0.780
2020/01/31 11:44:40.0	301.250	-0.210	0.050	0.730
2020/01/31 11:44:40.1	301.240	-0.220	0.030	0.680
2020/01/31 11:44:40.2	301.230	-0.230	0.000	0.630
2020/01/31 11:44:40.3	301.230	-0.230	-0.020	0.580
2020/01/31 11:44:40.4	301.220	-0.240	-0.050	0.520
2020/01/31 11:44:40.5	301.210	-0.250	-0.090	0.470
2020/01/31 11:44:40.6	301.210	-0.250	-0.120	0.420
2020/01/31 11:44:40.7	301.210	-0.250	-0.160	0.360
2020/01/31 11:44:40.8	301.210	-0.260	-0.190	0.310
2020/01/31 11:44:40.9	301.210	-0.260	-0.230	0.250
2020/01/31 11:44:41.0	301.220	-0.260	-0.270	0.200
2020/01/31 11:44:41.1	301.220	-0.260	-0.300	0.140
2020/01/31 11:44:41.2	301.230	-0.250	-0.340	0.090
2020/01/31 11:44:41.3	301.230	-0.250	-0.380	0.030
2020/01/31 11:44:41.4	301.240	-0.250	-0.410	-0.020
2020/01/31 11:44:41.5	301.240	-0.240	-0.450	-0.070
2020/01/31 11:44:41.6	301.250	-0.240	-0.480	-0.120
2020/01/31 11:44:41.7	301.270	-0.230	-0.520	-0.180
2020/01/31 11:44:41.8	301.280	-0.220	-0.550	-0.230
2020/01/31 11:44:41.9	301.300	-0.220	-0.580	-0.270
2020/01/31 11:44:42.0	301.310	-0.210	-0.610	-0.320
2020/01/31 11:44:42.1	301.330	-0.200	-0.640	-0.370
2020/01/31 11:44:42.2	301.350	-0.190	-0.660	-0.410
2020/01/31 11:44:42.3	301.380	-0.180	-0.690	-0.450
2020/01/31 11:44:42.4	301.400	-0.170	-0.710	-0.490
2020/01/31 11:44:42.5	301.420	-0.160	-0.730	-0.530
2020/01/31 11:44:42.6	301.450	-0.150	-0.740	-0.560
2020/01/31 11:44:42.7	301.480	-0.140	-0.760	-0.590
2020/01/31 11:44:42.8	301.510	-0.130	-0.770	-0.620
2020/01/31 11:44:42.9	301.540	-0.120	-0.780	-0.650
2020/01/31 11:44:43.0	301.570	-0.110	-0.780	-0.670
2020/01/31 11:44:43.1	301.610	-0.100	-0.780	-0.690
2020/01/31 11:44:43.2	301.650	-0.080	-0.780	-0.710
2020/01/31 11:44:43.3	301.680	-0.070	-0.780	-0.720
2020/01/31 11:44:43.4	301.720	-0.060	-0.770	-0.730
2020/01/31 11:44:43.5	301.770	-0.050	-0.770	-0.730
2020/01/31 11:44:43.6	301.810	-0.040	-0.750	-0.740
2020/01/31 11:44:43.7	301.850	-0.040	-0.740	-0.740
2020/01/31 11:44:43.8	301.890	-0.030	-0.720	-0.730
2020/01/31 11:44:43.9	301.930	-0.020	-0.700	-0.720
2020/01/31 11:44:44.0	301.970	-0.010	-0.680	-0.710
2020/01/31 11:44:44.1	302.000	-0.000	-0.650	-0.690
2020/01/31 11:44:44.2	302.040	0.000	-0.620	-0.680
2020/01/31 11:44:44.3	302.070	0.010	-0.590	-0.650
2020/01/31 11:44:44.4	302.100	0.010	-0.560	-0.630
2020/01/31 11:44:44.5	302.140	0.010	-0.520	-0.600
2020/01/31 11:44:44.6	302.170	0.020	-0.480	-0.560
2020/01/31 11:44:44.7	302.200	0.020	-0.440	-0.530
2020/01/31 11:44:44.8	302.220	0.020	-0.400	-0.490
2020/01/31 11:44:44.9	302.240	0.020	-0.350	-0.450
2020/01/31 11:44:45.0	302.260	0.020	-0.310	-0.410
2020/01/31 11:44:45.1	302.280	0.020	-0.260	-0.360
2020/01/31 11:44:45.2	302.300	0.020	-0.210	-0.310
2020/01/31 11:44:45.3	302.310	0.010	-0.170	-0.260
2020/01/31 11:44:45.4	302.320	0.010	-0.120	-0.200
2020/01/31 11:44:45.5	302.330	0.010	-0.070	-0.140
2020/01/31 11:44:45.6	302.330	0.010	-0.020	-0.080
2020/01/31 11:44:45.7	302.340	0.000	0.030	-0.020
2020/01/31 11:44:45.8	302.340	-0.000	0.080	0.040
2020/01/31 11:44:45.9	302.340	-0.010	0.120	0.110
2020/01/31 11:44:46.0	302.340	-0.010	0.170	0.180
2020/01/31 11:44:46.1	302.330	-0.020	0.210	0.250
2020/01/31 11:44:46.2	302.330	-0.020	0.250	0.320
2020/01/31 11:44:46.3	302.320	-0.020	0.290	0.390
2020/01/31 11:44:46.4	302.310	-0.030	0.330	0.460
2020/01/31 11:44:46.5	302.280	-0.030	0.360	0.530
2020/01/31 11:44:46.6	302.260	-0.040	0.390	0.600
2020/01/31 11:44:46.7	302.250	-0.040	0.420	0.680
2020/01/31 11:44:46.8	302.220	-0.040	0.450	0.750
2020/01/31 11:44:46.9	302.200	-0.040	0.470	0.820
2020/01/31 11:44:47.0	302.180	-0.040	0.490	0.890
2020/01/31 11:44:47.1	302.150	-0.040	0.510	0.960
2020/01/31 11:44:47.2	302.120	-0.040	0.520	1.030
2020/01/31 11:44:47.3	302.090	-0.040	0.530	1.090
2020/01/31 11:44:47.4	302.060	-0.040	0.530	1.160
2020/01/31 11:44:47.5	302.020	-0.040	0.540	1.220
2020/01/31 11:44:47.6	301.990	-0.040	0.530	1.280
2020/01/31 11:44:47.7	301.950	-0.030	0.520	1.330
2020/01/31 11:44:47.8	301.910	-0.030	0.510	1.380
2020/01/31 11:44:47.9	301.880	-0.020	0.490	1.430
2020/01/31 11:44:48.0	301.840	-0.010	0.470	1.470
2020/01/31 11:44:48.1	301.810	-0.010	0.440	1.500
2020/01/31 11:44:48.2	301.770	0.000	0.410	1.530
2020/01/31 11:44:48.3	301.730	0.010	0.370	1.560
2020/01/31 11:44:48.4	301.700	0.020	0.330	1.580
2020/01/31 11:44:48.5	301.650	0.030	0.290	1.590
2020/01/31 11:44:48.6	301.610	0.040	0.240	1.600
2020/01/31 11:44:48.7	301.580	0.050	0.190	1.600
2020/01/31 11:44:48.8	301.550	0.070	0.140	1.600
2020/01/31 11:44:48.9	301.510	0.080	0.090	1.600
2020/01/31 11:44:49.0	301.480	0.090	0.030	1.590
2020/01/31 11:44:49.1	301.450	0.100	-0.030	1.570
2020/01/31 11:44:49.2	301.420	0.120	-0.090	1.550
2020/01/31 11:44:49.3	301.390	0.130	-0.150	1.530
2020/01/31 11:44:49.4	301.360	0.150	-0.210	1.500
2020/01/31 11:44:49.5	301.340	0.160	-0.280	1.470
2020/01/31 11:44:49.6	301.320	0.180	-0.340	1.440
2020/01/31 11:44:49.7	301.300	0.190	-0.400	1.400
2020/01/31 11:44:49.8	301.270	0.210	-0.460	1.360
2020/01/31 11:44:49.9	301.250	0.220	-0.520	1.320
2020/01/31 11:44:50.0	301.240	0.230	-0.580	1.270
2020/01/31 11:44:50.1	301.220	0.250	-0.630	1.220
2020/01/31 11:44:50.2	301.210	0.260	-0.680	1.170
2020/01/31 11:44:50.3	301.190	0.270	-0.730	1.120
2020/01/31 11:44:50.4	301.180	0.290	-0.780	1.070
2020/01/31 11:44:50.5	301.170	0.300	-0.820	1.010
2020/01/31 11:44:50.6	301.160	0.310	-0.860	0.960
2020/01/31 11:44:50.7	301.150	0.320	-0.900	0.900
2020/01/31 11:44:50.8	301.150	0.330	-0.930	0.840
2020/01/31 11:44:50.9	301.150	0.330	-0.960	0.780
2020/01/31 11:44:51.0	301.150	0.340	-0.980	0.720
2020/01/31 11:44:51.1	301.150	0.350	-1.000	0.660
2020/01/31 11:44:51.2	301.150	0.350	-1.020	0.600
2020/01/31 11:44:51.3	301.150	0.350	-1.030	0.540
2020/01/31 11:44:51.4	301.160	0.360	-1.040	0.480
2020/01/31 11:44:51.5	301.160	0.360	-1.050	0.430
2020/01/31 11:44:51.6	301.170	0.350	-1.050	0.370
2020/01/31 11:44:51.7	301.170	0.350	-1.040	0.310
2020/01/31 11:44:51.8	301.180	0.350	-1.040	0.250
2020/01/31 11:44:51.9	301.200	0.340	-1.030	0.200
2020/01/31 11:44:52.0	301.210	0.330	-1.010	0.150
2020/01/31 11:44:52.1	301.220	0.330	-0.990	0.090
2020/01/31 11:44:52.2	301.240	0.320	-0.970	0.040
2020/01/31 11:44:52.3	301.250	0.300	-0.940	-0.000
2020/01/31 11:44:52.4	301.270	0.290	-0.910	-0.050
2020/01/31 11:44:52.5	301.300	0.280	-0.880	-0.090
2020/01/31 11:44:52.6	301.320	0.260	-0.850	-0.130
2020/01/31 11:44:52.7	301.340	0.250	-0.810	-0.170
2020/01/31 11:44:52.8	301.350	0.230	-0.770	-0.200
2020/01/31 11:44:52.9	301.370	0.210	-0.730	-0.230
2020/01/31 11:44:53.0	301.390	0.190	-0.680	-0.250
2020/01/31 11:44:53.1	301.400	0.170	-0.640	-0.280
2020/01/31 11:44:53.2	301.420	0.150	-0.590	-0.300
2020/01/31 11:44:53.3	301.440	0.130	-0.540	-0.310
2020/01/31 11:44:53.4	301.450	0.110	-0.490	-0.320
2020/01/31 11:44:53.5	301.470	0.080	-0.440	-0.330
2020/01/31 11:44:53.6	301.490	0.060	-0.390	-0.340
2020/01/31 11:44:53.7	301.500	0.040	-0.340	-0.340
2020/01/31 11:44:53.8	301.510	0.010	-0.290	-0.340
2020/01/31 11:44:53.9	301.530	-0.010	-0.240	-0.330
2020/01/31 11:44:54.0	301.540	-0.030	-0.190	-0.330
2020/01/31 11:44:54.1	301.550	-0.060	-0.140	-0.320
2020/01/31 11:44:54.2	301.560	-0.080	-0.090	-0.310
2020/01/31 11:44:54.3	301.570	-0.100	-0.050	-0.290
2020/01/31 11:44:54.4	301.590	-0.120	-0.010	-0.280
2020/01/31 11:44:54.5	301.600	-0.140	0.030	-0.260
2020/01/31 11:44:54.6	301.610	-0.170	0.070	-0.240
2020/01/31 11:44:54.7	301.620	-0.190	0.110	-0.210
2020/01/31 11:44:54.8	301.630	-0.210	0.140	-0.190
2020/01/31 11:44:54.9	301.640	-0.220	0.170	-0.160
2020/01/31 11:44:55.0	301.650	-0.240	0.200	-0.130
2020/01/31 11:44:55.1	301.650	-0.260	0.230	-0.100
2020/01/31 11:44:55.2	301.660	-0.280	0.250	-0.070
2020/01/31 11:44:55.3	301.660	-0.290	0.270	-0.040
2020/01/31 11:44:55.4	301.670	-0.300	0.290	-0.000
2020/01/31 11:44:55.5	301.660	-0.320	0.300	0.040
2020/01/31 11:44:55.6	301.660	-0.330	0.320	0.070
2020/01/31 11:44:55.7	301.660	-0.340	0.330	0.110
2020/01/31 11:44:55.8	301.660	-0.350	0.330	0.160
2020/01/31 11:44:55.9	301.660	-0.350	0.340	0.200
2020/01/31 11:44:56.0	301.650	-0.360	0.340	0.240
2020/01/31 11:44:56.1	301.650	-0.360	0.340	0.290
2020/01/31 11:44:56.2	301.640	-0.360	0.340	0.330
2020/01/31 11:44:56.3	301.630	-0.370	0.340	0.380
2020/01/31 11:44:56.4	301.620	-0.360	0.330	0.420
2020/01/31 11:44:56.5	301.600	-0.360	0.320	0.470
2020/01/31 11:44:56.6	301.590	-0.360	0.320	0.520
2020/01/31 11:44:56.7	301.570	-0.350	0.310	0.570
2020/01/31 11:44:56.8	301.560	-0.340	0.300	0.620
2020/01/31 11:44:56.9	301.540	-0.330	0.280	0.660
2020/01/31 11:44:57.0	301.520	-0.320	0.270	0.710
2020/01/31 11:44:57.1	301.500	-0.310	0.260	0.760
2020/01/31 11:44:57.2	301.480	-0.300	0.240	0.800
2020/01/31 11:44:57.3	301.460	-0.280	0.220	0.850
2020/01/31 11:44:57.4	301.430	-0.270	0.200	0.890
2020/01/31 11:44:57.5	301.390	-0.250	0.190	0.930
2020/01/31 11:44:57.6	301.370	-0.230	0.170	0.970
2020/01/31 11:44:57.7	301.340	-0.210	0.140	1.010
2020/01/31 11:44:57.8	301.320	-0.190	0.120	1.040
2020/01/31 11:44:57.9	301.290	-0.170	0.090	1.070
2020/01/31 11:44:58.0	301.270	-0.140	0.060	1.100
2020/01/31 11:44:58.1	301.240	-0.120	0.040	1.120
2020/01/31 11:44:58.2	301.220	-0.100	0.000	1.150
2020/01/31 11:44:58.3	301.200	-0.070	-0.030	1.160
2020/01/31 11:44:58.4	301.170	-0.050	-0.060	1.180
2020/01/31 11:44:58.5	301.140	-0.020	-0.090	1.190
2020/01/31 11:44:58.6	301.120	0.000	-0.130	1.190
2020/01/31 11:44:58.7	301.100	0.030	-0.160	1.200
2020/01/31 11:44:58.8	301.080	0.050	-0.200	1.200
2020/01/31 11:44:58.9	301.060	0.080	-0.240	1.200
2020/01/31 11:44:59.0	301.040	0.100	-0.270	1.190
2020/01/31 11:44:59.1	301.030	0.120	-0.310	1.180
2020/01/31 11:44:59.2	301.010	0.140	-0.350	1.170
2020/01/31 11:44:59.3	300.990	0.160	-0.380	1.160
2020/01/31 11:44:59.4	300.980	0.180	-0.420	1.140
2020/01/31 11:44:59.5	300.970	0.200	-0.450	1.130
2020/01/31 11:44:59.6	300.960	0.220	-0.490	1.110
2020/01/31 11:44:59.7	300.950	0.230	-0.520	1.090
2020/01/31 11:44:59.8	300.930	0.240	-0.550	1.070
2020/01/31 11:44:59.9	300.920	0.250	-0.580	1.040
2020/01/31 11:45:00.0	300.910	0.260	-0.600	1.020
2020/01/31 11:45:00.1	300.900	0.270	-0.630	0.990
2020/01/31 11:45:00.2	300.890	0.270	-0.650	0.960
2020/01/31 11:45:00.3	300.880	0.280	-0.670	0.920
2020/01/31 11:45:00.4	300.880	0.280	-0.690	0.890
2020/01/31 11:45:00.5	300.870	0.270	-0.700	0.860
2020/01/31 11:45:00.6	300.860	0.270	-0.710	0.820
2020/01/31 11:45:00.7	300.860	0.260	-0.720	0.780
2020/01/31 11:45:00.8	300.860	0.260	-0.730	0.750
2020/01/31 11:45:00.9	300.850	0.250	-0.730	0.710
2020/01/31 11:45:01.0	300.850	0.240	-0.730	0.670
2020/01/31 11:45:01.1	300.850	0.220	-0.720	0.630
2020/01/31 11:45:01.2	300.850	0.210	-0.720	0.590
2020/01/31 11:45:01.3	300.860	0.190	-0.710	0.540
2020/01/31 11:45:01.4	300.860	0.170	-0.700	0.500
2020/01/31 11:45:01.5	300.870	0.160	-0.680	0.460
2020/01/31 11:45:01.6	300.870	0.140	-0.660	0.410
2020/01/31 11:45:01.7	300.880	0.110	-0.650	0.370
2020/01/31 11:45:01.8	300.890	0.090	-0.630	0.330
2020/01/31 11:45:01.9	300.900	0.070	-0.610	0.280
2020/01/31 11:45:02.0	300.910	0.050	-0.580	0.240
2020/01/31 11:45:02.1	300.930	0.030	-0.560	0.190
2020/01/31 11:45:02.2	300.940	0.010	-0.540	0.150
2020/01/31 11:45:02.3	300.960	-0.020	-0.510	0.110
2020/01/31 11:45:02.4	300.970	-0.040	-0.490	0.060
2020/01/31 11:45:02.5	301.000	-0.060	-0.470	0.020
2020/01/31 11:45:02.6	301.020	-0.080	-0.450	-0.010
2020/01/31 11:45:02.7	301.040	-0.100	-0.430	-0.050
2020/01/31 11:45:02.8	301.060	-0.110	-0.410	-0.080
2020/01/31 11:45:02.9	301.080	-0.130	-0.380	-0.120
2020/01/31 11:45:03.0	301.100	-0.140	-0.360	-0.150
2020/01/31 11:45:03.1	301.120	-0.160	-0.350	-0.170
2020/01/31 11:45:03.2	301.140	-0.170	-0.330	-0.190
2020/01/31 11:45:03.3	301.160	-0.180	-0.310	-0.210
2020/01/31 11:45:03.4	301.180	-0.190	-0.290	-0.220
2020/01/31 11:45:03.5	301.190	-0.190	-0.280	-0.230
2020/01/31 11:45:03.6	301.210	-0.200	-0.260	-0.240
2020/01/31 11:45:03.7	301.230	-0.200	-0.250	-0.240
2020/01/31 11:45:03.8	301.240	-0.200	-0.230	-0.230
2020/01/31 11:45:03.9	301.260	-0.200	-0.220	-0.220
2020/01/31 11:45:04.0	301.270	-0.200	-0.200	-0.210
2020/01/31 11:45:04.1	301.280	-0.200	-0.190	-0.190
2020/01/31 11:45:04.2	301.300	-0.190	-0.180	-0.170
2020/01/31 11:45:04.3	301.310	-0.180	-0.160	-0.140
2020/01/31 11:45:04.4	301.320	-0.180	-0.150	-0.110
2020/01/31 11:45:04.5	301.340	-0.170	-0.130	-0.080
2020/01/31 11:45:04.6	301.340	-0.160	-0.120	-0.040
2020/01/31 11:45:04.7	301.350	-0.150	-0.110	-0.010
2020/01/31 11:45:04.8	301.350	-0.130	-0.100	0.030
2020/01/31 11:45:04.9	301.350	-0.120	-0.090	0.070
2020/01/31 11:45:05.0	301.350	-0.110	-0.070	0.120
2020/01/31 11:45:05.1	301.350	-0.100	-0.060	0.160
2020/01/31 11:45:05.2	301.340	-0.080	-0.050	0.210
2020/01/31 11:45:05.3	301.340	-0.070	-0.040	0.250
2020/01/31 11:45:05.4	301.330	-0.060	-0.030	0.300
2020/01/31 11:45:05.5	301.320	-0.040	-0.020	0.350
2020/01/31 11:45:05.6	301.310	-0.030	-0.010	0.400
2020/01/31 11:45:05.7	301.290	-0.020	-0.000	0.460
2020/01/31 11:45:05.8	301.280	-0.010	0.010	0.510
2020/01/31 11:45:05.9	301.260	0.010	0.010	0.560
2020/01/31 11:45:06.0	301.230	0.020	0.020	0.610
2020/01/31 11:45:06.1	301.210	0.030	0.030	0.660
2020/01/31 11:45:06.2	301.190	0.040	0.030	0.710
2020/01/31 11:45:06.3	301.160	0.050	0.040	0.750
2020/01/31 11:45:06.4	301.140	0.060	0.040	0.800
2020/01/31 11:45:06.5	301.110	0.060	0.050	0.840
2020/01/31 11:45:06.6	301.080	0.070	0.050	0.880
2020/01/31 11:45:06.7	301.060	0.080	0.050	0.920
2020/01/31 11:45:06.8	301.030	0.090	0.060	0.950
2020/01/31 11:45:06.9	301.000	0.090	0.060	0.990
2020/01/31 11:45:07.0	300.980	0.100	0.050	1.010
2020/01/31 11:45:07.1	300.950	0.100	0.050	1.040
2020/01/31 11:45:07.2	300.930	0.110	0.040	1.060
2020/01/31 11:45:07.3	300.910	0.110	0.040	1.080
2020/01/31 11:45:07.4	300.890	0.120	0.030	1.090
2020/01/31 11:45:07.5	300.850	0.120	0.020	1.100
2020/01/31 11:45:07.6	300.830	0.130	0.000	1.110
2020/01/31 11:45:07.7	300.820	0.130	-0.010	1.110
2020/01/31 11:45:07.8	300.800	0.130	-0.030	1.110
2020/01/31 11:45:07.9	300.790	0.140	-0.040	1.100
2020/01/31 11:45:08.0	300.780	0.140	-0.060	1.090
2020/01/31 11:45:08.1	300.770	0.150	-0.080	1.070
2020/01/31 11:45:08.2	300.760	0.150	-0.100	1.060
2020/01/31 11:45:08.3	300.760	0.160	-0.120	1.040
2020/01/31 11:45:08.4	300.750	0.160	-0.150	1.020
2020/01/31 11:45:08.5	300.740	0.170	-0.170	0.990
2020/01/31 11:45:08.6	300.740	0.170	-0.190	0.960
2020/01/31 11:45:08.7	300.740	0.180	-0.210	0.940
2020/01/31 11:45:08.8	300.740	0.180	-0.230	0.910
2020/01/31 11:45:08.9	300.740	0.190	-0.260	0.880
2020/01/31 11:45:09.0	300.740	0.190	-0.280	0.840
2020/01/31 11:45:09.1	300.740	0.200	-0.300	0.810
2020/01/31 11:45:09.2	300.740	0.200	-0.320	0.780
2020/01/31 11:45:09.3	300.750	0.210	-0.330	0.750
2020/01/31 11:45:09.4	300.750	0.210	-0.350	0.710
2020/01/31 11:45:09.5	300.760	0.220	-0.370	0.680
2020/01/31 11:45:09.6	300.760	0.220	-0.380	0.650
2020/01/31 11:45:09.7	300.770	0.220	-0.400	0.620
2020/01/31 11:45:09.8	300.770	0.220	-0.410	0.590
2020/01/31 11:45:09.9	300.780	0.230	-0.420	0.550
2020/01/31 11:45:10.0	300.790	0.230	-0.420	0.520
2020/01/31 11:45:10.1	300.800	0.230	-0.430	0.490
2020/01/31 11:45:10.2	300.800	0.230	-0.430	0.460
2020/01/31 11:45:10.3	300.810	0.220	-0.440	0.430
2020/01/31 11:45:10.4	300.820	0.220	-0.440	0.410
2020/01/31 11:45:10.5	300.830	0.220	-0.440	0.380
2020/01/31 11:45:10.6	300.840	0.210	-0.440	0.350
2020/01/31 11:45:10.7	300.840	0.200	-0.430	0.330
2020/01/31 11:45:10.8	300.850	0.200	-0.430	0.300
2020/01/31 11:45:10.9	300.850	0.190	-0.420	0.280
2020/01/31 11:45:11.0	300.860	0.180	-0.420	0.250
2020/01/31 11:45:11.1	300.860	0.170	-0.410	0.230
2020/01/31 11:45:11.2	300.870	0.150	-0.400	0.210
2020/01/31 11:45:11.3	300.870	0.140	-0.390	0.190
2020/01/31 11:45:11.4	300.870	0.130	-0.380	0.180
2020/01/31 11:45:11.5	300.870	0.110	-0.370	0.160
2020/01/31 11:45:11.6	300.870	0.100	-0.360	0.150
2020/01/31 11:45:11.7	300.870	0.080	-0.350	0.130
2020/01/31 11:45:11.8	300.870	0.070	-0.340	0.120
2020/01/31 11:45:11.9	300.870	0.050	-0.320	0.110
2020/01/31 11:45:12.0	300.870	0.030	-0.310	0.100
2020/01/31 11:45:12.1	300.870	0.020	-0.300	0.100
2020/01/31 11:45:12.2	300.870	0.000	-0.280	0.090
2020/01/31 11:45:12.3	300.870	-0.010	-0.270	0.090
2020/01/31 11:45:12.4	300.870	-0.030	-0.260	0.090
2020/01/31 11:45:12.5	300.870	-0.050	-0.250	0.090
2020/01/31 11:45:12.6	300.870	-0.060	-0.230	0.090
2020/01/31 11:45:12.7	300.870	-0.080	-0.220	0.090
2020/01/31 11:45:12.8	300.870	-0.090	-0.210	0.090
2020/01/31 11:45:12.9	300.870	-0.110	-0.210	0.100
2020/01/31 11:45:13.0	300.870	-0.120	-0.200	0.100
2020/01/31 11:45:13.1	300.860	-0.140	-0.190	0.110
2020/01/31 11:45:13.2	300.860	-0.150	-0.190	0.120
2020/01/31 11:45:13.3	300.860	-0.160	-0.190	0.120
2020/01/31 11:45:13.4	300.860	-0.170	-0.190	0.130
2020/01/31 11:45:13.5	300.860	-0.190	-0.190	0.150
2020/01/31 11:45:13.6	300.860	-0.200	-0.190	0.160
2020/01/31 11:45:13.7	300.860	-0.210	-0.190	0.170
2020/01/31 11:45:13.8	300.860	-0.220	-0.200	0.180
2020/01/31 11:45:13.9	300.870	-0.230	-0.200	0.190
2020/01/31 11:45:14.0	300.870	-0.240	-0.210	0.210
2020/01/31 11:45:14.1	300.870	-0.240	-0.210	0.220
2020/01/31 11:45:14.2	300.880	-0.250	-0.220	0.230
2020/01/31 11:45:14.3	300.880	-0.260	-0.230	0.250
2020/01/31 11:45:14.4	300.890	-0.270	-0.240	0.260
2020/01/31 11:45:14.5	300.890	-0.270	-0.240	0.270
2020/01/31 11:45:14.6	300.900	-0.280	-0.250	0.280
2020/01/31 11:45:14.7	300.900	-0.280	-0.260	0.300
2020/01/31 11:45:14.8	300.910	-0.290	-0.260	0.310
2020/01/31 11:45:14.9	300.920	-0.290	-0.270	0.320
2020/01/31 11:45:15.0	300.920	-0.290	-0.270	0.340
2020/01/31 11:45:15.1	300.920	-0.300	-0.270	0.350
2020/01/31 11:45:15.2	300.930	-0.300	-0.270	0.370
2020/01/31 11:45:15.3	300.930	-0.300	-0.270	0.390
2020/01/31 11:45:15.4	300.930	-0.300	-0.270	0.400
2020/01/31 11:45:15.5	300.940	-0.300	-0.260	0.430
2020/01/31 11:45:15.6	300.940	-0.290	-0.260	0.450
2020/01/31 11:45:15.7	300.940	-0.290	-0.250	0.470
2020/01/31 11:45:15.8	300.930	-0.290	-0.240	0.500
2020/01/31 11:45:15.9	300.930	-0.280	-0.230	0.530
2020/01/31 11:45:16.0	300.930	-0.280	-0.220	0.550
2020/01/31 11:45:16.1	300.920	-0.270	-0.210	0.580
2020/01/31 11:45:16.2	300.910	-0.260	-0.190	0.610
2020/01/31 11:45:16.3	300.900	-0.260	-0.180	0.640
2020/01/31 11:45:16.4	300.890	-0.250	-0.170	0.670
2020/01/31 11:45:16.5	300.890	-0.240	-0.160	0.700
2020/01/31 11:45:16.6	300.880	-0.230	-0.150	0.730
2020/01/31 11:45:16.7	300.860	-0.210	-0.140	0.760
2020/01/31 11:45:16.8	300.850	-0.200	-0.130	0.790
2020/01/31 11:45:16.9	300.840	-0.190	-0.130	0.820
2020/01/31 11:45:17.0	300.820	-0.170	-0.120	0.840
2020/01/31 11:45:17.1	300.810	-0.160	-0.120	0.870
2020/01/31 11:45:17.2	300.790	-0.140	-0.120	0.900
2020/01/31 11:45:17.3	300.770	-0.120	-0.120	0.930
2020/01/31 11:45:17.4	300.760	-0.100	-0.130	0.950
2020/01/31 11:45:17.5	300.730	-0.080	-0.130	0.980
2020/01/31 11:45:17.6	300.710	-0.060	-0.140	1.000
2020/01/31 11:45:17.7	300.690	-0.040	-0.150	1.030
2020/01/31 11:45:17.8	300.670	-0.020	-0.160	1.050
2020/01/31 11:45:17.9	300.640	0.000	-0.180	1.070
2020/01/31 11:45:18.0	300.620	0.030	-0.190	1.080
2020/01/31 11:45:18.1	300.600	0.050	-0.210	1.100
2020/01/31 11:45:18.2	300.580	0.070	-0.230	1.120
2020/01/31 11:45:18.3	300.560	0.100	-0.250	1.130
2020/01/31 11:45:18.4	300.540	0.120	-0.280	1.140
2020/01/31 11:45:18.5	300.510	0.140	-0.300	1.140
2020/01/31 11:45:18.6	300.500	0.170	-0.320	1.150
2020/01/31 11:45:18.7	300.480	0.190	-0.350	1.160
2020/01/31 11:45:18.8	300.460	0.210	-0.370	1.160
2020/01/31 11:45:18.9	300.440	0.230	-0.390	1.170
2020/01/31 11:45:19.0	300.430	0.250	-0.420	1.170
2020/01/31 11:45:19.1	300.410	0.270	-0.440	1.160
2020/01/31 11:45:19.2	300.400	0.290	-0.460	1.160
2020/01/31 11:45:19.3	300.390	0.300	-0.480	1.160
2020/01/31 11:45:19.4	300.370	0.320	-0.500	1.150
2020/01/31 11:45:19.5	300.360	0.330	-0.510	1.150
2020/01/31 11:45:19.6	300.350	0.340	-0.530	1.140
2020/01/31 11:45:19.7	300.340	0.350	-0.540	1.140
2020/01/31 11:45:19.8	300.330	0.360	-0.550	1.130
2020/01/31 11:45:19.9	300.320	0.370	-0.560	1.120
2020/01/31 11:45:20.0	300.320	0.370	-0.560	1.100
2020/01/31 11:45:20.1	300.310	0.370	-0.560	1.090
2020/01/31 11:45:20.2	300.300	0.370	-0.560	1.080
2020/01/31 11:45:20.3	300.300	0.370	-0.550	1.060
2020/01/31 11:45:20.4	300.290	0.370	-0.550	1.040
2020/01/31 11:45:20.5	300.300	0.360	-0.540	1.030
2020/01/31 11:45:20.6	300.290	0.350	-0.530	1.010
2020/01/31 11:45:20.7	300.290	0.340	-0.510	0.990
2020/01/31 11:45:20.8	300.290	0.330	-0.500	0.960
2020/01/31 11:45:20.9	300.290	0.320	-0.480	0.940
2020/01/31 11:45:21.0	300.290	0.310	-0.460	0.910
2020/01/31 11:45:21.1	300.290	0.290	-0.440	0.890
2020/01/31 11:45:21.2	300.300	0.270	-0.420	0.860
2020/01/31 11:45:21.3	300.300	0.250	-0.390	0.830
2020/01/31 11:45:21.4	300.310	0.230	-0.370	0.800
2020/01/31 11:45:21.5	300.310	0.210	-0.340	0.770
2020/01/31 11:45:21.6	300.320	0.190	-0.310	0.730
2020/01/31 11:45:21.7	300.330	0.170	-0.280	0.700
2020/01/31 11:45:21.8	300.330	0.140	-0.250	0.660
2020/01/31 11:45:21.9	300.340	0.120	-0.220	0.620
2020/01/31 11:45:22.0	300.350	0.090	-0.190	0.590
2020/01/31 11:45:22.1	300.360	0.070	-0.160	0.550
2020/01/31 11:45:22.2	300.370	0.040	-0.130	0.510
2020/01/31 11:45:22.3	300.390	0.020	-0.100	0.480
2020/01/31 11:45:22.4	300.400	-0.010	-0.070	0.440
2020/01/31 11:45:22.5	300.410	-0.030	-0.050	0.400
2020/01/31 11:45:22.6	300.430	-0.060	-0.020	0.370
2020/01/31 11:45:22.7	300.440	-0.080	0.010	0.330
2020/01/31 11:45:22.8	300.460	-0.100	0.040	0.300
2020/01/31 11:45:22.9	300.470	-0.130	0.060	0.260
2020/01/31 11:45:23.0	300.490	-0.150	0.090	0.230
2020/01/31 11:45:23.1	300.510	-0.170	0.110	0.200
2020/01/31 11:45:23.2	300.520	-0.190	0.130	0.170
2020/01/31 11:45:23.3	300.540	-0.200	0.150	0.140
2020/01/31 11:45:23.4	300.560	-0.220	0.170	0.120
2020/01/31 11:45:23.5	300.580	-0.240	0.180	0.090
2020/01/31 11:45:23.6	300.590	-0.250	0.200	0.070
2020/01/31 11:45:23.7	300.610	-0.260	0.210	0.050
2020/01/31 11:45:23.8	300.630	-0.270	0.220	0.030
2020/01/31 11:45:23.9	300.640	-0.280	0.230	0.020
2020/01/31 11:45:24.0	300.660	-0.290	0.240	0.010
2020/01/31 11:45:24.1	300.670	-0.300	0.240	-0.000
2020/01/31 11:45:24.2	300.680	-0.300	0.240	-0.010
2020/01/31 11:45:24.3	300.700	-0.300	0.240	-0.010
2020/01/31 11:45:24.4	300.710	-0.300	0.240	-0.010
2020/01/31 11:45:24.5	300.710	-0.300	0.240	-0.010
2020/01/31 11:45:24.6	300.720	-0.300	0.230	-0.010
2020/01/31 11:45:24.7	300.730	-0.300	0.220	0.000
2020/01/31 11:45:24.8	300.740	-0.290	0.210	0.010
2020/01/31 11:45:24.9	300.750	-0.290	0.200	0.030
2020/01/31 11:45:25.0	300.760	-0.280	0.190	0.040
2020/01/31 11:45:25.1	300.760	-0.270	0.170	0.060
2020/01/31 11:45:25.2	300.770	-0.260	0.160	0.080
2020/01/31 11:45:25.3	300.770	-0.240	0.140	0.100
2020/01/31 11:45:25.4	300.770	-0.230	0.120	0.130
2020/01/31 11:45:25.5	300.770	-0.220	0.100	0.160
2020/01/31 11:45:25.6	300.770	-0.200	0.080	0.190
2020/01/31 11:45:25.7	300.770	-0.180	0.050	0.220
2020/01/31 11:45:25.8	300.760	-0.160	0.030	0.250
2020/01/31 11:45:25.9	300.760	-0.150	0.000	0.290
2020/01/31 11:45:26.0	300.750	-0.130	-0.020	0.320
2020/01/31 11:45:26.1	300.740	-0.110	-0.050	0.360
2020/01/31 11:45:26.2	300.730	-0.090	-0.070	0.390
2020/01/31 11:45:26.3	300.720	-0.070	-0.100	0.430
2020/01/31 11:45:26.4	300.710	-0.050	-0.130	0.470
2020/01/31 11:45:26.5	300.690	-0.020	-0.150	0.500
2020/01/31 11:45:26.6	300.680	-0.000	-0.180	0.540
2020/01/31 11:45:26.7	300.660	0.020	-0.210	0.570
2020/01/31 11:45:26.8	300.650	0.040	-0.230	0.610
2020/01/31 11:45:26.9	300.630	0.060	-0.260	0.650
2020/01/31 11:45:27.0	300.610	0.080	-0.280	0.680
2020/01/31 11:45:27.1	300.600	0.100	-0.310	0.710
2020/01/31 11:45:27.2	300.580	0.120	-0.340	0.740
2020/01/31 11:45:27.3	300.560	0.130	-0.360	0.780
2020/01/31 11:45:27.4	300.540	0.150	-0.390	0.800
2020/01/31 11:45:27.5	300.530	0.170	-0.410	0.840
2020/01/31 11:45:27.6	300.510	0.180	-0.440	0.860
2020/01/31 11:45:27.7	300.490	0.200	-0.460	0.880
2020/01/31 11:45:27.8	300.480	0.210	-0.490	0.900
2020/01/31 11:45:27.9	300.460	0.220	-0.510	0.920
2020/01/31 11:45:28.0	300.450	0.230	-0.540	0.930
2020/01/31 11:45:28.1	300.430	0.240	-0.560	0.950
2020/01/31 11:45:28.2	300.420	0.250	-0.590	0.960
2020/01/31 11:45:28.3	300.410	0.260	-0.610	0.970
2020/01/31 11:45:28.4	300.400	0.270	-0.640	0.970
2020/01/31 11:45:28.5	300.380	0.270	-0.660	0.980
2020/01/31 11:45:28.6	300.380	0.280	-0.680	0.980
2020/01/31 11:45:28.7	300.370	0.280	-0.710	0.980
2020/01/31 11:45:28.8	300.360	0.280	-0.730	0.980
2020/01/31 11:45:28.9	300.360	0.280	-0.750	0.970
2020/01/31 11:45:29.0	300.350	0.280	-0.770	0.970
2020/01/31 11:45:29.1	300.350	0.280	-0.780	0.960
2020/01/31 11:45:29.2	300.350	0.280	-0.800	0.950
2020/01/31 11:45:29.3	300.340	0.280	-0.810	0.950
2020/01/31 11:45:29.4	300.340	0.270	-0.820	0.940
2020/01/31 11:45:29.5	300.350	0.270	-0.840	0.930
2020/01/31 11:45:29.6	300.340	0.260	-0.840	0.920
2020/01/31 11:45:29.7	300.340	0.250	-0.850	0.910
2020/01/31 11:45:29.8	300.340	0.240	-0.850	0.900
2020/01/31 11:45:29.9	300.340	0.230	-0.850	0.890
2020/01/31 11:45:30.0	300.340	0.220	-0.840	0.880
2020/01/31 11:45:30.1	300.340	0.210	-0.840	0.870
2020/01/31 11:45:30.2	300.340	0.200	-0.830	0.860
2020/01/31 11:45:30.3	300.340	0.190	-0.820	0.850
2020/01/31 11:45:30.4	300.340	0.180	-0.800	0.840
2020/01/31 11:45:30.5	300.350	0.160	-0.790	0.830
2020/01/31 11:45:30.6	300.350	0.150	-0.770	0.820
2020/01/31 11:45:30.7	300.350	0.130	-0.750	0.810
2020/01/31 11:45:30.8	300.350	0.120	-0.730	0.790
2020/01/31 11:45:30.9	300.350	0.100	-0.710	0.780
2020/01/31 11:45:31.0	300.350	0.090	-0.680	0.760
2020/01/31 11:45:31.1	300.350	0.070	-0.660	0.750
2020/01/31 11:45:31.2	300.360	0.060	-0.630	0.730
2020/01/31 11:45:31.3	300.360	0.040	-0.600	0.710
2020/01/31 11:45:31.4	300.360	0.020	-0.570	0.700
2020/01/31 11:45:31.5	300.360	0.010	-0.540	0.680
2020/01/31 11:45:31.6	300.370	-0.010	-0.510	0.660
2020/01/31 11:45:31.7	300.370	-0.030	-0.470	0.640
2020/01/31 11:45:31.8	300.370	-0.040	-0.440	0.620
2020/01/31 11:45:31.9	300.380	-0.060	-0.410	0.600
2020/01/31 11:45:32.0	300.380	-0.080	-0.370	0.590
2020/01/31 11:45:32.1	300.380	-0.100	-0.340	0.570
2020/01/31 11:45:32.2	300.390	-0.110	-0.300	0.550
2020/01/31 11:45:32.3	300.390	-0.130	-0.260	0.540
2020/01/31 11:45:32.4	300.400	-0.150	-0.230	0.520
2020/01/31 11:45:32.5	300.400	-0.170	-0.190	0.510
2020/01/31 11:45:32.6	300.400	-0.190	-0.160	0.500
2020/01/31 11:45:32.7	300.400	-0.210	-0.120	0.490
2020/01/31 11:45:32.8	300.410	-0.220	-0.090	0.480
2020/01/31 11:45:32.9	300.410	-0.240	-0.050	0.470
2020/01/31 11:45:33.0	300.410	-0.260	-0.020	0.470
2020/01/31 11:45:33.1	300.410	-0.280	0.020	0.460
2020/01/31 11:45:33.2	300.410	-0.300	0.050	0.460
2020/01/31 11:45:33.3	300.410	-0.310	0.080	0.460
2020/01/31 11:45:33.4	300.400	-0.330	0.110	0.460
2020/01/31 11:45:33.5	300.400	-0.350	0.140	0.460
2020/01/31 11:45:33.6	300.400	-0.360	0.170	0.460
2020/01/31 11:45:33.7	300.390	-0.380	0.200	0.460
2020/01/31 11:45:33.8	300.390	-0.390	0.230	0.460
2020/01/31 11:45:33.9	300.380	-0.410	0.250	0.460
2020/01/31 11:45:34.0	300.370	-0.420	0.270	0.470
2020/01/31 11:45:34.1	300.360	-0.430	0.300	0.470
2020/01/31 11:45:34.2	300.360	-0.450	0.320	0.480
2020/01/31 11:45:34.3	300.350	-0.460	0.330	0.490
2020/01/31 11:45:34.4	300.340	-0.460	0.350	0.490
2020/01/31 11:45:34.5	300.330	-0.470	0.360	0.500
2020/01/31 11:45:34.6	300.320	-0.480	0.380	0.510
2020/01/31 11:45:34.7	300.310	-0.480	0.390	0.520
2020/01/31 11:45:34.8	300.300	-0.480	0.400	0.530
2020/01/31 11:45:34.9	300.290	-0.480	0.400	0.540
2020/01/31 11:45:35.0	300.280	-0.480	0.410	0.550
2020/01/31 11:45:35.1	300.270	-0.480	0.410	0.560
2020/01/31 11:45:35.2	300.260	-0.480	0.410	0.560
2020/01/31 11:45:35.3	300.250	-0.470	0.410	0.570
2020/01/31 11:45:35.4	300.240	-0.460	0.400	0.580
2020/01/31 11:45:35.5	300.220	-0.450	0.400	0.580
2020/01/31 11:45:35.6	300.210	-0.440	0.390	0.590
2020/01/31 11:45:35.7	300.210	-0.430	0.380	0.600
2020/01/31 11:45:35.8	300.200	-0.410	0.370	0.600
2020/01/31 11:45:35.9	300.190	-0.400	0.350	0.600
2020/01/31 11:45:36.0	300.180	-0.380	0.330	0.610
2020/01/31 11:45:36.1	300.170	-0.360	0.310	0.610
2020/01/31 11:45:36.2	300.170	-0.340	0.290	0.610
2020/01/31 11:45:36.3	300.160	-0.320	0.260	0.610
2020/01/31 11:45:36.4	300.160	-0.300	0.240	0.610
2020/01/31 11:45:36.5	300.150	-0.270	0.210	0.610
2020/01/31 11:45:36.6	300.150	-0.250	0.170	0.610
2020/01/31 11:45:36.7	300.140	-0.220	0.140	0.600
2020/01/31 11:45:36.8	300.140	-0.200	0.110	0.600
2020/01/31 11:45:36.9	300.140	-0.170	0.070	0.590
2020/01/31 11:45:37.0	300.140	-0.140	0.040	0.590
2020/01/31 11:45:37.1	300.140	-0.120	-0.000	0.580
2020/01/31 11:45:37.2	300.140	-0.090	-0.040	0.580
2020/01/31 11:45:37.3	300.140	-0.060	-0.070	0.570
2020/01/31 11:45:37.4	300.150	-0.030	-0.110	0.560
2020/01/31 11:45:37.5	300.160	-0.010	-0.150	0.560
2020/01/31 11:45:37.6	300.160	0.020	-0.190	0.550
2020/01/31 11:45:37.7	300.170	0.050	-0.230	0.550
2020/01/31 11:45:37.8	300.170	0.080	-0.260	0.540
2020/01/31 11:45:37.9	300.180	0.100	-0.290	0.540
2020/01/31 11:45:38.0	300.190	0.130	-0.330	0.540
2020/01/31 11:45:38.1	300.200	0.160	-0.360	0.540
2020/01/31 11:45:38.2	300.210	0.180	-0.380	0.540
2020/01/31 11:45:38.3	300.220	0.210	-0.410	0.540
2020/01/31 11:45:38.4	300.230	0.230	-0.430	0.540
2020/01/31 11:45:38.5	300.230	0.250	-0.450	0.550
2020/01/31 11:45:38.6	300.240	0.270	-0.470	0.550
2020/01/31 11:45:38.7	300.250	0.300	-0.490	0.560
2020/01/31 11:45:38.8	300.260	0.320	-0.510	0.570
2020/01/31 11:45:38.9	300.270	0.340	-0.520	0.580
2020/01/31 11:45:39.0	300.280	0.350	-0.530	0.590
2020/01/31 11:45:39.1	300.290	0.370	-0.540	0.600
2020/01/31 11:45:39.2	300.300	0.390	-0.550	0.620
2020/01/31 11:45:39.3	300.310	0.400	-0.550	0.630
2020/01/31 11:45:39.4	300.320	0.420	-0.560	0.650
2020/01/31 11:45:39.5	300.330	0.430	-0.560	0.670
2020/01/31 11:45:39.6	300.340	0.440	-0.570	0.680
2020/01/31 11:45:39.7	300.350	0.450	-0.570	0.700
2020/01/31 11:45:39.8	300.350	0.460	-0.570	0.720
2020/01/31 11:45:39.9	300.360	0.470	-0.570	0.740
2020/01/31 11:45:40.0	300.370	0.480	-0.570	0.760
2020/01/31 11:45:40.1	300.380	0.480	-0.570	0.780
2020/01/31 11:45:40.2	300.380	0.490	-0.580	0.800
2020/01/31 11:45:40.3	300.390	0.490	-0.580	0.820
2020/01/31 11:45:40.4	300.400	0.490	-0.580	0.830
2020/01/31 11:45:40.5	300.400	0.500	-0.590	0.850
2020/01/31 11:45:40.6	300.410	0.500	-0.590	0.870
2020/01/31 11:45:40.7	300.410	0.490	-0.590	0.880
2020/01/31 11:45:40.8	300.420	0.490	-0.600	0.890
2020/01/31 11:45:40.9	300.430	0.490	-0.600	0.900
2020/01/31 11:45:41.0	300.440	0.480	-0.610	0.910
2020/01/31 11:45:41.1	300.440	0.480	-0.610	0.920
2020/01/31 11:45:41.2	300.450	0.470	-0.620	0.930
2020/01/31 11:45:41.3	300.450	0.460	-0.630	0.940
2020/01/31 11:45:41.4	300.460	0.450	-0.630	0.940
2020/01/31 11:45:41.5	300.460	0.440	-0.630	0.940
2020/01/31 11:45:41.6	300.460	0.430	-0.640	0.950
2020/01/31 11:45:41.7	300.460	0.420	-0.650	0.950
2020/01/31 11:45:41.8	300.460	0.400	-0.650	0.950
2020/01/31 11:45:41.9	300.460	0.390	-0.650	0.960
2020/01/31 11:45:42.0	300.460	0.370	-0.650	0.960
2020/01/31 11:45:42.1	300.460	0.350	-0.660	0.960
2020/01/31 11:45:42.2	300.450	0.330	-0.650	0.960
2020/01/31 11:45:42.3	300.440	0.310	-0.650	0.970
2020/01/31 11:45:42.4	300.440	0.290	-0.650	0.970
2020/01/31 11:45:42.5	300.430	0.270	-0.640	0.980
2020/01/31 11:45:42.6	300.420	0.250	-0.630	0.980
2020/01/31 11:45:42.7	300.400	0.230	-0.620	0.980
2020/01/31 11:45:42.8	300.390	0.200	-0.610	0.990
2020/01/31 11:45:42.9	300.380	0.180	-0.590	0.990
2020/01/31 11:45:43.0	300.360	0.150	-0.570	0.990
2020/01/31 11:45:43.1	300.350	0.130	-0.550	0.990
2020/01/31 11:45:43.2	300.330	0.100	-0.530	0.990
2020/01/31 11:45:43.3	300.320	0.070	-0.510	0.990
2020/01/31 11:45:43.4	300.300	0.050	-0.480	0.990
2020/01/31 11:45:43.5	300.280	0.020	-0.460	0.990
2020/01/31 11:45:43.6	300.260	-0.010	-0.430	0.990
2020/01/31 11:45:43.7	300.240	-0.040	-0.400	0.980
2020/01/31 11:45:43.8	300.220	-0.060	-0.370	0.970
2020/01/31 11:45:43.9	300.200	-0.090	-0.330	0.970
2020/01/31 11:45:44.0	300.180	-0.120	-0.300	0.960
2020/01/31 11:45:44.1	300.160	-0.140	-0.260	0.950
2020/01/31 11:45:44.2	300.140	-0.170	-0.230	0.940
2020/01/31 11:45:44.3	300.120	-0.200	-0.190	0.930
2020/01/31 11:45:44.4	300.100	-0.220	-0.160	0.920
2020/01/31 11:45:44.5	300.090	-0.240	-0.120	0.920
2020/01/31 11:45:44.6	300.060	-0.270	-0.090	0.910
2020/01/31 11:45:44.7	300.040	-0.290	-0.050	0.890
2020/01/31 11:45:44.8	300.020	-0.310	-0.020	0.880
2020/01/31 11:45:44.9	300.000	-0.330	0.010	0.870
2020/01/31 11:45:45.0	299.980	-0.350	0.050	0.860
2020/01/31 11:45:45.1	299.960	-0.360	0.080	0.850
2020/01/31 11:45:45.2	299.940	-0.380	0.100	0.830
2020/01/31 11:45:45.3	299.920	-0.390	0.130	0.820
2020/01/31 11:45:45.4	299.910	-0.400	0.150	0.810
2020/01/31 11:45:45.5	299.890	-0.410	0.170	0.790
2020/01/31 11:45:45.6	299.870	-0.420	0.190	0.780
2020/01/31 11:45:45.7	299.860	-0.430	0.210	0.760
2020/01/31 11:45:45.8	299.850	-0.440	0.230	0.740
2020/01/31 11:45:45.9	299.840	-0.440	0.240	0.730
2020/01/31 11:45:46.0	299.830	-0.440	0.250	0.710
2020/01/31 11:45:46.1	299.820	-0.440	0.250	0.690
2020/01/31 11:45:46.2	299.810	-0.440	0.250	0.670
2020/01/31 11:45:46.3	299.800	-0.440	0.250	0.650
2020/01/31 11:45:46.4	299.800	-0.430	0.240	0.620
2020/01/31 11:45:46.5	299.800	-0.430	0.230	0.600
2020/01/31 11:45:46.6	299.800	-0.420	0.220	0.580
2020/01/31 11:45:46.7	299.790	-0.410	0.210	0.560
2020/01/31 11:45:46.8	299.790	-0.400	0.190	0.530
2020/01/31 11:45:46.9	299.800	-0.390	0.170	0.510
2020/01/31 11:45:47.0	299.800	-0.370	0.150	0.490
2020/01/31 11:45:47.1	299.800	-0.360	0.120	0.470
2020/01/31 11:45:47.2	299.800	-0.340	0.090	0.450
2020/01/31 11:45:47.3	299.800	-0.320	0.060	0.430
2020/01/31 11:45:47.4	299.810	-0.300	0.030	0.410
2020/01/31 11:45:47.5	299.820	-0.290	-0.000	0.390
2020/01/31 11:45:47.6	299.820	-0.270	-0.030	0.370
2020/01/31 11:45:47.7	299.830	-0.240	-0.070	0.350
2020/01/31 11:45:47.8	299.840	-0.220	-0.100	0.330
2020/01/31 11:45:47.9	299.840	-0.200	-0.130	0.310
2020/01/31 11:45:48.0	299.850	-0.180	-0.160	0.300
2020/01/31 11:45:48.1	299.860	-0.160	-0.190	0.280
2020/01/31 11:45:48.2	299.870	-0.140	-0.220	0.260
2020/01/31 11:45:48.3	299.880	-0.120	-0.240	0.250
2020/01/31 11:45:48.4	299.900	-0.100	-0.270	0.230
2020/01/31 11:45:48.5	299.900	-0.080	-0.290	0.220
2020/01/31 11:45:48.6	299.920	-0.060	-0.310	0.210
2020/01/31 11:45:48.7	299.930	-0.040	-0.320	0.190
2020/01/31 11:45:48.8	299.950	-0.020	-0.340	0.180
2020/01/31 11:45:48.9	299.960	0.000	-0.350	0.170
2020/01/31 11:45:49.0	299.980	0.020	-0.360	0.150
2020/01/31 11:45:49.1	300.000	0.030	-0.370	0.140
2020/01/31 11:45:49.2	300.020	0.050	-0.370	0.120
2020/01/31 11:45:49.3	300.030	0.060	-0.370	0.110
2020/01/31 11:45:49.4	300.060	0.070	-0.370	0.100
2020/01/31 11:45:49.5	300.070	0.080	-0.370	0.090
2020/01/31 11:45:49.6	300.100	0.090	-0.360	0.070
2020/01/31 11:45:49.7	300.120	0.100	-0.360	0.060
2020/01/31 11:45:49.8	300.140	0.110	-0.350	0.050
2020/01/31 11:45:49.9	300.170	0.110	-0.340	0.040
2020/01/31 11:45:50.0	300.190	0.120	-0.330	0.030
2020/01/31 11:45:50.1	300.220	0.120	-0.320	0.020
2020/01/31 11:45:50.2	300.240	0.130	-0.300	0.010
2020/01/31 11:45:50.3	300.270	0.130	-0.290	-0.000
2020/01/31 11:45:50.4	300.290	0.130	-0.280	-0.010
2020/01/31 11:45:50.5	300.320	0.130	-0.260	-0.010
2020/01/31 11:45:50.6	300.350	0.120	-0.250	-0.020
2020/01/31 11:45:50.7	300.370	0.120	-0.230	-0.020
2020/01/31 11:45:50.8	300.400	0.120	-0.220	-0.030
2020/01/31 11:45:50.9	300.420	0.110	-0.200	-0.030
2020/01/31 11:45:51.0	300.440	0.110	-0.190	-0.030
2020/01/31 11:45:51.1	300.470	0.110	-0.180	-0.030
2020/01/31 11:45:51.2	300.490	0.100	-0.170	-0.030
2020/01/31 11:45:51.3	300.510	0.090	-0.150	-0.030
2020/01/31 11:45:51.4	300.530	0.090	-0.140	-0.020
2020/01/31 11:45:51.5	300.550	0.080	-0.140	-0.020
2020/01/31 11:45:51.6	300.570	0.080	-0.130	-0.010
2020/01/31 11:45:51.7	300.590	0.070	-0.120	0.000
2020/01/31 11:45:51.8	300.600	0.070	-0.110	0.010
2020/01/31 11:45:51.9	300.620	0.060	-0.100	0.030
2020/01/31 11:45:52.0	300.630	0.060	-0.100	0.040
2020/01/31 11:45:52.1	300.640	0.050	-0.090	0.060
2020/01/31 11:45:52.2	300.650	0.050	-0.090	0.080
2020/01/31 11:45:52.3	300.650	0.050	-0.090	0.100
2020/01/31 11:45:52.4	300.660	0.040	-0.090	0.130
2020/01/31 11:45:52.5	300.670	0.040	-0.090	0.160
2020/01/31 11:45:52.6	300.670	0.040	-0.090	0.180
2020/01/31 11:45:52.7	300.670	0.040	-0.100	0.220
2020/01/31 11:45:52.8	300.670	0.040	-0.100	0.250
2020/01/31 11:45:52.9	300.670	0.040	-0.110	0.280
2020/01/31 11:45:53.0	300.660	0.040	-0.120	0.320
2020/01/31 11:45:53.1	300.650	0.040	-0.130	0.360
2020/01/31 11:45:53.2	300.650	0.040	-0.140	0.400
2020/01/31 11:45:53.3	300.640	0.040	-0.160	0.430
2020/01/31 11:45:53.4	300.630	0.040	-0.180	0.470
2020/01/31 11:45:53.5	300.630	0.050	-0.200	0.520
2020/01/31 11:45:53.6	300.620	0.050	-0.220	0.550
2020/01/31 11:45:53.7	300.600	0.050	-0.240	0.590
2020/01/31 11:45:53.8	300.590	0.060	-0.270	0.630
2020/01/31 11:45:53.9	300.580	0.060	-0.290	0.670
2020/01/31 11:45:54.0	300.560	0.070	-0.320	0.700
2020/01/31 11:45:54.1	300.550	0.070	-0.350	0.730
2020/01/31 11:45:54.2	300.530	0.070	-0.380	0.770
2020/01/31 11:45:54.3	300.520	0.080	-0.410	0.800
2020/01/31 11:45:54.4	300.500	0.080	-0.430	0.830
2020/01/31 11:45:54.5	300.490	0.090	-0.460	0.860
2020/01/31 11:45:54.6	300.470	0.090	-0.490	0.890
2020/01/31 11:45:54.7	300.450	0.100	-0.510	0.910
2020/01/31 11:45:54.8	300.440	0.100	-0.540	0.940
2020/01/31 11:45:54.9	300.420	0.100	-0.560	0.970
2020/01/31 11:45:55.0	300.400	0.110	-0.580	0.990
2020/01/31 11:45:55.1	300.380	0.110	-0.590	1.020
2020/01/31 11:45:55.2	300.360	0.120	-0.610	1.040
2020/01/31 11:45:55.3	300.340	0.120	-0.620	1.060
2020/01/31 11:45:55.4	300.320	0.120	-0.630	1.080
2020/01/31 11:45:55.5	300.300	0.120	-0.630	1.100
2020/01/31 11:45:55.6	300.280	0.120	-0.630	1.120
2020/01/31 11:45:55.7	300.260	0.130	-0.630	1.140
2020/01/31 11:45:55.8	300.240	0.130	-0.620	1.160
2020/01/31 11:45:55.9	300.220	0.130	-0.610	1.180
2020/01/31 11:45:56.0	300.200	0.130	-0.600	1.190
2020/01/31 11:45:56.1	300.180	0.120	-0.590	1.210
2020/01/31 11:45:56.2	300.170	0.120	-0.570	1.220
2020/01/31 11:45:56.3	300.150	0.120	-0.550	1.230
2020/01/31 11:45:56.4	300.140	0.120	-0.530	1.240
2020/01/31 11:45:56.5	300.130	0.120	-0.510	1.250
2020/01/31 11:45:56.6	300.120	0.110	-0.480	1.260
2020/01/31 11:45:56.7	300.110	0.110	-0.450	1.260
2020/01/31 11:45:56.8	300.090	0.110	-0.430	1.270
2020/01/31 11:45:56.9	300.080	0.100	-0.400	1.270
2020/01/31 11:45:57.0	300.070	0.100	-0.370	1.270
2020/01/31 11:45:57.1	300.060	0.100	-0.340	1.270
2020/01/31 11:45:57.2	300.060	0.100	-0.310	1.260
2020/01/31 11:45:57.3	300.050	0.090	-0.280	1.260
2020/01/31 11:45:57.4	300.040	0.090	-0.250	1.250
2020/01/31 11:45:57.5	300.040	0.090	-0.220	1.240
2020/01/31 11:45:57.6	300.030	0.090	-0.190	1.230
2020/01/31 11:45:57.7	300.030	0.080	-0.170	1.220
2020/01/31 11:45:57.8	300.030	0.080	-0.140	1.210
2020/01/31 11:45:57.9	300.030	0.080	-0.120	1.200
2020/01/31 11:45:58.0	300.030	0.080	-0.090	1.190
2020/01/31 11:45:58.1	300.030	0.080	-0.070	1.170
2020/01/31 11:45:58.2	300.030	0.080	-0.050	1.150
2020/01/31 11:45:58.3	300.040	0.080	-0.040	1.140
2020/01/31 11:45:58.4	300.040	0.070	-0.020	1.120
2020/01/31 11:45:58.5	300.050	0.070	-0.010	1.100
2020/01/31 11:45:58.6	300.050	0.070	-0.000	1.070
2020/01/31 11:45:58.7	300.060	0.070	0.010	1.050
2020/01/31 11:45:58.8	300.070	0.070	0.010	1.020
2020/01/31 11:45:58.9	300.080	0.070	0.020	1.000
2020/01/31 11:45:59.0	300.090	0.060	0.020	0.970
2020/01/31 11:45:59.1	300.100	0.060	0.020	0.940
2020/01/31 11:45:59.2	300.110	0.060	0.010	0.910
2020/01/31 11:45:59.3	300.120	0.050	0.010	0.880
2020/01/31 11:45:59.4	300.130	0.050	0.000	0.840
2020/01/31 11:45:59.5	300.160	0.040	-0.000	0.810
2020/01/31 11:45:59.6	300.170	0.030	-0.010	0.770
2020/01/31 11:45:59.7	300.180	0.030	-0.020	0.740
2020/01/31 11:45:59.8	300.190	0.020	-0.030	0.700
2020/01/31 11:45:59.9	300.190	0.010	-0.040	0.660
2020/01/31 11:46:00.0	300.200	-0.010	-0.050	0.620
2020/01/31 11:46:00.1	300.210	-0.020	-0.060	0.580
2020/01/31 11:46:00.2	300.220	-0.030	-0.070	0.540
2020/01/31 11:46:00.3	300.230	-0.040	-0.080	0.500
2020/01/31 11:46:00.4	300.240	-0.060	-0.090	0.460
2020/01/31 11:46:00.5	300.250	-0.070	-0.100	0.420
2020/01/31 11:46:00.6	300.250	-0.090	-0.110	0.380
2020/01/31 11:46:00.7	300.260	-0.100	-0.120	0.340
2020/01/31 11:46:00.8	300.270	-0.120	-0.130	0.290
2020/01/31 11:46:00.9	300.280	-0.140	-0.130	0.250
2020/01/31 11:46:01.0	300.290	-0.150	-0.140	0.210
2020/01/31 11:46:01.1	300.300	-0.170	-0.150	0.170
2020/01/31 11:46:01.2	300.310	-0.190	-0.160	0.130
2020/01/31 11:46:01.3	300.320	-0.200	-0.170	0.090
2020/01/31 11:46:01.4	300.330	-0.220	-0.170	0.050
2020/01/31 11:46:01.5	300.340	-0.230	-0.180	0.010
2020/01/31 11:46:01.6	300.350	-0.240	-0.190	-0.030
2020/01/31 11:46:01.7	300.370	-0.250	-0.200	-0.070
2020/01/31 11:46:01.8	300.380	-0.270	-0.210	-0.110
2020/01/31 11:46:01.9	300.390	-0.270	-0.220	-0.140
2020/01/31 11:46:02.0	300.410	-0.280	-0.230	-0.180
2020/01/31 11:46:02.1	300.420	-0.290	-0.240	-0.220
2020/01/31 11:46:02.2	300.440	-0.300	-0.260	-0.250
2020/01/31 11:46:02.3	300.450	-0.300	-0.270	-0.290
2020/01/31 11:46:02.4	300.470	-0.300	-0.290	-0.320
2020/01/31 11:46:02.5	300.490	-0.300	-0.300	-0.350
2020/01/31 11:46:02.6	300.510	-0.300	-0.320	-0.370
2020/01/31 11:46:02.7	300.520	-0.300	-0.330	-0.400
2020/01/31 11:46:02.8	300.540	-0.300	-0.350	-0.430
2020/01/31 11:46:02.9	300.550	-0.290	-0.370	-0.450
2020/01/31 11:46:03.0	300.570	-0.280	-0.390	-0.470
2020/01/31 11:46:03.1	300.580	-0.280	-0.410	-0.480
2020/01/31 11:46:03.2	300.600	-0.270	-0.420	-0.500
2020/01/31 11:46:03.3	300.610	-0.260	-0.440	-0.510
2020/01/31 11:46:03.4	300.630	-0.250	-0.460	-0.520
2020/01/31 11:46:03.5	300.640	-0.230	-0.480	-0.520
2020/01/31 11:46:03.6	300.660	-0.220	-0.500	-0.520
2020/01/31 11:46:03.7	300.670	-0.210	-0.510	-0.520
2020/01/31 11:46:03.8	300.680	-0.190	-0.530	-0.510
2020/01/31 11:46:03.9	300.700	-0.180	-0.540	-0.500
2020/01/31 11:46:04.0	300.710	-0.160	-0.560	-0.490
2020/01/31 11:46:04.1	300.720	-0.150	-0.570	-0.470
2020/01/31 11:46:04.2	300.730	-0.130	-0.570	-0.450
2020/01/31 11:46:04.3	300.740	-0.110	-0.580	-0.420
2020/01/31 11:46:04.4	300.740	-0.100	-0.580	-0.390
2020/01/31 11:46:04.5	300.770	-0.080	-0.580	-0.360
2020/01/31 11:46:04.6	300.770	-0.060	-0.580	-0.320
2020/01/31 11:46:04.7	300.780	-0.050	-0.570	-0.280
2020/01/31 11:46:04.8	300.780	-0.030	-0.570	-0.240
2020/01/31 11:46:04.9	300.780	-0.020	-0.550	-0.190
2020/01/31 11:46:05.0	300.780	-0.000	-0.540	-0.140
2020/01/31 11:46:05.1	300.780	0.010	-0.520	-0.080
2020/01/31 11:46:05.2	300.780	0.020	-0.500	-0.030
2020/01/31 11:46:05.3	300.770	0.040	-0.470	0.030
2020/01/31 11:46:05.4	300.770	0.050	-0.440	0.090
2020/01/31 11:46:05.5	300.780	0.060	-0.410	0.160
2020/01/31 11:46:05.6	300.770	0.070	-0.380	0.220
2020/01/31 11:46:05.7	300.760	0.080	-0.340	0.290
2020/01/31 11:46:05.8	300.750	0.080	-0.300	0.350
2020/01/31 11:46:05.9	300.750	0.090	-0.260	0.420
2020/01/31 11:46:06.0	300.740	0.100	-0.220	0.480
2020/01/31 11:46:06.1	300.730	0.100	-0.180	0.540
2020/01/31 11:46:06.2	300.720	0.110	-0.140	0.610
2020/01/31 11:46:06.3	300.710	0.110	-0.100	0.670
2020/01/31 11:46:06.4	300.700	0.110	-0.060	0.730
2020/01/31 11:46:06.5	300.680	0.120	-0.020	0.790
2020/01/31 11:46:06.6	300.670	0.120	0.020	0.850
2020/01/31 11:46:06.7	300.660	0.120	0.050	0.910
2020/01/31 11:46:06.8	300.650	0.120	0.090	0.960
2020/01/31 11:46:06.9	300.640	0.120	0.120	1.010
2020/01/31 11:46:07.0	300.630	0.120	0.140	1.060
2020/01/31 11:46:07.1	300.620	0.110	0.170	1.110
2020/01/31 11:46:07.2	300.610	0.110	0.190	1.150
2020/01/31 11:46:07.3	300.600	0.110	0.210	1.190
2020/01/31 11:46:07.4	300.590	0.110	0.220	1.230
2020/01/31 11:46:07.5	300.570	0.110	0.230	1.270
2020/01/31 11:46:07.6	300.560	0.110	0.240	1.300
2020/01/31 11:46:07.7	300.550	0.110	0.250	1.330
2020/01/31 11:46:07.8	300.540	0.100	0.250	1.350
2020/01/31 11:46:07.9	300.530	0.100	0.240	1.370
2020/01/31 11:46:08.0	300.530	0.100	0.240	1.380
2020/01/31 11:46:08.1	300.520	0.100	0.230	1.400
2020/01/31 11:46:08.2	300.510	0.100	0.220	1.400
2020/01/31 11:46:08.3	300.510	0.100	0.200	1.410
2020/01/31 11:46:08.4	300.510	0.100	0.180	1.410
2020/01/31 11:46:08.5	300.500	0.100	0.170	1.400
2020/01/31 11:46:08.6	300.500	0.100	0.150	1.390
2020/01/31 11:46:08.7	300.490	0.110	0.120	1.380
2020/01/31 11:46:08.8	300.490	0.110	0.100	1.370
2020/01/31 11:46:08.9	300.490	0.110	0.070	1.360
2020/01/31 11:46:09.0	300.490	0.110	0.040	1.340
2020/01/31 11:46:09.1	300.480	0.110	0.020	1.320
2020/01/31 11:46:09.2	300.480	0.110	-0.010	1.300
2020/01/31 11:46:09.3	300.470	0.110	-0.040	1.280
2020/01/31 11:46:09.4	300.470	0.110	-0.070	1.260
2020/01/31 11:46:09.5	300.470	0.110	-0.110	1.230
2020/01/31 11:46:09.6	300.460	0.120	-0.130	1.210
2020/01/31 11:46:09.7	300.450	0.120	-0.160	1.180
2020/01/31 11:46:09.8	300.450	0.120	-0.190	1.150
2020/01/31 11:46:09.9	300.440	0.120	-0.210	1.120
2020/01/31 11:46:10.0	300.430	0.120	-0.240	1.090
2020/01/31 11:46:10.1	300.420	0.120	-0.260	1.050
2020/01/31 11:46:10.2	300.420	0.120	-0.290	1.020
2020/01/31 11:46:10.3	300.410	0.110	-0.310	0.980
2020/01/31 11:46:10.4	300.400	0.110	-0.320	0.950
2020/01/31 11:46:10.5	300.390	0.110	-0.340	0.920
2020/01/31 11:46:10.6	300.380	0.110	-0.360	0.880
2020/01/31 11:46:10.7	300.370	0.110	-0.370	0.850
2020/01/31 11:46:10.8	300.360	0.110	-0.380	0.810
2020/01/31 11:46:10.9	300.360	0.110	-0.390	0.780
2020/01/31 11:46:11.0	300.350	0.100	-0.400	0.740
2020/01/31 11:46:11.1	300.340	0.100	-0.410	0.710
2020/01/31 11:46:11.2	300.340	0.100	-0.420	0.670
2020/01/31 11:46:11.3	300.330	0.090	-0.430	0.640
2020/01/31 11:46:11.4	300.320	0.090	-0.430	0.610
2020/01/31 11:46:11.5	300.310	0.090	-0.440	0.570
2020/01/31 11:46:11.6	300.310	0.090	-0.450	0.540
2020/01/31 11:46:11.7	300.300	0.080	-0.450	0.510
2020/01/31 11:46:11.8	300.300	0.080	-0.460	0.470
2020/01/31 11:46:11.9	300.300	0.070	-0.460	0.440
2020/01/31 11:46:12.0	300.300	0.070	-0.470	0.410
2020/01/31 11:46:12.1	300.300	0.070	-0.470	0.380
2020/01/31 11:46:12.2	300.300	0.060	-0.480	0.350
2020/01/31 11:46:12.3	300.300	0.060	-0.480	0.310
2020/01/31 11:46:12.4	300.310	0.050	-0.490	0.280
2020/01/31 11:46:12.5	300.300	0.050	-0.490	0.250
2020/01/31 11:46:12.6	300.310	0.050	-0.500	0.220
2020/01/31 11:46:12.7	300.320	0.040	-0.510	0.190
2020/01/31 11:46:12.8	300.330	0.040	-0.520	0.170
2020/01/31 11:46:12.9	300.330	0.040	-0.530	0.140
2020/01/31 11:46:13.0	300.350	0.030	-0.540	0.110
2020/01/31 11:46:13.1	300.360	0.030	-0.540	0.090
2020/01/31 11:46:13.2	300.370	0.030	-0.550	0.070
2020/01/31 11:46:13.3	300.380	0.020	-0.560	0.050
2020/01/31 11:46:13.4	300.390	0.020	-0.570	0.030
2020/01/31 11:46:13.5	300.400	0.020	-0.580	0.010
2020/01/31 11:46:13.6	300.410	0.020	-0.580	-0.000
2020/01/31 11:46:13.7	300.430	0.010	-0.590	-0.020
2020/01/31 11:46:13.8	300.440	0.010	-0.590	-0.030
2020/01/31 11:46:13.9	300.450	0.010	-0.600	-0.040
2020/01/31 11:46:14.0	300.470	0.000	-0.600	-0.050
2020/01/31 11:46:14.1	300.480	0.000	-0.600	-0.050
2020/01/31 11:46:14.2	300.490	-0.000	-0.600	-0.060
2020/01/31 11:46:14.3	300.510	-0.000	-0.590	-0.060
2020/01/31 11:46:14.4	300.520	-0.010	-0.590	-0.060
2020/01/31 11:46:14.5	300.530	-0.010	-0.580	-0.060
2020/01/31 11:46:14.6	300.550	-0.020	-0.580	-0.060
2020/01/31 11:46:14.7	300.560	-0.020	-0.570	-0.060
2020/01/31 11:46:14.8	300.570	-0.030	-0.560	-0.060
2020/01/31 11:46:14.9	300.590	-0.030	-0.540	-0.050
2020/01/31 11:46:15.0	300.600	-0.040	-0.530	-0.050
2020/01/31 11:46:15.1	300.610	-0.040	-0.510	-0.040
2020/01/31 11:46:15.2	300.620	-0.050	-0.500	-0.030
2020/01/31 11:46:15.3	300.630	-0.060	-0.480	-0.020
2020/01/31 11:46:15.4	300.640	-0.060	-0.460	-0.010
2020/01/31 11:46:15.5	300.660	-0.070	-0.430	0.000
2020/01/31 11:46:15.6	300.660	-0.080	-0.410	0.020
2020/01/31 11:46:15.7	300.670	-0.090	-0.380	0.040
2020/01/31 11:46:15.8	300.670	-0.090	-0.350	0.060
2020/01/31 11:46:15.9	300.670	-0.100	-0.330	0.090
2020/01/31 11:46:16.0	300.670	-0.110	-0.290	0.110
2020/01/31 11:46:16.1	300.670	-0.120	-0.260	0.140
2020/01/31 11:46:16.2	300.670	-0.130	-0.230	0.170
2020/01/31 11:46:16.3	300.670	-0.140	-0.190	0.200
2020/01/31 11:46:16.4	300.660	-0.150	-0.160	0.230
2020/01/31 11:46:16.5	300.660	-0.170	-0.120	0.270
2020/01/31 11:46:16.6	300.650	-0.180	-0.080	0.300
2020/01/31 11:46:16.7	300.640	-0.190	-0.040	0.330
2020/01/31 11:46:16.8	300.630	-0.200	-0.010	0.370
2020/01/31 11:46:16.9	300.620	-0.210	0.030	0.400
2020/01/31 11:46:17.0	300.610	-0.220	0.070	0.430
2020/01/31 11:46:17.1	300.600	-0.230	0.100	0.470
2020/01/31 11:46:17.2	300.580	-0.240	0.140	0.500
2020/01/31 11:46:17.3	300.570	-0.250	0.170	0.530
2020/01/31 11:46:17.4	300.560	-0.260	0.200	0.560
2020/01/31 11:46:17.5	300.550	-0.270	0.220	0.600
2020/01/31 11:46:17.6	300.530	-0.270	0.250	0.630
2020/01/31 11:46:17.7	300.520	-0.280	0.270	0.660
2020/01/31 11:46:17.8	300.510	-0.280	0.280	0.690
2020/01/31 11:46:17.9	300.500	-0.290	0.300	0.710
2020/01/31 11:46:18.0	300.490	-0.290	0.310	0.740
2020/01/31 11:46:18.1	300.470	-0.290	0.310	0.760
2020/01/31 11:46:18.2	300.460	-0.290	0.310	0.780
2020/01/31 11:46:18.3	300.450	-0.290	0.310	0.810
2020/01/31 11:46:18.4	300.440	-0.290	0.300	0.820
2020/01/31 11:46:18.5	300.430	-0.290	0.280	0.840
2020/01/31 11:46:18.6	300.420	-0.280	0.270	0.860
2020/01/31 11:46:18.7	300.410	-0.280	0.240	0.870
2020/01/31 11:46:18.8	300.400	-0.270	0.220	0.890
2020/01/31 11:46:18.9	300.400	-0.260	0.190	0.900
2020/01/31 11:46:19.0	300.400	-0.250	0.160	0.910
2020/01/31 11:46:19.1	300.390	-0.240	0.120	0.910
2020/01/31 11:46:19.2	300.390	-0.230	0.090	0.920
2020/01/31 11:46:19.3	300.390	-0.220	0.040	0.920
2020/01/31 11:46:19.4	300.390	-0.200	0.000	0.920
2020/01/31 11:46:19.5	300.390	-0.190	-0.040	0.920
2020/01/31 11:46:19.6	300.390	-0.170	-0.090	0.910
2020/01/31 11:46:19.7	300.390	-0.160	-0.130	0.910
2020/01/31 11:46:19.8	300.400	-0.140	-0.180	0.900
2020/01/31 11:46:19.9	300.400	-0.120	-0.220	0.900
2020/01/31 11:46:20.0	300.410	-0.110	-0.260	0.890
2020/01/31 11:46:20.1	300.410	-0.090	-0.300	0.880
2020/01/31 11:46:20.2	300.420	-0.070	-0.340	0.870
2020/01/31 11:46:20.3	300.420	-0.060	-0.380	0.860
2020/01/31 11:46:20.4	300.430	-0.040	-0.410	0.850
2020/01/31 11:46:20.5	300.430	-0.020	-0.440	0.840
2020/01/31 11:46:20.6	300.430	-0.000	-0.470	0.830
2020/01/31 11:46:20.7	300.440	0.010	-0.490	0.820
2020/01/31 11:46:20.8	300.440	0.030	-0.510	0.800
2020/01/31 11:46:20.9	300.450	0.040	-0.530	0.790
2020/01/31 11:46:21.0	300.450	0.060	-0.540	0.780
2020/01/31 11:46:21.1	300.450	0.070	-0.550	0.770
2020/01/31 11:46:21.2	300.450	0.080	-0.550	0.760
2020/01/31 11:46:21.3	300.460	0.090	-0.550	0.740
2020/01/31 11:46:21.4	300.460	0.110	-0.550	0.730
2020/01/31 11:46:21.5	300.460	0.120	-0.540	0.720
2020/01/31 11:46:21.6	300.470	0.130	-0.530	0.710
2020/01/31 11:46:21.7	300.470	0.130	-0.520	0.690
2020/01/31 11:46:21.8	300.470	0.140	-0.510	0.680
2020/01/31 11:46:21.9	300.470	0.150	-0.500	0.670
2020/01/31 11:46:22.0	300.470	0.160	-0.480	0.650
2020/01/31 11:46:22.1	300.470	0.160	-0.460	0.640
2020/01/31 11:46:22.2	300.470	0.170	-0.440	0.620
2020/01/31 11:46:22.3	300.480	0.170	-0.420	0.610
2020/01/31 11:46:22.4	300.480	0.170	-0.410	0.590
2020/01/31 11:46:22.5	300.470	0.180	-0.390	0.580
2020/01/31 11:46:22.6	300.470	0.180	-0.370	0.570
2020/01/31 11:46:22.7	300.470	0.180	-0.360	0.550
2020/01/31 11:46:22.8	300.470	0.190	-0.340	0.540
2020/01/31 11:46:22.9	300.470	0.190	-0.320	0.520
2020/01/31 11:46:23.0	300.470	0.190	-0.310	0.510
2020/01/31 11:46:23.1	300.460	0.190	-0.300	0.500
2020/01/31 11:46:23.2	300.460	0.190	-0.290	0.480
2020/01/31 11:46:23.3	300.460	0.200	-0.280	0.470
2020/01/31 11:46:23.4	300.460	0.200	-0.270	0.450
2020/01/31 11:46:23.5	300.440	0.200	-0.270	0.430
2020/01/31 11:46:23.6	300.430	0.200	-0.260	0.420
2020/01/31 11:46:23.7	300.430	0.210	-0.260	0.400
2020/01/31 11:46:23.8	300.430	0.210	-0.260	0.390
2020/01/31 11:46:23.9	300.430	0.210	-0.260	0.370
2020/01/31 11:46:24.0	300.420	0.220	-0.270	0.360
2020/01/31 11:46:24.1	300.420	0.220	-0.270	0.340
2020/01/31 11:46:24.2	300.420	0.220	-0.280	0.330
2020/01/31 11:46:24.3	300.420	0.230	-0.280	0.310
2020/01/31 11:46:24.4	300.420	0.230	-0.290	0.300
2020/01/31 11:46:24.5	300.420	0.230	-0.290	0.290
2020/01/31 11:46:24.6	300.420	0.240	-0.300	0.280
2020/01/31 11:46:24.7	300.420	0.240	-0.300	0.270
2020/01/31 11:46:24.8	300.420	0.240	-0.310	0.260
2020/01/31 11:46:24.9	300.410	0.240	-0.310	0.260
2020/01/31 11:46:25.0	300.410	0.240	-0.320	0.250
2020/01/31 11:46:25.1	300.410	0.240	-0.320	0.250
2020/01/31 11:46:25.2	300.410	0.240	-0.320	0.240
2020/01/31 11:46:25.3	300.410	0.240	-0.320	0.240
2020/01/31 11:46:25.4	300.410	0.240	-0.310	0.240
2020/01/31 11:46:25.5	300.410	0.240	-0.310	0.240
2020/01/31 11:46:25.6	300.410	0.240	-0.310	0.240
2020/01/31 11:46:25.7	300.410	0.230	-0.300	0.240
2020/01/31 11:46:25.8	300.410	0.230	-0.290	0.240
2020/01/31 11:46:25.9	300.420	0.220	-0.280	0.240
2020/01/31 11:46:26.0	300.420	0.220	-0.270	0.240
2020/01/31 11:46:26.1	300.430	0.210	-0.260	0.240
2020/01/31 11:46:26.2	300.440	0.200	-0.240	0.240
2020/01/31 11:46:26.3	300.450	0.190	-0.230	0.250
2020/01/31 11:46:26.4	300.460	0.190	-0.210	0.250
2020/01/31 11:46:26.5	300.470	0.180	-0.200	0.250
2020/01/31 11:46:26.6	300.480	0.170	-0.180	0.260
2020/01/31 11:46:26.7	300.500	0.150	-0.160	0.260
2020/01/31 11:46:26.8	300.520	0.140	-0.140	0.270
2020/01/31 11:46:26.9	300.530	0.130	-0.120	0.270
2020/01/31 11:46:27.0	300.550	0.120	-0.100	0.280
2020/01/31 11:46:27.1	300.570	0.100	-0.080	0.290
2020/01/31 11:46:27.2	300.590	0.090	-0.060	0.300
2020/01/31 11:46:27.3	300.600	0.080	-0.030	0.310
2020/01/31 11:46:27.4	300.620	0.060	-0.010	0.320
2020/01/31 11:46:27.5	300.640	0.050	0.010	0.340
2020/01/31 11:46:27.6	300.660	0.030	0.030	0.360
2020/01/31 11:46:27.7	300.670	0.010	0.060	0.380
2020/01/31 11:46:27.8	300.690	-0.000	0.080	0.390
2020/01/31 11:46:27.9	300.700	-0.020	0.100	0.410
2020/01/31 11:46:28.0	300.710	-0.040	0.120	0.430
2020/01/31 11:46:28.1	300.730	-0.050	0.130	0.450
2020/01/31 11:46:28.2	300.740	-0.070	0.150	0.470
2020/01/31 11:46:28.3	300.750	-0.090	0.160	0.490
2020/01/31 11:46:28.4	300.760	-0.100	0.170	0.510
2020/01/31 11:46:28.5	300.760	-0.120	0.180	0.530
2020/01/31 11:46:28.6	300.770	-0.140	0.190	0.550
2020/01/31 11:46:28.7	300.780	-0.150	0.190	0.570
2020/01/31 11:46:28.8	300.790	-0.170	0.190	0.590
2020/01/31 11:46:28.9	300.790	-0.180	0.190	0.600
2020/01/31 11:46:29.0	300.800	-0.190	0.180	0.620
2020/01/31 11:46:29.1	300.810	-0.210	0.170	0.640
2020/01/31 11:46:29.2	300.810	-0.220	0.160	0.650
2020/01/31 11:46:29.3	300.820	-0.230	0.150	0.670
2020/01/31 11:46:29.4	300.820	-0.240	0.130	0.680
2020/01/31 11:46:29.5	300.820	-0.250	0.100	0.700
2020/01/31 11:46:29.6	300.830	-0.250	0.080	0.710
2020/01/31 11:46:29.7	300.830	-0.260	0.050	0.720
2020/01/31 11:46:29.8	300.830	-0.270	0.020	0.730
2020/01/31 11:46:29.9	300.830	-0.270	-0.010	0.730
2020/01/31 11:46:30.0	300.830	-0.270	-0.050	0.740
2020/01/31 11:46:30.1	300.830	-0.280	-0.090	0.750
2020/01/31 11:46:30.2	300.830	-0.280	-0.120	0.750
2020/01/31 11:46:30.3	300.830	-0.280	-0.160	0.760
2020/01/31 11:46:30.4	300.830	-0.270	-0.200	0.760
2020/01/31 11:46:30.5	300.830	-0.270	-0.240	0.760
2020/01/31 11:46:30.6	300.830	-0.270	-0.280	0.760
2020/01/31 11:46:30.7	300.830	-0.260	-0.330	0.760
2020/01/31 11:46:30.8	300.830	-0.260	-0.370	0.760
2020/01/31 11:46:30.9	300.820	-0.250	-0.410	0.760
2020/01/31 11:46:31.0	300.820	-0.250	-0.450	0.770
2020/01/31 11:46:31.1	300.810	-0.240	-0.490	0.770
2020/01/31 11:46:31.2	300.800	-0.230	-0.530	0.770
2020/01/31 11:46:31.3	300.800	-0.220	-0.560	0.770
2020/01/31 11:46:31.4	300.790	-0.210	-0.600	0.770
2020/01/31 11:46:31.5	300.790	-0.200	-0.630	0.770
2020/01/31 11:46:31.6	300.780	-0.190	-0.660	0.770
2020/01/31 11:46:31.7	300.770	-0.180	-0.690	0.780
2020/01/31 11:46:31.8	300.760	-0.170	-0.720	0.780
2020/01/31 11:46:31.9	300.750	-0.150	-0.750	0.780
2020/01/31 11:46:32.0	300.740	-0.140	-0.770	0.780
2020/01/31 11:46:32.1	300.730	-0.130	-0.790	0.780
2020/01/31 11:46:32.2	300.720	-0.110	-0.810	0.780
2020/01/31 11:46:32.3	300.710	-0.100	-0.820	0.780
2020/01/31 11:46:32.4	300.700	-0.090	-0.840	0.780
2020/01/31 11:46:32.5	300.690	-0.070	-0.850	0.780
2020/01/31 11:46:32.6	300.680	-0.060	-0.860	0.780
2020/01/31 11:46:32.7	300.670	-0.050	-0.860	0.770
2020/01/31 11:46:32.8	300.660	-0.030	-0.860	0.770
2020/01/31 11:46:32.9	300.650	-0.020	-0.870	0.770
2020/01/31 11:46:33.0	300.650	-0.010	-0.860	0.760
2020/01/31 11:46:33.1	300.640	0.010	-0.860	0.760
2020/01/31 11:46:33.2	300.640	0.020	-0.850	0.750
2020/01/31 11:46:33.3	300.630	0.030	-0.840	0.740
2020/01/31 11:46:33.4	300.630	0.040	-0.830	0.740
2020/01/31 11:46:33.5	300.610	0.050	-0.820	0.730
2020/01/31 11:46:33.6	300.610	0.060	-0.800	0.720
2020/01/31 11:46:33.7	300.610	0.070	-0.790	0.710
2020/01/31 11:46:33.8	300.600	0.080	-0.770	0.700
2020/01/31 11:46:33.9	300.600	0.090	-0.740	0.690
2020/01/31 11:46:34.0	300.600	0.100	-0.720	0.670
2020/01/31 11:46:34.1	300.590	0.100	-0.690	0.660
2020/01/31 11:46:34.2	300.590	0.110	-0.660	0.650
2020/01/31 11:46:34.3	300.590	0.110	-0.630	0.630
2020/01/31 11:46:34.4	300.590	0.110	-0.600	0.610
2020/01/31 11:46:34.5	300.590	0.120	-0.560	0.600
2020/01/31 11:46:34.6	300.590	0.120	-0.530	0.580
2020/01/31 11:46:34.7	300.590	0.120	-0.490	0.560
2020/01/31 11:46:34.8	300.590	0.110	-0.460	0.540
2020/01/31 11:46:34.9	300.600	0.110	-0.420	0.510
2020/01/31 11:46:35.0	300.600	0.100	-0.380	0.490
2020/01/31 11:46:35.1	300.600	0.100	-0.340	0.460
2020/01/31 11:46:35.2	300.610	0.090	-0.300	0.430
2020/01/31 11:46:35.3	300.620	0.080	-0.260	0.400
2020/01/31 11:46:35.4	300.620	0.070	-0.220	0.380
2020/01/31 11:46:35.5	300.630	0.060	-0.190	0.350
2020/01/31 11:46:35.6	300.640	0.050	-0.150	0.320
2020/01/31 11:46:35.7	300.650	0.030	-0.110	0.280
2020/01/31 11:46:35.8	300.660	0.020	-0.070	0.250
2020/01/31 11:46:35.9	300.670	0.000	-0.040	0.220
2020/01/31 11:46:36.0	300.690	-0.010	-0.000	0.190
2020/01/31 11:46:36.1	300.700	-0.030	0.030	0.160
2020/01/31 11:46:36.2	300.720	-0.050	0.070	0.130
2020/01/31 11:46:36.3	300.730	-0.070	0.100	0.100
2020/01/31 11:46:36.4	300.750	-0.090	0.130	0.070
2020/01/31 11:46:36.5	300.770	-0.110	0.150	0.030
2020/01/31 11:46:36.6	300.790	-0.130	0.180	0.000
2020/01/31 11:46:36.7	300.800	-0.150	0.210	-0.020
2020/01/31 11:46:36.8	300.820	-0.170	0.230	-0.050
2020/01/31 11:46:36.9	300.840	-0.190	0.250	-0.080
2020/01/31 11:46:37.0	300.860	-0.210	0.270	-0.100
2020/01/31 11:46:37.1	300.880	-0.230	0.290	-0.120
2020/01/31 11:46:37.2	300.890	-0.250	0.300	-0.140
2020/01/31 11:46:37.3	300.910	-0.270	0.320	-0.150
2020/01/31 11:46:37.4	300.930	-0.280	0.330	-0.170
2020/01/31 11:46:37.5	300.930	-0.300	0.330	-0.170
2020/01/31 11:46:37.6	300.950	-0.310	0.340	-0.180
2020/01/31 11:46:37.7	300.970	-0.320	0.350	-0.190
2020/01/31 11:46:37.8	300.980	-0.330	0.350	-0.190
2020/01/31 11:46:37.9	301.000	-0.340	0.350	-0.190
2020/01/31 11:46:38.0	301.010	-0.340	0.350	-0.180
2020/01/31 11:46:38.1	301.030	-0.350	0.350	-0.170
2020/01/31 11:46:38.2	301.040	-0.350	0.340	-0.160
2020/01/31 11:46:38.3	301.050	-0.350	0.340	-0.150
2020/01/31 11:46:38.4	301.060	-0.340	0.330	-0.130
2020/01/31 11:46:38.5	301.070	-0.340	0.320	-0.110
2020/01/31 11:46:38.6	301.080	-0.330	0.310	-0.090
2020/01/31 11:46:38.7	301.090	-0.320	0.300	-0.060
2020/01/31 11:46:38.8	301.100	-0.310	0.280	-0.040
2020/01/31 11:46:38.9	301.110	-0.300	0.260	-0.010
2020/01/31 11:46:39.0	301.110	-0.280	0.240	0.020
2020/01/31 11:46:39.1	301.120	-0.260	0.220	0.050
2020/01/31 11:46:39.2	301.120	-0.250	0.200	0.090
2020/01/31 11:46:39.3	301.120	-0.220	0.180	0.120
2020/01/31 11:46:39.4	301.120	-0.200	0.160	0.160
2020/01/31 11:46:39.5	301.130	-0.180	0.130	0.200
2020/01/31 11:46:39.6	301.130	-0.150	0.110	0.230
2020/01/31 11:46:39.7	301.130	-0.130	0.080	0.270
2020/01/31 11:46:39.8	301.120	-0.100	0.060	0.310
2020/01/31 11:46:39.9	301.120	-0.070	0.030	0.350
2020/01/31 11:46:40.0	301.110	-0.040	0.010	0.390
2020/01/31 11:46:40.1	301.110	-0.020	-0.020	0.430
2020/01/31 11:46:40.2	301.100	0.010	-0.050	0.470
2020/01/31 11:46:40.3	301.090	0.040	-0.070	0.510
2020/01/31 11:46:40.4	301.080	0.070	-0.100	0.550
2020/01/31 11:46:40.5	301.080	0.100	-0.120	0.590
2020/01/31 11:46:40.6	301.070	0.130	-0.150	0.630
2020/01/31 11:46:40.7	301.070	0.160	-0.170	0.660
2020/01/31 11:46:40.8	301.060	0.190	-0.190	0.700
2020/01/31 11:46:40.9	301.050	0.220	-0.210	0.730
2020/01/31 11:46:41.0	301.040	0.240	-0.240	0.770
2020/01/31 11:46:41.1	301.030	0.270	-0.260	0.800
2020/01/31 11:46:41.2	301.020	0.300	-0.270	0.830
2020/01/31 11:46:41.3	301.010	0.320	-0.290	0.860
2020/01/31 11:46:41.4	301.010	0.340	-0.310	0.880
2020/01/31 11:46:41.5	300.990	0.370	-0.330	0.910
2020/01/31 11:46:41.6	300.990	0.390	-0.340	0.930
2020/01/31 11:46:41.7	300.980	0.410	-0.360	0.950
2020/01/31 11:46:41.8	300.970	0.430	-0.370	0.970
2020/01/31 11:46:41.9	300.970	0.450	-0.380	0.990
2020/01/31 11:46:42.0	300.960	0.460	-0.400	1.000
2020/01/31 11:46:42.1	300.950	0.480	-0.410	1.020
2020/01/31 11:46:42.2	300.950	0.490	-0.420	1.030
2020/01/31 11:46:42.3	300.950	0.510	-0.430	1.030
2020/01/31 11:46:42.4	300.940	0.520	-0.440	1.040
2020/01/31 11:46:42.5	300.940	0.530	-0.450	1.040
2020/01/31 11:46:42.6	300.940	0.540	-0.470	1.040
2020/01/31 11:46:42.7	300.930	0.540	-0.480	1.040
2020/01/31 11:46:42.8	300.930	0.550	-0.490	1.040
2020/01/31 11:46:42.9	300.930	0.560	-0.500	1.030
2020/01/31 11:46:43.0	300.930	0.560	-0.510	1.030
2020/01/31 11:46:43.1	300.930	0.560	-0.520	1.020
2020/01/31 11:46:43.2	300.930	0.560	-0.530	1.010
2020/01/31 11:46:43.3	300.940	0.560	-0.540	1.000
2020/01/31 11:46:43.4	300.940	0.560	-0.550	0.990
2020/01/31 11:46:43.5	300.940	0.550	-0.560	0.970
2020/01/31 11:46:43.6	300.940	0.550	-0.560	0.960
2020/01/31 11:46:43.7	300.950	0.540	-0.570	0.940
2020/01/31 11:46:43.8	300.950	0.530	-0.580	0.920
2020/01/31 11:46:43.9	300.960	0.520	-0.590	0.900
2020/01/31 11:46:44.0	300.960	0.510	-0.600	0.880
2020/01/31 11:46:44.1	300.970	0.500	-0.620	0.860
2020/01/31 11:46:44.2	300.980	0.490	-0.630	0.840
2020/01/31 11:46:44.3	300.990	0.470	-0.640	0.810
2020/01/31 11:46:44.4	301.000	0.450	-0.650	0.780
2020/01/31 11:46:44.5	301.010	0.430	-0.660	0.760
2020/01/31 11:46:44.6	301.020	0.410	-0.670	0.730
2020/01/31 11:46:44.7	301.030	0.390	-0.680	0.700
2020/01/31 11:46:44.8	301.040	0.370	-0.690	0.670
2020/01/31 11:46:44.9	301.050	0.350	-0.700	0.630
2020/01/31 11:46:45.0	301.060	0.320	-0.700	0.600
2020/01/31 11:46:45.1	301.070	0.300	-0.710	0.570
2020/01/31 11:46:45.2	301.080	0.270	-0.720	0.530
2020/01/31 11:46:45.3	301.090	0.240	-0.720	0.500
2020/01/31 11:46:45.4	301.100	0.210	-0.730	0.460
2020/01/31 11:46:45.5	301.110	0.180	-0.730	0.430
2020/01/31 11:46:45.6	301.120	0.150	-0.730	0.390
2020/01/31 11:46:45.7	301.130	0.120	-0.730	0.360
2020/01/31 11:46:45.8	301.140	0.090	-0.730	0.320
2020/01/31 11:46:45.9	301.150	0.060	-0.720	0.290
2020/01/31 11:46:46.0	301.160	0.030	-0.720	0.250
2020/01/31 11:46:46.1	301.170	-0.000	-0.710	0.220
2020/01/31 11:46:46.2	301.170	-0.040	-0.700	0.190
2020/01/31 11:46:46.3	301.180	-0.070	-0.690	0.150
2020/01/31 11:46:46.4	301.190	-0.100	-0.680	0.120
2020/01/31 11:46:46.5	301.190	-0.140	-0.660	0.090
2020/01/31 11:46:46.6	301.190	-0.170	-0.640	0.060
2020/01/31 11:46:46.7	301.200	-0.200	-0.620	0.030
2020/01/31 11:46:46.8	301.200	-0.240	-0.600	0.000
2020/01/31 11:46:46.9	301.200	-0.270	-0.580	-0.030
2020/01/31 11:46:47.0	301.210	-0.300	-0.550	-0.050
2020/01/31 11:46:47.1	301.210	-0.340	-0.530	-0.080
2020/01/31 11:46:47.2	301.210	-0.370	-0.500	-0.100
2020/01/31 11:46:47.3	301.200	-0.400	-0.460	-0.120
2020/01/31 11:46:47.4	301.200	-0.440	-0.430	-0.140
2020/01/31 11:46:47.5	301.190	-0.470	-0.400	-0.150
2020/01/31 11:46:47.6	301.180	-0.500	-0.360	-0.160
2020/01/31 11:46:47.7	301.170	-0.540	-0.320	-0.170
2020/01/31 11:46:47.8	301.160	-0.570	-0.280	-0.170
2020/01/31 11:46:47.9	301.150	-0.600	-0.240	-0.180
2020/01/31 11:46:48.0	301.130	-0.630	-0.190	-0.180
2020/01/31 11:46:48.1	301.110	-0.660	-0.150	-0.180
2020/01/31 11:46:48.2	301.100	-0.690	-0.100	-0.170
2020/01/31 11:46:48.3	301.080	-0.720	-0.050	-0.160
2020/01/31 11:46:48.4	301.060	-0.750	-0.010	-0.150
2020/01/31 11:46:48.5	301.050	-0.780	0.040	-0.140
2020/01/31 11:46:48.6	301.030	-0.800	0.090	-0.130
2020/01/31 11:46:48.7	301.010	-0.830	0.130	-0.110
2020/01/31 11:46:48.8	300.990	-0.850	0.180	-0.090
2020/01/31 11:46:48.9	300.970	-0.870	0.220	-0.070
2020/01/31 11:46:49.0	300.950	-0.890	0.260	-0.050
2020/01/31 11:46:49.1	300.930	-0.900	0.300	-0.020
2020/01/31 11:46:49.2	300.910	-0.920	0.340	0.000
2020/01/31 11:46:49.3	300.890	-0.930	0.380	0.030
2020/01/31 11:46:49.4	300.870	-0.940	0.410	0.060
2020/01/31 11:46:49.5	300.850	-0.950	0.440	0.090
2020/01/31 11:46:49.6	300.830	-0.950	0.460	0.120
2020/01/31 11:46:49.7	300.820	-0.950	0.490	0.150
2020/01/31 11:46:49.8	300.800	-0.950	0.510	0.180
2020/01/31 11:46:49.9	300.790	-0.950	0.520	0.220
2020/01/31 11:46:50.0	300.780	-0.940	0.530	0.250
2020/01/31 11:46:50.1	300.770	-0.930	0.540	0.280
2020/01/31 11:46:50.2	300.760	-0.910	0.550	0.310
2020/01/31 11:46:50.3	300.750	-0.900	0.550	0.340
2020/01/31 11:46:50.4	300.740	-0.880	0.540	0.370
2020/01/31 11:46:50.5	300.730	-0.850	0.530	0.390
2020/01/31 11:46:50.6	300.730	-0.830	0.520	0.410
2020/01/31 11:46:50.7	300.730	-0.800	0.500	0.440
2020/01/31 11:46:50.8	300.730	-0.760	0.480	0.460
2020/01/31 11:46:50.9	300.730	-0.720	0.450	0.480
2020/01/31 11:46:51.0	300.730	-0.690	0.420	0.490
2020/01/31 11:46:51.1	300.740	-0.640	0.380	0.510
2020/01/31 11:46:51.2	300.740	-0.600	0.340	0.520
2020/01/31 11:46:51.3	300.750	-0.550	0.300	0.540
2020/01/31 11:46:51.4	300.770	-0.500	0.260	0.550
2020/01/31 11:46:51.5	300.770	-0.450	0.210	0.560
2020/01/31 11:46:51.6	300.790	-0.390	0.160	0.570
2020/01/31 11:46:51.7	300.800	-0.330	0.110	0.570
2020/01/31 11:46:51.8	300.820	-0.280	0.060	0.580
2020/01/31 11:46:51.9	300.840	-0.220	0.010	0.580
2020/01/31 11:46:52.0	300.860	-0.150	-0.040	0.590
2020/01/31 11:46:52.1	300.880	-0.090	-0.100	0.590
2020/01/31 11:46:52.2	300.900	-0.030	-0.150	0.590
2020/01/31 11:46:52.3	300.920	0.030	-0.200	0.600
2020/01/31 11:46:52.4	300.950	0.100	-0.250	0.600
2020/01/31 11:46:52.5	300.970	0.160	-0.300	0.610
2020/01/31 11:46:52.6	300.990	0.230	-0.340	0.610
2020/01/31 11:46:52.7	301.020	0.290	-0.380	0.620
2020/01/31 11:46:52.8	301.050	0.350	-0.420	0.630
2020/01/31 11:46:52.9	301.070	0.410	-0.460	0.640
2020/01/31 11:46:53.0	301.100	0.470	-0.490	0.650
2020/01/31 11:46:53.1	301.120	0.530	-0.520	0.660
2020/01/31 11:46:53.2	301.150	0.590	-0.540	0.670
2020/01/31 11:46:53.3	301.170	0.640	-0.560	0.680
2020/01/31 11:46:53.4	301.190	0.700	-0.580	0.700
2020/01/31 11:46:53.5	301.230	0.750	-0.590	0.720
2020/01/31 11:46:53.6	301.250	0.800	-0.600	0.740
2020/01/31 11:46:53.7	301.270	0.840	-0.610	0.760
2020/01/31 11:46:53.8	301.290	0.880	-0.610	0.780
2020/01/31 11:46:53.9	301.310	0.920	-0.610	0.800
2020/01/31 11:46:54.0	301.320	0.960	-0.600	0.820
2020/01/31 11:46:54.1	301.330	0.990	-0.600	0.840
2020/01/31 11:46:54.2	301.350	1.020	-0.580	0.870
2020/01/31 11:46:54.3	301.350	1.050	-0.570	0.890
2020/01/31 11:46:54.4	301.360	1.080	-0.560	0.910
2020/01/31 11:46:54.5	301.380	1.100	-0.540	0.940
2020/01/31 11:46:54.6	301.380	1.110	-0.520	0.960
2020/01/31 11:46:54.7	301.390	1.130	-0.500	0.980
2020/01/31 11:46:54.8	301.380	1.140	-0.480	1.000
2020/01/31 11:46:54.9	301.380	1.140	-0.460	1.020
2020/01/31 11:46:55.0	301.380	1.150	-0.440	1.040
2020/01/31 11:46:55.1	301.380	1.150	-0.420	1.060
2020/01/31 11:46:55.2	301.370	1.140	-0.400	1.070
2020/01/31 11:46:55.3	301.360	1.140	-0.380	1.080
2020/01/31 11:46:55.4	301.350	1.130	-0.370	1.090
2020/01/31 11:46:55.5	301.340	1.110	-0.360	1.090
2020/01/31 11:46:55.6	301.330	1.100	-0.350	1.090
2020/01/31 11:46:55.7	301.320	1.080	-0.330	1.090
2020/01/31 11:46:55.8	301.310	1.060	-0.330	1.090
2020/01/31 11:46:55.9	301.290	1.030	-0.320	1.080
2020/01/31 11:46:56.0	301.280	1.010	-0.320	1.070
2020/01/31 11:46:56.1	301.270	0.980	-0.310	1.050
2020/01/31 11:46:56.2	301.250	0.940	-0.310	1.040
2020/01/31 11:46:56.3	301.240	0.910	-0.320	1.020
2020/01/31 11:46:56.4	301.220	0.870	-0.320	1.000
2020/01/31 11:46:56.5	301.220	0.830	-0.330	0.970
2020/01/31 11:46:56.6	301.200	0.790	-0.330	0.940
2020/01/31 11:46:56.7	301.190	0.750	-0.340	0.910
2020/01/31 11:46:56.8	301.170	0.710	-0.350	0.880
2020/01/31 11:46:56.9	301.160	0.660	-0.360	0.850
2020/01/31 11:46:57.0	301.150	0.620	-0.370	0.810
2020/01/31 11:46:57.1	301.140	0.570	-0.380	0.770
2020/01/31 11:46:57.2	301.130	0.520	-0.390	0.730
2020/01/31 11:46:57.3	301.110	0.470	-0.400	0.690
2020/01/31 11:46:57.4	301.100	0.420	-0.410	0.640
2020/01/31 11:46:57.5	301.090	0.370	-0.420	0.600
2020/01/31 11:46:57.6	301.080	0.320	-0.430	0.560
2020/01/31 11:46:57.7	301.070	0.270	-0.440	0.510
2020/01/31 11:46:57.8	301.060	0.220	-0.440	0.460
2020/01/31 11:46:57.9	301.050	0.170	-0.450	0.420
2020/01/31 11:46:58.0	301.050	0.120	-0.450	0.370
2020/01/31 11:46:58.1	301.040	0.070	-0.450	0.320
2020/01/31 11:46:58.2	301.040	0.030	-0.450	0.280
2020/01/31 11:46:58.3	301.030	-0.020	-0.450	0.230
2020/01/31 11:46:58.4	301.020	-0.070	-0.450	0.190
2020/01/31 11:46:58.5	301.030	-0.120	-0.440	0.140
2020/01/31 11:46:58.6	301.020	-0.160	-0.430	0.100
2020/01/31 11:46:58.7	301.020	-0.210	-0.420	0.060
2020/01/31 11:46:58.8	301.020	-0.250	-0.410	0.020
2020/01/31 11:46:58.9	301.010	-0.290	-0.400	-0.010
2020/01/31 11:46:59.0	301.010	-0.330	-0.390	-0.050
2020/01/31 11:46:59.1	301.000	-0.380	-0.380	-0.080
2020/01/31 11:46:59.2	301.000	-0.420	-0.370	-0.120
2020/01/31 11:46:59.3	301.000	-0.450	-0.350	-0.150
2020/01/31 11:46:59.4	301.000	-0.490	-0.340	-0.180
2020/01/31 11:46:59.5	300.990	-0.530	-0.330	-0.200
2020/01/31 11:46:59.6	300.990	-0.560	-0.310	-0.230
2020/01/31 11:46:59.7	300.990	-0.600	-0.300	-0.250
2020/01/31 11:46:59.8	300.990	-0.630	-0.290	-0.280
2020/01/31 11:46:59.9	300.990	-0.660	-0.280	-0.300
2020/01/31 11:47:00.0	301.000	-0.690	-0.270	-0.320
2020/01/31 11:47:00.1	301.000	-0.720	-0.250	-0.330
2020/01/31 11:47:00.2	301.000	-0.750	-0.250	-0.350
2020/01/31 11:47:00.3	301.000	-0.770	-0.240	-0.360
2020/01/31 11:47:00.4	301.010	-0.790	-0.230	-0.370
2020/01/31 11:47:00.5	301.000	-0.820	-0.220	-0.380
2020/01/31 11:47:00.6	301.000	-0.840	-0.210	-0.390
2020/01/31 11:47:00.7	301.010	-0.860	-0.210	-0.390
2020/01/31 11:47:00.8	301.010	-0.870	-0.200	-0.390
2020/01/31 11:47:00.9	301.010	-0.890	-0.190	-0.390
2020/01/31 11:47:01.0	301.020	-0.900	-0.180	-0.380
2020/01/31 11:47:01.1	301.020	-0.910	-0.170	-0.370
2020/01/31 11:47:01.2	301.030	-0.920	-0.160	-0.360
2020/01/31 11:47:01.3	301.030	-0.930	-0.160	-0.350
2020/01/31 11:47:01.4	301.030	-0.930	-0.150	-0.340
2020/01/31 11:47:01.5	301.030	-0.940	-0.140	-0.320
2020/01/31 11:47:01.6	301.030	-0.940	-0.130	-0.300
2020/01/31 11:47:01.7	301.040	-0.930	-0.120	-0.280
2020/01/31 11:47:01.8	301.040	-0.930	-0.110	-0.260
2020/01/31 11:47:01.9	301.040	-0.930	-0.090	-0.230
2020/01/31 11:47:02.0	301.040	-0.920	-0.080	-0.210
2020/01/31 11:47:02.1	301.040	-0.910	-0.070	-0.180
2020/01/31 11:47:02.2	301.050	-0.890	-0.060	-0.150
2020/01/31 11:47:02.3	301.050	-0.880	-0.050	-0.120
2020/01/31 11:47:02.4	301.050	-0.860	-0.040	-0.090
2020/01/31 11:47:02.5	301.050	-0.840	-0.030	-0.060
2020/01/31 11:47:02.6	301.050	-0.820	-0.020	-0.030
2020/01/31 11:47:02.7	301.050	-0.800	-0.010	0.010
2020/01/31 11:47:02.8	301.050	-0.770	0.000	0.040
2020/01/31 11:47:02.9	301.050	-0.750	0.010	0.070
2020/01/31 11:47:03.0	301.060	-0.720	0.010	0.100
2020/01/31 11:47:03.1	301.060	-0.680	0.020	0.140
2020/01/31 11:47:03.2	301.060	-0.650	0.020	0.170
2020/01/31 11:47:03.3	301.060	-0.620	0.020	0.210
2020/01/31 11:47:03.4	301.060	-0.580	0.020	0.250
2020/01/31 11:47:03.5	301.070	-0.540	0.030	0.290
2020/01/31 11:47:03.6	301.070	-0.500	0.020	0.330
2020/01/31 11:47:03.7	301.070	-0.460	0.020	0.360
2020/01/31 11:47:03.8	301.070	-0.420	0.010	0.400
2020/01/31 11:47:03.9	301.070	-0.380	0.010	0.440
2020/01/31 11:47:04.0	301.070	-0.340	-0.000	0.490
2020/01/31 11:47:04.1	301.070	-0.290	-0.010	0.530
2020/01/31 11:47:04.2	301.070	-0.250	-0.020	0.570
2020/01/31 11:47:04.3	301.070	-0.200	-0.030	0.610
2020/01/31 11:47:04.4	301.070	-0.160	-0.040	0.660
2020/01/31 11:47:04.5	301.060	-0.110	-0.060	0.700
2020/01/31 11:47:04.6	301.050	-0.070	-0.070	0.750
2020/01/31 11:47:04.7	301.050	-0.030	-0.090	0.790
2020/01/31 11:47:04.8	301.040	0.020	-0.100	0.840
2020/01/31 11:47:04.9	301.040	0.060	-0.120	0.890
2020/01/31 11:47:05.0	301.030	0.100	-0.130	0.930
2020/01/31 11:47:05.1	301.020	0.140	-0.150	0.970
2020/01/31 11:47:05.2	301.020	0.180	-0.160	1.020
2020/01/31 11:47:05.3	301.010	0.220	-0.180	1.060
2020/01/31 11:47:05.4	301.000	0.260	-0.200	1.100
2020/01/31 11:47:05.5	301.000	0.300	-0.210	1.140
2020/01/31 11:47:05.6	300.990	0.330	-0.230	1.180
2020/01/31 11:47:05.7	300.990	0.370	-0.240	1.210
2020/01/31 11:47:05.8	300.980	0.400	-0.260	1.250
2020/01/31 11:47:05.9	300.980	0.430	-0.280	1.280
2020/01/31 11:47:06.0	300.970	0.460	-0.290	1.300
2020/01/31 11:47:06.1	300.970	0.480	-0.300	1.330
2020/01/31 11:47:06.2	300.970	0.510	-0.320	1.350
2020/01/31 11:47:06.3	300.970	0.530	-0.330	1.370
2020/01/31 11:47:06.4	300.970	0.550	-0.340	1.380
2020/01/31 11:47:06.5	300.970	0.570	-0.350	1.390
2020/01/31 11:47:06.6	300.970	0.590	-0.360	1.400
2020/01/31 11:47:06.7	300.970	0.600	-0.370	1.410
2020/01/31 11:47:06.8	300.970	0.620	-0.380	1.410
2020/01/31 11:47:06.9	300.970	0.630	-0.390	1.410
2020/01/31 11:47:07.0	300.980	0.640	-0.390	1.410
2020/01/31 11:47:07.1	300.980	0.640	-0.390	1.410
2020/01/31 11:47:07.2	300.980	0.650	-0.390	1.400
2020/01/31 11:47:07.3	300.980	0.650	-0.390	1.400
2020/01/31 11:47:07.4	300.990	0.650	-0.390	1.390
2020/01/31 11:47:07.5	300.990	0.650	-0.390	1.380
2020/01/31 11:47:07.6	300.990	0.650	-0.380	1.370
2020/01/31 11:47:07.7	300.990	0.650	-0.380	1.350
2020/01/31 11:47:07.8	301.000	0.640	-0.370	1.330
2020/01/31 11:47:07.9	301.000	0.630	-0.360	1.320
2020/01/31 11:47:08.0	301.000	0.620	-0.350	1.300
2020/01/31 11:47:08.1	301.000	0.610	-0.340	1.280
2020/01/31 11:47:08.2	301.000	0.600	-0.330	1.260
2020/01/31 11:47:08.3	301.010	0.590	-0.320	1.240
2020/01/31 11:47:08.4	301.010	0.570	-0.300	1.210
2020/01/31 11:47:08.5	301.010	0.560	-0.290	1.190
2020/01/31 11:47:08.6	301.010	0.540	-0.280	1.160
2020/01/31 11:47:08.7	301.010	0.520	-0.270	1.130
2020/01/31 11:47:08.8	301.010	0.510	-0.260	1.110
2020/01/31 11:47:08.9	301.020	0.490	-0.240	1.080
2020/01/31 11:47:09.0	301.020	0.470	-0.230	1.050
2020/01/31 11:47:09.1	301.020	0.450	-0.220	1.020
2020/01/31 11:47:09.2	301.020	0.440	-0.210	0.990
2020/01/31 11:47:09.3	301.030	0.420	-0.200	0.960
2020/01/31 11:47:09.4	301.030	0.400	-0.190	0.930
2020/01/31 11:47:09.5	301.040	0.390	-0.190	0.900
2020/01/31 11:47:09.6	301.040	0.370	-0.180	0.870
2020/01/31 11:47:09.7	301.040	0.360	-0.180	0.840
2020/01/31 11:47:09.8	301.050	0.340	-0.170	0.800
2020/01/31 11:47:09.9	301.050	0.330	-0.170	0.770
2020/01/31 11:47:10.0	301.050	0.320	-0.170	0.740
2020/01/31 11:47:10.1	301.050	0.310	-0.170	0.710
2020/01/31 11:47:10.2	301.050	0.300	-0.170	0.680
2020/01/31 11:47:10.3	301.040	0.290	-0.180	0.650
2020/01/31 11:47:10.4	301.040	0.290	-0.180	0.620
2020/01/31 11:47:10.5	301.040	0.280	-0.190	0.590
2020/01/31 11:47:10.6	301.030	0.270	-0.200	0.570
2020/01/31 11:47:10.7	301.020	0.270	-0.210	0.540
2020/01/31 11:47:10.8	301.020	0.270	-0.220	0.510
2020/01/31 11:47:10.9	301.010	0.260	-0.230	0.490
2020/01/31 11:47:11.0	301.000	0.260	-0.240	0.470
2020/01/31 11:47:11.1	300.990	0.260	-0.250	0.450
2020/01/31 11:47:11.2	300.970	0.260	-0.260	0.430
2020/01/31 11:47:11.3	300.960	0.260	-0.270	0.410
2020/01/31 11:47:11.4	300.950	0.250	-0.280	0.390
2020/01/31 11:47:11.5	300.930	0.250	-0.300	0.370
2020/01/31 11:47:11.6	300.910	0.250	-0.310	0.360
2020/01/31 11:47:11.7	300.890	0.250	-0.320	0.340
2020/01/31 11:47:11.8	300.880	0.250	-0.340	0.330
2020/01/31 11:47:11.9	300.860	0.240	-0.350	0.320
2020/01/31 11:47:12.0	300.840	0.240	-0.360	0.310
2020/01/31 11:47:12.1	300.820	0.230	-0.370	0.300
2020/01/31 11:47:12.2	300.810	0.230	-0.380	0.290
2020/01/31 11:47:12.3	300.790	0.220	-0.380	0.280
2020/01/31 11:47:12.4	300.770	0.210	-0.390	0.280
2020/01/31 11:47:12.5	300.760	0.200	-0.400	0.270
2020/01/31 11:47:12.6	300.740	0.190	-0.400	0.270
2020/01/31 11:47:12.7	300.730	0.180	-0.400	0.270
2020/01/31 11:47:12.8	300.710	0.160	-0.400	0.270
2020/01/31 11:47:12.9	300.700	0.150	-0.400	0.260
2020/01/31 11:47:13.0	300.690	0.130	-0.400	0.260
2020/01/31 11:47:13.1	300.670	0.110	-0.390	0.260
2020/01/31 11:47:13.2	300.660	0.090	-0.390	0.260
2020/01/31 11:47:13.3	300.650	0.070	-0.380	0.260
2020/01/31 11:47:13.4	300.640	0.050	-0.370	0.260
2020/01/31 11:47:13.5	300.640	0.030	-0.360	0.270
2020/01/31 11:47:13.6	300.630	0.000	-0.350	0.270
2020/01/31 11:47:13.7	300.620	-0.020	-0.340	0.270
2020/01/31 11:47:13.8	300.620	-0.050	-0.330	0.270
2020/01/31 11:47:13.9	300.610	-0.070	-0.310	0.270
2020/01/31 11:47:14.0	300.610	-0.100	-0.300	0.270
2020/01/31 11:47:14.1	300.610	-0.130	-0.280	0.270
2020/01/31 11:47:14.2	300.610	-0.160	-0.270	0.270
2020/01/31 11:47:14.3	300.610	-0.180	-0.250	0.260
2020/01/31 11:47:14.4	300.610	-0.210	-0.230	0.260
2020/01/31 11:47:14.5	300.610	-0.240	-0.220	0.260
2020/01/31 11:47:14.6	300.620	-0.270	-0.200	0.260
2020/01/31 11:47:14.7	300.620	-0.290	-0.180	0.250
2020/01/31 11:47:14.8	300.630	-0.320	-0.160	0.250
2020/01/31 11:47:14.9	300.640	-0.340	-0.140	0.250
2020/01/31 11:47:15.0	300.640	-0.370	-0.120	0.250
2020/01/31 11:47:15.1	300.650	-0.390	-0.100	0.250
2020/01/31 11:47:15.2	300.660	-0.410	-0.090	0.250
2020/01/31 11:47:15.3	300.670	-0.430	-0.070	0.250
2020/01/31 11:47:15.4	300.670	-0.450	-0.050	0.250
2020/01/31 11:47:15.5	300.690	-0.470	-0.030	0.250
2020/01/31 11:47:15.6	300.690	-0.480	-0.010	0.250
2020/01/31 11:47:15.7	300.700	-0.500	0.000	0.250
2020/01/31 11:47:15.8	300.710	-0.510	0.010	0.250
2020/01/31 11:47:15.9	300.720	-0.520	0.030	0.260
2020/01/31 11:47:16.0	300.720	-0.530	0.040	0.260
2020/01/31 11:47:16.1	300.730	-0.530	0.040	0.270
2020/01/31 11:47:16.2	300.740	-0.540	0.050	0.270
2020/01/31 11:47:16.3	300.740	-0.540	0.060	0.280
2020/01/31 11:47:16.4	300.750	-0.540	0.060	0.290
2020/01/31 11:47:16.5	300.750	-0.540	0.050	0.300
2020/01/31 11:47:16.6	300.750	-0.530	0.050	0.310
2020/01/31 11:47:16.7	300.760	-0.520	0.050	0.320
2020/01/31 11:47:16.8	300.760	-0.510	0.040	0.340
2020/01/31 11:47:16.9	300.760	-0.500	0.030	0.350
2020/01/31 11:47:17.0	300.760	-0.490	0.020	0.370
2020/01/31 11:47:17.1	300.770	-0.470	0.000	0.390
2020/01/31 11:47:17.2	300.770	-0.450	-0.010	0.410
2020/01/31 11:47:17.3	300.770	-0.430	-0.030	0.430
2020/01/31 11:47:17.4	300.770	-0.410	-0.050	0.450
2020/01/31 11:47:17.5	300.750	-0.380	-0.070	0.470
2020/01/31 11:47:17.6	300.750	-0.360	-0.100	0.490
2020/01/31 11:47:17.7	300.750	-0.330	-0.120	0.510
2020/01/31 11:47:17.8	300.740	-0.300	-0.150	0.530
2020/01/31 11:47:17.9	300.740	-0.270	-0.180	0.560
2020/01/31 11:47:18.0	300.740	-0.240	-0.210	0.580
2020/01/31 11:47:18.1	300.730	-0.200	-0.240	0.600
2020/01/31 11:47:18.2	300.730	-0.170	-0.270	0.630
2020/01/31 11:47:18.3	300.720	-0.130	-0.300	0.650
2020/01/31 11:47:18.4	300.720	-0.100	-0.340	0.670
2020/01/31 11:47:18.5	300.720	-0.070	-0.370	0.690
2020/01/31 11:47:18.6	300.710	-0.030	-0.400	0.710
2020/01/31 11:47:18.7	300.710	0.000	-0.430	0.740
2020/01/31 11:47:18.8	300.700	0.040	-0.470	0.760
2020/01/31 11:47:18.9	300.700	0.070	-0.490	0.780
2020/01/31 11:47:19.0	300.690	0.100	-0.520	0.800
2020/01/31 11:47:19.1	300.690	0.130	-0.550	0.810
2020/01/31 11:47:19.2	300.680	0.160	-0.570	0.830
2020/01/31 11:47:19.3	300.680	0.190	-0.590	0.850
2020/01/31 11:47:19.4	300.670	0.220	-0.610	0.870
2020/01/31 11:47:19.5	300.670	0.240	-0.630	0.880
2020/01/31 11:47:19.6	300.660	0.260	-0.640	0.900
2020/01/31 11:47:19.7	300.650	0.280	-0.650	0.920
2020/01/31 11:47:19.8	300.650	0.300	-0.660	0.940
2020/01/31 11:47:19.9	300.640	0.320	-0.660	0.960
2020/01/31 11:47:20.0	300.630	0.330	-0.660	0.970
2020/01/31 11:47:20.1	300.620	0.340	-0.660	0.990
2020/01/31 11:47:20.2	300.610	0.350	-0.650	1.010
2020/01/31 11:47:20.3	300.600	0.350	-0.650	1.030
2020/01/31 11:47:20.4	300.580	0.350	-0.630	1.060
2020/01/31 11:47:20.5	300.570	0.350	-0.620	1.080
2020/01/31 11:47:20.6	300.560	0.350	-0.600	1.100
2020/01/31 11:47:20.7	300.540	0.350	-0.580	1.120
2020/01/31 11:47:20.8	300.530	0.340	-0.560	1.140
2020/01/31 11:47:20.9	300.510	0.330	-0.530	1.160
2020/01/31 11:47:21.0	300.490	0.320	-0.500	1.180
2020/01/31 11:47:21.1	300.480	0.300	-0.470	1.200
2020/01/31 11:47:21.2	300.460	0.290	-0.440	1.220
2020/01/31 11:47:21.3	300.450	0.270	-0.410	1.240
2020/01/31 11:47:21.4	300.430	0.250	-0.380	1.250
2020/01/31 11:47:21.5	300.420	0.230	-0.350	1.270
2020/01/31 11:47:21.6	300.410	0.210	-0.310	1.280
2020/01/31 11:47:21.7	300.390	0.180	-0.280	1.290
2020/01/31 11:47:21.8	300.380	0.160	-0.250	1.300
2020/01/31 11:47:21.9	300.370	0.130	-0.220	1.300
2020/01/31 11:47:22.0	300.360	0.110	-0.200	1.310
2020/01/31 11:47:22.1	300.350	0.080	-0.170	1.310
2020/01/31 11:47:22.2	300.340	0.060	-0.150	1.310
2020/01/31 11:47:22.3	300.330	0.030	-0.120	1.300
2020/01/31 11:47:22.4	300.330	0.010	-0.110	1.300
2020/01/31 11:47:22.5	300.330	-0.020	-0.090	1.290
2020/01/31 11:47:22.6	300.330	-0.040	-0.070	1.280
2020/01/31 11:47:22.7	300.330	-0.060	-0.060	1.260
2020/01/31 11:47:22.8	300.330	-0.080	-0.050	1.250
2020/01/31 11:47:22.9	300.340	-0.100	-0.040	1.230
2020/01/31 11:47:23.0	300.340	-0.120	-0.040	1.210
2020/01/31 11:47:23.1	300.350	-0.130	-0.030	1.180
2020/01/31 11:47:23.2	300.360	-0.140	-0.030	1.160
2020/01/31 11:47:23.3	300.370	-0.150	-0.030	1.130
2020/01/31 11:47:23.4	300.380	-0.160	-0.030	1.100
2020/01/31 11:47:23.5	300.400	-0.170	-0.040	1.060
2020/01/31 11:47:23.6	300.410	-0.170	-0.040	1.030
2020/01/31 11:47:23.7	300.430	-0.170	-0.050	0.990
2020/01/31 11:47:23.8	300.440	-0.170	-0.050	0.950
2020/01/31 11:47:23.9	300.460	-0.170	-0.060	0.920
2020/01/31 11:47:24.0	300.470	-0.160	-0.070	0.880
2020/01/31 11:47:24.1	300.480	-0.160	-0.080	0.840
2020/01/31 11:47:24.2	300.500	-0.150	-0.090	0.800
2020/01/31 11:47:24.3	300.520	-0.140	-0.090	0.760
2020/01/31 11:47:24.4	300.530	-0.120	-0.100	0.720
2020/01/31 11:47:24.5	300.540	-0.110	-0.110	0.690
2020/01/31 11:47:24.6	300.550	-0.090	-0.120	0.650
2020/01/31 11:47:24.7	300.570	-0.070	-0.130	0.610
2020/01/31 11:47:24.8	300.580	-0.050	-0.130	0.580
2020/01/31 11:47:24.9	300.590	-0.030	-0.140	0.550
2020/01/31 11:47:25.0	300.610	-0.010	-0.140	0.520
2020/01/31 11:47:25.1	300.620	0.010	-0.140	0.490
2020/01/31 11:47:25.2	300.620	0.030	-0.140	0.460
2020/01/31 11:47:25.3	300.630	0.050	-0.140	0.430
2020/01/31 11:47:25.4	300.640	0.070	-0.140	0.410
2020/01/31 11:47:25.5	300.640	0.090	-0.140	0.390
2020/01/31 11:47:25.6	300.640	0.110	-0.140	0.370
2020/01/31 11:47:25.7	300.640	0.130	-0.130	0.350
2020/01/31 11:47:25.8	300.640	0.150	-0.130	0.330
2020/01/31 11:47:25.9	300.640	0.160	-0.120	0.320
2020/01/31 11:47:26.0	300.640	0.180	-0.110	0.310
2020/01/31 11:47:26.1	300.630	0.200	-0.110	0.300
2020/01/31 11:47:26.2	300.630	0.210	-0.100	0.290
2020/01/31 11:47:26.3	300.630	0.220	-0.090	0.280
2020/01/31 11:47:26.4	300.620	0.240	-0.080	0.280
2020/01/31 11:47:26.5	300.620	0.250	-0.070	0.280
2020/01/31 11:47:26.6	300.610	0.260	-0.060	0.280
2020/01/31 11:47:26.7	300.600	0.260	-0.050	0.280
2020/01/31 11:47:26.8	300.590	0.270	-0.040	0.280
2020/01/31 11:47:26.9	300.580	0.280	-0.040	0.290
2020/01/31 11:47:27.0	300.570	0.280	-0.030	0.300
2020/01/31 11:47:27.1	300.560	0.290	-0.020	0.310
2020/01/31 11:47:27.2	300.550	0.290	-0.020	0.320
2020/01/31 11:47:27.3	300.540	0.290	-0.010	0.330
2020/01/31 11:47:27.4	300.530	0.290	-0.010	0.340
2020/01/31 11:47:27.5	300.520	0.290	-0.010	0.360
2020/01/31 11:47:27.6	300.510	0.290	-0.010	0.380
2020/01/31 11:47:27.7	300.490	0.290	-0.010	0.390
2020/01/31 11:47:27.8	300.480	0.290	-0.010	0.410
2020/01/31 11:47:27.9	300.470	0.290	-0.020	0.430
2020/01/31 11:47:28.0	300.460	0.280	-0.020	0.440
2020/01/31 11:47:28.1	300.450	0.280	-0.030	0.460
2020/01/31 11:47:28.2	300.440	0.280	-0.030	0.480
2020/01/31 11:47:28.3	300.430	0.270	-0.040	0.490
2020/01/31 11:47:28.4	300.420	0.270	-0.050	0.510
2020/01/31 11:47:28.5	300.390	0.260	-0.060	0.520
2020/01/31 11:47:28.6	300.380	0.250	-0.080	0.530
2020/01/31 11:47:28.7	300.370	0.250	-0.090	0.550
2020/01/31 11:47:28.8	300.360	0.240	-0.100	0.560
2020/01/31 11:47:28.9	300.350	0.230	-0.120	0.570
2020/01/31 11:47:29.0	300.350	0.220	-0.130	0.580
2020/01/31 11:47:29.1	300.340	0.220	-0.150	0.590
2020/01/31 11:47:29.2	300.330	0.210	-0.160	0.590
2020/01/31 11:47:29.3	300.320	0.200	-0.180	0.600
2020/01/31 11:47:29.4	300.320	0.190	-0.200	0.610
2020/01/31 11:47:29.5	300.310	0.190	-0.220	0.610
2020/01/31 11:47:29.6	300.310	0.180	-0.240	0.620
2020/01/31 11:47:29.7	300.300	0.170	-0.250	0.630
2020/01/31 11:47:29.8	300.300	0.160	-0.270	0.640
2020/01/31 11:47:29.9	300.300	0.160	-0.290	0.640
2020/01/31 11:47:30.0	300.300	0.150	-0.310	0.650
2020/01/31 11:47:30.1	300.290	0.140	-0.330	0.660
2020/01/31 11:47:30.2	300.290	0.130	-0.350	0.670
2020/01/31 11:47:30.3	300.290	0.130	-0.370	0.670
2020/01/31 11:47:30.4	300.290	0.120	-0.390	0.680
2020/01/31 11:47:30.5	300.290	0.110	-0.400	0.690
2020/01/31 11:47:30.6	300.290	0.110	-0.420	0.700
2020/01/31 11:47:30.7	300.290	0.100	-0.440	0.700
2020/01/31 11:47:30.8	300.290	0.100	-0.460	0.710
2020/01/31 11:47:30.9	300.300	0.090	-0.480	0.720
2020/01/31 11:47:31.0	300.300	0.090	-0.490	0.720
2020/01/31 11:47:31.1	300.310	0.080	-0.510	0.730
2020/01/31 11:47:31.2	300.310	0.080	-0.520	0.730
2020/01/31 11:47:31.3	300.320	0.070	-0.540	0.740
2020/01/31 11:47:31.4	300.320	0.060	-0.550	0.750
2020/01/31 11:47:31.5	300.330	0.060	-0.560	0.750
2020/01/31 11:47:31.6	300.330	0.050	-0.570	0.760
2020/01/31 11:47:31.7	300.340	0.050	-0.580	0.770
2020/01/31 11:47:31.8	300.340	0.040	-0.580	0.770
2020/01/31 11:47:31.9	300.340	0.030	-0.580	0.780
2020/01/31 11:47:32.0	300.350	0.020	-0.590	0.790
2020/01/31 11:47:32.1	300.350	0.010	-0.590	0.800
2020/01/31 11:47:32.2	300.350	0.010	-0.590	0.810
2020/01/31 11:47:32.3	300.350	-0.000	-0.580	0.810
2020/01/31 11:47:32.4	300.360	-0.020	-0.580	0.820
2020/01/31 11:47:32.5	300.370	-0.030	-0.570	0.820
2020/01/31 11:47:32.6	300.370	-0.040	-0.570	0.830
2020/01/31 11:47:32.7	300.370	-0.050	-0.560	0.830
2020/01/31 11:47:32.8	300.380	-0.070	-0.550	0.830
2020/01/31 11:47:32.9	300.380	-0.080	-0.540	0.830
2020/01/31 11:47:33.0	300.390	-0.100	-0.540	0.820
2020/01/31 11:47:33.1	300.390	-0.110	-0.530	0.810
2020/01/31 11:47:33.2	300.400	-0.130	-0.520	0.800
2020/01/31 11:47:33.3	300.410	-0.140	-0.510	0.790
2020/01/31 11:47:33.4	300.410	-0.160	-0.500	0.780
2020/01/31 11:47:33.5	300.430	-0.180	-0.490	0.760
2020/01/31 11:47:33.6	300.440	-0.200	-0.490	0.740
2020/01/31 11:47:33.7	300.450	-0.210	-0.480	0.720
2020/01/31 11:47:33.8	300.460	-0.230	-0.470	0.700
2020/01/31 11:47:33.9	300.460	-0.250	-0.460	0.680
2020/01/31 11:47:34.0	300.470	-0.260	-0.450	0.650
2020/01/31 11:47:34.1	300.480	-0.280	-0.450	0.620
2020/01/31 11:47:34.2	300.490	-0.300	-0.440	0.600
2020/01/31 11:47:34.3	300.500	-0.310	-0.430	0.570
2020/01/31 11:47:34.4	300.500	-0.330	-0.420	0.540
2020/01/31 11:47:34.5	300.520	-0.340	-0.400	0.510
2020/01/31 11:47:34.6	300.520	-0.350	-0.390	0.480
2020/01/31 11:47:34.7	300.530	-0.360	-0.380	0.450
2020/01/31 11:47:34.8	300.530	-0.380	-0.360	0.430
2020/01/31 11:47:34.9	300.530	-0.390	-0.350	0.400
2020/01/31 11:47:35.0	300.530	-0.400	-0.330	0.370
2020/01/31 11:47:35.1	300.530	-0.400	-0.320	0.350
2020/01/31 11:47:35.2	300.530	-0.410	-0.300	0.330
2020/01/31 11:47:35.3	300.520	-0.420	-0.280	0.310
2020/01/31 11:47:35.4	300.520	-0.420	-0.260	0.290
2020/01/31 11:47:35.5	300.510	-0.420	-0.240	0.280
2020/01/31 11:47:35.6	300.510	-0.420	-0.220	0.260
2020/01/31 11:47:35.7	300.500	-0.420	-0.200	0.250
2020/01/31 11:47:35.8	300.490	-0.420	-0.180	0.240
2020/01/31 11:47:35.9	300.490	-0.420	-0.160	0.230
2020/01/31 11:47:36.0	300.480	-0.420	-0.140	0.230
2020/01/31 11:47:36.1	300.470	-0.410	-0.120	0.220
2020/01/31 11:47:36.2	300.460	-0.410	-0.110	0.220
2020/01/31 11:47:36.3	300.450	-0.400	-0.090	0.220
2020/01/31 11:47:36.4	300.440	-0.390	-0.070	0.220
2020/01/31 11:47:36.5	300.430	-0.380	-0.050	0.230
2020/01/31 11:47:36.6	300.420	-0.370	-0.040	0.230
2020/01/31 11:47:36.7	300.400	-0.360	-0.030	0.240
2020/01/31 11:47:36.8	300.390	-0.340	-0.010	0.250
2020/01/31 11:47:36.9	300.380	-0.330	-0.000	0.260
2020/01/31 11:47:37.0	300.370	-0.310	0.000	0.270
2020/01/31 11:47:37.1	300.360	-0.300	0.010	0.280
2020/01/31 11:47:37.2	300.350	-0.280	0.020	0.300
2020/01/31 11:47:37.3	300.340	-0.270	0.020	0.310
2020/01/31 11:47:37.4	300.330	-0.250	0.020	0.330
2020/01/31 11:47:37.5	300.320	-0.230	0.030	0.340
2020/01/31 11:47:37.6	300.310	-0.210	0.030	0.360
2020/01/31 11:47:37.7	300.300	-0.200	0.020	0.370
2020/01/31 11:47:37.8	300.300	-0.180	0.020	0.390
2020/01/31 11:47:37.9	300.290	-0.160	0.010	0.410
2020/01/31 11:47:38.0	300.290	-0.140	0.010	0.430
2020/01/31 11:47:38.1	300.280	-0.120	-0.000	0.450
2020/01/31 11:47:38.2	300.280	-0.100	-0.010	0.470
2020/01/31 11:47:38.3	300.280	-0.080	-0.020	0.490
2020/01/31 11:47:38.4	300.280	-0.060	-0.030	0.510
2020/01/31 11:47:38.5	300.280	-0.030	-0.050	0.530
2020/01/31 11:47:38.6	300.280	-0.010	-0.060	0.560
2020/01/31 11:47:38.7	300.280	0.010	-0.070	0.580
2020/01/31 11:47:38.8	300.280	0.030	-0.090	0.610
2020/01/31 11:47:38.9	300.280	0.050	-0.100	0.630
2020/01/31 11:47:39.0	300.290	0.070	-0.110	0.660
2020/01/31 11:47:39.1	300.290	0.100	-0.120	0.690
2020/01/31 11:47:39.2	300.290	0.120	-0.140	0.710
2020/01/31 11:47:39.3	300.290	0.140	-0.150	0.740
2020/01/31 11:47:39.4	300.300	0.160	-0.160	0.770
2020/01/31 11:47:39.5	300.300	0.180	-0.160	0.800
2020/01/31 11:47:39.6	300.300	0.190	-0.170	0.830
2020/01/31 11:47:39.7	300.300	0.210	-0.180	0.860
2020/01/31 11:47:39.8	300.310	0.230	-0.180	0.890
2020/01/31 11:47:39.9	300.310	0.250	-0.180	0.920
2020/01/31 11:47:40.0	300.310	0.260	-0.180	0.950
2020/01/31 11:47:40.1	300.320	0.280	-0.180	0.980
2020/01/31 11:47:40.2	300.320	0.290	-0.180	1.000
2020/01/31 11:47:40.3	300.320	0.300	-0.180	1.030
2020/01/31 11:47:40.4	300.330	0.310	-0.180	1.050
2020/01/31 11:47:40.5	300.340	0.320	-0.170	1.080
2020/01/31 11:47:40.6	300.340	0.330	-0.170	1.100
2020/01/31 11:47:40.7	300.350	0.340	-0.160	1.120
2020/01/31 11:47:40.8	300.350	0.340	-0.160	1.130
2020/01/31 11:47:40.9	300.360	0.340	-0.150	1.150
2020/01/31 11:47:41.0	300.360	0.350	-0.140	1.160
2020/01/31 11:47:41.1	300.370	0.350	-0.140	1.170
2020/01/31 11:47:41.2	300.370	0.350	-0.130	1.180
2020/01/31 11:47:41.3	300.380	0.350	-0.120	1.190
2020/01/31 11:47:41.4	300.390	0.340	-0.120	1.190
2020/01/31 11:47:41.5	300.400	0.340	-0.110	1.190
2020/01/31 11:47:41.6	300.400	0.340	-0.110	1.190
2020/01/31 11:47:41.7	300.410	0.330	-0.100	1.190
2020/01/31 11:47:41.8	300.410	0.320	-0.100	1.180
2020/01/31 11:47:41.9	300.410	0.310	-0.100	1.180
2020/01/31 11:47:42.0	300.420	0.310	-0.090	1.160
2020/01/31 11:47:42.1	300.420	0.300	-0.090	1.150
2020/01/31 11:47:42.2	300.420	0.290	-0.100	1.130
2020/01/31 11:47:42.3	300.420	0.280	-0.100	1.120
2020/01/31 11:47:42.4	300.420	0.260	-0.100	1.100
2020/01/31 11:47:42.5	300.430	0.250	-0.110	1.070
2020/01/31 11:47:42.6	300.430	0.240	-0.120	1.050
2020/01/31 11:47:42.7	300.420	0.230	-0.120	1.030
2020/01/31 11:47:42.8	300.420	0.220	-0.130	1.000
2020/01/31 11:47:42.9	300.420	0.210	-0.140	0.970
2020/01/31 11:47:43.0	300.410	0.200	-0.150	0.950
2020/01/31 11:47:43.1	300.410	0.190	-0.160	0.920
2020/01/31 11:47:43.2	300.400	0.180	-0.180	0.890
2020/01/31 11:47:43.3	300.400	0.170	-0.190	0.860
2020/01/31 11:47:43.4	300.390	0.160	-0.200	0.840
2020/01/31 11:47:43.5	300.400	0.150	-0.220	0.810
2020/01/31 11:47:43.6	300.390	0.150	-0.230	0.780
2020/01/31 11:47:43.7	300.380	0.140	-0.250	0.750
2020/01/31 11:47:43.8	300.380	0.130	-0.260	0.720
2020/01/31 11:47:43.9	300.370	0.130	-0.280	0.700
2020/01/31 11:47:44.0	300.360	0.120	-0.290	0.670
2020/01/31 11:47:44.1	300.350	0.120	-0.310	0.640
2020/01/31 11:47:44.2	300.340	0.110	-0.330	0.620
2020/01/31 11:47:44.3	300.330	0.110	-0.340	0.590
2020/01/31 11:47:44.4	300.330	0.100	-0.350	0.570
2020/01/31 11:47:44.5	300.310	0.100	-0.370	0.540
2020/01/31 11:47:44.6	300.300	0.100	-0.380	0.520
2020/01/31 11:47:44.7	300.290	0.090	-0.390	0.500
2020/01/31 11:47:44.8	300.280	0.090	-0.400	0.480
2020/01/31 11:47:44.9	300.270	0.090	-0.410	0.460
2020/01/31 11:47:45.0	300.260	0.090	-0.420	0.450
2020/01/31 11:47:45.1	300.250	0.080	-0.430	0.440
2020/01/31 11:47:45.2	300.250	0.080	-0.440	0.420
2020/01/31 11:47:45.3	300.240	0.080	-0.450	0.410
2020/01/31 11:47:45.4	300.230	0.080	-0.450	0.400
2020/01/31 11:47:45.5	300.220	0.070	-0.460	0.400
2020/01/31 11:47:45.6	300.210	0.070	-0.460	0.390
2020/01/31 11:47:45.7	300.200	0.070	-0.470	0.390
2020/01/31 11:47:45.8	300.190	0.070	-0.470	0.390
2020/01/31 11:47:45.9	300.180	0.060	-0.470	0.380
2020/01/31 11:47:46.0	300.180	0.060	-0.460	0.380
2020/01/31 11:47:46.1	300.170	0.050	-0.460	0.380
2020/01/31 11:47:46.2	300.160	0.050	-0.460	0.380
2020/01/31 11:47:46.3	300.160	0.050	-0.450	0.380
2020/01/31 11:47:46.4	300.150	0.040	-0.450	0.380
2020/01/31 11:47:46.5	300.140	0.030	-0.440	0.380
2020/01/31 11:47:46.6	300.130	0.030	-0.440	0.380
2020/01/31 11:47:46.7	300.130	0.020	-0.430	0.380
2020/01/31 11:47:46.8	300.130	0.020	-0.420	0.380
2020/01/31 11:47:46.9	300.120	0.010	-0.420	0.380
2020/01/31 11:47:47.0	300.120	0.000	-0.410	0.380
2020/01/31 11:47:47.1	300.120	-0.010	-0.400	0.380
2020/01/31 11:47:47.2	300.120	-0.020	-0.390	0.380
2020/01/31 11:47:47.3	300.120	-0.030	-0.380	0.380
2020/01/31 11:47:47.4	300.130	-0.040	-0.380	0.380
2020/01/31 11:47:47.5	300.120	-0.050	-0.370	0.380
2020/01/31 11:47:47.6	300.120	-0.060	-0.360	0.370
2020/01/31 11:47:47.7	300.120	-0.070	-0.350	0.370
2020/01/31 11:47:47.8	300.130	-0.080	-0.340	0.370
2020/01/31 11:47:47.9	300.130	-0.090	-0.330	0.370
2020/01/31 11:47:48.0	300.130	-0.110	-0.320	0.370
2020/01/31 11:47:48.1	300.130	-0.120	-0.310	0.370
2020/01/31 11:47:48.2	300.140	-0.130	-0.300	0.360
2020/01/31 11:47:48.3	300.140	-0.150	-0.300	0.360
2020/01/31 11:47:48.4	300.140	-0.160	-0.290	0.360
2020/01/31 11:47:48.5	300.140	-0.170	-0.280	0.360
2020/01/31 11:47:48.6	300.140	-0.190	-0.270	0.360
2020/01/31 11:47:48.7	300.150	-0.200	-0.270	0.360
2020/01/31 11:47:48.8	300.150	-0.210	-0.260	0.360
2020/01/31 11:47:48.9	300.150	-0.230	-0.250	0.360
2020/01/31 11:47:49.0	300.150	-0.240	-0.250	0.360
2020/01/31 11:47:49.1	300.150	-0.250	-0.240	0.360
2020/01/31 11:47:49.2	300.150	-0.270	-0.230	0.370
2020/01/31 11:47:49.3	300.150	-0.280	-0.230	0.370
2020/01/31 11:47:49.4	300.160	-0.290	-0.220	0.370
2020/01/31 11:47:49.5	300.160	-0.300	-0.220	0.380
2020/01/31 11:47:49.6	300.160	-0.310	-0.220	0.380
2020/01/31 11:47:49.7	300.170	-0.320	-0.210	0.390
2020/01/31 11:47:49.8	300.170	-0.330	-0.210	0.390
2020/01/31 11:47:49.9	300.180	-0.340	-0.210	0.400
2020/01/31 11:47:50.0	300.180	-0.350	-0.210	0.410
2020/01/31 11:47:50.1	300.190	-0.350	-0.200	0.420
2020/01/31 11:47:50.2	300.190	-0.360	-0.200	0.440
2020/01/31 11:47:50.3	300.200	-0.360	-0.200	0.450
2020/01/31 11:47:50.4	300.200	-0.360	-0.210	0.470
2020/01/31 11:47:50.5	300.210	-0.370	-0.210	0.490
2020/01/31 11:47:50.6	300.220	-0.370	-0.210	0.510
2020/01/31 11:47:50.7	300.230	-0.360	-0.210	0.520
2020/01/31 11:47:50.8	300.230	-0.360	-0.220	0.550
2020/01/31 11:47:50.9	300.240	-0.360	-0.220	0.570
2020/01/31 11:47:51.0	300.250	-0.350	-0.230	0.590
2020/01/31 11:47:51.1	300.260	-0.340	-0.230	0.620
2020/01/31 11:47:51.2	300.260	-0.340	-0.240	0.640
2020/01/31 11:47:51.3	300.270	-0.330	-0.250	0.670
2020/01/31 11:47:51.4	300.280	-0.320	-0.250	0.700
2020/01/31 11:47:51.5	300.270	-0.310	-0.260	0.730
2020/01/31 11:47:51.6	300.280	-0.290	-0.270	0.760
2020/01/31 11:47:51.7	300.290	-0.280	-0.280	0.790
2020/01/31 11:47:51.8	300.290	-0.260	-0.290	0.820
2020/01/31 11:47:51.9	300.290	-0.250	-0.300	0.840
2020/01/31 11:47:52.0	300.300	-0.230	-0.310	0.870
2020/01/31 11:47:52.1	300.300	-0.220	-0.320	0.900
2020/01/31 11:47:52.2	300.310	-0.200	-0.330	0.930
2020/01/31 11:47:52.3	300.310	-0.180	-0.330	0.960
2020/01/31 11:47:52.4	300.310	-0.160	-0.340	0.980
2020/01/31 11:47:52.5	300.320	-0.140	-0.350	1.010
2020/01/31 11:47:52.6	300.320	-0.120	-0.360	1.030
2020/01/31 11:47:52.7	300.320	-0.100	-0.370	1.050
2020/01/31 11:47:52.8	300.320	-0.080	-0.370	1.080
2020/01/31 11:47:52.9	300.320	-0.060	-0.380	1.100
2020/01/31 11:47:53.0	300.320	-0.040	-0.380	1.110
2020/01/31 11:47:53.1	300.320	-0.020	-0.380	1.130
2020/01/31 11:47:53.2	300.320	-0.000	-0.390	1.150
2020/01/31 11:47:53.3	300.330	0.020	-0.390	1.160
2020/01/31 11:47:53.4	300.330	0.040	-0.390	1.170
2020/01/31 11:47:53.5	300.330	0.050	-0.380	1.190
2020/01/31 11:47:53.6	300.330	0.070	-0.380	1.200
2020/01/31 11:47:53.7	300.330	0.090	-0.380	1.210
2020/01/31 11:47:53.8	300.330	0.110	-0.370	1.210
2020/01/31 11:47:53.9	300.330	0.120	-0.360	1.220
2020/01/31 11:47:54.0	300.330	0.140	-0.350	1.230
2020/01/31 11:47:54.1	300.330	0.150	-0.340	1.230
2020/01/31 11:47:54.2	300.330	0.170	-0.330	1.240
2020/01/31 11:47:54.3	300.330	0.180	-0.310	1.240
2020/01/31 11:47:54.4	300.330	0.190	-0.300	1.250
2020/01/31 11:47:54.5	300.330	0.200	-0.280	1.250
2020/01/31 11:47:54.6	300.320	0.210	-0.260	1.250
2020/01/31 11:47:54.7	300.320	0.220	-0.240	1.250
2020/01/31 11:47:54.8	300.320	0.220	-0.220	1.250
2020/01/31 11:47:54.9	300.320	0.230	-0.200	1.250
2020/01/31 11:47:55.0	300.310	0.230	-0.180	1.250
2020/01/31 11:47:55.1	300.310	0.230	-0.160	1.250
2020/01/31 11:47:55.2	300.310	0.230	-0.130	1.250
2020/01/31 11:47:55.3	300.300	0.230	-0.110	1.240
2020/01/31 11:47:55.4	300.300	0.230	-0.080	1.240
2020/01/31 11:47:55.5	300.300	0.220	-0.060	1.230
2020/01/31 11:47:55.6	300.300	0.220	-0.030	1.220
2020/01/31 11:47:55.7	300.290	0.210	-0.010	1.210
2020/01/31 11:47:55.8	300.290	0.200	0.020	1.200
2020/01/31 11:47:55.9	300.280	0.190	0.040	1.190
2020/01/31 11:47:56.0	300.280	0.180	0.070	1.180
2020/01/31 11:47:56.1	300.270	0.170	0.090	1.170
2020/01/31 11:47:56.2	300.260	0.150	0.120	1.160
2020/01/31 11:47:56.3	300.260	0.140	0.140	1.140
2020/01/31 11:47:56.4	300.250	0.130	0.170	1.130
2020/01/31 11:47:56.5	300.240	0.110	0.190	1.110
2020/01/31 11:47:56.6	300.230	0.090	0.210	1.100
2020/01/31 11:47:56.7	300.220	0.080	0.230	1.080
2020/01/31 11:47:56.8	300.210	0.060	0.250	1.060
2020/01/31 11:47:56.9	300.190	0.040	0.270	1.040
2020/01/31 11:47:57.0	300.180	0.030	0.280	1.020
2020/01/31 11:47:57.1	300.160	0.010	0.300	1.000
2020/01/31 11:47:57.2	300.150	-0.010	0.310	0.980
2020/01/31 11:47:57.3	300.130	-0.020	0.320	0.950
2020/01/31 11:47:57.4	300.120	-0.040	0.320	0.930
2020/01/31 11:47:57.5	300.110	-0.050	0.330	0.900
2020/01/31 11:47:57.6	300.090	-0.070	0.330	0.870
2020/01/31 11:47:57.7	300.080	-0.080	0.320	0.840
2020/01/31 11:47:57.8	300.070	-0.090	0.320	0.810
2020/01/31 11:47:57.9	300.060	-0.110	0.310	0.780
2020/01/31 11:47:58.0	300.050	-0.110	0.300	0.740
2020/01/31 11:47:58.1	300.040	-0.120	0.280	0.710
2020/01/31 11:47:58.2	300.030	-0.130	0.260	0.670
2020/01/31 11:47:58.3	300.020	-0.140	0.240	0.630
2020/01/31 11:47:58.4	300.010	-0.140	0.210	0.590
2020/01/31 11:47:58.5	300.010	-0.140	0.180	0.550
2020/01/31 11:47:58.6	300.000	-0.140	0.150	0.520
2020/01/31 11:47:58.7	300.000	-0.140	0.110	0.480
2020/01/31 11:47:58.8	300.000	-0.140	0.080	0.440
2020/01/31 11:47:58.9	299.990	-0.130	0.040	0.400
2020/01/31 11:47:59.0	299.990	-0.120	-0.000	0.360
2020/01/31 11:47:59.1	299.990	-0.120	-0.050	0.320
2020/01/31 11:47:59.2	299.990	-0.110	-0.100	0.280
2020/01/31 11:47:59.3	299.990	-0.090	-0.140	0.250
2020/01/31 11:47:59.4	299.990	-0.080	-0.190	0.210
2020/01/31 11:47:59.5	299.990	-0.060	-0.240	0.170
2020/01/31 11:47:59.6	299.990	-0.050	-0.290	0.140
2020/01/31 11:47:59.7	299.990	-0.030	-0.340	0.110
2020/01/31 11:47:59.8	300.000	-0.010	-0.400	0.080
2020/01/31 11:47:59.9	300.000	0.010	-0.450	0.050
2020/01/31 11:48:00.0	300.010	0.030	-0.500	0.020
2020/01/31 11:48:00.1	300.010	0.050	-0.550	-0.000
2020/01/31 11:48:00.2	300.020	0.080	-0.600	-0.020
2020/01/31 11:48:00.3	300.030	0.100	-0.650	-0.040
2020/01/31 11:48:00.4	300.040	0.120	-0.700	-0.060
2020/01/31 11:48:00.5	300.050	0.140	-0.750	-0.080
2020/01/31 11:48:00.6	300.060	0.170	-0.790	-0.090
2020/01/31 11:48:00.7	300.070	0.190	-0.830	-0.100
2020/01/31 11:48:00.8	300.090	0.210	-0.870	-0.110
2020/01/31 11:48:00.9	300.100	0.230	-0.910	-0.110
2020/01/31 11:48:01.0	300.110	0.250	-0.940	-0.120
2020/01/31 11:48:01.1	300.130	0.270	-0.970	-0.120
2020/01/31 11:48:01.2	300.140	0.290	-0.990	-0.120
2020/01/31 11:48:01.3	300.160	0.310	-1.010	-0.110
2020/01/31 11:48:01.4	300.170	0.320	-1.030	-0.110
2020/01/31 11:48:01.5	300.190	0.330	-1.040	-0.100
2020/01/31 11:48:01.6	300.210	0.350	-1.050	-0.090
2020/01/31 11:48:01.7	300.220	0.360	-1.060	-0.070
2020/01/31 11:48:01.8	300.240	0.360	-1.060	-0.060
2020/01/31 11:48:01.9	300.250	0.370	-1.050	-0.040
2020/01/31 11:48:02.0	300.270	0.370	-1.050	-0.020
2020/01/31 11:48:02.1	300.280	0.370	-1.040	0.000
2020/01/31 11:48:02.2	300.300	0.370	-1.020	0.020
2020/01/31 11:48:02.3	300.310	0.360	-1.000	0.040
2020/01/31 11:48:02.4	300.330	0.360	-0.980	0.060
2020/01/31 11:48:02.5	300.360	0.350	-0.950	0.090
2020/01/31 11:48:02.6	300.370	0.330	-0.920	0.120
2020/01/31 11:48:02.7	300.390	0.320	-0.890	0.140
2020/01/31 11:48:02.8	300.400	0.300	-0.850	0.160
2020/01/31 11:48:02.9	300.410	0.290	-0.810	0.180
2020/01/31 11:48:03.0	300.430	0.260	-0.760	0.210
2020/01/31 11:48:03.1	300.440	0.240	-0.720	0.230
2020/01/31 11:48:03.2	300.460	0.220	-0.670	0.250
2020/01/31 11:48:03.3	300.470	0.190	-0.610	0.270
2020/01/31 11:48:03.4	300.490	0.160	-0.560	0.290
2020/01/31 11:48:03.5	300.510	0.130	-0.510	0.320
2020/01/31 11:48:03.6	300.520	0.100	-0.450	0.340
2020/01/31 11:48:03.7	300.530	0.070	-0.390	0.360
2020/01/31 11:48:03.8	300.540	0.040	-0.340	0.380
2020/01/31 11:48:03.9	300.550	0.000	-0.280	0.410
2020/01/31 11:48:04.0	300.560	-0.030	-0.230	0.430
2020/01/31 11:48:04.1	300.570	-0.070	-0.170	0.460
2020/01/31 11:48:04.2	300.570	-0.100	-0.120	0.480
2020/01/31 11:48:04.3	300.580	-0.140	-0.060	0.510
2020/01/31 11:48:04.4	300.580	-0.170	-0.010	0.530
2020/01/31 11:48:04.5	300.580	-0.210	0.030	0.560
2020/01/31 11:48:04.6	300.580	-0.240	0.080	0.590
2020/01/31 11:48:04.7	300.590	-0.270	0.120	0.610
2020/01/31 11:48:04.8	300.590	-0.300	0.160	0.640
2020/01/31 11:48:04.9	300.590	-0.340	0.200	0.670
2020/01/31 11:48:05.0	300.590	-0.360	0.230	0.700
2020/01/31 11:48:05.1	300.590	-0.390	0.260	0.720
2020/01/31 11:48:05.2	300.580	-0.420	0.290	0.750
2020/01/31 11:48:05.3	300.580	-0.440	0.310	0.770
2020/01/31 11:48:05.4	300.580	-0.470	0.330	0.800
2020/01/31 11:48:05.5	300.570	-0.490	0.340	0.820
2020/01/31 11:48:05.6	300.560	-0.510	0.350	0.840
2020/01/31 11:48:05.7	300.560	-0.520	0.360	0.860
2020/01/31 11:48:05.8	300.550	-0.540	0.360	0.880
2020/01/31 11:48:05.9	300.540	-0.550	0.360	0.900
2020/01/31 11:48:06.0	300.530	-0.560	0.360	0.920
2020/01/31 11:48:06.1	300.530	-0.570	0.350	0.940
2020/01/31 11:48:06.2	300.520	-0.570	0.340	0.950
2020/01/31 11:48:06.3	300.510	-0.580	0.320	0.960
2020/01/31 11:48:06.4	300.500	-0.580	0.310	0.970
2020/01/31 11:48:06.5	300.490	-0.580	0.280	0.980
2020/01/31 11:48:06.6	300.480	-0.580	0.260	0.990
2020/01/31 11:48:06.7	300.470	-0.570	0.240	0.990
2020/01/31 11:48:06.8	300.460	-0.570	0.210	0.990
2020/01/31 11:48:06.9	300.460	-0.560	0.190	0.990
2020/01/31 11:48:07.0	300.450	-0.550	0.160	0.980
2020/01/31 11:48:07.1	300.440	-0.540	0.130	0.980
2020/01/31 11:48:07.2	300.430	-0.520	0.100	0.970
2020/01/31 11:48:07.3	300.430	-0.510	0.070	0.960
2020/01/31 11:48:07.4	300.420	-0.500	0.040	0.940
2020/01/31 11:48:07.5	300.420	-0.480	0.010	0.930
2020/01/31 11:48:07.6	300.410	-0.460	-0.010	0.910
2020/01/31 11:48:07.7	300.400	-0.440	-0.040	0.890
2020/01/31 11:48:07.8	300.400	-0.420	-0.060	0.870
2020/01/31 11:48:07.9	300.390	-0.400	-0.090	0.850
2020/01/31 11:48:08.0	300.390	-0.380	-0.110	0.820
2020/01/31 11:48:08.1	300.380	-0.360	-0.130	0.800
2020/01/31 11:48:08.2	300.380	-0.340	-0.160	0.780
2020/01/31 11:48:08.3	300.380	-0.320	-0.180	0.750
2020/01/31 11:48:08.4	300.370	-0.300	-0.190	0.730
2020/01/31 11:48:08.5	300.380	-0.270	-0.210	0.700
2020/01/31 11:48:08.6	300.380	-0.250	-0.230	0.680
2020/01/31 11:48:08.7	300.370	-0.230	-0.240	0.650
2020/01/31 11:48:08.8	300.370	-0.200	-0.250	0.630
2020/01/31 11:48:08.9	300.370	-0.180	-0.260	0.610
2020/01/31 11:48:09.0	300.360	-0.160	-0.280	0.590
2020/01/31 11:48:09.1	300.360	-0.130	-0.290	0.560
2020/01/31 11:48:09.2	300.360	-0.110	-0.290	0.540
2020/01/31 11:48:09.3	300.360	-0.090	-0.300	0.520
2020/01/31 11:48:09.4	300.360	-0.060	-0.310	0.500
2020/01/31 11:48:09.5	300.350	-0.040	-0.320	0.480
2020/01/31 11:48:09.6	300.350	-0.020	-0.320	0.460
2020/01/31 11:48:09.7	300.350	0.000	-0.330	0.450
2020/01/31 11:48:09.8	300.360	0.030	-0.330	0.430
2020/01/31 11:48:09.9	300.360	0.050	-0.340	0.410
2020/01/31 11:48:10.0	300.360	0.070	-0.340	0.400
2020/01/31 11:48:10.1	300.370	0.100	-0.340	0.380
2020/01/31 11:48:10.2	300.370	0.120	-0.350	0.370
2020/01/31 11:48:10.3	300.370	0.140	-0.350	0.360
2020/01/31 11:48:10.4	300.380	0.160	-0.350	0.350
2020/01/31 11:48:10.5	300.370	0.180	-0.360	0.340
2020/01/31 11:48:10.6	300.380	0.210	-0.360	0.330
2020/01/31 11:48:10.7	300.380	0.230	-0.360	0.330
2020/01/31 11:48:10.8	300.390	0.250	-0.360	0.320
2020/01/31 11:48:10.9	300.390	0.270	-0.370	0.320
2020/01/31 11:48:11.0	300.400	0.290	-0.370	0.320
2020/01/31 11:48:11.1	300.400	0.310	-0.370	0.330
2020/01/31 11:48:11.2	300.410	0.330	-0.380	0.330
2020/01/31 11:48:11.3	300.420	0.350	-0.380	0.340
2020/01/31 11:48:11.4	300.430	0.370	-0.390	0.340
2020/01/31 11:48:11.5	300.440	0.380	-0.390	0.350
2020/01/31 11:48:11.6	300.450	0.400	-0.400	0.360
2020/01/31 11:48:11.7	300.460	0.410	-0.410	0.370
2020/01/31 11:48:11.8	300.470	0.430	-0.410	0.390
2020/01/31 11:48:11.9	300.480	0.440	-0.420	0.400
2020/01/31 11:48:12.0	300.490	0.460	-0.430	0.420
2020/01/31 11:48:12.1	300.500	0.470	-0.440	0.430
2020/01/31 11:48:12.2	300.510	0.480	-0.450	0.450
2020/01/31 11:48:12.3	300.530	0.490	-0.460	0.470
2020/01/31 11:48:12.4	300.540	0.500	-0.470	0.490
2020/01/31 11:48:12.5	300.560	0.510	-0.480	0.520
2020/01/31 11:48:12.6	300.570	0.510	-0.490	0.540
2020/01/31 11:48:12.7	300.580	0.520	-0.500	0.560
2020/01/31 11:48:12.8	300.590	0.520	-0.510	0.580
2020/01/31 11:48:12.9	300.600	0.520	-0.520	0.600
2020/01/31 11:48:13.0	300.610	0.520	-0.530	0.620
2020/01/31 11:48:13.1	300.620	0.520	-0.540	0.640
2020/01/31 11:48:13.2	300.620	0.520	-0.550	0.660
2020/01/31 11:48:13.3	300.630	0.510	-0.560	0.680
2020/01/31 11:48:13.4	300.640	0.510	-0.560	0.700
2020/01/31 11:48:13.5	300.650	0.500	-0.570	0.720
2020/01/31 11:48:13.6	300.660	0.500	-0.570	0.740
2020/01/31 11:48:13.7	300.670	0.490	-0.570	0.760
2020/01/31 11:48:13.8	300.670	0.480	-0.570	0.780
2020/01/31 11:48:13.9	300.680	0.460	-0.570	0.800
2020/01/31 11:48:14.0	300.690	0.450	-0.570	0.810
2020/01/31 11:48:14.1	300.690	0.430	-0.560	0.830
2020/01/31 11:48:14.2	300.700	0.420	-0.550	0.850
2020/01/31 11:48:14.3	300.700	0.400	-0.540	0.870
2020/01/31 11:48:14.4	300.700	0.380	-0.530	0.880
2020/01/31 11:48:14.5	300.700	0.360	-0.510	0.900
2020/01/31 11:48:14.6	300.710	0.340	-0.490	0.920
2020/01/31 11:48:14.7	300.710	0.320	-0.470	0.940
2020/01/31 11:48:14.8	300.710	0.300	-0.450	0.950
2020/01/31 11:48:14.9	300.710	0.270	-0.420	0.970
2020/01/31 11:48:15.0	300.710	0.250	-0.390	0.980
2020/01/31 11:48:15.1	300.710	0.220	-0.360	1.000
2020/01/31 11:48:15.2	300.710	0.190	-0.330	1.010
2020/01/31 11:48:15.3	300.710	0.170	-0.290	1.020
2020/01/31 11:48:15.4	300.700	0.140	-0.260	1.040
2020/01/31 11:48:15.5	300.700	0.110	-0.220	1.050
2020/01/31 11:48:15.6	300.700	0.080	-0.180	1.060
2020/01/31 11:48:15.7	300.690	0.050	-0.130	1.070
2020/01/31 11:48:15.8	300.690	0.020	-0.090	1.080
2020/01/31 11:48:15.9	300.680	-0.010	-0.050	1.080
2020/01/31 11:48:16.0	300.670	-0.050	-0.000	1.090
2020/01/31 11:48:16.1	300.670	-0.080	0.040	1.090
2020/01/31 11:48:16.2	300.660	-0.110	0.080	1.090
2020/01/31 11:48:16.3	300.650	-0.140	0.130	1.090
2020/01/31 11:48:16.4	300.650	-0.170	0.170	1.090
2020/01/31 11:48:16.5	300.640	-0.200	0.200	1.080
2020/01/31 11:48:16.6	300.630	-0.230	0.240	1.070
2020/01/31 11:48:16.7	300.630	-0.260	0.280	1.060
2020/01/31 11:48:16.8	300.630	-0.290	0.310	1.050
2020/01/31 11:48:16.9	300.620	-0.320	0.340	1.030
2020/01/31 11:48:17.0	300.620	-0.350	0.370	1.010
2020/01/31 11:48:17.1	300.620	-0.380	0.390	0.980
2020/01/31 11:48:17.2	300.620	-0.400	0.410	0.950
2020/01/31 11:48:17.3	300.610	-0.430	0.430	0.920
2020/01/31 11:48:17.4	300.610	-0.450	0.440	0.880
2020/01/31 11:48:17.5	300.630	-0.470	0.460	0.840
2020/01/31 11:48:17.6	300.630	-0.490	0.460	0.800
2020/01/31 11:48:17.7	300.630	-0.510	0.460	0.760
2020/01/31 11:48:17.8	300.630	-0.530	0.460	0.710
2020/01/31 11:48:17.9	300.640	-0.540	0.450	0.670
2020/01/31 11:48:18.0	300.640	-0.560	0.440	0.620
2020/01/31 11:48:18.1	300.640	-0.570	0.420	0.570
2020/01/31 11:48:18.2	300.650	-0.570	0.400	0.520
2020/01/31 11:48:18.3	300.650	-0.580	0.380	0.470
2020/01/31 11:48:18.4	300.660	-0.580	0.350	0.420
2020/01/31 11:48:18.5	300.660	-0.590	0.320	0.370
2020/01/31 11:48:18.6	300.660	-0.590	0.280	0.320
2020/01/31 11:48:18.7	300.670	-0.580	0.240	0.270
2020/01/31 11:48:18.8	300.670	-0.580	0.210	0.220
2020/01/31 11:48:18.9	300.680	-0.570	0.160	0.180
2020/01/31 11:48:19.0	300.690	-0.560	0.120	0.130
2020/01/31 11:48:19.1	300.700	-0.550	0.070	0.080
2020/01/31 11:48:19.2	300.700	-0.540	0.030	0.040
2020/01/31 11:48:19.3	300.710	-0.520	-0.020	-0.000
2020/01/31 11:48:19.4	300.720	-0.500	-0.070	-0.040
2020/01/31 11:48:19.5	300.720	-0.490	-0.130	-0.080
2020/01/31 11:48:19.6	300.730	-0.470	-0.180	-0.120
2020/01/31 11:48:19.7	300.740	-0.450	-0.230	-0.150
2020/01/31 11:48:19.8	300.750	-0.420	-0.270	-0.180
2020/01/31 11:48:19.9	300.750	-0.400	-0.320	-0.210
2020/01/31 11:48:20.0	300.770	-0.380	-0.370	-0.240
2020/01/31 11:48:20.1	300.780	-0.350	-0.420	-0.260
2020/01/31 11:48:20.2	300.790	-0.330	-0.460	-0.280
2020/01/31 11:48:20.3	300.800	-0.300	-0.500	-0.300
2020/01/31 11:48:20.4	300.810	-0.270	-0.540	-0.310
2020/01/31 11:48:20.5	300.830	-0.250	-0.580	-0.320
2020/01/31 11:48:20.6	300.840	-0.220	-0.620	-0.320
2020/01/31 11:48:20.7	300.860	-0.190	-0.650	-0.330
2020/01/31 11:48:20.8	300.870	-0.160	-0.680	-0.330
2020/01/31 11:48:20.9	300.890	-0.140	-0.710	-0.330
2020/01/31 11:48:21.0	300.900	-0.110	-0.740	-0.320
2020/01/31 11:48:21.1	300.920	-0.080	-0.760	-0.310
2020/01/31 11:48:21.2	300.940	-0.050	-0.790	-0.300
2020/01/31 11:48:21.3	300.950	-0.020	-0.800	-0.280
2020/01/31 11:48:21.4	300.970	0.010	-0.820	-0.260
2020/01/31 11:48:21.5	301.000	0.030	-0.830	-0.230
2020/01/31 11:48:21.6	301.010	0.060	-0.840	-0.200
2020/01/31 11:48:21.7	301.030	0.090	-0.850	-0.170
2020/01/31 11:48:21.8	301.040	0.120	-0.850	-0.140
2020/01/31 11:48:21.9	301.050	0.140	-0.850	-0.100
2020/01/31 11:48:22.0	301.060	0.170	-0.850	-0.050
2020/01/31 11:48:22.1	301.080	0.190	-0.850	-0.010
2020/01/31 11:48:22.2	301.080	0.220	-0.840	0.040
2020/01/31 11:48:22.3	301.090	0.240	-0.830	0.090
2020/01/31 11:48:22.4	301.100	0.270	-0.820	0.140
2020/01/31 11:48:22.5	301.110	0.290	-0.800	0.200
2020/01/31 11:48:22.6	301.110	0.320	-0.790	0.260
2020/01/31 11:48:22.7	301.110	0.340	-0.770	0.320
2020/01/31 11:48:22.8	301.110	0.360	-0.750	0.380
2020/01/31 11:48:22.9	301.110	0.380	-0.730	0.440
2020/01/31 11:48:23.0	301.100	0.400	-0.710	0.500
2020/01/31 11:48:23.1	301.090	0.420	-0.690	0.560
2020/01/31 11:48:23.2	301.090	0.430	-0.670	0.620
2020/01/31 11:48:23.3	301.080	0.450	-0.650	0.690
2020/01/31 11:48:23.4	301.070	0.460	-0.630	0.750
2020/01/31 11:48:23.5	301.050	0.480	-0.600	0.810
2020/01/31 11:48:23.6	301.040	0.490	-0.580	0.870
2020/01/31 11:48:23.7	301.030	0.500	-0.570	0.930
2020/01/31 11:48:23.8	301.020	0.510	-0.550	0.980
2020/01/31 11:48:23.9	301.000	0.520	-0.530	1.040
2020/01/31 11:48:24.0	300.990	0.530	-0.510	1.090
2020/01/31 11:48:24.1	300.970	0.530	-0.500	1.140
2020/01/31 11:48:24.2	300.960	0.540	-0.480	1.190
2020/01/31 11:48:24.3	300.940	0.540	-0.470	1.240
2020/01/31 11:48:24.4	300.930	0.540	-0.460	1.280
2020/01/31 11:48:24.5	300.900	0.540	-0.440	1.320
2020/01/31 11:48:24.6	300.890	0.530	-0.430	1.350
2020/01/31 11:48:24.7	300.870	0.530	-0.420	1.390
2020/01/31 11:48:24.8	300.860	0.520	-0.410	1.420
2020/01/31 11:48:24.9	300.840	0.510	-0.400	1.450
2020/01/31 11:48:25.0	300.830	0.500	-0.400	1.480
2020/01/31 11:48:25.1	300.810	0.490	-0.390	1.500
2020/01/31 11:48:25.2	300.800	0.470	-0.380	1.520
2020/01/31 11:48:25.3	300.780	0.450	-0.370	1.540
2020/01/31 11:48:25.4	300.770	0.430	-0.360	1.560
2020/01/31 11:48:25.5	300.740	0.410	-0.350	1.570
2020/01/31 11:48:25.6	300.720	0.390	-0.330	1.580
2020/01/31 11:48:25.7	300.710	0.360	-0.320	1.590
2020/01/31 11:48:25.8	300.690	0.330	-0.310	1.590
2020/01/31 11:48:25.9	300.680	0.300	-0.290	1.590
2020/01/31 11:48:26.0	300.670	0.270	-0.280	1.590
2020/01/31 11:48:26.1	300.660	0.240	-0.260	1.590
2020/01/31 11:48:26.2	300.640	0.200	-0.240	1.580
2020/01/31 11:48:26.3	300.630	0.170	-0.220	1.570
2020/01/31 11:48:26.4	300.620	0.130	-0.190	1.560
2020/01/31 11:48:26.5	300.620	0.090	-0.170	1.540
2020/01/31 11:48:26.6	300.610	0.050	-0.150	1.520
2020/01/31 11:48:26.7	300.610	0.010	-0.120	1.500
2020/01/31 11:48:26.8	300.600	-0.030	-0.090	1.470
2020/01/31 11:48:26.9	300.590	-0.070	-0.070	1.450
2020/01/31 11:48:27.0	300.590	-0.110	-0.040	1.420
2020/01/31 11:48:27.1	300.590	-0.150	-0.010	1.380
2020/01/31 11:48:27.2	300.590	-0.190	0.020	1.350
2020/01/31 11:48:27.3	300.580	-0.230	0.050	1.310
2020/01/31 11:48:27.4	300.580	-0.270	0.080	1.270
2020/01/31 11:48:27.5	300.600	-0.310	0.110	1.220
2020/01/31 11:48:27.6	300.600	-0.350	0.130	1.180
2020/01/31 11:48:27.7	300.610	-0.380	0.160	1.130
2020/01/31 11:48:27.8	300.610	-0.420	0.190	1.080
2020/01/31 11:48:27.9	300.620	-0.450	0.210	1.020
2020/01/31 11:48:28.0	300.620	-0.480	0.230	0.970
2020/01/31 11:48:28.1	300.630	-0.510	0.250	0.910
2020/01/31 11:48:28.2	300.640	-0.530	0.270	0.850
2020/01/31 11:48:28.3	300.650	-0.550	0.280	0.790
2020/01/31 11:48:28.4	300.660	-0.570	0.290	0.730
2020/01/31 11:48:28.5	300.680	-0.590	0.300	0.660
2020/01/31 11:48:28.6	300.700	-0.600	0.300	0.600
2020/01/31 11:48:28.7	300.710	-0.610	0.310	0.530
2020/01/31 11:48:28.8	300.730	-0.620	0.310	0.460
2020/01/31 11:48:28.9	300.750	-0.620	0.300	0.390
2020/01/31 11:48:29.0	300.770	-0.620	0.300	0.320
2020/01/31 11:48:29.1	300.790	-0.620	0.290	0.250
2020/01/31 11:48:29.2	300.820	-0.610	0.270	0.190
2020/01/31 11:48:29.3	300.840	-0.600	0.260	0.120
2020/01/31 11:48:29.4	300.870	-0.590	0.240	0.050
2020/01/31 11:48:29.5	300.880	-0.570	0.220	-0.010
2020/01/31 11:48:29.6	300.910	-0.550	0.200	-0.070
2020/01/31 11:48:29.7	300.940	-0.520	0.170	-0.130
2020/01/31 11:48:29.8	300.970	-0.500	0.150	-0.190
2020/01/31 11:48:29.9	301.000	-0.470	0.130	-0.240
2020/01/31 11:48:30.0	301.030	-0.430	0.100	-0.280
2020/01/31 11:48:30.1	301.060	-0.400	0.070	-0.330
2020/01/31 11:48:30.2	301.090	-0.360	0.050	-0.360
2020/01/31 11:48:30.3	301.120	-0.330	0.020	-0.400
2020/01/31 11:48:30.4	301.150	-0.290	-0.000	-0.420
2020/01/31 11:48:30.5	301.170	-0.240	-0.030	-0.450
2020/01/31 11:48:30.6	301.200	-0.200	-0.050	-0.460
2020/01/31 11:48:30.7	301.230	-0.160	-0.080	-0.470
2020/01/31 11:48:30.8	301.250	-0.120	-0.100	-0.480
2020/01/31 11:48:30.9	301.280	-0.080	-0.120	-0.470
2020/01/31 11:48:31.0	301.300	-0.030	-0.140	-0.470
2020/01/31 11:48:31.1	301.320	0.010	-0.150	-0.450
2020/01/31 11:48:31.2	301.340	0.050	-0.170	-0.430
2020/01/31 11:48:31.3	301.350	0.090	-0.180	-0.410
2020/01/31 11:48:31.4	301.370	0.130	-0.190	-0.380
2020/01/31 11:48:31.5	301.380	0.160	-0.200	-0.340
2020/01/31 11:48:31.6	301.380	0.200	-0.210	-0.300
2020/01/31 11:48:31.7	301.390	0.230	-0.220	-0.260
2020/01/31 11:48:31.8	301.390	0.260	-0.220	-0.210
2020/01/31 11:48:31.9	301.400	0.280	-0.220	-0.160
2020/01/31 11:48:32.0	301.390	0.310	-0.220	-0.100
2020/01/31 11:48:32.1	301.390	0.330	-0.220	-0.050
2020/01/31 11:48:32.2	301.380	0.350	-0.220	0.020
2020/01/31 11:48:32.3	301.370	0.360	-0.220	0.080
2020/01/31 11:48:32.4	301.360	0.370	-0.210	0.140
2020/01/31 11:48:32.5	301.350	0.380	-0.200	0.210
2020/01/31 11:48:32.6	301.330	0.390	-0.190	0.280
2020/01/31 11:48:32.7	301.310	0.390	-0.180	0.340
2020/01/31 11:48:32.8	301.290	0.390	-0.180	0.410
2020/01/31 11:48:32.9	301.270	0.390	-0.170	0.470
2020/01/31 11:48:33.0	301.240	0.390	-0.160	0.540
2020/01/31 11:48:33.1	301.210	0.380	-0.150	0.600
2020/01/31 11:48:33.2	301.190	0.370	-0.140	0.660
2020/01/31 11:48:33.3	301.160	0.360	-0.130	0.720
2020/01/31 11:48:33.4	301.130	0.340	-0.120	0.780
2020/01/31 11:48:33.5	301.100	0.320	-0.110	0.840
2020/01/31 11:48:33.6	301.070	0.300	-0.110	0.890
2020/01/31 11:48:33.7	301.040	0.280	-0.100	0.930
2020/01/31 11:48:33.8	301.010	0.260	-0.100	0.970
2020/01/31 11:48:33.9	300.970	0.240	-0.100	1.010
2020/01/31 11:48:34.0	300.940	0.210	-0.110	1.050
2020/01/31 11:48:34.1	300.910	0.190	-0.110	1.080
2020/01/31 11:48:34.2	300.880	0.160	-0.120	1.100
2020/01/31 11:48:34.3	300.850	0.140	-0.130	1.120
2020/01/31 11:48:34.4	300.820	0.110	-0.150	1.140
2020/01/31 11:48:34.5	300.790	0.090	-0.170	1.150
2020/01/31 11:48:34.6	300.760	0.060	-0.190	1.160
2020/01/31 11:48:34.7	300.730	0.040	-0.210	1.160
2020/01/31 11:48:34.8	300.710	0.010	-0.230	1.170
2020/01/31 11:48:34.9	300.680	-0.010	-0.260	1.160
2020/01/31 11:48:35.0	300.660	-0.030	-0.290	1.160
2020/01/31 11:48:35.1	300.640	-0.060	-0.330	1.150
2020/01/31 11:48:35.2	300.620	-0.080	-0.360	1.140
2020/01/31 11:48:35.3	300.600	-0.090	-0.400	1.120
2020/01/31 11:48:35.4	300.590	-0.110	-0.440	1.100
2020/01/31 11:48:35.5	300.570	-0.130	-0.490	1.090
2020/01/31 11:48:35.6	300.560	-0.140	-0.530	1.060
2020/01/31 11:48:35.7	300.550	-0.150	-0.570	1.040
2020/01/31 11:48:35.8	300.540	-0.160	-0.610	1.010
2020/01/31 11:48:35.9	300.540	-0.170	-0.650	0.980
2020/01/31 11:48:36.0	300.540	-0.180	-0.700	0.950
2020/01/31 11:48:36.1	300.530	-0.190	-0.740	0.910
2020/01/31 11:48:36.2	300.530	-0.190	-0.780	0.880
2020/01/31 11:48:36.3	300.540	-0.190	-0.820	0.840
2020/01/31 11:48:36.4	300.540	-0.200	-0.860	0.800
2020/01/31 11:48:36.5	300.550	-0.200	-0.890	0.760
2020/01/31 11:48:36.6	300.560	-0.200	-0.930	0.730
2020/01/31 11:48:36.7	300.570	-0.200	-0.960	0.690
2020/01/31 11:48:36.8	300.580	-0.200	-0.980	0.650
2020/01/31 11:48:36.9	300.600	-0.200	-1.010	0.610
2020/01/31 11:48:37.0	300.610	-0.190	-1.030	0.570
2020/01/31 11:48:37.1	300.630	-0.190	-1.040	0.540
2020/01/31 11:48:37.2	300.650	-0.190	-1.060	0.500
2020/01/31 11:48:37.3	300.670	-0.180	-1.060	0.470
2020/01/31 11:48:37.4	300.690	-0.180	-1.070	0.440
2020/01/31 11:48:37.5	300.700	-0.170	-1.070	0.410
2020/01/31 11:48:37.6	300.720	-0.170	-1.060	0.390
2020/01/31 11:48:37.7	300.740	-0.160	-1.050	0.360
2020/01/31 11:48:37.8	300.770	-0.160	-1.040	0.340
2020/01/31 11:48:37.9	300.790	-0.150	-1.020	0.330
2020/01/31 11:48:38.0	300.810	-0.140	-1.000	0.310
2020/01/31 11:48:38.1	300.830	-0.140	-0.980	0.300
2020/01/31 11:48:38.2	300.850	-0.130	-0.950	0.290
2020/01/31 11:48:38.3	300.880	-0.130	-0.920	0.290
2020/01/31 11:48:38.4	300.900	-0.120	-0.890	0.290
2020/01/31 11:48:38.5	300.920	-0.110	-0.860	0.290
2020/01/31 11:48:38.6	300.940	-0.100	-0.820	0.300
2020/01/31 11:48:38.7	300.960	-0.100	-0.780	0.300
2020/01/31 11:48:38.8	300.980	-0.090	-0.740	0.310
2020/01/31 11:48:38.9	300.990	-0.080	-0.700	0.330
2020/01/31 11:48:39.0	301.010	-0.070	-0.650	0.340
2020/01/31 11:48:39.1	301.030	-0.060	-0.610	0.360
2020/01/31 11:48:39.2	301.040	-0.050	-0.560	0.380
2020/01/31 11:48:39.3	301.060	-0.040	-0.510	0.400
2020/01/31 11:48:39.4	301.080	-0.030	-0.470	0.430
2020/01/31 11:48:39.5	301.100	-0.020	-0.420	0.450
2020/01/31 11:48:39.6	301.110	-0.000	-0.370	0.470
2020/01/31 11:48:39.7	301.130	0.010	-0.320	0.500
2020/01/31 11:48:39.8	301.140	0.030	-0.280	0.520
2020/01/31 11:48:39.9	301.150	0.040	-0.230	0.550
2020/01/31 11:48:40.0	301.170	0.060	-0.190	0.570
2020/01/31 11:48:40.1	301.180	0.070	-0.150	0.600
2020/01/31 11:48:40.2	301.190	0.090	-0.110	0.620
2020/01/31 11:48:40.3	301.200	0.110	-0.070	0.650
2020/01/31 11:48:40.4	301.210	0.130	-0.030	0.670
2020/01/31 11:48:40.5	301.210	0.140	0.010	0.700
2020/01/31 11:48:40.6	301.220	0.160	0.050	0.720
2020/01/31 11:48:40.7	301.230	0.180	0.080	0.740
2020/01/31 11:48:40.8	301.240	0.200	0.120	0.770
2020/01/31 11:48:40.9	301.240	0.220	0.150	0.790
2020/01/31 11:48:41.0	301.250	0.230	0.180	0.810
2020/01/31 11:48:41.1	301.250	0.250	0.210	0.830
2020/01/31 11:48:41.2	301.250	0.260	0.240	0.850
2020/01/31 11:48:41.3	301.250	0.280	0.270	0.870
2020/01/31 11:48:41.4	301.240	0.290	0.300	0.890
2020/01/31 11:48:41.5	301.230	0.300	0.320	0.910
2020/01/31 11:48:41.6	301.230	0.310	0.340	0.930
2020/01/31 11:48:41.7	301.220	0.320	0.370	0.940
2020/01/31 11:48:41.8	301.210	0.330	0.390	0.960
2020/01/31 11:48:41.9	301.200	0.340	0.410	0.970
2020/01/31 11:48:42.0	301.180	0.340	0.430	0.980
2020/01/31 11:48:42.1	301.170	0.340	0.440	0.990
2020/01/31 11:48:42.2	301.150	0.340	0.460	1.000
2020/01/31 11:48:42.3	301.140	0.340	0.470	1.010
2020/01/31 11:48:42.4	301.120	0.340	0.480	1.020
2020/01/31 11:48:42.5	301.090	0.340	0.490	1.020
2020/01/31 11:48:42.6	301.070	0.330	0.500	1.020
2020/01/31 11:48:42.7	301.050	0.320	0.500	1.020
2020/01/31 11:48:42.8	301.030	0.310	0.510	1.020
2020/01/31 11:48:42.9	301.010	0.300	0.510	1.010
2020/01/31 11:48:43.0	301.000	0.290	0.500	1.000
2020/01/31 11:48:43.1	300.980	0.280	0.500	0.990
2020/01/31 11:48:43.2	300.960	0.260	0.490	0.980
2020/01/31 11:48:43.3	300.950	0.250	0.480	0.970
2020/01/31 11:48:43.4	300.930	0.230	0.470	0.950
2020/01/31 11:48:43.5	300.940	0.210	0.450	0.930
2020/01/31 11:48:43.6	300.920	0.190	0.440	0.900
2020/01/31 11:48:43.7	300.910	0.170	0.420	0.880
2020/01/31 11:48:43.8	300.900	0.150	0.390	0.850
2020/01/31 11:48:43.9	300.890	0.130	0.370	0.820
2020/01/31 11:48:44.0	300.890	0.110	0.340	0.780
2020/01/31 11:48:44.1	300.880	0.090	0.310	0.750
2020/01/31 11:48:44.2	300.880	0.070	0.290	0.710
2020/01/31 11:48:44.3	300.870	0.050	0.250	0.670
2020/01/31 11:48:44.4	300.870	0.040	0.220	0.640
2020/01/31 11:48:44.5	300.870	0.020	0.190	0.590
2020/01/31 11:48:44.6	300.870	-0.000	0.160	0.550
2020/01/31 11:48:44.7	300.870	-0.020	0.120	0.510
2020/01/31 11:48:44.8	300.870	-0.040	0.080	0.470
2020/01/31 11:48:44.9	300.880	-0.060	0.050	0.430
2020/01/31 11:48:45.0	300.880	-0.070	0.010	0.390
2020/01/31 11:48:45.1	300.890	-0.090	-0.030	0.350
2020/01/31 11:48:45.2	300.890	-0.100	-0.060	0.310
2020/01/31 11:48:45.3	300.900	-0.120	-0.100	0.270
2020/01/31 11:48:45.4	300.900	-0.130	-0.140	0.230
2020/01/31 11:48:45.5	300.890	-0.140	-0.180	0.190
2020/01/31 11:48:45.6	300.900	-0.150	-0.220	0.150
2020/01/31 11:48:45.7	300.910	-0.160	-0.250	0.120
2020/01/31 11:48:45.8	300.920	-0.170	-0.290	0.080
2020/01/31 11:48:45.9	300.930	-0.180	-0.320	0.040
2020/01/31 11:48:46.0	300.940	-0.190	-0.360	0.010
2020/01/31 11:48:46.1	300.950	-0.200	-0.390	-0.030
2020/01/31 11:48:46.2	300.960	-0.210	-0.420	-0.060
2020/01/31 11:48:46.3	300.970	-0.210	-0.450	-0.100
2020/01/31 11:48:46.4	300.980	-0.220	-0.480	-0.130
2020/01/31 11:48:46.5	301.000	-0.220	-0.510	-0.170
2020/01/31 11:48:46.6	301.010	-0.220	-0.530	-0.200
2020/01/31 11:48:46.7	301.020	-0.220	-0.560	-0.220
2020/01/31 11:48:46.8	301.030	-0.230	-0.580	-0.250
2020/01/31 11:48:46.9	301.040	-0.230	-0.600	-0.270
2020/01/31 11:48:47.0	301.060	-0.230	-0.620	-0.290
2020/01/31 11:48:47.1	301.070	-0.230	-0.640	-0.310
2020/01/31 11:48:47.2	301.080	-0.230	-0.650	-0.320
2020/01/31 11:48:47.3	301.090	-0.230	-0.660	-0.330
2020/01/31 11:48:47.4	301.100	-0.230	-0.670	-0.330
2020/01/31 11:48:47.5	301.100	-0.230	-0.680	-0.330
2020/01/31 11:48:47.6	301.110	-0.230	-0.690	-0.330
2020/01/31 11:48:47.7	301.110	-0.230	-0.690	-0.320
2020/01/31 11:48:47.8	301.120	-0.230	-0.690	-0.310
2020/01/31 11:48:47.9	301.120	-0.230	-0.690	-0.290
2020/01/31 11:48:48.0	301.120	-0.230	-0.680	-0.270
2020/01/31 11:48:48.1	301.130	-0.230	-0.680	-0.250
2020/01/31 11:48:48.2	301.130	-0.230	-0.670	-0.230
2020/01/31 11:48:48.3	301.130	-0.230	-0.660	-0.200
2020/01/31 11:48:48.4	301.130	-0.230	-0.650	-0.170
2020/01/31 11:48:48.5	301.130	-0.230	-0.630	-0.130
2020/01/31 11:48:48.6	301.130	-0.230	-0.620	-0.100
2020/01/31 11:48:48.7	301.120	-0.230	-0.610	-0.070
2020/01/31 11:48:48.8	301.120	-0.240	-0.590	-0.040
2020/01/31 11:48:48.9	301.120	-0.240	-0.580	-0.000
2020/01/31 11:48:49.0	301.110	-0.240	-0.570	0.030
2020/01/31 11:48:49.1	301.110	-0.240	-0.550	0.060
2020/01/31 11:48:49.2	301.110	-0.240	-0.540	0.100
2020/01/31 11:48:49.3	301.110	-0.250	-0.530	0.130
2020/01/31 11:48:49.4	301.100	-0.250	-0.520	0.160
2020/01/31 11:48:49.5	301.110	-0.250	-0.510	0.190
2020/01/31 11:48:49.6	301.110	-0.250	-0.500	0.210
2020/01/31 11:48:49.7	301.110	-0.240	-0.490	0.240
2020/01/31 11:48:49.8	301.110	-0.240	-0.480	0.270
2020/01/31 11:48:49.9	301.120	-0.240	-0.480	0.300
2020/01/31 11:48:50.0	301.120	-0.230	-0.470	0.320
2020/01/31 11:48:50.1	301.120	-0.230	-0.470	0.350
2020/01/31 11:48:50.2	301.130	-0.220	-0.470	0.380
2020/01/31 11:48:50.3	301.130	-0.210	-0.460	0.410
2020/01/31 11:48:50.4	301.130	-0.200	-0.460	0.430
2020/01/31 11:48:50.5	301.140	-0.190	-0.460	0.470
2020/01/31 11:48:50.6	301.140	-0.180	-0.450	0.490
2020/01/31 11:48:50.7	301.150	-0.170	-0.450	0.520
2020/01/31 11:48:50.8	301.150	-0.160	-0.450	0.550
2020/01/31 11:48:50.9	301.150	-0.140	-0.450	0.580
2020/01/31 11:48:51.0	301.160	-0.130	-0.440	0.610
2020/01/31 11:48:51.1	301.160	-0.110	-0.440	0.640
2020/01/31 11:48:51.2	301.160	-0.090	-0.430	0.670
2020/01/31 11:48:51.3	301.170	-0.080	-0.430	0.700
2020/01/31 11:48:51.4	301.170	-0.060	-0.430	0.730
2020/01/31 11:48:51.5	301.180	-0.040	-0.420	0.750
2020/01/31 11:48:51.6	301.180	-0.020	-0.410	0.780
2020/01/31 11:48:51.7	301.190	0.000	-0.410	0.810
2020/01/31 11:48:51.8	301.190	0.020	-0.400	0.830
2020/01/31 11:48:51.9	301.200	0.040	-0.390	0.860
2020/01/31 11:48:52.0	301.210	0.060	-0.390	0.880
2020/01/31 11:48:52.1	301.210	0.080	-0.380	0.900
2020/01/31 11:48:52.2	301.220	0.100	-0.370	0.920
2020/01/31 11:48:52.3	301.230	0.120	-0.360	0.940
2020/01/31 11:48:52.4	301.240	0.140	-0.350	0.960
2020/01/31 11:48:52.5	301.230	0.160	-0.340	0.980
2020/01/31 11:48:52.6	301.240	0.170	-0.330	1.000
2020/01/31 11:48:52.7	301.250	0.190	-0.320	1.010
2020/01/31 11:48:52.8	301.260	0.210	-0.310	1.030
2020/01/31 11:48:52.9	301.280	0.220	-0.300	1.040
2020/01/31 11:48:53.0	301.290	0.230	-0.290	1.050
2020/01/31 11:48:53.1	301.300	0.250	-0.280	1.060
2020/01/31 11:48:53.2	301.310	0.260	-0.260	1.070
2020/01/31 11:48:53.3	301.330	0.270	-0.250	1.070
2020/01/31 11:48:53.4	301.340	0.280	-0.240	1.080
2020/01/31 11:48:53.5	301.350	0.280	-0.230	1.080
2020/01/31 11:48:53.6	301.370	0.290	-0.210	1.080
2020/01/31 11:48:53.7	301.380	0.300	-0.200	1.080
2020/01/31 11:48:53.8	301.390	0.300	-0.180	1.080
2020/01/31 11:48:53.9	301.410	0.300	-0.170	1.080
2020/01/31 11:48:54.0	301.420	0.300	-0.150	1.080
2020/01/31 11:48:54.1	301.440	0.300	-0.140	1.080
2020/01/31 11:48:54.2	301.450	0.300	-0.130	1.070
2020/01/31 11:48:54.3	301.470	0.300	-0.110	1.070
2020/01/31 11:48:54.4	301.480	0.300	-0.100	1.060
2020/01/31 11:48:54.5	301.500	0.290	-0.090	1.050
2020/01/31 11:48:54.6	301.510	0.290	-0.080	1.040
2020/01/31 11:48:54.7	301.530	0.280	-0.070	1.030
2020/01/31 11:48:54.8	301.540	0.280	-0.050	1.010
2020/01/31 11:48:54.9	301.560	0.270	-0.040	1.000
2020/01/31 11:48:55.0	301.570	0.270	-0.030	0.990
2020/01/31 11:48:55.1	301.580	0.260	-0.020	0.970
2020/01/31 11:48:55.2	301.590	0.250	-0.020	0.960
2020/01/31 11:48:55.3	301.610	0.250	-0.010	0.940
2020/01/31 11:48:55.4	301.620	0.240	0.000	0.930
2020/01/31 11:48:55.5	301.630	0.230	0.010	0.910
2020/01/31 11:48:55.6	301.640	0.220	0.010	0.900
2020/01/31 11:48:55.7	301.650	0.220	0.020	0.890
2020/01/31 11:48:55.8	301.650	0.210	0.030	0.870
2020/01/31 11:48:55.9	301.650	0.200	0.030	0.860
2020/01/31 11:48:56.0	301.660	0.200	0.040	0.850
2020/01/31 11:48:56.1	301.660	0.190	0.040	0.840
2020/01/31 11:48:56.2	301.650	0.190	0.050	0.830
2020/01/31 11:48:56.3	301.650	0.180	0.050	0.820
2020/01/31 11:48:56.4	301.650	0.180	0.060	0.810
2020/01/31 11:48:56.5	301.640	0.170	0.060	0.800
2020/01/31 11:48:56.6	301.640	0.170	0.060	0.790
2020/01/31 11:48:56.7	301.630	0.160	0.070	0.780
2020/01/31 11:48:56.8	301.620	0.160	0.070	0.770
2020/01/31 11:48:56.9	301.620	0.160	0.070	0.760
2020/01/31 11:48:57.0	301.610	0.150	0.070	0.750
2020/01/31 11:48:57.1	301.600	0.150	0.070	0.740
2020/01/31 11:48:57.2	301.590	0.150	0.070	0.720
2020/01/31 11:48:57.3	301.580	0.140	0.060	0.710
2020/01/31 11:48:57.4	301.580	0.140	0.060	0.690
2020/01/31 11:48:57.5	301.550	0.140	0.050	0.670
2020/01/31 11:48:57.6	301.540	0.140	0.040	0.650
2020/01/31 11:48:57.7	301.540	0.140	0.030	0.630
2020/01/31 11:48:57.8	301.530	0.130	0.020	0.610
2020/01/31 11:48:57.9	301.520	0.130	0.010	0.580
2020/01/31 11:48:58.0	301.510	0.130	-0.000	0.560
2020/01/31 11:48:58.1	301.500	0.130	-0.020	0.530
2020/01/31 11:48:58.2	301.490	0.120	-0.030	0.500
2020/01/31 11:48:58.3	301.480	0.120	-0.050	0.480
2020/01/31 11:48:58.4	301.470	0.120	-0.060	0.450
2020/01/31 11:48:58.5	301.460	0.110	-0.080	0.410
2020/01/31 11:48:58.6	301.450	0.110	-0.100	0.380
2020/01/31 11:48:58.7	301.450	0.100	-0.120	0.350
2020/01/31 11:48:58.8	301.440	0.100	-0.140	0.320
2020/01/31 11:48:58.9	301.430	0.090	-0.160	0.290
2020/01/31 11:48:59.0	301.430	0.090	-0.180	0.260
2020/01/31 11:48:59.1	301.420	0.080	-0.200	0.220
2020/01/31 11:48:59.2	301.420	0.070	-0.220	0.190
2020/01/31 11:48:59.3	301.420	0.060	-0.240	0.160
2020/01/31 11:48:59.4	301.410	0.060	-0.260	0.130
2020/01/31 11:48:59.5	301.410	0.050	-0.280	0.100
2020/01/31 11:48:59.6	301.410	0.040	-0.300	0.070
2020/01/31 11:48:59.7	301.410	0.030	-0.310	0.040
2020/01/31 11:48:59.8	301.410	0.020	-0.330	0.010
2020/01/31 11:48:59.9	301.410	0.010	-0.350	-0.010
2020/01/31 11:49:00.0	301.410	-0.000	-0.370	-0.040
2020/01/31 11:49:00.1	301.420	-0.020	-0.390	-0.060
2020/01/31 11:49:00.2	301.420	-0.030	-0.410	-0.090
2020/01/31 11:49:00.3	301.430	-0.040	-0.420	-0.110
2020/01/31 11:49:00.4	301.430	-0.050	-0.440	-0.130
2020/01/31 11:49:00.5	301.450	-0.060	-0.450	-0.150
2020/01/31 11:49:00.6	301.450	-0.070	-0.470	-0.170
2020/01/31 11:49:00.7	301.460	-0.080	-0.480	-0.180
2020/01/31 11:49:00.8	301.470	-0.090	-0.490	-0.200
2020/01/31 11:49:00.9	301.480	-0.100	-0.510	-0.210
2020/01/31 11:49:01.0	301.490	-0.110	-0.520	-0.220
2020/01/31 11:49:01.1	301.500	-0.120	-0.520	-0.220
2020/01/31 11:49:01.2	301.510	-0.130	-0.530	-0.230
2020/01/31 11:49:01.3	301.520	-0.140	-0.540	-0.230
2020/01/31 11:49:01.4	301.530	-0.150	-0.540	-0.230
2020/01/31 11:49:01.5	301.550	-0.160	-0.550	-0.230
2020/01/31 11:49:01.6	301.560	-0.170	-0.550	-0.220
2020/01/31 11:49:01.7	301.570	-0.170	-0.550	-0.220
2020/01/31 11:49:01.8	301.580	-0.180	-0.550	-0.210
2020/01/31 11:49:01.9	301.600	-0.190	-0.550	-0.200
2020/01/31 11:49:02.0	301.610	-0.190	-0.540	-0.180
2020/01/31 11:49:02.1	301.620	-0.200	-0.540	-0.160
2020/01/31 11:49:02.2	301.630	-0.200	-0.530	-0.140
2020/01/31 11:49:02.3	301.650	-0.200	-0.520	-0.120
2020/01/31 11:49:02.4	301.660	-0.210	-0.520	-0.100
2020/01/31 11:49:02.5	301.670	-0.210	-0.500	-0.070
2020/01/31 11:49:02.6	301.680	-0.210	-0.490	-0.040
2020/01/31 11:49:02.7	301.690	-0.220	-0.480	-0.010
2020/01/31 11:49:02.8	301.700	-0.220	-0.470	0.020
2020/01/31 11:49:02.9	301.710	-0.220	-0.460	0.060
2020/01/31 11:49:03.0	301.720	-0.220	-0.440	0.100
2020/01/31 11:49:03.1	301.720	-0.220	-0.430	0.130
2020/01/31 11:49:03.2	301.730	-0.220	-0.410	0.170
2020/01/31 11:49:03.3	301.740	-0.220	-0.400	0.210
2020/01/31 11:49:03.4	301.740	-0.220	-0.380	0.250
2020/01/31 11:49:03.5	301.750	-0.210	-0.360	0.290
2020/01/31 11:49:03.6	301.760	-0.210	-0.340	0.340
2020/01/31 11:49:03.7	301.760	-0.210	-0.320	0.380
2020/01/31 11:49:03.8	301.760	-0.210	-0.300	0.420
2020/01/31 11:49:03.9	301.760	-0.200	-0.280	0.460
2020/01/31 11:49:04.0	301.770	-0.200	-0.260	0.500
2020/01/31 11:49:04.1	301.770	-0.200	-0.240	0.540
2020/01/31 11:49:04.2	301.770	-0.190	-0.210	0.580
2020/01/31 11:49:04.3	301.770	-0.190	-0.190	0.620
2020/01/31 11:49:04.4	301.760	-0.180	-0.170	0.660
2020/01/31 11:49:04.5	301.760	-0.180	-0.150	0.700
2020/01/31 11:49:04.6	301.760	-0.170	-0.130	0.730
2020/01/31 11:49:04.7	301.750	-0.160	-0.110	0.770
2020/01/31 11:49:04.8	301.750	-0.160	-0.090	0.800
2020/01/31 11:49:04.9	301.740	-0.150	-0.070	0.830
2020/01/31 11:49:05.0	301.740	-0.140	-0.050	0.860
2020/01/31 11:49:05.1	301.730	-0.130	-0.030	0.890
2020/01/31 11:49:05.2	301.730	-0.120	-0.020	0.920
2020/01/31 11:49:05.3	301.720	-0.120	-0.010	0.940
2020/01/31 11:49:05.4	301.720	-0.110	0.000	0.960
2020/01/31 11:49:05.5	301.710	-0.100	0.020	0.970
2020/01/31 11:49:05.6	301.710	-0.090	0.020	0.990
2020/01/31 11:49:05.7	301.700	-0.080	0.030	1.000
2020/01/31 11:49:05.8	301.700	-0.060	0.040	1.010
2020/01/31 11:49:05.9	301.700	-0.050	0.040	1.010
2020/01/31 11:49:06.0	301.700	-0.040	0.040	1.010
2020/01/31 11:49:06.1	301.700	-0.030	0.040	1.010
2020/01/31 11:49:06.2	301.710	-0.020	0.040	1.010
2020/01/31 11:49:06.3	301.710	-0.010	0.030	1.000
2020/01/31 11:49:06.4	301.710	0.000	0.030	0.990
2020/01/31 11:49:06.5	301.720	0.020	0.020	0.970
2020/01/31 11:49:06.6	301.730	0.030	0.010	0.950
2020/01/31 11:49:06.7	301.740	0.040	-0.000	0.940
2020/01/31 11:49:06.8	301.740	0.050	-0.010	0.920
2020/01/31 11:49:06.9	301.750	0.060	-0.030	0.890
2020/01/31 11:49:07.0	301.760	0.070	-0.040	0.870
2020/01/31 11:49:07.1	301.770	0.080	-0.050	0.840
2020/01/31 11:49:07.2	301.770	0.090	-0.070	0.820
2020/01/31 11:49:07.3	301.780	0.100	-0.090	0.790
2020/01/31 11:49:07.4	301.790	0.110	-0.100	0.760
2020/01/31 11:49:07.5	301.810	0.120	-0.120	0.740
2020/01/31 11:49:07.6	301.810	0.130	-0.140	0.710
2020/01/31 11:49:07.7	301.820	0.140	-0.160	0.680
2020/01/31 11:49:07.8	301.830	0.140	-0.180	0.660
2020/01/31 11:49:07.9	301.830	0.150	-0.200	0.630
2020/01/31 11:49:08.0	301.840	0.160	-0.220	0.600
2020/01/31 11:49:08.1	301.840	0.160	-0.240	0.580
2020/01/31 11:49:08.2	301.840	0.170	-0.260	0.550
2020/01/31 11:49:08.3	301.850	0.170	-0.280	0.530
2020/01/31 11:49:08.4	301.850	0.180	-0.300	0.510
2020/01/31 11:49:08.5	301.850	0.180	-0.320	0.480
2020/01/31 11:49:08.6	301.860	0.180	-0.340	0.460
2020/01/31 11:49:08.7	301.860	0.180	-0.350	0.440
2020/01/31 11:49:08.8	301.860	0.190	-0.370	0.420
2020/01/31 11:49:08.9	301.860	0.190	-0.380	0.410
2020/01/31 11:49:09.0	301.870	0.190	-0.400	0.390
2020/01/31 11:49:09.1	301.870	0.190	-0.410	0.380
2020/01/31 11:49:09.2	301.870	0.190	-0.420	0.370
2020/01/31 11:49:09.3	301.870	0.190	-0.430	0.360
2020/01/31 11:49:09.4	301.870	0.180	-0.430	0.350
2020/01/31 11:49:09.5	301.870	0.180	-0.440	0.340
2020/01/31 11:49:09.6	301.860	0.180	-0.440	0.340
2020/01/31 11:49:09.7	301.860	0.180	-0.450	0.340
2020/01/31 11:49:09.8	301.860	0.170	-0.450	0.340
2020/01/31 11:49:09.9	301.850	0.170	-0.450	0.350
2020/01/31 11:49:10.0	301.850	0.160	-0.450	0.350
2020/01/31 11:49:10.1	301.840	0.160	-0.440	0.360
2020/01/31 11:49:10.2	301.830	0.150	-0.440	0.370
2020/01/31 11:49:10.3	301.820	0.150	-0.440	0.380
2020/01/31 11:49:10.4	301.820	0.140	-0.430	0.390
2020/01/31 11:49:10.5	301.820	0.140	-0.430	0.410
2020/01/31 11:49:10.6	301.810	0.130	-0.420	0.430
2020/01/31 11:49:10.7	301.800	0.130	-0.420	0.440
2020/01/31 11:49:10.8	301.790	0.120	-0.410	0.460
2020/01/31 11:49:10.9	301.770	0.110	-0.400	0.480
2020/01/31 11:49:11.0	301.760	0.110	-0.400	0.500
2020/01/31 11:49:11.1	301.750	0.100	-0.390	0.530
2020/01/31 11:49:11.2	301.740	0.090	-0.380	0.550
2020/01/31 11:49:11.3	301.720	0.080	-0.370	0.570
2020/01/31 11:49:11.4	301.710	0.080	-0.370	0.590
2020/01/31 11:49:11.5	301.700	0.070	-0.350	0.610
2020/01/31 11:49:11.6	301.680	0.060	-0.350	0.630
2020/01/31 11:49:11.7	301.670	0.050	-0.340	0.650
2020/01/31 11:49:11.8	301.650	0.040	-0.340	0.670
2020/01/31 11:49:11.9	301.640	0.030	-0.330	0.680
2020/01/31 11:49:12.0	301.620	0.020	-0.330	0.700
2020/01/31 11:49:12.1	301.610	0.000	-0.320	0.720
2020/01/31 11:49:12.2	301.590	-0.010	-0.320	0.730
2020/01/31 11:49:12.3	301.570	-0.020	-0.320	0.740
2020/01/31 11:49:12.4	301.560	-0.030	-0.310	0.750
2020/01/31 11:49:12.5	301.540	-0.040	-0.320	0.760
2020/01/31 11:49:12.6	301.530	-0.050	-0.310	0.770
2020/01/31 11:49:12.7	301.510	-0.060	-0.310	0.770
2020/01/31 11:49:12.8	301.490	-0.080	-0.310	0.780
2020/01/31 11:49:12.9	301.480	-0.090	-0.310	0.780
2020/01/31 11:49:13.0	301.460	-0.100	-0.310	0.780
2020/01/31 11:49:13.1	301.450	-0.110	-0.310	0.780
2020/01/31 11:49:13.2	301.430	-0.120	-0.310	0.780
2020/01/31 11:49:13.3	301.420	-0.120	-0.310	0.780
2020/01/31 11:49:13.4	301.410	-0.130	-0.310	0.770
2020/01/31 11:49:13.5	301.400	-0.140	-0.310	0.770
2020/01/31 11:49:13.6	301.390	-0.140	-0.310	0.760
2020/01/31 11:49:13.7	301.380	-0.150	-0.310	0.760
2020/01/31 11:49:13.8	301.370	-0.150	-0.310	0.750
2020/01/31 11:49:13.9	301.360	-0.150	-0.300	0.740
2020/01/31 11:49:14.0	301.360	-0.160	-0.300	0.730
2020/01/31 11:49:14.1	301.350	-0.160	-0.300	0.720
2020/01/31 11:49:14.2	301.350	-0.160	-0.290	0.710
2020/01/31 11:49:14.3	301.340	-0.150	-0.280	0.700
2020/01/31 11:49:14.4	301.330	-0.150	-0.280	0.680
2020/01/31 11:49:14.5	301.320	-0.150	-0.270	0.670
2020/01/31 11:49:14.6	301.320	-0.140	-0.260	0.660
2020/01/31 11:49:14.7	301.320	-0.140	-0.250	0.650
2020/01/31 11:49:14.8	301.310	-0.130	-0.240	0.640
2020/01/31 11:49:14.9	301.310	-0.120	-0.230	0.630
2020/01/31 11:49:15.0	301.300	-0.120	-0.210	0.620
2020/01/31 11:49:15.1	301.300	-0.110	-0.200	0.620
2020/01/31 11:49:15.2	301.300	-0.100	-0.190	0.610
2020/01/31 11:49:15.3	301.290	-0.090	-0.180	0.610
2020/01/31 11:49:15.4	301.290	-0.080	-0.160	0.600
2020/01/31 11:49:15.5	301.290	-0.070	-0.160	0.600
2020/01/31 11:49:15.6	301.290	-0.050	-0.140	0.590
2020/01/31 11:49:15.7	301.290	-0.040	-0.130	0.590
2020/01/31 11:49:15.8	301.290	-0.030	-0.120	0.590
2020/01/31 11:49:15.9	301.280	-0.020	-0.110	0.590
2020/01/31 11:49:16.0	301.280	-0.010	-0.100	0.590
2020/01/31 11:49:16.1	301.280	0.000	-0.090	0.590
2020/01/31 11:49:16.2	301.280	0.020	-0.080	0.590
2020/01/31 11:49:16.3	301.280	0.030	-0.070	0.590
2020/01/31 11:49:16.4	301.280	0.040	-0.070	0.590
2020/01/31 11:49:16.5	301.280	0.050	-0.060	0.590
2020/01/31 11:49:16.6	301.280	0.060	-0.050	0.590
2020/01/31 11:49:16.7	301.280	0.070	-0.050	0.590
2020/01/31 11:49:16.8	301.280	0.080	-0.050	0.590
2020/01/31 11:49:16.9	301.280	0.080	-0.050	0.590
2020/01/31 11:49:17.0	301.280	0.090	-0.040	0.590
2020/01/31 11:49:17.1	301.280	0.090	-0.040	0.590
2020/01/31 11:49:17.2	301.280	0.100	-0.040	0.590
2020/01/31 11:49:17.3	301.280	0.100	-0.040	0.590
2020/01/31 11:49:17.4	301.280	0.100	-0.040	0.590
2020/01/31 11:49:17.5	301.280	0.110	-0.050	0.580
2020/01/31 11:49:17.6	301.280	0.110	-0.050	0.580
2020/01/31 11:49:17.7	301.280	0.100	-0.050	0.580
2020/01/31 11:49:17.8	301.290	0.100	-0.050	0.580
2020/01/31 11:49:17.9	301.290	0.100	-0.050	0.580
2020/01/31 11:49:18.0	301.290	0.090	-0.060	0.580
2020/01/31 11:49:18.1	301.290	0.080	-0.060	0.570
2020/01/31 11:49:18.2	301.290	0.080	-0.060	0.570
2020/01/31 11:49:18.3	301.300	0.070	-0.060	0.560
2020/01/31 11:49:18.4	301.300	0.060	-0.070	0.550
2020/01/31 11:49:18.5	301.310	0.050	-0.070	0.550
2020/01/31 11:49:18.6	301.320	0.040	-0.070	0.530
2020/01/31 11:49:18.7	301.320	0.020	-0.080	0.520
2020/01/31 11:49:18.8	301.330	0.010	-0.080	0.500
2020/01/31 11:49:18.9	301.340	-0.000	-0.090	0.490
2020/01/31 11:49:19.0	301.350	-0.020	-0.100	0.470
2020/01/31 11:49:19.1	301.360	-0.030	-0.110	0.450
2020/01/31 11:49:19.2	301.370	-0.040	-0.110	0.430
2020/01/31 11:49:19.3	301.380	-0.060	-0.120	0.410
2020/01/31 11:49:19.4	301.390	-0.070	-0.130	0.380
2020/01/31 11:49:19.5	301.400	-0.080	-0.140	0.360
2020/01/31 11:49:19.6	301.410	-0.100	-0.150	0.330
2020/01/31 11:49:19.7	301.420	-0.110	-0.160	0.310
2020/01/31 11:49:19.8	301.430	-0.120	-0.170	0.280
2020/01/31 11:49:19.9	301.440	-0.130	-0.180	0.260
2020/01/31 11:49:20.0	301.450	-0.140	-0.190	0.230
2020/01/31 11:49:20.1	301.470	-0.150	-0.200	0.210
2020/01/31 11:49:20.2	301.480	-0.160	-0.200	0.180
2020/01/31 11:49:20.3	301.490	-0.170	-0.210	0.160
2020/01/31 11:49:20.4	301.510	-0.180	-0.220	0.140
2020/01/31 11:49:20.5	301.510	-0.180	-0.230	0.110
2020/01/31 11:49:20.6	301.520	-0.190	-0.230	0.090
2020/01/31 11:49:20.7	301.540	-0.190	-0.240	0.070
2020/01/31 11:49:20.8	301.550	-0.200	-0.250	0.050
2020/01/31 11:49:20.9	301.570	-0.200	-0.260	0.040
2020/01/31 11:49:21.0	301.580	-0.200	-0.260	0.020
2020/01/31 11:49:21.1	301.590	-0.200	-0.270	0.010
2020/01/31 11:49:21.2	301.610	-0.200	-0.280	-0.010
2020/01/31 11:49:21.3	301.620	-0.200	-0.280	-0.020
2020/01/31 11:49:21.4	301.640	-0.200	-0.290	-0.030
2020/01/31 11:49:21.5	301.660	-0.190	-0.300	-0.030
2020/01/31 11:49:21.6	301.670	-0.190	-0.310	-0.030
2020/01/31 11:49:21.7	301.680	-0.190	-0.310	-0.040
2020/01/31 11:49:21.8	301.700	-0.180	-0.320	-0.030
2020/01/31 11:49:21.9	301.710	-0.170	-0.320	-0.030
2020/01/31 11:49:22.0	301.720	-0.170	-0.330	-0.020
2020/01/31 11:49:22.1	301.720	-0.160	-0.330	-0.010
2020/01/31 11:49:22.2	301.730	-0.150	-0.340	0.000
2020/01/31 11:49:22.3	301.740	-0.140	-0.340	0.020
2020/01/31 11:49:22.4	301.740	-0.130	-0.340	0.040
2020/01/31 11:49:22.5	301.740	-0.120	-0.340	0.060
2020/01/31 11:49:22.6	301.740	-0.110	-0.340	0.090
2020/01/31 11:49:22.7	301.740	-0.100	-0.340	0.120
2020/01/31 11:49:22.8	301.740	-0.080	-0.330	0.160
2020/01/31 11:49:22.9	301.740	-0.070	-0.330	0.200
2020/01/31 11:49:23.0	301.740	-0.060	-0.330	0.240
2020/01/31 11:49:23.1	301.730	-0.040	-0.330	0.280
2020/01/31 11:49:23.2	301.720	-0.030	-0.320	0.330
2020/01/31 11:49:23.3	301.710	-0.010	-0.320	0.380
2020/01/31 11:49:23.4	301.700	0.000	-0.310	0.430
2020/01/31 11:49:23.5	301.700	0.020	-0.300	0.490
2020/01/31 11:49:23.6	301.690	0.040	-0.300	0.540
2020/01/31 11:49:23.7	301.680	0.050	-0.290	0.600
2020/01/31 11:49:23.8	301.660	0.070	-0.290	0.660
2020/01/31 11:49:23.9	301.640	0.080	-0.280	0.720
2020/01/31 11:49:24.0	301.630	0.100	-0.270	0.780
2020/01/31 11:49:24.1	301.610	0.110	-0.270	0.840
2020/01/31 11:49:24.2	301.590	0.130	-0.260	0.900
2020/01/31 11:49:24.3	301.560	0.150	-0.260	0.960
2020/01/31 11:49:24.4	301.540	0.160	-0.260	1.020
2020/01/31 11:49:24.5	301.520	0.170	-0.260	1.080
2020/01/31 11:49:24.6	301.500	0.190	-0.250	1.140
2020/01/31 11:49:24.7	301.470	0.200	-0.250	1.190
2020/01/31 11:49:24.8	301.450	0.210	-0.260	1.240
2020/01/31 11:49:24.9	301.420	0.230	-0.260	1.290
2020/01/31 11:49:25.0	301.400	0.240	-0.260	1.340
2020/01/31 11:49:25.1	301.370	0.250	-0.270	1.380
2020/01/31 11:49:25.2	301.350	0.260	-0.270	1.420
2020/01/31 11:49:25.3	301.320	0.270	-0.280	1.460
2020/01/31 11:49:25.4	301.300	0.270	-0.280	1.490
2020/01/31 11:49:25.5	301.280	0.280	-0.290	1.520
2020/01/31 11:49:25.6	301.260	0.290	-0.300	1.540
2020/01/31 11:49:25.7	301.230	0.290	-0.310	1.560
2020/01/31 11:49:25.8	301.210	0.290	-0.320	1.580
2020/01/31 11:49:25.9	301.190	0.300	-0.330	1.590
2020/01/31 11:49:26.0	301.170	0.300	-0.340	1.600
2020/01/31 11:49:26.1	301.150	0.300	-0.360	1.600
2020/01/31 11:49:26.2	301.130	0.300	-0.370	1.600
2020/01/31 11:49:26.3	301.120	0.290	-0.380	1.600
2020/01/31 11:49:26.4	301.100	0.290	-0.390	1.590
2020/01/31 11:49:26.5	301.100	0.290	-0.400	1.580
2020/01/31 11:49:26.6	301.090	0.280	-0.410	1.560
2020/01/31 11:49:26.7	301.080	0.270	-0.420	1.540
2020/01/31 11:49:26.8	301.070	0.260	-0.430	1.520
2020/01/31 11:49:26.9	301.070	0.260	-0.440	1.490
2020/01/31 11:49:27.0	301.070	0.250	-0.450	1.460
2020/01/31 11:49:27.1	301.070	0.230	-0.460	1.420
2020/01/31 11:49:27.2	301.070	0.220	-0.460	1.390
2020/01/31 11:49:27.3	301.070	0.210	-0.470	1.350
2020/01/31 11:49:27.4	301.080	0.200	-0.470	1.300
2020/01/31 11:49:27.5	301.080	0.180	-0.480	1.250
2020/01/31 11:49:27.6	301.090	0.160	-0.480	1.210
2020/01/31 11:49:27.7	301.100	0.150	-0.490	1.160
2020/01/31 11:49:27.8	301.110	0.130	-0.490	1.110
2020/01/31 11:49:27.9	301.130	0.110	-0.490	1.060
2020/01/31 11:49:28.0	301.140	0.090	-0.490	1.000
2020/01/31 11:49:28.1	301.160	0.080	-0.480	0.950
2020/01/31 11:49:28.2	301.180	0.060	-0.480	0.890
2020/01/31 11:49:28.3	301.200	0.040	-0.480	0.840
2020/01/31 11:49:28.4	301.220	0.020	-0.480	0.780
2020/01/31 11:49:28.5	301.250	-0.000	-0.470	0.730
2020/01/31 11:49:28.6	301.270	-0.020	-0.470	0.670
2020/01/31 11:49:28.7	301.300	-0.040	-0.460	0.620
2020/01/31 11:49:28.8	301.320	-0.060	-0.460	0.560
2020/01/31 11:49:28.9	301.350	-0.080	-0.450	0.510
2020/01/31 11:49:29.0	301.370	-0.100	-0.450	0.450
2020/01/31 11:49:29.1	301.400	-0.110	-0.440	0.400
2020/01/31 11:49:29.2	301.420	-0.130	-0.440	0.340
2020/01/31 11:49:29.3	301.450	-0.150	-0.430	0.290
2020/01/31 11:49:29.4	301.480	-0.170	-0.430	0.240
2020/01/31 11:49:29.5	301.500	-0.180	-0.420	0.200
2020/01/31 11:49:29.6	301.530	-0.200	-0.420	0.150
2020/01/31 11:49:29.7	301.550	-0.210	-0.410	0.110
2020/01/31 11:49:29.8	301.580	-0.230	-0.400	0.070
2020/01/31 11:49:29.9	301.600	-0.240	-0.390	0.030
2020/01/31 11:49:30.0	301.620	-0.250	-0.380	-0.010
2020/01/31 11:49:30.1	301.650	-0.270	-0.370	-0.040
2020/01/31 11:49:30.2	301.670	-0.280	-0.360	-0.080
2020/01/31 11:49:30.3	301.690	-0.290	-0.350	-0.100
2020/01/31 11:49:30.4	301.710	-0.300	-0.340	-0.130
2020/01/31 11:49:30.5	301.710	-0.310	-0.320	-0.150
2020/01/31 11:49:30.6	301.720	-0.320	-0.310	-0.170
2020/01/31 11:49:30.7	301.740	-0.330	-0.290	-0.180
2020/01/31 11:49:30.8	301.750	-0.340	-0.270	-0.190
2020/01/31 11:49:30.9	301.760	-0.340	-0.250	-0.200
2020/01/31 11:49:31.0	301.760	-0.350	-0.230	-0.200
2020/01/31 11:49:31.1	301.770	-0.360	-0.210	-0.200
2020/01/31 11:49:31.2	301.770	-0.360	-0.190	-0.190
2020/01/31 11:49:31.3	301.770	-0.360	-0.170	-0.180
2020/01/31 11:49:31.4	301.770	-0.370	-0.140	-0.170
2020/01/31 11:49:31.5	301.770	-0.370	-0.110	-0.150
2020/01/31 11:49:31.6	301.760	-0.370	-0.080	-0.130
2020/01/31 11:49:31.7	301.760	-0.370	-0.060	-0.110
2020/01/31 11:49:31.8	301.750	-0.360	-0.030	-0.080
2020/01/31 11:49:31.9	301.740	-0.360	-0.000	-0.050
2020/01/31 11:49:32.0	301.730	-0.360	0.020	-0.020
2020/01/31 11:49:32.1	301.720	-0.350	0.050	0.010
2020/01/31 11:49:32.2	301.710	-0.340	0.080	0.040
2020/01/31 11:49:32.3	301.690	-0.340	0.110	0.080
2020/01/31 11:49:32.4	301.680	-0.330	0.130	0.120
2020/01/31 11:49:32.5	301.670	-0.320	0.150	0.150
2020/01/31 11:49:32.6	301.650	-0.300	0.180	0.190
2020/01/31 11:49:32.7	301.640	-0.290	0.200	0.240
2020/01/31 11:49:32.8	301.620	-0.280	0.220	0.280
2020/01/31 11:49:32.9	301.600	-0.260	0.240	0.320
2020/01/31 11:49:33.0	301.580	-0.250	0.260	0.360
2020/01/31 11:49:33.1	301.560	-0.230	0.280	0.400
2020/01/31 11:49:33.2	301.540	-0.210	0.300	0.440
2020/01/31 11:49:33.3	301.520	-0.190	0.310	0.490
2020/01/31 11:49:33.4	301.510	-0.170	0.320	0.530
2020/01/31 11:49:33.5	301.490	-0.150	0.330	0.570
2020/01/31 11:49:33.6	301.470	-0.130	0.340	0.610
2020/01/31 11:49:33.7	301.450	-0.110	0.350	0.650
2020/01/31 11:49:33.8	301.430	-0.090	0.360	0.690
2020/01/31 11:49:33.9	301.410	-0.070	0.360	0.730
2020/01/31 11:49:34.0	301.400	-0.050	0.360	0.770
2020/01/31 11:49:34.1	301.380	-0.030	0.360	0.810
2020/01/31 11:49:34.2	301.360	-0.000	0.360	0.840
2020/01/31 11:49:34.3	301.340	0.020	0.360	0.880
2020/01/31 11:49:34.4	301.320	0.040	0.350	0.910
2020/01/31 11:49:34.5	301.300	0.060	0.340	0.940
2020/01/31 11:49:34.6	301.280	0.080	0.330	0.970
2020/01/31 11:49:34.7	301.270	0.100	0.320	1.000
2020/01/31 11:49:34.8	301.250	0.130	0.310	1.030
2020/01/31 11:49:34.9	301.240	0.150	0.290	1.050
2020/01/31 11:49:35.0	301.230	0.170	0.270	1.080
2020/01/31 11:49:35.1	301.210	0.190	0.250	1.100
2020/01/31 11:49:35.2	301.200	0.210	0.230	1.120
2020/01/31 11:49:35.3	301.190	0.230	0.200	1.130
2020/01/31 11:49:35.4	301.180	0.240	0.180	1.150
2020/01/31 11:49:35.5	301.160	0.260	0.150	1.150
2020/01/31 11:49:35.6	301.150	0.280	0.120	1.160
2020/01/31 11:49:35.7	301.150	0.300	0.090	1.170
2020/01/31 11:49:35.8	301.140	0.310	0.060	1.170
2020/01/31 11:49:35.9	301.140	0.330	0.030	1.170
2020/01/31 11:49:36.0	301.140	0.350	-0.010	1.170
2020/01/31 11:49:36.1	301.140	0.360	-0.040	1.160
2020/01/31 11:49:36.2	301.130	0.370	-0.080	1.150
2020/01/31 11:49:36.3	301.130	0.390	-0.120	1.140
2020/01/31 11:49:36.4	301.140	0.400	-0.150	1.130
2020/01/31 11:49:36.5	301.130	0.410	-0.190	1.120
2020/01/31 11:49:36.6	301.140	0.420	-0.230	1.100
2020/01/31 11:49:36.7	301.140	0.430	-0.270	1.080
2020/01/31 11:49:36.8	301.140	0.430	-0.300	1.060
2020/01/31 11:49:36.9	301.140	0.440	-0.340	1.040
2020/01/31 11:49:37.0	301.150	0.440	-0.380	1.020
2020/01/31 11:49:37.1	301.150	0.440	-0.420	1.000
2020/01/31 11:49:37.2	301.150	0.440	-0.460	0.970
2020/01/31 11:49:37.3	301.160	0.440	-0.500	0.950
2020/01/31 11:49:37.4	301.160	0.440	-0.540	0.920
2020/01/31 11:49:37.5	301.170	0.440	-0.580	0.890
2020/01/31 11:49:37.6	301.170	0.430	-0.620	0.860
2020/01/31 11:49:37.7	301.170	0.420	-0.660	0.830
2020/01/31 11:49:37.8	301.170	0.410	-0.690	0.800
2020/01/31 11:49:37.9	301.170	0.400	-0.730	0.770
2020/01/31 11:49:38.0	301.170	0.390	-0.770	0.740
2020/01/31 11:49:38.1	301.170	0.380	-0.800	0.700
2020/01/31 11:49:38.2	301.170	0.360	-0.830	0.670
2020/01/31 11:49:38.3	301.170	0.340	-0.870	0.630
2020/01/31 11:49:38.4	301.170	0.330	-0.890	0.600
2020/01/31 11:49:38.5	301.170	0.310	-0.920	0.560
2020/01/31 11:49:38.6	301.170	0.290	-0.950	0.520
2020/01/31 11:49:38.7	301.180	0.270	-0.970	0.490
2020/01/31 11:49:38.8	301.180	0.240	-1.000	0.450
2020/01/31 11:49:38.9	301.180	0.220	-1.020	0.420
2020/01/31 11:49:39.0	301.180	0.200	-1.030	0.380
2020/01/31 11:49:39.1	301.180	0.180	-1.050	0.350
2020/01/31 11:49:39.2	301.180	0.150	-1.060	0.320
2020/01/31 11:49:39.3	301.190	0.130	-1.070	0.290
2020/01/31 11:49:39.4	301.190	0.100	-1.070	0.260
2020/01/31 11:49:39.5	301.180	0.080	-1.080	0.240
2020/01/31 11:49:39.6	301.180	0.050	-1.080	0.210
2020/01/31 11:49:39.7	301.180	0.030	-1.070	0.190
2020/01/31 11:49:39.8	301.180	0.000	-1.070	0.170
2020/01/31 11:49:39.9	301.180	-0.020	-1.050	0.160
2020/01/31 11:49:40.0	301.180	-0.050	-1.040	0.140
2020/01/31 11:49:40.1	301.180	-0.070	-1.020	0.130
2020/01/31 11:49:40.2	301.180	-0.100	-1.000	0.120
2020/01/31 11:49:40.3	301.180	-0.120	-0.980	0.120
2020/01/31 11:49:40.4	301.180	-0.150	-0.950	0.110
2020/01/31 11:49:40.5	301.170	-0.170	-0.920	0.110
2020/01/31 11:49:40.6	301.170	-0.190	-0.890	0.110
2020/01/31 11:49:40.7	301.170	-0.220	-0.850	0.110
2020/01/31 11:49:40.8	301.170	-0.240	-0.820	0.120
2020/01/31 11:49:40.9	301.170	-0.260	-0.780	0.120
2020/01/31 11:49:41.0	301.170	-0.280	-0.740	0.130
2020/01/31 11:49:41.1	301.170	-0.300	-0.700	0.140
2020/01/31 11:49:41.2	301.170	-0.320	-0.660	0.150
2020/01/31 11:49:41.3	301.170	-0.340	-0.620	0.160
2020/01/31 11:49:41.4	301.170	-0.360	-0.580	0.180
2020/01/31 11:49:41.5	301.190	-0.380	-0.540	0.200
2020/01/31 11:49:41.6	301.190	-0.400	-0.500	0.210
2020/01/31 11:49:41.7	301.190	-0.410	-0.460	0.230
2020/01/31 11:49:41.8	301.200	-0.420	-0.420	0.250
2020/01/31 11:49:41.9	301.200	-0.440	-0.380	0.260
2020/01/31 11:49:42.0	301.210	-0.450	-0.340	0.280
2020/01/31 11:49:42.1	301.210	-0.450	-0.300	0.300
2020/01/31 11:49:42.2	301.220	-0.460	-0.260	0.320
2020/01/31 11:49:42.3	301.220	-0.470	-0.230	0.340
2020/01/31 11:49:42.4	301.230	-0.470	-0.190	0.360
2020/01/31 11:49:42.5	301.230	-0.470	-0.160	0.380
2020/01/31 11:49:42.6	301.240	-0.480	-0.120	0.400
2020/01/31 11:49:42.7	301.240	-0.470	-0.090	0.420
2020/01/31 11:49:42.8	301.250	-0.470	-0.060	0.440
2020/01/31 11:49:42.9	301.250	-0.470	-0.030	0.460
2020/01/31 11:49:43.0	301.260	-0.460	-0.000	0.480
2020/01/31 11:49:43.1	301.260	-0.460	0.030	0.500
2020/01/31 11:49:43.2	301.270	-0.450	0.060	0.520
2020/01/31 11:49:43.3	301.270	-0.440	0.080	0.550
2020/01/31 11:49:43.4	301.270	-0.430	0.110	0.570
2020/01/31 11:49:43.5	301.270	-0.420	0.140	0.590
2020/01/31 11:49:43.6	301.270	-0.410	0.170	0.620
2020/01/31 11:49:43.7	301.270	-0.390	0.190	0.640
2020/01/31 11:49:43.8	301.270	-0.380	0.220	0.670
2020/01/31 11:49:43.9	301.270	-0.360	0.240	0.690
2020/01/31 11:49:44.0	301.270	-0.350	0.260	0.720
2020/01/31 11:49:44.1	301.260	-0.330	0.280	0.740
2020/01/31 11:49:44.2	301.260	-0.310	0.300	0.770
2020/01/31 11:49:44.3	301.260	-0.300	0.320	0.790
2020/01/31 11:49:44.4	301.250	-0.280	0.340	0.820
2020/01/31 11:49:44.5	301.250	-0.260	0.360	0.850
2020/01/31 11:49:44.6	301.250	-0.250	0.380	0.870
2020/01/31 11:49:44.7	301.240	-0.230	0.390	0.900
2020/01/31 11:49:44.8	301.230	-0.210	0.410	0.930
2020/01/31 11:49:44.9	301.220	-0.190	0.420	0.950
2020/01/31 11:49:45.0	301.210	-0.180	0.440	0.980
2020/01/31 11:49:45.1	301.200	-0.160	0.450	1.000
2020/01/31 11:49:45.2	301.190	-0.140	0.460	1.030
2020/01/31 11:49:45.3	301.170	-0.130	0.470	1.050
2020/01/31 11:49:45.4	301.160	-0.110	0.470	1.080
2020/01/31 11:49:45.5	301.150	-0.090	0.480	1.100
2020/01/31 11:49:45.6	301.140	-0.080	0.490	1.130
2020/01/31 11:49:45.7	301.120	-0.060	0.490	1.150
2020/01/31 11:49:45.8	301.100	-0.040	0.490	1.170
2020/01/31 11:49:45.9	301.080	-0.030	0.500	1.190
2020/01/31 11:49:46.0	301.060	-0.010	0.500	1.210
2020/01/31 11:49:46.1	301.040	0.010	0.490	1.230
2020/01/31 11:49:46.2	301.020	0.020	0.490	1.250
2020/01/31 11:49:46.3	301.000	0.040	0.480	1.260
2020/01/31 11:49:46.4	300.970	0.060	0.480	1.280
2020/01/31 11:49:46.5	300.950	0.070	0.470	1.290
2020/01/31 11:49:46.6	300.930	0.090	0.450	1.300
2020/01/31 11:49:46.7	300.910	0.110	0.440	1.300
2020/01/31 11:49:46.8	300.890	0.130	0.420	1.310
2020/01/31 11:49:46.9	300.870	0.140	0.400	1.310
2020/01/31 11:49:47.0	300.840	0.160	0.380	1.300
2020/01/31 11:49:47.1	300.830	0.180	0.350	1.300
2020/01/31 11:49:47.2	300.810	0.200	0.320	1.290
2020/01/31 11:49:47.3	300.790	0.220	0.290	1.270
2020/01/31 11:49:47.4	300.770	0.240	0.260	1.260
2020/01/31 11:49:47.5	300.750	0.260	0.220	1.240
2020/01/31 11:49:47.6	300.730	0.280	0.180	1.220
2020/01/31 11:49:47.7	300.720	0.300	0.140	1.200
2020/01/31 11:49:47.8	300.700	0.320	0.090	1.170
2020/01/31 11:49:47.9	300.690	0.340	0.040	1.140
2020/01/31 11:49:48.0	300.680	0.370	-0.010	1.110
2020/01/31 11:49:48.1	300.670	0.390	-0.060	1.080
2020/01/31 11:49:48.2	300.660	0.410	-0.110	1.040
2020/01/31 11:49:48.3	300.660	0.430	-0.170	1.010
2020/01/31 11:49:48.4	300.650	0.440	-0.220	0.970
2020/01/31 11:49:48.5	300.650	0.460	-0.290	0.930
2020/01/31 11:49:48.6	300.650	0.480	-0.340	0.890
2020/01/31 11:49:48.7	300.650	0.500	-0.400	0.850
2020/01/31 11:49:48.8	300.650	0.510	-0.460	0.810
2020/01/31 11:49:48.9	300.650	0.530	-0.510	0.770
2020/01/31 11:49:49.0	300.650	0.540	-0.570	0.730
2020/01/31 11:49:49.1	300.650	0.550	-0.620	0.690
2020/01/31 11:49:49.2	300.660	0.560	-0.680	0.660
2020/01/31 11:49:49.3	300.660	0.570	-0.730	0.620
2020/01/31 11:49:49.4	300.670	0.570	-0.780	0.580
2020/01/31 11:49:49.5	300.670	0.580	-0.820	0.550
2020/01/31 11:49:49.6	300.680	0.580	-0.870	0.510
2020/01/31 11:49:49.7	300.690	0.580	-0.910	0.480
2020/01/31 11:49:49.8	300.690	0.570	-0.950	0.450
2020/01/31 11:49:49.9	300.700	0.560	-0.980	0.420
2020/01/31 11:49:50.0	300.710	0.560	-1.010	0.400
2020/01/31 11:49:50.1	300.720	0.540	-1.040	0.370
2020/01/31 11:49:50.2	300.730	0.530	-1.070	0.350
2020/01/31 11:49:50.3	300.740	0.510	-1.090	0.330
2020/01/31 11:49:50.4	300.740	0.490	-1.110	0.310
2020/01/31 11:49:50.5	300.740	0.470	-1.120	0.290
2020/01/31 11:49:50.6	300.750	0.450	-1.130	0.270
2020/01/31 11:49:50.7	300.760	0.420	-1.140	0.260
2020/01/31 11:49:50.8	300.770	0.390	-1.140	0.240
2020/01/31 11:49:50.9	300.780	0.360	-1.140	0.230
2020/01/31 11:49:51.0	300.800	0.330	-1.140	0.220
2020/01/31 11:49:51.1	300.810	0.290	-1.130	0.210
2020/01/31 11:49:51.2	300.820	0.260	-1.120	0.200
2020/01/31 11:49:51.3	300.830	0.220	-1.100	0.190
2020/01/31 11:49:51.4	300.850	0.180	-1.080	0.190
2020/01/31 11:49:51.5	300.860	0.140	-1.060	0.190
2020/01/31 11:49:51.6	300.880	0.100	-1.030	0.180
2020/01/31 11:49:51.7	300.890	0.060	-1.010	0.180
2020/01/31 11:49:51.8	300.900	0.020	-0.970	0.180
2020/01/31 11:49:51.9	300.920	-0.020	-0.940	0.190
2020/01/31 11:49:52.0	300.930	-0.070	-0.900	0.190
2020/01/31 11:49:52.1	300.940	-0.110	-0.860	0.200
2020/01/31 11:49:52.2	300.960	-0.150	-0.820	0.210
2020/01/31 11:49:52.3	300.970	-0.190	-0.770	0.220
2020/01/31 11:49:52.4	300.980	-0.230	-0.720	0.230
2020/01/31 11:49:52.5	301.010	-0.270	-0.670	0.250
2020/01/31 11:49:52.6	301.020	-0.310	-0.620	0.260
2020/01/31 11:49:52.7	301.020	-0.350	-0.570	0.280
2020/01/31 11:49:52.8	301.030	-0.390	-0.520	0.290
2020/01/31 11:49:52.9	301.040	-0.420	-0.460	0.310
2020/01/31 11:49:53.0	301.040	-0.460	-0.410	0.330
2020/01/31 11:49:53.1	301.050	-0.490	-0.350	0.340
2020/01/31 11:49:53.2	301.050	-0.520	-0.300	0.360
2020/01/31 11:49:53.3	301.050	-0.550	-0.250	0.380
2020/01/31 11:49:53.4	301.060	-0.570	-0.200	0.390
2020/01/31 11:49:53.5	301.050	-0.600	-0.150	0.400
2020/01/31 11:49:53.6	301.050	-0.620	-0.100	0.420
2020/01/31 11:49:53.7	301.050	-0.640	-0.050	0.430
2020/01/31 11:49:53.8	301.050	-0.660	-0.010	0.430
2020/01/31 11:49:53.9	301.050	-0.670	0.040	0.440
2020/01/31 11:49:54.0	301.050	-0.680	0.080	0.450
2020/01/31 11:49:54.1	301.040	-0.690	0.120	0.450
2020/01/31 11:49:54.2	301.040	-0.690	0.150	0.460
2020/01/31 11:49:54.3	301.040	-0.700	0.190	0.460
2020/01/31 11:49:54.4	301.030	-0.700	0.220	0.460
2020/01/31 11:49:54.5	301.020	-0.690	0.240	0.460
2020/01/31 11:49:54.6	301.010	-0.690	0.270	0.460
2020/01/31 11:49:54.7	301.010	-0.680	0.290	0.460
2020/01/31 11:49:54.8	301.000	-0.670	0.310	0.460
2020/01/31 11:49:54.9	300.990	-0.650	0.330	0.460
2020/01/31 11:49:55.0	300.970	-0.640	0.350	0.460
2020/01/31 11:49:55.1	300.960	-0.620	0.360	0.460
2020/01/31 11:49:55.2	300.950	-0.600	0.370	0.470
2020/01/31 11:49:55.3	300.940	-0.570	0.380	0.470
2020/01/31 11:49:55.4	300.920	-0.550	0.390	0.470
2020/01/31 11:49:55.5	300.910	-0.520	0.390	0.480
2020/01/31 11:49:55.6	300.890	-0.490	0.390	0.480
2020/01/31 11:49:55.7	300.880	-0.460	0.380	0.480
2020/01/31 11:49:55.8	300.860	-0.430	0.380	0.490
2020/01/31 11:49:55.9	300.850	-0.390	0.370	0.490
2020/01/31 11:49:56.0	300.830	-0.360	0.360	0.490
2020/01/31 11:49:56.1	300.820	-0.320	0.350	0.500
2020/01/31 11:49:56.2	300.800	-0.280	0.330	0.510
2020/01/31 11:49:56.3	300.790	-0.250	0.320	0.510
2020/01/31 11:49:56.4	300.780	-0.210	0.300	0.520
2020/01/31 11:49:56.5	300.780	-0.170	0.280	0.530
2020/01/31 11:49:56.6	300.770	-0.130	0.260	0.540
2020/01/31 11:49:56.7	300.750	-0.090	0.230	0.550
2020/01/31 11:49:56.8	300.740	-0.060	0.210	0.560
2020/01/31 11:49:56.9	300.730	-0.020	0.180	0.580
2020/01/31 11:49:57.0	300.710	0.020	0.160	0.590
2020/01/31 11:49:57.1	300.700	0.050	0.130	0.610
2020/01/31 11:49:57.2	300.690	0.090	0.110	0.630
2020/01/31 11:49:57.3	300.680	0.120	0.080	0.650
2020/01/31 11:49:57.4	300.660	0.150	0.060	0.670
2020/01/31 11:49:57.5	300.650	0.180	0.030	0.690
2020/01/31 11:49:57.6	300.630	0.200	0.010	0.710
2020/01/31 11:49:57.7	300.620	0.230	-0.010	0.740
2020/01/31 11:49:57.8	300.610	0.250	-0.040	0.760
2020/01/31 11:49:57.9	300.600	0.270	-0.060	0.780
2020/01/31 11:49:58.0	300.580	0.290	-0.080	0.800
2020/01/31 11:49:58.1	300.570	0.310	-0.100	0.820
2020/01/31 11:49:58.2	300.560	0.320	-0.120	0.850
2020/01/31 11:49:58.3	300.550	0.340	-0.140	0.870
2020/01/31 11:49:58.4	300.540	0.350	-0.160	0.890
2020/01/31 11:49:58.5	300.530	0.350	-0.170	0.900
2020/01/31 11:49:58.6	300.520	0.360	-0.190	0.920
2020/01/31 11:49:58.7	300.520	0.370	-0.210	0.940
2020/01/31 11:49:58.8	300.510	0.370	-0.230	0.950
2020/01/31 11:49:58.9	300.500	0.370	-0.250	0.960
2020/01/31 11:49:59.0	300.500	0.370	-0.270	0.980
2020/01/31 11:49:59.1	300.500	0.370	-0.290	0.990
2020/01/31 11:49:59.2	300.490	0.370	-0.310	0.990
2020/01/31 11:49:59.3	300.490	0.370	-0.330	1.000
2020/01/31 11:49:59.4	300.490	0.360	-0.350	1.010
2020/01/31 11:49:59.5	300.490	0.360	-0.370	1.020
2020/01/31 11:49:59.6	300.480	0.350	-0.390	1.020
2020/01/31 11:49:59.7	300.480	0.340	-0.410	1.020
2020/01/31 11:49:59.8	300.480	0.340	-0.430	1.020
2020/01/31 11:49:59.9	300.480	0.330	-0.450	1.030
2020/01/31 11:50:00.0	300.480	0.320	-0.470	1.020
2020/01/31 11:50:00.1	300.480	0.310	-0.490	1.020
2020/01/31 11:50:00.2	300.480	0.300	-0.510	1.020
2020/01/31 11:50:00.3	300.480	0.300	-0.530	1.010
2020/01/31 11:50:00.4	300.490	0.290	-0.550	1.000
2020/01/31 11:50:00.5	300.490	0.280	-0.570	0.990
2020/01/31 11:50:00.6	300.500	0.270	-0.590	0.980
2020/01/31 11:50:00.7	300.500	0.260	-0.610	0.970
2020/01/31 11:50:00.8	300.510	0.250	-0.630	0.950
2020/01/31 11:50:00.9	300.520	0.240	-0.640	0.930
2020/01/31 11:50:01.0	300.530	0.230	-0.660	0.910
2020/01/31 11:50:01.1	300.540	0.220	-0.680	0.890
2020/01/31 11:50:01.2	300.550	0.210	-0.700	0.870
2020/01/31 11:50:01.3	300.560	0.200	-0.710	0.850
2020/01/31 11:50:01.4	300.570	0.190	-0.730	0.820
2020/01/31 11:50:01.5	300.580	0.180	-0.740	0.800
2020/01/31 11:50:01.6	300.590	0.170	-0.750	0.770
2020/01/31 11:50:01.7	300.610	0.160	-0.760	0.740
2020/01/31 11:50:01.8	300.620	0.150	-0.770	0.710
2020/01/31 11:50:01.9	300.630	0.140	-0.780	0.680
2020/01/31 11:50:02.0	300.640	0.130	-0.780	0.650
2020/01/31 11:50:02.1	300.660	0.130	-0.790	0.620
2020/01/31 11:50:02.2	300.670	0.120	-0.790	0.590
2020/01/31 11:50:02.3	300.680	0.110	-0.780	0.560
2020/01/31 11:50:02.4	300.690	0.100	-0.780	0.530
2020/01/31 11:50:02.5	300.690	0.090	-0.770	0.500
2020/01/31 11:50:02.6	300.700	0.080	-0.760	0.470
2020/01/31 11:50:02.7	300.710	0.070	-0.750	0.440
2020/01/31 11:50:02.8	300.710	0.050	-0.730	0.410
2020/01/31 11:50:02.9	300.720	0.040	-0.710	0.390
2020/01/31 11:50:03.0	300.720	0.030	-0.690	0.360
2020/01/31 11:50:03.1	300.720	0.020	-0.670	0.330
2020/01/31 11:50:03.2	300.730	0.010	-0.640	0.300
2020/01/31 11:50:03.3	300.730	-0.000	-0.610	0.280
2020/01/31 11:50:03.4	300.730	-0.020	-0.580	0.250
2020/01/31 11:50:03.5	300.730	-0.030	-0.560	0.230
2020/01/31 11:50:03.6	300.730	-0.040	-0.520	0.200
2020/01/31 11:50:03.7	300.730	-0.060	-0.490	0.180
2020/01/31 11:50:03.8	300.720	-0.070	-0.450	0.160
2020/01/31 11:50:03.9	300.720	-0.080	-0.420	0.140
2020/01/31 11:50:04.0	300.710	-0.100	-0.380	0.120
2020/01/31 11:50:04.1	300.710	-0.110	-0.340	0.110
2020/01/31 11:50:04.2	300.700	-0.120	-0.300	0.090
2020/01/31 11:50:04.3	300.690	-0.130	-0.270	0.080
2020/01/31 11:50:04.4	300.680	-0.150	-0.230	0.070
2020/01/31 11:50:04.5	300.670	-0.160	-0.190	0.060
2020/01/31 11:50:04.6	300.660	-0.170	-0.160	0.050
2020/01/31 11:50:04.7	300.650	-0.180	-0.120	0.050
2020/01/31 11:50:04.8	300.640	-0.190	-0.090	0.050
2020/01/31 11:50:04.9	300.630	-0.200	-0.050	0.050
2020/01/31 11:50:05.0	300.620	-0.200	-0.020	0.050
2020/01/31 11:50:05.1	300.600	-0.210	0.010	0.050
2020/01/31 11:50:05.2	300.590	-0.210	0.040	0.050
2020/01/31 11:50:05.3	300.580	-0.220	0.070	0.060
2020/01/31 11:50:05.4	300.570	-0.220	0.090	0.070
2020/01/31 11:50:05.5	300.550	-0.220	0.110	0.070
2020/01/31 11:50:05.6	300.540	-0.230	0.130	0.090
2020/01/31 11:50:05.7	300.530	-0.230	0.150	0.100
2020/01/31 11:50:05.8	300.510	-0.230	0.160	0.110
2020/01/31 11:50:05.9	300.500	-0.220	0.170	0.130
2020/01/31 11:50:06.0	300.490	-0.220	0.190	0.140
2020/01/31 11:50:06.1	300.480	-0.220	0.190	0.160
2020/01/31 11:50:06.2	300.460	-0.210	0.200	0.180
2020/01/31 11:50:06.3	300.450	-0.210	0.210	0.200
2020/01/31 11:50:06.4	300.440	-0.200	0.210	0.220
2020/01/31 11:50:06.5	300.430	-0.200	0.210	0.250
2020/01/31 11:50:06.6	300.420	-0.190	0.210	0.270
2020/01/31 11:50:06.7	300.410	-0.180	0.210	0.290
2020/01/31 11:50:06.8	300.390	-0.170	0.210	0.320
2020/01/31 11:50:06.9	300.380	-0.170	0.200	0.350
2020/01/31 11:50:07.0	300.370	-0.160	0.200	0.370
2020/01/31 11:50:07.1	300.360	-0.150	0.200	0.400
2020/01/31 11:50:07.2	300.340	-0.140	0.190	0.430
2020/01/31 11:50:07.3	300.330	-0.130	0.190	0.460
2020/01/31 11:50:07.4	300.320	-0.130	0.180	0.490
2020/01/31 11:50:07.5	300.300	-0.120	0.170	0.520
2020/01/31 11:50:07.6	300.290	-0.110	0.170	0.550
2020/01/31 11:50:07.7	300.270	-0.100	0.160	0.580
2020/01/31 11:50:07.8	300.260	-0.100	0.150	0.620
2020/01/31 11:50:07.9	300.240	-0.090	0.150	0.650
2020/01/31 11:50:08.0	300.230	-0.080	0.140	0.680
2020/01/31 11:50:08.1	300.210	-0.080	0.140	0.710
2020/01/31 11:50:08.2	300.190	-0.070	0.130	0.740
2020/01/31 11:50:08.3	300.180	-0.070	0.130	0.770
2020/01/31 11:50:08.4	300.160	-0.060	0.120	0.800
2020/01/31 11:50:08.5	300.150	-0.060	0.110	0.830
2020/01/31 11:50:08.6	300.130	-0.050	0.110	0.860
2020/01/31 11:50:08.7	300.120	-0.050	0.100	0.890
2020/01/31 11:50:08.8	300.100	-0.050	0.100	0.920
2020/01/31 11:50:08.9	300.090	-0.040	0.090	0.950
2020/01/31 11:50:09.0	300.070	-0.040	0.090	0.970
2020/01/31 11:50:09.1	300.060	-0.040	0.080	1.000
2020/01/31 11:50:09.2	300.050	-0.030	0.070	1.020
2020/01/31 11:50:09.3	300.040	-0.030	0.060	1.050
2020/01/31 11:50:09.4	300.020	-0.020	0.050	1.070
2020/01/31 11:50:09.5	300.010	-0.020	0.050	1.100
2020/01/31 11:50:09.6	300.000	-0.010	0.040	1.120
2020/01/31 11:50:09.7	299.990	-0.010	0.030	1.140
2020/01/31 11:50:09.8	299.980	-0.000	0.010	1.150
2020/01/31 11:50:09.9	299.970	0.000	0.000	1.170
2020/01/31 11:50:10.0	299.960	0.010	-0.010	1.190
2020/01/31 11:50:10.1	299.950	0.020	-0.030	1.200
2020/01/31 11:50:10.2	299.940	0.030	-0.050	1.210
2020/01/31 11:50:10.3	299.930	0.030	-0.060	1.220
2020/01/31 11:50:10.4	299.930	0.040	-0.080	1.220
2020/01/31 11:50:10.5	299.920	0.050	-0.100	1.230
2020/01/31 11:50:10.6	299.910	0.060	-0.130	1.230
2020/01/31 11:50:10.7	299.910	0.070	-0.150	1.220
2020/01/31 11:50:10.8	299.910	0.090	-0.170	1.220
2020/01/31 11:50:10.9	299.910	0.100	-0.200	1.210
2020/01/31 11:50:11.0	299.910	0.110	-0.230	1.190
2020/01/31 11:50:11.1	299.910	0.120	-0.250	1.180
2020/01/31 11:50:11.2	299.920	0.130	-0.280	1.160
2020/01/31 11:50:11.3	299.920	0.150	-0.310	1.140
2020/01/31 11:50:11.4	299.930	0.160	-0.340	1.120
2020/01/31 11:50:11.5	299.930	0.170	-0.370	1.090
2020/01/31 11:50:11.6	299.930	0.190	-0.400	1.060
2020/01/31 11:50:11.7	299.940	0.200	-0.430	1.030
2020/01/31 11:50:11.8	299.950	0.210	-0.460	1.000
2020/01/31 11:50:11.9	299.960	0.230	-0.480	0.970
2020/01/31 11:50:12.0	299.970	0.240	-0.510	0.940
2020/01/31 11:50:12.1	299.980	0.250	-0.540	0.910
2020/01/31 11:50:12.2	299.980	0.260	-0.560	0.880
2020/01/31 11:50:12.3	300.000	0.270	-0.590	0.840
2020/01/31 11:50:12.4	300.010	0.290	-0.610	0.810
2020/01/31 11:50:12.5	300.020	0.300	-0.630	0.780
2020/01/31 11:50:12.6	300.030	0.300	-0.660	0.750
2020/01/31 11:50:12.7	300.050	0.310	-0.680	0.720
2020/01/31 11:50:12.8	300.060	0.320	-0.690	0.690
2020/01/31 11:50:12.9	300.070	0.320	-0.710	0.660
2020/01/31 11:50:13.0	300.080	0.330	-0.730	0.630
2020/01/31 11:50:13.1	300.090	0.330	-0.740	0.600
2020/01/31 11:50:13.2	300.110	0.340	-0.750	0.580
2020/01/31 11:50:13.3	300.120	0.340	-0.770	0.550
2020/01/31 11:50:13.4	300.130	0.340	-0.780	0.530
2020/01/31 11:50:13.5	300.140	0.330	-0.780	0.510
2020/01/31 11:50:13.6	300.150	0.330	-0.790	0.490
2020/01/31 11:50:13.7	300.170	0.330	-0.800	0.470
2020/01/31 11:50:13.8	300.180	0.320	-0.800	0.450
2020/01/31 11:50:13.9	300.190	0.320	-0.800	0.440
2020/01/31 11:50:14.0	300.200	0.310	-0.800	0.430
2020/01/31 11:50:14.1	300.210	0.300	-0.800	0.420
2020/01/31 11:50:14.2	300.220	0.290	-0.800	0.410
2020/01/31 11:50:14.3	300.230	0.280	-0.800	0.410
2020/01/31 11:50:14.4	300.230	0.270	-0.790	0.400
2020/01/31 11:50:14.5	300.250	0.250	-0.790	0.400
2020/01/31 11:50:14.6	300.250	0.240	-0.780	0.410
2020/01/31 11:50:14.7	300.260	0.220	-0.770	0.410
2020/01/31 11:50:14.8	300.260	0.210	-0.760	0.420
2020/01/31 11:50:14.9	300.260	0.190	-0.750	0.430
2020/01/31 11:50:15.0	300.260	0.170	-0.730	0.440
2020/01/31 11:50:15.1	300.260	0.150	-0.720	0.450
2020/01/31 11:50:15.2	300.260	0.130	-0.700	0.470
2020/01/31 11:50:15.3	300.250	0.120	-0.680	0.490
2020/01/31 11:50:15.4	300.250	0.100	-0.660	0.510
2020/01/31 11:50:15.5	300.260	0.070	-0.630	0.530
2020/01/31 11:50:15.6	300.250	0.050	-0.610	0.550
2020/01/31 11:50:15.7	300.240	0.030	-0.580	0.580
2020/01/31 11:50:15.8	300.240	0.010	-0.560	0.600
2020/01/31 11:50:15.9	300.230	-0.010	-0.530	0.630
2020/01/31 11:50:16.0	300.220	-0.030	-0.510	0.650
2020/01/31 11:50:16.1	300.210	-0.050	-0.480	0.680
2020/01/31 11:50:16.2	300.200	-0.070	-0.450	0.700
2020/01/31 11:50:16.3	300.190	-0.090	-0.420	0.730
2020/01/31 11:50:16.4	300.180	-0.110	-0.400	0.750
2020/01/31 11:50:16.5	300.170	-0.130	-0.370	0.780
2020/01/31 11:50:16.6	300.160	-0.150	-0.340	0.800
2020/01/31 11:50:16.7	300.150	-0.170	-0.320	0.830
2020/01/31 11:50:16.8	300.140	-0.190	-0.290	0.850
2020/01/31 11:50:16.9	300.130	-0.210	-0.270	0.870
2020/01/31 11:50:17.0	300.110	-0.220	-0.250	0.890
2020/01/31 11:50:17.1	300.100	-0.240	-0.230	0.900
2020/01/31 11:50:17.2	300.090	-0.250	-0.210	0.920
2020/01/31 11:50:17.3	300.080	-0.260	-0.190	0.940
2020/01/31 11:50:17.4	300.070	-0.270	-0.180	0.950
2020/01/31 11:50:17.5	300.050	-0.280	-0.160	0.960
2020/01/31 11:50:17.6	300.040	-0.290	-0.150	0.970
2020/01/31 11:50:17.7	300.030	-0.300	-0.140	0.980
2020/01/31 11:50:17.8	300.020	-0.300	-0.130	0.980
2020/01/31 11:50:17.9	300.010	-0.310	-0.120	0.990
2020/01/31 11:50:18.0	300.000	-0.310	-0.110	0.990
2020/01/31 11:50:18.1	299.990	-0.310	-0.100	0.990
2020/01/31 11:50:18.2	299.980	-0.320	-0.100	0.990
2020/01/31 11:50:18.3	299.970	-0.320	-0.090	0.980
2020/01/31 11:50:18.4	299.960	-0.320	-0.090	0.980
2020/01/31 11:50:18.5	299.940	-0.310	-0.090	0.970
2020/01/31 11:50:18.6	299.940	-0.310	-0.080	0.960
2020/01/31 11:50:18.7	299.930	-0.310	-0.080	0.950
2020/01/31 11:50:18.8	299.930	-0.300	-0.080	0.930
2020/01/31 11:50:18.9	299.930	-0.300	-0.080	0.920
2020/01/31 11:50:19.0	299.930	-0.290	-0.070	0.910
2020/01/31 11:50:19.1	299.930	-0.290	-0.070	0.890
2020/01/31 11:50:19.2	299.930	-0.280	-0.070	0.870
2020/01/31 11:50:19.3	299.930	-0.270	-0.070	0.860
2020/01/31 11:50:19.4	299.940	-0.270	-0.060	0.840
2020/01/31 11:50:19.5	299.940	-0.260	-0.060	0.830
2020/01/31 11:50:19.6	299.950	-0.250	-0.050	0.810
2020/01/31 11:50:19.7	299.960	-0.250	-0.050	0.790
2020/01/31 11:50:19.8	299.970	-0.240	-0.040	0.780
2020/01/31 11:50:19.9	299.980	-0.230	-0.020	0.760
2020/01/31 11:50:20.0	299.990	-0.230	-0.010	0.750
2020/01/31 11:50:20.1	300.000	-0.220	0.000	0.730
2020/01/31 11:50:20.2	300.020	-0.220	0.020	0.720
2020/01/31 11:50:20.3	300.030	-0.210	0.030	0.700
2020/01/31 11:50:20.4	300.040	-0.210	0.050	0.690
2020/01/31 11:50:20.5	300.070	-0.200	0.070	0.680
2020/01/31 11:50:20.6	300.080	-0.200	0.090	0.670
2020/01/31 11:50:20.7	300.100	-0.200	0.110	0.650
2020/01/31 11:50:20.8	300.110	-0.200	0.140	0.640
2020/01/31 11:50:20.9	300.120	-0.190	0.160	0.640
2020/01/31 11:50:21.0	300.140	-0.190	0.190	0.630
2020/01/31 11:50:21.1	300.150	-0.190	0.220	0.620
2020/01/31 11:50:21.2	300.160	-0.190	0.240	0.620
2020/01/31 11:50:21.3	300.170	-0.190	0.270	0.620
2020/01/31 11:50:21.4	300.180	-0.190	0.300	0.610
2020/01/31 11:50:21.5	300.190	-0.200	0.330	0.620
2020/01/31 11:50:21.6	300.200	-0.200	0.360	0.620
2020/01/31 11:50:21.7	300.200	-0.200	0.390	0.620
2020/01/31 11:50:21.8	300.210	-0.200	0.410	0.620
2020/01/31 11:50:21.9	300.210	-0.200	0.440	0.620
2020/01/31 11:50:22.0	300.220	-0.200	0.470	0.630
2020/01/31 11:50:22.1	300.220	-0.200	0.490	0.630
2020/01/31 11:50:22.2	300.220	-0.200	0.510	0.640
2020/01/31 11:50:22.3	300.220	-0.200	0.530	0.650
2020/01/31 11:50:22.4	300.220	-0.200	0.550	0.660
2020/01/31 11:50:22.5	300.210	-0.200	0.550	0.660
2020/01/31 11:50:22.6	300.210	-0.190	0.560	0.670
2020/01/31 11:50:22.7	300.210	-0.190	0.570	0.680
2020/01/31 11:50:22.8	300.200	-0.190	0.570	0.690
2020/01/31 11:50:22.9	300.200	-0.180	0.570	0.700
2020/01/31 11:50:23.0	300.190	-0.170	0.570	0.710
2020/01/31 11:50:23.1	300.190	-0.160	0.560	0.720
2020/01/31 11:50:23.2	300.180	-0.150	0.550	0.730
2020/01/31 11:50:23.3	300.170	-0.140	0.530	0.730
2020/01/31 11:50:23.4	300.170	-0.120	0.510	0.740
2020/01/31 11:50:23.5	300.150	-0.110	0.480	0.750
2020/01/31 11:50:23.6	300.150	-0.090	0.450	0.750
2020/01/31 11:50:23.7	300.140	-0.070	0.410	0.760
2020/01/31 11:50:23.8	300.130	-0.050	0.370	0.770
2020/01/31 11:50:23.9	300.130	-0.030	0.330	0.770
2020/01/31 11:50:24.0	300.120	-0.010	0.280	0.780
2020/01/31 11:50:24.1	300.110	0.010	0.220	0.780
2020/01/31 11:50:24.2	300.110	0.040	0.160	0.780
2020/01/31 11:50:24.3	300.100	0.070	0.100	0.780
2020/01/31 11:50:24.4	300.090	0.090	0.040	0.780
2020/01/31 11:50:24.5	300.090	0.120	-0.030	0.790
2020/01/31 11:50:24.6	300.080	0.150	-0.100	0.790
2020/01/31 11:50:24.7	300.080	0.180	-0.180	0.790
2020/01/31 11:50:24.8	300.070	0.210	-0.250	0.780
2020/01/31 11:50:24.9	300.070	0.250	-0.330	0.780
2020/01/31 11:50:25.0	300.060	0.280	-0.410	0.780
2020/01/31 11:50:25.1	300.060	0.310	-0.480	0.780
2020/01/31 11:50:25.2	300.050	0.340	-0.560	0.780
2020/01/31 11:50:25.3	300.050	0.370	-0.640	0.770
2020/01/31 11:50:25.4	300.040	0.410	-0.720	0.770
2020/01/31 11:50:25.5	300.040	0.440	-0.790	0.770
2020/01/31 11:50:25.6	300.040	0.470	-0.870	0.770
2020/01/31 11:50:25.7	300.030	0.500	-0.940	0.760
2020/01/31 11:50:25.8	300.030	0.530	-1.010	0.760
2020/01/31 11:50:25.9	300.030	0.560	-1.070	0.750
2020/01/31 11:50:26.0	300.030	0.580	-1.140	0.750
2020/01/31 11:50:26.1	300.040	0.610	-1.200	0.750
2020/01/31 11:50:26.2	300.040	0.640	-1.250	0.740
2020/01/31 11:50:26.3	300.050	0.660	-1.300	0.740
2020/01/31 11:50:26.4	300.050	0.680	-1.350	0.730
2020/01/31 11:50:26.5	300.070	0.700	-1.390	0.720
2020/01/31 11:50:26.6	300.070	0.720	-1.430	0.720
2020/01/31 11:50:26.7	300.080	0.730	-1.460	0.710
2020/01/31 11:50:26.8	300.090	0.740	-1.480	0.710
2020/01/31 11:50:26.9	300.110	0.750	-1.500	0.700
2020/01/31 11:50:27.0	300.120	0.760	-1.510	0.700
2020/01/31 11:50:27.1	300.130	0.770	-1.520	0.700
2020/01/31 11:50:27.2	300.140	0.770	-1.520	0.690
2020/01/31 11:50:27.3	300.160	0.770	-1.510	0.690
2020/01/31 11:50:27.4	300.170	0.760	-1.500	0.680
2020/01/31 11:50:27.5	300.200	0.760	-1.480	0.690
2020/01/31 11:50:27.6	300.210	0.750	-1.460	0.690
2020/01/31 11:50:27.7	300.220	0.730	-1.430	0.680
2020/01/31 11:50:27.8	300.240	0.720	-1.400	0.680
2020/01/31 11:50:27.9	300.250	0.700	-1.360	0.680
2020/01/31 11:50:28.0	300.270	0.680	-1.320	0.680
2020/01/31 11:50:28.1	300.280	0.650	-1.270	0.690
2020/01/31 11:50:28.2	300.290	0.620	-1.220	0.690
2020/01/31 11:50:28.3	300.300	0.590	-1.160	0.690
2020/01/31 11:50:28.4	300.310	0.560	-1.100	0.700
2020/01/31 11:50:28.5	300.340	0.520	-1.030	0.700
2020/01/31 11:50:28.6	300.350	0.490	-0.970	0.710
2020/01/31 11:50:28.7	300.350	0.450	-0.890	0.720
2020/01/31 11:50:28.8	300.360	0.400	-0.820	0.730
2020/01/31 11:50:28.9	300.370	0.360	-0.750	0.740
2020/01/31 11:50:29.0	300.370	0.310	-0.670	0.750
2020/01/31 11:50:29.1	300.380	0.270	-0.590	0.760
2020/01/31 11:50:29.2	300.380	0.220	-0.520	0.780
2020/01/31 11:50:29.3	300.380	0.170	-0.440	0.790
2020/01/31 11:50:29.4	300.380	0.120	-0.360	0.800
2020/01/31 11:50:29.5	300.380	0.070	-0.280	0.820
2020/01/31 11:50:29.6	300.380	0.020	-0.200	0.830
2020/01/31 11:50:29.7	300.380	-0.030	-0.130	0.850
2020/01/31 11:50:29.8	300.380	-0.080	-0.060	0.860
2020/01/31 11:50:29.9	300.380	-0.130	0.010	0.870
2020/01/31 11:50:30.0	300.380	-0.170	0.080	0.880
2020/01/31 11:50:30.1	300.370	-0.220	0.140	0.900
2020/01/31 11:50:30.2	300.370	-0.260	0.200	0.910
2020/01/31 11:50:30.3	300.360	-0.310	0.250	0.920
2020/01/31 11:50:30.4	300.360	-0.350	0.310	0.930
2020/01/31 11:50:30.5	300.360	-0.390	0.350	0.930
2020/01/31 11:50:30.6	300.350	-0.420	0.400	0.940
2020/01/31 11:50:30.7	300.350	-0.460	0.440	0.950
2020/01/31 11:50:30.8	300.340	-0.490	0.470	0.950
2020/01/31 11:50:30.9	300.330	-0.520	0.500	0.960
2020/01/31 11:50:31.0	300.320	-0.550	0.530	0.960
2020/01/31 11:50:31.1	300.310	-0.570	0.550	0.960
2020/01/31 11:50:31.2	300.300	-0.590	0.560	0.960
2020/01/31 11:50:31.3	300.290	-0.610	0.570	0.960
2020/01/31 11:50:31.4	300.280	-0.630	0.580	0.950
2020/01/31 11:50:31.5	300.270	-0.640	0.580	0.950
2020/01/31 11:50:31.6	300.260	-0.650	0.580	0.940
2020/01/31 11:50:31.7	300.250	-0.660	0.570	0.930
2020/01/31 11:50:31.8	300.240	-0.660	0.560	0.910
2020/01/31 11:50:31.9	300.240	-0.670	0.540	0.900
2020/01/31 11:50:32.0	300.230	-0.670	0.520	0.880
2020/01/31 11:50:32.1	300.220	-0.660	0.500	0.870
2020/01/31 11:50:32.2	300.210	-0.660	0.470	0.850
2020/01/31 11:50:32.3	300.200	-0.650	0.450	0.830
2020/01/31 11:50:32.4	300.200	-0.640	0.420	0.800
2020/01/31 11:50:32.5	300.190	-0.630	0.380	0.780
2020/01/31 11:50:32.6	300.180	-0.620	0.350	0.760
2020/01/31 11:50:32.7	300.170	-0.610	0.320	0.730
2020/01/31 11:50:32.8	300.170	-0.590	0.280	0.710
2020/01/31 11:50:32.9	300.160	-0.570	0.250	0.690
2020/01/31 11:50:33.0	300.160	-0.560	0.220	0.660
2020/01/31 11:50:33.1	300.160	-0.540	0.180	0.640
2020/01/31 11:50:33.2	300.150	-0.520	0.150	0.620
2020/01/31 11:50:33.3	300.150	-0.500	0.120	0.600
2020/01/31 11:50:33.4	300.150	-0.480	0.100	0.580
2020/01/31 11:50:33.5	300.130	-0.460	0.070	0.560
2020/01/31 11:50:33.6	300.130	-0.430	0.050	0.550
2020/01/31 11:50:33.7	300.130	-0.410	0.030	0.530
2020/01/31 11:50:33.8	300.130	-0.390	0.010	0.520
2020/01/31 11:50:33.9	300.130	-0.370	-0.010	0.510
2020/01/31 11:50:34.0	300.130	-0.350	-0.020	0.500
2020/01/31 11:50:34.1	300.130	-0.330	-0.030	0.500
2020/01/31 11:50:34.2	300.130	-0.320	-0.040	0.500
2020/01/31 11:50:34.3	300.130	-0.300	-0.040	0.490
2020/01/31 11:50:34.4	300.130	-0.280	-0.050	0.500
2020/01/31 11:50:34.5	300.120	-0.260	-0.050	0.500
2020/01/31 11:50:34.6	300.120	-0.250	-0.050	0.500
2020/01/31 11:50:34.7	300.120	-0.230	-0.050	0.510
2020/01/31 11:50:34.8	300.120	-0.220	-0.050	0.520
2020/01/31 11:50:34.9	300.120	-0.200	-0.050	0.530
2020/01/31 11:50:35.0	300.120	-0.190	-0.040	0.540
2020/01/31 11:50:35.1	300.120	-0.170	-0.040	0.550
2020/01/31 11:50:35.2	300.120	-0.160	-0.040	0.560
2020/01/31 11:50:35.3	300.110	-0.150	-0.040	0.570
2020/01/31 11:50:35.4	300.110	-0.130	-0.040	0.590
2020/01/31 11:50:35.5	300.110	-0.120	-0.050	0.600
2020/01/31 11:50:35.6	300.110	-0.110	-0.050	0.610
2020/01/31 11:50:35.7	300.110	-0.090	-0.060	0.620
2020/01/31 11:50:35.8	300.110	-0.080	-0.070	0.630
2020/01/31 11:50:35.9	300.110	-0.070	-0.080	0.640
2020/01/31 11:50:36.0	300.110	-0.060	-0.090	0.640
2020/01/31 11:50:36.1	300.120	-0.040	-0.110	0.650
2020/01/31 11:50:36.2	300.120	-0.030	-0.130	0.650
2020/01/31 11:50:36.3	300.130	-0.020	-0.150	0.650
2020/01/31 11:50:36.4	300.140	-0.000	-0.170	0.650
2020/01/31 11:50:36.5	300.150	0.010	-0.200	0.650
2020/01/31 11:50:36.6	300.160	0.030	-0.230	0.640
2020/01/31 11:50:36.7	300.170	0.040	-0.260	0.640
2020/01/31 11:50:36.8	300.180	0.050	-0.290	0.630
2020/01/31 11:50:36.9	300.200	0.070	-0.330	0.620
2020/01/31 11:50:37.0	300.210	0.080	-0.370	0.610
2020/01/31 11:50:37.1	300.230	0.100	-0.400	0.590
2020/01/31 11:50:37.2	300.250	0.110	-0.440	0.580
2020/01/31 11:50:37.3	300.270	0.120	-0.480	0.570
2020/01/31 11:50:37.4	300.290	0.140	-0.520	0.550
2020/01/31 11:50:37.5	300.310	0.150	-0.560	0.530
2020/01/31 11:50:37.6	300.330	0.160	-0.590	0.520
2020/01/31 11:50:37.7	300.350	0.180	-0.630	0.500
2020/01/31 11:50:37.8	300.370	0.190	-0.660	0.480
2020/01/31 11:50:37.9	300.390	0.200	-0.690	0.470
2020/01/31 11:50:38.0	300.420	0.210	-0.720	0.450
2020/01/31 11:50:38.1	300.440	0.220	-0.750	0.440
2020/01/31 11:50:38.2	300.470	0.230	-0.780	0.420
2020/01/31 11:50:38.3	300.490	0.240	-0.800	0.410
2020/01/31 11:50:38.4	300.510	0.240	-0.820	0.390
2020/01/31 11:50:38.5	300.530	0.250	-0.830	0.380
2020/01/31 11:50:38.6	300.550	0.260	-0.840	0.370
2020/01/31 11:50:38.7	300.580	0.260	-0.850	0.360
2020/01/31 11:50:38.8	300.600	0.260	-0.860	0.360
2020/01/31 11:50:38.9	300.620	0.270	-0.860	0.350
2020/01/31 11:50:39.0	300.640	0.270	-0.860	0.340
2020/01/31 11:50:39.1	300.660	0.270	-0.850	0.340
2020/01/31 11:50:39.2	300.680	0.270	-0.840	0.340
2020/01/31 11:50:39.3	300.700	0.270	-0.830	0.340
2020/01/31 11:50:39.4	300.720	0.270	-0.810	0.340
2020/01/31 11:50:39.5	300.740	0.260	-0.790	0.350
2020/01/31 11:50:39.6	300.750	0.260	-0.770	0.360
2020/01/31 11:50:39.7	300.760	0.260	-0.740	0.370
2020/01/31 11:50:39.8	300.770	0.250	-0.710	0.380
2020/01/31 11:50:39.9	300.780	0.250	-0.680	0.390
2020/01/31 11:50:40.0	300.790	0.240	-0.650	0.410
2020/01/31 11:50:40.1	300.800	0.240	-0.610	0.430
2020/01/31 11:50:40.2	300.800	0.230	-0.580	0.440
2020/01/31 11:50:40.3	300.810	0.230	-0.540	0.460
2020/01/31 11:50:40.4	300.810	0.220	-0.500	0.490
2020/01/31 11:50:40.5	300.810	0.220	-0.460	0.510
2020/01/31 11:50:40.6	300.810	0.210	-0.420	0.540
2020/01/31 11:50:40.7	300.810	0.200	-0.380	0.560
2020/01/31 11:50:40.8	300.800	0.200	-0.340	0.580
2020/01/31 11:50:40.9	300.800	0.190	-0.300	0.610
2020/01/31 11:50:41.0	300.800	0.190	-0.260	0.640
2020/01/31 11:50:41.1	300.790	0.180	-0.230	0.660
2020/01/31 11:50:41.2	300.790	0.180	-0.190	0.690
2020/01/31 11:50:41.3	300.790	0.170	-0.150	0.710
2020/01/31 11:50:41.4	300.780	0.170	-0.120	0.740
2020/01/31 11:50:41.5	300.790	0.160	-0.090	0.760
2020/01/31 11:50:41.6	300.780	0.160	-0.060	0.780
2020/01/31 11:50:41.7	300.780	0.160	-0.030	0.810
2020/01/31 11:50:41.8	300.770	0.160	-0.000	0.830
2020/01/31 11:50:41.9	300.770	0.160	0.020	0.850
2020/01/31 11:50:42.0	300.770	0.150	0.040	0.870
2020/01/31 11:50:42.1	300.760	0.150	0.060	0.900
2020/01/31 11:50:42.2	300.760	0.160	0.080	0.920
2020/01/31 11:50:42.3	300.760	0.160	0.100	0.940
2020/01/31 11:50:42.4	300.750	0.160	0.110	0.950
2020/01/31 11:50:42.5	300.750	0.160	0.120	0.980
2020/01/31 11:50:42.6	300.740	0.160	0.130	0.990
2020/01/31 11:50:42.7	300.740	0.170	0.140	1.010
2020/01/31 11:50:42.8	300.730	0.170	0.140	1.030
2020/01/31 11:50:42.9	300.730	0.170	0.150	1.040
2020/01/31 11:50:43.0	300.720	0.180	0.150	1.060
2020/01/31 11:50:43.1	300.710	0.180	0.150	1.070
2020/01/31 11:50:43.2	300.710	0.190	0.150	1.080
2020/01/31 11:50:43.3	300.700	0.190	0.150	1.100
2020/01/31 11:50:43.4	300.690	0.190	0.140	1.110
2020/01/31 11:50:43.5	300.690	0.200	0.140	1.110
2020/01/31 11:50:43.6	300.680	0.200	0.130	1.120
2020/01/31 11:50:43.7	300.670	0.210	0.130	1.120
2020/01/31 11:50:43.8	300.660	0.210	0.120	1.130
2020/01/31 11:50:43.9	300.660	0.210	0.110	1.130
2020/01/31 11:50:44.0	300.650	0.210	0.100	1.130
2020/01/31 11:50:44.1	300.640	0.210	0.080	1.130
2020/01/31 11:50:44.2	300.640	0.210	0.070	1.120
2020/01/31 11:50:44.3	300.630	0.210	0.060	1.120
2020/01/31 11:50:44.4	300.620	0.210	0.040	1.110
2020/01/31 11:50:44.5	300.610	0.200	0.030	1.100
2020/01/31 11:50:44.6	300.600	0.200	0.010	1.090
2020/01/31 11:50:44.7	300.600	0.190	-0.010	1.080
2020/01/31 11:50:44.8	300.590	0.190	-0.030	1.060
2020/01/31 11:50:44.9	300.590	0.180	-0.050	1.040
2020/01/31 11:50:45.0	300.590	0.170	-0.070	1.020
2020/01/31 11:50:45.1	300.580	0.160	-0.090	0.990
2020/01/31 11:50:45.2	300.580	0.140	-0.120	0.970
2020/01/31 11:50:45.3	300.580	0.130	-0.140	0.940
2020/01/31 11:50:45.4	300.570	0.120	-0.160	0.910
2020/01/31 11:50:45.5	300.570	0.100	-0.190	0.870
2020/01/31 11:50:45.6	300.570	0.090	-0.210	0.830
2020/01/31 11:50:45.7	300.570	0.070	-0.240	0.800
2020/01/31 11:50:45.8	300.570	0.050	-0.260	0.760
2020/01/31 11:50:45.9	300.570	0.030	-0.290	0.710
2020/01/31 11:50:46.0	300.570	0.010	-0.310	0.670
2020/01/31 11:50:46.1	300.570	-0.010	-0.330	0.630
2020/01/31 11:50:46.2	300.570	-0.030	-0.350	0.580
2020/01/31 11:50:46.3	300.570	-0.050	-0.380	0.530
2020/01/31 11:50:46.4	300.570	-0.070	-0.400	0.480
2020/01/31 11:50:46.5	300.580	-0.090	-0.420	0.430
2020/01/31 11:50:46.6	300.580	-0.110	-0.440	0.380
2020/01/31 11:50:46.7	300.590	-0.140	-0.460	0.330
2020/01/31 11:50:46.8	300.590	-0.160	-0.480	0.280
2020/01/31 11:50:46.9	300.590	-0.180	-0.490	0.220
2020/01/31 11:50:47.0	300.600	-0.200	-0.510	0.170
2020/01/31 11:50:47.1	300.600	-0.220	-0.520	0.110
2020/01/31 11:50:47.2	300.610	-0.240	-0.540	0.060
2020/01/31 11:50:47.3	300.620	-0.250	-0.550	0.000
2020/01/31 11:50:47.4	300.620	-0.270	-0.560	-0.050
2020/01/31 11:50:47.5	300.630	-0.290	-0.580	-0.100
2020/01/31 11:50:47.6	300.630	-0.300	-0.590	-0.160
2020/01/31 11:50:47.7	300.640	-0.310	-0.600	-0.210
2020/01/31 11:50:47.8	300.650	-0.330	-0.610	-0.260
2020/01/31 11:50:47.9	300.660	-0.340	-0.610	-0.310
2020/01/31 11:50:48.0	300.670	-0.350	-0.620	-0.360
2020/01/31 11:50:48.1	300.680	-0.360	-0.620	-0.410
2020/01/31 11:50:48.2	300.690	-0.360	-0.630	-0.450
2020/01/31 11:50:48.3	300.710	-0.370	-0.630	-0.500
2020/01/31 11:50:48.4	300.720	-0.380	-0.630	-0.540
2020/01/31 11:50:48.5	300.730	-0.380	-0.630	-0.580
2020/01/31 11:50:48.6	300.740	-0.390	-0.630	-0.610
2020/01/31 11:50:48.7	300.760	-0.390	-0.630	-0.640
2020/01/31 11:50:48.8	300.780	-0.390	-0.620	-0.670
2020/01/31 11:50:48.9	300.790	-0.390	-0.620	-0.700
2020/01/31 11:50:49.0	300.810	-0.390	-0.610	-0.720
2020/01/31 11:50:49.1	300.830	-0.390	-0.600	-0.740
2020/01/31 11:50:49.2	300.850	-0.390	-0.590	-0.750
2020/01/31 11:50:49.3	300.860	-0.390	-0.570	-0.760
2020/01/31 11:50:49.4	300.880	-0.390	-0.560	-0.760
2020/01/31 11:50:49.5	300.910	-0.380	-0.540	-0.760
2020/01/31 11:50:49.6	300.920	-0.380	-0.520	-0.760
2020/01/31 11:50:49.7	300.940	-0.380	-0.500	-0.740
2020/01/31 11:50:49.8	300.960	-0.370	-0.480	-0.730
2020/01/31 11:50:49.9	300.980	-0.370	-0.460	-0.710
2020/01/31 11:50:50.0	300.990	-0.360	-0.440	-0.680
2020/01/31 11:50:50.1	301.010	-0.360	-0.410	-0.650
2020/01/31 11:50:50.2	301.020	-0.350	-0.380	-0.620
2020/01/31 11:50:50.3	301.040	-0.350	-0.360	-0.580
2020/01/31 11:50:50.4	301.050	-0.340	-0.330	-0.540
2020/01/31 11:50:50.5	301.060	-0.340	-0.300	-0.490
2020/01/31 11:50:50.6	301.080	-0.330	-0.270	-0.440
2020/01/31 11:50:50.7	301.090	-0.320	-0.230	-0.390
2020/01/31 11:50:50.8	301.100	-0.320	-0.200	-0.340
2020/01/31 11:50:50.9	301.110	-0.310	-0.170	-0.280
2020/01/31 11:50:51.0	301.120	-0.300	-0.130	-0.220
2020/01/31 11:50:51.1	301.120	-0.290	-0.100	-0.160
2020/01/31 11:50:51.2	301.130	-0.290	-0.060	-0.090
2020/01/31 11:50:51.3	301.140	-0.280	-0.030	-0.020
2020/01/31 11:50:51.4	301.140	-0.270	0.000	0.050
2020/01/31 11:50:51.5	301.150	-0.260	0.040	0.120
2020/01/31 11:50:51.6	301.150	-0.250	0.070	0.190
2020/01/31 11:50:51.7	301.160	-0.240	0.110	0.270
2020/01/31 11:50:51.8	301.160	-0.230	0.140	0.340
2020/01/31 11:50:51.9	301.160	-0.220	0.170	0.410
2020/01/31 11:50:52.0	301.160	-0.210	0.200	0.490
2020/01/31 11:50:52.1	301.160	-0.200	0.230	0.560
2020/01/31 11:50:52.2	301.150	-0.190	0.250	0.640
2020/01/31 11:50:52.3	301.150	-0.170	0.270	0.710
2020/01/31 11:50:52.4	301.150	-0.160	0.300	0.780
2020/01/31 11:50:52.5	301.150	-0.150	0.320	0.850
2020/01/31 11:50:52.6	301.140	-0.130	0.330	0.910
2020/01/31 11:50:52.7	301.140	-0.120	0.350	0.980
2020/01/31 11:50:52.8	301.130	-0.100	0.360	1.040
2020/01/31 11:50:52.9	301.130	-0.090	0.370	1.100
2020/01/31 11:50:53.0	301.120	-0.070	0.370	1.150
2020/01/31 11:50:53.1	301.120	-0.050	0.370	1.210
2020/01/31 11:50:53.2	301.110	-0.040	0.370	1.260
2020/01/31 11:50:53.3	301.100	-0.020	0.370	1.300
2020/01/31 11:50:53.4	301.100	0.000	0.360	1.340
2020/01/31 11:50:53.5	301.080	0.020	0.350	1.380
2020/01/31 11:50:53.6	301.080	0.040	0.340	1.410
2020/01/31 11:50:53.7	301.070	0.060	0.320	1.440
2020/01/31 11:50:53.8	301.060	0.080	0.300	1.470
2020/01/31 11:50:53.9	301.050	0.110	0.280	1.490
2020/01/31 11:50:54.0	301.050	0.130	0.250	1.510
2020/01/31 11:50:54.1	301.040	0.150	0.230	1.530
2020/01/31 11:50:54.2	301.030	0.180	0.200	1.540
2020/01/31 11:50:54.3	301.020	0.200	0.170	1.540
2020/01/31 11:50:54.4	301.010	0.230	0.130	1.550
2020/01/31 11:50:54.5	301.000	0.250	0.100	1.550
2020/01/31 11:50:54.6	301.000	0.280	0.060	1.550
2020/01/31 11:50:54.7	300.990	0.300	0.020	1.550
2020/01/31 11:50:54.8	300.980	0.330	-0.020	1.540
2020/01/31 11:50:54.9	300.980	0.360	-0.060	1.530
2020/01/31 11:50:55.0	300.970	0.380	-0.100	1.520
2020/01/31 11:50:55.1	300.960	0.410	-0.150	1.510
2020/01/31 11:50:55.2	300.960	0.430	-0.190	1.490
2020/01/31 11:50:55.3	300.950	0.450	-0.240	1.480
2020/01/31 11:50:55.4	300.950	0.480	-0.280	1.460
2020/01/31 11:50:55.5	300.940	0.500	-0.330	1.440
2020/01/31 11:50:55.6	300.940	0.520	-0.370	1.410
2020/01/31 11:50:55.7	300.940	0.540	-0.420	1.390
2020/01/31 11:50:55.8	300.940	0.550	-0.460	1.360
2020/01/31 11:50:55.9	300.940	0.570	-0.500	1.340
2020/01/31 11:50:56.0	300.940	0.580	-0.540	1.310
2020/01/31 11:50:56.1	300.940	0.600	-0.580	1.270
2020/01/31 11:50:56.2	300.950	0.610	-0.620	1.240
2020/01/31 11:50:56.3	300.950	0.610	-0.650	1.200
2020/01/31 11:50:56.4	300.950	0.620	-0.690	1.170
2020/01/31 11:50:56.5	300.960	0.620	-0.720	1.130
2020/01/31 11:50:56.6	300.970	0.620	-0.740	1.090
2020/01/31 11:50:56.7	300.980	0.620	-0.770	1.040
2020/01/31 11:50:56.8	300.980	0.620	-0.800	1.000
2020/01/31 11:50:56.9	300.990	0.610	-0.820	0.950
2020/01/31 11:50:57.0	301.000	0.610	-0.840	0.910
2020/01/31 11:50:57.1	301.010	0.600	-0.850	0.860
2020/01/31 11:50:57.2	301.020	0.580	-0.860	0.810
2020/01/31 11:50:57.3	301.030	0.570	-0.870	0.750
2020/01/31 11:50:57.4	301.040	0.550	-0.880	0.700
2020/01/31 11:50:57.5	301.050	0.530	-0.890	0.650
2020/01/31 11:50:57.6	301.060	0.510	-0.890	0.590
2020/01/31 11:50:57.7	301.080	0.490	-0.890	0.540
2020/01/31 11:50:57.8	301.090	0.470	-0.880	0.480
2020/01/31 11:50:57.9	301.100	0.440	-0.880	0.430
2020/01/31 11:50:58.0	301.120	0.410	-0.870	0.370
2020/01/31 11:50:58.1	301.130	0.380	-0.850	0.320
2020/01/31 11:50:58.2	301.140	0.350	-0.840	0.270
2020/01/31 11:50:58.3	301.160	0.320	-0.820	0.220
2020/01/31 11:50:58.4	301.170	0.290	-0.800	0.170
2020/01/31 11:50:58.5	301.160	0.260	-0.780	0.120
2020/01/31 11:50:58.6	301.170	0.220	-0.750	0.070
2020/01/31 11:50:58.7	301.180	0.190	-0.720	0.020
2020/01/31 11:50:58.8	301.190	0.160	-0.690	-0.020
2020/01/31 11:50:58.9	301.200	0.120	-0.660	-0.060
2020/01/31 11:50:59.0	301.210	0.090	-0.630	-0.100
2020/01/31 11:50:59.1	301.210	0.050	-0.590	-0.130
2020/01/31 11:50:59.2	301.220	0.020	-0.560	-0.170
2020/01/31 11:50:59.3	301.220	-0.020	-0.520	-0.200
2020/01/31 11:50:59.4	301.230	-0.050	-0.480	-0.220
2020/01/31 11:50:59.5	301.220	-0.090	-0.440	-0.250
2020/01/31 11:50:59.6	301.220	-0.120	-0.400	-0.270
2020/01/31 11:50:59.7	301.220	-0.150	-0.360	-0.280
2020/01/31 11:50:59.8	301.220	-0.180	-0.320	-0.300
2020/01/31 11:50:59.9	301.220	-0.220	-0.280	-0.300
2020/01/31 11:51:00.0	301.220	-0.250	-0.240	-0.310
2020/01/31 11:51:00.1	301.220	-0.270	-0.200	-0.310
2020/01/31 11:51:00.2	301.220	-0.300	-0.160	-0.310
2020/01/31 11:51:00.3	301.210	-0.330	-0.120	-0.310
2020/01/31 11:51:00.4	301.210	-0.360	-0.090	-0.300
2020/01/31 11:51:00.5	301.200	-0.380	-0.050	-0.290
2020/01/31 11:51:00.6	301.190	-0.400	-0.020	-0.270
2020/01/31 11:51:00.7	301.180	-0.420	0.010	-0.250
2020/01/31 11:51:00.8	301.180	-0.440	0.040	-0.240
2020/01/31 11:51:00.9	301.170	-0.460	0.070	-0.210
2020/01/31 11:51:01.0	301.160	-0.480	0.090	-0.190
2020/01/31 11:51:01.1	301.150	-0.500	0.110	-0.160
2020/01/31 11:51:01.2	301.150	-0.510	0.130	-0.140
2020/01/31 11:51:01.3	301.140	-0.520	0.150	-0.110
2020/01/31 11:51:01.4	301.130	-0.530	0.160	-0.080
2020/01/31 11:51:01.5	301.120	-0.540	0.170	-0.050
2020/01/31 11:51:01.6	301.110	-0.540	0.170	-0.010
2020/01/31 11:51:01.7	301.100	-0.550	0.180	0.020
2020/01/31 11:51:01.8	301.090	-0.550	0.180	0.060
2020/01/31 11:51:01.9	301.080	-0.550	0.180	0.100
2020/01/31 11:51:02.0	301.060	-0.550	0.180	0.130
2020/01/31 11:51:02.1	301.050	-0.550	0.170	0.170
2020/01/31 11:51:02.2	301.040	-0.540	0.170	0.210
2020/01/31 11:51:02.3	301.030	-0.540	0.160	0.240
2020/01/31 11:51:02.4	301.020	-0.530	0.150	0.280
2020/01/31 11:51:02.5	301.010	-0.520	0.130	0.320
2020/01/31 11:51:02.6	301.000	-0.510	0.120	0.350
2020/01/31 11:51:02.7	300.990	-0.490	0.100	0.390
2020/01/31 11:51:02.8	300.980	-0.480	0.080	0.420
2020/01/31 11:51:02.9	300.970	-0.470	0.060	0.450
2020/01/31 11:51:03.0	300.960	-0.450	0.040	0.480
2020/01/31 11:51:03.1	300.960	-0.430	0.020	0.510
2020/01/31 11:51:03.2	300.950	-0.410	0.000	0.540
2020/01/31 11:51:03.3	300.940	-0.400	-0.020	0.570
2020/01/31 11:51:03.4	300.940	-0.380	-0.050	0.590
2020/01/31 11:51:03.5	300.940	-0.360	-0.070	0.610
2020/01/31 11:51:03.6	300.930	-0.340	-0.090	0.630
2020/01/31 11:51:03.7	300.930	-0.310	-0.120	0.650
2020/01/31 11:51:03.8	300.930	-0.290	-0.140	0.670
2020/01/31 11:51:03.9	300.930	-0.270	-0.160	0.680
2020/01/31 11:51:04.0	300.930	-0.250	-0.180	0.700
2020/01/31 11:51:04.1	300.930	-0.230	-0.200	0.710
2020/01/31 11:51:04.2	300.940	-0.210	-0.220	0.720
2020/01/31 11:51:04.3	300.940	-0.190	-0.240	0.730
2020/01/31 11:51:04.4	300.950	-0.170	-0.260	0.740
2020/01/31 11:51:04.5	300.960	-0.140	-0.270	0.750
2020/01/31 11:51:04.6	300.970	-0.130	-0.280	0.750
2020/01/31 11:51:04.7	300.980	-0.110	-0.290	0.750
2020/01/31 11:51:04.8	300.990	-0.090	-0.300	0.760
2020/01/31 11:51:04.9	301.000	-0.070	-0.310	0.760
2020/01/31 11:51:05.0	301.010	-0.050	-0.310	0.760
2020/01/31 11:51:05.1	301.030	-0.040	-0.310	0.750
2020/01/31 11:51:05.2	301.040	-0.020	-0.310	0.750
2020/01/31 11:51:05.3	301.060	-0.010	-0.310	0.750
2020/01/31 11:51:05.4	301.070	0.010	-0.310	0.740
2020/01/31 11:51:05.5	301.090	0.020	-0.300	0.740
2020/01/31 11:51:05.6	301.110	0.030	-0.290	0.730
2020/01/31 11:51:05.7	301.130	0.040	-0.280	0.730
2020/01/31 11:51:05.8	301.150	0.050	-0.270	0.720
2020/01/31 11:51:05.9	301.170	0.060	-0.250	0.720
2020/01/31 11:51:06.0	301.190	0.070	-0.240	0.710
2020/01/31 11:51:06.1	301.210	0.080	-0.220	0.700
2020/01/31 11:51:06.2	301.240	0.090	-0.210	0.690
2020/01/31 11:51:06.3	301.260	0.100	-0.190	0.690
2020/01/31 11:51:06.4	301.280	0.100	-0.170	0.680
2020/01/31 11:51:06.5	301.300	0.110	-0.150	0.670
2020/01/31 11:51:06.6	301.320	0.120	-0.140	0.660
2020/01/31 11:51:06.7	301.350	0.120	-0.120	0.650
2020/01/31 11:51:06.8	301.370	0.130	-0.100	0.640
2020/01/31 11:51:06.9	301.400	0.140	-0.090	0.630
2020/01/31 11:51:07.0	301.420	0.140	-0.080	0.620
2020/01/31 11:51:07.1	301.450	0.150	-0.060	0.610
2020/01/31 11:51:07.2	301.470	0.160	-0.050	0.600
2020/01/31 11:51:07.3	301.500	0.170	-0.050	0.580
2020/01/31 11:51:07.4	301.520	0.180	-0.040	0.570
2020/01/31 11:51:07.5	301.540	0.190	-0.040	0.560
2020/01/31 11:51:07.6	301.560	0.200	-0.040	0.550
2020/01/31 11:51:07.7	301.590	0.210	-0.040	0.540
2020/01/31 11:51:07.8	301.600	0.220	-0.050	0.530
2020/01/31 11:51:07.9	301.620	0.230	-0.050	0.520
2020/01/31 11:51:08.0	301.640	0.250	-0.060	0.520
2020/01/31 11:51:08.1	301.660	0.260	-0.080	0.520
2020/01/31 11:51:08.2	301.670	0.280	-0.090	0.520
2020/01/31 11:51:08.3	301.680	0.290	-0.110	0.520
2020/01/31 11:51:08.4	301.690	0.310	-0.130	0.520
2020/01/31 11:51:08.5	301.700	0.330	-0.150	0.530
2020/01/31 11:51:08.6	301.700	0.350	-0.180	0.540
2020/01/31 11:51:08.7	301.700	0.370	-0.200	0.550
2020/01/31 11:51:08.8	301.700	0.390	-0.230	0.570
2020/01/31 11:51:08.9	301.690	0.410	-0.260	0.590
2020/01/31 11:51:09.0	301.690	0.430	-0.290	0.610
2020/01/31 11:51:09.1	301.680	0.450	-0.320	0.630
2020/01/31 11:51:09.2	301.670	0.470	-0.340	0.650
2020/01/31 11:51:09.3	301.650	0.490	-0.370	0.680
2020/01/31 11:51:09.4	301.640	0.500	-0.410	0.710
2020/01/31 11:51:09.5	301.630	0.520	-0.430	0.740
2020/01/31 11:51:09.6	301.610	0.540	-0.460	0.770
2020/01/31 11:51:09.7	301.580	0.560	-0.490	0.800
2020/01/31 11:51:09.8	301.560	0.570	-0.520	0.830
2020/01/31 11:51:09.9	301.540	0.580	-0.540	0.860
2020/01/31 11:51:10.0	301.510	0.590	-0.570	0.890
2020/01/31 11:51:10.1	301.480	0.600	-0.590	0.920
2020/01/31 11:51:10.2	301.450	0.610	-0.610	0.950
2020/01/31 11:51:10.3	301.420	0.620	-0.630	0.980
2020/01/31 11:51:10.4	301.390	0.620	-0.650	1.010
2020/01/31 11:51:10.5	301.370	0.620	-0.660	1.040
2020/01/31 11:51:10.6	301.330	0.620	-0.670	1.060
2020/01/31 11:51:10.7	301.300	0.620	-0.680	1.090
2020/01/31 11:51:10.8	301.260	0.610	-0.690	1.110
2020/01/31 11:51:10.9	301.230	0.600	-0.690	1.120
2020/01/31 11:51:11.0	301.190	0.580	-0.690	1.130
2020/01/31 11:51:11.1	301.160	0.570	-0.690	1.140
2020/01/31 11:51:11.2	301.130	0.550	-0.690	1.150
2020/01/31 11:51:11.3	301.090	0.520	-0.680	1.140
2020/01/31 11:51:11.4	301.060	0.500	-0.680	1.140
2020/01/31 11:51:11.5	301.030	0.470	-0.670	1.130
2020/01/31 11:51:11.6	301.000	0.440	-0.650	1.120
2020/01/31 11:51:11.7	300.970	0.400	-0.640	1.100
2020/01/31 11:51:11.8	300.950	0.370	-0.630	1.080
2020/01/31 11:51:11.9	300.920	0.330	-0.610	1.050
2020/01/31 11:51:12.0	300.900	0.290	-0.590	1.010
2020/01/31 11:51:12.1	300.880	0.240	-0.570	0.980
2020/01/31 11:51:12.2	300.860	0.200	-0.550	0.930
2020/01/31 11:51:12.3	300.850	0.150	-0.520	0.890
2020/01/31 11:51:12.4	300.840	0.100	-0.500	0.840
2020/01/31 11:51:12.5	300.840	0.050	-0.470	0.790
2020/01/31 11:51:12.6	300.840	0.010	-0.450	0.740
2020/01/31 11:51:12.7	300.830	-0.040	-0.420	0.680
2020/01/31 11:51:12.8	300.830	-0.090	-0.390	0.620
2020/01/31 11:51:12.9	300.830	-0.140	-0.360	0.560
2020/01/31 11:51:13.0	300.830	-0.190	-0.330	0.510
2020/01/31 11:51:13.1	300.840	-0.240	-0.300	0.450
2020/01/31 11:51:13.2	300.840	-0.290	-0.270	0.390
2020/01/31 11:51:13.3	300.850	-0.340	-0.240	0.330
2020/01/31 11:51:13.4	300.860	-0.380	-0.210	0.270
2020/01/31 11:51:13.5	300.880	-0.430	-0.180	0.210
2020/01/31 11:51:13.6	300.890	-0.470	-0.150	0.150
2020/01/31 11:51:13.7	300.910	-0.510	-0.120	0.090
2020/01/31 11:51:13.8	300.930	-0.550	-0.090	0.030
2020/01/31 11:51:13.9	300.950	-0.580	-0.070	-0.020
2020/01/31 11:51:14.0	300.970	-0.620	-0.040	-0.080
2020/01/31 11:51:14.1	300.990	-0.650	-0.020	-0.130
2020/01/31 11:51:14.2	301.010	-0.670	0.010	-0.190
2020/01/31 11:51:14.3	301.030	-0.700	0.030	-0.240
2020/01/31 11:51:14.4	301.060	-0.720	0.050	-0.280
2020/01/31 11:51:14.5	301.080	-0.740	0.060	-0.330
2020/01/31 11:51:14.6	301.110	-0.750	0.080	-0.380
2020/01/31 11:51:14.7	301.140	-0.770	0.090	-0.420
2020/01/31 11:51:14.8	301.170	-0.780	0.100	-0.450
2020/01/31 11:51:14.9	301.200	-0.780	0.110	-0.490
2020/01/31 11:51:15.0	301.230	-0.780	0.110	-0.520
2020/01/31 11:51:15.1	301.260	-0.780	0.120	-0.540
2020/01/31 11:51:15.2	301.290	-0.780	0.120	-0.560
2020/01/31 11:51:15.3	301.320	-0.780	0.120	-0.580
2020/01/31 11:51:15.4	301.350	-0.770	0.120	-0.590
2020/01/31 11:51:15.5	301.370	-0.750	0.110	-0.590
2020/01/31 11:51:15.6	301.400	-0.740	0.110	-0.600
2020/01/31 11:51:15.7	301.430	-0.720	0.110	-0.590
2020/01/31 11:51:15.8	301.460	-0.710	0.100	-0.580
2020/01/31 11:51:15.9	301.490	-0.680	0.090	-0.570
2020/01/31 11:51:16.0	301.520	-0.660	0.090	-0.550
2020/01/31 11:51:16.1	301.540	-0.640	0.080	-0.530
2020/01/31 11:51:16.2	301.570	-0.610	0.070	-0.500
2020/01/31 11:51:16.3	301.600	-0.580	0.060	-0.470
2020/01/31 11:51:16.4	301.620	-0.550	0.050	-0.430
2020/01/31 11:51:16.5	301.650	-0.520	0.040	-0.380
2020/01/31 11:51:16.6	301.680	-0.490	0.030	-0.340
2020/01/31 11:51:16.7	301.700	-0.460	0.020	-0.290
2020/01/31 11:51:16.8	301.720	-0.430	0.010	-0.240
2020/01/31 11:51:16.9	301.740	-0.390	0.000	-0.180
2020/01/31 11:51:17.0	301.760	-0.360	-0.010	-0.120
2020/01/31 11:51:17.1	301.780	-0.330	-0.020	-0.060
2020/01/31 11:51:17.2	301.800	-0.290	-0.030	0.000
2020/01/31 11:51:17.3	301.810	-0.260	-0.040	0.070
2020/01/31 11:51:17.4	301.830	-0.230	-0.050	0.140
2020/01/31 11:51:17.5	301.840	-0.190	-0.050	0.210
2020/01/31 11:51:17.6	301.850	-0.160	-0.060	0.280
2020/01/31 11:51:17.7	301.860	-0.120	-0.070	0.350
2020/01/31 11:51:17.8	301.870	-0.090	-0.080	0.430
2020/01/31 11:51:17.9	301.880	-0.060	-0.090	0.500
2020/01/31 11:51:18.0	301.890	-0.030	-0.100	0.570
2020/01/31 11:51:18.1	301.890	0.010	-0.110	0.650
2020/01/31 11:51:18.2	301.890	0.040	-0.120	0.720
2020/01/31 11:51:18.3	301.900	0.070	-0.130	0.790
2020/01/31 11:51:18.4	301.900	0.100	-0.140	0.860
2020/01/31 11:51:18.5	301.900	0.130	-0.150	0.930
2020/01/31 11:51:18.6	301.900	0.160	-0.160	0.990
2020/01/31 11:51:18.7	301.890	0.190	-0.170	1.050
2020/01/31 11:51:18.8	301.890	0.220	-0.190	1.110
2020/01/31 11:51:18.9	301.880	0.240	-0.200	1.170
2020/01/31 11:51:19.0	301.870	0.270	-0.210	1.220
2020/01/31 11:51:19.1	301.870	0.300	-0.230	1.270
2020/01/31 11:51:19.2	301.860	0.320	-0.250	1.320
2020/01/31 11:51:19.3	301.850	0.350	-0.260	1.360
2020/01/31 11:51:19.4	301.830	0.370	-0.280	1.400
2020/01/31 11:51:19.5	301.820	0.390	-0.300	1.430
2020/01/31 11:51:19.6	301.800	0.410	-0.320	1.460
2020/01/31 11:51:19.7	301.790	0.430	-0.340	1.490
2020/01/31 11:51:19.8	301.770	0.450	-0.350	1.510
2020/01/31 11:51:19.9	301.760	0.470	-0.370	1.530
2020/01/31 11:51:20.0	301.740	0.490	-0.390	1.550
2020/01/31 11:51:20.1	301.720	0.500	-0.410	1.560
2020/01/31 11:51:20.2	301.700	0.510	-0.430	1.560
2020/01/31 11:51:20.3	301.680	0.530	-0.450	1.560
2020/01/31 11:51:20.4	301.660	0.540	-0.470	1.560
2020/01/31 11:51:20.5	301.640	0.550	-0.490	1.560
2020/01/31 11:51:20.6	301.620	0.550	-0.500	1.550
2020/01/31 11:51:20.7	301.600	0.560	-0.520	1.540
2020/01/31 11:51:20.8	301.580	0.570	-0.540	1.530
2020/01/31 11:51:20.9	301.560	0.570	-0.550	1.520
2020/01/31 11:51:21.0	301.540	0.570	-0.560	1.500
2020/01/31 11:51:21.1	301.520	0.570	-0.570	1.480
2020/01/31 11:51:21.2	301.510	0.570	-0.580	1.460
2020/01/31 11:51:21.3	301.490	0.570	-0.590	1.430
2020/01/31 11:51:21.4	301.470	0.560	-0.600	1.400
2020/01/31 11:51:21.5	301.460	0.560	-0.610	1.370
2020/01/31 11:51:21.6	301.440	0.550	-0.610	1.340
2020/01/31 11:51:21.7	301.420	0.540	-0.610	1.300
2020/01/31 11:51:21.8	301.410	0.530	-0.610	1.270
2020/01/31 11:51:21.9	301.390	0.520	-0.610	1.230
2020/01/31 11:51:22.0	301.380	0.510	-0.600	1.180
2020/01/31 11:51:22.1	301.360	0.500	-0.600	1.140
2020/01/31 11:51:22.2	301.350	0.480	-0.590	1.090
2020/01/31 11:51:22.3	301.340	0.460	-0.580	1.050
2020/01/31 11:51:22.4	301.320	0.450	-0.570	1.000
2020/01/31 11:51:22.5	301.310	0.430	-0.560	0.950
2020/01/31 11:51:22.6	301.300	0.410	-0.550	0.900
2020/01/31 11:51:22.7	301.290	0.390	-0.540	0.850
2020/01/31 11:51:22.8	301.280	0.370	-0.520	0.790
2020/01/31 11:51:22.9	301.270	0.350	-0.510	0.740
2020/01/31 11:51:23.0	301.270	0.330	-0.490	0.680
2020/01/31 11:51:23.1	301.260	0.300	-0.480	0.630
2020/01/31 11:51:23.2	301.260	0.280	-0.460	0.570
2020/01/31 11:51:23.3	301.260	0.260	-0.450	0.520
2020/01/31 11:51:23.4	301.260	0.230	-0.430	0.460
2020/01/31 11:51:23.5	301.260	0.210	-0.410	0.410
2020/01/31 11:51:23.6	301.260	0.190	-0.400	0.350
2020/01/31 11:51:23.7	301.270	0.160	-0.380	0.300
2020/01/31 11:51:23.8	301.270	0.140	-0.360	0.250
2020/01/31 11:51:23.9	301.280	0.110	-0.350	0.200
2020/01/31 11:51:24.0	301.280	0.090	-0.330	0.150
2020/01/31 11:51:24.1	301.290	0.070	-0.320	0.100
2020/01/31 11:51:24.2	301.300	0.040	-0.300	0.050
2020/01/31 11:51:24.3	301.310	0.020	-0.290	0.010
2020/01/31 11:51:24.4	301.320	-0.000	-0.270	-0.040
2020/01/31 11:51:24.5	301.320	-0.020	-0.260	-0.080
2020/01/31 11:51:24.6	301.330	-0.050	-0.240	-0.120
2020/01/31 11:51:24.7	301.350	-0.070	-0.230	-0.150
2020/01/31 11:51:24.8	301.360	-0.090	-0.220	-0.190
2020/01/31 11:51:24.9	301.380	-0.110	-0.200	-0.220
2020/01/31 11:51:25.0	301.390	-0.130	-0.190	-0.240
2020/01/31 11:51:25.1	301.410	-0.140	-0.180	-0.270
2020/01/31 11:51:25.2	301.420	-0.160	-0.160	-0.290
2020/01/31 11:51:25.3	301.440	-0.180	-0.150	-0.300
2020/01/31 11:51:25.4	301.450	-0.190	-0.140	-0.310
2020/01/31 11:51:25.5	301.470	-0.210	-0.130	-0.320
2020/01/31 11:51:25.6	301.480	-0.220	-0.120	-0.330
2020/01/31 11:51:25.7	301.500	-0.230	-0.110	-0.330
2020/01/31 11:51:25.8	301.520	-0.250	-0.090	-0.320
2020/01/31 11:51:25.9	301.530	-0.260	-0.080	-0.310
2020/01/31 11:51:26.0	301.540	-0.260	-0.070	-0.300
2020/01/31 11:51:26.1	301.560	-0.270	-0.060	-0.280
2020/01/31 11:51:26.2	301.570	-0.280	-0.050	-0.270
2020/01/31 11:51:26.3	301.580	-0.290	-0.040	-0.240
2020/01/31 11:51:26.4	301.590	-0.290	-0.030	-0.220
2020/01/31 11:51:26.5	301.610	-0.290	-0.020	-0.190
2020/01/31 11:51:26.6	301.620	-0.300	-0.010	-0.160
2020/01/31 11:51:26.7	301.630	-0.300	0.000	-0.120
2020/01/31 11:51:26.8	301.640	-0.300	0.010	-0.090
2020/01/31 11:51:26.9	301.650	-0.300	0.010	-0.050
2020/01/31 11:51:27.0	301.650	-0.300	0.020	-0.020
2020/01/31 11:51:27.1	301.660	-0.300	0.020	0.020
2020/01/31 11:51:27.2	301.670	-0.300	0.030	0.060
2020/01/31 11:51:27.3	301.670	-0.300	0.030	0.100
2020/01/31 11:51:27.4	301.680	-0.290	0.030	0.140
2020/01/31 11:51:27.5	301.680	-0.290	0.030	0.180
2020/01/31 11:51:27.6	301.680	-0.290	0.040	0.210
2020/01/31 11:51:27.7	301.690	-0.280	0.040	0.250
2020/01/31 11:51:27.8	301.690	-0.280	0.030	0.290
2020/01/31 11:51:27.9	301.690	-0.280	0.030	0.330
2020/01/31 11:51:28.0	301.700	-0.280	0.030	0.360
2020/01/31 11:51:28.1	301.700	-0.270	0.030	0.400
2020/01/31 11:51:28.2	301.700	-0.270	0.030	0.430
2020/01/31 11:51:28.3	301.700	-0.270	0.020	0.460
2020/01/31 11:51:28.4	301.700	-0.260	0.020	0.490
2020/01/31 11:51:28.5	301.690	-0.260	0.020	0.530
2020/01/31 11:51:28.6	301.690	-0.260	0.020	0.560
2020/01/31 11:51:28.7	301.690	-0.250	0.010	0.580
2020/01/31 11:51:28.8	301.690	-0.250	0.010	0.610
2020/01/31 11:51:28.9	301.680	-0.250	0.010	0.630
2020/01/31 11:51:29.0	301.680	-0.250	0.000	0.650
2020/01/31 11:51:29.1	301.670	-0.240	-0.000	0.670
2020/01/31 11:51:29.2	301.670	-0.240	-0.000	0.690
2020/01/31 11:51:29.3	301.660	-0.240	-0.010	0.710
2020/01/31 11:51:29.4	301.660	-0.230	-0.010	0.720
2020/01/31 11:51:29.5	301.650	-0.230	-0.010	0.740
2020/01/31 11:51:29.6	301.650	-0.230	-0.010	0.750
2020/01/31 11:51:29.7	301.640	-0.220	-0.020	0.760
2020/01/31 11:51:29.8	301.630	-0.220	-0.020	0.760
2020/01/31 11:51:29.9	301.630	-0.210	-0.020	0.770
2020/01/31 11:51:30.0	301.620	-0.210	-0.020	0.770
2020/01/31 11:51:30.1	301.610	-0.200	-0.030	0.770
2020/01/31 11:51:30.2	301.600	-0.190	-0.030	0.770
2020/01/31 11:51:30.3	301.590	-0.190	-0.040	0.770
2020/01/31 11:51:30.4	301.580	-0.180	-0.040	0.760
2020/01/31 11:51:30.5	301.570	-0.170	-0.050	0.760
2020/01/31 11:51:30.6	301.560	-0.160	-0.060	0.750
2020/01/31 11:51:30.7	301.550	-0.150	-0.070	0.740
2020/01/31 11:51:30.8	301.540	-0.140	-0.080	0.730
2020/01/31 11:51:30.9	301.530	-0.130	-0.100	0.720
2020/01/31 11:51:31.0	301.520	-0.110	-0.110	0.710
2020/01/31 11:51:31.1	301.510	-0.100	-0.130	0.700
2020/01/31 11:51:31.2	301.500	-0.090	-0.150	0.680
2020/01/31 11:51:31.3	301.490	-0.070	-0.170	0.670
2020/01/31 11:51:31.4	301.480	-0.060	-0.190	0.650
2020/01/31 11:51:31.5	301.480	-0.050	-0.210	0.640
2020/01/31 11:51:31.6	301.470	-0.030	-0.240	0.630
2020/01/31 11:51:31.7	301.460	-0.010	-0.260	0.610
2020/01/31 11:51:31.8	301.450	0.000	-0.290	0.600
2020/01/31 11:51:31.9	301.440	0.020	-0.310	0.590
2020/01/31 11:51:32.0	301.430	0.030	-0.340	0.580
2020/01/31 11:51:32.1	301.420	0.050	-0.370	0.570
2020/01/31 11:51:32.2	301.420	0.070	-0.390	0.560
2020/01/31 11:51:32.3	301.410	0.080	-0.420	0.550
2020/01/31 11:51:32.4	301.400	0.100	-0.450	0.540
2020/01/31 11:51:32.5	301.370	0.120	-0.480	0.530
2020/01/31 11:51:32.6	301.370	0.130	-0.510	0.520
2020/01/31 11:51:32.7	301.360	0.150	-0.540	0.510
2020/01/31 11:51:32.8	301.360	0.160	-0.570	0.500
2020/01/31 11:51:32.9	301.350	0.180	-0.600	0.490
2020/01/31 11:51:33.0	301.340	0.190	-0.620	0.490
2020/01/31 11:51:33.1	301.340	0.200	-0.650	0.480
2020/01/31 11:51:33.2	301.340	0.220	-0.680	0.480
2020/01/31 11:51:33.3	301.330	0.230	-0.700	0.470
2020/01/31 11:51:33.4	301.330	0.240	-0.730	0.470
2020/01/31 11:51:33.5	301.310	0.250	-0.750	0.460
2020/01/31 11:51:33.6	301.310	0.260	-0.770	0.460
2020/01/31 11:51:33.7	301.310	0.270	-0.790	0.450
2020/01/31 11:51:33.8	301.310	0.280	-0.810	0.450
2020/01/31 11:51:33.9	301.310	0.280	-0.820	0.450
2020/01/31 11:51:34.0	301.310	0.290	-0.840	0.450
2020/01/31 11:51:34.1	301.310	0.300	-0.850	0.450
2020/01/31 11:51:34.2	301.310	0.300	-0.860	0.450
2020/01/31 11:51:34.3	301.310	0.310	-0.870	0.450
2020/01/31 11:51:34.4	301.310	0.310	-0.870	0.450
2020/01/31 11:51:34.5	301.310	0.310	-0.870	0.460
2020/01/31 11:51:34.6	301.310	0.310	-0.870	0.470
2020/01/31 11:51:34.7	301.310	0.310	-0.870	0.470
2020/01/31 11:51:34.8	301.310	0.310	-0.860	0.480
2020/01/31 11:51:34.9	301.310	0.310	-0.850	0.490
2020/01/31 11:51:35.0	301.310	0.310	-0.840	0.500
2020/01/31 11:51:35.1	301.310	0.310	-0.820	0.510
2020/01/31 11:51:35.2	301.310	0.300	-0.800	0.520
2020/01/31 11:51:35.3	301.310	0.300	-0.780	0.530
2020/01/31 11:51:35.4	301.310	0.290	-0.760	0.540
2020/01/31 11:51:35.5	301.310	0.290	-0.730	0.560
2020/01/31 11:51:35.6	301.310	0.280	-0.700	0.580
2020/01/31 11:51:35.7	301.310	0.270	-0.670	0.590
2020/01/31 11:51:35.8	301.310	0.260	-0.640	0.610
2020/01/31 11:51:35.9	301.310	0.250	-0.600	0.630
2020/01/31 11:51:36.0	301.310	0.250	-0.570	0.650
2020/01/31 11:51:36.1	301.320	0.240	-0.530	0.660
2020/01/31 11:51:36.2	301.320	0.220	-0.490	0.680
2020/01/31 11:51:36.3	301.320	0.210	-0.460	0.700
2020/01/31 11:51:36.4	301.330	0.200	-0.420	0.720
2020/01/31 11:51:36.5	301.340	0.190	-0.380	0.740
2020/01/31 11:51:36.6	301.350	0.180	-0.340	0.760
2020/01/31 11:51:36.7	301.350	0.170	-0.310	0.770
2020/01/31 11:51:36.8	301.360	0.150	-0.270	0.790
2020/01/31 11:51:36.9	301.370	0.140	-0.230	0.800
2020/01/31 11:51:37.0	301.380	0.120	-0.200	0.810
2020/01/31 11:51:37.1	301.380	0.110	-0.170	0.830
2020/01/31 11:51:37.2	301.390	0.090	-0.130	0.840
2020/01/31 11:51:37.3	301.400	0.080	-0.100	0.840
2020/01/31 11:51:37.4	301.410	0.060	-0.070	0.850
2020/01/31 11:51:37.5	301.420	0.050	-0.040	0.850
2020/01/31 11:51:37.6	301.430	0.030	-0.010	0.860
2020/01/31 11:51:37.7	301.440	0.020	0.020	0.860
2020/01/31 11:51:37.8	301.460	-0.000	0.040	0.860
2020/01/31 11:51:37.9	301.470	-0.020	0.070	0.860
2020/01/31 11:51:38.0	301.480	-0.030	0.090	0.850
2020/01/31 11:51:38.1	301.490	-0.050	0.110	0.850
2020/01/31 11:51:38.2	301.500	-0.060	0.130	0.840
2020/01/31 11:51:38.3	301.510	-0.080	0.140	0.830
2020/01/31 11:51:38.4	301.530	-0.090	0.160	0.830
2020/01/31 11:51:38.5	301.550	-0.110	0.170	0.820
2020/01/31 11:51:38.6	301.560	-0.120	0.190	0.810
2020/01/31 11:51:38.7	301.570	-0.130	0.200	0.790
2020/01/31 11:51:38.8	301.580	-0.150	0.210	0.780
2020/01/31 11:51:38.9	301.590	-0.160	0.220	0.770
2020/01/31 11:51:39.0	301.600	-0.170	0.230	0.750
2020/01/31 11:51:39.1	301.610	-0.180	0.240	0.730
2020/01/31 11:51:39.2	301.630	-0.190	0.250	0.720
2020/01/31 11:51:39.3	301.640	-0.200	0.250	0.700
2020/01/31 11:51:39.4	301.650	-0.200	0.260	0.680
2020/01/31 11:51:39.5	301.660	-0.210	0.260	0.660
2020/01/31 11:51:39.6	301.670	-0.210	0.260	0.640
2020/01/31 11:51:39.7	301.680	-0.220	0.270	0.610
2020/01/31 11:51:39.8	301.690	-0.220	0.270	0.590
2020/01/31 11:51:39.9	301.700	-0.220	0.270	0.570
2020/01/31 11:51:40.0	301.710	-0.220	0.270	0.540
2020/01/31 11:51:40.1	301.720	-0.220	0.270	0.520
2020/01/31 11:51:40.2	301.730	-0.220	0.270	0.500
2020/01/31 11:51:40.3	301.730	-0.220	0.270	0.480
2020/01/31 11:51:40.4	301.740	-0.220	0.270	0.450
2020/01/31 11:51:40.5	301.750	-0.220	0.270	0.430
2020/01/31 11:51:40.6	301.750	-0.210	0.270	0.410
2020/01/31 11:51:40.7	301.750	-0.210	0.270	0.390
2020/01/31 11:51:40.8	301.750	-0.200	0.270	0.380
2020/01/31 11:51:40.9	301.750	-0.200	0.270	0.360
2020/01/31 11:51:41.0	301.750	-0.190	0.270	0.350
2020/01/31 11:51:41.1	301.750	-0.190	0.270	0.340
2020/01/31 11:51:41.2	301.740	-0.190	0.270	0.320
2020/01/31 11:51:41.3	301.730	-0.180	0.270	0.320
2020/01/31 11:51:41.4	301.720	-0.180	0.260	0.310
2020/01/31 11:51:41.5	301.710	-0.170	0.260	0.300
2020/01/31 11:51:41.6	301.700	-0.170	0.260	0.300
2020/01/31 11:51:41.7	301.680	-0.170	0.250	0.300
2020/01/31 11:51:41.8	301.660	-0.160	0.250	0.300
2020/01/31 11:51:41.9	301.640	-0.160	0.240	0.300
2020/01/31 11:51:42.0	301.620	-0.160	0.240	0.310
2020/01/31 11:51:42.1	301.600	-0.150	0.230	0.320
2020/01/31 11:51:42.2	301.570	-0.150	0.220	0.330
2020/01/31 11:51:42.3	301.550	-0.150	0.210	0.340
2020/01/31 11:51:42.4	301.520	-0.150	0.200	0.350
2020/01/31 11:51:42.5	301.490	-0.140	0.180	0.360
2020/01/31 11:51:42.6	301.460	-0.140	0.160	0.380
2020/01/31 11:51:42.7	301.430	-0.140	0.150	0.400
2020/01/31 11:51:42.8	301.400	-0.140	0.130	0.420
2020/01/31 11:51:42.9	301.370	-0.130	0.100	0.430
2020/01/31 11:51:43.0	301.340	-0.130	0.080	0.450
2020/01/31 11:51:43.1	301.310	-0.130	0.050	0.470
2020/01/31 11:51:43.2	301.280	-0.120	0.020	0.490
2020/01/31 11:51:43.3	301.250	-0.120	-0.010	0.510
2020/01/31 11:51:43.4	301.220	-0.110	-0.040	0.540
2020/01/31 11:51:43.5	301.190	-0.110	-0.080	0.550
2020/01/31 11:51:43.6	301.160	-0.100	-0.120	0.570
2020/01/31 11:51:43.7	301.140	-0.100	-0.160	0.590
2020/01/31 11:51:43.8	301.110	-0.090	-0.200	0.610
2020/01/31 11:51:43.9	301.090	-0.080	-0.240	0.620
2020/01/31 11:51:44.0	301.070	-0.070	-0.290	0.640
2020/01/31 11:51:44.1	301.040	-0.060	-0.340	0.650
2020/01/31 11:51:44.2	301.020	-0.050	-0.390	0.660
2020/01/31 11:51:44.3	301.010	-0.040	-0.440	0.670
2020/01/31 11:51:44.4	300.990	-0.030	-0.500	0.680
2020/01/31 11:51:44.5	300.980	-0.010	-0.550	0.690
2020/01/31 11:51:44.6	300.960	-0.000	-0.610	0.690
2020/01/31 11:51:44.7	300.950	0.010	-0.660	0.700
2020/01/31 11:51:44.8	300.940	0.030	-0.720	0.700
2020/01/31 11:51:44.9	300.940	0.040	-0.780	0.690
2020/01/31 11:51:45.0	300.930	0.060	-0.830	0.690
2020/01/31 11:51:45.1	300.930	0.080	-0.890	0.690
2020/01/31 11:51:45.2	300.930	0.090	-0.940	0.680
2020/01/31 11:51:45.3	300.930	0.110	-1.000	0.670
2020/01/31 11:51:45.4	300.930	0.130	-1.050	0.660
2020/01/31 11:51:45.5	300.940	0.150	-1.100	0.650
2020/01/31 11:51:45.6	300.940	0.160	-1.140	0.640
2020/01/31 11:51:45.7	300.950	0.180	-1.190	0.620
2020/01/31 11:51:45.8	300.960	0.200	-1.230	0.610
2020/01/31 11:51:45.9	300.970	0.210	-1.260	0.590
2020/01/31 11:51:46.0	300.990	0.230	-1.300	0.580
2020/01/31 11:51:46.1	301.000	0.250	-1.330	0.560
2020/01/31 11:51:46.2	301.020	0.260	-1.350	0.550
2020/01/31 11:51:46.3	301.040	0.280	-1.370	0.530
2020/01/31 11:51:46.4	301.060	0.290	-1.380	0.510
2020/01/31 11:51:46.5	301.070	0.300	-1.390	0.500
2020/01/31 11:51:46.6	301.090	0.310	-1.400	0.490
2020/01/31 11:51:46.7	301.120	0.320	-1.390	0.470
2020/01/31 11:51:46.8	301.140	0.330	-1.390	0.460
2020/01/31 11:51:46.9	301.160	0.340	-1.370	0.450
2020/01/31 11:51:47.0	301.180	0.340	-1.350	0.440
2020/01/31 11:51:47.1	301.210	0.350	-1.320	0.430
2020/01/31 11:51:47.2	301.230	0.350	-1.290	0.420
2020/01/31 11:51:47.3	301.250	0.350	-1.250	0.420
2020/01/31 11:51:47.4	301.280	0.340	-1.210	0.410
2020/01/31 11:51:47.5	301.310	0.340	-1.160	0.410
2020/01/31 11:51:47.6	301.330	0.330	-1.100	0.410
2020/01/31 11:51:47.7	301.360	0.330	-1.050	0.410
2020/01/31 11:51:47.8	301.380	0.320	-0.990	0.410
2020/01/31 11:51:47.9	301.400	0.310	-0.920	0.410
2020/01/31 11:51:48.0	301.420	0.290	-0.850	0.410
2020/01/31 11:51:48.1	301.450	0.280	-0.780	0.410
2020/01/31 11:51:48.2	301.470	0.260	-0.710	0.410
2020/01/31 11:51:48.3	301.490	0.250	-0.640	0.410
2020/01/31 11:51:48.4	301.510	0.230	-0.560	0.420
2020/01/31 11:51:48.5	301.540	0.210	-0.490	0.420
2020/01/31 11:51:48.6	301.560	0.190	-0.420	0.420
2020/01/31 11:51:48.7	301.580	0.170	-0.340	0.420
2020/01/31 11:51:48.8	301.600	0.140	-0.270	0.420
2020/01/31 11:51:48.9	301.620	0.120	-0.200	0.430
2020/01/31 11:51:49.0	301.650	0.100	-0.130	0.430
2020/01/31 11:51:49.1	301.670	0.080	-0.060	0.430
2020/01/31 11:51:49.2	301.690	0.050	0.010	0.430
2020/01/31 11:51:49.3	301.710	0.030	0.070	0.430
2020/01/31 11:51:49.4	301.730	0.010	0.140	0.430
2020/01/31 11:51:49.5	301.740	-0.010	0.200	0.430
2020/01/31 11:51:49.6	301.760	-0.030	0.250	0.430
2020/01/31 11:51:49.7	301.770	-0.050	0.300	0.430
2020/01/31 11:51:49.8	301.790	-0.070	0.350	0.430
2020/01/31 11:51:49.9	301.800	-0.090	0.390	0.430
2020/01/31 11:51:50.0	301.820	-0.110	0.430	0.430
2020/01/31 11:51:50.1	301.830	-0.130	0.470	0.430
2020/01/31 11:51:50.2	301.840	-0.140	0.500	0.420
2020/01/31 11:51:50.3	301.850	-0.160	0.530	0.420
2020/01/31 11:51:50.4	301.860	-0.170	0.550	0.420
2020/01/31 11:51:50.5	301.870	-0.190	0.570	0.420
2020/01/31 11:51:50.6	301.880	-0.200	0.580	0.420
2020/01/31 11:51:50.7	301.880	-0.210	0.590	0.410
2020/01/31 11:51:50.8	301.880	-0.220	0.600	0.410
2020/01/31 11:51:50.9	301.890	-0.230	0.610	0.410
2020/01/31 11:51:51.0	301.890	-0.230	0.610	0.410
2020/01/31 11:51:51.1	301.890	-0.240	0.610	0.410
2020/01/31 11:51:51.2	301.890	-0.240	0.610	0.410
2020/01/31 11:51:51.3	301.880	-0.250	0.600	0.410
2020/01/31 11:51:51.4	301.880	-0.250	0.590	0.410
2020/01/31 11:51:51.5	301.880	-0.250	0.580	0.410
2020/01/31 11:51:51.6	301.870	-0.260	0.570	0.410
2020/01/31 11:51:51.7	301.860	-0.260	0.560	0.420
2020/01/31 11:51:51.8	301.860	-0.260	0.550	0.420
2020/01/31 11:51:51.9	301.850	-0.260	0.530	0.420
2020/01/31 11:51:52.0	301.840	-0.250	0.520	0.430
2020/01/31 11:51:52.1	301.830	-0.250	0.500	0.430
2020/01/31 11:51:52.2	301.810	-0.250	0.480	0.430
2020/01/31 11:51:52.3	301.800	-0.250	0.470	0.440
2020/01/31 11:51:52.4	301.780	-0.250	0.450	0.440
2020/01/31 11:51:52.5	301.770	-0.250	0.430	0.450
2020/01/31 11:51:52.6	301.750	-0.240	0.410	0.460
2020/01/31 11:51:52.7	301.730	-0.240	0.390	0.460
2020/01/31 11:51:52.8	301.710	-0.240	0.370	0.470
2020/01/31 11:51:52.9	301.690	-0.240	0.350	0.480
2020/01/31 11:51:53.0	301.670	-0.240	0.330	0.490
2020/01/31 11:51:53.1	301.640	-0.240	0.310	0.490
2020/01/31 11:51:53.2	301.620	-0.240	0.290	0.500
2020/01/31 11:51:53.3	301.590	-0.240	0.270	0.500
2020/01/31 11:51:53.4	301.570	-0.240	0.250	0.510
2020/01/31 11:51:53.5	301.540	-0.240	0.220	0.510
2020/01/31 11:51:53.6	301.510	-0.240	0.200	0.520
2020/01/31 11:51:53.7	301.480	-0.240	0.180	0.520
2020/01/31 11:51:53.8	301.450	-0.250	0.160	0.520
2020/01/31 11:51:53.9	301.430	-0.250	0.130	0.520
2020/01/31 11:51:54.0	301.400	-0.250	0.110	0.510
2020/01/31 11:51:54.1	301.370	-0.250	0.080	0.510
2020/01/31 11:51:54.2	301.350	-0.250	0.050	0.500
2020/01/31 11:51:54.3	301.320	-0.250	0.030	0.500
2020/01/31 11:51:54.4	301.300	-0.250	-0.000	0.490
2020/01/31 11:51:54.5	301.270	-0.240	-0.040	0.480
2020/01/31 11:51:54.6	301.250	-0.240	-0.070	0.460
2020/01/31 11:51:54.7	301.230	-0.240	-0.100	0.450
2020/01/31 11:51:54.8	301.210	-0.230	-0.130	0.430
2020/01/31 11:51:54.9	301.190	-0.220	-0.170	0.420
2020/01/31 11:51:55.0	301.170	-0.210	-0.200	0.400
2020/01/31 11:51:55.1	301.160	-0.200	-0.230	0.380
2020/01/31 11:51:55.2	301.140	-0.190	-0.270	0.360
2020/01/31 11:51:55.3	301.130	-0.170	-0.310	0.340
2020/01/31 11:51:55.4	301.120	-0.160	-0.340	0.320
2020/01/31 11:51:55.5	301.100	-0.140	-0.380	0.300
2020/01/31 11:51:55.6	301.090	-0.120	-0.420	0.280
2020/01/31 11:51:55.7	301.080	-0.100	-0.460	0.260
2020/01/31 11:51:55.8	301.070	-0.070	-0.490	0.240
2020/01/31 11:51:55.9	301.070	-0.050	-0.530	0.220
2020/01/31 11:51:56.0	301.060	-0.020	-0.570	0.190
2020/01/31 11:51:56.1	301.060	0.010	-0.610	0.170
2020/01/31 11:51:56.2	301.060	0.040	-0.640	0.150
2020/01/31 11:51:56.3	301.060	0.070	-0.680	0.130
2020/01/31 11:51:56.4	301.060	0.100	-0.720	0.110
2020/01/31 11:51:56.5	301.060	0.130	-0.750	0.090
2020/01/31 11:51:56.6	301.060	0.170	-0.790	0.070
2020/01/31 11:51:56.7	301.070	0.200	-0.820	0.050
2020/01/31 11:51:56.8	301.070	0.230	-0.850	0.040
2020/01/31 11:51:56.9	301.080	0.260	-0.890	0.020
2020/01/31 11:51:57.0	301.080	0.290	-0.920	0.010
2020/01/31 11:51:57.1	301.090	0.320	-0.940	-0.000
2020/01/31 11:51:57.2	301.100	0.350	-0.970	-0.010
2020/01/31 11:51:57.3	301.110	0.380	-1.000	-0.020
2020/01/31 11:51:57.4	301.120	0.410	-1.020	-0.020
2020/01/31 11:51:57.5	301.140	0.430	-1.040	-0.020
2020/01/31 11:51:57.6	301.150	0.460	-1.060	-0.020
2020/01/31 11:51:57.7	301.170	0.480	-1.070	-0.010
2020/01/31 11:51:57.8	301.180	0.500	-1.090	-0.010
2020/01/31 11:51:57.9	301.190	0.510	-1.100	-0.000
2020/01/31 11:51:58.0	301.200	0.520	-1.110	0.010
2020/01/31 11:51:58.1	301.210	0.540	-1.110	0.020
2020/01/31 11:51:58.2	301.220	0.540	-1.110	0.040
2020/01/31 11:51:58.3	301.230	0.550	-1.110	0.060
2020/01/31 11:51:58.4	301.240	0.550	-1.110	0.080
2020/01/31 11:51:58.5	301.250	0.550	-1.100	0.100
2020/01/31 11:51:58.6	301.260	0.540	-1.090	0.130
2020/01/31 11:51:58.7	301.270	0.540	-1.070	0.150
2020/01/31 11:51:58.8	301.280	0.530	-1.060	0.180
2020/01/31 11:51:58.9	301.280	0.510	-1.040	0.210
2020/01/31 11:51:59.0	301.290	0.500	-1.010	0.240
2020/01/31 11:51:59.1	301.300	0.480	-0.990	0.270
2020/01/31 11:51:59.2	301.310	0.460	-0.960	0.300
2020/01/31 11:51:59.3	301.310	0.430	-0.920	0.340
2020/01/31 11:51:59.4	301.320	0.410	-0.890	0.370
2020/01/31 11:51:59.5	301.340	0.380	-0.840	0.410
2020/01/31 11:51:59.6	301.340	0.350	-0.800	0.440
2020/01/31 11:51:59.7	301.350	0.320	-0.760	0.480
2020/01/31 11:51:59.8	301.360	0.280	-0.710	0.510
2020/01/31 11:51:59.9	301.360	0.250	-0.660	0.540
2020/01/31 11:52:00.0	301.370	0.210	-0.610	0.580
2020/01/31 11:52:00.1	301.380	0.170	-0.560	0.610
2020/01/31 11:52:00.2	301.380	0.140	-0.510	0.640
2020/01/31 11:52:00.3	301.390	0.100	-0.450	0.670
2020/01/31 11:52:00.4	301.400	0.060	-0.400	0.700
2020/01/31 11:52:00.5	301.410	0.020	-0.340	0.730
2020/01/31 11:52:00.6	301.420	-0.020	-0.280	0.750
2020/01/31 11:52:00.7	301.430	-0.060	-0.230	0.780
2020/01/31 11:52:00.8	301.440	-0.100	-0.170	0.800
2020/01/31 11:52:00.9	301.450	-0.130	-0.120	0.820
2020/01/31 11:52:01.0	301.460	-0.170	-0.060	0.840
2020/01/31 11:52:01.1	301.470	-0.200	-0.010	0.860
2020/01/31 11:52:01.2	301.480	-0.230	0.040	0.870
2020/01/31 11:52:01.3	301.490	-0.270	0.090	0.880
2020/01/31 11:52:01.4	301.500	-0.300	0.140	0.890
2020/01/31 11:52:01.5	301.520	-0.320	0.180	0.890
2020/01/31 11:52:01.6	301.530	-0.350	0.220	0.890
2020/01/31 11:52:01.7	301.540	-0.370	0.260	0.890
2020/01/31 11:52:01.8	301.550	-0.390	0.290	0.890
2020/01/31 11:52:01.9	301.570	-0.410	0.320	0.880
2020/01/31 11:52:02.0	301.580	-0.430	0.350	0.870
2020/01/31 11:52:02.1	301.590	-0.440	0.370	0.860
2020/01/31 11:52:02.2	301.600	-0.450	0.390	0.840
2020/01/31 11:52:02.3	301.610	-0.460	0.410	0.820
2020/01/31 11:52:02.4	301.620	-0.470	0.420	0.800
2020/01/31 11:52:02.5	301.630	-0.470	0.430	0.780
2020/01/31 11:52:02.6	301.640	-0.480	0.440	0.760
2020/01/31 11:52:02.7	301.650	-0.480	0.440	0.740
2020/01/31 11:52:02.8	301.660	-0.480	0.440	0.710
2020/01/31 11:52:02.9	301.660	-0.470	0.440	0.680
2020/01/31 11:52:03.0	301.660	-0.470	0.440	0.660
2020/01/31 11:52:03.1	301.660	-0.460	0.440	0.630
2020/01/31 11:52:03.2	301.660	-0.450	0.430	0.600
2020/01/31 11:52:03.3	301.660	-0.440	0.430	0.570
2020/01/31 11:52:03.4	301.660	-0.430	0.420	0.550
2020/01/31 11:52:03.5	301.650	-0.420	0.410	0.520
2020/01/31 11:52:03.6	301.650	-0.410	0.400	0.500
2020/01/31 11:52:03.7	301.640	-0.390	0.390	0.470
2020/01/31 11:52:03.8	301.630	-0.380	0.380	0.450
2020/01/31 11:52:03.9	301.630	-0.360	0.360	0.420
2020/01/31 11:52:04.0	301.620	-0.350	0.350	0.400
2020/01/31 11:52:04.1	301.610	-0.330	0.340	0.390
2020/01/31 11:52:04.2	301.600	-0.310	0.330	0.370
2020/01/31 11:52:04.3	301.590	-0.290	0.320	0.350
2020/01/31 11:52:04.4	301.570	-0.280	0.310	0.340
2020/01/31 11:52:04.5	301.560	-0.260	0.290	0.330
2020/01/31 11:52:04.6	301.540	-0.240	0.280	0.320
2020/01/31 11:52:04.7	301.530	-0.220	0.270	0.320
2020/01/31 11:52:04.8	301.510	-0.210	0.250	0.310
2020/01/31 11:52:04.9	301.490	-0.190	0.240	0.310
2020/01/31 11:52:05.0	301.470	-0.170	0.230	0.310
2020/01/31 11:52:05.1	301.450	-0.150	0.210	0.320
2020/01/31 11:52:05.2	301.430	-0.130	0.200	0.320
2020/01/31 11:52:05.3	301.410	-0.120	0.180	0.330
2020/01/31 11:52:05.4	301.390	-0.100	0.170	0.340
2020/01/31 11:52:05.5	301.360	-0.080	0.150	0.350
2020/01/31 11:52:05.6	301.340	-0.060	0.130	0.360
2020/01/31 11:52:05.7	301.320	-0.040	0.110	0.380
2020/01/31 11:52:05.8	301.290	-0.020	0.100	0.390
2020/01/31 11:52:05.9	301.270	-0.010	0.080	0.410
2020/01/31 11:52:06.0	301.250	0.010	0.050	0.430
2020/01/31 11:52:06.1	301.220	0.030	0.030	0.450
2020/01/31 11:52:06.2	301.200	0.050	0.010	0.470
2020/01/31 11:52:06.3	301.180	0.070	-0.020	0.490
2020/01/31 11:52:06.4	301.160	0.080	-0.040	0.500
2020/01/31 11:52:06.5	301.130	0.100	-0.070	0.530
2020/01/31 11:52:06.6	301.110	0.120	-0.100	0.540
2020/01/31 11:52:06.7	301.090	0.130	-0.130	0.560
2020/01/31 11:52:06.8	301.070	0.150	-0.160	0.580
2020/01/31 11:52:06.9	301.050	0.170	-0.200	0.590
2020/01/31 11:52:07.0	301.030	0.180	-0.230	0.610
2020/01/31 11:52:07.1	301.010	0.200	-0.260	0.620
2020/01/31 11:52:07.2	301.000	0.210	-0.300	0.630
2020/01/31 11:52:07.3	300.980	0.230	-0.330	0.640
2020/01/31 11:52:07.4	300.970	0.240	-0.370	0.660
2020/01/31 11:52:07.5	300.940	0.260	-0.400	0.660
2020/01/31 11:52:07.6	300.930	0.270	-0.440	0.670
2020/01/31 11:52:07.7	300.920	0.280	-0.470	0.680
2020/01/31 11:52:07.8	300.910	0.290	-0.510	0.690
2020/01/31 11:52:07.9	300.900	0.300	-0.540	0.700
2020/01/31 11:52:08.0	300.890	0.310	-0.570	0.700
2020/01/31 11:52:08.1	300.880	0.320	-0.600	0.710
2020/01/31 11:52:08.2	300.870	0.330	-0.630	0.710
2020/01/31 11:52:08.3	300.870	0.340	-0.660	0.710
2020/01/31 11:52:08.4	300.860	0.350	-0.690	0.720
2020/01/31 11:52:08.5	300.860	0.350	-0.720	0.720
2020/01/31 11:52:08.6	300.850	0.350	-0.740	0.720
2020/01/31 11:52:08.7	300.850	0.360	-0.770	0.720
2020/01/31 11:52:08.8	300.850	0.360	-0.790	0.720
2020/01/31 11:52:08.9	300.850	0.360	-0.810	0.720
2020/01/31 11:52:09.0	300.850	0.360	-0.830	0.720
2020/01/31 11:52:09.1	300.850	0.360	-0.840	0.710
2020/01/31 11:52:09.2	300.860	0.360	-0.860	0.710
2020/01/31 11:52:09.3	300.860	0.350	-0.870	0.700
2020/01/31 11:52:09.4	300.870	0.350	-0.880	0.700
2020/01/31 11:52:09.5	300.870	0.340	-0.890	0.700
2020/01/31 11:52:09.6	300.880	0.340	-0.900	0.690
2020/01/31 11:52:09.7	300.890	0.330	-0.900	0.680
2020/01/31 11:52:09.8	300.900	0.320	-0.910	0.670
2020/01/31 11:52:09.9	300.910	0.310	-0.910	0.660
2020/01/31 11:52:10.0	300.920	0.300	-0.910	0.640
2020/01/31 11:52:10.1	300.940	0.280	-0.910	0.630
2020/01/31 11:52:10.2	300.950	0.270	-0.910	0.610
2020/01/31 11:52:10.3	300.970	0.260	-0.910	0.600
2020/01/31 11:52:10.4	300.980	0.240	-0.900	0.580
2020/01/31 11:52:10.5	301.010	0.220	-0.900	0.550
2020/01/31 11:52:10.6	301.030	0.210	-0.890	0.530
2020/01/31 11:52:10.7	301.050	0.190	-0.870	0.510
2020/01/31 11:52:10.8	301.060	0.170	-0.860	0.480
2020/01/31 11:52:10.9	301.080	0.150	-0.850	0.460
2020/01/31 11:52:11.0	301.100	0.130	-0.830	0.430
2020/01/31 11:52:11.1	301.120	0.100	-0.810	0.410
2020/01/31 11:52:11.2	301.140	0.080	-0.790	0.380
2020/01/31 11:52:11.3	301.160	0.060	-0.770	0.360
2020/01/31 11:52:11.4	301.180	0.030	-0.740	0.340
2020/01/31 11:52:11.5	301.200	0.010	-0.710	0.310
2020/01/31 11:52:11.6	301.220	-0.020	-0.680	0.290
2020/01/31 11:52:11.7	301.240	-0.050	-0.650	0.270
2020/01/31 11:52:11.8	301.250	-0.070	-0.620	0.250
2020/01/31 11:52:11.9	301.270	-0.100	-0.580	0.230
2020/01/31 11:52:12.0	301.280	-0.130	-0.540	0.220
2020/01/31 11:52:12.1	301.290	-0.150	-0.500	0.200
2020/01/31 11:52:12.2	301.300	-0.180	-0.460	0.190
2020/01/31 11:52:12.3	301.320	-0.200	-0.420	0.180
2020/01/31 11:52:12.4	301.330	-0.230	-0.380	0.170
2020/01/31 11:52:12.5	301.320	-0.250	-0.340	0.160
2020/01/31 11:52:12.6	301.330	-0.280	-0.300	0.160
2020/01/31 11:52:12.7	301.340	-0.300	-0.260	0.150
2020/01/31 11:52:12.8	301.350	-0.320	-0.220	0.150
2020/01/31 11:52:12.9	301.360	-0.340	-0.180	0.150
2020/01/31 11:52:13.0	301.360	-0.360	-0.140	0.140
2020/01/31 11:52:13.1	301.370	-0.370	-0.110	0.150
2020/01/31 11:52:13.2	301.370	-0.390	-0.070	0.150
2020/01/31 11:52:13.3	301.380	-0.400	-0.040	0.150
2020/01/31 11:52:13.4	301.380	-0.410	-0.000	0.160
2020/01/31 11:52:13.5	301.380	-0.410	0.030	0.160
2020/01/31 11:52:13.6	301.390	-0.420	0.060	0.170
2020/01/31 11:52:13.7	301.380	-0.420	0.080	0.180
2020/01/31 11:52:13.8	301.380	-0.420	0.110	0.190
2020/01/31 11:52:13.9	301.380	-0.420	0.130	0.210
2020/01/31 11:52:14.0	301.380	-0.410	0.150	0.220
2020/01/31 11:52:14.1	301.370	-0.400	0.170	0.240
2020/01/31 11:52:14.2	301.360	-0.390	0.190	0.260
2020/01/31 11:52:14.3	301.350	-0.380	0.210	0.290
2020/01/31 11:52:14.4	301.340	-0.370	0.220	0.310
2020/01/31 11:52:14.5	301.330	-0.350	0.240	0.340
2020/01/31 11:52:14.6	301.320	-0.330	0.250	0.370
2020/01/31 11:52:14.7	301.300	-0.310	0.260	0.400
2020/01/31 11:52:14.8	301.290	-0.290	0.270	0.430
2020/01/31 11:52:14.9	301.270	-0.270	0.270	0.460
2020/01/31 11:52:15.0	301.250	-0.250	0.280	0.490
2020/01/31 11:52:15.1	301.240	-0.220	0.280	0.520
2020/01/31 11:52:15.2	301.220	-0.190	0.280	0.550
2020/01/31 11:52:15.3	301.200	-0.170	0.280	0.580
2020/01/31 11:52:15.4	301.180	-0.140	0.280	0.610
2020/01/31 11:52:15.5	301.170	-0.110	0.280	0.640
2020/01/31 11:52:15.6	301.150	-0.090	0.280	0.670
2020/01/31 11:52:15.7	301.130	-0.060	0.280	0.700
2020/01/31 11:52:15.8	301.110	-0.030	0.270	0.730
2020/01/31 11:52:15.9	301.100	-0.010	0.270	0.760
2020/01/31 11:52:16.0	301.080	0.020	0.260	0.780
2020/01/31 11:52:16.1	301.060	0.040	0.260	0.810
2020/01/31 11:52:16.2	301.050	0.070	0.250	0.830
2020/01/31 11:52:16.3	301.030	0.090	0.250	0.860
2020/01/31 11:52:16.4	301.010	0.110	0.240	0.880
2020/01/31 11:52:16.5	301.000	0.130	0.230	0.900
2020/01/31 11:52:16.6	300.990	0.150	0.220	0.920
2020/01/31 11:52:16.7	300.970	0.170	0.220	0.940
2020/01/31 11:52:16.8	300.960	0.180	0.210	0.960
2020/01/31 11:52:16.9	300.940	0.200	0.200	0.980
2020/01/31 11:52:17.0	300.930	0.210	0.200	0.990
2020/01/31 11:52:17.1	300.920	0.220	0.190	1.010
2020/01/31 11:52:17.2	300.900	0.230	0.180	1.020
2020/01/31 11:52:17.3	300.890	0.230	0.180	1.030
2020/01/31 11:52:17.4	300.870	0.240	0.170	1.030
2020/01/31 11:52:17.5	300.860	0.240	0.160	1.040
2020/01/31 11:52:17.6	300.850	0.240	0.150	1.040
2020/01/31 11:52:17.7	300.830	0.240	0.140	1.040
2020/01/31 11:52:17.8	300.820	0.230	0.130	1.030
2020/01/31 11:52:17.9	300.810	0.230	0.120	1.030
2020/01/31 11:52:18.0	300.800	0.220	0.110	1.010
2020/01/31 11:52:18.1	300.790	0.220	0.090	1.000
2020/01/31 11:52:18.2	300.780	0.210	0.070	0.980
2020/01/31 11:52:18.3	300.770	0.200	0.060	0.960
2020/01/31 11:52:18.4	300.760	0.190	0.030	0.940
2020/01/31 11:52:18.5	300.760	0.180	0.010	0.910
2020/01/31 11:52:18.6	300.750	0.170	-0.020	0.890
2020/01/31 11:52:18.7	300.750	0.150	-0.040	0.860
2020/01/31 11:52:18.8	300.740	0.140	-0.070	0.830
2020/01/31 11:52:18.9	300.740	0.130	-0.100	0.790
2020/01/31 11:52:19.0	300.740	0.120	-0.140	0.760
2020/01/31 11:52:19.1	300.740	0.100	-0.170	0.720
2020/01/31 11:52:19.2	300.740	0.090	-0.210	0.690
2020/01/31 11:52:19.3	300.740	0.080	-0.240	0.650
2020/01/31 11:52:19.4	300.740	0.070	-0.280	0.610
2020/01/31 11:52:19.5	300.750	0.060	-0.320	0.570
2020/01/31 11:52:19.6	300.750	0.050	-0.370	0.530
2020/01/31 11:52:19.7	300.760	0.040	-0.410	0.490
2020/01/31 11:52:19.8	300.770	0.040	-0.450	0.440
2020/01/31 11:52:19.9	300.780	0.030	-0.490	0.400
2020/01/31 11:52:20.0	300.790	0.020	-0.540	0.360
2020/01/31 11:52:20.1	300.810	0.020	-0.580	0.320
2020/01/31 11:52:20.2	300.820	0.020	-0.620	0.280
2020/01/31 11:52:20.3	300.840	0.010	-0.660	0.240
2020/01/31 11:52:20.4	300.850	0.010	-0.700	0.200
2020/01/31 11:52:20.5	300.870	0.010	-0.740	0.160
2020/01/31 11:52:20.6	300.890	0.010	-0.770	0.130
2020/01/31 11:52:20.7	300.910	0.010	-0.800	0.090
2020/01/31 11:52:20.8	300.920	0.010	-0.830	0.060
2020/01/31 11:52:20.9	300.940	0.010	-0.860	0.040
2020/01/31 11:52:21.0	300.960	0.010	-0.880	0.010
2020/01/31 11:52:21.1	300.980	0.010	-0.900	-0.000
2020/01/31 11:52:21.2	300.990	0.010	-0.920	-0.020
2020/01/31 11:52:21.3	301.010	0.010	-0.930	-0.030
2020/01/31 11:52:21.4	301.030	0.020	-0.940	-0.040
2020/01/31 11:52:21.5	301.040	0.020	-0.950	-0.040
2020/01/31 11:52:21.6	301.050	0.020	-0.960	-0.040
2020/01/31 11:52:21.7	301.070	0.020	-0.950	-0.040
2020/01/31 11:52:21.8	301.080	0.020	-0.950	-0.030
2020/01/31 11:52:21.9	301.100	0.020	-0.940	-0.020
2020/01/31 11:52:22.0	301.110	0.020	-0.930	-0.010
2020/01/31 11:52:22.1	301.130	0.020	-0.910	0.010
2020/01/31 11:52:22.2	301.140	0.020	-0.900	0.030
2020/01/31 11:52:22.3	301.150	0.020	-0.880	0.050
2020/01/31 11:52:22.4	301.170	0.020	-0.850	0.070
2020/01/31 11:52:22.5	301.180	0.020	-0.830	0.100
2020/01/31 11:52:22.6	301.190	0.020	-0.800	0.120
2020/01/31 11:52:22.7	301.200	0.020	-0.770	0.150
2020/01/31 11:52:22.8	301.210	0.010	-0.730	0.180
2020/01/31 11:52:22.9	301.220	0.010	-0.700	0.200
2020/01/31 11:52:23.0	301.230	0.010	-0.660	0.230
2020/01/31 11:52:23.1	301.240	0.000	-0.630	0.260
2020/01/31 11:52:23.2	301.250	-0.000	-0.590	0.290
2020/01/31 11:52:23.3	301.250	-0.010	-0.550	0.320
2020/01/31 11:52:23.4	301.260	-0.010	-0.510	0.350
2020/01/31 11:52:23.5	301.270	-0.020	-0.470	0.380
2020/01/31 11:52:23.6	301.270	-0.020	-0.430	0.410
2020/01/31 11:52:23.7	301.270	-0.030	-0.390	0.450
2020/01/31 11:52:23.8	301.270	-0.030	-0.350	0.480
2020/01/31 11:52:23.9	301.270	-0.040	-0.310	0.510
2020/01/31 11:52:24.0	301.270	-0.040	-0.270	0.540
2020/01/31 11:52:24.1	301.260	-0.050	-0.240	0.570
2020/01/31 11:52:24.2	301.250	-0.060	-0.200	0.610
2020/01/31 11:52:24.3	301.250	-0.060	-0.160	0.640
2020/01/31 11:52:24.4	301.240	-0.060	-0.130	0.670
2020/01/31 11:52:24.5	301.240	-0.070	-0.100	0.700
2020/01/31 11:52:24.6	301.230	-0.070	-0.070	0.730
2020/01/31 11:52:24.7	301.220	-0.080	-0.040	0.760
2020/01/31 11:52:24.8	301.200	-0.080	-0.010	0.790
2020/01/31 11:52:24.9	301.190	-0.080	0.010	0.820
2020/01/31 11:52:25.0	301.180	-0.080	0.030	0.840
2020/01/31 11:52:25.1	301.170	-0.080	0.050	0.870
2020/01/31 11:52:25.2	301.150	-0.080	0.070	0.890
2020/01/31 11:52:25.3	301.140	-0.080	0.090	0.910
2020/01/31 11:52:25.4	301.120	-0.080	0.100	0.930
2020/01/31 11:52:25.5	301.100	-0.080	0.100	0.940
2020/01/31 11:52:25.6	301.080	-0.080	0.110	0.960
2020/01/31 11:52:25.7	301.070	-0.070	0.120	0.970
2020/01/31 11:52:25.8	301.050	-0.070	0.120	0.980
2020/01/31 11:52:25.9	301.040	-0.070	0.110	0.990
2020/01/31 11:52:26.0	301.020	-0.060	0.110	1.000
2020/01/31 11:52:26.1	301.010	-0.060	0.110	1.010
2020/01/31 11:52:26.2	300.990	-0.050	0.100	1.010
2020/01/31 11:52:26.3	300.980	-0.040	0.090	1.010
2020/01/31 11:52:26.4	300.960	-0.040	0.080	1.010
2020/01/31 11:52:26.5	300.950	-0.030	0.060	1.010
2020/01/31 11:52:26.6	300.940	-0.030	0.050	1.010
2020/01/31 11:52:26.7	300.930	-0.020	0.040	1.010
2020/01/31 11:52:26.8	300.920	-0.010	0.020	1.000
2020/01/31 11:52:26.9	300.910	-0.010	0.010	0.990
2020/01/31 11:52:27.0	300.900	-0.000	-0.010	0.980
2020/01/31 11:52:27.1	300.890	0.010	-0.030	0.970
2020/01/31 11:52:27.2	300.880	0.010	-0.040	0.950
2020/01/31 11:52:27.3	300.870	0.020	-0.060	0.940
2020/01/31 11:52:27.4	300.870	0.020	-0.070	0.920
2020/01/31 11:52:27.5	300.860	0.020	-0.090	0.900
2020/01/31 11:52:27.6	300.860	0.030	-0.100	0.880
2020/01/31 11:52:27.7	300.850	0.030	-0.110	0.860
2020/01/31 11:52:27.8	300.850	0.030	-0.130	0.840
2020/01/31 11:52:27.9	300.850	0.030	-0.140	0.810
2020/01/31 11:52:28.0	300.840	0.030	-0.140	0.790
2020/01/31 11:52:28.1	300.840	0.030	-0.150	0.760
2020/01/31 11:52:28.2	300.840	0.030	-0.160	0.730
2020/01/31 11:52:28.3	300.840	0.030	-0.160	0.710
2020/01/31 11:52:28.4	300.840	0.030	-0.170	0.680
2020/01/31 11:52:28.5	300.850	0.030	-0.170	0.650
2020/01/31 11:52:28.6	300.850	0.020	-0.170	0.620
2020/01/31 11:52:28.7	300.850	0.020	-0.170	0.590
2020/01/31 11:52:28.8	300.850	0.020	-0.170	0.560
2020/01/31 11:52:28.9	300.850	0.010	-0.170	0.530
2020/01/31 11:52:29.0	300.850	0.010	-0.170	0.500
2020/01/31 11:52:29.1	300.860	0.010	-0.160	0.480
2020/01/31 11:52:29.2	300.860	0.000	-0.160	0.450
2020/01/31 11:52:29.3	300.860	-0.000	-0.160	0.420
2020/01/31 11:52:29.4	300.860	-0.010	-0.150	0.400
2020/01/31 11:52:29.5	300.870	-0.010	-0.150	0.370
2020/01/31 11:52:29.6	300.870	-0.020	-0.150	0.350
2020/01/31 11:52:29.7	300.880	-0.020	-0.140	0.330
2020/01/31 11:52:29.8	300.880	-0.020	-0.130	0.310
2020/01/31 11:52:29.9	300.890	-0.020	-0.130	0.300
2020/01/31 11:52:30.0	300.890	-0.030	-0.120	0.280
2020/01/31 11:52:30.1	300.890	-0.030	-0.120	0.270
2020/01/31 11:52:30.2	300.890	-0.030	-0.110	0.260
2020/01/31 11:52:30.3	300.900	-0.030	-0.100	0.260
2020/01/31 11:52:30.4	300.900	-0.030	-0.100	0.260
2020/01/31 11:52:30.5	300.890	-0.030	-0.090	0.260
2020/01/31 11:52:30.6	300.890	-0.020	-0.090	0.260
2020/01/31 11:52:30.7	300.890	-0.020	-0.080	0.270
2020/01/31 11:52:30.8	300.890	-0.020	-0.080	0.280
2020/01/31 11:52:30.9	300.890	-0.010	-0.070	0.290
2020/01/31 11:52:31.0	300.890	-0.000	-0.070	0.300
2020/01/31 11:52:31.1	300.890	0.000	-0.070	0.320
2020/01/31 11:52:31.2	300.890	0.010	-0.060	0.340
2020/01/31 11:52:31.3	300.890	0.020	-0.060	0.360
2020/01/31 11:52:31.4	300.890	0.020	-0.060	0.380
2020/01/31 11:52:31.5	300.880	0.030	-0.060	0.400
2020/01/31 11:52:31.6	300.880	0.040	-0.060	0.430
2020/01/31 11:52:31.7	300.880	0.050	-0.060	0.450
2020/01/31 11:52:31.8	300.880	0.060	-0.070	0.480
2020/01/31 11:52:31.9	300.880	0.060	-0.070	0.500
2020/01/31 11:52:32.0	300.870	0.070	-0.080	0.530
2020/01/31 11:52:32.1	300.870	0.080	-0.090	0.560
2020/01/31 11:52:32.2	300.860	0.090	-0.090	0.580
2020/01/31 11:52:32.3	300.860	0.090	-0.100	0.610
2020/01/31 11:52:32.4	300.860	0.100	-0.110	0.630
2020/01/31 11:52:32.5	300.850	0.100	-0.120	0.650
2020/01/31 11:52:32.6	300.850	0.110	-0.140	0.680
2020/01/31 11:52:32.7	300.840	0.110	-0.150	0.700
2020/01/31 11:52:32.8	300.840	0.110	-0.160	0.720
2020/01/31 11:52:32.9	300.830	0.120	-0.180	0.740
2020/01/31 11:52:33.0	300.820	0.120	-0.190	0.760
2020/01/31 11:52:33.1	300.820	0.120	-0.210	0.770
2020/01/31 11:52:33.2	300.820	0.120	-0.220	0.790
2020/01/31 11:52:33.3	300.810	0.120	-0.240	0.800
2020/01/31 11:52:33.4	300.810	0.110	-0.260	0.810
2020/01/31 11:52:33.5	300.810	0.110	-0.270	0.820
2020/01/31 11:52:33.6	300.800	0.110	-0.290	0.820
2020/01/31 11:52:33.7	300.800	0.100	-0.310	0.830
2020/01/31 11:52:33.8	300.810	0.100	-0.330	0.830
2020/01/31 11:52:33.9	300.810	0.100	-0.350	0.830
2020/01/31 11:52:34.0	300.810	0.090	-0.370	0.820
2020/01/31 11:52:34.1	300.820	0.090	-0.390	0.820
2020/01/31 11:52:34.2	300.830	0.080	-0.410	0.810
2020/01/31 11:52:34.3	300.830	0.070	-0.430	0.800
2020/01/31 11:52:34.4	300.840	0.070	-0.450	0.780
2020/01/31 11:52:34.5	300.860	0.060	-0.470	0.770
2020/01/31 11:52:34.6	300.880	0.060	-0.490	0.750
2020/01/31 11:52:34.7	300.890	0.050	-0.500	0.730
2020/01/31 11:52:34.8	300.910	0.040	-0.520	0.710
2020/01/31 11:52:34.9	300.920	0.040	-0.530	0.690
2020/01/31 11:52:35.0	300.940	0.030	-0.550	0.660
2020/01/31 11:52:35.1	300.960	0.020	-0.560	0.640
2020/01/31 11:52:35.2	300.970	0.020	-0.570	0.620
2020/01/31 11:52:35.3	300.990	0.010	-0.580	0.590
2020/01/31 11:52:35.4	301.010	0.010	-0.590	0.570
2020/01/31 11:52:35.5	301.030	-0.000	-0.600	0.550
2020/01/31 11:52:35.6	301.050	-0.010	-0.610	0.530
2020/01/31 11:52:35.7	301.070	-0.010	-0.610	0.510
2020/01/31 11:52:35.8	301.080	-0.020	-0.620	0.490
2020/01/31 11:52:35.9	301.100	-0.020	-0.620	0.470
2020/01/31 11:52:36.0	301.120	-0.030	-0.620	0.450
2020/01/31 11:52:36.1	301.130	-0.030	-0.620	0.430
2020/01/31 11:52:36.2	301.150	-0.040	-0.630	0.410
2020/01/31 11:52:36.3	301.170	-0.040	-0.630	0.400
2020/01/31 11:52:36.4	301.180	-0.050	-0.620	0.390
2020/01/31 11:52:36.5	301.190	-0.050	-0.630	0.370
2020/01/31 11:52:36.6	301.200	-0.050	-0.620	0.360
2020/01/31 11:52:36.7	301.210	-0.060	-0.620	0.350
2020/01/31 11:52:36.8	301.220	-0.060	-0.610	0.340
2020/01/31 11:52:36.9	301.230	-0.060	-0.610	0.330
2020/01/31 11:52:37.0	301.240	-0.060	-0.600	0.330
2020/01/31 11:52:37.1	301.250	-0.070	-0.600	0.320
2020/01/31 11:52:37.2	301.260	-0.070	-0.590	0.320
2020/01/31 11:52:37.3	301.270	-0.070	-0.580	0.320
2020/01/31 11:52:37.4	301.270	-0.070	-0.570	0.310
2020/01/31 11:52:37.5	301.280	-0.070	-0.560	0.310
2020/01/31 11:52:37.6	301.290	-0.070	-0.550	0.310
2020/01/31 11:52:37.7	301.300	-0.070	-0.540	0.320
2020/01/31 11:52:37.8	301.300	-0.070	-0.530	0.320
2020/01/31 11:52:37.9	301.310	-0.070	-0.510	0.330
2020/01/31 11:52:38.0	301.310	-0.070	-0.500	0.330
2020/01/31 11:52:38.1	301.310	-0.070	-0.480	0.340
2020/01/31 11:52:38.2	301.320	-0.070	-0.470	0.350
2020/01/31 11:52:38.3	301.320	-0.070	-0.450	0.360
2020/01/31 11:52:38.4	301.320	-0.070	-0.430	0.370
2020/01/31 11:52:38.5	301.310	-0.070	-0.420	0.380
2020/01/31 11:52:38.6	301.310	-0.070	-0.400	0.400
2020/01/31 11:52:38.7	301.310	-0.070	-0.380	0.410
2020/01/31 11:52:38.8	301.310	-0.070	-0.360	0.430
2020/01/31 11:52:38.9	301.310	-0.070	-0.340	0.450
2020/01/31 11:52:39.0	301.300	-0.070	-0.310	0.470
2020/01/31 11:52:39.1	301.300	-0.070	-0.290	0.490
2020/01/31 11:52:39.2	301.290	-0.070	-0.270	0.510
2020/01/31 11:52:39.3	301.280	-0.070	-0.250	0.530
2020/01/31 11:52:39.4	301.280	-0.070	-0.220	0.560
2020/01/31 11:52:39.5	301.270	-0.070	-0.200	0.580
2020/01/31 11:52:39.6	301.260	-0.070	-0.180	0.610
2020/01/31 11:52:39.7	301.250	-0.070	-0.160	0.630
2020/01/31 11:52:39.8	301.240	-0.070	-0.130	0.660
2020/01/31 11:52:39.9	301.220	-0.070	-0.110	0.680
2020/01/31 11:52:40.0	301.210	-0.070	-0.090	0.710
2020/01/31 11:52:40.1	301.200	-0.070	-0.070	0.730
2020/01/31 11:52:40.2	301.190	-0.070	-0.050	0.750
2020/01/31 11:52:40.3	301.170	-0.070	-0.030	0.780
2020/01/31 11:52:40.4	301.160	-0.070	-0.010	0.800
2020/01/31 11:52:40.5	301.140	-0.070	0.010	0.810
2020/01/31 11:52:40.6	301.120	-0.070	0.020	0.830
2020/01/31 11:52:40.7	301.110	-0.060	0.040	0.850
2020/01/31 11:52:40.8	301.090	-0.060	0.050	0.860
2020/01/31 11:52:40.9	301.070	-0.060	0.070	0.870
2020/01/31 11:52:41.0	301.060	-0.060	0.080	0.890
2020/01/31 11:52:41.1	301.040	-0.060	0.090	0.890
2020/01/31 11:52:41.2	301.020	-0.060	0.100	0.900
2020/01/31 11:52:41.3	301.000	-0.060	0.110	0.910
2020/01/31 11:52:41.4	300.980	-0.060	0.120	0.910
2020/01/31 11:52:41.5	300.960	-0.060	0.120	0.910
2020/01/31 11:52:41.6	300.940	-0.060	0.130	0.910
2020/01/31 11:52:41.7	300.920	-0.060	0.130	0.910
2020/01/31 11:52:41.8	300.900	-0.060	0.140	0.910
2020/01/31 11:52:41.9	300.880	-0.060	0.140	0.900
2020/01/31 11:52:42.0	300.860	-0.070	0.150	0.890
2020/01/31 11:52:42.1	300.840	-0.070	0.150	0.880
2020/01/31 11:52:42.2	300.820	-0.070	0.150	0.880
2020/01/31 11:52:42.3	300.810	-0.070	0.150	0.860
2020/01/31 11:52:42.4	300.790	-0.070	0.150	0.850
2020/01/31 11:52:42.5	300.780	-0.070	0.150	0.840
2020/01/31 11:52:42.6	300.760	-0.070	0.150	0.830
2020/01/31 11:52:42.7	300.740	-0.080	0.150	0.810
2020/01/31 11:52:42.8	300.730	-0.080	0.150	0.790
2020/01/31 11:52:42.9	300.710	-0.080	0.150	0.780
2020/01/31 11:52:43.0	300.700	-0.080	0.150	0.760
2020/01/31 11:52:43.1	300.690	-0.080	0.140	0.740
2020/01/31 11:52:43.2	300.680	-0.080	0.140	0.730
2020/01/31 11:52:43.3	300.670	-0.080	0.140	0.710
2020/01/31 11:52:43.4	300.660	-0.080	0.130	0.690
2020/01/31 11:52:43.5	300.650	-0.080	0.120	0.670
2020/01/31 11:52:43.6	300.650	-0.080	0.120	0.660
2020/01/31 11:52:43.7	300.640	-0.080	0.110	0.640
2020/01/31 11:52:43.8	300.630	-0.080	0.110	0.620
2020/01/31 11:52:43.9	300.630	-0.080	0.100	0.610
2020/01/31 11:52:44.0	300.620	-0.080	0.090	0.590
2020/01/31 11:52:44.1	300.620	-0.080	0.080	0.580
2020/01/31 11:52:44.2	300.620	-0.080	0.070	0.560
2020/01/31 11:52:44.3	300.620	-0.070	0.060	0.550
2020/01/31 11:52:44.4	300.610	-0.070	0.050	0.530
2020/01/31 11:52:44.5	300.610	-0.070	0.040	0.520
2020/01/31 11:52:44.6	300.610	-0.060	0.020	0.510
2020/01/31 11:52:44.7	300.610	-0.060	0.010	0.490
2020/01/31 11:52:44.8	300.610	-0.050	-0.000	0.480
2020/01/31 11:52:44.9	300.610	-0.050	-0.020	0.470
2020/01/31 11:52:45.0	300.620	-0.040	-0.030	0.450
2020/01/31 11:52:45.1	300.620	-0.030	-0.050	0.440
2020/01/31 11:52:45.2	300.630	-0.030	-0.070	0.430
2020/01/31 11:52:45.3	300.630	-0.020	-0.090	0.410
2020/01/31 11:52:45.4	300.640	-0.010	-0.110	0.400
2020/01/31 11:52:45.5	300.660	-0.000	-0.140	0.390
2020/01/31 11:52:45.6	300.670	0.010	-0.160	0.370
2020/01/31 11:52:45.7	300.680	0.020	-0.190	0.360
2020/01/31 11:52:45.8	300.690	0.030	-0.210	0.340
2020/01/31 11:52:45.9	300.710	0.040	-0.240	0.330
2020/01/31 11:52:46.0	300.720	0.050	-0.270	0.310
2020/01/31 11:52:46.1	300.730	0.060	-0.300	0.300
2020/01/31 11:52:46.2	300.740	0.070	-0.330	0.290
2020/01/31 11:52:46.3	300.760	0.090	-0.370	0.270
2020/01/31 11:52:46.4	300.770	0.100	-0.400	0.260
2020/01/31 11:52:46.5	300.790	0.110	-0.430	0.240
2020/01/31 11:52:46.6	300.800	0.120	-0.470	0.230
2020/01/31 11:52:46.7	300.820	0.140	-0.500	0.220
2020/01/31 11:52:46.8	300.830	0.150	-0.530	0.210
2020/01/31 11:52:46.9	300.850	0.160	-0.560	0.190
2020/01/31 11:52:47.0	300.870	0.170	-0.600	0.180
2020/01/31 11:52:47.1	300.880	0.190	-0.630	0.170
2020/01/31 11:52:47.2	300.900	0.200	-0.650	0.160
2020/01/31 11:52:47.3	300.920	0.210	-0.680	0.150
2020/01/31 11:52:47.4	300.930	0.220	-0.710	0.140
2020/01/31 11:52:47.5	300.950	0.230	-0.730	0.140
2020/01/31 11:52:47.6	300.970	0.240	-0.760	0.130
2020/01/31 11:52:47.7	300.990	0.250	-0.780	0.130
2020/01/31 11:52:47.8	301.000	0.260	-0.790	0.120
2020/01/31 11:52:47.9	301.020	0.270	-0.810	0.120
2020/01/31 11:52:48.0	301.040	0.280	-0.820	0.130
2020/01/31 11:52:48.1	301.060	0.290	-0.830	0.130
2020/01/31 11:52:48.2	301.070	0.300	-0.830	0.140
2020/01/31 11:52:48.3	301.090	0.300	-0.830	0.150
2020/01/31 11:52:48.4	301.110	0.310	-0.830	0.160
2020/01/31 11:52:48.5	301.130	0.310	-0.830	0.170
2020/01/31 11:52:48.6	301.140	0.310	-0.820	0.190
2020/01/31 11:52:48.7	301.160	0.310	-0.800	0.210
2020/01/31 11:52:48.8	301.170	0.310	-0.790	0.230
2020/01/31 11:52:48.9	301.180	0.310	-0.770	0.260
2020/01/31 11:52:49.0	301.180	0.300	-0.750	0.290
2020/01/31 11:52:49.1	301.190	0.300	-0.720	0.320
2020/01/31 11:52:49.2	301.200	0.290	-0.690	0.360
2020/01/31 11:52:49.3	301.200	0.280	-0.660	0.390
2020/01/31 11:52:49.4	301.200	0.270	-0.620	0.430
2020/01/31 11:52:49.5	301.210	0.260	-0.590	0.480
2020/01/31 11:52:49.6	301.210	0.240	-0.550	0.520
2020/01/31 11:52:49.7	301.210	0.230	-0.510	0.560
2020/01/31 11:52:49.8	301.210	0.210	-0.470	0.600
2020/01/31 11:52:49.9	301.200	0.190	-0.430	0.650
2020/01/31 11:52:50.0	301.200	0.170	-0.390	0.690
2020/01/31 11:52:50.1	301.200	0.150	-0.350	0.730
2020/01/31 11:52:50.2	301.190	0.130	-0.310	0.770
2020/01/31 11:52:50.3	301.180	0.100	-0.270	0.810
2020/01/31 11:52:50.4	301.180	0.080	-0.230	0.850
2020/01/31 11:52:50.5	301.180	0.050	-0.190	0.890
2020/01/31 11:52:50.6	301.170	0.030	-0.160	0.930
2020/01/31 11:52:50.7	301.150	0.000	-0.130	0.960
2020/01/31 11:52:50.8	301.140	-0.030	-0.090	1.000
2020/01/31 11:52:50.9	301.130	-0.050	-0.070	1.030
2020/01/31 11:52:51.0	301.110	-0.080	-0.040	1.060
2020/01/31 11:52:51.1	301.090	-0.100	-0.020	1.090
2020/01/31 11:52:51.2	301.070	-0.130	0.000	1.110
2020/01/31 11:52:51.3	301.050	-0.160	0.020	1.140
2020/01/31 11:52:51.4	301.030	-0.180	0.040	1.160
2020/01/31 11:52:51.5	301.020	-0.200	0.040	1.180
2020/01/31 11:52:51.6	301.000	-0.230	0.050	1.190
2020/01/31 11:52:51.7	300.970	-0.250	0.060	1.210
2020/01/31 11:52:51.8	300.950	-0.270	0.060	1.220
2020/01/31 11:52:51.9	300.920	-0.280	0.050	1.220
2020/01/31 11:52:52.0	300.900	-0.300	0.050	1.230
2020/01/31 11:52:52.1	300.870	-0.310	0.040	1.230
2020/01/31 11:52:52.2	300.850	-0.330	0.030	1.220
2020/01/31 11:52:52.3	300.820	-0.340	0.010	1.220
2020/01/31 11:52:52.4	300.800	-0.350	-0.000	1.210
2020/01/31 11:52:52.5	300.780	-0.350	-0.020	1.190
2020/01/31 11:52:52.6	300.760	-0.360	-0.050	1.170
2020/01/31 11:52:52.7	300.740	-0.360	-0.070	1.150
2020/01/31 11:52:52.8	300.720	-0.360	-0.100	1.130
2020/01/31 11:52:52.9	300.700	-0.360	-0.120	1.110
2020/01/31 11:52:53.0	300.680	-0.350	-0.150	1.080
2020/01/31 11:52:53.1	300.660	-0.350	-0.180	1.050
2020/01/31 11:52:53.2	300.640	-0.340	-0.210	1.020
2020/01/31 11:52:53.3	300.620	-0.330	-0.240	0.990
2020/01/31 11:52:53.4	300.610	-0.320	-0.270	0.960
2020/01/31 11:52:53.5	300.600	-0.300	-0.300	0.930
2020/01/31 11:52:53.6	300.590	-0.290	-0.330	0.890
2020/01/31 11:52:53.7	300.580	-0.270	-0.350	0.860
2020/01/31 11:52:53.8	300.570	-0.250	-0.380	0.830
2020/01/31 11:52:53.9	300.560	-0.230	-0.400	0.800
2020/01/31 11:52:54.0	300.550	-0.210	-0.420	0.770
2020/01/31 11:52:54.1	300.550	-0.190	-0.440	0.740
2020/01/31 11:52:54.2	300.540	-0.170	-0.460	0.710
2020/01/31 11:52:54.3	300.540	-0.150	-0.470	0.690
2020/01/31 11:52:54.4	300.540	-0.130	-0.480	0.660
2020/01/31 11:52:54.5	300.520	-0.110	-0.490	0.640
2020/01/31 11:52:54.6	300.520	-0.090	-0.490	0.620
2020/01/31 11:52:54.7	300.520	-0.070	-0.490	0.600
2020/01/31 11:52:54.8	300.520	-0.050	-0.490	0.580
2020/01/31 11:52:54.9	300.520	-0.030	-0.480	0.570
2020/01/31 11:52:55.0	300.530	-0.010	-0.460	0.550
2020/01/31 11:52:55.1	300.530	0.010	-0.450	0.540
2020/01/31 11:52:55.2	300.530	0.020	-0.430	0.530
2020/01/31 11:52:55.3	300.540	0.030	-0.410	0.520
2020/01/31 11:52:55.4	300.550	0.050	-0.380	0.520
2020/01/31 11:52:55.5	300.540	0.060	-0.360	0.510
2020/01/31 11:52:55.6	300.550	0.060	-0.330	0.510
2020/01/31 11:52:55.7	300.560	0.070	-0.290	0.500
2020/01/31 11:52:55.8	300.570	0.070	-0.260	0.500
2020/01/31 11:52:55.9	300.580	0.080	-0.220	0.500
2020/01/31 11:52:56.0	300.590	0.080	-0.190	0.500
2020/01/31 11:52:56.1	300.600	0.080	-0.150	0.510
2020/01/31 11:52:56.2	300.610	0.070	-0.110	0.510
2020/01/31 11:52:56.3	300.630	0.070	-0.070	0.510
2020/01/31 11:52:56.4	300.640	0.060	-0.030	0.520
2020/01/31 11:52:56.5	300.660	0.060	0.010	0.520
2020/01/31 11:52:56.6	300.680	0.050	0.050	0.530
2020/01/31 11:52:56.7	300.690	0.040	0.080	0.540
2020/01/31 11:52:56.8	300.710	0.030	0.120	0.550
2020/01/31 11:52:56.9	300.730	0.010	0.160	0.550
2020/01/31 11:52:57.0	300.740	-0.000	0.190	0.560
2020/01/31 11:52:57.1	300.760	-0.010	0.220	0.570
2020/01/31 11:52:57.2	300.780	-0.030	0.250	0.580
2020/01/31 11:52:57.3	300.800	-0.040	0.270	0.590
2020/01/31 11:52:57.4	300.820	-0.060	0.300	0.600
2020/01/31 11:52:57.5	300.840	-0.070	0.310	0.620
2020/01/31 11:52:57.6	300.860	-0.090	0.330	0.630
2020/01/31 11:52:57.7	300.890	-0.100	0.340	0.640
2020/01/31 11:52:57.8	300.910	-0.110	0.350	0.650
2020/01/31 11:52:57.9	300.930	-0.120	0.360	0.660
2020/01/31 11:52:58.0	300.950	-0.140	0.360	0.670
2020/01/31 11:52:58.1	300.970	-0.150	0.360	0.690
2020/01/31 11:52:58.2	300.990	-0.160	0.350	0.700
2020/01/31 11:52:58.3	301.010	-0.170	0.350	0.710
2020/01/31 11:52:58.4	301.030	-0.170	0.330	0.720
2020/01/31 11:52:58.5	301.050	-0.180	0.320	0.720
2020/01/31 11:52:58.6	301.070	-0.180	0.300	0.730
2020/01/31 11:52:58.7	301.090	-0.190	0.270	0.740
2020/01/31 11:52:58.8	301.110	-0.190	0.240	0.750
2020/01/31 11:52:58.9	301.130	-0.190	0.210	0.750
2020/01/31 11:52:59.0	301.150	-0.190	0.180	0.760
2020/01/31 11:52:59.1	301.170	-0.180	0.140	0.760
2020/01/31 11:52:59.2	301.190	-0.180	0.100	0.760
2020/01/31 11:52:59.3	301.200	-0.170	0.050	0.760
2020/01/31 11:52:59.4	301.220	-0.160	0.000	0.760
2020/01/31 11:52:59.5	301.240	-0.150	-0.050	0.760
2020/01/31 11:52:59.6	301.260	-0.140	-0.100	0.760
2020/01/31 11:52:59.7	301.270	-0.130	-0.150	0.750
2020/01/31 11:52:59.8	301.290	-0.120	-0.210	0.740
2020/01/31 11:52:59.9	301.300	-0.100	-0.260	0.730
2020/01/31 11:53:00.0	301.320	-0.090	-0.320	0.720
2020/01/31 11:53:00.1	301.330	-0.070	-0.370	0.710
2020/01/31 11:53:00.2	301.350	-0.060	-0.420	0.700
2020/01/31 11:53:00.3	301.360	-0.040	-0.480	0.690
2020/01/31 11:53:00.4	301.370	-0.020	-0.530	0.680
2020/01/31 11:53:00.5	301.380	-0.000	-0.580	0.660
2020/01/31 11:53:00.6	301.390	0.020	-0.620	0.650
2020/01/31 11:53:00.7	301.400	0.030	-0.660	0.640
2020/01/31 11:53:00.8	301.410	0.050	-0.700	0.630
2020/01/31 11:53:00.9	301.410	0.070	-0.740	0.620
2020/01/31 11:53:01.0	301.420	0.090	-0.770	0.610
2020/01/31 11:53:01.1	301.420	0.100	-0.790	0.600
2020/01/31 11:53:01.2	301.420	0.120	-0.810	0.600
2020/01/31 11:53:01.3	301.430	0.130	-0.830	0.590
2020/01/31 11:53:01.4	301.420	0.140	-0.840	0.590
2020/01/31 11:53:01.5	301.420	0.160	-0.840	0.590
2020/01/31 11:53:01.6	301.420	0.170	-0.850	0.590
2020/01/31 11:53:01.7	301.420	0.170	-0.850	0.590
2020/01/31 11:53:01.8	301.410	0.180	-0.840	0.590
2020/01/31 11:53:01.9	301.400	0.190	-0.830	0.590
2020/01/31 11:53:02.0	301.400	0.190	-0.820	0.600
2020/01/31 11:53:02.1	301.390	0.190	-0.800	0.600
2020/01/31 11:53:02.2	301.380	0.200	-0.780	0.610
2020/01/31 11:53:02.3	301.370	0.200	-0.760	0.610
2020/01/31 11:53:02.4	301.350	0.190	-0.740	0.620
2020/01/31 11:53:02.5	301.340	0.190	-0.710	0.620
2020/01/31 11:53:02.6	301.320	0.190	-0.680	0.630
2020/01/31 11:53:02.7	301.310	0.180	-0.650	0.640
2020/01/31 11:53:02.8	301.290	0.180	-0.620	0.640
2020/01/31 11:53:02.9	301.270	0.170	-0.590	0.650
2020/01/31 11:53:03.0	301.260	0.160	-0.550	0.660
2020/01/31 11:53:03.1	301.240	0.150	-0.520	0.670
2020/01/31 11:53:03.2	301.220	0.140	-0.490	0.680
2020/01/31 11:53:03.3	301.200	0.130	-0.450	0.680
2020/01/31 11:53:03.4	301.180	0.120	-0.420	0.690
2020/01/31 11:53:03.5	301.160	0.110	-0.390	0.700
2020/01/31 11:53:03.6	301.140	0.100	-0.360	0.710
2020/01/31 11:53:03.7	301.120	0.100	-0.340	0.710
2020/01/31 11:53:03.8	301.100	0.090	-0.310	0.720
2020/01/31 11:53:03.9	301.080	0.080	-0.280	0.730
2020/01/31 11:53:04.0	301.060	0.070	-0.260	0.740
2020/01/31 11:53:04.1	301.040	0.060	-0.240	0.740
2020/01/31 11:53:04.2	301.020	0.050	-0.220	0.750
2020/01/31 11:53:04.3	301.000	0.050	-0.200	0.750
2020/01/31 11:53:04.4	300.990	0.040	-0.190	0.750
2020/01/31 11:53:04.5	300.980	0.040	-0.170	0.750
2020/01/31 11:53:04.6	300.960	0.030	-0.160	0.750
2020/01/31 11:53:04.7	300.950	0.030	-0.150	0.750
2020/01/31 11:53:04.8	300.940	0.030	-0.150	0.750
2020/01/31 11:53:04.9	300.930	0.030	-0.140	0.750
2020/01/31 11:53:05.0	300.920	0.030	-0.140	0.750
2020/01/31 11:53:05.1	300.910	0.030	-0.140	0.740
2020/01/31 11:53:05.2	300.910	0.030	-0.140	0.740
2020/01/31 11:53:05.3	300.900	0.040	-0.140	0.730
2020/01/31 11:53:05.4	300.900	0.040	-0.140	0.720
2020/01/31 11:53:05.5	300.890	0.040	-0.150	0.710
2020/01/31 11:53:05.6	300.890	0.050	-0.150	0.700
2020/01/31 11:53:05.7	300.890	0.050	-0.150	0.700
2020/01/31 11:53:05.8	300.890	0.060	-0.160	0.680
2020/01/31 11:53:05.9	300.890	0.060	-0.160	0.670
2020/01/31 11:53:06.0	300.890	0.070	-0.160	0.660
2020/01/31 11:53:06.1	300.890	0.070	-0.160	0.650
2020/01/31 11:53:06.2	300.890	0.080	-0.170	0.640
2020/01/31 11:53:06.3	300.900	0.080	-0.170	0.630
2020/01/31 11:53:06.4	300.900	0.090	-0.170	0.610
2020/01/31 11:53:06.5	300.900	0.090	-0.170	0.600
2020/01/31 11:53:06.6	300.900	0.090	-0.170	0.590
2020/01/31 11:53:06.7	300.910	0.090	-0.160	0.580
2020/01/31 11:53:06.8	300.910	0.090	-0.160	0.570
2020/01/31 11:53:06.9	300.920	0.090	-0.160	0.560
2020/01/31 11:53:07.0	300.930	0.090	-0.150	0.550
2020/01/31 11:53:07.1	300.930	0.090	-0.140	0.530
2020/01/31 11:53:07.2	300.940	0.090	-0.140	0.520
2020/01/31 11:53:07.3	300.950	0.080	-0.130	0.510
2020/01/31 11:53:07.4	300.950	0.080	-0.120	0.500
2020/01/31 11:53:07.5	300.950	0.070	-0.120	0.490
2020/01/31 11:53:07.6	300.960	0.070	-0.110	0.480
2020/01/31 11:53:07.7	300.970	0.060	-0.100	0.470
2020/01/31 11:53:07.8	300.980	0.050	-0.090	0.450
2020/01/31 11:53:07.9	300.990	0.040	-0.090	0.440
2020/01/31 11:53:08.0	301.000	0.030	-0.080	0.430
2020/01/31 11:53:08.1	301.010	0.020	-0.080	0.420
2020/01/31 11:53:08.2	301.030	0.010	-0.070	0.400
2020/01/31 11:53:08.3	301.040	0.000	-0.070	0.390
2020/01/31 11:53:08.4	301.050	-0.010	-0.070	0.380
2020/01/31 11:53:08.5	301.060	-0.020	-0.070	0.360
2020/01/31 11:53:08.6	301.070	-0.030	-0.070	0.350
2020/01/31 11:53:08.7	301.090	-0.050	-0.070	0.340
2020/01/31 11:53:08.8	301.100	-0.060	-0.080	0.330
2020/01/31 11:53:08.9	301.120	-0.070	-0.080	0.310
2020/01/31 11:53:09.0	301.130	-0.080	-0.090	0.300
2020/01/31 11:53:09.1	301.140	-0.090	-0.100	0.290
2020/01/31 11:53:09.2	301.160	-0.100	-0.110	0.280
2020/01/31 11:53:09.3	301.170	-0.110	-0.120	0.260
2020/01/31 11:53:09.4	301.180	-0.120	-0.130	0.250
2020/01/31 11:53:09.5	301.190	-0.130	-0.140	0.240
2020/01/31 11:53:09.6	301.200	-0.140	-0.150	0.230
2020/01/31 11:53:09.7	301.220	-0.150	-0.170	0.220
2020/01/31 11:53:09.8	301.230	-0.160	-0.180	0.200
2020/01/31 11:53:09.9	301.240	-0.170	-0.200	0.190
2020/01/31 11:53:10.0	301.260	-0.170	-0.210	0.180
2020/01/31 11:53:10.1	301.270	-0.180	-0.230	0.170
2020/01/31 11:53:10.2	301.280	-0.180	-0.240	0.160
2020/01/31 11:53:10.3	301.300	-0.190	-0.250	0.150
2020/01/31 11:53:10.4	301.310	-0.190	-0.270	0.130
2020/01/31 11:53:10.5	301.320	-0.190	-0.280	0.120
2020/01/31 11:53:10.6	301.330	-0.190	-0.300	0.110
2020/01/31 11:53:10.7	301.340	-0.190	-0.310	0.090
2020/01/31 11:53:10.8	301.350	-0.190	-0.320	0.080
2020/01/31 11:53:10.9	301.360	-0.190	-0.330	0.070
2020/01/31 11:53:11.0	301.370	-0.190	-0.340	0.060
2020/01/31 11:53:11.1	301.380	-0.190	-0.350	0.050
2020/01/31 11:53:11.2	301.380	-0.190	-0.360	0.040
2020/01/31 11:53:11.3	301.390	-0.190	-0.370	0.040
2020/01/31 11:53:11.4	301.400	-0.190	-0.370	0.030
2020/01/31 11:53:11.5	301.400	-0.180	-0.370	0.030
2020/01/31 11:53:11.6	301.400	-0.180	-0.380	0.020
2020/01/31 11:53:11.7	301.410	-0.180	-0.380	0.020
2020/01/31 11:53:11.8	301.410	-0.180	-0.380	0.020
2020/01/31 11:53:11.9	301.410	-0.180	-0.370	0.020
2020/01/31 11:53:12.0	301.420	-0.180	-0.370	0.020
2020/01/31 11:53:12.1	301.420	-0.170	-0.360	0.020
2020/01/31 11:53:12.2	301.420	-0.170	-0.350	0.020
2020/01/31 11:53:12.3	301.420	-0.180	-0.340	0.020
2020/01/31 11:53:12.4	301.410	-0.180	-0.330	0.030
2020/01/31 11:53:12.5	301.410	-0.180	-0.320	0.030
2020/01/31 11:53:12.6	301.410	-0.180	-0.300	0.040
2020/01/31 11:53:12.7	301.400	-0.180	-0.280	0.050
2020/01/31 11:53:12.8	301.400	-0.190	-0.260	0.060
2020/01/31 11:53:12.9	301.390	-0.190	-0.240	0.070
2020/01/31 11:53:13.0	301.380	-0.200	-0.220	0.080
2020/01/31 11:53:13.1	301.370	-0.210	-0.190	0.100
2020/01/31 11:53:13.2	301.360	-0.210	-0.170	0.110
2020/01/31 11:53:13.3	301.340	-0.220	-0.140	0.130
2020/01/31 11:53:13.4	301.320	-0.230	-0.110	0.150
2020/01/31 11:53:13.5	301.310	-0.240	-0.080	0.170
2020/01/31 11:53:13.6	301.290	-0.250	-0.050	0.190
2020/01/31 11:53:13.7	301.260	-0.250	-0.020	0.210
2020/01/31 11:53:13.8	301.240	-0.260	0.000	0.240
2020/01/31 11:53:13.9	301.210	-0.270	0.030	0.260
2020/01/31 11:53:14.0	301.190	-0.280	0.060	0.290
2020/01/31 11:53:14.1	301.160	-0.290	0.080	0.320
2020/01/31 11:53:14.2	301.130	-0.290	0.110	0.340
2020/01/31 11:53:14.3	301.110	-0.300	0.130	0.370
2020/01/31 11:53:14.4	301.080	-0.300	0.150	0.400
2020/01/31 11:53:14.5	301.050	-0.310	0.160	0.420
2020/01/31 11:53:14.6	301.020	-0.310	0.170	0.450
2020/01/31 11:53:14.7	300.990	-0.310	0.180	0.470
2020/01/31 11:53:14.8	300.960	-0.310	0.180	0.500
2020/01/31 11:53:14.9	300.930	-0.300	0.180	0.520
2020/01/31 11:53:15.0	300.910	-0.300	0.180	0.540
2020/01/31 11:53:15.1	300.880	-0.290	0.170	0.560
2020/01/31 11:53:15.2	300.860	-0.280	0.160	0.580
2020/01/31 11:53:15.3	300.840	-0.260	0.140	0.600
2020/01/31 11:53:15.4	300.810	-0.250	0.120	0.610
2020/01/31 11:53:15.5	300.800	-0.230	0.100	0.630
2020/01/31 11:53:15.6	300.780	-0.210	0.070	0.640
2020/01/31 11:53:15.7	300.760	-0.180	0.040	0.660
2020/01/31 11:53:15.8	300.750	-0.150	0.010	0.670
2020/01/31 11:53:15.9	300.730	-0.130	-0.030	0.680
2020/01/31 11:53:16.0	300.720	-0.100	-0.070	0.690
2020/01/31 11:53:16.1	300.710	-0.060	-0.110	0.710
2020/01/31 11:53:16.2	300.710	-0.030	-0.150	0.720
2020/01/31 11:53:16.3	300.700	0.010	-0.200	0.730
2020/01/31 11:53:16.4	300.700	0.050	-0.240	0.740
2020/01/31 11:53:16.5	300.700	0.090	-0.290	0.750
2020/01/31 11:53:16.6	300.700	0.130	-0.340	0.760
2020/01/31 11:53:16.7	300.710	0.170	-0.380	0.770
2020/01/31 11:53:16.8	300.710	0.210	-0.430	0.770
2020/01/31 11:53:16.9	300.720	0.250	-0.470	0.780
2020/01/31 11:53:17.0	300.730	0.290	-0.510	0.790
2020/01/31 11:53:17.1	300.740	0.330	-0.560	0.790
2020/01/31 11:53:17.2	300.750	0.370	-0.590	0.800
2020/01/31 11:53:17.3	300.760	0.410	-0.630	0.800
2020/01/31 11:53:17.4	300.770	0.450	-0.670	0.810
2020/01/31 11:53:17.5	300.800	0.480	-0.700	0.810
2020/01/31 11:53:17.6	300.810	0.510	-0.730	0.820
2020/01/31 11:53:17.7	300.820	0.550	-0.750	0.820
2020/01/31 11:53:17.8	300.840	0.570	-0.770	0.830
2020/01/31 11:53:17.9	300.850	0.600	-0.790	0.830
2020/01/31 11:53:18.0	300.870	0.620	-0.810	0.840
2020/01/31 11:53:18.1	300.890	0.640	-0.820	0.840
2020/01/31 11:53:18.2	300.900	0.660	-0.830	0.850
2020/01/31 11:53:18.3	300.920	0.670	-0.830	0.850
2020/01/31 11:53:18.4	300.930	0.680	-0.830	0.860
2020/01/31 11:53:18.5	300.950	0.690	-0.830	0.860
2020/01/31 11:53:18.6	300.960	0.690	-0.820	0.870
2020/01/31 11:53:18.7	300.980	0.690	-0.810	0.870
2020/01/31 11:53:18.8	300.990	0.690	-0.800	0.880
2020/01/31 11:53:18.9	301.000	0.690	-0.780	0.890
2020/01/31 11:53:19.0	301.010	0.680	-0.760	0.890
2020/01/31 11:53:19.1	301.020	0.660	-0.740	0.900
2020/01/31 11:53:19.2	301.030	0.650	-0.710	0.900
2020/01/31 11:53:19.3	301.040	0.630	-0.690	0.910
2020/01/31 11:53:19.4	301.040	0.610	-0.650	0.920
2020/01/31 11:53:19.5	301.060	0.580	-0.630	0.930
2020/01/31 11:53:19.6	301.060	0.560	-0.590	0.930
2020/01/31 11:53:19.7	301.060	0.530	-0.550	0.940
2020/01/31 11:53:19.8	301.060	0.500	-0.510	0.950
2020/01/31 11:53:19.9	301.060	0.460	-0.470	0.950
2020/01/31 11:53:20.0	301.060	0.430	-0.430	0.960
2020/01/31 11:53:20.1	301.060	0.390	-0.390	0.960
2020/01/31 11:53:20.2	301.050	0.360	-0.350	0.960
2020/01/31 11:53:20.3	301.040	0.320	-0.310	0.960
2020/01/31 11:53:20.4	301.040	0.280	-0.270	0.960
2020/01/31 11:53:20.5	301.040	0.240	-0.230	0.960
2020/01/31 11:53:20.6	301.030	0.200	-0.190	0.960
2020/01/31 11:53:20.7	301.020	0.150	-0.150	0.950
2020/01/31 11:53:20.8	301.010	0.110	-0.120	0.940
2020/01/31 11:53:20.9	300.990	0.070	-0.080	0.930
2020/01/31 11:53:21.0	300.980	0.030	-0.050	0.920
2020/01/31 11:53:21.1	300.970	-0.010	-0.030	0.910
2020/01/31 11:53:21.2	300.950	-0.050	0.000	0.900
2020/01/31 11:53:21.3	300.940	-0.090	0.020	0.880
2020/01/31 11:53:21.4	300.920	-0.130	0.040	0.870
2020/01/31 11:53:21.5	300.920	-0.170	0.060	0.850
2020/01/31 11:53:21.6	300.900	-0.210	0.070	0.830
2020/01/31 11:53:21.7	300.880	-0.250	0.080	0.800
2020/01/31 11:53:21.8	300.870	-0.280	0.090	0.780
2020/01/31 11:53:21.9	300.850	-0.310	0.100	0.750
2020/01/31 11:53:22.0	300.830	-0.350	0.100	0.730
2020/01/31 11:53:22.1	300.820	-0.380	0.100	0.700
2020/01/31 11:53:22.2	300.800	-0.400	0.100	0.670
2020/01/31 11:53:22.3	300.780	-0.430	0.100	0.630
2020/01/31 11:53:22.4	300.770	-0.460	0.090	0.600
2020/01/31 11:53:22.5	300.750	-0.480	0.090	0.560
2020/01/31 11:53:22.6	300.740	-0.500	0.080	0.530
2020/01/31 11:53:22.7	300.720	-0.520	0.070	0.490
2020/01/31 11:53:22.8	300.710	-0.540	0.060	0.450
2020/01/31 11:53:22.9	300.700	-0.550	0.040	0.410
2020/01/31 11:53:23.0	300.680	-0.560	0.030	0.370
2020/01/31 11:53:23.1	300.670	-0.570	0.010	0.330
2020/01/31 11:53:23.2	300.660	-0.580	0.000	0.300
2020/01/31 11:53:23.3	300.650	-0.590	-0.020	0.260
2020/01/31 11:53:23.4	300.640	-0.590	-0.030	0.220
2020/01/31 11:53:23.5	300.630	-0.590	-0.050	0.180
2020/01/31 11:53:23.6	300.630	-0.590	-0.060	0.150
2020/01/31 11:53:23.7	300.620	-0.590	-0.080	0.110
2020/01/31 11:53:23.8	300.620	-0.580	-0.090	0.080
2020/01/31 11:53:23.9	300.610	-0.580	-0.110	0.050
2020/01/31 11:53:24.0	300.610	-0.570	-0.120	0.020
2020/01/31 11:53:24.1	300.610	-0.560	-0.130	-0.010
2020/01/31 11:53:24.2	300.610	-0.550	-0.140	-0.040
2020/01/31 11:53:24.3	300.610	-0.530	-0.150	-0.060
2020/01/31 11:53:24.4	300.610	-0.520	-0.160	-0.080
2020/01/31 11:53:24.5	300.610	-0.500	-0.170	-0.100
2020/01/31 11:53:24.6	300.610	-0.480	-0.180	-0.110
2020/01/31 11:53:24.7	300.620	-0.460	-0.180	-0.120
2020/01/31 11:53:24.8	300.620	-0.440	-0.180	-0.130
2020/01/31 11:53:24.9	300.620	-0.420	-0.180	-0.140
2020/01/31 11:53:25.0	300.630	-0.400	-0.180	-0.140
2020/01/31 11:53:25.1	300.630	-0.370	-0.180	-0.140
2020/01/31 11:53:25.2	300.640	-0.350	-0.180	-0.130
2020/01/31 11:53:25.3	300.650	-0.320	-0.170	-0.120
2020/01/31 11:53:25.4	300.650	-0.290	-0.160	-0.110
2020/01/31 11:53:25.5	300.650	-0.270	-0.160	-0.100
2020/01/31 11:53:25.6	300.660	-0.240	-0.150	-0.080
2020/01/31 11:53:25.7	300.660	-0.210	-0.140	-0.050
2020/01/31 11:53:25.8	300.670	-0.180	-0.130	-0.030
2020/01/31 11:53:25.9	300.670	-0.160	-0.120	0.000
2020/01/31 11:53:26.0	300.680	-0.130	-0.110	0.030
2020/01/31 11:53:26.1	300.680	-0.100	-0.100	0.070
2020/01/31 11:53:26.2	300.690	-0.070	-0.090	0.100
2020/01/31 11:53:26.3	300.690	-0.040	-0.080	0.140
2020/01/31 11:53:26.4	300.690	-0.020	-0.070	0.180
2020/01/31 11:53:26.5	300.700	0.010	-0.060	0.220
2020/01/31 11:53:26.6	300.700	0.040	-0.060	0.270
2020/01/31 11:53:26.7	300.700	0.060	-0.050	0.310
2020/01/31 11:53:26.8	300.710	0.090	-0.050	0.360
2020/01/31 11:53:26.9	300.710	0.120	-0.050	0.410
2020/01/31 11:53:27.0	300.710	0.140	-0.050	0.450
2020/01/31 11:53:27.1	300.710	0.170	-0.060	0.500
2020/01/31 11:53:27.2	300.710	0.190	-0.060	0.550
2020/01/31 11:53:27.3	300.720	0.210	-0.070	0.590
2020/01/31 11:53:27.4	300.720	0.230	-0.080	0.640
2020/01/31 11:53:27.5	300.720	0.260	-0.090	0.690
2020/01/31 11:53:27.6	300.720	0.280	-0.100	0.730
2020/01/31 11:53:27.7	300.720	0.300	-0.120	0.780
2020/01/31 11:53:27.8	300.720	0.320	-0.130	0.820
2020/01/31 11:53:27.9	300.720	0.330	-0.150	0.860
2020/01/31 11:53:28.0	300.720	0.350	-0.170	0.900
2020/01/31 11:53:28.1	300.720	0.370	-0.190	0.940
2020/01/31 11:53:28.2	300.720	0.380	-0.210	0.980
2020/01/31 11:53:28.3	300.720	0.390	-0.230	1.020
2020/01/31 11:53:28.4	300.720	0.410	-0.260	1.050
2020/01/31 11:53:28.5	300.710	0.420	-0.280	1.080
2020/01/31 11:53:28.6	300.710	0.430	-0.300	1.110
2020/01/31 11:53:28.7	300.710	0.440	-0.330	1.140
2020/01/31 11:53:28.8	300.710	0.440	-0.350	1.170
2020/01/31 11:53:28.9	300.710	0.450	-0.370	1.200
2020/01/31 11:53:29.0	300.710	0.460	-0.390	1.220
2020/01/31 11:53:29.1	300.710	0.460	-0.410	1.250
2020/01/31 11:53:29.2	300.710	0.460	-0.430	1.270
2020/01/31 11:53:29.3	300.710	0.460	-0.450	1.280
2020/01/31 11:53:29.4	300.710	0.460	-0.460	1.300
2020/01/31 11:53:29.5	300.710	0.460	-0.480	1.320
2020/01/31 11:53:29.6	300.710	0.460	-0.490	1.330
2020/01/31 11:53:29.7	300.700	0.460	-0.510	1.340
2020/01/31 11:53:29.8	300.700	0.450	-0.520	1.350
2020/01/31 11:53:29.9	300.700	0.450	-0.530	1.360
2020/01/31 11:53:30.0	300.700	0.440	-0.540	1.360
2020/01/31 11:53:30.1	300.700	0.440	-0.540	1.370
2020/01/31 11:53:30.2	300.700	0.430	-0.550	1.370
2020/01/31 11:53:30.3	300.700	0.420	-0.550	1.370
2020/01/31 11:53:30.4	300.700	0.410	-0.560	1.370
2020/01/31 11:53:30.5	300.700	0.400	-0.560	1.370
2020/01/31 11:53:30.6	300.700	0.380	-0.560	1.370
2020/01/31 11:53:30.7	300.700	0.370	-0.560	1.360
2020/01/31 11:53:30.8	300.700	0.360	-0.560	1.360
2020/01/31 11:53:30.9	300.700	0.340	-0.550	1.360
2020/01/31 11:53:31.0	300.700	0.330	-0.550	1.350
2020/01/31 11:53:31.1	300.700	0.310	-0.540	1.340
2020/01/31 11:53:31.2	300.700	0.300	-0.540	1.330
2020/01/31 11:53:31.3	300.700	0.280	-0.530	1.330
2020/01/31 11:53:31.4	300.700	0.270	-0.530	1.320
2020/01/31 11:53:31.5	300.700	0.250	-0.520	1.310
2020/01/31 11:53:31.6	300.700	0.230	-0.520	1.300
2020/01/31 11:53:31.7	300.700	0.220	-0.510	1.280
2020/01/31 11:53:31.8	300.700	0.200	-0.510	1.270
2020/01/31 11:53:31.9	300.700	0.180	-0.500	1.250
2020/01/31 11:53:32.0	300.700	0.160	-0.500	1.240
2020/01/31 11:53:32.1	300.700	0.150	-0.490	1.220
2020/01/31 11:53:32.2	300.690	0.130	-0.480	1.200
2020/01/31 11:53:32.3	300.690	0.110	-0.480	1.180
2020/01/31 11:53:32.4	300.690	0.100	-0.470	1.160
2020/01/31 11:53:32.5	300.700	0.080	-0.470	1.130
2020/01/31 11:53:32.6	300.690	0.060	-0.460	1.100
2020/01/31 11:53:32.7	300.690	0.050	-0.460	1.080
2020/01/31 11:53:32.8	300.680	0.030	-0.450	1.050
2020/01/31 11:53:32.9	300.680	0.010	-0.440	1.020
2020/01/31 11:53:33.0	300.680	-0.000	-0.440	0.980
2020/01/31 11:53:33.1	300.670	-0.020	-0.430	0.950
2020/01/31 11:53:33.2	300.670	-0.030	-0.430	0.910
2020/01/31 11:53:33.3	300.660	-0.050	-0.420	0.870
2020/01/31 11:53:33.4	300.660	-0.060	-0.410	0.830
2020/01/31 11:53:33.5	300.650	-0.080	-0.400	0.790
2020/01/31 11:53:33.6	300.650	-0.090	-0.390	0.750
2020/01/31 11:53:33.7	300.650	-0.110	-0.380	0.700
2020/01/31 11:53:33.8	300.640	-0.120	-0.370	0.660
2020/01/31 11:53:33.9	300.640	-0.140	-0.360	0.620
2020/01/31 11:53:34.0	300.630	-0.150	-0.350	0.570
2020/01/31 11:53:34.1	300.630	-0.160	-0.330	0.530
2020/01/31 11:53:34.2	300.620	-0.180	-0.320	0.480
2020/01/31 11:53:34.3	300.620	-0.190	-0.300	0.440
2020/01/31 11:53:34.4	300.620	-0.210	-0.280	0.390
2020/01/31 11:53:34.5	300.610	-0.220	-0.270	0.350
2020/01/31 11:53:34.6	300.610	-0.240	-0.250	0.310
2020/01/31 11:53:34.7	300.600	-0.250	-0.220	0.270
2020/01/31 11:53:34.8	300.600	-0.260	-0.200	0.230
2020/01/31 11:53:34.9	300.600	-0.280	-0.180	0.190
2020/01/31 11:53:35.0	300.600	-0.290	-0.150	0.150
2020/01/31 11:53:35.1	300.600	-0.300	-0.120	0.120
2020/01/31 11:53:35.2	300.590	-0.320	-0.100	0.080
2020/01/31 11:53:35.3	300.590	-0.330	-0.070	0.050
2020/01/31 11:53:35.4	300.590	-0.340	-0.040	0.020
2020/01/31 11:53:35.5	300.570	-0.350	-0.010	-0.000
2020/01/31 11:53:35.6	300.570	-0.360	0.010	-0.030
2020/01/31 11:53:35.7	300.570	-0.370	0.040	-0.050
2020/01/31 11:53:35.8	300.570	-0.380	0.060	-0.060
2020/01/31 11:53:35.9	300.570	-0.390	0.090	-0.080
2020/01/31 11:53:36.0	300.570	-0.390	0.110	-0.090
2020/01/31 11:53:36.1	300.570	-0.400	0.130	-0.100
2020/01/31 11:53:36.2	300.570	-0.400	0.150	-0.100
2020/01/31 11:53:36.3	300.570	-0.400	0.170	-0.100
2020/01/31 11:53:36.4	300.570	-0.400	0.190	-0.100
2020/01/31 11:53:36.5	300.560	-0.400	0.200	-0.100
2020/01/31 11:53:36.6	300.560	-0.400	0.210	-0.090
2020/01/31 11:53:36.7	300.560	-0.400	0.210	-0.080
2020/01/31 11:53:36.8	300.560	-0.390	0.220	-0.070
2020/01/31 11:53:36.9	300.560	-0.390	0.220	-0.050
2020/01/31 11:53:37.0	300.560	-0.380	0.220	-0.030
2020/01/31 11:53:37.1	300.570	-0.370	0.220	-0.010
2020/01/31 11:53:37.2	300.570	-0.360	0.210	0.010
2020/01/31 11:53:37.3	300.580	-0.350	0.200	0.030
2020/01/31 11:53:37.4	300.580	-0.330	0.190	0.060
2020/01/31 11:53:37.5	300.590	-0.320	0.180	0.090
2020/01/31 11:53:37.6	300.600	-0.300	0.160	0.110
2020/01/31 11:53:37.7	300.600	-0.280	0.140	0.140
2020/01/31 11:53:37.8	300.610	-0.260	0.120	0.170
2020/01/31 11:53:37.9	300.620	-0.240	0.100	0.200
2020/01/31 11:53:38.0	300.630	-0.220	0.080	0.230
2020/01/31 11:53:38.1	300.640	-0.200	0.050	0.270
2020/01/31 11:53:38.2	300.650	-0.170	0.030	0.300
2020/01/31 11:53:38.3	300.660	-0.150	0.000	0.330
2020/01/31 11:53:38.4	300.670	-0.120	-0.020	0.370
2020/01/31 11:53:38.5	300.690	-0.090	-0.050	0.410
2020/01/31 11:53:38.6	300.700	-0.070	-0.080	0.450
2020/01/31 11:53:38.7	300.710	-0.040	-0.110	0.480
2020/01/31 11:53:38.8	300.720	-0.010	-0.140	0.520
2020/01/31 11:53:38.9	300.730	0.010	-0.170	0.550
2020/01/31 11:53:39.0	300.750	0.040	-0.190	0.590
2020/01/31 11:53:39.1	300.760	0.070	-0.220	0.620
2020/01/31 11:53:39.2	300.770	0.090	-0.250	0.660
2020/01/31 11:53:39.3	300.790	0.120	-0.280	0.690
2020/01/31 11:53:39.4	300.800	0.140	-0.300	0.720
2020/01/31 11:53:39.5	300.820	0.170	-0.330	0.750
2020/01/31 11:53:39.6	300.840	0.190	-0.350	0.770
2020/01/31 11:53:39.7	300.860	0.210	-0.380	0.800
2020/01/31 11:53:39.8	300.880	0.230	-0.400	0.820
2020/01/31 11:53:39.9	300.900	0.250	-0.420	0.850
2020/01/31 11:53:40.0	300.910	0.260	-0.440	0.870
2020/01/31 11:53:40.1	300.930	0.280	-0.450	0.890
2020/01/31 11:53:40.2	300.950	0.290	-0.470	0.900
2020/01/31 11:53:40.3	300.970	0.300	-0.480	0.920
2020/01/31 11:53:40.4	300.990	0.310	-0.490	0.940
2020/01/31 11:53:40.5	301.000	0.320	-0.490	0.950
2020/01/31 11:53:40.6	301.020	0.330	-0.490	0.970
2020/01/31 11:53:40.7	301.030	0.330	-0.490	0.980
2020/01/31 11:53:40.8	301.040	0.340	-0.480	1.000
2020/01/31 11:53:40.9	301.050	0.340	-0.480	1.010
2020/01/31 11:53:41.0	301.060	0.340	-0.460	1.020
2020/01/31 11:53:41.1	301.060	0.330	-0.450	1.030
2020/01/31 11:53:41.2	301.070	0.330	-0.430	1.050
2020/01/31 11:53:41.3	301.070	0.320	-0.410	1.060
2020/01/31 11:53:41.4	301.070	0.320	-0.390	1.070
2020/01/31 11:53:41.5	301.070	0.310	-0.370	1.080
2020/01/31 11:53:41.6	301.060	0.300	-0.340	1.090
2020/01/31 11:53:41.7	301.060	0.290	-0.320	1.100
2020/01/31 11:53:41.8	301.050	0.280	-0.290	1.100
2020/01/31 11:53:41.9	301.040	0.270	-0.260	1.110
2020/01/31 11:53:42.0	301.030	0.250	-0.230	1.120
2020/01/31 11:53:42.1	301.020	0.240	-0.200	1.120
2020/01/31 11:53:42.2	301.000	0.230	-0.180	1.130
2020/01/31 11:53:42.3	300.990	0.220	-0.150	1.130
2020/01/31 11:53:42.4	300.970	0.200	-0.120	1.130
2020/01/31 11:53:42.5	300.960	0.190	-0.100	1.130
2020/01/31 11:53:42.6	300.950	0.180	-0.080	1.130
2020/01/31 11:53:42.7	300.930	0.170	-0.060	1.130
2020/01/31 11:53:42.8	300.910	0.160	-0.050	1.120
2020/01/31 11:53:42.9	300.890	0.150	-0.030	1.110
2020/01/31 11:53:43.0	300.880	0.140	-0.020	1.100
2020/01/31 11:53:43.1	300.860	0.140	-0.020	1.090
2020/01/31 11:53:43.2	300.840	0.130	-0.010	1.080
2020/01/31 11:53:43.3	300.820	0.120	-0.020	1.060
2020/01/31 11:53:43.4	300.810	0.120	-0.020	1.050
2020/01/31 11:53:43.5	300.790	0.120	-0.030	1.030
2020/01/31 11:53:43.6	300.770	0.120	-0.040	1.010
2020/01/31 11:53:43.7	300.760	0.120	-0.050	0.990
2020/01/31 11:53:43.8	300.740	0.120	-0.070	0.960
2020/01/31 11:53:43.9	300.720	0.120	-0.100	0.940
2020/01/31 11:53:44.0	300.700	0.120	-0.120	0.920
2020/01/31 11:53:44.1	300.680	0.130	-0.150	0.890
2020/01/31 11:53:44.2	300.660	0.130	-0.180	0.870
2020/01/31 11:53:44.3	300.650	0.140	-0.210	0.840
2020/01/31 11:53:44.4	300.630	0.140	-0.250	0.810
2020/01/31 11:53:44.5	300.610	0.150	-0.280	0.780
2020/01/31 11:53:44.6	300.590	0.150	-0.320	0.750
2020/01/31 11:53:44.7	300.570	0.160	-0.360	0.720
2020/01/31 11:53:44.8	300.560	0.170	-0.410	0.690
2020/01/31 11:53:44.9	300.540	0.180	-0.450	0.660
2020/01/31 11:53:45.0	300.520	0.190	-0.490	0.620
2020/01/31 11:53:45.1	300.510	0.190	-0.530	0.590
2020/01/31 11:53:45.2	300.490	0.200	-0.580	0.550
2020/01/31 11:53:45.3	300.480	0.210	-0.620	0.510
2020/01/31 11:53:45.4	300.470	0.210	-0.670	0.480
2020/01/31 11:53:45.5	300.450	0.220	-0.710	0.440
2020/01/31 11:53:45.6	300.440	0.230	-0.750	0.400
2020/01/31 11:53:45.7	300.440	0.230	-0.790	0.360
2020/01/31 11:53:45.8	300.430	0.240	-0.830	0.320
2020/01/31 11:53:45.9	300.430	0.240	-0.860	0.280
2020/01/31 11:53:46.0	300.420	0.240	-0.900	0.240
2020/01/31 11:53:46.1	300.420	0.240	-0.930	0.200
2020/01/31 11:53:46.2	300.420	0.250	-0.950	0.160
2020/01/31 11:53:46.3	300.430	0.240	-0.980	0.120
2020/01/31 11:53:46.4	300.430	0.240	-1.000	0.080
2020/01/31 11:53:46.5	300.430	0.240	-1.020	0.040
2020/01/31 11:53:46.6	300.440	0.230	-1.030	0.010
2020/01/31 11:53:46.7	300.450	0.230	-1.040	-0.030
2020/01/31 11:53:46.8	300.470	0.220	-1.040	-0.060
2020/01/31 11:53:46.9	300.480	0.210	-1.040	-0.090
2020/01/31 11:53:47.0	300.500	0.200	-1.040	-0.120
2020/01/31 11:53:47.1	300.520	0.180	-1.020	-0.150
2020/01/31 11:53:47.2	300.540	0.170	-1.010	-0.170
2020/01/31 11:53:47.3	300.560	0.150	-0.990	-0.190
2020/01/31 11:53:47.4	300.580	0.140	-0.970	-0.220
2020/01/31 11:53:47.5	300.600	0.120	-0.940	-0.230
2020/01/31 11:53:47.6	300.630	0.100	-0.910	-0.250
2020/01/31 11:53:47.7	300.650	0.070	-0.870	-0.260
2020/01/31 11:53:47.8	300.680	0.050	-0.830	-0.270
2020/01/31 11:53:47.9	300.710	0.030	-0.780	-0.280
2020/01/31 11:53:48.0	300.730	-0.000	-0.730	-0.280
2020/01/31 11:53:48.1	300.760	-0.030	-0.670	-0.280
2020/01/31 11:53:48.2	300.780	-0.060	-0.610	-0.280
2020/01/31 11:53:48.3	300.800	-0.090	-0.550	-0.270
2020/01/31 11:53:48.4	300.830	-0.120	-0.490	-0.260
2020/01/31 11:53:48.5	300.850	-0.150	-0.420	-0.240
2020/01/31 11:53:48.6	300.870	-0.180	-0.350	-0.220
2020/01/31 11:53:48.7	300.890	-0.210	-0.270	-0.190
2020/01/31 11:53:48.8	300.900	-0.240	-0.200	-0.170
2020/01/31 11:53:48.9	300.920	-0.270	-0.120	-0.140
2020/01/31 11:53:49.0	300.930	-0.300	-0.050	-0.100
2020/01/31 11:53:49.1	300.940	-0.330	0.030	-0.070
2020/01/31 11:53:49.2	300.940	-0.370	0.100	-0.030
2020/01/31 11:53:49.3	300.950	-0.390	0.180	0.000
2020/01/31 11:53:49.4	300.950	-0.420	0.250	0.040
2020/01/31 11:53:49.5	300.950	-0.450	0.320	0.080
2020/01/31 11:53:49.6	300.950	-0.480	0.390	0.120
2020/01/31 11:53:49.7	300.950	-0.500	0.450	0.160
2020/01/31 11:53:49.8	300.950	-0.520	0.510	0.200
2020/01/31 11:53:49.9	300.940	-0.550	0.570	0.240
2020/01/31 11:53:50.0	300.940	-0.560	0.620	0.280
2020/01/31 11:53:50.1	300.930	-0.580	0.660	0.320
2020/01/31 11:53:50.2	300.930	-0.590	0.700	0.360
2020/01/31 11:53:50.3	300.920	-0.600	0.740	0.400
2020/01/31 11:53:50.4	300.910	-0.610	0.770	0.430
2020/01/31 11:53:50.5	300.900	-0.620	0.790	0.470
2020/01/31 11:53:50.6	300.890	-0.620	0.800	0.500
2020/01/31 11:53:50.7	300.880	-0.620	0.820	0.530
2020/01/31 11:53:50.8	300.870	-0.610	0.820	0.570
2020/01/31 11:53:50.9	300.850	-0.600	0.820	0.600
2020/01/31 11:53:51.0	300.840	-0.590	0.820	0.630
2020/01/31 11:53:51.1	300.830	-0.580	0.810	0.660
2020/01/31 11:53:51.2	300.810	-0.560	0.790	0.680
2020/01/31 11:53:51.3	300.800	-0.540	0.770	0.710
2020/01/31 11:53:51.4	300.780	-0.520	0.750	0.740
2020/01/31 11:53:51.5	300.770	-0.490	0.720	0.770
2020/01/31 11:53:51.6	300.750	-0.460	0.690	0.790
2020/01/31 11:53:51.7	300.740	-0.430	0.650	0.820
2020/01/31 11:53:51.8	300.720	-0.400	0.610	0.840
2020/01/31 11:53:51.9	300.700	-0.370	0.570	0.870
2020/01/31 11:53:52.0	300.680	-0.330	0.530	0.890
2020/01/31 11:53:52.1	300.660	-0.290	0.490	0.920
2020/01/31 11:53:52.2	300.650	-0.250	0.440	0.940
2020/01/31 11:53:52.3	300.630	-0.210	0.390	0.960
2020/01/31 11:53:52.4	300.610	-0.170	0.350	0.980
2020/01/31 11:53:52.5	300.580	-0.130	0.290	0.990
2020/01/31 11:53:52.6	300.560	-0.090	0.250	1.010
2020/01/31 11:53:52.7	300.550	-0.040	0.200	1.020
2020/01/31 11:53:52.8	300.530	-0.000	0.150	1.030
2020/01/31 11:53:52.9	300.520	0.040	0.100	1.040
2020/01/31 11:53:53.0	300.500	0.080	0.050	1.050
2020/01/31 11:53:53.1	300.490	0.120	0.010	1.050
2020/01/31 11:53:53.2	300.470	0.160	-0.040	1.050
2020/01/31 11:53:53.3	300.460	0.200	-0.080	1.050
2020/01/31 11:53:53.4	300.450	0.230	-0.130	1.050
2020/01/31 11:53:53.5	300.430	0.260	-0.170	1.040
2020/01/31 11:53:53.6	300.420	0.290	-0.210	1.030
2020/01/31 11:53:53.7	300.410	0.320	-0.250	1.020
2020/01/31 11:53:53.8	300.400	0.350	-0.280	1.010
2020/01/31 11:53:53.9	300.390	0.370	-0.320	0.990
2020/01/31 11:53:54.0	300.380	0.390	-0.350	0.970
2020/01/31 11:53:54.1	300.370	0.410	-0.390	0.960
2020/01/31 11:53:54.2	300.360	0.430	-0.420	0.940
2020/01/31 11:53:54.3	300.350	0.440	-0.450	0.910
2020/01/31 11:53:54.4	300.340	0.450	-0.470	0.890
2020/01/31 11:53:54.5	300.330	0.450	-0.500	0.870
2020/01/31 11:53:54.6	300.320	0.460	-0.530	0.850
2020/01/31 11:53:54.7	300.310	0.460	-0.550	0.820
2020/01/31 11:53:54.8	300.310	0.460	-0.580	0.790
2020/01/31 11:53:54.9	300.300	0.450	-0.600	0.770
2020/01/31 11:53:55.0	300.290	0.440	-0.620	0.740
2020/01/31 11:53:55.1	300.280	0.430	-0.640	0.720
2020/01/31 11:53:55.2	300.280	0.420	-0.660	0.690
2020/01/31 11:53:55.3	300.270	0.410	-0.680	0.660
2020/01/31 11:53:55.4	300.260	0.390	-0.700	0.640
2020/01/31 11:53:55.5	300.260	0.370	-0.720	0.610
2020/01/31 11:53:55.6	300.260	0.350	-0.740	0.590
2020/01/31 11:53:55.7	300.260	0.330	-0.750	0.560
2020/01/31 11:53:55.8	300.250	0.310	-0.770	0.540
2020/01/31 11:53:55.9	300.250	0.290	-0.790	0.520
2020/01/31 11:53:56.0	300.250	0.270	-0.800	0.490
2020/01/31 11:53:56.1	300.250	0.250	-0.820	0.470
2020/01/31 11:53:56.2	300.250	0.230	-0.840	0.450
2020/01/31 11:53:56.3	300.250	0.210	-0.850	0.420
2020/01/31 11:53:56.4	300.250	0.180	-0.870	0.400
2020/01/31 11:53:56.5	300.250	0.160	-0.880	0.380
2020/01/31 11:53:56.6	300.250	0.140	-0.900	0.360
2020/01/31 11:53:56.7	300.260	0.130	-0.910	0.340
2020/01/31 11:53:56.8	300.260	0.110	-0.920	0.320
2020/01/31 11:53:56.9	300.270	0.090	-0.930	0.300
2020/01/31 11:53:57.0	300.280	0.080	-0.950	0.290
2020/01/31 11:53:57.1	300.280	0.060	-0.960	0.270
2020/01/31 11:53:57.2	300.290	0.050	-0.970	0.250
2020/01/31 11:53:57.3	300.300	0.040	-0.970	0.240
2020/01/31 11:53:57.4	300.310	0.030	-0.980	0.230
2020/01/31 11:53:57.5	300.310	0.020	-0.990	0.220
2020/01/31 11:53:57.6	300.320	0.010	-0.990	0.210
2020/01/31 11:53:57.7	300.340	0.000	-0.990	0.200
2020/01/31 11:53:57.8	300.350	0.000	-1.000	0.190
2020/01/31 11:53:57.9	300.360	-0.000	-1.000	0.190
2020/01/31 11:53:58.0	300.380	-0.000	-0.990	0.180
2020/01/31 11:53:58.1	300.390	-0.010	-0.990	0.180
2020/01/31 11:53:58.2	300.410	-0.000	-0.980	0.180
2020/01/31 11:53:58.3	300.420	-0.000	-0.970	0.190
2020/01/31 11:53:58.4	300.440	-0.000	-0.960	0.190
2020/01/31 11:53:58.5	300.460	0.000	-0.950	0.200
2020/01/31 11:53:58.6	300.470	0.000	-0.930	0.210
2020/01/31 11:53:58.7	300.490	0.010	-0.910	0.220
2020/01/31 11:53:58.8	300.500	0.010	-0.890	0.240
2020/01/31 11:53:58.9	300.520	0.020	-0.870	0.250
2020/01/31 11:53:59.0	300.540	0.020	-0.850	0.270
2020/01/31 11:53:59.1	300.550	0.030	-0.820	0.290
2020/01/31 11:53:59.2	300.570	0.030	-0.790	0.310
2020/01/31 11:53:59.3	300.590	0.040	-0.760	0.330
2020/01/31 11:53:59.4	300.610	0.040	-0.720	0.350
2020/01/31 11:53:59.5	300.630	0.050	-0.690	0.370
2020/01/31 11:53:59.6	300.650	0.050	-0.650	0.400
2020/01/31 11:53:59.7	300.670	0.050	-0.600	0.420
2020/01/31 11:53:59.8	300.690	0.050	-0.560	0.440
2020/01/31 11:53:59.9	300.700	0.050	-0.520	0.460
2020/01/31 11:54:00.0	300.720	0.060	-0.470	0.480
2020/01/31 11:54:00.1	300.740	0.050	-0.420	0.510
2020/01/31 11:54:00.2	300.750	0.050	-0.370	0.530
2020/01/31 11:54:00.3	300.770	0.050	-0.310	0.550
2020/01/31 11:54:00.4	300.780	0.050	-0.260	0.570
2020/01/31 11:54:00.5	300.800	0.040	-0.200	0.600
2020/01/31 11:54:00.6	300.810	0.040	-0.140	0.620
2020/01/31 11:54:00.7	300.820	0.030	-0.080	0.640
2020/01/31 11:54:00.8	300.830	0.020	-0.020	0.660
2020/01/31 11:54:00.9	300.830	0.010	0.040	0.680
2020/01/31 11:54:01.0	300.830	0.000	0.100	0.700
2020/01/31 11:54:01.1	300.840	-0.010	0.160	0.720
2020/01/31 11:54:01.2	300.840	-0.020	0.220	0.740
2020/01/31 11:54:01.3	300.830	-0.030	0.280	0.760
2020/01/31 11:54:01.4	300.830	-0.050	0.340	0.780
2020/01/31 11:54:01.5	300.820	-0.060	0.400	0.800
2020/01/31 11:54:01.6	300.810	-0.080	0.460	0.810
2020/01/31 11:54:01.7	300.800	-0.090	0.510	0.830
2020/01/31 11:54:01.8	300.790	-0.110	0.560	0.840
2020/01/31 11:54:01.9	300.780	-0.120	0.610	0.860
2020/01/31 11:54:02.0	300.760	-0.140	0.650	0.870
2020/01/31 11:54:02.1	300.750	-0.160	0.690	0.870
2020/01/31 11:54:02.2	300.730	-0.170	0.730	0.880
2020/01/31 11:54:02.3	300.710	-0.190	0.760	0.880
2020/01/31 11:54:02.4	300.700	-0.200	0.790	0.880
2020/01/31 11:54:02.5	300.680	-0.220	0.810	0.880
2020/01/31 11:54:02.6	300.660	-0.230	0.830	0.870
2020/01/31 11:54:02.7	300.640	-0.240	0.840	0.860
2020/01/31 11:54:02.8	300.620	-0.250	0.850	0.850
2020/01/31 11:54:02.9	300.610	-0.260	0.850	0.830
2020/01/31 11:54:03.0	300.590	-0.270	0.840	0.820
2020/01/31 11:54:03.1	300.580	-0.280	0.840	0.790
2020/01/31 11:54:03.2	300.560	-0.290	0.820	0.770
2020/01/31 11:54:03.3	300.550	-0.290	0.800	0.750
2020/01/31 11:54:03.4	300.540	-0.290	0.780	0.720
2020/01/31 11:54:03.5	300.530	-0.300	0.750	0.680
2020/01/31 11:54:03.6	300.510	-0.300	0.720	0.650
2020/01/31 11:54:03.7	300.500	-0.290	0.690	0.620
2020/01/31 11:54:03.8	300.490	-0.290	0.650	0.590
2020/01/31 11:54:03.9	300.480	-0.290	0.610	0.550
2020/01/31 11:54:04.0	300.470	-0.280	0.560	0.520
2020/01/31 11:54:04.1	300.460	-0.270	0.520	0.490
2020/01/31 11:54:04.2	300.460	-0.260	0.470	0.450
2020/01/31 11:54:04.3	300.450	-0.250	0.420	0.420
2020/01/31 11:54:04.4	300.440	-0.230	0.370	0.380
2020/01/31 11:54:04.5	300.440	-0.220	0.310	0.350
2020/01/31 11:54:04.6	300.440	-0.200	0.260	0.320
2020/01/31 11:54:04.7	300.430	-0.180	0.200	0.290
2020/01/31 11:54:04.8	300.430	-0.170	0.150	0.260
2020/01/31 11:54:04.9	300.430	-0.150	0.090	0.230
2020/01/31 11:54:05.0	300.430	-0.120	0.030	0.210
2020/01/31 11:54:05.1	300.430	-0.100	-0.020	0.190
2020/01/31 11:54:05.2	300.430	-0.080	-0.080	0.160
2020/01/31 11:54:05.3	300.430	-0.050	-0.130	0.150
2020/01/31 11:54:05.4	300.430	-0.030	-0.180	0.130
2020/01/31 11:54:05.5	300.430	-0.000	-0.240	0.110
2020/01/31 11:54:05.6	300.430	0.030	-0.290	0.100
2020/01/31 11:54:05.7	300.440	0.050	-0.340	0.090
2020/01/31 11:54:05.8	300.440	0.080	-0.390	0.090
2020/01/31 11:54:05.9	300.440	0.110	-0.430	0.080
2020/01/31 11:54:06.0	300.450	0.130	-0.470	0.080
2020/01/31 11:54:06.1	300.450	0.160	-0.510	0.080
2020/01/31 11:54:06.2	300.460	0.180	-0.550	0.090
2020/01/31 11:54:06.3	300.460	0.210	-0.590	0.100
2020/01/31 11:54:06.4	300.460	0.230	-0.620	0.110
2020/01/31 11:54:06.5	300.460	0.260	-0.650	0.130
2020/01/31 11:54:06.6	300.460	0.280	-0.680	0.150
2020/01/31 11:54:06.7	300.470	0.300	-0.710	0.170
2020/01/31 11:54:06.8	300.470	0.320	-0.730	0.190
2020/01/31 11:54:06.9	300.470	0.340	-0.750	0.210
2020/01/31 11:54:07.0	300.480	0.360	-0.770	0.240
2020/01/31 11:54:07.1	300.480	0.370	-0.790	0.280
2020/01/31 11:54:07.2	300.480	0.380	-0.810	0.310
2020/01/31 11:54:07.3	300.480	0.400	-0.820	0.350
2020/01/31 11:54:07.4	300.490	0.410	-0.830	0.380
2020/01/31 11:54:07.5	300.490	0.410	-0.840	0.420
2020/01/31 11:54:07.6	300.490	0.420	-0.850	0.460
2020/01/31 11:54:07.7	300.490	0.420	-0.850	0.500
2020/01/31 11:54:07.8	300.490	0.420	-0.850	0.540
2020/01/31 11:54:07.9	300.500	0.420	-0.850	0.580
2020/01/31 11:54:08.0	300.500	0.420	-0.850	0.630
2020/01/31 11:54:08.1	300.500	0.420	-0.850	0.670
2020/01/31 11:54:08.2	300.500	0.410	-0.850	0.710
2020/01/31 11:54:08.3	300.510	0.400	-0.840	0.750
2020/01/31 11:54:08.4	300.510	0.390	-0.840	0.780
2020/01/31 11:54:08.5	300.520	0.370	-0.830	0.820
2020/01/31 11:54:08.6	300.520	0.360	-0.820	0.860
2020/01/31 11:54:08.7	300.530	0.340	-0.820	0.890
2020/01/31 11:54:08.8	300.540	0.320	-0.810	0.920
2020/01/31 11:54:08.9	300.540	0.300	-0.800	0.940
2020/01/31 11:54:09.0	300.550	0.280	-0.790	0.960
2020/01/31 11:54:09.1	300.560	0.250	-0.780	0.980
2020/01/31 11:54:09.2	300.570	0.230	-0.770	1.000
2020/01/31 11:54:09.3	300.570	0.200	-0.760	1.010
2020/01/31 11:54:09.4	300.580	0.170	-0.750	1.020
2020/01/31 11:54:09.5	300.600	0.150	-0.740	1.020
2020/01/31 11:54:09.6	300.610	0.120	-0.730	1.020
2020/01/31 11:54:09.7	300.620	0.090	-0.720	1.020
2020/01/31 11:54:09.8	300.630	0.060	-0.710	1.010
2020/01/31 11:54:09.9	300.640	0.030	-0.690	1.000
2020/01/31 11:54:10.0	300.650	-0.010	-0.680	0.980
2020/01/31 11:54:10.1	300.660	-0.040	-0.670	0.960
2020/01/31 11:54:10.2	300.670	-0.070	-0.650	0.940
2020/01/31 11:54:10.3	300.690	-0.100	-0.640	0.920
2020/01/31 11:54:10.4	300.700	-0.130	-0.620	0.900
2020/01/31 11:54:10.5	300.710	-0.150	-0.600	0.870
2020/01/31 11:54:10.6	300.720	-0.180	-0.580	0.840
2020/01/31 11:54:10.7	300.740	-0.210	-0.560	0.810
2020/01/31 11:54:10.8	300.750	-0.240	-0.540	0.780
2020/01/31 11:54:10.9	300.770	-0.260	-0.520	0.750
2020/01/31 11:54:11.0	300.780	-0.280	-0.500	0.720
2020/01/31 11:54:11.1	300.790	-0.310	-0.480	0.680
2020/01/31 11:54:11.2	300.810	-0.330	-0.450	0.650
2020/01/31 11:54:11.3	300.820	-0.350	-0.430	0.610
2020/01/31 11:54:11.4	300.840	-0.360	-0.400	0.580
2020/01/31 11:54:11.5	300.850	-0.380	-0.380	0.540
2020/01/31 11:54:11.6	300.860	-0.390	-0.350	0.510
2020/01/31 11:54:11.7	300.870	-0.410	-0.330	0.470
2020/01/31 11:54:11.8	300.890	-0.420	-0.300	0.440
2020/01/31 11:54:11.9	300.900	-0.430	-0.280	0.400
2020/01/31 11:54:12.0	300.910	-0.440	-0.250	0.370
2020/01/31 11:54:12.1	300.920	-0.440	-0.230	0.330
2020/01/31 11:54:12.2	300.940	-0.450	-0.210	0.300
2020/01/31 11:54:12.3	300.950	-0.450	-0.180	0.270
2020/01/31 11:54:12.4	300.960	-0.450	-0.160	0.240
2020/01/31 11:54:12.5	300.970	-0.450	-0.140	0.200
2020/01/31 11:54:12.6	300.990	-0.450	-0.120	0.180
2020/01/31 11:54:12.7	301.000	-0.450	-0.100	0.150
2020/01/31 11:54:12.8	301.010	-0.450	-0.080	0.130
2020/01/31 11:54:12.9	301.020	-0.440	-0.070	0.100
2020/01/31 11:54:13.0	301.030	-0.430	-0.050	0.080
2020/01/31 11:54:13.1	301.030	-0.430	-0.030	0.070
2020/01/31 11:54:13.2	301.040	-0.420	-0.010	0.050
2020/01/31 11:54:13.3	301.050	-0.410	0.000	0.040
2020/01/31 11:54:13.4	301.050	-0.390	0.020	0.040
2020/01/31 11:54:13.5	301.050	-0.380	0.030	0.030
2020/01/31 11:54:13.6	301.050	-0.370	0.050	0.030
2020/01/31 11:54:13.7	301.050	-0.360	0.070	0.030
2020/01/31 11:54:13.8	301.050	-0.340	0.080	0.040
2020/01/31 11:54:13.9	301.050	-0.330	0.100	0.050
2020/01/31 11:54:14.0	301.040	-0.310	0.120	0.060
2020/01/31 11:54:14.1	301.040	-0.300	0.130	0.080
2020/01/31 11:54:14.2	301.030	-0.280	0.150	0.100
2020/01/31 11:54:14.3	301.020	-0.270	0.170	0.120
2020/01/31 11:54:14.4	301.020	-0.250	0.190	0.140
2020/01/31 11:54:14.5	301.000	-0.240	0.210	0.160
2020/01/31 11:54:14.6	300.990	-0.220	0.230	0.190
2020/01/31 11:54:14.7	300.980	-0.210	0.250	0.220
2020/01/31 11:54:14.8	300.970	-0.190	0.270	0.250
2020/01/31 11:54:14.9	300.960	-0.180	0.290	0.280
2020/01/31 11:54:15.0	300.950	-0.160	0.300	0.310
2020/01/31 11:54:15.1	300.940	-0.150	0.320	0.340
2020/01/31 11:54:15.2	300.920	-0.130	0.340	0.370
2020/01/31 11:54:15.3	300.910	-0.110	0.360	0.410
2020/01/31 11:54:15.4	300.900	-0.100	0.370	0.440
2020/01/31 11:54:15.5	300.890	-0.080	0.380	0.480
2020/01/31 11:54:15.6	300.880	-0.060	0.390	0.510
2020/01/31 11:54:15.7	300.870	-0.040	0.400	0.550
2020/01/31 11:54:15.8	300.860	-0.030	0.410	0.580
2020/01/31 11:54:15.9	300.860	-0.010	0.410	0.620
2020/01/31 11:54:16.0	300.850	0.010	0.410	0.650
2020/01/31 11:54:16.1	300.840	0.030	0.410	0.690
2020/01/31 11:54:16.2	300.840	0.060	0.400	0.720
2020/01/31 11:54:16.3	300.830	0.080	0.390	0.750
2020/01/31 11:54:16.4	300.830	0.100	0.370	0.790
2020/01/31 11:54:16.5	300.840	0.130	0.360	0.810
2020/01/31 11:54:16.6	300.840	0.150	0.330	0.840
2020/01/31 11:54:16.7	300.840	0.180	0.310	0.870
2020/01/31 11:54:16.8	300.840	0.210	0.270	0.890
2020/01/31 11:54:16.9	300.850	0.240	0.240	0.910
2020/01/31 11:54:17.0	300.860	0.270	0.200	0.940
2020/01/31 11:54:17.1	300.870	0.300	0.160	0.950
2020/01/31 11:54:17.2	300.880	0.330	0.110	0.970
2020/01/31 11:54:17.3	300.890	0.360	0.060	0.990
2020/01/31 11:54:17.4	300.910	0.390	0.010	1.000
2020/01/31 11:54:17.5	300.920	0.420	-0.040	1.010
2020/01/31 11:54:17.6	300.940	0.460	-0.100	1.020
2020/01/31 11:54:17.7	300.960	0.490	-0.160	1.020
2020/01/31 11:54:17.8	300.980	0.520	-0.220	1.030
2020/01/31 11:54:17.9	301.000	0.550	-0.280	1.030
2020/01/31 11:54:18.0	301.020	0.580	-0.340	1.030
2020/01/31 11:54:18.1	301.040	0.620	-0.400	1.040
2020/01/31 11:54:18.2	301.060	0.640	-0.450	1.040
2020/01/31 11:54:18.3	301.080	0.670	-0.510	1.030
2020/01/31 11:54:18.4	301.100	0.700	-0.560	1.030
2020/01/31 11:54:18.5	301.130	0.720	-0.620	1.030
2020/01/31 11:54:18.6	301.150	0.740	-0.660	1.030
2020/01/31 11:54:18.7	301.170	0.760	-0.710	1.030
2020/01/31 11:54:18.8	301.190	0.780	-0.750	1.020
2020/01/31 11:54:18.9	301.210	0.790	-0.780	1.020
2020/01/31 11:54:19.0	301.230	0.800	-0.810	1.010
2020/01/31 11:54:19.1	301.250	0.810	-0.840	1.000
2020/01/31 11:54:19.2	301.260	0.820	-0.860	1.000
2020/01/31 11:54:19.3	301.280	0.820	-0.880	0.990
2020/01/31 11:54:19.4	301.290	0.810	-0.890	0.970
2020/01/31 11:54:19.5	301.300	0.810	-0.900	0.970
2020/01/31 11:54:19.6	301.310	0.800	-0.900	0.950
2020/01/31 11:54:19.7	301.320	0.780	-0.900	0.930
2020/01/31 11:54:19.8	301.330	0.770	-0.900	0.920
2020/01/31 11:54:19.9	301.340	0.740	-0.890	0.900
2020/01/31 11:54:20.0	301.350	0.720	-0.880	0.870
2020/01/31 11:54:20.1	301.360	0.690	-0.860	0.850
2020/01/31 11:54:20.2	301.370	0.660	-0.840	0.830
2020/01/31 11:54:20.3	301.380	0.620	-0.820	0.800
2020/01/31 11:54:20.4	301.380	0.580	-0.800	0.770
2020/01/31 11:54:20.5	301.390	0.540	-0.770	0.740
2020/01/31 11:54:20.6	301.390	0.490	-0.740	0.710
2020/01/31 11:54:20.7	301.400	0.450	-0.710	0.680
2020/01/31 11:54:20.8	301.410	0.400	-0.680	0.640
2020/01/31 11:54:20.9	301.410	0.340	-0.650	0.610
2020/01/31 11:54:21.0	301.420	0.290	-0.610	0.570
2020/01/31 11:54:21.1	301.420	0.230	-0.580	0.530
2020/01/31 11:54:21.2	301.430	0.170	-0.540	0.490
2020/01/31 11:54:21.3	301.430	0.110	-0.510	0.450
2020/01/31 11:54:21.4	301.440	0.050	-0.470	0.410
2020/01/31 11:54:21.5	301.450	-0.010	-0.440	0.370
2020/01/31 11:54:21.6	301.450	-0.080	-0.410	0.330
2020/01/31 11:54:21.7	301.460	-0.140	-0.370	0.280
2020/01/31 11:54:21.8	301.460	-0.200	-0.340	0.240
2020/01/31 11:54:21.9	301.470	-0.270	-0.310	0.190
2020/01/31 11:54:22.0	301.470	-0.330	-0.290	0.150
2020/01/31 11:54:22.1	301.480	-0.390	-0.260	0.100
2020/01/31 11:54:22.2	301.480	-0.450	-0.240	0.050
2020/01/31 11:54:22.3	301.480	-0.500	-0.210	0.010
2020/01/31 11:54:22.4	301.480	-0.560	-0.190	-0.040
2020/01/31 11:54:22.5	301.480	-0.610	-0.170	-0.090
2020/01/31 11:54:22.6	301.480	-0.670	-0.150	-0.130
2020/01/31 11:54:22.7	301.480	-0.710	-0.140	-0.180
2020/01/31 11:54:22.8	301.480	-0.760	-0.120	-0.220
2020/01/31 11:54:22.9	301.480	-0.800	-0.110	-0.270
2020/01/31 11:54:23.0	301.480	-0.840	-0.100	-0.310
2020/01/31 11:54:23.1	301.480	-0.880	-0.090	-0.350
2020/01/31 11:54:23.2	301.480	-0.910	-0.080	-0.390
2020/01/31 11:54:23.3	301.470	-0.940	-0.070	-0.430
2020/01/31 11:54:23.4	301.470	-0.960	-0.060	-0.460
2020/01/31 11:54:23.5	301.450	-0.990	-0.050	-0.490
2020/01/31 11:54:23.6	301.440	-1.000	-0.050	-0.530
2020/01/31 11:54:23.7	301.430	-1.010	-0.040	-0.550
2020/01/31 11:54:23.8	301.420	-1.020	-0.040	-0.580
2020/01/31 11:54:23.9	301.420	-1.030	-0.040	-0.600
2020/01/31 11:54:24.0	301.400	-1.030	-0.040	-0.620
2020/01/31 11:54:24.1	301.390	-1.020	-0.040	-0.630
2020/01/31 11:54:24.2	301.380	-1.010	-0.040	-0.640
2020/01/31 11:54:24.3	301.370	-1.000	-0.040	-0.650
2020/01/31 11:54:24.4	301.360	-0.990	-0.040	-0.660
2020/01/31 11:54:24.5	301.360	-0.970	-0.050	-0.650
2020/01/31 11:54:24.6	301.340	-0.940	-0.050	-0.650
2020/01/31 11:54:24.7	301.330	-0.920	-0.050	-0.640
2020/01/31 11:54:24.8	301.310	-0.890	-0.060	-0.630
2020/01/31 11:54:24.9	301.300	-0.850	-0.060	-0.610
2020/01/31 11:54:25.0	301.280	-0.820	-0.070	-0.590
2020/01/31 11:54:25.1	301.270	-0.780	-0.070	-0.570
2020/01/31 11:54:25.2	301.250	-0.740	-0.080	-0.540
2020/01/31 11:54:25.3	301.240	-0.690	-0.080	-0.510
2020/01/31 11:54:25.4	301.220	-0.650	-0.090	-0.470
2020/01/31 11:54:25.5	301.200	-0.600	-0.090	-0.440
2020/01/31 11:54:25.6	301.180	-0.560	-0.090	-0.390
2020/01/31 11:54:25.7	301.160	-0.510	-0.100	-0.350
2020/01/31 11:54:25.8	301.140	-0.460	-0.100	-0.300
2020/01/31 11:54:25.9	301.130	-0.410	-0.100	-0.250
2020/01/31 11:54:26.0	301.110	-0.360	-0.100	-0.190
2020/01/31 11:54:26.1	301.100	-0.310	-0.100	-0.140
2020/01/31 11:54:26.2	301.080	-0.260	-0.100	-0.080
2020/01/31 11:54:26.3	301.070	-0.210	-0.100	-0.010
2020/01/31 11:54:26.4	301.050	-0.160	-0.090	0.050
2020/01/31 11:54:26.5	301.040	-0.110	-0.090	0.120
2020/01/31 11:54:26.6	301.030	-0.060	-0.090	0.180
2020/01/31 11:54:26.7	301.020	-0.020	-0.080	0.250
2020/01/31 11:54:26.8	301.020	0.030	-0.080	0.320
2020/01/31 11:54:26.9	301.010	0.080	-0.070	0.390
2020/01/31 11:54:27.0	301.000	0.120	-0.070	0.460
2020/01/31 11:54:27.1	301.000	0.160	-0.060	0.530
2020/01/31 11:54:27.2	301.000	0.200	-0.060	0.600
2020/01/31 11:54:27.3	301.000	0.240	-0.050	0.670
2020/01/31 11:54:27.4	301.000	0.280	-0.050	0.740
2020/01/31 11:54:27.5	300.990	0.320	-0.050	0.800
2020/01/31 11:54:27.6	300.990	0.350	-0.040	0.870
2020/01/31 11:54:27.7	301.000	0.390	-0.040	0.940
2020/01/31 11:54:27.8	301.000	0.420	-0.040	1.010
2020/01/31 11:54:27.9	301.010	0.450	-0.040	1.080
2020/01/31 11:54:28.0	301.010	0.480	-0.040	1.140
2020/01/31 11:54:28.1	301.020	0.510	-0.040	1.200
2020/01/31 11:54:28.2	301.020	0.530	-0.040	1.260
2020/01/31 11:54:28.3	301.030	0.560	-0.040	1.320
2020/01/31 11:54:28.4	301.040	0.580	-0.040	1.370
2020/01/31 11:54:28.5	301.040	0.600	-0.040	1.430
2020/01/31 11:54:28.6	301.050	0.630	-0.050	1.480
2020/01/31 11:54:28.7	301.060	0.640	-0.050	1.520
2020/01/31 11:54:28.8	301.070	0.660	-0.060	1.560
2020/01/31 11:54:28.9	301.080	0.680	-0.070	1.600
2020/01/31 11:54:29.0	301.090	0.690	-0.070	1.630
2020/01/31 11:54:29.1	301.110	0.700	-0.080	1.660
2020/01/31 11:54:29.2	301.120	0.710	-0.090	1.680
2020/01/31 11:54:29.3	301.130	0.720	-0.110	1.700
2020/01/31 11:54:29.4	301.150	0.730	-0.120	1.710
2020/01/31 11:54:29.5	301.170	0.740	-0.130	1.720
2020/01/31 11:54:29.6	301.180	0.740	-0.140	1.720
2020/01/31 11:54:29.7	301.200	0.740	-0.160	1.710
2020/01/31 11:54:29.8	301.210	0.740	-0.180	1.710
2020/01/31 11:54:29.9	301.230	0.740	-0.190	1.700
2020/01/31 11:54:30.0	301.250	0.740	-0.210	1.680
2020/01/31 11:54:30.1	301.260	0.730	-0.230	1.660
2020/01/31 11:54:30.2	301.280	0.730	-0.250	1.640
2020/01/31 11:54:30.3	301.290	0.720	-0.270	1.610
2020/01/31 11:54:30.4	301.310	0.710	-0.290	1.580
2020/01/31 11:54:30.5	301.330	0.690	-0.310	1.550
2020/01/31 11:54:30.6	301.350	0.680	-0.330	1.510
2020/01/31 11:54:30.7	301.360	0.660	-0.350	1.470
2020/01/31 11:54:30.8	301.380	0.640	-0.370	1.420
2020/01/31 11:54:30.9	301.390	0.620	-0.380	1.370
2020/01/31 11:54:31.0	301.410	0.600	-0.400	1.320
2020/01/31 11:54:31.1	301.420	0.580	-0.420	1.270
2020/01/31 11:54:31.2	301.440	0.550	-0.440	1.210
2020/01/31 11:54:31.3	301.450	0.520	-0.450	1.150
2020/01/31 11:54:31.4	301.460	0.500	-0.470	1.090
2020/01/31 11:54:31.5	301.490	0.470	-0.490	1.030
2020/01/31 11:54:31.6	301.500	0.440	-0.500	0.960
2020/01/31 11:54:31.7	301.510	0.410	-0.520	0.890
2020/01/31 11:54:31.8	301.530	0.380	-0.540	0.820
2020/01/31 11:54:31.9	301.540	0.340	-0.550	0.740
2020/01/31 11:54:32.0	301.550	0.310	-0.570	0.670
2020/01/31 11:54:32.1	301.560	0.280	-0.580	0.590
2020/01/31 11:54:32.2	301.580	0.250	-0.590	0.520
2020/01/31 11:54:32.3	301.590	0.220	-0.610	0.440
2020/01/31 11:54:32.4	301.600	0.180	-0.620	0.370
2020/01/31 11:54:32.5	301.610	0.150	-0.640	0.290
2020/01/31 11:54:32.6	301.620	0.120	-0.650	0.210
2020/01/31 11:54:32.7	301.630	0.090	-0.660	0.140
2020/01/31 11:54:32.8	301.640	0.060	-0.670	0.070
2020/01/31 11:54:32.9	301.650	0.030	-0.670	-0.000
2020/01/31 11:54:33.0	301.660	0.000	-0.680	-0.070
2020/01/31 11:54:33.1	301.670	-0.020	-0.690	-0.130
2020/01/31 11:54:33.2	301.670	-0.050	-0.690	-0.200
2020/01/31 11:54:33.3	301.680	-0.070	-0.700	-0.250
2020/01/31 11:54:33.4	301.680	-0.100	-0.700	-0.310
2020/01/31 11:54:33.5	301.680	-0.120	-0.710	-0.360
2020/01/31 11:54:33.6	301.680	-0.140	-0.710	-0.410
2020/01/31 11:54:33.7	301.680	-0.160	-0.710	-0.450
2020/01/31 11:54:33.8	301.690	-0.180	-0.700	-0.490
2020/01/31 11:54:33.9	301.690	-0.190	-0.700	-0.520
2020/01/31 11:54:34.0	301.690	-0.210	-0.700	-0.550
2020/01/31 11:54:34.1	301.690	-0.220	-0.690	-0.570
2020/01/31 11:54:34.2	301.690	-0.230	-0.680	-0.590
2020/01/31 11:54:34.3	301.680	-0.240	-0.680	-0.610
2020/01/31 11:54:34.4	301.680	-0.250	-0.670	-0.610
2020/01/31 11:54:34.5	301.670	-0.260	-0.650	-0.620
2020/01/31 11:54:34.6	301.660	-0.260	-0.640	-0.620
2020/01/31 11:54:34.7	301.650	-0.270	-0.630	-0.610
2020/01/31 11:54:34.8	301.650	-0.270	-0.610	-0.600
2020/01/31 11:54:34.9	301.640	-0.270	-0.600	-0.580
2020/01/31 11:54:35.0	301.630	-0.270	-0.580	-0.560
2020/01/31 11:54:35.1	301.620	-0.280	-0.560	-0.540
2020/01/31 11:54:35.2	301.600	-0.280	-0.540	-0.510
2020/01/31 11:54:35.3	301.590	-0.270	-0.520	-0.480
2020/01/31 11:54:35.4	301.580	-0.270	-0.500	-0.450
2020/01/31 11:54:35.5	301.570	-0.270	-0.470	-0.410
2020/01/31 11:54:35.6	301.560	-0.270	-0.440	-0.370
2020/01/31 11:54:35.7	301.540	-0.270	-0.420	-0.330
2020/01/31 11:54:35.8	301.520	-0.260	-0.390	-0.280
2020/01/31 11:54:35.9	301.500	-0.260	-0.360	-0.230
2020/01/31 11:54:36.0	301.490	-0.260	-0.330	-0.180
2020/01/31 11:54:36.1	301.470	-0.250	-0.300	-0.130
2020/01/31 11:54:36.2	301.450	-0.250	-0.270	-0.070
2020/01/31 11:54:36.3	301.430	-0.250	-0.240	-0.020
2020/01/31 11:54:36.4	301.410	-0.240	-0.210	0.040
2020/01/31 11:54:36.5	301.380	-0.240	-0.170	0.100
2020/01/31 11:54:36.6	301.360	-0.240	-0.140	0.160
2020/01/31 11:54:36.7	301.340	-0.240	-0.110	0.220
2020/01/31 11:54:36.8	301.320	-0.240	-0.070	0.290
2020/01/31 11:54:36.9	301.300	-0.230	-0.040	0.350
2020/01/31 11:54:37.0	301.270	-0.230	-0.000	0.410
2020/01/31 11:54:37.1	301.250	-0.230	0.040	0.470
2020/01/31 11:54:37.2	301.230	-0.230	0.070	0.530
2020/01/31 11:54:37.3	301.210	-0.230	0.110	0.590
2020/01/31 11:54:37.4	301.190	-0.230	0.140	0.650
2020/01/31 11:54:37.5	301.170	-0.240	0.180	0.710
2020/01/31 11:54:37.6	301.150	-0.240	0.210	0.760
2020/01/31 11:54:37.7	301.130	-0.240	0.240	0.810
2020/01/31 11:54:37.8	301.120	-0.240	0.270	0.860
2020/01/31 11:54:37.9	301.100	-0.250	0.300	0.910
2020/01/31 11:54:38.0	301.080	-0.250	0.330	0.950
2020/01/31 11:54:38.1	301.070	-0.250	0.360	0.990
2020/01/31 11:54:38.2	301.060	-0.260	0.380	1.030
2020/01/31 11:54:38.3	301.040	-0.260	0.400	1.060
2020/01/31 11:54:38.4	301.030	-0.270	0.420	1.090
2020/01/31 11:54:38.5	301.020	-0.280	0.440	1.120
2020/01/31 11:54:38.6	301.010	-0.280	0.460	1.140
2020/01/31 11:54:38.7	301.000	-0.290	0.480	1.150
2020/01/31 11:54:38.8	300.990	-0.300	0.490	1.170
2020/01/31 11:54:38.9	300.990	-0.300	0.500	1.180
2020/01/31 11:54:39.0	300.980	-0.310	0.510	1.180
2020/01/31 11:54:39.1	300.980	-0.320	0.510	1.180
2020/01/31 11:54:39.2	300.980	-0.320	0.510	1.180
2020/01/31 11:54:39.3	300.980	-0.330	0.510	1.170
2020/01/31 11:54:39.4	300.980	-0.340	0.510	1.160
2020/01/31 11:54:39.5	300.990	-0.340	0.500	1.150
2020/01/31 11:54:39.6	300.990	-0.350	0.490	1.130
2020/01/31 11:54:39.7	301.000	-0.350	0.480	1.110
2020/01/31 11:54:39.8	301.010	-0.360	0.470	1.090
2020/01/31 11:54:39.9	301.020	-0.360	0.450	1.060
2020/01/31 11:54:40.0	301.030	-0.360	0.430	1.030
2020/01/31 11:54:40.1	301.040	-0.360	0.410	1.000
2020/01/31 11:54:40.2	301.050	-0.360	0.380	0.970
2020/01/31 11:54:40.3	301.070	-0.360	0.350	0.940
2020/01/31 11:54:40.4	301.080	-0.360	0.320	0.900
2020/01/31 11:54:40.5	301.100	-0.350	0.290	0.870
2020/01/31 11:54:40.6	301.120	-0.340	0.250	0.830
2020/01/31 11:54:40.7	301.140	-0.340	0.210	0.790
2020/01/31 11:54:40.8	301.160	-0.330	0.170	0.750
2020/01/31 11:54:40.9	301.170	-0.320	0.130	0.710
2020/01/31 11:54:41.0	301.200	-0.300	0.090	0.680
2020/01/31 11:54:41.1	301.220	-0.290	0.050	0.640
2020/01/31 11:54:41.2	301.240	-0.270	0.000	0.600
2020/01/31 11:54:41.3	301.260	-0.260	-0.040	0.560
2020/01/31 11:54:41.4	301.280	-0.240	-0.090	0.530
2020/01/31 11:54:41.5	301.300	-0.220	-0.140	0.490
2020/01/31 11:54:41.6	301.320	-0.200	-0.180	0.460
2020/01/31 11:54:41.7	301.350	-0.170	-0.230	0.430
2020/01/31 11:54:41.8	301.370	-0.150	-0.270	0.400
2020/01/31 11:54:41.9	301.390	-0.120	-0.320	0.370
2020/01/31 11:54:42.0	301.420	-0.090	-0.360	0.340
2020/01/31 11:54:42.1	301.440	-0.060	-0.400	0.320
2020/01/31 11:54:42.2	301.470	-0.030	-0.440	0.300
2020/01/31 11:54:42.3	301.490	-0.000	-0.480	0.280
2020/01/31 11:54:42.4	301.520	0.030	-0.520	0.260
2020/01/31 11:54:42.5	301.530	0.060	-0.550	0.240
2020/01/31 11:54:42.6	301.550	0.090	-0.580	0.230
2020/01/31 11:54:42.7	301.570	0.130	-0.620	0.220
2020/01/31 11:54:42.8	301.600	0.160	-0.650	0.210
2020/01/31 11:54:42.9	301.620	0.190	-0.680	0.200
2020/01/31 11:54:43.0	301.640	0.230	-0.710	0.200
2020/01/31 11:54:43.1	301.660	0.260	-0.740	0.190
2020/01/31 11:54:43.2	301.680	0.290	-0.760	0.190
2020/01/31 11:54:43.3	301.700	0.330	-0.780	0.190
2020/01/31 11:54:43.4	301.720	0.360	-0.800	0.200
2020/01/31 11:54:43.5	301.740	0.390	-0.830	0.200
2020/01/31 11:54:43.6	301.750	0.420	-0.850	0.200
2020/01/31 11:54:43.7	301.770	0.450	-0.860	0.210
2020/01/31 11:54:43.8	301.790	0.480	-0.880	0.220
2020/01/31 11:54:43.9	301.800	0.500	-0.890	0.240
2020/01/31 11:54:44.0	301.820	0.530	-0.900	0.250
2020/01/31 11:54:44.1	301.830	0.550	-0.910	0.270
2020/01/31 11:54:44.2	301.840	0.570	-0.920	0.290
2020/01/31 11:54:44.3	301.860	0.590	-0.930	0.310
2020/01/31 11:54:44.4	301.870	0.610	-0.930	0.330
2020/01/31 11:54:44.5	301.880	0.620	-0.930	0.360
2020/01/31 11:54:44.6	301.890	0.640	-0.940	0.380
2020/01/31 11:54:44.7	301.900	0.650	-0.940	0.410
2020/01/31 11:54:44.8	301.900	0.660	-0.930	0.430
2020/01/31 11:54:44.9	301.910	0.660	-0.930	0.460
2020/01/31 11:54:45.0	301.910	0.670	-0.930	0.490
2020/01/31 11:54:45.1	301.920	0.670	-0.920	0.510
2020/01/31 11:54:45.2	301.920	0.670	-0.910	0.540
2020/01/31 11:54:45.3	301.920	0.670	-0.900	0.570
2020/01/31 11:54:45.4	301.920	0.660	-0.890	0.600
2020/01/31 11:54:45.5	301.920	0.660	-0.870	0.620
2020/01/31 11:54:45.6	301.910	0.650	-0.850	0.650
2020/01/31 11:54:45.7	301.910	0.640	-0.840	0.690
2020/01/31 11:54:45.8	301.900	0.630	-0.820	0.720
2020/01/31 11:54:45.9	301.890	0.620	-0.790	0.750
2020/01/31 11:54:46.0	301.880	0.600	-0.770	0.780
2020/01/31 11:54:46.1	301.870	0.590	-0.740	0.820
2020/01/31 11:54:46.2	301.850	0.570	-0.720	0.850
2020/01/31 11:54:46.3	301.840	0.550	-0.690	0.880
2020/01/31 11:54:46.4	301.820	0.530	-0.660	0.920
2020/01/31 11:54:46.5	301.800	0.510	-0.630	0.960
2020/01/31 11:54:46.6	301.780	0.480	-0.600	0.990
2020/01/31 11:54:46.7	301.760	0.460	-0.570	1.020
2020/01/31 11:54:46.8	301.750	0.440	-0.540	1.050
2020/01/31 11:54:46.9	301.730	0.410	-0.510	1.080
2020/01/31 11:54:47.0	301.710	0.380	-0.480	1.100
2020/01/31 11:54:47.1	301.690	0.360	-0.450	1.130
2020/01/31 11:54:47.2	301.670	0.330	-0.430	1.150
2020/01/31 11:54:47.3	301.650	0.310	-0.400	1.170
2020/01/31 11:54:47.4	301.630	0.280	-0.380	1.180
2020/01/31 11:54:47.5	301.600	0.250	-0.350	1.190
2020/01/31 11:54:47.6	301.590	0.230	-0.330	1.210
2020/01/31 11:54:47.7	301.570	0.200	-0.310	1.210
2020/01/31 11:54:47.8	301.550	0.180	-0.290	1.220
2020/01/31 11:54:47.9	301.530	0.150	-0.270	1.220
2020/01/31 11:54:48.0	301.520	0.120	-0.250	1.220
2020/01/31 11:54:48.1	301.500	0.100	-0.230	1.220
2020/01/31 11:54:48.2	301.490	0.070	-0.220	1.210
2020/01/31 11:54:48.3	301.480	0.050	-0.200	1.200
2020/01/31 11:54:48.4	301.460	0.030	-0.190	1.190
2020/01/31 11:54:48.5	301.450	0.000	-0.170	1.180
2020/01/31 11:54:48.6	301.440	-0.020	-0.160	1.170
2020/01/31 11:54:48.7	301.430	-0.050	-0.150	1.150
2020/01/31 11:54:48.8	301.420	-0.070	-0.130	1.130
2020/01/31 11:54:48.9	301.410	-0.090	-0.120	1.110
2020/01/31 11:54:49.0	301.400	-0.110	-0.100	1.090
2020/01/31 11:54:49.1	301.390	-0.130	-0.090	1.060
2020/01/31 11:54:49.2	301.380	-0.150	-0.070	1.040
2020/01/31 11:54:49.3	301.370	-0.180	-0.050	1.010
2020/01/31 11:54:49.4	301.360	-0.200	-0.030	0.990
2020/01/31 11:54:49.5	301.350	-0.220	-0.020	0.960
2020/01/31 11:54:49.6	301.350	-0.240	0.000	0.930
2020/01/31 11:54:49.7	301.350	-0.250	0.020	0.900
2020/01/31 11:54:49.8	301.340	-0.270	0.040	0.870
2020/01/31 11:54:49.9	301.340	-0.290	0.060	0.840
2020/01/31 11:54:50.0	301.340	-0.310	0.090	0.800
2020/01/31 11:54:50.1	301.340	-0.330	0.110	0.770
2020/01/31 11:54:50.2	301.340	-0.340	0.130	0.730
2020/01/31 11:54:50.3	301.340	-0.360	0.150	0.690
2020/01/31 11:54:50.4	301.350	-0.370	0.170	0.660
2020/01/31 11:54:50.5	301.360	-0.390	0.190	0.620
2020/01/31 11:54:50.6	301.370	-0.400	0.210	0.580
2020/01/31 11:54:50.7	301.370	-0.410	0.230	0.540
2020/01/31 11:54:50.8	301.380	-0.430	0.250	0.490
2020/01/31 11:54:50.9	301.390	-0.440	0.270	0.450
2020/01/31 11:54:51.0	301.400	-0.450	0.280	0.410
2020/01/31 11:54:51.1	301.410	-0.450	0.300	0.370
2020/01/31 11:54:51.2	301.420	-0.460	0.310	0.330
2020/01/31 11:54:51.3	301.430	-0.460	0.320	0.280
2020/01/31 11:54:51.4	301.450	-0.470	0.330	0.240
2020/01/31 11:54:51.5	301.450	-0.470	0.340	0.200
2020/01/31 11:54:51.6	301.460	-0.470	0.340	0.160
2020/01/31 11:54:51.7	301.470	-0.470	0.350	0.120
2020/01/31 11:54:51.8	301.490	-0.470	0.350	0.080
2020/01/31 11:54:51.9	301.510	-0.460	0.350	0.040
2020/01/31 11:54:52.0	301.520	-0.460	0.340	0.010
2020/01/31 11:54:52.1	301.540	-0.450	0.340	-0.020
2020/01/31 11:54:52.2	301.550	-0.440	0.330	-0.060
2020/01/31 11:54:52.3	301.570	-0.430	0.320	-0.090
2020/01/31 11:54:52.4	301.590	-0.420	0.310	-0.110
2020/01/31 11:54:52.5	301.590	-0.410	0.290	-0.140
2020/01/31 11:54:52.6	301.610	-0.390	0.280	-0.160
2020/01/31 11:54:52.7	301.630	-0.380	0.260	-0.180
2020/01/31 11:54:52.8	301.640	-0.360	0.250	-0.200
2020/01/31 11:54:52.9	301.660	-0.340	0.230	-0.210
2020/01/31 11:54:53.0	301.670	-0.320	0.210	-0.220
2020/01/31 11:54:53.1	301.680	-0.310	0.190	-0.230
2020/01/31 11:54:53.2	301.700	-0.290	0.180	-0.230
2020/01/31 11:54:53.3	301.710	-0.270	0.160	-0.230
2020/01/31 11:54:53.4	301.720	-0.250	0.140	-0.220
2020/01/31 11:54:53.5	301.730	-0.230	0.120	-0.220
2020/01/31 11:54:53.6	301.740	-0.210	0.110	-0.210
2020/01/31 11:54:53.7	301.750	-0.190	0.090	-0.190
2020/01/31 11:54:53.8	301.760	-0.170	0.070	-0.180
2020/01/31 11:54:53.9	301.770	-0.150	0.060	-0.160
2020/01/31 11:54:54.0	301.780	-0.130	0.040	-0.130
2020/01/31 11:54:54.1	301.780	-0.110	0.030	-0.110
2020/01/31 11:54:54.2	301.790	-0.090	0.010	-0.080
2020/01/31 11:54:54.3	301.790	-0.080	0.000	-0.060
2020/01/31 11:54:54.4	301.790	-0.060	-0.010	-0.030
2020/01/31 11:54:54.5	301.800	-0.040	-0.020	0.000
2020/01/31 11:54:54.6	301.800	-0.030	-0.030	0.030
2020/01/31 11:54:54.7	301.800	-0.020	-0.050	0.060
2020/01/31 11:54:54.8	301.800	-0.000	-0.060	0.090
2020/01/31 11:54:54.9	301.800	0.010	-0.070	0.120
2020/01/31 11:54:55.0	301.800	0.020	-0.080	0.150
2020/01/31 11:54:55.1	301.800	0.030	-0.100	0.190
2020/01/31 11:54:55.2	301.800	0.040	-0.110	0.220
2020/01/31 11:54:55.3	301.800	0.040	-0.120	0.250
2020/01/31 11:54:55.4	301.800	0.050	-0.130	0.280
2020/01/31 11:54:55.5	301.800	0.060	-0.150	0.320
2020/01/31 11:54:55.6	301.800	0.060	-0.160	0.350
2020/01/31 11:54:55.7	301.800	0.070	-0.180	0.380
2020/01/31 11:54:55.8	301.800	0.070	-0.200	0.410
2020/01/31 11:54:55.9	301.800	0.070	-0.210	0.440
2020/01/31 11:54:56.0	301.790	0.080	-0.230	0.470
2020/01/31 11:54:56.1	301.790	0.080	-0.260	0.500
2020/01/31 11:54:56.2	301.790	0.080	-0.280	0.530
2020/01/31 11:54:56.3	301.790	0.080	-0.300	0.550
2020/01/31 11:54:56.4	301.790	0.080	-0.330	0.580
2020/01/31 11:54:56.5	301.780	0.090	-0.360	0.600
2020/01/31 11:54:56.6	301.780	0.090	-0.390	0.630
2020/01/31 11:54:56.7	301.780	0.090	-0.420	0.650
2020/01/31 11:54:56.8	301.780	0.090	-0.460	0.670
2020/01/31 11:54:56.9	301.780	0.090	-0.490	0.700
2020/01/31 11:54:57.0	301.780	0.100	-0.530	0.720
2020/01/31 11:54:57.1	301.780	0.100	-0.570	0.740
2020/01/31 11:54:57.2	301.780	0.100	-0.610	0.760
2020/01/31 11:54:57.3	301.780	0.110	-0.650	0.780
2020/01/31 11:54:57.4	301.780	0.110	-0.680	0.790
2020/01/31 11:54:57.5	301.760	0.110	-0.720	0.810
2020/01/31 11:54:57.6	301.750	0.120	-0.760	0.830
2020/01/31 11:54:57.7	301.750	0.120	-0.800	0.850
2020/01/31 11:54:57.8	301.740	0.130	-0.840	0.870
2020/01/31 11:54:57.9	301.740	0.140	-0.880	0.890
2020/01/31 11:54:58.0	301.730	0.140	-0.910	0.900
2020/01/31 11:54:58.1	301.730	0.150	-0.950	0.920
2020/01/31 11:54:58.2	301.720	0.160	-0.980	0.940
2020/01/31 11:54:58.3	301.710	0.160	-1.010	0.950
2020/01/31 11:54:58.4	301.700	0.170	-1.040	0.970
2020/01/31 11:54:58.5	301.690	0.180	-1.070	0.980
2020/01/31 11:54:58.6	301.680	0.190	-1.090	0.990
2020/01/31 11:54:58.7	301.670	0.190	-1.120	1.010
2020/01/31 11:54:58.8	301.670	0.200	-1.140	1.020
2020/01/31 11:54:58.9	301.660	0.210	-1.150	1.020
2020/01/31 11:54:59.0	301.650	0.210	-1.160	1.030
2020/01/31 11:54:59.1	301.650	0.220	-1.170	1.030
2020/01/31 11:54:59.2	301.650	0.230	-1.180	1.040
2020/01/31 11:54:59.3	301.640	0.230	-1.180	1.040
2020/01/31 11:54:59.4	301.640	0.230	-1.180	1.040
2020/01/31 11:54:59.5	301.640	0.240	-1.180	1.040
2020/01/31 11:54:59.6	301.640	0.240	-1.170	1.030
2020/01/31 11:54:59.7	301.630	0.240	-1.160	1.030
2020/01/31 11:54:59.8	301.630	0.240	-1.140	1.020
2020/01/31 11:54:59.9	301.630	0.240	-1.120	1.010
2020/01/31 11:55:00.0	301.630	0.230	-1.100	1.000
2020/01/31 11:55:00.1	301.630	0.230	-1.070	0.980
2020/01/31 11:55:00.2	301.640	0.220	-1.040	0.970
2020/01/31 11:55:00.3	301.640	0.210	-1.010	0.950
2020/01/31 11:55:00.4	301.640	0.200	-0.970	0.930
2020/01/31 11:55:00.5	301.650	0.190	-0.930	0.910
2020/01/31 11:55:00.6	301.660	0.180	-0.890	0.890
2020/01/31 11:55:00.7	301.660	0.170	-0.840	0.870
2020/01/31 11:55:00.8	301.670	0.150	-0.790	0.850
2020/01/31 11:55:00.9	301.680	0.140	-0.740	0.820
2020/01/31 11:55:01.0	301.690	0.120	-0.690	0.800
2020/01/31 11:55:01.1	301.700	0.100	-0.630	0.770
2020/01/31 11:55:01.2	301.710	0.080	-0.570	0.750
2020/01/31 11:55:01.3	301.720	0.060	-0.510	0.720
2020/01/31 11:55:01.4	301.730	0.040	-0.450	0.690
2020/01/31 11:55:01.5	301.750	0.020	-0.390	0.660
2020/01/31 11:55:01.6	301.770	0.000	-0.330	0.630
2020/01/31 11:55:01.7	301.780	-0.020	-0.270	0.600
2020/01/31 11:55:01.8	301.800	-0.040	-0.210	0.570
2020/01/31 11:55:01.9	301.820	-0.060	-0.140	0.540
2020/01/31 11:55:02.0	301.840	-0.080	-0.080	0.510
2020/01/31 11:55:02.1	301.860	-0.100	-0.020	0.480
2020/01/31 11:55:02.2	301.870	-0.120	0.030	0.460
2020/01/31 11:55:02.3	301.890	-0.140	0.090	0.430
2020/01/31 11:55:02.4	301.910	-0.150	0.150	0.400
2020/01/31 11:55:02.5	301.930	-0.170	0.200	0.380
2020/01/31 11:55:02.6	301.950	-0.180	0.250	0.350
2020/01/31 11:55:02.7	301.970	-0.200	0.300	0.330
2020/01/31 11:55:02.8	301.990	-0.210	0.340	0.310
2020/01/31 11:55:02.9	302.010	-0.220	0.390	0.290
2020/01/31 11:55:03.0	302.020	-0.220	0.430	0.280
2020/01/31 11:55:03.1	302.040	-0.230	0.460	0.260
2020/01/31 11:55:03.2	302.060	-0.230	0.500	0.250
2020/01/31 11:55:03.3	302.070	-0.240	0.530	0.240
2020/01/31 11:55:03.4	302.080	-0.240	0.560	0.230
2020/01/31 11:55:03.5	302.100	-0.240	0.580	0.220
2020/01/31 11:55:03.6	302.110	-0.230	0.610	0.220
2020/01/31 11:55:03.7	302.110	-0.230	0.630	0.220
2020/01/31 11:55:03.8	302.120	-0.220	0.640	0.220
2020/01/31 11:55:03.9	302.130	-0.210	0.660	0.220
2020/01/31 11:55:04.0	302.130	-0.200	0.670	0.230
2020/01/31 11:55:04.1	302.140	-0.190	0.670	0.240
2020/01/31 11:55:04.2	302.140	-0.170	0.680	0.250
2020/01/31 11:55:04.3	302.140	-0.160	0.680	0.260
2020/01/31 11:55:04.4	302.140	-0.140	0.680	0.270
2020/01/31 11:55:04.5	302.140	-0.120	0.670	0.290
2020/01/31 11:55:04.6	302.140	-0.100	0.660	0.310
2020/01/31 11:55:04.7	302.130	-0.080	0.650	0.330
2020/01/31 11:55:04.8	302.130	-0.060	0.640	0.350
2020/01/31 11:55:04.9	302.120	-0.030	0.630	0.370
2020/01/31 11:55:05.0	302.110	-0.010	0.610	0.390
2020/01/31 11:55:05.1	302.100	0.020	0.590	0.420
2020/01/31 11:55:05.2	302.090	0.040	0.570	0.440
2020/01/31 11:55:05.3	302.070	0.070	0.550	0.470
2020/01/31 11:55:05.4	302.060	0.090	0.530	0.500
2020/01/31 11:55:05.5	302.040	0.120	0.500	0.520
2020/01/31 11:55:05.6	302.020	0.140	0.470	0.550
2020/01/31 11:55:05.7	302.010	0.170	0.440	0.570
2020/01/31 11:55:05.8	302.000	0.190	0.410	0.590
2020/01/31 11:55:05.9	301.980	0.210	0.380	0.620
2020/01/31 11:55:06.0	301.970	0.240	0.350	0.640
2020/01/31 11:55:06.1	301.960	0.260	0.320	0.660
2020/01/31 11:55:06.2	301.950	0.280	0.280	0.680
2020/01/31 11:55:06.3	301.940	0.300	0.250	0.690
2020/01/31 11:55:06.4	301.930	0.310	0.210	0.710
2020/01/31 11:55:06.5	301.920	0.330	0.170	0.720
2020/01/31 11:55:06.6	301.910	0.340	0.140	0.730
2020/01/31 11:55:06.7	301.910	0.360	0.100	0.730
2020/01/31 11:55:06.8	301.900	0.370	0.060	0.740
2020/01/31 11:55:06.9	301.890	0.370	0.030	0.740
2020/01/31 11:55:07.0	301.890	0.380	-0.010	0.740
2020/01/31 11:55:07.1	301.890	0.380	-0.050	0.740
2020/01/31 11:55:07.2	301.880	0.390	-0.080	0.730
2020/01/31 11:55:07.3	301.880	0.390	-0.120	0.720
2020/01/31 11:55:07.4	301.880	0.380	-0.150	0.710
2020/01/31 11:55:07.5	301.870	0.380	-0.190	0.690
2020/01/31 11:55:07.6	301.870	0.370	-0.220	0.670
2020/01/31 11:55:07.7	301.870	0.360	-0.260	0.650
2020/01/31 11:55:07.8	301.870	0.350	-0.290	0.630
2020/01/31 11:55:07.9	301.870	0.340	-0.320	0.600
2020/01/31 11:55:08.0	301.870	0.320	-0.350	0.570
2020/01/31 11:55:08.1	301.870	0.310	-0.380	0.540
2020/01/31 11:55:08.2	301.870	0.290	-0.410	0.510
2020/01/31 11:55:08.3	301.880	0.270	-0.440	0.470
2020/01/31 11:55:08.4	301.880	0.250	-0.470	0.430
2020/01/31 11:55:08.5	301.880	0.220	-0.490	0.390
2020/01/31 11:55:08.6	301.890	0.200	-0.520	0.350
2020/01/31 11:55:08.7	301.890	0.170	-0.540	0.310
2020/01/31 11:55:08.8	301.890	0.150	-0.570	0.270
2020/01/31 11:55:08.9	301.900	0.120	-0.590	0.230
2020/01/31 11:55:09.0	301.900	0.090	-0.610	0.190
2020/01/31 11:55:09.1	301.910	0.060	-0.640	0.140
2020/01/31 11:55:09.2	301.910	0.040	-0.660	0.100
2020/01/31 11:55:09.3	301.920	0.010	-0.680	0.060
2020/01/31 11:55:09.4	301.920	-0.020	-0.700	0.020
2020/01/31 11:55:09.5	301.920	-0.050	-0.720	-0.020
2020/01/31 11:55:09.6	301.930	-0.080	-0.740	-0.050
2020/01/31 11:55:09.7	301.940	-0.100	-0.760	-0.090
2020/01/31 11:55:09.8	301.940	-0.130	-0.770	-0.120
2020/01/31 11:55:09.9	301.950	-0.160	-0.790	-0.150
2020/01/31 11:55:10.0	301.950	-0.180	-0.800	-0.180
2020/01/31 11:55:10.1	301.950	-0.210	-0.820	-0.210
2020/01/31 11:55:10.2	301.960	-0.230	-0.830	-0.230
2020/01/31 11:55:10.3	301.960	-0.260	-0.850	-0.250
2020/01/31 11:55:10.4	301.960	-0.280	-0.860	-0.260
2020/01/31 11:55:10.5	301.970	-0.300	-0.870	-0.280
2020/01/31 11:55:10.6	301.970	-0.320	-0.880	-0.290
2020/01/31 11:55:10.7	301.970	-0.340	-0.890	-0.290
2020/01/31 11:55:10.8	301.970	-0.360	-0.890	-0.300
2020/01/31 11:55:10.9	301.970	-0.370	-0.900	-0.290
2020/01/31 11:55:11.0	301.970	-0.390	-0.910	-0.290
2020/01/31 11:55:11.1	301.970	-0.400	-0.910	-0.280
2020/01/31 11:55:11.2	301.970	-0.420	-0.910	-0.270
2020/01/31 11:55:11.3	301.970	-0.430	-0.920	-0.260
2020/01/31 11:55:11.4	301.970	-0.440	-0.920	-0.240
2020/01/31 11:55:11.5	301.970	-0.450	-0.920	-0.220
2020/01/31 11:55:11.6	301.970	-0.460	-0.920	-0.200
2020/01/31 11:55:11.7	301.970	-0.460	-0.910	-0.180
2020/01/31 11:55:11.8	301.970	-0.470	-0.910	-0.160
2020/01/31 11:55:11.9	301.970	-0.470	-0.900	-0.140
2020/01/31 11:55:12.0	301.970	-0.480	-0.890	-0.120
2020/01/31 11:55:12.1	301.980	-0.480	-0.880	-0.090
2020/01/31 11:55:12.2	301.980	-0.480	-0.870	-0.070
2020/01/31 11:55:12.3	301.980	-0.480	-0.860	-0.040
2020/01/31 11:55:12.4	301.980	-0.480	-0.840	-0.010
2020/01/31 11:55:12.5	301.980	-0.480	-0.820	0.010
2020/01/31 11:55:12.6	301.980	-0.480	-0.800	0.040
2020/01/31 11:55:12.7	301.980	-0.480	-0.780	0.070
2020/01/31 11:55:12.8	301.980	-0.470	-0.750	0.100
2020/01/31 11:55:12.9	301.990	-0.470	-0.730	0.130
2020/01/31 11:55:13.0	301.990	-0.460	-0.700	0.160
2020/01/31 11:55:13.1	301.990	-0.450	-0.660	0.190
2020/01/31 11:55:13.2	301.990	-0.440	-0.630	0.220
2020/01/31 11:55:13.3	302.000	-0.430	-0.600	0.260
2020/01/31 11:55:13.4	302.000	-0.420	-0.560	0.290
2020/01/31 11:55:13.5	302.000	-0.410	-0.520	0.330
2020/01/31 11:55:13.6	302.000	-0.400	-0.480	0.370
2020/01/31 11:55:13.7	302.000	-0.380	-0.440	0.410
2020/01/31 11:55:13.8	302.000	-0.360	-0.400	0.440
2020/01/31 11:55:13.9	302.000	-0.350	-0.360	0.480
2020/01/31 11:55:14.0	302.000	-0.330	-0.320	0.520
2020/01/31 11:55:14.1	302.000	-0.310	-0.270	0.570
2020/01/31 11:55:14.2	301.990	-0.280	-0.230	0.610
2020/01/31 11:55:14.3	301.990	-0.260	-0.190	0.650
2020/01/31 11:55:14.4	301.980	-0.240	-0.160	0.690
2020/01/31 11:55:14.5	301.970	-0.210	-0.120	0.730
2020/01/31 11:55:14.6	301.960	-0.180	-0.080	0.780
2020/01/31 11:55:14.7	301.950	-0.160	-0.050	0.820
2020/01/31 11:55:14.8	301.950	-0.130	-0.020	0.860
2020/01/31 11:55:14.9	301.940	-0.100	0.010	0.900
2020/01/31 11:55:15.0	301.940	-0.070	0.030	0.940
2020/01/31 11:55:15.1	301.930	-0.040	0.060	0.980
2020/01/31 11:55:15.2	301.930	-0.000	0.080	1.020
2020/01/31 11:55:15.3	301.920	0.030	0.100	1.060
2020/01/31 11:55:15.4	301.920	0.060	0.110	1.090
2020/01/31 11:55:15.5	301.900	0.100	0.130	1.120
2020/01/31 11:55:15.6	301.900	0.130	0.140	1.150
2020/01/31 11:55:15.7	301.900	0.160	0.150	1.180
2020/01/31 11:55:15.8	301.890	0.200	0.150	1.200
2020/01/31 11:55:15.9	301.890	0.230	0.160	1.220
2020/01/31 11:55:16.0	301.880	0.260	0.160	1.240
2020/01/31 11:55:16.1	301.880	0.290	0.160	1.260
2020/01/31 11:55:16.2	301.880	0.320	0.160	1.270
2020/01/31 11:55:16.3	301.870	0.350	0.170	1.290
2020/01/31 11:55:16.4	301.870	0.380	0.170	1.300
2020/01/31 11:55:16.5	301.860	0.400	0.160	1.300
2020/01/31 11:55:16.6	301.860	0.430	0.160	1.310
2020/01/31 11:55:16.7	301.850	0.450	0.170	1.310
2020/01/31 11:55:16.8	301.840	0.470	0.170	1.310
2020/01/31 11:55:16.9	301.840	0.490	0.170	1.310
2020/01/31 11:55:17.0	301.830	0.500	0.170	1.300
2020/01/31 11:55:17.1	301.820	0.510	0.180	1.300
2020/01/31 11:55:17.2	301.810	0.520	0.180	1.290
2020/01/31 11:55:17.3	301.800	0.530	0.190	1.270
2020/01/31 11:55:17.4	301.780	0.530	0.200	1.260
2020/01/31 11:55:17.5	301.780	0.530	0.210	1.250
2020/01/31 11:55:17.6	301.770	0.530	0.220	1.230
2020/01/31 11:55:17.7	301.760	0.530	0.230	1.210
2020/01/31 11:55:17.8	301.750	0.520	0.240	1.180
2020/01/31 11:55:17.9	301.730	0.510	0.260	1.160
2020/01/31 11:55:18.0	301.720	0.490	0.270	1.130
2020/01/31 11:55:18.1	301.710	0.470	0.290	1.100
2020/01/31 11:55:18.2	301.700	0.450	0.300	1.070
2020/01/31 11:55:18.3	301.690	0.430	0.320	1.030
2020/01/31 11:55:18.4	301.680	0.410	0.330	1.000
2020/01/31 11:55:18.5	301.670	0.380	0.340	0.950
2020/01/31 11:55:18.6	301.660	0.350	0.350	0.910
2020/01/31 11:55:18.7	301.650	0.320	0.370	0.870
2020/01/31 11:55:18.8	301.640	0.290	0.380	0.830
2020/01/31 11:55:18.9	301.640	0.260	0.380	0.780
2020/01/31 11:55:19.0	301.630	0.220	0.390	0.740
2020/01/31 11:55:19.1	301.630	0.190	0.390	0.690
2020/01/31 11:55:19.2	301.630	0.150	0.390	0.640
2020/01/31 11:55:19.3	301.630	0.120	0.390	0.590
2020/01/31 11:55:19.4	301.630	0.080	0.390	0.540
2020/01/31 11:55:19.5	301.630	0.040	0.380	0.490
2020/01/31 11:55:19.6	301.630	0.010	0.360	0.440
2020/01/31 11:55:19.7	301.640	-0.030	0.350	0.390
2020/01/31 11:55:19.8	301.640	-0.060	0.330	0.330
2020/01/31 11:55:19.9	301.650	-0.090	0.310	0.280
2020/01/31 11:55:20.0	301.660	-0.120	0.290	0.230
2020/01/31 11:55:20.1	301.660	-0.150	0.260	0.180
2020/01/31 11:55:20.2	301.670	-0.180	0.230	0.130
2020/01/31 11:55:20.3	301.680	-0.210	0.200	0.070
2020/01/31 11:55:20.4	301.700	-0.230	0.160	0.020
2020/01/31 11:55:20.5	301.720	-0.250	0.120	-0.030
2020/01/31 11:55:20.6	301.730	-0.270	0.070	-0.080
2020/01/31 11:55:20.7	301.740	-0.290	0.030	-0.130
2020/01/31 11:55:20.8	301.760	-0.310	-0.020	-0.180
2020/01/31 11:55:20.9	301.770	-0.320	-0.070	-0.230
2020/01/31 11:55:21.0	301.790	-0.330	-0.120	-0.280
2020/01/31 11:55:21.1	301.800	-0.340	-0.170	-0.330
2020/01/31 11:55:21.2	301.820	-0.350	-0.220	-0.370
2020/01/31 11:55:21.3	301.840	-0.350	-0.280	-0.420
2020/01/31 11:55:21.4	301.850	-0.350	-0.330	-0.460
2020/01/31 11:55:21.5	301.870	-0.350	-0.380	-0.500
2020/01/31 11:55:21.6	301.890	-0.350	-0.440	-0.530
2020/01/31 11:55:21.7	301.910	-0.340	-0.490	-0.570
2020/01/31 11:55:21.8	301.920	-0.330	-0.540	-0.590
2020/01/31 11:55:21.9	301.940	-0.320	-0.590	-0.620
2020/01/31 11:55:22.0	301.950	-0.310	-0.640	-0.640
2020/01/31 11:55:22.1	301.960	-0.300	-0.690	-0.660
2020/01/31 11:55:22.2	301.980	-0.290	-0.740	-0.670
2020/01/31 11:55:22.3	301.990	-0.270	-0.780	-0.680
2020/01/31 11:55:22.4	302.000	-0.250	-0.820	-0.680
2020/01/31 11:55:22.5	302.020	-0.240	-0.860	-0.680
2020/01/31 11:55:22.6	302.030	-0.220	-0.900	-0.680
2020/01/31 11:55:22.7	302.030	-0.200	-0.930	-0.670
2020/01/31 11:55:22.8	302.040	-0.180	-0.970	-0.650
2020/01/31 11:55:22.9	302.050	-0.160	-0.990	-0.630
2020/01/31 11:55:23.0	302.050	-0.140	-1.020	-0.610
2020/01/31 11:55:23.1	302.050	-0.120	-1.040	-0.580
2020/01/31 11:55:23.2	302.060	-0.100	-1.060	-0.540
2020/01/31 11:55:23.3	302.060	-0.080	-1.070	-0.500
2020/01/31 11:55:23.4	302.060	-0.060	-1.090	-0.460
2020/01/31 11:55:23.5	302.060	-0.040	-1.090	-0.420
2020/01/31 11:55:23.6	302.060	-0.030	-1.100	-0.370
2020/01/31 11:55:23.7	302.060	-0.010	-1.100	-0.320
2020/01/31 11:55:23.8	302.050	0.010	-1.100	-0.260
2020/01/31 11:55:23.9	302.050	0.020	-1.090	-0.200
2020/01/31 11:55:24.0	302.040	0.040	-1.080	-0.140
2020/01/31 11:55:24.1	302.030	0.050	-1.070	-0.080
2020/01/31 11:55:24.2	302.030	0.060	-1.060	-0.020
2020/01/31 11:55:24.3	302.020	0.070	-1.050	0.050
2020/01/31 11:55:24.4	302.010	0.090	-1.030	0.120
2020/01/31 11:55:24.5	302.000	0.100	-1.010	0.190
2020/01/31 11:55:24.6	301.990	0.100	-0.990	0.260
2020/01/31 11:55:24.7	301.980	0.110	-0.960	0.330
2020/01/31 11:55:24.8	301.970	0.120	-0.940	0.400
2020/01/31 11:55:24.9	301.960	0.130	-0.910	0.470
2020/01/31 11:55:25.0	301.950	0.130	-0.880	0.540
2020/01/31 11:55:25.1	301.940	0.140	-0.850	0.610
2020/01/31 11:55:25.2	301.930	0.140	-0.830	0.670
2020/01/31 11:55:25.3	301.920	0.150	-0.790	0.740
2020/01/31 11:55:25.4	301.910	0.150	-0.760	0.800
2020/01/31 11:55:25.5	301.890	0.150	-0.730	0.860
2020/01/31 11:55:25.6	301.880	0.160	-0.700	0.920
2020/01/31 11:55:25.7	301.870	0.160	-0.660	0.970
2020/01/31 11:55:25.8	301.860	0.160	-0.630	1.030
2020/01/31 11:55:25.9	301.850	0.170	-0.600	1.080
2020/01/31 11:55:26.0	301.840	0.170	-0.570	1.120
2020/01/31 11:55:26.1	301.840	0.170	-0.530	1.170
2020/01/31 11:55:26.2	301.830	0.180	-0.500	1.210
2020/01/31 11:55:26.3	301.820	0.180	-0.470	1.250
2020/01/31 11:55:26.4	301.810	0.180	-0.430	1.280
2020/01/31 11:55:26.5	301.790	0.180	-0.400	1.310
2020/01/31 11:55:26.6	301.780	0.190	-0.360	1.340
2020/01/31 11:55:26.7	301.770	0.190	-0.330	1.360
2020/01/31 11:55:26.8	301.770	0.190	-0.290	1.380
2020/01/31 11:55:26.9	301.760	0.190	-0.260	1.390
2020/01/31 11:55:27.0	301.750	0.190	-0.220	1.410
2020/01/31 11:55:27.1	301.740	0.190	-0.190	1.410
2020/01/31 11:55:27.2	301.740	0.190	-0.160	1.420
2020/01/31 11:55:27.3	301.730	0.190	-0.120	1.420
2020/01/31 11:55:27.4	301.720	0.190	-0.080	1.420
2020/01/31 11:55:27.5	301.720	0.180	-0.050	1.420
2020/01/31 11:55:27.6	301.710	0.180	-0.020	1.410
2020/01/31 11:55:27.7	301.700	0.180	0.020	1.410
2020/01/31 11:55:27.8	301.690	0.170	0.050	1.390
2020/01/31 11:55:27.9	301.690	0.160	0.080	1.380
2020/01/31 11:55:28.0	301.680	0.160	0.120	1.360
2020/01/31 11:55:28.1	301.670	0.150	0.150	1.340
2020/01/31 11:55:28.2	301.660	0.140	0.180	1.310
2020/01/31 11:55:28.3	301.660	0.130	0.210	1.280
2020/01/31 11:55:28.4	301.650	0.120	0.240	1.250
2020/01/31 11:55:28.5	301.650	0.100	0.260	1.220
2020/01/31 11:55:28.6	301.640	0.090	0.290	1.190
2020/01/31 11:55:28.7	301.640	0.070	0.310	1.150
2020/01/31 11:55:28.8	301.640	0.060	0.330	1.110
2020/01/31 11:55:28.9	301.640	0.040	0.350	1.070
2020/01/31 11:55:29.0	301.630	0.020	0.370	1.020
2020/01/31 11:55:29.1	301.630	0.010	0.380	0.980
2020/01/31 11:55:29.2	301.630	-0.010	0.390	0.940
2020/01/31 11:55:29.3	301.630	-0.030	0.410	0.890
2020/01/31 11:55:29.4	301.640	-0.050	0.410	0.850
2020/01/31 11:55:29.5	301.650	-0.070	0.420	0.800
2020/01/31 11:55:29.6	301.650	-0.090	0.420	0.760
2020/01/31 11:55:29.7	301.650	-0.110	0.430	0.710
2020/01/31 11:55:29.8	301.650	-0.130	0.430	0.670
2020/01/31 11:55:29.9	301.650	-0.150	0.430	0.630
2020/01/31 11:55:30.0	301.650	-0.170	0.420	0.590
2020/01/31 11:55:30.1	301.650	-0.180	0.420	0.550
2020/01/31 11:55:30.2	301.640	-0.200	0.410	0.510
2020/01/31 11:55:30.3	301.640	-0.220	0.410	0.480
2020/01/31 11:55:30.4	301.640	-0.230	0.400	0.440
2020/01/31 11:55:30.5	301.630	-0.250	0.380	0.420
2020/01/31 11:55:30.6	301.630	-0.260	0.370	0.390
2020/01/31 11:55:30.7	301.630	-0.280	0.360	0.360
2020/01/31 11:55:30.8	301.620	-0.290	0.340	0.340
2020/01/31 11:55:30.9	301.620	-0.300	0.330	0.320
2020/01/31 11:55:31.0	301.610	-0.310	0.310	0.300
2020/01/31 11:55:31.1	301.610	-0.310	0.290	0.280
2020/01/31 11:55:31.2	301.600	-0.320	0.270	0.260
2020/01/31 11:55:31.3	301.600	-0.330	0.250	0.250
2020/01/31 11:55:31.4	301.600	-0.330	0.220	0.240
2020/01/31 11:55:31.5	301.590	-0.330	0.190	0.220
2020/01/31 11:55:31.6	301.590	-0.330	0.160	0.210
2020/01/31 11:55:31.7	301.590	-0.330	0.130	0.200
2020/01/31 11:55:31.8	301.590	-0.320	0.100	0.190
2020/01/31 11:55:31.9	301.590	-0.320	0.070	0.190
2020/01/31 11:55:32.0	301.590	-0.310	0.030	0.180
2020/01/31 11:55:32.1	301.600	-0.300	-0.000	0.180
2020/01/31 11:55:32.2	301.600	-0.290	-0.040	0.180
2020/01/31 11:55:32.3	301.610	-0.280	-0.080	0.170
2020/01/31 11:55:32.4	301.610	-0.270	-0.120	0.170
2020/01/31 11:55:32.5	301.610	-0.260	-0.160	0.170
2020/01/31 11:55:32.6	301.620	-0.240	-0.200	0.170
2020/01/31 11:55:32.7	301.630	-0.220	-0.240	0.180
2020/01/31 11:55:32.8	301.640	-0.210	-0.280	0.180
2020/01/31 11:55:32.9	301.650	-0.190	-0.320	0.190
2020/01/31 11:55:33.0	301.660	-0.170	-0.360	0.200
2020/01/31 11:55:33.1	301.670	-0.150	-0.400	0.200
2020/01/31 11:55:33.2	301.690	-0.130	-0.440	0.220
2020/01/31 11:55:33.3	301.700	-0.110	-0.470	0.230
2020/01/31 11:55:33.4	301.710	-0.090	-0.510	0.240
2020/01/31 11:55:33.5	301.720	-0.070	-0.540	0.260
2020/01/31 11:55:33.6	301.730	-0.050	-0.570	0.270
2020/01/31 11:55:33.7	301.740	-0.030	-0.600	0.290
2020/01/31 11:55:33.8	301.760	-0.010	-0.630	0.310
2020/01/31 11:55:33.9	301.770	0.010	-0.650	0.320
2020/01/31 11:55:34.0	301.780	0.030	-0.670	0.340
2020/01/31 11:55:34.1	301.790	0.050	-0.690	0.360
2020/01/31 11:55:34.2	301.810	0.070	-0.710	0.380
2020/01/31 11:55:34.3	301.820	0.090	-0.720	0.400
2020/01/31 11:55:34.4	301.830	0.110	-0.740	0.420
2020/01/31 11:55:34.5	301.840	0.130	-0.750	0.430
2020/01/31 11:55:34.6	301.850	0.150	-0.750	0.450
2020/01/31 11:55:34.7	301.860	0.160	-0.760	0.470
2020/01/31 11:55:34.8	301.880	0.180	-0.760	0.490
2020/01/31 11:55:34.9	301.890	0.190	-0.760	0.500
2020/01/31 11:55:35.0	301.900	0.210	-0.760	0.520
2020/01/31 11:55:35.1	301.910	0.220	-0.760	0.530
2020/01/31 11:55:35.2	301.920	0.230	-0.750	0.540
2020/01/31 11:55:35.3	301.930	0.240	-0.740	0.560
2020/01/31 11:55:35.4	301.940	0.250	-0.740	0.570
2020/01/31 11:55:35.5	301.960	0.260	-0.730	0.580
2020/01/31 11:55:35.6	301.970	0.270	-0.710	0.590
2020/01/31 11:55:35.7	301.980	0.280	-0.700	0.600
2020/01/31 11:55:35.8	301.990	0.290	-0.690	0.610
2020/01/31 11:55:35.9	302.000	0.290	-0.680	0.610
2020/01/31 11:55:36.0	302.010	0.300	-0.660	0.620
2020/01/31 11:55:36.1	302.020	0.300	-0.650	0.620
2020/01/31 11:55:36.2	302.020	0.310	-0.630	0.630
2020/01/31 11:55:36.3	302.030	0.310	-0.620	0.630
2020/01/31 11:55:36.4	302.040	0.310	-0.600	0.630
2020/01/31 11:55:36.5	302.040	0.310	-0.590	0.630
2020/01/31 11:55:36.6	302.040	0.310	-0.570	0.640
2020/01/31 11:55:36.7	302.040	0.310	-0.550	0.640
2020/01/31 11:55:36.8	302.040	0.310	-0.540	0.640
2020/01/31 11:55:36.9	302.040	0.310	-0.520	0.650
2020/01/31 11:55:37.0	302.040	0.300	-0.510	0.650
2020/01/31 11:55:37.1	302.030	0.300	-0.490	0.650
2020/01/31 11:55:37.2	302.020	0.290	-0.480	0.660
2020/01/31 11:55:37.3	302.020	0.280	-0.460	0.660
2020/01/31 11:55:37.4	302.010	0.280	-0.440	0.660
2020/01/31 11:55:37.5	301.990	0.270	-0.430	0.670
2020/01/31 11:55:37.6	301.980	0.260	-0.410	0.670
2020/01/31 11:55:37.7	301.970	0.240	-0.390	0.680
2020/01/31 11:55:37.8	301.950	0.230	-0.370	0.680
2020/01/31 11:55:37.9	301.930	0.220	-0.360	0.690
2020/01/31 11:55:38.0	301.920	0.200	-0.340	0.690
2020/01/31 11:55:38.1	301.900	0.190	-0.320	0.700
2020/01/31 11:55:38.2	301.880	0.170	-0.300	0.700
2020/01/31 11:55:38.3	301.850	0.160	-0.280	0.710
2020/01/31 11:55:38.4	301.830	0.140	-0.260	0.720
2020/01/31 11:55:38.5	301.800	0.120	-0.230	0.720
2020/01/31 11:55:38.6	301.770	0.100	-0.210	0.730
2020/01/31 11:55:38.7	301.750	0.080	-0.190	0.740
2020/01/31 11:55:38.8	301.730	0.060	-0.170	0.740
2020/01/31 11:55:38.9	301.700	0.040	-0.150	0.750
2020/01/31 11:55:39.0	301.680	0.020	-0.120	0.760
2020/01/31 11:55:39.1	301.650	-0.010	-0.100	0.760
2020/01/31 11:55:39.2	301.620	-0.030	-0.080	0.770
2020/01/31 11:55:39.3	301.600	-0.050	-0.050	0.780
2020/01/31 11:55:39.4	301.570	-0.070	-0.030	0.790
2020/01/31 11:55:39.5	301.550	-0.090	-0.010	0.790
2020/01/31 11:55:39.6	301.520	-0.120	0.010	0.800
2020/01/31 11:55:39.7	301.490	-0.140	0.030	0.800
2020/01/31 11:55:39.8	301.470	-0.160	0.050	0.810
2020/01/31 11:55:39.9	301.440	-0.180	0.070	0.810
2020/01/31 11:55:40.0	301.420	-0.200	0.090	0.820
2020/01/31 11:55:40.1	301.390	-0.220	0.110	0.820
2020/01/31 11:55:40.2	301.370	-0.240	0.120	0.820
2020/01/31 11:55:40.3	301.350	-0.250	0.140	0.820
2020/01/31 11:55:40.4	301.320	-0.270	0.150	0.820
2020/01/31 11:55:40.5	301.300	-0.280	0.160	0.820
2020/01/31 11:55:40.6	301.280	-0.300	0.170	0.820
2020/01/31 11:55:40.7	301.260	-0.310	0.170	0.810
2020/01/31 11:55:40.8	301.250	-0.320	0.170	0.800
2020/01/31 11:55:40.9	301.230	-0.330	0.170	0.790
2020/01/31 11:55:41.0	301.210	-0.330	0.170	0.780
2020/01/31 11:55:41.1	301.200	-0.340	0.160	0.770
2020/01/31 11:55:41.2	301.180	-0.340	0.150	0.750
2020/01/31 11:55:41.3	301.170	-0.350	0.140	0.730
2020/01/31 11:55:41.4	301.160	-0.350	0.120	0.710
2020/01/31 11:55:41.5	301.150	-0.340	0.110	0.680
2020/01/31 11:55:41.6	301.150	-0.340	0.090	0.660
2020/01/31 11:55:41.7	301.140	-0.340	0.060	0.630
2020/01/31 11:55:41.8	301.140	-0.330	0.040	0.600
2020/01/31 11:55:41.9	301.140	-0.320	0.010	0.570
2020/01/31 11:55:42.0	301.140	-0.310	-0.020	0.540
2020/01/31 11:55:42.1	301.140	-0.300	-0.050	0.510
2020/01/31 11:55:42.2	301.150	-0.290	-0.080	0.470
2020/01/31 11:55:42.3	301.150	-0.270	-0.120	0.440
2020/01/31 11:55:42.4	301.160	-0.250	-0.150	0.400
2020/01/31 11:55:42.5	301.170	-0.240	-0.190	0.370
2020/01/31 11:55:42.6	301.180	-0.220	-0.220	0.330
2020/01/31 11:55:42.7	301.200	-0.200	-0.250	0.300
2020/01/31 11:55:42.8	301.210	-0.180	-0.290	0.270
2020/01/31 11:55:42.9	301.230	-0.160	-0.320	0.230
2020/01/31 11:55:43.0	301.240	-0.130	-0.350	0.200
2020/01/31 11:55:43.1	301.260	-0.110	-0.380	0.170
2020/01/31 11:55:43.2	301.280	-0.090	-0.400	0.150
2020/01/31 11:55:43.3	301.300	-0.070	-0.430	0.120
2020/01/31 11:55:43.4	301.320	-0.040	-0.450	0.100
2020/01/31 11:55:43.5	301.340	-0.020	-0.470	0.080
2020/01/31 11:55:43.6	301.360	0.000	-0.490	0.060
2020/01/31 11:55:43.7	301.380	0.020	-0.510	0.040
2020/01/31 11:55:43.8	301.400	0.040	-0.520	0.030
2020/01/31 11:55:43.9	301.420	0.060	-0.530	0.020
2020/01/31 11:55:44.0	301.430	0.080	-0.540	0.010
2020/01/31 11:55:44.1	301.450	0.100	-0.540	0.000
2020/01/31 11:55:44.2	301.470	0.120	-0.540	0.000
2020/01/31 11:55:44.3	301.480	0.130	-0.540	-0.000
2020/01/31 11:55:44.4	301.500	0.150	-0.540	0.000
2020/01/31 11:55:44.5	301.520	0.160	-0.530	0.000
2020/01/31 11:55:44.6	301.530	0.170	-0.520	0.010
2020/01/31 11:55:44.7	301.550	0.180	-0.510	0.020
2020/01/31 11:55:44.8	301.560	0.190	-0.490	0.030
2020/01/31 11:55:44.9	301.570	0.200	-0.470	0.040
2020/01/31 11:55:45.0	301.580	0.200	-0.450	0.060
2020/01/31 11:55:45.1	301.590	0.200	-0.420	0.080
2020/01/31 11:55:45.2	301.600	0.200	-0.400	0.100
2020/01/31 11:55:45.3	301.610	0.200	-0.370	0.120
2020/01/31 11:55:45.4	301.620	0.200	-0.340	0.150
2020/01/31 11:55:45.5	301.640	0.200	-0.300	0.170
2020/01/31 11:55:45.6	301.640	0.190	-0.270	0.200
2020/01/31 11:55:45.7	301.640	0.180	-0.230	0.230
2020/01/31 11:55:45.8	301.650	0.170	-0.190	0.260
2020/01/31 11:55:45.9	301.650	0.160	-0.160	0.290
2020/01/31 11:55:46.0	301.650	0.150	-0.120	0.320
2020/01/31 11:55:46.1	301.650	0.140	-0.080	0.360
2020/01/31 11:55:46.2	301.650	0.130	-0.040	0.390
2020/01/31 11:55:46.3	301.650	0.110	-0.010	0.420
2020/01/31 11:55:46.4	301.640	0.100	0.030	0.460
2020/01/31 11:55:46.5	301.650	0.080	0.070	0.490
2020/01/31 11:55:46.6	301.640	0.070	0.100	0.520
2020/01/31 11:55:46.7	301.640	0.050	0.130	0.560
2020/01/31 11:55:46.8	301.630	0.040	0.150	0.590
2020/01/31 11:55:46.9	301.630	0.020	0.170	0.620
2020/01/31 11:55:47.0	301.620	0.000	0.190	0.650
2020/01/31 11:55:47.1	301.610	-0.010	0.210	0.670
2020/01/31 11:55:47.2	301.610	-0.020	0.220	0.700
2020/01/31 11:55:47.3	301.600	-0.040	0.220	0.720
2020/01/31 11:55:47.4	301.590	-0.050	0.230	0.750
2020/01/31 11:55:47.5	301.580	-0.060	0.220	0.770
2020/01/31 11:55:47.6	301.570	-0.070	0.220	0.790
2020/01/31 11:55:47.7	301.570	-0.080	0.210	0.810
2020/01/31 11:55:47.8	301.560	-0.090	0.190	0.820
2020/01/31 11:55:47.9	301.550	-0.090	0.170	0.840
2020/01/31 11:55:48.0	301.540	-0.100	0.150	0.850
2020/01/31 11:55:48.1	301.520	-0.100	0.130	0.870
2020/01/31 11:55:48.2	301.510	-0.100	0.100	0.880
2020/01/31 11:55:48.3	301.500	-0.100	0.060	0.890
2020/01/31 11:55:48.4	301.490	-0.100	0.030	0.890
2020/01/31 11:55:48.5	301.470	-0.100	-0.020	0.900
2020/01/31 11:55:48.6	301.460	-0.100	-0.060	0.910
2020/01/31 11:55:48.7	301.440	-0.090	-0.100	0.910
2020/01/31 11:55:48.8	301.420	-0.080	-0.140	0.920
2020/01/31 11:55:48.9	301.400	-0.080	-0.190	0.920
2020/01/31 11:55:49.0	301.380	-0.070	-0.240	0.920
2020/01/31 11:55:49.1	301.360	-0.060	-0.280	0.920
2020/01/31 11:55:49.2	301.330	-0.040	-0.330	0.920
2020/01/31 11:55:49.3	301.310	-0.030	-0.370	0.920
2020/01/31 11:55:49.4	301.280	-0.020	-0.420	0.920
2020/01/31 11:55:49.5	301.240	-0.010	-0.460	0.920
2020/01/31 11:55:49.6	301.210	0.010	-0.500	0.910
2020/01/31 11:55:49.7	301.180	0.020	-0.540	0.910
2020/01/31 11:55:49.8	301.150	0.040	-0.580	0.900
2020/01/31 11:55:49.9	301.110	0.050	-0.610	0.900
2020/01/31 11:55:50.0	301.080	0.070	-0.650	0.890
2020/01/31 11:55:50.1	301.040	0.080	-0.680	0.890
2020/01/31 11:55:50.2	301.000	0.100	-0.710	0.880
2020/01/31 11:55:50.3	300.970	0.110	-0.740	0.870
2020/01/31 11:55:50.4	300.930	0.130	-0.760	0.860
2020/01/31 11:55:50.5	300.900	0.140	-0.780	0.850
2020/01/31 11:55:50.6	300.860	0.150	-0.810	0.840
2020/01/31 11:55:50.7	300.820	0.160	-0.820	0.830
2020/01/31 11:55:50.8	300.790	0.170	-0.840	0.810
2020/01/31 11:55:50.9	300.750	0.180	-0.860	0.800
2020/01/31 11:55:51.0	300.720	0.190	-0.870	0.780
2020/01/31 11:55:51.1	300.690	0.200	-0.880	0.770
2020/01/31 11:55:51.2	300.660	0.200	-0.890	0.750
2020/01/31 11:55:51.3	300.630	0.210	-0.890	0.740
2020/01/31 11:55:51.4	300.600	0.210	-0.900	0.720
2020/01/31 11:55:51.5	300.580	0.210	-0.900	0.700
2020/01/31 11:55:51.6	300.560	0.210	-0.900	0.680
2020/01/31 11:55:51.7	300.540	0.200	-0.900	0.660
2020/01/31 11:55:51.8	300.520	0.200	-0.890	0.640
2020/01/31 11:55:51.9	300.500	0.190	-0.890	0.620
2020/01/31 11:55:52.0	300.480	0.190	-0.880	0.600
2020/01/31 11:55:52.1	300.470	0.180	-0.870	0.580
2020/01/31 11:55:52.2	300.460	0.170	-0.850	0.560
2020/01/31 11:55:52.3	300.450	0.160	-0.840	0.540
2020/01/31 11:55:52.4	300.440	0.150	-0.820	0.520
2020/01/31 11:55:52.5	300.440	0.130	-0.790	0.500
2020/01/31 11:55:52.6	300.440	0.120	-0.770	0.480
2020/01/31 11:55:52.7	300.440	0.100	-0.740	0.460
2020/01/31 11:55:52.8	300.440	0.080	-0.710	0.440
2020/01/31 11:55:52.9	300.440	0.070	-0.670	0.420
2020/01/31 11:55:53.0	300.450	0.050	-0.630	0.400
2020/01/31 11:55:53.1	300.460	0.030	-0.590	0.390
2020/01/31 11:55:53.2	300.460	0.010	-0.550	0.370
2020/01/31 11:55:53.3	300.480	-0.010	-0.510	0.360
2020/01/31 11:55:53.4	300.490	-0.030	-0.460	0.340
2020/01/31 11:55:53.5	300.490	-0.050	-0.410	0.330
2020/01/31 11:55:53.6	300.510	-0.070	-0.360	0.320
2020/01/31 11:55:53.7	300.520	-0.090	-0.310	0.310
2020/01/31 11:55:53.8	300.540	-0.110	-0.260	0.300
2020/01/31 11:55:53.9	300.560	-0.130	-0.200	0.300
2020/01/31 11:55:54.0	300.580	-0.150	-0.150	0.290
2020/01/31 11:55:54.1	300.600	-0.170	-0.090	0.290
2020/01/31 11:55:54.2	300.610	-0.180	-0.040	0.290
2020/01/31 11:55:54.3	300.630	-0.200	0.020	0.290
2020/01/31 11:55:54.4	300.650	-0.220	0.070	0.300
2020/01/31 11:55:54.5	300.680	-0.230	0.120	0.310
2020/01/31 11:55:54.6	300.700	-0.250	0.170	0.310
2020/01/31 11:55:54.7	300.720	-0.260	0.220	0.320
2020/01/31 11:55:54.8	300.740	-0.270	0.270	0.340
2020/01/31 11:55:54.9	300.760	-0.280	0.320	0.350
2020/01/31 11:55:55.0	300.770	-0.290	0.360	0.370
2020/01/31 11:55:55.1	300.790	-0.290	0.400	0.380
2020/01/31 11:55:55.2	300.810	-0.300	0.440	0.400
2020/01/31 11:55:55.3	300.830	-0.300	0.470	0.420
2020/01/31 11:55:55.4	300.840	-0.300	0.500	0.440
2020/01/31 11:55:55.5	300.860	-0.300	0.530	0.460
2020/01/31 11:55:55.6	300.880	-0.300	0.550	0.480
2020/01/31 11:55:55.7	300.900	-0.300	0.560	0.500
2020/01/31 11:55:55.8	300.910	-0.290	0.580	0.520
2020/01/31 11:55:55.9	300.930	-0.280	0.580	0.540
2020/01/31 11:55:56.0	300.940	-0.280	0.590	0.560
2020/01/31 11:55:56.1	300.960	-0.270	0.590	0.580
2020/01/31 11:55:56.2	300.970	-0.260	0.580	0.600
2020/01/31 11:55:56.3	300.980	-0.240	0.570	0.620
2020/01/31 11:55:56.4	300.990	-0.230	0.560	0.630
2020/01/31 11:55:56.5	301.010	-0.220	0.540	0.650
2020/01/31 11:55:56.6	301.020	-0.200	0.530	0.670
2020/01/31 11:55:56.7	301.020	-0.190	0.510	0.690
2020/01/31 11:55:56.8	301.030	-0.170	0.480	0.700
2020/01/31 11:55:56.9	301.040	-0.150	0.460	0.720
2020/01/31 11:55:57.0	301.040	-0.140	0.430	0.740
2020/01/31 11:55:57.1	301.050	-0.120	0.400	0.750
2020/01/31 11:55:57.2	301.050	-0.100	0.370	0.770
2020/01/31 11:55:57.3	301.050	-0.080	0.340	0.790
2020/01/31 11:55:57.4	301.050	-0.070	0.310	0.800
2020/01/31 11:55:57.5	301.050	-0.050	0.280	0.820
2020/01/31 11:55:57.6	301.040	-0.030	0.240	0.840
2020/01/31 11:55:57.7	301.040	-0.020	0.210	0.850
2020/01/31 11:55:57.8	301.030	0.000	0.180	0.870
2020/01/31 11:55:57.9	301.030	0.020	0.150	0.880
2020/01/31 11:55:58.0	301.020	0.030	0.120	0.900
2020/01/31 11:55:58.1	301.010	0.040	0.090	0.910
2020/01/31 11:55:58.2	301.000	0.060	0.060	0.920
2020/01/31 11:55:58.3	300.990	0.070	0.030	0.940
2020/01/31 11:55:58.4	300.980	0.080	0.000	0.950
2020/01/31 11:55:58.5	300.970	0.090	-0.030	0.960
2020/01/31 11:55:58.6	300.950	0.100	-0.050	0.970
2020/01/31 11:55:58.7	300.940	0.100	-0.080	0.980
2020/01/31 11:55:58.8	300.920	0.110	-0.100	0.990
2020/01/31 11:55:58.9	300.910	0.120	-0.120	1.000
2020/01/31 11:55:59.0	300.890	0.120	-0.150	1.010
2020/01/31 11:55:59.1	300.870	0.130	-0.170	1.010
2020/01/31 11:55:59.2	300.860	0.130	-0.190	1.020
2020/01/31 11:55:59.3	300.840	0.130	-0.210	1.030
2020/01/31 11:55:59.4	300.820	0.130	-0.230	1.030
2020/01/31 11:55:59.5	300.800	0.130	-0.250	1.040
2020/01/31 11:55:59.6	300.780	0.140	-0.280	1.040
2020/01/31 11:55:59.7	300.760	0.140	-0.300	1.040
2020/01/31 11:55:59.8	300.740	0.140	-0.320	1.040
2020/01/31 11:55:59.9	300.720	0.140	-0.340	1.040
2020/01/31 11:56:00.0	300.690	0.140	-0.370	1.040
2020/01/31 11:56:00.1	300.670	0.130	-0.400	1.040
2020/01/31 11:56:00.2	300.650	0.130	-0.420	1.030
2020/01/31 11:56:00.3	300.640	0.130	-0.450	1.030
2020/01/31 11:56:00.4	300.620	0.130	-0.480	1.020
2020/01/31 11:56:00.5	300.600	0.130	-0.510	1.010
2020/01/31 11:56:00.6	300.580	0.130	-0.540	1.000
2020/01/31 11:56:00.7	300.570	0.130	-0.580	0.990
2020/01/31 11:56:00.8	300.550	0.130	-0.610	0.980
2020/01/31 11:56:00.9	300.530	0.130	-0.650	0.970
2020/01/31 11:56:01.0	300.520	0.130	-0.680	0.960
2020/01/31 11:56:01.1	300.500	0.130	-0.720	0.940
2020/01/31 11:56:01.2	300.490	0.130	-0.760	0.930
2020/01/31 11:56:01.3	300.470	0.140	-0.790	0.920
2020/01/31 11:56:01.4	300.460	0.140	-0.830	0.900
2020/01/31 11:56:01.5	300.440	0.140	-0.870	0.890
2020/01/31 11:56:01.6	300.430	0.140	-0.900	0.870
2020/01/31 11:56:01.7	300.420	0.150	-0.930	0.850
2020/01/31 11:56:01.8	300.400	0.150	-0.970	0.840
2020/01/31 11:56:01.9	300.390	0.150	-0.990	0.820
2020/01/31 11:56:02.0	300.380	0.150	-1.020	0.800
2020/01/31 11:56:02.1	300.370	0.160	-1.050	0.780
2020/01/31 11:56:02.2	300.350	0.160	-1.070	0.760
2020/01/31 11:56:02.3	300.340	0.160	-1.090	0.740
2020/01/31 11:56:02.4	300.340	0.160	-1.110	0.720
2020/01/31 11:56:02.5	300.320	0.170	-1.120	0.700
2020/01/31 11:56:02.6	300.310	0.170	-1.140	0.670
2020/01/31 11:56:02.7	300.310	0.170	-1.150	0.650
2020/01/31 11:56:02.8	300.300	0.170	-1.150	0.620
2020/01/31 11:56:02.9	300.300	0.170	-1.160	0.590
2020/01/31 11:56:03.0	300.300	0.170	-1.160	0.570
2020/01/31 11:56:03.1	300.300	0.160	-1.150	0.540
2020/01/31 11:56:03.2	300.300	0.160	-1.140	0.510
2020/01/31 11:56:03.3	300.300	0.160	-1.130	0.480
2020/01/31 11:56:03.4	300.310	0.150	-1.120	0.440
2020/01/31 11:56:03.5	300.310	0.140	-1.100	0.410
2020/01/31 11:56:03.6	300.320	0.130	-1.080	0.380
2020/01/31 11:56:03.7	300.330	0.120	-1.050	0.340
2020/01/31 11:56:03.8	300.340	0.110	-1.030	0.310
2020/01/31 11:56:03.9	300.350	0.100	-0.990	0.270
2020/01/31 11:56:04.0	300.360	0.090	-0.960	0.240
2020/01/31 11:56:04.1	300.380	0.070	-0.920	0.200
2020/01/31 11:56:04.2	300.390	0.050	-0.870	0.170
2020/01/31 11:56:04.3	300.410	0.030	-0.830	0.130
2020/01/31 11:56:04.4	300.430	0.020	-0.780	0.100
2020/01/31 11:56:04.5	300.450	-0.010	-0.730	0.070
2020/01/31 11:56:04.6	300.470	-0.030	-0.670	0.040
2020/01/31 11:56:04.7	300.490	-0.050	-0.620	0.010
2020/01/31 11:56:04.8	300.510	-0.070	-0.560	-0.010
2020/01/31 11:56:04.9	300.530	-0.100	-0.500	-0.040
2020/01/31 11:56:05.0	300.550	-0.120	-0.440	-0.060
2020/01/31 11:56:05.1	300.580	-0.150	-0.370	-0.080
2020/01/31 11:56:05.2	300.600	-0.170	-0.310	-0.090
2020/01/31 11:56:05.3	300.620	-0.200	-0.240	-0.110
2020/01/31 11:56:05.4	300.650	-0.220	-0.180	-0.120
2020/01/31 11:56:05.5	300.680	-0.250	-0.110	-0.130
2020/01/31 11:56:05.6	300.700	-0.270	-0.050	-0.130
2020/01/31 11:56:05.7	300.720	-0.290	0.020	-0.130
2020/01/31 11:56:05.8	300.750	-0.320	0.080	-0.130
2020/01/31 11:56:05.9	300.770	-0.340	0.140	-0.130
2020/01/31 11:56:06.0	300.790	-0.360	0.200	-0.120
2020/01/31 11:56:06.1	300.820	-0.380	0.260	-0.110
2020/01/31 11:56:06.2	300.840	-0.400	0.310	-0.090
2020/01/31 11:56:06.3	300.860	-0.410	0.370	-0.080
2020/01/31 11:56:06.4	300.880	-0.430	0.420	-0.060
2020/01/31 11:56:06.5	300.910	-0.440	0.470	-0.040
2020/01/31 11:56:06.6	300.930	-0.450	0.510	-0.010
2020/01/31 11:56:06.7	300.940	-0.450	0.550	0.020
2020/01/31 11:56:06.8	300.960	-0.460	0.590	0.050
2020/01/31 11:56:06.9	300.970	-0.460	0.620	0.080
2020/01/31 11:56:07.0	300.990	-0.460	0.650	0.110
2020/01/31 11:56:07.1	301.000	-0.460	0.670	0.140
2020/01/31 11:56:07.2	301.010	-0.450	0.690	0.180
2020/01/31 11:56:07.3	301.020	-0.450	0.710	0.220
2020/01/31 11:56:07.4	301.020	-0.440	0.720	0.260
2020/01/31 11:56:07.5	301.030	-0.420	0.720	0.300
2020/01/31 11:56:07.6	301.030	-0.410	0.730	0.340
2020/01/31 11:56:07.7	301.030	-0.390	0.720	0.380
2020/01/31 11:56:07.8	301.030	-0.370	0.720	0.420
2020/01/31 11:56:07.9	301.030	-0.340	0.710	0.460
2020/01/31 11:56:08.0	301.020	-0.320	0.690	0.500
2020/01/31 11:56:08.1	301.020	-0.290	0.670	0.540
2020/01/31 11:56:08.2	301.010	-0.260	0.650	0.570
2020/01/31 11:56:08.3	301.010	-0.230	0.620	0.610
2020/01/31 11:56:08.4	301.000	-0.200	0.590	0.650
2020/01/31 11:56:08.5	300.980	-0.160	0.560	0.680
2020/01/31 11:56:08.6	300.970	-0.130	0.530	0.710
2020/01/31 11:56:08.7	300.960	-0.090	0.490	0.750
2020/01/31 11:56:08.8	300.950	-0.060	0.450	0.780
2020/01/31 11:56:08.9	300.930	-0.020	0.400	0.810
2020/01/31 11:56:09.0	300.920	0.020	0.360	0.840
2020/01/31 11:56:09.1	300.900	0.060	0.320	0.870
2020/01/31 11:56:09.2	300.880	0.090	0.270	0.890
2020/01/31 11:56:09.3	300.860	0.130	0.230	0.920
2020/01/31 11:56:09.4	300.840	0.170	0.180	0.940
2020/01/31 11:56:09.5	300.820	0.200	0.140	0.970
2020/01/31 11:56:09.6	300.790	0.240	0.090	0.990
2020/01/31 11:56:09.7	300.770	0.270	0.050	1.010
2020/01/31 11:56:09.8	300.750	0.300	0.010	1.020
2020/01/31 11:56:09.9	300.720	0.330	-0.030	1.040
2020/01/31 11:56:10.0	300.690	0.350	-0.060	1.050
2020/01/31 11:56:10.1	300.670	0.380	-0.100	1.060
2020/01/31 11:56:10.2	300.640	0.400	-0.130	1.070
2020/01/31 11:56:10.3	300.620	0.420	-0.160	1.080
2020/01/31 11:56:10.4	300.590	0.440	-0.190	1.080
2020/01/31 11:56:10.5	300.560	0.450	-0.220	1.080
2020/01/31 11:56:10.6	300.540	0.470	-0.240	1.070
2020/01/31 11:56:10.7	300.510	0.480	-0.270	1.070
2020/01/31 11:56:10.8	300.490	0.480	-0.290	1.060
2020/01/31 11:56:10.9	300.470	0.490	-0.310	1.050
2020/01/31 11:56:11.0	300.440	0.490	-0.330	1.030
2020/01/31 11:56:11.1	300.420	0.490	-0.350	1.020
2020/01/31 11:56:11.2	300.400	0.490	-0.360	1.000
2020/01/31 11:56:11.3	300.380	0.490	-0.380	0.980
2020/01/31 11:56:11.4	300.370	0.490	-0.390	0.950
2020/01/31 11:56:11.5	300.360	0.480	-0.410	0.930
2020/01/31 11:56:11.6	300.340	0.470	-0.420	0.900
2020/01/31 11:56:11.7	300.330	0.460	-0.430	0.870
2020/01/31 11:56:11.8	300.310	0.450	-0.440	0.840
2020/01/31 11:56:11.9	300.300	0.440	-0.450	0.810
2020/01/31 11:56:12.0	300.290	0.430	-0.460	0.780
2020/01/31 11:56:12.1	300.280	0.420	-0.470	0.750
2020/01/31 11:56:12.2	300.270	0.400	-0.480	0.710
2020/01/31 11:56:12.3	300.270	0.390	-0.490	0.670
2020/01/31 11:56:12.4	300.260	0.370	-0.500	0.630
2020/01/31 11:56:12.5	300.250	0.350	-0.510	0.590
2020/01/31 11:56:12.6	300.250	0.340	-0.520	0.550
2020/01/31 11:56:12.7	300.250	0.320	-0.530	0.510
2020/01/31 11:56:12.8	300.250	0.300	-0.540	0.470
2020/01/31 11:56:12.9	300.260	0.280	-0.550	0.420
2020/01/31 11:56:13.0	300.270	0.260	-0.560	0.380
2020/01/31 11:56:13.1	300.270	0.240	-0.570	0.330
2020/01/31 11:56:13.2	300.290	0.220	-0.580	0.280
2020/01/31 11:56:13.3	300.300	0.200	-0.590	0.240
2020/01/31 11:56:13.4	300.310	0.180	-0.600	0.190
2020/01/31 11:56:13.5	300.330	0.160	-0.610	0.140
2020/01/31 11:56:13.6	300.350	0.140	-0.620	0.100
2020/01/31 11:56:13.7	300.360	0.110	-0.630	0.050
2020/01/31 11:56:13.8	300.380	0.090	-0.640	0.000
2020/01/31 11:56:13.9	300.400	0.070	-0.650	-0.040
2020/01/31 11:56:14.0	300.430	0.040	-0.660	-0.090
2020/01/31 11:56:14.1	300.450	0.020	-0.670	-0.130
2020/01/31 11:56:14.2	300.470	-0.010	-0.680	-0.170
2020/01/31 11:56:14.3	300.490	-0.030	-0.690	-0.210
2020/01/31 11:56:14.4	300.520	-0.060	-0.690	-0.240
2020/01/31 11:56:14.5	300.530	-0.090	-0.700	-0.280
2020/01/31 11:56:14.6	300.560	-0.110	-0.700	-0.310
2020/01/31 11:56:14.7	300.580	-0.140	-0.710	-0.340
2020/01/31 11:56:14.8	300.610	-0.160	-0.710	-0.360
2020/01/31 11:56:14.9	300.640	-0.190	-0.710	-0.390
2020/01/31 11:56:15.0	300.660	-0.220	-0.710	-0.410
2020/01/31 11:56:15.1	300.690	-0.240	-0.710	-0.420
2020/01/31 11:56:15.2	300.710	-0.270	-0.700	-0.440
2020/01/31 11:56:15.3	300.740	-0.290	-0.700	-0.450
2020/01/31 11:56:15.4	300.760	-0.320	-0.690	-0.460
2020/01/31 11:56:15.5	300.790	-0.340	-0.680	-0.460
2020/01/31 11:56:15.6	300.810	-0.360	-0.680	-0.460
2020/01/31 11:56:15.7	300.830	-0.390	-0.670	-0.450
2020/01/31 11:56:15.8	300.850	-0.410	-0.660	-0.440
2020/01/31 11:56:15.9	300.870	-0.430	-0.650	-0.430
2020/01/31 11:56:16.0	300.880	-0.450	-0.630	-0.410
2020/01/31 11:56:16.1	300.890	-0.470	-0.620	-0.390
2020/01/31 11:56:16.2	300.910	-0.480	-0.610	-0.360
2020/01/31 11:56:16.3	300.920	-0.500	-0.590	-0.340
2020/01/31 11:56:16.4	300.920	-0.510	-0.570	-0.300
2020/01/31 11:56:16.5	300.930	-0.520	-0.550	-0.270
2020/01/31 11:56:16.6	300.930	-0.530	-0.540	-0.230
2020/01/31 11:56:16.7	300.930	-0.540	-0.520	-0.190
2020/01/31 11:56:16.8	300.930	-0.550	-0.500	-0.140
2020/01/31 11:56:16.9	300.930	-0.550	-0.480	-0.100
2020/01/31 11:56:17.0	300.920	-0.550	-0.460	-0.050
2020/01/31 11:56:17.1	300.910	-0.560	-0.430	0.000
2020/01/31 11:56:17.2	300.900	-0.560	-0.410	0.050
2020/01/31 11:56:17.3	300.890	-0.550	-0.390	0.110
2020/01/31 11:56:17.4	300.880	-0.550	-0.360	0.160
2020/01/31 11:56:17.5	300.880	-0.540	-0.340	0.220
2020/01/31 11:56:17.6	300.870	-0.540	-0.310	0.280
2020/01/31 11:56:17.7	300.850	-0.530	-0.290	0.330
2020/01/31 11:56:17.8	300.840	-0.520	-0.260	0.390
2020/01/31 11:56:17.9	300.820	-0.500	-0.240	0.450
2020/01/31 11:56:18.0	300.810	-0.490	-0.210	0.510
2020/01/31 11:56:18.1	300.790	-0.470	-0.190	0.570
2020/01/31 11:56:18.2	300.780	-0.460	-0.160	0.630
2020/01/31 11:56:18.3	300.760	-0.440	-0.140	0.680
2020/01/31 11:56:18.4	300.750	-0.420	-0.110	0.740
2020/01/31 11:56:18.5	300.730	-0.400	-0.090	0.800
2020/01/31 11:56:18.6	300.710	-0.380	-0.070	0.850
2020/01/31 11:56:18.7	300.700	-0.360	-0.040	0.910
2020/01/31 11:56:18.8	300.680	-0.330	-0.020	0.960
2020/01/31 11:56:18.9	300.670	-0.310	0.000	1.010
2020/01/31 11:56:19.0	300.660	-0.290	0.020	1.060
2020/01/31 11:56:19.1	300.640	-0.260	0.040	1.110
2020/01/31 11:56:19.2	300.630	-0.240	0.060	1.150
2020/01/31 11:56:19.3	300.620	-0.210	0.080	1.190
2020/01/31 11:56:19.4	300.610	-0.190	0.090	1.230
2020/01/31 11:56:19.5	300.600	-0.160	0.110	1.270
2020/01/31 11:56:19.6	300.590	-0.140	0.120	1.300
2020/01/31 11:56:19.7	300.580	-0.110	0.130	1.330
2020/01/31 11:56:19.8	300.580	-0.090	0.140	1.360
2020/01/31 11:56:19.9	300.570	-0.060	0.150	1.380
2020/01/31 11:56:20.0	300.560	-0.040	0.150	1.400
2020/01/31 11:56:20.1	300.560	-0.010	0.160	1.420
2020/01/31 11:56:20.2	300.550	0.010	0.160	1.430
2020/01/31 11:56:20.3	300.550	0.030	0.160	1.440
2020/01/31 11:56:20.4	300.540	0.060	0.150	1.440
2020/01/31 11:56:20.5	300.550	0.080	0.150	1.440
2020/01/31 11:56:20.6	300.550	0.100	0.140	1.440
2020/01/31 11:56:20.7	300.550	0.120	0.140	1.430
2020/01/31 11:56:20.8	300.550	0.150	0.120	1.420
2020/01/31 11:56:20.9	300.550	0.170	0.110	1.410
2020/01/31 11:56:21.0	300.550	0.190	0.100	1.400
2020/01/31 11:56:21.1	300.550	0.210	0.080	1.380
2020/01/31 11:56:21.2	300.550	0.230	0.060	1.360
2020/01/31 11:56:21.3	300.550	0.250	0.040	1.340
2020/01/31 11:56:21.4	300.550	0.270	0.020	1.310
2020/01/31 11:56:21.5	300.560	0.290	-0.000	1.280
2020/01/31 11:56:21.6	300.560	0.310	-0.030	1.250
2020/01/31 11:56:21.7	300.570	0.330	-0.050	1.220
2020/01/31 11:56:21.8	300.570	0.350	-0.070	1.180
2020/01/31 11:56:21.9	300.580	0.370	-0.090	1.150
2020/01/31 11:56:22.0	300.580	0.390	-0.110	1.110
2020/01/31 11:56:22.1	300.590	0.400	-0.130	1.070
2020/01/31 11:56:22.2	300.590	0.420	-0.150	1.040
2020/01/31 11:56:22.3	300.600	0.430	-0.170	1.000
2020/01/31 11:56:22.4	300.600	0.450	-0.190	0.960
2020/01/31 11:56:22.5	300.620	0.460	-0.200	0.920
2020/01/31 11:56:22.6	300.620	0.470	-0.210	0.880
2020/01/31 11:56:22.7	300.630	0.480	-0.220	0.840
2020/01/31 11:56:22.8	300.630	0.490	-0.230	0.810
2020/01/31 11:56:22.9	300.630	0.500	-0.230	0.770
2020/01/31 11:56:23.0	300.630	0.500	-0.240	0.730
2020/01/31 11:56:23.1	300.630	0.500	-0.240	0.690
2020/01/31 11:56:23.2	300.640	0.500	-0.230	0.650
2020/01/31 11:56:23.3	300.640	0.500	-0.230	0.610
2020/01/31 11:56:23.4	300.640	0.500	-0.220	0.580
2020/01/31 11:56:23.5	300.630	0.490	-0.220	0.540
2020/01/31 11:56:23.6	300.630	0.480	-0.210	0.500
2020/01/31 11:56:23.7	300.630	0.470	-0.190	0.470
2020/01/31 11:56:23.8	300.630	0.460	-0.180	0.430
2020/01/31 11:56:23.9	300.630	0.450	-0.170	0.390
2020/01/31 11:56:24.0	300.620	0.430	-0.150	0.360
2020/01/31 11:56:24.1	300.620	0.410	-0.130	0.320
2020/01/31 11:56:24.2	300.620	0.390	-0.120	0.290
2020/01/31 11:56:24.3	300.620	0.370	-0.100	0.260
2020/01/31 11:56:24.4	300.610	0.350	-0.080	0.220
2020/01/31 11:56:24.5	300.620	0.320	-0.070	0.190
2020/01/31 11:56:24.6	300.620	0.300	-0.050	0.160
2020/01/31 11:56:24.7	300.620	0.270	-0.030	0.130
2020/01/31 11:56:24.8	300.620	0.250	-0.020	0.100
2020/01/31 11:56:24.9	300.620	0.220	-0.000	0.070
2020/01/31 11:56:25.0	300.620	0.190	0.010	0.050
2020/01/31 11:56:25.1	300.620	0.170	0.020	0.030
2020/01/31 11:56:25.2	300.620	0.140	0.030	0.000
2020/01/31 11:56:25.3	300.620	0.110	0.030	-0.010
2020/01/31 11:56:25.4	300.620	0.090	0.040	-0.030
2020/01/31 11:56:25.5	300.610	0.060	0.040	-0.040
2020/01/31 11:56:25.6	300.610	0.040	0.040	-0.060
2020/01/31 11:56:25.7	300.610	0.020	0.030	-0.070
2020/01/31 11:56:25.8	300.620	-0.000	0.020	-0.080
2020/01/31 11:56:25.9	300.620	-0.020	0.010	-0.080
2020/01/31 11:56:26.0	300.620	-0.040	0.000	-0.090
2020/01/31 11:56:26.1	300.630	-0.060	-0.010	-0.090
2020/01/31 11:56:26.2	300.630	-0.080	-0.030	-0.090
2020/01/31 11:56:26.3	300.640	-0.090	-0.050	-0.090
2020/01/31 11:56:26.4	300.640	-0.110	-0.070	-0.080
2020/01/31 11:56:26.5	300.650	-0.120	-0.100	-0.080
2020/01/31 11:56:26.6	300.660	-0.130	-0.130	-0.070
2020/01/31 11:56:26.7	300.660	-0.140	-0.150	-0.060
2020/01/31 11:56:26.8	300.670	-0.140	-0.180	-0.040
2020/01/31 11:56:26.9	300.680	-0.150	-0.210	-0.030
2020/01/31 11:56:27.0	300.690	-0.150	-0.250	-0.020
2020/01/31 11:56:27.1	300.690	-0.150	-0.280	0.000
2020/01/31 11:56:27.2	300.700	-0.160	-0.310	0.020
2020/01/31 11:56:27.3	300.710	-0.160	-0.350	0.040
2020/01/31 11:56:27.4	300.720	-0.150	-0.380	0.060
2020/01/31 11:56:27.5	300.730	-0.150	-0.410	0.080
2020/01/31 11:56:27.6	300.740	-0.150	-0.440	0.100
2020/01/31 11:56:27.7	300.740	-0.140	-0.470	0.130
2020/01/31 11:56:27.8	300.750	-0.140	-0.510	0.150
2020/01/31 11:56:27.9	300.760	-0.130	-0.530	0.170
2020/01/31 11:56:28.0	300.770	-0.130	-0.560	0.200
2020/01/31 11:56:28.1	300.770	-0.120	-0.590	0.220
2020/01/31 11:56:28.2	300.780	-0.110	-0.610	0.250
2020/01/31 11:56:28.3	300.790	-0.110	-0.640	0.280
2020/01/31 11:56:28.4	300.790	-0.100	-0.660	0.300
2020/01/31 11:56:28.5	300.800	-0.090	-0.670	0.330
2020/01/31 11:56:28.6	300.800	-0.090	-0.690	0.360
2020/01/31 11:56:28.7	300.810	-0.080	-0.700	0.390
2020/01/31 11:56:28.8	300.820	-0.080	-0.720	0.420
2020/01/31 11:56:28.9	300.820	-0.070	-0.730	0.440
2020/01/31 11:56:29.0	300.830	-0.070	-0.740	0.470
2020/01/31 11:56:29.1	300.840	-0.070	-0.740	0.500
2020/01/31 11:56:29.2	300.850	-0.070	-0.750	0.530
2020/01/31 11:56:29.3	300.860	-0.070	-0.750	0.550
2020/01/31 11:56:29.4	300.870	-0.070	-0.760	0.580
2020/01/31 11:56:29.5	300.880	-0.070	-0.760	0.610
2020/01/31 11:56:29.6	300.890	-0.070	-0.760	0.630
2020/01/31 11:56:29.7	300.890	-0.070	-0.760	0.650
2020/01/31 11:56:29.8	300.900	-0.080	-0.750	0.670
2020/01/31 11:56:29.9	300.910	-0.080	-0.750	0.690
2020/01/31 11:56:30.0	300.920	-0.090	-0.740	0.710
2020/01/31 11:56:30.1	300.920	-0.090	-0.730	0.720
2020/01/31 11:56:30.2	300.930	-0.100	-0.720	0.730
2020/01/31 11:56:30.3	300.930	-0.110	-0.710	0.750
2020/01/31 11:56:30.4	300.940	-0.120	-0.700	0.750
2020/01/31 11:56:30.5	300.940	-0.130	-0.680	0.760
2020/01/31 11:56:30.6	300.940	-0.140	-0.670	0.770
2020/01/31 11:56:30.7	300.940	-0.150	-0.650	0.770
2020/01/31 11:56:30.8	300.950	-0.160	-0.640	0.770
2020/01/31 11:56:30.9	300.950	-0.170	-0.620	0.780
2020/01/31 11:56:31.0	300.950	-0.180	-0.600	0.780
2020/01/31 11:56:31.1	300.950	-0.180	-0.580	0.770
2020/01/31 11:56:31.2	300.940	-0.190	-0.550	0.770
2020/01/31 11:56:31.3	300.940	-0.200	-0.530	0.770
2020/01/31 11:56:31.4	300.940	-0.210	-0.510	0.760
2020/01/31 11:56:31.5	300.940	-0.220	-0.480	0.760
2020/01/31 11:56:31.6	300.930	-0.220	-0.460	0.750
2020/01/31 11:56:31.7	300.930	-0.230	-0.430	0.740
2020/01/31 11:56:31.8	300.930	-0.230	-0.410	0.730
2020/01/31 11:56:31.9	300.920	-0.240	-0.380	0.720
2020/01/31 11:56:32.0	300.920	-0.240	-0.350	0.710
2020/01/31 11:56:32.1	300.910	-0.250	-0.330	0.700
2020/01/31 11:56:32.2	300.910	-0.250	-0.300	0.680
2020/01/31 11:56:32.3	300.900	-0.250	-0.280	0.670
2020/01/31 11:56:32.4	300.900	-0.250	-0.250	0.650
2020/01/31 11:56:32.5	300.890	-0.250	-0.230	0.640
2020/01/31 11:56:32.6	300.880	-0.250	-0.200	0.620
2020/01/31 11:56:32.7	300.880	-0.240	-0.180	0.610
2020/01/31 11:56:32.8	300.870	-0.240	-0.160	0.590
2020/01/31 11:56:32.9	300.870	-0.230	-0.130	0.580
2020/01/31 11:56:33.0	300.870	-0.230	-0.110	0.570
2020/01/31 11:56:33.1	300.860	-0.220	-0.100	0.560
2020/01/31 11:56:33.2	300.860	-0.210	-0.080	0.540
2020/01/31 11:56:33.3	300.860	-0.210	-0.060	0.540
2020/01/31 11:56:33.4	300.850	-0.200	-0.040	0.530
2020/01/31 11:56:33.5	300.860	-0.190	-0.030	0.520
2020/01/31 11:56:33.6	300.860	-0.170	-0.020	0.510
2020/01/31 11:56:33.7	300.860	-0.160	-0.000	0.510
2020/01/31 11:56:33.8	300.850	-0.150	0.010	0.500
2020/01/31 11:56:33.9	300.850	-0.140	0.020	0.500
2020/01/31 11:56:34.0	300.850	-0.120	0.030	0.500
2020/01/31 11:56:34.1	300.840	-0.110	0.040	0.500
2020/01/31 11:56:34.2	300.840	-0.090	0.050	0.510
2020/01/31 11:56:34.3	300.840	-0.080	0.060	0.510
2020/01/31 11:56:34.4	300.830	-0.070	0.060	0.520
2020/01/31 11:56:34.5	300.830	-0.050	0.070	0.530
2020/01/31 11:56:34.6	300.830	-0.040	0.070	0.530
2020/01/31 11:56:34.7	300.830	-0.020	0.080	0.540
2020/01/31 11:56:34.8	300.820	-0.010	0.080	0.550
2020/01/31 11:56:34.9	300.820	0.010	0.080	0.560
2020/01/31 11:56:35.0	300.820	0.020	0.090	0.570
2020/01/31 11:56:35.1	300.820	0.040	0.090	0.580
2020/01/31 11:56:35.2	300.820	0.050	0.090	0.600
2020/01/31 11:56:35.3	300.820	0.070	0.090	0.610
2020/01/31 11:56:35.4	300.820	0.080	0.090	0.620
2020/01/31 11:56:35.5	300.840	0.090	0.090	0.640
2020/01/31 11:56:35.6	300.840	0.100	0.090	0.650
2020/01/31 11:56:35.7	300.840	0.110	0.080	0.670
2020/01/31 11:56:35.8	300.850	0.120	0.080	0.680
2020/01/31 11:56:35.9	300.850	0.130	0.080	0.700
2020/01/31 11:56:36.0	300.860	0.140	0.070	0.710
2020/01/31 11:56:36.1	300.860	0.150	0.070	0.730
2020/01/31 11:56:36.2	300.870	0.160	0.060	0.740
2020/01/31 11:56:36.3	300.880	0.170	0.060	0.760
2020/01/31 11:56:36.4	300.880	0.170	0.060	0.770
2020/01/31 11:56:36.5	300.900	0.180	0.050	0.790
2020/01/31 11:56:36.6	300.910	0.180	0.040	0.800
2020/01/31 11:56:36.7	300.910	0.190	0.040	0.820
2020/01/31 11:56:36.8	300.920	0.190	0.030	0.830
2020/01/31 11:56:36.9	300.930	0.190	0.030	0.840
2020/01/31 11:56:37.0	300.940	0.200	0.030	0.860
2020/01/31 11:56:37.1	300.950	0.200	0.020	0.870
2020/01/31 11:56:37.2	300.960	0.200	0.020	0.880
2020/01/31 11:56:37.3	300.970	0.200	0.010	0.890
2020/01/31 11:56:37.4	300.990	0.200	0.010	0.890
2020/01/31 11:56:37.5	301.000	0.200	0.000	0.900
2020/01/31 11:56:37.6	301.010	0.200	0.000	0.900
2020/01/31 11:56:37.7	301.020	0.200	-0.010	0.910
2020/01/31 11:56:37.8	301.040	0.200	-0.010	0.910
2020/01/31 11:56:37.9	301.050	0.200	-0.020	0.910
2020/01/31 11:56:38.0	301.060	0.200	-0.020	0.910
2020/01/31 11:56:38.1	301.080	0.200	-0.030	0.910
2020/01/31 11:56:38.2	301.100	0.200	-0.040	0.900
2020/01/31 11:56:38.3	301.110	0.210	-0.040	0.900
2020/01/31 11:56:38.4	301.130	0.210	-0.050	0.890
2020/01/31 11:56:38.5	301.150	0.210	-0.060	0.880
2020/01/31 11:56:38.6	301.170	0.210	-0.070	0.870
2020/01/31 11:56:38.7	301.180	0.210	-0.080	0.860
2020/01/31 11:56:38.8	301.200	0.210	-0.090	0.850
2020/01/31 11:56:38.9	301.220	0.210	-0.110	0.830
2020/01/31 11:56:39.0	301.240	0.210	-0.120	0.810
2020/01/31 11:56:39.1	301.260	0.220	-0.130	0.790
2020/01/31 11:56:39.2	301.280	0.220	-0.150	0.770
2020/01/31 11:56:39.3	301.290	0.220	-0.160	0.750
2020/01/31 11:56:39.4	301.310	0.230	-0.170	0.730
2020/01/31 11:56:39.5	301.340	0.230	-0.190	0.710
2020/01/31 11:56:39.6	301.360	0.230	-0.200	0.680
2020/01/31 11:56:39.7	301.380	0.230	-0.220	0.660
2020/01/31 11:56:39.8	301.400	0.240	-0.240	0.640
2020/01/31 11:56:39.9	301.420	0.240	-0.250	0.610
2020/01/31 11:56:40.0	301.430	0.240	-0.270	0.590
2020/01/31 11:56:40.1	301.450	0.240	-0.280	0.570
2020/01/31 11:56:40.2	301.460	0.240	-0.300	0.540
2020/01/31 11:56:40.3	301.480	0.240	-0.310	0.520
2020/01/31 11:56:40.4	301.490	0.240	-0.330	0.500
2020/01/31 11:56:40.5	301.500	0.240	-0.340	0.480
2020/01/31 11:56:40.6	301.510	0.230	-0.360	0.460
2020/01/31 11:56:40.7	301.510	0.230	-0.370	0.450
2020/01/31 11:56:40.8	301.520	0.230	-0.380	0.430
2020/01/31 11:56:40.9	301.530	0.220	-0.390	0.420
2020/01/31 11:56:41.0	301.530	0.210	-0.400	0.410
2020/01/31 11:56:41.1	301.530	0.200	-0.400	0.400
2020/01/31 11:56:41.2	301.530	0.190	-0.410	0.390
2020/01/31 11:56:41.3	301.530	0.180	-0.410	0.380
2020/01/31 11:56:41.4	301.530	0.170	-0.420	0.380
2020/01/31 11:56:41.5	301.520	0.160	-0.410	0.370
2020/01/31 11:56:41.6	301.510	0.140	-0.410	0.370
2020/01/31 11:56:41.7	301.500	0.130	-0.420	0.370
2020/01/31 11:56:41.8	301.490	0.110	-0.420	0.370
2020/01/31 11:56:41.9	301.470	0.090	-0.410	0.370
2020/01/31 11:56:42.0	301.460	0.070	-0.410	0.370
2020/01/31 11:56:42.1	301.440	0.050	-0.410	0.370
2020/01/31 11:56:42.2	301.430	0.030	-0.410	0.370
2020/01/31 11:56:42.3	301.410	0.010	-0.410	0.380
2020/01/31 11:56:42.4	301.390	-0.010	-0.410	0.380
2020/01/31 11:56:42.5	301.370	-0.040	-0.410	0.380
2020/01/31 11:56:42.6	301.350	-0.060	-0.410	0.390
2020/01/31 11:56:42.7	301.330	-0.080	-0.410	0.390
2020/01/31 11:56:42.8	301.310	-0.100	-0.410	0.390
2020/01/31 11:56:42.9	301.290	-0.120	-0.410	0.390
2020/01/31 11:56:43.0	301.270	-0.150	-0.420	0.390
2020/01/31 11:56:43.1	301.250	-0.170	-0.420	0.380
2020/01/31 11:56:43.2	301.230	-0.190	-0.430	0.380
2020/01/31 11:56:43.3	301.210	-0.200	-0.430	0.380
2020/01/31 11:56:43.4	301.190	-0.220	-0.440	0.370
2020/01/31 11:56:43.5	301.180	-0.240	-0.450	0.370
2020/01/31 11:56:43.6	301.170	-0.250	-0.460	0.360
2020/01/31 11:56:43.7	301.150	-0.270	-0.470	0.350
2020/01/31 11:56:43.8	301.140	-0.280	-0.480	0.350
2020/01/31 11:56:43.9	301.120	-0.290	-0.490	0.340
2020/01/31 11:56:44.0	301.110	-0.300	-0.500	0.340
2020/01/31 11:56:44.1	301.100	-0.310	-0.510	0.330
2020/01/31 11:56:44.2	301.090	-0.310	-0.520	0.320
2020/01/31 11:56:44.3	301.090	-0.320	-0.530	0.320
2020/01/31 11:56:44.4	301.080	-0.320	-0.540	0.310
2020/01/31 11:56:44.5	301.070	-0.320	-0.550	0.310
2020/01/31 11:56:44.6	301.070	-0.320	-0.560	0.310
2020/01/31 11:56:44.7	301.060	-0.320	-0.570	0.300
2020/01/31 11:56:44.8	301.060	-0.320	-0.580	0.300
2020/01/31 11:56:44.9	301.060	-0.310	-0.590	0.300
2020/01/31 11:56:45.0	301.060	-0.310	-0.590	0.290
2020/01/31 11:56:45.1	301.060	-0.300	-0.600	0.290
2020/01/31 11:56:45.2	301.060	-0.290	-0.610	0.290
2020/01/31 11:56:45.3	301.060	-0.280	-0.610	0.290
2020/01/31 11:56:45.4	301.070	-0.270	-0.620	0.290
2020/01/31 11:56:45.5	301.080	-0.260	-0.620	0.300
2020/01/31 11:56:45.6	301.080	-0.250	-0.620	0.300
2020/01/31 11:56:45.7	301.090	-0.240	-0.620	0.310
2020/01/31 11:56:45.8	301.100	-0.220	-0.620	0.310
2020/01/31 11:56:45.9	301.110	-0.210	-0.620	0.320
2020/01/31 11:56:46.0	301.120	-0.190	-0.620	0.330
2020/01/31 11:56:46.1	301.130	-0.180	-0.610	0.340
2020/01/31 11:56:46.2	301.150	-0.160	-0.610	0.360
2020/01/31 11:56:46.3	301.160	-0.150	-0.600	0.370
2020/01/31 11:56:46.4	301.170	-0.130	-0.590	0.390
2020/01/31 11:56:46.5	301.190	-0.120	-0.570	0.410
2020/01/31 11:56:46.6	301.200	-0.110	-0.560	0.430
2020/01/31 11:56:46.7	301.220	-0.090	-0.540	0.450
2020/01/31 11:56:46.8	301.230	-0.080	-0.520	0.480
2020/01/31 11:56:46.9	301.240	-0.070	-0.500	0.500
2020/01/31 11:56:47.0	301.260	-0.060	-0.480	0.530
2020/01/31 11:56:47.1	301.270	-0.050	-0.460	0.550
2020/01/31 11:56:47.2	301.280	-0.050	-0.430	0.580
2020/01/31 11:56:47.3	301.300	-0.040	-0.410	0.610
2020/01/31 11:56:47.4	301.310	-0.040	-0.380	0.630
2020/01/31 11:56:47.5	301.330	-0.030	-0.350	0.660
2020/01/31 11:56:47.6	301.340	-0.030	-0.320	0.690
2020/01/31 11:56:47.7	301.350	-0.030	-0.290	0.710
2020/01/31 11:56:47.8	301.350	-0.030	-0.250	0.740
2020/01/31 11:56:47.9	301.360	-0.040	-0.220	0.770
2020/01/31 11:56:48.0	301.370	-0.040	-0.180	0.790
2020/01/31 11:56:48.1	301.370	-0.050	-0.150	0.820
2020/01/31 11:56:48.2	301.370	-0.050	-0.110	0.840
2020/01/31 11:56:48.3	301.380	-0.060	-0.070	0.860
2020/01/31 11:56:48.4	301.380	-0.070	-0.030	0.890
2020/01/31 11:56:48.5	301.380	-0.080	0.000	0.910
2020/01/31 11:56:48.6	301.370	-0.090	0.040	0.930
2020/01/31 11:56:48.7	301.370	-0.100	0.080	0.950
2020/01/31 11:56:48.8	301.370	-0.110	0.120	0.970
2020/01/31 11:56:48.9	301.370	-0.120	0.150	0.990
2020/01/31 11:56:49.0	301.360	-0.130	0.190	1.000
2020/01/31 11:56:49.1	301.360	-0.140	0.220	1.020
2020/01/31 11:56:49.2	301.350	-0.150	0.260	1.030
2020/01/31 11:56:49.3	301.350	-0.160	0.290	1.050
2020/01/31 11:56:49.4	301.340	-0.160	0.310	1.060
2020/01/31 11:56:49.5	301.320	-0.170	0.340	1.070
2020/01/31 11:56:49.6	301.310	-0.180	0.360	1.080
2020/01/31 11:56:49.7	301.300	-0.180	0.380	1.080
2020/01/31 11:56:49.8	301.300	-0.180	0.400	1.090
2020/01/31 11:56:49.9	301.290	-0.190	0.410	1.090
2020/01/31 11:56:50.0	301.280	-0.180	0.410	1.090
2020/01/31 11:56:50.1	301.280	-0.180	0.420	1.090
2020/01/31 11:56:50.2	301.270	-0.180	0.420	1.080
2020/01/31 11:56:50.3	301.260	-0.170	0.410	1.070
2020/01/31 11:56:50.4	301.260	-0.160	0.400	1.060
2020/01/31 11:56:50.5	301.240	-0.150	0.380	1.050
2020/01/31 11:56:50.6	301.240	-0.140	0.370	1.030
2020/01/31 11:56:50.7	301.230	-0.130	0.340	1.020
2020/01/31 11:56:50.8	301.230	-0.110	0.320	1.000
2020/01/31 11:56:50.9	301.220	-0.090	0.290	0.980
2020/01/31 11:56:51.0	301.220	-0.070	0.250	0.960
2020/01/31 11:56:51.1	301.210	-0.050	0.220	0.940
2020/01/31 11:56:51.2	301.210	-0.030	0.180	0.910
2020/01/31 11:56:51.3	301.200	-0.000	0.140	0.890
2020/01/31 11:56:51.4	301.200	0.020	0.090	0.870
2020/01/31 11:56:51.5	301.190	0.050	0.040	0.840
2020/01/31 11:56:51.6	301.190	0.080	-0.000	0.820
2020/01/31 11:56:51.7	301.180	0.110	-0.050	0.790
2020/01/31 11:56:51.8	301.180	0.130	-0.100	0.760
2020/01/31 11:56:51.9	301.170	0.160	-0.150	0.740
2020/01/31 11:56:52.0	301.170	0.190	-0.200	0.710
2020/01/31 11:56:52.1	301.170	0.220	-0.250	0.680
2020/01/31 11:56:52.2	301.160	0.250	-0.300	0.660
2020/01/31 11:56:52.3	301.160	0.270	-0.340	0.630
2020/01/31 11:56:52.4	301.160	0.300	-0.390	0.600
2020/01/31 11:56:52.5	301.140	0.320	-0.430	0.570
2020/01/31 11:56:52.6	301.140	0.350	-0.470	0.540
2020/01/31 11:56:52.7	301.140	0.370	-0.510	0.520
2020/01/31 11:56:52.8	301.140	0.390	-0.540	0.490
2020/01/31 11:56:52.9	301.140	0.410	-0.570	0.460
2020/01/31 11:56:53.0	301.140	0.420	-0.590	0.440
2020/01/31 11:56:53.1	301.130	0.440	-0.620	0.410
2020/01/31 11:56:53.2	301.130	0.450	-0.630	0.390
2020/01/31 11:56:53.3	301.130	0.460	-0.650	0.370
2020/01/31 11:56:53.4	301.130	0.470	-0.660	0.340
2020/01/31 11:56:53.5	301.140	0.470	-0.660	0.320
2020/01/31 11:56:53.6	301.130	0.470	-0.660	0.310
2020/01/31 11:56:53.7	301.130	0.470	-0.660	0.290
2020/01/31 11:56:53.8	301.130	0.470	-0.650	0.270
2020/01/31 11:56:53.9	301.130	0.470	-0.640	0.250
2020/01/31 11:56:54.0	301.140	0.460	-0.620	0.240
2020/01/31 11:56:54.1	301.140	0.450	-0.600	0.230
2020/01/31 11:56:54.2	301.140	0.440	-0.580	0.220
2020/01/31 11:56:54.3	301.140	0.430	-0.550	0.200
2020/01/31 11:56:54.4	301.140	0.420	-0.530	0.190
2020/01/31 11:56:54.5	301.150	0.400	-0.490	0.180
2020/01/31 11:56:54.6	301.150	0.390	-0.460	0.180
2020/01/31 11:56:54.7	301.150	0.370	-0.420	0.170
2020/01/31 11:56:54.8	301.160	0.350	-0.390	0.160
2020/01/31 11:56:54.9	301.160	0.330	-0.350	0.160
2020/01/31 11:56:55.0	301.170	0.310	-0.310	0.150
2020/01/31 11:56:55.1	301.170	0.290	-0.280	0.150
2020/01/31 11:56:55.2	301.180	0.270	-0.240	0.140
2020/01/31 11:56:55.3	301.180	0.240	-0.200	0.140
2020/01/31 11:56:55.4	301.180	0.220	-0.170	0.140
2020/01/31 11:56:55.5	301.190	0.200	-0.130	0.150
2020/01/31 11:56:55.6	301.190	0.170	-0.100	0.150
2020/01/31 11:56:55.7	301.190	0.150	-0.070	0.150
2020/01/31 11:56:55.8	301.200	0.130	-0.040	0.160
2020/01/31 11:56:55.9	301.200	0.100	-0.010	0.160
2020/01/31 11:56:56.0	301.200	0.080	0.020	0.170
2020/01/31 11:56:56.1	301.190	0.060	0.040	0.180
2020/01/31 11:56:56.2	301.190	0.030	0.060	0.190
2020/01/31 11:56:56.3	301.190	0.010	0.070	0.210
2020/01/31 11:56:56.4	301.180	-0.010	0.090	0.220
2020/01/31 11:56:56.5	301.190	-0.030	0.100	0.240
2020/01/31 11:56:56.6	301.180	-0.050	0.110	0.250
2020/01/31 11:56:56.7	301.170	-0.070	0.110	0.270
2020/01/31 11:56:56.8	301.160	-0.090	0.110	0.290
2020/01/31 11:56:56.9	301.150	-0.110	0.110	0.310
2020/01/31 11:56:57.0	301.140	-0.130	0.100	0.330
2020/01/31 11:56:57.1	301.130	-0.140	0.100	0.340
2020/01/31 11:56:57.2	301.120	-0.160	0.090	0.360
2020/01/31 11:56:57.3	301.110	-0.180	0.070	0.380
2020/01/31 11:56:57.4	301.090	-0.190	0.050	0.400
2020/01/31 11:56:57.5	301.080	-0.210	0.040	0.410
2020/01/31 11:56:57.6	301.070	-0.220	0.010	0.430
2020/01/31 11:56:57.7	301.050	-0.230	-0.010	0.440
2020/01/31 11:56:57.8	301.040	-0.250	-0.040	0.460
2020/01/31 11:56:57.9	301.020	-0.260	-0.070	0.470
2020/01/31 11:56:58.0	301.010	-0.270	-0.100	0.490
2020/01/31 11:56:58.1	301.000	-0.280	-0.130	0.500
2020/01/31 11:56:58.2	300.990	-0.290	-0.170	0.510
2020/01/31 11:56:58.3	300.970	-0.300	-0.210	0.520
2020/01/31 11:56:58.4	300.960	-0.300	-0.240	0.530
2020/01/31 11:56:58.5	300.950	-0.310	-0.290	0.530
2020/01/31 11:56:58.6	300.940	-0.320	-0.330	0.540
2020/01/31 11:56:58.7	300.930	-0.320	-0.360	0.550
2020/01/31 11:56:58.8	300.920	-0.330	-0.400	0.560
2020/01/31 11:56:58.9	300.910	-0.330	-0.440	0.560
2020/01/31 11:56:59.0	300.900	-0.330	-0.480	0.570
2020/01/31 11:56:59.1	300.890	-0.330	-0.520	0.570
2020/01/31 11:56:59.2	300.880	-0.330	-0.550	0.580
2020/01/31 11:56:59.3	300.870	-0.330	-0.590	0.590
2020/01/31 11:56:59.4	300.860	-0.330	-0.620	0.590
2020/01/31 11:56:59.5	300.840	-0.330	-0.640	0.600
2020/01/31 11:56:59.6	300.830	-0.330	-0.670	0.610
2020/01/31 11:56:59.7	300.820	-0.330	-0.690	0.620
2020/01/31 11:56:59.8	300.810	-0.330	-0.720	0.630
2020/01/31 11:56:59.9	300.800	-0.320	-0.730	0.630
2020/01/31 11:57:00.0	300.790	-0.320	-0.750	0.640
2020/01/31 11:57:00.1	300.780	-0.310	-0.760	0.650
2020/01/31 11:57:00.2	300.760	-0.310	-0.770	0.660
2020/01/31 11:57:00.3	300.750	-0.300	-0.780	0.670
2020/01/31 11:57:00.4	300.740	-0.300	-0.780	0.670
2020/01/31 11:57:00.5	300.730	-0.290	-0.780	0.680
2020/01/31 11:57:00.6	300.720	-0.290	-0.780	0.680
2020/01/31 11:57:00.7	300.710	-0.280	-0.770	0.690
2020/01/31 11:57:00.8	300.690	-0.270	-0.760	0.700
2020/01/31 11:57:00.9	300.680	-0.270	-0.750	0.700
2020/01/31 11:57:01.0	300.670	-0.260	-0.740	0.700
2020/01/31 11:57:01.1	300.670	-0.250	-0.720	0.700
2020/01/31 11:57:01.2	300.660	-0.250	-0.710	0.700
2020/01/31 11:57:01.3	300.650	-0.240	-0.690	0.700
2020/01/31 11:57:01.4	300.640	-0.230	-0.670	0.700
2020/01/31 11:57:01.5	300.630	-0.220	-0.650	0.700
2020/01/31 11:57:01.6	300.630	-0.220	-0.620	0.690
2020/01/31 11:57:01.7	300.620	-0.210	-0.600	0.690
2020/01/31 11:57:01.8	300.620	-0.200	-0.580	0.680
2020/01/31 11:57:01.9	300.620	-0.190	-0.550	0.670
2020/01/31 11:57:02.0	300.620	-0.180	-0.530	0.670
2020/01/31 11:57:02.1	300.620	-0.170	-0.500	0.660
2020/01/31 11:57:02.2	300.620	-0.170	-0.470	0.650
2020/01/31 11:57:02.3	300.630	-0.160	-0.450	0.640
2020/01/31 11:57:02.4	300.630	-0.150	-0.420	0.630
2020/01/31 11:57:02.5	300.630	-0.140	-0.400	0.610
2020/01/31 11:57:02.6	300.640	-0.130	-0.380	0.600
2020/01/31 11:57:02.7	300.640	-0.120	-0.360	0.590
2020/01/31 11:57:02.8	300.650	-0.110	-0.330	0.570
2020/01/31 11:57:02.9	300.670	-0.100	-0.310	0.560
2020/01/31 11:57:03.0	300.680	-0.080	-0.290	0.540
2020/01/31 11:57:03.1	300.700	-0.070	-0.270	0.530
2020/01/31 11:57:03.2	300.710	-0.060	-0.250	0.510
2020/01/31 11:57:03.3	300.730	-0.050	-0.240	0.490
2020/01/31 11:57:03.4	300.750	-0.030	-0.220	0.480
2020/01/31 11:57:03.5	300.760	-0.020	-0.200	0.460
2020/01/31 11:57:03.6	300.780	-0.010	-0.190	0.450
2020/01/31 11:57:03.7	300.800	0.010	-0.170	0.430
2020/01/31 11:57:03.8	300.820	0.020	-0.160	0.410
2020/01/31 11:57:03.9	300.850	0.030	-0.150	0.400
2020/01/31 11:57:04.0	300.870	0.050	-0.130	0.390
2020/01/31 11:57:04.1	300.890	0.060	-0.120	0.370
2020/01/31 11:57:04.2	300.910	0.070	-0.100	0.360
2020/01/31 11:57:04.3	300.940	0.090	-0.090	0.350
2020/01/31 11:57:04.4	300.960	0.100	-0.070	0.340
2020/01/31 11:57:04.5	300.970	0.110	-0.060	0.330
2020/01/31 11:57:04.6	300.990	0.120	-0.040	0.330
2020/01/31 11:57:04.7	301.010	0.140	-0.020	0.320
2020/01/31 11:57:04.8	301.030	0.150	-0.000	0.320
2020/01/31 11:57:04.9	301.040	0.160	0.020	0.320
2020/01/31 11:57:05.0	301.060	0.170	0.040	0.320
2020/01/31 11:57:05.1	301.070	0.180	0.060	0.330
2020/01/31 11:57:05.2	301.080	0.180	0.080	0.330
2020/01/31 11:57:05.3	301.090	0.190	0.110	0.340
2020/01/31 11:57:05.4	301.100	0.200	0.130	0.350
2020/01/31 11:57:05.5	301.110	0.200	0.150	0.360
2020/01/31 11:57:05.6	301.110	0.210	0.170	0.370
2020/01/31 11:57:05.7	301.120	0.210	0.200	0.380
2020/01/31 11:57:05.8	301.120	0.220	0.220	0.400
2020/01/31 11:57:05.9	301.120	0.220	0.240	0.410
2020/01/31 11:57:06.0	301.120	0.220	0.260	0.430
2020/01/31 11:57:06.1	301.120	0.220	0.280	0.450
2020/01/31 11:57:06.2	301.120	0.220	0.300	0.460
2020/01/31 11:57:06.3	301.110	0.220	0.320	0.480
2020/01/31 11:57:06.4	301.110	0.220	0.340	0.500
2020/01/31 11:57:06.5	301.120	0.220	0.350	0.520
2020/01/31 11:57:06.6	301.110	0.210	0.360	0.540
2020/01/31 11:57:06.7	301.100	0.210	0.370	0.560
2020/01/31 11:57:06.8	301.100	0.210	0.380	0.580
2020/01/31 11:57:06.9	301.090	0.200	0.380	0.600
2020/01/31 11:57:07.0	301.080	0.200	0.390	0.620
2020/01/31 11:57:07.1	301.070	0.190	0.390	0.640
2020/01/31 11:57:07.2	301.060	0.190	0.380	0.650
2020/01/31 11:57:07.3	301.050	0.180	0.370	0.670
2020/01/31 11:57:07.4	301.040	0.170	0.360	0.690
2020/01/31 11:57:07.5	301.020	0.170	0.350	0.700
2020/01/31 11:57:07.6	301.000	0.160	0.340	0.720
2020/01/31 11:57:07.7	300.990	0.150	0.320	0.730
2020/01/31 11:57:07.8	300.980	0.150	0.300	0.740
2020/01/31 11:57:07.9	300.960	0.140	0.270	0.750
2020/01/31 11:57:08.0	300.950	0.130	0.250	0.760
2020/01/31 11:57:08.1	300.930	0.130	0.220	0.770
2020/01/31 11:57:08.2	300.910	0.120	0.180	0.780
2020/01/31 11:57:08.3	300.900	0.120	0.150	0.790
2020/01/31 11:57:08.4	300.880	0.110	0.120	0.790
2020/01/31 11:57:08.5	300.860	0.110	0.080	0.800
2020/01/31 11:57:08.6	300.850	0.100	0.040	0.800
2020/01/31 11:57:08.7	300.830	0.100	0.000	0.810
2020/01/31 11:57:08.8	300.810	0.100	-0.040	0.810
2020/01/31 11:57:08.9	300.790	0.100	-0.080	0.810
2020/01/31 11:57:09.0	300.780	0.100	-0.120	0.820
2020/01/31 11:57:09.1	300.760	0.090	-0.170	0.820
2020/01/31 11:57:09.2	300.740	0.100	-0.210	0.820
2020/01/31 11:57:09.3	300.730	0.100	-0.260	0.820
2020/01/31 11:57:09.4	300.710	0.100	-0.310	0.810
2020/01/31 11:57:09.5	300.690	0.100	-0.350	0.810
2020/01/31 11:57:09.6	300.680	0.100	-0.400	0.810
2020/01/31 11:57:09.7	300.670	0.110	-0.450	0.800
2020/01/31 11:57:09.8	300.660	0.110	-0.490	0.790
2020/01/31 11:57:09.9	300.650	0.120	-0.540	0.790
2020/01/31 11:57:10.0	300.640	0.120	-0.580	0.780
2020/01/31 11:57:10.1	300.630	0.130	-0.630	0.770
2020/01/31 11:57:10.2	300.630	0.140	-0.670	0.750
2020/01/31 11:57:10.3	300.620	0.140	-0.710	0.740
2020/01/31 11:57:10.4	300.620	0.150	-0.750	0.730
2020/01/31 11:57:10.5	300.620	0.160	-0.790	0.710
2020/01/31 11:57:10.6	300.620	0.170	-0.820	0.700
2020/01/31 11:57:10.7	300.620	0.170	-0.860	0.680
2020/01/31 11:57:10.8	300.620	0.180	-0.890	0.660
2020/01/31 11:57:10.9	300.620	0.190	-0.920	0.640
2020/01/31 11:57:11.0	300.630	0.190	-0.950	0.630
2020/01/31 11:57:11.1	300.640	0.200	-0.970	0.610
2020/01/31 11:57:11.2	300.640	0.200	-0.990	0.590
2020/01/31 11:57:11.3	300.650	0.200	-1.010	0.570
2020/01/31 11:57:11.4	300.660	0.210	-1.020	0.550
2020/01/31 11:57:11.5	300.660	0.210	-1.030	0.530
2020/01/31 11:57:11.6	300.670	0.210	-1.040	0.510
2020/01/31 11:57:11.7	300.680	0.210	-1.040	0.500
2020/01/31 11:57:11.8	300.690	0.200	-1.040	0.480
2020/01/31 11:57:11.9	300.710	0.200	-1.030	0.460
2020/01/31 11:57:12.0	300.720	0.190	-1.020	0.440
2020/01/31 11:57:12.1	300.730	0.190	-1.010	0.420
2020/01/31 11:57:12.2	300.750	0.180	-1.000	0.410
2020/01/31 11:57:12.3	300.760	0.170	-0.980	0.390
2020/01/31 11:57:12.4	300.770	0.160	-0.950	0.370
2020/01/31 11:57:12.5	300.800	0.140	-0.930	0.350
2020/01/31 11:57:12.6	300.820	0.130	-0.900	0.330
2020/01/31 11:57:12.7	300.830	0.120	-0.870	0.320
2020/01/31 11:57:12.8	300.850	0.100	-0.830	0.300
2020/01/31 11:57:12.9	300.860	0.080	-0.790	0.280
2020/01/31 11:57:13.0	300.870	0.060	-0.760	0.260
2020/01/31 11:57:13.1	300.890	0.040	-0.710	0.240
2020/01/31 11:57:13.2	300.900	0.020	-0.670	0.220
2020/01/31 11:57:13.3	300.920	-0.000	-0.630	0.210
2020/01/31 11:57:13.4	300.930	-0.030	-0.590	0.190
2020/01/31 11:57:13.5	300.940	-0.050	-0.540	0.180
2020/01/31 11:57:13.6	300.950	-0.070	-0.500	0.160
2020/01/31 11:57:13.7	300.960	-0.100	-0.450	0.150
2020/01/31 11:57:13.8	300.980	-0.120	-0.410	0.140
2020/01/31 11:57:13.9	300.990	-0.150	-0.370	0.120
2020/01/31 11:57:14.0	301.000	-0.170	-0.330	0.110
2020/01/31 11:57:14.1	301.020	-0.190	-0.290	0.100
2020/01/31 11:57:14.2	301.030	-0.220	-0.250	0.100
2020/01/31 11:57:14.3	301.040	-0.240	-0.210	0.090
2020/01/31 11:57:14.4	301.060	-0.260	-0.170	0.080
2020/01/31 11:57:14.5	301.060	-0.280	-0.140	0.080
2020/01/31 11:57:14.6	301.080	-0.300	-0.110	0.080
2020/01/31 11:57:14.7	301.090	-0.320	-0.080	0.080
2020/01/31 11:57:14.8	301.110	-0.340	-0.050	0.080
2020/01/31 11:57:14.9	301.120	-0.360	-0.020	0.080
2020/01/31 11:57:15.0	301.130	-0.370	-0.000	0.080
2020/01/31 11:57:15.1	301.150	-0.380	0.020	0.090
2020/01/31 11:57:15.2	301.160	-0.400	0.040	0.100
2020/01/31 11:57:15.3	301.170	-0.410	0.050	0.100
2020/01/31 11:57:15.4	301.190	-0.410	0.070	0.110
2020/01/31 11:57:15.5	301.200	-0.420	0.080	0.130
2020/01/31 11:57:15.6	301.210	-0.420	0.090	0.140
2020/01/31 11:57:15.7	301.220	-0.430	0.100	0.150
2020/01/31 11:57:15.8	301.230	-0.430	0.110	0.170
2020/01/31 11:57:15.9	301.240	-0.420	0.110	0.180
2020/01/31 11:57:16.0	301.250	-0.420	0.120	0.200
2020/01/31 11:57:16.1	301.260	-0.420	0.130	0.220
2020/01/31 11:57:16.2	301.270	-0.410	0.130	0.240
2020/01/31 11:57:16.3	301.280	-0.400	0.130	0.260
2020/01/31 11:57:16.4	301.290	-0.400	0.140	0.280
2020/01/31 11:57:16.5	301.310	-0.390	0.140	0.300
2020/01/31 11:57:16.6	301.310	-0.380	0.140	0.320
2020/01/31 11:57:16.7	301.320	-0.360	0.140	0.350
2020/01/31 11:57:16.8	301.320	-0.350	0.150	0.380
2020/01/31 11:57:16.9	301.330	-0.340	0.150	0.400
2020/01/31 11:57:17.0	301.330	-0.330	0.150	0.430
2020/01/31 11:57:17.1	301.330	-0.310	0.150	0.460
2020/01/31 11:57:17.2	301.340	-0.300	0.150	0.480
2020/01/31 11:57:17.3	301.340	-0.290	0.160	0.510
2020/01/31 11:57:17.4	301.340	-0.270	0.160	0.540
2020/01/31 11:57:17.5	301.350	-0.260	0.160	0.560
2020/01/31 11:57:17.6	301.350	-0.250	0.160	0.590
2020/01/31 11:57:17.7	301.350	-0.230	0.160	0.610
2020/01/31 11:57:17.8	301.350	-0.220	0.170	0.640
2020/01/31 11:57:17.9	301.350	-0.210	0.170	0.660
2020/01/31 11:57:18.0	301.350	-0.200	0.170	0.680
2020/01/31 11:57:18.1	301.340	-0.180	0.170	0.710
2020/01/31 11:57:18.2	301.340	-0.170	0.170	0.730
2020/01/31 11:57:18.3	301.330	-0.160	0.180	0.750
2020/01/31 11:57:18.4	301.330	-0.150	0.180	0.770
2020/01/31 11:57:18.5	301.310	-0.140	0.180	0.780
2020/01/31 11:57:18.6	301.300	-0.140	0.180	0.800
2020/01/31 11:57:18.7	301.290	-0.130	0.180	0.820
2020/01/31 11:57:18.8	301.280	-0.120	0.180	0.830
2020/01/31 11:57:18.9	301.270	-0.110	0.180	0.850
2020/01/31 11:57:19.0	301.260	-0.100	0.180	0.860
2020/01/31 11:57:19.1	301.250	-0.090	0.180	0.870
2020/01/31 11:57:19.2	301.230	-0.090	0.180	0.880
2020/01/31 11:57:19.3	301.220	-0.080	0.180	0.890
2020/01/31 11:57:19.4	301.200	-0.070	0.170	0.900
2020/01/31 11:57:19.5	301.180	-0.060	0.170	0.910
2020/01/31 11:57:19.6	301.170	-0.050	0.160	0.920
2020/01/31 11:57:19.7	301.150	-0.040	0.160	0.920
2020/01/31 11:57:19.8	301.130	-0.030	0.150	0.930
2020/01/31 11:57:19.9	301.110	-0.020	0.140	0.930
2020/01/31 11:57:20.0	301.090	-0.010	0.130	0.940
2020/01/31 11:57:20.1	301.070	-0.000	0.120	0.940
2020/01/31 11:57:20.2	301.050	0.010	0.100	0.940
2020/01/31 11:57:20.3	301.030	0.020	0.090	0.940
2020/01/31 11:57:20.4	301.010	0.040	0.070	0.930
2020/01/31 11:57:20.5	300.990	0.050	0.050	0.930
2020/01/31 11:57:20.6	300.980	0.070	0.020	0.920
2020/01/31 11:57:20.7	300.960	0.080	-0.000	0.910
2020/01/31 11:57:20.8	300.940	0.100	-0.030	0.900
2020/01/31 11:57:20.9	300.930	0.120	-0.060	0.890
2020/01/31 11:57:21.0	300.910	0.140	-0.100	0.880
2020/01/31 11:57:21.1	300.900	0.150	-0.130	0.870
2020/01/31 11:57:21.2	300.890	0.170	-0.170	0.850
2020/01/31 11:57:21.3	300.880	0.190	-0.210	0.830
2020/01/31 11:57:21.4	300.870	0.220	-0.260	0.810
2020/01/31 11:57:21.5	300.860	0.240	-0.300	0.790
2020/01/31 11:57:21.6	300.860	0.260	-0.350	0.770
2020/01/31 11:57:21.7	300.850	0.280	-0.400	0.740
2020/01/31 11:57:21.8	300.850	0.300	-0.450	0.720
2020/01/31 11:57:21.9	300.850	0.330	-0.500	0.690
2020/01/31 11:57:22.0	300.850	0.350	-0.550	0.670
2020/01/31 11:57:22.1	300.850	0.370	-0.600	0.640
2020/01/31 11:57:22.2	300.860	0.390	-0.650	0.610
2020/01/31 11:57:22.3	300.860	0.410	-0.700	0.580
2020/01/31 11:57:22.4	300.870	0.430	-0.750	0.560
2020/01/31 11:57:22.5	300.870	0.450	-0.790	0.530
2020/01/31 11:57:22.6	300.880	0.470	-0.840	0.500
2020/01/31 11:57:22.7	300.890	0.480	-0.880	0.480
2020/01/31 11:57:22.8	300.900	0.500	-0.920	0.450
2020/01/31 11:57:22.9	300.920	0.510	-0.950	0.430
2020/01/31 11:57:23.0	300.930	0.520	-0.980	0.410
2020/01/31 11:57:23.1	300.950	0.530	-1.010	0.390
2020/01/31 11:57:23.2	300.960	0.540	-1.030	0.370
2020/01/31 11:57:23.3	300.970	0.550	-1.050	0.350
2020/01/31 11:57:23.4	300.990	0.550	-1.070	0.340
2020/01/31 11:57:23.5	301.000	0.550	-1.070	0.320
2020/01/31 11:57:23.6	301.020	0.550	-1.080	0.310
2020/01/31 11:57:23.7	301.030	0.550	-1.080	0.300
2020/01/31 11:57:23.8	301.050	0.540	-1.070	0.290
2020/01/31 11:57:23.9	301.060	0.530	-1.060	0.290
2020/01/31 11:57:24.0	301.080	0.520	-1.050	0.280
2020/01/31 11:57:24.1	301.090	0.510	-1.030	0.280
2020/01/31 11:57:24.2	301.110	0.500	-1.010	0.270
2020/01/31 11:57:24.3	301.120	0.480	-0.990	0.270
2020/01/31 11:57:24.4	301.130	0.460	-0.960	0.280
2020/01/31 11:57:24.5	301.150	0.440	-0.920	0.280
2020/01/31 11:57:24.6	301.160	0.420	-0.890	0.280
2020/01/31 11:57:24.7	301.170	0.390	-0.850	0.290
2020/01/31 11:57:24.8	301.180	0.370	-0.810	0.300
2020/01/31 11:57:24.9	301.190	0.340	-0.770	0.310
2020/01/31 11:57:25.0	301.200	0.310	-0.730	0.320
2020/01/31 11:57:25.1	301.210	0.280	-0.680	0.330
2020/01/31 11:57:25.2	301.210	0.250	-0.640	0.340
2020/01/31 11:57:25.3	301.220	0.220	-0.590	0.360
2020/01/31 11:57:25.4	301.220	0.190	-0.540	0.370
2020/01/31 11:57:25.5	301.240	0.160	-0.490	0.390
2020/01/31 11:57:25.6	301.240	0.130	-0.450	0.410
2020/01/31 11:57:25.7	301.240	0.100	-0.400	0.430
2020/01/31 11:57:25.8	301.240	0.070	-0.350	0.450
2020/01/31 11:57:25.9	301.230	0.040	-0.310	0.470
2020/01/31 11:57:26.0	301.230	0.010	-0.260	0.490
2020/01/31 11:57:26.1	301.220	-0.020	-0.220	0.510
2020/01/31 11:57:26.2	301.210	-0.050	-0.180	0.520
2020/01/31 11:57:26.3	301.200	-0.070	-0.140	0.540
2020/01/31 11:57:26.4	301.200	-0.100	-0.110	0.560
2020/01/31 11:57:26.5	301.190	-0.120	-0.070	0.580
2020/01/31 11:57:26.6	301.180	-0.140	-0.040	0.590
2020/01/31 11:57:26.7	301.170	-0.170	-0.010	0.600
2020/01/31 11:57:26.8	301.160	-0.190	0.010	0.620
2020/01/31 11:57:26.9	301.150	-0.200	0.040	0.630
2020/01/31 11:57:27.0	301.140	-0.220	0.060	0.630
2020/01/31 11:57:27.1	301.130	-0.230	0.080	0.640
2020/01/31 11:57:27.2	301.120	-0.250	0.090	0.650
2020/01/31 11:57:27.3	301.110	-0.260	0.110	0.650
2020/01/31 11:57:27.4	301.100	-0.270	0.120	0.650
2020/01/31 11:57:27.5	301.080	-0.270	0.130	0.650
2020/01/31 11:57:27.6	301.070	-0.280	0.130	0.650
2020/01/31 11:57:27.7	301.060	-0.290	0.140	0.650
2020/01/31 11:57:27.8	301.060	-0.290	0.140	0.640
2020/01/31 11:57:27.9	301.050	-0.290	0.150	0.640
2020/01/31 11:57:28.0	301.040	-0.300	0.150	0.630
2020/01/31 11:57:28.1	301.040	-0.300	0.140	0.620
2020/01/31 11:57:28.2	301.030	-0.300	0.140	0.610
2020/01/31 11:57:28.3	301.030	-0.300	0.140	0.590
2020/01/31 11:57:28.4	301.030	-0.300	0.140	0.580
2020/01/31 11:57:28.5	301.020	-0.300	0.130	0.560
2020/01/31 11:57:28.6	301.020	-0.300	0.130	0.540
2020/01/31 11:57:28.7	301.020	-0.300	0.120	0.520
2020/01/31 11:57:28.8	301.030	-0.290	0.120	0.500
2020/01/31 11:57:28.9	301.030	-0.290	0.110	0.470
2020/01/31 11:57:29.0	301.030	-0.290	0.110	0.450
2020/01/31 11:57:29.1	301.040	-0.290	0.100	0.420
2020/01/31 11:57:29.2	301.040	-0.290	0.100	0.400
2020/01/31 11:57:29.3	301.050	-0.290	0.100	0.370
2020/01/31 11:57:29.4	301.060	-0.290	0.090	0.350
2020/01/31 11:57:29.5	301.070	-0.290	0.090	0.320
2020/01/31 11:57:29.6	301.080	-0.290	0.090	0.300
2020/01/31 11:57:29.7	301.080	-0.290	0.080	0.270
2020/01/31 11:57:29.8	301.090	-0.290	0.080	0.250
2020/01/31 11:57:29.9	301.090	-0.290	0.090	0.230
2020/01/31 11:57:30.0	301.100	-0.290	0.090	0.210
2020/01/31 11:57:30.1	301.110	-0.290	0.090	0.190
2020/01/31 11:57:30.2	301.110	-0.290	0.090	0.180
2020/01/31 11:57:30.3	301.120	-0.290	0.100	0.160
2020/01/31 11:57:30.4	301.130	-0.290	0.100	0.150
2020/01/31 11:57:30.5	301.120	-0.290	0.100	0.140
2020/01/31 11:57:30.6	301.130	-0.290	0.110	0.130
2020/01/31 11:57:30.7	301.140	-0.290	0.110	0.130
2020/01/31 11:57:30.8	301.140	-0.290	0.120	0.120
2020/01/31 11:57:30.9	301.150	-0.290	0.120	0.120
2020/01/31 11:57:31.0	301.160	-0.290	0.120	0.120
2020/01/31 11:57:31.1	301.160	-0.290	0.130	0.130
2020/01/31 11:57:31.2	301.170	-0.280	0.130	0.130
2020/01/31 11:57:31.3	301.170	-0.280	0.130	0.140
2020/01/31 11:57:31.4	301.180	-0.270	0.130	0.150
2020/01/31 11:57:31.5	301.200	-0.270	0.120	0.160
2020/01/31 11:57:31.6	301.200	-0.260	0.120	0.180
2020/01/31 11:57:31.7	301.210	-0.260	0.120	0.190
2020/01/31 11:57:31.8	301.210	-0.250	0.110	0.210
2020/01/31 11:57:31.9	301.220	-0.240	0.100	0.240
2020/01/31 11:57:32.0	301.220	-0.230	0.090	0.260
2020/01/31 11:57:32.1	301.220	-0.220	0.080	0.280
2020/01/31 11:57:32.2	301.230	-0.210	0.070	0.310
2020/01/31 11:57:32.3	301.230	-0.200	0.060	0.340
2020/01/31 11:57:32.4	301.230	-0.190	0.040	0.370
2020/01/31 11:57:32.5	301.230	-0.180	0.030	0.400
2020/01/31 11:57:32.6	301.230	-0.170	0.010	0.440
2020/01/31 11:57:32.7	301.230	-0.160	-0.010	0.470
2020/01/31 11:57:32.8	301.230	-0.140	-0.040	0.510
2020/01/31 11:57:32.9	301.230	-0.130	-0.060	0.540
2020/01/31 11:57:33.0	301.230	-0.110	-0.090	0.580
2020/01/31 11:57:33.1	301.230	-0.100	-0.110	0.620
2020/01/31 11:57:33.2	301.220	-0.080	-0.140	0.650
2020/01/31 11:57:33.3	301.220	-0.070	-0.170	0.690
2020/01/31 11:57:33.4	301.210	-0.050	-0.200	0.730
2020/01/31 11:57:33.5	301.200	-0.030	-0.240	0.760
2020/01/31 11:57:33.6	301.190	-0.020	-0.270	0.800
2020/01/31 11:57:33.7	301.180	-0.000	-0.310	0.840
2020/01/31 11:57:33.8	301.180	0.020	-0.340	0.870
2020/01/31 11:57:33.9	301.170	0.030	-0.380	0.900
2020/01/31 11:57:34.0	301.160	0.050	-0.420	0.940
2020/01/31 11:57:34.1	301.150	0.070	-0.450	0.970
2020/01/31 11:57:34.2	301.140	0.080	-0.490	1.000
2020/01/31 11:57:34.3	301.130	0.100	-0.530	1.030
2020/01/31 11:57:34.4	301.120	0.120	-0.570	1.050
2020/01/31 11:57:34.5	301.110	0.140	-0.600	1.080
2020/01/31 11:57:34.6	301.100	0.150	-0.640	1.100
2020/01/31 11:57:34.7	301.090	0.170	-0.670	1.120
2020/01/31 11:57:34.8	301.070	0.180	-0.710	1.150
2020/01/31 11:57:34.9	301.060	0.200	-0.740	1.170
2020/01/31 11:57:35.0	301.040	0.210	-0.770	1.180
2020/01/31 11:57:35.1	301.030	0.230	-0.800	1.200
2020/01/31 11:57:35.2	301.010	0.240	-0.830	1.210
2020/01/31 11:57:35.3	300.990	0.250	-0.850	1.230
2020/01/31 11:57:35.4	300.980	0.270	-0.870	1.240
2020/01/31 11:57:35.5	300.960	0.280	-0.890	1.250
2020/01/31 11:57:35.6	300.950	0.290	-0.910	1.260
2020/01/31 11:57:35.7	300.930	0.300	-0.920	1.270
2020/01/31 11:57:35.8	300.910	0.310	-0.930	1.270
2020/01/31 11:57:35.9	300.900	0.310	-0.940	1.270
2020/01/31 11:57:36.0	300.880	0.320	-0.940	1.270
2020/01/31 11:57:36.1	300.860	0.320	-0.940	1.270
2020/01/31 11:57:36.2	300.840	0.330	-0.940	1.270
2020/01/31 11:57:36.3	300.830	0.330	-0.930	1.260
2020/01/31 11:57:36.4	300.810	0.330	-0.920	1.260
2020/01/31 11:57:36.5	300.780	0.330	-0.910	1.240
2020/01/31 11:57:36.6	300.770	0.330	-0.890	1.240
2020/01/31 11:57:36.7	300.750	0.330	-0.870	1.220
2020/01/31 11:57:36.8	300.730	0.330	-0.850	1.210
2020/01/31 11:57:36.9	300.720	0.330	-0.820	1.200
2020/01/31 11:57:37.0	300.700	0.320	-0.790	1.180
2020/01/31 11:57:37.1	300.690	0.320	-0.760	1.170
2020/01/31 11:57:37.2	300.670	0.310	-0.730	1.150
2020/01/31 11:57:37.3	300.660	0.300	-0.700	1.130
2020/01/31 11:57:37.4	300.650	0.300	-0.660	1.110
2020/01/31 11:57:37.5	300.640	0.290	-0.630	1.080
2020/01/31 11:57:37.6	300.640	0.280	-0.590	1.060
2020/01/31 11:57:37.7	300.630	0.270	-0.550	1.030
2020/01/31 11:57:37.8	300.630	0.260	-0.520	1.000
2020/01/31 11:57:37.9	300.630	0.250	-0.480	0.970
2020/01/31 11:57:38.0	300.630	0.240	-0.440	0.940
2020/01/31 11:57:38.1	300.640	0.230	-0.410	0.910
2020/01/31 11:57:38.2	300.640	0.220	-0.370	0.880
2020/01/31 11:57:38.3	300.650	0.210	-0.330	0.840
2020/01/31 11:57:38.4	300.660	0.200	-0.300	0.810
2020/01/31 11:57:38.5	300.680	0.200	-0.270	0.770
2020/01/31 11:57:38.6	300.700	0.190	-0.230	0.730
2020/01/31 11:57:38.7	300.710	0.180	-0.200	0.690
2020/01/31 11:57:38.8	300.730	0.170	-0.170	0.650
2020/01/31 11:57:38.9	300.750	0.160	-0.150	0.610
2020/01/31 11:57:39.0	300.770	0.150	-0.120	0.570
2020/01/31 11:57:39.1	300.790	0.140	-0.100	0.530
2020/01/31 11:57:39.2	300.810	0.140	-0.070	0.490
2020/01/31 11:57:39.3	300.830	0.130	-0.050	0.450
2020/01/31 11:57:39.4	300.860	0.130	-0.030	0.410
2020/01/31 11:57:39.5	300.880	0.120	-0.010	0.370
2020/01/31 11:57:39.6	300.900	0.110	0.000	0.330
2020/01/31 11:57:39.7	300.930	0.110	0.020	0.290
2020/01/31 11:57:39.8	300.950	0.100	0.030	0.260
2020/01/31 11:57:39.9	300.980	0.100	0.040	0.220
2020/01/31 11:57:40.0	301.000	0.100	0.050	0.190
2020/01/31 11:57:40.1	301.030	0.090	0.060	0.160
2020/01/31 11:57:40.2	301.050	0.090	0.070	0.130
2020/01/31 11:57:40.3	301.080	0.090	0.070	0.100
2020/01/31 11:57:40.4	301.100	0.080	0.080	0.080
2020/01/31 11:57:40.5	301.110	0.080	0.080	0.060
2020/01/31 11:57:40.6	301.130	0.070	0.080	0.040
2020/01/31 11:57:40.7	301.150	0.070	0.080	0.020
2020/01/31 11:57:40.8	301.180	0.070	0.080	0.000
2020/01/31 11:57:40.9	301.200	0.060	0.080	-0.010
2020/01/31 11:57:41.0	301.220	0.060	0.080	-0.020
2020/01/31 11:57:41.1	301.240	0.050	0.080	-0.020
2020/01/31 11:57:41.2	301.260	0.050	0.070	-0.030
2020/01/31 11:57:41.3	301.280	0.040	0.070	-0.030
2020/01/31 11:57:41.4	301.300	0.030	0.070	-0.030
2020/01/31 11:57:41.5	301.330	0.020	0.070	-0.030
2020/01/31 11:57:41.6	301.340	0.010	0.060	-0.020
2020/01/31 11:57:41.7	301.360	0.010	0.060	-0.010
2020/01/31 11:57:41.8	301.380	-0.010	0.050	-0.000
2020/01/31 11:57:41.9	301.390	-0.020	0.050	0.010
2020/01/31 11:57:42.0	301.410	-0.030	0.040	0.020
2020/01/31 11:57:42.1	301.420	-0.040	0.040	0.040
2020/01/31 11:57:42.2	301.430	-0.050	0.030	0.060
2020/01/31 11:57:42.3	301.450	-0.070	0.030	0.080
2020/01/31 11:57:42.4	301.450	-0.080	0.020	0.100
2020/01/31 11:57:42.5	301.470	-0.100	0.020	0.130
2020/01/31 11:57:42.6	301.480	-0.110	0.020	0.150
2020/01/31 11:57:42.7	301.480	-0.130	0.010	0.170
2020/01/31 11:57:42.8	301.490	-0.140	0.010	0.200
2020/01/31 11:57:42.9	301.490	-0.160	0.010	0.230
2020/01/31 11:57:43.0	301.490	-0.180	0.010	0.250
2020/01/31 11:57:43.1	301.490	-0.190	0.010	0.280
2020/01/31 11:57:43.2	301.490	-0.210	0.010	0.300
2020/01/31 11:57:43.3	301.490	-0.230	0.010	0.330
2020/01/31 11:57:43.4	301.490	-0.240	0.010	0.350
2020/01/31 11:57:43.5	301.490	-0.260	0.010	0.380
2020/01/31 11:57:43.6	301.480	-0.280	0.010	0.400
2020/01/31 11:57:43.7	301.480	-0.290	0.010	0.430
2020/01/31 11:57:43.8	301.470	-0.300	0.010	0.450
2020/01/31 11:57:43.9	301.460	-0.320	0.010	0.470
2020/01/31 11:57:44.0	301.460	-0.330	0.010	0.490
2020/01/31 11:57:44.1	301.450	-0.340	0.010	0.510
2020/01/31 11:57:44.2	301.440	-0.350	0.010	0.530
2020/01/31 11:57:44.3	301.420	-0.360	0.010	0.540
2020/01/31 11:57:44.4	301.410	-0.360	0.010	0.560
2020/01/31 11:57:44.5	301.410	-0.370	0.010	0.580
2020/01/31 11:57:44.6	301.400	-0.370	0.010	0.590
2020/01/31 11:57:44.7	301.380	-0.380	0.010	0.610
2020/01/31 11:57:44.8	301.370	-0.380	0.010	0.630
2020/01/31 11:57:44.9	301.350	-0.370	0.010	0.640
2020/01/31 11:57:45.0	301.330	-0.370	0.000	0.650
2020/01/31 11:57:45.1	301.320	-0.370	-0.000	0.670
2020/01/31 11:57:45.2	301.300	-0.360	-0.010	0.680
2020/01/31 11:57:45.3	301.280	-0.350	-0.010	0.690
2020/01/31 11:57:45.4	301.260	-0.340	-0.020	0.700
2020/01/31 11:57:45.5	301.240	-0.330	-0.030	0.710
2020/01/31 11:57:45.6	301.220	-0.320	-0.040	0.720
2020/01/31 11:57:45.7	301.200	-0.300	-0.050	0.730
2020/01/31 11:57:45.8	301.170	-0.290	-0.060	0.740
2020/01/31 11:57:45.9	301.150	-0.270	-0.070	0.750
2020/01/31 11:57:46.0	301.130	-0.250	-0.080	0.760
2020/01/31 11:57:46.1	301.110	-0.230	-0.090	0.770
2020/01/31 11:57:46.2	301.080	-0.210	-0.110	0.770
2020/01/31 11:57:46.3	301.060	-0.190	-0.120	0.780
2020/01/31 11:57:46.4	301.030	-0.170	-0.140	0.780
2020/01/31 11:57:46.5	301.010	-0.140	-0.160	0.780
2020/01/31 11:57:46.6	300.980	-0.120	-0.170	0.790
2020/01/31 11:57:46.7	300.950	-0.100	-0.190	0.790
2020/01/31 11:57:46.8	300.930	-0.070	-0.210	0.790
2020/01/31 11:57:46.9	300.900	-0.050	-0.230	0.790
2020/01/31 11:57:47.0	300.870	-0.030	-0.250	0.790
2020/01/31 11:57:47.1	300.840	-0.000	-0.270	0.780
2020/01/31 11:57:47.2	300.810	0.020	-0.290	0.780
2020/01/31 11:57:47.3	300.790	0.040	-0.310	0.770
2020/01/31 11:57:47.4	300.760	0.060	-0.340	0.760
2020/01/31 11:57:47.5	300.730	0.080	-0.360	0.750
2020/01/31 11:57:47.6	300.710	0.100	-0.390	0.740
2020/01/31 11:57:47.7	300.690	0.120	-0.410	0.730
2020/01/31 11:57:47.8	300.670	0.130	-0.440	0.710
2020/01/31 11:57:47.9	300.650	0.150	-0.470	0.690
2020/01/31 11:57:48.0	300.630	0.160	-0.500	0.670
2020/01/31 11:57:48.1	300.620	0.170	-0.520	0.650
2020/01/31 11:57:48.2	300.610	0.180	-0.550	0.630
2020/01/31 11:57:48.3	300.600	0.190	-0.580	0.600
2020/01/31 11:57:48.4	300.600	0.200	-0.610	0.580
2020/01/31 11:57:48.5	300.590	0.200	-0.640	0.540
2020/01/31 11:57:48.6	300.590	0.210	-0.670	0.510
2020/01/31 11:57:48.7	300.590	0.210	-0.700	0.480
2020/01/31 11:57:48.8	300.600	0.210	-0.730	0.450
2020/01/31 11:57:48.9	300.610	0.210	-0.760	0.420
2020/01/31 11:57:49.0	300.620	0.200	-0.780	0.390
2020/01/31 11:57:49.1	300.640	0.200	-0.800	0.350
2020/01/31 11:57:49.2	300.650	0.190	-0.830	0.320
2020/01/31 11:57:49.3	300.670	0.190	-0.850	0.290
2020/01/31 11:57:49.4	300.690	0.180	-0.870	0.260
2020/01/31 11:57:49.5	300.720	0.170	-0.890	0.230
2020/01/31 11:57:49.6	300.750	0.160	-0.900	0.200
2020/01/31 11:57:49.7	300.770	0.150	-0.910	0.180
2020/01/31 11:57:49.8	300.800	0.130	-0.920	0.160
2020/01/31 11:57:49.9	300.830	0.120	-0.930	0.140
2020/01/31 11:57:50.0	300.860	0.110	-0.930	0.120
2020/01/31 11:57:50.1	300.890	0.100	-0.930	0.100
2020/01/31 11:57:50.2	300.920	0.080	-0.930	0.090
2020/01/31 11:57:50.3	300.940	0.070	-0.920	0.080
2020/01/31 11:57:50.4	300.970	0.060	-0.910	0.080
2020/01/31 11:57:50.5	301.010	0.040	-0.900	0.070
2020/01/31 11:57:50.6	301.040	0.030	-0.890	0.080
2020/01/31 11:57:50.7	301.070	0.020	-0.870	0.080
2020/01/31 11:57:50.8	301.090	0.010	-0.850	0.090
2020/01/31 11:57:50.9	301.120	-0.000	-0.830	0.100
2020/01/31 11:57:51.0	301.150	-0.010	-0.810	0.110
2020/01/31 11:57:51.1	301.170	-0.020	-0.780	0.130
2020/01/31 11:57:51.2	301.200	-0.030	-0.760	0.150
2020/01/31 11:57:51.3	301.220	-0.030	-0.730	0.170
2020/01/31 11:57:51.4	301.240	-0.040	-0.700	0.190
2020/01/31 11:57:51.5	301.260	-0.040	-0.670	0.220
2020/01/31 11:57:51.6	301.290	-0.050	-0.640	0.250
2020/01/31 11:57:51.7	301.310	-0.050	-0.610	0.280
2020/01/31 11:57:51.8	301.330	-0.050	-0.580	0.300
2020/01/31 11:57:51.9	301.350	-0.050	-0.550	0.330
2020/01/31 11:57:52.0	301.370	-0.050	-0.520	0.370
2020/01/31 11:57:52.1	301.380	-0.050	-0.490	0.400
2020/01/31 11:57:52.2	301.400	-0.040	-0.450	0.430
2020/01/31 11:57:52.3	301.410	-0.040	-0.420	0.460
2020/01/31 11:57:52.4	301.420	-0.040	-0.390	0.500
2020/01/31 11:57:52.5	301.450	-0.030	-0.350	0.530
2020/01/31 11:57:52.6	301.460	-0.030	-0.320	0.570
2020/01/31 11:57:52.7	301.460	-0.020	-0.280	0.600
2020/01/31 11:57:52.8	301.470	-0.010	-0.250	0.640
2020/01/31 11:57:52.9	301.470	-0.000	-0.210	0.670
2020/01/31 11:57:53.0	301.470	0.000	-0.180	0.710
2020/01/31 11:57:53.1	301.460	0.010	-0.140	0.740
2020/01/31 11:57:53.2	301.460	0.020	-0.110	0.780
2020/01/31 11:57:53.3	301.450	0.030	-0.070	0.810
2020/01/31 11:57:53.4	301.440	0.030	-0.030	0.840
2020/01/31 11:57:53.5	301.440	0.040	0.000	0.880
2020/01/31 11:57:53.6	301.420	0.050	0.040	0.910
2020/01/31 11:57:53.7	301.410	0.050	0.080	0.940
2020/01/31 11:57:53.8	301.400	0.060	0.110	0.970
2020/01/31 11:57:53.9	301.380	0.060	0.150	0.990
2020/01/31 11:57:54.0	301.360	0.070	0.190	1.020
2020/01/31 11:57:54.1	301.340	0.070	0.220	1.040
2020/01/31 11:57:54.2	301.330	0.070	0.250	1.060
2020/01/31 11:57:54.3	301.300	0.080	0.290	1.080
2020/01/31 11:57:54.4	301.280	0.080	0.320	1.090
2020/01/31 11:57:54.5	301.260	0.080	0.350	1.100
2020/01/31 11:57:54.6	301.240	0.080	0.380	1.110
2020/01/31 11:57:54.7	301.220	0.080	0.410	1.110
2020/01/31 11:57:54.8	301.200	0.080	0.430	1.110
2020/01/31 11:57:54.9	301.170	0.080	0.460	1.110
2020/01/31 11:57:55.0	301.150	0.080	0.480	1.100
2020/01/31 11:57:55.1	301.130	0.080	0.490	1.100
2020/01/31 11:57:55.2	301.110	0.080	0.510	1.080
2020/01/31 11:57:55.3	301.090	0.070	0.520	1.070
2020/01/31 11:57:55.4	301.070	0.070	0.530	1.050
2020/01/31 11:57:55.5	301.050	0.070	0.540	1.030
2020/01/31 11:57:55.6	301.030	0.060	0.540	1.000
2020/01/31 11:57:55.7	301.010	0.060	0.540	0.980
2020/01/31 11:57:55.8	300.990	0.050	0.540	0.950
2020/01/31 11:57:55.9	300.970	0.050	0.540	0.920
2020/01/31 11:57:56.0	300.950	0.050	0.530	0.890
2020/01/31 11:57:56.1	300.930	0.040	0.520	0.860
2020/01/31 11:57:56.2	300.910	0.040	0.510	0.830
2020/01/31 11:57:56.3	300.900	0.030	0.490	0.790
2020/01/31 11:57:56.4	300.880	0.030	0.480	0.760
2020/01/31 11:57:56.5	300.860	0.030	0.450	0.720
2020/01/31 11:57:56.6	300.850	0.030	0.430	0.680
2020/01/31 11:57:56.7	300.840	0.020	0.400	0.650
2020/01/31 11:57:56.8	300.820	0.020	0.370	0.610
2020/01/31 11:57:56.9	300.810	0.020	0.340	0.580
2020/01/31 11:57:57.0	300.800	0.020	0.300	0.540
2020/01/31 11:57:57.1	300.790	0.030	0.260	0.500
2020/01/31 11:57:57.2	300.780	0.030	0.220	0.470
2020/01/31 11:57:57.3	300.780	0.030	0.180	0.430
2020/01/31 11:57:57.4	300.770	0.030	0.140	0.400
2020/01/31 11:57:57.5	300.760	0.040	0.090	0.360
2020/01/31 11:57:57.6	300.750	0.040	0.040	0.330
2020/01/31 11:57:57.7	300.750	0.050	-0.010	0.290
2020/01/31 11:57:57.8	300.750	0.060	-0.060	0.260
2020/01/31 11:57:57.9	300.750	0.060	-0.110	0.230
2020/01/31 11:57:58.0	300.750	0.070	-0.160	0.200
2020/01/31 11:57:58.1	300.750	0.070	-0.220	0.170
2020/01/31 11:57:58.2	300.750	0.080	-0.270	0.140
2020/01/31 11:57:58.3	300.750	0.090	-0.320	0.120
2020/01/31 11:57:58.4	300.750	0.090	-0.370	0.100
2020/01/31 11:57:58.5	300.740	0.100	-0.420	0.070
2020/01/31 11:57:58.6	300.750	0.100	-0.470	0.050
2020/01/31 11:57:58.7	300.750	0.110	-0.510	0.040
2020/01/31 11:57:58.8	300.760	0.110	-0.550	0.020
2020/01/31 11:57:58.9	300.770	0.110	-0.590	0.010
2020/01/31 11:57:59.0	300.770	0.120	-0.630	0.000
2020/01/31 11:57:59.1	300.780	0.120	-0.660	-0.010
2020/01/31 11:57:59.2	300.790	0.120	-0.700	-0.010
2020/01/31 11:57:59.3	300.800	0.120	-0.720	-0.010
2020/01/31 11:57:59.4	300.810	0.110	-0.750	-0.010
2020/01/31 11:57:59.5				
2020/01/31 11:57:59.6	300.820	0.110	-0.770	-0.010
2020/01/31 11:57:59.7	300.840	0.100	-0.800	-0.000
2020/01/31 11:57:59.8	300.850	0.090	-0.800	0.010
2020/01/31 11:57:59.9	300.860	0.080	-0.810	0.020
2020/01/31 11:58:00.0	300.870	0.070	-0.810	0.030
2020/01/31 11:58:00.1	300.880	0.050	-0.800	0.050
2020/01/31 11:58:00.2	300.890	0.040	-0.790	0.060
2020/01/31 11:58:00.3	300.900	0.020	-0.780	0.080
2020/01/31 11:58:00.4	300.910	0.010	-0.770	0.110
2020/01/31 11:58:00.5	300.920	-0.010	-0.750	0.130
2020/01/31 11:58:00.6	300.930	-0.030	-0.730	0.150
2020/01/31 11:58:00.7	300.930	-0.050	-0.710	0.180
2020/01/31 11:58:00.8	300.930	-0.070	-0.690	0.210
2020/01/31 11:58:00.9	300.940	-0.090	-0.660	0.230
2020/01/31 11:58:01.0	300.930	-0.110	-0.630	0.260
2020/01/31 11:58:01.1	300.930	-0.130	-0.600	0.290
2020/01/31 11:58:01.2	300.930	-0.150	-0.570	0.320
2020/01/31 11:58:01.3	300.930	-0.170	-0.540	0.350
2020/01/31 11:58:01.4	300.920	-0.190	-0.520	0.380
2020/01/31 11:58:01.5	300.940	-0.210	-0.480	0.410
2020/01/31 11:58:01.6				
2020/01/31 11:58:01.7	300.930	-0.230	-0.460	0.440
2020/01/31 11:58:01.8	300.910	-0.270	-0.400	0.490
2020/01/31 11:58:01.9	300.900	-0.290	-0.380	0.520
2020/01/31 11:58:02.0	300.890	-0.300	-0.360	0.540
2020/01/31 11:58:02.1	300.890	-0.320	-0.340	0.570
2020/01/31 11:58:02.2	300.880	-0.330	-0.320	0.590
2020/01/31 11:58:02.3	300.870	-0.340	-0.310	0.610
2020/01/31 11:58:02.4	300.860	-0.350	-0.290	0.630
2020/01/31 11:58:02.5	300.850	-0.360	-0.290	0.650
2020/01/31 11:58:02.6	300.840	-0.370	-0.280	0.670
2020/01/31 11:58:02.7	300.840	-0.370	-0.280	0.690
2020/01/31 11:58:02.8	300.830	-0.380	-0.270	0.700
2020/01/31 11:58:02.9	300.820	-0.380	-0.280	0.720
2020/01/31 11:58:03.0	300.820	-0.380	-0.280	0.730
2020/01/31 11:58:03.1	300.810	-0.380	-0.280	0.750
2020/01/31 11:58:03.2	300.800	-0.370	-0.290	0.760
2020/01/31 11:58:03.3	300.800	-0.370	-0.300	0.770
2020/01/31 11:58:03.4	300.790	-0.360	-0.310	0.790
2020/01/31 11:58:03.5	300.770	-0.350	-0.320	0.800
2020/01/31 11:58:03.6	300.770	-0.340	-0.340	0.810
2020/01/31 11:58:03.7				
2020/01/31 11:58:03.8	300.760	-0.320	-0.350	0.820
2020/01/31 11:58:03.9	300.760	-0.290	-0.380	0.840
2020/01/31 11:58:04.0	300.750	-0.270	-0.390	0.850
2020/01/31 11:58:04.1	300.750	-0.260	-0.410	0.860
2020/01/31 11:58:04.2	300.750	-0.230	-0.420	0.860
2020/01/31 11:58:04.3	300.750	-0.210	-0.430	0.870
2020/01/31 11:58:04.4	300.750	-0.190	-0.440	0.870
2020/01/31 11:58:04.5	300.730	-0.170	-0.450	0.880
2020/01/31 11:58:04.6	300.730	-0.140	-0.460	0.880
2020/01/31 11:58:04.7	300.730	-0.120	-0.470	0.890
2020/01/31 11:58:04.8	300.730	-0.090	-0.480	0.890
2020/01/31 11:58:04.9	300.730	-0.060	-0.480	0.890
2020/01/31 11:58:05.0	300.730	-0.040	-0.480	0.900
2020/01/31 11:58:05.1	300.730	-0.010	-0.490	0.900
2020/01/31 11:58:05.2	300.730	0.010	-0.480	0.900
2020/01/31 11:58:05.3	300.720	0.040	-0.480	0.900
2020/01/31 11:58:05.4	300.720	0.060	-0.480	0.900
2020/01/31 11:58:05.5	300.720	0.090	-0.470	0.900
2020/01/31 11:58:05.6	300.720	0.110	-0.460	0.900
2020/01/31 11:58:05.7	300.720	0.130	-0.450	0.900
2020/01/31 11:58:05.8	300.720	0.160	-0.440	0.890
2020/01/31 11:58:05.9	300.720	0.180	-0.420	0.890
2020/01/31 11:58:06.0	300.720	0.200	-0.400	0.890
2020/01/31 11:58:06.1	300.710	0.220	-0.380	0.890
2020/01/31 11:58:06.2	300.710	0.230	-0.360	0.890
2020/01/31 11:58:06.3	300.710	0.250	-0.340	0.890
2020/01/31 11:58:06.4	300.710	0.270	-0.320	0.880
2020/01/31 11:58:06.5	300.710	0.280	-0.300	0.880
2020/01/31 11:58:06.6	300.700	0.290	-0.270	0.880
2020/01/31 11:58:06.7	300.700	0.300	-0.250	0.870
2020/01/31 11:58:06.8	300.700	0.310	-0.220	0.870
2020/01/31 11:58:06.9	300.700	0.320	-0.200	0.860
2020/01/31 11:58:07.0	300.690	0.320	-0.170	0.860
2020/01/31 11:58:07.1	300.690	0.330	-0.140	0.850
2020/01/31 11:58:07.2	300.690	0.330	-0.120	0.850
2020/01/31 11:58:07.3	300.680	0.330	-0.090	0.840
2020/01/31 11:58:07.4	300.680	0.330	-0.070	0.830
2020/01/31 11:58:07.5	300.680	0.330	-0.040	0.830
2020/01/31 11:58:07.6	300.680	0.330	-0.020	0.820
2020/01/31 11:58:07.7	300.680	0.330	0.000	0.810
2020/01/31 11:58:07.8	300.680	0.330	0.020	0.800
2020/01/31 11:58:07.9	300.680	0.320	0.040	0.790
2020/01/31 11:58:08.0	300.680	0.320	0.050	0.780
2020/01/31 11:58:08.1	300.680	0.310	0.060	0.770
2020/01/31 11:58:08.2	300.680	0.310	0.070	0.760
2020/01/31 11:58:08.3	300.680	0.300	0.080	0.750
2020/01/31 11:58:08.4	300.690	0.300	0.080	0.740
2020/01/31 11:58:08.5	300.700	0.290	0.080	0.730
2020/01/31 11:58:08.6	300.710	0.280	0.080	0.720
2020/01/31 11:58:08.7	300.710	0.280	0.080	0.700
2020/01/31 11:58:08.8	300.720	0.270	0.070	0.690
2020/01/31 11:58:08.9	300.720	0.260	0.070	0.680
2020/01/31 11:58:09.0	300.730	0.250	0.060	0.670
2020/01/31 11:58:09.1	300.730	0.250	0.050	0.650
2020/01/31 11:58:09.2	300.740	0.240	0.040	0.640
2020/01/31 11:58:09.3	300.750	0.230	0.030	0.620
2020/01/31 11:58:09.4	300.750	0.220	0.020	0.610
2020/01/31 11:58:09.5	300.760	0.210	0.010	0.590
2020/01/31 11:58:09.6	300.760	0.200	0.000	0.580
2020/01/31 11:58:09.7	300.770	0.190	-0.010	0.560
2020/01/31 11:58:09.8	300.780	0.180	-0.020	0.540
2020/01/31 11:58:09.9	300.780	0.170	-0.030	0.520
2020/01/31 11:58:10.0	300.790	0.160	-0.040	0.500
2020/01/31 11:58:10.1	300.800	0.150	-0.050	0.490
2020/01/31 11:58:10.2	300.800	0.140	-0.060	0.460
2020/01/31 11:58:10.3	300.810	0.130	-0.070	0.440
2020/01/31 11:58:10.4	300.820	0.110	-0.070	0.420
2020/01/31 11:58:10.5	300.830	0.100	-0.080	0.400
2020/01/31 11:58:10.6	300.830	0.090	-0.080	0.370
2020/01/31 11:58:10.7	300.840	0.070	-0.080	0.350
2020/01/31 11:58:10.8	300.850	0.060	-0.090	0.330
2020/01/31 11:58:10.9	300.850	0.050	-0.090	0.310
2020/01/31 11:58:11.0	300.860	0.030	-0.090	0.280
2020/01/31 11:58:11.1	300.870	0.010	-0.080	0.260
2020/01/31 11:58:11.2	300.870	-0.000	-0.080	0.240
2020/01/31 11:58:11.3	300.880	-0.020	-0.080	0.220
2020/01/31 11:58:11.4	300.890	-0.030	-0.070	0.190
2020/01/31 11:58:11.5	300.900	-0.050	-0.070	0.170
2020/01/31 11:58:11.6	300.910	-0.070	-0.060	0.150
2020/01/31 11:58:11.7	300.910	-0.080	-0.060	0.130
2020/01/31 11:58:11.8	300.920	-0.100	-0.050	0.110
2020/01/31 11:58:11.9	300.920	-0.110	-0.050	0.100
2020/01/31 11:58:12.0	300.930	-0.130	-0.040	0.080
2020/01/31 11:58:12.1				
2020/01/31 11:58:12.2	300.930	-0.150	-0.040	0.070
2020/01/31 11:58:12.3	300.940	-0.180	-0.030	0.040
2020/01/31 11:58:12.4	300.950	-0.190	-0.030	0.030
2020/01/31 11:58:12.5	300.940	-0.200	-0.040	0.010
2020/01/31 11:58:12.6	300.940	-0.220	-0.040	0.000
2020/01/31 11:58:12.7	300.940	-0.230	-0.040	-0.000
2020/01/31 11:58:12.8	300.950	-0.240	-0.050	-0.010
2020/01/31 11:58:12.9	300.950	-0.250	-0.050	-0.010
2020/01/31 11:58:13.0	300.950	-0.270	-0.060	-0.010
2020/01/31 11:58:13.1	300.950	-0.280	-0.060	-0.010
2020/01/31 11:58:13.2	300.950	-0.290	-0.070	-0.010
2020/01/31 11:58:13.3	300.950	-0.300	-0.080	-0.010
2020/01/31 11:58:13.4	300.950	-0.300	-0.090	-0.010
2020/01/31 11:58:13.5	300.930	-0.310	-0.100	-0.010
2020/01/31 11:58:13.6	300.930	-0.320	-0.120	-0.000
2020/01/31 11:58:13.7	300.930	-0.330	-0.130	0.000
2020/01/31 11:58:13.8	300.930	-0.330	-0.150	0.010
2020/01/31 11:58:13.9	300.920	-0.340	-0.160	0.010
2020/01/31 11:58:14.0	300.920	-0.340	-0.180	0.020
2020/01/31 11:58:14.1	300.910	-0.350	-0.190	0.030
2020/01/31 11:58:14.2				
2020/01/31 11:58:14.3	300.910	-0.350	-0.210	0.040
2020/01/31 11:58:14.4	300.890	-0.350	-0.240	0.060
2020/01/31 11:58:14.5	300.870	-0.350	-0.260	0.070
2020/01/31 11:58:14.6	300.860	-0.350	-0.280	0.080
2020/01/31 11:58:14.7	300.850	-0.350	-0.290	0.100
2020/01/31 11:58:14.8	300.840	-0.350	-0.310	0.110
2020/01/31 11:58:14.9	300.830	-0.350	-0.320	0.130
2020/01/31 11:58:15.0	300.820	-0.350	-0.340	0.140
2020/01/31 11:58:15.1	300.810	-0.340	-0.350	0.160
2020/01/31 11:58:15.2	300.790	-0.340	-0.370	0.180
2020/01/31 11:58:15.3	300.780	-0.330	-0.380	0.210
2020/01/31 11:58:15.4	300.770	-0.320	-0.390	0.230
2020/01/31 11:58:15.5	300.750	-0.320	-0.410	0.260
2020/01/31 11:58:15.6	300.740	-0.310	-0.420	0.290
2020/01/31 11:58:15.7	300.720	-0.300	-0.430	0.320
2020/01/31 11:58:15.8	300.710	-0.290	-0.440	0.350
2020/01/31 11:58:15.9	300.690	-0.270	-0.450	0.380
2020/01/31 11:58:16.0	300.680	-0.260	-0.470	0.410
2020/01/31 11:58:16.1	300.660	-0.250	-0.480	0.450
2020/01/31 11:58:16.2	300.640	-0.230	-0.490	0.480
2020/01/31 11:58:16.3				
2020/01/31 11:58:16.4	300.630	-0.220	-0.500	0.520
2020/01/31 11:58:16.5	300.620	-0.180	-0.530	0.590
2020/01/31 11:58:16.6	300.600	-0.160	-0.540	0.620
2020/01/31 11:58:16.7	300.590	-0.140	-0.550	0.660
2020/01/31 11:58:16.8	300.570	-0.120	-0.570	0.700
2020/01/31 11:58:16.9	300.560	-0.100	-0.580	0.730
2020/01/31 11:58:17.0	300.550	-0.080	-0.600	0.770
2020/01/31 11:58:17.1	300.540	-0.050	-0.610	0.810
2020/01/31 11:58:17.2	300.530	-0.030	-0.620	0.840
2020/01/31 11:58:17.3	300.520	-0.010	-0.640	0.880
2020/01/31 11:58:17.4	300.510	0.010	-0.650	0.910
2020/01/31 11:58:17.5	300.510	0.040	-0.660	0.950
2020/01/31 11:58:17.6	300.500	0.060	-0.670	0.980
2020/01/31 11:58:17.7	300.490	0.090	-0.680	1.010
2020/01/31 11:58:17.8	300.490	0.110	-0.690	1.040
2020/01/31 11:58:17.9	300.480	0.130	-0.700	1.070
2020/01/31 11:58:18.0	300.480	0.160	-0.710	1.100
2020/01/31 11:58:18.1	300.470	0.180	-0.720	1.130
2020/01/31 11:58:18.2	300.470	0.200	-0.730	1.150
2020/01/31 11:58:18.3	300.470	0.220	-0.730	1.180
2020/01/31 11:58:18.4				
2020/01/31 11:58:18.5	300.460	0.240	-0.730	1.200
2020/01/31 11:58:18.6	300.450	0.280	-0.740	1.240
2020/01/31 11:58:18.7	300.450	0.300	-0.740	1.260
2020/01/31 11:58:18.8	300.450	0.310	-0.730	1.280
2020/01/31 11:58:18.9	300.450	0.330	-0.730	1.290
2020/01/31 11:58:19.0	300.450	0.340	-0.720	1.300
2020/01/31 11:58:19.1	300.450	0.350	-0.710	1.310
2020/01/31 11:58:19.2	300.450	0.360	-0.700	1.320
2020/01/31 11:58:19.3	300.460	0.370	-0.690	1.320
2020/01/31 11:58:19.4	300.460	0.380	-0.670	1.320
2020/01/31 11:58:19.5	300.470	0.380	-0.650	1.320
2020/01/31 11:58:19.6	300.470	0.380	-0.630	1.320
2020/01/31 11:58:19.7	300.470	0.380	-0.610	1.310
2020/01/31 11:58:19.8	300.480	0.380	-0.580	1.300
2020/01/31 11:58:19.9	300.480	0.380	-0.550	1.290
2020/01/31 11:58:20.0	300.490	0.380	-0.520	1.280
2020/01/31 11:58:20.1	300.500	0.370	-0.480	1.260
2020/01/31 11:58:20.2	300.510	0.360	-0.450	1.240
2020/01/31 11:58:20.3	300.520	0.350	-0.410	1.220
2020/01/31 11:58:20.4	300.530	0.340	-0.370	1.200
2020/01/31 11:58:20.5				
2020/01/31 11:58:20.6	300.530	0.330	-0.330	1.170
2020/01/31 11:58:20.7	300.560	0.300	-0.250	1.120
2020/01/31 11:58:20.8	300.570	0.280	-0.210	1.090
2020/01/31 11:58:20.9	300.590	0.270	-0.170	1.050
2020/01/31 11:58:21.0	300.600	0.250	-0.130	1.020
2020/01/31 11:58:21.1	300.620	0.230	-0.090	0.980
2020/01/31 11:58:21.2	300.640	0.210	-0.050	0.940
2020/01/31 11:58:21.3	300.660	0.200	-0.010	0.900
2020/01/31 11:58:21.4	300.680	0.180	0.020	0.870
2020/01/31 11:58:21.5	300.700	0.160	0.060	0.820
2020/01/31 11:58:21.6	300.720	0.140	0.090	0.780
2020/01/31 11:58:21.7	300.740	0.120	0.120	0.740
2020/01/31 11:58:21.8	300.760	0.100	0.150	0.690
2020/01/31 11:58:21.9	300.780	0.080	0.170	0.650
2020/01/31 11:58:22.0	300.800	0.070	0.200	0.610
2020/01/31 11:58:22.1	300.820	0.050	0.220	0.570
2020/01/31 11:58:22.2	300.840	0.030	0.240	0.520
2020/01/31 11:58:22.3	300.870	0.020	0.250	0.480
2020/01/31 11:58:22.4	300.880	0.010	0.260	0.440
2020/01/31 11:58:22.5	300.900	-0.010	0.270	0.400
2020/01/31 11:58:22.6				
2020/01/31 11:58:22.7	300.910	-0.020	0.280	0.370
2020/01/31 11:58:22.8	300.950	-0.040	0.280	0.300
2020/01/31 11:58:22.9	300.960	-0.050	0.280	0.260
2020/01/31 11:58:23.0	300.970	-0.060	0.280	0.230
2020/01/31 11:58:23.1	300.990	-0.060	0.280	0.210
2020/01/31 11:58:23.2	301.000	-0.070	0.270	0.180
2020/01/31 11:58:23.3	301.000	-0.070	0.270	0.160
2020/01/31 11:58:23.4	301.010	-0.080	0.260	0.140
2020/01/31 11:58:23.5	301.020	-0.080	0.250	0.120
2020/01/31 11:58:23.6	301.030	-0.080	0.240	0.110
2020/01/31 11:58:23.7	301.030	-0.080	0.230	0.100
2020/01/31 11:58:23.8	301.040	-0.080	0.210	0.090
2020/01/31 11:58:23.9	301.040	-0.070	0.200	0.080
2020/01/31 11:58:24.0	301.040	-0.070	0.190	0.080
2020/01/31 11:58:24.1	301.030	-0.070	0.170	0.080
2020/01/31 11:58:24.2	301.030	-0.060	0.160	0.090
2020/01/31 11:58:24.3	301.030	-0.060	0.150	0.090
2020/01/31 11:58:24.4	301.020	-0.050	0.130	0.100
2020/01/31 11:58:24.5	301.020	-0.040	0.120	0.120
2020/01/31 11:58:24.6	301.010	-0.040	0.100	0.130
2020/01/31 11:58:24.7				
2020/01/31 11:58:24.8	301.000	-0.030	0.090	0.150
2020/01/31 11:58:24.9	300.980	-0.020	0.070	0.190
2020/01/31 11:58:25.0	300.960	-0.010	0.050	0.220
2020/01/31 11:58:25.1	300.940	-0.010	0.040	0.240
2020/01/31 11:58:25.2	300.930	-0.000	0.030	0.270
2020/01/31 11:58:25.3	300.910	0.000	0.020	0.300
2020/01/31 11:58:25.4	300.890	0.000	0.010	0.320
2020/01/31 11:58:25.5	300.870	0.010	-0.000	0.350
2020/01/31 11:58:25.6	300.840	0.010	-0.010	0.380
2020/01/31 11:58:25.7	300.820	0.010	-0.020	0.410
2020/01/31 11:58:25.8	300.800	0.010	-0.030	0.440
2020/01/31 11:58:25.9	300.770	0.010	-0.040	0.470
2020/01/31 11:58:26.0	300.740	0.010	-0.050	0.500
2020/01/31 11:58:26.1	300.720	0.000	-0.070	0.530
2020/01/31 11:58:26.2	300.690	-0.000	-0.080	0.560
2020/01/31 11:58:26.3	300.660	-0.010	-0.090	0.580
2020/01/31 11:58:26.4	300.630	-0.010	-0.100	0.610
2020/01/31 11:58:26.5	300.610	-0.020	-0.110	0.630
2020/01/31 11:58:26.6	300.580	-0.030	-0.130	0.660
2020/01/31 11:58:26.7	300.550	-0.030	-0.140	0.680
2020/01/31 11:58:26.8				
2020/01/31 11:58:26.9	300.520	-0.040	-0.160	0.700
2020/01/31 11:58:27.0	300.460	-0.060	-0.190	0.740
2020/01/31 11:58:27.1	300.430	-0.070	-0.220	0.750
2020/01/31 11:58:27.2	300.400	-0.080	-0.240	0.760
2020/01/31 11:58:27.3	300.370	-0.090	-0.260	0.770
2020/01/31 11:58:27.4	300.350	-0.100	-0.280	0.780
2020/01/31 11:58:27.5	300.310	-0.110	-0.310	0.790
2020/01/31 11:58:27.6	300.290	-0.120	-0.330	0.790
2020/01/31 11:58:27.7	300.270	-0.130	-0.360	0.790
2020/01/31 11:58:27.8	300.250	-0.140	-0.390	0.780
2020/01/31 11:58:27.9	300.220	-0.150	-0.410	0.780
2020/01/31 11:58:28.0	300.200	-0.160	-0.440	0.770
2020/01/31 11:58:28.1	300.190	-0.160	-0.470	0.760
2020/01/31 11:58:28.2	300.170	-0.170	-0.500	0.750
2020/01/31 11:58:28.3	300.150	-0.180	-0.520	0.730
2020/01/31 11:58:28.4	300.140	-0.180	-0.550	0.710
2020/01/31 11:58:28.5	300.130	-0.190	-0.570	0.690
2020/01/31 11:58:28.6	300.120	-0.190	-0.590	0.670
2020/01/31 11:58:28.7	300.100	-0.200	-0.620	0.650
2020/01/31 11:58:28.8	300.090	-0.200	-0.640	0.630
2020/01/31 11:58:28.9				
2020/01/31 11:58:29.0	300.080	-0.200	-0.650	0.610
2020/01/31 11:58:29.1	300.060	-0.200	-0.690	0.560
2020/01/31 11:58:29.2	300.060	-0.200	-0.700	0.530
2020/01/31 11:58:29.3	300.050	-0.200	-0.710	0.500
2020/01/31 11:58:29.4	300.050	-0.200	-0.720	0.480
2020/01/31 11:58:29.5	300.030	-0.200	-0.720	0.450
2020/01/31 11:58:29.6	300.030	-0.200	-0.720	0.420
2020/01/31 11:58:29.7	300.030	-0.200	-0.730	0.400
2020/01/31 11:58:29.8	300.030	-0.200	-0.720	0.370
2020/01/31 11:58:29.9	300.040	-0.200	-0.720	0.340
2020/01/31 11:58:30.0	300.040	-0.190	-0.720	0.320
2020/01/31 11:58:30.1	300.050	-0.190	-0.710	0.300
2020/01/31 11:58:30.2	300.060	-0.190	-0.700	0.270
2020/01/31 11:58:30.3	300.060	-0.180	-0.690	0.250
2020/01/31 11:58:30.4	300.080	-0.180	-0.680	0.230
2020/01/31 11:58:30.5	300.080	-0.180	-0.670	0.210
2020/01/31 11:58:30.6	300.090	-0.170	-0.660	0.190
2020/01/31 11:58:30.7	300.110	-0.170	-0.640	0.170
2020/01/31 11:58:30.8	300.120	-0.170	-0.630	0.160
2020/01/31 11:58:30.9	300.140	-0.160	-0.610	0.140
2020/01/31 11:58:31.0				
2020/01/31 11:58:31.1	300.160	-0.160	-0.600	0.130
2020/01/31 11:58:31.2	300.200	-0.150	-0.560	0.120
2020/01/31 11:58:31.3	300.220	-0.150	-0.550	0.120
2020/01/31 11:58:31.4	300.240	-0.140	-0.530	0.110
2020/01/31 11:58:31.5	300.260	-0.140	-0.510	0.110
2020/01/31 11:58:31.6	300.280	-0.130	-0.490	0.120
2020/01/31 11:58:31.7	300.310	-0.120	-0.480	0.120
2020/01/31 11:58:31.8	300.330	-0.120	-0.460	0.130
2020/01/31 11:58:31.9	300.350	-0.110	-0.440	0.140
2020/01/31 11:58:32.0	300.380	-0.100	-0.420	0.160
2020/01/31 11:58:32.1	300.400	-0.090	-0.400	0.170
2020/01/31 11:58:32.2	300.420	-0.090	-0.380	0.190
2020/01/31 11:58:32.3	300.450	-0.080	-0.360	0.220
2020/01/31 11:58:32.4	300.470	-0.070	-0.340	0.240
2020/01/31 11:58:32.5	300.500	-0.060	-0.320	0.260
2020/01/31 11:58:32.6	300.520	-0.040	-0.300	0.290
2020/01/31 11:58:32.7	300.540	-0.030	-0.290	0.330
2020/01/31 11:58:32.8	300.560	-0.020	-0.270	0.360
2020/01/31 11:58:32.9	300.580	-0.010	-0.250	0.400
2020/01/31 11:58:33.0	300.600	0.010	-0.230	0.440
2020/01/31 11:58:33.1				
2020/01/31 11:58:33.2	300.620	0.020	-0.210	0.480
2020/01/31 11:58:33.3	300.650	0.060	-0.180	0.560
2020/01/31 11:58:33.4	300.670	0.070	-0.160	0.600
2020/01/31 11:58:33.5	300.690	0.090	-0.140	0.650
2020/01/31 11:58:33.6	300.710	0.110	-0.120	0.690
2020/01/31 11:58:33.7	300.720	0.130	-0.110	0.740
2020/01/31 11:58:33.8	300.740	0.150	-0.100	0.780
2020/01/31 11:58:33.9	300.750	0.170	-0.080	0.830
2020/01/31 11:58:34.0	300.760	0.190	-0.070	0.870
2020/01/31 11:58:34.1	300.770	0.200	-0.060	0.910
2020/01/31 11:58:34.2	300.780	0.220	-0.050	0.960
2020/01/31 11:58:34.3	300.800	0.240	-0.040	1.000
2020/01/31 11:58:34.4	300.810	0.260	-0.040	1.040
2020/01/31 11:58:34.5	300.820	0.280	-0.030	1.080
2020/01/31 11:58:34.6	300.830	0.300	-0.030	1.110
2020/01/31 11:58:34.7	300.840	0.310	-0.020	1.150
2020/01/31 11:58:34.8	300.850	0.330	-0.020	1.180
2020/01/31 11:58:34.9	300.850	0.340	-0.020	1.210
2020/01/31 11:58:35.0	300.850	0.360	-0.020	1.230
2020/01/31 11:58:35.1	300.860	0.370	-0.020	1.260
2020/01/31 11:58:35.2				
2020/01/31 11:58:35.3	300.860	0.380	-0.020	1.280
2020/01/31 11:58:35.4	300.860	0.400	-0.020	1.320
2020/01/31 11:58:35.5	300.830	0.400	-0.030	1.330
2020/01/31 11:58:35.6	300.830	0.410	-0.030	1.340
2020/01/31 11:58:35.7	300.820	0.410	-0.030	1.350
2020/01/31 11:58:35.8	300.820	0.410	-0.040	1.350
2020/01/31 11:58:35.9	300.810	0.410	-0.040	1.350
2020/01/31 11:58:36.0	300.800	0.410	-0.040	1.350
2020/01/31 11:58:36.1	300.790	0.400	-0.050	1.350
2020/01/31 11:58:36.2	300.780	0.400	-0.050	1.340
2020/01/31 11:58:36.3	300.770	0.390	-0.050	1.320
2020/01/31 11:58:36.4	300.750	0.380	-0.050	1.310
2020/01/31 11:58:36.5	300.750	0.370	-0.050	1.290
2020/01/31 11:58:36.6	300.730	0.350	-0.050	1.270
2020/01/31 11:58:36.7	300.720	0.340	-0.050	1.240
2020/01/31 11:58:36.8	300.700	0.320	-0.050	1.220
2020/01/31 11:58:36.9	300.690	0.300	-0.050	1.190
2020/01/31 11:58:37.0	300.670	0.280	-0.050	1.160
2020/01/31 11:58:37.1	300.650	0.260	-0.050	1.120
2020/01/31 11:58:37.2	300.640	0.240	-0.050	1.080
2020/01/31 11:58:37.3				
2020/01/31 11:58:37.4	300.620	0.220	-0.050	1.040
2020/01/31 11:58:37.5	300.610	0.170	-0.050	0.960
2020/01/31 11:58:37.6	300.590	0.150	-0.050	0.910
2020/01/31 11:58:37.7	300.580	0.130	-0.050	0.860
2020/01/31 11:58:37.8	300.570	0.100	-0.050	0.810
2020/01/31 11:58:37.9	300.560	0.080	-0.050	0.760
2020/01/31 11:58:38.0	300.550	0.050	-0.060	0.700
2020/01/31 11:58:38.1	300.540	0.030	-0.060	0.650
2020/01/31 11:58:38.2	300.530	0.000	-0.070	0.590
2020/01/31 11:58:38.3	300.520	-0.020	-0.070	0.530
2020/01/31 11:58:38.4	300.520	-0.040	-0.080	0.470
2020/01/31 11:58:38.5	300.520	-0.070	-0.090	0.420
2020/01/31 11:58:38.6	300.520	-0.090	-0.100	0.360
2020/01/31 11:58:38.7	300.510	-0.110	-0.110	0.300
2020/01/31 11:58:38.8	300.510	-0.130	-0.120	0.240
2020/01/31 11:58:38.9	300.510	-0.150	-0.130	0.180
2020/01/31 11:58:39.0	300.510	-0.170	-0.150	0.120
2020/01/31 11:58:39.1	300.500	-0.190	-0.160	0.070
2020/01/31 11:58:39.2	300.500	-0.210	-0.170	0.020
2020/01/31 11:58:39.3	300.500	-0.220	-0.190	-0.040
2020/01/31 11:58:39.4				
2020/01/31 11:58:39.5	300.500	-0.240	-0.200	-0.080
2020/01/31 11:58:39.6	300.480	-0.260	-0.230	-0.180
2020/01/31 11:58:39.7	300.480	-0.280	-0.240	-0.220
2020/01/31 11:58:39.8	300.480	-0.290	-0.260	-0.260
2020/01/31 11:58:39.9	300.480	-0.300	-0.270	-0.290
2020/01/31 11:58:40.0	300.480	-0.300	-0.280	-0.320
2020/01/31 11:58:40.1	300.480	-0.310	-0.290	-0.350
2020/01/31 11:58:40.2	300.480	-0.310	-0.310	-0.370
2020/01/31 11:58:40.3	300.470	-0.320	-0.320	-0.390
2020/01/31 11:58:40.4	300.470	-0.320	-0.320	-0.410
2020/01/31 11:58:40.5	300.460	-0.320	-0.330	-0.420
2020/01/31 11:58:40.6	300.450	-0.320	-0.340	-0.430
2020/01/31 11:58:40.7	300.450	-0.320	-0.340	-0.430
2020/01/31 11:58:40.8	300.440	-0.310	-0.350	-0.430
2020/01/31 11:58:40.9	300.440	-0.310	-0.350	-0.420
2020/01/31 11:58:41.0	300.430	-0.300	-0.350	-0.410
2020/01/31 11:58:41.1	300.420	-0.300	-0.350	-0.390
2020/01/31 11:58:41.2	300.420	-0.290	-0.350	-0.370
2020/01/31 11:58:41.3	300.410	-0.280	-0.340	-0.340
2020/01/31 11:58:41.4	300.410	-0.270	-0.340	-0.320
2020/01/31 11:58:41.5				
2020/01/31 11:58:41.6	300.400	-0.260	-0.340	-0.280
2020/01/31 11:58:41.7	300.390	-0.240	-0.320	-0.210
2020/01/31 11:58:41.8	300.380	-0.220	-0.310	-0.170
2020/01/31 11:58:41.9	300.380	-0.210	-0.300	-0.130
2020/01/31 11:58:42.0	300.370	-0.190	-0.300	-0.080
2020/01/31 11:58:42.1	300.370	-0.180	-0.290	-0.030
2020/01/31 11:58:42.2	300.360	-0.160	-0.280	0.020
2020/01/31 11:58:42.3	300.360	-0.150	-0.270	0.070
2020/01/31 11:58:42.4	300.360	-0.130	-0.260	0.120
2020/01/31 11:58:42.5	300.360	-0.110	-0.250	0.170
2020/01/31 11:58:42.6	300.350	-0.100	-0.240	0.230
2020/01/31 11:58:42.7	300.350	-0.080	-0.230	0.280
2020/01/31 11:58:42.8	300.350	-0.060	-0.220	0.330
2020/01/31 11:58:42.9	300.350	-0.050	-0.220	0.390
2020/01/31 11:58:43.0	300.350	-0.030	-0.210	0.440
2020/01/31 11:58:43.1	300.350	-0.010	-0.210	0.490
2020/01/31 11:58:43.2	300.350	0.000	-0.210	0.550
2020/01/31 11:58:43.3	300.350	0.020	-0.200	0.600
2020/01/31 11:58:43.4				
2020/01/31 11:58:43.5	300.350	0.030	-0.200	0.650
2020/01/31 11:58:43.6				
2020/01/31 11:58:43.7	300.360	0.060	-0.200	0.750
2020/01/31 11:58:43.8	300.370	0.090	-0.210	0.840
2020/01/31 11:58:43.9	300.380	0.100	-0.210	0.880
2020/01/31 11:58:44.0	300.380	0.110	-0.210	0.920
2020/01/31 11:58:44.1	300.390	0.120	-0.220	0.960
2020/01/31 11:58:44.2	300.400	0.130	-0.230	0.990
2020/01/31 11:58:44.3	300.410	0.140	-0.230	1.020
2020/01/31 11:58:44.4	300.420	0.140	-0.240	1.050
2020/01/31 11:58:44.5	300.430	0.150	-0.250	1.070
2020/01/31 11:58:44.6	300.440	0.150	-0.260	1.090
2020/01/31 11:58:44.7	300.450	0.150	-0.270	1.110
2020/01/31 11:58:44.8	300.460	0.150	-0.280	1.130
2020/01/31 11:58:44.9	300.480	0.150	-0.290	1.140
2020/01/31 11:58:45.0	300.490	0.150	-0.300	1.140
2020/01/31 11:58:45.1	300.510	0.140	-0.320	1.150
2020/01/31 11:58:45.2	300.520	0.140	-0.330	1.140
2020/01/31 11:58:45.3	300.540	0.130	-0.340	1.140
2020/01/31 11:58:45.4	300.550	0.120	-0.350	1.130
2020/01/31 11:58:45.5				
2020/01/31 11:58:45.6	300.570	0.110	-0.370	1.130
2020/01/31 11:58:45.7				
2020/01/31 11:58:45.8	300.600	0.090	-0.390	1.100
2020/01/31 11:58:45.9	300.620	0.070	-0.420	1.060
2020/01/31 11:58:46.0	300.640	0.050	-0.430	1.040
2020/01/31 11:58:46.1	300.650	0.040	-0.440	1.020
2020/01/31 11:58:46.2	300.660	0.020	-0.450	1.000
2020/01/31 11:58:46.3	300.670	0.000	-0.450	0.970
2020/01/31 11:58:46.4	300.680	-0.010	-0.460	0.950
2020/01/31 11:58:46.5	300.690	-0.030	-0.470	0.920
2020/01/31 11:58:46.6	300.700	-0.040	-0.480	0.890
2020/01/31 11:58:46.7	300.710	-0.060	-0.480	0.860
2020/01/31 11:58:46.8	300.720	-0.080	-0.490	0.820
2020/01/31 11:58:46.9	300.730	-0.090	-0.490	0.790
2020/01/31 11:58:47.0	300.740	-0.100	-0.500	0.760
2020/01/31 11:58:47.1	300.750	-0.120	-0.500	0.720
2020/01/31 11:58:47.2	300.760	-0.130	-0.510	0.690
2020/01/31 11:58:47.3	300.770	-0.140	-0.510	0.650
2020/01/31 11:58:47.4	300.780	-0.150	-0.510	0.620
2020/01/31 11:58:47.5	300.780	-0.160	-0.510	0.580
2020/01/31 11:58:47.6	300.790	-0.170	-0.520	0.540
2020/01/31 11:58:47.7	300.800	-0.170	-0.520	0.500
2020/01/31 11:58:47.8				
2020/01/31 11:58:47.9	300.820	-0.180	-0.520	0.460
2020/01/31 11:58:48.0				
2020/01/31 11:58:48.1	300.840	-0.180	-0.530	0.380
2020/01/31 11:58:48.2	300.870	-0.170	-0.540	0.300
2020/01/31 11:58:48.3	300.890	-0.170	-0.540	0.260
2020/01/31 11:58:48.4	300.900	-0.160	-0.540	0.220
2020/01/31 11:58:48.5	300.910	-0.150	-0.550	0.170
2020/01/31 11:58:48.6	300.920	-0.140	-0.550	0.130
2020/01/31 11:58:48.7	300.940	-0.130	-0.550	0.100
2020/01/31 11:58:48.8	300.960	-0.120	-0.550	0.060
2020/01/31 11:58:48.9				
2020/01/31 11:58:49.0	300.970	-0.110	-0.550	0.030
2020/01/31 11:58:49.1	301.000	-0.080	-0.550	-0.040
2020/01/31 11:58:49.2	301.020	-0.060	-0.550	-0.070
2020/01/31 11:58:49.3	301.040	-0.040	-0.550	-0.090
2020/01/31 11:58:49.4	301.050	-0.020	-0.550	-0.110
2020/01/31 11:58:49.5	301.060	-0.000	-0.540	-0.130
2020/01/31 11:58:49.6	301.070	0.010	-0.530	-0.150
2020/01/31 11:58:49.7	301.080	0.030	-0.520	-0.160
2020/01/31 11:58:49.8				
2020/01/31 11:58:49.9	301.090	0.050	-0.510	-0.170
2020/01/31 11:58:50.0	301.100	0.070	-0.500	-0.170
2020/01/31 11:58:50.1	301.120	0.100	-0.460	-0.170
2020/01/31 11:58:50.2	301.120	0.120	-0.440	-0.160
2020/01/31 11:58:50.3	301.120	0.130	-0.420	-0.150
2020/01/31 11:58:50.4	301.130	0.150	-0.390	-0.130
2020/01/31 11:58:50.5				
2020/01/31 11:58:50.6	301.120	0.160	-0.360	-0.110
2020/01/31 11:58:50.7	301.110	0.170	-0.330	-0.080
2020/01/31 11:58:50.8	301.110	0.180	-0.290	-0.050
2020/01/31 11:58:50.9	301.110	0.190	-0.260	-0.010
2020/01/31 11:58:51.0	301.100	0.200	-0.180	0.060
2020/01/31 11:58:51.1	301.090	0.210	-0.140	0.110
2020/01/31 11:58:51.2	301.080	0.210	-0.090	0.150
2020/01/31 11:58:51.3	301.070	0.210	-0.050	0.200
2020/01/31 11:58:51.4	301.060	0.220	0.000	0.260
2020/01/31 11:58:51.5	301.050	0.220	0.050	0.310
2020/01/31 11:58:51.6	301.040	0.220	0.100	0.360
2020/01/31 11:58:51.7	301.020	0.210	0.140	0.420
2020/01/31 11:58:51.8	301.010	0.210	0.190	0.480
2020/01/31 11:58:51.9	300.990	0.210	0.240	0.530
2020/01/31 11:58:52.0				
2020/01/31 11:58:52.1	300.980	0.200	0.290	0.590
2020/01/31 11:58:52.2	300.960	0.200	0.330	0.650
2020/01/31 11:58:52.3	300.940	0.190	0.380	0.710
2020/01/31 11:58:52.4	300.900	0.180	0.460	0.830
2020/01/31 11:58:52.5				
2020/01/31 11:58:52.6	300.890	0.170	0.500	0.880
2020/01/31 11:58:52.7	300.870	0.160	0.540	0.940
2020/01/31 11:58:52.8	300.830	0.150	0.590	1.040
2020/01/31 11:58:52.9	300.810	0.140	0.610	1.090
2020/01/31 11:58:53.0	300.790	0.130	0.630	1.130
2020/01/31 11:58:53.1	300.760	0.120	0.650	1.170
2020/01/31 11:58:53.2	300.740	0.110	0.650	1.210
2020/01/31 11:58:53.3	300.720	0.100	0.660	1.240
2020/01/31 11:58:53.4	300.700	0.100	0.660	1.270
2020/01/31 11:58:53.5	300.680	0.090	0.650	1.300
2020/01/31 11:58:53.6	300.660	0.080	0.640	1.320
2020/01/31 11:58:53.7				
2020/01/31 11:58:53.8	300.640	0.070	0.620	1.330
2020/01/31 11:58:53.9	300.620	0.070	0.600	1.340
2020/01/31 11:58:54.0	300.600	0.060	0.570	1.350
2020/01/31 11:58:54.1	300.580	0.050	0.540	1.350
2020/01/31 11:58:54.2	300.570	0.050	0.510	1.340
2020/01/31 11:58:54.3	300.550	0.040	0.470	1.330
2020/01/31 11:58:54.4	300.520	0.030	0.380	1.290
2020/01/31 11:58:54.5	300.520	0.020	0.330	1.260
2020/01/31 11:58:54.6	300.510	0.010	0.280	1.230
2020/01/31 11:58:54.7				
2020/01/31 11:58:54.8	300.500	0.010	0.230	1.200
2020/01/31 11:58:54.9	300.490	0.000	0.170	1.160
2020/01/31 11:58:55.0	300.480	-0.010	0.050	1.060
2020/01/31 11:58:55.1	300.470	-0.020	-0.010	1.010
2020/01/31 11:58:55.2	300.470	-0.020	-0.070	0.960
2020/01/31 11:58:55.3	300.470	-0.030	-0.130	0.900
2020/01/31 11:58:55.4				
2020/01/31 11:58:55.5	300.470	-0.040	-0.200	0.840
2020/01/31 11:58:55.6	300.490	-0.050	-0.260	0.770
2020/01/31 11:58:55.7	300.500	-0.050	-0.320	0.710
2020/01/31 11:58:55.8	300.500	-0.060	-0.380	0.640
2020/01/31 11:58:55.9	300.520	-0.080	-0.490	0.500
2020/01/31 11:58:56.0	300.530	-0.090	-0.550	0.420
2020/01/31 11:58:56.1	300.550	-0.100	-0.600	0.350
2020/01/31 11:58:56.2				
2020/01/31 11:58:56.3	300.560	-0.110	-0.650	0.270
2020/01/31 11:58:56.4	300.600	-0.130	-0.740	0.120
2020/01/31 11:58:56.5	300.610	-0.140	-0.770	0.050
2020/01/31 11:58:56.6	300.640	-0.150	-0.810	-0.030
2020/01/31 11:58:56.7	300.660	-0.160	-0.840	-0.100
2020/01/31 11:58:56.8	300.690	-0.170	-0.870	-0.170
2020/01/31 11:58:56.9	300.720	-0.180	-0.900	-0.240
2020/01/31 11:58:57.0	300.750	-0.190	-0.920	-0.310
2020/01/31 11:58:57.1				
2020/01/31 11:58:57.2	300.780	-0.200	-0.940	-0.370
2020/01/31 11:58:57.3	300.840	-0.220	-0.970	-0.490
2020/01/31 11:58:57.4	300.870	-0.230	-0.980	-0.550
2020/01/31 11:58:57.5	300.880	-0.240	-0.980	-0.600
2020/01/31 11:58:57.6				
2020/01/31 11:58:57.7	300.910	-0.250	-0.980	-0.650
2020/01/31 11:58:57.8	300.940	-0.260	-0.990	-0.690
2020/01/31 11:58:57.9	301.000	-0.270	-0.980	-0.760
2020/01/31 11:58:58.0	301.030	-0.280	-0.980	-0.790
2020/01/31 11:58:58.1	301.060	-0.290	-0.970	-0.820
2020/01/31 11:58:58.2				
2020/01/31 11:58:58.3	301.090	-0.290	-0.960	-0.840
2020/01/31 11:58:58.4	301.120	-0.290	-0.950	-0.850
2020/01/31 11:58:58.5	301.140	-0.300	-0.940	-0.860
2020/01/31 11:58:58.6	301.170	-0.300	-0.930	-0.870
2020/01/31 11:58:58.7	301.190	-0.300	-0.920	-0.870
2020/01/31 11:58:58.8	301.220	-0.290	-0.900	-0.860
2020/01/31 11:58:58.9	301.270	-0.290	-0.880	-0.830
2020/01/31 11:58:59.0	301.300	-0.280	-0.860	-0.820
2020/01/31 11:58:59.1	301.320	-0.280	-0.850	-0.790
2020/01/31 11:58:59.2	301.340	-0.270	-0.830	-0.760
2020/01/31 11:58:59.3	301.360	-0.260	-0.820	-0.730
2020/01/31 11:58:59.4	301.380	-0.250	-0.800	-0.690
2020/01/31 11:58:59.5	301.400	-0.240	-0.780	-0.650
2020/01/31 11:58:59.6				
2020/01/31 11:58:59.7	301.420	-0.220	-0.770	-0.610
2020/01/31 11:58:59.8	301.430	-0.210	-0.750	-0.560
2020/01/31 11:58:59.9	301.450	-0.190	-0.740	-0.510
2020/01/31 11:59:00.0	301.460	-0.180	-0.720	-0.450
2020/01/31 11:59:00.1	301.470	-0.160	-0.700	-0.400
2020/01/31 11:59:00.2	301.480	-0.150	-0.680	-0.340
2020/01/31 11:59:00.3	301.490	-0.130	-0.670	-0.270
2020/01/31 11:59:00.4				
2020/01/31 11:59:00.5	301.500	-0.090	-0.630	-0.140
2020/01/31 11:59:00.6	301.500	-0.050	-0.590	0.010
2020/01/31 11:59:00.7	301.500	-0.030	-0.560	0.080
2020/01/31 11:59:00.8	301.500	-0.010	-0.540	0.160
2020/01/31 11:59:00.9				
2020/01/31 11:59:01.0	301.490	0.010	-0.520	0.230
2020/01/31 11:59:01.1	301.480	0.050	-0.470	0.390
2020/01/31 11:59:01.2	301.480	0.060	-0.440	0.470
2020/01/31 11:59:01.3	301.470	0.080	-0.410	0.550
2020/01/31 11:59:01.4				
2020/01/31 11:59:01.5	301.460	0.100	-0.390	0.630
2020/01/31 11:59:01.6	301.450	0.120	-0.360	0.710
2020/01/31 11:59:01.7	301.440	0.130	-0.330	0.780
2020/01/31 11:59:01.8	301.430	0.150	-0.290	0.860
2020/01/31 11:59:01.9	301.400	0.180	-0.230	1.000
2020/01/31 11:59:02.0	301.390	0.190	-0.200	1.070
2020/01/31 11:59:02.1	301.380	0.210	-0.160	1.140
2020/01/31 11:59:02.2	301.360	0.220	-0.130	1.210
2020/01/31 11:59:02.3	301.350	0.230	-0.090	1.270
2020/01/31 11:59:02.4	301.330	0.240	-0.060	1.330
2020/01/31 11:59:02.5				
2020/01/31 11:59:02.6	301.320	0.250	-0.020	1.390
2020/01/31 11:59:02.7	301.310	0.260	0.020	1.450
2020/01/31 11:59:02.8	301.290	0.260	0.060	1.500
2020/01/31 11:59:02.9	301.270	0.270	0.090	1.550
2020/01/31 11:59:03.0	301.240	0.280	0.160	1.630
2020/01/31 11:59:03.1				
2020/01/31 11:59:03.2	301.220	0.280	0.200	1.670
2020/01/31 11:59:03.3	301.180	0.290	0.260	1.730
2020/01/31 11:59:03.4	301.170	0.290	0.290	1.750
2020/01/31 11:59:03.5	301.150	0.290	0.320	1.770
2020/01/31 11:59:03.6	301.130	0.290	0.350	1.780
2020/01/31 11:59:03.7	301.110	0.290	0.380	1.790
2020/01/31 11:59:03.8	301.090	0.280	0.410	1.790
2020/01/31 11:59:03.9				
2020/01/31 11:59:04.0	301.070	0.280	0.430	1.790
2020/01/31 11:59:04.1				
2020/01/31 11:59:04.2	301.030	0.270	0.480	1.770
2020/01/31 11:59:04.3	301.010	0.260	0.500	1.760
2020/01/31 11:59:04.4	300.970	0.250	0.530	1.710
2020/01/31 11:59:04.5				
2020/01/31 11:59:04.6	300.960	0.240	0.540	1.680
2020/01/31 11:59:04.7	300.940	0.230	0.550	1.650
2020/01/31 11:59:04.8	300.930	0.220	0.560	1.610
2020/01/31 11:59:04.9	300.910	0.210	0.560	1.570
2020/01/31 11:59:05.0	300.880	0.190	0.570	1.480
2020/01/31 11:59:05.1				
2020/01/31 11:59:05.2	300.860	0.180	0.570	1.430
2020/01/31 11:59:05.3	300.850	0.170	0.560	1.380
2020/01/31 11:59:05.4	300.830	0.160	0.560	1.320
2020/01/31 11:59:05.5	300.810	0.140	0.540	1.200
2020/01/31 11:59:05.6	300.790	0.130	0.530	1.140
2020/01/31 11:59:05.7	300.780	0.120	0.520	1.080
2020/01/31 11:59:05.8	300.760	0.100	0.500	1.020
2020/01/31 11:59:05.9	300.750	0.090	0.480	0.950
2020/01/31 11:59:06.0	300.730	0.080	0.460	0.890
2020/01/31 11:59:06.1	300.720	0.070	0.440	0.820
2020/01/31 11:59:06.2	300.700	0.060	0.420	0.750
2020/01/31 11:59:06.3	300.690	0.050	0.390	0.690
2020/01/31 11:59:06.4	300.680	0.040	0.370	0.620
2020/01/31 11:59:06.5	300.650	0.030	0.340	0.550
2020/01/31 11:59:06.6	300.640	0.020	0.300	0.480
2020/01/31 11:59:06.7				
2020/01/31 11:59:06.8	300.630	0.010	0.270	0.410
2020/01/31 11:59:06.9	300.620	0.000	0.230	0.340
2020/01/31 11:59:07.0	300.610	-0.000	0.190	0.270
2020/01/31 11:59:07.1	300.610	-0.010	0.150	0.210
2020/01/31 11:59:07.2	300.610	-0.020	0.100	0.140
2020/01/31 11:59:07.3	300.600	-0.030	0.050	0.070
2020/01/31 11:59:07.4				
2020/01/31 11:59:07.5	300.610	-0.040	-0.050	-0.060
2020/01/31 11:59:07.6	300.600	-0.040	-0.110	-0.130
2020/01/31 11:59:07.7	300.610	-0.040	-0.170	-0.200
2020/01/31 11:59:07.8	300.630	-0.050	-0.290	-0.330
2020/01/31 11:59:07.9	300.640	-0.050	-0.360	-0.390
2020/01/31 11:59:08.0				
2020/01/31 11:59:08.1	300.650	-0.050	-0.420	-0.450
2020/01/31 11:59:08.2	300.690	-0.050	-0.560	-0.560
2020/01/31 11:59:08.3	300.710	-0.050	-0.630	-0.620
2020/01/31 11:59:08.4	300.730	-0.050	-0.700	-0.670
2020/01/31 11:59:08.5	300.750	-0.050	-0.760	-0.720
2020/01/31 11:59:08.6	300.770	-0.050	-0.830	-0.770
2020/01/31 11:59:08.7				
2020/01/31 11:59:08.8	300.800	-0.050	-0.900	-0.810
2020/01/31 11:59:08.9	300.830	-0.050	-0.960	-0.850
2020/01/31 11:59:09.0	300.860	-0.050	-1.020	-0.880
2020/01/31 11:59:09.1	300.890	-0.050	-1.080	-0.910
2020/01/31 11:59:09.2	300.920	-0.050	-1.140	-0.930
2020/01/31 11:59:09.3	300.950	-0.050	-1.190	-0.950
2020/01/31 11:59:09.4	301.020	-0.050	-1.280	-0.980
2020/01/31 11:59:09.5	301.050	-0.060	-1.320	-0.980
2020/01/31 11:59:09.6	301.090	-0.060	-1.360	-0.980
2020/01/31 11:59:09.7				
2020/01/31 11:59:09.8	301.120	-0.060	-1.390	-0.970
2020/01/31 11:59:09.9	301.150	-0.070	-1.410	-0.960
2020/01/31 11:59:10.0	301.190	-0.070	-1.430	-0.940
2020/01/31 11:59:10.1	301.220	-0.070	-1.440	-0.920
2020/01/31 11:59:10.2	301.260	-0.080	-1.450	-0.890
2020/01/31 11:59:10.3	301.290	-0.090	-1.460	-0.860
2020/01/31 11:59:10.4	301.320	-0.090	-1.450	-0.830
2020/01/31 11:59:10.5	301.350	-0.100	-1.450	-0.790
2020/01/31 11:59:10.6	301.410	-0.110	-1.420	-0.690
2020/01/31 11:59:10.7	301.440	-0.120	-1.390	-0.640
2020/01/31 11:59:10.8	301.460	-0.130	-1.370	-0.580
2020/01/31 11:59:10.9				
2020/01/31 11:59:11.0	301.490	-0.130	-1.340	-0.520
2020/01/31 11:59:11.1	301.530	-0.150	-1.260	-0.400
2020/01/31 11:59:11.2	301.540	-0.160	-1.220	-0.330
2020/01/31 11:59:11.3	301.560	-0.160	-1.180	-0.260
2020/01/31 11:59:11.4	301.580	-0.170	-1.130	-0.190
2020/01/31 11:59:11.5				
2020/01/31 11:59:11.6	301.600	-0.180	-1.070	-0.120
2020/01/31 11:59:11.7	301.610	-0.180	-1.020	-0.050
2020/01/31 11:59:11.8	301.620	-0.190	-0.960	0.030
2020/01/31 11:59:11.9	301.620	-0.190	-0.900	0.100
2020/01/31 11:59:12.0	301.630	-0.200	-0.840	0.180
2020/01/31 11:59:12.1	301.630	-0.200	-0.780	0.250
2020/01/31 11:59:12.2	301.630	-0.210	-0.720	0.330
2020/01/31 11:59:12.3	301.630	-0.210	-0.660	0.400
2020/01/31 11:59:12.4				
2020/01/31 11:59:12.5	301.620	-0.220	-0.530	0.550
2020/01/31 11:59:12.6	301.620	-0.220	-0.460	0.620
2020/01/31 11:59:12.7	301.610	-0.220	-0.400	0.690
2020/01/31 11:59:12.8	301.600	-0.220	-0.340	0.760
2020/01/31 11:59:12.9	301.590	-0.220	-0.270	0.820
2020/01/31 11:59:13.0	301.580	-0.220	-0.210	0.890
2020/01/31 11:59:13.1	301.560	-0.220	-0.150	0.950
2020/01/31 11:59:13.2	301.550	-0.220	-0.090	1.010
2020/01/31 11:59:13.3	301.530	-0.220	-0.030	1.070
2020/01/31 11:59:13.4				
2020/01/31 11:59:13.5	301.490	-0.220	0.090	1.170
2020/01/31 11:59:13.6	301.460	-0.220	0.150	1.220
2020/01/31 11:59:13.7	301.440	-0.220	0.200	1.270
2020/01/31 11:59:13.8	301.420	-0.220	0.260	1.320
2020/01/31 11:59:13.9	301.390	-0.210	0.310	1.360
2020/01/31 11:59:14.0	301.370	-0.210	0.360	1.390
2020/01/31 11:59:14.1	301.340	-0.210	0.410	1.430
2020/01/31 11:59:14.2	301.320	-0.200	0.450	1.460
2020/01/31 11:59:14.3	301.290	-0.200	0.500	1.490
2020/01/31 11:59:14.4	301.240	-0.190	0.580	1.540
2020/01/31 11:59:14.5				
2020/01/31 11:59:14.6	301.210	-0.180	0.620	1.560
2020/01/31 11:59:14.7	301.180	-0.170	0.650	1.580
2020/01/31 11:59:14.8	301.160	-0.170	0.680	1.590
2020/01/31 11:59:14.9	301.130	-0.160	0.710	1.600
2020/01/31 11:59:15.0	301.110	-0.150	0.740	1.610
2020/01/31 11:59:15.1	301.090	-0.140	0.760	1.620
2020/01/31 11:59:15.2	301.060	-0.130	0.780	1.620
2020/01/31 11:59:15.3	301.040	-0.120	0.800	1.620
2020/01/31 11:59:15.4				
2020/01/31 11:59:15.5	301.000	-0.100	0.820	1.610
2020/01/31 11:59:15.6	300.980	-0.080	0.830	1.590
2020/01/31 11:59:15.7	300.970	-0.070	0.840	1.580
2020/01/31 11:59:15.8	300.950	-0.060	0.840	1.560
2020/01/31 11:59:15.9	300.930	-0.040	0.840	1.540
2020/01/31 11:59:16.0	300.920	-0.030	0.830	1.520
2020/01/31 11:59:16.1	300.900	-0.010	0.820	1.490
2020/01/31 11:59:16.2	300.890	0.000	0.810	1.450
2020/01/31 11:59:16.3	300.880	0.020	0.790	1.420
2020/01/31 11:59:16.4	300.870	0.030	0.780	1.370
2020/01/31 11:59:16.5	300.860	0.050	0.750	1.330
2020/01/31 11:59:16.6	300.860	0.070	0.730	1.280
2020/01/31 11:59:16.7	300.850	0.080	0.700	1.230
2020/01/31 11:59:16.8	300.850	0.100	0.670	1.170
2020/01/31 11:59:16.9	300.850	0.120	0.630	1.110
2020/01/31 11:59:17.0	300.850	0.130	0.590	1.050
2020/01/31 11:59:17.1	300.850	0.150	0.550	0.980
2020/01/31 11:59:17.2	300.850	0.160	0.510	0.920
2020/01/31 11:59:17.3	300.860	0.180	0.460	0.850
2020/01/31 11:59:17.4				
2020/01/31 11:59:17.5	300.870	0.210	0.360	0.710
2020/01/31 11:59:17.6	300.880	0.220	0.310	0.630
2020/01/31 11:59:17.7	300.880	0.240	0.250	0.560
2020/01/31 11:59:17.8	300.890	0.250	0.200	0.490
2020/01/31 11:59:17.9	300.900	0.260	0.140	0.420
2020/01/31 11:59:18.0	300.910	0.270	0.090	0.350
2020/01/31 11:59:18.1	300.920	0.280	0.030	0.280
2020/01/31 11:59:18.2	300.920	0.290	-0.030	0.220
2020/01/31 11:59:18.3	300.930	0.300	-0.090	0.150
2020/01/31 11:59:18.4				
2020/01/31 11:59:18.5	300.950	0.320	-0.200	0.030
2020/01/31 11:59:18.6	300.950	0.330	-0.260	-0.020
2020/01/31 11:59:18.7	300.950	0.330	-0.310	-0.080
2020/01/31 11:59:18.8	300.960	0.340	-0.360	-0.120
2020/01/31 11:59:18.9	300.970	0.340	-0.420	-0.170
2020/01/31 11:59:19.0	300.970	0.340	-0.470	-0.210
2020/01/31 11:59:19.1	300.980	0.350	-0.520	-0.250
2020/01/31 11:59:19.2	300.980	0.350	-0.570	-0.290
2020/01/31 11:59:19.3	300.990	0.350	-0.610	-0.320
2020/01/31 11:59:19.4	300.990	0.340	-0.660	-0.340
2020/01/31 11:59:19.5	301.000	0.340	-0.700	-0.370
2020/01/31 11:59:19.6	301.000	0.340	-0.740	-0.390
2020/01/31 11:59:19.7	301.000	0.330	-0.780	-0.400
2020/01/31 11:59:19.8	301.010	0.330	-0.820	-0.420
2020/01/31 11:59:19.9	301.010	0.320	-0.860	-0.430
2020/01/31 11:59:20.0	301.020	0.310	-0.890	-0.430
2020/01/31 11:59:20.1	301.030	0.300	-0.930	-0.440
2020/01/31 11:59:20.2	301.040	0.290	-0.960	-0.440
2020/01/31 11:59:20.3	301.050	0.280	-0.990	-0.440
2020/01/31 11:59:20.4				
2020/01/31 11:59:20.5	301.070	0.260	-1.050	-0.430
2020/01/31 11:59:20.6	301.070	0.240	-1.070	-0.420
2020/01/31 11:59:20.7	301.090	0.230	-1.100	-0.410
2020/01/31 11:59:20.8	301.100	0.220	-1.120	-0.400
2020/01/31 11:59:20.9	301.110	0.200	-1.140	-0.380
2020/01/31 11:59:21.0	301.130	0.190	-1.160	-0.370
2020/01/31 11:59:21.1	301.140	0.170	-1.180	-0.350
2020/01/31 11:59:21.2	301.150	0.160	-1.200	-0.330
2020/01/31 11:59:21.3	301.170	0.140	-1.210	-0.310
2020/01/31 11:59:21.4	301.190	0.130	-1.230	-0.290
2020/01/31 11:59:21.5	301.200	0.110	-1.230	-0.270
2020/01/31 11:59:21.6	301.220	0.100	-1.240	-0.250
2020/01/31 11:59:21.7	301.240	0.080	-1.240	-0.220
2020/01/31 11:59:21.8	301.250	0.070	-1.250	-0.190
2020/01/31 11:59:21.9	301.270	0.050	-1.240	-0.170
2020/01/31 11:59:22.0	301.280	0.040	-1.240	-0.140
2020/01/31 11:59:22.1	301.300	0.030	-1.230	-0.110
2020/01/31 11:59:22.2	301.310	0.010	-1.220	-0.080
2020/01/31 11:59:22.3	301.330	0.000	-1.210	-0.050
2020/01/31 11:59:22.4	301.340	-0.010	-1.190	-0.020
2020/01/31 11:59:22.5	301.360	-0.020	-1.170	0.020
2020/01/31 11:59:22.6				
2020/01/31 11:59:22.7	301.380	-0.040	-1.110	0.080
2020/01/31 11:59:22.8	301.390	-0.050	-1.080	0.120
2020/01/31 11:59:22.9	301.400	-0.060	-1.050	0.150
2020/01/31 11:59:23.0	301.410	-0.070	-1.010	0.180
2020/01/31 11:59:23.1	301.410	-0.080	-0.970	0.220
2020/01/31 11:59:23.2	301.420	-0.090	-0.930	0.250
2020/01/31 11:59:23.3	301.430	-0.100	-0.880	0.290
2020/01/31 11:59:23.4	301.430	-0.110	-0.830	0.320
2020/01/31 11:59:23.5	301.440	-0.110	-0.780	0.350
2020/01/31 11:59:23.6	301.440	-0.120	-0.730	0.390
2020/01/31 11:59:23.7	301.450	-0.130	-0.680	0.420
2020/01/31 11:59:23.8	301.450	-0.130	-0.620	0.450
2020/01/31 11:59:23.9	301.450	-0.140	-0.570	0.490
2020/01/31 11:59:24.0	301.450	-0.140	-0.510	0.520
2020/01/31 11:59:24.1	301.450	-0.150	-0.450	0.560
2020/01/31 11:59:24.2	301.450	-0.150	-0.390	0.590
2020/01/31 11:59:24.3	301.440	-0.160	-0.330	0.630
2020/01/31 11:59:24.4	301.440	-0.160	-0.270	0.670
2020/01/31 11:59:24.5	301.430	-0.170	-0.210	0.700
2020/01/31 11:59:24.6	301.420	-0.170	-0.150	0.740
2020/01/31 11:59:24.7	301.410	-0.180	-0.080	0.780
2020/01/31 11:59:24.8	301.380	-0.190	0.040	0.860
2020/01/31 11:59:24.9				
2020/01/31 11:59:25.0	301.360	-0.190	0.100	0.890
2020/01/31 11:59:25.1	301.350	-0.190	0.160	0.930
2020/01/31 11:59:25.2	301.330	-0.200	0.220	0.970
2020/01/31 11:59:25.3	301.310	-0.200	0.280	1.010
2020/01/31 11:59:25.4				
2020/01/31 11:59:25.5	301.260	-0.210	0.390	1.080
2020/01/31 11:59:25.6				
2020/01/31 11:59:25.7	301.220	-0.220	0.490	1.140
2020/01/31 11:59:25.8	301.200	-0.220	0.540	1.170
2020/01/31 11:59:25.9	301.170	-0.220	0.580	1.200
2020/01/31 11:59:26.0	301.140	-0.220	0.620	1.230
2020/01/31 11:59:26.1	301.110	-0.220	0.660	1.250
2020/01/31 11:59:26.2	301.080	-0.220	0.690	1.270
2020/01/31 11:59:26.3	301.040	-0.220	0.720	1.290
2020/01/31 11:59:26.4				
2020/01/31 11:59:26.5	300.980	-0.220	0.760	1.320
2020/01/31 11:59:26.6	300.950	-0.220	0.770	1.330
2020/01/31 11:59:26.7	300.910	-0.220	0.780	1.340
2020/01/31 11:59:26.8	300.880	-0.210	0.780	1.350
2020/01/31 11:59:26.9	300.840	-0.210	0.780	1.350
2020/01/31 11:59:27.0	300.810	-0.200	0.780	1.350
2020/01/31 11:59:27.1	300.770	-0.200	0.770	1.340
2020/01/31 11:59:27.2	300.740	-0.190	0.750	1.330
2020/01/31 11:59:27.3	300.710	-0.190	0.730	1.320
2020/01/31 11:59:27.4	300.670	-0.180	0.710	1.310
2020/01/31 11:59:27.5	300.640	-0.170	0.680	1.290
2020/01/31 11:59:27.6	300.610	-0.160	0.640	1.270
2020/01/31 11:59:27.7	300.580	-0.150	0.610	1.240
2020/01/31 11:59:27.8	300.550	-0.140	0.570	1.210
2020/01/31 11:59:27.9	300.520	-0.130	0.520	1.180
2020/01/31 11:59:28.0	300.500	-0.120	0.480	1.150
2020/01/31 11:59:28.1	300.470	-0.110	0.430	1.120
2020/01/31 11:59:28.2	300.450	-0.090	0.380	1.080
2020/01/31 11:59:28.3	300.420	-0.080	0.320	1.040
2020/01/31 11:59:28.4	300.400	-0.070	0.270	0.990
2020/01/31 11:59:28.5	300.380	-0.050	0.210	0.950
2020/01/31 11:59:28.6	300.380	-0.040	0.150	0.900
2020/01/31 11:59:28.7	300.360	-0.030	0.090	0.850
2020/01/31 11:59:28.8	300.350	-0.010	0.030	0.800
2020/01/31 11:59:28.9	300.340	-0.000	-0.020	0.750
2020/01/31 11:59:29.0	300.330	0.010	-0.080	0.700
2020/01/31 11:59:29.1	300.320	0.030	-0.140	0.650
2020/01/31 11:59:29.2	300.310	0.040	-0.190	0.600
2020/01/31 11:59:29.3	300.310	0.050	-0.240	0.550
2020/01/31 11:59:29.4	300.310	0.070	-0.290	0.500
2020/01/31 11:59:29.5	300.310	0.080	-0.340	0.450
2020/01/31 11:59:29.6	300.300	0.090	-0.390	0.400
2020/01/31 11:59:29.7	300.310	0.100	-0.430	0.350
2020/01/31 11:59:29.8	300.310	0.110	-0.470	0.310
2020/01/31 11:59:29.9	300.320	0.120	-0.500	0.260
2020/01/31 11:59:30.0	300.320	0.130	-0.530	0.220
2020/01/31 11:59:30.1	300.330	0.130	-0.560	0.180
2020/01/31 11:59:30.2	300.340	0.140	-0.580	0.140
2020/01/31 11:59:30.3	300.350	0.140	-0.610	0.110
2020/01/31 11:59:30.4	300.370	0.150	-0.620	0.080
2020/01/31 11:59:30.5	300.380	0.150	-0.640	0.050
2020/01/31 11:59:30.6	300.410	0.150	-0.650	0.020
2020/01/31 11:59:30.7	300.420	0.160	-0.650	-0.000
2020/01/31 11:59:30.8	300.440	0.160	-0.660	-0.020
2020/01/31 11:59:30.9	300.460	0.160	-0.660	-0.040
2020/01/31 11:59:31.0	300.480	0.150	-0.660	-0.060
2020/01/31 11:59:31.1	300.500	0.150	-0.660	-0.070
2020/01/31 11:59:31.2	300.520	0.150	-0.650	-0.080
2020/01/31 11:59:31.3	300.550	0.140	-0.650	-0.090
2020/01/31 11:59:31.4	300.570	0.140	-0.640	-0.090
2020/01/31 11:59:31.5	300.600	0.130	-0.630	-0.090
2020/01/31 11:59:31.6	300.610	0.130	-0.620	-0.090
2020/01/31 11:59:31.7	300.640	0.120	-0.610	-0.090
2020/01/31 11:59:31.8	300.670	0.110	-0.600	-0.090
2020/01/31 11:59:31.9	300.700	0.110	-0.590	-0.080
2020/01/31 11:59:32.0	300.730	0.100	-0.580	-0.080
2020/01/31 11:59:32.1	300.760	0.090	-0.570	-0.070
2020/01/31 11:59:32.2	300.790	0.080	-0.560	-0.060
2020/01/31 11:59:32.3	300.820	0.070	-0.550	-0.060
2020/01/31 11:59:32.4	300.850	0.060	-0.530	-0.050
2020/01/31 11:59:32.5	300.880	0.060	-0.520	-0.040
2020/01/31 11:59:32.6	300.910	0.050	-0.510	-0.030
2020/01/31 11:59:32.7	300.940	0.040	-0.510	-0.030
2020/01/31 11:59:32.8	300.970	0.030	-0.500	-0.020
2020/01/31 11:59:32.9	301.000	0.030	-0.490	-0.010
2020/01/31 11:59:33.0	301.030	0.020	-0.490	0.000
2020/01/31 11:59:33.1	301.070	0.010	-0.480	0.010
2020/01/31 11:59:33.2	301.090	0.010	-0.480	0.020
2020/01/31 11:59:33.3	301.120	0.000	-0.470	0.030
2020/01/31 11:59:33.4	301.150	-0.000	-0.470	0.050
2020/01/31 11:59:33.5	301.170	-0.000	-0.470	0.060
2020/01/31 11:59:33.6	301.190	-0.010	-0.470	0.080
2020/01/31 11:59:33.7	301.210	-0.010	-0.460	0.090
2020/01/31 11:59:33.8	301.230	-0.010	-0.460	0.110
2020/01/31 11:59:33.9	301.250	-0.010	-0.460	0.130
2020/01/31 11:59:34.0	301.260	-0.010	-0.460	0.150
2020/01/31 11:59:34.1	301.270	-0.010	-0.460	0.170
2020/01/31 11:59:34.2	301.280	-0.010	-0.450	0.200
2020/01/31 11:59:34.3	301.290	-0.010	-0.450	0.230
2020/01/31 11:59:34.4	301.300	-0.000	-0.450	0.250
2020/01/31 11:59:34.5	301.300	-0.000	-0.450	0.280
2020/01/31 11:59:34.6	301.280	0.000	-0.440	0.310
2020/01/31 11:59:34.7	301.280	0.010	-0.430	0.350
2020/01/31 11:59:34.8	301.280	0.010	-0.430	0.380
2020/01/31 11:59:34.9	301.270	0.020	-0.420	0.420
2020/01/31 11:59:35.0	301.260	0.020	-0.410	0.460
2020/01/31 11:59:35.1	301.240	0.030	-0.400	0.500
2020/01/31 11:59:35.2	301.230	0.030	-0.390	0.540
2020/01/31 11:59:35.3	301.210	0.040	-0.380	0.580
2020/01/31 11:59:35.4	301.190	0.040	-0.370	0.620
2020/01/31 11:59:35.5	301.170	0.050	-0.360	0.670
2020/01/31 11:59:35.6	301.150	0.050	-0.340	0.710
2020/01/31 11:59:35.7	301.120	0.060	-0.320	0.750
2020/01/31 11:59:35.8	301.090	0.060	-0.310	0.790
2020/01/31 11:59:35.9	301.060	0.070	-0.290	0.830
2020/01/31 11:59:36.0	301.030	0.070	-0.280	0.880
2020/01/31 11:59:36.1	301.000	0.070	-0.260	0.920
2020/01/31 11:59:36.2	300.970	0.080	-0.240	0.950
2020/01/31 11:59:36.3	300.940	0.080	-0.230	0.990
2020/01/31 11:59:36.4	300.910	0.080	-0.210	1.030
2020/01/31 11:59:36.5	300.880	0.080	-0.190	1.060
2020/01/31 11:59:36.6	300.860	0.080	-0.180	1.100
2020/01/31 11:59:36.7	300.820	0.080	-0.160	1.130
2020/01/31 11:59:36.8	300.790	0.080	-0.150	1.160
2020/01/31 11:59:36.9	300.760	0.080	-0.140	1.190
2020/01/31 11:59:37.0	300.730	0.080	-0.120	1.210
2020/01/31 11:59:37.1	300.700	0.080	-0.110	1.230
2020/01/31 11:59:37.2	300.670	0.080	-0.100	1.250
2020/01/31 11:59:37.3	300.640	0.080	-0.090	1.270
2020/01/31 11:59:37.4	300.610	0.080	-0.080	1.280
2020/01/31 11:59:37.5	300.580	0.080	-0.070	1.300
2020/01/31 11:59:37.6	300.560	0.080	-0.060	1.300
2020/01/31 11:59:37.7	300.530	0.080	-0.050	1.310
2020/01/31 11:59:37.8	300.510	0.080	-0.050	1.310
2020/01/31 11:59:37.9	300.490	0.080	-0.040	1.310
2020/01/31 11:59:38.0	300.470	0.080	-0.040	1.300
2020/01/31 11:59:38.1	300.450	0.080	-0.040	1.300
2020/01/31 11:59:38.2	300.430	0.080	-0.030	1.290
2020/01/31 11:59:38.3	300.410	0.080	-0.030	1.270
2020/01/31 11:59:38.4	300.400	0.080	-0.030	1.260
2020/01/31 11:59:38.5	300.380	0.090	-0.040	1.240
2020/01/31 11:59:38.6	300.380	0.090	-0.040	1.220
2020/01/31 11:59:38.7	300.360	0.090	-0.040	1.200
2020/01/31 11:59:38.8	300.350	0.090	-0.050	1.180
2020/01/31 11:59:38.9	300.340	0.100	-0.050	1.150
2020/01/31 11:59:39.0	300.330	0.100	-0.060	1.130
2020/01/31 11:59:39.1	300.320	0.100	-0.060	1.100
2020/01/31 11:59:39.2	300.320	0.110	-0.070	1.070
2020/01/31 11:59:39.3	300.310	0.110	-0.080	1.040
2020/01/31 11:59:39.4	300.310	0.120	-0.090	1.000
2020/01/31 11:59:39.5	300.310	0.120	-0.100	0.970
2020/01/31 11:59:39.6	300.300	0.130	-0.110	0.930
2020/01/31 11:59:39.7	300.300	0.130	-0.120	0.890
2020/01/31 11:59:39.8	300.310	0.140	-0.130	0.850
2020/01/31 11:59:39.9	300.310	0.140	-0.140	0.810
2020/01/31 11:59:40.0	300.310	0.150	-0.160	0.770
2020/01/31 11:59:40.1	300.320	0.150	-0.170	0.730
2020/01/31 11:59:40.2	300.330	0.160	-0.180	0.690
2020/01/31 11:59:40.3	300.340	0.160	-0.200	0.640
2020/01/31 11:59:40.4	300.350	0.160	-0.210	0.600
2020/01/31 11:59:40.5	300.360	0.160	-0.220	0.550
2020/01/31 11:59:40.6	300.370	0.170	-0.240	0.500
2020/01/31 11:59:40.7	300.390	0.170	-0.250	0.460
2020/01/31 11:59:40.8	300.410	0.170	-0.260	0.410
2020/01/31 11:59:40.9	300.430	0.170	-0.270	0.370
2020/01/31 11:59:41.0	300.450	0.170	-0.280	0.320
2020/01/31 11:59:41.1	300.470	0.170	-0.290	0.280
2020/01/31 11:59:41.2	300.500	0.160	-0.300	0.230
2020/01/31 11:59:41.3	300.530	0.160	-0.310	0.190
2020/01/31 11:59:41.4	300.550	0.160	-0.320	0.140
2020/01/31 11:59:41.5	300.580	0.150	-0.320	0.100
2020/01/31 11:59:41.6	300.610	0.140	-0.320	0.060
2020/01/31 11:59:41.7	300.640	0.140	-0.330	0.020
2020/01/31 11:59:41.8	300.670	0.130	-0.330	-0.020
2020/01/31 11:59:41.9	300.700	0.120	-0.330	-0.050
2020/01/31 11:59:42.0	300.730	0.110	-0.320	-0.080
2020/01/31 11:59:42.1	300.760	0.100	-0.320	-0.120
2020/01/31 11:59:42.2	300.790	0.090	-0.320	-0.140
2020/01/31 11:59:42.3	300.820	0.070	-0.310	-0.170
2020/01/31 11:59:42.4	300.850	0.060	-0.300	-0.200
2020/01/31 11:59:42.5	300.880	0.040	-0.300	-0.220
2020/01/31 11:59:42.6	300.910	0.030	-0.290	-0.240
2020/01/31 11:59:42.7	300.930	0.010	-0.280	-0.260
2020/01/31 11:59:42.8	300.960	-0.010	-0.270	-0.270
2020/01/31 11:59:42.9	300.990	-0.020	-0.260	-0.290
2020/01/31 11:59:43.0	301.020	-0.040	-0.250	-0.300
2020/01/31 11:59:43.1	301.040	-0.060	-0.240	-0.310
2020/01/31 11:59:43.2	301.070	-0.080	-0.230	-0.320
2020/01/31 11:59:43.3	301.100	-0.100	-0.220	-0.330
2020/01/31 11:59:43.4	301.130	-0.120	-0.220	-0.340
2020/01/31 11:59:43.5	301.150	-0.140	-0.210	-0.340
2020/01/31 11:59:43.6	301.170	-0.160	-0.200	-0.340
2020/01/31 11:59:43.7	301.190	-0.180	-0.200	-0.350
2020/01/31 11:59:43.8	301.220	-0.200	-0.190	-0.350
2020/01/31 11:59:43.9	301.240	-0.220	-0.190	-0.340
2020/01/31 11:59:44.0	301.260	-0.230	-0.190	-0.340
2020/01/31 11:59:44.1	301.280	-0.250	-0.190	-0.330
2020/01/31 11:59:44.2	301.310	-0.270	-0.190	-0.330
2020/01/31 11:59:44.3	301.320	-0.280	-0.190	-0.320
2020/01/31 11:59:44.4	301.340	-0.290	-0.200	-0.310
2020/01/31 11:59:44.5	301.360	-0.310	-0.200	-0.300
2020/01/31 11:59:44.6	301.370	-0.320	-0.210	-0.280
2020/01/31 11:59:44.7	301.380	-0.330	-0.210	-0.270
2020/01/31 11:59:44.8	301.390	-0.340	-0.220	-0.250
2020/01/31 11:59:44.9	301.400	-0.350	-0.220	-0.230
2020/01/31 11:59:45.0	301.410	-0.350	-0.230	-0.210
2020/01/31 11:59:45.1	301.410	-0.360	-0.240	-0.180
2020/01/31 11:59:45.2	301.420	-0.360	-0.240	-0.150
2020/01/31 11:59:45.3	301.420	-0.360	-0.250	-0.130
2020/01/31 11:59:45.4	301.420	-0.360	-0.250	-0.100
2020/01/31 11:59:45.5	301.420	-0.360	-0.250	-0.060
2020/01/31 11:59:45.6	301.410	-0.360	-0.250	-0.030
2020/01/31 11:59:45.7	301.400	-0.360	-0.260	0.010
2020/01/31 11:59:45.8	301.400	-0.350	-0.260	0.050
2020/01/31 11:59:45.9	301.390	-0.350	-0.260	0.090
2020/01/31 11:59:46.0	301.380	-0.340	-0.260	0.130
2020/01/31 11:59:46.1	301.370	-0.330	-0.260	0.170
2020/01/31 11:59:46.2	301.350	-0.330	-0.260	0.210
2020/01/31 11:59:46.3	301.340	-0.320	-0.260	0.260
2020/01/31 11:59:46.4	301.330	-0.310	-0.250	0.300
2020/01/31 11:59:46.5	301.310	-0.300	-0.250	0.340
2020/01/31 11:59:46.6	301.290	-0.280	-0.250	0.390
2020/01/31 11:59:46.7	301.270	-0.270	-0.240	0.440
2020/01/31 11:59:46.8	301.250	-0.260	-0.240	0.480
2020/01/31 11:59:46.9	301.230	-0.250	-0.230	0.530
2020/01/31 11:59:47.0	301.210	-0.240	-0.230	0.570
2020/01/31 11:59:47.1	301.190	-0.220	-0.230	0.620
2020/01/31 11:59:47.2	301.170	-0.210	-0.220	0.660
2020/01/31 11:59:47.3	301.150	-0.200	-0.220	0.710
2020/01/31 11:59:47.4	301.130	-0.190	-0.220	0.750
2020/01/31 11:59:47.5	301.100	-0.170	-0.220	0.790
2020/01/31 11:59:47.6	301.080	-0.160	-0.220	0.830
2020/01/31 11:59:47.7	301.060	-0.150	-0.220	0.860
2020/01/31 11:59:47.8	301.040	-0.140	-0.220	0.900
2020/01/31 11:59:47.9	301.010	-0.120	-0.230	0.930
2020/01/31 11:59:48.0	300.990	-0.110	-0.230	0.960
2020/01/31 11:59:48.1	300.970	-0.100	-0.240	0.990
2020/01/31 11:59:48.2	300.950	-0.090	-0.240	1.010
2020/01/31 11:59:48.3	300.920	-0.080	-0.250	1.040
2020/01/31 11:59:48.4	300.900	-0.070	-0.260	1.060
2020/01/31 11:59:48.5	300.880	-0.060	-0.270	1.080
2020/01/31 11:59:48.6	300.860	-0.050	-0.270	1.090
2020/01/31 11:59:48.7	300.840	-0.040	-0.280	1.110
2020/01/31 11:59:48.8	300.820	-0.030	-0.300	1.120
2020/01/31 11:59:48.9	300.790	-0.020	-0.310	1.130
2020/01/31 11:59:49.0	300.770	-0.010	-0.320	1.130
2020/01/31 11:59:49.1	300.750	0.000	-0.330	1.140
2020/01/31 11:59:49.2	300.730	0.010	-0.340	1.140
2020/01/31 11:59:49.3	300.710	0.020	-0.350	1.140
2020/01/31 11:59:49.4	300.690	0.030	-0.360	1.140
2020/01/31 11:59:49.5	300.670	0.040	-0.370	1.140
2020/01/31 11:59:49.6	300.650	0.050	-0.380	1.130
2020/01/31 11:59:49.7	300.630	0.050	-0.380	1.130
2020/01/31 11:59:49.8	300.610	0.060	-0.390	1.120
2020/01/31 11:59:49.9	300.590	0.070	-0.390	1.110
2020/01/31 11:59:50.0	300.570	0.080	-0.390	1.100
2020/01/31 11:59:50.1	300.560	0.080	-0.390	1.090
2020/01/31 11:59:50.2	300.540	0.090	-0.390	1.080
2020/01/31 11:59:50.3	300.520	0.100	-0.390	1.070
2020/01/31 11:59:50.4	300.510	0.100	-0.380	1.050
2020/01/31 11:59:50.5	300.490	0.110	-0.380	1.040
2020/01/31 11:59:50.6	300.480	0.110	-0.370	1.020
2020/01/31 11:59:50.7	300.460	0.120	-0.360	1.010
2020/01/31 11:59:50.8	300.450	0.120	-0.350	0.990
2020/01/31 11:59:50.9	300.440	0.130	-0.340	0.970
2020/01/31 11:59:51.0	300.430	0.130	-0.330	0.950
2020/01/31 11:59:51.1	300.420	0.140	-0.310	0.930
2020/01/31 11:59:51.2	300.420	0.140	-0.300	0.910
2020/01/31 11:59:51.3	300.410	0.150	-0.280	0.890
2020/01/31 11:59:51.4	300.410	0.150	-0.270	0.860
2020/01/31 11:59:51.5	300.410	0.160	-0.250	0.840
2020/01/31 11:59:51.6	300.420	0.160	-0.240	0.810
2020/01/31 11:59:51.7	300.420	0.170	-0.220	0.780
2020/01/31 11:59:51.8	300.430	0.170	-0.210	0.750
2020/01/31 11:59:51.9	300.440	0.180	-0.200	0.720
2020/01/31 11:59:52.0	300.450	0.190	-0.180	0.680
2020/01/31 11:59:52.1	300.460	0.190	-0.170	0.650
2020/01/31 11:59:52.2	300.470	0.200	-0.160	0.620
2020/01/31 11:59:52.3	300.490	0.200	-0.150	0.580
2020/01/31 11:59:52.4	300.510	0.210	-0.140	0.550
2020/01/31 11:59:52.5	300.530	0.210	-0.140	0.510
2020/01/31 11:59:52.6	300.560	0.220	-0.130	0.470
2020/01/31 11:59:52.7	300.580	0.220	-0.130	0.430
2020/01/31 11:59:52.8	300.600	0.230	-0.120	0.400
2020/01/31 11:59:52.9	300.620	0.240	-0.120	0.360
2020/01/31 11:59:53.0	300.650	0.240	-0.120	0.330
2020/01/31 11:59:53.1	300.670	0.250	-0.120	0.290
2020/01/31 11:59:53.2	300.700	0.250	-0.120	0.260
2020/01/31 11:59:53.3	300.720	0.260	-0.120	0.230
2020/01/31 11:59:53.4	300.750	0.270	-0.120	0.190
2020/01/31 11:59:53.5	300.780	0.270	-0.120	0.160
2020/01/31 11:59:53.6	300.810	0.280	-0.130	0.140
2020/01/31 11:59:53.7	300.840	0.290	-0.130	0.110
2020/01/31 11:59:53.8	300.870	0.290	-0.130	0.090
2020/01/31 11:59:53.9	300.900	0.300	-0.130	0.060
2020/01/31 11:59:54.0	300.930	0.300	-0.140	0.040
2020/01/31 11:59:54.1	300.960	0.310	-0.140	0.020
2020/01/31 11:59:54.2	300.990	0.320	-0.140	0.010
2020/01/31 11:59:54.3	301.020	0.330	-0.140	-0.010
2020/01/31 11:59:54.4	301.050	0.330	-0.150	-0.020
2020/01/31 11:59:54.5	301.080	0.340	-0.150	-0.030
2020/01/31 11:59:54.6	301.110	0.350	-0.150	-0.040
2020/01/31 11:59:54.7	301.140	0.350	-0.150	-0.050
2020/01/31 11:59:54.8	301.170	0.360	-0.150	-0.060
2020/01/31 11:59:54.9	301.200	0.360	-0.150	-0.060
2020/01/31 11:59:55.0	301.230	0.370	-0.150	-0.060
2020/01/31 11:59:55.1	301.260	0.370	-0.150	-0.060
2020/01/31 11:59:55.2	301.290	0.380	-0.150	-0.050
2020/01/31 11:59:55.3	301.310	0.380	-0.150	-0.050
2020/01/31 11:59:55.4	301.340	0.390	-0.140	-0.040
2020/01/31 11:59:55.5	301.360	0.390	-0.140	-0.030
2020/01/31 11:59:55.6	301.380	0.390	-0.140	-0.020
2020/01/31 11:59:55.7	301.400	0.390	-0.140	-0.000
2020/01/31 11:59:55.8	301.420	0.390	-0.130	0.010
2020/01/31 11:59:55.9	301.440	0.390	-0.130	0.030
2020/01/31 11:59:56.0	301.450	0.390	-0.130	0.050
2020/01/31 11:59:56.1	301.470	0.380	-0.130	0.080
2020/01/31 11:59:56.2	301.480	0.380	-0.130	0.100
2020/01/31 11:59:56.3	301.490	0.370	-0.120	0.130
2020/01/31 11:59:56.4	301.490	0.360	-0.120	0.160
2020/01/31 11:59:56.5	301.500	0.350	-0.120	0.180
2020/01/31 11:59:56.6	301.510	0.340	-0.120	0.210
2020/01/31 11:59:56.7	301.510	0.330	-0.120	0.240
2020/01/31 11:59:56.8	301.510	0.320	-0.120	0.270
2020/01/31 11:59:56.9	301.500	0.300	-0.130	0.300
2020/01/31 11:59:57.0	301.500	0.280	-0.130	0.330
2020/01/31 11:59:57.1	301.490	0.260	-0.140	0.360
2020/01/31 11:59:57.2	301.480	0.240	-0.140	0.390
2020/01/31 11:59:57.3	301.470	0.220	-0.150	0.420
2020/01/31 11:59:57.4	301.460	0.200	-0.150	0.450
2020/01/31 11:59:57.5	301.450	0.170	-0.160	0.480
2020/01/31 11:59:57.6	301.420	0.150	-0.170	0.500
2020/01/31 11:59:57.7	301.410	0.120	-0.180	0.530
2020/01/31 11:59:57.8	301.390	0.090	-0.190	0.550
2020/01/31 11:59:57.9	301.380	0.060	-0.200	0.570
2020/01/31 11:59:58.0	301.360	0.030	-0.210	0.590
2020/01/31 11:59:58.1	301.340	-0.000	-0.210	0.610
2020/01/31 11:59:58.2	301.320	-0.030	-0.220	0.630
2020/01/31 11:59:58.3	301.290	-0.070	-0.230	0.650
2020/01/31 11:59:58.4	301.270	-0.100	-0.240	0.670
2020/01/31 11:59:58.5	301.250	-0.130	-0.250	0.680
2020/01/31 11:59:58.6	301.220	-0.170	-0.260	0.690
2020/01/31 11:59:58.7	301.190	-0.200	-0.270	0.700
2020/01/31 11:59:58.8	301.160	-0.230	-0.280	0.710
2020/01/31 11:59:58.9	301.140	-0.270	-0.280	0.720
2020/01/31 11:59:59.0	301.110	-0.300	-0.290	0.730
2020/01/31 11:59:59.1	301.080	-0.330	-0.300	0.730
2020/01/31 11:59:59.2	301.050	-0.370	-0.310	0.730
2020/01/31 11:59:59.3	301.020	-0.400	-0.320	0.730
2020/01/31 11:59:59.4	300.990	-0.430	-0.320	0.730
2020/01/31 11:59:59.5	300.960	-0.460	-0.330	0.730
2020/01/31 11:59:59.6	300.940	-0.490	-0.340	0.720
2020/01/31 11:59:59.7	300.910	-0.510	-0.350	0.720
2020/01/31 11:59:59.8	300.880	-0.540	-0.360	0.700
2020/01/31 11:59:59.9	300.850	-0.560	-0.370	0.690
2020/01/31 12:00:00.0	300.820	-0.590	-0.380	0.680
2020/01/31 12:00:00.1	300.790	-0.610	-0.390	0.660
2020/01/31 12:00:00.2	300.760	-0.630	-0.400	0.640
2020/01/31 12:00:00.3	300.730	-0.650	-0.410	0.620
2020/01/31 12:00:00.4	300.700	-0.660	-0.420	0.600
2020/01/31 12:00:00.5	300.670	-0.680	-0.440	0.580
2020/01/31 12:00:00.6	300.650	-0.690	-0.450	0.550
2020/01/31 12:00:00.7	300.630	-0.700	-0.470	0.530
2020/01/31 12:00:00.8	300.600	-0.710	-0.480	0.500
2020/01/31 12:00:00.9	300.580	-0.720	-0.490	0.470
2020/01/31 12:00:01.0	300.550	-0.720	-0.510	0.450
2020/01/31 12:00:01.1	300.530	-0.730	-0.520	0.420
2020/01/31 12:00:01.2	300.510	-0.730	-0.530	0.390
2020/01/31 12:00:01.3	300.490	-0.730	-0.540	0.360
2020/01/31 12:00:01.4	300.470	-0.720	-0.560	0.340
2020/01/31 12:00:01.5	300.460	-0.720	-0.570	0.310
2020/01/31 12:00:01.6	300.430	-0.710	-0.580	0.280
2020/01/31 12:00:01.7	300.420	-0.700	-0.580	0.250
2020/01/31 12:00:01.8	300.410	-0.690	-0.590	0.230
2020/01/31 12:00:01.9	300.400	-0.680	-0.590	0.200
2020/01/31 12:00:02.0	300.390	-0.670	-0.600	0.180
2020/01/31 12:00:02.1	300.380	-0.660	-0.600	0.160
2020/01/31 12:00:02.2	300.380	-0.640	-0.600	0.130
2020/01/31 12:00:02.3	300.380	-0.620	-0.600	0.110
2020/01/31 12:00:02.4	300.380	-0.610	-0.590	0.090
2020/01/31 12:00:02.5	300.380	-0.590	-0.590	0.070
2020/01/31 12:00:02.6	300.390	-0.570	-0.580	0.050
2020/01/31 12:00:02.7	300.400	-0.550	-0.570	0.040
2020/01/31 12:00:02.8	300.400	-0.530	-0.570	0.020
2020/01/31 12:00:02.9	300.410	-0.500	-0.560	0.010
2020/01/31 12:00:03.0	300.420	-0.480	-0.540	0.000
2020/01/31 12:00:03.1	300.430	-0.460	-0.530	-0.010
2020/01/31 12:00:03.2	300.450	-0.430	-0.520	-0.010
2020/01/31 12:00:03.3	300.460	-0.410	-0.500	-0.020
2020/01/31 12:00:03.4	300.480	-0.380	-0.490	-0.020
2020/01/31 12:00:03.5	300.510	-0.350	-0.470	-0.020
2020/01/31 12:00:03.6	300.530	-0.330	-0.460	-0.010
2020/01/31 12:00:03.7	300.550	-0.300	-0.440	-0.010
2020/01/31 12:00:03.8	300.580	-0.270	-0.420	-0.000
2020/01/31 12:00:03.9	300.600	-0.240	-0.400	0.000
2020/01/31 12:00:04.0	300.630	-0.210	-0.380	0.010
2020/01/31 12:00:04.1	300.660	-0.180	-0.360	0.030
2020/01/31 12:00:04.2	300.690	-0.150	-0.340	0.040
2020/01/31 12:00:04.3	300.720	-0.110	-0.320	0.060
2020/01/31 12:00:04.4	300.760	-0.080	-0.300	0.080
2020/01/31 12:00:04.5	300.790	-0.050	-0.280	0.100
2020/01/31 12:00:04.6	300.830	-0.010	-0.250	0.120
2020/01/31 12:00:04.7	300.860	0.020	-0.230	0.140
2020/01/31 12:00:04.8	300.900	0.050	-0.200	0.170
2020/01/31 12:00:04.9	300.930	0.090	-0.180	0.200
2020/01/31 12:00:05.0	300.970	0.120	-0.150	0.230
2020/01/31 12:00:05.1	301.010	0.160	-0.120	0.260
2020/01/31 12:00:05.2	301.040	0.190	-0.100	0.290
2020/01/31 12:00:05.3	301.080	0.220	-0.070	0.320
2020/01/31 12:00:05.4	301.110	0.260	-0.040	0.360
2020/01/31 12:00:05.5	301.150	0.290	-0.020	0.390
2020/01/31 12:00:05.6	301.190	0.320	0.010	0.430
2020/01/31 12:00:05.7	301.220	0.350	0.040	0.470
2020/01/31 12:00:05.8	301.250	0.380	0.070	0.500
2020/01/31 12:00:05.9	301.280	0.410	0.090	0.540
2020/01/31 12:00:06.0	301.310	0.440	0.120	0.570
2020/01/31 12:00:06.1	301.340	0.470	0.140	0.610
2020/01/31 12:00:06.2	301.360	0.490	0.160	0.650
2020/01/31 12:00:06.3	301.390	0.520	0.180	0.680
2020/01/31 12:00:06.4	301.410	0.540	0.190	0.710
2020/01/31 12:00:06.5	301.430	0.560	0.210	0.750
2020/01/31 12:00:06.6	301.460	0.580	0.220	0.780
2020/01/31 12:00:06.7	301.480	0.600	0.230	0.810
2020/01/31 12:00:06.8	301.500	0.610	0.240	0.830
2020/01/31 12:00:06.9	301.510	0.630	0.240	0.860
2020/01/31 12:00:07.0	301.530	0.640	0.240	0.890
2020/01/31 12:00:07.1	301.540	0.650	0.250	0.910
2020/01/31 12:00:07.2	301.550	0.660	0.240	0.940
2020/01/31 12:00:07.3	301.550	0.670	0.240	0.960
2020/01/31 12:00:07.4	301.560	0.680	0.230	0.980
2020/01/31 12:00:07.5	301.560	0.680	0.230	1.000
2020/01/31 12:00:07.6	301.560	0.690	0.220	1.020
2020/01/31 12:00:07.7	301.560	0.690	0.210	1.030
2020/01/31 12:00:07.8	301.550	0.690	0.200	1.050
2020/01/31 12:00:07.9	301.550	0.690	0.180	1.060
2020/01/31 12:00:08.0	301.540	0.690	0.170	1.080
2020/01/31 12:00:08.1	301.540	0.690	0.150	1.090
2020/01/31 12:00:08.2	301.530	0.680	0.140	1.100
2020/01/31 12:00:08.3	301.520	0.680	0.120	1.110
2020/01/31 12:00:08.4	301.500	0.670	0.100	1.120
2020/01/31 12:00:08.5	301.490	0.660	0.090	1.120
2020/01/31 12:00:08.6	301.470	0.650	0.070	1.130
2020/01/31 12:00:08.7	301.450	0.650	0.060	1.130
2020/01/31 12:00:08.8	301.440	0.630	0.040	1.140
2020/01/31 12:00:08.9	301.420	0.620	0.020	1.140
2020/01/31 12:00:09.0	301.400	0.610	0.010	1.140
2020/01/31 12:00:09.1	301.380	0.600	-0.000	1.140
2020/01/31 12:00:09.2	301.350	0.590	-0.020	1.140
2020/01/31 12:00:09.3	301.330	0.570	-0.030	1.140
2020/01/31 12:00:09.4	301.310	0.560	-0.040	1.140
2020/01/31 12:00:09.5	301.290	0.550	-0.050	1.140
2020/01/31 12:00:09.6	301.250	0.530	-0.060	1.130
2020/01/31 12:00:09.7	301.230	0.520	-0.080	1.120
2020/01/31 12:00:09.8	301.210	0.500	-0.090	1.110
2020/01/31 12:00:09.9	301.180	0.490	-0.100	1.100
2020/01/31 12:00:10.0	301.160	0.470	-0.110	1.080
2020/01/31 12:00:10.1	301.140	0.450	-0.120	1.060
2020/01/31 12:00:10.2	301.120	0.430	-0.140	1.040
2020/01/31 12:00:10.3	301.110	0.420	-0.150	1.020
2020/01/31 12:00:10.4	301.090	0.400	-0.160	0.990
2020/01/31 12:00:10.5	301.070	0.380	-0.180	0.960
2020/01/31 12:00:10.6	301.060	0.360	-0.200	0.920
2020/01/31 12:00:10.7	301.050	0.340	-0.210	0.890
2020/01/31 12:00:10.8	301.030	0.320	-0.230	0.850
2020/01/31 12:00:10.9	301.020	0.300	-0.250	0.810
2020/01/31 12:00:11.0	301.000	0.280	-0.270	0.760
2020/01/31 12:00:11.1	300.990	0.250	-0.290	0.720
2020/01/31 12:00:11.2	300.980	0.230	-0.310	0.670
2020/01/31 12:00:11.3	300.960	0.210	-0.330	0.620
2020/01/31 12:00:11.4	300.950	0.190	-0.350	0.570
2020/01/31 12:00:11.5	300.940	0.160	-0.380	0.520
2020/01/31 12:00:11.6	300.930	0.140	-0.400	0.470
2020/01/31 12:00:11.7	300.910	0.120	-0.430	0.420
2020/01/31 12:00:11.8	300.900	0.090	-0.450	0.370
2020/01/31 12:00:11.9	300.880	0.070	-0.470	0.320
2020/01/31 12:00:12.0	300.870	0.040	-0.500	0.270
2020/01/31 12:00:12.1	300.850	0.020	-0.520	0.220
2020/01/31 12:00:12.2	300.840	-0.010	-0.550	0.180
2020/01/31 12:00:12.3	300.820	-0.030	-0.570	0.130
2020/01/31 12:00:12.4	300.800	-0.060	-0.600	0.090
2020/01/31 12:00:12.5	300.790	-0.080	-0.620	0.050
2020/01/31 12:00:12.6	300.750	-0.110	-0.640	0.010
2020/01/31 12:00:12.7	300.740	-0.130	-0.670	-0.030
2020/01/31 12:00:12.8	300.720	-0.160	-0.690	-0.060
2020/01/31 12:00:12.9	300.700	-0.180	-0.710	-0.090
2020/01/31 12:00:13.0	300.690	-0.210	-0.730	-0.130
2020/01/31 12:00:13.1	300.670	-0.230	-0.750	-0.160
2020/01/31 12:00:13.2	300.650	-0.260	-0.770	-0.190
2020/01/31 12:00:13.3	300.640	-0.280	-0.790	-0.210
2020/01/31 12:00:13.4	300.630	-0.310	-0.810	-0.240
2020/01/31 12:00:13.5	300.610	-0.340	-0.820	-0.270
2020/01/31 12:00:13.6	300.600	-0.360	-0.840	-0.290
2020/01/31 12:00:13.7	300.590	-0.390	-0.860	-0.320
2020/01/31 12:00:13.8	300.580	-0.410	-0.870	-0.340
2020/01/31 12:00:13.9	300.570	-0.440	-0.880	-0.360
2020/01/31 12:00:14.0	300.570	-0.460	-0.890	-0.390
2020/01/31 12:00:14.1	300.560	-0.490	-0.900	-0.410
2020/01/31 12:00:14.2	300.560	-0.510	-0.910	-0.430
2020/01/31 12:00:14.3	300.550	-0.530	-0.910	-0.450
2020/01/31 12:00:14.4	300.550	-0.560	-0.920	-0.470
2020/01/31 12:00:14.5	300.550	-0.580	-0.920	-0.480
2020/01/31 12:00:14.6	300.560	-0.600	-0.910	-0.500
2020/01/31 12:00:14.7	300.570	-0.620	-0.910	-0.520
2020/01/31 12:00:14.8	300.570	-0.650	-0.900	-0.530
2020/01/31 12:00:14.9	300.580	-0.670	-0.890	-0.540
2020/01/31 12:00:15.0	300.590	-0.680	-0.880	-0.560
2020/01/31 12:00:15.1	300.600	-0.700	-0.860	-0.570
2020/01/31 12:00:15.2	300.610	-0.720	-0.840	-0.580
2020/01/31 12:00:15.3	300.630	-0.740	-0.820	-0.580
2020/01/31 12:00:15.4	300.640	-0.750	-0.790	-0.590
2020/01/31 12:00:15.5	300.660	-0.770	-0.760	-0.590
2020/01/31 12:00:15.6	300.670	-0.780	-0.730	-0.590
2020/01/31 12:00:15.7	300.690	-0.790	-0.700	-0.590
2020/01/31 12:00:15.8	300.710	-0.800	-0.660	-0.580
2020/01/31 12:00:15.9	300.730	-0.810	-0.620	-0.570
2020/01/31 12:00:16.0	300.750	-0.820	-0.580	-0.560
2020/01/31 12:00:16.1	300.770	-0.820	-0.530	-0.550
2020/01/31 12:00:16.2	300.790	-0.830	-0.490	-0.540
2020/01/31 12:00:16.3	300.810	-0.830	-0.440	-0.520
2020/01/31 12:00:16.4	300.840	-0.830	-0.390	-0.500
2020/01/31 12:00:16.5	300.860	-0.830	-0.340	-0.470
2020/01/31 12:00:16.6	300.880	-0.830	-0.290	-0.450
2020/01/31 12:00:16.7	300.900	-0.820	-0.250	-0.420
2020/01/31 12:00:16.8	300.930	-0.810	-0.200	-0.390
2020/01/31 12:00:16.9	300.960	-0.800	-0.150	-0.360
2020/01/31 12:00:17.0	300.980	-0.790	-0.100	-0.320
2020/01/31 12:00:17.1	301.010	-0.780	-0.060	-0.280
2020/01/31 12:00:17.2	301.030	-0.760	-0.020	-0.240
2020/01/31 12:00:17.3	301.060	-0.740	0.020	-0.200
2020/01/31 12:00:17.4	301.090	-0.730	0.060	-0.160
2020/01/31 12:00:17.5	301.120	-0.700	0.100	-0.110
2020/01/31 12:00:17.6	301.150	-0.680	0.140	-0.060
2020/01/31 12:00:17.7	301.180	-0.650	0.170	-0.010
2020/01/31 12:00:17.8	301.210	-0.630	0.200	0.040
2020/01/31 12:00:17.9	301.230	-0.600	0.230	0.100
2020/01/31 12:00:18.0	301.260	-0.570	0.260	0.150
2020/01/31 12:00:18.1	301.280	-0.540	0.290	0.210
2020/01/31 12:00:18.2	301.310	-0.510	0.310	0.270
2020/01/31 12:00:18.3	301.330	-0.470	0.330	0.330
2020/01/31 12:00:18.4	301.350	-0.440	0.350	0.390
2020/01/31 12:00:18.5	301.370	-0.400	0.370	0.460
2020/01/31 12:00:18.6	301.380	-0.370	0.390	0.520
2020/01/31 12:00:18.7	301.390	-0.330	0.410	0.580
2020/01/31 12:00:18.8	301.410	-0.290	0.420	0.650
2020/01/31 12:00:18.9	301.420	-0.250	0.430	0.710
2020/01/31 12:00:19.0	301.430	-0.210	0.440	0.780
2020/01/31 12:00:19.1	301.440	-0.180	0.450	0.840
2020/01/31 12:00:19.2	301.450	-0.140	0.460	0.910
2020/01/31 12:00:19.3	301.450	-0.100	0.470	0.970
2020/01/31 12:00:19.4	301.460	-0.060	0.480	1.040
2020/01/31 12:00:19.5	301.460	-0.020	0.480	1.100
2020/01/31 12:00:19.6	301.450	0.020	0.480	1.160
2020/01/31 12:00:19.7	301.450	0.060	0.480	1.220
2020/01/31 12:00:19.8	301.450	0.090	0.480	1.280
2020/01/31 12:00:19.9	301.450	0.130	0.480	1.330
2020/01/31 12:00:20.0	301.440	0.170	0.480	1.380
2020/01/31 12:00:20.1	301.430	0.210	0.480	1.430
2020/01/31 12:00:20.2	301.420	0.240	0.470	1.480
2020/01/31 12:00:20.3	301.410	0.280	0.460	1.520
2020/01/31 12:00:20.4	301.400	0.320	0.450	1.560
2020/01/31 12:00:20.5	301.390	0.350	0.440	1.590
2020/01/31 12:00:20.6	301.370	0.390	0.420	1.620
2020/01/31 12:00:20.7	301.350	0.420	0.410	1.650
2020/01/31 12:00:20.8	301.340	0.460	0.390	1.670
2020/01/31 12:00:20.9	301.320	0.490	0.370	1.690
2020/01/31 12:00:21.0	301.300	0.520	0.350	1.710
2020/01/31 12:00:21.1	301.290	0.550	0.330	1.720
2020/01/31 12:00:21.2	301.270	0.580	0.300	1.730
2020/01/31 12:00:21.3	301.250	0.610	0.280	1.730
2020/01/31 12:00:21.4	301.230	0.640	0.250	1.730
2020/01/31 12:00:21.5	301.210	0.670	0.220	1.720
2020/01/31 12:00:21.6	301.190	0.700	0.180	1.710
2020/01/31 12:00:21.7	301.170	0.730	0.150	1.690
2020/01/31 12:00:21.8	301.150	0.750	0.110	1.680
2020/01/31 12:00:21.9	301.130	0.780	0.070	1.660
2020/01/31 12:00:22.0	301.110	0.800	0.030	1.630
2020/01/31 12:00:22.1	301.090	0.820	-0.010	1.600
2020/01/31 12:00:22.2	301.080	0.850	-0.050	1.570
2020/01/31 12:00:22.3	301.060	0.870	-0.100	1.530
2020/01/31 12:00:22.4	301.040	0.890	-0.150	1.500
2020/01/31 12:00:22.5	301.020	0.900	-0.190	1.450
2020/01/31 12:00:22.6	301.020	0.920	-0.240	1.410
2020/01/31 12:00:22.7	301.000	0.940	-0.290	1.360
2020/01/31 12:00:22.8	300.990	0.950	-0.340	1.310
2020/01/31 12:00:22.9	300.970	0.960	-0.390	1.260
2020/01/31 12:00:23.0	300.960	0.970	-0.450	1.200
2020/01/31 12:00:23.1	300.940	0.980	-0.500	1.150
2020/01/31 12:00:23.2	300.930	0.980	-0.550	1.090
2020/01/31 12:00:23.3	300.910	0.990	-0.600	1.030
2020/01/31 12:00:23.4	300.900	0.990	-0.640	0.970
2020/01/31 12:00:23.5	300.890	0.990	-0.690	0.910
2020/01/31 12:00:23.6	300.870	0.980	-0.740	0.840
2020/01/31 12:00:23.7	300.860	0.980	-0.780	0.780
2020/01/31 12:00:23.8	300.850	0.970	-0.820	0.720
2020/01/31 12:00:23.9	300.840	0.950	-0.860	0.660
2020/01/31 12:00:24.0	300.830	0.940	-0.900	0.600
2020/01/31 12:00:24.1	300.820	0.920	-0.930	0.530
2020/01/31 12:00:24.2	300.820	0.900	-0.960	0.470
2020/01/31 12:00:24.3	300.810	0.880	-0.990	0.420
2020/01/31 12:00:24.4	300.800	0.850	-1.020	0.360
2020/01/31 12:00:24.5	300.800	0.820	-1.040	0.300
2020/01/31 12:00:24.6	300.780	0.790	-1.060	0.250
2020/01/31 12:00:24.7	300.780	0.760	-1.070	0.200
2020/01/31 12:00:24.8	300.770	0.720	-1.080	0.150
2020/01/31 12:00:24.9	300.770	0.680	-1.090	0.100
2020/01/31 12:00:25.0	300.760	0.640	-1.090	0.060
2020/01/31 12:00:25.1	300.760	0.590	-1.090	0.010
2020/01/31 12:00:25.2	300.760	0.550	-1.090	-0.030
2020/01/31 12:00:25.3	300.750	0.500	-1.080	-0.060
2020/01/31 12:00:25.4	300.750	0.450	-1.070	-0.100
2020/01/31 12:00:25.5	300.750	0.400	-1.060	-0.130
2020/01/31 12:00:25.6	300.730	0.340	-1.040	-0.170
2020/01/31 12:00:25.7	300.730	0.290	-1.020	-0.190
2020/01/31 12:00:25.8	300.730	0.230	-1.000	-0.220
2020/01/31 12:00:25.9	300.730	0.170	-0.970	-0.240
2020/01/31 12:00:26.0	300.730	0.120	-0.950	-0.260
2020/01/31 12:00:26.1	300.730	0.060	-0.910	-0.280
2020/01/31 12:00:26.2	300.730	-0.000	-0.880	-0.290
2020/01/31 12:00:26.3	300.730	-0.060	-0.850	-0.310
2020/01/31 12:00:26.4	300.730	-0.120	-0.810	-0.320
2020/01/31 12:00:26.5	300.730	-0.180	-0.780	-0.330
2020/01/31 12:00:26.6	300.740	-0.230	-0.740	-0.340
2020/01/31 12:00:26.7	300.740	-0.290	-0.700	-0.340
2020/01/31 12:00:26.8	300.750	-0.350	-0.660	-0.350
2020/01/31 12:00:26.9	300.750	-0.400	-0.620	-0.350
2020/01/31 12:00:27.0	300.760	-0.450	-0.580	-0.360
2020/01/31 12:00:27.1	300.770	-0.510	-0.540	-0.360
2020/01/31 12:00:27.2	300.780	-0.550	-0.510	-0.370
2020/01/31 12:00:27.3	300.790	-0.600	-0.470	-0.370
2020/01/31 12:00:27.4	300.800	-0.650	-0.430	-0.370
2020/01/31 12:00:27.5	300.810	-0.690	-0.390	-0.370
2020/01/31 12:00:27.6	300.820	-0.730	-0.360	-0.370
2020/01/31 12:00:27.7	300.830	-0.770	-0.320	-0.370
2020/01/31 12:00:27.8	300.850	-0.800	-0.290	-0.370
2020/01/31 12:00:27.9	300.860	-0.830	-0.260	-0.370
2020/01/31 12:00:28.0	300.880	-0.860	-0.230	-0.370
2020/01/31 12:00:28.1	300.890	-0.880	-0.200	-0.360
2020/01/31 12:00:28.2	300.900	-0.910	-0.170	-0.360
2020/01/31 12:00:28.3	300.920	-0.920	-0.140	-0.350
2020/01/31 12:00:28.4	300.930	-0.940	-0.110	-0.340
2020/01/31 12:00:28.5	300.950	-0.950	-0.090	-0.330
2020/01/31 12:00:28.6	300.950	-0.960	-0.060	-0.320
2020/01/31 12:00:28.7	300.970	-0.970	-0.040	-0.310
2020/01/31 12:00:28.8	300.980	-0.970	-0.020	-0.290
2020/01/31 12:00:28.9	300.990	-0.970	-0.000	-0.280
2020/01/31 12:00:29.0	301.000	-0.960	0.020	-0.260
2020/01/31 12:00:29.1	301.010	-0.960	0.030	-0.250
2020/01/31 12:00:29.2	301.020	-0.950	0.050	-0.230
2020/01/31 12:00:29.3	301.040	-0.940	0.060	-0.220
2020/01/31 12:00:29.4	301.050	-0.920	0.070	-0.200
2020/01/31 12:00:29.5	301.060	-0.910	0.080	-0.180
2020/01/31 12:00:29.6	301.070	-0.890	0.090	-0.160
2020/01/31 12:00:29.7	301.080	-0.870	0.090	-0.150
2020/01/31 12:00:29.8	301.090	-0.840	0.100	-0.130
2020/01/31 12:00:29.9	301.100	-0.820	0.100	-0.110
2020/01/31 12:00:30.0	301.110	-0.790	0.110	-0.090
2020/01/31 12:00:30.1	301.120	-0.760	0.110	-0.070
2020/01/31 12:00:30.2	301.130	-0.730	0.120	-0.050
2020/01/31 12:00:30.3	301.130	-0.700	0.120	-0.030
2020/01/31 12:00:30.4	301.140	-0.670	0.120	-0.000
2020/01/31 12:00:30.5	301.150	-0.640	0.120	0.020
2020/01/31 12:00:30.6	301.150	-0.610	0.130	0.050
2020/01/31 12:00:30.7	301.160	-0.570	0.130	0.070
2020/01/31 12:00:30.8	301.160	-0.540	0.140	0.100
2020/01/31 12:00:30.9	301.170	-0.510	0.140	0.130
2020/01/31 12:00:31.0	301.170	-0.470	0.140	0.160
2020/01/31 12:00:31.1	301.180	-0.440	0.150	0.190
2020/01/31 12:00:31.2	301.180	-0.400	0.150	0.230
2020/01/31 12:00:31.3	301.190	-0.370	0.160	0.260
2020/01/31 12:00:31.4	301.190	-0.340	0.160	0.290
2020/01/31 12:00:31.5	301.190	-0.310	0.170	0.330
2020/01/31 12:00:31.6	301.200	-0.280	0.170	0.370
2020/01/31 12:00:31.7	301.200	-0.250	0.180	0.400
2020/01/31 12:00:31.8	301.210	-0.220	0.190	0.440
2020/01/31 12:00:31.9	301.210	-0.190	0.200	0.480
2020/01/31 12:00:32.0	301.210	-0.160	0.210	0.510
2020/01/31 12:00:32.1	301.210	-0.140	0.210	0.550
2020/01/31 12:00:32.2	301.220	-0.110	0.220	0.590
2020/01/31 12:00:32.3	301.220	-0.090	0.230	0.630
2020/01/31 12:00:32.4	301.220	-0.070	0.240	0.660
2020/01/31 12:00:32.5	301.220	-0.050	0.250	0.700
2020/01/31 12:00:32.6	301.220	-0.030	0.250	0.740
2020/01/31 12:00:32.7	301.220	-0.010	0.260	0.770
2020/01/31 12:00:32.8	301.220	0.010	0.260	0.800
2020/01/31 12:00:32.9	301.220	0.030	0.270	0.830
2020/01/31 12:00:33.0	301.210	0.040	0.270	0.860
2020/01/31 12:00:33.1	301.210	0.060	0.270	0.890
2020/01/31 12:00:33.2	301.200	0.070	0.270	0.920
2020/01/31 12:00:33.3	301.190	0.080	0.270	0.940
2020/01/31 12:00:33.4	301.180	0.090	0.260	0.960
2020/01/31 12:00:33.5	301.170	0.110	0.250	0.980
2020/01/31 12:00:33.6	301.150	0.120	0.240	1.000
2020/01/31 12:00:33.7	301.140	0.130	0.220	1.020
2020/01/31 12:00:33.8	301.120	0.130	0.210	1.030
2020/01/31 12:00:33.9	301.110	0.140	0.190	1.040
2020/01/31 12:00:34.0	301.090	0.150	0.160	1.050
2020/01/31 12:00:34.1	301.070	0.160	0.140	1.050
2020/01/31 12:00:34.2	301.050	0.170	0.110	1.050
2020/01/31 12:00:34.3	301.030	0.180	0.080	1.050
2020/01/31 12:00:34.4	301.020	0.190	0.040	1.050
2020/01/31 12:00:34.5	301.000	0.200	0.000	1.040
2020/01/31 12:00:34.6	300.990	0.210	-0.040	1.030
2020/01/31 12:00:34.7	300.970	0.220	-0.080	1.010
2020/01/31 12:00:34.8	300.950	0.230	-0.130	1.000
2020/01/31 12:00:34.9	300.940	0.250	-0.180	0.980
2020/01/31 12:00:35.0	300.920	0.260	-0.230	0.960
2020/01/31 12:00:35.1	300.900	0.280	-0.280	0.930
2020/01/31 12:00:35.2	300.890	0.290	-0.330	0.910
2020/01/31 12:00:35.3	300.880	0.310	-0.380	0.880
2020/01/31 12:00:35.4	300.860	0.330	-0.440	0.860
2020/01/31 12:00:35.5	300.850	0.350	-0.490	0.830
2020/01/31 12:00:35.6	300.840	0.370	-0.550	0.800
2020/01/31 12:00:35.7	300.820	0.390	-0.600	0.770
2020/01/31 12:00:35.8	300.810	0.410	-0.640	0.740
2020/01/31 12:00:35.9	300.800	0.430	-0.690	0.710
2020/01/31 12:00:36.0	300.800	0.450	-0.740	0.690
2020/01/31 12:00:36.1	300.790	0.470	-0.780	0.660
2020/01/31 12:00:36.2	300.780	0.490	-0.820	0.640
2020/01/31 12:00:36.3	300.770	0.510	-0.850	0.610
2020/01/31 12:00:36.4	300.770	0.530	-0.880	0.590
2020/01/31 12:00:36.5	300.760	0.550	-0.910	0.570
2020/01/31 12:00:36.6	300.750	0.570	-0.930	0.550
2020/01/31 12:00:36.7	300.740	0.590	-0.950	0.530
2020/01/31 12:00:36.8	300.740	0.610	-0.960	0.520
2020/01/31 12:00:36.9	300.740	0.620	-0.970	0.500
2020/01/31 12:00:37.0	300.730	0.630	-0.980	0.490
2020/01/31 12:00:37.1	300.730	0.650	-0.980	0.480
2020/01/31 12:00:37.2	300.730	0.660	-0.980	0.470
2020/01/31 12:00:37.3	300.730	0.670	-0.970	0.460
2020/01/31 12:00:37.4	300.720	0.670	-0.960	0.460
2020/01/31 12:00:37.5	300.720	0.680	-0.940	0.450
2020/01/31 12:00:37.6	300.720	0.680	-0.920	0.450
2020/01/31 12:00:37.7	300.720	0.680	-0.900	0.450
2020/01/31 12:00:37.8	300.720	0.680	-0.870	0.450
2020/01/31 12:00:37.9	300.720	0.680	-0.850	0.460
2020/01/31 12:00:38.0	300.720	0.680	-0.820	0.460
2020/01/31 12:00:38.1	300.720	0.670	-0.780	0.470
2020/01/31 12:00:38.2	300.720	0.660	-0.750	0.480
2020/01/31 12:00:38.3	300.720	0.650	-0.710	0.490
2020/01/31 12:00:38.4	300.730	0.640	-0.680	0.500
2020/01/31 12:00:38.5	300.730	0.630	-0.640	0.510
2020/01/31 12:00:38.6	300.750	0.620	-0.600	0.520
2020/01/31 12:00:38.7	300.760	0.600	-0.570	0.530
2020/01/31 12:00:38.8	300.760	0.580	-0.530	0.550
2020/01/31 12:00:38.9	300.770	0.570	-0.490	0.560
2020/01/31 12:00:39.0	300.770	0.550	-0.460	0.570
2020/01/31 12:00:39.1	300.780	0.530	-0.420	0.580
2020/01/31 12:00:39.2	300.790	0.510	-0.390	0.600
2020/01/31 12:00:39.3	300.800	0.490	-0.360	0.610
2020/01/31 12:00:39.4	300.800	0.470	-0.330	0.620
2020/01/31 12:00:39.5	300.810	0.440	-0.300	0.620
2020/01/31 12:00:39.6	300.830	0.420	-0.270	0.630
2020/01/31 12:00:39.7	300.840	0.400	-0.250	0.640
2020/01/31 12:00:39.8	300.850	0.370	-0.220	0.640
2020/01/31 12:00:39.9	300.860	0.350	-0.200	0.640
2020/01/31 12:00:40.0	300.880	0.330	-0.190	0.640
2020/01/31 12:00:40.1	300.890	0.300	-0.170	0.640
2020/01/31 12:00:40.2	300.900	0.280	-0.160	0.640
2020/01/31 12:00:40.3	300.920	0.250	-0.140	0.630
2020/01/31 12:00:40.4	300.930	0.230	-0.130	0.630
2020/01/31 12:00:40.5	300.950	0.210	-0.120	0.620
2020/01/31 12:00:40.6	300.970	0.180	-0.120	0.610
2020/01/31 12:00:40.7	300.980	0.160	-0.110	0.600
2020/01/31 12:00:40.8	300.990	0.130	-0.110	0.590
2020/01/31 12:00:40.9	301.010	0.110	-0.100	0.570
2020/01/31 12:00:41.0	301.020	0.090	-0.100	0.560
2020/01/31 12:00:41.1	301.030	0.060	-0.100	0.540
2020/01/31 12:00:41.2	301.040	0.040	-0.090	0.530
2020/01/31 12:00:41.3	301.050	0.020	-0.090	0.510
2020/01/31 12:00:41.4	301.060	-0.010	-0.080	0.490
2020/01/31 12:00:41.5	301.070	-0.030	-0.080	0.470
2020/01/31 12:00:41.6	301.050	-0.060	-0.070	0.450
2020/01/31 12:00:41.7	301.060	-0.080	-0.070	0.430
2020/01/31 12:00:41.8	301.060	-0.110	-0.060	0.410
2020/01/31 12:00:41.9	301.060	-0.140	-0.050	0.390
2020/01/31 12:00:42.0	301.060	-0.160	-0.040	0.380
2020/01/31 12:00:42.1	301.060	-0.190	-0.030	0.360
2020/01/31 12:00:42.2	301.060	-0.220	-0.010	0.340
2020/01/31 12:00:42.3	301.050	-0.250	0.000	0.330
2020/01/31 12:00:42.4	301.050	-0.270	0.020	0.320
2020/01/31 12:00:42.5	301.040	-0.300	0.040	0.300
2020/01/31 12:00:42.6	301.020	-0.330	0.050	0.300
2020/01/31 12:00:42.7	301.010	-0.370	0.070	0.290
2020/01/31 12:00:42.8	301.000	-0.400	0.090	0.280
2020/01/31 12:00:42.9	300.990	-0.430	0.110	0.270
2020/01/31 12:00:43.0	300.970	-0.460	0.130	0.270
2020/01/31 12:00:43.1	300.960	-0.490	0.150	0.260
2020/01/31 12:00:43.2	300.940	-0.530	0.170	0.260
2020/01/31 12:00:43.3	300.930	-0.560	0.190	0.260
2020/01/31 12:00:43.4	300.910	-0.590	0.210	0.250
2020/01/31 12:00:43.5	300.890	-0.620	0.220	0.250
2020/01/31 12:00:43.6	300.880	-0.650	0.240	0.240
2020/01/31 12:00:43.7	300.860	-0.680	0.250	0.240
2020/01/31 12:00:43.8	300.840	-0.710	0.270	0.240
2020/01/31 12:00:43.9	300.830	-0.740	0.280	0.230
2020/01/31 12:00:44.0	300.810	-0.770	0.280	0.230
2020/01/31 12:00:44.1	300.800	-0.790	0.290	0.220
2020/01/31 12:00:44.2	300.790	-0.810	0.290	0.210
2020/01/31 12:00:44.3	300.770	-0.830	0.290	0.210
2020/01/31 12:00:44.4	300.760	-0.850	0.280	0.200
2020/01/31 12:00:44.5	300.750	-0.870	0.270	0.190
2020/01/31 12:00:44.6	300.750	-0.880	0.260	0.180
2020/01/31 12:00:44.7	300.740	-0.900	0.250	0.170
2020/01/31 12:00:44.8	300.730	-0.900	0.230	0.160
2020/01/31 12:00:44.9	300.730	-0.910	0.210	0.150
2020/01/31 12:00:45.0	300.720	-0.910	0.190	0.130
2020/01/31 12:00:45.1	300.720	-0.910	0.160	0.120
2020/01/31 12:00:45.2	300.710	-0.910	0.130	0.100
2020/01/31 12:00:45.3	300.710	-0.900	0.100	0.090
2020/01/31 12:00:45.4	300.710	-0.900	0.070	0.080
2020/01/31 12:00:45.5	300.710	-0.880	0.030	0.060
2020/01/31 12:00:45.6	300.700	-0.870	-0.010	0.050
2020/01/31 12:00:45.7	300.700	-0.850	-0.050	0.030
2020/01/31 12:00:45.8	300.700	-0.830	-0.100	0.020
2020/01/31 12:00:45.9	300.710	-0.800	-0.140	0.010
2020/01/31 12:00:46.0	300.710	-0.770	-0.190	-0.010
2020/01/31 12:00:46.1	300.720	-0.740	-0.240	-0.020
2020/01/31 12:00:46.2	300.720	-0.710	-0.290	-0.030
2020/01/31 12:00:46.3	300.730	-0.680	-0.340	-0.040
2020/01/31 12:00:46.4	300.740	-0.640	-0.390	-0.040
2020/01/31 12:00:46.5	300.740	-0.600	-0.440	-0.050
2020/01/31 12:00:46.6	300.770	-0.560	-0.480	-0.060
2020/01/31 12:00:46.7	300.770	-0.510	-0.530	-0.060
2020/01/31 12:00:46.8	300.780	-0.470	-0.580	-0.060
2020/01/31 12:00:46.9	300.790	-0.420	-0.620	-0.060
2020/01/31 12:00:47.0	300.800	-0.370	-0.670	-0.060
2020/01/31 12:00:47.1	300.810	-0.320	-0.710	-0.050
2020/01/31 12:00:47.2	300.820	-0.270	-0.750	-0.040
2020/01/31 12:00:47.3	300.830	-0.220	-0.780	-0.030
2020/01/31 12:00:47.4	300.840	-0.170	-0.820	-0.010
2020/01/31 12:00:47.5	300.850	-0.120	-0.850	0.000
2020/01/31 12:00:47.6	300.860	-0.070	-0.870	0.020
2020/01/31 12:00:47.7	300.870	-0.020	-0.890	0.050
2020/01/31 12:00:47.8	300.880	0.030	-0.910	0.070
2020/01/31 12:00:47.9	300.900	0.080	-0.930	0.100
2020/01/31 12:00:48.0	300.910	0.130	-0.940	0.130
2020/01/31 12:00:48.1	300.920	0.180	-0.940	0.170
2020/01/31 12:00:48.2	300.930	0.230	-0.950	0.200
2020/01/31 12:00:48.3	300.940	0.280	-0.940	0.240
2020/01/31 12:00:48.4	300.950	0.320	-0.940	0.280
2020/01/31 12:00:48.5	300.970	0.360	-0.930	0.320
2020/01/31 12:00:48.6	300.980	0.400	-0.920	0.360
2020/01/31 12:00:48.7	301.000	0.440	-0.900	0.410
2020/01/31 12:00:48.8	301.010	0.480	-0.880	0.450
2020/01/31 12:00:48.9	301.020	0.510	-0.860	0.490
2020/01/31 12:00:49.0	301.040	0.540	-0.830	0.540
2020/01/31 12:00:49.1	301.050	0.570	-0.800	0.580
2020/01/31 12:00:49.2	301.060	0.600	-0.770	0.630
2020/01/31 12:00:49.3	301.080	0.620	-0.740	0.670
2020/01/31 12:00:49.4	301.090	0.640	-0.700	0.720
2020/01/31 12:00:49.5	301.100	0.660	-0.660	0.760
2020/01/31 12:00:49.6	301.120	0.680	-0.620	0.810
2020/01/31 12:00:49.7	301.140	0.690	-0.580	0.850
2020/01/31 12:00:49.8	301.150	0.700	-0.540	0.890
2020/01/31 12:00:49.9	301.160	0.710	-0.500	0.930
2020/01/31 12:00:50.0	301.170	0.720	-0.460	0.960
2020/01/31 12:00:50.1	301.190	0.720	-0.420	1.000
2020/01/31 12:00:50.2	301.200	0.720	-0.380	1.030
2020/01/31 12:00:50.3	301.210	0.720	-0.340	1.060
2020/01/31 12:00:50.4	301.230	0.720	-0.300	1.090
2020/01/31 12:00:50.5	301.240	0.710	-0.260	1.110
2020/01/31 12:00:50.6	301.240	0.700	-0.220	1.140
2020/01/31 12:00:50.7	301.250	0.700	-0.190	1.160
2020/01/31 12:00:50.8	301.270	0.690	-0.150	1.180
2020/01/31 12:00:50.9	301.280	0.670	-0.120	1.200
2020/01/31 12:00:51.0	301.300	0.660	-0.090	1.210
2020/01/31 12:00:51.1	301.310	0.650	-0.060	1.220
2020/01/31 12:00:51.2	301.320	0.630	-0.030	1.230
2020/01/31 12:00:51.3	301.340	0.620	-0.000	1.240
2020/01/31 12:00:51.4	301.350	0.600	0.020	1.250
2020/01/31 12:00:51.5	301.360	0.590	0.050	1.250
2020/01/31 12:00:51.6	301.360	0.570	0.070	1.240
2020/01/31 12:00:51.7	301.370	0.550	0.090	1.250
2020/01/31 12:00:51.8	301.380	0.540	0.110	1.240
2020/01/31 12:00:51.9	301.390	0.520	0.130	1.240
2020/01/31 12:00:52.0	301.400	0.510	0.150	1.240
2020/01/31 12:00:52.1	301.400	0.490	0.170	1.230
2020/01/31 12:00:52.2	301.410	0.470	0.180	1.230
2020/01/31 12:00:52.3	301.420	0.460	0.190	1.220
2020/01/31 12:00:52.4	301.420	0.440	0.210	1.210
2020/01/31 12:00:52.5	301.430	0.430	0.220	1.200
2020/01/31 12:00:52.6	301.440	0.410	0.220	1.190
2020/01/31 12:00:52.7	301.440	0.400	0.230	1.180
2020/01/31 12:00:52.8	301.440	0.390	0.240	1.170
2020/01/31 12:00:52.9	301.440	0.370	0.250	1.160
2020/01/31 12:00:53.0	301.440	0.360	0.260	1.140
2020/01/31 12:00:53.1	301.430	0.340	0.260	1.120
2020/01/31 12:00:53.2	301.430	0.330	0.260	1.110
2020/01/31 12:00:53.3	301.430	0.320	0.270	1.090
2020/01/31 12:00:53.4	301.420	0.300	0.270	1.070
2020/01/31 12:00:53.5	301.410	0.290	0.270	1.050
2020/01/31 12:00:53.6	301.410	0.280	0.270	1.020
2020/01/31 12:00:53.7	301.400	0.260	0.270	1.000
2020/01/31 12:00:53.8	301.390	0.250	0.260	0.970
2020/01/31 12:00:53.9	301.380	0.230	0.260	0.940
2020/01/31 12:00:54.0	301.370	0.220	0.250	0.910
2020/01/31 12:00:54.1	301.350	0.200	0.240	0.870
2020/01/31 12:00:54.2	301.340	0.190	0.230	0.830
2020/01/31 12:00:54.3	301.320	0.170	0.220	0.800
2020/01/31 12:00:54.4	301.310	0.150	0.210	0.750
2020/01/31 12:00:54.5	301.300	0.130	0.190	0.710
2020/01/31 12:00:54.6	301.280	0.120	0.180	0.660
2020/01/31 12:00:54.7	301.270	0.100	0.160	0.610
2020/01/31 12:00:54.8	301.260	0.080	0.140	0.560
2020/01/31 12:00:54.9	301.250	0.060	0.120	0.510
2020/01/31 12:00:55.0	301.230	0.040	0.100	0.460
2020/01/31 12:00:55.1	301.220	0.020	0.080	0.400
2020/01/31 12:00:55.2	301.210	0.000	0.060	0.340
2020/01/31 12:00:55.3	301.200	-0.020	0.030	0.280
2020/01/31 12:00:55.4	301.190	-0.040	0.010	0.220
2020/01/31 12:00:55.5	301.180	-0.060	-0.020	0.160
2020/01/31 12:00:55.6	301.170	-0.080	-0.050	0.100
2020/01/31 12:00:55.7	301.160	-0.100	-0.070	0.040
2020/01/31 12:00:55.8	301.150	-0.130	-0.100	-0.020
2020/01/31 12:00:55.9	301.150	-0.150	-0.120	-0.080
2020/01/31 12:00:56.0	301.140	-0.170	-0.150	-0.140
2020/01/31 12:00:56.1	301.130	-0.190	-0.180	-0.200
2020/01/31 12:00:56.2	301.130	-0.220	-0.210	-0.260
2020/01/31 12:00:56.3	301.120	-0.240	-0.230	-0.320
2020/01/31 12:00:56.4	301.120	-0.260	-0.260	-0.370
2020/01/31 12:00:56.5	301.120	-0.280	-0.280	-0.430
2020/01/31 12:00:56.6	301.110	-0.310	-0.310	-0.480
2020/01/31 12:00:56.7	301.100	-0.330	-0.340	-0.530
2020/01/31 12:00:56.8	301.100	-0.350	-0.360	-0.580
2020/01/31 12:00:56.9	301.100	-0.370	-0.390	-0.630
2020/01/31 12:00:57.0	301.100	-0.390	-0.410	-0.670
2020/01/31 12:00:57.1	301.100	-0.410	-0.430	-0.710
2020/01/31 12:00:57.2	301.110	-0.430	-0.450	-0.750
2020/01/31 12:00:57.3	301.110	-0.450	-0.470	-0.790
2020/01/31 12:00:57.4	301.110	-0.470	-0.500	-0.820
2020/01/31 12:00:57.5	301.120	-0.490	-0.520	-0.840
2020/01/31 12:00:57.6	301.120	-0.500	-0.530	-0.870
2020/01/31 12:00:57.7	301.120	-0.510	-0.550	-0.890
2020/01/31 12:00:57.8	301.130	-0.530	-0.570	-0.900
2020/01/31 12:00:57.9	301.130	-0.540	-0.580	-0.910
2020/01/31 12:00:58.0	301.140	-0.550	-0.600	-0.920
2020/01/31 12:00:58.1	301.140	-0.560	-0.620	-0.930
2020/01/31 12:00:58.2	301.150	-0.570	-0.630	-0.920
2020/01/31 12:00:58.3	301.150	-0.570	-0.650	-0.920
2020/01/31 12:00:58.4	301.160	-0.570	-0.660	-0.910
2020/01/31 12:00:58.5	301.160	-0.580	-0.670	-0.890
2020/01/31 12:00:58.6	301.160	-0.580	-0.680	-0.880
2020/01/31 12:00:58.7	301.160	-0.580	-0.690	-0.860
2020/01/31 12:00:58.8	301.160	-0.580	-0.700	-0.830
2020/01/31 12:00:58.9	301.170	-0.570	-0.710	-0.800
2020/01/31 12:00:59.0	301.170	-0.570	-0.720	-0.770
2020/01/31 12:00:59.1	301.170	-0.560	-0.730	-0.740
2020/01/31 12:00:59.2	301.170	-0.550	-0.740	-0.700
2020/01/31 12:00:59.3	301.180	-0.540	-0.740	-0.660
2020/01/31 12:00:59.4	301.180	-0.530	-0.750	-0.620
2020/01/31 12:00:59.5	301.180	-0.520	-0.750	-0.580
2020/01/31 12:00:59.6	301.200	-0.500	-0.750	-0.530
2020/01/31 12:00:59.7	301.200	-0.480	-0.760	-0.480
2020/01/31 12:00:59.8	301.200	-0.470	-0.760	-0.430
2020/01/31 12:00:59.9	301.200	-0.450	-0.760	-0.370
2020/01/31 12:01:00.0	301.200	-0.430	-0.750	-0.320
2020/01/31 12:01:00.1	301.200	-0.410	-0.750	-0.260
2020/01/31 12:01:00.2	301.210	-0.390	-0.750	-0.200
2020/01/31 12:01:00.3	301.210	-0.360	-0.740	-0.140
2020/01/31 12:01:00.4	301.210	-0.340	-0.740	-0.080
2020/01/31 12:01:00.5	301.210	-0.320	-0.730	-0.020
2020/01/31 12:01:00.6	301.220	-0.290	-0.720	0.050
2020/01/31 12:01:00.7	301.220	-0.270	-0.710	0.110
2020/01/31 12:01:00.8	301.220	-0.240	-0.690	0.180
2020/01/31 12:01:00.9	301.230	-0.210	-0.680	0.240
2020/01/31 12:01:01.0	301.230	-0.190	-0.660	0.310
2020/01/31 12:01:01.1	301.230	-0.160	-0.640	0.370
2020/01/31 12:01:01.2	301.230	-0.140	-0.620	0.440
2020/01/31 12:01:01.3	301.230	-0.110	-0.600	0.500
2020/01/31 12:01:01.4	301.230	-0.090	-0.570	0.570
2020/01/31 12:01:01.5	301.230	-0.070	-0.550	0.630
2020/01/31 12:01:01.6	301.240	-0.040	-0.520	0.690
2020/01/31 12:01:01.7	301.240	-0.020	-0.490	0.760
2020/01/31 12:01:01.8	301.240	-0.000	-0.460	0.820
2020/01/31 12:01:01.9	301.240	0.020	-0.430	0.880
2020/01/31 12:01:02.0	301.240	0.040	-0.400	0.940
2020/01/31 12:01:02.1	301.230	0.050	-0.370	1.000
2020/01/31 12:01:02.2	301.230	0.070	-0.330	1.050
2020/01/31 12:01:02.3	301.230	0.090	-0.300	1.110
2020/01/31 12:01:02.4	301.220	0.100	-0.260	1.160
2020/01/31 12:01:02.5	301.220	0.110	-0.230	1.210
2020/01/31 12:01:02.6	301.210	0.120	-0.190	1.260
2020/01/31 12:01:02.7	301.210	0.130	-0.160	1.300
2020/01/31 12:01:02.8	301.200	0.140	-0.120	1.350
2020/01/31 12:01:02.9	301.200	0.150	-0.090	1.390
2020/01/31 12:01:03.0	301.190	0.160	-0.060	1.430
2020/01/31 12:01:03.1	301.190	0.170	-0.020	1.460
2020/01/31 12:01:03.2	301.180	0.170	0.010	1.500
2020/01/31 12:01:03.3	301.170	0.180	0.040	1.530
2020/01/31 12:01:03.4	301.170	0.180	0.070	1.560
2020/01/31 12:01:03.5	301.160	0.190	0.090	1.590
2020/01/31 12:01:03.6	301.160	0.190	0.120	1.600
2020/01/31 12:01:03.7	301.150	0.200	0.150	1.620
2020/01/31 12:01:03.8	301.150	0.200	0.170	1.640
2020/01/31 12:01:03.9	301.140	0.200	0.190	1.660
2020/01/31 12:01:04.0	301.130	0.200	0.210	1.670
2020/01/31 12:01:04.1	301.120	0.210	0.230	1.680
2020/01/31 12:01:04.2	301.120	0.210	0.240	1.690
2020/01/31 12:01:04.3	301.110	0.210	0.250	1.690
2020/01/31 12:01:04.4	301.100	0.220	0.260	1.690
2020/01/31 12:01:04.5	301.090	0.220	0.270	1.690
2020/01/31 12:01:04.6	301.060	0.220	0.270	1.690
2020/01/31 12:01:04.7	301.050	0.230	0.270	1.680
2020/01/31 12:01:04.8	301.050	0.230	0.270	1.670
2020/01/31 12:01:04.9	301.040	0.230	0.270	1.660
2020/01/31 12:01:05.0	301.030	0.240	0.260	1.640
2020/01/31 12:01:05.1	301.020	0.240	0.260	1.620
2020/01/31 12:01:05.2	301.020	0.250	0.250	1.600
2020/01/31 12:01:05.3	301.010	0.250	0.230	1.580
2020/01/31 12:01:05.4	301.010	0.260	0.210	1.550
2020/01/31 12:01:05.5	301.020	0.260	0.190	1.510
2020/01/31 12:01:05.6	301.020	0.270	0.170	1.480
2020/01/31 12:01:05.7	301.010	0.270	0.150	1.440
2020/01/31 12:01:05.8	301.010	0.280	0.130	1.400
2020/01/31 12:01:05.9	301.010	0.280	0.100	1.360
2020/01/31 12:01:06.0	301.010	0.280	0.070	1.310
2020/01/31 12:01:06.1	301.020	0.290	0.050	1.260
2020/01/31 12:01:06.2	301.020	0.290	0.020	1.220
2020/01/31 12:01:06.3	301.030	0.300	-0.010	1.170
2020/01/31 12:01:06.4	301.040	0.300	-0.040	1.110
2020/01/31 12:01:06.5	301.040	0.310	-0.070	1.060
2020/01/31 12:01:06.6	301.060	0.310	-0.090	1.010
2020/01/31 12:01:06.7	301.070	0.310	-0.120	0.950
2020/01/31 12:01:06.8	301.080	0.310	-0.140	0.900
2020/01/31 12:01:06.9	301.090	0.320	-0.170	0.840
2020/01/31 12:01:07.0	301.100	0.320	-0.190	0.790
2020/01/31 12:01:07.1	301.120	0.320	-0.210	0.740
2020/01/31 12:01:07.2	301.130	0.320	-0.220	0.680
2020/01/31 12:01:07.3	301.150	0.320	-0.240	0.630
2020/01/31 12:01:07.4	301.160	0.320	-0.250	0.580
2020/01/31 12:01:07.5	301.170	0.320	-0.270	0.530
2020/01/31 12:01:07.6	301.180	0.320	-0.280	0.470
2020/01/31 12:01:07.7	301.190	0.310	-0.280	0.430
2020/01/31 12:01:07.8	301.200	0.310	-0.290	0.380
2020/01/31 12:01:07.9	301.220	0.310	-0.290	0.340
2020/01/31 12:01:08.0	301.230	0.300	-0.300	0.290
2020/01/31 12:01:08.1	301.240	0.300	-0.300	0.250
2020/01/31 12:01:08.2	301.260	0.290	-0.300	0.210
2020/01/31 12:01:08.3	301.270	0.290	-0.300	0.180
2020/01/31 12:01:08.4	301.280	0.280	-0.290	0.140
2020/01/31 12:01:08.5	301.280	0.270	-0.290	0.110
2020/01/31 12:01:08.6	301.290	0.270	-0.290	0.080
2020/01/31 12:01:08.7	301.300	0.260	-0.290	0.050
2020/01/31 12:01:08.8	301.300	0.250	-0.280	0.030
2020/01/31 12:01:08.9	301.300	0.240	-0.280	0.000
2020/01/31 12:01:09.0	301.300	0.240	-0.270	-0.020
2020/01/31 12:01:09.1	301.310	0.230	-0.270	-0.030
2020/01/31 12:01:09.2	301.300	0.220	-0.260	-0.050
2020/01/31 12:01:09.3	301.300	0.210	-0.260	-0.060
2020/01/31 12:01:09.4	301.290	0.200	-0.250	-0.070
2020/01/31 12:01:09.5	301.290	0.190	-0.250	-0.070
2020/01/31 12:01:09.6	301.270	0.180	-0.250	-0.080
2020/01/31 12:01:09.7	301.260	0.170	-0.240	-0.080
2020/01/31 12:01:09.8	301.250	0.160	-0.240	-0.080
2020/01/31 12:01:09.9	301.240	0.150	-0.240	-0.080
2020/01/31 12:01:10.0	301.220	0.140	-0.240	-0.070
2020/01/31 12:01:10.1	301.210	0.130	-0.240	-0.070
2020/01/31 12:01:10.2	301.190	0.120	-0.240	-0.060
2020/01/31 12:01:10.3	301.170	0.110	-0.240	-0.050
2020/01/31 12:01:10.4	301.150	0.090	-0.250	-0.040
2020/01/31 12:01:10.5	301.130	0.080	-0.250	-0.020
2020/01/31 12:01:10.6	301.100	0.070	-0.250	-0.010
2020/01/31 12:01:10.7	301.080	0.050	-0.250	0.010
2020/01/31 12:01:10.8	301.060	0.040	-0.250	0.030
2020/01/31 12:01:10.9	301.040	0.020	-0.250	0.040
2020/01/31 12:01:11.0	301.020	0.010	-0.260	0.060
2020/01/31 12:01:11.1	300.990	-0.010	-0.260	0.080
2020/01/31 12:01:11.2	300.970	-0.020	-0.260	0.100
2020/01/31 12:01:11.3	300.950	-0.040	-0.260	0.130
2020/01/31 12:01:11.4	300.930	-0.060	-0.260	0.150
2020/01/31 12:01:11.5	300.900	-0.070	-0.260	0.170
2020/01/31 12:01:11.6	300.880	-0.090	-0.260	0.200
2020/01/31 12:01:11.7	300.860	-0.110	-0.260	0.230
2020/01/31 12:01:11.8	300.840	-0.130	-0.260	0.250
2020/01/31 12:01:11.9	300.820	-0.140	-0.260	0.280
2020/01/31 12:01:12.0	300.810	-0.160	-0.270	0.310
2020/01/31 12:01:12.1	300.790	-0.180	-0.270	0.330
2020/01/31 12:01:12.2	300.780	-0.200	-0.270	0.360
2020/01/31 12:01:12.3	300.760	-0.210	-0.270	0.390
2020/01/31 12:01:12.4	300.750	-0.230	-0.280	0.420
2020/01/31 12:01:12.5	300.740	-0.250	-0.280	0.440
2020/01/31 12:01:12.6	300.720	-0.270	-0.290	0.470
2020/01/31 12:01:12.7	300.710	-0.280	-0.290	0.500
2020/01/31 12:01:12.8	300.700	-0.300	-0.300	0.520
2020/01/31 12:01:12.9	300.700	-0.310	-0.310	0.550
2020/01/31 12:01:13.0	300.700	-0.330	-0.320	0.570
2020/01/31 12:01:13.1	300.690	-0.340	-0.330	0.600
2020/01/31 12:01:13.2	300.700	-0.350	-0.340	0.620
2020/01/31 12:01:13.3	300.700	-0.360	-0.350	0.640
2020/01/31 12:01:13.4	300.700	-0.370	-0.360	0.660
2020/01/31 12:01:13.5	300.710	-0.380	-0.380	0.680
2020/01/31 12:01:13.6	300.730	-0.390	-0.390	0.700
2020/01/31 12:01:13.7	300.740	-0.390	-0.410	0.710
2020/01/31 12:01:13.8	300.760	-0.400	-0.420	0.720
2020/01/31 12:01:13.9	300.770	-0.400	-0.440	0.730
2020/01/31 12:01:14.0	300.780	-0.400	-0.460	0.740
2020/01/31 12:01:14.1	300.800	-0.400	-0.480	0.750
2020/01/31 12:01:14.2	300.810	-0.400	-0.500	0.760
2020/01/31 12:01:14.3	300.830	-0.400	-0.520	0.760
2020/01/31 12:01:14.4	300.850	-0.390	-0.540	0.760
2020/01/31 12:01:14.5	300.870	-0.390	-0.550	0.760
2020/01/31 12:01:14.6	300.880	-0.380	-0.570	0.760
2020/01/31 12:01:14.7	300.900	-0.370	-0.590	0.760
2020/01/31 12:01:14.8	300.920	-0.360	-0.610	0.750
2020/01/31 12:01:14.9	300.950	-0.350	-0.620	0.740
2020/01/31 12:01:15.0	300.970	-0.340	-0.630	0.730
2020/01/31 12:01:15.1	300.990	-0.330	-0.650	0.720
2020/01/31 12:01:15.2	301.010	-0.320	-0.660	0.710
2020/01/31 12:01:15.3	301.030	-0.310	-0.660	0.690
2020/01/31 12:01:15.4	301.050	-0.290	-0.670	0.680
2020/01/31 12:01:15.5	301.070	-0.280	-0.670	0.660
2020/01/31 12:01:15.6	301.090	-0.270	-0.670	0.640
2020/01/31 12:01:15.7	301.110	-0.250	-0.660	0.620
2020/01/31 12:01:15.8	301.120	-0.240	-0.660	0.610
2020/01/31 12:01:15.9	301.140	-0.230	-0.650	0.590
2020/01/31 12:01:16.0	301.160	-0.210	-0.640	0.570
2020/01/31 12:01:16.1	301.170	-0.200	-0.620	0.550
2020/01/31 12:01:16.2	301.190	-0.190	-0.600	0.540
2020/01/31 12:01:16.3	301.200	-0.180	-0.580	0.520
2020/01/31 12:01:16.4	301.210	-0.160	-0.560	0.510
2020/01/31 12:01:16.5	301.220	-0.150	-0.530	0.490
2020/01/31 12:01:16.6	301.220	-0.140	-0.510	0.480
2020/01/31 12:01:16.7	301.230	-0.130	-0.480	0.470
2020/01/31 12:01:16.8	301.240	-0.120	-0.450	0.460
2020/01/31 12:01:16.9	301.250	-0.120	-0.420	0.450
2020/01/31 12:01:17.0	301.250	-0.110	-0.380	0.440
2020/01/31 12:01:17.1	301.260	-0.100	-0.350	0.440
2020/01/31 12:01:17.2	301.260	-0.090	-0.320	0.430
2020/01/31 12:01:17.3	301.270	-0.090	-0.280	0.430
2020/01/31 12:01:17.4	301.270	-0.080	-0.250	0.430
2020/01/31 12:01:17.5	301.270	-0.080	-0.220	0.430
2020/01/31 12:01:17.6	301.270	-0.070	-0.190	0.430
2020/01/31 12:01:17.7	301.280	-0.070	-0.160	0.430
2020/01/31 12:01:17.8	301.280	-0.060	-0.130	0.440
2020/01/31 12:01:17.9	301.280	-0.060	-0.100	0.450
2020/01/31 12:01:18.0	301.280	-0.050	-0.070	0.450
2020/01/31 12:01:18.1	301.270	-0.050	-0.040	0.460
2020/01/31 12:01:18.2	301.270	-0.040	-0.020	0.480
2020/01/31 12:01:18.3	301.270	-0.040	0.000	0.490
2020/01/31 12:01:18.4	301.270	-0.030	0.020	0.500
2020/01/31 12:01:18.5	301.270	-0.030	0.040	0.510
2020/01/31 12:01:18.6	301.260	-0.020	0.050	0.530
2020/01/31 12:01:18.7	301.260	-0.020	0.070	0.540
2020/01/31 12:01:18.8	301.260	-0.010	0.080	0.560
2020/01/31 12:01:18.9	301.250	-0.000	0.090	0.570
2020/01/31 12:01:19.0	301.250	0.010	0.090	0.590
2020/01/31 12:01:19.1	301.240	0.020	0.100	0.610
2020/01/31 12:01:19.2	301.240	0.030	0.100	0.620
2020/01/31 12:01:19.3	301.230	0.040	0.100	0.640
2020/01/31 12:01:19.4	301.230	0.050	0.100	0.660
2020/01/31 12:01:19.5	301.220	0.060	0.100	0.680
2020/01/31 12:01:19.6	301.210	0.070	0.100	0.690
2020/01/31 12:01:19.7	301.200	0.090	0.100	0.710
2020/01/31 12:01:19.8	301.200	0.100	0.090	0.730
2020/01/31 12:01:19.9	301.190	0.110	0.080	0.750
2020/01/31 12:01:20.0	301.180	0.130	0.070	0.770
2020/01/31 12:01:20.1	301.180	0.140	0.060	0.790
2020/01/31 12:01:20.2	301.170	0.160	0.050	0.810
2020/01/31 12:01:20.3	301.170	0.170	0.040	0.820
2020/01/31 12:01:20.4	301.160	0.190	0.030	0.840
2020/01/31 12:01:20.5	301.160	0.210	0.020	0.860
2020/01/31 12:01:20.6	301.150	0.220	0.000	0.880
2020/01/31 12:01:20.7	301.150	0.240	-0.010	0.900
2020/01/31 12:01:20.8	301.140	0.250	-0.020	0.920
2020/01/31 12:01:20.9	301.140	0.270	-0.030	0.940
2020/01/31 12:01:21.0	301.130	0.280	-0.040	0.960
2020/01/31 12:01:21.1	301.130	0.300	-0.060	0.980
2020/01/31 12:01:21.2	301.120	0.310	-0.070	0.990
2020/01/31 12:01:21.3	301.120	0.320	-0.080	1.010
2020/01/31 12:01:21.4	301.110	0.340	-0.090	1.030
2020/01/31 12:01:21.5	301.100	0.350	-0.100	1.050
2020/01/31 12:01:21.6	301.100	0.360	-0.100	1.070
2020/01/31 12:01:21.7	301.100	0.370	-0.110	1.080
2020/01/31 12:01:21.8	301.090	0.370	-0.120	1.100
2020/01/31 12:01:21.9	301.080	0.380	-0.130	1.110
2020/01/31 12:01:22.0	301.070	0.380	-0.130	1.130
2020/01/31 12:01:22.1	301.060	0.390	-0.140	1.140
2020/01/31 12:01:22.2	301.050	0.390	-0.140	1.150
2020/01/31 12:01:22.3	301.040	0.390	-0.150	1.170
2020/01/31 12:01:22.4	301.040	0.390	-0.150	1.170
2020/01/31 12:01:22.5	301.020	0.390	-0.150	1.180
2020/01/31 12:01:22.6	301.020	0.380	-0.160	1.190
2020/01/31 12:01:22.7	301.010	0.380	-0.160	1.190
2020/01/31 12:01:22.8	301.000	0.370	-0.160	1.190
2020/01/31 12:01:22.9	301.000	0.370	-0.160	1.190
2020/01/31 12:01:23.0	300.990	0.360	-0.170	1.190
2020/01/31 12:01:23.1	300.980	0.350	-0.170	1.180
2020/01/31 12:01:23.2	300.980	0.340	-0.170	1.180
2020/01/31 12:01:23.3	300.980	0.330	-0.170	1.170
2020/01/31 12:01:23.4	300.970	0.320	-0.170	1.150
2020/01/31 12:01:23.5	300.970	0.310	-0.180	1.140
2020/01/31 12:01:23.6	300.960	0.300	-0.180	1.120
2020/01/31 12:01:23.7	300.960	0.290	-0.180	1.090
2020/01/31 12:01:23.8	300.960	0.280	-0.180	1.070
2020/01/31 12:01:23.9	300.960	0.260	-0.180	1.040
2020/01/31 12:01:24.0	300.970	0.250	-0.180	1.010
2020/01/31 12:01:24.1	300.970	0.240	-0.180	0.980
2020/01/31 12:01:24.2	300.970	0.230	-0.180	0.940
2020/01/31 12:01:24.3	300.970	0.220	-0.190	0.910
2020/01/31 12:01:24.4	300.970	0.210	-0.190	0.870
2020/01/31 12:01:24.5	300.980	0.200	-0.190	0.830
2020/01/31 12:01:24.6	300.990	0.180	-0.190	0.790
2020/01/31 12:01:24.7	301.000	0.170	-0.190	0.750
2020/01/31 12:01:24.8	301.000	0.160	-0.190	0.710
2020/01/31 12:01:24.9	301.000	0.150	-0.190	0.660
2020/01/31 12:01:25.0	301.000	0.140	-0.190	0.620
2020/01/31 12:01:25.1	301.000	0.130	-0.200	0.580
2020/01/31 12:01:25.2	301.000	0.120	-0.200	0.530
2020/01/31 12:01:25.3	301.000	0.110	-0.200	0.490
2020/01/31 12:01:25.4	300.990	0.100	-0.210	0.440
2020/01/31 12:01:25.5	300.990	0.090	-0.220	0.400
2020/01/31 12:01:25.6	300.980	0.080	-0.220	0.350
2020/01/31 12:01:25.7	300.980	0.070	-0.230	0.310
2020/01/31 12:01:25.8	300.980	0.060	-0.240	0.260
2020/01/31 12:01:25.9	300.970	0.050	-0.250	0.220
2020/01/31 12:01:26.0	300.970	0.040	-0.260	0.170
2020/01/31 12:01:26.1	300.970	0.030	-0.270	0.120
2020/01/31 12:01:26.2	300.960	0.020	-0.280	0.080
2020/01/31 12:01:26.3	300.960	0.010	-0.300	0.040
2020/01/31 12:01:26.4	300.960	-0.000	-0.310	-0.010
2020/01/31 12:01:26.5	300.960	-0.010	-0.330	-0.050
2020/01/31 12:01:26.6	300.950	-0.030	-0.350	-0.090
2020/01/31 12:01:26.7	300.940	-0.040	-0.370	-0.140
2020/01/31 12:01:26.8	300.940	-0.050	-0.390	-0.180
2020/01/31 12:01:26.9	300.940	-0.070	-0.410	-0.210
2020/01/31 12:01:27.0	300.940	-0.080	-0.430	-0.250
2020/01/31 12:01:27.1	300.940	-0.100	-0.450	-0.290
2020/01/31 12:01:27.2	300.950	-0.110	-0.470	-0.320
2020/01/31 12:01:27.3	300.950	-0.130	-0.490	-0.350
2020/01/31 12:01:27.4	300.950	-0.150	-0.510	-0.380
2020/01/31 12:01:27.5	300.960	-0.170	-0.530	-0.410
2020/01/31 12:01:27.6	300.960	-0.180	-0.550	-0.440
2020/01/31 12:01:27.7	300.970	-0.200	-0.570	-0.470
2020/01/31 12:01:27.8	300.980	-0.220	-0.590	-0.490
2020/01/31 12:01:27.9	300.990	-0.240	-0.610	-0.510
2020/01/31 12:01:28.0	300.990	-0.260	-0.620	-0.530
2020/01/31 12:01:28.1	301.000	-0.280	-0.640	-0.540
2020/01/31 12:01:28.2	301.010	-0.300	-0.650	-0.560
2020/01/31 12:01:28.3	301.030	-0.320	-0.660	-0.570
2020/01/31 12:01:28.4	301.040	-0.330	-0.670	-0.570
2020/01/31 12:01:28.5	301.050	-0.350	-0.680	-0.580
2020/01/31 12:01:28.6	301.070	-0.370	-0.680	-0.580
2020/01/31 12:01:28.7	301.090	-0.390	-0.690	-0.580
2020/01/31 12:01:28.8	301.100	-0.410	-0.690	-0.570
2020/01/31 12:01:28.9	301.110	-0.430	-0.680	-0.560
2020/01/31 12:01:29.0	301.130	-0.440	-0.680	-0.550
2020/01/31 12:01:29.1	301.140	-0.460	-0.670	-0.540
2020/01/31 12:01:29.2	301.150	-0.470	-0.660	-0.520
2020/01/31 12:01:29.3	301.170	-0.490	-0.650	-0.500
2020/01/31 12:01:29.4	301.180	-0.500	-0.630	-0.480
2020/01/31 12:01:29.5	301.200	-0.510	-0.610	-0.450
2020/01/31 12:01:29.6	301.210	-0.530	-0.590	-0.420
2020/01/31 12:01:29.7	301.220	-0.540	-0.570	-0.380
2020/01/31 12:01:29.8	301.230	-0.540	-0.550	-0.350
2020/01/31 12:01:29.9	301.230	-0.550	-0.520	-0.310
2020/01/31 12:01:30.0	301.240	-0.560	-0.490	-0.270
2020/01/31 12:01:30.1	301.250	-0.560	-0.460	-0.220
2020/01/31 12:01:30.2	301.250	-0.570	-0.430	-0.170
2020/01/31 12:01:30.3	301.260	-0.570	-0.400	-0.120
2020/01/31 12:01:30.4	301.260	-0.570	-0.370	-0.070
2020/01/31 12:01:30.5	301.260	-0.570	-0.340	-0.010
2020/01/31 12:01:30.6	301.260	-0.560	-0.310	0.050
2020/01/31 12:01:30.7	301.260	-0.560	-0.270	0.110
2020/01/31 12:01:30.8	301.250	-0.550	-0.240	0.170
2020/01/31 12:01:30.9	301.250	-0.540	-0.210	0.240
2020/01/31 12:01:31.0	301.240	-0.530	-0.180	0.300
2020/01/31 12:01:31.1	301.230	-0.520	-0.150	0.370
2020/01/31 12:01:31.2	301.220	-0.500	-0.120	0.440
2020/01/31 12:01:31.3	301.210	-0.480	-0.090	0.520
2020/01/31 12:01:31.4	301.200	-0.460	-0.070	0.590
2020/01/31 12:01:31.5	301.180	-0.440	-0.040	0.660
2020/01/31 12:01:31.6	301.170	-0.420	-0.020	0.740
2020/01/31 12:01:31.7	301.150	-0.390	-0.000	0.810
2020/01/31 12:01:31.8	301.140	-0.370	0.020	0.880
2020/01/31 12:01:31.9	301.120	-0.340	0.030	0.950
2020/01/31 12:01:32.0	301.100	-0.310	0.050	1.020
2020/01/31 12:01:32.1	301.080	-0.280	0.060	1.090
2020/01/31 12:01:32.2	301.060	-0.240	0.070	1.160
2020/01/31 12:01:32.3	301.040	-0.210	0.080	1.230
2020/01/31 12:01:32.4	301.010	-0.170	0.080	1.290
2020/01/31 12:01:32.5	300.990	-0.140	0.080	1.350
2020/01/31 12:01:32.6	300.960	-0.100	0.080	1.410
2020/01/31 12:01:32.7	300.940	-0.060	0.080	1.470
2020/01/31 12:01:32.8	300.910	-0.020	0.080	1.520
2020/01/31 12:01:32.9	300.890	0.020	0.080	1.570
2020/01/31 12:01:33.0	300.860	0.050	0.070	1.620
2020/01/31 12:01:33.1	300.840	0.090	0.070	1.670
2020/01/31 12:01:33.2	300.810	0.130	0.060	1.710
2020/01/31 12:01:33.3	300.780	0.160	0.050	1.740
2020/01/31 12:01:33.4	300.760	0.200	0.050	1.780
2020/01/31 12:01:33.5	300.730	0.230	0.040	1.810
2020/01/31 12:01:33.6	300.720	0.270	0.030	1.830
2020/01/31 12:01:33.7	300.690	0.300	0.020	1.850
2020/01/31 12:01:33.8	300.670	0.330	0.010	1.860
2020/01/31 12:01:33.9	300.650	0.360	0.000	1.870
2020/01/31 12:01:34.0	300.630	0.380	-0.010	1.870
2020/01/31 12:01:34.1	300.610	0.400	-0.020	1.870
2020/01/31 12:01:34.2	300.590	0.430	-0.030	1.860
2020/01/31 12:01:34.3	300.570	0.450	-0.040	1.850
2020/01/31 12:01:34.4	300.560	0.460	-0.050	1.840
2020/01/31 12:01:34.5	300.540	0.480	-0.060	1.820
2020/01/31 12:01:34.6	300.540	0.490	-0.070	1.790
2020/01/31 12:01:34.7	300.530	0.500	-0.080	1.760
2020/01/31 12:01:34.8	300.520	0.510	-0.080	1.730
2020/01/31 12:01:34.9	300.520	0.510	-0.090	1.700
2020/01/31 12:01:35.0	300.510	0.510	-0.100	1.660
2020/01/31 12:01:35.1	300.510	0.510	-0.110	1.610
2020/01/31 12:01:35.2	300.500	0.510	-0.120	1.570
2020/01/31 12:01:35.3	300.500	0.510	-0.120	1.520
2020/01/31 12:01:35.4	300.500	0.510	-0.130	1.470
2020/01/31 12:01:35.5	300.500	0.500	-0.130	1.420
2020/01/31 12:01:35.6	300.510	0.490	-0.140	1.360
2020/01/31 12:01:35.7	300.510	0.480	-0.150	1.300
2020/01/31 12:01:35.8	300.520	0.470	-0.150	1.250
2020/01/31 12:01:35.9	300.520	0.460	-0.160	1.190
2020/01/31 12:01:36.0	300.530	0.440	-0.160	1.130
2020/01/31 12:01:36.1	300.540	0.430	-0.170	1.070
2020/01/31 12:01:36.2	300.550	0.420	-0.170	1.010
2020/01/31 12:01:36.3	300.560	0.400	-0.180	0.950
2020/01/31 12:01:36.4	300.570	0.380	-0.180	0.890
2020/01/31 12:01:36.5	300.580	0.370	-0.190	0.830
2020/01/31 12:01:36.6	300.590	0.350	-0.200	0.770
2020/01/31 12:01:36.7	300.610	0.340	-0.200	0.710
2020/01/31 12:01:36.8	300.620	0.320	-0.210	0.650
2020/01/31 12:01:36.9	300.640	0.300	-0.220	0.590
2020/01/31 12:01:37.0	300.650	0.290	-0.230	0.530
2020/01/31 12:01:37.1	300.670	0.270	-0.240	0.480
2020/01/31 12:01:37.2	300.690	0.260	-0.250	0.420
2020/01/31 12:01:37.3	300.710	0.250	-0.270	0.360
2020/01/31 12:01:37.4	300.730	0.230	-0.280	0.310
2020/01/31 12:01:37.5	300.750	0.220	-0.300	0.260
2020/01/31 12:01:37.6	300.760	0.210	-0.320	0.200
2020/01/31 12:01:37.7	300.780	0.200	-0.330	0.150
2020/01/31 12:01:37.8	300.800	0.190	-0.350	0.110
2020/01/31 12:01:37.9	300.820	0.180	-0.370	0.060
2020/01/31 12:01:38.0	300.840	0.170	-0.390	0.020
2020/01/31 12:01:38.1	300.860	0.160	-0.410	-0.020
2020/01/31 12:01:38.2	300.880	0.160	-0.430	-0.050
2020/01/31 12:01:38.3	300.900	0.150	-0.440	-0.080
2020/01/31 12:01:38.4	300.920	0.140	-0.460	-0.110
2020/01/31 12:01:38.5	300.940	0.140	-0.480	-0.140
2020/01/31 12:01:38.6	300.960	0.130	-0.500	-0.160
2020/01/31 12:01:38.7	300.980	0.130	-0.510	-0.180
2020/01/31 12:01:38.8	301.000	0.120	-0.530	-0.190
2020/01/31 12:01:38.9	301.010	0.120	-0.540	-0.200
2020/01/31 12:01:39.0	301.030	0.110	-0.550	-0.210
2020/01/31 12:01:39.1	301.050	0.110	-0.560	-0.210
2020/01/31 12:01:39.2	301.060	0.100	-0.570	-0.220
2020/01/31 12:01:39.3	301.080	0.100	-0.580	-0.210
2020/01/31 12:01:39.4	301.090	0.090	-0.580	-0.210
2020/01/31 12:01:39.5	301.110	0.090	-0.590	-0.200
2020/01/31 12:01:39.6	301.120	0.080	-0.590	-0.190
2020/01/31 12:01:39.7	301.130	0.070	-0.590	-0.180
2020/01/31 12:01:39.8	301.140	0.070	-0.580	-0.160
2020/01/31 12:01:39.9	301.150	0.060	-0.580	-0.140
2020/01/31 12:01:40.0	301.160	0.050	-0.570	-0.130
2020/01/31 12:01:40.1	301.160	0.040	-0.560	-0.110
2020/01/31 12:01:40.2	301.170	0.030	-0.550	-0.080
2020/01/31 12:01:40.3	301.180	0.020	-0.540	-0.060
2020/01/31 12:01:40.4	301.180	0.010	-0.520	-0.040
2020/01/31 12:01:40.5	301.190	0.000	-0.500	-0.010
2020/01/31 12:01:40.6	301.170	-0.010	-0.480	0.010
2020/01/31 12:01:40.7	301.180	-0.020	-0.460	0.040
2020/01/31 12:01:40.8	301.180	-0.040	-0.440	0.060
2020/01/31 12:01:40.9	301.180	-0.050	-0.410	0.080
2020/01/31 12:01:41.0	301.170	-0.070	-0.390	0.110
2020/01/31 12:01:41.1	301.170	-0.090	-0.360	0.130
2020/01/31 12:01:41.2	301.160	-0.100	-0.330	0.160
2020/01/31 12:01:41.3	301.160	-0.120	-0.310	0.180
2020/01/31 12:01:41.4	301.150	-0.140	-0.280	0.210
2020/01/31 12:01:41.5	301.140	-0.160	-0.250	0.230
2020/01/31 12:01:41.6	301.130	-0.180	-0.220	0.250
2020/01/31 12:01:41.7	301.110	-0.200	-0.180	0.280
2020/01/31 12:01:41.8	301.100	-0.220	-0.150	0.300
2020/01/31 12:01:41.9	301.080	-0.250	-0.120	0.320
2020/01/31 12:01:42.0	301.070	-0.270	-0.090	0.340
2020/01/31 12:01:42.1	301.050	-0.290	-0.050	0.360
2020/01/31 12:01:42.2	301.030	-0.310	-0.020	0.380
2020/01/31 12:01:42.3	301.000	-0.340	0.010	0.400
2020/01/31 12:01:42.4	300.980	-0.360	0.040	0.420
2020/01/31 12:01:42.5	300.950	-0.380	0.070	0.440
2020/01/31 12:01:42.6	300.920	-0.400	0.100	0.460
2020/01/31 12:01:42.7	300.890	-0.430	0.130	0.480
2020/01/31 12:01:42.8	300.860	-0.450	0.150	0.500
2020/01/31 12:01:42.9	300.830	-0.470	0.180	0.520
2020/01/31 12:01:43.0	300.800	-0.480	0.200	0.540
2020/01/31 12:01:43.1	300.770	-0.500	0.220	0.550
2020/01/31 12:01:43.2	300.740	-0.520	0.230	0.570
2020/01/31 12:01:43.3	300.710	-0.530	0.250	0.590
2020/01/31 12:01:43.4	300.680	-0.540	0.260	0.600
2020/01/31 12:01:43.5	300.650	-0.550	0.260	0.620
2020/01/31 12:01:43.6	300.620	-0.560	0.270	0.630
2020/01/31 12:01:43.7	300.590	-0.570	0.270	0.650
2020/01/31 12:01:43.8	300.560	-0.570	0.260	0.660
2020/01/31 12:01:43.9	300.540	-0.570	0.260	0.670
2020/01/31 12:01:44.0	300.510	-0.570	0.250	0.680
2020/01/31 12:01:44.1	300.490	-0.570	0.240	0.690
2020/01/31 12:01:44.2	300.460	-0.560	0.220	0.700
2020/01/31 12:01:44.3	300.440	-0.550	0.200	0.710
2020/01/31 12:01:44.4	300.420	-0.540	0.170	0.720
2020/01/31 12:01:44.5	300.400	-0.530	0.150	0.720
2020/01/31 12:01:44.6	300.380	-0.510	0.120	0.730
2020/01/31 12:01:44.7	300.370	-0.490	0.080	0.730
2020/01/31 12:01:44.8	300.350	-0.470	0.050	0.730
2020/01/31 12:01:44.9	300.340	-0.450	0.010	0.730
2020/01/31 12:01:45.0	300.330	-0.430	-0.040	0.730
2020/01/31 12:01:45.1	300.330	-0.400	-0.080	0.730
2020/01/31 12:01:45.2	300.320	-0.370	-0.120	0.720
2020/01/31 12:01:45.3	300.320	-0.340	-0.170	0.720
2020/01/31 12:01:45.4	300.320	-0.310	-0.220	0.720
2020/01/31 12:01:45.5	300.310	-0.280	-0.270	0.710
2020/01/31 12:01:45.6	300.320	-0.240	-0.320	0.710
2020/01/31 12:01:45.7	300.320	-0.210	-0.360	0.700
2020/01/31 12:01:45.8	300.330	-0.170	-0.410	0.700
2020/01/31 12:01:45.9	300.330	-0.140	-0.460	0.690
2020/01/31 12:01:46.0	300.330	-0.100	-0.500	0.690
2020/01/31 12:01:46.1	300.340	-0.070	-0.540	0.690
2020/01/31 12:01:46.2	300.340	-0.030	-0.580	0.680
2020/01/31 12:01:46.3	300.350	0.010	-0.620	0.680
2020/01/31 12:01:46.4	300.350	0.040	-0.660	0.680
2020/01/31 12:01:46.5	300.360	0.080	-0.690	0.680
2020/01/31 12:01:46.6	300.370	0.110	-0.720	0.680
2020/01/31 12:01:46.7	300.380	0.140	-0.750	0.680
2020/01/31 12:01:46.8	300.390	0.170	-0.770	0.680
2020/01/31 12:01:46.9	300.400	0.200	-0.790	0.680
2020/01/31 12:01:47.0	300.410	0.230	-0.810	0.680
2020/01/31 12:01:47.1	300.430	0.260	-0.820	0.680
2020/01/31 12:01:47.2	300.440	0.280	-0.830	0.680
2020/01/31 12:01:47.3	300.450	0.310	-0.840	0.680
2020/01/31 12:01:47.4	300.470	0.330	-0.840	0.680
2020/01/31 12:01:47.5	300.490	0.350	-0.850	0.680
2020/01/31 12:01:47.6	300.490	0.370	-0.840	0.680
2020/01/31 12:01:47.7	300.510	0.380	-0.840	0.680
2020/01/31 12:01:47.8	300.520	0.390	-0.830	0.680
2020/01/31 12:01:47.9	300.540	0.400	-0.820	0.680
2020/01/31 12:01:48.0	300.560	0.410	-0.810	0.690
2020/01/31 12:01:48.1	300.570	0.420	-0.790	0.690
2020/01/31 12:01:48.2	300.590	0.420	-0.770	0.690
2020/01/31 12:01:48.3	300.610	0.430	-0.750	0.690
2020/01/31 12:01:48.4	300.630	0.430	-0.730	0.700
2020/01/31 12:01:48.5	300.640	0.430	-0.710	0.700
2020/01/31 12:01:48.6	300.650	0.420	-0.680	0.710
2020/01/31 12:01:48.7	300.670	0.420	-0.650	0.710
2020/01/31 12:01:48.8	300.680	0.410	-0.630	0.720
2020/01/31 12:01:48.9	300.690	0.410	-0.590	0.720
2020/01/31 12:01:49.0	300.710	0.400	-0.560	0.720
2020/01/31 12:01:49.1	300.720	0.390	-0.530	0.730
2020/01/31 12:01:49.2	300.730	0.380	-0.500	0.730
2020/01/31 12:01:49.3	300.740	0.360	-0.460	0.740
2020/01/31 12:01:49.4	300.750	0.350	-0.430	0.740
2020/01/31 12:01:49.5	300.760	0.340	-0.390	0.740
2020/01/31 12:01:49.6	300.770	0.330	-0.350	0.750
2020/01/31 12:01:49.7	300.780	0.310	-0.320	0.750
2020/01/31 12:01:49.8	300.790	0.300	-0.280	0.760
2020/01/31 12:01:49.9	300.800	0.280	-0.240	0.760
2020/01/31 12:01:50.0	300.800	0.270	-0.200	0.760
2020/01/31 12:01:50.1	300.810	0.260	-0.170	0.770
2020/01/31 12:01:50.2	300.810	0.240	-0.130	0.770
2020/01/31 12:01:50.3	300.820	0.230	-0.090	0.770
2020/01/31 12:01:50.4	300.820	0.220	-0.060	0.770
2020/01/31 12:01:50.5	300.830	0.200	-0.020	0.780
2020/01/31 12:01:50.6	300.830	0.190	0.010	0.780
2020/01/31 12:01:50.7	300.830	0.180	0.050	0.780
2020/01/31 12:01:50.8	300.840	0.170	0.080	0.780
2020/01/31 12:01:50.9	300.840	0.160	0.110	0.770
2020/01/31 12:01:51.0	300.840	0.140	0.140	0.770
2020/01/31 12:01:51.1	300.840	0.130	0.170	0.770
2020/01/31 12:01:51.2	300.840	0.120	0.200	0.760
2020/01/31 12:01:51.3	300.840	0.110	0.220	0.760
2020/01/31 12:01:51.4	300.840	0.100	0.240	0.750
2020/01/31 12:01:51.5	300.840	0.090	0.270	0.740
2020/01/31 12:01:51.6	300.840	0.080	0.280	0.740
2020/01/31 12:01:51.7	300.840	0.070	0.300	0.730
2020/01/31 12:01:51.8	300.830	0.060	0.320	0.720
2020/01/31 12:01:51.9	300.830	0.050	0.330	0.710
2020/01/31 12:01:52.0	300.830	0.040	0.340	0.700
2020/01/31 12:01:52.1	300.820	0.030	0.350	0.690
2020/01/31 12:01:52.2	300.820	0.020	0.360	0.680
2020/01/31 12:01:52.3	300.810	0.010	0.370	0.670
2020/01/31 12:01:52.4	300.800	0.000	0.370	0.650
2020/01/31 12:01:52.5	300.790	-0.010	0.370	0.640
2020/01/31 12:01:52.6	300.790	-0.020	0.370	0.630
2020/01/31 12:01:52.7	300.780	-0.030	0.370	0.620
2020/01/31 12:01:52.8	300.760	-0.040	0.370	0.610
2020/01/31 12:01:52.9	300.750	-0.050	0.360	0.600
2020/01/31 12:01:53.0	300.740	-0.060	0.350	0.580
2020/01/31 12:01:53.1	300.730	-0.070	0.340	0.570
2020/01/31 12:01:53.2	300.710	-0.080	0.330	0.560
2020/01/31 12:01:53.3	300.700	-0.080	0.320	0.550
2020/01/31 12:01:53.4	300.680	-0.090	0.310	0.530
2020/01/31 12:01:53.5	300.670	-0.100	0.290	0.520
2020/01/31 12:01:53.6	300.660	-0.110	0.270	0.500
2020/01/31 12:01:53.7	300.640	-0.120	0.250	0.490
2020/01/31 12:01:53.8	300.620	-0.130	0.220	0.470
2020/01/31 12:01:53.9	300.610	-0.130	0.200	0.450
2020/01/31 12:01:54.0	300.590	-0.140	0.170	0.440
2020/01/31 12:01:54.1	300.580	-0.150	0.140	0.420
2020/01/31 12:01:54.2	300.560	-0.150	0.110	0.400
2020/01/31 12:01:54.3	300.550	-0.160	0.080	0.380
2020/01/31 12:01:54.4	300.540	-0.160	0.040	0.360
2020/01/31 12:01:54.5	300.530	-0.170	0.000	0.340
2020/01/31 12:01:54.6	300.520	-0.170	-0.030	0.320
2020/01/31 12:01:54.7	300.510	-0.170	-0.070	0.300
2020/01/31 12:01:54.8	300.500	-0.180	-0.110	0.280
2020/01/31 12:01:54.9	300.490	-0.180	-0.150	0.260
2020/01/31 12:01:55.0	300.490	-0.180	-0.190	0.240
2020/01/31 12:01:55.1	300.480	-0.190	-0.240	0.220
2020/01/31 12:01:55.2	300.470	-0.190	-0.280	0.200
2020/01/31 12:01:55.3	300.470	-0.190	-0.320	0.180
2020/01/31 12:01:55.4	300.460	-0.190	-0.360	0.170
2020/01/31 12:01:55.5	300.460	-0.190	-0.400	0.150
2020/01/31 12:01:55.6	300.450	-0.200	-0.440	0.140
2020/01/31 12:01:55.7	300.440	-0.200	-0.480	0.130
2020/01/31 12:01:55.8	300.440	-0.200	-0.520	0.120
2020/01/31 12:01:55.9	300.440	-0.200	-0.550	0.110
2020/01/31 12:01:56.0	300.430	-0.200	-0.580	0.100
2020/01/31 12:01:56.1	300.430	-0.200	-0.620	0.100
2020/01/31 12:01:56.2	300.420	-0.200	-0.650	0.090
2020/01/31 12:01:56.3	300.420	-0.200	-0.670	0.090
2020/01/31 12:01:56.4	300.410	-0.200	-0.700	0.090
2020/01/31 12:01:56.5	300.410	-0.200	-0.720	0.090
2020/01/31 12:01:56.6	300.400	-0.200	-0.740	0.090
2020/01/31 12:01:56.7	300.400	-0.200	-0.760	0.090
2020/01/31 12:01:56.8	300.390	-0.200	-0.780	0.100
2020/01/31 12:01:56.9	300.390	-0.200	-0.800	0.100
2020/01/31 12:01:57.0	300.380	-0.200	-0.810	0.110
2020/01/31 12:01:57.1	300.380	-0.200	-0.820	0.120
2020/01/31 12:01:57.2	300.380	-0.190	-0.830	0.120
2020/01/31 12:01:57.3	300.380	-0.190	-0.840	0.130
2020/01/31 12:01:57.4	300.370	-0.180	-0.840	0.140
2020/01/31 12:01:57.5	300.370	-0.180	-0.850	0.150
2020/01/31 12:01:57.6	300.370	-0.170	-0.850	0.160
2020/01/31 12:01:57.7	300.370	-0.170	-0.850	0.170
2020/01/31 12:01:57.8	300.370	-0.160	-0.850	0.190
2020/01/31 12:01:57.9	300.370	-0.150	-0.850	0.200
2020/01/31 12:01:58.0	300.370	-0.140	-0.850	0.210
2020/01/31 12:01:58.1	300.370	-0.130	-0.840	0.230
2020/01/31 12:01:58.2	300.370	-0.120	-0.840	0.250
2020/01/31 12:01:58.3	300.370	-0.110	-0.830	0.270
2020/01/31 12:01:58.4	300.370	-0.100	-0.820	0.290
2020/01/31 12:01:58.5	300.370	-0.080	-0.810	0.310
2020/01/31 12:01:58.6	300.380	-0.070	-0.790	0.330
2020/01/31 12:01:58.7	300.380	-0.060	-0.780	0.360
2020/01/31 12:01:58.8	300.390	-0.040	-0.760	0.380
2020/01/31 12:01:58.9	300.390	-0.030	-0.750	0.410
2020/01/31 12:01:59.0	300.390	-0.010	-0.730	0.440
2020/01/31 12:01:59.1	300.390	0.000	-0.710	0.460
2020/01/31 12:01:59.2	300.390	0.020	-0.690	0.490
2020/01/31 12:01:59.3	300.400	0.030	-0.670	0.520
2020/01/31 12:01:59.4	300.400	0.050	-0.640	0.540
2020/01/31 12:01:59.5	300.410	0.060	-0.620	0.570
2020/01/31 12:01:59.6	300.430	0.080	-0.590	0.600
2020/01/31 12:01:59.7	300.430	0.090	-0.560	0.630
2020/01/31 12:01:59.8	300.440	0.110	-0.530	0.660
2020/01/31 12:01:59.9	300.450	0.120	-0.510	0.680
2020/01/31 12:02:00.0	300.450	0.140	-0.470	0.710
2020/01/31 12:02:00.1	300.460	0.150	-0.440	0.730
2020/01/31 12:02:00.2	300.470	0.160	-0.410	0.750
2020/01/31 12:02:00.3	300.480	0.170	-0.370	0.780
2020/01/31 12:02:00.4	300.500	0.180	-0.340	0.800
2020/01/31 12:02:00.5	300.520	0.190	-0.300	0.820
2020/01/31 12:02:00.6	300.530	0.200	-0.270	0.840
2020/01/31 12:02:00.7	300.550	0.210	-0.230	0.860
2020/01/31 12:02:00.8	300.560	0.220	-0.190	0.880
2020/01/31 12:02:00.9	300.580	0.220	-0.160	0.900
2020/01/31 12:02:01.0	300.600	0.230	-0.120	0.920
2020/01/31 12:02:01.1	300.620	0.230	-0.090	0.940
2020/01/31 12:02:01.2	300.640	0.230	-0.050	0.960
2020/01/31 12:02:01.3	300.660	0.230	-0.020	0.980
2020/01/31 12:02:01.4	300.680	0.230	0.020	0.990
2020/01/31 12:02:01.5	300.700	0.230	0.050	1.010
2020/01/31 12:02:01.6	300.730	0.230	0.080	1.020
2020/01/31 12:02:01.7	300.750	0.220	0.110	1.040
2020/01/31 12:02:01.8	300.780	0.220	0.130	1.050
2020/01/31 12:02:01.9	300.800	0.210	0.160	1.060
2020/01/31 12:02:02.0	300.830	0.200	0.180	1.070
2020/01/31 12:02:02.1	300.850	0.200	0.200	1.080
2020/01/31 12:02:02.2	300.880	0.190	0.220	1.090
2020/01/31 12:02:02.3	300.900	0.180	0.240	1.100
2020/01/31 12:02:02.4	300.930	0.170	0.250	1.100
2020/01/31 12:02:02.5	300.950	0.160	0.270	1.110
2020/01/31 12:02:02.6	300.970	0.140	0.280	1.100
2020/01/31 12:02:02.7	300.990	0.130	0.290	1.110
2020/01/31 12:02:02.8	301.010	0.120	0.300	1.110
2020/01/31 12:02:02.9	301.030	0.110	0.310	1.110
2020/01/31 12:02:03.0	301.050	0.090	0.320	1.110
2020/01/31 12:02:03.1	301.060	0.080	0.320	1.100
2020/01/31 12:02:03.2	301.070	0.060	0.330	1.100
2020/01/31 12:02:03.3	301.080	0.050	0.330	1.100
2020/01/31 12:02:03.4	301.090	0.040	0.330	1.090
2020/01/31 12:02:03.5	301.100	0.020	0.340	1.090
2020/01/31 12:02:03.6	301.110	0.010	0.340	1.080
2020/01/31 12:02:03.7	301.110	-0.010	0.340	1.080
2020/01/31 12:02:03.8	301.100	-0.020	0.340	1.070
2020/01/31 12:02:03.9	301.100	-0.030	0.340	1.070
2020/01/31 12:02:04.0	301.090	-0.050	0.340	1.060
2020/01/31 12:02:04.1	301.070	-0.060	0.340	1.060
2020/01/31 12:02:04.2	301.060	-0.070	0.340	1.060
2020/01/31 12:02:04.3	301.040	-0.080	0.340	1.050
2020/01/31 12:02:04.4	301.010	-0.090	0.340	1.050
2020/01/31 12:02:04.5	300.990	-0.110	0.330	1.040
2020/01/31 12:02:04.6	300.950	-0.120	0.330	1.040
2020/01/31 12:02:04.7	300.920	-0.130	0.320	1.040
2020/01/31 12:02:04.8	300.880	-0.130	0.310	1.030
2020/01/31 12:02:04.9	300.850	-0.140	0.300	1.030
2020/01/31 12:02:05.0	300.810	-0.150	0.290	1.020
2020/01/31 12:02:05.1	300.770	-0.160	0.280	1.020
2020/01/31 12:02:05.2	300.730	-0.160	0.260	1.010
2020/01/31 12:02:05.3	300.690	-0.170	0.240	1.000
2020/01/31 12:02:05.4	300.640	-0.170	0.220	0.990
2020/01/31 12:02:05.5	300.600	-0.180	0.200	0.970
2020/01/31 12:02:05.6	300.560	-0.180	0.160	0.950
2020/01/31 12:02:05.7	300.520	-0.180	0.130	0.940
2020/01/31 12:02:05.8	300.480	-0.180	0.100	0.910
2020/01/31 12:02:05.9	300.430	-0.180	0.060	0.890
2020/01/31 12:02:06.0	300.390	-0.180	0.020	0.860
2020/01/31 12:02:06.1	300.350	-0.170	-0.020	0.830
2020/01/31 12:02:06.2	300.320	-0.170	-0.070	0.800
2020/01/31 12:02:06.3	300.280	-0.160	-0.120	0.760
2020/01/31 12:02:06.4	300.240	-0.160	-0.170	0.720
2020/01/31 12:02:06.5	300.210	-0.150	-0.230	0.680
2020/01/31 12:02:06.6	300.180	-0.140	-0.280	0.630
2020/01/31 12:02:06.7	300.150	-0.130	-0.340	0.590
2020/01/31 12:02:06.8	300.120	-0.120	-0.400	0.540
2020/01/31 12:02:06.9	300.100	-0.110	-0.460	0.490
2020/01/31 12:02:07.0	300.080	-0.090	-0.520	0.440
2020/01/31 12:02:07.1	300.060	-0.080	-0.580	0.390
2020/01/31 12:02:07.2	300.040	-0.060	-0.640	0.340
2020/01/31 12:02:07.3	300.020	-0.050	-0.700	0.280
2020/01/31 12:02:07.4	300.010	-0.030	-0.760	0.230
2020/01/31 12:02:07.5	300.000	-0.010	-0.820	0.170
2020/01/31 12:02:07.6	299.990	0.000	-0.880	0.120
2020/01/31 12:02:07.7	299.980	0.020	-0.930	0.070
2020/01/31 12:02:07.8	299.980	0.040	-0.980	0.010
2020/01/31 12:02:07.9	299.970	0.060	-1.030	-0.040
2020/01/31 12:02:08.0	299.970	0.080	-1.080	-0.090
2020/01/31 12:02:08.1	299.970	0.090	-1.120	-0.130
2020/01/31 12:02:08.2	299.980	0.110	-1.160	-0.180
2020/01/31 12:02:08.3	299.980	0.130	-1.190	-0.220
2020/01/31 12:02:08.4	299.990	0.140	-1.220	-0.260
2020/01/31 12:02:08.5	299.990	0.160	-1.240	-0.300
2020/01/31 12:02:08.6	300.000	0.180	-1.260	-0.340
2020/01/31 12:02:08.7	300.010	0.190	-1.270	-0.370
2020/01/31 12:02:08.8	300.020	0.200	-1.280	-0.400
2020/01/31 12:02:08.9	300.030	0.210	-1.280	-0.430
2020/01/31 12:02:09.0	300.050	0.220	-1.270	-0.450
2020/01/31 12:02:09.1	300.070	0.230	-1.260	-0.480
2020/01/31 12:02:09.2	300.090	0.240	-1.250	-0.490
2020/01/31 12:02:09.3	300.110	0.250	-1.230	-0.510
2020/01/31 12:02:09.4	300.130	0.250	-1.200	-0.520
2020/01/31 12:02:09.5	300.160	0.260	-1.170	-0.530
2020/01/31 12:02:09.6	300.210	0.260	-1.130	-0.530
2020/01/31 12:02:09.7	300.240	0.260	-1.090	-0.540
2020/01/31 12:02:09.8	300.270	0.260	-1.050	-0.530
2020/01/31 12:02:09.9	300.300	0.250	-1.000	-0.530
2020/01/31 12:02:10.0	300.340	0.250	-0.950	-0.520
2020/01/31 12:02:10.1	300.380	0.240	-0.900	-0.510
2020/01/31 12:02:10.2	300.420	0.240	-0.840	-0.500
2020/01/31 12:02:10.3	300.460	0.230	-0.780	-0.480
2020/01/31 12:02:10.4	300.500	0.220	-0.720	-0.460
2020/01/31 12:02:10.5	300.550	0.210	-0.650	-0.440
2020/01/31 12:02:10.6	300.610	0.190	-0.590	-0.410
2020/01/31 12:02:10.7	300.660	0.180	-0.530	-0.380
2020/01/31 12:02:10.8	300.700	0.160	-0.460	-0.350
2020/01/31 12:02:10.9	300.750	0.150	-0.390	-0.310
2020/01/31 12:02:11.0	300.800	0.130	-0.330	-0.270
2020/01/31 12:02:11.1	300.840	0.110	-0.260	-0.230
2020/01/31 12:02:11.2	300.890	0.090	-0.190	-0.180
2020/01/31 12:02:11.3	300.930	0.070	-0.130	-0.130
2020/01/31 12:02:11.4	300.970	0.050	-0.060	-0.080
2020/01/31 12:02:11.5	301.010	0.030	0.000	-0.020
2020/01/31 12:02:11.6	301.050	0.010	0.070	0.040
2020/01/31 12:02:11.7	301.080	-0.010	0.130	0.100
2020/01/31 12:02:11.8	301.120	-0.030	0.190	0.160
2020/01/31 12:02:11.9	301.150	-0.050	0.240	0.220
2020/01/31 12:02:12.0	301.180	-0.070	0.300	0.280
2020/01/31 12:02:12.1	301.210	-0.090	0.350	0.350
2020/01/31 12:02:12.2	301.230	-0.110	0.390	0.410
2020/01/31 12:02:12.3	301.250	-0.130	0.440	0.480
2020/01/31 12:02:12.4	301.270	-0.150	0.480	0.540
2020/01/31 12:02:12.5	301.290	-0.170	0.510	0.600
2020/01/31 12:02:12.6	301.300	-0.190	0.550	0.670
2020/01/31 12:02:12.7	301.310	-0.200	0.580	0.730
2020/01/31 12:02:12.8	301.320	-0.220	0.600	0.790
2020/01/31 12:02:12.9	301.320	-0.230	0.620	0.850
2020/01/31 12:02:13.0	301.320	-0.240	0.630	0.910
2020/01/31 12:02:13.1	301.310	-0.250	0.640	0.970
2020/01/31 12:02:13.2	301.310	-0.260	0.650	1.020
2020/01/31 12:02:13.3	301.300	-0.270	0.650	1.070
2020/01/31 12:02:13.4	301.280	-0.280	0.650	1.120
2020/01/31 12:02:13.5	301.270	-0.290	0.640	1.170
2020/01/31 12:02:13.6	301.240	-0.290	0.630	1.220
2020/01/31 12:02:13.7	301.220	-0.290	0.620	1.260
2020/01/31 12:02:13.8	301.190	-0.300	0.600	1.300
2020/01/31 12:02:13.9	301.160	-0.300	0.580	1.330
2020/01/31 12:02:14.0	301.130	-0.300	0.560	1.360
2020/01/31 12:02:14.1	301.100	-0.290	0.530	1.390
2020/01/31 12:02:14.2	301.070	-0.290	0.500	1.420
2020/01/31 12:02:14.3	301.030	-0.290	0.470	1.440
2020/01/31 12:02:14.4	300.990	-0.280	0.430	1.460
2020/01/31 12:02:14.5	300.950	-0.280	0.390	1.470
2020/01/31 12:02:14.6	300.910	-0.270	0.360	1.480
2020/01/31 12:02:14.7	300.870	-0.260	0.310	1.480
2020/01/31 12:02:14.8	300.830	-0.260	0.270	1.480
2020/01/31 12:02:14.9	300.780	-0.250	0.220	1.480
2020/01/31 12:02:15.0	300.740	-0.240	0.180	1.470
2020/01/31 12:02:15.1	300.700	-0.230	0.130	1.460
2020/01/31 12:02:15.2	300.660	-0.220	0.080	1.450
2020/01/31 12:02:15.3	300.620	-0.210	0.040	1.440
2020/01/31 12:02:15.4	300.580	-0.200	-0.010	1.420
2020/01/31 12:02:15.5	300.540	-0.180	-0.060	1.400
2020/01/31 12:02:15.6	300.510	-0.170	-0.110	1.370
2020/01/31 12:02:15.7	300.470	-0.160	-0.150	1.350
2020/01/31 12:02:15.8	300.430	-0.150	-0.200	1.320
2020/01/31 12:02:15.9	300.390	-0.130	-0.240	1.290
2020/01/31 12:02:16.0	300.360	-0.120	-0.280	1.260
2020/01/31 12:02:16.1	300.320	-0.110	-0.320	1.230
2020/01/31 12:02:16.2	300.290	-0.100	-0.360	1.190
2020/01/31 12:02:16.3	300.250	-0.080	-0.390	1.160
2020/01/31 12:02:16.4	300.220	-0.070	-0.430	1.120
2020/01/31 12:02:16.5	300.190	-0.060	-0.460	1.090
2020/01/31 12:02:16.6	300.180	-0.040	-0.490	1.050
2020/01/31 12:02:16.7	300.150	-0.030	-0.510	1.020
2020/01/31 12:02:16.8	300.130	-0.010	-0.530	0.980
2020/01/31 12:02:16.9	300.100	-0.000	-0.550	0.940
2020/01/31 12:02:17.0	300.080	0.010	-0.560	0.910
2020/01/31 12:02:17.1	300.060	0.030	-0.580	0.870
2020/01/31 12:02:17.2	300.040	0.040	-0.590	0.830
2020/01/31 12:02:17.3	300.020	0.050	-0.590	0.800
2020/01/31 12:02:17.4	300.010	0.070	-0.600	0.770
2020/01/31 12:02:17.5	299.990	0.080	-0.600	0.730
2020/01/31 12:02:17.6	299.980	0.100	-0.600	0.700
2020/01/31 12:02:17.7	299.970	0.110	-0.600	0.670
2020/01/31 12:02:17.8	299.960	0.120	-0.600	0.650
2020/01/31 12:02:17.9	299.950	0.140	-0.600	0.620
2020/01/31 12:02:18.0	299.950	0.150	-0.590	0.600
2020/01/31 12:02:18.1	299.940	0.160	-0.580	0.570
2020/01/31 12:02:18.2	299.940	0.170	-0.580	0.550
2020/01/31 12:02:18.3	299.940	0.190	-0.570	0.530
2020/01/31 12:02:18.4	299.940	0.200	-0.560	0.520
2020/01/31 12:02:18.5	299.940	0.210	-0.550	0.500
2020/01/31 12:02:18.6	299.930	0.220	-0.540	0.490
2020/01/31 12:02:18.7	299.930	0.230	-0.530	0.480
2020/01/31 12:02:18.8	299.940	0.240	-0.520	0.470
2020/01/31 12:02:18.9	299.940	0.250	-0.510	0.460
2020/01/31 12:02:19.0	299.950	0.260	-0.500	0.460
2020/01/31 12:02:19.1	299.960	0.270	-0.490	0.450
2020/01/31 12:02:19.2	299.970	0.280	-0.480	0.450
2020/01/31 12:02:19.3	299.980	0.280	-0.480	0.450
2020/01/31 12:02:19.4	299.990	0.290	-0.470	0.450
2020/01/31 12:02:19.5	300.000	0.300	-0.460	0.450
2020/01/31 12:02:19.6	300.010	0.300	-0.450	0.450
2020/01/31 12:02:19.7	300.020	0.300	-0.450	0.460
2020/01/31 12:02:19.8	300.040	0.310	-0.440	0.460
2020/01/31 12:02:19.9	300.050	0.310	-0.440	0.460
2020/01/31 12:02:20.0	300.070	0.310	-0.440	0.470
2020/01/31 12:02:20.1	300.080	0.310	-0.440	0.470
2020/01/31 12:02:20.2	300.100	0.310	-0.440	0.480
2020/01/31 12:02:20.3	300.110	0.310	-0.440	0.490
2020/01/31 12:02:20.4	300.130	0.310	-0.440	0.490
2020/01/31 12:02:20.5	300.150	0.310	-0.440	0.500
2020/01/31 12:02:20.6	300.170	0.300	-0.440	0.510
2020/01/31 12:02:20.7	300.190	0.300	-0.440	0.520
2020/01/31 12:02:20.8	300.200	0.290	-0.440	0.530
2020/01/31 12:02:20.9	300.220	0.290	-0.440	0.540
2020/01/31 12:02:21.0	300.240	0.280	-0.440	0.550
2020/01/31 12:02:21.1	300.260	0.270	-0.440	0.560
2020/01/31 12:02:21.2	300.280	0.260	-0.440	0.580
2020/01/31 12:02:21.3	300.300	0.250	-0.440	0.590
2020/01/31 12:02:21.4	300.320	0.240	-0.440	0.600
2020/01/31 12:02:21.5	300.340	0.230	-0.440	0.620
2020/01/31 12:02:21.6	300.360	0.220	-0.440	0.630
2020/01/31 12:02:21.7	300.380	0.210	-0.440	0.640
2020/01/31 12:02:21.8	300.400	0.200	-0.430	0.660
2020/01/31 12:02:21.9	300.420	0.190	-0.430	0.670
2020/01/31 12:02:22.0	300.440	0.180	-0.430	0.680
2020/01/31 12:02:22.1	300.460	0.160	-0.430	0.700
2020/01/31 12:02:22.2	300.480	0.150	-0.430	0.710
2020/01/31 12:02:22.3	300.500	0.140	-0.430	0.720
2020/01/31 12:02:22.4	300.530	0.130	-0.430	0.730
2020/01/31 12:02:22.5	300.550	0.110	-0.430	0.730
2020/01/31 12:02:22.6	300.560	0.100	-0.430	0.740
2020/01/31 12:02:22.7	300.580	0.090	-0.430	0.740
2020/01/31 12:02:22.8	300.600	0.080	-0.430	0.750
2020/01/31 12:02:22.9	300.620	0.060	-0.420	0.750
2020/01/31 12:02:23.0	300.640	0.050	-0.420	0.750
2020/01/31 12:02:23.1	300.660	0.040	-0.420	0.750
2020/01/31 12:02:23.2	300.680	0.030	-0.420	0.750
2020/01/31 12:02:23.3	300.700	0.010	-0.420	0.740
2020/01/31 12:02:23.4	300.720	0.000	-0.410	0.740
2020/01/31 12:02:23.5	300.740	-0.010	-0.410	0.730
2020/01/31 12:02:23.6	300.740	-0.020	-0.400	0.730
2020/01/31 12:02:23.7	300.750	-0.040	-0.390	0.720
2020/01/31 12:02:23.8	300.770	-0.050	-0.380	0.710
2020/01/31 12:02:23.9	300.780	-0.060	-0.370	0.700
2020/01/31 12:02:24.0	300.790	-0.080	-0.360	0.680
2020/01/31 12:02:24.1	300.800	-0.090	-0.350	0.670
2020/01/31 12:02:24.2	300.810	-0.110	-0.330	0.660
2020/01/31 12:02:24.3	300.820	-0.120	-0.320	0.640
2020/01/31 12:02:24.4	300.830	-0.130	-0.300	0.620
2020/01/31 12:02:24.5	300.850	-0.150	-0.280	0.600
2020/01/31 12:02:24.6	300.850	-0.160	-0.260	0.580
2020/01/31 12:02:24.7	300.860	-0.180	-0.240	0.560
2020/01/31 12:02:24.8	300.870	-0.200	-0.220	0.540
2020/01/31 12:02:24.9	300.870	-0.210	-0.200	0.510
2020/01/31 12:02:25.0	300.880	-0.230	-0.180	0.490
2020/01/31 12:02:25.1	300.880	-0.240	-0.160	0.460
2020/01/31 12:02:25.2	300.890	-0.260	-0.140	0.440
2020/01/31 12:02:25.3	300.890	-0.270	-0.120	0.410
2020/01/31 12:02:25.4	300.900	-0.280	-0.110	0.390
2020/01/31 12:02:25.5	300.900	-0.300	-0.090	0.360
2020/01/31 12:02:25.6	300.900	-0.310	-0.070	0.340
2020/01/31 12:02:25.7	300.900	-0.320	-0.050	0.310
2020/01/31 12:02:25.8	300.900	-0.330	-0.030	0.290
2020/01/31 12:02:25.9	300.900	-0.340	-0.020	0.270
2020/01/31 12:02:26.0	300.900	-0.350	-0.000	0.250
2020/01/31 12:02:26.1	300.900	-0.350	0.010	0.230
2020/01/31 12:02:26.2	300.900	-0.360	0.030	0.210
2020/01/31 12:02:26.3	300.900	-0.360	0.040	0.190
2020/01/31 12:02:26.4	300.890	-0.360	0.050	0.180
2020/01/31 12:02:26.5	300.890	-0.360	0.070	0.170
2020/01/31 12:02:26.6	300.860	-0.360	0.070	0.170
2020/01/31 12:02:26.7	300.850	-0.360	0.080	0.160
2020/01/31 12:02:26.8	300.840	-0.360	0.090	0.160
2020/01/31 12:02:26.9	300.830	-0.350	0.100	0.160
2020/01/31 12:02:27.0	300.820	-0.340	0.110	0.160
2020/01/31 12:02:27.1	300.810	-0.330	0.110	0.170
2020/01/31 12:02:27.2	300.790	-0.320	0.120	0.180
2020/01/31 12:02:27.3	300.770	-0.310	0.120	0.190
2020/01/31 12:02:27.4	300.760	-0.290	0.130	0.200
2020/01/31 12:02:27.5	300.740	-0.280	0.130	0.220
2020/01/31 12:02:27.6	300.730	-0.260	0.140	0.240
2020/01/31 12:02:27.7	300.710	-0.240	0.140	0.260
2020/01/31 12:02:27.8	300.690	-0.220	0.140	0.280
2020/01/31 12:02:27.9	300.670	-0.200	0.140	0.310
2020/01/31 12:02:28.0	300.650	-0.180	0.150	0.330
2020/01/31 12:02:28.1	300.620	-0.160	0.150	0.360
2020/01/31 12:02:28.2	300.600	-0.130	0.150	0.390
2020/01/31 12:02:28.3	300.570	-0.110	0.150	0.430
2020/01/31 12:02:28.4	300.550	-0.080	0.150	0.460
2020/01/31 12:02:28.5	300.530	-0.060	0.150	0.500
2020/01/31 12:02:28.6	300.500	-0.030	0.150	0.530
2020/01/31 12:02:28.7	300.470	-0.010	0.150	0.570
2020/01/31 12:02:28.8	300.450	0.020	0.150	0.610
2020/01/31 12:02:28.9	300.420	0.050	0.150	0.650
2020/01/31 12:02:29.0	300.400	0.070	0.150	0.690
2020/01/31 12:02:29.1	300.370	0.100	0.150	0.720
2020/01/31 12:02:29.2	300.340	0.120	0.150	0.760
2020/01/31 12:02:29.3	300.320	0.150	0.150	0.800
2020/01/31 12:02:29.4	300.290	0.170	0.150	0.840
2020/01/31 12:02:29.5	300.260	0.190	0.150	0.880
2020/01/31 12:02:29.6	300.240	0.210	0.150	0.920
2020/01/31 12:02:29.7	300.220	0.230	0.150	0.950
2020/01/31 12:02:29.8	300.190	0.250	0.150	0.990
2020/01/31 12:02:29.9	300.160	0.270	0.150	1.020
2020/01/31 12:02:30.0	300.140	0.290	0.150	1.050
2020/01/31 12:02:30.1	300.110	0.300	0.150	1.080
2020/01/31 12:02:30.2	300.080	0.310	0.140	1.110
2020/01/31 12:02:30.3	300.060	0.320	0.140	1.130
2020/01/31 12:02:30.4	300.030	0.330	0.130	1.150
2020/01/31 12:02:30.5	300.000	0.340	0.130	1.170
2020/01/31 12:02:30.6	299.980	0.350	0.120	1.180
2020/01/31 12:02:30.7	299.950	0.350	0.110	1.190
2020/01/31 12:02:30.8	299.930	0.350	0.090	1.200
2020/01/31 12:02:30.9	299.910	0.350	0.080	1.210
2020/01/31 12:02:31.0	299.890	0.350	0.060	1.210
2020/01/31 12:02:31.1	299.860	0.350	0.040	1.200
2020/01/31 12:02:31.2	299.850	0.350	0.020	1.190
2020/01/31 12:02:31.3	299.830	0.340	-0.010	1.180
2020/01/31 12:02:31.4	299.810	0.340	-0.040	1.160
2020/01/31 12:02:31.5	299.820	0.330	-0.070	1.140
2020/01/31 12:02:31.6	299.800	0.320	-0.100	1.120
2020/01/31 12:02:31.7	299.790	0.310	-0.140	1.090
2020/01/31 12:02:31.8	299.780	0.300	-0.180	1.050
2020/01/31 12:02:31.9	299.780	0.290	-0.220	1.010
2020/01/31 12:02:32.0	299.770	0.280	-0.270	0.970
2020/01/31 12:02:32.1	299.770	0.270	-0.310	0.930
2020/01/31 12:02:32.2	299.770	0.260	-0.360	0.880
2020/01/31 12:02:32.3	299.770	0.240	-0.420	0.830
2020/01/31 12:02:32.4	299.770	0.230	-0.470	0.780
2020/01/31 12:02:32.5	299.780	0.220	-0.520	0.730
2020/01/31 12:02:32.6	299.790	0.200	-0.580	0.670
2020/01/31 12:02:32.7	299.800	0.190	-0.640	0.620
2020/01/31 12:02:32.8	299.820	0.180	-0.690	0.560
2020/01/31 12:02:32.9	299.830	0.160	-0.750	0.500
2020/01/31 12:02:33.0	299.850	0.150	-0.810	0.440
2020/01/31 12:02:33.1	299.870	0.130	-0.860	0.390
2020/01/31 12:02:33.2	299.890	0.120	-0.910	0.330
2020/01/31 12:02:33.3	299.920	0.100	-0.960	0.270
2020/01/31 12:02:33.4	299.940	0.090	-1.010	0.210
2020/01/31 12:02:33.5	299.970	0.070	-1.060	0.160
2020/01/31 12:02:33.6	299.980	0.060	-1.100	0.100
2020/01/31 12:02:33.7	300.020	0.040	-1.140	0.050
2020/01/31 12:02:33.8	300.050	0.030	-1.170	-0.000
2020/01/31 12:02:33.9	300.080	0.020	-1.210	-0.050
2020/01/31 12:02:34.0	300.120	0.000	-1.240	-0.100
2020/01/31 12:02:34.1	300.160	-0.010	-1.260	-0.140
2020/01/31 12:02:34.2	300.200	-0.030	-1.280	-0.180
2020/01/31 12:02:34.3	300.240	-0.040	-1.300	-0.220
2020/01/31 12:02:34.4	300.280	-0.060	-1.310	-0.260
2020/01/31 12:02:34.5	300.320	-0.070	-1.320	-0.290
2020/01/31 12:02:34.6	300.350	-0.090	-1.320	-0.320
2020/01/31 12:02:34.7	300.390	-0.100	-1.320	-0.340
2020/01/31 12:02:34.8	300.440	-0.110	-1.310	-0.360
2020/01/31 12:02:34.9	300.480	-0.130	-1.300	-0.380
2020/01/31 12:02:35.0	300.520	-0.140	-1.280	-0.390
2020/01/31 12:02:35.1	300.560	-0.150	-1.250	-0.400
2020/01/31 12:02:35.2	300.610	-0.170	-1.230	-0.410
2020/01/31 12:02:35.3	300.650	-0.180	-1.190	-0.410
2020/01/31 12:02:35.4	300.690	-0.190	-1.160	-0.400
2020/01/31 12:02:35.5	300.720	-0.200	-1.110	-0.390
2020/01/31 12:02:35.6	300.770	-0.210	-1.070	-0.380
2020/01/31 12:02:35.7	300.800	-0.220	-1.010	-0.370
2020/01/31 12:02:35.8	300.840	-0.230	-0.960	-0.350
2020/01/31 12:02:35.9	300.870	-0.240	-0.900	-0.330
2020/01/31 12:02:36.0	300.900	-0.250	-0.840	-0.300
2020/01/31 12:02:36.1	300.930	-0.260	-0.780	-0.280
2020/01/31 12:02:36.2	300.960	-0.270	-0.720	-0.250
2020/01/31 12:02:36.3	300.990	-0.270	-0.650	-0.220
2020/01/31 12:02:36.4	301.010	-0.280	-0.580	-0.190
2020/01/31 12:02:36.5	301.040	-0.280	-0.510	-0.150
2020/01/31 12:02:36.6	301.060	-0.290	-0.440	-0.120
2020/01/31 12:02:36.7	301.080	-0.290	-0.370	-0.080
2020/01/31 12:02:36.8	301.100	-0.290	-0.310	-0.040
2020/01/31 12:02:36.9	301.110	-0.300	-0.240	-0.000
2020/01/31 12:02:37.0	301.130	-0.300	-0.170	0.040
2020/01/31 12:02:37.1	301.140	-0.300	-0.110	0.080
2020/01/31 12:02:37.2	301.150	-0.300	-0.050	0.120
2020/01/31 12:02:37.3	301.160	-0.290	0.010	0.160
2020/01/31 12:02:37.4	301.160	-0.290	0.070	0.200
2020/01/31 12:02:37.5	301.160	-0.290	0.120	0.240
2020/01/31 12:02:37.6	301.150	-0.290	0.180	0.280
2020/01/31 12:02:37.7	301.150	-0.280	0.220	0.320
2020/01/31 12:02:37.8	301.140	-0.280	0.270	0.370
2020/01/31 12:02:37.9	301.140	-0.270	0.310	0.410
2020/01/31 12:02:38.0	301.130	-0.260	0.350	0.450
2020/01/31 12:02:38.1	301.120	-0.260	0.380	0.490
2020/01/31 12:02:38.2	301.100	-0.250	0.420	0.530
2020/01/31 12:02:38.3	301.090	-0.240	0.440	0.570
2020/01/31 12:02:38.4	301.070	-0.240	0.470	0.610
2020/01/31 12:02:38.5	301.050	-0.230	0.490	0.650
2020/01/31 12:02:38.6	301.020	-0.220	0.510	0.690
2020/01/31 12:02:38.7	300.990	-0.210	0.520	0.730
2020/01/31 12:02:38.8	300.970	-0.200	0.540	0.770
2020/01/31 12:02:38.9	300.940	-0.190	0.550	0.810
2020/01/31 12:02:39.0	300.910	-0.180	0.550	0.840
2020/01/31 12:02:39.1	300.870	-0.170	0.550	0.880
2020/01/31 12:02:39.2	300.840	-0.160	0.550	0.910
2020/01/31 12:02:39.3	300.810	-0.140	0.550	0.950
2020/01/31 12:02:39.4	300.770	-0.130	0.550	0.980
2020/01/31 12:02:39.5	300.730	-0.120	0.540	1.010
2020/01/31 12:02:39.6	300.700	-0.100	0.530	1.040
2020/01/31 12:02:39.7	300.660	-0.090	0.520	1.060
2020/01/31 12:02:39.8	300.620	-0.080	0.500	1.090
2020/01/31 12:02:39.9	300.580	-0.060	0.490	1.110
2020/01/31 12:02:40.0	300.540	-0.050	0.470	1.130
2020/01/31 12:02:40.1	300.490	-0.030	0.450	1.150
2020/01/31 12:02:40.2	300.450	-0.020	0.420	1.170
2020/01/31 12:02:40.3	300.410	-0.010	0.400	1.180
2020/01/31 12:02:40.4	300.370	0.010	0.370	1.200
2020/01/31 12:02:40.5	300.320	0.020	0.340	1.210
2020/01/31 12:02:40.6	300.280	0.040	0.320	1.210
2020/01/31 12:02:40.7	300.240	0.060	0.290	1.220
2020/01/31 12:02:40.8	300.190	0.070	0.260	1.220
2020/01/31 12:02:40.9	300.150	0.090	0.220	1.210
2020/01/31 12:02:41.0	300.110	0.100	0.190	1.210
2020/01/31 12:02:41.1	300.070	0.120	0.160	1.200
2020/01/31 12:02:41.2	300.030	0.130	0.130	1.190
2020/01/31 12:02:41.3	299.990	0.150	0.090	1.180
2020/01/31 12:02:41.4	299.950	0.160	0.060	1.170
2020/01/31 12:02:41.5	299.910	0.170	0.030	1.150
2020/01/31 12:02:41.6	299.890	0.190	-0.000	1.130
2020/01/31 12:02:41.7	299.850	0.200	-0.030	1.110
2020/01/31 12:02:41.8	299.820	0.220	-0.070	1.090
2020/01/31 12:02:41.9	299.790	0.230	-0.100	1.070
2020/01/31 12:02:42.0	299.760	0.240	-0.130	1.040
2020/01/31 12:02:42.1	299.730	0.250	-0.160	1.010
2020/01/31 12:02:42.2	299.710	0.260	-0.190	0.980
2020/01/31 12:02:42.3	299.680	0.270	-0.210	0.950
2020/01/31 12:02:42.4	299.660	0.280	-0.240	0.920
2020/01/31 12:02:42.5	299.650	0.290	-0.260	0.890
2020/01/31 12:02:42.6	299.640	0.300	-0.290	0.850
2020/01/31 12:02:42.7	299.630	0.310	-0.310	0.810
2020/01/31 12:02:42.8	299.610	0.310	-0.330	0.770
2020/01/31 12:02:42.9	299.610	0.320	-0.350	0.730
2020/01/31 12:02:43.0	299.600	0.320	-0.370	0.690
2020/01/31 12:02:43.1	299.590	0.320	-0.380	0.650
2020/01/31 12:02:43.2	299.590	0.320	-0.400	0.610
2020/01/31 12:02:43.3	299.590	0.320	-0.410	0.560
2020/01/31 12:02:43.4	299.590	0.320	-0.420	0.520
2020/01/31 12:02:43.5	299.600	0.320	-0.430	0.480
2020/01/31 12:02:43.6	299.610	0.310	-0.440	0.440
2020/01/31 12:02:43.7	299.620	0.310	-0.450	0.400
2020/01/31 12:02:43.8	299.630	0.300	-0.450	0.350
2020/01/31 12:02:43.9	299.640	0.300	-0.460	0.310
2020/01/31 12:02:44.0	299.660	0.290	-0.460	0.270
2020/01/31 12:02:44.1	299.680	0.280	-0.460	0.230
2020/01/31 12:02:44.2	299.700	0.270	-0.470	0.200
2020/01/31 12:02:44.3	299.720	0.260	-0.470	0.160
2020/01/31 12:02:44.4	299.740	0.250	-0.470	0.130
2020/01/31 12:02:44.5	299.760	0.240	-0.470	0.100
2020/01/31 12:02:44.6	299.790	0.230	-0.470	0.070
2020/01/31 12:02:44.7	299.820	0.220	-0.460	0.040
2020/01/31 12:02:44.8	299.850	0.210	-0.460	0.020
2020/01/31 12:02:44.9	299.880	0.190	-0.460	-0.000
2020/01/31 12:02:45.0	299.910	0.180	-0.450	-0.020
2020/01/31 12:02:45.1	299.940	0.170	-0.450	-0.040
2020/01/31 12:02:45.2	299.970	0.160	-0.450	-0.050
2020/01/31 12:02:45.3	300.000	0.150	-0.440	-0.060
2020/01/31 12:02:45.4	300.040	0.140	-0.440	-0.070
2020/01/31 12:02:45.5	300.070	0.130	-0.430	-0.080
2020/01/31 12:02:45.6	300.100	0.120	-0.430	-0.080
2020/01/31 12:02:45.7	300.130	0.110	-0.430	-0.080
2020/01/31 12:02:45.8	300.170	0.100	-0.420	-0.080
2020/01/31 12:02:45.9	300.200	0.090	-0.420	-0.070
2020/01/31 12:02:46.0	300.240	0.080	-0.420	-0.070
2020/01/31 12:02:46.1	300.270	0.070	-0.420	-0.050
2020/01/31 12:02:46.2	300.300	0.070	-0.410	-0.040
2020/01/31 12:02:46.3	300.330	0.060	-0.410	-0.030
2020/01/31 12:02:46.4	300.370	0.050	-0.410	-0.010
2020/01/31 12:02:46.5	300.400	0.050	-0.420	0.010
2020/01/31 12:02:46.6	300.410	0.040	-0.410	0.030
2020/01/31 12:02:46.7	300.440	0.040	-0.420	0.050
2020/01/31 12:02:46.8	300.470	0.030	-0.420	0.080
2020/01/31 12:02:46.9	300.500	0.020	-0.420	0.100
2020/01/31 12:02:47.0	300.520	0.020	-0.420	0.130
2020/01/31 12:02:47.1	300.550	0.010	-0.430	0.150
2020/01/31 12:02:47.2	300.570	0.000	-0.430	0.180
2020/01/31 12:02:47.3	300.590	-0.000	-0.440	0.210
2020/01/31 12:02:47.4	300.610	-0.010	-0.440	0.240
2020/01/31 12:02:47.5	300.630	-0.020	-0.450	0.270
2020/01/31 12:02:47.6	300.650	-0.030	-0.450	0.300
2020/01/31 12:02:47.7	300.660	-0.040	-0.450	0.330
2020/01/31 12:02:47.8	300.670	-0.040	-0.460	0.350
2020/01/31 12:02:47.9	300.690	-0.050	-0.460	0.380
2020/01/31 12:02:48.0	300.700	-0.060	-0.470	0.410
2020/01/31 12:02:48.1	300.700	-0.080	-0.470	0.440
2020/01/31 12:02:48.2	300.710	-0.090	-0.480	0.470
2020/01/31 12:02:48.3	300.720	-0.100	-0.480	0.490
2020/01/31 12:02:48.4	300.720	-0.110	-0.480	0.520
2020/01/31 12:02:48.5	300.710	-0.120	-0.480	0.540
2020/01/31 12:02:48.6	300.710	-0.130	-0.480	0.560
2020/01/31 12:02:48.7	300.710	-0.150	-0.480	0.590
2020/01/31 12:02:48.8	300.710	-0.160	-0.480	0.610
2020/01/31 12:02:48.9	300.700	-0.170	-0.480	0.630
2020/01/31 12:02:49.0	300.700	-0.180	-0.470	0.650
2020/01/31 12:02:49.1	300.700	-0.190	-0.470	0.670
2020/01/31 12:02:49.2	300.690	-0.210	-0.460	0.690
2020/01/31 12:02:49.3	300.690	-0.220	-0.460	0.700
2020/01/31 12:02:49.4	300.680	-0.230	-0.450	0.720
2020/01/31 12:02:49.5	300.670	-0.240	-0.440	0.740
2020/01/31 12:02:49.6	300.650	-0.250	-0.430	0.750
2020/01/31 12:02:49.7	300.640	-0.250	-0.420	0.770
2020/01/31 12:02:49.8	300.630	-0.260	-0.410	0.780
2020/01/31 12:02:49.9	300.620	-0.270	-0.400	0.790
2020/01/31 12:02:50.0	300.610	-0.270	-0.380	0.810
2020/01/31 12:02:50.1	300.590	-0.280	-0.370	0.820
2020/01/31 12:02:50.2	300.580	-0.280	-0.350	0.830
2020/01/31 12:02:50.3	300.560	-0.290	-0.340	0.840
2020/01/31 12:02:50.4	300.540	-0.290	-0.320	0.860
2020/01/31 12:02:50.5	300.520	-0.290	-0.300	0.870
2020/01/31 12:02:50.6	300.500	-0.290	-0.290	0.880
2020/01/31 12:02:50.7	300.480	-0.290	-0.270	0.890
2020/01/31 12:02:50.8	300.450	-0.290	-0.250	0.900
2020/01/31 12:02:50.9	300.430	-0.290	-0.230	0.900
2020/01/31 12:02:51.0	300.410	-0.290	-0.220	0.910
2020/01/31 12:02:51.1	300.390	-0.280	-0.200	0.920
2020/01/31 12:02:51.2	300.360	-0.280	-0.180	0.920
2020/01/31 12:02:51.3	300.340	-0.270	-0.160	0.920
2020/01/31 12:02:51.4	300.320	-0.270	-0.150	0.920
2020/01/31 12:02:51.5	300.300	-0.260	-0.130	0.920
2020/01/31 12:02:51.6	300.270	-0.250	-0.110	0.910
2020/01/31 12:02:51.7	300.250	-0.250	-0.100	0.910
2020/01/31 12:02:51.8	300.230	-0.240	-0.090	0.890
2020/01/31 12:02:51.9	300.200	-0.230	-0.080	0.880
2020/01/31 12:02:52.0	300.180	-0.220	-0.070	0.870
2020/01/31 12:02:52.1	300.160	-0.210	-0.070	0.850
2020/01/31 12:02:52.2	300.140	-0.200	-0.060	0.830
2020/01/31 12:02:52.3	300.120	-0.200	-0.060	0.800
2020/01/31 12:02:52.4	300.110	-0.190	-0.060	0.780
2020/01/31 12:02:52.5	300.090	-0.180	-0.060	0.750
2020/01/31 12:02:52.6	300.070	-0.170	-0.060	0.720
2020/01/31 12:02:52.7	300.060	-0.160	-0.060	0.690
2020/01/31 12:02:52.8	300.050	-0.150	-0.070	0.660
2020/01/31 12:02:52.9	300.040	-0.140	-0.070	0.630
2020/01/31 12:02:53.0	300.030	-0.130	-0.080	0.600
2020/01/31 12:02:53.1	300.020	-0.120	-0.090	0.560
2020/01/31 12:02:53.2	300.010	-0.100	-0.110	0.530
2020/01/31 12:02:53.3	300.010	-0.090	-0.120	0.500
2020/01/31 12:02:53.4	300.010	-0.080	-0.130	0.460
2020/01/31 12:02:53.5	300.010	-0.070	-0.150	0.430
2020/01/31 12:02:53.6	300.000	-0.060	-0.170	0.400
2020/01/31 12:02:53.7	300.010	-0.050	-0.180	0.370
2020/01/31 12:02:53.8	300.010	-0.040	-0.200	0.340
2020/01/31 12:02:53.9	300.020	-0.020	-0.220	0.310
2020/01/31 12:02:54.0	300.030	-0.010	-0.230	0.280
2020/01/31 12:02:54.1	300.040	0.000	-0.250	0.260
2020/01/31 12:02:54.2	300.050	0.010	-0.260	0.230
2020/01/31 12:02:54.3	300.060	0.030	-0.280	0.210
2020/01/31 12:02:54.4	300.080	0.040	-0.290	0.200
2020/01/31 12:02:54.5	300.090	0.050	-0.300	0.180
2020/01/31 12:02:54.6	300.120	0.060	-0.310	0.170
2020/01/31 12:02:54.7	300.130	0.080	-0.320	0.160
2020/01/31 12:02:54.8	300.150	0.090	-0.330	0.150
2020/01/31 12:02:54.9	300.170	0.100	-0.330	0.150
2020/01/31 12:02:55.0	300.190	0.110	-0.330	0.150
2020/01/31 12:02:55.1	300.210	0.130	-0.330	0.150
2020/01/31 12:02:55.2	300.230	0.140	-0.330	0.150
2020/01/31 12:02:55.3	300.250	0.150	-0.330	0.160
2020/01/31 12:02:55.4	300.270	0.160	-0.320	0.170
2020/01/31 12:02:55.5	300.290	0.170	-0.310	0.180
2020/01/31 12:02:55.6	300.320	0.180	-0.300	0.190
2020/01/31 12:02:55.7	300.340	0.190	-0.300	0.210
2020/01/31 12:02:55.8	300.370	0.190	-0.280	0.220
2020/01/31 12:02:55.9	300.390	0.200	-0.270	0.240
2020/01/31 12:02:56.0	300.410	0.210	-0.260	0.260
2020/01/31 12:02:56.1	300.430	0.210	-0.250	0.280
2020/01/31 12:02:56.2	300.450	0.210	-0.230	0.310
2020/01/31 12:02:56.3	300.470	0.220	-0.220	0.330
2020/01/31 12:02:56.4	300.490	0.220	-0.200	0.350
2020/01/31 12:02:56.5	300.510	0.220	-0.190	0.380
2020/01/31 12:02:56.6	300.540	0.220	-0.170	0.410
2020/01/31 12:02:56.7	300.560	0.210	-0.160	0.430
2020/01/31 12:02:56.8	300.570	0.210	-0.140	0.460
2020/01/31 12:02:56.9	300.590	0.200	-0.120	0.480
2020/01/31 12:02:57.0	300.600	0.200	-0.110	0.510
2020/01/31 12:02:57.1	300.620	0.190	-0.090	0.530
2020/01/31 12:02:57.2	300.630	0.180	-0.080	0.560
2020/01/31 12:02:57.3	300.640	0.180	-0.060	0.580
2020/01/31 12:02:57.4	300.650	0.170	-0.050	0.610
2020/01/31 12:02:57.5	300.660	0.160	-0.030	0.630
2020/01/31 12:02:57.6	300.670	0.150	-0.020	0.660
2020/01/31 12:02:57.7	300.680	0.130	-0.000	0.680
2020/01/31 12:02:57.8	300.690	0.120	0.010	0.700
2020/01/31 12:02:57.9	300.690	0.110	0.020	0.720
2020/01/31 12:02:58.0	300.700	0.100	0.030	0.740
2020/01/31 12:02:58.1	300.710	0.090	0.040	0.760
2020/01/31 12:02:58.2	300.710	0.080	0.050	0.780
2020/01/31 12:02:58.3	300.720	0.060	0.060	0.800
2020/01/31 12:02:58.4	300.720	0.050	0.070	0.810
2020/01/31 12:02:58.5	300.720	0.040	0.070	0.820
2020/01/31 12:02:58.6	300.720	0.030	0.080	0.830
2020/01/31 12:02:58.7	300.730	0.020	0.080	0.840
2020/01/31 12:02:58.8	300.730	0.010	0.080	0.840
2020/01/31 12:02:58.9	300.730	0.010	0.070	0.840
2020/01/31 12:02:59.0	300.730	-0.000	0.070	0.840
2020/01/31 12:02:59.1	300.730	-0.010	0.060	0.840
2020/01/31 12:02:59.2	300.740	-0.010	0.050	0.830
2020/01/31 12:02:59.3	300.740	-0.020	0.040	0.830
2020/01/31 12:02:59.4	300.740	-0.020	0.030	0.810
2020/01/31 12:02:59.5	300.740	-0.020	0.020	0.800
2020/01/31 12:02:59.6	300.740	-0.020	-0.010	0.780
2020/01/31 12:02:59.7	300.740	-0.020	-0.020	0.760
2020/01/31 12:02:59.8	300.740	-0.020	-0.050	0.740
2020/01/31 12:02:59.9	300.740	-0.020	-0.070	0.720
2020/01/31 12:03:00.0	300.740	-0.020	-0.090	0.690
2020/01/31 12:03:00.1	300.740	-0.010	-0.120	0.660
2020/01/31 12:03:00.2	300.740	-0.010	-0.140	0.630
2020/01/31 12:03:00.3	300.740	-0.010	-0.170	0.600
2020/01/31 12:03:00.4	300.740	-0.000	-0.200	0.560
2020/01/31 12:03:00.5	300.740	0.000	-0.220	0.530
2020/01/31 12:03:00.6	300.730	0.010	-0.250	0.490
2020/01/31 12:03:00.7	300.730	0.020	-0.280	0.450
2020/01/31 12:03:00.8	300.730	0.020	-0.300	0.420
2020/01/31 12:03:00.9	300.730	0.030	-0.330	0.380
2020/01/31 12:03:01.0	300.730	0.040	-0.350	0.350
2020/01/31 12:03:01.1	300.730	0.040	-0.370	0.310
2020/01/31 12:03:01.2	300.730	0.050	-0.390	0.280
2020/01/31 12:03:01.3	300.740	0.050	-0.410	0.240
2020/01/31 12:03:01.4	300.740	0.060	-0.430	0.210
2020/01/31 12:03:01.5	300.740	0.070	-0.440	0.180
2020/01/31 12:03:01.6	300.730	0.070	-0.450	0.150
2020/01/31 12:03:01.7	300.740	0.070	-0.460	0.120
2020/01/31 12:03:01.8	300.740	0.080	-0.460	0.090
2020/01/31 12:03:01.9	300.740	0.080	-0.470	0.060
2020/01/31 12:03:02.0	300.740	0.080	-0.470	0.040
2020/01/31 12:03:02.1	300.750	0.090	-0.470	0.020
2020/01/31 12:03:02.2	300.750	0.090	-0.460	-0.000
2020/01/31 12:03:02.3	300.750	0.090	-0.450	-0.020
2020/01/31 12:03:02.4	300.750	0.080	-0.440	-0.030
2020/01/31 12:03:02.5	300.750	0.080	-0.430	-0.040
2020/01/31 12:03:02.6	300.750	0.080	-0.420	-0.050
2020/01/31 12:03:02.7	300.750	0.070	-0.400	-0.060
2020/01/31 12:03:02.8	300.750	0.070	-0.390	-0.060
2020/01/31 12:03:02.9	300.750	0.060	-0.370	-0.060
2020/01/31 12:03:03.0	300.750	0.060	-0.350	-0.060
2020/01/31 12:03:03.1	300.750	0.050	-0.330	-0.050
2020/01/31 12:03:03.2	300.750	0.040	-0.310	-0.040
2020/01/31 12:03:03.3	300.750	0.030	-0.290	-0.030
2020/01/31 12:03:03.4	300.750	0.020	-0.280	-0.020
2020/01/31 12:03:03.5	300.750	0.000	-0.260	-0.010
2020/01/31 12:03:03.6	300.760	-0.010	-0.240	0.010
2020/01/31 12:03:03.7	300.750	-0.020	-0.230	0.030
2020/01/31 12:03:03.8	300.750	-0.030	-0.210	0.050
2020/01/31 12:03:03.9	300.750	-0.050	-0.200	0.070
2020/01/31 12:03:04.0	300.750	-0.060	-0.190	0.090
2020/01/31 12:03:04.1	300.740	-0.080	-0.190	0.120
2020/01/31 12:03:04.2	300.740	-0.090	-0.180	0.140
2020/01/31 12:03:04.3	300.740	-0.100	-0.180	0.160
2020/01/31 12:03:04.4	300.730	-0.120	-0.180	0.190
2020/01/31 12:03:04.5	300.730	-0.130	-0.180	0.210
2020/01/31 12:03:04.6	300.720	-0.140	-0.190	0.240
2020/01/31 12:03:04.7	300.720	-0.160	-0.190	0.260
2020/01/31 12:03:04.8	300.720	-0.170	-0.200	0.290
2020/01/31 12:03:04.9	300.710	-0.180	-0.220	0.310
2020/01/31 12:03:05.0	300.710	-0.180	-0.230	0.340
2020/01/31 12:03:05.1	300.710	-0.190	-0.250	0.360
2020/01/31 12:03:05.2	300.710	-0.200	-0.270	0.390
2020/01/31 12:03:05.3	300.710	-0.200	-0.290	0.420
2020/01/31 12:03:05.4	300.710	-0.200	-0.310	0.440
2020/01/31 12:03:05.5	300.720	-0.210	-0.330	0.470
2020/01/31 12:03:05.6	300.720	-0.210	-0.350	0.490
2020/01/31 12:03:05.7	300.720	-0.200	-0.380	0.520
2020/01/31 12:03:05.8	300.720	-0.200	-0.400	0.550
2020/01/31 12:03:05.9	300.720	-0.190	-0.430	0.580
2020/01/31 12:03:06.0	300.720	-0.180	-0.460	0.600
2020/01/31 12:03:06.1	300.720	-0.170	-0.480	0.630
2020/01/31 12:03:06.2	300.720	-0.160	-0.510	0.660
2020/01/31 12:03:06.3	300.720	-0.150	-0.540	0.690
2020/01/31 12:03:06.4	300.720	-0.140	-0.560	0.720
2020/01/31 12:03:06.5	300.720	-0.120	-0.590	0.750
2020/01/31 12:03:06.6	300.720	-0.100	-0.610	0.780
2020/01/31 12:03:06.7	300.720	-0.080	-0.640	0.810
2020/01/31 12:03:06.8	300.720	-0.060	-0.660	0.840
2020/01/31 12:03:06.9	300.720	-0.040	-0.680	0.870
2020/01/31 12:03:07.0	300.720	-0.020	-0.700	0.900
2020/01/31 12:03:07.1	300.720	-0.000	-0.720	0.920
2020/01/31 12:03:07.2	300.720	0.020	-0.740	0.950
2020/01/31 12:03:07.3	300.720	0.040	-0.760	0.970
2020/01/31 12:03:07.4	300.720	0.070	-0.770	0.990
2020/01/31 12:03:07.5	300.730	0.090	-0.790	1.000
2020/01/31 12:03:07.6	300.710	0.110	-0.800	1.020
2020/01/31 12:03:07.7	300.720	0.130	-0.800	1.030
2020/01/31 12:03:07.8	300.720	0.150	-0.810	1.040
2020/01/31 12:03:07.9	300.720	0.170	-0.820	1.040
2020/01/31 12:03:08.0	300.730	0.190	-0.820	1.050
2020/01/31 12:03:08.1	300.730	0.200	-0.820	1.050
2020/01/31 12:03:08.2	300.740	0.220	-0.810	1.050
2020/01/31 12:03:08.3	300.740	0.230	-0.810	1.040
2020/01/31 12:03:08.4	300.750	0.240	-0.790	1.040
2020/01/31 12:03:08.5	300.760	0.250	-0.780	1.030
2020/01/31 12:03:08.6	300.750	0.260	-0.760	1.020
2020/01/31 12:03:08.7	300.750	0.260	-0.740	1.000
2020/01/31 12:03:08.8	300.760	0.260	-0.720	0.990
2020/01/31 12:03:08.9	300.760	0.260	-0.690	0.970
2020/01/31 12:03:09.0	300.770	0.260	-0.660	0.960
2020/01/31 12:03:09.1	300.770	0.260	-0.630	0.940
2020/01/31 12:03:09.2	300.780	0.250	-0.590	0.920
2020/01/31 12:03:09.3	300.780	0.240	-0.550	0.890
2020/01/31 12:03:09.4	300.790	0.230	-0.500	0.870
2020/01/31 12:03:09.5	300.800	0.210	-0.450	0.850
2020/01/31 12:03:09.6	300.800	0.190	-0.400	0.820
2020/01/31 12:03:09.7	300.800	0.170	-0.350	0.800
2020/01/31 12:03:09.8	300.810	0.150	-0.290	0.770
2020/01/31 12:03:09.9	300.810	0.120	-0.230	0.750
2020/01/31 12:03:10.0	300.820	0.100	-0.170	0.720
2020/01/31 12:03:10.1	300.820	0.070	-0.110	0.690
2020/01/31 12:03:10.2	300.830	0.040	-0.040	0.660
2020/01/31 12:03:10.3	300.830	0.010	0.020	0.640
2020/01/31 12:03:10.4	300.830	-0.030	0.090	0.610
2020/01/31 12:03:10.5	300.840	-0.060	0.160	0.580
2020/01/31 12:03:10.6	300.840	-0.100	0.220	0.550
2020/01/31 12:03:10.7	300.840	-0.130	0.290	0.520
2020/01/31 12:03:10.8	300.850	-0.170	0.350	0.500
2020/01/31 12:03:10.9	300.850	-0.210	0.420	0.470
2020/01/31 12:03:11.0	300.860	-0.240	0.470	0.440
2020/01/31 12:03:11.1	300.860	-0.280	0.530	0.420
2020/01/31 12:03:11.2	300.860	-0.310	0.580	0.390
2020/01/31 12:03:11.3	300.870	-0.350	0.630	0.360
2020/01/31 12:03:11.4	300.870	-0.380	0.680	0.330
2020/01/31 12:03:11.5	300.880	-0.410	0.710	0.310
2020/01/31 12:03:11.6	300.890	-0.440	0.740	0.280
2020/01/31 12:03:11.7	300.890	-0.470	0.770	0.250
2020/01/31 12:03:11.8	300.900	-0.490	0.790	0.220
2020/01/31 12:03:11.9	300.910	-0.510	0.800	0.190
2020/01/31 12:03:12.0	300.910	-0.530	0.810	0.160
2020/01/31 12:03:12.1	300.920	-0.550	0.810	0.130
2020/01/31 12:03:12.2	300.930	-0.560	0.800	0.100
2020/01/31 12:03:12.3	300.940	-0.570	0.790	0.070
2020/01/31 12:03:12.4	300.950	-0.570	0.770	0.050
2020/01/31 12:03:12.5	300.960	-0.570	0.740	0.020
2020/01/31 12:03:12.6	300.970	-0.570	0.710	-0.010
2020/01/31 12:03:12.7	300.970	-0.560	0.670	-0.040
2020/01/31 12:03:12.8	300.980	-0.550	0.620	-0.070
2020/01/31 12:03:12.9	300.990	-0.540	0.570	-0.090
2020/01/31 12:03:13.0	301.000	-0.520	0.520	-0.120
2020/01/31 12:03:13.1	301.010	-0.500	0.460	-0.140
2020/01/31 12:03:13.2	301.010	-0.470	0.390	-0.160
2020/01/31 12:03:13.3	301.020	-0.450	0.330	-0.180
2020/01/31 12:03:13.4	301.030	-0.410	0.260	-0.200
2020/01/31 12:03:13.5	301.030	-0.380	0.190	-0.210
2020/01/31 12:03:13.6	301.040	-0.340	0.110	-0.220
2020/01/31 12:03:13.7	301.050	-0.300	0.040	-0.230
2020/01/31 12:03:13.8	301.050	-0.260	-0.030	-0.240
2020/01/31 12:03:13.9	301.050	-0.220	-0.100	-0.240
2020/01/31 12:03:14.0	301.050	-0.180	-0.170	-0.240
2020/01/31 12:03:14.1	301.050	-0.130	-0.240	-0.240
2020/01/31 12:03:14.2	301.040	-0.090	-0.310	-0.230
2020/01/31 12:03:14.3	301.040	-0.040	-0.370	-0.220
2020/01/31 12:03:14.4	301.040	0.010	-0.430	-0.200
2020/01/31 12:03:14.5	301.030	0.050	-0.480	-0.180
2020/01/31 12:03:14.6	301.040	0.100	-0.530	-0.160
2020/01/31 12:03:14.7	301.030	0.140	-0.570	-0.130
2020/01/31 12:03:14.8	301.020	0.180	-0.610	-0.100
2020/01/31 12:03:14.9	301.010	0.230	-0.650	-0.070
2020/01/31 12:03:15.0	300.990	0.260	-0.680	-0.030
2020/01/31 12:03:15.1	300.980	0.300	-0.700	0.010
2020/01/31 12:03:15.2	300.970	0.340	-0.720	0.050
2020/01/31 12:03:15.3	300.950	0.370	-0.730	0.090
2020/01/31 12:03:15.4	300.940	0.400	-0.740	0.140
2020/01/31 12:03:15.5	300.930	0.420	-0.750	0.180
2020/01/31 12:03:15.6	300.910	0.450	-0.750	0.240
2020/01/31 12:03:15.7	300.900	0.470	-0.740	0.290
2020/01/31 12:03:15.8	300.880	0.490	-0.730	0.340
2020/01/31 12:03:15.9	300.860	0.500	-0.720	0.390
2020/01/31 12:03:16.0	300.850	0.510	-0.700	0.440
2020/01/31 12:03:16.1	300.830	0.520	-0.680	0.500
2020/01/31 12:03:16.2	300.820	0.520	-0.650	0.550
2020/01/31 12:03:16.3	300.800	0.520	-0.630	0.600
2020/01/31 12:03:16.4	300.790	0.520	-0.600	0.660
2020/01/31 12:03:16.5	300.770	0.520	-0.570	0.710
2020/01/31 12:03:16.6	300.760	0.510	-0.530	0.760
2020/01/31 12:03:16.7	300.750	0.500	-0.500	0.810
2020/01/31 12:03:16.8	300.730	0.490	-0.470	0.860
2020/01/31 12:03:16.9	300.720	0.480	-0.440	0.910
2020/01/31 12:03:17.0	300.710	0.460	-0.400	0.950
2020/01/31 12:03:17.1	300.700	0.440	-0.370	0.990
2020/01/31 12:03:17.2	300.700	0.430	-0.350	1.030
2020/01/31 12:03:17.3	300.690	0.410	-0.320	1.060
2020/01/31 12:03:17.4	300.680	0.390	-0.300	1.100
2020/01/31 12:03:17.5	300.680	0.360	-0.270	1.120
2020/01/31 12:03:17.6	300.660	0.340	-0.250	1.140
2020/01/31 12:03:17.7	300.660	0.320	-0.240	1.160
2020/01/31 12:03:17.8	300.650	0.300	-0.220	1.180
2020/01/31 12:03:17.9	300.650	0.270	-0.210	1.190
2020/01/31 12:03:18.0	300.650	0.250	-0.210	1.200
2020/01/31 12:03:18.1	300.650	0.230	-0.200	1.200
2020/01/31 12:03:18.2	300.650	0.200	-0.200	1.200
2020/01/31 12:03:18.3	300.640	0.180	-0.200	1.200
2020/01/31 12:03:18.4	300.640	0.160	-0.210	1.200
2020/01/31 12:03:18.5	300.640	0.140	-0.220	1.190
2020/01/31 12:03:18.6	300.650	0.120	-0.230	1.170
2020/01/31 12:03:18.7	300.650	0.100	-0.240	1.160
2020/01/31 12:03:18.8	300.650	0.080	-0.250	1.140
2020/01/31 12:03:18.9	300.640	0.070	-0.270	1.120
2020/01/31 12:03:19.0	300.640	0.050	-0.290	1.100
2020/01/31 12:03:19.1	300.640	0.030	-0.300	1.070
2020/01/31 12:03:19.2	300.640	0.020	-0.330	1.050
2020/01/31 12:03:19.3	300.640	0.000	-0.350	1.020
2020/01/31 12:03:19.4	300.640	-0.010	-0.370	0.990
2020/01/31 12:03:19.5	300.640	-0.020	-0.390	0.960
2020/01/31 12:03:19.6	300.650	-0.030	-0.420	0.920
2020/01/31 12:03:19.7	300.650	-0.040	-0.440	0.890
2020/01/31 12:03:19.8	300.650	-0.050	-0.470	0.850
2020/01/31 12:03:19.9	300.650	-0.060	-0.490	0.820
2020/01/31 12:03:20.0	300.650	-0.070	-0.520	0.780
2020/01/31 12:03:20.1	300.650	-0.080	-0.540	0.740
2020/01/31 12:03:20.2	300.650	-0.090	-0.560	0.700
2020/01/31 12:03:20.3	300.640	-0.100	-0.590	0.660
2020/01/31 12:03:20.4	300.640	-0.110	-0.610	0.620
2020/01/31 12:03:20.5	300.640	-0.110	-0.630	0.580
2020/01/31 12:03:20.6	300.640	-0.120	-0.650	0.540
2020/01/31 12:03:20.7	300.640	-0.130	-0.670	0.500
2020/01/31 12:03:20.8	300.640	-0.140	-0.680	0.460
2020/01/31 12:03:20.9	300.640	-0.140	-0.700	0.430
2020/01/31 12:03:21.0	300.640	-0.150	-0.710	0.390
2020/01/31 12:03:21.1	300.640	-0.150	-0.720	0.350
2020/01/31 12:03:21.2	300.640	-0.160	-0.730	0.310
2020/01/31 12:03:21.3	300.650	-0.160	-0.730	0.280
2020/01/31 12:03:21.4	300.650	-0.170	-0.730	0.240
2020/01/31 12:03:21.5	300.650	-0.170	-0.730	0.210
2020/01/31 12:03:21.6	300.650	-0.180	-0.730	0.180
2020/01/31 12:03:21.7	300.650	-0.180	-0.730	0.150
2020/01/31 12:03:21.8	300.660	-0.190	-0.720	0.120
2020/01/31 12:03:21.9	300.670	-0.190	-0.710	0.090
2020/01/31 12:03:22.0	300.670	-0.190	-0.700	0.060
2020/01/31 12:03:22.1	300.680	-0.200	-0.680	0.040
2020/01/31 12:03:22.2	300.690	-0.200	-0.660	0.010
2020/01/31 12:03:22.3	300.700	-0.200	-0.640	-0.010
2020/01/31 12:03:22.4	300.700	-0.210	-0.620	-0.030
2020/01/31 12:03:22.5	300.720	-0.210	-0.600	-0.040
2020/01/31 12:03:22.6	300.720	-0.210	-0.580	-0.060
2020/01/31 12:03:22.7	300.730	-0.210	-0.550	-0.070
2020/01/31 12:03:22.8	300.740	-0.210	-0.520	-0.080
2020/01/31 12:03:22.9	300.760	-0.210	-0.490	-0.090
2020/01/31 12:03:23.0	300.770	-0.220	-0.460	-0.100
2020/01/31 12:03:23.1	300.780	-0.220	-0.420	-0.100
2020/01/31 12:03:23.2	300.790	-0.220	-0.390	-0.100
2020/01/31 12:03:23.3	300.800	-0.220	-0.360	-0.100
2020/01/31 12:03:23.4	300.810	-0.220	-0.320	-0.090
2020/01/31 12:03:23.5	300.820	-0.220	-0.280	-0.080
2020/01/31 12:03:23.6	300.840	-0.210	-0.250	-0.070
2020/01/31 12:03:23.7	300.850	-0.210	-0.210	-0.060
2020/01/31 12:03:23.8	300.860	-0.210	-0.170	-0.040
2020/01/31 12:03:23.9	300.880	-0.210	-0.130	-0.020
2020/01/31 12:03:24.0	300.890	-0.200	-0.090	-0.000
2020/01/31 12:03:24.1	300.900	-0.200	-0.060	0.020
2020/01/31 12:03:24.2	300.910	-0.200	-0.020	0.050
2020/01/31 12:03:24.3	300.920	-0.190	0.020	0.070
2020/01/31 12:03:24.4	300.930	-0.190	0.050	0.100
2020/01/31 12:03:24.5	300.940	-0.180	0.090	0.130
2020/01/31 12:03:24.6	300.950	-0.170	0.120	0.160
2020/01/31 12:03:24.7	300.960	-0.160	0.160	0.190
2020/01/31 12:03:24.8	300.970	-0.160	0.190	0.220
2020/01/31 12:03:24.9	300.980	-0.150	0.220	0.250
2020/01/31 12:03:25.0	300.990	-0.140	0.250	0.280
2020/01/31 12:03:25.1	301.000	-0.130	0.280	0.320
2020/01/31 12:03:25.2	301.000	-0.120	0.300	0.350
2020/01/31 12:03:25.3	301.010	-0.110	0.330	0.380
2020/01/31 12:03:25.4	301.020	-0.100	0.350	0.420
2020/01/31 12:03:25.5	301.020	-0.090	0.370	0.450
2020/01/31 12:03:25.6	301.030	-0.070	0.390	0.480
2020/01/31 12:03:25.7	301.030	-0.060	0.410	0.520
2020/01/31 12:03:25.8	301.030	-0.050	0.420	0.550
2020/01/31 12:03:25.9	301.030	-0.040	0.430	0.580
2020/01/31 12:03:26.0	301.020	-0.020	0.440	0.620
2020/01/31 12:03:26.1	301.020	-0.010	0.450	0.650
2020/01/31 12:03:26.2	301.010	0.000	0.460	0.680
2020/01/31 12:03:26.3	301.000	0.020	0.460	0.710
2020/01/31 12:03:26.4	301.000	0.030	0.460	0.740
2020/01/31 12:03:26.5	300.990	0.040	0.450	0.770
2020/01/31 12:03:26.6	300.970	0.060	0.450	0.800
2020/01/31 12:03:26.7	300.960	0.070	0.440	0.820
2020/01/31 12:03:26.8	300.940	0.080	0.430	0.840
2020/01/31 12:03:26.9	300.930	0.090	0.410	0.860
2020/01/31 12:03:27.0	300.920	0.110	0.400	0.880
2020/01/31 12:03:27.1	300.900	0.120	0.380	0.900
2020/01/31 12:03:27.2	300.890	0.130	0.360	0.910
2020/01/31 12:03:27.3	300.870	0.140	0.340	0.930
2020/01/31 12:03:27.4	300.860	0.150	0.320	0.940
2020/01/31 12:03:27.5	300.840	0.160	0.300	0.950
2020/01/31 12:03:27.6	300.820	0.170	0.280	0.950
2020/01/31 12:03:27.7	300.800	0.180	0.250	0.950
2020/01/31 12:03:27.8	300.780	0.190	0.230	0.960
2020/01/31 12:03:27.9	300.770	0.190	0.200	0.960
2020/01/31 12:03:28.0	300.750	0.200	0.180	0.960
2020/01/31 12:03:28.1	300.730	0.200	0.150	0.950
2020/01/31 12:03:28.2	300.710	0.210	0.130	0.950
2020/01/31 12:03:28.3	300.700	0.210	0.100	0.940
2020/01/31 12:03:28.4	300.680	0.220	0.080	0.940
2020/01/31 12:03:28.5	300.660	0.220	0.050	0.930
2020/01/31 12:03:28.6	300.650	0.220	0.030	0.920
2020/01/31 12:03:28.7	300.630	0.220	0.000	0.900
2020/01/31 12:03:28.8	300.620	0.220	-0.020	0.890
2020/01/31 12:03:28.9	300.600	0.220	-0.040	0.870
2020/01/31 12:03:29.0	300.580	0.220	-0.070	0.850
2020/01/31 12:03:29.1	300.560	0.220	-0.090	0.840
2020/01/31 12:03:29.2	300.540	0.210	-0.120	0.820
2020/01/31 12:03:29.3	300.530	0.210	-0.140	0.790
2020/01/31 12:03:29.4	300.510	0.210	-0.170	0.770
2020/01/31 12:03:29.5	300.500	0.200	-0.190	0.750
2020/01/31 12:03:29.6	300.490	0.200	-0.220	0.730
2020/01/31 12:03:29.7	300.480	0.190	-0.240	0.700
2020/01/31 12:03:29.8	300.460	0.190	-0.270	0.680
2020/01/31 12:03:29.9	300.450	0.180	-0.300	0.650
2020/01/31 12:03:30.0	300.450	0.180	-0.320	0.630
2020/01/31 12:03:30.1	300.440	0.170	-0.350	0.600
2020/01/31 12:03:30.2	300.430	0.170	-0.380	0.570
2020/01/31 12:03:30.3	300.430	0.160	-0.420	0.540
2020/01/31 12:03:30.4	300.430	0.160	-0.450	0.510
2020/01/31 12:03:30.5	300.430	0.150	-0.480	0.480
2020/01/31 12:03:30.6	300.410	0.150	-0.520	0.450
2020/01/31 12:03:30.7	300.420	0.140	-0.550	0.420
2020/01/31 12:03:30.8	300.420	0.140	-0.590	0.390
2020/01/31 12:03:30.9	300.430	0.130	-0.620	0.350
2020/01/31 12:03:31.0	300.440	0.120	-0.660	0.320
2020/01/31 12:03:31.1	300.450	0.120	-0.690	0.290
2020/01/31 12:03:31.2	300.460	0.110	-0.730	0.250
2020/01/31 12:03:31.3	300.480	0.110	-0.770	0.220
2020/01/31 12:03:31.4	300.490	0.100	-0.800	0.180
2020/01/31 12:03:31.5	300.510	0.100	-0.840	0.150
2020/01/31 12:03:31.6	300.520	0.090	-0.870	0.110
2020/01/31 12:03:31.7	300.540	0.090	-0.900	0.080
2020/01/31 12:03:31.8	300.560	0.090	-0.940	0.050
2020/01/31 12:03:31.9	300.580	0.080	-0.970	0.020
2020/01/31 12:03:32.0	300.600	0.080	-0.990	-0.010
2020/01/31 12:03:32.1	300.620	0.070	-1.020	-0.040
2020/01/31 12:03:32.2	300.650	0.070	-1.040	-0.070
2020/01/31 12:03:32.3	300.670	0.060	-1.060	-0.100
2020/01/31 12:03:32.4	300.690	0.060	-1.080	-0.120
2020/01/31 12:03:32.5	300.720	0.050	-1.090	-0.140
2020/01/31 12:03:32.6	300.730	0.050	-1.100	-0.160
2020/01/31 12:03:32.7	300.760	0.040	-1.110	-0.180
2020/01/31 12:03:32.8	300.780	0.030	-1.110	-0.190
2020/01/31 12:03:32.9	300.810	0.030	-1.110	-0.210
2020/01/31 12:03:33.0	300.830	0.020	-1.100	-0.220
2020/01/31 12:03:33.1	300.850	0.010	-1.090	-0.220
2020/01/31 12:03:33.2	300.870	0.010	-1.070	-0.230
2020/01/31 12:03:33.3	300.900	-0.000	-1.060	-0.230
2020/01/31 12:03:33.4	300.920	-0.010	-1.030	-0.230
2020/01/31 12:03:33.5	300.930	-0.020	-1.000	-0.220
2020/01/31 12:03:33.6	300.950	-0.030	-0.970	-0.210
2020/01/31 12:03:33.7	300.970	-0.040	-0.930	-0.200
2020/01/31 12:03:33.8	300.980	-0.050	-0.890	-0.180
2020/01/31 12:03:33.9	300.990	-0.060	-0.850	-0.150
2020/01/31 12:03:34.0	301.000	-0.080	-0.800	-0.130
2020/01/31 12:03:34.1	301.010	-0.090	-0.750	-0.100
2020/01/31 12:03:34.2	301.020	-0.100	-0.700	-0.060
2020/01/31 12:03:34.3	301.020	-0.120	-0.640	-0.030
2020/01/31 12:03:34.4	301.020	-0.130	-0.580	0.010
2020/01/31 12:03:34.5	301.020	-0.140	-0.520	0.060
2020/01/31 12:03:34.6	301.020	-0.160	-0.460	0.110
2020/01/31 12:03:34.7	301.010	-0.170	-0.400	0.150
2020/01/31 12:03:34.8	301.000	-0.180	-0.340	0.200
2020/01/31 12:03:34.9	300.990	-0.200	-0.280	0.250
2020/01/31 12:03:35.0	300.980	-0.210	-0.220	0.300
2020/01/31 12:03:35.1	300.970	-0.220	-0.160	0.340
2020/01/31 12:03:35.2	300.950	-0.230	-0.110	0.390
2020/01/31 12:03:35.3	300.930	-0.240	-0.050	0.440
2020/01/31 12:03:35.4	300.920	-0.250	-0.010	0.480
2020/01/31 12:03:35.5	300.900	-0.260	0.040	0.530
2020/01/31 12:03:35.6	300.860	-0.270	0.090	0.560
2020/01/31 12:03:35.7	300.840	-0.280	0.120	0.600
2020/01/31 12:03:35.8	300.810	-0.280	0.160	0.640
2020/01/31 12:03:35.9	300.790	-0.280	0.190	0.680
2020/01/31 12:03:36.0	300.770	-0.290	0.210	0.710
2020/01/31 12:03:36.1	300.740	-0.290	0.230	0.740
2020/01/31 12:03:36.2	300.720	-0.290	0.250	0.770
2020/01/31 12:03:36.3	300.700	-0.290	0.260	0.800
2020/01/31 12:03:36.4	300.680	-0.280	0.270	0.820
2020/01/31 12:03:36.5	300.650	-0.280	0.270	0.840
2020/01/31 12:03:36.6	300.630	-0.270	0.270	0.850
2020/01/31 12:03:36.7	300.610	-0.260	0.270	0.870
2020/01/31 12:03:36.8	300.590	-0.260	0.260	0.880
2020/01/31 12:03:36.9	300.570	-0.250	0.250	0.880
2020/01/31 12:03:37.0	300.560	-0.240	0.240	0.890
2020/01/31 12:03:37.1	300.540	-0.220	0.220	0.890
2020/01/31 12:03:37.2	300.520	-0.210	0.200	0.880
2020/01/31 12:03:37.3	300.510	-0.200	0.190	0.880
2020/01/31 12:03:37.4	300.490	-0.190	0.160	0.870
2020/01/31 12:03:37.5	300.480	-0.170	0.140	0.860
2020/01/31 12:03:37.6	300.470	-0.160	0.120	0.840
2020/01/31 12:03:37.7	300.450	-0.140	0.100	0.830
2020/01/31 12:03:37.8	300.440	-0.130	0.080	0.820
2020/01/31 12:03:37.9	300.430	-0.110	0.060	0.800
2020/01/31 12:03:38.0	300.420	-0.100	0.040	0.780
2020/01/31 12:03:38.1	300.410	-0.080	0.020	0.770
2020/01/31 12:03:38.2	300.410	-0.070	-0.000	0.750
2020/01/31 12:03:38.3	300.400	-0.050	-0.020	0.730
2020/01/31 12:03:38.4	300.390	-0.040	-0.030	0.710
2020/01/31 12:03:38.5	300.390	-0.030	-0.050	0.690
2020/01/31 12:03:38.6	300.390	-0.010	-0.060	0.680
2020/01/31 12:03:38.7	300.390	0.000	-0.070	0.660
2020/01/31 12:03:38.8	300.390	0.020	-0.080	0.640
2020/01/31 12:03:38.9	300.380	0.030	-0.080	0.630
2020/01/31 12:03:39.0	300.380	0.040	-0.080	0.610
2020/01/31 12:03:39.1	300.380	0.060	-0.080	0.600
2020/01/31 12:03:39.2	300.380	0.070	-0.080	0.580
2020/01/31 12:03:39.3	300.390	0.080	-0.080	0.570
2020/01/31 12:03:39.4	300.390	0.090	-0.080	0.560
2020/01/31 12:03:39.5	300.390	0.110	-0.070	0.550
2020/01/31 12:03:39.6	300.390	0.120	-0.060	0.540
2020/01/31 12:03:39.7	300.400	0.130	-0.050	0.530
2020/01/31 12:03:39.8	300.410	0.140	-0.040	0.530
2020/01/31 12:03:39.9	300.420	0.150	-0.030	0.520
2020/01/31 12:03:40.0	300.430	0.160	-0.020	0.510
2020/01/31 12:03:40.1	300.440	0.170	-0.010	0.510
2020/01/31 12:03:40.2	300.450	0.180	-0.000	0.510
2020/01/31 12:03:40.3	300.470	0.190	0.010	0.500
2020/01/31 12:03:40.4	300.490	0.200	0.010	0.500
2020/01/31 12:03:40.5	300.500	0.210	0.020	0.500
2020/01/31 12:03:40.6	300.530	0.220	0.020	0.490
2020/01/31 12:03:40.7	300.550	0.230	0.020	0.490
2020/01/31 12:03:40.8	300.570	0.240	0.020	0.490
2020/01/31 12:03:40.9	300.600	0.250	0.020	0.490
2020/01/31 12:03:41.0	300.620	0.250	0.010	0.480
2020/01/31 12:03:41.1	300.650	0.260	0.010	0.480
2020/01/31 12:03:41.2	300.680	0.270	-0.000	0.480
2020/01/31 12:03:41.3	300.710	0.280	-0.010	0.470
2020/01/31 12:03:41.4	300.730	0.280	-0.030	0.470
2020/01/31 12:03:41.5	300.760	0.290	-0.040	0.460
2020/01/31 12:03:41.6	300.780	0.300	-0.060	0.450
2020/01/31 12:03:41.7	300.810	0.300	-0.080	0.450
2020/01/31 12:03:41.8	300.840	0.310	-0.100	0.440
2020/01/31 12:03:41.9	300.870	0.310	-0.130	0.430
2020/01/31 12:03:42.0	300.910	0.320	-0.150	0.420
2020/01/31 12:03:42.1	300.940	0.320	-0.180	0.410
2020/01/31 12:03:42.2	300.970	0.330	-0.210	0.400
2020/01/31 12:03:42.3	301.000	0.330	-0.240	0.390
2020/01/31 12:03:42.4	301.030	0.330	-0.260	0.380
2020/01/31 12:03:42.5	301.060	0.330	-0.290	0.370
2020/01/31 12:03:42.6	301.080	0.340	-0.320	0.360
2020/01/31 12:03:42.7	301.100	0.340	-0.350	0.350
2020/01/31 12:03:42.8	301.130	0.340	-0.370	0.340
2020/01/31 12:03:42.9	301.150	0.340	-0.400	0.340
2020/01/31 12:03:43.0	301.180	0.330	-0.420	0.330
2020/01/31 12:03:43.1	301.200	0.330	-0.440	0.320
2020/01/31 12:03:43.2	301.220	0.330	-0.460	0.320
2020/01/31 12:03:43.3	301.240	0.320	-0.480	0.310
2020/01/31 12:03:43.4	301.250	0.320	-0.500	0.310
2020/01/31 12:03:43.5	301.270	0.310	-0.510	0.300
2020/01/31 12:03:43.6	301.270	0.300	-0.520	0.300
2020/01/31 12:03:43.7	301.280	0.290	-0.530	0.300
2020/01/31 12:03:43.8	301.290	0.280	-0.530	0.300
2020/01/31 12:03:43.9	301.290	0.270	-0.540	0.300
2020/01/31 12:03:44.0	301.290	0.260	-0.540	0.300
2020/01/31 12:03:44.1	301.290	0.250	-0.540	0.300
2020/01/31 12:03:44.2	301.290	0.230	-0.530	0.310
2020/01/31 12:03:44.3	301.290	0.220	-0.530	0.310
2020/01/31 12:03:44.4	301.280	0.200	-0.520	0.320
2020/01/31 12:03:44.5	301.270	0.180	-0.500	0.330
2020/01/31 12:03:44.6	301.250	0.170	-0.490	0.340
2020/01/31 12:03:44.7	301.230	0.150	-0.480	0.350
2020/01/31 12:03:44.8	301.220	0.130	-0.460	0.360
2020/01/31 12:03:44.9	301.200	0.110	-0.440	0.370
2020/01/31 12:03:45.0	301.180	0.080	-0.420	0.380
2020/01/31 12:03:45.1	301.150	0.060	-0.400	0.400
2020/01/31 12:03:45.2	301.130	0.040	-0.380	0.420
2020/01/31 12:03:45.3	301.100	0.020	-0.360	0.430
2020/01/31 12:03:45.4	301.070	-0.000	-0.340	0.450
2020/01/31 12:03:45.5	301.040	-0.030	-0.310	0.470
2020/01/31 12:03:45.6	301.010	-0.050	-0.290	0.480
2020/01/31 12:03:45.7	300.970	-0.070	-0.270	0.500
2020/01/31 12:03:45.8	300.940	-0.090	-0.250	0.520
2020/01/31 12:03:45.9	300.910	-0.110	-0.240	0.540
2020/01/31 12:03:46.0	300.870	-0.140	-0.220	0.560
2020/01/31 12:03:46.1	300.840	-0.160	-0.200	0.570
2020/01/31 12:03:46.2	300.800	-0.180	-0.190	0.590
2020/01/31 12:03:46.3	300.760	-0.200	-0.180	0.610
2020/01/31 12:03:46.4	300.730	-0.220	-0.170	0.630
2020/01/31 12:03:46.5	300.690	-0.230	-0.160	0.640
2020/01/31 12:03:46.6	300.650	-0.250	-0.160	0.650
2020/01/31 12:03:46.7	300.620	-0.270	-0.160	0.670
2020/01/31 12:03:46.8	300.580	-0.280	-0.150	0.680
2020/01/31 12:03:46.9	300.550	-0.300	-0.160	0.690
2020/01/31 12:03:47.0	300.520	-0.310	-0.160	0.700
2020/01/31 12:03:47.1	300.480	-0.320	-0.160	0.710
2020/01/31 12:03:47.2	300.450	-0.340	-0.170	0.710
2020/01/31 12:03:47.3	300.420	-0.350	-0.180	0.720
2020/01/31 12:03:47.4	300.400	-0.350	-0.190	0.720
2020/01/31 12:03:47.5	300.370	-0.360	-0.200	0.720
2020/01/31 12:03:47.6	300.350	-0.370	-0.220	0.720
2020/01/31 12:03:47.7	300.330	-0.370	-0.230	0.710
2020/01/31 12:03:47.8	300.310	-0.380	-0.250	0.710
2020/01/31 12:03:47.9	300.290	-0.380	-0.270	0.700
2020/01/31 12:03:48.0	300.280	-0.380	-0.290	0.680
2020/01/31 12:03:48.1	300.270	-0.380	-0.310	0.670
2020/01/31 12:03:48.2	300.260	-0.380	-0.330	0.650
2020/01/31 12:03:48.3	300.260	-0.370	-0.350	0.640
2020/01/31 12:03:48.4	300.260	-0.370	-0.370	0.620
2020/01/31 12:03:48.5	300.260	-0.360	-0.400	0.590
2020/01/31 12:03:48.6	300.260	-0.360	-0.420	0.570
2020/01/31 12:03:48.7	300.270	-0.350	-0.440	0.540
2020/01/31 12:03:48.8	300.280	-0.340	-0.460	0.520
2020/01/31 12:03:48.9	300.290	-0.330	-0.470	0.490
2020/01/31 12:03:49.0	300.300	-0.320	-0.490	0.460
2020/01/31 12:03:49.1	300.320	-0.310	-0.500	0.430
2020/01/31 12:03:49.2	300.340	-0.300	-0.520	0.400
2020/01/31 12:03:49.3	300.360	-0.290	-0.530	0.370
2020/01/31 12:03:49.4	300.380	-0.280	-0.540	0.340
2020/01/31 12:03:49.5	300.410	-0.260	-0.540	0.310
2020/01/31 12:03:49.6	300.430	-0.250	-0.550	0.280
2020/01/31 12:03:49.7	300.460	-0.240	-0.550	0.260
2020/01/31 12:03:49.8	300.480	-0.220	-0.550	0.230
2020/01/31 12:03:49.9	300.510	-0.210	-0.550	0.210
2020/01/31 12:03:50.0	300.540	-0.200	-0.540	0.190
2020/01/31 12:03:50.1	300.580	-0.180	-0.530	0.170
2020/01/31 12:03:50.2	300.610	-0.170	-0.520	0.150
2020/01/31 12:03:50.3	300.640	-0.160	-0.510	0.140
2020/01/31 12:03:50.4	300.670	-0.140	-0.500	0.130
2020/01/31 12:03:50.5	300.700	-0.130	-0.480	0.120
2020/01/31 12:03:50.6	300.740	-0.120	-0.460	0.110
2020/01/31 12:03:50.7	300.770	-0.110	-0.440	0.110
2020/01/31 12:03:50.8	300.800	-0.090	-0.420	0.110
2020/01/31 12:03:50.9	300.830	-0.080	-0.400	0.120
2020/01/31 12:03:51.0	300.860	-0.070	-0.370	0.120
2020/01/31 12:03:51.1	300.890	-0.060	-0.350	0.130
2020/01/31 12:03:51.2	300.920	-0.050	-0.320	0.150
2020/01/31 12:03:51.3	300.950	-0.040	-0.300	0.160
2020/01/31 12:03:51.4	300.980	-0.030	-0.270	0.180
2020/01/31 12:03:51.5	301.000	-0.010	-0.240	0.210
2020/01/31 12:03:51.6	301.030	-0.000	-0.220	0.230
2020/01/31 12:03:51.7	301.060	0.010	-0.190	0.260
2020/01/31 12:03:51.8	301.090	0.020	-0.160	0.290
2020/01/31 12:03:51.9	301.110	0.030	-0.140	0.320
2020/01/31 12:03:52.0	301.140	0.040	-0.120	0.360
2020/01/31 12:03:52.1	301.160	0.050	-0.100	0.390
2020/01/31 12:03:52.2	301.190	0.060	-0.080	0.430
2020/01/31 12:03:52.3	301.210	0.070	-0.060	0.460
2020/01/31 12:03:52.4	301.230	0.090	-0.050	0.500
2020/01/31 12:03:52.5	301.260	0.100	-0.030	0.530
2020/01/31 12:03:52.6	301.270	0.110	-0.020	0.560
2020/01/31 12:03:52.7	301.290	0.120	-0.010	0.600
2020/01/31 12:03:52.8	301.310	0.130	-0.010	0.630
2020/01/31 12:03:52.9	301.330	0.150	-0.010	0.660
2020/01/31 12:03:53.0	301.350	0.160	-0.010	0.690
2020/01/31 12:03:53.1	301.370	0.170	-0.010	0.720
2020/01/31 12:03:53.2	301.380	0.180	-0.020	0.750
2020/01/31 12:03:53.3	301.400	0.190	-0.020	0.780
2020/01/31 12:03:53.4	301.410	0.200	-0.030	0.800
2020/01/31 12:03:53.5	301.420	0.220	-0.040	0.830
2020/01/31 12:03:53.6	301.420	0.230	-0.050	0.850
2020/01/31 12:03:53.7	301.430	0.240	-0.060	0.870
2020/01/31 12:03:53.8	301.430	0.250	-0.070	0.890
2020/01/31 12:03:53.9	301.430	0.250	-0.080	0.900
2020/01/31 12:03:54.0	301.430	0.260	-0.100	0.920
2020/01/31 12:03:54.1	301.430	0.270	-0.110	0.930
2020/01/31 12:03:54.2	301.430	0.280	-0.120	0.950
2020/01/31 12:03:54.3	301.420	0.280	-0.130	0.960
2020/01/31 12:03:54.4	301.420	0.290	-0.140	0.970
2020/01/31 12:03:54.5	301.410	0.290	-0.150	0.970
2020/01/31 12:03:54.6	301.390	0.300	-0.150	0.970
2020/01/31 12:03:54.7	301.380	0.300	-0.150	0.980
2020/01/31 12:03:54.8	301.370	0.300	-0.160	0.980
2020/01/31 12:03:54.9	301.360	0.300	-0.160	0.980
2020/01/31 12:03:55.0	301.340	0.300	-0.160	0.970
2020/01/31 12:03:55.1	301.330	0.300	-0.160	0.970
2020/01/31 12:03:55.2	301.320	0.290	-0.160	0.960
2020/01/31 12:03:55.3	301.300	0.290	-0.160	0.950
2020/01/31 12:03:55.4	301.290	0.280	-0.150	0.930
2020/01/31 12:03:55.5	301.280	0.280	-0.150	0.920
2020/01/31 12:03:55.6	301.260	0.270	-0.140	0.900
2020/01/31 12:03:55.7	301.250	0.260	-0.140	0.880
2020/01/31 12:03:55.8	301.240	0.250	-0.130	0.850
2020/01/31 12:03:55.9	301.230	0.240	-0.130	0.830
2020/01/31 12:03:56.0	301.220	0.230	-0.120	0.800
2020/01/31 12:03:56.1	301.200	0.220	-0.110	0.770
2020/01/31 12:03:56.2	301.190	0.200	-0.110	0.740
2020/01/31 12:03:56.3	301.180	0.190	-0.100	0.700
2020/01/31 12:03:56.4	301.170	0.180	-0.100	0.670
2020/01/31 12:03:56.5	301.160	0.160	-0.090	0.630
2020/01/31 12:03:56.6	301.160	0.140	-0.090	0.590
2020/01/31 12:03:56.7	301.150	0.130	-0.090	0.560
2020/01/31 12:03:56.8	301.140	0.110	-0.090	0.520
2020/01/31 12:03:56.9	301.130	0.090	-0.090	0.480
2020/01/31 12:03:57.0	301.130	0.080	-0.090	0.430
2020/01/31 12:03:57.1	301.120	0.060	-0.090	0.390
2020/01/31 12:03:57.2	301.120	0.040	-0.100	0.350
2020/01/31 12:03:57.3	301.110	0.020	-0.100	0.310
2020/01/31 12:03:57.4	301.110	0.010	-0.110	0.270
2020/01/31 12:03:57.5	301.110	-0.010	-0.110	0.230
2020/01/31 12:03:57.6	301.100	-0.030	-0.120	0.180
2020/01/31 12:03:57.7	301.100	-0.040	-0.130	0.150
2020/01/31 12:03:57.8	301.100	-0.060	-0.140	0.110
2020/01/31 12:03:57.9	301.100	-0.080	-0.150	0.070
2020/01/31 12:03:58.0	301.100	-0.090	-0.170	0.040
2020/01/31 12:03:58.1	301.110	-0.100	-0.180	0.000
2020/01/31 12:03:58.2	301.110	-0.120	-0.190	-0.030
2020/01/31 12:03:58.3	301.110	-0.130	-0.200	-0.060
2020/01/31 12:03:58.4	301.120	-0.140	-0.220	-0.090
2020/01/31 12:03:58.5	301.120	-0.150	-0.230	-0.110
2020/01/31 12:03:58.6	301.120	-0.160	-0.240	-0.130
2020/01/31 12:03:58.7	301.130	-0.160	-0.260	-0.160
2020/01/31 12:03:58.8	301.130	-0.170	-0.270	-0.180
2020/01/31 12:03:58.9	301.140	-0.170	-0.280	-0.190
2020/01/31 12:03:59.0	301.140	-0.180	-0.290	-0.200
2020/01/31 12:03:59.1	301.150	-0.180	-0.300	-0.210
2020/01/31 12:03:59.2	301.160	-0.180	-0.310	-0.220
2020/01/31 12:03:59.3	301.160	-0.180	-0.320	-0.230
2020/01/31 12:03:59.4	301.170	-0.180	-0.330	-0.230
2020/01/31 12:03:59.5	301.180	-0.180	-0.340	-0.230
2020/01/31 12:03:59.6	301.190	-0.170	-0.350	-0.230
2020/01/31 12:03:59.7	301.200	-0.170	-0.350	-0.220
2020/01/31 12:03:59.8	301.210	-0.160	-0.360	-0.210
2020/01/31 12:03:59.9	301.210	-0.160	-0.370	-0.200
2020/01/31 12:04:00.0	301.220	-0.150	-0.370	-0.190
2020/01/31 12:04:00.1	301.230	-0.150	-0.370	-0.180
2020/01/31 12:04:00.2	301.240	-0.140	-0.380	-0.160
2020/01/31 12:04:00.3	301.250	-0.130	-0.380	-0.150
2020/01/31 12:04:00.4	301.250	-0.120	-0.380	-0.130
2020/01/31 12:04:00.5	301.260	-0.120	-0.380	-0.110
2020/01/31 12:04:00.6	301.270	-0.110	-0.390	-0.090
2020/01/31 12:04:00.7	301.280	-0.100	-0.390	-0.080
2020/01/31 12:04:00.8	301.280	-0.090	-0.390	-0.060
2020/01/31 12:04:00.9	301.290	-0.090	-0.390	-0.040
2020/01/31 12:04:01.0	301.300	-0.080	-0.390	-0.020
2020/01/31 12:04:01.1	301.310	-0.070	-0.380	0.000
2020/01/31 12:04:01.2	301.310	-0.070	-0.380	0.030
2020/01/31 12:04:01.3	301.320	-0.060	-0.380	0.050
2020/01/31 12:04:01.4	301.320	-0.060	-0.370	0.070
2020/01/31 12:04:01.5	301.330	-0.050	-0.370	0.090
2020/01/31 12:04:01.6	301.350	-0.050	-0.360	0.110
2020/01/31 12:04:01.7	301.350	-0.040	-0.360	0.140
2020/01/31 12:04:01.8	301.350	-0.040	-0.350	0.160
2020/01/31 12:04:01.9	301.360	-0.040	-0.340	0.180
2020/01/31 12:04:02.0	301.360	-0.040	-0.340	0.200
2020/01/31 12:04:02.1	301.360	-0.040	-0.330	0.220
2020/01/31 12:04:02.2	301.360	-0.040	-0.320	0.240
2020/01/31 12:04:02.3	301.370	-0.040	-0.320	0.250
2020/01/31 12:04:02.4	301.370	-0.040	-0.310	0.270
2020/01/31 12:04:02.5	301.370	-0.040	-0.300	0.280
2020/01/31 12:04:02.6	301.370	-0.040	-0.300	0.300
2020/01/31 12:04:02.7	301.370	-0.040	-0.300	0.310
2020/01/31 12:04:02.8	301.370	-0.050	-0.290	0.320
2020/01/31 12:04:02.9	301.380	-0.050	-0.290	0.330
2020/01/31 12:04:03.0	301.380	-0.050	-0.290	0.340
2020/01/31 12:04:03.1	301.380	-0.060	-0.290	0.340
2020/01/31 12:04:03.2	301.380	-0.060	-0.280	0.350
2020/01/31 12:04:03.3	301.380	-0.060	-0.280	0.360
2020/01/31 12:04:03.4	301.380	-0.070	-0.280	0.360
2020/01/31 12:04:03.5	301.380	-0.070	-0.280	0.370
2020/01/31 12:04:03.6	301.370	-0.080	-0.280	0.370
2020/01/31 12:04:03.7	301.360	-0.080	-0.280	0.370
2020/01/31 12:04:03.8	301.360	-0.080	-0.290	0.380
2020/01/31 12:04:03.9	301.360	-0.090	-0.290	0.380
2020/01/31 12:04:04.0	301.350	-0.090	-0.290	0.380
2020/01/31 12:04:04.1	301.350	-0.100	-0.290	0.390
2020/01/31 12:04:04.2	301.350	-0.100	-0.290	0.390
2020/01/31 12:04:04.3	301.340	-0.100	-0.290	0.390
2020/01/31 12:04:04.4	301.340	-0.110	-0.300	0.390
2020/01/31 12:04:04.5	301.330	-0.110	-0.300	0.390
2020/01/31 12:04:04.6	301.310	-0.110	-0.300	0.390
2020/01/31 12:04:04.7	301.310	-0.110	-0.300	0.390
2020/01/31 12:04:04.8	301.300	-0.120	-0.310	0.390
2020/01/31 12:04:04.9	301.290	-0.120	-0.310	0.390
2020/01/31 12:04:05.0	301.290	-0.120	-0.310	0.390
2020/01/31 12:04:05.1	301.280	-0.120	-0.310	0.390
2020/01/31 12:04:05.2	301.280	-0.120	-0.320	0.390
2020/01/31 12:04:05.3	301.270	-0.110	-0.320	0.390
2020/01/31 12:04:05.4	301.260	-0.110	-0.320	0.400
2020/01/31 12:04:05.5	301.260	-0.110	-0.330	0.400
2020/01/31 12:04:05.6	301.240	-0.110	-0.330	0.400
2020/01/31 12:04:05.7	301.230	-0.100	-0.330	0.400
2020/01/31 12:04:05.8	301.220	-0.100	-0.340	0.400
2020/01/31 12:04:05.9	301.220	-0.090	-0.340	0.400
2020/01/31 12:04:06.0	301.210	-0.090	-0.340	0.400
2020/01/31 12:04:06.1	301.210	-0.080	-0.340	0.400
2020/01/31 12:04:06.2	301.200	-0.070	-0.340	0.400
2020/01/31 12:04:06.3	301.200	-0.070	-0.350	0.400
2020/01/31 12:04:06.4	301.190	-0.060	-0.350	0.390
2020/01/31 12:04:06.5	301.190	-0.050	-0.350	0.390
2020/01/31 12:04:06.6	301.180	-0.040	-0.350	0.390
2020/01/31 12:04:06.7	301.180	-0.030	-0.350	0.380
2020/01/31 12:04:06.8	301.180	-0.030	-0.350	0.380
2020/01/31 12:04:06.9	301.180	-0.020	-0.350	0.380
2020/01/31 12:04:07.0	301.180	-0.010	-0.350	0.380
2020/01/31 12:04:07.1	301.180	0.000	-0.350	0.370
2020/01/31 12:04:07.2	301.180	0.010	-0.340	0.370
2020/01/31 12:04:07.3	301.180	0.020	-0.340	0.370
2020/01/31 12:04:07.4	301.190	0.030	-0.340	0.370
2020/01/31 12:04:07.5	301.190	0.030	-0.330	0.370
2020/01/31 12:04:07.6	301.200	0.040	-0.330	0.360
2020/01/31 12:04:07.7	301.200	0.050	-0.320	0.360
2020/01/31 12:04:07.8	301.210	0.060	-0.310	0.360
2020/01/31 12:04:07.9	301.220	0.060	-0.310	0.370
2020/01/31 12:04:08.0	301.230	0.070	-0.300	0.370
2020/01/31 12:04:08.1	301.240	0.070	-0.290	0.370
2020/01/31 12:04:08.2	301.250	0.080	-0.270	0.370
2020/01/31 12:04:08.3	301.260	0.080	-0.260	0.380
2020/01/31 12:04:08.4	301.270	0.090	-0.250	0.380
2020/01/31 12:04:08.5	301.280	0.090	-0.230	0.390
2020/01/31 12:04:08.6	301.290	0.090	-0.220	0.390
2020/01/31 12:04:08.7	301.310	0.090	-0.200	0.400
2020/01/31 12:04:08.8	301.320	0.090	-0.180	0.410
2020/01/31 12:04:08.9	301.330	0.090	-0.160	0.420
2020/01/31 12:04:09.0	301.340	0.080	-0.140	0.430
2020/01/31 12:04:09.1	301.350	0.080	-0.120	0.440
2020/01/31 12:04:09.2	301.360	0.080	-0.100	0.450
2020/01/31 12:04:09.3	301.370	0.070	-0.070	0.460
2020/01/31 12:04:09.4	301.380	0.070	-0.050	0.470
2020/01/31 12:04:09.5	301.390	0.060	-0.030	0.480
2020/01/31 12:04:09.6	301.390	0.060	-0.010	0.490
2020/01/31 12:04:09.7	301.400	0.050	0.010	0.500
2020/01/31 12:04:09.8	301.400	0.040	0.030	0.510
2020/01/31 12:04:09.9	301.410	0.040	0.050	0.520
2020/01/31 12:04:10.0	301.420	0.030	0.070	0.530
2020/01/31 12:04:10.1	301.420	0.020	0.090	0.540
2020/01/31 12:04:10.2	301.420	0.020	0.100	0.550
2020/01/31 12:04:10.3	301.420	0.010	0.120	0.560
2020/01/31 12:04:10.4	301.430	0.000	0.130	0.570
2020/01/31 12:04:10.5	301.430	-0.000	0.140	0.570
2020/01/31 12:04:10.6	301.430	-0.010	0.150	0.580
2020/01/31 12:04:10.7	301.430	-0.010	0.150	0.590
2020/01/31 12:04:10.8	301.420	-0.010	0.160	0.590
2020/01/31 12:04:10.9	301.420	-0.010	0.160	0.590
2020/01/31 12:04:11.0	301.420	-0.020	0.150	0.590
2020/01/31 12:04:11.1	301.410	-0.020	0.150	0.590
2020/01/31 12:04:11.2	301.410	-0.020	0.150	0.590
2020/01/31 12:04:11.3	301.400	-0.020	0.140	0.590
2020/01/31 12:04:11.4	301.400	-0.010	0.130	0.580
2020/01/31 12:04:11.5	301.390	-0.010	0.110	0.580
2020/01/31 12:04:11.6	301.380	-0.010	0.100	0.560
2020/01/31 12:04:11.7	301.370	-0.000	0.080	0.550
2020/01/31 12:04:11.8	301.370	0.000	0.070	0.540
2020/01/31 12:04:11.9	301.360	0.010	0.050	0.530
2020/01/31 12:04:12.0	301.350	0.010	0.030	0.510
2020/01/31 12:04:12.1	301.350	0.020	0.000	0.490
2020/01/31 12:04:12.2	301.340	0.030	-0.020	0.480
2020/01/31 12:04:12.3	301.330	0.040	-0.050	0.460
2020/01/31 12:04:12.4	301.330	0.050	-0.070	0.440
2020/01/31 12:04:12.5	301.320	0.050	-0.100	0.420
2020/01/31 12:04:12.6	301.320	0.060	-0.130	0.400
2020/01/31 12:04:12.7	301.310	0.070	-0.160	0.380
2020/01/31 12:04:12.8	301.300	0.080	-0.190	0.370
2020/01/31 12:04:12.9	301.290	0.090	-0.220	0.350
2020/01/31 12:04:13.0	301.280	0.100	-0.240	0.330
2020/01/31 12:04:13.1	301.270	0.110	-0.270	0.310
2020/01/31 12:04:13.2	301.260	0.110	-0.300	0.300
2020/01/31 12:04:13.3	301.250	0.120	-0.330	0.280
2020/01/31 12:04:13.4	301.230	0.130	-0.350	0.270
2020/01/31 12:04:13.5	301.220	0.130	-0.370	0.250
2020/01/31 12:04:13.6	301.210	0.140	-0.400	0.240
2020/01/31 12:04:13.7	301.200	0.140	-0.420	0.230
2020/01/31 12:04:13.8	301.190	0.140	-0.440	0.220
2020/01/31 12:04:13.9	301.170	0.140	-0.460	0.200
2020/01/31 12:04:14.0	301.160	0.150	-0.470	0.190
2020/01/31 12:04:14.1	301.150	0.140	-0.490	0.190
2020/01/31 12:04:14.2	301.140	0.140	-0.500	0.180
2020/01/31 12:04:14.3	301.130	0.140	-0.510	0.170
2020/01/31 12:04:14.4	301.120	0.140	-0.520	0.170
2020/01/31 12:04:14.5	301.110	0.130	-0.530	0.160
2020/01/31 12:04:14.6	301.100	0.120	-0.540	0.160
2020/01/31 12:04:14.7	301.090	0.120	-0.540	0.160
2020/01/31 12:04:14.8	301.080	0.110	-0.550	0.150
2020/01/31 12:04:14.9	301.070	0.100	-0.550	0.150
2020/01/31 12:04:15.0	301.070	0.090	-0.550	0.150
2020/01/31 12:04:15.1	301.060	0.080	-0.550	0.150
2020/01/31 12:04:15.2	301.050	0.070	-0.550	0.150
2020/01/31 12:04:15.3	301.050	0.050	-0.550	0.150
2020/01/31 12:04:15.4	301.040	0.040	-0.540	0.150
2020/01/31 12:04:15.5	301.040	0.030	-0.540	0.160
2020/01/31 12:04:15.6	301.030	0.010	-0.530	0.160
2020/01/31 12:04:15.7	301.030	-0.000	-0.530	0.160
2020/01/31 12:04:15.8	301.030	-0.020	-0.530	0.160
2020/01/31 12:04:15.9	301.030	-0.040	-0.520	0.170
2020/01/31 12:04:16.0	301.030	-0.050	-0.520	0.170
2020/01/31 12:04:16.1	301.030	-0.070	-0.510	0.180
2020/01/31 12:04:16.2	301.040	-0.080	-0.510	0.180
2020/01/31 12:04:16.3	301.040	-0.100	-0.500	0.190
2020/01/31 12:04:16.4	301.040	-0.110	-0.490	0.200
2020/01/31 12:04:16.5	301.040	-0.130	-0.490	0.200
2020/01/31 12:04:16.6	301.050	-0.140	-0.480	0.210
2020/01/31 12:04:16.7	301.050	-0.150	-0.480	0.220
2020/01/31 12:04:16.8	301.050	-0.170	-0.470	0.230
2020/01/31 12:04:16.9	301.060	-0.180	-0.470	0.240
2020/01/31 12:04:17.0	301.060	-0.190	-0.460	0.250
2020/01/31 12:04:17.1	301.070	-0.200	-0.460	0.270
2020/01/31 12:04:17.2	301.070	-0.210	-0.450	0.280
2020/01/31 12:04:17.3	301.080	-0.210	-0.450	0.300
2020/01/31 12:04:17.4	301.080	-0.220	-0.440	0.320
2020/01/31 12:04:17.5	301.080	-0.220	-0.440	0.340
2020/01/31 12:04:17.6	301.090	-0.230	-0.440	0.360
2020/01/31 12:04:17.7	301.090	-0.230	-0.430	0.380
2020/01/31 12:04:17.8	301.100	-0.230	-0.430	0.410
2020/01/31 12:04:17.9	301.100	-0.230	-0.420	0.430
2020/01/31 12:04:18.0	301.100	-0.230	-0.420	0.460
2020/01/31 12:04:18.1	301.100	-0.230	-0.410	0.490
2020/01/31 12:04:18.2	301.100	-0.220	-0.400	0.520
2020/01/31 12:04:18.3	301.100	-0.220	-0.400	0.550
2020/01/31 12:04:18.4	301.100	-0.210	-0.390	0.580
2020/01/31 12:04:18.5	301.110	-0.200	-0.380	0.610
2020/01/31 12:04:18.6	301.110	-0.200	-0.370	0.640
2020/01/31 12:04:18.7	301.110	-0.190	-0.360	0.670
2020/01/31 12:04:18.8	301.110	-0.180	-0.350	0.700
2020/01/31 12:04:18.9	301.110	-0.170	-0.350	0.730
2020/01/31 12:04:19.0	301.120	-0.150	-0.340	0.760
2020/01/31 12:04:19.1	301.120	-0.140	-0.330	0.780
2020/01/31 12:04:19.2	301.120	-0.130	-0.320	0.810
2020/01/31 12:04:19.3	301.130	-0.120	-0.310	0.840
2020/01/31 12:04:19.4	301.130	-0.110	-0.300	0.860
2020/01/31 12:04:19.5	301.130	-0.090	-0.290	0.880
2020/01/31 12:04:19.6	301.150	-0.080	-0.280	0.900
2020/01/31 12:04:19.7	301.150	-0.070	-0.270	0.920
2020/01/31 12:04:19.8	301.160	-0.050	-0.260	0.940
2020/01/31 12:04:19.9	301.160	-0.040	-0.250	0.950
2020/01/31 12:04:20.0	301.170	-0.030	-0.240	0.960
2020/01/31 12:04:20.1	301.180	-0.010	-0.230	0.970
2020/01/31 12:04:20.2	301.180	-0.000	-0.220	0.980
2020/01/31 12:04:20.3	301.190	0.010	-0.210	0.990
2020/01/31 12:04:20.4	301.190	0.020	-0.190	1.000
2020/01/31 12:04:20.5	301.200	0.030	-0.180	1.000
2020/01/31 12:04:20.6	301.190	0.040	-0.170	1.000
2020/01/31 12:04:20.7	301.200	0.050	-0.150	1.000
2020/01/31 12:04:20.8	301.210	0.060	-0.140	1.000
2020/01/31 12:04:20.9	301.210	0.070	-0.130	1.000
2020/01/31 12:04:21.0	301.220	0.070	-0.110	0.990
2020/01/31 12:04:21.1	301.220	0.080	-0.100	0.990
2020/01/31 12:04:21.2	301.230	0.090	-0.080	0.980
2020/01/31 12:04:21.3	301.230	0.090	-0.060	0.970
2020/01/31 12:04:21.4	301.240	0.100	-0.050	0.970
2020/01/31 12:04:21.5	301.240	0.100	-0.030	0.960
2020/01/31 12:04:21.6	301.250	0.110	-0.010	0.950
2020/01/31 12:04:21.7	301.250	0.110	0.010	0.940
2020/01/31 12:04:21.8	301.250	0.110	0.030	0.930
2020/01/31 12:04:21.9	301.250	0.110	0.050	0.920
2020/01/31 12:04:22.0	301.260	0.110	0.060	0.900
2020/01/31 12:04:22.1	301.260	0.120	0.080	0.890
2020/01/31 12:04:22.2	301.260	0.120	0.100	0.880
2020/01/31 12:04:22.3	301.260	0.120	0.120	0.870
2020/01/31 12:04:22.4	301.260	0.120	0.140	0.860
2020/01/31 12:04:22.5	301.260	0.120	0.160	0.840
2020/01/31 12:04:22.6	301.260	0.120	0.170	0.830
2020/01/31 12:04:22.7	301.260	0.120	0.190	0.820
2020/01/31 12:04:22.8	301.260	0.110	0.200	0.800
2020/01/31 12:04:22.9	301.250	0.110	0.220	0.790
2020/01/31 12:04:23.0	301.250	0.110	0.230	0.780
2020/01/31 12:04:23.1	301.250	0.110	0.240	0.760
2020/01/31 12:04:23.2	301.240	0.110	0.250	0.750
2020/01/31 12:04:23.3	301.240	0.110	0.260	0.740
2020/01/31 12:04:23.4	301.230	0.110	0.260	0.720
2020/01/31 12:04:23.5	301.230	0.110	0.270	0.710
2020/01/31 12:04:23.6	301.220	0.110	0.270	0.690
2020/01/31 12:04:23.7	301.210	0.110	0.270	0.680
2020/01/31 12:04:23.8	301.210	0.110	0.260	0.660
2020/01/31 12:04:23.9	301.200	0.110	0.260	0.650
2020/01/31 12:04:24.0	301.190	0.110	0.250	0.630
2020/01/31 12:04:24.1	301.180	0.110	0.240	0.620
2020/01/31 12:04:24.2	301.170	0.110	0.230	0.610
2020/01/31 12:04:24.3	301.160	0.110	0.220	0.600
2020/01/31 12:04:24.4	301.150	0.110	0.200	0.580
2020/01/31 12:04:24.5	301.130	0.110	0.180	0.570
2020/01/31 12:04:24.6	301.120	0.120	0.160	0.560
2020/01/31 12:04:24.7	301.100	0.120	0.140	0.550
2020/01/31 12:04:24.8	301.080	0.120	0.120	0.540
2020/01/31 12:04:24.9	301.070	0.120	0.090	0.530
2020/01/31 12:04:25.0	301.050	0.120	0.070	0.530
2020/01/31 12:04:25.1	301.030	0.120	0.040	0.520
2020/01/31 12:04:25.2	301.010	0.120	0.010	0.510
2020/01/31 12:04:25.3	300.990	0.120	-0.020	0.510
2020/01/31 12:04:25.4	300.970	0.120	-0.050	0.500
2020/01/31 12:04:25.5	300.950	0.120	-0.080	0.500
2020/01/31 12:04:25.6	300.930	0.120	-0.110	0.490
2020/01/31 12:04:25.7	300.910	0.120	-0.150	0.490
2020/01/31 12:04:25.8	300.890	0.120	-0.180	0.490
2020/01/31 12:04:25.9	300.870	0.120	-0.220	0.480
2020/01/31 12:04:26.0	300.850	0.110	-0.250	0.480
2020/01/31 12:04:26.1	300.830	0.110	-0.290	0.470
2020/01/31 12:04:26.2	300.810	0.110	-0.320	0.460
2020/01/31 12:04:26.3	300.800	0.100	-0.360	0.460
2020/01/31 12:04:26.4	300.780	0.100	-0.390	0.450
2020/01/31 12:04:26.5	300.770	0.100	-0.430	0.440
2020/01/31 12:04:26.6	300.760	0.090	-0.470	0.430
2020/01/31 12:04:26.7	300.750	0.090	-0.500	0.420
2020/01/31 12:04:26.8	300.740	0.080	-0.540	0.400
2020/01/31 12:04:26.9	300.730	0.070	-0.570	0.390
2020/01/31 12:04:27.0	300.720	0.070	-0.610	0.380
2020/01/31 12:04:27.1	300.720	0.060	-0.650	0.360
2020/01/31 12:04:27.2	300.710	0.050	-0.680	0.350
2020/01/31 12:04:27.3	300.710	0.050	-0.710	0.330
2020/01/31 12:04:27.4	300.710	0.040	-0.750	0.310
2020/01/31 12:04:27.5	300.700	0.030	-0.780	0.290
2020/01/31 12:04:27.6	300.720	0.020	-0.810	0.280
2020/01/31 12:04:27.7	300.720	0.010	-0.840	0.260
2020/01/31 12:04:27.8	300.720	0.010	-0.870	0.240
2020/01/31 12:04:27.9	300.720	-0.000	-0.900	0.220
2020/01/31 12:04:28.0	300.720	-0.010	-0.920	0.200
2020/01/31 12:04:28.1	300.720	-0.020	-0.950	0.180
2020/01/31 12:04:28.2	300.720	-0.030	-0.970	0.160
2020/01/31 12:04:28.3	300.720	-0.040	-0.990	0.140
2020/01/31 12:04:28.4	300.730	-0.050	-1.000	0.120
2020/01/31 12:04:28.5	300.730	-0.060	-1.020	0.100
2020/01/31 12:04:28.6	300.730	-0.070	-1.030	0.080
2020/01/31 12:04:28.7	300.730	-0.090	-1.040	0.060
2020/01/31 12:04:28.8	300.730	-0.100	-1.040	0.040
2020/01/31 12:04:28.9	300.740	-0.110	-1.040	0.030
2020/01/31 12:04:29.0	300.740	-0.120	-1.040	0.010
2020/01/31 12:04:29.1	300.740	-0.130	-1.030	-0.000
2020/01/31 12:04:29.2	300.740	-0.150	-1.020	-0.010
2020/01/31 12:04:29.3	300.750	-0.160	-1.000	-0.020
2020/01/31 12:04:29.4	300.750	-0.170	-0.990	-0.030
2020/01/31 12:04:29.5	300.750	-0.190	-0.960	-0.040
2020/01/31 12:04:29.6	300.760	-0.200	-0.930	-0.050
2020/01/31 12:04:29.7	300.760	-0.210	-0.900	-0.050
2020/01/31 12:04:29.8	300.770	-0.230	-0.870	-0.050
2020/01/31 12:04:29.9	300.770	-0.240	-0.830	-0.050
2020/01/31 12:04:30.0	300.770	-0.250	-0.790	-0.050
2020/01/31 12:04:30.1	300.770	-0.270	-0.740	-0.040
2020/01/31 12:04:30.2	300.760	-0.280	-0.700	-0.030
2020/01/31 12:04:30.3	300.760	-0.290	-0.650	-0.020
2020/01/31 12:04:30.4	300.760	-0.300	-0.590	-0.010
2020/01/31 12:04:30.5	300.760	-0.310	-0.540	0.000
2020/01/31 12:04:30.6	300.770	-0.320	-0.490	0.020
2020/01/31 12:04:30.7	300.770	-0.330	-0.430	0.040
2020/01/31 12:04:30.8	300.770	-0.330	-0.380	0.060
2020/01/31 12:04:30.9	300.770	-0.340	-0.320	0.080
2020/01/31 12:04:31.0	300.770	-0.340	-0.270	0.100
2020/01/31 12:04:31.1	300.770	-0.350	-0.220	0.130
2020/01/31 12:04:31.2	300.770	-0.350	-0.160	0.160
2020/01/31 12:04:31.3	300.770	-0.340	-0.120	0.190
2020/01/31 12:04:31.4	300.770	-0.340	-0.070	0.220
2020/01/31 12:04:31.5	300.770	-0.330	-0.020	0.250
2020/01/31 12:04:31.6	300.790	-0.330	0.020	0.280
2020/01/31 12:04:31.7	300.790	-0.320	0.060	0.320
2020/01/31 12:04:31.8	300.790	-0.310	0.090	0.350
2020/01/31 12:04:31.9	300.800	-0.290	0.120	0.390
2020/01/31 12:04:32.0	300.800	-0.280	0.150	0.420
2020/01/31 12:04:32.1	300.800	-0.260	0.170	0.460
2020/01/31 12:04:32.2	300.810	-0.240	0.190	0.500
2020/01/31 12:04:32.3	300.810	-0.220	0.210	0.540
2020/01/31 12:04:32.4	300.820	-0.200	0.220	0.570
2020/01/31 12:04:32.5	300.830	-0.180	0.230	0.610
2020/01/31 12:04:32.6	300.830	-0.150	0.240	0.650
2020/01/31 12:04:32.7	300.840	-0.130	0.240	0.690
2020/01/31 12:04:32.8	300.840	-0.100	0.240	0.730
2020/01/31 12:04:32.9	300.850	-0.070	0.240	0.760
2020/01/31 12:04:33.0	300.850	-0.050	0.230	0.800
2020/01/31 12:04:33.1	300.860	-0.020	0.220	0.840
2020/01/31 12:04:33.2	300.860	0.010	0.210	0.880
2020/01/31 12:04:33.3	300.870	0.040	0.200	0.920
2020/01/31 12:04:33.4	300.870	0.060	0.190	0.950
2020/01/31 12:04:33.5	300.880	0.090	0.170	0.990
2020/01/31 12:04:33.6	300.880	0.120	0.150	1.020
2020/01/31 12:04:33.7	300.880	0.140	0.130	1.060
2020/01/31 12:04:33.8	300.880	0.170	0.120	1.090
2020/01/31 12:04:33.9	300.890	0.190	0.100	1.120
2020/01/31 12:04:34.0	300.890	0.210	0.080	1.150
2020/01/31 12:04:34.1	300.900	0.230	0.060	1.180
2020/01/31 12:04:34.2	300.900	0.250	0.040	1.210
2020/01/31 12:04:34.3	300.900	0.270	0.020	1.240
2020/01/31 12:04:34.4	300.910	0.280	-0.000	1.260
2020/01/31 12:04:34.5	300.910	0.300	-0.020	1.280
2020/01/31 12:04:34.6	300.910	0.310	-0.030	1.300
2020/01/31 12:04:34.7	300.910	0.310	-0.050	1.310
2020/01/31 12:04:34.8	300.920	0.320	-0.060	1.330
2020/01/31 12:04:34.9	300.920	0.320	-0.070	1.340
2020/01/31 12:04:35.0	300.920	0.330	-0.080	1.350
2020/01/31 12:04:35.1	300.920	0.320	-0.080	1.350
2020/01/31 12:04:35.2	300.910	0.320	-0.090	1.360
2020/01/31 12:04:35.3	300.910	0.310	-0.090	1.360
2020/01/31 12:04:35.4	300.900	0.300	-0.080	1.360
2020/01/31 12:04:35.5	300.900	0.290	-0.080	1.360
2020/01/31 12:04:35.6	300.900	0.280	-0.070	1.360
2020/01/31 12:04:35.7	300.890	0.260	-0.060	1.350
2020/01/31 12:04:35.8	300.880	0.250	-0.050	1.340
2020/01/31 12:04:35.9	300.870	0.230	-0.030	1.330
2020/01/31 12:04:36.0	300.850	0.200	-0.020	1.320
2020/01/31 12:04:36.1	300.840	0.180	-0.000	1.310
2020/01/31 12:04:36.2	300.820	0.160	0.020	1.290
2020/01/31 12:04:36.3	300.810	0.130	0.040	1.280
2020/01/31 12:04:36.4	300.790	0.100	0.060	1.260
2020/01/31 12:04:36.5	300.780	0.080	0.080	1.240
2020/01/31 12:04:36.6	300.760	0.050	0.100	1.210
2020/01/31 12:04:36.7	300.740	0.020	0.110	1.190
2020/01/31 12:04:36.8	300.730	-0.000	0.130	1.160
2020/01/31 12:04:36.9	300.710	-0.030	0.150	1.140
2020/01/31 12:04:37.0	300.690	-0.060	0.160	1.110
2020/01/31 12:04:37.1	300.670	-0.080	0.170	1.080
2020/01/31 12:04:37.2	300.650	-0.110	0.180	1.050
2020/01/31 12:04:37.3	300.640	-0.130	0.190	1.020
2020/01/31 12:04:37.4	300.620	-0.150	0.190	0.980
2020/01/31 12:04:37.5	300.600	-0.170	0.200	0.950
2020/01/31 12:04:37.6	300.600	-0.190	0.190	0.920
2020/01/31 12:04:37.7	300.580	-0.200	0.190	0.880
2020/01/31 12:04:37.8	300.560	-0.210	0.180	0.850
2020/01/31 12:04:37.9	300.550	-0.220	0.170	0.810
2020/01/31 12:04:38.0	300.530	-0.230	0.150	0.770
2020/01/31 12:04:38.1	300.520	-0.240	0.140	0.740
2020/01/31 12:04:38.2	300.500	-0.240	0.120	0.700
2020/01/31 12:04:38.3	300.490	-0.240	0.100	0.670
2020/01/31 12:04:38.4	300.480	-0.240	0.070	0.630
2020/01/31 12:04:38.5	300.470	-0.230	0.040	0.590
2020/01/31 12:04:38.6	300.440	-0.230	0.020	0.550
2020/01/31 12:04:38.7	300.430	-0.220	-0.020	0.510
2020/01/31 12:04:38.8	300.420	-0.200	-0.050	0.480
2020/01/31 12:04:38.9	300.410	-0.190	-0.090	0.440
2020/01/31 12:04:39.0	300.400	-0.170	-0.130	0.400
2020/01/31 12:04:39.1	300.390	-0.160	-0.160	0.370
2020/01/31 12:04:39.2	300.380	-0.140	-0.200	0.340
2020/01/31 12:04:39.3	300.380	-0.120	-0.250	0.300
2020/01/31 12:04:39.4	300.370	-0.090	-0.290	0.270
2020/01/31 12:04:39.5	300.360	-0.070	-0.330	0.240
2020/01/31 12:04:39.6	300.340	-0.040	-0.380	0.210
2020/01/31 12:04:39.7	300.340	-0.020	-0.420	0.180
2020/01/31 12:04:39.8	300.330	0.010	-0.460	0.160
2020/01/31 12:04:39.9	300.330	0.040	-0.500	0.140
2020/01/31 12:04:40.0	300.320	0.060	-0.550	0.110
2020/01/31 12:04:40.1	300.320	0.090	-0.590	0.090
2020/01/31 12:04:40.2	300.310	0.120	-0.630	0.080
2020/01/31 12:04:40.3	300.310	0.140	-0.660	0.060
2020/01/31 12:04:40.4	300.300	0.170	-0.700	0.050
2020/01/31 12:04:40.5	300.300	0.190	-0.730	0.040
2020/01/31 12:04:40.6	300.300	0.220	-0.770	0.030
2020/01/31 12:04:40.7	300.300	0.240	-0.800	0.020
2020/01/31 12:04:40.8	300.300	0.270	-0.830	0.020
2020/01/31 12:04:40.9	300.290	0.290	-0.850	0.020
2020/01/31 12:04:41.0	300.300	0.310	-0.880	0.020
2020/01/31 12:04:41.1	300.300	0.320	-0.900	0.030
2020/01/31 12:04:41.2	300.300	0.340	-0.920	0.030
2020/01/31 12:04:41.3	300.300	0.360	-0.930	0.040
2020/01/31 12:04:41.4	300.300	0.370	-0.950	0.060
2020/01/31 12:04:41.5	300.310	0.380	-0.960	0.070
2020/01/31 12:04:41.6	300.320	0.390	-0.960	0.090
2020/01/31 12:04:41.7	300.320	0.390	-0.960	0.110
2020/01/31 12:04:41.8	300.330	0.400	-0.960	0.130
2020/01/31 12:04:41.9	300.330	0.400	-0.960	0.160
2020/01/31 12:04:42.0	300.340	0.400	-0.950	0.180
2020/01/31 12:04:42.1	300.340	0.400	-0.940	0.210
2020/01/31 12:04:42.2	300.350	0.390	-0.930	0.240
2020/01/31 12:04:42.3	300.350	0.390	-0.910	0.270
2020/01/31 12:04:42.4	300.360	0.380	-0.890	0.300
2020/01/31 12:04:42.5	300.370	0.370	-0.870	0.330
2020/01/31 12:04:42.6	300.370	0.350	-0.850	0.360
2020/01/31 12:04:42.7	300.380	0.340	-0.820	0.400
2020/01/31 12:04:42.8	300.380	0.320	-0.790	0.430
2020/01/31 12:04:42.9	300.390	0.300	-0.760	0.460
2020/01/31 12:04:43.0	300.390	0.280	-0.730	0.500
2020/01/31 12:04:43.1	300.400	0.250	-0.700	0.530
2020/01/31 12:04:43.2	300.400	0.230	-0.670	0.560
2020/01/31 12:04:43.3	300.410	0.200	-0.630	0.590
2020/01/31 12:04:43.4	300.410	0.180	-0.600	0.620
2020/01/31 12:04:43.5	300.420	0.150	-0.570	0.650
2020/01/31 12:04:43.6	300.420	0.120	-0.540	0.680
2020/01/31 12:04:43.7	300.420	0.090	-0.510	0.710
2020/01/31 12:04:43.8	300.430	0.060	-0.480	0.730
2020/01/31 12:04:43.9	300.430	0.030	-0.450	0.750
2020/01/31 12:04:44.0	300.440	0.000	-0.420	0.770
2020/01/31 12:04:44.1	300.440	-0.030	-0.400	0.790
2020/01/31 12:04:44.2	300.440	-0.060	-0.380	0.800
2020/01/31 12:04:44.3	300.450	-0.090	-0.360	0.810
2020/01/31 12:04:44.4	300.450	-0.120	-0.340	0.820
2020/01/31 12:04:44.5	300.460	-0.140	-0.330	0.820
2020/01/31 12:04:44.6	300.460	-0.170	-0.310	0.820
2020/01/31 12:04:44.7	300.470	-0.200	-0.300	0.820
2020/01/31 12:04:44.8	300.470	-0.220	-0.290	0.820
2020/01/31 12:04:44.9	300.480	-0.240	-0.280	0.820
2020/01/31 12:04:45.0	300.480	-0.270	-0.270	0.810
2020/01/31 12:04:45.1	300.490	-0.290	-0.270	0.810
2020/01/31 12:04:45.2	300.490	-0.300	-0.270	0.800
2020/01/31 12:04:45.3	300.500	-0.320	-0.260	0.790
2020/01/31 12:04:45.4	300.500	-0.340	-0.260	0.780
2020/01/31 12:04:45.5	300.500	-0.350	-0.260	0.770
2020/01/31 12:04:45.6	300.510	-0.360	-0.260	0.760
2020/01/31 12:04:45.7	300.520	-0.370	-0.260	0.740
2020/01/31 12:04:45.8	300.520	-0.380	-0.260	0.730
2020/01/31 12:04:45.9	300.530	-0.390	-0.260	0.720
2020/01/31 12:04:46.0	300.530	-0.390	-0.260	0.700
2020/01/31 12:04:46.1	300.540	-0.400	-0.250	0.690
2020/01/31 12:04:46.2	300.550	-0.400	-0.250	0.670
2020/01/31 12:04:46.3	300.550	-0.400	-0.250	0.660
2020/01/31 12:04:46.4	300.560	-0.400	-0.240	0.640
2020/01/31 12:04:46.5	300.570	-0.400	-0.240	0.630
2020/01/31 12:04:46.6	300.560	-0.400	-0.230	0.610
2020/01/31 12:04:46.7	300.570	-0.390	-0.220	0.600
2020/01/31 12:04:46.8	300.580	-0.390	-0.210	0.590
2020/01/31 12:04:46.9	300.580	-0.390	-0.190	0.580
2020/01/31 12:04:47.0	300.590	-0.380	-0.170	0.570
2020/01/31 12:04:47.1	300.600	-0.370	-0.150	0.560
2020/01/31 12:04:47.2	300.610	-0.370	-0.130	0.550
2020/01/31 12:04:47.3	300.610	-0.360	-0.100	0.540
2020/01/31 12:04:47.4	300.620	-0.350	-0.070	0.540
2020/01/31 12:04:47.5	300.620	-0.340	-0.040	0.540
2020/01/31 12:04:47.6	300.620	-0.330	-0.000	0.540
2020/01/31 12:04:47.7	300.620	-0.320	0.030	0.540
2020/01/31 12:04:47.8	300.620	-0.320	0.070	0.540
2020/01/31 12:04:47.9	300.620	-0.310	0.120	0.550
2020/01/31 12:04:48.0	300.620	-0.300	0.160	0.560
2020/01/31 12:04:48.1	300.610	-0.290	0.200	0.570
2020/01/31 12:04:48.2	300.610	-0.280	0.250	0.580
2020/01/31 12:04:48.3	300.600	-0.270	0.290	0.600
2020/01/31 12:04:48.4	300.600	-0.260	0.340	0.610
2020/01/31 12:04:48.5	300.590	-0.250	0.390	0.630
2020/01/31 12:04:48.6	300.570	-0.240	0.430	0.640
2020/01/31 12:04:48.7	300.560	-0.240	0.470	0.660
2020/01/31 12:04:48.8	300.550	-0.230	0.510	0.680
2020/01/31 12:04:48.9	300.530	-0.220	0.550	0.700
2020/01/31 12:04:49.0	300.520	-0.210	0.590	0.730
2020/01/31 12:04:49.1	300.500	-0.200	0.620	0.750
2020/01/31 12:04:49.2	300.480	-0.190	0.650	0.770
2020/01/31 12:04:49.3	300.460	-0.180	0.670	0.790
2020/01/31 12:04:49.4	300.440	-0.180	0.690	0.810
2020/01/31 12:04:49.5	300.420	-0.170	0.710	0.820
2020/01/31 12:04:49.6	300.410	-0.160	0.720	0.840
2020/01/31 12:04:49.7	300.390	-0.150	0.730	0.850
2020/01/31 12:04:49.8	300.370	-0.140	0.730	0.870
2020/01/31 12:04:49.9	300.350	-0.130	0.720	0.880
2020/01/31 12:04:50.0	300.330	-0.110	0.710	0.890
2020/01/31 12:04:50.1	300.310	-0.100	0.700	0.890
2020/01/31 12:04:50.2	300.290	-0.090	0.680	0.900
2020/01/31 12:04:50.3	300.270	-0.080	0.650	0.900
2020/01/31 12:04:50.4	300.250	-0.060	0.620	0.900
2020/01/31 12:04:50.5	300.230	-0.050	0.590	0.900
2020/01/31 12:04:50.6	300.230	-0.030	0.550	0.900
2020/01/31 12:04:50.7	300.210	-0.020	0.500	0.890
2020/01/31 12:04:50.8	300.190	0.000	0.460	0.880
2020/01/31 12:04:50.9	300.170	0.020	0.410	0.880
2020/01/31 12:04:51.0	300.160	0.040	0.360	0.870
2020/01/31 12:04:51.1	300.140	0.060	0.300	0.860
2020/01/31 12:04:51.2	300.120	0.080	0.250	0.840
2020/01/31 12:04:51.3	300.110	0.100	0.190	0.830
2020/01/31 12:04:51.4	300.090	0.120	0.130	0.820
2020/01/31 12:04:51.5	300.080	0.140	0.070	0.800
2020/01/31 12:04:51.6	300.070	0.160	0.020	0.790
2020/01/31 12:04:51.7	300.060	0.180	-0.040	0.770
2020/01/31 12:04:51.8	300.040	0.200	-0.100	0.760
2020/01/31 12:04:51.9	300.030	0.220	-0.150	0.740
2020/01/31 12:04:52.0	300.020	0.240	-0.210	0.730
2020/01/31 12:04:52.1	300.010	0.260	-0.260	0.720
2020/01/31 12:04:52.2	300.000	0.280	-0.320	0.700
2020/01/31 12:04:52.3	299.990	0.300	-0.370	0.690
2020/01/31 12:04:52.4	299.980	0.320	-0.420	0.680
2020/01/31 12:04:52.5	299.970	0.330	-0.460	0.660
2020/01/31 12:04:52.6	299.960	0.350	-0.510	0.650
2020/01/31 12:04:52.7	299.950	0.360	-0.550	0.640
2020/01/31 12:04:52.8	299.940	0.380	-0.590	0.630
2020/01/31 12:04:52.9	299.930	0.390	-0.630	0.620
2020/01/31 12:04:53.0	299.930	0.400	-0.670	0.610
2020/01/31 12:04:53.1	299.930	0.410	-0.710	0.600
2020/01/31 12:04:53.2	299.930	0.420	-0.740	0.600
2020/01/31 12:04:53.3	299.920	0.430	-0.780	0.590
2020/01/31 12:04:53.4	299.930	0.430	-0.810	0.580
2020/01/31 12:04:53.5	299.930	0.440	-0.840	0.570
2020/01/31 12:04:53.6	299.940	0.440	-0.870	0.560
2020/01/31 12:04:53.7	299.940	0.450	-0.900	0.550
2020/01/31 12:04:53.8	299.950	0.450	-0.920	0.550
2020/01/31 12:04:53.9	299.970	0.450	-0.950	0.540
2020/01/31 12:04:54.0	299.980	0.450	-0.980	0.530
2020/01/31 12:04:54.1	299.990	0.450	-1.000	0.520
2020/01/31 12:04:54.2	300.010	0.440	-1.030	0.510
2020/01/31 12:04:54.3	300.030	0.440	-1.050	0.500
2020/01/31 12:04:54.4	300.050	0.440	-1.080	0.490
2020/01/31 12:04:54.5	300.080	0.430	-1.100	0.480
2020/01/31 12:04:54.6	300.090	0.420	-1.120	0.470
2020/01/31 12:04:54.7	300.120	0.410	-1.140	0.460
2020/01/31 12:04:54.8	300.150	0.410	-1.160	0.440
2020/01/31 12:04:54.9	300.180	0.400	-1.180	0.430
2020/01/31 12:04:55.0	300.200	0.380	-1.200	0.420
2020/01/31 12:04:55.1	300.230	0.370	-1.210	0.400
2020/01/31 12:04:55.2	300.260	0.360	-1.230	0.390
2020/01/31 12:04:55.3	300.290	0.340	-1.240	0.380
2020/01/31 12:04:55.4	300.320	0.330	-1.250	0.370
2020/01/31 12:04:55.5	300.350	0.310	-1.250	0.360
2020/01/31 12:04:55.6	300.360	0.290	-1.260	0.340
2020/01/31 12:04:55.7	300.390	0.270	-1.260	0.340
2020/01/31 12:04:55.8	300.420	0.260	-1.250	0.330
2020/01/31 12:04:55.9	300.440	0.230	-1.250	0.320
2020/01/31 12:04:56.0	300.470	0.210	-1.240	0.320
2020/01/31 12:04:56.1	300.490	0.190	-1.220	0.310
2020/01/31 12:04:56.2	300.520	0.170	-1.200	0.310
2020/01/31 12:04:56.3	300.540	0.150	-1.180	0.310
2020/01/31 12:04:56.4	300.570	0.120	-1.160	0.310
2020/01/31 12:04:56.5	300.590	0.100	-1.130	0.310
2020/01/31 12:04:56.6	300.620	0.070	-1.090	0.320
2020/01/31 12:04:56.7	300.640	0.050	-1.050	0.320
2020/01/31 12:04:56.8	300.660	0.020	-1.010	0.330
2020/01/31 12:04:56.9	300.680	-0.000	-0.960	0.340
2020/01/31 12:04:57.0	300.690	-0.030	-0.910	0.350
2020/01/31 12:04:57.1	300.710	-0.050	-0.860	0.360
2020/01/31 12:04:57.2	300.720	-0.080	-0.800	0.370
2020/01/31 12:04:57.3	300.740	-0.100	-0.740	0.390
2020/01/31 12:04:57.4	300.750	-0.130	-0.680	0.400
2020/01/31 12:04:57.5	300.760	-0.150	-0.620	0.420
2020/01/31 12:04:57.6	300.760	-0.180	-0.550	0.450
2020/01/31 12:04:57.7	300.770	-0.200	-0.480	0.470
2020/01/31 12:04:57.8	300.780	-0.230	-0.410	0.490
2020/01/31 12:04:57.9	300.780	-0.250	-0.340	0.510
2020/01/31 12:04:58.0	300.780	-0.270	-0.270	0.540
2020/01/31 12:04:58.1	300.780	-0.290	-0.190	0.560
2020/01/31 12:04:58.2	300.780	-0.310	-0.120	0.590
2020/01/31 12:04:58.3	300.770	-0.320	-0.050	0.620
2020/01/31 12:04:58.4	300.770	-0.340	0.010	0.640
2020/01/31 12:04:58.5	300.760	-0.350	0.080	0.670
2020/01/31 12:04:58.6	300.740	-0.370	0.150	0.690
2020/01/31 12:04:58.7	300.730	-0.380	0.210	0.720
2020/01/31 12:04:58.8	300.720	-0.390	0.270	0.750
2020/01/31 12:04:58.9	300.710	-0.390	0.320	0.780
2020/01/31 12:04:59.0	300.690	-0.400	0.380	0.800
2020/01/31 12:04:59.1	300.670	-0.400	0.430	0.830
2020/01/31 12:04:59.2	300.650	-0.410	0.470	0.850
2020/01/31 12:04:59.3	300.640	-0.410	0.510	0.870
2020/01/31 12:04:59.4	300.620	-0.410	0.550	0.890
2020/01/31 12:04:59.5	300.600	-0.400	0.590	0.910
2020/01/31 12:04:59.6	300.570	-0.400	0.610	0.930
2020/01/31 12:04:59.7	300.550	-0.390	0.640	0.950
2020/01/31 12:04:59.8	300.530	-0.390	0.660	0.960
2020/01/31 12:04:59.9	300.500	-0.380	0.680	0.970
2020/01/31 12:05:00.0	300.480	-0.370	0.690	0.980
2020/01/31 12:05:00.1	300.460	-0.360	0.700	0.980
2020/01/31 12:05:00.2	300.440	-0.340	0.700	0.990
2020/01/31 12:05:00.3	300.410	-0.330	0.710	0.990
2020/01/31 12:05:00.4	300.390	-0.320	0.700	0.990
2020/01/31 12:05:00.5	300.370	-0.300	0.700	0.990
2020/01/31 12:05:00.6	300.360	-0.290	0.690	0.990
2020/01/31 12:05:00.7	300.330	-0.270	0.680	0.990
2020/01/31 12:05:00.8	300.310	-0.260	0.660	0.980
2020/01/31 12:05:00.9	300.290	-0.240	0.640	0.970
2020/01/31 12:05:01.0	300.260	-0.230	0.620	0.970
2020/01/31 12:05:01.1	300.240	-0.210	0.600	0.960
2020/01/31 12:05:01.2	300.220	-0.200	0.570	0.950
2020/01/31 12:05:01.3	300.200	-0.180	0.540	0.940
2020/01/31 12:05:01.4	300.180	-0.170	0.510	0.930
2020/01/31 12:05:01.5	300.160	-0.150	0.480	0.920
2020/01/31 12:05:01.6	300.130	-0.140	0.450	0.900
2020/01/31 12:05:01.7	300.120	-0.120	0.410	0.890
2020/01/31 12:05:01.8	300.100	-0.110	0.380	0.880
2020/01/31 12:05:01.9	300.080	-0.100	0.340	0.860
2020/01/31 12:05:02.0	300.060	-0.080	0.310	0.850
2020/01/31 12:05:02.1	300.040	-0.070	0.270	0.830
2020/01/31 12:05:02.2	300.030	-0.060	0.240	0.820
2020/01/31 12:05:02.3	300.010	-0.050	0.200	0.800
2020/01/31 12:05:02.4	300.000	-0.040	0.170	0.780
2020/01/31 12:05:02.5	299.990	-0.030	0.140	0.770
2020/01/31 12:05:02.6	299.980	-0.020	0.100	0.740
2020/01/31 12:05:02.7	299.970	-0.010	0.070	0.730
2020/01/31 12:05:02.8	299.960	-0.000	0.040	0.710
2020/01/31 12:05:02.9	299.950	0.000	0.010	0.690
2020/01/31 12:05:03.0	299.950	0.010	-0.020	0.670
2020/01/31 12:05:03.1	299.940	0.020	-0.050	0.650
2020/01/31 12:05:03.2	299.930	0.020	-0.070	0.630
2020/01/31 12:05:03.3	299.930	0.030	-0.100	0.610
2020/01/31 12:05:03.4	299.930	0.030	-0.120	0.590
2020/01/31 12:05:03.5	299.920	0.040	-0.140	0.570
2020/01/31 12:05:03.6	299.930	0.040	-0.160	0.550
2020/01/31 12:05:03.7	299.930	0.050	-0.180	0.540
2020/01/31 12:05:03.8	299.930	0.050	-0.200	0.520
2020/01/31 12:05:03.9	299.930	0.060	-0.220	0.500
2020/01/31 12:05:04.0	299.930	0.060	-0.240	0.480
2020/01/31 12:05:04.1	299.930	0.060	-0.250	0.460
2020/01/31 12:05:04.2	299.940	0.070	-0.270	0.450
2020/01/31 12:05:04.3	299.940	0.070	-0.290	0.430
2020/01/31 12:05:04.4	299.950	0.070	-0.300	0.410
2020/01/31 12:05:04.5	299.960	0.070	-0.320	0.390
2020/01/31 12:05:04.6	299.960	0.080	-0.330	0.370
2020/01/31 12:05:04.7	299.970	0.080	-0.350	0.350
2020/01/31 12:05:04.8	299.990	0.080	-0.360	0.330
2020/01/31 12:05:04.9	300.000	0.090	-0.380	0.320
2020/01/31 12:05:05.0	300.010	0.090	-0.400	0.300
2020/01/31 12:05:05.1	300.030	0.090	-0.420	0.280
2020/01/31 12:05:05.2	300.040	0.100	-0.440	0.260
2020/01/31 12:05:05.3	300.060	0.100	-0.460	0.240
2020/01/31 12:05:05.4	300.080	0.110	-0.480	0.220
2020/01/31 12:05:05.5	300.100	0.110	-0.500	0.210
2020/01/31 12:05:05.6	300.100	0.120	-0.520	0.190
2020/01/31 12:05:05.7	300.120	0.130	-0.540	0.170
2020/01/31 12:05:05.8	300.140	0.130	-0.560	0.160
2020/01/31 12:05:05.9	300.170	0.140	-0.590	0.140
2020/01/31 12:05:06.0	300.190	0.150	-0.610	0.130
2020/01/31 12:05:06.1	300.210	0.160	-0.630	0.120
2020/01/31 12:05:06.2	300.230	0.160	-0.650	0.110
2020/01/31 12:05:06.3	300.250	0.170	-0.680	0.100
2020/01/31 12:05:06.4	300.280	0.180	-0.700	0.090
2020/01/31 12:05:06.5	300.300	0.190	-0.720	0.090
2020/01/31 12:05:06.6	300.320	0.200	-0.750	0.080
2020/01/31 12:05:06.7	300.350	0.210	-0.770	0.080
2020/01/31 12:05:06.8	300.370	0.220	-0.790	0.080
2020/01/31 12:05:06.9	300.390	0.220	-0.810	0.080
2020/01/31 12:05:07.0	300.410	0.230	-0.820	0.090
2020/01/31 12:05:07.1	300.430	0.240	-0.840	0.090
2020/01/31 12:05:07.2	300.460	0.250	-0.860	0.100
2020/01/31 12:05:07.3	300.480	0.250	-0.870	0.110
2020/01/31 12:05:07.4	300.500	0.260	-0.880	0.110
2020/01/31 12:05:07.5	300.520	0.270	-0.900	0.120
2020/01/31 12:05:07.6	300.540	0.270	-0.900	0.130
2020/01/31 12:05:07.7	300.560	0.270	-0.910	0.140
2020/01/31 12:05:07.8	300.570	0.280	-0.910	0.160
2020/01/31 12:05:07.9	300.590	0.280	-0.920	0.170
2020/01/31 12:05:08.0	300.610	0.280	-0.920	0.180
2020/01/31 12:05:08.1	300.630	0.280	-0.920	0.200
2020/01/31 12:05:08.2	300.640	0.270	-0.920	0.210
2020/01/31 12:05:08.3	300.660	0.270	-0.920	0.220
2020/01/31 12:05:08.4	300.670	0.270	-0.920	0.240
2020/01/31 12:05:08.5	300.690	0.260	-0.910	0.250
2020/01/31 12:05:08.6	300.690	0.250	-0.900	0.260
2020/01/31 12:05:08.7	300.700	0.240	-0.890	0.280
2020/01/31 12:05:08.8	300.710	0.230	-0.870	0.290
2020/01/31 12:05:08.9	300.720	0.220	-0.850	0.310
2020/01/31 12:05:09.0	300.730	0.200	-0.830	0.320
2020/01/31 12:05:09.1	300.730	0.190	-0.810	0.340
2020/01/31 12:05:09.2	300.740	0.170	-0.780	0.360
2020/01/31 12:05:09.3	300.740	0.160	-0.750	0.380
2020/01/31 12:05:09.4	300.740	0.140	-0.710	0.400
2020/01/31 12:05:09.5	300.740	0.120	-0.680	0.420
2020/01/31 12:05:09.6	300.720	0.100	-0.640	0.450
2020/01/31 12:05:09.7	300.720	0.080	-0.590	0.470
2020/01/31 12:05:09.8	300.710	0.050	-0.550	0.500
2020/01/31 12:05:09.9	300.690	0.030	-0.500	0.530
2020/01/31 12:05:10.0	300.680	0.010	-0.450	0.560
2020/01/31 12:05:10.1	300.660	-0.020	-0.400	0.590
2020/01/31 12:05:10.2	300.640	-0.040	-0.350	0.620
2020/01/31 12:05:10.3	300.620	-0.060	-0.300	0.660
2020/01/31 12:05:10.4	300.600	-0.090	-0.240	0.690
2020/01/31 12:05:10.5	300.570	-0.110	-0.190	0.730
2020/01/31 12:05:10.6	300.550	-0.140	-0.130	0.760
2020/01/31 12:05:10.7	300.520	-0.160	-0.080	0.800
2020/01/31 12:05:10.8	300.490	-0.180	-0.020	0.830
2020/01/31 12:05:10.9	300.460	-0.200	0.030	0.870
2020/01/31 12:05:11.0	300.420	-0.220	0.080	0.900
2020/01/31 12:05:11.1	300.390	-0.240	0.130	0.940
2020/01/31 12:05:11.2	300.350	-0.260	0.170	0.970
2020/01/31 12:05:11.3	300.320	-0.270	0.220	1.000
2020/01/31 12:05:11.4	300.280	-0.290	0.260	1.030
2020/01/31 12:05:11.5	300.250	-0.300	0.290	1.060
2020/01/31 12:05:11.6	300.210	-0.310	0.330	1.090
2020/01/31 12:05:11.7	300.180	-0.310	0.350	1.120
2020/01/31 12:05:11.8	300.140	-0.320	0.380	1.140
2020/01/31 12:05:11.9	300.110	-0.320	0.400	1.160
2020/01/31 12:05:12.0	300.080	-0.320	0.410	1.180
2020/01/31 12:05:12.1	300.050	-0.320	0.420	1.200
2020/01/31 12:05:12.2	300.020	-0.310	0.430	1.210
2020/01/31 12:05:12.3	299.990	-0.310	0.430	1.220
2020/01/31 12:05:12.4	299.960	-0.300	0.430	1.230
2020/01/31 12:05:12.5	299.940	-0.280	0.420	1.240
2020/01/31 12:05:12.6	299.920	-0.270	0.410	1.230
2020/01/31 12:05:12.7	299.900	-0.260	0.390	1.230
2020/01/31 12:05:12.8	299.880	-0.240	0.370	1.230
2020/01/31 12:05:12.9	299.860	-0.220	0.350	1.220
2020/01/31 12:05:13.0	299.850	-0.200	0.320	1.200
2020/01/31 12:05:13.1	299.840	-0.180	0.290	1.190
2020/01/31 12:05:13.2	299.820	-0.160	0.260	1.170
2020/01/31 12:05:13.3	299.810	-0.140	0.230	1.150
2020/01/31 12:05:13.4	299.810	-0.110	0.190	1.130
2020/01/31 12:05:13.5	299.800	-0.090	0.160	1.100
2020/01/31 12:05:13.6	299.810	-0.070	0.120	1.070
2020/01/31 12:05:13.7	299.800	-0.050	0.080	1.050
2020/01/31 12:05:13.8	299.800	-0.020	0.050	1.020
2020/01/31 12:05:13.9	299.800	-0.000	0.010	0.980
2020/01/31 12:05:14.0	299.800	0.020	-0.020	0.950
2020/01/31 12:05:14.1	299.800	0.040	-0.060	0.910
2020/01/31 12:05:14.2	299.810	0.050	-0.090	0.880
2020/01/31 12:05:14.3	299.810	0.070	-0.120	0.840
2020/01/31 12:05:14.4	299.820	0.090	-0.150	0.800
2020/01/31 12:05:14.5	299.830	0.100	-0.170	0.760
2020/01/31 12:05:14.6	299.850	0.110	-0.200	0.720
2020/01/31 12:05:14.7	299.870	0.120	-0.220	0.680
2020/01/31 12:05:14.8	299.880	0.130	-0.240	0.640
2020/01/31 12:05:14.9	299.900	0.130	-0.250	0.590
2020/01/31 12:05:15.0	299.920	0.130	-0.270	0.550
2020/01/31 12:05:15.1	299.940	0.140	-0.280	0.510
2020/01/31 12:05:15.2	299.960	0.130	-0.290	0.470
2020/01/31 12:05:15.3	299.980	0.130	-0.290	0.430
2020/01/31 12:05:15.4	300.010	0.130	-0.300	0.390
2020/01/31 12:05:15.5	300.030	0.120	-0.300	0.350
2020/01/31 12:05:15.6	300.070	0.110	-0.300	0.310
2020/01/31 12:05:15.7	300.100	0.100	-0.300	0.270
2020/01/31 12:05:15.8	300.130	0.090	-0.300	0.230
2020/01/31 12:05:15.9	300.160	0.070	-0.300	0.190
2020/01/31 12:05:16.0	300.190	0.060	-0.290	0.160
2020/01/31 12:05:16.1	300.220	0.040	-0.280	0.120
2020/01/31 12:05:16.2	300.250	0.030	-0.280	0.090
2020/01/31 12:05:16.3	300.280	0.010	-0.270	0.060
2020/01/31 12:05:16.4	300.310	-0.010	-0.260	0.030
2020/01/31 12:05:16.5	300.340	-0.030	-0.250	0.010
2020/01/31 12:05:16.6	300.370	-0.050	-0.230	-0.010
2020/01/31 12:05:16.7	300.390	-0.070	-0.220	-0.030
2020/01/31 12:05:16.8	300.420	-0.090	-0.210	-0.050
2020/01/31 12:05:16.9	300.440	-0.110	-0.200	-0.060
2020/01/31 12:05:17.0	300.460	-0.120	-0.180	-0.070
2020/01/31 12:05:17.1	300.480	-0.140	-0.170	-0.080
2020/01/31 12:05:17.2	300.500	-0.160	-0.160	-0.080
2020/01/31 12:05:17.3	300.510	-0.180	-0.150	-0.080
2020/01/31 12:05:17.4	300.520	-0.190	-0.140	-0.070
2020/01/31 12:05:17.5	300.530	-0.200	-0.130	-0.070
2020/01/31 12:05:17.6	300.520	-0.220	-0.120	-0.060
2020/01/31 12:05:17.7	300.530	-0.230	-0.120	-0.040
2020/01/31 12:05:17.8	300.530	-0.230	-0.110	-0.030
2020/01/31 12:05:17.9	300.540	-0.240	-0.110	-0.010
2020/01/31 12:05:18.0	300.540	-0.250	-0.110	0.010
2020/01/31 12:05:18.1	300.540	-0.250	-0.110	0.040
2020/01/31 12:05:18.2	300.540	-0.250	-0.110	0.070
2020/01/31 12:05:18.3	300.530	-0.250	-0.120	0.100
2020/01/31 12:05:18.4	300.530	-0.250	-0.130	0.130
2020/01/31 12:05:18.5	300.520	-0.240	-0.140	0.160
2020/01/31 12:05:18.6	300.520	-0.230	-0.150	0.190
2020/01/31 12:05:18.7	300.520	-0.220	-0.160	0.220
2020/01/31 12:05:18.8	300.510	-0.210	-0.180	0.260
2020/01/31 12:05:18.9	300.500	-0.200	-0.190	0.300
2020/01/31 12:05:19.0	300.490	-0.190	-0.210	0.340
2020/01/31 12:05:19.1	300.470	-0.170	-0.230	0.370
2020/01/31 12:05:19.2	300.460	-0.150	-0.260	0.410
2020/01/31 12:05:19.3	300.450	-0.130	-0.280	0.450
2020/01/31 12:05:19.4	300.440	-0.110	-0.300	0.490
2020/01/31 12:05:19.5	300.420	-0.090	-0.330	0.530
2020/01/31 12:05:19.6	300.400	-0.060	-0.350	0.570
2020/01/31 12:05:19.7	300.390	-0.040	-0.370	0.610
2020/01/31 12:05:19.8	300.380	-0.010	-0.400	0.640
2020/01/31 12:05:19.9	300.370	0.010	-0.420	0.680
2020/01/31 12:05:20.0	300.350	0.040	-0.450	0.720
2020/01/31 12:05:20.1	300.340	0.060	-0.470	0.750
2020/01/31 12:05:20.2	300.330	0.090	-0.500	0.780
2020/01/31 12:05:20.3	300.310	0.120	-0.520	0.820
2020/01/31 12:05:20.4	300.300	0.140	-0.540	0.850
2020/01/31 12:05:20.5	300.290	0.170	-0.560	0.880
2020/01/31 12:05:20.6	300.270	0.200	-0.580	0.900
2020/01/31 12:05:20.7	300.260	0.220	-0.600	0.930
2020/01/31 12:05:20.8	300.240	0.240	-0.620	0.960
2020/01/31 12:05:20.9	300.230	0.270	-0.630	0.980
2020/01/31 12:05:21.0	300.220	0.290	-0.650	1.010
2020/01/31 12:05:21.1	300.210	0.310	-0.660	1.030
2020/01/31 12:05:21.2	300.200	0.330	-0.670	1.050
2020/01/31 12:05:21.3	300.190	0.350	-0.680	1.060
2020/01/31 12:05:21.4	300.180	0.370	-0.680	1.080
2020/01/31 12:05:21.5	300.180	0.380	-0.690	1.090
2020/01/31 12:05:21.6	300.170	0.400	-0.690	1.100
2020/01/31 12:05:21.7	300.160	0.410	-0.690	1.110
2020/01/31 12:05:21.8	300.150	0.420	-0.690	1.120
2020/01/31 12:05:21.9	300.150	0.430	-0.690	1.120
2020/01/31 12:05:22.0	300.140	0.430	-0.690	1.120
2020/01/31 12:05:22.1	300.140	0.440	-0.680	1.120
2020/01/31 12:05:22.2	300.130	0.440	-0.680	1.120
2020/01/31 12:05:22.3	300.130	0.450	-0.670	1.120
2020/01/31 12:05:22.4	300.120	0.450	-0.660	1.110
2020/01/31 12:05:22.5	300.120	0.440	-0.650	1.100
2020/01/31 12:05:22.6	300.110	0.440	-0.640	1.090
2020/01/31 12:05:22.7	300.110	0.440	-0.620	1.080
2020/01/31 12:05:22.8	300.110	0.430	-0.610	1.070
2020/01/31 12:05:22.9	300.110	0.420	-0.600	1.060
2020/01/31 12:05:23.0	300.100	0.410	-0.580	1.040
2020/01/31 12:05:23.1	300.100	0.400	-0.560	1.030
2020/01/31 12:05:23.2	300.100	0.390	-0.540	1.010
2020/01/31 12:05:23.3	300.100	0.370	-0.520	1.000
2020/01/31 12:05:23.4	300.090	0.360	-0.500	0.980
2020/01/31 12:05:23.5	300.090	0.340	-0.480	0.960
2020/01/31 12:05:23.6	300.090	0.320	-0.460	0.930
2020/01/31 12:05:23.7	300.090	0.300	-0.440	0.910
2020/01/31 12:05:23.8	300.090	0.280	-0.420	0.890
2020/01/31 12:05:23.9	300.090	0.260	-0.390	0.870
2020/01/31 12:05:24.0	300.090	0.240	-0.370	0.840
2020/01/31 12:05:24.1	300.090	0.210	-0.340	0.820
2020/01/31 12:05:24.2	300.100	0.190	-0.320	0.790
2020/01/31 12:05:24.3	300.100	0.170	-0.290	0.770
2020/01/31 12:05:24.4	300.100	0.140	-0.260	0.740
2020/01/31 12:05:24.5	300.110	0.120	-0.240	0.720
2020/01/31 12:05:24.6	300.130	0.090	-0.210	0.690
2020/01/31 12:05:24.7	300.130	0.060	-0.180	0.660
2020/01/31 12:05:24.8	300.140	0.040	-0.160	0.630
2020/01/31 12:05:24.9	300.140	0.010	-0.130	0.610
2020/01/31 12:05:25.0	300.150	-0.010	-0.100	0.580
2020/01/31 12:05:25.1	300.160	-0.040	-0.070	0.560
2020/01/31 12:05:25.2	300.160	-0.060	-0.040	0.530
2020/01/31 12:05:25.3	300.170	-0.090	-0.010	0.510
2020/01/31 12:05:25.4	300.180	-0.110	0.020	0.480
2020/01/31 12:05:25.5	300.190	-0.130	0.040	0.460
2020/01/31 12:05:25.6	300.190	-0.160	0.070	0.440
2020/01/31 12:05:25.7	300.200	-0.180	0.100	0.410
2020/01/31 12:05:25.8	300.210	-0.200	0.120	0.390
2020/01/31 12:05:25.9	300.220	-0.220	0.150	0.370
2020/01/31 12:05:26.0	300.220	-0.240	0.170	0.350
2020/01/31 12:05:26.1	300.230	-0.250	0.200	0.340
2020/01/31 12:05:26.2	300.240	-0.270	0.220	0.320
2020/01/31 12:05:26.3	300.250	-0.290	0.240	0.300
2020/01/31 12:05:26.4	300.260	-0.300	0.260	0.290
2020/01/31 12:05:26.5	300.270	-0.310	0.280	0.280
2020/01/31 12:05:26.6	300.280	-0.330	0.290	0.270
2020/01/31 12:05:26.7	300.290	-0.340	0.310	0.260
2020/01/31 12:05:26.8	300.300	-0.350	0.320	0.250
2020/01/31 12:05:26.9	300.310	-0.350	0.330	0.240
2020/01/31 12:05:27.0	300.320	-0.360	0.340	0.240
2020/01/31 12:05:27.1	300.320	-0.370	0.350	0.240
2020/01/31 12:05:27.2	300.330	-0.370	0.360	0.240
2020/01/31 12:05:27.3	300.340	-0.370	0.360	0.240
2020/01/31 12:05:27.4	300.350	-0.370	0.360	0.250
2020/01/31 12:05:27.5	300.350	-0.370	0.360	0.250
2020/01/31 12:05:27.6	300.350	-0.370	0.360	0.260
2020/01/31 12:05:27.7	300.350	-0.370	0.350	0.260
2020/01/31 12:05:27.8	300.360	-0.360	0.340	0.270
2020/01/31 12:05:27.9	300.360	-0.360	0.330	0.280
2020/01/31 12:05:28.0	300.360	-0.350	0.310	0.300
2020/01/31 12:05:28.1	300.370	-0.340	0.290	0.310
2020/01/31 12:05:28.2	300.370	-0.330	0.270	0.320
2020/01/31 12:05:28.3	300.370	-0.320	0.250	0.340
2020/01/31 12:05:28.4	300.380	-0.310	0.230	0.350
2020/01/31 12:05:28.5	300.380	-0.300	0.200	0.370
2020/01/31 12:05:28.6	300.370	-0.280	0.170	0.380
2020/01/31 12:05:28.7	300.370	-0.270	0.140	0.400
2020/01/31 12:05:28.8	300.380	-0.250	0.110	0.420
2020/01/31 12:05:28.9	300.380	-0.240	0.070	0.440
2020/01/31 12:05:29.0	300.380	-0.220	0.040	0.460
2020/01/31 12:05:29.1	300.380	-0.200	0.000	0.480
2020/01/31 12:05:29.2	300.390	-0.180	-0.040	0.500
2020/01/31 12:05:29.3	300.390	-0.160	-0.070	0.520
2020/01/31 12:05:29.4	300.390	-0.140	-0.110	0.540
2020/01/31 12:05:29.5	300.390	-0.120	-0.150	0.560
2020/01/31 12:05:29.6	300.380	-0.100	-0.190	0.570
2020/01/31 12:05:29.7	300.380	-0.080	-0.220	0.590
2020/01/31 12:05:29.8	300.380	-0.060	-0.260	0.610
2020/01/31 12:05:29.9	300.390	-0.040	-0.300	0.630
2020/01/31 12:05:30.0	300.390	-0.020	-0.340	0.650
2020/01/31 12:05:30.1	300.390	-0.000	-0.370	0.670
2020/01/31 12:05:30.2	300.390	0.020	-0.410	0.690
2020/01/31 12:05:30.3	300.390	0.040	-0.440	0.700
2020/01/31 12:05:30.4	300.400	0.050	-0.480	0.720
2020/01/31 12:05:30.5	300.400	0.070	-0.510	0.730
2020/01/31 12:05:30.6	300.390	0.090	-0.540	0.740
2020/01/31 12:05:30.7	300.390	0.100	-0.570	0.760
2020/01/31 12:05:30.8	300.390	0.110	-0.590	0.770
2020/01/31 12:05:30.9	300.390	0.130	-0.620	0.780
2020/01/31 12:05:31.0	300.390	0.140	-0.640	0.790
2020/01/31 12:05:31.1	300.390	0.150	-0.660	0.790
2020/01/31 12:05:31.2	300.390	0.160	-0.680	0.800
2020/01/31 12:05:31.3	300.390	0.170	-0.700	0.800
2020/01/31 12:05:31.4	300.390	0.170	-0.710	0.810
2020/01/31 12:05:31.5	300.390	0.180	-0.720	0.810
2020/01/31 12:05:31.6	300.400	0.180	-0.730	0.810
2020/01/31 12:05:31.7	300.400	0.180	-0.740	0.810
2020/01/31 12:05:31.8	300.400	0.190	-0.750	0.810
2020/01/31 12:05:31.9	300.400	0.190	-0.750	0.800
2020/01/31 12:05:32.0	300.400	0.190	-0.760	0.800
2020/01/31 12:05:32.1	300.400	0.180	-0.760	0.790
2020/01/31 12:05:32.2	300.390	0.180	-0.760	0.780
2020/01/31 12:05:32.3	300.390	0.180	-0.760	0.780
2020/01/31 12:05:32.4	300.390	0.170	-0.750	0.770
2020/01/31 12:05:32.5	300.390	0.170	-0.750	0.760
2020/01/31 12:05:32.6	300.390	0.160	-0.750	0.750
2020/01/31 12:05:32.7	300.380	0.160	-0.740	0.740
2020/01/31 12:05:32.8	300.380	0.150	-0.730	0.730
2020/01/31 12:05:32.9	300.380	0.140	-0.720	0.710
2020/01/31 12:05:33.0	300.370	0.130	-0.710	0.700
2020/01/31 12:05:33.1	300.370	0.120	-0.690	0.680
2020/01/31 12:05:33.2	300.370	0.120	-0.680	0.670
2020/01/31 12:05:33.3	300.360	0.110	-0.660	0.650
2020/01/31 12:05:33.4	300.360	0.100	-0.650	0.640
2020/01/31 12:05:33.5	300.360	0.090	-0.630	0.620
2020/01/31 12:05:33.6	300.350	0.080	-0.610	0.600
2020/01/31 12:05:33.7	300.350	0.070	-0.590	0.590
2020/01/31 12:05:33.8	300.340	0.060	-0.580	0.570
2020/01/31 12:05:33.9	300.340	0.050	-0.560	0.550
2020/01/31 12:05:34.0	300.340	0.040	-0.540	0.530
2020/01/31 12:05:34.1	300.340	0.030	-0.520	0.510
2020/01/31 12:05:34.2	300.340	0.020	-0.500	0.500
2020/01/31 12:05:34.3	300.340	0.010	-0.480	0.480
2020/01/31 12:05:34.4	300.330	0.000	-0.460	0.470
2020/01/31 12:05:34.5	300.330	-0.010	-0.440	0.450
2020/01/31 12:05:34.6	300.330	-0.020	-0.420	0.440
2020/01/31 12:05:34.7	300.330	-0.020	-0.400	0.430
2020/01/31 12:05:34.8	300.330	-0.030	-0.380	0.420
2020/01/31 12:05:34.9	300.330	-0.040	-0.350	0.410
2020/01/31 12:05:35.0	300.330	-0.050	-0.330	0.400
2020/01/31 12:05:35.1	300.340	-0.060	-0.310	0.400
2020/01/31 12:05:35.2	300.340	-0.060	-0.290	0.390
2020/01/31 12:05:35.3	300.340	-0.070	-0.270	0.390
2020/01/31 12:05:35.4	300.340	-0.080	-0.250	0.390
2020/01/31 12:05:35.5	300.340	-0.080	-0.230	0.390
2020/01/31 12:05:35.6	300.360	-0.090	-0.210	0.390
2020/01/31 12:05:35.7	300.360	-0.100	-0.190	0.400
2020/01/31 12:05:35.8	300.370	-0.100	-0.170	0.410
2020/01/31 12:05:35.9	300.370	-0.100	-0.140	0.410
2020/01/31 12:05:36.0	300.370	-0.110	-0.120	0.420
2020/01/31 12:05:36.1	300.370	-0.110	-0.100	0.430
2020/01/31 12:05:36.2	300.370	-0.110	-0.080	0.440
2020/01/31 12:05:36.3	300.380	-0.120	-0.060	0.450
2020/01/31 12:05:36.4	300.380	-0.120	-0.040	0.470
2020/01/31 12:05:36.5	300.380	-0.120	-0.020	0.480
2020/01/31 12:05:36.6	300.390	-0.120	0.010	0.490
2020/01/31 12:05:36.7	300.390	-0.120	0.030	0.510
2020/01/31 12:05:36.8	300.390	-0.120	0.050	0.520
2020/01/31 12:05:36.9	300.390	-0.120	0.070	0.540
2020/01/31 12:05:37.0	300.380	-0.120	0.090	0.560
2020/01/31 12:05:37.1	300.380	-0.120	0.110	0.570
2020/01/31 12:05:37.2	300.380	-0.120	0.130	0.590
2020/01/31 12:05:37.3	300.380	-0.120	0.140	0.610
2020/01/31 12:05:37.4	300.370	-0.120	0.160	0.620
2020/01/31 12:05:37.5	300.370	-0.110	0.180	0.640
2020/01/31 12:05:37.6	300.360	-0.110	0.190	0.650
2020/01/31 12:05:37.7	300.350	-0.110	0.210	0.670
2020/01/31 12:05:37.8	300.350	-0.100	0.220	0.680
2020/01/31 12:05:37.9	300.340	-0.100	0.230	0.700
2020/01/31 12:05:38.0	300.340	-0.090	0.240	0.710
2020/01/31 12:05:38.1	300.330	-0.090	0.240	0.720
2020/01/31 12:05:38.2	300.330	-0.080	0.250	0.730
2020/01/31 12:05:38.3	300.330	-0.070	0.250	0.740
2020/01/31 12:05:38.4	300.320	-0.070	0.250	0.750
2020/01/31 12:05:38.5	300.320	-0.060	0.250	0.760
2020/01/31 12:05:38.6	300.330	-0.050	0.250	0.760
2020/01/31 12:05:38.7	300.320	-0.040	0.250	0.760
2020/01/31 12:05:38.8	300.330	-0.030	0.240	0.760
2020/01/31 12:05:38.9	300.330	-0.020	0.230	0.760
2020/01/31 12:05:39.0	300.330	-0.000	0.210	0.750
2020/01/31 12:05:39.1	300.330	0.010	0.200	0.750
2020/01/31 12:05:39.2	300.340	0.020	0.180	0.740
2020/01/31 12:05:39.3	300.340	0.040	0.160	0.730
2020/01/31 12:05:39.4	300.350	0.050	0.140	0.720
2020/01/31 12:05:39.5	300.350	0.070	0.120	0.710
2020/01/31 12:05:39.6	300.360	0.090	0.090	0.690
2020/01/31 12:05:39.7	300.370	0.110	0.070	0.670
2020/01/31 12:05:39.8	300.380	0.120	0.040	0.660
2020/01/31 12:05:39.9	300.380	0.140	0.010	0.640
2020/01/31 12:05:40.0	300.390	0.160	-0.020	0.620
2020/01/31 12:05:40.1	300.400	0.180	-0.050	0.590
2020/01/31 12:05:40.2	300.410	0.200	-0.080	0.570
2020/01/31 12:05:40.3	300.420	0.220	-0.120	0.550
2020/01/31 12:05:40.4	300.430	0.240	-0.150	0.520
2020/01/31 12:05:40.5	300.440	0.250	-0.180	0.500
2020/01/31 12:05:40.6	300.450	0.270	-0.220	0.470
2020/01/31 12:05:40.7	300.460	0.290	-0.250	0.440
2020/01/31 12:05:40.8	300.480	0.310	-0.280	0.420
2020/01/31 12:05:40.9	300.490	0.320	-0.310	0.390
2020/01/31 12:05:41.0	300.500	0.340	-0.350	0.360
2020/01/31 12:05:41.1	300.520	0.350	-0.380	0.330
2020/01/31 12:05:41.2	300.530	0.370	-0.410	0.310
2020/01/31 12:05:41.3	300.550	0.380	-0.440	0.280
2020/01/31 12:05:41.4	300.570	0.390	-0.470	0.250
2020/01/31 12:05:41.5	300.580	0.400	-0.490	0.220
2020/01/31 12:05:41.6	300.590	0.410	-0.520	0.200
2020/01/31 12:05:41.7	300.610	0.420	-0.540	0.170
2020/01/31 12:05:41.8	300.630	0.420	-0.560	0.150
2020/01/31 12:05:41.9	300.650	0.430	-0.580	0.120
2020/01/31 12:05:42.0	300.660	0.430	-0.600	0.100
2020/01/31 12:05:42.1	300.680	0.430	-0.620	0.080
2020/01/31 12:05:42.2	300.700	0.430	-0.630	0.060
2020/01/31 12:05:42.3	300.720	0.430	-0.650	0.040
2020/01/31 12:05:42.4	300.730	0.420	-0.660	0.020
2020/01/31 12:05:42.5	300.750	0.410	-0.670	0.000
2020/01/31 12:05:42.6	300.770	0.410	-0.680	-0.010
2020/01/31 12:05:42.7	300.780	0.400	-0.680	-0.030
2020/01/31 12:05:42.8	300.800	0.380	-0.690	-0.040
2020/01/31 12:05:42.9	300.820	0.370	-0.690	-0.050
2020/01/31 12:05:43.0	300.830	0.350	-0.690	-0.060
2020/01/31 12:05:43.1	300.840	0.340	-0.690	-0.060
2020/01/31 12:05:43.2	300.860	0.320	-0.690	-0.060
2020/01/31 12:05:43.3	300.870	0.300	-0.680	-0.060
2020/01/31 12:05:43.4	300.880	0.280	-0.680	-0.060
2020/01/31 12:05:43.5	300.880	0.250	-0.670	-0.060
2020/01/31 12:05:43.6	300.900	0.230	-0.660	-0.050
2020/01/31 12:05:43.7	300.900	0.200	-0.640	-0.040
2020/01/31 12:05:43.8	300.900	0.180	-0.630	-0.030
2020/01/31 12:05:43.9	300.910	0.150	-0.620	-0.010
2020/01/31 12:05:44.0	300.910	0.120	-0.600	0.010
2020/01/31 12:05:44.1	300.900	0.090	-0.580	0.030
2020/01/31 12:05:44.2	300.900	0.060	-0.560	0.050
2020/01/31 12:05:44.3	300.900	0.030	-0.540	0.080
2020/01/31 12:05:44.4	300.890	-0.000	-0.520	0.100
2020/01/31 12:05:44.5	300.890	-0.030	-0.500	0.130
2020/01/31 12:05:44.6	300.870	-0.060	-0.470	0.160
2020/01/31 12:05:44.7	300.860	-0.100	-0.450	0.190
2020/01/31 12:05:44.8	300.850	-0.130	-0.420	0.230
2020/01/31 12:05:44.9	300.840	-0.160	-0.400	0.260
2020/01/31 12:05:45.0	300.830	-0.190	-0.370	0.300
2020/01/31 12:05:45.1	300.810	-0.220	-0.340	0.340
2020/01/31 12:05:45.2	300.800	-0.260	-0.310	0.370
2020/01/31 12:05:45.3	300.780	-0.290	-0.280	0.410
2020/01/31 12:05:45.4	300.760	-0.320	-0.250	0.450
2020/01/31 12:05:45.5	300.740	-0.350	-0.220	0.490
2020/01/31 12:05:45.6	300.720	-0.370	-0.180	0.530
2020/01/31 12:05:45.7	300.700	-0.400	-0.150	0.570
2020/01/31 12:05:45.8	300.680	-0.430	-0.120	0.600
2020/01/31 12:05:45.9	300.660	-0.450	-0.090	0.640
2020/01/31 12:05:46.0	300.630	-0.480	-0.060	0.680
2020/01/31 12:05:46.1	300.610	-0.500	-0.030	0.720
2020/01/31 12:05:46.2	300.580	-0.520	-0.010	0.750
2020/01/31 12:05:46.3	300.560	-0.540	0.020	0.790
2020/01/31 12:05:46.4	300.530	-0.550	0.050	0.820
2020/01/31 12:05:46.5	300.500	-0.570	0.070	0.860
2020/01/31 12:05:46.6	300.480	-0.580	0.090	0.880
2020/01/31 12:05:46.7	300.450	-0.590	0.110	0.910
2020/01/31 12:05:46.8	300.420	-0.600	0.130	0.940
2020/01/31 12:05:46.9	300.400	-0.600	0.150	0.970
2020/01/31 12:05:47.0	300.370	-0.610	0.160	0.990
2020/01/31 12:05:47.1	300.350	-0.610	0.170	1.010
2020/01/31 12:05:47.2	300.320	-0.610	0.180	1.030
2020/01/31 12:05:47.3	300.300	-0.600	0.180	1.050
2020/01/31 12:05:47.4	300.270	-0.600	0.180	1.060
2020/01/31 12:05:47.5	300.250	-0.590	0.180	1.080
2020/01/31 12:05:47.6	300.230	-0.580	0.180	1.090
2020/01/31 12:05:47.7	300.200	-0.570	0.170	1.100
2020/01/31 12:05:47.8	300.180	-0.550	0.160	1.110
2020/01/31 12:05:47.9	300.170	-0.530	0.150	1.120
2020/01/31 12:05:48.0	300.150	-0.510	0.140	1.120
2020/01/31 12:05:48.1	300.130	-0.490	0.130	1.130
2020/01/31 12:05:48.2	300.110	-0.470	0.110	1.130
2020/01/31 12:05:48.3	300.100	-0.450	0.090	1.130
2020/01/31 12:05:48.4	300.080	-0.420	0.070	1.130
2020/01/31 12:05:48.5	300.070	-0.400	0.050	1.130
2020/01/31 12:05:48.6	300.060	-0.370	0.030	1.120
2020/01/31 12:05:48.7	300.060	-0.340	0.010	1.110
2020/01/31 12:05:48.8	300.050	-0.310	-0.020	1.100
2020/01/31 12:05:48.9	300.040	-0.280	-0.040	1.090
2020/01/31 12:05:49.0	300.040	-0.250	-0.070	1.080
2020/01/31 12:05:49.1	300.040	-0.220	-0.090	1.070
2020/01/31 12:05:49.2	300.040	-0.190	-0.120	1.050
2020/01/31 12:05:49.3	300.050	-0.160	-0.140	1.030
2020/01/31 12:05:49.4	300.050	-0.130	-0.170	1.010
2020/01/31 12:05:49.5	300.060	-0.100	-0.190	0.990
2020/01/31 12:05:49.6	300.080	-0.070	-0.220	0.960
2020/01/31 12:05:49.7	300.100	-0.040	-0.240	0.940
2020/01/31 12:05:49.8	300.110	-0.020	-0.260	0.910
2020/01/31 12:05:49.9	300.130	0.010	-0.280	0.880
2020/01/31 12:05:50.0	300.150	0.040	-0.310	0.850
2020/01/31 12:05:50.1	300.170	0.060	-0.320	0.820
2020/01/31 12:05:50.2	300.200	0.090	-0.340	0.780
2020/01/31 12:05:50.3	300.220	0.110	-0.360	0.750
2020/01/31 12:05:50.4	300.250	0.130	-0.380	0.720
2020/01/31 12:05:50.5	300.280	0.150	-0.390	0.690
2020/01/31 12:05:50.6	300.310	0.170	-0.400	0.660
2020/01/31 12:05:50.7	300.340	0.190	-0.410	0.630
2020/01/31 12:05:50.8	300.370	0.200	-0.420	0.600
2020/01/31 12:05:50.9	300.400	0.220	-0.430	0.570
2020/01/31 12:05:51.0	300.430	0.230	-0.430	0.540
2020/01/31 12:05:51.1	300.450	0.250	-0.440	0.520
2020/01/31 12:05:51.2	300.480	0.260	-0.440	0.490
2020/01/31 12:05:51.3	300.510	0.270	-0.440	0.470
2020/01/31 12:05:51.4	300.540	0.280	-0.440	0.450
2020/01/31 12:05:51.5	300.570	0.280	-0.440	0.430
2020/01/31 12:05:51.6	300.590	0.290	-0.430	0.410
2020/01/31 12:05:51.7	300.610	0.290	-0.430	0.390
2020/01/31 12:05:51.8	300.640	0.300	-0.430	0.380
2020/01/31 12:05:51.9	300.660	0.300	-0.420	0.360
2020/01/31 12:05:52.0	300.680	0.300	-0.410	0.350
2020/01/31 12:05:52.1	300.710	0.310	-0.410	0.340
2020/01/31 12:05:52.2	300.730	0.310	-0.400	0.330
2020/01/31 12:05:52.3	300.750	0.310	-0.390	0.320
2020/01/31 12:05:52.4	300.770	0.310	-0.390	0.310
2020/01/31 12:05:52.5	300.790	0.310	-0.380	0.310
2020/01/31 12:05:52.6	300.800	0.310	-0.370	0.300
2020/01/31 12:05:52.7	300.820	0.310	-0.370	0.300
2020/01/31 12:05:52.8	300.830	0.300	-0.360	0.300
2020/01/31 12:05:52.9	300.850	0.300	-0.360	0.310
2020/01/31 12:05:53.0	300.860	0.300	-0.350	0.310
2020/01/31 12:05:53.1	300.870	0.300	-0.350	0.320
2020/01/31 12:05:53.2	300.880	0.300	-0.350	0.330
2020/01/31 12:05:53.3	300.890	0.300	-0.350	0.340
2020/01/31 12:05:53.4	300.900	0.300	-0.350	0.350
2020/01/31 12:05:53.5	300.910	0.300	-0.350	0.360
2020/01/31 12:05:53.6	300.910	0.300	-0.360	0.380
2020/01/31 12:05:53.7	300.910	0.290	-0.360	0.400
2020/01/31 12:05:53.8	300.920	0.290	-0.370	0.410
2020/01/31 12:05:53.9	300.920	0.290	-0.370	0.430
2020/01/31 12:05:54.0	300.930	0.290	-0.380	0.450
2020/01/31 12:05:54.1	300.930	0.290	-0.390	0.470
2020/01/31 12:05:54.2	300.930	0.290	-0.390	0.490
2020/01/31 12:05:54.3	300.930	0.290	-0.400	0.500
2020/01/31 12:05:54.4	300.940	0.290	-0.410	0.520
2020/01/31 12:05:54.5	300.940	0.290	-0.420	0.540
2020/01/31 12:05:54.6	300.950	0.280	-0.430	0.560
2020/01/31 12:05:54.7	300.950	0.280	-0.440	0.570
2020/01/31 12:05:54.8	300.950	0.280	-0.450	0.590
2020/01/31 12:05:54.9	300.950	0.280	-0.460	0.600
2020/01/31 12:05:55.0	300.960	0.270	-0.460	0.610
2020/01/31 12:05:55.1	300.960	0.270	-0.470	0.620
2020/01/31 12:05:55.2	300.970	0.260	-0.480	0.630
2020/01/31 12:05:55.3	300.970	0.260	-0.490	0.640
2020/01/31 12:05:55.4	300.980	0.250	-0.490	0.650
2020/01/31 12:05:55.5	300.990	0.250	-0.500	0.660
2020/01/31 12:05:55.6	300.990	0.240	-0.500	0.660
2020/01/31 12:05:55.7	301.000	0.230	-0.500	0.660
2020/01/31 12:05:55.8	301.010	0.230	-0.500	0.670
2020/01/31 12:05:55.9	301.020	0.220	-0.500	0.670
2020/01/31 12:05:56.0	301.030	0.210	-0.490	0.670
2020/01/31 12:05:56.1	301.030	0.200	-0.490	0.670
2020/01/31 12:05:56.2	301.040	0.190	-0.480	0.680
2020/01/31 12:05:56.3	301.050	0.180	-0.460	0.680
2020/01/31 12:05:56.4	301.060	0.170	-0.450	0.680
2020/01/31 12:05:56.5	301.070	0.160	-0.430	0.680
2020/01/31 12:05:56.6	301.070	0.150	-0.410	0.680
2020/01/31 12:05:56.7	301.080	0.140	-0.390	0.680
2020/01/31 12:05:56.8	301.080	0.130	-0.360	0.690
2020/01/31 12:05:56.9	301.080	0.110	-0.330	0.690
2020/01/31 12:05:57.0	301.090	0.100	-0.300	0.690
2020/01/31 12:05:57.1	301.090	0.090	-0.270	0.690
2020/01/31 12:05:57.2	301.090	0.070	-0.230	0.700
2020/01/31 12:05:57.3	301.090	0.060	-0.200	0.700
2020/01/31 12:05:57.4	301.080	0.050	-0.160	0.710
2020/01/31 12:05:57.5	301.080	0.030	-0.120	0.710
2020/01/31 12:05:57.6	301.060	0.020	-0.080	0.720
2020/01/31 12:05:57.7	301.060	0.010	-0.040	0.720
2020/01/31 12:05:57.8	301.050	-0.010	-0.000	0.730
2020/01/31 12:05:57.9	301.040	-0.020	0.040	0.740
2020/01/31 12:05:58.0	301.020	-0.030	0.080	0.740
2020/01/31 12:05:58.1	301.010	-0.050	0.120	0.750
2020/01/31 12:05:58.2	301.000	-0.060	0.160	0.760
2020/01/31 12:05:58.3	300.980	-0.070	0.200	0.760
2020/01/31 12:05:58.4	300.960	-0.080	0.230	0.770
2020/01/31 12:05:58.5	300.950	-0.100	0.260	0.770
2020/01/31 12:05:58.6	300.920	-0.110	0.300	0.780
2020/01/31 12:05:58.7	300.900	-0.120	0.330	0.780
2020/01/31 12:05:58.8	300.880	-0.130	0.350	0.780
2020/01/31 12:05:58.9	300.860	-0.140	0.370	0.780
2020/01/31 12:05:59.0	300.840	-0.150	0.390	0.780
2020/01/31 12:05:59.1	300.820	-0.160	0.410	0.780
2020/01/31 12:05:59.2	300.790	-0.160	0.420	0.780
2020/01/31 12:05:59.3	300.770	-0.170	0.430	0.770
2020/01/31 12:05:59.4	300.740	-0.180	0.430	0.770
2020/01/31 12:05:59.5	300.710	-0.180	0.430	0.760
2020/01/31 12:05:59.6	300.690	-0.190	0.430	0.740
2020/01/31 12:05:59.7	300.660	-0.190	0.420	0.730
2020/01/31 12:05:59.8	300.640	-0.200	0.410	0.720
2020/01/31 12:05:59.9	300.610	-0.200	0.400	0.700
2020/01/31 12:06:00.0	300.590	-0.210	0.380	0.680
2020/01/31 12:06:00.1	300.560	-0.210	0.360	0.660
2020/01/31 12:06:00.2	300.530	-0.210	0.330	0.640
2020/01/31 12:06:00.3	300.510	-0.210	0.310	0.610
2020/01/31 12:06:00.4	300.490	-0.210	0.280	0.580
2020/01/31 12:06:00.5	300.460	-0.210	0.240	0.560
2020/01/31 12:06:00.6	300.450	-0.210	0.210	0.530
2020/01/31 12:06:00.7	300.430	-0.210	0.170	0.490
2020/01/31 12:06:00.8	300.410	-0.210	0.130	0.460
2020/01/31 12:06:00.9	300.390	-0.210	0.090	0.420
2020/01/31 12:06:01.0	300.380	-0.210	0.050	0.380
2020/01/31 12:06:01.1	300.360	-0.210	0.000	0.340
2020/01/31 12:06:01.2	300.350	-0.200	-0.040	0.300
2020/01/31 12:06:01.3	300.340	-0.200	-0.090	0.260
2020/01/31 12:06:01.4	300.330	-0.200	-0.130	0.210
2020/01/31 12:06:01.5	300.320	-0.200	-0.180	0.170
2020/01/31 12:06:01.6	300.330	-0.190	-0.230	0.120
2020/01/31 12:06:01.7	300.320	-0.190	-0.270	0.080
2020/01/31 12:06:01.8	300.320	-0.190	-0.320	0.040
2020/01/31 12:06:01.9	300.320	-0.190	-0.360	-0.000
2020/01/31 12:06:02.0	300.320	-0.180	-0.400	-0.040
2020/01/31 12:06:02.1	300.330	-0.180	-0.440	-0.090
2020/01/31 12:06:02.2	300.330	-0.180	-0.480	-0.120
2020/01/31 12:06:02.3	300.340	-0.180	-0.520	-0.160
2020/01/31 12:06:02.4	300.350	-0.180	-0.550	-0.190
2020/01/31 12:06:02.5	300.360	-0.180	-0.590	-0.230
2020/01/31 12:06:02.6	300.370	-0.170	-0.620	-0.250
2020/01/31 12:06:02.7	300.380	-0.170	-0.650	-0.280
2020/01/31 12:06:02.8	300.400	-0.170	-0.670	-0.310
2020/01/31 12:06:02.9	300.410	-0.180	-0.700	-0.330
2020/01/31 12:06:03.0	300.430	-0.180	-0.720	-0.350
2020/01/31 12:06:03.1	300.450	-0.180	-0.740	-0.370
2020/01/31 12:06:03.2	300.470	-0.180	-0.750	-0.380
2020/01/31 12:06:03.3	300.490	-0.180	-0.770	-0.390
2020/01/31 12:06:03.4	300.510	-0.180	-0.780	-0.400
2020/01/31 12:06:03.5	300.530	-0.180	-0.790	-0.400
2020/01/31 12:06:03.6	300.540	-0.190	-0.800	-0.410
2020/01/31 12:06:03.7	300.560	-0.190	-0.800	-0.400
2020/01/31 12:06:03.8	300.590	-0.190	-0.810	-0.400
2020/01/31 12:06:03.9	300.610	-0.190	-0.810	-0.390
2020/01/31 12:06:04.0	300.630	-0.190	-0.810	-0.380
2020/01/31 12:06:04.1	300.660	-0.190	-0.810	-0.370
2020/01/31 12:06:04.2	300.680	-0.190	-0.810	-0.350
2020/01/31 12:06:04.3	300.700	-0.190	-0.800	-0.330
2020/01/31 12:06:04.4	300.730	-0.190	-0.800	-0.310
2020/01/31 12:06:04.5	300.750	-0.190	-0.790	-0.280
2020/01/31 12:06:04.6	300.780	-0.190	-0.790	-0.260
2020/01/31 12:06:04.7	300.800	-0.190	-0.780	-0.230
2020/01/31 12:06:04.8	300.820	-0.180	-0.770	-0.200
2020/01/31 12:06:04.9	300.850	-0.180	-0.760	-0.170
2020/01/31 12:06:05.0	300.870	-0.170	-0.740	-0.130
2020/01/31 12:06:05.1	300.890	-0.170	-0.730	-0.100
2020/01/31 12:06:05.2	300.920	-0.160	-0.720	-0.060
2020/01/31 12:06:05.3	300.940	-0.160	-0.700	-0.020
2020/01/31 12:06:05.4	300.960	-0.150	-0.690	0.020
2020/01/31 12:06:05.5	300.980	-0.140	-0.670	0.060
2020/01/31 12:06:05.6	301.010	-0.130	-0.650	0.110
2020/01/31 12:06:05.7	301.030	-0.120	-0.630	0.150
2020/01/31 12:06:05.8	301.050	-0.110	-0.610	0.190
2020/01/31 12:06:05.9	301.070	-0.100	-0.590	0.240
2020/01/31 12:06:06.0	301.090	-0.090	-0.570	0.280
2020/01/31 12:06:06.1	301.100	-0.080	-0.550	0.330
2020/01/31 12:06:06.2	301.110	-0.070	-0.530	0.380
2020/01/31 12:06:06.3	301.130	-0.050	-0.510	0.420
2020/01/31 12:06:06.4	301.140	-0.040	-0.480	0.470
2020/01/31 12:06:06.5	301.150	-0.030	-0.460	0.520
2020/01/31 12:06:06.6	301.170	-0.010	-0.440	0.560
2020/01/31 12:06:06.7	301.180	0.000	-0.420	0.610
2020/01/31 12:06:06.8	301.180	0.020	-0.400	0.650
2020/01/31 12:06:06.9	301.190	0.030	-0.370	0.690
2020/01/31 12:06:07.0	301.190	0.040	-0.350	0.740
2020/01/31 12:06:07.1	301.200	0.060	-0.330	0.780
2020/01/31 12:06:07.2	301.200	0.070	-0.310	0.820
2020/01/31 12:06:07.3	301.200	0.090	-0.290	0.860
2020/01/31 12:06:07.4	301.210	0.100	-0.270	0.890
2020/01/31 12:06:07.5	301.210	0.110	-0.250	0.930
2020/01/31 12:06:07.6	301.210	0.130	-0.230	0.960
2020/01/31 12:06:07.7	301.200	0.140	-0.210	0.990
2020/01/31 12:06:07.8	301.200	0.150	-0.200	1.020
2020/01/31 12:06:07.9	301.200	0.160	-0.180	1.040
2020/01/31 12:06:08.0	301.200	0.170	-0.160	1.060
2020/01/31 12:06:08.1	301.200	0.180	-0.150	1.080
2020/01/31 12:06:08.2	301.200	0.190	-0.130	1.100
2020/01/31 12:06:08.3	301.190	0.200	-0.120	1.120
2020/01/31 12:06:08.4	301.190	0.210	-0.100	1.130
2020/01/31 12:06:08.5	301.180	0.210	-0.090	1.140
2020/01/31 12:06:08.6	301.170	0.220	-0.070	1.140
2020/01/31 12:06:08.7	301.160	0.230	-0.060	1.150
2020/01/31 12:06:08.8	301.150	0.230	-0.040	1.150
2020/01/31 12:06:08.9	301.140	0.230	-0.030	1.150
2020/01/31 12:06:09.0	301.130	0.230	-0.010	1.160
2020/01/31 12:06:09.1	301.120	0.240	0.000	1.150
2020/01/31 12:06:09.2	301.110	0.240	0.020	1.150
2020/01/31 12:06:09.3	301.100	0.240	0.040	1.150
2020/01/31 12:06:09.4	301.090	0.230	0.050	1.140
2020/01/31 12:06:09.5	301.070	0.230	0.070	1.130
2020/01/31 12:06:09.6	301.050	0.230	0.090	1.120
2020/01/31 12:06:09.7	301.030	0.220	0.110	1.110
2020/01/31 12:06:09.8	301.020	0.220	0.130	1.100
2020/01/31 12:06:09.9	301.000	0.210	0.150	1.090
2020/01/31 12:06:10.0	300.980	0.210	0.170	1.080
2020/01/31 12:06:10.1	300.960	0.200	0.190	1.060
2020/01/31 12:06:10.2	300.940	0.190	0.210	1.050
2020/01/31 12:06:10.3	300.920	0.180	0.230	1.030
2020/01/31 12:06:10.4	300.900	0.180	0.250	1.020
2020/01/31 12:06:10.5	300.880	0.170	0.270	1.000
2020/01/31 12:06:10.6	300.860	0.160	0.280	0.980
2020/01/31 12:06:10.7	300.830	0.150	0.300	0.970
2020/01/31 12:06:10.8	300.810	0.140	0.320	0.950
2020/01/31 12:06:10.9	300.780	0.130	0.330	0.940
2020/01/31 12:06:11.0	300.760	0.120	0.340	0.920
2020/01/31 12:06:11.1	300.740	0.120	0.350	0.900
2020/01/31 12:06:11.2	300.710	0.110	0.360	0.890
2020/01/31 12:06:11.3	300.690	0.100	0.370	0.870
2020/01/31 12:06:11.4	300.660	0.090	0.370	0.850
2020/01/31 12:06:11.5	300.640	0.080	0.370	0.830
2020/01/31 12:06:11.6	300.620	0.080	0.370	0.820
2020/01/31 12:06:11.7	300.600	0.070	0.370	0.800
2020/01/31 12:06:11.8	300.580	0.060	0.360	0.770
2020/01/31 12:06:11.9	300.550	0.050	0.350	0.750
2020/01/31 12:06:12.0	300.540	0.050	0.330	0.730
2020/01/31 12:06:12.1	300.520	0.040	0.320	0.700
2020/01/31 12:06:12.2	300.500	0.040	0.300	0.670
2020/01/31 12:06:12.3	300.490	0.030	0.270	0.640
2020/01/31 12:06:12.4	300.480	0.030	0.250	0.610
2020/01/31 12:06:12.5	300.460	0.020	0.220	0.580
2020/01/31 12:06:12.6	300.460	0.020	0.190	0.540
2020/01/31 12:06:12.7	300.460	0.010	0.160	0.510
2020/01/31 12:06:12.8	300.450	0.010	0.130	0.480
2020/01/31 12:06:12.9	300.450	0.010	0.090	0.440
2020/01/31 12:06:13.0	300.440	0.000	0.060	0.400
2020/01/31 12:06:13.1	300.440	0.000	0.020	0.370
2020/01/31 12:06:13.2	300.440	0.000	-0.020	0.330
2020/01/31 12:06:13.3	300.450	-0.000	-0.050	0.300
2020/01/31 12:06:13.4	300.450	-0.000	-0.090	0.260
2020/01/31 12:06:13.5	300.450	-0.000	-0.130	0.230
2020/01/31 12:06:13.6	300.450	-0.000	-0.170	0.190
2020/01/31 12:06:13.7	300.450	-0.000	-0.200	0.160
2020/01/31 12:06:13.8	300.460	-0.000	-0.240	0.130
2020/01/31 12:06:13.9	300.470	-0.000	-0.270	0.100
2020/01/31 12:06:14.0	300.470	-0.000	-0.310	0.070
2020/01/31 12:06:14.1	300.480	-0.000	-0.340	0.050
2020/01/31 12:06:14.2	300.490	-0.000	-0.370	0.020
2020/01/31 12:06:14.3	300.490	-0.000	-0.400	0.000
2020/01/31 12:06:14.4	300.500	-0.000	-0.420	-0.020
2020/01/31 12:06:14.5	300.510	-0.000	-0.450	-0.040
2020/01/31 12:06:14.6	300.510	-0.000	-0.470	-0.050
2020/01/31 12:06:14.7	300.510	-0.000	-0.490	-0.070
2020/01/31 12:06:14.8	300.520	-0.000	-0.510	-0.080
2020/01/31 12:06:14.9	300.520	-0.000	-0.530	-0.090
2020/01/31 12:06:15.0	300.530	-0.010	-0.550	-0.100
2020/01/31 12:06:15.1	300.530	-0.010	-0.570	-0.100
2020/01/31 12:06:15.2	300.540	-0.010	-0.580	-0.100
2020/01/31 12:06:15.3	300.550	-0.010	-0.600	-0.110
2020/01/31 12:06:15.4	300.550	-0.020	-0.610	-0.110
2020/01/31 12:06:15.5	300.560	-0.020	-0.620	-0.100
2020/01/31 12:06:15.6	300.560	-0.030	-0.640	-0.100
2020/01/31 12:06:15.7	300.560	-0.030	-0.650	-0.090
2020/01/31 12:06:15.8	300.570	-0.040	-0.660	-0.090
2020/01/31 12:06:15.9	300.570	-0.050	-0.670	-0.080
2020/01/31 12:06:16.0	300.580	-0.050	-0.680	-0.070
2020/01/31 12:06:16.1	300.580	-0.060	-0.690	-0.060
2020/01/31 12:06:16.2	300.590	-0.070	-0.700	-0.050
2020/01/31 12:06:16.3	300.590	-0.080	-0.710	-0.040
2020/01/31 12:06:16.4	300.600	-0.090	-0.720	-0.020
2020/01/31 12:06:16.5	300.600	-0.100	-0.730	-0.010
2020/01/31 12:06:16.6	300.600	-0.110	-0.740	0.010
2020/01/31 12:06:16.7	300.610	-0.120	-0.740	0.020
2020/01/31 12:06:16.8	300.610	-0.130	-0.750	0.040
2020/01/31 12:06:16.9	300.620	-0.140	-0.760	0.060
2020/01/31 12:06:17.0	300.620	-0.150	-0.770	0.080
2020/01/31 12:06:17.1	300.620	-0.160	-0.770	0.110
2020/01/31 12:06:17.2	300.630	-0.170	-0.780	0.130
2020/01/31 12:06:17.3	300.630	-0.180	-0.780	0.150
2020/01/31 12:06:17.4	300.640	-0.190	-0.780	0.180
2020/01/31 12:06:17.5	300.640	-0.200	-0.780	0.200
2020/01/31 12:06:17.6	300.650	-0.210	-0.780	0.230
2020/01/31 12:06:17.7	300.650	-0.220	-0.780	0.260
2020/01/31 12:06:17.8	300.660	-0.230	-0.780	0.280
2020/01/31 12:06:17.9	300.660	-0.230	-0.780	0.310
2020/01/31 12:06:18.0	300.670	-0.240	-0.770	0.340
2020/01/31 12:06:18.1	300.670	-0.250	-0.770	0.370
2020/01/31 12:06:18.2	300.680	-0.250	-0.760	0.390
2020/01/31 12:06:18.3	300.690	-0.260	-0.760	0.420
2020/01/31 12:06:18.4	300.700	-0.260	-0.750	0.440
2020/01/31 12:06:18.5	300.710	-0.270	-0.740	0.470
2020/01/31 12:06:18.6	300.710	-0.270	-0.730	0.490
2020/01/31 12:06:18.7	300.720	-0.270	-0.720	0.520
2020/01/31 12:06:18.8	300.740	-0.270	-0.710	0.540
2020/01/31 12:06:18.9	300.750	-0.270	-0.700	0.560
2020/01/31 12:06:19.0	300.760	-0.270	-0.690	0.580
2020/01/31 12:06:19.1	300.770	-0.260	-0.680	0.610
2020/01/31 12:06:19.2	300.780	-0.260	-0.670	0.630
2020/01/31 12:06:19.3	300.790	-0.250	-0.650	0.650
2020/01/31 12:06:19.4	300.800	-0.250	-0.640	0.670
2020/01/31 12:06:19.5	300.810	-0.240	-0.620	0.690
2020/01/31 12:06:19.6	300.830	-0.230	-0.600	0.710
2020/01/31 12:06:19.7	300.840	-0.220	-0.580	0.730
2020/01/31 12:06:19.8	300.840	-0.210	-0.560	0.750
2020/01/31 12:06:19.9	300.850	-0.200	-0.540	0.770
2020/01/31 12:06:20.0	300.860	-0.190	-0.520	0.790
2020/01/31 12:06:20.1	300.860	-0.170	-0.490	0.810
2020/01/31 12:06:20.2	300.870	-0.160	-0.460	0.840
2020/01/31 12:06:20.3	300.870	-0.150	-0.430	0.860
2020/01/31 12:06:20.4	300.870	-0.130	-0.400	0.880
2020/01/31 12:06:20.5	300.870	-0.110	-0.370	0.900
2020/01/31 12:06:20.6	300.880	-0.100	-0.340	0.930
2020/01/31 12:06:20.7	300.880	-0.080	-0.300	0.950
2020/01/31 12:06:20.8	300.880	-0.060	-0.260	0.970
2020/01/31 12:06:20.9	300.870	-0.040	-0.230	0.990
2020/01/31 12:06:21.0	300.870	-0.030	-0.190	1.010
2020/01/31 12:06:21.1	300.870	-0.010	-0.150	1.020
2020/01/31 12:06:21.2	300.870	0.010	-0.110	1.040
2020/01/31 12:06:21.3	300.860	0.030	-0.070	1.060
2020/01/31 12:06:21.4	300.860	0.050	-0.040	1.070
2020/01/31 12:06:21.5	300.860	0.070	0.000	1.090
2020/01/31 12:06:21.6	300.850	0.090	0.040	1.100
2020/01/31 12:06:21.7	300.840	0.110	0.080	1.110
2020/01/31 12:06:21.8	300.840	0.120	0.120	1.120
2020/01/31 12:06:21.9	300.830	0.140	0.160	1.130
2020/01/31 12:06:22.0	300.830	0.160	0.190	1.140
2020/01/31 12:06:22.1	300.820	0.180	0.230	1.140
2020/01/31 12:06:22.2	300.810	0.200	0.260	1.150
2020/01/31 12:06:22.3	300.800	0.210	0.290	1.150
2020/01/31 12:06:22.4	300.800	0.230	0.320	1.150
2020/01/31 12:06:22.5	300.790	0.240	0.350	1.160
2020/01/31 12:06:22.6	300.790	0.260	0.380	1.160
2020/01/31 12:06:22.7	300.780	0.270	0.400	1.160
2020/01/31 12:06:22.8	300.770	0.280	0.420	1.150
2020/01/31 12:06:22.9	300.760	0.290	0.450	1.150
2020/01/31 12:06:23.0	300.750	0.300	0.460	1.150
2020/01/31 12:06:23.1	300.740	0.310	0.480	1.140
2020/01/31 12:06:23.2	300.730	0.320	0.490	1.130
2020/01/31 12:06:23.3	300.720	0.320	0.510	1.120
2020/01/31 12:06:23.4	300.710	0.330	0.520	1.110
2020/01/31 12:06:23.5	300.700	0.330	0.520	1.100
2020/01/31 12:06:23.6	300.690	0.330	0.530	1.090
2020/01/31 12:06:23.7	300.680	0.330	0.530	1.070
2020/01/31 12:06:23.8	300.670	0.330	0.530	1.060
2020/01/31 12:06:23.9	300.660	0.330	0.520	1.040
2020/01/31 12:06:24.0	300.650	0.320	0.510	1.020
2020/01/31 12:06:24.1	300.640	0.320	0.500	0.990
2020/01/31 12:06:24.2	300.630	0.310	0.490	0.970
2020/01/31 12:06:24.3	300.620	0.300	0.470	0.950
2020/01/31 12:06:24.4	300.610	0.290	0.460	0.920
2020/01/31 12:06:24.5	300.600	0.280	0.430	0.890
2020/01/31 12:06:24.6	300.610	0.270	0.410	0.860
2020/01/31 12:06:24.7	300.600	0.260	0.380	0.820
2020/01/31 12:06:24.8	300.590	0.250	0.350	0.790
2020/01/31 12:06:24.9	300.590	0.230	0.320	0.750
2020/01/31 12:06:25.0	300.590	0.220	0.290	0.720
2020/01/31 12:06:25.1	300.580	0.200	0.260	0.680
2020/01/31 12:06:25.2	300.580	0.180	0.220	0.640
2020/01/31 12:06:25.3	300.580	0.170	0.190	0.600
2020/01/31 12:06:25.4	300.580	0.150	0.150	0.560
2020/01/31 12:06:25.5	300.570	0.130	0.110	0.520
2020/01/31 12:06:25.6	300.580	0.120	0.070	0.470
2020/01/31 12:06:25.7	300.580	0.100	0.030	0.430
2020/01/31 12:06:25.8	300.580	0.080	-0.010	0.390
2020/01/31 12:06:25.9	300.580	0.070	-0.050	0.350
2020/01/31 12:06:26.0	300.580	0.050	-0.090	0.300
2020/01/31 12:06:26.1	300.580	0.030	-0.130	0.260
2020/01/31 12:06:26.2	300.580	0.010	-0.170	0.220
2020/01/31 12:06:26.3	300.580	-0.000	-0.210	0.170
2020/01/31 12:06:26.4	300.580	-0.020	-0.250	0.130
2020/01/31 12:06:26.5	300.580	-0.030	-0.290	0.090
2020/01/31 12:06:26.6	300.560	-0.050	-0.330	0.050
2020/01/31 12:06:26.7	300.560	-0.060	-0.360	0.010
2020/01/31 12:06:26.8	300.550	-0.080	-0.400	-0.030
2020/01/31 12:06:26.9	300.550	-0.090	-0.440	-0.070
2020/01/31 12:06:27.0	300.550	-0.100	-0.470	-0.100
2020/01/31 12:06:27.1	300.550	-0.120	-0.500	-0.130
2020/01/31 12:06:27.2	300.550	-0.130	-0.540	-0.160
2020/01/31 12:06:27.3	300.540	-0.140	-0.570	-0.190
2020/01/31 12:06:27.4	300.540	-0.150	-0.600	-0.220
2020/01/31 12:06:27.5	300.540	-0.160	-0.630	-0.240
2020/01/31 12:06:27.6	300.530	-0.170	-0.650	-0.260
2020/01/31 12:06:27.7	300.530	-0.170	-0.680	-0.280
2020/01/31 12:06:27.8	300.520	-0.180	-0.710	-0.300
2020/01/31 12:06:27.9	300.520	-0.180	-0.730	-0.310
2020/01/31 12:06:28.0	300.520	-0.190	-0.750	-0.320
2020/01/31 12:06:28.1	300.520	-0.190	-0.780	-0.330
2020/01/31 12:06:28.2	300.520	-0.190	-0.800	-0.330
2020/01/31 12:06:28.3	300.520	-0.200	-0.820	-0.340
2020/01/31 12:06:28.4	300.520	-0.200	-0.840	-0.340
2020/01/31 12:06:28.5	300.530	-0.200	-0.860	-0.330
2020/01/31 12:06:28.6	300.540	-0.190	-0.870	-0.330
2020/01/31 12:06:28.7	300.540	-0.190	-0.880	-0.320
2020/01/31 12:06:28.8	300.540	-0.190	-0.900	-0.310
2020/01/31 12:06:28.9	300.550	-0.180	-0.910	-0.300
2020/01/31 12:06:29.0	300.560	-0.180	-0.920	-0.280
2020/01/31 12:06:29.1	300.560	-0.170	-0.930	-0.260
2020/01/31 12:06:29.2	300.570	-0.170	-0.930	-0.240
2020/01/31 12:06:29.3	300.570	-0.160	-0.940	-0.220
2020/01/31 12:06:29.4	300.580	-0.150	-0.940	-0.200
2020/01/31 12:06:29.5	300.590	-0.150	-0.930	-0.170
2020/01/31 12:06:29.6	300.590	-0.140	-0.930	-0.140
2020/01/31 12:06:29.7	300.600	-0.130	-0.920	-0.110
2020/01/31 12:06:29.8	300.600	-0.120	-0.910	-0.080
2020/01/31 12:06:29.9	300.610	-0.120	-0.900	-0.050
2020/01/31 12:06:30.0	300.610	-0.110	-0.880	-0.020
2020/01/31 12:06:30.1	300.610	-0.100	-0.870	0.020
2020/01/31 12:06:30.2	300.620	-0.090	-0.840	0.050
2020/01/31 12:06:30.3	300.620	-0.090	-0.820	0.090
2020/01/31 12:06:30.4	300.620	-0.080	-0.790	0.130
2020/01/31 12:06:30.5	300.620	-0.080	-0.760	0.160
2020/01/31 12:06:30.6	300.630	-0.070	-0.730	0.200
2020/01/31 12:06:30.7	300.630	-0.070	-0.700	0.240
2020/01/31 12:06:30.8	300.630	-0.060	-0.660	0.280
2020/01/31 12:06:30.9	300.620	-0.060	-0.620	0.320
2020/01/31 12:06:31.0	300.620	-0.060	-0.580	0.360
2020/01/31 12:06:31.1	300.610	-0.060	-0.540	0.390
2020/01/31 12:06:31.2	300.610	-0.060	-0.500	0.430
2020/01/31 12:06:31.3	300.600	-0.060	-0.460	0.470
2020/01/31 12:06:31.4	300.590	-0.060	-0.410	0.510
2020/01/31 12:06:31.5	300.590	-0.060	-0.370	0.540
2020/01/31 12:06:31.6	300.570	-0.070	-0.320	0.580
2020/01/31 12:06:31.7	300.560	-0.070	-0.280	0.610
2020/01/31 12:06:31.8	300.550	-0.070	-0.240	0.640
2020/01/31 12:06:31.9	300.550	-0.080	-0.200	0.670
2020/01/31 12:06:32.0	300.540	-0.080	-0.160	0.700
2020/01/31 12:06:32.1	300.530	-0.090	-0.120	0.730
2020/01/31 12:06:32.2	300.530	-0.100	-0.080	0.760
2020/01/31 12:06:32.3	300.520	-0.100	-0.050	0.780
2020/01/31 12:06:32.4	300.510	-0.110	-0.020	0.810
2020/01/31 12:06:32.5	300.510	-0.110	0.010	0.830
2020/01/31 12:06:32.6	300.510	-0.120	0.040	0.850
2020/01/31 12:06:32.7	300.510	-0.120	0.060	0.870
2020/01/31 12:06:32.8	300.500	-0.130	0.080	0.890
2020/01/31 12:06:32.9	300.500	-0.130	0.100	0.910
2020/01/31 12:06:33.0	300.500	-0.140	0.110	0.920
2020/01/31 12:06:33.1	300.500	-0.140	0.120	0.940
2020/01/31 12:06:33.2	300.500	-0.140	0.130	0.950
2020/01/31 12:06:33.3	300.500	-0.140	0.140	0.960
2020/01/31 12:06:33.4	300.500	-0.140	0.140	0.970
2020/01/31 12:06:33.5	300.500	-0.140	0.140	0.980
2020/01/31 12:06:33.6	300.500	-0.130	0.130	0.990
2020/01/31 12:06:33.7	300.500	-0.130	0.130	1.000
2020/01/31 12:06:33.8	300.500	-0.120	0.120	1.000
2020/01/31 12:06:33.9	300.510	-0.120	0.110	1.000
2020/01/31 12:06:34.0	300.510	-0.110	0.100	1.010
2020/01/31 12:06:34.1	300.510	-0.100	0.090	1.010
2020/01/31 12:06:34.2	300.520	-0.090	0.070	1.010
2020/01/31 12:06:34.3	300.520	-0.080	0.050	1.000
2020/01/31 12:06:34.4	300.530	-0.070	0.040	1.000
2020/01/31 12:06:34.5	300.530	-0.060	0.020	1.000
2020/01/31 12:06:34.6	300.530	-0.040	-0.000	0.990
2020/01/31 12:06:34.7	300.530	-0.030	-0.020	0.990
2020/01/31 12:06:34.8	300.540	-0.010	-0.040	0.980
2020/01/31 12:06:34.9	300.540	0.000	-0.060	0.970
2020/01/31 12:06:35.0	300.540	0.020	-0.080	0.970
2020/01/31 12:06:35.1	300.550	0.030	-0.100	0.960
2020/01/31 12:06:35.2	300.550	0.050	-0.120	0.950
2020/01/31 12:06:35.3	300.550	0.060	-0.130	0.940
2020/01/31 12:06:35.4	300.550	0.080	-0.150	0.940
2020/01/31 12:06:35.5	300.550	0.100	-0.160	0.930
2020/01/31 12:06:35.6	300.550	0.110	-0.170	0.920
2020/01/31 12:06:35.7	300.550	0.130	-0.180	0.910
2020/01/31 12:06:35.8	300.540	0.140	-0.190	0.900
2020/01/31 12:06:35.9	300.540	0.150	-0.190	0.890
2020/01/31 12:06:36.0	300.530	0.170	-0.190	0.890
2020/01/31 12:06:36.1	300.530	0.180	-0.190	0.880
2020/01/31 12:06:36.2	300.520	0.190	-0.190	0.870
2020/01/31 12:06:36.3	300.520	0.200	-0.180	0.860
2020/01/31 12:06:36.4	300.510	0.210	-0.180	0.850
2020/01/31 12:06:36.5	300.500	0.220	-0.170	0.850
2020/01/31 12:06:36.6	300.480	0.220	-0.160	0.830
2020/01/31 12:06:36.7	300.470	0.230	-0.150	0.820
2020/01/31 12:06:36.8	300.460	0.230	-0.140	0.810
2020/01/31 12:06:36.9	300.460	0.240	-0.120	0.800
2020/01/31 12:06:37.0	300.450	0.240	-0.110	0.780
2020/01/31 12:06:37.1	300.440	0.240	-0.100	0.770
2020/01/31 12:06:37.2	300.440	0.240	-0.080	0.750
2020/01/31 12:06:37.3	300.440	0.240	-0.070	0.730
2020/01/31 12:06:37.4	300.430	0.240	-0.060	0.720
2020/01/31 12:06:37.5	300.430	0.230	-0.040	0.690
2020/01/31 12:06:37.6	300.430	0.230	-0.040	0.670
2020/01/31 12:06:37.7	300.430	0.230	-0.030	0.650
2020/01/31 12:06:37.8	300.430	0.220	-0.020	0.620
2020/01/31 12:06:37.9	300.440	0.220	-0.010	0.590
2020/01/31 12:06:38.0	300.440	0.210	-0.010	0.570
2020/01/31 12:06:38.1	300.440	0.210	-0.000	0.540
2020/01/31 12:06:38.2	300.450	0.200	0.000	0.510
2020/01/31 12:06:38.3	300.450	0.200	0.000	0.480
2020/01/31 12:06:38.4	300.460	0.190	0.000	0.450
2020/01/31 12:06:38.5	300.460	0.180	-0.000	0.420
2020/01/31 12:06:38.6	300.480	0.180	-0.010	0.390
2020/01/31 12:06:38.7	300.480	0.170	-0.010	0.360
2020/01/31 12:06:38.8	300.490	0.160	-0.020	0.330
2020/01/31 12:06:38.9	300.490	0.160	-0.030	0.310
2020/01/31 12:06:39.0	300.500	0.150	-0.040	0.280
2020/01/31 12:06:39.1	300.500	0.150	-0.050	0.260
2020/01/31 12:06:39.2	300.500	0.140	-0.070	0.230
2020/01/31 12:06:39.3	300.510	0.140	-0.080	0.210
2020/01/31 12:06:39.4	300.510	0.130	-0.090	0.190
2020/01/31 12:06:39.5	300.510	0.130	-0.110	0.180
2020/01/31 12:06:39.6	300.510	0.120	-0.130	0.160
2020/01/31 12:06:39.7	300.500	0.120	-0.150	0.150
2020/01/31 12:06:39.8	300.500	0.110	-0.160	0.140
2020/01/31 12:06:39.9	300.490	0.110	-0.180	0.140
2020/01/31 12:06:40.0	300.490	0.100	-0.200	0.130
2020/01/31 12:06:40.1	300.480	0.100	-0.220	0.130
2020/01/31 12:06:40.2	300.470	0.090	-0.240	0.130
2020/01/31 12:06:40.3	300.460	0.090	-0.260	0.130
2020/01/31 12:06:40.4	300.450	0.090	-0.280	0.140
2020/01/31 12:06:40.5	300.440	0.080	-0.290	0.140
2020/01/31 12:06:40.6	300.430	0.080	-0.310	0.150
2020/01/31 12:06:40.7	300.420	0.070	-0.330	0.160
2020/01/31 12:06:40.8	300.410	0.070	-0.350	0.170
2020/01/31 12:06:40.9	300.400	0.060	-0.370	0.180
2020/01/31 12:06:41.0	300.390	0.060	-0.390	0.190
2020/01/31 12:06:41.1	300.380	0.050	-0.410	0.210
2020/01/31 12:06:41.2	300.370	0.050	-0.430	0.230
2020/01/31 12:06:41.3	300.360	0.040	-0.440	0.240
2020/01/31 12:06:41.4	300.350	0.040	-0.460	0.260
2020/01/31 12:06:41.5	300.340	0.030	-0.480	0.280
2020/01/31 12:06:41.6	300.320	0.020	-0.500	0.300
2020/01/31 12:06:41.7	300.310	0.010	-0.520	0.310
2020/01/31 12:06:41.8	300.300	0.010	-0.530	0.330
2020/01/31 12:06:41.9	300.290	-0.000	-0.550	0.350
2020/01/31 12:06:42.0	300.280	-0.010	-0.560	0.370
2020/01/31 12:06:42.1	300.270	-0.020	-0.570	0.390
2020/01/31 12:06:42.2	300.260	-0.030	-0.580	0.410
2020/01/31 12:06:42.3	300.240	-0.050	-0.590	0.430
2020/01/31 12:06:42.4	300.230	-0.060	-0.600	0.450
2020/01/31 12:06:42.5	300.220	-0.070	-0.610	0.470
2020/01/31 12:06:42.6	300.220	-0.080	-0.610	0.490
2020/01/31 12:06:42.7	300.200	-0.100	-0.620	0.500
2020/01/31 12:06:42.8	300.190	-0.110	-0.620	0.520
2020/01/31 12:06:42.9	300.180	-0.130	-0.620	0.540
2020/01/31 12:06:43.0	300.170	-0.140	-0.620	0.560
2020/01/31 12:06:43.1	300.160	-0.160	-0.620	0.570
2020/01/31 12:06:43.2	300.150	-0.170	-0.620	0.580
2020/01/31 12:06:43.3	300.140	-0.190	-0.620	0.590
2020/01/31 12:06:43.4	300.130	-0.210	-0.610	0.600
2020/01/31 12:06:43.5	300.130	-0.220	-0.600	0.610
2020/01/31 12:06:43.6	300.120	-0.240	-0.600	0.620
2020/01/31 12:06:43.7	300.110	-0.260	-0.590	0.630
2020/01/31 12:06:43.8	300.110	-0.270	-0.580	0.630
2020/01/31 12:06:43.9	300.100	-0.290	-0.570	0.630
2020/01/31 12:06:44.0	300.100	-0.300	-0.560	0.630
2020/01/31 12:06:44.1	300.090	-0.320	-0.550	0.630
2020/01/31 12:06:44.2	300.090	-0.330	-0.540	0.620
2020/01/31 12:06:44.3	300.090	-0.340	-0.520	0.610
2020/01/31 12:06:44.4	300.090	-0.350	-0.510	0.610
2020/01/31 12:06:44.5	300.090	-0.360	-0.500	0.600
2020/01/31 12:06:44.6	300.090	-0.370	-0.480	0.580
2020/01/31 12:06:44.7	300.090	-0.370	-0.470	0.570
2020/01/31 12:06:44.8	300.090	-0.380	-0.460	0.560
2020/01/31 12:06:44.9	300.090	-0.380	-0.440	0.540
2020/01/31 12:06:45.0	300.100	-0.380	-0.430	0.530
2020/01/31 12:06:45.1	300.100	-0.380	-0.410	0.510
2020/01/31 12:06:45.2	300.110	-0.380	-0.400	0.490
2020/01/31 12:06:45.3	300.110	-0.380	-0.390	0.480
2020/01/31 12:06:45.4	300.120	-0.370	-0.370	0.460
2020/01/31 12:06:45.5	300.120	-0.370	-0.360	0.440
2020/01/31 12:06:45.6	300.130	-0.360	-0.350	0.430
2020/01/31 12:06:45.7	300.140	-0.350	-0.340	0.410
2020/01/31 12:06:45.8	300.140	-0.340	-0.320	0.390
2020/01/31 12:06:45.9	300.150	-0.320	-0.310	0.380
2020/01/31 12:06:46.0	300.150	-0.310	-0.300	0.360
2020/01/31 12:06:46.1	300.160	-0.290	-0.290	0.350
2020/01/31 12:06:46.2	300.160	-0.280	-0.270	0.330
2020/01/31 12:06:46.3	300.170	-0.260	-0.260	0.320
2020/01/31 12:06:46.4	300.180	-0.240	-0.250	0.310
2020/01/31 12:06:46.5	300.180	-0.220	-0.230	0.300
2020/01/31 12:06:46.6	300.180	-0.190	-0.220	0.290
2020/01/31 12:06:46.7	300.190	-0.170	-0.200	0.280
2020/01/31 12:06:46.8	300.200	-0.150	-0.190	0.270
2020/01/31 12:06:46.9	300.210	-0.120	-0.180	0.270
2020/01/31 12:06:47.0	300.210	-0.100	-0.160	0.270
2020/01/31 12:06:47.1	300.220	-0.070	-0.140	0.270
2020/01/31 12:06:47.2	300.230	-0.050	-0.130	0.270
2020/01/31 12:06:47.3	300.240	-0.020	-0.110	0.270
2020/01/31 12:06:47.4	300.250	0.000	-0.090	0.280
2020/01/31 12:06:47.5	300.260	0.030	-0.080	0.290
2020/01/31 12:06:47.6	300.250	0.050	-0.060	0.300
2020/01/31 12:06:47.7	300.260	0.080	-0.040	0.310
2020/01/31 12:06:47.8	300.260	0.100	-0.020	0.330
2020/01/31 12:06:47.9	300.270	0.120	-0.000	0.350
2020/01/31 12:06:48.0	300.270	0.140	0.020	0.370
2020/01/31 12:06:48.1	300.280	0.160	0.040	0.390
2020/01/31 12:06:48.2	300.280	0.180	0.060	0.420
2020/01/31 12:06:48.3	300.290	0.200	0.090	0.450
2020/01/31 12:06:48.4	300.290	0.210	0.110	0.480
2020/01/31 12:06:48.5	300.290	0.230	0.130	0.510
2020/01/31 12:06:48.6	300.310	0.240	0.150	0.540
2020/01/31 12:06:48.7	300.310	0.250	0.180	0.570
2020/01/31 12:06:48.8	300.320	0.270	0.200	0.600
2020/01/31 12:06:48.9	300.320	0.270	0.220	0.640
2020/01/31 12:06:49.0	300.320	0.280	0.240	0.670
2020/01/31 12:06:49.1	300.320	0.290	0.260	0.700
2020/01/31 12:06:49.2	300.320	0.290	0.280	0.730
2020/01/31 12:06:49.3	300.310	0.300	0.290	0.770
2020/01/31 12:06:49.4	300.310	0.300	0.310	0.790
2020/01/31 12:06:49.5	300.310	0.300	0.320	0.820
2020/01/31 12:06:49.6	300.310	0.300	0.330	0.850
2020/01/31 12:06:49.7	300.310	0.300	0.340	0.880
2020/01/31 12:06:49.8	300.300	0.300	0.350	0.900
2020/01/31 12:06:49.9	300.300	0.300	0.350	0.920
2020/01/31 12:06:50.0	300.300	0.290	0.350	0.940
2020/01/31 12:06:50.1	300.300	0.290	0.350	0.960
2020/01/31 12:06:50.2	300.290	0.280	0.350	0.980
2020/01/31 12:06:50.3	300.290	0.280	0.350	0.990
2020/01/31 12:06:50.4	300.290	0.270	0.340	1.000
2020/01/31 12:06:50.5	300.290	0.260	0.330	1.010
2020/01/31 12:06:50.6	300.300	0.250	0.310	1.010
2020/01/31 12:06:50.7	300.300	0.250	0.300	1.020
2020/01/31 12:06:50.8	300.300	0.240	0.280	1.020
2020/01/31 12:06:50.9	300.290	0.230	0.250	1.020
2020/01/31 12:06:51.0	300.290	0.220	0.230	1.010
2020/01/31 12:06:51.1	300.290	0.210	0.200	1.010
2020/01/31 12:06:51.2	300.290	0.200	0.170	1.000
2020/01/31 12:06:51.3	300.290	0.190	0.130	0.990
2020/01/31 12:06:51.4	300.290	0.190	0.090	0.980
2020/01/31 12:06:51.5	300.290	0.180	0.050	0.970
2020/01/31 12:06:51.6	300.290	0.170	0.010	0.950
2020/01/31 12:06:51.7	300.290	0.160	-0.030	0.930
2020/01/31 12:06:51.8	300.290	0.150	-0.080	0.910
2020/01/31 12:06:51.9	300.290	0.150	-0.130	0.890
2020/01/31 12:06:52.0	300.290	0.140	-0.180	0.870
2020/01/31 12:06:52.1	300.290	0.140	-0.230	0.840
2020/01/31 12:06:52.2	300.300	0.130	-0.280	0.810
2020/01/31 12:06:52.3	300.300	0.130	-0.330	0.790
2020/01/31 12:06:52.4	300.300	0.120	-0.380	0.760
2020/01/31 12:06:52.5	300.300	0.120	-0.430	0.730
2020/01/31 12:06:52.6	300.310	0.120	-0.480	0.700
2020/01/31 12:06:52.7	300.310	0.110	-0.530	0.670
2020/01/31 12:06:52.8	300.310	0.110	-0.580	0.640
2020/01/31 12:06:52.9	300.310	0.110	-0.630	0.610
2020/01/31 12:06:53.0	300.310	0.110	-0.680	0.580
2020/01/31 12:06:53.1	300.320	0.110	-0.720	0.550
2020/01/31 12:06:53.2	300.320	0.110	-0.760	0.520
2020/01/31 12:06:53.3	300.320	0.110	-0.800	0.490
2020/01/31 12:06:53.4	300.320	0.100	-0.840	0.470
2020/01/31 12:06:53.5	300.310	0.100	-0.880	0.440
2020/01/31 12:06:53.6	300.300	0.100	-0.910	0.410
2020/01/31 12:06:53.7	300.300	0.100	-0.940	0.390
2020/01/31 12:06:53.8	300.300	0.100	-0.970	0.360
2020/01/31 12:06:53.9	300.300	0.100	-0.990	0.340
2020/01/31 12:06:54.0	300.300	0.100	-1.010	0.320
2020/01/31 12:06:54.1	300.300	0.090	-1.030	0.300
2020/01/31 12:06:54.2	300.300	0.090	-1.050	0.280
2020/01/31 12:06:54.3	300.300	0.080	-1.060	0.270
2020/01/31 12:06:54.4	300.290	0.080	-1.060	0.250
2020/01/31 12:06:54.5	300.290	0.070	-1.070	0.240
2020/01/31 12:06:54.6	300.290	0.060	-1.070	0.230
2020/01/31 12:06:54.7	300.280	0.060	-1.070	0.220
2020/01/31 12:06:54.8	300.280	0.050	-1.060	0.210
2020/01/31 12:06:54.9	300.270	0.040	-1.050	0.210
2020/01/31 12:06:55.0	300.260	0.030	-1.040	0.210
2020/01/31 12:06:55.1	300.250	0.010	-1.020	0.210
2020/01/31 12:06:55.2	300.240	0.000	-1.010	0.210
2020/01/31 12:06:55.3	300.240	-0.010	-0.980	0.210
2020/01/31 12:06:55.4	300.230	-0.020	-0.960	0.210
2020/01/31 12:06:55.5	300.220	-0.040	-0.930	0.220
2020/01/31 12:06:55.6	300.200	-0.050	-0.900	0.230
2020/01/31 12:06:55.7	300.190	-0.070	-0.870	0.240
2020/01/31 12:06:55.8	300.180	-0.080	-0.840	0.250
2020/01/31 12:06:55.9	300.170	-0.100	-0.810	0.270
2020/01/31 12:06:56.0	300.160	-0.110	-0.770	0.280
2020/01/31 12:06:56.1	300.140	-0.130	-0.730	0.300
2020/01/31 12:06:56.2	300.130	-0.150	-0.700	0.320
2020/01/31 12:06:56.3	300.120	-0.160	-0.660	0.330
2020/01/31 12:06:56.4	300.110	-0.180	-0.620	0.350
2020/01/31 12:06:56.5	300.100	-0.190	-0.580	0.370
2020/01/31 12:06:56.6	300.090	-0.200	-0.540	0.380
2020/01/31 12:06:56.7	300.080	-0.220	-0.500	0.400
2020/01/31 12:06:56.8	300.070	-0.230	-0.460	0.420
2020/01/31 12:06:56.9	300.060	-0.240	-0.430	0.440
2020/01/31 12:06:57.0	300.050	-0.260	-0.390	0.450
2020/01/31 12:06:57.1	300.050	-0.270	-0.350	0.470
2020/01/31 12:06:57.2	300.040	-0.280	-0.310	0.480
2020/01/31 12:06:57.3	300.040	-0.290	-0.280	0.490
2020/01/31 12:06:57.4	300.030	-0.290	-0.250	0.500
2020/01/31 12:06:57.5	300.030	-0.300	-0.210	0.510
2020/01/31 12:06:57.6	300.040	-0.310	-0.180	0.520
2020/01/31 12:06:57.7	300.040	-0.310	-0.150	0.520
2020/01/31 12:06:57.8	300.040	-0.320	-0.120	0.530
2020/01/31 12:06:57.9	300.050	-0.320	-0.090	0.530
2020/01/31 12:06:58.0	300.050	-0.320	-0.060	0.530
2020/01/31 12:06:58.1	300.060	-0.320	-0.030	0.540
2020/01/31 12:06:58.2	300.070	-0.320	-0.010	0.540
2020/01/31 12:06:58.3	300.080	-0.320	0.020	0.540
2020/01/31 12:06:58.4	300.090	-0.310	0.040	0.540
2020/01/31 12:06:58.5	300.100	-0.310	0.070	0.530
2020/01/31 12:06:58.6	300.110	-0.300	0.090	0.530
2020/01/31 12:06:58.7	300.120	-0.290	0.110	0.530
2020/01/31 12:06:58.8	300.130	-0.290	0.130	0.520
2020/01/31 12:06:58.9	300.150	-0.280	0.150	0.520
2020/01/31 12:06:59.0	300.160	-0.270	0.170	0.520
2020/01/31 12:06:59.1	300.180	-0.250	0.190	0.510
2020/01/31 12:06:59.2	300.200	-0.240	0.210	0.510
2020/01/31 12:06:59.3	300.210	-0.230	0.230	0.500
2020/01/31 12:06:59.4	300.230	-0.220	0.240	0.500
2020/01/31 12:06:59.5	300.250	-0.200	0.260	0.500
2020/01/31 12:06:59.6	300.260	-0.190	0.270	0.490
2020/01/31 12:06:59.7	300.280	-0.180	0.290	0.490
2020/01/31 12:06:59.8	300.300	-0.160	0.300	0.480
2020/01/31 12:06:59.9	300.320	-0.150	0.310	0.480
2020/01/31 12:07:00.0	300.330	-0.130	0.320	0.470
2020/01/31 12:07:00.1	300.350	-0.120	0.340	0.470
2020/01/31 12:07:00.2	300.360	-0.110	0.350	0.470
2020/01/31 12:07:00.3	300.380	-0.090	0.360	0.470
2020/01/31 12:07:00.4	300.390	-0.080	0.370	0.470
2020/01/31 12:07:00.5	300.400	-0.070	0.380	0.460
2020/01/31 12:07:00.6	300.410	-0.050	0.390	0.460
2020/01/31 12:07:00.7	300.420	-0.040	0.400	0.470
2020/01/31 12:07:00.8	300.430	-0.030	0.400	0.470
2020/01/31 12:07:00.9	300.440	-0.020	0.410	0.470
2020/01/31 12:07:01.0	300.440	-0.010	0.420	0.480
2020/01/31 12:07:01.1	300.440	-0.000	0.430	0.490
2020/01/31 12:07:01.2	300.450	0.010	0.440	0.500
2020/01/31 12:07:01.3	300.440	0.020	0.440	0.510
2020/01/31 12:07:01.4	300.440	0.020	0.450	0.510
2020/01/31 12:07:01.5	300.440	0.030	0.450	0.520
2020/01/31 12:07:01.6	300.440	0.040	0.450	0.530
2020/01/31 12:07:01.7	300.430	0.040	0.450	0.540
2020/01/31 12:07:01.8	300.430	0.050	0.450	0.550
2020/01/31 12:07:01.9	300.430	0.050	0.450	0.560
2020/01/31 12:07:02.0	300.420	0.060	0.440	0.570
2020/01/31 12:07:02.1	300.420	0.060	0.430	0.570
2020/01/31 12:07:02.2	300.410	0.060	0.410	0.580
2020/01/31 12:07:02.3	300.410	0.070	0.400	0.580
2020/01/31 12:07:02.4	300.410	0.070	0.380	0.580
2020/01/31 12:07:02.5	300.400	0.070	0.360	0.580
2020/01/31 12:07:02.6	300.400	0.080	0.330	0.570
2020/01/31 12:07:02.7	300.400	0.080	0.300	0.570
2020/01/31 12:07:02.8	300.400	0.080	0.270	0.560
2020/01/31 12:07:02.9	300.400	0.080	0.230	0.550
2020/01/31 12:07:03.0	300.400	0.090	0.190	0.540
2020/01/31 12:07:03.1	300.400	0.090	0.150	0.530
2020/01/31 12:07:03.2	300.410	0.100	0.110	0.520
2020/01/31 12:07:03.3	300.410	0.100	0.060	0.510
2020/01/31 12:07:03.4	300.410	0.100	0.010	0.500
2020/01/31 12:07:03.5	300.410	0.110	-0.030	0.480
2020/01/31 12:07:03.6	300.400	0.110	-0.090	0.470
2020/01/31 12:07:03.7	300.410	0.120	-0.140	0.450
2020/01/31 12:07:03.8	300.410	0.130	-0.190	0.440
2020/01/31 12:07:03.9	300.410	0.130	-0.250	0.430
2020/01/31 12:07:04.0	300.410	0.140	-0.300	0.420
2020/01/31 12:07:04.1	300.410	0.150	-0.360	0.400
2020/01/31 12:07:04.2	300.410	0.160	-0.410	0.390
2020/01/31 12:07:04.3	300.410	0.160	-0.460	0.380
2020/01/31 12:07:04.4	300.410	0.170	-0.520	0.370
2020/01/31 12:07:04.5	300.410	0.180	-0.570	0.370
2020/01/31 12:07:04.6	300.400	0.190	-0.620	0.360
2020/01/31 12:07:04.7	300.400	0.200	-0.670	0.350
2020/01/31 12:07:04.8	300.400	0.210	-0.710	0.340
2020/01/31 12:07:04.9	300.400	0.220	-0.760	0.340
2020/01/31 12:07:05.0	300.390	0.220	-0.800	0.340
2020/01/31 12:07:05.1	300.390	0.230	-0.840	0.330
2020/01/31 12:07:05.2	300.390	0.240	-0.880	0.330
2020/01/31 12:07:05.3	300.380	0.250	-0.920	0.340
2020/01/31 12:07:05.4	300.380	0.260	-0.960	0.340
2020/01/31 12:07:05.5	300.380	0.260	-0.990	0.340
2020/01/31 12:07:05.6	300.370	0.270	-1.020	0.350
2020/01/31 12:07:05.7	300.370	0.270	-1.040	0.350
2020/01/31 12:07:05.8	300.360	0.280	-1.060	0.360
2020/01/31 12:07:05.9	300.360	0.280	-1.080	0.370
2020/01/31 12:07:06.0	300.360	0.280	-1.100	0.380
2020/01/31 12:07:06.1	300.360	0.280	-1.110	0.390
2020/01/31 12:07:06.2	300.350	0.280	-1.120	0.400
2020/01/31 12:07:06.3	300.350	0.280	-1.130	0.410
2020/01/31 12:07:06.4	300.350	0.280	-1.130	0.420
2020/01/31 12:07:06.5	300.350	0.270	-1.130	0.430
2020/01/31 12:07:06.6	300.340	0.270	-1.130	0.440
2020/01/31 12:07:06.7	300.340	0.260	-1.120	0.460
2020/01/31 12:07:06.8	300.340	0.250	-1.110	0.470
2020/01/31 12:07:06.9	300.340	0.240	-1.100	0.480
2020/01/31 12:07:07.0	300.340	0.230	-1.080	0.490
2020/01/31 12:07:07.1	300.340	0.210	-1.060	0.510
2020/01/31 12:07:07.2	300.330	0.200	-1.040	0.520
2020/01/31 12:07:07.3	300.330	0.180	-1.010	0.530
2020/01/31 12:07:07.4	300.330	0.160	-0.980	0.540
2020/01/31 12:07:07.5	300.330	0.140	-0.950	0.550
2020/01/31 12:07:07.6	300.330	0.120	-0.910	0.560
2020/01/31 12:07:07.7	300.330	0.100	-0.880	0.560
2020/01/31 12:07:07.8	300.320	0.080	-0.840	0.570
2020/01/31 12:07:07.9	300.320	0.050	-0.800	0.580
2020/01/31 12:07:08.0	300.320	0.030	-0.760	0.580
2020/01/31 12:07:08.1	300.320	0.000	-0.710	0.580
2020/01/31 12:07:08.2	300.320	-0.020	-0.670	0.580
2020/01/31 12:07:08.3	300.310	-0.050	-0.620	0.590
2020/01/31 12:07:08.4	300.320	-0.070	-0.580	0.580
2020/01/31 12:07:08.5	300.320	-0.090	-0.530	0.580
2020/01/31 12:07:08.6	300.310	-0.120	-0.480	0.580
2020/01/31 12:07:08.7	300.310	-0.140	-0.440	0.570
2020/01/31 12:07:08.8	300.320	-0.160	-0.390	0.570
2020/01/31 12:07:08.9	300.320	-0.180	-0.350	0.560
2020/01/31 12:07:09.0	300.330	-0.200	-0.310	0.560
2020/01/31 12:07:09.1	300.330	-0.210	-0.260	0.550
2020/01/31 12:07:09.2	300.340	-0.230	-0.230	0.540
2020/01/31 12:07:09.3	300.350	-0.240	-0.190	0.530
2020/01/31 12:07:09.4	300.350	-0.250	-0.150	0.520
2020/01/31 12:07:09.5	300.360	-0.260	-0.120	0.510
2020/01/31 12:07:09.6	300.350	-0.270	-0.090	0.500
2020/01/31 12:07:09.7	300.360	-0.270	-0.070	0.490
2020/01/31 12:07:09.8	300.370	-0.280	-0.040	0.480
2020/01/31 12:07:09.9	300.380	-0.280	-0.020	0.470
2020/01/31 12:07:10.0	300.390	-0.280	-0.000	0.450
2020/01/31 12:07:10.1	300.400	-0.280	0.010	0.440
2020/01/31 12:07:10.2	300.410	-0.270	0.020	0.430
2020/01/31 12:07:10.3	300.420	-0.270	0.040	0.410
2020/01/31 12:07:10.4	300.430	-0.260	0.040	0.400
2020/01/31 12:07:10.5	300.440	-0.250	0.050	0.390
2020/01/31 12:07:10.6	300.440	-0.240	0.050	0.370
2020/01/31 12:07:10.7	300.450	-0.230	0.050	0.350
2020/01/31 12:07:10.8	300.460	-0.220	0.050	0.340
2020/01/31 12:07:10.9	300.470	-0.210	0.050	0.320
2020/01/31 12:07:11.0	300.480	-0.190	0.040	0.300
2020/01/31 12:07:11.1	300.490	-0.180	0.040	0.290
2020/01/31 12:07:11.2	300.500	-0.160	0.030	0.270
2020/01/31 12:07:11.3	300.510	-0.140	0.020	0.250
2020/01/31 12:07:11.4	300.520	-0.130	0.010	0.240
2020/01/31 12:07:11.5	300.530	-0.110	0.000	0.220
2020/01/31 12:07:11.6	300.540	-0.090	-0.010	0.200
2020/01/31 12:07:11.7	300.550	-0.080	-0.020	0.180
2020/01/31 12:07:11.8	300.560	-0.060	-0.030	0.170
2020/01/31 12:07:11.9	300.570	-0.040	-0.040	0.150
2020/01/31 12:07:12.0	300.580	-0.030	-0.050	0.140
2020/01/31 12:07:12.1	300.590	-0.010	-0.050	0.120
2020/01/31 12:07:12.2	300.590	0.000	-0.060	0.110
2020/01/31 12:07:12.3	300.600	0.010	-0.070	0.100
2020/01/31 12:07:12.4	300.600	0.030	-0.070	0.090
2020/01/31 12:07:12.5	300.610	0.040	-0.070	0.080
2020/01/31 12:07:12.6	300.610	0.050	-0.070	0.080
2020/01/31 12:07:12.7	300.620	0.060	-0.070	0.070
2020/01/31 12:07:12.8	300.620	0.060	-0.070	0.070
2020/01/31 12:07:12.9	300.620	0.070	-0.060	0.070
2020/01/31 12:07:13.0	300.620	0.070	-0.060	0.060
2020/01/31 12:07:13.1	300.620	0.080	-0.050	0.060
2020/01/31 12:07:13.2	300.620	0.080	-0.040	0.070
2020/01/31 12:07:13.3	300.620	0.080	-0.030	0.070
2020/01/31 12:07:13.4	300.620	0.080	-0.020	0.070
2020/01/31 12:07:13.5	300.620	0.080	-0.010	0.080
2020/01/31 12:07:13.6	300.630	0.080	0.000	0.080
2020/01/31 12:07:13.7	300.630	0.070	0.020	0.090
2020/01/31 12:07:13.8	300.630	0.070	0.030	0.100
2020/01/31 12:07:13.9	300.620	0.060	0.050	0.100
2020/01/31 12:07:14.0	300.620	0.050	0.060	0.110
2020/01/31 12:07:14.1	300.620	0.050	0.080	0.120
2020/01/31 12:07:14.2	300.620	0.040	0.090	0.130
2020/01/31 12:07:14.3	300.620	0.030	0.110	0.140
2020/01/31 12:07:14.4	300.620	0.020	0.120	0.150
2020/01/31 12:07:14.5	300.620	0.010	0.140	0.160
2020/01/31 12:07:14.6	300.610	-0.000	0.160	0.170
2020/01/31 12:07:14.7	300.610	-0.010	0.170	0.190
2020/01/31 12:07:14.8	300.610	-0.030	0.180	0.200
2020/01/31 12:07:14.9	300.610	-0.040	0.190	0.210
2020/01/31 12:07:15.0	300.600	-0.050	0.200	0.220
2020/01/31 12:07:15.1	300.600	-0.060	0.210	0.240
2020/01/31 12:07:15.2	300.600	-0.070	0.220	0.250
2020/01/31 12:07:15.3	300.600	-0.070	0.220	0.260
2020/01/31 12:07:15.4	300.590	-0.080	0.220	0.280
2020/01/31 12:07:15.5	300.590	-0.090	0.230	0.290
2020/01/31 12:07:15.6	300.580	-0.100	0.220	0.310
2020/01/31 12:07:15.7	300.580	-0.100	0.220	0.320
2020/01/31 12:07:15.8	300.570	-0.110	0.220	0.340
2020/01/31 12:07:15.9	300.570	-0.110	0.210	0.350
2020/01/31 12:07:16.0	300.560	-0.110	0.210	0.370
2020/01/31 12:07:16.1	300.560	-0.110	0.200	0.390
2020/01/31 12:07:16.2	300.550	-0.110	0.180	0.400
2020/01/31 12:07:16.3	300.550	-0.110	0.170	0.420
2020/01/31 12:07:16.4	300.540	-0.110	0.160	0.430
2020/01/31 12:07:16.5	300.540	-0.110	0.140	0.450
2020/01/31 12:07:16.6	300.520	-0.100	0.130	0.460
2020/01/31 12:07:16.7	300.520	-0.100	0.110	0.470
2020/01/31 12:07:16.8	300.520	-0.090	0.090	0.480
2020/01/31 12:07:16.9	300.510	-0.090	0.070	0.490
2020/01/31 12:07:17.0	300.510	-0.080	0.050	0.500
2020/01/31 12:07:17.1	300.510	-0.070	0.030	0.510
2020/01/31 12:07:17.2	300.510	-0.070	0.010	0.510
2020/01/31 12:07:17.3	300.510	-0.060	-0.010	0.520
2020/01/31 12:07:17.4	300.510	-0.050	-0.030	0.530
2020/01/31 12:07:17.5	300.510	-0.040	-0.060	0.530
2020/01/31 12:07:17.6	300.510	-0.030	-0.080	0.530
2020/01/31 12:07:17.7	300.510	-0.020	-0.100	0.540
2020/01/31 12:07:17.8	300.510	-0.010	-0.120	0.540
2020/01/31 12:07:17.9	300.520	-0.000	-0.150	0.540
2020/01/31 12:07:18.0	300.520	0.010	-0.170	0.550
2020/01/31 12:07:18.1	300.520	0.020	-0.190	0.550
2020/01/31 12:07:18.2	300.520	0.020	-0.210	0.560
2020/01/31 12:07:18.3	300.520	0.030	-0.230	0.560
2020/01/31 12:07:18.4	300.520	0.040	-0.250	0.560
2020/01/31 12:07:18.5	300.530	0.050	-0.270	0.570
2020/01/31 12:07:18.6	300.530	0.060	-0.290	0.570
2020/01/31 12:07:18.7	300.530	0.070	-0.310	0.580
2020/01/31 12:07:18.8	300.530	0.080	-0.330	0.590
2020/01/31 12:07:18.9	300.530	0.090	-0.350	0.590
2020/01/31 12:07:19.0	300.530	0.100	-0.370	0.600
2020/01/31 12:07:19.1	300.530	0.110	-0.400	0.600
2020/01/31 12:07:19.2	300.530	0.120	-0.420	0.610
2020/01/31 12:07:19.3	300.530	0.130	-0.440	0.620
2020/01/31 12:07:19.4	300.520	0.140	-0.460	0.620
2020/01/31 12:07:19.5	300.520	0.140	-0.480	0.630
2020/01/31 12:07:19.6	300.520	0.150	-0.510	0.630
2020/01/31 12:07:19.7	300.520	0.160	-0.530	0.640
2020/01/31 12:07:19.8	300.510	0.170	-0.560	0.640
2020/01/31 12:07:19.9	300.510	0.180	-0.590	0.650
2020/01/31 12:07:20.0	300.510	0.190	-0.610	0.650
2020/01/31 12:07:20.1	300.500	0.190	-0.640	0.650
2020/01/31 12:07:20.2	300.500	0.200	-0.670	0.650
2020/01/31 12:07:20.3	300.500	0.210	-0.700	0.650
2020/01/31 12:07:20.4	300.490	0.210	-0.730	0.650
2020/01/31 12:07:20.5	300.490	0.220	-0.760	0.650
2020/01/31 12:07:20.6	300.480	0.230	-0.790	0.640
2020/01/31 12:07:20.7	300.480	0.230	-0.820	0.640
2020/01/31 12:07:20.8	300.480	0.240	-0.850	0.630
2020/01/31 12:07:20.9	300.470	0.240	-0.880	0.620
2020/01/31 12:07:21.0	300.470	0.250	-0.910	0.610
2020/01/31 12:07:21.1	300.470	0.250	-0.940	0.600
2020/01/31 12:07:21.2	300.460	0.250	-0.960	0.590
2020/01/31 12:07:21.3	300.460	0.250	-0.980	0.580
2020/01/31 12:07:21.4	300.460	0.250	-1.010	0.570
2020/01/31 12:07:21.5	300.460	0.250	-1.020	0.560
2020/01/31 12:07:21.6	300.460	0.250	-1.040	0.550
2020/01/31 12:07:21.7	300.460	0.250	-1.050	0.530
2020/01/31 12:07:21.8	300.460	0.250	-1.060	0.520
2020/01/31 12:07:21.9	300.450	0.250	-1.070	0.500
2020/01/31 12:07:22.0	300.450	0.240	-1.070	0.490
2020/01/31 12:07:22.1	300.450	0.230	-1.070	0.470
2020/01/31 12:07:22.2	300.440	0.230	-1.070	0.460
2020/01/31 12:07:22.3	300.440	0.220	-1.060	0.440
2020/01/31 12:07:22.4	300.440	0.210	-1.050	0.430
2020/01/31 12:07:22.5	300.440	0.200	-1.030	0.410
2020/01/31 12:07:22.6	300.450	0.190	-1.010	0.400
2020/01/31 12:07:22.7	300.450	0.170	-0.980	0.380
2020/01/31 12:07:22.8	300.460	0.160	-0.950	0.370
2020/01/31 12:07:22.9	300.460	0.140	-0.920	0.350
2020/01/31 12:07:23.0	300.460	0.130	-0.890	0.340
2020/01/31 12:07:23.1	300.460	0.110	-0.850	0.320
2020/01/31 12:07:23.2	300.470	0.090	-0.810	0.310
2020/01/31 12:07:23.3	300.470	0.080	-0.770	0.290
2020/01/31 12:07:23.4	300.480	0.060	-0.720	0.280
2020/01/31 12:07:23.5	300.480	0.040	-0.670	0.260
2020/01/31 12:07:23.6	300.510	0.020	-0.620	0.250
2020/01/31 12:07:23.7	300.510	-0.000	-0.570	0.230
2020/01/31 12:07:23.8	300.520	-0.020	-0.520	0.220
2020/01/31 12:07:23.9	300.530	-0.040	-0.470	0.200
2020/01/31 12:07:24.0	300.540	-0.060	-0.420	0.190
2020/01/31 12:07:24.1	300.560	-0.080	-0.370	0.180
2020/01/31 12:07:24.2	300.570	-0.100	-0.320	0.160
2020/01/31 12:07:24.3	300.580	-0.120	-0.270	0.150
2020/01/31 12:07:24.4	300.590	-0.130	-0.230	0.130
2020/01/31 12:07:24.5	300.610	-0.150	-0.180	0.120
2020/01/31 12:07:24.6	300.610	-0.170	-0.140	0.110
2020/01/31 12:07:24.7	300.620	-0.180	-0.100	0.100
2020/01/31 12:07:24.8	300.640	-0.190	-0.060	0.080
2020/01/31 12:07:24.9	300.650	-0.200	-0.020	0.070
2020/01/31 12:07:25.0	300.670	-0.220	0.010	0.060
2020/01/31 12:07:25.1	300.690	-0.220	0.040	0.050
2020/01/31 12:07:25.2	300.700	-0.230	0.070	0.040
2020/01/31 12:07:25.3	300.720	-0.240	0.090	0.030
2020/01/31 12:07:25.4	300.740	-0.240	0.110	0.020
2020/01/31 12:07:25.5	300.750	-0.250	0.130	0.020
2020/01/31 12:07:25.6	300.770	-0.250	0.150	0.010
2020/01/31 12:07:25.7	300.790	-0.250	0.160	-0.000
2020/01/31 12:07:25.8	300.800	-0.250	0.180	-0.010
2020/01/31 12:07:25.9	300.820	-0.250	0.190	-0.010
2020/01/31 12:07:26.0	300.830	-0.240	0.190	-0.010
2020/01/31 12:07:26.1	300.850	-0.240	0.200	-0.010
2020/01/31 12:07:26.2	300.860	-0.230	0.200	-0.010
2020/01/31 12:07:26.3	300.870	-0.230	0.210	-0.010
2020/01/31 12:07:26.4	300.880	-0.220	0.210	-0.010
2020/01/31 12:07:26.5	300.890	-0.210	0.210	-0.010
2020/01/31 12:07:26.6	300.900	-0.200	0.210	-0.010
2020/01/31 12:07:26.7	300.910	-0.200	0.210	-0.000
2020/01/31 12:07:26.8	300.920	-0.190	0.210	0.010
2020/01/31 12:07:26.9	300.920	-0.180	0.210	0.020
2020/01/31 12:07:27.0	300.930	-0.170	0.210	0.030
2020/01/31 12:07:27.1	300.930	-0.160	0.210	0.040
2020/01/31 12:07:27.2	300.930	-0.150	0.220	0.060
2020/01/31 12:07:27.3	300.930	-0.140	0.220	0.080
2020/01/31 12:07:27.4	300.920	-0.130	0.220	0.100
2020/01/31 12:07:27.5	300.920	-0.120	0.220	0.120
2020/01/31 12:07:27.6	300.920	-0.110	0.230	0.150
2020/01/31 12:07:27.7	300.910	-0.110	0.230	0.170
2020/01/31 12:07:27.8	300.900	-0.100	0.240	0.210
2020/01/31 12:07:27.9	300.890	-0.090	0.250	0.240
2020/01/31 12:07:28.0	300.870	-0.090	0.250	0.270
2020/01/31 12:07:28.1	300.860	-0.080	0.260	0.310
2020/01/31 12:07:28.2	300.840	-0.080	0.270	0.340
2020/01/31 12:07:28.3	300.820	-0.070	0.280	0.380
2020/01/31 12:07:28.4	300.810	-0.070	0.280	0.420
2020/01/31 12:07:28.5	300.790	-0.070	0.290	0.460
2020/01/31 12:07:28.6	300.770	-0.070	0.300	0.500
2020/01/31 12:07:28.7	300.750	-0.060	0.310	0.540
2020/01/31 12:07:28.8	300.730	-0.060	0.310	0.580
2020/01/31 12:07:28.9	300.710	-0.060	0.310	0.620
2020/01/31 12:07:29.0	300.690	-0.060	0.320	0.650
2020/01/31 12:07:29.1	300.670	-0.060	0.320	0.690
2020/01/31 12:07:29.2	300.650	-0.060	0.320	0.720
2020/01/31 12:07:29.3	300.630	-0.050	0.310	0.750
2020/01/31 12:07:29.4	300.610	-0.050	0.310	0.780
2020/01/31 12:07:29.5	300.590	-0.050	0.300	0.800
2020/01/31 12:07:29.6	300.580	-0.050	0.290	0.820
2020/01/31 12:07:29.7	300.560	-0.040	0.280	0.840
2020/01/31 12:07:29.8	300.550	-0.040	0.260	0.860
2020/01/31 12:07:29.9	300.530	-0.040	0.250	0.880
2020/01/31 12:07:30.0	300.520	-0.030	0.230	0.890
2020/01/31 12:07:30.1	300.500	-0.030	0.210	0.900
2020/01/31 12:07:30.2	300.490	-0.020	0.180	0.900
2020/01/31 12:07:30.3	300.480	-0.010	0.160	0.910
2020/01/31 12:07:30.4	300.470	-0.010	0.130	0.910
2020/01/31 12:07:30.5	300.460	0.000	0.100	0.910
2020/01/31 12:07:30.6	300.450	0.010	0.070	0.900
2020/01/31 12:07:30.7	300.450	0.020	0.040	0.900
2020/01/31 12:07:30.8	300.440	0.030	0.010	0.890
2020/01/31 12:07:30.9	300.430	0.040	-0.020	0.880
2020/01/31 12:07:31.0	300.430	0.050	-0.050	0.870
2020/01/31 12:07:31.1	300.420	0.060	-0.090	0.850
2020/01/31 12:07:31.2	300.420	0.070	-0.120	0.840
2020/01/31 12:07:31.3	300.420	0.080	-0.150	0.820
2020/01/31 12:07:31.4	300.420	0.100	-0.190	0.800
2020/01/31 12:07:31.5	300.410	0.110	-0.220	0.780
2020/01/31 12:07:31.6	300.410	0.120	-0.250	0.760
2020/01/31 12:07:31.7	300.410	0.130	-0.290	0.740
2020/01/31 12:07:31.8	300.410	0.140	-0.320	0.710
2020/01/31 12:07:31.9	300.420	0.150	-0.350	0.690
2020/01/31 12:07:32.0	300.420	0.160	-0.380	0.660
2020/01/31 12:07:32.1	300.420	0.170	-0.410	0.640
2020/01/31 12:07:32.2	300.430	0.180	-0.440	0.610
2020/01/31 12:07:32.3	300.430	0.190	-0.470	0.590
2020/01/31 12:07:32.4	300.430	0.200	-0.490	0.560
2020/01/31 12:07:32.5	300.440	0.210	-0.520	0.530
2020/01/31 12:07:32.6	300.440	0.220	-0.540	0.510
2020/01/31 12:07:32.7	300.440	0.230	-0.570	0.480
2020/01/31 12:07:32.8	300.450	0.230	-0.590	0.460
2020/01/31 12:07:32.9	300.450	0.240	-0.610	0.440
2020/01/31 12:07:33.0	300.460	0.250	-0.620	0.410
2020/01/31 12:07:33.1	300.460	0.250	-0.640	0.390
2020/01/31 12:07:33.2	300.470	0.250	-0.650	0.370
2020/01/31 12:07:33.3	300.480	0.260	-0.670	0.350
2020/01/31 12:07:33.4	300.480	0.260	-0.680	0.340
2020/01/31 12:07:33.5	300.490	0.260	-0.690	0.320
2020/01/31 12:07:33.6	300.490	0.260	-0.700	0.300
2020/01/31 12:07:33.7	300.500	0.260	-0.710	0.280
2020/01/31 12:07:33.8	300.510	0.260	-0.710	0.260
2020/01/31 12:07:33.9	300.510	0.250	-0.720	0.250
2020/01/31 12:07:34.0	300.520	0.250	-0.730	0.230
2020/01/31 12:07:34.1	300.530	0.240	-0.730	0.220
2020/01/31 12:07:34.2	300.540	0.240	-0.740	0.210
2020/01/31 12:07:34.3	300.550	0.230	-0.740	0.190
2020/01/31 12:07:34.4	300.550	0.220	-0.740	0.180
2020/01/31 12:07:34.5	300.560	0.220	-0.740	0.160
2020/01/31 12:07:34.6	300.580	0.210	-0.740	0.150
2020/01/31 12:07:34.7	300.580	0.200	-0.750	0.140
2020/01/31 12:07:34.8	300.590	0.190	-0.750	0.130
2020/01/31 12:07:34.9	300.600	0.180	-0.750	0.110
2020/01/31 12:07:35.0	300.610	0.170	-0.750	0.100
2020/01/31 12:07:35.1	300.620	0.160	-0.750	0.090
2020/01/31 12:07:35.2	300.630	0.150	-0.750	0.080
2020/01/31 12:07:35.3	300.640	0.140	-0.750	0.080
2020/01/31 12:07:35.4	300.650	0.120	-0.750	0.070
2020/01/31 12:07:35.5	300.650	0.110	-0.750	0.060
2020/01/31 12:07:35.6	300.650	0.100	-0.750	0.060
2020/01/31 12:07:35.7	300.660	0.090	-0.750	0.060
2020/01/31 12:07:35.8	300.660	0.080	-0.740	0.060
2020/01/31 12:07:35.9	300.670	0.070	-0.740	0.060
2020/01/31 12:07:36.0	300.670	0.060	-0.740	0.060
2020/01/31 12:07:36.1	300.670	0.050	-0.730	0.060
2020/01/31 12:07:36.2	300.670	0.040	-0.730	0.070
2020/01/31 12:07:36.3	300.670	0.040	-0.720	0.080
2020/01/31 12:07:36.4	300.670	0.030	-0.710	0.090
2020/01/31 12:07:36.5	300.670	0.020	-0.710	0.100
2020/01/31 12:07:36.6	300.670	0.020	-0.700	0.110
2020/01/31 12:07:36.7	300.670	0.010	-0.690	0.120
2020/01/31 12:07:36.8	300.660	0.010	-0.680	0.140
2020/01/31 12:07:36.9	300.660	0.000	-0.670	0.150
2020/01/31 12:07:37.0	300.650	-0.000	-0.650	0.170
2020/01/31 12:07:37.1	300.650	-0.010	-0.640	0.190
2020/01/31 12:07:37.2	300.640	-0.010	-0.630	0.210
2020/01/31 12:07:37.3	300.630	-0.010	-0.610	0.230
2020/01/31 12:07:37.4	300.630	-0.010	-0.590	0.260
2020/01/31 12:07:37.5	300.620	-0.020	-0.570	0.280
2020/01/31 12:07:37.6	300.610	-0.020	-0.550	0.310
2020/01/31 12:07:37.7	300.610	-0.020	-0.530	0.330
2020/01/31 12:07:37.8	300.600	-0.020	-0.510	0.360
2020/01/31 12:07:37.9	300.590	-0.020	-0.480	0.390
2020/01/31 12:07:38.0	300.580	-0.020	-0.460	0.430
2020/01/31 12:07:38.1	300.560	-0.030	-0.430	0.460
2020/01/31 12:07:38.2	300.550	-0.030	-0.400	0.490
2020/01/31 12:07:38.3	300.540	-0.030	-0.370	0.520
2020/01/31 12:07:38.4	300.520	-0.030	-0.340	0.560
2020/01/31 12:07:38.5	300.510	-0.040	-0.300	0.590
2020/01/31 12:07:38.6	300.480	-0.040	-0.270	0.620
2020/01/31 12:07:38.7	300.470	-0.040	-0.230	0.660
2020/01/31 12:07:38.8	300.450	-0.050	-0.200	0.690
2020/01/31 12:07:38.9	300.430	-0.050	-0.160	0.720
2020/01/31 12:07:39.0	300.410	-0.060	-0.120	0.750
2020/01/31 12:07:39.1	300.390	-0.060	-0.080	0.780
2020/01/31 12:07:39.2	300.370	-0.070	-0.040	0.810
2020/01/31 12:07:39.3	300.350	-0.080	-0.000	0.830
2020/01/31 12:07:39.4	300.330	-0.080	0.030	0.860
2020/01/31 12:07:39.5	300.310	-0.090	0.070	0.880
2020/01/31 12:07:39.6	300.310	-0.100	0.110	0.890
2020/01/31 12:07:39.7	300.290	-0.110	0.150	0.910
2020/01/31 12:07:39.8	300.270	-0.110	0.180	0.920
2020/01/31 12:07:39.9	300.250	-0.120	0.210	0.930
2020/01/31 12:07:40.0	300.240	-0.130	0.240	0.930
2020/01/31 12:07:40.1	300.220	-0.140	0.270	0.940
2020/01/31 12:07:40.2	300.200	-0.140	0.300	0.940
2020/01/31 12:07:40.3	300.190	-0.150	0.320	0.930
2020/01/31 12:07:40.4	300.170	-0.160	0.340	0.930
2020/01/31 12:07:40.5	300.150	-0.170	0.360	0.920
2020/01/31 12:07:40.6	300.130	-0.170	0.380	0.910
2020/01/31 12:07:40.7	300.110	-0.180	0.390	0.900
2020/01/31 12:07:40.8	300.100	-0.190	0.400	0.880
2020/01/31 12:07:40.9	300.080	-0.190	0.410	0.860
2020/01/31 12:07:41.0	300.060	-0.200	0.420	0.840
2020/01/31 12:07:41.1	300.050	-0.200	0.420	0.820
2020/01/31 12:07:41.2	300.030	-0.210	0.420	0.790
2020/01/31 12:07:41.3	300.020	-0.210	0.420	0.760
2020/01/31 12:07:41.4	300.000	-0.220	0.410	0.740
2020/01/31 12:07:41.5	299.990	-0.220	0.400	0.710
2020/01/31 12:07:41.6	299.980	-0.220	0.390	0.670
2020/01/31 12:07:41.7	299.960	-0.220	0.380	0.640
2020/01/31 12:07:41.8	299.950	-0.220	0.370	0.610
2020/01/31 12:07:41.9	299.930	-0.220	0.350	0.570
2020/01/31 12:07:42.0	299.920	-0.220	0.330	0.540
2020/01/31 12:07:42.1	299.910	-0.220	0.310	0.500
2020/01/31 12:07:42.2	299.890	-0.220	0.290	0.470
2020/01/31 12:07:42.3	299.880	-0.220	0.260	0.430
2020/01/31 12:07:42.4	299.860	-0.220	0.240	0.400
2020/01/31 12:07:42.5	299.850	-0.210	0.210	0.360
2020/01/31 12:07:42.6	299.840	-0.210	0.190	0.330
2020/01/31 12:07:42.7	299.830	-0.210	0.160	0.300
2020/01/31 12:07:42.8	299.810	-0.200	0.130	0.270
2020/01/31 12:07:42.9	299.800	-0.200	0.100	0.240
2020/01/31 12:07:43.0	299.780	-0.190	0.080	0.210
2020/01/31 12:07:43.1	299.760	-0.180	0.050	0.180
2020/01/31 12:07:43.2	299.750	-0.180	0.020	0.160
2020/01/31 12:07:43.3	299.730	-0.170	-0.000	0.140
2020/01/31 12:07:43.4	299.710	-0.160	-0.030	0.110
2020/01/31 12:07:43.5	299.690	-0.160	-0.050	0.100
2020/01/31 12:07:43.6	299.670	-0.150	-0.080	0.070
2020/01/31 12:07:43.7	299.650	-0.140	-0.110	0.060
2020/01/31 12:07:43.8	299.630	-0.130	-0.130	0.050
2020/01/31 12:07:43.9	299.600	-0.120	-0.150	0.030
2020/01/31 12:07:44.0	299.580	-0.110	-0.170	0.020
2020/01/31 12:07:44.1	299.560	-0.100	-0.190	0.020
2020/01/31 12:07:44.2	299.530	-0.090	-0.210	0.010
2020/01/31 12:07:44.3	299.510	-0.080	-0.240	0.000
2020/01/31 12:07:44.4	299.480	-0.070	-0.250	0.000
2020/01/31 12:07:44.5	299.460	-0.050	-0.270	0.000
2020/01/31 12:07:44.6	299.430	-0.040	-0.290	0.000
2020/01/31 12:07:44.7	299.400	-0.030	-0.310	0.010
2020/01/31 12:07:44.8	299.370	-0.020	-0.330	0.010
2020/01/31 12:07:44.9	299.340	-0.000	-0.340	0.020
2020/01/31 12:07:45.0	299.320	0.010	-0.360	0.030
2020/01/31 12:07:45.1	299.290	0.020	-0.380	0.040
2020/01/31 12:07:45.2	299.260	0.040	-0.390	0.050
2020/01/31 12:07:45.3	299.230	0.050	-0.410	0.070
2020/01/31 12:07:45.4	299.200	0.070	-0.420	0.090
2020/01/31 12:07:45.5	299.160	0.080	-0.440	0.110
2020/01/31 12:07:45.6	299.140	0.100	-0.460	0.130
2020/01/31 12:07:45.7	299.100	0.110	-0.470	0.150
2020/01/31 12:07:45.8	299.070	0.130	-0.490	0.180
2020/01/31 12:07:45.9	299.030	0.150	-0.500	0.200
2020/01/31 12:07:46.0	299.000	0.160	-0.520	0.230
2020/01/31 12:07:46.1	298.960	0.180	-0.530	0.260
2020/01/31 12:07:46.2	298.920	0.190	-0.550	0.290
2020/01/31 12:07:46.3	298.890	0.210	-0.560	0.330
2020/01/31 12:07:46.4	298.850	0.230	-0.580	0.360
2020/01/31 12:07:46.5	298.810	0.240	-0.590	0.400
2020/01/31 12:07:46.6	298.780	0.260	-0.610	0.440
2020/01/31 12:07:46.7	298.740	0.270	-0.620	0.470
2020/01/31 12:07:46.8	298.700	0.290	-0.630	0.520
2020/01/31 12:07:46.9	298.650	0.300	-0.650	0.560
2020/01/31 12:07:47.0	298.610	0.310	-0.660	0.600
2020/01/31 12:07:47.1	298.560	0.330	-0.670	0.640
2020/01/31 12:07:47.2	298.520	0.340	-0.670	0.690
2020/01/31 12:07:47.3	298.470	0.350	-0.680	0.740
2020/01/31 12:07:47.4	298.420	0.360	-0.690	0.780
2020/01/31 12:07:47.5	298.370	0.370	-0.700	0.830
2020/01/31 12:07:47.6	298.330	0.380	-0.700	0.880
2020/01/31 12:07:47.7	298.290	0.380	-0.700	0.920
2020/01/31 12:07:47.8	298.240	0.390	-0.710	0.970
2020/01/31 12:07:47.9	298.190	0.390	-0.710	1.020
2020/01/31 12:07:48.0	298.140	0.400	-0.710	1.060
2020/01/31 12:07:48.1	298.100	0.400	-0.710	1.110
2020/01/31 12:07:48.2	298.050	0.400	-0.710	1.150
2020/01/31 12:07:48.3	298.010	0.400	-0.710	1.190
2020/01/31 12:07:48.4	297.960	0.400	-0.710	1.230
2020/01/31 12:07:48.5	297.920	0.400	-0.710	1.270
2020/01/31 12:07:48.6	297.900	0.400	-0.710	1.300
2020/01/31 12:07:48.7	297.860	0.390	-0.700	1.330
2020/01/31 12:07:48.8	297.820	0.390	-0.700	1.360
2020/01/31 12:07:48.9	297.790	0.380	-0.700	1.380
2020/01/31 12:07:49.0	297.760	0.380	-0.690	1.410
2020/01/31 12:07:49.1	297.730	0.370	-0.690	1.430
2020/01/31 12:07:49.2	297.700	0.360	-0.680	1.440
2020/01/31 12:07:49.3	297.680	0.350	-0.670	1.450
2020/01/31 12:07:49.4	297.660	0.340	-0.670	1.460
2020/01/31 12:07:49.5	297.640	0.330	-0.660	1.460
2020/01/31 12:07:49.6	297.610	0.310	-0.650	1.460
2020/01/31 12:07:49.7	297.600	0.300	-0.640	1.460
2020/01/31 12:07:49.8	297.580	0.290	-0.620	1.450
2020/01/31 12:07:49.9	297.570	0.270	-0.610	1.450
2020/01/31 12:07:50.0	297.560	0.260	-0.590	1.440
2020/01/31 12:07:50.1	297.550	0.240	-0.570	1.420
2020/01/31 12:07:50.2	297.540	0.220	-0.550	1.410
2020/01/31 12:07:50.3	297.530	0.200	-0.530	1.390
2020/01/31 12:07:50.4	297.530	0.180	-0.510	1.370
2020/01/31 12:07:50.5	297.520	0.160	-0.480	1.350
2020/01/31 12:07:50.6	297.530	0.140	-0.460	1.320
2020/01/31 12:07:50.7	297.520	0.120	-0.430	1.300
2020/01/31 12:07:50.8	297.520	0.100	-0.400	1.270
2020/01/31 12:07:50.9	297.510	0.070	-0.360	1.250
2020/01/31 12:07:51.0	297.510	0.050	-0.330	1.220
2020/01/31 12:07:51.1	297.510	0.020	-0.290	1.190
2020/01/31 12:07:51.2	297.500	-0.000	-0.250	1.160
2020/01/31 12:07:51.3	297.500	-0.030	-0.210	1.130
2020/01/31 12:07:51.4	297.490	-0.060	-0.170	1.100
2020/01/31 12:07:51.5	297.490	-0.080	-0.130	1.070
2020/01/31 12:07:51.6	297.490	-0.110	-0.090	1.040
2020/01/31 12:07:51.7	297.480	-0.140	-0.050	1.010
2020/01/31 12:07:51.8	297.480	-0.160	-0.010	0.980
2020/01/31 12:07:51.9	297.470	-0.190	0.030	0.950
2020/01/31 12:07:52.0	297.460	-0.220	0.080	0.920
2020/01/31 12:07:52.1	297.450	-0.240	0.120	0.890
2020/01/31 12:07:52.2	297.440	-0.270	0.160	0.860
2020/01/31 12:07:52.3	297.430	-0.290	0.200	0.840
2020/01/31 12:07:52.4	297.410	-0.320	0.230	0.810
2020/01/31 12:07:52.5	297.400	-0.340	0.270	0.790
2020/01/31 12:07:52.6	297.380	-0.360	0.310	0.760
2020/01/31 12:07:52.7	297.360	-0.380	0.340	0.740
2020/01/31 12:07:52.8	297.340	-0.400	0.370	0.730
2020/01/31 12:07:52.9	297.320	-0.420	0.400	0.710
2020/01/31 12:07:53.0	297.290	-0.430	0.430	0.690
2020/01/31 12:07:53.1	297.270	-0.450	0.460	0.680
2020/01/31 12:07:53.2	297.240	-0.460	0.480	0.670
2020/01/31 12:07:53.3	297.210	-0.470	0.500	0.660
2020/01/31 12:07:53.4	297.180	-0.480	0.520	0.650
2020/01/31 12:07:53.5	297.150	-0.490	0.540	0.650
2020/01/31 12:07:53.6	297.120	-0.500	0.550	0.640
2020/01/31 12:07:53.7	297.090	-0.500	0.560	0.640
2020/01/31 12:07:53.8	297.050	-0.500	0.560	0.640
2020/01/31 12:07:53.9	297.010	-0.500	0.570	0.640
2020/01/31 12:07:54.0	296.970	-0.500	0.570	0.640
2020/01/31 12:07:54.1	296.930	-0.500	0.560	0.650
2020/01/31 12:07:54.2	296.890	-0.490	0.560	0.650
2020/01/31 12:07:54.3	296.840	-0.480	0.550	0.660
2020/01/31 12:07:54.4	296.790	-0.480	0.530	0.670
2020/01/31 12:07:54.5	296.750	-0.460	0.520	0.680
2020/01/31 12:07:54.6	296.700	-0.450	0.490	0.690
2020/01/31 12:07:54.7	296.650	-0.440	0.470	0.710
2020/01/31 12:07:54.8	296.600	-0.420	0.440	0.720
2020/01/31 12:07:54.9	296.550	-0.400	0.410	0.730
2020/01/31 12:07:55.0	296.490	-0.380	0.380	0.750
2020/01/31 12:07:55.1	296.440	-0.360	0.350	0.770
2020/01/31 12:07:55.2	296.380	-0.340	0.310	0.780
2020/01/31 12:07:55.3	296.320	-0.320	0.270	0.800
2020/01/31 12:07:55.4	296.270	-0.300	0.220	0.820
2020/01/31 12:07:55.5	296.210	-0.270	0.180	0.830
2020/01/31 12:07:55.6	296.130	-0.250	0.130	0.850
2020/01/31 12:07:55.7	296.070	-0.220	0.090	0.870
2020/01/31 12:07:55.8	296.010	-0.190	0.040	0.880
2020/01/31 12:07:55.9	295.960	-0.170	-0.020	0.900
2020/01/31 12:07:56.0	295.900	-0.140	-0.070	0.920
2020/01/31 12:07:56.1	295.840	-0.110	-0.120	0.930
2020/01/31 12:07:56.2	295.780	-0.090	-0.170	0.950
2020/01/31 12:07:56.3	295.720	-0.060	-0.220	0.970
2020/01/31 12:07:56.4	295.660	-0.030	-0.280	0.990
2020/01/31 12:07:56.5	295.600	-0.010	-0.330	1.000
2020/01/31 12:07:56.6	295.520	0.020	-0.380	1.010
2020/01/31 12:07:56.7	295.460	0.050	-0.430	1.030
2020/01/31 12:07:56.8	295.400	0.070	-0.470	1.040
2020/01/31 12:07:56.9	295.340	0.090	-0.520	1.060
2020/01/31 12:07:57.0	295.280	0.120	-0.560	1.080
2020/01/31 12:07:57.1	295.230	0.140	-0.600	1.090
2020/01/31 12:07:57.2	295.170	0.160	-0.640	1.110
2020/01/31 12:07:57.3	295.110	0.180	-0.680	1.120
2020/01/31 12:07:57.4	295.050	0.200	-0.710	1.130
2020/01/31 12:07:57.5	295.000	0.220	-0.740	1.150
2020/01/31 12:07:57.6	294.940	0.230	-0.770	1.160
2020/01/31 12:07:57.7	294.880	0.250	-0.800	1.170
2020/01/31 12:07:57.8	294.830	0.260	-0.820	1.180
2020/01/31 12:07:57.9	294.770	0.270	-0.840	1.190
2020/01/31 12:07:58.0	294.720	0.290	-0.860	1.200
2020/01/31 12:07:58.1	294.670	0.300	-0.880	1.210
2020/01/31 12:07:58.2	294.620	0.300	-0.890	1.220
2020/01/31 12:07:58.3	294.570	0.310	-0.900	1.230
2020/01/31 12:07:58.4	294.520	0.320	-0.910	1.230
2020/01/31 12:07:58.5	294.480	0.320	-0.920	1.240
2020/01/31 12:07:58.6	294.420	0.330	-0.920	1.250
2020/01/31 12:07:58.7	294.380	0.330	-0.920	1.250
2020/01/31 12:07:58.8	294.340	0.330	-0.920	1.250
2020/01/31 12:07:58.9	294.300	0.330	-0.920	1.260
2020/01/31 12:07:59.0	294.250	0.330	-0.920	1.260
2020/01/31 12:07:59.1	294.220	0.330	-0.910	1.260
2020/01/31 12:07:59.2	294.180	0.330	-0.910	1.260
2020/01/31 12:07:59.3	294.140	0.330	-0.900	1.260
2020/01/31 12:07:59.4	294.110	0.320	-0.890	1.260
2020/01/31 12:07:59.5	294.070	0.320	-0.880	1.260
2020/01/31 12:07:59.6	294.040	0.320	-0.860	1.250
2020/01/31 12:07:59.7	294.010	0.310	-0.850	1.240
2020/01/31 12:07:59.8	293.970	0.300	-0.830	1.240
2020/01/31 12:07:59.9	293.940	0.300	-0.810	1.230
2020/01/31 12:08:00.0	293.910	0.290	-0.790	1.220
2020/01/31 12:08:00.1	293.890	0.280	-0.770	1.210
2020/01/31 12:08:00.2	293.860	0.270	-0.750	1.200
2020/01/31 12:08:00.3	293.830	0.270	-0.730	1.190
2020/01/31 12:08:00.4	293.800	0.260	-0.700	1.170
2020/01/31 12:08:00.5	293.780	0.250	-0.680	1.160
2020/01/31 12:08:00.6	293.750	0.240	-0.650	1.140
2020/01/31 12:08:00.7	293.730	0.230	-0.620	1.120
2020/01/31 12:08:00.8	293.700	0.220	-0.590	1.110
2020/01/31 12:08:00.9	293.680	0.210	-0.560	1.090
2020/01/31 12:08:01.0	293.660	0.190	-0.530	1.060
2020/01/31 12:08:01.1	293.640	0.180	-0.500	1.040
2020/01/31 12:08:01.2	293.620	0.170	-0.470	1.020
2020/01/31 12:08:01.3	293.610	0.160	-0.440	1.000
2020/01/31 12:08:01.4	293.590	0.150	-0.410	0.970
2020/01/31 12:08:01.5	293.580	0.140	-0.380	0.940
2020/01/31 12:08:01.6	293.570	0.130	-0.340	0.920
2020/01/31 12:08:01.7	293.560	0.120	-0.310	0.890
2020/01/31 12:08:01.8	293.550	0.110	-0.280	0.860
2020/01/31 12:08:01.9	293.540	0.100	-0.250	0.830
2020/01/31 12:08:02.0	293.530	0.090	-0.230	0.800
2020/01/31 12:08:02.1	293.520	0.080	-0.200	0.770
2020/01/31 12:08:02.2	293.520	0.070	-0.170	0.740
2020/01/31 12:08:02.3	293.510	0.060	-0.140	0.710
2020/01/31 12:08:02.4	293.500	0.060	-0.120	0.680
2020/01/31 12:08:02.5	293.500	0.050	-0.100	0.650
2020/01/31 12:08:02.6	293.490	0.040	-0.070	0.620
2020/01/31 12:08:02.7	293.490	0.030	-0.050	0.590
2020/01/31 12:08:02.8	293.480	0.030	-0.030	0.560
2020/01/31 12:08:02.9	293.480	0.020	-0.010	0.540
2020/01/31 12:08:03.0	293.470	0.010	0.010	0.510
2020/01/31 12:08:03.1	293.460	0.000	0.030	0.490
2020/01/31 12:08:03.2	293.460	-0.000	0.040	0.470
2020/01/31 12:08:03.3	293.450	-0.010	0.060	0.460
2020/01/31 12:08:03.4	293.440	-0.010	0.070	0.440
2020/01/31 12:08:03.5	293.430	-0.020	0.090	0.430
2020/01/31 12:08:03.6	293.420	-0.030	0.100	0.420
2020/01/31 12:08:03.7	293.400	-0.030	0.110	0.420
2020/01/31 12:08:03.8	293.390	-0.040	0.120	0.420
2020/01/31 12:08:03.9	293.380	-0.040	0.130	0.420
2020/01/31 12:08:04.0	293.360	-0.050	0.140	0.430
2020/01/31 12:08:04.1	293.340	-0.050	0.150	0.440
2020/01/31 12:08:04.2	293.320	-0.060	0.160	0.450
2020/01/31 12:08:04.3	293.300	-0.060	0.170	0.470
2020/01/31 12:08:04.4	293.280	-0.060	0.180	0.490
2020/01/31 12:08:04.5	293.250	-0.070	0.190	0.510
2020/01/31 12:08:04.6	293.210	-0.070	0.190	0.540
2020/01/31 12:08:04.7	293.180	-0.080	0.200	0.570
2020/01/31 12:08:04.8	293.150	-0.080	0.210	0.610
2020/01/31 12:08:04.9	293.110	-0.080	0.220	0.650
2020/01/31 12:08:05.0	293.080	-0.080	0.220	0.690
2020/01/31 12:08:05.1	293.030	-0.090	0.230	0.730
2020/01/31 12:08:05.2	292.990	-0.090	0.240	0.780
2020/01/31 12:08:05.3	292.950	-0.090	0.250	0.820
2020/01/31 12:08:05.4	292.900	-0.090	0.250	0.870
2020/01/31 12:08:05.5	292.850	-0.100	0.260	0.920
2020/01/31 12:08:05.6	292.790	-0.100	0.270	0.960
2020/01/31 12:08:05.7	292.730	-0.100	0.270	1.010
2020/01/31 12:08:05.8	292.670	-0.100	0.280	1.060
2020/01/31 12:08:05.9	292.610	-0.110	0.280	1.110
2020/01/31 12:08:06.0	292.550	-0.110	0.290	1.150
2020/01/31 12:08:06.1	292.480	-0.110	0.290	1.200
2020/01/31 12:08:06.2	292.420	-0.110	0.290	1.240
2020/01/31 12:08:06.3	292.350	-0.110	0.300	1.290
2020/01/31 12:08:06.4	292.270	-0.120	0.300	1.330
2020/01/31 12:08:06.5	292.200	-0.120	0.300	1.370
2020/01/31 12:08:06.6	292.120	-0.120	0.290	1.400
2020/01/31 12:08:06.7	292.040	-0.120	0.290	1.440
2020/01/31 12:08:06.8	291.970	-0.120	0.290	1.470
2020/01/31 12:08:06.9	291.890	-0.130	0.280	1.500
2020/01/31 12:08:07.0	291.810	-0.130	0.270	1.530
2020/01/31 12:08:07.1	291.720	-0.130	0.260	1.560
2020/01/31 12:08:07.2	291.640	-0.130	0.250	1.580
2020/01/31 12:08:07.3	291.560	-0.130	0.230	1.600
2020/01/31 12:08:07.4	291.480	-0.130	0.210	1.620
2020/01/31 12:08:07.5	291.390	-0.130	0.190	1.630
2020/01/31 12:08:07.6	291.300	-0.140	0.170	1.640
2020/01/31 12:08:07.7	291.220	-0.140	0.140	1.650
2020/01/31 12:08:07.8	291.140	-0.140	0.120	1.650
2020/01/31 12:08:07.9	291.060	-0.140	0.090	1.650
2020/01/31 12:08:08.0	290.970	-0.140	0.060	1.650
2020/01/31 12:08:08.1	290.890	-0.140	0.020	1.640
2020/01/31 12:08:08.2	290.810	-0.140	-0.010	1.630
2020/01/31 12:08:08.3	290.730	-0.140	-0.050	1.620
2020/01/31 12:08:08.4	290.660	-0.130	-0.090	1.600
2020/01/31 12:08:08.5	290.580	-0.130	-0.130	1.580
2020/01/31 12:08:08.6	290.510	-0.130	-0.170	1.560
2020/01/31 12:08:08.7	290.440	-0.130	-0.220	1.530
2020/01/31 12:08:08.8	290.360	-0.120	-0.260	1.510
2020/01/31 12:08:08.9	290.290	-0.120	-0.310	1.480
2020/01/31 12:08:09.0	290.220	-0.110	-0.360	1.460
2020/01/31 12:08:09.1	290.150	-0.110	-0.410	1.430
2020/01/31 12:08:09.2	290.090	-0.100	-0.450	1.400
2020/01/31 12:08:09.3	290.020	-0.090	-0.500	1.370
2020/01/31 12:08:09.4	289.960	-0.080	-0.550	1.330
2020/01/31 12:08:09.5	289.900	-0.080	-0.590	1.300
2020/01/31 12:08:09.6	289.840	-0.070	-0.640	1.270
2020/01/31 12:08:09.7	289.780	-0.060	-0.690	1.240
2020/01/31 12:08:09.8	289.720	-0.050	-0.730	1.200
2020/01/31 12:08:09.9	289.660	-0.040	-0.770	1.170
2020/01/31 12:08:10.0	289.610	-0.030	-0.800	1.140
2020/01/31 12:08:10.1	289.560	-0.020	-0.840	1.110
2020/01/31 12:08:10.2	289.510	-0.010	-0.870	1.080
2020/01/31 12:08:10.3	289.460	-0.010	-0.890	1.050
2020/01/31 12:08:10.4	289.410	0.000	-0.920	1.020
2020/01/31 12:08:10.5	289.360	0.010	-0.940	0.990
2020/01/31 12:08:10.6	289.310	0.020	-0.960	0.960
2020/01/31 12:08:10.7	289.270	0.020	-0.970	0.930
2020/01/31 12:08:10.8	289.220	0.030	-0.980	0.910
2020/01/31 12:08:10.9	289.180	0.040	-0.990	0.890
2020/01/31 12:08:11.0	289.140	0.040	-0.990	0.860
2020/01/31 12:08:11.1	289.100	0.040	-0.990	0.840
2020/01/31 12:08:11.2	289.060	0.050	-0.980	0.830
2020/01/31 12:08:11.3	289.030	0.050	-0.980	0.810
2020/01/31 12:08:11.4	288.990	0.050	-0.970	0.800
2020/01/31 12:08:11.5	288.950	0.050	-0.950	0.790
2020/01/31 12:08:11.6	288.920	0.050	-0.940	0.780
2020/01/31 12:08:11.7	288.890	0.050	-0.920	0.770
2020/01/31 12:08:11.8	288.850	0.050	-0.900	0.770
2020/01/31 12:08:11.9	288.820	0.050	-0.880	0.770
2020/01/31 12:08:12.0	288.790	0.040	-0.860	0.780
2020/01/31 12:08:12.1	288.760	0.040	-0.830	0.780
2020/01/31 12:08:12.2	288.740	0.040	-0.810	0.790
2020/01/31 12:08:12.3	288.710	0.040	-0.790	0.800
2020/01/31 12:08:12.4	288.690	0.030	-0.760	0.810
2020/01/31 12:08:12.5	288.660	0.030	-0.740	0.820
2020/01/31 12:08:12.6	288.640	0.030	-0.710	0.830
2020/01/31 12:08:12.7	288.610	0.030	-0.690	0.850
2020/01/31 12:08:12.8	288.590	0.020	-0.670	0.870
2020/01/31 12:08:12.9	288.570	0.020	-0.650	0.890
2020/01/31 12:08:13.0	288.550	0.020	-0.630	0.910
2020/01/31 12:08:13.1	288.530	0.020	-0.610	0.930
2020/01/31 12:08:13.2	288.510	0.020	-0.590	0.960
2020/01/31 12:08:13.3	288.490	0.020	-0.570	0.980
2020/01/31 12:08:13.4	288.470	0.020	-0.550	1.010
2020/01/31 12:08:13.5	288.460	0.020	-0.530	1.040
2020/01/31 12:08:13.6	288.430	0.020	-0.520	1.060
2020/01/31 12:08:13.7	288.410	0.020	-0.500	1.100
2020/01/31 12:08:13.8	288.380	0.030	-0.480	1.130
2020/01/31 12:08:13.9	288.360	0.030	-0.470	1.160
2020/01/31 12:08:14.0	288.340	0.030	-0.450	1.200
2020/01/31 12:08:14.1	288.310	0.040	-0.430	1.230
2020/01/31 12:08:14.2	288.280	0.040	-0.420	1.270
2020/01/31 12:08:14.3	288.260	0.040	-0.400	1.310
2020/01/31 12:08:14.4	288.220	0.050	-0.380	1.350
2020/01/31 12:08:14.5	288.190	0.050	-0.370	1.390
2020/01/31 12:08:14.6	288.150	0.060	-0.340	1.430
2020/01/31 12:08:14.7	288.120	0.060	-0.320	1.470
2020/01/31 12:08:14.8	288.080	0.060	-0.300	1.510
2020/01/31 12:08:14.9	288.040	0.060	-0.280	1.550
2020/01/31 12:08:15.0	287.990	0.070	-0.260	1.600
2020/01/31 12:08:15.1	287.940	0.070	-0.240	1.640
2020/01/31 12:08:15.2	287.890	0.070	-0.210	1.680
2020/01/31 12:08:15.3	287.840	0.070	-0.180	1.720
2020/01/31 12:08:15.4	287.790	0.070	-0.150	1.760
2020/01/31 12:08:15.5	287.730	0.060	-0.120	1.800
2020/01/31 12:08:15.6	287.690	0.060	-0.090	1.840
2020/01/31 12:08:15.7	287.620	0.060	-0.060	1.870
2020/01/31 12:08:15.8	287.560	0.050	-0.020	1.910
2020/01/31 12:08:15.9	287.490	0.050	0.010	1.940
2020/01/31 12:08:16.0	287.430	0.040	0.050	1.970
2020/01/31 12:08:16.1	287.360	0.030	0.090	2.010
2020/01/31 12:08:16.2	287.290	0.020	0.140	2.040
2020/01/31 12:08:16.3	287.210	0.020	0.180	2.070
2020/01/31 12:08:16.4	287.140	0.000	0.220	2.090
2020/01/31 12:08:16.5	287.060	-0.010	0.270	2.120
2020/01/31 12:08:16.6	286.990	-0.020	0.320	2.140
2020/01/31 12:08:16.7	286.910	-0.030	0.360	2.160
2020/01/31 12:08:16.8	286.830	-0.040	0.410	2.180
2020/01/31 12:08:16.9	286.750	-0.060	0.450	2.190
2020/01/31 12:08:17.0	286.670	-0.070	0.500	2.200
2020/01/31 12:08:17.1	286.590	-0.080	0.540	2.210
2020/01/31 12:08:17.2	286.510	-0.090	0.580	2.220
2020/01/31 12:08:17.3	286.430	-0.110	0.620	2.220
2020/01/31 12:08:17.4	286.350	-0.120	0.660	2.220
2020/01/31 12:08:17.5	286.270	-0.130	0.700	2.210
2020/01/31 12:08:17.6	286.200	-0.140	0.730	2.200
2020/01/31 12:08:17.7	286.120	-0.160	0.760	2.190
2020/01/31 12:08:17.8	286.050	-0.170	0.780	2.170
2020/01/31 12:08:17.9	285.970	-0.170	0.800	2.140
2020/01/31 12:08:18.0	285.890	-0.180	0.820	2.120
2020/01/31 12:08:18.1	285.820	-0.190	0.830	2.090
2020/01/31 12:08:18.2	285.740	-0.190	0.840	2.060
2020/01/31 12:08:18.3	285.670	-0.200	0.850	2.020
2020/01/31 12:08:18.4	285.600	-0.200	0.850	1.980
2020/01/31 12:08:18.5	285.520	-0.200	0.840	1.940
2020/01/31 12:08:18.6	285.470	-0.200	0.830	1.890
2020/01/31 12:08:18.7	285.410	-0.200	0.820	1.850
2020/01/31 12:08:18.8	285.340	-0.200	0.800	1.800
2020/01/31 12:08:18.9	285.270	-0.190	0.770	1.750
2020/01/31 12:08:19.0	285.210	-0.180	0.740	1.700
2020/01/31 12:08:19.1	285.140	-0.180	0.710	1.650
2020/01/31 12:08:19.2	285.080	-0.170	0.670	1.590
2020/01/31 12:08:19.3	285.020	-0.150	0.630	1.540
2020/01/31 12:08:19.4	284.950	-0.140	0.590	1.480
2020/01/31 12:08:19.5	284.890	-0.130	0.540	1.430
2020/01/31 12:08:19.6	284.830	-0.110	0.490	1.370
2020/01/31 12:08:19.7	284.780	-0.090	0.430	1.320
2020/01/31 12:08:19.8	284.720	-0.080	0.370	1.260
2020/01/31 12:08:19.9	284.660	-0.060	0.310	1.210
2020/01/31 12:08:20.0	284.610	-0.040	0.250	1.160
2020/01/31 12:08:20.1	284.560	-0.020	0.190	1.110
2020/01/31 12:08:20.2	284.500	0.000	0.120	1.060
2020/01/31 12:08:20.3	284.450	0.030	0.050	1.020
2020/01/31 12:08:20.4	284.400	0.050	-0.020	0.980
2020/01/31 12:08:20.5	284.340	0.070	-0.090	0.940
2020/01/31 12:08:20.6	284.280	0.100	-0.160	0.900
2020/01/31 12:08:20.7	284.220	0.120	-0.230	0.870
2020/01/31 12:08:20.8	284.170	0.140	-0.300	0.840
2020/01/31 12:08:20.9	284.120	0.160	-0.370	0.810
2020/01/31 12:08:21.0	284.070	0.190	-0.440	0.790
2020/01/31 12:08:21.1	284.020	0.210	-0.510	0.770
2020/01/31 12:08:21.2	283.970	0.230	-0.580	0.750
2020/01/31 12:08:21.3	283.910	0.250	-0.640	0.740
2020/01/31 12:08:21.4	283.860	0.260	-0.710	0.730
2020/01/31 12:08:21.5	283.810	0.280	-0.770	0.730
2020/01/31 12:08:21.6	283.760	0.300	-0.840	0.720
2020/01/31 12:08:21.7	283.710	0.310	-0.900	0.720
2020/01/31 12:08:21.8	283.660	0.320	-0.950	0.730
2020/01/31 12:08:21.9	283.610	0.330	-1.010	0.730
2020/01/31 12:08:22.0	283.560	0.340	-1.060	0.740
2020/01/31 12:08:22.1	283.510	0.350	-1.120	0.750
2020/01/31 12:08:22.2	283.450	0.350	-1.160	0.770
2020/01/31 12:08:22.3	283.400	0.350	-1.210	0.780
2020/01/31 12:08:22.4	283.350	0.350	-1.250	0.800
2020/01/31 12:08:22.5	283.300	0.350	-1.290	0.820
2020/01/31 12:08:22.6	283.240	0.350	-1.330	0.840
2020/01/31 12:08:22.7	283.190	0.340	-1.360	0.870
2020/01/31 12:08:22.8	283.130	0.330	-1.390	0.890
2020/01/31 12:08:22.9	283.080	0.330	-1.410	0.920
2020/01/31 12:08:23.0	283.030	0.310	-1.430	0.960
2020/01/31 12:08:23.1	282.970	0.300	-1.450	0.990
2020/01/31 12:08:23.2	282.920	0.290	-1.460	1.020
2020/01/31 12:08:23.3	282.860	0.270	-1.460	1.060
2020/01/31 12:08:23.4	282.810	0.250	-1.470	1.100
2020/01/31 12:08:23.5	282.750	0.240	-1.470	1.140
2020/01/31 12:08:23.6	282.700	0.220	-1.460	1.180
2020/01/31 12:08:23.7	282.650	0.200	-1.450	1.220
2020/01/31 12:08:23.8	282.590	0.180	-1.430	1.270
2020/01/31 12:08:23.9	282.530	0.160	-1.410	1.310
2020/01/31 12:08:24.0	282.480	0.140	-1.390	1.360
2020/01/31 12:08:24.1	282.420	0.110	-1.370	1.410
2020/01/31 12:08:24.2	282.370	0.090	-1.340	1.460
2020/01/31 12:08:24.3	282.310	0.070	-1.300	1.510
2020/01/31 12:08:24.4	282.260	0.050	-1.270	1.560
2020/01/31 12:08:24.5	282.200	0.030	-1.230	1.600
2020/01/31 12:08:24.6	282.160	0.010	-1.180	1.650
2020/01/31 12:08:24.7	282.110	-0.010	-1.140	1.700
2020/01/31 12:08:24.8	282.050	-0.040	-1.090	1.750
2020/01/31 12:08:24.9	281.990	-0.060	-1.040	1.800
2020/01/31 12:08:25.0	281.940	-0.070	-0.990	1.850
2020/01/31 12:08:25.1	281.880	-0.090	-0.940	1.890
2020/01/31 12:08:25.2	281.830	-0.110	-0.890	1.940
2020/01/31 12:08:25.3	281.770	-0.130	-0.830	1.980
2020/01/31 12:08:25.4	281.720	-0.140	-0.780	2.030
2020/01/31 12:08:25.5	281.670	-0.160	-0.720	2.070
2020/01/31 12:08:25.6	281.610	-0.170	-0.660	2.110
2020/01/31 12:08:25.7	281.550	-0.190	-0.600	2.150
2020/01/31 12:08:25.8	281.500	-0.200	-0.540	2.190
2020/01/31 12:08:25.9	281.450	-0.210	-0.480	2.220
2020/01/31 12:08:26.0	281.390	-0.220	-0.420	2.260
2020/01/31 12:08:26.1	281.340	-0.230	-0.370	2.300
2020/01/31 12:08:26.2	281.290	-0.240	-0.310	2.330
2020/01/31 12:08:26.3	281.230	-0.250	-0.250	2.360
2020/01/31 12:08:26.4	281.180	-0.260	-0.190	2.400
2020/01/31 12:08:26.5	281.130	-0.260	-0.140	2.430
2020/01/31 12:08:26.6	281.090	-0.270	-0.080	2.460
2020/01/31 12:08:26.7	281.040	-0.280	-0.020	2.480
2020/01/31 12:08:26.8	280.990	-0.280	0.030	2.510
2020/01/31 12:08:26.9	280.950	-0.290	0.090	2.530
2020/01/31 12:08:27.0	280.900	-0.290	0.140	2.550
2020/01/31 12:08:27.1	280.850	-0.290	0.190	2.570
2020/01/31 12:08:27.2	280.810	-0.300	0.240	2.590
2020/01/31 12:08:27.3	280.760	-0.300	0.300	2.610
2020/01/31 12:08:27.4	280.720	-0.300	0.340	2.620
2020/01/31 12:08:27.5	280.680	-0.310	0.390	2.630
2020/01/31 12:08:27.6	280.630	-0.310	0.440	2.640
2020/01/31 12:08:27.7	280.590	-0.310	0.490	2.650
2020/01/31 12:08:27.8	280.560	-0.310	0.530	2.660
2020/01/31 12:08:27.9	280.520	-0.310	0.570	2.660
2020/01/31 12:08:28.0	280.480	-0.310	0.610	2.670
2020/01/31 12:08:28.1	280.450	-0.310	0.650	2.670
2020/01/31 12:08:28.2	280.410	-0.310	0.680	2.660
2020/01/31 12:08:28.3	280.380	-0.310	0.710	2.660
2020/01/31 12:08:28.4	280.340	-0.310	0.740	2.660
2020/01/31 12:08:28.5	280.310	-0.310	0.770	2.650
2020/01/31 12:08:28.6	280.290	-0.310	0.790	2.640
2020/01/31 12:08:28.7	280.260	-0.310	0.810	2.630
2020/01/31 12:08:28.8	280.230	-0.310	0.830	2.620
2020/01/31 12:08:28.9	280.210	-0.310	0.850	2.600
2020/01/31 12:08:29.0	280.180	-0.300	0.860	2.590
2020/01/31 12:08:29.1	280.150	-0.300	0.870	2.570
2020/01/31 12:08:29.2	280.120	-0.300	0.870	2.560
2020/01/31 12:08:29.3	280.100	-0.290	0.870	2.540
2020/01/31 12:08:29.4	280.070	-0.280	0.870	2.520
2020/01/31 12:08:29.5	280.050	-0.280	0.860	2.490
2020/01/31 12:08:29.6	280.020	-0.270	0.850	2.470
2020/01/31 12:08:29.7	280.000	-0.260	0.840	2.440
2020/01/31 12:08:29.8	279.980	-0.250	0.820	2.420
2020/01/31 12:08:29.9	279.960	-0.240	0.800	2.390
2020/01/31 12:08:30.0	279.940	-0.230	0.780	2.350
2020/01/31 12:08:30.1	279.920	-0.220	0.750	2.320
2020/01/31 12:08:30.2	279.900	-0.210	0.720	2.290
2020/01/31 12:08:30.3	279.890	-0.190	0.680	2.250
2020/01/31 12:08:30.4	279.870	-0.180	0.640	2.210
2020/01/31 12:08:30.5	279.850	-0.160	0.600	2.170
2020/01/31 12:08:30.6	279.840	-0.150	0.560	2.130
2020/01/31 12:08:30.7	279.820	-0.130	0.510	2.090
2020/01/31 12:08:30.8	279.810	-0.110	0.460	2.050
2020/01/31 12:08:30.9	279.790	-0.090	0.410	2.010
2020/01/31 12:08:31.0	279.780	-0.070	0.360	1.960
2020/01/31 12:08:31.1	279.770	-0.050	0.310	1.920
2020/01/31 12:08:31.2	279.750	-0.030	0.250	1.880
2020/01/31 12:08:31.3	279.740	-0.010	0.190	1.840
2020/01/31 12:08:31.4	279.730	0.020	0.130	1.800
2020/01/31 12:08:31.5	279.720	0.040	0.070	1.750
2020/01/31 12:08:31.6	279.700	0.060	0.010	1.710
2020/01/31 12:08:31.7	279.690	0.090	-0.050	1.670
2020/01/31 12:08:31.8	279.680	0.110	-0.110	1.640
2020/01/31 12:08:31.9	279.660	0.140	-0.170	1.600
2020/01/31 12:08:32.0	279.650	0.160	-0.230	1.560
2020/01/31 12:08:32.1	279.640	0.180	-0.290	1.530
2020/01/31 12:08:32.2	279.620	0.210	-0.350	1.490
2020/01/31 12:08:32.3	279.610	0.230	-0.410	1.460
2020/01/31 12:08:32.4	279.590	0.250	-0.470	1.430
2020/01/31 12:08:32.5	279.580	0.270	-0.520	1.410
2020/01/31 12:08:32.6	279.540	0.290	-0.580	1.380
2020/01/31 12:08:32.7	279.520	0.310	-0.630	1.360
2020/01/31 12:08:32.8	279.510	0.330	-0.680	1.340
2020/01/31 12:08:32.9	279.490	0.350	-0.730	1.320
2020/01/31 12:08:33.0	279.470	0.360	-0.770	1.300
2020/01/31 12:08:33.1	279.460	0.380	-0.810	1.290
2020/01/31 12:08:33.2	279.440	0.390	-0.850	1.280
2020/01/31 12:08:33.3	279.420	0.400	-0.890	1.270
2020/01/31 12:08:33.4	279.400	0.410	-0.920	1.270
2020/01/31 12:08:33.5	279.390	0.420	-0.950	1.260
2020/01/31 12:08:33.6	279.360	0.420	-0.980	1.260
2020/01/31 12:08:33.7	279.350	0.430	-1.010	1.260
2020/01/31 12:08:33.8	279.330	0.430	-1.030	1.260
2020/01/31 12:08:33.9	279.310	0.430	-1.050	1.260
2020/01/31 12:08:34.0	279.300	0.430	-1.060	1.270
2020/01/31 12:08:34.1	279.280	0.430	-1.070	1.280
2020/01/31 12:08:34.2	279.270	0.420	-1.080	1.290
2020/01/31 12:08:34.3	279.250	0.410	-1.090	1.300
2020/01/31 12:08:34.4	279.230	0.410	-1.090	1.320
2020/01/31 12:08:34.5	279.220	0.400	-1.090	1.340
2020/01/31 12:08:34.6	279.200	0.390	-1.090	1.360
2020/01/31 12:08:34.7	279.180	0.370	-1.080	1.380
2020/01/31 12:08:34.8	279.160	0.360	-1.070	1.400
2020/01/31 12:08:34.9	279.150	0.340	-1.060	1.420
2020/01/31 12:08:35.0	279.130	0.330	-1.050	1.440
2020/01/31 12:08:35.1	279.110	0.310	-1.030	1.470
2020/01/31 12:08:35.2	279.090	0.290	-1.010	1.490
2020/01/31 12:08:35.3	279.070	0.270	-0.990	1.520
2020/01/31 12:08:35.4	279.040	0.250	-0.960	1.540
2020/01/31 12:08:35.5	279.020	0.230	-0.930	1.560
2020/01/31 12:08:35.6	279.000	0.210	-0.900	1.590
2020/01/31 12:08:35.7	278.980	0.180	-0.870	1.610
2020/01/31 12:08:35.8	278.950	0.160	-0.840	1.630
2020/01/31 12:08:35.9	278.930	0.140	-0.800	1.650
2020/01/31 12:08:36.0	278.900	0.110	-0.770	1.670
2020/01/31 12:08:36.1	278.880	0.090	-0.730	1.690
2020/01/31 12:08:36.2	278.850	0.060	-0.690	1.710
2020/01/31 12:08:36.3	278.830	0.040	-0.660	1.720
2020/01/31 12:08:36.4	278.800	0.020	-0.620	1.730
2020/01/31 12:08:36.5	278.780	-0.010	-0.580	1.750
2020/01/31 12:08:36.6	278.750	-0.030	-0.540	1.750
2020/01/31 12:08:36.7	278.730	-0.050	-0.500	1.760
2020/01/31 12:08:36.8	278.700	-0.080	-0.460	1.770
2020/01/31 12:08:36.9	278.680	-0.100	-0.430	1.770
2020/01/31 12:08:37.0	278.650	-0.120	-0.390	1.770
2020/01/31 12:08:37.1	278.630	-0.140	-0.350	1.770
2020/01/31 12:08:37.2	278.600	-0.160	-0.320	1.770
2020/01/31 12:08:37.3	278.580	-0.180	-0.280	1.770
2020/01/31 12:08:37.4	278.550	-0.200	-0.250	1.760
2020/01/31 12:08:37.5	278.530	-0.210	-0.220	1.760
2020/01/31 12:08:37.6	278.510	-0.230	-0.180	1.750
2020/01/31 12:08:37.7	278.480	-0.240	-0.150	1.750
2020/01/31 12:08:37.8	278.460	-0.260	-0.130	1.740
2020/01/31 12:08:37.9	278.430	-0.270	-0.100	1.730
2020/01/31 12:08:38.0	278.410	-0.280	-0.070	1.710
2020/01/31 12:08:38.1	278.380	-0.290	-0.050	1.700
2020/01/31 12:08:38.2	278.350	-0.300	-0.030	1.690
2020/01/31 12:08:38.3	278.330	-0.310	-0.010	1.670
2020/01/31 12:08:38.4	278.310	-0.310	0.010	1.660
2020/01/31 12:08:38.5	278.280	-0.320	0.030	1.640
2020/01/31 12:08:38.6	278.250	-0.320	0.050	1.620
2020/01/31 12:08:38.7	278.230	-0.330	0.060	1.600
2020/01/31 12:08:38.8	278.210	-0.330	0.070	1.580
2020/01/31 12:08:38.9	278.190	-0.330	0.080	1.560
2020/01/31 12:08:39.0	278.170	-0.330	0.090	1.540
2020/01/31 12:08:39.1	278.150	-0.320	0.100	1.520
2020/01/31 12:08:39.2	278.140	-0.320	0.110	1.500
2020/01/31 12:08:39.3	278.120	-0.320	0.110	1.480
2020/01/31 12:08:39.4	278.110	-0.310	0.120	1.460
2020/01/31 12:08:39.5	278.100	-0.310	0.120	1.430
2020/01/31 12:08:39.6	278.070	-0.300	0.120	1.410
2020/01/31 12:08:39.7	278.060	-0.290	0.120	1.390
2020/01/31 12:08:39.8	278.050	-0.280	0.120	1.370
2020/01/31 12:08:39.9	278.050	-0.270	0.110	1.340
2020/01/31 12:08:40.0	278.040	-0.260	0.110	1.320
2020/01/31 12:08:40.1	278.040	-0.250	0.100	1.300
2020/01/31 12:08:40.2	278.030	-0.240	0.100	1.280
2020/01/31 12:08:40.3	278.030	-0.230	0.090	1.260
2020/01/31 12:08:40.4	278.030	-0.220	0.080	1.240
2020/01/31 12:08:40.5	278.030	-0.210	0.070	1.220
2020/01/31 12:08:40.6	278.030	-0.190	0.060	1.200
2020/01/31 12:08:40.7	278.030	-0.180	0.040	1.180
2020/01/31 12:08:40.8	278.030	-0.170	0.030	1.170
2020/01/31 12:08:40.9	278.040	-0.160	0.020	1.150
2020/01/31 12:08:41.0	278.040	-0.150	0.010	1.140
2020/01/31 12:08:41.1	278.050	-0.140	0.000	1.120
2020/01/31 12:08:41.2	278.060	-0.130	-0.010	1.110
2020/01/31 12:08:41.3	278.070	-0.120	-0.020	1.090
2020/01/31 12:08:41.4	278.080	-0.110	-0.030	1.080
2020/01/31 12:08:41.5	278.090	-0.100	-0.030	1.070
2020/01/31 12:08:41.6	278.110	-0.100	-0.040	1.050
2020/01/31 12:08:41.7	278.120	-0.090	-0.040	1.040
2020/01/31 12:08:41.8	278.140	-0.080	-0.050	1.030
2020/01/31 12:08:41.9	278.150	-0.080	-0.050	1.020
2020/01/31 12:08:42.0	278.170	-0.070	-0.050	1.000
2020/01/31 12:08:42.1	278.190	-0.070	-0.060	0.990
2020/01/31 12:08:42.2	278.210	-0.070	-0.060	0.980
2020/01/31 12:08:42.3	278.230	-0.060	-0.060	0.960
2020/01/31 12:08:42.4	278.250	-0.060	-0.060	0.950
2020/01/31 12:08:42.5	278.270	-0.060	-0.060	0.940
2020/01/31 12:08:42.6	278.310	-0.060	-0.060	0.920
2020/01/31 12:08:42.7	278.330	-0.060	-0.060	0.910
2020/01/31 12:08:42.8	278.360	-0.060	-0.060	0.890
2020/01/31 12:08:42.9	278.380	-0.060	-0.060	0.880
2020/01/31 12:08:43.0	278.400	-0.060	-0.060	0.860
2020/01/31 12:08:43.1	278.430	-0.060	-0.060	0.850
2020/01/31 12:08:43.2	278.450	-0.060	-0.060	0.830
2020/01/31 12:08:43.3	278.470	-0.060	-0.060	0.810
2020/01/31 12:08:43.4	278.490	-0.060	-0.070	0.800
2020/01/31 12:08:43.5	278.510	-0.060	-0.070	0.790
2020/01/31 12:08:43.6	278.520	-0.060	-0.080	0.770
2020/01/31 12:08:43.7	278.540	-0.060	-0.090	0.760
2020/01/31 12:08:43.8	278.560	-0.060	-0.100	0.750
2020/01/31 12:08:43.9	278.570	-0.060	-0.110	0.740
2020/01/31 12:08:44.0	278.590	-0.060	-0.120	0.730
2020/01/31 12:08:44.1	278.600	-0.060	-0.140	0.730
2020/01/31 12:08:44.2	278.610	-0.050	-0.160	0.720
2020/01/31 12:08:44.3	278.630	-0.050	-0.180	0.720
2020/01/31 12:08:44.4	278.630	-0.050	-0.200	0.720
2020/01/31 12:08:44.5	278.640	-0.040	-0.220	0.720
2020/01/31 12:08:44.6	278.630	-0.030	-0.240	0.720
2020/01/31 12:08:44.7	278.630	-0.030	-0.270	0.730
2020/01/31 12:08:44.8	278.640	-0.020	-0.290	0.740
2020/01/31 12:08:44.9	278.640	-0.010	-0.320	0.750
2020/01/31 12:08:45.0	278.630	-0.000	-0.350	0.760
2020/01/31 12:08:45.1	278.630	0.010	-0.380	0.780
2020/01/31 12:08:45.2	278.620	0.020	-0.410	0.800
2020/01/31 12:08:45.3	278.600	0.030	-0.440	0.820
2020/01/31 12:08:45.4	278.590	0.040	-0.460	0.850
2020/01/31 12:08:45.5	278.570	0.050	-0.490	0.880
2020/01/31 12:08:45.6	278.550	0.060	-0.520	0.910
2020/01/31 12:08:45.7	278.520	0.070	-0.540	0.950
2020/01/31 12:08:45.8	278.500	0.080	-0.560	0.990
2020/01/31 12:08:45.9	278.470	0.090	-0.580	1.030
2020/01/31 12:08:46.0	278.440	0.100	-0.600	1.080
2020/01/31 12:08:46.1	278.400	0.110	-0.610	1.130
2020/01/31 12:08:46.2	278.360	0.120	-0.620	1.180
2020/01/31 12:08:46.3	278.320	0.130	-0.630	1.230
2020/01/31 12:08:46.4	278.280	0.140	-0.640	1.280
2020/01/31 12:08:46.5	278.240	0.140	-0.640	1.340
2020/01/31 12:08:46.6	278.170	0.150	-0.630	1.390
2020/01/31 12:08:46.7	278.130	0.160	-0.630	1.450
2020/01/31 12:08:46.8	278.080	0.160	-0.620	1.510
2020/01/31 12:08:46.9	278.020	0.160	-0.610	1.560
2020/01/31 12:08:47.0	277.970	0.170	-0.600	1.620
2020/01/31 12:08:47.1	277.920	0.170	-0.580	1.670
2020/01/31 12:08:47.2	277.860	0.170	-0.560	1.730
2020/01/31 12:08:47.3	277.810	0.170	-0.540	1.780
2020/01/31 12:08:47.4	277.750	0.160	-0.510	1.830
2020/01/31 12:08:47.5	277.690	0.160	-0.490	1.880
2020/01/31 12:08:47.6	277.630	0.160	-0.460	1.930
2020/01/31 12:08:47.7	277.570	0.150	-0.430	1.980
2020/01/31 12:08:47.8	277.510	0.140	-0.400	2.020
2020/01/31 12:08:47.9	277.460	0.130	-0.380	2.060
2020/01/31 12:08:48.0	277.400	0.130	-0.350	2.100
2020/01/31 12:08:48.1	277.340	0.120	-0.320	2.140
2020/01/31 12:08:48.2	277.290	0.110	-0.290	2.170
2020/01/31 12:08:48.3	277.230	0.100	-0.260	2.210
2020/01/31 12:08:48.4	277.180	0.080	-0.240	2.230
2020/01/31 12:08:48.5	277.130	0.070	-0.210	2.260
2020/01/31 12:08:48.6	277.080	0.060	-0.190	2.280
2020/01/31 12:08:48.7	277.030	0.050	-0.160	2.300
2020/01/31 12:08:48.8	276.980	0.040	-0.140	2.320
2020/01/31 12:08:48.9	276.940	0.020	-0.120	2.330
2020/01/31 12:08:49.0	276.890	0.010	-0.100	2.340
2020/01/31 12:08:49.1	276.850	0.000	-0.080	2.340
2020/01/31 12:08:49.2	276.810	-0.010	-0.070	2.340
2020/01/31 12:08:49.3	276.780	-0.020	-0.050	2.330
2020/01/31 12:08:49.4	276.740	-0.030	-0.040	2.330
2020/01/31 12:08:49.5	276.710	-0.040	-0.030	2.310
2020/01/31 12:08:49.6	276.690	-0.050	-0.020	2.300
2020/01/31 12:08:49.7	276.670	-0.060	-0.010	2.280
2020/01/31 12:08:49.8	276.640	-0.060	-0.010	2.260
2020/01/31 12:08:49.9	276.620	-0.070	-0.010	2.230
2020/01/31 12:08:50.0	276.610	-0.080	-0.000	2.200
2020/01/31 12:08:50.1	276.600	-0.080	-0.000	2.170
2020/01/31 12:08:50.2	276.590	-0.080	-0.000	2.130
2020/01/31 12:08:50.3	276.580	-0.080	-0.010	2.090
2020/01/31 12:08:50.4	276.570	-0.080	-0.010	2.050
2020/01/31 12:08:50.5	276.570	-0.080	-0.010	2.000
2020/01/31 12:08:50.6	276.580	-0.080	-0.020	1.950
2020/01/31 12:08:50.7	276.590	-0.080	-0.030	1.900
2020/01/31 12:08:50.8	276.600	-0.080	-0.030	1.850
2020/01/31 12:08:50.9	276.600	-0.070	-0.040	1.790
2020/01/31 12:08:51.0	276.620	-0.070	-0.050	1.730
2020/01/31 12:08:51.1	276.630	-0.060	-0.060	1.670
2020/01/31 12:08:51.2	276.650	-0.060	-0.070	1.610
2020/01/31 12:08:51.3	276.660	-0.050	-0.070	1.540
2020/01/31 12:08:51.4	276.690	-0.040	-0.080	1.480
2020/01/31 12:08:51.5	276.710	-0.040	-0.090	1.420
2020/01/31 12:08:51.6	276.730	-0.030	-0.100	1.350
2020/01/31 12:08:51.7	276.750	-0.020	-0.110	1.290
2020/01/31 12:08:51.8	276.780	-0.010	-0.120	1.220
2020/01/31 12:08:51.9	276.800	-0.010	-0.130	1.160
2020/01/31 12:08:52.0	276.830	0.000	-0.140	1.090
2020/01/31 12:08:52.1	276.860	0.010	-0.150	1.030
2020/01/31 12:08:52.2	276.890	0.010	-0.160	0.970
2020/01/31 12:08:52.3	276.920	0.020	-0.170	0.910
2020/01/31 12:08:52.4	276.950	0.030	-0.180	0.850
2020/01/31 12:08:52.5	276.980	0.030	-0.200	0.790
2020/01/31 12:08:52.6	277.000	0.040	-0.210	0.740
2020/01/31 12:08:52.7	277.030	0.040	-0.220	0.690
2020/01/31 12:08:52.8	277.060	0.050	-0.230	0.640
2020/01/31 12:08:52.9	277.090	0.050	-0.240	0.590
2020/01/31 12:08:53.0	277.120	0.050	-0.250	0.550
2020/01/31 12:08:53.1	277.150	0.050	-0.260	0.510
2020/01/31 12:08:53.2	277.180	0.050	-0.270	0.470
2020/01/31 12:08:53.3	277.210	0.050	-0.270	0.440
2020/01/31 12:08:53.4	277.240	0.050	-0.280	0.410
2020/01/31 12:08:53.5	277.270	0.050	-0.290	0.380
2020/01/31 12:08:53.6	277.300	0.050	-0.300	0.360
2020/01/31 12:08:53.7	277.330	0.050	-0.310	0.340
2020/01/31 12:08:53.8	277.360	0.040	-0.310	0.320
2020/01/31 12:08:53.9	277.390	0.040	-0.320	0.310
2020/01/31 12:08:54.0	277.420	0.040	-0.320	0.300
2020/01/31 12:08:54.1	277.450	0.030	-0.330	0.290
2020/01/31 12:08:54.2	277.480	0.030	-0.330	0.290
2020/01/31 12:08:54.3	277.510	0.020	-0.330	0.280
2020/01/31 12:08:54.4	277.540	0.020	-0.340	0.280
2020/01/31 12:08:54.5	277.570	0.010	-0.340	0.290
2020/01/31 12:08:54.6	277.600	0.010	-0.340	0.290
2020/01/31 12:08:54.7	277.630	0.010	-0.340	0.300
2020/01/31 12:08:54.8	277.660	0.000	-0.340	0.300
2020/01/31 12:08:54.9	277.680	-0.000	-0.340	0.310
2020/01/31 12:08:55.0	277.710	-0.010	-0.340	0.320
2020/01/31 12:08:55.1	277.730	-0.010	-0.350	0.340
2020/01/31 12:08:55.2	277.760	-0.010	-0.350	0.350
2020/01/31 12:08:55.3	277.780	-0.020	-0.350	0.370
2020/01/31 12:08:55.4	277.800	-0.020	-0.350	0.380
2020/01/31 12:08:55.5	277.810	-0.020	-0.350	0.400
2020/01/31 12:08:55.6	277.830	-0.020	-0.360	0.420
2020/01/31 12:08:55.7	277.840	-0.020	-0.360	0.440
2020/01/31 12:08:55.8	277.850	-0.020	-0.360	0.460
2020/01/31 12:08:55.9	277.850	-0.020	-0.370	0.480
2020/01/31 12:08:56.0	277.860	-0.020	-0.370	0.510
2020/01/31 12:08:56.1	277.860	-0.020	-0.370	0.530
2020/01/31 12:08:56.2	277.860	-0.020	-0.370	0.560
2020/01/31 12:08:56.3	277.850	-0.020	-0.380	0.590
2020/01/31 12:08:56.4	277.850	-0.020	-0.380	0.620
2020/01/31 12:08:56.5	277.840	-0.020	-0.380	0.650
2020/01/31 12:08:56.6	277.820	-0.020	-0.390	0.680
2020/01/31 12:08:56.7	277.800	-0.020	-0.390	0.710
2020/01/31 12:08:56.8	277.790	-0.010	-0.390	0.740
2020/01/31 12:08:56.9	277.770	-0.010	-0.390	0.780
2020/01/31 12:08:57.0	277.750	-0.010	-0.390	0.810
2020/01/31 12:08:57.1	277.730	-0.010	-0.400	0.850
2020/01/31 12:08:57.2	277.700	-0.010	-0.400	0.880
2020/01/31 12:08:57.3	277.670	-0.010	-0.400	0.920
2020/01/31 12:08:57.4	277.640	-0.010	-0.400	0.950
2020/01/31 12:08:57.5	277.610	-0.010	-0.400	0.990
2020/01/31 12:08:57.6	277.570	-0.010	-0.400	1.030
2020/01/31 12:08:57.7	277.530	-0.010	-0.400	1.070
2020/01/31 12:08:57.8	277.490	-0.010	-0.400	1.110
2020/01/31 12:08:57.9	277.450	-0.010	-0.400	1.150
2020/01/31 12:08:58.0	277.400	-0.010	-0.400	1.190
2020/01/31 12:08:58.1	277.360	-0.010	-0.410	1.230
2020/01/31 12:08:58.2	277.310	-0.020	-0.410	1.270
2020/01/31 12:08:58.3	277.260	-0.020	-0.410	1.310
2020/01/31 12:08:58.4	277.210	-0.020	-0.410	1.360
2020/01/31 12:08:58.5	277.160	-0.030	-0.410	1.400
2020/01/31 12:08:58.6	277.110	-0.030	-0.400	1.440
2020/01/31 12:08:58.7	277.060	-0.030	-0.400	1.480
2020/01/31 12:08:58.8	277.000	-0.040	-0.400	1.520
2020/01/31 12:08:58.9	276.950	-0.040	-0.400	1.560
2020/01/31 12:08:59.0	276.900	-0.050	-0.400	1.600
2020/01/31 12:08:59.1	276.840	-0.050	-0.390	1.640
2020/01/31 12:08:59.2	276.790	-0.050	-0.390	1.680
2020/01/31 12:08:59.3	276.740	-0.060	-0.380	1.710
2020/01/31 12:08:59.4	276.690	-0.060	-0.380	1.750
2020/01/31 12:08:59.5	276.640	-0.070	-0.370	1.780
2020/01/31 12:08:59.6	276.590	-0.070	-0.360	1.810
2020/01/31 12:08:59.7	276.540	-0.080	-0.340	1.840
2020/01/31 12:08:59.8	276.490	-0.080	-0.330	1.870
2020/01/31 12:08:59.9	276.450	-0.080	-0.320	1.890
2020/01/31 12:09:00.0	276.400	-0.090	-0.310	1.910
2020/01/31 12:09:00.1	276.360	-0.090	-0.290	1.940
2020/01/31 12:09:00.2	276.320	-0.100	-0.270	1.960
2020/01/31 12:09:00.3	276.280	-0.100	-0.250	1.970
2020/01/31 12:09:00.4	276.240	-0.100	-0.230	1.990
2020/01/31 12:09:00.5	276.200	-0.110	-0.210	2.000
2020/01/31 12:09:00.6	276.180	-0.110	-0.190	2.010
2020/01/31 12:09:00.7	276.150	-0.110	-0.170	2.020
2020/01/31 12:09:00.8	276.120	-0.120	-0.150	2.020
2020/01/31 12:09:00.9	276.090	-0.120	-0.120	2.020
2020/01/31 12:09:01.0	276.070	-0.120	-0.100	2.020
2020/01/31 12:09:01.1	276.050	-0.120	-0.070	2.020
2020/01/31 12:09:01.2	276.030	-0.130	-0.050	2.010
2020/01/31 12:09:01.3	276.010	-0.130	-0.020	2.000
2020/01/31 12:09:01.4	276.000	-0.130	0.010	1.990
2020/01/31 12:09:01.5	275.980	-0.130	0.030	1.970
2020/01/31 12:09:01.6	275.980	-0.130	0.060	1.950
2020/01/31 12:09:01.7	275.970	-0.130	0.080	1.930
2020/01/31 12:09:01.8	275.970	-0.140	0.100	1.910
2020/01/31 12:09:01.9	275.970	-0.140	0.130	1.880
2020/01/31 12:09:02.0	275.970	-0.140	0.150	1.850
2020/01/31 12:09:02.1	275.970	-0.140	0.170	1.820
2020/01/31 12:09:02.2	275.980	-0.140	0.180	1.780
2020/01/31 12:09:02.3	275.990	-0.140	0.200	1.740
2020/01/31 12:09:02.4	276.000	-0.130	0.220	1.700
2020/01/31 12:09:02.5	276.020	-0.130	0.230	1.650
2020/01/31 12:09:02.6	276.050	-0.130	0.240	1.600
2020/01/31 12:09:02.7	276.070	-0.130	0.250	1.550
2020/01/31 12:09:02.8	276.090	-0.130	0.250	1.490
2020/01/31 12:09:02.9	276.110	-0.120	0.260	1.440
2020/01/31 12:09:03.0	276.140	-0.120	0.260	1.380
2020/01/31 12:09:03.1	276.170	-0.110	0.260	1.320
2020/01/31 12:09:03.2	276.200	-0.110	0.260	1.260
2020/01/31 12:09:03.3	276.240	-0.110	0.250	1.190
2020/01/31 12:09:03.4	276.270	-0.100	0.240	1.130
2020/01/31 12:09:03.5	276.310	-0.090	0.230	1.070
2020/01/31 12:09:03.6	276.340	-0.090	0.210	1.000
2020/01/31 12:09:03.7	276.380	-0.080	0.200	0.930
2020/01/31 12:09:03.8	276.420	-0.070	0.180	0.870
2020/01/31 12:09:03.9	276.460	-0.070	0.160	0.810
2020/01/31 12:09:04.0	276.500	-0.060	0.130	0.750
2020/01/31 12:09:04.1	276.540	-0.050	0.110	0.690
2020/01/31 12:09:04.2	276.580	-0.040	0.080	0.630
2020/01/31 12:09:04.3	276.620	-0.030	0.050	0.570
2020/01/31 12:09:04.4	276.660	-0.020	0.010	0.520
2020/01/31 12:09:04.5	276.700	-0.010	-0.020	0.460
2020/01/31 12:09:04.6	276.730	-0.010	-0.060	0.410
2020/01/31 12:09:04.7	276.770	0.000	-0.090	0.370
2020/01/31 12:09:04.8	276.810	0.010	-0.130	0.320
2020/01/31 12:09:04.9	276.840	0.020	-0.170	0.280
2020/01/31 12:09:05.0	276.880	0.030	-0.210	0.230
2020/01/31 12:09:05.1	276.910	0.040	-0.250	0.200
2020/01/31 12:09:05.2	276.940	0.050	-0.290	0.160
2020/01/31 12:09:05.3	276.970	0.060	-0.330	0.130
2020/01/31 12:09:05.4	277.000	0.070	-0.370	0.100
2020/01/31 12:09:05.5	277.030	0.070	-0.400	0.070
2020/01/31 12:09:05.6	277.050	0.080	-0.440	0.050
2020/01/31 12:09:05.7	277.070	0.090	-0.480	0.030
2020/01/31 12:09:05.8	277.090	0.100	-0.510	0.020
2020/01/31 12:09:05.9	277.110	0.100	-0.550	0.010
2020/01/31 12:09:06.0	277.130	0.110	-0.580	-0.000
2020/01/31 12:09:06.1	277.140	0.110	-0.610	-0.010
2020/01/31 12:09:06.2	277.150	0.120	-0.640	-0.010
2020/01/31 12:09:06.3	277.160	0.120	-0.660	-0.000
2020/01/31 12:09:06.4	277.170	0.130	-0.690	0.000
2020/01/31 12:09:06.5	277.170	0.130	-0.710	0.010
2020/01/31 12:09:06.6	277.180	0.130	-0.730	0.020
2020/01/31 12:09:06.7	277.180	0.130	-0.750	0.040
2020/01/31 12:09:06.8	277.180	0.130	-0.760	0.060
2020/01/31 12:09:06.9	277.170	0.130	-0.770	0.080
2020/01/31 12:09:07.0	277.170	0.130	-0.780	0.100
2020/01/31 12:09:07.1	277.160	0.130	-0.790	0.130
2020/01/31 12:09:07.2	277.140	0.130	-0.790	0.160
2020/01/31 12:09:07.3	277.130	0.130	-0.790	0.190
2020/01/31 12:09:07.4	277.120	0.120	-0.790	0.230
2020/01/31 12:09:07.5	277.100	0.120	-0.790	0.260
2020/01/31 12:09:07.6	277.080	0.120	-0.780	0.300
2020/01/31 12:09:07.7	277.060	0.110	-0.770	0.340
2020/01/31 12:09:07.8	277.040	0.110	-0.760	0.380
2020/01/31 12:09:07.9	277.010	0.100	-0.750	0.430
2020/01/31 12:09:08.0	276.990	0.100	-0.730	0.470
2020/01/31 12:09:08.1	276.960	0.090	-0.720	0.520
2020/01/31 12:09:08.2	276.930	0.090	-0.700	0.570
2020/01/31 12:09:08.3	276.900	0.080	-0.680	0.620
2020/01/31 12:09:08.4	276.870	0.080	-0.660	0.680
2020/01/31 12:09:08.5	276.840	0.070	-0.640	0.730
2020/01/31 12:09:08.6	276.810	0.070	-0.620	0.780
2020/01/31 12:09:08.7	276.770	0.060	-0.600	0.840
2020/01/31 12:09:08.8	276.740	0.060	-0.580	0.900
2020/01/31 12:09:08.9	276.700	0.050	-0.550	0.950
2020/01/31 12:09:09.0	276.660	0.050	-0.530	1.010
2020/01/31 12:09:09.1	276.620	0.050	-0.500	1.070
2020/01/31 12:09:09.2	276.580	0.040	-0.480	1.130
2020/01/31 12:09:09.3	276.540	0.040	-0.450	1.190
2020/01/31 12:09:09.4	276.500	0.030	-0.430	1.240
2020/01/31 12:09:09.5	276.460	0.030	-0.400	1.300
2020/01/31 12:09:09.6	276.410	0.030	-0.370	1.350
2020/01/31 12:09:09.7	276.370	0.030	-0.350	1.410
2020/01/31 12:09:09.8	276.330	0.020	-0.320	1.460
2020/01/31 12:09:09.9	276.290	0.020	-0.300	1.520
2020/01/31 12:09:10.0	276.250	0.020	-0.280	1.570
2020/01/31 12:09:10.1	276.210	0.020	-0.250	1.620
2020/01/31 12:09:10.2	276.170	0.020	-0.230	1.670
2020/01/31 12:09:10.3	276.130	0.020	-0.200	1.710
2020/01/31 12:09:10.4	276.090	0.010	-0.180	1.750
2020/01/31 12:09:10.5	276.060	0.010	-0.160	1.790
2020/01/31 12:09:10.6	276.020	0.010	-0.130	1.830
2020/01/31 12:09:10.7	275.990	0.010	-0.110	1.860
2020/01/31 12:09:10.8	275.960	0.010	-0.090	1.890
2020/01/31 12:09:10.9	275.930	0.010	-0.060	1.920
2020/01/31 12:09:11.0	275.900	0.010	-0.040	1.950
2020/01/31 12:09:11.1	275.880	0.020	-0.020	1.970
2020/01/31 12:09:11.2	275.850	0.020	0.000	1.990
2020/01/31 12:09:11.3	275.830	0.020	0.020	2.000
2020/01/31 12:09:11.4	275.810	0.020	0.040	2.010
2020/01/31 12:09:11.5	275.790	0.020	0.060	2.020
2020/01/31 12:09:11.6	275.770	0.020	0.080	2.030
2020/01/31 12:09:11.7	275.760	0.020	0.100	2.030
2020/01/31 12:09:11.8	275.740	0.020	0.110	2.030
2020/01/31 12:09:11.9	275.730	0.020	0.130	2.020
2020/01/31 12:09:12.0	275.720	0.020	0.150	2.010
2020/01/31 12:09:12.1	275.710	0.030	0.160	2.000
2020/01/31 12:09:12.2	275.700	0.030	0.170	1.990
2020/01/31 12:09:12.3	275.690	0.030	0.180	1.970
2020/01/31 12:09:12.4	275.680	0.030	0.190	1.940
2020/01/31 12:09:12.5	275.680	0.030	0.200	1.920
2020/01/31 12:09:12.6	275.680	0.030	0.210	1.890
2020/01/31 12:09:12.7	275.680	0.030	0.220	1.860
2020/01/31 12:09:12.8	275.680	0.030	0.220	1.820
2020/01/31 12:09:12.9	275.680	0.020	0.220	1.780
2020/01/31 12:09:13.0	275.680	0.020	0.220	1.740
2020/01/31 12:09:13.1	275.680	0.020	0.220	1.700
2020/01/31 12:09:13.2	275.690	0.020	0.220	1.650
2020/01/31 12:09:13.3	275.700	0.020	0.220	1.600
2020/01/31 12:09:13.4	275.700	0.020	0.210	1.550
2020/01/31 12:09:13.5	275.710	0.020	0.210	1.500
2020/01/31 12:09:13.6	275.730	0.010	0.200	1.440
2020/01/31 12:09:13.7	275.740	0.010	0.190	1.390
2020/01/31 12:09:13.8	275.750	0.010	0.180	1.330
2020/01/31 12:09:13.9	275.760	0.010	0.160	1.280
2020/01/31 12:09:14.0	275.780	0.010	0.150	1.220
2020/01/31 12:09:14.1	275.790	0.000	0.140	1.170
2020/01/31 12:09:14.2	275.810	0.000	0.120	1.110
2020/01/31 12:09:14.3	275.820	-0.000	0.100	1.060
2020/01/31 12:09:14.4	275.840	-0.000	0.080	1.010
2020/01/31 12:09:14.5	275.850	-0.000	0.060	0.960
2020/01/31 12:09:14.6	275.870	-0.000	0.040	0.910
2020/01/31 12:09:14.7	275.890	-0.010	0.020	0.860
2020/01/31 12:09:14.8	275.900	-0.010	-0.000	0.820
2020/01/31 12:09:14.9	275.920	-0.010	-0.030	0.780
2020/01/31 12:09:15.0	275.930	-0.010	-0.050	0.730
2020/01/31 12:09:15.1	275.950	-0.010	-0.080	0.700
2020/01/31 12:09:15.2	275.960	-0.010	-0.100	0.660
2020/01/31 12:09:15.3	275.970	-0.010	-0.130	0.620
2020/01/31 12:09:15.4	275.990	-0.010	-0.160	0.590
2020/01/31 12:09:15.5	276.000	-0.010	-0.190	0.550
2020/01/31 12:09:15.6	276.000	-0.010	-0.220	0.520
2020/01/31 12:09:15.7	276.020	-0.010	-0.250	0.490
2020/01/31 12:09:15.8	276.030	-0.010	-0.270	0.460
2020/01/31 12:09:15.9	276.050	-0.010	-0.300	0.430
2020/01/31 12:09:16.0	276.060	-0.010	-0.330	0.410
2020/01/31 12:09:16.1	276.080	-0.010	-0.360	0.390
2020/01/31 12:09:16.2	276.090	-0.010	-0.380	0.370
2020/01/31 12:09:16.3	276.110	-0.010	-0.410	0.350
2020/01/31 12:09:16.4	276.130	-0.010	-0.440	0.330
2020/01/31 12:09:16.5	276.140	-0.020	-0.460	0.310
2020/01/31 12:09:16.6	276.160	-0.020	-0.480	0.300
2020/01/31 12:09:16.7	276.180	-0.020	-0.510	0.280
2020/01/31 12:09:16.8	276.190	-0.020	-0.530	0.270
2020/01/31 12:09:16.9	276.210	-0.020	-0.550	0.260
2020/01/31 12:09:17.0	276.230	-0.020	-0.570	0.250
2020/01/31 12:09:17.1	276.240	-0.030	-0.590	0.240
2020/01/31 12:09:17.2	276.260	-0.030	-0.610	0.240
2020/01/31 12:09:17.3	276.280	-0.030	-0.620	0.240
2020/01/31 12:09:17.4	276.290	-0.040	-0.640	0.230
2020/01/31 12:09:17.5	276.310	-0.040	-0.650	0.230
2020/01/31 12:09:17.6	276.320	-0.040	-0.660	0.240
2020/01/31 12:09:17.7	276.330	-0.040	-0.670	0.240
2020/01/31 12:09:17.8	276.350	-0.050	-0.680	0.250
2020/01/31 12:09:17.9	276.360	-0.050	-0.690	0.260
2020/01/31 12:09:18.0	276.380	-0.050	-0.690	0.270
2020/01/31 12:09:18.1	276.390	-0.060	-0.700	0.280
2020/01/31 12:09:18.2	276.400	-0.060	-0.700	0.290
2020/01/31 12:09:18.3	276.410	-0.060	-0.700	0.310
2020/01/31 12:09:18.4	276.420	-0.070	-0.700	0.330
2020/01/31 12:09:18.5	276.430	-0.070	-0.700	0.350
2020/01/31 12:09:18.6	276.440	-0.070	-0.700	0.370
2020/01/31 12:09:18.7	276.450	-0.080	-0.690	0.390
2020/01/31 12:09:18.8	276.450	-0.080	-0.690	0.420
2020/01/31 12:09:18.9	276.450	-0.080	-0.680	0.450
2020/01/31 12:09:19.0	276.450	-0.090	-0.670	0.480
2020/01/31 12:09:19.1	276.440	-0.090	-0.660	0.510
2020/01/31 12:09:19.2	276.430	-0.090	-0.650	0.550
2020/01/31 12:09:19.3	276.430	-0.090	-0.640	0.580
2020/01/31 12:09:19.4	276.410	-0.100	-0.630	0.620
2020/01/31 12:09:19.5	276.400	-0.100	-0.620	0.670
2020/01/31 12:09:19.6	276.380	-0.100	-0.610	0.710
2020/01/31 12:09:19.7	276.360	-0.110	-0.590	0.760
2020/01/31 12:09:19.8	276.340	-0.110	-0.580	0.810
2020/01/31 12:09:19.9	276.320	-0.110	-0.560	0.860
2020/01/31 12:09:20.0	276.290	-0.110	-0.550	0.910
2020/01/31 12:09:20.1	276.260	-0.120	-0.530	0.960
2020/01/31 12:09:20.2	276.230	-0.120	-0.510	1.020
2020/01/31 12:09:20.3	276.190	-0.120	-0.500	1.070
2020/01/31 12:09:20.4	276.160	-0.130	-0.480	1.130
2020/01/31 12:09:20.5	276.120	-0.130	-0.460	1.180
2020/01/31 12:09:20.6	276.090	-0.130	-0.440	1.230
2020/01/31 12:09:20.7	276.050	-0.140	-0.420	1.290
2020/01/31 12:09:20.8	276.010	-0.140	-0.400	1.340
2020/01/31 12:09:20.9	275.970	-0.150	-0.380	1.390
2020/01/31 12:09:21.0	275.920	-0.150	-0.360	1.440
2020/01/31 12:09:21.1	275.880	-0.150	-0.340	1.490
2020/01/31 12:09:21.2	275.840	-0.160	-0.320	1.540
2020/01/31 12:09:21.3	275.800	-0.160	-0.300	1.580
2020/01/31 12:09:21.4	275.760	-0.170	-0.280	1.620
2020/01/31 12:09:21.5	275.710	-0.170	-0.260	1.660
2020/01/31 12:09:21.6	275.670	-0.170	-0.240	1.700
2020/01/31 12:09:21.7	275.630	-0.180	-0.210	1.730
2020/01/31 12:09:21.8	275.590	-0.180	-0.190	1.760
2020/01/31 12:09:21.9	275.550	-0.180	-0.170	1.790
2020/01/31 12:09:22.0	275.520	-0.190	-0.140	1.810
2020/01/31 12:09:22.1	275.480	-0.190	-0.120	1.830
2020/01/31 12:09:22.2	275.450	-0.190	-0.100	1.850
2020/01/31 12:09:22.3	275.420	-0.190	-0.070	1.870
2020/01/31 12:09:22.4	275.390	-0.190	-0.050	1.880
2020/01/31 12:09:22.5	275.360	-0.180	-0.020	1.890
2020/01/31 12:09:22.6	275.340	-0.180	0.000	1.890
2020/01/31 12:09:22.7	275.320	-0.180	0.030	1.890
2020/01/31 12:09:22.8	275.300	-0.170	0.050	1.890
2020/01/31 12:09:22.9	275.280	-0.160	0.070	1.890
2020/01/31 12:09:23.0	275.260	-0.160	0.090	1.880
2020/01/31 12:09:23.1	275.250	-0.150	0.110	1.870
2020/01/31 12:09:23.2	275.240	-0.140	0.130	1.860
2020/01/31 12:09:23.3	275.240	-0.120	0.150	1.840
2020/01/31 12:09:23.4	275.240	-0.110	0.170	1.820
2020/01/31 12:09:23.5	275.240	-0.090	0.180	1.800
2020/01/31 12:09:23.6	275.250	-0.080	0.190	1.780
2020/01/31 12:09:23.7	275.260	-0.060	0.210	1.760
2020/01/31 12:09:23.8	275.270	-0.040	0.220	1.730
2020/01/31 12:09:23.9	275.280	-0.020	0.220	1.700
2020/01/31 12:09:24.0	275.290	-0.000	0.230	1.670
2020/01/31 12:09:24.1	275.310	0.020	0.240	1.640
2020/01/31 12:09:24.2	275.330	0.040	0.240	1.610
2020/01/31 12:09:24.3	275.350	0.060	0.240	1.580
2020/01/31 12:09:24.4	275.370	0.090	0.240	1.540
2020/01/31 12:09:24.5	275.390	0.110	0.240	1.510
2020/01/31 12:09:24.6	275.420	0.130	0.240	1.470
2020/01/31 12:09:24.7	275.450	0.160	0.230	1.440
2020/01/31 12:09:24.8	275.470	0.180	0.230	1.400
2020/01/31 12:09:24.9	275.500	0.200	0.220	1.370
2020/01/31 12:09:25.0	275.530	0.220	0.210	1.330
2020/01/31 12:09:25.1	275.560	0.240	0.210	1.290
2020/01/31 12:09:25.2	275.600	0.260	0.190	1.250
2020/01/31 12:09:25.3	275.630	0.280	0.180	1.220
2020/01/31 12:09:25.4	275.660	0.300	0.170	1.180
2020/01/31 12:09:25.5	275.700	0.310	0.160	1.140
2020/01/31 12:09:25.6	275.730	0.330	0.150	1.100
2020/01/31 12:09:25.7	275.760	0.340	0.130	1.060
2020/01/31 12:09:25.8	275.800	0.350	0.120	1.030
2020/01/31 12:09:25.9	275.830	0.360	0.100	0.990
2020/01/31 12:09:26.0	275.870	0.370	0.090	0.950
2020/01/31 12:09:26.1	275.910	0.370	0.070	0.910
2020/01/31 12:09:26.2	275.940	0.380	0.060	0.870
2020/01/31 12:09:26.3	275.980	0.380	0.040	0.840
2020/01/31 12:09:26.4	276.010	0.380	0.030	0.800
2020/01/31 12:09:26.5	276.050	0.380	0.010	0.770
2020/01/31 12:09:26.6	276.090	0.370	-0.000	0.730
2020/01/31 12:09:26.7	276.120	0.370	-0.020	0.700
2020/01/31 12:09:26.8	276.160	0.360	-0.030	0.670
2020/01/31 12:09:26.9	276.190	0.350	-0.050	0.640
2020/01/31 12:09:27.0	276.220	0.340	-0.060	0.610
2020/01/31 12:09:27.1	276.250	0.330	-0.080	0.580
2020/01/31 12:09:27.2	276.280	0.320	-0.090	0.560
2020/01/31 12:09:27.3	276.310	0.300	-0.110	0.540
2020/01/31 12:09:27.4	276.340	0.290	-0.120	0.520
2020/01/31 12:09:27.5	276.360	0.270	-0.130	0.500
2020/01/31 12:09:27.6	276.370	0.250	-0.150	0.480
2020/01/31 12:09:27.7	276.390	0.240	-0.160	0.470
2020/01/31 12:09:27.8	276.400	0.220	-0.170	0.460
2020/01/31 12:09:27.9	276.420	0.200	-0.180	0.450
2020/01/31 12:09:28.0	276.430	0.180	-0.200	0.450
2020/01/31 12:09:28.1	276.440	0.160	-0.210	0.440
2020/01/31 12:09:28.2	276.450	0.150	-0.220	0.440
2020/01/31 12:09:28.3	276.460	0.130	-0.240	0.440
2020/01/31 12:09:28.4	276.470	0.110	-0.250	0.440
2020/01/31 12:09:28.5	276.470	0.090	-0.270	0.440
2020/01/31 12:09:28.6	276.470	0.080	-0.290	0.430
2020/01/31 12:09:28.7	276.470	0.060	-0.300	0.430
2020/01/31 12:09:28.8	276.470	0.050	-0.320	0.440
2020/01/31 12:09:28.9	276.470	0.030	-0.340	0.440
2020/01/31 12:09:29.0	276.470	0.020	-0.370	0.440
2020/01/31 12:09:29.1	276.470	0.010	-0.390	0.450
2020/01/31 12:09:29.2	276.460	-0.010	-0.420	0.450
2020/01/31 12:09:29.3	276.460	-0.020	-0.440	0.460
2020/01/31 12:09:29.4	276.460	-0.020	-0.470	0.460
2020/01/31 12:09:29.5	276.450	-0.030	-0.500	0.470
2020/01/31 12:09:29.6	276.430	-0.040	-0.530	0.470
2020/01/31 12:09:29.7	276.430	-0.040	-0.570	0.480
2020/01/31 12:09:29.8	276.420	-0.050	-0.600	0.490
2020/01/31 12:09:29.9	276.420	-0.050	-0.640	0.490
2020/01/31 12:09:30.0	276.410	-0.050	-0.680	0.500
2020/01/31 12:09:30.1	276.410	-0.050	-0.710	0.510
2020/01/31 12:09:30.2	276.400	-0.050	-0.750	0.520
2020/01/31 12:09:30.3	276.390	-0.050	-0.790	0.520
2020/01/31 12:09:30.4	276.380	-0.050	-0.820	0.530
2020/01/31 12:09:30.5	276.370	-0.040	-0.860	0.550
2020/01/31 12:09:30.6	276.360	-0.040	-0.900	0.550
2020/01/31 12:09:30.7	276.350	-0.040	-0.930	0.570
2020/01/31 12:09:30.8	276.340	-0.030	-0.960	0.580
2020/01/31 12:09:30.9	276.330	-0.030	-0.990	0.600
2020/01/31 12:09:31.0	276.320	-0.020	-1.020	0.620
2020/01/31 12:09:31.1	276.310	-0.020	-1.050	0.640
2020/01/31 12:09:31.2	276.290	-0.010	-1.070	0.650
2020/01/31 12:09:31.3	276.280	-0.010	-1.090	0.680
2020/01/31 12:09:31.4	276.260	-0.000	-1.100	0.700
2020/01/31 12:09:31.5	276.250	0.000	-1.110	0.720
2020/01/31 12:09:31.6	276.220	0.000	-1.110	0.750
2020/01/31 12:09:31.7	276.200	0.010	-1.120	0.770
2020/01/31 12:09:31.8	276.180	0.010	-1.110	0.800
2020/01/31 12:09:31.9	276.170	0.010	-1.110	0.830
2020/01/31 12:09:32.0	276.150	0.010	-1.090	0.860
2020/01/31 12:09:32.1	276.120	0.000	-1.080	0.890
2020/01/31 12:09:32.2	276.100	0.000	-1.050	0.920
2020/01/31 12:09:32.3	276.080	-0.000	-1.030	0.950
2020/01/31 12:09:32.4	276.060	-0.010	-1.000	0.980
2020/01/31 12:09:32.5	276.040	-0.010	-0.960	1.010
2020/01/31 12:09:32.6	276.010	-0.020	-0.920	1.040
2020/01/31 12:09:32.7	275.990	-0.030	-0.880	1.070
2020/01/31 12:09:32.8	275.970	-0.040	-0.830	1.100
2020/01/31 12:09:32.9	275.950	-0.050	-0.780	1.130
2020/01/31 12:09:33.0	275.930	-0.060	-0.730	1.150
2020/01/31 12:09:33.1	275.910	-0.080	-0.670	1.180
2020/01/31 12:09:33.2	275.900	-0.090	-0.610	1.210
2020/01/31 12:09:33.3	275.880	-0.100	-0.550	1.230
2020/01/31 12:09:33.4	275.860	-0.120	-0.490	1.250
2020/01/31 12:09:33.5	275.840	-0.130	-0.430	1.270
2020/01/31 12:09:33.6	275.830	-0.150	-0.360	1.290
2020/01/31 12:09:33.7	275.820	-0.170	-0.290	1.310
2020/01/31 12:09:33.8	275.800	-0.180	-0.230	1.320
2020/01/31 12:09:33.9	275.790	-0.200	-0.170	1.340
2020/01/31 12:09:34.0	275.780	-0.210	-0.100	1.350
2020/01/31 12:09:34.1	275.770	-0.230	-0.040	1.350
2020/01/31 12:09:34.2	275.760	-0.240	0.020	1.360
2020/01/31 12:09:34.3	275.760	-0.260	0.070	1.360
2020/01/31 12:09:34.4	275.750	-0.270	0.130	1.360
2020/01/31 12:09:34.5	275.750	-0.280	0.180	1.360
2020/01/31 12:09:34.6	275.750	-0.300	0.230	1.350
2020/01/31 12:09:34.7	275.750	-0.310	0.270	1.340
2020/01/31 12:09:34.8	275.750	-0.320	0.310	1.330
2020/01/31 12:09:34.9	275.750	-0.330	0.350	1.310
2020/01/31 12:09:35.0	275.760	-0.330	0.380	1.300
2020/01/31 12:09:35.1	275.760	-0.340	0.410	1.280
2020/01/31 12:09:35.2	275.770	-0.340	0.440	1.260
2020/01/31 12:09:35.3	275.770	-0.350	0.460	1.240
2020/01/31 12:09:35.4	275.780	-0.350	0.480	1.220
2020/01/31 12:09:35.5	275.800	-0.350	0.490	1.200
2020/01/31 12:09:35.6	275.810	-0.350	0.500	1.170
2020/01/31 12:09:35.7	275.830	-0.350	0.500	1.150
2020/01/31 12:09:35.8	275.840	-0.350	0.500	1.120
2020/01/31 12:09:35.9	275.860	-0.340	0.500	1.090
2020/01/31 12:09:36.0	275.870	-0.340	0.500	1.060
2020/01/31 12:09:36.1	275.890	-0.330	0.490	1.020
2020/01/31 12:09:36.2	275.910	-0.320	0.480	0.990
2020/01/31 12:09:36.3	275.930	-0.310	0.470	0.960
2020/01/31 12:09:36.4	275.950	-0.300	0.450	0.920
2020/01/31 12:09:36.5	275.980	-0.290	0.440	0.890
2020/01/31 12:09:36.6	276.000	-0.280	0.420	0.850
2020/01/31 12:09:36.7	276.030	-0.270	0.400	0.810
2020/01/31 12:09:36.8	276.050	-0.250	0.380	0.780
2020/01/31 12:09:36.9	276.080	-0.240	0.360	0.740
2020/01/31 12:09:37.0	276.110	-0.220	0.330	0.700
2020/01/31 12:09:37.1	276.140	-0.210	0.310	0.660
2020/01/31 12:09:37.2	276.170	-0.190	0.290	0.630
2020/01/31 12:09:37.3	276.210	-0.170	0.270	0.590
2020/01/31 12:09:37.4	276.240	-0.150	0.240	0.550
2020/01/31 12:09:37.5	276.280	-0.140	0.220	0.520
2020/01/31 12:09:37.6	276.300	-0.120	0.200	0.480
2020/01/31 12:09:37.7	276.340	-0.100	0.180	0.450
2020/01/31 12:09:37.8	276.380	-0.080	0.160	0.410
2020/01/31 12:09:37.9	276.420	-0.060	0.140	0.380
2020/01/31 12:09:38.0	276.450	-0.050	0.120	0.360
2020/01/31 12:09:38.1	276.490	-0.030	0.100	0.330
2020/01/31 12:09:38.2	276.530	-0.010	0.080	0.300
2020/01/31 12:09:38.3	276.570	0.000	0.070	0.280
2020/01/31 12:09:38.4	276.610	0.020	0.050	0.260
2020/01/31 12:09:38.5	276.650	0.040	0.040	0.240
2020/01/31 12:09:38.6	276.680	0.050	0.030	0.230
2020/01/31 12:09:38.7	276.720	0.070	0.020	0.220
2020/01/31 12:09:38.8	276.760	0.080	0.010	0.210
2020/01/31 12:09:38.9	276.790	0.090	0.000	0.200
2020/01/31 12:09:39.0	276.830	0.110	-0.010	0.200
2020/01/31 12:09:39.1	276.870	0.120	-0.010	0.190
2020/01/31 12:09:39.2	276.900	0.130	-0.020	0.200
2020/01/31 12:09:39.3	276.930	0.140	-0.020	0.200
2020/01/31 12:09:39.4	276.960	0.160	-0.030	0.210
2020/01/31 12:09:39.5	276.990	0.170	-0.040	0.220
2020/01/31 12:09:39.6	277.010	0.180	-0.040	0.230
2020/01/31 12:09:39.7	277.040	0.190	-0.050	0.250
2020/01/31 12:09:39.8	277.060	0.200	-0.050	0.270
2020/01/31 12:09:39.9	277.080	0.210	-0.060	0.290
2020/01/31 12:09:40.0	277.100	0.220	-0.070	0.320
2020/01/31 12:09:40.1	277.120	0.230	-0.080	0.350
2020/01/31 12:09:40.2	277.140	0.240	-0.090	0.370
2020/01/31 12:09:40.3	277.150	0.240	-0.100	0.410
2020/01/31 12:09:40.4	277.160	0.250	-0.120	0.440
2020/01/31 12:09:40.5	277.170	0.260	-0.140	0.470
2020/01/31 12:09:40.6	277.170	0.270	-0.150	0.500
2020/01/31 12:09:40.7	277.180	0.280	-0.170	0.540
2020/01/31 12:09:40.8	277.180	0.280	-0.200	0.570
2020/01/31 12:09:40.9	277.190	0.290	-0.220	0.610
2020/01/31 12:09:41.0	277.190	0.300	-0.250	0.640
2020/01/31 12:09:41.1	277.190	0.300	-0.270	0.680
2020/01/31 12:09:41.2	277.190	0.310	-0.310	0.710
2020/01/31 12:09:41.3	277.190	0.310	-0.340	0.740
2020/01/31 12:09:41.4	277.190	0.320	-0.370	0.770
2020/01/31 12:09:41.5	277.180	0.330	-0.410	0.800
2020/01/31 12:09:41.6	277.190	0.330	-0.440	0.820
2020/01/31 12:09:41.7	277.190	0.340	-0.480	0.850
2020/01/31 12:09:41.8	277.180	0.340	-0.520	0.880
2020/01/31 12:09:41.9	277.180	0.340	-0.560	0.900
2020/01/31 12:09:42.0	277.170	0.350	-0.600	0.930
2020/01/31 12:09:42.1	277.170	0.350	-0.640	0.950
2020/01/31 12:09:42.2	277.160	0.360	-0.690	0.970
2020/01/31 12:09:42.3	277.150	0.360	-0.730	0.990
2020/01/31 12:09:42.4	277.140	0.360	-0.770	1.010
2020/01/31 12:09:42.5	277.140	0.360	-0.810	1.030
2020/01/31 12:09:42.6	277.120	0.360	-0.850	1.040
2020/01/31 12:09:42.7	277.120	0.370	-0.890	1.050
2020/01/31 12:09:42.8	277.110	0.370	-0.930	1.070
2020/01/31 12:09:42.9	277.100	0.370	-0.960	1.070
2020/01/31 12:09:43.0	277.090	0.360	-0.990	1.080
2020/01/31 12:09:43.1	277.080	0.360	-1.020	1.090
2020/01/31 12:09:43.2	277.070	0.360	-1.050	1.090
2020/01/31 12:09:43.3	277.070	0.360	-1.070	1.100
2020/01/31 12:09:43.4	277.060	0.350	-1.090	1.100
2020/01/31 12:09:43.5	277.050	0.350	-1.110	1.100
2020/01/31 12:09:43.6	277.040	0.340	-1.120	1.100
2020/01/31 12:09:43.7	277.030	0.330	-1.130	1.100
2020/01/31 12:09:43.8	277.020	0.320	-1.130	1.100
2020/01/31 12:09:43.9	277.010	0.310	-1.140	1.100
2020/01/31 12:09:44.0	277.000	0.300	-1.130	1.090
2020/01/31 12:09:44.1	276.990	0.280	-1.130	1.090
2020/01/31 12:09:44.2	276.980	0.270	-1.120	1.090
2020/01/31 12:09:44.3	276.970	0.250	-1.110	1.080
2020/01/31 12:09:44.4	276.960	0.230	-1.090	1.080
2020/01/31 12:09:44.5	276.950	0.210	-1.070	1.070
2020/01/31 12:09:44.6	276.940	0.190	-1.050	1.060
2020/01/31 12:09:44.7	276.930	0.160	-1.020	1.060
2020/01/31 12:09:44.8	276.920	0.140	-0.990	1.050
2020/01/31 12:09:44.9	276.910	0.110	-0.960	1.050
2020/01/31 12:09:45.0	276.900	0.090	-0.930	1.040
2020/01/31 12:09:45.1	276.890	0.060	-0.890	1.040
2020/01/31 12:09:45.2	276.870	0.030	-0.850	1.030
2020/01/31 12:09:45.3	276.860	-0.000	-0.810	1.030
2020/01/31 12:09:45.4	276.850	-0.030	-0.770	1.020
2020/01/31 12:09:45.5	276.840	-0.060	-0.730	1.020
2020/01/31 12:09:45.6	276.840	-0.090	-0.680	1.010
2020/01/31 12:09:45.7	276.830	-0.120	-0.630	1.010
2020/01/31 12:09:45.8	276.820	-0.160	-0.580	1.000
2020/01/31 12:09:45.9	276.810	-0.190	-0.530	1.000
2020/01/31 12:09:46.0	276.800	-0.220	-0.480	0.990
2020/01/31 12:09:46.1	276.800	-0.250	-0.430	0.990
2020/01/31 12:09:46.2	276.790	-0.280	-0.380	0.980
2020/01/31 12:09:46.3	276.790	-0.300	-0.330	0.970
2020/01/31 12:09:46.4	276.780	-0.330	-0.270	0.970
2020/01/31 12:09:46.5	276.780	-0.360	-0.220	0.960
2020/01/31 12:09:46.6	276.780	-0.380	-0.170	0.950
2020/01/31 12:09:46.7	276.780	-0.400	-0.120	0.940
2020/01/31 12:09:46.8	276.780	-0.430	-0.070	0.930
2020/01/31 12:09:46.9	276.780	-0.450	-0.020	0.920
2020/01/31 12:09:47.0	276.780	-0.460	0.030	0.910
2020/01/31 12:09:47.1	276.780	-0.480	0.080	0.900
2020/01/31 12:09:47.2	276.790	-0.490	0.120	0.890
2020/01/31 12:09:47.3	276.800	-0.510	0.170	0.870
2020/01/31 12:09:47.4	276.800	-0.520	0.210	0.860
2020/01/31 12:09:47.5	276.810	-0.520	0.250	0.840
2020/01/31 12:09:47.6	276.810	-0.530	0.280	0.820
2020/01/31 12:09:47.7	276.830	-0.530	0.320	0.800
2020/01/31 12:09:47.8	276.840	-0.540	0.350	0.780
2020/01/31 12:09:47.9	276.860	-0.540	0.380	0.760
2020/01/31 12:09:48.0	276.880	-0.530	0.410	0.740
2020/01/31 12:09:48.1	276.900	-0.530	0.440	0.720
2020/01/31 12:09:48.2	276.920	-0.530	0.460	0.700
2020/01/31 12:09:48.3	276.940	-0.520	0.480	0.670
2020/01/31 12:09:48.4	276.970	-0.510	0.500	0.650
2020/01/31 12:09:48.5	276.990	-0.500	0.510	0.620
2020/01/31 12:09:48.6	277.020	-0.490	0.520	0.590
2020/01/31 12:09:48.7	277.050	-0.470	0.530	0.570
2020/01/31 12:09:48.8	277.090	-0.460	0.530	0.550
2020/01/31 12:09:48.9	277.120	-0.440	0.540	0.520
2020/01/31 12:09:49.0	277.150	-0.430	0.540	0.500
2020/01/31 12:09:49.1	277.190	-0.410	0.530	0.480
2020/01/31 12:09:49.2	277.220	-0.390	0.530	0.450
2020/01/31 12:09:49.3	277.260	-0.370	0.520	0.430
2020/01/31 12:09:49.4	277.300	-0.340	0.510	0.410
2020/01/31 12:09:49.5	277.340	-0.320	0.490	0.390
2020/01/31 12:09:49.6	277.400	-0.300	0.480	0.370
2020/01/31 12:09:49.7	277.440	-0.270	0.460	0.340
2020/01/31 12:09:49.8	277.480	-0.250	0.440	0.320
2020/01/31 12:09:49.9	277.530	-0.220	0.420	0.300
2020/01/31 12:09:50.0	277.580	-0.200	0.400	0.280
2020/01/31 12:09:50.1	277.630	-0.170	0.370	0.260
2020/01/31 12:09:50.2	277.670	-0.150	0.350	0.240
2020/01/31 12:09:50.3	277.720	-0.120	0.330	0.220
2020/01/31 12:09:50.4	277.770	-0.100	0.300	0.200
2020/01/31 12:09:50.5	277.830	-0.070	0.280	0.180
2020/01/31 12:09:50.6	277.870	-0.040	0.250	0.170
2020/01/31 12:09:50.7	277.920	-0.020	0.230	0.150
2020/01/31 12:09:50.8	277.970	0.010	0.200	0.140
2020/01/31 12:09:50.9	278.020	0.030	0.170	0.130
2020/01/31 12:09:51.0	278.070	0.060	0.150	0.120
2020/01/31 12:09:51.1	278.120	0.080	0.120	0.110
2020/01/31 12:09:51.2	278.160	0.100	0.100	0.100
2020/01/31 12:09:51.3	278.210	0.120	0.080	0.090
2020/01/31 12:09:51.4	278.260	0.150	0.050	0.090
2020/01/31 12:09:51.5	278.310	0.170	0.030	0.090
2020/01/31 12:09:51.6	278.360	0.190	0.010	0.090
2020/01/31 12:09:51.7	278.400	0.210	-0.010	0.090
2020/01/31 12:09:51.8	278.440	0.230	-0.030	0.090
2020/01/31 12:09:51.9	278.480	0.250	-0.050	0.100
2020/01/31 12:09:52.0	278.520	0.260	-0.070	0.110
2020/01/31 12:09:52.1	278.560	0.280	-0.090	0.120
2020/01/31 12:09:52.2	278.600	0.300	-0.110	0.130
2020/01/31 12:09:52.3	278.640	0.310	-0.130	0.140
2020/01/31 12:09:52.4	278.670	0.330	-0.150	0.160
2020/01/31 12:09:52.5	278.700	0.340	-0.160	0.170
2020/01/31 12:09:52.6	278.740	0.350	-0.180	0.190
2020/01/31 12:09:52.7	278.770	0.370	-0.200	0.210
2020/01/31 12:09:52.8	278.790	0.380	-0.210	0.230
2020/01/31 12:09:52.9	278.820	0.390	-0.230	0.260
2020/01/31 12:09:53.0	278.840	0.400	-0.250	0.280
2020/01/31 12:09:53.1	278.860	0.410	-0.260	0.310
2020/01/31 12:09:53.2	278.880	0.420	-0.280	0.340
2020/01/31 12:09:53.3	278.900	0.430	-0.300	0.370
2020/01/31 12:09:53.4	278.920	0.440	-0.320	0.400
2020/01/31 12:09:53.5	278.930	0.450	-0.340	0.430
2020/01/31 12:09:53.6	278.950	0.460	-0.360	0.460
2020/01/31 12:09:53.7	278.960	0.470	-0.380	0.490
2020/01/31 12:09:53.8	278.970	0.480	-0.410	0.530
2020/01/31 12:09:53.9	278.980	0.480	-0.430	0.570
2020/01/31 12:09:54.0	278.980	0.490	-0.460	0.600
2020/01/31 12:09:54.1	278.980	0.490	-0.480	0.640
2020/01/31 12:09:54.2	278.980	0.500	-0.510	0.680
2020/01/31 12:09:54.3	278.980	0.500	-0.540	0.720
2020/01/31 12:09:54.4	278.970	0.500	-0.570	0.760
2020/01/31 12:09:54.5	278.970	0.500	-0.600	0.800
2020/01/31 12:09:54.6	278.960	0.500	-0.630	0.840
2020/01/31 12:09:54.7	278.950	0.500	-0.660	0.880
2020/01/31 12:09:54.8	278.940	0.500	-0.690	0.920
2020/01/31 12:09:54.9	278.920	0.500	-0.720	0.960
2020/01/31 12:09:55.0	278.910	0.490	-0.750	1.000
2020/01/31 12:09:55.1	278.890	0.480	-0.780	1.040
2020/01/31 12:09:55.2	278.870	0.480	-0.810	1.080
2020/01/31 12:09:55.3	278.850	0.470	-0.840	1.120
2020/01/31 12:09:55.4	278.830	0.450	-0.860	1.150
2020/01/31 12:09:55.5	278.800	0.440	-0.890	1.190
2020/01/31 12:09:55.6	278.780	0.430	-0.910	1.220
2020/01/31 12:09:55.7	278.760	0.410	-0.930	1.250
2020/01/31 12:09:55.8	278.730	0.390	-0.950	1.290
2020/01/31 12:09:55.9	278.710	0.370	-0.970	1.320
2020/01/31 12:09:56.0	278.680	0.350	-0.980	1.340
2020/01/31 12:09:56.1	278.660	0.330	-0.990	1.370
2020/01/31 12:09:56.2	278.630	0.300	-1.000	1.390
2020/01/31 12:09:56.3	278.610	0.280	-1.000	1.420
2020/01/31 12:09:56.4	278.580	0.250	-1.010	1.440
2020/01/31 12:09:56.5	278.560	0.230	-1.000	1.460
2020/01/31 12:09:56.6	278.530	0.200	-0.990	1.470
2020/01/31 12:09:56.7	278.510	0.170	-0.980	1.480
2020/01/31 12:09:56.8	278.490	0.140	-0.970	1.490
2020/01/31 12:09:56.9	278.470	0.110	-0.960	1.500
2020/01/31 12:09:57.0	278.450	0.080	-0.940	1.510
2020/01/31 12:09:57.1	278.430	0.050	-0.920	1.510
2020/01/31 12:09:57.2	278.410	0.020	-0.900	1.510
2020/01/31 12:09:57.3	278.390	-0.010	-0.880	1.510
2020/01/31 12:09:57.4	278.380	-0.040	-0.850	1.500
2020/01/31 12:09:57.5	278.370	-0.070	-0.820	1.490
2020/01/31 12:09:57.6	278.340	-0.100	-0.790	1.480
2020/01/31 12:09:57.7	278.330	-0.130	-0.760	1.460
2020/01/31 12:09:57.8	278.330	-0.160	-0.730	1.440
2020/01/31 12:09:57.9	278.330	-0.180	-0.690	1.420
2020/01/31 12:09:58.0	278.320	-0.210	-0.660	1.400
2020/01/31 12:09:58.1	278.330	-0.230	-0.620	1.370
2020/01/31 12:09:58.2	278.330	-0.250	-0.580	1.350
2020/01/31 12:09:58.3	278.340	-0.270	-0.550	1.310
2020/01/31 12:09:58.4	278.350	-0.290	-0.510	1.280
2020/01/31 12:09:58.5	278.370	-0.300	-0.470	1.240
2020/01/31 12:09:58.6	278.390	-0.320	-0.440	1.200
2020/01/31 12:09:58.7	278.420	-0.330	-0.400	1.160
2020/01/31 12:09:58.8	278.440	-0.340	-0.360	1.110
2020/01/31 12:09:58.9	278.470	-0.340	-0.330	1.060
2020/01/31 12:09:59.0	278.500	-0.350	-0.300	1.010
2020/01/31 12:09:59.1	278.530	-0.350	-0.260	0.960
2020/01/31 12:09:59.2	278.570	-0.350	-0.230	0.910
2020/01/31 12:09:59.3	278.610	-0.350	-0.200	0.850
2020/01/31 12:09:59.4	278.650	-0.350	-0.170	0.790
2020/01/31 12:09:59.5	278.700	-0.340	-0.140	0.740
2020/01/31 12:09:59.6	278.760	-0.330	-0.120	0.680
2020/01/31 12:09:59.7	278.810	-0.330	-0.090	0.620
2020/01/31 12:09:59.8	278.860	-0.320	-0.070	0.560
2020/01/31 12:09:59.9	278.910	-0.310	-0.050	0.500
2020/01/31 12:10:00.0	278.960	-0.300	-0.030	0.440
2020/01/31 12:10:00.1	279.020	-0.290	-0.010	0.380
2020/01/31 12:10:00.2	279.070	-0.270	0.010	0.320
2020/01/31 12:10:00.3	279.130	-0.260	0.030	0.260
2020/01/31 12:10:00.4	279.180	-0.250	0.050	0.210
2020/01/31 12:10:00.5	279.240	-0.240	0.060	0.150
2020/01/31 12:10:00.6	279.290	-0.230	0.080	0.100
2020/01/31 12:10:00.7	279.350	-0.220	0.090	0.050
2020/01/31 12:10:00.8	279.400	-0.210	0.110	0.000
2020/01/31 12:10:00.9	279.460	-0.200	0.130	-0.050
2020/01/31 12:10:01.0	279.520	-0.190	0.140	-0.090
2020/01/31 12:10:01.1	279.570	-0.180	0.160	-0.130
2020/01/31 12:10:01.2	279.630	-0.170	0.180	-0.170
2020/01/31 12:10:01.3	279.680	-0.170	0.190	-0.210
2020/01/31 12:10:01.4	279.730	-0.160	0.210	-0.240
2020/01/31 12:10:01.5	279.780	-0.160	0.230	-0.270
2020/01/31 12:10:01.6	279.840	-0.160	0.250	-0.300
2020/01/31 12:10:01.7	279.890	-0.160	0.270	-0.330
2020/01/31 12:10:01.8	279.940	-0.160	0.300	-0.350
2020/01/31 12:10:01.9	279.990	-0.160	0.320	-0.360
2020/01/31 12:10:02.0	280.030	-0.170	0.340	-0.380
2020/01/31 12:10:02.1	280.080	-0.170	0.370	-0.390
2020/01/31 12:10:02.2	280.120	-0.180	0.400	-0.400
2020/01/31 12:10:02.3	280.170	-0.180	0.420	-0.410
2020/01/31 12:10:02.4	280.210	-0.190	0.450	-0.410
2020/01/31 12:10:02.5	280.250	-0.200	0.480	-0.410
2020/01/31 12:10:02.6	280.300	-0.210	0.510	-0.410
2020/01/31 12:10:02.7	280.340	-0.220	0.540	-0.410
2020/01/31 12:10:02.8	280.380	-0.230	0.560	-0.400
2020/01/31 12:10:02.9	280.420	-0.240	0.590	-0.400
2020/01/31 12:10:03.0	280.460	-0.250	0.610	-0.390
2020/01/31 12:10:03.1	280.500	-0.260	0.630	-0.380
2020/01/31 12:10:03.2	280.540	-0.270	0.650	-0.370
2020/01/31 12:10:03.3	280.580	-0.280	0.670	-0.370
2020/01/31 12:10:03.4	280.610	-0.290	0.680	-0.360
2020/01/31 12:10:03.5	280.650	-0.290	0.690	-0.350
2020/01/31 12:10:03.6	280.690	-0.300	0.700	-0.340
2020/01/31 12:10:03.7	280.730	-0.310	0.700	-0.330
2020/01/31 12:10:03.8	280.760	-0.310	0.700	-0.320
2020/01/31 12:10:03.9	280.800	-0.310	0.690	-0.300
2020/01/31 12:10:04.0	280.830	-0.310	0.680	-0.290
2020/01/31 12:10:04.1	280.860	-0.310	0.660	-0.270
2020/01/31 12:10:04.2	280.890	-0.310	0.640	-0.260
2020/01/31 12:10:04.3	280.920	-0.300	0.610	-0.240
2020/01/31 12:10:04.4	280.950	-0.300	0.570	-0.210
2020/01/31 12:10:04.5	280.970	-0.290	0.530	-0.190
2020/01/31 12:10:04.6	281.000	-0.280	0.480	-0.170
2020/01/31 12:10:04.7	281.020	-0.260	0.430	-0.140
2020/01/31 12:10:04.8	281.040	-0.250	0.370	-0.110
2020/01/31 12:10:04.9	281.050	-0.230	0.310	-0.080
2020/01/31 12:10:05.0	281.070	-0.210	0.240	-0.040
2020/01/31 12:10:05.1	281.080	-0.180	0.170	-0.000
2020/01/31 12:10:05.2	281.090	-0.160	0.100	0.040
2020/01/31 12:10:05.3	281.100	-0.130	0.020	0.080
2020/01/31 12:10:05.4	281.110	-0.100	-0.070	0.120
2020/01/31 12:10:05.5	281.110	-0.070	-0.150	0.170
2020/01/31 12:10:05.6	281.110	-0.040	-0.240	0.210
2020/01/31 12:10:05.7	281.110	-0.010	-0.330	0.260
2020/01/31 12:10:05.8	281.110	0.020	-0.420	0.310
2020/01/31 12:10:05.9	281.110	0.060	-0.510	0.360
2020/01/31 12:10:06.0	281.100	0.090	-0.590	0.410
2020/01/31 12:10:06.1	281.100	0.130	-0.680	0.460
2020/01/31 12:10:06.2	281.090	0.160	-0.770	0.510
2020/01/31 12:10:06.3	281.080	0.200	-0.850	0.560
2020/01/31 12:10:06.4	281.080	0.240	-0.930	0.620
2020/01/31 12:10:06.5	281.070	0.270	-1.000	0.670
2020/01/31 12:10:06.6	281.060	0.310	-1.070	0.720
2020/01/31 12:10:06.7	281.050	0.340	-1.140	0.770
2020/01/31 12:10:06.8	281.040	0.370	-1.200	0.820
2020/01/31 12:10:06.9	281.030	0.400	-1.260	0.870
2020/01/31 12:10:07.0	281.020	0.430	-1.310	0.910
2020/01/31 12:10:07.1	281.010	0.460	-1.350	0.960
2020/01/31 12:10:07.2	281.000	0.480	-1.390	1.000
2020/01/31 12:10:07.3	280.990	0.500	-1.420	1.040
2020/01/31 12:10:07.4	280.980	0.530	-1.440	1.070
2020/01/31 12:10:07.5	280.980	0.540	-1.460	1.100
2020/01/31 12:10:07.6	280.960	0.560	-1.460	1.130
2020/01/31 12:10:07.7	280.960	0.570	-1.470	1.150
2020/01/31 12:10:07.8	280.960	0.580	-1.460	1.170
2020/01/31 12:10:07.9	280.960	0.590	-1.450	1.190
2020/01/31 12:10:08.0	280.960	0.600	-1.440	1.210
2020/01/31 12:10:08.1	280.960	0.600	-1.420	1.220
2020/01/31 12:10:08.2	280.960	0.600	-1.390	1.220
2020/01/31 12:10:08.3	280.960	0.600	-1.360	1.230
2020/01/31 12:10:08.4	280.970	0.600	-1.320	1.230
2020/01/31 12:10:08.5	280.970	0.590	-1.280	1.230
2020/01/31 12:10:08.6	280.990	0.580	-1.240	1.220
2020/01/31 12:10:08.7	281.000	0.580	-1.190	1.210
2020/01/31 12:10:08.8	281.010	0.560	-1.140	1.200
2020/01/31 12:10:08.9	281.020	0.550	-1.090	1.190
2020/01/31 12:10:09.0	281.030	0.540	-1.040	1.180
2020/01/31 12:10:09.1	281.040	0.520	-0.990	1.160
2020/01/31 12:10:09.2	281.050	0.500	-0.930	1.140
2020/01/31 12:10:09.3	281.070	0.480	-0.880	1.110
2020/01/31 12:10:09.4	281.080	0.460	-0.820	1.090
2020/01/31 12:10:09.5	281.100	0.440	-0.770	1.060
2020/01/31 12:10:09.6	281.120	0.420	-0.710	1.030
2020/01/31 12:10:09.7	281.140	0.400	-0.660	1.000
2020/01/31 12:10:09.8	281.160	0.370	-0.610	0.970
2020/01/31 12:10:09.9	281.190	0.350	-0.550	0.930
2020/01/31 12:10:10.0	281.210	0.330	-0.500	0.900
2020/01/31 12:10:10.1	281.230	0.300	-0.450	0.860
2020/01/31 12:10:10.2	281.260	0.280	-0.410	0.830
2020/01/31 12:10:10.3	281.280	0.260	-0.360	0.790
2020/01/31 12:10:10.4	281.310	0.230	-0.310	0.750
2020/01/31 12:10:10.5	281.340	0.210	-0.270	0.710
2020/01/31 12:10:10.6	281.370	0.190	-0.230	0.670
2020/01/31 12:10:10.7	281.400	0.160	-0.190	0.630
2020/01/31 12:10:10.8	281.430	0.140	-0.150	0.590
2020/01/31 12:10:10.9	281.460	0.120	-0.110	0.560
2020/01/31 12:10:11.0	281.490	0.100	-0.070	0.520
2020/01/31 12:10:11.1	281.530	0.070	-0.040	0.480
2020/01/31 12:10:11.2	281.560	0.050	-0.000	0.440
2020/01/31 12:10:11.3	281.600	0.030	0.030	0.400
2020/01/31 12:10:11.4	281.640	0.010	0.060	0.360
2020/01/31 12:10:11.5	281.670	-0.010	0.090	0.320
2020/01/31 12:10:11.6	281.720	-0.020	0.120	0.280
2020/01/31 12:10:11.7	281.750	-0.040	0.150	0.240
2020/01/31 12:10:11.8	281.790	-0.060	0.170	0.210
2020/01/31 12:10:11.9	281.830	-0.080	0.200	0.180
2020/01/31 12:10:12.0	281.870	-0.090	0.220	0.140
2020/01/31 12:10:12.1	281.910	-0.110	0.240	0.110
2020/01/31 12:10:12.2	281.950	-0.120	0.260	0.080
2020/01/31 12:10:12.3	281.990	-0.140	0.280	0.060
2020/01/31 12:10:12.4	282.020	-0.150	0.300	0.030
2020/01/31 12:10:12.5	282.060	-0.160	0.320	0.010
2020/01/31 12:10:12.6	282.080	-0.170	0.330	-0.020
2020/01/31 12:10:12.7	282.120	-0.190	0.350	-0.040
2020/01/31 12:10:12.8	282.150	-0.200	0.360	-0.060
2020/01/31 12:10:12.9	282.180	-0.210	0.370	-0.070
2020/01/31 12:10:13.0	282.210	-0.220	0.380	-0.090
2020/01/31 12:10:13.1	282.250	-0.230	0.380	-0.100
2020/01/31 12:10:13.2	282.280	-0.240	0.390	-0.110
2020/01/31 12:10:13.3	282.300	-0.240	0.400	-0.120
2020/01/31 12:10:13.4	282.330	-0.250	0.400	-0.130
2020/01/31 12:10:13.5	282.360	-0.260	0.400	-0.130
2020/01/31 12:10:13.6	282.380	-0.270	0.400	-0.140
2020/01/31 12:10:13.7	282.400	-0.270	0.400	-0.150
2020/01/31 12:10:13.8	282.430	-0.280	0.410	-0.150
2020/01/31 12:10:13.9	282.460	-0.290	0.400	-0.160
2020/01/31 12:10:14.0	282.480	-0.290	0.400	-0.160
2020/01/31 12:10:14.1	282.510	-0.300	0.400	-0.170
2020/01/31 12:10:14.2	282.540	-0.300	0.400	-0.170
2020/01/31 12:10:14.3	282.570	-0.310	0.400	-0.180
2020/01/31 12:10:14.4	282.590	-0.310	0.390	-0.180
2020/01/31 12:10:14.5	282.620	-0.310	0.390	-0.190
2020/01/31 12:10:14.6	282.640	-0.320	0.390	-0.190
2020/01/31 12:10:14.7	282.670	-0.320	0.390	-0.200
2020/01/31 12:10:14.8	282.700	-0.320	0.380	-0.200
2020/01/31 12:10:14.9	282.730	-0.320	0.380	-0.210
2020/01/31 12:10:15.0	282.760	-0.330	0.370	-0.210
2020/01/31 12:10:15.1	282.790	-0.330	0.370	-0.220
2020/01/31 12:10:15.2	282.820	-0.330	0.360	-0.220
2020/01/31 12:10:15.3	282.850	-0.330	0.350	-0.230
2020/01/31 12:10:15.4	282.880	-0.330	0.340	-0.230
2020/01/31 12:10:15.5	282.910	-0.330	0.330	-0.230
2020/01/31 12:10:15.6	282.940	-0.330	0.320	-0.230
2020/01/31 12:10:15.7	282.970	-0.330	0.310	-0.230
2020/01/31 12:10:15.8	283.000	-0.320	0.290	-0.230
2020/01/31 12:10:15.9	283.030	-0.320	0.280	-0.230
2020/01/31 12:10:16.0	283.060	-0.320	0.260	-0.230
2020/01/31 12:10:16.1	283.090	-0.310	0.240	-0.220
2020/01/31 12:10:16.2	283.130	-0.310	0.220	-0.220
2020/01/31 12:10:16.3	283.160	-0.300	0.190	-0.210
2020/01/31 12:10:16.4	283.190	-0.300	0.170	-0.200
2020/01/31 12:10:16.5	283.210	-0.290	0.140	-0.190
2020/01/31 12:10:16.6	283.260	-0.280	0.110	-0.190
2020/01/31 12:10:16.7	283.290	-0.280	0.070	-0.170
2020/01/31 12:10:16.8	283.320	-0.270	0.040	-0.160
2020/01/31 12:10:16.9	283.340	-0.260	-0.000	-0.150
2020/01/31 12:10:17.0	283.370	-0.250	-0.040	-0.140
2020/01/31 12:10:17.1	283.400	-0.230	-0.080	-0.120
2020/01/31 12:10:17.2	283.430	-0.220	-0.130	-0.110
2020/01/31 12:10:17.3	283.450	-0.210	-0.170	-0.100
2020/01/31 12:10:17.4	283.480	-0.200	-0.220	-0.090
2020/01/31 12:10:17.5	283.510	-0.180	-0.270	-0.080
2020/01/31 12:10:17.6	283.530	-0.160	-0.320	-0.060
2020/01/31 12:10:17.7	283.550	-0.150	-0.370	-0.050
2020/01/31 12:10:17.8	283.580	-0.130	-0.420	-0.040
2020/01/31 12:10:17.9	283.610	-0.110	-0.470	-0.040
2020/01/31 12:10:18.0	283.640	-0.090	-0.520	-0.030
2020/01/31 12:10:18.1	283.670	-0.070	-0.580	-0.020
2020/01/31 12:10:18.2	283.700	-0.050	-0.630	-0.010
2020/01/31 12:10:18.3	283.730	-0.030	-0.680	-0.010
2020/01/31 12:10:18.4	283.760	-0.010	-0.730	-0.000
2020/01/31 12:10:18.5	283.790	0.020	-0.780	0.010
2020/01/31 12:10:18.6	283.830	0.040	-0.830	0.010
2020/01/31 12:10:18.7	283.860	0.060	-0.880	0.020
2020/01/31 12:10:18.8	283.890	0.090	-0.930	0.020
2020/01/31 12:10:18.9	283.920	0.110	-0.970	0.030
2020/01/31 12:10:19.0	283.950	0.130	-1.010	0.040
2020/01/31 12:10:19.1	283.980	0.160	-1.050	0.050
2020/01/31 12:10:19.2	284.010	0.180	-1.090	0.060
2020/01/31 12:10:19.3	284.040	0.200	-1.120	0.070
2020/01/31 12:10:19.4	284.070	0.220	-1.150	0.090
2020/01/31 12:10:19.5	284.090	0.240	-1.180	0.100
2020/01/31 12:10:19.6	284.120	0.260	-1.200	0.120
2020/01/31 12:10:19.7	284.140	0.280	-1.220	0.140
2020/01/31 12:10:19.8	284.170	0.300	-1.230	0.160
2020/01/31 12:10:19.9	284.190	0.320	-1.240	0.180
2020/01/31 12:10:20.0	284.210	0.330	-1.250	0.210
2020/01/31 12:10:20.1	284.230	0.340	-1.250	0.230
2020/01/31 12:10:20.2	284.250	0.350	-1.250	0.260
2020/01/31 12:10:20.3	284.270	0.360	-1.240	0.290
2020/01/31 12:10:20.4	284.290	0.370	-1.230	0.320
2020/01/31 12:10:20.5	284.300	0.380	-1.210	0.350
2020/01/31 12:10:20.6	284.310	0.380	-1.190	0.390
2020/01/31 12:10:20.7	284.330	0.380	-1.160	0.420
2020/01/31 12:10:20.8	284.340	0.380	-1.130	0.460
2020/01/31 12:10:20.9	284.340	0.380	-1.100	0.500
2020/01/31 12:10:21.0	284.350	0.370	-1.060	0.530
2020/01/31 12:10:21.1	284.360	0.370	-1.020	0.570
2020/01/31 12:10:21.2	284.360	0.360	-0.980	0.610
2020/01/31 12:10:21.3	284.360	0.350	-0.930	0.640
2020/01/31 12:10:21.4	284.360	0.330	-0.880	0.680
2020/01/31 12:10:21.5	284.360	0.320	-0.820	0.710
2020/01/31 12:10:21.6	284.370	0.300	-0.760	0.740
2020/01/31 12:10:21.7	284.360	0.280	-0.710	0.770
2020/01/31 12:10:21.8	284.360	0.270	-0.650	0.800
2020/01/31 12:10:21.9	284.360	0.250	-0.580	0.830
2020/01/31 12:10:22.0	284.350	0.220	-0.520	0.850
2020/01/31 12:10:22.1	284.340	0.200	-0.460	0.870
2020/01/31 12:10:22.2	284.340	0.180	-0.400	0.890
2020/01/31 12:10:22.3	284.330	0.160	-0.330	0.910
2020/01/31 12:10:22.4	284.320	0.130	-0.270	0.920
2020/01/31 12:10:22.5	284.320	0.110	-0.210	0.930
2020/01/31 12:10:22.6	284.310	0.080	-0.140	0.930
2020/01/31 12:10:22.7	284.300	0.060	-0.080	0.940
2020/01/31 12:10:22.8	284.290	0.040	-0.030	0.940
2020/01/31 12:10:22.9	284.290	0.020	0.030	0.930
2020/01/31 12:10:23.0	284.280	-0.010	0.090	0.930
2020/01/31 12:10:23.1	284.280	-0.030	0.140	0.920
2020/01/31 12:10:23.2	284.270	-0.040	0.190	0.910
2020/01/31 12:10:23.3	284.270	-0.060	0.240	0.900
2020/01/31 12:10:23.4	284.270	-0.080	0.280	0.890
2020/01/31 12:10:23.5	284.270	-0.090	0.320	0.880
2020/01/31 12:10:23.6	284.270	-0.100	0.360	0.860
2020/01/31 12:10:23.7	284.270	-0.110	0.400	0.840
2020/01/31 12:10:23.8	284.270	-0.120	0.430	0.820
2020/01/31 12:10:23.9	284.270	-0.130	0.460	0.800
2020/01/31 12:10:24.0	284.280	-0.130	0.480	0.780
2020/01/31 12:10:24.1	284.290	-0.130	0.500	0.750
2020/01/31 12:10:24.2	284.290	-0.130	0.520	0.730
2020/01/31 12:10:24.3	284.300	-0.130	0.530	0.700
2020/01/31 12:10:24.4	284.320	-0.120	0.540	0.670
2020/01/31 12:10:24.5	284.330	-0.110	0.540	0.640
2020/01/31 12:10:24.6	284.350	-0.100	0.550	0.600
2020/01/31 12:10:24.7	284.360	-0.090	0.540	0.560
2020/01/31 12:10:24.8	284.380	-0.080	0.530	0.530
2020/01/31 12:10:24.9	284.400	-0.070	0.520	0.490
2020/01/31 12:10:25.0	284.420	-0.050	0.510	0.450
2020/01/31 12:10:25.1	284.450	-0.030	0.490	0.420
2020/01/31 12:10:25.2	284.470	-0.010	0.470	0.380
2020/01/31 12:10:25.3	284.500	0.010	0.450	0.340
2020/01/31 12:10:25.4	284.530	0.030	0.430	0.290
2020/01/31 12:10:25.5	284.560	0.050	0.400	0.250
2020/01/31 12:10:25.6	284.590	0.070	0.370	0.210
2020/01/31 12:10:25.7	284.620	0.090	0.340	0.160
2020/01/31 12:10:25.8	284.650	0.120	0.310	0.120
2020/01/31 12:10:25.9	284.690	0.140	0.280	0.070
2020/01/31 12:10:26.0	284.730	0.160	0.260	0.030
2020/01/31 12:10:26.1	284.770	0.180	0.230	-0.010
2020/01/31 12:10:26.2	284.810	0.200	0.200	-0.060
2020/01/31 12:10:26.3	284.850	0.220	0.170	-0.100
2020/01/31 12:10:26.4	284.890	0.240	0.140	-0.150
2020/01/31 12:10:26.5	284.930	0.260	0.110	-0.190
2020/01/31 12:10:26.6	284.980	0.270	0.090	-0.240
2020/01/31 12:10:26.7	285.020	0.290	0.070	-0.280
2020/01/31 12:10:26.8	285.070	0.300	0.050	-0.320
2020/01/31 12:10:26.9	285.110	0.310	0.020	-0.370
2020/01/31 12:10:27.0	285.160	0.320	0.010	-0.410
2020/01/31 12:10:27.1	285.200	0.320	-0.010	-0.450
2020/01/31 12:10:27.2	285.240	0.320	-0.030	-0.490
2020/01/31 12:10:27.3	285.290	0.330	-0.040	-0.520
2020/01/31 12:10:27.4	285.330	0.320	-0.050	-0.560
2020/01/31 12:10:27.5	285.370	0.320	-0.060	-0.590
2020/01/31 12:10:27.6	285.410	0.310	-0.080	-0.620
2020/01/31 12:10:27.7	285.450	0.300	-0.080	-0.660
2020/01/31 12:10:27.8	285.490	0.290	-0.090	-0.690
2020/01/31 12:10:27.9	285.530	0.280	-0.100	-0.710
2020/01/31 12:10:28.0	285.570	0.270	-0.110	-0.740
2020/01/31 12:10:28.1	285.600	0.250	-0.120	-0.760
2020/01/31 12:10:28.2	285.640	0.230	-0.130	-0.780
2020/01/31 12:10:28.3	285.670	0.210	-0.140	-0.800
2020/01/31 12:10:28.4	285.700	0.190	-0.160	-0.820
2020/01/31 12:10:28.5	285.730	0.160	-0.170	-0.830
2020/01/31 12:10:28.6	285.760	0.140	-0.190	-0.850
2020/01/31 12:10:28.7	285.790	0.110	-0.200	-0.860
2020/01/31 12:10:28.8	285.810	0.090	-0.220	-0.860
2020/01/31 12:10:28.9	285.840	0.060	-0.240	-0.870
2020/01/31 12:10:29.0	285.860	0.030	-0.260	-0.870
2020/01/31 12:10:29.1	285.890	0.010	-0.290	-0.880
2020/01/31 12:10:29.2	285.910	-0.020	-0.320	-0.880
2020/01/31 12:10:29.3	285.930	-0.040	-0.350	-0.870
2020/01/31 12:10:29.4	285.950	-0.070	-0.380	-0.870
2020/01/31 12:10:29.5	285.970	-0.090	-0.410	-0.860
2020/01/31 12:10:29.6	285.990	-0.120	-0.450	-0.860
2020/01/31 12:10:29.7	286.010	-0.140	-0.480	-0.850
2020/01/31 12:10:29.8	286.020	-0.160	-0.520	-0.830
2020/01/31 12:10:29.9	286.040	-0.180	-0.560	-0.820
2020/01/31 12:10:30.0	286.050	-0.200	-0.600	-0.800
2020/01/31 12:10:30.1	286.070	-0.220	-0.650	-0.780
2020/01/31 12:10:30.2	286.080	-0.230	-0.690	-0.760
2020/01/31 12:10:30.3	286.090	-0.240	-0.730	-0.740
2020/01/31 12:10:30.4	286.100	-0.250	-0.780	-0.710
2020/01/31 12:10:30.5	286.110	-0.260	-0.820	-0.690
2020/01/31 12:10:30.6	286.120	-0.270	-0.860	-0.660
2020/01/31 12:10:30.7	286.120	-0.280	-0.900	-0.630
2020/01/31 12:10:30.8	286.130	-0.280	-0.940	-0.600
2020/01/31 12:10:30.9	286.130	-0.290	-0.980	-0.570
2020/01/31 12:10:31.0	286.130	-0.290	-1.020	-0.530
2020/01/31 12:10:31.1	286.130	-0.290	-1.050	-0.490
2020/01/31 12:10:31.2	286.120	-0.290	-1.080	-0.450
2020/01/31 12:10:31.3	286.120	-0.280	-1.110	-0.410
2020/01/31 12:10:31.4	286.110	-0.280	-1.130	-0.360
2020/01/31 12:10:31.5	286.100	-0.280	-1.150	-0.320
2020/01/31 12:10:31.6	286.090	-0.270	-1.170	-0.260
2020/01/31 12:10:31.7	286.080	-0.270	-1.180	-0.210
2020/01/31 12:10:31.8	286.070	-0.260	-1.180	-0.160
2020/01/31 12:10:31.9	286.050	-0.250	-1.180	-0.110
2020/01/31 12:10:32.0	286.030	-0.250	-1.180	-0.060
2020/01/31 12:10:32.1	286.010	-0.240	-1.170	-0.000
2020/01/31 12:10:32.2	285.990	-0.230	-1.150	0.050
2020/01/31 12:10:32.3	285.970	-0.220	-1.130	0.110
2020/01/31 12:10:32.4	285.940	-0.220	-1.110	0.160
2020/01/31 12:10:32.5	285.920	-0.210	-1.070	0.220
2020/01/31 12:10:32.6	285.900	-0.200	-1.030	0.270
2020/01/31 12:10:32.7	285.880	-0.200	-0.990	0.330
2020/01/31 12:10:32.8	285.850	-0.190	-0.940	0.390
2020/01/31 12:10:32.9	285.820	-0.190	-0.890	0.440
2020/01/31 12:10:33.0	285.800	-0.190	-0.830	0.500
2020/01/31 12:10:33.1	285.770	-0.180	-0.770	0.550
2020/01/31 12:10:33.2	285.740	-0.180	-0.700	0.600
2020/01/31 12:10:33.3	285.720	-0.180	-0.630	0.650
2020/01/31 12:10:33.4	285.690	-0.180	-0.550	0.710
2020/01/31 12:10:33.5	285.670	-0.180	-0.480	0.750
2020/01/31 12:10:33.6	285.630	-0.180	-0.390	0.800
2020/01/31 12:10:33.7	285.610	-0.180	-0.310	0.850
2020/01/31 12:10:33.8	285.590	-0.180	-0.230	0.890
2020/01/31 12:10:33.9	285.570	-0.190	-0.140	0.930
2020/01/31 12:10:34.0	285.550	-0.190	-0.060	0.970
2020/01/31 12:10:34.1	285.540	-0.190	0.030	1.010
2020/01/31 12:10:34.2	285.520	-0.200	0.110	1.040
2020/01/31 12:10:34.3	285.510	-0.200	0.190	1.070
2020/01/31 12:10:34.4	285.500	-0.200	0.270	1.100
2020/01/31 12:10:34.5	285.500	-0.210	0.350	1.130
2020/01/31 12:10:34.6	285.490	-0.210	0.420	1.150
2020/01/31 12:10:34.7	285.490	-0.210	0.490	1.160
2020/01/31 12:10:34.8	285.490	-0.220	0.560	1.180
2020/01/31 12:10:34.9	285.490	-0.220	0.620	1.190
2020/01/31 12:10:35.0	285.500	-0.220	0.670	1.190
2020/01/31 12:10:35.1	285.510	-0.220	0.720	1.190
2020/01/31 12:10:35.2	285.520	-0.210	0.770	1.190
2020/01/31 12:10:35.3	285.530	-0.210	0.810	1.190
2020/01/31 12:10:35.4	285.540	-0.210	0.840	1.180
2020/01/31 12:10:35.5	285.560	-0.200	0.860	1.160
2020/01/31 12:10:35.6	285.580	-0.190	0.880	1.150
2020/01/31 12:10:35.7	285.600	-0.180	0.890	1.130
2020/01/31 12:10:35.8	285.620	-0.170	0.900	1.110
2020/01/31 12:10:35.9	285.640	-0.150	0.890	1.080
2020/01/31 12:10:36.0	285.660	-0.140	0.880	1.050
2020/01/31 12:10:36.1	285.690	-0.120	0.870	1.020
2020/01/31 12:10:36.2	285.720	-0.100	0.850	0.990
2020/01/31 12:10:36.3	285.750	-0.080	0.820	0.960
2020/01/31 12:10:36.4	285.780	-0.060	0.780	0.920
2020/01/31 12:10:36.5	285.810	-0.030	0.750	0.880
2020/01/31 12:10:36.6	285.840	-0.000	0.700	0.840
2020/01/31 12:10:36.7	285.880	0.020	0.650	0.790
2020/01/31 12:10:36.8	285.910	0.050	0.600	0.750
2020/01/31 12:10:36.9	285.940	0.080	0.540	0.700
2020/01/31 12:10:37.0	285.980	0.110	0.480	0.660
2020/01/31 12:10:37.1	286.010	0.150	0.410	0.610
2020/01/31 12:10:37.2	286.050	0.180	0.350	0.560
2020/01/31 12:10:37.3	286.080	0.210	0.280	0.510
2020/01/31 12:10:37.4	286.120	0.240	0.210	0.460
2020/01/31 12:10:37.5	286.150	0.280	0.140	0.410
2020/01/31 12:10:37.6	286.180	0.310	0.070	0.360
2020/01/31 12:10:37.7	286.210	0.340	-0.010	0.310
2020/01/31 12:10:37.8	286.250	0.370	-0.080	0.260
2020/01/31 12:10:37.9	286.280	0.400	-0.150	0.220
2020/01/31 12:10:38.0	286.320	0.430	-0.220	0.170
2020/01/31 12:10:38.1	286.350	0.460	-0.290	0.130
2020/01/31 12:10:38.2	286.380	0.480	-0.360	0.090
2020/01/31 12:10:38.3	286.410	0.510	-0.430	0.050
2020/01/31 12:10:38.4	286.440	0.530	-0.490	0.010
2020/01/31 12:10:38.5	286.470	0.550	-0.550	-0.020
2020/01/31 12:10:38.6	286.490	0.570	-0.610	-0.050
2020/01/31 12:10:38.7	286.520	0.590	-0.670	-0.080
2020/01/31 12:10:38.8	286.550	0.600	-0.720	-0.110
2020/01/31 12:10:38.9	286.570	0.610	-0.760	-0.130
2020/01/31 12:10:39.0	286.590	0.620	-0.810	-0.150
2020/01/31 12:10:39.1	286.610	0.630	-0.850	-0.170
2020/01/31 12:10:39.2	286.630	0.630	-0.880	-0.180
2020/01/31 12:10:39.3	286.650	0.630	-0.910	-0.190
2020/01/31 12:10:39.4	286.670	0.630	-0.940	-0.200
2020/01/31 12:10:39.5	286.680	0.630	-0.960	-0.200
2020/01/31 12:10:39.6	286.690	0.620	-0.980	-0.210
2020/01/31 12:10:39.7	286.700	0.610	-1.000	-0.210
2020/01/31 12:10:39.8	286.710	0.600	-1.010	-0.200
2020/01/31 12:10:39.9	286.710	0.590	-1.010	-0.200
2020/01/31 12:10:40.0	286.720	0.570	-1.020	-0.190
2020/01/31 12:10:40.1	286.720	0.550	-1.020	-0.170
2020/01/31 12:10:40.2	286.730	0.530	-1.010	-0.160
2020/01/31 12:10:40.3	286.730	0.510	-1.010	-0.140
2020/01/31 12:10:40.4	286.730	0.480	-0.990	-0.120
2020/01/31 12:10:40.5	286.720	0.460	-0.980	-0.100
2020/01/31 12:10:40.6	286.720	0.430	-0.960	-0.080
2020/01/31 12:10:40.7	286.720	0.400	-0.940	-0.060
2020/01/31 12:10:40.8	286.720	0.370	-0.920	-0.040
2020/01/31 12:10:40.9	286.710	0.340	-0.900	-0.010
2020/01/31 12:10:41.0	286.710	0.300	-0.870	0.010
2020/01/31 12:10:41.1	286.700	0.270	-0.850	0.030
2020/01/31 12:10:41.2	286.690	0.240	-0.820	0.060
2020/01/31 12:10:41.3	286.680	0.200	-0.790	0.080
2020/01/31 12:10:41.4	286.670	0.160	-0.760	0.110
2020/01/31 12:10:41.5	286.660	0.130	-0.720	0.130
2020/01/31 12:10:41.6	286.660	0.090	-0.690	0.150
2020/01/31 12:10:41.7	286.650	0.060	-0.660	0.180
2020/01/31 12:10:41.8	286.640	0.020	-0.620	0.200
2020/01/31 12:10:41.9	286.630	-0.010	-0.590	0.220
2020/01/31 12:10:42.0	286.620	-0.040	-0.550	0.240
2020/01/31 12:10:42.1	286.610	-0.080	-0.520	0.260
2020/01/31 12:10:42.2	286.600	-0.110	-0.480	0.280
2020/01/31 12:10:42.3	286.580	-0.140	-0.450	0.290
2020/01/31 12:10:42.4	286.570	-0.170	-0.420	0.310
2020/01/31 12:10:42.5	286.560	-0.190	-0.390	0.320
2020/01/31 12:10:42.6	286.550	-0.220	-0.360	0.330
2020/01/31 12:10:42.7	286.540	-0.240	-0.330	0.340
2020/01/31 12:10:42.8	286.540	-0.260	-0.300	0.350
2020/01/31 12:10:42.9	286.530	-0.280	-0.270	0.350
2020/01/31 12:10:43.0	286.520	-0.300	-0.240	0.360
2020/01/31 12:10:43.1	286.520	-0.320	-0.220	0.360
2020/01/31 12:10:43.2	286.510	-0.330	-0.200	0.360
2020/01/31 12:10:43.3	286.510	-0.340	-0.170	0.350
2020/01/31 12:10:43.4	286.510	-0.350	-0.150	0.350
2020/01/31 12:10:43.5	286.510	-0.360	-0.130	0.340
2020/01/31 12:10:43.6	286.510	-0.370	-0.110	0.340
2020/01/31 12:10:43.7	286.510	-0.370	-0.090	0.330
2020/01/31 12:10:43.8	286.510	-0.370	-0.070	0.320
2020/01/31 12:10:43.9	286.520	-0.370	-0.050	0.310
2020/01/31 12:10:44.0	286.520	-0.370	-0.030	0.300
2020/01/31 12:10:44.1	286.530	-0.370	-0.020	0.280
2020/01/31 12:10:44.2	286.540	-0.370	0.000	0.270
2020/01/31 12:10:44.3	286.550	-0.360	0.020	0.260
2020/01/31 12:10:44.4	286.560	-0.360	0.040	0.250
2020/01/31 12:10:44.5	286.570	-0.350	0.050	0.240
2020/01/31 12:10:44.6	286.560	-0.340	0.070	0.220
2020/01/31 12:10:44.7	286.570	-0.330	0.090	0.210
2020/01/31 12:10:44.8	286.590	-0.320	0.110	0.200
2020/01/31 12:10:44.9	286.600	-0.310	0.130	0.180
2020/01/31 12:10:45.0	286.610	-0.300	0.140	0.170
2020/01/31 12:10:45.1	286.620	-0.290	0.160	0.160
2020/01/31 12:10:45.2	286.630	-0.280	0.180	0.150
2020/01/31 12:10:45.3	286.650	-0.270	0.190	0.140
2020/01/31 12:10:45.4	286.660	-0.260	0.210	0.130
2020/01/31 12:10:45.5	286.670	-0.250	0.230	0.120
2020/01/31 12:10:45.6	286.670	-0.240	0.240	0.110
2020/01/31 12:10:45.7	286.690	-0.230	0.260	0.100
2020/01/31 12:10:45.8	286.700	-0.220	0.270	0.090
2020/01/31 12:10:45.9	286.710	-0.210	0.280	0.080
2020/01/31 12:10:46.0	286.730	-0.200	0.300	0.070
2020/01/31 12:10:46.1	286.740	-0.190	0.310	0.070
2020/01/31 12:10:46.2	286.750	-0.180	0.320	0.060
2020/01/31 12:10:46.3	286.760	-0.170	0.330	0.050
2020/01/31 12:10:46.4	286.770	-0.170	0.330	0.050
2020/01/31 12:10:46.5	286.780	-0.160	0.340	0.050
2020/01/31 12:10:46.6	286.800	-0.150	0.350	0.040
2020/01/31 12:10:46.7	286.800	-0.140	0.350	0.040
2020/01/31 12:10:46.8	286.810	-0.140	0.350	0.040
2020/01/31 12:10:46.9	286.820	-0.130	0.350	0.040
2020/01/31 12:10:47.0	286.830	-0.120	0.350	0.040
2020/01/31 12:10:47.1	286.830	-0.110	0.340	0.040
2020/01/31 12:10:47.2	286.840	-0.110	0.340	0.050
2020/01/31 12:10:47.3	286.840	-0.100	0.330	0.050
2020/01/31 12:10:47.4	286.840	-0.090	0.320	0.060
2020/01/31 12:10:47.5	286.850	-0.090	0.300	0.060
2020/01/31 12:10:47.6	286.840	-0.080	0.290	0.070
2020/01/31 12:10:47.7	286.840	-0.070	0.270	0.080
2020/01/31 12:10:47.8	286.840	-0.060	0.250	0.090
2020/01/31 12:10:47.9	286.840	-0.050	0.230	0.110
2020/01/31 12:10:48.0	286.840	-0.040	0.200	0.120
2020/01/31 12:10:48.1	286.840	-0.030	0.170	0.140
2020/01/31 12:10:48.2	286.840	-0.020	0.140	0.150
2020/01/31 12:10:48.3	286.830	-0.010	0.110	0.170
2020/01/31 12:10:48.4	286.830	0.010	0.070	0.190
2020/01/31 12:10:48.5	286.830	0.020	0.040	0.210
2020/01/31 12:10:48.6	286.830	0.030	0.000	0.230
2020/01/31 12:10:48.7	286.830	0.050	-0.040	0.260
2020/01/31 12:10:48.8	286.820	0.060	-0.080	0.280
2020/01/31 12:10:48.9	286.820	0.080	-0.130	0.310
2020/01/31 12:10:49.0	286.820	0.090	-0.170	0.330
2020/01/31 12:10:49.1	286.820	0.110	-0.220	0.360
2020/01/31 12:10:49.2	286.810	0.120	-0.270	0.390
2020/01/31 12:10:49.3	286.810	0.140	-0.320	0.420
2020/01/31 12:10:49.4	286.810	0.160	-0.360	0.450
2020/01/31 12:10:49.5	286.810	0.170	-0.410	0.480
2020/01/31 12:10:49.6	286.810	0.190	-0.470	0.510
2020/01/31 12:10:49.7	286.810	0.200	-0.520	0.540
2020/01/31 12:10:49.8	286.820	0.220	-0.560	0.570
2020/01/31 12:10:49.9	286.820	0.230	-0.610	0.590
2020/01/31 12:10:50.0	286.820	0.250	-0.650	0.620
2020/01/31 12:10:50.1	286.820	0.260	-0.690	0.650
2020/01/31 12:10:50.2	286.820	0.270	-0.730	0.670
2020/01/31 12:10:50.3	286.830	0.280	-0.770	0.690
2020/01/31 12:10:50.4	286.830	0.290	-0.810	0.710
2020/01/31 12:10:50.5	286.840	0.300	-0.840	0.730
2020/01/31 12:10:50.6	286.850	0.300	-0.870	0.750
2020/01/31 12:10:50.7	286.860	0.310	-0.900	0.760
2020/01/31 12:10:50.8	286.870	0.310	-0.930	0.770
2020/01/31 12:10:50.9	286.880	0.310	-0.950	0.780
2020/01/31 12:10:51.0	286.890	0.310	-0.970	0.790
2020/01/31 12:10:51.1	286.900	0.310	-0.990	0.790
2020/01/31 12:10:51.2	286.910	0.310	-1.010	0.790
2020/01/31 12:10:51.3	286.930	0.300	-1.020	0.790
2020/01/31 12:10:51.4	286.940	0.300	-1.030	0.780
2020/01/31 12:10:51.5	286.960	0.290	-1.030	0.780
2020/01/31 12:10:51.6	286.980	0.280	-1.030	0.760
2020/01/31 12:10:51.7	287.000	0.270	-1.030	0.750
2020/01/31 12:10:51.8	287.010	0.260	-1.030	0.730
2020/01/31 12:10:51.9	287.030	0.240	-1.020	0.720
2020/01/31 12:10:52.0	287.050	0.230	-1.010	0.700
2020/01/31 12:10:52.1	287.080	0.210	-1.000	0.670
2020/01/31 12:10:52.2	287.100	0.190	-0.990	0.650
2020/01/31 12:10:52.3	287.120	0.180	-0.970	0.630
2020/01/31 12:10:52.4	287.140	0.160	-0.950	0.600
2020/01/31 12:10:52.5	287.160	0.140	-0.930	0.570
2020/01/31 12:10:52.6	287.180	0.120	-0.910	0.550
2020/01/31 12:10:52.7	287.200	0.100	-0.880	0.520
2020/01/31 12:10:52.8	287.220	0.080	-0.850	0.500
2020/01/31 12:10:52.9	287.240	0.060	-0.820	0.470
2020/01/31 12:10:53.0	287.260	0.040	-0.790	0.450
2020/01/31 12:10:53.1	287.280	0.020	-0.760	0.430
2020/01/31 12:10:53.2	287.300	-0.000	-0.720	0.400
2020/01/31 12:10:53.3	287.310	-0.020	-0.690	0.380
2020/01/31 12:10:53.4	287.330	-0.040	-0.650	0.360
2020/01/31 12:10:53.5	287.340	-0.060	-0.610	0.340
2020/01/31 12:10:53.6	287.340	-0.080	-0.570	0.320
2020/01/31 12:10:53.7	287.360	-0.090	-0.530	0.310
2020/01/31 12:10:53.8	287.370	-0.110	-0.490	0.290
2020/01/31 12:10:53.9	287.380	-0.120	-0.450	0.280
2020/01/31 12:10:54.0	287.390	-0.130	-0.410	0.270
2020/01/31 12:10:54.1	287.400	-0.150	-0.370	0.260
2020/01/31 12:10:54.2	287.400	-0.160	-0.330	0.250
2020/01/31 12:10:54.3	287.410	-0.160	-0.300	0.240
2020/01/31 12:10:54.4	287.410	-0.170	-0.260	0.230
2020/01/31 12:10:54.5	287.420	-0.180	-0.220	0.230
2020/01/31 12:10:54.6	287.410	-0.180	-0.180	0.230
2020/01/31 12:10:54.7	287.410	-0.180	-0.150	0.230
2020/01/31 12:10:54.8	287.410	-0.180	-0.110	0.230
2020/01/31 12:10:54.9	287.410	-0.180	-0.080	0.230
2020/01/31 12:10:55.0	287.410	-0.180	-0.040	0.240
2020/01/31 12:10:55.1	287.410	-0.170	-0.010	0.240
2020/01/31 12:10:55.2	287.410	-0.170	0.020	0.250
2020/01/31 12:10:55.3	287.410	-0.160	0.060	0.260
2020/01/31 12:10:55.4	287.400	-0.150	0.090	0.270
2020/01/31 12:10:55.5	287.390	-0.140	0.120	0.280
2020/01/31 12:10:55.6	287.390	-0.130	0.150	0.290
2020/01/31 12:10:55.7	287.380	-0.120	0.180	0.310
2020/01/31 12:10:55.8	287.370	-0.110	0.210	0.320
2020/01/31 12:10:55.9	287.360	-0.090	0.230	0.340
2020/01/31 12:10:56.0	287.350	-0.080	0.260	0.360
2020/01/31 12:10:56.1	287.340	-0.070	0.290	0.380
2020/01/31 12:10:56.2	287.320	-0.050	0.310	0.400
2020/01/31 12:10:56.3	287.310	-0.040	0.340	0.420
2020/01/31 12:10:56.4	287.290	-0.020	0.360	0.450
2020/01/31 12:10:56.5	287.270	-0.000	0.380	0.470
2020/01/31 12:10:56.6	287.250	0.010	0.400	0.500
2020/01/31 12:10:56.7	287.230	0.030	0.420	0.520
2020/01/31 12:10:56.8	287.210	0.040	0.440	0.550
2020/01/31 12:10:56.9	287.190	0.060	0.460	0.580
2020/01/31 12:10:57.0	287.170	0.070	0.470	0.600
2020/01/31 12:10:57.1	287.140	0.090	0.480	0.630
2020/01/31 12:10:57.2	287.120	0.100	0.490	0.650
2020/01/31 12:10:57.3	287.100	0.110	0.500	0.680
2020/01/31 12:10:57.4	287.070	0.130	0.510	0.700
2020/01/31 12:10:57.5	287.050	0.140	0.520	0.720
2020/01/31 12:10:57.6	287.020	0.150	0.520	0.740
2020/01/31 12:10:57.7	287.000	0.160	0.520	0.760
2020/01/31 12:10:57.8	286.980	0.170	0.510	0.770
2020/01/31 12:10:57.9	286.960	0.180	0.510	0.790
2020/01/31 12:10:58.0	286.950	0.190	0.500	0.800
2020/01/31 12:10:58.1	286.930	0.200	0.490	0.810
2020/01/31 12:10:58.2	286.920	0.200	0.470	0.820
2020/01/31 12:10:58.3	286.900	0.210	0.460	0.820
2020/01/31 12:10:58.4	286.890	0.220	0.440	0.820
2020/01/31 12:10:58.5	286.880	0.220	0.410	0.820
2020/01/31 12:10:58.6	286.870	0.220	0.390	0.810
2020/01/31 12:10:58.7	286.870	0.230	0.360	0.800
2020/01/31 12:10:58.8	286.870	0.230	0.330	0.780
2020/01/31 12:10:58.9	286.870	0.230	0.300	0.770
2020/01/31 12:10:59.0	286.880	0.240	0.260	0.750
2020/01/31 12:10:59.1	286.880	0.240	0.220	0.720
2020/01/31 12:10:59.2	286.890	0.240	0.180	0.690
2020/01/31 12:10:59.3	286.900	0.240	0.140	0.660
2020/01/31 12:10:59.4	286.920	0.240	0.090	0.630
2020/01/31 12:10:59.5	286.930	0.240	0.050	0.590
2020/01/31 12:10:59.6	286.950	0.230	-0.010	0.550
2020/01/31 12:10:59.7	286.970	0.230	-0.050	0.510
2020/01/31 12:10:59.8	286.990	0.230	-0.100	0.470
2020/01/31 12:10:59.9	287.010	0.220	-0.150	0.430
2020/01/31 12:11:00.0	287.030	0.220	-0.200	0.390
2020/01/31 12:11:00.1	287.060	0.210	-0.250	0.350
2020/01/31 12:11:00.2	287.080	0.210	-0.300	0.310
2020/01/31 12:11:00.3	287.100	0.200	-0.350	0.270
2020/01/31 12:11:00.4	287.120	0.190	-0.390	0.230
2020/01/31 12:11:00.5	287.150	0.190	-0.440	0.190
2020/01/31 12:11:00.6	287.180	0.180	-0.480	0.150
2020/01/31 12:11:00.7	287.200	0.170	-0.520	0.120
2020/01/31 12:11:00.8	287.220	0.160	-0.560	0.080
2020/01/31 12:11:00.9	287.240	0.140	-0.600	0.050
2020/01/31 12:11:01.0	287.250	0.130	-0.630	0.020
2020/01/31 12:11:01.1	287.270	0.120	-0.660	-0.010
2020/01/31 12:11:01.2	287.290	0.110	-0.690	-0.040
2020/01/31 12:11:01.3	287.300	0.090	-0.710	-0.060
2020/01/31 12:11:01.4	287.320	0.080	-0.730	-0.090
2020/01/31 12:11:01.5	287.330	0.070	-0.750	-0.110
2020/01/31 12:11:01.6	287.340	0.050	-0.770	-0.130
2020/01/31 12:11:01.7	287.350	0.040	-0.780	-0.140
2020/01/31 12:11:01.8	287.370	0.020	-0.800	-0.160
2020/01/31 12:11:01.9	287.380	0.010	-0.800	-0.170
2020/01/31 12:11:02.0	287.390	-0.010	-0.810	-0.180
2020/01/31 12:11:02.1	287.400	-0.020	-0.810	-0.190
2020/01/31 12:11:02.2	287.400	-0.030	-0.820	-0.200
2020/01/31 12:11:02.3	287.410	-0.050	-0.820	-0.200
2020/01/31 12:11:02.4	287.420	-0.060	-0.810	-0.210
2020/01/31 12:11:02.5	287.430	-0.070	-0.810	-0.210
2020/01/31 12:11:02.6	287.440	-0.090	-0.810	-0.200
2020/01/31 12:11:02.7	287.440	-0.100	-0.800	-0.200
2020/01/31 12:11:02.8	287.450	-0.110	-0.790	-0.200
2020/01/31 12:11:02.9	287.460	-0.120	-0.780	-0.190
2020/01/31 12:11:03.0	287.460	-0.130	-0.770	-0.180
2020/01/31 12:11:03.1	287.470	-0.140	-0.760	-0.170
2020/01/31 12:11:03.2	287.480	-0.150	-0.750	-0.150
2020/01/31 12:11:03.3	287.480	-0.160	-0.740	-0.140
2020/01/31 12:11:03.4	287.490	-0.170	-0.730	-0.120
2020/01/31 12:11:03.5	287.490	-0.180	-0.710	-0.110
2020/01/31 12:11:03.6	287.510	-0.190	-0.700	-0.090
2020/01/31 12:11:03.7	287.520	-0.190	-0.680	-0.070
2020/01/31 12:11:03.8	287.520	-0.200	-0.670	-0.050
2020/01/31 12:11:03.9	287.530	-0.200	-0.660	-0.030
2020/01/31 12:11:04.0	287.530	-0.210	-0.640	-0.000
2020/01/31 12:11:04.1	287.540	-0.210	-0.630	0.020
2020/01/31 12:11:04.2	287.550	-0.210	-0.610	0.040
2020/01/31 12:11:04.3	287.550	-0.220	-0.600	0.070
2020/01/31 12:11:04.4	287.560	-0.220	-0.590	0.100
2020/01/31 12:11:04.5	287.570	-0.220	-0.570	0.130
2020/01/31 12:11:04.6	287.580	-0.220	-0.560	0.150
2020/01/31 12:11:04.7	287.580	-0.220	-0.550	0.190
2020/01/31 12:11:04.8	287.590	-0.220	-0.540	0.220
2020/01/31 12:11:04.9	287.590	-0.220	-0.520	0.250
2020/01/31 12:11:05.0	287.600	-0.220	-0.510	0.280
2020/01/31 12:11:05.1	287.600	-0.210	-0.500	0.320
2020/01/31 12:11:05.2	287.600	-0.210	-0.480	0.360
2020/01/31 12:11:05.3	287.600	-0.210	-0.470	0.400
2020/01/31 12:11:05.4	287.600	-0.200	-0.460	0.430
2020/01/31 12:11:05.5	287.600	-0.200	-0.440	0.470
2020/01/31 12:11:05.6	287.590	-0.200	-0.430	0.510
2020/01/31 12:11:05.7	287.580	-0.190	-0.420	0.550
2020/01/31 12:11:05.8	287.580	-0.190	-0.400	0.600
2020/01/31 12:11:05.9	287.570	-0.180	-0.390	0.640
2020/01/31 12:11:06.0	287.560	-0.180	-0.380	0.680
2020/01/31 12:11:06.1	287.550	-0.170	-0.370	0.720
2020/01/31 12:11:06.2	287.550	-0.160	-0.360	0.760
2020/01/31 12:11:06.3	287.540	-0.160	-0.340	0.790
2020/01/31 12:11:06.4	287.530	-0.150	-0.330	0.830
2020/01/31 12:11:06.5	287.520	-0.140	-0.320	0.870
2020/01/31 12:11:06.6	287.510	-0.140	-0.310	0.900
2020/01/31 12:11:06.7	287.500	-0.130	-0.290	0.930
2020/01/31 12:11:06.8	287.490	-0.130	-0.280	0.970
2020/01/31 12:11:06.9	287.480	-0.120	-0.270	1.000
2020/01/31 12:11:07.0	287.480	-0.110	-0.250	1.020
2020/01/31 12:11:07.1	287.470	-0.110	-0.240	1.050
2020/01/31 12:11:07.2	287.460	-0.100	-0.230	1.070
2020/01/31 12:11:07.3	287.450	-0.100	-0.210	1.100
2020/01/31 12:11:07.4	287.440	-0.090	-0.200	1.120
2020/01/31 12:11:07.5	287.430	-0.090	-0.180	1.130
2020/01/31 12:11:07.6	287.420	-0.090	-0.170	1.150
2020/01/31 12:11:07.7	287.420	-0.080	-0.150	1.170
2020/01/31 12:11:07.8	287.410	-0.080	-0.130	1.180
2020/01/31 12:11:07.9	287.400	-0.080	-0.120	1.190
2020/01/31 12:11:08.0	287.400	-0.070	-0.100	1.200
2020/01/31 12:11:08.1	287.390	-0.070	-0.080	1.200
2020/01/31 12:11:08.2	287.390	-0.070	-0.060	1.200
2020/01/31 12:11:08.3	287.390	-0.070	-0.040	1.200
2020/01/31 12:11:08.4	287.380	-0.070	-0.020	1.200
2020/01/31 12:11:08.5	287.380	-0.070	0.000	1.200
2020/01/31 12:11:08.6	287.380	-0.070	0.030	1.190
2020/01/31 12:11:08.7	287.380	-0.070	0.050	1.180
2020/01/31 12:11:08.8	287.380	-0.070	0.070	1.170
2020/01/31 12:11:08.9	287.380	-0.070	0.090	1.160
2020/01/31 12:11:09.0	287.390	-0.070	0.120	1.150
2020/01/31 12:11:09.1	287.390	-0.070	0.140	1.130
2020/01/31 12:11:09.2	287.400	-0.070	0.160	1.110
2020/01/31 12:11:09.3	287.410	-0.070	0.180	1.090
2020/01/31 12:11:09.4	287.420	-0.070	0.210	1.070
2020/01/31 12:11:09.5	287.430	-0.070	0.230	1.050
2020/01/31 12:11:09.6	287.440	-0.070	0.250	1.030
2020/01/31 12:11:09.7	287.450	-0.070	0.270	1.000
2020/01/31 12:11:09.8	287.460	-0.070	0.290	0.980
2020/01/31 12:11:09.9	287.470	-0.060	0.310	0.950
2020/01/31 12:11:10.0	287.490	-0.060	0.330	0.920
2020/01/31 12:11:10.1	287.500	-0.050	0.350	0.890
2020/01/31 12:11:10.2	287.510	-0.050	0.370	0.860
2020/01/31 12:11:10.3	287.530	-0.040	0.380	0.820
2020/01/31 12:11:10.4	287.540	-0.030	0.400	0.790
2020/01/31 12:11:10.5	287.560	-0.030	0.410	0.750
2020/01/31 12:11:10.6	287.570	-0.020	0.410	0.710
2020/01/31 12:11:10.7	287.590	-0.010	0.420	0.670
2020/01/31 12:11:10.8	287.600	0.000	0.420	0.630
2020/01/31 12:11:10.9	287.620	0.020	0.420	0.590
2020/01/31 12:11:11.0	287.640	0.030	0.410	0.550
2020/01/31 12:11:11.1	287.660	0.040	0.400	0.500
2020/01/31 12:11:11.2	287.680	0.060	0.390	0.460
2020/01/31 12:11:11.3	287.700	0.070	0.370	0.410
2020/01/31 12:11:11.4	287.720	0.090	0.350	0.370
2020/01/31 12:11:11.5	287.740	0.100	0.320	0.320
2020/01/31 12:11:11.6	287.780	0.120	0.290	0.280
2020/01/31 12:11:11.7	287.800	0.130	0.260	0.230
2020/01/31 12:11:11.8	287.820	0.150	0.220	0.190
2020/01/31 12:11:11.9	287.850	0.160	0.180	0.150
2020/01/31 12:11:12.0	287.870	0.180	0.140	0.110
2020/01/31 12:11:12.1	287.890	0.190	0.090	0.070
2020/01/31 12:11:12.2	287.910	0.210	0.050	0.030
2020/01/31 12:11:12.3	287.930	0.220	-0.000	0.000
2020/01/31 12:11:12.4	287.950	0.230	-0.050	-0.030
2020/01/31 12:11:12.5	287.970	0.240	-0.100	-0.050
2020/01/31 12:11:12.6	287.990	0.250	-0.150	-0.080
2020/01/31 12:11:12.7	288.000	0.260	-0.200	-0.090
2020/01/31 12:11:12.8	288.020	0.270	-0.250	-0.110
2020/01/31 12:11:12.9	288.030	0.270	-0.300	-0.120
2020/01/31 12:11:13.0	288.040	0.280	-0.350	-0.120
2020/01/31 12:11:13.1	288.050	0.280	-0.390	-0.120
2020/01/31 12:11:13.2	288.060	0.280	-0.440	-0.110
2020/01/31 12:11:13.3	288.060	0.290	-0.480	-0.110
2020/01/31 12:11:13.4	288.070	0.280	-0.520	-0.090
2020/01/31 12:11:13.5	288.070	0.280	-0.550	-0.070
2020/01/31 12:11:13.6	288.100	0.280	-0.580	-0.050
2020/01/31 12:11:13.7	288.100	0.270	-0.610	-0.030
2020/01/31 12:11:13.8	288.100	0.270	-0.630	0.000
2020/01/31 12:11:13.9	288.090	0.260	-0.660	0.030
2020/01/31 12:11:14.0	288.090	0.250	-0.680	0.070
2020/01/31 12:11:14.1	288.090	0.240	-0.690	0.100
2020/01/31 12:11:14.2	288.080	0.230	-0.710	0.140
2020/01/31 12:11:14.3	288.080	0.210	-0.720	0.180
2020/01/31 12:11:14.4	288.070	0.200	-0.730	0.220
2020/01/31 12:11:14.5	288.070	0.190	-0.740	0.270
2020/01/31 12:11:14.6	288.070	0.180	-0.740	0.310
2020/01/31 12:11:14.7	288.060	0.160	-0.740	0.350
2020/01/31 12:11:14.8	288.050	0.150	-0.740	0.400
2020/01/31 12:11:14.9	288.040	0.130	-0.740	0.440
2020/01/31 12:11:15.0	288.040	0.120	-0.740	0.490
2020/01/31 12:11:15.1	288.030	0.110	-0.740	0.530
2020/01/31 12:11:15.2	288.020	0.090	-0.730	0.570
2020/01/31 12:11:15.3	288.010	0.080	-0.730	0.610
2020/01/31 12:11:15.4	288.010	0.070	-0.720	0.650
2020/01/31 12:11:15.5	288.000	0.060	-0.710	0.690
2020/01/31 12:11:15.6	287.980	0.050	-0.710	0.730
2020/01/31 12:11:15.7	287.980	0.030	-0.700	0.760
2020/01/31 12:11:15.8	287.970	0.020	-0.690	0.790
2020/01/31 12:11:15.9	287.960	0.010	-0.680	0.820
2020/01/31 12:11:16.0	287.950	0.010	-0.670	0.840
2020/01/31 12:11:16.1	287.940	-0.000	-0.660	0.870
2020/01/31 12:11:16.2	287.930	-0.010	-0.650	0.890
2020/01/31 12:11:16.3	287.930	-0.020	-0.640	0.910
2020/01/31 12:11:16.4	287.920	-0.020	-0.630	0.920
2020/01/31 12:11:16.5	287.910	-0.030	-0.620	0.930
2020/01/31 12:11:16.6	287.910	-0.040	-0.600	0.940
2020/01/31 12:11:16.7	287.910	-0.040	-0.590	0.940
2020/01/31 12:11:16.8	287.900	-0.040	-0.580	0.940
2020/01/31 12:11:16.9	287.900	-0.050	-0.570	0.940
2020/01/31 12:11:17.0	287.900	-0.050	-0.550	0.930
2020/01/31 12:11:17.1	287.890	-0.060	-0.540	0.920
2020/01/31 12:11:17.2	287.890	-0.060	-0.530	0.910
2020/01/31 12:11:17.3	287.890	-0.060	-0.520	0.900
2020/01/31 12:11:17.4	287.890	-0.060	-0.500	0.880
2020/01/31 12:11:17.5	287.890	-0.070	-0.490	0.870
2020/01/31 12:11:17.6	287.890	-0.070	-0.480	0.850
2020/01/31 12:11:17.7	287.900	-0.070	-0.470	0.830
2020/01/31 12:11:17.8	287.900	-0.080	-0.450	0.810
2020/01/31 12:11:17.9	287.900	-0.080	-0.440	0.780
2020/01/31 12:11:18.0	287.900	-0.080	-0.420	0.760
2020/01/31 12:11:18.1	287.910	-0.090	-0.410	0.740
2020/01/31 12:11:18.2	287.910	-0.090	-0.390	0.710
2020/01/31 12:11:18.3	287.920	-0.100	-0.380	0.690
2020/01/31 12:11:18.4	287.930	-0.100	-0.360	0.660
2020/01/31 12:11:18.5	287.930	-0.110	-0.340	0.630
2020/01/31 12:11:18.6	287.940	-0.120	-0.320	0.610
2020/01/31 12:11:18.7	287.950	-0.120	-0.300	0.580
2020/01/31 12:11:18.8	287.960	-0.130	-0.280	0.550
2020/01/31 12:11:18.9	287.970	-0.140	-0.260	0.530
2020/01/31 12:11:19.0	287.990	-0.150	-0.240	0.500
2020/01/31 12:11:19.1	288.000	-0.160	-0.220	0.470
2020/01/31 12:11:19.2	288.010	-0.170	-0.200	0.440
2020/01/31 12:11:19.3	288.030	-0.180	-0.180	0.410
2020/01/31 12:11:19.4	288.040	-0.190	-0.150	0.380
2020/01/31 12:11:19.5	288.060	-0.200	-0.130	0.350
2020/01/31 12:11:19.6	288.070	-0.210	-0.110	0.320
2020/01/31 12:11:19.7	288.080	-0.230	-0.080	0.290
2020/01/31 12:11:19.8	288.100	-0.240	-0.060	0.260
2020/01/31 12:11:19.9	288.120	-0.250	-0.040	0.240
2020/01/31 12:11:20.0	288.140	-0.260	-0.020	0.210
2020/01/31 12:11:20.1	288.150	-0.270	0.000	0.190
2020/01/31 12:11:20.2	288.170	-0.280	0.020	0.160
2020/01/31 12:11:20.3	288.190	-0.290	0.040	0.140
2020/01/31 12:11:20.4	288.200	-0.300	0.060	0.120
2020/01/31 12:11:20.5	288.220	-0.310	0.070	0.100
2020/01/31 12:11:20.6	288.230	-0.320	0.090	0.080
2020/01/31 12:11:20.7	288.250	-0.320	0.100	0.060
2020/01/31 12:11:20.8	288.260	-0.330	0.110	0.050
2020/01/31 12:11:20.9	288.270	-0.330	0.130	0.030
2020/01/31 12:11:21.0	288.290	-0.330	0.130	0.020
2020/01/31 12:11:21.1	288.300	-0.340	0.140	0.010
2020/01/31 12:11:21.2	288.310	-0.340	0.150	0.010
2020/01/31 12:11:21.3	288.320	-0.340	0.150	0.000
2020/01/31 12:11:21.4	288.330	-0.330	0.150	-0.000
2020/01/31 12:11:21.5	288.340	-0.330	0.150	-0.000
2020/01/31 12:11:21.6	288.330	-0.320	0.150	0.000
2020/01/31 12:11:21.7	288.340	-0.320	0.140	0.000
2020/01/31 12:11:21.8	288.340	-0.310	0.140	0.010
2020/01/31 12:11:21.9	288.350	-0.300	0.130	0.020
2020/01/31 12:11:22.0	288.350	-0.290	0.120	0.030
2020/01/31 12:11:22.1	288.360	-0.280	0.110	0.040
2020/01/31 12:11:22.2	288.360	-0.260	0.100	0.050
2020/01/31 12:11:22.3	288.360	-0.250	0.090	0.070
2020/01/31 12:11:22.4	288.360	-0.230	0.080	0.090
2020/01/31 12:11:22.5	288.360	-0.220	0.060	0.110
2020/01/31 12:11:22.6	288.380	-0.200	0.050	0.130
2020/01/31 12:11:22.7	288.380	-0.180	0.030	0.150
2020/01/31 12:11:22.8	288.380	-0.160	0.010	0.170
2020/01/31 12:11:22.9	288.380	-0.150	-0.010	0.200
2020/01/31 12:11:23.0	288.390	-0.130	-0.030	0.230
2020/01/31 12:11:23.1	288.390	-0.100	-0.050	0.260
2020/01/31 12:11:23.2	288.390	-0.080	-0.080	0.290
2020/01/31 12:11:23.3	288.390	-0.060	-0.100	0.320
2020/01/31 12:11:23.4	288.400	-0.040	-0.120	0.350
2020/01/31 12:11:23.5	288.400	-0.020	-0.150	0.380
2020/01/31 12:11:23.6	288.400	-0.000	-0.170	0.420
2020/01/31 12:11:23.7	288.400	0.020	-0.190	0.450
2020/01/31 12:11:23.8	288.410	0.040	-0.220	0.480
2020/01/31 12:11:23.9	288.410	0.060	-0.240	0.510
2020/01/31 12:11:24.0	288.410	0.080	-0.260	0.540
2020/01/31 12:11:24.1	288.420	0.100	-0.280	0.570
2020/01/31 12:11:24.2	288.420	0.120	-0.290	0.600
2020/01/31 12:11:24.3	288.430	0.130	-0.310	0.630
2020/01/31 12:11:24.4	288.430	0.150	-0.320	0.660
2020/01/31 12:11:24.5	288.440	0.160	-0.340	0.690
2020/01/31 12:11:24.6	288.460	0.180	-0.350	0.710
2020/01/31 12:11:24.7	288.460	0.190	-0.350	0.740
2020/01/31 12:11:24.8	288.470	0.200	-0.360	0.760
2020/01/31 12:11:24.9	288.470	0.210	-0.360	0.790
2020/01/31 12:11:25.0	288.480	0.220	-0.370	0.810
2020/01/31 12:11:25.1	288.480	0.230	-0.370	0.830
2020/01/31 12:11:25.2	288.490	0.230	-0.360	0.850
2020/01/31 12:11:25.3	288.490	0.240	-0.360	0.860
2020/01/31 12:11:25.4	288.500	0.240	-0.350	0.880
2020/01/31 12:11:25.5	288.500	0.240	-0.340	0.890
2020/01/31 12:11:25.6	288.490	0.240	-0.330	0.910
2020/01/31 12:11:25.7	288.500	0.240	-0.310	0.920
2020/01/31 12:11:25.8	288.500	0.240	-0.300	0.920
2020/01/31 12:11:25.9	288.500	0.240	-0.280	0.930
2020/01/31 12:11:26.0	288.500	0.230	-0.270	0.940
2020/01/31 12:11:26.1	288.500	0.220	-0.250	0.940
2020/01/31 12:11:26.2	288.500	0.220	-0.230	0.940
2020/01/31 12:11:26.3	288.500	0.210	-0.210	0.940
2020/01/31 12:11:26.4	288.500	0.200	-0.190	0.940
2020/01/31 12:11:26.5	288.500	0.190	-0.170	0.940
2020/01/31 12:11:26.6	288.480	0.180	-0.160	0.930
2020/01/31 12:11:26.7	288.480	0.160	-0.140	0.920
2020/01/31 12:11:26.8	288.470	0.150	-0.120	0.920
2020/01/31 12:11:26.9	288.470	0.140	-0.110	0.910
2020/01/31 12:11:27.0	288.460	0.130	-0.100	0.900
2020/01/31 12:11:27.1	288.450	0.110	-0.090	0.890
2020/01/31 12:11:27.2	288.440	0.100	-0.080	0.880
2020/01/31 12:11:27.3	288.430	0.090	-0.070	0.860
2020/01/31 12:11:27.4	288.420	0.070	-0.070	0.850
2020/01/31 12:11:27.5	288.420	0.060	-0.070	0.830
2020/01/31 12:11:27.6	288.410	0.050	-0.070	0.820
2020/01/31 12:11:27.7	288.400	0.040	-0.070	0.800
2020/01/31 12:11:27.8	288.390	0.020	-0.080	0.780
2020/01/31 12:11:27.9	288.380	0.010	-0.090	0.770
2020/01/31 12:11:28.0	288.370	0.000	-0.110	0.750
2020/01/31 12:11:28.1	288.370	-0.010	-0.120	0.730
2020/01/31 12:11:28.2	288.360	-0.020	-0.140	0.700
2020/01/31 12:11:28.3	288.350	-0.020	-0.160	0.680
2020/01/31 12:11:28.4	288.340	-0.030	-0.180	0.660
2020/01/31 12:11:28.5	288.340	-0.040	-0.210	0.640
2020/01/31 12:11:28.6	288.340	-0.040	-0.240	0.610
2020/01/31 12:11:28.7	288.330	-0.050	-0.270	0.590
2020/01/31 12:11:28.8	288.330	-0.050	-0.300	0.570
2020/01/31 12:11:28.9	288.320	-0.050	-0.330	0.540
2020/01/31 12:11:29.0	288.320	-0.060	-0.370	0.520
2020/01/31 12:11:29.1	288.320	-0.060	-0.400	0.500
2020/01/31 12:11:29.2	288.310	-0.060	-0.430	0.470
2020/01/31 12:11:29.3	288.310	-0.060	-0.470	0.450
2020/01/31 12:11:29.4	288.310	-0.060	-0.500	0.430
2020/01/31 12:11:29.5	288.300	-0.070	-0.530	0.400
2020/01/31 12:11:29.6	288.300	-0.070	-0.570	0.380
2020/01/31 12:11:29.7	288.300	-0.070	-0.600	0.360
2020/01/31 12:11:29.8	288.290	-0.070	-0.620	0.340
2020/01/31 12:11:29.9	288.290	-0.070	-0.650	0.320
2020/01/31 12:11:30.0	288.280	-0.070	-0.670	0.300
2020/01/31 12:11:30.1	288.280	-0.070	-0.690	0.290
2020/01/31 12:11:30.2	288.270	-0.070	-0.710	0.270
2020/01/31 12:11:30.3	288.260	-0.070	-0.730	0.260
2020/01/31 12:11:30.4	288.260	-0.080	-0.740	0.240
2020/01/31 12:11:30.5	288.250	-0.080	-0.740	0.230
2020/01/31 12:11:30.6	288.250	-0.080	-0.750	0.220
2020/01/31 12:11:30.7	288.240	-0.080	-0.750	0.210
2020/01/31 12:11:30.8	288.230	-0.090	-0.740	0.190
2020/01/31 12:11:30.9	288.220	-0.090	-0.740	0.190
2020/01/31 12:11:31.0	288.210	-0.100	-0.730	0.180
2020/01/31 12:11:31.1	288.210	-0.100	-0.720	0.170
2020/01/31 12:11:31.2	288.200	-0.110	-0.710	0.160
2020/01/31 12:11:31.3	288.190	-0.110	-0.690	0.150
2020/01/31 12:11:31.4	288.180	-0.120	-0.670	0.150
2020/01/31 12:11:31.5	288.170	-0.130	-0.650	0.140
2020/01/31 12:11:31.6	288.170	-0.130	-0.630	0.140
2020/01/31 12:11:31.7	288.160	-0.140	-0.600	0.140
2020/01/31 12:11:31.8	288.160	-0.150	-0.580	0.140
2020/01/31 12:11:31.9	288.150	-0.150	-0.550	0.140
2020/01/31 12:11:32.0	288.140	-0.160	-0.520	0.140
2020/01/31 12:11:32.1	288.140	-0.160	-0.500	0.140
2020/01/31 12:11:32.2	288.140	-0.170	-0.470	0.140
2020/01/31 12:11:32.3	288.130	-0.170	-0.440	0.140
2020/01/31 12:11:32.4	288.130	-0.180	-0.410	0.150
2020/01/31 12:11:32.5	288.130	-0.180	-0.390	0.150
2020/01/31 12:11:32.6	288.120	-0.180	-0.360	0.160
2020/01/31 12:11:32.7	288.120	-0.180	-0.330	0.160
2020/01/31 12:11:32.8	288.130	-0.180	-0.310	0.170
2020/01/31 12:11:32.9	288.130	-0.180	-0.280	0.170
2020/01/31 12:11:33.0	288.130	-0.180	-0.260	0.180
2020/01/31 12:11:33.1	288.140	-0.180	-0.230	0.190
2020/01/31 12:11:33.2	288.140	-0.170	-0.210	0.200
2020/01/31 12:11:33.3	288.150	-0.170	-0.190	0.210
2020/01/31 12:11:33.4	288.150	-0.160	-0.170	0.210
2020/01/31 12:11:33.5	288.160	-0.150	-0.150	0.220
2020/01/31 12:11:33.6	288.170	-0.140	-0.130	0.230
2020/01/31 12:11:33.7	288.180	-0.140	-0.110	0.240
2020/01/31 12:11:33.8	288.190	-0.120	-0.100	0.250
2020/01/31 12:11:33.9	288.200	-0.110	-0.080	0.270
2020/01/31 12:11:34.0	288.210	-0.100	-0.060	0.280
2020/01/31 12:11:34.1	288.220	-0.090	-0.050	0.290
2020/01/31 12:11:34.2	288.230	-0.070	-0.030	0.310
2020/01/31 12:11:34.3	288.240	-0.060	-0.020	0.330
2020/01/31 12:11:34.4	288.250	-0.040	-0.000	0.350
2020/01/31 12:11:34.5	288.260	-0.030	0.010	0.370
2020/01/31 12:11:34.6	288.270	-0.010	0.030	0.390
2020/01/31 12:11:34.7	288.280	0.000	0.050	0.410
2020/01/31 12:11:34.8	288.290	0.020	0.060	0.430
2020/01/31 12:11:34.9	288.300	0.030	0.070	0.450
2020/01/31 12:11:35.0	288.310	0.050	0.090	0.470
2020/01/31 12:11:35.1	288.320	0.060	0.100	0.500
2020/01/31 12:11:35.2	288.340	0.080	0.110	0.520
2020/01/31 12:11:35.3	288.350	0.090	0.130	0.540
2020/01/31 12:11:35.4	288.360	0.110	0.140	0.570
2020/01/31 12:11:35.5	288.370	0.120	0.150	0.590
2020/01/31 12:11:35.6	288.380	0.130	0.160	0.620
2020/01/31 12:11:35.7	288.390	0.140	0.170	0.640
2020/01/31 12:11:35.8	288.400	0.160	0.180	0.670
2020/01/31 12:11:35.9	288.410	0.170	0.190	0.690
2020/01/31 12:11:36.0	288.420	0.180	0.200	0.710
2020/01/31 12:11:36.1	288.430	0.180	0.200	0.730
2020/01/31 12:11:36.2	288.440	0.190	0.210	0.760
2020/01/31 12:11:36.3	288.460	0.200	0.210	0.780
2020/01/31 12:11:36.4	288.470	0.210	0.220	0.800
2020/01/31 12:11:36.5	288.480	0.210	0.220	0.820
2020/01/31 12:11:36.6	288.500	0.220	0.220	0.830
2020/01/31 12:11:36.7	288.510	0.220	0.220	0.850
2020/01/31 12:11:36.8	288.520	0.220	0.210	0.860
2020/01/31 12:11:36.9	288.520	0.220	0.210	0.880
2020/01/31 12:11:37.0	288.530	0.230	0.200	0.890
2020/01/31 12:11:37.1	288.540	0.230	0.190	0.900
2020/01/31 12:11:37.2	288.540	0.230	0.180	0.910
2020/01/31 12:11:37.3	288.550	0.230	0.160	0.920
2020/01/31 12:11:37.4	288.550	0.220	0.150	0.930
2020/01/31 12:11:37.5	288.550	0.220	0.130	0.940
2020/01/31 12:11:37.6	288.560	0.220	0.110	0.950
2020/01/31 12:11:37.7	288.550	0.220	0.090	0.950
2020/01/31 12:11:37.8	288.550	0.210	0.070	0.960
2020/01/31 12:11:37.9	288.550	0.210	0.060	0.960
2020/01/31 12:11:38.0	288.540	0.200	0.030	0.970
2020/01/31 12:11:38.1	288.530	0.190	0.010	0.970
2020/01/31 12:11:38.2	288.530	0.190	-0.010	0.970
2020/01/31 12:11:38.3	288.520	0.180	-0.030	0.970
2020/01/31 12:11:38.4	288.500	0.170	-0.050	0.970
2020/01/31 12:11:38.5	288.490	0.160	-0.080	0.970
2020/01/31 12:11:38.6	288.480	0.150	-0.100	0.970
2020/01/31 12:11:38.7	288.470	0.140	-0.120	0.970
2020/01/31 12:11:38.8	288.450	0.130	-0.140	0.970
2020/01/31 12:11:38.9	288.430	0.120	-0.160	0.970
2020/01/31 12:11:39.0	288.420	0.110	-0.180	0.970
2020/01/31 12:11:39.1	288.400	0.100	-0.200	0.960
2020/01/31 12:11:39.2	288.380	0.080	-0.220	0.960
2020/01/31 12:11:39.3	288.360	0.070	-0.240	0.960
2020/01/31 12:11:39.4	288.340	0.060	-0.260	0.950
2020/01/31 12:11:39.5	288.310	0.040	-0.280	0.940
2020/01/31 12:11:39.6	288.300	0.030	-0.290	0.940
2020/01/31 12:11:39.7	288.280	0.010	-0.300	0.930
2020/01/31 12:11:39.8	288.260	-0.000	-0.320	0.920
2020/01/31 12:11:39.9	288.230	-0.020	-0.330	0.910
2020/01/31 12:11:40.0	288.210	-0.030	-0.340	0.900
2020/01/31 12:11:40.1	288.190	-0.050	-0.360	0.880
2020/01/31 12:11:40.2	288.170	-0.070	-0.370	0.870
2020/01/31 12:11:40.3	288.150	-0.080	-0.380	0.860
2020/01/31 12:11:40.4	288.140	-0.090	-0.390	0.840
2020/01/31 12:11:40.5	288.120	-0.110	-0.400	0.830
2020/01/31 12:11:40.6	288.100	-0.120	-0.410	0.810
2020/01/31 12:11:40.7	288.080	-0.140	-0.420	0.790
2020/01/31 12:11:40.8	288.060	-0.150	-0.430	0.770
2020/01/31 12:11:40.9	288.050	-0.160	-0.440	0.750
2020/01/31 12:11:41.0	288.040	-0.170	-0.450	0.730
2020/01/31 12:11:41.1	288.030	-0.180	-0.460	0.710
2020/01/31 12:11:41.2	288.020	-0.190	-0.470	0.680
2020/01/31 12:11:41.3	288.000	-0.190	-0.490	0.660
2020/01/31 12:11:41.4	287.990	-0.200	-0.500	0.630
2020/01/31 12:11:41.5	287.990	-0.200	-0.520	0.600
2020/01/31 12:11:41.6	287.970	-0.210	-0.530	0.570
2020/01/31 12:11:41.7	287.960	-0.210	-0.550	0.540
2020/01/31 12:11:41.8	287.950	-0.210	-0.570	0.510
2020/01/31 12:11:41.9	287.940	-0.210	-0.590	0.490
2020/01/31 12:11:42.0	287.940	-0.210	-0.620	0.460
2020/01/31 12:11:42.1	287.930	-0.200	-0.640	0.430
2020/01/31 12:11:42.2	287.920	-0.200	-0.660	0.400
2020/01/31 12:11:42.3	287.910	-0.190	-0.690	0.370
2020/01/31 12:11:42.4	287.910	-0.190	-0.710	0.340
2020/01/31 12:11:42.5	287.900	-0.180	-0.740	0.310
2020/01/31 12:11:42.6	287.890	-0.170	-0.760	0.280
2020/01/31 12:11:42.7	287.890	-0.160	-0.790	0.260
2020/01/31 12:11:42.8	287.880	-0.150	-0.820	0.230
2020/01/31 12:11:42.9	287.870	-0.140	-0.840	0.200
2020/01/31 12:11:43.0	287.870	-0.130	-0.860	0.170
2020/01/31 12:11:43.1	287.860	-0.120	-0.890	0.150
2020/01/31 12:11:43.2	287.850	-0.110	-0.910	0.120
2020/01/31 12:11:43.3	287.850	-0.100	-0.920	0.100
2020/01/31 12:11:43.4	287.840	-0.090	-0.940	0.070
2020/01/31 12:11:43.5	287.840	-0.080	-0.950	0.050
2020/01/31 12:11:43.6	287.820	-0.070	-0.960	0.030
2020/01/31 12:11:43.7	287.810	-0.060	-0.970	0.010
2020/01/31 12:11:43.8	287.810	-0.050	-0.970	-0.010
2020/01/31 12:11:43.9	287.810	-0.050	-0.970	-0.030
2020/01/31 12:11:44.0	287.810	-0.040	-0.970	-0.040
2020/01/31 12:11:44.1	287.810	-0.030	-0.970	-0.060
2020/01/31 12:11:44.2	287.810	-0.030	-0.960	-0.070
2020/01/31 12:11:44.3	287.810	-0.030	-0.940	-0.080
2020/01/31 12:11:44.4	287.810	-0.030	-0.930	-0.090
2020/01/31 12:11:44.5	287.810	-0.030	-0.910	-0.100
2020/01/31 12:11:44.6	287.830	-0.030	-0.880	-0.100
2020/01/31 12:11:44.7	287.840	-0.030	-0.860	-0.100
2020/01/31 12:11:44.8	287.840	-0.030	-0.830	-0.100
2020/01/31 12:11:44.9	287.850	-0.040	-0.790	-0.100
2020/01/31 12:11:45.0	287.860	-0.040	-0.760	-0.100
2020/01/31 12:11:45.1	287.870	-0.050	-0.710	-0.090
2020/01/31 12:11:45.2	287.880	-0.060	-0.670	-0.080
2020/01/31 12:11:45.3	287.890	-0.070	-0.620	-0.070
2020/01/31 12:11:45.4	287.900	-0.080	-0.580	-0.050
2020/01/31 12:11:45.5	287.910	-0.090	-0.530	-0.030
2020/01/31 12:11:45.6	287.920	-0.100	-0.470	-0.010
2020/01/31 12:11:45.7	287.930	-0.110	-0.410	0.010
2020/01/31 12:11:45.8	287.950	-0.120	-0.360	0.040
2020/01/31 12:11:45.9	287.960	-0.130	-0.300	0.060
2020/01/31 12:11:46.0	287.980	-0.150	-0.240	0.090
2020/01/31 12:11:46.1	287.990	-0.160	-0.190	0.120
2020/01/31 12:11:46.2	288.010	-0.170	-0.130	0.150
2020/01/31 12:11:46.3	288.030	-0.190	-0.070	0.180
2020/01/31 12:11:46.4	288.050	-0.200	-0.020	0.210
2020/01/31 12:11:46.5	288.060	-0.210	0.040	0.250
2020/01/31 12:11:46.6	288.080	-0.220	0.090	0.280
2020/01/31 12:11:46.7	288.100	-0.230	0.150	0.320
2020/01/31 12:11:46.8	288.120	-0.250	0.200	0.350
2020/01/31 12:11:46.9	288.140	-0.260	0.240	0.380
2020/01/31 12:11:47.0	288.160	-0.260	0.290	0.420
2020/01/31 12:11:47.1	288.180	-0.270	0.330	0.450
2020/01/31 12:11:47.2	288.200	-0.280	0.370	0.480
2020/01/31 12:11:47.3	288.210	-0.290	0.410	0.520
2020/01/31 12:11:47.4	288.230	-0.290	0.440	0.550
2020/01/31 12:11:47.5	288.250	-0.290	0.480	0.580
2020/01/31 12:11:47.6	288.280	-0.290	0.500	0.610
2020/01/31 12:11:47.7	288.300	-0.290	0.530	0.640
2020/01/31 12:11:47.8	288.310	-0.290	0.550	0.670
2020/01/31 12:11:47.9	288.330	-0.290	0.570	0.690
2020/01/31 12:11:48.0	288.340	-0.280	0.580	0.720
2020/01/31 12:11:48.1	288.360	-0.280	0.590	0.750
2020/01/31 12:11:48.2	288.370	-0.270	0.600	0.770
2020/01/31 12:11:48.3	288.380	-0.260	0.610	0.800
2020/01/31 12:11:48.4	288.390	-0.250	0.610	0.820
2020/01/31 12:11:48.5	288.390	-0.240	0.610	0.840
2020/01/31 12:11:48.6	288.410	-0.220	0.600	0.870
2020/01/31 12:11:48.7	288.410	-0.210	0.600	0.890
2020/01/31 12:11:48.8	288.420	-0.190	0.590	0.910
2020/01/31 12:11:48.9	288.420	-0.180	0.580	0.930
2020/01/31 12:11:49.0	288.420	-0.160	0.570	0.950
2020/01/31 12:11:49.1	288.410	-0.140	0.550	0.960
2020/01/31 12:11:49.2	288.410	-0.120	0.540	0.980
2020/01/31 12:11:49.3	288.400	-0.100	0.520	0.990
2020/01/31 12:11:49.4	288.390	-0.080	0.500	1.010
2020/01/31 12:11:49.5	288.390	-0.060	0.470	1.020
2020/01/31 12:11:49.6	288.370	-0.040	0.450	1.030
2020/01/31 12:11:49.7	288.350	-0.020	0.430	1.040
2020/01/31 12:11:49.8	288.340	-0.000	0.400	1.050
2020/01/31 12:11:49.9	288.320	0.020	0.370	1.050
2020/01/31 12:11:50.0	288.300	0.040	0.350	1.060
2020/01/31 12:11:50.1	288.290	0.060	0.320	1.060
2020/01/31 12:11:50.2	288.260	0.080	0.290	1.070
2020/01/31 12:11:50.3	288.240	0.110	0.260	1.070
2020/01/31 12:11:50.4	288.220	0.130	0.230	1.070
2020/01/31 12:11:50.5	288.200	0.150	0.200	1.070
2020/01/31 12:11:50.6	288.180	0.170	0.170	1.060
2020/01/31 12:11:50.7	288.160	0.180	0.140	1.060
2020/01/31 12:11:50.8	288.130	0.200	0.110	1.050
2020/01/31 12:11:50.9	288.110	0.220	0.080	1.040
2020/01/31 12:11:51.0	288.080	0.240	0.050	1.030
2020/01/31 12:11:51.1	288.060	0.260	0.030	1.020
2020/01/31 12:11:51.2	288.030	0.270	-0.000	1.010
2020/01/31 12:11:51.3	288.000	0.290	-0.030	0.990
2020/01/31 12:11:51.4	287.980	0.300	-0.060	0.980
2020/01/31 12:11:51.5	287.950	0.320	-0.080	0.960
2020/01/31 12:11:51.6	287.930	0.330	-0.110	0.940
2020/01/31 12:11:51.7	287.910	0.340	-0.130	0.920
2020/01/31 12:11:51.8	287.880	0.360	-0.160	0.900
2020/01/31 12:11:51.9	287.860	0.370	-0.190	0.880
2020/01/31 12:11:52.0	287.840	0.380	-0.210	0.860
2020/01/31 12:11:52.1	287.820	0.390	-0.240	0.830
2020/01/31 12:11:52.2	287.800	0.400	-0.260	0.810
2020/01/31 12:11:52.3	287.790	0.410	-0.290	0.780
2020/01/31 12:11:52.4	287.770	0.420	-0.310	0.760
2020/01/31 12:11:52.5	287.760	0.430	-0.340	0.730
2020/01/31 12:11:52.6	287.740	0.440	-0.360	0.700
2020/01/31 12:11:52.7	287.730	0.440	-0.390	0.670
2020/01/31 12:11:52.8	287.720	0.450	-0.420	0.640
2020/01/31 12:11:52.9	287.710	0.450	-0.440	0.610
2020/01/31 12:11:53.0	287.700	0.460	-0.470	0.580
2020/01/31 12:11:53.1	287.690	0.460	-0.500	0.550
2020/01/31 12:11:53.2	287.690	0.460	-0.530	0.520
2020/01/31 12:11:53.3	287.680	0.460	-0.560	0.490
2020/01/31 12:11:53.4	287.670	0.460	-0.580	0.460
2020/01/31 12:11:53.5	287.670	0.460	-0.610	0.430
2020/01/31 12:11:53.6	287.650	0.460	-0.640	0.400
2020/01/31 12:11:53.7	287.650	0.460	-0.670	0.370
2020/01/31 12:11:53.8	287.640	0.450	-0.700	0.340
2020/01/31 12:11:53.9	287.640	0.450	-0.720	0.310
2020/01/31 12:11:54.0	287.630	0.440	-0.750	0.290
2020/01/31 12:11:54.1	287.630	0.430	-0.780	0.260
2020/01/31 12:11:54.2	287.620	0.420	-0.800	0.240
2020/01/31 12:11:54.3	287.620	0.410	-0.830	0.220
2020/01/31 12:11:54.4	287.610	0.400	-0.860	0.200
2020/01/31 12:11:54.5	287.610	0.380	-0.880	0.180
2020/01/31 12:11:54.6	287.600	0.370	-0.900	0.160
2020/01/31 12:11:54.7	287.590	0.350	-0.930	0.150
2020/01/31 12:11:54.8	287.590	0.330	-0.950	0.140
2020/01/31 12:11:54.9	287.580	0.320	-0.970	0.120
2020/01/31 12:11:55.0	287.580	0.300	-0.990	0.110
2020/01/31 12:11:55.1	287.580	0.280	-1.010	0.110
2020/01/31 12:11:55.2	287.580	0.250	-1.030	0.100
2020/01/31 12:11:55.3	287.570	0.230	-1.040	0.100
2020/01/31 12:11:55.4	287.570	0.210	-1.060	0.090
2020/01/31 12:11:55.5	287.570	0.180	-1.070	0.090
2020/01/31 12:11:55.6	287.560	0.160	-1.080	0.090
2020/01/31 12:11:55.7	287.560	0.130	-1.080	0.090
2020/01/31 12:11:55.8	287.560	0.110	-1.090	0.100
2020/01/31 12:11:55.9	287.560	0.080	-1.090	0.100
2020/01/31 12:11:56.0	287.560	0.050	-1.090	0.110
2020/01/31 12:11:56.1	287.560	0.030	-1.090	0.120
2020/01/31 12:11:56.2	287.560	-0.000	-1.080	0.130
2020/01/31 12:11:56.3	287.560	-0.030	-1.070	0.150
2020/01/31 12:11:56.4	287.560	-0.060	-1.060	0.170
2020/01/31 12:11:56.5	287.560	-0.090	-1.050	0.190
2020/01/31 12:11:56.6	287.570	-0.120	-1.030	0.210
2020/01/31 12:11:56.7	287.570	-0.150	-1.010	0.230
2020/01/31 12:11:56.8	287.570	-0.180	-0.980	0.260
2020/01/31 12:11:56.9	287.570	-0.210	-0.960	0.280
2020/01/31 12:11:57.0	287.570	-0.240	-0.930	0.310
2020/01/31 12:11:57.1	287.560	-0.270	-0.890	0.340
2020/01/31 12:11:57.2	287.560	-0.300	-0.860	0.370
2020/01/31 12:11:57.3	287.560	-0.320	-0.820	0.400
2020/01/31 12:11:57.4	287.560	-0.350	-0.780	0.430
2020/01/31 12:11:57.5	287.560	-0.380	-0.740	0.460
2020/01/31 12:11:57.6	287.560	-0.410	-0.690	0.500
2020/01/31 12:11:57.7	287.560	-0.430	-0.650	0.530
2020/01/31 12:11:57.8	287.560	-0.460	-0.600	0.560
2020/01/31 12:11:57.9	287.560	-0.480	-0.550	0.590
2020/01/31 12:11:58.0	287.560	-0.500	-0.510	0.620
2020/01/31 12:11:58.1	287.560	-0.520	-0.460	0.650
2020/01/31 12:11:58.2	287.560	-0.540	-0.410	0.680
2020/01/31 12:11:58.3	287.570	-0.560	-0.360	0.700
2020/01/31 12:11:58.4	287.570	-0.570	-0.310	0.730
2020/01/31 12:11:58.5	287.580	-0.590	-0.260	0.760
2020/01/31 12:11:58.6	287.580	-0.600	-0.210	0.780
2020/01/31 12:11:58.7	287.590	-0.610	-0.160	0.800
2020/01/31 12:11:58.8	287.600	-0.610	-0.110	0.820
2020/01/31 12:11:58.9	287.600	-0.620	-0.070	0.840
2020/01/31 12:11:59.0	287.610	-0.620	-0.020	0.860
2020/01/31 12:11:59.1	287.620	-0.620	0.020	0.880
2020/01/31 12:11:59.2	287.630	-0.610	0.060	0.900
2020/01/31 12:11:59.3	287.630	-0.610	0.110	0.920
2020/01/31 12:11:59.4	287.640	-0.600	0.150	0.930
2020/01/31 12:11:59.5	287.650	-0.590	0.190	0.940
2020/01/31 12:11:59.6	287.650	-0.580	0.220	0.960
2020/01/31 12:11:59.7	287.660	-0.560	0.260	0.970
2020/01/31 12:11:59.8	287.670	-0.540	0.290	0.970
2020/01/31 12:11:59.9	287.680	-0.520	0.330	0.980
2020/01/31 12:12:00.0	287.690	-0.500	0.360	0.980
2020/01/31 12:12:00.1	287.700	-0.480	0.390	0.990
2020/01/31 12:12:00.2	287.710	-0.450	0.420	0.990
2020/01/31 12:12:00.3	287.720	-0.430	0.440	0.980
2020/01/31 12:12:00.4	287.730	-0.400	0.470	0.980
2020/01/31 12:12:00.5	287.740	-0.370	0.490	0.970
2020/01/31 12:12:00.6	287.750	-0.340	0.510	0.960
2020/01/31 12:12:00.7	287.760	-0.310	0.530	0.950
2020/01/31 12:12:00.8	287.770	-0.280	0.550	0.940
2020/01/31 12:12:00.9	287.780	-0.250	0.560	0.930
2020/01/31 12:12:01.0	287.790	-0.220	0.580	0.910
2020/01/31 12:12:01.1	287.800	-0.180	0.590	0.900
2020/01/31 12:12:01.2	287.810	-0.150	0.600	0.880
2020/01/31 12:12:01.3	287.820	-0.120	0.600	0.870
2020/01/31 12:12:01.4	287.830	-0.090	0.600	0.850
2020/01/31 12:12:01.5	287.830	-0.060	0.600	0.830
2020/01/31 12:12:01.6	287.850	-0.040	0.600	0.810
2020/01/31 12:12:01.7	287.850	-0.010	0.600	0.800
2020/01/31 12:12:01.8	287.860	0.010	0.590	0.780
2020/01/31 12:12:01.9	287.860	0.040	0.580	0.760
2020/01/31 12:12:02.0	287.860	0.060	0.570	0.750
2020/01/31 12:12:02.1	287.860	0.080	0.560	0.730
2020/01/31 12:12:02.2	287.860	0.100	0.540	0.710
2020/01/31 12:12:02.3	287.860	0.120	0.520	0.700
2020/01/31 12:12:02.4	287.860	0.130	0.500	0.680
2020/01/31 12:12:02.5	287.850	0.150	0.480	0.670
2020/01/31 12:12:02.6	287.850	0.160	0.460	0.650
2020/01/31 12:12:02.7	287.840	0.170	0.430	0.640
2020/01/31 12:12:02.8	287.830	0.180	0.400	0.620
2020/01/31 12:12:02.9	287.830	0.190	0.370	0.610
2020/01/31 12:12:03.0	287.820	0.190	0.340	0.600
2020/01/31 12:12:03.1	287.810	0.200	0.310	0.580
2020/01/31 12:12:03.2	287.790	0.200	0.270	0.570
2020/01/31 12:12:03.3	287.780	0.200	0.230	0.560
2020/01/31 12:12:03.4	287.770	0.200	0.200	0.550
2020/01/31 12:12:03.5	287.750	0.200	0.160	0.540
2020/01/31 12:12:03.6	287.730	0.200	0.120	0.530
2020/01/31 12:12:03.7	287.710	0.200	0.080	0.520
2020/01/31 12:12:03.8	287.690	0.200	0.040	0.520
2020/01/31 12:12:03.9	287.670	0.190	-0.000	0.510
2020/01/31 12:12:04.0	287.650	0.190	-0.040	0.510
2020/01/31 12:12:04.1	287.630	0.180	-0.080	0.510
2020/01/31 12:12:04.2	287.610	0.180	-0.120	0.510
2020/01/31 12:12:04.3	287.590	0.170	-0.170	0.510
2020/01/31 12:12:04.4	287.570	0.160	-0.210	0.510
2020/01/31 12:12:04.5	287.540	0.160	-0.250	0.520
2020/01/31 12:12:04.6	287.520	0.150	-0.290	0.520
2020/01/31 12:12:04.7	287.500	0.150	-0.330	0.530
2020/01/31 12:12:04.8	287.470	0.140	-0.370	0.530
2020/01/31 12:12:04.9	287.450	0.140	-0.410	0.540
2020/01/31 12:12:05.0	287.420	0.130	-0.450	0.550
2020/01/31 12:12:05.1	287.400	0.130	-0.490	0.550
2020/01/31 12:12:05.2	287.380	0.130	-0.530	0.560
2020/01/31 12:12:05.3	287.350	0.130	-0.570	0.570
2020/01/31 12:12:05.4	287.330	0.130	-0.610	0.580
2020/01/31 12:12:05.5	287.310	0.130	-0.650	0.580
2020/01/31 12:12:05.6	287.290	0.130	-0.680	0.590
2020/01/31 12:12:05.7	287.270	0.130	-0.720	0.600
2020/01/31 12:12:05.8	287.250	0.140	-0.750	0.600
2020/01/31 12:12:05.9	287.230	0.140	-0.790	0.610
2020/01/31 12:12:06.0	287.210	0.150	-0.820	0.620
2020/01/31 12:12:06.1	287.190	0.160	-0.850	0.630
2020/01/31 12:12:06.2	287.170	0.160	-0.870	0.640
2020/01/31 12:12:06.3	287.150	0.170	-0.900	0.650
2020/01/31 12:12:06.4	287.140	0.180	-0.930	0.670
2020/01/31 12:12:06.5	287.120	0.190	-0.950	0.680
2020/01/31 12:12:06.6	287.100	0.200	-0.970	0.690
2020/01/31 12:12:06.7	287.090	0.210	-0.980	0.710
2020/01/31 12:12:06.8	287.070	0.220	-1.000	0.730
2020/01/31 12:12:06.9	287.060	0.240	-1.010	0.740
2020/01/31 12:12:07.0	287.040	0.250	-1.020	0.760
2020/01/31 12:12:07.1	287.030	0.260	-1.020	0.780
2020/01/31 12:12:07.2	287.010	0.270	-1.020	0.800
2020/01/31 12:12:07.3	287.000	0.280	-1.020	0.820
2020/01/31 12:12:07.4	286.980	0.290	-1.010	0.850
2020/01/31 12:12:07.5	286.970	0.300	-1.000	0.870
2020/01/31 12:12:07.6	286.970	0.300	-0.990	0.890
2020/01/31 12:12:07.7	286.960	0.310	-0.970	0.920
2020/01/31 12:12:07.8	286.940	0.320	-0.950	0.940
2020/01/31 12:12:07.9	286.930	0.320	-0.930	0.970
2020/01/31 12:12:08.0	286.920	0.330	-0.910	0.990
2020/01/31 12:12:08.1	286.910	0.330	-0.880	1.010
2020/01/31 12:12:08.2	286.900	0.330	-0.850	1.030
2020/01/31 12:12:08.3	286.890	0.330	-0.820	1.060
2020/01/31 12:12:08.4	286.880	0.330	-0.780	1.080
2020/01/31 12:12:08.5	286.870	0.320	-0.740	1.090
2020/01/31 12:12:08.6	286.870	0.320	-0.700	1.110
2020/01/31 12:12:08.7	286.860	0.310	-0.660	1.130
2020/01/31 12:12:08.8	286.860	0.300	-0.620	1.140
2020/01/31 12:12:08.9	286.850	0.290	-0.580	1.150
2020/01/31 12:12:09.0	286.850	0.280	-0.530	1.160
2020/01/31 12:12:09.1	286.840	0.270	-0.490	1.170
2020/01/31 12:12:09.2	286.840	0.250	-0.440	1.180
2020/01/31 12:12:09.3	286.840	0.240	-0.400	1.190
2020/01/31 12:12:09.4	286.840	0.220	-0.350	1.190
2020/01/31 12:12:09.5	286.840	0.200	-0.310	1.190
2020/01/31 12:12:09.6	286.830	0.190	-0.260	1.190
2020/01/31 12:12:09.7	286.840	0.170	-0.210	1.180
2020/01/31 12:12:09.8	286.840	0.150	-0.170	1.170
2020/01/31 12:12:09.9	286.840	0.120	-0.130	1.160
2020/01/31 12:12:10.0	286.850	0.100	-0.090	1.150
2020/01/31 12:12:10.1	286.860	0.080	-0.050	1.140
2020/01/31 12:12:10.2	286.860	0.060	-0.010	1.120
2020/01/31 12:12:10.3	286.870	0.030	0.030	1.100
2020/01/31 12:12:10.4	286.880	0.010	0.070	1.080
2020/01/31 12:12:10.5	286.890	-0.010	0.110	1.060
2020/01/31 12:12:10.6	286.900	-0.030	0.140	1.030
2020/01/31 12:12:10.7	286.910	-0.060	0.170	1.000
2020/01/31 12:12:10.8	286.920	-0.080	0.200	0.970
2020/01/31 12:12:10.9	286.940	-0.100	0.230	0.940
2020/01/31 12:12:11.0	286.950	-0.120	0.260	0.900
2020/01/31 12:12:11.1	286.970	-0.150	0.280	0.870
2020/01/31 12:12:11.2	286.980	-0.170	0.300	0.830
2020/01/31 12:12:11.3	287.000	-0.190	0.320	0.790
2020/01/31 12:12:11.4	287.010	-0.200	0.340	0.760
2020/01/31 12:12:11.5	287.030	-0.220	0.350	0.720
2020/01/31 12:12:11.6	287.050	-0.240	0.360	0.670
2020/01/31 12:12:11.7	287.060	-0.250	0.360	0.630
2020/01/31 12:12:11.8	287.080	-0.270	0.370	0.590
2020/01/31 12:12:11.9	287.100	-0.280	0.360	0.550
2020/01/31 12:12:12.0	287.120	-0.290	0.360	0.520
2020/01/31 12:12:12.1	287.130	-0.300	0.350	0.480
2020/01/31 12:12:12.2	287.150	-0.310	0.340	0.440
2020/01/31 12:12:12.3	287.170	-0.320	0.320	0.400
2020/01/31 12:12:12.4	287.180	-0.330	0.300	0.370
2020/01/31 12:12:12.5	287.200	-0.330	0.280	0.330
2020/01/31 12:12:12.6	287.210	-0.330	0.240	0.300
2020/01/31 12:12:12.7	287.220	-0.340	0.210	0.270
2020/01/31 12:12:12.8	287.230	-0.340	0.180	0.240
2020/01/31 12:12:12.9	287.250	-0.340	0.140	0.210
2020/01/31 12:12:13.0	287.260	-0.340	0.110	0.190
2020/01/31 12:12:13.1	287.270	-0.330	0.070	0.160
2020/01/31 12:12:13.2	287.280	-0.330	0.020	0.140
2020/01/31 12:12:13.3	287.290	-0.320	-0.020	0.130
2020/01/31 12:12:13.4	287.290	-0.320	-0.070	0.110
2020/01/31 12:12:13.5	287.300	-0.310	-0.120	0.100
2020/01/31 12:12:13.6	287.310	-0.300	-0.170	0.080
2020/01/31 12:12:13.7	287.320	-0.290	-0.220	0.080
2020/01/31 12:12:13.8	287.320	-0.280	-0.270	0.070
2020/01/31 12:12:13.9	287.320	-0.270	-0.320	0.070
2020/01/31 12:12:14.0	287.320	-0.260	-0.370	0.080
2020/01/31 12:12:14.1	287.320	-0.250	-0.410	0.080
2020/01/31 12:12:14.2	287.320	-0.230	-0.460	0.090
2020/01/31 12:12:14.3	287.320	-0.220	-0.510	0.110
2020/01/31 12:12:14.4	287.310	-0.210	-0.550	0.120
2020/01/31 12:12:14.5	287.310	-0.200	-0.590	0.140
2020/01/31 12:12:14.6	287.300	-0.190	-0.630	0.160
2020/01/31 12:12:14.7	287.300	-0.170	-0.670	0.190
2020/01/31 12:12:14.8	287.290	-0.160	-0.700	0.220
2020/01/31 12:12:14.9	287.270	-0.150	-0.730	0.250
2020/01/31 12:12:15.0	287.260	-0.140	-0.760	0.280
2020/01/31 12:12:15.1	287.250	-0.130	-0.780	0.310
2020/01/31 12:12:15.2	287.240	-0.120	-0.800	0.350
2020/01/31 12:12:15.3	287.220	-0.110	-0.810	0.380
2020/01/31 12:12:15.4	287.200	-0.100	-0.820	0.420
2020/01/31 12:12:15.5	287.190	-0.090	-0.820	0.450
2020/01/31 12:12:15.6	287.180	-0.090	-0.820	0.490
2020/01/31 12:12:15.7	287.160	-0.080	-0.820	0.520
2020/01/31 12:12:15.8	287.140	-0.080	-0.810	0.560
2020/01/31 12:12:15.9	287.120	-0.070	-0.790	0.590
2020/01/31 12:12:16.0	287.100	-0.070	-0.780	0.630
2020/01/31 12:12:16.1	287.080	-0.060	-0.760	0.670
2020/01/31 12:12:16.2	287.060	-0.060	-0.730	0.700
2020/01/31 12:12:16.3	287.040	-0.060	-0.700	0.730
2020/01/31 12:12:16.4	287.020	-0.060	-0.670	0.760
2020/01/31 12:12:16.5	287.000	-0.050	-0.630	0.800
2020/01/31 12:12:16.6	286.970	-0.050	-0.590	0.830
2020/01/31 12:12:16.7	286.950	-0.050	-0.550	0.850
2020/01/31 12:12:16.8	286.930	-0.050	-0.510	0.880
2020/01/31 12:12:16.9	286.910	-0.050	-0.470	0.910
2020/01/31 12:12:17.0	286.890	-0.050	-0.420	0.930
2020/01/31 12:12:17.1	286.870	-0.050	-0.380	0.950
2020/01/31 12:12:17.2	286.850	-0.050	-0.330	0.970
2020/01/31 12:12:17.3	286.830	-0.050	-0.280	0.990
2020/01/31 12:12:17.4	286.810	-0.050	-0.230	1.010
2020/01/31 12:12:17.5	286.790	-0.040	-0.190	1.030
2020/01/31 12:12:17.6	286.770	-0.040	-0.140	1.050
2020/01/31 12:12:17.7	286.750	-0.040	-0.090	1.060
2020/01/31 12:12:17.8	286.730	-0.040	-0.050	1.070
2020/01/31 12:12:17.9	286.710	-0.040	-0.010	1.080
2020/01/31 12:12:18.0	286.690	-0.030	0.030	1.100
2020/01/31 12:12:18.1	286.670	-0.030	0.070	1.100
2020/01/31 12:12:18.2	286.650	-0.030	0.110	1.110
2020/01/31 12:12:18.3	286.630	-0.020	0.140	1.120
2020/01/31 12:12:18.4	286.610	-0.020	0.170	1.120
2020/01/31 12:12:18.5	286.590	-0.010	0.190	1.130
2020/01/31 12:12:18.6	286.570	-0.000	0.220	1.130
2020/01/31 12:12:18.7	286.550	0.000	0.240	1.130
2020/01/31 12:12:18.8	286.530	0.010	0.260	1.130
2020/01/31 12:12:18.9	286.510	0.020	0.270	1.130
2020/01/31 12:12:19.0	286.500	0.030	0.280	1.120
2020/01/31 12:12:19.1	286.480	0.040	0.290	1.120
2020/01/31 12:12:19.2	286.470	0.050	0.290	1.120
2020/01/31 12:12:19.3	286.460	0.060	0.290	1.110
2020/01/31 12:12:19.4	286.450	0.070	0.290	1.100
2020/01/31 12:12:19.5	286.440	0.080	0.280	1.090
2020/01/31 12:12:19.6	286.430	0.090	0.270	1.080
2020/01/31 12:12:19.7	286.430	0.110	0.250	1.060
2020/01/31 12:12:19.8	286.420	0.120	0.240	1.050
2020/01/31 12:12:19.9	286.420	0.140	0.220	1.040
2020/01/31 12:12:20.0	286.420	0.150	0.200	1.020
2020/01/31 12:12:20.1	286.420	0.170	0.170	1.010
2020/01/31 12:12:20.2	286.420	0.180	0.150	0.990
2020/01/31 12:12:20.3	286.420	0.200	0.120	0.970
2020/01/31 12:12:20.4	286.420	0.210	0.090	0.950
2020/01/31 12:12:20.5	286.430	0.230	0.060	0.940
2020/01/31 12:12:20.6	286.440	0.240	0.030	0.920
2020/01/31 12:12:20.7	286.440	0.250	-0.000	0.900
2020/01/31 12:12:20.8	286.450	0.270	-0.040	0.880
2020/01/31 12:12:20.9	286.450	0.280	-0.070	0.870
2020/01/31 12:12:21.0	286.460	0.290	-0.100	0.850
2020/01/31 12:12:21.1	286.470	0.310	-0.130	0.830
2020/01/31 12:12:21.2	286.480	0.320	-0.160	0.820
2020/01/31 12:12:21.3	286.480	0.330	-0.190	0.800
2020/01/31 12:12:21.4	286.490	0.340	-0.220	0.790
2020/01/31 12:12:21.5	286.500	0.350	-0.250	0.780
2020/01/31 12:12:21.6	286.510	0.350	-0.280	0.770
2020/01/31 12:12:21.7	286.520	0.360	-0.300	0.760
2020/01/31 12:12:21.8	286.520	0.370	-0.320	0.750
2020/01/31 12:12:21.9	286.530	0.370	-0.340	0.740
2020/01/31 12:12:22.0	286.540	0.370	-0.360	0.730
2020/01/31 12:12:22.1	286.540	0.370	-0.380	0.730
2020/01/31 12:12:22.2	286.550	0.380	-0.390	0.720
2020/01/31 12:12:22.3	286.550	0.370	-0.400	0.720
2020/01/31 12:12:22.4	286.560	0.370	-0.410	0.720
2020/01/31 12:12:22.5	286.560	0.370	-0.410	0.710
2020/01/31 12:12:22.6	286.570	0.360	-0.420	0.710
2020/01/31 12:12:22.7	286.570	0.360	-0.420	0.710
2020/01/31 12:12:22.8	286.570	0.350	-0.410	0.710
2020/01/31 12:12:22.9	286.570	0.340	-0.410	0.710
2020/01/31 12:12:23.0	286.570	0.330	-0.410	0.710
2020/01/31 12:12:23.1	286.570	0.320	-0.400	0.710
2020/01/31 12:12:23.2	286.570	0.310	-0.390	0.720
2020/01/31 12:12:23.3	286.570	0.290	-0.380	0.720
2020/01/31 12:12:23.4	286.570	0.280	-0.370	0.720
2020/01/31 12:12:23.5	286.570	0.260	-0.360	0.720
2020/01/31 12:12:23.6	286.580	0.240	-0.340	0.720
2020/01/31 12:12:23.7	286.570	0.230	-0.330	0.720
2020/01/31 12:12:23.8	286.570	0.210	-0.310	0.720
2020/01/31 12:12:23.9	286.570	0.190	-0.300	0.720
2020/01/31 12:12:24.0	286.570	0.160	-0.290	0.710
2020/01/31 12:12:24.1	286.570	0.140	-0.270	0.710
2020/01/31 12:12:24.2	286.570	0.120	-0.260	0.700
2020/01/31 12:12:24.3	286.560	0.100	-0.240	0.690
2020/01/31 12:12:24.4	286.560	0.070	-0.230	0.680
2020/01/31 12:12:24.5	286.560	0.050	-0.220	0.670
2020/01/31 12:12:24.6	286.560	0.030	-0.200	0.660
2020/01/31 12:12:24.7	286.560	0.000	-0.190	0.640
2020/01/31 12:12:24.8	286.560	-0.020	-0.180	0.630
2020/01/31 12:12:24.9	286.560	-0.040	-0.170	0.610
2020/01/31 12:12:25.0	286.560	-0.070	-0.160	0.590
2020/01/31 12:12:25.1	286.560	-0.090	-0.150	0.570
2020/01/31 12:12:25.2	286.560	-0.110	-0.150	0.550
2020/01/31 12:12:25.3	286.570	-0.130	-0.140	0.530
2020/01/31 12:12:25.4	286.570	-0.150	-0.140	0.500
2020/01/31 12:12:25.5	286.570	-0.170	-0.130	0.480
2020/01/31 12:12:25.6	286.570	-0.190	-0.140	0.460
2020/01/31 12:12:25.7	286.570	-0.200	-0.140	0.430
2020/01/31 12:12:25.8	286.580	-0.220	-0.140	0.410
2020/01/31 12:12:25.9	286.580	-0.230	-0.140	0.380
2020/01/31 12:12:26.0	286.590	-0.250	-0.150	0.360
2020/01/31 12:12:26.1	286.590	-0.260	-0.160	0.340
2020/01/31 12:12:26.2	286.590	-0.270	-0.170	0.310
2020/01/31 12:12:26.3	286.600	-0.270	-0.180	0.290
2020/01/31 12:12:26.4	286.600	-0.280	-0.200	0.270
2020/01/31 12:12:26.5	286.600	-0.290	-0.210	0.250
2020/01/31 12:12:26.6	286.600	-0.290	-0.230	0.230
2020/01/31 12:12:26.7	286.600	-0.290	-0.250	0.210
2020/01/31 12:12:26.8	286.600	-0.290	-0.270	0.190
2020/01/31 12:12:26.9	286.610	-0.290	-0.300	0.180
2020/01/31 12:12:27.0	286.610	-0.290	-0.330	0.170
2020/01/31 12:12:27.1	286.610	-0.280	-0.360	0.150
2020/01/31 12:12:27.2	286.620	-0.280	-0.390	0.140
2020/01/31 12:12:27.3	286.620	-0.270	-0.420	0.130
2020/01/31 12:12:27.4	286.620	-0.260	-0.450	0.130
2020/01/31 12:12:27.5	286.620	-0.250	-0.480	0.120
2020/01/31 12:12:27.6	286.640	-0.240	-0.510	0.120
2020/01/31 12:12:27.7	286.640	-0.230	-0.550	0.110
2020/01/31 12:12:27.8	286.640	-0.210	-0.580	0.110
2020/01/31 12:12:27.9	286.650	-0.200	-0.610	0.120
2020/01/31 12:12:28.0	286.650	-0.190	-0.640	0.120
2020/01/31 12:12:28.1	286.650	-0.170	-0.670	0.130
2020/01/31 12:12:28.2	286.650	-0.160	-0.690	0.140
2020/01/31 12:12:28.3	286.650	-0.140	-0.720	0.150
2020/01/31 12:12:28.4	286.660	-0.120	-0.750	0.170
2020/01/31 12:12:28.5	286.660	-0.110	-0.770	0.190
2020/01/31 12:12:28.6	286.670	-0.090	-0.790	0.210
2020/01/31 12:12:28.7	286.670	-0.070	-0.810	0.230
2020/01/31 12:12:28.8	286.670	-0.060	-0.820	0.250
2020/01/31 12:12:28.9	286.670	-0.040	-0.830	0.280
2020/01/31 12:12:29.0	286.670	-0.030	-0.840	0.310
2020/01/31 12:12:29.1	286.670	-0.010	-0.840	0.340
2020/01/31 12:12:29.2	286.660	0.000	-0.840	0.380
2020/01/31 12:12:29.3	286.660	0.020	-0.840	0.410
2020/01/31 12:12:29.4	286.650	0.030	-0.840	0.450
2020/01/31 12:12:29.5	286.650	0.040	-0.830	0.480
2020/01/31 12:12:29.6	286.640	0.050	-0.820	0.520
2020/01/31 12:12:29.7	286.630	0.060	-0.800	0.560
2020/01/31 12:12:29.8	286.620	0.070	-0.790	0.600
2020/01/31 12:12:29.9	286.620	0.070	-0.770	0.640
2020/01/31 12:12:30.0	286.600	0.080	-0.740	0.680
2020/01/31 12:12:30.1	286.590	0.080	-0.720	0.730
2020/01/31 12:12:30.2	286.580	0.080	-0.690	0.770
2020/01/31 12:12:30.3	286.570	0.080	-0.660	0.810
2020/01/31 12:12:30.4	286.560	0.080	-0.640	0.850
2020/01/31 12:12:30.5	286.540	0.070	-0.600	0.890
2020/01/31 12:12:30.6	286.540	0.070	-0.570	0.920
2020/01/31 12:12:30.7	286.520	0.060	-0.530	0.960
2020/01/31 12:12:30.8	286.510	0.050	-0.500	1.000
2020/01/31 12:12:30.9	286.490	0.040	-0.460	1.030
2020/01/31 12:12:31.0	286.480	0.030	-0.420	1.070
2020/01/31 12:12:31.1	286.460	0.010	-0.380	1.100
2020/01/31 12:12:31.2	286.440	-0.000	-0.340	1.140
2020/01/31 12:12:31.3	286.420	-0.020	-0.310	1.170
2020/01/31 12:12:31.4	286.410	-0.040	-0.270	1.200
2020/01/31 12:12:31.5	286.390	-0.060	-0.230	1.230
2020/01/31 12:12:31.6	286.370	-0.080	-0.190	1.260
2020/01/31 12:12:31.7	286.350	-0.100	-0.150	1.290
2020/01/31 12:12:31.8	286.330	-0.120	-0.110	1.320
2020/01/31 12:12:31.9	286.310	-0.140	-0.080	1.350
2020/01/31 12:12:32.0	286.290	-0.160	-0.040	1.370
2020/01/31 12:12:32.1	286.270	-0.180	-0.000	1.400
2020/01/31 12:12:32.2	286.250	-0.210	0.030	1.420
2020/01/31 12:12:32.3	286.230	-0.230	0.070	1.450
2020/01/31 12:12:32.4	286.210	-0.250	0.100	1.470
2020/01/31 12:12:32.5	286.190	-0.270	0.130	1.490
2020/01/31 12:12:32.6	286.160	-0.290	0.160	1.500
2020/01/31 12:12:32.7	286.150	-0.310	0.190	1.520
2020/01/31 12:12:32.8	286.130	-0.330	0.220	1.530
2020/01/31 12:12:32.9	286.110	-0.340	0.250	1.550
2020/01/31 12:12:33.0	286.090	-0.360	0.270	1.560
2020/01/31 12:12:33.1	286.080	-0.370	0.300	1.560
2020/01/31 12:12:33.2	286.060	-0.390	0.320	1.570
2020/01/31 12:12:33.3	286.050	-0.400	0.340	1.570
2020/01/31 12:12:33.4	286.040	-0.410	0.360	1.570
2020/01/31 12:12:33.5	286.030	-0.410	0.370	1.560
2020/01/31 12:12:33.6	286.020	-0.420	0.390	1.550
2020/01/31 12:12:33.7	286.000	-0.420	0.400	1.540
2020/01/31 12:12:33.8	285.990	-0.420	0.410	1.530
2020/01/31 12:12:33.9	285.980	-0.410	0.420	1.510
2020/01/31 12:12:34.0	285.970	-0.410	0.430	1.500
2020/01/31 12:12:34.1	285.970	-0.400	0.440	1.470
2020/01/31 12:12:34.2	285.960	-0.390	0.450	1.450
2020/01/31 12:12:34.3	285.950	-0.380	0.450	1.430
2020/01/31 12:12:34.4	285.950	-0.360	0.450	1.400
2020/01/31 12:12:34.5	285.940	-0.340	0.450	1.370
2020/01/31 12:12:34.6	285.940	-0.320	0.450	1.340
2020/01/31 12:12:34.7	285.940	-0.300	0.440	1.310
2020/01/31 12:12:34.8	285.940	-0.280	0.440	1.280
2020/01/31 12:12:34.9	285.940	-0.250	0.430	1.240
2020/01/31 12:12:35.0	285.940	-0.220	0.430	1.210
2020/01/31 12:12:35.1	285.940	-0.190	0.420	1.170
2020/01/31 12:12:35.2	285.940	-0.160	0.400	1.130
2020/01/31 12:12:35.3	285.940	-0.130	0.390	1.090
2020/01/31 12:12:35.4	285.950	-0.090	0.370	1.060
2020/01/31 12:12:35.5	285.950	-0.060	0.360	1.020
2020/01/31 12:12:35.6	285.960	-0.020	0.340	0.980
2020/01/31 12:12:35.7	285.960	0.020	0.320	0.940
2020/01/31 12:12:35.8	285.970	0.060	0.300	0.910
2020/01/31 12:12:35.9	285.970	0.100	0.280	0.870
2020/01/31 12:12:36.0	285.980	0.140	0.250	0.830
2020/01/31 12:12:36.1	285.980	0.170	0.230	0.800
2020/01/31 12:12:36.2	285.990	0.210	0.200	0.770
2020/01/31 12:12:36.3	285.990	0.250	0.170	0.730
2020/01/31 12:12:36.4	286.000	0.290	0.140	0.700
2020/01/31 12:12:36.5	286.000	0.330	0.110	0.670
2020/01/31 12:12:36.6	286.000	0.360	0.070	0.640
2020/01/31 12:12:36.7	286.010	0.400	0.040	0.620
2020/01/31 12:12:36.8	286.020	0.430	0.000	0.590
2020/01/31 12:12:36.9	286.020	0.470	-0.030	0.560
2020/01/31 12:12:37.0	286.030	0.500	-0.070	0.540
2020/01/31 12:12:37.1	286.030	0.530	-0.100	0.520
2020/01/31 12:12:37.2	286.040	0.550	-0.140	0.490
2020/01/31 12:12:37.3	286.050	0.580	-0.170	0.470
2020/01/31 12:12:37.4	286.050	0.600	-0.210	0.450
2020/01/31 12:12:37.5	286.060	0.620	-0.240	0.430
2020/01/31 12:12:37.6	286.070	0.640	-0.280	0.410
2020/01/31 12:12:37.7	286.080	0.660	-0.310	0.400
2020/01/31 12:12:37.8	286.080	0.680	-0.350	0.380
2020/01/31 12:12:37.9	286.090	0.690	-0.380	0.370
2020/01/31 12:12:38.0	286.100	0.700	-0.410	0.350
2020/01/31 12:12:38.1	286.110	0.700	-0.450	0.340
2020/01/31 12:12:38.2	286.120	0.710	-0.470	0.330
2020/01/31 12:12:38.3	286.130	0.710	-0.500	0.320
2020/01/31 12:12:38.4	286.140	0.710	-0.530	0.310
2020/01/31 12:12:38.5	286.150	0.710	-0.560	0.300
2020/01/31 12:12:38.6	286.170	0.700	-0.580	0.300
2020/01/31 12:12:38.7	286.180	0.700	-0.600	0.290
2020/01/31 12:12:38.8	286.200	0.690	-0.620	0.280
2020/01/31 12:12:38.9	286.210	0.670	-0.640	0.280
2020/01/31 12:12:39.0	286.230	0.660	-0.660	0.280
2020/01/31 12:12:39.1	286.240	0.640	-0.680	0.280
2020/01/31 12:12:39.2	286.260	0.620	-0.690	0.270
2020/01/31 12:12:39.3	286.270	0.600	-0.710	0.270
2020/01/31 12:12:39.4	286.290	0.580	-0.720	0.270
2020/01/31 12:12:39.5	286.310	0.550	-0.730	0.280
2020/01/31 12:12:39.6	286.330	0.520	-0.740	0.280
2020/01/31 12:12:39.7	286.350	0.490	-0.740	0.280
2020/01/31 12:12:39.8	286.370	0.460	-0.750	0.290
2020/01/31 12:12:39.9	286.400	0.430	-0.760	0.290
2020/01/31 12:12:40.0	286.420	0.400	-0.760	0.300
2020/01/31 12:12:40.1	286.450	0.360	-0.770	0.310
2020/01/31 12:12:40.2	286.470	0.330	-0.770	0.310
2020/01/31 12:12:40.3	286.500	0.290	-0.770	0.330
2020/01/31 12:12:40.4	286.530	0.260	-0.770	0.340
2020/01/31 12:12:40.5	286.540	0.220	-0.770	0.350
2020/01/31 12:12:40.6	286.570	0.190	-0.770	0.370
2020/01/31 12:12:40.7	286.600	0.150	-0.770	0.380
2020/01/31 12:12:40.8	286.630	0.110	-0.770	0.400
2020/01/31 12:12:40.9	286.660	0.080	-0.770	0.420
2020/01/31 12:12:41.0	286.690	0.040	-0.770	0.440
2020/01/31 12:12:41.1	286.720	0.010	-0.760	0.460
2020/01/31 12:12:41.2	286.750	-0.030	-0.760	0.480
2020/01/31 12:12:41.3	286.780	-0.060	-0.750	0.500
2020/01/31 12:12:41.4	286.810	-0.100	-0.750	0.530
2020/01/31 12:12:41.5	286.840	-0.130	-0.740	0.550
2020/01/31 12:12:41.6	286.880	-0.160	-0.730	0.570
2020/01/31 12:12:41.7	286.910	-0.190	-0.730	0.600
2020/01/31 12:12:41.8	286.940	-0.220	-0.720	0.620
2020/01/31 12:12:41.9	286.970	-0.240	-0.710	0.650
2020/01/31 12:12:42.0	287.000	-0.270	-0.710	0.670
2020/01/31 12:12:42.1	287.030	-0.300	-0.700	0.700
2020/01/31 12:12:42.2	287.060	-0.320	-0.690	0.730
2020/01/31 12:12:42.3	287.090	-0.340	-0.680	0.760
2020/01/31 12:12:42.4	287.120	-0.360	-0.680	0.790
2020/01/31 12:12:42.5	287.150	-0.380	-0.670	0.810
2020/01/31 12:12:42.6	287.170	-0.400	-0.660	0.840
2020/01/31 12:12:42.7	287.200	-0.410	-0.650	0.870
2020/01/31 12:12:42.8	287.230	-0.430	-0.640	0.910
2020/01/31 12:12:42.9	287.250	-0.440	-0.630	0.940
2020/01/31 12:12:43.0	287.280	-0.450	-0.620	0.970
2020/01/31 12:12:43.1	287.310	-0.460	-0.610	1.010
2020/01/31 12:12:43.2	287.330	-0.470	-0.600	1.050
2020/01/31 12:12:43.3	287.360	-0.480	-0.590	1.080
2020/01/31 12:12:43.4	287.380	-0.480	-0.580	1.120
2020/01/31 12:12:43.5	287.410	-0.490	-0.570	1.160
2020/01/31 12:12:43.6	287.440	-0.490	-0.550	1.210
2020/01/31 12:12:43.7	287.460	-0.490	-0.540	1.250
2020/01/31 12:12:43.8	287.480	-0.500	-0.520	1.290
2020/01/31 12:12:43.9	287.500	-0.500	-0.510	1.330
2020/01/31 12:12:44.0	287.520	-0.490	-0.490	1.380
2020/01/31 12:12:44.1	287.540	-0.490	-0.480	1.420
2020/01/31 12:12:44.2	287.560	-0.490	-0.460	1.460
2020/01/31 12:12:44.3	287.590	-0.480	-0.440	1.510
2020/01/31 12:12:44.4	287.610	-0.480	-0.420	1.550
2020/01/31 12:12:44.5	287.610	-0.470	-0.400	1.590
2020/01/31 12:12:44.6	287.630	-0.470	-0.380	1.640
2020/01/31 12:12:44.7	287.660	-0.460	-0.360	1.680
2020/01/31 12:12:44.8	287.680	-0.450	-0.340	1.730
2020/01/31 12:12:44.9	287.700	-0.440	-0.320	1.770
2020/01/31 12:12:45.0	287.730	-0.430	-0.300	1.810
2020/01/31 12:12:45.1	287.750	-0.420	-0.280	1.860
2020/01/31 12:12:45.2	287.780	-0.410	-0.250	1.900
2020/01/31 12:12:45.3	287.800	-0.390	-0.230	1.940
2020/01/31 12:12:45.4	287.830	-0.380	-0.200	1.970
2020/01/31 12:12:45.5	287.860	-0.370	-0.180	2.010
2020/01/31 12:12:45.6	287.890	-0.350	-0.150	2.050
2020/01/31 12:12:45.7	287.920	-0.340	-0.120	2.080
2020/01/31 12:12:45.8	287.950	-0.320	-0.090	2.110
2020/01/31 12:12:45.9	287.980	-0.310	-0.070	2.140
2020/01/31 12:12:46.0	288.010	-0.290	-0.040	2.170
2020/01/31 12:12:46.1	288.050	-0.270	-0.010	2.200
2020/01/31 12:12:46.2	288.080	-0.260	0.020	2.220
2020/01/31 12:12:46.3	288.120	-0.240	0.060	2.240
2020/01/31 12:12:46.4	288.160	-0.220	0.090	2.250
2020/01/31 12:12:46.5	288.200	-0.210	0.120	2.260
2020/01/31 12:12:46.6	288.250	-0.190	0.150	2.270
2020/01/31 12:12:46.7	288.300	-0.170	0.180	2.280
2020/01/31 12:12:46.8	288.350	-0.160	0.210	2.280
2020/01/31 12:12:46.9	288.400	-0.140	0.240	2.280
2020/01/31 12:12:47.0	288.450	-0.130	0.270	2.270
2020/01/31 12:12:47.1	288.510	-0.110	0.300	2.260
2020/01/31 12:12:47.2	288.560	-0.090	0.320	2.250
2020/01/31 12:12:47.3	288.620	-0.080	0.350	2.230
2020/01/31 12:12:47.4	288.690	-0.060	0.370	2.210
2020/01/31 12:12:47.5	288.770	-0.050	0.400	2.190
2020/01/31 12:12:47.6	288.830	-0.040	0.420	2.160
2020/01/31 12:12:47.7	288.900	-0.020	0.440	2.130
2020/01/31 12:12:47.8	288.970	-0.010	0.460	2.100
2020/01/31 12:12:47.9	289.040	0.000	0.480	2.060
2020/01/31 12:12:48.0	289.120	0.010	0.500	2.020
2020/01/31 12:12:48.1	289.200	0.020	0.510	1.980
2020/01/31 12:12:48.2	289.270	0.030	0.520	1.930
2020/01/31 12:12:48.3	289.350	0.040	0.530	1.880
2020/01/31 12:12:48.4	289.440	0.050	0.540	1.830
2020/01/31 12:12:48.5	289.520	0.060	0.550	1.770
2020/01/31 12:12:48.6	289.620	0.070	0.550	1.710
2020/01/31 12:12:48.7	289.710	0.070	0.550	1.640
2020/01/31 12:12:48.8	289.800	0.080	0.540	1.580
2020/01/31 12:12:48.9	289.890	0.080	0.540	1.510
2020/01/31 12:12:49.0	289.980	0.090	0.540	1.440
2020/01/31 12:12:49.1	290.080	0.090	0.530	1.370
2020/01/31 12:12:49.2	290.180	0.100	0.520	1.290
2020/01/31 12:12:49.3	290.280	0.100	0.500	1.220
2020/01/31 12:12:49.4	290.380	0.110	0.490	1.140
2020/01/31 12:12:49.5	290.480	0.110	0.470	1.060
2020/01/31 12:12:49.6	290.590	0.110	0.450	0.980
2020/01/31 12:12:49.7	290.690	0.110	0.420	0.900
2020/01/31 12:12:49.8	290.800	0.120	0.400	0.810
2020/01/31 12:12:49.9	290.920	0.120	0.370	0.730
2020/01/31 12:12:50.0	291.030	0.120	0.350	0.640
2020/01/31 12:12:50.1	291.150	0.120	0.320	0.550
2020/01/31 12:12:50.2	291.270	0.130	0.290	0.470
2020/01/31 12:12:50.3	291.390	0.130	0.250	0.380
2020/01/31 12:12:50.4	291.510	0.130	0.220	0.290
2020/01/31 12:12:50.5	291.640	0.130	0.180	0.210
2020/01/31 12:12:50.6	291.760	0.140	0.140	0.120
2020/01/31 12:12:50.7	291.890	0.140	0.110	0.040
2020/01/31 12:12:50.8	292.010	0.140	0.070	-0.050
2020/01/31 12:12:50.9	292.140	0.150	0.030	-0.130
2020/01/31 12:12:51.0	292.270	0.150	-0.010	-0.210
2020/01/31 12:12:51.1	292.400	0.150	-0.050	-0.280
2020/01/31 12:12:51.2	292.530	0.160	-0.100	-0.360
2020/01/31 12:12:51.3	292.660	0.160	-0.140	-0.430
2020/01/31 12:12:51.4	292.790	0.170	-0.180	-0.500
2020/01/31 12:12:51.5	292.920	0.180	-0.230	-0.570
2020/01/31 12:12:51.6	293.050	0.180	-0.270	-0.630
2020/01/31 12:12:51.7	293.180	0.190	-0.320	-0.690
2020/01/31 12:12:51.8	293.310	0.200	-0.360	-0.750
2020/01/31 12:12:51.9	293.440	0.200	-0.410	-0.800
2020/01/31 12:12:52.0	293.570	0.210	-0.450	-0.850
2020/01/31 12:12:52.1	293.700	0.220	-0.490	-0.890
2020/01/31 12:12:52.2	293.830	0.230	-0.530	-0.930
2020/01/31 12:12:52.3	293.960	0.240	-0.570	-0.960
2020/01/31 12:12:52.4	294.090	0.250	-0.610	-0.990
2020/01/31 12:12:52.5	294.220	0.250	-0.650	-1.020
2020/01/31 12:12:52.6	294.330	0.260	-0.690	-1.040
2020/01/31 12:12:52.7	294.460	0.270	-0.720	-1.060
2020/01/31 12:12:52.8	294.580	0.280	-0.760	-1.070
2020/01/31 12:12:52.9	294.710	0.280	-0.790	-1.080
2020/01/31 12:12:53.0	294.830	0.290	-0.820	-1.090
2020/01/31 12:12:53.1	294.960	0.300	-0.850	-1.090
2020/01/31 12:12:53.2	295.080	0.300	-0.880	-1.080
2020/01/31 12:12:53.3	295.200	0.310	-0.900	-1.080
2020/01/31 12:12:53.4	295.320	0.310	-0.920	-1.070
2020/01/31 12:12:53.5	295.440	0.320	-0.940	-1.060
2020/01/31 12:12:53.6	295.560	0.320	-0.960	-1.050
2020/01/31 12:12:53.7	295.670	0.320	-0.970	-1.030
2020/01/31 12:12:53.8	295.790	0.320	-0.990	-1.010
2020/01/31 12:12:53.9	295.910	0.320	-1.000	-0.990
2020/01/31 12:12:54.0	296.020	0.320	-1.000	-0.960
2020/01/31 12:12:54.1	296.140	0.310	-1.010	-0.940
2020/01/31 12:12:54.2	296.250	0.310	-1.010	-0.910
2020/01/31 12:12:54.3	296.360	0.310	-1.010	-0.880
2020/01/31 12:12:54.4	296.480	0.300	-1.010	-0.850
2020/01/31 12:12:54.5	296.600	0.290	-1.000	-0.820
2020/01/31 12:12:54.6	296.710	0.280	-1.000	-0.800
2020/01/31 12:12:54.7	296.820	0.280	-0.990	-0.760
2020/01/31 12:12:54.8	296.930	0.270	-0.980	-0.730
2020/01/31 12:12:54.9	297.050	0.250	-0.970	-0.700
2020/01/31 12:12:55.0	297.160	0.240	-0.950	-0.670
2020/01/31 12:12:55.1	297.270	0.230	-0.940	-0.640
2020/01/31 12:12:55.2	297.380	0.220	-0.920	-0.610
2020/01/31 12:12:55.3	297.500	0.200	-0.900	-0.580
2020/01/31 12:12:55.4	297.610	0.190	-0.880	-0.550
2020/01/31 12:12:55.5	297.720	0.170	-0.860	-0.530
2020/01/31 12:12:55.6	297.850	0.150	-0.840	-0.500
2020/01/31 12:12:55.7	297.970	0.140	-0.810	-0.470
2020/01/31 12:12:55.8	298.080	0.120	-0.790	-0.440
2020/01/31 12:12:55.9	298.190	0.100	-0.760	-0.420
2020/01/31 12:12:56.0	298.310	0.080	-0.740	-0.390
2020/01/31 12:12:56.1	298.420	0.060	-0.710	-0.370
2020/01/31 12:12:56.2	298.530	0.040	-0.680	-0.340
2020/01/31 12:12:56.3	298.640	0.020	-0.650	-0.320
2020/01/31 12:12:56.4	298.760	0.000	-0.620	-0.300
2020/01/31 12:12:56.5	298.870	-0.020	-0.590	-0.280
2020/01/31 12:12:56.6	298.990	-0.040	-0.550	-0.250
2020/01/31 12:12:56.7	299.100	-0.060	-0.520	-0.230
2020/01/31 12:12:56.8	299.210	-0.080	-0.490	-0.210
2020/01/31 12:12:56.9	299.320	-0.100	-0.460	-0.200
2020/01/31 12:12:57.0	299.430	-0.120	-0.430	-0.180
2020/01/31 12:12:57.1	299.540	-0.150	-0.390	-0.160
2020/01/31 12:12:57.2	299.650	-0.170	-0.360	-0.150
2020/01/31 12:12:57.3	299.760	-0.190	-0.330	-0.130
2020/01/31 12:12:57.4	299.870	-0.210	-0.300	-0.120
2020/01/31 12:12:57.5	299.970	-0.230	-0.270	-0.100
2020/01/31 12:12:57.6	300.080	-0.250	-0.240	-0.090
2020/01/31 12:12:57.7	300.180	-0.270	-0.210	-0.080
2020/01/31 12:12:57.8	300.290	-0.290	-0.180	-0.070
2020/01/31 12:12:57.9	300.390	-0.310	-0.160	-0.050
2020/01/31 12:12:58.0	300.500	-0.330	-0.130	-0.040
2020/01/31 12:12:58.1	300.610	-0.350	-0.110	-0.030
2020/01/31 12:12:58.2	300.710	-0.360	-0.080	-0.020
2020/01/31 12:12:58.3	300.820	-0.380	-0.060	-0.010
2020/01/31 12:12:58.4	300.930	-0.390	-0.030	-0.010
2020/01/31 12:12:58.5	301.030	-0.410	-0.010	0.000
2020/01/31 12:12:58.6	301.130	-0.420	0.010	0.010
2020/01/31 12:12:58.7	301.240	-0.430	0.030	0.010
2020/01/31 12:12:58.8	301.350	-0.450	0.050	0.020
2020/01/31 12:12:58.9	301.460	-0.460	0.070	0.020
2020/01/31 12:12:59.0	301.570	-0.470	0.080	0.020
2020/01/31 12:12:59.1	301.690	-0.470	0.100	0.020
2020/01/31 12:12:59.2	301.800	-0.480	0.120	0.020
2020/01/31 12:12:59.3	301.920	-0.490	0.140	0.020
2020/01/31 12:12:59.4	302.040	-0.490	0.150	0.020
2020/01/31 12:12:59.5	302.160	-0.500	0.170	0.010
2020/01/31 12:12:59.6	302.290	-0.500	0.190	0.010
2020/01/31 12:12:59.7	302.410	-0.500	0.210	0.000
2020/01/31 12:12:59.8	302.540	-0.500	0.230	-0.010
2020/01/31 12:12:59.9	302.660	-0.500	0.240	-0.020
2020/01/31 12:13:00.0	302.790	-0.500	0.260	-0.030
2020/01/31 12:13:00.1	302.920	-0.500	0.280	-0.040
2020/01/31 12:13:00.2	303.050	-0.490	0.300	-0.060
2020/01/31 12:13:00.3	303.190	-0.490	0.320	-0.070
2020/01/31 12:13:00.4	303.320	-0.480	0.340	-0.090
2020/01/31 12:13:00.5	303.450	-0.480	0.360	-0.110
2020/01/31 12:13:00.6	303.590	-0.470	0.380	-0.130
2020/01/31 12:13:00.7	303.730	-0.460	0.400	-0.160
2020/01/31 12:13:00.8	303.870	-0.450	0.420	-0.180
2020/01/31 12:13:00.9	304.010	-0.440	0.440	-0.210
2020/01/31 12:13:01.0	304.150	-0.430	0.460	-0.230
2020/01/31 12:13:01.1	304.300	-0.420	0.480	-0.260
2020/01/31 12:13:01.2	304.440	-0.410	0.500	-0.300
2020/01/31 12:13:01.3	304.590	-0.400	0.520	-0.330
2020/01/31 12:13:01.4	304.730	-0.380	0.530	-0.360
2020/01/31 12:13:01.5	304.870	-0.370	0.540	-0.400
2020/01/31 12:13:01.6	305.020	-0.350	0.550	-0.440
2020/01/31 12:13:01.7	305.170	-0.340	0.560	-0.480
2020/01/31 12:13:01.8	305.320	-0.320	0.560	-0.520
2020/01/31 12:13:01.9	305.480	-0.300	0.570	-0.560
2020/01/31 12:13:02.0	305.630	-0.280	0.570	-0.600
2020/01/31 12:13:02.1	305.790	-0.260	0.560	-0.640
2020/01/31 12:13:02.2	305.950	-0.240	0.560	-0.680
2020/01/31 12:13:02.3	306.110	-0.210	0.550	-0.720
2020/01/31 12:13:02.4	306.260	-0.190	0.540	-0.770
2020/01/31 12:13:02.5	306.420	-0.170	0.520	-0.810
2020/01/31 12:13:02.6	306.560	-0.140	0.510	-0.850
2020/01/31 12:13:02.7	306.720	-0.120	0.490	-0.900
2020/01/31 12:13:02.8	306.880	-0.090	0.460	-0.940
2020/01/31 12:13:02.9	307.040	-0.060	0.440	-0.980
2020/01/31 12:13:03.0	307.200	-0.040	0.420	-1.020
2020/01/31 12:13:03.1	307.360	-0.010	0.390	-1.060
2020/01/31 12:13:03.2	307.520	0.020	0.360	-1.100
2020/01/31 12:13:03.3	307.680	0.040	0.330	-1.130
2020/01/31 12:13:03.4	307.840	0.070	0.290	-1.170
2020/01/31 12:13:03.5	307.990	0.100	0.260	-1.200
2020/01/31 12:13:03.6	308.160	0.130	0.220	-1.230
2020/01/31 12:13:03.7	308.310	0.150	0.180	-1.260
2020/01/31 12:13:03.8	308.470	0.180	0.140	-1.290
2020/01/31 12:13:03.9	308.620	0.210	0.110	-1.310
2020/01/31 12:13:04.0	308.770	0.230	0.070	-1.340
2020/01/31 12:13:04.1	308.920	0.260	0.030	-1.360
2020/01/31 12:13:04.2	309.070	0.280	-0.010	-1.370
2020/01/31 12:13:04.3	309.210	0.300	-0.050	-1.390
2020/01/31 12:13:04.4	309.360	0.330	-0.090	-1.400
2020/01/31 12:13:04.5	309.510	0.350	-0.130	-1.410
2020/01/31 12:13:04.6	309.660	0.370	-0.170	-1.420
2020/01/31 12:13:04.7	309.800	0.390	-0.210	-1.430
2020/01/31 12:13:04.8	309.950	0.410	-0.250	-1.430
2020/01/31 12:13:04.9	310.090	0.420	-0.290	-1.430
2020/01/31 12:13:05.0	310.230	0.440	-0.320	-1.430
2020/01/31 12:13:05.1	310.380	0.450	-0.360	-1.420
2020/01/31 12:13:05.2	310.520	0.470	-0.390	-1.410
2020/01/31 12:13:05.3	310.660	0.480	-0.430	-1.410
2020/01/31 12:13:05.4	310.800	0.490	-0.460	-1.400
2020/01/31 12:13:05.5	310.940	0.490	-0.490	-1.390
2020/01/31 12:13:05.6	311.080	0.500	-0.520	-1.380
2020/01/31 12:13:05.7	311.220	0.500	-0.550	-1.360
2020/01/31 12:13:05.8	311.360	0.510	-0.570	-1.350
2020/01/31 12:13:05.9	311.500	0.510	-0.600	-1.330
2020/01/31 12:13:06.0	311.640	0.510	-0.630	-1.310
2020/01/31 12:13:06.1	311.780	0.500	-0.650	-1.300
2020/01/31 12:13:06.2	311.920	0.500	-0.670	-1.280
2020/01/31 12:13:06.3	312.060	0.490	-0.690	-1.270
2020/01/31 12:13:06.4	312.200	0.480	-0.720	-1.250
2020/01/31 12:13:06.5	312.340	0.470	-0.730	-1.240
2020/01/31 12:13:06.6	312.460	0.460	-0.750	-1.220
2020/01/31 12:13:06.7	312.610	0.450	-0.770	-1.200
2020/01/31 12:13:06.8	312.750	0.440	-0.790	-1.190
2020/01/31 12:13:06.9	312.890	0.420	-0.800	-1.180
2020/01/31 12:13:07.0	313.030	0.400	-0.820	-1.170
2020/01/31 12:13:07.1	313.180	0.380	-0.830	-1.160
2020/01/31 12:13:07.2	313.320	0.360	-0.840	-1.150
2020/01/31 12:13:07.3	313.470	0.340	-0.850	-1.150
2020/01/31 12:13:07.4	313.620	0.320	-0.860	-1.150
2020/01/31 12:13:07.5	313.770	0.290	-0.870	-1.140
2020/01/31 12:13:07.6	313.900	0.270	-0.880	-1.140
2020/01/31 12:13:07.7	314.050	0.240	-0.890	-1.150
2020/01/31 12:13:07.8	314.200	0.220	-0.890	-1.150
2020/01/31 12:13:07.9	314.350	0.190	-0.900	-1.150
2020/01/31 12:13:08.0	314.500	0.160	-0.900	-1.160
2020/01/31 12:13:08.1	314.660	0.140	-0.900	-1.170
2020/01/31 12:13:08.2	314.810	0.110	-0.890	-1.180
2020/01/31 12:13:08.3	314.970	0.080	-0.890	-1.190
2020/01/31 12:13:08.4	315.120	0.050	-0.880	-1.200
2020/01/31 12:13:08.5	315.270	0.020	-0.880	-1.210
2020/01/31 12:13:08.6	315.420	-0.010	-0.860	-1.220
2020/01/31 12:13:08.7	315.570	-0.040	-0.850	-1.240
2020/01/31 12:13:08.8	315.720	-0.070	-0.840	-1.250
2020/01/31 12:13:08.9	315.870	-0.100	-0.820	-1.260
2020/01/31 12:13:09.0	316.020	-0.120	-0.800	-1.280
2020/01/31 12:13:09.1	316.160	-0.150	-0.780	-1.290
2020/01/31 12:13:09.2	316.310	-0.180	-0.760	-1.310
2020/01/31 12:13:09.3	316.450	-0.210	-0.730	-1.320
2020/01/31 12:13:09.4	316.600	-0.230	-0.710	-1.330
2020/01/31 12:13:09.5	316.740	-0.260	-0.680	-1.340
2020/01/31 12:13:09.6	316.890	-0.280	-0.650	-1.350
2020/01/31 12:13:09.7	317.030	-0.300	-0.620	-1.370
2020/01/31 12:13:09.8	317.170	-0.320	-0.590	-1.380
2020/01/31 12:13:09.9	317.310	-0.340	-0.560	-1.390
2020/01/31 12:13:10.0	317.450	-0.360	-0.520	-1.400
2020/01/31 12:13:10.1	317.590	-0.380	-0.490	-1.400
2020/01/31 12:13:10.2	317.720	-0.390	-0.460	-1.410
2020/01/31 12:13:10.3	317.860	-0.410	-0.420	-1.420
2020/01/31 12:13:10.4	318.000	-0.420	-0.390	-1.430
2020/01/31 12:13:10.5	318.140	-0.430	-0.350	-1.430
2020/01/31 12:13:10.6	318.250	-0.440	-0.320	-1.440
2020/01/31 12:13:10.7	318.390	-0.450	-0.280	-1.440
2020/01/31 12:13:10.8	318.520	-0.450	-0.250	-1.440
2020/01/31 12:13:10.9	318.660	-0.450	-0.210	-1.440
2020/01/31 12:13:11.0	318.800	-0.460	-0.180	-1.440
2020/01/31 12:13:11.1	318.930	-0.460	-0.140	-1.440
2020/01/31 12:13:11.2	319.070	-0.460	-0.110	-1.440
2020/01/31 12:13:11.3	319.200	-0.450	-0.070	-1.430
2020/01/31 12:13:11.4	319.330	-0.450	-0.030	-1.430
2020/01/31 12:13:11.5	319.460	-0.450	0.000	-1.420
2020/01/31 12:13:11.6	319.590	-0.440	0.040	-1.410
2020/01/31 12:13:11.7	319.720	-0.430	0.070	-1.400
2020/01/31 12:13:11.8	319.850	-0.430	0.110	-1.380
2020/01/31 12:13:11.9	319.980	-0.420	0.150	-1.360
2020/01/31 12:13:12.0	320.110	-0.410	0.180	-1.340
2020/01/31 12:13:12.1	320.240	-0.400	0.220	-1.320
2020/01/31 12:13:12.2	320.370	-0.390	0.250	-1.300
2020/01/31 12:13:12.3	320.490	-0.380	0.280	-1.270
2020/01/31 12:13:12.4	320.620	-0.370	0.320	-1.250
2020/01/31 12:13:12.5	320.750	-0.360	0.350	-1.220
2020/01/31 12:13:12.6	320.860	-0.340	0.380	-1.190
2020/01/31 12:13:12.7	320.990	-0.330	0.410	-1.160
2020/01/31 12:13:12.8	321.110	-0.320	0.440	-1.130
2020/01/31 12:13:12.9	321.240	-0.300	0.470	-1.090
2020/01/31 12:13:13.0	321.370	-0.290	0.500	-1.060
2020/01/31 12:13:13.1	321.500	-0.280	0.520	-1.030
2020/01/31 12:13:13.2	321.630	-0.260	0.540	-1.000
2020/01/31 12:13:13.3	321.760	-0.250	0.560	-0.960
2020/01/31 12:13:13.4	321.880	-0.230	0.580	-0.930
2020/01/31 12:13:13.5	322.010	-0.220	0.600	-0.900
2020/01/31 12:13:13.6	322.140	-0.200	0.610	-0.870
2020/01/31 12:13:13.7	322.270	-0.190	0.620	-0.840
2020/01/31 12:13:13.8	322.400	-0.170	0.630	-0.810
2020/01/31 12:13:13.9	322.530	-0.160	0.640	-0.780
2020/01/31 12:13:14.0	322.670	-0.140	0.640	-0.760
2020/01/31 12:13:14.1	322.800	-0.120	0.640	-0.730
2020/01/31 12:13:14.2	322.930	-0.100	0.640	-0.710
2020/01/31 12:13:14.3	323.060	-0.090	0.640	-0.680
2020/01/31 12:13:14.4	323.190	-0.070	0.630	-0.660
2020/01/31 12:13:14.5	323.330	-0.050	0.620	-0.640
2020/01/31 12:13:14.6	323.460	-0.030	0.610	-0.620
2020/01/31 12:13:14.7	323.600	-0.010	0.600	-0.600
2020/01/31 12:13:14.8	323.730	0.010	0.580	-0.590
2020/01/31 12:13:14.9	323.870	0.030	0.560	-0.570
2020/01/31 12:13:15.0	324.000	0.050	0.530	-0.560
2020/01/31 12:13:15.1	324.140	0.070	0.510	-0.540
2020/01/31 12:13:15.2	324.270	0.090	0.480	-0.530
2020/01/31 12:13:15.3	324.410	0.120	0.450	-0.520
2020/01/31 12:13:15.4	324.540	0.140	0.410	-0.510
2020/01/31 12:13:15.5	324.670	0.160	0.380	-0.510
2020/01/31 12:13:15.6	324.810	0.180	0.340	-0.500
2020/01/31 12:13:15.7	324.950	0.200	0.300	-0.500
2020/01/31 12:13:15.8	325.090	0.230	0.260	-0.500
2020/01/31 12:13:15.9	325.230	0.250	0.220	-0.500
2020/01/31 12:13:16.0	325.370	0.270	0.170	-0.500
2020/01/31 12:13:16.1	325.510	0.290	0.130	-0.510
2020/01/31 12:13:16.2	325.650	0.310	0.090	-0.520
2020/01/31 12:13:16.3	325.790	0.320	0.040	-0.530
2020/01/31 12:13:16.4	325.940	0.340	-0.000	-0.540
2020/01/31 12:13:16.5	326.080	0.360	-0.050	-0.560
2020/01/31 12:13:16.6	326.200	0.370	-0.090	-0.590
2020/01/31 12:13:16.7	326.350	0.390	-0.140	-0.610
2020/01/31 12:13:16.8	326.500	0.400	-0.180	-0.630
2020/01/31 12:13:16.9	326.640	0.410	-0.220	-0.660
2020/01/31 12:13:17.0	326.790	0.420	-0.270	-0.680
2020/01/31 12:13:17.1	326.930	0.430	-0.310	-0.710
2020/01/31 12:13:17.2	327.080	0.430	-0.340	-0.740
2020/01/31 12:13:17.3	327.220	0.440	-0.380	-0.770
2020/01/31 12:13:17.4	327.370	0.440	-0.410	-0.800
2020/01/31 12:13:17.5	327.510	0.440	-0.450	-0.840
2020/01/31 12:13:17.6	327.650	0.440	-0.480	-0.870
2020/01/31 12:13:17.7	327.790	0.430	-0.500	-0.900
2020/01/31 12:13:17.8	327.930	0.430	-0.530	-0.940
2020/01/31 12:13:17.9	328.070	0.420	-0.550	-0.970
2020/01/31 12:13:18.0	328.210	0.410	-0.570	-1.010
2020/01/31 12:13:18.1	328.350	0.400	-0.590	-1.040
2020/01/31 12:13:18.2	328.480	0.380	-0.600	-1.070
2020/01/31 12:13:18.3	328.620	0.370	-0.620	-1.110
2020/01/31 12:13:18.4	328.760	0.350	-0.630	-1.140
2020/01/31 12:13:18.5	328.880	0.330	-0.640	-1.170
2020/01/31 12:13:18.6	329.020	0.310	-0.640	-1.200
2020/01/31 12:13:18.7	329.160	0.290	-0.650	-1.230
2020/01/31 12:13:18.8	329.290	0.270	-0.650	-1.260
2020/01/31 12:13:18.9	329.430	0.240	-0.650	-1.290
2020/01/31 12:13:19.0	329.560	0.220	-0.660	-1.320
2020/01/31 12:13:19.1	329.700	0.200	-0.660	-1.350
2020/01/31 12:13:19.2	329.840	0.170	-0.660	-1.370
2020/01/31 12:13:19.3	329.980	0.150	-0.660	-1.400
2020/01/31 12:13:19.4	330.120	0.130	-0.660	-1.430
2020/01/31 12:13:19.5	330.260	0.110	-0.660	-1.450
2020/01/31 12:13:19.6	330.400	0.080	-0.660	-1.480
2020/01/31 12:13:19.7	330.550	0.060	-0.660	-1.500
2020/01/31 12:13:19.8	330.690	0.040	-0.660	-1.520
2020/01/31 12:13:19.9	330.840	0.030	-0.670	-1.550
2020/01/31 12:13:20.0	330.990	0.010	-0.670	-1.570
2020/01/31 12:13:20.1	331.140	-0.010	-0.670	-1.590
2020/01/31 12:13:20.2	331.290	-0.020	-0.680	-1.610
2020/01/31 12:13:20.3	331.440	-0.030	-0.680	-1.620
2020/01/31 12:13:20.4	331.590	-0.040	-0.680	-1.640
2020/01/31 12:13:20.5	331.740	-0.050	-0.690	-1.660
2020/01/31 12:13:20.6	331.890	-0.060	-0.690	-1.670
2020/01/31 12:13:20.7	332.040	-0.070	-0.700	-1.680
2020/01/31 12:13:20.8	332.200	-0.070	-0.700	-1.690
2020/01/31 12:13:20.9	332.350	-0.080	-0.700	-1.700
2020/01/31 12:13:21.0	332.500	-0.080	-0.700	-1.710
2020/01/31 12:13:21.1	332.660	-0.080	-0.700	-1.710
2020/01/31 12:13:21.2	332.810	-0.090	-0.700	-1.710
2020/01/31 12:13:21.3	332.960	-0.090	-0.690	-1.710
2020/01/31 12:13:21.4	333.110	-0.090	-0.690	-1.710
2020/01/31 12:13:21.5	333.280	-0.090	-0.680	-1.710
2020/01/31 12:13:21.6	333.430	-0.090	-0.660	-1.700
2020/01/31 12:13:21.7	333.580	-0.090	-0.650	-1.690
2020/01/31 12:13:21.8	333.730	-0.090	-0.630	-1.680
2020/01/31 12:13:21.9	333.880	-0.090	-0.610	-1.670
2020/01/31 12:13:22.0	334.030	-0.090	-0.590	-1.650
2020/01/31 12:13:22.1	334.180	-0.090	-0.570	-1.640
2020/01/31 12:13:22.2	334.320	-0.090	-0.540	-1.620
2020/01/31 12:13:22.3	334.470	-0.090	-0.510	-1.600
2020/01/31 12:13:22.4	334.620	-0.090	-0.480	-1.580
2020/01/31 12:13:22.5	334.780	-0.100	-0.450	-1.560
2020/01/31 12:13:22.6	334.920	-0.100	-0.410	-1.540
2020/01/31 12:13:22.7	335.060	-0.110	-0.370	-1.520
2020/01/31 12:13:22.8	335.210	-0.110	-0.330	-1.490
2020/01/31 12:13:22.9	335.350	-0.120	-0.290	-1.470
2020/01/31 12:13:23.0	335.490	-0.130	-0.240	-1.440
2020/01/31 12:13:23.1	335.630	-0.140	-0.200	-1.420
2020/01/31 12:13:23.2	335.770	-0.150	-0.150	-1.390
2020/01/31 12:13:23.3	335.910	-0.160	-0.100	-1.360
2020/01/31 12:13:23.4	336.040	-0.170	-0.050	-1.330
2020/01/31 12:13:23.5	336.180	-0.180	0.010	-1.300
2020/01/31 12:13:23.6	336.310	-0.200	0.060	-1.280
2020/01/31 12:13:23.7	336.440	-0.210	0.120	-1.240
2020/01/31 12:13:23.8	336.570	-0.220	0.170	-1.210
2020/01/31 12:13:23.9	336.700	-0.240	0.230	-1.180
2020/01/31 12:13:24.0	336.820	-0.250	0.290	-1.140
2020/01/31 12:13:24.1	336.940	-0.270	0.340	-1.100
2020/01/31 12:13:24.2	337.060	-0.280	0.400	-1.070
2020/01/31 12:13:24.3	337.180	-0.300	0.450	-1.030
2020/01/31 12:13:24.4	337.290	-0.310	0.510	-0.990
2020/01/31 12:13:24.5	337.400	-0.330	0.560	-0.950
2020/01/31 12:13:24.6	337.500	-0.340	0.620	-0.920
2020/01/31 12:13:24.7	337.600	-0.350	0.670	-0.870
2020/01/31 12:13:24.8	337.710	-0.360	0.720	-0.830
2020/01/31 12:13:24.9	337.820	-0.370	0.770	-0.790
2020/01/31 12:13:25.0	337.920	-0.380	0.810	-0.750
2020/01/31 12:13:25.1	338.020	-0.390	0.850	-0.710
2020/01/31 12:13:25.2	338.120	-0.390	0.890	-0.670
2020/01/31 12:13:25.3	338.220	-0.400	0.920	-0.640
2020/01/31 12:13:25.4	338.320	-0.400	0.940	-0.600
2020/01/31 12:13:25.5	338.400	-0.390	0.960	-0.560
2020/01/31 12:13:25.6	338.500	-0.390	0.980	-0.530
2020/01/31 12:13:25.7	338.600	-0.380	0.990	-0.500
2020/01/31 12:13:25.8	338.690	-0.380	1.000	-0.470
2020/01/31 12:13:25.9	338.790	-0.360	1.000	-0.440
2020/01/31 12:13:26.0	338.890	-0.350	0.990	-0.420
2020/01/31 12:13:26.1	338.990	-0.330	0.980	-0.400
2020/01/31 12:13:26.2	339.080	-0.310	0.960	-0.370
2020/01/31 12:13:26.3	339.180	-0.290	0.930	-0.360
2020/01/31 12:13:26.4	339.280	-0.260	0.900	-0.340
2020/01/31 12:13:26.5	339.380	-0.230	0.870	-0.330
2020/01/31 12:13:26.6	339.490	-0.200	0.820	-0.320
2020/01/31 12:13:26.7	339.590	-0.170	0.770	-0.310
2020/01/31 12:13:26.8	339.700	-0.130	0.710	-0.300
2020/01/31 12:13:26.9	339.800	-0.090	0.640	-0.290
2020/01/31 12:13:27.0	339.910	-0.050	0.580	-0.290
2020/01/31 12:13:27.1	340.030	-0.010	0.500	-0.290
2020/01/31 12:13:27.2	340.140	0.040	0.420	-0.290
2020/01/31 12:13:27.3	340.250	0.080	0.340	-0.290
2020/01/31 12:13:27.4	340.370	0.130	0.250	-0.290
2020/01/31 12:13:27.5	340.490	0.180	0.160	-0.300
2020/01/31 12:13:27.6	340.620	0.230	0.060	-0.300
2020/01/31 12:13:27.7	340.740	0.280	-0.040	-0.310
2020/01/31 12:13:27.8	340.870	0.330	-0.140	-0.320
2020/01/31 12:13:27.9	341.000	0.370	-0.230	-0.330
2020/01/31 12:13:28.0	341.130	0.420	-0.330	-0.340
2020/01/31 12:13:28.1	341.260	0.470	-0.430	-0.360
2020/01/31 12:13:28.2	341.400	0.510	-0.530	-0.370
2020/01/31 12:13:28.3	341.530	0.560	-0.620	-0.380
2020/01/31 12:13:28.4	341.670	0.600	-0.710	-0.400
2020/01/31 12:13:28.5	341.810	0.640	-0.800	-0.420
2020/01/31 12:13:28.6	341.940	0.670	-0.880	-0.440
2020/01/31 12:13:28.7	342.090	0.700	-0.970	-0.460
2020/01/31 12:13:28.8	342.240	0.730	-1.040	-0.480
2020/01/31 12:13:28.9	342.380	0.760	-1.120	-0.500
2020/01/31 12:13:29.0	342.530	0.780	-1.180	-0.520
2020/01/31 12:13:29.1	342.680	0.800	-1.240	-0.550
2020/01/31 12:13:29.2	342.840	0.820	-1.300	-0.570
2020/01/31 12:13:29.3	342.990	0.830	-1.350	-0.590
2020/01/31 12:13:29.4	343.140	0.840	-1.390	-0.620
2020/01/31 12:13:29.5	343.310	0.840	-1.430	-0.640
2020/01/31 12:13:29.6	343.460	0.840	-1.450	-0.670
2020/01/31 12:13:29.7	343.620	0.840	-1.470	-0.690
2020/01/31 12:13:29.8	343.770	0.830	-1.490	-0.720
2020/01/31 12:13:29.9	343.920	0.810	-1.490	-0.740
2020/01/31 12:13:30.0	344.080	0.790	-1.490	-0.770
2020/01/31 12:13:30.1	344.230	0.770	-1.480	-0.790
2020/01/31 12:13:30.2	344.380	0.750	-1.470	-0.810
2020/01/31 12:13:30.3	344.530	0.720	-1.440	-0.840
2020/01/31 12:13:30.4	344.680	0.680	-1.410	-0.860
2020/01/31 12:13:30.5	344.830	0.650	-1.380	-0.890
2020/01/31 12:13:30.6	344.970	0.610	-1.340	-0.920
2020/01/31 12:13:30.7	345.110	0.560	-1.290	-0.940
2020/01/31 12:13:30.8	345.260	0.520	-1.240	-0.960
2020/01/31 12:13:30.9	345.400	0.470	-1.180	-0.990
2020/01/31 12:13:31.0	345.540	0.420	-1.110	-1.010
2020/01/31 12:13:31.1	345.680	0.360	-1.050	-1.030
2020/01/31 12:13:31.2	345.810	0.310	-0.970	-1.050
2020/01/31 12:13:31.3	345.950	0.250	-0.900	-1.080
2020/01/31 12:13:31.4	346.080	0.190	-0.820	-1.100
2020/01/31 12:13:31.5	346.210	0.130	-0.740	-1.130
2020/01/31 12:13:31.6	346.330	0.070	-0.660	-1.150
2020/01/31 12:13:31.7	346.470	0.010	-0.580	-1.180
2020/01/31 12:13:31.8	346.600	-0.050	-0.500	-1.200
2020/01/31 12:13:31.9	346.730	-0.110	-0.420	-1.230
2020/01/31 12:13:32.0	346.860	-0.160	-0.340	-1.260
2020/01/31 12:13:32.1	346.990	-0.220	-0.260	-1.280
2020/01/31 12:13:32.2	347.120	-0.270	-0.180	-1.310
2020/01/31 12:13:32.3	347.250	-0.330	-0.100	-1.340
2020/01/31 12:13:32.4	347.380	-0.380	-0.030	-1.370
2020/01/31 12:13:32.5	347.510	-0.420	0.040	-1.400
2020/01/31 12:13:32.6	347.650	-0.470	0.100	-1.430
2020/01/31 12:13:32.7	347.780	-0.510	0.170	-1.460
2020/01/31 12:13:32.8	347.920	-0.540	0.230	-1.490
2020/01/31 12:13:32.9	348.060	-0.580	0.280	-1.520
2020/01/31 12:13:33.0	348.190	-0.610	0.340	-1.550
2020/01/31 12:13:33.1	348.330	-0.630	0.390	-1.570
2020/01/31 12:13:33.2	348.470	-0.650	0.430	-1.590
2020/01/31 12:13:33.3	348.610	-0.670	0.470	-1.610
2020/01/31 12:13:33.4	348.740	-0.680	0.510	-1.630
2020/01/31 12:13:33.5	348.880	-0.690	0.550	-1.650
2020/01/31 12:13:33.6	349.000	-0.690	0.580	-1.660
2020/01/31 12:13:33.7	349.140	-0.700	0.610	-1.670
2020/01/31 12:13:33.8	349.270	-0.690	0.640	-1.670
2020/01/31 12:13:33.9	349.400	-0.690	0.670	-1.670
2020/01/31 12:13:34.0	349.520	-0.680	0.690	-1.670
2020/01/31 12:13:34.1	349.650	-0.670	0.710	-1.660
2020/01/31 12:13:34.2	349.770	-0.650	0.740	-1.650
2020/01/31 12:13:34.3	349.890	-0.630	0.750	-1.630
2020/01/31 12:13:34.4	350.010	-0.610	0.770	-1.610
2020/01/31 12:13:34.5	350.130	-0.590	0.790	-1.590
2020/01/31 12:13:34.6	350.260	-0.570	0.810	-1.560
2020/01/31 12:13:34.7	350.370	-0.540	0.820	-1.530
2020/01/31 12:13:34.8	350.480	-0.510	0.830	-1.500
2020/01/31 12:13:34.9	350.590	-0.480	0.840	-1.460
2020/01/31 12:13:35.0	350.690	-0.450	0.850	-1.420
2020/01/31 12:13:35.1	350.800	-0.420	0.860	-1.380
2020/01/31 12:13:35.2	350.900	-0.390	0.870	-1.330
2020/01/31 12:13:35.3	351.000	-0.360	0.870	-1.280
2020/01/31 12:13:35.4	351.090	-0.320	0.870	-1.230
2020/01/31 12:13:35.5	351.190	-0.290	0.870	-1.180
2020/01/31 12:13:35.6	351.280	-0.260	0.860	-1.120
2020/01/31 12:13:35.7	351.370	-0.220	0.850	-1.070
2020/01/31 12:13:35.8	351.470	-0.190	0.840	-1.010
2020/01/31 12:13:35.9	351.560	-0.160	0.830	-0.950
2020/01/31 12:13:36.0	351.640	-0.130	0.810	-0.890
2020/01/31 12:13:36.1	351.730	-0.090	0.790	-0.840
2020/01/31 12:13:36.2	351.820	-0.060	0.760	-0.780
2020/01/31 12:13:36.3	351.910	-0.030	0.730	-0.720
2020/01/31 12:13:36.4	351.990	-0.000	0.700	-0.660
2020/01/31 12:13:36.5	352.080	0.020	0.670	-0.610
2020/01/31 12:13:36.6	352.160	0.050	0.630	-0.550
2020/01/31 12:13:36.7	352.240	0.080	0.590	-0.500
2020/01/31 12:13:36.8	352.330	0.100	0.540	-0.450
2020/01/31 12:13:36.9	352.410	0.130	0.490	-0.400
2020/01/31 12:13:37.0	352.500	0.150	0.440	-0.360
2020/01/31 12:13:37.1	352.580	0.180	0.390	-0.310
2020/01/31 12:13:37.2	352.670	0.200	0.330	-0.270
2020/01/31 12:13:37.3	352.750	0.220	0.270	-0.240
2020/01/31 12:13:37.4	352.840	0.240	0.210	-0.210
2020/01/31 12:13:37.5	352.920	0.260	0.150	-0.180
2020/01/31 12:13:37.6	353.020	0.280	0.090	-0.160
2020/01/31 12:13:37.7	353.110	0.300	0.030	-0.140
2020/01/31 12:13:37.8	353.200	0.320	-0.030	-0.120
2020/01/31 12:13:37.9	353.290	0.340	-0.100	-0.100
2020/01/31 12:13:38.0	353.390	0.360	-0.160	-0.090
2020/01/31 12:13:38.1	353.480	0.380	-0.230	-0.080
2020/01/31 12:13:38.2	353.570	0.390	-0.290	-0.080
2020/01/31 12:13:38.3	353.670	0.410	-0.350	-0.070
2020/01/31 12:13:38.4	353.770	0.430	-0.420	-0.070
2020/01/31 12:13:38.5	353.870	0.450	-0.480	-0.070
2020/01/31 12:13:38.6	353.960	0.460	-0.550	-0.080
2020/01/31 12:13:38.7	354.060	0.480	-0.610	-0.090
2020/01/31 12:13:38.8	354.170	0.500	-0.670	-0.090
2020/01/31 12:13:38.9	354.280	0.510	-0.720	-0.110
2020/01/31 12:13:39.0	354.390	0.530	-0.780	-0.120
2020/01/31 12:13:39.1	354.500	0.540	-0.830	-0.130
2020/01/31 12:13:39.2	354.620	0.550	-0.880	-0.150
2020/01/31 12:13:39.3	354.730	0.570	-0.930	-0.170
2020/01/31 12:13:39.4	354.850	0.580	-0.980	-0.190
2020/01/31 12:13:39.5	354.970	0.590	-1.020	-0.230
2020/01/31 12:13:39.6	355.090	0.590	-1.060	-0.250
2020/01/31 12:13:39.7	355.220	0.600	-1.100	-0.280
2020/01/31 12:13:39.8	355.350	0.600	-1.140	-0.310
2020/01/31 12:13:39.9	355.480	0.610	-1.170	-0.340
2020/01/31 12:13:40.0	355.620	0.610	-1.200	-0.380
2020/01/31 12:13:40.1	355.760	0.610	-1.230	-0.420
2020/01/31 12:13:40.2	355.900	0.600	-1.250	-0.450
2020/01/31 12:13:40.3	356.040	0.600	-1.270	-0.490
2020/01/31 12:13:40.4	356.190	0.590	-1.290	-0.540
2020/01/31 12:13:40.5	356.330	0.580	-1.300	-0.580
2020/01/31 12:13:40.6	356.490	0.560	-1.310	-0.630
2020/01/31 12:13:40.7	356.640	0.550	-1.320	-0.670
2020/01/31 12:13:40.8	356.790	0.530	-1.320	-0.720
2020/01/31 12:13:40.9	356.950	0.510	-1.310	-0.760
2020/01/31 12:13:41.0	357.100	0.480	-1.310	-0.810
2020/01/31 12:13:41.1	357.260	0.460	-1.300	-0.860
2020/01/31 12:13:41.2	357.420	0.430	-1.280	-0.910
2020/01/31 12:13:41.3	357.580	0.400	-1.270	-0.960
2020/01/31 12:13:41.4	357.740	0.360	-1.240	-1.010
2020/01/31 12:13:41.5	357.900	0.330	-1.220	-1.060
2020/01/31 12:13:41.6	358.060	0.290	-1.190	-1.110
2020/01/31 12:13:41.7	358.220	0.260	-1.160	-1.160
2020/01/31 12:13:41.8	358.390	0.220	-1.120	-1.200
2020/01/31 12:13:41.9	358.550	0.180	-1.080	-1.250
2020/01/31 12:13:42.0	358.720	0.140	-1.030	-1.300
2020/01/31 12:13:42.1	358.880	0.090	-0.990	-1.340
2020/01/31 12:13:42.2	359.050	0.050	-0.940	-1.380
2020/01/31 12:13:42.3	359.210	0.010	-0.880	-1.430
2020/01/31 12:13:42.4	359.370	-0.040	-0.820	-1.470
2020/01/31 12:13:42.5	359.530	-0.080	-0.770	-1.510
2020/01/31 12:13:42.6	359.690	-0.120	-0.700	-1.540
2020/01/31 12:13:42.7	359.850	-0.170	-0.640	-1.580
2020/01/31 12:13:42.8	0.000	-0.210	-0.570	-1.610
2020/01/31 12:13:42.9	0.150	-0.250	-0.490	-1.640
2020/01/31 12:13:43.0	0.300	-0.290	-0.420	-1.670
2020/01/31 12:13:43.1	0.450	-0.330	-0.350	-1.690
2020/01/31 12:13:43.2	0.590	-0.360	-0.270	-1.720
2020/01/31 12:13:43.3	0.730	-0.400	-0.190	-1.730
2020/01/31 12:13:43.4	0.870	-0.430	-0.110	-1.750
2020/01/31 12:13:43.5	0.990	-0.460	-0.030	-1.770
2020/01/31 12:13:43.6	1.120	-0.490	0.050	-1.770
2020/01/31 12:13:43.7	1.240	-0.520	0.130	-1.780
2020/01/31 12:13:43.8	1.360	-0.540	0.210	-1.780
2020/01/31 12:13:43.9	1.480	-0.560	0.290	-1.770
2020/01/31 12:13:44.0	1.590	-0.580	0.370	-1.760
2020/01/31 12:13:44.1	1.690	-0.590	0.450	-1.740
2020/01/31 12:13:44.2	1.790	-0.600	0.520	-1.720
2020/01/31 12:13:44.3	1.890	-0.610	0.590	-1.700
2020/01/31 12:13:44.4	1.980	-0.610	0.660	-1.670
2020/01/31 12:13:44.5	2.070	-0.610	0.730	-1.630
2020/01/31 12:13:44.6	2.160	-0.600	0.790	-1.590
2020/01/31 12:13:44.7	2.240	-0.590	0.850	-1.550
2020/01/31 12:13:44.8	2.320	-0.580	0.910	-1.500
2020/01/31 12:13:44.9	2.390	-0.570	0.950	-1.450
2020/01/31 12:13:45.0	2.460	-0.550	1.000	-1.390
2020/01/31 12:13:45.1	2.530	-0.530	1.040	-1.330
2020/01/31 12:13:45.2	2.590	-0.500	1.070	-1.260
2020/01/31 12:13:45.3	2.650	-0.480	1.090	-1.190
2020/01/31 12:13:45.4	2.720	-0.450	1.120	-1.120
2020/01/31 12:13:45.5	2.770	-0.410	1.130	-1.050
2020/01/31 12:13:45.6	2.840	-0.380	1.140	-0.970
2020/01/31 12:13:45.7	2.900	-0.340	1.140	-0.900
2020/01/31 12:13:45.8	2.950	-0.300	1.130	-0.820
2020/01/31 12:13:45.9	3.010	-0.260	1.120	-0.740
2020/01/31 12:13:46.0	3.070	-0.210	1.100	-0.660
2020/01/31 12:13:46.1	3.120	-0.170	1.080	-0.580
2020/01/31 12:13:46.2	3.180	-0.130	1.050	-0.500
2020/01/31 12:13:46.3	3.240	-0.080	1.020	-0.420
2020/01/31 12:13:46.4	3.300	-0.030	0.980	-0.340
2020/01/31 12:13:46.5	3.350	0.010	0.930	-0.260
2020/01/31 12:13:46.6	3.410	0.060	0.880	-0.180
2020/01/31 12:13:46.7	3.470	0.100	0.830	-0.110
2020/01/31 12:13:46.8	3.530	0.150	0.770	-0.030
2020/01/31 12:13:46.9	3.590	0.190	0.710	0.040
2020/01/31 12:13:47.0	3.660	0.240	0.650	0.110
2020/01/31 12:13:47.1	3.720	0.280	0.580	0.180
2020/01/31 12:13:47.2	3.790	0.310	0.520	0.250
2020/01/31 12:13:47.3	3.850	0.350	0.450	0.310
2020/01/31 12:13:47.4	3.920	0.380	0.380	0.380
2020/01/31 12:13:47.5	3.990	0.420	0.320	0.440
2020/01/31 12:13:47.6	4.060	0.450	0.250	0.490
2020/01/31 12:13:47.7	4.130	0.470	0.180	0.540
2020/01/31 12:13:47.8	4.210	0.500	0.120	0.590
2020/01/31 12:13:47.9	4.280	0.520	0.050	0.640
2020/01/31 12:13:48.0	4.360	0.530	-0.010	0.680
2020/01/31 12:13:48.1	4.440	0.550	-0.070	0.720
2020/01/31 12:13:48.2	4.530	0.560	-0.130	0.750
2020/01/31 12:13:48.3	4.610	0.570	-0.190	0.780
2020/01/31 12:13:48.4	4.700	0.570	-0.240	0.800
2020/01/31 12:13:48.5	4.790	0.580	-0.290	0.820
2020/01/31 12:13:48.6	4.890	0.570	-0.340	0.830
2020/01/31 12:13:48.7	4.990	0.570	-0.390	0.840
2020/01/31 12:13:48.8	5.090	0.570	-0.430	0.840
2020/01/31 12:13:48.9	5.200	0.560	-0.480	0.840
2020/01/31 12:13:49.0	5.300	0.550	-0.520	0.830
2020/01/31 12:13:49.1	5.410	0.540	-0.560	0.820
2020/01/31 12:13:49.2	5.530	0.520	-0.600	0.800
2020/01/31 12:13:49.3	5.640	0.510	-0.640	0.770
2020/01/31 12:13:49.4	5.760	0.490	-0.670	0.750
2020/01/31 12:13:49.5	5.880	0.470	-0.700	0.710
2020/01/31 12:13:49.6	6.010	0.450	-0.740	0.670
2020/01/31 12:13:49.7	6.130	0.430	-0.770	0.630
2020/01/31 12:13:49.8	6.260	0.410	-0.800	0.580
2020/01/31 12:13:49.9	6.390	0.390	-0.820	0.530
2020/01/31 12:13:50.0	6.530	0.370	-0.850	0.470
2020/01/31 12:13:50.1	6.660	0.350	-0.870	0.410
2020/01/31 12:13:50.2	6.800	0.320	-0.890	0.350
2020/01/31 12:13:50.3	6.940	0.300	-0.920	0.280
2020/01/31 12:13:50.4	7.080	0.280	-0.930	0.210
2020/01/31 12:13:50.5	7.210	0.260	-0.950	0.130
2020/01/31 12:13:50.6	7.350	0.240	-0.960	0.060
2020/01/31 12:13:50.7	7.500	0.220	-0.970	-0.020
2020/01/31 12:13:50.8	7.640	0.200	-0.980	-0.100
2020/01/31 12:13:50.9	7.790	0.180	-0.990	-0.180
2020/01/31 12:13:51.0	7.940	0.160	-1.000	-0.260
2020/01/31 12:13:51.1	8.080	0.150	-1.000	-0.350
2020/01/31 12:13:51.2	8.230	0.130	-1.000	-0.430
2020/01/31 12:13:51.3	8.380	0.110	-0.990	-0.510
2020/01/31 12:13:51.4	8.530	0.100	-0.990	-0.600
2020/01/31 12:13:51.5	8.670	0.080	-0.980	-0.680
2020/01/31 12:13:51.6	8.810	0.070	-0.970	-0.760
2020/01/31 12:13:51.7	8.960	0.050	-0.950	-0.840
2020/01/31 12:13:51.8	9.100	0.040	-0.930	-0.920
2020/01/31 12:13:51.9	9.250	0.020	-0.910	-0.990
2020/01/31 12:13:52.0	9.390	0.000	-0.880	-1.070
2020/01/31 12:13:52.1	9.530	-0.010	-0.850	-1.140
2020/01/31 12:13:52.2	9.670	-0.030	-0.820	-1.210
2020/01/31 12:13:52.3	9.810	-0.040	-0.790	-1.280
2020/01/31 12:13:52.4	9.950	-0.060	-0.750	-1.340
2020/01/31 12:13:52.5	10.080	-0.080	-0.710	-1.400
2020/01/31 12:13:52.6	10.220	-0.100	-0.660	-1.470
2020/01/31 12:13:52.7	10.350	-0.120	-0.620	-1.520
2020/01/31 12:13:52.8	10.470	-0.140	-0.570	-1.580
2020/01/31 12:13:52.9	10.600	-0.160	-0.520	-1.630
2020/01/31 12:13:53.0	10.720	-0.180	-0.470	-1.680
2020/01/31 12:13:53.1	10.840	-0.200	-0.410	-1.720
2020/01/31 12:13:53.2	10.960	-0.220	-0.360	-1.760
2020/01/31 12:13:53.3	11.070	-0.240	-0.300	-1.800
2020/01/31 12:13:53.4	11.190	-0.260	-0.250	-1.830
2020/01/31 12:13:53.5	11.290	-0.280	-0.190	-1.860
2020/01/31 12:13:53.6	11.400	-0.300	-0.140	-1.880
2020/01/31 12:13:53.7	11.500	-0.330	-0.080	-1.890
2020/01/31 12:13:53.8	11.600	-0.350	-0.020	-1.900
2020/01/31 12:13:53.9	11.690	-0.370	0.040	-1.910
2020/01/31 12:13:54.0	11.790	-0.390	0.100	-1.900
2020/01/31 12:13:54.1	11.880	-0.400	0.160	-1.900
2020/01/31 12:13:54.2	11.960	-0.420	0.210	-1.880
2020/01/31 12:13:54.3	12.050	-0.440	0.270	-1.860
2020/01/31 12:13:54.4	12.130	-0.450	0.320	-1.830
2020/01/31 12:13:54.5	12.210	-0.460	0.380	-1.800
2020/01/31 12:13:54.6	12.290	-0.470	0.430	-1.760
2020/01/31 12:13:54.7	12.360	-0.480	0.480	-1.720
2020/01/31 12:13:54.8	12.430	-0.480	0.530	-1.660
2020/01/31 12:13:54.9	12.500	-0.490	0.580	-1.610
2020/01/31 12:13:55.0	12.570	-0.490	0.620	-1.550
2020/01/31 12:13:55.1	12.630	-0.490	0.660	-1.480
2020/01/31 12:13:55.2	12.690	-0.480	0.700	-1.410
2020/01/31 12:13:55.3	12.750	-0.470	0.730	-1.340
2020/01/31 12:13:55.4	12.820	-0.460	0.760	-1.260
2020/01/31 12:13:55.5	12.880	-0.450	0.780	-1.190
2020/01/31 12:13:55.6	12.940	-0.430	0.800	-1.100
2020/01/31 12:13:55.7	13.000	-0.410	0.820	-1.020
2020/01/31 12:13:55.8	13.060	-0.390	0.830	-0.940
2020/01/31 12:13:55.9	13.120	-0.360	0.830	-0.850
2020/01/31 12:13:56.0	13.180	-0.340	0.830	-0.770
2020/01/31 12:13:56.1	13.250	-0.300	0.820	-0.690
2020/01/31 12:13:56.2	13.310	-0.270	0.810	-0.600
2020/01/31 12:13:56.3	13.370	-0.240	0.790	-0.520
2020/01/31 12:13:56.4	13.440	-0.200	0.770	-0.440
2020/01/31 12:13:56.5	13.490	-0.160	0.740	-0.360
2020/01/31 12:13:56.6	13.560	-0.120	0.700	-0.280
2020/01/31 12:13:56.7	13.630	-0.070	0.660	-0.200
2020/01/31 12:13:56.8	13.700	-0.030	0.620	-0.130
2020/01/31 12:13:56.9	13.770	0.010	0.570	-0.060
2020/01/31 12:13:57.0	13.840	0.060	0.520	0.010
2020/01/31 12:13:57.1	13.910	0.100	0.460	0.080
2020/01/31 12:13:57.2	13.990	0.150	0.400	0.140
2020/01/31 12:13:57.3	14.070	0.190	0.340	0.200
2020/01/31 12:13:57.4	14.150	0.240	0.280	0.260
2020/01/31 12:13:57.5	14.220	0.280	0.210	0.310
2020/01/31 12:13:57.6	14.300	0.320	0.140	0.350
2020/01/31 12:13:57.7	14.390	0.360	0.070	0.400
2020/01/31 12:13:57.8	14.480	0.400	-0.000	0.440
2020/01/31 12:13:57.9	14.580	0.430	-0.080	0.470
2020/01/31 12:13:58.0	14.670	0.470	-0.150	0.500
2020/01/31 12:13:58.1	14.770	0.500	-0.220	0.530
2020/01/31 12:13:58.2	14.870	0.530	-0.290	0.550
2020/01/31 12:13:58.3	14.980	0.550	-0.360	0.570
2020/01/31 12:13:58.4	15.080	0.580	-0.430	0.580
2020/01/31 12:13:58.5	15.190	0.600	-0.500	0.590
2020/01/31 12:13:58.6	15.300	0.610	-0.560	0.590
2020/01/31 12:13:58.7	15.410	0.620	-0.620	0.590
2020/01/31 12:13:58.8	15.530	0.630	-0.680	0.590
2020/01/31 12:13:58.9	15.640	0.640	-0.730	0.580
2020/01/31 12:13:59.0	15.760	0.640	-0.780	0.580
2020/01/31 12:13:59.1	15.880	0.640	-0.820	0.560
2020/01/31 12:13:59.2	16.000	0.640	-0.860	0.550
2020/01/31 12:13:59.3	16.120	0.630	-0.890	0.530
2020/01/31 12:13:59.4	16.230	0.620	-0.920	0.510
2020/01/31 12:13:59.5	16.350	0.610	-0.950	0.490
2020/01/31 12:13:59.6	16.480	0.590	-0.960	0.460
2020/01/31 12:13:59.7	16.600	0.570	-0.980	0.430
2020/01/31 12:13:59.8	16.710	0.550	-0.980	0.410
2020/01/31 12:13:59.9	16.830	0.530	-0.990	0.370
2020/01/31 12:14:00.0	16.950	0.510	-0.990	0.340
2020/01/31 12:14:00.1	17.060	0.480	-0.980	0.310
2020/01/31 12:14:00.2	17.180	0.460	-0.970	0.270
2020/01/31 12:14:00.3	17.290	0.430	-0.950	0.240
2020/01/31 12:14:00.4	17.400	0.400	-0.930	0.200
2020/01/31 12:14:00.5	17.520	0.370	-0.910	0.160
2020/01/31 12:14:00.6	17.620	0.350	-0.880	0.120
2020/01/31 12:14:00.7	17.730	0.320	-0.850	0.080
2020/01/31 12:14:00.8	17.840	0.290	-0.820	0.040
2020/01/31 12:14:00.9	17.940	0.260	-0.790	-0.000
2020/01/31 12:14:01.0	18.040	0.240	-0.760	-0.040
2020/01/31 12:14:01.1	18.140	0.220	-0.720	-0.080
2020/01/31 12:14:01.2	18.240	0.190	-0.680	-0.120
2020/01/31 12:14:01.3	18.340	0.170	-0.650	-0.160
2020/01/31 12:14:01.4	18.440	0.160	-0.610	-0.200
2020/01/31 12:14:01.5	18.540	0.140	-0.570	-0.240
2020/01/31 12:14:01.6	18.620	0.120	-0.540	-0.280
2020/01/31 12:14:01.7	18.720	0.110	-0.510	-0.320
2020/01/31 12:14:01.8	18.820	0.100	-0.470	-0.360
2020/01/31 12:14:01.9	18.920	0.080	-0.440	-0.400
2020/01/31 12:14:02.0	19.020	0.070	-0.410	-0.440
2020/01/31 12:14:02.1	19.120	0.070	-0.380	-0.470
2020/01/31 12:14:02.2	19.220	0.060	-0.350	-0.510
2020/01/31 12:14:02.3	19.320	0.050	-0.320	-0.550
2020/01/31 12:14:02.4	19.420	0.040	-0.300	-0.580
2020/01/31 12:14:02.5	19.530	0.040	-0.270	-0.610
2020/01/31 12:14:02.6	19.620	0.030	-0.240	-0.650
2020/01/31 12:14:02.7	19.720	0.030	-0.220	-0.680
2020/01/31 12:14:02.8	19.830	0.020	-0.190	-0.710
2020/01/31 12:14:02.9	19.940	0.010	-0.170	-0.740
2020/01/31 12:14:03.0	20.050	0.000	-0.150	-0.760
2020/01/31 12:14:03.1	20.160	-0.000	-0.120	-0.780
2020/01/31 12:14:03.2	20.270	-0.010	-0.100	-0.800
2020/01/31 12:14:03.3	20.380	-0.020	-0.070	-0.820
2020/01/31 12:14:03.4	20.490	-0.030	-0.050	-0.840
2020/01/31 12:14:03.5	20.600	-0.050	-0.020	-0.850
2020/01/31 12:14:03.6	20.700	-0.060	0.010	-0.860
2020/01/31 12:14:03.7	20.820	-0.080	0.040	-0.870
2020/01/31 12:14:03.8	20.930	-0.090	0.070	-0.870
2020/01/31 12:14:03.9	21.040	-0.110	0.100	-0.870
2020/01/31 12:14:04.0	21.150	-0.130	0.140	-0.870
2020/01/31 12:14:04.1	21.260	-0.150	0.180	-0.870
2020/01/31 12:14:04.2	21.370	-0.180	0.210	-0.860
2020/01/31 12:14:04.3	21.470	-0.200	0.250	-0.850
2020/01/31 12:14:04.4	21.580	-0.230	0.290	-0.830
2020/01/31 12:14:04.5	21.680	-0.250	0.330	-0.820
2020/01/31 12:14:04.6	21.790	-0.280	0.380	-0.800
2020/01/31 12:14:04.7	21.890	-0.310	0.420	-0.780
2020/01/31 12:14:04.8	21.980	-0.340	0.460	-0.760
2020/01/31 12:14:04.9	22.080	-0.370	0.510	-0.730
2020/01/31 12:14:05.0	22.180	-0.400	0.550	-0.700
2020/01/31 12:14:05.1	22.270	-0.430	0.590	-0.680
2020/01/31 12:14:05.2	22.360	-0.460	0.630	-0.650
2020/01/31 12:14:05.3	22.450	-0.480	0.670	-0.620
2020/01/31 12:14:05.4	22.540	-0.510	0.710	-0.590
2020/01/31 12:14:05.5	22.640	-0.540	0.750	-0.560
2020/01/31 12:14:05.6	22.730	-0.560	0.780	-0.530
2020/01/31 12:14:05.7	22.810	-0.580	0.810	-0.500
2020/01/31 12:14:05.8	22.890	-0.600	0.840	-0.470
2020/01/31 12:14:05.9	22.970	-0.620	0.860	-0.440
2020/01/31 12:14:06.0	23.050	-0.640	0.880	-0.410
2020/01/31 12:14:06.1	23.130	-0.650	0.890	-0.380
2020/01/31 12:14:06.2	23.210	-0.660	0.900	-0.360
2020/01/31 12:14:06.3	23.290	-0.660	0.900	-0.330
2020/01/31 12:14:06.4	23.360	-0.660	0.900	-0.310
2020/01/31 12:14:06.5	23.440	-0.660	0.890	-0.290
2020/01/31 12:14:06.6	23.540	-0.650	0.880	-0.260
2020/01/31 12:14:06.7	23.610	-0.640	0.860	-0.240
2020/01/31 12:14:06.8	23.680	-0.630	0.830	-0.220
2020/01/31 12:14:06.9	23.760	-0.610	0.800	-0.200
2020/01/31 12:14:07.0	23.830	-0.590	0.770	-0.180
2020/01/31 12:14:07.1	23.900	-0.560	0.720	-0.170
2020/01/31 12:14:07.2	23.980	-0.530	0.670	-0.150
2020/01/31 12:14:07.3	24.050	-0.500	0.620	-0.130
2020/01/31 12:14:07.4	24.120	-0.460	0.560	-0.110
2020/01/31 12:14:07.5	24.190	-0.420	0.490	-0.100
2020/01/31 12:14:07.6	24.260	-0.370	0.420	-0.080
2020/01/31 12:14:07.7	24.340	-0.330	0.350	-0.060
2020/01/31 12:14:07.8	24.410	-0.280	0.270	-0.040
2020/01/31 12:14:07.9	24.490	-0.230	0.190	-0.030
2020/01/31 12:14:08.0	24.560	-0.170	0.100	-0.010
2020/01/31 12:14:08.1	24.640	-0.120	0.020	0.000
2020/01/31 12:14:08.2	24.710	-0.060	-0.070	0.020
2020/01/31 12:14:08.3	24.790	-0.010	-0.170	0.030
2020/01/31 12:14:08.4	24.870	0.050	-0.260	0.040
2020/01/31 12:14:08.5	24.960	0.110	-0.350	0.050
2020/01/31 12:14:08.6	25.040	0.160	-0.440	0.070
2020/01/31 12:14:08.7	25.130	0.220	-0.540	0.080
2020/01/31 12:14:08.8	25.220	0.270	-0.630	0.090
2020/01/31 12:14:08.9	25.310	0.320	-0.710	0.090
2020/01/31 12:14:09.0	25.400	0.370	-0.800	0.100
2020/01/31 12:14:09.1	25.490	0.420	-0.880	0.100
2020/01/31 12:14:09.2	25.580	0.460	-0.960	0.100
2020/01/31 12:14:09.3	25.680	0.510	-1.030	0.110
2020/01/31 12:14:09.4	25.780	0.550	-1.100	0.110
2020/01/31 12:14:09.5	25.880	0.580	-1.170	0.100
2020/01/31 12:14:09.6	25.990	0.610	-1.230	0.100
2020/01/31 12:14:09.7	26.090	0.640	-1.280	0.090
2020/01/31 12:14:09.8	26.200	0.660	-1.330	0.090
2020/01/31 12:14:09.9	26.300	0.680	-1.360	0.080
2020/01/31 12:14:10.0	26.410	0.700	-1.400	0.070
2020/01/31 12:14:10.1	26.520	0.710	-1.420	0.060
2020/01/31 12:14:10.2	26.630	0.710	-1.440	0.040
2020/01/31 12:14:10.3	26.750	0.710	-1.450	0.030
2020/01/31 12:14:10.4	26.860	0.710	-1.460	0.010
2020/01/31 12:14:10.5	26.990	0.700	-1.450	-0.010
2020/01/31 12:14:10.6	27.100	0.690	-1.440	-0.030
2020/01/31 12:14:10.7	27.220	0.670	-1.420	-0.060
2020/01/31 12:14:10.8	27.330	0.650	-1.400	-0.080
2020/01/31 12:14:10.9	27.450	0.630	-1.360	-0.100
2020/01/31 12:14:11.0	27.570	0.600	-1.320	-0.130
2020/01/31 12:14:11.1	27.680	0.570	-1.280	-0.160
2020/01/31 12:14:11.2	27.800	0.540	-1.230	-0.190
2020/01/31 12:14:11.3	27.910	0.500	-1.170	-0.220
2020/01/31 12:14:11.4	28.030	0.460	-1.100	-0.250
2020/01/31 12:14:11.5	28.150	0.420	-1.040	-0.280
2020/01/31 12:14:11.6	28.260	0.370	-0.960	-0.310
2020/01/31 12:14:11.7	28.370	0.330	-0.880	-0.340
2020/01/31 12:14:11.8	28.480	0.280	-0.800	-0.370
2020/01/31 12:14:11.9	28.590	0.230	-0.710	-0.400
2020/01/31 12:14:12.0	28.700	0.180	-0.630	-0.420
2020/01/31 12:14:12.1	28.800	0.130	-0.540	-0.450
2020/01/31 12:14:12.2	28.900	0.080	-0.440	-0.480
2020/01/31 12:14:12.3	29.000	0.020	-0.350	-0.500
2020/01/31 12:14:12.4	29.100	-0.030	-0.260	-0.520
2020/01/31 12:14:12.5	29.210	-0.070	-0.160	-0.550
2020/01/31 12:14:12.6	29.300	-0.120	-0.070	-0.570
2020/01/31 12:14:12.7	29.390	-0.170	0.020	-0.590
2020/01/31 12:14:12.8	29.480	-0.210	0.100	-0.610
2020/01/31 12:14:12.9	29.570	-0.250	0.190	-0.620
2020/01/31 12:14:13.0	29.650	-0.290	0.270	-0.640
2020/01/31 12:14:13.1	29.730	-0.320	0.340	-0.650
2020/01/31 12:14:13.2	29.820	-0.360	0.410	-0.660
2020/01/31 12:14:13.3	29.900	-0.380	0.470	-0.670
2020/01/31 12:14:13.4	29.980	-0.410	0.530	-0.680
2020/01/31 12:14:13.5	30.070	-0.430	0.580	-0.690
2020/01/31 12:14:13.6	30.160	-0.440	0.620	-0.690
2020/01/31 12:14:13.7	30.240	-0.450	0.660	-0.690
2020/01/31 12:14:13.8	30.320	-0.460	0.690	-0.700
2020/01/31 12:14:13.9	30.400	-0.460	0.710	-0.700
2020/01/31 12:14:14.0	30.480	-0.460	0.720	-0.700
2020/01/31 12:14:14.1	30.570	-0.460	0.730	-0.690
2020/01/31 12:14:14.2	30.650	-0.450	0.730	-0.690
2020/01/31 12:14:14.3	30.740	-0.430	0.720	-0.690
2020/01/31 12:14:14.4	30.830	-0.420	0.710	-0.680
2020/01/31 12:14:14.5	30.930	-0.400	0.690	-0.680
2020/01/31 12:14:14.6	31.020	-0.370	0.670	-0.670
2020/01/31 12:14:14.7	31.110	-0.340	0.640	-0.670
2020/01/31 12:14:14.8	31.210	-0.310	0.600	-0.660
2020/01/31 12:14:14.9	31.300	-0.280	0.560	-0.650
2020/01/31 12:14:15.0	31.390	-0.250	0.520	-0.640
2020/01/31 12:14:15.1	31.490	-0.210	0.480	-0.630
2020/01/31 12:14:15.2	31.580	-0.180	0.430	-0.620
2020/01/31 12:14:15.3	31.680	-0.140	0.390	-0.600
2020/01/31 12:14:15.4	31.770	-0.100	0.340	-0.590
2020/01/31 12:14:15.5	31.870	-0.060	0.290	-0.570
2020/01/31 12:14:15.6	31.960	-0.020	0.250	-0.550
2020/01/31 12:14:15.7	32.050	0.010	0.200	-0.530
2020/01/31 12:14:15.8	32.140	0.050	0.160	-0.510
2020/01/31 12:14:15.9	32.230	0.080	0.120	-0.490
2020/01/31 12:14:16.0	32.320	0.120	0.080	-0.460
2020/01/31 12:14:16.1	32.410	0.150	0.040	-0.430
2020/01/31 12:14:16.2	32.490	0.180	0.010	-0.400
2020/01/31 12:14:16.3	32.580	0.200	-0.020	-0.370
2020/01/31 12:14:16.4	32.660	0.230	-0.050	-0.340
2020/01/31 12:14:16.5	32.740	0.250	-0.080	-0.300
2020/01/31 12:14:16.6	32.830	0.270	-0.100	-0.270
2020/01/31 12:14:16.7	32.910	0.290	-0.120	-0.230
2020/01/31 12:14:16.8	32.990	0.300	-0.130	-0.200
2020/01/31 12:14:16.9	33.070	0.310	-0.150	-0.160
2020/01/31 12:14:17.0	33.150	0.320	-0.160	-0.120
2020/01/31 12:14:17.1	33.230	0.330	-0.170	-0.080
2020/01/31 12:14:17.2	33.310	0.330	-0.170	-0.040
2020/01/31 12:14:17.3	33.390	0.330	-0.180	-0.010
2020/01/31 12:14:17.4	33.470	0.330	-0.180	0.030
2020/01/31 12:14:17.5	33.550	0.330	-0.180	0.070
2020/01/31 12:14:17.6	33.620	0.320	-0.180	0.100
2020/01/31 12:14:17.7	33.700	0.310	-0.180	0.140
2020/01/31 12:14:17.8	33.790	0.310	-0.190	0.170
2020/01/31 12:14:17.9	33.870	0.300	-0.190	0.200
2020/01/31 12:14:18.0	33.960	0.280	-0.190	0.230
2020/01/31 12:14:18.1	34.050	0.270	-0.190	0.260
2020/01/31 12:14:18.2	34.150	0.260	-0.200	0.280
2020/01/31 12:14:18.3	34.240	0.240	-0.200	0.300
2020/01/31 12:14:18.4	34.340	0.230	-0.200	0.320
2020/01/31 12:14:18.5	34.410	0.210	-0.210	0.330
2020/01/31 12:14:18.6	34.510	0.200	-0.210	0.350
2020/01/31 12:14:18.7	34.610	0.180	-0.220	0.360
2020/01/31 12:14:18.8	34.720	0.160	-0.220	0.370
2020/01/31 12:14:18.9	34.820	0.140	-0.230	0.380
2020/01/31 12:14:19.0	34.920	0.130	-0.230	0.380
2020/01/31 12:14:19.1	35.030	0.110	-0.240	0.390
2020/01/31 12:14:19.2	35.130	0.090	-0.240	0.390
2020/01/31 12:14:19.3	35.230	0.070	-0.240	0.390
2020/01/31 12:14:19.4	35.340	0.050	-0.250	0.390
2020/01/31 12:14:19.5	35.440	0.030	-0.250	0.380
2020/01/31 12:14:19.6	35.530	0.010	-0.250	0.380
2020/01/31 12:14:19.7	35.630	-0.010	-0.250	0.370
2020/01/31 12:14:19.8	35.740	-0.040	-0.250	0.360
2020/01/31 12:14:19.9	35.840	-0.060	-0.240	0.350
2020/01/31 12:14:20.0	35.940	-0.080	-0.240	0.340
2020/01/31 12:14:20.1	36.040	-0.100	-0.230	0.330
2020/01/31 12:14:20.2	36.130	-0.130	-0.220	0.310
2020/01/31 12:14:20.3	36.230	-0.150	-0.210	0.290
2020/01/31 12:14:20.4	36.320	-0.170	-0.200	0.270
2020/01/31 12:14:20.5	36.420	-0.190	-0.190	0.250
2020/01/31 12:14:20.6	36.490	-0.220	-0.180	0.230
2020/01/31 12:14:20.7	36.580	-0.240	-0.170	0.200
2020/01/31 12:14:20.8	36.670	-0.260	-0.150	0.170
2020/01/31 12:14:20.9	36.760	-0.280	-0.140	0.140
2020/01/31 12:14:21.0	36.850	-0.310	-0.120	0.110
2020/01/31 12:14:21.1	36.940	-0.330	-0.110	0.080
2020/01/31 12:14:21.2	37.030	-0.350	-0.100	0.040
2020/01/31 12:14:21.3	37.110	-0.370	-0.080	0.000
2020/01/31 12:14:21.4	37.200	-0.380	-0.070	-0.040
2020/01/31 12:14:21.5	37.240	-0.400	-0.050	-0.090
2020/01/31 12:14:21.6	37.330	-0.410	-0.040	-0.130
2020/01/31 12:14:21.7	37.410	-0.430	-0.030	-0.180
2020/01/31 12:14:21.8	37.500	-0.440	-0.020	-0.220
2020/01/31 12:14:21.9	37.580	-0.450	-0.010	-0.270
2020/01/31 12:14:22.0	37.670	-0.450	-0.010	-0.310
2020/01/31 12:14:22.1	37.750	-0.460	-0.000	-0.360
2020/01/31 12:14:22.2	37.840	-0.460	-0.000	-0.400
2020/01/31 12:14:22.3	37.920	-0.460	-0.000	-0.450
2020/01/31 12:14:22.4	38.000	-0.460	-0.000	-0.490
2020/01/31 12:14:22.5	38.080	-0.460	-0.010	-0.530
2020/01/31 12:14:22.6	38.140	-0.450	-0.010	-0.570
2020/01/31 12:14:22.7	38.220	-0.450	-0.020	-0.610
2020/01/31 12:14:22.8	38.300	-0.440	-0.030	-0.640
2020/01/31 12:14:22.9	38.380	-0.420	-0.040	-0.670
2020/01/31 12:14:23.0	38.460	-0.410	-0.060	-0.700
2020/01/31 12:14:23.1	38.540	-0.400	-0.070	-0.730
2020/01/31 12:14:23.2	38.620	-0.380	-0.090	-0.750
2020/01/31 12:14:23.3	38.700	-0.360	-0.110	-0.770
2020/01/31 12:14:23.4	38.780	-0.340	-0.130	-0.780
2020/01/31 12:14:23.5	38.860	-0.320	-0.150	-0.800
2020/01/31 12:14:23.6	38.930	-0.290	-0.170	-0.810
2020/01/31 12:14:23.7	39.010	-0.270	-0.190	-0.810
2020/01/31 12:14:23.8	39.090	-0.240	-0.210	-0.820
2020/01/31 12:14:23.9	39.180	-0.210	-0.230	-0.820
2020/01/31 12:14:24.0	39.260	-0.190	-0.250	-0.820
2020/01/31 12:14:24.1	39.350	-0.160	-0.270	-0.820
2020/01/31 12:14:24.2	39.440	-0.130	-0.290	-0.820
2020/01/31 12:14:24.3	39.520	-0.100	-0.310	-0.810
2020/01/31 12:14:24.4	39.610	-0.070	-0.330	-0.800
2020/01/31 12:14:24.5	39.700	-0.040	-0.340	-0.790
2020/01/31 12:14:24.6	39.790	-0.010	-0.360	-0.780
2020/01/31 12:14:24.7	39.890	0.020	-0.370	-0.770
2020/01/31 12:14:24.8	39.980	0.060	-0.390	-0.760
2020/01/31 12:14:24.9	40.080	0.090	-0.400	-0.750
2020/01/31 12:14:25.0	40.180	0.120	-0.410	-0.730
2020/01/31 12:14:25.1	40.280	0.150	-0.410	-0.720
2020/01/31 12:14:25.2	40.390	0.170	-0.420	-0.700
2020/01/31 12:14:25.3	40.490	0.200	-0.420	-0.680
2020/01/31 12:14:25.4	40.590	0.230	-0.420	-0.660
2020/01/31 12:14:25.5	40.700	0.260	-0.420	-0.640
2020/01/31 12:14:25.6	40.810	0.280	-0.430	-0.620
2020/01/31 12:14:25.7	40.910	0.310	-0.430	-0.590
2020/01/31 12:14:25.8	41.020	0.330	-0.420	-0.570
2020/01/31 12:14:25.9	41.120	0.350	-0.420	-0.540
2020/01/31 12:14:26.0	41.220	0.370	-0.410	-0.510
2020/01/31 12:14:26.1	41.330	0.390	-0.400	-0.480
2020/01/31 12:14:26.2	41.420	0.400	-0.390	-0.450
2020/01/31 12:14:26.3	41.520	0.420	-0.380	-0.410
2020/01/31 12:14:26.4	41.620	0.430	-0.370	-0.380
2020/01/31 12:14:26.5	41.710	0.440	-0.360	-0.340
2020/01/31 12:14:26.6	41.790	0.440	-0.340	-0.300
2020/01/31 12:14:26.7	41.880	0.450	-0.330	-0.260
2020/01/31 12:14:26.8	41.970	0.450	-0.310	-0.220
2020/01/31 12:14:26.9	42.050	0.440	-0.290	-0.170
2020/01/31 12:14:27.0	42.130	0.440	-0.270	-0.130
2020/01/31 12:14:27.1	42.210	0.430	-0.260	-0.080
2020/01/31 12:14:27.2	42.290	0.420	-0.230	-0.040
2020/01/31 12:14:27.3	42.360	0.410	-0.210	0.010
2020/01/31 12:14:27.4	42.430	0.390	-0.190	0.050
2020/01/31 12:14:27.5	42.500	0.370	-0.170	0.100
2020/01/31 12:14:27.6	42.570	0.350	-0.150	0.140
2020/01/31 12:14:27.7	42.640	0.330	-0.120	0.180
2020/01/31 12:14:27.8	42.710	0.300	-0.100	0.220
2020/01/31 12:14:27.9	42.770	0.270	-0.080	0.260
2020/01/31 12:14:28.0	42.840	0.250	-0.060	0.290
2020/01/31 12:14:28.1	42.900	0.220	-0.040	0.330
2020/01/31 12:14:28.2	42.970	0.190	-0.020	0.350
2020/01/31 12:14:28.3	43.040	0.160	0.000	0.380
2020/01/31 12:14:28.4	43.110	0.120	0.020	0.400
2020/01/31 12:14:28.5	43.190	0.090	0.040	0.410
2020/01/31 12:14:28.6	43.260	0.060	0.060	0.430
2020/01/31 12:14:28.7	43.330	0.030	0.070	0.430
2020/01/31 12:14:28.8	43.400	0.000	0.080	0.440
2020/01/31 12:14:28.9	43.480	-0.020	0.090	0.440
2020/01/31 12:14:29.0	43.550	-0.050	0.100	0.430
2020/01/31 12:14:29.1	43.630	-0.070	0.100	0.420
2020/01/31 12:14:29.2	43.710	-0.090	0.100	0.410
2020/01/31 12:14:29.3	43.790	-0.110	0.110	0.390
2020/01/31 12:14:29.4	43.880	-0.130	0.110	0.370
2020/01/31 12:14:29.5	43.960	-0.150	0.100	0.350
2020/01/31 12:14:29.6	44.060	-0.160	0.100	0.320
2020/01/31 12:14:29.7	44.150	-0.170	0.090	0.290
2020/01/31 12:14:29.8	44.250	-0.180	0.080	0.260
2020/01/31 12:14:29.9	44.340	-0.180	0.070	0.220
2020/01/31 12:14:30.0	44.440	-0.180	0.060	0.190
2020/01/31 12:14:30.1	44.540	-0.180	0.050	0.150
2020/01/31 12:14:30.2	44.640	-0.180	0.040	0.110
2020/01/31 12:14:30.3	44.750	-0.170	0.020	0.070
2020/01/31 12:14:30.4	44.850	-0.160	0.010	0.040
2020/01/31 12:14:30.5	44.960	-0.150	-0.010	-0.000
2020/01/31 12:14:30.6	45.070	-0.140	-0.020	-0.040
2020/01/31 12:14:30.7	45.180	-0.130	-0.030	-0.080
2020/01/31 12:14:30.8	45.290	-0.110	-0.050	-0.120
2020/01/31 12:14:30.9	45.400	-0.100	-0.060	-0.160
2020/01/31 12:14:31.0	45.520	-0.080	-0.080	-0.190
2020/01/31 12:14:31.1	45.630	-0.060	-0.090	-0.220
2020/01/31 12:14:31.2	45.740	-0.040	-0.100	-0.250
2020/01/31 12:14:31.3	45.860	-0.030	-0.110	-0.280
2020/01/31 12:14:31.4	45.970	-0.010	-0.120	-0.300
2020/01/31 12:14:31.5	46.080	0.010	-0.130	-0.330
2020/01/31 12:14:31.6	46.200	0.020	-0.140	-0.350
2020/01/31 12:14:31.7	46.310	0.040	-0.140	-0.360
2020/01/31 12:14:31.8	46.420	0.050	-0.140	-0.370
2020/01/31 12:14:31.9	46.520	0.060	-0.140	-0.380
2020/01/31 12:14:32.0	46.630	0.070	-0.140	-0.390
2020/01/31 12:14:32.1	46.740	0.080	-0.140	-0.390
2020/01/31 12:14:32.2	46.840	0.080	-0.130	-0.390
2020/01/31 12:14:32.3	46.940	0.090	-0.130	-0.380
2020/01/31 12:14:32.4	47.040	0.090	-0.120	-0.370
2020/01/31 12:14:32.5	47.140	0.090	-0.110	-0.360
2020/01/31 12:14:32.6	47.240	0.090	-0.100	-0.350
2020/01/31 12:14:32.7	47.340	0.080	-0.090	-0.330
2020/01/31 12:14:32.8	47.430	0.070	-0.090	-0.310
2020/01/31 12:14:32.9	47.520	0.060	-0.080	-0.280
2020/01/31 12:14:33.0	47.610	0.050	-0.070	-0.250
2020/01/31 12:14:33.1	47.700	0.040	-0.060	-0.230
2020/01/31 12:14:33.2	47.790	0.020	-0.050	-0.200
2020/01/31 12:14:33.3	47.870	0.010	-0.040	-0.170
2020/01/31 12:14:33.4	47.950	-0.010	-0.040	-0.130
2020/01/31 12:14:33.5	48.030	-0.030	-0.030	-0.100
2020/01/31 12:14:33.6	48.120	-0.050	-0.030	-0.070
2020/01/31 12:14:33.7	48.200	-0.070	-0.030	-0.040
2020/01/31 12:14:33.8	48.280	-0.090	-0.020	-0.010
2020/01/31 12:14:33.9	48.360	-0.110	-0.020	0.020
2020/01/31 12:14:34.0	48.430	-0.130	-0.030	0.050
2020/01/31 12:14:34.1	48.500	-0.140	-0.030	0.070
2020/01/31 12:14:34.2	48.580	-0.160	-0.030	0.090
2020/01/31 12:14:34.3	48.650	-0.180	-0.040	0.120
2020/01/31 12:14:34.4	48.720	-0.190	-0.050	0.130
2020/01/31 12:14:34.5	48.820	-0.210	-0.060	0.150
2020/01/31 12:14:34.6	48.890	-0.220	-0.070	0.160
2020/01/31 12:14:34.7	48.970	-0.230	-0.080	0.170
2020/01/31 12:14:34.8	49.050	-0.230	-0.100	0.180
2020/01/31 12:14:34.9	49.120	-0.240	-0.110	0.180
2020/01/31 12:14:35.0	49.200	-0.240	-0.130	0.180
2020/01/31 12:14:35.1	49.280	-0.240	-0.150	0.180
2020/01/31 12:14:35.2	49.360	-0.240	-0.170	0.180
2020/01/31 12:14:35.3	49.440	-0.230	-0.200	0.170
2020/01/31 12:14:35.4	49.530	-0.220	-0.220	0.160
2020/01/31 12:14:35.5	49.650	-0.210	-0.240	0.150
2020/01/31 12:14:35.6	49.730	-0.200	-0.270	0.140
2020/01/31 12:14:35.7	49.820	-0.180	-0.290	0.120
2020/01/31 12:14:35.8	49.910	-0.170	-0.320	0.110
2020/01/31 12:14:35.9	50.000	-0.150	-0.340	0.090
2020/01/31 12:14:36.0	50.090	-0.130	-0.360	0.070
2020/01/31 12:14:36.1	50.190	-0.110	-0.390	0.050
2020/01/31 12:14:36.2	50.280	-0.080	-0.410	0.030
2020/01/31 12:14:36.3	50.370	-0.060	-0.420	0.020
2020/01/31 12:14:36.4	50.460	-0.040	-0.440	0.000
2020/01/31 12:14:36.5	50.550	-0.010	-0.450	-0.010
2020/01/31 12:14:36.6	50.640	0.010	-0.460	-0.020
2020/01/31 12:14:36.7	50.730	0.030	-0.470	-0.040
2020/01/31 12:14:36.8	50.820	0.050	-0.470	-0.050
2020/01/31 12:14:36.9	50.910	0.070	-0.470	-0.060
2020/01/31 12:14:37.0	51.000	0.090	-0.470	-0.060
2020/01/31 12:14:37.1	51.090	0.110	-0.460	-0.070
2020/01/31 12:14:37.2	51.180	0.130	-0.440	-0.070
2020/01/31 12:14:37.3	51.260	0.140	-0.430	-0.080
2020/01/31 12:14:37.4	51.350	0.150	-0.410	-0.080
2020/01/31 12:14:37.5	51.430	0.160	-0.380	-0.080
2020/01/31 12:14:37.6	51.520	0.160	-0.350	-0.080
2020/01/31 12:14:37.7	51.600	0.170	-0.320	-0.080
2020/01/31 12:14:37.8	51.690	0.170	-0.290	-0.080
2020/01/31 12:14:37.9	51.770	0.170	-0.260	-0.070
2020/01/31 12:14:38.0	51.850	0.160	-0.220	-0.070
2020/01/31 12:14:38.1	51.930	0.160	-0.180	-0.070
2020/01/31 12:14:38.2	52.010	0.150	-0.140	-0.060
2020/01/31 12:14:38.3	52.090	0.140	-0.100	-0.060
2020/01/31 12:14:38.4	52.170	0.120	-0.060	-0.050
2020/01/31 12:14:38.5	52.240	0.110	-0.020	-0.050
2020/01/31 12:14:38.6	52.310	0.090	0.020	-0.040
2020/01/31 12:14:38.7	52.390	0.070	0.060	-0.040
2020/01/31 12:14:38.8	52.470	0.050	0.100	-0.040
2020/01/31 12:14:38.9	52.540	0.030	0.140	-0.040
2020/01/31 12:14:39.0	52.620	0.010	0.170	-0.030
2020/01/31 12:14:39.1	52.690	-0.020	0.200	-0.030
2020/01/31 12:14:39.2	52.770	-0.040	0.230	-0.030
2020/01/31 12:14:39.3	52.840	-0.060	0.250	-0.040
2020/01/31 12:14:39.4	52.920	-0.090	0.270	-0.040
2020/01/31 12:14:39.5	52.990	-0.110	0.290	-0.040
2020/01/31 12:14:39.6	53.080	-0.130	0.300	-0.050
2020/01/31 12:14:39.7	53.150	-0.150	0.310	-0.060
2020/01/31 12:14:39.8	53.220	-0.170	0.310	-0.070
2020/01/31 12:14:39.9	53.300	-0.190	0.310	-0.080
2020/01/31 12:14:40.0	53.370	-0.200	0.310	-0.090
2020/01/31 12:14:40.1	53.450	-0.210	0.300	-0.100
2020/01/31 12:14:40.2	53.520	-0.220	0.290	-0.120
2020/01/31 12:14:40.3	53.600	-0.230	0.270	-0.130
2020/01/31 12:14:40.4	53.680	-0.240	0.250	-0.140
2020/01/31 12:14:40.5	53.760	-0.240	0.230	-0.160
2020/01/31 12:14:40.6	53.850	-0.240	0.200	-0.170
2020/01/31 12:14:40.7	53.930	-0.230	0.170	-0.180
2020/01/31 12:14:40.8	54.020	-0.230	0.140	-0.200
2020/01/31 12:14:40.9	54.100	-0.220	0.100	-0.210
2020/01/31 12:14:41.0	54.190	-0.200	0.070	-0.230
2020/01/31 12:14:41.1	54.290	-0.190	0.020	-0.240
2020/01/31 12:14:41.2	54.380	-0.170	-0.020	-0.250
2020/01/31 12:14:41.3	54.480	-0.150	-0.060	-0.270
2020/01/31 12:14:41.4	54.580	-0.130	-0.110	-0.280
2020/01/31 12:14:41.5	54.680	-0.100	-0.160	-0.290
2020/01/31 12:14:41.6	54.780	-0.070	-0.210	-0.300
2020/01/31 12:14:41.7	54.890	-0.040	-0.260	-0.310
2020/01/31 12:14:41.8	55.000	-0.010	-0.300	-0.320
2020/01/31 12:14:41.9	55.110	0.020	-0.350	-0.330
2020/01/31 12:14:42.0	55.230	0.050	-0.400	-0.340
2020/01/31 12:14:42.1	55.340	0.080	-0.440	-0.350
2020/01/31 12:14:42.2	55.460	0.110	-0.490	-0.360
2020/01/31 12:14:42.3	55.570	0.140	-0.530	-0.370
2020/01/31 12:14:42.4	55.690	0.180	-0.570	-0.370
2020/01/31 12:14:42.5	55.800	0.210	-0.600	-0.370
2020/01/31 12:14:42.6	55.920	0.230	-0.630	-0.370
2020/01/31 12:14:42.7	56.040	0.260	-0.660	-0.360
2020/01/31 12:14:42.8	56.150	0.280	-0.680	-0.360
2020/01/31 12:14:42.9	56.260	0.310	-0.700	-0.350
2020/01/31 12:14:43.0	56.380	0.330	-0.710	-0.340
2020/01/31 12:14:43.1	56.490	0.340	-0.720	-0.330
2020/01/31 12:14:43.2	56.590	0.350	-0.730	-0.310
2020/01/31 12:14:43.3	56.700	0.360	-0.730	-0.290
2020/01/31 12:14:43.4	56.800	0.370	-0.720	-0.270
2020/01/31 12:14:43.5	56.900	0.370	-0.710	-0.240
2020/01/31 12:14:43.6	56.980	0.380	-0.700	-0.220
2020/01/31 12:14:43.7	57.070	0.370	-0.670	-0.190
2020/01/31 12:14:43.8	57.170	0.370	-0.650	-0.160
2020/01/31 12:14:43.9	57.250	0.360	-0.610	-0.130
2020/01/31 12:14:44.0	57.340	0.340	-0.580	-0.090
2020/01/31 12:14:44.1	57.420	0.330	-0.540	-0.050
2020/01/31 12:14:44.2	57.500	0.310	-0.490	-0.010
2020/01/31 12:14:44.3	57.580	0.290	-0.440	0.030
2020/01/31 12:14:44.4	57.650	0.260	-0.390	0.080
2020/01/31 12:14:44.5	57.730	0.240	-0.340	0.120
2020/01/31 12:14:44.6	57.800	0.210	-0.280	0.170
2020/01/31 12:14:44.7	57.860	0.180	-0.220	0.210
2020/01/31 12:14:44.8	57.930	0.150	-0.160	0.260
2020/01/31 12:14:44.9	58.000	0.120	-0.110	0.300
2020/01/31 12:14:45.0	58.060	0.090	-0.050	0.350
2020/01/31 12:14:45.1	58.130	0.050	0.010	0.390
2020/01/31 12:14:45.2	58.190	0.020	0.070	0.430
2020/01/31 12:14:45.3	58.250	-0.010	0.120	0.470
2020/01/31 12:14:45.4	58.320	-0.050	0.170	0.500
2020/01/31 12:14:45.5	58.360	-0.080	0.220	0.530
2020/01/31 12:14:45.6	58.430	-0.110	0.270	0.560
2020/01/31 12:14:45.7	58.490	-0.140	0.310	0.590
2020/01/31 12:14:45.8	58.560	-0.170	0.350	0.610
2020/01/31 12:14:45.9	58.620	-0.190	0.390	0.630
2020/01/31 12:14:46.0	58.690	-0.220	0.410	0.640
2020/01/31 12:14:46.1	58.760	-0.240	0.440	0.650
2020/01/31 12:14:46.2	58.830	-0.260	0.460	0.660
2020/01/31 12:14:46.3	58.900	-0.280	0.480	0.660
2020/01/31 12:14:46.4	58.970	-0.290	0.480	0.660
2020/01/31 12:14:46.5	59.040	-0.310	0.490	0.660
2020/01/31 12:14:46.6	59.100	-0.320	0.480	0.640
2020/01/31 12:14:46.7	59.180	-0.330	0.480	0.630
2020/01/31 12:14:46.8	59.260	-0.330	0.470	0.610
2020/01/31 12:14:46.9	59.340	-0.330	0.450	0.590
2020/01/31 12:14:47.0	59.430	-0.330	0.430	0.570
2020/01/31 12:14:47.1	59.510	-0.330	0.410	0.550
2020/01/31 12:14:47.2	59.600	-0.320	0.380	0.520
2020/01/31 12:14:47.3	59.690	-0.310	0.340	0.490
2020/01/31 12:14:47.4	59.780	-0.300	0.300	0.460
2020/01/31 12:14:47.5	59.870	-0.290	0.270	0.420
2020/01/31 12:14:47.6	59.970	-0.270	0.230	0.400
2020/01/31 12:14:47.7	60.070	-0.250	0.180	0.360
2020/01/31 12:14:47.8	60.160	-0.230	0.130	0.330
2020/01/31 12:14:47.9	60.260	-0.210	0.090	0.300
2020/01/31 12:14:48.0	60.350	-0.190	0.040	0.270
2020/01/31 12:14:48.1	60.450	-0.170	-0.010	0.240
2020/01/31 12:14:48.2	60.550	-0.140	-0.060	0.210
2020/01/31 12:14:48.3	60.640	-0.120	-0.110	0.180
2020/01/31 12:14:48.4	60.740	-0.090	-0.150	0.160
2020/01/31 12:14:48.5	60.840	-0.070	-0.200	0.130
2020/01/31 12:14:48.6	60.930	-0.040	-0.240	0.110
2020/01/31 12:14:48.7	61.030	-0.020	-0.280	0.100
2020/01/31 12:14:48.8	61.120	0.010	-0.310	0.080
2020/01/31 12:14:48.9	61.210	0.030	-0.340	0.070
2020/01/31 12:14:49.0	61.300	0.050	-0.370	0.060
2020/01/31 12:14:49.1	61.390	0.070	-0.400	0.050
2020/01/31 12:14:49.2	61.480	0.080	-0.420	0.050
2020/01/31 12:14:49.3	61.570	0.100	-0.440	0.040
2020/01/31 12:14:49.4	61.650	0.110	-0.450	0.040
2020/01/31 12:14:49.5	61.720	0.120	-0.470	0.040
2020/01/31 12:14:49.6	61.810	0.130	-0.470	0.030
2020/01/31 12:14:49.7	61.890	0.130	-0.480	0.030
2020/01/31 12:14:49.8	61.980	0.140	-0.480	0.030
2020/01/31 12:14:49.9	62.060	0.140	-0.480	0.030
2020/01/31 12:14:50.0	62.150	0.140	-0.470	0.020
2020/01/31 12:14:50.1	62.230	0.130	-0.470	0.020
2020/01/31 12:14:50.2	62.310	0.130	-0.460	0.020
2020/01/31 12:14:50.3	62.400	0.120	-0.450	0.010
2020/01/31 12:14:50.4	62.480	0.110	-0.440	0.010
2020/01/31 12:14:50.5	62.570	0.110	-0.420	-0.000
2020/01/31 12:14:50.6	62.660	0.090	-0.410	-0.010
2020/01/31 12:14:50.7	62.750	0.080	-0.390	-0.030
2020/01/31 12:14:50.8	62.840	0.070	-0.380	-0.040
2020/01/31 12:14:50.9	62.920	0.060	-0.370	-0.050
2020/01/31 12:14:51.0	63.010	0.050	-0.350	-0.070
2020/01/31 12:14:51.1	63.100	0.040	-0.340	-0.090
2020/01/31 12:14:51.2	63.190	0.020	-0.330	-0.100
2020/01/31 12:14:51.3	63.280	0.010	-0.310	-0.120
2020/01/31 12:14:51.4	63.370	0.000	-0.300	-0.140
2020/01/31 12:14:51.5	63.460	-0.010	-0.290	-0.160
2020/01/31 12:14:51.6	63.550	-0.020	-0.280	-0.180
2020/01/31 12:14:51.7	63.630	-0.030	-0.270	-0.190
2020/01/31 12:14:51.8	63.720	-0.030	-0.260	-0.210
2020/01/31 12:14:51.9	63.810	-0.040	-0.250	-0.220
2020/01/31 12:14:52.0	63.900	-0.050	-0.240	-0.230
2020/01/31 12:14:52.1	63.990	-0.050	-0.230	-0.240
2020/01/31 12:14:52.2	64.070	-0.060	-0.210	-0.250
2020/01/31 12:14:52.3	64.160	-0.060	-0.200	-0.250
2020/01/31 12:14:52.4	64.240	-0.070	-0.190	-0.260
2020/01/31 12:14:52.5	64.330	-0.070	-0.170	-0.250
2020/01/31 12:14:52.6	64.410	-0.070	-0.160	-0.250
2020/01/31 12:14:52.7	64.490	-0.080	-0.140	-0.250
2020/01/31 12:14:52.8	64.570	-0.080	-0.120	-0.250
2020/01/31 12:14:52.9	64.650	-0.080	-0.110	-0.240
2020/01/31 12:14:53.0	64.730	-0.080	-0.090	-0.240
2020/01/31 12:14:53.1	64.810	-0.090	-0.070	-0.230
2020/01/31 12:14:53.2	64.890	-0.090	-0.050	-0.220
2020/01/31 12:14:53.3	64.970	-0.090	-0.030	-0.210
2020/01/31 12:14:53.4	65.050	-0.090	-0.010	-0.200
2020/01/31 12:14:53.5	65.130	-0.100	0.000	-0.200
2020/01/31 12:14:53.6	65.210	-0.100	0.020	-0.190
2020/01/31 12:14:53.7	65.290	-0.100	0.040	-0.180
2020/01/31 12:14:53.8	65.370	-0.100	0.060	-0.180
2020/01/31 12:14:53.9	65.450	-0.110	0.070	-0.170
2020/01/31 12:14:54.0	65.530	-0.110	0.090	-0.160
2020/01/31 12:14:54.1	65.610	-0.110	0.100	-0.150
2020/01/31 12:14:54.2	65.690	-0.110	0.110	-0.150
2020/01/31 12:14:54.3	65.780	-0.110	0.120	-0.140
2020/01/31 12:14:54.4	65.860	-0.120	0.130	-0.130
2020/01/31 12:14:54.5	65.950	-0.120	0.140	-0.130
2020/01/31 12:14:54.6	66.030	-0.120	0.150	-0.120
2020/01/31 12:14:54.7	66.120	-0.120	0.150	-0.110
2020/01/31 12:14:54.8	66.210	-0.120	0.150	-0.110
2020/01/31 12:14:54.9	66.300	-0.110	0.150	-0.100
2020/01/31 12:14:55.0	66.390	-0.110	0.140	-0.090
2020/01/31 12:14:55.1	66.480	-0.110	0.140	-0.080
2020/01/31 12:14:55.2	66.570	-0.100	0.130	-0.070
2020/01/31 12:14:55.3	66.660	-0.100	0.120	-0.060
2020/01/31 12:14:55.4	66.750	-0.090	0.110	-0.050
2020/01/31 12:14:55.5	66.840	-0.090	0.090	-0.050
2020/01/31 12:14:55.6	66.930	-0.080	0.080	-0.030
2020/01/31 12:14:55.7	67.030	-0.070	0.060	-0.020
2020/01/31 12:14:55.8	67.120	-0.060	0.050	0.000
2020/01/31 12:14:55.9	67.210	-0.050	0.030	0.020
2020/01/31 12:14:56.0	67.310	-0.040	0.020	0.040
2020/01/31 12:14:56.1	67.400	-0.030	-0.000	0.060
2020/01/31 12:14:56.2	67.490	-0.020	-0.020	0.080
2020/01/31 12:14:56.3	67.580	-0.000	-0.030	0.110
2020/01/31 12:14:56.4	67.670	0.010	-0.050	0.130
2020/01/31 12:14:56.5	67.760	0.020	-0.060	0.160
2020/01/31 12:14:56.6	67.850	0.030	-0.080	0.190
2020/01/31 12:14:56.7	67.940	0.050	-0.100	0.220
2020/01/31 12:14:56.8	68.020	0.060	-0.110	0.250
2020/01/31 12:14:56.9	68.110	0.080	-0.130	0.280
2020/01/31 12:14:57.0	68.190	0.090	-0.140	0.310
2020/01/31 12:14:57.1	68.270	0.100	-0.160	0.350
2020/01/31 12:14:57.2	68.350	0.120	-0.170	0.380
2020/01/31 12:14:57.3	68.430	0.130	-0.190	0.410
2020/01/31 12:14:57.4	68.510	0.140	-0.210	0.440
2020/01/31 12:14:57.5	68.590	0.150	-0.220	0.470
2020/01/31 12:14:57.6	68.680	0.170	-0.240	0.500
2020/01/31 12:14:57.7	68.750	0.180	-0.260	0.530
2020/01/31 12:14:57.8	68.830	0.190	-0.280	0.560
2020/01/31 12:14:57.9	68.900	0.200	-0.290	0.590
2020/01/31 12:14:58.0	68.980	0.200	-0.310	0.610
2020/01/31 12:14:58.1	69.050	0.210	-0.330	0.630
2020/01/31 12:14:58.2	69.130	0.220	-0.350	0.650
2020/01/31 12:14:58.3	69.200	0.220	-0.380	0.670
2020/01/31 12:14:58.4	69.280	0.230	-0.400	0.690
2020/01/31 12:14:58.5	69.360	0.230	-0.420	0.700
2020/01/31 12:14:58.6	69.430	0.230	-0.440	0.710
2020/01/31 12:14:58.7	69.510	0.240	-0.460	0.720
2020/01/31 12:14:58.8	69.580	0.230	-0.480	0.720
2020/01/31 12:14:58.9	69.650	0.230	-0.500	0.720
2020/01/31 12:14:59.0	69.730	0.230	-0.520	0.720
2020/01/31 12:14:59.1	69.800	0.230	-0.540	0.720
2020/01/31 12:14:59.2	69.880	0.220	-0.560	0.710
2020/01/31 12:14:59.3	69.960	0.220	-0.580	0.700
2020/01/31 12:14:59.4	70.030	0.210	-0.590	0.690
2020/01/31 12:14:59.5	70.110	0.200	-0.610	0.680
2020/01/31 12:14:59.6	70.190	0.190	-0.620	0.670
2020/01/31 12:14:59.7	70.270	0.180	-0.630	0.650
2020/01/31 12:14:59.8	70.350	0.170	-0.640	0.630
2020/01/31 12:14:59.9	70.430	0.160	-0.650	0.610
2020/01/31 12:15:00.0	70.510	0.150	-0.650	0.590
2020/01/31 12:15:00.1	70.590	0.140	-0.650	0.570
2020/01/31 12:15:00.2	70.680	0.130	-0.650	0.550
2020/01/31 12:15:00.3	70.760	0.120	-0.640	0.530
2020/01/31 12:15:00.4	70.850	0.110	-0.630	0.510
2020/01/31 12:15:00.5	70.940	0.100	-0.620	0.480
2020/01/31 12:15:00.6	71.020	0.090	-0.600	0.460
2020/01/31 12:15:00.7	71.110	0.080	-0.570	0.440
2020/01/31 12:15:00.8	71.200	0.070	-0.550	0.410
2020/01/31 12:15:00.9	71.290	0.060	-0.520	0.390
2020/01/31 12:15:01.0	71.390	0.050	-0.490	0.360
2020/01/31 12:15:01.1	71.480	0.050	-0.450	0.330
2020/01/31 12:15:01.2	71.580	0.040	-0.410	0.310
2020/01/31 12:15:01.3	71.670	0.030	-0.370	0.280
2020/01/31 12:15:01.4	71.770	0.020	-0.320	0.260
2020/01/31 12:15:01.5	71.860	0.020	-0.270	0.230
2020/01/31 12:15:01.6	71.960	0.010	-0.220	0.200
2020/01/31 12:15:01.7	72.060	0.000	-0.160	0.180
2020/01/31 12:15:01.8	72.150	-0.010	-0.110	0.160
2020/01/31 12:15:01.9	72.250	-0.010	-0.050	0.140
2020/01/31 12:15:02.0	72.350	-0.020	0.020	0.120
2020/01/31 12:15:02.1	72.440	-0.030	0.080	0.100
2020/01/31 12:15:02.2	72.540	-0.040	0.140	0.080
2020/01/31 12:15:02.3	72.630	-0.050	0.200	0.070
2020/01/31 12:15:02.4	72.730	-0.060	0.260	0.060
2020/01/31 12:15:02.5	72.790	-0.070	0.330	0.050
2020/01/31 12:15:02.6	72.880	-0.080	0.390	0.040
2020/01/31 12:15:02.7	72.980	-0.090	0.440	0.040
2020/01/31 12:15:02.8	73.070	-0.100	0.500	0.030
2020/01/31 12:15:02.9	73.150	-0.120	0.550	0.030
2020/01/31 12:15:03.0	73.240	-0.130	0.600	0.030
2020/01/31 12:15:03.1	73.330	-0.150	0.650	0.030
2020/01/31 12:15:03.2	73.410	-0.160	0.690	0.030
2020/01/31 12:15:03.3	73.500	-0.180	0.730	0.040
2020/01/31 12:15:03.4	73.580	-0.200	0.760	0.040
2020/01/31 12:15:03.5	73.660	-0.210	0.790	0.040
2020/01/31 12:15:03.6	73.740	-0.230	0.810	0.050
2020/01/31 12:15:03.7	73.820	-0.250	0.830	0.060
2020/01/31 12:15:03.8	73.900	-0.270	0.840	0.060
2020/01/31 12:15:03.9	73.980	-0.280	0.850	0.070
2020/01/31 12:15:04.0	74.060	-0.300	0.850	0.070
2020/01/31 12:15:04.1	74.140	-0.320	0.840	0.080
2020/01/31 12:15:04.2	74.220	-0.340	0.830	0.080
2020/01/31 12:15:04.3	74.300	-0.350	0.810	0.090
2020/01/31 12:15:04.4	74.380	-0.370	0.780	0.090
2020/01/31 12:15:04.5	74.460	-0.380	0.750	0.090
2020/01/31 12:15:04.6	74.550	-0.390	0.720	0.090
2020/01/31 12:15:04.7	74.630	-0.400	0.670	0.090
2020/01/31 12:15:04.8	74.710	-0.410	0.620	0.090
2020/01/31 12:15:04.9	74.790	-0.410	0.570	0.090
2020/01/31 12:15:05.0	74.880	-0.420	0.510	0.080
2020/01/31 12:15:05.1	74.960	-0.420	0.440	0.080
2020/01/31 12:15:05.2	75.050	-0.420	0.370	0.070
2020/01/31 12:15:05.3	75.140	-0.410	0.290	0.060
2020/01/31 12:15:05.4	75.220	-0.410	0.220	0.060
2020/01/31 12:15:05.5	75.310	-0.400	0.130	0.050
2020/01/31 12:15:05.6	75.400	-0.390	0.050	0.040
2020/01/31 12:15:05.7	75.480	-0.380	-0.030	0.030
2020/01/31 12:15:05.8	75.570	-0.360	-0.120	0.030
2020/01/31 12:15:05.9	75.660	-0.340	-0.210	0.020
2020/01/31 12:15:06.0	75.750	-0.330	-0.290	0.010
2020/01/31 12:15:06.1	75.840	-0.300	-0.380	0.010
2020/01/31 12:15:06.2	75.940	-0.280	-0.460	-0.000
2020/01/31 12:15:06.3	76.030	-0.260	-0.540	-0.010
2020/01/31 12:15:06.4	76.120	-0.230	-0.620	-0.010
2020/01/31 12:15:06.5	76.220	-0.210	-0.700	-0.020
2020/01/31 12:15:06.6	76.310	-0.180	-0.770	-0.020
2020/01/31 12:15:06.7	76.410	-0.150	-0.840	-0.030
2020/01/31 12:15:06.8	76.500	-0.120	-0.900	-0.030
2020/01/31 12:15:06.9	76.600	-0.090	-0.950	-0.030
2020/01/31 12:15:07.0	76.690	-0.060	-1.010	-0.030
2020/01/31 12:15:07.1	76.790	-0.030	-1.050	-0.040
2020/01/31 12:15:07.2	76.880	-0.000	-1.090	-0.030
2020/01/31 12:15:07.3	76.980	0.030	-1.120	-0.030
2020/01/31 12:15:07.4	77.080	0.050	-1.150	-0.030
2020/01/31 12:15:07.5	77.190	0.080	-1.170	-0.020
2020/01/31 12:15:07.6	77.290	0.110	-1.180	-0.010
2020/01/31 12:15:07.7	77.390	0.130	-1.180	-0.000
2020/01/31 12:15:07.8	77.480	0.150	-1.180	0.010
2020/01/31 12:15:07.9	77.580	0.180	-1.170	0.030
2020/01/31 12:15:08.0	77.670	0.190	-1.150	0.050
2020/01/31 12:15:08.1	77.760	0.210	-1.130	0.070
2020/01/31 12:15:08.2	77.850	0.230	-1.100	0.090
2020/01/31 12:15:08.3	77.940	0.240	-1.060	0.120
2020/01/31 12:15:08.4	78.030	0.250	-1.020	0.150
2020/01/31 12:15:08.5	78.110	0.250	-0.970	0.180
2020/01/31 12:15:08.6	78.200	0.260	-0.920	0.220
2020/01/31 12:15:08.7	78.280	0.260	-0.860	0.250
2020/01/31 12:15:08.8	78.350	0.260	-0.790	0.290
2020/01/31 12:15:08.9	78.430	0.260	-0.720	0.330
2020/01/31 12:15:09.0	78.490	0.250	-0.650	0.380
2020/01/31 12:15:09.1	78.560	0.240	-0.570	0.420
2020/01/31 12:15:09.2	78.630	0.230	-0.490	0.460
2020/01/31 12:15:09.3	78.690	0.220	-0.410	0.510
2020/01/31 12:15:09.4	78.750	0.200	-0.330	0.550
2020/01/31 12:15:09.5	78.820	0.190	-0.240	0.600
2020/01/31 12:15:09.6	78.870	0.170	-0.160	0.640
2020/01/31 12:15:09.7	78.930	0.150	-0.080	0.680
2020/01/31 12:15:09.8	78.990	0.130	0.000	0.720
2020/01/31 12:15:09.9	79.040	0.110	0.080	0.760
2020/01/31 12:15:10.0	79.100	0.090	0.160	0.800
2020/01/31 12:15:10.1	79.150	0.070	0.230	0.830
2020/01/31 12:15:10.2	79.210	0.050	0.290	0.860
2020/01/31 12:15:10.3	79.260	0.030	0.350	0.890
2020/01/31 12:15:10.4	79.320	0.010	0.410	0.910
2020/01/31 12:15:10.5	79.400	-0.010	0.460	0.930
2020/01/31 12:15:10.6	79.460	-0.020	0.500	0.940
2020/01/31 12:15:10.7	79.520	-0.040	0.530	0.950
2020/01/31 12:15:10.8	79.580	-0.050	0.560	0.960
2020/01/31 12:15:10.9	79.640	-0.060	0.580	0.960
2020/01/31 12:15:11.0	79.710	-0.070	0.590	0.960
2020/01/31 12:15:11.1	79.780	-0.070	0.590	0.950
2020/01/31 12:15:11.2	79.840	-0.070	0.590	0.940
2020/01/31 12:15:11.3	79.920	-0.070	0.580	0.920
2020/01/31 12:15:11.4	79.990	-0.070	0.560	0.900
2020/01/31 12:15:11.5	80.070	-0.060	0.530	0.870
2020/01/31 12:15:11.6	80.160	-0.050	0.500	0.850
2020/01/31 12:15:11.7	80.240	-0.040	0.460	0.820
2020/01/31 12:15:11.8	80.330	-0.030	0.410	0.780
2020/01/31 12:15:11.9	80.410	-0.010	0.360	0.740
2020/01/31 12:15:12.0	80.500	0.000	0.300	0.700
2020/01/31 12:15:12.1	80.590	0.020	0.240	0.650
2020/01/31 12:15:12.2	80.680	0.040	0.180	0.600
2020/01/31 12:15:12.3	80.770	0.070	0.110	0.550
2020/01/31 12:15:12.4	80.870	0.090	0.050	0.500
2020/01/31 12:15:12.5	80.940	0.110	-0.020	0.440
2020/01/31 12:15:12.6	81.040	0.130	-0.090	0.380
2020/01/31 12:15:12.7	81.140	0.160	-0.150	0.330
2020/01/31 12:15:12.8	81.240	0.180	-0.220	0.270
2020/01/31 12:15:12.9	81.340	0.200	-0.270	0.220
2020/01/31 12:15:13.0	81.450	0.220	-0.330	0.160
2020/01/31 12:15:13.1	81.550	0.240	-0.380	0.110
2020/01/31 12:15:13.2	81.650	0.260	-0.430	0.060
2020/01/31 12:15:13.3	81.760	0.280	-0.470	0.010
2020/01/31 12:15:13.4	81.860	0.290	-0.510	-0.040
2020/01/31 12:15:13.5	81.960	0.300	-0.540	-0.080
2020/01/31 12:15:13.6	82.060	0.310	-0.570	-0.120
2020/01/31 12:15:13.7	82.170	0.320	-0.590	-0.160
2020/01/31 12:15:13.8	82.270	0.330	-0.600	-0.200
2020/01/31 12:15:13.9	82.370	0.330	-0.610	-0.230
2020/01/31 12:15:14.0	82.470	0.330	-0.620	-0.260
2020/01/31 12:15:14.1	82.570	0.330	-0.610	-0.290
2020/01/31 12:15:14.2	82.670	0.320	-0.600	-0.310
2020/01/31 12:15:14.3	82.760	0.310	-0.590	-0.320
2020/01/31 12:15:14.4	82.860	0.300	-0.570	-0.340
2020/01/31 12:15:14.5	82.950	0.290	-0.550	-0.350
2020/01/31 12:15:14.6	83.040	0.270	-0.510	-0.360
2020/01/31 12:15:14.7	83.130	0.260	-0.480	-0.360
2020/01/31 12:15:14.8	83.210	0.240	-0.440	-0.370
2020/01/31 12:15:14.9	83.300	0.220	-0.400	-0.370
2020/01/31 12:15:15.0	83.380	0.190	-0.360	-0.360
2020/01/31 12:15:15.1	83.470	0.170	-0.320	-0.360
2020/01/31 12:15:15.2	83.550	0.140	-0.270	-0.350
2020/01/31 12:15:15.3	83.630	0.120	-0.230	-0.350
2020/01/31 12:15:15.4	83.710	0.090	-0.180	-0.340
2020/01/31 12:15:15.5	83.790	0.060	-0.140	-0.330
2020/01/31 12:15:15.6	83.850	0.040	-0.090	-0.320
2020/01/31 12:15:15.7	83.930	0.010	-0.050	-0.300
2020/01/31 12:15:15.8	84.000	-0.020	-0.010	-0.290
2020/01/31 12:15:15.9	84.080	-0.040	0.030	-0.270
2020/01/31 12:15:16.0	84.160	-0.070	0.070	-0.260
2020/01/31 12:15:16.1	84.240	-0.090	0.100	-0.240
2020/01/31 12:15:16.2	84.320	-0.120	0.130	-0.220
2020/01/31 12:15:16.3	84.400	-0.140	0.160	-0.200
2020/01/31 12:15:16.4	84.480	-0.160	0.180	-0.180
2020/01/31 12:15:16.5	84.560	-0.180	0.210	-0.160
2020/01/31 12:15:16.6	84.640	-0.190	0.220	-0.130
2020/01/31 12:15:16.7	84.720	-0.210	0.230	-0.100
2020/01/31 12:15:16.8	84.800	-0.220	0.240	-0.070
2020/01/31 12:15:16.9	84.880	-0.230	0.250	-0.040
2020/01/31 12:15:17.0	84.960	-0.240	0.250	-0.010
2020/01/31 12:15:17.1	85.040	-0.250	0.250	0.030
2020/01/31 12:15:17.2	85.120	-0.250	0.240	0.060
2020/01/31 12:15:17.3	85.200	-0.260	0.240	0.100
2020/01/31 12:15:17.4	85.280	-0.260	0.230	0.140
2020/01/31 12:15:17.5	85.350	-0.260	0.220	0.180
2020/01/31 12:15:17.6	85.410	-0.260	0.210	0.220
2020/01/31 12:15:17.7	85.490	-0.260	0.190	0.250
2020/01/31 12:15:17.8	85.570	-0.260	0.180	0.290
2020/01/31 12:15:17.9	85.640	-0.260	0.160	0.330
2020/01/31 12:15:18.0	85.720	-0.250	0.150	0.370
2020/01/31 12:15:18.1	85.800	-0.250	0.130	0.410
2020/01/31 12:15:18.2	85.880	-0.250	0.110	0.440
2020/01/31 12:15:18.3	85.960	-0.250	0.090	0.480
2020/01/31 12:15:18.4	86.040	-0.240	0.070	0.510
2020/01/31 12:15:18.5	86.120	-0.240	0.050	0.540
2020/01/31 12:15:18.6	86.200	-0.240	0.030	0.570
2020/01/31 12:15:18.7	86.280	-0.230	0.010	0.590
2020/01/31 12:15:18.8	86.360	-0.230	-0.010	0.620
2020/01/31 12:15:18.9	86.440	-0.230	-0.030	0.640
2020/01/31 12:15:19.0	86.520	-0.230	-0.050	0.660
2020/01/31 12:15:19.1	86.600	-0.230	-0.080	0.680
2020/01/31 12:15:19.2	86.680	-0.230	-0.100	0.690
2020/01/31 12:15:19.3	86.760	-0.230	-0.120	0.710
2020/01/31 12:15:19.4	86.840	-0.230	-0.150	0.720
2020/01/31 12:15:19.5	86.920	-0.230	-0.170	0.730
2020/01/31 12:15:19.6	87.000	-0.230	-0.200	0.740
2020/01/31 12:15:19.7	87.080	-0.230	-0.220	0.740
2020/01/31 12:15:19.8	87.160	-0.230	-0.240	0.750
2020/01/31 12:15:19.9	87.240	-0.230	-0.270	0.750
2020/01/31 12:15:20.0	87.320	-0.230	-0.290	0.750
2020/01/31 12:15:20.1	87.400	-0.230	-0.320	0.750
2020/01/31 12:15:20.2	87.480	-0.230	-0.340	0.750
2020/01/31 12:15:20.3	87.560	-0.230	-0.360	0.750
2020/01/31 12:15:20.4	87.640	-0.220	-0.380	0.750
2020/01/31 12:15:20.5	87.710	-0.220	-0.400	0.750
2020/01/31 12:15:20.6	87.790	-0.220	-0.420	0.740
2020/01/31 12:15:20.7	87.870	-0.210	-0.430	0.740
2020/01/31 12:15:20.8	87.950	-0.210	-0.450	0.740
2020/01/31 12:15:20.9	88.030	-0.200	-0.460	0.730
2020/01/31 12:15:21.0	88.100	-0.200	-0.460	0.730
2020/01/31 12:15:21.1	88.180	-0.190	-0.470	0.730
2020/01/31 12:15:21.2	88.260	-0.180	-0.470	0.720
2020/01/31 12:15:21.3	88.340	-0.170	-0.470	0.720
2020/01/31 12:15:21.4	88.420	-0.160	-0.470	0.710
2020/01/31 12:15:21.5	88.480	-0.150	-0.460	0.700
2020/01/31 12:15:21.6	88.560	-0.140	-0.450	0.700
2020/01/31 12:15:21.7	88.640	-0.130	-0.440	0.690
2020/01/31 12:15:21.8	88.720	-0.120	-0.420	0.680
2020/01/31 12:15:21.9	88.790	-0.110	-0.410	0.670
2020/01/31 12:15:22.0	88.870	-0.100	-0.380	0.660
2020/01/31 12:15:22.1	88.950	-0.080	-0.360	0.650
2020/01/31 12:15:22.2	89.020	-0.070	-0.330	0.640
2020/01/31 12:15:22.3	89.100	-0.060	-0.310	0.630
2020/01/31 12:15:22.4	89.170	-0.050	-0.270	0.620
2020/01/31 12:15:22.5	89.230	-0.030	-0.240	0.610
2020/01/31 12:15:22.6	89.310	-0.020	-0.210	0.600
2020/01/31 12:15:22.7	89.380	-0.010	-0.170	0.580
2020/01/31 12:15:22.8	89.450	-0.000	-0.130	0.570
2020/01/31 12:15:22.9	89.510	0.010	-0.100	0.550
2020/01/31 12:15:23.0	89.580	0.020	-0.060	0.540
2020/01/31 12:15:23.1	89.640	0.030	-0.030	0.520
2020/01/31 12:15:23.2	89.710	0.040	0.010	0.500
2020/01/31 12:15:23.3	89.760	0.050	0.040	0.480
2020/01/31 12:15:23.4	89.820	0.050	0.070	0.460
2020/01/31 12:15:23.5	89.880	0.060	0.100	0.440
2020/01/31 12:15:23.6	89.930	0.070	0.120	0.420
2020/01/31 12:15:23.7	89.980	0.070	0.150	0.400
2020/01/31 12:15:23.8	90.030	0.080	0.170	0.370
2020/01/31 12:15:23.9	90.080	0.080	0.180	0.350
2020/01/31 12:15:24.0	90.120	0.090	0.190	0.330
2020/01/31 12:15:24.1	90.160	0.090	0.200	0.310
2020/01/31 12:15:24.2	90.210	0.090	0.210	0.280
2020/01/31 12:15:24.3	90.250	0.100	0.210	0.260
2020/01/31 12:15:24.4	90.280	0.100	0.210	0.230
2020/01/31 12:15:24.5	90.310	0.110	0.200	0.210
2020/01/31 12:15:24.6	90.350	0.110	0.190	0.180
2020/01/31 12:15:24.7	90.380	0.110	0.170	0.140
2020/01/31 12:15:24.8	90.420	0.120	0.150	0.110
2020/01/31 12:15:24.9	90.450	0.120	0.130	0.080
2020/01/31 12:15:25.0	90.480	0.130	0.110	0.040
2020/01/31 12:15:25.1	90.520	0.130	0.080	-0.000
2020/01/31 12:15:25.2	90.550	0.140	0.050	-0.040
2020/01/31 12:15:25.3	90.590	0.140	0.020	-0.090
2020/01/31 12:15:25.4	90.620	0.150	-0.020	-0.130
2020/01/31 12:15:25.5	90.680	0.160	-0.050	-0.180
2020/01/31 12:15:25.6	90.720	0.160	-0.080	-0.230
2020/01/31 12:15:25.7	90.760	0.170	-0.120	-0.280
2020/01/31 12:15:25.8	90.790	0.180	-0.160	-0.340
2020/01/31 12:15:25.9	90.840	0.190	-0.190	-0.390
2020/01/31 12:15:26.0	90.880	0.190	-0.230	-0.450
2020/01/31 12:15:26.1	90.920	0.200	-0.260	-0.500
2020/01/31 12:15:26.2	90.970	0.210	-0.300	-0.560
2020/01/31 12:15:26.3	91.020	0.220	-0.330	-0.620
2020/01/31 12:15:26.4	91.070	0.220	-0.360	-0.670
2020/01/31 12:15:26.5	91.140	0.230	-0.390	-0.730
2020/01/31 12:15:26.6	91.190	0.240	-0.410	-0.790
2020/01/31 12:15:26.7	91.250	0.240	-0.430	-0.840
2020/01/31 12:15:26.8	91.310	0.250	-0.450	-0.900
2020/01/31 12:15:26.9	91.370	0.260	-0.460	-0.950
2020/01/31 12:15:27.0	91.430	0.260	-0.470	-1.000
2020/01/31 12:15:27.1	91.490	0.260	-0.480	-1.050
2020/01/31 12:15:27.2	91.560	0.270	-0.490	-1.100
2020/01/31 12:15:27.3	91.620	0.270	-0.490	-1.150
2020/01/31 12:15:27.4	91.690	0.270	-0.490	-1.190
2020/01/31 12:15:27.5	91.760	0.270	-0.480	-1.240
2020/01/31 12:15:27.6	91.830	0.270	-0.480	-1.280
2020/01/31 12:15:27.7	91.900	0.270	-0.470	-1.310
2020/01/31 12:15:27.8	91.970	0.270	-0.460	-1.340
2020/01/31 12:15:27.9	92.040	0.270	-0.440	-1.370
2020/01/31 12:15:28.0	92.110	0.260	-0.430	-1.400
2020/01/31 12:15:28.1	92.190	0.250	-0.410	-1.420
2020/01/31 12:15:28.2	92.260	0.250	-0.390	-1.430
2020/01/31 12:15:28.3	92.320	0.240	-0.370	-1.450
2020/01/31 12:15:28.4	92.390	0.230	-0.350	-1.460
2020/01/31 12:15:28.5	92.460	0.220	-0.330	-1.460
2020/01/31 12:15:28.6	92.540	0.210	-0.310	-1.460
2020/01/31 12:15:28.7	92.600	0.200	-0.290	-1.460
2020/01/31 12:15:28.8	92.660	0.180	-0.270	-1.450
2020/01/31 12:15:28.9	92.720	0.170	-0.250	-1.430
2020/01/31 12:15:29.0	92.770	0.150	-0.230	-1.420
2020/01/31 12:15:29.1	92.820	0.140	-0.210	-1.390
2020/01/31 12:15:29.2	92.870	0.120	-0.190	-1.370
2020/01/31 12:15:29.3	92.920	0.100	-0.170	-1.330
2020/01/31 12:15:29.4	92.960	0.080	-0.150	-1.300
2020/01/31 12:15:29.5	93.000	0.060	-0.130	-1.260
2020/01/31 12:15:29.6	93.050	0.040	-0.110	-1.210
2020/01/31 12:15:29.7	93.080	0.020	-0.100	-1.160
2020/01/31 12:15:29.8	93.110	0.000	-0.080	-1.110
2020/01/31 12:15:29.9	93.130	-0.020	-0.070	-1.050
2020/01/31 12:15:30.0	93.150	-0.040	-0.060	-0.990
2020/01/31 12:15:30.1	93.170	-0.060	-0.050	-0.930
2020/01/31 12:15:30.2	93.180	-0.080	-0.040	-0.860
2020/01/31 12:15:30.3	93.200	-0.100	-0.030	-0.800
2020/01/31 12:15:30.4	93.210	-0.120	-0.020	-0.730
2020/01/31 12:15:30.5	93.220	-0.140	-0.010	-0.660
2020/01/31 12:15:30.6	93.230	-0.160	-0.010	-0.590
2020/01/31 12:15:30.7	93.240	-0.170	-0.000	-0.520
2020/01/31 12:15:30.8	93.240	-0.190	0.000	-0.450
2020/01/31 12:15:30.9	93.250	-0.210	0.000	-0.370
2020/01/31 12:15:31.0	93.250	-0.220	0.010	-0.300
2020/01/31 12:15:31.1	93.250	-0.230	0.010	-0.230
2020/01/31 12:15:31.2	93.260	-0.240	0.010	-0.160
2020/01/31 12:15:31.3	93.260	-0.250	0.010	-0.090
2020/01/31 12:15:31.4	93.260	-0.260	0.010	-0.020
2020/01/31 12:15:31.5	93.260	-0.270	0.010	0.060
2020/01/31 12:15:31.6	93.270	-0.280	0.010	0.120
2020/01/31 12:15:31.7	93.270	-0.280	0.010	0.190
2020/01/31 12:15:31.8	93.270	-0.280	0.000	0.260
2020/01/31 12:15:31.9	93.280	-0.290	0.000	0.330
2020/01/31 12:15:32.0	93.280	-0.290	0.000	0.390
2020/01/31 12:15:32.1	93.290	-0.290	-0.000	0.460
2020/01/31 12:15:32.2	93.300	-0.280	-0.000	0.520
2020/01/31 12:15:32.3	93.300	-0.280	-0.010	0.580
2020/01/31 12:15:32.4	93.310	-0.270	-0.010	0.640
2020/01/31 12:15:32.5	93.320	-0.270	-0.020	0.700
2020/01/31 12:15:32.6	93.340	-0.260	-0.020	0.750
2020/01/31 12:15:32.7	93.350	-0.250	-0.020	0.800
2020/01/31 12:15:32.8	93.360	-0.240	-0.030	0.850
2020/01/31 12:15:32.9	93.380	-0.240	-0.030	0.890
2020/01/31 12:15:33.0	93.390	-0.230	-0.040	0.930
2020/01/31 12:15:33.1	93.410	-0.210	-0.040	0.960
2020/01/31 12:15:33.2	93.430	-0.200	-0.050	1.000
2020/01/31 12:15:33.3	93.450	-0.190	-0.050	1.020
2020/01/31 12:15:33.4	93.480	-0.180	-0.060	1.050
2020/01/31 12:15:33.5	93.500	-0.170	-0.060	1.060
2020/01/31 12:15:33.6	93.530	-0.160	-0.070	1.070
2020/01/31 12:15:33.7	93.560	-0.150	-0.070	1.080
2020/01/31 12:15:33.8	93.590	-0.150	-0.080	1.090
2020/01/31 12:15:33.9	93.620	-0.140	-0.080	1.090
2020/01/31 12:15:34.0	93.660	-0.130	-0.080	1.080
2020/01/31 12:15:34.1	93.700	-0.130	-0.080	1.080
2020/01/31 12:15:34.2	93.730	-0.120	-0.080	1.060
2020/01/31 12:15:34.3	93.770	-0.120	-0.080	1.050
2020/01/31 12:15:34.4	93.810	-0.110	-0.080	1.030
2020/01/31 12:15:34.5	93.850	-0.110	-0.080	1.010
2020/01/31 12:15:34.6	93.860	-0.110	-0.070	0.980
2020/01/31 12:15:34.7	93.900	-0.110	-0.070	0.950
2020/01/31 12:15:34.8	93.940	-0.120	-0.060	0.920
2020/01/31 12:15:34.9	93.970	-0.120	-0.050	0.890
2020/01/31 12:15:35.0	94.010	-0.120	-0.050	0.850
2020/01/31 12:15:35.1	94.040	-0.130	-0.040	0.810
2020/01/31 12:15:35.2	94.070	-0.130	-0.030	0.770
2020/01/31 12:15:35.3	94.100	-0.140	-0.020	0.730
2020/01/31 12:15:35.4	94.130	-0.140	-0.010	0.690
2020/01/31 12:15:35.5	94.150	-0.150	-0.000	0.650
2020/01/31 12:15:35.6	94.160	-0.160	0.000	0.600
2020/01/31 12:15:35.7	94.180	-0.160	0.010	0.560
2020/01/31 12:15:35.8	94.200	-0.170	0.020	0.520
2020/01/31 12:15:35.9	94.210	-0.180	0.020	0.480
2020/01/31 12:15:36.0	94.230	-0.180	0.030	0.440
2020/01/31 12:15:36.1	94.240	-0.190	0.030	0.400
2020/01/31 12:15:36.2	94.240	-0.190	0.030	0.370
2020/01/31 12:15:36.3	94.250	-0.200	0.030	0.340
2020/01/31 12:15:36.4	94.250	-0.200	0.030	0.310
2020/01/31 12:15:36.5	94.260	-0.200	0.030	0.280
2020/01/31 12:15:36.6	94.260	-0.200	0.020	0.250
2020/01/31 12:15:36.7	94.260	-0.200	0.010	0.230
2020/01/31 12:15:36.8	94.250	-0.200	-0.000	0.200
2020/01/31 12:15:36.9	94.250	-0.200	-0.020	0.190
2020/01/31 12:15:37.0	94.240	-0.200	-0.030	0.170
2020/01/31 12:15:37.1	94.230	-0.190	-0.050	0.150
2020/01/31 12:15:37.2	94.220	-0.190	-0.070	0.140
2020/01/31 12:15:37.3	94.220	-0.180	-0.100	0.130
2020/01/31 12:15:37.4	94.210	-0.170	-0.120	0.120
2020/01/31 12:15:37.5	94.200	-0.160	-0.150	0.100
2020/01/31 12:15:37.6	94.190	-0.150	-0.180	0.090
2020/01/31 12:15:37.7	94.180	-0.140	-0.210	0.080
2020/01/31 12:15:37.8	94.180	-0.120	-0.250	0.070
2020/01/31 12:15:37.9	94.170	-0.110	-0.280	0.060
2020/01/31 12:15:38.0	94.160	-0.090	-0.320	0.050
2020/01/31 12:15:38.1	94.160	-0.080	-0.360	0.040
2020/01/31 12:15:38.2	94.160	-0.060	-0.390	0.030
2020/01/31 12:15:38.3	94.160	-0.040	-0.430	0.020
2020/01/31 12:15:38.4	94.150	-0.020	-0.470	0.000
2020/01/31 12:15:38.5	94.150	0.000	-0.510	-0.010
2020/01/31 12:15:38.6	94.150	0.030	-0.540	-0.030
2020/01/31 12:15:38.7	94.150	0.050	-0.580	-0.050
2020/01/31 12:15:38.8	94.150	0.070	-0.620	-0.070
2020/01/31 12:15:38.9	94.150	0.100	-0.650	-0.090
2020/01/31 12:15:39.0	94.150	0.120	-0.680	-0.110
2020/01/31 12:15:39.1	94.160	0.140	-0.710	-0.130
2020/01/31 12:15:39.2	94.160	0.170	-0.740	-0.160
2020/01/31 12:15:39.3	94.160	0.190	-0.760	-0.180
2020/01/31 12:15:39.4	94.170	0.220	-0.780	-0.200
2020/01/31 12:15:39.5	94.160	0.240	-0.790	-0.230
2020/01/31 12:15:39.6	94.160	0.260	-0.810	-0.260
2020/01/31 12:15:39.7	94.170	0.280	-0.820	-0.280
2020/01/31 12:15:39.8	94.170	0.300	-0.820	-0.300
2020/01/31 12:15:39.9	94.180	0.320	-0.820	-0.320
2020/01/31 12:15:40.0	94.180	0.340	-0.810	-0.350
2020/01/31 12:15:40.1	94.180	0.350	-0.800	-0.360
2020/01/31 12:15:40.2	94.180	0.360	-0.780	-0.380
2020/01/31 12:15:40.3	94.190	0.380	-0.760	-0.400
2020/01/31 12:15:40.4	94.190	0.390	-0.740	-0.420
2020/01/31 12:15:40.5	94.200	0.400	-0.700	-0.430
2020/01/31 12:15:40.6	94.200	0.400	-0.670	-0.440
2020/01/31 12:15:40.7	94.200	0.410	-0.630	-0.450
2020/01/31 12:15:40.8	94.190	0.410	-0.580	-0.460
2020/01/31 12:15:40.9	94.190	0.410	-0.540	-0.470
2020/01/31 12:15:41.0	94.190	0.410	-0.480	-0.480
2020/01/31 12:15:41.1	94.190	0.400	-0.430	-0.490
2020/01/31 12:15:41.2	94.180	0.390	-0.370	-0.500
2020/01/31 12:15:41.3	94.180	0.390	-0.310	-0.500
2020/01/31 12:15:41.4	94.180	0.380	-0.250	-0.510
2020/01/31 12:15:41.5	94.180	0.360	-0.190	-0.510
2020/01/31 12:15:41.6	94.190	0.350	-0.130	-0.520
2020/01/31 12:15:41.7	94.190	0.330	-0.060	-0.530
2020/01/31 12:15:41.8	94.190	0.320	-0.000	-0.530
2020/01/31 12:15:41.9	94.190	0.300	0.060	-0.540
2020/01/31 12:15:42.0	94.200	0.280	0.120	-0.550
2020/01/31 12:15:42.1	94.200	0.260	0.180	-0.560
2020/01/31 12:15:42.2	94.210	0.240	0.230	-0.570
2020/01/31 12:15:42.3	94.210	0.210	0.280	-0.580
2020/01/31 12:15:42.4	94.220	0.190	0.330	-0.590
2020/01/31 12:15:42.5	94.230	0.170	0.370	-0.600
2020/01/31 12:15:42.6	94.260	0.150	0.410	-0.610
2020/01/31 12:15:42.7	94.270	0.120	0.440	-0.620
2020/01/31 12:15:42.8	94.280	0.100	0.470	-0.630
2020/01/31 12:15:42.9	94.290	0.080	0.500	-0.640
2020/01/31 12:15:43.0	94.310	0.060	0.520	-0.650
2020/01/31 12:15:43.1	94.320	0.040	0.530	-0.660
2020/01/31 12:15:43.2	94.340	0.020	0.540	-0.660
2020/01/31 12:15:43.3	94.350	-0.000	0.540	-0.670
2020/01/31 12:15:43.4	94.370	-0.020	0.540	-0.670
2020/01/31 12:15:43.5	94.380	-0.030	0.530	-0.680
2020/01/31 12:15:43.6	94.390	-0.050	0.520	-0.670
2020/01/31 12:15:43.7	94.410	-0.060	0.510	-0.670
2020/01/31 12:15:43.8	94.420	-0.070	0.490	-0.660
2020/01/31 12:15:43.9	94.430	-0.080	0.470	-0.640
2020/01/31 12:15:44.0	94.440	-0.090	0.440	-0.630
2020/01/31 12:15:44.1	94.440	-0.090	0.410	-0.610
2020/01/31 12:15:44.2	94.450	-0.100	0.380	-0.580
2020/01/31 12:15:44.3	94.450	-0.100	0.350	-0.550
2020/01/31 12:15:44.4	94.460	-0.110	0.320	-0.520
2020/01/31 12:15:44.5	94.460	-0.110	0.290	-0.480
2020/01/31 12:15:44.6	94.460	-0.110	0.250	-0.440
2020/01/31 12:15:44.7	94.460	-0.110	0.220	-0.400
2020/01/31 12:15:44.8	94.450	-0.110	0.180	-0.350
2020/01/31 12:15:44.9	94.440	-0.100	0.140	-0.300
2020/01/31 12:15:45.0	94.430	-0.100	0.110	-0.250
2020/01/31 12:15:45.1	94.420	-0.100	0.080	-0.200
2020/01/31 12:15:45.2	94.410	-0.090	0.040	-0.140
2020/01/31 12:15:45.3	94.390	-0.090	0.010	-0.080
2020/01/31 12:15:45.4	94.370	-0.090	-0.020	-0.020
2020/01/31 12:15:45.5	94.350	-0.080	-0.060	0.050
2020/01/31 12:15:45.6	94.340	-0.080	-0.090	0.110
2020/01/31 12:15:45.7	94.320	-0.070	-0.120	0.170
2020/01/31 12:15:45.8	94.290	-0.070	-0.150	0.230
2020/01/31 12:15:45.9	94.270	-0.070	-0.180	0.300
2020/01/31 12:15:46.0	94.250	-0.060	-0.210	0.360
2020/01/31 12:15:46.1	94.230	-0.060	-0.240	0.420
2020/01/31 12:15:46.2	94.210	-0.060	-0.270	0.480
2020/01/31 12:15:46.3	94.190	-0.060	-0.300	0.540
2020/01/31 12:15:46.4	94.160	-0.060	-0.330	0.600
2020/01/31 12:15:46.5	94.150	-0.060	-0.350	0.650
2020/01/31 12:15:46.6	94.130	-0.060	-0.380	0.700
2020/01/31 12:15:46.7	94.110	-0.060	-0.410	0.760
2020/01/31 12:15:46.8	94.100	-0.060	-0.440	0.810
2020/01/31 12:15:46.9	94.080	-0.070	-0.460	0.850
2020/01/31 12:15:47.0	94.060	-0.070	-0.490	0.900
2020/01/31 12:15:47.1	94.050	-0.080	-0.520	0.940
2020/01/31 12:15:47.2	94.030	-0.080	-0.540	0.980
2020/01/31 12:15:47.3	94.020	-0.090	-0.570	1.020
2020/01/31 12:15:47.4	94.010	-0.090	-0.590	1.050
2020/01/31 12:15:47.5	93.990	-0.100	-0.610	1.090
2020/01/31 12:15:47.6	93.980	-0.110	-0.630	1.120
2020/01/31 12:15:47.7	93.970	-0.110	-0.650	1.150
2020/01/31 12:15:47.8	93.970	-0.120	-0.670	1.170
2020/01/31 12:15:47.9	93.960	-0.130	-0.690	1.190
2020/01/31 12:15:48.0	93.960	-0.130	-0.700	1.210
2020/01/31 12:15:48.1	93.960	-0.140	-0.720	1.230
2020/01/31 12:15:48.2	93.960	-0.140	-0.730	1.250
2020/01/31 12:15:48.3	93.960	-0.150	-0.730	1.260
2020/01/31 12:15:48.4	93.960	-0.150	-0.740	1.270
2020/01/31 12:15:48.5	93.950	-0.160	-0.740	1.280
2020/01/31 12:15:48.6	93.960	-0.160	-0.730	1.290
2020/01/31 12:15:48.7	93.960	-0.160	-0.730	1.290
2020/01/31 12:15:48.8	93.960	-0.160	-0.720	1.300
2020/01/31 12:15:48.9	93.960	-0.160	-0.700	1.300
2020/01/31 12:15:49.0	93.960	-0.160	-0.680	1.300
2020/01/31 12:15:49.1	93.960	-0.160	-0.660	1.290
2020/01/31 12:15:49.2	93.970	-0.150	-0.630	1.290
2020/01/31 12:15:49.3	93.970	-0.150	-0.600	1.280
2020/01/31 12:15:49.4	93.970	-0.150	-0.570	1.270
2020/01/31 12:15:49.5	93.970	-0.140	-0.530	1.260
2020/01/31 12:15:49.6	93.970	-0.130	-0.480	1.240
2020/01/31 12:15:49.7	93.970	-0.130	-0.430	1.230
2020/01/31 12:15:49.8	93.970	-0.120	-0.380	1.200
2020/01/31 12:15:49.9	93.980	-0.120	-0.330	1.180
2020/01/31 12:15:50.0	93.980	-0.110	-0.270	1.150
2020/01/31 12:15:50.1	93.980	-0.110	-0.210	1.120
2020/01/31 12:15:50.2	93.990	-0.100	-0.150	1.090
2020/01/31 12:15:50.3	93.990	-0.100	-0.080	1.050
2020/01/31 12:15:50.4	94.000	-0.090	-0.020	1.010
2020/01/31 12:15:50.5	94.010	-0.090	0.050	0.970
2020/01/31 12:15:50.6	94.010	-0.090	0.110	0.920
2020/01/31 12:15:50.7	94.020	-0.090	0.170	0.880
2020/01/31 12:15:50.8	94.020	-0.090	0.230	0.830
2020/01/31 12:15:50.9	94.030	-0.090	0.290	0.790
2020/01/31 12:15:51.0	94.030	-0.090	0.340	0.740
2020/01/31 12:15:51.1	94.030	-0.090	0.390	0.690
2020/01/31 12:15:51.2	94.030	-0.090	0.430	0.640
2020/01/31 12:15:51.3	94.040	-0.100	0.480	0.590
2020/01/31 12:15:51.4	94.040	-0.100	0.510	0.540
2020/01/31 12:15:51.5	94.050	-0.100	0.540	0.500
2020/01/31 12:15:51.6	94.050	-0.110	0.560	0.460
2020/01/31 12:15:51.7	94.050	-0.110	0.580	0.410
2020/01/31 12:15:51.8	94.040	-0.120	0.590	0.370
2020/01/31 12:15:51.9	94.030	-0.120	0.600	0.330
2020/01/31 12:15:52.0	94.030	-0.130	0.590	0.290
2020/01/31 12:15:52.1	94.020	-0.130	0.580	0.250
2020/01/31 12:15:52.2	94.000	-0.130	0.570	0.220
2020/01/31 12:15:52.3	93.990	-0.130	0.550	0.180
2020/01/31 12:15:52.4	93.980	-0.140	0.520	0.150
2020/01/31 12:15:52.5	93.960	-0.130	0.480	0.120
2020/01/31 12:15:52.6	93.960	-0.130	0.440	0.100
2020/01/31 12:15:52.7	93.940	-0.130	0.390	0.070
2020/01/31 12:15:52.8	93.920	-0.120	0.340	0.050
2020/01/31 12:15:52.9	93.900	-0.110	0.280	0.030
2020/01/31 12:15:53.0	93.880	-0.100	0.210	0.010
2020/01/31 12:15:53.1	93.860	-0.090	0.140	-0.010
2020/01/31 12:15:53.2	93.830	-0.070	0.070	-0.030
2020/01/31 12:15:53.3	93.810	-0.060	-0.010	-0.050
2020/01/31 12:15:53.4	93.780	-0.040	-0.090	-0.070
2020/01/31 12:15:53.5	93.750	-0.010	-0.170	-0.080
2020/01/31 12:15:53.6	93.730	0.010	-0.250	-0.100
2020/01/31 12:15:53.7	93.700	0.040	-0.340	-0.110
2020/01/31 12:15:53.8	93.670	0.070	-0.420	-0.120
2020/01/31 12:15:53.9	93.640	0.090	-0.500	-0.140
2020/01/31 12:15:54.0	93.620	0.120	-0.580	-0.150
2020/01/31 12:15:54.1	93.590	0.160	-0.650	-0.160
2020/01/31 12:15:54.2	93.560	0.190	-0.730	-0.160
2020/01/31 12:15:54.3	93.540	0.220	-0.800	-0.170
2020/01/31 12:15:54.4	93.510	0.250	-0.860	-0.180
2020/01/31 12:15:54.5	93.480	0.280	-0.920	-0.190
2020/01/31 12:15:54.6	93.460	0.310	-0.970	-0.200
2020/01/31 12:15:54.7	93.440	0.340	-1.010	-0.200
2020/01/31 12:15:54.8	93.410	0.370	-1.050	-0.210
2020/01/31 12:15:54.9	93.390	0.390	-1.070	-0.210
2020/01/31 12:15:55.0	93.370	0.420	-1.090	-0.210
2020/01/31 12:15:55.1	93.350	0.430	-1.100	-0.210
2020/01/31 12:15:55.2	93.340	0.450	-1.100	-0.210
2020/01/31 12:15:55.3	93.320	0.460	-1.090	-0.210
2020/01/31 12:15:55.4	93.310	0.470	-1.070	-0.200
2020/01/31 12:15:55.5	93.290	0.470	-1.040	-0.200
2020/01/31 12:15:55.6	93.280	0.470	-1.000	-0.190
2020/01/31 12:15:55.7	93.270	0.470	-0.950	-0.190
2020/01/31 12:15:55.8	93.260	0.460	-0.890	-0.180
2020/01/31 12:15:55.9	93.250	0.450	-0.830	-0.180
2020/01/31 12:15:56.0	93.250	0.430	-0.760	-0.170
2020/01/31 12:15:56.1	93.240	0.410	-0.680	-0.160
2020/01/31 12:15:56.2	93.240	0.380	-0.600	-0.160
2020/01/31 12:15:56.3	93.240	0.350	-0.510	-0.150
2020/01/31 12:15:56.4	93.250	0.320	-0.420	-0.140
2020/01/31 12:15:56.5	93.250	0.280	-0.320	-0.130
2020/01/31 12:15:56.6	93.260	0.240	-0.230	-0.130
2020/01/31 12:15:56.7	93.270	0.200	-0.130	-0.120
2020/01/31 12:15:56.8	93.280	0.160	-0.040	-0.110
2020/01/31 12:15:56.9	93.290	0.110	0.050	-0.090
2020/01/31 12:15:57.0	93.310	0.070	0.140	-0.080
2020/01/31 12:15:57.1	93.320	0.020	0.230	-0.070
2020/01/31 12:15:57.2	93.340	-0.030	0.310	-0.050
2020/01/31 12:15:57.3	93.360	-0.080	0.390	-0.040
2020/01/31 12:15:57.4	93.380	-0.120	0.460	-0.020
2020/01/31 12:15:57.5	93.410	-0.170	0.530	0.000
2020/01/31 12:15:57.6	93.430	-0.210	0.580	0.020
2020/01/31 12:15:57.7	93.450	-0.260	0.630	0.040
2020/01/31 12:15:57.8	93.480	-0.300	0.670	0.070
2020/01/31 12:15:57.9	93.500	-0.330	0.700	0.090
2020/01/31 12:15:58.0	93.530	-0.370	0.720	0.110
2020/01/31 12:15:58.1	93.550	-0.390	0.730	0.140
2020/01/31 12:15:58.2	93.580	-0.420	0.730	0.170
2020/01/31 12:15:58.3	93.600	-0.440	0.720	0.190
2020/01/31 12:15:58.4	93.630	-0.450	0.700	0.220
2020/01/31 12:15:58.5	93.650	-0.460	0.670	0.250
2020/01/31 12:15:58.6	93.660	-0.470	0.630	0.280
2020/01/31 12:15:58.7	93.680	-0.470	0.580	0.310
2020/01/31 12:15:58.8	93.700	-0.460	0.530	0.340
2020/01/31 12:15:58.9	93.710	-0.450	0.470	0.370
2020/01/31 12:15:59.0	93.730	-0.430	0.400	0.410
2020/01/31 12:15:59.1	93.750	-0.410	0.320	0.440
2020/01/31 12:15:59.2	93.760	-0.380	0.240	0.470
2020/01/31 12:15:59.3	93.770	-0.350	0.160	0.510
2020/01/31 12:15:59.4	93.780	-0.310	0.070	0.540
2020/01/31 12:15:59.5	93.790	-0.270	-0.020	0.580
2020/01/31 12:15:59.6	93.800	-0.230	-0.100	0.620
2020/01/31 12:15:59.7	93.810	-0.180	-0.190	0.650
2020/01/31 12:15:59.8	93.810	-0.130	-0.280	0.690
2020/01/31 12:15:59.9	93.810	-0.080	-0.370	0.720
2020/01/31 12:16:00.0	93.810	-0.030	-0.450	0.760
2020/01/31 12:16:00.1	93.810	0.020	-0.530	0.800
2020/01/31 12:16:00.2	93.810	0.070	-0.600	0.840
2020/01/31 12:16:00.3	93.810	0.120	-0.670	0.880
2020/01/31 12:16:00.4	93.800	0.170	-0.730	0.920
2020/01/31 12:16:00.5	93.790	0.220	-0.790	0.960
2020/01/31 12:16:00.6	93.790	0.260	-0.840	1.000
2020/01/31 12:16:00.7	93.780	0.310	-0.880	1.050
2020/01/31 12:16:00.8	93.770	0.350	-0.920	1.100
2020/01/31 12:16:00.9	93.760	0.380	-0.940	1.140
2020/01/31 12:16:01.0	93.750	0.410	-0.960	1.190
2020/01/31 12:16:01.1	93.740	0.440	-0.970	1.240
2020/01/31 12:16:01.2	93.720	0.460	-0.970	1.290
2020/01/31 12:16:01.3	93.710	0.480	-0.960	1.340
2020/01/31 12:16:01.4	93.700	0.490	-0.950	1.390
2020/01/31 12:16:01.5	93.670	0.500	-0.920	1.440
2020/01/31 12:16:01.6	93.660	0.500	-0.890	1.490
2020/01/31 12:16:01.7	93.650	0.500	-0.850	1.530
2020/01/31 12:16:01.8	93.640	0.490	-0.800	1.580
2020/01/31 12:16:01.9	93.630	0.480	-0.750	1.620
2020/01/31 12:16:02.0	93.610	0.460	-0.690	1.660
2020/01/31 12:16:02.1	93.610	0.430	-0.620	1.700
2020/01/31 12:16:02.2	93.600	0.400	-0.550	1.730
2020/01/31 12:16:02.3	93.590	0.370	-0.470	1.760
2020/01/31 12:16:02.4	93.580	0.330	-0.390	1.780
2020/01/31 12:16:02.5	93.570	0.290	-0.300	1.800
2020/01/31 12:16:02.6	93.570	0.250	-0.210	1.810
2020/01/31 12:16:02.7	93.570	0.200	-0.120	1.810
2020/01/31 12:16:02.8	93.560	0.150	-0.030	1.810
2020/01/31 12:16:02.9	93.560	0.100	0.060	1.800
2020/01/31 12:16:03.0	93.560	0.050	0.150	1.790
2020/01/31 12:16:03.1	93.560	-0.000	0.240	1.770
2020/01/31 12:16:03.2	93.560	-0.060	0.330	1.740
2020/01/31 12:16:03.3	93.560	-0.110	0.420	1.710
2020/01/31 12:16:03.4	93.560	-0.160	0.500	1.670
2020/01/31 12:16:03.5	93.560	-0.220	0.580	1.630
2020/01/31 12:16:03.6	93.580	-0.260	0.660	1.580
2020/01/31 12:16:03.7	93.580	-0.310	0.730	1.530
2020/01/31 12:16:03.8	93.590	-0.360	0.790	1.470
2020/01/31 12:16:03.9	93.590	-0.400	0.850	1.410
2020/01/31 12:16:04.0	93.600	-0.440	0.890	1.340
2020/01/31 12:16:04.1	93.610	-0.470	0.930	1.270
2020/01/31 12:16:04.2	93.620	-0.500	0.970	1.190
2020/01/31 12:16:04.3	93.620	-0.530	0.990	1.110
2020/01/31 12:16:04.4	93.630	-0.550	1.000	1.030
2020/01/31 12:16:04.5	93.650	-0.570	1.000	0.940
2020/01/31 12:16:04.6	93.660	-0.590	1.000	0.860
2020/01/31 12:16:04.7	93.670	-0.590	0.980	0.770
2020/01/31 12:16:04.8	93.680	-0.600	0.950	0.680
2020/01/31 12:16:04.9	93.690	-0.600	0.920	0.590
2020/01/31 12:16:05.0	93.700	-0.590	0.870	0.490
2020/01/31 12:16:05.1	93.710	-0.590	0.810	0.400
2020/01/31 12:16:05.2	93.720	-0.570	0.750	0.310
2020/01/31 12:16:05.3	93.740	-0.550	0.670	0.220
2020/01/31 12:16:05.4	93.750	-0.530	0.590	0.130
2020/01/31 12:16:05.5	93.760	-0.510	0.500	0.040
2020/01/31 12:16:05.6	93.790	-0.480	0.400	-0.050
2020/01/31 12:16:05.7	93.800	-0.450	0.300	-0.140
2020/01/31 12:16:05.8	93.820	-0.410	0.190	-0.220
2020/01/31 12:16:05.9	93.830	-0.370	0.070	-0.300
2020/01/31 12:16:06.0	93.850	-0.330	-0.050	-0.380
2020/01/31 12:16:06.1	93.870	-0.290	-0.170	-0.450
2020/01/31 12:16:06.2	93.890	-0.250	-0.290	-0.520
2020/01/31 12:16:06.3	93.910	-0.200	-0.420	-0.590
2020/01/31 12:16:06.4	93.930	-0.150	-0.540	-0.650
2020/01/31 12:16:06.5	93.950	-0.110	-0.660	-0.700
2020/01/31 12:16:06.6	93.970	-0.060	-0.790	-0.750
2020/01/31 12:16:06.7	93.990	-0.010	-0.900	-0.790
2020/01/31 12:16:06.8	94.000	0.040	-1.010	-0.820
2020/01/31 12:16:06.9	94.020	0.080	-1.120	-0.850
2020/01/31 12:16:07.0	94.040	0.130	-1.220	-0.880
2020/01/31 12:16:07.1	94.050	0.170	-1.310	-0.890
2020/01/31 12:16:07.2	94.060	0.210	-1.400	-0.910
2020/01/31 12:16:07.3	94.080	0.260	-1.470	-0.910
2020/01/31 12:16:07.4	94.090	0.290	-1.540	-0.910
2020/01/31 12:16:07.5	94.100	0.330	-1.590	-0.910
2020/01/31 12:16:07.6	94.100	0.360	-1.630	-0.900
2020/01/31 12:16:07.7	94.110	0.390	-1.660	-0.880
2020/01/31 12:16:07.8	94.110	0.420	-1.680	-0.870
2020/01/31 12:16:07.9	94.120	0.440	-1.690	-0.850
2020/01/31 12:16:08.0	94.120	0.460	-1.690	-0.820
2020/01/31 12:16:08.1	94.120	0.480	-1.680	-0.790
2020/01/31 12:16:08.2	94.120	0.490	-1.650	-0.760
2020/01/31 12:16:08.3	94.120	0.500	-1.610	-0.730
2020/01/31 12:16:08.4	94.110	0.510	-1.560	-0.690
2020/01/31 12:16:08.5	94.100	0.510	-1.510	-0.660
2020/01/31 12:16:08.6	94.090	0.510	-1.440	-0.620
2020/01/31 12:16:08.7	94.090	0.510	-1.360	-0.580
2020/01/31 12:16:08.8	94.080	0.500	-1.270	-0.540
2020/01/31 12:16:08.9	94.070	0.480	-1.180	-0.500
2020/01/31 12:16:09.0	94.060	0.470	-1.080	-0.460
2020/01/31 12:16:09.1	94.050	0.450	-0.970	-0.420
2020/01/31 12:16:09.2	94.040	0.430	-0.850	-0.370
2020/01/31 12:16:09.3	94.020	0.400	-0.730	-0.330
2020/01/31 12:16:09.4	94.010	0.370	-0.610	-0.290
2020/01/31 12:16:09.5	93.980	0.340	-0.470	-0.240
2020/01/31 12:16:09.6	93.960	0.300	-0.340	-0.200
2020/01/31 12:16:09.7	93.940	0.260	-0.210	-0.150
2020/01/31 12:16:09.8	93.920	0.220	-0.080	-0.110
2020/01/31 12:16:09.9	93.900	0.180	0.050	-0.060
2020/01/31 12:16:10.0	93.880	0.140	0.180	-0.020
2020/01/31 12:16:10.1	93.870	0.090	0.300	0.030
2020/01/31 12:16:10.2	93.850	0.040	0.430	0.070
2020/01/31 12:16:10.3	93.830	-0.000	0.540	0.120
2020/01/31 12:16:10.4	93.810	-0.050	0.660	0.160
2020/01/31 12:16:10.5	93.790	-0.100	0.760	0.210
2020/01/31 12:16:10.6	93.780	-0.140	0.860	0.250
2020/01/31 12:16:10.7	93.760	-0.190	0.960	0.290
2020/01/31 12:16:10.8	93.750	-0.230	1.040	0.330
2020/01/31 12:16:10.9	93.730	-0.270	1.120	0.370
2020/01/31 12:16:11.0	93.720	-0.310	1.180	0.410
2020/01/31 12:16:11.1	93.710	-0.350	1.240	0.440
2020/01/31 12:16:11.2	93.710	-0.380	1.280	0.480
2020/01/31 12:16:11.3	93.700	-0.420	1.320	0.510
2020/01/31 12:16:11.4	93.700	-0.440	1.340	0.530
2020/01/31 12:16:11.5	93.720	-0.470	1.360	0.560
2020/01/31 12:16:11.6	93.720	-0.490	1.360	0.580
2020/01/31 12:16:11.7	93.730	-0.510	1.350	0.590
2020/01/31 12:16:11.8	93.740	-0.520	1.330	0.600
2020/01/31 12:16:11.9	93.750	-0.530	1.300	0.610
2020/01/31 12:16:12.0	93.770	-0.530	1.250	0.610
2020/01/31 12:16:12.1	93.790	-0.530	1.200	0.610
2020/01/31 12:16:12.2	93.810	-0.520	1.140	0.600
2020/01/31 12:16:12.3	93.830	-0.510	1.060	0.590
2020/01/31 12:16:12.4	93.850	-0.500	0.980	0.570
2020/01/31 12:16:12.5	93.880	-0.480	0.890	0.550
2020/01/31 12:16:12.6	93.920	-0.460	0.800	0.530
2020/01/31 12:16:12.7	93.950	-0.430	0.690	0.500
2020/01/31 12:16:12.8	93.980	-0.400	0.580	0.470
2020/01/31 12:16:12.9	94.010	-0.370	0.470	0.440
2020/01/31 12:16:13.0	94.050	-0.330	0.350	0.410
2020/01/31 12:16:13.1	94.080	-0.290	0.230	0.380
2020/01/31 12:16:13.2	94.110	-0.250	0.110	0.350
2020/01/31 12:16:13.3	94.150	-0.210	-0.020	0.320
2020/01/31 12:16:13.4	94.180	-0.160	-0.140	0.290
2020/01/31 12:16:13.5	94.220	-0.120	-0.260	0.260
2020/01/31 12:16:13.6	94.240	-0.070	-0.390	0.230
2020/01/31 12:16:13.7	94.270	-0.020	-0.510	0.210
2020/01/31 12:16:13.8	94.300	0.030	-0.620	0.190
2020/01/31 12:16:13.9	94.330	0.070	-0.730	0.170
2020/01/31 12:16:14.0	94.360	0.120	-0.840	0.160
2020/01/31 12:16:14.1	94.380	0.170	-0.930	0.150
2020/01/31 12:16:14.2	94.410	0.210	-1.030	0.140
2020/01/31 12:16:14.3	94.430	0.250	-1.110	0.140
2020/01/31 12:16:14.4	94.440	0.290	-1.190	0.140
2020/01/31 12:16:14.5	94.450	0.330	-1.260	0.150
2020/01/31 12:16:14.6	94.470	0.370	-1.320	0.160
2020/01/31 12:16:14.7	94.480	0.400	-1.380	0.180
2020/01/31 12:16:14.8	94.490	0.430	-1.420	0.200
2020/01/31 12:16:14.9	94.490	0.460	-1.460	0.220
2020/01/31 12:16:15.0	94.500	0.480	-1.490	0.250
2020/01/31 12:16:15.1	94.500	0.500	-1.510	0.290
2020/01/31 12:16:15.2	94.510	0.520	-1.520	0.330
2020/01/31 12:16:15.3	94.510	0.530	-1.520	0.370
2020/01/31 12:16:15.4	94.510	0.540	-1.520	0.410
2020/01/31 12:16:15.5	94.500	0.550	-1.500	0.460
2020/01/31 12:16:15.6	94.500	0.550	-1.480	0.510
2020/01/31 12:16:15.7	94.500	0.550	-1.450	0.560
2020/01/31 12:16:15.8	94.490	0.550	-1.410	0.620
2020/01/31 12:16:15.9	94.490	0.540	-1.360	0.670
2020/01/31 12:16:16.0	94.490	0.530	-1.310	0.720
2020/01/31 12:16:16.1	94.490	0.520	-1.260	0.780
2020/01/31 12:16:16.2	94.480	0.510	-1.190	0.840
2020/01/31 12:16:16.3	94.480	0.490	-1.120	0.890
2020/01/31 12:16:16.4	94.470	0.470	-1.040	0.950
2020/01/31 12:16:16.5	94.470	0.440	-0.960	1.000
2020/01/31 12:16:16.6	94.460	0.420	-0.880	1.060
2020/01/31 12:16:16.7	94.460	0.390	-0.790	1.110
2020/01/31 12:16:16.8	94.460	0.370	-0.690	1.160
2020/01/31 12:16:16.9	94.450	0.340	-0.590	1.210
2020/01/31 12:16:17.0	94.450	0.300	-0.490	1.260
2020/01/31 12:16:17.1	94.450	0.270	-0.390	1.310
2020/01/31 12:16:17.2	94.450	0.240	-0.290	1.350
2020/01/31 12:16:17.3	94.450	0.200	-0.180	1.390
2020/01/31 12:16:17.4	94.450	0.170	-0.080	1.430
2020/01/31 12:16:17.5	94.460	0.130	0.030	1.470
2020/01/31 12:16:17.6	94.450	0.090	0.140	1.500
2020/01/31 12:16:17.7	94.450	0.060	0.240	1.530
2020/01/31 12:16:17.8	94.450	0.020	0.340	1.560
2020/01/31 12:16:17.9	94.450	-0.020	0.440	1.590
2020/01/31 12:16:18.0	94.450	-0.060	0.530	1.610
2020/01/31 12:16:18.1	94.450	-0.100	0.620	1.630
2020/01/31 12:16:18.2	94.440	-0.130	0.710	1.640
2020/01/31 12:16:18.3	94.440	-0.170	0.790	1.660
2020/01/31 12:16:18.4	94.440	-0.210	0.860	1.670
2020/01/31 12:16:18.5	94.440	-0.240	0.930	1.680
2020/01/31 12:16:18.6	94.440	-0.280	0.990	1.680
2020/01/31 12:16:18.7	94.440	-0.310	1.050	1.680
2020/01/31 12:16:18.8	94.430	-0.340	1.090	1.670
2020/01/31 12:16:18.9	94.430	-0.380	1.130	1.660
2020/01/31 12:16:19.0	94.430	-0.400	1.160	1.650
2020/01/31 12:16:19.1	94.430	-0.430	1.180	1.630
2020/01/31 12:16:19.2	94.430	-0.460	1.190	1.610
2020/01/31 12:16:19.3	94.430	-0.480	1.190	1.580
2020/01/31 12:16:19.4	94.440	-0.500	1.190	1.550
2020/01/31 12:16:19.5	94.440	-0.520	1.170	1.520
2020/01/31 12:16:19.6	94.450	-0.530	1.150	1.480
2020/01/31 12:16:19.7	94.450	-0.540	1.110	1.430
2020/01/31 12:16:19.8	94.460	-0.550	1.070	1.390
2020/01/31 12:16:19.9	94.460	-0.560	1.020	1.340
2020/01/31 12:16:20.0	94.470	-0.560	0.960	1.280
2020/01/31 12:16:20.1	94.470	-0.560	0.890	1.230
2020/01/31 12:16:20.2	94.480	-0.560	0.820	1.160
2020/01/31 12:16:20.3	94.490	-0.550	0.740	1.100
2020/01/31 12:16:20.4	94.500	-0.540	0.660	1.030
2020/01/31 12:16:20.5	94.510	-0.520	0.570	0.960
2020/01/31 12:16:20.6	94.530	-0.510	0.470	0.890
2020/01/31 12:16:20.7	94.540	-0.490	0.380	0.810
2020/01/31 12:16:20.8	94.550	-0.460	0.280	0.740
2020/01/31 12:16:20.9	94.560	-0.440	0.170	0.660
2020/01/31 12:16:21.0	94.580	-0.410	0.070	0.580
2020/01/31 12:16:21.1	94.590	-0.380	-0.030	0.490
2020/01/31 12:16:21.2	94.610	-0.340	-0.140	0.410
2020/01/31 12:16:21.3	94.630	-0.310	-0.240	0.330
2020/01/31 12:16:21.4	94.650	-0.270	-0.340	0.240
2020/01/31 12:16:21.5	94.670	-0.230	-0.430	0.160
2020/01/31 12:16:21.6	94.690	-0.190	-0.530	0.070
2020/01/31 12:16:21.7	94.710	-0.150	-0.620	-0.010
2020/01/31 12:16:21.8	94.740	-0.110	-0.710	-0.090
2020/01/31 12:16:21.9	94.760	-0.070	-0.790	-0.170
2020/01/31 12:16:22.0	94.790	-0.030	-0.860	-0.240
2020/01/31 12:16:22.1	94.820	0.010	-0.930	-0.310
2020/01/31 12:16:22.2	94.840	0.060	-1.000	-0.380
2020/01/31 12:16:22.3	94.870	0.100	-1.060	-0.450
2020/01/31 12:16:22.4	94.900	0.130	-1.110	-0.510
2020/01/31 12:16:22.5	94.920	0.170	-1.150	-0.570
2020/01/31 12:16:22.6	94.950	0.210	-1.190	-0.620
2020/01/31 12:16:22.7	94.980	0.240	-1.220	-0.670
2020/01/31 12:16:22.8	95.000	0.280	-1.250	-0.710
2020/01/31 12:16:22.9	95.030	0.310	-1.260	-0.750
2020/01/31 12:16:23.0	95.050	0.340	-1.280	-0.780
2020/01/31 12:16:23.1	95.080	0.360	-1.280	-0.810
2020/01/31 12:16:23.2	95.100	0.390	-1.280	-0.830
2020/01/31 12:16:23.3	95.120	0.410	-1.270	-0.840
2020/01/31 12:16:23.4	95.140	0.430	-1.250	-0.850
2020/01/31 12:16:23.5	95.160	0.450	-1.230	-0.860
2020/01/31 12:16:23.6	95.170	0.460	-1.200	-0.850
2020/01/31 12:16:23.7	95.190	0.470	-1.170	-0.850
2020/01/31 12:16:23.8	95.200	0.480	-1.130	-0.840
2020/01/31 12:16:23.9	95.210	0.490	-1.090	-0.820
2020/01/31 12:16:24.0	95.220	0.490	-1.040	-0.810
2020/01/31 12:16:24.1	95.230	0.490	-0.990	-0.790
2020/01/31 12:16:24.2	95.240	0.490	-0.930	-0.760
2020/01/31 12:16:24.3	95.240	0.490	-0.870	-0.730
2020/01/31 12:16:24.4	95.240	0.480	-0.810	-0.700
2020/01/31 12:16:24.5	95.240	0.470	-0.740	-0.670
2020/01/31 12:16:24.6	95.250	0.460	-0.670	-0.630
2020/01/31 12:16:24.7	95.250	0.450	-0.600	-0.590
2020/01/31 12:16:24.8	95.240	0.430	-0.530	-0.550
2020/01/31 12:16:24.9	95.240	0.410	-0.450	-0.500
2020/01/31 12:16:25.0	95.230	0.390	-0.370	-0.460
2020/01/31 12:16:25.1	95.230	0.370	-0.290	-0.410
2020/01/31 12:16:25.2	95.220	0.350	-0.220	-0.360
2020/01/31 12:16:25.3	95.210	0.320	-0.140	-0.300
2020/01/31 12:16:25.4	95.200	0.300	-0.060	-0.250
2020/01/31 12:16:25.5	95.190	0.270	0.010	-0.200
2020/01/31 12:16:25.6	95.180	0.240	0.080	-0.140
2020/01/31 12:16:25.7	95.170	0.220	0.150	-0.090
2020/01/31 12:16:25.8	95.160	0.190	0.220	-0.030
2020/01/31 12:16:25.9	95.160	0.160	0.280	0.020
2020/01/31 12:16:26.0	95.150	0.130	0.340	0.080
2020/01/31 12:16:26.1	95.140	0.100	0.390	0.140
2020/01/31 12:16:26.2	95.130	0.070	0.440	0.190
2020/01/31 12:16:26.3	95.120	0.050	0.480	0.250
2020/01/31 12:16:26.4	95.120	0.020	0.520	0.300
2020/01/31 12:16:26.5	95.110	-0.010	0.550	0.360
2020/01/31 12:16:26.6	95.100	-0.030	0.570	0.420
2020/01/31 12:16:26.7	95.090	-0.050	0.590	0.470
2020/01/31 12:16:26.8	95.090	-0.070	0.600	0.520
2020/01/31 12:16:26.9	95.080	-0.090	0.610	0.570
2020/01/31 12:16:27.0	95.080	-0.110	0.610	0.630
2020/01/31 12:16:27.1	95.080	-0.130	0.600	0.680
2020/01/31 12:16:27.2	95.080	-0.140	0.590	0.720
2020/01/31 12:16:27.3	95.080	-0.150	0.570	0.770
2020/01/31 12:16:27.4	95.080	-0.160	0.540	0.820
2020/01/31 12:16:27.5	95.090	-0.170	0.520	0.860
2020/01/31 12:16:27.6	95.090	-0.180	0.480	0.910
2020/01/31 12:16:27.7	95.100	-0.180	0.440	0.950
2020/01/31 12:16:27.8	95.100	-0.190	0.400	1.000
2020/01/31 12:16:27.9	95.110	-0.190	0.350	1.040
2020/01/31 12:16:28.0	95.110	-0.190	0.300	1.080
2020/01/31 12:16:28.1	95.120	-0.190	0.250	1.110
2020/01/31 12:16:28.2	95.130	-0.180	0.200	1.150
2020/01/31 12:16:28.3	95.140	-0.180	0.140	1.180
2020/01/31 12:16:28.4	95.150	-0.170	0.090	1.210
2020/01/31 12:16:28.5	95.150	-0.170	0.030	1.230
2020/01/31 12:16:28.6	95.170	-0.160	-0.020	1.250
2020/01/31 12:16:28.7	95.180	-0.150	-0.080	1.270
2020/01/31 12:16:28.8	95.190	-0.140	-0.130	1.290
2020/01/31 12:16:28.9	95.210	-0.130	-0.180	1.300
2020/01/31 12:16:29.0	95.220	-0.120	-0.230	1.310
2020/01/31 12:16:29.1	95.240	-0.110	-0.280	1.310
2020/01/31 12:16:29.2	95.260	-0.100	-0.320	1.320
2020/01/31 12:16:29.3	95.280	-0.090	-0.360	1.310
2020/01/31 12:16:29.4	95.300	-0.080	-0.400	1.310
2020/01/31 12:16:29.5	95.320	-0.060	-0.430	1.300
2020/01/31 12:16:29.6	95.340	-0.050	-0.460	1.290
2020/01/31 12:16:29.7	95.370	-0.040	-0.490	1.270
2020/01/31 12:16:29.8	95.390	-0.030	-0.510	1.260
2020/01/31 12:16:29.9	95.420	-0.010	-0.530	1.240
2020/01/31 12:16:30.0	95.450	-0.000	-0.550	1.230
2020/01/31 12:16:30.1	95.480	0.010	-0.560	1.210
2020/01/31 12:16:30.2	95.510	0.020	-0.570	1.190
2020/01/31 12:16:30.3	95.540	0.040	-0.580	1.170
2020/01/31 12:16:30.4	95.570	0.050	-0.590	1.160
2020/01/31 12:16:30.5	95.600	0.060	-0.590	1.140
2020/01/31 12:16:30.6	95.600	0.070	-0.590	1.120
2020/01/31 12:16:30.7	95.630	0.090	-0.590	1.110
2020/01/31 12:16:30.8	95.660	0.100	-0.590	1.100
2020/01/31 12:16:30.9	95.680	0.110	-0.580	1.090
2020/01/31 12:16:31.0	95.700	0.120	-0.570	1.080
2020/01/31 12:16:31.1	95.720	0.130	-0.560	1.070
2020/01/31 12:16:31.2	95.730	0.140	-0.540	1.070
2020/01/31 12:16:31.3	95.750	0.150	-0.530	1.070
2020/01/31 12:16:31.4	95.760	0.160	-0.510	1.070
2020/01/31 12:16:31.5	95.750	0.160	-0.490	1.070
2020/01/31 12:16:31.6	95.760	0.170	-0.470	1.080
2020/01/31 12:16:31.7	95.770	0.170	-0.450	1.080
2020/01/31 12:16:31.8	95.780	0.180	-0.430	1.090
2020/01/31 12:16:31.9	95.780	0.180	-0.400	1.100
2020/01/31 12:16:32.0	95.780	0.180	-0.380	1.110
2020/01/31 12:16:32.1	95.780	0.180	-0.360	1.120
2020/01/31 12:16:32.2	95.780	0.170	-0.330	1.130
2020/01/31 12:16:32.3	95.780	0.170	-0.310	1.140
2020/01/31 12:16:32.4	95.780	0.160	-0.280	1.150
2020/01/31 12:16:32.5	95.780	0.150	-0.260	1.150
2020/01/31 12:16:32.6	95.780	0.150	-0.240	1.170
2020/01/31 12:16:32.7	95.780	0.130	-0.210	1.170
2020/01/31 12:16:32.8	95.780	0.120	-0.180	1.180
2020/01/31 12:16:32.9	95.770	0.110	-0.160	1.190
2020/01/31 12:16:33.0	95.770	0.090	-0.130	1.200
2020/01/31 12:16:33.1	95.770	0.070	-0.100	1.200
2020/01/31 12:16:33.2	95.760	0.050	-0.070	1.210
2020/01/31 12:16:33.3	95.760	0.030	-0.050	1.210
2020/01/31 12:16:33.4	95.760	0.010	-0.020	1.210
2020/01/31 12:16:33.5	95.750	-0.020	0.010	1.200
2020/01/31 12:16:33.6	95.750	-0.040	0.040	1.200
2020/01/31 12:16:33.7	95.750	-0.070	0.070	1.190
2020/01/31 12:16:33.8	95.740	-0.090	0.090	1.180
2020/01/31 12:16:33.9	95.740	-0.120	0.120	1.170
2020/01/31 12:16:34.0	95.740	-0.140	0.140	1.150
2020/01/31 12:16:34.1	95.740	-0.170	0.170	1.130
2020/01/31 12:16:34.2	95.740	-0.200	0.190	1.100
2020/01/31 12:16:34.3	95.740	-0.220	0.210	1.080
2020/01/31 12:16:34.4	95.750	-0.250	0.230	1.050
2020/01/31 12:16:34.5	95.750	-0.270	0.250	1.010
2020/01/31 12:16:34.6	95.760	-0.290	0.260	0.980
2020/01/31 12:16:34.7	95.770	-0.320	0.270	0.940
2020/01/31 12:16:34.8	95.770	-0.340	0.280	0.900
2020/01/31 12:16:34.9	95.780	-0.350	0.290	0.860
2020/01/31 12:16:35.0	95.790	-0.370	0.300	0.810
2020/01/31 12:16:35.1	95.800	-0.380	0.300	0.770
2020/01/31 12:16:35.2	95.810	-0.390	0.290	0.720
2020/01/31 12:16:35.3	95.830	-0.400	0.290	0.670
2020/01/31 12:16:35.4	95.840	-0.410	0.280	0.620
2020/01/31 12:16:35.5	95.860	-0.410	0.270	0.570
2020/01/31 12:16:35.6	95.870	-0.410	0.250	0.520
2020/01/31 12:16:35.7	95.890	-0.400	0.230	0.470
2020/01/31 12:16:35.8	95.900	-0.400	0.210	0.410
2020/01/31 12:16:35.9	95.920	-0.380	0.180	0.360
2020/01/31 12:16:36.0	95.940	-0.370	0.150	0.310
2020/01/31 12:16:36.1	95.960	-0.350	0.110	0.250
2020/01/31 12:16:36.2	95.980	-0.330	0.080	0.200
2020/01/31 12:16:36.3	96.000	-0.310	0.040	0.140
2020/01/31 12:16:36.4	96.020	-0.280	-0.010	0.090
2020/01/31 12:16:36.5	96.030	-0.250	-0.050	0.030
2020/01/31 12:16:36.6	96.050	-0.220	-0.100	-0.020
2020/01/31 12:16:36.7	96.070	-0.190	-0.140	-0.080
2020/01/31 12:16:36.8	96.090	-0.150	-0.190	-0.130
2020/01/31 12:16:36.9	96.110	-0.120	-0.240	-0.180
2020/01/31 12:16:37.0	96.130	-0.080	-0.280	-0.230
2020/01/31 12:16:37.1	96.150	-0.040	-0.330	-0.280
2020/01/31 12:16:37.2	96.170	0.000	-0.380	-0.320
2020/01/31 12:16:37.3	96.190	0.050	-0.420	-0.370
2020/01/31 12:16:37.4	96.200	0.090	-0.460	-0.410
2020/01/31 12:16:37.5	96.220	0.130	-0.500	-0.450
2020/01/31 12:16:37.6	96.230	0.170	-0.530	-0.480
2020/01/31 12:16:37.7	96.250	0.210	-0.570	-0.510
2020/01/31 12:16:37.8	96.260	0.250	-0.600	-0.540
2020/01/31 12:16:37.9	96.280	0.280	-0.620	-0.570
2020/01/31 12:16:38.0	96.290	0.320	-0.650	-0.590
2020/01/31 12:16:38.1	96.310	0.350	-0.670	-0.610
2020/01/31 12:16:38.2	96.320	0.380	-0.680	-0.630
2020/01/31 12:16:38.3	96.340	0.410	-0.690	-0.640
2020/01/31 12:16:38.4	96.350	0.430	-0.700	-0.650
2020/01/31 12:16:38.5	96.350	0.460	-0.700	-0.650
2020/01/31 12:16:38.6	96.370	0.470	-0.700	-0.650
2020/01/31 12:16:38.7	96.380	0.490	-0.690	-0.650
2020/01/31 12:16:38.8	96.390	0.500	-0.680	-0.640
2020/01/31 12:16:38.9	96.400	0.510	-0.670	-0.630
2020/01/31 12:16:39.0	96.410	0.510	-0.650	-0.620
2020/01/31 12:16:39.1	96.420	0.510	-0.630	-0.600
2020/01/31 12:16:39.2	96.430	0.510	-0.600	-0.580
2020/01/31 12:16:39.3	96.440	0.500	-0.570	-0.560
2020/01/31 12:16:39.4	96.450	0.490	-0.540	-0.530
2020/01/31 12:16:39.5	96.450	0.480	-0.510	-0.500
2020/01/31 12:16:39.6	96.460	0.460	-0.470	-0.470
2020/01/31 12:16:39.7	96.460	0.450	-0.440	-0.440
2020/01/31 12:16:39.8	96.470	0.420	-0.400	-0.400
2020/01/31 12:16:39.9	96.470	0.400	-0.360	-0.360
2020/01/31 12:16:40.0	96.470	0.380	-0.320	-0.320
2020/01/31 12:16:40.1	96.480	0.350	-0.290	-0.280
2020/01/31 12:16:40.2	96.480	0.320	-0.250	-0.240
2020/01/31 12:16:40.3	96.480	0.290	-0.210	-0.190
2020/01/31 12:16:40.4	96.490	0.260	-0.180	-0.150
2020/01/31 12:16:40.5	96.490	0.230	-0.140	-0.100
2020/01/31 12:16:40.6	96.490	0.200	-0.110	-0.060
2020/01/31 12:16:40.7	96.500	0.170	-0.080	-0.010
2020/01/31 12:16:40.8	96.500	0.140	-0.050	0.040
2020/01/31 12:16:40.9	96.500	0.110	-0.020	0.080
2020/01/31 12:16:41.0	96.510	0.070	0.000	0.130
2020/01/31 12:16:41.1	96.510	0.040	0.020	0.180
2020/01/31 12:16:41.2	96.520	0.020	0.040	0.220
2020/01/31 12:16:41.3	96.520	-0.010	0.060	0.270
2020/01/31 12:16:41.4	96.530	-0.040	0.080	0.320
2020/01/31 12:16:41.5	96.530	-0.070	0.100	0.360
2020/01/31 12:16:41.6	96.530	-0.100	0.110	0.410
2020/01/31 12:16:41.7	96.540	-0.120	0.120	0.460
2020/01/31 12:16:41.8	96.540	-0.140	0.130	0.510
2020/01/31 12:16:41.9	96.540	-0.170	0.140	0.560
2020/01/31 12:16:42.0	96.540	-0.190	0.140	0.610
2020/01/31 12:16:42.1	96.540	-0.210	0.150	0.660
2020/01/31 12:16:42.2	96.540	-0.230	0.150	0.710
2020/01/31 12:16:42.3	96.540	-0.250	0.160	0.760
2020/01/31 12:16:42.4	96.540	-0.270	0.160	0.810
2020/01/31 12:16:42.5	96.540	-0.280	0.160	0.860
2020/01/31 12:16:42.6	96.540	-0.300	0.150	0.910
2020/01/31 12:16:42.7	96.540	-0.310	0.150	0.960
2020/01/31 12:16:42.8	96.540	-0.320	0.150	1.010
2020/01/31 12:16:42.9	96.540	-0.340	0.140	1.060
2020/01/31 12:16:43.0	96.540	-0.340	0.140	1.100
2020/01/31 12:16:43.1	96.550	-0.350	0.130	1.150
2020/01/31 12:16:43.2	96.550	-0.360	0.130	1.200
2020/01/31 12:16:43.3	96.550	-0.370	0.120	1.240
2020/01/31 12:16:43.4	96.560	-0.370	0.110	1.280
2020/01/31 12:16:43.5	96.560	-0.370	0.100	1.320
2020/01/31 12:16:43.6	96.570	-0.370	0.090	1.360
2020/01/31 12:16:43.7	96.580	-0.370	0.080	1.400
2020/01/31 12:16:43.8	96.590	-0.370	0.060	1.430
2020/01/31 12:16:43.9	96.590	-0.370	0.050	1.470
2020/01/31 12:16:44.0	96.600	-0.360	0.030	1.490
2020/01/31 12:16:44.1	96.610	-0.360	0.020	1.520
2020/01/31 12:16:44.2	96.620	-0.350	-0.000	1.550
2020/01/31 12:16:44.3	96.630	-0.340	-0.020	1.570
2020/01/31 12:16:44.4	96.640	-0.330	-0.030	1.590
2020/01/31 12:16:44.5	96.650	-0.320	-0.050	1.600
2020/01/31 12:16:44.6	96.670	-0.310	-0.070	1.620
2020/01/31 12:16:44.7	96.680	-0.300	-0.090	1.630
2020/01/31 12:16:44.8	96.690	-0.290	-0.110	1.640
2020/01/31 12:16:44.9	96.700	-0.270	-0.130	1.650
2020/01/31 12:16:45.0	96.720	-0.260	-0.150	1.650
2020/01/31 12:16:45.1	96.730	-0.240	-0.170	1.650
2020/01/31 12:16:45.2	96.740	-0.220	-0.190	1.650
2020/01/31 12:16:45.3	96.760	-0.200	-0.210	1.640
2020/01/31 12:16:45.4	96.770	-0.190	-0.230	1.630
2020/01/31 12:16:45.5	96.790	-0.170	-0.250	1.610
2020/01/31 12:16:45.6	96.810	-0.150	-0.270	1.600
2020/01/31 12:16:45.7	96.820	-0.130	-0.290	1.570
2020/01/31 12:16:45.8	96.840	-0.100	-0.310	1.550
2020/01/31 12:16:45.9	96.860	-0.080	-0.330	1.530
2020/01/31 12:16:46.0	96.890	-0.060	-0.350	1.500
2020/01/31 12:16:46.1	96.910	-0.040	-0.370	1.460
2020/01/31 12:16:46.2	96.930	-0.020	-0.390	1.430
2020/01/31 12:16:46.3	96.950	0.000	-0.410	1.390
2020/01/31 12:16:46.4	96.980	0.030	-0.430	1.360
2020/01/31 12:16:46.5	96.990	0.050	-0.450	1.320
2020/01/31 12:16:46.6	97.020	0.070	-0.470	1.280
2020/01/31 12:16:46.7	97.040	0.100	-0.480	1.240
2020/01/31 12:16:46.8	97.060	0.120	-0.500	1.190
2020/01/31 12:16:46.9	97.080	0.140	-0.510	1.150
2020/01/31 12:16:47.0	97.100	0.160	-0.520	1.110
2020/01/31 12:16:47.1	97.120	0.180	-0.540	1.060
2020/01/31 12:16:47.2	97.140	0.210	-0.550	1.020
2020/01/31 12:16:47.3	97.150	0.230	-0.560	0.980
2020/01/31 12:16:47.4	97.170	0.250	-0.570	0.940
2020/01/31 12:16:47.5	97.180	0.270	-0.570	0.900
2020/01/31 12:16:47.6	97.190	0.290	-0.570	0.860
2020/01/31 12:16:47.7	97.200	0.310	-0.580	0.820
2020/01/31 12:16:47.8	97.210	0.320	-0.580	0.780
2020/01/31 12:16:47.9	97.220	0.340	-0.580	0.750
2020/01/31 12:16:48.0	97.220	0.360	-0.580	0.720
2020/01/31 12:16:48.1	97.230	0.380	-0.580	0.680
2020/01/31 12:16:48.2	97.230	0.390	-0.580	0.650
2020/01/31 12:16:48.3	97.230	0.410	-0.570	0.620
2020/01/31 12:16:48.4	97.230	0.420	-0.570	0.590
2020/01/31 12:16:48.5	97.220	0.430	-0.560	0.570
2020/01/31 12:16:48.6	97.220	0.440	-0.550	0.540
2020/01/31 12:16:48.7	97.220	0.460	-0.540	0.520
2020/01/31 12:16:48.8	97.220	0.460	-0.530	0.490
2020/01/31 12:16:48.9	97.220	0.470	-0.510	0.470
2020/01/31 12:16:49.0	97.220	0.480	-0.500	0.440
2020/01/31 12:16:49.1	97.220	0.480	-0.480	0.420
2020/01/31 12:16:49.2	97.220	0.480	-0.460	0.400
2020/01/31 12:16:49.3	97.220	0.480	-0.440	0.370
2020/01/31 12:16:49.4	97.220	0.480	-0.410	0.350
2020/01/31 12:16:49.5	97.220	0.480	-0.380	0.330
2020/01/31 12:16:49.6	97.220	0.470	-0.360	0.310
2020/01/31 12:16:49.7	97.220	0.460	-0.330	0.290
2020/01/31 12:16:49.8	97.220	0.450	-0.300	0.270
2020/01/31 12:16:49.9	97.220	0.440	-0.270	0.250
2020/01/31 12:16:50.0	97.230	0.420	-0.240	0.230
2020/01/31 12:16:50.1	97.230	0.400	-0.210	0.210
2020/01/31 12:16:50.2	97.230	0.380	-0.170	0.190
2020/01/31 12:16:50.3	97.230	0.350	-0.140	0.180
2020/01/31 12:16:50.4	97.230	0.330	-0.100	0.160
2020/01/31 12:16:50.5	97.230	0.300	-0.070	0.140
2020/01/31 12:16:50.6	97.230	0.260	-0.030	0.120
2020/01/31 12:16:50.7	97.230	0.230	0.010	0.110
2020/01/31 12:16:50.8	97.240	0.190	0.050	0.090
2020/01/31 12:16:50.9	97.240	0.150	0.090	0.080
2020/01/31 12:16:51.0	97.250	0.110	0.130	0.060
2020/01/31 12:16:51.1	97.250	0.070	0.170	0.050
2020/01/31 12:16:51.2	97.260	0.020	0.210	0.040
2020/01/31 12:16:51.3	97.260	-0.020	0.250	0.030
2020/01/31 12:16:51.4	97.270	-0.070	0.290	0.010
2020/01/31 12:16:51.5	97.270	-0.120	0.330	0.000
2020/01/31 12:16:51.6	97.280	-0.170	0.370	-0.010
2020/01/31 12:16:51.7	97.290	-0.210	0.410	-0.020
2020/01/31 12:16:51.8	97.310	-0.260	0.440	-0.030
2020/01/31 12:16:51.9	97.320	-0.310	0.470	-0.040
2020/01/31 12:16:52.0	97.340	-0.350	0.500	-0.050
2020/01/31 12:16:52.1	97.350	-0.390	0.530	-0.060
2020/01/31 12:16:52.2	97.370	-0.430	0.550	-0.070
2020/01/31 12:16:52.3	97.390	-0.470	0.570	-0.080
2020/01/31 12:16:52.4	97.410	-0.510	0.590	-0.090
2020/01/31 12:16:52.5	97.430	-0.540	0.600	-0.100
2020/01/31 12:16:52.6	97.450	-0.560	0.600	-0.110
2020/01/31 12:16:52.7	97.480	-0.590	0.600	-0.120
2020/01/31 12:16:52.8	97.500	-0.610	0.590	-0.130
2020/01/31 12:16:52.9	97.520	-0.620	0.580	-0.140
2020/01/31 12:16:53.0	97.550	-0.630	0.560	-0.140
2020/01/31 12:16:53.1	97.570	-0.640	0.530	-0.150
2020/01/31 12:16:53.2	97.600	-0.640	0.500	-0.150
2020/01/31 12:16:53.3	97.620	-0.630	0.460	-0.150
2020/01/31 12:16:53.4	97.650	-0.630	0.420	-0.150
2020/01/31 12:16:53.5	97.680	-0.610	0.370	-0.150
2020/01/31 12:16:53.6	97.700	-0.590	0.310	-0.150
2020/01/31 12:16:53.7	97.720	-0.570	0.250	-0.140
2020/01/31 12:16:53.8	97.740	-0.540	0.190	-0.140
2020/01/31 12:16:53.9	97.760	-0.510	0.120	-0.130
2020/01/31 12:16:54.0	97.780	-0.480	0.050	-0.110
2020/01/31 12:16:54.1	97.800	-0.440	-0.030	-0.100
2020/01/31 12:16:54.2	97.820	-0.400	-0.100	-0.080
2020/01/31 12:16:54.3	97.830	-0.360	-0.180	-0.060
2020/01/31 12:16:54.4	97.850	-0.310	-0.260	-0.030
2020/01/31 12:16:54.5	97.860	-0.270	-0.340	0.000
2020/01/31 12:16:54.6	97.870	-0.220	-0.410	0.030
2020/01/31 12:16:54.7	97.890	-0.170	-0.490	0.070
2020/01/31 12:16:54.8	97.900	-0.130	-0.560	0.100
2020/01/31 12:16:54.9	97.910	-0.080	-0.630	0.140
2020/01/31 12:16:55.0	97.910	-0.030	-0.690	0.190
2020/01/31 12:16:55.1	97.920	0.010	-0.760	0.230
2020/01/31 12:16:55.2	97.930	0.050	-0.810	0.280
2020/01/31 12:16:55.3	97.930	0.090	-0.860	0.330
2020/01/31 12:16:55.4	97.930	0.130	-0.910	0.380
2020/01/31 12:16:55.5	97.950	0.170	-0.940	0.430
2020/01/31 12:16:55.6	97.950	0.200	-0.980	0.480
2020/01/31 12:16:55.7	97.950	0.230	-1.000	0.530
2020/01/31 12:16:55.8	97.950	0.260	-1.020	0.580
2020/01/31 12:16:55.9	97.950	0.280	-1.030	0.630
2020/01/31 12:16:56.0	97.950	0.300	-1.040	0.680
2020/01/31 12:16:56.1	97.950	0.310	-1.030	0.730
2020/01/31 12:16:56.2	97.950	0.320	-1.020	0.780
2020/01/31 12:16:56.3	97.950	0.330	-1.000	0.830
2020/01/31 12:16:56.4	97.960	0.330	-0.980	0.870
2020/01/31 12:16:56.5	97.960	0.330	-0.950	0.910
2020/01/31 12:16:56.6	97.970	0.330	-0.910	0.950
2020/01/31 12:16:56.7	97.970	0.320	-0.860	0.990
2020/01/31 12:16:56.8	97.980	0.300	-0.810	1.030
2020/01/31 12:16:56.9	97.990	0.290	-0.760	1.070
2020/01/31 12:16:57.0	97.990	0.270	-0.700	1.100
2020/01/31 12:16:57.1	98.010	0.250	-0.640	1.130
2020/01/31 12:16:57.2	98.020	0.230	-0.580	1.160
2020/01/31 12:16:57.3	98.030	0.200	-0.510	1.190
2020/01/31 12:16:57.4	98.040	0.170	-0.440	1.210
2020/01/31 12:16:57.5	98.070	0.150	-0.370	1.240
2020/01/31 12:16:57.6	98.080	0.120	-0.300	1.260
2020/01/31 12:16:57.7	98.100	0.090	-0.230	1.280
2020/01/31 12:16:57.8	98.120	0.060	-0.170	1.300
2020/01/31 12:16:57.9	98.140	0.030	-0.100	1.320
2020/01/31 12:16:58.0	98.160	0.000	-0.040	1.330
2020/01/31 12:16:58.1	98.170	-0.020	0.020	1.350
2020/01/31 12:16:58.2	98.190	-0.050	0.070	1.360
2020/01/31 12:16:58.3	98.210	-0.070	0.120	1.370
2020/01/31 12:16:58.4	98.220	-0.090	0.170	1.380
2020/01/31 12:16:58.5	98.240	-0.110	0.210	1.400
2020/01/31 12:16:58.6	98.250	-0.130	0.240	1.410
2020/01/31 12:16:58.7	98.270	-0.140	0.270	1.420
2020/01/31 12:16:58.8	98.270	-0.150	0.300	1.430
2020/01/31 12:16:58.9	98.280	-0.160	0.320	1.440
2020/01/31 12:16:59.0	98.290	-0.160	0.330	1.440
2020/01/31 12:16:59.1	98.290	-0.170	0.330	1.450
2020/01/31 12:16:59.2	98.290	-0.160	0.330	1.460
2020/01/31 12:16:59.3	98.290	-0.160	0.330	1.460
2020/01/31 12:16:59.4	98.290	-0.150	0.320	1.460
2020/01/31 12:16:59.5	98.290	-0.140	0.300	1.460
2020/01/31 12:16:59.6	98.290	-0.130	0.280	1.460
2020/01/31 12:16:59.7	98.280	-0.120	0.250	1.450
2020/01/31 12:16:59.8	98.280	-0.100	0.220	1.440
2020/01/31 12:16:59.9	98.270	-0.080	0.180	1.430
2020/01/31 12:17:00.0	98.270	-0.060	0.140	1.410
2020/01/31 12:17:00.1	98.270	-0.030	0.100	1.390
2020/01/31 12:17:00.2	98.270	-0.010	0.050	1.370
2020/01/31 12:17:00.3	98.260	0.020	0.000	1.340
2020/01/31 12:17:00.4	98.260	0.050	-0.050	1.310
2020/01/31 12:17:00.5	98.260	0.070	-0.100	1.280
2020/01/31 12:17:00.6	98.270	0.100	-0.150	1.240
2020/01/31 12:17:00.7	98.270	0.130	-0.210	1.200
2020/01/31 12:17:00.8	98.280	0.160	-0.260	1.160
2020/01/31 12:17:00.9	98.290	0.180	-0.310	1.110
2020/01/31 12:17:01.0	98.300	0.210	-0.350	1.070
2020/01/31 12:17:01.1	98.320	0.230	-0.400	1.020
2020/01/31 12:17:01.2	98.340	0.250	-0.440	0.970
2020/01/31 12:17:01.3	98.350	0.270	-0.470	0.920
2020/01/31 12:17:01.4	98.370	0.290	-0.500	0.860
2020/01/31 12:17:01.5	98.400	0.300	-0.530	0.810
2020/01/31 12:17:01.6	98.420	0.320	-0.550	0.760
2020/01/31 12:17:01.7	98.450	0.320	-0.560	0.710
2020/01/31 12:17:01.8	98.470	0.330	-0.570	0.660
2020/01/31 12:17:01.9	98.500	0.330	-0.570	0.600
2020/01/31 12:17:02.0	98.530	0.330	-0.560	0.550
2020/01/31 12:17:02.1	98.570	0.330	-0.550	0.500
2020/01/31 12:17:02.2	98.600	0.320	-0.530	0.460
2020/01/31 12:17:02.3	98.640	0.310	-0.510	0.410
2020/01/31 12:17:02.4	98.670	0.300	-0.490	0.370
2020/01/31 12:17:02.5	98.700	0.280	-0.450	0.320
2020/01/31 12:17:02.6	98.740	0.260	-0.410	0.280
2020/01/31 12:17:02.7	98.780	0.240	-0.380	0.240
2020/01/31 12:17:02.8	98.820	0.220	-0.330	0.210
2020/01/31 12:17:02.9	98.860	0.190	-0.290	0.180
2020/01/31 12:17:03.0	98.890	0.170	-0.240	0.150
2020/01/31 12:17:03.1	98.930	0.140	-0.200	0.120
2020/01/31 12:17:03.2	98.970	0.110	-0.150	0.090
2020/01/31 12:17:03.3	99.010	0.090	-0.110	0.070
2020/01/31 12:17:03.4	99.040	0.060	-0.060	0.050
2020/01/31 12:17:03.5	99.060	0.030	-0.030	0.030
2020/01/31 12:17:03.6	99.100	0.010	0.010	0.010
2020/01/31 12:17:03.7	99.140	-0.010	0.050	-0.000
2020/01/31 12:17:03.8	99.170	-0.040	0.080	-0.010
2020/01/31 12:17:03.9	99.200	-0.060	0.100	-0.020
2020/01/31 12:17:04.0	99.240	-0.080	0.120	-0.030
2020/01/31 12:17:04.1	99.270	-0.090	0.140	-0.030
2020/01/31 12:17:04.2	99.300	-0.110	0.150	-0.040
2020/01/31 12:17:04.3	99.330	-0.120	0.150	-0.040
2020/01/31 12:17:04.4	99.360	-0.130	0.150	-0.040
2020/01/31 12:17:04.5	99.380	-0.140	0.150	-0.030
2020/01/31 12:17:04.6	99.410	-0.140	0.150	-0.020
2020/01/31 12:17:04.7	99.430	-0.150	0.140	-0.010
2020/01/31 12:17:04.8	99.450	-0.150	0.120	-0.000
2020/01/31 12:17:04.9	99.470	-0.160	0.100	0.020
2020/01/31 12:17:05.0	99.480	-0.160	0.080	0.040
2020/01/31 12:17:05.1	99.490	-0.160	0.060	0.060
2020/01/31 12:17:05.2	99.490	-0.170	0.040	0.090
2020/01/31 12:17:05.3	99.490	-0.170	0.020	0.130
2020/01/31 12:17:05.4	99.480	-0.170	-0.000	0.160
2020/01/31 12:17:05.5	99.470	-0.180	-0.030	0.210
2020/01/31 12:17:05.6	99.460	-0.190	-0.050	0.250
2020/01/31 12:17:05.7	99.440	-0.190	-0.070	0.300
2020/01/31 12:17:05.8	99.420	-0.200	-0.080	0.350
2020/01/31 12:17:05.9	99.390	-0.220	-0.100	0.400
2020/01/31 12:17:06.0	99.370	-0.230	-0.110	0.460
2020/01/31 12:17:06.1	99.340	-0.240	-0.120	0.510
2020/01/31 12:17:06.2	99.310	-0.260	-0.120	0.570
2020/01/31 12:17:06.3	99.270	-0.280	-0.130	0.620
2020/01/31 12:17:06.4	99.240	-0.300	-0.130	0.680
2020/01/31 12:17:06.5	99.220	-0.320	-0.130	0.730
2020/01/31 12:17:06.6	99.190	-0.340	-0.130	0.790
2020/01/31 12:17:06.7	99.150	-0.370	-0.130	0.840
2020/01/31 12:17:06.8	99.120	-0.390	-0.120	0.890
2020/01/31 12:17:06.9	99.090	-0.420	-0.120	0.940
2020/01/31 12:17:07.0	99.060	-0.440	-0.110	0.980
2020/01/31 12:17:07.1	99.040	-0.470	-0.100	1.020
2020/01/31 12:17:07.2	99.010	-0.490	-0.100	1.050
2020/01/31 12:17:07.3	99.000	-0.510	-0.090	1.080
2020/01/31 12:17:07.4	98.980	-0.530	-0.080	1.110
2020/01/31 12:17:07.5	98.980	-0.550	-0.080	1.120
2020/01/31 12:17:07.6	98.970	-0.560	-0.070	1.130
2020/01/31 12:17:07.7	98.970	-0.580	-0.070	1.140
2020/01/31 12:17:07.8	98.980	-0.590	-0.060	1.140
2020/01/31 12:17:07.9	98.990	-0.590	-0.060	1.130
2020/01/31 12:17:08.0	99.000	-0.590	-0.060	1.110
2020/01/31 12:17:08.1	99.010	-0.590	-0.070	1.100
2020/01/31 12:17:08.2	99.030	-0.580	-0.070	1.070
2020/01/31 12:17:08.3	99.060	-0.570	-0.080	1.040
2020/01/31 12:17:08.4	99.080	-0.550	-0.090	1.010
2020/01/31 12:17:08.5	99.110	-0.530	-0.100	0.980
2020/01/31 12:17:08.6	99.150	-0.500	-0.120	0.940
2020/01/31 12:17:08.7	99.180	-0.470	-0.140	0.900
2020/01/31 12:17:08.8	99.220	-0.440	-0.160	0.860
2020/01/31 12:17:08.9	99.250	-0.400	-0.190	0.810
2020/01/31 12:17:09.0	99.290	-0.350	-0.210	0.770
2020/01/31 12:17:09.1	99.320	-0.310	-0.240	0.720
2020/01/31 12:17:09.2	99.360	-0.260	-0.270	0.680
2020/01/31 12:17:09.3	99.400	-0.200	-0.310	0.630
2020/01/31 12:17:09.4	99.440	-0.140	-0.340	0.590
2020/01/31 12:17:09.5	99.480	-0.080	-0.380	0.550
2020/01/31 12:17:09.6	99.520	-0.020	-0.420	0.500
2020/01/31 12:17:09.7	99.560	0.040	-0.450	0.450
2020/01/31 12:17:09.8	99.600	0.100	-0.490	0.410
2020/01/31 12:17:09.9	99.640	0.170	-0.530	0.370
2020/01/31 12:17:10.0	99.670	0.230	-0.560	0.330
2020/01/31 12:17:10.1	99.710	0.290	-0.600	0.290
2020/01/31 12:17:10.2	99.750	0.360	-0.640	0.250
2020/01/31 12:17:10.3	99.790	0.420	-0.670	0.220
2020/01/31 12:17:10.4	99.820	0.470	-0.700	0.180
2020/01/31 12:17:10.5	99.870	0.530	-0.730	0.150
2020/01/31 12:17:10.6	99.900	0.580	-0.750	0.130
2020/01/31 12:17:10.7	99.930	0.630	-0.780	0.100
2020/01/31 12:17:10.8	99.970	0.680	-0.800	0.080
2020/01/31 12:17:10.9	100.000	0.720	-0.820	0.060
2020/01/31 12:17:11.0	100.020	0.760	-0.830	0.040
2020/01/31 12:17:11.1	100.050	0.790	-0.840	0.030
2020/01/31 12:17:11.2	100.080	0.820	-0.840	0.020
2020/01/31 12:17:11.3	100.100	0.850	-0.850	0.000
2020/01/31 12:17:11.4	100.120	0.870	-0.840	-0.000
2020/01/31 12:17:11.5	100.140	0.880	-0.830	-0.010
2020/01/31 12:17:11.6	100.180	0.890	-0.820	-0.010
2020/01/31 12:17:11.7	100.190	0.890	-0.800	-0.010
2020/01/31 12:17:11.8	100.210	0.890	-0.770	-0.010
2020/01/31 12:17:11.9	100.220	0.880	-0.740	-0.000
2020/01/31 12:17:12.0	100.240	0.870	-0.710	0.000
2020/01/31 12:17:12.1	100.250	0.860	-0.670	0.010
2020/01/31 12:17:12.2	100.260	0.840	-0.620	0.030
2020/01/31 12:17:12.3	100.270	0.810	-0.570	0.040
2020/01/31 12:17:12.4	100.270	0.780	-0.520	0.060
2020/01/31 12:17:12.5	100.280	0.750	-0.460	0.080
2020/01/31 12:17:12.6	100.280	0.710	-0.400	0.110
2020/01/31 12:17:12.7	100.280	0.670	-0.330	0.130
2020/01/31 12:17:12.8	100.280	0.620	-0.260	0.160
2020/01/31 12:17:12.9	100.280	0.580	-0.190	0.190
2020/01/31 12:17:13.0	100.280	0.530	-0.120	0.230
2020/01/31 12:17:13.1	100.270	0.470	-0.040	0.270
2020/01/31 12:17:13.2	100.270	0.420	0.040	0.310
2020/01/31 12:17:13.3	100.260	0.370	0.120	0.350
2020/01/31 12:17:13.4	100.250	0.310	0.190	0.400
2020/01/31 12:17:13.5	100.240	0.250	0.270	0.440
2020/01/31 12:17:13.6	100.230	0.200	0.350	0.490
2020/01/31 12:17:13.7	100.220	0.140	0.420	0.540
2020/01/31 12:17:13.8	100.220	0.080	0.490	0.590
2020/01/31 12:17:13.9	100.210	0.020	0.560	0.640
2020/01/31 12:17:14.0	100.190	-0.030	0.620	0.690
2020/01/31 12:17:14.1	100.180	-0.090	0.680	0.740
2020/01/31 12:17:14.2	100.170	-0.140	0.730	0.790
2020/01/31 12:17:14.3	100.160	-0.190	0.780	0.840
2020/01/31 12:17:14.4	100.150	-0.250	0.820	0.890
2020/01/31 12:17:14.5	100.130	-0.290	0.860	0.940
2020/01/31 12:17:14.6	100.120	-0.340	0.890	0.990
2020/01/31 12:17:14.7	100.110	-0.380	0.910	1.030
2020/01/31 12:17:14.8	100.100	-0.430	0.930	1.080
2020/01/31 12:17:14.9	100.090	-0.460	0.940	1.120
2020/01/31 12:17:15.0	100.080	-0.500	0.940	1.160
2020/01/31 12:17:15.1	100.070	-0.530	0.940	1.190
2020/01/31 12:17:15.2	100.060	-0.560	0.930	1.230
2020/01/31 12:17:15.3	100.050	-0.590	0.910	1.260
2020/01/31 12:17:15.4	100.040	-0.610	0.890	1.280
2020/01/31 12:17:15.5	100.040	-0.630	0.860	1.300
2020/01/31 12:17:15.6	100.030	-0.650	0.820	1.320
2020/01/31 12:17:15.7	100.030	-0.660	0.770	1.340
2020/01/31 12:17:15.8	100.030	-0.670	0.720	1.350
2020/01/31 12:17:15.9	100.020	-0.680	0.660	1.360
2020/01/31 12:17:16.0	100.020	-0.680	0.600	1.370
2020/01/31 12:17:16.1	100.030	-0.680	0.530	1.370
2020/01/31 12:17:16.2	100.030	-0.680	0.450	1.370
2020/01/31 12:17:16.3	100.040	-0.670	0.370	1.370
2020/01/31 12:17:16.4	100.050	-0.660	0.290	1.370
2020/01/31 12:17:16.5	100.060	-0.650	0.190	1.360
2020/01/31 12:17:16.6	100.080	-0.630	0.100	1.350
2020/01/31 12:17:16.7	100.090	-0.610	0.010	1.340
2020/01/31 12:17:16.8	100.110	-0.590	-0.090	1.330
2020/01/31 12:17:16.9	100.130	-0.570	-0.190	1.310
2020/01/31 12:17:17.0	100.160	-0.540	-0.290	1.300
2020/01/31 12:17:17.1	100.180	-0.510	-0.390	1.280
2020/01/31 12:17:17.2	100.210	-0.480	-0.490	1.270
2020/01/31 12:17:17.3	100.240	-0.440	-0.590	1.250
2020/01/31 12:17:17.4	100.270	-0.410	-0.680	1.230
2020/01/31 12:17:17.5	100.310	-0.370	-0.780	1.210
2020/01/31 12:17:17.6	100.340	-0.330	-0.870	1.190
2020/01/31 12:17:17.7	100.380	-0.290	-0.960	1.170
2020/01/31 12:17:17.8	100.420	-0.240	-1.040	1.150
2020/01/31 12:17:17.9	100.460	-0.200	-1.120	1.130
2020/01/31 12:17:18.0	100.500	-0.160	-1.190	1.110
2020/01/31 12:17:18.1	100.550	-0.120	-1.260	1.090
2020/01/31 12:17:18.2	100.590	-0.070	-1.320	1.070
2020/01/31 12:17:18.3	100.630	-0.030	-1.380	1.050
2020/01/31 12:17:18.4	100.670	0.010	-1.420	1.030
2020/01/31 12:17:18.5	100.710	0.050	-1.460	1.010
2020/01/31 12:17:18.6	100.750	0.090	-1.490	0.990
2020/01/31 12:17:18.7	100.790	0.130	-1.510	0.980
2020/01/31 12:17:18.8	100.830	0.160	-1.530	0.960
2020/01/31 12:17:18.9	100.860	0.190	-1.530	0.950
2020/01/31 12:17:19.0	100.890	0.220	-1.520	0.930
2020/01/31 12:17:19.1	100.920	0.250	-1.510	0.920
2020/01/31 12:17:19.2	100.940	0.280	-1.480	0.910
2020/01/31 12:17:19.3	100.970	0.300	-1.450	0.900
2020/01/31 12:17:19.4	100.980	0.320	-1.410	0.890
2020/01/31 12:17:19.5	101.000	0.330	-1.350	0.890
2020/01/31 12:17:19.6	101.010	0.340	-1.290	0.880
2020/01/31 12:17:19.7	101.020	0.350	-1.220	0.870
2020/01/31 12:17:19.8	101.030	0.360	-1.150	0.870
2020/01/31 12:17:19.9	101.030	0.360	-1.060	0.860
2020/01/31 12:17:20.0	101.030	0.360	-0.970	0.860
2020/01/31 12:17:20.1	101.030	0.350	-0.870	0.860
2020/01/31 12:17:20.2	101.030	0.340	-0.770	0.860
2020/01/31 12:17:20.3	101.030	0.330	-0.660	0.850
2020/01/31 12:17:20.4	101.030	0.320	-0.550	0.850
2020/01/31 12:17:20.5	101.010	0.300	-0.440	0.850
2020/01/31 12:17:20.6	101.000	0.280	-0.330	0.850
2020/01/31 12:17:20.7	101.000	0.260	-0.210	0.850
2020/01/31 12:17:20.8	100.990	0.240	-0.090	0.840
2020/01/31 12:17:20.9	100.990	0.210	0.030	0.840
2020/01/31 12:17:21.0	100.990	0.180	0.140	0.840
2020/01/31 12:17:21.1	100.980	0.150	0.260	0.830
2020/01/31 12:17:21.2	100.980	0.120	0.370	0.830
2020/01/31 12:17:21.3	100.980	0.090	0.480	0.820
2020/01/31 12:17:21.4	100.980	0.060	0.580	0.820
2020/01/31 12:17:21.5	100.980	0.030	0.680	0.810
2020/01/31 12:17:21.6	100.980	-0.000	0.780	0.800
2020/01/31 12:17:21.7	100.980	-0.030	0.860	0.790
2020/01/31 12:17:21.8	100.990	-0.070	0.940	0.770
2020/01/31 12:17:21.9	100.990	-0.100	1.010	0.760
2020/01/31 12:17:22.0	100.990	-0.120	1.070	0.740
2020/01/31 12:17:22.1	100.990	-0.150	1.120	0.730
2020/01/31 12:17:22.2	101.000	-0.180	1.160	0.710
2020/01/31 12:17:22.3	101.000	-0.200	1.190	0.690
2020/01/31 12:17:22.4	101.000	-0.220	1.210	0.660
2020/01/31 12:17:22.5	101.010	-0.240	1.210	0.640
2020/01/31 12:17:22.6	101.010	-0.260	1.210	0.610
2020/01/31 12:17:22.7	101.010	-0.270	1.200	0.590
2020/01/31 12:17:22.8	101.020	-0.280	1.170	0.560
2020/01/31 12:17:22.9	101.020	-0.280	1.130	0.530
2020/01/31 12:17:23.0	101.030	-0.290	1.090	0.500
2020/01/31 12:17:23.1	101.030	-0.290	1.030	0.470
2020/01/31 12:17:23.2	101.040	-0.280	0.960	0.440
2020/01/31 12:17:23.3	101.040	-0.270	0.880	0.400
2020/01/31 12:17:23.4	101.050	-0.260	0.790	0.370
2020/01/31 12:17:23.5	101.060	-0.250	0.690	0.340
2020/01/31 12:17:23.6	101.070	-0.230	0.590	0.300
2020/01/31 12:17:23.7	101.080	-0.210	0.480	0.270
2020/01/31 12:17:23.8	101.090	-0.180	0.360	0.240
2020/01/31 12:17:23.9	101.100	-0.150	0.250	0.210
2020/01/31 12:17:24.0	101.110	-0.130	0.120	0.170
2020/01/31 12:17:24.1	101.120	-0.090	-0.000	0.140
2020/01/31 12:17:24.2	101.140	-0.060	-0.130	0.110
2020/01/31 12:17:24.3	101.150	-0.030	-0.260	0.080
2020/01/31 12:17:24.4	101.170	0.010	-0.380	0.050
2020/01/31 12:17:24.5	101.180	0.050	-0.510	0.020
2020/01/31 12:17:24.6	101.200	0.080	-0.630	-0.010
2020/01/31 12:17:24.7	101.220	0.120	-0.740	-0.030
2020/01/31 12:17:24.8	101.240	0.160	-0.850	-0.050
2020/01/31 12:17:24.9	101.260	0.190	-0.960	-0.070
2020/01/31 12:17:25.0	101.280	0.220	-1.060	-0.090
2020/01/31 12:17:25.1	101.310	0.260	-1.140	-0.110
2020/01/31 12:17:25.2	101.330	0.290	-1.220	-0.120
2020/01/31 12:17:25.3	101.350	0.320	-1.300	-0.130
2020/01/31 12:17:25.4	101.370	0.340	-1.360	-0.140
2020/01/31 12:17:25.5	101.390	0.370	-1.410	-0.150
2020/01/31 12:17:25.6	101.400	0.390	-1.440	-0.150
2020/01/31 12:17:25.7	101.420	0.410	-1.470	-0.150
2020/01/31 12:17:25.8	101.440	0.420	-1.480	-0.150
2020/01/31 12:17:25.9	101.460	0.430	-1.490	-0.140
2020/01/31 12:17:26.0	101.470	0.440	-1.480	-0.130
2020/01/31 12:17:26.1	101.490	0.450	-1.460	-0.110
2020/01/31 12:17:26.2	101.500	0.450	-1.430	-0.090
2020/01/31 12:17:26.3	101.510	0.450	-1.390	-0.070
2020/01/31 12:17:26.4	101.520	0.440	-1.330	-0.040
2020/01/31 12:17:26.5	101.520	0.430	-1.270	-0.010
2020/01/31 12:17:26.6	101.530	0.420	-1.200	0.030
2020/01/31 12:17:26.7	101.530	0.400	-1.120	0.060
2020/01/31 12:17:26.8	101.530	0.390	-1.030	0.100
2020/01/31 12:17:26.9	101.540	0.370	-0.930	0.150
2020/01/31 12:17:27.0	101.540	0.340	-0.830	0.190
2020/01/31 12:17:27.1	101.540	0.320	-0.730	0.240
2020/01/31 12:17:27.2	101.540	0.290	-0.620	0.290
2020/01/31 12:17:27.3	101.540	0.260	-0.500	0.340
2020/01/31 12:17:27.4	101.540	0.230	-0.390	0.390
2020/01/31 12:17:27.5	101.550	0.200	-0.270	0.440
2020/01/31 12:17:27.6	101.550	0.160	-0.160	0.490
2020/01/31 12:17:27.7	101.560	0.130	-0.040	0.540
2020/01/31 12:17:27.8	101.560	0.100	0.070	0.590
2020/01/31 12:17:27.9	101.570	0.060	0.170	0.640
2020/01/31 12:17:28.0	101.580	0.030	0.280	0.690
2020/01/31 12:17:28.1	101.590	0.000	0.370	0.730
2020/01/31 12:17:28.2	101.610	-0.030	0.460	0.770
2020/01/31 12:17:28.3	101.630	-0.060	0.540	0.810
2020/01/31 12:17:28.4	101.650	-0.080	0.620	0.850
2020/01/31 12:17:28.5	101.670	-0.110	0.680	0.880
2020/01/31 12:17:28.6	101.700	-0.130	0.740	0.920
2020/01/31 12:17:28.7	101.730	-0.150	0.780	0.940
2020/01/31 12:17:28.8	101.750	-0.160	0.820	0.970
2020/01/31 12:17:28.9	101.780	-0.170	0.840	0.990
2020/01/31 12:17:29.0	101.820	-0.190	0.860	1.010
2020/01/31 12:17:29.1	101.850	-0.190	0.870	1.030
2020/01/31 12:17:29.2	101.880	-0.200	0.870	1.050
2020/01/31 12:17:29.3	101.920	-0.200	0.850	1.060
2020/01/31 12:17:29.4	101.950	-0.200	0.840	1.070
2020/01/31 12:17:29.5	102.000	-0.200	0.810	1.080
2020/01/31 12:17:29.6	102.030	-0.190	0.770	1.090
2020/01/31 12:17:29.7	102.070	-0.190	0.730	1.090
2020/01/31 12:17:29.8	102.100	-0.180	0.680	1.100
2020/01/31 12:17:29.9	102.130	-0.170	0.630	1.100
2020/01/31 12:17:30.0	102.160	-0.160	0.570	1.110
2020/01/31 12:17:30.1	102.190	-0.150	0.510	1.110
2020/01/31 12:17:30.2	102.210	-0.140	0.450	1.110
2020/01/31 12:17:30.3	102.230	-0.120	0.380	1.110
2020/01/31 12:17:30.4	102.250	-0.110	0.310	1.110
2020/01/31 12:17:30.5	102.280	-0.100	0.250	1.110
2020/01/31 12:17:30.6	102.290	-0.090	0.180	1.120
2020/01/31 12:17:30.7	102.310	-0.080	0.110	1.120
2020/01/31 12:17:30.8	102.320	-0.070	0.040	1.120
2020/01/31 12:17:30.9	102.330	-0.060	-0.030	1.120
2020/01/31 12:17:31.0	102.340	-0.050	-0.100	1.120
2020/01/31 12:17:31.1	102.340	-0.040	-0.160	1.120
2020/01/31 12:17:31.2	102.350	-0.030	-0.220	1.120
2020/01/31 12:17:31.3	102.350	-0.030	-0.280	1.130
2020/01/31 12:17:31.4	102.350	-0.020	-0.330	1.130
2020/01/31 12:17:31.5	102.360	-0.020	-0.380	1.130
2020/01/31 12:17:31.6	102.360	-0.020	-0.430	1.130
2020/01/31 12:17:31.7	102.370	-0.010	-0.470	1.130
2020/01/31 12:17:31.8	102.370	-0.010	-0.510	1.140
2020/01/31 12:17:31.9	102.370	-0.010	-0.550	1.140
2020/01/31 12:17:32.0	102.380	-0.010	-0.580	1.140
2020/01/31 12:17:32.1	102.380	-0.020	-0.610	1.140
2020/01/31 12:17:32.2	102.390	-0.020	-0.640	1.140
2020/01/31 12:17:32.3	102.400	-0.020	-0.660	1.140
2020/01/31 12:17:32.4	102.410	-0.030	-0.680	1.140
2020/01/31 12:17:32.5	102.420	-0.030	-0.700	1.140
2020/01/31 12:17:32.6	102.440	-0.030	-0.710	1.140
2020/01/31 12:17:32.7	102.450	-0.030	-0.720	1.140
2020/01/31 12:17:32.8	102.460	-0.040	-0.730	1.140
2020/01/31 12:17:32.9	102.480	-0.040	-0.740	1.140
2020/01/31 12:17:33.0	102.490	-0.040	-0.750	1.140
2020/01/31 12:17:33.1	102.510	-0.040	-0.760	1.140
2020/01/31 12:17:33.2	102.520	-0.040	-0.760	1.150
2020/01/31 12:17:33.3	102.540	-0.040	-0.770	1.150
2020/01/31 12:17:33.4	102.560	-0.040	-0.770	1.150
2020/01/31 12:17:33.5	102.570	-0.040	-0.770	1.150
2020/01/31 12:17:33.6	102.590	-0.040	-0.780	1.160
2020/01/31 12:17:33.7	102.600	-0.030	-0.780	1.160
2020/01/31 12:17:33.8	102.620	-0.030	-0.780	1.170
2020/01/31 12:17:33.9	102.630	-0.020	-0.780	1.170
2020/01/31 12:17:34.0	102.650	-0.010	-0.780	1.180
2020/01/31 12:17:34.1	102.660	-0.000	-0.770	1.180
2020/01/31 12:17:34.2	102.670	0.000	-0.770	1.180
2020/01/31 12:17:34.3	102.690	0.010	-0.760	1.190
2020/01/31 12:17:34.4	102.700	0.020	-0.760	1.190
2020/01/31 12:17:34.5	102.700	0.030	-0.740	1.190
2020/01/31 12:17:34.6	102.710	0.040	-0.730	1.190
2020/01/31 12:17:34.7	102.720	0.050	-0.720	1.190
2020/01/31 12:17:34.8	102.740	0.060	-0.700	1.190
2020/01/31 12:17:34.9	102.750	0.070	-0.680	1.180
2020/01/31 12:17:35.0	102.760	0.080	-0.650	1.180
2020/01/31 12:17:35.1	102.770	0.090	-0.630	1.180
2020/01/31 12:17:35.2	102.780	0.100	-0.600	1.170
2020/01/31 12:17:35.3	102.790	0.100	-0.560	1.160
2020/01/31 12:17:35.4	102.800	0.110	-0.520	1.150
2020/01/31 12:17:35.5	102.810	0.110	-0.480	1.140
2020/01/31 12:17:35.6	102.820	0.110	-0.430	1.130
2020/01/31 12:17:35.7	102.830	0.110	-0.380	1.120
2020/01/31 12:17:35.8	102.840	0.110	-0.320	1.100
2020/01/31 12:17:35.9	102.850	0.110	-0.260	1.090
2020/01/31 12:17:36.0	102.870	0.100	-0.200	1.070
2020/01/31 12:17:36.1	102.880	0.090	-0.140	1.050
2020/01/31 12:17:36.2	102.890	0.080	-0.070	1.030
2020/01/31 12:17:36.3	102.910	0.070	0.000	1.010
2020/01/31 12:17:36.4	102.920	0.050	0.070	0.990
2020/01/31 12:17:36.5	102.950	0.040	0.150	0.970
2020/01/31 12:17:36.6	102.970	0.020	0.220	0.940
2020/01/31 12:17:36.7	102.990	-0.000	0.300	0.910
2020/01/31 12:17:36.8	103.010	-0.030	0.370	0.890
2020/01/31 12:17:36.9	103.030	-0.050	0.440	0.860
2020/01/31 12:17:37.0	103.050	-0.080	0.510	0.830
2020/01/31 12:17:37.1	103.080	-0.100	0.580	0.800
2020/01/31 12:17:37.2	103.100	-0.130	0.640	0.760
2020/01/31 12:17:37.3	103.130	-0.160	0.700	0.730
2020/01/31 12:17:37.4	103.160	-0.190	0.760	0.700
2020/01/31 12:17:37.5	103.180	-0.220	0.800	0.670
2020/01/31 12:17:37.6	103.210	-0.250	0.850	0.630
2020/01/31 12:17:37.7	103.240	-0.280	0.890	0.600
2020/01/31 12:17:37.8	103.270	-0.300	0.920	0.570
2020/01/31 12:17:37.9	103.300	-0.330	0.940	0.540
2020/01/31 12:17:38.0	103.330	-0.360	0.960	0.510
2020/01/31 12:17:38.1	103.360	-0.380	0.970	0.480
2020/01/31 12:17:38.2	103.390	-0.400	0.970	0.440
2020/01/31 12:17:38.3	103.420	-0.420	0.960	0.410
2020/01/31 12:17:38.4	103.460	-0.440	0.950	0.380
2020/01/31 12:17:38.5	103.500	-0.460	0.920	0.350
2020/01/31 12:17:38.6	103.530	-0.470	0.890	0.320
2020/01/31 12:17:38.7	103.570	-0.480	0.850	0.280
2020/01/31 12:17:38.8	103.610	-0.490	0.810	0.250
2020/01/31 12:17:38.9	103.640	-0.490	0.760	0.210
2020/01/31 12:17:39.0	103.680	-0.490	0.690	0.180
2020/01/31 12:17:39.1	103.720	-0.480	0.630	0.140
2020/01/31 12:17:39.2	103.760	-0.480	0.550	0.100
2020/01/31 12:17:39.3	103.800	-0.460	0.470	0.070
2020/01/31 12:17:39.4	103.830	-0.450	0.390	0.030
2020/01/31 12:17:39.5	103.870	-0.430	0.300	-0.000
2020/01/31 12:17:39.6	103.900	-0.410	0.210	-0.040
2020/01/31 12:17:39.7	103.930	-0.380	0.110	-0.070
2020/01/31 12:17:39.8	103.970	-0.350	0.010	-0.100
2020/01/31 12:17:39.9	104.000	-0.320	-0.090	-0.130
2020/01/31 12:17:40.0	104.030	-0.280	-0.190	-0.160
2020/01/31 12:17:40.1	104.060	-0.240	-0.290	-0.180
2020/01/31 12:17:40.2	104.080	-0.200	-0.390	-0.200
2020/01/31 12:17:40.3	104.100	-0.160	-0.490	-0.220
2020/01/31 12:17:40.4	104.130	-0.110	-0.590	-0.230
2020/01/31 12:17:40.5	104.140	-0.070	-0.690	-0.240
2020/01/31 12:17:40.6	104.160	-0.020	-0.780	-0.250
2020/01/31 12:17:40.7	104.170	0.030	-0.870	-0.250
2020/01/31 12:17:40.8	104.190	0.080	-0.960	-0.250
2020/01/31 12:17:40.9	104.200	0.120	-1.030	-0.250
2020/01/31 12:17:41.0	104.200	0.170	-1.110	-0.250
2020/01/31 12:17:41.1	104.210	0.220	-1.170	-0.240
2020/01/31 12:17:41.2	104.220	0.260	-1.230	-0.220
2020/01/31 12:17:41.3	104.220	0.310	-1.280	-0.210
2020/01/31 12:17:41.4	104.220	0.350	-1.330	-0.190
2020/01/31 12:17:41.5	104.220	0.390	-1.360	-0.170
2020/01/31 12:17:41.6	104.220	0.430	-1.390	-0.140
2020/01/31 12:17:41.7	104.230	0.460	-1.400	-0.120
2020/01/31 12:17:41.8	104.230	0.490	-1.410	-0.090
2020/01/31 12:17:41.9	104.230	0.520	-1.410	-0.050
2020/01/31 12:17:42.0	104.230	0.550	-1.400	-0.020
2020/01/31 12:17:42.1	104.240	0.570	-1.390	0.020
2020/01/31 12:17:42.2	104.240	0.590	-1.360	0.060
2020/01/31 12:17:42.3	104.250	0.600	-1.330	0.100
2020/01/31 12:17:42.4	104.260	0.610	-1.290	0.140
2020/01/31 12:17:42.5	104.260	0.620	-1.240	0.180
2020/01/31 12:17:42.6	104.280	0.620	-1.180	0.230
2020/01/31 12:17:42.7	104.290	0.620	-1.120	0.270
2020/01/31 12:17:42.8	104.300	0.620	-1.050	0.310
2020/01/31 12:17:42.9	104.320	0.610	-0.970	0.350
2020/01/31 12:17:43.0	104.340	0.600	-0.900	0.400
2020/01/31 12:17:43.1	104.360	0.580	-0.810	0.440
2020/01/31 12:17:43.2	104.390	0.570	-0.730	0.480
2020/01/31 12:17:43.3	104.410	0.550	-0.640	0.520
2020/01/31 12:17:43.4	104.440	0.520	-0.550	0.560
2020/01/31 12:17:43.5	104.470	0.500	-0.460	0.600
2020/01/31 12:17:43.6	104.500	0.470	-0.370	0.640
2020/01/31 12:17:43.7	104.530	0.440	-0.280	0.670
2020/01/31 12:17:43.8	104.570	0.410	-0.200	0.710
2020/01/31 12:17:43.9	104.600	0.380	-0.110	0.740
2020/01/31 12:17:44.0	104.640	0.350	-0.030	0.770
2020/01/31 12:17:44.1	104.680	0.310	0.050	0.800
2020/01/31 12:17:44.2	104.720	0.280	0.120	0.820
2020/01/31 12:17:44.3	104.760	0.250	0.190	0.850
2020/01/31 12:17:44.4	104.800	0.210	0.260	0.870
2020/01/31 12:17:44.5	104.850	0.180	0.320	0.900
2020/01/31 12:17:44.6	104.890	0.150	0.370	0.920
2020/01/31 12:17:44.7	104.940	0.120	0.420	0.940
2020/01/31 12:17:44.8	104.980	0.090	0.460	0.970
2020/01/31 12:17:44.9	105.030	0.060	0.500	0.990
2020/01/31 12:17:45.0	105.080	0.030	0.530	1.010
2020/01/31 12:17:45.1	105.120	0.000	0.550	1.030
2020/01/31 12:17:45.2	105.170	-0.020	0.570	1.050
2020/01/31 12:17:45.3	105.220	-0.040	0.580	1.070
2020/01/31 12:17:45.4	105.260	-0.060	0.590	1.090
2020/01/31 12:17:45.5	105.310	-0.080	0.590	1.110
2020/01/31 12:17:45.6	105.360	-0.100	0.590	1.130
2020/01/31 12:17:45.7	105.400	-0.110	0.580	1.150
2020/01/31 12:17:45.8	105.450	-0.130	0.570	1.170
2020/01/31 12:17:45.9	105.500	-0.140	0.550	1.180
2020/01/31 12:17:46.0	105.540	-0.150	0.520	1.200
2020/01/31 12:17:46.1	105.590	-0.150	0.500	1.210
2020/01/31 12:17:46.2	105.640	-0.160	0.470	1.230
2020/01/31 12:17:46.3	105.680	-0.170	0.440	1.240
2020/01/31 12:17:46.4	105.720	-0.170	0.400	1.250
2020/01/31 12:17:46.5	105.770	-0.170	0.370	1.260
2020/01/31 12:17:46.6	105.820	-0.170	0.330	1.270
2020/01/31 12:17:46.7	105.860	-0.170	0.290	1.280
2020/01/31 12:17:46.8	105.900	-0.180	0.250	1.290
2020/01/31 12:17:46.9	105.930	-0.180	0.210	1.300
2020/01/31 12:17:47.0	105.970	-0.170	0.170	1.310
2020/01/31 12:17:47.1	106.010	-0.170	0.130	1.320
2020/01/31 12:17:47.2	106.040	-0.170	0.090	1.330
2020/01/31 12:17:47.3	106.070	-0.170	0.050	1.330
2020/01/31 12:17:47.4	106.100	-0.170	0.010	1.340
2020/01/31 12:17:47.5	106.150	-0.170	-0.030	1.350
2020/01/31 12:17:47.6	106.180	-0.170	-0.060	1.360
2020/01/31 12:17:47.7	106.200	-0.170	-0.090	1.370
2020/01/31 12:17:47.8	106.220	-0.170	-0.130	1.380
2020/01/31 12:17:47.9	106.240	-0.170	-0.160	1.390
2020/01/31 12:17:48.0	106.260	-0.160	-0.180	1.400
2020/01/31 12:17:48.1	106.280	-0.160	-0.210	1.410
2020/01/31 12:17:48.2	106.290	-0.160	-0.230	1.420
2020/01/31 12:17:48.3	106.300	-0.160	-0.250	1.430
2020/01/31 12:17:48.4	106.320	-0.160	-0.270	1.440
2020/01/31 12:17:48.5	106.320	-0.160	-0.280	1.460
2020/01/31 12:17:48.6	106.330	-0.160	-0.300	1.470
2020/01/31 12:17:48.7	106.340	-0.160	-0.310	1.480
2020/01/31 12:17:48.8	106.350	-0.160	-0.320	1.500
2020/01/31 12:17:48.9	106.350	-0.160	-0.330	1.510
2020/01/31 12:17:49.0	106.360	-0.160	-0.340	1.520
2020/01/31 12:17:49.1	106.370	-0.160	-0.340	1.520
2020/01/31 12:17:49.2	106.380	-0.160	-0.350	1.530
2020/01/31 12:17:49.3	106.390	-0.150	-0.350	1.530
2020/01/31 12:17:49.4	106.400	-0.150	-0.360	1.540
2020/01/31 12:17:49.5	106.410	-0.140	-0.360	1.530
2020/01/31 12:17:49.6	106.430	-0.140	-0.360	1.520
2020/01/31 12:17:49.7	106.450	-0.130	-0.370	1.510
2020/01/31 12:17:49.8	106.460	-0.120	-0.380	1.500
2020/01/31 12:17:49.9	106.480	-0.110	-0.380	1.480
2020/01/31 12:17:50.0	106.500	-0.100	-0.390	1.460
2020/01/31 12:17:50.1	106.530	-0.090	-0.400	1.440
2020/01/31 12:17:50.2	106.550	-0.070	-0.410	1.410
2020/01/31 12:17:50.3	106.580	-0.060	-0.420	1.380
2020/01/31 12:17:50.4	106.610	-0.040	-0.430	1.340
2020/01/31 12:17:50.5	106.640	-0.030	-0.440	1.310
2020/01/31 12:17:50.6	106.670	-0.010	-0.450	1.270
2020/01/31 12:17:50.7	106.710	0.010	-0.460	1.230
2020/01/31 12:17:50.8	106.740	0.020	-0.470	1.180
2020/01/31 12:17:50.9	106.780	0.040	-0.480	1.140
2020/01/31 12:17:51.0	106.820	0.060	-0.490	1.090
2020/01/31 12:17:51.1	106.860	0.070	-0.500	1.040
2020/01/31 12:17:51.2	106.900	0.090	-0.500	0.990
2020/01/31 12:17:51.3	106.940	0.100	-0.500	0.940
2020/01/31 12:17:51.4	106.980	0.110	-0.500	0.890
2020/01/31 12:17:51.5	107.030	0.120	-0.500	0.830
2020/01/31 12:17:51.6	107.070	0.130	-0.490	0.780
2020/01/31 12:17:51.7	107.120	0.140	-0.480	0.730
2020/01/31 12:17:51.8	107.160	0.140	-0.470	0.680
2020/01/31 12:17:51.9	107.210	0.150	-0.450	0.620
2020/01/31 12:17:52.0	107.250	0.140	-0.430	0.570
2020/01/31 12:17:52.1	107.300	0.140	-0.410	0.520
2020/01/31 12:17:52.2	107.350	0.130	-0.380	0.460
2020/01/31 12:17:52.3	107.390	0.130	-0.350	0.410
2020/01/31 12:17:52.4	107.440	0.110	-0.310	0.360
2020/01/31 12:17:52.5	107.480	0.100	-0.270	0.310
2020/01/31 12:17:52.6	107.520	0.080	-0.230	0.270
2020/01/31 12:17:52.7	107.570	0.060	-0.190	0.220
2020/01/31 12:17:52.8	107.610	0.040	-0.140	0.180
2020/01/31 12:17:52.9	107.650	0.010	-0.100	0.140
2020/01/31 12:17:53.0	107.690	-0.010	-0.050	0.100
2020/01/31 12:17:53.1	107.740	-0.040	-0.000	0.060
2020/01/31 12:17:53.2	107.780	-0.070	0.050	0.020
2020/01/31 12:17:53.3	107.820	-0.100	0.090	-0.010
2020/01/31 12:17:53.4	107.860	-0.130	0.140	-0.040
2020/01/31 12:17:53.5	107.880	-0.170	0.180	-0.060
2020/01/31 12:17:53.6	107.920	-0.200	0.230	-0.080
2020/01/31 12:17:53.7	107.960	-0.230	0.270	-0.100
2020/01/31 12:17:53.8	107.990	-0.260	0.300	-0.120
2020/01/31 12:17:53.9	108.030	-0.290	0.340	-0.130
2020/01/31 12:17:54.0	108.060	-0.320	0.370	-0.140
2020/01/31 12:17:54.1	108.090	-0.340	0.390	-0.150
2020/01/31 12:17:54.2	108.130	-0.370	0.410	-0.150
2020/01/31 12:17:54.3	108.160	-0.390	0.430	-0.150
2020/01/31 12:17:54.4	108.190	-0.410	0.440	-0.150
2020/01/31 12:17:54.5	108.210	-0.420	0.450	-0.150
2020/01/31 12:17:54.6	108.240	-0.440	0.460	-0.140
2020/01/31 12:17:54.7	108.270	-0.440	0.450	-0.130
2020/01/31 12:17:54.8	108.300	-0.450	0.440	-0.120
2020/01/31 12:17:54.9	108.330	-0.450	0.430	-0.100
2020/01/31 12:17:55.0	108.360	-0.450	0.410	-0.090
2020/01/31 12:17:55.1	108.390	-0.450	0.390	-0.070
2020/01/31 12:17:55.2	108.420	-0.440	0.360	-0.060
2020/01/31 12:17:55.3	108.450	-0.420	0.330	-0.040
2020/01/31 12:17:55.4	108.480	-0.410	0.290	-0.020
2020/01/31 12:17:55.5	108.510	-0.390	0.250	0.000
2020/01/31 12:17:55.6	108.540	-0.370	0.200	0.020
2020/01/31 12:17:55.7	108.570	-0.340	0.150	0.040
2020/01/31 12:17:55.8	108.600	-0.310	0.100	0.060
2020/01/31 12:17:55.9	108.630	-0.280	0.050	0.080
2020/01/31 12:17:56.0	108.670	-0.250	-0.010	0.100
2020/01/31 12:17:56.1	108.700	-0.210	-0.070	0.120
2020/01/31 12:17:56.2	108.730	-0.170	-0.130	0.130
2020/01/31 12:17:56.3	108.760	-0.140	-0.200	0.150
2020/01/31 12:17:56.4	108.790	-0.100	-0.260	0.170
2020/01/31 12:17:56.5	108.830	-0.060	-0.320	0.180
2020/01/31 12:17:56.6	108.850	-0.010	-0.380	0.200
2020/01/31 12:17:56.7	108.880	0.030	-0.450	0.220
2020/01/31 12:17:56.8	108.920	0.070	-0.510	0.230
2020/01/31 12:17:56.9	108.950	0.110	-0.570	0.250
2020/01/31 12:17:57.0	108.980	0.150	-0.620	0.270
2020/01/31 12:17:57.1	109.010	0.190	-0.680	0.290
2020/01/31 12:17:57.2	109.050	0.220	-0.730	0.310
2020/01/31 12:17:57.3	109.080	0.260	-0.780	0.330
2020/01/31 12:17:57.4	109.110	0.290	-0.830	0.360
2020/01/31 12:17:57.5	109.140	0.320	-0.870	0.380
2020/01/31 12:17:57.6	109.170	0.350	-0.910	0.410
2020/01/31 12:17:57.7	109.200	0.380	-0.940	0.450
2020/01/31 12:17:57.8	109.220	0.410	-0.970	0.480
2020/01/31 12:17:57.9	109.250	0.430	-1.000	0.520
2020/01/31 12:17:58.0	109.270	0.450	-1.020	0.560
2020/01/31 12:17:58.1	109.300	0.470	-1.030	0.610
2020/01/31 12:17:58.2	109.320	0.480	-1.040	0.660
2020/01/31 12:17:58.3	109.350	0.490	-1.040	0.700
2020/01/31 12:17:58.4	109.370	0.500	-1.040	0.750
2020/01/31 12:17:58.5	109.390	0.500	-1.030	0.810
2020/01/31 12:17:58.6	109.410	0.510	-1.010	0.860
2020/01/31 12:17:58.7	109.440	0.510	-0.990	0.910
2020/01/31 12:17:58.8	109.460	0.500	-0.970	0.960
2020/01/31 12:17:58.9	109.490	0.500	-0.930	1.010
2020/01/31 12:17:59.0	109.510	0.490	-0.900	1.060
2020/01/31 12:17:59.1	109.540	0.470	-0.850	1.110
2020/01/31 12:17:59.2	109.570	0.460	-0.800	1.150
2020/01/31 12:17:59.3	109.590	0.440	-0.750	1.200
2020/01/31 12:17:59.4	109.620	0.420	-0.690	1.240
2020/01/31 12:17:59.5	109.650	0.400	-0.620	1.270
2020/01/31 12:17:59.6	109.690	0.370	-0.550	1.300
2020/01/31 12:17:59.7	109.720	0.350	-0.470	1.330
2020/01/31 12:17:59.8	109.760	0.320	-0.390	1.360
2020/01/31 12:17:59.9	109.790	0.290	-0.310	1.380
2020/01/31 12:18:00.0	109.830	0.260	-0.230	1.400
2020/01/31 12:18:00.1	109.870	0.230	-0.140	1.410
2020/01/31 12:18:00.2	109.910	0.200	-0.050	1.420
2020/01/31 12:18:00.3	109.950	0.160	0.040	1.430
2020/01/31 12:18:00.4	109.990	0.130	0.120	1.430
2020/01/31 12:18:00.5	110.040	0.100	0.210	1.430
2020/01/31 12:18:00.6	110.080	0.060	0.300	1.420
2020/01/31 12:18:00.7	110.130	0.030	0.380	1.410
2020/01/31 12:18:00.8	110.180	-0.000	0.470	1.400
2020/01/31 12:18:00.9	110.230	-0.030	0.540	1.380
2020/01/31 12:18:01.0	110.280	-0.060	0.620	1.370
2020/01/31 12:18:01.1	110.330	-0.090	0.680	1.350
2020/01/31 12:18:01.2	110.380	-0.120	0.750	1.330
2020/01/31 12:18:01.3	110.430	-0.140	0.800	1.300
2020/01/31 12:18:01.4	110.480	-0.170	0.850	1.280
2020/01/31 12:18:01.5	110.530	-0.190	0.900	1.260
2020/01/31 12:18:01.6	110.580	-0.210	0.930	1.240
2020/01/31 12:18:01.7	110.630	-0.230	0.960	1.210
2020/01/31 12:18:01.8	110.670	-0.240	0.980	1.190
2020/01/31 12:18:01.9	110.720	-0.250	1.000	1.170
2020/01/31 12:18:02.0	110.760	-0.270	1.000	1.150
2020/01/31 12:18:02.1	110.810	-0.270	1.000	1.130
2020/01/31 12:18:02.2	110.850	-0.280	0.980	1.110
2020/01/31 12:18:02.3	110.890	-0.290	0.960	1.090
2020/01/31 12:18:02.4	110.930	-0.290	0.930	1.070
2020/01/31 12:18:02.5	110.970	-0.290	0.890	1.060
2020/01/31 12:18:02.6	111.000	-0.290	0.850	1.050
2020/01/31 12:18:02.7	111.040	-0.280	0.790	1.030
2020/01/31 12:18:02.8	111.070	-0.280	0.730	1.020
2020/01/31 12:18:02.9	111.100	-0.270	0.660	1.010
2020/01/31 12:18:03.0	111.130	-0.260	0.590	1.000
2020/01/31 12:18:03.1	111.160	-0.250	0.510	0.990
2020/01/31 12:18:03.2	111.190	-0.230	0.420	0.990
2020/01/31 12:18:03.3	111.220	-0.220	0.340	0.980
2020/01/31 12:18:03.4	111.240	-0.210	0.240	0.970
2020/01/31 12:18:03.5	111.260	-0.190	0.150	0.970
2020/01/31 12:18:03.6	111.270	-0.180	0.050	0.960
2020/01/31 12:18:03.7	111.290	-0.160	-0.040	0.960
2020/01/31 12:18:03.8	111.310	-0.140	-0.140	0.950
2020/01/31 12:18:03.9	111.320	-0.130	-0.240	0.950
2020/01/31 12:18:04.0	111.340	-0.110	-0.330	0.950
2020/01/31 12:18:04.1	111.350	-0.090	-0.430	0.950
2020/01/31 12:18:04.2	111.360	-0.080	-0.510	0.940
2020/01/31 12:18:04.3	111.370	-0.060	-0.600	0.940
2020/01/31 12:18:04.4	111.390	-0.050	-0.690	0.940
2020/01/31 12:18:04.5	111.400	-0.040	-0.760	0.930
2020/01/31 12:18:04.6	111.410	-0.020	-0.840	0.920
2020/01/31 12:18:04.7	111.430	-0.010	-0.900	0.920
2020/01/31 12:18:04.8	111.440	-0.000	-0.970	0.910
2020/01/31 12:18:04.9	111.460	0.010	-1.020	0.900
2020/01/31 12:18:05.0	111.480	0.020	-1.070	0.890
2020/01/31 12:18:05.1	111.500	0.020	-1.110	0.880
2020/01/31 12:18:05.2	111.530	0.030	-1.150	0.870
2020/01/31 12:18:05.3	111.550	0.030	-1.170	0.860
2020/01/31 12:18:05.4	111.590	0.040	-1.190	0.840
2020/01/31 12:18:05.5	111.620	0.040	-1.200	0.820
2020/01/31 12:18:05.6	111.660	0.040	-1.210	0.810
2020/01/31 12:18:05.7	111.700	0.040	-1.210	0.780
2020/01/31 12:18:05.8	111.750	0.040	-1.200	0.760
2020/01/31 12:18:05.9	111.800	0.040	-1.190	0.740
2020/01/31 12:18:06.0	111.850	0.040	-1.170	0.710
2020/01/31 12:18:06.1	111.910	0.030	-1.150	0.690
2020/01/31 12:18:06.2	111.960	0.030	-1.120	0.660
2020/01/31 12:18:06.3	112.020	0.030	-1.090	0.640
2020/01/31 12:18:06.4	112.090	0.020	-1.060	0.610
2020/01/31 12:18:06.5	112.150	0.020	-1.010	0.590
2020/01/31 12:18:06.6	112.210	0.020	-0.970	0.570
2020/01/31 12:18:06.7	112.270	0.010	-0.920	0.550
2020/01/31 12:18:06.8	112.330	0.010	-0.880	0.530
2020/01/31 12:18:06.9	112.400	0.010	-0.830	0.510
2020/01/31 12:18:07.0	112.460	0.000	-0.770	0.490
2020/01/31 12:18:07.1	112.520	0.000	-0.720	0.480
2020/01/31 12:18:07.2	112.570	-0.000	-0.660	0.470
2020/01/31 12:18:07.3	112.630	-0.000	-0.610	0.460
2020/01/31 12:18:07.4	112.680	-0.000	-0.550	0.460
2020/01/31 12:18:07.5	112.730	-0.000	-0.490	0.450
2020/01/31 12:18:07.6	112.790	-0.000	-0.440	0.460
2020/01/31 12:18:07.7	112.830	-0.000	-0.380	0.460
2020/01/31 12:18:07.8	112.870	0.000	-0.320	0.470
2020/01/31 12:18:07.9	112.910	0.010	-0.270	0.480
2020/01/31 12:18:08.0	112.950	0.010	-0.210	0.490
2020/01/31 12:18:08.1	112.980	0.010	-0.160	0.510
2020/01/31 12:18:08.2	113.010	0.020	-0.110	0.520
2020/01/31 12:18:08.3	113.030	0.020	-0.060	0.540
2020/01/31 12:18:08.4	113.060	0.030	-0.010	0.560
2020/01/31 12:18:08.5	113.080	0.040	0.030	0.580
2020/01/31 12:18:08.6	113.090	0.050	0.080	0.600
2020/01/31 12:18:08.7	113.110	0.050	0.120	0.620
2020/01/31 12:18:08.8	113.130	0.060	0.160	0.640
2020/01/31 12:18:08.9	113.140	0.070	0.190	0.660
2020/01/31 12:18:09.0	113.150	0.080	0.220	0.680
2020/01/31 12:18:09.1	113.160	0.080	0.250	0.700
2020/01/31 12:18:09.2	113.170	0.090	0.280	0.710
2020/01/31 12:18:09.3	113.180	0.100	0.310	0.720
2020/01/31 12:18:09.4	113.200	0.110	0.330	0.730
2020/01/31 12:18:09.5	113.210	0.110	0.350	0.730
2020/01/31 12:18:09.6	113.220	0.120	0.370	0.740
2020/01/31 12:18:09.7	113.240	0.120	0.390	0.740
2020/01/31 12:18:09.8	113.260	0.130	0.410	0.730
2020/01/31 12:18:09.9	113.280	0.130	0.420	0.720
2020/01/31 12:18:10.0	113.300	0.130	0.430	0.710
2020/01/31 12:18:10.1	113.330	0.140	0.450	0.700
2020/01/31 12:18:10.2	113.360	0.140	0.460	0.690
2020/01/31 12:18:10.3	113.390	0.140	0.470	0.670
2020/01/31 12:18:10.4	113.420	0.140	0.470	0.650
2020/01/31 12:18:10.5	113.460	0.130	0.480	0.630
2020/01/31 12:18:10.6	113.500	0.130	0.490	0.600
2020/01/31 12:18:10.7	113.540	0.130	0.500	0.580
2020/01/31 12:18:10.8	113.590	0.120	0.500	0.550
2020/01/31 12:18:10.9	113.640	0.120	0.500	0.520
2020/01/31 12:18:11.0	113.690	0.110	0.500	0.500
2020/01/31 12:18:11.1	113.750	0.100	0.500	0.470
2020/01/31 12:18:11.2	113.810	0.100	0.490	0.440
2020/01/31 12:18:11.3	113.860	0.090	0.490	0.420
2020/01/31 12:18:11.4	113.920	0.080	0.480	0.390
2020/01/31 12:18:11.5	113.970	0.070	0.470	0.360
2020/01/31 12:18:11.6	114.040	0.060	0.450	0.340
2020/01/31 12:18:11.7	114.100	0.050	0.440	0.310
2020/01/31 12:18:11.8	114.160	0.040	0.420	0.290
2020/01/31 12:18:11.9	114.220	0.020	0.400	0.270
2020/01/31 12:18:12.0	114.290	0.010	0.370	0.240
2020/01/31 12:18:12.1	114.350	0.000	0.350	0.230
2020/01/31 12:18:12.2	114.410	-0.010	0.320	0.210
2020/01/31 12:18:12.3	114.470	-0.020	0.290	0.190
2020/01/31 12:18:12.4	114.530	-0.040	0.250	0.180
2020/01/31 12:18:12.5	114.560	-0.050	0.220	0.170
2020/01/31 12:18:12.6	114.620	-0.060	0.180	0.160
2020/01/31 12:18:12.7	114.670	-0.070	0.140	0.160
2020/01/31 12:18:12.8	114.720	-0.090	0.100	0.150
2020/01/31 12:18:12.9	114.770	-0.100	0.060	0.150
2020/01/31 12:18:13.0	114.820	-0.110	0.020	0.150
2020/01/31 12:18:13.1	114.860	-0.120	-0.020	0.160
2020/01/31 12:18:13.2	114.900	-0.140	-0.050	0.170
2020/01/31 12:18:13.3	114.940	-0.150	-0.090	0.180
2020/01/31 12:18:13.4	114.980	-0.160	-0.130	0.190
2020/01/31 12:18:13.5	115.020	-0.170	-0.170	0.210
2020/01/31 12:18:13.6	115.030	-0.190	-0.200	0.220
2020/01/31 12:18:13.7	115.060	-0.200	-0.230	0.240
2020/01/31 12:18:13.8	115.100	-0.210	-0.270	0.270
2020/01/31 12:18:13.9	115.130	-0.220	-0.290	0.290
2020/01/31 12:18:14.0	115.160	-0.230	-0.320	0.320
2020/01/31 12:18:14.1	115.190	-0.240	-0.340	0.350
2020/01/31 12:18:14.2	115.210	-0.250	-0.370	0.380
2020/01/31 12:18:14.3	115.240	-0.260	-0.390	0.420
2020/01/31 12:18:14.4	115.270	-0.260	-0.400	0.460
2020/01/31 12:18:14.5	115.290	-0.270	-0.420	0.500
2020/01/31 12:18:14.6	115.320	-0.280	-0.430	0.540
2020/01/31 12:18:14.7	115.340	-0.280	-0.450	0.590
2020/01/31 12:18:14.8	115.370	-0.290	-0.460	0.630
2020/01/31 12:18:14.9	115.390	-0.290	-0.470	0.680
2020/01/31 12:18:15.0	115.410	-0.290	-0.480	0.730
2020/01/31 12:18:15.1	115.430	-0.300	-0.490	0.770
2020/01/31 12:18:15.2	115.460	-0.290	-0.500	0.820
2020/01/31 12:18:15.3	115.480	-0.290	-0.510	0.870
2020/01/31 12:18:15.4	115.500	-0.290	-0.530	0.930
2020/01/31 12:18:15.5	115.500	-0.280	-0.540	0.970
2020/01/31 12:18:15.6	115.530	-0.270	-0.550	1.030
2020/01/31 12:18:15.7	115.550	-0.270	-0.570	1.080
2020/01/31 12:18:15.8	115.570	-0.250	-0.590	1.130
2020/01/31 12:18:15.9	115.590	-0.240	-0.610	1.180
2020/01/31 12:18:16.0	115.620	-0.220	-0.630	1.230
2020/01/31 12:18:16.1	115.640	-0.210	-0.650	1.270
2020/01/31 12:18:16.2	115.670	-0.190	-0.670	1.320
2020/01/31 12:18:16.3	115.690	-0.170	-0.700	1.370
2020/01/31 12:18:16.4	115.720	-0.140	-0.720	1.410
2020/01/31 12:18:16.5	115.740	-0.120	-0.750	1.450
2020/01/31 12:18:16.6	115.760	-0.090	-0.770	1.490
2020/01/31 12:18:16.7	115.790	-0.060	-0.800	1.530
2020/01/31 12:18:16.8	115.830	-0.030	-0.820	1.560
2020/01/31 12:18:16.9	115.860	-0.000	-0.840	1.590
2020/01/31 12:18:17.0	115.890	0.030	-0.860	1.620
2020/01/31 12:18:17.1	115.920	0.060	-0.880	1.640
2020/01/31 12:18:17.2	115.960	0.090	-0.890	1.660
2020/01/31 12:18:17.3	115.990	0.120	-0.900	1.690
2020/01/31 12:18:17.4	116.030	0.150	-0.910	1.700
2020/01/31 12:18:17.5	116.070	0.180	-0.910	1.720
2020/01/31 12:18:17.6	116.100	0.210	-0.910	1.730
2020/01/31 12:18:17.7	116.130	0.230	-0.900	1.740
2020/01/31 12:18:17.8	116.170	0.260	-0.900	1.750
2020/01/31 12:18:17.9	116.210	0.290	-0.880	1.760
2020/01/31 12:18:18.0	116.240	0.310	-0.870	1.770
2020/01/31 12:18:18.1	116.270	0.330	-0.840	1.770
2020/01/31 12:18:18.2	116.310	0.350	-0.820	1.770
2020/01/31 12:18:18.3	116.340	0.360	-0.790	1.780
2020/01/31 12:18:18.4	116.370	0.380	-0.750	1.770
2020/01/31 12:18:18.5	116.410	0.390	-0.720	1.770
2020/01/31 12:18:18.6	116.440	0.400	-0.670	1.770
2020/01/31 12:18:18.7	116.460	0.400	-0.630	1.760
2020/01/31 12:18:18.8	116.490	0.400	-0.580	1.750
2020/01/31 12:18:18.9	116.520	0.400	-0.520	1.730
2020/01/31 12:18:19.0	116.550	0.400	-0.470	1.720
2020/01/31 12:18:19.1	116.570	0.390	-0.410	1.700
2020/01/31 12:18:19.2	116.600	0.380	-0.350	1.680
2020/01/31 12:18:19.3	116.630	0.370	-0.280	1.660
2020/01/31 12:18:19.4	116.650	0.360	-0.220	1.630
2020/01/31 12:18:19.5	116.680	0.340	-0.140	1.600
2020/01/31 12:18:19.6	116.700	0.320	-0.070	1.570
2020/01/31 12:18:19.7	116.730	0.310	-0.000	1.540
2020/01/31 12:18:19.8	116.750	0.280	0.070	1.500
2020/01/31 12:18:19.9	116.770	0.260	0.140	1.460
2020/01/31 12:18:20.0	116.800	0.240	0.210	1.420
2020/01/31 12:18:20.1	116.820	0.210	0.270	1.370
2020/01/31 12:18:20.2	116.850	0.190	0.340	1.330
2020/01/31 12:18:20.3	116.870	0.160	0.400	1.280
2020/01/31 12:18:20.4	116.900	0.140	0.470	1.220
2020/01/31 12:18:20.5	116.930	0.110	0.520	1.170
2020/01/31 12:18:20.6	116.970	0.090	0.570	1.110
2020/01/31 12:18:20.7	117.000	0.060	0.630	1.050
2020/01/31 12:18:20.8	117.040	0.040	0.670	0.990
2020/01/31 12:18:20.9	117.070	0.020	0.720	0.920
2020/01/31 12:18:21.0	117.110	-0.000	0.750	0.860
2020/01/31 12:18:21.1	117.150	-0.030	0.790	0.790
2020/01/31 12:18:21.2	117.190	-0.040	0.810	0.720
2020/01/31 12:18:21.3	117.240	-0.060	0.830	0.650
2020/01/31 12:18:21.4	117.290	-0.080	0.850	0.580
2020/01/31 12:18:21.5	117.340	-0.090	0.860	0.500
2020/01/31 12:18:21.6	117.390	-0.110	0.860	0.430
2020/01/31 12:18:21.7	117.440	-0.120	0.850	0.360
2020/01/31 12:18:21.8	117.500	-0.130	0.840	0.290
2020/01/31 12:18:21.9	117.550	-0.130	0.820	0.220
2020/01/31 12:18:22.0	117.610	-0.140	0.790	0.160
2020/01/31 12:18:22.1	117.670	-0.140	0.760	0.090
2020/01/31 12:18:22.2	117.730	-0.140	0.720	0.020
2020/01/31 12:18:22.3	117.790	-0.140	0.680	-0.040
2020/01/31 12:18:22.4	117.850	-0.140	0.620	-0.100
2020/01/31 12:18:22.5	117.910	-0.130	0.570	-0.160
2020/01/31 12:18:22.6	117.970	-0.130	0.500	-0.210
2020/01/31 12:18:22.7	118.030	-0.120	0.440	-0.270
2020/01/31 12:18:22.8	118.100	-0.110	0.360	-0.320
2020/01/31 12:18:22.9	118.160	-0.100	0.290	-0.360
2020/01/31 12:18:23.0	118.210	-0.080	0.210	-0.410
2020/01/31 12:18:23.1	118.270	-0.070	0.130	-0.440
2020/01/31 12:18:23.2	118.330	-0.050	0.050	-0.480
2020/01/31 12:18:23.3	118.380	-0.040	-0.040	-0.510
2020/01/31 12:18:23.4	118.440	-0.020	-0.130	-0.540
2020/01/31 12:18:23.5	118.490	-0.000	-0.210	-0.560
2020/01/31 12:18:23.6	118.540	0.020	-0.290	-0.580
2020/01/31 12:18:23.7	118.590	0.040	-0.380	-0.590
2020/01/31 12:18:23.8	118.630	0.060	-0.460	-0.600
2020/01/31 12:18:23.9	118.670	0.070	-0.540	-0.600
2020/01/31 12:18:24.0	118.710	0.090	-0.610	-0.600
2020/01/31 12:18:24.1	118.750	0.110	-0.690	-0.600
2020/01/31 12:18:24.2	118.780	0.130	-0.750	-0.590
2020/01/31 12:18:24.3	118.820	0.140	-0.810	-0.570
2020/01/31 12:18:24.4	118.850	0.150	-0.870	-0.560
2020/01/31 12:18:24.5	118.870	0.170	-0.920	-0.530
2020/01/31 12:18:24.6	118.900	0.170	-0.950	-0.500
2020/01/31 12:18:24.7	118.930	0.180	-0.990	-0.470
2020/01/31 12:18:24.8	118.950	0.190	-1.010	-0.430
2020/01/31 12:18:24.9	118.970	0.190	-1.020	-0.390
2020/01/31 12:18:25.0	118.990	0.190	-1.030	-0.350
2020/01/31 12:18:25.1	119.020	0.180	-1.030	-0.300
2020/01/31 12:18:25.2	119.040	0.180	-1.010	-0.250
2020/01/31 12:18:25.3	119.060	0.170	-0.990	-0.200
2020/01/31 12:18:25.4	119.080	0.150	-0.960	-0.140
2020/01/31 12:18:25.5	119.090	0.140	-0.920	-0.090
2020/01/31 12:18:25.6	119.110	0.120	-0.870	-0.030
2020/01/31 12:18:25.7	119.130	0.100	-0.820	0.030
2020/01/31 12:18:25.8	119.150	0.070	-0.750	0.090
2020/01/31 12:18:25.9	119.170	0.050	-0.690	0.160
2020/01/31 12:18:26.0	119.200	0.020	-0.610	0.220
2020/01/31 12:18:26.1	119.220	-0.010	-0.530	0.290
2020/01/31 12:18:26.2	119.240	-0.050	-0.450	0.350
2020/01/31 12:18:26.3	119.270	-0.080	-0.360	0.420
2020/01/31 12:18:26.4	119.290	-0.120	-0.270	0.480
2020/01/31 12:18:26.5	119.320	-0.150	-0.180	0.550
2020/01/31 12:18:26.6	119.350	-0.190	-0.090	0.620
2020/01/31 12:18:26.7	119.370	-0.230	-0.000	0.690
2020/01/31 12:18:26.8	119.400	-0.270	0.090	0.750
2020/01/31 12:18:26.9	119.420	-0.300	0.170	0.820
2020/01/31 12:18:27.0	119.450	-0.340	0.250	0.890
2020/01/31 12:18:27.1	119.470	-0.370	0.330	0.950
2020/01/31 12:18:27.2	119.500	-0.410	0.400	1.020
2020/01/31 12:18:27.3	119.520	-0.440	0.460	1.080
2020/01/31 12:18:27.4	119.540	-0.460	0.520	1.150
2020/01/31 12:18:27.5	119.570	-0.490	0.570	1.210
2020/01/31 12:18:27.6	119.590	-0.510	0.600	1.280
2020/01/31 12:18:27.7	119.610	-0.530	0.630	1.340
2020/01/31 12:18:27.8	119.630	-0.540	0.660	1.400
2020/01/31 12:18:27.9	119.650	-0.550	0.670	1.460
2020/01/31 12:18:28.0	119.670	-0.560	0.670	1.510
2020/01/31 12:18:28.1	119.690	-0.560	0.660	1.570
2020/01/31 12:18:28.2	119.710	-0.560	0.640	1.620
2020/01/31 12:18:28.3	119.730	-0.550	0.610	1.670
2020/01/31 12:18:28.4	119.760	-0.540	0.580	1.710
2020/01/31 12:18:28.5	119.800	-0.520	0.530	1.750
2020/01/31 12:18:28.6	119.830	-0.500	0.470	1.790
2020/01/31 12:18:28.7	119.860	-0.480	0.410	1.820
2020/01/31 12:18:28.8	119.890	-0.450	0.340	1.850
2020/01/31 12:18:28.9	119.920	-0.420	0.270	1.870
2020/01/31 12:18:29.0	119.960	-0.380	0.190	1.890
2020/01/31 12:18:29.1	120.000	-0.340	0.100	1.910
2020/01/31 12:18:29.2	120.040	-0.300	0.020	1.920
2020/01/31 12:18:29.3	120.080	-0.260	-0.080	1.930
2020/01/31 12:18:29.4	120.120	-0.220	-0.170	1.930
2020/01/31 12:18:29.5	120.170	-0.170	-0.260	1.930
2020/01/31 12:18:29.6	120.220	-0.120	-0.350	1.930
2020/01/31 12:18:29.7	120.270	-0.080	-0.450	1.930
2020/01/31 12:18:29.8	120.320	-0.030	-0.540	1.920
2020/01/31 12:18:29.9	120.370	0.020	-0.620	1.910
2020/01/31 12:18:30.0	120.420	0.070	-0.710	1.900
2020/01/31 12:18:30.1	120.480	0.120	-0.790	1.890
2020/01/31 12:18:30.2	120.530	0.160	-0.860	1.880
2020/01/31 12:18:30.3	120.580	0.210	-0.930	1.870
2020/01/31 12:18:30.4	120.630	0.250	-0.990	1.850
2020/01/31 12:18:30.5	120.680	0.290	-1.040	1.830
2020/01/31 12:18:30.6	120.730	0.330	-1.090	1.810
2020/01/31 12:18:30.7	120.780	0.360	-1.120	1.800
2020/01/31 12:18:30.8	120.830	0.400	-1.150	1.780
2020/01/31 12:18:30.9	120.880	0.430	-1.170	1.760
2020/01/31 12:18:31.0	120.920	0.450	-1.180	1.740
2020/01/31 12:18:31.1	120.970	0.480	-1.180	1.720
2020/01/31 12:18:31.2	121.010	0.500	-1.180	1.700
2020/01/31 12:18:31.3	121.050	0.510	-1.160	1.680
2020/01/31 12:18:31.4	121.090	0.530	-1.130	1.660
2020/01/31 12:18:31.5	121.130	0.540	-1.100	1.630
2020/01/31 12:18:31.6	121.170	0.540	-1.060	1.610
2020/01/31 12:18:31.7	121.200	0.540	-1.010	1.580
2020/01/31 12:18:31.8	121.240	0.540	-0.950	1.550
2020/01/31 12:18:31.9	121.280	0.540	-0.890	1.530
2020/01/31 12:18:32.0	121.310	0.530	-0.820	1.500
2020/01/31 12:18:32.1	121.340	0.520	-0.740	1.470
2020/01/31 12:18:32.2	121.380	0.510	-0.660	1.430
2020/01/31 12:18:32.3	121.410	0.490	-0.580	1.400
2020/01/31 12:18:32.4	121.440	0.480	-0.490	1.370
2020/01/31 12:18:32.5	121.470	0.460	-0.400	1.330
2020/01/31 12:18:32.6	121.500	0.430	-0.310	1.300
2020/01/31 12:18:32.7	121.530	0.410	-0.220	1.260
2020/01/31 12:18:32.8	121.560	0.380	-0.130	1.220
2020/01/31 12:18:32.9	121.590	0.360	-0.040	1.190
2020/01/31 12:18:33.0	121.610	0.330	0.050	1.150
2020/01/31 12:18:33.1	121.640	0.300	0.130	1.110
2020/01/31 12:18:33.2	121.670	0.270	0.210	1.070
2020/01/31 12:18:33.3	121.690	0.240	0.290	1.040
2020/01/31 12:18:33.4	121.720	0.220	0.360	1.000
2020/01/31 12:18:33.5	121.750	0.190	0.420	0.960
2020/01/31 12:18:33.6	121.770	0.160	0.490	0.920
2020/01/31 12:18:33.7	121.800	0.130	0.540	0.890
2020/01/31 12:18:33.8	121.820	0.110	0.590	0.850
2020/01/31 12:18:33.9	121.840	0.080	0.630	0.820
2020/01/31 12:18:34.0	121.860	0.060	0.670	0.780
2020/01/31 12:18:34.1	121.880	0.030	0.690	0.750
2020/01/31 12:18:34.2	121.900	0.010	0.720	0.720
2020/01/31 12:18:34.3	121.920	-0.010	0.730	0.690
2020/01/31 12:18:34.4	121.930	-0.030	0.740	0.660
2020/01/31 12:18:34.5	121.950	-0.050	0.730	0.630
2020/01/31 12:18:34.6	121.960	-0.060	0.730	0.600
2020/01/31 12:18:34.7	121.980	-0.080	0.710	0.570
2020/01/31 12:18:34.8	122.000	-0.090	0.690	0.540
2020/01/31 12:18:34.9	122.020	-0.100	0.670	0.520
2020/01/31 12:18:35.0	122.040	-0.110	0.640	0.490
2020/01/31 12:18:35.1	122.060	-0.120	0.600	0.460
2020/01/31 12:18:35.2	122.080	-0.130	0.560	0.440
2020/01/31 12:18:35.3	122.100	-0.130	0.510	0.410
2020/01/31 12:18:35.4	122.120	-0.140	0.460	0.390
2020/01/31 12:18:35.5	122.140	-0.140	0.410	0.360
2020/01/31 12:18:35.6	122.170	-0.140	0.360	0.330
2020/01/31 12:18:35.7	122.190	-0.140	0.300	0.310
2020/01/31 12:18:35.8	122.220	-0.140	0.250	0.290
2020/01/31 12:18:35.9	122.250	-0.140	0.190	0.260
2020/01/31 12:18:36.0	122.280	-0.140	0.130	0.240
2020/01/31 12:18:36.1	122.310	-0.140	0.080	0.220
2020/01/31 12:18:36.2	122.350	-0.140	0.020	0.190
2020/01/31 12:18:36.3	122.380	-0.140	-0.040	0.170
2020/01/31 12:18:36.4	122.420	-0.140	-0.090	0.150
2020/01/31 12:18:36.5	122.450	-0.140	-0.140	0.130
2020/01/31 12:18:36.6	122.490	-0.130	-0.180	0.110
2020/01/31 12:18:36.7	122.530	-0.130	-0.230	0.090
2020/01/31 12:18:36.8	122.570	-0.130	-0.270	0.070
2020/01/31 12:18:36.9	122.610	-0.130	-0.310	0.050
2020/01/31 12:18:37.0	122.660	-0.130	-0.350	0.030
2020/01/31 12:18:37.1	122.700	-0.130	-0.380	0.020
2020/01/31 12:18:37.2	122.740	-0.130	-0.410	0.000
2020/01/31 12:18:37.3	122.790	-0.130	-0.440	-0.010
2020/01/31 12:18:37.4	122.830	-0.130	-0.460	-0.020
2020/01/31 12:18:37.5	122.880	-0.130	-0.480	-0.030
2020/01/31 12:18:37.6	122.930	-0.130	-0.500	-0.040
2020/01/31 12:18:37.7	122.970	-0.130	-0.520	-0.040
2020/01/31 12:18:37.8	123.020	-0.130	-0.530	-0.040
2020/01/31 12:18:37.9	123.060	-0.130	-0.540	-0.050
2020/01/31 12:18:38.0	123.110	-0.130	-0.550	-0.040
2020/01/31 12:18:38.1	123.150	-0.130	-0.560	-0.040
2020/01/31 12:18:38.2	123.200	-0.130	-0.570	-0.040
2020/01/31 12:18:38.3	123.240	-0.130	-0.570	-0.030
2020/01/31 12:18:38.4	123.290	-0.130	-0.580	-0.020
2020/01/31 12:18:38.5	123.320	-0.140	-0.580	-0.010
2020/01/31 12:18:38.6	123.370	-0.140	-0.580	0.010
2020/01/31 12:18:38.7	123.410	-0.140	-0.580	0.030
2020/01/31 12:18:38.8	123.450	-0.130	-0.580	0.050
2020/01/31 12:18:38.9	123.490	-0.130	-0.580	0.070
2020/01/31 12:18:39.0	123.530	-0.130	-0.580	0.090
2020/01/31 12:18:39.1	123.570	-0.130	-0.580	0.110
2020/01/31 12:18:39.2	123.600	-0.130	-0.570	0.140
2020/01/31 12:18:39.3	123.640	-0.120	-0.570	0.170
2020/01/31 12:18:39.4	123.680	-0.120	-0.560	0.200
2020/01/31 12:18:39.5	123.720	-0.110	-0.550	0.240
2020/01/31 12:18:39.6	123.760	-0.110	-0.550	0.270
2020/01/31 12:18:39.7	123.790	-0.100	-0.540	0.310
2020/01/31 12:18:39.8	123.820	-0.090	-0.530	0.350
2020/01/31 12:18:39.9	123.850	-0.090	-0.520	0.390
2020/01/31 12:18:40.0	123.880	-0.080	-0.510	0.440
2020/01/31 12:18:40.1	123.920	-0.070	-0.500	0.480
2020/01/31 12:18:40.2	123.940	-0.060	-0.480	0.530
2020/01/31 12:18:40.3	123.970	-0.050	-0.470	0.570
2020/01/31 12:18:40.4	124.000	-0.040	-0.450	0.620
2020/01/31 12:18:40.5	124.030	-0.020	-0.440	0.680
2020/01/31 12:18:40.6	124.060	-0.010	-0.420	0.730
2020/01/31 12:18:40.7	124.080	0.000	-0.400	0.780
2020/01/31 12:18:40.8	124.110	0.010	-0.380	0.830
2020/01/31 12:18:40.9	124.130	0.030	-0.360	0.880
2020/01/31 12:18:41.0	124.160	0.040	-0.350	0.930
2020/01/31 12:18:41.1	124.180	0.050	-0.320	0.980
2020/01/31 12:18:41.2	124.200	0.060	-0.300	1.030
2020/01/31 12:18:41.3	124.220	0.070	-0.280	1.080
2020/01/31 12:18:41.4	124.250	0.080	-0.260	1.130
2020/01/31 12:18:41.5	124.270	0.090	-0.240	1.180
2020/01/31 12:18:41.6	124.290	0.100	-0.220	1.230
2020/01/31 12:18:41.7	124.310	0.100	-0.200	1.280
2020/01/31 12:18:41.8	124.330	0.100	-0.170	1.320
2020/01/31 12:18:41.9	124.350	0.110	-0.150	1.360
2020/01/31 12:18:42.0	124.370	0.110	-0.130	1.410
2020/01/31 12:18:42.1	124.390	0.110	-0.110	1.450
2020/01/31 12:18:42.2	124.410	0.100	-0.090	1.480
2020/01/31 12:18:42.3	124.440	0.100	-0.070	1.520
2020/01/31 12:18:42.4	124.460	0.090	-0.040	1.550
2020/01/31 12:18:42.5	124.480	0.080	-0.020	1.580
2020/01/31 12:18:42.6	124.510	0.070	-0.000	1.610
2020/01/31 12:18:42.7	124.530	0.060	0.020	1.640
2020/01/31 12:18:42.8	124.560	0.040	0.040	1.660
2020/01/31 12:18:42.9	124.590	0.030	0.060	1.680
2020/01/31 12:18:43.0	124.610	0.010	0.080	1.700
2020/01/31 12:18:43.1	124.640	-0.010	0.100	1.720
2020/01/31 12:18:43.2	124.670	-0.020	0.120	1.730
2020/01/31 12:18:43.3	124.700	-0.040	0.140	1.740
2020/01/31 12:18:43.4	124.740	-0.070	0.160	1.750
2020/01/31 12:18:43.5	124.780	-0.090	0.170	1.760
2020/01/31 12:18:43.6	124.810	-0.110	0.190	1.770
2020/01/31 12:18:43.7	124.850	-0.130	0.210	1.770
2020/01/31 12:18:43.8	124.880	-0.150	0.220	1.780
2020/01/31 12:18:43.9	124.920	-0.170	0.240	1.780
2020/01/31 12:18:44.0	124.960	-0.190	0.250	1.780
2020/01/31 12:18:44.1	124.990	-0.200	0.260	1.780
2020/01/31 12:18:44.2	125.030	-0.220	0.270	1.770
2020/01/31 12:18:44.3	125.070	-0.240	0.280	1.770
2020/01/31 12:18:44.4	125.110	-0.250	0.280	1.760
2020/01/31 12:18:44.5	125.150	-0.260	0.290	1.760
2020/01/31 12:18:44.6	125.180	-0.270	0.290	1.740
2020/01/31 12:18:44.7	125.220	-0.270	0.290	1.730
2020/01/31 12:18:44.8	125.260	-0.280	0.290	1.720
2020/01/31 12:18:44.9	125.300	-0.280	0.280	1.700
2020/01/31 12:18:45.0	125.340	-0.270	0.270	1.690
2020/01/31 12:18:45.1	125.380	-0.270	0.260	1.670
2020/01/31 12:18:45.2	125.420	-0.260	0.250	1.640
2020/01/31 12:18:45.3	125.460	-0.250	0.240	1.620
2020/01/31 12:18:45.4	125.500	-0.240	0.220	1.590
2020/01/31 12:18:45.5	125.550	-0.220	0.200	1.560
2020/01/31 12:18:45.6	125.590	-0.210	0.180	1.530
2020/01/31 12:18:45.7	125.630	-0.190	0.160	1.500
2020/01/31 12:18:45.8	125.670	-0.160	0.140	1.460
2020/01/31 12:18:45.9	125.710	-0.140	0.110	1.430
2020/01/31 12:18:46.0	125.760	-0.120	0.080	1.390
2020/01/31 12:18:46.1	125.800	-0.090	0.050	1.350
2020/01/31 12:18:46.2	125.840	-0.060	0.020	1.310
2020/01/31 12:18:46.3	125.870	-0.030	-0.010	1.270
2020/01/31 12:18:46.4	125.910	0.000	-0.040	1.220
2020/01/31 12:18:46.5	125.960	0.030	-0.080	1.180
2020/01/31 12:18:46.6	126.000	0.060	-0.110	1.130
2020/01/31 12:18:46.7	126.030	0.100	-0.140	1.090
2020/01/31 12:18:46.8	126.070	0.130	-0.180	1.050
2020/01/31 12:18:46.9	126.100	0.160	-0.210	1.000
2020/01/31 12:18:47.0	126.140	0.190	-0.250	0.960
2020/01/31 12:18:47.1	126.170	0.220	-0.280	0.910
2020/01/31 12:18:47.2	126.200	0.250	-0.310	0.870
2020/01/31 12:18:47.3	126.230	0.280	-0.350	0.820
2020/01/31 12:18:47.4	126.260	0.300	-0.380	0.780
2020/01/31 12:18:47.5	126.300	0.330	-0.400	0.740
2020/01/31 12:18:47.6	126.330	0.350	-0.430	0.700
2020/01/31 12:18:47.7	126.350	0.370	-0.460	0.660
2020/01/31 12:18:47.8	126.380	0.390	-0.490	0.620
2020/01/31 12:18:47.9	126.400	0.410	-0.510	0.580
2020/01/31 12:18:48.0	126.420	0.420	-0.530	0.550
2020/01/31 12:18:48.1	126.440	0.440	-0.560	0.510
2020/01/31 12:18:48.2	126.460	0.450	-0.570	0.480
2020/01/31 12:18:48.3	126.480	0.460	-0.590	0.450
2020/01/31 12:18:48.4	126.500	0.460	-0.600	0.420
2020/01/31 12:18:48.5	126.520	0.470	-0.610	0.390
2020/01/31 12:18:48.6	126.540	0.470	-0.610	0.360
2020/01/31 12:18:48.7	126.560	0.470	-0.610	0.340
2020/01/31 12:18:48.8	126.570	0.460	-0.610	0.310
2020/01/31 12:18:48.9	126.590	0.460	-0.610	0.290
2020/01/31 12:18:49.0	126.610	0.450	-0.600	0.270
2020/01/31 12:18:49.1	126.620	0.440	-0.590	0.250
2020/01/31 12:18:49.2	126.640	0.430	-0.570	0.230
2020/01/31 12:18:49.3	126.650	0.420	-0.560	0.210
2020/01/31 12:18:49.4	126.670	0.400	-0.540	0.190
2020/01/31 12:18:49.5	126.690	0.380	-0.520	0.180
2020/01/31 12:18:49.6	126.710	0.370	-0.500	0.160
2020/01/31 12:18:49.7	126.730	0.350	-0.470	0.150
2020/01/31 12:18:49.8	126.750	0.330	-0.450	0.140
2020/01/31 12:18:49.9	126.770	0.300	-0.420	0.130
2020/01/31 12:18:50.0	126.790	0.280	-0.400	0.130
2020/01/31 12:18:50.1	126.810	0.260	-0.370	0.120
2020/01/31 12:18:50.2	126.840	0.240	-0.350	0.120
2020/01/31 12:18:50.3	126.860	0.210	-0.320	0.110
2020/01/31 12:18:50.4	126.890	0.190	-0.300	0.110
2020/01/31 12:18:50.5	126.910	0.160	-0.270	0.110
2020/01/31 12:18:50.6	126.940	0.140	-0.250	0.110
2020/01/31 12:18:50.7	126.970	0.120	-0.230	0.110
2020/01/31 12:18:50.8	127.010	0.090	-0.210	0.110
2020/01/31 12:18:50.9	127.040	0.070	-0.190	0.110
2020/01/31 12:18:51.0	127.080	0.050	-0.180	0.120
2020/01/31 12:18:51.1	127.120	0.030	-0.160	0.120
2020/01/31 12:18:51.2	127.160	0.000	-0.150	0.130
2020/01/31 12:18:51.3	127.200	-0.020	-0.140	0.130
2020/01/31 12:18:51.4	127.240	-0.040	-0.130	0.140
2020/01/31 12:18:51.5	127.290	-0.050	-0.120	0.150
2020/01/31 12:18:51.6	127.330	-0.070	-0.120	0.150
2020/01/31 12:18:51.7	127.370	-0.090	-0.120	0.160
2020/01/31 12:18:51.8	127.420	-0.100	-0.110	0.170
2020/01/31 12:18:51.9	127.470	-0.120	-0.110	0.180
2020/01/31 12:18:52.0	127.520	-0.130	-0.110	0.190
2020/01/31 12:18:52.1	127.570	-0.150	-0.110	0.200
2020/01/31 12:18:52.2	127.610	-0.160	-0.110	0.220
2020/01/31 12:18:52.3	127.660	-0.170	-0.120	0.230
2020/01/31 12:18:52.4	127.710	-0.190	-0.120	0.250
2020/01/31 12:18:52.5	127.750	-0.200	-0.120	0.270
2020/01/31 12:18:52.6	127.800	-0.210	-0.120	0.290
2020/01/31 12:18:52.7	127.840	-0.220	-0.130	0.310
2020/01/31 12:18:52.8	127.880	-0.230	-0.130	0.340
2020/01/31 12:18:52.9	127.920	-0.240	-0.130	0.370
2020/01/31 12:18:53.0	127.960	-0.250	-0.130	0.400
2020/01/31 12:18:53.1	128.000	-0.260	-0.130	0.430
2020/01/31 12:18:53.2	128.030	-0.280	-0.130	0.460
2020/01/31 12:18:53.3	128.070	-0.290	-0.130	0.500
2020/01/31 12:18:53.4	128.100	-0.300	-0.130	0.540
2020/01/31 12:18:53.5	128.120	-0.310	-0.120	0.580
2020/01/31 12:18:53.6	128.140	-0.320	-0.120	0.630
2020/01/31 12:18:53.7	128.170	-0.330	-0.110	0.680
2020/01/31 12:18:53.8	128.190	-0.340	-0.110	0.730
2020/01/31 12:18:53.9	128.200	-0.350	-0.100	0.780
2020/01/31 12:18:54.0	128.220	-0.360	-0.090	0.830
2020/01/31 12:18:54.1	128.230	-0.370	-0.080	0.890
2020/01/31 12:18:54.2	128.240	-0.380	-0.070	0.950
2020/01/31 12:18:54.3	128.250	-0.390	-0.060	1.010
2020/01/31 12:18:54.4	128.260	-0.390	-0.050	1.060
2020/01/31 12:18:54.5	128.260	-0.400	-0.040	1.130
2020/01/31 12:18:54.6	128.260	-0.400	-0.020	1.190
2020/01/31 12:18:54.7	128.270	-0.410	-0.010	1.240
2020/01/31 12:18:54.8	128.270	-0.410	-0.000	1.300
2020/01/31 12:18:54.9	128.270	-0.410	0.010	1.360
2020/01/31 12:18:55.0	128.270	-0.410	0.020	1.420
2020/01/31 12:18:55.1	128.270	-0.400	0.030	1.470
2020/01/31 12:18:55.2	128.270	-0.400	0.040	1.520
2020/01/31 12:18:55.3	128.270	-0.390	0.050	1.570
2020/01/31 12:18:55.4	128.270	-0.380	0.050	1.610
2020/01/31 12:18:55.5	128.280	-0.370	0.060	1.650
2020/01/31 12:18:55.6	128.280	-0.360	0.070	1.690
2020/01/31 12:18:55.7	128.290	-0.350	0.070	1.730
2020/01/31 12:18:55.8	128.300	-0.330	0.070	1.750
2020/01/31 12:18:55.9	128.310	-0.310	0.070	1.780
2020/01/31 12:18:56.0	128.320	-0.290	0.070	1.800
2020/01/31 12:18:56.1	128.340	-0.270	0.060	1.820
2020/01/31 12:18:56.2	128.360	-0.250	0.060	1.830
2020/01/31 12:18:56.3	128.380	-0.220	0.050	1.840
2020/01/31 12:18:56.4	128.410	-0.190	0.040	1.840
2020/01/31 12:18:56.5	128.420	-0.170	0.030	1.840
2020/01/31 12:18:56.6	128.450	-0.140	0.020	1.840
2020/01/31 12:18:56.7	128.490	-0.110	0.010	1.830
2020/01/31 12:18:56.8	128.520	-0.080	0.000	1.820
2020/01/31 12:18:56.9	128.560	-0.040	-0.010	1.800
2020/01/31 12:18:57.0	128.600	-0.010	-0.030	1.770
2020/01/31 12:18:57.1	128.650	0.020	-0.040	1.750
2020/01/31 12:18:57.2	128.700	0.050	-0.050	1.720
2020/01/31 12:18:57.3	128.740	0.080	-0.070	1.680
2020/01/31 12:18:57.4	128.790	0.120	-0.080	1.640
2020/01/31 12:18:57.5	128.850	0.150	-0.090	1.590
2020/01/31 12:18:57.6	128.900	0.180	-0.100	1.550
2020/01/31 12:18:57.7	128.960	0.210	-0.110	1.500
2020/01/31 12:18:57.8	129.010	0.230	-0.120	1.440
2020/01/31 12:18:57.9	129.070	0.260	-0.140	1.390
2020/01/31 12:18:58.0	129.130	0.290	-0.150	1.330
2020/01/31 12:18:58.1	129.180	0.310	-0.160	1.270
2020/01/31 12:18:58.2	129.240	0.340	-0.160	1.210
2020/01/31 12:18:58.3	129.290	0.360	-0.170	1.150
2020/01/31 12:18:58.4	129.350	0.380	-0.180	1.080
2020/01/31 12:18:58.5	129.390	0.390	-0.190	1.020
2020/01/31 12:18:58.6	129.440	0.410	-0.190	0.950
2020/01/31 12:18:58.7	129.490	0.420	-0.190	0.890
2020/01/31 12:18:58.8	129.540	0.430	-0.190	0.820
2020/01/31 12:18:58.9	129.590	0.440	-0.190	0.760
2020/01/31 12:18:59.0	129.630	0.440	-0.190	0.700
2020/01/31 12:18:59.1	129.680	0.440	-0.190	0.640
2020/01/31 12:18:59.2	129.720	0.440	-0.180	0.580
2020/01/31 12:18:59.3	129.760	0.440	-0.180	0.520
2020/01/31 12:18:59.4	129.800	0.430	-0.170	0.460
2020/01/31 12:18:59.5	129.810	0.420	-0.160	0.400
2020/01/31 12:18:59.6	129.840	0.410	-0.150	0.350
2020/01/31 12:18:59.7	129.880	0.390	-0.140	0.300
2020/01/31 12:18:59.8	129.910	0.370	-0.130	0.260
2020/01/31 12:18:59.9	129.940	0.350	-0.120	0.210
2020/01/31 12:19:00.0	129.970	0.330	-0.100	0.170
2020/01/31 12:19:00.1	130.000	0.300	-0.090	0.140
2020/01/31 12:19:00.2	130.020	0.280	-0.080	0.100
2020/01/31 12:19:00.3	130.050	0.250	-0.060	0.080
2020/01/31 12:19:00.4	130.070	0.210	-0.050	0.050
2020/01/31 12:19:00.5	130.080	0.180	-0.030	0.030
2020/01/31 12:19:00.6	130.100	0.150	-0.020	0.020
2020/01/31 12:19:00.7	130.110	0.110	-0.010	0.010
2020/01/31 12:19:00.8	130.130	0.070	0.000	0.010
2020/01/31 12:19:00.9	130.140	0.040	0.010	0.010
2020/01/31 12:19:01.0	130.160	0.000	0.020	0.010
2020/01/31 12:19:01.1	130.170	-0.030	0.030	0.030
2020/01/31 12:19:01.2	130.170	-0.070	0.030	0.040
2020/01/31 12:19:01.3	130.180	-0.100	0.030	0.060
2020/01/31 12:19:01.4	130.180	-0.140	0.040	0.090
2020/01/31 12:19:01.5	130.190	-0.170	0.030	0.120
2020/01/31 12:19:01.6	130.180	-0.200	0.030	0.150
2020/01/31 12:19:01.7	130.180	-0.220	0.030	0.190
2020/01/31 12:19:01.8	130.180	-0.250	0.020	0.230
2020/01/31 12:19:01.9	130.180	-0.270	0.000	0.270
2020/01/31 12:19:02.0	130.180	-0.290	-0.010	0.320
2020/01/31 12:19:02.1	130.170	-0.300	-0.030	0.370
2020/01/31 12:19:02.2	130.170	-0.310	-0.050	0.410
2020/01/31 12:19:02.3	130.160	-0.320	-0.080	0.460
2020/01/31 12:19:02.4	130.160	-0.320	-0.100	0.520
2020/01/31 12:19:02.5	130.150	-0.320	-0.130	0.570
2020/01/31 12:19:02.6	130.150	-0.320	-0.170	0.620
2020/01/31 12:19:02.7	130.140	-0.310	-0.210	0.670
2020/01/31 12:19:02.8	130.130	-0.300	-0.250	0.730
2020/01/31 12:19:02.9	130.130	-0.280	-0.290	0.780
2020/01/31 12:19:03.0	130.120	-0.260	-0.340	0.830
2020/01/31 12:19:03.1	130.120	-0.240	-0.380	0.890
2020/01/31 12:19:03.2	130.110	-0.220	-0.440	0.940
2020/01/31 12:19:03.3	130.110	-0.190	-0.490	0.990
2020/01/31 12:19:03.4	130.100	-0.160	-0.540	1.040
2020/01/31 12:19:03.5	130.110	-0.130	-0.590	1.090
2020/01/31 12:19:03.6	130.110	-0.090	-0.650	1.130
2020/01/31 12:19:03.7	130.110	-0.060	-0.700	1.180
2020/01/31 12:19:03.8	130.120	-0.020	-0.760	1.220
2020/01/31 12:19:03.9	130.120	0.010	-0.810	1.260
2020/01/31 12:19:04.0	130.130	0.050	-0.860	1.300
2020/01/31 12:19:04.1	130.150	0.080	-0.910	1.330
2020/01/31 12:19:04.2	130.160	0.120	-0.950	1.360
2020/01/31 12:19:04.3	130.180	0.150	-0.990	1.390
2020/01/31 12:19:04.4	130.200	0.180	-1.020	1.420
2020/01/31 12:19:04.5	130.240	0.210	-1.050	1.440
2020/01/31 12:19:04.6	130.270	0.240	-1.070	1.460
2020/01/31 12:19:04.7	130.300	0.260	-1.080	1.470
2020/01/31 12:19:04.8	130.340	0.280	-1.090	1.480
2020/01/31 12:19:04.9	130.380	0.300	-1.090	1.490
2020/01/31 12:19:05.0	130.420	0.310	-1.080	1.500
2020/01/31 12:19:05.1	130.460	0.320	-1.070	1.500
2020/01/31 12:19:05.2	130.510	0.330	-1.040	1.500
2020/01/31 12:19:05.3	130.560	0.330	-1.010	1.500
2020/01/31 12:19:05.4	130.610	0.330	-0.970	1.490
2020/01/31 12:19:05.5	130.660	0.320	-0.920	1.490
2020/01/31 12:19:05.6	130.730	0.310	-0.860	1.480
2020/01/31 12:19:05.7	130.790	0.290	-0.800	1.470
2020/01/31 12:19:05.8	130.840	0.280	-0.730	1.450
2020/01/31 12:19:05.9	130.900	0.260	-0.660	1.440
2020/01/31 12:19:06.0	130.960	0.230	-0.580	1.420
2020/01/31 12:19:06.1	131.020	0.200	-0.490	1.410
2020/01/31 12:19:06.2	131.070	0.170	-0.400	1.390
2020/01/31 12:19:06.3	131.130	0.140	-0.310	1.370
2020/01/31 12:19:06.4	131.190	0.110	-0.220	1.350
2020/01/31 12:19:06.5	131.220	0.070	-0.130	1.330
2020/01/31 12:19:06.6	131.280	0.030	-0.030	1.310
2020/01/31 12:19:06.7	131.330	-0.010	0.060	1.300
2020/01/31 12:19:06.8	131.380	-0.050	0.160	1.280
2020/01/31 12:19:06.9	131.430	-0.080	0.250	1.270
2020/01/31 12:19:07.0	131.480	-0.120	0.340	1.250
2020/01/31 12:19:07.1	131.520	-0.160	0.420	1.240
2020/01/31 12:19:07.2	131.570	-0.190	0.500	1.220
2020/01/31 12:19:07.3	131.610	-0.230	0.580	1.210
2020/01/31 12:19:07.4	131.650	-0.260	0.650	1.200
2020/01/31 12:19:07.5	131.690	-0.290	0.720	1.190
2020/01/31 12:19:07.6	131.730	-0.320	0.780	1.190
2020/01/31 12:19:07.7	131.760	-0.340	0.830	1.180
2020/01/31 12:19:07.8	131.790	-0.360	0.880	1.170
2020/01/31 12:19:07.9	131.810	-0.380	0.920	1.160
2020/01/31 12:19:08.0	131.840	-0.390	0.950	1.160
2020/01/31 12:19:08.1	131.860	-0.400	0.980	1.150
2020/01/31 12:19:08.2	131.880	-0.400	0.990	1.140
2020/01/31 12:19:08.3	131.890	-0.400	1.000	1.140
2020/01/31 12:19:08.4	131.910	-0.400	1.000	1.130
2020/01/31 12:19:08.5	131.920	-0.390	0.990	1.120
2020/01/31 12:19:08.6	131.920	-0.380	0.970	1.110
2020/01/31 12:19:08.7	131.930	-0.360	0.950	1.100
2020/01/31 12:19:08.8	131.940	-0.340	0.910	1.090
2020/01/31 12:19:08.9	131.950	-0.310	0.870	1.080
2020/01/31 12:19:09.0	131.950	-0.290	0.830	1.070
2020/01/31 12:19:09.1	131.960	-0.260	0.780	1.060
2020/01/31 12:19:09.2	131.960	-0.220	0.720	1.050
2020/01/31 12:19:09.3	131.970	-0.190	0.650	1.030
2020/01/31 12:19:09.4	131.970	-0.150	0.590	1.020
2020/01/31 12:19:09.5	131.970	-0.110	0.520	1.000
2020/01/31 12:19:09.6	131.970	-0.070	0.440	0.980
2020/01/31 12:19:09.7	131.980	-0.030	0.360	0.960
2020/01/31 12:19:09.8	131.980	0.020	0.280	0.940
2020/01/31 12:19:09.9	131.990	0.060	0.200	0.920
2020/01/31 12:19:10.0	131.990	0.100	0.120	0.900
2020/01/31 12:19:10.1	132.000	0.140	0.040	0.870
2020/01/31 12:19:10.2	132.010	0.180	-0.040	0.850
2020/01/31 12:19:10.3	132.030	0.220	-0.110	0.820
2020/01/31 12:19:10.4	132.040	0.250	-0.190	0.800
2020/01/31 12:19:10.5	132.060	0.280	-0.260	0.770
2020/01/31 12:19:10.6	132.080	0.310	-0.330	0.750
2020/01/31 12:19:10.7	132.100	0.340	-0.390	0.720
2020/01/31 12:19:10.8	132.120	0.360	-0.460	0.690
2020/01/31 12:19:10.9	132.140	0.380	-0.510	0.670
2020/01/31 12:19:11.0	132.170	0.400	-0.560	0.640
2020/01/31 12:19:11.1	132.200	0.410	-0.610	0.620
2020/01/31 12:19:11.2	132.230	0.410	-0.650	0.600
2020/01/31 12:19:11.3	132.260	0.410	-0.680	0.580
2020/01/31 12:19:11.4	132.300	0.410	-0.710	0.560
2020/01/31 12:19:11.5	132.330	0.410	-0.740	0.540
2020/01/31 12:19:11.6	132.360	0.400	-0.760	0.520
2020/01/31 12:19:11.7	132.400	0.380	-0.770	0.510
2020/01/31 12:19:11.8	132.440	0.370	-0.770	0.500
2020/01/31 12:19:11.9	132.490	0.350	-0.770	0.490
2020/01/31 12:19:12.0	132.530	0.320	-0.760	0.480
2020/01/31 12:19:12.1	132.570	0.290	-0.750	0.470
2020/01/31 12:19:12.2	132.620	0.260	-0.730	0.470
2020/01/31 12:19:12.3	132.660	0.230	-0.710	0.460
2020/01/31 12:19:12.4	132.710	0.200	-0.680	0.460
2020/01/31 12:19:12.5	132.740	0.160	-0.640	0.460
2020/01/31 12:19:12.6	132.790	0.130	-0.610	0.460
2020/01/31 12:19:12.7	132.840	0.090	-0.570	0.460
2020/01/31 12:19:12.8	132.890	0.060	-0.530	0.460
2020/01/31 12:19:12.9	132.930	0.020	-0.480	0.460
2020/01/31 12:19:13.0	132.980	-0.020	-0.440	0.460
2020/01/31 12:19:13.1	133.030	-0.050	-0.390	0.460
2020/01/31 12:19:13.2	133.080	-0.090	-0.340	0.470
2020/01/31 12:19:13.3	133.130	-0.120	-0.290	0.470
2020/01/31 12:19:13.4	133.170	-0.150	-0.250	0.480
2020/01/31 12:19:13.5	133.210	-0.180	-0.200	0.490
2020/01/31 12:19:13.6	133.260	-0.200	-0.160	0.490
2020/01/31 12:19:13.7	133.300	-0.230	-0.120	0.500
2020/01/31 12:19:13.8	133.340	-0.250	-0.080	0.510
2020/01/31 12:19:13.9	133.390	-0.270	-0.050	0.520
2020/01/31 12:19:14.0	133.420	-0.280	-0.020	0.530
2020/01/31 12:19:14.1	133.460	-0.290	0.000	0.540
2020/01/31 12:19:14.2	133.500	-0.300	0.020	0.550
2020/01/31 12:19:14.3	133.530	-0.300	0.040	0.550
2020/01/31 12:19:14.4	133.560	-0.310	0.040	0.570
2020/01/31 12:19:14.5	133.590	-0.300	0.040	0.580
2020/01/31 12:19:14.6	133.620	-0.300	0.040	0.590
2020/01/31 12:19:14.7	133.640	-0.290	0.030	0.600
2020/01/31 12:19:14.8	133.660	-0.270	0.010	0.610
2020/01/31 12:19:14.9	133.680	-0.250	-0.010	0.620
2020/01/31 12:19:15.0	133.700	-0.230	-0.040	0.640
2020/01/31 12:19:15.1	133.710	-0.210	-0.070	0.650
2020/01/31 12:19:15.2	133.730	-0.190	-0.110	0.660
2020/01/31 12:19:15.3	133.740	-0.160	-0.150	0.680
2020/01/31 12:19:15.4	133.750	-0.130	-0.190	0.700
2020/01/31 12:19:15.5	133.770	-0.100	-0.240	0.720
2020/01/31 12:19:15.6	133.770	-0.070	-0.280	0.740
2020/01/31 12:19:15.7	133.780	-0.030	-0.330	0.760
2020/01/31 12:19:15.8	133.780	0.000	-0.380	0.780
2020/01/31 12:19:15.9	133.780	0.040	-0.430	0.800
2020/01/31 12:19:16.0	133.790	0.070	-0.480	0.830
2020/01/31 12:19:16.1	133.790	0.100	-0.530	0.860
2020/01/31 12:19:16.2	133.790	0.140	-0.570	0.880
2020/01/31 12:19:16.3	133.790	0.170	-0.610	0.910
2020/01/31 12:19:16.4	133.790	0.190	-0.650	0.940
2020/01/31 12:19:16.5	133.800	0.220	-0.680	0.970
2020/01/31 12:19:16.6	133.810	0.240	-0.710	1.010
2020/01/31 12:19:16.7	133.820	0.270	-0.730	1.040
2020/01/31 12:19:16.8	133.830	0.280	-0.740	1.070
2020/01/31 12:19:16.9	133.840	0.300	-0.750	1.100
2020/01/31 12:19:17.0	133.850	0.310	-0.750	1.140
2020/01/31 12:19:17.1	133.860	0.320	-0.740	1.170
2020/01/31 12:19:17.2	133.880	0.320	-0.730	1.200
2020/01/31 12:19:17.3	133.900	0.320	-0.710	1.230
2020/01/31 12:19:17.4	133.930	0.320	-0.680	1.260
2020/01/31 12:19:17.5	133.960	0.310	-0.640	1.290
2020/01/31 12:19:17.6	133.990	0.300	-0.600	1.320
2020/01/31 12:19:17.7	134.020	0.290	-0.550	1.350
2020/01/31 12:19:17.8	134.060	0.270	-0.500	1.370
2020/01/31 12:19:17.9	134.090	0.250	-0.440	1.400
2020/01/31 12:19:18.0	134.130	0.230	-0.370	1.420
2020/01/31 12:19:18.1	134.170	0.200	-0.300	1.440
2020/01/31 12:19:18.2	134.220	0.170	-0.230	1.450
2020/01/31 12:19:18.3	134.260	0.140	-0.160	1.470
2020/01/31 12:19:18.4	134.310	0.110	-0.090	1.480
2020/01/31 12:19:18.5	134.360	0.080	-0.010	1.490
2020/01/31 12:19:18.6	134.410	0.040	0.060	1.500
2020/01/31 12:19:18.7	134.460	0.010	0.140	1.510
2020/01/31 12:19:18.8	134.510	-0.030	0.210	1.510
2020/01/31 12:19:18.9	134.560	-0.060	0.280	1.510
2020/01/31 12:19:19.0	134.610	-0.100	0.340	1.510
2020/01/31 12:19:19.1	134.650	-0.130	0.400	1.500
2020/01/31 12:19:19.2	134.700	-0.160	0.460	1.500
2020/01/31 12:19:19.3	134.750	-0.190	0.500	1.490
2020/01/31 12:19:19.4	134.790	-0.220	0.540	1.480
2020/01/31 12:19:19.5	134.830	-0.240	0.580	1.460
2020/01/31 12:19:19.6	134.880	-0.270	0.600	1.450
2020/01/31 12:19:19.7	134.920	-0.290	0.620	1.430
2020/01/31 12:19:19.8	134.950	-0.300	0.630	1.410
2020/01/31 12:19:19.9	134.990	-0.320	0.630	1.390
2020/01/31 12:19:20.0	135.020	-0.330	0.620	1.370
2020/01/31 12:19:20.1	135.060	-0.330	0.600	1.350
2020/01/31 12:19:20.2	135.090	-0.340	0.570	1.330
2020/01/31 12:19:20.3	135.120	-0.340	0.540	1.300
2020/01/31 12:19:20.4	135.140	-0.330	0.500	1.280
2020/01/31 12:19:20.5	135.170	-0.330	0.450	1.260
2020/01/31 12:19:20.6	135.190	-0.320	0.400	1.230
2020/01/31 12:19:20.7	135.220	-0.310	0.340	1.210
2020/01/31 12:19:20.8	135.240	-0.290	0.280	1.180
2020/01/31 12:19:20.9	135.260	-0.270	0.210	1.160
2020/01/31 12:19:21.0	135.280	-0.250	0.140	1.140
2020/01/31 12:19:21.1	135.300	-0.230	0.070	1.120
2020/01/31 12:19:21.2	135.320	-0.200	-0.000	1.100
2020/01/31 12:19:21.3	135.330	-0.180	-0.080	1.080
2020/01/31 12:19:21.4	135.350	-0.150	-0.150	1.060
2020/01/31 12:19:21.5	135.370	-0.120	-0.220	1.030
2020/01/31 12:19:21.6	135.390	-0.090	-0.290	1.020
2020/01/31 12:19:21.7	135.410	-0.060	-0.350	1.000
2020/01/31 12:19:21.8	135.430	-0.030	-0.410	0.990
2020/01/31 12:19:21.9	135.460	-0.000	-0.470	0.970
2020/01/31 12:19:22.0	135.480	0.030	-0.520	0.960
2020/01/31 12:19:22.1	135.500	0.050	-0.570	0.950
2020/01/31 12:19:22.2	135.530	0.080	-0.610	0.940
2020/01/31 12:19:22.3	135.560	0.110	-0.640	0.930
2020/01/31 12:19:22.4	135.580	0.130	-0.670	0.920
2020/01/31 12:19:22.5	135.610	0.150	-0.690	0.910
2020/01/31 12:19:22.6	135.630	0.170	-0.700	0.900
2020/01/31 12:19:22.7	135.660	0.190	-0.710	0.890
2020/01/31 12:19:22.8	135.700	0.210	-0.710	0.880
2020/01/31 12:19:22.9	135.730	0.220	-0.700	0.870
2020/01/31 12:19:23.0	135.770	0.230	-0.690	0.860
2020/01/31 12:19:23.1	135.800	0.240	-0.680	0.850
2020/01/31 12:19:23.2	135.840	0.240	-0.660	0.840
2020/01/31 12:19:23.3	135.880	0.250	-0.630	0.830
2020/01/31 12:19:23.4	135.920	0.250	-0.600	0.810
2020/01/31 12:19:23.5	135.960	0.240	-0.560	0.800
2020/01/31 12:19:23.6	136.000	0.240	-0.530	0.780
2020/01/31 12:19:23.7	136.040	0.230	-0.490	0.760
2020/01/31 12:19:23.8	136.080	0.220	-0.440	0.740
2020/01/31 12:19:23.9	136.130	0.210	-0.400	0.720
2020/01/31 12:19:24.0	136.170	0.200	-0.360	0.690
2020/01/31 12:19:24.1	136.210	0.180	-0.310	0.660
2020/01/31 12:19:24.2	136.260	0.160	-0.270	0.640
2020/01/31 12:19:24.3	136.300	0.150	-0.230	0.610
2020/01/31 12:19:24.4	136.350	0.130	-0.180	0.580
2020/01/31 12:19:24.5	136.380	0.110	-0.140	0.550
2020/01/31 12:19:24.6	136.430	0.090	-0.110	0.520
2020/01/31 12:19:24.7	136.470	0.070	-0.070	0.490
2020/01/31 12:19:24.8	136.510	0.050	-0.040	0.460
2020/01/31 12:19:24.9	136.550	0.020	-0.010	0.430
2020/01/31 12:19:25.0	136.590	0.000	0.020	0.400
2020/01/31 12:19:25.1	136.620	-0.020	0.040	0.380
2020/01/31 12:19:25.2	136.660	-0.040	0.060	0.350
2020/01/31 12:19:25.3	136.690	-0.060	0.070	0.330
2020/01/31 12:19:25.4	136.720	-0.070	0.080	0.310
2020/01/31 12:19:25.5	136.750	-0.090	0.090	0.300
2020/01/31 12:19:25.6	136.760	-0.110	0.090	0.290
2020/01/31 12:19:25.7	136.790	-0.120	0.090	0.280
2020/01/31 12:19:25.8	136.810	-0.130	0.080	0.280
2020/01/31 12:19:25.9	136.830	-0.140	0.080	0.280
2020/01/31 12:19:26.0	136.840	-0.150	0.060	0.280
2020/01/31 12:19:26.1	136.860	-0.160	0.050	0.290
2020/01/31 12:19:26.2	136.870	-0.170	0.030	0.310
2020/01/31 12:19:26.3	136.880	-0.170	0.020	0.320
2020/01/31 12:19:26.4	136.890	-0.180	-0.000	0.350
2020/01/31 12:19:26.5	136.890	-0.180	-0.020	0.370
2020/01/31 12:19:26.6	136.900	-0.180	-0.040	0.400
2020/01/31 12:19:26.7	136.910	-0.180	-0.060	0.430
2020/01/31 12:19:26.8	136.920	-0.180	-0.080	0.460
2020/01/31 12:19:26.9	136.920	-0.170	-0.090	0.500
2020/01/31 12:19:27.0	136.930	-0.170	-0.110	0.540
2020/01/31 12:19:27.1	136.940	-0.160	-0.120	0.580
2020/01/31 12:19:27.2	136.960	-0.160	-0.140	0.620
2020/01/31 12:19:27.3	136.970	-0.150	-0.140	0.660
2020/01/31 12:19:27.4	136.980	-0.140	-0.150	0.700
2020/01/31 12:19:27.5	136.990	-0.130	-0.150	0.740
2020/01/31 12:19:27.6	137.010	-0.120	-0.150	0.780
2020/01/31 12:19:27.7	137.030	-0.110	-0.150	0.820
2020/01/31 12:19:27.8	137.050	-0.110	-0.150	0.860
2020/01/31 12:19:27.9	137.080	-0.100	-0.140	0.900
2020/01/31 12:19:28.0	137.110	-0.090	-0.130	0.940
2020/01/31 12:19:28.1	137.130	-0.080	-0.120	0.970
2020/01/31 12:19:28.2	137.170	-0.070	-0.100	1.010
2020/01/31 12:19:28.3	137.200	-0.060	-0.090	1.040
2020/01/31 12:19:28.4	137.230	-0.050	-0.070	1.070
2020/01/31 12:19:28.5	137.270	-0.040	-0.050	1.090
2020/01/31 12:19:28.6	137.310	-0.030	-0.030	1.110
2020/01/31 12:19:28.7	137.350	-0.030	-0.020	1.140
2020/01/31 12:19:28.8	137.380	-0.020	-0.000	1.160
2020/01/31 12:19:28.9	137.420	-0.010	0.020	1.180
2020/01/31 12:19:29.0	137.470	-0.000	0.030	1.190
2020/01/31 12:19:29.1	137.510	0.010	0.040	1.210
2020/01/31 12:19:29.2	137.550	0.010	0.050	1.220
2020/01/31 12:19:29.3	137.590	0.020	0.060	1.230
2020/01/31 12:19:29.4	137.630	0.030	0.070	1.240
2020/01/31 12:19:29.5	137.680	0.040	0.070	1.250
2020/01/31 12:19:29.6	137.720	0.050	0.070	1.250
2020/01/31 12:19:29.7	137.760	0.050	0.070	1.260
2020/01/31 12:19:29.8	137.800	0.060	0.060	1.260
2020/01/31 12:19:29.9	137.840	0.070	0.050	1.260
2020/01/31 12:19:30.0	137.880	0.080	0.040	1.260
2020/01/31 12:19:30.1	137.920	0.090	0.030	1.260
2020/01/31 12:19:30.2	137.960	0.100	0.010	1.260
2020/01/31 12:19:30.3	138.000	0.110	-0.010	1.260
2020/01/31 12:19:30.4	138.030	0.120	-0.030	1.260
2020/01/31 12:19:30.5	138.070	0.130	-0.060	1.260
2020/01/31 12:19:30.6	138.110	0.150	-0.090	1.260
2020/01/31 12:19:30.7	138.140	0.160	-0.110	1.260
2020/01/31 12:19:30.8	138.180	0.170	-0.140	1.260
2020/01/31 12:19:30.9	138.210	0.180	-0.170	1.260
2020/01/31 12:19:31.0	138.240	0.190	-0.200	1.250
2020/01/31 12:19:31.1	138.280	0.200	-0.230	1.250
2020/01/31 12:19:31.2	138.310	0.210	-0.260	1.250
2020/01/31 12:19:31.3	138.350	0.220	-0.290	1.240
2020/01/31 12:19:31.4	138.380	0.230	-0.320	1.240
2020/01/31 12:19:31.5	138.400	0.240	-0.340	1.230
2020/01/31 12:19:31.6	138.440	0.250	-0.360	1.220
2020/01/31 12:19:31.7	138.470	0.250	-0.380	1.210
2020/01/31 12:19:31.8	138.510	0.260	-0.410	1.210
2020/01/31 12:19:31.9	138.540	0.260	-0.420	1.200
2020/01/31 12:19:32.0	138.570	0.270	-0.440	1.190
2020/01/31 12:19:32.1	138.610	0.270	-0.450	1.180
2020/01/31 12:19:32.2	138.640	0.270	-0.470	1.170
2020/01/31 12:19:32.3	138.670	0.270	-0.480	1.160
2020/01/31 12:19:32.4	138.710	0.270	-0.490	1.150
2020/01/31 12:19:32.5	138.740	0.270	-0.500	1.140
2020/01/31 12:19:32.6	138.780	0.270	-0.510	1.140
2020/01/31 12:19:32.7	138.810	0.270	-0.510	1.130
2020/01/31 12:19:32.8	138.830	0.260	-0.520	1.120
2020/01/31 12:19:32.9	138.860	0.260	-0.520	1.120
2020/01/31 12:19:33.0	138.880	0.250	-0.530	1.120
2020/01/31 12:19:33.1	138.910	0.250	-0.530	1.110
2020/01/31 12:19:33.2	138.930	0.240	-0.540	1.110
2020/01/31 12:19:33.3	138.950	0.230	-0.540	1.120
2020/01/31 12:19:33.4	138.960	0.220	-0.550	1.120
2020/01/31 12:19:33.5	138.980	0.210	-0.550	1.120
2020/01/31 12:19:33.6	139.000	0.200	-0.560	1.130
2020/01/31 12:19:33.7	139.010	0.180	-0.560	1.140
2020/01/31 12:19:33.8	139.020	0.170	-0.570	1.150
2020/01/31 12:19:33.9	139.040	0.160	-0.570	1.160
2020/01/31 12:19:34.0	139.050	0.140	-0.570	1.160
2020/01/31 12:19:34.1	139.060	0.130	-0.570	1.180
2020/01/31 12:19:34.2	139.070	0.110	-0.580	1.190
2020/01/31 12:19:34.3	139.090	0.090	-0.570	1.200
2020/01/31 12:19:34.4	139.100	0.080	-0.570	1.210
2020/01/31 12:19:34.5	139.120	0.060	-0.570	1.220
2020/01/31 12:19:34.6	139.130	0.040	-0.560	1.230
2020/01/31 12:19:34.7	139.140	0.020	-0.550	1.240
2020/01/31 12:19:34.8	139.160	-0.000	-0.540	1.250
2020/01/31 12:19:34.9	139.180	-0.020	-0.520	1.260
2020/01/31 12:19:35.0	139.190	-0.040	-0.510	1.270
2020/01/31 12:19:35.1	139.210	-0.060	-0.490	1.280
2020/01/31 12:19:35.2	139.230	-0.080	-0.460	1.290
2020/01/31 12:19:35.3	139.250	-0.110	-0.430	1.300
2020/01/31 12:19:35.4	139.270	-0.130	-0.400	1.300
2020/01/31 12:19:35.5	139.310	-0.150	-0.370	1.310
2020/01/31 12:19:35.6	139.330	-0.170	-0.330	1.320
2020/01/31 12:19:35.7	139.360	-0.190	-0.290	1.320
2020/01/31 12:19:35.8	139.390	-0.220	-0.250	1.330
2020/01/31 12:19:35.9	139.410	-0.240	-0.210	1.330
2020/01/31 12:19:36.0	139.440	-0.260	-0.170	1.330
2020/01/31 12:19:36.1	139.470	-0.280	-0.120	1.340
2020/01/31 12:19:36.2	139.500	-0.300	-0.070	1.340
2020/01/31 12:19:36.3	139.530	-0.320	-0.030	1.340
2020/01/31 12:19:36.4	139.560	-0.340	0.020	1.350
2020/01/31 12:19:36.5	139.600	-0.360	0.070	1.350
2020/01/31 12:19:36.6	139.640	-0.380	0.120	1.350
2020/01/31 12:19:36.7	139.670	-0.400	0.170	1.350
2020/01/31 12:19:36.8	139.710	-0.410	0.220	1.350
2020/01/31 12:19:36.9	139.740	-0.430	0.270	1.340
2020/01/31 12:19:37.0	139.780	-0.440	0.310	1.340
2020/01/31 12:19:37.1	139.820	-0.460	0.360	1.330
2020/01/31 12:19:37.2	139.860	-0.470	0.400	1.320
2020/01/31 12:19:37.3	139.900	-0.480	0.440	1.310
2020/01/31 12:19:37.4	139.940	-0.490	0.480	1.300
2020/01/31 12:19:37.5	140.000	-0.500	0.520	1.290
2020/01/31 12:19:37.6	140.050	-0.510	0.550	1.270
2020/01/31 12:19:37.7	140.100	-0.520	0.580	1.250
2020/01/31 12:19:37.8	140.150	-0.520	0.610	1.220
2020/01/31 12:19:37.9	140.200	-0.530	0.630	1.200
2020/01/31 12:19:38.0	140.250	-0.530	0.650	1.170
2020/01/31 12:19:38.1	140.300	-0.530	0.670	1.140
2020/01/31 12:19:38.2	140.360	-0.530	0.680	1.100
2020/01/31 12:19:38.3	140.410	-0.530	0.690	1.060
2020/01/31 12:19:38.4	140.470	-0.520	0.690	1.020
2020/01/31 12:19:38.5	140.520	-0.510	0.690	0.980
2020/01/31 12:19:38.6	140.570	-0.510	0.680	0.940
2020/01/31 12:19:38.7	140.630	-0.490	0.670	0.890
2020/01/31 12:19:38.8	140.680	-0.480	0.660	0.840
2020/01/31 12:19:38.9	140.740	-0.460	0.630	0.800
2020/01/31 12:19:39.0	140.790	-0.450	0.610	0.750
2020/01/31 12:19:39.1	140.840	-0.420	0.580	0.700
2020/01/31 12:19:39.2	140.890	-0.400	0.540	0.650
2020/01/31 12:19:39.3	140.940	-0.370	0.500	0.600
2020/01/31 12:19:39.4	140.990	-0.350	0.450	0.560
2020/01/31 12:19:39.5	141.040	-0.320	0.400	0.510
2020/01/31 12:19:39.6	141.080	-0.280	0.340	0.470
2020/01/31 12:19:39.7	141.120	-0.250	0.280	0.430
2020/01/31 12:19:39.8	141.160	-0.210	0.220	0.390
2020/01/31 12:19:39.9	141.190	-0.170	0.150	0.360
2020/01/31 12:19:40.0	141.220	-0.130	0.080	0.320
2020/01/31 12:19:40.1	141.250	-0.080	0.010	0.290
2020/01/31 12:19:40.2	141.280	-0.040	-0.060	0.270
2020/01/31 12:19:40.3	141.310	0.010	-0.140	0.250
2020/01/31 12:19:40.4	141.330	0.050	-0.220	0.230
2020/01/31 12:19:40.5	141.340	0.100	-0.300	0.220
2020/01/31 12:19:40.6	141.360	0.150	-0.380	0.210
2020/01/31 12:19:40.7	141.380	0.200	-0.450	0.200
2020/01/31 12:19:40.8	141.390	0.250	-0.530	0.200
2020/01/31 12:19:40.9	141.400	0.300	-0.610	0.200
2020/01/31 12:19:41.0	141.410	0.360	-0.680	0.200
2020/01/31 12:19:41.1	141.420	0.410	-0.750	0.210
2020/01/31 12:19:41.2	141.430	0.450	-0.820	0.220
2020/01/31 12:19:41.3	141.440	0.500	-0.890	0.230
2020/01/31 12:19:41.4	141.440	0.550	-0.950	0.250
2020/01/31 12:19:41.5	141.430	0.590	-1.000	0.270
2020/01/31 12:19:41.6	141.430	0.630	-1.060	0.290
2020/01/31 12:19:41.7	141.440	0.670	-1.110	0.310
2020/01/31 12:19:41.8	141.440	0.710	-1.150	0.330
2020/01/31 12:19:41.9	141.450	0.740	-1.180	0.350
2020/01/31 12:19:42.0	141.460	0.770	-1.210	0.380
2020/01/31 12:19:42.1	141.460	0.800	-1.240	0.400
2020/01/31 12:19:42.2	141.480	0.820	-1.250	0.420
2020/01/31 12:19:42.3	141.490	0.830	-1.260	0.450
2020/01/31 12:19:42.4	141.500	0.840	-1.260	0.470
2020/01/31 12:19:42.5	141.530	0.850	-1.250	0.490
2020/01/31 12:19:42.6	141.550	0.850	-1.230	0.500
2020/01/31 12:19:42.7	141.580	0.840	-1.210	0.520
2020/01/31 12:19:42.8	141.600	0.830	-1.170	0.540
2020/01/31 12:19:42.9	141.630	0.820	-1.130	0.560
2020/01/31 12:19:43.0	141.660	0.790	-1.080	0.570
2020/01/31 12:19:43.1	141.700	0.770	-1.020	0.590
2020/01/31 12:19:43.2	141.740	0.730	-0.950	0.600
2020/01/31 12:19:43.3	141.780	0.690	-0.880	0.620
2020/01/31 12:19:43.4	141.820	0.650	-0.800	0.640
2020/01/31 12:19:43.5	141.860	0.610	-0.720	0.650
2020/01/31 12:19:43.6	141.900	0.550	-0.630	0.670
2020/01/31 12:19:43.7	141.950	0.500	-0.540	0.690
2020/01/31 12:19:43.8	142.000	0.440	-0.450	0.710
2020/01/31 12:19:43.9	142.050	0.380	-0.360	0.730
2020/01/31 12:19:44.0	142.100	0.320	-0.260	0.750
2020/01/31 12:19:44.1	142.150	0.250	-0.170	0.770
2020/01/31 12:19:44.2	142.210	0.180	-0.070	0.800
2020/01/31 12:19:44.3	142.260	0.120	0.020	0.830
2020/01/31 12:19:44.4	142.310	0.050	0.100	0.860
2020/01/31 12:19:44.5	142.350	-0.020	0.190	0.900
2020/01/31 12:19:44.6	142.400	-0.080	0.270	0.930
2020/01/31 12:19:44.7	142.450	-0.150	0.350	0.970
2020/01/31 12:19:44.8	142.490	-0.210	0.420	1.010
2020/01/31 12:19:44.9	142.540	-0.270	0.480	1.060
2020/01/31 12:19:45.0	142.590	-0.330	0.540	1.100
2020/01/31 12:19:45.1	142.630	-0.380	0.590	1.150
2020/01/31 12:19:45.2	142.680	-0.430	0.640	1.200
2020/01/31 12:19:45.3	142.720	-0.480	0.680	1.250
2020/01/31 12:19:45.4	142.770	-0.520	0.710	1.300
2020/01/31 12:19:45.5	142.810	-0.560	0.740	1.350
2020/01/31 12:19:45.6	142.850	-0.600	0.760	1.400
2020/01/31 12:19:45.7	142.890	-0.630	0.770	1.440
2020/01/31 12:19:45.8	142.930	-0.650	0.780	1.490
2020/01/31 12:19:45.9	142.970	-0.670	0.780	1.540
2020/01/31 12:19:46.0	143.010	-0.680	0.770	1.580
2020/01/31 12:19:46.1	143.050	-0.690	0.750	1.620
2020/01/31 12:19:46.2	143.090	-0.700	0.730	1.670
2020/01/31 12:19:46.3	143.120	-0.700	0.710	1.710
2020/01/31 12:19:46.4	143.160	-0.690	0.680	1.740
2020/01/31 12:19:46.5	143.200	-0.680	0.640	1.770
2020/01/31 12:19:46.6	143.240	-0.670	0.600	1.810
2020/01/31 12:19:46.7	143.270	-0.650	0.560	1.840
2020/01/31 12:19:46.8	143.300	-0.630	0.510	1.870
2020/01/31 12:19:46.9	143.330	-0.610	0.460	1.890
2020/01/31 12:19:47.0	143.370	-0.580	0.410	1.920
2020/01/31 12:19:47.1	143.400	-0.550	0.350	1.940
2020/01/31 12:19:47.2	143.430	-0.520	0.290	1.960
2020/01/31 12:19:47.3	143.460	-0.490	0.230	1.980
2020/01/31 12:19:47.4	143.490	-0.450	0.170	1.990
2020/01/31 12:19:47.5	143.510	-0.420	0.120	2.010
2020/01/31 12:19:47.6	143.540	-0.380	0.060	2.020
2020/01/31 12:19:47.7	143.570	-0.340	-0.010	2.030
2020/01/31 12:19:47.8	143.590	-0.300	-0.060	2.040
2020/01/31 12:19:47.9	143.620	-0.260	-0.120	2.050
2020/01/31 12:19:48.0	143.650	-0.220	-0.180	2.060
2020/01/31 12:19:48.1	143.670	-0.190	-0.240	2.060
2020/01/31 12:19:48.2	143.700	-0.150	-0.290	2.070
2020/01/31 12:19:48.3	143.720	-0.110	-0.340	2.070
2020/01/31 12:19:48.4	143.750	-0.080	-0.390	2.070
2020/01/31 12:19:48.5	143.780	-0.040	-0.440	2.060
2020/01/31 12:19:48.6	143.800	-0.010	-0.480	2.060
2020/01/31 12:19:48.7	143.830	0.020	-0.520	2.060
2020/01/31 12:19:48.8	143.850	0.050	-0.560	2.060
2020/01/31 12:19:48.9	143.880	0.070	-0.590	2.050
2020/01/31 12:19:49.0	143.900	0.100	-0.630	2.050
2020/01/31 12:19:49.1	143.930	0.120	-0.650	2.040
2020/01/31 12:19:49.2	143.950	0.150	-0.680	2.030
2020/01/31 12:19:49.3	143.980	0.170	-0.700	2.030
2020/01/31 12:19:49.4	144.000	0.190	-0.720	2.020
2020/01/31 12:19:49.5	144.030	0.200	-0.740	2.010
2020/01/31 12:19:49.6	144.050	0.220	-0.750	2.000
2020/01/31 12:19:49.7	144.070	0.230	-0.760	1.980
2020/01/31 12:19:49.8	144.100	0.250	-0.770	1.970
2020/01/31 12:19:49.9	144.120	0.260	-0.780	1.950
2020/01/31 12:19:50.0	144.150	0.270	-0.780	1.930
2020/01/31 12:19:50.1	144.170	0.280	-0.780	1.920
2020/01/31 12:19:50.2	144.190	0.290	-0.780	1.890
2020/01/31 12:19:50.3	144.220	0.300	-0.770	1.870
2020/01/31 12:19:50.4	144.240	0.310	-0.770	1.840
2020/01/31 12:19:50.5	144.260	0.320	-0.760	1.820
2020/01/31 12:19:50.6	144.280	0.320	-0.750	1.780
2020/01/31 12:19:50.7	144.300	0.330	-0.730	1.750
2020/01/31 12:19:50.8	144.320	0.340	-0.710	1.720
2020/01/31 12:19:50.9	144.340	0.340	-0.700	1.680
2020/01/31 12:19:51.0	144.360	0.340	-0.670	1.640
2020/01/31 12:19:51.1	144.390	0.350	-0.650	1.600
2020/01/31 12:19:51.2	144.410	0.350	-0.620	1.550
2020/01/31 12:19:51.3	144.430	0.350	-0.590	1.500
2020/01/31 12:19:51.4	144.460	0.340	-0.560	1.450
2020/01/31 12:19:51.5	144.490	0.340	-0.520	1.400
2020/01/31 12:19:51.6	144.520	0.330	-0.480	1.340
2020/01/31 12:19:51.7	144.550	0.330	-0.440	1.280
2020/01/31 12:19:51.8	144.580	0.320	-0.400	1.220
2020/01/31 12:19:51.9	144.610	0.310	-0.350	1.150
2020/01/31 12:19:52.0	144.640	0.290	-0.300	1.090
2020/01/31 12:19:52.1	144.680	0.270	-0.250	1.010
2020/01/31 12:19:52.2	144.720	0.260	-0.190	0.940
2020/01/31 12:19:52.3	144.760	0.240	-0.130	0.860
2020/01/31 12:19:52.4	144.810	0.210	-0.070	0.790
2020/01/31 12:19:52.5	144.850	0.190	-0.020	0.710
2020/01/31 12:19:52.6	144.900	0.160	0.040	0.630
2020/01/31 12:19:52.7	144.950	0.130	0.100	0.540
2020/01/31 12:19:52.8	145.000	0.100	0.160	0.460
2020/01/31 12:19:52.9	145.060	0.060	0.220	0.380
2020/01/31 12:19:53.0	145.110	0.030	0.280	0.300
2020/01/31 12:19:53.1	145.170	-0.010	0.330	0.220
2020/01/31 12:19:53.2	145.230	-0.040	0.390	0.150
2020/01/31 12:19:53.3	145.290	-0.080	0.430	0.070
2020/01/31 12:19:53.4	145.340	-0.120	0.480	0.000
2020/01/31 12:19:53.5	145.400	-0.160	0.510	-0.070
2020/01/31 12:19:53.6	145.450	-0.190	0.550	-0.130
2020/01/31 12:19:53.7	145.500	-0.230	0.570	-0.190
2020/01/31 12:19:53.8	145.550	-0.270	0.590	-0.240
2020/01/31 12:19:53.9	145.600	-0.300	0.600	-0.290
2020/01/31 12:19:54.0	145.650	-0.330	0.600	-0.330
2020/01/31 12:19:54.1	145.690	-0.360	0.600	-0.360
2020/01/31 12:19:54.2	145.740	-0.390	0.580	-0.390
2020/01/31 12:19:54.3	145.770	-0.410	0.560	-0.410
2020/01/31 12:19:54.4	145.810	-0.430	0.530	-0.420
2020/01/31 12:19:54.5	145.840	-0.450	0.500	-0.430
2020/01/31 12:19:54.6	145.870	-0.470	0.460	-0.430
2020/01/31 12:19:54.7	145.900	-0.480	0.410	-0.420
2020/01/31 12:19:54.8	145.920	-0.480	0.360	-0.410
2020/01/31 12:19:54.9	145.940	-0.480	0.300	-0.390
2020/01/31 12:19:55.0	145.960	-0.480	0.230	-0.370
2020/01/31 12:19:55.1	145.980	-0.480	0.160	-0.340
2020/01/31 12:19:55.2	145.990	-0.470	0.090	-0.310
2020/01/31 12:19:55.3	146.000	-0.450	0.020	-0.280
2020/01/31 12:19:55.4	146.020	-0.440	-0.050	-0.240
2020/01/31 12:19:55.5	146.020	-0.420	-0.130	-0.200
2020/01/31 12:19:55.6	146.040	-0.390	-0.200	-0.150
2020/01/31 12:19:55.7	146.050	-0.370	-0.270	-0.110
2020/01/31 12:19:55.8	146.060	-0.340	-0.340	-0.060
2020/01/31 12:19:55.9	146.080	-0.300	-0.400	-0.020
2020/01/31 12:19:56.0	146.090	-0.270	-0.460	0.030
2020/01/31 12:19:56.1	146.110	-0.230	-0.520	0.080
2020/01/31 12:19:56.2	146.120	-0.190	-0.570	0.130
2020/01/31 12:19:56.3	146.140	-0.150	-0.610	0.170
2020/01/31 12:19:56.4	146.160	-0.110	-0.650	0.220
2020/01/31 12:19:56.5	146.180	-0.070	-0.690	0.260
2020/01/31 12:19:56.6	146.220	-0.020	-0.710	0.310
2020/01/31 12:19:56.7	146.240	0.020	-0.730	0.350
2020/01/31 12:19:56.8	146.270	0.060	-0.740	0.390
2020/01/31 12:19:56.9	146.300	0.100	-0.750	0.430
2020/01/31 12:19:57.0	146.330	0.140	-0.760	0.470
2020/01/31 12:19:57.1	146.360	0.180	-0.750	0.500
2020/01/31 12:19:57.2	146.400	0.220	-0.740	0.540
2020/01/31 12:19:57.3	146.430	0.250	-0.730	0.570
2020/01/31 12:19:57.4	146.470	0.280	-0.710	0.610
2020/01/31 12:19:57.5	146.520	0.310	-0.690	0.640
2020/01/31 12:19:57.6	146.550	0.340	-0.670	0.670
2020/01/31 12:19:57.7	146.590	0.370	-0.640	0.700
2020/01/31 12:19:57.8	146.630	0.390	-0.610	0.720
2020/01/31 12:19:57.9	146.670	0.410	-0.580	0.750
2020/01/31 12:19:58.0	146.700	0.420	-0.540	0.780
2020/01/31 12:19:58.1	146.740	0.440	-0.510	0.810
2020/01/31 12:19:58.2	146.770	0.450	-0.470	0.840
2020/01/31 12:19:58.3	146.810	0.460	-0.440	0.860
2020/01/31 12:19:58.4	146.840	0.460	-0.400	0.890
2020/01/31 12:19:58.5	146.870	0.470	-0.360	0.920
2020/01/31 12:19:58.6	146.900	0.470	-0.320	0.950
2020/01/31 12:19:58.7	146.930	0.460	-0.290	0.980
2020/01/31 12:19:58.8	146.960	0.460	-0.250	1.010
2020/01/31 12:19:58.9	146.990	0.450	-0.220	1.040
2020/01/31 12:19:59.0	147.020	0.440	-0.190	1.070
2020/01/31 12:19:59.1	147.040	0.430	-0.150	1.110
2020/01/31 12:19:59.2	147.070	0.420	-0.120	1.140
2020/01/31 12:19:59.3	147.090	0.410	-0.100	1.170
2020/01/31 12:19:59.4	147.120	0.390	-0.070	1.210
2020/01/31 12:19:59.5	147.140	0.370	-0.040	1.240
2020/01/31 12:19:59.6	147.160	0.360	-0.020	1.280
2020/01/31 12:19:59.7	147.190	0.340	-0.000	1.310
2020/01/31 12:19:59.8	147.210	0.320	0.020	1.350
2020/01/31 12:19:59.9	147.230	0.300	0.040	1.380
2020/01/31 12:20:00.0	147.260	0.280	0.050	1.410
2020/01/31 12:20:00.1	147.280	0.250	0.070	1.440
2020/01/31 12:20:00.2	147.310	0.230	0.080	1.470
2020/01/31 12:20:00.3	147.330	0.210	0.090	1.500
2020/01/31 12:20:00.4	147.360	0.190	0.100	1.520
2020/01/31 12:20:00.5	147.390	0.160	0.110	1.540
2020/01/31 12:20:00.6	147.420	0.140	0.110	1.560
2020/01/31 12:20:00.7	147.450	0.120	0.120	1.580
2020/01/31 12:20:00.8	147.480	0.100	0.130	1.590
2020/01/31 12:20:00.9	147.520	0.070	0.130	1.600
2020/01/31 12:20:01.0	147.550	0.050	0.130	1.610
2020/01/31 12:20:01.1	147.590	0.030	0.140	1.620
2020/01/31 12:20:01.2	147.620	0.010	0.140	1.620
2020/01/31 12:20:01.3	147.660	-0.010	0.140	1.620
2020/01/31 12:20:01.4	147.700	-0.030	0.140	1.620
2020/01/31 12:20:01.5	147.760	-0.050	0.150	1.620
2020/01/31 12:20:01.6	147.800	-0.070	0.150	1.620
2020/01/31 12:20:01.7	147.840	-0.090	0.150	1.610
2020/01/31 12:20:01.8	147.880	-0.110	0.140	1.600
2020/01/31 12:20:01.9	147.930	-0.130	0.140	1.600
2020/01/31 12:20:02.0	147.970	-0.150	0.140	1.590
2020/01/31 12:20:02.1	148.020	-0.170	0.130	1.580
2020/01/31 12:20:02.2	148.060	-0.190	0.130	1.570
2020/01/31 12:20:02.3	148.110	-0.210	0.120	1.560
2020/01/31 12:20:02.4	148.160	-0.230	0.120	1.550
2020/01/31 12:20:02.5	148.230	-0.250	0.110	1.540
2020/01/31 12:20:02.6	148.270	-0.270	0.100	1.530
2020/01/31 12:20:02.7	148.320	-0.290	0.090	1.520
2020/01/31 12:20:02.8	148.370	-0.310	0.070	1.510
2020/01/31 12:20:02.9	148.410	-0.330	0.060	1.500
2020/01/31 12:20:03.0	148.460	-0.350	0.050	1.490
2020/01/31 12:20:03.1	148.500	-0.370	0.030	1.490
2020/01/31 12:20:03.2	148.550	-0.380	0.010	1.480
2020/01/31 12:20:03.3	148.590	-0.400	-0.010	1.480
2020/01/31 12:20:03.4	148.630	-0.420	-0.030	1.480
2020/01/31 12:20:03.5	148.660	-0.440	-0.050	1.470
2020/01/31 12:20:03.6	148.700	-0.450	-0.080	1.470
2020/01/31 12:20:03.7	148.740	-0.470	-0.100	1.480
2020/01/31 12:20:03.8	148.780	-0.480	-0.130	1.480
2020/01/31 12:20:03.9	148.810	-0.490	-0.160	1.490
2020/01/31 12:20:04.0	148.840	-0.500	-0.190	1.490
2020/01/31 12:20:04.1	148.870	-0.510	-0.220	1.500
2020/01/31 12:20:04.2	148.900	-0.520	-0.250	1.510
2020/01/31 12:20:04.3	148.930	-0.520	-0.290	1.520
2020/01/31 12:20:04.4	148.950	-0.520	-0.320	1.540
2020/01/31 12:20:04.5	148.980	-0.520	-0.360	1.550
2020/01/31 12:20:04.6	149.000	-0.520	-0.390	1.570
2020/01/31 12:20:04.7	149.010	-0.520	-0.430	1.580
2020/01/31 12:20:04.8	149.030	-0.510	-0.470	1.600
2020/01/31 12:20:04.9	149.040	-0.500	-0.500	1.620
2020/01/31 12:20:05.0	149.050	-0.480	-0.540	1.640
2020/01/31 12:20:05.1	149.060	-0.470	-0.570	1.650
2020/01/31 12:20:05.2	149.070	-0.450	-0.600	1.670
2020/01/31 12:20:05.3	149.070	-0.430	-0.630	1.690
2020/01/31 12:20:05.4	149.080	-0.400	-0.660	1.710
2020/01/31 12:20:05.5	149.080	-0.370	-0.680	1.720
2020/01/31 12:20:05.6	149.080	-0.340	-0.710	1.740
2020/01/31 12:20:05.7	149.080	-0.310	-0.730	1.750
2020/01/31 12:20:05.8	149.080	-0.280	-0.740	1.750
2020/01/31 12:20:05.9	149.080	-0.240	-0.750	1.760
2020/01/31 12:20:06.0	149.080	-0.200	-0.760	1.760
2020/01/31 12:20:06.1	149.080	-0.160	-0.760	1.760
2020/01/31 12:20:06.2	149.080	-0.120	-0.760	1.750
2020/01/31 12:20:06.3	149.080	-0.080	-0.750	1.740
2020/01/31 12:20:06.4	149.080	-0.030	-0.740	1.730
2020/01/31 12:20:06.5	149.080	0.010	-0.730	1.710
2020/01/31 12:20:06.6	149.070	0.050	-0.710	1.680
2020/01/31 12:20:06.7	149.070	0.100	-0.680	1.660
2020/01/31 12:20:06.8	149.080	0.140	-0.650	1.620
2020/01/31 12:20:06.9	149.090	0.180	-0.610	1.580
2020/01/31 12:20:07.0	149.090	0.220	-0.570	1.540
2020/01/31 12:20:07.1	149.100	0.260	-0.530	1.500
2020/01/31 12:20:07.2	149.120	0.300	-0.490	1.450
2020/01/31 12:20:07.3	149.130	0.340	-0.440	1.390
2020/01/31 12:20:07.4	149.150	0.370	-0.390	1.330
2020/01/31 12:20:07.5	149.160	0.400	-0.330	1.270
2020/01/31 12:20:07.6	149.180	0.430	-0.280	1.210
2020/01/31 12:20:07.7	149.200	0.450	-0.230	1.140
2020/01/31 12:20:07.8	149.220	0.480	-0.180	1.070
2020/01/31 12:20:07.9	149.250	0.500	-0.130	1.000
2020/01/31 12:20:08.0	149.270	0.510	-0.080	0.930
2020/01/31 12:20:08.1	149.300	0.520	-0.030	0.860
2020/01/31 12:20:08.2	149.330	0.530	0.020	0.780
2020/01/31 12:20:08.3	149.360	0.540	0.070	0.710
2020/01/31 12:20:08.4	149.390	0.540	0.110	0.630
2020/01/31 12:20:08.5	149.410	0.540	0.140	0.560
2020/01/31 12:20:08.6	149.440	0.540	0.180	0.480
2020/01/31 12:20:08.7	149.480	0.530	0.210	0.410
2020/01/31 12:20:08.8	149.510	0.520	0.240	0.330
2020/01/31 12:20:08.9	149.540	0.510	0.270	0.260
2020/01/31 12:20:09.0	149.570	0.500	0.290	0.190
2020/01/31 12:20:09.1	149.600	0.480	0.310	0.110
2020/01/31 12:20:09.2	149.630	0.470	0.320	0.040
2020/01/31 12:20:09.3	149.660	0.450	0.330	-0.020
2020/01/31 12:20:09.4	149.700	0.420	0.340	-0.090
2020/01/31 12:20:09.5	149.720	0.400	0.350	-0.160
2020/01/31 12:20:09.6	149.750	0.380	0.340	-0.220
2020/01/31 12:20:09.7	149.780	0.350	0.340	-0.270
2020/01/31 12:20:09.8	149.810	0.330	0.330	-0.330
2020/01/31 12:20:09.9	149.840	0.300	0.320	-0.380
2020/01/31 12:20:10.0	149.860	0.280	0.300	-0.420
2020/01/31 12:20:10.1	149.890	0.250	0.280	-0.460
2020/01/31 12:20:10.2	149.910	0.220	0.260	-0.500
2020/01/31 12:20:10.3	149.940	0.200	0.240	-0.530
2020/01/31 12:20:10.4	149.960	0.170	0.210	-0.550
2020/01/31 12:20:10.5	150.000	0.150	0.180	-0.570
2020/01/31 12:20:10.6	150.020	0.120	0.150	-0.580
2020/01/31 12:20:10.7	150.050	0.100	0.120	-0.590
2020/01/31 12:20:10.8	150.070	0.070	0.080	-0.600
2020/01/31 12:20:10.9	150.090	0.050	0.050	-0.590
2020/01/31 12:20:11.0	150.110	0.030	0.010	-0.590
2020/01/31 12:20:11.1	150.130	0.010	-0.020	-0.570
2020/01/31 12:20:11.2	150.150	-0.010	-0.050	-0.560
2020/01/31 12:20:11.3	150.170	-0.030	-0.090	-0.530
2020/01/31 12:20:11.4	150.190	-0.050	-0.120	-0.510
2020/01/31 12:20:11.5	150.200	-0.070	-0.150	-0.480
2020/01/31 12:20:11.6	150.220	-0.090	-0.180	-0.440
2020/01/31 12:20:11.7	150.240	-0.100	-0.200	-0.400
2020/01/31 12:20:11.8	150.250	-0.120	-0.230	-0.360
2020/01/31 12:20:11.9	150.270	-0.140	-0.250	-0.310
2020/01/31 12:20:12.0	150.290	-0.150	-0.270	-0.270
2020/01/31 12:20:12.1	150.310	-0.160	-0.280	-0.210
2020/01/31 12:20:12.2	150.330	-0.180	-0.290	-0.160
2020/01/31 12:20:12.3	150.340	-0.190	-0.300	-0.100
2020/01/31 12:20:12.4	150.360	-0.200	-0.310	-0.050
2020/01/31 12:20:12.5	150.380	-0.220	-0.310	0.020
2020/01/31 12:20:12.6	150.390	-0.230	-0.300	0.080
2020/01/31 12:20:12.7	150.410	-0.240	-0.300	0.140
2020/01/31 12:20:12.8	150.420	-0.250	-0.300	0.210
2020/01/31 12:20:12.9	150.430	-0.260	-0.290	0.270
2020/01/31 12:20:13.0	150.450	-0.270	-0.280	0.340
2020/01/31 12:20:13.1	150.460	-0.280	-0.270	0.410
2020/01/31 12:20:13.2	150.470	-0.290	-0.250	0.480
2020/01/31 12:20:13.3	150.480	-0.300	-0.240	0.550
2020/01/31 12:20:13.4	150.480	-0.300	-0.220	0.620
2020/01/31 12:20:13.5	150.500	-0.310	-0.200	0.680
2020/01/31 12:20:13.6	150.500	-0.320	-0.190	0.750
2020/01/31 12:20:13.7	150.510	-0.330	-0.170	0.820
2020/01/31 12:20:13.8	150.510	-0.330	-0.160	0.900
2020/01/31 12:20:13.9	150.520	-0.340	-0.140	0.970
2020/01/31 12:20:14.0	150.520	-0.350	-0.130	1.040
2020/01/31 12:20:14.1	150.520	-0.350	-0.110	1.110
2020/01/31 12:20:14.2	150.530	-0.350	-0.100	1.180
2020/01/31 12:20:14.3	150.530	-0.360	-0.090	1.240
2020/01/31 12:20:14.4	150.530	-0.360	-0.080	1.310
2020/01/31 12:20:14.5	150.530	-0.360	-0.080	1.380
2020/01/31 12:20:14.6	150.530	-0.360	-0.080	1.450
2020/01/31 12:20:14.7	150.530	-0.360	-0.080	1.520
2020/01/31 12:20:14.8	150.530	-0.350	-0.080	1.580
2020/01/31 12:20:14.9	150.530	-0.350	-0.080	1.650
2020/01/31 12:20:15.0	150.530	-0.340	-0.090	1.710
2020/01/31 12:20:15.1	150.530	-0.330	-0.100	1.770
2020/01/31 12:20:15.2	150.530	-0.320	-0.110	1.830
2020/01/31 12:20:15.3	150.530	-0.310	-0.130	1.890
2020/01/31 12:20:15.4	150.530	-0.290	-0.140	1.950
2020/01/31 12:20:15.5	150.520	-0.270	-0.160	2.000
2020/01/31 12:20:15.6	150.520	-0.250	-0.180	2.050
2020/01/31 12:20:15.7	150.520	-0.230	-0.200	2.100
2020/01/31 12:20:15.8	150.520	-0.200	-0.230	2.150
2020/01/31 12:20:15.9	150.510	-0.170	-0.260	2.200
2020/01/31 12:20:16.0	150.510	-0.140	-0.290	2.250
2020/01/31 12:20:16.1	150.500	-0.110	-0.320	2.290
2020/01/31 12:20:16.2	150.500	-0.070	-0.350	2.330
2020/01/31 12:20:16.3	150.490	-0.040	-0.390	2.360
2020/01/31 12:20:16.4	150.490	-0.000	-0.420	2.400
2020/01/31 12:20:16.5	150.480	0.040	-0.460	2.430
2020/01/31 12:20:16.6	150.480	0.080	-0.490	2.450
2020/01/31 12:20:16.7	150.470	0.120	-0.520	2.480
2020/01/31 12:20:16.8	150.460	0.160	-0.550	2.500
2020/01/31 12:20:16.9	150.450	0.200	-0.580	2.510
2020/01/31 12:20:17.0	150.450	0.240	-0.610	2.520
2020/01/31 12:20:17.1	150.440	0.280	-0.640	2.530
2020/01/31 12:20:17.2	150.430	0.320	-0.660	2.530
2020/01/31 12:20:17.3	150.430	0.350	-0.680	2.530
2020/01/31 12:20:17.4	150.420	0.390	-0.700	2.520
2020/01/31 12:20:17.5	150.420	0.420	-0.710	2.510
2020/01/31 12:20:17.6	150.420	0.450	-0.710	2.490
2020/01/31 12:20:17.7	150.410	0.480	-0.720	2.470
2020/01/31 12:20:17.8	150.410	0.500	-0.710	2.440
2020/01/31 12:20:17.9	150.410	0.530	-0.710	2.410
2020/01/31 12:20:18.0	150.420	0.540	-0.690	2.380
2020/01/31 12:20:18.1	150.420	0.560	-0.680	2.330
2020/01/31 12:20:18.2	150.430	0.570	-0.650	2.290
2020/01/31 12:20:18.3	150.440	0.580	-0.620	2.230
2020/01/31 12:20:18.4	150.450	0.580	-0.590	2.180
2020/01/31 12:20:18.5	150.450	0.580	-0.550	2.120
2020/01/31 12:20:18.6	150.470	0.580	-0.500	2.050
2020/01/31 12:20:18.7	150.480	0.570	-0.450	1.980
2020/01/31 12:20:18.8	150.500	0.560	-0.400	1.900
2020/01/31 12:20:18.9	150.520	0.540	-0.340	1.830
2020/01/31 12:20:19.0	150.550	0.520	-0.270	1.740
2020/01/31 12:20:19.1	150.570	0.500	-0.210	1.660
2020/01/31 12:20:19.2	150.600	0.470	-0.140	1.570
2020/01/31 12:20:19.3	150.620	0.440	-0.070	1.480
2020/01/31 12:20:19.4	150.650	0.410	0.010	1.390
2020/01/31 12:20:19.5	150.700	0.370	0.080	1.300
2020/01/31 12:20:19.6	150.730	0.340	0.160	1.210
2020/01/31 12:20:19.7	150.760	0.300	0.230	1.120
2020/01/31 12:20:19.8	150.800	0.250	0.300	1.020
2020/01/31 12:20:19.9	150.830	0.210	0.370	0.930
2020/01/31 12:20:20.0	150.860	0.170	0.430	0.840
2020/01/31 12:20:20.1	150.890	0.120	0.490	0.750
2020/01/31 12:20:20.2	150.930	0.070	0.550	0.670
2020/01/31 12:20:20.3	150.960	0.030	0.600	0.580
2020/01/31 12:20:20.4	150.990	-0.020	0.650	0.500
2020/01/31 12:20:20.5	151.020	-0.070	0.680	0.420
2020/01/31 12:20:20.6	151.050	-0.110	0.710	0.340
2020/01/31 12:20:20.7	151.080	-0.160	0.730	0.270
2020/01/31 12:20:20.8	151.100	-0.200	0.750	0.200
2020/01/31 12:20:20.9	151.120	-0.240	0.760	0.140
2020/01/31 12:20:21.0	151.140	-0.280	0.760	0.080
2020/01/31 12:20:21.1	151.160	-0.320	0.750	0.020
2020/01/31 12:20:21.2	151.170	-0.350	0.730	-0.030
2020/01/31 12:20:21.3	151.180	-0.380	0.700	-0.070
2020/01/31 12:20:21.4	151.190	-0.410	0.670	-0.110
2020/01/31 12:20:21.5	151.200	-0.440	0.630	-0.150
2020/01/31 12:20:21.6	151.200	-0.460	0.580	-0.180
2020/01/31 12:20:21.7	151.200	-0.480	0.520	-0.210
2020/01/31 12:20:21.8	151.190	-0.490	0.460	-0.230
2020/01/31 12:20:21.9	151.190	-0.500	0.390	-0.250
2020/01/31 12:20:22.0	151.180	-0.510	0.310	-0.260
2020/01/31 12:20:22.1	151.160	-0.510	0.230	-0.270
2020/01/31 12:20:22.2	151.150	-0.510	0.150	-0.270
2020/01/31 12:20:22.3	151.130	-0.500	0.060	-0.270
2020/01/31 12:20:22.4	151.110	-0.490	-0.030	-0.260
2020/01/31 12:20:22.5	151.090	-0.480	-0.120	-0.260
2020/01/31 12:20:22.6	151.060	-0.460	-0.220	-0.240
2020/01/31 12:20:22.7	151.040	-0.450	-0.310	-0.230
2020/01/31 12:20:22.8	151.010	-0.420	-0.400	-0.210
2020/01/31 12:20:22.9	150.980	-0.400	-0.490	-0.190
2020/01/31 12:20:23.0	150.950	-0.370	-0.580	-0.170
2020/01/31 12:20:23.1	150.920	-0.340	-0.670	-0.150
2020/01/31 12:20:23.2	150.890	-0.310	-0.750	-0.120
2020/01/31 12:20:23.3	150.860	-0.280	-0.830	-0.100
2020/01/31 12:20:23.4	150.830	-0.250	-0.900	-0.070
2020/01/31 12:20:23.5	150.800	-0.210	-0.960	-0.040
2020/01/31 12:20:23.6	150.770	-0.180	-1.020	-0.010
2020/01/31 12:20:23.7	150.750	-0.140	-1.080	0.010
2020/01/31 12:20:23.8	150.720	-0.110	-1.130	0.040
2020/01/31 12:20:23.9	150.700	-0.070	-1.170	0.070
2020/01/31 12:20:24.0	150.680	-0.040	-1.200	0.090
2020/01/31 12:20:24.1	150.660	-0.010	-1.220	0.120
2020/01/31 12:20:24.2	150.650	0.020	-1.240	0.140
2020/01/31 12:20:24.3	150.640	0.050	-1.250	0.160
2020/01/31 12:20:24.4	150.630	0.070	-1.250	0.190
2020/01/31 12:20:24.5	150.620	0.100	-1.240	0.210
2020/01/31 12:20:24.6	150.620	0.120	-1.220	0.230
2020/01/31 12:20:24.7	150.620	0.140	-1.190	0.240
2020/01/31 12:20:24.8	150.620	0.150	-1.160	0.260
2020/01/31 12:20:24.9	150.630	0.170	-1.120	0.280
2020/01/31 12:20:25.0	150.640	0.180	-1.070	0.300
2020/01/31 12:20:25.1	150.660	0.180	-1.010	0.310
2020/01/31 12:20:25.2	150.670	0.190	-0.950	0.320
2020/01/31 12:20:25.3	150.690	0.190	-0.870	0.340
2020/01/31 12:20:25.4	150.720	0.180	-0.800	0.350
2020/01/31 12:20:25.5	150.730	0.180	-0.710	0.360
2020/01/31 12:20:25.6	150.760	0.170	-0.620	0.370
2020/01/31 12:20:25.7	150.790	0.160	-0.530	0.380
2020/01/31 12:20:25.8	150.820	0.150	-0.440	0.390
2020/01/31 12:20:25.9	150.850	0.130	-0.340	0.400
2020/01/31 12:20:26.0	150.880	0.120	-0.240	0.410
2020/01/31 12:20:26.1	150.910	0.100	-0.140	0.420
2020/01/31 12:20:26.2	150.950	0.080	-0.030	0.440
2020/01/31 12:20:26.3	150.980	0.060	0.070	0.450
2020/01/31 12:20:26.4	151.010	0.040	0.170	0.460
2020/01/31 12:20:26.5	151.040	0.020	0.260	0.470
2020/01/31 12:20:26.6	151.070	-0.000	0.350	0.480
2020/01/31 12:20:26.7	151.100	-0.020	0.440	0.490
2020/01/31 12:20:26.8	151.130	-0.040	0.530	0.510
2020/01/31 12:20:26.9	151.160	-0.060	0.610	0.520
2020/01/31 12:20:27.0	151.180	-0.080	0.680	0.540
2020/01/31 12:20:27.1	151.210	-0.090	0.740	0.550
2020/01/31 12:20:27.2	151.230	-0.110	0.800	0.570
2020/01/31 12:20:27.3	151.250	-0.120	0.850	0.580
2020/01/31 12:20:27.4	151.260	-0.130	0.890	0.600
2020/01/31 12:20:27.5	151.280	-0.140	0.920	0.620
2020/01/31 12:20:27.6	151.290	-0.140	0.940	0.630
2020/01/31 12:20:27.7	151.300	-0.150	0.960	0.650
2020/01/31 12:20:27.8	151.310	-0.150	0.960	0.670
2020/01/31 12:20:27.9	151.320	-0.150	0.950	0.690
2020/01/31 12:20:28.0	151.320	-0.150	0.940	0.710
2020/01/31 12:20:28.1	151.320	-0.140	0.910	0.730
2020/01/31 12:20:28.2	151.320	-0.130	0.880	0.750
2020/01/31 12:20:28.3	151.310	-0.120	0.840	0.770
2020/01/31 12:20:28.4	151.310	-0.110	0.790	0.790
2020/01/31 12:20:28.5	151.300	-0.100	0.730	0.810
2020/01/31 12:20:28.6	151.290	-0.080	0.670	0.830
2020/01/31 12:20:28.7	151.290	-0.060	0.600	0.850
2020/01/31 12:20:28.8	151.270	-0.040	0.530	0.880
2020/01/31 12:20:28.9	151.260	-0.020	0.450	0.900
2020/01/31 12:20:29.0	151.250	-0.000	0.360	0.920
2020/01/31 12:20:29.1	151.230	0.020	0.280	0.940
2020/01/31 12:20:29.2	151.220	0.040	0.190	0.960
2020/01/31 12:20:29.3	151.210	0.060	0.110	0.990
2020/01/31 12:20:29.4	151.190	0.090	0.020	1.010
2020/01/31 12:20:29.5	151.180	0.110	-0.060	1.030
2020/01/31 12:20:29.6	151.160	0.130	-0.150	1.060
2020/01/31 12:20:29.7	151.150	0.150	-0.230	1.080
2020/01/31 12:20:29.8	151.140	0.170	-0.310	1.110
2020/01/31 12:20:29.9	151.120	0.190	-0.380	1.130
2020/01/31 12:20:30.0	151.110	0.210	-0.450	1.160
2020/01/31 12:20:30.1	151.100	0.220	-0.520	1.190
2020/01/31 12:20:30.2	151.090	0.240	-0.570	1.220
2020/01/31 12:20:30.3	151.080	0.250	-0.630	1.240
2020/01/31 12:20:30.4	151.080	0.260	-0.670	1.270
2020/01/31 12:20:30.5	151.070	0.270	-0.710	1.300
2020/01/31 12:20:30.6	151.060	0.280	-0.750	1.330
2020/01/31 12:20:30.7	151.050	0.290	-0.770	1.360
2020/01/31 12:20:30.8	151.050	0.290	-0.790	1.390
2020/01/31 12:20:30.9	151.050	0.290	-0.810	1.420
2020/01/31 12:20:31.0	151.040	0.290	-0.820	1.450
2020/01/31 12:20:31.1	151.040	0.290	-0.820	1.480
2020/01/31 12:20:31.2	151.030	0.290	-0.820	1.510
2020/01/31 12:20:31.3	151.030	0.280	-0.810	1.540
2020/01/31 12:20:31.4	151.030	0.270	-0.800	1.570
2020/01/31 12:20:31.5	151.010	0.270	-0.780	1.600
2020/01/31 12:20:31.6	151.010	0.260	-0.760	1.630
2020/01/31 12:20:31.7	151.000	0.250	-0.740	1.660
2020/01/31 12:20:31.8	151.000	0.240	-0.720	1.690
2020/01/31 12:20:31.9	150.990	0.220	-0.700	1.710
2020/01/31 12:20:32.0	150.980	0.210	-0.680	1.740
2020/01/31 12:20:32.1	150.970	0.200	-0.650	1.760
2020/01/31 12:20:32.2	150.960	0.190	-0.630	1.780
2020/01/31 12:20:32.3	150.960	0.170	-0.600	1.800
2020/01/31 12:20:32.4	150.950	0.160	-0.580	1.820
2020/01/31 12:20:32.5	150.930	0.150	-0.560	1.840
2020/01/31 12:20:32.6	150.920	0.130	-0.540	1.850
2020/01/31 12:20:32.7	150.910	0.120	-0.520	1.860
2020/01/31 12:20:32.8	150.900	0.110	-0.500	1.870
2020/01/31 12:20:32.9	150.890	0.100	-0.490	1.870
2020/01/31 12:20:33.0	150.880	0.080	-0.470	1.870
2020/01/31 12:20:33.1	150.860	0.070	-0.460	1.860
2020/01/31 12:20:33.2	150.850	0.060	-0.440	1.860
2020/01/31 12:20:33.3	150.850	0.050	-0.430	1.840
2020/01/31 12:20:33.4	150.840	0.040	-0.420	1.820
2020/01/31 12:20:33.5	150.830	0.030	-0.410	1.800
2020/01/31 12:20:33.6	150.820	0.020	-0.400	1.770
2020/01/31 12:20:33.7	150.810	0.010	-0.390	1.740
2020/01/31 12:20:33.8	150.810	-0.010	-0.390	1.710
2020/01/31 12:20:33.9	150.800	-0.020	-0.380	1.670
2020/01/31 12:20:34.0	150.800	-0.030	-0.370	1.630
2020/01/31 12:20:34.1	150.800	-0.040	-0.360	1.590
2020/01/31 12:20:34.2	150.790	-0.050	-0.350	1.540
2020/01/31 12:20:34.3	150.790	-0.060	-0.340	1.500
2020/01/31 12:20:34.4	150.790	-0.070	-0.330	1.450
2020/01/31 12:20:34.5	150.790	-0.080	-0.320	1.390
2020/01/31 12:20:34.6	150.780	-0.090	-0.310	1.340
2020/01/31 12:20:34.7	150.780	-0.100	-0.300	1.290
2020/01/31 12:20:34.8	150.780	-0.110	-0.280	1.240
2020/01/31 12:20:34.9	150.780	-0.120	-0.270	1.190
2020/01/31 12:20:35.0	150.780	-0.130	-0.250	1.140
2020/01/31 12:20:35.1	150.780	-0.150	-0.230	1.100
2020/01/31 12:20:35.2	150.780	-0.160	-0.200	1.050
2020/01/31 12:20:35.3	150.770	-0.170	-0.180	1.010
2020/01/31 12:20:35.4	150.770	-0.180	-0.150	0.970
2020/01/31 12:20:35.5	150.780	-0.190	-0.120	0.930
2020/01/31 12:20:35.6	150.770	-0.200	-0.090	0.900
2020/01/31 12:20:35.7	150.770	-0.210	-0.060	0.870
2020/01/31 12:20:35.8	150.770	-0.220	-0.030	0.840
2020/01/31 12:20:35.9	150.760	-0.220	0.000	0.810
2020/01/31 12:20:36.0	150.760	-0.230	0.040	0.790
2020/01/31 12:20:36.1	150.760	-0.240	0.070	0.770
2020/01/31 12:20:36.2	150.750	-0.240	0.110	0.750
2020/01/31 12:20:36.3	150.750	-0.250	0.150	0.730
2020/01/31 12:20:36.4	150.750	-0.250	0.190	0.710
2020/01/31 12:20:36.5	150.750	-0.250	0.220	0.690
2020/01/31 12:20:36.6	150.740	-0.260	0.260	0.670
2020/01/31 12:20:36.7	150.740	-0.260	0.290	0.660
2020/01/31 12:20:36.8	150.740	-0.250	0.330	0.640
2020/01/31 12:20:36.9	150.750	-0.250	0.360	0.620
2020/01/31 12:20:37.0	150.750	-0.250	0.390	0.590
2020/01/31 12:20:37.1	150.750	-0.240	0.420	0.570
2020/01/31 12:20:37.2	150.760	-0.230	0.440	0.540
2020/01/31 12:20:37.3	150.760	-0.220	0.470	0.520
2020/01/31 12:20:37.4	150.770	-0.210	0.490	0.490
2020/01/31 12:20:37.5	150.770	-0.200	0.500	0.450
2020/01/31 12:20:37.6	150.780	-0.190	0.510	0.420
2020/01/31 12:20:37.7	150.790	-0.180	0.520	0.380
2020/01/31 12:20:37.8	150.790	-0.160	0.520	0.340
2020/01/31 12:20:37.9	150.800	-0.140	0.520	0.300
2020/01/31 12:20:38.0	150.810	-0.130	0.510	0.260
2020/01/31 12:20:38.1	150.810	-0.110	0.490	0.210
2020/01/31 12:20:38.2	150.820	-0.090	0.480	0.170
2020/01/31 12:20:38.3	150.820	-0.070	0.450	0.120
2020/01/31 12:20:38.4	150.820	-0.050	0.430	0.070
2020/01/31 12:20:38.5	150.830	-0.030	0.390	0.030
2020/01/31 12:20:38.6	150.830	-0.010	0.360	-0.020
2020/01/31 12:20:38.7	150.830	0.010	0.310	-0.060
2020/01/31 12:20:38.8	150.830	0.030	0.270	-0.110
2020/01/31 12:20:38.9	150.820	0.050	0.220	-0.150
2020/01/31 12:20:39.0	150.820	0.070	0.170	-0.190
2020/01/31 12:20:39.1	150.810	0.080	0.120	-0.230
2020/01/31 12:20:39.2	150.800	0.100	0.070	-0.260
2020/01/31 12:20:39.3	150.790	0.110	0.010	-0.290
2020/01/31 12:20:39.4	150.770	0.130	-0.050	-0.320
2020/01/31 12:20:39.5	150.770	0.140	-0.100	-0.340
2020/01/31 12:20:39.6	150.750	0.150	-0.160	-0.360
2020/01/31 12:20:39.7	150.730	0.160	-0.220	-0.380
2020/01/31 12:20:39.8	150.720	0.170	-0.270	-0.390
2020/01/31 12:20:39.9	150.700	0.170	-0.320	-0.390
2020/01/31 12:20:40.0	150.680	0.170	-0.380	-0.390
2020/01/31 12:20:40.1	150.660	0.180	-0.420	-0.390
2020/01/31 12:20:40.2	150.640	0.180	-0.470	-0.380
2020/01/31 12:20:40.3	150.620	0.170	-0.510	-0.370
2020/01/31 12:20:40.4	150.600	0.170	-0.550	-0.350
2020/01/31 12:20:40.5	150.590	0.160	-0.580	-0.320
2020/01/31 12:20:40.6	150.570	0.160	-0.620	-0.300
2020/01/31 12:20:40.7	150.550	0.150	-0.640	-0.260
2020/01/31 12:20:40.8	150.530	0.140	-0.660	-0.230
2020/01/31 12:20:40.9	150.520	0.130	-0.680	-0.190
2020/01/31 12:20:41.0	150.500	0.120	-0.700	-0.150
2020/01/31 12:20:41.1	150.480	0.100	-0.700	-0.100
2020/01/31 12:20:41.2	150.470	0.090	-0.710	-0.050
2020/01/31 12:20:41.3	150.460	0.070	-0.710	0.000
2020/01/31 12:20:41.4	150.450	0.060	-0.710	0.050
2020/01/31 12:20:41.5	150.430	0.040	-0.700	0.110
2020/01/31 12:20:41.6	150.420	0.030	-0.690	0.170
2020/01/31 12:20:41.7	150.410	0.010	-0.670	0.230
2020/01/31 12:20:41.8	150.400	-0.000	-0.660	0.290
2020/01/31 12:20:41.9	150.390	-0.020	-0.640	0.350
2020/01/31 12:20:42.0	150.380	-0.030	-0.620	0.420
2020/01/31 12:20:42.1	150.370	-0.050	-0.600	0.480
2020/01/31 12:20:42.2	150.370	-0.060	-0.580	0.550
2020/01/31 12:20:42.3	150.360	-0.070	-0.560	0.610
2020/01/31 12:20:42.4	150.350	-0.080	-0.530	0.680
2020/01/31 12:20:42.5	150.340	-0.090	-0.510	0.740
2020/01/31 12:20:42.6	150.330	-0.100	-0.490	0.810
2020/01/31 12:20:42.7	150.310	-0.100	-0.470	0.880
2020/01/31 12:20:42.8	150.300	-0.110	-0.450	0.940
2020/01/31 12:20:42.9	150.280	-0.110	-0.430	1.010
2020/01/31 12:20:43.0	150.270	-0.110	-0.410	1.080
2020/01/31 12:20:43.1	150.250	-0.110	-0.400	1.140
2020/01/31 12:20:43.2	150.230	-0.110	-0.380	1.210
2020/01/31 12:20:43.3	150.200	-0.100	-0.370	1.270
2020/01/31 12:20:43.4	150.180	-0.100	-0.360	1.330
2020/01/31 12:20:43.5	150.150	-0.090	-0.350	1.390
2020/01/31 12:20:43.6	150.120	-0.080	-0.340	1.450
2020/01/31 12:20:43.7	150.100	-0.070	-0.330	1.510
2020/01/31 12:20:43.8	150.070	-0.060	-0.320	1.560
2020/01/31 12:20:43.9	150.050	-0.040	-0.320	1.610
2020/01/31 12:20:44.0	150.020	-0.030	-0.310	1.660
2020/01/31 12:20:44.1	149.990	-0.020	-0.300	1.710
2020/01/31 12:20:44.2	149.970	-0.000	-0.300	1.750
2020/01/31 12:20:44.3	149.940	0.010	-0.290	1.790
2020/01/31 12:20:44.4	149.920	0.030	-0.280	1.830
2020/01/31 12:20:44.5	149.900	0.050	-0.270	1.860
2020/01/31 12:20:44.6	149.880	0.060	-0.260	1.890
2020/01/31 12:20:44.7	149.860	0.080	-0.250	1.910
2020/01/31 12:20:44.8	149.840	0.100	-0.240	1.940
2020/01/31 12:20:44.9	149.820	0.110	-0.220	1.960
2020/01/31 12:20:45.0	149.800	0.130	-0.210	1.970
2020/01/31 12:20:45.1	149.790	0.140	-0.190	1.990
2020/01/31 12:20:45.2	149.770	0.160	-0.170	2.000
2020/01/31 12:20:45.3	149.760	0.170	-0.160	2.010
2020/01/31 12:20:45.4	149.750	0.180	-0.130	2.010
2020/01/31 12:20:45.5	149.740	0.190	-0.110	2.020
2020/01/31 12:20:45.6	149.730	0.200	-0.090	2.020
2020/01/31 12:20:45.7	149.720	0.210	-0.070	2.020
2020/01/31 12:20:45.8	149.710	0.220	-0.040	2.020
2020/01/31 12:20:45.9	149.710	0.230	-0.010	2.020
2020/01/31 12:20:46.0	149.700	0.230	0.020	2.010
2020/01/31 12:20:46.1	149.690	0.230	0.040	2.010
2020/01/31 12:20:46.2	149.690	0.230	0.070	2.000
2020/01/31 12:20:46.3	149.680	0.230	0.100	1.990
2020/01/31 12:20:46.4	149.680	0.230	0.130	1.990
2020/01/31 12:20:46.5	149.680	0.230	0.170	1.980
2020/01/31 12:20:46.6	149.670	0.220	0.200	1.970
2020/01/31 12:20:46.7	149.670	0.210	0.230	1.960
2020/01/31 12:20:46.8	149.660	0.200	0.260	1.950
2020/01/31 12:20:46.9	149.660	0.190	0.290	1.940
2020/01/31 12:20:47.0	149.650	0.180	0.320	1.930
2020/01/31 12:20:47.1	149.650	0.160	0.350	1.920
2020/01/31 12:20:47.2	149.640	0.140	0.380	1.910
2020/01/31 12:20:47.3	149.640	0.130	0.400	1.900
2020/01/31 12:20:47.4	149.630	0.110	0.430	1.890
2020/01/31 12:20:47.5	149.620	0.090	0.440	1.870
2020/01/31 12:20:47.6	149.610	0.070	0.460	1.860
2020/01/31 12:20:47.7	149.600	0.050	0.480	1.850
2020/01/31 12:20:47.8	149.590	0.030	0.490	1.840
2020/01/31 12:20:47.9	149.580	0.010	0.500	1.820
2020/01/31 12:20:48.0	149.570	-0.010	0.510	1.810
2020/01/31 12:20:48.1	149.560	-0.030	0.510	1.800
2020/01/31 12:20:48.2	149.550	-0.050	0.510	1.790
2020/01/31 12:20:48.3	149.540	-0.070	0.510	1.770
2020/01/31 12:20:48.4	149.520	-0.090	0.490	1.760
2020/01/31 12:20:48.5	149.520	-0.110	0.480	1.750
2020/01/31 12:20:48.6	149.500	-0.130	0.460	1.740
2020/01/31 12:20:48.7	149.480	-0.140	0.440	1.720
2020/01/31 12:20:48.8	149.460	-0.160	0.400	1.710
2020/01/31 12:20:48.9	149.440	-0.170	0.370	1.700
2020/01/31 12:20:49.0	149.420	-0.180	0.330	1.690
2020/01/31 12:20:49.1	149.400	-0.190	0.290	1.670
2020/01/31 12:20:49.2	149.380	-0.200	0.240	1.660
2020/01/31 12:20:49.3	149.350	-0.200	0.180	1.650
2020/01/31 12:20:49.4	149.330	-0.210	0.130	1.630
2020/01/31 12:20:49.5	149.300	-0.210	0.070	1.610
2020/01/31 12:20:49.6	149.270	-0.210	0.000	1.600
2020/01/31 12:20:49.7	149.250	-0.200	-0.060	1.580
2020/01/31 12:20:49.8	149.220	-0.200	-0.130	1.560
2020/01/31 12:20:49.9	149.190	-0.190	-0.200	1.540
2020/01/31 12:20:50.0	149.160	-0.180	-0.260	1.520
2020/01/31 12:20:50.1	149.140	-0.170	-0.330	1.500
2020/01/31 12:20:50.2	149.110	-0.160	-0.400	1.480
2020/01/31 12:20:50.3	149.080	-0.140	-0.470	1.460
2020/01/31 12:20:50.4	149.050	-0.130	-0.540	1.440
2020/01/31 12:20:50.5	149.030	-0.110	-0.600	1.420
2020/01/31 12:20:50.6	149.000	-0.090	-0.670	1.400
2020/01/31 12:20:50.7	148.970	-0.070	-0.730	1.380
2020/01/31 12:20:50.8	148.940	-0.050	-0.780	1.360
2020/01/31 12:20:50.9	148.910	-0.030	-0.840	1.340
2020/01/31 12:20:51.0	148.880	-0.010	-0.890	1.320
2020/01/31 12:20:51.1	148.850	0.010	-0.930	1.310
2020/01/31 12:20:51.2	148.820	0.030	-0.970	1.290
2020/01/31 12:20:51.3	148.790	0.050	-1.010	1.280
2020/01/31 12:20:51.4	148.760	0.070	-1.040	1.260
2020/01/31 12:20:51.5	148.730	0.090	-1.060	1.260
2020/01/31 12:20:51.6	148.700	0.110	-1.080	1.250
2020/01/31 12:20:51.7	148.670	0.130	-1.100	1.240
2020/01/31 12:20:51.8	148.640	0.150	-1.110	1.240
2020/01/31 12:20:51.9	148.610	0.170	-1.110	1.230
2020/01/31 12:20:52.0	148.580	0.180	-1.110	1.230
2020/01/31 12:20:52.1	148.550	0.190	-1.100	1.230
2020/01/31 12:20:52.2	148.510	0.200	-1.090	1.230
2020/01/31 12:20:52.3	148.480	0.210	-1.070	1.230
2020/01/31 12:20:52.4	148.450	0.220	-1.040	1.230
2020/01/31 12:20:52.5	148.430	0.220	-1.010	1.230
2020/01/31 12:20:52.6	148.400	0.220	-0.980	1.230
2020/01/31 12:20:52.7	148.370	0.220	-0.940	1.230
2020/01/31 12:20:52.8	148.340	0.220	-0.890	1.230
2020/01/31 12:20:52.9	148.320	0.210	-0.840	1.230
2020/01/31 12:20:53.0	148.290	0.200	-0.790	1.230
2020/01/31 12:20:53.1	148.270	0.190	-0.730	1.230
2020/01/31 12:20:53.2	148.250	0.180	-0.670	1.230
2020/01/31 12:20:53.3	148.230	0.160	-0.610	1.230
2020/01/31 12:20:53.4	148.210	0.140	-0.540	1.220
2020/01/31 12:20:53.5	148.200	0.120	-0.470	1.220
2020/01/31 12:20:53.6	148.190	0.090	-0.400	1.210
2020/01/31 12:20:53.7	148.170	0.070	-0.320	1.200
2020/01/31 12:20:53.8	148.160	0.040	-0.250	1.190
2020/01/31 12:20:53.9	148.140	0.010	-0.170	1.180
2020/01/31 12:20:54.0	148.130	-0.020	-0.100	1.170
2020/01/31 12:20:54.1	148.120	-0.050	-0.020	1.160
2020/01/31 12:20:54.2	148.110	-0.080	0.050	1.140
2020/01/31 12:20:54.3	148.100	-0.120	0.120	1.130
2020/01/31 12:20:54.4	148.090	-0.150	0.190	1.110
2020/01/31 12:20:54.5	148.090	-0.180	0.260	1.100
2020/01/31 12:20:54.6	148.080	-0.220	0.320	1.090
2020/01/31 12:20:54.7	148.070	-0.250	0.390	1.070
2020/01/31 12:20:54.8	148.060	-0.280	0.440	1.060
2020/01/31 12:20:54.9	148.050	-0.310	0.500	1.050
2020/01/31 12:20:55.0	148.040	-0.340	0.540	1.030
2020/01/31 12:20:55.1	148.020	-0.360	0.590	1.020
2020/01/31 12:20:55.2	148.010	-0.390	0.620	1.020
2020/01/31 12:20:55.3	147.990	-0.410	0.650	1.010
2020/01/31 12:20:55.4	147.970	-0.430	0.680	1.010
2020/01/31 12:20:55.5	147.950	-0.440	0.700	1.000
2020/01/31 12:20:55.6	147.930	-0.460	0.710	1.000
2020/01/31 12:20:55.7	147.900	-0.470	0.710	1.000
2020/01/31 12:20:55.8	147.880	-0.470	0.710	1.010
2020/01/31 12:20:55.9	147.850	-0.480	0.700	1.020
2020/01/31 12:20:56.0	147.820	-0.470	0.690	1.030
2020/01/31 12:20:56.1	147.790	-0.470	0.660	1.050
2020/01/31 12:20:56.2	147.750	-0.460	0.640	1.070
2020/01/31 12:20:56.3	147.720	-0.450	0.600	1.090
2020/01/31 12:20:56.4	147.680	-0.440	0.570	1.110
2020/01/31 12:20:56.5	147.620	-0.420	0.520	1.140
2020/01/31 12:20:56.6	147.580	-0.400	0.480	1.170
2020/01/31 12:20:56.7	147.530	-0.370	0.430	1.200
2020/01/31 12:20:56.8	147.490	-0.340	0.370	1.230
2020/01/31 12:20:56.9	147.440	-0.310	0.320	1.270
2020/01/31 12:20:57.0	147.390	-0.280	0.260	1.300
2020/01/31 12:20:57.1	147.340	-0.240	0.200	1.340
2020/01/31 12:20:57.2	147.290	-0.210	0.130	1.380
2020/01/31 12:20:57.3	147.240	-0.170	0.070	1.430
2020/01/31 12:20:57.4	147.180	-0.120	0.010	1.470
2020/01/31 12:20:57.5	147.130	-0.080	-0.050	1.520
2020/01/31 12:20:57.6	147.080	-0.040	-0.100	1.560
2020/01/31 12:20:57.7	147.020	0.010	-0.160	1.610
2020/01/31 12:20:57.8	146.960	0.050	-0.210	1.650
2020/01/31 12:20:57.9	146.910	0.100	-0.260	1.700
2020/01/31 12:20:58.0	146.850	0.150	-0.310	1.740
2020/01/31 12:20:58.1	146.790	0.190	-0.350	1.790
2020/01/31 12:20:58.2	146.730	0.240	-0.390	1.830
2020/01/31 12:20:58.3	146.680	0.280	-0.420	1.870
2020/01/31 12:20:58.4	146.620	0.320	-0.450	1.910
2020/01/31 12:20:58.5	146.560	0.360	-0.470	1.950
2020/01/31 12:20:58.6	146.500	0.400	-0.490	1.980
2020/01/31 12:20:58.7	146.450	0.440	-0.500	2.010
2020/01/31 12:20:58.8	146.400	0.470	-0.510	2.040
2020/01/31 12:20:58.9	146.350	0.510	-0.510	2.060
2020/01/31 12:20:59.0	146.300	0.540	-0.510	2.080
2020/01/31 12:20:59.1	146.250	0.560	-0.500	2.090
2020/01/31 12:20:59.2	146.210	0.590	-0.490	2.100
2020/01/31 12:20:59.3	146.170	0.610	-0.470	2.110
2020/01/31 12:20:59.4	146.130	0.620	-0.450	2.110
2020/01/31 12:20:59.5	146.090	0.630	-0.430	2.100
2020/01/31 12:20:59.6	146.060	0.640	-0.400	2.090
2020/01/31 12:20:59.7	146.030	0.650	-0.370	2.080
2020/01/31 12:20:59.8	146.000	0.650	-0.330	2.060
2020/01/31 12:20:59.9	145.970	0.650	-0.300	2.040
2020/01/31 12:21:00.0	145.950	0.640	-0.260	2.010
2020/01/31 12:21:00.1	145.930	0.640	-0.220	1.980
2020/01/31 12:21:00.2	145.910	0.620	-0.190	1.950
2020/01/31 12:21:00.3	145.890	0.610	-0.150	1.910
2020/01/31 12:21:00.4	145.880	0.590	-0.110	1.870
2020/01/31 12:21:00.5	145.870	0.570	-0.080	1.830
2020/01/31 12:21:00.6	145.850	0.550	-0.050	1.780
2020/01/31 12:21:00.7	145.840	0.520	-0.020	1.740
2020/01/31 12:21:00.8	145.830	0.490	0.010	1.690
2020/01/31 12:21:00.9	145.820	0.460	0.030	1.640
2020/01/31 12:21:01.0	145.810	0.430	0.050	1.590
2020/01/31 12:21:01.1	145.800	0.400	0.070	1.540
2020/01/31 12:21:01.2	145.790	0.370	0.080	1.500
2020/01/31 12:21:01.3	145.770	0.330	0.080	1.450
2020/01/31 12:21:01.4	145.760	0.300	0.090	1.400
2020/01/31 12:21:01.5	145.730	0.270	0.080	1.360
2020/01/31 12:21:01.6	145.710	0.230	0.070	1.320
2020/01/31 12:21:01.7	145.690	0.200	0.060	1.280
2020/01/31 12:21:01.8	145.660	0.170	0.040	1.240
2020/01/31 12:21:01.9	145.640	0.140	0.020	1.210
2020/01/31 12:21:02.0	145.610	0.110	-0.010	1.180
2020/01/31 12:21:02.1	145.570	0.080	-0.040	1.160
2020/01/31 12:21:02.2	145.530	0.060	-0.080	1.140
2020/01/31 12:21:02.3	145.490	0.040	-0.120	1.120
2020/01/31 12:21:02.4	145.450	0.010	-0.160	1.110
2020/01/31 12:21:02.5	145.380	-0.000	-0.210	1.100
2020/01/31 12:21:02.6	145.320	-0.020	-0.260	1.090
2020/01/31 12:21:02.7	145.260	-0.030	-0.310	1.090
2020/01/31 12:21:02.8	145.200	-0.050	-0.360	1.100
2020/01/31 12:21:02.9	145.140	-0.060	-0.420	1.110
2020/01/31 12:21:03.0	145.070	-0.070	-0.470	1.120
2020/01/31 12:21:03.1	145.010	-0.070	-0.520	1.140
2020/01/31 12:21:03.2	144.940	-0.080	-0.580	1.160
2020/01/31 12:21:03.3	144.860	-0.090	-0.630	1.190
2020/01/31 12:21:03.4	144.790	-0.090	-0.670	1.210
2020/01/31 12:21:03.5	144.720	-0.100	-0.710	1.240
2020/01/31 12:21:03.6	144.650	-0.100	-0.750	1.270
2020/01/31 12:21:03.7	144.580	-0.110	-0.790	1.300
2020/01/31 12:21:03.8	144.510	-0.110	-0.820	1.340
2020/01/31 12:21:03.9	144.430	-0.120	-0.850	1.370
2020/01/31 12:21:04.0	144.370	-0.130	-0.870	1.400
2020/01/31 12:21:04.1	144.300	-0.140	-0.880	1.440
2020/01/31 12:21:04.2	144.230	-0.150	-0.890	1.480
2020/01/31 12:21:04.3	144.170	-0.160	-0.890	1.520
2020/01/31 12:21:04.4	144.100	-0.170	-0.880	1.560
2020/01/31 12:21:04.5	144.040	-0.190	-0.870	1.600
2020/01/31 12:21:04.6	143.980	-0.210	-0.850	1.640
2020/01/31 12:21:04.7	143.930	-0.230	-0.830	1.680
2020/01/31 12:21:04.8	143.870	-0.250	-0.800	1.730
2020/01/31 12:21:04.9	143.810	-0.270	-0.760	1.770
2020/01/31 12:21:05.0	143.760	-0.290	-0.720	1.810
2020/01/31 12:21:05.1	143.710	-0.320	-0.670	1.850
2020/01/31 12:21:05.2	143.660	-0.340	-0.620	1.900
2020/01/31 12:21:05.3	143.610	-0.370	-0.560	1.940
2020/01/31 12:21:05.4	143.560	-0.400	-0.500	1.980
2020/01/31 12:21:05.5	143.510	-0.430	-0.430	2.020
2020/01/31 12:21:05.6	143.460	-0.450	-0.370	2.060
2020/01/31 12:21:05.7	143.410	-0.480	-0.300	2.090
2020/01/31 12:21:05.8	143.360	-0.510	-0.230	2.130
2020/01/31 12:21:05.9	143.310	-0.530	-0.160	2.170
2020/01/31 12:21:06.0	143.260	-0.560	-0.090	2.200
2020/01/31 12:21:06.1	143.210	-0.580	-0.020	2.230
2020/01/31 12:21:06.2	143.160	-0.600	0.040	2.260
2020/01/31 12:21:06.3	143.110	-0.620	0.110	2.280
2020/01/31 12:21:06.4	143.050	-0.640	0.170	2.310
2020/01/31 12:21:06.5	143.000	-0.650	0.220	2.330
2020/01/31 12:21:06.6	142.940	-0.660	0.270	2.350
2020/01/31 12:21:06.7	142.890	-0.660	0.320	2.370
2020/01/31 12:21:06.8	142.830	-0.670	0.370	2.380
2020/01/31 12:21:06.9	142.770	-0.660	0.400	2.390
2020/01/31 12:21:07.0	142.710	-0.660	0.440	2.390
2020/01/31 12:21:07.1	142.650	-0.650	0.460	2.390
2020/01/31 12:21:07.2	142.590	-0.630	0.480	2.390
2020/01/31 12:21:07.3	142.530	-0.610	0.500	2.380
2020/01/31 12:21:07.4	142.460	-0.590	0.510	2.360
2020/01/31 12:21:07.5	142.390	-0.570	0.520	2.350
2020/01/31 12:21:07.6	142.330	-0.540	0.510	2.320
2020/01/31 12:21:07.7	142.270	-0.500	0.500	2.290
2020/01/31 12:21:07.8	142.220	-0.470	0.490	2.250
2020/01/31 12:21:07.9	142.160	-0.430	0.470	2.210
2020/01/31 12:21:08.0	142.100	-0.380	0.450	2.170
2020/01/31 12:21:08.1	142.050	-0.340	0.420	2.120
2020/01/31 12:21:08.2	142.000	-0.290	0.390	2.060
2020/01/31 12:21:08.3	141.950	-0.250	0.360	2.000
2020/01/31 12:21:08.4	141.900	-0.200	0.320	1.940
2020/01/31 12:21:08.5	141.860	-0.150	0.290	1.870
2020/01/31 12:21:08.6	141.820	-0.100	0.240	1.790
2020/01/31 12:21:08.7	141.780	-0.050	0.200	1.720
2020/01/31 12:21:08.8	141.740	-0.000	0.160	1.640
2020/01/31 12:21:08.9	141.700	0.040	0.120	1.570
2020/01/31 12:21:09.0	141.660	0.090	0.070	1.490
2020/01/31 12:21:09.1	141.620	0.140	0.030	1.410
2020/01/31 12:21:09.2	141.590	0.180	-0.010	1.330
2020/01/31 12:21:09.3	141.550	0.220	-0.050	1.240
2020/01/31 12:21:09.4	141.510	0.260	-0.090	1.160
2020/01/31 12:21:09.5	141.490	0.290	-0.130	1.080
2020/01/31 12:21:09.6	141.460	0.320	-0.160	1.010
2020/01/31 12:21:09.7	141.420	0.350	-0.200	0.930
2020/01/31 12:21:09.8	141.390	0.380	-0.230	0.850
2020/01/31 12:21:09.9	141.350	0.400	-0.260	0.780
2020/01/31 12:21:10.0	141.320	0.420	-0.280	0.710
2020/01/31 12:21:10.1	141.280	0.430	-0.310	0.640
2020/01/31 12:21:10.2	141.240	0.440	-0.330	0.580
2020/01/31 12:21:10.3	141.210	0.450	-0.350	0.520
2020/01/31 12:21:10.4	141.170	0.460	-0.360	0.460
2020/01/31 12:21:10.5	141.130	0.460	-0.380	0.410
2020/01/31 12:21:10.6	141.090	0.460	-0.380	0.360
2020/01/31 12:21:10.7	141.050	0.450	-0.390	0.310
2020/01/31 12:21:10.8	141.000	0.450	-0.390	0.270
2020/01/31 12:21:10.9	140.950	0.440	-0.400	0.230
2020/01/31 12:21:11.0	140.900	0.420	-0.400	0.200
2020/01/31 12:21:11.1	140.850	0.410	-0.390	0.170
2020/01/31 12:21:11.2	140.800	0.400	-0.390	0.140
2020/01/31 12:21:11.3	140.750	0.380	-0.380	0.120
2020/01/31 12:21:11.4	140.690	0.360	-0.370	0.100
2020/01/31 12:21:11.5	140.630	0.340	-0.360	0.090
2020/01/31 12:21:11.6	140.570	0.320	-0.350	0.080
2020/01/31 12:21:11.7	140.510	0.300	-0.340	0.070
2020/01/31 12:21:11.8	140.450	0.280	-0.330	0.070
2020/01/31 12:21:11.9	140.380	0.260	-0.320	0.070
2020/01/31 12:21:12.0	140.320	0.240	-0.310	0.070
2020/01/31 12:21:12.1	140.250	0.220	-0.300	0.070
2020/01/31 12:21:12.2	140.180	0.200	-0.280	0.080
2020/01/31 12:21:12.3	140.110	0.180	-0.270	0.090
2020/01/31 12:21:12.4	140.050	0.160	-0.260	0.100
2020/01/31 12:21:12.5	139.980	0.140	-0.250	0.120
2020/01/31 12:21:12.6	139.910	0.130	-0.230	0.130
2020/01/31 12:21:12.7	139.840	0.110	-0.220	0.150
2020/01/31 12:21:12.8	139.770	0.090	-0.210	0.170
2020/01/31 12:21:12.9	139.700	0.080	-0.190	0.190
2020/01/31 12:21:13.0	139.630	0.070	-0.180	0.210
2020/01/31 12:21:13.1	139.550	0.050	-0.160	0.230
2020/01/31 12:21:13.2	139.480	0.040	-0.140	0.260
2020/01/31 12:21:13.3	139.410	0.030	-0.130	0.290
2020/01/31 12:21:13.4	139.340	0.020	-0.110	0.310
2020/01/31 12:21:13.5	139.280	0.010	-0.080	0.340
2020/01/31 12:21:13.6	139.210	0.000	-0.060	0.380
2020/01/31 12:21:13.7	139.140	-0.010	-0.040	0.410
2020/01/31 12:21:13.8	139.070	-0.010	-0.020	0.450
2020/01/31 12:21:13.9	139.010	-0.020	-0.000	0.490
2020/01/31 12:21:14.0	138.940	-0.020	0.020	0.530
2020/01/31 12:21:14.1	138.880	-0.030	0.040	0.570
2020/01/31 12:21:14.2	138.820	-0.030	0.050	0.610
2020/01/31 12:21:14.3	138.750	-0.030	0.070	0.660
2020/01/31 12:21:14.4	138.690	-0.040	0.090	0.710
2020/01/31 12:21:14.5	138.640	-0.040	0.110	0.760
2020/01/31 12:21:14.6	138.580	-0.040	0.120	0.810
2020/01/31 12:21:14.7	138.520	-0.040	0.130	0.870
2020/01/31 12:21:14.8	138.460	-0.040	0.140	0.920
2020/01/31 12:21:14.9	138.400	-0.040	0.150	0.980
2020/01/31 12:21:15.0	138.340	-0.030	0.160	1.040
2020/01/31 12:21:15.1	138.280	-0.030	0.160	1.100
2020/01/31 12:21:15.2	138.220	-0.030	0.160	1.160
2020/01/31 12:21:15.3	138.170	-0.020	0.150	1.220
2020/01/31 12:21:15.4	138.110	-0.020	0.140	1.280
2020/01/31 12:21:15.5	138.040	-0.010	0.130	1.350
2020/01/31 12:21:15.6	137.980	-0.000	0.120	1.410
2020/01/31 12:21:15.7	137.920	0.010	0.100	1.480
2020/01/31 12:21:15.8	137.860	0.020	0.070	1.540
2020/01/31 12:21:15.9	137.790	0.030	0.040	1.610
2020/01/31 12:21:16.0	137.730	0.040	0.010	1.670
2020/01/31 12:21:16.1	137.660	0.050	-0.020	1.740
2020/01/31 12:21:16.2	137.590	0.060	-0.060	1.800
2020/01/31 12:21:16.3	137.520	0.070	-0.100	1.870
2020/01/31 12:21:16.4	137.440	0.090	-0.150	1.930
2020/01/31 12:21:16.5	137.370	0.100	-0.190	1.990
2020/01/31 12:21:16.6	137.300	0.120	-0.240	2.050
2020/01/31 12:21:16.7	137.220	0.130	-0.290	2.110
2020/01/31 12:21:16.8	137.140	0.150	-0.340	2.170
2020/01/31 12:21:16.9	137.060	0.170	-0.390	2.220
2020/01/31 12:21:17.0	136.980	0.180	-0.450	2.270
2020/01/31 12:21:17.1	136.900	0.200	-0.500	2.320
2020/01/31 12:21:17.2	136.820	0.210	-0.540	2.360
2020/01/31 12:21:17.3	136.740	0.230	-0.590	2.400
2020/01/31 12:21:17.4	136.660	0.240	-0.630	2.440
2020/01/31 12:21:17.5	136.580	0.250	-0.670	2.460
2020/01/31 12:21:17.6	136.500	0.260	-0.700	2.490
2020/01/31 12:21:17.7	136.420	0.270	-0.730	2.520
2020/01/31 12:21:17.8	136.350	0.280	-0.760	2.540
2020/01/31 12:21:17.9	136.270	0.280	-0.780	2.560
2020/01/31 12:21:18.0	136.190	0.280	-0.790	2.580
2020/01/31 12:21:18.1	136.120	0.290	-0.800	2.590
2020/01/31 12:21:18.2	136.040	0.290	-0.800	2.600
2020/01/31 12:21:18.3	135.970	0.280	-0.800	2.610
2020/01/31 12:21:18.4	135.900	0.280	-0.790	2.610
2020/01/31 12:21:18.5	135.830	0.270	-0.780	2.610
2020/01/31 12:21:18.6	135.760	0.260	-0.760	2.620
2020/01/31 12:21:18.7	135.690	0.250	-0.740	2.610
2020/01/31 12:21:18.8	135.610	0.240	-0.710	2.610
2020/01/31 12:21:18.9	135.540	0.220	-0.680	2.610
2020/01/31 12:21:19.0	135.470	0.200	-0.650	2.600
2020/01/31 12:21:19.1	135.390	0.180	-0.610	2.600
2020/01/31 12:21:19.2	135.320	0.160	-0.570	2.590
2020/01/31 12:21:19.3	135.240	0.140	-0.530	2.580
2020/01/31 12:21:19.4	135.160	0.110	-0.490	2.580
2020/01/31 12:21:19.5	135.100	0.080	-0.440	2.570
2020/01/31 12:21:19.6	135.020	0.060	-0.400	2.560
2020/01/31 12:21:19.7	134.940	0.030	-0.360	2.550
2020/01/31 12:21:19.8	134.860	-0.000	-0.310	2.540
2020/01/31 12:21:19.9	134.780	-0.030	-0.270	2.530
2020/01/31 12:21:20.0	134.700	-0.060	-0.220	2.530
2020/01/31 12:21:20.1	134.630	-0.100	-0.180	2.520
2020/01/31 12:21:20.2	134.550	-0.130	-0.140	2.500
2020/01/31 12:21:20.3	134.470	-0.160	-0.100	2.490
2020/01/31 12:21:20.4	134.390	-0.190	-0.060	2.480
2020/01/31 12:21:20.5	134.340	-0.230	-0.030	2.460
2020/01/31 12:21:20.6	134.260	-0.260	0.010	2.450
2020/01/31 12:21:20.7	134.190	-0.290	0.040	2.430
2020/01/31 12:21:20.8	134.120	-0.320	0.070	2.400
2020/01/31 12:21:20.9	134.040	-0.350	0.100	2.380
2020/01/31 12:21:21.0	133.970	-0.380	0.130	2.350
2020/01/31 12:21:21.1	133.900	-0.410	0.150	2.320
2020/01/31 12:21:21.2	133.830	-0.440	0.170	2.290
2020/01/31 12:21:21.3	133.760	-0.460	0.190	2.260
2020/01/31 12:21:21.4	133.700	-0.480	0.210	2.220
2020/01/31 12:21:21.5	133.650	-0.510	0.230	2.180
2020/01/31 12:21:21.6	133.580	-0.530	0.240	2.140
2020/01/31 12:21:21.7	133.510	-0.540	0.260	2.090
2020/01/31 12:21:21.8	133.450	-0.560	0.270	2.050
2020/01/31 12:21:21.9	133.380	-0.570	0.270	2.000
2020/01/31 12:21:22.0	133.320	-0.580	0.280	1.950
2020/01/31 12:21:22.1	133.260	-0.590	0.290	1.900
2020/01/31 12:21:22.2	133.190	-0.600	0.290	1.840
2020/01/31 12:21:22.3	133.130	-0.600	0.290	1.790
2020/01/31 12:21:22.4	133.070	-0.610	0.290	1.730
2020/01/31 12:21:22.5	133.010	-0.600	0.280	1.670
2020/01/31 12:21:22.6	132.940	-0.600	0.280	1.610
2020/01/31 12:21:22.7	132.880	-0.590	0.280	1.550
2020/01/31 12:21:22.8	132.820	-0.590	0.270	1.480
2020/01/31 12:21:22.9	132.760	-0.570	0.270	1.420
2020/01/31 12:21:23.0	132.700	-0.560	0.260	1.360
2020/01/31 12:21:23.1	132.630	-0.540	0.250	1.300
2020/01/31 12:21:23.2	132.570	-0.530	0.240	1.240
2020/01/31 12:21:23.3	132.510	-0.510	0.230	1.170
2020/01/31 12:21:23.4	132.440	-0.480	0.210	1.110
2020/01/31 12:21:23.5	132.360	-0.460	0.200	1.050
2020/01/31 12:21:23.6	132.300	-0.430	0.190	0.990
2020/01/31 12:21:23.7	132.230	-0.410	0.170	0.930
2020/01/31 12:21:23.8	132.170	-0.380	0.150	0.870
2020/01/31 12:21:23.9	132.100	-0.350	0.130	0.820
2020/01/31 12:21:24.0	132.040	-0.310	0.110	0.760
2020/01/31 12:21:24.1	131.970	-0.280	0.090	0.710
2020/01/31 12:21:24.2	131.900	-0.250	0.060	0.650
2020/01/31 12:21:24.3	131.830	-0.210	0.040	0.600
2020/01/31 12:21:24.4	131.760	-0.170	0.010	0.550
2020/01/31 12:21:24.5	131.690	-0.140	-0.010	0.500
2020/01/31 12:21:24.6	131.620	-0.100	-0.040	0.460
2020/01/31 12:21:24.7	131.540	-0.060	-0.070	0.410
2020/01/31 12:21:24.8	131.470	-0.030	-0.090	0.370
2020/01/31 12:21:24.9	131.400	0.010	-0.120	0.330
2020/01/31 12:21:25.0	131.320	0.050	-0.150	0.300
2020/01/31 12:21:25.1	131.250	0.080	-0.170	0.260
2020/01/31 12:21:25.2	131.170	0.120	-0.200	0.230
2020/01/31 12:21:25.3	131.090	0.150	-0.220	0.200
2020/01/31 12:21:25.4	131.010	0.190	-0.250	0.170
2020/01/31 12:21:25.5	130.910	0.220	-0.270	0.140
2020/01/31 12:21:25.6	130.830	0.250	-0.290	0.120
2020/01/31 12:21:25.7	130.750	0.280	-0.310	0.090
2020/01/31 12:21:25.8	130.670	0.310	-0.330	0.070
2020/01/31 12:21:25.9	130.590	0.340	-0.350	0.050
2020/01/31 12:21:26.0	130.500	0.360	-0.360	0.040
2020/01/31 12:21:26.1	130.420	0.390	-0.370	0.020
2020/01/31 12:21:26.2	130.340	0.410	-0.390	0.010
2020/01/31 12:21:26.3	130.250	0.430	-0.400	-0.000
2020/01/31 12:21:26.4	130.170	0.440	-0.400	-0.010
2020/01/31 12:21:26.5	130.080	0.460	-0.400	-0.020
2020/01/31 12:21:26.6	129.990	0.470	-0.410	-0.030
2020/01/31 12:21:26.7	129.910	0.490	-0.410	-0.030
2020/01/31 12:21:26.8	129.820	0.490	-0.420	-0.040
2020/01/31 12:21:26.9	129.730	0.500	-0.420	-0.040
2020/01/31 12:21:27.0	129.640	0.510	-0.420	-0.040
2020/01/31 12:21:27.1	129.560	0.510	-0.420	-0.040
2020/01/31 12:21:27.2	129.470	0.510	-0.420	-0.040
2020/01/31 12:21:27.3	129.380	0.510	-0.420	-0.030
2020/01/31 12:21:27.4	129.290	0.510	-0.420	-0.020
2020/01/31 12:21:27.5	129.190	0.510	-0.420	-0.020
2020/01/31 12:21:27.6	129.100	0.500	-0.420	-0.000
2020/01/31 12:21:27.7	129.010	0.490	-0.420	0.010
2020/01/31 12:21:27.8	128.920	0.480	-0.420	0.020
2020/01/31 12:21:27.9	128.840	0.470	-0.420	0.040
2020/01/31 12:21:28.0	128.750	0.460	-0.410	0.060
2020/01/31 12:21:28.1	128.660	0.440	-0.410	0.080
2020/01/31 12:21:28.2	128.570	0.430	-0.410	0.100
2020/01/31 12:21:28.3	128.480	0.410	-0.400	0.120
2020/01/31 12:21:28.4	128.390	0.390	-0.400	0.150
2020/01/31 12:21:28.5	128.310	0.370	-0.390	0.180
2020/01/31 12:21:28.6	128.220	0.350	-0.380	0.220
2020/01/31 12:21:28.7	128.130	0.330	-0.380	0.250
2020/01/31 12:21:28.8	128.050	0.300	-0.370	0.290
2020/01/31 12:21:28.9	127.970	0.280	-0.360	0.330
2020/01/31 12:21:29.0	127.880	0.250	-0.350	0.370
2020/01/31 12:21:29.1	127.800	0.220	-0.340	0.410
2020/01/31 12:21:29.2	127.720	0.200	-0.330	0.460
2020/01/31 12:21:29.3	127.650	0.170	-0.320	0.510
2020/01/31 12:21:29.4	127.570	0.140	-0.300	0.560
2020/01/31 12:21:29.5	127.510	0.110	-0.290	0.610
2020/01/31 12:21:29.6	127.440	0.080	-0.270	0.670
2020/01/31 12:21:29.7	127.360	0.050	-0.260	0.720
2020/01/31 12:21:29.8	127.290	0.020	-0.240	0.780
2020/01/31 12:21:29.9	127.220	-0.010	-0.220	0.840
2020/01/31 12:21:30.0	127.150	-0.040	-0.200	0.910
2020/01/31 12:21:30.1	127.080	-0.070	-0.180	0.970
2020/01/31 12:21:30.2	127.010	-0.090	-0.160	1.040
2020/01/31 12:21:30.3	126.940	-0.120	-0.130	1.110
2020/01/31 12:21:30.4	126.870	-0.150	-0.110	1.180
2020/01/31 12:21:30.5	126.800	-0.180	-0.080	1.250
2020/01/31 12:21:30.6	126.740	-0.200	-0.060	1.320
2020/01/31 12:21:30.7	126.670	-0.230	-0.030	1.390
2020/01/31 12:21:30.8	126.600	-0.250	-0.000	1.470
2020/01/31 12:21:30.9	126.530	-0.280	0.020	1.540
2020/01/31 12:21:31.0	126.470	-0.300	0.050	1.610
2020/01/31 12:21:31.1	126.400	-0.320	0.070	1.680
2020/01/31 12:21:31.2	126.330	-0.340	0.100	1.750
2020/01/31 12:21:31.3	126.260	-0.360	0.120	1.810
2020/01/31 12:21:31.4	126.200	-0.370	0.140	1.880
2020/01/31 12:21:31.5	126.130	-0.390	0.170	1.940
2020/01/31 12:21:31.6	126.060	-0.400	0.190	2.000
2020/01/31 12:21:31.7	125.990	-0.410	0.200	2.070
2020/01/31 12:21:31.8	125.920	-0.420	0.220	2.120
2020/01/31 12:21:31.9	125.850	-0.430	0.230	2.180
2020/01/31 12:21:32.0	125.780	-0.430	0.240	2.240
2020/01/31 12:21:32.1	125.700	-0.430	0.240	2.290
2020/01/31 12:21:32.2	125.630	-0.430	0.240	2.340
2020/01/31 12:21:32.3	125.550	-0.430	0.230	2.380
2020/01/31 12:21:32.4	125.470	-0.420	0.220	2.430
2020/01/31 12:21:32.5	125.400	-0.420	0.210	2.470
2020/01/31 12:21:32.6	125.320	-0.400	0.190	2.510
2020/01/31 12:21:32.7	125.230	-0.390	0.170	2.550
2020/01/31 12:21:32.8	125.140	-0.370	0.140	2.580
2020/01/31 12:21:32.9	125.050	-0.350	0.110	2.610
2020/01/31 12:21:33.0	124.960	-0.330	0.080	2.640
2020/01/31 12:21:33.1	124.860	-0.310	0.040	2.670
2020/01/31 12:21:33.2	124.770	-0.280	-0.010	2.690
2020/01/31 12:21:33.3	124.670	-0.250	-0.050	2.710
2020/01/31 12:21:33.4	124.560	-0.210	-0.100	2.730
2020/01/31 12:21:33.5	124.450	-0.180	-0.150	2.740
2020/01/31 12:21:33.6	124.340	-0.140	-0.210	2.760
2020/01/31 12:21:33.7	124.230	-0.100	-0.260	2.770
2020/01/31 12:21:33.8	124.120	-0.060	-0.320	2.770
2020/01/31 12:21:33.9	124.010	-0.010	-0.370	2.780
2020/01/31 12:21:34.0	123.900	0.030	-0.420	2.770
2020/01/31 12:21:34.1	123.790	0.080	-0.480	2.770
2020/01/31 12:21:34.2	123.680	0.120	-0.530	2.760
2020/01/31 12:21:34.3	123.560	0.170	-0.570	2.750
2020/01/31 12:21:34.4	123.450	0.210	-0.620	2.730
2020/01/31 12:21:34.5	123.350	0.250	-0.660	2.710
2020/01/31 12:21:34.6	123.240	0.300	-0.700	2.690
2020/01/31 12:21:34.7	123.130	0.340	-0.730	2.660
2020/01/31 12:21:34.8	123.020	0.370	-0.750	2.620
2020/01/31 12:21:34.9	122.920	0.410	-0.770	2.590
2020/01/31 12:21:35.0	122.820	0.440	-0.790	2.540
2020/01/31 12:21:35.1	122.720	0.470	-0.800	2.500
2020/01/31 12:21:35.2	122.630	0.500	-0.800	2.440
2020/01/31 12:21:35.3	122.540	0.520	-0.800	2.390
2020/01/31 12:21:35.4	122.450	0.530	-0.790	2.330
2020/01/31 12:21:35.5	122.370	0.550	-0.770	2.260
2020/01/31 12:21:35.6	122.290	0.560	-0.740	2.190
2020/01/31 12:21:35.7	122.210	0.560	-0.720	2.120
2020/01/31 12:21:35.8	122.140	0.560	-0.680	2.050
2020/01/31 12:21:35.9	122.070	0.550	-0.640	1.970
2020/01/31 12:21:36.0	122.000	0.540	-0.600	1.890
2020/01/31 12:21:36.1	121.940	0.530	-0.550	1.810
2020/01/31 12:21:36.2	121.880	0.510	-0.490	1.730
2020/01/31 12:21:36.3	121.820	0.480	-0.440	1.640
2020/01/31 12:21:36.4	121.770	0.450	-0.370	1.560
2020/01/31 12:21:36.5	121.720	0.420	-0.310	1.470
2020/01/31 12:21:36.6	121.670	0.380	-0.240	1.380
2020/01/31 12:21:36.7	121.620	0.340	-0.180	1.290
2020/01/31 12:21:36.8	121.570	0.300	-0.110	1.210
2020/01/31 12:21:36.9	121.530	0.260	-0.050	1.120
2020/01/31 12:21:37.0	121.490	0.210	0.020	1.030
2020/01/31 12:21:37.1	121.440	0.160	0.080	0.950
2020/01/31 12:21:37.2	121.400	0.110	0.150	0.860
2020/01/31 12:21:37.3	121.360	0.060	0.210	0.780
2020/01/31 12:21:37.4	121.320	0.000	0.270	0.690
2020/01/31 12:21:37.5	121.270	-0.050	0.320	0.620
2020/01/31 12:21:37.6	121.230	-0.100	0.370	0.530
2020/01/31 12:21:37.7	121.200	-0.150	0.420	0.450
2020/01/31 12:21:37.8	121.160	-0.200	0.460	0.380
2020/01/31 12:21:37.9	121.120	-0.250	0.500	0.300
2020/01/31 12:21:38.0	121.080	-0.300	0.530	0.220
2020/01/31 12:21:38.1	121.050	-0.340	0.560	0.150
2020/01/31 12:21:38.2	121.010	-0.380	0.580	0.080
2020/01/31 12:21:38.3	120.970	-0.420	0.600	0.010
2020/01/31 12:21:38.4	120.930	-0.460	0.610	-0.060
2020/01/31 12:21:38.5	120.870	-0.490	0.620	-0.130
2020/01/31 12:21:38.6	120.830	-0.520	0.620	-0.190
2020/01/31 12:21:38.7	120.790	-0.540	0.620	-0.250
2020/01/31 12:21:38.8	120.740	-0.570	0.600	-0.310
2020/01/31 12:21:38.9	120.690	-0.580	0.590	-0.360
2020/01/31 12:21:39.0	120.640	-0.600	0.570	-0.410
2020/01/31 12:21:39.1	120.590	-0.610	0.540	-0.460
2020/01/31 12:21:39.2	120.530	-0.610	0.510	-0.500
2020/01/31 12:21:39.3	120.470	-0.610	0.470	-0.540
2020/01/31 12:21:39.4	120.410	-0.610	0.430	-0.570
2020/01/31 12:21:39.5	120.340	-0.600	0.390	-0.600
2020/01/31 12:21:39.6	120.270	-0.590	0.340	-0.620
2020/01/31 12:21:39.7	120.190	-0.580	0.290	-0.640
2020/01/31 12:21:39.8	120.110	-0.560	0.240	-0.650
2020/01/31 12:21:39.9	120.030	-0.540	0.180	-0.660
2020/01/31 12:21:40.0	119.950	-0.510	0.120	-0.660
2020/01/31 12:21:40.1	119.860	-0.490	0.060	-0.660
2020/01/31 12:21:40.2	119.770	-0.460	0.000	-0.650
2020/01/31 12:21:40.3	119.680	-0.430	-0.050	-0.630
2020/01/31 12:21:40.4	119.580	-0.400	-0.110	-0.610
2020/01/31 12:21:40.5	119.490	-0.370	-0.170	-0.590
2020/01/31 12:21:40.6	119.390	-0.330	-0.230	-0.560
2020/01/31 12:21:40.7	119.290	-0.300	-0.280	-0.520
2020/01/31 12:21:40.8	119.190	-0.260	-0.340	-0.490
2020/01/31 12:21:40.9	119.080	-0.230	-0.390	-0.450
2020/01/31 12:21:41.0	118.980	-0.190	-0.440	-0.400
2020/01/31 12:21:41.1	118.880	-0.160	-0.490	-0.360
2020/01/31 12:21:41.2	118.780	-0.120	-0.530	-0.310
2020/01/31 12:21:41.3	118.680	-0.090	-0.570	-0.260
2020/01/31 12:21:41.4	118.580	-0.060	-0.610	-0.210
2020/01/31 12:21:41.5	118.450	-0.030	-0.640	-0.150
2020/01/31 12:21:41.6	118.360	0.000	-0.670	-0.100
2020/01/31 12:21:41.7	118.260	0.030	-0.690	-0.050
2020/01/31 12:21:41.8	118.170	0.060	-0.710	0.000
2020/01/31 12:21:41.9	118.080	0.080	-0.730	0.060
2020/01/31 12:21:42.0	117.990	0.110	-0.740	0.110
2020/01/31 12:21:42.1	117.900	0.130	-0.750	0.160
2020/01/31 12:21:42.2	117.820	0.150	-0.760	0.210
2020/01/31 12:21:42.3	117.730	0.170	-0.760	0.250
2020/01/31 12:21:42.4	117.650	0.190	-0.760	0.300
2020/01/31 12:21:42.5	117.600	0.200	-0.750	0.340
2020/01/31 12:21:42.6	117.530	0.220	-0.750	0.380
2020/01/31 12:21:42.7	117.460	0.230	-0.740	0.420
2020/01/31 12:21:42.8	117.390	0.240	-0.720	0.460
2020/01/31 12:21:42.9	117.320	0.250	-0.710	0.490
2020/01/31 12:21:43.0	117.260	0.260	-0.690	0.530
2020/01/31 12:21:43.1	117.200	0.260	-0.670	0.560
2020/01/31 12:21:43.2	117.140	0.270	-0.650	0.590
2020/01/31 12:21:43.3	117.090	0.270	-0.620	0.610
2020/01/31 12:21:43.4	117.040	0.280	-0.590	0.640
2020/01/31 12:21:43.5	117.000	0.280	-0.570	0.670
2020/01/31 12:21:43.6	116.950	0.280	-0.540	0.690
2020/01/31 12:21:43.7	116.900	0.280	-0.510	0.710
2020/01/31 12:21:43.8	116.860	0.280	-0.470	0.720
2020/01/31 12:21:43.9	116.820	0.280	-0.440	0.740
2020/01/31 12:21:44.0	116.780	0.270	-0.410	0.750
2020/01/31 12:21:44.1	116.740	0.270	-0.370	0.770
2020/01/31 12:21:44.2	116.710	0.270	-0.340	0.780
2020/01/31 12:21:44.3	116.670	0.260	-0.310	0.790
2020/01/31 12:21:44.4	116.630	0.260	-0.270	0.800
2020/01/31 12:21:44.5	116.610	0.250	-0.240	0.810
2020/01/31 12:21:44.6	116.570	0.240	-0.200	0.820
2020/01/31 12:21:44.7	116.540	0.240	-0.170	0.830
2020/01/31 12:21:44.8	116.510	0.230	-0.140	0.840
2020/01/31 12:21:44.9	116.470	0.230	-0.110	0.840
2020/01/31 12:21:45.0	116.440	0.220	-0.080	0.850
2020/01/31 12:21:45.1	116.410	0.210	-0.050	0.850
2020/01/31 12:21:45.2	116.370	0.200	-0.020	0.860
2020/01/31 12:21:45.3	116.340	0.200	0.000	0.860
2020/01/31 12:21:45.4	116.300	0.190	0.030	0.860
2020/01/31 12:21:45.5	116.260	0.180	0.050	0.870
2020/01/31 12:21:45.6	116.220	0.170	0.070	0.870
2020/01/31 12:21:45.7	116.190	0.170	0.090	0.870
2020/01/31 12:21:45.8	116.150	0.160	0.110	0.870
2020/01/31 12:21:45.9	116.110	0.150	0.130	0.870
2020/01/31 12:21:46.0	116.070	0.140	0.140	0.880
2020/01/31 12:21:46.1	116.030	0.140	0.150	0.880
2020/01/31 12:21:46.2	115.990	0.130	0.170	0.880
2020/01/31 12:21:46.3	115.950	0.120	0.180	0.880
2020/01/31 12:21:46.4	115.900	0.110	0.180	0.880
2020/01/31 12:21:46.5	115.860	0.110	0.190	0.890
2020/01/31 12:21:46.6	115.820	0.100	0.200	0.890
2020/01/31 12:21:46.7	115.770	0.090	0.200	0.890
2020/01/31 12:21:46.8	115.720	0.080	0.200	0.900
2020/01/31 12:21:46.9	115.670	0.070	0.200	0.910
2020/01/31 12:21:47.0	115.620	0.060	0.190	0.910
2020/01/31 12:21:47.1	115.570	0.060	0.190	0.920
2020/01/31 12:21:47.2	115.520	0.050	0.180	0.930
2020/01/31 12:21:47.3	115.460	0.040	0.170	0.940
2020/01/31 12:21:47.4	115.410	0.030	0.160	0.960
2020/01/31 12:21:47.5	115.360	0.020	0.140	0.970
2020/01/31 12:21:47.6	115.310	0.010	0.130	0.990
2020/01/31 12:21:47.7	115.250	-0.000	0.110	1.000
2020/01/31 12:21:47.8	115.190	-0.010	0.090	1.020
2020/01/31 12:21:47.9	115.130	-0.020	0.070	1.040
2020/01/31 12:21:48.0	115.070	-0.030	0.050	1.060
2020/01/31 12:21:48.1	115.010	-0.040	0.030	1.080
2020/01/31 12:21:48.2	114.950	-0.050	0.000	1.100
2020/01/31 12:21:48.3	114.890	-0.060	-0.020	1.120
2020/01/31 12:21:48.4	114.830	-0.070	-0.050	1.140
2020/01/31 12:21:48.5	114.760	-0.080	-0.070	1.160
2020/01/31 12:21:48.6	114.700	-0.080	-0.100	1.180
2020/01/31 12:21:48.7	114.640	-0.090	-0.130	1.200
2020/01/31 12:21:48.8	114.580	-0.100	-0.160	1.220
2020/01/31 12:21:48.9	114.520	-0.100	-0.190	1.230
2020/01/31 12:21:49.0	114.460	-0.110	-0.220	1.250
2020/01/31 12:21:49.1	114.400	-0.110	-0.250	1.260
2020/01/31 12:21:49.2	114.330	-0.110	-0.280	1.280
2020/01/31 12:21:49.3	114.280	-0.120	-0.310	1.290
2020/01/31 12:21:49.4	114.220	-0.120	-0.340	1.300
2020/01/31 12:21:49.5	114.150	-0.120	-0.360	1.300
2020/01/31 12:21:49.6	114.100	-0.110	-0.390	1.310
2020/01/31 12:21:49.7	114.040	-0.110	-0.410	1.310
2020/01/31 12:21:49.8	113.980	-0.110	-0.430	1.310
2020/01/31 12:21:49.9	113.920	-0.100	-0.450	1.310
2020/01/31 12:21:50.0	113.870	-0.100	-0.470	1.310
2020/01/31 12:21:50.1	113.810	-0.090	-0.480	1.300
2020/01/31 12:21:50.2	113.760	-0.080	-0.490	1.300
2020/01/31 12:21:50.3	113.700	-0.080	-0.500	1.290
2020/01/31 12:21:50.4	113.650	-0.070	-0.500	1.280
2020/01/31 12:21:50.5	113.610	-0.060	-0.510	1.270
2020/01/31 12:21:50.6	113.560	-0.050	-0.510	1.260
2020/01/31 12:21:50.7	113.510	-0.040	-0.500	1.250
2020/01/31 12:21:50.8	113.460	-0.030	-0.500	1.230
2020/01/31 12:21:50.9	113.410	-0.020	-0.490	1.220
2020/01/31 12:21:51.0	113.370	-0.010	-0.480	1.200
2020/01/31 12:21:51.1	113.320	0.000	-0.470	1.180
2020/01/31 12:21:51.2	113.280	0.010	-0.450	1.160
2020/01/31 12:21:51.3	113.240	0.020	-0.430	1.140
2020/01/31 12:21:51.4	113.200	0.030	-0.410	1.120
2020/01/31 12:21:51.5	113.160	0.040	-0.380	1.090
2020/01/31 12:21:51.6	113.120	0.050	-0.360	1.070
2020/01/31 12:21:51.7	113.090	0.060	-0.330	1.040
2020/01/31 12:21:51.8	113.050	0.060	-0.310	1.010
2020/01/31 12:21:51.9	113.020	0.070	-0.280	0.980
2020/01/31 12:21:52.0	112.990	0.070	-0.250	0.950
2020/01/31 12:21:52.1	112.960	0.070	-0.220	0.910
2020/01/31 12:21:52.2	112.940	0.080	-0.190	0.880
2020/01/31 12:21:52.3	112.910	0.080	-0.160	0.840
2020/01/31 12:21:52.4	112.890	0.080	-0.130	0.800
2020/01/31 12:21:52.5	112.880	0.070	-0.100	0.760
2020/01/31 12:21:52.6	112.860	0.070	-0.070	0.720
2020/01/31 12:21:52.7	112.840	0.070	-0.040	0.670
2020/01/31 12:21:52.8	112.830	0.060	-0.010	0.630
2020/01/31 12:21:52.9	112.810	0.060	0.010	0.580
2020/01/31 12:21:53.0	112.790	0.050	0.040	0.530
2020/01/31 12:21:53.1	112.780	0.040	0.070	0.490
2020/01/31 12:21:53.2	112.770	0.040	0.090	0.440
2020/01/31 12:21:53.3	112.750	0.030	0.120	0.390
2020/01/31 12:21:53.4	112.740	0.020	0.140	0.350
2020/01/31 12:21:53.5	112.730	0.010	0.160	0.300
2020/01/31 12:21:53.6	112.710	-0.000	0.180	0.260
2020/01/31 12:21:53.7	112.700	-0.010	0.200	0.210
2020/01/31 12:21:53.8	112.680	-0.020	0.220	0.170
2020/01/31 12:21:53.9	112.670	-0.030	0.230	0.130
2020/01/31 12:21:54.0	112.650	-0.040	0.240	0.090
2020/01/31 12:21:54.1	112.630	-0.050	0.260	0.050
2020/01/31 12:21:54.2	112.610	-0.060	0.270	0.010
2020/01/31 12:21:54.3	112.590	-0.070	0.280	-0.020
2020/01/31 12:21:54.4	112.560	-0.080	0.280	-0.050
2020/01/31 12:21:54.5	112.540	-0.080	0.290	-0.090
2020/01/31 12:21:54.6	112.520	-0.090	0.290	-0.120
2020/01/31 12:21:54.7	112.490	-0.100	0.290	-0.140
2020/01/31 12:21:54.8	112.470	-0.100	0.290	-0.160
2020/01/31 12:21:54.9	112.440	-0.100	0.290	-0.190
2020/01/31 12:21:55.0	112.410	-0.110	0.290	-0.200
2020/01/31 12:21:55.1	112.390	-0.110	0.280	-0.220
2020/01/31 12:21:55.2	112.360	-0.110	0.280	-0.240
2020/01/31 12:21:55.3	112.330	-0.110	0.270	-0.250
2020/01/31 12:21:55.4	112.300	-0.110	0.250	-0.260
2020/01/31 12:21:55.5	112.290	-0.110	0.240	-0.270
2020/01/31 12:21:55.6	112.270	-0.100	0.230	-0.270
2020/01/31 12:21:55.7	112.240	-0.100	0.210	-0.270
2020/01/31 12:21:55.8	112.210	-0.090	0.190	-0.270
2020/01/31 12:21:55.9	112.190	-0.090	0.170	-0.260
2020/01/31 12:21:56.0	112.160	-0.080	0.140	-0.260
2020/01/31 12:21:56.1	112.140	-0.080	0.110	-0.250
2020/01/31 12:21:56.2	112.110	-0.070	0.080	-0.240
2020/01/31 12:21:56.3	112.090	-0.060	0.050	-0.220
2020/01/31 12:21:56.4	112.070	-0.050	0.020	-0.200
2020/01/31 12:21:56.5	112.060	-0.040	-0.020	-0.180
2020/01/31 12:21:56.6	112.040	-0.030	-0.060	-0.160
2020/01/31 12:21:56.7	112.020	-0.020	-0.100	-0.130
2020/01/31 12:21:56.8	112.010	-0.010	-0.140	-0.100
2020/01/31 12:21:56.9	111.990	0.000	-0.190	-0.070
2020/01/31 12:21:57.0	111.980	0.010	-0.230	-0.040
2020/01/31 12:21:57.1	111.970	0.030	-0.270	-0.010
2020/01/31 12:21:57.2	111.950	0.040	-0.320	0.030
2020/01/31 12:21:57.3	111.940	0.050	-0.360	0.070
2020/01/31 12:21:57.4	111.930	0.060	-0.410	0.110
2020/01/31 12:21:57.5	111.910	0.070	-0.450	0.150
2020/01/31 12:21:57.6	111.900	0.090	-0.500	0.200
2020/01/31 12:21:57.7	111.890	0.100	-0.540	0.240
2020/01/31 12:21:57.8	111.880	0.110	-0.580	0.290
2020/01/31 12:21:57.9	111.870	0.120	-0.620	0.340
2020/01/31 12:21:58.0	111.860	0.130	-0.660	0.390
2020/01/31 12:21:58.1	111.850	0.140	-0.700	0.440
2020/01/31 12:21:58.2	111.840	0.150	-0.730	0.480
2020/01/31 12:21:58.3	111.830	0.160	-0.770	0.530
2020/01/31 12:21:58.4	111.820	0.160	-0.790	0.580
2020/01/31 12:21:58.5	111.810	0.170	-0.820	0.630
2020/01/31 12:21:58.6	111.800	0.170	-0.840	0.680
2020/01/31 12:21:58.7	111.790	0.180	-0.850	0.730
2020/01/31 12:21:58.8	111.770	0.180	-0.870	0.780
2020/01/31 12:21:58.9	111.750	0.180	-0.870	0.830
2020/01/31 12:21:59.0	111.740	0.180	-0.880	0.880
2020/01/31 12:21:59.1	111.720	0.180	-0.880	0.930
2020/01/31 12:21:59.2	111.690	0.180	-0.870	0.980
2020/01/31 12:21:59.3	111.670	0.170	-0.870	1.020
2020/01/31 12:21:59.4	111.650	0.170	-0.850	1.070
2020/01/31 12:21:59.5	111.630	0.160	-0.830	1.120
2020/01/31 12:21:59.6	111.610	0.150	-0.810	1.170
2020/01/31 12:21:59.7	111.570	0.140	-0.780	1.220
2020/01/31 12:21:59.8	111.540	0.130	-0.750	1.270
2020/01/31 12:21:59.9	111.510	0.120	-0.720	1.320
2020/01/31 12:22:00.0	111.470	0.100	-0.680	1.370
2020/01/31 12:22:00.1	111.430	0.090	-0.640	1.420
2020/01/31 12:22:00.2	111.390	0.070	-0.600	1.470
2020/01/31 12:22:00.3	111.340	0.050	-0.550	1.520
2020/01/31 12:22:00.4	111.300	0.030	-0.500	1.570
2020/01/31 12:22:00.5	111.240	0.010	-0.450	1.620
2020/01/31 12:22:00.6	111.190	-0.010	-0.400	1.680
2020/01/31 12:22:00.7	111.140	-0.030	-0.350	1.730
2020/01/31 12:22:00.8	111.100	-0.050	-0.290	1.770
2020/01/31 12:22:00.9	111.050	-0.080	-0.240	1.820
2020/01/31 12:22:01.0	111.000	-0.100	-0.180	1.870
2020/01/31 12:22:01.1	110.950	-0.120	-0.120	1.910
2020/01/31 12:22:01.2	110.900	-0.140	-0.070	1.950
2020/01/31 12:22:01.3	110.860	-0.170	-0.010	1.980
2020/01/31 12:22:01.4	110.810	-0.190	0.040	2.020
2020/01/31 12:22:01.5	110.760	-0.210	0.090	2.050
2020/01/31 12:22:01.6	110.720	-0.230	0.140	2.070
2020/01/31 12:22:01.7	110.680	-0.240	0.190	2.090
2020/01/31 12:22:01.8	110.640	-0.260	0.230	2.110
2020/01/31 12:22:01.9	110.610	-0.270	0.270	2.120
2020/01/31 12:22:02.0	110.570	-0.290	0.310	2.120
2020/01/31 12:22:02.1	110.540	-0.300	0.340	2.120
2020/01/31 12:22:02.2	110.520	-0.310	0.370	2.120
2020/01/31 12:22:02.3	110.490	-0.310	0.400	2.110
2020/01/31 12:22:02.4	110.470	-0.320	0.420	2.090
2020/01/31 12:22:02.5	110.440	-0.320	0.440	2.070
2020/01/31 12:22:02.6	110.430	-0.320	0.450	2.040
2020/01/31 12:22:02.7	110.410	-0.310	0.460	2.010
2020/01/31 12:22:02.8	110.400	-0.310	0.460	1.970
2020/01/31 12:22:02.9	110.400	-0.300	0.460	1.930
2020/01/31 12:22:03.0	110.390	-0.290	0.450	1.880
2020/01/31 12:22:03.1	110.390	-0.280	0.440	1.830
2020/01/31 12:22:03.2	110.390	-0.260	0.430	1.770
2020/01/31 12:22:03.3	110.390	-0.240	0.410	1.710
2020/01/31 12:22:03.4	110.400	-0.220	0.390	1.650
2020/01/31 12:22:03.5	110.410	-0.200	0.360	1.580
2020/01/31 12:22:03.6	110.420	-0.180	0.330	1.510
2020/01/31 12:22:03.7	110.430	-0.150	0.300	1.430
2020/01/31 12:22:03.8	110.440	-0.120	0.260	1.350
2020/01/31 12:22:03.9	110.450	-0.100	0.230	1.270
2020/01/31 12:22:04.0	110.470	-0.070	0.190	1.180
2020/01/31 12:22:04.1	110.480	-0.040	0.150	1.100
2020/01/31 12:22:04.2	110.490	-0.010	0.110	1.010
2020/01/31 12:22:04.3	110.510	0.020	0.070	0.920
2020/01/31 12:22:04.4	110.520	0.050	0.030	0.830
2020/01/31 12:22:04.5	110.550	0.080	-0.020	0.740
2020/01/31 12:22:04.6	110.560	0.110	-0.060	0.650
2020/01/31 12:22:04.7	110.570	0.140	-0.100	0.560
2020/01/31 12:22:04.8	110.580	0.160	-0.130	0.470
2020/01/31 12:22:04.9	110.580	0.190	-0.170	0.390
2020/01/31 12:22:05.0	110.590	0.210	-0.210	0.300
2020/01/31 12:22:05.1	110.590	0.240	-0.240	0.220
2020/01/31 12:22:05.2	110.590	0.260	-0.270	0.130
2020/01/31 12:22:05.3	110.590	0.280	-0.300	0.050
2020/01/31 12:22:05.4	110.580	0.290	-0.330	-0.020
2020/01/31 12:22:05.5	110.590	0.310	-0.350	-0.100
2020/01/31 12:22:05.6	110.580	0.320	-0.370	-0.170
2020/01/31 12:22:05.7	110.570	0.330	-0.390	-0.230
2020/01/31 12:22:05.8	110.560	0.340	-0.410	-0.300
2020/01/31 12:22:05.9	110.540	0.340	-0.420	-0.350
2020/01/31 12:22:06.0	110.520	0.350	-0.430	-0.410
2020/01/31 12:22:06.1	110.500	0.350	-0.440	-0.460
2020/01/31 12:22:06.2	110.480	0.340	-0.440	-0.500
2020/01/31 12:22:06.3	110.460	0.340	-0.440	-0.540
2020/01/31 12:22:06.4	110.430	0.330	-0.440	-0.580
2020/01/31 12:22:06.5	110.410	0.330	-0.440	-0.610
2020/01/31 12:22:06.6	110.380	0.320	-0.430	-0.630
2020/01/31 12:22:06.7	110.350	0.300	-0.420	-0.660
2020/01/31 12:22:06.8	110.320	0.290	-0.410	-0.670
2020/01/31 12:22:06.9	110.290	0.280	-0.390	-0.690
2020/01/31 12:22:07.0	110.260	0.260	-0.380	-0.690
2020/01/31 12:22:07.1	110.230	0.240	-0.360	-0.700
2020/01/31 12:22:07.2	110.190	0.220	-0.340	-0.700
2020/01/31 12:22:07.3	110.160	0.200	-0.320	-0.690
2020/01/31 12:22:07.4	110.130	0.180	-0.300	-0.690
2020/01/31 12:22:07.5	110.100	0.160	-0.280	-0.680
2020/01/31 12:22:07.6	110.060	0.140	-0.260	-0.670
2020/01/31 12:22:07.7	110.030	0.120	-0.240	-0.650
2020/01/31 12:22:07.8	110.000	0.100	-0.220	-0.630
2020/01/31 12:22:07.9	109.970	0.080	-0.200	-0.610
2020/01/31 12:22:08.0	109.940	0.060	-0.190	-0.590
2020/01/31 12:22:08.1	109.920	0.040	-0.170	-0.570
2020/01/31 12:22:08.2	109.890	0.020	-0.160	-0.540
2020/01/31 12:22:08.3	109.860	0.010	-0.150	-0.520
2020/01/31 12:22:08.4	109.830	-0.010	-0.140	-0.490
2020/01/31 12:22:08.5	109.810	-0.020	-0.130	-0.460
2020/01/31 12:22:08.6	109.790	-0.040	-0.120	-0.420
2020/01/31 12:22:08.7	109.760	-0.050	-0.110	-0.390
2020/01/31 12:22:08.8	109.740	-0.060	-0.110	-0.350
2020/01/31 12:22:08.9	109.720	-0.070	-0.110	-0.320
2020/01/31 12:22:09.0	109.700	-0.070	-0.110	-0.280
2020/01/31 12:22:09.1	109.690	-0.080	-0.110	-0.230
2020/01/31 12:22:09.2	109.670	-0.080	-0.110	-0.190
2020/01/31 12:22:09.3	109.650	-0.080	-0.120	-0.140
2020/01/31 12:22:09.4	109.640	-0.080	-0.120	-0.100
2020/01/31 12:22:09.5	109.630	-0.080	-0.130	-0.050
2020/01/31 12:22:09.6	109.620	-0.080	-0.140	0.000
2020/01/31 12:22:09.7	109.610	-0.080	-0.140	0.060
2020/01/31 12:22:09.8	109.600	-0.070	-0.150	0.110
2020/01/31 12:22:09.9	109.580	-0.070	-0.160	0.170
2020/01/31 12:22:10.0	109.570	-0.060	-0.170	0.230
2020/01/31 12:22:10.1	109.560	-0.050	-0.180	0.290
2020/01/31 12:22:10.2	109.550	-0.050	-0.190	0.360
2020/01/31 12:22:10.3	109.540	-0.040	-0.200	0.420
2020/01/31 12:22:10.4	109.530	-0.030	-0.210	0.490
2020/01/31 12:22:10.5	109.510	-0.030	-0.210	0.560
2020/01/31 12:22:10.6	109.500	-0.020	-0.220	0.630
2020/01/31 12:22:10.7	109.490	-0.010	-0.230	0.700
2020/01/31 12:22:10.8	109.480	-0.010	-0.230	0.770
2020/01/31 12:22:10.9	109.470	-0.010	-0.240	0.840
2020/01/31 12:22:11.0	109.450	-0.000	-0.240	0.910
2020/01/31 12:22:11.1	109.440	-0.000	-0.240	0.980
2020/01/31 12:22:11.2	109.430	-0.000	-0.240	1.050
2020/01/31 12:22:11.3	109.410	-0.000	-0.240	1.120
2020/01/31 12:22:11.4	109.390	-0.010	-0.240	1.190
2020/01/31 12:22:11.5	109.380	-0.010	-0.230	1.260
2020/01/31 12:22:11.6	109.370	-0.010	-0.230	1.330
2020/01/31 12:22:11.7	109.340	-0.020	-0.220	1.400
2020/01/31 12:22:11.8	109.320	-0.030	-0.210	1.470
2020/01/31 12:22:11.9	109.300	-0.030	-0.200	1.530
2020/01/31 12:22:12.0	109.270	-0.040	-0.190	1.600
2020/01/31 12:22:12.1	109.240	-0.050	-0.180	1.660
2020/01/31 12:22:12.2	109.220	-0.060	-0.170	1.720
2020/01/31 12:22:12.3	109.190	-0.070	-0.150	1.770
2020/01/31 12:22:12.4	109.160	-0.080	-0.140	1.830
2020/01/31 12:22:12.5	109.140	-0.090	-0.120	1.880
2020/01/31 12:22:12.6	109.110	-0.100	-0.110	1.920
2020/01/31 12:22:12.7	109.070	-0.110	-0.100	1.970
2020/01/31 12:22:12.8	109.040	-0.120	-0.090	2.010
2020/01/31 12:22:12.9	109.010	-0.130	-0.080	2.040
2020/01/31 12:22:13.0	108.970	-0.140	-0.070	2.080
2020/01/31 12:22:13.1	108.930	-0.140	-0.060	2.110
2020/01/31 12:22:13.2	108.900	-0.150	-0.060	2.130
2020/01/31 12:22:13.3	108.860	-0.150	-0.050	2.150
2020/01/31 12:22:13.4	108.820	-0.150	-0.050	2.170
2020/01/31 12:22:13.5	108.780	-0.150	-0.050	2.180
2020/01/31 12:22:13.6	108.740	-0.150	-0.050	2.190
2020/01/31 12:22:13.7	108.710	-0.150	-0.050	2.200
2020/01/31 12:22:13.8	108.670	-0.140	-0.060	2.200
2020/01/31 12:22:13.9	108.640	-0.130	-0.070	2.190
2020/01/31 12:22:14.0	108.600	-0.120	-0.080	2.190
2020/01/31 12:22:14.1	108.570	-0.110	-0.090	2.170
2020/01/31 12:22:14.2	108.530	-0.100	-0.100	2.160
2020/01/31 12:22:14.3	108.500	-0.080	-0.110	2.140
2020/01/31 12:22:14.4	108.470	-0.070	-0.120	2.120
2020/01/31 12:22:14.5	108.430	-0.050	-0.130	2.090
2020/01/31 12:22:14.6	108.400	-0.030	-0.150	2.070
2020/01/31 12:22:14.7	108.370	-0.020	-0.160	2.040
2020/01/31 12:22:14.8	108.350	0.000	-0.170	2.010
2020/01/31 12:22:14.9	108.320	0.020	-0.190	1.970
2020/01/31 12:22:15.0	108.300	0.040	-0.200	1.940
2020/01/31 12:22:15.1	108.280	0.060	-0.210	1.900
2020/01/31 12:22:15.2	108.260	0.080	-0.220	1.870
2020/01/31 12:22:15.3	108.240	0.090	-0.230	1.830
2020/01/31 12:22:15.4	108.220	0.110	-0.230	1.790
2020/01/31 12:22:15.5	108.220	0.130	-0.230	1.750
2020/01/31 12:22:15.6	108.200	0.140	-0.230	1.720
2020/01/31 12:22:15.7	108.190	0.150	-0.240	1.680
2020/01/31 12:22:15.8	108.170	0.160	-0.240	1.640
2020/01/31 12:22:15.9	108.160	0.170	-0.230	1.600
2020/01/31 12:22:16.0	108.140	0.180	-0.230	1.560
2020/01/31 12:22:16.1	108.130	0.190	-0.220	1.520
2020/01/31 12:22:16.2	108.110	0.190	-0.210	1.470
2020/01/31 12:22:16.3	108.100	0.190	-0.200	1.430
2020/01/31 12:22:16.4	108.080	0.190	-0.190	1.390
2020/01/31 12:22:16.5	108.060	0.190	-0.180	1.350
2020/01/31 12:22:16.6	108.040	0.180	-0.170	1.310
2020/01/31 12:22:16.7	108.020	0.180	-0.150	1.260
2020/01/31 12:22:16.8	108.000	0.170	-0.140	1.220
2020/01/31 12:22:16.9	107.980	0.160	-0.120	1.170
2020/01/31 12:22:17.0	107.960	0.150	-0.100	1.130
2020/01/31 12:22:17.1	107.930	0.130	-0.080	1.080
2020/01/31 12:22:17.2	107.910	0.120	-0.070	1.030
2020/01/31 12:22:17.3	107.880	0.100	-0.050	0.980
2020/01/31 12:22:17.4	107.850	0.080	-0.030	0.930
2020/01/31 12:22:17.5	107.810	0.070	-0.010	0.880
2020/01/31 12:22:17.6	107.780	0.050	0.000	0.830
2020/01/31 12:22:17.7	107.740	0.030	0.020	0.780
2020/01/31 12:22:17.8	107.710	0.010	0.030	0.720
2020/01/31 12:22:17.9	107.670	-0.010	0.050	0.670
2020/01/31 12:22:18.0	107.630	-0.040	0.060	0.610
2020/01/31 12:22:18.1	107.590	-0.060	0.070	0.560
2020/01/31 12:22:18.2	107.540	-0.080	0.070	0.510
2020/01/31 12:22:18.3	107.500	-0.090	0.080	0.450
2020/01/31 12:22:18.4	107.460	-0.110	0.080	0.400
2020/01/31 12:22:18.5	107.390	-0.130	0.080	0.350
2020/01/31 12:22:18.6	107.340	-0.150	0.080	0.300
2020/01/31 12:22:18.7	107.300	-0.160	0.070	0.250
2020/01/31 12:22:18.8	107.250	-0.180	0.060	0.200
2020/01/31 12:22:18.9	107.200	-0.190	0.040	0.160
2020/01/31 12:22:19.0	107.150	-0.200	0.030	0.120
2020/01/31 12:22:19.1	107.100	-0.210	0.000	0.080
2020/01/31 12:22:19.2	107.050	-0.210	-0.020	0.050
2020/01/31 12:22:19.3	106.990	-0.220	-0.050	0.020
2020/01/31 12:22:19.4	106.940	-0.220	-0.090	-0.010
2020/01/31 12:22:19.5	106.890	-0.220	-0.120	-0.040
2020/01/31 12:22:19.6	106.830	-0.210	-0.160	-0.060
2020/01/31 12:22:19.7	106.780	-0.210	-0.200	-0.070
2020/01/31 12:22:19.8	106.730	-0.200	-0.250	-0.080
2020/01/31 12:22:19.9	106.680	-0.190	-0.300	-0.080
2020/01/31 12:22:20.0	106.630	-0.170	-0.350	-0.090
2020/01/31 12:22:20.1	106.580	-0.160	-0.400	-0.080
2020/01/31 12:22:20.2	106.530	-0.140	-0.460	-0.080
2020/01/31 12:22:20.3	106.480	-0.120	-0.510	-0.070
2020/01/31 12:22:20.4	106.430	-0.100	-0.560	-0.060
2020/01/31 12:22:20.5	106.360	-0.080	-0.620	-0.040
2020/01/31 12:22:20.6	106.320	-0.050	-0.670	-0.020
2020/01/31 12:22:20.7	106.280	-0.030	-0.720	-0.010
2020/01/31 12:22:20.8	106.240	-0.000	-0.760	0.010
2020/01/31 12:22:20.9	106.200	0.020	-0.810	0.030
2020/01/31 12:22:21.0	106.160	0.050	-0.850	0.050
2020/01/31 12:22:21.1	106.130	0.080	-0.880	0.070
2020/01/31 12:22:21.2	106.090	0.100	-0.910	0.100
2020/01/31 12:22:21.3	106.060	0.130	-0.940	0.120
2020/01/31 12:22:21.4	106.030	0.150	-0.960	0.140
2020/01/31 12:22:21.5	106.000	0.180	-0.970	0.160
2020/01/31 12:22:21.6	105.980	0.200	-0.980	0.180
2020/01/31 12:22:21.7	105.950	0.220	-0.980	0.200
2020/01/31 12:22:21.8	105.930	0.240	-0.970	0.220
2020/01/31 12:22:21.9	105.910	0.250	-0.960	0.240
2020/01/31 12:22:22.0	105.890	0.260	-0.940	0.250
2020/01/31 12:22:22.1	105.870	0.280	-0.910	0.270
2020/01/31 12:22:22.2	105.850	0.280	-0.880	0.290
2020/01/31 12:22:22.3	105.830	0.290	-0.840	0.300
2020/01/31 12:22:22.4	105.820	0.290	-0.800	0.310
2020/01/31 12:22:22.5	105.790	0.290	-0.740	0.340
2020/01/31 12:22:22.6	105.780	0.280	-0.690	0.350
2020/01/31 12:22:22.7	105.760	0.280	-0.620	0.360
2020/01/31 12:22:22.8	105.750	0.270	-0.550	0.360
2020/01/31 12:22:22.9	105.730	0.250	-0.480	0.370
2020/01/31 12:22:23.0	105.720	0.230	-0.400	0.380
2020/01/31 12:22:23.1	105.710	0.210	-0.320	0.380
2020/01/31 12:22:23.2	105.700	0.190	-0.230	0.390
2020/01/31 12:22:23.3	105.680	0.160	-0.140	0.400
2020/01/31 12:22:23.4	105.670	0.140	-0.050	0.400
2020/01/31 12:22:23.5	105.650	0.110	0.050	0.400
2020/01/31 12:22:23.6	105.640	0.070	0.140	0.410
2020/01/31 12:22:23.7	105.620	0.040	0.240	0.420
2020/01/31 12:22:23.8	105.610	0.000	0.330	0.420
2020/01/31 12:22:23.9	105.600	-0.040	0.430	0.430
2020/01/31 12:22:24.0	105.590	-0.070	0.520	0.440
2020/01/31 12:22:24.1	105.580	-0.110	0.610	0.460
2020/01/31 12:22:24.2	105.560	-0.150	0.690	0.470
2020/01/31 12:22:24.3	105.550	-0.190	0.780	0.490
2020/01/31 12:22:24.4	105.540	-0.230	0.860	0.510
2020/01/31 12:22:24.5	105.520	-0.270	0.930	0.530
2020/01/31 12:22:24.6	105.500	-0.300	1.000	0.560
2020/01/31 12:22:24.7	105.480	-0.340	1.060	0.580
2020/01/31 12:22:24.8	105.460	-0.370	1.120	0.610
2020/01/31 12:22:24.9	105.440	-0.400	1.170	0.640
2020/01/31 12:22:25.0	105.420	-0.430	1.210	0.670
2020/01/31 12:22:25.1	105.400	-0.450	1.240	0.710
2020/01/31 12:22:25.2	105.370	-0.480	1.260	0.740
2020/01/31 12:22:25.3	105.340	-0.500	1.280	0.780
2020/01/31 12:22:25.4	105.310	-0.510	1.280	0.820
2020/01/31 12:22:25.5	105.290	-0.520	1.280	0.860
2020/01/31 12:22:25.6	105.260	-0.530	1.270	0.900
2020/01/31 12:22:25.7	105.230	-0.540	1.250	0.940
2020/01/31 12:22:25.8	105.190	-0.540	1.220	0.990
2020/01/31 12:22:25.9	105.160	-0.530	1.170	1.030
2020/01/31 12:22:26.0	105.120	-0.520	1.120	1.070
2020/01/31 12:22:26.1	105.080	-0.510	1.060	1.110
2020/01/31 12:22:26.2	105.040	-0.500	0.990	1.150
2020/01/31 12:22:26.3	105.000	-0.480	0.920	1.190
2020/01/31 12:22:26.4	104.960	-0.450	0.830	1.220
2020/01/31 12:22:26.5	104.920	-0.420	0.730	1.260
2020/01/31 12:22:26.6	104.890	-0.390	0.630	1.290
2020/01/31 12:22:26.7	104.850	-0.360	0.530	1.330
2020/01/31 12:22:26.8	104.810	-0.320	0.420	1.360
2020/01/31 12:22:26.9	104.770	-0.280	0.300	1.380
2020/01/31 12:22:27.0	104.730	-0.240	0.180	1.410
2020/01/31 12:22:27.1	104.690	-0.190	0.060	1.430
2020/01/31 12:22:27.2	104.650	-0.140	-0.070	1.450
2020/01/31 12:22:27.3	104.620	-0.100	-0.190	1.470
2020/01/31 12:22:27.4	104.580	-0.050	-0.320	1.490
2020/01/31 12:22:27.5	104.550	0.010	-0.450	1.500
2020/01/31 12:22:27.6	104.520	0.060	-0.580	1.510
2020/01/31 12:22:27.7	104.480	0.110	-0.700	1.530
2020/01/31 12:22:27.8	104.450	0.160	-0.820	1.530
2020/01/31 12:22:27.9	104.420	0.210	-0.940	1.540
2020/01/31 12:22:28.0	104.400	0.260	-1.050	1.550
2020/01/31 12:22:28.1	104.370	0.310	-1.160	1.550
2020/01/31 12:22:28.2	104.340	0.360	-1.260	1.550
2020/01/31 12:22:28.3	104.320	0.400	-1.360	1.550
2020/01/31 12:22:28.4	104.300	0.450	-1.450	1.550
2020/01/31 12:22:28.5	104.290	0.490	-1.520	1.550
2020/01/31 12:22:28.6	104.270	0.530	-1.590	1.550
2020/01/31 12:22:28.7	104.250	0.560	-1.660	1.540
2020/01/31 12:22:28.8	104.240	0.590	-1.710	1.530
2020/01/31 12:22:28.9	104.220	0.620	-1.750	1.520
2020/01/31 12:22:29.0	104.210	0.650	-1.790	1.510
2020/01/31 12:22:29.1	104.200	0.670	-1.810	1.500
2020/01/31 12:22:29.2	104.190	0.680	-1.820	1.490
2020/01/31 12:22:29.3	104.180	0.690	-1.830	1.480
2020/01/31 12:22:29.4	104.170	0.700	-1.820	1.470
2020/01/31 12:22:29.5	104.170	0.710	-1.800	1.450
2020/01/31 12:22:29.6	104.160	0.700	-1.770	1.440
2020/01/31 12:22:29.7	104.160	0.700	-1.730	1.430
2020/01/31 12:22:29.8	104.150	0.690	-1.680	1.420
2020/01/31 12:22:29.9	104.140	0.680	-1.630	1.410
2020/01/31 12:22:30.0	104.140	0.660	-1.560	1.400
2020/01/31 12:22:30.1	104.130	0.640	-1.490	1.380
2020/01/31 12:22:30.2	104.130	0.610	-1.410	1.370
2020/01/31 12:22:30.3	104.130	0.580	-1.320	1.360
2020/01/31 12:22:30.4	104.120	0.550	-1.220	1.360
2020/01/31 12:22:30.5	104.130	0.510	-1.110	1.350
2020/01/31 12:22:30.6	104.120	0.470	-1.010	1.340
2020/01/31 12:22:30.7	104.120	0.430	-0.900	1.330
2020/01/31 12:22:30.8	104.120	0.390	-0.790	1.330
2020/01/31 12:22:30.9	104.110	0.340	-0.670	1.320
2020/01/31 12:22:31.0	104.110	0.290	-0.560	1.310
2020/01/31 12:22:31.1	104.110	0.240	-0.440	1.310
2020/01/31 12:22:31.2	104.110	0.190	-0.320	1.300
2020/01/31 12:22:31.3	104.100	0.140	-0.200	1.300
2020/01/31 12:22:31.4	104.100	0.080	-0.080	1.290
2020/01/31 12:22:31.5	104.090	0.030	0.030	1.280
2020/01/31 12:22:31.6	104.090	-0.020	0.140	1.270
2020/01/31 12:22:31.7	104.080	-0.080	0.250	1.260
2020/01/31 12:22:31.8	104.080	-0.130	0.360	1.250
2020/01/31 12:22:31.9	104.080	-0.180	0.460	1.240
2020/01/31 12:22:32.0	104.080	-0.230	0.550	1.230
2020/01/31 12:22:32.1	104.070	-0.280	0.640	1.220
2020/01/31 12:22:32.2	104.070	-0.330	0.730	1.200
2020/01/31 12:22:32.3	104.070	-0.370	0.810	1.180
2020/01/31 12:22:32.4	104.070	-0.420	0.880	1.160
2020/01/31 12:22:32.5	104.060	-0.460	0.940	1.140
2020/01/31 12:22:32.6	104.060	-0.490	1.000	1.110
2020/01/31 12:22:32.7	104.060	-0.530	1.050	1.080
2020/01/31 12:22:32.8	104.060	-0.560	1.090	1.050
2020/01/31 12:22:32.9	104.050	-0.590	1.120	1.020
2020/01/31 12:22:33.0	104.050	-0.610	1.140	0.980
2020/01/31 12:22:33.1	104.050	-0.640	1.160	0.950
2020/01/31 12:22:33.2	104.050	-0.650	1.160	0.910
2020/01/31 12:22:33.3	104.050	-0.670	1.160	0.870
2020/01/31 12:22:33.4	104.050	-0.680	1.150	0.820
2020/01/31 12:22:33.5	104.010	-0.690	1.130	0.780
2020/01/31 12:22:33.6	104.010	-0.690	1.110	0.730
2020/01/31 12:22:33.7	104.010	-0.690	1.070	0.690
2020/01/31 12:22:33.8	104.000	-0.680	1.030	0.640
2020/01/31 12:22:33.9	104.000	-0.670	0.980	0.590
2020/01/31 12:22:34.0	104.000	-0.660	0.930	0.550
2020/01/31 12:22:34.1	104.000	-0.640	0.870	0.500
2020/01/31 12:22:34.2	103.990	-0.620	0.800	0.460
2020/01/31 12:22:34.3	103.990	-0.600	0.720	0.420
2020/01/31 12:22:34.4	103.990	-0.570	0.640	0.370
2020/01/31 12:22:34.5	103.990	-0.540	0.560	0.330
2020/01/31 12:22:34.6	103.980	-0.510	0.470	0.290
2020/01/31 12:22:34.7	103.980	-0.470	0.380	0.260
2020/01/31 12:22:34.8	103.970	-0.430	0.290	0.230
2020/01/31 12:22:34.9	103.970	-0.390	0.190	0.190
2020/01/31 12:22:35.0	103.970	-0.350	0.090	0.170
2020/01/31 12:22:35.1	103.960	-0.310	-0.000	0.140
2020/01/31 12:22:35.2	103.960	-0.260	-0.100	0.110
2020/01/31 12:22:35.3	103.950	-0.220	-0.190	0.090
2020/01/31 12:22:35.4	103.950	-0.170	-0.290	0.070
2020/01/31 12:22:35.5	103.950	-0.130	-0.380	0.060
2020/01/31 12:22:35.6	103.940	-0.080	-0.460	0.040
2020/01/31 12:22:35.7	103.940	-0.040	-0.540	0.020
2020/01/31 12:22:35.8	103.940	0.000	-0.620	0.010
2020/01/31 12:22:35.9	103.930	0.050	-0.690	0.000
2020/01/31 12:22:36.0	103.930	0.090	-0.750	-0.010
2020/01/31 12:22:36.1	103.930	0.120	-0.810	-0.020
2020/01/31 12:22:36.2	103.930	0.160	-0.860	-0.020
2020/01/31 12:22:36.3	103.930	0.190	-0.890	-0.030
2020/01/31 12:22:36.4	103.930	0.220	-0.920	-0.030
2020/01/31 12:22:36.5	103.940	0.240	-0.950	-0.030
2020/01/31 12:22:36.6	103.940	0.270	-0.960	-0.030
2020/01/31 12:22:36.7	103.940	0.290	-0.960	-0.040
2020/01/31 12:22:36.8	103.940	0.300	-0.960	-0.040
2020/01/31 12:22:36.9	103.940	0.310	-0.940	-0.040
2020/01/31 12:22:37.0	103.940	0.320	-0.920	-0.040
2020/01/31 12:22:37.1	103.940	0.330	-0.890	-0.040
2020/01/31 12:22:37.2	103.940	0.330	-0.860	-0.040
2020/01/31 12:22:37.3	103.940	0.330	-0.810	-0.040
2020/01/31 12:22:37.4	103.940	0.330	-0.770	-0.040
2020/01/31 12:22:37.5	103.960	0.330	-0.710	-0.030
2020/01/31 12:22:37.6	103.960	0.320	-0.650	-0.030
2020/01/31 12:22:37.7	103.960	0.310	-0.590	-0.030
2020/01/31 12:22:37.8	103.960	0.300	-0.530	-0.020
2020/01/31 12:22:37.9	103.960	0.280	-0.460	-0.020
2020/01/31 12:22:38.0	103.960	0.270	-0.400	-0.010
2020/01/31 12:22:38.1	103.960	0.250	-0.330	-0.000
2020/01/31 12:22:38.2	103.950	0.230	-0.260	0.010
2020/01/31 12:22:38.3	103.950	0.210	-0.200	0.020
2020/01/31 12:22:38.4	103.950	0.200	-0.130	0.040
2020/01/31 12:22:38.5	103.940	0.180	-0.080	0.050
2020/01/31 12:22:38.6	103.930	0.160	-0.020	0.070
2020/01/31 12:22:38.7	103.930	0.140	0.030	0.090
2020/01/31 12:22:38.8	103.930	0.130	0.080	0.110
2020/01/31 12:22:38.9	103.930	0.110	0.130	0.140
2020/01/31 12:22:39.0	103.920	0.100	0.160	0.160
2020/01/31 12:22:39.1	103.920	0.080	0.190	0.190
2020/01/31 12:22:39.2	103.920	0.070	0.220	0.220
2020/01/31 12:22:39.3	103.920	0.060	0.240	0.260
2020/01/31 12:22:39.4	103.910	0.050	0.250	0.290
2020/01/31 12:22:39.5	103.890	0.050	0.260	0.330
2020/01/31 12:22:39.6	103.890	0.040	0.260	0.360
2020/01/31 12:22:39.7	103.890	0.040	0.250	0.400
2020/01/31 12:22:39.8	103.880	0.040	0.230	0.450
2020/01/31 12:22:39.9	103.880	0.040	0.210	0.490
2020/01/31 12:22:40.0	103.880	0.050	0.180	0.540
2020/01/31 12:22:40.1	103.870	0.050	0.140	0.580
2020/01/31 12:22:40.2	103.870	0.060	0.100	0.630
2020/01/31 12:22:40.3	103.860	0.060	0.050	0.680
2020/01/31 12:22:40.4	103.860	0.070	-0.000	0.730
2020/01/31 12:22:40.5	103.860	0.080	-0.060	0.780
2020/01/31 12:22:40.6	103.860	0.090	-0.120	0.830
2020/01/31 12:22:40.7	103.850	0.110	-0.180	0.880
2020/01/31 12:22:40.8	103.850	0.120	-0.240	0.940
2020/01/31 12:22:40.9	103.840	0.130	-0.300	0.990
2020/01/31 12:22:41.0	103.830	0.140	-0.360	1.040
2020/01/31 12:22:41.1	103.830	0.150	-0.420	1.090
2020/01/31 12:22:41.2	103.820	0.160	-0.480	1.140
2020/01/31 12:22:41.3	103.810	0.170	-0.530	1.190
2020/01/31 12:22:41.4	103.810	0.180	-0.580	1.240
2020/01/31 12:22:41.5	103.810	0.190	-0.620	1.290
2020/01/31 12:22:41.6	103.800	0.200	-0.660	1.340
2020/01/31 12:22:41.7	103.800	0.200	-0.700	1.380
2020/01/31 12:22:41.8	103.790	0.200	-0.730	1.420
2020/01/31 12:22:41.9	103.790	0.200	-0.740	1.460
2020/01/31 12:22:42.0	103.790	0.200	-0.760	1.500
2020/01/31 12:22:42.1	103.780	0.200	-0.760	1.540
2020/01/31 12:22:42.2	103.780	0.190	-0.760	1.580
2020/01/31 12:22:42.3	103.780	0.180	-0.750	1.610
2020/01/31 12:22:42.4	103.780	0.170	-0.730	1.650
2020/01/31 12:22:42.5	103.780	0.160	-0.700	1.680
2020/01/31 12:22:42.6	103.780	0.150	-0.660	1.710
2020/01/31 12:22:42.7	103.780	0.130	-0.620	1.740
2020/01/31 12:22:42.8	103.780	0.110	-0.570	1.760
2020/01/31 12:22:42.9	103.780	0.090	-0.520	1.790
2020/01/31 12:22:43.0	103.780	0.070	-0.460	1.810
2020/01/31 12:22:43.1	103.790	0.040	-0.400	1.840
2020/01/31 12:22:43.2	103.790	0.020	-0.330	1.860
2020/01/31 12:22:43.3	103.790	-0.010	-0.260	1.880
2020/01/31 12:22:43.4	103.790	-0.040	-0.190	1.900
2020/01/31 12:22:43.5	103.790	-0.060	-0.120	1.910
2020/01/31 12:22:43.6	103.790	-0.090	-0.040	1.930
2020/01/31 12:22:43.7	103.790	-0.120	0.030	1.940
2020/01/31 12:22:43.8	103.790	-0.150	0.100	1.950
2020/01/31 12:22:43.9	103.790	-0.180	0.170	1.960
2020/01/31 12:22:44.0	103.780	-0.200	0.240	1.970
2020/01/31 12:22:44.1	103.780	-0.230	0.300	1.980
2020/01/31 12:22:44.2	103.770	-0.250	0.360	1.980
2020/01/31 12:22:44.3	103.770	-0.280	0.410	1.990
2020/01/31 12:22:44.4	103.760	-0.300	0.460	1.990
2020/01/31 12:22:44.5	103.750	-0.320	0.500	1.990
2020/01/31 12:22:44.6	103.740	-0.330	0.540	1.990
2020/01/31 12:22:44.7	103.730	-0.350	0.560	1.980
2020/01/31 12:22:44.8	103.720	-0.360	0.580	1.970
2020/01/31 12:22:44.9	103.710	-0.360	0.590	1.960
2020/01/31 12:22:45.0	103.690	-0.370	0.590	1.950
2020/01/31 12:22:45.1	103.680	-0.370	0.580	1.930
2020/01/31 12:22:45.2	103.660	-0.360	0.570	1.910
2020/01/31 12:22:45.3	103.650	-0.360	0.540	1.890
2020/01/31 12:22:45.4	103.640	-0.350	0.510	1.860
2020/01/31 12:22:45.5	103.600	-0.340	0.480	1.830
2020/01/31 12:22:45.6	103.590	-0.320	0.430	1.800
2020/01/31 12:22:45.7	103.570	-0.300	0.380	1.760
2020/01/31 12:22:45.8	103.560	-0.280	0.320	1.720
2020/01/31 12:22:45.9	103.550	-0.250	0.250	1.680
2020/01/31 12:22:46.0	103.530	-0.230	0.180	1.630
2020/01/31 12:22:46.1	103.520	-0.200	0.110	1.580
2020/01/31 12:22:46.2	103.510	-0.160	0.030	1.530
2020/01/31 12:22:46.3	103.490	-0.130	-0.050	1.480
2020/01/31 12:22:46.4	103.480	-0.100	-0.130	1.420
2020/01/31 12:22:46.5	103.480	-0.060	-0.220	1.360
2020/01/31 12:22:46.6	103.470	-0.030	-0.300	1.300
2020/01/31 12:22:46.7	103.470	0.000	-0.380	1.240
2020/01/31 12:22:46.8	103.460	0.040	-0.460	1.180
2020/01/31 12:22:46.9	103.450	0.070	-0.540	1.120
2020/01/31 12:22:47.0	103.450	0.100	-0.610	1.060
2020/01/31 12:22:47.1	103.450	0.130	-0.680	1.000
2020/01/31 12:22:47.2	103.450	0.160	-0.740	0.930
2020/01/31 12:22:47.3	103.450	0.190	-0.800	0.870
2020/01/31 12:22:47.4	103.450	0.210	-0.850	0.810
2020/01/31 12:22:47.5	103.440	0.230	-0.890	0.740
2020/01/31 12:22:47.6	103.440	0.250	-0.920	0.680
2020/01/31 12:22:47.7	103.450	0.260	-0.950	0.620
2020/01/31 12:22:47.8	103.460	0.270	-0.970	0.550
2020/01/31 12:22:47.9	103.460	0.280	-0.980	0.490
2020/01/31 12:22:48.0	103.470	0.290	-0.980	0.430
2020/01/31 12:22:48.1	103.480	0.290	-0.980	0.370
2020/01/31 12:22:48.2	103.490	0.280	-0.960	0.310
2020/01/31 12:22:48.3	103.500	0.280	-0.940	0.240
2020/01/31 12:22:48.4	103.510	0.270	-0.910	0.180
2020/01/31 12:22:48.5	103.520	0.260	-0.870	0.120
2020/01/31 12:22:48.6	103.530	0.240	-0.830	0.060
2020/01/31 12:22:48.7	103.540	0.220	-0.780	-0.010
2020/01/31 12:22:48.8	103.560	0.200	-0.720	-0.070
2020/01/31 12:22:48.9	103.570	0.180	-0.660	-0.130
2020/01/31 12:22:49.0	103.580	0.150	-0.600	-0.190
2020/01/31 12:22:49.1	103.590	0.130	-0.530	-0.240
2020/01/31 12:22:49.2	103.610	0.100	-0.460	-0.300
2020/01/31 12:22:49.3	103.620	0.070	-0.380	-0.360
2020/01/31 12:22:49.4	103.630	0.040	-0.310	-0.410
2020/01/31 12:22:49.5	103.630	0.010	-0.220	-0.460
2020/01/31 12:22:49.6	103.640	-0.020	-0.150	-0.520
2020/01/31 12:22:49.7	103.650	-0.050	-0.070	-0.560
2020/01/31 12:22:49.8	103.660	-0.080	0.000	-0.610
2020/01/31 12:22:49.9	103.670	-0.110	0.080	-0.650
2020/01/31 12:22:50.0	103.680	-0.140	0.150	-0.700
2020/01/31 12:22:50.1	103.690	-0.170	0.220	-0.730
2020/01/31 12:22:50.2	103.690	-0.200	0.280	-0.770
2020/01/31 12:22:50.3	103.700	-0.220	0.340	-0.800
2020/01/31 12:22:50.4	103.700	-0.250	0.400	-0.840
2020/01/31 12:22:50.5	103.720	-0.270	0.450	-0.860
2020/01/31 12:22:50.6	103.720	-0.290	0.500	-0.880
2020/01/31 12:22:50.7	103.720	-0.310	0.540	-0.900
2020/01/31 12:22:50.8	103.720	-0.320	0.580	-0.920
2020/01/31 12:22:50.9	103.720	-0.340	0.610	-0.930
2020/01/31 12:22:51.0	103.720	-0.350	0.640	-0.940
2020/01/31 12:22:51.1	103.720	-0.360	0.660	-0.950
2020/01/31 12:22:51.2	103.720	-0.360	0.670	-0.950
2020/01/31 12:22:51.3	103.720	-0.370	0.680	-0.950
2020/01/31 12:22:51.4	103.720	-0.370	0.690	-0.940
2020/01/31 12:22:51.5	103.740	-0.370	0.690	-0.930
2020/01/31 12:22:51.6	103.730	-0.360	0.680	-0.920
2020/01/31 12:22:51.7	103.730	-0.360	0.660	-0.900
2020/01/31 12:22:51.8	103.730	-0.350	0.640	-0.880
2020/01/31 12:22:51.9	103.730	-0.330	0.620	-0.860
2020/01/31 12:22:52.0	103.720	-0.320	0.590	-0.830
2020/01/31 12:22:52.1	103.720	-0.300	0.550	-0.800
2020/01/31 12:22:52.2	103.720	-0.290	0.510	-0.760
2020/01/31 12:22:52.3	103.720	-0.270	0.470	-0.730
2020/01/31 12:22:52.4	103.720	-0.250	0.420	-0.690
2020/01/31 12:22:52.5	103.700	-0.220	0.370	-0.640
2020/01/31 12:22:52.6	103.710	-0.200	0.310	-0.600
2020/01/31 12:22:52.7	103.710	-0.170	0.250	-0.560
2020/01/31 12:22:52.8	103.710	-0.140	0.190	-0.510
2020/01/31 12:22:52.9	103.710	-0.110	0.130	-0.470
2020/01/31 12:22:53.0	103.720	-0.080	0.060	-0.420
2020/01/31 12:22:53.1	103.720	-0.050	-0.000	-0.370
2020/01/31 12:22:53.2	103.730	-0.020	-0.070	-0.330
2020/01/31 12:22:53.3	103.740	0.010	-0.140	-0.280
2020/01/31 12:22:53.4	103.750	0.040	-0.210	-0.230
2020/01/31 12:22:53.5	103.760	0.070	-0.280	-0.190
2020/01/31 12:22:53.6	103.770	0.100	-0.350	-0.140
2020/01/31 12:22:53.7	103.780	0.140	-0.410	-0.090
2020/01/31 12:22:53.8	103.790	0.170	-0.480	-0.050
2020/01/31 12:22:53.9	103.810	0.200	-0.540	-0.000
2020/01/31 12:22:54.0	103.820	0.230	-0.600	0.040
2020/01/31 12:22:54.1	103.830	0.260	-0.660	0.090
2020/01/31 12:22:54.2	103.840	0.280	-0.720	0.130
2020/01/31 12:22:54.3	103.850	0.310	-0.770	0.180
2020/01/31 12:22:54.4	103.860	0.340	-0.820	0.220
2020/01/31 12:22:54.5	103.880	0.360	-0.860	0.270
2020/01/31 12:22:54.6	103.890	0.380	-0.910	0.320
2020/01/31 12:22:54.7	103.900	0.400	-0.940	0.360
2020/01/31 12:22:54.8	103.910	0.420	-0.980	0.400
2020/01/31 12:22:54.9	103.920	0.440	-1.000	0.450
2020/01/31 12:22:55.0	103.920	0.450	-1.030	0.490
2020/01/31 12:22:55.1	103.930	0.470	-1.040	0.530
2020/01/31 12:22:55.2	103.940	0.480	-1.060	0.580
2020/01/31 12:22:55.3	103.940	0.490	-1.070	0.620
2020/01/31 12:22:55.4	103.950	0.500	-1.070	0.670
2020/01/31 12:22:55.5	103.950	0.500	-1.060	0.710
2020/01/31 12:22:55.6	103.960	0.510	-1.060	0.750
2020/01/31 12:22:55.7	103.960	0.510	-1.040	0.800
2020/01/31 12:22:55.8	103.960	0.510	-1.020	0.850
2020/01/31 12:22:55.9	103.960	0.510	-1.000	0.890
2020/01/31 12:22:56.0	103.960	0.500	-0.970	0.940
2020/01/31 12:22:56.1	103.960	0.490	-0.940	0.990
2020/01/31 12:22:56.2	103.960	0.490	-0.900	1.040
2020/01/31 12:22:56.3	103.960	0.480	-0.860	1.090
2020/01/31 12:22:56.4	103.950	0.460	-0.820	1.140
2020/01/31 12:22:56.5	103.950	0.450	-0.770	1.190
2020/01/31 12:22:56.6	103.950	0.440	-0.720	1.240
2020/01/31 12:22:56.7	103.940	0.420	-0.660	1.290
2020/01/31 12:22:56.8	103.940	0.400	-0.610	1.340
2020/01/31 12:22:56.9	103.940	0.380	-0.550	1.400
2020/01/31 12:22:57.0	103.930	0.360	-0.490	1.450
2020/01/31 12:22:57.1	103.930	0.340	-0.430	1.500
2020/01/31 12:22:57.2	103.930	0.320	-0.370	1.550
2020/01/31 12:22:57.3	103.920	0.290	-0.300	1.610
2020/01/31 12:22:57.4	103.920	0.270	-0.240	1.660
2020/01/31 12:22:57.5	103.900	0.240	-0.170	1.710
2020/01/31 12:22:57.6	103.900	0.210	-0.110	1.750
2020/01/31 12:22:57.7	103.900	0.190	-0.050	1.800
2020/01/31 12:22:57.8	103.900	0.160	0.020	1.850
2020/01/31 12:22:57.9	103.900	0.130	0.080	1.890
2020/01/31 12:22:58.0	103.890	0.100	0.140	1.930
2020/01/31 12:22:58.1	103.890	0.070	0.190	1.970
2020/01/31 12:22:58.2	103.890	0.040	0.250	2.010
2020/01/31 12:22:58.3	103.890	0.010	0.300	2.050
2020/01/31 12:22:58.4	103.890	-0.020	0.360	2.080
2020/01/31 12:22:58.5	103.890	-0.050	0.410	2.110
2020/01/31 12:22:58.6	103.890	-0.080	0.450	2.130
2020/01/31 12:22:58.7	103.890	-0.110	0.500	2.160
2020/01/31 12:22:58.8	103.890	-0.150	0.530	2.180
2020/01/31 12:22:58.9	103.890	-0.180	0.570	2.190
2020/01/31 12:22:59.0	103.900	-0.210	0.600	2.200
2020/01/31 12:22:59.1	103.900	-0.230	0.630	2.210
2020/01/31 12:22:59.2	103.900	-0.260	0.650	2.210
2020/01/31 12:22:59.3	103.910	-0.290	0.670	2.210
2020/01/31 12:22:59.4	103.910	-0.320	0.690	2.210
2020/01/31 12:22:59.5	103.930	-0.340	0.700	2.200
2020/01/31 12:22:59.6	103.930	-0.370	0.700	2.190
2020/01/31 12:22:59.7	103.940	-0.390	0.700	2.170
2020/01/31 12:22:59.8	103.950	-0.410	0.700	2.150
2020/01/31 12:22:59.9	103.960	-0.430	0.690	2.120
2020/01/31 12:23:00.0	103.970	-0.450	0.680	2.090
2020/01/31 12:23:00.1	103.980	-0.470	0.660	2.060
2020/01/31 12:23:00.2	103.990	-0.480	0.640	2.020
2020/01/31 12:23:00.3	104.010	-0.500	0.620	1.980
2020/01/31 12:23:00.4	104.020	-0.510	0.590	1.930
2020/01/31 12:23:00.5	104.040	-0.520	0.550	1.880
2020/01/31 12:23:00.6	104.050	-0.520	0.520	1.830
2020/01/31 12:23:00.7	104.060	-0.520	0.480	1.780
2020/01/31 12:23:00.8	104.080	-0.530	0.430	1.720
2020/01/31 12:23:00.9	104.090	-0.530	0.390	1.660
2020/01/31 12:23:01.0	104.100	-0.520	0.340	1.600
2020/01/31 12:23:01.1	104.120	-0.520	0.290	1.540
2020/01/31 12:23:01.2	104.130	-0.510	0.240	1.480
2020/01/31 12:23:01.3	104.140	-0.500	0.180	1.420
2020/01/31 12:23:01.4	104.150	-0.480	0.130	1.360
2020/01/31 12:23:01.5	104.160	-0.470	0.070	1.300
2020/01/31 12:23:01.6	104.160	-0.450	0.020	1.240
2020/01/31 12:23:01.7	104.170	-0.430	-0.040	1.180
2020/01/31 12:23:01.8	104.170	-0.410	-0.100	1.120
2020/01/31 12:23:01.9	104.180	-0.390	-0.150	1.060
2020/01/31 12:23:02.0	104.180	-0.360	-0.210	1.000
2020/01/31 12:23:02.1	104.180	-0.340	-0.260	0.950
2020/01/31 12:23:02.2	104.180	-0.310	-0.310	0.890
2020/01/31 12:23:02.3	104.170	-0.280	-0.360	0.840
2020/01/31 12:23:02.4	104.170	-0.250	-0.410	0.780
2020/01/31 12:23:02.5	104.170	-0.220	-0.460	0.730
2020/01/31 12:23:02.6	104.160	-0.190	-0.510	0.680
2020/01/31 12:23:02.7	104.150	-0.160	-0.550	0.630
2020/01/31 12:23:02.8	104.150	-0.130	-0.590	0.580
2020/01/31 12:23:02.9	104.140	-0.100	-0.630	0.530
2020/01/31 12:23:03.0	104.130	-0.070	-0.670	0.480
2020/01/31 12:23:03.1	104.120	-0.040	-0.700	0.430
2020/01/31 12:23:03.2	104.120	-0.010	-0.740	0.380
2020/01/31 12:23:03.3	104.110	0.020	-0.770	0.330
2020/01/31 12:23:03.4	104.100	0.040	-0.790	0.280
2020/01/31 12:23:03.5	104.100	0.070	-0.820	0.240
2020/01/31 12:23:03.6	104.100	0.100	-0.840	0.190
2020/01/31 12:23:03.7	104.100	0.120	-0.860	0.140
2020/01/31 12:23:03.8	104.090	0.140	-0.870	0.090
2020/01/31 12:23:03.9	104.100	0.170	-0.890	0.040
2020/01/31 12:23:04.0	104.100	0.190	-0.900	-0.000
2020/01/31 12:23:04.1	104.100	0.200	-0.910	-0.050
2020/01/31 12:23:04.2	104.110	0.220	-0.910	-0.100
2020/01/31 12:23:04.3	104.120	0.240	-0.910	-0.140
2020/01/31 12:23:04.4	104.130	0.250	-0.910	-0.190
2020/01/31 12:23:04.5	104.150	0.260	-0.910	-0.240
2020/01/31 12:23:04.6	104.160	0.270	-0.900	-0.280
2020/01/31 12:23:04.7	104.180	0.280	-0.890	-0.320
2020/01/31 12:23:04.8	104.190	0.290	-0.880	-0.360
2020/01/31 12:23:04.9	104.210	0.300	-0.860	-0.400
2020/01/31 12:23:05.0	104.220	0.300	-0.840	-0.440
2020/01/31 12:23:05.1	104.240	0.300	-0.810	-0.470
2020/01/31 12:23:05.2	104.260	0.300	-0.780	-0.500
2020/01/31 12:23:05.3	104.280	0.300	-0.750	-0.530
2020/01/31 12:23:05.4	104.290	0.300	-0.710	-0.550
2020/01/31 12:23:05.5	104.310	0.290	-0.660	-0.570
2020/01/31 12:23:05.6	104.320	0.280	-0.620	-0.590
2020/01/31 12:23:05.7	104.340	0.270	-0.570	-0.610
2020/01/31 12:23:05.8	104.350	0.260	-0.520	-0.620
2020/01/31 12:23:05.9	104.360	0.250	-0.470	-0.630
2020/01/31 12:23:06.0	104.370	0.240	-0.420	-0.630
2020/01/31 12:23:06.1	104.370	0.220	-0.360	-0.630
2020/01/31 12:23:06.2	104.380	0.210	-0.300	-0.630
2020/01/31 12:23:06.3	104.380	0.190	-0.240	-0.630
2020/01/31 12:23:06.4	104.380	0.170	-0.180	-0.620
2020/01/31 12:23:06.5	104.370	0.150	-0.120	-0.610
2020/01/31 12:23:06.6	104.370	0.130	-0.050	-0.590
2020/01/31 12:23:06.7	104.360	0.110	0.010	-0.570
2020/01/31 12:23:06.8	104.350	0.080	0.070	-0.550
2020/01/31 12:23:06.9	104.340	0.060	0.140	-0.530
2020/01/31 12:23:07.0	104.320	0.030	0.200	-0.500
2020/01/31 12:23:07.1	104.310	0.010	0.260	-0.470
2020/01/31 12:23:07.2	104.290	-0.020	0.310	-0.440
2020/01/31 12:23:07.3	104.280	-0.040	0.370	-0.400
2020/01/31 12:23:07.4	104.260	-0.060	0.420	-0.360
2020/01/31 12:23:07.5	104.230	-0.090	0.470	-0.320
2020/01/31 12:23:07.6	104.210	-0.110	0.520	-0.280
2020/01/31 12:23:07.7	104.190	-0.130	0.560	-0.240
2020/01/31 12:23:07.8	104.170	-0.160	0.590	-0.200
2020/01/31 12:23:07.9	104.150	-0.180	0.630	-0.160
2020/01/31 12:23:08.0	104.130	-0.190	0.650	-0.110
2020/01/31 12:23:08.1	104.110	-0.210	0.670	-0.070
2020/01/31 12:23:08.2	104.090	-0.230	0.690	-0.030
2020/01/31 12:23:08.3	104.080	-0.240	0.700	0.020
2020/01/31 12:23:08.4	104.060	-0.250	0.700	0.060
2020/01/31 12:23:08.5	104.050	-0.260	0.700	0.100
2020/01/31 12:23:08.6	104.040	-0.270	0.690	0.140
2020/01/31 12:23:08.7	104.030	-0.270	0.670	0.180
2020/01/31 12:23:08.8	104.010	-0.280	0.650	0.220
2020/01/31 12:23:08.9	104.010	-0.280	0.620	0.250
2020/01/31 12:23:09.0	104.000	-0.270	0.590	0.280
2020/01/31 12:23:09.1	103.990	-0.270	0.550	0.310
2020/01/31 12:23:09.2	103.980	-0.260	0.500	0.340
2020/01/31 12:23:09.3	103.980	-0.250	0.450	0.370
2020/01/31 12:23:09.4	103.980	-0.230	0.400	0.390
2020/01/31 12:23:09.5	103.970	-0.220	0.330	0.420
2020/01/31 12:23:09.6	103.970	-0.200	0.270	0.430
2020/01/31 12:23:09.7	103.980	-0.180	0.200	0.450
2020/01/31 12:23:09.8	103.990	-0.160	0.130	0.470
2020/01/31 12:23:09.9	104.000	-0.130	0.060	0.480
2020/01/31 12:23:10.0	104.010	-0.110	-0.020	0.500
2020/01/31 12:23:10.1	104.020	-0.080	-0.100	0.510
2020/01/31 12:23:10.2	104.030	-0.050	-0.170	0.520
2020/01/31 12:23:10.3	104.050	-0.010	-0.250	0.530
2020/01/31 12:23:10.4	104.070	0.020	-0.330	0.540
2020/01/31 12:23:10.5	104.100	0.050	-0.410	0.550
2020/01/31 12:23:10.6	104.110	0.090	-0.490	0.560
2020/01/31 12:23:10.7	104.130	0.120	-0.560	0.570
2020/01/31 12:23:10.8	104.150	0.160	-0.630	0.590
2020/01/31 12:23:10.9	104.170	0.190	-0.700	0.600
2020/01/31 12:23:11.0	104.190	0.230	-0.770	0.620
2020/01/31 12:23:11.1	104.210	0.260	-0.830	0.630
2020/01/31 12:23:11.2	104.230	0.300	-0.890	0.650
2020/01/31 12:23:11.3	104.250	0.330	-0.940	0.670
2020/01/31 12:23:11.4	104.270	0.360	-0.980	0.690
2020/01/31 12:23:11.5	104.280	0.380	-1.020	0.720
2020/01/31 12:23:11.6	104.300	0.410	-1.050	0.750
2020/01/31 12:23:11.7	104.310	0.430	-1.080	0.770
2020/01/31 12:23:11.8	104.330	0.450	-1.100	0.800
2020/01/31 12:23:11.9	104.340	0.470	-1.110	0.830
2020/01/31 12:23:12.0	104.360	0.480	-1.110	0.860
2020/01/31 12:23:12.1	104.370	0.490	-1.110	0.890
2020/01/31 12:23:12.2	104.380	0.500	-1.090	0.930
2020/01/31 12:23:12.3	104.390	0.500	-1.070	0.960
2020/01/31 12:23:12.4	104.400	0.500	-1.050	1.000
2020/01/31 12:23:12.5	104.430	0.500	-1.010	1.030
2020/01/31 12:23:12.6	104.440	0.490	-0.970	1.070
2020/01/31 12:23:12.7	104.450	0.480	-0.920	1.110
2020/01/31 12:23:12.8	104.460	0.460	-0.860	1.140
2020/01/31 12:23:12.9	104.470	0.440	-0.800	1.180
2020/01/31 12:23:13.0	104.480	0.420	-0.730	1.220
2020/01/31 12:23:13.1	104.480	0.400	-0.660	1.250
2020/01/31 12:23:13.2	104.490	0.370	-0.590	1.290
2020/01/31 12:23:13.3	104.500	0.340	-0.510	1.330
2020/01/31 12:23:13.4	104.510	0.300	-0.430	1.360
2020/01/31 12:23:13.5	104.510	0.270	-0.350	1.400
2020/01/31 12:23:13.6	104.510	0.230	-0.260	1.430
2020/01/31 12:23:13.7	104.520	0.190	-0.180	1.460
2020/01/31 12:23:13.8	104.520	0.150	-0.100	1.490
2020/01/31 12:23:13.9	104.520	0.110	-0.020	1.520
2020/01/31 12:23:14.0	104.530	0.070	0.060	1.540
2020/01/31 12:23:14.1	104.530	0.020	0.130	1.560
2020/01/31 12:23:14.2	104.530	-0.020	0.210	1.590
2020/01/31 12:23:14.3	104.530	-0.060	0.270	1.600
2020/01/31 12:23:14.4	104.530	-0.100	0.340	1.620
2020/01/31 12:23:14.5	104.530	-0.140	0.390	1.620
2020/01/31 12:23:14.6	104.530	-0.180	0.450	1.630
2020/01/31 12:23:14.7	104.530	-0.220	0.500	1.640
2020/01/31 12:23:14.8	104.520	-0.250	0.540	1.640
2020/01/31 12:23:14.9	104.520	-0.290	0.580	1.640
2020/01/31 12:23:15.0	104.510	-0.320	0.620	1.640
2020/01/31 12:23:15.1	104.510	-0.350	0.640	1.630
2020/01/31 12:23:15.2	104.500	-0.380	0.660	1.620
2020/01/31 12:23:15.3	104.490	-0.400	0.680	1.610
2020/01/31 12:23:15.4	104.480	-0.420	0.680	1.600
2020/01/31 12:23:15.5	104.470	-0.440	0.690	1.590
2020/01/31 12:23:15.6	104.460	-0.460	0.680	1.570
2020/01/31 12:23:15.7	104.440	-0.470	0.670	1.550
2020/01/31 12:23:15.8	104.430	-0.480	0.660	1.540
2020/01/31 12:23:15.9	104.410	-0.490	0.630	1.520
2020/01/31 12:23:16.0	104.400	-0.500	0.600	1.500
2020/01/31 12:23:16.1	104.380	-0.500	0.570	1.480
2020/01/31 12:23:16.2	104.360	-0.500	0.530	1.460
2020/01/31 12:23:16.3	104.350	-0.500	0.490	1.450
2020/01/31 12:23:16.4	104.330	-0.500	0.450	1.430
2020/01/31 12:23:16.5	104.290	-0.490	0.390	1.410
2020/01/31 12:23:16.6	104.270	-0.480	0.340	1.390
2020/01/31 12:23:16.7	104.250	-0.470	0.290	1.370
2020/01/31 12:23:16.8	104.230	-0.460	0.230	1.350
2020/01/31 12:23:16.9	104.210	-0.450	0.170	1.340
2020/01/31 12:23:17.0	104.190	-0.430	0.110	1.320
2020/01/31 12:23:17.1	104.180	-0.420	0.050	1.300
2020/01/31 12:23:17.2	104.160	-0.400	-0.010	1.270
2020/01/31 12:23:17.3	104.150	-0.380	-0.070	1.250
2020/01/31 12:23:17.4	104.130	-0.360	-0.140	1.220
2020/01/31 12:23:17.5	104.140	-0.340	-0.190	1.190
2020/01/31 12:23:17.6	104.130	-0.320	-0.250	1.160
2020/01/31 12:23:17.7	104.120	-0.300	-0.310	1.120
2020/01/31 12:23:17.8	104.120	-0.280	-0.370	1.080
2020/01/31 12:23:17.9	104.120	-0.250	-0.420	1.040
2020/01/31 12:23:18.0	104.120	-0.230	-0.470	0.990
2020/01/31 12:23:18.1	104.130	-0.210	-0.520	0.940
2020/01/31 12:23:18.2	104.140	-0.180	-0.570	0.880
2020/01/31 12:23:18.3	104.150	-0.160	-0.610	0.830
2020/01/31 12:23:18.4	104.160	-0.140	-0.650	0.760
2020/01/31 12:23:18.5	104.180	-0.120	-0.680	0.690
2020/01/31 12:23:18.6	104.200	-0.090	-0.710	0.620
2020/01/31 12:23:18.7	104.220	-0.070	-0.740	0.550
2020/01/31 12:23:18.8	104.240	-0.050	-0.760	0.480
2020/01/31 12:23:18.9	104.270	-0.030	-0.770	0.400
2020/01/31 12:23:19.0	104.290	-0.000	-0.790	0.320
2020/01/31 12:23:19.1	104.320	0.020	-0.790	0.240
2020/01/31 12:23:19.2	104.350	0.040	-0.790	0.160
2020/01/31 12:23:19.3	104.380	0.060	-0.790	0.080
2020/01/31 12:23:19.4	104.410	0.080	-0.780	0.010
2020/01/31 12:23:19.5	104.430	0.090	-0.770	-0.070
2020/01/31 12:23:19.6	104.460	0.110	-0.760	-0.150
2020/01/31 12:23:19.7	104.480	0.130	-0.740	-0.220
2020/01/31 12:23:19.8	104.510	0.150	-0.710	-0.290
2020/01/31 12:23:19.9	104.540	0.160	-0.690	-0.360
2020/01/31 12:23:20.0	104.560	0.180	-0.660	-0.430
2020/01/31 12:23:20.1	104.590	0.190	-0.630	-0.490
2020/01/31 12:23:20.2	104.610	0.200	-0.590	-0.540
2020/01/31 12:23:20.3	104.630	0.210	-0.560	-0.590
2020/01/31 12:23:20.4	104.650	0.220	-0.520	-0.640
2020/01/31 12:23:20.5	104.680	0.230	-0.480	-0.680
2020/01/31 12:23:20.6	104.690	0.240	-0.440	-0.720
2020/01/31 12:23:20.7	104.700	0.250	-0.400	-0.750
2020/01/31 12:23:20.8	104.710	0.260	-0.370	-0.770
2020/01/31 12:23:20.9	104.720	0.260	-0.330	-0.790
2020/01/31 12:23:21.0	104.720	0.270	-0.290	-0.810
2020/01/31 12:23:21.1	104.730	0.270	-0.250	-0.820
2020/01/31 12:23:21.2	104.730	0.270	-0.220	-0.820
2020/01/31 12:23:21.3	104.730	0.280	-0.190	-0.820
2020/01/31 12:23:21.4	104.730	0.280	-0.150	-0.820
2020/01/31 12:23:21.5	104.730	0.280	-0.120	-0.810
2020/01/31 12:23:21.6	104.720	0.280	-0.090	-0.790
2020/01/31 12:23:21.7	104.720	0.280	-0.070	-0.780
2020/01/31 12:23:21.8	104.710	0.270	-0.050	-0.750
2020/01/31 12:23:21.9	104.700	0.270	-0.030	-0.730
2020/01/31 12:23:22.0	104.700	0.270	-0.020	-0.700
2020/01/31 12:23:22.1	104.690	0.270	-0.010	-0.670
2020/01/31 12:23:22.2	104.680	0.260	0.000	-0.640
2020/01/31 12:23:22.3	104.670	0.260	0.010	-0.610
2020/01/31 12:23:22.4	104.660	0.250	0.010	-0.570
2020/01/31 12:23:22.5	104.670	0.240	0.010	-0.530
2020/01/31 12:23:22.6	104.660	0.240	0.000	-0.490
2020/01/31 12:23:22.7	104.650	0.230	-0.000	-0.440
2020/01/31 12:23:22.8	104.640	0.220	-0.010	-0.400
2020/01/31 12:23:22.9	104.640	0.210	-0.020	-0.350
2020/01/31 12:23:23.0	104.630	0.200	-0.030	-0.300
2020/01/31 12:23:23.1	104.620	0.190	-0.040	-0.250
2020/01/31 12:23:23.2	104.610	0.170	-0.050	-0.200
2020/01/31 12:23:23.3	104.600	0.160	-0.060	-0.140
2020/01/31 12:23:23.4	104.590	0.150	-0.070	-0.090
2020/01/31 12:23:23.5	104.580	0.130	-0.080	-0.030
2020/01/31 12:23:23.6	104.570	0.110	-0.090	0.030
2020/01/31 12:23:23.7	104.560	0.100	-0.090	0.080
2020/01/31 12:23:23.8	104.550	0.080	-0.100	0.140
2020/01/31 12:23:23.9	104.540	0.060	-0.100	0.200
2020/01/31 12:23:24.0	104.530	0.040	-0.100	0.260
2020/01/31 12:23:24.1	104.520	0.020	-0.100	0.310
2020/01/31 12:23:24.2	104.520	-0.000	-0.100	0.370
2020/01/31 12:23:24.3	104.510	-0.030	-0.090	0.430
2020/01/31 12:23:24.4	104.500	-0.050	-0.080	0.480
2020/01/31 12:23:24.5	104.480	-0.070	-0.070	0.540
2020/01/31 12:23:24.6	104.480	-0.090	-0.060	0.590
2020/01/31 12:23:24.7	104.470	-0.120	-0.040	0.640
2020/01/31 12:23:24.8	104.470	-0.140	-0.030	0.690
2020/01/31 12:23:24.9	104.470	-0.160	-0.010	0.740
2020/01/31 12:23:25.0	104.470	-0.180	0.010	0.790
2020/01/31 12:23:25.1	104.470	-0.200	0.040	0.830
2020/01/31 12:23:25.2	104.470	-0.220	0.060	0.880
2020/01/31 12:23:25.3	104.480	-0.240	0.080	0.920
2020/01/31 12:23:25.4	104.480	-0.260	0.110	0.960
2020/01/31 12:23:25.5	104.490	-0.270	0.130	1.000
2020/01/31 12:23:25.6	104.500	-0.290	0.150	1.030
2020/01/31 12:23:25.7	104.510	-0.300	0.170	1.060
2020/01/31 12:23:25.8	104.520	-0.310	0.190	1.090
2020/01/31 12:23:25.9	104.540	-0.310	0.210	1.120
2020/01/31 12:23:26.0	104.550	-0.320	0.220	1.140
2020/01/31 12:23:26.1	104.560	-0.320	0.240	1.160
2020/01/31 12:23:26.2	104.580	-0.320	0.240	1.180
2020/01/31 12:23:26.3	104.600	-0.320	0.250	1.200
2020/01/31 12:23:26.4	104.610	-0.310	0.250	1.220
2020/01/31 12:23:26.5	104.620	-0.300	0.250	1.230
2020/01/31 12:23:26.6	104.640	-0.290	0.240	1.240
2020/01/31 12:23:26.7	104.650	-0.280	0.220	1.250
2020/01/31 12:23:26.8	104.670	-0.260	0.210	1.260
2020/01/31 12:23:26.9	104.690	-0.240	0.190	1.270
2020/01/31 12:23:27.0	104.710	-0.220	0.160	1.270
2020/01/31 12:23:27.1	104.720	-0.200	0.130	1.280
2020/01/31 12:23:27.2	104.740	-0.170	0.090	1.290
2020/01/31 12:23:27.3	104.760	-0.150	0.050	1.290
2020/01/31 12:23:27.4	104.770	-0.120	0.010	1.290
2020/01/31 12:23:27.5	104.780	-0.090	-0.040	1.310
2020/01/31 12:23:27.6	104.800	-0.060	-0.090	1.310
2020/01/31 12:23:27.7	104.810	-0.020	-0.140	1.310
2020/01/31 12:23:27.8	104.830	0.010	-0.190	1.320
2020/01/31 12:23:27.9	104.840	0.050	-0.250	1.320
2020/01/31 12:23:28.0	104.860	0.080	-0.310	1.330
2020/01/31 12:23:28.1	104.870	0.110	-0.370	1.340
2020/01/31 12:23:28.2	104.880	0.150	-0.430	1.340
2020/01/31 12:23:28.3	104.890	0.180	-0.480	1.350
2020/01/31 12:23:28.4	104.890	0.220	-0.540	1.360
2020/01/31 12:23:28.5	104.890	0.250	-0.600	1.360
2020/01/31 12:23:28.6	104.890	0.280	-0.650	1.370
2020/01/31 12:23:28.7	104.900	0.310	-0.700	1.380
2020/01/31 12:23:28.8	104.900	0.330	-0.750	1.390
2020/01/31 12:23:28.9	104.900	0.360	-0.800	1.400
2020/01/31 12:23:29.0	104.910	0.380	-0.840	1.410
2020/01/31 12:23:29.1	104.910	0.400	-0.870	1.420
2020/01/31 12:23:29.2	104.920	0.420	-0.910	1.430
2020/01/31 12:23:29.3	104.920	0.440	-0.930	1.430
2020/01/31 12:23:29.4	104.920	0.450	-0.950	1.430
2020/01/31 12:23:29.5	104.920	0.460	-0.970	1.430
2020/01/31 12:23:29.6	104.920	0.460	-0.980	1.430
2020/01/31 12:23:29.7	104.930	0.460	-0.980	1.430
2020/01/31 12:23:29.8	104.930	0.460	-0.970	1.420
2020/01/31 12:23:29.9	104.940	0.460	-0.960	1.410
2020/01/31 12:23:30.0	104.940	0.450	-0.940	1.400
2020/01/31 12:23:30.1	104.950	0.440	-0.920	1.390
2020/01/31 12:23:30.2	104.950	0.420	-0.880	1.370
2020/01/31 12:23:30.3	104.960	0.410	-0.840	1.350
2020/01/31 12:23:30.4	104.970	0.390	-0.800	1.330
2020/01/31 12:23:30.5	104.970	0.360	-0.740	1.300
2020/01/31 12:23:30.6	104.970	0.340	-0.680	1.280
2020/01/31 12:23:30.7	104.980	0.310	-0.620	1.250
2020/01/31 12:23:30.8	104.990	0.280	-0.560	1.220
2020/01/31 12:23:30.9	105.000	0.240	-0.490	1.180
2020/01/31 12:23:31.0	105.000	0.210	-0.410	1.150
2020/01/31 12:23:31.1	105.010	0.170	-0.330	1.110
2020/01/31 12:23:31.2	105.020	0.140	-0.260	1.080
2020/01/31 12:23:31.3	105.030	0.100	-0.180	1.040
2020/01/31 12:23:31.4	105.040	0.060	-0.100	1.010
2020/01/31 12:23:31.5	105.050	0.020	-0.010	0.970
2020/01/31 12:23:31.6	105.070	-0.020	0.060	0.930
2020/01/31 12:23:31.7	105.080	-0.060	0.140	0.900
2020/01/31 12:23:31.8	105.100	-0.100	0.220	0.860
2020/01/31 12:23:31.9	105.110	-0.130	0.290	0.830
2020/01/31 12:23:32.0	105.130	-0.170	0.360	0.790
2020/01/31 12:23:32.1	105.150	-0.200	0.430	0.750
2020/01/31 12:23:32.2	105.170	-0.240	0.490	0.720
2020/01/31 12:23:32.3	105.190	-0.270	0.540	0.690
2020/01/31 12:23:32.4	105.210	-0.300	0.600	0.650
2020/01/31 12:23:32.5	105.240	-0.320	0.640	0.620
2020/01/31 12:23:32.6	105.270	-0.350	0.680	0.590
2020/01/31 12:23:32.7	105.290	-0.370	0.720	0.560
2020/01/31 12:23:32.8	105.320	-0.390	0.750	0.530
2020/01/31 12:23:32.9	105.340	-0.400	0.770	0.510
2020/01/31 12:23:33.0	105.370	-0.420	0.790	0.480
2020/01/31 12:23:33.1	105.390	-0.430	0.810	0.460
2020/01/31 12:23:33.2	105.420	-0.430	0.810	0.430
2020/01/31 12:23:33.3	105.440	-0.440	0.810	0.410
2020/01/31 12:23:33.4	105.460	-0.440	0.810	0.390
2020/01/31 12:23:33.5	105.480	-0.440	0.790	0.370
2020/01/31 12:23:33.6	105.500	-0.440	0.780	0.360
2020/01/31 12:23:33.7	105.510	-0.440	0.750	0.340
2020/01/31 12:23:33.8	105.530	-0.430	0.730	0.320
2020/01/31 12:23:33.9	105.540	-0.420	0.690	0.310
2020/01/31 12:23:34.0	105.550	-0.410	0.650	0.290
2020/01/31 12:23:34.1	105.560	-0.400	0.610	0.280
2020/01/31 12:23:34.2	105.570	-0.380	0.560	0.270
2020/01/31 12:23:34.3	105.570	-0.370	0.500	0.250
2020/01/31 12:23:34.4	105.580	-0.350	0.440	0.240
2020/01/31 12:23:34.5	105.570	-0.330	0.380	0.230
2020/01/31 12:23:34.6	105.570	-0.310	0.310	0.230
2020/01/31 12:23:34.7	105.560	-0.290	0.240	0.220
2020/01/31 12:23:34.8	105.550	-0.270	0.160	0.210
2020/01/31 12:23:34.9	105.540	-0.250	0.090	0.210
2020/01/31 12:23:35.0	105.530	-0.230	0.010	0.210
2020/01/31 12:23:35.1	105.520	-0.200	-0.070	0.210
2020/01/31 12:23:35.2	105.500	-0.180	-0.160	0.210
2020/01/31 12:23:35.3	105.490	-0.160	-0.240	0.210
2020/01/31 12:23:35.4	105.470	-0.130	-0.330	0.210
2020/01/31 12:23:35.5	105.460	-0.110	-0.410	0.220
2020/01/31 12:23:35.6	105.440	-0.090	-0.490	0.220
2020/01/31 12:23:35.7	105.420	-0.060	-0.570	0.230
2020/01/31 12:23:35.8	105.400	-0.040	-0.650	0.230
2020/01/31 12:23:35.9	105.390	-0.020	-0.730	0.240
2020/01/31 12:23:36.0	105.370	0.000	-0.800	0.250
2020/01/31 12:23:36.1	105.350	0.020	-0.870	0.260
2020/01/31 12:23:36.2	105.340	0.040	-0.940	0.270
2020/01/31 12:23:36.3	105.330	0.060	-1.000	0.290
2020/01/31 12:23:36.4	105.320	0.080	-1.060	0.300
2020/01/31 12:23:36.5	105.310	0.090	-1.110	0.310
2020/01/31 12:23:36.6	105.310	0.110	-1.150	0.330
2020/01/31 12:23:36.7	105.300	0.120	-1.190	0.340
2020/01/31 12:23:36.8	105.300	0.140	-1.220	0.360
2020/01/31 12:23:36.9	105.300	0.150	-1.250	0.370
2020/01/31 12:23:37.0	105.300	0.160	-1.260	0.390
2020/01/31 12:23:37.1	105.310	0.170	-1.270	0.400
2020/01/31 12:23:37.2	105.320	0.180	-1.280	0.420
2020/01/31 12:23:37.3	105.330	0.180	-1.270	0.430
2020/01/31 12:23:37.4	105.340	0.190	-1.260	0.450
2020/01/31 12:23:37.5	105.350	0.190	-1.240	0.460
2020/01/31 12:23:37.6	105.370	0.200	-1.220	0.480
2020/01/31 12:23:37.7	105.390	0.200	-1.190	0.490
2020/01/31 12:23:37.8	105.410	0.200	-1.150	0.500
2020/01/31 12:23:37.9	105.430	0.200	-1.100	0.510
2020/01/31 12:23:38.0	105.450	0.200	-1.050	0.520
2020/01/31 12:23:38.1	105.480	0.200	-0.990	0.530
2020/01/31 12:23:38.2	105.510	0.200	-0.930	0.540
2020/01/31 12:23:38.3	105.530	0.200	-0.870	0.550
2020/01/31 12:23:38.4	105.560	0.200	-0.800	0.550
2020/01/31 12:23:38.5	105.580	0.200	-0.720	0.560
2020/01/31 12:23:38.6	105.610	0.190	-0.650	0.560
2020/01/31 12:23:38.7	105.640	0.190	-0.570	0.570
2020/01/31 12:23:38.8	105.670	0.190	-0.490	0.570
2020/01/31 12:23:38.9	105.700	0.180	-0.410	0.570
2020/01/31 12:23:39.0	105.730	0.180	-0.330	0.580
2020/01/31 12:23:39.1	105.760	0.170	-0.250	0.580
2020/01/31 12:23:39.2	105.800	0.170	-0.170	0.580
2020/01/31 12:23:39.3	105.830	0.170	-0.100	0.580
2020/01/31 12:23:39.4	105.860	0.160	-0.020	0.580
2020/01/31 12:23:39.5	105.890	0.160	0.050	0.580
2020/01/31 12:23:39.6	105.920	0.150	0.120	0.570
2020/01/31 12:23:39.7	105.950	0.150	0.190	0.570
2020/01/31 12:23:39.8	105.980	0.150	0.250	0.560
2020/01/31 12:23:39.9	106.010	0.140	0.310	0.560
2020/01/31 12:23:40.0	106.040	0.140	0.360	0.550
2020/01/31 12:23:40.1	106.070	0.140	0.420	0.540
2020/01/31 12:23:40.2	106.090	0.130	0.460	0.540
2020/01/31 12:23:40.3	106.120	0.130	0.510	0.530
2020/01/31 12:23:40.4	106.140	0.130	0.540	0.520
2020/01/31 12:23:40.5	106.160	0.130	0.580	0.510
2020/01/31 12:23:40.6	106.180	0.120	0.610	0.500
2020/01/31 12:23:40.7	106.210	0.120	0.640	0.490
2020/01/31 12:23:40.8	106.220	0.120	0.660	0.480
2020/01/31 12:23:40.9	106.240	0.120	0.680	0.470
2020/01/31 12:23:41.0	106.260	0.110	0.690	0.460
2020/01/31 12:23:41.1	106.270	0.110	0.700	0.460
2020/01/31 12:23:41.2	106.290	0.110	0.700	0.450
2020/01/31 12:23:41.3	106.300	0.110	0.700	0.440
2020/01/31 12:23:41.4	106.310	0.100	0.700	0.430
2020/01/31 12:23:41.5	106.310	0.100	0.690	0.430
2020/01/31 12:23:41.6	106.320	0.090	0.680	0.420
2020/01/31 12:23:41.7	106.320	0.090	0.660	0.420
2020/01/31 12:23:41.8	106.330	0.080	0.640	0.420
2020/01/31 12:23:41.9	106.330	0.080	0.620	0.420
2020/01/31 12:23:42.0	106.330	0.070	0.600	0.420
2020/01/31 12:23:42.1	106.330	0.060	0.580	0.420
2020/01/31 12:23:42.2	106.330	0.060	0.550	0.430
2020/01/31 12:23:42.3	106.330	0.050	0.520	0.430
2020/01/31 12:23:42.4	106.330	0.040	0.490	0.440
2020/01/31 12:23:42.5	106.330	0.030	0.450	0.450
2020/01/31 12:23:42.6	106.320	0.020	0.420	0.460
2020/01/31 12:23:42.7	106.320	0.010	0.380	0.480
2020/01/31 12:23:42.8	106.310	0.010	0.340	0.490
2020/01/31 12:23:42.9	106.300	-0.000	0.310	0.510
2020/01/31 12:23:43.0	106.290	-0.010	0.270	0.530
2020/01/31 12:23:43.1	106.280	-0.020	0.220	0.560
2020/01/31 12:23:43.2	106.270	-0.030	0.180	0.580
2020/01/31 12:23:43.3	106.260	-0.040	0.140	0.610
2020/01/31 12:23:43.4	106.250	-0.050	0.100	0.640
2020/01/31 12:23:43.5	106.230	-0.060	0.050	0.670
2020/01/31 12:23:43.6	106.210	-0.070	0.010	0.700
2020/01/31 12:23:43.7	106.200	-0.070	-0.040	0.730
2020/01/31 12:23:43.8	106.190	-0.080	-0.090	0.770
2020/01/31 12:23:43.9	106.170	-0.090	-0.130	0.800
2020/01/31 12:23:44.0	106.160	-0.100	-0.180	0.840
2020/01/31 12:23:44.1	106.150	-0.110	-0.230	0.870
2020/01/31 12:23:44.2	106.130	-0.110	-0.280	0.910
2020/01/31 12:23:44.3	106.120	-0.120	-0.330	0.940
2020/01/31 12:23:44.4	106.110	-0.120	-0.380	0.970
2020/01/31 12:23:44.5	106.100	-0.130	-0.430	1.000
2020/01/31 12:23:44.6	106.100	-0.130	-0.480	1.030
2020/01/31 12:23:44.7	106.090	-0.130	-0.530	1.050
2020/01/31 12:23:44.8	106.090	-0.130	-0.590	1.080
2020/01/31 12:23:44.9	106.090	-0.130	-0.640	1.100
2020/01/31 12:23:45.0	106.090	-0.130	-0.700	1.120
2020/01/31 12:23:45.1	106.100	-0.130	-0.750	1.130
2020/01/31 12:23:45.2	106.100	-0.130	-0.800	1.150
2020/01/31 12:23:45.3	106.110	-0.120	-0.860	1.160
2020/01/31 12:23:45.4	106.120	-0.120	-0.910	1.170
2020/01/31 12:23:45.5	106.140	-0.110	-0.960	1.180
2020/01/31 12:23:45.6	106.150	-0.100	-1.010	1.180
2020/01/31 12:23:45.7	106.170	-0.090	-1.050	1.180
2020/01/31 12:23:45.8	106.190	-0.080	-1.100	1.180
2020/01/31 12:23:45.9	106.210	-0.070	-1.140	1.170
2020/01/31 12:23:46.0	106.240	-0.060	-1.170	1.170
2020/01/31 12:23:46.1	106.260	-0.050	-1.200	1.160
2020/01/31 12:23:46.2	106.290	-0.040	-1.230	1.150
2020/01/31 12:23:46.3	106.320	-0.030	-1.250	1.140
2020/01/31 12:23:46.4	106.340	-0.010	-1.270	1.130
2020/01/31 12:23:46.5	106.370	-0.000	-1.270	1.120
2020/01/31 12:23:46.6	106.400	0.010	-1.280	1.110
2020/01/31 12:23:46.7	106.430	0.020	-1.270	1.100
2020/01/31 12:23:46.8	106.460	0.030	-1.260	1.090
2020/01/31 12:23:46.9	106.490	0.040	-1.230	1.080
2020/01/31 12:23:47.0	106.520	0.050	-1.210	1.070
2020/01/31 12:23:47.1	106.550	0.060	-1.170	1.060
2020/01/31 12:23:47.2	106.580	0.070	-1.120	1.050
2020/01/31 12:23:47.3	106.610	0.070	-1.070	1.050
2020/01/31 12:23:47.4	106.640	0.070	-1.010	1.040
2020/01/31 12:23:47.5	106.670	0.080	-0.940	1.040
2020/01/31 12:23:47.6	106.690	0.080	-0.870	1.030
2020/01/31 12:23:47.7	106.720	0.070	-0.790	1.030
2020/01/31 12:23:47.8	106.750	0.070	-0.700	1.030
2020/01/31 12:23:47.9	106.770	0.060	-0.610	1.030
2020/01/31 12:23:48.0	106.790	0.060	-0.520	1.030
2020/01/31 12:23:48.1	106.810	0.050	-0.420	1.030
2020/01/31 12:23:48.2	106.840	0.040	-0.320	1.030
2020/01/31 12:23:48.3	106.860	0.020	-0.220	1.030
2020/01/31 12:23:48.4	106.880	0.010	-0.110	1.030
2020/01/31 12:23:48.5	106.910	-0.000	-0.000	1.030
2020/01/31 12:23:48.6	106.930	-0.020	0.100	1.030
2020/01/31 12:23:48.7	106.940	-0.040	0.200	1.030
2020/01/31 12:23:48.8	106.960	-0.060	0.300	1.030
2020/01/31 12:23:48.9	106.980	-0.070	0.400	1.020
2020/01/31 12:23:49.0	106.990	-0.090	0.490	1.020
2020/01/31 12:23:49.1	107.000	-0.110	0.570	1.010
2020/01/31 12:23:49.2	107.020	-0.130	0.660	1.000
2020/01/31 12:23:49.3	107.030	-0.150	0.730	0.990
2020/01/31 12:23:49.4	107.040	-0.170	0.800	0.980
2020/01/31 12:23:49.5	107.060	-0.190	0.860	0.970
2020/01/31 12:23:49.6	107.070	-0.200	0.920	0.950
2020/01/31 12:23:49.7	107.080	-0.220	0.970	0.930
2020/01/31 12:23:49.8	107.090	-0.230	1.000	0.910
2020/01/31 12:23:49.9	107.090	-0.240	1.040	0.890
2020/01/31 12:23:50.0	107.100	-0.250	1.060	0.870
2020/01/31 12:23:50.1	107.110	-0.260	1.070	0.840
2020/01/31 12:23:50.2	107.110	-0.270	1.080	0.810
2020/01/31 12:23:50.3	107.120	-0.270	1.070	0.780
2020/01/31 12:23:50.4	107.120	-0.270	1.060	0.750
2020/01/31 12:23:50.5	107.120	-0.270	1.040	0.710
2020/01/31 12:23:50.6	107.120	-0.270	1.020	0.680
2020/01/31 12:23:50.7	107.120	-0.260	0.980	0.640
2020/01/31 12:23:50.8	107.120	-0.260	0.940	0.610
2020/01/31 12:23:50.9	107.120	-0.240	0.890	0.570
2020/01/31 12:23:51.0	107.120	-0.230	0.830	0.530
2020/01/31 12:23:51.1	107.110	-0.220	0.770	0.490
2020/01/31 12:23:51.2	107.110	-0.200	0.710	0.460
2020/01/31 12:23:51.3	107.110	-0.180	0.640	0.420
2020/01/31 12:23:51.4	107.100	-0.160	0.560	0.380
2020/01/31 12:23:51.5	107.090	-0.140	0.480	0.350
2020/01/31 12:23:51.6	107.090	-0.120	0.400	0.310
2020/01/31 12:23:51.7	107.080	-0.100	0.320	0.280
2020/01/31 12:23:51.8	107.070	-0.070	0.240	0.240
2020/01/31 12:23:51.9	107.060	-0.050	0.150	0.210
2020/01/31 12:23:52.0	107.060	-0.030	0.070	0.180
2020/01/31 12:23:52.1	107.050	-0.000	-0.020	0.150
2020/01/31 12:23:52.2	107.040	0.020	-0.100	0.120
2020/01/31 12:23:52.3	107.040	0.050	-0.180	0.090
2020/01/31 12:23:52.4	107.030	0.070	-0.260	0.070
2020/01/31 12:23:52.5	107.010	0.090	-0.340	0.040
2020/01/31 12:23:52.6	107.010	0.110	-0.410	0.010
2020/01/31 12:23:52.7	107.010	0.130	-0.480	-0.010
2020/01/31 12:23:52.8	107.000	0.150	-0.550	-0.030
2020/01/31 12:23:52.9	107.000	0.160	-0.610	-0.050
2020/01/31 12:23:53.0	107.000	0.180	-0.670	-0.070
2020/01/31 12:23:53.1	107.000	0.190	-0.720	-0.090
2020/01/31 12:23:53.2	107.010	0.200	-0.770	-0.100
2020/01/31 12:23:53.3	107.010	0.210	-0.820	-0.120
2020/01/31 12:23:53.4	107.020	0.210	-0.850	-0.130
2020/01/31 12:23:53.5	107.020	0.220	-0.890	-0.140
2020/01/31 12:23:53.6	107.020	0.220	-0.920	-0.160
2020/01/31 12:23:53.7	107.030	0.220	-0.940	-0.160
2020/01/31 12:23:53.8	107.040	0.220	-0.950	-0.170
2020/01/31 12:23:53.9	107.060	0.220	-0.960	-0.180
2020/01/31 12:23:54.0	107.070	0.210	-0.970	-0.180
2020/01/31 12:23:54.1	107.080	0.200	-0.970	-0.180
2020/01/31 12:23:54.2	107.100	0.200	-0.960	-0.190
2020/01/31 12:23:54.3	107.120	0.190	-0.950	-0.190
2020/01/31 12:23:54.4	107.130	0.170	-0.940	-0.180
2020/01/31 12:23:54.5	107.150	0.160	-0.920	-0.180
2020/01/31 12:23:54.6	107.170	0.150	-0.900	-0.170
2020/01/31 12:23:54.7	107.190	0.140	-0.870	-0.170
2020/01/31 12:23:54.8	107.210	0.120	-0.840	-0.160
2020/01/31 12:23:54.9	107.240	0.110	-0.810	-0.150
2020/01/31 12:23:55.0	107.260	0.090	-0.770	-0.140
2020/01/31 12:23:55.1	107.290	0.080	-0.730	-0.130
2020/01/31 12:23:55.2	107.320	0.060	-0.690	-0.120
2020/01/31 12:23:55.3	107.350	0.050	-0.650	-0.100
2020/01/31 12:23:55.4	107.380	0.040	-0.600	-0.090
2020/01/31 12:23:55.5	107.410	0.020	-0.560	-0.070
2020/01/31 12:23:55.6	107.440	0.010	-0.510	-0.060
2020/01/31 12:23:55.7	107.470	-0.000	-0.460	-0.040
2020/01/31 12:23:55.8	107.510	-0.020	-0.420	-0.020
2020/01/31 12:23:55.9	107.540	-0.030	-0.370	0.000
2020/01/31 12:23:56.0	107.580	-0.040	-0.320	0.020
2020/01/31 12:23:56.1	107.610	-0.050	-0.280	0.050
2020/01/31 12:23:56.2	107.640	-0.050	-0.230	0.070
2020/01/31 12:23:56.3	107.680	-0.060	-0.190	0.090
2020/01/31 12:23:56.4	107.710	-0.070	-0.140	0.120
2020/01/31 12:23:56.5	107.760	-0.070	-0.100	0.150
2020/01/31 12:23:56.6	107.790	-0.080	-0.060	0.180
2020/01/31 12:23:56.7	107.820	-0.080	-0.030	0.220
2020/01/31 12:23:56.8	107.850	-0.080	0.000	0.250
2020/01/31 12:23:56.9	107.880	-0.080	0.040	0.280
2020/01/31 12:23:57.0	107.910	-0.080	0.060	0.320
2020/01/31 12:23:57.1	107.930	-0.080	0.090	0.360
2020/01/31 12:23:57.2	107.950	-0.080	0.110	0.400
2020/01/31 12:23:57.3	107.970	-0.080	0.120	0.440
2020/01/31 12:23:57.4	107.980	-0.070	0.140	0.490
2020/01/31 12:23:57.5	108.000	-0.070	0.150	0.540
2020/01/31 12:23:57.6	108.010	-0.060	0.150	0.590
2020/01/31 12:23:57.7	108.020	-0.050	0.160	0.640
2020/01/31 12:23:57.8	108.020	-0.050	0.160	0.690
2020/01/31 12:23:57.9	108.030	-0.040	0.150	0.750
2020/01/31 12:23:58.0	108.030	-0.030	0.140	0.810
2020/01/31 12:23:58.1	108.020	-0.010	0.130	0.870
2020/01/31 12:23:58.2	108.020	-0.000	0.120	0.930
2020/01/31 12:23:58.3	108.010	0.010	0.100	0.990
2020/01/31 12:23:58.4	108.010	0.030	0.090	1.060
2020/01/31 12:23:58.5	108.000	0.040	0.060	1.130
2020/01/31 12:23:58.6	107.990	0.050	0.040	1.190
2020/01/31 12:23:58.7	107.980	0.070	0.020	1.250
2020/01/31 12:23:58.8	107.970	0.090	-0.000	1.320
2020/01/31 12:23:58.9	107.950	0.100	-0.030	1.380
2020/01/31 12:23:59.0	107.940	0.120	-0.060	1.450
2020/01/31 12:23:59.1	107.930	0.140	-0.080	1.510
2020/01/31 12:23:59.2	107.920	0.150	-0.110	1.570
2020/01/31 12:23:59.3	107.910	0.170	-0.130	1.620
2020/01/31 12:23:59.4	107.890	0.190	-0.160	1.680
2020/01/31 12:23:59.5	107.880	0.200	-0.180	1.730
2020/01/31 12:23:59.6	107.870	0.220	-0.210	1.780
2020/01/31 12:23:59.7	107.860	0.230	-0.230	1.820
2020/01/31 12:23:59.8	107.860	0.250	-0.260	1.870
2020/01/31 12:23:59.9	107.850	0.260	-0.280	1.910
2020/01/31 12:24:00.0	107.850	0.270	-0.300	1.940
2020/01/31 12:24:00.1	107.840	0.280	-0.320	1.970
2020/01/31 12:24:00.2	107.840	0.290	-0.340	2.000
2020/01/31 12:24:00.3	107.840	0.300	-0.360	2.030
2020/01/31 12:24:00.4	107.840	0.310	-0.370	2.050
2020/01/31 12:24:00.5	107.870	0.310	-0.390	2.060
2020/01/31 12:24:00.6	107.870	0.320	-0.400	2.070
2020/01/31 12:24:00.7	107.880	0.320	-0.420	2.080
2020/01/31 12:24:00.8	107.890	0.320	-0.420	2.080
2020/01/31 12:24:00.9	107.900	0.320	-0.430	2.080
2020/01/31 12:24:01.0	107.910	0.310	-0.430	2.080
2020/01/31 12:24:01.1	107.930	0.310	-0.430	2.070
2020/01/31 12:24:01.2	107.940	0.300	-0.430	2.050
2020/01/31 12:24:01.3	107.960	0.290	-0.430	2.040
2020/01/31 12:24:01.4	107.970	0.280	-0.420	2.010
2020/01/31 12:24:01.5	107.990	0.270	-0.400	1.990
2020/01/31 12:24:01.6	108.000	0.250	-0.390	1.960
2020/01/31 12:24:01.7	108.020	0.240	-0.370	1.930
2020/01/31 12:24:01.8	108.040	0.220	-0.350	1.900
2020/01/31 12:24:01.9	108.060	0.200	-0.320	1.860
2020/01/31 12:24:02.0	108.080	0.170	-0.290	1.820
2020/01/31 12:24:02.1	108.100	0.150	-0.260	1.770
2020/01/31 12:24:02.2	108.120	0.120	-0.220	1.730
2020/01/31 12:24:02.3	108.140	0.100	-0.180	1.680
2020/01/31 12:24:02.4	108.160	0.070	-0.130	1.630
2020/01/31 12:24:02.5	108.190	0.040	-0.080	1.580
2020/01/31 12:24:02.6	108.210	0.010	-0.030	1.520
2020/01/31 12:24:02.7	108.240	-0.030	0.020	1.470
2020/01/31 12:24:02.8	108.260	-0.060	0.070	1.410
2020/01/31 12:24:02.9	108.290	-0.090	0.130	1.360
2020/01/31 12:24:03.0	108.310	-0.130	0.190	1.300
2020/01/31 12:24:03.1	108.340	-0.160	0.250	1.240
2020/01/31 12:24:03.2	108.360	-0.200	0.300	1.180
2020/01/31 12:24:03.3	108.390	-0.230	0.360	1.120
2020/01/31 12:24:03.4	108.410	-0.270	0.420	1.060
2020/01/31 12:24:03.5	108.440	-0.300	0.470	1.000
2020/01/31 12:24:03.6	108.470	-0.340	0.520	0.940
2020/01/31 12:24:03.7	108.490	-0.370	0.570	0.880
2020/01/31 12:24:03.8	108.510	-0.400	0.620	0.820
2020/01/31 12:24:03.9	108.530	-0.430	0.660	0.760
2020/01/31 12:24:04.0	108.550	-0.460	0.690	0.710
2020/01/31 12:24:04.1	108.570	-0.490	0.730	0.650
2020/01/31 12:24:04.2	108.590	-0.510	0.750	0.600
2020/01/31 12:24:04.3	108.610	-0.530	0.770	0.540
2020/01/31 12:24:04.4	108.630	-0.550	0.780	0.490
2020/01/31 12:24:04.5	108.640	-0.570	0.780	0.440
2020/01/31 12:24:04.6	108.660	-0.580	0.780	0.390
2020/01/31 12:24:04.7	108.670	-0.590	0.760	0.340
2020/01/31 12:24:04.8	108.690	-0.600	0.740	0.290
2020/01/31 12:24:04.9	108.700	-0.600	0.710	0.250
2020/01/31 12:24:05.0	108.710	-0.600	0.680	0.200
2020/01/31 12:24:05.1	108.730	-0.600	0.630	0.150
2020/01/31 12:24:05.2	108.740	-0.590	0.580	0.110
2020/01/31 12:24:05.3	108.750	-0.580	0.520	0.060
2020/01/31 12:24:05.4	108.760	-0.560	0.450	0.020
2020/01/31 12:24:05.5	108.780	-0.540	0.380	-0.030
2020/01/31 12:24:05.6	108.790	-0.520	0.300	-0.070
2020/01/31 12:24:05.7	108.800	-0.500	0.210	-0.120
2020/01/31 12:24:05.8	108.810	-0.470	0.120	-0.160
2020/01/31 12:24:05.9	108.830	-0.430	0.020	-0.200
2020/01/31 12:24:06.0	108.840	-0.400	-0.080	-0.240
2020/01/31 12:24:06.1	108.850	-0.360	-0.190	-0.280
2020/01/31 12:24:06.2	108.860	-0.310	-0.300	-0.320
2020/01/31 12:24:06.3	108.860	-0.270	-0.400	-0.350
2020/01/31 12:24:06.4	108.870	-0.220	-0.510	-0.390
2020/01/31 12:24:06.5	108.890	-0.170	-0.630	-0.420
2020/01/31 12:24:06.6	108.900	-0.120	-0.730	-0.450
2020/01/31 12:24:06.7	108.900	-0.070	-0.840	-0.480
2020/01/31 12:24:06.8	108.910	-0.010	-0.950	-0.510
2020/01/31 12:24:06.9	108.910	0.040	-1.050	-0.530
2020/01/31 12:24:07.0	108.920	0.100	-1.140	-0.550
2020/01/31 12:24:07.1	108.920	0.150	-1.240	-0.560
2020/01/31 12:24:07.2	108.920	0.200	-1.320	-0.580
2020/01/31 12:24:07.3	108.930	0.260	-1.400	-0.580
2020/01/31 12:24:07.4	108.930	0.310	-1.470	-0.590
2020/01/31 12:24:07.5	108.930	0.360	-1.540	-0.590
2020/01/31 12:24:07.6	108.930	0.400	-1.590	-0.580
2020/01/31 12:24:07.7	108.930	0.450	-1.640	-0.570
2020/01/31 12:24:07.8	108.920	0.490	-1.680	-0.560
2020/01/31 12:24:07.9	108.920	0.530	-1.700	-0.540
2020/01/31 12:24:08.0	108.920	0.570	-1.720	-0.520
2020/01/31 12:24:08.1	108.910	0.600	-1.730	-0.490
2020/01/31 12:24:08.2	108.900	0.620	-1.720	-0.450
2020/01/31 12:24:08.3	108.900	0.650	-1.710	-0.420
2020/01/31 12:24:08.4	108.890	0.660	-1.680	-0.380
2020/01/31 12:24:08.5	108.880	0.680	-1.640	-0.330
2020/01/31 12:24:08.6	108.860	0.680	-1.600	-0.280
2020/01/31 12:24:08.7	108.850	0.690	-1.540	-0.230
2020/01/31 12:24:08.8	108.840	0.680	-1.470	-0.180
2020/01/31 12:24:08.9	108.830	0.670	-1.390	-0.120
2020/01/31 12:24:09.0	108.820	0.660	-1.300	-0.060
2020/01/31 12:24:09.1	108.820	0.640	-1.200	-0.000
2020/01/31 12:24:09.2	108.810	0.620	-1.090	0.060
2020/01/31 12:24:09.3	108.810	0.590	-0.980	0.120
2020/01/31 12:24:09.4	108.800	0.550	-0.860	0.190
2020/01/31 12:24:09.5	108.800	0.520	-0.730	0.250
2020/01/31 12:24:09.6	108.800	0.470	-0.590	0.320
2020/01/31 12:24:09.7	108.800	0.430	-0.460	0.380
2020/01/31 12:24:09.8	108.810	0.380	-0.310	0.440
2020/01/31 12:24:09.9	108.820	0.320	-0.170	0.500
2020/01/31 12:24:10.0	108.820	0.270	-0.030	0.550
2020/01/31 12:24:10.1	108.840	0.210	0.120	0.610
2020/01/31 12:24:10.2	108.850	0.150	0.260	0.660
2020/01/31 12:24:10.3	108.870	0.080	0.400	0.710
2020/01/31 12:24:10.4	108.890	0.020	0.540	0.760
2020/01/31 12:24:10.5	108.920	-0.040	0.670	0.800
2020/01/31 12:24:10.6	108.940	-0.100	0.800	0.840
2020/01/31 12:24:10.7	108.970	-0.170	0.920	0.870
2020/01/31 12:24:10.8	108.990	-0.230	1.040	0.910
2020/01/31 12:24:10.9	109.020	-0.290	1.150	0.930
2020/01/31 12:24:11.0	109.050	-0.350	1.240	0.960
2020/01/31 12:24:11.1	109.080	-0.400	1.330	0.980
2020/01/31 12:24:11.2	109.110	-0.460	1.410	1.000
2020/01/31 12:24:11.3	109.150	-0.500	1.470	1.010
2020/01/31 12:24:11.4	109.180	-0.550	1.530	1.020
2020/01/31 12:24:11.5	109.220	-0.590	1.570	1.030
2020/01/31 12:24:11.6	109.250	-0.630	1.600	1.040
2020/01/31 12:24:11.7	109.280	-0.660	1.620	1.050
2020/01/31 12:24:11.8	109.320	-0.690	1.620	1.050
2020/01/31 12:24:11.9	109.360	-0.710	1.610	1.050
2020/01/31 12:24:12.0	109.400	-0.730	1.600	1.050
2020/01/31 12:24:12.1	109.430	-0.740	1.570	1.050
2020/01/31 12:24:12.2	109.470	-0.740	1.520	1.050
2020/01/31 12:24:12.3	109.510	-0.740	1.470	1.040
2020/01/31 12:24:12.4	109.550	-0.740	1.410	1.040
2020/01/31 12:24:12.5	109.590	-0.730	1.340	1.030
2020/01/31 12:24:12.6	109.630	-0.710	1.260	1.030
2020/01/31 12:24:12.7	109.670	-0.690	1.170	1.020
2020/01/31 12:24:12.8	109.710	-0.660	1.070	1.010
2020/01/31 12:24:12.9	109.740	-0.630	0.970	1.010
2020/01/31 12:24:13.0	109.780	-0.600	0.860	1.000
2020/01/31 12:24:13.1	109.820	-0.560	0.740	1.000
2020/01/31 12:24:13.2	109.860	-0.520	0.620	0.990
2020/01/31 12:24:13.3	109.890	-0.470	0.500	0.980
2020/01/31 12:24:13.4	109.920	-0.430	0.370	0.980
2020/01/31 12:24:13.5	109.960	-0.370	0.240	0.970
2020/01/31 12:24:13.6	109.990	-0.320	0.120	0.970
2020/01/31 12:24:13.7	110.020	-0.270	-0.010	0.970
2020/01/31 12:24:13.8	110.050	-0.210	-0.140	0.970
2020/01/31 12:24:13.9	110.070	-0.150	-0.270	0.970
2020/01/31 12:24:14.0	110.100	-0.100	-0.390	0.970
2020/01/31 12:24:14.1	110.120	-0.040	-0.510	0.970
2020/01/31 12:24:14.2	110.140	0.020	-0.630	0.970
2020/01/31 12:24:14.3	110.150	0.080	-0.740	0.980
2020/01/31 12:24:14.4	110.170	0.130	-0.850	0.980
2020/01/31 12:24:14.5	110.170	0.190	-0.950	0.990
2020/01/31 12:24:14.6	110.180	0.240	-1.050	1.000
2020/01/31 12:24:14.7	110.190	0.290	-1.140	1.010
2020/01/31 12:24:14.8	110.190	0.340	-1.230	1.020
2020/01/31 12:24:14.9	110.200	0.390	-1.310	1.030
2020/01/31 12:24:15.0	110.190	0.430	-1.380	1.050
2020/01/31 12:24:15.1	110.190	0.470	-1.440	1.070
2020/01/31 12:24:15.2	110.180	0.510	-1.500	1.090
2020/01/31 12:24:15.3	110.180	0.550	-1.550	1.100
2020/01/31 12:24:15.4	110.170	0.580	-1.580	1.120
2020/01/31 12:24:15.5	110.160	0.600	-1.620	1.140
2020/01/31 12:24:15.6	110.150	0.630	-1.640	1.160
2020/01/31 12:24:15.7	110.140	0.640	-1.650	1.180
2020/01/31 12:24:15.8	110.130	0.660	-1.650	1.200
2020/01/31 12:24:15.9	110.110	0.670	-1.640	1.220
2020/01/31 12:24:16.0	110.100	0.670	-1.620	1.240
2020/01/31 12:24:16.1	110.090	0.670	-1.590	1.260
2020/01/31 12:24:16.2	110.080	0.670	-1.560	1.280
2020/01/31 12:24:16.3	110.060	0.660	-1.520	1.300
2020/01/31 12:24:16.4	110.050	0.650	-1.460	1.320
2020/01/31 12:24:16.5	110.030	0.640	-1.400	1.340
2020/01/31 12:24:16.6	110.020	0.620	-1.330	1.360
2020/01/31 12:24:16.7	110.010	0.590	-1.260	1.380
2020/01/31 12:24:16.8	110.010	0.570	-1.180	1.390
2020/01/31 12:24:16.9	110.000	0.540	-1.090	1.410
2020/01/31 12:24:17.0	110.000	0.510	-1.000	1.420
2020/01/31 12:24:17.1	109.990	0.480	-0.910	1.440
2020/01/31 12:24:17.2	109.990	0.440	-0.810	1.450
2020/01/31 12:24:17.3	109.990	0.400	-0.720	1.460
2020/01/31 12:24:17.4	109.980	0.370	-0.620	1.470
2020/01/31 12:24:17.5	109.980	0.330	-0.510	1.470
2020/01/31 12:24:17.6	109.980	0.290	-0.420	1.470
2020/01/31 12:24:17.7	109.980	0.250	-0.320	1.480
2020/01/31 12:24:17.8	109.980	0.210	-0.220	1.470
2020/01/31 12:24:17.9	109.980	0.170	-0.130	1.470
2020/01/31 12:24:18.0	109.980	0.130	-0.040	1.460
2020/01/31 12:24:18.1	109.980	0.100	0.050	1.460
2020/01/31 12:24:18.2	109.980	0.060	0.130	1.440
2020/01/31 12:24:18.3	109.990	0.030	0.210	1.430
2020/01/31 12:24:18.4	109.990	-0.000	0.280	1.410
2020/01/31 12:24:18.5	110.000	-0.030	0.350	1.390
2020/01/31 12:24:18.6	110.000	-0.060	0.410	1.370
2020/01/31 12:24:18.7	110.010	-0.090	0.470	1.340
2020/01/31 12:24:18.8	110.010	-0.110	0.520	1.300
2020/01/31 12:24:18.9	110.020	-0.130	0.560	1.270
2020/01/31 12:24:19.0	110.030	-0.150	0.600	1.230
2020/01/31 12:24:19.1	110.040	-0.170	0.630	1.180
2020/01/31 12:24:19.2	110.050	-0.180	0.660	1.140
2020/01/31 12:24:19.3	110.070	-0.190	0.690	1.090
2020/01/31 12:24:19.4	110.080	-0.200	0.700	1.030
2020/01/31 12:24:19.5	110.090	-0.210	0.720	0.970
2020/01/31 12:24:19.6	110.110	-0.220	0.730	0.910
2020/01/31 12:24:19.7	110.140	-0.220	0.730	0.850
2020/01/31 12:24:19.8	110.160	-0.230	0.730	0.790
2020/01/31 12:24:19.9	110.190	-0.230	0.730	0.720
2020/01/31 12:24:20.0	110.210	-0.230	0.730	0.650
2020/01/31 12:24:20.1	110.240	-0.230	0.720	0.580
2020/01/31 12:24:20.2	110.270	-0.230	0.700	0.510
2020/01/31 12:24:20.3	110.310	-0.230	0.690	0.440
2020/01/31 12:24:20.4	110.340	-0.230	0.670	0.370
2020/01/31 12:24:20.5	110.370	-0.230	0.650	0.300
2020/01/31 12:24:20.6	110.400	-0.230	0.630	0.230
2020/01/31 12:24:20.7	110.440	-0.230	0.610	0.170
2020/01/31 12:24:20.8	110.480	-0.220	0.580	0.100
2020/01/31 12:24:20.9	110.510	-0.220	0.560	0.030
2020/01/31 12:24:21.0	110.550	-0.220	0.530	-0.030
2020/01/31 12:24:21.1	110.590	-0.220	0.500	-0.090
2020/01/31 12:24:21.2	110.630	-0.220	0.470	-0.150
2020/01/31 12:24:21.3	110.660	-0.220	0.430	-0.200
2020/01/31 12:24:21.4	110.700	-0.220	0.400	-0.260
2020/01/31 12:24:21.5	110.740	-0.220	0.370	-0.300
2020/01/31 12:24:21.6	110.770	-0.220	0.330	-0.350
2020/01/31 12:24:21.7	110.810	-0.220	0.300	-0.390
2020/01/31 12:24:21.8	110.840	-0.220	0.260	-0.430
2020/01/31 12:24:21.9	110.870	-0.220	0.220	-0.460
2020/01/31 12:24:22.0	110.900	-0.220	0.180	-0.490
2020/01/31 12:24:22.1	110.930	-0.220	0.140	-0.510
2020/01/31 12:24:22.2	110.960	-0.210	0.090	-0.530
2020/01/31 12:24:22.3	110.990	-0.210	0.050	-0.550
2020/01/31 12:24:22.4	111.010	-0.210	0.000	-0.560
2020/01/31 12:24:22.5	111.030	-0.210	-0.040	-0.560
2020/01/31 12:24:22.6	111.050	-0.200	-0.090	-0.560
2020/01/31 12:24:22.7	111.060	-0.200	-0.140	-0.550
2020/01/31 12:24:22.8	111.080	-0.190	-0.190	-0.540
2020/01/31 12:24:22.9	111.090	-0.180	-0.250	-0.530
2020/01/31 12:24:23.0	111.100	-0.170	-0.300	-0.510
2020/01/31 12:24:23.1	111.100	-0.160	-0.360	-0.480
2020/01/31 12:24:23.2	111.110	-0.150	-0.410	-0.450
2020/01/31 12:24:23.3	111.110	-0.140	-0.470	-0.420
2020/01/31 12:24:23.4	111.110	-0.120	-0.530	-0.380
2020/01/31 12:24:23.5	111.110	-0.110	-0.580	-0.340
2020/01/31 12:24:23.6	111.100	-0.090	-0.640	-0.290
2020/01/31 12:24:23.7	111.090	-0.070	-0.690	-0.240
2020/01/31 12:24:23.8	111.090	-0.060	-0.750	-0.190
2020/01/31 12:24:23.9	111.080	-0.040	-0.800	-0.140
2020/01/31 12:24:24.0	111.070	-0.010	-0.850	-0.090
2020/01/31 12:24:24.1	111.060	0.010	-0.900	-0.030
2020/01/31 12:24:24.2	111.050	0.030	-0.950	0.020
2020/01/31 12:24:24.3	111.040	0.050	-0.990	0.080
2020/01/31 12:24:24.4	111.030	0.070	-1.030	0.140
2020/01/31 12:24:24.5	111.000	0.090	-1.060	0.200
2020/01/31 12:24:24.6	110.990	0.120	-1.090	0.260
2020/01/31 12:24:24.7	110.980	0.140	-1.120	0.310
2020/01/31 12:24:24.8	110.980	0.160	-1.140	0.370
2020/01/31 12:24:24.9	110.970	0.180	-1.160	0.430
2020/01/31 12:24:25.0	110.960	0.200	-1.170	0.490
2020/01/31 12:24:25.1	110.960	0.210	-1.170	0.540
2020/01/31 12:24:25.2	110.950	0.230	-1.170	0.600
2020/01/31 12:24:25.3	110.950	0.250	-1.160	0.660
2020/01/31 12:24:25.4	110.950	0.260	-1.150	0.710
2020/01/31 12:24:25.5	110.950	0.270	-1.130	0.770
2020/01/31 12:24:25.6	110.950	0.280	-1.100	0.820
2020/01/31 12:24:25.7	110.950	0.290	-1.070	0.870
2020/01/31 12:24:25.8	110.950	0.290	-1.040	0.930
2020/01/31 12:24:25.9	110.950	0.290	-1.000	0.980
2020/01/31 12:24:26.0	110.960	0.300	-0.950	1.030
2020/01/31 12:24:26.1	110.970	0.290	-0.890	1.080
2020/01/31 12:24:26.2	110.970	0.290	-0.840	1.130
2020/01/31 12:24:26.3	110.980	0.280	-0.770	1.180
2020/01/31 12:24:26.4	110.990	0.270	-0.710	1.230
2020/01/31 12:24:26.5	111.000	0.260	-0.640	1.280
2020/01/31 12:24:26.6	111.020	0.250	-0.570	1.330
2020/01/31 12:24:26.7	111.030	0.230	-0.490	1.370
2020/01/31 12:24:26.8	111.050	0.210	-0.410	1.410
2020/01/31 12:24:26.9	111.060	0.190	-0.320	1.450
2020/01/31 12:24:27.0	111.080	0.170	-0.240	1.490
2020/01/31 12:24:27.1	111.110	0.150	-0.150	1.520
2020/01/31 12:24:27.2	111.130	0.130	-0.060	1.560
2020/01/31 12:24:27.3	111.150	0.100	0.030	1.590
2020/01/31 12:24:27.4	111.180	0.070	0.110	1.610
2020/01/31 12:24:27.5	111.200	0.050	0.210	1.640
2020/01/31 12:24:27.6	111.220	0.020	0.290	1.660
2020/01/31 12:24:27.7	111.250	-0.010	0.380	1.680
2020/01/31 12:24:27.8	111.280	-0.040	0.460	1.700
2020/01/31 12:24:27.9	111.310	-0.060	0.530	1.710
2020/01/31 12:24:28.0	111.340	-0.090	0.610	1.730
2020/01/31 12:24:28.1	111.380	-0.110	0.680	1.740
2020/01/31 12:24:28.2	111.410	-0.140	0.740	1.740
2020/01/31 12:24:28.3	111.440	-0.160	0.800	1.750
2020/01/31 12:24:28.4	111.470	-0.180	0.850	1.750
2020/01/31 12:24:28.5	111.500	-0.200	0.900	1.750
2020/01/31 12:24:28.6	111.540	-0.210	0.940	1.750
2020/01/31 12:24:28.7	111.570	-0.230	0.970	1.750
2020/01/31 12:24:28.8	111.600	-0.240	1.000	1.740
2020/01/31 12:24:28.9	111.630	-0.250	1.010	1.740
2020/01/31 12:24:29.0	111.650	-0.250	1.020	1.730
2020/01/31 12:24:29.1	111.680	-0.250	1.030	1.730
2020/01/31 12:24:29.2	111.700	-0.250	1.020	1.720
2020/01/31 12:24:29.3	111.720	-0.250	1.010	1.710
2020/01/31 12:24:29.4	111.740	-0.250	0.990	1.700
2020/01/31 12:24:29.5	111.750	-0.240	0.960	1.690
2020/01/31 12:24:29.6	111.760	-0.230	0.920	1.680
2020/01/31 12:24:29.7	111.780	-0.210	0.880	1.670
2020/01/31 12:24:29.8	111.790	-0.200	0.830	1.650
2020/01/31 12:24:29.9	111.790	-0.180	0.770	1.640
2020/01/31 12:24:30.0	111.800	-0.160	0.710	1.630
2020/01/31 12:24:30.1	111.800	-0.140	0.640	1.610
2020/01/31 12:24:30.2	111.800	-0.110	0.570	1.590
2020/01/31 12:24:30.3	111.800	-0.090	0.490	1.580
2020/01/31 12:24:30.4	111.790	-0.060	0.410	1.560
2020/01/31 12:24:30.5	111.790	-0.030	0.330	1.540
2020/01/31 12:24:30.6	111.780	-0.010	0.240	1.520
2020/01/31 12:24:30.7	111.770	0.020	0.160	1.500
2020/01/31 12:24:30.8	111.760	0.050	0.070	1.480
2020/01/31 12:24:30.9	111.750	0.080	-0.020	1.450
2020/01/31 12:24:31.0	111.730	0.100	-0.100	1.420
2020/01/31 12:24:31.1	111.720	0.130	-0.190	1.400
2020/01/31 12:24:31.2	111.700	0.160	-0.270	1.370
2020/01/31 12:24:31.3	111.690	0.180	-0.350	1.340
2020/01/31 12:24:31.4	111.670	0.200	-0.430	1.310
2020/01/31 12:24:31.5	111.650	0.230	-0.500	1.280
2020/01/31 12:24:31.6	111.630	0.250	-0.570	1.250
2020/01/31 12:24:31.7	111.620	0.260	-0.630	1.210
2020/01/31 12:24:31.8	111.600	0.280	-0.690	1.180
2020/01/31 12:24:31.9	111.590	0.290	-0.750	1.150
2020/01/31 12:24:32.0	111.570	0.300	-0.800	1.120
2020/01/31 12:24:32.1	111.560	0.310	-0.840	1.090
2020/01/31 12:24:32.2	111.550	0.320	-0.880	1.060
2020/01/31 12:24:32.3	111.540	0.330	-0.910	1.030
2020/01/31 12:24:32.4	111.530	0.330	-0.940	1.000
2020/01/31 12:24:32.5	111.530	0.330	-0.960	0.970
2020/01/31 12:24:32.6	111.530	0.330	-0.970	0.950
2020/01/31 12:24:32.7	111.530	0.320	-0.980	0.920
2020/01/31 12:24:32.8	111.530	0.320	-0.990	0.890
2020/01/31 12:24:32.9	111.530	0.310	-0.990	0.870
2020/01/31 12:24:33.0	111.540	0.300	-0.980	0.840
2020/01/31 12:24:33.1	111.550	0.290	-0.980	0.820
2020/01/31 12:24:33.2	111.560	0.280	-0.960	0.790
2020/01/31 12:24:33.3	111.570	0.270	-0.950	0.770
2020/01/31 12:24:33.4	111.590	0.250	-0.930	0.750
2020/01/31 12:24:33.5	111.600	0.240	-0.910	0.730
2020/01/31 12:24:33.6	111.620	0.230	-0.890	0.710
2020/01/31 12:24:33.7	111.650	0.210	-0.870	0.690
2020/01/31 12:24:33.8	111.670	0.200	-0.850	0.670
2020/01/31 12:24:33.9	111.700	0.180	-0.820	0.650
2020/01/31 12:24:34.0	111.730	0.170	-0.800	0.640
2020/01/31 12:24:34.1	111.750	0.160	-0.770	0.620
2020/01/31 12:24:34.2	111.780	0.150	-0.740	0.600
2020/01/31 12:24:34.3	111.810	0.130	-0.720	0.590
2020/01/31 12:24:34.4	111.850	0.120	-0.690	0.570
2020/01/31 12:24:34.5	111.890	0.120	-0.670	0.560
2020/01/31 12:24:34.6	111.920	0.110	-0.640	0.540
2020/01/31 12:24:34.7	111.950	0.100	-0.620	0.520
2020/01/31 12:24:34.8	111.980	0.090	-0.590	0.510
2020/01/31 12:24:34.9	112.010	0.090	-0.570	0.490
2020/01/31 12:24:35.0	112.040	0.080	-0.540	0.480
2020/01/31 12:24:35.1	112.060	0.080	-0.510	0.470
2020/01/31 12:24:35.2	112.090	0.080	-0.490	0.450
2020/01/31 12:24:35.3	112.110	0.080	-0.460	0.440
2020/01/31 12:24:35.4	112.140	0.080	-0.430	0.430
2020/01/31 12:24:35.5	112.160	0.070	-0.410	0.410
2020/01/31 12:24:35.6	112.170	0.070	-0.380	0.400
2020/01/31 12:24:35.7	112.190	0.070	-0.350	0.390
2020/01/31 12:24:35.8	112.210	0.070	-0.320	0.380
2020/01/31 12:24:35.9	112.220	0.070	-0.290	0.370
2020/01/31 12:24:36.0	112.230	0.070	-0.260	0.360
2020/01/31 12:24:36.1	112.240	0.070	-0.230	0.350
2020/01/31 12:24:36.2	112.240	0.070	-0.190	0.340
2020/01/31 12:24:36.3	112.250	0.060	-0.160	0.330
2020/01/31 12:24:36.4	112.250	0.060	-0.120	0.330
2020/01/31 12:24:36.5	112.250	0.050	-0.090	0.320
2020/01/31 12:24:36.6	112.240	0.050	-0.050	0.320
2020/01/31 12:24:36.7	112.230	0.040	-0.010	0.320
2020/01/31 12:24:36.8	112.230	0.030	0.020	0.320
2020/01/31 12:24:36.9	112.220	0.020	0.060	0.320
2020/01/31 12:24:37.0	112.210	0.010	0.090	0.330
2020/01/31 12:24:37.1	112.210	0.000	0.130	0.330
2020/01/31 12:24:37.2	112.200	-0.010	0.160	0.340
2020/01/31 12:24:37.3	112.190	-0.030	0.200	0.350
2020/01/31 12:24:37.4	112.180	-0.040	0.230	0.360
2020/01/31 12:24:37.5	112.180	-0.060	0.260	0.370
2020/01/31 12:24:37.6	112.170	-0.080	0.290	0.390
2020/01/31 12:24:37.7	112.170	-0.090	0.320	0.410
2020/01/31 12:24:37.8	112.160	-0.110	0.340	0.420
2020/01/31 12:24:37.9	112.160	-0.130	0.370	0.440
2020/01/31 12:24:38.0	112.150	-0.150	0.390	0.470
2020/01/31 12:24:38.1	112.150	-0.170	0.410	0.490
2020/01/31 12:24:38.2	112.150	-0.190	0.420	0.510
2020/01/31 12:24:38.3	112.160	-0.220	0.440	0.530
2020/01/31 12:24:38.4	112.170	-0.240	0.450	0.560
2020/01/31 12:24:38.5	112.170	-0.260	0.460	0.580
2020/01/31 12:24:38.6	112.190	-0.280	0.460	0.610
2020/01/31 12:24:38.7	112.210	-0.300	0.470	0.630
2020/01/31 12:24:38.8	112.220	-0.320	0.470	0.660
2020/01/31 12:24:38.9	112.240	-0.340	0.460	0.680
2020/01/31 12:24:39.0	112.270	-0.350	0.460	0.710
2020/01/31 12:24:39.1	112.290	-0.370	0.450	0.730
2020/01/31 12:24:39.2	112.320	-0.390	0.440	0.750
2020/01/31 12:24:39.3	112.350	-0.400	0.420	0.770
2020/01/31 12:24:39.4	112.380	-0.410	0.410	0.800
2020/01/31 12:24:39.5	112.420	-0.430	0.390	0.810
2020/01/31 12:24:39.6	112.450	-0.440	0.370	0.840
2020/01/31 12:24:39.7	112.490	-0.440	0.350	0.850
2020/01/31 12:24:39.8	112.530	-0.450	0.320	0.870
2020/01/31 12:24:39.9	112.570	-0.460	0.300	0.880
2020/01/31 12:24:40.0	112.610	-0.460	0.270	0.900
2020/01/31 12:24:40.1	112.650	-0.460	0.250	0.910
2020/01/31 12:24:40.2	112.690	-0.460	0.220	0.920
2020/01/31 12:24:40.3	112.730	-0.460	0.190	0.930
2020/01/31 12:24:40.4	112.780	-0.450	0.160	0.940
2020/01/31 12:24:40.5	112.810	-0.450	0.130	0.940
2020/01/31 12:24:40.6	112.850	-0.440	0.100	0.940
2020/01/31 12:24:40.7	112.890	-0.430	0.070	0.950
2020/01/31 12:24:40.8	112.920	-0.410	0.040	0.950
2020/01/31 12:24:40.9	112.960	-0.400	0.010	0.950
2020/01/31 12:24:41.0	112.990	-0.380	-0.020	0.950
2020/01/31 12:24:41.1	113.020	-0.360	-0.060	0.950
2020/01/31 12:24:41.2	113.050	-0.340	-0.090	0.950
2020/01/31 12:24:41.3	113.080	-0.320	-0.120	0.950
2020/01/31 12:24:41.4	113.100	-0.290	-0.160	0.950
2020/01/31 12:24:41.5	113.120	-0.270	-0.190	0.950
2020/01/31 12:24:41.6	113.140	-0.240	-0.220	0.950
2020/01/31 12:24:41.7	113.160	-0.210	-0.260	0.940
2020/01/31 12:24:41.8	113.170	-0.180	-0.290	0.940
2020/01/31 12:24:41.9	113.190	-0.150	-0.320	0.940
2020/01/31 12:24:42.0	113.200	-0.120	-0.350	0.940
2020/01/31 12:24:42.1	113.200	-0.090	-0.380	0.940
2020/01/31 12:24:42.2	113.210	-0.060	-0.400	0.930
2020/01/31 12:24:42.3	113.210	-0.030	-0.430	0.930
2020/01/31 12:24:42.4	113.210	0.010	-0.450	0.930
2020/01/31 12:24:42.5	113.210	0.040	-0.470	0.930
2020/01/31 12:24:42.6	113.190	0.070	-0.490	0.930
2020/01/31 12:24:42.7	113.190	0.100	-0.510	0.930
2020/01/31 12:24:42.8	113.190	0.130	-0.530	0.940
2020/01/31 12:24:42.9	113.180	0.160	-0.540	0.940
2020/01/31 12:24:43.0	113.170	0.190	-0.550	0.950
2020/01/31 12:24:43.1	113.170	0.210	-0.560	0.950
2020/01/31 12:24:43.2	113.160	0.240	-0.570	0.960
2020/01/31 12:24:43.3	113.150	0.260	-0.570	0.970
2020/01/31 12:24:43.4	113.140	0.290	-0.570	0.970
2020/01/31 12:24:43.5	113.140	0.310	-0.570	0.980
2020/01/31 12:24:43.6	113.130	0.330	-0.570	0.990
2020/01/31 12:24:43.7	113.120	0.350	-0.570	1.000
2020/01/31 12:24:43.8	113.120	0.360	-0.560	1.010
2020/01/31 12:24:43.9	113.110	0.380	-0.550	1.020
2020/01/31 12:24:44.0	113.100	0.390	-0.550	1.020
2020/01/31 12:24:44.1	113.100	0.410	-0.530	1.030
2020/01/31 12:24:44.2	113.100	0.420	-0.520	1.040
2020/01/31 12:24:44.3	113.090	0.430	-0.510	1.050
2020/01/31 12:24:44.4	113.100	0.430	-0.500	1.060
2020/01/31 12:24:44.5	113.090	0.440	-0.490	1.060
2020/01/31 12:24:44.6	113.090	0.450	-0.480	1.070
2020/01/31 12:24:44.7	113.100	0.450	-0.460	1.080
2020/01/31 12:24:44.8	113.100	0.460	-0.450	1.090
2020/01/31 12:24:44.9	113.110	0.460	-0.440	1.090
2020/01/31 12:24:45.0	113.120	0.460	-0.430	1.100
2020/01/31 12:24:45.1	113.130	0.460	-0.420	1.100
2020/01/31 12:24:45.2	113.140	0.470	-0.420	1.110
2020/01/31 12:24:45.3	113.150	0.470	-0.410	1.110
2020/01/31 12:24:45.4	113.160	0.470	-0.410	1.110
2020/01/31 12:24:45.5	113.180	0.470	-0.400	1.120
2020/01/31 12:24:45.6	113.170	0.470	-0.400	1.120
2020/01/31 12:24:45.7	113.190	0.470	-0.400	1.120
2020/01/31 12:24:45.8	113.200	0.460	-0.400	1.120
2020/01/31 12:24:45.9	113.220	0.460	-0.400	1.120
2020/01/31 12:24:46.0	113.240	0.460	-0.410	1.120
2020/01/31 12:24:46.1	113.250	0.460	-0.410	1.120
2020/01/31 12:24:46.2	113.270	0.460	-0.420	1.120
2020/01/31 12:24:46.3	113.280	0.450	-0.420	1.120
2020/01/31 12:24:46.4	113.300	0.450	-0.430	1.120
2020/01/31 12:24:46.5	113.320	0.440	-0.430	1.110
2020/01/31 12:24:46.6	113.320	0.440	-0.440	1.110
2020/01/31 12:24:46.7	113.340	0.430	-0.440	1.110
2020/01/31 12:24:46.8	113.360	0.430	-0.440	1.100
2020/01/31 12:24:46.9	113.370	0.420	-0.440	1.100
2020/01/31 12:24:47.0	113.390	0.410	-0.440	1.090
2020/01/31 12:24:47.1	113.400	0.400	-0.440	1.090
2020/01/31 12:24:47.2	113.420	0.390	-0.430	1.080
2020/01/31 12:24:47.3	113.440	0.370	-0.420	1.070
2020/01/31 12:24:47.4	113.450	0.360	-0.400	1.070
2020/01/31 12:24:47.5	113.470	0.340	-0.380	1.060
2020/01/31 12:24:47.6	113.490	0.320	-0.360	1.050
2020/01/31 12:24:47.7	113.500	0.310	-0.330	1.040
2020/01/31 12:24:47.8	113.520	0.280	-0.300	1.030
2020/01/31 12:24:47.9	113.540	0.260	-0.270	1.030
2020/01/31 12:24:48.0	113.560	0.240	-0.230	1.020
2020/01/31 12:24:48.1	113.570	0.210	-0.190	1.020
2020/01/31 12:24:48.2	113.590	0.180	-0.150	1.010
2020/01/31 12:24:48.3	113.610	0.150	-0.100	1.010
2020/01/31 12:24:48.4	113.630	0.120	-0.050	1.000
2020/01/31 12:24:48.5	113.630	0.080	0.010	1.000
2020/01/31 12:24:48.6	113.640	0.050	0.070	1.000
2020/01/31 12:24:48.7	113.660	0.010	0.130	0.990
2020/01/31 12:24:48.8	113.680	-0.030	0.190	0.990
2020/01/31 12:24:48.9	113.700	-0.070	0.250	0.990
2020/01/31 12:24:49.0	113.710	-0.110	0.310	0.990
2020/01/31 12:24:49.1	113.730	-0.150	0.380	1.000
2020/01/31 12:24:49.2	113.740	-0.190	0.440	1.000
2020/01/31 12:24:49.3	113.760	-0.240	0.500	1.000
2020/01/31 12:24:49.4	113.770	-0.280	0.550	1.010
2020/01/31 12:24:49.5	113.790	-0.330	0.610	1.010
2020/01/31 12:24:49.6	113.790	-0.370	0.660	1.020
2020/01/31 12:24:49.7	113.800	-0.410	0.710	1.030
2020/01/31 12:24:49.8	113.810	-0.460	0.750	1.040
2020/01/31 12:24:49.9	113.820	-0.500	0.790	1.050
2020/01/31 12:24:50.0	113.830	-0.540	0.820	1.050
2020/01/31 12:24:50.1	113.840	-0.580	0.850	1.070
2020/01/31 12:24:50.2	113.850	-0.610	0.870	1.080
2020/01/31 12:24:50.3	113.860	-0.650	0.880	1.090
2020/01/31 12:24:50.4	113.860	-0.680	0.890	1.100
2020/01/31 12:24:50.5	113.870	-0.710	0.890	1.110
2020/01/31 12:24:50.6	113.880	-0.740	0.890	1.120
2020/01/31 12:24:50.7	113.890	-0.770	0.880	1.140
2020/01/31 12:24:50.8	113.890	-0.790	0.850	1.150
2020/01/31 12:24:50.9	113.900	-0.810	0.830	1.170
2020/01/31 12:24:51.0	113.900	-0.820	0.800	1.180
2020/01/31 12:24:51.1	113.910	-0.830	0.760	1.200
2020/01/31 12:24:51.2	113.910	-0.840	0.710	1.210
2020/01/31 12:24:51.3	113.920	-0.840	0.650	1.230
2020/01/31 12:24:51.4	113.920	-0.840	0.600	1.240
2020/01/31 12:24:51.5	113.920	-0.830	0.530	1.260
2020/01/31 12:24:51.6	113.920	-0.820	0.460	1.270
2020/01/31 12:24:51.7	113.930	-0.810	0.380	1.290
2020/01/31 12:24:51.8	113.930	-0.790	0.300	1.300
2020/01/31 12:24:51.9	113.930	-0.760	0.210	1.320
2020/01/31 12:24:52.0	113.940	-0.740	0.120	1.330
2020/01/31 12:24:52.1	113.940	-0.700	0.020	1.350
2020/01/31 12:24:52.2	113.940	-0.670	-0.080	1.370
2020/01/31 12:24:52.3	113.940	-0.630	-0.180	1.380
2020/01/31 12:24:52.4	113.940	-0.580	-0.290	1.400
2020/01/31 12:24:52.5	113.940	-0.540	-0.390	1.420
2020/01/31 12:24:52.6	113.930	-0.490	-0.500	1.430
2020/01/31 12:24:52.7	113.930	-0.430	-0.610	1.450
2020/01/31 12:24:52.8	113.930	-0.380	-0.720	1.460
2020/01/31 12:24:52.9	113.930	-0.320	-0.830	1.480
2020/01/31 12:24:53.0	113.930	-0.260	-0.930	1.500
2020/01/31 12:24:53.1	113.940	-0.190	-1.030	1.510
2020/01/31 12:24:53.2	113.940	-0.130	-1.130	1.530
2020/01/31 12:24:53.3	113.940	-0.070	-1.230	1.540
2020/01/31 12:24:53.4	113.940	-0.000	-1.320	1.550
2020/01/31 12:24:53.5	113.950	0.060	-1.400	1.570
2020/01/31 12:24:53.6	113.960	0.130	-1.480	1.580
2020/01/31 12:24:53.7	113.960	0.190	-1.550	1.580
2020/01/31 12:24:53.8	113.970	0.250	-1.610	1.590
2020/01/31 12:24:53.9	113.980	0.310	-1.660	1.590
2020/01/31 12:24:54.0	113.980	0.370	-1.710	1.590
2020/01/31 12:24:54.1	113.990	0.420	-1.750	1.590
2020/01/31 12:24:54.2	114.000	0.480	-1.770	1.590
2020/01/31 12:24:54.3	114.010	0.520	-1.790	1.590
2020/01/31 12:24:54.4	114.020	0.570	-1.790	1.590
2020/01/31 12:24:54.5	114.030	0.610	-1.790	1.580
2020/01/31 12:24:54.6	114.040	0.650	-1.770	1.570
2020/01/31 12:24:54.7	114.050	0.680	-1.750	1.560
2020/01/31 12:24:54.8	114.050	0.700	-1.710	1.560
2020/01/31 12:24:54.9	114.060	0.730	-1.670	1.550
2020/01/31 12:24:55.0	114.070	0.740	-1.610	1.530
2020/01/31 12:24:55.1	114.070	0.750	-1.540	1.520
2020/01/31 12:24:55.2	114.070	0.760	-1.470	1.510
2020/01/31 12:24:55.3	114.070	0.760	-1.380	1.500
2020/01/31 12:24:55.4	114.070	0.760	-1.290	1.480
2020/01/31 12:24:55.5	114.070	0.750	-1.180	1.460
2020/01/31 12:24:55.6	114.080	0.730	-1.070	1.450
2020/01/31 12:24:55.7	114.070	0.710	-0.950	1.430
2020/01/31 12:24:55.8	114.070	0.690	-0.830	1.420
2020/01/31 12:24:55.9	114.060	0.660	-0.700	1.390
2020/01/31 12:24:56.0	114.050	0.630	-0.570	1.370
2020/01/31 12:24:56.1	114.040	0.590	-0.430	1.350
2020/01/31 12:24:56.2	114.040	0.550	-0.290	1.330
2020/01/31 12:24:56.3	114.030	0.510	-0.150	1.300
2020/01/31 12:24:56.4	114.020	0.460	-0.010	1.280
2020/01/31 12:24:56.5	114.000	0.410	0.140	1.260
2020/01/31 12:24:56.6	113.990	0.360	0.280	1.230
2020/01/31 12:24:56.7	113.980	0.310	0.420	1.210
2020/01/31 12:24:56.8	113.970	0.250	0.560	1.180
2020/01/31 12:24:56.9	113.960	0.200	0.690	1.160
2020/01/31 12:24:57.0	113.950	0.140	0.820	1.130
2020/01/31 12:24:57.1	113.940	0.090	0.940	1.110
2020/01/31 12:24:57.2	113.940	0.030	1.060	1.080
2020/01/31 12:24:57.3	113.930	-0.030	1.170	1.060
2020/01/31 12:24:57.4	113.920	-0.080	1.270	1.040
2020/01/31 12:24:57.5	113.930	-0.130	1.360	1.010
2020/01/31 12:24:57.6	113.930	-0.190	1.450	0.990
2020/01/31 12:24:57.7	113.930	-0.240	1.520	0.960
2020/01/31 12:24:57.8	113.930	-0.280	1.580	0.940
2020/01/31 12:24:57.9	113.930	-0.330	1.630	0.910
2020/01/31 12:24:58.0	113.940	-0.370	1.680	0.890
2020/01/31 12:24:58.1	113.940	-0.410	1.710	0.870
2020/01/31 12:24:58.2	113.950	-0.440	1.720	0.840
2020/01/31 12:24:58.3	113.960	-0.470	1.730	0.820
2020/01/31 12:24:58.4	113.980	-0.500	1.730	0.800
2020/01/31 12:24:58.5	114.020	-0.520	1.710	0.770
2020/01/31 12:24:58.6	114.030	-0.540	1.690	0.750
2020/01/31 12:24:58.7	114.050	-0.560	1.650	0.730
2020/01/31 12:24:58.8	114.070	-0.570	1.600	0.710
2020/01/31 12:24:58.9	114.080	-0.570	1.540	0.690
2020/01/31 12:24:59.0	114.100	-0.580	1.470	0.670
2020/01/31 12:24:59.1	114.120	-0.570	1.390	0.650
2020/01/31 12:24:59.2	114.140	-0.570	1.300	0.630
2020/01/31 12:24:59.3	114.160	-0.560	1.200	0.620
2020/01/31 12:24:59.4	114.180	-0.550	1.100	0.600
2020/01/31 12:24:59.5	114.200	-0.530	0.990	0.580
2020/01/31 12:24:59.6	114.220	-0.510	0.860	0.570
2020/01/31 12:24:59.7	114.230	-0.490	0.740	0.550
2020/01/31 12:24:59.8	114.250	-0.460	0.610	0.540
2020/01/31 12:24:59.9	114.270	-0.440	0.480	0.530
2020/01/31 12:25:00.0	114.290	-0.410	0.350	0.510
2020/01/31 12:25:00.1	114.300	-0.370	0.210	0.500
2020/01/31 12:25:00.2	114.320	-0.340	0.070	0.490
2020/01/31 12:25:00.3	114.330	-0.300	-0.060	0.480
2020/01/31 12:25:00.4	114.350	-0.260	-0.200	0.470
2020/01/31 12:25:00.5	114.360	-0.220	-0.330	0.460
2020/01/31 12:25:00.6	114.380	-0.180	-0.460	0.450
2020/01/31 12:25:00.7	114.380	-0.140	-0.590	0.440
2020/01/31 12:25:00.8	114.390	-0.100	-0.720	0.440
2020/01/31 12:25:00.9	114.400	-0.060	-0.840	0.440
2020/01/31 12:25:01.0	114.400	-0.010	-0.960	0.440
2020/01/31 12:25:01.1	114.400	0.030	-1.070	0.450
2020/01/31 12:25:01.2	114.400	0.070	-1.170	0.450
2020/01/31 12:25:01.3	114.400	0.110	-1.270	0.460
2020/01/31 12:25:01.4	114.390	0.150	-1.360	0.470
2020/01/31 12:25:01.5	114.390	0.190	-1.440	0.490
2020/01/31 12:25:01.6	114.380	0.230	-1.510	0.510
2020/01/31 12:25:01.7	114.370	0.270	-1.580	0.520
2020/01/31 12:25:01.8	114.360	0.310	-1.640	0.550
2020/01/31 12:25:01.9	114.350	0.340	-1.680	0.570
2020/01/31 12:25:02.0	114.340	0.370	-1.720	0.600
2020/01/31 12:25:02.1	114.330	0.400	-1.750	0.620
2020/01/31 12:25:02.2	114.310	0.430	-1.770	0.650
2020/01/31 12:25:02.3	114.300	0.460	-1.780	0.680
2020/01/31 12:25:02.4	114.280	0.480	-1.780	0.720
2020/01/31 12:25:02.5	114.270	0.510	-1.780	0.750
2020/01/31 12:25:02.6	114.260	0.520	-1.760	0.790
2020/01/31 12:25:02.7	114.240	0.540	-1.730	0.830
2020/01/31 12:25:02.8	114.230	0.560	-1.700	0.870
2020/01/31 12:25:02.9	114.220	0.570	-1.660	0.910
2020/01/31 12:25:03.0	114.210	0.580	-1.610	0.950
2020/01/31 12:25:03.1	114.190	0.580	-1.550	1.000
2020/01/31 12:25:03.2	114.180	0.580	-1.490	1.050
2020/01/31 12:25:03.3	114.170	0.580	-1.420	1.090
2020/01/31 12:25:03.4	114.160	0.580	-1.350	1.140
2020/01/31 12:25:03.5	114.150	0.570	-1.270	1.190
2020/01/31 12:25:03.6	114.160	0.570	-1.190	1.240
2020/01/31 12:25:03.7	114.150	0.550	-1.100	1.290
2020/01/31 12:25:03.8	114.140	0.540	-1.010	1.350
2020/01/31 12:25:03.9	114.140	0.520	-0.920	1.400
2020/01/31 12:25:04.0	114.130	0.500	-0.830	1.450
2020/01/31 12:25:04.1	114.120	0.480	-0.730	1.510
2020/01/31 12:25:04.2	114.120	0.460	-0.640	1.570
2020/01/31 12:25:04.3	114.110	0.430	-0.540	1.620
2020/01/31 12:25:04.4	114.110	0.400	-0.450	1.680
2020/01/31 12:25:04.5	114.100	0.370	-0.360	1.740
2020/01/31 12:25:04.6	114.090	0.330	-0.260	1.790
2020/01/31 12:25:04.7	114.090	0.300	-0.170	1.850
2020/01/31 12:25:04.8	114.090	0.260	-0.080	1.900
2020/01/31 12:25:04.9	114.090	0.220	0.010	1.950
2020/01/31 12:25:05.0	114.090	0.180	0.100	2.000
2020/01/31 12:25:05.1	114.090	0.130	0.180	2.050
2020/01/31 12:25:05.2	114.090	0.090	0.270	2.090
2020/01/31 12:25:05.3	114.090	0.050	0.350	2.140
2020/01/31 12:25:05.4	114.090	-0.000	0.420	2.180
2020/01/31 12:25:05.5	114.090	-0.050	0.500	2.210
2020/01/31 12:25:05.6	114.100	-0.090	0.570	2.240
2020/01/31 12:25:05.7	114.100	-0.140	0.640	2.270
2020/01/31 12:25:05.8	114.110	-0.180	0.700	2.290
2020/01/31 12:25:05.9	114.110	-0.230	0.760	2.310
2020/01/31 12:25:06.0	114.120	-0.270	0.810	2.330
2020/01/31 12:25:06.1	114.120	-0.320	0.860	2.340
2020/01/31 12:25:06.2	114.130	-0.360	0.900	2.340
2020/01/31 12:25:06.3	114.130	-0.400	0.940	2.350
2020/01/31 12:25:06.4	114.140	-0.440	0.970	2.340
2020/01/31 12:25:06.5	114.150	-0.470	1.000	2.340
2020/01/31 12:25:06.6	114.150	-0.510	1.010	2.330
2020/01/31 12:25:06.7	114.160	-0.540	1.030	2.310
2020/01/31 12:25:06.8	114.160	-0.570	1.030	2.290
2020/01/31 12:25:06.9	114.170	-0.600	1.030	2.260
2020/01/31 12:25:07.0	114.170	-0.620	1.020	2.230
2020/01/31 12:25:07.1	114.180	-0.640	1.010	2.200
2020/01/31 12:25:07.2	114.180	-0.660	0.990	2.160
2020/01/31 12:25:07.3	114.190	-0.670	0.960	2.120
2020/01/31 12:25:07.4	114.190	-0.690	0.920	2.080
2020/01/31 12:25:07.5	114.190	-0.690	0.880	2.020
2020/01/31 12:25:07.6	114.190	-0.700	0.830	1.970
2020/01/31 12:25:07.7	114.190	-0.700	0.770	1.920
2020/01/31 12:25:07.8	114.190	-0.690	0.710	1.870
2020/01/31 12:25:07.9	114.190	-0.690	0.640	1.810
2020/01/31 12:25:08.0	114.190	-0.680	0.560	1.750
2020/01/31 12:25:08.1	114.180	-0.660	0.480	1.690
2020/01/31 12:25:08.2	114.180	-0.640	0.400	1.630
2020/01/31 12:25:08.3	114.170	-0.620	0.310	1.570
2020/01/31 12:25:08.4	114.160	-0.600	0.220	1.510
2020/01/31 12:25:08.5	114.140	-0.570	0.130	1.440
2020/01/31 12:25:08.6	114.130	-0.540	0.030	1.380
2020/01/31 12:25:08.7	114.120	-0.510	-0.060	1.320
2020/01/31 12:25:08.8	114.120	-0.470	-0.160	1.260
2020/01/31 12:25:08.9	114.110	-0.440	-0.250	1.190
2020/01/31 12:25:09.0	114.100	-0.400	-0.340	1.130
2020/01/31 12:25:09.1	114.090	-0.360	-0.430	1.070
2020/01/31 12:25:09.2	114.080	-0.320	-0.520	1.010
2020/01/31 12:25:09.3	114.070	-0.280	-0.600	0.950
2020/01/31 12:25:09.4	114.070	-0.240	-0.670	0.890
2020/01/31 12:25:09.5	114.070	-0.200	-0.740	0.830
2020/01/31 12:25:09.6	114.070	-0.160	-0.810	0.770
2020/01/31 12:25:09.7	114.080	-0.120	-0.860	0.720
2020/01/31 12:25:09.8	114.080	-0.080	-0.910	0.670
2020/01/31 12:25:09.9	114.080	-0.040	-0.950	0.610
2020/01/31 12:25:10.0	114.090	-0.000	-0.990	0.560
2020/01/31 12:25:10.1	114.100	0.030	-1.010	0.520
2020/01/31 12:25:10.2	114.110	0.060	-1.030	0.470
2020/01/31 12:25:10.3	114.120	0.090	-1.030	0.420
2020/01/31 12:25:10.4	114.140	0.120	-1.030	0.380
2020/01/31 12:25:10.5	114.150	0.150	-1.020	0.340
2020/01/31 12:25:10.6	114.180	0.170	-1.000	0.310
2020/01/31 12:25:10.7	114.200	0.190	-0.980	0.270
2020/01/31 12:25:10.8	114.220	0.210	-0.950	0.240
2020/01/31 12:25:10.9	114.240	0.230	-0.910	0.210
2020/01/31 12:25:11.0	114.260	0.240	-0.870	0.180
2020/01/31 12:25:11.1	114.280	0.250	-0.820	0.150
2020/01/31 12:25:11.2	114.300	0.260	-0.770	0.120
2020/01/31 12:25:11.3	114.320	0.270	-0.710	0.100
2020/01/31 12:25:11.4	114.340	0.280	-0.650	0.080
2020/01/31 12:25:11.5	114.350	0.280	-0.590	0.070
2020/01/31 12:25:11.6	114.370	0.280	-0.530	0.050
2020/01/31 12:25:11.7	114.390	0.290	-0.470	0.030
2020/01/31 12:25:11.8	114.410	0.290	-0.400	0.010
2020/01/31 12:25:11.9	114.420	0.280	-0.340	-0.010
2020/01/31 12:25:12.0	114.440	0.280	-0.280	-0.020
2020/01/31 12:25:12.1	114.460	0.280	-0.220	-0.040
2020/01/31 12:25:12.2	114.470	0.280	-0.160	-0.060
2020/01/31 12:25:12.3	114.490	0.270	-0.110	-0.070
2020/01/31 12:25:12.4	114.510	0.270	-0.060	-0.090
2020/01/31 12:25:12.5	114.520	0.270	-0.010	-0.100
2020/01/31 12:25:12.6	114.540	0.260	0.040	-0.120
2020/01/31 12:25:12.7	114.550	0.260	0.070	-0.140
2020/01/31 12:25:12.8	114.560	0.260	0.110	-0.150
2020/01/31 12:25:12.9	114.570	0.250	0.140	-0.160
2020/01/31 12:25:13.0	114.580	0.250	0.160	-0.170
2020/01/31 12:25:13.1	114.590	0.250	0.180	-0.180
2020/01/31 12:25:13.2	114.600	0.250	0.190	-0.190
2020/01/31 12:25:13.3	114.600	0.250	0.200	-0.190
2020/01/31 12:25:13.4	114.610	0.250	0.200	-0.190
2020/01/31 12:25:13.5	114.610	0.240	0.200	-0.190
2020/01/31 12:25:13.6	114.600	0.240	0.200	-0.190
2020/01/31 12:25:13.7	114.600	0.240	0.190	-0.180
2020/01/31 12:25:13.8	114.600	0.240	0.170	-0.170
2020/01/31 12:25:13.9	114.590	0.240	0.150	-0.160
2020/01/31 12:25:14.0	114.590	0.240	0.130	-0.140
2020/01/31 12:25:14.1	114.580	0.240	0.110	-0.120
2020/01/31 12:25:14.2	114.570	0.240	0.080	-0.090
2020/01/31 12:25:14.3	114.560	0.240	0.050	-0.060
2020/01/31 12:25:14.4	114.540	0.240	0.020	-0.030
2020/01/31 12:25:14.5	114.540	0.230	-0.010	0.010
2020/01/31 12:25:14.6	114.520	0.230	-0.040	0.050
2020/01/31 12:25:14.7	114.510	0.220	-0.070	0.100
2020/01/31 12:25:14.8	114.490	0.220	-0.090	0.150
2020/01/31 12:25:14.9	114.470	0.210	-0.120	0.210
2020/01/31 12:25:15.0	114.450	0.200	-0.150	0.270
2020/01/31 12:25:15.1	114.430	0.190	-0.170	0.330
2020/01/31 12:25:15.2	114.410	0.180	-0.190	0.400
2020/01/31 12:25:15.3	114.390	0.160	-0.200	0.470
2020/01/31 12:25:15.4	114.370	0.150	-0.220	0.540
2020/01/31 12:25:15.5	114.350	0.130	-0.230	0.620
2020/01/31 12:25:15.6	114.330	0.120	-0.230	0.710
2020/01/31 12:25:15.7	114.310	0.100	-0.240	0.790
2020/01/31 12:25:15.8	114.290	0.080	-0.240	0.880
2020/01/31 12:25:15.9	114.270	0.060	-0.230	0.960
2020/01/31 12:25:16.0	114.250	0.030	-0.230	1.050
2020/01/31 12:25:16.1	114.240	0.010	-0.220	1.140
2020/01/31 12:25:16.2	114.220	-0.010	-0.200	1.230
2020/01/31 12:25:16.3	114.210	-0.040	-0.190	1.320
2020/01/31 12:25:16.4	114.190	-0.060	-0.170	1.410
2020/01/31 12:25:16.5	114.180	-0.090	-0.150	1.500
2020/01/31 12:25:16.6	114.170	-0.110	-0.130	1.580
2020/01/31 12:25:16.7	114.160	-0.140	-0.110	1.670
2020/01/31 12:25:16.8	114.150	-0.160	-0.090	1.750
2020/01/31 12:25:16.9	114.140	-0.180	-0.070	1.830
2020/01/31 12:25:17.0	114.130	-0.200	-0.050	1.900
2020/01/31 12:25:17.1	114.130	-0.220	-0.030	1.980
2020/01/31 12:25:17.2	114.130	-0.240	-0.010	2.050
2020/01/31 12:25:17.3	114.120	-0.260	0.010	2.110
2020/01/31 12:25:17.4	114.120	-0.280	0.020	2.170
2020/01/31 12:25:17.5	114.130	-0.290	0.030	2.230
2020/01/31 12:25:17.6	114.130	-0.300	0.040	2.290
2020/01/31 12:25:17.7	114.140	-0.310	0.040	2.340
2020/01/31 12:25:17.8	114.140	-0.310	0.040	2.380
2020/01/31 12:25:17.9	114.140	-0.320	0.040	2.430
2020/01/31 12:25:18.0	114.150	-0.320	0.030	2.460
2020/01/31 12:25:18.1	114.160	-0.310	0.020	2.490
2020/01/31 12:25:18.2	114.160	-0.310	0.000	2.520
2020/01/31 12:25:18.3	114.170	-0.300	-0.010	2.540
2020/01/31 12:25:18.4	114.180	-0.290	-0.040	2.560
2020/01/31 12:25:18.5	114.210	-0.270	-0.060	2.580
2020/01/31 12:25:18.6	114.220	-0.260	-0.090	2.590
2020/01/31 12:25:18.7	114.230	-0.240	-0.120	2.590
2020/01/31 12:25:18.8	114.240	-0.220	-0.160	2.590
2020/01/31 12:25:18.9	114.250	-0.200	-0.200	2.590
2020/01/31 12:25:19.0	114.260	-0.170	-0.230	2.590
2020/01/31 12:25:19.1	114.270	-0.140	-0.270	2.580
2020/01/31 12:25:19.2	114.280	-0.120	-0.310	2.570
2020/01/31 12:25:19.3	114.300	-0.090	-0.350	2.550
2020/01/31 12:25:19.4	114.310	-0.060	-0.390	2.530
2020/01/31 12:25:19.5	114.290	-0.030	-0.420	2.510
2020/01/31 12:25:19.6	114.310	-0.000	-0.460	2.480
2020/01/31 12:25:19.7	114.320	0.030	-0.490	2.460
2020/01/31 12:25:19.8	114.330	0.060	-0.520	2.430
2020/01/31 12:25:19.9	114.350	0.080	-0.550	2.390
2020/01/31 12:25:20.0	114.360	0.110	-0.570	2.360
2020/01/31 12:25:20.1	114.380	0.130	-0.600	2.320
2020/01/31 12:25:20.2	114.400	0.160	-0.610	2.280
2020/01/31 12:25:20.3	114.410	0.180	-0.630	2.240
2020/01/31 12:25:20.4	114.430	0.200	-0.640	2.200
2020/01/31 12:25:20.5	114.440	0.210	-0.640	2.160
2020/01/31 12:25:20.6	114.480	0.230	-0.640	2.110
2020/01/31 12:25:20.7	114.490	0.240	-0.640	2.070
2020/01/31 12:25:20.8	114.510	0.250	-0.630	2.030
2020/01/31 12:25:20.9	114.520	0.250	-0.620	1.980
2020/01/31 12:25:21.0	114.540	0.260	-0.610	1.940
2020/01/31 12:25:21.1	114.550	0.260	-0.590	1.900
2020/01/31 12:25:21.2	114.570	0.250	-0.560	1.860
2020/01/31 12:25:21.3	114.580	0.250	-0.540	1.810
2020/01/31 12:25:21.4	114.590	0.240	-0.500	1.780
2020/01/31 12:25:21.5	114.600	0.230	-0.470	1.740
2020/01/31 12:25:21.6	114.610	0.220	-0.430	1.700
2020/01/31 12:25:21.7	114.620	0.210	-0.390	1.670
2020/01/31 12:25:21.8	114.630	0.190	-0.350	1.640
2020/01/31 12:25:21.9	114.630	0.170	-0.310	1.610
2020/01/31 12:25:22.0	114.640	0.160	-0.260	1.580
2020/01/31 12:25:22.1	114.640	0.130	-0.210	1.550
2020/01/31 12:25:22.2	114.640	0.110	-0.160	1.520
2020/01/31 12:25:22.3	114.640	0.090	-0.110	1.490
2020/01/31 12:25:22.4	114.630	0.070	-0.060	1.470
2020/01/31 12:25:22.5	114.610	0.040	-0.000	1.440
2020/01/31 12:25:22.6	114.600	0.020	0.050	1.420
2020/01/31 12:25:22.7	114.600	-0.010	0.100	1.390
2020/01/31 12:25:22.8	114.590	-0.030	0.150	1.370
2020/01/31 12:25:22.9	114.580	-0.060	0.190	1.350
2020/01/31 12:25:23.0	114.570	-0.080	0.240	1.320
2020/01/31 12:25:23.1	114.560	-0.110	0.280	1.300
2020/01/31 12:25:23.2	114.550	-0.130	0.320	1.280
2020/01/31 12:25:23.3	114.540	-0.150	0.360	1.250
2020/01/31 12:25:23.4	114.530	-0.170	0.390	1.230
2020/01/31 12:25:23.5	114.510	-0.190	0.410	1.200
2020/01/31 12:25:23.6	114.500	-0.210	0.440	1.180
2020/01/31 12:25:23.7	114.490	-0.230	0.460	1.150
2020/01/31 12:25:23.8	114.480	-0.240	0.470	1.120
2020/01/31 12:25:23.9	114.460	-0.260	0.480	1.090
2020/01/31 12:25:24.0	114.450	-0.270	0.490	1.060
2020/01/31 12:25:24.1	114.430	-0.280	0.490	1.030
2020/01/31 12:25:24.2	114.420	-0.280	0.480	1.000
2020/01/31 12:25:24.3	114.400	-0.290	0.470	0.960
2020/01/31 12:25:24.4	114.390	-0.290	0.460	0.930
2020/01/31 12:25:24.5	114.360	-0.300	0.440	0.900
2020/01/31 12:25:24.6	114.350	-0.300	0.410	0.860
2020/01/31 12:25:24.7	114.330	-0.290	0.380	0.830
2020/01/31 12:25:24.8	114.310	-0.290	0.350	0.790
2020/01/31 12:25:24.9	114.290	-0.280	0.310	0.760
2020/01/31 12:25:25.0	114.280	-0.280	0.270	0.720
2020/01/31 12:25:25.1	114.260	-0.270	0.230	0.690
2020/01/31 12:25:25.2	114.240	-0.250	0.180	0.660
2020/01/31 12:25:25.3	114.220	-0.240	0.120	0.620
2020/01/31 12:25:25.4	114.200	-0.230	0.070	0.590
2020/01/31 12:25:25.5	114.180	-0.210	0.010	0.560
2020/01/31 12:25:25.6	114.160	-0.190	-0.040	0.520
2020/01/31 12:25:25.7	114.140	-0.180	-0.100	0.490
2020/01/31 12:25:25.8	114.120	-0.160	-0.170	0.460
2020/01/31 12:25:25.9	114.100	-0.140	-0.230	0.440
2020/01/31 12:25:26.0	114.080	-0.120	-0.290	0.410
2020/01/31 12:25:26.1	114.060	-0.090	-0.350	0.380
2020/01/31 12:25:26.2	114.040	-0.070	-0.410	0.360
2020/01/31 12:25:26.3	114.020	-0.050	-0.470	0.340
2020/01/31 12:25:26.4	114.000	-0.030	-0.520	0.320
2020/01/31 12:25:26.5	113.990	-0.010	-0.580	0.300
2020/01/31 12:25:26.6	113.980	0.010	-0.630	0.280
2020/01/31 12:25:26.7	113.970	0.030	-0.680	0.260
2020/01/31 12:25:26.8	113.960	0.050	-0.720	0.240
2020/01/31 12:25:26.9	113.950	0.070	-0.760	0.230
2020/01/31 12:25:27.0	113.940	0.090	-0.800	0.210
2020/01/31 12:25:27.1	113.940	0.100	-0.830	0.200
2020/01/31 12:25:27.2	113.940	0.120	-0.860	0.190
2020/01/31 12:25:27.3	113.940	0.130	-0.880	0.180
2020/01/31 12:25:27.4	113.940	0.150	-0.900	0.170
2020/01/31 12:25:27.5	113.940	0.160	-0.910	0.160
2020/01/31 12:25:27.6	113.940	0.170	-0.920	0.160
2020/01/31 12:25:27.7	113.950	0.170	-0.920	0.150
2020/01/31 12:25:27.8	113.960	0.180	-0.910	0.140
2020/01/31 12:25:27.9	113.970	0.180	-0.900	0.140
2020/01/31 12:25:28.0	113.980	0.180	-0.890	0.140
2020/01/31 12:25:28.1	113.990	0.180	-0.870	0.140
2020/01/31 12:25:28.2	114.010	0.180	-0.840	0.140
2020/01/31 12:25:28.3	114.030	0.180	-0.810	0.140
2020/01/31 12:25:28.4	114.040	0.170	-0.770	0.140
2020/01/31 12:25:28.5	114.050	0.170	-0.730	0.140
2020/01/31 12:25:28.6	114.070	0.160	-0.690	0.150
2020/01/31 12:25:28.7	114.080	0.150	-0.640	0.150
2020/01/31 12:25:28.8	114.100	0.140	-0.590	0.160
2020/01/31 12:25:28.9	114.120	0.130	-0.530	0.170
2020/01/31 12:25:29.0	114.140	0.110	-0.470	0.190
2020/01/31 12:25:29.1	114.160	0.100	-0.410	0.200
2020/01/31 12:25:29.2	114.180	0.080	-0.350	0.220
2020/01/31 12:25:29.3	114.200	0.070	-0.290	0.240
2020/01/31 12:25:29.4	114.210	0.050	-0.230	0.260
2020/01/31 12:25:29.5	114.230	0.030	-0.160	0.290
2020/01/31 12:25:29.6	114.250	0.020	-0.100	0.320
2020/01/31 12:25:29.7	114.260	-0.000	-0.040	0.350
2020/01/31 12:25:29.8	114.280	-0.020	0.020	0.390
2020/01/31 12:25:29.9	114.290	-0.030	0.080	0.420
2020/01/31 12:25:30.0	114.310	-0.050	0.140	0.470
2020/01/31 12:25:30.1	114.320	-0.070	0.190	0.510
2020/01/31 12:25:30.2	114.330	-0.080	0.240	0.560
2020/01/31 12:25:30.3	114.350	-0.100	0.290	0.600
2020/01/31 12:25:30.4	114.360	-0.110	0.330	0.660
2020/01/31 12:25:30.5	114.370	-0.120	0.370	0.710
2020/01/31 12:25:30.6	114.380	-0.130	0.410	0.770
2020/01/31 12:25:30.7	114.390	-0.140	0.440	0.830
2020/01/31 12:25:30.8	114.400	-0.150	0.470	0.890
2020/01/31 12:25:30.9	114.400	-0.150	0.490	0.950
2020/01/31 12:25:31.0	114.410	-0.160	0.500	1.010
2020/01/31 12:25:31.1	114.410	-0.160	0.510	1.070
2020/01/31 12:25:31.2	114.410	-0.160	0.510	1.130
2020/01/31 12:25:31.3	114.420	-0.160	0.510	1.190
2020/01/31 12:25:31.4	114.420	-0.160	0.500	1.260
2020/01/31 12:25:31.5	114.410	-0.150	0.480	1.320
2020/01/31 12:25:31.6	114.410	-0.140	0.460	1.380
2020/01/31 12:25:31.7	114.400	-0.140	0.440	1.440
2020/01/31 12:25:31.8	114.400	-0.130	0.410	1.500
2020/01/31 12:25:31.9	114.400	-0.110	0.380	1.550
2020/01/31 12:25:32.0	114.390	-0.100	0.340	1.610
2020/01/31 12:25:32.1	114.390	-0.090	0.300	1.660
2020/01/31 12:25:32.2	114.380	-0.070	0.260	1.710
2020/01/31 12:25:32.3	114.380	-0.060	0.220	1.760
2020/01/31 12:25:32.4	114.370	-0.040	0.170	1.800
2020/01/31 12:25:32.5	114.370	-0.020	0.120	1.840
2020/01/31 12:25:32.6	114.360	-0.000	0.080	1.880
2020/01/31 12:25:32.7	114.350	0.020	0.030	1.920
2020/01/31 12:25:32.8	114.340	0.030	-0.020	1.960
2020/01/31 12:25:32.9	114.330	0.050	-0.070	1.990
2020/01/31 12:25:33.0	114.320	0.070	-0.120	2.030
2020/01/31 12:25:33.1	114.310	0.090	-0.160	2.060
2020/01/31 12:25:33.2	114.290	0.110	-0.210	2.090
2020/01/31 12:25:33.3	114.280	0.130	-0.250	2.110
2020/01/31 12:25:33.4	114.260	0.140	-0.290	2.140
2020/01/31 12:25:33.5	114.250	0.160	-0.330	2.160
2020/01/31 12:25:33.6	114.220	0.180	-0.360	2.180
2020/01/31 12:25:33.7	114.200	0.190	-0.390	2.200
2020/01/31 12:25:33.8	114.190	0.210	-0.420	2.220
2020/01/31 12:25:33.9	114.170	0.220	-0.440	2.240
2020/01/31 12:25:34.0	114.150	0.230	-0.460	2.260
2020/01/31 12:25:34.1	114.130	0.240	-0.480	2.270
2020/01/31 12:25:34.2	114.110	0.250	-0.490	2.280
2020/01/31 12:25:34.3	114.090	0.260	-0.500	2.290
2020/01/31 12:25:34.4	114.070	0.270	-0.500	2.300
2020/01/31 12:25:34.5	114.040	0.280	-0.500	2.300
2020/01/31 12:25:34.6	114.030	0.280	-0.490	2.300
2020/01/31 12:25:34.7	114.010	0.290	-0.480	2.300
2020/01/31 12:25:34.8	113.990	0.290	-0.470	2.300
2020/01/31 12:25:34.9	113.970	0.290	-0.460	2.290
2020/01/31 12:25:35.0	113.950	0.290	-0.440	2.280
2020/01/31 12:25:35.1	113.940	0.290	-0.420	2.270
2020/01/31 12:25:35.2	113.920	0.290	-0.400	2.250
2020/01/31 12:25:35.3	113.900	0.280	-0.380	2.240
2020/01/31 12:25:35.4	113.890	0.280	-0.350	2.220
2020/01/31 12:25:35.5	113.880	0.270	-0.330	2.190
2020/01/31 12:25:35.6	113.860	0.260	-0.300	2.170
2020/01/31 12:25:35.7	113.850	0.250	-0.270	2.140
2020/01/31 12:25:35.8	113.840	0.240	-0.250	2.110
2020/01/31 12:25:35.9	113.840	0.220	-0.220	2.070
2020/01/31 12:25:36.0	113.830	0.210	-0.190	2.030
2020/01/31 12:25:36.1	113.830	0.190	-0.170	1.990
2020/01/31 12:25:36.2	113.820	0.180	-0.140	1.950
2020/01/31 12:25:36.3	113.820	0.160	-0.120	1.900
2020/01/31 12:25:36.4	113.820	0.140	-0.100	1.860
2020/01/31 12:25:36.5	113.830	0.120	-0.070	1.810
2020/01/31 12:25:36.6	113.830	0.100	-0.060	1.760
2020/01/31 12:25:36.7	113.840	0.080	-0.040	1.700
2020/01/31 12:25:36.8	113.840	0.060	-0.030	1.650
2020/01/31 12:25:36.9	113.850	0.040	-0.020	1.590
2020/01/31 12:25:37.0	113.860	0.020	-0.010	1.540
2020/01/31 12:25:37.1	113.870	-0.010	-0.000	1.480
2020/01/31 12:25:37.2	113.890	-0.030	0.000	1.430
2020/01/31 12:25:37.3	113.900	-0.050	-0.000	1.370
2020/01/31 12:25:37.4	113.920	-0.070	-0.000	1.310
2020/01/31 12:25:37.5	113.940	-0.090	-0.010	1.250
2020/01/31 12:25:37.6	113.950	-0.110	-0.020	1.200
2020/01/31 12:25:37.7	113.970	-0.120	-0.030	1.140
2020/01/31 12:25:37.8	114.000	-0.140	-0.040	1.080
2020/01/31 12:25:37.9	114.020	-0.160	-0.060	1.020
2020/01/31 12:25:38.0	114.040	-0.170	-0.070	0.970
2020/01/31 12:25:38.1	114.060	-0.190	-0.090	0.910
2020/01/31 12:25:38.2	114.080	-0.200	-0.110	0.860
2020/01/31 12:25:38.3	114.110	-0.210	-0.130	0.810
2020/01/31 12:25:38.4	114.130	-0.220	-0.160	0.760
2020/01/31 12:25:38.5	114.150	-0.230	-0.180	0.710
2020/01/31 12:25:38.6	114.180	-0.230	-0.200	0.660
2020/01/31 12:25:38.7	114.200	-0.240	-0.230	0.610
2020/01/31 12:25:38.8	114.220	-0.240	-0.250	0.570
2020/01/31 12:25:38.9	114.240	-0.250	-0.280	0.520
2020/01/31 12:25:39.0	114.260	-0.250	-0.300	0.480
2020/01/31 12:25:39.1	114.280	-0.250	-0.330	0.440
2020/01/31 12:25:39.2	114.300	-0.250	-0.350	0.410
2020/01/31 12:25:39.3	114.320	-0.250	-0.380	0.380
2020/01/31 12:25:39.4	114.330	-0.240	-0.400	0.350
2020/01/31 12:25:39.5	114.360	-0.240	-0.420	0.320
2020/01/31 12:25:39.6	114.370	-0.230	-0.440	0.300
2020/01/31 12:25:39.7	114.380	-0.230	-0.460	0.280
2020/01/31 12:25:39.8	114.390	-0.220	-0.480	0.260
2020/01/31 12:25:39.9	114.390	-0.210	-0.490	0.250
2020/01/31 12:25:40.0	114.400	-0.210	-0.510	0.240
2020/01/31 12:25:40.1	114.400	-0.200	-0.520	0.240
2020/01/31 12:25:40.2	114.400	-0.190	-0.530	0.240
2020/01/31 12:25:40.3	114.400	-0.180	-0.530	0.240
2020/01/31 12:25:40.4	114.400	-0.170	-0.540	0.250
2020/01/31 12:25:40.5	114.390	-0.160	-0.540	0.260
2020/01/31 12:25:40.6	114.390	-0.150	-0.540	0.290
2020/01/31 12:25:40.7	114.380	-0.140	-0.540	0.310
2020/01/31 12:25:40.8	114.370	-0.130	-0.530	0.330
2020/01/31 12:25:40.9	114.350	-0.120	-0.530	0.360
2020/01/31 12:25:41.0	114.340	-0.120	-0.520	0.400
2020/01/31 12:25:41.1	114.320	-0.110	-0.510	0.430
2020/01/31 12:25:41.2	114.300	-0.100	-0.490	0.480
2020/01/31 12:25:41.3	114.270	-0.090	-0.480	0.520
2020/01/31 12:25:41.4	114.250	-0.090	-0.460	0.570
2020/01/31 12:25:41.5	114.220	-0.080	-0.440	0.620
2020/01/31 12:25:41.6	114.190	-0.080	-0.410	0.670
2020/01/31 12:25:41.7	114.160	-0.080	-0.380	0.720
2020/01/31 12:25:41.8	114.130	-0.070	-0.360	0.780
2020/01/31 12:25:41.9	114.100	-0.070	-0.330	0.840
2020/01/31 12:25:42.0	114.070	-0.070	-0.290	0.890
2020/01/31 12:25:42.1	114.040	-0.070	-0.260	0.950
2020/01/31 12:25:42.2	114.020	-0.070	-0.220	1.010
2020/01/31 12:25:42.3	113.990	-0.070	-0.190	1.070
2020/01/31 12:25:42.4	113.960	-0.070	-0.150	1.120
2020/01/31 12:25:42.5	113.940	-0.070	-0.110	1.180
2020/01/31 12:25:42.6	113.910	-0.070	-0.070	1.230
2020/01/31 12:25:42.7	113.890	-0.070	-0.030	1.280
2020/01/31 12:25:42.8	113.870	-0.070	0.010	1.330
2020/01/31 12:25:42.9	113.850	-0.080	0.050	1.370
2020/01/31 12:25:43.0	113.820	-0.080	0.090	1.420
2020/01/31 12:25:43.1	113.810	-0.080	0.130	1.450
2020/01/31 12:25:43.2	113.790	-0.080	0.160	1.490
2020/01/31 12:25:43.3	113.770	-0.090	0.200	1.520
2020/01/31 12:25:43.4	113.760	-0.090	0.230	1.550
2020/01/31 12:25:43.5	113.750	-0.090	0.270	1.580
2020/01/31 12:25:43.6	113.740	-0.090	0.300	1.590
2020/01/31 12:25:43.7	113.730	-0.090	0.320	1.610
2020/01/31 12:25:43.8	113.720	-0.090	0.350	1.620
2020/01/31 12:25:43.9	113.720	-0.090	0.370	1.620
2020/01/31 12:25:44.0	113.710	-0.090	0.390	1.620
2020/01/31 12:25:44.1	113.710	-0.080	0.400	1.620
2020/01/31 12:25:44.2	113.700	-0.080	0.410	1.610
2020/01/31 12:25:44.3	113.700	-0.070	0.420	1.590
2020/01/31 12:25:44.4	113.700	-0.070	0.430	1.570
2020/01/31 12:25:44.5	113.700	-0.060	0.430	1.550
2020/01/31 12:25:44.6	113.700	-0.050	0.430	1.520
2020/01/31 12:25:44.7	113.700	-0.040	0.430	1.500
2020/01/31 12:25:44.8	113.710	-0.030	0.420	1.460
2020/01/31 12:25:44.9	113.720	-0.020	0.410	1.430
2020/01/31 12:25:45.0	113.720	-0.010	0.400	1.390
2020/01/31 12:25:45.1	113.730	0.000	0.380	1.360
2020/01/31 12:25:45.2	113.740	0.020	0.360	1.320
2020/01/31 12:25:45.3	113.760	0.030	0.340	1.270
2020/01/31 12:25:45.4	113.770	0.050	0.320	1.230
2020/01/31 12:25:45.5	113.780	0.060	0.290	1.190
2020/01/31 12:25:45.6	113.790	0.080	0.270	1.150
2020/01/31 12:25:45.7	113.810	0.090	0.240	1.100
2020/01/31 12:25:45.8	113.820	0.110	0.210	1.060
2020/01/31 12:25:45.9	113.840	0.130	0.170	1.020
2020/01/31 12:25:46.0	113.860	0.150	0.140	0.970
2020/01/31 12:25:46.1	113.870	0.170	0.100	0.930
2020/01/31 12:25:46.2	113.890	0.180	0.060	0.890
2020/01/31 12:25:46.3	113.910	0.200	0.020	0.850
2020/01/31 12:25:46.4	113.930	0.220	-0.020	0.820
2020/01/31 12:25:46.5	113.960	0.240	-0.060	0.780
2020/01/31 12:25:46.6	113.980	0.250	-0.100	0.740
2020/01/31 12:25:46.7	114.000	0.270	-0.150	0.710
2020/01/31 12:25:46.8	114.020	0.290	-0.190	0.680
2020/01/31 12:25:46.9	114.040	0.300	-0.230	0.650
2020/01/31 12:25:47.0	114.060	0.320	-0.270	0.630
2020/01/31 12:25:47.1	114.080	0.330	-0.320	0.600
2020/01/31 12:25:47.2	114.090	0.340	-0.360	0.580
2020/01/31 12:25:47.3	114.110	0.360	-0.400	0.560
2020/01/31 12:25:47.4	114.120	0.370	-0.440	0.540
2020/01/31 12:25:47.5	114.140	0.380	-0.480	0.530
2020/01/31 12:25:47.6	114.150	0.380	-0.520	0.520
2020/01/31 12:25:47.7	114.160	0.390	-0.550	0.510
2020/01/31 12:25:47.8	114.170	0.400	-0.590	0.510
2020/01/31 12:25:47.9	114.180	0.400	-0.620	0.500
2020/01/31 12:25:48.0	114.190	0.400	-0.650	0.500
2020/01/31 12:25:48.1	114.190	0.400	-0.680	0.510
2020/01/31 12:25:48.2	114.200	0.400	-0.710	0.510
2020/01/31 12:25:48.3	114.210	0.400	-0.730	0.520
2020/01/31 12:25:48.4	114.210	0.390	-0.750	0.530
2020/01/31 12:25:48.5	114.210	0.390	-0.760	0.550
2020/01/31 12:25:48.6	114.210	0.380	-0.780	0.570
2020/01/31 12:25:48.7	114.210	0.370	-0.790	0.590
2020/01/31 12:25:48.8	114.210	0.360	-0.800	0.620
2020/01/31 12:25:48.9	114.210	0.340	-0.810	0.650
2020/01/31 12:25:49.0	114.210	0.330	-0.810	0.690
2020/01/31 12:25:49.1	114.210	0.320	-0.810	0.720
2020/01/31 12:25:49.2	114.200	0.300	-0.810	0.770
2020/01/31 12:25:49.3	114.200	0.280	-0.800	0.810
2020/01/31 12:25:49.4	114.190	0.260	-0.790	0.860
2020/01/31 12:25:49.5	114.190	0.240	-0.780	0.920
2020/01/31 12:25:49.6	114.180	0.220	-0.770	0.970
2020/01/31 12:25:49.7	114.160	0.200	-0.750	1.030
2020/01/31 12:25:49.8	114.150	0.180	-0.730	1.090
2020/01/31 12:25:49.9	114.140	0.160	-0.710	1.150
2020/01/31 12:25:50.0	114.120	0.140	-0.690	1.210
2020/01/31 12:25:50.1	114.110	0.110	-0.670	1.280
2020/01/31 12:25:50.2	114.090	0.090	-0.640	1.340
2020/01/31 12:25:50.3	114.070	0.070	-0.610	1.400
2020/01/31 12:25:50.4	114.050	0.040	-0.580	1.470
2020/01/31 12:25:50.5	114.040	0.020	-0.540	1.530
2020/01/31 12:25:50.6	114.030	-0.010	-0.500	1.590
2020/01/31 12:25:50.7	114.010	-0.030	-0.460	1.640
2020/01/31 12:25:50.8	113.990	-0.050	-0.420	1.700
2020/01/31 12:25:50.9	113.970	-0.080	-0.380	1.750
2020/01/31 12:25:51.0	113.960	-0.100	-0.330	1.800
2020/01/31 12:25:51.1	113.940	-0.120	-0.290	1.850
2020/01/31 12:25:51.2	113.930	-0.150	-0.240	1.890
2020/01/31 12:25:51.3	113.920	-0.170	-0.190	1.940
2020/01/31 12:25:51.4	113.900	-0.190	-0.130	1.970
2020/01/31 12:25:51.5	113.890	-0.210	-0.080	2.010
2020/01/31 12:25:51.6	113.880	-0.230	-0.030	2.040
2020/01/31 12:25:51.7	113.870	-0.250	0.030	2.070
2020/01/31 12:25:51.8	113.860	-0.270	0.080	2.090
2020/01/31 12:25:51.9	113.850	-0.290	0.130	2.110
2020/01/31 12:25:52.0	113.850	-0.310	0.180	2.130
2020/01/31 12:25:52.1	113.840	-0.330	0.230	2.150
2020/01/31 12:25:52.2	113.830	-0.350	0.280	2.160
2020/01/31 12:25:52.3	113.820	-0.360	0.320	2.170
2020/01/31 12:25:52.4	113.820	-0.370	0.360	2.180
2020/01/31 12:25:52.5	113.810	-0.390	0.400	2.190
2020/01/31 12:25:52.6	113.800	-0.400	0.440	2.190
2020/01/31 12:25:52.7	113.790	-0.410	0.470	2.190
2020/01/31 12:25:52.8	113.790	-0.420	0.490	2.190
2020/01/31 12:25:52.9	113.780	-0.430	0.520	2.180
2020/01/31 12:25:53.0	113.770	-0.440	0.530	2.180
2020/01/31 12:25:53.1	113.760	-0.440	0.550	2.170
2020/01/31 12:25:53.2	113.750	-0.440	0.560	2.160
2020/01/31 12:25:53.3	113.750	-0.450	0.560	2.140
2020/01/31 12:25:53.4	113.740	-0.450	0.560	2.130
2020/01/31 12:25:53.5	113.730	-0.450	0.560	2.110
2020/01/31 12:25:53.6	113.720	-0.440	0.550	2.080
2020/01/31 12:25:53.7	113.720	-0.440	0.530	2.060
2020/01/31 12:25:53.8	113.710	-0.430	0.510	2.030
2020/01/31 12:25:53.9	113.700	-0.420	0.490	2.000
2020/01/31 12:25:54.0	113.700	-0.420	0.460	1.970
2020/01/31 12:25:54.1	113.690	-0.410	0.430	1.940
2020/01/31 12:25:54.2	113.690	-0.400	0.400	1.900
2020/01/31 12:25:54.3	113.690	-0.380	0.360	1.860
2020/01/31 12:25:54.4	113.690	-0.370	0.320	1.820
2020/01/31 12:25:54.5	113.690	-0.360	0.280	1.780
2020/01/31 12:25:54.6	113.700	-0.340	0.230	1.740
2020/01/31 12:25:54.7	113.700	-0.320	0.180	1.690
2020/01/31 12:25:54.8	113.710	-0.310	0.140	1.640
2020/01/31 12:25:54.9	113.710	-0.290	0.090	1.590
2020/01/31 12:25:55.0	113.720	-0.270	0.040	1.540
2020/01/31 12:25:55.1	113.730	-0.260	-0.010	1.490
2020/01/31 12:25:55.2	113.730	-0.240	-0.060	1.440
2020/01/31 12:25:55.3	113.740	-0.220	-0.110	1.380
2020/01/31 12:25:55.4	113.750	-0.200	-0.160	1.330
2020/01/31 12:25:55.5	113.760	-0.180	-0.210	1.280
2020/01/31 12:25:55.6	113.770	-0.170	-0.260	1.220
2020/01/31 12:25:55.7	113.780	-0.150	-0.300	1.170
2020/01/31 12:25:55.8	113.790	-0.130	-0.350	1.120
2020/01/31 12:25:55.9	113.810	-0.110	-0.390	1.060
2020/01/31 12:25:56.0	113.820	-0.100	-0.420	1.010
2020/01/31 12:25:56.1	113.830	-0.080	-0.460	0.960
2020/01/31 12:25:56.2	113.840	-0.060	-0.490	0.910
2020/01/31 12:25:56.3	113.850	-0.050	-0.520	0.860
2020/01/31 12:25:56.4	113.860	-0.030	-0.550	0.810
2020/01/31 12:25:56.5	113.860	-0.020	-0.580	0.760
2020/01/31 12:25:56.6	113.860	-0.000	-0.600	0.720
2020/01/31 12:25:56.7	113.870	0.010	-0.610	0.680
2020/01/31 12:25:56.8	113.870	0.030	-0.630	0.640
2020/01/31 12:25:56.9	113.870	0.040	-0.640	0.600
2020/01/31 12:25:57.0	113.870	0.060	-0.640	0.560
2020/01/31 12:25:57.1	113.870	0.070	-0.650	0.530
2020/01/31 12:25:57.2	113.870	0.090	-0.650	0.490
2020/01/31 12:25:57.3	113.870	0.100	-0.640	0.460
2020/01/31 12:25:57.4	113.860	0.110	-0.640	0.430
2020/01/31 12:25:57.5	113.840	0.130	-0.630	0.410
2020/01/31 12:25:57.6	113.830	0.140	-0.620	0.390
2020/01/31 12:25:57.7	113.820	0.160	-0.610	0.360
2020/01/31 12:25:57.8	113.810	0.170	-0.600	0.340
2020/01/31 12:25:57.9	113.800	0.190	-0.580	0.320
2020/01/31 12:25:58.0	113.790	0.200	-0.570	0.310
2020/01/31 12:25:58.1	113.780	0.220	-0.550	0.290
2020/01/31 12:25:58.2	113.770	0.230	-0.540	0.280
2020/01/31 12:25:58.3	113.750	0.250	-0.530	0.270
2020/01/31 12:25:58.4	113.740	0.260	-0.510	0.260
2020/01/31 12:25:58.5	113.730	0.280	-0.500	0.250
2020/01/31 12:25:58.6	113.710	0.290	-0.490	0.250
2020/01/31 12:25:58.7	113.700	0.300	-0.480	0.250
2020/01/31 12:25:58.8	113.690	0.320	-0.460	0.250
2020/01/31 12:25:58.9	113.680	0.330	-0.450	0.250
2020/01/31 12:25:59.0	113.670	0.350	-0.440	0.260
2020/01/31 12:25:59.1	113.660	0.360	-0.440	0.270
2020/01/31 12:25:59.2	113.650	0.370	-0.430	0.280
2020/01/31 12:25:59.3	113.640	0.380	-0.420	0.290
2020/01/31 12:25:59.4	113.630	0.390	-0.410	0.300
2020/01/31 12:25:59.5	113.620	0.400	-0.400	0.320
2020/01/31 12:25:59.6	113.610	0.410	-0.400	0.340
2020/01/31 12:25:59.7	113.600	0.420	-0.390	0.360
2020/01/31 12:25:59.8	113.600	0.430	-0.380	0.390
2020/01/31 12:25:59.9	113.590	0.430	-0.370	0.410
2020/01/31 12:26:00.0	113.580	0.440	-0.360	0.440
2020/01/31 12:26:00.1	113.580	0.440	-0.350	0.460
2020/01/31 12:26:00.2	113.570	0.440	-0.340	0.490
2020/01/31 12:26:00.3	113.570	0.450	-0.320	0.510
2020/01/31 12:26:00.4	113.570	0.440	-0.310	0.540
2020/01/31 12:26:00.5	113.570	0.440	-0.290	0.570
2020/01/31 12:26:00.6	113.570	0.440	-0.270	0.600
2020/01/31 12:26:00.7	113.570	0.430	-0.240	0.630
2020/01/31 12:26:00.8	113.570	0.430	-0.220	0.650
2020/01/31 12:26:00.9	113.570	0.420	-0.190	0.680
2020/01/31 12:26:01.0	113.570	0.410	-0.160	0.700
2020/01/31 12:26:01.1	113.570	0.390	-0.130	0.720
2020/01/31 12:26:01.2	113.570	0.380	-0.090	0.740
2020/01/31 12:26:01.3	113.570	0.360	-0.060	0.770
2020/01/31 12:26:01.4	113.570	0.350	-0.020	0.780
2020/01/31 12:26:01.5	113.570	0.330	0.020	0.800
2020/01/31 12:26:01.6	113.600	0.310	0.060	0.820
2020/01/31 12:26:01.7	113.600	0.280	0.110	0.840
2020/01/31 12:26:01.8	113.600	0.260	0.150	0.860
2020/01/31 12:26:01.9	113.600	0.230	0.190	0.870
2020/01/31 12:26:02.0	113.590	0.210	0.230	0.890
2020/01/31 12:26:02.1	113.590	0.180	0.280	0.900
2020/01/31 12:26:02.2	113.590	0.150	0.320	0.920
2020/01/31 12:26:02.3	113.580	0.120	0.360	0.930
2020/01/31 12:26:02.4	113.580	0.090	0.400	0.950
2020/01/31 12:26:02.5	113.570	0.060	0.430	0.960
2020/01/31 12:26:02.6	113.560	0.030	0.470	0.980
2020/01/31 12:26:02.7	113.550	-0.010	0.500	0.990
2020/01/31 12:26:02.8	113.540	-0.040	0.530	1.010
2020/01/31 12:26:02.9	113.530	-0.080	0.560	1.030
2020/01/31 12:26:03.0	113.510	-0.110	0.580	1.050
2020/01/31 12:26:03.1	113.500	-0.150	0.600	1.070
2020/01/31 12:26:03.2	113.480	-0.180	0.610	1.090
2020/01/31 12:26:03.3	113.470	-0.220	0.620	1.120
2020/01/31 12:26:03.4	113.450	-0.250	0.630	1.140
2020/01/31 12:26:03.5	113.420	-0.280	0.630	1.170
2020/01/31 12:26:03.6	113.400	-0.320	0.620	1.200
2020/01/31 12:26:03.7	113.380	-0.350	0.610	1.230
2020/01/31 12:26:03.8	113.370	-0.380	0.600	1.260
2020/01/31 12:26:03.9	113.350	-0.410	0.580	1.290
2020/01/31 12:26:04.0	113.330	-0.440	0.550	1.320
2020/01/31 12:26:04.1	113.320	-0.470	0.530	1.350
2020/01/31 12:26:04.2	113.310	-0.490	0.490	1.390
2020/01/31 12:26:04.3	113.290	-0.510	0.450	1.420
2020/01/31 12:26:04.4	113.280	-0.540	0.410	1.460
2020/01/31 12:26:04.5	113.270	-0.550	0.360	1.490
2020/01/31 12:26:04.6	113.260	-0.570	0.320	1.520
2020/01/31 12:26:04.7	113.260	-0.580	0.260	1.560
2020/01/31 12:26:04.8	113.250	-0.590	0.200	1.590
2020/01/31 12:26:04.9	113.250	-0.600	0.140	1.620
2020/01/31 12:26:05.0	113.250	-0.610	0.080	1.650
2020/01/31 12:26:05.1	113.250	-0.610	0.010	1.680
2020/01/31 12:26:05.2	113.260	-0.600	-0.060	1.710
2020/01/31 12:26:05.3	113.260	-0.600	-0.130	1.730
2020/01/31 12:26:05.4	113.270	-0.590	-0.210	1.760
2020/01/31 12:26:05.5	113.290	-0.580	-0.280	1.780
2020/01/31 12:26:05.6	113.300	-0.560	-0.360	1.800
2020/01/31 12:26:05.7	113.310	-0.540	-0.440	1.810
2020/01/31 12:26:05.8	113.320	-0.520	-0.510	1.830
2020/01/31 12:26:05.9	113.330	-0.490	-0.590	1.840
2020/01/31 12:26:06.0	113.340	-0.460	-0.660	1.850
2020/01/31 12:26:06.1	113.350	-0.420	-0.730	1.860
2020/01/31 12:26:06.2	113.360	-0.390	-0.800	1.860
2020/01/31 12:26:06.3	113.380	-0.350	-0.870	1.870
2020/01/31 12:26:06.4	113.390	-0.300	-0.940	1.870
2020/01/31 12:26:06.5	113.380	-0.260	-1.000	1.870
2020/01/31 12:26:06.6	113.390	-0.210	-1.050	1.870
2020/01/31 12:26:06.7	113.390	-0.170	-1.110	1.880
2020/01/31 12:26:06.8	113.400	-0.120	-1.160	1.880
2020/01/31 12:26:06.9	113.400	-0.070	-1.200	1.880
2020/01/31 12:26:07.0	113.410	-0.020	-1.230	1.880
2020/01/31 12:26:07.1	113.410	0.030	-1.270	1.880
2020/01/31 12:26:07.2	113.410	0.080	-1.290	1.880
2020/01/31 12:26:07.3	113.410	0.130	-1.310	1.880
2020/01/31 12:26:07.4	113.410	0.180	-1.320	1.880
2020/01/31 12:26:07.5	113.410	0.230	-1.320	1.880
2020/01/31 12:26:07.6	113.410	0.270	-1.320	1.880
2020/01/31 12:26:07.7	113.410	0.320	-1.300	1.890
2020/01/31 12:26:07.8	113.410	0.350	-1.280	1.890
2020/01/31 12:26:07.9	113.400	0.390	-1.260	1.890
2020/01/31 12:26:08.0	113.400	0.420	-1.220	1.900
2020/01/31 12:26:08.1	113.390	0.450	-1.180	1.900
2020/01/31 12:26:08.2	113.380	0.480	-1.130	1.910
2020/01/31 12:26:08.3	113.370	0.500	-1.070	1.910
2020/01/31 12:26:08.4	113.370	0.520	-1.010	1.910
2020/01/31 12:26:08.5	113.360	0.530	-0.940	1.910
2020/01/31 12:26:08.6	113.330	0.540	-0.860	1.920
2020/01/31 12:26:08.7	113.320	0.540	-0.780	1.920
2020/01/31 12:26:08.8	113.310	0.540	-0.690	1.910
2020/01/31 12:26:08.9	113.300	0.530	-0.600	1.910
2020/01/31 12:26:09.0	113.290	0.520	-0.500	1.900
2020/01/31 12:26:09.1	113.280	0.510	-0.410	1.900
2020/01/31 12:26:09.2	113.260	0.490	-0.300	1.890
2020/01/31 12:26:09.3	113.250	0.460	-0.200	1.870
2020/01/31 12:26:09.4	113.240	0.440	-0.100	1.860
2020/01/31 12:26:09.5	113.220	0.410	0.010	1.840
2020/01/31 12:26:09.6	113.210	0.370	0.120	1.820
2020/01/31 12:26:09.7	113.190	0.340	0.220	1.790
2020/01/31 12:26:09.8	113.180	0.300	0.320	1.760
2020/01/31 12:26:09.9	113.160	0.260	0.410	1.730
2020/01/31 12:26:10.0	113.140	0.210	0.510	1.700
2020/01/31 12:26:10.1	113.130	0.170	0.590	1.670
2020/01/31 12:26:10.2	113.110	0.130	0.680	1.630
2020/01/31 12:26:10.3	113.090	0.080	0.750	1.590
2020/01/31 12:26:10.4	113.070	0.030	0.830	1.540
2020/01/31 12:26:10.5	113.070	-0.010	0.890	1.500
2020/01/31 12:26:10.6	113.050	-0.060	0.950	1.450
2020/01/31 12:26:10.7	113.030	-0.100	1.000	1.400
2020/01/31 12:26:10.8	113.010	-0.150	1.040	1.350
2020/01/31 12:26:10.9	112.990	-0.190	1.070	1.290
2020/01/31 12:26:11.0	112.970	-0.230	1.100	1.240
2020/01/31 12:26:11.1	112.950	-0.260	1.110	1.180
2020/01/31 12:26:11.2	112.930	-0.300	1.120	1.120
2020/01/31 12:26:11.3	112.910	-0.330	1.120	1.070
2020/01/31 12:26:11.4	112.890	-0.360	1.110	1.010
2020/01/31 12:26:11.5	112.870	-0.390	1.100	0.950
2020/01/31 12:26:11.6	112.850	-0.410	1.070	0.890
2020/01/31 12:26:11.7	112.830	-0.430	1.040	0.830
2020/01/31 12:26:11.8	112.810	-0.450	1.000	0.770
2020/01/31 12:26:11.9	112.790	-0.470	0.960	0.710
2020/01/31 12:26:12.0	112.770	-0.480	0.900	0.650
2020/01/31 12:26:12.1	112.750	-0.480	0.840	0.600
2020/01/31 12:26:12.2	112.730	-0.490	0.770	0.540
2020/01/31 12:26:12.3	112.720	-0.490	0.700	0.480
2020/01/31 12:26:12.4	112.700	-0.490	0.620	0.430
2020/01/31 12:26:12.5	112.670	-0.480	0.540	0.370
2020/01/31 12:26:12.6	112.660	-0.470	0.450	0.320
2020/01/31 12:26:12.7	112.640	-0.460	0.360	0.270
2020/01/31 12:26:12.8	112.630	-0.440	0.270	0.230
2020/01/31 12:26:12.9	112.610	-0.430	0.170	0.180
2020/01/31 12:26:13.0	112.600	-0.410	0.080	0.140
2020/01/31 12:26:13.1	112.590	-0.380	-0.020	0.100
2020/01/31 12:26:13.2	112.580	-0.360	-0.120	0.060
2020/01/31 12:26:13.3	112.560	-0.330	-0.220	0.020
2020/01/31 12:26:13.4	112.550	-0.310	-0.310	-0.010
2020/01/31 12:26:13.5	112.560	-0.280	-0.410	-0.050
2020/01/31 12:26:13.6	112.550	-0.250	-0.500	-0.080
2020/01/31 12:26:13.7	112.540	-0.210	-0.600	-0.100
2020/01/31 12:26:13.8	112.530	-0.180	-0.680	-0.130
2020/01/31 12:26:13.9	112.530	-0.150	-0.770	-0.150
2020/01/31 12:26:14.0	112.520	-0.110	-0.850	-0.170
2020/01/31 12:26:14.1	112.510	-0.080	-0.920	-0.190
2020/01/31 12:26:14.2	112.510	-0.040	-0.990	-0.200
2020/01/31 12:26:14.3	112.510	-0.010	-1.060	-0.210
2020/01/31 12:26:14.4	112.500	0.030	-1.120	-0.220
2020/01/31 12:26:14.5	112.500	0.060	-1.170	-0.220
2020/01/31 12:26:14.6	112.510	0.100	-1.220	-0.220
2020/01/31 12:26:14.7	112.510	0.130	-1.270	-0.220
2020/01/31 12:26:14.8	112.500	0.160	-1.300	-0.220
2020/01/31 12:26:14.9	112.500	0.200	-1.330	-0.210
2020/01/31 12:26:15.0	112.500	0.230	-1.360	-0.200
2020/01/31 12:26:15.1	112.490	0.260	-1.380	-0.190
2020/01/31 12:26:15.2	112.490	0.280	-1.390	-0.170
2020/01/31 12:26:15.3	112.490	0.310	-1.390	-0.150
2020/01/31 12:26:15.4	112.480	0.330	-1.390	-0.130
2020/01/31 12:26:15.5	112.490	0.360	-1.380	-0.110
2020/01/31 12:26:15.6	112.490	0.380	-1.370	-0.090
2020/01/31 12:26:15.7	112.480	0.390	-1.350	-0.060
2020/01/31 12:26:15.8	112.490	0.410	-1.330	-0.030
2020/01/31 12:26:15.9	112.490	0.420	-1.290	-0.000
2020/01/31 12:26:16.0	112.490	0.430	-1.260	0.030
2020/01/31 12:26:16.1	112.490	0.440	-1.210	0.060
2020/01/31 12:26:16.2	112.490	0.450	-1.160	0.100
2020/01/31 12:26:16.3	112.500	0.450	-1.110	0.130
2020/01/31 12:26:16.4	112.500	0.450	-1.050	0.170
2020/01/31 12:26:16.5	112.500	0.440	-0.990	0.220
2020/01/31 12:26:16.6	112.510	0.430	-0.920	0.260
2020/01/31 12:26:16.7	112.510	0.420	-0.840	0.310
2020/01/31 12:26:16.8	112.520	0.410	-0.760	0.360
2020/01/31 12:26:16.9	112.520	0.400	-0.680	0.410
2020/01/31 12:26:17.0	112.530	0.380	-0.600	0.460
2020/01/31 12:26:17.1	112.530	0.360	-0.510	0.510
2020/01/31 12:26:17.2	112.540	0.330	-0.420	0.560
2020/01/31 12:26:17.3	112.540	0.310	-0.330	0.620
2020/01/31 12:26:17.4	112.540	0.280	-0.230	0.680
2020/01/31 12:26:17.5	112.540	0.250	-0.130	0.740
2020/01/31 12:26:17.6	112.550	0.220	-0.040	0.800
2020/01/31 12:26:17.7	112.550	0.180	0.060	0.860
2020/01/31 12:26:17.8	112.550	0.150	0.150	0.920
2020/01/31 12:26:17.9	112.550	0.110	0.240	0.990
2020/01/31 12:26:18.0	112.550	0.080	0.330	1.050
2020/01/31 12:26:18.1	112.550	0.040	0.420	1.120
2020/01/31 12:26:18.2	112.550	0.000	0.500	1.190
2020/01/31 12:26:18.3	112.550	-0.040	0.590	1.250
2020/01/31 12:26:18.4	112.540	-0.070	0.670	1.320
2020/01/31 12:26:18.5	112.540	-0.110	0.740	1.390
2020/01/31 12:26:18.6	112.530	-0.150	0.810	1.460
2020/01/31 12:26:18.7	112.530	-0.180	0.870	1.520
2020/01/31 12:26:18.8	112.520	-0.210	0.930	1.590
2020/01/31 12:26:18.9	112.520	-0.250	0.980	1.660
2020/01/31 12:26:19.0	112.510	-0.280	1.030	1.720
2020/01/31 12:26:19.1	112.510	-0.300	1.070	1.780
2020/01/31 12:26:19.2	112.500	-0.330	1.110	1.840
2020/01/31 12:26:19.3	112.490	-0.350	1.140	1.900
2020/01/31 12:26:19.4	112.480	-0.370	1.160	1.950
2020/01/31 12:26:19.5	112.470	-0.390	1.170	2.010
2020/01/31 12:26:19.6	112.460	-0.400	1.180	2.050
2020/01/31 12:26:19.7	112.450	-0.410	1.180	2.100
2020/01/31 12:26:19.8	112.440	-0.420	1.170	2.150
2020/01/31 12:26:19.9	112.430	-0.430	1.150	2.190
2020/01/31 12:26:20.0	112.420	-0.430	1.130	2.230
2020/01/31 12:26:20.1	112.410	-0.430	1.090	2.260
2020/01/31 12:26:20.2	112.390	-0.420	1.050	2.290
2020/01/31 12:26:20.3	112.380	-0.410	1.000	2.320
2020/01/31 12:26:20.4	112.370	-0.400	0.950	2.340
2020/01/31 12:26:20.5	112.370	-0.380	0.880	2.360
2020/01/31 12:26:20.6	112.360	-0.370	0.810	2.380
2020/01/31 12:26:20.7	112.350	-0.340	0.740	2.400
2020/01/31 12:26:20.8	112.340	-0.320	0.660	2.410
2020/01/31 12:26:20.9	112.330	-0.290	0.570	2.420
2020/01/31 12:26:21.0	112.310	-0.270	0.480	2.430
2020/01/31 12:26:21.1	112.300	-0.240	0.390	2.430
2020/01/31 12:26:21.2	112.290	-0.200	0.290	2.430
2020/01/31 12:26:21.3	112.280	-0.170	0.190	2.440
2020/01/31 12:26:21.4	112.270	-0.130	0.080	2.430
2020/01/31 12:26:21.5	112.250	-0.100	-0.020	2.430
2020/01/31 12:26:21.6	112.240	-0.060	-0.130	2.430
2020/01/31 12:26:21.7	112.230	-0.020	-0.230	2.420
2020/01/31 12:26:21.8	112.220	0.010	-0.330	2.410
2020/01/31 12:26:21.9	112.210	0.050	-0.440	2.400
2020/01/31 12:26:22.0	112.200	0.090	-0.530	2.390
2020/01/31 12:26:22.1	112.190	0.120	-0.630	2.380
2020/01/31 12:26:22.2	112.180	0.160	-0.720	2.360
2020/01/31 12:26:22.3	112.170	0.190	-0.810	2.340
2020/01/31 12:26:22.4	112.170	0.230	-0.890	2.320
2020/01/31 12:26:22.5	112.160	0.260	-0.960	2.290
2020/01/31 12:26:22.6	112.140	0.280	-1.030	2.260
2020/01/31 12:26:22.7	112.130	0.310	-1.090	2.230
2020/01/31 12:26:22.8	112.130	0.340	-1.150	2.200
2020/01/31 12:26:22.9	112.130	0.360	-1.200	2.160
2020/01/31 12:26:23.0	112.130	0.380	-1.240	2.130
2020/01/31 12:26:23.1	112.120	0.400	-1.270	2.090
2020/01/31 12:26:23.2	112.120	0.410	-1.290	2.050
2020/01/31 12:26:23.3	112.120	0.420	-1.310	2.000
2020/01/31 12:26:23.4	112.120	0.430	-1.310	1.960
2020/01/31 12:26:23.5	112.120	0.440	-1.310	1.910
2020/01/31 12:26:23.6	112.120	0.440	-1.300	1.860
2020/01/31 12:26:23.7	112.120	0.440	-1.290	1.810
2020/01/31 12:26:23.8	112.120	0.440	-1.260	1.770
2020/01/31 12:26:23.9	112.110	0.440	-1.230	1.720
2020/01/31 12:26:24.0	112.110	0.430	-1.200	1.670
2020/01/31 12:26:24.1	112.110	0.430	-1.150	1.630
2020/01/31 12:26:24.2	112.100	0.420	-1.110	1.580
2020/01/31 12:26:24.3	112.090	0.400	-1.050	1.540
2020/01/31 12:26:24.4	112.090	0.390	-0.990	1.500
2020/01/31 12:26:24.5	112.060	0.380	-0.930	1.460
2020/01/31 12:26:24.6	112.040	0.360	-0.870	1.420
2020/01/31 12:26:24.7	112.030	0.340	-0.800	1.380
2020/01/31 12:26:24.8	112.010	0.320	-0.730	1.350
2020/01/31 12:26:24.9	112.000	0.300	-0.660	1.310
2020/01/31 12:26:25.0	111.980	0.280	-0.590	1.280
2020/01/31 12:26:25.1	111.960	0.260	-0.520	1.260
2020/01/31 12:26:25.2	111.930	0.240	-0.450	1.230
2020/01/31 12:26:25.3	111.910	0.210	-0.380	1.210
2020/01/31 12:26:25.4	111.890	0.190	-0.310	1.180
2020/01/31 12:26:25.5	111.860	0.170	-0.250	1.160
2020/01/31 12:26:25.6	111.840	0.140	-0.190	1.150
2020/01/31 12:26:25.7	111.820	0.120	-0.130	1.130
2020/01/31 12:26:25.8	111.790	0.100	-0.080	1.110
2020/01/31 12:26:25.9	111.760	0.080	-0.030	1.100
2020/01/31 12:26:26.0	111.740	0.050	0.010	1.080
2020/01/31 12:26:26.1	111.710	0.030	0.050	1.060
2020/01/31 12:26:26.2	111.680	0.010	0.080	1.040
2020/01/31 12:26:26.3	111.660	-0.010	0.110	1.030
2020/01/31 12:26:26.4	111.640	-0.020	0.140	1.010
2020/01/31 12:26:26.5	111.630	-0.040	0.160	0.990
2020/01/31 12:26:26.6	111.610	-0.060	0.170	0.960
2020/01/31 12:26:26.7	111.590	-0.080	0.180	0.940
2020/01/31 12:26:26.8	111.580	-0.090	0.190	0.910
2020/01/31 12:26:26.9	111.560	-0.110	0.190	0.880
2020/01/31 12:26:27.0	111.550	-0.120	0.190	0.850
2020/01/31 12:26:27.1	111.540	-0.130	0.180	0.820
2020/01/31 12:26:27.2	111.540	-0.140	0.170	0.790
2020/01/31 12:26:27.3	111.530	-0.160	0.160	0.760
2020/01/31 12:26:27.4	111.530	-0.170	0.150	0.720
2020/01/31 12:26:27.5	111.530	-0.180	0.140	0.690
2020/01/31 12:26:27.6	111.530	-0.190	0.120	0.650
2020/01/31 12:26:27.7	111.530	-0.200	0.110	0.620
2020/01/31 12:26:27.8	111.540	-0.210	0.090	0.580
2020/01/31 12:26:27.9	111.540	-0.220	0.070	0.550
2020/01/31 12:26:28.0	111.550	-0.230	0.060	0.520
2020/01/31 12:26:28.1	111.550	-0.240	0.040	0.490
2020/01/31 12:26:28.2	111.560	-0.250	0.020	0.460
2020/01/31 12:26:28.3	111.570	-0.260	0.010	0.430
2020/01/31 12:26:28.4	111.570	-0.270	-0.010	0.400
2020/01/31 12:26:28.5	111.580	-0.280	-0.020	0.380
2020/01/31 12:26:28.6	111.610	-0.290	-0.030	0.360
2020/01/31 12:26:28.7	111.610	-0.300	-0.040	0.340
2020/01/31 12:26:28.8	111.620	-0.310	-0.040	0.320
2020/01/31 12:26:28.9	111.620	-0.320	-0.050	0.300
2020/01/31 12:26:29.0	111.630	-0.330	-0.050	0.280
2020/01/31 12:26:29.1	111.630	-0.340	-0.050	0.270
2020/01/31 12:26:29.2	111.640	-0.350	-0.050	0.260
2020/01/31 12:26:29.3	111.640	-0.350	-0.040	0.250
2020/01/31 12:26:29.4	111.640	-0.360	-0.040	0.240
2020/01/31 12:26:29.5	111.650	-0.370	-0.030	0.240
2020/01/31 12:26:29.6	111.660	-0.380	-0.020	0.230
2020/01/31 12:26:29.7	111.660	-0.390	-0.010	0.230
2020/01/31 12:26:29.8	111.660	-0.390	0.000	0.230
2020/01/31 12:26:29.9	111.660	-0.400	0.010	0.230
2020/01/31 12:26:30.0	111.660	-0.400	0.030	0.230
2020/01/31 12:26:30.1	111.660	-0.410	0.040	0.230
2020/01/31 12:26:30.2	111.660	-0.410	0.060	0.240
2020/01/31 12:26:30.3	111.660	-0.410	0.070	0.240
2020/01/31 12:26:30.4	111.660	-0.410	0.090	0.250
2020/01/31 12:26:30.5	111.670	-0.410	0.100	0.250
2020/01/31 12:26:30.6	111.680	-0.410	0.110	0.260
2020/01/31 12:26:30.7	111.680	-0.400	0.130	0.270
2020/01/31 12:26:30.8	111.680	-0.390	0.140	0.270
2020/01/31 12:26:30.9	111.690	-0.390	0.150	0.280
2020/01/31 12:26:31.0	111.690	-0.380	0.160	0.290
2020/01/31 12:26:31.1	111.700	-0.370	0.170	0.300
2020/01/31 12:26:31.2	111.700	-0.350	0.170	0.310
2020/01/31 12:26:31.3	111.710	-0.340	0.180	0.320
2020/01/31 12:26:31.4	111.720	-0.320	0.180	0.330
2020/01/31 12:26:31.5	111.740	-0.300	0.180	0.350
2020/01/31 12:26:31.6	111.750	-0.280	0.180	0.360
2020/01/31 12:26:31.7	111.760	-0.260	0.180	0.370
2020/01/31 12:26:31.8	111.760	-0.240	0.180	0.390
2020/01/31 12:26:31.9	111.770	-0.220	0.180	0.400
2020/01/31 12:26:32.0	111.780	-0.190	0.170	0.420
2020/01/31 12:26:32.1	111.790	-0.170	0.170	0.440
2020/01/31 12:26:32.2	111.790	-0.140	0.160	0.460
2020/01/31 12:26:32.3	111.800	-0.110	0.150	0.490
2020/01/31 12:26:32.4	111.810	-0.090	0.140	0.510
2020/01/31 12:26:32.5	111.810	-0.060	0.130	0.540
2020/01/31 12:26:32.6	111.800	-0.030	0.110	0.570
2020/01/31 12:26:32.7	111.800	0.000	0.090	0.600
2020/01/31 12:26:32.8	111.800	0.030	0.080	0.630
2020/01/31 12:26:32.9	111.800	0.060	0.060	0.670
2020/01/31 12:26:33.0	111.800	0.090	0.040	0.700
2020/01/31 12:26:33.1	111.790	0.120	0.020	0.740
2020/01/31 12:26:33.2	111.790	0.150	-0.010	0.780
2020/01/31 12:26:33.3	111.780	0.180	-0.030	0.820
2020/01/31 12:26:33.4	111.770	0.210	-0.060	0.870
2020/01/31 12:26:33.5	111.760	0.240	-0.090	0.920
2020/01/31 12:26:33.6	111.740	0.270	-0.130	0.960
2020/01/31 12:26:33.7	111.720	0.290	-0.160	1.010
2020/01/31 12:26:33.8	111.710	0.320	-0.200	1.050
2020/01/31 12:26:33.9	111.690	0.350	-0.240	1.100
2020/01/31 12:26:34.0	111.670	0.370	-0.280	1.150
2020/01/31 12:26:34.1	111.640	0.400	-0.320	1.190
2020/01/31 12:26:34.2	111.620	0.420	-0.360	1.240
2020/01/31 12:26:34.3	111.590	0.450	-0.410	1.280
2020/01/31 12:26:34.4	111.560	0.470	-0.450	1.330
2020/01/31 12:26:34.5	111.530	0.490	-0.500	1.360
2020/01/31 12:26:34.6	111.500	0.510	-0.540	1.400
2020/01/31 12:26:34.7	111.470	0.530	-0.590	1.440
2020/01/31 12:26:34.8	111.440	0.550	-0.630	1.480
2020/01/31 12:26:34.9	111.410	0.560	-0.670	1.520
2020/01/31 12:26:35.0	111.380	0.580	-0.710	1.550
2020/01/31 12:26:35.1	111.350	0.590	-0.750	1.580
2020/01/31 12:26:35.2	111.330	0.600	-0.790	1.610
2020/01/31 12:26:35.3	111.300	0.610	-0.820	1.640
2020/01/31 12:26:35.4	111.270	0.620	-0.850	1.670
2020/01/31 12:26:35.5	111.240	0.620	-0.880	1.690
2020/01/31 12:26:35.6	111.200	0.620	-0.900	1.710
2020/01/31 12:26:35.7	111.180	0.620	-0.920	1.740
2020/01/31 12:26:35.8	111.160	0.620	-0.930	1.760
2020/01/31 12:26:35.9	111.130	0.620	-0.940	1.770
2020/01/31 12:26:36.0	111.110	0.610	-0.940	1.790
2020/01/31 12:26:36.1	111.100	0.600	-0.930	1.800
2020/01/31 12:26:36.2	111.080	0.590	-0.920	1.820
2020/01/31 12:26:36.3	111.070	0.580	-0.900	1.830
2020/01/31 12:26:36.4	111.050	0.570	-0.880	1.840
2020/01/31 12:26:36.5	111.040	0.550	-0.850	1.850
2020/01/31 12:26:36.6	111.030	0.530	-0.810	1.860
2020/01/31 12:26:36.7	111.030	0.510	-0.770	1.870
2020/01/31 12:26:36.8	111.020	0.480	-0.720	1.870
2020/01/31 12:26:36.9	111.020	0.460	-0.670	1.880
2020/01/31 12:26:37.0	111.020	0.430	-0.610	1.880
2020/01/31 12:26:37.1	111.020	0.400	-0.550	1.890
2020/01/31 12:26:37.2	111.020	0.370	-0.480	1.890
2020/01/31 12:26:37.3	111.030	0.340	-0.410	1.890
2020/01/31 12:26:37.4	111.030	0.310	-0.340	1.890
2020/01/31 12:26:37.5	111.060	0.270	-0.270	1.890
2020/01/31 12:26:37.6	111.070	0.240	-0.190	1.890
2020/01/31 12:26:37.7	111.070	0.200	-0.120	1.880
2020/01/31 12:26:37.8	111.080	0.160	-0.040	1.880
2020/01/31 12:26:37.9	111.090	0.130	0.040	1.880
2020/01/31 12:26:38.0	111.100	0.090	0.110	1.870
2020/01/31 12:26:38.1	111.110	0.050	0.180	1.870
2020/01/31 12:26:38.2	111.120	0.020	0.250	1.870
2020/01/31 12:26:38.3	111.130	-0.020	0.310	1.860
2020/01/31 12:26:38.4	111.130	-0.060	0.370	1.860
2020/01/31 12:26:38.5	111.140	-0.090	0.430	1.850
2020/01/31 12:26:38.6	111.140	-0.120	0.480	1.850
2020/01/31 12:26:38.7	111.150	-0.160	0.520	1.850
2020/01/31 12:26:38.8	111.160	-0.190	0.560	1.840
2020/01/31 12:26:38.9	111.160	-0.220	0.590	1.830
2020/01/31 12:26:39.0	111.170	-0.240	0.620	1.830
2020/01/31 12:26:39.1	111.170	-0.270	0.640	1.820
2020/01/31 12:26:39.2	111.180	-0.290	0.650	1.810
2020/01/31 12:26:39.3	111.180	-0.320	0.660	1.800
2020/01/31 12:26:39.4	111.190	-0.340	0.660	1.780
2020/01/31 12:26:39.5	111.190	-0.350	0.650	1.770
2020/01/31 12:26:39.6	111.200	-0.370	0.630	1.750
2020/01/31 12:26:39.7	111.200	-0.380	0.610	1.730
2020/01/31 12:26:39.8	111.210	-0.390	0.590	1.710
2020/01/31 12:26:39.9	111.220	-0.400	0.560	1.690
2020/01/31 12:26:40.0	111.220	-0.410	0.520	1.670
2020/01/31 12:26:40.1	111.230	-0.420	0.480	1.640
2020/01/31 12:26:40.2	111.240	-0.420	0.440	1.620
2020/01/31 12:26:40.3	111.240	-0.420	0.390	1.590
2020/01/31 12:26:40.4	111.250	-0.420	0.330	1.560
2020/01/31 12:26:40.5	111.260	-0.420	0.270	1.520
2020/01/31 12:26:40.6	111.270	-0.420	0.210	1.490
2020/01/31 12:26:40.7	111.270	-0.410	0.150	1.460
2020/01/31 12:26:40.8	111.280	-0.410	0.090	1.420
2020/01/31 12:26:40.9	111.280	-0.400	0.030	1.390
2020/01/31 12:26:41.0	111.280	-0.390	-0.040	1.350
2020/01/31 12:26:41.1	111.280	-0.380	-0.100	1.320
2020/01/31 12:26:41.2	111.280	-0.370	-0.170	1.280
2020/01/31 12:26:41.3	111.280	-0.360	-0.230	1.240
2020/01/31 12:26:41.4	111.270	-0.350	-0.290	1.210
2020/01/31 12:26:41.5	111.250	-0.330	-0.360	1.170
2020/01/31 12:26:41.6	111.240	-0.320	-0.410	1.140
2020/01/31 12:26:41.7	111.240	-0.300	-0.470	1.110
2020/01/31 12:26:41.8	111.230	-0.290	-0.520	1.080
2020/01/31 12:26:41.9	111.220	-0.280	-0.570	1.040
2020/01/31 12:26:42.0	111.210	-0.260	-0.610	1.010
2020/01/31 12:26:42.1	111.190	-0.250	-0.650	0.990
2020/01/31 12:26:42.2	111.180	-0.230	-0.680	0.960
2020/01/31 12:26:42.3	111.170	-0.220	-0.710	0.930
2020/01/31 12:26:42.4	111.160	-0.210	-0.730	0.910
2020/01/31 12:26:42.5	111.140	-0.200	-0.740	0.890
2020/01/31 12:26:42.6	111.130	-0.180	-0.750	0.860
2020/01/31 12:26:42.7	111.120	-0.170	-0.750	0.840
2020/01/31 12:26:42.8	111.100	-0.160	-0.750	0.820
2020/01/31 12:26:42.9	111.090	-0.150	-0.740	0.800
2020/01/31 12:26:43.0	111.080	-0.150	-0.730	0.780
2020/01/31 12:26:43.1	111.070	-0.140	-0.710	0.770
2020/01/31 12:26:43.2	111.060	-0.130	-0.680	0.750
2020/01/31 12:26:43.3	111.050	-0.130	-0.650	0.740
2020/01/31 12:26:43.4	111.040	-0.120	-0.610	0.720
2020/01/31 12:26:43.5	111.020	-0.120	-0.570	0.710
2020/01/31 12:26:43.6	111.010	-0.110	-0.530	0.700
2020/01/31 12:26:43.7	111.000	-0.110	-0.480	0.690
2020/01/31 12:26:43.8	110.990	-0.110	-0.430	0.680
2020/01/31 12:26:43.9	110.980	-0.110	-0.380	0.670
2020/01/31 12:26:44.0	110.970	-0.110	-0.330	0.660
2020/01/31 12:26:44.1	110.970	-0.100	-0.280	0.640
2020/01/31 12:26:44.2	110.960	-0.100	-0.230	0.630
2020/01/31 12:26:44.3	110.950	-0.100	-0.180	0.620
2020/01/31 12:26:44.4	110.940	-0.100	-0.130	0.610
2020/01/31 12:26:44.5	110.940	-0.090	-0.080	0.600
2020/01/31 12:26:44.6	110.930	-0.090	-0.040	0.590
2020/01/31 12:26:44.7	110.920	-0.080	-0.000	0.580
2020/01/31 12:26:44.8	110.910	-0.080	0.030	0.570
2020/01/31 12:26:44.9	110.910	-0.070	0.060	0.560
2020/01/31 12:26:45.0	110.900	-0.060	0.080	0.540
2020/01/31 12:26:45.1	110.890	-0.050	0.100	0.530
2020/01/31 12:26:45.2	110.880	-0.030	0.110	0.520
2020/01/31 12:26:45.3	110.870	-0.020	0.120	0.500
2020/01/31 12:26:45.4	110.860	-0.000	0.120	0.490
2020/01/31 12:26:45.5	110.850	0.020	0.120	0.480
2020/01/31 12:26:45.6	110.840	0.040	0.110	0.460
2020/01/31 12:26:45.7	110.830	0.060	0.090	0.450
2020/01/31 12:26:45.8	110.820	0.090	0.070	0.440
2020/01/31 12:26:45.9	110.810	0.110	0.040	0.420
2020/01/31 12:26:46.0	110.800	0.140	0.010	0.400
2020/01/31 12:26:46.1	110.790	0.170	-0.030	0.390
2020/01/31 12:26:46.2	110.780	0.190	-0.060	0.370
2020/01/31 12:26:46.3	110.780	0.220	-0.100	0.360
2020/01/31 12:26:46.4	110.770	0.250	-0.140	0.340
2020/01/31 12:26:46.5	110.770	0.280	-0.190	0.330
2020/01/31 12:26:46.6	110.760	0.310	-0.230	0.310
2020/01/31 12:26:46.7	110.760	0.340	-0.270	0.300
2020/01/31 12:26:46.8	110.750	0.370	-0.310	0.290
2020/01/31 12:26:46.9	110.750	0.390	-0.350	0.270
2020/01/31 12:26:47.0	110.750	0.420	-0.380	0.260
2020/01/31 12:26:47.1	110.750	0.440	-0.410	0.250
2020/01/31 12:26:47.2	110.750	0.460	-0.440	0.240
2020/01/31 12:26:47.3	110.750	0.480	-0.460	0.230
2020/01/31 12:26:47.4	110.760	0.490	-0.480	0.230
2020/01/31 12:26:47.5	110.750	0.500	-0.480	0.220
2020/01/31 12:26:47.6	110.760	0.510	-0.490	0.220
2020/01/31 12:26:47.7	110.760	0.520	-0.490	0.220
2020/01/31 12:26:47.8	110.770	0.520	-0.480	0.230
2020/01/31 12:26:47.9	110.780	0.510	-0.460	0.230
2020/01/31 12:26:48.0	110.790	0.510	-0.440	0.240
2020/01/31 12:26:48.1	110.800	0.500	-0.420	0.250
2020/01/31 12:26:48.2	110.810	0.480	-0.380	0.270
2020/01/31 12:26:48.3	110.820	0.460	-0.350	0.290
2020/01/31 12:26:48.4	110.840	0.440	-0.300	0.310
2020/01/31 12:26:48.5	110.850	0.420	-0.250	0.330
2020/01/31 12:26:48.6	110.870	0.390	-0.200	0.360
2020/01/31 12:26:48.7	110.880	0.360	-0.150	0.390
2020/01/31 12:26:48.8	110.900	0.320	-0.090	0.420
2020/01/31 12:26:48.9	110.910	0.280	-0.030	0.460
2020/01/31 12:26:49.0	110.920	0.240	0.040	0.500
2020/01/31 12:26:49.1	110.940	0.200	0.100	0.540
2020/01/31 12:26:49.2	110.950	0.150	0.170	0.580
2020/01/31 12:26:49.3	110.960	0.110	0.230	0.630
2020/01/31 12:26:49.4	110.980	0.060	0.300	0.670
2020/01/31 12:26:49.5	110.990	0.010	0.360	0.720
2020/01/31 12:26:49.6	111.000	-0.030	0.420	0.770
2020/01/31 12:26:49.7	111.010	-0.080	0.470	0.820
2020/01/31 12:26:49.8	111.020	-0.130	0.520	0.870
2020/01/31 12:26:49.9	111.020	-0.180	0.570	0.920
2020/01/31 12:26:50.0	111.030	-0.220	0.610	0.970
2020/01/31 12:26:50.1	111.040	-0.260	0.640	1.020
2020/01/31 12:26:50.2	111.040	-0.310	0.670	1.070
2020/01/31 12:26:50.3	111.040	-0.350	0.690	1.120
2020/01/31 12:26:50.4	111.040	-0.380	0.700	1.170
2020/01/31 12:26:50.5	111.040	-0.410	0.700	1.220
2020/01/31 12:26:50.6	111.040	-0.440	0.690	1.270
2020/01/31 12:26:50.7	111.030	-0.470	0.680	1.320
2020/01/31 12:26:50.8	111.030	-0.490	0.660	1.360
2020/01/31 12:26:50.9	111.020	-0.510	0.640	1.410
2020/01/31 12:26:51.0	111.010	-0.520	0.600	1.460
2020/01/31 12:26:51.1	110.990	-0.530	0.560	1.500
2020/01/31 12:26:51.2	110.980	-0.540	0.510	1.550
2020/01/31 12:26:51.3	110.960	-0.540	0.450	1.590
2020/01/31 12:26:51.4	110.950	-0.540	0.390	1.630
2020/01/31 12:26:51.5	110.940	-0.530	0.320	1.670
2020/01/31 12:26:51.6	110.920	-0.520	0.250	1.710
2020/01/31 12:26:51.7	110.890	-0.500	0.170	1.760
2020/01/31 12:26:51.8	110.870	-0.480	0.090	1.800
2020/01/31 12:26:51.9	110.850	-0.460	-0.000	1.840
2020/01/31 12:26:52.0	110.820	-0.440	-0.090	1.880
2020/01/31 12:26:52.1	110.790	-0.410	-0.180	1.920
2020/01/31 12:26:52.2	110.770	-0.380	-0.270	1.960
2020/01/31 12:26:52.3	110.740	-0.340	-0.360	2.000
2020/01/31 12:26:52.4	110.710	-0.310	-0.450	2.040
2020/01/31 12:26:52.5	110.670	-0.270	-0.540	2.080
2020/01/31 12:26:52.6	110.640	-0.230	-0.620	2.120
2020/01/31 12:26:52.7	110.620	-0.190	-0.710	2.150
2020/01/31 12:26:52.8	110.590	-0.150	-0.790	2.190
2020/01/31 12:26:52.9	110.560	-0.110	-0.860	2.220
2020/01/31 12:26:53.0	110.540	-0.070	-0.930	2.260
2020/01/31 12:26:53.1	110.510	-0.030	-1.000	2.290
2020/01/31 12:26:53.2	110.490	0.010	-1.060	2.320
2020/01/31 12:26:53.3	110.470	0.050	-1.110	2.350
2020/01/31 12:26:53.4	110.450	0.090	-1.160	2.380
2020/01/31 12:26:53.5	110.420	0.130	-1.200	2.400
2020/01/31 12:26:53.6	110.410	0.160	-1.230	2.420
2020/01/31 12:26:53.7	110.400	0.190	-1.250	2.440
2020/01/31 12:26:53.8	110.380	0.230	-1.270	2.460
2020/01/31 12:26:53.9	110.380	0.250	-1.290	2.470
2020/01/31 12:26:54.0	110.370	0.280	-1.290	2.480
2020/01/31 12:26:54.1	110.370	0.300	-1.280	2.490
2020/01/31 12:26:54.2	110.370	0.330	-1.270	2.490
2020/01/31 12:26:54.3	110.370	0.340	-1.260	2.490
2020/01/31 12:26:54.4	110.370	0.360	-1.230	2.490
2020/01/31 12:26:54.5	110.370	0.370	-1.200	2.480
2020/01/31 12:26:54.6	110.380	0.380	-1.160	2.470
2020/01/31 12:26:54.7	110.390	0.390	-1.120	2.460
2020/01/31 12:26:54.8	110.390	0.390	-1.070	2.440
2020/01/31 12:26:54.9	110.400	0.390	-1.010	2.410
2020/01/31 12:26:55.0	110.410	0.390	-0.950	2.390
2020/01/31 12:26:55.1	110.430	0.390	-0.880	2.360
2020/01/31 12:26:55.2	110.440	0.380	-0.820	2.320
2020/01/31 12:26:55.3	110.450	0.370	-0.740	2.290
2020/01/31 12:26:55.4	110.460	0.360	-0.670	2.240
2020/01/31 12:26:55.5	110.470	0.350	-0.590	2.200
2020/01/31 12:26:55.6	110.480	0.330	-0.510	2.150
2020/01/31 12:26:55.7	110.490	0.310	-0.420	2.090
2020/01/31 12:26:55.8	110.500	0.290	-0.340	2.040
2020/01/31 12:26:55.9	110.510	0.270	-0.260	1.980
2020/01/31 12:26:56.0	110.520	0.250	-0.170	1.920
2020/01/31 12:26:56.1	110.530	0.220	-0.090	1.850
2020/01/31 12:26:56.2	110.540	0.200	-0.010	1.790
2020/01/31 12:26:56.3	110.550	0.170	0.070	1.720
2020/01/31 12:26:56.4	110.560	0.150	0.150	1.650
2020/01/31 12:26:56.5	110.570	0.120	0.230	1.570
2020/01/31 12:26:56.6	110.580	0.100	0.300	1.500
2020/01/31 12:26:56.7	110.590	0.070	0.370	1.430
2020/01/31 12:26:56.8	110.590	0.040	0.440	1.350
2020/01/31 12:26:56.9	110.600	0.020	0.500	1.280
2020/01/31 12:26:57.0	110.610	-0.010	0.560	1.200
2020/01/31 12:26:57.1	110.610	-0.030	0.620	1.130
2020/01/31 12:26:57.2	110.620	-0.060	0.670	1.050
2020/01/31 12:26:57.3	110.620	-0.080	0.710	0.980
2020/01/31 12:26:57.4	110.620	-0.100	0.750	0.910
2020/01/31 12:26:57.5	110.620	-0.120	0.780	0.840
2020/01/31 12:26:57.6	110.620	-0.140	0.800	0.770
2020/01/31 12:26:57.7	110.620	-0.150	0.820	0.700
2020/01/31 12:26:57.8	110.620	-0.170	0.840	0.640
2020/01/31 12:26:57.9	110.620	-0.180	0.840	0.580
2020/01/31 12:26:58.0	110.620	-0.200	0.840	0.520
2020/01/31 12:26:58.1	110.610	-0.210	0.830	0.460
2020/01/31 12:26:58.2	110.610	-0.220	0.820	0.400
2020/01/31 12:26:58.3	110.600	-0.220	0.790	0.350
2020/01/31 12:26:58.4	110.600	-0.230	0.770	0.300
2020/01/31 12:26:58.5	110.600	-0.230	0.730	0.250
2020/01/31 12:26:58.6	110.600	-0.230	0.690	0.210
2020/01/31 12:26:58.7	110.590	-0.230	0.650	0.160
2020/01/31 12:26:58.8	110.580	-0.230	0.600	0.120
2020/01/31 12:26:58.9	110.570	-0.230	0.540	0.090
2020/01/31 12:26:59.0	110.560	-0.230	0.490	0.050
2020/01/31 12:26:59.1	110.550	-0.230	0.420	0.020
2020/01/31 12:26:59.2	110.540	-0.220	0.360	-0.010
2020/01/31 12:26:59.3	110.530	-0.220	0.290	-0.040
2020/01/31 12:26:59.4	110.520	-0.210	0.230	-0.070
2020/01/31 12:26:59.5	110.510	-0.200	0.160	-0.090
2020/01/31 12:26:59.6	110.500	-0.200	0.090	-0.110
2020/01/31 12:26:59.7	110.490	-0.190	0.020	-0.130
2020/01/31 12:26:59.8	110.480	-0.190	-0.040	-0.150
2020/01/31 12:26:59.9	110.470	-0.180	-0.110	-0.160
2020/01/31 12:27:00.0	110.470	-0.170	-0.170	-0.180
2020/01/31 12:27:00.1	110.460	-0.170	-0.230	-0.190
2020/01/31 12:27:00.2	110.460	-0.160	-0.280	-0.190
2020/01/31 12:27:00.3	110.460	-0.160	-0.330	-0.200
2020/01/31 12:27:00.4	110.460	-0.160	-0.370	-0.200
2020/01/31 12:27:00.5	110.460	-0.150	-0.410	-0.210
2020/01/31 12:27:00.6	110.460	-0.150	-0.440	-0.200
2020/01/31 12:27:00.7	110.460	-0.150	-0.480	-0.190
2020/01/31 12:27:00.8	110.460	-0.150	-0.500	-0.180
2020/01/31 12:27:00.9	110.460	-0.150	-0.520	-0.170
2020/01/31 12:27:01.0	110.460	-0.150	-0.540	-0.160
2020/01/31 12:27:01.1	110.460	-0.150	-0.550	-0.140
2020/01/31 12:27:01.2	110.460	-0.150	-0.560	-0.110
2020/01/31 12:27:01.3	110.460	-0.150	-0.570	-0.090
2020/01/31 12:27:01.4	110.460	-0.150	-0.570	-0.060
2020/01/31 12:27:01.5	110.460	-0.150	-0.570	-0.020
2020/01/31 12:27:01.6	110.450	-0.150	-0.570	0.010
2020/01/31 12:27:01.7	110.450	-0.150	-0.570	0.050
2020/01/31 12:27:01.8	110.450	-0.140	-0.560	0.090
2020/01/31 12:27:01.9	110.440	-0.140	-0.560	0.130
2020/01/31 12:27:02.0	110.440	-0.140	-0.550	0.170
2020/01/31 12:27:02.1	110.440	-0.130	-0.540	0.210
2020/01/31 12:27:02.2	110.430	-0.120	-0.540	0.260
2020/01/31 12:27:02.3	110.430	-0.110	-0.530	0.300
2020/01/31 12:27:02.4	110.420	-0.100	-0.520	0.350
2020/01/31 12:27:02.5	110.420	-0.090	-0.520	0.390
2020/01/31 12:27:02.6	110.400	-0.080	-0.510	0.440
2020/01/31 12:27:02.7	110.400	-0.070	-0.510	0.480
2020/01/31 12:27:02.8	110.400	-0.050	-0.510	0.530
2020/01/31 12:27:02.9	110.400	-0.030	-0.510	0.570
2020/01/31 12:27:03.0	110.390	-0.010	-0.510	0.620
2020/01/31 12:27:03.1	110.390	0.000	-0.510	0.660
2020/01/31 12:27:03.2	110.390	0.020	-0.510	0.700
2020/01/31 12:27:03.3	110.400	0.050	-0.510	0.750
2020/01/31 12:27:03.4	110.400	0.070	-0.510	0.790
2020/01/31 12:27:03.5	110.410	0.090	-0.520	0.830
2020/01/31 12:27:03.6	110.420	0.110	-0.520	0.880
2020/01/31 12:27:03.7	110.430	0.130	-0.530	0.920
2020/01/31 12:27:03.8	110.430	0.160	-0.530	0.960
2020/01/31 12:27:03.9	110.440	0.180	-0.530	1.000
2020/01/31 12:27:04.0	110.450	0.200	-0.530	1.040
2020/01/31 12:27:04.1	110.460	0.220	-0.520	1.080
2020/01/31 12:27:04.2	110.470	0.240	-0.520	1.120
2020/01/31 12:27:04.3	110.490	0.260	-0.510	1.160
2020/01/31 12:27:04.4	110.500	0.270	-0.500	1.200
2020/01/31 12:27:04.5	110.510	0.290	-0.490	1.250
2020/01/31 12:27:04.6	110.520	0.300	-0.470	1.290
2020/01/31 12:27:04.7	110.530	0.310	-0.450	1.330
2020/01/31 12:27:04.8	110.550	0.320	-0.430	1.370
2020/01/31 12:27:04.9	110.560	0.330	-0.410	1.410
2020/01/31 12:27:05.0	110.570	0.330	-0.380	1.460
2020/01/31 12:27:05.1	110.580	0.340	-0.350	1.500
2020/01/31 12:27:05.2	110.590	0.340	-0.320	1.540
2020/01/31 12:27:05.3	110.600	0.330	-0.290	1.590
2020/01/31 12:27:05.4	110.600	0.330	-0.250	1.630
2020/01/31 12:27:05.5	110.610	0.320	-0.210	1.670
2020/01/31 12:27:05.6	110.610	0.310	-0.170	1.720
2020/01/31 12:27:05.7	110.610	0.300	-0.130	1.760
2020/01/31 12:27:05.8	110.610	0.280	-0.090	1.800
2020/01/31 12:27:05.9	110.610	0.270	-0.050	1.840
2020/01/31 12:27:06.0	110.610	0.250	-0.010	1.880
2020/01/31 12:27:06.1	110.600	0.230	0.040	1.920
2020/01/31 12:27:06.2	110.600	0.210	0.080	1.950
2020/01/31 12:27:06.3	110.590	0.180	0.120	1.980
2020/01/31 12:27:06.4	110.580	0.160	0.160	2.020
2020/01/31 12:27:06.5	110.570	0.130	0.200	2.050
2020/01/31 12:27:06.6	110.560	0.110	0.230	2.080
2020/01/31 12:27:06.7	110.540	0.080	0.270	2.100
2020/01/31 12:27:06.8	110.530	0.050	0.300	2.120
2020/01/31 12:27:06.9	110.510	0.030	0.330	2.140
2020/01/31 12:27:07.0	110.500	0.000	0.360	2.160
2020/01/31 12:27:07.1	110.480	-0.030	0.380	2.180
2020/01/31 12:27:07.2	110.460	-0.050	0.400	2.190
2020/01/31 12:27:07.3	110.440	-0.080	0.420	2.200
2020/01/31 12:27:07.4	110.420	-0.100	0.440	2.210
2020/01/31 12:27:07.5	110.370	-0.120	0.450	2.220
2020/01/31 12:27:07.6	110.350	-0.140	0.460	2.220
2020/01/31 12:27:07.7	110.330	-0.160	0.460	2.220
2020/01/31 12:27:07.8	110.300	-0.180	0.460	2.220
2020/01/31 12:27:07.9	110.280	-0.200	0.460	2.220
2020/01/31 12:27:08.0	110.260	-0.210	0.460	2.210
2020/01/31 12:27:08.1	110.240	-0.220	0.450	2.200
2020/01/31 12:27:08.2	110.210	-0.230	0.430	2.190
2020/01/31 12:27:08.3	110.190	-0.240	0.410	2.170
2020/01/31 12:27:08.4	110.170	-0.240	0.390	2.150
2020/01/31 12:27:08.5	110.140	-0.240	0.360	2.120
2020/01/31 12:27:08.6	110.120	-0.240	0.330	2.100
2020/01/31 12:27:08.7	110.110	-0.240	0.300	2.070
2020/01/31 12:27:08.8	110.090	-0.240	0.250	2.040
2020/01/31 12:27:08.9	110.080	-0.230	0.210	2.010
2020/01/31 12:27:09.0	110.060	-0.220	0.160	1.970
2020/01/31 12:27:09.1	110.050	-0.210	0.100	1.930
2020/01/31 12:27:09.2	110.050	-0.190	0.050	1.890
2020/01/31 12:27:09.3	110.040	-0.170	-0.010	1.850
2020/01/31 12:27:09.4	110.040	-0.160	-0.080	1.810
2020/01/31 12:27:09.5	110.040	-0.130	-0.150	1.760
2020/01/31 12:27:09.6	110.040	-0.110	-0.210	1.710
2020/01/31 12:27:09.7	110.050	-0.090	-0.290	1.660
2020/01/31 12:27:09.8	110.050	-0.060	-0.360	1.610
2020/01/31 12:27:09.9	110.060	-0.040	-0.430	1.560
2020/01/31 12:27:10.0	110.070	-0.010	-0.500	1.510
2020/01/31 12:27:10.1	110.080	0.020	-0.570	1.460
2020/01/31 12:27:10.2	110.100	0.040	-0.640	1.400
2020/01/31 12:27:10.3	110.110	0.070	-0.700	1.350
2020/01/31 12:27:10.4	110.130	0.100	-0.770	1.300
2020/01/31 12:27:10.5	110.150	0.130	-0.830	1.250
2020/01/31 12:27:10.6	110.170	0.150	-0.880	1.210
2020/01/31 12:27:10.7	110.190	0.170	-0.930	1.160
2020/01/31 12:27:10.8	110.210	0.200	-0.970	1.110
2020/01/31 12:27:10.9	110.230	0.220	-1.010	1.060
2020/01/31 12:27:11.0	110.250	0.240	-1.040	1.020
2020/01/31 12:27:11.1	110.270	0.250	-1.070	0.970
2020/01/31 12:27:11.2	110.290	0.270	-1.080	0.930
2020/01/31 12:27:11.3	110.310	0.280	-1.090	0.880
2020/01/31 12:27:11.4	110.340	0.280	-1.090	0.840
2020/01/31 12:27:11.5	110.360	0.290	-1.080	0.790
2020/01/31 12:27:11.6	110.380	0.290	-1.060	0.750
2020/01/31 12:27:11.7	110.410	0.290	-1.040	0.710
2020/01/31 12:27:11.8	110.430	0.290	-1.000	0.670
2020/01/31 12:27:11.9	110.450	0.280	-0.960	0.630
2020/01/31 12:27:12.0	110.470	0.270	-0.910	0.590
2020/01/31 12:27:12.1	110.490	0.260	-0.850	0.550
2020/01/31 12:27:12.2	110.510	0.240	-0.790	0.520
2020/01/31 12:27:12.3	110.530	0.220	-0.720	0.480
2020/01/31 12:27:12.4	110.550	0.200	-0.640	0.450
2020/01/31 12:27:12.5	110.560	0.170	-0.560	0.420
2020/01/31 12:27:12.6	110.570	0.150	-0.470	0.390
2020/01/31 12:27:12.7	110.580	0.120	-0.390	0.370
2020/01/31 12:27:12.8	110.590	0.090	-0.300	0.350
2020/01/31 12:27:12.9	110.600	0.060	-0.200	0.330
2020/01/31 12:27:13.0	110.600	0.030	-0.110	0.310
2020/01/31 12:27:13.1	110.600	-0.010	-0.020	0.290
2020/01/31 12:27:13.2	110.600	-0.040	0.080	0.280
2020/01/31 12:27:13.3	110.600	-0.080	0.170	0.270
2020/01/31 12:27:13.4	110.590	-0.110	0.250	0.270
2020/01/31 12:27:13.5	110.580	-0.140	0.340	0.270
2020/01/31 12:27:13.6	110.570	-0.180	0.420	0.270
2020/01/31 12:27:13.7	110.560	-0.210	0.490	0.270
2020/01/31 12:27:13.8	110.550	-0.240	0.570	0.280
2020/01/31 12:27:13.9	110.530	-0.270	0.630	0.290
2020/01/31 12:27:14.0	110.510	-0.300	0.690	0.300
2020/01/31 12:27:14.1	110.490	-0.330	0.740	0.320
2020/01/31 12:27:14.2	110.470	-0.360	0.790	0.330
2020/01/31 12:27:14.3	110.450	-0.380	0.830	0.350
2020/01/31 12:27:14.4	110.430	-0.400	0.860	0.380
2020/01/31 12:27:14.5	110.420	-0.420	0.880	0.400
2020/01/31 12:27:14.6	110.390	-0.440	0.900	0.430
2020/01/31 12:27:14.7	110.370	-0.450	0.910	0.450
2020/01/31 12:27:14.8	110.340	-0.470	0.910	0.480
2020/01/31 12:27:14.9	110.320	-0.470	0.900	0.510
2020/01/31 12:27:15.0	110.290	-0.480	0.880	0.540
2020/01/31 12:27:15.1	110.270	-0.490	0.860	0.570
2020/01/31 12:27:15.2	110.240	-0.490	0.840	0.600
2020/01/31 12:27:15.3	110.220	-0.490	0.800	0.630
2020/01/31 12:27:15.4	110.200	-0.480	0.760	0.670
2020/01/31 12:27:15.5	110.170	-0.480	0.710	0.700
2020/01/31 12:27:15.6	110.150	-0.470	0.660	0.730
2020/01/31 12:27:15.7	110.130	-0.460	0.600	0.760
2020/01/31 12:27:15.8	110.110	-0.450	0.540	0.790
2020/01/31 12:27:15.9	110.090	-0.430	0.470	0.830
2020/01/31 12:27:16.0	110.070	-0.410	0.410	0.860
2020/01/31 12:27:16.1	110.050	-0.390	0.330	0.890
2020/01/31 12:27:16.2	110.040	-0.370	0.260	0.910
2020/01/31 12:27:16.3	110.030	-0.350	0.180	0.940
2020/01/31 12:27:16.4	110.020	-0.330	0.110	0.970
2020/01/31 12:27:16.5	110.000	-0.300	0.030	0.990
2020/01/31 12:27:16.6	110.000	-0.270	-0.050	1.020
2020/01/31 12:27:16.7	109.990	-0.250	-0.130	1.040
2020/01/31 12:27:16.8	109.990	-0.220	-0.210	1.060
2020/01/31 12:27:16.9	109.980	-0.190	-0.290	1.070
2020/01/31 12:27:17.0	109.980	-0.160	-0.360	1.090
2020/01/31 12:27:17.1	109.990	-0.120	-0.440	1.110
2020/01/31 12:27:17.2	109.990	-0.090	-0.510	1.120
2020/01/31 12:27:17.3	109.990	-0.060	-0.580	1.130
2020/01/31 12:27:17.4	110.000	-0.030	-0.650	1.140
2020/01/31 12:27:17.5	110.010	0.010	-0.710	1.150
2020/01/31 12:27:17.6	110.020	0.040	-0.770	1.150
2020/01/31 12:27:17.7	110.030	0.070	-0.830	1.160
2020/01/31 12:27:17.8	110.040	0.110	-0.880	1.160
2020/01/31 12:27:17.9	110.050	0.140	-0.930	1.170
2020/01/31 12:27:18.0	110.060	0.170	-0.980	1.170
2020/01/31 12:27:18.1	110.070	0.210	-1.020	1.170
2020/01/31 12:27:18.2	110.080	0.240	-1.060	1.170
2020/01/31 12:27:18.3	110.100	0.270	-1.090	1.170
2020/01/31 12:27:18.4	110.110	0.300	-1.120	1.170
2020/01/31 12:27:18.5	110.120	0.330	-1.140	1.180
2020/01/31 12:27:18.6	110.140	0.350	-1.160	1.180
2020/01/31 12:27:18.7	110.150	0.380	-1.180	1.180
2020/01/31 12:27:18.8	110.160	0.400	-1.190	1.180
2020/01/31 12:27:18.9	110.170	0.430	-1.190	1.190
2020/01/31 12:27:19.0	110.180	0.450	-1.190	1.200
2020/01/31 12:27:19.1	110.190	0.470	-1.190	1.200
2020/01/31 12:27:19.2	110.200	0.490	-1.180	1.210
2020/01/31 12:27:19.3	110.200	0.500	-1.160	1.220
2020/01/31 12:27:19.4	110.210	0.510	-1.140	1.240
2020/01/31 12:27:19.5	110.210	0.530	-1.120	1.250
2020/01/31 12:27:19.6	110.220	0.530	-1.090	1.270
2020/01/31 12:27:19.7	110.220	0.540	-1.060	1.290
2020/01/31 12:27:19.8	110.220	0.540	-1.020	1.310
2020/01/31 12:27:19.9	110.220	0.550	-0.980	1.340
2020/01/31 12:27:20.0	110.220	0.550	-0.940	1.360
2020/01/31 12:27:20.1	110.220	0.540	-0.890	1.390
2020/01/31 12:27:20.2	110.220	0.530	-0.840	1.410
2020/01/31 12:27:20.3	110.220	0.530	-0.780	1.440
2020/01/31 12:27:20.4	110.210	0.510	-0.720	1.470
2020/01/31 12:27:20.5	110.200	0.500	-0.660	1.500
2020/01/31 12:27:20.6	110.190	0.480	-0.590	1.530
2020/01/31 12:27:20.7	110.190	0.460	-0.520	1.560
2020/01/31 12:27:20.8	110.180	0.440	-0.450	1.590
2020/01/31 12:27:20.9	110.180	0.420	-0.380	1.620
2020/01/31 12:27:21.0	110.170	0.390	-0.300	1.650
2020/01/31 12:27:21.1	110.160	0.360	-0.220	1.680
2020/01/31 12:27:21.2	110.160	0.330	-0.140	1.710
2020/01/31 12:27:21.3	110.150	0.300	-0.070	1.730
2020/01/31 12:27:21.4	110.140	0.260	0.010	1.760
2020/01/31 12:27:21.5	110.130	0.230	0.090	1.780
2020/01/31 12:27:21.6	110.120	0.190	0.170	1.810
2020/01/31 12:27:21.7	110.110	0.150	0.240	1.820
2020/01/31 12:27:21.8	110.110	0.120	0.320	1.840
2020/01/31 12:27:21.9	110.100	0.080	0.390	1.860
2020/01/31 12:27:22.0	110.090	0.040	0.460	1.870
2020/01/31 12:27:22.1	110.090	0.000	0.520	1.870
2020/01/31 12:27:22.2	110.080	-0.040	0.580	1.880
2020/01/31 12:27:22.3	110.080	-0.070	0.640	1.880
2020/01/31 12:27:22.4	110.080	-0.110	0.690	1.880
2020/01/31 12:27:22.5	110.070	-0.140	0.740	1.870
2020/01/31 12:27:22.6	110.080	-0.180	0.790	1.870
2020/01/31 12:27:22.7	110.080	-0.210	0.820	1.850
2020/01/31 12:27:22.8	110.080	-0.240	0.860	1.840
2020/01/31 12:27:22.9	110.080	-0.270	0.880	1.820
2020/01/31 12:27:23.0	110.090	-0.300	0.900	1.800
2020/01/31 12:27:23.1	110.090	-0.320	0.920	1.770
2020/01/31 12:27:23.2	110.100	-0.340	0.920	1.750
2020/01/31 12:27:23.3	110.100	-0.360	0.920	1.720
2020/01/31 12:27:23.4	110.110	-0.380	0.920	1.690
2020/01/31 12:27:23.5	110.120	-0.390	0.910	1.650
2020/01/31 12:27:23.6	110.130	-0.410	0.890	1.620
2020/01/31 12:27:23.7	110.140	-0.410	0.860	1.580
2020/01/31 12:27:23.8	110.150	-0.420	0.840	1.540
2020/01/31 12:27:23.9	110.160	-0.420	0.800	1.500
2020/01/31 12:27:24.0	110.170	-0.420	0.760	1.460
2020/01/31 12:27:24.1	110.180	-0.410	0.720	1.420
2020/01/31 12:27:24.2	110.190	-0.400	0.670	1.370
2020/01/31 12:27:24.3	110.200	-0.390	0.610	1.330
2020/01/31 12:27:24.4	110.210	-0.380	0.550	1.290
2020/01/31 12:27:24.5	110.210	-0.360	0.490	1.250
2020/01/31 12:27:24.6	110.220	-0.340	0.430	1.210
2020/01/31 12:27:24.7	110.230	-0.320	0.360	1.170
2020/01/31 12:27:24.8	110.230	-0.300	0.290	1.130
2020/01/31 12:27:24.9	110.240	-0.270	0.210	1.090
2020/01/31 12:27:25.0	110.240	-0.250	0.140	1.060
2020/01/31 12:27:25.1	110.240	-0.220	0.060	1.030
2020/01/31 12:27:25.2	110.240	-0.190	-0.020	1.000
2020/01/31 12:27:25.3	110.240	-0.160	-0.090	0.970
2020/01/31 12:27:25.4	110.240	-0.120	-0.170	0.940
2020/01/31 12:27:25.5	110.240	-0.090	-0.240	0.910
2020/01/31 12:27:25.6	110.230	-0.060	-0.320	0.890
2020/01/31 12:27:25.7	110.230	-0.030	-0.390	0.860
2020/01/31 12:27:25.8	110.220	0.010	-0.460	0.840
2020/01/31 12:27:25.9	110.210	0.040	-0.520	0.820
2020/01/31 12:27:26.0	110.200	0.070	-0.580	0.800
2020/01/31 12:27:26.1	110.190	0.100	-0.640	0.780
2020/01/31 12:27:26.2	110.180	0.130	-0.690	0.760
2020/01/31 12:27:26.3	110.170	0.150	-0.740	0.740
2020/01/31 12:27:26.4	110.160	0.180	-0.780	0.720
2020/01/31 12:27:26.5	110.150	0.200	-0.820	0.710
2020/01/31 12:27:26.6	110.150	0.220	-0.850	0.690
2020/01/31 12:27:26.7	110.140	0.240	-0.870	0.670
2020/01/31 12:27:26.8	110.130	0.250	-0.890	0.660
2020/01/31 12:27:26.9	110.130	0.260	-0.910	0.640
2020/01/31 12:27:27.0	110.120	0.280	-0.920	0.630
2020/01/31 12:27:27.1	110.120	0.280	-0.920	0.620
2020/01/31 12:27:27.2	110.120	0.290	-0.910	0.610
2020/01/31 12:27:27.3	110.110	0.290	-0.910	0.600
2020/01/31 12:27:27.4	110.110	0.290	-0.890	0.590
2020/01/31 12:27:27.5	110.110	0.290	-0.870	0.590
2020/01/31 12:27:27.6	110.110	0.280	-0.850	0.580
2020/01/31 12:27:27.7	110.110	0.280	-0.820	0.580
2020/01/31 12:27:27.8	110.110	0.270	-0.790	0.580
2020/01/31 12:27:27.9	110.110	0.260	-0.760	0.580
2020/01/31 12:27:28.0	110.110	0.240	-0.720	0.580
2020/01/31 12:27:28.1	110.110	0.230	-0.680	0.580
2020/01/31 12:27:28.2	110.100	0.220	-0.640	0.590
2020/01/31 12:27:28.3	110.100	0.200	-0.600	0.600
2020/01/31 12:27:28.4	110.090	0.190	-0.560	0.600
2020/01/31 12:27:28.5	110.090	0.170	-0.510	0.620
2020/01/31 12:27:28.6	110.080	0.150	-0.470	0.630
2020/01/31 12:27:28.7	110.070	0.130	-0.430	0.640
2020/01/31 12:27:28.8	110.060	0.120	-0.390	0.660
2020/01/31 12:27:28.9	110.050	0.100	-0.350	0.670
2020/01/31 12:27:29.0	110.040	0.080	-0.320	0.690
2020/01/31 12:27:29.1	110.030	0.070	-0.280	0.710
2020/01/31 12:27:29.2	110.020	0.050	-0.250	0.730
2020/01/31 12:27:29.3	110.010	0.040	-0.220	0.740
2020/01/31 12:27:29.4	110.000	0.020	-0.200	0.760
2020/01/31 12:27:29.5	109.990	0.010	-0.170	0.780
2020/01/31 12:27:29.6	109.980	-0.000	-0.150	0.790
2020/01/31 12:27:29.7	109.970	-0.010	-0.130	0.800
2020/01/31 12:27:29.8	109.960	-0.020	-0.110	0.820
2020/01/31 12:27:29.9	109.960	-0.040	-0.100	0.830
2020/01/31 12:27:30.0	109.950	-0.050	-0.090	0.830
2020/01/31 12:27:30.1	109.950	-0.060	-0.070	0.840
2020/01/31 12:27:30.2	109.950	-0.060	-0.070	0.850
2020/01/31 12:27:30.3	109.950	-0.070	-0.060	0.850
2020/01/31 12:27:30.4	109.950	-0.080	-0.050	0.860
2020/01/31 12:27:30.5	109.970	-0.090	-0.050	0.860
2020/01/31 12:27:30.6	109.970	-0.100	-0.040	0.870
2020/01/31 12:27:30.7	109.980	-0.100	-0.040	0.870
2020/01/31 12:27:30.8	109.990	-0.110	-0.040	0.870
2020/01/31 12:27:30.9	110.000	-0.120	-0.040	0.880
2020/01/31 12:27:31.0	110.020	-0.130	-0.040	0.880
2020/01/31 12:27:31.1	110.030	-0.130	-0.040	0.890
2020/01/31 12:27:31.2	110.050	-0.140	-0.030	0.890
2020/01/31 12:27:31.3	110.060	-0.140	-0.030	0.900
2020/01/31 12:27:31.4	110.080	-0.150	-0.030	0.910
2020/01/31 12:27:31.5	110.090	-0.160	-0.030	0.920
2020/01/31 12:27:31.6	110.100	-0.160	-0.030	0.930
2020/01/31 12:27:31.7	110.120	-0.170	-0.030	0.950
2020/01/31 12:27:31.8	110.140	-0.180	-0.020	0.970
2020/01/31 12:27:31.9	110.160	-0.180	-0.020	0.990
2020/01/31 12:27:32.0	110.170	-0.190	-0.010	1.010
2020/01/31 12:27:32.1	110.190	-0.190	-0.000	1.040
2020/01/31 12:27:32.2	110.210	-0.200	0.000	1.060
2020/01/31 12:27:32.3	110.220	-0.200	0.010	1.090
2020/01/31 12:27:32.4	110.240	-0.210	0.020	1.120
2020/01/31 12:27:32.5	110.250	-0.210	0.030	1.150
2020/01/31 12:27:32.6	110.260	-0.210	0.040	1.180
2020/01/31 12:27:32.7	110.280	-0.220	0.050	1.220
2020/01/31 12:27:32.8	110.290	-0.220	0.070	1.250
2020/01/31 12:27:32.9	110.300	-0.220	0.080	1.280
2020/01/31 12:27:33.0	110.310	-0.220	0.090	1.310
2020/01/31 12:27:33.1	110.320	-0.220	0.100	1.350
2020/01/31 12:27:33.2	110.330	-0.220	0.110	1.380
2020/01/31 12:27:33.3	110.340	-0.220	0.120	1.410
2020/01/31 12:27:33.4	110.350	-0.220	0.130	1.450
2020/01/31 12:27:33.5	110.360	-0.210	0.140	1.480
2020/01/31 12:27:33.6	110.350	-0.210	0.150	1.510
2020/01/31 12:27:33.7	110.360	-0.200	0.150	1.540
2020/01/31 12:27:33.8	110.370	-0.200	0.160	1.560
2020/01/31 12:27:33.9	110.370	-0.190	0.160	1.590
2020/01/31 12:27:34.0	110.380	-0.180	0.160	1.610
2020/01/31 12:27:34.1	110.380	-0.170	0.160	1.640
2020/01/31 12:27:34.2	110.380	-0.170	0.150	1.660
2020/01/31 12:27:34.3	110.390	-0.150	0.140	1.680
2020/01/31 12:27:34.4	110.390	-0.140	0.130	1.700
2020/01/31 12:27:34.5	110.380	-0.130	0.110	1.720
2020/01/31 12:27:34.6	110.380	-0.120	0.090	1.730
2020/01/31 12:27:34.7	110.380	-0.100	0.070	1.740
2020/01/31 12:27:34.8	110.380	-0.090	0.040	1.750
2020/01/31 12:27:34.9	110.380	-0.080	0.020	1.760
2020/01/31 12:27:35.0	110.370	-0.060	-0.020	1.760
2020/01/31 12:27:35.1	110.370	-0.040	-0.050	1.770
2020/01/31 12:27:35.2	110.360	-0.030	-0.090	1.770
2020/01/31 12:27:35.3	110.360	-0.010	-0.130	1.770
2020/01/31 12:27:35.4	110.350	0.010	-0.170	1.760
2020/01/31 12:27:35.5	110.340	0.020	-0.210	1.760
2020/01/31 12:27:35.6	110.330	0.040	-0.250	1.750
2020/01/31 12:27:35.7	110.320	0.060	-0.300	1.740
2020/01/31 12:27:35.8	110.310	0.070	-0.340	1.730
2020/01/31 12:27:35.9	110.300	0.090	-0.390	1.720
2020/01/31 12:27:36.0	110.290	0.100	-0.430	1.700
2020/01/31 12:27:36.1	110.270	0.120	-0.470	1.690
2020/01/31 12:27:36.2	110.260	0.140	-0.510	1.670
2020/01/31 12:27:36.3	110.250	0.150	-0.550	1.660
2020/01/31 12:27:36.4	110.240	0.170	-0.590	1.640
2020/01/31 12:27:36.5	110.220	0.180	-0.620	1.620
2020/01/31 12:27:36.6	110.210	0.190	-0.650	1.600
2020/01/31 12:27:36.7	110.200	0.200	-0.670	1.580
2020/01/31 12:27:36.8	110.190	0.220	-0.690	1.560
2020/01/31 12:27:36.9	110.180	0.230	-0.710	1.530
2020/01/31 12:27:37.0	110.170	0.230	-0.720	1.510
2020/01/31 12:27:37.1	110.170	0.240	-0.730	1.490
2020/01/31 12:27:37.2	110.160	0.250	-0.730	1.470
2020/01/31 12:27:37.3	110.160	0.250	-0.720	1.440
2020/01/31 12:27:37.4	110.160	0.260	-0.710	1.420
2020/01/31 12:27:37.5	110.160	0.260	-0.690	1.400
2020/01/31 12:27:37.6	110.160	0.260	-0.670	1.370
2020/01/31 12:27:37.7	110.170	0.260	-0.640	1.340
2020/01/31 12:27:37.8	110.170	0.250	-0.610	1.320
2020/01/31 12:27:37.9	110.180	0.250	-0.580	1.290
2020/01/31 12:27:38.0	110.190	0.240	-0.540	1.260
2020/01/31 12:27:38.1	110.200	0.230	-0.490	1.240
2020/01/31 12:27:38.2	110.210	0.220	-0.450	1.210
2020/01/31 12:27:38.3	110.220	0.210	-0.390	1.180
2020/01/31 12:27:38.4	110.240	0.200	-0.340	1.150
2020/01/31 12:27:38.5	110.270	0.180	-0.280	1.120
2020/01/31 12:27:38.6	110.290	0.160	-0.230	1.090
2020/01/31 12:27:38.7	110.310	0.150	-0.170	1.060
2020/01/31 12:27:38.8	110.330	0.130	-0.110	1.030
2020/01/31 12:27:38.9	110.350	0.100	-0.040	1.000
2020/01/31 12:27:39.0	110.370	0.080	0.020	0.970
2020/01/31 12:27:39.1	110.400	0.060	0.080	0.940
2020/01/31 12:27:39.2	110.420	0.040	0.140	0.910
2020/01/31 12:27:39.3	110.440	0.010	0.190	0.880
2020/01/31 12:27:39.4	110.460	-0.010	0.250	0.850
2020/01/31 12:27:39.5	110.480	-0.040	0.300	0.810
2020/01/31 12:27:39.6	110.510	-0.060	0.350	0.780
2020/01/31 12:27:39.7	110.530	-0.090	0.400	0.750
2020/01/31 12:27:39.8	110.550	-0.110	0.440	0.720
2020/01/31 12:27:39.9	110.570	-0.130	0.480	0.690
2020/01/31 12:27:40.0	110.590	-0.160	0.520	0.660
2020/01/31 12:27:40.1	110.610	-0.180	0.550	0.630
2020/01/31 12:27:40.2	110.630	-0.200	0.570	0.610
2020/01/31 12:27:40.3	110.640	-0.210	0.590	0.580
2020/01/31 12:27:40.4	110.660	-0.230	0.610	0.560
2020/01/31 12:27:40.5	110.660	-0.240	0.610	0.540
2020/01/31 12:27:40.6	110.670	-0.260	0.610	0.520
2020/01/31 12:27:40.7	110.680	-0.270	0.610	0.510
2020/01/31 12:27:40.8	110.690	-0.270	0.600	0.490
2020/01/31 12:27:40.9	110.700	-0.280	0.580	0.480
2020/01/31 12:27:41.0	110.700	-0.280	0.550	0.470
2020/01/31 12:27:41.1	110.710	-0.280	0.520	0.470
2020/01/31 12:27:41.2	110.710	-0.280	0.480	0.460
2020/01/31 12:27:41.3	110.710	-0.270	0.440	0.460
2020/01/31 12:27:41.4	110.710	-0.260	0.390	0.460
2020/01/31 12:27:41.5	110.710	-0.250	0.330	0.460
2020/01/31 12:27:41.6	110.700	-0.240	0.270	0.460
2020/01/31 12:27:41.7	110.700	-0.230	0.210	0.470
2020/01/31 12:27:41.8	110.700	-0.210	0.140	0.480
2020/01/31 12:27:41.9	110.690	-0.190	0.060	0.480
2020/01/31 12:27:42.0	110.690	-0.170	-0.020	0.490
2020/01/31 12:27:42.1	110.680	-0.150	-0.090	0.510
2020/01/31 12:27:42.2	110.670	-0.120	-0.180	0.520
2020/01/31 12:27:42.3	110.670	-0.100	-0.260	0.530
2020/01/31 12:27:42.4	110.660	-0.070	-0.340	0.540
2020/01/31 12:27:42.5	110.670	-0.050	-0.420	0.560
2020/01/31 12:27:42.6	110.660	-0.020	-0.500	0.570
2020/01/31 12:27:42.7	110.650	0.000	-0.580	0.590
2020/01/31 12:27:42.8	110.650	0.030	-0.660	0.610
2020/01/31 12:27:42.9	110.640	0.060	-0.730	0.620
2020/01/31 12:27:43.0	110.630	0.080	-0.790	0.640
2020/01/31 12:27:43.1	110.620	0.110	-0.850	0.660
2020/01/31 12:27:43.2	110.620	0.130	-0.910	0.680
2020/01/31 12:27:43.3	110.610	0.150	-0.960	0.700
2020/01/31 12:27:43.4	110.600	0.170	-1.000	0.720
2020/01/31 12:27:43.5	110.590	0.190	-1.040	0.740
2020/01/31 12:27:43.6	110.580	0.210	-1.060	0.760
2020/01/31 12:27:43.7	110.580	0.230	-1.080	0.780
2020/01/31 12:27:43.8	110.580	0.240	-1.100	0.800
2020/01/31 12:27:43.9	110.570	0.250	-1.100	0.820
2020/01/31 12:27:44.0	110.570	0.260	-1.100	0.840
2020/01/31 12:27:44.1	110.580	0.270	-1.080	0.860
2020/01/31 12:27:44.2	110.580	0.280	-1.060	0.880
2020/01/31 12:27:44.3	110.580	0.290	-1.040	0.900
2020/01/31 12:27:44.4	110.590	0.290	-1.000	0.920
2020/01/31 12:27:44.5	110.590	0.290	-0.960	0.940
2020/01/31 12:27:44.6	110.600	0.290	-0.910	0.960
2020/01/31 12:27:44.7	110.610	0.290	-0.860	0.990
2020/01/31 12:27:44.8	110.620	0.290	-0.800	1.010
2020/01/31 12:27:44.9	110.630	0.290	-0.740	1.030
2020/01/31 12:27:45.0	110.640	0.280	-0.680	1.050
2020/01/31 12:27:45.1	110.660	0.270	-0.610	1.070
2020/01/31 12:27:45.2	110.670	0.270	-0.540	1.100
2020/01/31 12:27:45.3	110.690	0.260	-0.470	1.120
2020/01/31 12:27:45.4	110.700	0.250	-0.400	1.150
2020/01/31 12:27:45.5	110.720	0.240	-0.330	1.170
2020/01/31 12:27:45.6	110.740	0.230	-0.260	1.200
2020/01/31 12:27:45.7	110.750	0.220	-0.190	1.230
2020/01/31 12:27:45.8	110.760	0.210	-0.120	1.260
2020/01/31 12:27:45.9	110.780	0.200	-0.060	1.280
2020/01/31 12:27:46.0	110.790	0.180	0.000	1.310
2020/01/31 12:27:46.1	110.800	0.170	0.060	1.340
2020/01/31 12:27:46.2	110.810	0.160	0.110	1.370
2020/01/31 12:27:46.3	110.820	0.150	0.160	1.410
2020/01/31 12:27:46.4	110.820	0.130	0.210	1.440
2020/01/31 12:27:46.5	110.840	0.120	0.240	1.470
2020/01/31 12:27:46.6	110.850	0.110	0.280	1.500
2020/01/31 12:27:46.7	110.850	0.090	0.310	1.530
2020/01/31 12:27:46.8	110.860	0.080	0.340	1.560
2020/01/31 12:27:46.9	110.860	0.070	0.360	1.590
2020/01/31 12:27:47.0	110.860	0.050	0.380	1.620
2020/01/31 12:27:47.1	110.860	0.040	0.390	1.650
2020/01/31 12:27:47.2	110.870	0.020	0.400	1.670
2020/01/31 12:27:47.3	110.870	0.010	0.410	1.690
2020/01/31 12:27:47.4	110.870	-0.010	0.410	1.710
2020/01/31 12:27:47.5	110.880	-0.020	0.410	1.730
2020/01/31 12:27:47.6	110.890	-0.040	0.410	1.740
2020/01/31 12:27:47.7	110.890	-0.060	0.400	1.760
2020/01/31 12:27:47.8	110.890	-0.070	0.400	1.770
2020/01/31 12:27:47.9	110.900	-0.090	0.390	1.770
2020/01/31 12:27:48.0	110.900	-0.110	0.380	1.780
2020/01/31 12:27:48.1	110.910	-0.120	0.370	1.780
2020/01/31 12:27:48.2	110.910	-0.140	0.360	1.780
2020/01/31 12:27:48.3	110.920	-0.160	0.350	1.770
2020/01/31 12:27:48.4	110.920	-0.170	0.340	1.770
2020/01/31 12:27:48.5	110.920	-0.190	0.320	1.760
2020/01/31 12:27:48.6	110.930	-0.210	0.310	1.750
2020/01/31 12:27:48.7	110.930	-0.220	0.300	1.730
2020/01/31 12:27:48.8	110.940	-0.240	0.280	1.720
2020/01/31 12:27:48.9	110.950	-0.250	0.270	1.700
2020/01/31 12:27:49.0	110.950	-0.260	0.260	1.690
2020/01/31 12:27:49.1	110.960	-0.270	0.240	1.670
2020/01/31 12:27:49.2	110.960	-0.290	0.230	1.650
2020/01/31 12:27:49.3	110.970	-0.290	0.210	1.630
2020/01/31 12:27:49.4	110.980	-0.300	0.190	1.610
2020/01/31 12:27:49.5	110.960	-0.310	0.180	1.590
2020/01/31 12:27:49.6	110.970	-0.310	0.160	1.560
2020/01/31 12:27:49.7	110.970	-0.320	0.140	1.540
2020/01/31 12:27:49.8	110.970	-0.320	0.120	1.520
2020/01/31 12:27:49.9	110.970	-0.320	0.100	1.500
2020/01/31 12:27:50.0	110.970	-0.320	0.080	1.480
2020/01/31 12:27:50.1	110.980	-0.320	0.050	1.460
2020/01/31 12:27:50.2	110.980	-0.310	0.030	1.450
2020/01/31 12:27:50.3	110.980	-0.300	0.000	1.430
2020/01/31 12:27:50.4	110.980	-0.300	-0.030	1.410
2020/01/31 12:27:50.5	110.970	-0.290	-0.060	1.390
2020/01/31 12:27:50.6	110.970	-0.280	-0.090	1.370
2020/01/31 12:27:50.7	110.970	-0.260	-0.120	1.350
2020/01/31 12:27:50.8	110.970	-0.250	-0.150	1.330
2020/01/31 12:27:50.9	110.980	-0.240	-0.190	1.310
2020/01/31 12:27:51.0	110.980	-0.220	-0.230	1.290
2020/01/31 12:27:51.1	110.990	-0.210	-0.260	1.270
2020/01/31 12:27:51.2	110.990	-0.190	-0.300	1.260
2020/01/31 12:27:51.3	111.000	-0.170	-0.340	1.240
2020/01/31 12:27:51.4	111.010	-0.150	-0.380	1.220
2020/01/31 12:27:51.5	111.030	-0.140	-0.420	1.200
2020/01/31 12:27:51.6	111.040	-0.120	-0.460	1.180
2020/01/31 12:27:51.7	111.050	-0.100	-0.500	1.160
2020/01/31 12:27:51.8	111.060	-0.080	-0.540	1.140
2020/01/31 12:27:51.9	111.070	-0.060	-0.570	1.120
2020/01/31 12:27:52.0	111.090	-0.040	-0.610	1.100
2020/01/31 12:27:52.1	111.100	-0.030	-0.640	1.080
2020/01/31 12:27:52.2	111.120	-0.010	-0.670	1.060
2020/01/31 12:27:52.3	111.130	0.010	-0.700	1.040
2020/01/31 12:27:52.4	111.150	0.020	-0.730	1.020
2020/01/31 12:27:52.5	111.170	0.040	-0.750	1.010
2020/01/31 12:27:52.6	111.180	0.050	-0.770	0.990
2020/01/31 12:27:52.7	111.200	0.060	-0.780	0.970
2020/01/31 12:27:52.8	111.220	0.080	-0.800	0.950
2020/01/31 12:27:52.9	111.240	0.090	-0.810	0.940
2020/01/31 12:27:53.0	111.250	0.100	-0.820	0.920
2020/01/31 12:27:53.1	111.270	0.110	-0.820	0.900
2020/01/31 12:27:53.2	111.280	0.110	-0.820	0.890
2020/01/31 12:27:53.3	111.300	0.120	-0.820	0.870
2020/01/31 12:27:53.4	111.310	0.120	-0.810	0.860
2020/01/31 12:27:53.5	111.330	0.130	-0.800	0.840
2020/01/31 12:27:53.6	111.330	0.130	-0.790	0.830
2020/01/31 12:27:53.7	111.350	0.130	-0.770	0.820
2020/01/31 12:27:53.8	111.360	0.130	-0.750	0.810
2020/01/31 12:27:53.9	111.370	0.130	-0.730	0.790
2020/01/31 12:27:54.0	111.380	0.130	-0.710	0.780
2020/01/31 12:27:54.1	111.390	0.130	-0.680	0.780
2020/01/31 12:27:54.2	111.390	0.120	-0.650	0.770
2020/01/31 12:27:54.3	111.400	0.120	-0.620	0.760
2020/01/31 12:27:54.4	111.400	0.110	-0.580	0.750
2020/01/31 12:27:54.5	111.420	0.110	-0.540	0.750
2020/01/31 12:27:54.6	111.420	0.100	-0.500	0.740
2020/01/31 12:27:54.7	111.420	0.090	-0.460	0.740
2020/01/31 12:27:54.8	111.420	0.090	-0.420	0.730
2020/01/31 12:27:54.9	111.420	0.080	-0.370	0.730
2020/01/31 12:27:55.0	111.420	0.070	-0.330	0.730
2020/01/31 12:27:55.1	111.410	0.060	-0.280	0.730
2020/01/31 12:27:55.2	111.410	0.060	-0.240	0.730
2020/01/31 12:27:55.3	111.400	0.050	-0.190	0.730
2020/01/31 12:27:55.4	111.390	0.040	-0.140	0.740
2020/01/31 12:27:55.5	111.370	0.030	-0.100	0.740
2020/01/31 12:27:55.6	111.360	0.030	-0.050	0.750
2020/01/31 12:27:55.7	111.350	0.020	-0.010	0.750
2020/01/31 12:27:55.8	111.340	0.020	0.040	0.760
2020/01/31 12:27:55.9	111.320	0.010	0.080	0.770
2020/01/31 12:27:56.0	111.300	0.010	0.120	0.780
2020/01/31 12:27:56.1	111.290	0.010	0.160	0.790
2020/01/31 12:27:56.2	111.270	0.000	0.200	0.800
2020/01/31 12:27:56.3	111.250	0.000	0.230	0.820
2020/01/31 12:27:56.4	111.230	0.000	0.270	0.830
2020/01/31 12:27:56.5	111.220	0.000	0.300	0.840
2020/01/31 12:27:56.6	111.200	0.000	0.330	0.850
2020/01/31 12:27:56.7	111.180	0.010	0.360	0.860
2020/01/31 12:27:56.8	111.170	0.010	0.390	0.880
2020/01/31 12:27:56.9	111.150	0.010	0.410	0.890
2020/01/31 12:27:57.0	111.130	0.010	0.430	0.900
2020/01/31 12:27:57.1	111.120	0.020	0.450	0.910
2020/01/31 12:27:57.2	111.110	0.020	0.470	0.920
2020/01/31 12:27:57.3	111.090	0.030	0.480	0.930
2020/01/31 12:27:57.4	111.080	0.030	0.490	0.940
2020/01/31 12:27:57.5	111.080	0.030	0.500	0.950
2020/01/31 12:27:57.6	111.080	0.040	0.510	0.950
2020/01/31 12:27:57.7	111.070	0.040	0.520	0.960
2020/01/31 12:27:57.8	111.070	0.050	0.520	0.960
2020/01/31 12:27:57.9	111.070	0.050	0.520	0.960
2020/01/31 12:27:58.0	111.070	0.060	0.510	0.960
2020/01/31 12:27:58.1	111.070	0.060	0.510	0.950
2020/01/31 12:27:58.2	111.080	0.070	0.500	0.950
2020/01/31 12:27:58.3	111.090	0.070	0.490	0.940
2020/01/31 12:27:58.4	111.100	0.070	0.470	0.930
2020/01/31 12:27:58.5	111.100	0.080	0.460	0.920
2020/01/31 12:27:58.6	111.120	0.080	0.440	0.910
2020/01/31 12:27:58.7	111.140	0.080	0.420	0.890
2020/01/31 12:27:58.8	111.160	0.080	0.390	0.880
2020/01/31 12:27:58.9	111.180	0.090	0.360	0.860
2020/01/31 12:27:59.0	111.200	0.090	0.330	0.850
2020/01/31 12:27:59.1	111.230	0.090	0.300	0.830
2020/01/31 12:27:59.2	111.250	0.090	0.260	0.810
2020/01/31 12:27:59.3	111.280	0.090	0.220	0.790
2020/01/31 12:27:59.4	111.310	0.090	0.180	0.780
2020/01/31 12:27:59.5	111.330	0.090	0.130	0.760
2020/01/31 12:27:59.6	111.360	0.090	0.090	0.750
2020/01/31 12:27:59.7	111.390	0.090	0.040	0.730
2020/01/31 12:27:59.8	111.420	0.090	-0.010	0.720
2020/01/31 12:27:59.9	111.450	0.080	-0.060	0.710
2020/01/31 12:28:00.0	111.470	0.080	-0.120	0.700
2020/01/31 12:28:00.1	111.500	0.080	-0.170	0.700
2020/01/31 12:28:00.2	111.520	0.080	-0.220	0.690
2020/01/31 12:28:00.3	111.540	0.080	-0.280	0.700
2020/01/31 12:28:00.4	111.560	0.080	-0.330	0.700
2020/01/31 12:28:00.5	111.570	0.080	-0.380	0.710
2020/01/31 12:28:00.6	111.590	0.080	-0.440	0.720
2020/01/31 12:28:00.7	111.600	0.080	-0.490	0.730
2020/01/31 12:28:00.8	111.610	0.070	-0.540	0.750
2020/01/31 12:28:00.9	111.610	0.070	-0.590	0.780
2020/01/31 12:28:01.0	111.610	0.070	-0.640	0.800
2020/01/31 12:28:01.1	111.610	0.070	-0.690	0.840
2020/01/31 12:28:01.2	111.610	0.080	-0.730	0.870
2020/01/31 12:28:01.3	111.610	0.080	-0.770	0.910
2020/01/31 12:28:01.4	111.600	0.080	-0.810	0.950
2020/01/31 12:28:01.5	111.590	0.080	-0.840	0.990
2020/01/31 12:28:01.6	111.580	0.080	-0.870	1.040
2020/01/31 12:28:01.7	111.570	0.080	-0.900	1.090
2020/01/31 12:28:01.8	111.560	0.080	-0.920	1.140
2020/01/31 12:28:01.9	111.540	0.080	-0.940	1.190
2020/01/31 12:28:02.0	111.530	0.090	-0.950	1.240
2020/01/31 12:28:02.1	111.510	0.090	-0.960	1.300
2020/01/31 12:28:02.2	111.500	0.090	-0.960	1.350
2020/01/31 12:28:02.3	111.480	0.090	-0.960	1.410
2020/01/31 12:28:02.4	111.470	0.090	-0.960	1.460
2020/01/31 12:28:02.5	111.450	0.090	-0.950	1.520
2020/01/31 12:28:02.6	111.440	0.090	-0.930	1.570
2020/01/31 12:28:02.7	111.420	0.090	-0.920	1.630
2020/01/31 12:28:02.8	111.410	0.090	-0.900	1.690
2020/01/31 12:28:02.9	111.390	0.090	-0.870	1.740
2020/01/31 12:28:03.0	111.380	0.090	-0.840	1.800
2020/01/31 12:28:03.1	111.370	0.090	-0.810	1.850
2020/01/31 12:28:03.2	111.350	0.080	-0.780	1.900
2020/01/31 12:28:03.3	111.340	0.080	-0.740	1.950
2020/01/31 12:28:03.4	111.330	0.070	-0.700	2.000
2020/01/31 12:28:03.5	111.320	0.070	-0.650	2.050
2020/01/31 12:28:03.6	111.310	0.060	-0.610	2.090
2020/01/31 12:28:03.7	111.300	0.050	-0.560	2.140
2020/01/31 12:28:03.8	111.290	0.040	-0.510	2.180
2020/01/31 12:28:03.9	111.290	0.030	-0.460	2.220
2020/01/31 12:28:04.0	111.280	0.020	-0.410	2.250
2020/01/31 12:28:04.1	111.280	0.000	-0.360	2.280
2020/01/31 12:28:04.2	111.280	-0.010	-0.300	2.310
2020/01/31 12:28:04.3	111.280	-0.030	-0.250	2.340
2020/01/31 12:28:04.4	111.280	-0.040	-0.200	2.360
2020/01/31 12:28:04.5	111.290	-0.060	-0.150	2.380
2020/01/31 12:28:04.6	111.290	-0.080	-0.100	2.390
2020/01/31 12:28:04.7	111.290	-0.090	-0.050	2.400
2020/01/31 12:28:04.8	111.300	-0.110	-0.000	2.410
2020/01/31 12:28:04.9	111.310	-0.130	0.050	2.410
2020/01/31 12:28:05.0	111.310	-0.150	0.090	2.410
2020/01/31 12:28:05.1	111.320	-0.170	0.130	2.400
2020/01/31 12:28:05.2	111.330	-0.190	0.170	2.390
2020/01/31 12:28:05.3	111.340	-0.210	0.200	2.380
2020/01/31 12:28:05.4	111.350	-0.230	0.240	2.360
2020/01/31 12:28:05.5	111.350	-0.240	0.260	2.340
2020/01/31 12:28:05.6	111.360	-0.260	0.290	2.310
2020/01/31 12:28:05.7	111.370	-0.280	0.310	2.280
2020/01/31 12:28:05.8	111.380	-0.290	0.330	2.250
2020/01/31 12:28:05.9	111.390	-0.310	0.350	2.210
2020/01/31 12:28:06.0	111.400	-0.320	0.360	2.170
2020/01/31 12:28:06.1	111.410	-0.330	0.370	2.130
2020/01/31 12:28:06.2	111.420	-0.340	0.380	2.080
2020/01/31 12:28:06.3	111.430	-0.350	0.380	2.030
2020/01/31 12:28:06.4	111.430	-0.360	0.390	1.980
2020/01/31 12:28:06.5	111.450	-0.360	0.390	1.930
2020/01/31 12:28:06.6	111.450	-0.370	0.380	1.870
2020/01/31 12:28:06.7	111.460	-0.370	0.380	1.820
2020/01/31 12:28:06.8	111.460	-0.370	0.370	1.760
2020/01/31 12:28:06.9	111.470	-0.370	0.360	1.700
2020/01/31 12:28:07.0	111.480	-0.370	0.360	1.640
2020/01/31 12:28:07.1	111.480	-0.360	0.350	1.580
2020/01/31 12:28:07.2	111.490	-0.350	0.330	1.510
2020/01/31 12:28:07.3	111.490	-0.350	0.320	1.450
2020/01/31 12:28:07.4	111.500	-0.340	0.310	1.380
2020/01/31 12:28:07.5	111.510	-0.320	0.290	1.320
2020/01/31 12:28:07.6	111.500	-0.310	0.280	1.250
2020/01/31 12:28:07.7	111.510	-0.300	0.260	1.190
2020/01/31 12:28:07.8	111.520	-0.280	0.250	1.120
2020/01/31 12:28:07.9	111.520	-0.270	0.230	1.060
2020/01/31 12:28:08.0	111.530	-0.250	0.210	0.990
2020/01/31 12:28:08.1	111.530	-0.230	0.200	0.930
2020/01/31 12:28:08.2	111.540	-0.210	0.180	0.870
2020/01/31 12:28:08.3	111.540	-0.190	0.160	0.810
2020/01/31 12:28:08.4	111.540	-0.170	0.140	0.740
2020/01/31 12:28:08.5	111.560	-0.150	0.120	0.680
2020/01/31 12:28:08.6	111.560	-0.130	0.100	0.620
2020/01/31 12:28:08.7	111.570	-0.100	0.070	0.560
2020/01/31 12:28:08.8	111.570	-0.080	0.050	0.510
2020/01/31 12:28:08.9	111.570	-0.060	0.020	0.450
2020/01/31 12:28:09.0	111.570	-0.040	-0.010	0.400
2020/01/31 12:28:09.1	111.570	-0.010	-0.040	0.340
2020/01/31 12:28:09.2	111.570	0.010	-0.070	0.290
2020/01/31 12:28:09.3	111.570	0.030	-0.100	0.240
2020/01/31 12:28:09.4	111.570	0.050	-0.140	0.190
2020/01/31 12:28:09.5	111.570	0.080	-0.170	0.150
2020/01/31 12:28:09.6	111.570	0.100	-0.210	0.100
2020/01/31 12:28:09.7	111.570	0.120	-0.250	0.060
2020/01/31 12:28:09.8	111.570	0.140	-0.290	0.020
2020/01/31 12:28:09.9	111.570	0.160	-0.330	-0.020
2020/01/31 12:28:10.0	111.570	0.180	-0.370	-0.060
2020/01/31 12:28:10.1	111.570	0.190	-0.410	-0.090
2020/01/31 12:28:10.2	111.570	0.210	-0.450	-0.130
2020/01/31 12:28:10.3	111.570	0.220	-0.480	-0.160
2020/01/31 12:28:10.4	111.580	0.240	-0.520	-0.180
2020/01/31 12:28:10.5	111.580	0.250	-0.560	-0.210
2020/01/31 12:28:10.6	111.580	0.260	-0.590	-0.230
2020/01/31 12:28:10.7	111.590	0.270	-0.620	-0.240
2020/01/31 12:28:10.8	111.590	0.280	-0.640	-0.260
2020/01/31 12:28:10.9	111.590	0.280	-0.670	-0.270
2020/01/31 12:28:11.0	111.590	0.280	-0.680	-0.270
2020/01/31 12:28:11.1	111.590	0.290	-0.700	-0.280
2020/01/31 12:28:11.2	111.600	0.290	-0.710	-0.280
2020/01/31 12:28:11.3	111.600	0.280	-0.710	-0.270
2020/01/31 12:28:11.4	111.600	0.280	-0.710	-0.260
2020/01/31 12:28:11.5	111.610	0.270	-0.710	-0.250
2020/01/31 12:28:11.6	111.610	0.270	-0.690	-0.230
2020/01/31 12:28:11.7	111.610	0.260	-0.680	-0.210
2020/01/31 12:28:11.8	111.620	0.250	-0.660	-0.190
2020/01/31 12:28:11.9	111.620	0.230	-0.630	-0.160
2020/01/31 12:28:12.0	111.620	0.220	-0.590	-0.130
2020/01/31 12:28:12.1	111.630	0.200	-0.560	-0.100
2020/01/31 12:28:12.2	111.630	0.190	-0.520	-0.060
2020/01/31 12:28:12.3	111.640	0.170	-0.470	-0.020
2020/01/31 12:28:12.4	111.640	0.150	-0.420	0.020
2020/01/31 12:28:12.5	111.650	0.130	-0.370	0.060
2020/01/31 12:28:12.6	111.670	0.110	-0.310	0.110
2020/01/31 12:28:12.7	111.670	0.090	-0.250	0.160
2020/01/31 12:28:12.8	111.680	0.070	-0.200	0.210
2020/01/31 12:28:12.9	111.690	0.050	-0.140	0.260
2020/01/31 12:28:13.0	111.700	0.030	-0.080	0.310
2020/01/31 12:28:13.1	111.710	0.010	-0.020	0.360
2020/01/31 12:28:13.2	111.720	-0.000	0.030	0.420
2020/01/31 12:28:13.3	111.730	-0.020	0.080	0.470
2020/01/31 12:28:13.4	111.740	-0.030	0.130	0.520
2020/01/31 12:28:13.5	111.750	-0.050	0.180	0.580
2020/01/31 12:28:13.6	111.760	-0.060	0.220	0.640
2020/01/31 12:28:13.7	111.770	-0.070	0.260	0.690
2020/01/31 12:28:13.8	111.780	-0.070	0.290	0.750
2020/01/31 12:28:13.9	111.790	-0.080	0.310	0.810
2020/01/31 12:28:14.0	111.800	-0.080	0.330	0.860
2020/01/31 12:28:14.1	111.800	-0.080	0.340	0.920
2020/01/31 12:28:14.2	111.810	-0.070	0.350	0.980
2020/01/31 12:28:14.3	111.820	-0.070	0.350	1.030
2020/01/31 12:28:14.4	111.820	-0.060	0.340	1.090
2020/01/31 12:28:14.5	111.830	-0.050	0.330	1.140
2020/01/31 12:28:14.6	111.830	-0.040	0.310	1.200
2020/01/31 12:28:14.7	111.830	-0.030	0.290	1.260
2020/01/31 12:28:14.8	111.840	-0.010	0.260	1.310
2020/01/31 12:28:14.9	111.840	0.000	0.220	1.370
2020/01/31 12:28:15.0	111.840	0.020	0.190	1.420
2020/01/31 12:28:15.1	111.830	0.040	0.150	1.480
2020/01/31 12:28:15.2	111.830	0.060	0.100	1.530
2020/01/31 12:28:15.3	111.830	0.080	0.050	1.580
2020/01/31 12:28:15.4	111.820	0.100	0.010	1.640
2020/01/31 12:28:15.5	111.800	0.120	-0.050	1.690
2020/01/31 12:28:15.6	111.790	0.140	-0.100	1.740
2020/01/31 12:28:15.7	111.780	0.160	-0.150	1.800
2020/01/31 12:28:15.8	111.770	0.180	-0.200	1.850
2020/01/31 12:28:15.9	111.760	0.200	-0.240	1.900
2020/01/31 12:28:16.0	111.750	0.210	-0.290	1.950
2020/01/31 12:28:16.1	111.730	0.220	-0.340	2.010
2020/01/31 12:28:16.2	111.720	0.240	-0.380	2.060
2020/01/31 12:28:16.3	111.700	0.250	-0.420	2.110
2020/01/31 12:28:16.4	111.690	0.260	-0.450	2.150
2020/01/31 12:28:16.5	111.690	0.260	-0.490	2.200
2020/01/31 12:28:16.6	111.680	0.270	-0.510	2.240
2020/01/31 12:28:16.7	111.660	0.270	-0.540	2.290
2020/01/31 12:28:16.8	111.650	0.270	-0.550	2.330
2020/01/31 12:28:16.9	111.640	0.260	-0.570	2.370
2020/01/31 12:28:17.0	111.630	0.260	-0.580	2.400
2020/01/31 12:28:17.1	111.620	0.250	-0.580	2.440
2020/01/31 12:28:17.2	111.610	0.240	-0.580	2.470
2020/01/31 12:28:17.3	111.610	0.230	-0.580	2.490
2020/01/31 12:28:17.4	111.610	0.210	-0.580	2.520
2020/01/31 12:28:17.5	111.600	0.200	-0.570	2.540
2020/01/31 12:28:17.6	111.590	0.180	-0.550	2.550
2020/01/31 12:28:17.7	111.590	0.160	-0.540	2.570
2020/01/31 12:28:17.8	111.590	0.140	-0.520	2.580
2020/01/31 12:28:17.9	111.590	0.120	-0.510	2.590
2020/01/31 12:28:18.0	111.600	0.100	-0.490	2.590
2020/01/31 12:28:18.1	111.600	0.070	-0.470	2.600
2020/01/31 12:28:18.2	111.610	0.050	-0.450	2.600
2020/01/31 12:28:18.3	111.620	0.030	-0.440	2.590
2020/01/31 12:28:18.4	111.630	0.000	-0.420	2.590
2020/01/31 12:28:18.5	111.630	-0.020	-0.410	2.580
2020/01/31 12:28:18.6	111.640	-0.040	-0.390	2.570
2020/01/31 12:28:18.7	111.650	-0.060	-0.380	2.550
2020/01/31 12:28:18.8	111.660	-0.080	-0.370	2.540
2020/01/31 12:28:18.9	111.670	-0.100	-0.370	2.520
2020/01/31 12:28:19.0	111.690	-0.120	-0.360	2.500
2020/01/31 12:28:19.1	111.700	-0.140	-0.350	2.480
2020/01/31 12:28:19.2	111.710	-0.160	-0.350	2.460
2020/01/31 12:28:19.3	111.730	-0.170	-0.350	2.430
2020/01/31 12:28:19.4	111.740	-0.190	-0.350	2.410
2020/01/31 12:28:19.5	111.750	-0.200	-0.350	2.380
2020/01/31 12:28:19.6	111.760	-0.210	-0.350	2.350
2020/01/31 12:28:19.7	111.780	-0.220	-0.350	2.320
2020/01/31 12:28:19.8	111.790	-0.230	-0.350	2.290
2020/01/31 12:28:19.9	111.810	-0.240	-0.350	2.260
2020/01/31 12:28:20.0	111.830	-0.250	-0.350	2.230
2020/01/31 12:28:20.1	111.840	-0.250	-0.350	2.190
2020/01/31 12:28:20.2	111.860	-0.250	-0.350	2.150
2020/01/31 12:28:20.3	111.880	-0.260	-0.340	2.110
2020/01/31 12:28:20.4	111.890	-0.260	-0.330	2.070
2020/01/31 12:28:20.5	111.910	-0.260	-0.320	2.030
2020/01/31 12:28:20.6	111.950	-0.260	-0.310	1.980
2020/01/31 12:28:20.7	111.960	-0.260	-0.290	1.940
2020/01/31 12:28:20.8	111.980	-0.260	-0.270	1.890
2020/01/31 12:28:20.9	112.000	-0.260	-0.250	1.840
2020/01/31 12:28:21.0	112.020	-0.260	-0.220	1.790
2020/01/31 12:28:21.1	112.030	-0.260	-0.190	1.730
2020/01/31 12:28:21.2	112.050	-0.260	-0.150	1.680
2020/01/31 12:28:21.3	112.070	-0.260	-0.120	1.620
2020/01/31 12:28:21.4	112.080	-0.260	-0.080	1.560
2020/01/31 12:28:21.5	112.090	-0.260	-0.030	1.510
2020/01/31 12:28:21.6	112.110	-0.260	0.010	1.450
2020/01/31 12:28:21.7	112.120	-0.260	0.060	1.390
2020/01/31 12:28:21.8	112.130	-0.270	0.110	1.330
2020/01/31 12:28:21.9	112.140	-0.270	0.160	1.260
2020/01/31 12:28:22.0	112.150	-0.270	0.210	1.200
2020/01/31 12:28:22.1	112.160	-0.270	0.260	1.140
2020/01/31 12:28:22.2	112.160	-0.280	0.310	1.080
2020/01/31 12:28:22.3	112.170	-0.280	0.360	1.020
2020/01/31 12:28:22.4	112.170	-0.290	0.410	0.950
2020/01/31 12:28:22.5	112.150	-0.290	0.460	0.890
2020/01/31 12:28:22.6	112.160	-0.300	0.500	0.830
2020/01/31 12:28:22.7	112.160	-0.300	0.540	0.770
2020/01/31 12:28:22.8	112.160	-0.310	0.580	0.710
2020/01/31 12:28:22.9	112.150	-0.310	0.610	0.660
2020/01/31 12:28:23.0	112.150	-0.320	0.650	0.600
2020/01/31 12:28:23.1	112.150	-0.330	0.670	0.540
2020/01/31 12:28:23.2	112.140	-0.330	0.700	0.490
2020/01/31 12:28:23.3	112.140	-0.340	0.720	0.440
2020/01/31 12:28:23.4	112.130	-0.340	0.730	0.390
2020/01/31 12:28:23.5	112.120	-0.340	0.740	0.340
2020/01/31 12:28:23.6	112.120	-0.350	0.740	0.290
2020/01/31 12:28:23.7	112.110	-0.350	0.740	0.240
2020/01/31 12:28:23.8	112.110	-0.350	0.730	0.200
2020/01/31 12:28:23.9	112.100	-0.350	0.720	0.160
2020/01/31 12:28:24.0	112.100	-0.350	0.700	0.120
2020/01/31 12:28:24.1	112.090	-0.340	0.670	0.090
2020/01/31 12:28:24.2	112.090	-0.340	0.640	0.050
2020/01/31 12:28:24.3	112.090	-0.330	0.610	0.020
2020/01/31 12:28:24.4	112.080	-0.320	0.560	-0.010
2020/01/31 12:28:24.5	112.100	-0.310	0.520	-0.040
2020/01/31 12:28:24.6	112.100	-0.300	0.470	-0.060
2020/01/31 12:28:24.7	112.100	-0.280	0.410	-0.090
2020/01/31 12:28:24.8	112.100	-0.260	0.350	-0.110
2020/01/31 12:28:24.9	112.100	-0.240	0.280	-0.130
2020/01/31 12:28:25.0	112.100	-0.220	0.220	-0.140
2020/01/31 12:28:25.1	112.100	-0.190	0.150	-0.160
2020/01/31 12:28:25.2	112.100	-0.170	0.070	-0.170
2020/01/31 12:28:25.3	112.110	-0.140	-0.000	-0.180
2020/01/31 12:28:25.4	112.110	-0.110	-0.080	-0.180
2020/01/31 12:28:25.5	112.110	-0.070	-0.160	-0.180
2020/01/31 12:28:25.6	112.120	-0.040	-0.240	-0.180
2020/01/31 12:28:25.7	112.120	-0.010	-0.310	-0.180
2020/01/31 12:28:25.8	112.120	0.030	-0.390	-0.180
2020/01/31 12:28:25.9	112.130	0.060	-0.470	-0.170
2020/01/31 12:28:26.0	112.130	0.100	-0.540	-0.170
2020/01/31 12:28:26.1	112.130	0.130	-0.610	-0.160
2020/01/31 12:28:26.2	112.140	0.170	-0.680	-0.150
2020/01/31 12:28:26.3	112.140	0.200	-0.750	-0.130
2020/01/31 12:28:26.4	112.150	0.240	-0.810	-0.120
2020/01/31 12:28:26.5	112.160	0.270	-0.860	-0.110
2020/01/31 12:28:26.6	112.170	0.300	-0.920	-0.090
2020/01/31 12:28:26.7	112.170	0.330	-0.960	-0.070
2020/01/31 12:28:26.8	112.180	0.360	-1.010	-0.050
2020/01/31 12:28:26.9	112.180	0.380	-1.040	-0.030
2020/01/31 12:28:27.0	112.190	0.400	-1.070	-0.010
2020/01/31 12:28:27.1	112.190	0.430	-1.100	0.020
2020/01/31 12:28:27.2	112.200	0.440	-1.120	0.040
2020/01/31 12:28:27.3	112.200	0.460	-1.140	0.070
2020/01/31 12:28:27.4	112.200	0.470	-1.150	0.100
2020/01/31 12:28:27.5	112.210	0.480	-1.150	0.130
2020/01/31 12:28:27.6	112.200	0.490	-1.150	0.170
2020/01/31 12:28:27.7	112.200	0.490	-1.150	0.200
2020/01/31 12:28:27.8	112.200	0.500	-1.140	0.240
2020/01/31 12:28:27.9	112.200	0.500	-1.120	0.280
2020/01/31 12:28:28.0	112.200	0.490	-1.100	0.320
2020/01/31 12:28:28.1	112.200	0.490	-1.080	0.360
2020/01/31 12:28:28.2	112.190	0.480	-1.050	0.400
2020/01/31 12:28:28.3	112.190	0.480	-1.020	0.450
2020/01/31 12:28:28.4	112.180	0.470	-0.990	0.500
2020/01/31 12:28:28.5	112.180	0.450	-0.950	0.550
2020/01/31 12:28:28.6	112.170	0.440	-0.910	0.600
2020/01/31 12:28:28.7	112.160	0.430	-0.870	0.660
2020/01/31 12:28:28.8	112.160	0.410	-0.830	0.720
2020/01/31 12:28:28.9	112.150	0.400	-0.780	0.780
2020/01/31 12:28:29.0	112.140	0.380	-0.730	0.840
2020/01/31 12:28:29.1	112.130	0.370	-0.680	0.910
2020/01/31 12:28:29.2	112.120	0.350	-0.640	0.970
2020/01/31 12:28:29.3	112.110	0.340	-0.590	1.040
2020/01/31 12:28:29.4	112.100	0.320	-0.540	1.110
2020/01/31 12:28:29.5	112.090	0.310	-0.480	1.180
2020/01/31 12:28:29.6	112.080	0.290	-0.430	1.260
2020/01/31 12:28:29.7	112.070	0.280	-0.380	1.330
2020/01/31 12:28:29.8	112.060	0.260	-0.330	1.400
2020/01/31 12:28:29.9	112.040	0.250	-0.280	1.480
2020/01/31 12:28:30.0	112.030	0.240	-0.230	1.560
2020/01/31 12:28:30.1	112.020	0.230	-0.180	1.630
2020/01/31 12:28:30.2	112.000	0.210	-0.130	1.710
2020/01/31 12:28:30.3	111.990	0.200	-0.080	1.780
2020/01/31 12:28:30.4	111.970	0.190	-0.040	1.860
2020/01/31 12:28:30.5	111.970	0.180	0.010	1.930
2020/01/31 12:28:30.6	111.960	0.170	0.050	2.000
2020/01/31 12:28:30.7	111.950	0.170	0.100	2.070
2020/01/31 12:28:30.8	111.940	0.160	0.140	2.130
2020/01/31 12:28:30.9	111.930	0.150	0.180	2.190
2020/01/31 12:28:31.0	111.920	0.140	0.220	2.250
2020/01/31 12:28:31.1	111.920	0.130	0.250	2.300
2020/01/31 12:28:31.2	111.910	0.120	0.290	2.350
2020/01/31 12:28:31.3	111.910	0.110	0.320	2.390
2020/01/31 12:28:31.4	111.910	0.100	0.350	2.430
2020/01/31 12:28:31.5	111.920	0.090	0.380	2.470
2020/01/31 12:28:31.6	111.930	0.080	0.400	2.490
2020/01/31 12:28:31.7	111.940	0.070	0.430	2.520
2020/01/31 12:28:31.8	111.950	0.060	0.450	2.530
2020/01/31 12:28:31.9	111.960	0.050	0.470	2.550
2020/01/31 12:28:32.0	111.970	0.030	0.480	2.550
2020/01/31 12:28:32.1	111.990	0.020	0.500	2.550
2020/01/31 12:28:32.2	112.010	0.010	0.510	2.550
2020/01/31 12:28:32.3	112.030	-0.010	0.520	2.540
2020/01/31 12:28:32.4	112.050	-0.030	0.520	2.530
2020/01/31 12:28:32.5	112.070	-0.040	0.520	2.510
2020/01/31 12:28:32.6	112.090	-0.060	0.520	2.490
2020/01/31 12:28:32.7	112.120	-0.080	0.520	2.470
2020/01/31 12:28:32.8	112.140	-0.100	0.520	2.440
2020/01/31 12:28:32.9	112.170	-0.120	0.510	2.420
2020/01/31 12:28:33.0	112.190	-0.140	0.500	2.390
2020/01/31 12:28:33.1	112.210	-0.160	0.490	2.350
2020/01/31 12:28:33.2	112.240	-0.180	0.470	2.320
2020/01/31 12:28:33.3	112.260	-0.200	0.450	2.290
2020/01/31 12:28:33.4	112.280	-0.220	0.430	2.250
2020/01/31 12:28:33.5	112.290	-0.240	0.410	2.220
2020/01/31 12:28:33.6	112.310	-0.260	0.390	2.180
2020/01/31 12:28:33.7	112.320	-0.280	0.360	2.140
2020/01/31 12:28:33.8	112.330	-0.300	0.340	2.110
2020/01/31 12:28:33.9	112.340	-0.320	0.310	2.070
2020/01/31 12:28:34.0	112.350	-0.330	0.280	2.040
2020/01/31 12:28:34.1	112.360	-0.350	0.250	2.000
2020/01/31 12:28:34.2	112.360	-0.370	0.220	1.970
2020/01/31 12:28:34.3	112.360	-0.380	0.190	1.940
2020/01/31 12:28:34.4	112.360	-0.390	0.160	1.900
2020/01/31 12:28:34.5	112.370	-0.410	0.130	1.870
2020/01/31 12:28:34.6	112.370	-0.420	0.100	1.840
2020/01/31 12:28:34.7	112.370	-0.430	0.060	1.800
2020/01/31 12:28:34.8	112.360	-0.430	0.030	1.770
2020/01/31 12:28:34.9	112.350	-0.440	0.000	1.740
2020/01/31 12:28:35.0	112.340	-0.440	-0.030	1.710
2020/01/31 12:28:35.1	112.330	-0.440	-0.060	1.680
2020/01/31 12:28:35.2	112.320	-0.450	-0.090	1.650
2020/01/31 12:28:35.3	112.310	-0.440	-0.130	1.620
2020/01/31 12:28:35.4	112.290	-0.440	-0.160	1.590
2020/01/31 12:28:35.5	112.280	-0.430	-0.190	1.560
2020/01/31 12:28:35.6	112.270	-0.430	-0.220	1.530
2020/01/31 12:28:35.7	112.260	-0.420	-0.250	1.500
2020/01/31 12:28:35.8	112.240	-0.400	-0.280	1.470
2020/01/31 12:28:35.9	112.220	-0.390	-0.310	1.440
2020/01/31 12:28:36.0	112.210	-0.380	-0.340	1.400
2020/01/31 12:28:36.1	112.190	-0.360	-0.370	1.370
2020/01/31 12:28:36.2	112.180	-0.340	-0.410	1.340
2020/01/31 12:28:36.3	112.170	-0.320	-0.440	1.300
2020/01/31 12:28:36.4	112.150	-0.290	-0.470	1.270
2020/01/31 12:28:36.5	112.150	-0.270	-0.510	1.230
2020/01/31 12:28:36.6	112.140	-0.240	-0.540	1.190
2020/01/31 12:28:36.7	112.130	-0.220	-0.570	1.150
2020/01/31 12:28:36.8	112.120	-0.190	-0.610	1.110
2020/01/31 12:28:36.9	112.110	-0.160	-0.640	1.070
2020/01/31 12:28:37.0	112.100	-0.130	-0.670	1.030
2020/01/31 12:28:37.1	112.090	-0.100	-0.710	0.980
2020/01/31 12:28:37.2	112.080	-0.070	-0.740	0.940
2020/01/31 12:28:37.3	112.080	-0.040	-0.770	0.900
2020/01/31 12:28:37.4	112.070	-0.010	-0.800	0.850
2020/01/31 12:28:37.5	112.070	0.020	-0.830	0.810
2020/01/31 12:28:37.6	112.060	0.050	-0.850	0.770
2020/01/31 12:28:37.7	112.060	0.090	-0.880	0.720
2020/01/31 12:28:37.8	112.060	0.110	-0.900	0.680
2020/01/31 12:28:37.9	112.060	0.140	-0.920	0.640
2020/01/31 12:28:38.0	112.060	0.170	-0.940	0.590
2020/01/31 12:28:38.1	112.070	0.200	-0.950	0.550
2020/01/31 12:28:38.2	112.070	0.220	-0.960	0.510
2020/01/31 12:28:38.3	112.070	0.250	-0.960	0.480
2020/01/31 12:28:38.4	112.080	0.270	-0.960	0.440
2020/01/31 12:28:38.5	112.060	0.290	-0.950	0.410
2020/01/31 12:28:38.6	112.060	0.310	-0.940	0.370
2020/01/31 12:28:38.7	112.060	0.330	-0.930	0.340
2020/01/31 12:28:38.8	112.070	0.340	-0.910	0.320
2020/01/31 12:28:38.9	112.070	0.360	-0.890	0.290
2020/01/31 12:28:39.0	112.080	0.370	-0.860	0.270
2020/01/31 12:28:39.1	112.080	0.380	-0.820	0.250
2020/01/31 12:28:39.2	112.080	0.380	-0.780	0.230
2020/01/31 12:28:39.3	112.090	0.390	-0.740	0.220
2020/01/31 12:28:39.4	112.090	0.390	-0.690	0.200
2020/01/31 12:28:39.5	112.090	0.390	-0.640	0.190
2020/01/31 12:28:39.6	112.090	0.390	-0.590	0.180
2020/01/31 12:28:39.7	112.090	0.380	-0.530	0.170
2020/01/31 12:28:39.8	112.100	0.370	-0.470	0.170
2020/01/31 12:28:39.9	112.100	0.360	-0.400	0.170
2020/01/31 12:28:40.0	112.100	0.350	-0.340	0.170
2020/01/31 12:28:40.1	112.100	0.330	-0.270	0.170
2020/01/31 12:28:40.2	112.110	0.320	-0.200	0.170
2020/01/31 12:28:40.3	112.110	0.300	-0.120	0.170
2020/01/31 12:28:40.4	112.110	0.270	-0.050	0.180
2020/01/31 12:28:40.5	112.120	0.250	0.030	0.190
2020/01/31 12:28:40.6	112.130	0.220	0.100	0.200
2020/01/31 12:28:40.7	112.130	0.190	0.180	0.210
2020/01/31 12:28:40.8	112.130	0.160	0.260	0.220
2020/01/31 12:28:40.9	112.130	0.130	0.330	0.230
2020/01/31 12:28:41.0	112.130	0.090	0.410	0.250
2020/01/31 12:28:41.1	112.130	0.060	0.480	0.270
2020/01/31 12:28:41.2	112.130	0.020	0.550	0.280
2020/01/31 12:28:41.3	112.130	-0.020	0.620	0.300
2020/01/31 12:28:41.4	112.130	-0.060	0.690	0.320
2020/01/31 12:28:41.5	112.120	-0.100	0.760	0.350
2020/01/31 12:28:41.6	112.130	-0.140	0.820	0.370
2020/01/31 12:28:41.7	112.130	-0.170	0.870	0.400
2020/01/31 12:28:41.8	112.130	-0.210	0.930	0.420
2020/01/31 12:28:41.9	112.120	-0.250	0.970	0.450
2020/01/31 12:28:42.0	112.120	-0.290	1.020	0.470
2020/01/31 12:28:42.1	112.110	-0.320	1.060	0.500
2020/01/31 12:28:42.2	112.110	-0.350	1.090	0.530
2020/01/31 12:28:42.3	112.110	-0.390	1.110	0.550
2020/01/31 12:28:42.4	112.100	-0.410	1.130	0.580
2020/01/31 12:28:42.5	112.090	-0.440	1.140	0.600
2020/01/31 12:28:42.6	112.080	-0.460	1.140	0.630
2020/01/31 12:28:42.7	112.080	-0.480	1.140	0.660
2020/01/31 12:28:42.8	112.080	-0.500	1.120	0.690
2020/01/31 12:28:42.9	112.070	-0.510	1.100	0.710
2020/01/31 12:28:43.0	112.070	-0.520	1.070	0.740
2020/01/31 12:28:43.1	112.070	-0.520	1.030	0.770
2020/01/31 12:28:43.2	112.070	-0.520	0.980	0.800
2020/01/31 12:28:43.3	112.070	-0.510	0.920	0.820
2020/01/31 12:28:43.4	112.070	-0.500	0.860	0.850
2020/01/31 12:28:43.5	112.060	-0.490	0.790	0.890
2020/01/31 12:28:43.6	112.060	-0.470	0.710	0.910
2020/01/31 12:28:43.7	112.060	-0.450	0.620	0.950
2020/01/31 12:28:43.8	112.060	-0.420	0.530	0.980
2020/01/31 12:28:43.9	112.050	-0.390	0.430	1.010
2020/01/31 12:28:44.0	112.050	-0.360	0.330	1.040
2020/01/31 12:28:44.1	112.050	-0.320	0.220	1.070
2020/01/31 12:28:44.2	112.050	-0.280	0.110	1.100
2020/01/31 12:28:44.3	112.050	-0.230	-0.000	1.130
2020/01/31 12:28:44.4	112.060	-0.180	-0.120	1.170
2020/01/31 12:28:44.5	112.060	-0.130	-0.240	1.200
2020/01/31 12:28:44.6	112.070	-0.080	-0.360	1.230
2020/01/31 12:28:44.7	112.070	-0.030	-0.480	1.260
2020/01/31 12:28:44.8	112.070	0.030	-0.600	1.290
2020/01/31 12:28:44.9	112.070	0.080	-0.710	1.320
2020/01/31 12:28:45.0	112.080	0.140	-0.830	1.350
2020/01/31 12:28:45.1	112.080	0.200	-0.940	1.380
2020/01/31 12:28:45.2	112.090	0.250	-1.040	1.400
2020/01/31 12:28:45.3	112.090	0.310	-1.150	1.430
2020/01/31 12:28:45.4	112.090	0.360	-1.240	1.460
2020/01/31 12:28:45.5	112.100	0.410	-1.330	1.490
2020/01/31 12:28:45.6	112.100	0.460	-1.420	1.510
2020/01/31 12:28:45.7	112.100	0.510	-1.500	1.540
2020/01/31 12:28:45.8	112.110	0.550	-1.570	1.570
2020/01/31 12:28:45.9	112.110	0.590	-1.630	1.590
2020/01/31 12:28:46.0	112.110	0.630	-1.680	1.620
2020/01/31 12:28:46.1	112.110	0.670	-1.720	1.650
2020/01/31 12:28:46.2	112.110	0.700	-1.760	1.670
2020/01/31 12:28:46.3	112.110	0.720	-1.780	1.700
2020/01/31 12:28:46.4	112.110	0.740	-1.800	1.730
2020/01/31 12:28:46.5	112.110	0.760	-1.800	1.760
2020/01/31 12:28:46.6	112.110	0.770	-1.790	1.780
2020/01/31 12:28:46.7	112.110	0.780	-1.780	1.810
2020/01/31 12:28:46.8	112.110	0.780	-1.750	1.840
2020/01/31 12:28:46.9	112.100	0.780	-1.720	1.870
2020/01/31 12:28:47.0	112.100	0.770	-1.670	1.900
2020/01/31 12:28:47.1	112.090	0.760	-1.610	1.930
2020/01/31 12:28:47.2	112.090	0.740	-1.550	1.960
2020/01/31 12:28:47.3	112.080	0.720	-1.480	2.000
2020/01/31 12:28:47.4	112.080	0.700	-1.400	2.030
2020/01/31 12:28:47.5	112.070	0.670	-1.310	2.060
2020/01/31 12:28:47.6	112.070	0.630	-1.210	2.090
2020/01/31 12:28:47.7	112.060	0.600	-1.110	2.120
2020/01/31 12:28:47.8	112.050	0.550	-1.000	2.150
2020/01/31 12:28:47.9	112.050	0.510	-0.890	2.190
2020/01/31 12:28:48.0	112.040	0.460	-0.770	2.220
2020/01/31 12:28:48.1	112.030	0.410	-0.650	2.250
2020/01/31 12:28:48.2	112.030	0.360	-0.530	2.280
2020/01/31 12:28:48.3	112.020	0.310	-0.400	2.300
2020/01/31 12:28:48.4	112.010	0.250	-0.280	2.330
2020/01/31 12:28:48.5	112.020	0.190	-0.150	2.360
2020/01/31 12:28:48.6	112.010	0.140	-0.020	2.380
2020/01/31 12:28:48.7	112.000	0.080	0.100	2.400
2020/01/31 12:28:48.8	111.990	0.020	0.220	2.420
2020/01/31 12:28:48.9	111.980	-0.030	0.330	2.440
2020/01/31 12:28:49.0	111.980	-0.090	0.440	2.450
2020/01/31 12:28:49.1	111.970	-0.150	0.550	2.460
2020/01/31 12:28:49.2	111.960	-0.200	0.650	2.470
2020/01/31 12:28:49.3	111.950	-0.250	0.740	2.470
2020/01/31 12:28:49.4	111.940	-0.300	0.830	2.470
2020/01/31 12:28:49.5	111.940	-0.350	0.910	2.470
2020/01/31 12:28:49.6	111.930	-0.390	0.980	2.460
2020/01/31 12:28:49.7	111.930	-0.430	1.040	2.440
2020/01/31 12:28:49.8	111.920	-0.470	1.090	2.420
2020/01/31 12:28:49.9	111.920	-0.500	1.140	2.400
2020/01/31 12:28:50.0	111.920	-0.540	1.180	2.370
2020/01/31 12:28:50.1	111.920	-0.560	1.210	2.340
2020/01/31 12:28:50.2	111.910	-0.590	1.230	2.300
2020/01/31 12:28:50.3	111.910	-0.610	1.240	2.260
2020/01/31 12:28:50.4	111.910	-0.630	1.240	2.210
2020/01/31 12:28:50.5	111.910	-0.640	1.240	2.160
2020/01/31 12:28:50.6	111.910	-0.650	1.230	2.100
2020/01/31 12:28:50.7	111.910	-0.660	1.210	2.040
2020/01/31 12:28:50.8	111.910	-0.660	1.180	1.980
2020/01/31 12:28:50.9	111.910	-0.660	1.150	1.910
2020/01/31 12:28:51.0	111.920	-0.660	1.110	1.840
2020/01/31 12:28:51.1	111.920	-0.650	1.060	1.770
2020/01/31 12:28:51.2	111.930	-0.640	1.010	1.700
2020/01/31 12:28:51.3	111.930	-0.630	0.960	1.620
2020/01/31 12:28:51.4	111.940	-0.610	0.900	1.550
2020/01/31 12:28:51.5	111.950	-0.590	0.830	1.460
2020/01/31 12:28:51.6	111.960	-0.570	0.760	1.380
2020/01/31 12:28:51.7	111.970	-0.550	0.690	1.300
2020/01/31 12:28:51.8	111.970	-0.530	0.610	1.220
2020/01/31 12:28:51.9	111.980	-0.500	0.540	1.140
2020/01/31 12:28:52.0	111.980	-0.470	0.460	1.060
2020/01/31 12:28:52.1	111.990	-0.450	0.380	0.980
2020/01/31 12:28:52.2	112.000	-0.420	0.300	0.910
2020/01/31 12:28:52.3	112.000	-0.380	0.220	0.830
2020/01/31 12:28:52.4	112.000	-0.350	0.140	0.760
2020/01/31 12:28:52.5	112.020	-0.320	0.050	0.690
2020/01/31 12:28:52.6	112.020	-0.280	-0.030	0.620
2020/01/31 12:28:52.7	112.020	-0.250	-0.110	0.550
2020/01/31 12:28:52.8	112.020	-0.210	-0.190	0.490
2020/01/31 12:28:52.9	112.020	-0.180	-0.260	0.430
2020/01/31 12:28:53.0	112.020	-0.140	-0.340	0.370
2020/01/31 12:28:53.1	112.020	-0.110	-0.410	0.310
2020/01/31 12:28:53.2	112.020	-0.070	-0.480	0.250
2020/01/31 12:28:53.3	112.020	-0.040	-0.550	0.200
2020/01/31 12:28:53.4	112.020	-0.000	-0.610	0.140
2020/01/31 12:28:53.5	112.030	0.030	-0.670	0.090
2020/01/31 12:28:53.6	112.030	0.060	-0.730	0.040
2020/01/31 12:28:53.7	112.030	0.100	-0.780	-0.010
2020/01/31 12:28:53.8	112.030	0.130	-0.830	-0.050
2020/01/31 12:28:53.9	112.040	0.160	-0.880	-0.100
2020/01/31 12:28:54.0	112.040	0.190	-0.920	-0.140
2020/01/31 12:28:54.1	112.040	0.220	-0.960	-0.180
2020/01/31 12:28:54.2	112.050	0.250	-0.990	-0.220
2020/01/31 12:28:54.3	112.050	0.280	-1.020	-0.260
2020/01/31 12:28:54.4	112.060	0.300	-1.050	-0.290
2020/01/31 12:28:54.5	112.050	0.330	-1.070	-0.320
2020/01/31 12:28:54.6	112.060	0.350	-1.080	-0.350
2020/01/31 12:28:54.7	112.060	0.380	-1.100	-0.380
2020/01/31 12:28:54.8	112.070	0.400	-1.110	-0.400
2020/01/31 12:28:54.9	112.070	0.420	-1.110	-0.430
2020/01/31 12:28:55.0	112.080	0.440	-1.110	-0.440
2020/01/31 12:28:55.1	112.080	0.450	-1.100	-0.460
2020/01/31 12:28:55.2	112.080	0.470	-1.100	-0.470
2020/01/31 12:28:55.3	112.080	0.480	-1.080	-0.470
2020/01/31 12:28:55.4	112.080	0.490	-1.060	-0.470
2020/01/31 12:28:55.5	112.060	0.500	-1.040	-0.470
2020/01/31 12:28:55.6	112.050	0.510	-1.010	-0.460
2020/01/31 12:28:55.7	112.050	0.510	-0.980	-0.450
2020/01/31 12:28:55.8	112.040	0.520	-0.950	-0.440
2020/01/31 12:28:55.9	112.040	0.520	-0.910	-0.420
2020/01/31 12:28:56.0	112.030	0.520	-0.860	-0.400
2020/01/31 12:28:56.1	112.020	0.510	-0.820	-0.370
2020/01/31 12:28:56.2	112.010	0.510	-0.760	-0.340
2020/01/31 12:28:56.3	112.000	0.500	-0.710	-0.310
2020/01/31 12:28:56.4	112.000	0.480	-0.650	-0.270
2020/01/31 12:28:56.5	111.980	0.470	-0.590	-0.230
2020/01/31 12:28:56.6	111.970	0.450	-0.520	-0.190
2020/01/31 12:28:56.7	111.960	0.430	-0.460	-0.140
2020/01/31 12:28:56.8	111.960	0.410	-0.390	-0.100
2020/01/31 12:28:56.9	111.950	0.390	-0.320	-0.040
2020/01/31 12:28:57.0	111.950	0.360	-0.240	0.010
2020/01/31 12:28:57.1	111.940	0.330	-0.170	0.060
2020/01/31 12:28:57.2	111.940	0.300	-0.100	0.120
2020/01/31 12:28:57.3	111.930	0.270	-0.020	0.180
2020/01/31 12:28:57.4	111.930	0.240	0.050	0.240
2020/01/31 12:28:57.5	111.940	0.200	0.120	0.310
2020/01/31 12:28:57.6	111.940	0.170	0.190	0.370
2020/01/31 12:28:57.7	111.940	0.130	0.260	0.440
2020/01/31 12:28:57.8	111.940	0.100	0.320	0.500
2020/01/31 12:28:57.9	111.940	0.060	0.390	0.570
2020/01/31 12:28:58.0	111.950	0.020	0.450	0.640
2020/01/31 12:28:58.1	111.950	-0.010	0.500	0.710
2020/01/31 12:28:58.2	111.950	-0.050	0.550	0.780
2020/01/31 12:28:58.3	111.960	-0.080	0.600	0.850
2020/01/31 12:28:58.4	111.970	-0.110	0.640	0.930
2020/01/31 12:28:58.5	111.970	-0.150	0.670	1.000
2020/01/31 12:28:58.6	111.980	-0.170	0.700	1.070
2020/01/31 12:28:58.7	111.990	-0.200	0.730	1.150
2020/01/31 12:28:58.8	111.990	-0.230	0.740	1.220
2020/01/31 12:28:58.9	112.000	-0.250	0.750	1.290
2020/01/31 12:28:59.0	112.010	-0.270	0.760	1.370
2020/01/31 12:28:59.1	112.010	-0.290	0.750	1.440
2020/01/31 12:28:59.2	112.020	-0.310	0.740	1.520
2020/01/31 12:28:59.3	112.020	-0.320	0.730	1.600
2020/01/31 12:28:59.4	112.020	-0.330	0.700	1.670
2020/01/31 12:28:59.5	112.030	-0.340	0.670	1.750
2020/01/31 12:28:59.6	112.030	-0.350	0.640	1.820
2020/01/31 12:28:59.7	112.030	-0.350	0.590	1.900
2020/01/31 12:28:59.8	112.030	-0.350	0.540	1.970
2020/01/31 12:28:59.9	112.020	-0.340	0.490	2.040
2020/01/31 12:29:00.0	112.020	-0.340	0.430	2.120
2020/01/31 12:29:00.1	112.010	-0.330	0.360	2.190
2020/01/31 12:29:00.2	112.000	-0.320	0.290	2.260
2020/01/31 12:29:00.3	111.990	-0.310	0.220	2.330
2020/01/31 12:29:00.4	111.980	-0.290	0.140	2.400
2020/01/31 12:29:00.5	111.970	-0.280	0.060	2.460
2020/01/31 12:29:00.6	111.950	-0.260	-0.030	2.530
2020/01/31 12:29:00.7	111.940	-0.240	-0.110	2.590
2020/01/31 12:29:00.8	111.920	-0.220	-0.200	2.650
2020/01/31 12:29:00.9	111.900	-0.200	-0.280	2.700
2020/01/31 12:29:01.0	111.890	-0.170	-0.360	2.750
2020/01/31 12:29:01.1	111.870	-0.150	-0.450	2.800
2020/01/31 12:29:01.2	111.850	-0.130	-0.530	2.850
2020/01/31 12:29:01.3	111.840	-0.100	-0.610	2.890
2020/01/31 12:29:01.4	111.820	-0.080	-0.680	2.930
2020/01/31 12:29:01.5	111.800	-0.050	-0.750	2.960
2020/01/31 12:29:01.6	111.780	-0.030	-0.820	2.990
2020/01/31 12:29:01.7	111.770	-0.010	-0.880	3.010
2020/01/31 12:29:01.8	111.760	0.010	-0.940	3.030
2020/01/31 12:29:01.9	111.750	0.030	-0.990	3.050
2020/01/31 12:29:02.0	111.740	0.050	-1.030	3.060
2020/01/31 12:29:02.1	111.730	0.070	-1.070	3.070
2020/01/31 12:29:02.2	111.730	0.090	-1.100	3.070
2020/01/31 12:29:02.3	111.720	0.100	-1.120	3.070
2020/01/31 12:29:02.4	111.720	0.120	-1.130	3.060
2020/01/31 12:29:02.5	111.710	0.130	-1.130	3.050
2020/01/31 12:29:02.6	111.710	0.140	-1.130	3.040
2020/01/31 12:29:02.7	111.710	0.150	-1.120	3.020
2020/01/31 12:29:02.8	111.710	0.160	-1.100	3.000
2020/01/31 12:29:02.9	111.710	0.160	-1.070	2.980
2020/01/31 12:29:03.0	111.720	0.160	-1.040	2.950
2020/01/31 12:29:03.1	111.720	0.170	-0.990	2.910
2020/01/31 12:29:03.2	111.730	0.170	-0.940	2.880
2020/01/31 12:29:03.3	111.740	0.160	-0.890	2.840
2020/01/31 12:29:03.4	111.750	0.160	-0.830	2.800
2020/01/31 12:29:03.5	111.750	0.150	-0.760	2.740
2020/01/31 12:29:03.6	111.770	0.140	-0.680	2.690
2020/01/31 12:29:03.7	111.780	0.130	-0.610	2.640
2020/01/31 12:29:03.8	111.790	0.120	-0.530	2.580
2020/01/31 12:29:03.9	111.810	0.110	-0.440	2.520
2020/01/31 12:29:04.0	111.820	0.100	-0.360	2.460
2020/01/31 12:29:04.1	111.840	0.080	-0.270	2.390
2020/01/31 12:29:04.2	111.860	0.070	-0.180	2.320
2020/01/31 12:29:04.3	111.880	0.050	-0.090	2.250
2020/01/31 12:29:04.4	111.900	0.030	-0.000	2.170
2020/01/31 12:29:04.5	111.910	0.020	0.090	2.090
2020/01/31 12:29:04.6	111.930	-0.000	0.170	2.010
2020/01/31 12:29:04.7	111.960	-0.020	0.260	1.920
2020/01/31 12:29:04.8	111.980	-0.040	0.340	1.830
2020/01/31 12:29:04.9	112.000	-0.050	0.420	1.730
2020/01/31 12:29:05.0	112.020	-0.070	0.490	1.640
2020/01/31 12:29:05.1	112.040	-0.090	0.560	1.540
2020/01/31 12:29:05.2	112.070	-0.100	0.620	1.440
2020/01/31 12:29:05.3	112.090	-0.120	0.670	1.340
2020/01/31 12:29:05.4	112.110	-0.130	0.720	1.240
2020/01/31 12:29:05.5	112.150	-0.150	0.760	1.140
2020/01/31 12:29:05.6	112.160	-0.160	0.790	1.030
2020/01/31 12:29:05.7	112.180	-0.170	0.820	0.930
2020/01/31 12:29:05.8	112.190	-0.170	0.830	0.830
2020/01/31 12:29:05.9	112.210	-0.180	0.840	0.730
2020/01/31 12:29:06.0	112.210	-0.180	0.840	0.630
2020/01/31 12:29:06.1	112.220	-0.190	0.830	0.530
2020/01/31 12:29:06.2	112.230	-0.190	0.820	0.440
2020/01/31 12:29:06.3	112.230	-0.180	0.790	0.340
2020/01/31 12:29:06.4	112.230	-0.180	0.760	0.250
2020/01/31 12:29:06.5	112.240	-0.170	0.720	0.170
2020/01/31 12:29:06.6	112.230	-0.170	0.670	0.090
2020/01/31 12:29:06.7	112.220	-0.160	0.620	0.010
2020/01/31 12:29:06.8	112.210	-0.150	0.560	-0.070
2020/01/31 12:29:06.9	112.200	-0.130	0.490	-0.140
2020/01/31 12:29:07.0	112.180	-0.120	0.420	-0.210
2020/01/31 12:29:07.1	112.170	-0.100	0.350	-0.270
2020/01/31 12:29:07.2	112.150	-0.080	0.270	-0.320
2020/01/31 12:29:07.3	112.120	-0.060	0.190	-0.370
2020/01/31 12:29:07.4	112.100	-0.040	0.110	-0.420
2020/01/31 12:29:07.5	112.070	-0.020	0.030	-0.460
2020/01/31 12:29:07.6	112.040	0.010	-0.060	-0.500
2020/01/31 12:29:07.7	112.010	0.030	-0.140	-0.530
2020/01/31 12:29:07.8	111.980	0.050	-0.230	-0.560
2020/01/31 12:29:07.9	111.950	0.080	-0.310	-0.580
2020/01/31 12:29:08.0	111.920	0.100	-0.390	-0.590
2020/01/31 12:29:08.1	111.890	0.130	-0.470	-0.610
2020/01/31 12:29:08.2	111.850	0.150	-0.550	-0.620
2020/01/31 12:29:08.3	111.820	0.170	-0.620	-0.620
2020/01/31 12:29:08.4	111.800	0.200	-0.690	-0.630
2020/01/31 12:29:08.5	111.770	0.220	-0.760	-0.630
2020/01/31 12:29:08.6	111.740	0.240	-0.820	-0.630
2020/01/31 12:29:08.7	111.710	0.260	-0.870	-0.620
2020/01/31 12:29:08.8	111.690	0.280	-0.920	-0.620
2020/01/31 12:29:08.9	111.670	0.290	-0.970	-0.610
2020/01/31 12:29:09.0	111.660	0.310	-1.010	-0.600
2020/01/31 12:29:09.1	111.650	0.320	-1.040	-0.600
2020/01/31 12:29:09.2	111.640	0.330	-1.060	-0.590
2020/01/31 12:29:09.3	111.640	0.340	-1.080	-0.570
2020/01/31 12:29:09.4	111.640	0.350	-1.100	-0.560
2020/01/31 12:29:09.5	111.640	0.350	-1.100	-0.550
2020/01/31 12:29:09.6	111.650	0.350	-1.100	-0.540
2020/01/31 12:29:09.7	111.660	0.360	-1.100	-0.520
2020/01/31 12:29:09.8	111.660	0.350	-1.080	-0.510
2020/01/31 12:29:09.9	111.680	0.350	-1.060	-0.490
2020/01/31 12:29:10.0	111.690	0.350	-1.040	-0.470
2020/01/31 12:29:10.1	111.710	0.340	-1.010	-0.450
2020/01/31 12:29:10.2	111.730	0.330	-0.970	-0.430
2020/01/31 12:29:10.3	111.740	0.320	-0.930	-0.410
2020/01/31 12:29:10.4	111.760	0.310	-0.890	-0.380
2020/01/31 12:29:10.5	111.790	0.290	-0.840	-0.350
2020/01/31 12:29:10.6	111.810	0.280	-0.790	-0.310
2020/01/31 12:29:10.7	111.830	0.260	-0.730	-0.280
2020/01/31 12:29:10.8	111.850	0.250	-0.670	-0.240
2020/01/31 12:29:10.9	111.870	0.230	-0.610	-0.200
2020/01/31 12:29:11.0	111.900	0.210	-0.550	-0.150
2020/01/31 12:29:11.1	111.920	0.190	-0.480	-0.110
2020/01/31 12:29:11.2	111.940	0.170	-0.410	-0.060
2020/01/31 12:29:11.3	111.960	0.150	-0.350	-0.000
2020/01/31 12:29:11.4	111.980	0.130	-0.280	0.050
2020/01/31 12:29:11.5	112.010	0.100	-0.210	0.120
2020/01/31 12:29:11.6	112.030	0.080	-0.140	0.180
2020/01/31 12:29:11.7	112.040	0.060	-0.070	0.250
2020/01/31 12:29:11.8	112.060	0.040	-0.000	0.310
2020/01/31 12:29:11.9	112.080	0.010	0.060	0.380
2020/01/31 12:29:12.0	112.100	-0.010	0.130	0.460
2020/01/31 12:29:12.1	112.120	-0.030	0.190	0.530
2020/01/31 12:29:12.2	112.130	-0.060	0.250	0.610
2020/01/31 12:29:12.3	112.150	-0.080	0.310	0.690
2020/01/31 12:29:12.4	112.160	-0.100	0.370	0.770
2020/01/31 12:29:12.5	112.170	-0.120	0.420	0.860
2020/01/31 12:29:12.6	112.180	-0.140	0.470	0.940
2020/01/31 12:29:12.7	112.190	-0.160	0.520	1.030
2020/01/31 12:29:12.8	112.200	-0.180	0.560	1.110
2020/01/31 12:29:12.9	112.210	-0.200	0.600	1.200
2020/01/31 12:29:13.0	112.220	-0.210	0.630	1.290
2020/01/31 12:29:13.1	112.230	-0.230	0.660	1.370
2020/01/31 12:29:13.2	112.240	-0.240	0.690	1.460
2020/01/31 12:29:13.3	112.240	-0.250	0.710	1.550
2020/01/31 12:29:13.4	112.250	-0.260	0.720	1.640
2020/01/31 12:29:13.5	112.260	-0.270	0.730	1.730
2020/01/31 12:29:13.6	112.260	-0.280	0.740	1.820
2020/01/31 12:29:13.7	112.260	-0.290	0.730	1.900
2020/01/31 12:29:13.8	112.260	-0.290	0.720	1.990
2020/01/31 12:29:13.9	112.260	-0.290	0.710	2.070
2020/01/31 12:29:14.0	112.260	-0.290	0.680	2.160
2020/01/31 12:29:14.1	112.260	-0.290	0.650	2.240
2020/01/31 12:29:14.2	112.260	-0.290	0.620	2.320
2020/01/31 12:29:14.3	112.250	-0.280	0.580	2.400
2020/01/31 12:29:14.4	112.250	-0.270	0.530	2.470
2020/01/31 12:29:14.5	112.240	-0.270	0.480	2.540
2020/01/31 12:29:14.6	112.240	-0.260	0.420	2.610
2020/01/31 12:29:14.7	112.230	-0.240	0.360	2.680
2020/01/31 12:29:14.8	112.230	-0.230	0.300	2.740
2020/01/31 12:29:14.9	112.220	-0.210	0.230	2.800
2020/01/31 12:29:15.0	112.210	-0.200	0.160	2.860
2020/01/31 12:29:15.1	112.200	-0.180	0.080	2.910
2020/01/31 12:29:15.2	112.200	-0.160	0.010	2.960
2020/01/31 12:29:15.3	112.190	-0.140	-0.070	3.010
2020/01/31 12:29:15.4	112.180	-0.120	-0.140	3.050
2020/01/31 12:29:15.5	112.180	-0.100	-0.220	3.080
2020/01/31 12:29:15.6	112.180	-0.070	-0.300	3.120
2020/01/31 12:29:15.7	112.170	-0.050	-0.370	3.140
2020/01/31 12:29:15.8	112.160	-0.030	-0.450	3.170
2020/01/31 12:29:15.9	112.160	-0.000	-0.520	3.190
2020/01/31 12:29:16.0	112.150	0.020	-0.590	3.200
2020/01/31 12:29:16.1	112.150	0.040	-0.650	3.210
2020/01/31 12:29:16.2	112.150	0.070	-0.710	3.220
2020/01/31 12:29:16.3	112.140	0.090	-0.770	3.220
2020/01/31 12:29:16.4	112.140	0.110	-0.820	3.220
2020/01/31 12:29:16.5	112.120	0.130	-0.870	3.210
2020/01/31 12:29:16.6	112.120	0.150	-0.910	3.200
2020/01/31 12:29:16.7	112.130	0.170	-0.940	3.180
2020/01/31 12:29:16.8	112.130	0.180	-0.970	3.160
2020/01/31 12:29:16.9	112.130	0.200	-0.990	3.140
2020/01/31 12:29:17.0	112.130	0.210	-1.000	3.110
2020/01/31 12:29:17.1	112.140	0.220	-1.000	3.080
2020/01/31 12:29:17.2	112.140	0.230	-1.000	3.050
2020/01/31 12:29:17.3	112.150	0.240	-0.990	3.010
2020/01/31 12:29:17.4	112.150	0.250	-0.970	2.970
2020/01/31 12:29:17.5	112.150	0.250	-0.950	2.920
2020/01/31 12:29:17.6	112.150	0.250	-0.920	2.870
2020/01/31 12:29:17.7	112.160	0.250	-0.880	2.820
2020/01/31 12:29:17.8	112.160	0.250	-0.840	2.770
2020/01/31 12:29:17.9	112.170	0.250	-0.800	2.720
2020/01/31 12:29:18.0	112.170	0.240	-0.740	2.660
2020/01/31 12:29:18.1	112.170	0.230	-0.690	2.600
2020/01/31 12:29:18.2	112.180	0.230	-0.630	2.540
2020/01/31 12:29:18.3	112.180	0.220	-0.570	2.480
2020/01/31 12:29:18.4	112.180	0.200	-0.500	2.410
2020/01/31 12:29:18.5	112.200	0.190	-0.440	2.350
2020/01/31 12:29:18.6	112.200	0.180	-0.370	2.280
2020/01/31 12:29:18.7	112.200	0.160	-0.300	2.200
2020/01/31 12:29:18.8	112.200	0.150	-0.240	2.130
2020/01/31 12:29:18.9	112.200	0.130	-0.170	2.060
2020/01/31 12:29:19.0	112.200	0.120	-0.110	1.980
2020/01/31 12:29:19.1	112.200	0.100	-0.040	1.900
2020/01/31 12:29:19.2	112.200	0.080	0.020	1.820
2020/01/31 12:29:19.3	112.200	0.060	0.080	1.740
2020/01/31 12:29:19.4	112.200	0.050	0.130	1.660
2020/01/31 12:29:19.5	112.180	0.030	0.180	1.570
2020/01/31 12:29:19.6	112.180	0.010	0.230	1.490
2020/01/31 12:29:19.7	112.180	-0.010	0.270	1.400
2020/01/31 12:29:19.8	112.180	-0.020	0.310	1.320
2020/01/31 12:29:19.9	112.180	-0.040	0.340	1.230
2020/01/31 12:29:20.0	112.170	-0.060	0.370	1.140
2020/01/31 12:29:20.1	112.170	-0.070	0.390	1.050
2020/01/31 12:29:20.2	112.170	-0.090	0.410	0.960
2020/01/31 12:29:20.3	112.170	-0.100	0.430	0.880
2020/01/31 12:29:20.4	112.160	-0.110	0.430	0.790
2020/01/31 12:29:20.5	112.170	-0.120	0.440	0.700
2020/01/31 12:29:20.6	112.160	-0.130	0.440	0.610
2020/01/31 12:29:20.7	112.160	-0.140	0.430	0.530
2020/01/31 12:29:20.8	112.160	-0.150	0.420	0.440
2020/01/31 12:29:20.9	112.160	-0.160	0.410	0.360
2020/01/31 12:29:21.0	112.150	-0.170	0.390	0.280
2020/01/31 12:29:21.1	112.150	-0.170	0.360	0.210
2020/01/31 12:29:21.2	112.150	-0.180	0.330	0.130
2020/01/31 12:29:21.3	112.150	-0.180	0.300	0.060
2020/01/31 12:29:21.4	112.140	-0.180	0.260	-0.020
2020/01/31 12:29:21.5	112.150	-0.180	0.220	-0.080
2020/01/31 12:29:21.6	112.150	-0.180	0.180	-0.150
2020/01/31 12:29:21.7	112.150	-0.180	0.140	-0.210
2020/01/31 12:29:21.8	112.140	-0.170	0.090	-0.280
2020/01/31 12:29:21.9	112.140	-0.170	0.040	-0.340
2020/01/31 12:29:22.0	112.140	-0.170	-0.010	-0.390
2020/01/31 12:29:22.1	112.140	-0.160	-0.070	-0.450
2020/01/31 12:29:22.2	112.140	-0.150	-0.120	-0.500
2020/01/31 12:29:22.3	112.140	-0.140	-0.170	-0.550
2020/01/31 12:29:22.4	112.140	-0.140	-0.230	-0.590
2020/01/31 12:29:22.5	112.130	-0.130	-0.280	-0.640
2020/01/31 12:29:22.6	112.130	-0.120	-0.330	-0.680
2020/01/31 12:29:22.7	112.130	-0.100	-0.380	-0.710
2020/01/31 12:29:22.8	112.130	-0.090	-0.430	-0.750
2020/01/31 12:29:22.9	112.130	-0.080	-0.480	-0.780
2020/01/31 12:29:23.0	112.140	-0.070	-0.530	-0.800
2020/01/31 12:29:23.1	112.140	-0.060	-0.570	-0.830
2020/01/31 12:29:23.2	112.140	-0.050	-0.610	-0.850
2020/01/31 12:29:23.3	112.150	-0.030	-0.640	-0.860
2020/01/31 12:29:23.4	112.150	-0.020	-0.670	-0.870
2020/01/31 12:29:23.5	112.150	-0.010	-0.700	-0.880
2020/01/31 12:29:23.6	112.150	0.000	-0.720	-0.880
2020/01/31 12:29:23.7	112.160	0.020	-0.740	-0.880
2020/01/31 12:29:23.8	112.160	0.030	-0.750	-0.870
2020/01/31 12:29:23.9	112.170	0.040	-0.760	-0.860
2020/01/31 12:29:24.0	112.170	0.050	-0.760	-0.840
2020/01/31 12:29:24.1	112.180	0.060	-0.750	-0.820
2020/01/31 12:29:24.2	112.180	0.070	-0.750	-0.790
2020/01/31 12:29:24.3	112.190	0.080	-0.730	-0.760
2020/01/31 12:29:24.4	112.200	0.090	-0.710	-0.730
2020/01/31 12:29:24.5	112.210	0.100	-0.690	-0.680
2020/01/31 12:29:24.6	112.220	0.100	-0.660	-0.640
2020/01/31 12:29:24.7	112.220	0.110	-0.620	-0.590
2020/01/31 12:29:24.8	112.230	0.120	-0.590	-0.530
2020/01/31 12:29:24.9	112.230	0.120	-0.550	-0.480
2020/01/31 12:29:25.0	112.240	0.130	-0.500	-0.410
2020/01/31 12:29:25.1	112.240	0.130	-0.450	-0.350
2020/01/31 12:29:25.2	112.250	0.130	-0.410	-0.280
2020/01/31 12:29:25.3	112.250	0.130	-0.360	-0.200
2020/01/31 12:29:25.4	112.260	0.140	-0.300	-0.130
2020/01/31 12:29:25.5	112.260	0.140	-0.250	-0.050
2020/01/31 12:29:25.6	112.270	0.140	-0.200	0.040
2020/01/31 12:29:25.7	112.270	0.140	-0.140	0.120
2020/01/31 12:29:25.8	112.270	0.140	-0.090	0.200
2020/01/31 12:29:25.9	112.280	0.140	-0.040	0.290
2020/01/31 12:29:26.0	112.280	0.140	0.000	0.370
2020/01/31 12:29:26.1	112.290	0.140	0.050	0.460
2020/01/31 12:29:26.2	112.290	0.140	0.090	0.550
2020/01/31 12:29:26.3	112.300	0.140	0.130	0.630
2020/01/31 12:29:26.4	112.300	0.140	0.170	0.720
2020/01/31 12:29:26.5	112.310	0.140	0.200	0.810
2020/01/31 12:29:26.6	112.310	0.140	0.230	0.890
2020/01/31 12:29:26.7	112.320	0.130	0.250	0.980
2020/01/31 12:29:26.8	112.330	0.130	0.280	1.060
2020/01/31 12:29:26.9	112.330	0.130	0.290	1.150
2020/01/31 12:29:27.0	112.340	0.130	0.310	1.230
2020/01/31 12:29:27.1	112.340	0.120	0.320	1.310
2020/01/31 12:29:27.2	112.350	0.120	0.330	1.380
2020/01/31 12:29:27.3	112.360	0.110	0.330	1.460
2020/01/31 12:29:27.4	112.360	0.110	0.330	1.540
2020/01/31 12:29:27.5	112.370	0.110	0.330	1.610
2020/01/31 12:29:27.6	112.370	0.100	0.320	1.680
2020/01/31 12:29:27.7	112.370	0.090	0.320	1.750
2020/01/31 12:29:27.8	112.380	0.090	0.310	1.820
2020/01/31 12:29:27.9	112.380	0.080	0.290	1.890
2020/01/31 12:29:28.0	112.370	0.070	0.280	1.950
2020/01/31 12:29:28.1	112.370	0.070	0.260	2.020
2020/01/31 12:29:28.2	112.370	0.060	0.250	2.080
2020/01/31 12:29:28.3	112.360	0.050	0.230	2.140
2020/01/31 12:29:28.4	112.350	0.040	0.210	2.200
2020/01/31 12:29:28.5	112.360	0.030	0.190	2.260
2020/01/31 12:29:28.6	112.350	0.020	0.170	2.310
2020/01/31 12:29:28.7	112.340	0.010	0.140	2.370
2020/01/31 12:29:28.8	112.320	0.010	0.120	2.420
2020/01/31 12:29:28.9	112.310	-0.000	0.100	2.470
2020/01/31 12:29:29.0	112.300	-0.010	0.080	2.510
2020/01/31 12:29:29.1	112.290	-0.020	0.060	2.560
2020/01/31 12:29:29.2	112.270	-0.030	0.030	2.600
2020/01/31 12:29:29.3	112.260	-0.040	0.010	2.640
2020/01/31 12:29:29.4	112.250	-0.040	-0.010	2.680
2020/01/31 12:29:29.5	112.230	-0.050	-0.030	2.710
2020/01/31 12:29:29.6	112.220	-0.060	-0.050	2.740
2020/01/31 12:29:29.7	112.200	-0.060	-0.070	2.770
2020/01/31 12:29:29.8	112.190	-0.070	-0.090	2.790
2020/01/31 12:29:29.9	112.180	-0.070	-0.110	2.810
2020/01/31 12:29:30.0	112.180	-0.070	-0.130	2.820
2020/01/31 12:29:30.1	112.170	-0.080	-0.150	2.830
2020/01/31 12:29:30.2	112.160	-0.080	-0.170	2.840
2020/01/31 12:29:30.3	112.160	-0.080	-0.190	2.850
2020/01/31 12:29:30.4	112.160	-0.080	-0.210	2.850
2020/01/31 12:29:30.5	112.150	-0.080	-0.230	2.840
2020/01/31 12:29:30.6	112.150	-0.070	-0.250	2.840
2020/01/31 12:29:30.7	112.150	-0.070	-0.270	2.830
2020/01/31 12:29:30.8	112.150	-0.070	-0.300	2.830
2020/01/31 12:29:30.9	112.150	-0.060	-0.320	2.810
2020/01/31 12:29:31.0	112.150	-0.050	-0.340	2.800
2020/01/31 12:29:31.1	112.150	-0.050	-0.360	2.780
2020/01/31 12:29:31.2	112.140	-0.040	-0.390	2.760
2020/01/31 12:29:31.3	112.140	-0.030	-0.410	2.740
2020/01/31 12:29:31.4	112.140	-0.030	-0.430	2.720
2020/01/31 12:29:31.5	112.160	-0.020	-0.460	2.690
2020/01/31 12:29:31.6	112.150	-0.010	-0.480	2.660
2020/01/31 12:29:31.7	112.150	0.000	-0.500	2.630
2020/01/31 12:29:31.8	112.150	0.010	-0.530	2.600
2020/01/31 12:29:31.9	112.150	0.020	-0.550	2.570
2020/01/31 12:29:32.0	112.150	0.030	-0.570	2.530
2020/01/31 12:29:32.1	112.150	0.030	-0.600	2.490
2020/01/31 12:29:32.2	112.150	0.040	-0.620	2.450
2020/01/31 12:29:32.3	112.150	0.050	-0.640	2.400
2020/01/31 12:29:32.4	112.150	0.050	-0.650	2.360
2020/01/31 12:29:32.5	112.150	0.060	-0.670	2.310
2020/01/31 12:29:32.6	112.160	0.060	-0.680	2.260
2020/01/31 12:29:32.7	112.160	0.070	-0.690	2.200
2020/01/31 12:29:32.8	112.160	0.070	-0.700	2.150
2020/01/31 12:29:32.9	112.170	0.070	-0.710	2.090
2020/01/31 12:29:33.0	112.170	0.070	-0.710	2.030
2020/01/31 12:29:33.1	112.180	0.070	-0.710	1.970
2020/01/31 12:29:33.2	112.180	0.070	-0.710	1.900
2020/01/31 12:29:33.3	112.190	0.070	-0.700	1.840
2020/01/31 12:29:33.4	112.200	0.060	-0.700	1.780
2020/01/31 12:29:33.5	112.200	0.060	-0.680	1.710
2020/01/31 12:29:33.6	112.210	0.060	-0.670	1.640
2020/01/31 12:29:33.7	112.210	0.050	-0.650	1.580
2020/01/31 12:29:33.8	112.220	0.050	-0.630	1.510
2020/01/31 12:29:33.9	112.220	0.040	-0.610	1.440
2020/01/31 12:29:34.0	112.230	0.030	-0.590	1.380
2020/01/31 12:29:34.1	112.230	0.030	-0.560	1.310
2020/01/31 12:29:34.2	112.230	0.020	-0.540	1.250
2020/01/31 12:29:34.3	112.230	0.010	-0.510	1.190
2020/01/31 12:29:34.4	112.220	0.010	-0.470	1.130
2020/01/31 12:29:34.5	112.200	-0.000	-0.440	1.070
2020/01/31 12:29:34.6	112.190	-0.010	-0.400	1.010
2020/01/31 12:29:34.7	112.190	-0.020	-0.370	0.960
2020/01/31 12:29:34.8	112.180	-0.020	-0.330	0.900
2020/01/31 12:29:34.9	112.170	-0.030	-0.290	0.850
2020/01/31 12:29:35.0	112.160	-0.040	-0.250	0.800
2020/01/31 12:29:35.1	112.150	-0.050	-0.210	0.750
2020/01/31 12:29:35.2	112.140	-0.050	-0.170	0.700
2020/01/31 12:29:35.3	112.130	-0.060	-0.130	0.650
2020/01/31 12:29:35.4	112.120	-0.070	-0.090	0.600
2020/01/31 12:29:35.5	112.120	-0.080	-0.040	0.550
2020/01/31 12:29:35.6	112.110	-0.080	0.000	0.510
2020/01/31 12:29:35.7	112.100	-0.090	0.050	0.460
2020/01/31 12:29:35.8	112.090	-0.100	0.090	0.420
2020/01/31 12:29:35.9	112.080	-0.110	0.140	0.380
2020/01/31 12:29:36.0	112.070	-0.110	0.190	0.330
2020/01/31 12:29:36.1	112.060	-0.120	0.240	0.290
2020/01/31 12:29:36.2	112.060	-0.130	0.290	0.250
2020/01/31 12:29:36.3	112.050	-0.140	0.340	0.200
2020/01/31 12:29:36.4	112.050	-0.150	0.390	0.160
2020/01/31 12:29:36.5	112.050	-0.160	0.440	0.120
2020/01/31 12:29:36.6	112.050	-0.170	0.490	0.080
2020/01/31 12:29:36.7	112.050	-0.180	0.530	0.040
2020/01/31 12:29:36.8	112.050	-0.190	0.580	0.000
2020/01/31 12:29:36.9	112.050	-0.200	0.620	-0.030
2020/01/31 12:29:37.0	112.060	-0.200	0.660	-0.070
2020/01/31 12:29:37.1	112.060	-0.210	0.700	-0.110
2020/01/31 12:29:37.2	112.070	-0.220	0.730	-0.140
2020/01/31 12:29:37.3	112.080	-0.230	0.760	-0.180
2020/01/31 12:29:37.4	112.090	-0.240	0.790	-0.210
2020/01/31 12:29:37.5	112.100	-0.250	0.810	-0.250
2020/01/31 12:29:37.6	112.110	-0.250	0.820	-0.280
2020/01/31 12:29:37.7	112.120	-0.260	0.830	-0.300
2020/01/31 12:29:37.8	112.130	-0.270	0.830	-0.330
2020/01/31 12:29:37.9	112.130	-0.270	0.830	-0.350
2020/01/31 12:29:38.0	112.140	-0.270	0.810	-0.380
2020/01/31 12:29:38.1	112.150	-0.280	0.790	-0.400
2020/01/31 12:29:38.2	112.160	-0.270	0.760	-0.410
2020/01/31 12:29:38.3	112.160	-0.270	0.730	-0.430
2020/01/31 12:29:38.4	112.170	-0.270	0.690	-0.440
2020/01/31 12:29:38.5	112.170	-0.260	0.630	-0.450
2020/01/31 12:29:38.6	112.170	-0.260	0.580	-0.450
2020/01/31 12:29:38.7	112.170	-0.250	0.510	-0.460
2020/01/31 12:29:38.8	112.170	-0.240	0.440	-0.460
2020/01/31 12:29:38.9	112.170	-0.220	0.360	-0.450
2020/01/31 12:29:39.0	112.170	-0.200	0.280	-0.440
2020/01/31 12:29:39.1	112.170	-0.190	0.190	-0.430
2020/01/31 12:29:39.2	112.160	-0.160	0.100	-0.420
2020/01/31 12:29:39.3	112.160	-0.140	0.000	-0.400
2020/01/31 12:29:39.4	112.150	-0.110	-0.100	-0.380
2020/01/31 12:29:39.5	112.150	-0.090	-0.200	-0.350
2020/01/31 12:29:39.6	112.140	-0.060	-0.300	-0.320
2020/01/31 12:29:39.7	112.130	-0.020	-0.410	-0.280
2020/01/31 12:29:39.8	112.120	0.010	-0.510	-0.250
2020/01/31 12:29:39.9	112.110	0.050	-0.620	-0.200
2020/01/31 12:29:40.0	112.100	0.080	-0.720	-0.160
2020/01/31 12:29:40.1	112.080	0.120	-0.820	-0.110
2020/01/31 12:29:40.2	112.070	0.160	-0.920	-0.060
2020/01/31 12:29:40.3	112.060	0.200	-1.010	-0.010
2020/01/31 12:29:40.4	112.040	0.240	-1.100	0.050
2020/01/31 12:29:40.5	112.030	0.280	-1.180	0.110
2020/01/31 12:29:40.6	112.020	0.320	-1.260	0.170
2020/01/31 12:29:40.7	112.000	0.360	-1.330	0.240
2020/01/31 12:29:40.8	111.990	0.400	-1.390	0.310
2020/01/31 12:29:40.9	111.970	0.430	-1.450	0.380
2020/01/31 12:29:41.0	111.960	0.470	-1.490	0.450
2020/01/31 12:29:41.1	111.950	0.500	-1.530	0.520
2020/01/31 12:29:41.2	111.940	0.530	-1.560	0.590
2020/01/31 12:29:41.3	111.930	0.560	-1.570	0.670
2020/01/31 12:29:41.4	111.920	0.590	-1.580	0.740
2020/01/31 12:29:41.5	111.900	0.610	-1.580	0.820
2020/01/31 12:29:41.6	111.890	0.630	-1.570	0.900
2020/01/31 12:29:41.7	111.890	0.640	-1.540	0.970
2020/01/31 12:29:41.8	111.880	0.660	-1.510	1.040
2020/01/31 12:29:41.9	111.880	0.660	-1.470	1.120
2020/01/31 12:29:42.0	111.870	0.670	-1.410	1.190
2020/01/31 12:29:42.1	111.870	0.660	-1.350	1.260
2020/01/31 12:29:42.2	111.870	0.660	-1.280	1.330
2020/01/31 12:29:42.3	111.870	0.650	-1.200	1.400
2020/01/31 12:29:42.4	111.870	0.630	-1.110	1.470
2020/01/31 12:29:42.5	111.870	0.610	-1.020	1.540
2020/01/31 12:29:42.6	111.870	0.590	-0.910	1.600
2020/01/31 12:29:42.7	111.870	0.560	-0.810	1.670
2020/01/31 12:29:42.8	111.880	0.530	-0.690	1.730
2020/01/31 12:29:42.9	111.880	0.500	-0.580	1.790
2020/01/31 12:29:43.0	111.890	0.460	-0.460	1.850
2020/01/31 12:29:43.1	111.890	0.410	-0.330	1.910
2020/01/31 12:29:43.2	111.900	0.370	-0.210	1.970
2020/01/31 12:29:43.3	111.900	0.320	-0.090	2.020
2020/01/31 12:29:43.4	111.910	0.270	0.040	2.070
2020/01/31 12:29:43.5	111.910	0.220	0.160	2.130
2020/01/31 12:29:43.6	111.920	0.160	0.280	2.180
2020/01/31 12:29:43.7	111.930	0.100	0.400	2.230
2020/01/31 12:29:43.8	111.940	0.050	0.510	2.270
2020/01/31 12:29:43.9	111.950	-0.010	0.620	2.320
2020/01/31 12:29:44.0	111.950	-0.070	0.720	2.360
2020/01/31 12:29:44.1	111.960	-0.130	0.820	2.400
2020/01/31 12:29:44.2	111.970	-0.190	0.900	2.430
2020/01/31 12:29:44.3	111.980	-0.240	0.980	2.470
2020/01/31 12:29:44.4	111.990	-0.300	1.050	2.500
2020/01/31 12:29:44.5	112.000	-0.350	1.110	2.530
2020/01/31 12:29:44.6	112.010	-0.410	1.170	2.550
2020/01/31 12:29:44.7	112.020	-0.450	1.210	2.580
2020/01/31 12:29:44.8	112.030	-0.500	1.240	2.600
2020/01/31 12:29:44.9	112.030	-0.550	1.260	2.620
2020/01/31 12:29:45.0	112.040	-0.590	1.270	2.630
2020/01/31 12:29:45.1	112.040	-0.630	1.270	2.640
2020/01/31 12:29:45.2	112.050	-0.660	1.270	2.650
2020/01/31 12:29:45.3	112.050	-0.690	1.250	2.660
2020/01/31 12:29:45.4	112.050	-0.720	1.220	2.660
2020/01/31 12:29:45.5	112.060	-0.740	1.180	2.660
2020/01/31 12:29:45.6	112.070	-0.760	1.140	2.660
2020/01/31 12:29:45.7	112.070	-0.780	1.080	2.650
2020/01/31 12:29:45.8	112.060	-0.790	1.020	2.640
2020/01/31 12:29:45.9	112.060	-0.800	0.950	2.630
2020/01/31 12:29:46.0	112.060	-0.800	0.870	2.610
2020/01/31 12:29:46.1	112.050	-0.800	0.790	2.590
2020/01/31 12:29:46.2	112.050	-0.800	0.700	2.570
2020/01/31 12:29:46.3	112.040	-0.790	0.610	2.540
2020/01/31 12:29:46.4	112.040	-0.780	0.510	2.510
2020/01/31 12:29:46.5	112.030	-0.760	0.410	2.480
2020/01/31 12:29:46.6	112.020	-0.750	0.310	2.450
2020/01/31 12:29:46.7	112.010	-0.730	0.200	2.410
2020/01/31 12:29:46.8	112.000	-0.700	0.090	2.380
2020/01/31 12:29:46.9	111.990	-0.680	-0.020	2.340
2020/01/31 12:29:47.0	111.980	-0.650	-0.130	2.300
2020/01/31 12:29:47.1	111.970	-0.620	-0.240	2.260
2020/01/31 12:29:47.2	111.960	-0.580	-0.340	2.220
2020/01/31 12:29:47.3	111.950	-0.550	-0.450	2.170
2020/01/31 12:29:47.4	111.940	-0.510	-0.550	2.130
2020/01/31 12:29:47.5	111.920	-0.470	-0.650	2.080
2020/01/31 12:29:47.6	111.900	-0.430	-0.740	2.030
2020/01/31 12:29:47.7	111.890	-0.390	-0.830	1.990
2020/01/31 12:29:47.8	111.880	-0.350	-0.910	1.940
2020/01/31 12:29:47.9	111.870	-0.310	-0.990	1.890
2020/01/31 12:29:48.0	111.860	-0.270	-1.060	1.850
2020/01/31 12:29:48.1	111.850	-0.220	-1.130	1.800
2020/01/31 12:29:48.2	111.840	-0.180	-1.180	1.760
2020/01/31 12:29:48.3	111.830	-0.140	-1.230	1.710
2020/01/31 12:29:48.4	111.820	-0.100	-1.270	1.670
2020/01/31 12:29:48.5	111.800	-0.060	-1.310	1.620
2020/01/31 12:29:48.6	111.790	-0.020	-1.330	1.580
2020/01/31 12:29:48.7	111.780	0.010	-1.340	1.540
2020/01/31 12:29:48.8	111.770	0.050	-1.350	1.490
2020/01/31 12:29:48.9	111.760	0.080	-1.350	1.450
2020/01/31 12:29:49.0	111.760	0.110	-1.330	1.400
2020/01/31 12:29:49.1	111.750	0.140	-1.310	1.360
2020/01/31 12:29:49.2	111.750	0.170	-1.280	1.320
2020/01/31 12:29:49.3	111.750	0.190	-1.250	1.270
2020/01/31 12:29:49.4	111.740	0.210	-1.200	1.230
2020/01/31 12:29:49.5	111.740	0.230	-1.150	1.190
2020/01/31 12:29:49.6	111.730	0.250	-1.090	1.140
2020/01/31 12:29:49.7	111.730	0.260	-1.030	1.100
2020/01/31 12:29:49.8	111.740	0.280	-0.960	1.050
2020/01/31 12:29:49.9	111.740	0.290	-0.880	1.010
2020/01/31 12:29:50.0	111.740	0.300	-0.800	0.960
2020/01/31 12:29:50.1	111.740	0.300	-0.720	0.910
2020/01/31 12:29:50.2	111.750	0.310	-0.640	0.870
2020/01/31 12:29:50.3	111.750	0.310	-0.550	0.820
2020/01/31 12:29:50.4	111.760	0.310	-0.470	0.770
2020/01/31 12:29:50.5	111.770	0.310	-0.380	0.720
2020/01/31 12:29:50.6	111.770	0.310	-0.290	0.670
2020/01/31 12:29:50.7	111.780	0.310	-0.210	0.620
2020/01/31 12:29:50.8	111.790	0.310	-0.130	0.570
2020/01/31 12:29:50.9	111.800	0.310	-0.050	0.520
2020/01/31 12:29:51.0	111.810	0.310	0.020	0.470
2020/01/31 12:29:51.1	111.820	0.310	0.090	0.410
2020/01/31 12:29:51.2	111.830	0.310	0.160	0.360
2020/01/31 12:29:51.3	111.840	0.310	0.210	0.310
2020/01/31 12:29:51.4	111.850	0.310	0.260	0.270
2020/01/31 12:29:51.5	111.860	0.310	0.310	0.220
2020/01/31 12:29:51.6	111.870	0.310	0.340	0.170
2020/01/31 12:29:51.7	111.880	0.310	0.370	0.130
2020/01/31 12:29:51.8	111.890	0.320	0.390	0.090
2020/01/31 12:29:51.9	111.900	0.330	0.410	0.050
2020/01/31 12:29:52.0	111.910	0.330	0.410	0.010
2020/01/31 12:29:52.1	111.920	0.340	0.410	-0.030
2020/01/31 12:29:52.2	111.930	0.350	0.400	-0.060
2020/01/31 12:29:52.3	111.930	0.360	0.390	-0.090
2020/01/31 12:29:52.4	111.940	0.380	0.370	-0.120
2020/01/31 12:29:52.5	111.940	0.390	0.340	-0.150
2020/01/31 12:29:52.6	111.950	0.400	0.310	-0.170
2020/01/31 12:29:52.7	111.950	0.420	0.270	-0.190
2020/01/31 12:29:52.8	111.960	0.430	0.230	-0.210
2020/01/31 12:29:52.9	111.960	0.450	0.180	-0.220
2020/01/31 12:29:53.0	111.960	0.460	0.130	-0.230
2020/01/31 12:29:53.1	111.960	0.480	0.080	-0.230
2020/01/31 12:29:53.2	111.950	0.490	0.030	-0.240
2020/01/31 12:29:53.3	111.950	0.500	-0.020	-0.240
2020/01/31 12:29:53.4	111.950	0.510	-0.060	-0.240
2020/01/31 12:29:53.5	111.950	0.520	-0.120	-0.230
2020/01/31 12:29:53.6	111.950	0.530	-0.160	-0.220
2020/01/31 12:29:53.7	111.940	0.530	-0.200	-0.210
2020/01/31 12:29:53.8	111.930	0.530	-0.240	-0.200
2020/01/31 12:29:53.9	111.920	0.530	-0.270	-0.180
2020/01/31 12:29:54.0	111.910	0.520	-0.300	-0.160
2020/01/31 12:29:54.1	111.890	0.510	-0.320	-0.140
2020/01/31 12:29:54.2	111.880	0.500	-0.340	-0.120
2020/01/31 12:29:54.3	111.860	0.490	-0.350	-0.090
2020/01/31 12:29:54.4	111.850	0.470	-0.360	-0.060
2020/01/31 12:29:54.5	111.840	0.450	-0.350	-0.030
2020/01/31 12:29:54.6	111.820	0.420	-0.340	0.010
2020/01/31 12:29:54.7	111.810	0.390	-0.330	0.050
2020/01/31 12:29:54.8	111.790	0.360	-0.300	0.090
2020/01/31 12:29:54.9	111.780	0.330	-0.280	0.140
2020/01/31 12:29:55.0	111.760	0.290	-0.240	0.180
2020/01/31 12:29:55.1	111.750	0.250	-0.210	0.240
2020/01/31 12:29:55.2	111.730	0.200	-0.160	0.290
2020/01/31 12:29:55.3	111.720	0.160	-0.120	0.350
2020/01/31 12:29:55.4	111.710	0.110	-0.060	0.410
2020/01/31 12:29:55.5	111.690	0.060	-0.010	0.480
2020/01/31 12:29:55.6	111.680	0.010	0.050	0.550
2020/01/31 12:29:55.7	111.680	-0.040	0.110	0.620
2020/01/31 12:29:55.8	111.670	-0.100	0.170	0.690
2020/01/31 12:29:55.9	111.670	-0.150	0.230	0.770
2020/01/31 12:29:56.0	111.670	-0.200	0.280	0.850
2020/01/31 12:29:56.1	111.670	-0.250	0.340	0.920
2020/01/31 12:29:56.2	111.670	-0.300	0.390	1.000
2020/01/31 12:29:56.3	111.670	-0.350	0.450	1.090
2020/01/31 12:29:56.4	111.680	-0.400	0.490	1.170
2020/01/31 12:29:56.5	111.670	-0.440	0.540	1.250
2020/01/31 12:29:56.6	111.680	-0.490	0.570	1.330
2020/01/31 12:29:56.7	111.690	-0.530	0.610	1.420
2020/01/31 12:29:56.8	111.700	-0.570	0.630	1.500
2020/01/31 12:29:56.9	111.710	-0.600	0.650	1.580
2020/01/31 12:29:57.0	111.720	-0.630	0.660	1.660
2020/01/31 12:29:57.1	111.730	-0.660	0.660	1.740
2020/01/31 12:29:57.2	111.740	-0.680	0.650	1.820
2020/01/31 12:29:57.3	111.750	-0.700	0.640	1.900
2020/01/31 12:29:57.4	111.760	-0.710	0.620	1.970
2020/01/31 12:29:57.5	111.780	-0.720	0.580	2.040
2020/01/31 12:29:57.6	111.790	-0.730	0.540	2.110
2020/01/31 12:29:57.7	111.800	-0.730	0.500	2.180
2020/01/31 12:29:57.8	111.810	-0.730	0.440	2.240
2020/01/31 12:29:57.9	111.820	-0.720	0.380	2.290
2020/01/31 12:29:58.0	111.830	-0.710	0.310	2.340
2020/01/31 12:29:58.1	111.840	-0.690	0.230	2.390
2020/01/31 12:29:58.2	111.850	-0.670	0.150	2.430
2020/01/31 12:29:58.3	111.860	-0.640	0.060	2.470
2020/01/31 12:29:58.4	111.870	-0.620	-0.030	2.510
2020/01/31 12:29:58.5	111.880	-0.580	-0.130	2.540
2020/01/31 12:29:58.6	111.890	-0.550	-0.220	2.570
2020/01/31 12:29:58.7	111.890	-0.510	-0.320	2.590
2020/01/31 12:29:58.8	111.900	-0.470	-0.420	2.610
2020/01/31 12:29:58.9	111.900	-0.430	-0.530	2.630
2020/01/31 12:29:59.0	111.910	-0.390	-0.630	2.650
2020/01/31 12:29:59.1	111.910	-0.340	-0.720	2.670
2020/01/31 12:29:59.2	111.910	-0.300	-0.820	2.680
2020/01/31 12:29:59.3	111.900	-0.250	-0.910	2.690
2020/01/31 12:29:59.4	111.900	-0.200	-1.000	2.700
2020/01/31 12:29:59.5	111.890	-0.160	-1.080	2.710
2020/01/31 12:29:59.6	111.890	-0.110	-1.160	2.720
2020/01/31 12:29:59.7	111.880	-0.070	-1.230	2.730
2020/01/31 12:29:59.8	111.870	-0.020	-1.290	2.740
2020/01/31 12:29:59.9	111.860	0.020	-1.350	2.750
2020/01/31 12:30:00.0	111.850	0.060	-1.400	2.760
2020/01/31 12:30:00.1	111.840	0.090	-1.440	2.770
2020/01/31 12:30:00.2	111.830	0.130	-1.470	2.770
2020/01/31 12:30:00.3	111.820	0.160	-1.490	2.780
2020/01/31 12:30:00.4	111.810	0.190	-1.500	2.790
2020/01/31 12:30:00.5	111.810	0.210	-1.500	2.790
2020/01/31 12:30:00.6	111.800	0.230	-1.500	2.800
2020/01/31 12:30:00.7	111.790	0.250	-1.480	2.800
2020/01/31 12:30:00.8	111.780	0.270	-1.460	2.800
2020/01/31 12:30:00.9	111.770	0.280	-1.430	2.800
2020/01/31 12:30:01.0	111.760	0.290	-1.390	2.800
2020/01/31 12:30:01.1	111.760	0.290	-1.340	2.790
2020/01/31 12:30:01.2	111.750	0.290	-1.280	2.790
2020/01/31 12:30:01.3	111.740	0.290	-1.220	2.780
2020/01/31 12:30:01.4	111.730	0.290	-1.150	2.770
2020/01/31 12:30:01.5	111.710	0.280	-1.070	2.750
2020/01/31 12:30:01.6	111.710	0.270	-0.990	2.730
2020/01/31 12:30:01.7	111.700	0.260	-0.910	2.710
2020/01/31 12:30:01.8	111.700	0.240	-0.820	2.690
2020/01/31 12:30:01.9	111.690	0.230	-0.730	2.660
2020/01/31 12:30:02.0	111.690	0.210	-0.640	2.630
2020/01/31 12:30:02.1	111.690	0.190	-0.540	2.590
2020/01/31 12:30:02.2	111.680	0.170	-0.440	2.550
2020/01/31 12:30:02.3	111.680	0.150	-0.350	2.500
2020/01/31 12:30:02.4	111.680	0.120	-0.250	2.450
2020/01/31 12:30:02.5	111.680	0.100	-0.150	2.390
2020/01/31 12:30:02.6	111.680	0.080	-0.060	2.330
2020/01/31 12:30:02.7	111.670	0.060	0.040	2.270
2020/01/31 12:30:02.8	111.670	0.030	0.130	2.200
2020/01/31 12:30:02.9	111.670	0.010	0.220	2.120
2020/01/31 12:30:03.0	111.670	-0.010	0.310	2.040
2020/01/31 12:30:03.1	111.670	-0.030	0.390	1.960
2020/01/31 12:30:03.2	111.670	-0.050	0.470	1.880
2020/01/31 12:30:03.3	111.670	-0.070	0.550	1.790
2020/01/31 12:30:03.4	111.680	-0.090	0.620	1.700
2020/01/31 12:30:03.5	111.690	-0.110	0.690	1.600
2020/01/31 12:30:03.6	111.700	-0.130	0.750	1.500
2020/01/31 12:30:03.7	111.700	-0.140	0.810	1.400
2020/01/31 12:30:03.8	111.710	-0.150	0.860	1.300
2020/01/31 12:30:03.9	111.720	-0.170	0.900	1.200
2020/01/31 12:30:04.0	111.730	-0.180	0.940	1.090
2020/01/31 12:30:04.1	111.740	-0.190	0.980	0.990
2020/01/31 12:30:04.2	111.750	-0.190	1.000	0.880
2020/01/31 12:30:04.3	111.760	-0.200	1.020	0.780
2020/01/31 12:30:04.4	111.770	-0.200	1.040	0.670
2020/01/31 12:30:04.5	111.770	-0.200	1.040	0.570
2020/01/31 12:30:04.6	111.790	-0.200	1.040	0.460
2020/01/31 12:30:04.7	111.800	-0.200	1.040	0.360
2020/01/31 12:30:04.8	111.810	-0.200	1.020	0.260
2020/01/31 12:30:04.9	111.820	-0.190	1.000	0.160
2020/01/31 12:30:05.0	111.830	-0.190	0.970	0.060
2020/01/31 12:30:05.1	111.850	-0.180	0.940	-0.030
2020/01/31 12:30:05.2	111.860	-0.170	0.900	-0.130
2020/01/31 12:30:05.3	111.870	-0.160	0.850	-0.220
2020/01/31 12:30:05.4	111.880	-0.150	0.800	-0.300
2020/01/31 12:30:05.5	111.900	-0.140	0.740	-0.390
2020/01/31 12:30:05.6	111.910	-0.120	0.680	-0.480
2020/01/31 12:30:05.7	111.920	-0.110	0.610	-0.550
2020/01/31 12:30:05.8	111.920	-0.090	0.530	-0.630
2020/01/31 12:30:05.9	111.930	-0.070	0.460	-0.700
2020/01/31 12:30:06.0	111.930	-0.050	0.380	-0.770
2020/01/31 12:30:06.1	111.940	-0.030	0.300	-0.830
2020/01/31 12:30:06.2	111.940	-0.010	0.220	-0.890
2020/01/31 12:30:06.3	111.950	0.010	0.130	-0.950
2020/01/31 12:30:06.4	111.950	0.030	0.050	-1.010
2020/01/31 12:30:06.5	111.930	0.050	-0.030	-1.060
2020/01/31 12:30:06.6	111.930	0.070	-0.120	-1.100
2020/01/31 12:30:06.7	111.920	0.090	-0.200	-1.150
2020/01/31 12:30:06.8	111.920	0.110	-0.270	-1.190
2020/01/31 12:30:06.9	111.920	0.130	-0.350	-1.230
2020/01/31 12:30:07.0	111.920	0.150	-0.420	-1.260
2020/01/31 12:30:07.1	111.910	0.180	-0.490	-1.290
2020/01/31 12:30:07.2	111.910	0.200	-0.550	-1.310
2020/01/31 12:30:07.3	111.910	0.220	-0.610	-1.330
2020/01/31 12:30:07.4	111.900	0.240	-0.660	-1.340
2020/01/31 12:30:07.5	111.900	0.260	-0.710	-1.360
2020/01/31 12:30:07.6	111.890	0.270	-0.750	-1.360
2020/01/31 12:30:07.7	111.890	0.290	-0.790	-1.360
2020/01/31 12:30:07.8	111.880	0.310	-0.820	-1.350
2020/01/31 12:30:07.9	111.870	0.320	-0.840	-1.340
2020/01/31 12:30:08.0	111.870	0.340	-0.860	-1.320
2020/01/31 12:30:08.1	111.860	0.350	-0.880	-1.300
2020/01/31 12:30:08.2	111.860	0.360	-0.880	-1.270
2020/01/31 12:30:08.3	111.850	0.370	-0.890	-1.230
2020/01/31 12:30:08.4	111.840	0.380	-0.880	-1.190
2020/01/31 12:30:08.5	111.840	0.390	-0.870	-1.140
2020/01/31 12:30:08.6	111.830	0.390	-0.860	-1.090
2020/01/31 12:30:08.7	111.830	0.390	-0.840	-1.020
2020/01/31 12:30:08.8	111.820	0.400	-0.820	-0.960
2020/01/31 12:30:08.9	111.810	0.400	-0.790	-0.880
2020/01/31 12:30:09.0	111.810	0.400	-0.760	-0.800
2020/01/31 12:30:09.1	111.800	0.390	-0.730	-0.720
2020/01/31 12:30:09.2	111.800	0.390	-0.690	-0.630
2020/01/31 12:30:09.3	111.790	0.380	-0.650	-0.530
2020/01/31 12:30:09.4	111.790	0.370	-0.610	-0.440
2020/01/31 12:30:09.5	111.790	0.370	-0.560	-0.330
2020/01/31 12:30:09.6	111.790	0.360	-0.520	-0.220
2020/01/31 12:30:09.7	111.780	0.340	-0.470	-0.110
2020/01/31 12:30:09.8	111.780	0.330	-0.430	-0.000
2020/01/31 12:30:09.9	111.780	0.320	-0.380	0.110
2020/01/31 12:30:10.0	111.770	0.300	-0.340	0.230
2020/01/31 12:30:10.1	111.770	0.290	-0.300	0.340
2020/01/31 12:30:10.2	111.760	0.270	-0.250	0.460
2020/01/31 12:30:10.3	111.760	0.260	-0.210	0.570
2020/01/31 12:30:10.4	111.760	0.240	-0.180	0.690
2020/01/31 12:30:10.5	111.750	0.220	-0.140	0.810
2020/01/31 12:30:10.6	111.750	0.200	-0.110	0.920
2020/01/31 12:30:10.7	111.750	0.190	-0.080	1.030
2020/01/31 12:30:10.8	111.740	0.170	-0.060	1.150
2020/01/31 12:30:10.9	111.740	0.150	-0.030	1.260
2020/01/31 12:30:11.0	111.740	0.130	-0.020	1.370
2020/01/31 12:30:11.1	111.740	0.110	-0.010	1.480
2020/01/31 12:30:11.2	111.740	0.090	0.000	1.590
2020/01/31 12:30:11.3	111.740	0.080	0.010	1.690
2020/01/31 12:30:11.4	111.730	0.060	0.010	1.800
2020/01/31 12:30:11.5	111.720	0.040	0.010	1.900
2020/01/31 12:30:11.6	111.720	0.020	0.000	2.010
2020/01/31 12:30:11.7	111.710	0.010	-0.010	2.110
2020/01/31 12:30:11.8	111.710	-0.010	-0.020	2.200
2020/01/31 12:30:11.9	111.710	-0.020	-0.040	2.300
2020/01/31 12:30:12.0	111.710	-0.040	-0.060	2.400
2020/01/31 12:30:12.1	111.710	-0.050	-0.080	2.490
2020/01/31 12:30:12.2	111.700	-0.070	-0.100	2.580
2020/01/31 12:30:12.3	111.700	-0.080	-0.120	2.670
2020/01/31 12:30:12.4	111.700	-0.100	-0.150	2.760
2020/01/31 12:30:12.5	111.700	-0.110	-0.180	2.840
2020/01/31 12:30:12.6	111.700	-0.120	-0.200	2.920
2020/01/31 12:30:12.7	111.690	-0.140	-0.230	3.000
2020/01/31 12:30:12.8	111.690	-0.150	-0.250	3.080
2020/01/31 12:30:12.9	111.690	-0.160	-0.280	3.160
2020/01/31 12:30:13.0	111.690	-0.180	-0.300	3.230
2020/01/31 12:30:13.1	111.690	-0.190	-0.320	3.300
2020/01/31 12:30:13.2	111.690	-0.200	-0.340	3.360
2020/01/31 12:30:13.3	111.690	-0.220	-0.350	3.430
2020/01/31 12:30:13.4	111.690	-0.230	-0.360	3.490
2020/01/31 12:30:13.5	111.710	-0.240	-0.370	3.550
2020/01/31 12:30:13.6	111.710	-0.250	-0.380	3.600
2020/01/31 12:30:13.7	111.710	-0.270	-0.380	3.650
2020/01/31 12:30:13.8	111.720	-0.280	-0.380	3.690
2020/01/31 12:30:13.9	111.720	-0.290	-0.380	3.730
2020/01/31 12:30:14.0	111.730	-0.300	-0.370	3.760
2020/01/31 12:30:14.1	111.730	-0.320	-0.360	3.790
2020/01/31 12:30:14.2	111.740	-0.330	-0.350	3.810
2020/01/31 12:30:14.3	111.750	-0.340	-0.340	3.830
2020/01/31 12:30:14.4	111.750	-0.350	-0.320	3.850
2020/01/31 12:30:14.5	111.760	-0.360	-0.300	3.850
2020/01/31 12:30:14.6	111.770	-0.370	-0.280	3.860
2020/01/31 12:30:14.7	111.780	-0.380	-0.250	3.860
2020/01/31 12:30:14.8	111.780	-0.390	-0.230	3.850
2020/01/31 12:30:14.9	111.790	-0.390	-0.200	3.840
2020/01/31 12:30:15.0	111.800	-0.400	-0.170	3.820
2020/01/31 12:30:15.1	111.800	-0.400	-0.150	3.800
2020/01/31 12:30:15.2	111.810	-0.400	-0.120	3.770
2020/01/31 12:30:15.3	111.810	-0.400	-0.090	3.740
2020/01/31 12:30:15.4	111.820	-0.400	-0.060	3.700
2020/01/31 12:30:15.5	111.830	-0.400	-0.040	3.660
2020/01/31 12:30:15.6	111.840	-0.400	-0.020	3.610
2020/01/31 12:30:15.7	111.840	-0.390	0.010	3.550
2020/01/31 12:30:15.8	111.840	-0.380	0.030	3.500
2020/01/31 12:30:15.9	111.840	-0.370	0.040	3.430
2020/01/31 12:30:16.0	111.840	-0.360	0.060	3.360
2020/01/31 12:30:16.1	111.840	-0.350	0.070	3.290
2020/01/31 12:30:16.2	111.840	-0.330	0.070	3.210
2020/01/31 12:30:16.3	111.840	-0.320	0.080	3.130
2020/01/31 12:30:16.4	111.830	-0.300	0.080	3.040
2020/01/31 12:30:16.5	111.820	-0.270	0.070	2.950
2020/01/31 12:30:16.6	111.810	-0.250	0.070	2.860
2020/01/31 12:30:16.7	111.810	-0.230	0.060	2.760
2020/01/31 12:30:16.8	111.800	-0.200	0.050	2.660
2020/01/31 12:30:16.9	111.800	-0.170	0.030	2.560
2020/01/31 12:30:17.0	111.790	-0.140	0.010	2.460
2020/01/31 12:30:17.1	111.790	-0.110	-0.010	2.350
2020/01/31 12:30:17.2	111.780	-0.080	-0.030	2.240
2020/01/31 12:30:17.3	111.770	-0.050	-0.060	2.130
2020/01/31 12:30:17.4	111.770	-0.020	-0.080	2.010
2020/01/31 12:30:17.5	111.760	0.010	-0.110	1.890
2020/01/31 12:30:17.6	111.760	0.040	-0.130	1.770
2020/01/31 12:30:17.7	111.750	0.070	-0.160	1.650
2020/01/31 12:30:17.8	111.750	0.100	-0.190	1.530
2020/01/31 12:30:17.9	111.750	0.130	-0.210	1.410
2020/01/31 12:30:18.0	111.740	0.150	-0.240	1.290
2020/01/31 12:30:18.1	111.740	0.180	-0.260	1.170
2020/01/31 12:30:18.2	111.740	0.200	-0.280	1.040
2020/01/31 12:30:18.3	111.750	0.220	-0.290	0.910
2020/01/31 12:30:18.4	111.750	0.240	-0.310	0.790
2020/01/31 12:30:18.5	111.750	0.260	-0.320	0.660
2020/01/31 12:30:18.6	111.760	0.270	-0.320	0.540
2020/01/31 12:30:18.7	111.760	0.280	-0.320	0.410
2020/01/31 12:30:18.8	111.770	0.290	-0.320	0.280
2020/01/31 12:30:18.9	111.770	0.300	-0.310	0.160
2020/01/31 12:30:19.0	111.780	0.300	-0.300	0.030
2020/01/31 12:30:19.1	111.790	0.300	-0.290	-0.090
2020/01/31 12:30:19.2	111.800	0.300	-0.270	-0.210
2020/01/31 12:30:19.3	111.800	0.300	-0.250	-0.330
2020/01/31 12:30:19.4	111.810	0.290	-0.220	-0.450
2020/01/31 12:30:19.5	111.810	0.280	-0.190	-0.570
2020/01/31 12:30:19.6	111.820	0.270	-0.150	-0.680
2020/01/31 12:30:19.7	111.820	0.260	-0.120	-0.790
2020/01/31 12:30:19.8	111.830	0.250	-0.080	-0.900
2020/01/31 12:30:19.9	111.830	0.230	-0.040	-1.000
2020/01/31 12:30:20.0	111.830	0.210	0.000	-1.100
2020/01/31 12:30:20.1	111.830	0.200	0.040	-1.200
2020/01/31 12:30:20.2	111.830	0.180	0.090	-1.290
2020/01/31 12:30:20.3	111.830	0.160	0.130	-1.370
2020/01/31 12:30:20.4	111.830	0.140	0.170	-1.450
2020/01/31 12:30:20.5	111.840	0.120	0.210	-1.530
2020/01/31 12:30:20.6	111.840	0.110	0.250	-1.600
2020/01/31 12:30:20.7	111.830	0.090	0.290	-1.660
2020/01/31 12:30:20.8	111.830	0.070	0.330	-1.720
2020/01/31 12:30:20.9	111.820	0.060	0.360	-1.780
2020/01/31 12:30:21.0	111.810	0.040	0.390	-1.820
2020/01/31 12:30:21.1	111.810	0.030	0.410	-1.860
2020/01/31 12:30:21.2	111.800	0.010	0.430	-1.900
2020/01/31 12:30:21.3	111.780	-0.000	0.450	-1.920
2020/01/31 12:30:21.4	111.770	-0.010	0.460	-1.940
2020/01/31 12:30:21.5	111.760	-0.020	0.460	-1.950
2020/01/31 12:30:21.6	111.740	-0.030	0.460	-1.960
2020/01/31 12:30:21.7	111.720	-0.040	0.450	-1.960
2020/01/31 12:30:21.8	111.700	-0.040	0.440	-1.950
2020/01/31 12:30:21.9	111.690	-0.040	0.420	-1.930
2020/01/31 12:30:22.0	111.670	-0.040	0.390	-1.900
2020/01/31 12:30:22.1	111.650	-0.040	0.360	-1.870
2020/01/31 12:30:22.2	111.630	-0.040	0.320	-1.830
2020/01/31 12:30:22.3	111.610	-0.040	0.280	-1.780
2020/01/31 12:30:22.4	111.590	-0.040	0.230	-1.720
2020/01/31 12:30:22.5	111.560	-0.030	0.180	-1.660
2020/01/31 12:30:22.6	111.540	-0.020	0.120	-1.600
2020/01/31 12:30:22.7	111.520	-0.010	0.050	-1.530
2020/01/31 12:30:22.8	111.500	-0.000	-0.010	-1.450
2020/01/31 12:30:22.9	111.480	0.010	-0.080	-1.370
2020/01/31 12:30:23.0	111.470	0.020	-0.160	-1.280
2020/01/31 12:30:23.1	111.450	0.040	-0.230	-1.190
2020/01/31 12:30:23.2	111.440	0.050	-0.310	-1.100
2020/01/31 12:30:23.3	111.420	0.070	-0.390	-1.010
2020/01/31 12:30:23.4	111.410	0.080	-0.470	-0.910
2020/01/31 12:30:23.5	111.410	0.100	-0.540	-0.800
2020/01/31 12:30:23.6	111.410	0.110	-0.620	-0.700
2020/01/31 12:30:23.7	111.400	0.130	-0.700	-0.600
2020/01/31 12:30:23.8	111.400	0.150	-0.770	-0.490
2020/01/31 12:30:23.9	111.400	0.170	-0.840	-0.390
2020/01/31 12:30:24.0	111.400	0.180	-0.910	-0.280
2020/01/31 12:30:24.1	111.410	0.200	-0.970	-0.170
2020/01/31 12:30:24.2	111.420	0.220	-1.030	-0.060
2020/01/31 12:30:24.3	111.430	0.230	-1.080	0.040
2020/01/31 12:30:24.4	111.440	0.250	-1.130	0.150
2020/01/31 12:30:24.5	111.470	0.260	-1.170	0.270
2020/01/31 12:30:24.6	111.490	0.270	-1.210	0.380
2020/01/31 12:30:24.7	111.510	0.280	-1.230	0.490
2020/01/31 12:30:24.8	111.530	0.290	-1.250	0.600
2020/01/31 12:30:24.9	111.550	0.300	-1.260	0.710
2020/01/31 12:30:25.0	111.580	0.310	-1.270	0.820
2020/01/31 12:30:25.1	111.600	0.310	-1.260	0.930
2020/01/31 12:30:25.2	111.630	0.310	-1.250	1.040
2020/01/31 12:30:25.3	111.660	0.310	-1.220	1.150
2020/01/31 12:30:25.4	111.690	0.310	-1.190	1.260
2020/01/31 12:30:25.5	111.710	0.310	-1.150	1.370
2020/01/31 12:30:25.6	111.740	0.300	-1.110	1.480
2020/01/31 12:30:25.7	111.770	0.300	-1.050	1.590
2020/01/31 12:30:25.8	111.800	0.290	-0.990	1.690
2020/01/31 12:30:25.9	111.830	0.270	-0.920	1.800
2020/01/31 12:30:26.0	111.850	0.260	-0.850	1.900
2020/01/31 12:30:26.1	111.880	0.240	-0.770	2.010
2020/01/31 12:30:26.2	111.910	0.230	-0.690	2.110
2020/01/31 12:30:26.3	111.930	0.210	-0.600	2.200
2020/01/31 12:30:26.4	111.950	0.180	-0.510	2.300
2020/01/31 12:30:26.5	111.970	0.160	-0.410	2.400
2020/01/31 12:30:26.6	111.990	0.140	-0.320	2.490
2020/01/31 12:30:26.7	112.010	0.110	-0.220	2.580
2020/01/31 12:30:26.8	112.020	0.090	-0.120	2.670
2020/01/31 12:30:26.9	112.040	0.060	-0.030	2.760
2020/01/31 12:30:27.0	112.050	0.040	0.070	2.840
2020/01/31 12:30:27.1	112.050	0.010	0.160	2.920
2020/01/31 12:30:27.2	112.060	-0.010	0.250	3.000
2020/01/31 12:30:27.3	112.060	-0.040	0.340	3.070
2020/01/31 12:30:27.4	112.060	-0.060	0.420	3.150
2020/01/31 12:30:27.5	112.070	-0.090	0.500	3.220
2020/01/31 12:30:27.6	112.070	-0.110	0.570	3.280
2020/01/31 12:30:27.7	112.060	-0.130	0.640	3.350
2020/01/31 12:30:27.8	112.050	-0.150	0.700	3.410
2020/01/31 12:30:27.9	112.030	-0.170	0.750	3.460
2020/01/31 12:30:28.0	112.020	-0.190	0.800	3.510
2020/01/31 12:30:28.1	112.000	-0.200	0.840	3.560
2020/01/31 12:30:28.2	111.980	-0.220	0.870	3.610
2020/01/31 12:30:28.3	111.960	-0.230	0.890	3.650
2020/01/31 12:30:28.4	111.940	-0.240	0.900	3.680
2020/01/31 12:30:28.5	111.930	-0.240	0.910	3.710
2020/01/31 12:30:28.6	111.900	-0.250	0.910	3.740
2020/01/31 12:30:28.7	111.870	-0.250	0.900	3.760
2020/01/31 12:30:28.8	111.840	-0.260	0.880	3.780
2020/01/31 12:30:28.9	111.810	-0.260	0.850	3.790
2020/01/31 12:30:29.0	111.780	-0.260	0.820	3.790
2020/01/31 12:30:29.1	111.750	-0.260	0.780	3.790
2020/01/31 12:30:29.2	111.720	-0.250	0.730	3.790
2020/01/31 12:30:29.3	111.690	-0.250	0.680	3.780
2020/01/31 12:30:29.4	111.660	-0.250	0.620	3.760
2020/01/31 12:30:29.5	111.640	-0.240	0.560	3.740
2020/01/31 12:30:29.6	111.610	-0.240	0.490	3.710
2020/01/31 12:30:29.7	111.580	-0.240	0.420	3.670
2020/01/31 12:30:29.8	111.550	-0.230	0.350	3.630
2020/01/31 12:30:29.9	111.520	-0.230	0.270	3.580
2020/01/31 12:30:30.0	111.490	-0.220	0.200	3.530
2020/01/31 12:30:30.1	111.470	-0.220	0.120	3.460
2020/01/31 12:30:30.2	111.440	-0.220	0.040	3.400
2020/01/31 12:30:30.3	111.420	-0.220	-0.030	3.330
2020/01/31 12:30:30.4	111.400	-0.220	-0.110	3.250
2020/01/31 12:30:30.5	111.360	-0.220	-0.190	3.150
2020/01/31 12:30:30.6	111.350	-0.220	-0.260	3.060
2020/01/31 12:30:30.7	111.330	-0.220	-0.330	2.970
2020/01/31 12:30:30.8	111.320	-0.220	-0.390	2.870
2020/01/31 12:30:30.9	111.310	-0.220	-0.460	2.760
2020/01/31 12:30:31.0	111.300	-0.230	-0.520	2.650
2020/01/31 12:30:31.1	111.290	-0.230	-0.570	2.540
2020/01/31 12:30:31.2	111.290	-0.230	-0.620	2.420
2020/01/31 12:30:31.3	111.290	-0.240	-0.660	2.300
2020/01/31 12:30:31.4	111.290	-0.240	-0.700	2.180
2020/01/31 12:30:31.5	111.270	-0.250	-0.740	2.050
2020/01/31 12:30:31.6	111.280	-0.250	-0.760	1.920
2020/01/31 12:30:31.7	111.290	-0.260	-0.790	1.790
2020/01/31 12:30:31.8	111.300	-0.260	-0.800	1.660
2020/01/31 12:30:31.9	111.310	-0.260	-0.810	1.530
2020/01/31 12:30:32.0	111.320	-0.270	-0.820	1.400
2020/01/31 12:30:32.1	111.340	-0.270	-0.820	1.270
2020/01/31 12:30:32.2	111.350	-0.270	-0.820	1.140
2020/01/31 12:30:32.3	111.370	-0.270	-0.810	1.010
2020/01/31 12:30:32.4	111.390	-0.260	-0.790	0.880
2020/01/31 12:30:32.5	111.390	-0.260	-0.780	0.750
2020/01/31 12:30:32.6	111.410	-0.260	-0.760	0.630
2020/01/31 12:30:32.7	111.430	-0.250	-0.730	0.510
2020/01/31 12:30:32.8	111.450	-0.240	-0.710	0.390
2020/01/31 12:30:32.9	111.470	-0.230	-0.680	0.270
2020/01/31 12:30:33.0	111.490	-0.220	-0.650	0.160
2020/01/31 12:30:33.1	111.510	-0.200	-0.620	0.050
2020/01/31 12:30:33.2	111.530	-0.190	-0.590	-0.050
2020/01/31 12:30:33.3	111.550	-0.170	-0.560	-0.150
2020/01/31 12:30:33.4	111.560	-0.150	-0.530	-0.250
2020/01/31 12:30:33.5	111.570	-0.130	-0.500	-0.340
2020/01/31 12:30:33.6	111.580	-0.100	-0.470	-0.430
2020/01/31 12:30:33.7	111.600	-0.080	-0.440	-0.520
2020/01/31 12:30:33.8	111.620	-0.050	-0.410	-0.600
2020/01/31 12:30:33.9	111.630	-0.020	-0.390	-0.670
2020/01/31 12:30:34.0	111.640	0.000	-0.360	-0.750
2020/01/31 12:30:34.1	111.660	0.030	-0.340	-0.810
2020/01/31 12:30:34.2	111.670	0.060	-0.320	-0.880
2020/01/31 12:30:34.3	111.680	0.090	-0.300	-0.940
2020/01/31 12:30:34.4	111.690	0.130	-0.280	-0.990
2020/01/31 12:30:34.5	111.680	0.160	-0.270	-1.050
2020/01/31 12:30:34.6	111.680	0.190	-0.260	-1.090
2020/01/31 12:30:34.7	111.690	0.220	-0.240	-1.140
2020/01/31 12:30:34.8	111.690	0.250	-0.230	-1.170
2020/01/31 12:30:34.9	111.700	0.270	-0.220	-1.210
2020/01/31 12:30:35.0	111.700	0.300	-0.210	-1.240
2020/01/31 12:30:35.1	111.700	0.330	-0.210	-1.260
2020/01/31 12:30:35.2	111.700	0.350	-0.200	-1.280
2020/01/31 12:30:35.3	111.700	0.370	-0.190	-1.300
2020/01/31 12:30:35.4	111.700	0.390	-0.180	-1.310
2020/01/31 12:30:35.5	111.700	0.400	-0.170	-1.320
2020/01/31 12:30:35.6	111.700	0.420	-0.160	-1.320
2020/01/31 12:30:35.7	111.690	0.430	-0.150	-1.320
2020/01/31 12:30:35.8	111.690	0.440	-0.140	-1.320
2020/01/31 12:30:35.9	111.690	0.440	-0.130	-1.310
2020/01/31 12:30:36.0	111.690	0.440	-0.110	-1.290
2020/01/31 12:30:36.1	111.690	0.440	-0.090	-1.270
2020/01/31 12:30:36.2	111.690	0.440	-0.070	-1.250
2020/01/31 12:30:36.3	111.690	0.430	-0.050	-1.220
2020/01/31 12:30:36.4	111.680	0.420	-0.030	-1.190
2020/01/31 12:30:36.5	111.690	0.400	-0.000	-1.150
2020/01/31 12:30:36.6	111.690	0.390	0.030	-1.100
2020/01/31 12:30:36.7	111.690	0.370	0.060	-1.060
2020/01/31 12:30:36.8	111.690	0.350	0.090	-1.000
2020/01/31 12:30:36.9	111.680	0.330	0.120	-0.940
2020/01/31 12:30:37.0	111.680	0.300	0.150	-0.880
2020/01/31 12:30:37.1	111.680	0.280	0.190	-0.810
2020/01/31 12:30:37.2	111.670	0.250	0.220	-0.740
2020/01/31 12:30:37.3	111.670	0.220	0.260	-0.660
2020/01/31 12:30:37.4	111.660	0.190	0.290	-0.580
2020/01/31 12:30:37.5	111.660	0.160	0.330	-0.480
2020/01/31 12:30:37.6	111.660	0.130	0.360	-0.390
2020/01/31 12:30:37.7	111.650	0.100	0.390	-0.300
2020/01/31 12:30:37.8	111.640	0.070	0.420	-0.200
2020/01/31 12:30:37.9	111.640	0.040	0.450	-0.100
2020/01/31 12:30:38.0	111.640	0.010	0.480	0.000
2020/01/31 12:30:38.1	111.630	-0.020	0.500	0.110
2020/01/31 12:30:38.2	111.630	-0.050	0.520	0.210
2020/01/31 12:30:38.3	111.620	-0.070	0.530	0.320
2020/01/31 12:30:38.4	111.620	-0.100	0.540	0.430
2020/01/31 12:30:38.5	111.620	-0.120	0.550	0.540
2020/01/31 12:30:38.6	111.620	-0.140	0.550	0.650
2020/01/31 12:30:38.7	111.620	-0.160	0.550	0.760
2020/01/31 12:30:38.8	111.620	-0.170	0.540	0.880
2020/01/31 12:30:38.9	111.620	-0.190	0.530	0.990
2020/01/31 12:30:39.0	111.620	-0.200	0.510	1.100
2020/01/31 12:30:39.1	111.620	-0.210	0.480	1.210
2020/01/31 12:30:39.2	111.630	-0.210	0.450	1.320
2020/01/31 12:30:39.3	111.630	-0.210	0.410	1.430
2020/01/31 12:30:39.4	111.630	-0.210	0.370	1.540
2020/01/31 12:30:39.5	111.640	-0.210	0.320	1.650
2020/01/31 12:30:39.6	111.640	-0.200	0.270	1.750
2020/01/31 12:30:39.7	111.640	-0.190	0.210	1.850
2020/01/31 12:30:39.8	111.640	-0.180	0.150	1.960
2020/01/31 12:30:39.9	111.650	-0.170	0.080	2.060
2020/01/31 12:30:40.0	111.650	-0.150	0.010	2.150
2020/01/31 12:30:40.1	111.650	-0.130	-0.070	2.250
2020/01/31 12:30:40.2	111.650	-0.110	-0.140	2.340
2020/01/31 12:30:40.3	111.650	-0.090	-0.220	2.440
2020/01/31 12:30:40.4	111.650	-0.060	-0.310	2.530
2020/01/31 12:30:40.5	111.660	-0.040	-0.390	2.610
2020/01/31 12:30:40.6	111.660	-0.010	-0.470	2.700
2020/01/31 12:30:40.7	111.660	0.010	-0.560	2.780
2020/01/31 12:30:40.8	111.650	0.040	-0.640	2.860
2020/01/31 12:30:40.9	111.650	0.070	-0.720	2.930
2020/01/31 12:30:41.0	111.650	0.100	-0.790	3.010
2020/01/31 12:30:41.1	111.650	0.120	-0.870	3.080
2020/01/31 12:30:41.2	111.650	0.150	-0.940	3.140
2020/01/31 12:30:41.3	111.640	0.180	-1.000	3.210
2020/01/31 12:30:41.4	111.640	0.200	-1.060	3.270
2020/01/31 12:30:41.5	111.650	0.220	-1.110	3.330
2020/01/31 12:30:41.6	111.650	0.250	-1.160	3.380
2020/01/31 12:30:41.7	111.640	0.270	-1.200	3.440
2020/01/31 12:30:41.8	111.640	0.280	-1.240	3.490
2020/01/31 12:30:41.9	111.640	0.300	-1.270	3.540
2020/01/31 12:30:42.0	111.630	0.310	-1.280	3.590
2020/01/31 12:30:42.1	111.630	0.330	-1.300	3.630
2020/01/31 12:30:42.2	111.620	0.340	-1.300	3.670
2020/01/31 12:30:42.3	111.620	0.340	-1.290	3.710
2020/01/31 12:30:42.4	111.620	0.350	-1.280	3.740
2020/01/31 12:30:42.5	111.600	0.350	-1.260	3.780
2020/01/31 12:30:42.6	111.600	0.350	-1.230	3.810
2020/01/31 12:30:42.7	111.590	0.350	-1.190	3.830
2020/01/31 12:30:42.8	111.590	0.340	-1.150	3.850
2020/01/31 12:30:42.9	111.580	0.330	-1.100	3.860
2020/01/31 12:30:43.0	111.570	0.320	-1.040	3.870
2020/01/31 12:30:43.1	111.560	0.310	-0.980	3.880
2020/01/31 12:30:43.2	111.550	0.290	-0.910	3.880
2020/01/31 12:30:43.3	111.550	0.270	-0.840	3.880
2020/01/31 12:30:43.4	111.540	0.250	-0.760	3.870
2020/01/31 12:30:43.5	111.530	0.230	-0.680	3.850
2020/01/31 12:30:43.6	111.520	0.210	-0.600	3.830
2020/01/31 12:30:43.7	111.510	0.180	-0.510	3.800
2020/01/31 12:30:43.8	111.500	0.150	-0.420	3.770
2020/01/31 12:30:43.9	111.490	0.130	-0.330	3.730
2020/01/31 12:30:44.0	111.480	0.100	-0.240	3.690
2020/01/31 12:30:44.1	111.470	0.070	-0.150	3.630
2020/01/31 12:30:44.2	111.470	0.040	-0.060	3.580
2020/01/31 12:30:44.3	111.460	0.010	0.030	3.510
2020/01/31 12:30:44.4	111.450	-0.020	0.120	3.440
2020/01/31 12:30:44.5	111.440	-0.050	0.210	3.360
2020/01/31 12:30:44.6	111.440	-0.080	0.290	3.280
2020/01/31 12:30:44.7	111.430	-0.110	0.370	3.190
2020/01/31 12:30:44.8	111.430	-0.140	0.440	3.100
2020/01/31 12:30:44.9	111.420	-0.170	0.510	3.000
2020/01/31 12:30:45.0	111.420	-0.200	0.580	2.900
2020/01/31 12:30:45.1	111.420	-0.230	0.640	2.790
2020/01/31 12:30:45.2	111.420	-0.250	0.690	2.670
2020/01/31 12:30:45.3	111.420	-0.280	0.740	2.560
2020/01/31 12:30:45.4	111.420	-0.300	0.780	2.440
2020/01/31 12:30:45.5	111.420	-0.320	0.820	2.320
2020/01/31 12:30:45.6	111.420	-0.340	0.850	2.190
2020/01/31 12:30:45.7	111.430	-0.360	0.870	2.060
2020/01/31 12:30:45.8	111.430	-0.370	0.890	1.930
2020/01/31 12:30:45.9	111.430	-0.390	0.890	1.800
2020/01/31 12:30:46.0	111.440	-0.400	0.900	1.660
2020/01/31 12:30:46.1	111.440	-0.410	0.890	1.530
2020/01/31 12:30:46.2	111.450	-0.420	0.880	1.400
2020/01/31 12:30:46.3	111.450	-0.420	0.870	1.260
2020/01/31 12:30:46.4	111.460	-0.420	0.840	1.130
2020/01/31 12:30:46.5	111.460	-0.430	0.820	0.980
2020/01/31 12:30:46.6	111.460	-0.420	0.780	0.850
2020/01/31 12:30:46.7	111.470	-0.420	0.740	0.720
2020/01/31 12:30:46.8	111.480	-0.410	0.700	0.590
2020/01/31 12:30:46.9	111.480	-0.410	0.650	0.450
2020/01/31 12:30:47.0	111.490	-0.400	0.590	0.320
2020/01/31 12:30:47.1	111.500	-0.380	0.530	0.200
2020/01/31 12:30:47.2	111.510	-0.370	0.470	0.070
2020/01/31 12:30:47.3	111.520	-0.360	0.410	-0.060
2020/01/31 12:30:47.4	111.530	-0.340	0.340	-0.180
2020/01/31 12:30:47.5	111.530	-0.320	0.270	-0.300
2020/01/31 12:30:47.6	111.540	-0.300	0.200	-0.420
2020/01/31 12:30:47.7	111.550	-0.280	0.130	-0.540
2020/01/31 12:30:47.8	111.560	-0.260	0.060	-0.660
2020/01/31 12:30:47.9	111.570	-0.230	-0.010	-0.770
2020/01/31 12:30:48.0	111.570	-0.210	-0.080	-0.880
2020/01/31 12:30:48.1	111.580	-0.190	-0.160	-0.990
2020/01/31 12:30:48.2	111.590	-0.160	-0.220	-1.090
2020/01/31 12:30:48.3	111.600	-0.140	-0.290	-1.190
2020/01/31 12:30:48.4	111.610	-0.110	-0.360	-1.290
2020/01/31 12:30:48.5	111.610	-0.090	-0.420	-1.390
2020/01/31 12:30:48.6	111.620	-0.060	-0.480	-1.480
2020/01/31 12:30:48.7	111.620	-0.040	-0.540	-1.560
2020/01/31 12:30:48.8	111.630	-0.020	-0.590	-1.640
2020/01/31 12:30:48.9	111.630	0.010	-0.640	-1.710
2020/01/31 12:30:49.0	111.630	0.030	-0.690	-1.780
2020/01/31 12:30:49.1	111.640	0.050	-0.730	-1.840
2020/01/31 12:30:49.2	111.640	0.070	-0.770	-1.890
2020/01/31 12:30:49.3	111.640	0.090	-0.800	-1.940
2020/01/31 12:30:49.4	111.640	0.100	-0.820	-1.980
2020/01/31 12:30:49.5	111.640	0.120	-0.850	-2.010
2020/01/31 12:30:49.6	111.650	0.140	-0.870	-2.040
2020/01/31 12:30:49.7	111.650	0.150	-0.880	-2.060
2020/01/31 12:30:49.8	111.650	0.160	-0.890	-2.070
2020/01/31 12:30:49.9	111.650	0.170	-0.890	-2.080
2020/01/31 12:30:50.0	111.650	0.180	-0.890	-2.070
2020/01/31 12:30:50.1	111.650	0.190	-0.880	-2.070
2020/01/31 12:30:50.2	111.650	0.200	-0.870	-2.050
2020/01/31 12:30:50.3	111.650	0.200	-0.860	-2.030
2020/01/31 12:30:50.4	111.650	0.200	-0.840	-2.000
2020/01/31 12:30:50.5	111.650	0.210	-0.810	-1.960
2020/01/31 12:30:50.6	111.650	0.210	-0.790	-1.910
2020/01/31 12:30:50.7	111.650	0.210	-0.760	-1.860
2020/01/31 12:30:50.8	111.650	0.200	-0.730	-1.800
2020/01/31 12:30:50.9	111.650	0.200	-0.700	-1.740
2020/01/31 12:30:51.0	111.650	0.200	-0.670	-1.660
2020/01/31 12:30:51.1	111.650	0.190	-0.630	-1.580
2020/01/31 12:30:51.2	111.640	0.190	-0.600	-1.500
2020/01/31 12:30:51.3	111.640	0.180	-0.560	-1.410
2020/01/31 12:30:51.4	111.640	0.170	-0.530	-1.310
2020/01/31 12:30:51.5	111.630	0.170	-0.490	-1.200
2020/01/31 12:30:51.6	111.620	0.160	-0.450	-1.090
2020/01/31 12:30:51.7	111.620	0.150	-0.420	-0.970
2020/01/31 12:30:51.8	111.610	0.140	-0.380	-0.850
2020/01/31 12:30:51.9	111.600	0.130	-0.350	-0.720
2020/01/31 12:30:52.0	111.600	0.130	-0.320	-0.590
2020/01/31 12:30:52.1	111.590	0.120	-0.280	-0.450
2020/01/31 12:30:52.2	111.580	0.110	-0.250	-0.310
2020/01/31 12:30:52.3	111.580	0.100	-0.220	-0.170
2020/01/31 12:30:52.4	111.570	0.090	-0.190	-0.030
2020/01/31 12:30:52.5	111.570	0.090	-0.160	0.130
2020/01/31 12:30:52.6	111.560	0.080	-0.130	0.280
2020/01/31 12:30:52.7	111.560	0.070	-0.100	0.430
2020/01/31 12:30:52.8	111.550	0.060	-0.070	0.580
2020/01/31 12:30:52.9	111.540	0.060	-0.050	0.730
2020/01/31 12:30:53.0	111.540	0.050	-0.020	0.890
2020/01/31 12:30:53.1	111.530	0.040	0.000	1.040
2020/01/31 12:30:53.2	111.530	0.040	0.030	1.200
2020/01/31 12:30:53.3	111.520	0.030	0.050	1.350
2020/01/31 12:30:53.4	111.520	0.020	0.080	1.500
2020/01/31 12:30:53.5	111.520	0.020	0.100	1.650
2020/01/31 12:30:53.6	111.520	0.010	0.120	1.800
2020/01/31 12:30:53.7	111.510	0.010	0.140	1.950
2020/01/31 12:30:53.8	111.510	-0.000	0.160	2.090
2020/01/31 12:30:53.9	111.500	-0.010	0.180	2.230
2020/01/31 12:30:54.0	111.500	-0.010	0.200	2.360
2020/01/31 12:30:54.1	111.490	-0.020	0.220	2.490
2020/01/31 12:30:54.2	111.490	-0.030	0.230	2.620
2020/01/31 12:30:54.3	111.490	-0.030	0.250	2.740
2020/01/31 12:30:54.4	111.480	-0.040	0.260	2.860
2020/01/31 12:30:54.5	111.470	-0.050	0.280	2.970
2020/01/31 12:30:54.6	111.460	-0.050	0.290	3.080
2020/01/31 12:30:54.7	111.460	-0.060	0.290	3.180
2020/01/31 12:30:54.8	111.450	-0.060	0.300	3.270
2020/01/31 12:30:54.9	111.450	-0.070	0.300	3.360
2020/01/31 12:30:55.0	111.450	-0.080	0.300	3.440
2020/01/31 12:30:55.1	111.440	-0.080	0.300	3.520
2020/01/31 12:30:55.2	111.440	-0.090	0.290	3.590
2020/01/31 12:30:55.3	111.430	-0.090	0.280	3.650
2020/01/31 12:30:55.4	111.430	-0.100	0.270	3.700
2020/01/31 12:30:55.5	111.440	-0.100	0.250	3.750
2020/01/31 12:30:55.6	111.430	-0.100	0.240	3.800
2020/01/31 12:30:55.7	111.430	-0.100	0.220	3.840
2020/01/31 12:30:55.8	111.430	-0.110	0.200	3.870
2020/01/31 12:30:55.9	111.430	-0.110	0.170	3.890
2020/01/31 12:30:56.0	111.420	-0.100	0.140	3.910
2020/01/31 12:30:56.1	111.420	-0.100	0.110	3.930
2020/01/31 12:30:56.2	111.420	-0.100	0.080	3.940
2020/01/31 12:30:56.3	111.420	-0.090	0.040	3.940
2020/01/31 12:30:56.4	111.420	-0.090	0.010	3.940
2020/01/31 12:30:56.5	111.430	-0.080	-0.030	3.930
2020/01/31 12:30:56.6	111.430	-0.070	-0.070	3.930
2020/01/31 12:30:56.7	111.430	-0.060	-0.120	3.910
2020/01/31 12:30:56.8	111.430	-0.050	-0.160	3.900
2020/01/31 12:30:56.9	111.440	-0.040	-0.200	3.870
2020/01/31 12:30:57.0	111.440	-0.020	-0.240	3.850
2020/01/31 12:30:57.1	111.440	-0.010	-0.290	3.820
2020/01/31 12:30:57.2	111.440	0.010	-0.330	3.790
2020/01/31 12:30:57.3	111.450	0.030	-0.370	3.750
2020/01/31 12:30:57.4	111.450	0.050	-0.410	3.710
2020/01/31 12:30:57.5	111.450	0.060	-0.450	3.670
2020/01/31 12:30:57.6	111.450	0.080	-0.490	3.630
2020/01/31 12:30:57.7	111.450	0.100	-0.530	3.580
2020/01/31 12:30:57.8	111.450	0.120	-0.560	3.530
2020/01/31 12:30:57.9	111.450	0.140	-0.590	3.470
2020/01/31 12:30:58.0	111.450	0.160	-0.620	3.410
2020/01/31 12:30:58.1	111.450	0.170	-0.640	3.350
2020/01/31 12:30:58.2	111.450	0.190	-0.670	3.280
2020/01/31 12:30:58.3	111.450	0.210	-0.680	3.200
2020/01/31 12:30:58.4	111.450	0.220	-0.700	3.130
2020/01/31 12:30:58.5	111.430	0.240	-0.700	3.040
2020/01/31 12:30:58.6	111.430	0.250	-0.710	2.950
2020/01/31 12:30:58.7	111.430	0.260	-0.710	2.860
2020/01/31 12:30:58.8	111.430	0.270	-0.700	2.760
2020/01/31 12:30:58.9	111.430	0.270	-0.690	2.660
2020/01/31 12:30:59.0	111.430	0.280	-0.680	2.550
2020/01/31 12:30:59.1	111.430	0.280	-0.660	2.440
2020/01/31 12:30:59.2	111.430	0.280	-0.640	2.320
2020/01/31 12:30:59.3	111.440	0.280	-0.610	2.200
2020/01/31 12:30:59.4	111.440	0.280	-0.580	2.080
2020/01/31 12:30:59.5	111.450	0.270	-0.540	1.940
2020/01/31 12:30:59.6	111.450	0.260	-0.500	1.810
2020/01/31 12:30:59.7	111.460	0.250	-0.450	1.670
2020/01/31 12:30:59.8	111.460	0.240	-0.410	1.530
2020/01/31 12:30:59.9	111.470	0.220	-0.350	1.390
2020/01/31 12:31:00.0	111.480	0.210	-0.300	1.240
2020/01/31 12:31:00.1	111.480	0.190	-0.250	1.100
2020/01/31 12:31:00.2	111.490	0.170	-0.190	0.950
2020/01/31 12:31:00.3	111.490	0.150	-0.130	0.810
2020/01/31 12:31:00.4	111.490	0.120	-0.070	0.670
2020/01/31 12:31:00.5	111.490	0.100	-0.010	0.520
2020/01/31 12:31:00.6	111.490	0.070	0.050	0.380
2020/01/31 12:31:00.7	111.490	0.050	0.110	0.240
2020/01/31 12:31:00.8	111.490	0.020	0.170	0.110
2020/01/31 12:31:00.9	111.480	-0.010	0.230	-0.020
2020/01/31 12:31:01.0	111.480	-0.030	0.280	-0.150
2020/01/31 12:31:01.1	111.470	-0.060	0.340	-0.270
2020/01/31 12:31:01.2	111.460	-0.090	0.390	-0.390
2020/01/31 12:31:01.3	111.450	-0.120	0.430	-0.500
2020/01/31 12:31:01.4	111.440	-0.140	0.470	-0.610
2020/01/31 12:31:01.5	111.440	-0.170	0.510	-0.710
2020/01/31 12:31:01.6	111.420	-0.190	0.540	-0.800
2020/01/31 12:31:01.7	111.410	-0.210	0.570	-0.890
2020/01/31 12:31:01.8	111.400	-0.240	0.590	-0.970
2020/01/31 12:31:01.9	111.380	-0.260	0.600	-1.050
2020/01/31 12:31:02.0	111.360	-0.270	0.610	-1.120
2020/01/31 12:31:02.1	111.350	-0.290	0.610	-1.180
2020/01/31 12:31:02.2	111.330	-0.300	0.600	-1.240
2020/01/31 12:31:02.3	111.320	-0.310	0.580	-1.300
2020/01/31 12:31:02.4	111.300	-0.320	0.550	-1.340
2020/01/31 12:31:02.5	111.300	-0.320	0.520	-1.390
2020/01/31 12:31:02.6	111.280	-0.330	0.480	-1.420
2020/01/31 12:31:02.7	111.270	-0.320	0.440	-1.460
2020/01/31 12:31:02.8	111.260	-0.320	0.390	-1.490
2020/01/31 12:31:02.9	111.250	-0.310	0.330	-1.510
2020/01/31 12:31:03.0	111.240	-0.300	0.260	-1.530
2020/01/31 12:31:03.1	111.240	-0.290	0.190	-1.550
2020/01/31 12:31:03.2	111.230	-0.270	0.110	-1.570
2020/01/31 12:31:03.3	111.230	-0.260	0.030	-1.580
2020/01/31 12:31:03.4	111.230	-0.230	-0.050	-1.580
2020/01/31 12:31:03.5	111.240	-0.210	-0.140	-1.590
2020/01/31 12:31:03.6	111.240	-0.180	-0.230	-1.590
2020/01/31 12:31:03.7	111.250	-0.160	-0.320	-1.590
2020/01/31 12:31:03.8	111.250	-0.130	-0.420	-1.580
2020/01/31 12:31:03.9	111.260	-0.100	-0.510	-1.580
2020/01/31 12:31:04.0	111.270	-0.060	-0.600	-1.570
2020/01/31 12:31:04.1	111.280	-0.030	-0.690	-1.550
2020/01/31 12:31:04.2	111.300	0.000	-0.780	-1.540
2020/01/31 12:31:04.3	111.310	0.040	-0.860	-1.520
2020/01/31 12:31:04.4	111.320	0.070	-0.940	-1.500
2020/01/31 12:31:04.5	111.330	0.100	-1.010	-1.470
2020/01/31 12:31:04.6	111.350	0.130	-1.080	-1.440
2020/01/31 12:31:04.7	111.360	0.160	-1.140	-1.410
2020/01/31 12:31:04.8	111.380	0.190	-1.190	-1.370
2020/01/31 12:31:04.9	111.390	0.220	-1.230	-1.330
2020/01/31 12:31:05.0	111.400	0.250	-1.270	-1.290
2020/01/31 12:31:05.1	111.420	0.270	-1.290	-1.240
2020/01/31 12:31:05.2	111.430	0.290	-1.310	-1.180
2020/01/31 12:31:05.3	111.440	0.310	-1.320	-1.120
2020/01/31 12:31:05.4	111.450	0.330	-1.310	-1.060
2020/01/31 12:31:05.5	111.460	0.340	-1.300	-0.980
2020/01/31 12:31:05.6	111.470	0.350	-1.280	-0.900
2020/01/31 12:31:05.7	111.470	0.360	-1.240	-0.820
2020/01/31 12:31:05.8	111.480	0.360	-1.200	-0.730
2020/01/31 12:31:05.9	111.480	0.360	-1.150	-0.640
2020/01/31 12:31:06.0	111.480	0.350	-1.090	-0.540
2020/01/31 12:31:06.1	111.480	0.340	-1.020	-0.430
2020/01/31 12:31:06.2	111.480	0.330	-0.950	-0.320
2020/01/31 12:31:06.3	111.480	0.320	-0.870	-0.200
2020/01/31 12:31:06.4	111.480	0.300	-0.780	-0.070
2020/01/31 12:31:06.5	111.480	0.270	-0.690	0.060
2020/01/31 12:31:06.6	111.480	0.250	-0.590	0.190
2020/01/31 12:31:06.7	111.470	0.220	-0.490	0.330
2020/01/31 12:31:06.8	111.470	0.190	-0.380	0.470
2020/01/31 12:31:06.9	111.470	0.150	-0.280	0.620
2020/01/31 12:31:07.0	111.460	0.120	-0.170	0.770
2020/01/31 12:31:07.1	111.460	0.080	-0.060	0.920
2020/01/31 12:31:07.2	111.460	0.040	0.040	1.070
2020/01/31 12:31:07.3	111.450	-0.000	0.150	1.220
2020/01/31 12:31:07.4	111.450	-0.050	0.250	1.380
2020/01/31 12:31:07.5	111.460	-0.090	0.350	1.540
2020/01/31 12:31:07.6	111.450	-0.140	0.450	1.690
2020/01/31 12:31:07.7	111.450	-0.180	0.540	1.840
2020/01/31 12:31:07.8	111.450	-0.230	0.630	1.990
2020/01/31 12:31:07.9	111.450	-0.270	0.710	2.140
2020/01/31 12:31:08.0	111.440	-0.320	0.780	2.290
2020/01/31 12:31:08.1	111.440	-0.360	0.850	2.430
2020/01/31 12:31:08.2	111.440	-0.410	0.910	2.570
2020/01/31 12:31:08.3	111.440	-0.450	0.970	2.700
2020/01/31 12:31:08.4	111.440	-0.490	1.020	2.820
2020/01/31 12:31:08.5	111.430	-0.530	1.060	2.950
2020/01/31 12:31:08.6	111.420	-0.570	1.090	3.060
2020/01/31 12:31:08.7	111.420	-0.600	1.120	3.160
2020/01/31 12:31:08.8	111.420	-0.630	1.140	3.260
2020/01/31 12:31:08.9	111.420	-0.660	1.150	3.350
2020/01/31 12:31:09.0	111.420	-0.690	1.160	3.440
2020/01/31 12:31:09.1	111.420	-0.710	1.150	3.510
2020/01/31 12:31:09.2	111.420	-0.730	1.140	3.580
2020/01/31 12:31:09.3	111.420	-0.750	1.130	3.640
2020/01/31 12:31:09.4	111.410	-0.760	1.100	3.690
2020/01/31 12:31:09.5	111.400	-0.770	1.070	3.730
2020/01/31 12:31:09.6	111.400	-0.770	1.030	3.770
2020/01/31 12:31:09.7	111.400	-0.770	0.990	3.800
2020/01/31 12:31:09.8	111.390	-0.760	0.940	3.820
2020/01/31 12:31:09.9	111.390	-0.760	0.880	3.840
2020/01/31 12:31:10.0	111.380	-0.740	0.820	3.850
2020/01/31 12:31:10.1	111.370	-0.730	0.750	3.850
2020/01/31 12:31:10.2	111.370	-0.700	0.670	3.850
2020/01/31 12:31:10.3	111.360	-0.680	0.600	3.840
2020/01/31 12:31:10.4	111.350	-0.650	0.520	3.820
2020/01/31 12:31:10.5	111.350	-0.620	0.430	3.800
2020/01/31 12:31:10.6	111.340	-0.580	0.340	3.770
2020/01/31 12:31:10.7	111.330	-0.540	0.250	3.740
2020/01/31 12:31:10.8	111.320	-0.490	0.150	3.710
2020/01/31 12:31:10.9	111.310	-0.450	0.060	3.660
2020/01/31 12:31:11.0	111.300	-0.400	-0.040	3.620
2020/01/31 12:31:11.1	111.290	-0.350	-0.140	3.570
2020/01/31 12:31:11.2	111.290	-0.290	-0.230	3.510
2020/01/31 12:31:11.3	111.280	-0.230	-0.330	3.450
2020/01/31 12:31:11.4	111.270	-0.180	-0.430	3.380
2020/01/31 12:31:11.5	111.260	-0.120	-0.530	3.310
2020/01/31 12:31:11.6	111.260	-0.060	-0.620	3.240
2020/01/31 12:31:11.7	111.250	0.000	-0.720	3.160
2020/01/31 12:31:11.8	111.250	0.070	-0.810	3.090
2020/01/31 12:31:11.9	111.250	0.130	-0.900	3.000
2020/01/31 12:31:12.0	111.250	0.190	-0.980	2.920
2020/01/31 12:31:12.1	111.260	0.250	-1.060	2.840
2020/01/31 12:31:12.2	111.260	0.310	-1.140	2.750
2020/01/31 12:31:12.3	111.260	0.370	-1.210	2.660
2020/01/31 12:31:12.4	111.270	0.430	-1.280	2.570
2020/01/31 12:31:12.5	111.270	0.480	-1.340	2.470
2020/01/31 12:31:12.6	111.280	0.530	-1.400	2.380
2020/01/31 12:31:12.7	111.290	0.590	-1.450	2.290
2020/01/31 12:31:12.8	111.300	0.630	-1.500	2.190
2020/01/31 12:31:12.9	111.310	0.680	-1.540	2.090
2020/01/31 12:31:13.0	111.320	0.720	-1.570	2.000
2020/01/31 12:31:13.1	111.330	0.760	-1.600	1.900
2020/01/31 12:31:13.2	111.350	0.800	-1.620	1.800
2020/01/31 12:31:13.3	111.360	0.830	-1.640	1.710
2020/01/31 12:31:13.4	111.370	0.860	-1.640	1.610
2020/01/31 12:31:13.5	111.390	0.890	-1.640	1.510
2020/01/31 12:31:13.6	111.400	0.910	-1.640	1.410
2020/01/31 12:31:13.7	111.420	0.930	-1.620	1.310
2020/01/31 12:31:13.8	111.430	0.940	-1.600	1.210
2020/01/31 12:31:13.9	111.450	0.950	-1.570	1.110
2020/01/31 12:31:14.0	111.460	0.960	-1.540	1.010
2020/01/31 12:31:14.1	111.470	0.960	-1.490	0.910
2020/01/31 12:31:14.2	111.490	0.960	-1.440	0.820
2020/01/31 12:31:14.3	111.500	0.950	-1.390	0.720
2020/01/31 12:31:14.4	111.510	0.940	-1.320	0.630
2020/01/31 12:31:14.5	111.520	0.930	-1.250	0.530
2020/01/31 12:31:14.6	111.530	0.910	-1.170	0.440
2020/01/31 12:31:14.7	111.530	0.890	-1.080	0.350
2020/01/31 12:31:14.8	111.540	0.860	-0.990	0.260
2020/01/31 12:31:14.9	111.550	0.830	-0.900	0.180
2020/01/31 12:31:15.0	111.550	0.800	-0.790	0.100
2020/01/31 12:31:15.1	111.560	0.760	-0.690	0.020
2020/01/31 12:31:15.2	111.560	0.720	-0.570	-0.050
2020/01/31 12:31:15.3	111.560	0.680	-0.460	-0.130
2020/01/31 12:31:15.4	111.560	0.630	-0.340	-0.190
2020/01/31 12:31:15.5	111.540	0.580	-0.220	-0.260
2020/01/31 12:31:15.6	111.540	0.530	-0.090	-0.320
2020/01/31 12:31:15.7	111.530	0.480	0.030	-0.370
2020/01/31 12:31:15.8	111.520	0.420	0.150	-0.420
2020/01/31 12:31:15.9	111.510	0.370	0.270	-0.470
2020/01/31 12:31:16.0	111.500	0.310	0.390	-0.510
2020/01/31 12:31:16.1	111.480	0.250	0.510	-0.550
2020/01/31 12:31:16.2	111.470	0.190	0.620	-0.590
2020/01/31 12:31:16.3	111.450	0.130	0.730	-0.620
2020/01/31 12:31:16.4	111.430	0.070	0.830	-0.640
2020/01/31 12:31:16.5	111.420	0.010	0.930	-0.660
2020/01/31 12:31:16.6	111.400	-0.050	1.020	-0.670
2020/01/31 12:31:16.7	111.380	-0.110	1.100	-0.680
2020/01/31 12:31:16.8	111.360	-0.160	1.180	-0.690
2020/01/31 12:31:16.9	111.340	-0.220	1.250	-0.700
2020/01/31 12:31:17.0	111.310	-0.270	1.310	-0.700
2020/01/31 12:31:17.1	111.290	-0.320	1.360	-0.690
2020/01/31 12:31:17.2	111.270	-0.370	1.400	-0.680
2020/01/31 12:31:17.3	111.240	-0.420	1.430	-0.670
2020/01/31 12:31:17.4	111.220	-0.460	1.450	-0.660
2020/01/31 12:31:17.5	111.210	-0.500	1.450	-0.640
2020/01/31 12:31:17.6	111.190	-0.540	1.450	-0.620
2020/01/31 12:31:17.7	111.170	-0.570	1.440	-0.600
2020/01/31 12:31:17.8	111.160	-0.600	1.420	-0.580
2020/01/31 12:31:17.9	111.140	-0.630	1.390	-0.560
2020/01/31 12:31:18.0	111.130	-0.650	1.350	-0.530
2020/01/31 12:31:18.1	111.120	-0.670	1.300	-0.510
2020/01/31 12:31:18.2	111.110	-0.680	1.240	-0.480
2020/01/31 12:31:18.3	111.110	-0.700	1.180	-0.450
2020/01/31 12:31:18.4	111.110	-0.700	1.100	-0.420
2020/01/31 12:31:18.5	111.110	-0.710	1.020	-0.390
2020/01/31 12:31:18.6	111.120	-0.710	0.930	-0.360
2020/01/31 12:31:18.7	111.120	-0.700	0.840	-0.330
2020/01/31 12:31:18.8	111.120	-0.690	0.750	-0.300
2020/01/31 12:31:18.9	111.130	-0.680	0.650	-0.270
2020/01/31 12:31:19.0	111.140	-0.670	0.550	-0.240
2020/01/31 12:31:19.1	111.150	-0.650	0.440	-0.210
2020/01/31 12:31:19.2	111.160	-0.630	0.330	-0.170
2020/01/31 12:31:19.3	111.180	-0.610	0.230	-0.140
2020/01/31 12:31:19.4	111.190	-0.580	0.120	-0.100
2020/01/31 12:31:19.5	111.210	-0.550	0.020	-0.060
2020/01/31 12:31:19.6	111.220	-0.520	-0.090	-0.020
2020/01/31 12:31:19.7	111.240	-0.490	-0.190	0.020
2020/01/31 12:31:19.8	111.250	-0.450	-0.290	0.060
2020/01/31 12:31:19.9	111.270	-0.420	-0.380	0.110
2020/01/31 12:31:20.0	111.280	-0.380	-0.480	0.160
2020/01/31 12:31:20.1	111.300	-0.350	-0.560	0.210
2020/01/31 12:31:20.2	111.310	-0.310	-0.640	0.260
2020/01/31 12:31:20.3	111.330	-0.280	-0.720	0.310
2020/01/31 12:31:20.4	111.340	-0.240	-0.790	0.370
2020/01/31 12:31:20.5	111.370	-0.210	-0.850	0.430
2020/01/31 12:31:20.6	111.390	-0.170	-0.910	0.480
2020/01/31 12:31:20.7	111.400	-0.140	-0.960	0.550
2020/01/31 12:31:20.8	111.420	-0.110	-1.000	0.610
2020/01/31 12:31:20.9	111.430	-0.080	-1.040	0.670
2020/01/31 12:31:21.0	111.450	-0.050	-1.060	0.740
2020/01/31 12:31:21.1	111.460	-0.020	-1.090	0.800
2020/01/31 12:31:21.2	111.470	0.000	-1.100	0.870
2020/01/31 12:31:21.3	111.480	0.030	-1.110	0.940
2020/01/31 12:31:21.4	111.500	0.050	-1.110	1.000
2020/01/31 12:31:21.5	111.500	0.060	-1.110	1.070
2020/01/31 12:31:21.6	111.510	0.080	-1.100	1.140
2020/01/31 12:31:21.7	111.520	0.090	-1.080	1.210
2020/01/31 12:31:21.8	111.530	0.100	-1.070	1.280
2020/01/31 12:31:21.9	111.530	0.110	-1.040	1.340
2020/01/31 12:31:22.0	111.540	0.120	-1.020	1.410
2020/01/31 12:31:22.1	111.550	0.130	-0.980	1.470
2020/01/31 12:31:22.2	111.550	0.130	-0.950	1.540
2020/01/31 12:31:22.3	111.560	0.130	-0.920	1.600
2020/01/31 12:31:22.4	111.560	0.130	-0.880	1.660
2020/01/31 12:31:22.5	111.560	0.130	-0.840	1.730
2020/01/31 12:31:22.6	111.560	0.130	-0.800	1.780
2020/01/31 12:31:22.7	111.560	0.130	-0.760	1.840
2020/01/31 12:31:22.8	111.560	0.130	-0.710	1.900
2020/01/31 12:31:22.9	111.560	0.120	-0.670	1.950
2020/01/31 12:31:23.0	111.560	0.120	-0.630	2.000
2020/01/31 12:31:23.1	111.550	0.120	-0.580	2.060
2020/01/31 12:31:23.2	111.550	0.110	-0.540	2.100
2020/01/31 12:31:23.3	111.540	0.110	-0.500	2.150
2020/01/31 12:31:23.4	111.530	0.100	-0.460	2.200
2020/01/31 12:31:23.5	111.510	0.100	-0.420	2.240
2020/01/31 12:31:23.6	111.500	0.090	-0.380	2.280
2020/01/31 12:31:23.7	111.490	0.090	-0.350	2.320
2020/01/31 12:31:23.8	111.470	0.080	-0.310	2.360
2020/01/31 12:31:23.9	111.460	0.080	-0.280	2.400
2020/01/31 12:31:24.0	111.440	0.070	-0.250	2.440
2020/01/31 12:31:24.1	111.430	0.070	-0.220	2.470
2020/01/31 12:31:24.2	111.410	0.070	-0.190	2.500
2020/01/31 12:31:24.3	111.400	0.060	-0.170	2.530
2020/01/31 12:31:24.4	111.380	0.060	-0.150	2.560
2020/01/31 12:31:24.5	111.360	0.060	-0.130	2.590
2020/01/31 12:31:24.6	111.340	0.060	-0.110	2.610
2020/01/31 12:31:24.7	111.330	0.050	-0.090	2.630
2020/01/31 12:31:24.8	111.310	0.050	-0.070	2.650
2020/01/31 12:31:24.9	111.290	0.050	-0.060	2.660
2020/01/31 12:31:25.0	111.280	0.050	-0.050	2.670
2020/01/31 12:31:25.1	111.270	0.050	-0.040	2.670
2020/01/31 12:31:25.2	111.250	0.050	-0.020	2.670
2020/01/31 12:31:25.3	111.240	0.040	-0.010	2.670
2020/01/31 12:31:25.4	111.230	0.040	-0.000	2.660
2020/01/31 12:31:25.5	111.220	0.040	0.010	2.640
2020/01/31 12:31:25.6	111.210	0.040	0.020	2.630
2020/01/31 12:31:25.7	111.200	0.040	0.020	2.610
2020/01/31 12:31:25.8	111.190	0.040	0.030	2.580
2020/01/31 12:31:25.9	111.190	0.030	0.040	2.550
2020/01/31 12:31:26.0	111.180	0.030	0.040	2.520
2020/01/31 12:31:26.1	111.180	0.030	0.050	2.480
2020/01/31 12:31:26.2	111.170	0.030	0.060	2.440
2020/01/31 12:31:26.3	111.170	0.030	0.060	2.400
2020/01/31 12:31:26.4	111.160	0.020	0.070	2.350
2020/01/31 12:31:26.5	111.170	0.020	0.070	2.300
2020/01/31 12:31:26.6	111.160	0.020	0.080	2.250
2020/01/31 12:31:26.7	111.160	0.010	0.080	2.190
2020/01/31 12:31:26.8	111.150	0.010	0.090	2.130
2020/01/31 12:31:26.9	111.150	0.010	0.090	2.070
2020/01/31 12:31:27.0	111.140	0.000	0.090	2.010
2020/01/31 12:31:27.1	111.140	0.000	0.090	1.940
2020/01/31 12:31:27.2	111.130	-0.000	0.090	1.870
2020/01/31 12:31:27.3	111.130	-0.000	0.090	1.800
2020/01/31 12:31:27.4	111.120	-0.010	0.090	1.730
2020/01/31 12:31:27.5	111.120	-0.010	0.080	1.650
2020/01/31 12:31:27.6	111.120	-0.010	0.080	1.570
2020/01/31 12:31:27.7	111.110	-0.010	0.070	1.490
2020/01/31 12:31:27.8	111.100	-0.010	0.070	1.410
2020/01/31 12:31:27.9	111.100	-0.010	0.060	1.330
2020/01/31 12:31:28.0	111.090	-0.010	0.050	1.250
2020/01/31 12:31:28.1	111.090	-0.010	0.040	1.160
2020/01/31 12:31:28.2	111.090	-0.010	0.030	1.070
2020/01/31 12:31:28.3	111.080	-0.010	0.020	0.990
2020/01/31 12:31:28.4	111.080	-0.010	0.010	0.890
2020/01/31 12:31:28.5	111.080	-0.000	-0.000	0.800
2020/01/31 12:31:28.6	111.090	-0.000	-0.020	0.710
2020/01/31 12:31:28.7	111.090	0.000	-0.030	0.620
2020/01/31 12:31:28.8	111.100	0.000	-0.050	0.520
2020/01/31 12:31:28.9	111.110	0.010	-0.060	0.430
2020/01/31 12:31:29.0	111.120	0.010	-0.080	0.330
2020/01/31 12:31:29.1	111.130	0.020	-0.090	0.240
2020/01/31 12:31:29.2	111.140	0.020	-0.110	0.150
2020/01/31 12:31:29.3	111.150	0.030	-0.130	0.050
2020/01/31 12:31:29.4	111.170	0.030	-0.140	-0.030
2020/01/31 12:31:29.5	111.180	0.040	-0.160	-0.120
2020/01/31 12:31:29.6	111.190	0.040	-0.170	-0.210
2020/01/31 12:31:29.7	111.210	0.050	-0.190	-0.280
2020/01/31 12:31:29.8	111.230	0.050	-0.200	-0.360
2020/01/31 12:31:29.9	111.250	0.060	-0.220	-0.430
2020/01/31 12:31:30.0	111.270	0.060	-0.230	-0.490
2020/01/31 12:31:30.1	111.290	0.070	-0.250	-0.550
2020/01/31 12:31:30.2	111.300	0.070	-0.260	-0.600
2020/01/31 12:31:30.3	111.320	0.080	-0.280	-0.640
2020/01/31 12:31:30.4	111.330	0.080	-0.290	-0.680
2020/01/31 12:31:30.5	111.340	0.090	-0.300	-0.710
2020/01/31 12:31:30.6	111.350	0.090	-0.310	-0.740
2020/01/31 12:31:30.7	111.360	0.100	-0.320	-0.760
2020/01/31 12:31:30.8	111.370	0.100	-0.330	-0.780
2020/01/31 12:31:30.9	111.380	0.110	-0.330	-0.790
2020/01/31 12:31:31.0	111.390	0.110	-0.330	-0.790
2020/01/31 12:31:31.1	111.400	0.110	-0.340	-0.790
2020/01/31 12:31:31.2	111.410	0.120	-0.340	-0.790
2020/01/31 12:31:31.3	111.410	0.120	-0.330	-0.780
2020/01/31 12:31:31.4	111.420	0.120	-0.330	-0.770
2020/01/31 12:31:31.5	111.410	0.120	-0.320	-0.760
2020/01/31 12:31:31.6	111.410	0.120	-0.310	-0.750
2020/01/31 12:31:31.7	111.420	0.120	-0.300	-0.730
2020/01/31 12:31:31.8	111.420	0.120	-0.280	-0.710
2020/01/31 12:31:31.9	111.430	0.120	-0.270	-0.680
2020/01/31 12:31:32.0	111.430	0.120	-0.250	-0.660
2020/01/31 12:31:32.1	111.440	0.110	-0.220	-0.630
2020/01/31 12:31:32.2	111.440	0.110	-0.200	-0.600
2020/01/31 12:31:32.3	111.440	0.110	-0.170	-0.570
2020/01/31 12:31:32.4	111.450	0.100	-0.140	-0.530
2020/01/31 12:31:32.5	111.450	0.090	-0.110	-0.500
2020/01/31 12:31:32.6	111.450	0.090	-0.080	-0.460
2020/01/31 12:31:32.7	111.450	0.080	-0.050	-0.420
2020/01/31 12:31:32.8	111.450	0.070	-0.010	-0.370
2020/01/31 12:31:32.9	111.460	0.060	0.020	-0.320
2020/01/31 12:31:33.0	111.460	0.060	0.050	-0.280
2020/01/31 12:31:33.1	111.460	0.050	0.080	-0.220
2020/01/31 12:31:33.2	111.460	0.040	0.110	-0.170
2020/01/31 12:31:33.3	111.460	0.030	0.140	-0.110
2020/01/31 12:31:33.4	111.460	0.020	0.170	-0.050
2020/01/31 12:31:33.5	111.460	0.010	0.190	0.020
2020/01/31 12:31:33.6	111.450	0.000	0.210	0.080
2020/01/31 12:31:33.7	111.450	-0.010	0.230	0.150
2020/01/31 12:31:33.8	111.440	-0.010	0.240	0.230
2020/01/31 12:31:33.9	111.430	-0.020	0.250	0.300
2020/01/31 12:31:34.0	111.430	-0.030	0.250	0.380
2020/01/31 12:31:34.1	111.420	-0.030	0.250	0.460
2020/01/31 12:31:34.2	111.410	-0.040	0.250	0.550
2020/01/31 12:31:34.3	111.390	-0.040	0.240	0.640
2020/01/31 12:31:34.4	111.380	-0.040	0.220	0.720
2020/01/31 12:31:34.5	111.370	-0.050	0.210	0.820
2020/01/31 12:31:34.6	111.360	-0.050	0.180	0.910
2020/01/31 12:31:34.7	111.340	-0.050	0.160	1.000
2020/01/31 12:31:34.8	111.320	-0.050	0.120	1.100
2020/01/31 12:31:34.9	111.310	-0.050	0.090	1.190
2020/01/31 12:31:35.0	111.290	-0.040	0.050	1.280
2020/01/31 12:31:35.1	111.280	-0.040	0.010	1.380
2020/01/31 12:31:35.2	111.260	-0.030	-0.040	1.470
2020/01/31 12:31:35.3	111.250	-0.030	-0.090	1.560
2020/01/31 12:31:35.4	111.230	-0.020	-0.140	1.640
2020/01/31 12:31:35.5	111.210	-0.020	-0.190	1.730
2020/01/31 12:31:35.6	111.200	-0.010	-0.240	1.810
2020/01/31 12:31:35.7	111.190	-0.000	-0.290	1.890
2020/01/31 12:31:35.8	111.180	0.000	-0.340	1.970
2020/01/31 12:31:35.9	111.170	0.010	-0.390	2.050
2020/01/31 12:31:36.0	111.160	0.020	-0.440	2.120
2020/01/31 12:31:36.1	111.150	0.030	-0.480	2.190
2020/01/31 12:31:36.2	111.150	0.040	-0.530	2.250
2020/01/31 12:31:36.3	111.140	0.040	-0.570	2.310
2020/01/31 12:31:36.4	111.140	0.050	-0.610	2.370
2020/01/31 12:31:36.5	111.140	0.060	-0.640	2.430
2020/01/31 12:31:36.6	111.150	0.060	-0.670	2.480
2020/01/31 12:31:36.7	111.150	0.070	-0.700	2.520
2020/01/31 12:31:36.8	111.150	0.070	-0.720	2.570
2020/01/31 12:31:36.9	111.160	0.070	-0.740	2.610
2020/01/31 12:31:37.0	111.170	0.080	-0.760	2.640
2020/01/31 12:31:37.1	111.180	0.080	-0.770	2.680
2020/01/31 12:31:37.2	111.190	0.080	-0.770	2.710
2020/01/31 12:31:37.3	111.200	0.080	-0.770	2.740
2020/01/31 12:31:37.4	111.210	0.080	-0.770	2.760
2020/01/31 12:31:37.5	111.230	0.070	-0.760	2.790
2020/01/31 12:31:37.6	111.240	0.070	-0.750	2.810
2020/01/31 12:31:37.7	111.250	0.060	-0.730	2.820
2020/01/31 12:31:37.8	111.270	0.060	-0.710	2.840
2020/01/31 12:31:37.9	111.280	0.050	-0.690	2.850
2020/01/31 12:31:38.0	111.290	0.040	-0.660	2.850
2020/01/31 12:31:38.1	111.310	0.030	-0.630	2.860
2020/01/31 12:31:38.2	111.320	0.020	-0.600	2.860
2020/01/31 12:31:38.3	111.330	0.010	-0.570	2.860
2020/01/31 12:31:38.4	111.340	0.000	-0.540	2.850
2020/01/31 12:31:38.5	111.360	-0.010	-0.500	2.840
2020/01/31 12:31:38.6	111.370	-0.020	-0.460	2.830
2020/01/31 12:31:38.7	111.380	-0.040	-0.420	2.810
2020/01/31 12:31:38.8	111.390	-0.050	-0.380	2.790
2020/01/31 12:31:38.9	111.400	-0.070	-0.340	2.770
2020/01/31 12:31:39.0	111.410	-0.080	-0.300	2.740
2020/01/31 12:31:39.1	111.420	-0.100	-0.260	2.710
2020/01/31 12:31:39.2	111.430	-0.110	-0.210	2.680
2020/01/31 12:31:39.3	111.440	-0.130	-0.170	2.640
2020/01/31 12:31:39.4	111.440	-0.140	-0.130	2.600
2020/01/31 12:31:39.5	111.460	-0.160	-0.080	2.560
2020/01/31 12:31:39.6	111.460	-0.170	-0.040	2.520
2020/01/31 12:31:39.7	111.470	-0.180	0.010	2.470
2020/01/31 12:31:39.8	111.470	-0.200	0.050	2.420
2020/01/31 12:31:39.9	111.480	-0.210	0.090	2.370
2020/01/31 12:31:40.0	111.480	-0.220	0.140	2.310
2020/01/31 12:31:40.1	111.480	-0.240	0.180	2.250
2020/01/31 12:31:40.2	111.480	-0.250	0.220	2.190
2020/01/31 12:31:40.3	111.480	-0.260	0.250	2.130
2020/01/31 12:31:40.4	111.490	-0.270	0.290	2.070
2020/01/31 12:31:40.5	111.490	-0.280	0.330	2.000
2020/01/31 12:31:40.6	111.490	-0.280	0.360	1.930
2020/01/31 12:31:40.7	111.490	-0.290	0.390	1.860
2020/01/31 12:31:40.8	111.490	-0.300	0.410	1.790
2020/01/31 12:31:40.9	111.490	-0.300	0.430	1.720
2020/01/31 12:31:41.0	111.480	-0.300	0.450	1.650
2020/01/31 12:31:41.1	111.480	-0.300	0.470	1.570
2020/01/31 12:31:41.2	111.480	-0.300	0.480	1.500
2020/01/31 12:31:41.3	111.470	-0.300	0.490	1.420
2020/01/31 12:31:41.4	111.470	-0.300	0.490	1.350
2020/01/31 12:31:41.5	111.480	-0.290	0.490	1.270
2020/01/31 12:31:41.6	111.470	-0.280	0.480	1.200
2020/01/31 12:31:41.7	111.470	-0.280	0.470	1.120
2020/01/31 12:31:41.8	111.460	-0.270	0.450	1.040
2020/01/31 12:31:41.9	111.460	-0.250	0.430	0.970
2020/01/31 12:31:42.0	111.450	-0.240	0.410	0.890
2020/01/31 12:31:42.1	111.440	-0.230	0.380	0.820
2020/01/31 12:31:42.2	111.440	-0.210	0.340	0.740
2020/01/31 12:31:42.3	111.430	-0.190	0.300	0.670
2020/01/31 12:31:42.4	111.430	-0.180	0.260	0.600
2020/01/31 12:31:42.5	111.420	-0.160	0.220	0.520
2020/01/31 12:31:42.6	111.420	-0.140	0.170	0.440
2020/01/31 12:31:42.7	111.420	-0.120	0.120	0.370
2020/01/31 12:31:42.8	111.420	-0.090	0.060	0.300
2020/01/31 12:31:42.9	111.420	-0.070	0.010	0.230
2020/01/31 12:31:43.0	111.420	-0.050	-0.050	0.150
2020/01/31 12:31:43.1	111.420	-0.020	-0.110	0.080
2020/01/31 12:31:43.2	111.420	0.000	-0.170	0.010
2020/01/31 12:31:43.3	111.420	0.020	-0.230	-0.050
2020/01/31 12:31:43.4	111.420	0.050	-0.290	-0.120
2020/01/31 12:31:43.5	111.410	0.070	-0.350	-0.190
2020/01/31 12:31:43.6	111.420	0.090	-0.400	-0.250
2020/01/31 12:31:43.7	111.420	0.120	-0.460	-0.320
2020/01/31 12:31:43.8	111.430	0.140	-0.510	-0.380
2020/01/31 12:31:43.9	111.430	0.160	-0.560	-0.440
2020/01/31 12:31:44.0	111.440	0.180	-0.610	-0.500
2020/01/31 12:31:44.1	111.450	0.200	-0.650	-0.550
2020/01/31 12:31:44.2	111.450	0.210	-0.690	-0.600
2020/01/31 12:31:44.3	111.460	0.230	-0.730	-0.650
2020/01/31 12:31:44.4	111.470	0.240	-0.760	-0.700
2020/01/31 12:31:44.5	111.460	0.250	-0.790	-0.740
2020/01/31 12:31:44.6	111.470	0.260	-0.810	-0.780
2020/01/31 12:31:44.7	111.470	0.270	-0.830	-0.820
2020/01/31 12:31:44.8	111.480	0.280	-0.840	-0.850
2020/01/31 12:31:44.9	111.480	0.280	-0.850	-0.870
2020/01/31 12:31:45.0	111.490	0.280	-0.850	-0.900
2020/01/31 12:31:45.1	111.490	0.280	-0.850	-0.910
2020/01/31 12:31:45.2	111.490	0.280	-0.840	-0.930
2020/01/31 12:31:45.3	111.490	0.280	-0.820	-0.930
2020/01/31 12:31:45.4	111.490	0.270	-0.810	-0.940
2020/01/31 12:31:45.5	111.490	0.270	-0.780	-0.930
2020/01/31 12:31:45.6	111.490	0.260	-0.750	-0.920
2020/01/31 12:31:45.7	111.490	0.250	-0.720	-0.910
2020/01/31 12:31:45.8	111.480	0.240	-0.680	-0.890
2020/01/31 12:31:45.9	111.470	0.230	-0.640	-0.870
2020/01/31 12:31:46.0	111.460	0.220	-0.600	-0.840
2020/01/31 12:31:46.1	111.450	0.210	-0.560	-0.800
2020/01/31 12:31:46.2	111.440	0.190	-0.510	-0.760
2020/01/31 12:31:46.3	111.430	0.180	-0.460	-0.710
2020/01/31 12:31:46.4	111.420	0.160	-0.410	-0.660
2020/01/31 12:31:46.5	111.400	0.150	-0.360	-0.600
2020/01/31 12:31:46.6	111.380	0.130	-0.300	-0.540
2020/01/31 12:31:46.7	111.360	0.120	-0.250	-0.480
2020/01/31 12:31:46.8	111.340	0.100	-0.200	-0.410
2020/01/31 12:31:46.9	111.330	0.090	-0.140	-0.340
2020/01/31 12:31:47.0	111.300	0.070	-0.090	-0.270
2020/01/31 12:31:47.1	111.280	0.060	-0.040	-0.190
2020/01/31 12:31:47.2	111.260	0.040	0.010	-0.110
2020/01/31 12:31:47.3	111.240	0.030	0.060	-0.030
2020/01/31 12:31:47.4	111.220	0.020	0.110	0.050
2020/01/31 12:31:47.5	111.200	0.010	0.150	0.140
2020/01/31 12:31:47.6	111.180	-0.010	0.190	0.230
2020/01/31 12:31:47.7	111.160	-0.020	0.230	0.310
2020/01/31 12:31:47.8	111.140	-0.030	0.260	0.400
2020/01/31 12:31:47.9	111.130	-0.030	0.290	0.490
2020/01/31 12:31:48.0	111.120	-0.040	0.320	0.570
2020/01/31 12:31:48.1	111.110	-0.050	0.340	0.660
2020/01/31 12:31:48.2	111.100	-0.050	0.350	0.740
2020/01/31 12:31:48.3	111.090	-0.060	0.370	0.820
2020/01/31 12:31:48.4	111.090	-0.060	0.370	0.900
2020/01/31 12:31:48.5	111.090	-0.060	0.380	0.980
2020/01/31 12:31:48.6	111.090	-0.060	0.380	1.060
2020/01/31 12:31:48.7	111.100	-0.060	0.370	1.130
2020/01/31 12:31:48.8	111.110	-0.060	0.360	1.200
2020/01/31 12:31:48.9	111.120	-0.060	0.350	1.270
2020/01/31 12:31:49.0	111.130	-0.060	0.330	1.330
2020/01/31 12:31:49.1	111.150	-0.060	0.310	1.390
2020/01/31 12:31:49.2	111.170	-0.050	0.290	1.450
2020/01/31 12:31:49.3	111.190	-0.050	0.260	1.510
2020/01/31 12:31:49.4	111.220	-0.040	0.230	1.560
2020/01/31 12:31:49.5	111.240	-0.040	0.200	1.610
2020/01/31 12:31:49.6	111.270	-0.040	0.170	1.650
2020/01/31 12:31:49.7	111.310	-0.030	0.140	1.700
2020/01/31 12:31:49.8	111.340	-0.030	0.100	1.740
2020/01/31 12:31:49.9	111.370	-0.030	0.070	1.780
2020/01/31 12:31:50.0	111.410	-0.020	0.030	1.820
2020/01/31 12:31:50.1	111.440	-0.020	0.000	1.850
2020/01/31 12:31:50.2	111.480	-0.020	-0.030	1.890
2020/01/31 12:31:50.3	111.520	-0.020	-0.060	1.920
2020/01/31 12:31:50.4	111.550	-0.020	-0.090	1.950
2020/01/31 12:31:50.5	111.580	-0.020	-0.110	1.980
2020/01/31 12:31:50.6	111.620	-0.020	-0.140	2.020
2020/01/31 12:31:50.7	111.650	-0.020	-0.160	2.050
2020/01/31 12:31:50.8	111.680	-0.020	-0.180	2.080
2020/01/31 12:31:50.9	111.700	-0.020	-0.200	2.110
2020/01/31 12:31:51.0	111.730	-0.030	-0.210	2.140
2020/01/31 12:31:51.1	111.750	-0.030	-0.230	2.170
2020/01/31 12:31:51.2	111.770	-0.040	-0.240	2.210
2020/01/31 12:31:51.3	111.790	-0.040	-0.250	2.240
2020/01/31 12:31:51.4	111.800	-0.050	-0.250	2.270
2020/01/31 12:31:51.5	111.810	-0.050	-0.260	2.300
2020/01/31 12:31:51.6	111.820	-0.060	-0.260	2.330
2020/01/31 12:31:51.7	111.830	-0.070	-0.260	2.360
2020/01/31 12:31:51.8	111.830	-0.070	-0.260	2.390
2020/01/31 12:31:51.9	111.820	-0.080	-0.260	2.430
2020/01/31 12:31:52.0	111.820	-0.080	-0.250	2.460
2020/01/31 12:31:52.1	111.810	-0.090	-0.250	2.490
2020/01/31 12:31:52.2	111.790	-0.090	-0.240	2.520
2020/01/31 12:31:52.3	111.770	-0.100	-0.230	2.540
2020/01/31 12:31:52.4	111.750	-0.100	-0.230	2.570
2020/01/31 12:31:52.5	111.730	-0.100	-0.220	2.600
2020/01/31 12:31:52.6	111.700	-0.100	-0.210	2.620
2020/01/31 12:31:52.7	111.670	-0.100	-0.210	2.640
2020/01/31 12:31:52.8	111.640	-0.100	-0.200	2.660
2020/01/31 12:31:52.9	111.610	-0.090	-0.200	2.670
2020/01/31 12:31:53.0	111.570	-0.090	-0.190	2.690
2020/01/31 12:31:53.1	111.530	-0.080	-0.190	2.700
2020/01/31 12:31:53.2	111.500	-0.080	-0.190	2.700
2020/01/31 12:31:53.3	111.460	-0.070	-0.190	2.710
2020/01/31 12:31:53.4	111.420	-0.060	-0.190	2.700
2020/01/31 12:31:53.5	111.370	-0.050	-0.200	2.690
2020/01/31 12:31:53.6	111.330	-0.040	-0.200	2.680
2020/01/31 12:31:53.7	111.300	-0.020	-0.210	2.670
2020/01/31 12:31:53.8	111.260	-0.010	-0.230	2.650
2020/01/31 12:31:53.9	111.230	0.000	-0.240	2.630
2020/01/31 12:31:54.0	111.200	0.020	-0.260	2.600
2020/01/31 12:31:54.1	111.170	0.030	-0.270	2.560
2020/01/31 12:31:54.2	111.140	0.050	-0.290	2.530
2020/01/31 12:31:54.3	111.110	0.060	-0.320	2.490
2020/01/31 12:31:54.4	111.090	0.080	-0.340	2.440
2020/01/31 12:31:54.5	111.070	0.090	-0.360	2.380
2020/01/31 12:31:54.6	111.050	0.110	-0.390	2.330
2020/01/31 12:31:54.7	111.030	0.120	-0.410	2.270
2020/01/31 12:31:54.8	111.020	0.130	-0.440	2.210
2020/01/31 12:31:54.9	111.010	0.150	-0.460	2.150
2020/01/31 12:31:55.0	111.000	0.160	-0.490	2.080
2020/01/31 12:31:55.1	111.000	0.170	-0.510	2.010
2020/01/31 12:31:55.2	111.000	0.180	-0.530	1.940
2020/01/31 12:31:55.3	111.000	0.180	-0.550	1.870
2020/01/31 12:31:55.4	111.000	0.190	-0.570	1.790
2020/01/31 12:31:55.5	111.020	0.190	-0.590	1.710
2020/01/31 12:31:55.6	111.030	0.200	-0.600	1.630
2020/01/31 12:31:55.7	111.040	0.200	-0.610	1.550
2020/01/31 12:31:55.8	111.050	0.200	-0.610	1.460
2020/01/31 12:31:55.9	111.070	0.190	-0.610	1.380
2020/01/31 12:31:56.0	111.080	0.190	-0.610	1.290
2020/01/31 12:31:56.1	111.100	0.180	-0.600	1.210
2020/01/31 12:31:56.2	111.110	0.170	-0.590	1.120
2020/01/31 12:31:56.3	111.130	0.160	-0.570	1.030
2020/01/31 12:31:56.4	111.150	0.150	-0.560	0.950
2020/01/31 12:31:56.5	111.170	0.130	-0.530	0.860
2020/01/31 12:31:56.6	111.180	0.120	-0.510	0.770
2020/01/31 12:31:56.7	111.200	0.100	-0.480	0.690
2020/01/31 12:31:56.8	111.210	0.080	-0.440	0.610
2020/01/31 12:31:56.9	111.220	0.060	-0.410	0.520
2020/01/31 12:31:57.0	111.230	0.040	-0.370	0.440
2020/01/31 12:31:57.1	111.240	0.020	-0.330	0.360
2020/01/31 12:31:57.2	111.250	0.000	-0.290	0.280
2020/01/31 12:31:57.3	111.260	-0.020	-0.240	0.210
2020/01/31 12:31:57.4	111.260	-0.040	-0.200	0.130
2020/01/31 12:31:57.5	111.250	-0.060	-0.150	0.060
2020/01/31 12:31:57.6	111.250	-0.080	-0.110	-0.010
2020/01/31 12:31:57.7	111.250	-0.110	-0.060	-0.070
2020/01/31 12:31:57.8	111.250	-0.130	-0.020	-0.140
2020/01/31 12:31:57.9	111.250	-0.150	0.030	-0.200
2020/01/31 12:31:58.0	111.240	-0.170	0.070	-0.250
2020/01/31 12:31:58.1	111.240	-0.180	0.110	-0.310
2020/01/31 12:31:58.2	111.230	-0.200	0.150	-0.360
2020/01/31 12:31:58.3	111.230	-0.220	0.190	-0.410
2020/01/31 12:31:58.4	111.220	-0.230	0.230	-0.450
2020/01/31 12:31:58.5	111.210	-0.250	0.260	-0.490
2020/01/31 12:31:58.6	111.210	-0.260	0.290	-0.530
2020/01/31 12:31:58.7	111.200	-0.270	0.320	-0.570
2020/01/31 12:31:58.8	111.190	-0.280	0.350	-0.610
2020/01/31 12:31:58.9	111.190	-0.290	0.370	-0.640
2020/01/31 12:31:59.0	111.180	-0.300	0.390	-0.670
2020/01/31 12:31:59.1	111.180	-0.300	0.400	-0.700
2020/01/31 12:31:59.2	111.170	-0.310	0.420	-0.720
2020/01/31 12:31:59.3	111.170	-0.310	0.420	-0.740
2020/01/31 12:31:59.4	111.170	-0.310	0.430	-0.760
2020/01/31 12:31:59.5	111.160	-0.310	0.420	-0.780
2020/01/31 12:31:59.6	111.160	-0.310	0.420	-0.790
2020/01/31 12:31:59.7	111.160	-0.300	0.410	-0.800
2020/01/31 12:31:59.8	111.160	-0.300	0.400	-0.810
2020/01/31 12:31:59.9	111.160	-0.290	0.380	-0.820
2020/01/31 12:32:00.0	111.160	-0.280	0.360	-0.820
2020/01/31 12:32:00.1	111.160	-0.270	0.330	-0.810
2020/01/31 12:32:00.2	111.160	-0.260	0.310	-0.810
2020/01/31 12:32:00.3	111.160	-0.240	0.270	-0.800
2020/01/31 12:32:00.4	111.160	-0.230	0.240	-0.780
2020/01/31 12:32:00.5	111.160	-0.210	0.200	-0.760
2020/01/31 12:32:00.6	111.160	-0.200	0.160	-0.740
2020/01/31 12:32:00.7	111.160	-0.180	0.120	-0.710
2020/01/31 12:32:00.8	111.170	-0.160	0.070	-0.680
2020/01/31 12:32:00.9	111.170	-0.140	0.030	-0.640
2020/01/31 12:32:01.0	111.170	-0.110	-0.020	-0.600
2020/01/31 12:32:01.1	111.170	-0.090	-0.070	-0.560
2020/01/31 12:32:01.2	111.170	-0.070	-0.120	-0.510
2020/01/31 12:32:01.3	111.160	-0.050	-0.170	-0.460
2020/01/31 12:32:01.4	111.160	-0.020	-0.220	-0.400
2020/01/31 12:32:01.5	111.160	0.000	-0.270	-0.340
2020/01/31 12:32:01.6	111.160	0.030	-0.320	-0.270
2020/01/31 12:32:01.7	111.160	0.060	-0.360	-0.210
2020/01/31 12:32:01.8	111.160	0.080	-0.410	-0.140
2020/01/31 12:32:01.9	111.150	0.110	-0.450	-0.070
2020/01/31 12:32:02.0	111.150	0.130	-0.490	0.010
2020/01/31 12:32:02.1	111.150	0.160	-0.530	0.080
2020/01/31 12:32:02.2	111.140	0.180	-0.560	0.160
2020/01/31 12:32:02.3	111.140	0.200	-0.590	0.240
2020/01/31 12:32:02.4	111.140	0.230	-0.620	0.320
2020/01/31 12:32:02.5	111.120	0.250	-0.640	0.400
2020/01/31 12:32:02.6	111.110	0.270	-0.660	0.490
2020/01/31 12:32:02.7	111.110	0.290	-0.670	0.570
2020/01/31 12:32:02.8	111.110	0.310	-0.680	0.650
2020/01/31 12:32:02.9	111.100	0.320	-0.690	0.730
2020/01/31 12:32:03.0	111.100	0.340	-0.690	0.810
2020/01/31 12:32:03.1	111.100	0.350	-0.690	0.890
2020/01/31 12:32:03.2	111.100	0.360	-0.680	0.960
2020/01/31 12:32:03.3	111.100	0.370	-0.670	1.040
2020/01/31 12:32:03.4	111.100	0.380	-0.650	1.110
2020/01/31 12:32:03.5	111.120	0.380	-0.640	1.190
2020/01/31 12:32:03.6	111.120	0.380	-0.620	1.250
2020/01/31 12:32:03.7	111.130	0.380	-0.590	1.320
2020/01/31 12:32:03.8	111.140	0.380	-0.560	1.380
2020/01/31 12:32:03.9	111.140	0.380	-0.530	1.450
2020/01/31 12:32:04.0	111.150	0.370	-0.490	1.500
2020/01/31 12:32:04.1	111.160	0.360	-0.460	1.560
2020/01/31 12:32:04.2	111.170	0.350	-0.420	1.620
2020/01/31 12:32:04.3	111.180	0.340	-0.380	1.670
2020/01/31 12:32:04.4	111.190	0.320	-0.330	1.720
2020/01/31 12:32:04.5	111.200	0.310	-0.290	1.770
2020/01/31 12:32:04.6	111.220	0.290	-0.240	1.810
2020/01/31 12:32:04.7	111.230	0.270	-0.190	1.860
2020/01/31 12:32:04.8	111.240	0.250	-0.150	1.900
2020/01/31 12:32:04.9	111.250	0.230	-0.100	1.940
2020/01/31 12:32:05.0	111.270	0.210	-0.050	1.980
2020/01/31 12:32:05.1	111.280	0.180	-0.010	2.020
2020/01/31 12:32:05.2	111.290	0.160	0.040	2.050
2020/01/31 12:32:05.3	111.300	0.130	0.090	2.090
2020/01/31 12:32:05.4	111.310	0.110	0.130	2.120
2020/01/31 12:32:05.5	111.320	0.080	0.170	2.160
2020/01/31 12:32:05.6	111.330	0.060	0.220	2.190
2020/01/31 12:32:05.7	111.330	0.030	0.250	2.210
2020/01/31 12:32:05.8	111.340	0.000	0.290	2.240
2020/01/31 12:32:05.9	111.340	-0.020	0.320	2.270
2020/01/31 12:32:06.0	111.340	-0.040	0.360	2.290
2020/01/31 12:32:06.1	111.340	-0.070	0.380	2.310
2020/01/31 12:32:06.2	111.340	-0.090	0.410	2.330
2020/01/31 12:32:06.3	111.340	-0.110	0.430	2.350
2020/01/31 12:32:06.4	111.340	-0.130	0.440	2.360
2020/01/31 12:32:06.5	111.340	-0.150	0.450	2.380
2020/01/31 12:32:06.6	111.340	-0.170	0.460	2.390
2020/01/31 12:32:06.7	111.330	-0.190	0.460	2.400
2020/01/31 12:32:06.8	111.320	-0.200	0.460	2.410
2020/01/31 12:32:06.9	111.310	-0.210	0.450	2.410
2020/01/31 12:32:07.0	111.300	-0.220	0.430	2.420
2020/01/31 12:32:07.1	111.290	-0.230	0.420	2.420
2020/01/31 12:32:07.2	111.280	-0.240	0.390	2.410
2020/01/31 12:32:07.3	111.270	-0.250	0.360	2.410
2020/01/31 12:32:07.4	111.260	-0.250	0.330	2.400
2020/01/31 12:32:07.5	111.240	-0.250	0.280	2.380
2020/01/31 12:32:07.6	111.230	-0.250	0.240	2.370
2020/01/31 12:32:07.7	111.220	-0.250	0.190	2.350
2020/01/31 12:32:07.8	111.200	-0.250	0.130	2.330
2020/01/31 12:32:07.9	111.190	-0.250	0.080	2.310
2020/01/31 12:32:08.0	111.180	-0.240	0.010	2.280
2020/01/31 12:32:08.1	111.170	-0.230	-0.050	2.250
2020/01/31 12:32:08.2	111.150	-0.220	-0.120	2.220
2020/01/31 12:32:08.3	111.140	-0.210	-0.190	2.190
2020/01/31 12:32:08.4	111.130	-0.200	-0.260	2.150
2020/01/31 12:32:08.5	111.120	-0.190	-0.340	2.110
2020/01/31 12:32:08.6	111.110	-0.180	-0.410	2.070
2020/01/31 12:32:08.7	111.100	-0.160	-0.490	2.030
2020/01/31 12:32:08.8	111.090	-0.150	-0.560	1.990
2020/01/31 12:32:08.9	111.080	-0.130	-0.630	1.950
2020/01/31 12:32:09.0	111.070	-0.120	-0.700	1.910
2020/01/31 12:32:09.1	111.060	-0.100	-0.770	1.870
2020/01/31 12:32:09.2	111.050	-0.080	-0.830	1.830
2020/01/31 12:32:09.3	111.050	-0.070	-0.890	1.790
2020/01/31 12:32:09.4	111.040	-0.050	-0.950	1.750
2020/01/31 12:32:09.5	111.020	-0.040	-1.000	1.710
2020/01/31 12:32:09.6	111.020	-0.020	-1.040	1.670
2020/01/31 12:32:09.7	111.020	-0.010	-1.080	1.630
2020/01/31 12:32:09.8	111.020	0.010	-1.110	1.590
2020/01/31 12:32:09.9	111.020	0.020	-1.130	1.550
2020/01/31 12:32:10.0	111.020	0.030	-1.150	1.510
2020/01/31 12:32:10.1	111.020	0.040	-1.160	1.470
2020/01/31 12:32:10.2	111.030	0.050	-1.160	1.430
2020/01/31 12:32:10.3	111.030	0.060	-1.150	1.390
2020/01/31 12:32:10.4	111.040	0.060	-1.140	1.350
2020/01/31 12:32:10.5	111.050	0.070	-1.120	1.300
2020/01/31 12:32:10.6	111.060	0.070	-1.090	1.260
2020/01/31 12:32:10.7	111.070	0.070	-1.050	1.220
2020/01/31 12:32:10.8	111.080	0.070	-1.010	1.170
2020/01/31 12:32:10.9	111.090	0.070	-0.970	1.130
2020/01/31 12:32:11.0	111.090	0.070	-0.910	1.080
2020/01/31 12:32:11.1	111.100	0.070	-0.850	1.030
2020/01/31 12:32:11.2	111.110	0.060	-0.790	0.990
2020/01/31 12:32:11.3	111.120	0.060	-0.720	0.940
2020/01/31 12:32:11.4	111.130	0.050	-0.640	0.890
2020/01/31 12:32:11.5	111.130	0.040	-0.570	0.840
2020/01/31 12:32:11.6	111.140	0.030	-0.490	0.780
2020/01/31 12:32:11.7	111.150	0.020	-0.400	0.730
2020/01/31 12:32:11.8	111.160	0.010	-0.320	0.670
2020/01/31 12:32:11.9	111.170	-0.000	-0.230	0.620
2020/01/31 12:32:12.0	111.180	-0.020	-0.140	0.560
2020/01/31 12:32:12.1	111.180	-0.030	-0.050	0.510
2020/01/31 12:32:12.2	111.190	-0.040	0.030	0.450
2020/01/31 12:32:12.3	111.200	-0.060	0.120	0.390
2020/01/31 12:32:12.4	111.210	-0.070	0.210	0.330
2020/01/31 12:32:12.5	111.220	-0.090	0.300	0.270
2020/01/31 12:32:12.6	111.230	-0.100	0.380	0.220
2020/01/31 12:32:12.7	111.240	-0.120	0.460	0.160
2020/01/31 12:32:12.8	111.250	-0.130	0.540	0.110
2020/01/31 12:32:12.9	111.260	-0.140	0.610	0.050
2020/01/31 12:32:13.0	111.270	-0.160	0.680	-0.000
2020/01/31 12:32:13.1	111.280	-0.170	0.740	-0.050
2020/01/31 12:32:13.2	111.280	-0.180	0.800	-0.100
2020/01/31 12:32:13.3	111.290	-0.190	0.860	-0.150
2020/01/31 12:32:13.4	111.300	-0.200	0.900	-0.200
2020/01/31 12:32:13.5	111.310	-0.210	0.940	-0.240
2020/01/31 12:32:13.6	111.320	-0.220	0.970	-0.280
2020/01/31 12:32:13.7	111.330	-0.220	1.000	-0.320
2020/01/31 12:32:13.8	111.330	-0.230	1.020	-0.360
2020/01/31 12:32:13.9	111.340	-0.230	1.030	-0.390
2020/01/31 12:32:14.0	111.350	-0.240	1.030	-0.420
2020/01/31 12:32:14.1	111.350	-0.240	1.020	-0.450
2020/01/31 12:32:14.2	111.350	-0.240	1.010	-0.480
2020/01/31 12:32:14.3	111.360	-0.230	0.990	-0.500
2020/01/31 12:32:14.4	111.360	-0.230	0.960	-0.510
2020/01/31 12:32:14.5	111.360	-0.220	0.930	-0.530
2020/01/31 12:32:14.6	111.360	-0.220	0.880	-0.540
2020/01/31 12:32:14.7	111.360	-0.210	0.830	-0.550
2020/01/31 12:32:14.8	111.360	-0.200	0.780	-0.550
2020/01/31 12:32:14.9	111.360	-0.190	0.710	-0.550
2020/01/31 12:32:15.0	111.360	-0.180	0.650	-0.550
2020/01/31 12:32:15.1	111.360	-0.170	0.570	-0.540
2020/01/31 12:32:15.2	111.350	-0.150	0.490	-0.530
2020/01/31 12:32:15.3	111.350	-0.140	0.410	-0.520
2020/01/31 12:32:15.4	111.340	-0.120	0.320	-0.500
2020/01/31 12:32:15.5	111.330	-0.110	0.230	-0.490
2020/01/31 12:32:15.6	111.320	-0.090	0.140	-0.460
2020/01/31 12:32:15.7	111.320	-0.070	0.050	-0.440
2020/01/31 12:32:15.8	111.310	-0.050	-0.050	-0.410
2020/01/31 12:32:15.9	111.310	-0.030	-0.150	-0.380
2020/01/31 12:32:16.0	111.300	-0.020	-0.240	-0.350
2020/01/31 12:32:16.1	111.300	0.000	-0.340	-0.310
2020/01/31 12:32:16.2	111.300	0.020	-0.440	-0.280
2020/01/31 12:32:16.3	111.290	0.040	-0.530	-0.240
2020/01/31 12:32:16.4	111.290	0.060	-0.620	-0.200
2020/01/31 12:32:16.5	111.300	0.080	-0.710	-0.160
2020/01/31 12:32:16.6	111.300	0.090	-0.790	-0.110
2020/01/31 12:32:16.7	111.300	0.110	-0.870	-0.070
2020/01/31 12:32:16.8	111.310	0.130	-0.950	-0.020
2020/01/31 12:32:16.9	111.310	0.150	-1.020	0.030
2020/01/31 12:32:17.0	111.320	0.160	-1.090	0.090
2020/01/31 12:32:17.1	111.330	0.180	-1.150	0.140
2020/01/31 12:32:17.2	111.340	0.190	-1.210	0.200
2020/01/31 12:32:17.3	111.350	0.210	-1.260	0.260
2020/01/31 12:32:17.4	111.360	0.220	-1.300	0.320
2020/01/31 12:32:17.5	111.370	0.230	-1.340	0.380
2020/01/31 12:32:17.6	111.390	0.240	-1.370	0.450
2020/01/31 12:32:17.7	111.400	0.250	-1.390	0.520
2020/01/31 12:32:17.8	111.410	0.260	-1.410	0.580
2020/01/31 12:32:17.9	111.430	0.270	-1.420	0.660
2020/01/31 12:32:18.0	111.440	0.280	-1.420	0.730
2020/01/31 12:32:18.1	111.450	0.290	-1.410	0.800
2020/01/31 12:32:18.2	111.470	0.290	-1.400	0.880
2020/01/31 12:32:18.3	111.480	0.290	-1.380	0.950
2020/01/31 12:32:18.4	111.490	0.300	-1.350	1.030
2020/01/31 12:32:18.5	111.490	0.300	-1.310	1.110
2020/01/31 12:32:18.6	111.500	0.300	-1.270	1.190
2020/01/31 12:32:18.7	111.510	0.290	-1.220	1.270
2020/01/31 12:32:18.8	111.510	0.290	-1.170	1.350
2020/01/31 12:32:18.9	111.510	0.280	-1.100	1.430
2020/01/31 12:32:19.0	111.510	0.280	-1.030	1.500
2020/01/31 12:32:19.1	111.500	0.270	-0.960	1.580
2020/01/31 12:32:19.2	111.500	0.260	-0.880	1.660
2020/01/31 12:32:19.3	111.490	0.250	-0.790	1.730
2020/01/31 12:32:19.4	111.480	0.230	-0.700	1.800
2020/01/31 12:32:19.5	111.480	0.220	-0.610	1.870
2020/01/31 12:32:19.6	111.460	0.200	-0.510	1.930
2020/01/31 12:32:19.7	111.450	0.180	-0.410	2.000
2020/01/31 12:32:19.8	111.430	0.160	-0.310	2.050
2020/01/31 12:32:19.9	111.420	0.140	-0.200	2.110
2020/01/31 12:32:20.0	111.400	0.110	-0.090	2.150
2020/01/31 12:32:20.1	111.380	0.090	0.010	2.200
2020/01/31 12:32:20.2	111.360	0.070	0.120	2.240
2020/01/31 12:32:20.3	111.350	0.040	0.230	2.270
2020/01/31 12:32:20.4	111.330	0.020	0.330	2.300
2020/01/31 12:32:20.5	111.320	-0.010	0.440	2.320
2020/01/31 12:32:20.6	111.300	-0.030	0.540	2.340
2020/01/31 12:32:20.7	111.280	-0.050	0.640	2.360
2020/01/31 12:32:20.8	111.270	-0.080	0.730	2.370
2020/01/31 12:32:20.9	111.250	-0.100	0.810	2.370
2020/01/31 12:32:21.0	111.240	-0.120	0.880	2.370
2020/01/31 12:32:21.1	111.220	-0.140	0.950	2.360
2020/01/31 12:32:21.2	111.210	-0.160	1.010	2.350
2020/01/31 12:32:21.3	111.200	-0.170	1.060	2.330
2020/01/31 12:32:21.4	111.190	-0.180	1.110	2.310
2020/01/31 12:32:21.5	111.200	-0.190	1.140	2.280
2020/01/31 12:32:21.6	111.190	-0.200	1.160	2.250
2020/01/31 12:32:21.7	111.180	-0.210	1.170	2.220
2020/01/31 12:32:21.8	111.180	-0.210	1.170	2.180
2020/01/31 12:32:21.9	111.180	-0.210	1.170	2.140
2020/01/31 12:32:22.0	111.180	-0.210	1.150	2.090
2020/01/31 12:32:22.1	111.180	-0.200	1.120	2.040
2020/01/31 12:32:22.2	111.190	-0.190	1.080	1.990
2020/01/31 12:32:22.3	111.190	-0.180	1.030	1.940
2020/01/31 12:32:22.4	111.200	-0.160	0.980	1.880
2020/01/31 12:32:22.5	111.230	-0.150	0.920	1.820
2020/01/31 12:32:22.6	111.240	-0.130	0.840	1.750
2020/01/31 12:32:22.7	111.250	-0.110	0.770	1.690
2020/01/31 12:32:22.8	111.270	-0.080	0.680	1.620
2020/01/31 12:32:22.9	111.290	-0.060	0.590	1.550
2020/01/31 12:32:23.0	111.310	-0.030	0.490	1.480
2020/01/31 12:32:23.1	111.330	-0.000	0.390	1.410
2020/01/31 12:32:23.2	111.350	0.020	0.290	1.340
2020/01/31 12:32:23.3	111.370	0.050	0.180	1.270
2020/01/31 12:32:23.4	111.400	0.080	0.080	1.190
2020/01/31 12:32:23.5	111.420	0.110	-0.030	1.110
2020/01/31 12:32:23.6	111.450	0.140	-0.140	1.040
2020/01/31 12:32:23.7	111.470	0.160	-0.250	0.960
2020/01/31 12:32:23.8	111.500	0.190	-0.350	0.890
2020/01/31 12:32:23.9	111.520	0.220	-0.450	0.820
2020/01/31 12:32:24.0	111.550	0.240	-0.550	0.750
2020/01/31 12:32:24.1	111.570	0.260	-0.650	0.680
2020/01/31 12:32:24.2	111.590	0.280	-0.740	0.620
2020/01/31 12:32:24.3	111.610	0.300	-0.820	0.550
2020/01/31 12:32:24.4	111.630	0.310	-0.900	0.490
2020/01/31 12:32:24.5	111.640	0.330	-0.970	0.430
2020/01/31 12:32:24.6	111.660	0.340	-1.040	0.380
2020/01/31 12:32:24.7	111.670	0.340	-1.100	0.330
2020/01/31 12:32:24.8	111.680	0.350	-1.150	0.280
2020/01/31 12:32:24.9	111.690	0.350	-1.200	0.240
2020/01/31 12:32:25.0	111.690	0.350	-1.230	0.200
2020/01/31 12:32:25.1	111.690	0.340	-1.260	0.170
2020/01/31 12:32:25.2	111.690	0.340	-1.290	0.140
2020/01/31 12:32:25.3	111.690	0.320	-1.300	0.120
2020/01/31 12:32:25.4	111.680	0.310	-1.310	0.100
2020/01/31 12:32:25.5	111.660	0.290	-1.310	0.080
2020/01/31 12:32:25.6	111.650	0.280	-1.300	0.070
2020/01/31 12:32:25.7	111.640	0.250	-1.280	0.060
2020/01/31 12:32:25.8	111.620	0.230	-1.260	0.060
2020/01/31 12:32:25.9	111.610	0.200	-1.230	0.070
2020/01/31 12:32:26.0	111.590	0.170	-1.200	0.070
2020/01/31 12:32:26.1	111.570	0.140	-1.150	0.090
2020/01/31 12:32:26.2	111.550	0.110	-1.110	0.100
2020/01/31 12:32:26.3	111.530	0.070	-1.050	0.120
2020/01/31 12:32:26.4	111.510	0.040	-0.990	0.150
2020/01/31 12:32:26.5	111.470	-0.000	-0.930	0.170
2020/01/31 12:32:26.6	111.450	-0.040	-0.860	0.200
2020/01/31 12:32:26.7	111.430	-0.080	-0.800	0.230
2020/01/31 12:32:26.8	111.400	-0.120	-0.720	0.270
2020/01/31 12:32:26.9	111.380	-0.160	-0.650	0.300
2020/01/31 12:32:27.0	111.360	-0.200	-0.580	0.340
2020/01/31 12:32:27.1	111.340	-0.240	-0.500	0.380
2020/01/31 12:32:27.2	111.320	-0.280	-0.420	0.420
2020/01/31 12:32:27.3	111.300	-0.320	-0.350	0.460
2020/01/31 12:32:27.4	111.290	-0.360	-0.280	0.500
2020/01/31 12:32:27.5	111.280	-0.390	-0.200	0.550
2020/01/31 12:32:27.6	111.260	-0.430	-0.130	0.590
2020/01/31 12:32:27.7	111.250	-0.460	-0.060	0.640
2020/01/31 12:32:27.8	111.240	-0.490	0.010	0.680
2020/01/31 12:32:27.9	111.240	-0.520	0.070	0.720
2020/01/31 12:32:28.0	111.230	-0.540	0.130	0.760
2020/01/31 12:32:28.1	111.230	-0.570	0.190	0.800
2020/01/31 12:32:28.2	111.220	-0.590	0.250	0.840
2020/01/31 12:32:28.3	111.220	-0.610	0.300	0.880
2020/01/31 12:32:28.4	111.220	-0.620	0.350	0.910
2020/01/31 12:32:28.5	111.230	-0.630	0.400	0.950
2020/01/31 12:32:28.6	111.230	-0.640	0.440	0.980
2020/01/31 12:32:28.7	111.240	-0.650	0.480	1.020
2020/01/31 12:32:28.8	111.240	-0.650	0.510	1.050
2020/01/31 12:32:28.9	111.250	-0.650	0.540	1.080
2020/01/31 12:32:29.0	111.260	-0.650	0.570	1.120
2020/01/31 12:32:29.1	111.270	-0.640	0.590	1.150
2020/01/31 12:32:29.2	111.280	-0.630	0.610	1.180
2020/01/31 12:32:29.3	111.290	-0.620	0.630	1.210
2020/01/31 12:32:29.4	111.290	-0.610	0.640	1.230
2020/01/31 12:32:29.5	111.310	-0.590	0.660	1.260
2020/01/31 12:32:29.6	111.320	-0.580	0.660	1.280
2020/01/31 12:32:29.7	111.330	-0.550	0.660	1.300
2020/01/31 12:32:29.8	111.340	-0.530	0.660	1.330
2020/01/31 12:32:29.9	111.340	-0.510	0.660	1.340
2020/01/31 12:32:30.0	111.350	-0.480	0.650	1.360
2020/01/31 12:32:30.1	111.360	-0.460	0.640	1.380
2020/01/31 12:32:30.2	111.370	-0.430	0.620	1.390
2020/01/31 12:32:30.3	111.370	-0.400	0.600	1.400
2020/01/31 12:32:30.4	111.380	-0.370	0.580	1.400
2020/01/31 12:32:30.5	111.400	-0.340	0.560	1.410
2020/01/31 12:32:30.6	111.400	-0.310	0.530	1.410
2020/01/31 12:32:30.7	111.410	-0.280	0.500	1.410
2020/01/31 12:32:30.8	111.420	-0.240	0.460	1.400
2020/01/31 12:32:30.9	111.430	-0.210	0.420	1.390
2020/01/31 12:32:31.0	111.440	-0.180	0.380	1.380
2020/01/31 12:32:31.1	111.450	-0.150	0.340	1.370
2020/01/31 12:32:31.2	111.460	-0.110	0.300	1.350
2020/01/31 12:32:31.3	111.470	-0.080	0.250	1.330
2020/01/31 12:32:31.4	111.490	-0.050	0.200	1.310
2020/01/31 12:32:31.5	111.490	-0.020	0.150	1.280
2020/01/31 12:32:31.6	111.510	0.010	0.100	1.250
2020/01/31 12:32:31.7	111.530	0.040	0.040	1.220
2020/01/31 12:32:31.8	111.550	0.070	-0.010	1.190
2020/01/31 12:32:31.9	111.570	0.100	-0.070	1.160
2020/01/31 12:32:32.0	111.590	0.130	-0.130	1.120
2020/01/31 12:32:32.1	111.610	0.160	-0.180	1.090
2020/01/31 12:32:32.2	111.630	0.190	-0.240	1.050
2020/01/31 12:32:32.3	111.650	0.220	-0.300	1.020
2020/01/31 12:32:32.4	111.670	0.250	-0.350	0.990
2020/01/31 12:32:32.5	111.700	0.270	-0.410	0.960
2020/01/31 12:32:32.6	111.720	0.300	-0.460	0.930
2020/01/31 12:32:32.7	111.730	0.330	-0.510	0.900
2020/01/31 12:32:32.8	111.750	0.350	-0.560	0.880
2020/01/31 12:32:32.9	111.760	0.380	-0.610	0.860
2020/01/31 12:32:33.0	111.770	0.400	-0.660	0.840
2020/01/31 12:32:33.1	111.770	0.430	-0.700	0.830
2020/01/31 12:32:33.2	111.780	0.450	-0.740	0.810
2020/01/31 12:32:33.3	111.780	0.470	-0.770	0.810
2020/01/31 12:32:33.4	111.770	0.500	-0.800	0.800
2020/01/31 12:32:33.5	111.760	0.520	-0.830	0.790
2020/01/31 12:32:33.6	111.750	0.540	-0.850	0.790
2020/01/31 12:32:33.7	111.740	0.550	-0.870	0.790
2020/01/31 12:32:33.8	111.730	0.570	-0.880	0.800
2020/01/31 12:32:33.9	111.720	0.580	-0.890	0.800
2020/01/31 12:32:34.0	111.710	0.600	-0.890	0.810
2020/01/31 12:32:34.1	111.690	0.610	-0.890	0.820
2020/01/31 12:32:34.2	111.680	0.620	-0.880	0.830
2020/01/31 12:32:34.3	111.660	0.630	-0.870	0.840
2020/01/31 12:32:34.4	111.640	0.630	-0.850	0.850
2020/01/31 12:32:34.5	111.630	0.630	-0.830	0.860
2020/01/31 12:32:34.6	111.610	0.630	-0.810	0.880
2020/01/31 12:32:34.7	111.590	0.630	-0.780	0.890
2020/01/31 12:32:34.8	111.570	0.630	-0.750	0.910
2020/01/31 12:32:34.9	111.550	0.620	-0.710	0.920
2020/01/31 12:32:35.0	111.530	0.620	-0.680	0.940
2020/01/31 12:32:35.1	111.510	0.610	-0.640	0.960
2020/01/31 12:32:35.2	111.490	0.590	-0.590	0.970
2020/01/31 12:32:35.3	111.470	0.580	-0.550	0.990
2020/01/31 12:32:35.4	111.450	0.560	-0.500	1.010
2020/01/31 12:32:35.5	111.430	0.540	-0.450	1.020
2020/01/31 12:32:35.6	111.410	0.520	-0.410	1.040
2020/01/31 12:32:35.7	111.400	0.500	-0.360	1.050
2020/01/31 12:32:35.8	111.380	0.480	-0.300	1.070
2020/01/31 12:32:35.9	111.360	0.460	-0.250	1.080
2020/01/31 12:32:36.0	111.350	0.430	-0.200	1.090
2020/01/31 12:32:36.1	111.330	0.400	-0.150	1.100
2020/01/31 12:32:36.2	111.320	0.380	-0.110	1.110
2020/01/31 12:32:36.3	111.310	0.350	-0.060	1.120
2020/01/31 12:32:36.4	111.290	0.320	-0.010	1.120
2020/01/31 12:32:36.5	111.270	0.290	0.030	1.130
2020/01/31 12:32:36.6	111.260	0.260	0.070	1.130
2020/01/31 12:32:36.7	111.250	0.230	0.110	1.140
2020/01/31 12:32:36.8	111.240	0.210	0.150	1.140
2020/01/31 12:32:36.9	111.230	0.180	0.180	1.140
2020/01/31 12:32:37.0	111.220	0.150	0.210	1.140
2020/01/31 12:32:37.1	111.210	0.120	0.240	1.140
2020/01/31 12:32:37.2	111.200	0.090	0.260	1.140
2020/01/31 12:32:37.3	111.200	0.070	0.270	1.140
2020/01/31 12:32:37.4	111.200	0.040	0.290	1.130
2020/01/31 12:32:37.5	111.190	0.020	0.300	1.130
2020/01/31 12:32:37.6	111.190	-0.010	0.300	1.120
2020/01/31 12:32:37.7	111.190	-0.030	0.300	1.110
2020/01/31 12:32:37.8	111.190	-0.050	0.300	1.110
2020/01/31 12:32:37.9	111.200	-0.070	0.290	1.100
2020/01/31 12:32:38.0	111.200	-0.090	0.280	1.090
2020/01/31 12:32:38.1	111.210	-0.110	0.270	1.070
2020/01/31 12:32:38.2	111.220	-0.130	0.250	1.060
2020/01/31 12:32:38.3	111.230	-0.150	0.230	1.050
2020/01/31 12:32:38.4	111.240	-0.160	0.200	1.030
2020/01/31 12:32:38.5	111.260	-0.180	0.170	1.020
2020/01/31 12:32:38.6	111.280	-0.190	0.140	1.000
2020/01/31 12:32:38.7	111.300	-0.210	0.110	0.980
2020/01/31 12:32:38.8	111.320	-0.220	0.080	0.960
2020/01/31 12:32:38.9	111.350	-0.230	0.050	0.950
2020/01/31 12:32:39.0	111.370	-0.240	0.010	0.930
2020/01/31 12:32:39.1	111.400	-0.250	-0.030	0.910
2020/01/31 12:32:39.2	111.430	-0.260	-0.060	0.890
2020/01/31 12:32:39.3	111.460	-0.270	-0.090	0.870
2020/01/31 12:32:39.4	111.490	-0.280	-0.130	0.860
2020/01/31 12:32:39.5	111.530	-0.290	-0.160	0.840
2020/01/31 12:32:39.6	111.560	-0.290	-0.190	0.830
2020/01/31 12:32:39.7	111.590	-0.300	-0.220	0.810
2020/01/31 12:32:39.8	111.620	-0.310	-0.240	0.800
2020/01/31 12:32:39.9	111.640	-0.310	-0.270	0.790
2020/01/31 12:32:40.0	111.670	-0.320	-0.290	0.780
2020/01/31 12:32:40.1	111.700	-0.320	-0.310	0.780
2020/01/31 12:32:40.2	111.720	-0.330	-0.320	0.780
2020/01/31 12:32:40.3	111.740	-0.330	-0.330	0.780
2020/01/31 12:32:40.4	111.760	-0.340	-0.340	0.780
2020/01/31 12:32:40.5	111.780	-0.340	-0.340	0.780
2020/01/31 12:32:40.6	111.800	-0.350	-0.350	0.790
2020/01/31 12:32:40.7	111.810	-0.350	-0.340	0.800
2020/01/31 12:32:40.8	111.820	-0.350	-0.340	0.810
2020/01/31 12:32:40.9	111.830	-0.360	-0.330	0.820
2020/01/31 12:32:41.0	111.830	-0.360	-0.320	0.840
2020/01/31 12:32:41.1	111.830	-0.360	-0.310	0.860
2020/01/31 12:32:41.2	111.830	-0.360	-0.300	0.880
2020/01/31 12:32:41.3	111.830	-0.370	-0.280	0.900
2020/01/31 12:32:41.4	111.820	-0.370	-0.270	0.930
2020/01/31 12:32:41.5	111.810	-0.370	-0.250	0.960
2020/01/31 12:32:41.6	111.800	-0.370	-0.230	0.990
2020/01/31 12:32:41.7	111.780	-0.370	-0.210	1.010
2020/01/31 12:32:41.8	111.770	-0.370	-0.190	1.050
2020/01/31 12:32:41.9	111.750	-0.370	-0.180	1.080
2020/01/31 12:32:42.0	111.720	-0.370	-0.160	1.110
2020/01/31 12:32:42.1	111.700	-0.360	-0.140	1.140
2020/01/31 12:32:42.2	111.680	-0.360	-0.130	1.170
2020/01/31 12:32:42.3	111.650	-0.360	-0.110	1.210
2020/01/31 12:32:42.4	111.630	-0.350	-0.100	1.240
2020/01/31 12:32:42.5	111.590	-0.350	-0.090	1.270
2020/01/31 12:32:42.6	111.560	-0.340	-0.080	1.290
2020/01/31 12:32:42.7	111.530	-0.330	-0.080	1.320
2020/01/31 12:32:42.8	111.510	-0.320	-0.070	1.340
2020/01/31 12:32:42.9	111.480	-0.310	-0.070	1.370
2020/01/31 12:32:43.0	111.450	-0.300	-0.070	1.390
2020/01/31 12:32:43.1	111.420	-0.290	-0.080	1.400
2020/01/31 12:32:43.2	111.400	-0.270	-0.090	1.420
2020/01/31 12:32:43.3	111.370	-0.260	-0.100	1.430
2020/01/31 12:32:43.4	111.350	-0.240	-0.110	1.430
2020/01/31 12:32:43.5	111.320	-0.220	-0.120	1.440
2020/01/31 12:32:43.6	111.300	-0.210	-0.140	1.440
2020/01/31 12:32:43.7	111.280	-0.190	-0.160	1.440
2020/01/31 12:32:43.8	111.270	-0.160	-0.180	1.430
2020/01/31 12:32:43.9	111.250	-0.140	-0.210	1.420
2020/01/31 12:32:44.0	111.240	-0.120	-0.230	1.410
2020/01/31 12:32:44.1	111.230	-0.100	-0.260	1.390
2020/01/31 12:32:44.2	111.220	-0.070	-0.280	1.380
2020/01/31 12:32:44.3	111.220	-0.050	-0.300	1.350
2020/01/31 12:32:44.4	111.220	-0.020	-0.330	1.330
2020/01/31 12:32:44.5	111.240	0.000	-0.350	1.300
2020/01/31 12:32:44.6	111.250	0.030	-0.370	1.260
2020/01/31 12:32:44.7	111.260	0.050	-0.390	1.230
2020/01/31 12:32:44.8	111.270	0.070	-0.410	1.190
2020/01/31 12:32:44.9	111.280	0.100	-0.420	1.150
2020/01/31 12:32:45.0	111.300	0.120	-0.430	1.110
2020/01/31 12:32:45.1	111.320	0.140	-0.440	1.070
2020/01/31 12:32:45.2	111.340	0.160	-0.440	1.020
2020/01/31 12:32:45.3	111.370	0.180	-0.440	0.970
2020/01/31 12:32:45.4	111.390	0.200	-0.440	0.920
2020/01/31 12:32:45.5	111.420	0.220	-0.430	0.880
2020/01/31 12:32:45.6	111.450	0.240	-0.420	0.830
2020/01/31 12:32:45.7	111.480	0.250	-0.400	0.780
2020/01/31 12:32:45.8	111.510	0.260	-0.380	0.730
2020/01/31 12:32:45.9	111.540	0.270	-0.350	0.680
2020/01/31 12:32:46.0	111.570	0.280	-0.330	0.630
2020/01/31 12:32:46.1	111.600	0.290	-0.290	0.590
2020/01/31 12:32:46.2	111.630	0.300	-0.260	0.550
2020/01/31 12:32:46.3	111.660	0.300	-0.220	0.500
2020/01/31 12:32:46.4	111.690	0.310	-0.180	0.460
2020/01/31 12:32:46.5	111.710	0.310	-0.140	0.420
2020/01/31 12:32:46.6	111.730	0.310	-0.100	0.390
2020/01/31 12:32:46.7	111.760	0.310	-0.060	0.360
2020/01/31 12:32:46.8	111.780	0.310	-0.020	0.330
2020/01/31 12:32:46.9	111.800	0.310	0.020	0.300
2020/01/31 12:32:47.0	111.820	0.300	0.060	0.280
2020/01/31 12:32:47.1	111.840	0.300	0.100	0.250
2020/01/31 12:32:47.2	111.850	0.300	0.140	0.240
2020/01/31 12:32:47.3	111.870	0.290	0.170	0.220
2020/01/31 12:32:47.4	111.880	0.280	0.210	0.210
2020/01/31 12:32:47.5	111.890	0.280	0.230	0.190
2020/01/31 12:32:47.6	111.890	0.270	0.260	0.180
2020/01/31 12:32:47.7	111.900	0.260	0.280	0.180
2020/01/31 12:32:47.8	111.900	0.260	0.300	0.170
2020/01/31 12:32:47.9	111.900	0.250	0.320	0.170
2020/01/31 12:32:48.0	111.900	0.240	0.330	0.170
2020/01/31 12:32:48.1	111.900	0.230	0.340	0.170
2020/01/31 12:32:48.2	111.900	0.230	0.350	0.170
2020/01/31 12:32:48.3	111.890	0.220	0.350	0.180
2020/01/31 12:32:48.4	111.890	0.210	0.350	0.180
2020/01/31 12:32:48.5	111.880	0.200	0.350	0.190
2020/01/31 12:32:48.6	111.870	0.200	0.340	0.200
2020/01/31 12:32:48.7	111.860	0.190	0.330	0.210
2020/01/31 12:32:48.8	111.860	0.180	0.320	0.220
2020/01/31 12:32:48.9	111.850	0.170	0.310	0.240
2020/01/31 12:32:49.0	111.840	0.160	0.290	0.250
2020/01/31 12:32:49.1	111.830	0.150	0.270	0.270
2020/01/31 12:32:49.2	111.810	0.150	0.250	0.290
2020/01/31 12:32:49.3	111.800	0.140	0.220	0.310
2020/01/31 12:32:49.4	111.790	0.130	0.190	0.330
2020/01/31 12:32:49.5	111.770	0.120	0.170	0.350
2020/01/31 12:32:49.6	111.760	0.110	0.130	0.380
2020/01/31 12:32:49.7	111.750	0.100	0.100	0.410
2020/01/31 12:32:49.8	111.740	0.100	0.060	0.440
2020/01/31 12:32:49.9	111.730	0.090	0.020	0.470
2020/01/31 12:32:50.0	111.720	0.080	-0.020	0.500
2020/01/31 12:32:50.1	111.710	0.070	-0.060	0.540
2020/01/31 12:32:50.2	111.700	0.070	-0.110	0.580
2020/01/31 12:32:50.3	111.690	0.060	-0.150	0.620
2020/01/31 12:32:50.4	111.680	0.060	-0.200	0.660
2020/01/31 12:32:50.5	111.690	0.050	-0.250	0.710
2020/01/31 12:32:50.6	111.680	0.040	-0.300	0.750
2020/01/31 12:32:50.7	111.670	0.040	-0.350	0.800
2020/01/31 12:32:50.8	111.670	0.030	-0.400	0.850
2020/01/31 12:32:50.9	111.660	0.030	-0.450	0.900
2020/01/31 12:32:51.0	111.650	0.030	-0.500	0.960
2020/01/31 12:32:51.1	111.640	0.020	-0.540	1.010
2020/01/31 12:32:51.2	111.630	0.020	-0.590	1.070
2020/01/31 12:32:51.3	111.620	0.020	-0.640	1.120
2020/01/31 12:32:51.4	111.610	0.010	-0.680	1.180
2020/01/31 12:32:51.5	111.590	0.010	-0.720	1.240
2020/01/31 12:32:51.6	111.580	0.010	-0.760	1.300
2020/01/31 12:32:51.7	111.570	0.010	-0.800	1.360
2020/01/31 12:32:51.8	111.560	0.010	-0.830	1.420
2020/01/31 12:32:51.9	111.540	0.010	-0.860	1.470
2020/01/31 12:32:52.0	111.530	0.010	-0.890	1.530
2020/01/31 12:32:52.1	111.520	0.010	-0.910	1.590
2020/01/31 12:32:52.2	111.510	0.010	-0.930	1.650
2020/01/31 12:32:52.3	111.490	0.010	-0.940	1.700
2020/01/31 12:32:52.4	111.480	0.010	-0.950	1.760
2020/01/31 12:32:52.5	111.480	0.010	-0.960	1.810
2020/01/31 12:32:52.6	111.470	0.010	-0.960	1.860
2020/01/31 12:32:52.7	111.450	0.010	-0.950	1.910
2020/01/31 12:32:52.8	111.440	0.010	-0.940	1.950
2020/01/31 12:32:52.9	111.440	0.010	-0.930	1.990
2020/01/31 12:32:53.0	111.430	0.010	-0.910	2.030
2020/01/31 12:32:53.1	111.420	0.000	-0.880	2.060
2020/01/31 12:32:53.2	111.420	0.000	-0.860	2.100
2020/01/31 12:32:53.3	111.410	0.000	-0.820	2.120
2020/01/31 12:32:53.4	111.410	-0.000	-0.780	2.150
2020/01/31 12:32:53.5	111.420	-0.010	-0.740	2.160
2020/01/31 12:32:53.6	111.420	-0.010	-0.690	2.180
2020/01/31 12:32:53.7	111.420	-0.010	-0.640	2.190
2020/01/31 12:32:53.8	111.420	-0.020	-0.590	2.200
2020/01/31 12:32:53.9	111.420	-0.030	-0.530	2.210
2020/01/31 12:32:54.0	111.430	-0.030	-0.470	2.220
2020/01/31 12:32:54.1	111.430	-0.040	-0.410	2.220
2020/01/31 12:32:54.2	111.440	-0.050	-0.350	2.210
2020/01/31 12:32:54.3	111.450	-0.060	-0.280	2.210
2020/01/31 12:32:54.4	111.460	-0.070	-0.210	2.200
2020/01/31 12:32:54.5	111.470	-0.080	-0.150	2.200
2020/01/31 12:32:54.6	111.490	-0.090	-0.080	2.180
2020/01/31 12:32:54.7	111.500	-0.100	-0.010	2.170
2020/01/31 12:32:54.8	111.510	-0.110	0.050	2.150
2020/01/31 12:32:54.9	111.530	-0.120	0.120	2.130
2020/01/31 12:32:55.0	111.550	-0.130	0.180	2.100
2020/01/31 12:32:55.1	111.570	-0.150	0.240	2.070
2020/01/31 12:32:55.2	111.590	-0.160	0.300	2.040
2020/01/31 12:32:55.3	111.610	-0.170	0.350	2.010
2020/01/31 12:32:55.4	111.630	-0.190	0.400	1.980
2020/01/31 12:32:55.5	111.660	-0.200	0.450	1.940
2020/01/31 12:32:55.6	111.690	-0.210	0.490	1.900
2020/01/31 12:32:55.7	111.720	-0.220	0.530	1.850
2020/01/31 12:32:55.8	111.740	-0.230	0.560	1.810
2020/01/31 12:32:55.9	111.770	-0.240	0.590	1.760
2020/01/31 12:32:56.0	111.800	-0.250	0.610	1.710
2020/01/31 12:32:56.1	111.830	-0.250	0.630	1.660
2020/01/31 12:32:56.2	111.860	-0.260	0.640	1.610
2020/01/31 12:32:56.3	111.880	-0.260	0.640	1.560
2020/01/31 12:32:56.4	111.910	-0.270	0.640	1.500
2020/01/31 12:32:56.5	111.950	-0.270	0.640	1.440
2020/01/31 12:32:56.6	111.980	-0.270	0.620	1.380
2020/01/31 12:32:56.7	112.000	-0.260	0.600	1.330
2020/01/31 12:32:56.8	112.020	-0.260	0.580	1.270
2020/01/31 12:32:56.9	112.050	-0.250	0.550	1.210
2020/01/31 12:32:57.0	112.070	-0.240	0.520	1.150
2020/01/31 12:32:57.1	112.080	-0.230	0.480	1.090
2020/01/31 12:32:57.2	112.100	-0.220	0.440	1.040
2020/01/31 12:32:57.3	112.110	-0.200	0.390	0.980
2020/01/31 12:32:57.4	112.120	-0.190	0.340	0.920
2020/01/31 12:32:57.5	112.120	-0.170	0.290	0.860
2020/01/31 12:32:57.6	112.130	-0.150	0.240	0.810
2020/01/31 12:32:57.7	112.130	-0.130	0.180	0.760
2020/01/31 12:32:57.8	112.140	-0.110	0.130	0.710
2020/01/31 12:32:57.9	112.140	-0.080	0.070	0.660
2020/01/31 12:32:58.0	112.130	-0.060	0.020	0.610
2020/01/31 12:32:58.1	112.130	-0.040	-0.040	0.570
2020/01/31 12:32:58.2	112.130	-0.010	-0.090	0.530
2020/01/31 12:32:58.3	112.120	0.010	-0.140	0.490
2020/01/31 12:32:58.4	112.110	0.040	-0.190	0.450
2020/01/31 12:32:58.5	112.100	0.060	-0.240	0.400
2020/01/31 12:32:58.6	112.080	0.090	-0.280	0.370
2020/01/31 12:32:58.7	112.070	0.110	-0.330	0.340
2020/01/31 12:32:58.8	112.050	0.130	-0.370	0.310
2020/01/31 12:32:58.9	112.040	0.150	-0.400	0.280
2020/01/31 12:32:59.0	112.020	0.170	-0.430	0.250
2020/01/31 12:32:59.1	112.000	0.180	-0.460	0.230
2020/01/31 12:32:59.2	111.980	0.200	-0.490	0.210
2020/01/31 12:32:59.3	111.960	0.210	-0.500	0.190
2020/01/31 12:32:59.4	111.940	0.220	-0.520	0.180
2020/01/31 12:32:59.5	111.900	0.230	-0.530	0.160
2020/01/31 12:32:59.6	111.880	0.230	-0.540	0.150
2020/01/31 12:32:59.7	111.860	0.240	-0.550	0.150
2020/01/31 12:32:59.8	111.840	0.240	-0.550	0.150
2020/01/31 12:32:59.9	111.810	0.240	-0.540	0.150
2020/01/31 12:33:00.0	111.790	0.230	-0.540	0.150
2020/01/31 12:33:00.1	111.770	0.220	-0.530	0.160
2020/01/31 12:33:00.2	111.750	0.210	-0.520	0.170
2020/01/31 12:33:00.3	111.740	0.200	-0.500	0.180
2020/01/31 12:33:00.4	111.720	0.190	-0.480	0.200
2020/01/31 12:33:00.5	111.690	0.170	-0.460	0.220
2020/01/31 12:33:00.6	111.680	0.150	-0.430	0.240
2020/01/31 12:33:00.7	111.670	0.130	-0.410	0.260
2020/01/31 12:33:00.8	111.660	0.110	-0.380	0.290
2020/01/31 12:33:00.9	111.650	0.090	-0.350	0.310
2020/01/31 12:33:01.0	111.640	0.070	-0.320	0.340
2020/01/31 12:33:01.1	111.640	0.050	-0.290	0.370
2020/01/31 12:33:01.2	111.640	0.020	-0.270	0.400
2020/01/31 12:33:01.3	111.640	-0.000	-0.240	0.430
2020/01/31 12:33:01.4	111.640	-0.030	-0.210	0.470
2020/01/31 12:33:01.5	111.650	-0.050	-0.180	0.500
2020/01/31 12:33:01.6	111.660	-0.070	-0.160	0.530
2020/01/31 12:33:01.7	111.670	-0.100	-0.140	0.560
2020/01/31 12:33:01.8	111.690	-0.120	-0.120	0.600
2020/01/31 12:33:01.9	111.700	-0.140	-0.100	0.630
2020/01/31 12:33:02.0	111.720	-0.160	-0.090	0.660
2020/01/31 12:33:02.1	111.740	-0.170	-0.080	0.690
2020/01/31 12:33:02.2	111.760	-0.190	-0.070	0.720
2020/01/31 12:33:02.3	111.780	-0.200	-0.060	0.750
2020/01/31 12:33:02.4	111.800	-0.210	-0.060	0.770
2020/01/31 12:33:02.5	111.830	-0.220	-0.070	0.800
2020/01/31 12:33:02.6	111.850	-0.220	-0.070	0.830
2020/01/31 12:33:02.7	111.880	-0.220	-0.080	0.860
2020/01/31 12:33:02.8	111.900	-0.230	-0.100	0.880
2020/01/31 12:33:02.9	111.930	-0.220	-0.120	0.910
2020/01/31 12:33:03.0	111.950	-0.220	-0.140	0.940
2020/01/31 12:33:03.1	111.980	-0.210	-0.160	0.960
2020/01/31 12:33:03.2	112.000	-0.200	-0.190	0.990
2020/01/31 12:33:03.3	112.030	-0.190	-0.220	1.010
2020/01/31 12:33:03.4	112.050	-0.180	-0.250	1.030
2020/01/31 12:33:03.5	112.080	-0.160	-0.280	1.060
2020/01/31 12:33:03.6	112.100	-0.140	-0.320	1.090
2020/01/31 12:33:03.7	112.120	-0.130	-0.350	1.110
2020/01/31 12:33:03.8	112.140	-0.110	-0.390	1.140
2020/01/31 12:33:03.9	112.160	-0.090	-0.420	1.160
2020/01/31 12:33:04.0	112.180	-0.060	-0.450	1.180
2020/01/31 12:33:04.1	112.190	-0.040	-0.480	1.210
2020/01/31 12:33:04.2	112.200	-0.020	-0.510	1.230
2020/01/31 12:33:04.3	112.210	0.000	-0.530	1.260
2020/01/31 12:33:04.4	112.220	0.030	-0.550	1.290
2020/01/31 12:33:04.5	112.220	0.050	-0.570	1.310
2020/01/31 12:33:04.6	112.220	0.070	-0.580	1.340
2020/01/31 12:33:04.7	112.230	0.090	-0.590	1.370
2020/01/31 12:33:04.8	112.230	0.110	-0.590	1.400
2020/01/31 12:33:04.9	112.220	0.130	-0.590	1.430
2020/01/31 12:33:05.0	112.220	0.140	-0.590	1.460
2020/01/31 12:33:05.1	112.220	0.160	-0.570	1.490
2020/01/31 12:33:05.2	112.210	0.170	-0.560	1.520
2020/01/31 12:33:05.3	112.200	0.190	-0.540	1.550
2020/01/31 12:33:05.4	112.190	0.200	-0.510	1.590
2020/01/31 12:33:05.5	112.180	0.200	-0.480	1.620
2020/01/31 12:33:05.6	112.170	0.210	-0.440	1.650
2020/01/31 12:33:05.7	112.170	0.220	-0.400	1.690
2020/01/31 12:33:05.8	112.160	0.220	-0.350	1.720
2020/01/31 12:33:05.9	112.150	0.220	-0.310	1.750
2020/01/31 12:33:06.0	112.140	0.220	-0.260	1.780
2020/01/31 12:33:06.1	112.130	0.220	-0.200	1.810
2020/01/31 12:33:06.2	112.130	0.210	-0.150	1.830
2020/01/31 12:33:06.3	112.120	0.210	-0.090	1.860
2020/01/31 12:33:06.4	112.110	0.200	-0.030	1.880
2020/01/31 12:33:06.5	112.120	0.190	0.020	1.910
2020/01/31 12:33:06.6	112.110	0.190	0.080	1.930
2020/01/31 12:33:06.7	112.110	0.180	0.130	1.940
2020/01/31 12:33:06.8	112.110	0.160	0.190	1.960
2020/01/31 12:33:06.9	112.100	0.150	0.240	1.970
2020/01/31 12:33:07.0	112.100	0.140	0.290	1.980
2020/01/31 12:33:07.1	112.100	0.130	0.330	1.990
2020/01/31 12:33:07.2	112.100	0.120	0.370	1.990
2020/01/31 12:33:07.3	112.100	0.110	0.410	1.990
2020/01/31 12:33:07.4	112.100	0.100	0.440	1.990
2020/01/31 12:33:07.5	112.100	0.080	0.470	1.990
2020/01/31 12:33:07.6	112.100	0.070	0.500	1.980
2020/01/31 12:33:07.7	112.100	0.060	0.520	1.970
2020/01/31 12:33:07.8	112.100	0.050	0.530	1.950
2020/01/31 12:33:07.9	112.100	0.040	0.540	1.930
2020/01/31 12:33:08.0	112.100	0.030	0.540	1.910
2020/01/31 12:33:08.1	112.100	0.030	0.540	1.890
2020/01/31 12:33:08.2	112.100	0.020	0.530	1.860
2020/01/31 12:33:08.3	112.100	0.010	0.520	1.830
2020/01/31 12:33:08.4	112.100	0.010	0.510	1.800
2020/01/31 12:33:08.5	112.100	0.000	0.490	1.770
2020/01/31 12:33:08.6	112.100	0.000	0.460	1.730
2020/01/31 12:33:08.7	112.100	-0.000	0.440	1.690
2020/01/31 12:33:08.8	112.100	-0.000	0.410	1.650
2020/01/31 12:33:08.9	112.100	-0.000	0.370	1.610
2020/01/31 12:33:09.0	112.110	-0.000	0.340	1.570
2020/01/31 12:33:09.1	112.100	-0.000	0.300	1.530
2020/01/31 12:33:09.2	112.100	-0.000	0.260	1.480
2020/01/31 12:33:09.3	112.100	0.000	0.220	1.440
2020/01/31 12:33:09.4	112.100	0.000	0.170	1.390
2020/01/31 12:33:09.5	112.100	0.010	0.130	1.350
2020/01/31 12:33:09.6	112.100	0.010	0.080	1.300
2020/01/31 12:33:09.7	112.100	0.020	0.040	1.260
2020/01/31 12:33:09.8	112.100	0.020	-0.010	1.220
2020/01/31 12:33:09.9	112.100	0.020	-0.060	1.170
2020/01/31 12:33:10.0	112.090	0.030	-0.110	1.130
2020/01/31 12:33:10.1	112.090	0.040	-0.150	1.090
2020/01/31 12:33:10.2	112.090	0.040	-0.200	1.050
2020/01/31 12:33:10.3	112.090	0.050	-0.250	1.010
2020/01/31 12:33:10.4	112.090	0.050	-0.300	0.970
2020/01/31 12:33:10.5	112.080	0.060	-0.340	0.920
2020/01/31 12:33:10.6	112.080	0.060	-0.390	0.890
2020/01/31 12:33:10.7	112.080	0.070	-0.430	0.850
2020/01/31 12:33:10.8	112.080	0.070	-0.470	0.810
2020/01/31 12:33:10.9	112.080	0.070	-0.510	0.770
2020/01/31 12:33:11.0	112.080	0.080	-0.550	0.740
2020/01/31 12:33:11.1	112.090	0.080	-0.590	0.700
2020/01/31 12:33:11.2	112.090	0.080	-0.620	0.670
2020/01/31 12:33:11.3	112.090	0.080	-0.650	0.630
2020/01/31 12:33:11.4	112.100	0.080	-0.680	0.600
2020/01/31 12:33:11.5	112.110	0.080	-0.710	0.570
2020/01/31 12:33:11.6	112.120	0.080	-0.740	0.540
2020/01/31 12:33:11.7	112.120	0.080	-0.760	0.510
2020/01/31 12:33:11.8	112.130	0.070	-0.780	0.490
2020/01/31 12:33:11.9	112.140	0.070	-0.800	0.460
2020/01/31 12:33:12.0	112.140	0.070	-0.820	0.440
2020/01/31 12:33:12.1	112.150	0.060	-0.830	0.430
2020/01/31 12:33:12.2	112.150	0.060	-0.840	0.410
2020/01/31 12:33:12.3	112.150	0.050	-0.850	0.400
2020/01/31 12:33:12.4	112.160	0.050	-0.860	0.390
2020/01/31 12:33:12.5	112.180	0.040	-0.870	0.380
2020/01/31 12:33:12.6	112.180	0.030	-0.870	0.380
2020/01/31 12:33:12.7	112.180	0.030	-0.870	0.380
2020/01/31 12:33:12.8	112.180	0.020	-0.870	0.390
2020/01/31 12:33:12.9	112.180	0.010	-0.860	0.390
2020/01/31 12:33:13.0	112.180	0.010	-0.860	0.400
2020/01/31 12:33:13.1	112.180	0.000	-0.850	0.420
2020/01/31 12:33:13.2	112.180	-0.010	-0.830	0.440
2020/01/31 12:33:13.3	112.180	-0.010	-0.810	0.460
2020/01/31 12:33:13.4	112.180	-0.020	-0.790	0.480
2020/01/31 12:33:13.5	112.170	-0.030	-0.770	0.510
2020/01/31 12:33:13.6	112.160	-0.030	-0.750	0.540
2020/01/31 12:33:13.7	112.160	-0.040	-0.720	0.570
2020/01/31 12:33:13.8	112.160	-0.050	-0.680	0.600
2020/01/31 12:33:13.9	112.160	-0.060	-0.650	0.630
2020/01/31 12:33:14.0	112.150	-0.060	-0.610	0.670
2020/01/31 12:33:14.1	112.150	-0.070	-0.560	0.710
2020/01/31 12:33:14.2	112.150	-0.080	-0.520	0.750
2020/01/31 12:33:14.3	112.140	-0.090	-0.470	0.790
2020/01/31 12:33:14.4	112.140	-0.100	-0.410	0.830
2020/01/31 12:33:14.5	112.130	-0.110	-0.360	0.870
2020/01/31 12:33:14.6	112.130	-0.120	-0.300	0.910
2020/01/31 12:33:14.7	112.120	-0.130	-0.240	0.950
2020/01/31 12:33:14.8	112.120	-0.140	-0.180	0.990
2020/01/31 12:33:14.9	112.120	-0.150	-0.110	1.030
2020/01/31 12:33:15.0	112.110	-0.170	-0.050	1.070
2020/01/31 12:33:15.1	112.110	-0.180	0.020	1.110
2020/01/31 12:33:15.2	112.100	-0.190	0.080	1.150
2020/01/31 12:33:15.3	112.100	-0.210	0.150	1.180
2020/01/31 12:33:15.4	112.100	-0.220	0.210	1.220
2020/01/31 12:33:15.5	112.100	-0.240	0.270	1.250
2020/01/31 12:33:15.6	112.100	-0.260	0.330	1.280
2020/01/31 12:33:15.7	112.100	-0.270	0.390	1.310
2020/01/31 12:33:15.8	112.090	-0.290	0.440	1.330
2020/01/31 12:33:15.9	112.090	-0.300	0.500	1.350
2020/01/31 12:33:16.0	112.090	-0.320	0.540	1.370
2020/01/31 12:33:16.1	112.090	-0.330	0.590	1.380
2020/01/31 12:33:16.2	112.090	-0.350	0.630	1.400
2020/01/31 12:33:16.3	112.090	-0.360	0.660	1.410
2020/01/31 12:33:16.4	112.090	-0.380	0.690	1.410
2020/01/31 12:33:16.5	112.090	-0.390	0.710	1.420
2020/01/31 12:33:16.6	112.100	-0.400	0.730	1.420
2020/01/31 12:33:16.7	112.100	-0.410	0.740	1.420
2020/01/31 12:33:16.8	112.110	-0.420	0.750	1.420
2020/01/31 12:33:16.9	112.110	-0.420	0.750	1.410
2020/01/31 12:33:17.0	112.120	-0.430	0.740	1.410
2020/01/31 12:33:17.1	112.130	-0.430	0.730	1.400
2020/01/31 12:33:17.2	112.140	-0.430	0.720	1.390
2020/01/31 12:33:17.3	112.150	-0.430	0.700	1.380
2020/01/31 12:33:17.4	112.160	-0.430	0.670	1.370
2020/01/31 12:33:17.5	112.170	-0.420	0.640	1.360
2020/01/31 12:33:17.6	112.180	-0.420	0.600	1.350
2020/01/31 12:33:17.7	112.200	-0.410	0.560	1.340
2020/01/31 12:33:17.8	112.210	-0.400	0.520	1.330
2020/01/31 12:33:17.9	112.230	-0.380	0.470	1.320
2020/01/31 12:33:18.0	112.240	-0.370	0.420	1.310
2020/01/31 12:33:18.1	112.260	-0.350	0.370	1.300
2020/01/31 12:33:18.2	112.270	-0.330	0.310	1.290
2020/01/31 12:33:18.3	112.290	-0.310	0.250	1.290
2020/01/31 12:33:18.4	112.300	-0.290	0.200	1.280
2020/01/31 12:33:18.5	112.310	-0.260	0.140	1.280
2020/01/31 12:33:18.6	112.320	-0.240	0.080	1.270
2020/01/31 12:33:18.7	112.320	-0.210	0.020	1.270
2020/01/31 12:33:18.8	112.330	-0.180	-0.040	1.270
2020/01/31 12:33:18.9	112.340	-0.150	-0.100	1.270
2020/01/31 12:33:19.0	112.340	-0.120	-0.160	1.270
2020/01/31 12:33:19.1	112.340	-0.080	-0.220	1.270
2020/01/31 12:33:19.2	112.340	-0.050	-0.270	1.270
2020/01/31 12:33:19.3	112.340	-0.020	-0.330	1.270
2020/01/31 12:33:19.4	112.330	0.020	-0.380	1.280
2020/01/31 12:33:19.5	112.320	0.050	-0.430	1.280
2020/01/31 12:33:19.6	112.310	0.080	-0.470	1.280
2020/01/31 12:33:19.7	112.300	0.120	-0.520	1.280
2020/01/31 12:33:19.8	112.280	0.150	-0.550	1.280
2020/01/31 12:33:19.9	112.270	0.180	-0.590	1.290
2020/01/31 12:33:20.0	112.260	0.220	-0.620	1.290
2020/01/31 12:33:20.1	112.240	0.250	-0.650	1.290
2020/01/31 12:33:20.2	112.230	0.280	-0.680	1.290
2020/01/31 12:33:20.3	112.210	0.310	-0.700	1.280
2020/01/31 12:33:20.4	112.190	0.340	-0.720	1.280
2020/01/31 12:33:20.5	112.180	0.360	-0.730	1.280
2020/01/31 12:33:20.6	112.160	0.390	-0.740	1.270
2020/01/31 12:33:20.7	112.150	0.410	-0.750	1.260
2020/01/31 12:33:20.8	112.130	0.440	-0.750	1.250
2020/01/31 12:33:20.9	112.110	0.460	-0.750	1.250
2020/01/31 12:33:21.0	112.100	0.480	-0.750	1.230
2020/01/31 12:33:21.1	112.080	0.500	-0.750	1.220
2020/01/31 12:33:21.2	112.070	0.510	-0.740	1.210
2020/01/31 12:33:21.3	112.050	0.530	-0.730	1.200
2020/01/31 12:33:21.4	112.040	0.540	-0.720	1.190
2020/01/31 12:33:21.5	112.000	0.560	-0.710	1.170
2020/01/31 12:33:21.6	111.990	0.570	-0.700	1.160
2020/01/31 12:33:21.7	111.980	0.580	-0.680	1.140
2020/01/31 12:33:21.8	111.970	0.590	-0.670	1.130
2020/01/31 12:33:21.9	111.960	0.600	-0.650	1.120
2020/01/31 12:33:22.0	111.950	0.600	-0.640	1.100
2020/01/31 12:33:22.1	111.940	0.610	-0.620	1.090
2020/01/31 12:33:22.2	111.940	0.610	-0.610	1.080
2020/01/31 12:33:22.3	111.930	0.610	-0.590	1.070
2020/01/31 12:33:22.4	111.930	0.610	-0.580	1.050
2020/01/31 12:33:22.5	111.930	0.610	-0.560	1.040
2020/01/31 12:33:22.6	111.930	0.610	-0.550	1.030
2020/01/31 12:33:22.7	111.930	0.610	-0.530	1.020
2020/01/31 12:33:22.8	111.930	0.600	-0.520	1.010
2020/01/31 12:33:22.9	111.930	0.590	-0.510	1.000
2020/01/31 12:33:23.0	111.930	0.590	-0.490	0.990
2020/01/31 12:33:23.1	111.940	0.580	-0.480	0.980
2020/01/31 12:33:23.2	111.940	0.560	-0.460	0.970
2020/01/31 12:33:23.3	111.950	0.550	-0.450	0.960
2020/01/31 12:33:23.4	111.960	0.530	-0.430	0.950
2020/01/31 12:33:23.5	111.970	0.520	-0.410	0.940
2020/01/31 12:33:23.6	111.980	0.500	-0.390	0.940
2020/01/31 12:33:23.7	111.990	0.480	-0.370	0.930
2020/01/31 12:33:23.8	112.000	0.450	-0.350	0.920
2020/01/31 12:33:23.9	112.010	0.430	-0.330	0.920
2020/01/31 12:33:24.0	112.020	0.400	-0.310	0.910
2020/01/31 12:33:24.1	112.030	0.380	-0.280	0.910
2020/01/31 12:33:24.2	112.050	0.350	-0.260	0.910
2020/01/31 12:33:24.3	112.060	0.320	-0.230	0.900
2020/01/31 12:33:24.4	112.070	0.290	-0.200	0.900
2020/01/31 12:33:24.5	112.090	0.250	-0.170	0.900
2020/01/31 12:33:24.6	112.100	0.220	-0.140	0.900
2020/01/31 12:33:24.7	112.110	0.190	-0.100	0.900
2020/01/31 12:33:24.8	112.120	0.150	-0.070	0.900
2020/01/31 12:33:24.9	112.130	0.110	-0.030	0.900
2020/01/31 12:33:25.0	112.150	0.080	0.010	0.900
2020/01/31 12:33:25.1	112.150	0.040	0.050	0.900
2020/01/31 12:33:25.2	112.160	0.000	0.090	0.910
2020/01/31 12:33:25.3	112.170	-0.030	0.130	0.910
2020/01/31 12:33:25.4	112.180	-0.070	0.170	0.910
2020/01/31 12:33:25.5	112.170	-0.110	0.210	0.920
2020/01/31 12:33:25.6	112.180	-0.140	0.250	0.920
2020/01/31 12:33:25.7	112.180	-0.180	0.300	0.930
2020/01/31 12:33:25.8	112.180	-0.210	0.340	0.940
2020/01/31 12:33:25.9	112.190	-0.250	0.370	0.940
2020/01/31 12:33:26.0	112.190	-0.280	0.410	0.950
2020/01/31 12:33:26.1	112.190	-0.310	0.450	0.960
2020/01/31 12:33:26.2	112.190	-0.340	0.480	0.980
2020/01/31 12:33:26.3	112.190	-0.370	0.510	0.990
2020/01/31 12:33:26.4	112.190	-0.390	0.540	1.010
2020/01/31 12:33:26.5	112.200	-0.410	0.570	1.020
2020/01/31 12:33:26.6	112.200	-0.440	0.590	1.040
2020/01/31 12:33:26.7	112.200	-0.460	0.610	1.060
2020/01/31 12:33:26.8	112.190	-0.470	0.620	1.080
2020/01/31 12:33:26.9	112.190	-0.490	0.630	1.100
2020/01/31 12:33:27.0	112.180	-0.500	0.630	1.120
2020/01/31 12:33:27.1	112.180	-0.510	0.630	1.140
2020/01/31 12:33:27.2	112.170	-0.520	0.620	1.160
2020/01/31 12:33:27.3	112.170	-0.520	0.610	1.180
2020/01/31 12:33:27.4	112.160	-0.530	0.590	1.200
2020/01/31 12:33:27.5	112.160	-0.530	0.570	1.230
2020/01/31 12:33:27.6	112.160	-0.520	0.540	1.250
2020/01/31 12:33:27.7	112.150	-0.520	0.500	1.280
2020/01/31 12:33:27.8	112.140	-0.510	0.460	1.300
2020/01/31 12:33:27.9	112.130	-0.500	0.410	1.320
2020/01/31 12:33:28.0	112.130	-0.490	0.360	1.350
2020/01/31 12:33:28.1	112.120	-0.480	0.300	1.370
2020/01/31 12:33:28.2	112.110	-0.460	0.230	1.390
2020/01/31 12:33:28.3	112.100	-0.450	0.170	1.410
2020/01/31 12:33:28.4	112.090	-0.430	0.090	1.430
2020/01/31 12:33:28.5	112.070	-0.410	0.020	1.440
2020/01/31 12:33:28.6	112.060	-0.390	-0.060	1.460
2020/01/31 12:33:28.7	112.050	-0.360	-0.140	1.480
2020/01/31 12:33:28.8	112.050	-0.340	-0.220	1.490
2020/01/31 12:33:28.9	112.040	-0.320	-0.300	1.500
2020/01/31 12:33:29.0	112.030	-0.300	-0.390	1.510
2020/01/31 12:33:29.1	112.020	-0.270	-0.470	1.520
2020/01/31 12:33:29.2	112.020	-0.250	-0.550	1.520
2020/01/31 12:33:29.3	112.010	-0.230	-0.630	1.530
2020/01/31 12:33:29.4	112.010	-0.210	-0.710	1.530
2020/01/31 12:33:29.5	111.990	-0.190	-0.780	1.530
2020/01/31 12:33:29.6	111.990	-0.170	-0.840	1.520
2020/01/31 12:33:29.7	111.990	-0.150	-0.900	1.520
2020/01/31 12:33:29.8	111.990	-0.130	-0.960	1.510
2020/01/31 12:33:29.9	111.990	-0.110	-1.010	1.510
2020/01/31 12:33:30.0	111.990	-0.100	-1.050	1.500
2020/01/31 12:33:30.1	111.990	-0.090	-1.080	1.490
2020/01/31 12:33:30.2	111.990	-0.080	-1.110	1.480
2020/01/31 12:33:30.3	112.000	-0.070	-1.130	1.460
2020/01/31 12:33:30.4	112.000	-0.060	-1.130	1.450
2020/01/31 12:33:30.5	112.000	-0.050	-1.130	1.430
2020/01/31 12:33:30.6	112.010	-0.050	-1.120	1.420
2020/01/31 12:33:30.7	112.020	-0.050	-1.110	1.410
2020/01/31 12:33:30.8	112.020	-0.050	-1.080	1.390
2020/01/31 12:33:30.9	112.030	-0.050	-1.050	1.380
2020/01/31 12:33:31.0	112.040	-0.050	-1.010	1.370
2020/01/31 12:33:31.1	112.050	-0.050	-0.960	1.350
2020/01/31 12:33:31.2	112.060	-0.060	-0.910	1.340
2020/01/31 12:33:31.3	112.070	-0.060	-0.850	1.330
2020/01/31 12:33:31.4	112.080	-0.070	-0.790	1.320
2020/01/31 12:33:31.5	112.080	-0.080	-0.720	1.310
2020/01/31 12:33:31.6	112.090	-0.090	-0.650	1.310
2020/01/31 12:33:31.7	112.100	-0.100	-0.570	1.300
2020/01/31 12:33:31.8	112.110	-0.110	-0.490	1.290
2020/01/31 12:33:31.9	112.120	-0.120	-0.420	1.280
2020/01/31 12:33:32.0	112.130	-0.130	-0.340	1.280
2020/01/31 12:33:32.1	112.140	-0.140	-0.260	1.270
2020/01/31 12:33:32.2	112.150	-0.150	-0.180	1.260
2020/01/31 12:33:32.3	112.160	-0.160	-0.100	1.260
2020/01/31 12:33:32.4	112.170	-0.170	-0.030	1.250
2020/01/31 12:33:32.5	112.180	-0.180	0.050	1.250
2020/01/31 12:33:32.6	112.190	-0.190	0.110	1.240
2020/01/31 12:33:32.7	112.200	-0.190	0.180	1.230
2020/01/31 12:33:32.8	112.200	-0.200	0.240	1.220
2020/01/31 12:33:32.9	112.200	-0.200	0.300	1.210
2020/01/31 12:33:33.0	112.210	-0.210	0.350	1.200
2020/01/31 12:33:33.1	112.210	-0.210	0.390	1.190
2020/01/31 12:33:33.2	112.210	-0.210	0.430	1.180
2020/01/31 12:33:33.3	112.220	-0.210	0.460	1.160
2020/01/31 12:33:33.4	112.220	-0.210	0.490	1.140
2020/01/31 12:33:33.5	112.220	-0.200	0.510	1.120
2020/01/31 12:33:33.6	112.220	-0.200	0.520	1.100
2020/01/31 12:33:33.7	112.220	-0.190	0.530	1.080
2020/01/31 12:33:33.8	112.220	-0.180	0.530	1.050
2020/01/31 12:33:33.9	112.220	-0.170	0.530	1.030
2020/01/31 12:33:34.0	112.220	-0.150	0.520	1.000
2020/01/31 12:33:34.1	112.220	-0.140	0.500	0.970
2020/01/31 12:33:34.2	112.220	-0.120	0.490	0.940
2020/01/31 12:33:34.3	112.220	-0.110	0.460	0.910
2020/01/31 12:33:34.4	112.220	-0.090	0.430	0.880
2020/01/31 12:33:34.5	112.200	-0.060	0.400	0.850
2020/01/31 12:33:34.6	112.200	-0.040	0.370	0.820
2020/01/31 12:33:34.7	112.200	-0.020	0.330	0.780
2020/01/31 12:33:34.8	112.200	0.010	0.290	0.750
2020/01/31 12:33:34.9	112.200	0.030	0.250	0.720
2020/01/31 12:33:35.0	112.200	0.060	0.210	0.690
2020/01/31 12:33:35.1	112.200	0.090	0.160	0.670
2020/01/31 12:33:35.2	112.190	0.110	0.120	0.640
2020/01/31 12:33:35.3	112.190	0.140	0.080	0.610
2020/01/31 12:33:35.4	112.190	0.170	0.030	0.590
2020/01/31 12:33:35.5	112.190	0.200	-0.010	0.560
2020/01/31 12:33:35.6	112.180	0.230	-0.050	0.550
2020/01/31 12:33:35.7	112.180	0.260	-0.090	0.530
2020/01/31 12:33:35.8	112.170	0.290	-0.130	0.510
2020/01/31 12:33:35.9	112.170	0.310	-0.160	0.500
2020/01/31 12:33:36.0	112.160	0.340	-0.200	0.490
2020/01/31 12:33:36.1	112.160	0.370	-0.230	0.480
2020/01/31 12:33:36.2	112.150	0.390	-0.270	0.470
2020/01/31 12:33:36.3	112.140	0.410	-0.300	0.460
2020/01/31 12:33:36.4	112.130	0.430	-0.320	0.460
2020/01/31 12:33:36.5	112.120	0.450	-0.350	0.460
2020/01/31 12:33:36.6	112.110	0.470	-0.370	0.460
2020/01/31 12:33:36.7	112.100	0.490	-0.390	0.460
2020/01/31 12:33:36.8	112.090	0.500	-0.410	0.460
2020/01/31 12:33:36.9	112.080	0.510	-0.430	0.470
2020/01/31 12:33:37.0	112.070	0.520	-0.440	0.480
2020/01/31 12:33:37.1	112.060	0.530	-0.460	0.480
2020/01/31 12:33:37.2	112.040	0.540	-0.470	0.490
2020/01/31 12:33:37.3	112.030	0.540	-0.470	0.510
2020/01/31 12:33:37.4	112.020	0.540	-0.480	0.520
2020/01/31 12:33:37.5	112.000	0.540	-0.480	0.530
2020/01/31 12:33:37.6	111.980	0.540	-0.490	0.540
2020/01/31 12:33:37.7	111.970	0.530	-0.490	0.560
2020/01/31 12:33:37.8	111.950	0.530	-0.490	0.570
2020/01/31 12:33:37.9	111.940	0.520	-0.490	0.590
2020/01/31 12:33:38.0	111.920	0.510	-0.480	0.600
2020/01/31 12:33:38.1	111.910	0.490	-0.480	0.610
2020/01/31 12:33:38.2	111.900	0.480	-0.470	0.630
2020/01/31 12:33:38.3	111.890	0.460	-0.470	0.640
2020/01/31 12:33:38.4	111.880	0.450	-0.460	0.650
2020/01/31 12:33:38.5	111.860	0.430	-0.450	0.660
2020/01/31 12:33:38.6	111.850	0.410	-0.440	0.680
2020/01/31 12:33:38.7	111.840	0.390	-0.430	0.690
2020/01/31 12:33:38.8	111.840	0.370	-0.420	0.700
2020/01/31 12:33:38.9	111.830	0.350	-0.420	0.710
2020/01/31 12:33:39.0	111.830	0.330	-0.410	0.720
2020/01/31 12:33:39.1	111.830	0.300	-0.400	0.730
2020/01/31 12:33:39.2	111.830	0.280	-0.390	0.740
2020/01/31 12:33:39.3	111.830	0.260	-0.380	0.750
2020/01/31 12:33:39.4	111.830	0.240	-0.370	0.760
2020/01/31 12:33:39.5	111.830	0.220	-0.360	0.770
2020/01/31 12:33:39.6	111.840	0.190	-0.350	0.780
2020/01/31 12:33:39.7	111.850	0.170	-0.340	0.790
2020/01/31 12:33:39.8	111.860	0.150	-0.330	0.810
2020/01/31 12:33:39.9	111.870	0.130	-0.320	0.820
2020/01/31 12:33:40.0	111.880	0.110	-0.310	0.830
2020/01/31 12:33:40.1	111.890	0.080	-0.290	0.850
2020/01/31 12:33:40.2	111.910	0.060	-0.280	0.860
2020/01/31 12:33:40.3	111.930	0.040	-0.270	0.880
2020/01/31 12:33:40.4	111.940	0.020	-0.250	0.900
2020/01/31 12:33:40.5	111.980	0.000	-0.240	0.910
2020/01/31 12:33:40.6	112.000	-0.020	-0.220	0.930
2020/01/31 12:33:40.7	112.020	-0.040	-0.200	0.960
2020/01/31 12:33:40.8	112.040	-0.060	-0.180	0.980
2020/01/31 12:33:40.9	112.070	-0.080	-0.170	1.000
2020/01/31 12:33:41.0	112.090	-0.100	-0.150	1.030
2020/01/31 12:33:41.1	112.110	-0.110	-0.130	1.060
2020/01/31 12:33:41.2	112.140	-0.130	-0.110	1.090
2020/01/31 12:33:41.3	112.160	-0.150	-0.090	1.120
2020/01/31 12:33:41.4	112.190	-0.170	-0.070	1.150
2020/01/31 12:33:41.5	112.190	-0.190	-0.050	1.190
2020/01/31 12:33:41.6	112.210	-0.200	-0.030	1.230
2020/01/31 12:33:41.7	112.230	-0.220	-0.010	1.270
2020/01/31 12:33:41.8	112.250	-0.240	0.010	1.310
2020/01/31 12:33:41.9	112.270	-0.250	0.030	1.350
2020/01/31 12:33:42.0	112.290	-0.270	0.050	1.390
2020/01/31 12:33:42.1	112.300	-0.280	0.070	1.440
2020/01/31 12:33:42.2	112.310	-0.300	0.090	1.480
2020/01/31 12:33:42.3	112.320	-0.310	0.110	1.530
2020/01/31 12:33:42.4	112.330	-0.330	0.120	1.570
2020/01/31 12:33:42.5	112.330	-0.340	0.140	1.620
2020/01/31 12:33:42.6	112.330	-0.350	0.160	1.670
2020/01/31 12:33:42.7	112.340	-0.360	0.170	1.710
2020/01/31 12:33:42.8	112.340	-0.370	0.190	1.750
2020/01/31 12:33:42.9	112.340	-0.380	0.200	1.800
2020/01/31 12:33:43.0	112.340	-0.390	0.210	1.840
2020/01/31 12:33:43.1	112.340	-0.400	0.220	1.880
2020/01/31 12:33:43.2	112.330	-0.410	0.230	1.910
2020/01/31 12:33:43.3	112.330	-0.410	0.240	1.950
2020/01/31 12:33:43.4	112.320	-0.420	0.240	1.980
2020/01/31 12:33:43.5	112.330	-0.420	0.240	2.010
2020/01/31 12:33:43.6	112.320	-0.420	0.240	2.030
2020/01/31 12:33:43.7	112.310	-0.430	0.240	2.050
2020/01/31 12:33:43.8	112.310	-0.430	0.240	2.070
2020/01/31 12:33:43.9	112.300	-0.430	0.230	2.080
2020/01/31 12:33:44.0	112.290	-0.430	0.220	2.090
2020/01/31 12:33:44.1	112.280	-0.420	0.210	2.100
2020/01/31 12:33:44.2	112.270	-0.420	0.200	2.100
2020/01/31 12:33:44.3	112.250	-0.420	0.180	2.100
2020/01/31 12:33:44.4	112.240	-0.410	0.160	2.100
2020/01/31 12:33:44.5	112.220	-0.400	0.140	2.100
2020/01/31 12:33:44.6	112.210	-0.390	0.120	2.100
2020/01/31 12:33:44.7	112.190	-0.380	0.090	2.100
2020/01/31 12:33:44.8	112.170	-0.370	0.060	2.090
2020/01/31 12:33:44.9	112.150	-0.360	0.030	2.090
2020/01/31 12:33:45.0	112.130	-0.350	-0.000	2.080
2020/01/31 12:33:45.1	112.110	-0.330	-0.040	2.080
2020/01/31 12:33:45.2	112.080	-0.320	-0.070	2.070
2020/01/31 12:33:45.3	112.060	-0.300	-0.110	2.070
2020/01/31 12:33:45.4	112.030	-0.280	-0.150	2.060
2020/01/31 12:33:45.5	112.010	-0.260	-0.190	2.060
2020/01/31 12:33:45.6	111.990	-0.250	-0.230	2.050
2020/01/31 12:33:45.7	111.960	-0.230	-0.270	2.040
2020/01/31 12:33:45.8	111.930	-0.210	-0.300	2.030
2020/01/31 12:33:45.9	111.900	-0.190	-0.340	2.030
2020/01/31 12:33:46.0	111.880	-0.170	-0.380	2.020
2020/01/31 12:33:46.1	111.850	-0.150	-0.420	2.000
2020/01/31 12:33:46.2	111.830	-0.120	-0.460	1.990
2020/01/31 12:33:46.3	111.800	-0.100	-0.490	1.970
2020/01/31 12:33:46.4	111.780	-0.080	-0.520	1.950
2020/01/31 12:33:46.5	111.760	-0.070	-0.550	1.930
2020/01/31 12:33:46.6	111.740	-0.050	-0.580	1.900
2020/01/31 12:33:46.7	111.720	-0.030	-0.610	1.870
2020/01/31 12:33:46.8	111.710	-0.010	-0.630	1.840
2020/01/31 12:33:46.9	111.700	0.010	-0.650	1.800
2020/01/31 12:33:47.0	111.690	0.020	-0.670	1.760
2020/01/31 12:33:47.1	111.680	0.040	-0.690	1.720
2020/01/31 12:33:47.2	111.670	0.050	-0.700	1.670
2020/01/31 12:33:47.3	111.670	0.060	-0.710	1.620
2020/01/31 12:33:47.4	111.670	0.070	-0.720	1.570
2020/01/31 12:33:47.5	111.670	0.080	-0.720	1.510
2020/01/31 12:33:47.6	111.670	0.090	-0.730	1.450
2020/01/31 12:33:47.7	111.670	0.100	-0.730	1.390
2020/01/31 12:33:47.8	111.680	0.110	-0.720	1.320
2020/01/31 12:33:47.9	111.690	0.110	-0.720	1.260
2020/01/31 12:33:48.0	111.700	0.120	-0.710	1.190
2020/01/31 12:33:48.1	111.710	0.120	-0.700	1.110
2020/01/31 12:33:48.2	111.730	0.120	-0.690	1.040
2020/01/31 12:33:48.3	111.740	0.120	-0.680	0.970
2020/01/31 12:33:48.4	111.760	0.120	-0.670	0.890
2020/01/31 12:33:48.5	111.780	0.120	-0.650	0.810
2020/01/31 12:33:48.6	111.800	0.120	-0.630	0.740
2020/01/31 12:33:48.7	111.820	0.120	-0.610	0.660
2020/01/31 12:33:48.8	111.830	0.110	-0.590	0.590
2020/01/31 12:33:48.9	111.850	0.110	-0.570	0.520
2020/01/31 12:33:49.0	111.870	0.100	-0.540	0.450
2020/01/31 12:33:49.1	111.880	0.100	-0.520	0.380
2020/01/31 12:33:49.2	111.900	0.090	-0.490	0.320
2020/01/31 12:33:49.3	111.910	0.090	-0.460	0.260
2020/01/31 12:33:49.4	111.930	0.080	-0.420	0.200
2020/01/31 12:33:49.5	111.950	0.070	-0.390	0.140
2020/01/31 12:33:49.6	111.960	0.070	-0.350	0.090
2020/01/31 12:33:49.7	111.970	0.060	-0.310	0.050
2020/01/31 12:33:49.8	111.980	0.050	-0.270	0.010
2020/01/31 12:33:49.9	111.990	0.050	-0.230	-0.030
2020/01/31 12:33:50.0	112.000	0.040	-0.190	-0.060
2020/01/31 12:33:50.1	112.000	0.030	-0.140	-0.090
2020/01/31 12:33:50.2	112.010	0.020	-0.090	-0.120
2020/01/31 12:33:50.3	112.020	0.020	-0.040	-0.140
2020/01/31 12:33:50.4	112.020	0.010	0.010	-0.160
2020/01/31 12:33:50.5	112.030	0.000	0.060	-0.180
2020/01/31 12:33:50.6	112.040	-0.010	0.110	-0.190
2020/01/31 12:33:50.7	112.050	-0.010	0.170	-0.210
2020/01/31 12:33:50.8	112.050	-0.020	0.220	-0.220
2020/01/31 12:33:50.9	112.060	-0.020	0.270	-0.220
2020/01/31 12:33:51.0	112.070	-0.030	0.330	-0.230
2020/01/31 12:33:51.1	112.080	-0.030	0.380	-0.230
2020/01/31 12:33:51.2	112.080	-0.030	0.430	-0.240
2020/01/31 12:33:51.3	112.090	-0.040	0.480	-0.230
2020/01/31 12:33:51.4	112.100	-0.040	0.520	-0.230
2020/01/31 12:33:51.5	112.100	-0.040	0.570	-0.230
2020/01/31 12:33:51.6	112.100	-0.040	0.610	-0.220
2020/01/31 12:33:51.7	112.110	-0.040	0.650	-0.210
2020/01/31 12:33:51.8	112.110	-0.040	0.680	-0.200
2020/01/31 12:33:51.9	112.110	-0.030	0.710	-0.180
2020/01/31 12:33:52.0	112.110	-0.030	0.730	-0.160
2020/01/31 12:33:52.1	112.110	-0.020	0.750	-0.140
2020/01/31 12:33:52.2	112.110	-0.010	0.770	-0.110
2020/01/31 12:33:52.3	112.100	-0.000	0.780	-0.090
2020/01/31 12:33:52.4	112.090	0.010	0.780	-0.060
2020/01/31 12:33:52.5	112.100	0.020	0.770	-0.020
2020/01/31 12:33:52.6	112.090	0.030	0.770	0.010
2020/01/31 12:33:52.7	112.080	0.050	0.750	0.050
2020/01/31 12:33:52.8	112.060	0.060	0.730	0.090
2020/01/31 12:33:52.9	112.050	0.080	0.700	0.120
2020/01/31 12:33:53.0	112.030	0.090	0.670	0.160
2020/01/31 12:33:53.1	112.020	0.110	0.630	0.200
2020/01/31 12:33:53.2	112.000	0.130	0.590	0.240
2020/01/31 12:33:53.3	111.980	0.150	0.540	0.280
2020/01/31 12:33:53.4	111.970	0.170	0.480	0.320
2020/01/31 12:33:53.5	111.940	0.190	0.420	0.360
2020/01/31 12:33:53.6	111.920	0.210	0.350	0.400
2020/01/31 12:33:53.7	111.900	0.230	0.280	0.440
2020/01/31 12:33:53.8	111.880	0.240	0.210	0.480
2020/01/31 12:33:53.9	111.870	0.260	0.130	0.510
2020/01/31 12:33:54.0	111.850	0.280	0.060	0.550
2020/01/31 12:33:54.1	111.830	0.300	-0.030	0.590
2020/01/31 12:33:54.2	111.820	0.320	-0.110	0.630
2020/01/31 12:33:54.3	111.800	0.330	-0.190	0.660
2020/01/31 12:33:54.4	111.780	0.350	-0.280	0.700
2020/01/31 12:33:54.5	111.770	0.360	-0.360	0.740
2020/01/31 12:33:54.6	111.760	0.380	-0.450	0.780
2020/01/31 12:33:54.7	111.740	0.390	-0.530	0.820
2020/01/31 12:33:54.8	111.730	0.400	-0.600	0.860
2020/01/31 12:33:54.9	111.710	0.410	-0.680	0.900
2020/01/31 12:33:55.0	111.700	0.410	-0.750	0.950
2020/01/31 12:33:55.1	111.690	0.420	-0.820	0.990
2020/01/31 12:33:55.2	111.670	0.420	-0.890	1.040
2020/01/31 12:33:55.3	111.660	0.420	-0.950	1.090
2020/01/31 12:33:55.4	111.650	0.420	-1.000	1.140
2020/01/31 12:33:55.5	111.630	0.420	-1.050	1.190
2020/01/31 12:33:55.6	111.620	0.410	-1.090	1.250
2020/01/31 12:33:55.7	111.610	0.410	-1.130	1.310
2020/01/31 12:33:55.8	111.600	0.400	-1.160	1.370
2020/01/31 12:33:55.9	111.590	0.390	-1.190	1.430
2020/01/31 12:33:56.0	111.580	0.380	-1.210	1.490
2020/01/31 12:33:56.1	111.570	0.370	-1.230	1.550
2020/01/31 12:33:56.2	111.560	0.350	-1.230	1.620
2020/01/31 12:33:56.3	111.550	0.340	-1.240	1.680
2020/01/31 12:33:56.4	111.550	0.320	-1.230	1.750
2020/01/31 12:33:56.5	111.550	0.300	-1.220	1.820
2020/01/31 12:33:56.6	111.540	0.280	-1.210	1.890
2020/01/31 12:33:56.7	111.540	0.260	-1.190	1.950
2020/01/31 12:33:56.8	111.540	0.240	-1.170	2.020
2020/01/31 12:33:56.9	111.540	0.210	-1.140	2.080
2020/01/31 12:33:57.0	111.550	0.190	-1.100	2.140
2020/01/31 12:33:57.1	111.550	0.170	-1.060	2.200
2020/01/31 12:33:57.2	111.550	0.140	-1.020	2.260
2020/01/31 12:33:57.3	111.560	0.110	-0.980	2.320
2020/01/31 12:33:57.4	111.570	0.090	-0.920	2.370
2020/01/31 12:33:57.5	111.570	0.060	-0.870	2.420
2020/01/31 12:33:57.6	111.580	0.030	-0.810	2.460
2020/01/31 12:33:57.7	111.600	-0.000	-0.750	2.500
2020/01/31 12:33:57.8	111.610	-0.030	-0.690	2.540
2020/01/31 12:33:57.9	111.620	-0.060	-0.620	2.580
2020/01/31 12:33:58.0	111.640	-0.090	-0.550	2.610
2020/01/31 12:33:58.1	111.660	-0.120	-0.480	2.630
2020/01/31 12:33:58.2	111.670	-0.150	-0.400	2.650
2020/01/31 12:33:58.3	111.690	-0.190	-0.320	2.670
2020/01/31 12:33:58.4	111.710	-0.220	-0.250	2.680
2020/01/31 12:33:58.5	111.740	-0.250	-0.160	2.690
2020/01/31 12:33:58.6	111.760	-0.280	-0.090	2.690
2020/01/31 12:33:58.7	111.780	-0.310	-0.010	2.690
2020/01/31 12:33:58.8	111.800	-0.340	0.070	2.680
2020/01/31 12:33:58.9	111.820	-0.370	0.150	2.670
2020/01/31 12:33:59.0	111.840	-0.400	0.230	2.650
2020/01/31 12:33:59.1	111.860	-0.430	0.310	2.630
2020/01/31 12:33:59.2	111.880	-0.460	0.380	2.610
2020/01/31 12:33:59.3	111.890	-0.490	0.450	2.580
2020/01/31 12:33:59.4	111.910	-0.510	0.520	2.560
2020/01/31 12:33:59.5	111.920	-0.530	0.590	2.520
2020/01/31 12:33:59.6	111.940	-0.550	0.650	2.490
2020/01/31 12:33:59.7	111.950	-0.570	0.710	2.460
2020/01/31 12:33:59.8	111.950	-0.590	0.760	2.420
2020/01/31 12:33:59.9	111.960	-0.600	0.800	2.390
2020/01/31 12:34:00.0	111.960	-0.610	0.840	2.350
2020/01/31 12:34:00.1	111.960	-0.620	0.870	2.310
2020/01/31 12:34:00.2	111.960	-0.630	0.900	2.280
2020/01/31 12:34:00.3	111.960	-0.630	0.920	2.240
2020/01/31 12:34:00.4	111.950	-0.630	0.930	2.210
2020/01/31 12:34:00.5	111.940	-0.630	0.940	2.170
2020/01/31 12:34:00.6	111.930	-0.620	0.930	2.130
2020/01/31 12:34:00.7	111.920	-0.610	0.920	2.100
2020/01/31 12:34:00.8	111.900	-0.590	0.900	2.060
2020/01/31 12:34:00.9	111.890	-0.580	0.870	2.020
2020/01/31 12:34:01.0	111.870	-0.560	0.840	1.990
2020/01/31 12:34:01.1	111.860	-0.540	0.800	1.950
2020/01/31 12:34:01.2	111.840	-0.510	0.750	1.900
2020/01/31 12:34:01.3	111.820	-0.480	0.690	1.860
2020/01/31 12:34:01.4	111.800	-0.450	0.630	1.820
2020/01/31 12:34:01.5	111.790	-0.420	0.570	1.760
2020/01/31 12:34:01.6	111.780	-0.380	0.490	1.710
2020/01/31 12:34:01.7	111.760	-0.350	0.420	1.660
2020/01/31 12:34:01.8	111.750	-0.310	0.340	1.600
2020/01/31 12:34:01.9	111.730	-0.270	0.260	1.540
2020/01/31 12:34:02.0	111.720	-0.230	0.170	1.480
2020/01/31 12:34:02.1	111.710	-0.190	0.090	1.420
2020/01/31 12:34:02.2	111.700	-0.150	0.000	1.350
2020/01/31 12:34:02.3	111.700	-0.110	-0.080	1.280
2020/01/31 12:34:02.4	111.690	-0.070	-0.170	1.200
2020/01/31 12:34:02.5	111.680	-0.030	-0.250	1.120
2020/01/31 12:34:02.6	111.680	0.000	-0.330	1.040
2020/01/31 12:34:02.7	111.680	0.040	-0.410	0.960
2020/01/31 12:34:02.8	111.680	0.070	-0.480	0.880
2020/01/31 12:34:02.9	111.680	0.110	-0.540	0.790
2020/01/31 12:34:03.0	111.680	0.140	-0.610	0.700
2020/01/31 12:34:03.1	111.680	0.170	-0.660	0.620
2020/01/31 12:34:03.2	111.680	0.190	-0.710	0.530
2020/01/31 12:34:03.3	111.690	0.220	-0.760	0.440
2020/01/31 12:34:03.4	111.690	0.240	-0.790	0.350
2020/01/31 12:34:03.5	111.680	0.250	-0.820	0.250
2020/01/31 12:34:03.6	111.690	0.270	-0.840	0.170
2020/01/31 12:34:03.7	111.690	0.280	-0.860	0.080
2020/01/31 12:34:03.8	111.700	0.290	-0.860	-0.010
2020/01/31 12:34:03.9	111.700	0.290	-0.870	-0.090
2020/01/31 12:34:04.0	111.700	0.300	-0.860	-0.180
2020/01/31 12:34:04.1	111.710	0.300	-0.850	-0.260
2020/01/31 12:34:04.2	111.710	0.290	-0.830	-0.330
2020/01/31 12:34:04.3	111.710	0.290	-0.810	-0.410
2020/01/31 12:34:04.4	111.710	0.280	-0.780	-0.470
2020/01/31 12:34:04.5	111.700	0.270	-0.750	-0.540
2020/01/31 12:34:04.6	111.700	0.260	-0.710	-0.600
2020/01/31 12:34:04.7	111.700	0.250	-0.670	-0.650
2020/01/31 12:34:04.8	111.700	0.230	-0.630	-0.700
2020/01/31 12:34:04.9	111.700	0.220	-0.580	-0.750
2020/01/31 12:34:05.0	111.700	0.200	-0.540	-0.790
2020/01/31 12:34:05.1	111.690	0.180	-0.490	-0.820
2020/01/31 12:34:05.2	111.690	0.170	-0.440	-0.850
2020/01/31 12:34:05.3	111.690	0.150	-0.390	-0.880
2020/01/31 12:34:05.4	111.690	0.130	-0.350	-0.900
2020/01/31 12:34:05.5	111.700	0.120	-0.300	-0.910
2020/01/31 12:34:05.6	111.690	0.100	-0.260	-0.920
2020/01/31 12:34:05.7	111.690	0.090	-0.220	-0.930
2020/01/31 12:34:05.8	111.690	0.070	-0.190	-0.930
2020/01/31 12:34:05.9	111.700	0.060	-0.160	-0.930
2020/01/31 12:34:06.0	111.700	0.050	-0.130	-0.930
2020/01/31 12:34:06.1	111.700	0.040	-0.110	-0.920
2020/01/31 12:34:06.2	111.700	0.030	-0.090	-0.910
2020/01/31 12:34:06.3	111.710	0.020	-0.070	-0.890
2020/01/31 12:34:06.4	111.710	0.020	-0.060	-0.880
2020/01/31 12:34:06.5	111.730	0.010	-0.060	-0.850
2020/01/31 12:34:06.6	111.740	0.010	-0.060	-0.830
2020/01/31 12:34:06.7	111.740	0.010	-0.060	-0.800
2020/01/31 12:34:06.8	111.750	0.010	-0.070	-0.770
2020/01/31 12:34:06.9	111.760	0.010	-0.080	-0.730
2020/01/31 12:34:07.0	111.760	0.020	-0.090	-0.690
2020/01/31 12:34:07.1	111.770	0.020	-0.110	-0.650
2020/01/31 12:34:07.2	111.780	0.030	-0.120	-0.610
2020/01/31 12:34:07.3	111.790	0.040	-0.150	-0.560
2020/01/31 12:34:07.4	111.790	0.050	-0.170	-0.510
2020/01/31 12:34:07.5	111.800	0.060	-0.190	-0.460
2020/01/31 12:34:07.6	111.810	0.070	-0.210	-0.400
2020/01/31 12:34:07.7	111.820	0.080	-0.240	-0.350
2020/01/31 12:34:07.8	111.820	0.090	-0.260	-0.290
2020/01/31 12:34:07.9	111.820	0.100	-0.290	-0.220
2020/01/31 12:34:08.0	111.830	0.110	-0.310	-0.160
2020/01/31 12:34:08.1	111.830	0.120	-0.340	-0.090
2020/01/31 12:34:08.2	111.830	0.130	-0.360	-0.020
2020/01/31 12:34:08.3	111.830	0.140	-0.380	0.050
2020/01/31 12:34:08.4	111.840	0.140	-0.400	0.130
2020/01/31 12:34:08.5	111.830	0.150	-0.410	0.200
2020/01/31 12:34:08.6	111.830	0.160	-0.430	0.290
2020/01/31 12:34:08.7	111.830	0.160	-0.440	0.370
2020/01/31 12:34:08.8	111.830	0.160	-0.450	0.460
2020/01/31 12:34:08.9	111.830	0.160	-0.450	0.550
2020/01/31 12:34:09.0	111.820	0.170	-0.450	0.640
2020/01/31 12:34:09.1	111.820	0.160	-0.450	0.730
2020/01/31 12:34:09.2	111.820	0.160	-0.440	0.820
2020/01/31 12:34:09.3	111.820	0.160	-0.430	0.910
2020/01/31 12:34:09.4	111.810	0.150	-0.420	1.010
2020/01/31 12:34:09.5	111.810	0.150	-0.400	1.110
2020/01/31 12:34:09.6	111.810	0.140	-0.380	1.200
2020/01/31 12:34:09.7	111.810	0.130	-0.360	1.290
2020/01/31 12:34:09.8	111.810	0.120	-0.330	1.380
2020/01/31 12:34:09.9	111.810	0.110	-0.300	1.480
2020/01/31 12:34:10.0	111.810	0.090	-0.270	1.560
2020/01/31 12:34:10.1	111.810	0.080	-0.230	1.650
2020/01/31 12:34:10.2	111.820	0.070	-0.200	1.740
2020/01/31 12:34:10.3	111.820	0.050	-0.150	1.820
2020/01/31 12:34:10.4	111.830	0.030	-0.110	1.900
2020/01/31 12:34:10.5	111.810	0.020	-0.060	1.970
2020/01/31 12:34:10.6	111.820	0.000	-0.020	2.050
2020/01/31 12:34:10.7	111.830	-0.010	0.030	2.120
2020/01/31 12:34:10.8	111.830	-0.030	0.080	2.180
2020/01/31 12:34:10.9	111.840	-0.040	0.130	2.240
2020/01/31 12:34:11.0	111.840	-0.060	0.170	2.300
2020/01/31 12:34:11.1	111.850	-0.070	0.220	2.360
2020/01/31 12:34:11.2	111.860	-0.090	0.260	2.410
2020/01/31 12:34:11.3	111.860	-0.100	0.310	2.460
2020/01/31 12:34:11.4	111.870	-0.110	0.350	2.500
2020/01/31 12:34:11.5	111.860	-0.120	0.380	2.550
2020/01/31 12:34:11.6	111.870	-0.130	0.420	2.580
2020/01/31 12:34:11.7	111.870	-0.140	0.450	2.610
2020/01/31 12:34:11.8	111.880	-0.140	0.480	2.640
2020/01/31 12:34:11.9	111.880	-0.150	0.500	2.670
2020/01/31 12:34:12.0	111.890	-0.150	0.520	2.680
2020/01/31 12:34:12.1	111.890	-0.150	0.540	2.700
2020/01/31 12:34:12.2	111.900	-0.150	0.550	2.710
2020/01/31 12:34:12.3	111.910	-0.150	0.550	2.710
2020/01/31 12:34:12.4	111.910	-0.150	0.550	2.710
2020/01/31 12:34:12.5	111.930	-0.150	0.550	2.700
2020/01/31 12:34:12.6	111.940	-0.150	0.550	2.690
2020/01/31 12:34:12.7	111.940	-0.140	0.540	2.680
2020/01/31 12:34:12.8	111.950	-0.130	0.520	2.660
2020/01/31 12:34:12.9	111.960	-0.130	0.500	2.630
2020/01/31 12:34:13.0	111.970	-0.120	0.470	2.600
2020/01/31 12:34:13.1	111.980	-0.110	0.450	2.570
2020/01/31 12:34:13.2	111.990	-0.100	0.410	2.540
2020/01/31 12:34:13.3	112.000	-0.090	0.380	2.500
2020/01/31 12:34:13.4	112.010	-0.080	0.340	2.460
2020/01/31 12:34:13.5	112.020	-0.070	0.300	2.410
2020/01/31 12:34:13.6	112.030	-0.060	0.250	2.360
2020/01/31 12:34:13.7	112.040	-0.040	0.210	2.310
2020/01/31 12:34:13.8	112.040	-0.030	0.160	2.260
2020/01/31 12:34:13.9	112.050	-0.020	0.100	2.210
2020/01/31 12:34:14.0	112.060	-0.010	0.050	2.160
2020/01/31 12:34:14.1	112.060	0.000	-0.000	2.110
2020/01/31 12:34:14.2	112.060	0.020	-0.060	2.050
2020/01/31 12:34:14.3	112.070	0.030	-0.110	2.000
2020/01/31 12:34:14.4	112.070	0.040	-0.170	1.940
2020/01/31 12:34:14.5	112.060	0.050	-0.230	1.880
2020/01/31 12:34:14.6	112.060	0.060	-0.280	1.820
2020/01/31 12:34:14.7	112.060	0.070	-0.340	1.760
2020/01/31 12:34:14.8	112.060	0.080	-0.390	1.700
2020/01/31 12:34:14.9	112.060	0.090	-0.440	1.640
2020/01/31 12:34:15.0	112.060	0.100	-0.490	1.580
2020/01/31 12:34:15.1	112.050	0.110	-0.540	1.520
2020/01/31 12:34:15.2	112.050	0.110	-0.580	1.460
2020/01/31 12:34:15.3	112.050	0.120	-0.620	1.400
2020/01/31 12:34:15.4	112.040	0.120	-0.660	1.330
2020/01/31 12:34:15.5	112.050	0.130	-0.700	1.260
2020/01/31 12:34:15.6	112.040	0.130	-0.730	1.200
2020/01/31 12:34:15.7	112.040	0.130	-0.760	1.130
2020/01/31 12:34:15.8	112.040	0.130	-0.780	1.070
2020/01/31 12:34:15.9	112.030	0.130	-0.810	1.000
2020/01/31 12:34:16.0	112.030	0.130	-0.830	0.930
2020/01/31 12:34:16.1	112.030	0.120	-0.840	0.870
2020/01/31 12:34:16.2	112.020	0.120	-0.850	0.800
2020/01/31 12:34:16.3	112.020	0.110	-0.860	0.740
2020/01/31 12:34:16.4	112.020	0.110	-0.870	0.680
2020/01/31 12:34:16.5	112.020	0.100	-0.870	0.620
2020/01/31 12:34:16.6	112.020	0.100	-0.860	0.560
2020/01/31 12:34:16.7	112.020	0.090	-0.860	0.500
2020/01/31 12:34:16.8	112.020	0.080	-0.850	0.440
2020/01/31 12:34:16.9	112.020	0.070	-0.850	0.390
2020/01/31 12:34:17.0	112.020	0.060	-0.840	0.340
2020/01/31 12:34:17.1	112.020	0.060	-0.820	0.290
2020/01/31 12:34:17.2	112.020	0.050	-0.810	0.250
2020/01/31 12:34:17.3	112.020	0.040	-0.790	0.210
2020/01/31 12:34:17.4	112.020	0.030	-0.770	0.170
2020/01/31 12:34:17.5	112.030	0.030	-0.760	0.140
2020/01/31 12:34:17.6	112.040	0.020	-0.740	0.110
2020/01/31 12:34:17.7	112.040	0.010	-0.710	0.090
2020/01/31 12:34:17.8	112.040	0.010	-0.690	0.060
2020/01/31 12:34:17.9	112.050	0.000	-0.670	0.040
2020/01/31 12:34:18.0	112.060	-0.000	-0.640	0.030
2020/01/31 12:34:18.1	112.060	-0.010	-0.620	0.020
2020/01/31 12:34:18.2	112.070	-0.010	-0.590	0.010
2020/01/31 12:34:18.3	112.080	-0.010	-0.560	0.000
2020/01/31 12:34:18.4	112.090	-0.020	-0.530	-0.000
2020/01/31 12:34:18.5	112.090	-0.020	-0.500	-0.000
2020/01/31 12:34:18.6	112.100	-0.020	-0.470	0.000
2020/01/31 12:34:18.7	112.120	-0.030	-0.440	0.000
2020/01/31 12:34:18.8	112.130	-0.030	-0.400	0.010
2020/01/31 12:34:18.9	112.140	-0.030	-0.370	0.020
2020/01/31 12:34:19.0	112.150	-0.040	-0.330	0.030
2020/01/31 12:34:19.1	112.170	-0.040	-0.300	0.040
2020/01/31 12:34:19.2	112.180	-0.040	-0.260	0.050
2020/01/31 12:34:19.3	112.190	-0.050	-0.220	0.060
2020/01/31 12:34:19.4	112.200	-0.050	-0.190	0.080
2020/01/31 12:34:19.5	112.210	-0.050	-0.150	0.090
2020/01/31 12:34:19.6	112.220	-0.060	-0.110	0.110
2020/01/31 12:34:19.7	112.230	-0.060	-0.070	0.120
2020/01/31 12:34:19.8	112.240	-0.070	-0.030	0.140
2020/01/31 12:34:19.9	112.250	-0.070	0.010	0.160
2020/01/31 12:34:20.0	112.260	-0.080	0.040	0.170
2020/01/31 12:34:20.1	112.260	-0.080	0.080	0.190
2020/01/31 12:34:20.2	112.270	-0.090	0.120	0.210
2020/01/31 12:34:20.3	112.270	-0.100	0.150	0.230
2020/01/31 12:34:20.4	112.270	-0.100	0.190	0.240
2020/01/31 12:34:20.5	112.260	-0.110	0.220	0.260
2020/01/31 12:34:20.6	112.260	-0.120	0.250	0.280
2020/01/31 12:34:20.7	112.250	-0.120	0.280	0.300
2020/01/31 12:34:20.8	112.240	-0.130	0.310	0.330
2020/01/31 12:34:20.9	112.230	-0.140	0.340	0.350
2020/01/31 12:34:21.0	112.220	-0.150	0.370	0.370
2020/01/31 12:34:21.1	112.210	-0.150	0.400	0.400
2020/01/31 12:34:21.2	112.190	-0.160	0.420	0.420
2020/01/31 12:34:21.3	112.180	-0.170	0.450	0.450
2020/01/31 12:34:21.4	112.160	-0.170	0.470	0.480
2020/01/31 12:34:21.5	112.150	-0.180	0.490	0.500
2020/01/31 12:34:21.6	112.130	-0.190	0.510	0.530
2020/01/31 12:34:21.7	112.110	-0.190	0.530	0.560
2020/01/31 12:34:21.8	112.090	-0.200	0.540	0.590
2020/01/31 12:34:21.9	112.070	-0.210	0.550	0.620
2020/01/31 12:34:22.0	112.050	-0.210	0.560	0.650
2020/01/31 12:34:22.1	112.040	-0.220	0.570	0.680
2020/01/31 12:34:22.2	112.020	-0.220	0.570	0.710
2020/01/31 12:34:22.3	112.000	-0.220	0.570	0.740
2020/01/31 12:34:22.4	111.990	-0.220	0.570	0.770
2020/01/31 12:34:22.5	111.960	-0.230	0.570	0.810
2020/01/31 12:34:22.6	111.950	-0.230	0.560	0.840
2020/01/31 12:34:22.7	111.940	-0.230	0.550	0.870
2020/01/31 12:34:22.8	111.920	-0.230	0.540	0.900
2020/01/31 12:34:22.9	111.910	-0.220	0.530	0.930
2020/01/31 12:34:23.0	111.900	-0.220	0.510	0.960
2020/01/31 12:34:23.1	111.900	-0.210	0.490	0.990
2020/01/31 12:34:23.2	111.890	-0.210	0.460	1.020
2020/01/31 12:34:23.3	111.880	-0.200	0.430	1.050
2020/01/31 12:34:23.4	111.880	-0.190	0.400	1.080
2020/01/31 12:34:23.5	111.880	-0.180	0.370	1.110
2020/01/31 12:34:23.6	111.880	-0.170	0.330	1.140
2020/01/31 12:34:23.7	111.880	-0.160	0.290	1.160
2020/01/31 12:34:23.8	111.880	-0.140	0.240	1.180
2020/01/31 12:34:23.9	111.890	-0.130	0.200	1.210
2020/01/31 12:34:24.0	111.890	-0.110	0.150	1.230
2020/01/31 12:34:24.1	111.900	-0.090	0.100	1.250
2020/01/31 12:34:24.2	111.910	-0.070	0.040	1.270
2020/01/31 12:34:24.3	111.920	-0.050	-0.010	1.290
2020/01/31 12:34:24.4	111.930	-0.030	-0.070	1.300
2020/01/31 12:34:24.5	111.950	-0.010	-0.130	1.320
2020/01/31 12:34:24.6	111.960	0.020	-0.190	1.330
2020/01/31 12:34:24.7	111.980	0.040	-0.250	1.340
2020/01/31 12:34:24.8	111.990	0.060	-0.310	1.350
2020/01/31 12:34:24.9	112.010	0.090	-0.370	1.360
2020/01/31 12:34:25.0	112.020	0.120	-0.430	1.360
2020/01/31 12:34:25.1	112.040	0.140	-0.500	1.360
2020/01/31 12:34:25.2	112.060	0.170	-0.560	1.370
2020/01/31 12:34:25.3	112.070	0.190	-0.610	1.370
2020/01/31 12:34:25.4	112.090	0.220	-0.670	1.370
2020/01/31 12:34:25.5	112.120	0.240	-0.720	1.360
2020/01/31 12:34:25.6	112.140	0.270	-0.770	1.360
2020/01/31 12:34:25.7	112.160	0.290	-0.820	1.360
2020/01/31 12:34:25.8	112.170	0.310	-0.860	1.350
2020/01/31 12:34:25.9	112.190	0.330	-0.900	1.350
2020/01/31 12:34:26.0	112.200	0.350	-0.930	1.350
2020/01/31 12:34:26.1	112.220	0.370	-0.960	1.340
2020/01/31 12:34:26.2	112.230	0.380	-0.990	1.330
2020/01/31 12:34:26.3	112.250	0.390	-1.000	1.330
2020/01/31 12:34:26.4	112.260	0.400	-1.020	1.320
2020/01/31 12:34:26.5	112.260	0.410	-1.020	1.320
2020/01/31 12:34:26.6	112.270	0.420	-1.030	1.310
2020/01/31 12:34:26.7	112.280	0.420	-1.020	1.310
2020/01/31 12:34:26.8	112.290	0.420	-1.020	1.300
2020/01/31 12:34:26.9	112.300	0.420	-1.000	1.300
2020/01/31 12:34:27.0	112.310	0.420	-0.980	1.290
2020/01/31 12:34:27.1	112.320	0.410	-0.960	1.290
2020/01/31 12:34:27.2	112.320	0.400	-0.930	1.290
2020/01/31 12:34:27.3	112.320	0.390	-0.900	1.280
2020/01/31 12:34:27.4	112.330	0.380	-0.870	1.290
2020/01/31 12:34:27.5	112.310	0.360	-0.830	1.290
2020/01/31 12:34:27.6	112.310	0.350	-0.790	1.290
2020/01/31 12:34:27.7	112.300	0.330	-0.750	1.300
2020/01/31 12:34:27.8	112.300	0.310	-0.710	1.300
2020/01/31 12:34:27.9	112.290	0.290	-0.660	1.310
2020/01/31 12:34:28.0	112.280	0.270	-0.620	1.320
2020/01/31 12:34:28.1	112.270	0.250	-0.570	1.330
2020/01/31 12:34:28.2	112.260	0.230	-0.530	1.350
2020/01/31 12:34:28.3	112.240	0.210	-0.480	1.360
2020/01/31 12:34:28.4	112.220	0.190	-0.440	1.380
2020/01/31 12:34:28.5	112.210	0.170	-0.400	1.390
2020/01/31 12:34:28.6	112.190	0.150	-0.360	1.410
2020/01/31 12:34:28.7	112.170	0.130	-0.320	1.420
2020/01/31 12:34:28.8	112.150	0.110	-0.280	1.440
2020/01/31 12:34:28.9	112.120	0.090	-0.250	1.460
2020/01/31 12:34:29.0	112.100	0.070	-0.220	1.470
2020/01/31 12:34:29.1	112.070	0.060	-0.190	1.490
2020/01/31 12:34:29.2	112.040	0.040	-0.160	1.500
2020/01/31 12:34:29.3	112.020	0.030	-0.140	1.520
2020/01/31 12:34:29.4	111.990	0.020	-0.110	1.530
2020/01/31 12:34:29.5	111.970	0.010	-0.090	1.540
2020/01/31 12:34:29.6	111.940	-0.000	-0.070	1.550
2020/01/31 12:34:29.7	111.920	-0.010	-0.050	1.560
2020/01/31 12:34:29.8	111.890	-0.020	-0.030	1.570
2020/01/31 12:34:29.9	111.870	-0.030	-0.010	1.580
2020/01/31 12:34:30.0	111.840	-0.030	0.010	1.580
2020/01/31 12:34:30.1	111.820	-0.040	0.030	1.580
2020/01/31 12:34:30.2	111.800	-0.040	0.050	1.580
2020/01/31 12:34:30.3	111.780	-0.050	0.070	1.580
2020/01/31 12:34:30.4	111.760	-0.050	0.090	1.570
2020/01/31 12:34:30.5	111.760	-0.060	0.110	1.570
2020/01/31 12:34:30.6	111.740	-0.060	0.140	1.560
2020/01/31 12:34:30.7	111.730	-0.070	0.160	1.540
2020/01/31 12:34:30.8	111.710	-0.070	0.190	1.530
2020/01/31 12:34:30.9	111.700	-0.080	0.220	1.510
2020/01/31 12:34:31.0	111.690	-0.090	0.250	1.490
2020/01/31 12:34:31.1	111.680	-0.100	0.280	1.470
2020/01/31 12:34:31.2	111.670	-0.110	0.310	1.450
2020/01/31 12:34:31.3	111.670	-0.120	0.350	1.420
2020/01/31 12:34:31.4	111.660	-0.130	0.380	1.390
2020/01/31 12:34:31.5	111.670	-0.150	0.420	1.360
2020/01/31 12:34:31.6	111.660	-0.170	0.460	1.330
2020/01/31 12:34:31.7	111.660	-0.180	0.490	1.290
2020/01/31 12:34:31.8	111.660	-0.200	0.530	1.260
2020/01/31 12:34:31.9	111.660	-0.220	0.560	1.220
2020/01/31 12:34:32.0	111.660	-0.240	0.590	1.180
2020/01/31 12:34:32.1	111.660	-0.270	0.620	1.140
2020/01/31 12:34:32.2	111.660	-0.290	0.650	1.100
2020/01/31 12:34:32.3	111.670	-0.310	0.680	1.050
2020/01/31 12:34:32.4	111.670	-0.340	0.700	1.010
2020/01/31 12:34:32.5	111.660	-0.360	0.720	0.960
2020/01/31 12:34:32.6	111.670	-0.380	0.730	0.920
2020/01/31 12:34:32.7	111.670	-0.410	0.740	0.870
2020/01/31 12:34:32.8	111.680	-0.430	0.740	0.820
2020/01/31 12:34:32.9	111.680	-0.450	0.740	0.780
2020/01/31 12:34:33.0	111.690	-0.470	0.730	0.730
2020/01/31 12:34:33.1	111.690	-0.480	0.710	0.680
2020/01/31 12:34:33.2	111.700	-0.500	0.690	0.640
2020/01/31 12:34:33.3	111.700	-0.510	0.660	0.590
2020/01/31 12:34:33.4	111.700	-0.520	0.620	0.550
2020/01/31 12:34:33.5	111.710	-0.530	0.570	0.500
2020/01/31 12:34:33.6	111.710	-0.530	0.520	0.460
2020/01/31 12:34:33.7	111.720	-0.530	0.470	0.420
2020/01/31 12:34:33.8	111.720	-0.530	0.400	0.380
2020/01/31 12:34:33.9	111.720	-0.520	0.330	0.340
2020/01/31 12:34:34.0	111.720	-0.510	0.260	0.300
2020/01/31 12:34:34.1	111.720	-0.490	0.180	0.270
2020/01/31 12:34:34.2	111.730	-0.470	0.090	0.240
2020/01/31 12:34:34.3	111.730	-0.450	0.010	0.210
2020/01/31 12:34:34.4	111.730	-0.420	-0.090	0.180
2020/01/31 12:34:34.5	111.730	-0.390	-0.180	0.150
2020/01/31 12:34:34.6	111.730	-0.360	-0.270	0.130
2020/01/31 12:34:34.7	111.730	-0.320	-0.370	0.100
2020/01/31 12:34:34.8	111.730	-0.280	-0.460	0.080
2020/01/31 12:34:34.9	111.730	-0.230	-0.560	0.060
2020/01/31 12:34:35.0	111.730	-0.190	-0.650	0.050
2020/01/31 12:34:35.1	111.720	-0.140	-0.740	0.030
2020/01/31 12:34:35.2	111.720	-0.090	-0.830	0.020
2020/01/31 12:34:35.3	111.720	-0.030	-0.910	0.000
2020/01/31 12:34:35.4	111.720	0.020	-0.990	-0.010
2020/01/31 12:34:35.5	111.730	0.070	-1.070	-0.010
2020/01/31 12:34:35.6	111.730	0.130	-1.140	-0.020
2020/01/31 12:34:35.7	111.730	0.180	-1.200	-0.030
2020/01/31 12:34:35.8	111.730	0.240	-1.250	-0.030
2020/01/31 12:34:35.9	111.720	0.290	-1.300	-0.030
2020/01/31 12:34:36.0	111.720	0.340	-1.340	-0.030
2020/01/31 12:34:36.1	111.720	0.390	-1.380	-0.030
2020/01/31 12:34:36.2	111.720	0.430	-1.400	-0.030
2020/01/31 12:34:36.3	111.720	0.470	-1.420	-0.020
2020/01/31 12:34:36.4	111.720	0.510	-1.430	-0.010
2020/01/31 12:34:36.5	111.720	0.550	-1.430	-0.010
2020/01/31 12:34:36.6	111.720	0.580	-1.430	0.010
2020/01/31 12:34:36.7	111.720	0.610	-1.410	0.020
2020/01/31 12:34:36.8	111.720	0.640	-1.390	0.040
2020/01/31 12:34:36.9	111.720	0.660	-1.360	0.060
2020/01/31 12:34:37.0	111.710	0.670	-1.320	0.090
2020/01/31 12:34:37.1	111.710	0.680	-1.270	0.120
2020/01/31 12:34:37.2	111.700	0.690	-1.210	0.150
2020/01/31 12:34:37.3	111.700	0.690	-1.150	0.180
2020/01/31 12:34:37.4	111.690	0.690	-1.090	0.220
2020/01/31 12:34:37.5	111.680	0.680	-1.010	0.270
2020/01/31 12:34:37.6	111.670	0.670	-0.930	0.310
2020/01/31 12:34:37.7	111.660	0.650	-0.850	0.360
2020/01/31 12:34:37.8	111.650	0.630	-0.760	0.410
2020/01/31 12:34:37.9	111.630	0.600	-0.670	0.460
2020/01/31 12:34:38.0	111.620	0.570	-0.570	0.520
2020/01/31 12:34:38.1	111.600	0.540	-0.480	0.570
2020/01/31 12:34:38.2	111.580	0.510	-0.380	0.630
2020/01/31 12:34:38.3	111.570	0.470	-0.280	0.690
2020/01/31 12:34:38.4	111.550	0.430	-0.180	0.750
2020/01/31 12:34:38.5	111.530	0.380	-0.070	0.810
2020/01/31 12:34:38.6	111.500	0.340	0.020	0.870
2020/01/31 12:34:38.7	111.480	0.290	0.120	0.930
2020/01/31 12:34:38.8	111.460	0.240	0.220	0.990
2020/01/31 12:34:38.9	111.440	0.190	0.310	1.050
2020/01/31 12:34:39.0	111.410	0.150	0.400	1.110
2020/01/31 12:34:39.1	111.390	0.090	0.490	1.160
2020/01/31 12:34:39.2	111.370	0.040	0.580	1.220
2020/01/31 12:34:39.3	111.340	-0.010	0.650	1.270
2020/01/31 12:34:39.4	111.320	-0.060	0.730	1.320
2020/01/31 12:34:39.5	111.290	-0.110	0.800	1.370
2020/01/31 12:34:39.6	111.270	-0.150	0.860	1.420
2020/01/31 12:34:39.7	111.250	-0.200	0.920	1.460
2020/01/31 12:34:39.8	111.230	-0.240	0.970	1.500
2020/01/31 12:34:39.9	111.220	-0.290	1.020	1.540
2020/01/31 12:34:40.0	111.200	-0.330	1.050	1.570
2020/01/31 12:34:40.1	111.190	-0.370	1.080	1.600
2020/01/31 12:34:40.2	111.180	-0.410	1.110	1.630
2020/01/31 12:34:40.3	111.170	-0.440	1.120	1.650
2020/01/31 12:34:40.4	111.160	-0.470	1.130	1.680
2020/01/31 12:34:40.5	111.150	-0.500	1.130	1.690
2020/01/31 12:34:40.6	111.150	-0.520	1.120	1.710
2020/01/31 12:34:40.7	111.140	-0.540	1.100	1.720
2020/01/31 12:34:40.8	111.140	-0.560	1.080	1.740
2020/01/31 12:34:40.9	111.140	-0.580	1.050	1.750
2020/01/31 12:34:41.0	111.140	-0.590	1.010	1.760
2020/01/31 12:34:41.1	111.130	-0.600	0.960	1.760
2020/01/31 12:34:41.2	111.130	-0.600	0.910	1.770
2020/01/31 12:34:41.3	111.130	-0.600	0.840	1.780
2020/01/31 12:34:41.4	111.130	-0.600	0.770	1.780
2020/01/31 12:34:41.5	111.120	-0.590	0.700	1.790
2020/01/31 12:34:41.6	111.120	-0.580	0.620	1.800
2020/01/31 12:34:41.7	111.110	-0.560	0.530	1.800
2020/01/31 12:34:41.8	111.110	-0.540	0.440	1.810
2020/01/31 12:34:41.9	111.100	-0.520	0.340	1.820
2020/01/31 12:34:42.0	111.100	-0.500	0.240	1.820
2020/01/31 12:34:42.1	111.090	-0.470	0.140	1.830
2020/01/31 12:34:42.2	111.090	-0.440	0.040	1.830
2020/01/31 12:34:42.3	111.080	-0.400	-0.070	1.840
2020/01/31 12:34:42.4	111.070	-0.360	-0.180	1.850
2020/01/31 12:34:42.5	111.070	-0.330	-0.280	1.850
2020/01/31 12:34:42.6	111.060	-0.290	-0.390	1.850
2020/01/31 12:34:42.7	111.050	-0.240	-0.490	1.850
2020/01/31 12:34:42.8	111.050	-0.200	-0.600	1.850
2020/01/31 12:34:42.9	111.040	-0.160	-0.700	1.850
2020/01/31 12:34:43.0	111.040	-0.110	-0.790	1.850
2020/01/31 12:34:43.1	111.040	-0.070	-0.880	1.840
2020/01/31 12:34:43.2	111.040	-0.020	-0.960	1.830
2020/01/31 12:34:43.3	111.030	0.020	-1.040	1.820
2020/01/31 12:34:43.4	111.030	0.070	-1.110	1.810
2020/01/31 12:34:43.5	111.040	0.110	-1.170	1.790
2020/01/31 12:34:43.6	111.040	0.150	-1.230	1.770
2020/01/31 12:34:43.7	111.050	0.190	-1.280	1.750
2020/01/31 12:34:43.8	111.050	0.230	-1.310	1.730
2020/01/31 12:34:43.9	111.050	0.260	-1.340	1.700
2020/01/31 12:34:44.0	111.060	0.300	-1.360	1.680
2020/01/31 12:34:44.1	111.060	0.330	-1.380	1.640
2020/01/31 12:34:44.2	111.070	0.360	-1.380	1.610
2020/01/31 12:34:44.3	111.080	0.380	-1.370	1.570
2020/01/31 12:34:44.4	111.080	0.400	-1.360	1.540
2020/01/31 12:34:44.5	111.090	0.420	-1.340	1.490
2020/01/31 12:34:44.6	111.100	0.440	-1.310	1.450
2020/01/31 12:34:44.7	111.100	0.450	-1.270	1.410
2020/01/31 12:34:44.8	111.110	0.470	-1.220	1.370
2020/01/31 12:34:44.9	111.110	0.470	-1.170	1.320
2020/01/31 12:34:45.0	111.110	0.480	-1.120	1.280
2020/01/31 12:34:45.1	111.120	0.480	-1.050	1.230
2020/01/31 12:34:45.2	111.110	0.480	-0.990	1.190
2020/01/31 12:34:45.3	111.110	0.480	-0.920	1.140
2020/01/31 12:34:45.4	111.110	0.470	-0.840	1.100
2020/01/31 12:34:45.5	111.110	0.460	-0.770	1.060
2020/01/31 12:34:45.6	111.100	0.450	-0.690	1.020
2020/01/31 12:34:45.7	111.090	0.440	-0.610	0.980
2020/01/31 12:34:45.8	111.080	0.430	-0.530	0.950
2020/01/31 12:34:45.9	111.060	0.410	-0.450	0.920
2020/01/31 12:34:46.0	111.040	0.400	-0.370	0.890
2020/01/31 12:34:46.1	111.020	0.380	-0.290	0.860
2020/01/31 12:34:46.2	111.000	0.360	-0.220	0.830
2020/01/31 12:34:46.3	110.980	0.350	-0.140	0.810
2020/01/31 12:34:46.4	110.950	0.330	-0.070	0.790
2020/01/31 12:34:46.5	110.930	0.310	0.000	0.760
2020/01/31 12:34:46.6	110.900	0.290	0.070	0.740
2020/01/31 12:34:46.7	110.880	0.270	0.130	0.720
2020/01/31 12:34:46.8	110.850	0.260	0.200	0.710
2020/01/31 12:34:46.9	110.820	0.240	0.250	0.690
2020/01/31 12:34:47.0	110.800	0.220	0.310	0.670
2020/01/31 12:34:47.1	110.780	0.200	0.360	0.650
2020/01/31 12:34:47.2	110.750	0.190	0.410	0.630
2020/01/31 12:34:47.3	110.730	0.170	0.460	0.610
2020/01/31 12:34:47.4	110.710	0.160	0.500	0.590
2020/01/31 12:34:47.5	110.690	0.140	0.540	0.570
2020/01/31 12:34:47.6	110.670	0.120	0.580	0.540
2020/01/31 12:34:47.7	110.650	0.110	0.610	0.520
2020/01/31 12:34:47.8	110.640	0.090	0.640	0.500
2020/01/31 12:34:47.9	110.630	0.080	0.660	0.480
2020/01/31 12:34:48.0	110.620	0.060	0.690	0.450
2020/01/31 12:34:48.1	110.620	0.050	0.710	0.430
2020/01/31 12:34:48.2	110.610	0.030	0.720	0.400
2020/01/31 12:34:48.3	110.610	0.020	0.730	0.380
2020/01/31 12:34:48.4	110.610	-0.000	0.740	0.350
2020/01/31 12:34:48.5	110.590	-0.020	0.740	0.330
2020/01/31 12:34:48.6	110.590	-0.030	0.750	0.300
2020/01/31 12:34:48.7	110.600	-0.050	0.740	0.280
2020/01/31 12:34:48.8	110.600	-0.070	0.740	0.250
2020/01/31 12:34:48.9	110.610	-0.080	0.720	0.230
2020/01/31 12:34:49.0	110.620	-0.100	0.710	0.210
2020/01/31 12:34:49.1	110.630	-0.120	0.690	0.180
2020/01/31 12:34:49.2	110.640	-0.130	0.670	0.160
2020/01/31 12:34:49.3	110.660	-0.150	0.640	0.150
2020/01/31 12:34:49.4	110.670	-0.170	0.610	0.130
2020/01/31 12:34:49.5	110.670	-0.180	0.570	0.120
2020/01/31 12:34:49.6	110.690	-0.200	0.530	0.110
2020/01/31 12:34:49.7	110.700	-0.210	0.490	0.100
2020/01/31 12:34:49.8	110.710	-0.220	0.440	0.090
2020/01/31 12:34:49.9	110.720	-0.230	0.380	0.090
2020/01/31 12:34:50.0	110.730	-0.240	0.330	0.090
2020/01/31 12:34:50.1	110.740	-0.250	0.260	0.100
2020/01/31 12:34:50.2	110.750	-0.260	0.200	0.100
2020/01/31 12:34:50.3	110.760	-0.260	0.130	0.110
2020/01/31 12:34:50.4	110.770	-0.260	0.050	0.130
2020/01/31 12:34:50.5	110.790	-0.270	-0.020	0.140
2020/01/31 12:34:50.6	110.790	-0.270	-0.100	0.160
2020/01/31 12:34:50.7	110.800	-0.260	-0.180	0.180
2020/01/31 12:34:50.8	110.800	-0.260	-0.260	0.210
2020/01/31 12:34:50.9	110.810	-0.250	-0.350	0.230
2020/01/31 12:34:51.0	110.810	-0.250	-0.430	0.260
2020/01/31 12:34:51.1	110.820	-0.240	-0.520	0.290
2020/01/31 12:34:51.2	110.820	-0.230	-0.600	0.330
2020/01/31 12:34:51.3	110.830	-0.210	-0.680	0.370
2020/01/31 12:34:51.4	110.830	-0.200	-0.760	0.410
2020/01/31 12:34:51.5	110.850	-0.180	-0.840	0.450
2020/01/31 12:34:51.6	110.850	-0.170	-0.920	0.500
2020/01/31 12:34:51.7	110.850	-0.150	-0.990	0.550
2020/01/31 12:34:51.8	110.850	-0.130	-1.060	0.600
2020/01/31 12:34:51.9	110.850	-0.110	-1.120	0.650
2020/01/31 12:34:52.0	110.850	-0.090	-1.180	0.710
2020/01/31 12:34:52.1	110.840	-0.070	-1.230	0.770
2020/01/31 12:34:52.2	110.840	-0.050	-1.270	0.830
2020/01/31 12:34:52.3	110.830	-0.030	-1.310	0.900
2020/01/31 12:34:52.4	110.830	-0.010	-1.340	0.970
2020/01/31 12:34:52.5	110.810	0.000	-1.360	1.040
2020/01/31 12:34:52.6	110.800	0.020	-1.380	1.110
2020/01/31 12:34:52.7	110.790	0.040	-1.390	1.190
2020/01/31 12:34:52.8	110.780	0.060	-1.390	1.270
2020/01/31 12:34:52.9	110.760	0.070	-1.380	1.350
2020/01/31 12:34:53.0	110.750	0.090	-1.360	1.430
2020/01/31 12:34:53.1	110.730	0.100	-1.340	1.520
2020/01/31 12:34:53.2	110.720	0.110	-1.310	1.600
2020/01/31 12:34:53.3	110.700	0.120	-1.270	1.690
2020/01/31 12:34:53.4	110.680	0.120	-1.220	1.780
2020/01/31 12:34:53.5	110.660	0.130	-1.170	1.870
2020/01/31 12:34:53.6	110.640	0.130	-1.110	1.950
2020/01/31 12:34:53.7	110.620	0.130	-1.040	2.030
2020/01/31 12:34:53.8	110.600	0.130	-0.970	2.120
2020/01/31 12:34:53.9	110.580	0.120	-0.890	2.190
2020/01/31 12:34:54.0	110.570	0.110	-0.810	2.270
2020/01/31 12:34:54.1	110.550	0.100	-0.730	2.340
2020/01/31 12:34:54.2	110.530	0.090	-0.640	2.410
2020/01/31 12:34:54.3	110.520	0.080	-0.540	2.470
2020/01/31 12:34:54.4	110.500	0.060	-0.450	2.530
2020/01/31 12:34:54.5	110.470	0.040	-0.340	2.590
2020/01/31 12:34:54.6	110.460	0.030	-0.250	2.640
2020/01/31 12:34:54.7	110.450	0.000	-0.150	2.680
2020/01/31 12:34:54.8	110.440	-0.020	-0.050	2.720
2020/01/31 12:34:54.9	110.430	-0.040	0.050	2.750
2020/01/31 12:34:55.0	110.420	-0.070	0.150	2.780
2020/01/31 12:34:55.1	110.420	-0.090	0.240	2.800
2020/01/31 12:34:55.2	110.420	-0.120	0.340	2.810
2020/01/31 12:34:55.3	110.410	-0.140	0.430	2.810
2020/01/31 12:34:55.4	110.410	-0.170	0.510	2.810
2020/01/31 12:34:55.5	110.420	-0.190	0.600	2.810
2020/01/31 12:34:55.6	110.420	-0.220	0.680	2.800
2020/01/31 12:34:55.7	110.430	-0.240	0.750	2.770
2020/01/31 12:34:55.8	110.440	-0.270	0.810	2.740
2020/01/31 12:34:55.9	110.450	-0.290	0.870	2.710
2020/01/31 12:34:56.0	110.460	-0.310	0.930	2.670
2020/01/31 12:34:56.1	110.470	-0.330	0.980	2.620
2020/01/31 12:34:56.2	110.480	-0.350	1.020	2.560
2020/01/31 12:34:56.3	110.500	-0.360	1.050	2.500
2020/01/31 12:34:56.4	110.520	-0.380	1.080	2.440
2020/01/31 12:34:56.5	110.540	-0.390	1.100	2.360
2020/01/31 12:34:56.6	110.560	-0.390	1.110	2.280
2020/01/31 12:34:56.7	110.580	-0.400	1.110	2.200
2020/01/31 12:34:56.8	110.600	-0.400	1.110	2.120
2020/01/31 12:34:56.9	110.620	-0.400	1.100	2.030
2020/01/31 12:34:57.0	110.640	-0.400	1.090	1.940
2020/01/31 12:34:57.1	110.660	-0.390	1.060	1.850
2020/01/31 12:34:57.2	110.680	-0.380	1.030	1.760
2020/01/31 12:34:57.3	110.700	-0.370	1.000	1.660
2020/01/31 12:34:57.4	110.720	-0.350	0.950	1.570
2020/01/31 12:34:57.5	110.730	-0.340	0.900	1.470
2020/01/31 12:34:57.6	110.750	-0.310	0.850	1.370
2020/01/31 12:34:57.7	110.770	-0.290	0.790	1.280
2020/01/31 12:34:57.8	110.780	-0.260	0.730	1.190
2020/01/31 12:34:57.9	110.790	-0.240	0.660	1.090
2020/01/31 12:34:58.0	110.810	-0.200	0.590	1.000
2020/01/31 12:34:58.1	110.820	-0.170	0.510	0.910
2020/01/31 12:34:58.2	110.820	-0.140	0.430	0.820
2020/01/31 12:34:58.3	110.830	-0.100	0.350	0.740
2020/01/31 12:34:58.4	110.840	-0.060	0.270	0.660
2020/01/31 12:34:58.5	110.840	-0.020	0.190	0.570
2020/01/31 12:34:58.6	110.840	0.010	0.110	0.500
2020/01/31 12:34:58.7	110.840	0.050	0.020	0.420
2020/01/31 12:34:58.8	110.840	0.090	-0.060	0.350
2020/01/31 12:34:58.9	110.840	0.130	-0.150	0.270
2020/01/31 12:34:59.0	110.830	0.170	-0.230	0.210
2020/01/31 12:34:59.1	110.830	0.210	-0.310	0.140
2020/01/31 12:34:59.2	110.820	0.250	-0.390	0.080
2020/01/31 12:34:59.3	110.820	0.290	-0.470	0.020
2020/01/31 12:34:59.4	110.810	0.320	-0.550	-0.040
2020/01/31 12:34:59.5	110.800	0.360	-0.620	-0.100
2020/01/31 12:34:59.6	110.800	0.390	-0.690	-0.160
2020/01/31 12:34:59.7	110.790	0.420	-0.760	-0.210
2020/01/31 12:34:59.8	110.780	0.450	-0.820	-0.260
2020/01/31 12:34:59.9	110.780	0.480	-0.880	-0.310
2020/01/31 12:35:00.0	110.770	0.500	-0.930	-0.350
2020/01/31 12:35:00.1	110.760	0.530	-0.980	-0.400
2020/01/31 12:35:00.2	110.750	0.550	-1.030	-0.440
2020/01/31 12:35:00.3	110.750	0.570	-1.070	-0.480
2020/01/31 12:35:00.4	110.740	0.590	-1.110	-0.510
2020/01/31 12:35:00.5	110.740	0.600	-1.140	-0.540
2020/01/31 12:35:00.6	110.730	0.620	-1.170	-0.580
2020/01/31 12:35:00.7	110.720	0.630	-1.200	-0.610
2020/01/31 12:35:00.8	110.720	0.640	-1.220	-0.630
2020/01/31 12:35:00.9	110.710	0.640	-1.240	-0.660
2020/01/31 12:35:01.0	110.710	0.650	-1.250	-0.680
2020/01/31 12:35:01.1	110.710	0.650	-1.270	-0.700
2020/01/31 12:35:01.2	110.710	0.660	-1.270	-0.710
2020/01/31 12:35:01.3	110.700	0.660	-1.280	-0.720
2020/01/31 12:35:01.4	110.700	0.650	-1.270	-0.730
2020/01/31 12:35:01.5	110.700	0.650	-1.270	-0.730
2020/01/31 12:35:01.6	110.700	0.640	-1.260	-0.730
2020/01/31 12:35:01.7	110.700	0.640	-1.240	-0.730
2020/01/31 12:35:01.8	110.710	0.630	-1.220	-0.720
2020/01/31 12:35:01.9	110.710	0.620	-1.200	-0.700
2020/01/31 12:35:02.0	110.710	0.600	-1.170	-0.680
2020/01/31 12:35:02.1	110.720	0.590	-1.140	-0.660
2020/01/31 12:35:02.2	110.720	0.570	-1.100	-0.630
2020/01/31 12:35:02.3	110.720	0.560	-1.060	-0.600
2020/01/31 12:35:02.4	110.730	0.540	-1.020	-0.560
2020/01/31 12:35:02.5	110.720	0.520	-0.960	-0.510
2020/01/31 12:35:02.6	110.720	0.490	-0.910	-0.460
2020/01/31 12:35:02.7	110.730	0.470	-0.850	-0.400
2020/01/31 12:35:02.8	110.730	0.450	-0.780	-0.340
2020/01/31 12:35:02.9	110.730	0.420	-0.720	-0.280
2020/01/31 12:35:03.0	110.730	0.390	-0.650	-0.200
2020/01/31 12:35:03.1	110.730	0.360	-0.570	-0.130
2020/01/31 12:35:03.2	110.730	0.330	-0.500	-0.040
2020/01/31 12:35:03.3	110.730	0.300	-0.420	0.040
2020/01/31 12:35:03.4	110.730	0.270	-0.340	0.130
2020/01/31 12:35:03.5	110.740	0.230	-0.260	0.230
2020/01/31 12:35:03.6	110.730	0.200	-0.180	0.330
2020/01/31 12:35:03.7	110.730	0.160	-0.100	0.430
2020/01/31 12:35:03.8	110.720	0.130	-0.020	0.530
2020/01/31 12:35:03.9	110.720	0.090	0.060	0.640
2020/01/31 12:35:04.0	110.710	0.050	0.140	0.740
2020/01/31 12:35:04.1	110.700	0.010	0.210	0.850
2020/01/31 12:35:04.2	110.700	-0.020	0.290	0.960
2020/01/31 12:35:04.3	110.690	-0.060	0.360	1.070
2020/01/31 12:35:04.4	110.690	-0.100	0.420	1.180
2020/01/31 12:35:04.5	110.690	-0.130	0.490	1.290
2020/01/31 12:35:04.6	110.690	-0.170	0.550	1.400
2020/01/31 12:35:04.7	110.680	-0.210	0.600	1.500
2020/01/31 12:35:04.8	110.680	-0.240	0.650	1.600
2020/01/31 12:35:04.9	110.680	-0.280	0.690	1.700
2020/01/31 12:35:05.0	110.680	-0.310	0.730	1.800
2020/01/31 12:35:05.1	110.680	-0.340	0.760	1.890
2020/01/31 12:35:05.2	110.690	-0.370	0.780	1.980
2020/01/31 12:35:05.3	110.690	-0.400	0.800	2.060
2020/01/31 12:35:05.4	110.700	-0.430	0.820	2.140
2020/01/31 12:35:05.5	110.720	-0.460	0.830	2.220
2020/01/31 12:35:05.6	110.730	-0.480	0.830	2.290
2020/01/31 12:35:05.7	110.740	-0.510	0.830	2.350
2020/01/31 12:35:05.8	110.760	-0.530	0.820	2.410
2020/01/31 12:35:05.9	110.770	-0.550	0.810	2.460
2020/01/31 12:35:06.0	110.790	-0.570	0.800	2.510
2020/01/31 12:35:06.1	110.810	-0.590	0.780	2.550
2020/01/31 12:35:06.2	110.830	-0.600	0.750	2.590
2020/01/31 12:35:06.3	110.860	-0.610	0.730	2.630
2020/01/31 12:35:06.4	110.880	-0.620	0.700	2.650
2020/01/31 12:35:06.5	110.920	-0.630	0.670	2.680
2020/01/31 12:35:06.6	110.940	-0.640	0.640	2.700
2020/01/31 12:35:06.7	110.970	-0.650	0.610	2.710
2020/01/31 12:35:06.8	111.000	-0.650	0.570	2.720
2020/01/31 12:35:06.9	111.020	-0.650	0.530	2.730
2020/01/31 12:35:07.0	111.050	-0.650	0.500	2.740
2020/01/31 12:35:07.1	111.070	-0.650	0.460	2.740
2020/01/31 12:35:07.2	111.090	-0.640	0.420	2.740
2020/01/31 12:35:07.3	111.120	-0.640	0.380	2.740
2020/01/31 12:35:07.4	111.140	-0.630	0.340	2.730
2020/01/31 12:35:07.5	111.150	-0.620	0.300	2.730
2020/01/31 12:35:07.6	111.170	-0.600	0.260	2.720
2020/01/31 12:35:07.7	111.190	-0.590	0.220	2.710
2020/01/31 12:35:07.8	111.200	-0.570	0.180	2.700
2020/01/31 12:35:07.9	111.210	-0.550	0.140	2.690
2020/01/31 12:35:08.0	111.220	-0.530	0.100	2.680
2020/01/31 12:35:08.1	111.220	-0.510	0.050	2.660
2020/01/31 12:35:08.2	111.230	-0.490	0.010	2.640
2020/01/31 12:35:08.3	111.230	-0.460	-0.030	2.620
2020/01/31 12:35:08.4	111.230	-0.440	-0.080	2.600
2020/01/31 12:35:08.5	111.240	-0.410	-0.120	2.580
2020/01/31 12:35:08.6	111.240	-0.380	-0.170	2.550
2020/01/31 12:35:08.7	111.240	-0.350	-0.220	2.530
2020/01/31 12:35:08.8	111.230	-0.320	-0.270	2.500
2020/01/31 12:35:08.9	111.230	-0.280	-0.310	2.470
2020/01/31 12:35:09.0	111.220	-0.250	-0.360	2.440
2020/01/31 12:35:09.1	111.210	-0.220	-0.410	2.400
2020/01/31 12:35:09.2	111.210	-0.180	-0.460	2.360
2020/01/31 12:35:09.3	111.200	-0.150	-0.510	2.320
2020/01/31 12:35:09.4	111.190	-0.110	-0.560	2.280
2020/01/31 12:35:09.5	111.200	-0.080	-0.610	2.230
2020/01/31 12:35:09.6	111.190	-0.040	-0.650	2.190
2020/01/31 12:35:09.7	111.180	-0.010	-0.700	2.130
2020/01/31 12:35:09.8	111.180	0.020	-0.740	2.080
2020/01/31 12:35:09.9	111.170	0.050	-0.780	2.030
2020/01/31 12:35:10.0	111.170	0.090	-0.820	1.970
2020/01/31 12:35:10.1	111.160	0.120	-0.860	1.910
2020/01/31 12:35:10.2	111.160	0.150	-0.890	1.850
2020/01/31 12:35:10.3	111.160	0.170	-0.920	1.780
2020/01/31 12:35:10.4	111.150	0.200	-0.950	1.720
2020/01/31 12:35:10.5	111.150	0.220	-0.970	1.640
2020/01/31 12:35:10.6	111.150	0.240	-0.990	1.570
2020/01/31 12:35:10.7	111.150	0.260	-1.000	1.500
2020/01/31 12:35:10.8	111.150	0.280	-1.010	1.430
2020/01/31 12:35:10.9	111.150	0.300	-1.020	1.360
2020/01/31 12:35:11.0	111.150	0.310	-1.020	1.290
2020/01/31 12:35:11.1	111.160	0.320	-1.020	1.210
2020/01/31 12:35:11.2	111.160	0.330	-1.010	1.140
2020/01/31 12:35:11.3	111.160	0.340	-1.000	1.070
2020/01/31 12:35:11.4	111.170	0.340	-0.980	0.990
2020/01/31 12:35:11.5	111.170	0.350	-0.960	0.920
2020/01/31 12:35:11.6	111.170	0.350	-0.940	0.850
2020/01/31 12:35:11.7	111.180	0.350	-0.910	0.770
2020/01/31 12:35:11.8	111.190	0.340	-0.880	0.700
2020/01/31 12:35:11.9	111.210	0.340	-0.840	0.630
2020/01/31 12:35:12.0	111.220	0.330	-0.800	0.560
2020/01/31 12:35:12.1	111.230	0.320	-0.760	0.490
2020/01/31 12:35:12.2	111.250	0.310	-0.710	0.420
2020/01/31 12:35:12.3	111.260	0.300	-0.670	0.350
2020/01/31 12:35:12.4	111.280	0.290	-0.620	0.280
2020/01/31 12:35:12.5	111.270	0.280	-0.560	0.210
2020/01/31 12:35:12.6	111.290	0.260	-0.510	0.150
2020/01/31 12:35:12.7	111.310	0.250	-0.450	0.090
2020/01/31 12:35:12.8	111.320	0.230	-0.400	0.030
2020/01/31 12:35:12.9	111.340	0.220	-0.340	-0.030
2020/01/31 12:35:13.0	111.360	0.200	-0.280	-0.090
2020/01/31 12:35:13.1	111.380	0.190	-0.220	-0.140
2020/01/31 12:35:13.2	111.400	0.170	-0.170	-0.190
2020/01/31 12:35:13.3	111.410	0.160	-0.110	-0.240
2020/01/31 12:35:13.4	111.430	0.150	-0.060	-0.280
2020/01/31 12:35:13.5	111.450	0.140	-0.000	-0.320
2020/01/31 12:35:13.6	111.470	0.120	0.050	-0.360
2020/01/31 12:35:13.7	111.480	0.110	0.090	-0.400
2020/01/31 12:35:13.8	111.490	0.100	0.140	-0.430
2020/01/31 12:35:13.9	111.500	0.100	0.180	-0.460
2020/01/31 12:35:14.0	111.510	0.090	0.220	-0.480
2020/01/31 12:35:14.1	111.520	0.080	0.260	-0.500
2020/01/31 12:35:14.2	111.530	0.080	0.290	-0.520
2020/01/31 12:35:14.3	111.540	0.070	0.320	-0.540
2020/01/31 12:35:14.4	111.540	0.070	0.350	-0.550
2020/01/31 12:35:14.5	111.530	0.070	0.380	-0.550
2020/01/31 12:35:14.6	111.530	0.070	0.400	-0.550
2020/01/31 12:35:14.7	111.530	0.070	0.410	-0.550
2020/01/31 12:35:14.8	111.530	0.070	0.420	-0.550
2020/01/31 12:35:14.9	111.530	0.070	0.430	-0.540
2020/01/31 12:35:15.0	111.530	0.070	0.440	-0.520
2020/01/31 12:35:15.1	111.520	0.080	0.440	-0.510
2020/01/31 12:35:15.2	111.520	0.080	0.440	-0.490
2020/01/31 12:35:15.3	111.510	0.090	0.440	-0.470
2020/01/31 12:35:15.4	111.510	0.090	0.430	-0.440
2020/01/31 12:35:15.5	111.500	0.090	0.420	-0.410
2020/01/31 12:35:15.6	111.490	0.100	0.410	-0.380
2020/01/31 12:35:15.7	111.480	0.100	0.400	-0.340
2020/01/31 12:35:15.8	111.470	0.110	0.390	-0.310
2020/01/31 12:35:15.9	111.470	0.110	0.370	-0.270
2020/01/31 12:35:16.0	111.460	0.110	0.360	-0.220
2020/01/31 12:35:16.1	111.450	0.120	0.340	-0.180
2020/01/31 12:35:16.2	111.440	0.120	0.320	-0.130
2020/01/31 12:35:16.3	111.430	0.120	0.300	-0.080
2020/01/31 12:35:16.4	111.430	0.120	0.290	-0.020
2020/01/31 12:35:16.5	111.430	0.120	0.270	0.030
2020/01/31 12:35:16.6	111.430	0.120	0.260	0.090
2020/01/31 12:35:16.7	111.420	0.120	0.240	0.140
2020/01/31 12:35:16.8	111.410	0.120	0.220	0.200
2020/01/31 12:35:16.9	111.410	0.120	0.200	0.260
2020/01/31 12:35:17.0	111.400	0.110	0.190	0.320
2020/01/31 12:35:17.1	111.400	0.110	0.170	0.380
2020/01/31 12:35:17.2	111.400	0.100	0.160	0.440
2020/01/31 12:35:17.3	111.390	0.100	0.140	0.500
2020/01/31 12:35:17.4	111.390	0.090	0.130	0.560
2020/01/31 12:35:17.5	111.390	0.090	0.120	0.630
2020/01/31 12:35:17.6	111.390	0.080	0.100	0.690
2020/01/31 12:35:17.7	111.390	0.070	0.090	0.740
2020/01/31 12:35:17.8	111.390	0.070	0.080	0.800
2020/01/31 12:35:17.9	111.400	0.060	0.060	0.860
2020/01/31 12:35:18.0	111.400	0.060	0.050	0.910
2020/01/31 12:35:18.1	111.400	0.050	0.030	0.960
2020/01/31 12:35:18.2	111.400	0.050	0.020	1.020
2020/01/31 12:35:18.3	111.410	0.040	-0.000	1.070
2020/01/31 12:35:18.4	111.410	0.040	-0.020	1.120
2020/01/31 12:35:18.5	111.420	0.040	-0.040	1.160
2020/01/31 12:35:18.6	111.420	0.030	-0.070	1.210
2020/01/31 12:35:18.7	111.430	0.030	-0.100	1.250
2020/01/31 12:35:18.8	111.440	0.040	-0.130	1.290
2020/01/31 12:35:18.9	111.450	0.040	-0.160	1.330
2020/01/31 12:35:19.0	111.460	0.040	-0.200	1.360
2020/01/31 12:35:19.1	111.470	0.050	-0.240	1.400
2020/01/31 12:35:19.2	111.490	0.050	-0.290	1.430
2020/01/31 12:35:19.3	111.500	0.060	-0.340	1.460
2020/01/31 12:35:19.4	111.510	0.070	-0.390	1.490
2020/01/31 12:35:19.5	111.540	0.080	-0.440	1.520
2020/01/31 12:35:19.6	111.560	0.090	-0.500	1.550
2020/01/31 12:35:19.7	111.570	0.100	-0.560	1.580
2020/01/31 12:35:19.8	111.590	0.110	-0.610	1.600
2020/01/31 12:35:19.9	111.600	0.130	-0.670	1.630
2020/01/31 12:35:20.0	111.620	0.140	-0.730	1.650
2020/01/31 12:35:20.1	111.640	0.150	-0.790	1.680
2020/01/31 12:35:20.2	111.650	0.170	-0.850	1.710
2020/01/31 12:35:20.3	111.670	0.180	-0.900	1.730
2020/01/31 12:35:20.4	111.680	0.190	-0.950	1.760
2020/01/31 12:35:20.5	111.680	0.200	-1.000	1.790
2020/01/31 12:35:20.6	111.690	0.210	-1.050	1.820
2020/01/31 12:35:20.7	111.700	0.220	-1.080	1.860
2020/01/31 12:35:20.8	111.710	0.230	-1.120	1.890
2020/01/31 12:35:20.9	111.720	0.230	-1.140	1.920
2020/01/31 12:35:21.0	111.730	0.240	-1.160	1.950
2020/01/31 12:35:21.1	111.730	0.240	-1.170	1.990
2020/01/31 12:35:21.2	111.730	0.240	-1.170	2.020
2020/01/31 12:35:21.3	111.730	0.230	-1.160	2.060
2020/01/31 12:35:21.4	111.740	0.220	-1.140	2.090
2020/01/31 12:35:21.5	111.720	0.210	-1.110	2.130
2020/01/31 12:35:21.6	111.720	0.200	-1.080	2.160
2020/01/31 12:35:21.7	111.720	0.190	-1.040	2.190
2020/01/31 12:35:21.8	111.720	0.170	-0.980	2.220
2020/01/31 12:35:21.9	111.710	0.150	-0.920	2.260
2020/01/31 12:35:22.0	111.710	0.120	-0.850	2.280
2020/01/31 12:35:22.1	111.700	0.100	-0.780	2.310
2020/01/31 12:35:22.2	111.700	0.070	-0.690	2.330
2020/01/31 12:35:22.3	111.690	0.030	-0.610	2.360
2020/01/31 12:35:22.4	111.690	0.000	-0.510	2.380
2020/01/31 12:35:22.5	111.670	-0.030	-0.410	2.390
2020/01/31 12:35:22.6	111.670	-0.070	-0.310	2.400
2020/01/31 12:35:22.7	111.660	-0.110	-0.210	2.420
2020/01/31 12:35:22.8	111.660	-0.150	-0.110	2.420
2020/01/31 12:35:22.9	111.650	-0.180	-0.000	2.430
2020/01/31 12:35:23.0	111.650	-0.220	0.100	2.430
2020/01/31 12:35:23.1	111.640	-0.260	0.200	2.430
2020/01/31 12:35:23.2	111.640	-0.300	0.300	2.420
2020/01/31 12:35:23.3	111.630	-0.330	0.390	2.410
2020/01/31 12:35:23.4	111.620	-0.370	0.480	2.400
2020/01/31 12:35:23.5	111.620	-0.400	0.560	2.380
2020/01/31 12:35:23.6	111.620	-0.430	0.640	2.360
2020/01/31 12:35:23.7	111.610	-0.460	0.710	2.340
2020/01/31 12:35:23.8	111.600	-0.490	0.770	2.310
2020/01/31 12:35:23.9	111.590	-0.510	0.830	2.280
2020/01/31 12:35:24.0	111.590	-0.530	0.870	2.240
2020/01/31 12:35:24.1	111.580	-0.550	0.910	2.210
2020/01/31 12:35:24.2	111.570	-0.560	0.930	2.160
2020/01/31 12:35:24.3	111.570	-0.570	0.950	2.120
2020/01/31 12:35:24.4	111.560	-0.580	0.960	2.070
2020/01/31 12:35:24.5	111.540	-0.580	0.960	2.020
2020/01/31 12:35:24.6	111.530	-0.580	0.950	1.960
2020/01/31 12:35:24.7	111.530	-0.570	0.930	1.910
2020/01/31 12:35:24.8	111.520	-0.560	0.900	1.850
2020/01/31 12:35:24.9	111.520	-0.550	0.860	1.780
2020/01/31 12:35:25.0	111.520	-0.530	0.820	1.720
2020/01/31 12:35:25.1	111.520	-0.510	0.770	1.650
2020/01/31 12:35:25.2	111.520	-0.480	0.710	1.580
2020/01/31 12:35:25.3	111.530	-0.460	0.650	1.510
2020/01/31 12:35:25.4	111.530	-0.430	0.580	1.440
2020/01/31 12:35:25.5	111.560	-0.390	0.500	1.370
2020/01/31 12:35:25.6	111.560	-0.360	0.430	1.290
2020/01/31 12:35:25.7	111.570	-0.320	0.350	1.220
2020/01/31 12:35:25.8	111.580	-0.290	0.260	1.140
2020/01/31 12:35:25.9	111.580	-0.250	0.180	1.060
2020/01/31 12:35:26.0	111.590	-0.210	0.090	0.990
2020/01/31 12:35:26.1	111.590	-0.170	0.010	0.910
2020/01/31 12:35:26.2	111.600	-0.130	-0.080	0.840
2020/01/31 12:35:26.3	111.610	-0.090	-0.160	0.760
2020/01/31 12:35:26.4	111.610	-0.050	-0.240	0.690
2020/01/31 12:35:26.5	111.630	-0.010	-0.320	0.620
2020/01/31 12:35:26.6	111.630	0.030	-0.400	0.540
2020/01/31 12:35:26.7	111.630	0.060	-0.480	0.480
2020/01/31 12:35:26.8	111.630	0.100	-0.550	0.410
2020/01/31 12:35:26.9	111.630	0.130	-0.620	0.340
2020/01/31 12:35:27.0	111.630	0.160	-0.680	0.280
2020/01/31 12:35:27.1	111.630	0.190	-0.740	0.220
2020/01/31 12:35:27.2	111.620	0.210	-0.790	0.160
2020/01/31 12:35:27.3	111.610	0.240	-0.840	0.100
2020/01/31 12:35:27.4	111.610	0.260	-0.880	0.040
2020/01/31 12:35:27.5	111.600	0.270	-0.920	-0.010
2020/01/31 12:35:27.6	111.590	0.290	-0.950	-0.060
2020/01/31 12:35:27.7	111.580	0.300	-0.980	-0.110
2020/01/31 12:35:27.8	111.570	0.310	-1.000	-0.160
2020/01/31 12:35:27.9	111.550	0.310	-1.010	-0.200
2020/01/31 12:35:28.0	111.540	0.310	-1.020	-0.250
2020/01/31 12:35:28.1	111.530	0.320	-1.020	-0.280
2020/01/31 12:35:28.2	111.510	0.310	-1.010	-0.320
2020/01/31 12:35:28.3	111.500	0.310	-1.000	-0.350
2020/01/31 12:35:28.4	111.480	0.300	-0.980	-0.390
2020/01/31 12:35:28.5	111.470	0.290	-0.960	-0.410
2020/01/31 12:35:28.6	111.460	0.280	-0.930	-0.440
2020/01/31 12:35:28.7	111.440	0.270	-0.890	-0.460
2020/01/31 12:35:28.8	111.430	0.250	-0.860	-0.470
2020/01/31 12:35:28.9	111.410	0.240	-0.810	-0.480
2020/01/31 12:35:29.0	111.400	0.220	-0.770	-0.490
2020/01/31 12:35:29.1	111.380	0.200	-0.720	-0.500
2020/01/31 12:35:29.2	111.370	0.180	-0.670	-0.500
2020/01/31 12:35:29.3	111.360	0.170	-0.610	-0.490
2020/01/31 12:35:29.4	111.350	0.150	-0.550	-0.490
2020/01/31 12:35:29.5	111.330	0.130	-0.490	-0.470
2020/01/31 12:35:29.6	111.320	0.110	-0.430	-0.460
2020/01/31 12:35:29.7	111.310	0.090	-0.370	-0.440
2020/01/31 12:35:29.8	111.300	0.070	-0.310	-0.420
2020/01/31 12:35:29.9	111.290	0.050	-0.250	-0.390
2020/01/31 12:35:30.0	111.280	0.040	-0.180	-0.360
2020/01/31 12:35:30.1	111.270	0.020	-0.120	-0.330
2020/01/31 12:35:30.2	111.250	0.010	-0.060	-0.300
2020/01/31 12:35:30.3	111.240	-0.010	-0.010	-0.260
2020/01/31 12:35:30.4	111.230	-0.020	0.050	-0.220
2020/01/31 12:35:30.5	111.220	-0.030	0.110	-0.170
2020/01/31 12:35:30.6	111.210	-0.040	0.160	-0.120
2020/01/31 12:35:30.7	111.190	-0.040	0.210	-0.080
2020/01/31 12:35:30.8	111.180	-0.050	0.250	-0.030
2020/01/31 12:35:30.9	111.170	-0.050	0.290	0.020
2020/01/31 12:35:31.0	111.150	-0.050	0.330	0.070
2020/01/31 12:35:31.1	111.130	-0.050	0.370	0.120
2020/01/31 12:35:31.2	111.120	-0.050	0.400	0.180
2020/01/31 12:35:31.3	111.100	-0.050	0.420	0.230
2020/01/31 12:35:31.4	111.080	-0.040	0.440	0.290
2020/01/31 12:35:31.5	111.070	-0.040	0.460	0.340
2020/01/31 12:35:31.6	111.050	-0.030	0.470	0.400
2020/01/31 12:35:31.7	111.030	-0.020	0.480	0.450
2020/01/31 12:35:31.8	111.010	-0.010	0.480	0.510
2020/01/31 12:35:31.9	111.000	0.010	0.490	0.560
2020/01/31 12:35:32.0	110.980	0.020	0.480	0.620
2020/01/31 12:35:32.1	110.960	0.030	0.470	0.670
2020/01/31 12:35:32.2	110.950	0.050	0.460	0.720
2020/01/31 12:35:32.3	110.940	0.060	0.450	0.770
2020/01/31 12:35:32.4	110.920	0.080	0.430	0.820
2020/01/31 12:35:32.5	110.890	0.090	0.410	0.870
2020/01/31 12:35:32.6	110.880	0.110	0.380	0.920
2020/01/31 12:35:32.7	110.870	0.120	0.360	0.970
2020/01/31 12:35:32.8	110.870	0.140	0.330	1.010
2020/01/31 12:35:32.9	110.870	0.150	0.300	1.050
2020/01/31 12:35:33.0	110.860	0.160	0.260	1.090
2020/01/31 12:35:33.1	110.870	0.180	0.230	1.130
2020/01/31 12:35:33.2	110.870	0.190	0.190	1.170
2020/01/31 12:35:33.3	110.870	0.200	0.150	1.210
2020/01/31 12:35:33.4	110.880	0.210	0.110	1.240
2020/01/31 12:35:33.5	110.890	0.220	0.080	1.270
2020/01/31 12:35:33.6	110.900	0.230	0.040	1.300
2020/01/31 12:35:33.7	110.910	0.240	-0.000	1.340
2020/01/31 12:35:33.8	110.920	0.240	-0.040	1.360
2020/01/31 12:35:33.9	110.940	0.250	-0.080	1.390
2020/01/31 12:35:34.0	110.950	0.250	-0.120	1.420
2020/01/31 12:35:34.1	110.970	0.260	-0.160	1.450
2020/01/31 12:35:34.2	110.980	0.260	-0.200	1.480
2020/01/31 12:35:34.3	111.000	0.260	-0.240	1.510
2020/01/31 12:35:34.4	111.010	0.260	-0.280	1.530
2020/01/31 12:35:34.5	111.020	0.260	-0.320	1.560
2020/01/31 12:35:34.6	111.030	0.260	-0.350	1.590
2020/01/31 12:35:34.7	111.050	0.260	-0.390	1.620
2020/01/31 12:35:34.8	111.060	0.260	-0.430	1.650
2020/01/31 12:35:34.9	111.070	0.250	-0.460	1.680
2020/01/31 12:35:35.0	111.090	0.250	-0.500	1.710
2020/01/31 12:35:35.1	111.090	0.250	-0.530	1.740
2020/01/31 12:35:35.2	111.100	0.240	-0.570	1.780
2020/01/31 12:35:35.3	111.110	0.230	-0.600	1.810
2020/01/31 12:35:35.4	111.110	0.230	-0.630	1.850
2020/01/31 12:35:35.5	111.110	0.220	-0.660	1.890
2020/01/31 12:35:35.6	111.110	0.210	-0.690	1.930
2020/01/31 12:35:35.7	111.110	0.210	-0.720	1.970
2020/01/31 12:35:35.8	111.110	0.200	-0.740	2.010
2020/01/31 12:35:35.9	111.100	0.190	-0.760	2.060
2020/01/31 12:35:36.0	111.090	0.180	-0.780	2.100
2020/01/31 12:35:36.1	111.080	0.170	-0.800	2.140
2020/01/31 12:35:36.2	111.070	0.160	-0.820	2.190
2020/01/31 12:35:36.3	111.060	0.140	-0.830	2.240
2020/01/31 12:35:36.4	111.040	0.130	-0.830	2.280
2020/01/31 12:35:36.5	111.010	0.120	-0.840	2.330
2020/01/31 12:35:36.6	110.990	0.100	-0.830	2.380
2020/01/31 12:35:36.7	110.970	0.090	-0.830	2.420
2020/01/31 12:35:36.8	110.950	0.070	-0.820	2.470
2020/01/31 12:35:36.9	110.930	0.050	-0.810	2.510
2020/01/31 12:35:37.0	110.910	0.030	-0.790	2.550
2020/01/31 12:35:37.1	110.880	0.010	-0.770	2.600
2020/01/31 12:35:37.2	110.860	-0.010	-0.740	2.640
2020/01/31 12:35:37.3	110.840	-0.030	-0.710	2.680
2020/01/31 12:35:37.4	110.810	-0.050	-0.670	2.710
2020/01/31 12:35:37.5	110.780	-0.070	-0.640	2.740
2020/01/31 12:35:37.6	110.760	-0.090	-0.600	2.780
2020/01/31 12:35:37.7	110.730	-0.110	-0.550	2.810
2020/01/31 12:35:37.8	110.710	-0.140	-0.500	2.830
2020/01/31 12:35:37.9	110.680	-0.160	-0.450	2.860
2020/01/31 12:35:38.0	110.660	-0.180	-0.400	2.880
2020/01/31 12:35:38.1	110.640	-0.200	-0.350	2.900
2020/01/31 12:35:38.2	110.610	-0.230	-0.290	2.920
2020/01/31 12:35:38.3	110.590	-0.250	-0.230	2.930
2020/01/31 12:35:38.4	110.570	-0.270	-0.180	2.940
2020/01/31 12:35:38.5	110.550	-0.290	-0.110	2.940
2020/01/31 12:35:38.6	110.530	-0.310	-0.060	2.940
2020/01/31 12:35:38.7	110.510	-0.320	0.000	2.940
2020/01/31 12:35:38.8	110.490	-0.340	0.060	2.930
2020/01/31 12:35:38.9	110.470	-0.350	0.110	2.920
2020/01/31 12:35:39.0	110.450	-0.370	0.170	2.900
2020/01/31 12:35:39.1	110.430	-0.380	0.220	2.870
2020/01/31 12:35:39.2	110.410	-0.390	0.270	2.850
2020/01/31 12:35:39.3	110.390	-0.400	0.310	2.810
2020/01/31 12:35:39.4	110.370	-0.410	0.360	2.770
2020/01/31 12:35:39.5	110.360	-0.420	0.400	2.730
2020/01/31 12:35:39.6	110.340	-0.420	0.440	2.680
2020/01/31 12:35:39.7	110.330	-0.430	0.470	2.630
2020/01/31 12:35:39.8	110.310	-0.430	0.510	2.570
2020/01/31 12:35:39.9	110.300	-0.430	0.530	2.510
2020/01/31 12:35:40.0	110.280	-0.440	0.560	2.440
2020/01/31 12:35:40.1	110.270	-0.430	0.580	2.360
2020/01/31 12:35:40.2	110.260	-0.430	0.600	2.280
2020/01/31 12:35:40.3	110.240	-0.430	0.610	2.200
2020/01/31 12:35:40.4	110.230	-0.430	0.620	2.110
2020/01/31 12:35:40.5	110.230	-0.420	0.620	2.010
2020/01/31 12:35:40.6	110.210	-0.410	0.620	1.920
2020/01/31 12:35:40.7	110.200	-0.410	0.610	1.820
2020/01/31 12:35:40.8	110.190	-0.400	0.610	1.710
2020/01/31 12:35:40.9	110.180	-0.390	0.590	1.600
2020/01/31 12:35:41.0	110.170	-0.380	0.580	1.490
2020/01/31 12:35:41.1	110.160	-0.360	0.560	1.380
2020/01/31 12:35:41.2	110.150	-0.350	0.530	1.270
2020/01/31 12:35:41.3	110.140	-0.330	0.500	1.150
2020/01/31 12:35:41.4	110.130	-0.320	0.470	1.030
2020/01/31 12:35:41.5	110.110	-0.300	0.440	0.910
2020/01/31 12:35:41.6	110.100	-0.290	0.400	0.790
2020/01/31 12:35:41.7	110.090	-0.270	0.350	0.670
2020/01/31 12:35:41.8	110.090	-0.250	0.310	0.560
2020/01/31 12:35:41.9	110.080	-0.230	0.260	0.440
2020/01/31 12:35:42.0	110.070	-0.210	0.210	0.320
2020/01/31 12:35:42.1	110.060	-0.180	0.150	0.210
2020/01/31 12:35:42.2	110.060	-0.160	0.100	0.100
2020/01/31 12:35:42.3	110.050	-0.140	0.040	-0.010
2020/01/31 12:35:42.4	110.040	-0.120	-0.020	-0.120
2020/01/31 12:35:42.5	110.050	-0.090	-0.080	-0.220
2020/01/31 12:35:42.6	110.050	-0.070	-0.140	-0.320
2020/01/31 12:35:42.7	110.050	-0.040	-0.210	-0.420
2020/01/31 12:35:42.8	110.050	-0.020	-0.270	-0.510
2020/01/31 12:35:42.9	110.050	0.000	-0.330	-0.600
2020/01/31 12:35:43.0	110.050	0.030	-0.390	-0.690
2020/01/31 12:35:43.1	110.050	0.050	-0.450	-0.770
2020/01/31 12:35:43.2	110.050	0.080	-0.510	-0.840
2020/01/31 12:35:43.3	110.060	0.100	-0.560	-0.920
2020/01/31 12:35:43.4	110.070	0.120	-0.620	-0.990
2020/01/31 12:35:43.5	110.070	0.140	-0.660	-1.050
2020/01/31 12:35:43.6	110.070	0.160	-0.710	-1.110
2020/01/31 12:35:43.7	110.080	0.180	-0.760	-1.160
2020/01/31 12:35:43.8	110.100	0.200	-0.800	-1.210
2020/01/31 12:35:43.9	110.110	0.220	-0.830	-1.260
2020/01/31 12:35:44.0	110.120	0.240	-0.870	-1.300
2020/01/31 12:35:44.1	110.130	0.260	-0.890	-1.330
2020/01/31 12:35:44.2	110.150	0.270	-0.920	-1.360
2020/01/31 12:35:44.3	110.160	0.290	-0.940	-1.380
2020/01/31 12:35:44.4	110.170	0.300	-0.950	-1.400
2020/01/31 12:35:44.5	110.180	0.320	-0.960	-1.420
2020/01/31 12:35:44.6	110.190	0.330	-0.970	-1.430
2020/01/31 12:35:44.7	110.200	0.340	-0.970	-1.430
2020/01/31 12:35:44.8	110.210	0.350	-0.960	-1.420
2020/01/31 12:35:44.9	110.220	0.360	-0.950	-1.420
2020/01/31 12:35:45.0	110.230	0.370	-0.930	-1.400
2020/01/31 12:35:45.1	110.240	0.370	-0.910	-1.380
2020/01/31 12:35:45.2	110.240	0.380	-0.890	-1.350
2020/01/31 12:35:45.3	110.250	0.380	-0.860	-1.320
2020/01/31 12:35:45.4	110.250	0.390	-0.830	-1.280
2020/01/31 12:35:45.5	110.250	0.390	-0.790	-1.240
2020/01/31 12:35:45.6	110.250	0.390	-0.750	-1.190
2020/01/31 12:35:45.7	110.250	0.390	-0.700	-1.140
2020/01/31 12:35:45.8	110.260	0.390	-0.660	-1.080
2020/01/31 12:35:45.9	110.260	0.390	-0.610	-1.010
2020/01/31 12:35:46.0	110.250	0.380	-0.560	-0.950
2020/01/31 12:35:46.1	110.250	0.380	-0.500	-0.870
2020/01/31 12:35:46.2	110.250	0.370	-0.450	-0.800
2020/01/31 12:35:46.3	110.240	0.370	-0.390	-0.720
2020/01/31 12:35:46.4	110.240	0.360	-0.340	-0.630
2020/01/31 12:35:46.5	110.250	0.350	-0.280	-0.540
2020/01/31 12:35:46.6	110.240	0.340	-0.230	-0.440
2020/01/31 12:35:46.7	110.230	0.330	-0.170	-0.350
2020/01/31 12:35:46.8	110.220	0.320	-0.120	-0.250
2020/01/31 12:35:46.9	110.210	0.310	-0.060	-0.150
2020/01/31 12:35:47.0	110.200	0.290	-0.010	-0.040
2020/01/31 12:35:47.1	110.180	0.280	0.040	0.070
2020/01/31 12:35:47.2	110.170	0.260	0.080	0.180
2020/01/31 12:35:47.3	110.150	0.250	0.130	0.290
2020/01/31 12:35:47.4	110.140	0.230	0.170	0.410
2020/01/31 12:35:47.5	110.130	0.210	0.210	0.530
2020/01/31 12:35:47.6	110.120	0.190	0.250	0.650
2020/01/31 12:35:47.7	110.100	0.170	0.280	0.770
2020/01/31 12:35:47.8	110.080	0.160	0.310	0.890
2020/01/31 12:35:47.9	110.060	0.140	0.340	1.010
2020/01/31 12:35:48.0	110.040	0.110	0.370	1.130
2020/01/31 12:35:48.1	110.020	0.090	0.390	1.260
2020/01/31 12:35:48.2	110.000	0.070	0.400	1.380
2020/01/31 12:35:48.3	109.980	0.050	0.420	1.500
2020/01/31 12:35:48.4	109.960	0.030	0.430	1.630
2020/01/31 12:35:48.5	109.940	0.010	0.440	1.740
2020/01/31 12:35:48.6	109.920	-0.010	0.440	1.860
2020/01/31 12:35:48.7	109.910	-0.030	0.440	1.980
2020/01/31 12:35:48.8	109.890	-0.050	0.440	2.090
2020/01/31 12:35:48.9	109.870	-0.070	0.440	2.200
2020/01/31 12:35:49.0	109.850	-0.090	0.430	2.310
2020/01/31 12:35:49.1	109.840	-0.110	0.420	2.420
2020/01/31 12:35:49.2	109.820	-0.130	0.400	2.520
2020/01/31 12:35:49.3	109.810	-0.150	0.390	2.610
2020/01/31 12:35:49.4	109.800	-0.170	0.370	2.710
2020/01/31 12:35:49.5	109.790	-0.180	0.350	2.790
2020/01/31 12:35:49.6	109.780	-0.200	0.330	2.880
2020/01/31 12:35:49.7	109.770	-0.210	0.310	2.950
2020/01/31 12:35:49.8	109.760	-0.230	0.290	3.030
2020/01/31 12:35:49.9	109.750	-0.240	0.260	3.100
2020/01/31 12:35:50.0	109.740	-0.250	0.240	3.160
2020/01/31 12:35:50.1	109.740	-0.260	0.210	3.220
2020/01/31 12:35:50.2	109.730	-0.260	0.180	3.270
2020/01/31 12:35:50.3	109.720	-0.270	0.150	3.320
2020/01/31 12:35:50.4	109.720	-0.270	0.120	3.360
2020/01/31 12:35:50.5	109.720	-0.280	0.090	3.400
2020/01/31 12:35:50.6	109.720	-0.280	0.060	3.430
2020/01/31 12:35:50.7	109.710	-0.280	0.020	3.460
2020/01/31 12:35:50.8	109.710	-0.280	-0.010	3.480
2020/01/31 12:35:50.9	109.710	-0.270	-0.050	3.500
2020/01/31 12:35:51.0	109.710	-0.270	-0.080	3.510
2020/01/31 12:35:51.1	109.710	-0.260	-0.120	3.510
2020/01/31 12:35:51.2	109.710	-0.250	-0.150	3.520
2020/01/31 12:35:51.3	109.710	-0.250	-0.190	3.510
2020/01/31 12:35:51.4	109.710	-0.240	-0.230	3.500
2020/01/31 12:35:51.5	109.720	-0.220	-0.260	3.490
2020/01/31 12:35:51.6	109.730	-0.210	-0.300	3.470
2020/01/31 12:35:51.7	109.730	-0.200	-0.330	3.450
2020/01/31 12:35:51.8	109.740	-0.180	-0.360	3.420
2020/01/31 12:35:51.9	109.750	-0.170	-0.390	3.390
2020/01/31 12:35:52.0	109.770	-0.160	-0.420	3.350
2020/01/31 12:35:52.1	109.780	-0.140	-0.450	3.310
2020/01/31 12:35:52.2	109.790	-0.120	-0.480	3.270
2020/01/31 12:35:52.3	109.810	-0.110	-0.500	3.220
2020/01/31 12:35:52.4	109.830	-0.090	-0.530	3.170
2020/01/31 12:35:52.5	109.840	-0.080	-0.550	3.100
2020/01/31 12:35:52.6	109.860	-0.060	-0.570	3.040
2020/01/31 12:35:52.7	109.880	-0.050	-0.590	2.980
2020/01/31 12:35:52.8	109.900	-0.030	-0.610	2.910
2020/01/31 12:35:52.9	109.920	-0.020	-0.630	2.840
2020/01/31 12:35:53.0	109.940	-0.000	-0.640	2.770
2020/01/31 12:35:53.1	109.970	0.010	-0.650	2.690
2020/01/31 12:35:53.2	109.990	0.020	-0.660	2.620
2020/01/31 12:35:53.3	110.010	0.030	-0.670	2.540
2020/01/31 12:35:53.4	110.030	0.040	-0.680	2.460
2020/01/31 12:35:53.5	110.040	0.050	-0.680	2.380
2020/01/31 12:35:53.6	110.060	0.050	-0.680	2.300
2020/01/31 12:35:53.7	110.080	0.060	-0.680	2.220
2020/01/31 12:35:53.8	110.100	0.060	-0.680	2.140
2020/01/31 12:35:53.9	110.110	0.070	-0.670	2.060
2020/01/31 12:35:54.0	110.130	0.070	-0.670	1.980
2020/01/31 12:35:54.1	110.140	0.070	-0.660	1.910
2020/01/31 12:35:54.2	110.150	0.060	-0.640	1.830
2020/01/31 12:35:54.3	110.160	0.060	-0.630	1.760
2020/01/31 12:35:54.4	110.160	0.060	-0.620	1.690
2020/01/31 12:35:54.5	110.170	0.050	-0.600	1.620
2020/01/31 12:35:54.6	110.170	0.050	-0.580	1.550
2020/01/31 12:35:54.7	110.170	0.040	-0.560	1.480
2020/01/31 12:35:54.8	110.160	0.030	-0.540	1.420
2020/01/31 12:35:54.9	110.160	0.020	-0.520	1.360
2020/01/31 12:35:55.0	110.150	0.010	-0.490	1.300
2020/01/31 12:35:55.1	110.140	0.000	-0.470	1.240
2020/01/31 12:35:55.2	110.120	-0.000	-0.440	1.180
2020/01/31 12:35:55.3	110.100	-0.010	-0.420	1.130
2020/01/31 12:35:55.4	110.080	-0.020	-0.390	1.080
2020/01/31 12:35:55.5	110.060	-0.030	-0.360	1.020
2020/01/31 12:35:55.6	110.040	-0.040	-0.340	0.970
2020/01/31 12:35:55.7	110.010	-0.050	-0.310	0.920
2020/01/31 12:35:55.8	109.990	-0.060	-0.280	0.870
2020/01/31 12:35:55.9	109.960	-0.070	-0.250	0.820
2020/01/31 12:35:56.0	109.930	-0.080	-0.220	0.770
2020/01/31 12:35:56.1	109.900	-0.080	-0.190	0.720
2020/01/31 12:35:56.2	109.870	-0.090	-0.160	0.660
2020/01/31 12:35:56.3	109.850	-0.100	-0.130	0.610
2020/01/31 12:35:56.4	109.820	-0.110	-0.100	0.550
2020/01/31 12:35:56.5	109.780	-0.110	-0.070	0.500
2020/01/31 12:35:56.6	109.760	-0.120	-0.030	0.440
2020/01/31 12:35:56.7	109.740	-0.130	-0.000	0.370
2020/01/31 12:35:56.8	109.720	-0.130	0.030	0.310
2020/01/31 12:35:56.9	109.700	-0.140	0.060	0.250
2020/01/31 12:35:57.0	109.690	-0.150	0.100	0.180
2020/01/31 12:35:57.1	109.670	-0.150	0.130	0.110
2020/01/31 12:35:57.2	109.660	-0.160	0.160	0.050
2020/01/31 12:35:57.3	109.650	-0.170	0.200	-0.020
2020/01/31 12:35:57.4	109.650	-0.170	0.230	-0.090
2020/01/31 12:35:57.5	109.620	-0.180	0.270	-0.160
2020/01/31 12:35:57.6	109.620	-0.190	0.300	-0.230
2020/01/31 12:35:57.7	109.620	-0.190	0.330	-0.290
2020/01/31 12:35:57.8	109.620	-0.200	0.360	-0.360
2020/01/31 12:35:57.9	109.620	-0.210	0.390	-0.420
2020/01/31 12:35:58.0	109.630	-0.220	0.420	-0.480
2020/01/31 12:35:58.1	109.630	-0.220	0.450	-0.540
2020/01/31 12:35:58.2	109.640	-0.230	0.470	-0.590
2020/01/31 12:35:58.3	109.650	-0.240	0.500	-0.650
2020/01/31 12:35:58.4	109.670	-0.240	0.520	-0.700
2020/01/31 12:35:58.5	109.670	-0.250	0.540	-0.750
2020/01/31 12:35:58.6	109.680	-0.250	0.550	-0.790
2020/01/31 12:35:58.7	109.700	-0.260	0.560	-0.830
2020/01/31 12:35:58.8	109.710	-0.260	0.570	-0.870
2020/01/31 12:35:58.9	109.730	-0.260	0.570	-0.900
2020/01/31 12:35:59.0	109.750	-0.260	0.570	-0.930
2020/01/31 12:35:59.1	109.760	-0.260	0.570	-0.950
2020/01/31 12:35:59.2	109.780	-0.260	0.560	-0.970
2020/01/31 12:35:59.3	109.800	-0.260	0.550	-0.980
2020/01/31 12:35:59.4	109.810	-0.250	0.530	-0.990
2020/01/31 12:35:59.5	109.830	-0.250	0.510	-0.990
2020/01/31 12:35:59.6	109.840	-0.240	0.480	-0.990
2020/01/31 12:35:59.7	109.860	-0.230	0.450	-0.980
2020/01/31 12:35:59.8	109.880	-0.220	0.410	-0.980
2020/01/31 12:35:59.9	109.890	-0.210	0.370	-0.960
2020/01/31 12:36:00.0	109.910	-0.190	0.330	-0.940
2020/01/31 12:36:00.1	109.920	-0.180	0.280	-0.920
2020/01/31 12:36:00.2	109.940	-0.160	0.230	-0.900
2020/01/31 12:36:00.3	109.950	-0.140	0.170	-0.870
2020/01/31 12:36:00.4	109.970	-0.120	0.110	-0.830
2020/01/31 12:36:00.5	109.990	-0.100	0.050	-0.800
2020/01/31 12:36:00.6	110.000	-0.080	-0.020	-0.760
2020/01/31 12:36:00.7	110.010	-0.050	-0.090	-0.720
2020/01/31 12:36:00.8	110.030	-0.030	-0.160	-0.670
2020/01/31 12:36:00.9	110.040	-0.000	-0.230	-0.630
2020/01/31 12:36:01.0	110.050	0.030	-0.310	-0.570
2020/01/31 12:36:01.1	110.060	0.050	-0.380	-0.520
2020/01/31 12:36:01.2	110.070	0.080	-0.460	-0.470
2020/01/31 12:36:01.3	110.080	0.110	-0.530	-0.410
2020/01/31 12:36:01.4	110.080	0.140	-0.600	-0.350
2020/01/31 12:36:01.5	110.100	0.170	-0.670	-0.270
2020/01/31 12:36:01.6	110.110	0.200	-0.730	-0.210
2020/01/31 12:36:01.7	110.110	0.220	-0.800	-0.140
2020/01/31 12:36:01.8	110.120	0.250	-0.860	-0.070
2020/01/31 12:36:01.9	110.120	0.280	-0.910	0.010
2020/01/31 12:36:02.0	110.120	0.300	-0.960	0.090
2020/01/31 12:36:02.1	110.120	0.330	-1.010	0.170
2020/01/31 12:36:02.2	110.120	0.350	-1.050	0.250
2020/01/31 12:36:02.3	110.120	0.370	-1.090	0.340
2020/01/31 12:36:02.4	110.110	0.390	-1.120	0.420
2020/01/31 12:36:02.5	110.120	0.410	-1.140	0.510
2020/01/31 12:36:02.6	110.120	0.430	-1.150	0.610
2020/01/31 12:36:02.7	110.110	0.440	-1.160	0.700
2020/01/31 12:36:02.8	110.100	0.450	-1.170	0.800
2020/01/31 12:36:02.9	110.090	0.460	-1.160	0.900
2020/01/31 12:36:03.0	110.090	0.470	-1.160	1.000
2020/01/31 12:36:03.1	110.080	0.480	-1.140	1.110
2020/01/31 12:36:03.2	110.070	0.480	-1.120	1.210
2020/01/31 12:36:03.3	110.060	0.490	-1.090	1.320
2020/01/31 12:36:03.4	110.050	0.490	-1.060	1.420
2020/01/31 12:36:03.5	110.050	0.490	-1.020	1.530
2020/01/31 12:36:03.6	110.040	0.480	-0.980	1.640
2020/01/31 12:36:03.7	110.030	0.480	-0.930	1.740
2020/01/31 12:36:03.8	110.020	0.470	-0.880	1.850
2020/01/31 12:36:03.9	110.010	0.460	-0.820	1.950
2020/01/31 12:36:04.0	110.000	0.450	-0.760	2.050
2020/01/31 12:36:04.1	109.990	0.430	-0.700	2.150
2020/01/31 12:36:04.2	109.990	0.420	-0.640	2.240
2020/01/31 12:36:04.3	109.980	0.400	-0.570	2.340
2020/01/31 12:36:04.4	109.980	0.390	-0.500	2.420
2020/01/31 12:36:04.5	109.970	0.370	-0.430	2.510
2020/01/31 12:36:04.6	109.970	0.350	-0.360	2.590
2020/01/31 12:36:04.7	109.960	0.320	-0.300	2.670
2020/01/31 12:36:04.8	109.960	0.300	-0.230	2.740
2020/01/31 12:36:04.9	109.960	0.280	-0.160	2.800
2020/01/31 12:36:05.0	109.960	0.260	-0.090	2.870
2020/01/31 12:36:05.1	109.960	0.230	-0.020	2.920
2020/01/31 12:36:05.2	109.960	0.210	0.040	2.970
2020/01/31 12:36:05.3	109.960	0.180	0.100	3.020
2020/01/31 12:36:05.4	109.970	0.150	0.170	3.050
2020/01/31 12:36:05.5	109.980	0.130	0.230	3.090
2020/01/31 12:36:05.6	109.980	0.100	0.290	3.110
2020/01/31 12:36:05.7	109.980	0.070	0.340	3.130
2020/01/31 12:36:05.8	109.990	0.050	0.400	3.150
2020/01/31 12:36:05.9	109.990	0.020	0.450	3.160
2020/01/31 12:36:06.0	109.990	-0.010	0.490	3.160
2020/01/31 12:36:06.1	110.000	-0.030	0.540	3.160
2020/01/31 12:36:06.2	110.000	-0.060	0.580	3.150
2020/01/31 12:36:06.3	110.010	-0.080	0.620	3.140
2020/01/31 12:36:06.4	110.020	-0.110	0.650	3.120
2020/01/31 12:36:06.5	110.030	-0.130	0.680	3.100
2020/01/31 12:36:06.6	110.030	-0.150	0.710	3.070
2020/01/31 12:36:06.7	110.040	-0.180	0.730	3.040
2020/01/31 12:36:06.8	110.050	-0.200	0.750	3.000
2020/01/31 12:36:06.9	110.060	-0.220	0.760	2.960
2020/01/31 12:36:07.0	110.070	-0.240	0.770	2.920
2020/01/31 12:36:07.1	110.080	-0.260	0.780	2.870
2020/01/31 12:36:07.2	110.080	-0.270	0.780	2.820
2020/01/31 12:36:07.3	110.100	-0.290	0.780	2.760
2020/01/31 12:36:07.4	110.110	-0.300	0.770	2.700
2020/01/31 12:36:07.5	110.120	-0.320	0.750	2.640
2020/01/31 12:36:07.6	110.130	-0.330	0.730	2.570
2020/01/31 12:36:07.7	110.150	-0.330	0.710	2.500
2020/01/31 12:36:07.8	110.160	-0.340	0.670	2.440
2020/01/31 12:36:07.9	110.170	-0.350	0.640	2.360
2020/01/31 12:36:08.0	110.180	-0.350	0.600	2.290
2020/01/31 12:36:08.1	110.200	-0.350	0.550	2.220
2020/01/31 12:36:08.2	110.210	-0.350	0.500	2.140
2020/01/31 12:36:08.3	110.220	-0.350	0.440	2.070
2020/01/31 12:36:08.4	110.240	-0.350	0.380	1.990
2020/01/31 12:36:08.5	110.240	-0.340	0.310	1.910
2020/01/31 12:36:08.6	110.250	-0.340	0.240	1.840
2020/01/31 12:36:08.7	110.260	-0.330	0.170	1.760
2020/01/31 12:36:08.8	110.270	-0.320	0.100	1.690
2020/01/31 12:36:08.9	110.280	-0.310	0.030	1.610
2020/01/31 12:36:09.0	110.290	-0.300	-0.050	1.540
2020/01/31 12:36:09.1	110.290	-0.290	-0.130	1.470
2020/01/31 12:36:09.2	110.300	-0.280	-0.210	1.400
2020/01/31 12:36:09.3	110.300	-0.260	-0.280	1.330
2020/01/31 12:36:09.4	110.300	-0.250	-0.360	1.270
2020/01/31 12:36:09.5	110.280	-0.240	-0.440	1.200
2020/01/31 12:36:09.6	110.270	-0.220	-0.510	1.140
2020/01/31 12:36:09.7	110.270	-0.210	-0.580	1.080
2020/01/31 12:36:09.8	110.260	-0.200	-0.650	1.020
2020/01/31 12:36:09.9	110.240	-0.180	-0.720	0.970
2020/01/31 12:36:10.0	110.230	-0.170	-0.780	0.920
2020/01/31 12:36:10.1	110.210	-0.160	-0.840	0.870
2020/01/31 12:36:10.2	110.200	-0.150	-0.890	0.820
2020/01/31 12:36:10.3	110.180	-0.140	-0.940	0.770
2020/01/31 12:36:10.4	110.150	-0.130	-0.980	0.730
2020/01/31 12:36:10.5	110.110	-0.120	-1.020	0.680
2020/01/31 12:36:10.6	110.090	-0.110	-1.050	0.640
2020/01/31 12:36:10.7	110.060	-0.110	-1.080	0.600
2020/01/31 12:36:10.8	110.040	-0.100	-1.100	0.560
2020/01/31 12:36:10.9	110.010	-0.090	-1.110	0.520
2020/01/31 12:36:11.0	109.990	-0.090	-1.120	0.490
2020/01/31 12:36:11.1	109.960	-0.080	-1.120	0.450
2020/01/31 12:36:11.2	109.940	-0.080	-1.110	0.410
2020/01/31 12:36:11.3	109.920	-0.080	-1.100	0.380
2020/01/31 12:36:11.4	109.900	-0.080	-1.080	0.340
2020/01/31 12:36:11.5	109.890	-0.070	-1.060	0.310
2020/01/31 12:36:11.6	109.880	-0.070	-1.030	0.270
2020/01/31 12:36:11.7	109.860	-0.070	-1.000	0.230
2020/01/31 12:36:11.8	109.850	-0.070	-0.960	0.200
2020/01/31 12:36:11.9	109.830	-0.070	-0.920	0.160
2020/01/31 12:36:12.0	109.830	-0.070	-0.880	0.130
2020/01/31 12:36:12.1	109.820	-0.070	-0.830	0.090
2020/01/31 12:36:12.2	109.810	-0.070	-0.780	0.060
2020/01/31 12:36:12.3	109.810	-0.060	-0.730	0.030
2020/01/31 12:36:12.4	109.810	-0.060	-0.670	0.000
2020/01/31 12:36:12.5	109.810	-0.060	-0.610	-0.020
2020/01/31 12:36:12.6	109.810	-0.060	-0.550	-0.050
2020/01/31 12:36:12.7	109.820	-0.060	-0.490	-0.080
2020/01/31 12:36:12.8	109.830	-0.060	-0.430	-0.100
2020/01/31 12:36:12.9	109.840	-0.050	-0.370	-0.120
2020/01/31 12:36:13.0	109.850	-0.050	-0.310	-0.130
2020/01/31 12:36:13.1	109.860	-0.050	-0.250	-0.150
2020/01/31 12:36:13.2	109.880	-0.050	-0.190	-0.160
2020/01/31 12:36:13.3	109.900	-0.050	-0.130	-0.170
2020/01/31 12:36:13.4	109.910	-0.040	-0.070	-0.170
2020/01/31 12:36:13.5	109.930	-0.040	-0.010	-0.170
2020/01/31 12:36:13.6	109.950	-0.040	0.050	-0.180
2020/01/31 12:36:13.7	109.970	-0.040	0.100	-0.170
2020/01/31 12:36:13.8	110.000	-0.040	0.160	-0.170
2020/01/31 12:36:13.9	110.020	-0.040	0.210	-0.160
2020/01/31 12:36:14.0	110.040	-0.040	0.260	-0.150
2020/01/31 12:36:14.1	110.060	-0.040	0.310	-0.140
2020/01/31 12:36:14.2	110.090	-0.040	0.350	-0.130
2020/01/31 12:36:14.3	110.110	-0.040	0.390	-0.110
2020/01/31 12:36:14.4	110.130	-0.040	0.430	-0.100
2020/01/31 12:36:14.5	110.160	-0.050	0.470	-0.080
2020/01/31 12:36:14.6	110.180	-0.050	0.500	-0.060
2020/01/31 12:36:14.7	110.210	-0.050	0.530	-0.040
2020/01/31 12:36:14.8	110.230	-0.050	0.560	-0.020
2020/01/31 12:36:14.9	110.250	-0.060	0.580	0.000
2020/01/31 12:36:15.0	110.270	-0.060	0.600	0.030
2020/01/31 12:36:15.1	110.290	-0.060	0.620	0.050
2020/01/31 12:36:15.2	110.300	-0.070	0.630	0.070
2020/01/31 12:36:15.3	110.320	-0.070	0.640	0.100
2020/01/31 12:36:15.4	110.330	-0.070	0.640	0.120
2020/01/31 12:36:15.5	110.340	-0.070	0.640	0.150
2020/01/31 12:36:15.6	110.350	-0.080	0.630	0.180
2020/01/31 12:36:15.7	110.360	-0.080	0.630	0.210
2020/01/31 12:36:15.8	110.370	-0.080	0.610	0.230
2020/01/31 12:36:15.9	110.380	-0.080	0.600	0.270
2020/01/31 12:36:16.0	110.380	-0.080	0.580	0.300
2020/01/31 12:36:16.1	110.390	-0.080	0.550	0.330
2020/01/31 12:36:16.2	110.390	-0.070	0.530	0.370
2020/01/31 12:36:16.3	110.390	-0.070	0.490	0.410
2020/01/31 12:36:16.4	110.390	-0.060	0.460	0.450
2020/01/31 12:36:16.5	110.380	-0.060	0.420	0.490
2020/01/31 12:36:16.6	110.380	-0.050	0.380	0.540
2020/01/31 12:36:16.7	110.370	-0.040	0.330	0.580
2020/01/31 12:36:16.8	110.360	-0.030	0.280	0.630
2020/01/31 12:36:16.9	110.340	-0.020	0.230	0.690
2020/01/31 12:36:17.0	110.330	-0.000	0.180	0.740
2020/01/31 12:36:17.1	110.310	0.010	0.120	0.800
2020/01/31 12:36:17.2	110.290	0.030	0.060	0.860
2020/01/31 12:36:17.3	110.270	0.040	-0.010	0.920
2020/01/31 12:36:17.4	110.250	0.060	-0.070	0.990
2020/01/31 12:36:17.5	110.220	0.090	-0.140	1.060
2020/01/31 12:36:17.6	110.190	0.110	-0.200	1.130
2020/01/31 12:36:17.7	110.160	0.130	-0.270	1.200
2020/01/31 12:36:17.8	110.140	0.160	-0.340	1.270
2020/01/31 12:36:17.9	110.110	0.180	-0.410	1.340
2020/01/31 12:36:18.0	110.080	0.210	-0.480	1.410
2020/01/31 12:36:18.1	110.050	0.230	-0.550	1.490
2020/01/31 12:36:18.2	110.020	0.260	-0.620	1.560
2020/01/31 12:36:18.3	109.990	0.290	-0.680	1.630
2020/01/31 12:36:18.4	109.960	0.320	-0.740	1.700
2020/01/31 12:36:18.5	109.910	0.350	-0.800	1.770
2020/01/31 12:36:18.6	109.880	0.370	-0.860	1.840
2020/01/31 12:36:18.7	109.860	0.400	-0.910	1.910
2020/01/31 12:36:18.8	109.830	0.430	-0.960	1.970
2020/01/31 12:36:18.9	109.810	0.450	-1.010	2.030
2020/01/31 12:36:19.0	109.780	0.480	-1.040	2.090
2020/01/31 12:36:19.1	109.760	0.500	-1.080	2.150
2020/01/31 12:36:19.2	109.740	0.520	-1.100	2.200
2020/01/31 12:36:19.3	109.720	0.540	-1.120	2.250
2020/01/31 12:36:19.4	109.710	0.550	-1.140	2.290
2020/01/31 12:36:19.5	109.680	0.570	-1.140	2.330
2020/01/31 12:36:19.6	109.670	0.580	-1.140	2.370
2020/01/31 12:36:19.7	109.660	0.580	-1.130	2.400
2020/01/31 12:36:19.8	109.650	0.590	-1.120	2.430
2020/01/31 12:36:19.9	109.640	0.590	-1.090	2.450
2020/01/31 12:36:20.0	109.640	0.590	-1.060	2.470
2020/01/31 12:36:20.1	109.630	0.590	-1.030	2.490
2020/01/31 12:36:20.2	109.630	0.580	-0.980	2.500
2020/01/31 12:36:20.3	109.630	0.570	-0.930	2.500
2020/01/31 12:36:20.4	109.630	0.560	-0.870	2.500
2020/01/31 12:36:20.5	109.660	0.540	-0.800	2.500
2020/01/31 12:36:20.6	109.660	0.520	-0.730	2.490
2020/01/31 12:36:20.7	109.670	0.500	-0.650	2.480
2020/01/31 12:36:20.8	109.680	0.480	-0.570	2.460
2020/01/31 12:36:20.9	109.690	0.450	-0.490	2.450
2020/01/31 12:36:21.0	109.700	0.420	-0.400	2.430
2020/01/31 12:36:21.1	109.720	0.380	-0.310	2.400
2020/01/31 12:36:21.2	109.730	0.350	-0.220	2.380
2020/01/31 12:36:21.3	109.750	0.310	-0.120	2.350
2020/01/31 12:36:21.4	109.770	0.270	-0.030	2.320
2020/01/31 12:36:21.5	109.790	0.230	0.070	2.280
2020/01/31 12:36:21.6	109.810	0.190	0.160	2.250
2020/01/31 12:36:21.7	109.830	0.150	0.250	2.210
2020/01/31 12:36:21.8	109.860	0.100	0.340	2.170
2020/01/31 12:36:21.9	109.880	0.060	0.420	2.130
2020/01/31 12:36:22.0	109.900	0.010	0.500	2.090
2020/01/31 12:36:22.1	109.920	-0.030	0.580	2.050
2020/01/31 12:36:22.2	109.950	-0.080	0.650	2.000
2020/01/31 12:36:22.3	109.970	-0.120	0.710	1.960
2020/01/31 12:36:22.4	109.990	-0.170	0.770	1.910
2020/01/31 12:36:22.5	110.020	-0.210	0.820	1.860
2020/01/31 12:36:22.6	110.040	-0.250	0.860	1.810
2020/01/31 12:36:22.7	110.060	-0.290	0.890	1.770
2020/01/31 12:36:22.8	110.090	-0.330	0.920	1.720
2020/01/31 12:36:22.9	110.110	-0.370	0.940	1.670
2020/01/31 12:36:23.0	110.130	-0.410	0.950	1.620
2020/01/31 12:36:23.1	110.150	-0.440	0.950	1.570
2020/01/31 12:36:23.2	110.170	-0.470	0.940	1.520
2020/01/31 12:36:23.3	110.190	-0.500	0.920	1.480
2020/01/31 12:36:23.4	110.200	-0.530	0.890	1.430
2020/01/31 12:36:23.5	110.240	-0.550	0.860	1.380
2020/01/31 12:36:23.6	110.260	-0.570	0.810	1.340
2020/01/31 12:36:23.7	110.270	-0.590	0.760	1.290
2020/01/31 12:36:23.8	110.280	-0.600	0.700	1.250
2020/01/31 12:36:23.9	110.290	-0.610	0.640	1.210
2020/01/31 12:36:24.0	110.300	-0.620	0.570	1.180
2020/01/31 12:36:24.1	110.310	-0.630	0.490	1.140
2020/01/31 12:36:24.2	110.310	-0.630	0.410	1.110
2020/01/31 12:36:24.3	110.310	-0.630	0.320	1.080
2020/01/31 12:36:24.4	110.310	-0.620	0.230	1.050
2020/01/31 12:36:24.5	110.300	-0.610	0.130	1.030
2020/01/31 12:36:24.6	110.290	-0.600	0.040	1.010
2020/01/31 12:36:24.7	110.290	-0.590	-0.060	0.990
2020/01/31 12:36:24.8	110.280	-0.570	-0.160	0.980
2020/01/31 12:36:24.9	110.260	-0.550	-0.260	0.970
2020/01/31 12:36:25.0	110.250	-0.530	-0.360	0.960
2020/01/31 12:36:25.1	110.230	-0.510	-0.450	0.960
2020/01/31 12:36:25.2	110.210	-0.480	-0.550	0.960
2020/01/31 12:36:25.3	110.190	-0.460	-0.640	0.960
2020/01/31 12:36:25.4	110.170	-0.430	-0.730	0.970
2020/01/31 12:36:25.5	110.140	-0.400	-0.810	0.970
2020/01/31 12:36:25.6	110.110	-0.370	-0.890	0.980
2020/01/31 12:36:25.7	110.080	-0.340	-0.970	0.990
2020/01/31 12:36:25.8	110.050	-0.310	-1.040	1.000
2020/01/31 12:36:25.9	110.010	-0.280	-1.100	1.020
2020/01/31 12:36:26.0	109.980	-0.250	-1.160	1.030
2020/01/31 12:36:26.1	109.950	-0.220	-1.210	1.050
2020/01/31 12:36:26.2	109.910	-0.190	-1.250	1.060
2020/01/31 12:36:26.3	109.870	-0.160	-1.290	1.080
2020/01/31 12:36:26.4	109.840	-0.140	-1.320	1.090
2020/01/31 12:36:26.5	109.820	-0.110	-1.340	1.100
2020/01/31 12:36:26.6	109.790	-0.080	-1.350	1.110
2020/01/31 12:36:26.7	109.750	-0.060	-1.350	1.130
2020/01/31 12:36:26.8	109.720	-0.040	-1.340	1.140
2020/01/31 12:36:26.9	109.690	-0.020	-1.330	1.140
2020/01/31 12:36:27.0	109.650	-0.000	-1.310	1.150
2020/01/31 12:36:27.1	109.620	0.010	-1.280	1.160
2020/01/31 12:36:27.2	109.590	0.030	-1.240	1.160
2020/01/31 12:36:27.3	109.560	0.040	-1.200	1.160
2020/01/31 12:36:27.4	109.540	0.050	-1.140	1.160
2020/01/31 12:36:27.5	109.520	0.060	-1.080	1.160
2020/01/31 12:36:27.6	109.490	0.060	-1.010	1.160
2020/01/31 12:36:27.7	109.470	0.070	-0.940	1.150
2020/01/31 12:36:27.8	109.450	0.070	-0.870	1.140
2020/01/31 12:36:27.9	109.440	0.070	-0.790	1.140
2020/01/31 12:36:28.0	109.420	0.070	-0.700	1.120
2020/01/31 12:36:28.1	109.410	0.070	-0.610	1.110
2020/01/31 12:36:28.2	109.400	0.060	-0.520	1.100
2020/01/31 12:36:28.3	109.390	0.060	-0.430	1.080
2020/01/31 12:36:28.4	109.390	0.050	-0.330	1.060
2020/01/31 12:36:28.5	109.380	0.050	-0.240	1.040
2020/01/31 12:36:28.6	109.370	0.040	-0.140	1.020
2020/01/31 12:36:28.7	109.370	0.030	-0.050	1.000
2020/01/31 12:36:28.8	109.370	0.030	0.050	0.970
2020/01/31 12:36:28.9	109.370	0.020	0.140	0.950
2020/01/31 12:36:29.0	109.370	0.010	0.230	0.920
2020/01/31 12:36:29.1	109.370	0.000	0.320	0.890
2020/01/31 12:36:29.2	109.380	-0.000	0.410	0.860
2020/01/31 12:36:29.3	109.380	-0.010	0.490	0.820
2020/01/31 12:36:29.4	109.390	-0.010	0.560	0.790
2020/01/31 12:36:29.5	109.400	-0.020	0.630	0.760
2020/01/31 12:36:29.6	109.400	-0.020	0.700	0.720
2020/01/31 12:36:29.7	109.410	-0.020	0.760	0.680
2020/01/31 12:36:29.8	109.430	-0.030	0.810	0.640
2020/01/31 12:36:29.9	109.440	-0.030	0.850	0.590
2020/01/31 12:36:30.0	109.450	-0.030	0.890	0.550
2020/01/31 12:36:30.1	109.460	-0.030	0.920	0.500
2020/01/31 12:36:30.2	109.480	-0.020	0.950	0.460
2020/01/31 12:36:30.3	109.500	-0.020	0.960	0.410
2020/01/31 12:36:30.4	109.510	-0.010	0.970	0.360
2020/01/31 12:36:30.5	109.530	-0.010	0.970	0.310
2020/01/31 12:36:30.6	109.550	-0.000	0.970	0.260
2020/01/31 12:36:30.7	109.570	0.010	0.950	0.210
2020/01/31 12:36:30.8	109.590	0.020	0.930	0.160
2020/01/31 12:36:30.9	109.610	0.030	0.900	0.110
2020/01/31 12:36:31.0	109.640	0.040	0.870	0.060
2020/01/31 12:36:31.1	109.660	0.050	0.820	0.010
2020/01/31 12:36:31.2	109.680	0.060	0.780	-0.030
2020/01/31 12:36:31.3	109.700	0.080	0.720	-0.080
2020/01/31 12:36:31.4	109.720	0.090	0.660	-0.120
2020/01/31 12:36:31.5	109.730	0.110	0.600	-0.160
2020/01/31 12:36:31.6	109.750	0.120	0.530	-0.200
2020/01/31 12:36:31.7	109.770	0.140	0.460	-0.240
2020/01/31 12:36:31.8	109.780	0.150	0.380	-0.270
2020/01/31 12:36:31.9	109.800	0.170	0.310	-0.300
2020/01/31 12:36:32.0	109.820	0.190	0.230	-0.320
2020/01/31 12:36:32.1	109.830	0.200	0.150	-0.340
2020/01/31 12:36:32.2	109.840	0.220	0.070	-0.360
2020/01/31 12:36:32.3	109.850	0.240	-0.010	-0.370
2020/01/31 12:36:32.4	109.860	0.250	-0.100	-0.380
2020/01/31 12:36:32.5	109.870	0.270	-0.180	-0.390
2020/01/31 12:36:32.6	109.880	0.290	-0.260	-0.390
2020/01/31 12:36:32.7	109.880	0.300	-0.330	-0.380
2020/01/31 12:36:32.8	109.890	0.320	-0.410	-0.380
2020/01/31 12:36:32.9	109.890	0.330	-0.480	-0.360
2020/01/31 12:36:33.0	109.890	0.340	-0.550	-0.340
2020/01/31 12:36:33.1	109.890	0.360	-0.620	-0.320
2020/01/31 12:36:33.2	109.880	0.370	-0.680	-0.290
2020/01/31 12:36:33.3	109.880	0.380	-0.740	-0.260
2020/01/31 12:36:33.4	109.870	0.390	-0.790	-0.220
2020/01/31 12:36:33.5	109.860	0.400	-0.840	-0.180
2020/01/31 12:36:33.6	109.850	0.410	-0.890	-0.130
2020/01/31 12:36:33.7	109.840	0.410	-0.930	-0.080
2020/01/31 12:36:33.8	109.830	0.420	-0.960	-0.020
2020/01/31 12:36:33.9	109.820	0.420	-0.990	0.050
2020/01/31 12:36:34.0	109.800	0.430	-1.020	0.110
2020/01/31 12:36:34.1	109.790	0.430	-1.040	0.180
2020/01/31 12:36:34.2	109.770	0.430	-1.050	0.260
2020/01/31 12:36:34.3	109.750	0.430	-1.060	0.340
2020/01/31 12:36:34.4	109.730	0.420	-1.060	0.420
2020/01/31 12:36:34.5	109.720	0.420	-1.060	0.500
2020/01/31 12:36:34.6	109.700	0.410	-1.050	0.590
2020/01/31 12:36:34.7	109.680	0.410	-1.040	0.680
2020/01/31 12:36:34.8	109.650	0.400	-1.020	0.770
2020/01/31 12:36:34.9	109.630	0.390	-1.000	0.860
2020/01/31 12:36:35.0	109.610	0.370	-0.970	0.950
2020/01/31 12:36:35.1	109.590	0.360	-0.940	1.050
2020/01/31 12:36:35.2	109.560	0.340	-0.910	1.140
2020/01/31 12:36:35.3	109.540	0.330	-0.870	1.230
2020/01/31 12:36:35.4	109.520	0.310	-0.830	1.330
2020/01/31 12:36:35.5	109.510	0.290	-0.790	1.420
2020/01/31 12:36:35.6	109.490	0.270	-0.750	1.510
2020/01/31 12:36:35.7	109.470	0.250	-0.700	1.600
2020/01/31 12:36:35.8	109.450	0.220	-0.650	1.690
2020/01/31 12:36:35.9	109.440	0.200	-0.600	1.780
2020/01/31 12:36:36.0	109.420	0.180	-0.540	1.870
2020/01/31 12:36:36.1	109.410	0.150	-0.490	1.960
2020/01/31 12:36:36.2	109.400	0.120	-0.440	2.040
2020/01/31 12:36:36.3	109.390	0.100	-0.380	2.120
2020/01/31 12:36:36.4	109.380	0.070	-0.330	2.200
2020/01/31 12:36:36.5	109.380	0.040	-0.270	2.280
2020/01/31 12:36:36.6	109.380	0.010	-0.210	2.350
2020/01/31 12:36:36.7	109.380	-0.020	-0.160	2.420
2020/01/31 12:36:36.8	109.380	-0.050	-0.100	2.490
2020/01/31 12:36:36.9	109.380	-0.080	-0.050	2.550
2020/01/31 12:36:37.0	109.390	-0.110	0.010	2.610
2020/01/31 12:36:37.1	109.400	-0.150	0.060	2.670
2020/01/31 12:36:37.2	109.400	-0.180	0.120	2.710
2020/01/31 12:36:37.3	109.420	-0.210	0.170	2.760
2020/01/31 12:36:37.4	109.430	-0.240	0.220	2.800
2020/01/31 12:36:37.5	109.460	-0.280	0.270	2.830
2020/01/31 12:36:37.6	109.470	-0.310	0.320	2.860
2020/01/31 12:36:37.7	109.490	-0.340	0.360	2.890
2020/01/31 12:36:37.8	109.500	-0.370	0.400	2.910
2020/01/31 12:36:37.9	109.520	-0.410	0.440	2.920
2020/01/31 12:36:38.0	109.540	-0.440	0.480	2.930
2020/01/31 12:36:38.1	109.550	-0.470	0.510	2.940
2020/01/31 12:36:38.2	109.570	-0.490	0.540	2.940
2020/01/31 12:36:38.3	109.580	-0.520	0.570	2.930
2020/01/31 12:36:38.4	109.600	-0.550	0.590	2.930
2020/01/31 12:36:38.5	109.620	-0.570	0.600	2.920
2020/01/31 12:36:38.6	109.630	-0.590	0.610	2.900
2020/01/31 12:36:38.7	109.640	-0.610	0.620	2.880
2020/01/31 12:36:38.8	109.650	-0.630	0.620	2.850
2020/01/31 12:36:38.9	109.660	-0.640	0.620	2.820
2020/01/31 12:36:39.0	109.660	-0.650	0.610	2.790
2020/01/31 12:36:39.1	109.670	-0.660	0.590	2.760
2020/01/31 12:36:39.2	109.670	-0.670	0.580	2.720
2020/01/31 12:36:39.3	109.670	-0.670	0.550	2.680
2020/01/31 12:36:39.4	109.670	-0.670	0.520	2.640
2020/01/31 12:36:39.5	109.690	-0.670	0.490	2.590
2020/01/31 12:36:39.6	109.680	-0.660	0.450	2.540
2020/01/31 12:36:39.7	109.670	-0.650	0.410	2.490
2020/01/31 12:36:39.8	109.670	-0.630	0.360	2.440
2020/01/31 12:36:39.9	109.660	-0.620	0.310	2.390
2020/01/31 12:36:40.0	109.650	-0.600	0.250	2.330
2020/01/31 12:36:40.1	109.640	-0.570	0.190	2.280
2020/01/31 12:36:40.2	109.630	-0.540	0.130	2.220
2020/01/31 12:36:40.3	109.610	-0.510	0.070	2.160
2020/01/31 12:36:40.4	109.600	-0.480	-0.000	2.100
2020/01/31 12:36:40.5	109.580	-0.450	-0.070	2.030
2020/01/31 12:36:40.6	109.570	-0.410	-0.140	1.970
2020/01/31 12:36:40.7	109.560	-0.370	-0.210	1.900
2020/01/31 12:36:40.8	109.550	-0.330	-0.280	1.830
2020/01/31 12:36:40.9	109.540	-0.290	-0.340	1.760
2020/01/31 12:36:41.0	109.540	-0.250	-0.410	1.680
2020/01/31 12:36:41.1	109.530	-0.200	-0.480	1.610
2020/01/31 12:36:41.2	109.530	-0.160	-0.540	1.530
2020/01/31 12:36:41.3	109.520	-0.110	-0.600	1.450
2020/01/31 12:36:41.4	109.520	-0.070	-0.660	1.370
2020/01/31 12:36:41.5	109.500	-0.020	-0.710	1.280
2020/01/31 12:36:41.6	109.500	0.020	-0.770	1.200
2020/01/31 12:36:41.7	109.510	0.060	-0.810	1.120
2020/01/31 12:36:41.8	109.520	0.100	-0.860	1.030
2020/01/31 12:36:41.9	109.530	0.140	-0.900	0.940
2020/01/31 12:36:42.0	109.530	0.180	-0.930	0.850
2020/01/31 12:36:42.1	109.550	0.220	-0.960	0.770
2020/01/31 12:36:42.2	109.560	0.250	-0.980	0.680
2020/01/31 12:36:42.3	109.570	0.280	-1.000	0.590
2020/01/31 12:36:42.4	109.590	0.310	-1.010	0.500
2020/01/31 12:36:42.5	109.590	0.330	-1.010	0.410
2020/01/31 12:36:42.6	109.600	0.350	-1.010	0.330
2020/01/31 12:36:42.7	109.620	0.370	-1.000	0.240
2020/01/31 12:36:42.8	109.630	0.380	-0.980	0.160
2020/01/31 12:36:42.9	109.650	0.390	-0.960	0.080
2020/01/31 12:36:43.0	109.660	0.400	-0.930	0.000
2020/01/31 12:36:43.1	109.680	0.400	-0.890	-0.080
2020/01/31 12:36:43.2	109.690	0.400	-0.850	-0.150
2020/01/31 12:36:43.3	109.710	0.400	-0.800	-0.220
2020/01/31 12:36:43.4	109.720	0.390	-0.740	-0.290
2020/01/31 12:36:43.5	109.730	0.380	-0.680	-0.360
2020/01/31 12:36:43.6	109.750	0.370	-0.610	-0.420
2020/01/31 12:36:43.7	109.760	0.350	-0.540	-0.480
2020/01/31 12:36:43.8	109.770	0.330	-0.460	-0.540
2020/01/31 12:36:43.9	109.780	0.310	-0.380	-0.590
2020/01/31 12:36:44.0	109.790	0.280	-0.300	-0.640
2020/01/31 12:36:44.1	109.800	0.260	-0.210	-0.690
2020/01/31 12:36:44.2	109.800	0.230	-0.120	-0.730
2020/01/31 12:36:44.3	109.810	0.200	-0.030	-0.760
2020/01/31 12:36:44.4	109.820	0.170	0.060	-0.800
2020/01/31 12:36:44.5	109.810	0.140	0.150	-0.820
2020/01/31 12:36:44.6	109.820	0.100	0.240	-0.850
2020/01/31 12:36:44.7	109.820	0.070	0.330	-0.870
2020/01/31 12:36:44.8	109.820	0.030	0.410	-0.880
2020/01/31 12:36:44.9	109.830	-0.000	0.490	-0.890
2020/01/31 12:36:45.0	109.830	-0.030	0.570	-0.900
2020/01/31 12:36:45.1	109.830	-0.070	0.640	-0.900
2020/01/31 12:36:45.2	109.820	-0.100	0.710	-0.890
2020/01/31 12:36:45.3	109.820	-0.130	0.770	-0.890
2020/01/31 12:36:45.4	109.820	-0.160	0.830	-0.870
2020/01/31 12:36:45.5	109.810	-0.180	0.880	-0.850
2020/01/31 12:36:45.6	109.800	-0.210	0.920	-0.830
2020/01/31 12:36:45.7	109.800	-0.230	0.950	-0.810
2020/01/31 12:36:45.8	109.790	-0.250	0.970	-0.780
2020/01/31 12:36:45.9	109.790	-0.260	0.980	-0.740
2020/01/31 12:36:46.0	109.780	-0.280	0.980	-0.710
2020/01/31 12:36:46.1	109.770	-0.280	0.970	-0.670
2020/01/31 12:36:46.2	109.770	-0.290	0.950	-0.620
2020/01/31 12:36:46.3	109.760	-0.290	0.930	-0.570
2020/01/31 12:36:46.4	109.750	-0.290	0.890	-0.520
2020/01/31 12:36:46.5	109.760	-0.280	0.840	-0.470
2020/01/31 12:36:46.6	109.760	-0.270	0.780	-0.410
2020/01/31 12:36:46.7	109.750	-0.260	0.720	-0.350
2020/01/31 12:36:46.8	109.740	-0.240	0.640	-0.290
2020/01/31 12:36:46.9	109.740	-0.220	0.560	-0.230
2020/01/31 12:36:47.0	109.730	-0.190	0.470	-0.160
2020/01/31 12:36:47.1	109.730	-0.170	0.380	-0.100
2020/01/31 12:36:47.2	109.720	-0.140	0.280	-0.030
2020/01/31 12:36:47.3	109.720	-0.100	0.180	0.040
2020/01/31 12:36:47.4	109.720	-0.070	0.070	0.100
2020/01/31 12:36:47.5	109.720	-0.030	-0.040	0.180
2020/01/31 12:36:47.6	109.720	0.010	-0.150	0.250
2020/01/31 12:36:47.7	109.730	0.040	-0.270	0.320
2020/01/31 12:36:47.8	109.730	0.080	-0.380	0.390
2020/01/31 12:36:47.9	109.730	0.130	-0.490	0.460
2020/01/31 12:36:48.0	109.740	0.170	-0.600	0.530
2020/01/31 12:36:48.1	109.740	0.210	-0.710	0.610
2020/01/31 12:36:48.2	109.750	0.250	-0.810	0.680
2020/01/31 12:36:48.3	109.750	0.290	-0.900	0.750
2020/01/31 12:36:48.4	109.760	0.330	-1.000	0.820
2020/01/31 12:36:48.5	109.760	0.360	-1.080	0.890
2020/01/31 12:36:48.6	109.770	0.400	-1.160	0.970
2020/01/31 12:36:48.7	109.780	0.430	-1.230	1.040
2020/01/31 12:36:48.8	109.780	0.460	-1.290	1.110
2020/01/31 12:36:48.9	109.780	0.490	-1.350	1.190
2020/01/31 12:36:49.0	109.790	0.520	-1.390	1.260
2020/01/31 12:36:49.1	109.790	0.540	-1.420	1.330
2020/01/31 12:36:49.2	109.790	0.560	-1.450	1.400
2020/01/31 12:36:49.3	109.790	0.570	-1.460	1.470
2020/01/31 12:36:49.4	109.790	0.590	-1.460	1.540
2020/01/31 12:36:49.5	109.780	0.590	-1.450	1.600
2020/01/31 12:36:49.6	109.780	0.600	-1.430	1.670
2020/01/31 12:36:49.7	109.770	0.600	-1.410	1.730
2020/01/31 12:36:49.8	109.770	0.600	-1.370	1.800
2020/01/31 12:36:49.9	109.770	0.590	-1.320	1.860
2020/01/31 12:36:50.0	109.760	0.580	-1.270	1.910
2020/01/31 12:36:50.1	109.750	0.570	-1.200	1.970
2020/01/31 12:36:50.2	109.750	0.550	-1.130	2.020
2020/01/31 12:36:50.3	109.740	0.530	-1.050	2.080
2020/01/31 12:36:50.4	109.740	0.510	-0.970	2.130
2020/01/31 12:36:50.5	109.720	0.490	-0.880	2.170
2020/01/31 12:36:50.6	109.720	0.460	-0.780	2.220
2020/01/31 12:36:50.7	109.710	0.430	-0.690	2.260
2020/01/31 12:36:50.8	109.700	0.400	-0.590	2.310
2020/01/31 12:36:50.9	109.690	0.360	-0.490	2.350
2020/01/31 12:36:51.0	109.680	0.330	-0.390	2.380
2020/01/31 12:36:51.1	109.680	0.290	-0.290	2.420
2020/01/31 12:36:51.2	109.670	0.260	-0.190	2.460
2020/01/31 12:36:51.3	109.660	0.220	-0.090	2.490
2020/01/31 12:36:51.4	109.650	0.180	0.000	2.520
2020/01/31 12:36:51.5	109.640	0.150	0.090	2.550
2020/01/31 12:36:51.6	109.630	0.110	0.180	2.580
2020/01/31 12:36:51.7	109.620	0.080	0.260	2.610
2020/01/31 12:36:51.8	109.610	0.040	0.340	2.630
2020/01/31 12:36:51.9	109.610	0.010	0.410	2.650
2020/01/31 12:36:52.0	109.600	-0.030	0.470	2.660
2020/01/31 12:36:52.1	109.600	-0.060	0.530	2.680
2020/01/31 12:36:52.2	109.590	-0.090	0.580	2.690
2020/01/31 12:36:52.3	109.590	-0.110	0.620	2.690
2020/01/31 12:36:52.4	109.590	-0.140	0.660	2.700
2020/01/31 12:36:52.5	109.610	-0.170	0.700	2.690
2020/01/31 12:36:52.6	109.620	-0.190	0.720	2.680
2020/01/31 12:36:52.7	109.620	-0.210	0.730	2.670
2020/01/31 12:36:52.8	109.630	-0.230	0.740	2.650
2020/01/31 12:36:52.9	109.640	-0.240	0.740	2.630
2020/01/31 12:36:53.0	109.650	-0.260	0.740	2.600
2020/01/31 12:36:53.1	109.670	-0.270	0.720	2.570
2020/01/31 12:36:53.2	109.690	-0.280	0.710	2.530
2020/01/31 12:36:53.3	109.710	-0.290	0.680	2.490
2020/01/31 12:36:53.4	109.730	-0.300	0.650	2.450
2020/01/31 12:36:53.5	109.750	-0.310	0.620	2.400
2020/01/31 12:36:53.6	109.780	-0.320	0.580	2.340
2020/01/31 12:36:53.7	109.800	-0.320	0.540	2.290
2020/01/31 12:36:53.8	109.830	-0.330	0.500	2.230
2020/01/31 12:36:53.9	109.860	-0.330	0.450	2.160
2020/01/31 12:36:54.0	109.890	-0.330	0.400	2.100
2020/01/31 12:36:54.1	109.910	-0.330	0.350	2.030
2020/01/31 12:36:54.2	109.940	-0.340	0.300	1.970
2020/01/31 12:36:54.3	109.970	-0.340	0.250	1.900
2020/01/31 12:36:54.4	109.990	-0.340	0.200	1.830
2020/01/31 12:36:54.5	110.010	-0.340	0.150	1.750
2020/01/31 12:36:54.6	110.030	-0.350	0.100	1.690
2020/01/31 12:36:54.7	110.050	-0.350	0.060	1.620
2020/01/31 12:36:54.8	110.070	-0.350	0.010	1.550
2020/01/31 12:36:54.9	110.090	-0.350	-0.030	1.490
2020/01/31 12:36:55.0	110.100	-0.360	-0.070	1.430
2020/01/31 12:36:55.1	110.110	-0.360	-0.110	1.370
2020/01/31 12:36:55.2	110.120	-0.370	-0.150	1.310
2020/01/31 12:36:55.3	110.120	-0.370	-0.180	1.250
2020/01/31 12:36:55.4	110.120	-0.380	-0.210	1.200
2020/01/31 12:36:55.5	110.110	-0.380	-0.240	1.150
2020/01/31 12:36:55.6	110.100	-0.390	-0.270	1.100
2020/01/31 12:36:55.7	110.090	-0.400	-0.290	1.050
2020/01/31 12:36:55.8	110.080	-0.400	-0.300	1.010
2020/01/31 12:36:55.9	110.070	-0.410	-0.320	0.960
2020/01/31 12:36:56.0	110.050	-0.420	-0.330	0.920
2020/01/31 12:36:56.1	110.030	-0.420	-0.340	0.890
2020/01/31 12:36:56.2	110.010	-0.430	-0.350	0.850
2020/01/31 12:36:56.3	109.980	-0.440	-0.350	0.820
2020/01/31 12:36:56.4	109.960	-0.440	-0.350	0.790
2020/01/31 12:36:56.5	109.920	-0.450	-0.350	0.750
2020/01/31 12:36:56.6	109.890	-0.450	-0.350	0.730
2020/01/31 12:36:56.7	109.850	-0.450	-0.350	0.700
2020/01/31 12:36:56.8	109.820	-0.460	-0.350	0.670
2020/01/31 12:36:56.9	109.790	-0.460	-0.340	0.650
2020/01/31 12:36:57.0	109.760	-0.460	-0.340	0.630
2020/01/31 12:36:57.1	109.730	-0.450	-0.340	0.600
2020/01/31 12:36:57.2	109.690	-0.450	-0.340	0.580
2020/01/31 12:36:57.3	109.660	-0.440	-0.340	0.560
2020/01/31 12:36:57.4	109.630	-0.440	-0.340	0.530
2020/01/31 12:36:57.5	109.600	-0.430	-0.340	0.510
2020/01/31 12:36:57.6	109.570	-0.420	-0.340	0.490
2020/01/31 12:36:57.7	109.540	-0.400	-0.340	0.460
2020/01/31 12:36:57.8	109.510	-0.390	-0.350	0.440
2020/01/31 12:36:57.9	109.490	-0.370	-0.350	0.410
2020/01/31 12:36:58.0	109.460	-0.350	-0.360	0.390
2020/01/31 12:36:58.1	109.440	-0.330	-0.370	0.360
2020/01/31 12:36:58.2	109.420	-0.300	-0.380	0.330
2020/01/31 12:36:58.3	109.400	-0.280	-0.390	0.310
2020/01/31 12:36:58.4	109.380	-0.250	-0.400	0.280
2020/01/31 12:36:58.5	109.350	-0.220	-0.410	0.250
2020/01/31 12:36:58.6	109.340	-0.190	-0.420	0.210
2020/01/31 12:36:58.7	109.320	-0.160	-0.440	0.180
2020/01/31 12:36:58.8	109.310	-0.130	-0.450	0.150
2020/01/31 12:36:58.9	109.300	-0.100	-0.460	0.110
2020/01/31 12:36:59.0	109.290	-0.060	-0.470	0.080
2020/01/31 12:36:59.1	109.280	-0.030	-0.480	0.040
2020/01/31 12:36:59.2	109.280	0.000	-0.490	0.000
2020/01/31 12:36:59.3	109.270	0.040	-0.500	-0.040
2020/01/31 12:36:59.4	109.270	0.070	-0.510	-0.080
2020/01/31 12:36:59.5	109.270	0.110	-0.510	-0.120
2020/01/31 12:36:59.6	109.280	0.140	-0.510	-0.160
2020/01/31 12:36:59.7	109.280	0.180	-0.510	-0.200
2020/01/31 12:36:59.8	109.290	0.210	-0.510	-0.240
2020/01/31 12:36:59.9	109.290	0.240	-0.510	-0.280
2020/01/31 12:37:00.0	109.300	0.280	-0.500	-0.320
2020/01/31 12:37:00.1	109.310	0.310	-0.490	-0.360
2020/01/31 12:37:00.2	109.330	0.340	-0.480	-0.390
2020/01/31 12:37:00.3	109.340	0.360	-0.470	-0.430
2020/01/31 12:37:00.4	109.360	0.390	-0.460	-0.470
2020/01/31 12:37:00.5	109.370	0.420	-0.440	-0.500
2020/01/31 12:37:00.6	109.390	0.440	-0.420	-0.530
2020/01/31 12:37:00.7	109.410	0.460	-0.400	-0.550
2020/01/31 12:37:00.8	109.430	0.480	-0.380	-0.580
2020/01/31 12:37:00.9	109.450	0.500	-0.360	-0.600
2020/01/31 12:37:01.0	109.480	0.520	-0.340	-0.620
2020/01/31 12:37:01.1	109.500	0.530	-0.310	-0.630
2020/01/31 12:37:01.2	109.530	0.540	-0.290	-0.640
2020/01/31 12:37:01.3	109.550	0.550	-0.260	-0.650
2020/01/31 12:37:01.4	109.580	0.560	-0.240	-0.660
2020/01/31 12:37:01.5	109.600	0.570	-0.210	-0.660
2020/01/31 12:37:01.6	109.630	0.570	-0.180	-0.650
2020/01/31 12:37:01.7	109.660	0.570	-0.160	-0.640
2020/01/31 12:37:01.8	109.690	0.570	-0.130	-0.630
2020/01/31 12:37:01.9	109.710	0.570	-0.110	-0.620
2020/01/31 12:37:02.0	109.740	0.570	-0.090	-0.600
2020/01/31 12:37:02.1	109.760	0.560	-0.060	-0.580
2020/01/31 12:37:02.2	109.790	0.560	-0.040	-0.550
2020/01/31 12:37:02.3	109.810	0.550	-0.020	-0.520
2020/01/31 12:37:02.4	109.830	0.540	-0.000	-0.480
2020/01/31 12:37:02.5	109.850	0.530	0.020	-0.440
2020/01/31 12:37:02.6	109.860	0.520	0.040	-0.390
2020/01/31 12:37:02.7	109.870	0.500	0.060	-0.340
2020/01/31 12:37:02.8	109.880	0.490	0.070	-0.290
2020/01/31 12:37:02.9	109.890	0.470	0.090	-0.230
2020/01/31 12:37:03.0	109.890	0.460	0.110	-0.170
2020/01/31 12:37:03.1	109.890	0.440	0.120	-0.100
2020/01/31 12:37:03.2	109.890	0.420	0.140	-0.030
2020/01/31 12:37:03.3	109.890	0.400	0.150	0.040
2020/01/31 12:37:03.4	109.880	0.380	0.160	0.110
2020/01/31 12:37:03.5	109.860	0.360	0.180	0.190
2020/01/31 12:37:03.6	109.840	0.340	0.190	0.270
2020/01/31 12:37:03.7	109.830	0.320	0.200	0.360
2020/01/31 12:37:03.8	109.810	0.290	0.210	0.440
2020/01/31 12:37:03.9	109.790	0.270	0.230	0.530
2020/01/31 12:37:04.0	109.770	0.250	0.240	0.610
2020/01/31 12:37:04.1	109.740	0.230	0.240	0.700
2020/01/31 12:37:04.2	109.710	0.200	0.250	0.790
2020/01/31 12:37:04.3	109.690	0.180	0.260	0.880
2020/01/31 12:37:04.4	109.660	0.160	0.270	0.970
2020/01/31 12:37:04.5	109.630	0.140	0.270	1.060
2020/01/31 12:37:04.6	109.600	0.110	0.280	1.150
2020/01/31 12:37:04.7	109.570	0.090	0.280	1.240
2020/01/31 12:37:04.8	109.540	0.070	0.280	1.330
2020/01/31 12:37:04.9	109.510	0.050	0.280	1.420
2020/01/31 12:37:05.0	109.490	0.030	0.280	1.510
2020/01/31 12:37:05.1	109.460	0.010	0.280	1.600
2020/01/31 12:37:05.2	109.430	-0.010	0.270	1.680
2020/01/31 12:37:05.3	109.400	-0.030	0.260	1.770
2020/01/31 12:37:05.4	109.380	-0.050	0.250	1.860
2020/01/31 12:37:05.5	109.360	-0.070	0.240	1.940
2020/01/31 12:37:05.6	109.330	-0.090	0.230	2.030
2020/01/31 12:37:05.7	109.310	-0.100	0.210	2.110
2020/01/31 12:37:05.8	109.290	-0.120	0.190	2.200
2020/01/31 12:37:05.9	109.270	-0.130	0.170	2.280
2020/01/31 12:37:06.0	109.250	-0.140	0.140	2.360
2020/01/31 12:37:06.1	109.230	-0.160	0.110	2.440
2020/01/31 12:37:06.2	109.220	-0.170	0.080	2.520
2020/01/31 12:37:06.3	109.200	-0.180	0.050	2.600
2020/01/31 12:37:06.4	109.190	-0.180	0.010	2.670
2020/01/31 12:37:06.5	109.180	-0.190	-0.030	2.750
2020/01/31 12:37:06.6	109.170	-0.200	-0.070	2.820
2020/01/31 12:37:06.7	109.160	-0.200	-0.110	2.890
2020/01/31 12:37:06.8	109.160	-0.200	-0.150	2.960
2020/01/31 12:37:06.9	109.150	-0.210	-0.200	3.020
2020/01/31 12:37:07.0	109.150	-0.210	-0.250	3.080
2020/01/31 12:37:07.1	109.150	-0.200	-0.290	3.130
2020/01/31 12:37:07.2	109.150	-0.200	-0.340	3.180
2020/01/31 12:37:07.3	109.150	-0.200	-0.390	3.230
2020/01/31 12:37:07.4	109.150	-0.190	-0.440	3.270
2020/01/31 12:37:07.5	109.140	-0.190	-0.490	3.300
2020/01/31 12:37:07.6	109.150	-0.180	-0.540	3.330
2020/01/31 12:37:07.7	109.150	-0.180	-0.580	3.360
2020/01/31 12:37:07.8	109.160	-0.170	-0.630	3.380
2020/01/31 12:37:07.9	109.160	-0.160	-0.670	3.390
2020/01/31 12:37:08.0	109.170	-0.150	-0.710	3.400
2020/01/31 12:37:08.1	109.180	-0.140	-0.750	3.400
2020/01/31 12:37:08.2	109.190	-0.130	-0.780	3.400
2020/01/31 12:37:08.3	109.200	-0.130	-0.810	3.380
2020/01/31 12:37:08.4	109.210	-0.120	-0.840	3.370
2020/01/31 12:37:08.5	109.230	-0.110	-0.860	3.340
2020/01/31 12:37:08.6	109.240	-0.100	-0.880	3.310
2020/01/31 12:37:08.7	109.260	-0.090	-0.890	3.280
2020/01/31 12:37:08.8	109.270	-0.090	-0.900	3.240
2020/01/31 12:37:08.9	109.280	-0.080	-0.910	3.190
2020/01/31 12:37:09.0	109.300	-0.080	-0.910	3.140
2020/01/31 12:37:09.1	109.310	-0.070	-0.910	3.090
2020/01/31 12:37:09.2	109.330	-0.070	-0.900	3.030
2020/01/31 12:37:09.3	109.340	-0.060	-0.890	2.970
2020/01/31 12:37:09.4	109.360	-0.060	-0.870	2.900
2020/01/31 12:37:09.5	109.380	-0.060	-0.850	2.830
2020/01/31 12:37:09.6	109.390	-0.060	-0.830	2.760
2020/01/31 12:37:09.7	109.400	-0.060	-0.800	2.680
2020/01/31 12:37:09.8	109.410	-0.060	-0.760	2.610
2020/01/31 12:37:09.9	109.420	-0.060	-0.730	2.540
2020/01/31 12:37:10.0	109.420	-0.060	-0.690	2.460
2020/01/31 12:37:10.1	109.430	-0.070	-0.640	2.390
2020/01/31 12:37:10.2	109.430	-0.070	-0.600	2.310
2020/01/31 12:37:10.3	109.430	-0.080	-0.550	2.240
2020/01/31 12:37:10.4	109.430	-0.080	-0.500	2.160
2020/01/31 12:37:10.5	109.440	-0.090	-0.450	2.090
2020/01/31 12:37:10.6	109.430	-0.090	-0.390	2.020
2020/01/31 12:37:10.7	109.420	-0.100	-0.340	1.950
2020/01/31 12:37:10.8	109.410	-0.110	-0.280	1.880
2020/01/31 12:37:10.9	109.400	-0.110	-0.220	1.810
2020/01/31 12:37:11.0	109.380	-0.120	-0.160	1.740
2020/01/31 12:37:11.1	109.370	-0.130	-0.110	1.670
2020/01/31 12:37:11.2	109.350	-0.140	-0.050	1.600
2020/01/31 12:37:11.3	109.330	-0.150	0.010	1.540
2020/01/31 12:37:11.4	109.300	-0.160	0.070	1.470
2020/01/31 12:37:11.5	109.270	-0.170	0.130	1.410
2020/01/31 12:37:11.6	109.240	-0.180	0.180	1.340
2020/01/31 12:37:11.7	109.220	-0.190	0.230	1.280
2020/01/31 12:37:11.8	109.190	-0.200	0.290	1.220
2020/01/31 12:37:11.9	109.160	-0.200	0.340	1.150
2020/01/31 12:37:12.0	109.130	-0.210	0.390	1.090
2020/01/31 12:37:12.1	109.100	-0.220	0.430	1.030
2020/01/31 12:37:12.2	109.080	-0.230	0.470	0.960
2020/01/31 12:37:12.3	109.050	-0.240	0.510	0.900
2020/01/31 12:37:12.4	109.020	-0.240	0.540	0.840
2020/01/31 12:37:12.5	108.970	-0.250	0.580	0.770
2020/01/31 12:37:12.6	108.950	-0.250	0.600	0.710
2020/01/31 12:37:12.7	108.930	-0.260	0.620	0.640
2020/01/31 12:37:12.8	108.910	-0.260	0.640	0.570
2020/01/31 12:37:12.9	108.890	-0.260	0.650	0.500
2020/01/31 12:37:13.0	108.870	-0.260	0.660	0.430
2020/01/31 12:37:13.1	108.860	-0.260	0.660	0.350
2020/01/31 12:37:13.2	108.850	-0.250	0.650	0.280
2020/01/31 12:37:13.3	108.840	-0.250	0.640	0.200
2020/01/31 12:37:13.4	108.830	-0.240	0.630	0.130
2020/01/31 12:37:13.5	108.830	-0.240	0.610	0.040
2020/01/31 12:37:13.6	108.830	-0.230	0.580	-0.040
2020/01/31 12:37:13.7	108.830	-0.220	0.550	-0.120
2020/01/31 12:37:13.8	108.830	-0.200	0.510	-0.200
2020/01/31 12:37:13.9	108.840	-0.190	0.470	-0.280
2020/01/31 12:37:14.0	108.850	-0.170	0.420	-0.360
2020/01/31 12:37:14.1	108.860	-0.150	0.370	-0.450
2020/01/31 12:37:14.2	108.870	-0.130	0.310	-0.530
2020/01/31 12:37:14.3	108.880	-0.110	0.250	-0.610
2020/01/31 12:37:14.4	108.890	-0.090	0.180	-0.680
2020/01/31 12:37:14.5	108.900	-0.060	0.120	-0.760
2020/01/31 12:37:14.6	108.910	-0.040	0.050	-0.840
2020/01/31 12:37:14.7	108.930	-0.010	-0.030	-0.910
2020/01/31 12:37:14.8	108.940	0.020	-0.100	-0.980
2020/01/31 12:37:14.9	108.960	0.050	-0.180	-1.040
2020/01/31 12:37:15.0	108.970	0.080	-0.250	-1.100
2020/01/31 12:37:15.1	108.990	0.110	-0.330	-1.160
2020/01/31 12:37:15.2	109.000	0.140	-0.400	-1.210
2020/01/31 12:37:15.3	109.020	0.170	-0.480	-1.260
2020/01/31 12:37:15.4	109.030	0.200	-0.550	-1.300
2020/01/31 12:37:15.5	109.040	0.240	-0.620	-1.340
2020/01/31 12:37:15.6	109.050	0.270	-0.680	-1.370
2020/01/31 12:37:15.7	109.060	0.300	-0.740	-1.390
2020/01/31 12:37:15.8	109.070	0.330	-0.800	-1.410
2020/01/31 12:37:15.9	109.080	0.360	-0.850	-1.420
2020/01/31 12:37:16.0	109.080	0.390	-0.900	-1.430
2020/01/31 12:37:16.1	109.090	0.420	-0.940	-1.430
2020/01/31 12:37:16.2	109.090	0.440	-0.970	-1.420
2020/01/31 12:37:16.3	109.090	0.460	-1.000	-1.400
2020/01/31 12:37:16.4	109.090	0.490	-1.020	-1.380
2020/01/31 12:37:16.5	109.090	0.510	-1.030	-1.350
2020/01/31 12:37:16.6	109.090	0.520	-1.040	-1.320
2020/01/31 12:37:16.7	109.090	0.540	-1.030	-1.270
2020/01/31 12:37:16.8	109.080	0.550	-1.020	-1.230
2020/01/31 12:37:16.9	109.080	0.560	-1.000	-1.170
2020/01/31 12:37:17.0	109.070	0.570	-0.980	-1.110
2020/01/31 12:37:17.1	109.060	0.570	-0.940	-1.050
2020/01/31 12:37:17.2	109.050	0.570	-0.900	-0.980
2020/01/31 12:37:17.3	109.040	0.570	-0.850	-0.900
2020/01/31 12:37:17.4	109.030	0.560	-0.800	-0.820
2020/01/31 12:37:17.5	109.010	0.550	-0.740	-0.730
2020/01/31 12:37:17.6	109.000	0.540	-0.670	-0.640
2020/01/31 12:37:17.7	108.980	0.530	-0.600	-0.540
2020/01/31 12:37:17.8	108.970	0.510	-0.530	-0.440
2020/01/31 12:37:17.9	108.950	0.490	-0.450	-0.340
2020/01/31 12:37:18.0	108.930	0.470	-0.370	-0.230
2020/01/31 12:37:18.1	108.910	0.450	-0.290	-0.120
2020/01/31 12:37:18.2	108.890	0.420	-0.210	-0.010
2020/01/31 12:37:18.3	108.880	0.390	-0.130	0.110
2020/01/31 12:37:18.4	108.860	0.360	-0.050	0.230
2020/01/31 12:37:18.5	108.840	0.330	0.040	0.350
2020/01/31 12:37:18.6	108.820	0.300	0.120	0.470
2020/01/31 12:37:18.7	108.800	0.270	0.190	0.590
2020/01/31 12:37:18.8	108.780	0.230	0.260	0.710
2020/01/31 12:37:18.9	108.760	0.200	0.330	0.840
2020/01/31 12:37:19.0	108.740	0.170	0.390	0.960
2020/01/31 12:37:19.1	108.720	0.130	0.440	1.090
2020/01/31 12:37:19.2	108.700	0.100	0.490	1.210
2020/01/31 12:37:19.3	108.690	0.070	0.530	1.330
2020/01/31 12:37:19.4	108.670	0.030	0.570	1.450
2020/01/31 12:37:19.5	108.660	0.000	0.600	1.570
2020/01/31 12:37:19.6	108.640	-0.030	0.620	1.690
2020/01/31 12:37:19.7	108.630	-0.060	0.630	1.810
2020/01/31 12:37:19.8	108.620	-0.090	0.640	1.920
2020/01/31 12:37:19.9	108.610	-0.110	0.640	2.040
2020/01/31 12:37:20.0	108.610	-0.140	0.630	2.150
2020/01/31 12:37:20.1	108.600	-0.160	0.620	2.250
2020/01/31 12:37:20.2	108.590	-0.180	0.600	2.360
2020/01/31 12:37:20.3	108.590	-0.200	0.570	2.460
2020/01/31 12:37:20.4	108.590	-0.220	0.540	2.550
2020/01/31 12:37:20.5	108.580	-0.240	0.500	2.650
2020/01/31 12:37:20.6	108.580	-0.260	0.460	2.740
2020/01/31 12:37:20.7	108.580	-0.270	0.410	2.820
2020/01/31 12:37:20.8	108.580	-0.280	0.360	2.900
2020/01/31 12:37:20.9	108.580	-0.290	0.300	2.980
2020/01/31 12:37:21.0	108.580	-0.300	0.250	3.050
2020/01/31 12:37:21.1	108.580	-0.310	0.190	3.110
2020/01/31 12:37:21.2	108.580	-0.320	0.130	3.180
2020/01/31 12:37:21.3	108.590	-0.330	0.070	3.230
2020/01/31 12:37:21.4	108.590	-0.330	0.010	3.280
2020/01/31 12:37:21.5	108.610	-0.330	-0.050	3.330
2020/01/31 12:37:21.6	108.610	-0.340	-0.110	3.370
2020/01/31 12:37:21.7	108.610	-0.340	-0.160	3.410
2020/01/31 12:37:21.8	108.620	-0.340	-0.220	3.440
2020/01/31 12:37:21.9	108.620	-0.340	-0.270	3.460
2020/01/31 12:37:22.0	108.620	-0.340	-0.320	3.480
2020/01/31 12:37:22.1	108.630	-0.330	-0.370	3.500
2020/01/31 12:37:22.2	108.630	-0.330	-0.410	3.510
2020/01/31 12:37:22.3	108.630	-0.330	-0.450	3.520
2020/01/31 12:37:22.4	108.630	-0.320	-0.490	3.520
2020/01/31 12:37:22.5	108.650	-0.320	-0.520	3.520
2020/01/31 12:37:22.6	108.650	-0.310	-0.550	3.510
2020/01/31 12:37:22.7	108.650	-0.300	-0.570	3.500
2020/01/31 12:37:22.8	108.650	-0.300	-0.590	3.480
2020/01/31 12:37:22.9	108.650	-0.290	-0.610	3.460
2020/01/31 12:37:23.0	108.650	-0.280	-0.620	3.440
2020/01/31 12:37:23.1	108.650	-0.270	-0.630	3.410
2020/01/31 12:37:23.2	108.650	-0.260	-0.630	3.380
2020/01/31 12:37:23.3	108.640	-0.250	-0.630	3.340
2020/01/31 12:37:23.4	108.640	-0.240	-0.630	3.300
2020/01/31 12:37:23.5	108.660	-0.220	-0.620	3.250
2020/01/31 12:37:23.6	108.660	-0.210	-0.620	3.200
2020/01/31 12:37:23.7	108.650	-0.200	-0.600	3.140
2020/01/31 12:37:23.8	108.650	-0.180	-0.590	3.090
2020/01/31 12:37:23.9	108.650	-0.170	-0.580	3.030
2020/01/31 12:37:24.0	108.650	-0.150	-0.560	2.960
2020/01/31 12:37:24.1	108.650	-0.140	-0.540	2.900
2020/01/31 12:37:24.2	108.650	-0.120	-0.530	2.830
2020/01/31 12:37:24.3	108.660	-0.110	-0.510	2.750
2020/01/31 12:37:24.4	108.660	-0.090	-0.490	2.680
2020/01/31 12:37:24.5	108.660	-0.070	-0.480	2.600
2020/01/31 12:37:24.6	108.660	-0.060	-0.460	2.520
2020/01/31 12:37:24.7	108.670	-0.040	-0.450	2.440
2020/01/31 12:37:24.8	108.670	-0.020	-0.430	2.350
2020/01/31 12:37:24.9	108.670	-0.000	-0.420	2.270
2020/01/31 12:37:25.0	108.680	0.020	-0.410	2.180
2020/01/31 12:37:25.1	108.680	0.030	-0.390	2.090
2020/01/31 12:37:25.2	108.690	0.050	-0.380	2.010
2020/01/31 12:37:25.3	108.690	0.070	-0.380	1.920
2020/01/31 12:37:25.4	108.690	0.090	-0.370	1.830
2020/01/31 12:37:25.5	108.700	0.100	-0.360	1.730
2020/01/31 12:37:25.6	108.700	0.120	-0.360	1.640
2020/01/31 12:37:25.7	108.700	0.130	-0.350	1.550
2020/01/31 12:37:25.8	108.700	0.150	-0.350	1.460
2020/01/31 12:37:25.9	108.690	0.160	-0.340	1.370
2020/01/31 12:37:26.0	108.690	0.170	-0.340	1.270
2020/01/31 12:37:26.1	108.680	0.180	-0.340	1.180
2020/01/31 12:37:26.2	108.670	0.190	-0.330	1.090
2020/01/31 12:37:26.3	108.660	0.200	-0.330	1.000
2020/01/31 12:37:26.4	108.650	0.210	-0.320	0.900
2020/01/31 12:37:26.5	108.650	0.210	-0.310	0.810
2020/01/31 12:37:26.6	108.630	0.220	-0.300	0.710
2020/01/31 12:37:26.7	108.620	0.220	-0.290	0.620
2020/01/31 12:37:26.8	108.600	0.220	-0.280	0.530
2020/01/31 12:37:26.9	108.580	0.220	-0.270	0.440
2020/01/31 12:37:27.0	108.560	0.220	-0.260	0.350
2020/01/31 12:37:27.1	108.540	0.220	-0.240	0.260
2020/01/31 12:37:27.2	108.520	0.210	-0.220	0.170
2020/01/31 12:37:27.3	108.500	0.210	-0.210	0.080
2020/01/31 12:37:27.4	108.480	0.200	-0.190	-0.000
2020/01/31 12:37:27.5	108.440	0.200	-0.170	-0.090
2020/01/31 12:37:27.6	108.420	0.190	-0.140	-0.170
2020/01/31 12:37:27.7	108.400	0.180	-0.120	-0.260
2020/01/31 12:37:27.8	108.380	0.170	-0.100	-0.340
2020/01/31 12:37:27.9	108.360	0.160	-0.070	-0.420
2020/01/31 12:37:28.0	108.340	0.150	-0.040	-0.500
2020/01/31 12:37:28.1	108.320	0.140	-0.020	-0.570
2020/01/31 12:37:28.2	108.300	0.130	0.010	-0.650
2020/01/31 12:37:28.3	108.280	0.120	0.040	-0.720
2020/01/31 12:37:28.4	108.270	0.110	0.060	-0.790
2020/01/31 12:37:28.5	108.250	0.090	0.090	-0.860
2020/01/31 12:37:28.6	108.240	0.080	0.120	-0.920
2020/01/31 12:37:28.7	108.230	0.070	0.140	-0.980
2020/01/31 12:37:28.8	108.210	0.060	0.170	-1.040
2020/01/31 12:37:28.9	108.200	0.050	0.190	-1.100
2020/01/31 12:37:29.0	108.190	0.040	0.210	-1.150
2020/01/31 12:37:29.1	108.190	0.030	0.230	-1.190
2020/01/31 12:37:29.2	108.180	0.020	0.250	-1.240
2020/01/31 12:37:29.3	108.170	0.010	0.260	-1.270
2020/01/31 12:37:29.4	108.170	-0.000	0.270	-1.310
2020/01/31 12:37:29.5	108.160	-0.010	0.280	-1.330
2020/01/31 12:37:29.6	108.160	-0.020	0.290	-1.360
2020/01/31 12:37:29.7	108.160	-0.030	0.300	-1.380
2020/01/31 12:37:29.8	108.160	-0.040	0.300	-1.390
2020/01/31 12:37:29.9	108.160	-0.050	0.300	-1.400
2020/01/31 12:37:30.0	108.160	-0.060	0.300	-1.400
2020/01/31 12:37:30.1	108.160	-0.070	0.300	-1.400
2020/01/31 12:37:30.2	108.160	-0.070	0.290	-1.400
2020/01/31 12:37:30.3	108.160	-0.080	0.290	-1.390
2020/01/31 12:37:30.4	108.170	-0.090	0.280	-1.370
2020/01/31 12:37:30.5	108.170	-0.100	0.270	-1.350
2020/01/31 12:37:30.6	108.170	-0.100	0.250	-1.330
2020/01/31 12:37:30.7	108.180	-0.110	0.240	-1.300
2020/01/31 12:37:30.8	108.180	-0.110	0.220	-1.270
2020/01/31 12:37:30.9	108.190	-0.120	0.210	-1.240
2020/01/31 12:37:31.0	108.200	-0.120	0.190	-1.200
2020/01/31 12:37:31.1	108.210	-0.120	0.170	-1.160
2020/01/31 12:37:31.2	108.220	-0.130	0.150	-1.120
2020/01/31 12:37:31.3	108.230	-0.130	0.120	-1.070
2020/01/31 12:37:31.4	108.250	-0.130	0.100	-1.020
2020/01/31 12:37:31.5	108.260	-0.130	0.080	-0.970
2020/01/31 12:37:31.6	108.280	-0.130	0.050	-0.920
2020/01/31 12:37:31.7	108.290	-0.130	0.020	-0.870
2020/01/31 12:37:31.8	108.310	-0.120	-0.000	-0.810
2020/01/31 12:37:31.9	108.330	-0.120	-0.030	-0.750
2020/01/31 12:37:32.0	108.340	-0.110	-0.060	-0.700
2020/01/31 12:37:32.1	108.360	-0.110	-0.100	-0.640
2020/01/31 12:37:32.2	108.370	-0.100	-0.130	-0.570
2020/01/31 12:37:32.3	108.390	-0.090	-0.160	-0.510
2020/01/31 12:37:32.4	108.400	-0.080	-0.200	-0.440
2020/01/31 12:37:32.5	108.430	-0.070	-0.230	-0.370
2020/01/31 12:37:32.6	108.440	-0.060	-0.270	-0.300
2020/01/31 12:37:32.7	108.450	-0.050	-0.300	-0.230
2020/01/31 12:37:32.8	108.460	-0.040	-0.340	-0.150
2020/01/31 12:37:32.9	108.470	-0.020	-0.380	-0.070
2020/01/31 12:37:33.0	108.480	-0.010	-0.410	0.010
2020/01/31 12:37:33.1	108.480	0.010	-0.450	0.100
2020/01/31 12:37:33.2	108.490	0.020	-0.490	0.190
2020/01/31 12:37:33.3	108.490	0.040	-0.520	0.290
2020/01/31 12:37:33.4	108.490	0.060	-0.560	0.380
2020/01/31 12:37:33.5	108.480	0.080	-0.590	0.490
2020/01/31 12:37:33.6	108.480	0.090	-0.620	0.600
2020/01/31 12:37:33.7	108.470	0.110	-0.660	0.710
2020/01/31 12:37:33.8	108.460	0.130	-0.690	0.820
2020/01/31 12:37:33.9	108.460	0.150	-0.720	0.940
2020/01/31 12:37:34.0	108.450	0.170	-0.740	1.060
2020/01/31 12:37:34.1	108.430	0.180	-0.770	1.180
2020/01/31 12:37:34.2	108.420	0.200	-0.790	1.310
2020/01/31 12:37:34.3	108.410	0.220	-0.810	1.440
2020/01/31 12:37:34.4	108.390	0.230	-0.820	1.570
2020/01/31 12:37:34.5	108.370	0.250	-0.840	1.690
2020/01/31 12:37:34.6	108.350	0.260	-0.850	1.830
2020/01/31 12:37:34.7	108.340	0.270	-0.850	1.960
2020/01/31 12:37:34.8	108.320	0.280	-0.850	2.100
2020/01/31 12:37:34.9	108.300	0.290	-0.840	2.230
2020/01/31 12:37:35.0	108.280	0.300	-0.830	2.360
2020/01/31 12:37:35.1	108.270	0.300	-0.820	2.490
2020/01/31 12:37:35.2	108.250	0.310	-0.800	2.620
2020/01/31 12:37:35.3	108.230	0.310	-0.780	2.740
2020/01/31 12:37:35.4	108.210	0.310	-0.750	2.860
2020/01/31 12:37:35.5	108.190	0.300	-0.710	2.980
2020/01/31 12:37:35.6	108.170	0.300	-0.670	3.080
2020/01/31 12:37:35.7	108.160	0.290	-0.630	3.190
2020/01/31 12:37:35.8	108.140	0.280	-0.580	3.280
2020/01/31 12:37:35.9	108.130	0.270	-0.530	3.370
2020/01/31 12:37:36.0	108.110	0.260	-0.480	3.450
2020/01/31 12:37:36.1	108.100	0.240	-0.420	3.520
2020/01/31 12:37:36.2	108.090	0.220	-0.360	3.580
2020/01/31 12:37:36.3	108.080	0.200	-0.290	3.640
2020/01/31 12:37:36.4	108.070	0.180	-0.220	3.680
2020/01/31 12:37:36.5	108.040	0.160	-0.150	3.710
2020/01/31 12:37:36.6	108.040	0.130	-0.080	3.740
2020/01/31 12:37:36.7	108.030	0.110	-0.010	3.750
2020/01/31 12:37:36.8	108.030	0.080	0.050	3.760
2020/01/31 12:37:36.9	108.030	0.060	0.120	3.750
2020/01/31 12:37:37.0	108.030	0.030	0.190	3.740
2020/01/31 12:37:37.1	108.030	0.000	0.260	3.720
2020/01/31 12:37:37.2	108.030	-0.030	0.320	3.690
2020/01/31 12:37:37.3	108.030	-0.050	0.380	3.650
2020/01/31 12:37:37.4	108.040	-0.080	0.440	3.600
2020/01/31 12:37:37.5	108.050	-0.110	0.490	3.540
2020/01/31 12:37:37.6	108.060	-0.140	0.540	3.470
2020/01/31 12:37:37.7	108.070	-0.160	0.580	3.400
2020/01/31 12:37:37.8	108.080	-0.190	0.620	3.320
2020/01/31 12:37:37.9	108.090	-0.210	0.650	3.240
2020/01/31 12:37:38.0	108.100	-0.230	0.680	3.150
2020/01/31 12:37:38.1	108.110	-0.250	0.700	3.050
2020/01/31 12:37:38.2	108.120	-0.270	0.720	2.950
2020/01/31 12:37:38.3	108.140	-0.290	0.730	2.850
2020/01/31 12:37:38.4	108.150	-0.300	0.730	2.740
2020/01/31 12:37:38.5	108.160	-0.320	0.730	2.630
2020/01/31 12:37:38.6	108.180	-0.330	0.720	2.510
2020/01/31 12:37:38.7	108.190	-0.340	0.710	2.390
2020/01/31 12:37:38.8	108.210	-0.350	0.690	2.270
2020/01/31 12:37:38.9	108.230	-0.350	0.670	2.150
2020/01/31 12:37:39.0	108.250	-0.360	0.640	2.030
2020/01/31 12:37:39.1	108.270	-0.360	0.610	1.900
2020/01/31 12:37:39.2	108.290	-0.360	0.570	1.770
2020/01/31 12:37:39.3	108.310	-0.360	0.530	1.650
2020/01/31 12:37:39.4	108.330	-0.360	0.490	1.520
2020/01/31 12:37:39.5	108.320	-0.360	0.440	1.390
2020/01/31 12:37:39.6	108.340	-0.350	0.390	1.260
2020/01/31 12:37:39.7	108.360	-0.340	0.330	1.140
2020/01/31 12:37:39.8	108.380	-0.330	0.270	1.010
2020/01/31 12:37:39.9	108.390	-0.330	0.210	0.890
2020/01/31 12:37:40.0	108.410	-0.310	0.150	0.770
2020/01/31 12:37:40.1	108.420	-0.300	0.080	0.660
2020/01/31 12:37:40.2	108.430	-0.290	0.010	0.540
2020/01/31 12:37:40.3	108.440	-0.280	-0.060	0.430
2020/01/31 12:37:40.4	108.450	-0.260	-0.130	0.320
2020/01/31 12:37:40.5	108.450	-0.250	-0.200	0.220
2020/01/31 12:37:40.6	108.460	-0.230	-0.280	0.110
2020/01/31 12:37:40.7	108.460	-0.210	-0.350	0.010
2020/01/31 12:37:40.8	108.460	-0.200	-0.420	-0.080
2020/01/31 12:37:40.9	108.450	-0.180	-0.500	-0.180
2020/01/31 12:37:41.0	108.450	-0.160	-0.570	-0.270
2020/01/31 12:37:41.1	108.440	-0.140	-0.640	-0.360
2020/01/31 12:37:41.2	108.440	-0.130	-0.710	-0.440
2020/01/31 12:37:41.3	108.430	-0.110	-0.770	-0.530
2020/01/31 12:37:41.4	108.420	-0.090	-0.830	-0.610
2020/01/31 12:37:41.5	108.410	-0.080	-0.890	-0.690
2020/01/31 12:37:41.6	108.400	-0.060	-0.950	-0.770
2020/01/31 12:37:41.7	108.390	-0.040	-1.000	-0.850
2020/01/31 12:37:41.8	108.370	-0.030	-1.050	-0.920
2020/01/31 12:37:41.9	108.360	-0.020	-1.090	-1.000
2020/01/31 12:37:42.0	108.350	-0.000	-1.120	-1.060
2020/01/31 12:37:42.1	108.340	0.010	-1.150	-1.130
2020/01/31 12:37:42.2	108.330	0.020	-1.180	-1.200
2020/01/31 12:37:42.3	108.320	0.040	-1.190	-1.260
2020/01/31 12:37:42.4	108.310	0.050	-1.210	-1.320
2020/01/31 12:37:42.5	108.320	0.060	-1.210	-1.370
2020/01/31 12:37:42.6	108.310	0.070	-1.210	-1.420
2020/01/31 12:37:42.7	108.300	0.080	-1.200	-1.470
2020/01/31 12:37:42.8	108.300	0.090	-1.190	-1.510
2020/01/31 12:37:42.9	108.290	0.100	-1.170	-1.550
2020/01/31 12:37:43.0	108.290	0.100	-1.150	-1.590
2020/01/31 12:37:43.1	108.290	0.110	-1.120	-1.620
2020/01/31 12:37:43.2	108.290	0.120	-1.080	-1.640
2020/01/31 12:37:43.3	108.280	0.120	-1.040	-1.660
2020/01/31 12:37:43.4	108.290	0.130	-1.000	-1.670
2020/01/31 12:37:43.5	108.300	0.140	-0.950	-1.680
2020/01/31 12:37:43.6	108.300	0.140	-0.900	-1.680
2020/01/31 12:37:43.7	108.300	0.150	-0.840	-1.680
2020/01/31 12:37:43.8	108.310	0.150	-0.780	-1.670
2020/01/31 12:37:43.9	108.310	0.160	-0.720	-1.650
2020/01/31 12:37:44.0	108.310	0.160	-0.650	-1.630
2020/01/31 12:37:44.1	108.320	0.170	-0.590	-1.590
2020/01/31 12:37:44.2	108.320	0.170	-0.520	-1.560
2020/01/31 12:37:44.3	108.330	0.180	-0.450	-1.510
2020/01/31 12:37:44.4	108.340	0.180	-0.380	-1.460
2020/01/31 12:37:44.5	108.330	0.190	-0.310	-1.400
2020/01/31 12:37:44.6	108.330	0.190	-0.230	-1.340
2020/01/31 12:37:44.7	108.340	0.190	-0.160	-1.270
2020/01/31 12:37:44.8	108.350	0.200	-0.090	-1.200
2020/01/31 12:37:44.9	108.360	0.200	-0.020	-1.130
2020/01/31 12:37:45.0	108.360	0.200	0.050	-1.050
2020/01/31 12:37:45.1	108.370	0.200	0.120	-0.970
2020/01/31 12:37:45.2	108.380	0.200	0.190	-0.880
2020/01/31 12:37:45.3	108.400	0.200	0.250	-0.800
2020/01/31 12:37:45.4	108.410	0.200	0.310	-0.710
2020/01/31 12:37:45.5	108.420	0.200	0.380	-0.620
2020/01/31 12:37:45.6	108.440	0.190	0.430	-0.530
2020/01/31 12:37:45.7	108.450	0.190	0.490	-0.440
2020/01/31 12:37:45.8	108.460	0.180	0.540	-0.350
2020/01/31 12:37:45.9	108.480	0.180	0.590	-0.270
2020/01/31 12:37:46.0	108.500	0.170	0.630	-0.180
2020/01/31 12:37:46.1	108.510	0.160	0.680	-0.090
2020/01/31 12:37:46.2	108.530	0.150	0.710	-0.000
2020/01/31 12:37:46.3	108.550	0.140	0.750	0.080
2020/01/31 12:37:46.4	108.570	0.120	0.780	0.170
2020/01/31 12:37:46.5	108.590	0.110	0.810	0.250
2020/01/31 12:37:46.6	108.600	0.090	0.830	0.330
2020/01/31 12:37:46.7	108.620	0.080	0.840	0.410
2020/01/31 12:37:46.8	108.630	0.060	0.860	0.490
2020/01/31 12:37:46.9	108.650	0.040	0.860	0.570
2020/01/31 12:37:47.0	108.660	0.030	0.870	0.640
2020/01/31 12:37:47.1	108.680	0.010	0.870	0.710
2020/01/31 12:37:47.2	108.690	-0.010	0.860	0.780
2020/01/31 12:37:47.3	108.700	-0.030	0.850	0.850
2020/01/31 12:37:47.4	108.710	-0.050	0.830	0.920
2020/01/31 12:37:47.5	108.720	-0.060	0.810	0.990
2020/01/31 12:37:47.6	108.730	-0.080	0.790	1.050
2020/01/31 12:37:47.7	108.730	-0.100	0.760	1.120
2020/01/31 12:37:47.8	108.740	-0.110	0.720	1.190
2020/01/31 12:37:47.9	108.740	-0.130	0.680	1.250
2020/01/31 12:37:48.0	108.740	-0.140	0.640	1.320
2020/01/31 12:37:48.1	108.740	-0.150	0.590	1.390
2020/01/31 12:37:48.2	108.740	-0.160	0.540	1.450
2020/01/31 12:37:48.3	108.740	-0.170	0.490	1.520
2020/01/31 12:37:48.4	108.740	-0.170	0.430	1.590
2020/01/31 12:37:48.5	108.720	-0.180	0.370	1.650
2020/01/31 12:37:48.6	108.710	-0.180	0.300	1.720
2020/01/31 12:37:48.7	108.710	-0.180	0.230	1.780
2020/01/31 12:37:48.8	108.710	-0.170	0.160	1.850
2020/01/31 12:37:48.9	108.700	-0.170	0.090	1.920
2020/01/31 12:37:49.0	108.700	-0.160	0.020	1.980
2020/01/31 12:37:49.1	108.700	-0.150	-0.060	2.050
2020/01/31 12:37:49.2	108.700	-0.130	-0.140	2.110
2020/01/31 12:37:49.3	108.700	-0.120	-0.210	2.180
2020/01/31 12:37:49.4	108.700	-0.100	-0.290	2.240
2020/01/31 12:37:49.5	108.720	-0.080	-0.360	2.310
2020/01/31 12:37:49.6	108.720	-0.060	-0.440	2.370
2020/01/31 12:37:49.7	108.720	-0.040	-0.510	2.430
2020/01/31 12:37:49.8	108.720	-0.010	-0.580	2.490
2020/01/31 12:37:49.9	108.720	0.010	-0.650	2.550
2020/01/31 12:37:50.0	108.730	0.040	-0.720	2.610
2020/01/31 12:37:50.1	108.730	0.070	-0.780	2.670
2020/01/31 12:37:50.2	108.730	0.100	-0.840	2.720
2020/01/31 12:37:50.3	108.740	0.120	-0.900	2.780
2020/01/31 12:37:50.4	108.740	0.150	-0.950	2.830
2020/01/31 12:37:50.5	108.750	0.180	-1.000	2.870
2020/01/31 12:37:50.6	108.750	0.210	-1.040	2.920
2020/01/31 12:37:50.7	108.760	0.230	-1.070	2.960
2020/01/31 12:37:50.8	108.760	0.260	-1.100	3.000
2020/01/31 12:37:50.9	108.770	0.280	-1.130	3.030
2020/01/31 12:37:51.0	108.770	0.310	-1.140	3.060
2020/01/31 12:37:51.1	108.780	0.330	-1.160	3.090
2020/01/31 12:37:51.2	108.780	0.350	-1.160	3.110
2020/01/31 12:37:51.3	108.790	0.360	-1.160	3.130
2020/01/31 12:37:51.4	108.800	0.380	-1.160	3.140
2020/01/31 12:37:51.5	108.800	0.390	-1.140	3.140
2020/01/31 12:37:51.6	108.800	0.400	-1.120	3.150
2020/01/31 12:37:51.7	108.810	0.400	-1.100	3.140
2020/01/31 12:37:51.8	108.810	0.400	-1.070	3.130
2020/01/31 12:37:51.9	108.820	0.400	-1.040	3.120
2020/01/31 12:37:52.0	108.820	0.400	-1.000	3.100
2020/01/31 12:37:52.1	108.830	0.390	-0.960	3.070
2020/01/31 12:37:52.2	108.830	0.380	-0.910	3.040
2020/01/31 12:37:52.3	108.840	0.370	-0.860	3.000
2020/01/31 12:37:52.4	108.840	0.360	-0.800	2.960
2020/01/31 12:37:52.5	108.840	0.340	-0.740	2.910
2020/01/31 12:37:52.6	108.840	0.320	-0.680	2.860
2020/01/31 12:37:52.7	108.850	0.300	-0.620	2.800
2020/01/31 12:37:52.8	108.850	0.270	-0.550	2.740
2020/01/31 12:37:52.9	108.850	0.250	-0.490	2.670
2020/01/31 12:37:53.0	108.850	0.220	-0.420	2.600
2020/01/31 12:37:53.1	108.850	0.190	-0.360	2.530
2020/01/31 12:37:53.2	108.850	0.160	-0.290	2.450
2020/01/31 12:37:53.3	108.850	0.130	-0.230	2.370
2020/01/31 12:37:53.4	108.850	0.100	-0.170	2.290
2020/01/31 12:37:53.5	108.840	0.070	-0.110	2.200
2020/01/31 12:37:53.6	108.840	0.040	-0.050	2.110
2020/01/31 12:37:53.7	108.830	0.010	0.000	2.030
2020/01/31 12:37:53.8	108.820	-0.020	0.050	1.940
2020/01/31 12:37:53.9	108.810	-0.050	0.100	1.850
2020/01/31 12:37:54.0	108.800	-0.070	0.150	1.760
2020/01/31 12:37:54.1	108.780	-0.100	0.190	1.670
2020/01/31 12:37:54.2	108.770	-0.120	0.220	1.580
2020/01/31 12:37:54.3	108.750	-0.150	0.250	1.490
2020/01/31 12:37:54.4	108.730	-0.170	0.280	1.400
2020/01/31 12:37:54.5	108.710	-0.190	0.310	1.310
2020/01/31 12:37:54.6	108.690	-0.210	0.330	1.210
2020/01/31 12:37:54.7	108.670	-0.220	0.340	1.130
2020/01/31 12:37:54.8	108.650	-0.230	0.360	1.040
2020/01/31 12:37:54.9	108.630	-0.250	0.360	0.950
2020/01/31 12:37:55.0	108.610	-0.260	0.370	0.860
2020/01/31 12:37:55.1	108.590	-0.270	0.370	0.780
2020/01/31 12:37:55.2	108.570	-0.270	0.370	0.690
2020/01/31 12:37:55.3	108.550	-0.280	0.360	0.610
2020/01/31 12:37:55.4	108.530	-0.280	0.360	0.530
2020/01/31 12:37:55.5	108.510	-0.280	0.350	0.440
2020/01/31 12:37:55.6	108.490	-0.290	0.340	0.360
2020/01/31 12:37:55.7	108.470	-0.290	0.320	0.280
2020/01/31 12:37:55.8	108.460	-0.280	0.310	0.210
2020/01/31 12:37:55.9	108.440	-0.280	0.290	0.130
2020/01/31 12:37:56.0	108.430	-0.280	0.270	0.060
2020/01/31 12:37:56.1	108.410	-0.280	0.250	-0.010
2020/01/31 12:37:56.2	108.400	-0.270	0.230	-0.080
2020/01/31 12:37:56.3	108.380	-0.270	0.210	-0.140
2020/01/31 12:37:56.4	108.370	-0.270	0.190	-0.210
2020/01/31 12:37:56.5	108.370	-0.260	0.170	-0.270
2020/01/31 12:37:56.6	108.360	-0.260	0.140	-0.330
2020/01/31 12:37:56.7	108.350	-0.260	0.120	-0.390
2020/01/31 12:37:56.8	108.340	-0.250	0.100	-0.450
2020/01/31 12:37:56.9	108.330	-0.250	0.080	-0.510
2020/01/31 12:37:57.0	108.330	-0.240	0.060	-0.570
2020/01/31 12:37:57.1	108.320	-0.240	0.030	-0.620
2020/01/31 12:37:57.2	108.320	-0.240	0.010	-0.670
2020/01/31 12:37:57.3	108.320	-0.230	-0.010	-0.720
2020/01/31 12:37:57.4	108.310	-0.230	-0.030	-0.780
2020/01/31 12:37:57.5	108.300	-0.230	-0.040	-0.820
2020/01/31 12:37:57.6	108.300	-0.230	-0.060	-0.870
2020/01/31 12:37:57.7	108.300	-0.220	-0.080	-0.920
2020/01/31 12:37:57.8	108.300	-0.220	-0.100	-0.960
2020/01/31 12:37:57.9	108.300	-0.220	-0.110	-1.000
2020/01/31 12:37:58.0	108.300	-0.210	-0.130	-1.040
2020/01/31 12:37:58.1	108.300	-0.210	-0.150	-1.080
2020/01/31 12:37:58.2	108.300	-0.210	-0.160	-1.110
2020/01/31 12:37:58.3	108.300	-0.210	-0.180	-1.150
2020/01/31 12:37:58.4	108.300	-0.200	-0.190	-1.180
2020/01/31 12:37:58.5	108.290	-0.200	-0.200	-1.210
2020/01/31 12:37:58.6	108.300	-0.200	-0.220	-1.230
2020/01/31 12:37:58.7	108.300	-0.190	-0.230	-1.250
2020/01/31 12:37:58.8	108.300	-0.190	-0.240	-1.270
2020/01/31 12:37:58.9	108.300	-0.190	-0.260	-1.280
2020/01/31 12:37:59.0	108.310	-0.180	-0.270	-1.290
2020/01/31 12:37:59.1	108.310	-0.180	-0.280	-1.300
2020/01/31 12:37:59.2	108.320	-0.170	-0.290	-1.300
2020/01/31 12:37:59.3	108.330	-0.170	-0.300	-1.300
2020/01/31 12:37:59.4	108.330	-0.160	-0.310	-1.290
2020/01/31 12:37:59.5	108.350	-0.160	-0.310	-1.290
2020/01/31 12:37:59.6	108.360	-0.150	-0.320	-1.270
2020/01/31 12:37:59.7	108.370	-0.140	-0.330	-1.250
2020/01/31 12:37:59.8	108.380	-0.130	-0.330	-1.230
2020/01/31 12:37:59.9	108.400	-0.130	-0.340	-1.210
2020/01/31 12:38:00.0	108.410	-0.120	-0.340	-1.170
2020/01/31 12:38:00.1	108.430	-0.110	-0.340	-1.140
2020/01/31 12:38:00.2	108.450	-0.100	-0.350	-1.100
2020/01/31 12:38:00.3	108.470	-0.090	-0.350	-1.050
2020/01/31 12:38:00.4	108.490	-0.080	-0.350	-1.000
2020/01/31 12:38:00.5	108.520	-0.070	-0.350	-0.940
2020/01/31 12:38:00.6	108.540	-0.060	-0.350	-0.880
2020/01/31 12:38:00.7	108.550	-0.050	-0.350	-0.820
2020/01/31 12:38:00.8	108.570	-0.030	-0.350	-0.750
2020/01/31 12:38:00.9	108.590	-0.020	-0.350	-0.670
2020/01/31 12:38:01.0	108.610	-0.010	-0.350	-0.590
2020/01/31 12:38:01.1	108.620	0.000	-0.350	-0.510
2020/01/31 12:38:01.2	108.630	0.020	-0.340	-0.420
2020/01/31 12:38:01.3	108.640	0.030	-0.340	-0.320
2020/01/31 12:38:01.4	108.650	0.040	-0.340	-0.220
2020/01/31 12:38:01.5	108.660	0.060	-0.340	-0.120
2020/01/31 12:38:01.6	108.660	0.070	-0.340	-0.010
2020/01/31 12:38:01.7	108.660	0.080	-0.330	0.100
2020/01/31 12:38:01.8	108.660	0.100	-0.330	0.220
2020/01/31 12:38:01.9	108.660	0.110	-0.330	0.330
2020/01/31 12:38:02.0	108.660	0.120	-0.320	0.450
2020/01/31 12:38:02.1	108.650	0.130	-0.320	0.570
2020/01/31 12:38:02.2	108.640	0.140	-0.310	0.690
2020/01/31 12:38:02.3	108.630	0.150	-0.300	0.810
2020/01/31 12:38:02.4	108.620	0.160	-0.290	0.930
2020/01/31 12:38:02.5	108.600	0.160	-0.280	1.050
2020/01/31 12:38:02.6	108.590	0.170	-0.270	1.170
2020/01/31 12:38:02.7	108.570	0.170	-0.260	1.290
2020/01/31 12:38:02.8	108.560	0.180	-0.240	1.410
2020/01/31 12:38:02.9	108.540	0.180	-0.230	1.520
2020/01/31 12:38:03.0	108.520	0.180	-0.210	1.630
2020/01/31 12:38:03.1	108.510	0.190	-0.190	1.740
2020/01/31 12:38:03.2	108.490	0.190	-0.170	1.850
2020/01/31 12:38:03.3	108.470	0.190	-0.150	1.950
2020/01/31 12:38:03.4	108.450	0.190	-0.130	2.050
2020/01/31 12:38:03.5	108.440	0.190	-0.110	2.150
2020/01/31 12:38:03.6	108.420	0.190	-0.080	2.240
2020/01/31 12:38:03.7	108.400	0.190	-0.060	2.320
2020/01/31 12:38:03.8	108.390	0.190	-0.040	2.400
2020/01/31 12:38:03.9	108.370	0.190	-0.020	2.480
2020/01/31 12:38:04.0	108.350	0.190	-0.010	2.550
2020/01/31 12:38:04.1	108.340	0.190	0.010	2.610
2020/01/31 12:38:04.2	108.330	0.190	0.030	2.660
2020/01/31 12:38:04.3	108.320	0.190	0.040	2.720
2020/01/31 12:38:04.4	108.300	0.200	0.050	2.760
2020/01/31 12:38:04.5	108.290	0.200	0.060	2.800
2020/01/31 12:38:04.6	108.280	0.210	0.060	2.830
2020/01/31 12:38:04.7	108.270	0.220	0.060	2.860
2020/01/31 12:38:04.8	108.260	0.230	0.060	2.880
2020/01/31 12:38:04.9	108.250	0.240	0.050	2.890
2020/01/31 12:38:05.0	108.240	0.250	0.050	2.900
2020/01/31 12:38:05.1	108.240	0.270	0.040	2.910
2020/01/31 12:38:05.2	108.230	0.280	0.020	2.900
2020/01/31 12:38:05.3	108.220	0.300	0.010	2.900
2020/01/31 12:38:05.4	108.220	0.320	-0.010	2.890
2020/01/31 12:38:05.5	108.200	0.330	-0.030	2.870
2020/01/31 12:38:05.6	108.200	0.350	-0.050	2.840
2020/01/31 12:38:05.7	108.190	0.370	-0.070	2.820
2020/01/31 12:38:05.8	108.190	0.390	-0.100	2.790
2020/01/31 12:38:05.9	108.190	0.400	-0.120	2.750
2020/01/31 12:38:06.0	108.190	0.420	-0.140	2.710
2020/01/31 12:38:06.1	108.190	0.430	-0.170	2.670
2020/01/31 12:38:06.2	108.190	0.450	-0.190	2.620
2020/01/31 12:38:06.3	108.190	0.460	-0.220	2.560
2020/01/31 12:38:06.4	108.190	0.470	-0.240	2.510
2020/01/31 12:38:06.5	108.190	0.480	-0.260	2.450
2020/01/31 12:38:06.6	108.200	0.490	-0.280	2.390
2020/01/31 12:38:06.7	108.200	0.490	-0.300	2.320
2020/01/31 12:38:06.8	108.210	0.490	-0.320	2.260
2020/01/31 12:38:06.9	108.220	0.490	-0.330	2.190
2020/01/31 12:38:07.0	108.230	0.490	-0.350	2.130
2020/01/31 12:38:07.1	108.240	0.480	-0.360	2.060
2020/01/31 12:38:07.2	108.250	0.470	-0.370	1.990
2020/01/31 12:38:07.3	108.260	0.460	-0.380	1.930
2020/01/31 12:38:07.4	108.270	0.440	-0.390	1.860
2020/01/31 12:38:07.5	108.290	0.420	-0.390	1.800
2020/01/31 12:38:07.6	108.300	0.400	-0.400	1.730
2020/01/31 12:38:07.7	108.310	0.380	-0.400	1.670
2020/01/31 12:38:07.8	108.320	0.350	-0.390	1.610
2020/01/31 12:38:07.9	108.330	0.320	-0.390	1.550
2020/01/31 12:38:08.0	108.340	0.290	-0.380	1.490
2020/01/31 12:38:08.1	108.340	0.260	-0.370	1.440
2020/01/31 12:38:08.2	108.350	0.220	-0.360	1.380
2020/01/31 12:38:08.3	108.360	0.180	-0.350	1.320
2020/01/31 12:38:08.4	108.370	0.140	-0.330	1.270
2020/01/31 12:38:08.5	108.370	0.100	-0.310	1.200
2020/01/31 12:38:08.6	108.380	0.050	-0.290	1.150
2020/01/31 12:38:08.7	108.390	0.010	-0.270	1.090
2020/01/31 12:38:08.8	108.400	-0.040	-0.250	1.040
2020/01/31 12:38:08.9	108.410	-0.080	-0.220	0.980
2020/01/31 12:38:09.0	108.420	-0.130	-0.200	0.930
2020/01/31 12:38:09.1	108.420	-0.180	-0.170	0.870
2020/01/31 12:38:09.2	108.430	-0.230	-0.140	0.810
2020/01/31 12:38:09.3	108.450	-0.270	-0.110	0.760
2020/01/31 12:38:09.4	108.460	-0.320	-0.090	0.700
2020/01/31 12:38:09.5	108.470	-0.370	-0.060	0.640
2020/01/31 12:38:09.6	108.490	-0.410	-0.030	0.580
2020/01/31 12:38:09.7	108.500	-0.460	-0.010	0.520
2020/01/31 12:38:09.8	108.520	-0.500	0.020	0.460
2020/01/31 12:38:09.9	108.540	-0.540	0.040	0.410
2020/01/31 12:38:10.0	108.550	-0.570	0.070	0.350
2020/01/31 12:38:10.1	108.570	-0.610	0.090	0.290
2020/01/31 12:38:10.2	108.590	-0.640	0.100	0.230
2020/01/31 12:38:10.3	108.610	-0.670	0.120	0.180
2020/01/31 12:38:10.4	108.630	-0.700	0.140	0.120
2020/01/31 12:38:10.5	108.660	-0.720	0.150	0.060
2020/01/31 12:38:10.6	108.680	-0.740	0.160	0.010
2020/01/31 12:38:10.7	108.700	-0.760	0.160	-0.040
2020/01/31 12:38:10.8	108.720	-0.780	0.170	-0.090
2020/01/31 12:38:10.9	108.740	-0.790	0.170	-0.130
2020/01/31 12:38:11.0	108.760	-0.790	0.170	-0.180
2020/01/31 12:38:11.1	108.780	-0.800	0.160	-0.220
2020/01/31 12:38:11.2	108.800	-0.800	0.160	-0.250
2020/01/31 12:38:11.3	108.810	-0.800	0.150	-0.290
2020/01/31 12:38:11.4	108.830	-0.790	0.140	-0.320
2020/01/31 12:38:11.5	108.850	-0.780	0.120	-0.350
2020/01/31 12:38:11.6	108.860	-0.770	0.100	-0.370
2020/01/31 12:38:11.7	108.870	-0.750	0.090	-0.390
2020/01/31 12:38:11.8	108.880	-0.730	0.060	-0.410
2020/01/31 12:38:11.9	108.890	-0.710	0.040	-0.430
2020/01/31 12:38:12.0	108.900	-0.690	0.010	-0.440
2020/01/31 12:38:12.1	108.910	-0.660	-0.010	-0.450
2020/01/31 12:38:12.2	108.920	-0.630	-0.040	-0.450
2020/01/31 12:38:12.3	108.920	-0.600	-0.070	-0.450
2020/01/31 12:38:12.4	108.920	-0.570	-0.110	-0.450
2020/01/31 12:38:12.5	108.920	-0.530	-0.140	-0.440
2020/01/31 12:38:12.6	108.920	-0.490	-0.170	-0.430
2020/01/31 12:38:12.7	108.920	-0.460	-0.210	-0.420
2020/01/31 12:38:12.8	108.920	-0.420	-0.240	-0.400
2020/01/31 12:38:12.9	108.920	-0.380	-0.280	-0.380
2020/01/31 12:38:13.0	108.910	-0.330	-0.320	-0.350
2020/01/31 12:38:13.1	108.910	-0.290	-0.350	-0.320
2020/01/31 12:38:13.2	108.910	-0.250	-0.390	-0.290
2020/01/31 12:38:13.3	108.900	-0.210	-0.420	-0.250
2020/01/31 12:38:13.4	108.890	-0.160	-0.460	-0.220
2020/01/31 12:38:13.5	108.890	-0.120	-0.490	-0.170
2020/01/31 12:38:13.6	108.880	-0.080	-0.520	-0.120
2020/01/31 12:38:13.7	108.870	-0.040	-0.540	-0.080
2020/01/31 12:38:13.8	108.860	0.000	-0.570	-0.030
2020/01/31 12:38:13.9	108.850	0.040	-0.590	0.020
2020/01/31 12:38:14.0	108.840	0.080	-0.610	0.080
2020/01/31 12:38:14.1	108.830	0.110	-0.630	0.130
2020/01/31 12:38:14.2	108.820	0.150	-0.640	0.180
2020/01/31 12:38:14.3	108.810	0.180	-0.650	0.240
2020/01/31 12:38:14.4	108.800	0.210	-0.650	0.290
2020/01/31 12:38:14.5	108.800	0.230	-0.660	0.350
2020/01/31 12:38:14.6	108.780	0.260	-0.650	0.400
2020/01/31 12:38:14.7	108.770	0.280	-0.640	0.460
2020/01/31 12:38:14.8	108.760	0.300	-0.630	0.510
2020/01/31 12:38:14.9	108.750	0.320	-0.610	0.560
2020/01/31 12:38:15.0	108.740	0.330	-0.580	0.610
2020/01/31 12:38:15.1	108.730	0.340	-0.550	0.660
2020/01/31 12:38:15.2	108.730	0.350	-0.520	0.710
2020/01/31 12:38:15.3	108.720	0.350	-0.480	0.750
2020/01/31 12:38:15.4	108.710	0.350	-0.440	0.790
2020/01/31 12:38:15.5	108.710	0.350	-0.390	0.830
2020/01/31 12:38:15.6	108.700	0.350	-0.340	0.870
2020/01/31 12:38:15.7	108.700	0.340	-0.290	0.900
2020/01/31 12:38:15.8	108.700	0.330	-0.230	0.930
2020/01/31 12:38:15.9	108.700	0.320	-0.180	0.960
2020/01/31 12:38:16.0	108.700	0.310	-0.120	0.990
2020/01/31 12:38:16.1	108.700	0.300	-0.070	1.010
2020/01/31 12:38:16.2	108.710	0.280	-0.010	1.030
2020/01/31 12:38:16.3	108.710	0.270	0.040	1.040
2020/01/31 12:38:16.4	108.720	0.250	0.090	1.060
2020/01/31 12:38:16.5	108.720	0.240	0.140	1.070
2020/01/31 12:38:16.6	108.730	0.220	0.190	1.080
2020/01/31 12:38:16.7	108.740	0.200	0.230	1.080
2020/01/31 12:38:16.8	108.750	0.190	0.270	1.090
2020/01/31 12:38:16.9	108.770	0.170	0.310	1.090
2020/01/31 12:38:17.0	108.780	0.160	0.340	1.090
2020/01/31 12:38:17.1	108.800	0.140	0.360	1.090
2020/01/31 12:38:17.2	108.810	0.130	0.380	1.090
2020/01/31 12:38:17.3	108.830	0.120	0.400	1.090
2020/01/31 12:38:17.4	108.850	0.110	0.410	1.090
2020/01/31 12:38:17.5	108.860	0.100	0.410	1.090
2020/01/31 12:38:17.6	108.880	0.100	0.410	1.080
2020/01/31 12:38:17.7	108.900	0.100	0.400	1.080
2020/01/31 12:38:17.8	108.930	0.090	0.390	1.080
2020/01/31 12:38:17.9	108.950	0.100	0.370	1.080
2020/01/31 12:38:18.0	108.980	0.100	0.350	1.080
2020/01/31 12:38:18.1	109.000	0.100	0.320	1.080
2020/01/31 12:38:18.2	109.030	0.110	0.290	1.080
2020/01/31 12:38:18.3	109.060	0.120	0.250	1.080
2020/01/31 12:38:18.4	109.080	0.130	0.220	1.080
2020/01/31 12:38:18.5	109.130	0.140	0.180	1.090
2020/01/31 12:38:18.6	109.150	0.150	0.130	1.090
2020/01/31 12:38:18.7	109.180	0.160	0.090	1.100
2020/01/31 12:38:18.8	109.200	0.180	0.050	1.110
2020/01/31 12:38:18.9	109.220	0.190	0.000	1.120
2020/01/31 12:38:19.0	109.250	0.210	-0.040	1.130
2020/01/31 12:38:19.1	109.270	0.220	-0.090	1.140
2020/01/31 12:38:19.2	109.280	0.230	-0.130	1.160
2020/01/31 12:38:19.3	109.300	0.250	-0.170	1.170
2020/01/31 12:38:19.4	109.320	0.260	-0.210	1.190
2020/01/31 12:38:19.5	109.340	0.270	-0.250	1.210
2020/01/31 12:38:19.6	109.350	0.280	-0.290	1.230
2020/01/31 12:38:19.7	109.360	0.290	-0.320	1.260
2020/01/31 12:38:19.8	109.370	0.300	-0.350	1.280
2020/01/31 12:38:19.9	109.370	0.310	-0.380	1.300
2020/01/31 12:38:20.0	109.370	0.310	-0.400	1.330
2020/01/31 12:38:20.1	109.370	0.310	-0.420	1.360
2020/01/31 12:38:20.2	109.370	0.310	-0.440	1.380
2020/01/31 12:38:20.3	109.370	0.310	-0.450	1.410
2020/01/31 12:38:20.4	109.360	0.310	-0.460	1.440
2020/01/31 12:38:20.5	109.360	0.300	-0.460	1.470
2020/01/31 12:38:20.6	109.350	0.290	-0.460	1.500
2020/01/31 12:38:20.7	109.340	0.280	-0.460	1.530
2020/01/31 12:38:20.8	109.330	0.270	-0.460	1.560
2020/01/31 12:38:20.9	109.320	0.260	-0.450	1.580
2020/01/31 12:38:21.0	109.300	0.240	-0.450	1.610
2020/01/31 12:38:21.1	109.290	0.220	-0.440	1.640
2020/01/31 12:38:21.2	109.270	0.210	-0.430	1.660
2020/01/31 12:38:21.3	109.260	0.190	-0.420	1.680
2020/01/31 12:38:21.4	109.240	0.170	-0.410	1.710
2020/01/31 12:38:21.5	109.200	0.150	-0.400	1.720
2020/01/31 12:38:21.6	109.180	0.130	-0.380	1.740
2020/01/31 12:38:21.7	109.170	0.100	-0.370	1.750
2020/01/31 12:38:21.8	109.150	0.080	-0.360	1.770
2020/01/31 12:38:21.9	109.130	0.060	-0.350	1.780
2020/01/31 12:38:22.0	109.110	0.040	-0.330	1.790
2020/01/31 12:38:22.1	109.090	0.020	-0.320	1.800
2020/01/31 12:38:22.2	109.070	-0.000	-0.310	1.810
2020/01/31 12:38:22.3	109.060	-0.020	-0.300	1.810
2020/01/31 12:38:22.4	109.040	-0.040	-0.290	1.820
2020/01/31 12:38:22.5	109.010	-0.060	-0.280	1.820
2020/01/31 12:38:22.6	108.990	-0.080	-0.270	1.820
2020/01/31 12:38:22.7	108.970	-0.090	-0.260	1.820
2020/01/31 12:38:22.8	108.960	-0.110	-0.250	1.820
2020/01/31 12:38:22.9	108.940	-0.120	-0.240	1.810
2020/01/31 12:38:23.0	108.930	-0.130	-0.240	1.810
2020/01/31 12:38:23.1	108.910	-0.140	-0.230	1.800
2020/01/31 12:38:23.2	108.900	-0.140	-0.220	1.800
2020/01/31 12:38:23.3	108.890	-0.150	-0.220	1.790
2020/01/31 12:38:23.4	108.880	-0.150	-0.210	1.780
2020/01/31 12:38:23.5	108.870	-0.150	-0.210	1.770
2020/01/31 12:38:23.6	108.860	-0.150	-0.210	1.750
2020/01/31 12:38:23.7	108.850	-0.150	-0.200	1.740
2020/01/31 12:38:23.8	108.840	-0.150	-0.200	1.720
2020/01/31 12:38:23.9	108.840	-0.140	-0.190	1.710
2020/01/31 12:38:24.0	108.840	-0.140	-0.190	1.690
2020/01/31 12:38:24.1	108.830	-0.130	-0.190	1.670
2020/01/31 12:38:24.2	108.830	-0.120	-0.180	1.650
2020/01/31 12:38:24.3	108.830	-0.110	-0.180	1.620
2020/01/31 12:38:24.4	108.830	-0.110	-0.180	1.600
2020/01/31 12:38:24.5	108.850	-0.100	-0.180	1.570
2020/01/31 12:38:24.6	108.850	-0.090	-0.170	1.540
2020/01/31 12:38:24.7	108.860	-0.080	-0.170	1.510
2020/01/31 12:38:24.8	108.860	-0.070	-0.170	1.470
2020/01/31 12:38:24.9	108.870	-0.060	-0.170	1.430
2020/01/31 12:38:25.0	108.880	-0.050	-0.170	1.390
2020/01/31 12:38:25.1	108.890	-0.040	-0.170	1.350
2020/01/31 12:38:25.2	108.900	-0.030	-0.170	1.310
2020/01/31 12:38:25.3	108.910	-0.030	-0.170	1.260
2020/01/31 12:38:25.4	108.920	-0.020	-0.170	1.210
2020/01/31 12:38:25.5	108.940	-0.020	-0.180	1.160
2020/01/31 12:38:25.6	108.950	-0.020	-0.180	1.110
2020/01/31 12:38:25.7	108.960	-0.010	-0.180	1.050
2020/01/31 12:38:25.8	108.980	-0.010	-0.190	0.990
2020/01/31 12:38:25.9	108.990	-0.020	-0.190	0.940
2020/01/31 12:38:26.0	109.000	-0.020	-0.190	0.870
2020/01/31 12:38:26.1	109.010	-0.020	-0.190	0.810
2020/01/31 12:38:26.2	109.020	-0.030	-0.190	0.750
2020/01/31 12:38:26.3	109.030	-0.040	-0.190	0.690
2020/01/31 12:38:26.4	109.040	-0.050	-0.180	0.630
2020/01/31 12:38:26.5	109.050	-0.060	-0.180	0.560
2020/01/31 12:38:26.6	109.060	-0.070	-0.170	0.500
2020/01/31 12:38:26.7	109.070	-0.080	-0.170	0.440
2020/01/31 12:38:26.8	109.080	-0.090	-0.160	0.370
2020/01/31 12:38:26.9	109.080	-0.110	-0.150	0.320
2020/01/31 12:38:27.0	109.090	-0.130	-0.150	0.260
2020/01/31 12:38:27.1	109.100	-0.140	-0.140	0.200
2020/01/31 12:38:27.2	109.100	-0.160	-0.130	0.150
2020/01/31 12:38:27.3	109.110	-0.180	-0.110	0.100
2020/01/31 12:38:27.4	109.120	-0.190	-0.100	0.050
2020/01/31 12:38:27.5	109.130	-0.210	-0.080	0.010
2020/01/31 12:38:27.6	109.130	-0.230	-0.070	-0.040
2020/01/31 12:38:27.7	109.140	-0.250	-0.050	-0.080
2020/01/31 12:38:27.8	109.140	-0.260	-0.030	-0.110
2020/01/31 12:38:27.9	109.150	-0.280	-0.020	-0.140
2020/01/31 12:38:28.0	109.160	-0.290	0.000	-0.170
2020/01/31 12:38:28.1	109.160	-0.300	0.020	-0.200
2020/01/31 12:38:28.2	109.170	-0.320	0.040	-0.220
2020/01/31 12:38:28.3	109.170	-0.330	0.050	-0.240
2020/01/31 12:38:28.4	109.180	-0.330	0.070	-0.250
2020/01/31 12:38:28.5	109.170	-0.340	0.080	-0.260
2020/01/31 12:38:28.6	109.180	-0.350	0.090	-0.270
2020/01/31 12:38:28.7	109.180	-0.350	0.100	-0.270
2020/01/31 12:38:28.8	109.190	-0.350	0.110	-0.280
2020/01/31 12:38:28.9	109.200	-0.350	0.110	-0.270
2020/01/31 12:38:29.0	109.210	-0.340	0.110	-0.270
2020/01/31 12:38:29.1	109.210	-0.340	0.110	-0.260
2020/01/31 12:38:29.2	109.220	-0.330	0.100	-0.250
2020/01/31 12:38:29.3	109.230	-0.320	0.100	-0.230
2020/01/31 12:38:29.4	109.240	-0.310	0.090	-0.220
2020/01/31 12:38:29.5	109.250	-0.300	0.070	-0.200
2020/01/31 12:38:29.6	109.260	-0.280	0.060	-0.180
2020/01/31 12:38:29.7	109.270	-0.270	0.040	-0.160
2020/01/31 12:38:29.8	109.270	-0.250	0.020	-0.130
2020/01/31 12:38:29.9	109.280	-0.230	0.000	-0.110
2020/01/31 12:38:30.0	109.290	-0.210	-0.020	-0.080
2020/01/31 12:38:30.1	109.290	-0.190	-0.040	-0.050
2020/01/31 12:38:30.2	109.290	-0.170	-0.070	-0.020
2020/01/31 12:38:30.3	109.300	-0.140	-0.090	0.010
2020/01/31 12:38:30.4	109.300	-0.120	-0.120	0.040
2020/01/31 12:38:30.5	109.300	-0.100	-0.150	0.070
2020/01/31 12:38:30.6	109.300	-0.070	-0.170	0.110
2020/01/31 12:38:30.7	109.300	-0.050	-0.200	0.140
2020/01/31 12:38:30.8	109.290	-0.020	-0.220	0.180
2020/01/31 12:38:30.9	109.290	0.000	-0.250	0.210
2020/01/31 12:38:31.0	109.290	0.020	-0.270	0.240
2020/01/31 12:38:31.1	109.280	0.050	-0.290	0.280
2020/01/31 12:38:31.2	109.280	0.070	-0.310	0.310
2020/01/31 12:38:31.3	109.270	0.090	-0.330	0.340
2020/01/31 12:38:31.4	109.260	0.110	-0.340	0.380
2020/01/31 12:38:31.5	109.260	0.130	-0.350	0.410
2020/01/31 12:38:31.6	109.250	0.150	-0.370	0.440
2020/01/31 12:38:31.7	109.240	0.170	-0.380	0.480
2020/01/31 12:38:31.8	109.230	0.190	-0.390	0.510
2020/01/31 12:38:31.9	109.210	0.200	-0.400	0.550
2020/01/31 12:38:32.0	109.200	0.210	-0.400	0.580
2020/01/31 12:38:32.1	109.190	0.230	-0.410	0.620
2020/01/31 12:38:32.2	109.170	0.240	-0.410	0.650
2020/01/31 12:38:32.3	109.160	0.240	-0.410	0.690
2020/01/31 12:38:32.4	109.150	0.250	-0.410	0.730
2020/01/31 12:38:32.5	109.140	0.250	-0.410	0.770
2020/01/31 12:38:32.6	109.130	0.260	-0.410	0.810
2020/01/31 12:38:32.7	109.120	0.260	-0.400	0.840
2020/01/31 12:38:32.8	109.110	0.260	-0.400	0.880
2020/01/31 12:38:32.9	109.100	0.250	-0.390	0.920
2020/01/31 12:38:33.0	109.090	0.250	-0.380	0.960
2020/01/31 12:38:33.1	109.080	0.240	-0.370	1.000
2020/01/31 12:38:33.2	109.080	0.240	-0.360	1.030
2020/01/31 12:38:33.3	109.080	0.230	-0.350	1.070
2020/01/31 12:38:33.4	109.080	0.220	-0.340	1.100
2020/01/31 12:38:33.5	109.070	0.210	-0.320	1.140
2020/01/31 12:38:33.6	109.070	0.200	-0.310	1.170
2020/01/31 12:38:33.7	109.070	0.180	-0.290	1.200
2020/01/31 12:38:33.8	109.080	0.170	-0.270	1.230
2020/01/31 12:38:33.9	109.090	0.160	-0.260	1.250
2020/01/31 12:38:34.0	109.100	0.140	-0.240	1.280
2020/01/31 12:38:34.1	109.110	0.130	-0.220	1.300
2020/01/31 12:38:34.2	109.130	0.120	-0.200	1.320
2020/01/31 12:38:34.3	109.150	0.100	-0.180	1.330
2020/01/31 12:38:34.4	109.170	0.090	-0.160	1.350
2020/01/31 12:38:34.5	109.180	0.070	-0.140	1.360
2020/01/31 12:38:34.6	109.200	0.060	-0.120	1.360
2020/01/31 12:38:34.7	109.230	0.040	-0.090	1.370
2020/01/31 12:38:34.8	109.250	0.030	-0.070	1.370
2020/01/31 12:38:34.9	109.280	0.020	-0.050	1.370
2020/01/31 12:38:35.0	109.310	0.010	-0.020	1.370
2020/01/31 12:38:35.1	109.340	-0.000	-0.000	1.370
2020/01/31 12:38:35.2	109.370	-0.010	0.020	1.360
2020/01/31 12:38:35.3	109.400	-0.020	0.040	1.350
2020/01/31 12:38:35.4	109.430	-0.030	0.060	1.340
2020/01/31 12:38:35.5	109.480	-0.040	0.080	1.330
2020/01/31 12:38:35.6	109.510	-0.040	0.100	1.320
2020/01/31 12:38:35.7	109.540	-0.050	0.120	1.300
2020/01/31 12:38:35.8	109.570	-0.050	0.130	1.290
2020/01/31 12:38:35.9	109.600	-0.060	0.150	1.270
2020/01/31 12:38:36.0	109.630	-0.060	0.160	1.250
2020/01/31 12:38:36.1	109.660	-0.060	0.160	1.240
2020/01/31 12:38:36.2	109.680	-0.060	0.170	1.220
2020/01/31 12:38:36.3	109.710	-0.060	0.170	1.200
2020/01/31 12:38:36.4	109.730	-0.060	0.170	1.180
2020/01/31 12:38:36.5	109.750	-0.060	0.170	1.170
2020/01/31 12:38:36.6	109.770	-0.060	0.170	1.150
2020/01/31 12:38:36.7	109.790	-0.050	0.160	1.130
2020/01/31 12:38:36.8	109.810	-0.050	0.150	1.120
2020/01/31 12:38:36.9	109.820	-0.050	0.140	1.100
2020/01/31 12:38:37.0	109.830	-0.050	0.120	1.090
2020/01/31 12:38:37.1	109.840	-0.040	0.110	1.080
2020/01/31 12:38:37.2	109.850	-0.040	0.090	1.070
2020/01/31 12:38:37.3	109.860	-0.040	0.070	1.070
2020/01/31 12:38:37.4	109.860	-0.040	0.040	1.060
2020/01/31 12:38:37.5	109.860	-0.030	0.020	1.060
2020/01/31 12:38:37.6	109.860	-0.030	-0.010	1.060
2020/01/31 12:38:37.7	109.850	-0.030	-0.040	1.060
2020/01/31 12:38:37.8	109.850	-0.020	-0.070	1.070
2020/01/31 12:38:37.9	109.840	-0.020	-0.100	1.080
2020/01/31 12:38:38.0	109.840	-0.020	-0.130	1.080
2020/01/31 12:38:38.1	109.830	-0.020	-0.160	1.090
2020/01/31 12:38:38.2	109.820	-0.010	-0.200	1.110
2020/01/31 12:38:38.3	109.810	-0.010	-0.230	1.120
2020/01/31 12:38:38.4	109.790	-0.010	-0.270	1.130
2020/01/31 12:38:38.5	109.790	-0.010	-0.310	1.150
2020/01/31 12:38:38.6	109.770	-0.000	-0.340	1.160
2020/01/31 12:38:38.7	109.760	-0.000	-0.380	1.180
2020/01/31 12:38:38.8	109.750	0.000	-0.420	1.190
2020/01/31 12:38:38.9	109.740	0.000	-0.450	1.210
2020/01/31 12:38:39.0	109.730	0.010	-0.490	1.220
2020/01/31 12:38:39.1	109.720	0.010	-0.520	1.240
2020/01/31 12:38:39.2	109.710	0.010	-0.550	1.250
2020/01/31 12:38:39.3	109.700	0.020	-0.580	1.260
2020/01/31 12:38:39.4	109.700	0.020	-0.610	1.270
2020/01/31 12:38:39.5	109.680	0.020	-0.630	1.270
2020/01/31 12:38:39.6	109.670	0.030	-0.650	1.280
2020/01/31 12:38:39.7	109.670	0.030	-0.670	1.280
2020/01/31 12:38:39.8	109.670	0.030	-0.680	1.290
2020/01/31 12:38:39.9	109.670	0.040	-0.690	1.290
2020/01/31 12:38:40.0	109.670	0.040	-0.700	1.280
2020/01/31 12:38:40.1	109.670	0.040	-0.700	1.280
2020/01/31 12:38:40.2	109.670	0.050	-0.700	1.270
2020/01/31 12:38:40.3	109.680	0.050	-0.690	1.260
2020/01/31 12:38:40.4	109.680	0.050	-0.680	1.250
2020/01/31 12:38:40.5	109.680	0.050	-0.670	1.230
2020/01/31 12:38:40.6	109.690	0.050	-0.650	1.220
2020/01/31 12:38:40.7	109.690	0.050	-0.620	1.200
2020/01/31 12:38:40.8	109.700	0.050	-0.590	1.180
2020/01/31 12:38:40.9	109.710	0.050	-0.560	1.150
2020/01/31 12:38:41.0	109.720	0.050	-0.520	1.130
2020/01/31 12:38:41.1	109.730	0.040	-0.490	1.100
2020/01/31 12:38:41.2	109.740	0.040	-0.450	1.070
2020/01/31 12:38:41.3	109.750	0.040	-0.400	1.050
2020/01/31 12:38:41.4	109.760	0.030	-0.360	1.020
2020/01/31 12:38:41.5	109.770	0.030	-0.310	0.990
2020/01/31 12:38:41.6	109.780	0.030	-0.260	0.960
2020/01/31 12:38:41.7	109.790	0.020	-0.210	0.930
2020/01/31 12:38:41.8	109.800	0.020	-0.160	0.900
2020/01/31 12:38:41.9	109.810	0.010	-0.110	0.870
2020/01/31 12:38:42.0	109.820	0.010	-0.070	0.850
2020/01/31 12:38:42.1	109.820	-0.000	-0.020	0.820
2020/01/31 12:38:42.2	109.830	-0.010	0.030	0.790
2020/01/31 12:38:42.3	109.840	-0.010	0.070	0.770
2020/01/31 12:38:42.4	109.840	-0.020	0.110	0.750
2020/01/31 12:38:42.5	109.860	-0.020	0.150	0.730
2020/01/31 12:38:42.6	109.860	-0.030	0.190	0.710
2020/01/31 12:38:42.7	109.870	-0.030	0.220	0.690
2020/01/31 12:38:42.8	109.870	-0.040	0.250	0.670
2020/01/31 12:38:42.9	109.870	-0.050	0.280	0.660
2020/01/31 12:38:43.0	109.870	-0.050	0.300	0.640
2020/01/31 12:38:43.1	109.870	-0.060	0.320	0.630
2020/01/31 12:38:43.2	109.870	-0.060	0.340	0.610
2020/01/31 12:38:43.3	109.870	-0.070	0.350	0.600
2020/01/31 12:38:43.4	109.870	-0.070	0.360	0.590
2020/01/31 12:38:43.5	109.870	-0.080	0.370	0.580
2020/01/31 12:38:43.6	109.870	-0.080	0.380	0.570
2020/01/31 12:38:43.7	109.870	-0.080	0.380	0.560
2020/01/31 12:38:43.8	109.870	-0.090	0.370	0.550
2020/01/31 12:38:43.9	109.860	-0.090	0.370	0.540
2020/01/31 12:38:44.0	109.860	-0.100	0.360	0.540
2020/01/31 12:38:44.1	109.870	-0.100	0.350	0.530
2020/01/31 12:38:44.2	109.870	-0.100	0.330	0.520
2020/01/31 12:38:44.3	109.870	-0.110	0.320	0.510
2020/01/31 12:38:44.4	109.870	-0.110	0.300	0.510
2020/01/31 12:38:44.5	109.870	-0.110	0.270	0.500
2020/01/31 12:38:44.6	109.870	-0.110	0.250	0.490
2020/01/31 12:38:44.7	109.870	-0.110	0.220	0.480
2020/01/31 12:38:44.8	109.880	-0.110	0.190	0.470
2020/01/31 12:38:44.9	109.880	-0.110	0.150	0.460
2020/01/31 12:38:45.0	109.890	-0.110	0.120	0.460
2020/01/31 12:38:45.1	109.890	-0.100	0.080	0.450
2020/01/31 12:38:45.2	109.890	-0.100	0.030	0.440
2020/01/31 12:38:45.3	109.900	-0.100	-0.010	0.430
2020/01/31 12:38:45.4	109.900	-0.090	-0.060	0.430
2020/01/31 12:38:45.5	109.890	-0.080	-0.100	0.420
2020/01/31 12:38:45.6	109.900	-0.080	-0.150	0.420
2020/01/31 12:38:45.7	109.900	-0.070	-0.200	0.410
2020/01/31 12:38:45.8	109.900	-0.060	-0.250	0.410
2020/01/31 12:38:45.9	109.900	-0.050	-0.300	0.410
2020/01/31 12:38:46.0	109.910	-0.040	-0.350	0.410
2020/01/31 12:38:46.1	109.910	-0.030	-0.400	0.410
2020/01/31 12:38:46.2	109.900	-0.010	-0.440	0.410
2020/01/31 12:38:46.3	109.900	-0.000	-0.490	0.410
2020/01/31 12:38:46.4	109.900	0.010	-0.530	0.420
2020/01/31 12:38:46.5	109.900	0.020	-0.570	0.430
2020/01/31 12:38:46.6	109.900	0.030	-0.610	0.440
2020/01/31 12:38:46.7	109.890	0.050	-0.640	0.450
2020/01/31 12:38:46.8	109.890	0.060	-0.670	0.460
2020/01/31 12:38:46.9	109.880	0.070	-0.700	0.480
2020/01/31 12:38:47.0	109.880	0.080	-0.710	0.490
2020/01/31 12:38:47.1	109.870	0.090	-0.730	0.510
2020/01/31 12:38:47.2	109.870	0.090	-0.740	0.530
2020/01/31 12:38:47.3	109.870	0.100	-0.740	0.550
2020/01/31 12:38:47.4	109.860	0.100	-0.740	0.570
2020/01/31 12:38:47.5	109.870	0.110	-0.730	0.590
2020/01/31 12:38:47.6	109.870	0.110	-0.720	0.620
2020/01/31 12:38:47.7	109.870	0.110	-0.700	0.640
2020/01/31 12:38:47.8	109.870	0.110	-0.680	0.670
2020/01/31 12:38:47.9	109.880	0.110	-0.650	0.700
2020/01/31 12:38:48.0	109.880	0.100	-0.610	0.730
2020/01/31 12:38:48.1	109.880	0.090	-0.580	0.760
2020/01/31 12:38:48.2	109.890	0.090	-0.530	0.790
2020/01/31 12:38:48.3	109.890	0.080	-0.490	0.820
2020/01/31 12:38:48.4	109.900	0.070	-0.440	0.850
2020/01/31 12:38:48.5	109.910	0.060	-0.380	0.880
2020/01/31 12:38:48.6	109.920	0.040	-0.330	0.910
2020/01/31 12:38:48.7	109.930	0.030	-0.270	0.950
2020/01/31 12:38:48.8	109.930	0.020	-0.210	0.980
2020/01/31 12:38:48.9	109.940	0.000	-0.160	1.000
2020/01/31 12:38:49.0	109.950	-0.020	-0.100	1.030
2020/01/31 12:38:49.1	109.950	-0.030	-0.040	1.060
2020/01/31 12:38:49.2	109.960	-0.050	0.020	1.090
2020/01/31 12:38:49.3	109.970	-0.060	0.070	1.120
2020/01/31 12:38:49.4	109.970	-0.080	0.120	1.140
2020/01/31 12:38:49.5	109.980	-0.090	0.170	1.160
2020/01/31 12:38:49.6	109.980	-0.110	0.220	1.180
2020/01/31 12:38:49.7	109.990	-0.120	0.260	1.200
2020/01/31 12:38:49.8	109.990	-0.140	0.290	1.220
2020/01/31 12:38:49.9	109.990	-0.150	0.320	1.240
2020/01/31 12:38:50.0	109.990	-0.160	0.350	1.250
2020/01/31 12:38:50.1	109.990	-0.170	0.370	1.270
2020/01/31 12:38:50.2	109.990	-0.180	0.380	1.280
2020/01/31 12:38:50.3	109.990	-0.190	0.390	1.290
2020/01/31 12:38:50.4	109.990	-0.190	0.400	1.300
2020/01/31 12:38:50.5	109.980	-0.200	0.390	1.310
2020/01/31 12:38:50.6	109.970	-0.200	0.380	1.310
2020/01/31 12:38:50.7	109.970	-0.200	0.370	1.320
2020/01/31 12:38:50.8	109.960	-0.200	0.350	1.320
2020/01/31 12:38:50.9	109.950	-0.200	0.330	1.320
2020/01/31 12:38:51.0	109.940	-0.190	0.300	1.330
2020/01/31 12:38:51.1	109.940	-0.190	0.270	1.330
2020/01/31 12:38:51.2	109.930	-0.180	0.230	1.330
2020/01/31 12:38:51.3	109.920	-0.170	0.190	1.330
2020/01/31 12:38:51.4	109.900	-0.150	0.150	1.340
2020/01/31 12:38:51.5	109.890	-0.140	0.110	1.330
2020/01/31 12:38:51.6	109.870	-0.120	0.060	1.340
2020/01/31 12:38:51.7	109.860	-0.110	0.010	1.340
2020/01/31 12:38:51.8	109.850	-0.090	-0.050	1.340
2020/01/31 12:38:51.9	109.830	-0.070	-0.100	1.340
2020/01/31 12:38:52.0	109.820	-0.050	-0.150	1.340
2020/01/31 12:38:52.1	109.810	-0.030	-0.210	1.340
2020/01/31 12:38:52.2	109.790	-0.000	-0.260	1.340
2020/01/31 12:38:52.3	109.780	0.020	-0.320	1.340
2020/01/31 12:38:52.4	109.770	0.040	-0.370	1.340
2020/01/31 12:38:52.5	109.770	0.070	-0.420	1.340
2020/01/31 12:38:52.6	109.760	0.090	-0.470	1.340
2020/01/31 12:38:52.7	109.750	0.110	-0.510	1.340
2020/01/31 12:38:52.8	109.740	0.130	-0.560	1.340
2020/01/31 12:38:52.9	109.730	0.160	-0.600	1.340
2020/01/31 12:38:53.0	109.720	0.180	-0.630	1.350
2020/01/31 12:38:53.1	109.710	0.200	-0.670	1.350
2020/01/31 12:38:53.2	109.700	0.210	-0.700	1.350
2020/01/31 12:38:53.3	109.700	0.230	-0.720	1.350
2020/01/31 12:38:53.4	109.690	0.240	-0.740	1.350
2020/01/31 12:38:53.5	109.680	0.260	-0.760	1.350
2020/01/31 12:38:53.6	109.670	0.270	-0.770	1.360
2020/01/31 12:38:53.7	109.660	0.280	-0.770	1.360
2020/01/31 12:38:53.8	109.650	0.280	-0.770	1.360
2020/01/31 12:38:53.9	109.650	0.280	-0.770	1.360
2020/01/31 12:38:54.0	109.640	0.290	-0.760	1.370
2020/01/31 12:38:54.1	109.630	0.280	-0.750	1.370
2020/01/31 12:38:54.2	109.620	0.280	-0.730	1.370
2020/01/31 12:38:54.3	109.610	0.270	-0.710	1.370
2020/01/31 12:38:54.4	109.600	0.270	-0.680	1.370
2020/01/31 12:38:54.5	109.580	0.260	-0.640	1.370
2020/01/31 12:38:54.6	109.570	0.240	-0.610	1.360
2020/01/31 12:38:54.7	109.560	0.230	-0.570	1.360
2020/01/31 12:38:54.8	109.540	0.210	-0.530	1.350
2020/01/31 12:38:54.9	109.530	0.190	-0.480	1.340
2020/01/31 12:38:55.0	109.510	0.170	-0.430	1.330
2020/01/31 12:38:55.1	109.500	0.150	-0.380	1.320
2020/01/31 12:38:55.2	109.480	0.130	-0.330	1.300
2020/01/31 12:38:55.3	109.470	0.100	-0.280	1.290
2020/01/31 12:38:55.4	109.450	0.080	-0.220	1.270
2020/01/31 12:38:55.5	109.440	0.050	-0.170	1.240
2020/01/31 12:38:55.6	109.430	0.030	-0.110	1.220
2020/01/31 12:38:55.7	109.420	0.000	-0.050	1.190
2020/01/31 12:38:55.8	109.410	-0.020	0.010	1.160
2020/01/31 12:38:55.9	109.400	-0.050	0.060	1.130
2020/01/31 12:38:56.0	109.390	-0.080	0.120	1.090
2020/01/31 12:38:56.1	109.380	-0.100	0.170	1.050
2020/01/31 12:38:56.2	109.370	-0.120	0.220	1.010
2020/01/31 12:38:56.3	109.370	-0.150	0.270	0.970
2020/01/31 12:38:56.4	109.360	-0.170	0.320	0.930
2020/01/31 12:38:56.5	109.370	-0.190	0.370	0.890
2020/01/31 12:38:56.6	109.370	-0.210	0.410	0.840
2020/01/31 12:38:56.7	109.370	-0.220	0.440	0.800
2020/01/31 12:38:56.8	109.370	-0.240	0.470	0.750
2020/01/31 12:38:56.9	109.380	-0.250	0.500	0.710
2020/01/31 12:38:57.0	109.390	-0.260	0.520	0.660
2020/01/31 12:38:57.1	109.400	-0.270	0.540	0.620
2020/01/31 12:38:57.2	109.410	-0.280	0.550	0.570
2020/01/31 12:38:57.3	109.420	-0.280	0.560	0.530
2020/01/31 12:38:57.4	109.440	-0.280	0.560	0.480
2020/01/31 12:38:57.5	109.460	-0.280	0.560	0.440
2020/01/31 12:38:57.6	109.470	-0.280	0.550	0.400
2020/01/31 12:38:57.7	109.490	-0.270	0.530	0.360
2020/01/31 12:38:57.8	109.510	-0.270	0.510	0.320
2020/01/31 12:38:57.9	109.530	-0.260	0.480	0.280
2020/01/31 12:38:58.0	109.550	-0.240	0.440	0.240
2020/01/31 12:38:58.1	109.580	-0.230	0.400	0.200
2020/01/31 12:38:58.2	109.600	-0.210	0.360	0.170
2020/01/31 12:38:58.3	109.620	-0.200	0.310	0.130
2020/01/31 12:38:58.4	109.650	-0.180	0.260	0.090
2020/01/31 12:38:58.5	109.670	-0.150	0.200	0.060
2020/01/31 12:38:58.6	109.700	-0.130	0.140	0.020
2020/01/31 12:38:58.7	109.720	-0.110	0.070	-0.010
2020/01/31 12:38:58.8	109.740	-0.080	0.000	-0.050
2020/01/31 12:38:58.9	109.770	-0.060	-0.070	-0.080
2020/01/31 12:38:59.0	109.790	-0.030	-0.140	-0.110
2020/01/31 12:38:59.1	109.810	-0.000	-0.220	-0.140
2020/01/31 12:38:59.2	109.840	0.030	-0.290	-0.170
2020/01/31 12:38:59.3	109.860	0.050	-0.370	-0.200
2020/01/31 12:38:59.4	109.880	0.080	-0.440	-0.230
2020/01/31 12:38:59.5	109.890	0.110	-0.510	-0.260
2020/01/31 12:38:59.6	109.910	0.130	-0.580	-0.280
2020/01/31 12:38:59.7	109.920	0.160	-0.650	-0.310
2020/01/31 12:38:59.8	109.940	0.180	-0.720	-0.320
2020/01/31 12:38:59.9	109.950	0.200	-0.780	-0.340
2020/01/31 12:39:00.0	109.960	0.220	-0.830	-0.350
2020/01/31 12:39:00.1	109.960	0.240	-0.880	-0.360
2020/01/31 12:39:00.2	109.960	0.250	-0.930	-0.370
2020/01/31 12:39:00.3	109.960	0.260	-0.970	-0.370
2020/01/31 12:39:00.4	109.960	0.270	-1.000	-0.370
2020/01/31 12:39:00.5	109.950	0.280	-1.020	-0.360
2020/01/31 12:39:00.6	109.950	0.290	-1.040	-0.350
2020/01/31 12:39:00.7	109.940	0.290	-1.040	-0.330
2020/01/31 12:39:00.8	109.930	0.290	-1.040	-0.310
2020/01/31 12:39:00.9	109.910	0.280	-1.030	-0.290
2020/01/31 12:39:01.0	109.900	0.280	-1.020	-0.260
2020/01/31 12:39:01.1	109.880	0.270	-0.990	-0.220
2020/01/31 12:39:01.2	109.870	0.250	-0.960	-0.180
2020/01/31 12:39:01.3	109.850	0.240	-0.920	-0.140
2020/01/31 12:39:01.4	109.830	0.220	-0.880	-0.090
2020/01/31 12:39:01.5	109.810	0.200	-0.820	-0.040
2020/01/31 12:39:01.6	109.790	0.180	-0.760	0.010
2020/01/31 12:39:01.7	109.770	0.150	-0.700	0.070
2020/01/31 12:39:01.8	109.750	0.120	-0.630	0.130
2020/01/31 12:39:01.9	109.730	0.090	-0.560	0.190
2020/01/31 12:39:02.0	109.710	0.060	-0.490	0.260
2020/01/31 12:39:02.1	109.690	0.030	-0.420	0.320
2020/01/31 12:39:02.2	109.670	-0.010	-0.340	0.390
2020/01/31 12:39:02.3	109.650	-0.040	-0.260	0.460
2020/01/31 12:39:02.4	109.630	-0.080	-0.180	0.530
2020/01/31 12:39:02.5	109.610	-0.110	-0.100	0.610
2020/01/31 12:39:02.6	109.600	-0.150	-0.030	0.680
2020/01/31 12:39:02.7	109.580	-0.190	0.050	0.750
2020/01/31 12:39:02.8	109.560	-0.220	0.120	0.820
2020/01/31 12:39:02.9	109.550	-0.260	0.190	0.890
2020/01/31 12:39:03.0	109.540	-0.290	0.250	0.960
2020/01/31 12:39:03.1	109.520	-0.330	0.310	1.030
2020/01/31 12:39:03.2	109.510	-0.360	0.370	1.100
2020/01/31 12:39:03.3	109.500	-0.390	0.420	1.160
2020/01/31 12:39:03.4	109.490	-0.410	0.460	1.230
2020/01/31 12:39:03.5	109.490	-0.440	0.500	1.290
2020/01/31 12:39:03.6	109.480	-0.460	0.540	1.350
2020/01/31 12:39:03.7	109.480	-0.480	0.560	1.400
2020/01/31 12:39:03.8	109.480	-0.500	0.590	1.450
2020/01/31 12:39:03.9	109.470	-0.510	0.600	1.500
2020/01/31 12:39:04.0	109.470	-0.520	0.610	1.550
2020/01/31 12:39:04.1	109.480	-0.530	0.610	1.590
2020/01/31 12:39:04.2	109.480	-0.540	0.610	1.630
2020/01/31 12:39:04.3	109.490	-0.540	0.600	1.670
2020/01/31 12:39:04.4	109.490	-0.540	0.580	1.700
2020/01/31 12:39:04.5	109.500	-0.530	0.560	1.730
2020/01/31 12:39:04.6	109.510	-0.520	0.540	1.750
2020/01/31 12:39:04.7	109.520	-0.510	0.510	1.780
2020/01/31 12:39:04.8	109.530	-0.500	0.470	1.800
2020/01/31 12:39:04.9	109.540	-0.480	0.440	1.810
2020/01/31 12:39:05.0	109.560	-0.460	0.400	1.830
2020/01/31 12:39:05.1	109.570	-0.440	0.350	1.840
2020/01/31 12:39:05.2	109.590	-0.410	0.310	1.850
2020/01/31 12:39:05.3	109.600	-0.380	0.260	1.860
2020/01/31 12:39:05.4	109.620	-0.350	0.210	1.860
2020/01/31 12:39:05.5	109.630	-0.320	0.160	1.860
2020/01/31 12:39:05.6	109.640	-0.290	0.110	1.860
2020/01/31 12:39:05.7	109.660	-0.250	0.060	1.850
2020/01/31 12:39:05.8	109.680	-0.220	0.010	1.850
2020/01/31 12:39:05.9	109.700	-0.180	-0.040	1.840
2020/01/31 12:39:06.0	109.710	-0.140	-0.090	1.840
2020/01/31 12:39:06.1	109.730	-0.100	-0.140	1.830
2020/01/31 12:39:06.2	109.750	-0.060	-0.190	1.820
2020/01/31 12:39:06.3	109.770	-0.020	-0.230	1.800
2020/01/31 12:39:06.4	109.780	0.020	-0.270	1.790
2020/01/31 12:39:06.5	109.800	0.050	-0.310	1.770
2020/01/31 12:39:06.6	109.810	0.090	-0.350	1.760
2020/01/31 12:39:06.7	109.830	0.130	-0.390	1.740
2020/01/31 12:39:06.8	109.840	0.160	-0.420	1.720
2020/01/31 12:39:06.9	109.860	0.200	-0.450	1.700
2020/01/31 12:39:07.0	109.870	0.230	-0.480	1.680
2020/01/31 12:39:07.1	109.880	0.260	-0.500	1.650
2020/01/31 12:39:07.2	109.890	0.290	-0.520	1.630
2020/01/31 12:39:07.3	109.900	0.320	-0.540	1.610
2020/01/31 12:39:07.4	109.910	0.340	-0.560	1.580
2020/01/31 12:39:07.5	109.930	0.360	-0.570	1.550
2020/01/31 12:39:07.6	109.940	0.380	-0.580	1.520
2020/01/31 12:39:07.7	109.940	0.400	-0.590	1.500
2020/01/31 12:39:07.8	109.950	0.410	-0.590	1.470
2020/01/31 12:39:07.9	109.950	0.430	-0.590	1.440
2020/01/31 12:39:08.0	109.950	0.440	-0.590	1.410
2020/01/31 12:39:08.1	109.950	0.440	-0.590	1.370
2020/01/31 12:39:08.2	109.950	0.450	-0.580	1.340
2020/01/31 12:39:08.3	109.960	0.450	-0.570	1.310
2020/01/31 12:39:08.4	109.960	0.450	-0.560	1.270
2020/01/31 12:39:08.5	109.960	0.450	-0.540	1.230
2020/01/31 12:39:08.6	109.960	0.440	-0.530	1.200
2020/01/31 12:39:08.7	109.960	0.440	-0.510	1.160
2020/01/31 12:39:08.8	109.970	0.430	-0.490	1.120
2020/01/31 12:39:08.9	109.970	0.420	-0.470	1.080
2020/01/31 12:39:09.0	109.970	0.410	-0.450	1.040
2020/01/31 12:39:09.1	109.980	0.400	-0.420	1.010
2020/01/31 12:39:09.2	109.980	0.380	-0.400	0.970
2020/01/31 12:39:09.3	109.980	0.370	-0.370	0.930
2020/01/31 12:39:09.4	109.990	0.360	-0.350	0.890
2020/01/31 12:39:09.5	109.990	0.340	-0.320	0.860
2020/01/31 12:39:09.6	110.000	0.330	-0.290	0.820
2020/01/31 12:39:09.7	110.000	0.310	-0.260	0.790
2020/01/31 12:39:09.8	110.000	0.300	-0.230	0.760
2020/01/31 12:39:09.9	110.010	0.280	-0.210	0.730
2020/01/31 12:39:10.0	110.010	0.260	-0.180	0.710
2020/01/31 12:39:10.1	110.010	0.250	-0.160	0.690
2020/01/31 12:39:10.2	110.000	0.240	-0.140	0.670
2020/01/31 12:39:10.3	110.000	0.220	-0.120	0.650
2020/01/31 12:39:10.4	109.990	0.210	-0.100	0.640
2020/01/31 12:39:10.5	109.980	0.200	-0.090	0.640
2020/01/31 12:39:10.6	109.970	0.180	-0.070	0.630
2020/01/31 12:39:10.7	109.960	0.170	-0.060	0.630
2020/01/31 12:39:10.8	109.950	0.160	-0.060	0.640
2020/01/31 12:39:10.9	109.930	0.150	-0.050	0.640
2020/01/31 12:39:11.0	109.920	0.140	-0.050	0.650
2020/01/31 12:39:11.1	109.900	0.130	-0.050	0.660
2020/01/31 12:39:11.2	109.880	0.120	-0.050	0.680
2020/01/31 12:39:11.3	109.860	0.110	-0.060	0.690
2020/01/31 12:39:11.4	109.840	0.100	-0.070	0.710
2020/01/31 12:39:11.5	109.810	0.090	-0.070	0.730
2020/01/31 12:39:11.6	109.790	0.080	-0.090	0.750
2020/01/31 12:39:11.7	109.760	0.070	-0.100	0.770
2020/01/31 12:39:11.8	109.740	0.060	-0.110	0.790
2020/01/31 12:39:11.9	109.720	0.050	-0.130	0.810
2020/01/31 12:39:12.0	109.700	0.040	-0.150	0.830
2020/01/31 12:39:12.1	109.680	0.030	-0.160	0.860
2020/01/31 12:39:12.2	109.650	0.020	-0.180	0.880
2020/01/31 12:39:12.3	109.630	0.010	-0.200	0.900
2020/01/31 12:39:12.4	109.610	-0.010	-0.210	0.920
2020/01/31 12:39:12.5	109.600	-0.020	-0.230	0.940
2020/01/31 12:39:12.6	109.580	-0.030	-0.250	0.960
2020/01/31 12:39:12.7	109.570	-0.050	-0.260	0.970
2020/01/31 12:39:12.8	109.550	-0.070	-0.270	0.990
2020/01/31 12:39:12.9	109.540	-0.080	-0.280	1.000
2020/01/31 12:39:13.0	109.530	-0.100	-0.290	1.010
2020/01/31 12:39:13.1	109.520	-0.120	-0.300	1.020
2020/01/31 12:39:13.2	109.520	-0.130	-0.300	1.030
2020/01/31 12:39:13.3	109.520	-0.150	-0.300	1.040
2020/01/31 12:39:13.4	109.510	-0.170	-0.300	1.040
2020/01/31 12:39:13.5	109.510	-0.190	-0.290	1.040
2020/01/31 12:39:13.6	109.520	-0.210	-0.280	1.050
2020/01/31 12:39:13.7	109.520	-0.230	-0.270	1.050
2020/01/31 12:39:13.8	109.530	-0.250	-0.260	1.050
2020/01/31 12:39:13.9	109.540	-0.270	-0.240	1.050
2020/01/31 12:39:14.0	109.550	-0.290	-0.230	1.050
2020/01/31 12:39:14.1	109.560	-0.310	-0.200	1.050
2020/01/31 12:39:14.2	109.580	-0.330	-0.180	1.040
2020/01/31 12:39:14.3	109.590	-0.340	-0.160	1.040
2020/01/31 12:39:14.4	109.610	-0.360	-0.130	1.040
2020/01/31 12:39:14.5	109.640	-0.380	-0.100	1.040
2020/01/31 12:39:14.6	109.660	-0.400	-0.070	1.040
2020/01/31 12:39:14.7	109.680	-0.410	-0.030	1.040
2020/01/31 12:39:14.8	109.700	-0.430	-0.000	1.040
2020/01/31 12:39:14.9	109.720	-0.440	0.030	1.040
2020/01/31 12:39:15.0	109.740	-0.450	0.070	1.030
2020/01/31 12:39:15.1	109.760	-0.460	0.100	1.030
2020/01/31 12:39:15.2	109.780	-0.470	0.130	1.030
2020/01/31 12:39:15.3	109.800	-0.480	0.160	1.030
2020/01/31 12:39:15.4	109.820	-0.490	0.190	1.040
2020/01/31 12:39:15.5	109.820	-0.490	0.220	1.040
2020/01/31 12:39:15.6	109.830	-0.500	0.250	1.040
2020/01/31 12:39:15.7	109.850	-0.500	0.270	1.040
2020/01/31 12:39:15.8	109.860	-0.500	0.290	1.050
2020/01/31 12:39:15.9	109.880	-0.500	0.310	1.050
2020/01/31 12:39:16.0	109.890	-0.500	0.320	1.050
2020/01/31 12:39:16.1	109.900	-0.490	0.330	1.060
2020/01/31 12:39:16.2	109.910	-0.490	0.340	1.060
2020/01/31 12:39:16.3	109.920	-0.480	0.350	1.070
2020/01/31 12:39:16.4	109.930	-0.470	0.340	1.070
2020/01/31 12:39:16.5	109.940	-0.450	0.340	1.070
2020/01/31 12:39:16.6	109.940	-0.440	0.330	1.080
2020/01/31 12:39:16.7	109.950	-0.420	0.320	1.080
2020/01/31 12:39:16.8	109.950	-0.400	0.300	1.090
2020/01/31 12:39:16.9	109.950	-0.380	0.280	1.090
2020/01/31 12:39:17.0	109.960	-0.360	0.260	1.090
2020/01/31 12:39:17.1	109.960	-0.330	0.230	1.090
2020/01/31 12:39:17.2	109.960	-0.310	0.190	1.100
2020/01/31 12:39:17.3	109.960	-0.280	0.160	1.100
2020/01/31 12:39:17.4	109.960	-0.250	0.120	1.100
2020/01/31 12:39:17.5	109.970	-0.220	0.080	1.100
2020/01/31 12:39:17.6	109.970	-0.180	0.030	1.100
2020/01/31 12:39:17.7	109.970	-0.150	-0.010	1.090
2020/01/31 12:39:17.8	109.970	-0.110	-0.060	1.090
2020/01/31 12:39:17.9	109.970	-0.080	-0.110	1.080
2020/01/31 12:39:18.0	109.970	-0.040	-0.160	1.080
2020/01/31 12:39:18.1	109.980	-0.000	-0.210	1.070
2020/01/31 12:39:18.2	109.980	0.030	-0.260	1.060
2020/01/31 12:39:18.3	109.980	0.070	-0.310	1.050
2020/01/31 12:39:18.4	109.980	0.110	-0.360	1.030
2020/01/31 12:39:18.5	109.990	0.140	-0.410	1.020
2020/01/31 12:39:18.6	110.000	0.180	-0.450	1.000
2020/01/31 12:39:18.7	110.000	0.220	-0.500	0.990
2020/01/31 12:39:18.8	110.010	0.250	-0.540	0.970
2020/01/31 12:39:18.9	110.010	0.280	-0.580	0.950
2020/01/31 12:39:19.0	110.020	0.320	-0.620	0.930
2020/01/31 12:39:19.1	110.020	0.350	-0.660	0.910
2020/01/31 12:39:19.2	110.030	0.370	-0.690	0.890
2020/01/31 12:39:19.3	110.040	0.400	-0.720	0.870
2020/01/31 12:39:19.4	110.040	0.420	-0.750	0.850
2020/01/31 12:39:19.5	110.040	0.450	-0.770	0.830
2020/01/31 12:39:19.6	110.040	0.470	-0.790	0.820
2020/01/31 12:39:19.7	110.040	0.480	-0.800	0.810
2020/01/31 12:39:19.8	110.050	0.500	-0.810	0.800
2020/01/31 12:39:19.9	110.050	0.510	-0.810	0.790
2020/01/31 12:39:20.0	110.040	0.520	-0.810	0.790
2020/01/31 12:39:20.1	110.040	0.520	-0.810	0.790
2020/01/31 12:39:20.2	110.040	0.530	-0.800	0.790
2020/01/31 12:39:20.3	110.030	0.530	-0.790	0.790
2020/01/31 12:39:20.4	110.020	0.520	-0.770	0.800
2020/01/31 12:39:20.5	110.010	0.520	-0.740	0.820
2020/01/31 12:39:20.6	110.000	0.510	-0.720	0.830
2020/01/31 12:39:20.7	109.980	0.500	-0.690	0.850
2020/01/31 12:39:20.8	109.970	0.490	-0.660	0.870
2020/01/31 12:39:20.9	109.950	0.470	-0.620	0.890
2020/01/31 12:39:21.0	109.930	0.460	-0.580	0.920
2020/01/31 12:39:21.1	109.910	0.440	-0.540	0.940
2020/01/31 12:39:21.2	109.880	0.420	-0.500	0.970
2020/01/31 12:39:21.3	109.860	0.390	-0.450	1.000
2020/01/31 12:39:21.4	109.830	0.370	-0.410	1.030
2020/01/31 12:39:21.5	109.810	0.350	-0.360	1.060
2020/01/31 12:39:21.6	109.790	0.320	-0.310	1.090
2020/01/31 12:39:21.7	109.760	0.300	-0.260	1.120
2020/01/31 12:39:21.8	109.740	0.270	-0.210	1.150
2020/01/31 12:39:21.9	109.710	0.250	-0.170	1.170
2020/01/31 12:39:22.0	109.690	0.220	-0.120	1.190
2020/01/31 12:39:22.1	109.660	0.200	-0.070	1.210
2020/01/31 12:39:22.2	109.640	0.180	-0.030	1.220
2020/01/31 12:39:22.3	109.630	0.150	0.010	1.230
2020/01/31 12:39:22.4	109.610	0.130	0.050	1.240
2020/01/31 12:39:22.5	109.600	0.110	0.080	1.250
2020/01/31 12:39:22.6	109.590	0.090	0.120	1.240
2020/01/31 12:39:22.7	109.580	0.070	0.150	1.240
2020/01/31 12:39:22.8	109.570	0.060	0.170	1.220
2020/01/31 12:39:22.9	109.570	0.040	0.200	1.210
2020/01/31 12:39:23.0	109.570	0.030	0.220	1.190
2020/01/31 12:39:23.1	109.570	0.020	0.230	1.160
2020/01/31 12:39:23.2	109.580	0.010	0.240	1.130
2020/01/31 12:39:23.3	109.580	0.010	0.250	1.100
2020/01/31 12:39:23.4	109.590	0.000	0.250	1.070
2020/01/31 12:39:23.5	109.600	-0.000	0.260	1.030
2020/01/31 12:39:23.6	109.620	-0.000	0.250	0.980
2020/01/31 12:39:23.7	109.630	-0.000	0.250	0.940
2020/01/31 12:39:23.8	109.650	-0.000	0.240	0.900
2020/01/31 12:39:23.9	109.670	0.000	0.230	0.850
2020/01/31 12:39:24.0	109.690	0.000	0.220	0.810
2020/01/31 12:39:24.1	109.710	0.010	0.200	0.760
2020/01/31 12:39:24.2	109.740	0.010	0.180	0.710
2020/01/31 12:39:24.3	109.760	0.020	0.160	0.670
2020/01/31 12:39:24.4	109.790	0.020	0.140	0.630
2020/01/31 12:39:24.5	109.810	0.030	0.120	0.580
2020/01/31 12:39:24.6	109.840	0.040	0.100	0.540
2020/01/31 12:39:24.7	109.860	0.040	0.080	0.500
2020/01/31 12:39:24.8	109.890	0.050	0.060	0.470
2020/01/31 12:39:24.9	109.910	0.050	0.030	0.430
2020/01/31 12:39:25.0	109.940	0.050	0.010	0.400
2020/01/31 12:39:25.1	109.960	0.060	-0.010	0.370
2020/01/31 12:39:25.2	109.980	0.060	-0.020	0.350
2020/01/31 12:39:25.3	110.010	0.060	-0.040	0.320
2020/01/31 12:39:25.4	110.030	0.060	-0.060	0.310
2020/01/31 12:39:25.5	110.040	0.050	-0.070	0.290
2020/01/31 12:39:25.6	110.060	0.050	-0.080	0.280
2020/01/31 12:39:25.7	110.080	0.040	-0.090	0.270
2020/01/31 12:39:25.8	110.090	0.030	-0.100	0.260
2020/01/31 12:39:25.9	110.110	0.020	-0.110	0.260
2020/01/31 12:39:26.0	110.120	0.010	-0.120	0.260
2020/01/31 12:39:26.1	110.140	-0.010	-0.120	0.260
2020/01/31 12:39:26.2	110.150	-0.020	-0.120	0.270
2020/01/31 12:39:26.3	110.160	-0.040	-0.120	0.280
2020/01/31 12:39:26.4	110.170	-0.060	-0.120	0.290
2020/01/31 12:39:26.5	110.170	-0.080	-0.110	0.310
2020/01/31 12:39:26.6	110.180	-0.100	-0.100	0.320
2020/01/31 12:39:26.7	110.190	-0.130	-0.090	0.340
2020/01/31 12:39:26.8	110.200	-0.150	-0.080	0.360
2020/01/31 12:39:26.9	110.200	-0.180	-0.070	0.390
2020/01/31 12:39:27.0	110.210	-0.200	-0.060	0.410
2020/01/31 12:39:27.1	110.220	-0.230	-0.040	0.440
2020/01/31 12:39:27.2	110.220	-0.260	-0.030	0.460
2020/01/31 12:39:27.3	110.230	-0.280	-0.020	0.490
2020/01/31 12:39:27.4	110.230	-0.310	-0.000	0.520
2020/01/31 12:39:27.5	110.250	-0.340	0.010	0.560
2020/01/31 12:39:27.6	110.260	-0.360	0.020	0.590
2020/01/31 12:39:27.7	110.260	-0.380	0.030	0.620
2020/01/31 12:39:27.8	110.260	-0.410	0.040	0.660
2020/01/31 12:39:27.9	110.270	-0.430	0.040	0.690
2020/01/31 12:39:28.0	110.270	-0.450	0.040	0.720
2020/01/31 12:39:28.1	110.280	-0.460	0.040	0.760
2020/01/31 12:39:28.2	110.280	-0.480	0.040	0.790
2020/01/31 12:39:28.3	110.290	-0.490	0.030	0.830
2020/01/31 12:39:28.4	110.290	-0.500	0.020	0.870
2020/01/31 12:39:28.5	110.270	-0.500	0.000	0.900
2020/01/31 12:39:28.6	110.280	-0.500	-0.020	0.940
2020/01/31 12:39:28.7	110.280	-0.500	-0.040	0.970
2020/01/31 12:39:28.8	110.290	-0.500	-0.070	1.000
2020/01/31 12:39:28.9	110.290	-0.490	-0.100	1.040
2020/01/31 12:39:29.0	110.300	-0.480	-0.130	1.070
2020/01/31 12:39:29.1	110.300	-0.460	-0.170	1.100
2020/01/31 12:39:29.2	110.310	-0.450	-0.210	1.140
2020/01/31 12:39:29.3	110.310	-0.430	-0.260	1.170
2020/01/31 12:39:29.4	110.320	-0.400	-0.300	1.200
2020/01/31 12:39:29.5	110.330	-0.370	-0.350	1.230
2020/01/31 12:39:29.6	110.330	-0.340	-0.400	1.250
2020/01/31 12:39:29.7	110.340	-0.310	-0.450	1.280
2020/01/31 12:39:29.8	110.340	-0.280	-0.490	1.310
2020/01/31 12:39:29.9	110.350	-0.240	-0.540	1.330
2020/01/31 12:39:30.0	110.350	-0.210	-0.590	1.350
2020/01/31 12:39:30.1	110.360	-0.170	-0.630	1.380
2020/01/31 12:39:30.2	110.360	-0.130	-0.670	1.400
2020/01/31 12:39:30.3	110.370	-0.090	-0.710	1.420
2020/01/31 12:39:30.4	110.370	-0.040	-0.750	1.440
2020/01/31 12:39:30.5	110.370	-0.000	-0.780	1.460
2020/01/31 12:39:30.6	110.380	0.040	-0.800	1.470
2020/01/31 12:39:30.7	110.380	0.080	-0.820	1.490
2020/01/31 12:39:30.8	110.380	0.120	-0.840	1.500
2020/01/31 12:39:30.9	110.390	0.160	-0.850	1.520
2020/01/31 12:39:31.0	110.390	0.190	-0.860	1.530
2020/01/31 12:39:31.1	110.390	0.230	-0.860	1.540
2020/01/31 12:39:31.2	110.390	0.260	-0.850	1.550
2020/01/31 12:39:31.3	110.390	0.290	-0.840	1.560
2020/01/31 12:39:31.4	110.400	0.320	-0.820	1.570
2020/01/31 12:39:31.5	110.410	0.350	-0.790	1.570
2020/01/31 12:39:31.6	110.410	0.370	-0.760	1.580
2020/01/31 12:39:31.7	110.410	0.390	-0.730	1.590
2020/01/31 12:39:31.8	110.410	0.410	-0.680	1.590
2020/01/31 12:39:31.9	110.400	0.420	-0.640	1.600
2020/01/31 12:39:32.0	110.400	0.430	-0.590	1.600
2020/01/31 12:39:32.1	110.400	0.440	-0.530	1.600
2020/01/31 12:39:32.2	110.390	0.450	-0.470	1.600
2020/01/31 12:39:32.3	110.390	0.450	-0.410	1.600
2020/01/31 12:39:32.4	110.380	0.450	-0.340	1.600
2020/01/31 12:39:32.5	110.370	0.440	-0.280	1.600
2020/01/31 12:39:32.6	110.370	0.440	-0.210	1.590
2020/01/31 12:39:32.7	110.360	0.430	-0.140	1.590
2020/01/31 12:39:32.8	110.360	0.410	-0.070	1.580
2020/01/31 12:39:32.9	110.350	0.400	0.000	1.570
2020/01/31 12:39:33.0	110.350	0.380	0.070	1.560
2020/01/31 12:39:33.1	110.340	0.370	0.130	1.550
2020/01/31 12:39:33.2	110.340	0.350	0.200	1.530
2020/01/31 12:39:33.3	110.330	0.320	0.260	1.510
2020/01/31 12:39:33.4	110.330	0.300	0.320	1.490
2020/01/31 12:39:33.5	110.320	0.280	0.370	1.470
2020/01/31 12:39:33.6	110.310	0.250	0.420	1.440
2020/01/31 12:39:33.7	110.310	0.230	0.470	1.410
2020/01/31 12:39:33.8	110.310	0.200	0.510	1.380
2020/01/31 12:39:33.9	110.310	0.180	0.540	1.350
2020/01/31 12:39:34.0	110.310	0.150	0.570	1.310
2020/01/31 12:39:34.1	110.320	0.130	0.590	1.280
2020/01/31 12:39:34.2	110.320	0.100	0.610	1.240
2020/01/31 12:39:34.3	110.330	0.080	0.620	1.190
2020/01/31 12:39:34.4	110.330	0.060	0.630	1.150
2020/01/31 12:39:34.5	110.350	0.030	0.630	1.100
2020/01/31 12:39:34.6	110.360	0.010	0.620	1.050
2020/01/31 12:39:34.7	110.380	-0.000	0.610	1.000
2020/01/31 12:39:34.8	110.390	-0.020	0.590	0.940
2020/01/31 12:39:34.9	110.410	-0.040	0.570	0.890
2020/01/31 12:39:35.0	110.420	-0.050	0.540	0.840
2020/01/31 12:39:35.1	110.440	-0.060	0.500	0.780
2020/01/31 12:39:35.2	110.460	-0.080	0.460	0.720
2020/01/31 12:39:35.3	110.480	-0.090	0.420	0.670
2020/01/31 12:39:35.4	110.500	-0.090	0.370	0.610
2020/01/31 12:39:35.5	110.540	-0.100	0.320	0.560
2020/01/31 12:39:35.6	110.560	-0.100	0.270	0.510
2020/01/31 12:39:35.7	110.580	-0.110	0.210	0.450
2020/01/31 12:39:35.8	110.610	-0.110	0.160	0.400
2020/01/31 12:39:35.9	110.630	-0.110	0.100	0.350
2020/01/31 12:39:36.0	110.660	-0.110	0.040	0.310
2020/01/31 12:39:36.1	110.680	-0.110	-0.020	0.260
2020/01/31 12:39:36.2	110.710	-0.110	-0.080	0.220
2020/01/31 12:39:36.3	110.730	-0.100	-0.140	0.190
2020/01/31 12:39:36.4	110.750	-0.100	-0.200	0.150
2020/01/31 12:39:36.5	110.770	-0.100	-0.250	0.120
2020/01/31 12:39:36.6	110.790	-0.090	-0.310	0.090
2020/01/31 12:39:36.7	110.810	-0.090	-0.360	0.070
2020/01/31 12:39:36.8	110.830	-0.080	-0.410	0.050
2020/01/31 12:39:36.9	110.850	-0.080	-0.450	0.040
2020/01/31 12:39:37.0	110.870	-0.070	-0.490	0.030
2020/01/31 12:39:37.1	110.890	-0.070	-0.530	0.030
2020/01/31 12:39:37.2	110.910	-0.060	-0.570	0.030
2020/01/31 12:39:37.3	110.920	-0.060	-0.600	0.030
2020/01/31 12:39:37.4	110.940	-0.050	-0.620	0.040
2020/01/31 12:39:37.5	110.940	-0.050	-0.640	0.060
2020/01/31 12:39:37.6	110.960	-0.050	-0.660	0.080
2020/01/31 12:39:37.7	110.970	-0.050	-0.670	0.100
2020/01/31 12:39:37.8	110.980	-0.050	-0.680	0.130
2020/01/31 12:39:37.9	110.990	-0.040	-0.690	0.160
2020/01/31 12:39:38.0	111.000	-0.050	-0.690	0.200
2020/01/31 12:39:38.1	111.000	-0.050	-0.680	0.240
2020/01/31 12:39:38.2	111.010	-0.050	-0.680	0.280
2020/01/31 12:39:38.3	111.010	-0.050	-0.670	0.330
2020/01/31 12:39:38.4	111.010	-0.050	-0.650	0.380
2020/01/31 12:39:38.5	111.000	-0.060	-0.640	0.430
2020/01/31 12:39:38.6	111.000	-0.060	-0.620	0.490
2020/01/31 12:39:38.7	110.990	-0.070	-0.610	0.540
2020/01/31 12:39:38.8	110.990	-0.070	-0.590	0.610
2020/01/31 12:39:38.9	110.980	-0.080	-0.570	0.670
2020/01/31 12:39:39.0	110.970	-0.080	-0.540	0.730
2020/01/31 12:39:39.1	110.960	-0.090	-0.520	0.800
2020/01/31 12:39:39.2	110.950	-0.090	-0.500	0.870
2020/01/31 12:39:39.3	110.930	-0.090	-0.480	0.930
2020/01/31 12:39:39.4	110.920	-0.100	-0.460	1.000
2020/01/31 12:39:39.5	110.910	-0.100	-0.440	1.070
2020/01/31 12:39:39.6	110.890	-0.100	-0.420	1.130
2020/01/31 12:39:39.7	110.880	-0.100	-0.400	1.200
2020/01/31 12:39:39.8	110.860	-0.100	-0.380	1.260
2020/01/31 12:39:39.9	110.840	-0.100	-0.360	1.320
2020/01/31 12:39:40.0	110.830	-0.100	-0.350	1.380
2020/01/31 12:39:40.1	110.810	-0.090	-0.330	1.440
2020/01/31 12:39:40.2	110.790	-0.090	-0.320	1.500
2020/01/31 12:39:40.3	110.770	-0.080	-0.310	1.550
2020/01/31 12:39:40.4	110.760	-0.070	-0.300	1.600
2020/01/31 12:39:40.5	110.760	-0.060	-0.290	1.650
2020/01/31 12:39:40.6	110.740	-0.050	-0.280	1.690
2020/01/31 12:39:40.7	110.730	-0.040	-0.260	1.730
2020/01/31 12:39:40.8	110.710	-0.020	-0.250	1.770
2020/01/31 12:39:40.9	110.700	-0.010	-0.240	1.800
2020/01/31 12:39:41.0	110.690	0.010	-0.230	1.840
2020/01/31 12:39:41.1	110.680	0.030	-0.220	1.860
2020/01/31 12:39:41.2	110.670	0.050	-0.210	1.890
2020/01/31 12:39:41.3	110.660	0.070	-0.200	1.910
2020/01/31 12:39:41.4	110.660	0.090	-0.190	1.930
2020/01/31 12:39:41.5	110.660	0.110	-0.170	1.940
2020/01/31 12:39:41.6	110.660	0.130	-0.160	1.950
2020/01/31 12:39:41.7	110.660	0.150	-0.140	1.960
2020/01/31 12:39:41.8	110.660	0.160	-0.130	1.960
2020/01/31 12:39:41.9	110.660	0.180	-0.110	1.970
2020/01/31 12:39:42.0	110.660	0.200	-0.090	1.970
2020/01/31 12:39:42.1	110.670	0.220	-0.080	1.960
2020/01/31 12:39:42.2	110.670	0.230	-0.060	1.960
2020/01/31 12:39:42.3	110.680	0.250	-0.040	1.950
2020/01/31 12:39:42.4	110.690	0.260	-0.020	1.940
2020/01/31 12:39:42.5	110.690	0.270	0.010	1.930
2020/01/31 12:39:42.6	110.700	0.280	0.030	1.910
2020/01/31 12:39:42.7	110.710	0.290	0.050	1.900
2020/01/31 12:39:42.8	110.730	0.290	0.080	1.880
2020/01/31 12:39:42.9	110.740	0.300	0.100	1.850
2020/01/31 12:39:43.0	110.750	0.300	0.130	1.830
2020/01/31 12:39:43.1	110.760	0.300	0.150	1.800
2020/01/31 12:39:43.2	110.780	0.290	0.180	1.770
2020/01/31 12:39:43.3	110.790	0.280	0.200	1.740
2020/01/31 12:39:43.4	110.810	0.280	0.230	1.700
2020/01/31 12:39:43.5	110.820	0.270	0.250	1.670
2020/01/31 12:39:43.6	110.840	0.250	0.280	1.620
2020/01/31 12:39:43.7	110.850	0.240	0.300	1.580
2020/01/31 12:39:43.8	110.870	0.220	0.330	1.530
2020/01/31 12:39:43.9	110.880	0.200	0.350	1.480
2020/01/31 12:39:44.0	110.890	0.180	0.370	1.430
2020/01/31 12:39:44.1	110.900	0.160	0.390	1.380
2020/01/31 12:39:44.2	110.910	0.130	0.410	1.320
2020/01/31 12:39:44.3	110.920	0.110	0.430	1.260
2020/01/31 12:39:44.4	110.930	0.080	0.450	1.200
2020/01/31 12:39:44.5	110.930	0.060	0.460	1.130
2020/01/31 12:39:44.6	110.940	0.030	0.470	1.070
2020/01/31 12:39:44.7	110.940	0.000	0.470	1.010
2020/01/31 12:39:44.8	110.940	-0.030	0.480	0.950
2020/01/31 12:39:44.9	110.940	-0.050	0.480	0.890
2020/01/31 12:39:45.0	110.940	-0.080	0.470	0.830
2020/01/31 12:39:45.1	110.940	-0.110	0.470	0.770
2020/01/31 12:39:45.2	110.940	-0.130	0.450	0.710
2020/01/31 12:39:45.3	110.930	-0.160	0.440	0.660
2020/01/31 12:39:45.4	110.930	-0.180	0.420	0.600
2020/01/31 12:39:45.5	110.930	-0.200	0.390	0.550
2020/01/31 12:39:45.6	110.920	-0.230	0.360	0.500
2020/01/31 12:39:45.7	110.910	-0.240	0.330	0.460
2020/01/31 12:39:45.8	110.900	-0.260	0.290	0.410
2020/01/31 12:39:45.9	110.890	-0.280	0.250	0.380
2020/01/31 12:39:46.0	110.880	-0.290	0.200	0.340
2020/01/31 12:39:46.1	110.870	-0.300	0.150	0.310
2020/01/31 12:39:46.2	110.850	-0.310	0.100	0.280
2020/01/31 12:39:46.3	110.840	-0.310	0.040	0.260
2020/01/31 12:39:46.4	110.830	-0.320	-0.020	0.230
2020/01/31 12:39:46.5	110.830	-0.320	-0.080	0.220
2020/01/31 12:39:46.6	110.820	-0.310	-0.150	0.200
2020/01/31 12:39:46.7	110.810	-0.310	-0.220	0.190
2020/01/31 12:39:46.8	110.800	-0.300	-0.300	0.190
2020/01/31 12:39:46.9	110.790	-0.290	-0.370	0.190
2020/01/31 12:39:47.0	110.780	-0.280	-0.450	0.190
2020/01/31 12:39:47.1	110.770	-0.270	-0.530	0.190
2020/01/31 12:39:47.2	110.760	-0.250	-0.610	0.190
2020/01/31 12:39:47.3	110.750	-0.230	-0.690	0.200
2020/01/31 12:39:47.4	110.740	-0.210	-0.770	0.210
2020/01/31 12:39:47.5	110.730	-0.190	-0.850	0.220
2020/01/31 12:39:47.6	110.730	-0.160	-0.930	0.230
2020/01/31 12:39:47.7	110.730	-0.140	-1.010	0.250
2020/01/31 12:39:47.8	110.730	-0.110	-1.080	0.260
2020/01/31 12:39:47.9	110.730	-0.090	-1.150	0.280
2020/01/31 12:39:48.0	110.740	-0.060	-1.220	0.290
2020/01/31 12:39:48.1	110.740	-0.030	-1.280	0.310
2020/01/31 12:39:48.2	110.750	-0.010	-1.330	0.330
2020/01/31 12:39:48.3	110.760	0.020	-1.380	0.350
2020/01/31 12:39:48.4	110.770	0.050	-1.420	0.360
2020/01/31 12:39:48.5	110.790	0.070	-1.460	0.390
2020/01/31 12:39:48.6	110.800	0.090	-1.480	0.410
2020/01/31 12:39:48.7	110.810	0.110	-1.500	0.430
2020/01/31 12:39:48.8	110.830	0.130	-1.510	0.450
2020/01/31 12:39:48.9	110.850	0.150	-1.510	0.470
2020/01/31 12:39:49.0	110.860	0.170	-1.500	0.490
2020/01/31 12:39:49.1	110.880	0.180	-1.470	0.510
2020/01/31 12:39:49.2	110.900	0.190	-1.440	0.530
2020/01/31 12:39:49.3	110.920	0.200	-1.400	0.560
2020/01/31 12:39:49.4	110.940	0.200	-1.350	0.580
2020/01/31 12:39:49.5	110.970	0.200	-1.280	0.600
2020/01/31 12:39:49.6	110.990	0.200	-1.210	0.630
2020/01/31 12:39:49.7	111.010	0.190	-1.130	0.650
2020/01/31 12:39:49.8	111.030	0.180	-1.040	0.670
2020/01/31 12:39:49.9	111.050	0.170	-0.950	0.700
2020/01/31 12:39:50.0	111.070	0.160	-0.840	0.730
2020/01/31 12:39:50.1	111.090	0.140	-0.730	0.750
2020/01/31 12:39:50.2	111.110	0.120	-0.610	0.770
2020/01/31 12:39:50.3	111.130	0.100	-0.490	0.800
2020/01/31 12:39:50.4	111.140	0.080	-0.370	0.820
2020/01/31 12:39:50.5	111.160	0.050	-0.240	0.850
2020/01/31 12:39:50.6	111.170	0.030	-0.110	0.880
2020/01/31 12:39:50.7	111.190	-0.000	0.020	0.900
2020/01/31 12:39:50.8	111.200	-0.030	0.150	0.920
2020/01/31 12:39:50.9	111.200	-0.060	0.280	0.950
2020/01/31 12:39:51.0	111.210	-0.090	0.400	0.970
2020/01/31 12:39:51.1	111.210	-0.120	0.520	0.990
2020/01/31 12:39:51.2	111.210	-0.150	0.640	1.020
2020/01/31 12:39:51.3	111.210	-0.180	0.750	1.040
2020/01/31 12:39:51.4	111.200	-0.210	0.860	1.060
2020/01/31 12:39:51.5	111.210	-0.230	0.960	1.080
2020/01/31 12:39:51.6	111.200	-0.260	1.050	1.100
2020/01/31 12:39:51.7	111.180	-0.280	1.130	1.120
2020/01/31 12:39:51.8	111.170	-0.300	1.200	1.140
2020/01/31 12:39:51.9	111.150	-0.310	1.260	1.160
2020/01/31 12:39:52.0	111.130	-0.330	1.320	1.170
2020/01/31 12:39:52.1	111.110	-0.340	1.360	1.180
2020/01/31 12:39:52.2	111.090	-0.340	1.390	1.190
2020/01/31 12:39:52.3	111.070	-0.350	1.410	1.200
2020/01/31 12:39:52.4	111.050	-0.350	1.420	1.210
2020/01/31 12:39:52.5	111.030	-0.340	1.420	1.210
2020/01/31 12:39:52.6	111.020	-0.340	1.410	1.210
2020/01/31 12:39:52.7	111.000	-0.330	1.390	1.200
2020/01/31 12:39:52.8	110.990	-0.320	1.360	1.190
2020/01/31 12:39:52.9	110.970	-0.300	1.320	1.180
2020/01/31 12:39:53.0	110.960	-0.280	1.270	1.160
2020/01/31 12:39:53.1	110.960	-0.260	1.210	1.140
2020/01/31 12:39:53.2	110.950	-0.230	1.140	1.120
2020/01/31 12:39:53.3	110.950	-0.210	1.060	1.090
2020/01/31 12:39:53.4	110.950	-0.180	0.980	1.060
2020/01/31 12:39:53.5	110.950	-0.140	0.880	1.020
2020/01/31 12:39:53.6	110.960	-0.110	0.790	0.980
2020/01/31 12:39:53.7	110.970	-0.080	0.690	0.940
2020/01/31 12:39:53.8	110.980	-0.040	0.580	0.900
2020/01/31 12:39:53.9	110.990	-0.000	0.470	0.860
2020/01/31 12:39:54.0	111.010	0.030	0.360	0.820
2020/01/31 12:39:54.1	111.030	0.070	0.240	0.770
2020/01/31 12:39:54.2	111.050	0.110	0.120	0.720
2020/01/31 12:39:54.3	111.070	0.140	0.010	0.680
2020/01/31 12:39:54.4	111.100	0.180	-0.110	0.630
2020/01/31 12:39:54.5	111.100	0.220	-0.220	0.580
2020/01/31 12:39:54.6	111.130	0.250	-0.340	0.530
2020/01/31 12:39:54.7	111.160	0.280	-0.450	0.490
2020/01/31 12:39:54.8	111.190	0.310	-0.550	0.440
2020/01/31 12:39:54.9	111.220	0.340	-0.650	0.390
2020/01/31 12:39:55.0	111.260	0.370	-0.750	0.350
2020/01/31 12:39:55.1	111.290	0.400	-0.840	0.310
2020/01/31 12:39:55.2	111.320	0.420	-0.930	0.270
2020/01/31 12:39:55.3	111.360	0.440	-1.000	0.230
2020/01/31 12:39:55.4	111.390	0.460	-1.070	0.190
2020/01/31 12:39:55.5	111.410	0.470	-1.140	0.150
2020/01/31 12:39:55.6	111.450	0.490	-1.200	0.110
2020/01/31 12:39:55.7	111.480	0.500	-1.240	0.080
2020/01/31 12:39:55.8	111.520	0.510	-1.280	0.060
2020/01/31 12:39:55.9	111.550	0.520	-1.320	0.030
2020/01/31 12:39:56.0	111.590	0.520	-1.340	0.010
2020/01/31 12:39:56.1	111.620	0.520	-1.360	-0.000
2020/01/31 12:39:56.2	111.660	0.520	-1.370	-0.020
2020/01/31 12:39:56.3	111.690	0.520	-1.370	-0.030
2020/01/31 12:39:56.4	111.720	0.510	-1.360	-0.030
2020/01/31 12:39:56.5	111.750	0.510	-1.340	-0.030
2020/01/31 12:39:56.6	111.770	0.500	-1.320	-0.020
2020/01/31 12:39:56.7	111.800	0.490	-1.300	-0.020
2020/01/31 12:39:56.8	111.830	0.470	-1.260	-0.000
2020/01/31 12:39:56.9	111.850	0.460	-1.220	0.010
2020/01/31 12:39:57.0	111.870	0.440	-1.180	0.040
2020/01/31 12:39:57.1	111.890	0.420	-1.130	0.060
2020/01/31 12:39:57.2	111.910	0.400	-1.080	0.090
2020/01/31 12:39:57.3	111.930	0.380	-1.020	0.130
2020/01/31 12:39:57.4	111.940	0.360	-0.960	0.160
2020/01/31 12:39:57.5	111.950	0.340	-0.900	0.200
2020/01/31 12:39:57.6	111.960	0.310	-0.830	0.250
2020/01/31 12:39:57.7	111.970	0.290	-0.770	0.300
2020/01/31 12:39:57.8	111.970	0.260	-0.700	0.350
2020/01/31 12:39:57.9	111.980	0.230	-0.630	0.400
2020/01/31 12:39:58.0	111.980	0.210	-0.560	0.460
2020/01/31 12:39:58.1	111.990	0.180	-0.490	0.520
2020/01/31 12:39:58.2	111.990	0.150	-0.420	0.580
2020/01/31 12:39:58.3	111.990	0.120	-0.350	0.650
2020/01/31 12:39:58.4	111.990	0.090	-0.290	0.710
2020/01/31 12:39:58.5	111.990	0.060	-0.220	0.780
2020/01/31 12:39:58.6	111.980	0.030	-0.160	0.850
2020/01/31 12:39:58.7	111.980	0.000	-0.100	0.920
2020/01/31 12:39:58.8	111.980	-0.030	-0.040	0.990
2020/01/31 12:39:58.9	111.970	-0.050	0.020	1.060
2020/01/31 12:39:59.0	111.960	-0.080	0.070	1.140
2020/01/31 12:39:59.1	111.960	-0.110	0.120	1.210
2020/01/31 12:39:59.2	111.950	-0.140	0.170	1.280
2020/01/31 12:39:59.3	111.940	-0.160	0.220	1.350
2020/01/31 12:39:59.4	111.930	-0.190	0.260	1.420
2020/01/31 12:39:59.5	111.940	-0.220	0.300	1.490
2020/01/31 12:39:59.6	111.930	-0.240	0.330	1.560
2020/01/31 12:39:59.7	111.920	-0.260	0.370	1.630
2020/01/31 12:39:59.8	111.910	-0.290	0.400	1.690
2020/01/31 12:39:59.9	111.910	-0.310	0.430	1.760
2020/01/31 12:40:00.0	111.900	-0.330	0.450	1.820
2020/01/31 12:40:00.1	111.900	-0.350	0.470	1.880
2020/01/31 12:40:00.2	111.890	-0.370	0.490	1.940
2020/01/31 12:40:00.3	111.890	-0.390	0.510	1.990
2020/01/31 12:40:00.4	111.890	-0.410	0.530	2.040
2020/01/31 12:40:00.5	111.910	-0.430	0.540	2.080
2020/01/31 12:40:00.6	111.910	-0.440	0.550	2.120
2020/01/31 12:40:00.7	111.920	-0.460	0.560	2.160
2020/01/31 12:40:00.8	111.920	-0.470	0.570	2.190
2020/01/31 12:40:00.9	111.930	-0.480	0.570	2.220
2020/01/31 12:40:01.0	111.940	-0.490	0.580	2.240
2020/01/31 12:40:01.1	111.950	-0.500	0.570	2.260
2020/01/31 12:40:01.2	111.960	-0.510	0.570	2.270
2020/01/31 12:40:01.3	111.980	-0.520	0.570	2.270
2020/01/31 12:40:01.4	111.990	-0.530	0.560	2.270
2020/01/31 12:40:01.5	112.020	-0.530	0.550	2.270
2020/01/31 12:40:01.6	112.040	-0.530	0.530	2.260
2020/01/31 12:40:01.7	112.060	-0.530	0.520	2.250
2020/01/31 12:40:01.8	112.090	-0.530	0.500	2.230
2020/01/31 12:40:01.9	112.110	-0.530	0.470	2.210
2020/01/31 12:40:02.0	112.130	-0.530	0.440	2.180
2020/01/31 12:40:02.1	112.160	-0.520	0.410	2.150
2020/01/31 12:40:02.2	112.190	-0.510	0.380	2.120
2020/01/31 12:40:02.3	112.210	-0.500	0.340	2.080
2020/01/31 12:40:02.4	112.240	-0.490	0.300	2.040
2020/01/31 12:40:02.5	112.260	-0.470	0.250	1.990
2020/01/31 12:40:02.6	112.290	-0.450	0.200	1.950
2020/01/31 12:40:02.7	112.310	-0.430	0.150	1.910
2020/01/31 12:40:02.8	112.330	-0.410	0.090	1.870
2020/01/31 12:40:02.9	112.360	-0.390	0.030	1.830
2020/01/31 12:40:03.0	112.380	-0.360	-0.030	1.780
2020/01/31 12:40:03.1	112.400	-0.330	-0.090	1.740
2020/01/31 12:40:03.2	112.420	-0.300	-0.160	1.700
2020/01/31 12:40:03.3	112.440	-0.270	-0.230	1.650
2020/01/31 12:40:03.4	112.460	-0.240	-0.290	1.610
2020/01/31 12:40:03.5	112.470	-0.200	-0.360	1.560
2020/01/31 12:40:03.6	112.490	-0.170	-0.420	1.520
2020/01/31 12:40:03.7	112.510	-0.130	-0.490	1.470
2020/01/31 12:40:03.8	112.530	-0.090	-0.550	1.430
2020/01/31 12:40:03.9	112.550	-0.050	-0.610	1.380
2020/01/31 12:40:04.0	112.560	-0.010	-0.670	1.340
2020/01/31 12:40:04.1	112.580	0.030	-0.730	1.300
2020/01/31 12:40:04.2	112.590	0.070	-0.780	1.250
2020/01/31 12:40:04.3	112.610	0.110	-0.820	1.210
2020/01/31 12:40:04.4	112.620	0.140	-0.870	1.170
2020/01/31 12:40:04.5	112.620	0.180	-0.910	1.130
2020/01/31 12:40:04.6	112.630	0.220	-0.940	1.090
2020/01/31 12:40:04.7	112.640	0.250	-0.970	1.050
2020/01/31 12:40:04.8	112.650	0.290	-0.990	1.010
2020/01/31 12:40:04.9	112.660	0.320	-1.010	0.970
2020/01/31 12:40:05.0	112.660	0.350	-1.020	0.930
2020/01/31 12:40:05.1	112.660	0.380	-1.020	0.890
2020/01/31 12:40:05.2	112.660	0.410	-1.020	0.860
2020/01/31 12:40:05.3	112.660	0.430	-1.020	0.820
2020/01/31 12:40:05.4	112.660	0.450	-1.000	0.790
2020/01/31 12:40:05.5	112.670	0.470	-0.980	0.760
2020/01/31 12:40:05.6	112.660	0.490	-0.960	0.720
2020/01/31 12:40:05.7	112.660	0.500	-0.930	0.690
2020/01/31 12:40:05.8	112.650	0.510	-0.900	0.660
2020/01/31 12:40:05.9	112.640	0.520	-0.860	0.640
2020/01/31 12:40:06.0	112.640	0.520	-0.820	0.610
2020/01/31 12:40:06.1	112.630	0.520	-0.780	0.580
2020/01/31 12:40:06.2	112.620	0.520	-0.730	0.550
2020/01/31 12:40:06.3	112.620	0.520	-0.670	0.530
2020/01/31 12:40:06.4	112.610	0.510	-0.620	0.500
2020/01/31 12:40:06.5	112.580	0.500	-0.560	0.480
2020/01/31 12:40:06.6	112.570	0.490	-0.500	0.460
2020/01/31 12:40:06.7	112.570	0.480	-0.430	0.430
2020/01/31 12:40:06.8	112.570	0.470	-0.370	0.410
2020/01/31 12:40:06.9	112.570	0.450	-0.300	0.390
2020/01/31 12:40:07.0	112.580	0.430	-0.230	0.360
2020/01/31 12:40:07.1	112.580	0.420	-0.160	0.340
2020/01/31 12:40:07.2	112.590	0.400	-0.090	0.320
2020/01/31 12:40:07.3	112.600	0.380	-0.020	0.300
2020/01/31 12:40:07.4	112.610	0.360	0.050	0.280
2020/01/31 12:40:07.5	112.640	0.330	0.120	0.260
2020/01/31 12:40:07.6	112.650	0.310	0.180	0.240
2020/01/31 12:40:07.7	112.670	0.290	0.250	0.220
2020/01/31 12:40:07.8	112.680	0.270	0.310	0.200
2020/01/31 12:40:07.9	112.700	0.250	0.370	0.180
2020/01/31 12:40:08.0	112.720	0.220	0.430	0.170
2020/01/31 12:40:08.1	112.740	0.200	0.480	0.150
2020/01/31 12:40:08.2	112.760	0.180	0.540	0.130
2020/01/31 12:40:08.3	112.780	0.160	0.580	0.120
2020/01/31 12:40:08.4	112.800	0.140	0.620	0.110
2020/01/31 12:40:08.5	112.800	0.120	0.660	0.100
2020/01/31 12:40:08.6	112.820	0.100	0.690	0.090
2020/01/31 12:40:08.7	112.840	0.090	0.720	0.080
2020/01/31 12:40:08.8	112.860	0.070	0.740	0.070
2020/01/31 12:40:08.9	112.880	0.050	0.750	0.070
2020/01/31 12:40:09.0	112.890	0.040	0.760	0.070
2020/01/31 12:40:09.1	112.910	0.030	0.760	0.070
2020/01/31 12:40:09.2	112.920	0.010	0.760	0.070
2020/01/31 12:40:09.3	112.940	0.000	0.750	0.070
2020/01/31 12:40:09.4	112.950	-0.010	0.730	0.080
2020/01/31 12:40:09.5	112.970	-0.020	0.710	0.090
2020/01/31 12:40:09.6	112.980	-0.030	0.680	0.100
2020/01/31 12:40:09.7	112.990	-0.040	0.640	0.120
2020/01/31 12:40:09.8	113.000	-0.050	0.610	0.140
2020/01/31 12:40:09.9	113.010	-0.050	0.560	0.160
2020/01/31 12:40:10.0	113.020	-0.060	0.510	0.180
2020/01/31 12:40:10.1	113.020	-0.060	0.460	0.210
2020/01/31 12:40:10.2	113.030	-0.070	0.410	0.240
2020/01/31 12:40:10.3	113.040	-0.070	0.350	0.280
2020/01/31 12:40:10.4	113.040	-0.070	0.290	0.310
2020/01/31 12:40:10.5	113.040	-0.080	0.220	0.350
2020/01/31 12:40:10.6	113.040	-0.080	0.160	0.400
2020/01/31 12:40:10.7	113.050	-0.080	0.090	0.440
2020/01/31 12:40:10.8	113.050	-0.080	0.030	0.490
2020/01/31 12:40:10.9	113.050	-0.080	-0.040	0.540
2020/01/31 12:40:11.0	113.050	-0.080	-0.100	0.600
2020/01/31 12:40:11.1	113.040	-0.080	-0.170	0.650
2020/01/31 12:40:11.2	113.040	-0.070	-0.230	0.710
2020/01/31 12:40:11.3	113.040	-0.070	-0.290	0.770
2020/01/31 12:40:11.4	113.030	-0.070	-0.350	0.840
2020/01/31 12:40:11.5	113.030	-0.070	-0.400	0.900
2020/01/31 12:40:11.6	113.030	-0.060	-0.460	0.970
2020/01/31 12:40:11.7	113.020	-0.060	-0.510	1.040
2020/01/31 12:40:11.8	113.020	-0.050	-0.560	1.100
2020/01/31 12:40:11.9	113.010	-0.050	-0.600	1.170
2020/01/31 12:40:12.0	113.000	-0.050	-0.650	1.240
2020/01/31 12:40:12.1	112.990	-0.040	-0.690	1.310
2020/01/31 12:40:12.2	112.980	-0.040	-0.720	1.380
2020/01/31 12:40:12.3	112.970	-0.030	-0.760	1.440
2020/01/31 12:40:12.4	112.970	-0.030	-0.790	1.510
2020/01/31 12:40:12.5	112.970	-0.020	-0.820	1.580
2020/01/31 12:40:12.6	112.960	-0.020	-0.850	1.640
2020/01/31 12:40:12.7	112.950	-0.010	-0.870	1.700
2020/01/31 12:40:12.8	112.940	-0.010	-0.890	1.760
2020/01/31 12:40:12.9	112.930	-0.000	-0.910	1.810
2020/01/31 12:40:13.0	112.920	0.000	-0.920	1.860
2020/01/31 12:40:13.1	112.920	0.010	-0.940	1.910
2020/01/31 12:40:13.2	112.910	0.010	-0.950	1.960
2020/01/31 12:40:13.3	112.910	0.020	-0.950	2.000
2020/01/31 12:40:13.4	112.900	0.020	-0.960	2.050
2020/01/31 12:40:13.5	112.890	0.030	-0.960	2.080
2020/01/31 12:40:13.6	112.890	0.030	-0.960	2.120
2020/01/31 12:40:13.7	112.890	0.040	-0.960	2.150
2020/01/31 12:40:13.8	112.890	0.040	-0.950	2.170
2020/01/31 12:40:13.9	112.890	0.050	-0.940	2.200
2020/01/31 12:40:14.0	112.890	0.050	-0.930	2.220
2020/01/31 12:40:14.1	112.890	0.060	-0.920	2.230
2020/01/31 12:40:14.2	112.890	0.060	-0.900	2.250
2020/01/31 12:40:14.3	112.890	0.060	-0.880	2.260
2020/01/31 12:40:14.4	112.900	0.070	-0.860	2.270
2020/01/31 12:40:14.5	112.910	0.070	-0.830	2.280
2020/01/31 12:40:14.6	112.910	0.070	-0.800	2.280
2020/01/31 12:40:14.7	112.920	0.070	-0.770	2.290
2020/01/31 12:40:14.8	112.920	0.070	-0.730	2.290
2020/01/31 12:40:14.9	112.930	0.070	-0.690	2.280
2020/01/31 12:40:15.0	112.930	0.070	-0.650	2.280
2020/01/31 12:40:15.1	112.940	0.070	-0.600	2.280
2020/01/31 12:40:15.2	112.940	0.070	-0.550	2.270
2020/01/31 12:40:15.3	112.950	0.070	-0.490	2.260
2020/01/31 12:40:15.4	112.950	0.060	-0.440	2.250
2020/01/31 12:40:15.5	112.960	0.060	-0.380	2.240
2020/01/31 12:40:15.6	112.960	0.050	-0.310	2.220
2020/01/31 12:40:15.7	112.970	0.050	-0.250	2.210
2020/01/31 12:40:15.8	112.970	0.040	-0.180	2.190
2020/01/31 12:40:15.9	112.980	0.030	-0.110	2.170
2020/01/31 12:40:16.0	112.990	0.020	-0.040	2.150
2020/01/31 12:40:16.1	112.990	0.010	0.030	2.130
2020/01/31 12:40:16.2	113.000	-0.010	0.100	2.100
2020/01/31 12:40:16.3	113.010	-0.020	0.170	2.070
2020/01/31 12:40:16.4	113.010	-0.030	0.240	2.040
2020/01/31 12:40:16.5	113.020	-0.050	0.310	2.000
2020/01/31 12:40:16.6	113.030	-0.060	0.380	1.960
2020/01/31 12:40:16.7	113.040	-0.080	0.440	1.920
2020/01/31 12:40:16.8	113.040	-0.100	0.500	1.880
2020/01/31 12:40:16.9	113.050	-0.110	0.560	1.830
2020/01/31 12:40:17.0	113.060	-0.130	0.610	1.780
2020/01/31 12:40:17.1	113.070	-0.150	0.660	1.730
2020/01/31 12:40:17.2	113.070	-0.170	0.710	1.670
2020/01/31 12:40:17.3	113.080	-0.180	0.740	1.610
2020/01/31 12:40:17.4	113.090	-0.200	0.780	1.550
2020/01/31 12:40:17.5	113.100	-0.220	0.800	1.480
2020/01/31 12:40:17.6	113.110	-0.230	0.820	1.420
2020/01/31 12:40:17.7	113.120	-0.250	0.830	1.340
2020/01/31 12:40:17.8	113.120	-0.260	0.840	1.270
2020/01/31 12:40:17.9	113.130	-0.270	0.830	1.190
2020/01/31 12:40:18.0	113.140	-0.280	0.820	1.120
2020/01/31 12:40:18.1	113.140	-0.290	0.800	1.040
2020/01/31 12:40:18.2	113.150	-0.290	0.780	0.950
2020/01/31 12:40:18.3	113.150	-0.300	0.750	0.870
2020/01/31 12:40:18.4	113.160	-0.300	0.710	0.790
2020/01/31 12:40:18.5	113.150	-0.300	0.660	0.690
2020/01/31 12:40:18.6	113.160	-0.300	0.610	0.610
2020/01/31 12:40:18.7	113.160	-0.290	0.550	0.520
2020/01/31 12:40:18.8	113.170	-0.290	0.490	0.440
2020/01/31 12:40:18.9	113.170	-0.280	0.420	0.350
2020/01/31 12:40:19.0	113.180	-0.270	0.350	0.270
2020/01/31 12:40:19.1	113.180	-0.260	0.270	0.190
2020/01/31 12:40:19.2	113.190	-0.240	0.190	0.110
2020/01/31 12:40:19.3	113.190	-0.230	0.110	0.040
2020/01/31 12:40:19.4	113.200	-0.210	0.030	-0.040
2020/01/31 12:40:19.5	113.200	-0.190	-0.060	-0.110
2020/01/31 12:40:19.6	113.200	-0.170	-0.140	-0.180
2020/01/31 12:40:19.7	113.210	-0.150	-0.220	-0.240
2020/01/31 12:40:19.8	113.220	-0.130	-0.300	-0.310
2020/01/31 12:40:19.9	113.220	-0.110	-0.380	-0.360
2020/01/31 12:40:20.0	113.230	-0.090	-0.450	-0.410
2020/01/31 12:40:20.1	113.240	-0.060	-0.520	-0.460
2020/01/31 12:40:20.2	113.240	-0.040	-0.590	-0.510
2020/01/31 12:40:20.3	113.250	-0.020	-0.650	-0.540
2020/01/31 12:40:20.4	113.250	0.000	-0.700	-0.580
2020/01/31 12:40:20.5	113.260	0.030	-0.760	-0.610
2020/01/31 12:40:20.6	113.270	0.050	-0.800	-0.640
2020/01/31 12:40:20.7	113.270	0.070	-0.840	-0.660
2020/01/31 12:40:20.8	113.270	0.090	-0.870	-0.680
2020/01/31 12:40:20.9	113.280	0.100	-0.890	-0.690
2020/01/31 12:40:21.0	113.280	0.120	-0.910	-0.700
2020/01/31 12:40:21.1	113.280	0.140	-0.920	-0.700
2020/01/31 12:40:21.2	113.280	0.150	-0.930	-0.700
2020/01/31 12:40:21.3	113.270	0.160	-0.930	-0.700
2020/01/31 12:40:21.4	113.270	0.170	-0.920	-0.690
2020/01/31 12:40:21.5	113.270	0.180	-0.910	-0.670
2020/01/31 12:40:21.6	113.270	0.190	-0.890	-0.660
2020/01/31 12:40:21.7	113.260	0.190	-0.860	-0.640
2020/01/31 12:40:21.8	113.260	0.200	-0.840	-0.620
2020/01/31 12:40:21.9	113.250	0.200	-0.800	-0.600
2020/01/31 12:40:22.0	113.250	0.200	-0.770	-0.580
2020/01/31 12:40:22.1	113.240	0.200	-0.730	-0.550
2020/01/31 12:40:22.2	113.230	0.200	-0.680	-0.520
2020/01/31 12:40:22.3	113.230	0.200	-0.640	-0.490
2020/01/31 12:40:22.4	113.220	0.190	-0.590	-0.460
2020/01/31 12:40:22.5	113.210	0.190	-0.540	-0.430
2020/01/31 12:40:22.6	113.210	0.180	-0.490	-0.390
2020/01/31 12:40:22.7	113.210	0.180	-0.440	-0.360
2020/01/31 12:40:22.8	113.200	0.170	-0.390	-0.320
2020/01/31 12:40:22.9	113.200	0.170	-0.340	-0.270
2020/01/31 12:40:23.0	113.190	0.160	-0.290	-0.230
2020/01/31 12:40:23.1	113.190	0.160	-0.240	-0.180
2020/01/31 12:40:23.2	113.190	0.150	-0.190	-0.140
2020/01/31 12:40:23.3	113.190	0.140	-0.150	-0.090
2020/01/31 12:40:23.4	113.180	0.140	-0.100	-0.040
2020/01/31 12:40:23.5	113.180	0.130	-0.070	0.020
2020/01/31 12:40:23.6	113.190	0.130	-0.030	0.070
2020/01/31 12:40:23.7	113.190	0.120	0.010	0.130
2020/01/31 12:40:23.8	113.190	0.120	0.050	0.180
2020/01/31 12:40:23.9	113.190	0.110	0.080	0.240
2020/01/31 12:40:24.0	113.190	0.110	0.110	0.290
2020/01/31 12:40:24.1	113.200	0.100	0.140	0.350
2020/01/31 12:40:24.2	113.210	0.100	0.170	0.400
2020/01/31 12:40:24.3	113.210	0.100	0.200	0.460
2020/01/31 12:40:24.4	113.220	0.090	0.220	0.510
2020/01/31 12:40:24.5	113.230	0.090	0.250	0.560
2020/01/31 12:40:24.6	113.240	0.090	0.260	0.610
2020/01/31 12:40:24.7	113.250	0.080	0.280	0.670
2020/01/31 12:40:24.8	113.270	0.080	0.290	0.710
2020/01/31 12:40:24.9	113.290	0.080	0.310	0.760
2020/01/31 12:40:25.0	113.300	0.070	0.310	0.810
2020/01/31 12:40:25.1	113.320	0.070	0.320	0.850
2020/01/31 12:40:25.2	113.340	0.070	0.320	0.890
2020/01/31 12:40:25.3	113.360	0.060	0.330	0.940
2020/01/31 12:40:25.4	113.380	0.060	0.320	0.980
2020/01/31 12:40:25.5	113.390	0.060	0.320	1.010
2020/01/31 12:40:25.6	113.410	0.060	0.310	1.050
2020/01/31 12:40:25.7	113.430	0.060	0.300	1.090
2020/01/31 12:40:25.8	113.450	0.050	0.280	1.120
2020/01/31 12:40:25.9	113.460	0.050	0.260	1.160
2020/01/31 12:40:26.0	113.480	0.050	0.250	1.190
2020/01/31 12:40:26.1	113.490	0.050	0.220	1.220
2020/01/31 12:40:26.2	113.510	0.050	0.200	1.260
2020/01/31 12:40:26.3	113.520	0.050	0.170	1.290
2020/01/31 12:40:26.4	113.530	0.050	0.140	1.320
2020/01/31 12:40:26.5	113.560	0.050	0.110	1.360
2020/01/31 12:40:26.6	113.570	0.050	0.080	1.390
2020/01/31 12:40:26.7	113.580	0.050	0.040	1.420
2020/01/31 12:40:26.8	113.590	0.050	0.010	1.460
2020/01/31 12:40:26.9	113.590	0.050	-0.030	1.500
2020/01/31 12:40:27.0	113.600	0.050	-0.060	1.530
2020/01/31 12:40:27.1	113.610	0.050	-0.100	1.570
2020/01/31 12:40:27.2	113.610	0.050	-0.130	1.610
2020/01/31 12:40:27.3	113.620	0.050	-0.170	1.640
2020/01/31 12:40:27.4	113.620	0.050	-0.200	1.680
2020/01/31 12:40:27.5	113.640	0.050	-0.240	1.720
2020/01/31 12:40:27.6	113.650	0.050	-0.270	1.760
2020/01/31 12:40:27.7	113.650	0.050	-0.300	1.810
2020/01/31 12:40:27.8	113.650	0.050	-0.330	1.850
2020/01/31 12:40:27.9	113.650	0.050	-0.360	1.890
2020/01/31 12:40:28.0	113.650	0.040	-0.390	1.930
2020/01/31 12:40:28.1	113.660	0.040	-0.410	1.970
2020/01/31 12:40:28.2	113.660	0.040	-0.440	2.010
2020/01/31 12:40:28.3	113.660	0.040	-0.460	2.050
2020/01/31 12:40:28.4	113.660	0.040	-0.480	2.090
2020/01/31 12:40:28.5	113.670	0.040	-0.500	2.120
2020/01/31 12:40:28.6	113.670	0.040	-0.520	2.150
2020/01/31 12:40:28.7	113.670	0.040	-0.530	2.190
2020/01/31 12:40:28.8	113.670	0.040	-0.540	2.220
2020/01/31 12:40:28.9	113.670	0.040	-0.550	2.240
2020/01/31 12:40:29.0	113.670	0.040	-0.560	2.270
2020/01/31 12:40:29.1	113.670	0.040	-0.570	2.290
2020/01/31 12:40:29.2	113.670	0.040	-0.570	2.310
2020/01/31 12:40:29.3	113.670	0.050	-0.580	2.330
2020/01/31 12:40:29.4	113.670	0.050	-0.580	2.340
2020/01/31 12:40:29.5	113.660	0.050	-0.580	2.350
2020/01/31 12:40:29.6	113.660	0.050	-0.580	2.360
2020/01/31 12:40:29.7	113.660	0.050	-0.570	2.360
2020/01/31 12:40:29.8	113.660	0.050	-0.560	2.370
2020/01/31 12:40:29.9	113.660	0.060	-0.560	2.360
2020/01/31 12:40:30.0	113.660	0.060	-0.540	2.360
2020/01/31 12:40:30.1	113.650	0.060	-0.530	2.350
2020/01/31 12:40:30.2	113.650	0.060	-0.520	2.350
2020/01/31 12:40:30.3	113.650	0.060	-0.500	2.330
2020/01/31 12:40:30.4	113.650	0.060	-0.480	2.320
2020/01/31 12:40:30.5	113.650	0.060	-0.460	2.300
2020/01/31 12:40:30.6	113.650	0.060	-0.440	2.280
2020/01/31 12:40:30.7	113.650	0.060	-0.410	2.260
2020/01/31 12:40:30.8	113.640	0.060	-0.390	2.230
2020/01/31 12:40:30.9	113.640	0.060	-0.360	2.210
2020/01/31 12:40:31.0	113.630	0.050	-0.330	2.180
2020/01/31 12:40:31.1	113.630	0.050	-0.300	2.150
2020/01/31 12:40:31.2	113.620	0.040	-0.270	2.110
2020/01/31 12:40:31.3	113.620	0.030	-0.230	2.080
2020/01/31 12:40:31.4	113.610	0.020	-0.200	2.040
2020/01/31 12:40:31.5	113.600	0.010	-0.170	2.000
2020/01/31 12:40:31.6	113.600	-0.000	-0.130	1.960
2020/01/31 12:40:31.7	113.590	-0.010	-0.100	1.920
2020/01/31 12:40:31.8	113.590	-0.030	-0.060	1.880
2020/01/31 12:40:31.9	113.580	-0.050	-0.030	1.830
2020/01/31 12:40:32.0	113.580	-0.060	0.000	1.780
2020/01/31 12:40:32.1	113.580	-0.080	0.040	1.740
2020/01/31 12:40:32.2	113.570	-0.100	0.070	1.690
2020/01/31 12:40:32.3	113.570	-0.120	0.100	1.640
2020/01/31 12:40:32.4	113.570	-0.140	0.120	1.580
2020/01/31 12:40:32.5	113.570	-0.170	0.150	1.530
2020/01/31 12:40:32.6	113.570	-0.190	0.170	1.470
2020/01/31 12:40:32.7	113.570	-0.210	0.200	1.420
2020/01/31 12:40:32.8	113.570	-0.240	0.210	1.360
2020/01/31 12:40:32.9	113.570	-0.260	0.230	1.310
2020/01/31 12:40:33.0	113.580	-0.280	0.240	1.250
2020/01/31 12:40:33.1	113.580	-0.310	0.250	1.190
2020/01/31 12:40:33.2	113.590	-0.330	0.260	1.130
2020/01/31 12:40:33.3	113.590	-0.350	0.270	1.080
2020/01/31 12:40:33.4	113.600	-0.370	0.270	1.020
2020/01/31 12:40:33.5	113.600	-0.400	0.270	0.950
2020/01/31 12:40:33.6	113.610	-0.420	0.260	0.900
2020/01/31 12:40:33.7	113.630	-0.440	0.250	0.840
2020/01/31 12:40:33.8	113.640	-0.450	0.240	0.780
2020/01/31 12:40:33.9	113.650	-0.470	0.230	0.720
2020/01/31 12:40:34.0	113.670	-0.480	0.210	0.660
2020/01/31 12:40:34.1	113.690	-0.500	0.190	0.600
2020/01/31 12:40:34.2	113.700	-0.510	0.160	0.540
2020/01/31 12:40:34.3	113.720	-0.510	0.140	0.480
2020/01/31 12:40:34.4	113.740	-0.520	0.110	0.420
2020/01/31 12:40:34.5	113.760	-0.530	0.080	0.370
2020/01/31 12:40:34.6	113.790	-0.530	0.050	0.310
2020/01/31 12:40:34.7	113.810	-0.530	0.020	0.260
2020/01/31 12:40:34.8	113.830	-0.520	-0.020	0.200
2020/01/31 12:40:34.9	113.850	-0.520	-0.050	0.150
2020/01/31 12:40:35.0	113.880	-0.510	-0.080	0.100
2020/01/31 12:40:35.1	113.900	-0.500	-0.110	0.050
2020/01/31 12:40:35.2	113.920	-0.480	-0.140	0.010
2020/01/31 12:40:35.3	113.940	-0.470	-0.170	-0.030
2020/01/31 12:40:35.4	113.960	-0.450	-0.200	-0.070
2020/01/31 12:40:35.5	113.970	-0.430	-0.230	-0.110
2020/01/31 12:40:35.6	113.990	-0.410	-0.250	-0.140
2020/01/31 12:40:35.7	114.010	-0.380	-0.280	-0.170
2020/01/31 12:40:35.8	114.020	-0.350	-0.300	-0.200
2020/01/31 12:40:35.9	114.030	-0.320	-0.320	-0.220
2020/01/31 12:40:36.0	114.040	-0.290	-0.340	-0.240
2020/01/31 12:40:36.1	114.050	-0.260	-0.350	-0.260
2020/01/31 12:40:36.2	114.050	-0.230	-0.370	-0.270
2020/01/31 12:40:36.3	114.060	-0.190	-0.380	-0.280
2020/01/31 12:40:36.4	114.060	-0.160	-0.390	-0.280
2020/01/31 12:40:36.5	114.040	-0.120	-0.390	-0.290
2020/01/31 12:40:36.6	114.040	-0.080	-0.400	-0.280
2020/01/31 12:40:36.7	114.030	-0.040	-0.400	-0.280
2020/01/31 12:40:36.8	114.010	-0.000	-0.400	-0.270
2020/01/31 12:40:36.9	114.000	0.040	-0.400	-0.260
2020/01/31 12:40:37.0	113.980	0.080	-0.400	-0.250
2020/01/31 12:40:37.1	113.960	0.110	-0.400	-0.240
2020/01/31 12:40:37.2	113.940	0.150	-0.400	-0.220
2020/01/31 12:40:37.3	113.920	0.190	-0.390	-0.200
2020/01/31 12:40:37.4	113.890	0.230	-0.390	-0.180
2020/01/31 12:40:37.5	113.870	0.260	-0.380	-0.150
2020/01/31 12:40:37.6	113.850	0.300	-0.380	-0.130
2020/01/31 12:40:37.7	113.820	0.330	-0.370	-0.100
2020/01/31 12:40:37.8	113.790	0.370	-0.360	-0.070
2020/01/31 12:40:37.9	113.770	0.400	-0.360	-0.050
2020/01/31 12:40:38.0	113.740	0.430	-0.350	-0.020
2020/01/31 12:40:38.1	113.720	0.450	-0.340	0.010
2020/01/31 12:40:38.2	113.690	0.480	-0.330	0.050
2020/01/31 12:40:38.3	113.670	0.500	-0.320	0.080
2020/01/31 12:40:38.4	113.650	0.520	-0.310	0.110
2020/01/31 12:40:38.5	113.640	0.540	-0.300	0.140
2020/01/31 12:40:38.6	113.620	0.550	-0.290	0.170
2020/01/31 12:40:38.7	113.610	0.570	-0.280	0.210
2020/01/31 12:40:38.8	113.600	0.580	-0.270	0.240
2020/01/31 12:40:38.9	113.590	0.580	-0.260	0.280
2020/01/31 12:40:39.0	113.590	0.590	-0.250	0.320
2020/01/31 12:40:39.1	113.590	0.590	-0.240	0.350
2020/01/31 12:40:39.2	113.590	0.590	-0.230	0.390
2020/01/31 12:40:39.3	113.590	0.590	-0.220	0.430
2020/01/31 12:40:39.4	113.600	0.580	-0.210	0.470
2020/01/31 12:40:39.5	113.600	0.580	-0.200	0.520
2020/01/31 12:40:39.6	113.610	0.570	-0.180	0.560
2020/01/31 12:40:39.7	113.620	0.550	-0.170	0.600
2020/01/31 12:40:39.8	113.640	0.540	-0.160	0.650
2020/01/31 12:40:39.9	113.650	0.520	-0.140	0.700
2020/01/31 12:40:40.0	113.670	0.500	-0.130	0.740
2020/01/31 12:40:40.1	113.690	0.480	-0.110	0.790
2020/01/31 12:40:40.2	113.700	0.460	-0.090	0.840
2020/01/31 12:40:40.3	113.720	0.440	-0.080	0.890
2020/01/31 12:40:40.4	113.740	0.410	-0.060	0.940
2020/01/31 12:40:40.5	113.760	0.390	-0.050	0.990
2020/01/31 12:40:40.6	113.780	0.360	-0.030	1.040
2020/01/31 12:40:40.7	113.800	0.330	-0.020	1.090
2020/01/31 12:40:40.8	113.810	0.310	-0.000	1.140
2020/01/31 12:40:40.9	113.830	0.280	0.010	1.200
2020/01/31 12:40:41.0	113.850	0.250	0.030	1.250
2020/01/31 12:40:41.1	113.860	0.220	0.040	1.300
2020/01/31 12:40:41.2	113.880	0.190	0.050	1.360
2020/01/31 12:40:41.3	113.890	0.170	0.060	1.410
2020/01/31 12:40:41.4	113.910	0.140	0.060	1.470
2020/01/31 12:40:41.5	113.910	0.110	0.070	1.530
2020/01/31 12:40:41.6	113.920	0.090	0.070	1.580
2020/01/31 12:40:41.7	113.930	0.060	0.080	1.640
2020/01/31 12:40:41.8	113.940	0.040	0.080	1.690
2020/01/31 12:40:41.9	113.940	0.010	0.070	1.740
2020/01/31 12:40:42.0	113.950	-0.010	0.070	1.790
2020/01/31 12:40:42.1	113.950	-0.030	0.070	1.840
2020/01/31 12:40:42.2	113.960	-0.050	0.060	1.890
2020/01/31 12:40:42.3	113.960	-0.070	0.050	1.940
2020/01/31 12:40:42.4	113.960	-0.090	0.040	1.980
2020/01/31 12:40:42.5	113.960	-0.100	0.020	2.020
2020/01/31 12:40:42.6	113.960	-0.120	0.010	2.060
2020/01/31 12:40:42.7	113.960	-0.130	-0.010	2.100
2020/01/31 12:40:42.8	113.960	-0.140	-0.020	2.130
2020/01/31 12:40:42.9	113.960	-0.150	-0.040	2.160
2020/01/31 12:40:43.0	113.960	-0.160	-0.060	2.190
2020/01/31 12:40:43.1	113.960	-0.170	-0.080	2.220
2020/01/31 12:40:43.2	113.960	-0.170	-0.100	2.250
2020/01/31 12:40:43.3	113.960	-0.180	-0.120	2.270
2020/01/31 12:40:43.4	113.950	-0.180	-0.150	2.290
2020/01/31 12:40:43.5	113.950	-0.180	-0.170	2.310
2020/01/31 12:40:43.6	113.950	-0.190	-0.190	2.330
2020/01/31 12:40:43.7	113.940	-0.190	-0.210	2.350
2020/01/31 12:40:43.8	113.940	-0.190	-0.230	2.360
2020/01/31 12:40:43.9	113.940	-0.190	-0.250	2.380
2020/01/31 12:40:44.0	113.930	-0.190	-0.260	2.390
2020/01/31 12:40:44.1	113.930	-0.190	-0.280	2.400
2020/01/31 12:40:44.2	113.920	-0.190	-0.300	2.410
2020/01/31 12:40:44.3	113.910	-0.190	-0.310	2.420
2020/01/31 12:40:44.4	113.910	-0.190	-0.320	2.440
2020/01/31 12:40:44.5	113.910	-0.190	-0.330	2.440
2020/01/31 12:40:44.6	113.900	-0.190	-0.330	2.450
2020/01/31 12:40:44.7	113.890	-0.190	-0.340	2.460
2020/01/31 12:40:44.8	113.890	-0.190	-0.340	2.470
2020/01/31 12:40:44.9	113.880	-0.190	-0.340	2.480
2020/01/31 12:40:45.0	113.870	-0.190	-0.340	2.490
2020/01/31 12:40:45.1	113.860	-0.200	-0.330	2.490
2020/01/31 12:40:45.2	113.860	-0.200	-0.330	2.500
2020/01/31 12:40:45.3	113.850	-0.200	-0.320	2.500
2020/01/31 12:40:45.4	113.840	-0.210	-0.310	2.500
2020/01/31 12:40:45.5	113.830	-0.210	-0.290	2.500
2020/01/31 12:40:45.6	113.820	-0.220	-0.280	2.500
2020/01/31 12:40:45.7	113.810	-0.230	-0.260	2.500
2020/01/31 12:40:45.8	113.800	-0.230	-0.250	2.500
2020/01/31 12:40:45.9	113.790	-0.240	-0.230	2.490
2020/01/31 12:40:46.0	113.780	-0.250	-0.210	2.480
2020/01/31 12:40:46.1	113.770	-0.250	-0.190	2.470
2020/01/31 12:40:46.2	113.760	-0.260	-0.170	2.460
2020/01/31 12:40:46.3	113.750	-0.270	-0.140	2.450
2020/01/31 12:40:46.4	113.740	-0.280	-0.120	2.430
2020/01/31 12:40:46.5	113.730	-0.280	-0.100	2.410
2020/01/31 12:40:46.6	113.720	-0.290	-0.080	2.380
2020/01/31 12:40:46.7	113.710	-0.300	-0.060	2.350
2020/01/31 12:40:46.8	113.700	-0.300	-0.040	2.320
2020/01/31 12:40:46.9	113.690	-0.310	-0.020	2.290
2020/01/31 12:40:47.0	113.680	-0.310	-0.000	2.250
2020/01/31 12:40:47.1	113.670	-0.320	0.020	2.210
2020/01/31 12:40:47.2	113.660	-0.320	0.030	2.160
2020/01/31 12:40:47.3	113.650	-0.320	0.050	2.110
2020/01/31 12:40:47.4	113.640	-0.320	0.060	2.050
2020/01/31 12:40:47.5	113.630	-0.320	0.080	1.990
2020/01/31 12:40:47.6	113.620	-0.320	0.090	1.930
2020/01/31 12:40:47.7	113.620	-0.320	0.090	1.860
2020/01/31 12:40:47.8	113.620	-0.310	0.100	1.790
2020/01/31 12:40:47.9	113.610	-0.300	0.100	1.710
2020/01/31 12:40:48.0	113.610	-0.300	0.100	1.630
2020/01/31 12:40:48.1	113.610	-0.290	0.100	1.550
2020/01/31 12:40:48.2	113.610	-0.280	0.090	1.460
2020/01/31 12:40:48.3	113.620	-0.260	0.080	1.370
2020/01/31 12:40:48.4	113.620	-0.250	0.060	1.280
2020/01/31 12:40:48.5	113.620	-0.230	0.040	1.180
2020/01/31 12:40:48.6	113.630	-0.210	0.020	1.090
2020/01/31 12:40:48.7	113.630	-0.190	-0.000	0.990
2020/01/31 12:40:48.8	113.640	-0.170	-0.030	0.890
2020/01/31 12:40:48.9	113.640	-0.150	-0.070	0.790
2020/01/31 12:40:49.0	113.650	-0.120	-0.100	0.690
2020/01/31 12:40:49.1	113.660	-0.090	-0.140	0.590
2020/01/31 12:40:49.2	113.670	-0.060	-0.190	0.500
2020/01/31 12:40:49.3	113.670	-0.040	-0.230	0.400
2020/01/31 12:40:49.4	113.680	-0.010	-0.280	0.300
2020/01/31 12:40:49.5	113.700	0.020	-0.330	0.210
2020/01/31 12:40:49.6	113.710	0.060	-0.380	0.120
2020/01/31 12:40:49.7	113.710	0.090	-0.430	0.030
2020/01/31 12:40:49.8	113.720	0.120	-0.480	-0.050
2020/01/31 12:40:49.9	113.730	0.150	-0.530	-0.130
2020/01/31 12:40:50.0	113.740	0.180	-0.570	-0.210
2020/01/31 12:40:50.1	113.740	0.210	-0.620	-0.290
2020/01/31 12:40:50.2	113.750	0.230	-0.660	-0.360
2020/01/31 12:40:50.3	113.760	0.260	-0.700	-0.430
2020/01/31 12:40:50.4	113.770	0.280	-0.730	-0.490
2020/01/31 12:40:50.5	113.790	0.310	-0.760	-0.550
2020/01/31 12:40:50.6	113.800	0.320	-0.790	-0.600
2020/01/31 12:40:50.7	113.800	0.340	-0.810	-0.650
2020/01/31 12:40:50.8	113.810	0.360	-0.830	-0.690
2020/01/31 12:40:50.9	113.820	0.370	-0.840	-0.730
2020/01/31 12:40:51.0	113.830	0.380	-0.840	-0.770
2020/01/31 12:40:51.1	113.840	0.380	-0.840	-0.800
2020/01/31 12:40:51.2	113.840	0.390	-0.830	-0.820
2020/01/31 12:40:51.3	113.850	0.390	-0.820	-0.840
2020/01/31 12:40:51.4	113.860	0.390	-0.800	-0.850
2020/01/31 12:40:51.5	113.880	0.380	-0.770	-0.850
2020/01/31 12:40:51.6	113.880	0.370	-0.740	-0.850
2020/01/31 12:40:51.7	113.890	0.370	-0.700	-0.840
2020/01/31 12:40:51.8	113.890	0.350	-0.660	-0.830
2020/01/31 12:40:51.9	113.900	0.340	-0.610	-0.810
2020/01/31 12:40:52.0	113.900	0.320	-0.560	-0.790
2020/01/31 12:40:52.1	113.900	0.310	-0.510	-0.760
2020/01/31 12:40:52.2	113.910	0.290	-0.450	-0.720
2020/01/31 12:40:52.3	113.910	0.260	-0.380	-0.680
2020/01/31 12:40:52.4	113.910	0.240	-0.320	-0.630
2020/01/31 12:40:52.5	113.910	0.220	-0.250	-0.580
2020/01/31 12:40:52.6	113.900	0.200	-0.180	-0.530
2020/01/31 12:40:52.7	113.900	0.170	-0.110	-0.470
2020/01/31 12:40:52.8	113.900	0.150	-0.040	-0.400
2020/01/31 12:40:52.9	113.890	0.120	0.030	-0.340
2020/01/31 12:40:53.0	113.890	0.100	0.090	-0.270
2020/01/31 12:40:53.1	113.880	0.070	0.160	-0.200
2020/01/31 12:40:53.2	113.870	0.050	0.230	-0.120
2020/01/31 12:40:53.3	113.870	0.030	0.290	-0.050
2020/01/31 12:40:53.4	113.860	0.000	0.350	0.030
2020/01/31 12:40:53.5	113.830	-0.020	0.410	0.110
2020/01/31 12:40:53.6	113.820	-0.040	0.460	0.190
2020/01/31 12:40:53.7	113.810	-0.060	0.510	0.260
2020/01/31 12:40:53.8	113.790	-0.080	0.550	0.340
2020/01/31 12:40:53.9	113.780	-0.100	0.590	0.420
2020/01/31 12:40:54.0	113.770	-0.110	0.630	0.490
2020/01/31 12:40:54.1	113.760	-0.130	0.650	0.570
2020/01/31 12:40:54.2	113.750	-0.140	0.680	0.640
2020/01/31 12:40:54.3	113.730	-0.150	0.690	0.720
2020/01/31 12:40:54.4	113.720	-0.160	0.700	0.790
2020/01/31 12:40:54.5	113.700	-0.170	0.710	0.860
2020/01/31 12:40:54.6	113.690	-0.170	0.710	0.930
2020/01/31 12:40:54.7	113.680	-0.180	0.700	0.990
2020/01/31 12:40:54.8	113.660	-0.180	0.690	1.060
2020/01/31 12:40:54.9	113.650	-0.180	0.670	1.130
2020/01/31 12:40:55.0	113.640	-0.190	0.650	1.200
2020/01/31 12:40:55.1	113.630	-0.190	0.630	1.260
2020/01/31 12:40:55.2	113.630	-0.180	0.600	1.330
2020/01/31 12:40:55.3	113.620	-0.180	0.560	1.400
2020/01/31 12:40:55.4	113.610	-0.180	0.530	1.460
2020/01/31 12:40:55.5	113.610	-0.180	0.480	1.530
2020/01/31 12:40:55.6	113.610	-0.170	0.440	1.600
2020/01/31 12:40:55.7	113.600	-0.170	0.390	1.670
2020/01/31 12:40:55.8	113.590	-0.160	0.350	1.730
2020/01/31 12:40:55.9	113.590	-0.150	0.300	1.800
2020/01/31 12:40:56.0	113.580	-0.150	0.250	1.880
2020/01/31 12:40:56.1	113.580	-0.140	0.200	1.950
2020/01/31 12:40:56.2	113.570	-0.130	0.150	2.020
2020/01/31 12:40:56.3	113.560	-0.120	0.090	2.100
2020/01/31 12:40:56.4	113.560	-0.110	0.040	2.170
2020/01/31 12:40:56.5	113.560	-0.100	-0.010	2.250
2020/01/31 12:40:56.6	113.550	-0.100	-0.060	2.320
2020/01/31 12:40:56.7	113.540	-0.090	-0.110	2.400
2020/01/31 12:40:56.8	113.530	-0.080	-0.160	2.470
2020/01/31 12:40:56.9	113.530	-0.070	-0.210	2.540
2020/01/31 12:40:57.0	113.520	-0.060	-0.260	2.610
2020/01/31 12:40:57.1	113.510	-0.050	-0.300	2.680
2020/01/31 12:40:57.2	113.510	-0.040	-0.350	2.740
2020/01/31 12:40:57.3	113.500	-0.030	-0.390	2.800
2020/01/31 12:40:57.4	113.500	-0.020	-0.430	2.860
2020/01/31 12:40:57.5	113.480	-0.010	-0.470	2.910
2020/01/31 12:40:57.6	113.480	-0.000	-0.510	2.960
2020/01/31 12:40:57.7	113.480	0.010	-0.540	3.000
2020/01/31 12:40:57.8	113.480	0.020	-0.570	3.040
2020/01/31 12:40:57.9	113.480	0.030	-0.600	3.070
2020/01/31 12:40:58.0	113.490	0.040	-0.630	3.090
2020/01/31 12:40:58.1	113.490	0.050	-0.660	3.110
2020/01/31 12:40:58.2	113.500	0.060	-0.680	3.130
2020/01/31 12:40:58.3	113.510	0.070	-0.710	3.130
2020/01/31 12:40:58.4	113.510	0.080	-0.730	3.140
2020/01/31 12:40:58.5	113.540	0.090	-0.750	3.130
2020/01/31 12:40:58.6	113.550	0.100	-0.760	3.130
2020/01/31 12:40:58.7	113.560	0.110	-0.780	3.120
2020/01/31 12:40:58.8	113.570	0.130	-0.790	3.100
2020/01/31 12:40:58.9	113.580	0.140	-0.800	3.080
2020/01/31 12:40:59.0	113.590	0.150	-0.810	3.060
2020/01/31 12:40:59.1	113.600	0.160	-0.820	3.030
2020/01/31 12:40:59.2	113.610	0.170	-0.830	3.000
2020/01/31 12:40:59.3	113.620	0.180	-0.830	2.970
2020/01/31 12:40:59.4	113.630	0.190	-0.840	2.940
2020/01/31 12:40:59.5	113.660	0.200	-0.840	2.900
2020/01/31 12:40:59.6	113.670	0.210	-0.830	2.870
2020/01/31 12:40:59.7	113.670	0.220	-0.830	2.830
2020/01/31 12:40:59.8	113.680	0.230	-0.830	2.790
2020/01/31 12:40:59.9	113.680	0.240	-0.820	2.750
2020/01/31 12:41:00.0	113.690	0.250	-0.810	2.710
2020/01/31 12:41:00.1	113.690	0.260	-0.800	2.680
2020/01/31 12:41:00.2	113.690	0.270	-0.780	2.630
2020/01/31 12:41:00.3	113.690	0.280	-0.770	2.590
2020/01/31 12:41:00.4	113.690	0.280	-0.750	2.550
2020/01/31 12:41:00.5	113.690	0.290	-0.730	2.510
2020/01/31 12:41:00.6	113.680	0.290	-0.710	2.470
2020/01/31 12:41:00.7	113.680	0.290	-0.680	2.430
2020/01/31 12:41:00.8	113.680	0.300	-0.650	2.390
2020/01/31 12:41:00.9	113.680	0.300	-0.620	2.340
2020/01/31 12:41:01.0	113.670	0.300	-0.580	2.300
2020/01/31 12:41:01.1	113.670	0.300	-0.550	2.260
2020/01/31 12:41:01.2	113.670	0.290	-0.510	2.220
2020/01/31 12:41:01.3	113.660	0.290	-0.470	2.180
2020/01/31 12:41:01.4	113.660	0.280	-0.430	2.140
2020/01/31 12:41:01.5	113.640	0.280	-0.380	2.090
2020/01/31 12:41:01.6	113.640	0.270	-0.330	2.050
2020/01/31 12:41:01.7	113.630	0.260	-0.290	2.010
2020/01/31 12:41:01.8	113.620	0.260	-0.240	1.970
2020/01/31 12:41:01.9	113.620	0.250	-0.190	1.930
2020/01/31 12:41:02.0	113.610	0.230	-0.140	1.880
2020/01/31 12:41:02.1	113.600	0.220	-0.100	1.840
2020/01/31 12:41:02.2	113.600	0.210	-0.050	1.800
2020/01/31 12:41:02.3	113.590	0.190	-0.000	1.750
2020/01/31 12:41:02.4	113.580	0.180	0.050	1.710
2020/01/31 12:41:02.5	113.590	0.160	0.090	1.660
2020/01/31 12:41:02.6	113.580	0.140	0.140	1.610
2020/01/31 12:41:02.7	113.570	0.120	0.180	1.560
2020/01/31 12:41:02.8	113.570	0.100	0.230	1.510
2020/01/31 12:41:02.9	113.560	0.080	0.270	1.460
2020/01/31 12:41:03.0	113.560	0.060	0.310	1.400
2020/01/31 12:41:03.1	113.550	0.030	0.350	1.350
2020/01/31 12:41:03.2	113.550	0.010	0.380	1.290
2020/01/31 12:41:03.3	113.540	-0.020	0.420	1.230
2020/01/31 12:41:03.4	113.540	-0.040	0.450	1.170
2020/01/31 12:41:03.5	113.540	-0.070	0.470	1.110
2020/01/31 12:41:03.6	113.530	-0.100	0.500	1.050
2020/01/31 12:41:03.7	113.530	-0.130	0.520	0.990
2020/01/31 12:41:03.8	113.520	-0.160	0.540	0.920
2020/01/31 12:41:03.9	113.520	-0.190	0.550	0.860
2020/01/31 12:41:04.0	113.520	-0.220	0.570	0.800
2020/01/31 12:41:04.1	113.510	-0.250	0.580	0.740
2020/01/31 12:41:04.2	113.500	-0.290	0.580	0.670
2020/01/31 12:41:04.3	113.500	-0.320	0.580	0.610
2020/01/31 12:41:04.4	113.490	-0.350	0.580	0.550
2020/01/31 12:41:04.5	113.480	-0.380	0.580	0.490
2020/01/31 12:41:04.6	113.470	-0.410	0.570	0.430
2020/01/31 12:41:04.7	113.460	-0.440	0.560	0.380
2020/01/31 12:41:04.8	113.450	-0.470	0.550	0.320
2020/01/31 12:41:04.9	113.440	-0.500	0.540	0.270
2020/01/31 12:41:05.0	113.430	-0.520	0.520	0.220
2020/01/31 12:41:05.1	113.420	-0.550	0.500	0.170
2020/01/31 12:41:05.2	113.410	-0.570	0.470	0.120
2020/01/31 12:41:05.3	113.400	-0.590	0.450	0.070
2020/01/31 12:41:05.4	113.390	-0.610	0.420	0.030
2020/01/31 12:41:05.5	113.360	-0.620	0.390	-0.020
2020/01/31 12:41:05.6	113.350	-0.640	0.360	-0.060
2020/01/31 12:41:05.7	113.340	-0.650	0.330	-0.090
2020/01/31 12:41:05.8	113.340	-0.660	0.300	-0.130
2020/01/31 12:41:05.9	113.330	-0.660	0.260	-0.160
2020/01/31 12:41:06.0	113.320	-0.660	0.220	-0.190
2020/01/31 12:41:06.1	113.310	-0.660	0.180	-0.220
2020/01/31 12:41:06.2	113.300	-0.660	0.140	-0.240
2020/01/31 12:41:06.3	113.300	-0.650	0.100	-0.270
2020/01/31 12:41:06.4	113.290	-0.640	0.050	-0.280
2020/01/31 12:41:06.5	113.290	-0.630	0.000	-0.300
2020/01/31 12:41:06.6	113.290	-0.610	-0.050	-0.310
2020/01/31 12:41:06.7	113.280	-0.590	-0.100	-0.310
2020/01/31 12:41:06.8	113.270	-0.560	-0.150	-0.320
2020/01/31 12:41:06.9	113.270	-0.540	-0.200	-0.310
2020/01/31 12:41:07.0	113.260	-0.510	-0.260	-0.310
2020/01/31 12:41:07.1	113.260	-0.470	-0.310	-0.300
2020/01/31 12:41:07.2	113.250	-0.440	-0.370	-0.290
2020/01/31 12:41:07.3	113.250	-0.400	-0.420	-0.270
2020/01/31 12:41:07.4	113.240	-0.360	-0.480	-0.260
2020/01/31 12:41:07.5	113.250	-0.310	-0.540	-0.230
2020/01/31 12:41:07.6	113.250	-0.270	-0.590	-0.200
2020/01/31 12:41:07.7	113.250	-0.220	-0.650	-0.170
2020/01/31 12:41:07.8	113.240	-0.170	-0.710	-0.140
2020/01/31 12:41:07.9	113.240	-0.130	-0.760	-0.100
2020/01/31 12:41:08.0	113.240	-0.080	-0.810	-0.060
2020/01/31 12:41:08.1	113.230	-0.030	-0.860	-0.020
2020/01/31 12:41:08.2	113.230	0.020	-0.910	0.020
2020/01/31 12:41:08.3	113.230	0.070	-0.950	0.070
2020/01/31 12:41:08.4	113.220	0.120	-0.990	0.120
2020/01/31 12:41:08.5	113.220	0.170	-1.020	0.170
2020/01/31 12:41:08.6	113.220	0.220	-1.060	0.230
2020/01/31 12:41:08.7	113.220	0.260	-1.080	0.280
2020/01/31 12:41:08.8	113.220	0.310	-1.110	0.340
2020/01/31 12:41:08.9	113.210	0.350	-1.120	0.400
2020/01/31 12:41:09.0	113.210	0.390	-1.130	0.460
2020/01/31 12:41:09.1	113.210	0.420	-1.140	0.520
2020/01/31 12:41:09.2	113.210	0.450	-1.130	0.580
2020/01/31 12:41:09.3	113.210	0.480	-1.130	0.640
2020/01/31 12:41:09.4	113.210	0.510	-1.110	0.700
2020/01/31 12:41:09.5	113.210	0.530	-1.090	0.760
2020/01/31 12:41:09.6	113.210	0.550	-1.060	0.820
2020/01/31 12:41:09.7	113.210	0.560	-1.030	0.880
2020/01/31 12:41:09.8	113.210	0.570	-0.980	0.940
2020/01/31 12:41:09.9	113.210	0.570	-0.940	1.000
2020/01/31 12:41:10.0	113.210	0.570	-0.880	1.070
2020/01/31 12:41:10.1	113.210	0.570	-0.820	1.130
2020/01/31 12:41:10.2	113.210	0.560	-0.760	1.190
2020/01/31 12:41:10.3	113.210	0.550	-0.690	1.250
2020/01/31 12:41:10.4	113.210	0.530	-0.610	1.310
2020/01/31 12:41:10.5	113.200	0.510	-0.530	1.380
2020/01/31 12:41:10.6	113.200	0.490	-0.450	1.440
2020/01/31 12:41:10.7	113.200	0.460	-0.370	1.500
2020/01/31 12:41:10.8	113.200	0.430	-0.290	1.560
2020/01/31 12:41:10.9	113.190	0.400	-0.200	1.620
2020/01/31 12:41:11.0	113.190	0.370	-0.120	1.680
2020/01/31 12:41:11.1	113.180	0.330	-0.040	1.750
2020/01/31 12:41:11.2	113.180	0.290	0.050	1.810
2020/01/31 12:41:11.3	113.170	0.250	0.130	1.860
2020/01/31 12:41:11.4	113.170	0.210	0.210	1.920
2020/01/31 12:41:11.5	113.150	0.170	0.290	1.980
2020/01/31 12:41:11.6	113.150	0.130	0.360	2.040
2020/01/31 12:41:11.7	113.140	0.090	0.430	2.090
2020/01/31 12:41:11.8	113.130	0.050	0.500	2.150
2020/01/31 12:41:11.9	113.120	0.010	0.560	2.200
2020/01/31 12:41:12.0	113.110	-0.030	0.610	2.250
2020/01/31 12:41:12.1	113.100	-0.060	0.660	2.300
2020/01/31 12:41:12.2	113.090	-0.100	0.710	2.340
2020/01/31 12:41:12.3	113.080	-0.130	0.750	2.380
2020/01/31 12:41:12.4	113.060	-0.160	0.780	2.420
2020/01/31 12:41:12.5	113.050	-0.190	0.810	2.460
2020/01/31 12:41:12.6	113.040	-0.220	0.830	2.500
2020/01/31 12:41:12.7	113.030	-0.240	0.840	2.530
2020/01/31 12:41:12.8	113.010	-0.260	0.850	2.560
2020/01/31 12:41:12.9	113.000	-0.270	0.850	2.580
2020/01/31 12:41:13.0	112.990	-0.280	0.840	2.600
2020/01/31 12:41:13.1	112.980	-0.290	0.830	2.620
2020/01/31 12:41:13.2	112.960	-0.300	0.820	2.630
2020/01/31 12:41:13.3	112.950	-0.300	0.790	2.640
2020/01/31 12:41:13.4	112.940	-0.300	0.770	2.640
2020/01/31 12:41:13.5	112.940	-0.300	0.730	2.640
2020/01/31 12:41:13.6	112.930	-0.290	0.690	2.640
2020/01/31 12:41:13.7	112.920	-0.280	0.650	2.630
2020/01/31 12:41:13.8	112.910	-0.270	0.600	2.620
2020/01/31 12:41:13.9	112.900	-0.260	0.550	2.610
2020/01/31 12:41:14.0	112.890	-0.240	0.490	2.590
2020/01/31 12:41:14.1	112.880	-0.220	0.440	2.570
2020/01/31 12:41:14.2	112.870	-0.200	0.380	2.550
2020/01/31 12:41:14.3	112.860	-0.170	0.310	2.520
2020/01/31 12:41:14.4	112.850	-0.150	0.250	2.500
2020/01/31 12:41:14.5	112.840	-0.120	0.190	2.460
2020/01/31 12:41:14.6	112.840	-0.090	0.120	2.430
2020/01/31 12:41:14.7	112.830	-0.070	0.050	2.390
2020/01/31 12:41:14.8	112.820	-0.040	-0.020	2.360
2020/01/31 12:41:14.9	112.810	-0.010	-0.080	2.320
2020/01/31 12:41:15.0	112.790	0.030	-0.150	2.280
2020/01/31 12:41:15.1	112.780	0.060	-0.220	2.240
2020/01/31 12:41:15.2	112.770	0.090	-0.280	2.200
2020/01/31 12:41:15.3	112.760	0.120	-0.350	2.160
2020/01/31 12:41:15.4	112.750	0.150	-0.410	2.110
2020/01/31 12:41:15.5	112.740	0.180	-0.470	2.060
2020/01/31 12:41:15.6	112.730	0.210	-0.530	2.020
2020/01/31 12:41:15.7	112.720	0.240	-0.590	1.970
2020/01/31 12:41:15.8	112.700	0.270	-0.650	1.930
2020/01/31 12:41:15.9	112.690	0.290	-0.700	1.880
2020/01/31 12:41:16.0	112.680	0.320	-0.750	1.840
2020/01/31 12:41:16.1	112.670	0.340	-0.790	1.790
2020/01/31 12:41:16.2	112.670	0.360	-0.830	1.740
2020/01/31 12:41:16.3	112.660	0.380	-0.870	1.700
2020/01/31 12:41:16.4	112.650	0.400	-0.900	1.650
2020/01/31 12:41:16.5	112.650	0.410	-0.930	1.600
2020/01/31 12:41:16.6	112.640	0.430	-0.960	1.550
2020/01/31 12:41:16.7	112.640	0.440	-0.980	1.510
2020/01/31 12:41:16.8	112.640	0.440	-0.990	1.460
2020/01/31 12:41:16.9	112.640	0.450	-1.000	1.410
2020/01/31 12:41:17.0	112.640	0.450	-1.010	1.360
2020/01/31 12:41:17.1	112.640	0.450	-1.010	1.310
2020/01/31 12:41:17.2	112.640	0.450	-1.000	1.270
2020/01/31 12:41:17.3	112.650	0.440	-0.990	1.220
2020/01/31 12:41:17.4	112.650	0.440	-0.980	1.180
2020/01/31 12:41:17.5	112.660	0.430	-0.950	1.130
2020/01/31 12:41:17.6	112.670	0.410	-0.930	1.080
2020/01/31 12:41:17.7	112.670	0.400	-0.900	1.040
2020/01/31 12:41:17.8	112.680	0.380	-0.860	1.000
2020/01/31 12:41:17.9	112.680	0.360	-0.830	0.960
2020/01/31 12:41:18.0	112.680	0.340	-0.790	0.920
2020/01/31 12:41:18.1	112.690	0.320	-0.740	0.890
2020/01/31 12:41:18.2	112.690	0.300	-0.700	0.850
2020/01/31 12:41:18.3	112.690	0.270	-0.650	0.820
2020/01/31 12:41:18.4	112.690	0.240	-0.590	0.800
2020/01/31 12:41:18.5	112.680	0.220	-0.540	0.770
2020/01/31 12:41:18.6	112.680	0.190	-0.490	0.750
2020/01/31 12:41:18.7	112.680	0.160	-0.430	0.730
2020/01/31 12:41:18.8	112.680	0.130	-0.380	0.710
2020/01/31 12:41:18.9	112.670	0.100	-0.320	0.700
2020/01/31 12:41:19.0	112.660	0.070	-0.270	0.690
2020/01/31 12:41:19.1	112.660	0.040	-0.210	0.680
2020/01/31 12:41:19.2	112.650	0.000	-0.160	0.670
2020/01/31 12:41:19.3	112.640	-0.030	-0.110	0.670
2020/01/31 12:41:19.4	112.620	-0.060	-0.060	0.670
2020/01/31 12:41:19.5	112.600	-0.090	-0.000	0.660
2020/01/31 12:41:19.6	112.590	-0.120	0.040	0.670
2020/01/31 12:41:19.7	112.570	-0.150	0.090	0.670
2020/01/31 12:41:19.8	112.560	-0.190	0.130	0.680
2020/01/31 12:41:19.9	112.540	-0.220	0.170	0.690
2020/01/31 12:41:20.0	112.520	-0.250	0.210	0.700
2020/01/31 12:41:20.1	112.500	-0.280	0.250	0.720
2020/01/31 12:41:20.2	112.480	-0.310	0.290	0.730
2020/01/31 12:41:20.3	112.460	-0.340	0.320	0.750
2020/01/31 12:41:20.4	112.440	-0.370	0.350	0.760
2020/01/31 12:41:20.5	112.420	-0.390	0.370	0.780
2020/01/31 12:41:20.6	112.400	-0.420	0.400	0.800
2020/01/31 12:41:20.7	112.380	-0.450	0.420	0.820
2020/01/31 12:41:20.8	112.360	-0.470	0.440	0.840
2020/01/31 12:41:20.9	112.330	-0.490	0.460	0.860
2020/01/31 12:41:21.0	112.310	-0.520	0.470	0.880
2020/01/31 12:41:21.1	112.290	-0.540	0.480	0.900
2020/01/31 12:41:21.2	112.270	-0.560	0.490	0.920
2020/01/31 12:41:21.3	112.240	-0.580	0.500	0.940
2020/01/31 12:41:21.4	112.220	-0.590	0.510	0.970
2020/01/31 12:41:21.5	112.200	-0.610	0.510	0.990
2020/01/31 12:41:21.6	112.180	-0.620	0.510	1.010
2020/01/31 12:41:21.7	112.160	-0.630	0.510	1.040
2020/01/31 12:41:21.8	112.140	-0.640	0.510	1.060
2020/01/31 12:41:21.9	112.110	-0.650	0.500	1.080
2020/01/31 12:41:22.0	112.090	-0.650	0.490	1.110
2020/01/31 12:41:22.1	112.070	-0.650	0.480	1.130
2020/01/31 12:41:22.2	112.060	-0.660	0.460	1.160
2020/01/31 12:41:22.3	112.040	-0.650	0.440	1.190
2020/01/31 12:41:22.4	112.020	-0.650	0.420	1.210
2020/01/31 12:41:22.5	112.010	-0.640	0.400	1.240
2020/01/31 12:41:22.6	111.990	-0.640	0.370	1.260
2020/01/31 12:41:22.7	111.980	-0.630	0.340	1.290
2020/01/31 12:41:22.8	111.960	-0.610	0.310	1.310
2020/01/31 12:41:22.9	111.950	-0.600	0.270	1.340
2020/01/31 12:41:23.0	111.930	-0.580	0.230	1.360
2020/01/31 12:41:23.1	111.920	-0.560	0.190	1.390
2020/01/31 12:41:23.2	111.910	-0.540	0.150	1.410
2020/01/31 12:41:23.3	111.900	-0.520	0.100	1.430
2020/01/31 12:41:23.4	111.900	-0.500	0.060	1.450
2020/01/31 12:41:23.5	111.900	-0.470	0.010	1.470
2020/01/31 12:41:23.6	111.890	-0.440	-0.040	1.490
2020/01/31 12:41:23.7	111.890	-0.410	-0.090	1.500
2020/01/31 12:41:23.8	111.890	-0.380	-0.150	1.520
2020/01/31 12:41:23.9	111.890	-0.350	-0.200	1.530
2020/01/31 12:41:24.0	111.890	-0.310	-0.260	1.530
2020/01/31 12:41:24.1	111.890	-0.280	-0.310	1.540
2020/01/31 12:41:24.2	111.890	-0.240	-0.370	1.540
2020/01/31 12:41:24.3	111.900	-0.210	-0.420	1.530
2020/01/31 12:41:24.4	111.910	-0.170	-0.480	1.530
2020/01/31 12:41:24.5	111.930	-0.130	-0.530	1.520
2020/01/31 12:41:24.6	111.930	-0.090	-0.580	1.510
2020/01/31 12:41:24.7	111.940	-0.050	-0.630	1.490
2020/01/31 12:41:24.8	111.960	-0.010	-0.680	1.470
2020/01/31 12:41:24.9	111.970	0.030	-0.720	1.450
2020/01/31 12:41:25.0	111.980	0.070	-0.770	1.430
2020/01/31 12:41:25.1	111.990	0.110	-0.810	1.410
2020/01/31 12:41:25.2	112.010	0.150	-0.840	1.390
2020/01/31 12:41:25.3	112.020	0.190	-0.870	1.360
2020/01/31 12:41:25.4	112.030	0.230	-0.900	1.340
2020/01/31 12:41:25.5	112.030	0.270	-0.930	1.320
2020/01/31 12:41:25.6	112.050	0.310	-0.950	1.300
2020/01/31 12:41:25.7	112.060	0.350	-0.960	1.280
2020/01/31 12:41:25.8	112.060	0.380	-0.970	1.260
2020/01/31 12:41:25.9	112.070	0.420	-0.980	1.240
2020/01/31 12:41:26.0	112.080	0.450	-0.980	1.230
2020/01/31 12:41:26.1	112.080	0.480	-0.980	1.220
2020/01/31 12:41:26.2	112.080	0.520	-0.970	1.210
2020/01/31 12:41:26.3	112.080	0.540	-0.960	1.200
2020/01/31 12:41:26.4	112.080	0.570	-0.940	1.200
2020/01/31 12:41:26.5	112.070	0.600	-0.920	1.200
2020/01/31 12:41:26.6	112.060	0.620	-0.900	1.200
2020/01/31 12:41:26.7	112.060	0.640	-0.870	1.210
2020/01/31 12:41:26.8	112.050	0.660	-0.840	1.220
2020/01/31 12:41:26.9	112.040	0.680	-0.800	1.230
2020/01/31 12:41:27.0	112.030	0.690	-0.760	1.250
2020/01/31 12:41:27.1	112.010	0.710	-0.720	1.260
2020/01/31 12:41:27.2	112.000	0.710	-0.670	1.280
2020/01/31 12:41:27.3	111.980	0.720	-0.630	1.300
2020/01/31 12:41:27.4	111.960	0.730	-0.580	1.330
2020/01/31 12:41:27.5	111.930	0.730	-0.520	1.350
2020/01/31 12:41:27.6	111.910	0.730	-0.470	1.380
2020/01/31 12:41:27.7	111.890	0.720	-0.420	1.400
2020/01/31 12:41:27.8	111.860	0.720	-0.360	1.430
2020/01/31 12:41:27.9	111.840	0.710	-0.310	1.460
2020/01/31 12:41:28.0	111.810	0.700	-0.250	1.480
2020/01/31 12:41:28.1	111.780	0.690	-0.190	1.510
2020/01/31 12:41:28.2	111.750	0.670	-0.140	1.530
2020/01/31 12:41:28.3	111.720	0.650	-0.080	1.560
2020/01/31 12:41:28.4	111.690	0.630	-0.030	1.580
2020/01/31 12:41:28.5	111.680	0.610	0.030	1.600
2020/01/31 12:41:28.6	111.640	0.580	0.080	1.620
2020/01/31 12:41:28.7	111.610	0.560	0.130	1.630
2020/01/31 12:41:28.8	111.580	0.530	0.180	1.650
2020/01/31 12:41:28.9	111.550	0.500	0.230	1.660
2020/01/31 12:41:29.0	111.510	0.470	0.280	1.670
2020/01/31 12:41:29.1	111.480	0.430	0.320	1.680
2020/01/31 12:41:29.2	111.450	0.400	0.370	1.680
2020/01/31 12:41:29.3	111.420	0.360	0.410	1.680
2020/01/31 12:41:29.4	111.390	0.330	0.440	1.680
2020/01/31 12:41:29.5	111.360	0.290	0.480	1.680
2020/01/31 12:41:29.6	111.330	0.250	0.510	1.680
2020/01/31 12:41:29.7	111.310	0.210	0.540	1.670
2020/01/31 12:41:29.8	111.280	0.170	0.570	1.660
2020/01/31 12:41:29.9	111.260	0.130	0.590	1.640
2020/01/31 12:41:30.0	111.240	0.090	0.620	1.630
2020/01/31 12:41:30.1	111.210	0.060	0.630	1.610
2020/01/31 12:41:30.2	111.200	0.020	0.650	1.590
2020/01/31 12:41:30.3	111.180	-0.020	0.660	1.570
2020/01/31 12:41:30.4	111.170	-0.060	0.670	1.550
2020/01/31 12:41:30.5	111.150	-0.100	0.680	1.530
2020/01/31 12:41:30.6	111.140	-0.130	0.680	1.500
2020/01/31 12:41:30.7	111.130	-0.170	0.680	1.480
2020/01/31 12:41:30.8	111.120	-0.200	0.680	1.450
2020/01/31 12:41:30.9	111.120	-0.230	0.670	1.430
2020/01/31 12:41:31.0	111.120	-0.260	0.660	1.400
2020/01/31 12:41:31.1	111.120	-0.290	0.650	1.370
2020/01/31 12:41:31.2	111.120	-0.320	0.630	1.340
2020/01/31 12:41:31.3	111.130	-0.350	0.610	1.310
2020/01/31 12:41:31.4	111.130	-0.370	0.580	1.290
2020/01/31 12:41:31.5	111.140	-0.390	0.550	1.260
2020/01/31 12:41:31.6	111.150	-0.410	0.520	1.230
2020/01/31 12:41:31.7	111.160	-0.420	0.480	1.200
2020/01/31 12:41:31.8	111.180	-0.440	0.440	1.170
2020/01/31 12:41:31.9	111.190	-0.450	0.390	1.150
2020/01/31 12:41:32.0	111.210	-0.460	0.340	1.120
2020/01/31 12:41:32.1	111.230	-0.460	0.290	1.090
2020/01/31 12:41:32.2	111.240	-0.470	0.240	1.070
2020/01/31 12:41:32.3	111.260	-0.470	0.180	1.040
2020/01/31 12:41:32.4	111.280	-0.470	0.120	1.020
2020/01/31 12:41:32.5	111.280	-0.470	0.060	0.990
2020/01/31 12:41:32.6	111.300	-0.460	-0.000	0.970
2020/01/31 12:41:32.7	111.320	-0.450	-0.070	0.950
2020/01/31 12:41:32.8	111.340	-0.440	-0.130	0.920
2020/01/31 12:41:32.9	111.360	-0.430	-0.200	0.900
2020/01/31 12:41:33.0	111.370	-0.420	-0.270	0.880
2020/01/31 12:41:33.1	111.390	-0.400	-0.340	0.860
2020/01/31 12:41:33.2	111.410	-0.390	-0.410	0.840
2020/01/31 12:41:33.3	111.420	-0.370	-0.470	0.830
2020/01/31 12:41:33.4	111.440	-0.350	-0.540	0.810
2020/01/31 12:41:33.5	111.450	-0.330	-0.610	0.800
2020/01/31 12:41:33.6	111.460	-0.310	-0.670	0.790
2020/01/31 12:41:33.7	111.470	-0.280	-0.730	0.780
2020/01/31 12:41:33.8	111.480	-0.260	-0.790	0.770
2020/01/31 12:41:33.9	111.480	-0.230	-0.840	0.760
2020/01/31 12:41:34.0	111.490	-0.210	-0.890	0.760
2020/01/31 12:41:34.1	111.490	-0.180	-0.940	0.760
2020/01/31 12:41:34.2	111.490	-0.160	-0.980	0.760
2020/01/31 12:41:34.3	111.480	-0.130	-1.020	0.760
2020/01/31 12:41:34.4	111.480	-0.110	-1.050	0.770
2020/01/31 12:41:34.5	111.440	-0.080	-1.080	0.780
2020/01/31 12:41:34.6	111.430	-0.060	-1.100	0.790
2020/01/31 12:41:34.7	111.420	-0.030	-1.120	0.810
2020/01/31 12:41:34.8	111.400	-0.010	-1.130	0.830
2020/01/31 12:41:34.9	111.380	0.010	-1.130	0.850
2020/01/31 12:41:35.0	111.370	0.040	-1.130	0.880
2020/01/31 12:41:35.1	111.340	0.060	-1.120	0.900
2020/01/31 12:41:35.2	111.320	0.080	-1.110	0.930
2020/01/31 12:41:35.3	111.300	0.090	-1.090	0.970
2020/01/31 12:41:35.4	111.270	0.110	-1.070	1.010
2020/01/31 12:41:35.5	111.240	0.130	-1.040	1.050
2020/01/31 12:41:35.6	111.210	0.140	-1.000	1.090
2020/01/31 12:41:35.7	111.170	0.160	-0.960	1.140
2020/01/31 12:41:35.8	111.140	0.170	-0.920	1.190
2020/01/31 12:41:35.9	111.100	0.180	-0.880	1.240
2020/01/31 12:41:36.0	111.060	0.190	-0.830	1.290
2020/01/31 12:41:36.1	111.030	0.190	-0.770	1.350
2020/01/31 12:41:36.2	110.990	0.200	-0.720	1.400
2020/01/31 12:41:36.3	110.940	0.200	-0.660	1.460
2020/01/31 12:41:36.4	110.900	0.200	-0.600	1.520
2020/01/31 12:41:36.5	110.860	0.210	-0.530	1.580
2020/01/31 12:41:36.6	110.820	0.210	-0.470	1.630
2020/01/31 12:41:36.7	110.780	0.200	-0.410	1.690
2020/01/31 12:41:36.8	110.740	0.200	-0.350	1.740
2020/01/31 12:41:36.9	110.700	0.200	-0.290	1.790
2020/01/31 12:41:37.0	110.660	0.190	-0.220	1.840
2020/01/31 12:41:37.1	110.620	0.180	-0.160	1.880
2020/01/31 12:41:37.2	110.580	0.170	-0.110	1.920
2020/01/31 12:41:37.3	110.550	0.170	-0.050	1.960
2020/01/31 12:41:37.4	110.510	0.150	0.010	2.000
2020/01/31 12:41:37.5	110.490	0.140	0.060	2.030
2020/01/31 12:41:37.6	110.460	0.130	0.110	2.050
2020/01/31 12:41:37.7	110.430	0.120	0.160	2.070
2020/01/31 12:41:37.8	110.410	0.100	0.200	2.090
2020/01/31 12:41:37.9	110.380	0.090	0.240	2.100
2020/01/31 12:41:38.0	110.360	0.070	0.280	2.100
2020/01/31 12:41:38.1	110.340	0.050	0.320	2.100
2020/01/31 12:41:38.2	110.320	0.040	0.350	2.090
2020/01/31 12:41:38.3	110.300	0.020	0.380	2.080
2020/01/31 12:41:38.4	110.280	-0.000	0.410	2.060
2020/01/31 12:41:38.5	110.270	-0.020	0.430	2.040
2020/01/31 12:41:38.6	110.260	-0.040	0.450	2.020
2020/01/31 12:41:38.7	110.260	-0.060	0.470	1.980
2020/01/31 12:41:38.8	110.250	-0.080	0.490	1.950
2020/01/31 12:41:38.9	110.250	-0.100	0.500	1.900
2020/01/31 12:41:39.0	110.250	-0.120	0.510	1.860
2020/01/31 12:41:39.1	110.260	-0.140	0.520	1.810
2020/01/31 12:41:39.2	110.260	-0.160	0.520	1.760
2020/01/31 12:41:39.3	110.270	-0.180	0.520	1.700
2020/01/31 12:41:39.4	110.280	-0.200	0.520	1.640
2020/01/31 12:41:39.5	110.310	-0.220	0.520	1.580
2020/01/31 12:41:39.6	110.320	-0.230	0.510	1.520
2020/01/31 12:41:39.7	110.340	-0.250	0.500	1.460
2020/01/31 12:41:39.8	110.350	-0.260	0.490	1.390
2020/01/31 12:41:39.9	110.370	-0.270	0.470	1.330
2020/01/31 12:41:40.0	110.390	-0.280	0.450	1.270
2020/01/31 12:41:40.1	110.410	-0.290	0.430	1.200
2020/01/31 12:41:40.2	110.430	-0.300	0.410	1.140
2020/01/31 12:41:40.3	110.450	-0.300	0.380	1.080
2020/01/31 12:41:40.4	110.460	-0.310	0.350	1.030
2020/01/31 12:41:40.5	110.480	-0.310	0.320	0.960
2020/01/31 12:41:40.6	110.500	-0.300	0.280	0.910
2020/01/31 12:41:40.7	110.520	-0.300	0.250	0.860
2020/01/31 12:41:40.8	110.530	-0.300	0.210	0.810
2020/01/31 12:41:40.9	110.550	-0.290	0.170	0.770
2020/01/31 12:41:41.0	110.570	-0.280	0.130	0.730
2020/01/31 12:41:41.1	110.590	-0.270	0.090	0.690
2020/01/31 12:41:41.2	110.610	-0.260	0.050	0.650
2020/01/31 12:41:41.3	110.620	-0.240	0.010	0.620
2020/01/31 12:41:41.4	110.640	-0.230	-0.040	0.580
2020/01/31 12:41:41.5	110.640	-0.210	-0.080	0.560
2020/01/31 12:41:41.6	110.660	-0.190	-0.120	0.530
2020/01/31 12:41:41.7	110.670	-0.170	-0.160	0.510
2020/01/31 12:41:41.8	110.680	-0.150	-0.200	0.480
2020/01/31 12:41:41.9	110.690	-0.130	-0.240	0.470
2020/01/31 12:41:42.0	110.690	-0.110	-0.280	0.450
2020/01/31 12:41:42.1	110.700	-0.080	-0.320	0.430
2020/01/31 12:41:42.2	110.700	-0.060	-0.360	0.420
2020/01/31 12:41:42.3	110.700	-0.030	-0.400	0.410
2020/01/31 12:41:42.4	110.700	-0.010	-0.430	0.400
2020/01/31 12:41:42.5	110.690	0.020	-0.470	0.400
2020/01/31 12:41:42.6	110.690	0.040	-0.500	0.390
2020/01/31 12:41:42.7	110.680	0.070	-0.530	0.390
2020/01/31 12:41:42.8	110.680	0.090	-0.550	0.390
2020/01/31 12:41:42.9	110.670	0.120	-0.580	0.390
2020/01/31 12:41:43.0	110.660	0.140	-0.600	0.390
2020/01/31 12:41:43.1	110.640	0.160	-0.620	0.400
2020/01/31 12:41:43.2	110.630	0.190	-0.640	0.400
2020/01/31 12:41:43.3	110.610	0.210	-0.650	0.410
2020/01/31 12:41:43.4	110.590	0.230	-0.660	0.430
2020/01/31 12:41:43.5	110.580	0.250	-0.670	0.440
2020/01/31 12:41:43.6	110.560	0.270	-0.680	0.460
2020/01/31 12:41:43.7	110.540	0.290	-0.680	0.480
2020/01/31 12:41:43.8	110.520	0.300	-0.680	0.500
2020/01/31 12:41:43.9	110.490	0.320	-0.680	0.520
2020/01/31 12:41:44.0	110.470	0.330	-0.680	0.540
2020/01/31 12:41:44.1	110.440	0.340	-0.670	0.570
2020/01/31 12:41:44.2	110.420	0.350	-0.660	0.600
2020/01/31 12:41:44.3	110.390	0.350	-0.650	0.630
2020/01/31 12:41:44.4	110.360	0.360	-0.640	0.660
2020/01/31 12:41:44.5	110.350	0.360	-0.620	0.700
2020/01/31 12:41:44.6	110.320	0.360	-0.600	0.740
2020/01/31 12:41:44.7	110.300	0.360	-0.580	0.770
2020/01/31 12:41:44.8	110.270	0.350	-0.560	0.820
2020/01/31 12:41:44.9	110.250	0.350	-0.530	0.860
2020/01/31 12:41:45.0	110.220	0.340	-0.500	0.900
2020/01/31 12:41:45.1	110.200	0.330	-0.470	0.950
2020/01/31 12:41:45.2	110.180	0.310	-0.440	1.000
2020/01/31 12:41:45.3	110.160	0.300	-0.400	1.050
2020/01/31 12:41:45.4	110.140	0.280	-0.370	1.090
2020/01/31 12:41:45.5	110.100	0.270	-0.330	1.140
2020/01/31 12:41:45.6	110.080	0.250	-0.290	1.200
2020/01/31 12:41:45.7	110.070	0.230	-0.250	1.250
2020/01/31 12:41:45.8	110.050	0.210	-0.200	1.300
2020/01/31 12:41:45.9	110.040	0.190	-0.160	1.340
2020/01/31 12:41:46.0	110.020	0.160	-0.120	1.390
2020/01/31 12:41:46.1	110.010	0.140	-0.070	1.440
2020/01/31 12:41:46.2	110.000	0.120	-0.030	1.480
2020/01/31 12:41:46.3	109.990	0.090	0.020	1.530
2020/01/31 12:41:46.4	109.990	0.070	0.060	1.570
2020/01/31 12:41:46.5	109.980	0.040	0.110	1.600
2020/01/31 12:41:46.6	109.980	0.020	0.150	1.640
2020/01/31 12:41:46.7	109.970	-0.010	0.190	1.670
2020/01/31 12:41:46.8	109.970	-0.030	0.230	1.700
2020/01/31 12:41:46.9	109.980	-0.050	0.270	1.720
2020/01/31 12:41:47.0	109.980	-0.080	0.300	1.740
2020/01/31 12:41:47.1	109.980	-0.100	0.330	1.760
2020/01/31 12:41:47.2	109.990	-0.120	0.360	1.780
2020/01/31 12:41:47.3	109.990	-0.140	0.380	1.790
2020/01/31 12:41:47.4	110.000	-0.150	0.400	1.800
2020/01/31 12:41:47.5	110.000	-0.170	0.420	1.800
2020/01/31 12:41:47.6	110.000	-0.180	0.430	1.800
2020/01/31 12:41:47.7	110.010	-0.190	0.430	1.800
2020/01/31 12:41:47.8	110.020	-0.200	0.430	1.800
2020/01/31 12:41:47.9	110.020	-0.210	0.430	1.790
2020/01/31 12:41:48.0	110.030	-0.220	0.420	1.780
2020/01/31 12:41:48.1	110.040	-0.220	0.400	1.770
2020/01/31 12:41:48.2	110.040	-0.220	0.380	1.750
2020/01/31 12:41:48.3	110.050	-0.220	0.360	1.730
2020/01/31 12:41:48.4	110.050	-0.220	0.320	1.710
2020/01/31 12:41:48.5	110.070	-0.210	0.290	1.690
2020/01/31 12:41:48.6	110.070	-0.210	0.250	1.670
2020/01/31 12:41:48.7	110.070	-0.200	0.200	1.640
2020/01/31 12:41:48.8	110.080	-0.190	0.160	1.610
2020/01/31 12:41:48.9	110.080	-0.180	0.110	1.580
2020/01/31 12:41:49.0	110.080	-0.160	0.060	1.550
2020/01/31 12:41:49.1	110.080	-0.150	0.010	1.520
2020/01/31 12:41:49.2	110.070	-0.130	-0.050	1.490
2020/01/31 12:41:49.3	110.070	-0.110	-0.100	1.460
2020/01/31 12:41:49.4	110.070	-0.090	-0.160	1.430
2020/01/31 12:41:49.5	110.060	-0.070	-0.210	1.400
2020/01/31 12:41:49.6	110.060	-0.060	-0.270	1.380
2020/01/31 12:41:49.7	110.050	-0.040	-0.320	1.350
2020/01/31 12:41:49.8	110.040	-0.020	-0.370	1.330
2020/01/31 12:41:49.9	110.030	0.000	-0.420	1.320
2020/01/31 12:41:50.0	110.020	0.020	-0.460	1.300
2020/01/31 12:41:50.1	110.010	0.040	-0.500	1.290
2020/01/31 12:41:50.2	109.990	0.060	-0.540	1.280
2020/01/31 12:41:50.3	109.980	0.070	-0.570	1.270
2020/01/31 12:41:50.4	109.970	0.090	-0.600	1.270
2020/01/31 12:41:50.5	109.960	0.100	-0.630	1.270
2020/01/31 12:41:50.6	109.940	0.110	-0.650	1.270
2020/01/31 12:41:50.7	109.930	0.120	-0.660	1.280
2020/01/31 12:41:50.8	109.910	0.130	-0.680	1.280
2020/01/31 12:41:50.9	109.900	0.140	-0.680	1.290
2020/01/31 12:41:51.0	109.890	0.150	-0.680	1.300
2020/01/31 12:41:51.1	109.870	0.150	-0.680	1.310
2020/01/31 12:41:51.2	109.860	0.150	-0.670	1.320
2020/01/31 12:41:51.3	109.850	0.150	-0.660	1.340
2020/01/31 12:41:51.4	109.850	0.150	-0.650	1.350
2020/01/31 12:41:51.5	109.840	0.140	-0.630	1.360
2020/01/31 12:41:51.6	109.830	0.140	-0.610	1.370
2020/01/31 12:41:51.7	109.830	0.130	-0.580	1.380
2020/01/31 12:41:51.8	109.820	0.120	-0.560	1.390
2020/01/31 12:41:51.9	109.820	0.110	-0.530	1.400
2020/01/31 12:41:52.0	109.820	0.100	-0.500	1.400
2020/01/31 12:41:52.1	109.820	0.090	-0.470	1.410
2020/01/31 12:41:52.2	109.820	0.080	-0.430	1.410
2020/01/31 12:41:52.3	109.820	0.060	-0.400	1.410
2020/01/31 12:41:52.4	109.820	0.050	-0.370	1.410
2020/01/31 12:41:52.5	109.820	0.030	-0.340	1.410
2020/01/31 12:41:52.6	109.820	0.020	-0.300	1.410
2020/01/31 12:41:52.7	109.820	0.000	-0.270	1.400
2020/01/31 12:41:52.8	109.820	-0.010	-0.240	1.390
2020/01/31 12:41:52.9	109.820	-0.020	-0.210	1.380
2020/01/31 12:41:53.0	109.830	-0.040	-0.190	1.370
2020/01/31 12:41:53.1	109.830	-0.050	-0.160	1.360
2020/01/31 12:41:53.2	109.830	-0.060	-0.140	1.340
2020/01/31 12:41:53.3	109.830	-0.080	-0.110	1.320
2020/01/31 12:41:53.4	109.830	-0.090	-0.090	1.310
2020/01/31 12:41:53.5	109.850	-0.090	-0.070	1.280
2020/01/31 12:41:53.6	109.850	-0.100	-0.060	1.260
2020/01/31 12:41:53.7	109.850	-0.110	-0.040	1.240
2020/01/31 12:41:53.8	109.850	-0.120	-0.030	1.220
2020/01/31 12:41:53.9	109.850	-0.120	-0.020	1.200
2020/01/31 12:41:54.0	109.850	-0.120	-0.010	1.170
2020/01/31 12:41:54.1	109.850	-0.130	-0.010	1.150
2020/01/31 12:41:54.2	109.850	-0.130	-0.010	1.130
2020/01/31 12:41:54.3	109.850	-0.130	-0.000	1.100
2020/01/31 12:41:54.4	109.850	-0.120	-0.000	1.080
2020/01/31 12:41:54.5	109.850	-0.120	-0.010	1.060
2020/01/31 12:41:54.6	109.850	-0.120	-0.010	1.040
2020/01/31 12:41:54.7	109.850	-0.110	-0.020	1.020
2020/01/31 12:41:54.8	109.850	-0.110	-0.020	1.000
2020/01/31 12:41:54.9	109.840	-0.100	-0.030	0.980
2020/01/31 12:41:55.0	109.840	-0.100	-0.040	0.970
2020/01/31 12:41:55.1	109.840	-0.090	-0.040	0.950
2020/01/31 12:41:55.2	109.840	-0.080	-0.050	0.940
2020/01/31 12:41:55.3	109.830	-0.080	-0.060	0.920
2020/01/31 12:41:55.4	109.830	-0.070	-0.070	0.910
2020/01/31 12:41:55.5	109.830	-0.070	-0.070	0.900
2020/01/31 12:41:55.6	109.830	-0.060	-0.080	0.890
2020/01/31 12:41:55.7	109.830	-0.060	-0.090	0.880
2020/01/31 12:41:55.8	109.840	-0.060	-0.090	0.870
2020/01/31 12:41:55.9	109.840	-0.050	-0.100	0.860
2020/01/31 12:41:56.0	109.840	-0.050	-0.100	0.860
2020/01/31 12:41:56.1	109.850	-0.050	-0.100	0.850
2020/01/31 12:41:56.2	109.860	-0.050	-0.100	0.850
2020/01/31 12:41:56.3	109.860	-0.060	-0.100	0.850
2020/01/31 12:41:56.4	109.870	-0.060	-0.090	0.850
2020/01/31 12:41:56.5	109.880	-0.060	-0.080	0.860
2020/01/31 12:41:56.6	109.880	-0.070	-0.080	0.860
2020/01/31 12:41:56.7	109.890	-0.070	-0.070	0.870
2020/01/31 12:41:56.8	109.900	-0.080	-0.060	0.880
2020/01/31 12:41:56.9	109.900	-0.090	-0.040	0.890
2020/01/31 12:41:57.0	109.910	-0.100	-0.030	0.910
2020/01/31 12:41:57.1	109.910	-0.110	-0.010	0.920
2020/01/31 12:41:57.2	109.920	-0.120	0.010	0.940
2020/01/31 12:41:57.3	109.920	-0.130	0.020	0.950
2020/01/31 12:41:57.4	109.920	-0.140	0.040	0.970
2020/01/31 12:41:57.5	109.910	-0.150	0.060	0.990
2020/01/31 12:41:57.6	109.910	-0.160	0.080	1.010
2020/01/31 12:41:57.7	109.910	-0.170	0.100	1.030
2020/01/31 12:41:57.8	109.910	-0.180	0.120	1.050
2020/01/31 12:41:57.9	109.910	-0.180	0.140	1.070
2020/01/31 12:41:58.0	109.910	-0.190	0.150	1.090
2020/01/31 12:41:58.1	109.910	-0.200	0.170	1.110
2020/01/31 12:41:58.2	109.910	-0.210	0.180	1.130
2020/01/31 12:41:58.3	109.910	-0.210	0.200	1.150
2020/01/31 12:41:58.4	109.910	-0.220	0.210	1.160
2020/01/31 12:41:58.5	109.910	-0.220	0.220	1.170
2020/01/31 12:41:58.6	109.910	-0.220	0.220	1.180
2020/01/31 12:41:58.7	109.910	-0.220	0.230	1.190
2020/01/31 12:41:58.8	109.910	-0.220	0.230	1.200
2020/01/31 12:41:58.9	109.910	-0.220	0.230	1.200
2020/01/31 12:41:59.0	109.910	-0.210	0.220	1.210
2020/01/31 12:41:59.1	109.920	-0.210	0.220	1.210
2020/01/31 12:41:59.2	109.920	-0.200	0.210	1.210
2020/01/31 12:41:59.3	109.920	-0.190	0.190	1.200
2020/01/31 12:41:59.4	109.920	-0.180	0.180	1.200
2020/01/31 12:41:59.5	109.920	-0.170	0.160	1.190
2020/01/31 12:41:59.6	109.920	-0.150	0.130	1.190
2020/01/31 12:41:59.7	109.920	-0.140	0.110	1.180
2020/01/31 12:41:59.8	109.920	-0.120	0.080	1.170
2020/01/31 12:41:59.9	109.920	-0.110	0.050	1.160
2020/01/31 12:42:00.0	109.910	-0.090	0.020	1.160
2020/01/31 12:42:00.1	109.910	-0.070	-0.010	1.150
2020/01/31 12:42:00.2	109.900	-0.050	-0.050	1.140
2020/01/31 12:42:00.3	109.890	-0.020	-0.090	1.130
2020/01/31 12:42:00.4	109.880	-0.000	-0.130	1.130
2020/01/31 12:42:00.5	109.860	0.020	-0.170	1.120
2020/01/31 12:42:00.6	109.850	0.050	-0.210	1.120
2020/01/31 12:42:00.7	109.830	0.070	-0.250	1.110
2020/01/31 12:42:00.8	109.810	0.100	-0.290	1.110
2020/01/31 12:42:00.9	109.790	0.130	-0.340	1.100
2020/01/31 12:42:01.0	109.770	0.150	-0.380	1.100
2020/01/31 12:42:01.1	109.750	0.180	-0.420	1.100
2020/01/31 12:42:01.2	109.730	0.200	-0.460	1.100
2020/01/31 12:42:01.3	109.710	0.230	-0.500	1.100
2020/01/31 12:42:01.4	109.690	0.250	-0.530	1.110
2020/01/31 12:42:01.5	109.680	0.270	-0.560	1.110
2020/01/31 12:42:01.6	109.660	0.290	-0.590	1.120
2020/01/31 12:42:01.7	109.640	0.310	-0.620	1.130
2020/01/31 12:42:01.8	109.620	0.330	-0.640	1.130
2020/01/31 12:42:01.9	109.600	0.350	-0.660	1.140
2020/01/31 12:42:02.0	109.590	0.360	-0.680	1.150
2020/01/31 12:42:02.1	109.570	0.380	-0.690	1.160
2020/01/31 12:42:02.2	109.560	0.390	-0.700	1.170
2020/01/31 12:42:02.3	109.550	0.400	-0.700	1.180
2020/01/31 12:42:02.4	109.550	0.410	-0.700	1.180
2020/01/31 12:42:02.5	109.540	0.410	-0.700	1.190
2020/01/31 12:42:02.6	109.540	0.420	-0.690	1.200
2020/01/31 12:42:02.7	109.540	0.420	-0.680	1.210
2020/01/31 12:42:02.8	109.550	0.420	-0.660	1.220
2020/01/31 12:42:02.9	109.550	0.420	-0.640	1.220
2020/01/31 12:42:03.0	109.560	0.410	-0.620	1.230
2020/01/31 12:42:03.1	109.570	0.410	-0.600	1.230
2020/01/31 12:42:03.2	109.590	0.400	-0.570	1.230
2020/01/31 12:42:03.3	109.600	0.400	-0.550	1.230
2020/01/31 12:42:03.4	109.620	0.390	-0.520	1.230
2020/01/31 12:42:03.5	109.650	0.380	-0.490	1.230
2020/01/31 12:42:03.6	109.670	0.370	-0.460	1.230
2020/01/31 12:42:03.7	109.690	0.360	-0.430	1.230
2020/01/31 12:42:03.8	109.710	0.350	-0.400	1.220
2020/01/31 12:42:03.9	109.730	0.330	-0.370	1.220
2020/01/31 12:42:04.0	109.750	0.320	-0.350	1.210
2020/01/31 12:42:04.1	109.770	0.310	-0.320	1.210
2020/01/31 12:42:04.2	109.800	0.290	-0.290	1.200
2020/01/31 12:42:04.3	109.820	0.280	-0.270	1.190
2020/01/31 12:42:04.4	109.840	0.270	-0.250	1.180
2020/01/31 12:42:04.5	109.850	0.250	-0.230	1.180
2020/01/31 12:42:04.6	109.870	0.240	-0.210	1.170
2020/01/31 12:42:04.7	109.880	0.220	-0.190	1.170
2020/01/31 12:42:04.8	109.900	0.210	-0.170	1.160
2020/01/31 12:42:04.9	109.920	0.190	-0.160	1.150
2020/01/31 12:42:05.0	109.930	0.180	-0.140	1.150
2020/01/31 12:42:05.1	109.940	0.160	-0.130	1.150
2020/01/31 12:42:05.2	109.950	0.150	-0.120	1.150
2020/01/31 12:42:05.3	109.960	0.130	-0.110	1.140
2020/01/31 12:42:05.4	109.970	0.110	-0.090	1.140
2020/01/31 12:42:05.5	109.970	0.100	-0.080	1.140
2020/01/31 12:42:05.6	109.980	0.080	-0.080	1.150
2020/01/31 12:42:05.7	109.980	0.060	-0.070	1.150
2020/01/31 12:42:05.8	109.990	0.050	-0.060	1.160
2020/01/31 12:42:05.9	109.990	0.030	-0.050	1.160
2020/01/31 12:42:06.0	109.990	0.010	-0.040	1.170
2020/01/31 12:42:06.1	110.000	-0.010	-0.030	1.180
2020/01/31 12:42:06.2	110.000	-0.030	-0.020	1.200
2020/01/31 12:42:06.3	109.990	-0.050	-0.010	1.210
2020/01/31 12:42:06.4	109.990	-0.070	-0.010	1.230
2020/01/31 12:42:06.5	109.990	-0.090	0.000	1.250
2020/01/31 12:42:06.6	109.990	-0.100	0.010	1.270
2020/01/31 12:42:06.7	109.980	-0.120	0.020	1.290
2020/01/31 12:42:06.8	109.970	-0.140	0.020	1.320
2020/01/31 12:42:06.9	109.960	-0.160	0.020	1.350
2020/01/31 12:42:07.0	109.950	-0.180	0.030	1.380
2020/01/31 12:42:07.1	109.930	-0.200	0.030	1.410
2020/01/31 12:42:07.2	109.910	-0.220	0.030	1.440
2020/01/31 12:42:07.3	109.890	-0.230	0.030	1.480
2020/01/31 12:42:07.4	109.870	-0.250	0.030	1.520
2020/01/31 12:42:07.5	109.840	-0.260	0.020	1.560
2020/01/31 12:42:07.6	109.820	-0.280	0.020	1.600
2020/01/31 12:42:07.7	109.790	-0.290	0.010	1.640
2020/01/31 12:42:07.8	109.760	-0.310	0.010	1.670
2020/01/31 12:42:07.9	109.740	-0.320	0.000	1.710
2020/01/31 12:42:08.0	109.710	-0.330	-0.000	1.750
2020/01/31 12:42:08.1	109.680	-0.340	-0.010	1.790
2020/01/31 12:42:08.2	109.650	-0.350	-0.020	1.820
2020/01/31 12:42:08.3	109.620	-0.360	-0.030	1.850
2020/01/31 12:42:08.4	109.590	-0.370	-0.030	1.880
2020/01/31 12:42:08.5	109.570	-0.380	-0.030	1.900
2020/01/31 12:42:08.6	109.550	-0.390	-0.040	1.920
2020/01/31 12:42:08.7	109.520	-0.390	-0.040	1.940
2020/01/31 12:42:08.8	109.500	-0.400	-0.050	1.960
2020/01/31 12:42:08.9	109.480	-0.400	-0.050	1.970
2020/01/31 12:42:09.0	109.460	-0.400	-0.050	1.980
2020/01/31 12:42:09.1	109.440	-0.400	-0.050	1.990
2020/01/31 12:42:09.2	109.430	-0.400	-0.050	1.990
2020/01/31 12:42:09.3	109.410	-0.400	-0.050	1.990
2020/01/31 12:42:09.4	109.400	-0.400	-0.050	1.980
2020/01/31 12:42:09.5	109.410	-0.400	-0.040	1.980
2020/01/31 12:42:09.6	109.400	-0.400	-0.040	1.960
2020/01/31 12:42:09.7	109.400	-0.400	-0.030	1.950
2020/01/31 12:42:09.8	109.400	-0.390	-0.020	1.930
2020/01/31 12:42:09.9	109.400	-0.390	-0.010	1.910
2020/01/31 12:42:10.0	109.400	-0.380	0.000	1.880
2020/01/31 12:42:10.1	109.400	-0.380	0.010	1.850
2020/01/31 12:42:10.2	109.410	-0.370	0.030	1.820
2020/01/31 12:42:10.3	109.420	-0.360	0.040	1.790
2020/01/31 12:42:10.4	109.430	-0.360	0.050	1.760
2020/01/31 12:42:10.5	109.440	-0.350	0.060	1.710
2020/01/31 12:42:10.6	109.460	-0.340	0.080	1.670
2020/01/31 12:42:10.7	109.470	-0.330	0.090	1.630
2020/01/31 12:42:10.8	109.490	-0.320	0.100	1.590
2020/01/31 12:42:10.9	109.500	-0.310	0.110	1.540
2020/01/31 12:42:11.0	109.520	-0.290	0.110	1.490
2020/01/31 12:42:11.1	109.540	-0.280	0.120	1.440
2020/01/31 12:42:11.2	109.560	-0.270	0.120	1.390
2020/01/31 12:42:11.3	109.580	-0.250	0.120	1.340
2020/01/31 12:42:11.4	109.600	-0.240	0.120	1.290
2020/01/31 12:42:11.5	109.610	-0.230	0.110	1.230
2020/01/31 12:42:11.6	109.630	-0.210	0.100	1.180
2020/01/31 12:42:11.7	109.660	-0.190	0.090	1.120
2020/01/31 12:42:11.8	109.680	-0.170	0.080	1.060
2020/01/31 12:42:11.9	109.700	-0.160	0.060	1.000
2020/01/31 12:42:12.0	109.730	-0.140	0.040	0.940
2020/01/31 12:42:12.1	109.750	-0.120	0.020	0.880
2020/01/31 12:42:12.2	109.780	-0.100	-0.010	0.820
2020/01/31 12:42:12.3	109.800	-0.070	-0.040	0.760
2020/01/31 12:42:12.4	109.820	-0.050	-0.060	0.710
2020/01/31 12:42:12.5	109.840	-0.030	-0.100	0.650
2020/01/31 12:42:12.6	109.870	-0.000	-0.130	0.590
2020/01/31 12:42:12.7	109.890	0.020	-0.160	0.530
2020/01/31 12:42:12.8	109.910	0.040	-0.200	0.480
2020/01/31 12:42:12.9	109.930	0.070	-0.230	0.430
2020/01/31 12:42:13.0	109.960	0.090	-0.270	0.380
2020/01/31 12:42:13.1	109.980	0.120	-0.310	0.340
2020/01/31 12:42:13.2	109.990	0.150	-0.340	0.290
2020/01/31 12:42:13.3	110.010	0.170	-0.380	0.250
2020/01/31 12:42:13.4	110.030	0.200	-0.410	0.210
2020/01/31 12:42:13.5	110.050	0.220	-0.440	0.180
2020/01/31 12:42:13.6	110.070	0.250	-0.470	0.150
2020/01/31 12:42:13.7	110.080	0.270	-0.500	0.120
2020/01/31 12:42:13.8	110.090	0.290	-0.530	0.100
2020/01/31 12:42:13.9	110.100	0.310	-0.550	0.080
2020/01/31 12:42:14.0	110.110	0.340	-0.580	0.060
2020/01/31 12:42:14.1	110.110	0.350	-0.590	0.050
2020/01/31 12:42:14.2	110.110	0.370	-0.610	0.040
2020/01/31 12:42:14.3	110.120	0.390	-0.620	0.040
2020/01/31 12:42:14.4	110.120	0.400	-0.640	0.040
2020/01/31 12:42:14.5	110.120	0.420	-0.650	0.050
2020/01/31 12:42:14.6	110.110	0.430	-0.650	0.060
2020/01/31 12:42:14.7	110.100	0.440	-0.650	0.070
2020/01/31 12:42:14.8	110.090	0.440	-0.650	0.090
2020/01/31 12:42:14.9	110.080	0.450	-0.640	0.110
2020/01/31 12:42:15.0	110.060	0.450	-0.630	0.140
2020/01/31 12:42:15.1	110.040	0.450	-0.610	0.170
2020/01/31 12:42:15.2	110.020	0.450	-0.600	0.200
2020/01/31 12:42:15.3	110.000	0.440	-0.580	0.240
2020/01/31 12:42:15.4	109.970	0.440	-0.550	0.280
2020/01/31 12:42:15.5	109.930	0.430	-0.530	0.320
2020/01/31 12:42:15.6	109.900	0.420	-0.500	0.360
2020/01/31 12:42:15.7	109.870	0.410	-0.470	0.410
2020/01/31 12:42:15.8	109.840	0.400	-0.430	0.460
2020/01/31 12:42:15.9	109.810	0.380	-0.400	0.510
2020/01/31 12:42:16.0	109.770	0.360	-0.360	0.560
2020/01/31 12:42:16.1	109.740	0.350	-0.320	0.620
2020/01/31 12:42:16.2	109.710	0.330	-0.280	0.670
2020/01/31 12:42:16.3	109.670	0.310	-0.240	0.720
2020/01/31 12:42:16.4	109.640	0.290	-0.190	0.780
2020/01/31 12:42:16.5	109.600	0.260	-0.150	0.830
2020/01/31 12:42:16.6	109.570	0.240	-0.100	0.880
2020/01/31 12:42:16.7	109.540	0.220	-0.060	0.930
2020/01/31 12:42:16.8	109.510	0.190	-0.020	0.980
2020/01/31 12:42:16.9	109.490	0.170	0.030	1.030
2020/01/31 12:42:17.0	109.460	0.140	0.070	1.080
2020/01/31 12:42:17.1	109.440	0.120	0.110	1.130
2020/01/31 12:42:17.2	109.420	0.100	0.150	1.180
2020/01/31 12:42:17.3	109.400	0.070	0.190	1.220
2020/01/31 12:42:17.4	109.380	0.050	0.220	1.270
2020/01/31 12:42:17.5	109.370	0.030	0.250	1.310
2020/01/31 12:42:17.6	109.360	0.010	0.280	1.350
2020/01/31 12:42:17.7	109.350	-0.020	0.310	1.390
2020/01/31 12:42:17.8	109.340	-0.040	0.330	1.420
2020/01/31 12:42:17.9	109.330	-0.050	0.350	1.460
2020/01/31 12:42:18.0	109.320	-0.070	0.360	1.490
2020/01/31 12:42:18.1	109.320	-0.090	0.370	1.530
2020/01/31 12:42:18.2	109.320	-0.100	0.380	1.560
2020/01/31 12:42:18.3	109.320	-0.120	0.380	1.590
2020/01/31 12:42:18.4	109.320	-0.130	0.380	1.620
2020/01/31 12:42:18.5	109.330	-0.140	0.370	1.650
2020/01/31 12:42:18.6	109.330	-0.150	0.360	1.670
2020/01/31 12:42:18.7	109.340	-0.160	0.350	1.700
2020/01/31 12:42:18.8	109.340	-0.160	0.330	1.730
2020/01/31 12:42:18.9	109.350	-0.170	0.310	1.750
2020/01/31 12:42:19.0	109.360	-0.170	0.280	1.770
2020/01/31 12:42:19.1	109.370	-0.170	0.250	1.800
2020/01/31 12:42:19.2	109.380	-0.170	0.220	1.820
2020/01/31 12:42:19.3	109.390	-0.170	0.180	1.840
2020/01/31 12:42:19.4	109.410	-0.170	0.150	1.860
2020/01/31 12:42:19.5	109.410	-0.170	0.110	1.870
2020/01/31 12:42:19.6	109.430	-0.160	0.060	1.890
2020/01/31 12:42:19.7	109.440	-0.160	0.020	1.900
2020/01/31 12:42:19.8	109.450	-0.150	-0.030	1.920
2020/01/31 12:42:19.9	109.470	-0.140	-0.080	1.930
2020/01/31 12:42:20.0	109.480	-0.130	-0.130	1.940
2020/01/31 12:42:20.1	109.490	-0.120	-0.180	1.950
2020/01/31 12:42:20.2	109.510	-0.110	-0.230	1.950
2020/01/31 12:42:20.3	109.520	-0.100	-0.280	1.960
2020/01/31 12:42:20.4	109.540	-0.090	-0.330	1.960
2020/01/31 12:42:20.5	109.560	-0.080	-0.390	1.960
2020/01/31 12:42:20.6	109.570	-0.070	-0.430	1.960
2020/01/31 12:42:20.7	109.590	-0.060	-0.480	1.950
2020/01/31 12:42:20.8	109.600	-0.040	-0.530	1.950
2020/01/31 12:42:20.9	109.610	-0.030	-0.570	1.940
2020/01/31 12:42:21.0	109.630	-0.020	-0.610	1.930
2020/01/31 12:42:21.1	109.640	-0.010	-0.640	1.920
2020/01/31 12:42:21.2	109.660	0.010	-0.670	1.910
2020/01/31 12:42:21.3	109.670	0.020	-0.700	1.890
2020/01/31 12:42:21.4	109.690	0.030	-0.730	1.880
2020/01/31 12:42:21.5	109.690	0.040	-0.750	1.860
2020/01/31 12:42:21.6	109.710	0.050	-0.760	1.840
2020/01/31 12:42:21.7	109.720	0.060	-0.780	1.830
2020/01/31 12:42:21.8	109.730	0.070	-0.780	1.810
2020/01/31 12:42:21.9	109.740	0.080	-0.780	1.800
2020/01/31 12:42:22.0	109.750	0.090	-0.780	1.780
2020/01/31 12:42:22.1	109.760	0.100	-0.770	1.770
2020/01/31 12:42:22.2	109.770	0.110	-0.760	1.760
2020/01/31 12:42:22.3	109.780	0.110	-0.740	1.740
2020/01/31 12:42:22.4	109.780	0.110	-0.720	1.730
2020/01/31 12:42:22.5	109.780	0.120	-0.690	1.720
2020/01/31 12:42:22.6	109.780	0.120	-0.660	1.710
2020/01/31 12:42:22.7	109.780	0.120	-0.630	1.700
2020/01/31 12:42:22.8	109.790	0.120	-0.590	1.700
2020/01/31 12:42:22.9	109.780	0.110	-0.550	1.690
2020/01/31 12:42:23.0	109.780	0.110	-0.500	1.690
2020/01/31 12:42:23.1	109.770	0.100	-0.460	1.690
2020/01/31 12:42:23.2	109.760	0.100	-0.410	1.680
2020/01/31 12:42:23.3	109.760	0.090	-0.360	1.680
2020/01/31 12:42:23.4	109.740	0.080	-0.310	1.690
2020/01/31 12:42:23.5	109.740	0.070	-0.260	1.690
2020/01/31 12:42:23.6	109.720	0.060	-0.200	1.690
2020/01/31 12:42:23.7	109.700	0.040	-0.150	1.690
2020/01/31 12:42:23.8	109.690	0.030	-0.100	1.700
2020/01/31 12:42:23.9	109.670	0.010	-0.050	1.700
2020/01/31 12:42:24.0	109.650	-0.010	0.000	1.700
2020/01/31 12:42:24.1	109.630	-0.020	0.050	1.700
2020/01/31 12:42:24.2	109.610	-0.040	0.100	1.700
2020/01/31 12:42:24.3	109.590	-0.060	0.140	1.700
2020/01/31 12:42:24.4	109.570	-0.080	0.190	1.700
2020/01/31 12:42:24.5	109.540	-0.100	0.230	1.700
2020/01/31 12:42:24.6	109.520	-0.120	0.260	1.690
2020/01/31 12:42:24.7	109.500	-0.140	0.300	1.690
2020/01/31 12:42:24.8	109.480	-0.170	0.330	1.680
2020/01/31 12:42:24.9	109.470	-0.190	0.350	1.670
2020/01/31 12:42:25.0	109.450	-0.210	0.380	1.650
2020/01/31 12:42:25.1	109.430	-0.230	0.400	1.640
2020/01/31 12:42:25.2	109.420	-0.250	0.410	1.620
2020/01/31 12:42:25.3	109.400	-0.270	0.420	1.600
2020/01/31 12:42:25.4	109.390	-0.300	0.430	1.580
2020/01/31 12:42:25.5	109.370	-0.320	0.430	1.560
2020/01/31 12:42:25.6	109.360	-0.330	0.430	1.540
2020/01/31 12:42:25.7	109.350	-0.350	0.420	1.510
2020/01/31 12:42:25.8	109.340	-0.370	0.420	1.480
2020/01/31 12:42:25.9	109.330	-0.390	0.400	1.450
2020/01/31 12:42:26.0	109.320	-0.400	0.390	1.420
2020/01/31 12:42:26.1	109.310	-0.410	0.370	1.390
2020/01/31 12:42:26.2	109.310	-0.420	0.350	1.360
2020/01/31 12:42:26.3	109.300	-0.430	0.320	1.320
2020/01/31 12:42:26.4	109.290	-0.440	0.290	1.280
2020/01/31 12:42:26.5	109.290	-0.450	0.260	1.240
2020/01/31 12:42:26.6	109.280	-0.450	0.230	1.200
2020/01/31 12:42:26.7	109.280	-0.450	0.190	1.160
2020/01/31 12:42:26.8	109.280	-0.460	0.150	1.120
2020/01/31 12:42:26.9	109.280	-0.450	0.110	1.080
2020/01/31 12:42:27.0	109.280	-0.450	0.070	1.040
2020/01/31 12:42:27.1	109.280	-0.440	0.030	0.990
2020/01/31 12:42:27.2	109.290	-0.430	-0.010	0.950
2020/01/31 12:42:27.3	109.290	-0.420	-0.050	0.910
2020/01/31 12:42:27.4	109.290	-0.410	-0.090	0.870
2020/01/31 12:42:27.5	109.300	-0.400	-0.130	0.830
2020/01/31 12:42:27.6	109.310	-0.380	-0.170	0.790
2020/01/31 12:42:27.7	109.320	-0.360	-0.210	0.750
2020/01/31 12:42:27.8	109.320	-0.340	-0.240	0.710
2020/01/31 12:42:27.9	109.330	-0.320	-0.280	0.670
2020/01/31 12:42:28.0	109.340	-0.290	-0.310	0.630
2020/01/31 12:42:28.1	109.350	-0.270	-0.340	0.590
2020/01/31 12:42:28.2	109.360	-0.240	-0.360	0.560
2020/01/31 12:42:28.3	109.370	-0.210	-0.390	0.520
2020/01/31 12:42:28.4	109.380	-0.180	-0.410	0.490
2020/01/31 12:42:28.5	109.390	-0.150	-0.430	0.450
2020/01/31 12:42:28.6	109.400	-0.120	-0.450	0.420
2020/01/31 12:42:28.7	109.410	-0.090	-0.460	0.390
2020/01/31 12:42:28.8	109.430	-0.060	-0.470	0.350
2020/01/31 12:42:28.9	109.440	-0.030	-0.470	0.320
2020/01/31 12:42:29.0	109.450	0.010	-0.480	0.290
2020/01/31 12:42:29.1	109.460	0.040	-0.480	0.260
2020/01/31 12:42:29.2	109.480	0.070	-0.480	0.230
2020/01/31 12:42:29.3	109.490	0.100	-0.470	0.210
2020/01/31 12:42:29.4	109.500	0.140	-0.470	0.180
2020/01/31 12:42:29.5	109.510	0.170	-0.460	0.160
2020/01/31 12:42:29.6	109.520	0.200	-0.450	0.140
2020/01/31 12:42:29.7	109.530	0.230	-0.440	0.110
2020/01/31 12:42:29.8	109.540	0.260	-0.430	0.090
2020/01/31 12:42:29.9	109.550	0.290	-0.410	0.080
2020/01/31 12:42:30.0	109.550	0.310	-0.400	0.060
2020/01/31 12:42:30.1	109.560	0.340	-0.380	0.050
2020/01/31 12:42:30.2	109.570	0.360	-0.370	0.040
2020/01/31 12:42:30.3	109.570	0.390	-0.350	0.030
2020/01/31 12:42:30.4	109.570	0.410	-0.330	0.020
2020/01/31 12:42:30.5	109.580	0.430	-0.320	0.010
2020/01/31 12:42:30.6	109.580	0.450	-0.300	0.010
2020/01/31 12:42:30.7	109.580	0.470	-0.280	0.010
2020/01/31 12:42:30.8	109.580	0.480	-0.270	0.020
2020/01/31 12:42:30.9	109.580	0.500	-0.250	0.020
2020/01/31 12:42:31.0	109.580	0.510	-0.240	0.030
2020/01/31 12:42:31.1	109.580	0.520	-0.220	0.040
2020/01/31 12:42:31.2	109.580	0.530	-0.210	0.060
2020/01/31 12:42:31.3	109.580	0.540	-0.200	0.070
2020/01/31 12:42:31.4	109.580	0.550	-0.190	0.090
2020/01/31 12:42:31.5	109.580	0.560	-0.180	0.110
2020/01/31 12:42:31.6	109.570	0.560	-0.170	0.140
2020/01/31 12:42:31.7	109.570	0.570	-0.160	0.160
2020/01/31 12:42:31.8	109.570	0.570	-0.160	0.190
2020/01/31 12:42:31.9	109.570	0.570	-0.160	0.230
2020/01/31 12:42:32.0	109.560	0.570	-0.160	0.260
2020/01/31 12:42:32.1	109.560	0.570	-0.160	0.300
2020/01/31 12:42:32.2	109.550	0.570	-0.160	0.340
2020/01/31 12:42:32.3	109.550	0.560	-0.160	0.390
2020/01/31 12:42:32.4	109.540	0.560	-0.170	0.440
2020/01/31 12:42:32.5	109.560	0.550	-0.170	0.490
2020/01/31 12:42:32.6	109.550	0.540	-0.180	0.550
2020/01/31 12:42:32.7	109.550	0.530	-0.190	0.600
2020/01/31 12:42:32.8	109.540	0.520	-0.200	0.660
2020/01/31 12:42:32.9	109.530	0.510	-0.210	0.720
2020/01/31 12:42:33.0	109.530	0.500	-0.220	0.780
2020/01/31 12:42:33.1	109.520	0.480	-0.230	0.850
2020/01/31 12:42:33.2	109.520	0.470	-0.240	0.920
2020/01/31 12:42:33.3	109.510	0.450	-0.260	0.990
2020/01/31 12:42:33.4	109.510	0.430	-0.270	1.060
2020/01/31 12:42:33.5	109.520	0.410	-0.280	1.130
2020/01/31 12:42:33.6	109.520	0.390	-0.290	1.210
2020/01/31 12:42:33.7	109.510	0.370	-0.300	1.290
2020/01/31 12:42:33.8	109.500	0.350	-0.300	1.360
2020/01/31 12:42:33.9	109.500	0.330	-0.310	1.440
2020/01/31 12:42:34.0	109.490	0.300	-0.320	1.520
2020/01/31 12:42:34.1	109.490	0.280	-0.320	1.600
2020/01/31 12:42:34.2	109.480	0.250	-0.320	1.670
2020/01/31 12:42:34.3	109.470	0.230	-0.320	1.750
2020/01/31 12:42:34.4	109.470	0.200	-0.320	1.830
2020/01/31 12:42:34.5	109.460	0.180	-0.320	1.910
2020/01/31 12:42:34.6	109.450	0.150	-0.310	1.980
2020/01/31 12:42:34.7	109.440	0.120	-0.310	2.050
2020/01/31 12:42:34.8	109.430	0.100	-0.300	2.120
2020/01/31 12:42:34.9	109.420	0.070	-0.280	2.180
2020/01/31 12:42:35.0	109.410	0.040	-0.270	2.250
2020/01/31 12:42:35.1	109.400	0.010	-0.250	2.310
2020/01/31 12:42:35.2	109.390	-0.020	-0.230	2.360
2020/01/31 12:42:35.3	109.380	-0.040	-0.210	2.420
2020/01/31 12:42:35.4	109.370	-0.070	-0.190	2.460
2020/01/31 12:42:35.5	109.360	-0.100	-0.160	2.500
2020/01/31 12:42:35.6	109.340	-0.130	-0.140	2.540
2020/01/31 12:42:35.7	109.330	-0.160	-0.110	2.580
2020/01/31 12:42:35.8	109.320	-0.190	-0.080	2.610
2020/01/31 12:42:35.9	109.310	-0.210	-0.050	2.640
2020/01/31 12:42:36.0	109.300	-0.240	-0.020	2.670
2020/01/31 12:42:36.1	109.290	-0.270	0.010	2.690
2020/01/31 12:42:36.2	109.290	-0.290	0.040	2.700
2020/01/31 12:42:36.3	109.280	-0.320	0.060	2.720
2020/01/31 12:42:36.4	109.270	-0.340	0.090	2.720
2020/01/31 12:42:36.5	109.270	-0.370	0.120	2.730
2020/01/31 12:42:36.6	109.260	-0.390	0.150	2.730
2020/01/31 12:42:36.7	109.260	-0.420	0.180	2.730
2020/01/31 12:42:36.8	109.260	-0.440	0.200	2.730
2020/01/31 12:42:36.9	109.260	-0.460	0.230	2.720
2020/01/31 12:42:37.0	109.260	-0.480	0.250	2.720
2020/01/31 12:42:37.1	109.270	-0.500	0.280	2.700
2020/01/31 12:42:37.2	109.270	-0.520	0.300	2.690
2020/01/31 12:42:37.3	109.280	-0.540	0.310	2.680
2020/01/31 12:42:37.4	109.290	-0.550	0.330	2.660
2020/01/31 12:42:37.5	109.300	-0.570	0.350	2.640
2020/01/31 12:42:37.6	109.310	-0.580	0.360	2.620
2020/01/31 12:42:37.7	109.330	-0.600	0.370	2.590
2020/01/31 12:42:37.8	109.340	-0.610	0.380	2.570
2020/01/31 12:42:37.9	109.360	-0.620	0.380	2.540
2020/01/31 12:42:38.0	109.380	-0.630	0.380	2.510
2020/01/31 12:42:38.1	109.400	-0.630	0.380	2.480
2020/01/31 12:42:38.2	109.420	-0.640	0.380	2.440
2020/01/31 12:42:38.3	109.450	-0.640	0.370	2.410
2020/01/31 12:42:38.4	109.470	-0.640	0.360	2.370
2020/01/31 12:42:38.5	109.510	-0.640	0.340	2.330
2020/01/31 12:42:38.6	109.530	-0.640	0.320	2.290
2020/01/31 12:42:38.7	109.560	-0.640	0.300	2.240
2020/01/31 12:42:38.8	109.580	-0.630	0.270	2.200
2020/01/31 12:42:38.9	109.610	-0.620	0.250	2.150
2020/01/31 12:42:39.0	109.630	-0.610	0.220	2.100
2020/01/31 12:42:39.1	109.660	-0.600	0.180	2.050
2020/01/31 12:42:39.2	109.680	-0.580	0.140	2.000
2020/01/31 12:42:39.3	109.700	-0.570	0.100	1.940
2020/01/31 12:42:39.4	109.730	-0.550	0.060	1.890
2020/01/31 12:42:39.5	109.750	-0.520	0.020	1.830
2020/01/31 12:42:39.6	109.770	-0.500	-0.030	1.770
2020/01/31 12:42:39.7	109.790	-0.470	-0.080	1.710
2020/01/31 12:42:39.8	109.800	-0.440	-0.130	1.650
2020/01/31 12:42:39.9	109.820	-0.410	-0.180	1.600
2020/01/31 12:42:40.0	109.830	-0.370	-0.240	1.540
2020/01/31 12:42:40.1	109.840	-0.340	-0.290	1.490
2020/01/31 12:42:40.2	109.850	-0.300	-0.350	1.430
2020/01/31 12:42:40.3	109.860	-0.260	-0.400	1.380
2020/01/31 12:42:40.4	109.860	-0.220	-0.460	1.320
2020/01/31 12:42:40.5	109.850	-0.180	-0.520	1.270
2020/01/31 12:42:40.6	109.850	-0.130	-0.570	1.220
2020/01/31 12:42:40.7	109.850	-0.090	-0.620	1.170
2020/01/31 12:42:40.8	109.850	-0.050	-0.670	1.120
2020/01/31 12:42:40.9	109.840	-0.000	-0.720	1.070
2020/01/31 12:42:41.0	109.840	0.040	-0.770	1.020
2020/01/31 12:42:41.1	109.830	0.080	-0.820	0.980
2020/01/31 12:42:41.2	109.820	0.130	-0.860	0.930
2020/01/31 12:42:41.3	109.810	0.170	-0.900	0.880
2020/01/31 12:42:41.4	109.800	0.210	-0.930	0.840
2020/01/31 12:42:41.5	109.770	0.250	-0.960	0.790
2020/01/31 12:42:41.6	109.760	0.280	-0.990	0.750
2020/01/31 12:42:41.7	109.750	0.320	-1.010	0.700
2020/01/31 12:42:41.8	109.740	0.350	-1.030	0.660
2020/01/31 12:42:41.9	109.730	0.380	-1.040	0.620
2020/01/31 12:42:42.0	109.710	0.400	-1.050	0.580
2020/01/31 12:42:42.1	109.700	0.430	-1.050	0.540
2020/01/31 12:42:42.2	109.690	0.450	-1.050	0.510
2020/01/31 12:42:42.3	109.680	0.470	-1.040	0.470
2020/01/31 12:42:42.4	109.670	0.480	-1.030	0.440
2020/01/31 12:42:42.5	109.660	0.490	-1.010	0.400
2020/01/31 12:42:42.6	109.650	0.500	-0.980	0.370
2020/01/31 12:42:42.7	109.640	0.510	-0.950	0.340
2020/01/31 12:42:42.8	109.630	0.510	-0.910	0.310
2020/01/31 12:42:42.9	109.620	0.510	-0.870	0.290
2020/01/31 12:42:43.0	109.610	0.500	-0.830	0.260
2020/01/31 12:42:43.1	109.600	0.490	-0.770	0.240
2020/01/31 12:42:43.2	109.600	0.480	-0.720	0.220
2020/01/31 12:42:43.3	109.590	0.470	-0.660	0.210
2020/01/31 12:42:43.4	109.580	0.460	-0.600	0.190
2020/01/31 12:42:43.5	109.570	0.440	-0.530	0.190
2020/01/31 12:42:43.6	109.560	0.420	-0.460	0.180
2020/01/31 12:42:43.7	109.550	0.400	-0.390	0.170
2020/01/31 12:42:43.8	109.540	0.380	-0.320	0.170
2020/01/31 12:42:43.9	109.530	0.360	-0.250	0.170
2020/01/31 12:42:44.0	109.510	0.330	-0.170	0.170
2020/01/31 12:42:44.1	109.500	0.310	-0.100	0.180
2020/01/31 12:42:44.2	109.490	0.280	-0.020	0.190
2020/01/31 12:42:44.3	109.480	0.260	0.050	0.190
2020/01/31 12:42:44.4	109.460	0.230	0.130	0.210
2020/01/31 12:42:44.5	109.450	0.200	0.200	0.220
2020/01/31 12:42:44.6	109.440	0.180	0.270	0.230
2020/01/31 12:42:44.7	109.430	0.150	0.340	0.250
2020/01/31 12:42:44.8	109.410	0.130	0.410	0.260
2020/01/31 12:42:44.9	109.400	0.100	0.480	0.280
2020/01/31 12:42:45.0	109.390	0.080	0.540	0.300
2020/01/31 12:42:45.1	109.370	0.060	0.600	0.310
2020/01/31 12:42:45.2	109.360	0.040	0.650	0.330
2020/01/31 12:42:45.3	109.350	0.020	0.700	0.350
2020/01/31 12:42:45.4	109.340	0.010	0.740	0.370
2020/01/31 12:42:45.5	109.320	-0.010	0.780	0.390
2020/01/31 12:42:45.6	109.320	-0.020	0.810	0.400
2020/01/31 12:42:45.7	109.310	-0.030	0.830	0.420
2020/01/31 12:42:45.8	109.300	-0.040	0.850	0.440
2020/01/31 12:42:45.9	109.300	-0.050	0.860	0.450
2020/01/31 12:42:46.0	109.300	-0.060	0.860	0.470
2020/01/31 12:42:46.1	109.300	-0.060	0.860	0.480
2020/01/31 12:42:46.2	109.300	-0.060	0.850	0.490
2020/01/31 12:42:46.3	109.300	-0.060	0.830	0.500
2020/01/31 12:42:46.4	109.310	-0.060	0.810	0.510
2020/01/31 12:42:46.5	109.320	-0.060	0.780	0.510
2020/01/31 12:42:46.6	109.330	-0.050	0.740	0.520
2020/01/31 12:42:46.7	109.350	-0.040	0.700	0.520
2020/01/31 12:42:46.8	109.360	-0.030	0.650	0.520
2020/01/31 12:42:46.9	109.380	-0.020	0.600	0.530
2020/01/31 12:42:47.0	109.400	-0.010	0.540	0.530
2020/01/31 12:42:47.1	109.420	-0.000	0.480	0.530
2020/01/31 12:42:47.2	109.450	0.010	0.420	0.530
2020/01/31 12:42:47.3	109.470	0.030	0.350	0.530
2020/01/31 12:42:47.4	109.500	0.040	0.280	0.530
2020/01/31 12:42:47.5	109.530	0.050	0.200	0.530
2020/01/31 12:42:47.6	109.560	0.070	0.130	0.530
2020/01/31 12:42:47.7	109.590	0.080	0.050	0.540
2020/01/31 12:42:47.8	109.620	0.100	-0.020	0.540
2020/01/31 12:42:47.9	109.650	0.110	-0.100	0.550
2020/01/31 12:42:48.0	109.680	0.130	-0.170	0.560
2020/01/31 12:42:48.1	109.700	0.140	-0.240	0.570
2020/01/31 12:42:48.2	109.730	0.160	-0.310	0.590
2020/01/31 12:42:48.3	109.760	0.170	-0.380	0.610
2020/01/31 12:42:48.4	109.780	0.180	-0.440	0.640
2020/01/31 12:42:48.5	109.810	0.190	-0.500	0.660
2020/01/31 12:42:48.6	109.830	0.200	-0.550	0.690
2020/01/31 12:42:48.7	109.850	0.210	-0.610	0.730
2020/01/31 12:42:48.8	109.870	0.220	-0.650	0.770
2020/01/31 12:42:48.9	109.890	0.220	-0.690	0.810
2020/01/31 12:42:49.0	109.910	0.230	-0.730	0.860
2020/01/31 12:42:49.1	109.930	0.230	-0.760	0.910
2020/01/31 12:42:49.2	109.950	0.230	-0.790	0.960
2020/01/31 12:42:49.3	109.960	0.230	-0.810	1.010
2020/01/31 12:42:49.4	109.980	0.230	-0.830	1.070
2020/01/31 12:42:49.5	109.990	0.220	-0.830	1.130
2020/01/31 12:42:49.6	110.000	0.220	-0.840	1.190
2020/01/31 12:42:49.7	110.020	0.210	-0.840	1.250
2020/01/31 12:42:49.8	110.030	0.200	-0.830	1.310
2020/01/31 12:42:49.9	110.040	0.190	-0.820	1.380
2020/01/31 12:42:50.0	110.050	0.180	-0.810	1.440
2020/01/31 12:42:50.1	110.060	0.170	-0.790	1.500
2020/01/31 12:42:50.2	110.080	0.150	-0.770	1.560
2020/01/31 12:42:50.3	110.090	0.140	-0.740	1.620
2020/01/31 12:42:50.4	110.100	0.120	-0.710	1.680
2020/01/31 12:42:50.5	110.110	0.100	-0.680	1.740
2020/01/31 12:42:50.6	110.120	0.090	-0.640	1.790
2020/01/31 12:42:50.7	110.130	0.070	-0.600	1.850
2020/01/31 12:42:50.8	110.140	0.050	-0.560	1.910
2020/01/31 12:42:50.9	110.140	0.020	-0.520	1.960
2020/01/31 12:42:51.0	110.150	0.000	-0.480	2.010
2020/01/31 12:42:51.1	110.150	-0.020	-0.430	2.070
2020/01/31 12:42:51.2	110.150	-0.040	-0.390	2.120
2020/01/31 12:42:51.3	110.150	-0.060	-0.340	2.170
2020/01/31 12:42:51.4	110.140	-0.080	-0.300	2.220
2020/01/31 12:42:51.5	110.140	-0.110	-0.260	2.260
2020/01/31 12:42:51.6	110.120	-0.130	-0.210	2.310
2020/01/31 12:42:51.7	110.110	-0.150	-0.170	2.360
2020/01/31 12:42:51.8	110.100	-0.170	-0.130	2.400
2020/01/31 12:42:51.9	110.080	-0.190	-0.090	2.450
2020/01/31 12:42:52.0	110.050	-0.210	-0.060	2.490
2020/01/31 12:42:52.1	110.030	-0.220	-0.020	2.540
2020/01/31 12:42:52.2	110.000	-0.240	0.010	2.580
2020/01/31 12:42:52.3	109.970	-0.260	0.040	2.620
2020/01/31 12:42:52.4	109.940	-0.270	0.060	2.660
2020/01/31 12:42:52.5	109.900	-0.280	0.090	2.700
2020/01/31 12:42:52.6	109.870	-0.300	0.100	2.740
2020/01/31 12:42:52.7	109.830	-0.310	0.120	2.770
2020/01/31 12:42:52.8	109.790	-0.320	0.130	2.810
2020/01/31 12:42:52.9	109.750	-0.320	0.140	2.840
2020/01/31 12:42:53.0	109.720	-0.330	0.140	2.870
2020/01/31 12:42:53.1	109.670	-0.330	0.140	2.900
2020/01/31 12:42:53.2	109.630	-0.340	0.140	2.930
2020/01/31 12:42:53.3	109.590	-0.340	0.130	2.950
2020/01/31 12:42:53.4	109.550	-0.340	0.120	2.970
2020/01/31 12:42:53.5	109.500	-0.340	0.100	2.990
2020/01/31 12:42:53.6	109.460	-0.340	0.080	3.000
2020/01/31 12:42:53.7	109.420	-0.330	0.060	3.010
2020/01/31 12:42:53.8	109.380	-0.330	0.030	3.020
2020/01/31 12:42:53.9	109.350	-0.320	-0.000	3.020
2020/01/31 12:42:54.0	109.320	-0.320	-0.030	3.020
2020/01/31 12:42:54.1	109.280	-0.310	-0.070	3.010
2020/01/31 12:42:54.2	109.260	-0.300	-0.100	2.990
2020/01/31 12:42:54.3	109.230	-0.290	-0.140	2.980
2020/01/31 12:42:54.4	109.210	-0.280	-0.180	2.950
2020/01/31 12:42:54.5	109.180	-0.270	-0.220	2.920
2020/01/31 12:42:54.6	109.170	-0.260	-0.260	2.880
2020/01/31 12:42:54.7	109.150	-0.250	-0.300	2.840
2020/01/31 12:42:54.8	109.140	-0.240	-0.330	2.800
2020/01/31 12:42:54.9	109.140	-0.230	-0.370	2.740
2020/01/31 12:42:55.0	109.130	-0.220	-0.410	2.690
2020/01/31 12:42:55.1	109.130	-0.210	-0.440	2.620
2020/01/31 12:42:55.2	109.140	-0.200	-0.470	2.550
2020/01/31 12:42:55.3	109.140	-0.190	-0.500	2.480
2020/01/31 12:42:55.4	109.160	-0.180	-0.520	2.400
2020/01/31 12:42:55.5	109.180	-0.170	-0.540	2.320
2020/01/31 12:42:55.6	109.200	-0.160	-0.560	2.230
2020/01/31 12:42:55.7	109.230	-0.150	-0.570	2.140
2020/01/31 12:42:55.8	109.250	-0.150	-0.580	2.040
2020/01/31 12:42:55.9	109.280	-0.140	-0.590	1.940
2020/01/31 12:42:56.0	109.310	-0.130	-0.590	1.840
2020/01/31 12:42:56.1	109.350	-0.130	-0.590	1.730
2020/01/31 12:42:56.2	109.380	-0.120	-0.580	1.630
2020/01/31 12:42:56.3	109.420	-0.120	-0.570	1.520
2020/01/31 12:42:56.4	109.460	-0.120	-0.550	1.410
2020/01/31 12:42:56.5	109.500	-0.110	-0.540	1.290
2020/01/31 12:42:56.6	109.550	-0.110	-0.510	1.180
2020/01/31 12:42:56.7	109.590	-0.110	-0.490	1.070
2020/01/31 12:42:56.8	109.640	-0.100	-0.460	0.950
2020/01/31 12:42:56.9	109.680	-0.100	-0.420	0.840
2020/01/31 12:42:57.0	109.730	-0.100	-0.390	0.730
2020/01/31 12:42:57.1	109.770	-0.090	-0.350	0.620
2020/01/31 12:42:57.2	109.820	-0.090	-0.310	0.510
2020/01/31 12:42:57.3	109.860	-0.080	-0.270	0.400
2020/01/31 12:42:57.4	109.900	-0.080	-0.220	0.300
2020/01/31 12:42:57.5	109.940	-0.080	-0.170	0.200
2020/01/31 12:42:57.6	109.980	-0.070	-0.120	0.100
2020/01/31 12:42:57.7	110.010	-0.060	-0.080	0.010
2020/01/31 12:42:57.8	110.050	-0.060	-0.030	-0.090
2020/01/31 12:42:57.9	110.080	-0.050	0.020	-0.170
2020/01/31 12:42:58.0	110.110	-0.040	0.070	-0.260
2020/01/31 12:42:58.1	110.140	-0.040	0.120	-0.340
2020/01/31 12:42:58.2	110.160	-0.030	0.170	-0.410
2020/01/31 12:42:58.3	110.190	-0.020	0.220	-0.480
2020/01/31 12:42:58.4	110.210	-0.010	0.270	-0.550
2020/01/31 12:42:58.5	110.220	-0.000	0.310	-0.610
2020/01/31 12:42:58.6	110.230	0.010	0.350	-0.660
2020/01/31 12:42:58.7	110.250	0.020	0.390	-0.710
2020/01/31 12:42:58.8	110.260	0.030	0.430	-0.760
2020/01/31 12:42:58.9	110.270	0.040	0.470	-0.800
2020/01/31 12:42:59.0	110.270	0.050	0.500	-0.840
2020/01/31 12:42:59.1	110.270	0.060	0.530	-0.870
2020/01/31 12:42:59.2	110.280	0.070	0.560	-0.890
2020/01/31 12:42:59.3	110.270	0.080	0.580	-0.910
2020/01/31 12:42:59.4	110.270	0.090	0.600	-0.930
2020/01/31 12:42:59.5	110.260	0.100	0.610	-0.940
2020/01/31 12:42:59.6	110.250	0.110	0.620	-0.940
2020/01/31 12:42:59.7	110.230	0.120	0.630	-0.940
2020/01/31 12:42:59.8	110.220	0.130	0.630	-0.930
2020/01/31 12:42:59.9	110.200	0.140	0.620	-0.910
2020/01/31 12:43:00.0	110.180	0.140	0.620	-0.890
2020/01/31 12:43:00.1	110.160	0.150	0.600	-0.870
2020/01/31 12:43:00.2	110.140	0.160	0.580	-0.840
2020/01/31 12:43:00.3	110.120	0.160	0.560	-0.800
2020/01/31 12:43:00.4	110.090	0.170	0.530	-0.760
2020/01/31 12:43:00.5	110.070	0.180	0.490	-0.710
2020/01/31 12:43:00.6	110.040	0.180	0.460	-0.660
2020/01/31 12:43:00.7	110.010	0.190	0.410	-0.600
2020/01/31 12:43:00.8	109.980	0.190	0.370	-0.540
2020/01/31 12:43:00.9	109.950	0.200	0.310	-0.480
2020/01/31 12:43:01.0	109.920	0.210	0.260	-0.410
2020/01/31 12:43:01.1	109.890	0.210	0.200	-0.340
2020/01/31 12:43:01.2	109.860	0.220	0.140	-0.260
2020/01/31 12:43:01.3	109.830	0.220	0.070	-0.190
2020/01/31 12:43:01.4	109.810	0.230	0.000	-0.110
2020/01/31 12:43:01.5	109.780	0.230	-0.070	-0.030
2020/01/31 12:43:01.6	109.760	0.240	-0.140	0.050
2020/01/31 12:43:01.7	109.740	0.240	-0.210	0.130
2020/01/31 12:43:01.8	109.720	0.250	-0.280	0.210
2020/01/31 12:43:01.9	109.710	0.260	-0.350	0.280
2020/01/31 12:43:02.0	109.700	0.260	-0.420	0.360
2020/01/31 12:43:02.1	109.690	0.270	-0.490	0.440
2020/01/31 12:43:02.2	109.680	0.270	-0.560	0.520
2020/01/31 12:43:02.3	109.680	0.280	-0.620	0.590
2020/01/31 12:43:02.4	109.680	0.290	-0.690	0.670
2020/01/31 12:43:02.5	109.680	0.290	-0.750	0.740
2020/01/31 12:43:02.6	109.680	0.300	-0.800	0.810
2020/01/31 12:43:02.7	109.690	0.300	-0.850	0.880
2020/01/31 12:43:02.8	109.700	0.310	-0.900	0.950
2020/01/31 12:43:02.9	109.710	0.310	-0.940	1.020
2020/01/31 12:43:03.0	109.730	0.320	-0.980	1.090
2020/01/31 12:43:03.1	109.740	0.320	-1.020	1.160
2020/01/31 12:43:03.2	109.760	0.320	-1.040	1.230
2020/01/31 12:43:03.3	109.770	0.320	-1.070	1.300
2020/01/31 12:43:03.4	109.790	0.330	-1.090	1.360
2020/01/31 12:43:03.5	109.800	0.330	-1.100	1.430
2020/01/31 12:43:03.6	109.820	0.320	-1.100	1.500
2020/01/31 12:43:03.7	109.830	0.320	-1.110	1.560
2020/01/31 12:43:03.8	109.850	0.320	-1.100	1.630
2020/01/31 12:43:03.9	109.870	0.320	-1.090	1.700
2020/01/31 12:43:04.0	109.880	0.310	-1.080	1.770
2020/01/31 12:43:04.1	109.900	0.310	-1.060	1.830
2020/01/31 12:43:04.2	109.920	0.300	-1.040	1.900
2020/01/31 12:43:04.3	109.930	0.290	-1.010	1.970
2020/01/31 12:43:04.4	109.940	0.280	-0.980	2.040
2020/01/31 12:43:04.5	109.950	0.270	-0.950	2.100
2020/01/31 12:43:04.6	109.960	0.260	-0.910	2.170
2020/01/31 12:43:04.7	109.970	0.250	-0.870	2.240
2020/01/31 12:43:04.8	109.980	0.240	-0.830	2.310
2020/01/31 12:43:04.9	109.980	0.230	-0.780	2.370
2020/01/31 12:43:05.0	109.990	0.210	-0.730	2.440
2020/01/31 12:43:05.1	109.990	0.200	-0.680	2.500
2020/01/31 12:43:05.2	109.990	0.190	-0.630	2.570
2020/01/31 12:43:05.3	109.990	0.170	-0.570	2.630
2020/01/31 12:43:05.4	109.990	0.150	-0.520	2.690
2020/01/31 12:43:05.5	110.000	0.140	-0.460	2.750
2020/01/31 12:43:05.6	110.000	0.120	-0.400	2.800
2020/01/31 12:43:05.7	110.000	0.110	-0.340	2.860
2020/01/31 12:43:05.8	109.990	0.090	-0.290	2.910
2020/01/31 12:43:05.9	109.990	0.070	-0.230	2.960
2020/01/31 12:43:06.0	109.980	0.060	-0.170	3.010
2020/01/31 12:43:06.1	109.970	0.040	-0.120	3.050
2020/01/31 12:43:06.2	109.960	0.020	-0.060	3.090
2020/01/31 12:43:06.3	109.950	0.010	-0.010	3.120
2020/01/31 12:43:06.4	109.940	-0.010	0.050	3.160
2020/01/31 12:43:06.5	109.940	-0.030	0.100	3.180
2020/01/31 12:43:06.6	109.930	-0.040	0.150	3.210
2020/01/31 12:43:06.7	109.920	-0.060	0.200	3.230
2020/01/31 12:43:06.8	109.900	-0.070	0.240	3.240
2020/01/31 12:43:06.9	109.890	-0.090	0.290	3.250
2020/01/31 12:43:07.0	109.880	-0.110	0.330	3.250
2020/01/31 12:43:07.1	109.860	-0.120	0.370	3.250
2020/01/31 12:43:07.2	109.850	-0.140	0.410	3.250
2020/01/31 12:43:07.3	109.840	-0.150	0.440	3.230
2020/01/31 12:43:07.4	109.820	-0.160	0.480	3.210
2020/01/31 12:43:07.5	109.820	-0.180	0.510	3.190
2020/01/31 12:43:07.6	109.800	-0.190	0.530	3.160
2020/01/31 12:43:07.7	109.790	-0.200	0.560	3.120
2020/01/31 12:43:07.8	109.780	-0.220	0.580	3.080
2020/01/31 12:43:07.9	109.770	-0.230	0.590	3.040
2020/01/31 12:43:08.0	109.760	-0.240	0.610	2.980
2020/01/31 12:43:08.1	109.750	-0.250	0.620	2.930
2020/01/31 12:43:08.2	109.750	-0.260	0.620	2.860
2020/01/31 12:43:08.3	109.740	-0.270	0.630	2.790
2020/01/31 12:43:08.4	109.740	-0.280	0.630	2.720
2020/01/31 12:43:08.5	109.730	-0.290	0.620	2.640
2020/01/31 12:43:08.6	109.730	-0.300	0.620	2.550
2020/01/31 12:43:08.7	109.730	-0.310	0.610	2.460
2020/01/31 12:43:08.8	109.730	-0.310	0.590	2.370
2020/01/31 12:43:08.9	109.740	-0.320	0.580	2.270
2020/01/31 12:43:09.0	109.750	-0.330	0.560	2.170
2020/01/31 12:43:09.1	109.760	-0.330	0.540	2.060
2020/01/31 12:43:09.2	109.780	-0.340	0.520	1.960
2020/01/31 12:43:09.3	109.790	-0.340	0.490	1.840
2020/01/31 12:43:09.4	109.810	-0.350	0.460	1.730
2020/01/31 12:43:09.5	109.840	-0.350	0.430	1.610
2020/01/31 12:43:09.6	109.870	-0.350	0.400	1.490
2020/01/31 12:43:09.7	109.900	-0.360	0.370	1.380
2020/01/31 12:43:09.8	109.930	-0.360	0.330	1.260
2020/01/31 12:43:09.9	109.960	-0.360	0.290	1.140
2020/01/31 12:43:10.0	109.990	-0.360	0.250	1.020
2020/01/31 12:43:10.1	110.030	-0.360	0.210	0.900
2020/01/31 12:43:10.2	110.070	-0.360	0.170	0.780
2020/01/31 12:43:10.3	110.110	-0.360	0.120	0.660
2020/01/31 12:43:10.4	110.150	-0.360	0.070	0.540
2020/01/31 12:43:10.5	110.210	-0.360	0.020	0.430
2020/01/31 12:43:10.6	110.250	-0.350	-0.030	0.320
2020/01/31 12:43:10.7	110.290	-0.350	-0.080	0.210
2020/01/31 12:43:10.8	110.330	-0.340	-0.130	0.110
2020/01/31 12:43:10.9	110.370	-0.340	-0.180	0.010
2020/01/31 12:43:11.0	110.410	-0.330	-0.240	-0.090
2020/01/31 12:43:11.1	110.450	-0.320	-0.290	-0.180
2020/01/31 12:43:11.2	110.480	-0.310	-0.350	-0.260
2020/01/31 12:43:11.3	110.510	-0.300	-0.400	-0.340
2020/01/31 12:43:11.4	110.540	-0.290	-0.460	-0.420
2020/01/31 12:43:11.5	110.570	-0.280	-0.520	-0.500
2020/01/31 12:43:11.6	110.600	-0.260	-0.570	-0.560
2020/01/31 12:43:11.7	110.620	-0.250	-0.630	-0.620
2020/01/31 12:43:11.8	110.640	-0.230	-0.680	-0.680
2020/01/31 12:43:11.9	110.660	-0.210	-0.720	-0.720
2020/01/31 12:43:12.0	110.670	-0.190	-0.770	-0.770
2020/01/31 12:43:12.1	110.680	-0.170	-0.810	-0.800
2020/01/31 12:43:12.2	110.680	-0.150	-0.850	-0.830
2020/01/31 12:43:12.3	110.690	-0.130	-0.890	-0.860
2020/01/31 12:43:12.4	110.690	-0.110	-0.920	-0.880
2020/01/31 12:43:12.5	110.680	-0.090	-0.950	-0.890
2020/01/31 12:43:12.6	110.670	-0.070	-0.970	-0.900
2020/01/31 12:43:12.7	110.670	-0.050	-0.990	-0.910
2020/01/31 12:43:12.8	110.660	-0.030	-1.000	-0.910
2020/01/31 12:43:12.9	110.640	-0.010	-1.010	-0.900
2020/01/31 12:43:13.0	110.630	0.010	-1.010	-0.890
2020/01/31 12:43:13.1	110.610	0.030	-1.010	-0.880
2020/01/31 12:43:13.2	110.590	0.050	-0.990	-0.860
2020/01/31 12:43:13.3	110.560	0.070	-0.980	-0.840
2020/01/31 12:43:13.4	110.540	0.080	-0.950	-0.810
2020/01/31 12:43:13.5	110.500	0.100	-0.920	-0.780
2020/01/31 12:43:13.6	110.470	0.110	-0.890	-0.740
2020/01/31 12:43:13.7	110.440	0.120	-0.850	-0.700
2020/01/31 12:43:13.8	110.410	0.130	-0.800	-0.660
2020/01/31 12:43:13.9	110.380	0.140	-0.750	-0.610
2020/01/31 12:43:14.0	110.350	0.150	-0.700	-0.560
2020/01/31 12:43:14.1	110.320	0.160	-0.640	-0.500
2020/01/31 12:43:14.2	110.290	0.160	-0.580	-0.450
2020/01/31 12:43:14.3	110.260	0.160	-0.520	-0.390
2020/01/31 12:43:14.4	110.230	0.170	-0.450	-0.320
2020/01/31 12:43:14.5	110.200	0.170	-0.380	-0.250
2020/01/31 12:43:14.6	110.170	0.160	-0.310	-0.190
2020/01/31 12:43:14.7	110.140	0.160	-0.240	-0.120
2020/01/31 12:43:14.8	110.110	0.160	-0.170	-0.040
2020/01/31 12:43:14.9	110.090	0.160	-0.100	0.030
2020/01/31 12:43:15.0	110.070	0.150	-0.040	0.110
2020/01/31 12:43:15.1	110.040	0.150	0.030	0.180
2020/01/31 12:43:15.2	110.020	0.140	0.090	0.260
2020/01/31 12:43:15.3	110.010	0.140	0.150	0.340
2020/01/31 12:43:15.4	109.990	0.130	0.210	0.410
2020/01/31 12:43:15.5	109.980	0.130	0.260	0.490
2020/01/31 12:43:15.6	109.970	0.120	0.310	0.570
2020/01/31 12:43:15.7	109.960	0.120	0.350	0.640
2020/01/31 12:43:15.8	109.960	0.120	0.390	0.720
2020/01/31 12:43:15.9	109.960	0.110	0.420	0.790
2020/01/31 12:43:16.0	109.960	0.110	0.450	0.860
2020/01/31 12:43:16.1	109.960	0.110	0.480	0.930
2020/01/31 12:43:16.2	109.970	0.110	0.490	1.000
2020/01/31 12:43:16.3	109.980	0.110	0.500	1.060
2020/01/31 12:43:16.4	110.000	0.120	0.510	1.120
2020/01/31 12:43:16.5	110.000	0.120	0.510	1.180
2020/01/31 12:43:16.6	110.020	0.130	0.500	1.240
2020/01/31 12:43:16.7	110.040	0.140	0.490	1.290
2020/01/31 12:43:16.8	110.070	0.140	0.470	1.330
2020/01/31 12:43:16.9	110.100	0.150	0.440	1.380
2020/01/31 12:43:17.0	110.130	0.170	0.410	1.420
2020/01/31 12:43:17.1	110.160	0.180	0.380	1.450
2020/01/31 12:43:17.2	110.190	0.190	0.340	1.480
2020/01/31 12:43:17.3	110.230	0.200	0.300	1.510
2020/01/31 12:43:17.4	110.260	0.220	0.250	1.540
2020/01/31 12:43:17.5	110.300	0.230	0.200	1.560
2020/01/31 12:43:17.6	110.330	0.250	0.150	1.580
2020/01/31 12:43:17.7	110.370	0.270	0.100	1.600
2020/01/31 12:43:17.8	110.410	0.280	0.040	1.610
2020/01/31 12:43:17.9	110.440	0.300	-0.020	1.620
2020/01/31 12:43:18.0	110.480	0.310	-0.070	1.640
2020/01/31 12:43:18.1	110.520	0.330	-0.130	1.640
2020/01/31 12:43:18.2	110.550	0.340	-0.180	1.650
2020/01/31 12:43:18.3	110.590	0.350	-0.240	1.660
2020/01/31 12:43:18.4	110.620	0.360	-0.290	1.660
2020/01/31 12:43:18.5	110.650	0.370	-0.340	1.670
2020/01/31 12:43:18.6	110.680	0.380	-0.380	1.670
2020/01/31 12:43:18.7	110.710	0.380	-0.430	1.680
2020/01/31 12:43:18.8	110.740	0.390	-0.460	1.690
2020/01/31 12:43:18.9	110.770	0.390	-0.500	1.690
2020/01/31 12:43:19.0	110.800	0.390	-0.530	1.700
2020/01/31 12:43:19.1	110.820	0.390	-0.550	1.710
2020/01/31 12:43:19.2	110.840	0.380	-0.570	1.720
2020/01/31 12:43:19.3	110.870	0.370	-0.580	1.740
2020/01/31 12:43:19.4	110.880	0.370	-0.590	1.760
2020/01/31 12:43:19.5	110.910	0.350	-0.590	1.770
2020/01/31 12:43:19.6	110.920	0.340	-0.590	1.790
2020/01/31 12:43:19.7	110.940	0.320	-0.580	1.820
2020/01/31 12:43:19.8	110.950	0.310	-0.570	1.840
2020/01/31 12:43:19.9	110.950	0.290	-0.550	1.870
2020/01/31 12:43:20.0	110.960	0.270	-0.530	1.900
2020/01/31 12:43:20.1	110.970	0.240	-0.510	1.930
2020/01/31 12:43:20.2	110.970	0.220	-0.480	1.970
2020/01/31 12:43:20.3	110.970	0.190	-0.450	2.000
2020/01/31 12:43:20.4	110.970	0.170	-0.420	2.040
2020/01/31 12:43:20.5	110.980	0.140	-0.380	2.080
2020/01/31 12:43:20.6	110.980	0.110	-0.340	2.120
2020/01/31 12:43:20.7	110.970	0.090	-0.300	2.160
2020/01/31 12:43:20.8	110.970	0.060	-0.270	2.200
2020/01/31 12:43:20.9	110.960	0.030	-0.230	2.240
2020/01/31 12:43:21.0	110.960	0.010	-0.190	2.280
2020/01/31 12:43:21.1	110.950	-0.020	-0.160	2.320
2020/01/31 12:43:21.2	110.940	-0.040	-0.130	2.350
2020/01/31 12:43:21.3	110.930	-0.070	-0.100	2.390
2020/01/31 12:43:21.4	110.920	-0.090	-0.070	2.430
2020/01/31 12:43:21.5	110.910	-0.110	-0.050	2.460
2020/01/31 12:43:21.6	110.900	-0.130	-0.030	2.490
2020/01/31 12:43:21.7	110.890	-0.140	-0.020	2.520
2020/01/31 12:43:21.8	110.880	-0.160	-0.010	2.550
2020/01/31 12:43:21.9	110.860	-0.170	0.000	2.580
2020/01/31 12:43:22.0	110.850	-0.180	0.010	2.600
2020/01/31 12:43:22.1	110.840	-0.190	0.010	2.620
2020/01/31 12:43:22.2	110.830	-0.200	0.010	2.630
2020/01/31 12:43:22.3	110.820	-0.200	-0.000	2.650
2020/01/31 12:43:22.4	110.810	-0.210	-0.010	2.650
2020/01/31 12:43:22.5	110.800	-0.210	-0.020	2.650
2020/01/31 12:43:22.6	110.800	-0.210	-0.040	2.650
2020/01/31 12:43:22.7	110.790	-0.210	-0.050	2.650
2020/01/31 12:43:22.8	110.780	-0.210	-0.070	2.640
2020/01/31 12:43:22.9	110.770	-0.210	-0.090	2.620
2020/01/31 12:43:23.0	110.770	-0.200	-0.110	2.600
2020/01/31 12:43:23.1	110.760	-0.200	-0.130	2.580
2020/01/31 12:43:23.2	110.760	-0.190	-0.150	2.550
2020/01/31 12:43:23.3	110.760	-0.190	-0.160	2.520
2020/01/31 12:43:23.4	110.750	-0.190	-0.180	2.480
2020/01/31 12:43:23.5	110.760	-0.180	-0.200	2.430
2020/01/31 12:43:23.6	110.760	-0.180	-0.200	2.380
2020/01/31 12:43:23.7	110.760	-0.180	-0.210	2.330
2020/01/31 12:43:23.8	110.760	-0.170	-0.210	2.270
2020/01/31 12:43:23.9	110.760	-0.170	-0.210	2.210
2020/01/31 12:43:24.0	110.760	-0.170	-0.210	2.140
2020/01/31 12:43:24.1	110.760	-0.170	-0.200	2.080
2020/01/31 12:43:24.2	110.770	-0.180	-0.190	2.000
2020/01/31 12:43:24.3	110.780	-0.180	-0.170	1.920
2020/01/31 12:43:24.4	110.790	-0.180	-0.150	1.840
2020/01/31 12:43:24.5	110.800	-0.190	-0.130	1.760
2020/01/31 12:43:24.6	110.810	-0.190	-0.100	1.670
2020/01/31 12:43:24.7	110.830	-0.200	-0.070	1.580
2020/01/31 12:43:24.8	110.840	-0.200	-0.040	1.490
2020/01/31 12:43:24.9	110.860	-0.210	-0.010	1.390
2020/01/31 12:43:25.0	110.880	-0.220	0.020	1.300
2020/01/31 12:43:25.1	110.910	-0.230	0.060	1.200
2020/01/31 12:43:25.2	110.930	-0.240	0.090	1.100
2020/01/31 12:43:25.3	110.960	-0.240	0.130	1.000
2020/01/31 12:43:25.4	110.990	-0.250	0.160	0.900
2020/01/31 12:43:25.5	111.030	-0.260	0.190	0.800
2020/01/31 12:43:25.6	111.060	-0.270	0.220	0.700
2020/01/31 12:43:25.7	111.090	-0.270	0.250	0.600
2020/01/31 12:43:25.8	111.120	-0.280	0.270	0.500
2020/01/31 12:43:25.9	111.160	-0.280	0.290	0.410
2020/01/31 12:43:26.0	111.190	-0.290	0.310	0.320
2020/01/31 12:43:26.1	111.230	-0.290	0.330	0.230
2020/01/31 12:43:26.2	111.260	-0.290	0.330	0.140
2020/01/31 12:43:26.3	111.300	-0.290	0.340	0.060
2020/01/31 12:43:26.4	111.330	-0.280	0.340	-0.020
2020/01/31 12:43:26.5	111.370	-0.280	0.330	-0.090
2020/01/31 12:43:26.6	111.400	-0.270	0.320	-0.160
2020/01/31 12:43:26.7	111.430	-0.260	0.310	-0.220
2020/01/31 12:43:26.8	111.460	-0.250	0.290	-0.280
2020/01/31 12:43:26.9	111.490	-0.240	0.260	-0.340
2020/01/31 12:43:27.0	111.520	-0.220	0.230	-0.390
2020/01/31 12:43:27.1	111.550	-0.210	0.190	-0.440
2020/01/31 12:43:27.2	111.570	-0.190	0.150	-0.490
2020/01/31 12:43:27.3	111.590	-0.170	0.110	-0.530
2020/01/31 12:43:27.4	111.610	-0.150	0.070	-0.570
2020/01/31 12:43:27.5	111.630	-0.130	0.010	-0.600
2020/01/31 12:43:27.6	111.650	-0.100	-0.040	-0.640
2020/01/31 12:43:27.7	111.670	-0.080	-0.090	-0.660
2020/01/31 12:43:27.8	111.680	-0.050	-0.140	-0.690
2020/01/31 12:43:27.9	111.700	-0.020	-0.200	-0.710
2020/01/31 12:43:28.0	111.710	0.010	-0.250	-0.730
2020/01/31 12:43:28.1	111.730	0.030	-0.310	-0.740
2020/01/31 12:43:28.2	111.740	0.060	-0.360	-0.750
2020/01/31 12:43:28.3	111.750	0.090	-0.420	-0.760
2020/01/31 12:43:28.4	111.750	0.120	-0.470	-0.770
2020/01/31 12:43:28.5	111.750	0.140	-0.520	-0.760
2020/01/31 12:43:28.6	111.760	0.170	-0.560	-0.760
2020/01/31 12:43:28.7	111.760	0.200	-0.610	-0.750
2020/01/31 12:43:28.8	111.760	0.220	-0.650	-0.740
2020/01/31 12:43:28.9	111.760	0.240	-0.690	-0.720
2020/01/31 12:43:29.0	111.750	0.260	-0.730	-0.690
2020/01/31 12:43:29.1	111.740	0.280	-0.770	-0.660
2020/01/31 12:43:29.2	111.730	0.300	-0.800	-0.630
2020/01/31 12:43:29.3	111.720	0.320	-0.820	-0.580
2020/01/31 12:43:29.4	111.710	0.330	-0.850	-0.540
2020/01/31 12:43:29.5	111.700	0.350	-0.870	-0.480
2020/01/31 12:43:29.6	111.680	0.360	-0.890	-0.420
2020/01/31 12:43:29.7	111.660	0.370	-0.900	-0.360
2020/01/31 12:43:29.8	111.640	0.370	-0.900	-0.290
2020/01/31 12:43:29.9	111.610	0.380	-0.900	-0.220
2020/01/31 12:43:30.0	111.590	0.380	-0.900	-0.140
2020/01/31 12:43:30.1	111.570	0.380	-0.900	-0.060
2020/01/31 12:43:30.2	111.540	0.380	-0.880	0.030
2020/01/31 12:43:30.3	111.520	0.370	-0.870	0.120
2020/01/31 12:43:30.4	111.500	0.360	-0.850	0.210
2020/01/31 12:43:30.5	111.460	0.360	-0.830	0.310
2020/01/31 12:43:30.6	111.440	0.350	-0.800	0.400
2020/01/31 12:43:30.7	111.420	0.330	-0.770	0.500
2020/01/31 12:43:30.8	111.400	0.320	-0.740	0.590
2020/01/31 12:43:30.9	111.380	0.300	-0.710	0.690
2020/01/31 12:43:31.0	111.370	0.290	-0.670	0.790
2020/01/31 12:43:31.1	111.360	0.270	-0.630	0.890
2020/01/31 12:43:31.2	111.340	0.250	-0.590	0.980
2020/01/31 12:43:31.3	111.340	0.230	-0.540	1.070
2020/01/31 12:43:31.4	111.330	0.210	-0.500	1.160
2020/01/31 12:43:31.5	111.330	0.190	-0.450	1.250
2020/01/31 12:43:31.6	111.330	0.160	-0.400	1.340
2020/01/31 12:43:31.7	111.330	0.140	-0.360	1.420
2020/01/31 12:43:31.8	111.330	0.120	-0.310	1.500
2020/01/31 12:43:31.9	111.340	0.090	-0.260	1.570
2020/01/31 12:43:32.0	111.350	0.070	-0.200	1.640
2020/01/31 12:43:32.1	111.360	0.050	-0.160	1.710
2020/01/31 12:43:32.2	111.370	0.020	-0.110	1.770
2020/01/31 12:43:32.3	111.380	-0.000	-0.060	1.830
2020/01/31 12:43:32.4	111.400	-0.020	-0.010	1.890
2020/01/31 12:43:32.5	111.410	-0.050	0.040	1.940
2020/01/31 12:43:32.6	111.430	-0.070	0.080	1.990
2020/01/31 12:43:32.7	111.450	-0.090	0.130	2.040
2020/01/31 12:43:32.8	111.470	-0.110	0.170	2.080
2020/01/31 12:43:32.9	111.490	-0.130	0.210	2.120
2020/01/31 12:43:33.0	111.510	-0.150	0.250	2.160
2020/01/31 12:43:33.1	111.530	-0.170	0.280	2.190
2020/01/31 12:43:33.2	111.550	-0.180	0.310	2.220
2020/01/31 12:43:33.3	111.580	-0.200	0.340	2.260
2020/01/31 12:43:33.4	111.600	-0.220	0.370	2.280
2020/01/31 12:43:33.5	111.640	-0.230	0.390	2.310
2020/01/31 12:43:33.6	111.660	-0.240	0.410	2.330
2020/01/31 12:43:33.7	111.690	-0.250	0.430	2.360
2020/01/31 12:43:33.8	111.710	-0.260	0.440	2.380
2020/01/31 12:43:33.9	111.740	-0.270	0.450	2.400
2020/01/31 12:43:34.0	111.770	-0.270	0.460	2.420
2020/01/31 12:43:34.1	111.790	-0.280	0.470	2.440
2020/01/31 12:43:34.2	111.820	-0.280	0.470	2.460
2020/01/31 12:43:34.3	111.850	-0.290	0.470	2.470
2020/01/31 12:43:34.4	111.880	-0.290	0.470	2.490
2020/01/31 12:43:34.5	111.900	-0.290	0.460	2.500
2020/01/31 12:43:34.6	111.930	-0.290	0.460	2.510
2020/01/31 12:43:34.7	111.960	-0.290	0.450	2.520
2020/01/31 12:43:34.8	111.990	-0.290	0.430	2.530
2020/01/31 12:43:34.9	112.020	-0.280	0.420	2.530
2020/01/31 12:43:35.0	112.040	-0.280	0.400	2.530
2020/01/31 12:43:35.1	112.070	-0.280	0.390	2.530
2020/01/31 12:43:35.2	112.100	-0.270	0.360	2.530
2020/01/31 12:43:35.3	112.130	-0.270	0.340	2.530
2020/01/31 12:43:35.4	112.150	-0.260	0.320	2.520
2020/01/31 12:43:35.5	112.190	-0.250	0.290	2.510
2020/01/31 12:43:35.6	112.210	-0.240	0.260	2.500
2020/01/31 12:43:35.7	112.230	-0.230	0.230	2.480
2020/01/31 12:43:35.8	112.260	-0.220	0.200	2.460
2020/01/31 12:43:35.9	112.280	-0.210	0.170	2.440
2020/01/31 12:43:36.0	112.300	-0.200	0.140	2.420
2020/01/31 12:43:36.1	112.310	-0.190	0.100	2.390
2020/01/31 12:43:36.2	112.330	-0.180	0.060	2.360
2020/01/31 12:43:36.3	112.340	-0.160	0.030	2.320
2020/01/31 12:43:36.4	112.360	-0.150	-0.010	2.290
2020/01/31 12:43:36.5	112.370	-0.130	-0.050	2.240
2020/01/31 12:43:36.6	112.380	-0.110	-0.090	2.200
2020/01/31 12:43:36.7	112.380	-0.090	-0.130	2.150
2020/01/31 12:43:36.8	112.390	-0.070	-0.180	2.100
2020/01/31 12:43:36.9	112.400	-0.050	-0.220	2.050
2020/01/31 12:43:37.0	112.400	-0.030	-0.260	2.000
2020/01/31 12:43:37.1	112.400	-0.010	-0.300	1.940
2020/01/31 12:43:37.2	112.410	0.010	-0.340	1.890
2020/01/31 12:43:37.3	112.410	0.030	-0.380	1.830
2020/01/31 12:43:37.4	112.410	0.060	-0.420	1.770
2020/01/31 12:43:37.5	112.410	0.080	-0.460	1.710
2020/01/31 12:43:37.6	112.410	0.100	-0.500	1.650
2020/01/31 12:43:37.7	112.410	0.130	-0.530	1.590
2020/01/31 12:43:37.8	112.410	0.150	-0.560	1.530
2020/01/31 12:43:37.9	112.400	0.170	-0.590	1.470
2020/01/31 12:43:38.0	112.400	0.200	-0.610	1.410
2020/01/31 12:43:38.1	112.400	0.220	-0.630	1.350
2020/01/31 12:43:38.2	112.390	0.240	-0.650	1.290
2020/01/31 12:43:38.3	112.390	0.260	-0.660	1.230
2020/01/31 12:43:38.4	112.380	0.280	-0.670	1.180
2020/01/31 12:43:38.5	112.380	0.300	-0.670	1.130
2020/01/31 12:43:38.6	112.380	0.320	-0.670	1.080
2020/01/31 12:43:38.7	112.370	0.340	-0.660	1.030
2020/01/31 12:43:38.8	112.370	0.350	-0.660	0.990
2020/01/31 12:43:38.9	112.360	0.370	-0.640	0.950
2020/01/31 12:43:39.0	112.350	0.380	-0.630	0.910
2020/01/31 12:43:39.1	112.340	0.390	-0.600	0.870
2020/01/31 12:43:39.2	112.330	0.400	-0.580	0.830
2020/01/31 12:43:39.3	112.330	0.400	-0.550	0.800
2020/01/31 12:43:39.4	112.320	0.410	-0.520	0.770
2020/01/31 12:43:39.5	112.300	0.410	-0.490	0.730
2020/01/31 12:43:39.6	112.300	0.410	-0.450	0.710
2020/01/31 12:43:39.7	112.290	0.400	-0.410	0.680
2020/01/31 12:43:39.8	112.280	0.400	-0.370	0.660
2020/01/31 12:43:39.9	112.270	0.390	-0.320	0.630
2020/01/31 12:43:40.0	112.270	0.380	-0.280	0.610
2020/01/31 12:43:40.1	112.260	0.360	-0.230	0.590
2020/01/31 12:43:40.2	112.260	0.350	-0.190	0.560
2020/01/31 12:43:40.3	112.260	0.330	-0.140	0.540
2020/01/31 12:43:40.4	112.250	0.310	-0.090	0.520
2020/01/31 12:43:40.5	112.260	0.290	-0.040	0.490
2020/01/31 12:43:40.6	112.260	0.270	0.000	0.470
2020/01/31 12:43:40.7	112.260	0.240	0.050	0.440
2020/01/31 12:43:40.8	112.270	0.210	0.090	0.420
2020/01/31 12:43:40.9	112.270	0.190	0.130	0.390
2020/01/31 12:43:41.0	112.280	0.160	0.170	0.360
2020/01/31 12:43:41.1	112.290	0.130	0.200	0.340
2020/01/31 12:43:41.2	112.300	0.090	0.230	0.310
2020/01/31 12:43:41.3	112.310	0.060	0.260	0.280
2020/01/31 12:43:41.4	112.320	0.030	0.280	0.250
2020/01/31 12:43:41.5	112.330	-0.000	0.300	0.230
2020/01/31 12:43:41.6	112.340	-0.030	0.310	0.200
2020/01/31 12:43:41.7	112.360	-0.060	0.320	0.170
2020/01/31 12:43:41.8	112.370	-0.100	0.320	0.150
2020/01/31 12:43:41.9	112.390	-0.120	0.310	0.130
2020/01/31 12:43:42.0	112.410	-0.150	0.310	0.100
2020/01/31 12:43:42.1	112.420	-0.180	0.290	0.090
2020/01/31 12:43:42.2	112.440	-0.210	0.270	0.070
2020/01/31 12:43:42.3	112.460	-0.230	0.250	0.060
2020/01/31 12:43:42.4	112.470	-0.250	0.220	0.050
2020/01/31 12:43:42.5	112.500	-0.270	0.180	0.040
2020/01/31 12:43:42.6	112.510	-0.290	0.140	0.040
2020/01/31 12:43:42.7	112.530	-0.300	0.100	0.040
2020/01/31 12:43:42.8	112.540	-0.310	0.050	0.050
2020/01/31 12:43:42.9	112.550	-0.320	0.000	0.060
2020/01/31 12:43:43.0	112.560	-0.330	-0.050	0.070
2020/01/31 12:43:43.1	112.570	-0.330	-0.110	0.090
2020/01/31 12:43:43.2	112.580	-0.330	-0.170	0.120
2020/01/31 12:43:43.3	112.590	-0.330	-0.230	0.150
2020/01/31 12:43:43.4	112.600	-0.320	-0.290	0.180
2020/01/31 12:43:43.5	112.590	-0.310	-0.350	0.210
2020/01/31 12:43:43.6	112.600	-0.300	-0.410	0.250
2020/01/31 12:43:43.7	112.600	-0.290	-0.480	0.300
2020/01/31 12:43:43.8	112.610	-0.270	-0.530	0.350
2020/01/31 12:43:43.9	112.610	-0.250	-0.590	0.400
2020/01/31 12:43:44.0	112.610	-0.230	-0.650	0.450
2020/01/31 12:43:44.1	112.610	-0.210	-0.700	0.510
2020/01/31 12:43:44.2	112.610	-0.190	-0.750	0.570
2020/01/31 12:43:44.3	112.610	-0.160	-0.790	0.630
2020/01/31 12:43:44.4	112.610	-0.130	-0.830	0.700
2020/01/31 12:43:44.5	112.610	-0.100	-0.860	0.760
2020/01/31 12:43:44.6	112.610	-0.080	-0.890	0.830
2020/01/31 12:43:44.7	112.600	-0.050	-0.910	0.900
2020/01/31 12:43:44.8	112.600	-0.020	-0.930	0.970
2020/01/31 12:43:44.9	112.600	0.010	-0.940	1.040
2020/01/31 12:43:45.0	112.590	0.040	-0.950	1.110
2020/01/31 12:43:45.1	112.580	0.070	-0.950	1.190
2020/01/31 12:43:45.2	112.580	0.090	-0.940	1.260
2020/01/31 12:43:45.3	112.570	0.120	-0.920	1.330
2020/01/31 12:43:45.4	112.560	0.140	-0.900	1.400
2020/01/31 12:43:45.5	112.560	0.160	-0.880	1.480
2020/01/31 12:43:45.6	112.560	0.180	-0.840	1.550
2020/01/31 12:43:45.7	112.550	0.200	-0.800	1.620
2020/01/31 12:43:45.8	112.540	0.210	-0.760	1.680
2020/01/31 12:43:45.9	112.540	0.220	-0.710	1.750
2020/01/31 12:43:46.0	112.530	0.230	-0.650	1.810
2020/01/31 12:43:46.1	112.520	0.230	-0.590	1.870
2020/01/31 12:43:46.2	112.520	0.230	-0.520	1.930
2020/01/31 12:43:46.3	112.510	0.230	-0.450	1.990
2020/01/31 12:43:46.4	112.510	0.220	-0.380	2.040
2020/01/31 12:43:46.5	112.520	0.220	-0.300	2.090
2020/01/31 12:43:46.6	112.520	0.200	-0.220	2.140
2020/01/31 12:43:46.7	112.520	0.190	-0.130	2.180
2020/01/31 12:43:46.8	112.520	0.170	-0.050	2.220
2020/01/31 12:43:46.9	112.520	0.150	0.030	2.260
2020/01/31 12:43:47.0	112.520	0.130	0.110	2.290
2020/01/31 12:43:47.1	112.520	0.100	0.200	2.320
2020/01/31 12:43:47.2	112.530	0.070	0.280	2.340
2020/01/31 12:43:47.3	112.530	0.040	0.360	2.360
2020/01/31 12:43:47.4	112.540	0.010	0.430	2.370
2020/01/31 12:43:47.5	112.540	-0.020	0.500	2.380
2020/01/31 12:43:47.6	112.540	-0.050	0.570	2.390
2020/01/31 12:43:47.7	112.550	-0.090	0.640	2.390
2020/01/31 12:43:47.8	112.550	-0.120	0.700	2.390
2020/01/31 12:43:47.9	112.550	-0.150	0.750	2.380
2020/01/31 12:43:48.0	112.560	-0.190	0.800	2.370
2020/01/31 12:43:48.1	112.560	-0.220	0.840	2.360
2020/01/31 12:43:48.2	112.560	-0.250	0.880	2.350
2020/01/31 12:43:48.3	112.570	-0.280	0.900	2.330
2020/01/31 12:43:48.4	112.570	-0.310	0.920	2.310
2020/01/31 12:43:48.5	112.560	-0.330	0.940	2.280
2020/01/31 12:43:48.6	112.560	-0.360	0.940	2.260
2020/01/31 12:43:48.7	112.560	-0.380	0.940	2.230
2020/01/31 12:43:48.8	112.550	-0.400	0.930	2.200
2020/01/31 12:43:48.9	112.550	-0.410	0.910	2.170
2020/01/31 12:43:49.0	112.550	-0.430	0.890	2.130
2020/01/31 12:43:49.1	112.550	-0.440	0.860	2.100
2020/01/31 12:43:49.2	112.540	-0.450	0.820	2.060
2020/01/31 12:43:49.3	112.540	-0.450	0.770	2.020
2020/01/31 12:43:49.4	112.540	-0.460	0.720	1.980
2020/01/31 12:43:49.5	112.530	-0.460	0.660	1.940
2020/01/31 12:43:49.6	112.530	-0.450	0.590	1.890
2020/01/31 12:43:49.7	112.520	-0.450	0.530	1.850
2020/01/31 12:43:49.8	112.520	-0.440	0.450	1.810
2020/01/31 12:43:49.9	112.520	-0.430	0.370	1.760
2020/01/31 12:43:50.0	112.520	-0.420	0.290	1.710
2020/01/31 12:43:50.1	112.520	-0.400	0.200	1.670
2020/01/31 12:43:50.2	112.520	-0.380	0.110	1.620
2020/01/31 12:43:50.3	112.530	-0.360	0.020	1.570
2020/01/31 12:43:50.4	112.530	-0.330	-0.080	1.520
2020/01/31 12:43:50.5	112.540	-0.310	-0.170	1.470
2020/01/31 12:43:50.6	112.550	-0.280	-0.270	1.430
2020/01/31 12:43:50.7	112.560	-0.250	-0.360	1.380
2020/01/31 12:43:50.8	112.560	-0.220	-0.460	1.340
2020/01/31 12:43:50.9	112.570	-0.190	-0.560	1.290
2020/01/31 12:43:51.0	112.580	-0.150	-0.650	1.250
2020/01/31 12:43:51.1	112.600	-0.120	-0.740	1.210
2020/01/31 12:43:51.2	112.610	-0.080	-0.830	1.170
2020/01/31 12:43:51.3	112.620	-0.050	-0.910	1.140
2020/01/31 12:43:51.4	112.630	-0.010	-0.990	1.100
2020/01/31 12:43:51.5	112.650	0.020	-1.070	1.070
2020/01/31 12:43:51.6	112.660	0.060	-1.140	1.040
2020/01/31 12:43:51.7	112.670	0.090	-1.200	1.010
2020/01/31 12:43:51.8	112.680	0.120	-1.250	0.990
2020/01/31 12:43:51.9	112.690	0.160	-1.300	0.960
2020/01/31 12:43:52.0	112.700	0.190	-1.340	0.940
2020/01/31 12:43:52.1	112.700	0.220	-1.380	0.920
2020/01/31 12:43:52.2	112.710	0.240	-1.400	0.900
2020/01/31 12:43:52.3	112.710	0.270	-1.410	0.890
2020/01/31 12:43:52.4	112.710	0.290	-1.420	0.880
2020/01/31 12:43:52.5	112.690	0.310	-1.420	0.860
2020/01/31 12:43:52.6	112.690	0.330	-1.400	0.850
2020/01/31 12:43:52.7	112.680	0.340	-1.380	0.840
2020/01/31 12:43:52.8	112.680	0.350	-1.350	0.840
2020/01/31 12:43:52.9	112.670	0.360	-1.310	0.830
2020/01/31 12:43:53.0	112.660	0.360	-1.260	0.830
2020/01/31 12:43:53.1	112.650	0.360	-1.200	0.820
2020/01/31 12:43:53.2	112.640	0.360	-1.130	0.820
2020/01/31 12:43:53.3	112.630	0.350	-1.060	0.820
2020/01/31 12:43:53.4	112.610	0.350	-0.980	0.810
2020/01/31 12:43:53.5	112.590	0.340	-0.890	0.810
2020/01/31 12:43:53.6	112.570	0.320	-0.800	0.810
2020/01/31 12:43:53.7	112.560	0.310	-0.700	0.810
2020/01/31 12:43:53.8	112.540	0.290	-0.610	0.810
2020/01/31 12:43:53.9	112.530	0.270	-0.510	0.810
2020/01/31 12:43:54.0	112.510	0.250	-0.400	0.810
2020/01/31 12:43:54.1	112.490	0.220	-0.300	0.810
2020/01/31 12:43:54.2	112.480	0.200	-0.200	0.800
2020/01/31 12:43:54.3	112.460	0.180	-0.100	0.800
2020/01/31 12:43:54.4	112.440	0.150	0.000	0.800
2020/01/31 12:43:54.5	112.430	0.130	0.100	0.800
2020/01/31 12:43:54.6	112.410	0.100	0.190	0.800
2020/01/31 12:43:54.7	112.400	0.080	0.280	0.790
2020/01/31 12:43:54.8	112.380	0.050	0.370	0.790
2020/01/31 12:43:54.9	112.370	0.030	0.440	0.790
2020/01/31 12:43:55.0	112.350	0.010	0.520	0.780
2020/01/31 12:43:55.1	112.330	-0.010	0.590	0.780
2020/01/31 12:43:55.2	112.320	-0.030	0.650	0.780
2020/01/31 12:43:55.3	112.300	-0.050	0.700	0.770
2020/01/31 12:43:55.4	112.290	-0.060	0.750	0.770
2020/01/31 12:43:55.5	112.280	-0.080	0.800	0.770
2020/01/31 12:43:55.6	112.260	-0.090	0.830	0.760
2020/01/31 12:43:55.7	112.250	-0.100	0.860	0.760
2020/01/31 12:43:55.8	112.230	-0.110	0.880	0.750
2020/01/31 12:43:55.9	112.220	-0.110	0.890	0.750
2020/01/31 12:43:56.0	112.210	-0.120	0.900	0.750
2020/01/31 12:43:56.1	112.200	-0.120	0.900	0.740
2020/01/31 12:43:56.2	112.190	-0.120	0.900	0.740
2020/01/31 12:43:56.3	112.180	-0.120	0.890	0.740
2020/01/31 12:43:56.4	112.170	-0.110	0.870	0.730
2020/01/31 12:43:56.5	112.170	-0.110	0.840	0.730
2020/01/31 12:43:56.6	112.160	-0.100	0.820	0.720
2020/01/31 12:43:56.7	112.160	-0.090	0.780	0.720
2020/01/31 12:43:56.8	112.150	-0.080	0.750	0.710
2020/01/31 12:43:56.9	112.150	-0.070	0.710	0.710
2020/01/31 12:43:57.0	112.150	-0.060	0.660	0.700
2020/01/31 12:43:57.1	112.150	-0.040	0.610	0.700
2020/01/31 12:43:57.2	112.150	-0.030	0.560	0.690
2020/01/31 12:43:57.3	112.150	-0.010	0.510	0.680
2020/01/31 12:43:57.4	112.160	0.000	0.450	0.680
2020/01/31 12:43:57.5	112.180	0.020	0.390	0.670
2020/01/31 12:43:57.6	112.180	0.030	0.330	0.660
2020/01/31 12:43:57.7	112.190	0.050	0.270	0.650
2020/01/31 12:43:57.8	112.200	0.070	0.200	0.640
2020/01/31 12:43:57.9	112.210	0.080	0.140	0.640
2020/01/31 12:43:58.0	112.230	0.100	0.080	0.630
2020/01/31 12:43:58.1	112.240	0.120	0.010	0.620
2020/01/31 12:43:58.2	112.250	0.130	-0.050	0.610
2020/01/31 12:43:58.3	112.270	0.150	-0.120	0.600
2020/01/31 12:43:58.4	112.280	0.160	-0.180	0.600
2020/01/31 12:43:58.5	112.300	0.180	-0.250	0.590
2020/01/31 12:43:58.6	112.310	0.190	-0.310	0.580
2020/01/31 12:43:58.7	112.330	0.200	-0.370	0.580
2020/01/31 12:43:58.8	112.340	0.210	-0.430	0.580
2020/01/31 12:43:58.9	112.360	0.230	-0.480	0.580
2020/01/31 12:43:59.0	112.370	0.240	-0.540	0.580
2020/01/31 12:43:59.1	112.380	0.250	-0.590	0.590
2020/01/31 12:43:59.2	112.400	0.250	-0.640	0.600
2020/01/31 12:43:59.3	112.410	0.260	-0.690	0.610
2020/01/31 12:43:59.4	112.420	0.270	-0.730	0.630
2020/01/31 12:43:59.5	112.420	0.280	-0.770	0.650
2020/01/31 12:43:59.6	112.420	0.280	-0.810	0.670
2020/01/31 12:43:59.7	112.430	0.290	-0.850	0.700
2020/01/31 12:43:59.8	112.430	0.290	-0.880	0.730
2020/01/31 12:43:59.9	112.430	0.290	-0.910	0.770
2020/01/31 12:44:00.0	112.430	0.290	-0.940	0.810
2020/01/31 12:44:00.1	112.430	0.300	-0.960	0.850
2020/01/31 12:44:00.2	112.420	0.300	-0.980	0.900
2020/01/31 12:44:00.3	112.420	0.300	-1.000	0.950
2020/01/31 12:44:00.4	112.410	0.290	-1.020	1.010
2020/01/31 12:44:00.5	112.390	0.290	-1.030	1.070
2020/01/31 12:44:00.6	112.380	0.290	-1.040	1.140
2020/01/31 12:44:00.7	112.360	0.290	-1.040	1.210
2020/01/31 12:44:00.8	112.340	0.280	-1.040	1.280
2020/01/31 12:44:00.9	112.320	0.280	-1.040	1.350
2020/01/31 12:44:01.0	112.300	0.270	-1.030	1.420
2020/01/31 12:44:01.1	112.280	0.270	-1.020	1.500
2020/01/31 12:44:01.2	112.250	0.260	-1.010	1.570
2020/01/31 12:44:01.3	112.230	0.250	-0.990	1.650
2020/01/31 12:44:01.4	112.200	0.240	-0.960	1.720
2020/01/31 12:44:01.5	112.180	0.230	-0.930	1.800
2020/01/31 12:44:01.6	112.150	0.220	-0.900	1.880
2020/01/31 12:44:01.7	112.130	0.210	-0.870	1.950
2020/01/31 12:44:01.8	112.100	0.200	-0.830	2.020
2020/01/31 12:44:01.9	112.080	0.190	-0.790	2.090
2020/01/31 12:44:02.0	112.050	0.180	-0.740	2.160
2020/01/31 12:44:02.1	112.020	0.160	-0.690	2.230
2020/01/31 12:44:02.2	112.000	0.150	-0.640	2.290
2020/01/31 12:44:02.3	111.980	0.130	-0.590	2.350
2020/01/31 12:44:02.4	111.960	0.110	-0.530	2.410
2020/01/31 12:44:02.5	111.950	0.100	-0.470	2.460
2020/01/31 12:44:02.6	111.930	0.080	-0.410	2.510
2020/01/31 12:44:02.7	111.910	0.060	-0.340	2.560
2020/01/31 12:44:02.8	111.890	0.040	-0.280	2.610
2020/01/31 12:44:02.9	111.870	0.020	-0.210	2.650
2020/01/31 12:44:03.0	111.860	-0.000	-0.140	2.690
2020/01/31 12:44:03.1	111.840	-0.030	-0.070	2.730
2020/01/31 12:44:03.2	111.820	-0.050	-0.010	2.770
2020/01/31 12:44:03.3	111.810	-0.070	0.060	2.800
2020/01/31 12:44:03.4	111.790	-0.100	0.130	2.830
2020/01/31 12:44:03.5	111.770	-0.120	0.190	2.860
2020/01/31 12:44:03.6	111.760	-0.150	0.250	2.880
2020/01/31 12:44:03.7	111.750	-0.170	0.310	2.900
2020/01/31 12:44:03.8	111.740	-0.200	0.370	2.920
2020/01/31 12:44:03.9	111.720	-0.230	0.430	2.930
2020/01/31 12:44:04.0	111.710	-0.250	0.480	2.940
2020/01/31 12:44:04.1	111.700	-0.280	0.530	2.940
2020/01/31 12:44:04.2	111.700	-0.300	0.570	2.950
2020/01/31 12:44:04.3	111.690	-0.330	0.610	2.940
2020/01/31 12:44:04.4	111.680	-0.360	0.650	2.940
2020/01/31 12:44:04.5	111.680	-0.380	0.680	2.920
2020/01/31 12:44:04.6	111.680	-0.410	0.710	2.900
2020/01/31 12:44:04.7	111.680	-0.430	0.730	2.880
2020/01/31 12:44:04.8	111.680	-0.450	0.750	2.860
2020/01/31 12:44:04.9	111.680	-0.470	0.760	2.820
2020/01/31 12:44:05.0	111.690	-0.490	0.770	2.790
2020/01/31 12:44:05.1	111.690	-0.510	0.770	2.740
2020/01/31 12:44:05.2	111.700	-0.530	0.770	2.690
2020/01/31 12:44:05.3	111.720	-0.540	0.760	2.640
2020/01/31 12:44:05.4	111.730	-0.560	0.750	2.570
2020/01/31 12:44:05.5	111.760	-0.570	0.730	2.510
2020/01/31 12:44:05.6	111.770	-0.580	0.710	2.430
2020/01/31 12:44:05.7	111.800	-0.580	0.680	2.350
2020/01/31 12:44:05.8	111.820	-0.590	0.650	2.270
2020/01/31 12:44:05.9	111.840	-0.590	0.610	2.180
2020/01/31 12:44:06.0	111.870	-0.590	0.570	2.090
2020/01/31 12:44:06.1	111.900	-0.580	0.520	1.990
2020/01/31 12:44:06.2	111.930	-0.580	0.470	1.890
2020/01/31 12:44:06.3	111.960	-0.570	0.420	1.780
2020/01/31 12:44:06.4	111.990	-0.560	0.370	1.680
2020/01/31 12:44:06.5	112.010	-0.550	0.310	1.560
2020/01/31 12:44:06.6	112.040	-0.540	0.250	1.460
2020/01/31 12:44:06.7	112.070	-0.520	0.190	1.350
2020/01/31 12:44:06.8	112.100	-0.500	0.130	1.240
2020/01/31 12:44:06.9	112.130	-0.480	0.070	1.140
2020/01/31 12:44:07.0	112.150	-0.460	0.000	1.030
2020/01/31 12:44:07.1	112.180	-0.440	-0.060	0.930
2020/01/31 12:44:07.2	112.200	-0.410	-0.120	0.830
2020/01/31 12:44:07.3	112.220	-0.390	-0.190	0.730
2020/01/31 12:44:07.4	112.240	-0.360	-0.250	0.640
2020/01/31 12:44:07.5	112.260	-0.340	-0.310	0.560
2020/01/31 12:44:07.6	112.280	-0.310	-0.370	0.470
2020/01/31 12:44:07.7	112.290	-0.280	-0.430	0.390
2020/01/31 12:44:07.8	112.300	-0.250	-0.480	0.320
2020/01/31 12:44:07.9	112.310	-0.230	-0.530	0.250
2020/01/31 12:44:08.0	112.310	-0.200	-0.580	0.190
2020/01/31 12:44:08.1	112.310	-0.170	-0.620	0.140
2020/01/31 12:44:08.2	112.300	-0.140	-0.660	0.090
2020/01/31 12:44:08.3	112.300	-0.120	-0.700	0.050
2020/01/31 12:44:08.4	112.290	-0.090	-0.730	0.010
2020/01/31 12:44:08.5	112.260	-0.070	-0.760	-0.030
2020/01/31 12:44:08.6	112.250	-0.040	-0.780	-0.060
2020/01/31 12:44:08.7	112.230	-0.020	-0.800	-0.080
2020/01/31 12:44:08.8	112.210	0.000	-0.820	-0.090
2020/01/31 12:44:08.9	112.180	0.020	-0.820	-0.100
2020/01/31 12:44:09.0	112.150	0.040	-0.830	-0.100
2020/01/31 12:44:09.1	112.120	0.060	-0.830	-0.100
2020/01/31 12:44:09.2	112.090	0.080	-0.820	-0.100
2020/01/31 12:44:09.3	112.060	0.100	-0.810	-0.090
2020/01/31 12:44:09.4	112.020	0.110	-0.800	-0.070
2020/01/31 12:44:09.5	111.980	0.130	-0.780	-0.050
2020/01/31 12:44:09.6	111.940	0.140	-0.760	-0.030
2020/01/31 12:44:09.7	111.900	0.150	-0.730	-0.000
2020/01/31 12:44:09.8	111.850	0.160	-0.700	0.020
2020/01/31 12:44:09.9	111.810	0.180	-0.670	0.050
2020/01/31 12:44:10.0	111.760	0.190	-0.640	0.090
2020/01/31 12:44:10.1	111.720	0.190	-0.600	0.120
2020/01/31 12:44:10.2	111.670	0.200	-0.560	0.160
2020/01/31 12:44:10.3	111.620	0.210	-0.530	0.190
2020/01/31 12:44:10.4	111.580	0.220	-0.490	0.230
2020/01/31 12:44:10.5	111.540	0.230	-0.450	0.270
2020/01/31 12:44:10.6	111.490	0.230	-0.410	0.310
2020/01/31 12:44:10.7	111.450	0.240	-0.370	0.340
2020/01/31 12:44:10.8	111.400	0.250	-0.330	0.380
2020/01/31 12:44:10.9	111.360	0.260	-0.300	0.410
2020/01/31 12:44:11.0	111.320	0.270	-0.260	0.450
2020/01/31 12:44:11.1	111.280	0.280	-0.230	0.480
2020/01/31 12:44:11.2	111.240	0.290	-0.200	0.500
2020/01/31 12:44:11.3	111.210	0.300	-0.170	0.530
2020/01/31 12:44:11.4	111.180	0.310	-0.150	0.550
2020/01/31 12:44:11.5	111.160	0.320	-0.130	0.570
2020/01/31 12:44:11.6	111.130	0.330	-0.110	0.590
2020/01/31 12:44:11.7	111.110	0.350	-0.090	0.600
2020/01/31 12:44:11.8	111.090	0.360	-0.080	0.620
2020/01/31 12:44:11.9	111.070	0.380	-0.070	0.620
2020/01/31 12:44:12.0	111.050	0.390	-0.060	0.630
2020/01/31 12:44:12.1	111.040	0.410	-0.050	0.630
2020/01/31 12:44:12.2	111.040	0.420	-0.050	0.640
2020/01/31 12:44:12.3	111.030	0.440	-0.050	0.630
2020/01/31 12:44:12.4	111.030	0.450	-0.050	0.630
2020/01/31 12:44:12.5	111.050	0.470	-0.050	0.620
2020/01/31 12:44:12.6	111.060	0.480	-0.060	0.610
2020/01/31 12:44:12.7	111.070	0.500	-0.060	0.600
2020/01/31 12:44:12.8	111.090	0.510	-0.070	0.590
2020/01/31 12:44:12.9	111.110	0.530	-0.070	0.580
2020/01/31 12:44:13.0	111.130	0.540	-0.080	0.570
2020/01/31 12:44:13.1	111.150	0.550	-0.080	0.560
2020/01/31 12:44:13.2	111.180	0.560	-0.090	0.540
2020/01/31 12:44:13.3	111.210	0.560	-0.090	0.530
2020/01/31 12:44:13.4	111.250	0.570	-0.100	0.520
2020/01/31 12:44:13.5	111.280	0.570	-0.100	0.510
2020/01/31 12:44:13.6	111.320	0.570	-0.100	0.500
2020/01/31 12:44:13.7	111.350	0.570	-0.100	0.490
2020/01/31 12:44:13.8	111.390	0.570	-0.100	0.480
2020/01/31 12:44:13.9	111.430	0.560	-0.090	0.480
2020/01/31 12:44:14.0	111.470	0.550	-0.090	0.480
2020/01/31 12:44:14.1	111.500	0.540	-0.080	0.480
2020/01/31 12:44:14.2	111.540	0.530	-0.080	0.480
2020/01/31 12:44:14.3	111.570	0.510	-0.070	0.490
2020/01/31 12:44:14.4	111.600	0.490	-0.060	0.500
2020/01/31 12:44:14.5	111.620	0.470	-0.050	0.520
2020/01/31 12:44:14.6	111.650	0.450	-0.040	0.540
2020/01/31 12:44:14.7	111.670	0.430	-0.020	0.570
2020/01/31 12:44:14.8	111.690	0.400	-0.010	0.600
2020/01/31 12:44:14.9	111.700	0.370	0.010	0.630
2020/01/31 12:44:15.0	111.720	0.340	0.020	0.680
2020/01/31 12:44:15.1	111.720	0.310	0.040	0.730
2020/01/31 12:44:15.2	111.730	0.280	0.050	0.780
2020/01/31 12:44:15.3	111.730	0.250	0.070	0.840
2020/01/31 12:44:15.4	111.720	0.210	0.080	0.900
2020/01/31 12:44:15.5	111.710	0.180	0.100	0.970
2020/01/31 12:44:15.6	111.700	0.150	0.110	1.040
2020/01/31 12:44:15.7	111.690	0.110	0.130	1.120
2020/01/31 12:44:15.8	111.670	0.080	0.130	1.200
2020/01/31 12:44:15.9	111.650	0.050	0.140	1.280
2020/01/31 12:44:16.0	111.630	0.010	0.150	1.360
2020/01/31 12:44:16.1	111.600	-0.020	0.150	1.450
2020/01/31 12:44:16.2	111.570	-0.050	0.150	1.540
2020/01/31 12:44:16.3	111.550	-0.080	0.150	1.620
2020/01/31 12:44:16.4	111.520	-0.110	0.140	1.710
2020/01/31 12:44:16.5	111.480	-0.140	0.130	1.800
2020/01/31 12:44:16.6	111.450	-0.170	0.120	1.880
2020/01/31 12:44:16.7	111.420	-0.190	0.110	1.970
2020/01/31 12:44:16.8	111.390	-0.220	0.090	2.050
2020/01/31 12:44:16.9	111.360	-0.240	0.080	2.140
2020/01/31 12:44:17.0	111.340	-0.260	0.060	2.220
2020/01/31 12:44:17.1	111.310	-0.280	0.030	2.290
2020/01/31 12:44:17.2	111.280	-0.300	0.010	2.370
2020/01/31 12:44:17.3	111.260	-0.320	-0.010	2.440
2020/01/31 12:44:17.4	111.240	-0.340	-0.040	2.510
2020/01/31 12:44:17.5	111.220	-0.350	-0.070	2.570
2020/01/31 12:44:17.6	111.200	-0.360	-0.100	2.640
2020/01/31 12:44:17.7	111.180	-0.380	-0.130	2.700
2020/01/31 12:44:17.8	111.160	-0.390	-0.160	2.750
2020/01/31 12:44:17.9	111.150	-0.390	-0.190	2.800
2020/01/31 12:44:18.0	111.130	-0.400	-0.210	2.850
2020/01/31 12:44:18.1	111.120	-0.410	-0.240	2.890
2020/01/31 12:44:18.2	111.110	-0.410	-0.270	2.930
2020/01/31 12:44:18.3	111.100	-0.420	-0.290	2.970
2020/01/31 12:44:18.4	111.090	-0.420	-0.310	3.000
2020/01/31 12:44:18.5	111.080	-0.420	-0.330	3.020
2020/01/31 12:44:18.6	111.070	-0.420	-0.350	3.040
2020/01/31 12:44:18.7	111.070	-0.420	-0.370	3.060
2020/01/31 12:44:18.8	111.060	-0.420	-0.380	3.070
2020/01/31 12:44:18.9	111.060	-0.420	-0.390	3.080
2020/01/31 12:44:19.0	111.050	-0.410	-0.410	3.090
2020/01/31 12:44:19.1	111.050	-0.410	-0.410	3.090
2020/01/31 12:44:19.2	111.040	-0.400	-0.420	3.080
2020/01/31 12:44:19.3	111.040	-0.400	-0.420	3.080
2020/01/31 12:44:19.4	111.040	-0.390	-0.420	3.060
2020/01/31 12:44:19.5	111.020	-0.380	-0.430	3.050
2020/01/31 12:44:19.6	111.020	-0.380	-0.430	3.030
2020/01/31 12:44:19.7	111.010	-0.370	-0.430	3.010
2020/01/31 12:44:19.8	111.010	-0.360	-0.420	2.980
2020/01/31 12:44:19.9	111.000	-0.350	-0.410	2.950
2020/01/31 12:44:20.0	110.990	-0.340	-0.400	2.920
2020/01/31 12:44:20.1	110.980	-0.320	-0.390	2.890
2020/01/31 12:44:20.2	110.970	-0.310	-0.380	2.860
2020/01/31 12:44:20.3	110.960	-0.300	-0.370	2.820
2020/01/31 12:44:20.4	110.950	-0.290	-0.350	2.780
2020/01/31 12:44:20.5	110.930	-0.270	-0.340	2.740
2020/01/31 12:44:20.6	110.920	-0.260	-0.320	2.700
2020/01/31 12:44:20.7	110.900	-0.240	-0.310	2.660
2020/01/31 12:44:20.8	110.880	-0.230	-0.290	2.610
2020/01/31 12:44:20.9	110.860	-0.210	-0.280	2.560
2020/01/31 12:44:21.0	110.840	-0.200	-0.260	2.520
2020/01/31 12:44:21.1	110.830	-0.180	-0.250	2.460
2020/01/31 12:44:21.2	110.810	-0.170	-0.240	2.410
2020/01/31 12:44:21.3	110.790	-0.150	-0.220	2.360
2020/01/31 12:44:21.4	110.770	-0.140	-0.210	2.300
2020/01/31 12:44:21.5	110.750	-0.120	-0.200	2.240
2020/01/31 12:44:21.6	110.740	-0.110	-0.190	2.180
2020/01/31 12:44:21.7	110.720	-0.090	-0.180	2.120
2020/01/31 12:44:21.8	110.710	-0.080	-0.170	2.050
2020/01/31 12:44:21.9	110.700	-0.070	-0.160	1.990
2020/01/31 12:44:22.0	110.680	-0.050	-0.150	1.920
2020/01/31 12:44:22.1	110.680	-0.040	-0.140	1.850
2020/01/31 12:44:22.2	110.670	-0.030	-0.140	1.770
2020/01/31 12:44:22.3	110.660	-0.020	-0.130	1.700
2020/01/31 12:44:22.4	110.660	-0.010	-0.130	1.620
2020/01/31 12:44:22.5	110.640	0.000	-0.120	1.530
2020/01/31 12:44:22.6	110.640	0.010	-0.120	1.450
2020/01/31 12:44:22.7	110.650	0.020	-0.110	1.370
2020/01/31 12:44:22.8	110.650	0.030	-0.110	1.280
2020/01/31 12:44:22.9	110.660	0.040	-0.110	1.190
2020/01/31 12:44:23.0	110.670	0.040	-0.110	1.100
2020/01/31 12:44:23.1	110.690	0.050	-0.110	1.010
2020/01/31 12:44:23.2	110.700	0.050	-0.110	0.920
2020/01/31 12:44:23.3	110.720	0.060	-0.110	0.820
2020/01/31 12:44:23.4	110.730	0.060	-0.110	0.730
2020/01/31 12:44:23.5	110.760	0.070	-0.120	0.630
2020/01/31 12:44:23.6	110.780	0.070	-0.120	0.540
2020/01/31 12:44:23.7	110.790	0.070	-0.120	0.450
2020/01/31 12:44:23.8	110.810	0.070	-0.130	0.360
2020/01/31 12:44:23.9	110.830	0.070	-0.130	0.270
2020/01/31 12:44:24.0	110.840	0.080	-0.140	0.190
2020/01/31 12:44:24.1	110.860	0.080	-0.140	0.110
2020/01/31 12:44:24.2	110.870	0.080	-0.140	0.030
2020/01/31 12:44:24.3	110.890	0.070	-0.140	-0.050
2020/01/31 12:44:24.4	110.900	0.070	-0.140	-0.120
2020/01/31 12:44:24.5	110.910	0.070	-0.150	-0.190
2020/01/31 12:44:24.6	110.920	0.070	-0.140	-0.260
2020/01/31 12:44:24.7	110.920	0.070	-0.140	-0.320
2020/01/31 12:44:24.8	110.920	0.070	-0.130	-0.380
2020/01/31 12:44:24.9	110.920	0.070	-0.130	-0.430
2020/01/31 12:44:25.0	110.920	0.060	-0.120	-0.480
2020/01/31 12:44:25.1	110.910	0.060	-0.110	-0.520
2020/01/31 12:44:25.2	110.910	0.060	-0.090	-0.560
2020/01/31 12:44:25.3	110.900	0.060	-0.080	-0.600
2020/01/31 12:44:25.4	110.890	0.060	-0.070	-0.620
2020/01/31 12:44:25.5	110.890	0.050	-0.050	-0.650
2020/01/31 12:44:25.6	110.870	0.050	-0.030	-0.670
2020/01/31 12:44:25.7	110.850	0.050	-0.020	-0.680
2020/01/31 12:44:25.8	110.830	0.050	-0.000	-0.700
2020/01/31 12:44:25.9	110.810	0.050	0.010	-0.700
2020/01/31 12:44:26.0	110.790	0.040	0.030	-0.710
2020/01/31 12:44:26.1	110.770	0.040	0.050	-0.710
2020/01/31 12:44:26.2	110.750	0.040	0.060	-0.700
2020/01/31 12:44:26.3	110.720	0.040	0.070	-0.690
2020/01/31 12:44:26.4	110.690	0.040	0.090	-0.680
2020/01/31 12:44:26.5	110.660	0.040	0.100	-0.660
2020/01/31 12:44:26.6	110.640	0.040	0.110	-0.640
2020/01/31 12:44:26.7	110.610	0.040	0.110	-0.620
2020/01/31 12:44:26.8	110.580	0.040	0.120	-0.590
2020/01/31 12:44:26.9	110.550	0.040	0.120	-0.560
2020/01/31 12:44:27.0	110.520	0.040	0.120	-0.520
2020/01/31 12:44:27.1	110.490	0.040	0.120	-0.480
2020/01/31 12:44:27.2	110.460	0.050	0.110	-0.440
2020/01/31 12:44:27.3	110.430	0.050	0.100	-0.400
2020/01/31 12:44:27.4	110.400	0.050	0.090	-0.350
2020/01/31 12:44:27.5	110.380	0.060	0.080	-0.300
2020/01/31 12:44:27.6	110.360	0.060	0.070	-0.250
2020/01/31 12:44:27.7	110.330	0.070	0.050	-0.200
2020/01/31 12:44:27.8	110.300	0.070	0.020	-0.140
2020/01/31 12:44:27.9	110.280	0.080	-0.000	-0.080
2020/01/31 12:44:28.0	110.250	0.090	-0.030	-0.010
2020/01/31 12:44:28.1	110.230	0.100	-0.060	0.050
2020/01/31 12:44:28.2	110.210	0.110	-0.100	0.120
2020/01/31 12:44:28.3	110.200	0.120	-0.130	0.180
2020/01/31 12:44:28.4	110.180	0.130	-0.170	0.250
2020/01/31 12:44:28.5	110.150	0.140	-0.210	0.320
2020/01/31 12:44:28.6	110.140	0.150	-0.250	0.390
2020/01/31 12:44:28.7	110.130	0.160	-0.300	0.460
2020/01/31 12:44:28.8	110.130	0.170	-0.340	0.520
2020/01/31 12:44:28.9	110.130	0.180	-0.380	0.590
2020/01/31 12:44:29.0	110.120	0.190	-0.430	0.660
2020/01/31 12:44:29.1	110.130	0.210	-0.470	0.720
2020/01/31 12:44:29.2	110.130	0.220	-0.520	0.780
2020/01/31 12:44:29.3	110.140	0.230	-0.560	0.840
2020/01/31 12:44:29.4	110.150	0.240	-0.600	0.900
2020/01/31 12:44:29.5	110.160	0.250	-0.630	0.960
2020/01/31 12:44:29.6	110.170	0.260	-0.670	1.020
2020/01/31 12:44:29.7	110.190	0.270	-0.710	1.070
2020/01/31 12:44:29.8	110.200	0.280	-0.740	1.130
2020/01/31 12:44:29.9	110.220	0.290	-0.760	1.180
2020/01/31 12:44:30.0	110.230	0.300	-0.790	1.230
2020/01/31 12:44:30.1	110.250	0.310	-0.810	1.280
2020/01/31 12:44:30.2	110.270	0.310	-0.820	1.330
2020/01/31 12:44:30.3	110.290	0.320	-0.830	1.380
2020/01/31 12:44:30.4	110.310	0.320	-0.830	1.430
2020/01/31 12:44:30.5	110.320	0.320	-0.840	1.470
2020/01/31 12:44:30.6	110.340	0.320	-0.830	1.520
2020/01/31 12:44:30.7	110.360	0.320	-0.820	1.560
2020/01/31 12:44:30.8	110.380	0.310	-0.800	1.600
2020/01/31 12:44:30.9	110.400	0.310	-0.780	1.640
2020/01/31 12:44:31.0	110.420	0.300	-0.750	1.690
2020/01/31 12:44:31.1	110.440	0.300	-0.720	1.730
2020/01/31 12:44:31.2	110.450	0.290	-0.680	1.770
2020/01/31 12:44:31.3	110.470	0.280	-0.640	1.810
2020/01/31 12:44:31.4	110.480	0.260	-0.590	1.850
2020/01/31 12:44:31.5	110.500	0.250	-0.540	1.890
2020/01/31 12:44:31.6	110.510	0.240	-0.480	1.930
2020/01/31 12:44:31.7	110.530	0.220	-0.420	1.970
2020/01/31 12:44:31.8	110.540	0.200	-0.360	2.010
2020/01/31 12:44:31.9	110.550	0.190	-0.290	2.050
2020/01/31 12:44:32.0	110.550	0.170	-0.220	2.090
2020/01/31 12:44:32.1	110.560	0.150	-0.150	2.130
2020/01/31 12:44:32.2	110.570	0.130	-0.080	2.170
2020/01/31 12:44:32.3	110.570	0.110	-0.010	2.210
2020/01/31 12:44:32.4	110.570	0.090	0.060	2.250
2020/01/31 12:44:32.5	110.580	0.070	0.130	2.300
2020/01/31 12:44:32.6	110.580	0.050	0.200	2.340
2020/01/31 12:44:32.7	110.580	0.030	0.270	2.390
2020/01/31 12:44:32.8	110.570	0.000	0.330	2.430
2020/01/31 12:44:32.9	110.570	-0.020	0.400	2.470
2020/01/31 12:44:33.0	110.560	-0.040	0.450	2.520
2020/01/31 12:44:33.1	110.560	-0.060	0.510	2.560
2020/01/31 12:44:33.2	110.550	-0.080	0.560	2.600
2020/01/31 12:44:33.3	110.530	-0.100	0.600	2.650
2020/01/31 12:44:33.4	110.520	-0.120	0.640	2.690
2020/01/31 12:44:33.5	110.500	-0.130	0.670	2.720
2020/01/31 12:44:33.6	110.490	-0.150	0.700	2.760
2020/01/31 12:44:33.7	110.470	-0.170	0.720	2.800
2020/01/31 12:44:33.8	110.450	-0.180	0.740	2.830
2020/01/31 12:44:33.9	110.430	-0.200	0.750	2.870
2020/01/31 12:44:34.0	110.410	-0.210	0.760	2.900
2020/01/31 12:44:34.1	110.390	-0.230	0.750	2.920
2020/01/31 12:44:34.2	110.370	-0.240	0.750	2.940
2020/01/31 12:44:34.3	110.350	-0.250	0.730	2.960
2020/01/31 12:44:34.4	110.320	-0.260	0.720	2.970
2020/01/31 12:44:34.5	110.280	-0.270	0.690	2.980
2020/01/31 12:44:34.6	110.260	-0.280	0.660	2.990
2020/01/31 12:44:34.7	110.230	-0.290	0.630	2.980
2020/01/31 12:44:34.8	110.210	-0.290	0.590	2.980
2020/01/31 12:44:34.9	110.180	-0.300	0.550	2.960
2020/01/31 12:44:35.0	110.160	-0.300	0.510	2.950
2020/01/31 12:44:35.1	110.140	-0.310	0.460	2.920
2020/01/31 12:44:35.2	110.120	-0.310	0.410	2.890
2020/01/31 12:44:35.3	110.100	-0.310	0.350	2.850
2020/01/31 12:44:35.4	110.080	-0.310	0.300	2.810
2020/01/31 12:44:35.5	110.050	-0.310	0.240	2.760
2020/01/31 12:44:35.6	110.030	-0.310	0.180	2.710
2020/01/31 12:44:35.7	110.020	-0.310	0.110	2.650
2020/01/31 12:44:35.8	110.010	-0.310	0.050	2.580
2020/01/31 12:44:35.9	109.990	-0.310	-0.010	2.510
2020/01/31 12:44:36.0	109.980	-0.300	-0.080	2.440
2020/01/31 12:44:36.1	109.980	-0.300	-0.140	2.360
2020/01/31 12:44:36.2	109.970	-0.290	-0.210	2.280
2020/01/31 12:44:36.3	109.970	-0.280	-0.270	2.190
2020/01/31 12:44:36.4	109.970	-0.270	-0.330	2.100
2020/01/31 12:44:36.5	109.990	-0.270	-0.390	2.010
2020/01/31 12:44:36.6	109.990	-0.260	-0.450	1.910
2020/01/31 12:44:36.7	110.000	-0.240	-0.510	1.820
2020/01/31 12:44:36.8	110.010	-0.230	-0.560	1.720
2020/01/31 12:44:36.9	110.010	-0.220	-0.610	1.620
2020/01/31 12:44:37.0	110.030	-0.200	-0.660	1.530
2020/01/31 12:44:37.1	110.040	-0.190	-0.710	1.430
2020/01/31 12:44:37.2	110.050	-0.170	-0.750	1.330
2020/01/31 12:44:37.3	110.070	-0.160	-0.790	1.230
2020/01/31 12:44:37.4	110.080	-0.140	-0.830	1.140
2020/01/31 12:44:37.5	110.090	-0.120	-0.860	1.050
2020/01/31 12:44:37.6	110.110	-0.110	-0.900	0.960
2020/01/31 12:44:37.7	110.130	-0.090	-0.920	0.870
2020/01/31 12:44:37.8	110.150	-0.070	-0.950	0.780
2020/01/31 12:44:37.9	110.160	-0.050	-0.970	0.700
2020/01/31 12:44:38.0	110.180	-0.030	-0.980	0.620
2020/01/31 12:44:38.1	110.200	-0.010	-1.000	0.540
2020/01/31 12:44:38.2	110.210	0.010	-1.010	0.470
2020/01/31 12:44:38.3	110.230	0.030	-1.010	0.390
2020/01/31 12:44:38.4	110.240	0.050	-1.010	0.330
2020/01/31 12:44:38.5	110.250	0.070	-1.010	0.260
2020/01/31 12:44:38.6	110.260	0.080	-1.010	0.200
2020/01/31 12:44:38.7	110.270	0.100	-1.000	0.140
2020/01/31 12:44:38.8	110.270	0.120	-0.980	0.080
2020/01/31 12:44:38.9	110.280	0.130	-0.960	0.030
2020/01/31 12:44:39.0	110.290	0.150	-0.940	-0.020
2020/01/31 12:44:39.1	110.290	0.160	-0.910	-0.070
2020/01/31 12:44:39.2	110.290	0.170	-0.880	-0.110
2020/01/31 12:44:39.3	110.290	0.180	-0.850	-0.150
2020/01/31 12:44:39.4	110.290	0.190	-0.810	-0.190
2020/01/31 12:44:39.5	110.300	0.200	-0.770	-0.220
2020/01/31 12:44:39.6	110.300	0.200	-0.720	-0.250
2020/01/31 12:44:39.7	110.290	0.200	-0.670	-0.280
2020/01/31 12:44:39.8	110.290	0.210	-0.620	-0.310
2020/01/31 12:44:39.9	110.280	0.200	-0.570	-0.330
2020/01/31 12:44:40.0	110.270	0.200	-0.510	-0.350
2020/01/31 12:44:40.1	110.260	0.200	-0.450	-0.370
2020/01/31 12:44:40.2	110.250	0.190	-0.380	-0.380
2020/01/31 12:44:40.3	110.230	0.180	-0.320	-0.390
2020/01/31 12:44:40.4	110.220	0.170	-0.250	-0.400
2020/01/31 12:44:40.5	110.190	0.150	-0.190	-0.410
2020/01/31 12:44:40.6	110.170	0.140	-0.120	-0.410
2020/01/31 12:44:40.7	110.160	0.120	-0.050	-0.410
2020/01/31 12:44:40.8	110.140	0.100	0.010	-0.400
2020/01/31 12:44:40.9	110.120	0.080	0.080	-0.390
2020/01/31 12:44:41.0	110.110	0.060	0.140	-0.380
2020/01/31 12:44:41.1	110.090	0.030	0.210	-0.360
2020/01/31 12:44:41.2	110.070	0.010	0.260	-0.340
2020/01/31 12:44:41.3	110.060	-0.020	0.320	-0.320
2020/01/31 12:44:41.4	110.040	-0.040	0.370	-0.300
2020/01/31 12:44:41.5	110.020	-0.070	0.430	-0.260
2020/01/31 12:44:41.6	110.010	-0.090	0.470	-0.230
2020/01/31 12:44:41.7	110.000	-0.120	0.510	-0.200
2020/01/31 12:44:41.8	109.990	-0.150	0.550	-0.160
2020/01/31 12:44:41.9	109.980	-0.170	0.580	-0.120
2020/01/31 12:44:42.0	109.970	-0.190	0.600	-0.080
2020/01/31 12:44:42.1	109.960	-0.220	0.620	-0.040
2020/01/31 12:44:42.2	109.960	-0.240	0.640	-0.000
2020/01/31 12:44:42.3	109.960	-0.260	0.640	0.040
2020/01/31 12:44:42.4	109.960	-0.280	0.650	0.080
2020/01/31 12:44:42.5	109.960	-0.290	0.640	0.130
2020/01/31 12:44:42.6	109.970	-0.300	0.640	0.170
2020/01/31 12:44:42.7	109.980	-0.320	0.620	0.220
2020/01/31 12:44:42.8	109.990	-0.320	0.610	0.260
2020/01/31 12:44:42.9	110.000	-0.330	0.580	0.300
2020/01/31 12:44:43.0	110.010	-0.330	0.560	0.350
2020/01/31 12:44:43.1	110.030	-0.330	0.520	0.390
2020/01/31 12:44:43.2	110.050	-0.330	0.490	0.430
2020/01/31 12:44:43.3	110.060	-0.320	0.440	0.470
2020/01/31 12:44:43.4	110.080	-0.310	0.400	0.520
2020/01/31 12:44:43.5	110.110	-0.300	0.350	0.560
2020/01/31 12:44:43.6	110.130	-0.290	0.300	0.600
2020/01/31 12:44:43.7	110.160	-0.270	0.250	0.650
2020/01/31 12:44:43.8	110.180	-0.250	0.190	0.690
2020/01/31 12:44:43.9	110.200	-0.220	0.130	0.730
2020/01/31 12:44:44.0	110.220	-0.200	0.070	0.780
2020/01/31 12:44:44.1	110.240	-0.170	0.010	0.820
2020/01/31 12:44:44.2	110.260	-0.140	-0.050	0.860
2020/01/31 12:44:44.3	110.280	-0.110	-0.120	0.910
2020/01/31 12:44:44.4	110.300	-0.070	-0.180	0.950
2020/01/31 12:44:44.5	110.330	-0.040	-0.240	0.990
2020/01/31 12:44:44.6	110.340	-0.000	-0.300	1.040
2020/01/31 12:44:44.7	110.360	0.030	-0.360	1.080
2020/01/31 12:44:44.8	110.370	0.070	-0.420	1.120
2020/01/31 12:44:44.9	110.380	0.110	-0.470	1.160
2020/01/31 12:44:45.0	110.390	0.150	-0.520	1.210
2020/01/31 12:44:45.1	110.400	0.190	-0.570	1.250
2020/01/31 12:44:45.2	110.410	0.220	-0.610	1.290
2020/01/31 12:44:45.3	110.420	0.260	-0.640	1.330
2020/01/31 12:44:45.4	110.420	0.300	-0.680	1.370
2020/01/31 12:44:45.5	110.430	0.330	-0.700	1.400
2020/01/31 12:44:45.6	110.430	0.360	-0.720	1.440
2020/01/31 12:44:45.7	110.440	0.390	-0.730	1.470
2020/01/31 12:44:45.8	110.440	0.420	-0.740	1.510
2020/01/31 12:44:45.9	110.430	0.450	-0.740	1.550
2020/01/31 12:44:46.0	110.430	0.470	-0.740	1.580
2020/01/31 12:44:46.1	110.430	0.490	-0.730	1.620
2020/01/31 12:44:46.2	110.430	0.510	-0.710	1.650
2020/01/31 12:44:46.3	110.420	0.520	-0.690	1.690
2020/01/31 12:44:46.4	110.420	0.530	-0.660	1.720
2020/01/31 12:44:46.5	110.420	0.540	-0.630	1.770
2020/01/31 12:44:46.6	110.420	0.550	-0.590	1.800
2020/01/31 12:44:46.7	110.410	0.550	-0.550	1.840
2020/01/31 12:44:46.8	110.400	0.550	-0.510	1.880
2020/01/31 12:44:46.9	110.390	0.550	-0.460	1.910
2020/01/31 12:44:47.0	110.380	0.540	-0.420	1.950
2020/01/31 12:44:47.1	110.370	0.530	-0.370	1.990
2020/01/31 12:44:47.2	110.350	0.520	-0.320	2.030
2020/01/31 12:44:47.3	110.340	0.510	-0.270	2.070
2020/01/31 12:44:47.4	110.330	0.490	-0.220	2.110
2020/01/31 12:44:47.5	110.310	0.470	-0.180	2.150
2020/01/31 12:44:47.6	110.300	0.450	-0.140	2.190
2020/01/31 12:44:47.7	110.280	0.430	-0.090	2.240
2020/01/31 12:44:47.8	110.270	0.400	-0.050	2.280
2020/01/31 12:44:47.9	110.260	0.380	-0.020	2.320
2020/01/31 12:44:48.0	110.240	0.350	0.020	2.360
2020/01/31 12:44:48.1	110.230	0.320	0.050	2.400
2020/01/31 12:44:48.2	110.220	0.290	0.070	2.440
2020/01/31 12:44:48.3	110.200	0.250	0.100	2.480
2020/01/31 12:44:48.4	110.190	0.220	0.110	2.510
2020/01/31 12:44:48.5	110.180	0.190	0.130	2.550
2020/01/31 12:44:48.6	110.170	0.150	0.140	2.580
2020/01/31 12:44:48.7	110.160	0.110	0.150	2.610
2020/01/31 12:44:48.8	110.150	0.080	0.150	2.630
2020/01/31 12:44:48.9	110.140	0.040	0.160	2.650
2020/01/31 12:44:49.0	110.140	0.000	0.160	2.670
2020/01/31 12:44:49.1	110.130	-0.030	0.150	2.680
2020/01/31 12:44:49.2	110.130	-0.070	0.150	2.690
2020/01/31 12:44:49.3	110.130	-0.110	0.140	2.690
2020/01/31 12:44:49.4	110.130	-0.150	0.130	2.690
2020/01/31 12:44:49.5	110.120	-0.180	0.120	2.670
2020/01/31 12:44:49.6	110.120	-0.220	0.110	2.660
2020/01/31 12:44:49.7	110.130	-0.250	0.090	2.640
2020/01/31 12:44:49.8	110.140	-0.290	0.080	2.620
2020/01/31 12:44:49.9	110.140	-0.320	0.060	2.590
2020/01/31 12:44:50.0	110.160	-0.350	0.040	2.550
2020/01/31 12:44:50.1	110.170	-0.380	0.020	2.510
2020/01/31 12:44:50.2	110.180	-0.400	0.010	2.470
2020/01/31 12:44:50.3	110.200	-0.430	-0.010	2.420
2020/01/31 12:44:50.4	110.210	-0.450	-0.030	2.370
2020/01/31 12:44:50.5	110.230	-0.470	-0.050	2.310
2020/01/31 12:44:50.6	110.250	-0.490	-0.080	2.250
2020/01/31 12:44:50.7	110.270	-0.500	-0.100	2.180
2020/01/31 12:44:50.8	110.290	-0.510	-0.120	2.120
2020/01/31 12:44:50.9	110.310	-0.520	-0.140	2.050
2020/01/31 12:44:51.0	110.340	-0.530	-0.160	1.980
2020/01/31 12:44:51.1	110.360	-0.530	-0.180	1.910
2020/01/31 12:44:51.2	110.390	-0.530	-0.210	1.830
2020/01/31 12:44:51.3	110.410	-0.530	-0.230	1.760
2020/01/31 12:44:51.4	110.440	-0.520	-0.250	1.690
2020/01/31 12:44:51.5	110.470	-0.510	-0.280	1.620
2020/01/31 12:44:51.6	110.490	-0.500	-0.300	1.550
2020/01/31 12:44:51.7	110.510	-0.480	-0.330	1.480
2020/01/31 12:44:51.8	110.540	-0.470	-0.350	1.410
2020/01/31 12:44:51.9	110.560	-0.450	-0.370	1.350
2020/01/31 12:44:52.0	110.570	-0.420	-0.400	1.290
2020/01/31 12:44:52.1	110.590	-0.400	-0.420	1.230
2020/01/31 12:44:52.2	110.610	-0.370	-0.440	1.170
2020/01/31 12:44:52.3	110.620	-0.340	-0.460	1.110
2020/01/31 12:44:52.4	110.640	-0.310	-0.480	1.060
2020/01/31 12:44:52.5	110.640	-0.280	-0.500	1.010
2020/01/31 12:44:52.6	110.650	-0.240	-0.520	0.960
2020/01/31 12:44:52.7	110.660	-0.210	-0.540	0.920
2020/01/31 12:44:52.8	110.670	-0.180	-0.550	0.870
2020/01/31 12:44:52.9	110.680	-0.140	-0.560	0.830
2020/01/31 12:44:53.0	110.680	-0.110	-0.570	0.790
2020/01/31 12:44:53.1	110.690	-0.070	-0.580	0.750
2020/01/31 12:44:53.2	110.690	-0.040	-0.580	0.720
2020/01/31 12:44:53.3	110.700	-0.010	-0.580	0.680
2020/01/31 12:44:53.4	110.700	0.020	-0.580	0.650
2020/01/31 12:44:53.5	110.710	0.050	-0.570	0.620
2020/01/31 12:44:53.6	110.710	0.080	-0.560	0.590
2020/01/31 12:44:53.7	110.710	0.100	-0.540	0.560
2020/01/31 12:44:53.8	110.710	0.130	-0.520	0.530
2020/01/31 12:44:53.9	110.710	0.150	-0.500	0.500
2020/01/31 12:44:54.0	110.710	0.170	-0.470	0.480
2020/01/31 12:44:54.1	110.710	0.180	-0.440	0.450
2020/01/31 12:44:54.2	110.710	0.190	-0.400	0.420
2020/01/31 12:44:54.3	110.710	0.200	-0.360	0.390
2020/01/31 12:44:54.4	110.700	0.210	-0.320	0.370
2020/01/31 12:44:54.5	110.700	0.220	-0.270	0.340
2020/01/31 12:44:54.6	110.690	0.220	-0.220	0.310
2020/01/31 12:44:54.7	110.690	0.220	-0.170	0.280
2020/01/31 12:44:54.8	110.680	0.220	-0.110	0.260
2020/01/31 12:44:54.9	110.670	0.210	-0.060	0.240
2020/01/31 12:44:55.0	110.670	0.200	-0.010	0.210
2020/01/31 12:44:55.1	110.660	0.190	0.050	0.190
2020/01/31 12:44:55.2	110.650	0.180	0.100	0.170
2020/01/31 12:44:55.3	110.640	0.170	0.160	0.150
2020/01/31 12:44:55.4	110.630	0.150	0.210	0.130
2020/01/31 12:44:55.5	110.620	0.140	0.260	0.120
2020/01/31 12:44:55.6	110.600	0.120	0.310	0.100
2020/01/31 12:44:55.7	110.590	0.110	0.350	0.090
2020/01/31 12:44:55.8	110.580	0.090	0.390	0.080
2020/01/31 12:44:55.9	110.570	0.070	0.430	0.070
2020/01/31 12:44:56.0	110.560	0.050	0.460	0.070
2020/01/31 12:44:56.1	110.540	0.030	0.490	0.060
2020/01/31 12:44:56.2	110.530	0.020	0.510	0.060
2020/01/31 12:44:56.3	110.520	-0.000	0.530	0.060
2020/01/31 12:44:56.4	110.510	-0.020	0.540	0.060
2020/01/31 12:44:56.5	110.500	-0.030	0.540	0.060
2020/01/31 12:44:56.6	110.490	-0.050	0.540	0.070
2020/01/31 12:44:56.7	110.480	-0.060	0.540	0.070
2020/01/31 12:44:56.8	110.470	-0.070	0.520	0.080
2020/01/31 12:44:56.9	110.470	-0.080	0.510	0.090
2020/01/31 12:44:57.0	110.460	-0.080	0.480	0.100
2020/01/31 12:44:57.1	110.460	-0.090	0.450	0.110
2020/01/31 12:44:57.2	110.460	-0.090	0.420	0.120
2020/01/31 12:44:57.3	110.460	-0.090	0.370	0.140
2020/01/31 12:44:57.4	110.460	-0.090	0.330	0.150
2020/01/31 12:44:57.5	110.460	-0.090	0.280	0.170
2020/01/31 12:44:57.6	110.460	-0.080	0.220	0.180
2020/01/31 12:44:57.7	110.470	-0.080	0.160	0.200
2020/01/31 12:44:57.8	110.480	-0.070	0.100	0.210
2020/01/31 12:44:57.9	110.480	-0.060	0.030	0.230
2020/01/31 12:44:58.0	110.490	-0.050	-0.040	0.240
2020/01/31 12:44:58.1	110.510	-0.030	-0.110	0.260
2020/01/31 12:44:58.2	110.520	-0.020	-0.180	0.270
2020/01/31 12:44:58.3	110.530	0.000	-0.250	0.290
2020/01/31 12:44:58.4	110.550	0.020	-0.330	0.300
2020/01/31 12:44:58.5	110.560	0.040	-0.400	0.320
2020/01/31 12:44:58.6	110.580	0.060	-0.470	0.330
2020/01/31 12:44:58.7	110.600	0.080	-0.540	0.350
2020/01/31 12:44:58.8	110.610	0.100	-0.610	0.370
2020/01/31 12:44:58.9	110.630	0.120	-0.680	0.390
2020/01/31 12:44:59.0	110.650	0.140	-0.740	0.410
2020/01/31 12:44:59.1	110.670	0.160	-0.790	0.430
2020/01/31 12:44:59.2	110.690	0.180	-0.840	0.450
2020/01/31 12:44:59.3	110.710	0.200	-0.890	0.480
2020/01/31 12:44:59.4	110.730	0.220	-0.930	0.510
2020/01/31 12:44:59.5	110.750	0.230	-0.960	0.540
2020/01/31 12:44:59.6	110.760	0.250	-0.990	0.570
2020/01/31 12:44:59.7	110.780	0.260	-1.010	0.600
2020/01/31 12:44:59.8	110.800	0.280	-1.020	0.640
2020/01/31 12:44:59.9	110.810	0.290	-1.030	0.680
2020/01/31 12:45:00.0	110.830	0.300	-1.020	0.720
2020/01/31 12:45:00.1	110.840	0.310	-1.020	0.760
2020/01/31 12:45:00.2	110.850	0.310	-1.000	0.810
2020/01/31 12:45:00.3	110.860	0.320	-0.980	0.850
2020/01/31 12:45:00.4	110.870	0.320	-0.950	0.900
2020/01/31 12:45:00.5	110.880	0.320	-0.910	0.960
2020/01/31 12:45:00.6	110.890	0.320	-0.870	1.010
2020/01/31 12:45:00.7	110.900	0.310	-0.830	1.070
2020/01/31 12:45:00.8	110.900	0.310	-0.780	1.130
2020/01/31 12:45:00.9	110.900	0.300	-0.720	1.190
2020/01/31 12:45:01.0	110.900	0.290	-0.660	1.250
2020/01/31 12:45:01.1	110.900	0.280	-0.590	1.310
2020/01/31 12:45:01.2	110.900	0.270	-0.520	1.380
2020/01/31 12:45:01.3	110.900	0.250	-0.450	1.450
2020/01/31 12:45:01.4	110.900	0.240	-0.380	1.510
2020/01/31 12:45:01.5	110.910	0.220	-0.310	1.580
2020/01/31 12:45:01.6	110.900	0.210	-0.230	1.650
2020/01/31 12:45:01.7	110.900	0.190	-0.160	1.710
2020/01/31 12:45:01.8	110.900	0.170	-0.080	1.780
2020/01/31 12:45:01.9	110.900	0.150	-0.010	1.840
2020/01/31 12:45:02.0	110.900	0.130	0.060	1.910
2020/01/31 12:45:02.1	110.900	0.110	0.130	1.970
2020/01/31 12:45:02.2	110.890	0.090	0.200	2.030
2020/01/31 12:45:02.3	110.890	0.070	0.260	2.090
2020/01/31 12:45:02.4	110.890	0.050	0.320	2.140
2020/01/31 12:45:02.5	110.890	0.030	0.380	2.200
2020/01/31 12:45:02.6	110.890	0.010	0.430	2.250
2020/01/31 12:45:02.7	110.890	-0.000	0.470	2.290
2020/01/31 12:45:02.8	110.890	-0.020	0.510	2.340
2020/01/31 12:45:02.9	110.890	-0.030	0.540	2.380
2020/01/31 12:45:03.0	110.890	-0.050	0.560	2.420
2020/01/31 12:45:03.1	110.890	-0.060	0.580	2.450
2020/01/31 12:45:03.2	110.890	-0.070	0.590	2.480
2020/01/31 12:45:03.3	110.890	-0.070	0.590	2.510
2020/01/31 12:45:03.4	110.890	-0.080	0.590	2.540
2020/01/31 12:45:03.5	110.900	-0.080	0.580	2.550
2020/01/31 12:45:03.6	110.900	-0.080	0.560	2.570
2020/01/31 12:45:03.7	110.890	-0.080	0.540	2.580
2020/01/31 12:45:03.8	110.890	-0.080	0.510	2.590
2020/01/31 12:45:03.9	110.890	-0.080	0.470	2.590
2020/01/31 12:45:04.0	110.890	-0.070	0.440	2.590
2020/01/31 12:45:04.1	110.890	-0.070	0.390	2.580
2020/01/31 12:45:04.2	110.890	-0.060	0.350	2.570
2020/01/31 12:45:04.3	110.890	-0.050	0.300	2.560
2020/01/31 12:45:04.4	110.890	-0.040	0.250	2.540
2020/01/31 12:45:04.5	110.890	-0.040	0.190	2.510
2020/01/31 12:45:04.6	110.890	-0.030	0.140	2.490
2020/01/31 12:45:04.7	110.900	-0.020	0.090	2.450
2020/01/31 12:45:04.8	110.900	-0.010	0.030	2.420
2020/01/31 12:45:04.9	110.910	-0.000	-0.020	2.380
2020/01/31 12:45:05.0	110.920	0.000	-0.070	2.340
2020/01/31 12:45:05.1	110.920	0.010	-0.120	2.290
2020/01/31 12:45:05.2	110.930	0.020	-0.170	2.240
2020/01/31 12:45:05.3	110.940	0.020	-0.210	2.190
2020/01/31 12:45:05.4	110.950	0.020	-0.250	2.140
2020/01/31 12:45:05.5	110.970	0.030	-0.290	2.080
2020/01/31 12:45:05.6	110.980	0.030	-0.320	2.020
2020/01/31 12:45:05.7	110.990	0.020	-0.350	1.970
2020/01/31 12:45:05.8	111.010	0.020	-0.380	1.910
2020/01/31 12:45:05.9	111.020	0.020	-0.400	1.850
2020/01/31 12:45:06.0	111.030	0.010	-0.410	1.800
2020/01/31 12:45:06.1	111.040	0.000	-0.420	1.740
2020/01/31 12:45:06.2	111.050	-0.010	-0.430	1.680
2020/01/31 12:45:06.3	111.060	-0.020	-0.430	1.630
2020/01/31 12:45:06.4	111.070	-0.040	-0.430	1.570
2020/01/31 12:45:06.5	111.070	-0.050	-0.430	1.520
2020/01/31 12:45:06.6	111.080	-0.070	-0.420	1.470
2020/01/31 12:45:06.7	111.080	-0.080	-0.410	1.420
2020/01/31 12:45:06.8	111.090	-0.100	-0.390	1.370
2020/01/31 12:45:06.9	111.100	-0.120	-0.380	1.330
2020/01/31 12:45:07.0	111.110	-0.140	-0.360	1.280
2020/01/31 12:45:07.1	111.110	-0.160	-0.340	1.240
2020/01/31 12:45:07.2	111.120	-0.180	-0.320	1.190
2020/01/31 12:45:07.3	111.120	-0.200	-0.300	1.150
2020/01/31 12:45:07.4	111.130	-0.220	-0.280	1.110
2020/01/31 12:45:07.5	111.130	-0.240	-0.260	1.070
2020/01/31 12:45:07.6	111.140	-0.260	-0.240	1.030
2020/01/31 12:45:07.7	111.140	-0.280	-0.220	0.990
2020/01/31 12:45:07.8	111.140	-0.290	-0.200	0.960
2020/01/31 12:45:07.9	111.140	-0.310	-0.190	0.920
2020/01/31 12:45:08.0	111.140	-0.320	-0.170	0.890
2020/01/31 12:45:08.1	111.150	-0.340	-0.160	0.850
2020/01/31 12:45:08.2	111.150	-0.350	-0.150	0.820
2020/01/31 12:45:08.3	111.150	-0.360	-0.150	0.780
2020/01/31 12:45:08.4	111.150	-0.360	-0.140	0.750
2020/01/31 12:45:08.5	111.150	-0.370	-0.140	0.710
2020/01/31 12:45:08.6	111.150	-0.370	-0.140	0.680
2020/01/31 12:45:08.7	111.160	-0.370	-0.140	0.640
2020/01/31 12:45:08.8	111.160	-0.370	-0.150	0.610
2020/01/31 12:45:08.9	111.160	-0.360	-0.150	0.570
2020/01/31 12:45:09.0	111.160	-0.360	-0.160	0.540
2020/01/31 12:45:09.1	111.160	-0.350	-0.170	0.510
2020/01/31 12:45:09.2	111.170	-0.340	-0.180	0.470
2020/01/31 12:45:09.3	111.170	-0.320	-0.200	0.440
2020/01/31 12:45:09.4	111.170	-0.310	-0.210	0.410
2020/01/31 12:45:09.5	111.180	-0.290	-0.230	0.370
2020/01/31 12:45:09.6	111.190	-0.270	-0.240	0.340
2020/01/31 12:45:09.7	111.190	-0.250	-0.260	0.310
2020/01/31 12:45:09.8	111.200	-0.230	-0.280	0.280
2020/01/31 12:45:09.9	111.200	-0.200	-0.290	0.250
2020/01/31 12:45:10.0	111.210	-0.180	-0.310	0.220
2020/01/31 12:45:10.1	111.210	-0.150	-0.320	0.190
2020/01/31 12:45:10.2	111.220	-0.130	-0.340	0.160
2020/01/31 12:45:10.3	111.220	-0.100	-0.350	0.140
2020/01/31 12:45:10.4	111.220	-0.070	-0.370	0.120
2020/01/31 12:45:10.5	111.230	-0.050	-0.380	0.100
2020/01/31 12:45:10.6	111.230	-0.020	-0.390	0.080
2020/01/31 12:45:10.7	111.230	0.010	-0.400	0.070
2020/01/31 12:45:10.8	111.230	0.040	-0.410	0.050
2020/01/31 12:45:10.9	111.230	0.070	-0.420	0.040
2020/01/31 12:45:11.0	111.230	0.090	-0.430	0.040
2020/01/31 12:45:11.1	111.230	0.120	-0.430	0.030
2020/01/31 12:45:11.2	111.230	0.140	-0.430	0.030
2020/01/31 12:45:11.3	111.230	0.160	-0.440	0.030
2020/01/31 12:45:11.4	111.220	0.180	-0.440	0.040
2020/01/31 12:45:11.5	111.220	0.200	-0.440	0.040
2020/01/31 12:45:11.6	111.220	0.220	-0.430	0.050
2020/01/31 12:45:11.7	111.220	0.240	-0.430	0.060
2020/01/31 12:45:11.8	111.220	0.250	-0.420	0.080
2020/01/31 12:45:11.9	111.220	0.260	-0.410	0.090
2020/01/31 12:45:12.0	111.220	0.270	-0.400	0.110
2020/01/31 12:45:12.1	111.220	0.280	-0.390	0.130
2020/01/31 12:45:12.2	111.220	0.280	-0.380	0.150
2020/01/31 12:45:12.3	111.220	0.280	-0.360	0.170
2020/01/31 12:45:12.4	111.230	0.280	-0.340	0.190
2020/01/31 12:45:12.5	111.230	0.280	-0.320	0.220
2020/01/31 12:45:12.6	111.240	0.280	-0.300	0.250
2020/01/31 12:45:12.7	111.240	0.270	-0.280	0.280
2020/01/31 12:45:12.8	111.250	0.260	-0.260	0.310
2020/01/31 12:45:12.9	111.250	0.250	-0.230	0.340
2020/01/31 12:45:13.0	111.260	0.240	-0.210	0.370
2020/01/31 12:45:13.1	111.260	0.220	-0.180	0.400
2020/01/31 12:45:13.2	111.270	0.200	-0.150	0.440
2020/01/31 12:45:13.3	111.280	0.190	-0.120	0.470
2020/01/31 12:45:13.4	111.280	0.170	-0.100	0.510
2020/01/31 12:45:13.5	111.280	0.150	-0.070	0.550
2020/01/31 12:45:13.6	111.290	0.130	-0.040	0.590
2020/01/31 12:45:13.7	111.290	0.100	-0.010	0.630
2020/01/31 12:45:13.8	111.290	0.080	0.020	0.670
2020/01/31 12:45:13.9	111.300	0.060	0.040	0.710
2020/01/31 12:45:14.0	111.300	0.040	0.070	0.750
2020/01/31 12:45:14.1	111.300	0.010	0.090	0.790
2020/01/31 12:45:14.2	111.310	-0.010	0.110	0.840
2020/01/31 12:45:14.3	111.310	-0.030	0.130	0.880
2020/01/31 12:45:14.4	111.310	-0.050	0.150	0.920
2020/01/31 12:45:14.5	111.300	-0.070	0.170	0.970
2020/01/31 12:45:14.6	111.300	-0.090	0.190	1.010
2020/01/31 12:45:14.7	111.300	-0.100	0.200	1.050
2020/01/31 12:45:14.8	111.300	-0.120	0.220	1.100
2020/01/31 12:45:14.9	111.300	-0.140	0.230	1.140
2020/01/31 12:45:15.0	111.310	-0.150	0.240	1.190
2020/01/31 12:45:15.1	111.310	-0.160	0.250	1.230
2020/01/31 12:45:15.2	111.310	-0.170	0.260	1.280
2020/01/31 12:45:15.3	111.310	-0.180	0.260	1.320
2020/01/31 12:45:15.4	111.310	-0.180	0.270	1.360
2020/01/31 12:45:15.5	111.300	-0.190	0.270	1.410
2020/01/31 12:45:15.6	111.310	-0.190	0.270	1.450
2020/01/31 12:45:15.7	111.310	-0.190	0.270	1.490
2020/01/31 12:45:15.8	111.310	-0.190	0.270	1.530
2020/01/31 12:45:15.9	111.310	-0.190	0.270	1.570
2020/01/31 12:45:16.0	111.320	-0.180	0.260	1.600
2020/01/31 12:45:16.1	111.320	-0.170	0.260	1.640
2020/01/31 12:45:16.2	111.320	-0.160	0.250	1.670
2020/01/31 12:45:16.3	111.330	-0.150	0.240	1.700
2020/01/31 12:45:16.4	111.330	-0.140	0.230	1.730
2020/01/31 12:45:16.5	111.350	-0.120	0.220	1.750
2020/01/31 12:45:16.6	111.350	-0.110	0.210	1.770
2020/01/31 12:45:16.7	111.360	-0.090	0.190	1.790
2020/01/31 12:45:16.8	111.370	-0.070	0.170	1.810
2020/01/31 12:45:16.9	111.370	-0.050	0.150	1.830
2020/01/31 12:45:17.0	111.380	-0.020	0.130	1.850
2020/01/31 12:45:17.1	111.390	-0.000	0.110	1.860
2020/01/31 12:45:17.2	111.390	0.030	0.080	1.880
2020/01/31 12:45:17.3	111.400	0.050	0.050	1.890
2020/01/31 12:45:17.4	111.400	0.080	0.010	1.900
2020/01/31 12:45:17.5	111.400	0.110	-0.020	1.910
2020/01/31 12:45:17.6	111.410	0.140	-0.060	1.920
2020/01/31 12:45:17.7	111.410	0.170	-0.100	1.920
2020/01/31 12:45:17.8	111.410	0.200	-0.150	1.930
2020/01/31 12:45:17.9	111.420	0.230	-0.190	1.930
2020/01/31 12:45:18.0	111.420	0.260	-0.240	1.930
2020/01/31 12:45:18.1	111.420	0.290	-0.290	1.930
2020/01/31 12:45:18.2	111.430	0.320	-0.340	1.930
2020/01/31 12:45:18.3	111.430	0.340	-0.390	1.930
2020/01/31 12:45:18.4	111.440	0.370	-0.440	1.920
2020/01/31 12:45:18.5	111.440	0.400	-0.490	1.910
2020/01/31 12:45:18.6	111.450	0.420	-0.540	1.900
2020/01/31 12:45:18.7	111.460	0.450	-0.590	1.890
2020/01/31 12:45:18.8	111.460	0.470	-0.640	1.880
2020/01/31 12:45:18.9	111.470	0.490	-0.680	1.870
2020/01/31 12:45:19.0	111.480	0.510	-0.720	1.850
2020/01/31 12:45:19.1	111.490	0.520	-0.760	1.830
2020/01/31 12:45:19.2	111.500	0.540	-0.800	1.820
2020/01/31 12:45:19.3	111.520	0.550	-0.820	1.800
2020/01/31 12:45:19.4	111.530	0.550	-0.850	1.780
2020/01/31 12:45:19.5	111.540	0.560	-0.870	1.760
2020/01/31 12:45:19.6	111.550	0.560	-0.880	1.740
2020/01/31 12:45:19.7	111.560	0.560	-0.890	1.720
2020/01/31 12:45:19.8	111.580	0.550	-0.890	1.700
2020/01/31 12:45:19.9	111.590	0.550	-0.890	1.690
2020/01/31 12:45:20.0	111.600	0.540	-0.880	1.670
2020/01/31 12:45:20.1	111.620	0.520	-0.860	1.650
2020/01/31 12:45:20.2	111.630	0.500	-0.840	1.640
2020/01/31 12:45:20.3	111.640	0.480	-0.810	1.620
2020/01/31 12:45:20.4	111.650	0.460	-0.780	1.610
2020/01/31 12:45:20.5	111.660	0.440	-0.740	1.590
2020/01/31 12:45:20.6	111.670	0.410	-0.690	1.580
2020/01/31 12:45:20.7	111.670	0.370	-0.640	1.570
2020/01/31 12:45:20.8	111.680	0.340	-0.590	1.560
2020/01/31 12:45:20.9	111.680	0.300	-0.540	1.550
2020/01/31 12:45:21.0	111.680	0.260	-0.480	1.540
2020/01/31 12:45:21.1	111.680	0.220	-0.420	1.540
2020/01/31 12:45:21.2	111.680	0.180	-0.350	1.530
2020/01/31 12:45:21.3	111.670	0.130	-0.290	1.520
2020/01/31 12:45:21.4	111.670	0.090	-0.220	1.520
2020/01/31 12:45:21.5	111.660	0.040	-0.150	1.510
2020/01/31 12:45:21.6	111.650	-0.010	-0.090	1.510
2020/01/31 12:45:21.7	111.640	-0.060	-0.020	1.510
2020/01/31 12:45:21.8	111.630	-0.110	0.040	1.500
2020/01/31 12:45:21.9	111.620	-0.160	0.100	1.500
2020/01/31 12:45:22.0	111.610	-0.210	0.160	1.500
2020/01/31 12:45:22.1	111.590	-0.260	0.220	1.500
2020/01/31 12:45:22.2	111.580	-0.310	0.280	1.490
2020/01/31 12:45:22.3	111.560	-0.360	0.330	1.490
2020/01/31 12:45:22.4	111.550	-0.410	0.380	1.490
2020/01/31 12:45:22.5	111.540	-0.460	0.420	1.480
2020/01/31 12:45:22.6	111.520	-0.500	0.460	1.480
2020/01/31 12:45:22.7	111.510	-0.550	0.500	1.480
2020/01/31 12:45:22.8	111.490	-0.590	0.530	1.470
2020/01/31 12:45:22.9	111.480	-0.630	0.560	1.470
2020/01/31 12:45:23.0	111.460	-0.660	0.580	1.460
2020/01/31 12:45:23.1	111.450	-0.700	0.600	1.450
2020/01/31 12:45:23.2	111.440	-0.730	0.610	1.450
2020/01/31 12:45:23.3	111.430	-0.750	0.620	1.440
2020/01/31 12:45:23.4	111.420	-0.780	0.620	1.430
2020/01/31 12:45:23.5	111.430	-0.800	0.610	1.420
2020/01/31 12:45:23.6	111.420	-0.820	0.610	1.400
2020/01/31 12:45:23.7	111.410	-0.830	0.590	1.390
2020/01/31 12:45:23.8	111.410	-0.840	0.580	1.370
2020/01/31 12:45:23.9	111.400	-0.840	0.550	1.360
2020/01/31 12:45:24.0	111.400	-0.840	0.520	1.340
2020/01/31 12:45:24.1	111.400	-0.840	0.490	1.320
2020/01/31 12:45:24.2	111.400	-0.830	0.450	1.300
2020/01/31 12:45:24.3	111.400	-0.820	0.410	1.280
2020/01/31 12:45:24.4	111.400	-0.810	0.370	1.250
2020/01/31 12:45:24.5	111.410	-0.790	0.320	1.230
2020/01/31 12:45:24.6	111.410	-0.760	0.260	1.200
2020/01/31 12:45:24.7	111.420	-0.740	0.200	1.180
2020/01/31 12:45:24.8	111.420	-0.710	0.140	1.150
2020/01/31 12:45:24.9	111.430	-0.670	0.080	1.120
2020/01/31 12:45:25.0	111.430	-0.630	0.010	1.090
2020/01/31 12:45:25.1	111.440	-0.590	-0.060	1.060
2020/01/31 12:45:25.2	111.450	-0.550	-0.130	1.030
2020/01/31 12:45:25.3	111.450	-0.500	-0.200	1.000
2020/01/31 12:45:25.4	111.460	-0.460	-0.270	0.980
2020/01/31 12:45:25.5	111.450	-0.410	-0.350	0.940
2020/01/31 12:45:25.6	111.460	-0.350	-0.420	0.910
2020/01/31 12:45:25.7	111.460	-0.300	-0.490	0.880
2020/01/31 12:45:25.8	111.470	-0.250	-0.550	0.850
2020/01/31 12:45:25.9	111.470	-0.190	-0.620	0.820
2020/01/31 12:45:26.0	111.480	-0.140	-0.680	0.790
2020/01/31 12:45:26.1	111.480	-0.080	-0.740	0.770
2020/01/31 12:45:26.2	111.480	-0.030	-0.800	0.740
2020/01/31 12:45:26.3	111.480	0.030	-0.850	0.710
2020/01/31 12:45:26.4	111.490	0.080	-0.890	0.690
2020/01/31 12:45:26.5	111.490	0.130	-0.930	0.660
2020/01/31 12:45:26.6	111.490	0.180	-0.960	0.640
2020/01/31 12:45:26.7	111.490	0.230	-0.990	0.610
2020/01/31 12:45:26.8	111.490	0.270	-1.000	0.590
2020/01/31 12:45:26.9	111.490	0.310	-1.010	0.560
2020/01/31 12:45:27.0	111.500	0.350	-1.020	0.540
2020/01/31 12:45:27.1	111.500	0.390	-1.020	0.520
2020/01/31 12:45:27.2	111.500	0.420	-1.000	0.500
2020/01/31 12:45:27.3	111.500	0.450	-0.990	0.480
2020/01/31 12:45:27.4	111.510	0.470	-0.960	0.460
2020/01/31 12:45:27.5	111.520	0.490	-0.930	0.440
2020/01/31 12:45:27.6	111.520	0.510	-0.890	0.420
2020/01/31 12:45:27.7	111.530	0.520	-0.840	0.400
2020/01/31 12:45:27.8	111.540	0.530	-0.790	0.380
2020/01/31 12:45:27.9	111.550	0.530	-0.730	0.370
2020/01/31 12:45:28.0	111.560	0.530	-0.670	0.350
2020/01/31 12:45:28.1	111.570	0.530	-0.600	0.340
2020/01/31 12:45:28.2	111.580	0.520	-0.530	0.320
2020/01/31 12:45:28.3	111.600	0.510	-0.450	0.310
2020/01/31 12:45:28.4	111.610	0.500	-0.380	0.300
2020/01/31 12:45:28.5	111.630	0.480	-0.290	0.290
2020/01/31 12:45:28.6	111.650	0.460	-0.210	0.290
2020/01/31 12:45:28.7	111.670	0.440	-0.130	0.280
2020/01/31 12:45:28.8	111.690	0.420	-0.050	0.280
2020/01/31 12:45:28.9	111.720	0.390	0.020	0.270
2020/01/31 12:45:29.0	111.740	0.360	0.100	0.270
2020/01/31 12:45:29.1	111.770	0.340	0.170	0.280
2020/01/31 12:45:29.2	111.790	0.310	0.240	0.280
2020/01/31 12:45:29.3	111.810	0.280	0.300	0.290
2020/01/31 12:45:29.4	111.840	0.250	0.360	0.300
2020/01/31 12:45:29.5	111.860	0.220	0.420	0.320
2020/01/31 12:45:29.6	111.890	0.200	0.470	0.340
2020/01/31 12:45:29.7	111.910	0.170	0.510	0.360
2020/01/31 12:45:29.8	111.930	0.150	0.540	0.380
2020/01/31 12:45:29.9	111.950	0.120	0.570	0.410
2020/01/31 12:45:30.0	111.960	0.100	0.580	0.440
2020/01/31 12:45:30.1	111.980	0.080	0.590	0.470
2020/01/31 12:45:30.2	111.990	0.070	0.600	0.510
2020/01/31 12:45:30.3	112.000	0.050	0.590	0.550
2020/01/31 12:45:30.4	112.010	0.040	0.580	0.590
2020/01/31 12:45:30.5	112.020	0.040	0.560	0.630
2020/01/31 12:45:30.6	112.020	0.030	0.530	0.680
2020/01/31 12:45:30.7	112.020	0.030	0.500	0.730
2020/01/31 12:45:30.8	112.020	0.030	0.460	0.780
2020/01/31 12:45:30.9	112.020	0.030	0.420	0.830
2020/01/31 12:45:31.0	112.010	0.040	0.370	0.890
2020/01/31 12:45:31.1	112.010	0.050	0.320	0.950
2020/01/31 12:45:31.2	112.000	0.060	0.260	1.010
2020/01/31 12:45:31.3	111.980	0.070	0.200	1.070
2020/01/31 12:45:31.4	111.970	0.080	0.140	1.130
2020/01/31 12:45:31.5	111.960	0.100	0.080	1.190
2020/01/31 12:45:31.6	111.940	0.120	0.010	1.250
2020/01/31 12:45:31.7	111.920	0.130	-0.050	1.320
2020/01/31 12:45:31.8	111.900	0.150	-0.120	1.380
2020/01/31 12:45:31.9	111.880	0.170	-0.180	1.450
2020/01/31 12:45:32.0	111.850	0.190	-0.240	1.520
2020/01/31 12:45:32.1	111.830	0.210	-0.300	1.580
2020/01/31 12:45:32.2	111.810	0.230	-0.350	1.650
2020/01/31 12:45:32.3	111.780	0.240	-0.410	1.710
2020/01/31 12:45:32.4	111.760	0.260	-0.450	1.780
2020/01/31 12:45:32.5	111.730	0.280	-0.500	1.840
2020/01/31 12:45:32.6	111.710	0.290	-0.540	1.900
2020/01/31 12:45:32.7	111.690	0.300	-0.570	1.970
2020/01/31 12:45:32.8	111.670	0.310	-0.610	2.030
2020/01/31 12:45:32.9	111.650	0.320	-0.630	2.080
2020/01/31 12:45:33.0	111.630	0.330	-0.650	2.140
2020/01/31 12:45:33.1	111.610	0.330	-0.670	2.200
2020/01/31 12:45:33.2	111.600	0.340	-0.680	2.250
2020/01/31 12:45:33.3	111.580	0.340	-0.680	2.300
2020/01/31 12:45:33.4	111.570	0.330	-0.680	2.350
2020/01/31 12:45:33.5	111.560	0.330	-0.680	2.390
2020/01/31 12:45:33.6	111.550	0.320	-0.670	2.440
2020/01/31 12:45:33.7	111.540	0.310	-0.660	2.470
2020/01/31 12:45:33.8	111.530	0.300	-0.640	2.510
2020/01/31 12:45:33.9	111.530	0.290	-0.630	2.540
2020/01/31 12:45:34.0	111.520	0.270	-0.600	2.570
2020/01/31 12:45:34.1	111.510	0.250	-0.580	2.600
2020/01/31 12:45:34.2	111.510	0.230	-0.550	2.620
2020/01/31 12:45:34.3	111.510	0.210	-0.520	2.640
2020/01/31 12:45:34.4	111.510	0.190	-0.490	2.660
2020/01/31 12:45:34.5	111.490	0.170	-0.450	2.660
2020/01/31 12:45:34.6	111.490	0.140	-0.420	2.670
2020/01/31 12:45:34.7	111.500	0.110	-0.380	2.680
2020/01/31 12:45:34.8	111.510	0.080	-0.340	2.680
2020/01/31 12:45:34.9	111.510	0.060	-0.300	2.670
2020/01/31 12:45:35.0	111.530	0.030	-0.260	2.660
2020/01/31 12:45:35.1	111.540	-0.010	-0.220	2.650
2020/01/31 12:45:35.2	111.550	-0.040	-0.180	2.630
2020/01/31 12:45:35.3	111.570	-0.070	-0.140	2.610
2020/01/31 12:45:35.4	111.590	-0.100	-0.100	2.590
2020/01/31 12:45:35.5	111.610	-0.130	-0.060	2.560
2020/01/31 12:45:35.6	111.640	-0.160	-0.020	2.530
2020/01/31 12:45:35.7	111.660	-0.190	0.010	2.490
2020/01/31 12:45:35.8	111.690	-0.220	0.050	2.450
2020/01/31 12:45:35.9	111.710	-0.250	0.080	2.410
2020/01/31 12:45:36.0	111.740	-0.280	0.120	2.370
2020/01/31 12:45:36.1	111.770	-0.300	0.150	2.320
2020/01/31 12:45:36.2	111.800	-0.330	0.180	2.270
2020/01/31 12:45:36.3	111.830	-0.350	0.200	2.210
2020/01/31 12:45:36.4	111.860	-0.380	0.220	2.150
2020/01/31 12:45:36.5	111.890	-0.400	0.250	2.090
2020/01/31 12:45:36.6	111.920	-0.420	0.260	2.030
2020/01/31 12:45:36.7	111.950	-0.440	0.280	1.970
2020/01/31 12:45:36.8	111.980	-0.450	0.290	1.900
2020/01/31 12:45:36.9	112.010	-0.470	0.300	1.840
2020/01/31 12:45:37.0	112.040	-0.480	0.310	1.770
2020/01/31 12:45:37.1	112.070	-0.490	0.310	1.690
2020/01/31 12:45:37.2	112.100	-0.500	0.310	1.620
2020/01/31 12:45:37.3	112.130	-0.500	0.310	1.550
2020/01/31 12:45:37.4	112.150	-0.510	0.310	1.470
2020/01/31 12:45:37.5	112.190	-0.510	0.300	1.400
2020/01/31 12:45:37.6	112.210	-0.510	0.290	1.330
2020/01/31 12:45:37.7	112.240	-0.510	0.270	1.250
2020/01/31 12:45:37.8	112.260	-0.500	0.260	1.180
2020/01/31 12:45:37.9	112.280	-0.490	0.240	1.100
2020/01/31 12:45:38.0	112.300	-0.490	0.220	1.030
2020/01/31 12:45:38.1	112.310	-0.470	0.200	0.960
2020/01/31 12:45:38.2	112.330	-0.460	0.170	0.890
2020/01/31 12:45:38.3	112.340	-0.450	0.140	0.830
2020/01/31 12:45:38.4	112.350	-0.430	0.110	0.760
2020/01/31 12:45:38.5	112.360	-0.410	0.080	0.700
2020/01/31 12:45:38.6	112.370	-0.390	0.040	0.640
2020/01/31 12:45:38.7	112.370	-0.370	0.000	0.590
2020/01/31 12:45:38.8	112.370	-0.350	-0.040	0.530
2020/01/31 12:45:38.9	112.370	-0.320	-0.080	0.490
2020/01/31 12:45:39.0	112.370	-0.300	-0.120	0.440
2020/01/31 12:45:39.1	112.360	-0.270	-0.160	0.400
2020/01/31 12:45:39.2	112.360	-0.240	-0.210	0.360
2020/01/31 12:45:39.3	112.350	-0.210	-0.260	0.330
2020/01/31 12:45:39.4	112.340	-0.180	-0.300	0.300
2020/01/31 12:45:39.5	112.330	-0.150	-0.350	0.270
2020/01/31 12:45:39.6	112.310	-0.120	-0.390	0.240
2020/01/31 12:45:39.7	112.300	-0.090	-0.440	0.220
2020/01/31 12:45:39.8	112.290	-0.060	-0.480	0.210
2020/01/31 12:45:39.9	112.270	-0.030	-0.530	0.190
2020/01/31 12:45:40.0	112.260	0.010	-0.570	0.180
2020/01/31 12:45:40.1	112.250	0.040	-0.600	0.170
2020/01/31 12:45:40.2	112.230	0.070	-0.640	0.170
2020/01/31 12:45:40.3	112.220	0.090	-0.670	0.160
2020/01/31 12:45:40.4	112.210	0.120	-0.700	0.160
2020/01/31 12:45:40.5	112.200	0.150	-0.730	0.160
2020/01/31 12:45:40.6	112.190	0.170	-0.760	0.160
2020/01/31 12:45:40.7	112.180	0.200	-0.770	0.170
2020/01/31 12:45:40.8	112.170	0.220	-0.790	0.170
2020/01/31 12:45:40.9	112.170	0.240	-0.800	0.180
2020/01/31 12:45:41.0	112.160	0.260	-0.810	0.180
2020/01/31 12:45:41.1	112.150	0.280	-0.810	0.190
2020/01/31 12:45:41.2	112.140	0.290	-0.810	0.200
2020/01/31 12:45:41.3	112.140	0.300	-0.800	0.210
2020/01/31 12:45:41.4	112.130	0.310	-0.790	0.220
2020/01/31 12:45:41.5	112.120	0.320	-0.770	0.230
2020/01/31 12:45:41.6	112.120	0.330	-0.750	0.250
2020/01/31 12:45:41.7	112.110	0.340	-0.730	0.260
2020/01/31 12:45:41.8	112.110	0.340	-0.700	0.270
2020/01/31 12:45:41.9	112.110	0.340	-0.670	0.280
2020/01/31 12:45:42.0	112.110	0.340	-0.630	0.300
2020/01/31 12:45:42.1	112.110	0.340	-0.590	0.310
2020/01/31 12:45:42.2	112.110	0.340	-0.540	0.320
2020/01/31 12:45:42.3	112.110	0.340	-0.490	0.340
2020/01/31 12:45:42.4	112.110	0.330	-0.440	0.350
2020/01/31 12:45:42.5	112.100	0.320	-0.380	0.370
2020/01/31 12:45:42.6	112.100	0.320	-0.320	0.380
2020/01/31 12:45:42.7	112.110	0.310	-0.260	0.400
2020/01/31 12:45:42.8	112.110	0.300	-0.200	0.410
2020/01/31 12:45:42.9	112.120	0.290	-0.130	0.430
2020/01/31 12:45:43.0	112.120	0.270	-0.070	0.440
2020/01/31 12:45:43.1	112.130	0.260	-0.000	0.460
2020/01/31 12:45:43.2	112.130	0.250	0.060	0.480
2020/01/31 12:45:43.3	112.140	0.240	0.130	0.490
2020/01/31 12:45:43.4	112.140	0.220	0.190	0.510
2020/01/31 12:45:43.5	112.150	0.210	0.260	0.520
2020/01/31 12:45:43.6	112.150	0.200	0.320	0.540
2020/01/31 12:45:43.7	112.160	0.180	0.370	0.550
2020/01/31 12:45:43.8	112.170	0.170	0.430	0.570
2020/01/31 12:45:43.9	112.180	0.160	0.470	0.580
2020/01/31 12:45:44.0	112.190	0.140	0.520	0.600
2020/01/31 12:45:44.1	112.200	0.130	0.560	0.610
2020/01/31 12:45:44.2	112.210	0.120	0.590	0.620
2020/01/31 12:45:44.3	112.220	0.110	0.620	0.640
2020/01/31 12:45:44.4	112.230	0.100	0.640	0.650
2020/01/31 12:45:44.5	112.240	0.090	0.650	0.660
2020/01/31 12:45:44.6	112.250	0.080	0.650	0.670
2020/01/31 12:45:44.7	112.270	0.080	0.650	0.690
2020/01/31 12:45:44.8	112.280	0.070	0.650	0.700
2020/01/31 12:45:44.9	112.300	0.070	0.630	0.710
2020/01/31 12:45:45.0	112.310	0.070	0.610	0.720
2020/01/31 12:45:45.1	112.330	0.070	0.590	0.730
2020/01/31 12:45:45.2	112.340	0.070	0.550	0.740
2020/01/31 12:45:45.3	112.360	0.070	0.510	0.750
2020/01/31 12:45:45.4	112.380	0.070	0.470	0.760
2020/01/31 12:45:45.5	112.400	0.070	0.420	0.780
2020/01/31 12:45:45.6	112.410	0.080	0.360	0.790
2020/01/31 12:45:45.7	112.430	0.080	0.300	0.810
2020/01/31 12:45:45.8	112.450	0.090	0.240	0.830
2020/01/31 12:45:45.9	112.470	0.100	0.170	0.850
2020/01/31 12:45:46.0	112.480	0.100	0.110	0.880
2020/01/31 12:45:46.1	112.500	0.110	0.040	0.900
2020/01/31 12:45:46.2	112.510	0.120	-0.030	0.930
2020/01/31 12:45:46.3	112.530	0.130	-0.100	0.970
2020/01/31 12:45:46.4	112.540	0.130	-0.180	1.010
2020/01/31 12:45:46.5	112.540	0.140	-0.250	1.050
2020/01/31 12:45:46.6	112.550	0.140	-0.310	1.090
2020/01/31 12:45:46.7	112.560	0.150	-0.380	1.140
2020/01/31 12:45:46.8	112.560	0.150	-0.440	1.190
2020/01/31 12:45:46.9	112.570	0.150	-0.500	1.240
2020/01/31 12:45:47.0	112.570	0.150	-0.550	1.290
2020/01/31 12:45:47.1	112.570	0.150	-0.600	1.350
2020/01/31 12:45:47.2	112.570	0.150	-0.640	1.410
2020/01/31 12:45:47.3	112.570	0.140	-0.690	1.470
2020/01/31 12:45:47.4	112.570	0.140	-0.720	1.540
2020/01/31 12:45:47.5	112.560	0.130	-0.740	1.600
2020/01/31 12:45:47.6	112.550	0.120	-0.770	1.660
2020/01/31 12:45:47.7	112.540	0.110	-0.790	1.730
2020/01/31 12:45:47.8	112.530	0.100	-0.800	1.800
2020/01/31 12:45:47.9	112.520	0.090	-0.800	1.860
2020/01/31 12:45:48.0	112.500	0.070	-0.810	1.930
2020/01/31 12:45:48.1	112.480	0.060	-0.800	1.990
2020/01/31 12:45:48.2	112.470	0.040	-0.790	2.050
2020/01/31 12:45:48.3	112.450	0.020	-0.780	2.110
2020/01/31 12:45:48.4	112.430	-0.000	-0.760	2.170
2020/01/31 12:45:48.5	112.430	-0.030	-0.740	2.230
2020/01/31 12:45:48.6	112.410	-0.050	-0.710	2.290
2020/01/31 12:45:48.7	112.390	-0.070	-0.680	2.340
2020/01/31 12:45:48.8	112.370	-0.100	-0.650	2.380
2020/01/31 12:45:48.9	112.360	-0.120	-0.610	2.430
2020/01/31 12:45:49.0	112.340	-0.140	-0.570	2.470
2020/01/31 12:45:49.1	112.330	-0.170	-0.530	2.510
2020/01/31 12:45:49.2	112.310	-0.190	-0.490	2.540
2020/01/31 12:45:49.3	112.300	-0.220	-0.450	2.570
2020/01/31 12:45:49.4	112.280	-0.240	-0.410	2.600
2020/01/31 12:45:49.5	112.280	-0.260	-0.370	2.630
2020/01/31 12:45:49.6	112.270	-0.280	-0.330	2.650
2020/01/31 12:45:49.7	112.260	-0.300	-0.290	2.660
2020/01/31 12:45:49.8	112.240	-0.320	-0.250	2.680
2020/01/31 12:45:49.9	112.230	-0.330	-0.220	2.690
2020/01/31 12:45:50.0	112.220	-0.350	-0.190	2.700
2020/01/31 12:45:50.1	112.210	-0.360	-0.160	2.700
2020/01/31 12:45:50.2	112.210	-0.370	-0.140	2.710
2020/01/31 12:45:50.3	112.200	-0.370	-0.120	2.710
2020/01/31 12:45:50.4	112.190	-0.380	-0.100	2.700
2020/01/31 12:45:50.5	112.170	-0.380	-0.090	2.690
2020/01/31 12:45:50.6	112.170	-0.380	-0.080	2.690
2020/01/31 12:45:50.7	112.160	-0.370	-0.070	2.670
2020/01/31 12:45:50.8	112.160	-0.370	-0.070	2.660
2020/01/31 12:45:50.9	112.160	-0.360	-0.070	2.640
2020/01/31 12:45:51.0	112.150	-0.350	-0.070	2.620
2020/01/31 12:45:51.1	112.150	-0.330	-0.080	2.590
2020/01/31 12:45:51.2	112.150	-0.320	-0.080	2.560
2020/01/31 12:45:51.3	112.160	-0.300	-0.090	2.530
2020/01/31 12:45:51.4	112.160	-0.280	-0.100	2.490
2020/01/31 12:45:51.5	112.150	-0.260	-0.110	2.450
2020/01/31 12:45:51.6	112.150	-0.240	-0.120	2.400
2020/01/31 12:45:51.7	112.160	-0.220	-0.140	2.350
2020/01/31 12:45:51.8	112.170	-0.200	-0.150	2.290
2020/01/31 12:45:51.9	112.180	-0.180	-0.160	2.230
2020/01/31 12:45:52.0	112.190	-0.150	-0.170	2.170
2020/01/31 12:45:52.1	112.210	-0.130	-0.180	2.100
2020/01/31 12:45:52.2	112.220	-0.110	-0.180	2.020
2020/01/31 12:45:52.3	112.240	-0.090	-0.190	1.940
2020/01/31 12:45:52.4	112.260	-0.060	-0.190	1.860
2020/01/31 12:45:52.5	112.280	-0.040	-0.190	1.770
2020/01/31 12:45:52.6	112.300	-0.030	-0.180	1.690
2020/01/31 12:45:52.7	112.320	-0.010	-0.170	1.590
2020/01/31 12:45:52.8	112.340	0.010	-0.160	1.500
2020/01/31 12:45:52.9	112.360	0.020	-0.140	1.410
2020/01/31 12:45:53.0	112.380	0.040	-0.120	1.310
2020/01/31 12:45:53.1	112.400	0.050	-0.100	1.210
2020/01/31 12:45:53.2	112.410	0.060	-0.070	1.120
2020/01/31 12:45:53.3	112.430	0.060	-0.040	1.020
2020/01/31 12:45:53.4	112.450	0.070	-0.010	0.930
2020/01/31 12:45:53.5	112.460	0.070	0.030	0.830
2020/01/31 12:45:53.6	112.470	0.070	0.070	0.740
2020/01/31 12:45:53.7	112.480	0.080	0.110	0.660
2020/01/31 12:45:53.8	112.490	0.070	0.150	0.570
2020/01/31 12:45:53.9	112.500	0.070	0.190	0.490
2020/01/31 12:45:54.0	112.510	0.070	0.230	0.420
2020/01/31 12:45:54.1	112.520	0.060	0.270	0.340
2020/01/31 12:45:54.2	112.520	0.060	0.310	0.280
2020/01/31 12:45:54.3	112.520	0.050	0.350	0.210
2020/01/31 12:45:54.4	112.520	0.050	0.380	0.150
2020/01/31 12:45:54.5	112.520	0.040	0.410	0.100
2020/01/31 12:45:54.6	112.520	0.030	0.440	0.050
2020/01/31 12:45:54.7	112.510	0.030	0.470	0.000
2020/01/31 12:45:54.8	112.510	0.020	0.490	-0.040
2020/01/31 12:45:54.9	112.500	0.010	0.500	-0.070
2020/01/31 12:45:55.0	112.490	0.010	0.510	-0.110
2020/01/31 12:45:55.1	112.480	0.010	0.510	-0.140
2020/01/31 12:45:55.2	112.470	0.000	0.510	-0.160
2020/01/31 12:45:55.3	112.460	0.000	0.500	-0.180
2020/01/31 12:45:55.4	112.450	0.000	0.490	-0.200
2020/01/31 12:45:55.5	112.440	0.000	0.470	-0.220
2020/01/31 12:45:55.6	112.430	0.010	0.440	-0.230
2020/01/31 12:45:55.7	112.420	0.010	0.400	-0.240
2020/01/31 12:45:55.8	112.410	0.010	0.360	-0.250
2020/01/31 12:45:55.9	112.400	0.020	0.310	-0.250
2020/01/31 12:45:56.0	112.390	0.030	0.260	-0.250
2020/01/31 12:45:56.1	112.380	0.040	0.200	-0.250
2020/01/31 12:45:56.2	112.360	0.050	0.140	-0.250
2020/01/31 12:45:56.3	112.350	0.060	0.070	-0.250
2020/01/31 12:45:56.4	112.340	0.080	-0.000	-0.240
2020/01/31 12:45:56.5	112.340	0.090	-0.080	-0.230
2020/01/31 12:45:56.6	112.320	0.100	-0.150	-0.220
2020/01/31 12:45:56.7	112.310	0.120	-0.230	-0.200
2020/01/31 12:45:56.8	112.290	0.140	-0.310	-0.190
2020/01/31 12:45:56.9	112.280	0.150	-0.390	-0.170
2020/01/31 12:45:57.0	112.260	0.170	-0.470	-0.150
2020/01/31 12:45:57.1	112.240	0.180	-0.550	-0.130
2020/01/31 12:45:57.2	112.230	0.200	-0.620	-0.110
2020/01/31 12:45:57.3	112.210	0.210	-0.700	-0.090
2020/01/31 12:45:57.4	112.190	0.230	-0.770	-0.060
2020/01/31 12:45:57.5	112.190	0.240	-0.830	-0.030
2020/01/31 12:45:57.6	112.170	0.250	-0.890	0.000
2020/01/31 12:45:57.7	112.160	0.260	-0.950	0.030
2020/01/31 12:45:57.8	112.140	0.270	-0.990	0.070
2020/01/31 12:45:57.9	112.120	0.270	-1.040	0.110
2020/01/31 12:45:58.0	112.110	0.280	-1.070	0.140
2020/01/31 12:45:58.1	112.090	0.280	-1.100	0.190
2020/01/31 12:45:58.2	112.080	0.280	-1.120	0.230
2020/01/31 12:45:58.3	112.070	0.280	-1.130	0.270
2020/01/31 12:45:58.4	112.050	0.270	-1.130	0.320
2020/01/31 12:45:58.5	112.050	0.270	-1.130	0.370
2020/01/31 12:45:58.6	112.040	0.260	-1.120	0.420
2020/01/31 12:45:58.7	112.030	0.250	-1.100	0.480
2020/01/31 12:45:58.8	112.030	0.240	-1.070	0.530
2020/01/31 12:45:58.9	112.020	0.220	-1.030	0.590
2020/01/31 12:45:59.0	112.020	0.200	-0.990	0.650
2020/01/31 12:45:59.1	112.020	0.190	-0.940	0.710
2020/01/31 12:45:59.2	112.010	0.170	-0.890	0.770
2020/01/31 12:45:59.3	112.020	0.150	-0.830	0.840
2020/01/31 12:45:59.4	112.020	0.120	-0.760	0.900
2020/01/31 12:45:59.5	112.010	0.100	-0.690	0.980
2020/01/31 12:45:59.6	112.010	0.080	-0.620	1.040
2020/01/31 12:45:59.7	112.020	0.050	-0.550	1.110
2020/01/31 12:45:59.8	112.020	0.030	-0.470	1.180
2020/01/31 12:45:59.9	112.030	-0.000	-0.390	1.250
2020/01/31 12:46:00.0	112.040	-0.030	-0.310	1.320
2020/01/31 12:46:00.1	112.050	-0.050	-0.230	1.400
2020/01/31 12:46:00.2	112.060	-0.080	-0.150	1.470
2020/01/31 12:46:00.3	112.070	-0.100	-0.070	1.540
2020/01/31 12:46:00.4	112.080	-0.120	0.010	1.600
2020/01/31 12:46:00.5	112.070	-0.150	0.080	1.670
2020/01/31 12:46:00.6	112.080	-0.170	0.160	1.740
2020/01/31 12:46:00.7	112.090	-0.190	0.220	1.810
2020/01/31 12:46:00.8	112.100	-0.210	0.280	1.870
2020/01/31 12:46:00.9	112.110	-0.220	0.340	1.930
2020/01/31 12:46:01.0	112.120	-0.240	0.390	1.990
2020/01/31 12:46:01.1	112.130	-0.250	0.440	2.040
2020/01/31 12:46:01.2	112.140	-0.260	0.480	2.090
2020/01/31 12:46:01.3	112.150	-0.270	0.510	2.140
2020/01/31 12:46:01.4	112.150	-0.280	0.540	2.180
2020/01/31 12:46:01.5	112.170	-0.290	0.570	2.220
2020/01/31 12:46:01.6	112.180	-0.290	0.580	2.260
2020/01/31 12:46:01.7	112.180	-0.290	0.590	2.300
2020/01/31 12:46:01.8	112.190	-0.290	0.600	2.330
2020/01/31 12:46:01.9	112.190	-0.290	0.600	2.350
2020/01/31 12:46:02.0	112.200	-0.290	0.590	2.380
2020/01/31 12:46:02.1	112.200	-0.280	0.580	2.400
2020/01/31 12:46:02.2	112.200	-0.280	0.570	2.410
2020/01/31 12:46:02.3	112.210	-0.270	0.550	2.430
2020/01/31 12:46:02.4	112.210	-0.260	0.520	2.440
2020/01/31 12:46:02.5	112.200	-0.240	0.500	2.440
2020/01/31 12:46:02.6	112.200	-0.230	0.470	2.450
2020/01/31 12:46:02.7	112.200	-0.220	0.440	2.450
2020/01/31 12:46:02.8	112.210	-0.200	0.400	2.450
2020/01/31 12:46:02.9	112.210	-0.190	0.370	2.450
2020/01/31 12:46:03.0	112.210	-0.170	0.330	2.440
2020/01/31 12:46:03.1	112.210	-0.150	0.290	2.440
2020/01/31 12:46:03.2	112.210	-0.130	0.250	2.430
2020/01/31 12:46:03.3	112.210	-0.110	0.210	2.410
2020/01/31 12:46:03.4	112.220	-0.090	0.170	2.400
2020/01/31 12:46:03.5	112.220	-0.080	0.130	2.380
2020/01/31 12:46:03.6	112.220	-0.060	0.090	2.360
2020/01/31 12:46:03.7	112.220	-0.040	0.050	2.340
2020/01/31 12:46:03.8	112.220	-0.020	0.010	2.320
2020/01/31 12:46:03.9	112.220	0.010	-0.040	2.300
2020/01/31 12:46:04.0	112.220	0.030	-0.080	2.270
2020/01/31 12:46:04.1	112.220	0.050	-0.120	2.250
2020/01/31 12:46:04.2	112.220	0.070	-0.160	2.220
2020/01/31 12:46:04.3	112.220	0.080	-0.200	2.190
2020/01/31 12:46:04.4	112.220	0.100	-0.240	2.150
2020/01/31 12:46:04.5	112.230	0.120	-0.280	2.120
2020/01/31 12:46:04.6	112.220	0.140	-0.330	2.090
2020/01/31 12:46:04.7	112.220	0.160	-0.360	2.050
2020/01/31 12:46:04.8	112.220	0.180	-0.400	2.010
2020/01/31 12:46:04.9	112.210	0.190	-0.440	1.980
2020/01/31 12:46:05.0	112.210	0.210	-0.480	1.940
2020/01/31 12:46:05.1	112.200	0.220	-0.520	1.900
2020/01/31 12:46:05.2	112.200	0.240	-0.550	1.860
2020/01/31 12:46:05.3	112.190	0.250	-0.580	1.820
2020/01/31 12:46:05.4	112.180	0.260	-0.610	1.790
2020/01/31 12:46:05.5	112.170	0.270	-0.650	1.740
2020/01/31 12:46:05.6	112.160	0.280	-0.670	1.700
2020/01/31 12:46:05.7	112.160	0.290	-0.700	1.660
2020/01/31 12:46:05.8	112.150	0.300	-0.720	1.620
2020/01/31 12:46:05.9	112.150	0.310	-0.740	1.580
2020/01/31 12:46:06.0	112.140	0.310	-0.750	1.540
2020/01/31 12:46:06.1	112.140	0.310	-0.770	1.500
2020/01/31 12:46:06.2	112.130	0.310	-0.780	1.460
2020/01/31 12:46:06.3	112.130	0.310	-0.780	1.420
2020/01/31 12:46:06.4	112.120	0.310	-0.790	1.380
2020/01/31 12:46:06.5	112.130	0.310	-0.790	1.340
2020/01/31 12:46:06.6	112.120	0.300	-0.780	1.300
2020/01/31 12:46:06.7	112.120	0.300	-0.780	1.270
2020/01/31 12:46:06.8	112.120	0.290	-0.770	1.230
2020/01/31 12:46:06.9	112.120	0.280	-0.760	1.190
2020/01/31 12:46:07.0	112.110	0.270	-0.740	1.150
2020/01/31 12:46:07.1	112.110	0.260	-0.730	1.120
2020/01/31 12:46:07.2	112.110	0.240	-0.710	1.080
2020/01/31 12:46:07.3	112.110	0.230	-0.680	1.040
2020/01/31 12:46:07.4	112.100	0.210	-0.660	1.010
2020/01/31 12:46:07.5	112.090	0.190	-0.630	0.970
2020/01/31 12:46:07.6	112.090	0.170	-0.600	0.940
2020/01/31 12:46:07.7	112.090	0.150	-0.560	0.900
2020/01/31 12:46:07.8	112.080	0.130	-0.530	0.870
2020/01/31 12:46:07.9	112.080	0.110	-0.490	0.840
2020/01/31 12:46:08.0	112.080	0.080	-0.450	0.800
2020/01/31 12:46:08.1	112.070	0.060	-0.410	0.770
2020/01/31 12:46:08.2	112.070	0.030	-0.370	0.740
2020/01/31 12:46:08.3	112.060	0.010	-0.320	0.700
2020/01/31 12:46:08.4	112.060	-0.020	-0.280	0.670
2020/01/31 12:46:08.5	112.060	-0.040	-0.230	0.650
2020/01/31 12:46:08.6	112.060	-0.070	-0.180	0.620
2020/01/31 12:46:08.7	112.060	-0.100	-0.130	0.590
2020/01/31 12:46:08.8	112.050	-0.120	-0.080	0.560
2020/01/31 12:46:08.9	112.050	-0.150	-0.030	0.530
2020/01/31 12:46:09.0	112.040	-0.170	0.030	0.510
2020/01/31 12:46:09.1	112.040	-0.200	0.080	0.480
2020/01/31 12:46:09.2	112.040	-0.220	0.130	0.460
2020/01/31 12:46:09.3	112.040	-0.250	0.190	0.440
2020/01/31 12:46:09.4	112.030	-0.270	0.240	0.420
2020/01/31 12:46:09.5	112.030	-0.290	0.290	0.400
2020/01/31 12:46:09.6	112.030	-0.310	0.340	0.380
2020/01/31 12:46:09.7	112.030	-0.330	0.380	0.370
2020/01/31 12:46:09.8	112.030	-0.350	0.430	0.350
2020/01/31 12:46:09.9	112.030	-0.370	0.470	0.340
2020/01/31 12:46:10.0	112.030	-0.380	0.510	0.330
2020/01/31 12:46:10.1	112.020	-0.390	0.550	0.310
2020/01/31 12:46:10.2	112.020	-0.410	0.580	0.300
2020/01/31 12:46:10.3	112.020	-0.420	0.610	0.290
2020/01/31 12:46:10.4	112.020	-0.420	0.630	0.290
2020/01/31 12:46:10.5	112.010	-0.430	0.650	0.280
2020/01/31 12:46:10.6	112.010	-0.440	0.670	0.270
2020/01/31 12:46:10.7	112.010	-0.440	0.680	0.270
2020/01/31 12:46:10.8	112.010	-0.440	0.680	0.260
2020/01/31 12:46:10.9	112.010	-0.440	0.680	0.260
2020/01/31 12:46:11.0	112.010	-0.430	0.680	0.260
2020/01/31 12:46:11.1	112.010	-0.430	0.670	0.250
2020/01/31 12:46:11.2	112.010	-0.420	0.650	0.250
2020/01/31 12:46:11.3	112.020	-0.410	0.630	0.250
2020/01/31 12:46:11.4	112.020	-0.400	0.610	0.250
2020/01/31 12:46:11.5	112.030	-0.390	0.580	0.260
2020/01/31 12:46:11.6	112.030	-0.380	0.550	0.260
2020/01/31 12:46:11.7	112.030	-0.360	0.510	0.270
2020/01/31 12:46:11.8	112.040	-0.350	0.470	0.270
2020/01/31 12:46:11.9	112.040	-0.330	0.420	0.280
2020/01/31 12:46:12.0	112.040	-0.310	0.370	0.290
2020/01/31 12:46:12.1	112.050	-0.290	0.320	0.300
2020/01/31 12:46:12.2	112.050	-0.270	0.270	0.320
2020/01/31 12:46:12.3	112.060	-0.250	0.210	0.330
2020/01/31 12:46:12.4	112.060	-0.230	0.150	0.350
2020/01/31 12:46:12.5	112.070	-0.200	0.090	0.370
2020/01/31 12:46:12.6	112.070	-0.180	0.020	0.390
2020/01/31 12:46:12.7	112.070	-0.160	-0.040	0.410
2020/01/31 12:46:12.8	112.080	-0.130	-0.110	0.430
2020/01/31 12:46:12.9	112.080	-0.100	-0.170	0.460
2020/01/31 12:46:13.0	112.090	-0.080	-0.240	0.490
2020/01/31 12:46:13.1	112.090	-0.050	-0.300	0.520
2020/01/31 12:46:13.2	112.090	-0.020	-0.370	0.550
2020/01/31 12:46:13.3	112.090	0.000	-0.430	0.580
2020/01/31 12:46:13.4	112.100	0.030	-0.490	0.620
2020/01/31 12:46:13.5	112.100	0.060	-0.550	0.650
2020/01/31 12:46:13.6	112.100	0.080	-0.610	0.690
2020/01/31 12:46:13.7	112.100	0.110	-0.670	0.730
2020/01/31 12:46:13.8	112.100	0.130	-0.720	0.770
2020/01/31 12:46:13.9	112.100	0.160	-0.770	0.810
2020/01/31 12:46:14.0	112.100	0.180	-0.820	0.850
2020/01/31 12:46:14.1	112.100	0.210	-0.870	0.890
2020/01/31 12:46:14.2	112.100	0.230	-0.910	0.930
2020/01/31 12:46:14.3	112.100	0.250	-0.940	0.970
2020/01/31 12:46:14.4	112.100	0.270	-0.970	1.010
2020/01/31 12:46:14.5	112.100	0.290	-1.000	1.050
2020/01/31 12:46:14.6	112.100	0.310	-1.020	1.090
2020/01/31 12:46:14.7	112.110	0.330	-1.040	1.130
2020/01/31 12:46:14.8	112.110	0.340	-1.050	1.170
2020/01/31 12:46:14.9	112.110	0.350	-1.050	1.200
2020/01/31 12:46:15.0	112.110	0.360	-1.050	1.240
2020/01/31 12:46:15.1	112.110	0.370	-1.050	1.280
2020/01/31 12:46:15.2	112.110	0.380	-1.040	1.320
2020/01/31 12:46:15.3	112.110	0.390	-1.020	1.350
2020/01/31 12:46:15.4	112.110	0.390	-1.000	1.390
2020/01/31 12:46:15.5	112.120	0.390	-0.970	1.420
2020/01/31 12:46:15.6	112.120	0.390	-0.940	1.460
2020/01/31 12:46:15.7	112.120	0.390	-0.900	1.490
2020/01/31 12:46:15.8	112.120	0.380	-0.860	1.530
2020/01/31 12:46:15.9	112.120	0.370	-0.820	1.560
2020/01/31 12:46:16.0	112.120	0.370	-0.770	1.600
2020/01/31 12:46:16.1	112.120	0.350	-0.720	1.640
2020/01/31 12:46:16.2	112.120	0.340	-0.660	1.670
2020/01/31 12:46:16.3	112.120	0.330	-0.600	1.710
2020/01/31 12:46:16.4	112.110	0.310	-0.540	1.750
2020/01/31 12:46:16.5	112.110	0.300	-0.480	1.790
2020/01/31 12:46:16.6	112.110	0.280	-0.420	1.830
2020/01/31 12:46:16.7	112.100	0.260	-0.350	1.870
2020/01/31 12:46:16.8	112.100	0.240	-0.290	1.910
2020/01/31 12:46:16.9	112.090	0.220	-0.230	1.950
2020/01/31 12:46:17.0	112.090	0.200	-0.160	1.990
2020/01/31 12:46:17.1	112.080	0.180	-0.100	2.030
2020/01/31 12:46:17.2	112.070	0.160	-0.040	2.070
2020/01/31 12:46:17.3	112.070	0.140	0.020	2.110
2020/01/31 12:46:17.4	112.060	0.120	0.080	2.150
2020/01/31 12:46:17.5	112.050	0.100	0.140	2.190
2020/01/31 12:46:17.6	112.040	0.080	0.190	2.220
2020/01/31 12:46:17.7	112.040	0.060	0.240	2.260
2020/01/31 12:46:17.8	112.040	0.040	0.290	2.290
2020/01/31 12:46:17.9	112.030	0.020	0.340	2.320
2020/01/31 12:46:18.0	112.030	0.000	0.380	2.340
2020/01/31 12:46:18.1	112.030	-0.020	0.420	2.370
2020/01/31 12:46:18.2	112.030	-0.030	0.450	2.390
2020/01/31 12:46:18.3	112.030	-0.050	0.480	2.400
2020/01/31 12:46:18.4	112.030	-0.060	0.500	2.410
2020/01/31 12:46:18.5	112.020	-0.070	0.530	2.420
2020/01/31 12:46:18.6	112.030	-0.080	0.540	2.420
2020/01/31 12:46:18.7	112.030	-0.090	0.550	2.420
2020/01/31 12:46:18.8	112.030	-0.090	0.560	2.420
2020/01/31 12:46:18.9	112.030	-0.100	0.560	2.410
2020/01/31 12:46:19.0	112.030	-0.100	0.550	2.390
2020/01/31 12:46:19.1	112.040	-0.110	0.540	2.380
2020/01/31 12:46:19.2	112.040	-0.110	0.520	2.350
2020/01/31 12:46:19.3	112.040	-0.110	0.500	2.330
2020/01/31 12:46:19.4	112.040	-0.100	0.470	2.290
2020/01/31 12:46:19.5	112.030	-0.100	0.440	2.260
2020/01/31 12:46:19.6	112.030	-0.090	0.400	2.220
2020/01/31 12:46:19.7	112.030	-0.090	0.360	2.180
2020/01/31 12:46:19.8	112.020	-0.080	0.320	2.130
2020/01/31 12:46:19.9	112.020	-0.070	0.270	2.080
2020/01/31 12:46:20.0	112.010	-0.060	0.220	2.030
2020/01/31 12:46:20.1	112.010	-0.050	0.170	1.980
2020/01/31 12:46:20.2	112.000	-0.030	0.120	1.920
2020/01/31 12:46:20.3	111.990	-0.020	0.060	1.860
2020/01/31 12:46:20.4	111.980	-0.010	0.000	1.800
2020/01/31 12:46:20.5	111.980	0.010	-0.050	1.730
2020/01/31 12:46:20.6	111.970	0.020	-0.110	1.660
2020/01/31 12:46:20.7	111.960	0.040	-0.170	1.600
2020/01/31 12:46:20.8	111.950	0.050	-0.230	1.530
2020/01/31 12:46:20.9	111.950	0.070	-0.290	1.460
2020/01/31 12:46:21.0	111.940	0.080	-0.350	1.390
2020/01/31 12:46:21.1	111.930	0.100	-0.400	1.330
2020/01/31 12:46:21.2	111.920	0.110	-0.460	1.260
2020/01/31 12:46:21.3	111.910	0.130	-0.510	1.200
2020/01/31 12:46:21.4	111.900	0.140	-0.560	1.130
2020/01/31 12:46:21.5	111.890	0.150	-0.600	1.080
2020/01/31 12:46:21.6	111.880	0.160	-0.640	1.020
2020/01/31 12:46:21.7	111.880	0.170	-0.680	0.960
2020/01/31 12:46:21.8	111.870	0.180	-0.710	0.910
2020/01/31 12:46:21.9	111.860	0.180	-0.740	0.860
2020/01/31 12:46:22.0	111.850	0.190	-0.760	0.810
2020/01/31 12:46:22.1	111.840	0.190	-0.780	0.760
2020/01/31 12:46:22.2	111.830	0.190	-0.790	0.720
2020/01/31 12:46:22.3	111.830	0.190	-0.800	0.680
2020/01/31 12:46:22.4	111.820	0.190	-0.800	0.650
2020/01/31 12:46:22.5	111.810	0.180	-0.790	0.610
2020/01/31 12:46:22.6	111.810	0.180	-0.780	0.580
2020/01/31 12:46:22.7	111.800	0.170	-0.760	0.550
2020/01/31 12:46:22.8	111.800	0.150	-0.740	0.530
2020/01/31 12:46:22.9	111.800	0.140	-0.710	0.500
2020/01/31 12:46:23.0	111.800	0.120	-0.680	0.480
2020/01/31 12:46:23.1	111.800	0.100	-0.640	0.470
2020/01/31 12:46:23.2	111.810	0.080	-0.590	0.450
2020/01/31 12:46:23.3	111.810	0.060	-0.540	0.440
2020/01/31 12:46:23.4	111.820	0.030	-0.490	0.430
2020/01/31 12:46:23.5	111.830	0.010	-0.430	0.430
2020/01/31 12:46:23.6	111.830	-0.020	-0.370	0.420
2020/01/31 12:46:23.7	111.840	-0.050	-0.300	0.410
2020/01/31 12:46:23.8	111.860	-0.080	-0.230	0.410
2020/01/31 12:46:23.9	111.870	-0.110	-0.160	0.410
2020/01/31 12:46:24.0	111.880	-0.150	-0.090	0.410
2020/01/31 12:46:24.1	111.890	-0.180	-0.020	0.410
2020/01/31 12:46:24.2	111.900	-0.210	0.060	0.410
2020/01/31 12:46:24.3	111.920	-0.250	0.130	0.410
2020/01/31 12:46:24.4	111.930	-0.280	0.200	0.410
2020/01/31 12:46:24.5	111.940	-0.320	0.270	0.420
2020/01/31 12:46:24.6	111.950	-0.350	0.340	0.420
2020/01/31 12:46:24.7	111.960	-0.380	0.400	0.430
2020/01/31 12:46:24.8	111.980	-0.410	0.460	0.440
2020/01/31 12:46:24.9	111.980	-0.440	0.520	0.450
2020/01/31 12:46:25.0	111.990	-0.460	0.570	0.460
2020/01/31 12:46:25.1	112.000	-0.480	0.610	0.470
2020/01/31 12:46:25.2	112.000	-0.510	0.650	0.480
2020/01/31 12:46:25.3	112.010	-0.520	0.690	0.490
2020/01/31 12:46:25.4	112.010	-0.540	0.710	0.510
2020/01/31 12:46:25.5	112.010	-0.550	0.730	0.520
2020/01/31 12:46:25.6	112.010	-0.560	0.740	0.540
2020/01/31 12:46:25.7	112.000	-0.570	0.740	0.550
2020/01/31 12:46:25.8	112.000	-0.570	0.730	0.570
2020/01/31 12:46:25.9	111.990	-0.570	0.720	0.590
2020/01/31 12:46:26.0	111.990	-0.560	0.690	0.610
2020/01/31 12:46:26.1	111.980	-0.560	0.660	0.640
2020/01/31 12:46:26.2	111.970	-0.550	0.620	0.660
2020/01/31 12:46:26.3	111.970	-0.530	0.570	0.680
2020/01/31 12:46:26.4	111.960	-0.510	0.520	0.710
2020/01/31 12:46:26.5	111.940	-0.490	0.460	0.730
2020/01/31 12:46:26.6	111.940	-0.470	0.390	0.760
2020/01/31 12:46:26.7	111.930	-0.440	0.310	0.780
2020/01/31 12:46:26.8	111.920	-0.410	0.230	0.800
2020/01/31 12:46:26.9	111.920	-0.380	0.150	0.830
2020/01/31 12:46:27.0	111.910	-0.340	0.070	0.850
2020/01/31 12:46:27.1	111.910	-0.300	-0.020	0.880
2020/01/31 12:46:27.2	111.910	-0.270	-0.110	0.900
2020/01/31 12:46:27.3	111.910	-0.230	-0.200	0.930
2020/01/31 12:46:27.4	111.910	-0.190	-0.300	0.950
2020/01/31 12:46:27.5	111.910	-0.150	-0.390	0.980
2020/01/31 12:46:27.6	111.920	-0.100	-0.470	1.000
2020/01/31 12:46:27.7	111.920	-0.060	-0.560	1.030
2020/01/31 12:46:27.8	111.930	-0.020	-0.640	1.050
2020/01/31 12:46:27.9	111.930	0.020	-0.720	1.080
2020/01/31 12:46:28.0	111.940	0.060	-0.790	1.100
2020/01/31 12:46:28.1	111.950	0.100	-0.860	1.120
2020/01/31 12:46:28.2	111.960	0.130	-0.920	1.150
2020/01/31 12:46:28.3	111.970	0.170	-0.970	1.170
2020/01/31 12:46:28.4	111.980	0.200	-1.020	1.200
2020/01/31 12:46:28.5	111.980	0.240	-1.060	1.220
2020/01/31 12:46:28.6	111.990	0.270	-1.090	1.250
2020/01/31 12:46:28.7	111.990	0.290	-1.120	1.270
2020/01/31 12:46:28.8	112.000	0.320	-1.140	1.300
2020/01/31 12:46:28.9	112.000	0.340	-1.150	1.320
2020/01/31 12:46:29.0	112.010	0.360	-1.150	1.350
2020/01/31 12:46:29.1	112.010	0.380	-1.140	1.370
2020/01/31 12:46:29.2	112.010	0.390	-1.130	1.400
2020/01/31 12:46:29.3	112.010	0.400	-1.110	1.420
2020/01/31 12:46:29.4	112.000	0.410	-1.080	1.450
2020/01/31 12:46:29.5	111.990	0.420	-1.040	1.470
2020/01/31 12:46:29.6	111.980	0.420	-1.000	1.500
2020/01/31 12:46:29.7	111.970	0.420	-0.960	1.520
2020/01/31 12:46:29.8	111.960	0.420	-0.910	1.550
2020/01/31 12:46:29.9	111.950	0.410	-0.850	1.570
2020/01/31 12:46:30.0	111.940	0.410	-0.790	1.600
2020/01/31 12:46:30.1	111.920	0.400	-0.730	1.620
2020/01/31 12:46:30.2	111.910	0.390	-0.660	1.640
2020/01/31 12:46:30.3	111.900	0.370	-0.590	1.660
2020/01/31 12:46:30.4	111.880	0.360	-0.520	1.680
2020/01/31 12:46:30.5	111.860	0.340	-0.450	1.700
2020/01/31 12:46:30.6	111.850	0.330	-0.370	1.720
2020/01/31 12:46:30.7	111.830	0.310	-0.300	1.730
2020/01/31 12:46:30.8	111.810	0.290	-0.220	1.750
2020/01/31 12:46:30.9	111.800	0.270	-0.150	1.770
2020/01/31 12:46:31.0	111.780	0.250	-0.070	1.780
2020/01/31 12:46:31.1	111.760	0.230	0.000	1.800
2020/01/31 12:46:31.2	111.740	0.200	0.070	1.810
2020/01/31 12:46:31.3	111.720	0.180	0.140	1.820
2020/01/31 12:46:31.4	111.710	0.160	0.200	1.840
2020/01/31 12:46:31.5	111.690	0.140	0.260	1.850
2020/01/31 12:46:31.6	111.670	0.120	0.320	1.860
2020/01/31 12:46:31.7	111.650	0.100	0.370	1.870
2020/01/31 12:46:31.8	111.640	0.080	0.420	1.880
2020/01/31 12:46:31.9	111.620	0.060	0.460	1.890
2020/01/31 12:46:32.0	111.600	0.040	0.490	1.900
2020/01/31 12:46:32.1	111.590	0.030	0.520	1.910
2020/01/31 12:46:32.2	111.570	0.010	0.540	1.910
2020/01/31 12:46:32.3	111.560	-0.000	0.550	1.910
2020/01/31 12:46:32.4	111.550	-0.010	0.550	1.910
2020/01/31 12:46:32.5	111.550	-0.020	0.550	1.920
2020/01/31 12:46:32.6	111.540	-0.030	0.540	1.910
2020/01/31 12:46:32.7	111.540	-0.040	0.530	1.900
2020/01/31 12:46:32.8	111.530	-0.050	0.510	1.890
2020/01/31 12:46:32.9	111.530	-0.050	0.480	1.880
2020/01/31 12:46:33.0	111.520	-0.060	0.450	1.860
2020/01/31 12:46:33.1	111.520	-0.060	0.410	1.830
2020/01/31 12:46:33.2	111.520	-0.060	0.370	1.800
2020/01/31 12:46:33.3	111.530	-0.060	0.330	1.770
2020/01/31 12:46:33.4	111.530	-0.050	0.280	1.730
2020/01/31 12:46:33.5	111.540	-0.050	0.220	1.690
2020/01/31 12:46:33.6	111.550	-0.050	0.170	1.640
2020/01/31 12:46:33.7	111.570	-0.040	0.110	1.590
2020/01/31 12:46:33.8	111.580	-0.030	0.050	1.540
2020/01/31 12:46:33.9	111.600	-0.030	-0.000	1.480
2020/01/31 12:46:34.0	111.610	-0.020	-0.060	1.420
2020/01/31 12:46:34.1	111.630	-0.010	-0.120	1.360
2020/01/31 12:46:34.2	111.650	0.000	-0.180	1.300
2020/01/31 12:46:34.3	111.670	0.010	-0.230	1.230
2020/01/31 12:46:34.4	111.690	0.020	-0.280	1.170
2020/01/31 12:46:34.5	111.700	0.030	-0.330	1.110
2020/01/31 12:46:34.6	111.720	0.040	-0.370	1.050
2020/01/31 12:46:34.7	111.740	0.050	-0.410	0.990
2020/01/31 12:46:34.8	111.760	0.060	-0.450	0.930
2020/01/31 12:46:34.9	111.770	0.070	-0.480	0.870
2020/01/31 12:46:35.0	111.790	0.080	-0.500	0.820
2020/01/31 12:46:35.1	111.800	0.080	-0.520	0.770
2020/01/31 12:46:35.2	111.810	0.090	-0.540	0.730
2020/01/31 12:46:35.3	111.830	0.100	-0.540	0.690
2020/01/31 12:46:35.4	111.840	0.100	-0.550	0.650
2020/01/31 12:46:35.5	111.840	0.100	-0.540	0.620
2020/01/31 12:46:35.6	111.850	0.100	-0.530	0.590
2020/01/31 12:46:35.7	111.860	0.100	-0.510	0.570
2020/01/31 12:46:35.8	111.860	0.100	-0.490	0.550
2020/01/31 12:46:35.9	111.870	0.090	-0.470	0.530
2020/01/31 12:46:36.0	111.880	0.090	-0.440	0.520
2020/01/31 12:46:36.1	111.880	0.080	-0.410	0.510
2020/01/31 12:46:36.2	111.880	0.070	-0.380	0.510
2020/01/31 12:46:36.3	111.890	0.060	-0.340	0.500
2020/01/31 12:46:36.4	111.890	0.040	-0.300	0.510
2020/01/31 12:46:36.5	111.880	0.030	-0.250	0.510
2020/01/31 12:46:36.6	111.880	0.010	-0.210	0.520
2020/01/31 12:46:36.7	111.880	-0.010	-0.160	0.530
2020/01/31 12:46:36.8	111.880	-0.030	-0.120	0.550
2020/01/31 12:46:36.9	111.880	-0.050	-0.080	0.560
2020/01/31 12:46:37.0	111.880	-0.070	-0.030	0.580
2020/01/31 12:46:37.1	111.880	-0.090	0.010	0.600
2020/01/31 12:46:37.2	111.880	-0.110	0.050	0.620
2020/01/31 12:46:37.3	111.880	-0.130	0.090	0.650
2020/01/31 12:46:37.4	111.880	-0.150	0.130	0.670
2020/01/31 12:46:37.5	111.880	-0.170	0.160	0.700
2020/01/31 12:46:37.6	111.870	-0.190	0.190	0.720
2020/01/31 12:46:37.7	111.860	-0.210	0.220	0.750
2020/01/31 12:46:37.8	111.860	-0.230	0.240	0.770
2020/01/31 12:46:37.9	111.850	-0.250	0.260	0.800
2020/01/31 12:46:38.0	111.840	-0.270	0.270	0.830
2020/01/31 12:46:38.1	111.830	-0.280	0.280	0.850
2020/01/31 12:46:38.2	111.820	-0.300	0.290	0.870
2020/01/31 12:46:38.3	111.810	-0.310	0.290	0.890
2020/01/31 12:46:38.4	111.800	-0.320	0.290	0.910
2020/01/31 12:46:38.5	111.790	-0.330	0.280	0.930
2020/01/31 12:46:38.6	111.770	-0.330	0.270	0.950
2020/01/31 12:46:38.7	111.760	-0.340	0.260	0.970
2020/01/31 12:46:38.8	111.750	-0.340	0.240	0.980
2020/01/31 12:46:38.9	111.730	-0.340	0.220	0.990
2020/01/31 12:46:39.0	111.720	-0.340	0.200	1.000
2020/01/31 12:46:39.1	111.710	-0.340	0.170	1.010
2020/01/31 12:46:39.2	111.700	-0.330	0.140	1.020
2020/01/31 12:46:39.3	111.690	-0.320	0.110	1.030
2020/01/31 12:46:39.4	111.680	-0.320	0.070	1.040
2020/01/31 12:46:39.5	111.670	-0.310	0.030	1.040
2020/01/31 12:46:39.6	111.660	-0.290	-0.010	1.050
2020/01/31 12:46:39.7	111.660	-0.280	-0.050	1.050
2020/01/31 12:46:39.8	111.650	-0.260	-0.090	1.060
2020/01/31 12:46:39.9	111.650	-0.250	-0.140	1.070
2020/01/31 12:46:40.0	111.650	-0.230	-0.180	1.080
2020/01/31 12:46:40.1	111.650	-0.210	-0.230	1.100
2020/01/31 12:46:40.2	111.650	-0.190	-0.270	1.110
2020/01/31 12:46:40.3	111.650	-0.170	-0.320	1.130
2020/01/31 12:46:40.4	111.650	-0.150	-0.370	1.140
2020/01/31 12:46:40.5	111.660	-0.130	-0.410	1.160
2020/01/31 12:46:40.6	111.660	-0.110	-0.460	1.190
2020/01/31 12:46:40.7	111.660	-0.080	-0.500	1.210
2020/01/31 12:46:40.8	111.660	-0.060	-0.550	1.240
2020/01/31 12:46:40.9	111.670	-0.040	-0.590	1.280
2020/01/31 12:46:41.0	111.670	-0.010	-0.630	1.310
2020/01/31 12:46:41.1	111.670	0.010	-0.670	1.350
2020/01/31 12:46:41.2	111.680	0.030	-0.710	1.390
2020/01/31 12:46:41.3	111.680	0.060	-0.750	1.430
2020/01/31 12:46:41.4	111.680	0.080	-0.780	1.470
2020/01/31 12:46:41.5	111.680	0.100	-0.810	1.520
2020/01/31 12:46:41.6	111.680	0.120	-0.840	1.560
2020/01/31 12:46:41.7	111.680	0.140	-0.860	1.610
2020/01/31 12:46:41.8	111.680	0.160	-0.880	1.650
2020/01/31 12:46:41.9	111.680	0.180	-0.890	1.700
2020/01/31 12:46:42.0	111.680	0.200	-0.900	1.740
2020/01/31 12:46:42.1	111.680	0.220	-0.910	1.780
2020/01/31 12:46:42.2	111.680	0.230	-0.910	1.820
2020/01/31 12:46:42.3	111.680	0.250	-0.910	1.850
2020/01/31 12:46:42.4	111.670	0.260	-0.900	1.890
2020/01/31 12:46:42.5	111.680	0.270	-0.890	1.920
2020/01/31 12:46:42.6	111.670	0.280	-0.870	1.950
2020/01/31 12:46:42.7	111.670	0.290	-0.850	1.980
2020/01/31 12:46:42.8	111.660	0.300	-0.830	2.000
2020/01/31 12:46:42.9	111.650	0.300	-0.800	2.020
2020/01/31 12:46:43.0	111.640	0.310	-0.760	2.030
2020/01/31 12:46:43.1	111.630	0.310	-0.720	2.040
2020/01/31 12:46:43.2	111.620	0.300	-0.680	2.050
2020/01/31 12:46:43.3	111.610	0.300	-0.630	2.050
2020/01/31 12:46:43.4	111.590	0.290	-0.580	2.050
2020/01/31 12:46:43.5	111.560	0.280	-0.530	2.040
2020/01/31 12:46:43.6	111.550	0.270	-0.470	2.030
2020/01/31 12:46:43.7	111.530	0.260	-0.410	2.020
2020/01/31 12:46:43.8	111.520	0.240	-0.340	2.000
2020/01/31 12:46:43.9	111.510	0.220	-0.270	1.990
2020/01/31 12:46:44.0	111.490	0.200	-0.200	1.970
2020/01/31 12:46:44.1	111.480	0.170	-0.130	1.940
2020/01/31 12:46:44.2	111.470	0.150	-0.060	1.920
2020/01/31 12:46:44.3	111.460	0.120	0.020	1.890
2020/01/31 12:46:44.4	111.450	0.090	0.100	1.860
2020/01/31 12:46:44.5	111.470	0.060	0.180	1.830
2020/01/31 12:46:44.6	111.470	0.030	0.260	1.800
2020/01/31 12:46:44.7	111.460	-0.000	0.340	1.770
2020/01/31 12:46:44.8	111.460	-0.040	0.410	1.740
2020/01/31 12:46:44.9	111.460	-0.070	0.490	1.700
2020/01/31 12:46:45.0	111.460	-0.110	0.560	1.670
2020/01/31 12:46:45.1	111.470	-0.140	0.620	1.640
2020/01/31 12:46:45.2	111.480	-0.170	0.690	1.600
2020/01/31 12:46:45.3	111.490	-0.210	0.750	1.560
2020/01/31 12:46:45.4	111.500	-0.240	0.810	1.530
2020/01/31 12:46:45.5	111.500	-0.270	0.850	1.490
2020/01/31 12:46:45.6	111.520	-0.300	0.890	1.450
2020/01/31 12:46:45.7	111.540	-0.320	0.930	1.410
2020/01/31 12:46:45.8	111.560	-0.350	0.960	1.370
2020/01/31 12:46:45.9	111.580	-0.370	0.990	1.330
2020/01/31 12:46:46.0	111.600	-0.390	1.010	1.280
2020/01/31 12:46:46.1	111.620	-0.400	1.020	1.240
2020/01/31 12:46:46.2	111.650	-0.410	1.020	1.190
2020/01/31 12:46:46.3	111.680	-0.420	1.020	1.150
2020/01/31 12:46:46.4	111.710	-0.420	1.010	1.100
2020/01/31 12:46:46.5	111.740	-0.420	0.990	1.050
2020/01/31 12:46:46.6	111.770	-0.410	0.960	1.000
2020/01/31 12:46:46.7	111.800	-0.400	0.920	0.960
2020/01/31 12:46:46.8	111.830	-0.390	0.880	0.910
2020/01/31 12:46:46.9	111.870	-0.370	0.830	0.860
2020/01/31 12:46:47.0	111.900	-0.350	0.760	0.810
2020/01/31 12:46:47.1	111.930	-0.330	0.700	0.760
2020/01/31 12:46:47.2	111.960	-0.300	0.620	0.710
2020/01/31 12:46:47.3	111.990	-0.260	0.540	0.670
2020/01/31 12:46:47.4	112.020	-0.230	0.460	0.620
2020/01/31 12:46:47.5	112.040	-0.190	0.360	0.580
2020/01/31 12:46:47.6	112.070	-0.140	0.260	0.540
2020/01/31 12:46:47.7	112.090	-0.100	0.160	0.500
2020/01/31 12:46:47.8	112.110	-0.050	0.060	0.470
2020/01/31 12:46:47.9	112.130	-0.000	-0.050	0.440
2020/01/31 12:46:48.0	112.140	0.050	-0.160	0.410
2020/01/31 12:46:48.1	112.150	0.100	-0.270	0.390
2020/01/31 12:46:48.2	112.160	0.150	-0.370	0.370
2020/01/31 12:46:48.3	112.160	0.210	-0.480	0.360
2020/01/31 12:46:48.4	112.160	0.260	-0.590	0.350
2020/01/31 12:46:48.5	112.150	0.310	-0.700	0.350
2020/01/31 12:46:48.6	112.140	0.360	-0.800	0.350
2020/01/31 12:46:48.7	112.120	0.410	-0.900	0.360
2020/01/31 12:46:48.8	112.110	0.460	-0.990	0.370
2020/01/31 12:46:48.9	112.080	0.500	-1.080	0.380
2020/01/31 12:46:49.0	112.060	0.540	-1.160	0.400
2020/01/31 12:46:49.1	112.030	0.580	-1.230	0.430
2020/01/31 12:46:49.2	112.000	0.610	-1.300	0.450
2020/01/31 12:46:49.3	111.960	0.640	-1.360	0.480
2020/01/31 12:46:49.4	111.930	0.670	-1.410	0.520
2020/01/31 12:46:49.5	111.890	0.690	-1.440	0.560
2020/01/31 12:46:49.6	111.850	0.700	-1.470	0.590
2020/01/31 12:46:49.7	111.810	0.710	-1.490	0.630
2020/01/31 12:46:49.8	111.770	0.720	-1.500	0.680
2020/01/31 12:46:49.9	111.740	0.720	-1.490	0.720
2020/01/31 12:46:50.0	111.700	0.710	-1.480	0.770
2020/01/31 12:46:50.1	111.660	0.700	-1.450	0.820
2020/01/31 12:46:50.2	111.630	0.690	-1.420	0.870
2020/01/31 12:46:50.3	111.590	0.660	-1.370	0.930
2020/01/31 12:46:50.4	111.560	0.640	-1.320	0.980
2020/01/31 12:46:50.5	111.540	0.610	-1.260	1.040
2020/01/31 12:46:50.6	111.510	0.570	-1.180	1.100
2020/01/31 12:46:50.7	111.480	0.530	-1.100	1.160
2020/01/31 12:46:50.8	111.460	0.490	-1.020	1.220
2020/01/31 12:46:50.9	111.430	0.440	-0.930	1.280
2020/01/31 12:46:51.0	111.410	0.390	-0.830	1.340
2020/01/31 12:46:51.1	111.400	0.340	-0.730	1.410
2020/01/31 12:46:51.2	111.380	0.280	-0.620	1.470
2020/01/31 12:46:51.3	111.370	0.220	-0.520	1.530
2020/01/31 12:46:51.4	111.360	0.170	-0.410	1.590
2020/01/31 12:46:51.5	111.360	0.110	-0.300	1.660
2020/01/31 12:46:51.6	111.360	0.050	-0.190	1.710
2020/01/31 12:46:51.7	111.360	-0.010	-0.090	1.770
2020/01/31 12:46:51.8	111.360	-0.070	0.020	1.820
2020/01/31 12:46:51.9	111.360	-0.130	0.120	1.870
2020/01/31 12:46:52.0	111.370	-0.190	0.220	1.920
2020/01/31 12:46:52.1	111.380	-0.240	0.310	1.970
2020/01/31 12:46:52.2	111.390	-0.290	0.400	2.010
2020/01/31 12:46:52.3	111.410	-0.340	0.480	2.050
2020/01/31 12:46:52.4	111.420	-0.390	0.550	2.080
2020/01/31 12:46:52.5	111.440	-0.440	0.620	2.110
2020/01/31 12:46:52.6	111.460	-0.480	0.680	2.140
2020/01/31 12:46:52.7	111.480	-0.520	0.730	2.160
2020/01/31 12:46:52.8	111.510	-0.550	0.770	2.180
2020/01/31 12:46:52.9	111.530	-0.580	0.810	2.200
2020/01/31 12:46:53.0	111.560	-0.610	0.840	2.210
2020/01/31 12:46:53.1	111.590	-0.630	0.850	2.220
2020/01/31 12:46:53.2	111.620	-0.650	0.860	2.230
2020/01/31 12:46:53.3	111.650	-0.670	0.860	2.230
2020/01/31 12:46:53.4	111.680	-0.680	0.850	2.240
2020/01/31 12:46:53.5	111.730	-0.680	0.840	2.240
2020/01/31 12:46:53.6	111.760	-0.690	0.810	2.230
2020/01/31 12:46:53.7	111.790	-0.680	0.780	2.230
2020/01/31 12:46:53.8	111.820	-0.680	0.740	2.220
2020/01/31 12:46:53.9	111.860	-0.670	0.690	2.210
2020/01/31 12:46:54.0	111.890	-0.650	0.640	2.200
2020/01/31 12:46:54.1	111.920	-0.640	0.580	2.180
2020/01/31 12:46:54.2	111.950	-0.620	0.520	2.170
2020/01/31 12:46:54.3	111.970	-0.590	0.450	2.150
2020/01/31 12:46:54.4	112.000	-0.570	0.380	2.130
2020/01/31 12:46:54.5	112.010	-0.540	0.300	2.110
2020/01/31 12:46:54.6	112.030	-0.500	0.220	2.090
2020/01/31 12:46:54.7	112.060	-0.470	0.140	2.060
2020/01/31 12:46:54.8	112.080	-0.430	0.060	2.040
2020/01/31 12:46:54.9	112.100	-0.400	-0.020	2.020
2020/01/31 12:46:55.0	112.110	-0.360	-0.090	2.000
2020/01/31 12:46:55.1	112.130	-0.320	-0.170	1.980
2020/01/31 12:46:55.2	112.140	-0.280	-0.250	1.950
2020/01/31 12:46:55.3	112.150	-0.240	-0.320	1.930
2020/01/31 12:46:55.4	112.160	-0.190	-0.390	1.910
2020/01/31 12:46:55.5	112.170	-0.150	-0.460	1.880
2020/01/31 12:46:55.6	112.170	-0.110	-0.520	1.860
2020/01/31 12:46:55.7	112.170	-0.070	-0.580	1.830
2020/01/31 12:46:55.8	112.180	-0.030	-0.630	1.810
2020/01/31 12:46:55.9	112.170	0.000	-0.670	1.780
2020/01/31 12:46:56.0	112.170	0.040	-0.720	1.760
2020/01/31 12:46:56.1	112.170	0.070	-0.750	1.730
2020/01/31 12:46:56.2	112.160	0.110	-0.780	1.710
2020/01/31 12:46:56.3	112.160	0.140	-0.800	1.680
2020/01/31 12:46:56.4	112.150	0.170	-0.820	1.660
2020/01/31 12:46:56.5	112.140	0.190	-0.830	1.630
2020/01/31 12:46:56.6	112.130	0.220	-0.830	1.610
2020/01/31 12:46:56.7	112.120	0.240	-0.830	1.580
2020/01/31 12:46:56.8	112.110	0.260	-0.820	1.560
2020/01/31 12:46:56.9	112.100	0.280	-0.810	1.540
2020/01/31 12:46:57.0	112.090	0.290	-0.790	1.520
2020/01/31 12:46:57.1	112.080	0.300	-0.760	1.500
2020/01/31 12:46:57.2	112.070	0.310	-0.730	1.480
2020/01/31 12:46:57.3	112.050	0.320	-0.700	1.460
2020/01/31 12:46:57.4	112.040	0.330	-0.660	1.440
2020/01/31 12:46:57.5	112.040	0.330	-0.610	1.420
2020/01/31 12:46:57.6	112.030	0.330	-0.570	1.400
2020/01/31 12:46:57.7	112.020	0.330	-0.520	1.380
2020/01/31 12:46:57.8	112.010	0.330	-0.470	1.360
2020/01/31 12:46:57.9	112.000	0.330	-0.410	1.350
2020/01/31 12:46:58.0	111.990	0.320	-0.360	1.330
2020/01/31 12:46:58.1	111.980	0.310	-0.300	1.310
2020/01/31 12:46:58.2	111.980	0.300	-0.250	1.290
2020/01/31 12:46:58.3	111.970	0.300	-0.190	1.270
2020/01/31 12:46:58.4	111.960	0.280	-0.130	1.240
2020/01/31 12:46:58.5	111.970	0.270	-0.080	1.230
2020/01/31 12:46:58.6	111.960	0.260	-0.020	1.200
2020/01/31 12:46:58.7	111.960	0.250	0.030	1.180
2020/01/31 12:46:58.8	111.960	0.230	0.080	1.160
2020/01/31 12:46:58.9	111.950	0.220	0.130	1.130
2020/01/31 12:46:59.0	111.950	0.200	0.180	1.110
2020/01/31 12:46:59.1	111.950	0.180	0.220	1.080
2020/01/31 12:46:59.2	111.940	0.170	0.260	1.060
2020/01/31 12:46:59.3	111.940	0.150	0.300	1.030
2020/01/31 12:46:59.4	111.940	0.130	0.330	1.010
2020/01/31 12:46:59.5	111.940	0.120	0.360	0.980
2020/01/31 12:46:59.6	111.940	0.100	0.380	0.960
2020/01/31 12:46:59.7	111.940	0.080	0.400	0.930
2020/01/31 12:46:59.8	111.940	0.070	0.420	0.910
2020/01/31 12:46:59.9	111.930	0.050	0.430	0.880
2020/01/31 12:47:00.0	111.930	0.030	0.440	0.850
2020/01/31 12:47:00.1	111.930	0.020	0.440	0.830
2020/01/31 12:47:00.2	111.930	0.000	0.450	0.800
2020/01/31 12:47:00.3	111.930	-0.010	0.440	0.780
2020/01/31 12:47:00.4	111.930	-0.030	0.440	0.750
2020/01/31 12:47:00.5	111.930	-0.040	0.420	0.730
2020/01/31 12:47:00.6	111.930	-0.050	0.410	0.700
2020/01/31 12:47:00.7	111.930	-0.060	0.390	0.680
2020/01/31 12:47:00.8	111.930	-0.080	0.370	0.660
2020/01/31 12:47:00.9	111.930	-0.090	0.350	0.630
2020/01/31 12:47:01.0	111.940	-0.100	0.330	0.610
2020/01/31 12:47:01.1	111.940	-0.100	0.300	0.590
2020/01/31 12:47:01.2	111.940	-0.110	0.270	0.570
2020/01/31 12:47:01.3	111.950	-0.120	0.240	0.550
2020/01/31 12:47:01.4	111.950	-0.130	0.200	0.540
2020/01/31 12:47:01.5	111.950	-0.130	0.170	0.520
2020/01/31 12:47:01.6	111.960	-0.130	0.130	0.510
2020/01/31 12:47:01.7	111.970	-0.140	0.090	0.490
2020/01/31 12:47:01.8	111.970	-0.140	0.040	0.480
2020/01/31 12:47:01.9	111.980	-0.140	-0.000	0.470
2020/01/31 12:47:02.0	111.990	-0.140	-0.050	0.460
2020/01/31 12:47:02.1	112.000	-0.140	-0.090	0.450
2020/01/31 12:47:02.2	112.010	-0.130	-0.140	0.450
2020/01/31 12:47:02.3	112.020	-0.130	-0.190	0.440
2020/01/31 12:47:02.4	112.030	-0.120	-0.240	0.440
2020/01/31 12:47:02.5	112.040	-0.120	-0.290	0.440
2020/01/31 12:47:02.6	112.050	-0.110	-0.340	0.430
2020/01/31 12:47:02.7	112.060	-0.100	-0.390	0.440
2020/01/31 12:47:02.8	112.070	-0.090	-0.440	0.440
2020/01/31 12:47:02.9	112.080	-0.080	-0.490	0.450
2020/01/31 12:47:03.0	112.090	-0.070	-0.540	0.460
2020/01/31 12:47:03.1	112.100	-0.050	-0.590	0.470
2020/01/31 12:47:03.2	112.100	-0.040	-0.640	0.480
2020/01/31 12:47:03.3	112.110	-0.030	-0.680	0.500
2020/01/31 12:47:03.4	112.120	-0.010	-0.720	0.520
2020/01/31 12:47:03.5	112.140	-0.000	-0.760	0.540
2020/01/31 12:47:03.6	112.140	0.010	-0.800	0.570
2020/01/31 12:47:03.7	112.140	0.030	-0.830	0.600
2020/01/31 12:47:03.8	112.150	0.040	-0.860	0.630
2020/01/31 12:47:03.9	112.150	0.050	-0.890	0.670
2020/01/31 12:47:04.0	112.150	0.070	-0.910	0.700
2020/01/31 12:47:04.1	112.140	0.080	-0.930	0.750
2020/01/31 12:47:04.2	112.140	0.090	-0.940	0.790
2020/01/31 12:47:04.3	112.140	0.100	-0.950	0.840
2020/01/31 12:47:04.4	112.130	0.110	-0.950	0.890
2020/01/31 12:47:04.5	112.120	0.120	-0.940	0.940
2020/01/31 12:47:04.6	112.120	0.130	-0.940	0.990
2020/01/31 12:47:04.7	112.110	0.140	-0.930	1.050
2020/01/31 12:47:04.8	112.100	0.140	-0.910	1.100
2020/01/31 12:47:04.9	112.090	0.150	-0.890	1.160
2020/01/31 12:47:05.0	112.080	0.150	-0.860	1.220
2020/01/31 12:47:05.1	112.070	0.160	-0.830	1.280
2020/01/31 12:47:05.2	112.060	0.160	-0.790	1.350
2020/01/31 12:47:05.3	112.050	0.160	-0.750	1.410
2020/01/31 12:47:05.4	112.040	0.160	-0.710	1.470
2020/01/31 12:47:05.5	112.030	0.160	-0.670	1.540
2020/01/31 12:47:05.6	112.020	0.160	-0.620	1.600
2020/01/31 12:47:05.7	112.010	0.160	-0.560	1.670
2020/01/31 12:47:05.8	112.000	0.150	-0.500	1.730
2020/01/31 12:47:05.9	111.980	0.150	-0.440	1.790
2020/01/31 12:47:06.0	111.970	0.140	-0.380	1.850
2020/01/31 12:47:06.1	111.960	0.140	-0.320	1.910
2020/01/31 12:47:06.2	111.950	0.130	-0.250	1.970
2020/01/31 12:47:06.3	111.940	0.120	-0.190	2.020
2020/01/31 12:47:06.4	111.930	0.110	-0.120	2.070
2020/01/31 12:47:06.5	111.910	0.100	-0.050	2.120
2020/01/31 12:47:06.6	111.900	0.090	0.010	2.170
2020/01/31 12:47:06.7	111.900	0.080	0.080	2.210
2020/01/31 12:47:06.8	111.890	0.060	0.140	2.250
2020/01/31 12:47:06.9	111.890	0.050	0.200	2.280
2020/01/31 12:47:07.0	111.890	0.040	0.260	2.310
2020/01/31 12:47:07.1	111.880	0.020	0.320	2.330
2020/01/31 12:47:07.2	111.880	0.010	0.370	2.350
2020/01/31 12:47:07.3	111.880	-0.010	0.420	2.370
2020/01/31 12:47:07.4	111.890	-0.020	0.470	2.370
2020/01/31 12:47:07.5	111.890	-0.040	0.510	2.380
2020/01/31 12:47:07.6	111.890	-0.050	0.550	2.370
2020/01/31 12:47:07.7	111.900	-0.070	0.580	2.370
2020/01/31 12:47:07.8	111.910	-0.080	0.610	2.360
2020/01/31 12:47:07.9	111.920	-0.100	0.640	2.340
2020/01/31 12:47:08.0	111.930	-0.110	0.660	2.320
2020/01/31 12:47:08.1	111.940	-0.130	0.670	2.290
2020/01/31 12:47:08.2	111.950	-0.140	0.680	2.260
2020/01/31 12:47:08.3	111.960	-0.150	0.690	2.230
2020/01/31 12:47:08.4	111.970	-0.160	0.690	2.190
2020/01/31 12:47:08.5	111.990	-0.170	0.680	2.150
2020/01/31 12:47:08.6	112.000	-0.180	0.670	2.110
2020/01/31 12:47:08.7	112.010	-0.190	0.650	2.060
2020/01/31 12:47:08.8	112.020	-0.200	0.630	2.010
2020/01/31 12:47:08.9	112.040	-0.200	0.610	1.960
2020/01/31 12:47:09.0	112.050	-0.200	0.570	1.910
2020/01/31 12:47:09.1	112.060	-0.200	0.540	1.860
2020/01/31 12:47:09.2	112.070	-0.200	0.490	1.800
2020/01/31 12:47:09.3	112.080	-0.200	0.450	1.750
2020/01/31 12:47:09.4	112.090	-0.190	0.400	1.700
2020/01/31 12:47:09.5	112.110	-0.180	0.340	1.650
2020/01/31 12:47:09.6	112.120	-0.180	0.290	1.600
2020/01/31 12:47:09.7	112.130	-0.160	0.230	1.550
2020/01/31 12:47:09.8	112.130	-0.150	0.170	1.500
2020/01/31 12:47:09.9	112.140	-0.140	0.110	1.460
2020/01/31 12:47:10.0	112.140	-0.120	0.040	1.410
2020/01/31 12:47:10.1	112.150	-0.100	-0.020	1.370
2020/01/31 12:47:10.2	112.150	-0.080	-0.090	1.330
2020/01/31 12:47:10.3	112.150	-0.060	-0.150	1.300
2020/01/31 12:47:10.4	112.150	-0.040	-0.220	1.260
2020/01/31 12:47:10.5	112.160	-0.020	-0.280	1.230
2020/01/31 12:47:10.6	112.160	0.000	-0.340	1.200
2020/01/31 12:47:10.7	112.170	0.030	-0.400	1.170
2020/01/31 12:47:10.8	112.170	0.050	-0.460	1.150
2020/01/31 12:47:10.9	112.160	0.070	-0.520	1.120
2020/01/31 12:47:11.0	112.160	0.100	-0.580	1.100
2020/01/31 12:47:11.1	112.160	0.120	-0.630	1.080
2020/01/31 12:47:11.2	112.160	0.140	-0.680	1.060
2020/01/31 12:47:11.3	112.150	0.170	-0.730	1.040
2020/01/31 12:47:11.4	112.150	0.190	-0.780	1.030
2020/01/31 12:47:11.5	112.130	0.210	-0.820	1.010
2020/01/31 12:47:11.6	112.120	0.230	-0.860	1.000
2020/01/31 12:47:11.7	112.110	0.240	-0.890	0.990
2020/01/31 12:47:11.8	112.100	0.260	-0.920	0.980
2020/01/31 12:47:11.9	112.090	0.270	-0.940	0.970
2020/01/31 12:47:12.0	112.080	0.290	-0.960	0.970
2020/01/31 12:47:12.1	112.070	0.300	-0.970	0.960
2020/01/31 12:47:12.2	112.060	0.300	-0.980	0.960
2020/01/31 12:47:12.3	112.050	0.310	-0.980	0.950
2020/01/31 12:47:12.4	112.030	0.310	-0.970	0.950
2020/01/31 12:47:12.5	112.030	0.310	-0.960	0.940
2020/01/31 12:47:12.6	112.020	0.310	-0.940	0.940
2020/01/31 12:47:12.7	112.010	0.300	-0.920	0.940
2020/01/31 12:47:12.8	111.990	0.290	-0.890	0.930
2020/01/31 12:47:12.9	111.980	0.280	-0.850	0.930
2020/01/31 12:47:13.0	111.970	0.260	-0.800	0.930
2020/01/31 12:47:13.1	111.960	0.240	-0.760	0.930
2020/01/31 12:47:13.2	111.950	0.220	-0.700	0.920
2020/01/31 12:47:13.3	111.940	0.200	-0.640	0.920
2020/01/31 12:47:13.4	111.930	0.170	-0.580	0.920
2020/01/31 12:47:13.5	111.920	0.140	-0.500	0.910
2020/01/31 12:47:13.6	111.910	0.110	-0.430	0.910
2020/01/31 12:47:13.7	111.910	0.070	-0.360	0.910
2020/01/31 12:47:13.8	111.910	0.040	-0.280	0.910
2020/01/31 12:47:13.9	111.910	0.000	-0.200	0.900
2020/01/31 12:47:14.0	111.910	-0.040	-0.120	0.900
2020/01/31 12:47:14.1	111.910	-0.070	-0.040	0.900
2020/01/31 12:47:14.2	111.920	-0.110	0.040	0.900
2020/01/31 12:47:14.3	111.920	-0.150	0.120	0.900
2020/01/31 12:47:14.4	111.930	-0.190	0.190	0.900
2020/01/31 12:47:14.5	111.930	-0.230	0.270	0.900
2020/01/31 12:47:14.6	111.940	-0.270	0.330	0.900
2020/01/31 12:47:14.7	111.950	-0.310	0.400	0.900
2020/01/31 12:47:14.8	111.960	-0.340	0.460	0.900
2020/01/31 12:47:14.9	111.980	-0.370	0.520	0.900
2020/01/31 12:47:15.0	111.990	-0.400	0.570	0.900
2020/01/31 12:47:15.1	112.000	-0.430	0.610	0.910
2020/01/31 12:47:15.2	112.020	-0.460	0.650	0.910
2020/01/31 12:47:15.3	112.030	-0.480	0.680	0.910
2020/01/31 12:47:15.4	112.040	-0.500	0.700	0.920
2020/01/31 12:47:15.5	112.050	-0.520	0.720	0.930
2020/01/31 12:47:15.6	112.060	-0.530	0.730	0.930
2020/01/31 12:47:15.7	112.080	-0.540	0.730	0.940
2020/01/31 12:47:15.8	112.090	-0.550	0.720	0.950
2020/01/31 12:47:15.9	112.100	-0.550	0.710	0.960
2020/01/31 12:47:16.0	112.120	-0.550	0.690	0.960
2020/01/31 12:47:16.1	112.130	-0.550	0.660	0.970
2020/01/31 12:47:16.2	112.140	-0.540	0.630	0.980
2020/01/31 12:47:16.3	112.150	-0.530	0.590	1.000
2020/01/31 12:47:16.4	112.160	-0.510	0.540	1.010
2020/01/31 12:47:16.5	112.170	-0.500	0.490	1.020
2020/01/31 12:47:16.6	112.180	-0.480	0.430	1.040
2020/01/31 12:47:16.7	112.190	-0.460	0.370	1.050
2020/01/31 12:47:16.8	112.190	-0.430	0.310	1.070
2020/01/31 12:47:16.9	112.190	-0.410	0.240	1.090
2020/01/31 12:47:17.0	112.190	-0.380	0.170	1.100
2020/01/31 12:47:17.1	112.190	-0.350	0.090	1.120
2020/01/31 12:47:17.2	112.190	-0.320	0.010	1.140
2020/01/31 12:47:17.3	112.180	-0.280	-0.060	1.160
2020/01/31 12:47:17.4	112.180	-0.250	-0.140	1.190
2020/01/31 12:47:17.5	112.170	-0.210	-0.220	1.210
2020/01/31 12:47:17.6	112.160	-0.180	-0.300	1.230
2020/01/31 12:47:17.7	112.150	-0.140	-0.380	1.260
2020/01/31 12:47:17.8	112.140	-0.110	-0.460	1.280
2020/01/31 12:47:17.9	112.130	-0.070	-0.530	1.310
2020/01/31 12:47:18.0	112.110	-0.030	-0.600	1.330
2020/01/31 12:47:18.1	112.100	0.000	-0.670	1.350
2020/01/31 12:47:18.2	112.080	0.040	-0.730	1.380
2020/01/31 12:47:18.3	112.070	0.070	-0.800	1.400
2020/01/31 12:47:18.4	112.050	0.100	-0.850	1.430
2020/01/31 12:47:18.5	112.030	0.130	-0.900	1.450
2020/01/31 12:47:18.6	112.020	0.160	-0.950	1.470
2020/01/31 12:47:18.7	112.000	0.190	-0.990	1.490
2020/01/31 12:47:18.8	111.990	0.220	-1.030	1.510
2020/01/31 12:47:18.9	111.980	0.240	-1.060	1.530
2020/01/31 12:47:19.0	111.970	0.270	-1.080	1.550
2020/01/31 12:47:19.1	111.960	0.290	-1.100	1.570
2020/01/31 12:47:19.2	111.960	0.310	-1.110	1.590
2020/01/31 12:47:19.3	111.950	0.330	-1.110	1.600
2020/01/31 12:47:19.4	111.950	0.340	-1.110	1.620
2020/01/31 12:47:19.5	111.950	0.360	-1.100	1.640
2020/01/31 12:47:19.6	111.960	0.370	-1.090	1.650
2020/01/31 12:47:19.7	111.960	0.380	-1.070	1.660
2020/01/31 12:47:19.8	111.960	0.390	-1.040	1.670
2020/01/31 12:47:19.9	111.960	0.400	-1.000	1.680
2020/01/31 12:47:20.0	111.970	0.400	-0.960	1.680
2020/01/31 12:47:20.1	111.980	0.410	-0.920	1.690
2020/01/31 12:47:20.2	111.990	0.410	-0.870	1.690
2020/01/31 12:47:20.3	111.990	0.410	-0.820	1.690
2020/01/31 12:47:20.4	112.000	0.410	-0.760	1.690
2020/01/31 12:47:20.5	112.020	0.410	-0.700	1.690
2020/01/31 12:47:20.6	112.030	0.410	-0.630	1.690
2020/01/31 12:47:20.7	112.040	0.410	-0.570	1.690
2020/01/31 12:47:20.8	112.050	0.410	-0.500	1.680
2020/01/31 12:47:20.9	112.060	0.400	-0.430	1.680
2020/01/31 12:47:21.0	112.070	0.400	-0.360	1.670
2020/01/31 12:47:21.1	112.090	0.390	-0.290	1.660
2020/01/31 12:47:21.2	112.100	0.380	-0.220	1.650
2020/01/31 12:47:21.3	112.110	0.370	-0.150	1.630
2020/01/31 12:47:21.4	112.120	0.370	-0.080	1.620
2020/01/31 12:47:21.5	112.130	0.360	-0.010	1.600
2020/01/31 12:47:21.6	112.140	0.350	0.060	1.590
2020/01/31 12:47:21.7	112.150	0.340	0.130	1.570
2020/01/31 12:47:21.8	112.160	0.330	0.190	1.550
2020/01/31 12:47:21.9	112.170	0.320	0.250	1.530
2020/01/31 12:47:22.0	112.180	0.300	0.310	1.500
2020/01/31 12:47:22.1	112.190	0.290	0.370	1.480
2020/01/31 12:47:22.2	112.200	0.280	0.430	1.450
2020/01/31 12:47:22.3	112.200	0.260	0.480	1.430
2020/01/31 12:47:22.4	112.210	0.250	0.530	1.400
2020/01/31 12:47:22.5	112.230	0.230	0.580	1.370
2020/01/31 12:47:22.6	112.240	0.220	0.620	1.340
2020/01/31 12:47:22.7	112.250	0.200	0.660	1.310
2020/01/31 12:47:22.8	112.250	0.180	0.690	1.270
2020/01/31 12:47:22.9	112.260	0.160	0.720	1.240
2020/01/31 12:47:23.0	112.270	0.150	0.750	1.200
2020/01/31 12:47:23.1	112.270	0.130	0.770	1.170
2020/01/31 12:47:23.2	112.280	0.110	0.780	1.130
2020/01/31 12:47:23.3	112.280	0.090	0.800	1.100
2020/01/31 12:47:23.4	112.290	0.070	0.800	1.070
2020/01/31 12:47:23.5	112.290	0.050	0.800	1.030
2020/01/31 12:47:23.6	112.290	0.030	0.800	1.000
2020/01/31 12:47:23.7	112.290	0.000	0.790	0.970
2020/01/31 12:47:23.8	112.300	-0.020	0.780	0.940
2020/01/31 12:47:23.9	112.300	-0.040	0.770	0.920
2020/01/31 12:47:24.0	112.300	-0.060	0.740	0.890
2020/01/31 12:47:24.1	112.300	-0.080	0.720	0.870
2020/01/31 12:47:24.2	112.290	-0.100	0.690	0.850
2020/01/31 12:47:24.3	112.290	-0.120	0.650	0.830
2020/01/31 12:47:24.4	112.290	-0.140	0.620	0.810
2020/01/31 12:47:24.5	112.270	-0.160	0.580	0.800
2020/01/31 12:47:24.6	112.260	-0.180	0.530	0.790
2020/01/31 12:47:24.7	112.260	-0.190	0.480	0.780
2020/01/31 12:47:24.8	112.250	-0.210	0.430	0.770
2020/01/31 12:47:24.9	112.240	-0.230	0.380	0.770
2020/01/31 12:47:25.0	112.240	-0.240	0.320	0.770
2020/01/31 12:47:25.1	112.230	-0.250	0.260	0.770
2020/01/31 12:47:25.2	112.220	-0.270	0.200	0.770
2020/01/31 12:47:25.3	112.210	-0.280	0.140	0.780
2020/01/31 12:47:25.4	112.200	-0.290	0.080	0.780
2020/01/31 12:47:25.5	112.190	-0.290	0.010	0.790
2020/01/31 12:47:25.6	112.180	-0.300	-0.050	0.800
2020/01/31 12:47:25.7	112.180	-0.300	-0.120	0.810
2020/01/31 12:47:25.8	112.170	-0.310	-0.180	0.820
2020/01/31 12:47:25.9	112.160	-0.310	-0.250	0.830
2020/01/31 12:47:26.0	112.150	-0.310	-0.310	0.840
2020/01/31 12:47:26.1	112.140	-0.300	-0.370	0.860
2020/01/31 12:47:26.2	112.140	-0.300	-0.440	0.870
2020/01/31 12:47:26.3	112.130	-0.290	-0.500	0.890
2020/01/31 12:47:26.4	112.130	-0.290	-0.560	0.900
2020/01/31 12:47:26.5	112.130	-0.280	-0.620	0.920
2020/01/31 12:47:26.6	112.130	-0.270	-0.670	0.940
2020/01/31 12:47:26.7	112.120	-0.260	-0.730	0.960
2020/01/31 12:47:26.8	112.120	-0.240	-0.780	0.970
2020/01/31 12:47:26.9	112.120	-0.230	-0.830	0.990
2020/01/31 12:47:27.0	112.120	-0.210	-0.880	1.020
2020/01/31 12:47:27.1	112.120	-0.200	-0.930	1.040
2020/01/31 12:47:27.2	112.120	-0.180	-0.970	1.060
2020/01/31 12:47:27.3	112.120	-0.160	-1.010	1.080
2020/01/31 12:47:27.4	112.120	-0.140	-1.050	1.110
2020/01/31 12:47:27.5	112.120	-0.120	-1.080	1.140
2020/01/31 12:47:27.6	112.130	-0.100	-1.110	1.160
2020/01/31 12:47:27.7	112.130	-0.080	-1.140	1.190
2020/01/31 12:47:27.8	112.130	-0.060	-1.160	1.220
2020/01/31 12:47:27.9	112.130	-0.040	-1.180	1.240
2020/01/31 12:47:28.0	112.140	-0.030	-1.190	1.270
2020/01/31 12:47:28.1	112.140	-0.010	-1.200	1.300
2020/01/31 12:47:28.2	112.140	0.010	-1.210	1.330
2020/01/31 12:47:28.3	112.150	0.030	-1.210	1.350
2020/01/31 12:47:28.4	112.150	0.040	-1.200	1.380
2020/01/31 12:47:28.5	112.150	0.060	-1.190	1.410
2020/01/31 12:47:28.6	112.160	0.070	-1.180	1.430
2020/01/31 12:47:28.7	112.160	0.090	-1.160	1.460
2020/01/31 12:47:28.8	112.160	0.100	-1.140	1.490
2020/01/31 12:47:28.9	112.160	0.110	-1.120	1.510
2020/01/31 12:47:29.0	112.160	0.110	-1.080	1.540
2020/01/31 12:47:29.1	112.160	0.120	-1.050	1.560
2020/01/31 12:47:29.2	112.160	0.120	-1.010	1.590
2020/01/31 12:47:29.3	112.150	0.130	-0.970	1.610
2020/01/31 12:47:29.4	112.150	0.130	-0.920	1.640
2020/01/31 12:47:29.5	112.140	0.120	-0.870	1.660
2020/01/31 12:47:29.6	112.140	0.120	-0.810	1.690
2020/01/31 12:47:29.7	112.130	0.110	-0.750	1.710
2020/01/31 12:47:29.8	112.120	0.110	-0.690	1.730
2020/01/31 12:47:29.9	112.110	0.100	-0.620	1.750
2020/01/31 12:47:30.0	112.100	0.090	-0.560	1.770
2020/01/31 12:47:30.1	112.090	0.070	-0.490	1.790
2020/01/31 12:47:30.2	112.080	0.060	-0.410	1.810
2020/01/31 12:47:30.3	112.070	0.040	-0.340	1.830
2020/01/31 12:47:30.4	112.060	0.020	-0.260	1.840
2020/01/31 12:47:30.5	112.040	0.000	-0.190	1.860
2020/01/31 12:47:30.6	112.030	-0.020	-0.110	1.870
2020/01/31 12:47:30.7	112.010	-0.040	-0.030	1.890
2020/01/31 12:47:30.8	112.000	-0.060	0.040	1.900
2020/01/31 12:47:30.9	111.990	-0.090	0.120	1.910
2020/01/31 12:47:31.0	111.980	-0.110	0.200	1.920
2020/01/31 12:47:31.1	111.970	-0.140	0.270	1.930
2020/01/31 12:47:31.2	111.960	-0.160	0.340	1.930
2020/01/31 12:47:31.3	111.950	-0.190	0.410	1.940
2020/01/31 12:47:31.4	111.950	-0.220	0.480	1.940
2020/01/31 12:47:31.5	111.950	-0.240	0.540	1.940
2020/01/31 12:47:31.6	111.940	-0.270	0.600	1.940
2020/01/31 12:47:31.7	111.940	-0.290	0.660	1.940
2020/01/31 12:47:31.8	111.930	-0.310	0.710	1.930
2020/01/31 12:47:31.9	111.930	-0.330	0.760	1.930
2020/01/31 12:47:32.0	111.930	-0.350	0.810	1.920
2020/01/31 12:47:32.1	111.930	-0.370	0.850	1.900
2020/01/31 12:47:32.2	111.940	-0.390	0.880	1.880
2020/01/31 12:47:32.3	111.940	-0.400	0.910	1.860
2020/01/31 12:47:32.4	111.940	-0.410	0.940	1.840
2020/01/31 12:47:32.5	111.960	-0.420	0.960	1.820
2020/01/31 12:47:32.6	111.970	-0.430	0.970	1.790
2020/01/31 12:47:32.7	111.980	-0.430	0.980	1.760
2020/01/31 12:47:32.8	111.990	-0.430	0.980	1.720
2020/01/31 12:47:32.9	112.000	-0.430	0.980	1.680
2020/01/31 12:47:33.0	112.020	-0.420	0.960	1.640
2020/01/31 12:47:33.1	112.040	-0.410	0.950	1.590
2020/01/31 12:47:33.2	112.050	-0.400	0.920	1.540
2020/01/31 12:47:33.3	112.070	-0.390	0.890	1.490
2020/01/31 12:47:33.4	112.090	-0.370	0.850	1.440
2020/01/31 12:47:33.5	112.110	-0.340	0.800	1.380
2020/01/31 12:47:33.6	112.130	-0.320	0.760	1.320
2020/01/31 12:47:33.7	112.160	-0.290	0.700	1.260
2020/01/31 12:47:33.8	112.180	-0.250	0.650	1.200
2020/01/31 12:47:33.9	112.200	-0.220	0.580	1.140
2020/01/31 12:47:34.0	112.220	-0.180	0.520	1.080
2020/01/31 12:47:34.1	112.250	-0.140	0.450	1.010
2020/01/31 12:47:34.2	112.270	-0.100	0.370	0.950
2020/01/31 12:47:34.3	112.290	-0.060	0.300	0.890
2020/01/31 12:47:34.4	112.310	-0.010	0.220	0.830
2020/01/31 12:47:34.5	112.330	0.030	0.150	0.770
2020/01/31 12:47:34.6	112.350	0.080	0.070	0.720
2020/01/31 12:47:34.7	112.370	0.130	-0.010	0.660
2020/01/31 12:47:34.8	112.380	0.170	-0.090	0.610
2020/01/31 12:47:34.9	112.390	0.220	-0.160	0.560
2020/01/31 12:47:35.0	112.400	0.270	-0.240	0.510
2020/01/31 12:47:35.1	112.410	0.310	-0.310	0.460
2020/01/31 12:47:35.2	112.420	0.360	-0.380	0.420
2020/01/31 12:47:35.3	112.420	0.400	-0.450	0.380
2020/01/31 12:47:35.4	112.420	0.440	-0.510	0.350
2020/01/31 12:47:35.5	112.410	0.480	-0.570	0.320
2020/01/31 12:47:35.6	112.400	0.510	-0.620	0.290
2020/01/31 12:47:35.7	112.400	0.540	-0.670	0.260
2020/01/31 12:47:35.8	112.390	0.570	-0.720	0.240
2020/01/31 12:47:35.9	112.380	0.600	-0.760	0.220
2020/01/31 12:47:36.0	112.370	0.620	-0.790	0.210
2020/01/31 12:47:36.1	112.360	0.640	-0.820	0.190
2020/01/31 12:47:36.2	112.340	0.660	-0.840	0.180
2020/01/31 12:47:36.3	112.330	0.670	-0.860	0.180
2020/01/31 12:47:36.4	112.310	0.680	-0.870	0.180
2020/01/31 12:47:36.5	112.300	0.690	-0.880	0.180
2020/01/31 12:47:36.6	112.280	0.690	-0.880	0.180
2020/01/31 12:47:36.7	112.260	0.690	-0.880	0.190
2020/01/31 12:47:36.8	112.240	0.690	-0.880	0.200
2020/01/31 12:47:36.9	112.220	0.680	-0.870	0.210
2020/01/31 12:47:37.0	112.200	0.670	-0.850	0.230
2020/01/31 12:47:37.1	112.180	0.660	-0.840	0.250
2020/01/31 12:47:37.2	112.150	0.640	-0.810	0.280
2020/01/31 12:47:37.3	112.130	0.630	-0.790	0.310
2020/01/31 12:47:37.4	112.110	0.610	-0.760	0.340
2020/01/31 12:47:37.5	112.090	0.590	-0.730	0.370
2020/01/31 12:47:37.6	112.070	0.560	-0.700	0.410
2020/01/31 12:47:37.7	112.040	0.540	-0.660	0.450
2020/01/31 12:47:37.8	112.020	0.510	-0.620	0.500
2020/01/31 12:47:37.9	111.990	0.490	-0.590	0.540
2020/01/31 12:47:38.0	111.970	0.460	-0.550	0.590
2020/01/31 12:47:38.1	111.950	0.430	-0.510	0.640
2020/01/31 12:47:38.2	111.930	0.400	-0.470	0.690
2020/01/31 12:47:38.3	111.910	0.370	-0.440	0.750
2020/01/31 12:47:38.4	111.890	0.340	-0.400	0.800
2020/01/31 12:47:38.5	111.870	0.310	-0.370	0.860
2020/01/31 12:47:38.6	111.850	0.280	-0.330	0.920
2020/01/31 12:47:38.7	111.830	0.250	-0.300	0.970
2020/01/31 12:47:38.8	111.820	0.230	-0.270	1.030
2020/01/31 12:47:38.9	111.810	0.200	-0.240	1.090
2020/01/31 12:47:39.0	111.790	0.170	-0.210	1.150
2020/01/31 12:47:39.1	111.780	0.140	-0.190	1.200
2020/01/31 12:47:39.2	111.780	0.120	-0.160	1.260
2020/01/31 12:47:39.3	111.770	0.090	-0.140	1.310
2020/01/31 12:47:39.4	111.760	0.070	-0.120	1.370
2020/01/31 12:47:39.5	111.760	0.040	-0.110	1.430
2020/01/31 12:47:39.6	111.760	0.020	-0.090	1.480
2020/01/31 12:47:39.7	111.760	0.000	-0.080	1.530
2020/01/31 12:47:39.8	111.760	-0.020	-0.070	1.580
2020/01/31 12:47:39.9	111.760	-0.040	-0.070	1.630
2020/01/31 12:47:40.0	111.760	-0.060	-0.060	1.680
2020/01/31 12:47:40.1	111.760	-0.080	-0.060	1.720
2020/01/31 12:47:40.2	111.760	-0.090	-0.060	1.770
2020/01/31 12:47:40.3	111.770	-0.110	-0.060	1.810
2020/01/31 12:47:40.4	111.770	-0.120	-0.070	1.850
2020/01/31 12:47:40.5	111.770	-0.140	-0.070	1.890
2020/01/31 12:47:40.6	111.780	-0.150	-0.080	1.930
2020/01/31 12:47:40.7	111.780	-0.160	-0.090	1.970
2020/01/31 12:47:40.8	111.790	-0.180	-0.090	2.010
2020/01/31 12:47:40.9	111.800	-0.190	-0.100	2.040
2020/01/31 12:47:41.0	111.800	-0.200	-0.110	2.080
2020/01/31 12:47:41.1	111.810	-0.210	-0.120	2.110
2020/01/31 12:47:41.2	111.810	-0.220	-0.130	2.140
2020/01/31 12:47:41.3	111.820	-0.230	-0.140	2.170
2020/01/31 12:47:41.4	111.830	-0.250	-0.150	2.200
2020/01/31 12:47:41.5	111.830	-0.260	-0.160	2.220
2020/01/31 12:47:41.6	111.830	-0.270	-0.170	2.250
2020/01/31 12:47:41.7	111.840	-0.280	-0.180	2.280
2020/01/31 12:47:41.8	111.840	-0.290	-0.180	2.300
2020/01/31 12:47:41.9	111.850	-0.310	-0.190	2.330
2020/01/31 12:47:42.0	111.850	-0.320	-0.190	2.350
2020/01/31 12:47:42.1	111.850	-0.330	-0.190	2.380
2020/01/31 12:47:42.2	111.850	-0.340	-0.190	2.400
2020/01/31 12:47:42.3	111.850	-0.360	-0.180	2.430
2020/01/31 12:47:42.4	111.850	-0.370	-0.180	2.450
2020/01/31 12:47:42.5	111.850	-0.390	-0.170	2.480
2020/01/31 12:47:42.6	111.850	-0.400	-0.160	2.500
2020/01/31 12:47:42.7	111.850	-0.420	-0.140	2.530
2020/01/31 12:47:42.8	111.850	-0.430	-0.130	2.550
2020/01/31 12:47:42.9	111.850	-0.450	-0.110	2.570
2020/01/31 12:47:43.0	111.840	-0.460	-0.090	2.590
2020/01/31 12:47:43.1	111.840	-0.480	-0.060	2.610
2020/01/31 12:47:43.2	111.840	-0.490	-0.040	2.630
2020/01/31 12:47:43.3	111.830	-0.510	-0.010	2.650
2020/01/31 12:47:43.4	111.830	-0.520	0.010	2.670
2020/01/31 12:47:43.5	111.830	-0.540	0.040	2.680
2020/01/31 12:47:43.6	111.830	-0.550	0.070	2.690
2020/01/31 12:47:43.7	111.830	-0.570	0.100	2.700
2020/01/31 12:47:43.8	111.820	-0.580	0.130	2.700
2020/01/31 12:47:43.9	111.820	-0.590	0.160	2.700
2020/01/31 12:47:44.0	111.820	-0.600	0.180	2.700
2020/01/31 12:47:44.1	111.820	-0.610	0.210	2.690
2020/01/31 12:47:44.2	111.820	-0.620	0.230	2.680
2020/01/31 12:47:44.3	111.820	-0.620	0.250	2.660
2020/01/31 12:47:44.4	111.820	-0.630	0.270	2.640
2020/01/31 12:47:44.5	111.820	-0.630	0.290	2.610
2020/01/31 12:47:44.6	111.820	-0.630	0.290	2.580
2020/01/31 12:47:44.7	111.820	-0.620	0.300	2.540
2020/01/31 12:47:44.8	111.830	-0.620	0.300	2.500
2020/01/31 12:47:44.9	111.830	-0.610	0.290	2.460
2020/01/31 12:47:45.0	111.830	-0.600	0.280	2.400
2020/01/31 12:47:45.1	111.830	-0.580	0.270	2.350
2020/01/31 12:47:45.2	111.840	-0.560	0.250	2.290
2020/01/31 12:47:45.3	111.840	-0.540	0.220	2.220
2020/01/31 12:47:45.4	111.840	-0.520	0.190	2.160
2020/01/31 12:47:45.5	111.850	-0.490	0.150	2.090
2020/01/31 12:47:45.6	111.850	-0.460	0.110	2.010
2020/01/31 12:47:45.7	111.850	-0.430	0.060	1.940
2020/01/31 12:47:45.8	111.850	-0.390	0.010	1.860
2020/01/31 12:47:45.9	111.840	-0.350	-0.040	1.790
2020/01/31 12:47:46.0	111.840	-0.310	-0.100	1.710
2020/01/31 12:47:46.1	111.830	-0.270	-0.160	1.630
2020/01/31 12:47:46.2	111.820	-0.220	-0.210	1.550
2020/01/31 12:47:46.3	111.820	-0.170	-0.270	1.480
2020/01/31 12:47:46.4	111.800	-0.120	-0.330	1.410
2020/01/31 12:47:46.5	111.800	-0.070	-0.400	1.330
2020/01/31 12:47:46.6	111.780	-0.020	-0.450	1.260
2020/01/31 12:47:46.7	111.770	0.030	-0.500	1.200
2020/01/31 12:47:46.8	111.750	0.080	-0.550	1.130
2020/01/31 12:47:46.9	111.730	0.140	-0.600	1.070
2020/01/31 12:47:47.0	111.710	0.190	-0.640	1.000
2020/01/31 12:47:47.1	111.690	0.230	-0.670	0.940
2020/01/31 12:47:47.2	111.670	0.280	-0.700	0.880
2020/01/31 12:47:47.3	111.660	0.330	-0.720	0.830
2020/01/31 12:47:47.4	111.640	0.370	-0.740	0.770
2020/01/31 12:47:47.5	111.610	0.410	-0.740	0.710
2020/01/31 12:47:47.6	111.590	0.450	-0.750	0.660
2020/01/31 12:47:47.7	111.570	0.480	-0.740	0.610
2020/01/31 12:47:47.8	111.560	0.510	-0.730	0.560
2020/01/31 12:47:47.9	111.540	0.530	-0.710	0.510
2020/01/31 12:47:48.0	111.530	0.560	-0.690	0.460
2020/01/31 12:47:48.1	111.510	0.570	-0.660	0.410
2020/01/31 12:47:48.2	111.500	0.590	-0.620	0.360
2020/01/31 12:47:48.3	111.490	0.600	-0.570	0.310
2020/01/31 12:47:48.4	111.480	0.600	-0.520	0.270
2020/01/31 12:47:48.5	111.470	0.610	-0.470	0.220
2020/01/31 12:47:48.6	111.470	0.600	-0.410	0.180
2020/01/31 12:47:48.7	111.460	0.600	-0.350	0.130
2020/01/31 12:47:48.8	111.460	0.590	-0.280	0.090
2020/01/31 12:47:48.9	111.460	0.570	-0.210	0.040
2020/01/31 12:47:49.0	111.450	0.560	-0.140	0.000
2020/01/31 12:47:49.1	111.450	0.540	-0.070	-0.040
2020/01/31 12:47:49.2	111.460	0.510	-0.000	-0.080
2020/01/31 12:47:49.3	111.460	0.490	0.070	-0.120
2020/01/31 12:47:49.4	111.460	0.460	0.140	-0.160
2020/01/31 12:47:49.5	111.470	0.440	0.200	-0.190
2020/01/31 12:47:49.6	111.480	0.410	0.270	-0.220
2020/01/31 12:47:49.7	111.480	0.380	0.330	-0.250
2020/01/31 12:47:49.8	111.490	0.350	0.380	-0.280
2020/01/31 12:47:49.9	111.490	0.310	0.440	-0.310
2020/01/31 12:47:50.0	111.500	0.280	0.480	-0.330
2020/01/31 12:47:50.1	111.510	0.260	0.520	-0.350
2020/01/31 12:47:50.2	111.510	0.230	0.560	-0.360
2020/01/31 12:47:50.3	111.520	0.200	0.580	-0.380
2020/01/31 12:47:50.4	111.530	0.170	0.610	-0.390
2020/01/31 12:47:50.5	111.540	0.150	0.620	-0.390
2020/01/31 12:47:50.6	111.540	0.130	0.620	-0.400
2020/01/31 12:47:50.7	111.550	0.110	0.620	-0.400
2020/01/31 12:47:50.8	111.560	0.090	0.610	-0.390
2020/01/31 12:47:50.9	111.560	0.080	0.600	-0.380
2020/01/31 12:47:51.0	111.570	0.070	0.570	-0.370
2020/01/31 12:47:51.1	111.570	0.060	0.540	-0.350
2020/01/31 12:47:51.2	111.570	0.050	0.510	-0.330
2020/01/31 12:47:51.3	111.580	0.050	0.460	-0.310
2020/01/31 12:47:51.4	111.580	0.050	0.420	-0.280
2020/01/31 12:47:51.5	111.580	0.050	0.360	-0.250
2020/01/31 12:47:51.6	111.580	0.050	0.300	-0.220
2020/01/31 12:47:51.7	111.580	0.050	0.240	-0.180
2020/01/31 12:47:51.8	111.580	0.060	0.170	-0.140
2020/01/31 12:47:51.9	111.580	0.070	0.100	-0.100
2020/01/31 12:47:52.0	111.580	0.080	0.030	-0.060
2020/01/31 12:47:52.1	111.580	0.090	-0.050	-0.010
2020/01/31 12:47:52.2	111.570	0.100	-0.130	0.040
2020/01/31 12:47:52.3	111.570	0.110	-0.210	0.100
2020/01/31 12:47:52.4	111.570	0.130	-0.280	0.160
2020/01/31 12:47:52.5	111.560	0.140	-0.360	0.220
2020/01/31 12:47:52.6	111.560	0.150	-0.440	0.280
2020/01/31 12:47:52.7	111.550	0.160	-0.520	0.340
2020/01/31 12:47:52.8	111.550	0.180	-0.590	0.410
2020/01/31 12:47:52.9	111.540	0.190	-0.670	0.480
2020/01/31 12:47:53.0	111.540	0.200	-0.740	0.550
2020/01/31 12:47:53.1	111.530	0.210	-0.800	0.630
2020/01/31 12:47:53.2	111.520	0.220	-0.860	0.710
2020/01/31 12:47:53.3	111.520	0.220	-0.920	0.790
2020/01/31 12:47:53.4	111.510	0.230	-0.970	0.870
2020/01/31 12:47:53.5	111.500	0.230	-1.020	0.960
2020/01/31 12:47:53.6	111.490	0.230	-1.060	1.050
2020/01/31 12:47:53.7	111.480	0.230	-1.090	1.140
2020/01/31 12:47:53.8	111.470	0.230	-1.120	1.230
2020/01/31 12:47:53.9	111.460	0.230	-1.140	1.330
2020/01/31 12:47:54.0	111.450	0.220	-1.160	1.430
2020/01/31 12:47:54.1	111.440	0.210	-1.170	1.530
2020/01/31 12:47:54.2	111.430	0.210	-1.170	1.630
2020/01/31 12:47:54.3	111.420	0.190	-1.160	1.730
2020/01/31 12:47:54.4	111.400	0.180	-1.150	1.840
2020/01/31 12:47:54.5	111.390	0.170	-1.130	1.950
2020/01/31 12:47:54.6	111.370	0.150	-1.100	2.050
2020/01/31 12:47:54.7	111.360	0.140	-1.070	2.160
2020/01/31 12:47:54.8	111.340	0.120	-1.030	2.260
2020/01/31 12:47:54.9	111.320	0.100	-0.980	2.360
2020/01/31 12:47:55.0	111.310	0.080	-0.930	2.460
2020/01/31 12:47:55.1	111.290	0.060	-0.870	2.560
2020/01/31 12:47:55.2	111.270	0.040	-0.810	2.660
2020/01/31 12:47:55.3	111.260	0.020	-0.740	2.750
2020/01/31 12:47:55.4	111.240	-0.010	-0.670	2.840
2020/01/31 12:47:55.5	111.230	-0.030	-0.590	2.920
2020/01/31 12:47:55.6	111.220	-0.060	-0.520	3.000
2020/01/31 12:47:55.7	111.210	-0.080	-0.430	3.070
2020/01/31 12:47:55.8	111.190	-0.110	-0.350	3.140
2020/01/31 12:47:55.9	111.180	-0.130	-0.260	3.200
2020/01/31 12:47:56.0	111.170	-0.150	-0.180	3.250
2020/01/31 12:47:56.1	111.160	-0.180	-0.090	3.300
2020/01/31 12:47:56.2	111.150	-0.200	-0.010	3.340
2020/01/31 12:47:56.3	111.140	-0.230	0.080	3.370
2020/01/31 12:47:56.4	111.130	-0.250	0.160	3.390
2020/01/31 12:47:56.5	111.120	-0.270	0.240	3.410
2020/01/31 12:47:56.6	111.120	-0.300	0.320	3.420
2020/01/31 12:47:56.7	111.110	-0.320	0.390	3.430
2020/01/31 12:47:56.8	111.100	-0.340	0.460	3.420
2020/01/31 12:47:56.9	111.100	-0.360	0.520	3.410
2020/01/31 12:47:57.0	111.100	-0.380	0.580	3.400
2020/01/31 12:47:57.1	111.090	-0.390	0.630	3.380
2020/01/31 12:47:57.2	111.090	-0.410	0.680	3.350
2020/01/31 12:47:57.3	111.090	-0.420	0.720	3.310
2020/01/31 12:47:57.4	111.080	-0.430	0.750	3.270
2020/01/31 12:47:57.5	111.090	-0.440	0.780	3.230
2020/01/31 12:47:57.6	111.080	-0.450	0.790	3.180
2020/01/31 12:47:57.7	111.080	-0.460	0.800	3.130
2020/01/31 12:47:57.8	111.070	-0.460	0.800	3.070
2020/01/31 12:47:57.9	111.070	-0.470	0.800	3.010
2020/01/31 12:47:58.0	111.060	-0.470	0.790	2.950
2020/01/31 12:47:58.1	111.060	-0.470	0.760	2.880
2020/01/31 12:47:58.2	111.050	-0.460	0.740	2.810
2020/01/31 12:47:58.3	111.050	-0.460	0.700	2.740
2020/01/31 12:47:58.4	111.040	-0.450	0.660	2.670
2020/01/31 12:47:58.5	111.050	-0.440	0.610	2.590
2020/01/31 12:47:58.6	111.040	-0.430	0.560	2.520
2020/01/31 12:47:58.7	111.040	-0.420	0.500	2.440
2020/01/31 12:47:58.8	111.040	-0.410	0.440	2.360
2020/01/31 12:47:58.9	111.040	-0.390	0.380	2.270
2020/01/31 12:47:59.0	111.040	-0.380	0.310	2.190
2020/01/31 12:47:59.1	111.040	-0.360	0.240	2.100
2020/01/31 12:47:59.2	111.040	-0.340	0.170	2.010
2020/01/31 12:47:59.3	111.040	-0.330	0.100	1.920
2020/01/31 12:47:59.4	111.050	-0.310	0.030	1.830
2020/01/31 12:47:59.5	111.070	-0.290	-0.040	1.740
2020/01/31 12:47:59.6	111.080	-0.270	-0.110	1.640
2020/01/31 12:47:59.7	111.090	-0.250	-0.180	1.550
2020/01/31 12:47:59.8	111.100	-0.230	-0.240	1.450
2020/01/31 12:47:59.9	111.120	-0.200	-0.300	1.350
2020/01/31 12:48:00.0	111.130	-0.180	-0.360	1.250
2020/01/31 12:48:00.1	111.150	-0.160	-0.420	1.150
2020/01/31 12:48:00.2	111.170	-0.140	-0.470	1.050
2020/01/31 12:48:00.3	111.190	-0.120	-0.510	0.950
2020/01/31 12:48:00.4	111.210	-0.100	-0.550	0.840
2020/01/31 12:48:00.5	111.240	-0.090	-0.590	0.740
2020/01/31 12:48:00.6	111.260	-0.070	-0.620	0.640
2020/01/31 12:48:00.7	111.280	-0.050	-0.650	0.540
2020/01/31 12:48:00.8	111.300	-0.030	-0.670	0.440
2020/01/31 12:48:00.9	111.320	-0.020	-0.690	0.340
2020/01/31 12:48:01.0	111.340	-0.000	-0.700	0.250
2020/01/31 12:48:01.1	111.350	0.010	-0.700	0.150
2020/01/31 12:48:01.2	111.370	0.030	-0.710	0.060
2020/01/31 12:48:01.3	111.380	0.040	-0.710	-0.030
2020/01/31 12:48:01.4	111.390	0.050	-0.700	-0.110
2020/01/31 12:48:01.5	111.390	0.060	-0.690	-0.190
2020/01/31 12:48:01.6	111.400	0.070	-0.680	-0.270
2020/01/31 12:48:01.7	111.400	0.080	-0.660	-0.340
2020/01/31 12:48:01.8	111.400	0.090	-0.650	-0.410
2020/01/31 12:48:01.9	111.400	0.100	-0.620	-0.480
2020/01/31 12:48:02.0	111.390	0.100	-0.600	-0.540
2020/01/31 12:48:02.1	111.390	0.110	-0.570	-0.600
2020/01/31 12:48:02.2	111.380	0.110	-0.540	-0.650
2020/01/31 12:48:02.3	111.370	0.110	-0.510	-0.700
2020/01/31 12:48:02.4	111.360	0.120	-0.480	-0.740
2020/01/31 12:48:02.5	111.330	0.120	-0.450	-0.780
2020/01/31 12:48:02.6	111.320	0.120	-0.410	-0.810
2020/01/31 12:48:02.7	111.300	0.120	-0.380	-0.840
2020/01/31 12:48:02.8	111.280	0.120	-0.340	-0.860
2020/01/31 12:48:02.9	111.260	0.120	-0.300	-0.880
2020/01/31 12:48:03.0	111.240	0.120	-0.260	-0.890
2020/01/31 12:48:03.1	111.220	0.120	-0.230	-0.900
2020/01/31 12:48:03.2	111.200	0.110	-0.190	-0.900
2020/01/31 12:48:03.3	111.180	0.110	-0.150	-0.900
2020/01/31 12:48:03.4	111.150	0.110	-0.120	-0.890
2020/01/31 12:48:03.5	111.150	0.100	-0.080	-0.870
2020/01/31 12:48:03.6	111.120	0.100	-0.050	-0.840
2020/01/31 12:48:03.7	111.100	0.090	-0.010	-0.820
2020/01/31 12:48:03.8	111.080	0.090	0.020	-0.790
2020/01/31 12:48:03.9	111.050	0.080	0.050	-0.750
2020/01/31 12:48:04.0	111.030	0.080	0.080	-0.710
2020/01/31 12:48:04.1	111.010	0.070	0.110	-0.660
2020/01/31 12:48:04.2	110.980	0.070	0.130	-0.610
2020/01/31 12:48:04.3	110.960	0.070	0.150	-0.550
2020/01/31 12:48:04.4	110.940	0.060	0.170	-0.490
2020/01/31 12:48:04.5	110.910	0.060	0.190	-0.430
2020/01/31 12:48:04.6	110.890	0.060	0.200	-0.360
2020/01/31 12:48:04.7	110.870	0.060	0.210	-0.290
2020/01/31 12:48:04.8	110.850	0.060	0.220	-0.220
2020/01/31 12:48:04.9	110.830	0.060	0.230	-0.140
2020/01/31 12:48:05.0	110.800	0.060	0.230	-0.060
2020/01/31 12:48:05.1	110.780	0.060	0.230	0.020
2020/01/31 12:48:05.2	110.760	0.070	0.220	0.100
2020/01/31 12:48:05.3	110.740	0.070	0.220	0.180
2020/01/31 12:48:05.4	110.720	0.080	0.210	0.270
2020/01/31 12:48:05.5	110.700	0.080	0.200	0.350
2020/01/31 12:48:05.6	110.690	0.090	0.180	0.430
2020/01/31 12:48:05.7	110.670	0.100	0.170	0.520
2020/01/31 12:48:05.8	110.650	0.110	0.150	0.600
2020/01/31 12:48:05.9	110.640	0.120	0.130	0.680
2020/01/31 12:48:06.0	110.630	0.130	0.110	0.750
2020/01/31 12:48:06.1	110.620	0.140	0.080	0.830
2020/01/31 12:48:06.2	110.610	0.160	0.050	0.900
2020/01/31 12:48:06.3	110.610	0.170	0.030	0.970
2020/01/31 12:48:06.4	110.600	0.190	-0.000	1.040
2020/01/31 12:48:06.5	110.580	0.200	-0.030	1.110
2020/01/31 12:48:06.6	110.590	0.220	-0.070	1.170
2020/01/31 12:48:06.7	110.590	0.230	-0.100	1.230
2020/01/31 12:48:06.8	110.600	0.250	-0.130	1.280
2020/01/31 12:48:06.9	110.600	0.260	-0.170	1.340
2020/01/31 12:48:07.0	110.620	0.280	-0.200	1.390
2020/01/31 12:48:07.1	110.630	0.300	-0.240	1.440
2020/01/31 12:48:07.2	110.640	0.310	-0.270	1.480
2020/01/31 12:48:07.3	110.660	0.330	-0.310	1.530
2020/01/31 12:48:07.4	110.680	0.340	-0.340	1.570
2020/01/31 12:48:07.5	110.690	0.360	-0.370	1.610
2020/01/31 12:48:07.6	110.710	0.370	-0.400	1.650
2020/01/31 12:48:07.7	110.730	0.380	-0.430	1.690
2020/01/31 12:48:07.8	110.750	0.390	-0.460	1.730
2020/01/31 12:48:07.9	110.770	0.400	-0.490	1.760
2020/01/31 12:48:08.0	110.800	0.410	-0.510	1.800
2020/01/31 12:48:08.1	110.820	0.420	-0.540	1.830
2020/01/31 12:48:08.2	110.840	0.430	-0.550	1.870
2020/01/31 12:48:08.3	110.860	0.430	-0.570	1.900
2020/01/31 12:48:08.4	110.880	0.430	-0.590	1.940
2020/01/31 12:48:08.5	110.900	0.430	-0.600	1.970
2020/01/31 12:48:08.6	110.920	0.430	-0.610	2.010
2020/01/31 12:48:08.7	110.940	0.430	-0.610	2.040
2020/01/31 12:48:08.8	110.960	0.420	-0.620	2.080
2020/01/31 12:48:08.9	110.970	0.420	-0.620	2.110
2020/01/31 12:48:09.0	110.990	0.410	-0.620	2.150
2020/01/31 12:48:09.1	111.000	0.400	-0.610	2.190
2020/01/31 12:48:09.2	111.010	0.380	-0.610	2.220
2020/01/31 12:48:09.3	111.020	0.370	-0.600	2.260
2020/01/31 12:48:09.4	111.030	0.350	-0.590	2.300
2020/01/31 12:48:09.5	111.020	0.340	-0.570	2.340
2020/01/31 12:48:09.6	111.020	0.320	-0.560	2.380
2020/01/31 12:48:09.7	111.020	0.300	-0.540	2.420
2020/01/31 12:48:09.8	111.020	0.280	-0.520	2.460
2020/01/31 12:48:09.9	111.020	0.260	-0.500	2.500
2020/01/31 12:48:10.0	111.010	0.230	-0.480	2.550
2020/01/31 12:48:10.1	111.000	0.210	-0.450	2.590
2020/01/31 12:48:10.2	110.990	0.190	-0.430	2.630
2020/01/31 12:48:10.3	110.970	0.160	-0.400	2.670
2020/01/31 12:48:10.4	110.960	0.140	-0.380	2.710
2020/01/31 12:48:10.5	110.930	0.110	-0.350	2.750
2020/01/31 12:48:10.6	110.910	0.090	-0.320	2.790
2020/01/31 12:48:10.7	110.890	0.060	-0.290	2.820
2020/01/31 12:48:10.8	110.870	0.040	-0.260	2.860
2020/01/31 12:48:10.9	110.840	0.010	-0.230	2.890
2020/01/31 12:48:11.0	110.820	-0.010	-0.200	2.920
2020/01/31 12:48:11.1	110.790	-0.040	-0.170	2.950
2020/01/31 12:48:11.2	110.760	-0.070	-0.130	2.980
2020/01/31 12:48:11.3	110.740	-0.090	-0.100	3.000
2020/01/31 12:48:11.4	110.710	-0.120	-0.070	3.020
2020/01/31 12:48:11.5	110.680	-0.140	-0.030	3.040
2020/01/31 12:48:11.6	110.660	-0.170	0.000	3.060
2020/01/31 12:48:11.7	110.630	-0.200	0.040	3.070
2020/01/31 12:48:11.8	110.610	-0.220	0.080	3.070
2020/01/31 12:48:11.9	110.580	-0.250	0.120	3.080
2020/01/31 12:48:12.0	110.560	-0.280	0.150	3.080
2020/01/31 12:48:12.1	110.540	-0.300	0.190	3.070
2020/01/31 12:48:12.2	110.520	-0.330	0.230	3.070
2020/01/31 12:48:12.3	110.510	-0.350	0.270	3.050
2020/01/31 12:48:12.4	110.490	-0.380	0.300	3.040
2020/01/31 12:48:12.5	110.490	-0.400	0.340	3.010
2020/01/31 12:48:12.6	110.470	-0.430	0.370	2.990
2020/01/31 12:48:12.7	110.460	-0.450	0.400	2.950
2020/01/31 12:48:12.8	110.450	-0.470	0.430	2.910
2020/01/31 12:48:12.9	110.440	-0.490	0.460	2.870
2020/01/31 12:48:13.0	110.430	-0.510	0.480	2.820
2020/01/31 12:48:13.1	110.430	-0.530	0.500	2.760
2020/01/31 12:48:13.2	110.420	-0.550	0.520	2.700
2020/01/31 12:48:13.3	110.420	-0.560	0.530	2.640
2020/01/31 12:48:13.4	110.420	-0.580	0.540	2.560
2020/01/31 12:48:13.5	110.430	-0.590	0.530	2.490
2020/01/31 12:48:13.6	110.430	-0.600	0.530	2.400
2020/01/31 12:48:13.7	110.430	-0.600	0.520	2.320
2020/01/31 12:48:13.8	110.440	-0.610	0.510	2.220
2020/01/31 12:48:13.9	110.440	-0.610	0.500	2.130
2020/01/31 12:48:14.0	110.450	-0.610	0.470	2.030
2020/01/31 12:48:14.1	110.450	-0.610	0.450	1.920
2020/01/31 12:48:14.2	110.460	-0.600	0.410	1.820
2020/01/31 12:48:14.3	110.460	-0.600	0.380	1.710
2020/01/31 12:48:14.4	110.470	-0.590	0.340	1.600
2020/01/31 12:48:14.5	110.470	-0.570	0.290	1.480
2020/01/31 12:48:14.6	110.480	-0.560	0.250	1.370
2020/01/31 12:48:14.7	110.490	-0.540	0.190	1.250
2020/01/31 12:48:14.8	110.490	-0.520	0.140	1.140
2020/01/31 12:48:14.9	110.490	-0.500	0.080	1.030
2020/01/31 12:48:15.0	110.500	-0.470	0.030	0.920
2020/01/31 12:48:15.1	110.500	-0.450	-0.030	0.810
2020/01/31 12:48:15.2	110.500	-0.420	-0.100	0.700
2020/01/31 12:48:15.3	110.500	-0.390	-0.160	0.600
2020/01/31 12:48:15.4	110.500	-0.360	-0.220	0.490
2020/01/31 12:48:15.5	110.510	-0.320	-0.280	0.390
2020/01/31 12:48:15.6	110.510	-0.290	-0.340	0.300
2020/01/31 12:48:15.7	110.510	-0.250	-0.400	0.200
2020/01/31 12:48:15.8	110.500	-0.220	-0.460	0.110
2020/01/31 12:48:15.9	110.500	-0.180	-0.520	0.020
2020/01/31 12:48:16.0	110.500	-0.140	-0.570	-0.060
2020/01/31 12:48:16.1	110.490	-0.100	-0.620	-0.140
2020/01/31 12:48:16.2	110.490	-0.060	-0.670	-0.220
2020/01/31 12:48:16.3	110.480	-0.030	-0.720	-0.290
2020/01/31 12:48:16.4	110.480	0.010	-0.760	-0.360
2020/01/31 12:48:16.5	110.470	0.050	-0.800	-0.430
2020/01/31 12:48:16.6	110.460	0.090	-0.830	-0.490
2020/01/31 12:48:16.7	110.460	0.120	-0.860	-0.550
2020/01/31 12:48:16.8	110.450	0.150	-0.880	-0.610
2020/01/31 12:48:16.9	110.450	0.190	-0.900	-0.660
2020/01/31 12:48:17.0	110.450	0.220	-0.920	-0.700
2020/01/31 12:48:17.1	110.440	0.250	-0.930	-0.750
2020/01/31 12:48:17.2	110.440	0.270	-0.930	-0.790
2020/01/31 12:48:17.3	110.440	0.300	-0.930	-0.820
2020/01/31 12:48:17.4	110.440	0.320	-0.930	-0.860
2020/01/31 12:48:17.5	110.450	0.340	-0.920	-0.880
2020/01/31 12:48:17.6	110.450	0.360	-0.900	-0.910
2020/01/31 12:48:17.7	110.450	0.370	-0.880	-0.930
2020/01/31 12:48:17.8	110.460	0.380	-0.860	-0.950
2020/01/31 12:48:17.9	110.460	0.390	-0.830	-0.960
2020/01/31 12:48:18.0	110.470	0.400	-0.790	-0.970
2020/01/31 12:48:18.1	110.470	0.400	-0.750	-0.980
2020/01/31 12:48:18.2	110.480	0.400	-0.710	-0.980
2020/01/31 12:48:18.3	110.480	0.400	-0.670	-0.980
2020/01/31 12:48:18.4	110.490	0.390	-0.620	-0.970
2020/01/31 12:48:18.5	110.500	0.380	-0.560	-0.960
2020/01/31 12:48:18.6	110.500	0.380	-0.510	-0.950
2020/01/31 12:48:18.7	110.510	0.360	-0.450	-0.930
2020/01/31 12:48:18.8	110.510	0.350	-0.390	-0.900
2020/01/31 12:48:18.9	110.520	0.330	-0.330	-0.880
2020/01/31 12:48:19.0	110.520	0.320	-0.270	-0.850
2020/01/31 12:48:19.1	110.530	0.300	-0.200	-0.810
2020/01/31 12:48:19.2	110.530	0.280	-0.140	-0.770
2020/01/31 12:48:19.3	110.530	0.260	-0.080	-0.730
2020/01/31 12:48:19.4	110.530	0.240	-0.020	-0.680
2020/01/31 12:48:19.5	110.530	0.220	0.050	-0.630
2020/01/31 12:48:19.6	110.530	0.190	0.100	-0.570
2020/01/31 12:48:19.7	110.530	0.170	0.160	-0.510
2020/01/31 12:48:19.8	110.530	0.150	0.220	-0.450
2020/01/31 12:48:19.9	110.530	0.130	0.270	-0.390
2020/01/31 12:48:20.0	110.520	0.110	0.320	-0.320
2020/01/31 12:48:20.1	110.520	0.090	0.360	-0.250
2020/01/31 12:48:20.2	110.520	0.070	0.400	-0.180
2020/01/31 12:48:20.3	110.510	0.050	0.440	-0.100
2020/01/31 12:48:20.4	110.500	0.040	0.470	-0.020
2020/01/31 12:48:20.5	110.500	0.030	0.500	0.060
2020/01/31 12:48:20.6	110.490	0.010	0.530	0.140
2020/01/31 12:48:20.7	110.480	0.000	0.550	0.230
2020/01/31 12:48:20.8	110.470	-0.000	0.560	0.320
2020/01/31 12:48:20.9	110.460	-0.010	0.570	0.410
2020/01/31 12:48:21.0	110.450	-0.020	0.570	0.500
2020/01/31 12:48:21.1	110.440	-0.020	0.570	0.590
2020/01/31 12:48:21.2	110.430	-0.020	0.560	0.680
2020/01/31 12:48:21.3	110.420	-0.020	0.540	0.780
2020/01/31 12:48:21.4	110.400	-0.010	0.520	0.870
2020/01/31 12:48:21.5	110.400	-0.010	0.500	0.970
2020/01/31 12:48:21.6	110.380	0.000	0.470	1.070
2020/01/31 12:48:21.7	110.370	0.010	0.440	1.160
2020/01/31 12:48:21.8	110.350	0.020	0.400	1.260
2020/01/31 12:48:21.9	110.340	0.040	0.360	1.360
2020/01/31 12:48:22.0	110.320	0.050	0.310	1.450
2020/01/31 12:48:22.1	110.310	0.060	0.270	1.550
2020/01/31 12:48:22.2	110.290	0.080	0.220	1.640
2020/01/31 12:48:22.3	110.280	0.100	0.160	1.730
2020/01/31 12:48:22.4	110.260	0.120	0.110	1.820
2020/01/31 12:48:22.5	110.260	0.130	0.050	1.910
2020/01/31 12:48:22.6	110.240	0.150	-0.000	2.000
2020/01/31 12:48:22.7	110.230	0.170	-0.060	2.080
2020/01/31 12:48:22.8	110.220	0.190	-0.120	2.170
2020/01/31 12:48:22.9	110.210	0.210	-0.170	2.250
2020/01/31 12:48:23.0	110.210	0.220	-0.230	2.330
2020/01/31 12:48:23.1	110.200	0.240	-0.280	2.400
2020/01/31 12:48:23.2	110.200	0.260	-0.340	2.470
2020/01/31 12:48:23.3	110.190	0.270	-0.390	2.550
2020/01/31 12:48:23.4	110.190	0.290	-0.440	2.620
2020/01/31 12:48:23.5	110.190	0.300	-0.480	2.680
2020/01/31 12:48:23.6	110.180	0.310	-0.520	2.750
2020/01/31 12:48:23.7	110.180	0.320	-0.560	2.810
2020/01/31 12:48:23.8	110.180	0.330	-0.600	2.870
2020/01/31 12:48:23.9	110.180	0.340	-0.640	2.930
2020/01/31 12:48:24.0	110.190	0.340	-0.670	2.990
2020/01/31 12:48:24.1	110.190	0.350	-0.690	3.040
2020/01/31 12:48:24.2	110.190	0.350	-0.720	3.090
2020/01/31 12:48:24.3	110.190	0.350	-0.740	3.140
2020/01/31 12:48:24.4	110.190	0.350	-0.750	3.190
2020/01/31 12:48:24.5	110.190	0.340	-0.770	3.230
2020/01/31 12:48:24.6	110.190	0.340	-0.780	3.270
2020/01/31 12:48:24.7	110.200	0.330	-0.780	3.310
2020/01/31 12:48:24.8	110.200	0.320	-0.780	3.350
2020/01/31 12:48:24.9	110.200	0.310	-0.780	3.370
2020/01/31 12:48:25.0	110.210	0.300	-0.770	3.400
2020/01/31 12:48:25.1	110.210	0.280	-0.760	3.420
2020/01/31 12:48:25.2	110.220	0.270	-0.750	3.430
2020/01/31 12:48:25.3	110.220	0.250	-0.730	3.440
2020/01/31 12:48:25.4	110.230	0.230	-0.710	3.450
2020/01/31 12:48:25.5	110.230	0.210	-0.680	3.440
2020/01/31 12:48:25.6	110.230	0.180	-0.650	3.430
2020/01/31 12:48:25.7	110.240	0.160	-0.620	3.420
2020/01/31 12:48:25.8	110.250	0.130	-0.580	3.400
2020/01/31 12:48:25.9	110.260	0.110	-0.550	3.380
2020/01/31 12:48:26.0	110.270	0.080	-0.500	3.350
2020/01/31 12:48:26.1	110.280	0.050	-0.460	3.320
2020/01/31 12:48:26.2	110.290	0.020	-0.410	3.280
2020/01/31 12:48:26.3	110.300	-0.010	-0.370	3.230
2020/01/31 12:48:26.4	110.310	-0.040	-0.320	3.180
2020/01/31 12:48:26.5	110.310	-0.070	-0.270	3.130
2020/01/31 12:48:26.6	110.320	-0.100	-0.220	3.070
2020/01/31 12:48:26.7	110.330	-0.130	-0.160	3.010
2020/01/31 12:48:26.8	110.340	-0.160	-0.110	2.940
2020/01/31 12:48:26.9	110.350	-0.190	-0.060	2.880
2020/01/31 12:48:27.0	110.360	-0.220	-0.000	2.810
2020/01/31 12:48:27.1	110.370	-0.250	0.050	2.730
2020/01/31 12:48:27.2	110.370	-0.280	0.100	2.660
2020/01/31 12:48:27.3	110.380	-0.310	0.150	2.580
2020/01/31 12:48:27.4	110.380	-0.340	0.200	2.500
2020/01/31 12:48:27.5	110.380	-0.360	0.240	2.420
2020/01/31 12:48:27.6	110.380	-0.390	0.290	2.340
2020/01/31 12:48:27.7	110.380	-0.420	0.330	2.260
2020/01/31 12:48:27.8	110.380	-0.440	0.370	2.180
2020/01/31 12:48:27.9	110.380	-0.460	0.400	2.090
2020/01/31 12:48:28.0	110.380	-0.480	0.430	2.010
2020/01/31 12:48:28.1	110.380	-0.500	0.460	1.930
2020/01/31 12:48:28.2	110.380	-0.520	0.480	1.850
2020/01/31 12:48:28.3	110.380	-0.540	0.500	1.770
2020/01/31 12:48:28.4	110.370	-0.550	0.520	1.690
2020/01/31 12:48:28.5	110.380	-0.560	0.530	1.610
2020/01/31 12:48:28.6	110.380	-0.570	0.530	1.530
2020/01/31 12:48:28.7	110.370	-0.580	0.530	1.450
2020/01/31 12:48:28.8	110.370	-0.590	0.530	1.380
2020/01/31 12:48:28.9	110.360	-0.590	0.520	1.300
2020/01/31 12:48:29.0	110.360	-0.590	0.510	1.220
2020/01/31 12:48:29.1	110.360	-0.590	0.490	1.150
2020/01/31 12:48:29.2	110.350	-0.590	0.470	1.080
2020/01/31 12:48:29.3	110.350	-0.590	0.440	1.010
2020/01/31 12:48:29.4	110.340	-0.580	0.410	0.940
2020/01/31 12:48:29.5	110.330	-0.570	0.370	0.870
2020/01/31 12:48:29.6	110.330	-0.560	0.340	0.800
2020/01/31 12:48:29.7	110.330	-0.540	0.300	0.730
2020/01/31 12:48:29.8	110.330	-0.530	0.250	0.670
2020/01/31 12:48:29.9	110.330	-0.510	0.210	0.600
2020/01/31 12:48:30.0	110.320	-0.490	0.160	0.540
2020/01/31 12:48:30.1	110.320	-0.470	0.110	0.480
2020/01/31 12:48:30.2	110.320	-0.440	0.060	0.420
2020/01/31 12:48:30.3	110.320	-0.420	0.010	0.370
2020/01/31 12:48:30.4	110.310	-0.390	-0.050	0.310
2020/01/31 12:48:30.5	110.330	-0.360	-0.100	0.260
2020/01/31 12:48:30.6	110.320	-0.330	-0.160	0.210
2020/01/31 12:48:30.7	110.310	-0.300	-0.210	0.160
2020/01/31 12:48:30.8	110.310	-0.260	-0.270	0.110
2020/01/31 12:48:30.9	110.300	-0.230	-0.320	0.060
2020/01/31 12:48:31.0	110.290	-0.190	-0.380	0.020
2020/01/31 12:48:31.1	110.280	-0.150	-0.430	-0.020
2020/01/31 12:48:31.2	110.270	-0.120	-0.490	-0.070
2020/01/31 12:48:31.3	110.260	-0.080	-0.540	-0.110
2020/01/31 12:48:31.4	110.250	-0.040	-0.590	-0.150
2020/01/31 12:48:31.5	110.240	-0.000	-0.650	-0.190
2020/01/31 12:48:31.6	110.230	0.040	-0.690	-0.230
2020/01/31 12:48:31.7	110.210	0.070	-0.740	-0.270
2020/01/31 12:48:31.8	110.200	0.110	-0.780	-0.310
2020/01/31 12:48:31.9	110.190	0.150	-0.820	-0.350
2020/01/31 12:48:32.0	110.170	0.180	-0.850	-0.380
2020/01/31 12:48:32.1	110.160	0.220	-0.890	-0.420
2020/01/31 12:48:32.2	110.150	0.250	-0.910	-0.460
2020/01/31 12:48:32.3	110.140	0.280	-0.930	-0.490
2020/01/31 12:48:32.4	110.130	0.310	-0.950	-0.530
2020/01/31 12:48:32.5	110.110	0.340	-0.960	-0.560
2020/01/31 12:48:32.6	110.100	0.370	-0.970	-0.590
2020/01/31 12:48:32.7	110.100	0.390	-0.970	-0.620
2020/01/31 12:48:32.8	110.090	0.410	-0.960	-0.650
2020/01/31 12:48:32.9	110.090	0.430	-0.950	-0.670
2020/01/31 12:48:33.0	110.090	0.440	-0.930	-0.700
2020/01/31 12:48:33.1	110.090	0.450	-0.910	-0.710
2020/01/31 12:48:33.2	110.090	0.460	-0.880	-0.730
2020/01/31 12:48:33.3	110.090	0.470	-0.850	-0.740
2020/01/31 12:48:33.4	110.100	0.480	-0.810	-0.740
2020/01/31 12:48:33.5	110.120	0.480	-0.770	-0.740
2020/01/31 12:48:33.6	110.120	0.480	-0.720	-0.740
2020/01/31 12:48:33.7	110.130	0.470	-0.660	-0.730
2020/01/31 12:48:33.8	110.140	0.470	-0.610	-0.720
2020/01/31 12:48:33.9	110.150	0.460	-0.550	-0.700
2020/01/31 12:48:34.0	110.160	0.450	-0.480	-0.670
2020/01/31 12:48:34.1	110.170	0.440	-0.420	-0.640
2020/01/31 12:48:34.2	110.180	0.430	-0.350	-0.600
2020/01/31 12:48:34.3	110.190	0.410	-0.280	-0.560
2020/01/31 12:48:34.4	110.210	0.400	-0.210	-0.520
2020/01/31 12:48:34.5	110.230	0.380	-0.140	-0.460
2020/01/31 12:48:34.6	110.240	0.360	-0.060	-0.410
2020/01/31 12:48:34.7	110.250	0.340	0.010	-0.350
2020/01/31 12:48:34.8	110.260	0.320	0.070	-0.280
2020/01/31 12:48:34.9	110.270	0.300	0.140	-0.220
2020/01/31 12:48:35.0	110.290	0.280	0.210	-0.150
2020/01/31 12:48:35.1	110.300	0.260	0.270	-0.070
2020/01/31 12:48:35.2	110.310	0.240	0.330	0.000
2020/01/31 12:48:35.3	110.320	0.220	0.380	0.080
2020/01/31 12:48:35.4	110.330	0.200	0.430	0.160
2020/01/31 12:48:35.5	110.340	0.180	0.480	0.240
2020/01/31 12:48:35.6	110.360	0.160	0.520	0.320
2020/01/31 12:48:35.7	110.370	0.140	0.550	0.400
2020/01/31 12:48:35.8	110.380	0.120	0.580	0.480
2020/01/31 12:48:35.9	110.390	0.100	0.610	0.560
2020/01/31 12:48:36.0	110.410	0.080	0.630	0.640
2020/01/31 12:48:36.1	110.420	0.070	0.650	0.720
2020/01/31 12:48:36.2	110.430	0.050	0.660	0.800
2020/01/31 12:48:36.3	110.450	0.040	0.660	0.880
2020/01/31 12:48:36.4	110.460	0.020	0.660	0.950
2020/01/31 12:48:36.5	110.470	0.010	0.650	1.030
2020/01/31 12:48:36.6	110.480	0.000	0.640	1.100
2020/01/31 12:48:36.7	110.500	-0.010	0.620	1.170
2020/01/31 12:48:36.8	110.510	-0.020	0.600	1.250
2020/01/31 12:48:36.9	110.520	-0.030	0.570	1.320
2020/01/31 12:48:37.0	110.540	-0.040	0.540	1.390
2020/01/31 12:48:37.1	110.550	-0.040	0.500	1.460
2020/01/31 12:48:37.2	110.560	-0.050	0.460	1.530
2020/01/31 12:48:37.3	110.570	-0.060	0.420	1.600
2020/01/31 12:48:37.4	110.590	-0.060	0.370	1.670
2020/01/31 12:48:37.5	110.600	-0.070	0.320	1.740
2020/01/31 12:48:37.6	110.610	-0.070	0.270	1.810
2020/01/31 12:48:37.7	110.620	-0.070	0.210	1.880
2020/01/31 12:48:37.8	110.630	-0.070	0.150	1.950
2020/01/31 12:48:37.9	110.630	-0.070	0.090	2.010
2020/01/31 12:48:38.0	110.640	-0.080	0.020	2.080
2020/01/31 12:48:38.1	110.640	-0.070	-0.040	2.150
2020/01/31 12:48:38.2	110.640	-0.070	-0.100	2.220
2020/01/31 12:48:38.3	110.640	-0.070	-0.170	2.290
2020/01/31 12:48:38.4	110.640	-0.070	-0.230	2.360
2020/01/31 12:48:38.5	110.620	-0.070	-0.300	2.420
2020/01/31 12:48:38.6	110.620	-0.060	-0.360	2.490
2020/01/31 12:48:38.7	110.620	-0.060	-0.420	2.550
2020/01/31 12:48:38.8	110.610	-0.050	-0.480	2.620
2020/01/31 12:48:38.9	110.600	-0.050	-0.530	2.690
2020/01/31 12:48:39.0	110.600	-0.040	-0.580	2.750
2020/01/31 12:48:39.1	110.590	-0.040	-0.630	2.820
2020/01/31 12:48:39.2	110.580	-0.030	-0.670	2.880
2020/01/31 12:48:39.3	110.560	-0.020	-0.710	2.950
2020/01/31 12:48:39.4	110.550	-0.020	-0.740	3.010
2020/01/31 12:48:39.5	110.540	-0.010	-0.770	3.070
2020/01/31 12:48:39.6	110.530	-0.000	-0.790	3.130
2020/01/31 12:48:39.7	110.510	0.000	-0.810	3.190
2020/01/31 12:48:39.8	110.500	0.010	-0.820	3.250
2020/01/31 12:48:39.9	110.480	0.010	-0.820	3.300
2020/01/31 12:48:40.0	110.470	0.020	-0.820	3.350
2020/01/31 12:48:40.1	110.450	0.020	-0.820	3.390
2020/01/31 12:48:40.2	110.440	0.020	-0.800	3.430
2020/01/31 12:48:40.3	110.430	0.030	-0.790	3.470
2020/01/31 12:48:40.4	110.410	0.030	-0.760	3.500
2020/01/31 12:48:40.5	110.400	0.030	-0.740	3.530
2020/01/31 12:48:40.6	110.390	0.020	-0.710	3.550
2020/01/31 12:48:40.7	110.380	0.020	-0.670	3.570
2020/01/31 12:48:40.8	110.370	0.020	-0.630	3.580
2020/01/31 12:48:40.9	110.360	0.010	-0.590	3.580
2020/01/31 12:48:41.0	110.360	0.000	-0.540	3.580
2020/01/31 12:48:41.1	110.350	-0.010	-0.490	3.580
2020/01/31 12:48:41.2	110.350	-0.010	-0.440	3.570
2020/01/31 12:48:41.3	110.350	-0.030	-0.380	3.550
2020/01/31 12:48:41.4	110.350	-0.040	-0.320	3.520
2020/01/31 12:48:41.5	110.340	-0.050	-0.260	3.490
2020/01/31 12:48:41.6	110.340	-0.070	-0.210	3.450
2020/01/31 12:48:41.7	110.350	-0.080	-0.150	3.400
2020/01/31 12:48:41.8	110.360	-0.100	-0.090	3.350
2020/01/31 12:48:41.9	110.360	-0.120	-0.030	3.290
2020/01/31 12:48:42.0	110.370	-0.130	0.030	3.220
2020/01/31 12:48:42.1	110.380	-0.150	0.080	3.150
2020/01/31 12:48:42.2	110.390	-0.170	0.130	3.070
2020/01/31 12:48:42.3	110.410	-0.190	0.180	2.990
2020/01/31 12:48:42.4	110.420	-0.210	0.230	2.900
2020/01/31 12:48:42.5	110.430	-0.230	0.270	2.800
2020/01/31 12:48:42.6	110.440	-0.240	0.310	2.710
2020/01/31 12:48:42.7	110.450	-0.260	0.340	2.600
2020/01/31 12:48:42.8	110.470	-0.280	0.370	2.500
2020/01/31 12:48:42.9	110.480	-0.290	0.390	2.390
2020/01/31 12:48:43.0	110.490	-0.310	0.410	2.280
2020/01/31 12:48:43.1	110.500	-0.320	0.420	2.170
2020/01/31 12:48:43.2	110.510	-0.330	0.430	2.050
2020/01/31 12:48:43.3	110.520	-0.340	0.430	1.930
2020/01/31 12:48:43.4	110.530	-0.350	0.420	1.810
2020/01/31 12:48:43.5	110.540	-0.350	0.410	1.690
2020/01/31 12:48:43.6	110.540	-0.350	0.390	1.570
2020/01/31 12:48:43.7	110.550	-0.350	0.370	1.450
2020/01/31 12:48:43.8	110.560	-0.350	0.340	1.330
2020/01/31 12:48:43.9	110.570	-0.350	0.300	1.210
2020/01/31 12:48:44.0	110.580	-0.340	0.260	1.090
2020/01/31 12:48:44.1	110.580	-0.330	0.220	0.970
2020/01/31 12:48:44.2	110.590	-0.320	0.170	0.850
2020/01/31 12:48:44.3	110.600	-0.300	0.120	0.740
2020/01/31 12:48:44.4	110.610	-0.290	0.060	0.620
2020/01/31 12:48:44.5	110.620	-0.270	0.000	0.500
2020/01/31 12:48:44.6	110.630	-0.250	-0.060	0.390
2020/01/31 12:48:44.7	110.640	-0.230	-0.120	0.280
2020/01/31 12:48:44.8	110.650	-0.200	-0.190	0.170
2020/01/31 12:48:44.9	110.660	-0.180	-0.250	0.070
2020/01/31 12:48:45.0	110.670	-0.150	-0.320	-0.030
2020/01/31 12:48:45.1	110.680	-0.120	-0.380	-0.130
2020/01/31 12:48:45.2	110.690	-0.090	-0.450	-0.230
2020/01/31 12:48:45.3	110.700	-0.060	-0.510	-0.320
2020/01/31 12:48:45.4	110.700	-0.030	-0.580	-0.420
2020/01/31 12:48:45.5	110.720	0.000	-0.640	-0.510
2020/01/31 12:48:45.6	110.730	0.030	-0.690	-0.590
2020/01/31 12:48:45.7	110.740	0.060	-0.750	-0.670
2020/01/31 12:48:45.8	110.750	0.100	-0.800	-0.740
2020/01/31 12:48:45.9	110.760	0.130	-0.850	-0.820
2020/01/31 12:48:46.0	110.760	0.150	-0.890	-0.880
2020/01/31 12:48:46.1	110.770	0.180	-0.930	-0.940
2020/01/31 12:48:46.2	110.770	0.210	-0.960	-1.000
2020/01/31 12:48:46.3	110.780	0.230	-0.980	-1.050
2020/01/31 12:48:46.4	110.780	0.260	-1.000	-1.090
2020/01/31 12:48:46.5	110.790	0.280	-1.020	-1.130
2020/01/31 12:48:46.6	110.790	0.300	-1.030	-1.170
2020/01/31 12:48:46.7	110.790	0.320	-1.030	-1.190
2020/01/31 12:48:46.8	110.790	0.330	-1.020	-1.210
2020/01/31 12:48:46.9	110.780	0.350	-1.010	-1.230
2020/01/31 12:48:47.0	110.770	0.360	-0.990	-1.230
2020/01/31 12:48:47.1	110.760	0.360	-0.970	-1.230
2020/01/31 12:48:47.2	110.750	0.370	-0.940	-1.230
2020/01/31 12:48:47.3	110.740	0.370	-0.910	-1.210
2020/01/31 12:48:47.4	110.720	0.370	-0.870	-1.190
2020/01/31 12:48:47.5	110.720	0.370	-0.820	-1.170
2020/01/31 12:48:47.6	110.700	0.370	-0.770	-1.140
2020/01/31 12:48:47.7	110.680	0.360	-0.710	-1.100
2020/01/31 12:48:47.8	110.660	0.350	-0.650	-1.050
2020/01/31 12:48:47.9	110.640	0.340	-0.590	-1.010
2020/01/31 12:48:48.0	110.610	0.320	-0.530	-0.950
2020/01/31 12:48:48.1	110.590	0.310	-0.460	-0.900
2020/01/31 12:48:48.2	110.570	0.290	-0.390	-0.830
2020/01/31 12:48:48.3	110.540	0.270	-0.310	-0.770
2020/01/31 12:48:48.4	110.520	0.250	-0.240	-0.700
2020/01/31 12:48:48.5	110.510	0.220	-0.160	-0.630
2020/01/31 12:48:48.6	110.490	0.200	-0.090	-0.560
2020/01/31 12:48:48.7	110.470	0.170	-0.010	-0.480
2020/01/31 12:48:48.8	110.460	0.140	0.060	-0.410
2020/01/31 12:48:48.9	110.440	0.110	0.140	-0.330
2020/01/31 12:48:49.0	110.430	0.090	0.210	-0.260
2020/01/31 12:48:49.1	110.410	0.050	0.290	-0.180
2020/01/31 12:48:49.2	110.400	0.020	0.360	-0.100
2020/01/31 12:48:49.3	110.390	-0.010	0.430	-0.030
2020/01/31 12:48:49.4	110.390	-0.040	0.490	0.050
2020/01/31 12:48:49.5	110.380	-0.070	0.560	0.120
2020/01/31 12:48:49.6	110.380	-0.100	0.620	0.190
2020/01/31 12:48:49.7	110.380	-0.130	0.670	0.260
2020/01/31 12:48:49.8	110.380	-0.160	0.720	0.330
2020/01/31 12:48:49.9	110.390	-0.190	0.770	0.400
2020/01/31 12:48:50.0	110.390	-0.220	0.820	0.460
2020/01/31 12:48:50.1	110.400	-0.240	0.860	0.530
2020/01/31 12:48:50.2	110.410	-0.270	0.890	0.590
2020/01/31 12:48:50.3	110.430	-0.290	0.920	0.650
2020/01/31 12:48:50.4	110.440	-0.310	0.950	0.710
2020/01/31 12:48:50.5	110.460	-0.330	0.970	0.770
2020/01/31 12:48:50.6	110.480	-0.350	0.990	0.830
2020/01/31 12:48:50.7	110.500	-0.360	1.000	0.880
2020/01/31 12:48:50.8	110.530	-0.380	1.000	0.930
2020/01/31 12:48:50.9	110.560	-0.390	1.000	0.980
2020/01/31 12:48:51.0	110.590	-0.400	1.000	1.030
2020/01/31 12:48:51.1	110.620	-0.400	0.990	1.070
2020/01/31 12:48:51.2	110.660	-0.400	0.980	1.110
2020/01/31 12:48:51.3	110.690	-0.400	0.960	1.160
2020/01/31 12:48:51.4	110.730	-0.400	0.930	1.200
2020/01/31 12:48:51.5	110.760	-0.400	0.910	1.240
2020/01/31 12:48:51.6	110.800	-0.390	0.870	1.280
2020/01/31 12:48:51.7	110.840	-0.380	0.830	1.320
2020/01/31 12:48:51.8	110.890	-0.360	0.780	1.370
2020/01/31 12:48:51.9	110.930	-0.350	0.730	1.410
2020/01/31 12:48:52.0	110.970	-0.330	0.670	1.460
2020/01/31 12:48:52.1	111.010	-0.300	0.610	1.510
2020/01/31 12:48:52.2	111.050	-0.280	0.540	1.560
2020/01/31 12:48:52.3	111.090	-0.250	0.470	1.610
2020/01/31 12:48:52.4	111.130	-0.220	0.390	1.660
2020/01/31 12:48:52.5	111.150	-0.190	0.300	1.720
2020/01/31 12:48:52.6	111.180	-0.150	0.210	1.780
2020/01/31 12:48:52.7	111.220	-0.120	0.120	1.840
2020/01/31 12:48:52.8	111.250	-0.080	0.030	1.910
2020/01/31 12:48:52.9	111.280	-0.040	-0.070	1.970
2020/01/31 12:48:53.0	111.300	0.010	-0.170	2.040
2020/01/31 12:48:53.1	111.330	0.050	-0.280	2.110
2020/01/31 12:48:53.2	111.350	0.090	-0.380	2.180
2020/01/31 12:48:53.3	111.370	0.140	-0.490	2.260
2020/01/31 12:48:53.4	111.380	0.180	-0.590	2.330
2020/01/31 12:48:53.5	111.370	0.230	-0.700	2.400
2020/01/31 12:48:53.6	111.380	0.280	-0.800	2.480
2020/01/31 12:48:53.7	111.380	0.320	-0.900	2.550
2020/01/31 12:48:53.8	111.380	0.370	-1.000	2.630
2020/01/31 12:48:53.9	111.380	0.410	-1.100	2.710
2020/01/31 12:48:54.0	111.370	0.450	-1.190	2.780
2020/01/31 12:48:54.1	111.360	0.490	-1.270	2.850
2020/01/31 12:48:54.2	111.350	0.530	-1.350	2.930
2020/01/31 12:48:54.3	111.340	0.570	-1.430	3.000
2020/01/31 12:48:54.4	111.320	0.600	-1.490	3.060
2020/01/31 12:48:54.5	111.300	0.630	-1.550	3.130
2020/01/31 12:48:54.6	111.280	0.660	-1.600	3.190
2020/01/31 12:48:54.7	111.250	0.680	-1.630	3.250
2020/01/31 12:48:54.8	111.220	0.700	-1.660	3.310
2020/01/31 12:48:54.9	111.200	0.720	-1.680	3.360
2020/01/31 12:48:55.0	111.170	0.730	-1.690	3.410
2020/01/31 12:48:55.1	111.140	0.740	-1.680	3.460
2020/01/31 12:48:55.2	111.110	0.740	-1.670	3.500
2020/01/31 12:48:55.3	111.080	0.740	-1.650	3.540
2020/01/31 12:48:55.4	111.050	0.740	-1.610	3.570
2020/01/31 12:48:55.5	111.040	0.730	-1.560	3.600
2020/01/31 12:48:55.6	111.010	0.720	-1.510	3.630
2020/01/31 12:48:55.7	110.980	0.700	-1.450	3.650
2020/01/31 12:48:55.8	110.950	0.680	-1.380	3.670
2020/01/31 12:48:55.9	110.930	0.650	-1.300	3.680
2020/01/31 12:48:56.0	110.910	0.620	-1.220	3.700
2020/01/31 12:48:56.1	110.880	0.590	-1.130	3.700
2020/01/31 12:48:56.2	110.860	0.560	-1.030	3.710
2020/01/31 12:48:56.3	110.840	0.520	-0.930	3.710
2020/01/31 12:48:56.4	110.820	0.480	-0.830	3.710
2020/01/31 12:48:56.5	110.800	0.430	-0.730	3.700
2020/01/31 12:48:56.6	110.780	0.390	-0.620	3.690
2020/01/31 12:48:56.7	110.760	0.340	-0.520	3.680
2020/01/31 12:48:56.8	110.750	0.290	-0.410	3.660
2020/01/31 12:48:56.9	110.730	0.240	-0.300	3.640
2020/01/31 12:48:57.0	110.720	0.190	-0.200	3.610
2020/01/31 12:48:57.1	110.700	0.140	-0.090	3.590
2020/01/31 12:48:57.2	110.690	0.090	0.010	3.550
2020/01/31 12:48:57.3	110.680	0.040	0.100	3.520
2020/01/31 12:48:57.4	110.670	-0.010	0.190	3.470
2020/01/31 12:48:57.5	110.650	-0.060	0.280	3.420
2020/01/31 12:48:57.6	110.650	-0.110	0.360	3.370
2020/01/31 12:48:57.7	110.640	-0.160	0.440	3.310
2020/01/31 12:48:57.8	110.640	-0.200	0.510	3.250
2020/01/31 12:48:57.9	110.640	-0.250	0.570	3.170
2020/01/31 12:48:58.0	110.640	-0.290	0.620	3.100
2020/01/31 12:48:58.1	110.640	-0.330	0.670	3.010
2020/01/31 12:48:58.2	110.650	-0.370	0.710	2.920
2020/01/31 12:48:58.3	110.660	-0.400	0.740	2.820
2020/01/31 12:48:58.4	110.670	-0.430	0.770	2.720
2020/01/31 12:48:58.5	110.690	-0.460	0.790	2.600
2020/01/31 12:48:58.6	110.700	-0.490	0.800	2.490
2020/01/31 12:48:58.7	110.720	-0.510	0.810	2.360
2020/01/31 12:48:58.8	110.750	-0.530	0.810	2.230
2020/01/31 12:48:58.9	110.770	-0.550	0.800	2.090
2020/01/31 12:48:59.0	110.800	-0.560	0.790	1.950
2020/01/31 12:48:59.1	110.830	-0.570	0.770	1.810
2020/01/31 12:48:59.2	110.850	-0.580	0.750	1.660
2020/01/31 12:48:59.3	110.890	-0.590	0.730	1.510
2020/01/31 12:48:59.4	110.920	-0.590	0.700	1.350
2020/01/31 12:48:59.5	110.950	-0.590	0.670	1.190
2020/01/31 12:48:59.6	110.980	-0.590	0.630	1.040
2020/01/31 12:48:59.7	111.020	-0.580	0.600	0.880
2020/01/31 12:48:59.8	111.050	-0.570	0.560	0.720
2020/01/31 12:48:59.9	111.080	-0.560	0.520	0.570
2020/01/31 12:49:00.0	111.110	-0.550	0.480	0.410
2020/01/31 12:49:00.1	111.140	-0.540	0.450	0.260
2020/01/31 12:49:00.2	111.170	-0.530	0.410	0.110
2020/01/31 12:49:00.3	111.200	-0.510	0.370	-0.040
2020/01/31 12:49:00.4	111.230	-0.500	0.330	-0.180
2020/01/31 12:49:00.5	111.250	-0.480	0.290	-0.320
2020/01/31 12:49:00.6	111.280	-0.460	0.260	-0.460
2020/01/31 12:49:00.7	111.300	-0.450	0.220	-0.590
2020/01/31 12:49:00.8	111.320	-0.430	0.180	-0.720
2020/01/31 12:49:00.9	111.330	-0.410	0.150	-0.840
2020/01/31 12:49:01.0	111.350	-0.390	0.120	-0.960
2020/01/31 12:49:01.1	111.360	-0.370	0.080	-1.070
2020/01/31 12:49:01.2	111.370	-0.350	0.050	-1.170
2020/01/31 12:49:01.3	111.370	-0.330	0.020	-1.270
2020/01/31 12:49:01.4	111.380	-0.320	-0.010	-1.360
2020/01/31 12:49:01.5	111.400	-0.300	-0.040	-1.440
2020/01/31 12:49:01.6	111.400	-0.280	-0.070	-1.520
2020/01/31 12:49:01.7	111.400	-0.260	-0.100	-1.590
2020/01/31 12:49:01.8	111.400	-0.250	-0.120	-1.660
2020/01/31 12:49:01.9	111.390	-0.230	-0.150	-1.710
2020/01/31 12:49:02.0	111.390	-0.220	-0.170	-1.770
2020/01/31 12:49:02.1	111.380	-0.200	-0.200	-1.810
2020/01/31 12:49:02.2	111.370	-0.180	-0.220	-1.850
2020/01/31 12:49:02.3	111.360	-0.170	-0.240	-1.880
2020/01/31 12:49:02.4	111.360	-0.150	-0.260	-1.900
2020/01/31 12:49:02.5	111.370	-0.140	-0.280	-1.910
2020/01/31 12:49:02.6	111.360	-0.120	-0.310	-1.920
2020/01/31 12:49:02.7	111.350	-0.110	-0.330	-1.920
2020/01/31 12:49:02.8	111.340	-0.090	-0.350	-1.920
2020/01/31 12:49:02.9	111.330	-0.080	-0.370	-1.900
2020/01/31 12:49:03.0	111.320	-0.060	-0.400	-1.890
2020/01/31 12:49:03.1	111.310	-0.050	-0.420	-1.860
2020/01/31 12:49:03.2	111.310	-0.030	-0.440	-1.820
2020/01/31 12:49:03.3	111.300	-0.010	-0.470	-1.780
2020/01/31 12:49:03.4	111.290	0.010	-0.490	-1.740
2020/01/31 12:49:03.5	111.280	0.020	-0.520	-1.690
2020/01/31 12:49:03.6	111.280	0.040	-0.540	-1.630
2020/01/31 12:49:03.7	111.270	0.060	-0.570	-1.560
2020/01/31 12:49:03.8	111.260	0.080	-0.590	-1.490
2020/01/31 12:49:03.9	111.260	0.100	-0.620	-1.420
2020/01/31 12:49:04.0	111.250	0.120	-0.640	-1.340
2020/01/31 12:49:04.1	111.250	0.140	-0.670	-1.250
2020/01/31 12:49:04.2	111.240	0.160	-0.690	-1.170
2020/01/31 12:49:04.3	111.240	0.190	-0.720	-1.080
2020/01/31 12:49:04.4	111.240	0.210	-0.740	-0.980
2020/01/31 12:49:04.5	111.240	0.230	-0.760	-0.890
2020/01/31 12:49:04.6	111.240	0.250	-0.780	-0.790
2020/01/31 12:49:04.7	111.240	0.270	-0.790	-0.690
2020/01/31 12:49:04.8	111.240	0.290	-0.810	-0.590
2020/01/31 12:49:04.9	111.250	0.310	-0.820	-0.490
2020/01/31 12:49:05.0	111.250	0.330	-0.830	-0.390
2020/01/31 12:49:05.1	111.260	0.350	-0.830	-0.280
2020/01/31 12:49:05.2	111.260	0.370	-0.840	-0.170
2020/01/31 12:49:05.3	111.270	0.380	-0.840	-0.070
2020/01/31 12:49:05.4	111.280	0.400	-0.830	0.040
2020/01/31 12:49:05.5	111.290	0.410	-0.820	0.150
2020/01/31 12:49:05.6	111.290	0.430	-0.810	0.260
2020/01/31 12:49:05.7	111.300	0.440	-0.790	0.380
2020/01/31 12:49:05.8	111.310	0.450	-0.770	0.490
2020/01/31 12:49:05.9	111.320	0.450	-0.750	0.600
2020/01/31 12:49:06.0	111.330	0.460	-0.720	0.720
2020/01/31 12:49:06.1	111.340	0.460	-0.690	0.830
2020/01/31 12:49:06.2	111.340	0.460	-0.650	0.950
2020/01/31 12:49:06.3	111.350	0.450	-0.610	1.070
2020/01/31 12:49:06.4	111.350	0.450	-0.570	1.190
2020/01/31 12:49:06.5	111.340	0.440	-0.520	1.300
2020/01/31 12:49:06.6	111.340	0.430	-0.470	1.420
2020/01/31 12:49:06.7	111.340	0.420	-0.420	1.540
2020/01/31 12:49:06.8	111.340	0.400	-0.370	1.670
2020/01/31 12:49:06.9	111.340	0.380	-0.310	1.790
2020/01/31 12:49:07.0	111.340	0.360	-0.250	1.910
2020/01/31 12:49:07.1	111.340	0.340	-0.190	2.030
2020/01/31 12:49:07.2	111.330	0.310	-0.130	2.150
2020/01/31 12:49:07.3	111.330	0.280	-0.070	2.280
2020/01/31 12:49:07.4	111.320	0.250	-0.000	2.400
2020/01/31 12:49:07.5	111.310	0.220	0.060	2.520
2020/01/31 12:49:07.6	111.300	0.190	0.120	2.630
2020/01/31 12:49:07.7	111.300	0.160	0.180	2.750
2020/01/31 12:49:07.8	111.290	0.120	0.250	2.860
2020/01/31 12:49:07.9	111.280	0.090	0.310	2.970
2020/01/31 12:49:08.0	111.270	0.050	0.370	3.070
2020/01/31 12:49:08.1	111.270	0.010	0.430	3.170
2020/01/31 12:49:08.2	111.260	-0.020	0.480	3.270
2020/01/31 12:49:08.3	111.260	-0.060	0.540	3.360
2020/01/31 12:49:08.4	111.250	-0.100	0.590	3.450
2020/01/31 12:49:08.5	111.240	-0.130	0.640	3.530
2020/01/31 12:49:08.6	111.240	-0.170	0.680	3.600
2020/01/31 12:49:08.7	111.240	-0.200	0.720	3.670
2020/01/31 12:49:08.8	111.230	-0.230	0.760	3.730
2020/01/31 12:49:08.9	111.230	-0.260	0.790	3.780
2020/01/31 12:49:09.0	111.230	-0.290	0.810	3.830
2020/01/31 12:49:09.1	111.230	-0.310	0.830	3.870
2020/01/31 12:49:09.2	111.230	-0.330	0.840	3.910
2020/01/31 12:49:09.3	111.230	-0.350	0.850	3.930
2020/01/31 12:49:09.4	111.230	-0.370	0.850	3.950
2020/01/31 12:49:09.5	111.230	-0.380	0.850	3.970
2020/01/31 12:49:09.6	111.230	-0.390	0.830	3.980
2020/01/31 12:49:09.7	111.230	-0.400	0.810	3.980
2020/01/31 12:49:09.8	111.240	-0.400	0.790	3.970
2020/01/31 12:49:09.9	111.240	-0.400	0.750	3.950
2020/01/31 12:49:10.0	111.250	-0.390	0.710	3.930
2020/01/31 12:49:10.1	111.250	-0.380	0.670	3.910
2020/01/31 12:49:10.2	111.260	-0.370	0.620	3.870
2020/01/31 12:49:10.3	111.270	-0.350	0.560	3.830
2020/01/31 12:49:10.4	111.280	-0.330	0.500	3.780
2020/01/31 12:49:10.5	111.290	-0.310	0.430	3.730
2020/01/31 12:49:10.6	111.300	-0.280	0.350	3.670
2020/01/31 12:49:10.7	111.320	-0.260	0.280	3.600
2020/01/31 12:49:10.8	111.330	-0.220	0.200	3.530
2020/01/31 12:49:10.9	111.350	-0.190	0.120	3.460
2020/01/31 12:49:11.0	111.370	-0.150	0.040	3.380
2020/01/31 12:49:11.1	111.380	-0.120	-0.050	3.300
2020/01/31 12:49:11.2	111.400	-0.080	-0.130	3.210
2020/01/31 12:49:11.3	111.420	-0.040	-0.210	3.120
2020/01/31 12:49:11.4	111.440	0.010	-0.300	3.030
2020/01/31 12:49:11.5	111.460	0.050	-0.370	2.930
2020/01/31 12:49:11.6	111.480	0.090	-0.450	2.840
2020/01/31 12:49:11.7	111.500	0.130	-0.530	2.740
2020/01/31 12:49:11.8	111.510	0.180	-0.600	2.640
2020/01/31 12:49:11.9	111.530	0.220	-0.660	2.540
2020/01/31 12:49:12.0	111.540	0.260	-0.720	2.440
2020/01/31 12:49:12.1	111.550	0.300	-0.780	2.340
2020/01/31 12:49:12.2	111.570	0.330	-0.830	2.240
2020/01/31 12:49:12.3	111.570	0.370	-0.880	2.150
2020/01/31 12:49:12.4	111.580	0.400	-0.920	2.050
2020/01/31 12:49:12.5	111.560	0.430	-0.960	1.940
2020/01/31 12:49:12.6	111.560	0.460	-0.990	1.850
2020/01/31 12:49:12.7	111.560	0.480	-1.010	1.750
2020/01/31 12:49:12.8	111.560	0.510	-1.030	1.660
2020/01/31 12:49:12.9	111.560	0.530	-1.040	1.570
2020/01/31 12:49:13.0	111.550	0.540	-1.040	1.470
2020/01/31 12:49:13.1	111.540	0.550	-1.040	1.390
2020/01/31 12:49:13.2	111.530	0.560	-1.040	1.300
2020/01/31 12:49:13.3	111.520	0.570	-1.030	1.210
2020/01/31 12:49:13.4	111.500	0.570	-1.020	1.130
2020/01/31 12:49:13.5	111.500	0.560	-1.000	1.050
2020/01/31 12:49:13.6	111.480	0.560	-0.980	0.970
2020/01/31 12:49:13.7	111.460	0.550	-0.950	0.900
2020/01/31 12:49:13.8	111.430	0.540	-0.930	0.820
2020/01/31 12:49:13.9	111.410	0.520	-0.900	0.750
2020/01/31 12:49:14.0	111.380	0.500	-0.870	0.680
2020/01/31 12:49:14.1	111.350	0.480	-0.830	0.620
2020/01/31 12:49:14.2	111.330	0.460	-0.800	0.550
2020/01/31 12:49:14.3	111.300	0.430	-0.760	0.490
2020/01/31 12:49:14.4	111.270	0.400	-0.720	0.430
2020/01/31 12:49:14.5	111.250	0.370	-0.690	0.380
2020/01/31 12:49:14.6	111.220	0.340	-0.650	0.320
2020/01/31 12:49:14.7	111.190	0.300	-0.610	0.270
2020/01/31 12:49:14.8	111.160	0.270	-0.560	0.220
2020/01/31 12:49:14.9	111.140	0.230	-0.520	0.180
2020/01/31 12:49:15.0	111.110	0.200	-0.480	0.130
2020/01/31 12:49:15.1	111.080	0.160	-0.440	0.090
2020/01/31 12:49:15.2	111.060	0.120	-0.400	0.050
2020/01/31 12:49:15.3	111.030	0.090	-0.360	0.020
2020/01/31 12:49:15.4	111.010	0.050	-0.320	-0.020
2020/01/31 12:49:15.5	110.990	0.020	-0.280	-0.050
2020/01/31 12:49:15.6	110.970	-0.020	-0.240	-0.080
2020/01/31 12:49:15.7	110.950	-0.050	-0.200	-0.110
2020/01/31 12:49:15.8	110.940	-0.090	-0.170	-0.130
2020/01/31 12:49:15.9	110.920	-0.120	-0.130	-0.160
2020/01/31 12:49:16.0	110.910	-0.150	-0.090	-0.180
2020/01/31 12:49:16.1	110.900	-0.180	-0.060	-0.200
2020/01/31 12:49:16.2	110.900	-0.210	-0.020	-0.220
2020/01/31 12:49:16.3	110.890	-0.240	0.010	-0.240
2020/01/31 12:49:16.4	110.890	-0.260	0.050	-0.260
2020/01/31 12:49:16.5	110.900	-0.290	0.090	-0.280
2020/01/31 12:49:16.6	110.900	-0.310	0.120	-0.290
2020/01/31 12:49:16.7	110.910	-0.340	0.160	-0.310
2020/01/31 12:49:16.8	110.920	-0.360	0.190	-0.320
2020/01/31 12:49:16.9	110.930	-0.380	0.230	-0.330
2020/01/31 12:49:17.0	110.950	-0.400	0.260	-0.340
2020/01/31 12:49:17.1	110.970	-0.420	0.300	-0.350
2020/01/31 12:49:17.2	110.990	-0.430	0.330	-0.360
2020/01/31 12:49:17.3	111.020	-0.450	0.370	-0.370
2020/01/31 12:49:17.4	111.040	-0.470	0.400	-0.370
2020/01/31 12:49:17.5	111.060	-0.480	0.430	-0.380
2020/01/31 12:49:17.6	111.100	-0.490	0.460	-0.380
2020/01/31 12:49:17.7	111.130	-0.500	0.490	-0.370
2020/01/31 12:49:17.8	111.160	-0.510	0.520	-0.370
2020/01/31 12:49:17.9	111.190	-0.520	0.540	-0.360
2020/01/31 12:49:18.0	111.230	-0.530	0.570	-0.350
2020/01/31 12:49:18.1	111.260	-0.540	0.580	-0.330
2020/01/31 12:49:18.2	111.300	-0.540	0.600	-0.310
2020/01/31 12:49:18.3	111.330	-0.550	0.610	-0.280
2020/01/31 12:49:18.4	111.370	-0.550	0.610	-0.250
2020/01/31 12:49:18.5	111.380	-0.550	0.620	-0.220
2020/01/31 12:49:18.6	111.410	-0.540	0.620	-0.180
2020/01/31 12:49:18.7	111.440	-0.540	0.610	-0.130
2020/01/31 12:49:18.8	111.470	-0.530	0.590	-0.080
2020/01/31 12:49:18.9	111.500	-0.520	0.570	-0.030
2020/01/31 12:49:19.0	111.520	-0.510	0.550	0.030
2020/01/31 12:49:19.1	111.540	-0.500	0.520	0.100
2020/01/31 12:49:19.2	111.560	-0.480	0.480	0.170
2020/01/31 12:49:19.3	111.570	-0.460	0.440	0.240
2020/01/31 12:49:19.4	111.590	-0.440	0.400	0.320
2020/01/31 12:49:19.5	111.580	-0.420	0.340	0.400
2020/01/31 12:49:19.6	111.590	-0.390	0.290	0.490
2020/01/31 12:49:19.7	111.590	-0.360	0.220	0.580
2020/01/31 12:49:19.8	111.590	-0.330	0.160	0.670
2020/01/31 12:49:19.9	111.580	-0.300	0.090	0.760
2020/01/31 12:49:20.0	111.580	-0.260	0.010	0.850
2020/01/31 12:49:20.1	111.570	-0.230	-0.060	0.940
2020/01/31 12:49:20.2	111.550	-0.190	-0.140	1.040
2020/01/31 12:49:20.3	111.540	-0.150	-0.220	1.130
2020/01/31 12:49:20.4	111.520	-0.110	-0.300	1.230
2020/01/31 12:49:20.5	111.520	-0.070	-0.380	1.320
2020/01/31 12:49:20.6	111.500	-0.020	-0.460	1.410
2020/01/31 12:49:20.7	111.470	0.020	-0.530	1.500
2020/01/31 12:49:20.8	111.450	0.070	-0.610	1.590
2020/01/31 12:49:20.9	111.430	0.110	-0.680	1.670
2020/01/31 12:49:21.0	111.400	0.150	-0.750	1.750
2020/01/31 12:49:21.1	111.380	0.190	-0.810	1.830
2020/01/31 12:49:21.2	111.350	0.240	-0.870	1.910
2020/01/31 12:49:21.3	111.320	0.280	-0.920	1.980
2020/01/31 12:49:21.4	111.300	0.310	-0.960	2.050
2020/01/31 12:49:21.5	111.260	0.350	-1.000	2.120
2020/01/31 12:49:21.6	111.230	0.390	-1.030	2.180
2020/01/31 12:49:21.7	111.210	0.420	-1.050	2.240
2020/01/31 12:49:21.8	111.180	0.450	-1.070	2.300
2020/01/31 12:49:21.9	111.160	0.470	-1.080	2.360
2020/01/31 12:49:22.0	111.140	0.500	-1.070	2.410
2020/01/31 12:49:22.1	111.120	0.520	-1.060	2.460
2020/01/31 12:49:22.2	111.110	0.530	-1.050	2.500
2020/01/31 12:49:22.3	111.090	0.550	-1.020	2.550
2020/01/31 12:49:22.4	111.080	0.560	-0.990	2.590
2020/01/31 12:49:22.5	111.070	0.560	-0.940	2.630
2020/01/31 12:49:22.6	111.060	0.560	-0.900	2.670
2020/01/31 12:49:22.7	111.050	0.560	-0.840	2.700
2020/01/31 12:49:22.8	111.040	0.550	-0.780	2.740
2020/01/31 12:49:22.9	111.040	0.540	-0.720	2.770
2020/01/31 12:49:23.0	111.030	0.520	-0.650	2.800
2020/01/31 12:49:23.1	111.030	0.500	-0.570	2.830
2020/01/31 12:49:23.2	111.030	0.480	-0.490	2.860
2020/01/31 12:49:23.3	111.030	0.460	-0.410	2.880
2020/01/31 12:49:23.4	111.030	0.430	-0.330	2.910
2020/01/31 12:49:23.5	111.030	0.390	-0.250	2.930
2020/01/31 12:49:23.6	111.030	0.360	-0.160	2.940
2020/01/31 12:49:23.7	111.040	0.320	-0.080	2.960
2020/01/31 12:49:23.8	111.040	0.280	0.010	2.970
2020/01/31 12:49:23.9	111.050	0.240	0.090	2.980
2020/01/31 12:49:24.0	111.060	0.200	0.170	2.980
2020/01/31 12:49:24.1	111.060	0.150	0.240	2.980
2020/01/31 12:49:24.2	111.070	0.110	0.320	2.970
2020/01/31 12:49:24.3	111.080	0.060	0.390	2.960
2020/01/31 12:49:24.4	111.090	0.020	0.450	2.950
2020/01/31 12:49:24.5	111.110	-0.030	0.500	2.930
2020/01/31 12:49:24.6	111.120	-0.070	0.560	2.900
2020/01/31 12:49:24.7	111.130	-0.110	0.600	2.870
2020/01/31 12:49:24.8	111.140	-0.160	0.650	2.830
2020/01/31 12:49:24.9	111.160	-0.200	0.680	2.780
2020/01/31 12:49:25.0	111.170	-0.230	0.710	2.730
2020/01/31 12:49:25.1	111.190	-0.270	0.730	2.670
2020/01/31 12:49:25.2	111.210	-0.300	0.740	2.610
2020/01/31 12:49:25.3	111.220	-0.330	0.750	2.540
2020/01/31 12:49:25.4	111.240	-0.360	0.750	2.470
2020/01/31 12:49:25.5	111.260	-0.390	0.750	2.390
2020/01/31 12:49:25.6	111.280	-0.410	0.740	2.300
2020/01/31 12:49:25.7	111.300	-0.430	0.720	2.220
2020/01/31 12:49:25.8	111.320	-0.440	0.700	2.130
2020/01/31 12:49:25.9	111.340	-0.450	0.670	2.030
2020/01/31 12:49:26.0	111.360	-0.460	0.630	1.940
2020/01/31 12:49:26.1	111.380	-0.460	0.590	1.840
2020/01/31 12:49:26.2	111.410	-0.460	0.550	1.740
2020/01/31 12:49:26.3	111.430	-0.460	0.500	1.640
2020/01/31 12:49:26.4	111.450	-0.450	0.440	1.540
2020/01/31 12:49:26.5	111.470	-0.440	0.380	1.440
2020/01/31 12:49:26.6	111.490	-0.430	0.320	1.340
2020/01/31 12:49:26.7	111.510	-0.410	0.250	1.240
2020/01/31 12:49:26.8	111.530	-0.390	0.190	1.150
2020/01/31 12:49:26.9	111.540	-0.370	0.120	1.050
2020/01/31 12:49:27.0	111.560	-0.350	0.040	0.960
2020/01/31 12:49:27.1	111.580	-0.320	-0.030	0.880
2020/01/31 12:49:27.2	111.590	-0.290	-0.110	0.790
2020/01/31 12:49:27.3	111.600	-0.250	-0.180	0.720
2020/01/31 12:49:27.4	111.610	-0.220	-0.260	0.640
2020/01/31 12:49:27.5	111.620	-0.180	-0.330	0.570
2020/01/31 12:49:27.6	111.630	-0.150	-0.400	0.500
2020/01/31 12:49:27.7	111.630	-0.110	-0.480	0.440
2020/01/31 12:49:27.8	111.640	-0.070	-0.550	0.390
2020/01/31 12:49:27.9	111.640	-0.030	-0.620	0.340
2020/01/31 12:49:28.0	111.640	0.010	-0.690	0.290
2020/01/31 12:49:28.1	111.640	0.050	-0.750	0.250
2020/01/31 12:49:28.2	111.640	0.090	-0.810	0.220
2020/01/31 12:49:28.3	111.640	0.130	-0.860	0.190
2020/01/31 12:49:28.4	111.640	0.170	-0.910	0.160
2020/01/31 12:49:28.5	111.640	0.210	-0.960	0.140
2020/01/31 12:49:28.6	111.640	0.250	-1.000	0.120
2020/01/31 12:49:28.7	111.630	0.280	-1.030	0.110
2020/01/31 12:49:28.8	111.630	0.320	-1.060	0.090
2020/01/31 12:49:28.9	111.620	0.350	-1.070	0.080
2020/01/31 12:49:29.0	111.610	0.380	-1.090	0.080
2020/01/31 12:49:29.1	111.600	0.410	-1.090	0.070
2020/01/31 12:49:29.2	111.590	0.430	-1.090	0.070
2020/01/31 12:49:29.3	111.570	0.450	-1.080	0.070
2020/01/31 12:49:29.4	111.560	0.470	-1.060	0.070
2020/01/31 12:49:29.5	111.560	0.480	-1.040	0.070
2020/01/31 12:49:29.6	111.540	0.500	-1.020	0.080
2020/01/31 12:49:29.7	111.530	0.510	-0.980	0.080
2020/01/31 12:49:29.8	111.510	0.510	-0.940	0.090
2020/01/31 12:49:29.9	111.500	0.520	-0.890	0.100
2020/01/31 12:49:30.0	111.480	0.520	-0.840	0.110
2020/01/31 12:49:30.1	111.460	0.510	-0.790	0.120
2020/01/31 12:49:30.2	111.440	0.510	-0.730	0.130
2020/01/31 12:49:30.3	111.420	0.500	-0.660	0.140
2020/01/31 12:49:30.4	111.410	0.490	-0.600	0.150
2020/01/31 12:49:30.5	111.390	0.480	-0.520	0.160
2020/01/31 12:49:30.6	111.370	0.460	-0.450	0.170
2020/01/31 12:49:30.7	111.350	0.440	-0.380	0.190
2020/01/31 12:49:30.8	111.340	0.420	-0.300	0.200
2020/01/31 12:49:30.9	111.320	0.400	-0.230	0.210
2020/01/31 12:49:31.0	111.300	0.380	-0.150	0.230
2020/01/31 12:49:31.1	111.280	0.350	-0.080	0.240
2020/01/31 12:49:31.2	111.270	0.330	-0.010	0.260
2020/01/31 12:49:31.3	111.250	0.300	0.060	0.270
2020/01/31 12:49:31.4	111.240	0.270	0.130	0.290
2020/01/31 12:49:31.5	111.220	0.240	0.190	0.310
2020/01/31 12:49:31.6	111.200	0.210	0.250	0.330
2020/01/31 12:49:31.7	111.190	0.180	0.310	0.350
2020/01/31 12:49:31.8	111.180	0.160	0.360	0.370
2020/01/31 12:49:31.9	111.170	0.130	0.400	0.390
2020/01/31 12:49:32.0	111.160	0.100	0.440	0.420
2020/01/31 12:49:32.1	111.160	0.070	0.480	0.450
2020/01/31 12:49:32.2	111.150	0.050	0.500	0.480
2020/01/31 12:49:32.3	111.140	0.030	0.520	0.510
2020/01/31 12:49:32.4	111.130	0.000	0.540	0.550
2020/01/31 12:49:32.5	111.120	-0.020	0.550	0.590
2020/01/31 12:49:32.6	111.120	-0.040	0.550	0.630
2020/01/31 12:49:32.7	111.110	-0.060	0.540	0.670
2020/01/31 12:49:32.8	111.100	-0.070	0.530	0.710
2020/01/31 12:49:32.9	111.100	-0.090	0.510	0.760
2020/01/31 12:49:33.0	111.090	-0.100	0.490	0.800
2020/01/31 12:49:33.1	111.090	-0.110	0.450	0.850
2020/01/31 12:49:33.2	111.080	-0.120	0.420	0.900
2020/01/31 12:49:33.3	111.080	-0.130	0.380	0.950
2020/01/31 12:49:33.4	111.070	-0.130	0.330	1.000
2020/01/31 12:49:33.5	111.060	-0.140	0.280	1.060
2020/01/31 12:49:33.6	111.050	-0.140	0.230	1.110
2020/01/31 12:49:33.7	111.050	-0.140	0.180	1.160
2020/01/31 12:49:33.8	111.040	-0.140	0.120	1.210
2020/01/31 12:49:33.9	111.040	-0.140	0.060	1.260
2020/01/31 12:49:34.0	111.040	-0.140	-0.000	1.310
2020/01/31 12:49:34.1	111.030	-0.140	-0.060	1.360
2020/01/31 12:49:34.2	111.030	-0.140	-0.120	1.400
2020/01/31 12:49:34.3	111.030	-0.140	-0.180	1.450
2020/01/31 12:49:34.4	111.030	-0.140	-0.240	1.500
2020/01/31 12:49:34.5	111.020	-0.130	-0.300	1.540
2020/01/31 12:49:34.6	111.020	-0.130	-0.350	1.580
2020/01/31 12:49:34.7	111.020	-0.130	-0.400	1.620
2020/01/31 12:49:34.8	111.030	-0.130	-0.450	1.660
2020/01/31 12:49:34.9	111.030	-0.130	-0.500	1.700
2020/01/31 12:49:35.0	111.040	-0.130	-0.540	1.730
2020/01/31 12:49:35.1	111.040	-0.130	-0.580	1.770
2020/01/31 12:49:35.2	111.050	-0.130	-0.610	1.800
2020/01/31 12:49:35.3	111.060	-0.130	-0.640	1.840
2020/01/31 12:49:35.4	111.070	-0.140	-0.660	1.870
2020/01/31 12:49:35.5	111.090	-0.140	-0.680	1.900
2020/01/31 12:49:35.6	111.100	-0.150	-0.700	1.930
2020/01/31 12:49:35.7	111.120	-0.150	-0.710	1.960
2020/01/31 12:49:35.8	111.140	-0.160	-0.710	1.990
2020/01/31 12:49:35.9	111.150	-0.170	-0.710	2.020
2020/01/31 12:49:36.0	111.170	-0.180	-0.700	2.050
2020/01/31 12:49:36.1	111.190	-0.180	-0.690	2.080
2020/01/31 12:49:36.2	111.220	-0.190	-0.680	2.110
2020/01/31 12:49:36.3	111.240	-0.210	-0.660	2.140
2020/01/31 12:49:36.4	111.260	-0.220	-0.630	2.170
2020/01/31 12:49:36.5	111.280	-0.230	-0.610	2.200
2020/01/31 12:49:36.6	111.300	-0.240	-0.580	2.230
2020/01/31 12:49:36.7	111.330	-0.250	-0.540	2.260
2020/01/31 12:49:36.8	111.350	-0.260	-0.500	2.290
2020/01/31 12:49:36.9	111.370	-0.270	-0.460	2.320
2020/01/31 12:49:37.0	111.390	-0.290	-0.420	2.350
2020/01/31 12:49:37.1	111.410	-0.300	-0.370	2.380
2020/01/31 12:49:37.2	111.430	-0.310	-0.330	2.410
2020/01/31 12:49:37.3	111.450	-0.320	-0.280	2.440
2020/01/31 12:49:37.4	111.460	-0.330	-0.230	2.460
2020/01/31 12:49:37.5	111.480	-0.340	-0.170	2.490
2020/01/31 12:49:37.6	111.490	-0.350	-0.120	2.510
2020/01/31 12:49:37.7	111.510	-0.360	-0.070	2.540
2020/01/31 12:49:37.8	111.520	-0.360	-0.020	2.560
2020/01/31 12:49:37.9	111.520	-0.370	0.030	2.580
2020/01/31 12:49:38.0	111.530	-0.380	0.080	2.590
2020/01/31 12:49:38.1	111.540	-0.380	0.120	2.610
2020/01/31 12:49:38.2	111.540	-0.380	0.170	2.620
2020/01/31 12:49:38.3	111.540	-0.390	0.210	2.630
2020/01/31 12:49:38.4	111.540	-0.390	0.250	2.630
2020/01/31 12:49:38.5	111.550	-0.390	0.290	2.630
2020/01/31 12:49:38.6	111.550	-0.380	0.330	2.630
2020/01/31 12:49:38.7	111.540	-0.380	0.360	2.620
2020/01/31 12:49:38.8	111.530	-0.380	0.400	2.610
2020/01/31 12:49:38.9	111.520	-0.370	0.420	2.600
2020/01/31 12:49:39.0	111.520	-0.360	0.450	2.580
2020/01/31 12:49:39.1	111.510	-0.360	0.470	2.550
2020/01/31 12:49:39.2	111.490	-0.350	0.490	2.520
2020/01/31 12:49:39.3	111.480	-0.330	0.500	2.490
2020/01/31 12:49:39.4	111.470	-0.320	0.510	2.450
2020/01/31 12:49:39.5	111.470	-0.310	0.510	2.400
2020/01/31 12:49:39.6	111.460	-0.290	0.520	2.350
2020/01/31 12:49:39.7	111.450	-0.270	0.520	2.300
2020/01/31 12:49:39.8	111.440	-0.260	0.510	2.240
2020/01/31 12:49:39.9	111.430	-0.240	0.510	2.180
2020/01/31 12:49:40.0	111.420	-0.220	0.490	2.110
2020/01/31 12:49:40.1	111.410	-0.200	0.480	2.040
2020/01/31 12:49:40.2	111.400	-0.170	0.460	1.970
2020/01/31 12:49:40.3	111.390	-0.150	0.440	1.890
2020/01/31 12:49:40.4	111.380	-0.130	0.410	1.810
2020/01/31 12:49:40.5	111.390	-0.100	0.380	1.730
2020/01/31 12:49:40.6	111.380	-0.080	0.340	1.640
2020/01/31 12:49:40.7	111.380	-0.050	0.310	1.550
2020/01/31 12:49:40.8	111.370	-0.020	0.270	1.470
2020/01/31 12:49:40.9	111.370	0.000	0.220	1.370
2020/01/31 12:49:41.0	111.370	0.030	0.170	1.280
2020/01/31 12:49:41.1	111.360	0.060	0.130	1.190
2020/01/31 12:49:41.2	111.360	0.090	0.070	1.100
2020/01/31 12:49:41.3	111.360	0.110	0.020	1.010
2020/01/31 12:49:41.4	111.360	0.140	-0.040	0.920
2020/01/31 12:49:41.5	111.350	0.170	-0.100	0.830
2020/01/31 12:49:41.6	111.350	0.190	-0.150	0.740
2020/01/31 12:49:41.7	111.350	0.220	-0.210	0.650
2020/01/31 12:49:41.8	111.350	0.250	-0.270	0.570
2020/01/31 12:49:41.9	111.350	0.270	-0.320	0.490
2020/01/31 12:49:42.0	111.350	0.300	-0.380	0.410
2020/01/31 12:49:42.1	111.350	0.320	-0.430	0.340
2020/01/31 12:49:42.2	111.350	0.340	-0.490	0.270
2020/01/31 12:49:42.3	111.350	0.360	-0.530	0.200
2020/01/31 12:49:42.4	111.350	0.380	-0.580	0.130
2020/01/31 12:49:42.5	111.350	0.400	-0.620	0.060
2020/01/31 12:49:42.6	111.350	0.410	-0.660	0.000
2020/01/31 12:49:42.7	111.350	0.430	-0.690	-0.060
2020/01/31 12:49:42.8	111.350	0.440	-0.720	-0.110
2020/01/31 12:49:42.9	111.350	0.450	-0.740	-0.160
2020/01/31 12:49:43.0	111.360	0.460	-0.760	-0.210
2020/01/31 12:49:43.1	111.360	0.470	-0.780	-0.250
2020/01/31 12:49:43.2	111.360	0.470	-0.790	-0.290
2020/01/31 12:49:43.3	111.360	0.470	-0.790	-0.330
2020/01/31 12:49:43.4	111.360	0.470	-0.790	-0.360
2020/01/31 12:49:43.5	111.380	0.470	-0.780	-0.390
2020/01/31 12:49:43.6	111.380	0.470	-0.770	-0.420
2020/01/31 12:49:43.7	111.380	0.460	-0.760	-0.440
2020/01/31 12:49:43.8	111.380	0.450	-0.740	-0.460
2020/01/31 12:49:43.9	111.380	0.440	-0.720	-0.470
2020/01/31 12:49:44.0	111.380	0.430	-0.690	-0.480
2020/01/31 12:49:44.1	111.380	0.420	-0.660	-0.490
2020/01/31 12:49:44.2	111.380	0.410	-0.630	-0.490
2020/01/31 12:49:44.3	111.370	0.390	-0.590	-0.490
2020/01/31 12:49:44.4	111.370	0.380	-0.560	-0.480
2020/01/31 12:49:44.5	111.370	0.360	-0.530	-0.470
2020/01/31 12:49:44.6	111.370	0.350	-0.490	-0.460
2020/01/31 12:49:44.7	111.360	0.330	-0.460	-0.440
2020/01/31 12:49:44.8	111.350	0.310	-0.420	-0.420
2020/01/31 12:49:44.9	111.330	0.300	-0.390	-0.390
2020/01/31 12:49:45.0	111.320	0.280	-0.360	-0.370
2020/01/31 12:49:45.1	111.300	0.270	-0.340	-0.330
2020/01/31 12:49:45.2	111.290	0.260	-0.310	-0.300
2020/01/31 12:49:45.3	111.270	0.240	-0.290	-0.250
2020/01/31 12:49:45.4	111.250	0.230	-0.270	-0.210
2020/01/31 12:49:45.5	111.230	0.220	-0.250	-0.160
2020/01/31 12:49:45.6	111.210	0.210	-0.240	-0.110
2020/01/31 12:49:45.7	111.190	0.200	-0.230	-0.050
2020/01/31 12:49:45.8	111.160	0.200	-0.220	0.010
2020/01/31 12:49:45.9	111.140	0.190	-0.220	0.070
2020/01/31 12:49:46.0	111.120	0.190	-0.220	0.130
2020/01/31 12:49:46.1	111.090	0.190	-0.230	0.200
2020/01/31 12:49:46.2	111.070	0.180	-0.230	0.270
2020/01/31 12:49:46.3	111.040	0.180	-0.240	0.340
2020/01/31 12:49:46.4	111.020	0.180	-0.260	0.420
2020/01/31 12:49:46.5	110.980	0.180	-0.270	0.490
2020/01/31 12:49:46.6	110.960	0.180	-0.290	0.570
2020/01/31 12:49:46.7	110.940	0.180	-0.300	0.650
2020/01/31 12:49:46.8	110.920	0.180	-0.320	0.730
2020/01/31 12:49:46.9	110.900	0.180	-0.340	0.810
2020/01/31 12:49:47.0	110.880	0.180	-0.350	0.890
2020/01/31 12:49:47.1	110.870	0.180	-0.370	0.970
2020/01/31 12:49:47.2	110.860	0.170	-0.380	1.050
2020/01/31 12:49:47.3	110.850	0.170	-0.390	1.130
2020/01/31 12:49:47.4	110.840	0.160	-0.400	1.210
2020/01/31 12:49:47.5	110.830	0.150	-0.410	1.290
2020/01/31 12:49:47.6	110.830	0.150	-0.410	1.370
2020/01/31 12:49:47.7	110.830	0.130	-0.410	1.440
2020/01/31 12:49:47.8	110.830	0.120	-0.410	1.520
2020/01/31 12:49:47.9	110.840	0.110	-0.400	1.600
2020/01/31 12:49:48.0	110.840	0.090	-0.380	1.670
2020/01/31 12:49:48.1	110.850	0.070	-0.360	1.750
2020/01/31 12:49:48.2	110.860	0.050	-0.340	1.820
2020/01/31 12:49:48.3	110.870	0.030	-0.320	1.890
2020/01/31 12:49:48.4	110.890	0.000	-0.280	1.960
2020/01/31 12:49:48.5	110.900	-0.030	-0.250	2.030
2020/01/31 12:49:48.6	110.920	-0.050	-0.210	2.100
2020/01/31 12:49:48.7	110.930	-0.080	-0.160	2.160
2020/01/31 12:49:48.8	110.950	-0.120	-0.120	2.230
2020/01/31 12:49:48.9	110.970	-0.150	-0.070	2.290
2020/01/31 12:49:49.0	110.990	-0.180	-0.010	2.350
2020/01/31 12:49:49.1	111.010	-0.210	0.040	2.400
2020/01/31 12:49:49.2	111.030	-0.250	0.100	2.460
2020/01/31 12:49:49.3	111.050	-0.280	0.150	2.510
2020/01/31 12:49:49.4	111.070	-0.320	0.210	2.560
2020/01/31 12:49:49.5	111.080	-0.350	0.260	2.600
2020/01/31 12:49:49.6	111.100	-0.380	0.320	2.650
2020/01/31 12:49:49.7	111.110	-0.420	0.370	2.690
2020/01/31 12:49:49.8	111.130	-0.450	0.430	2.730
2020/01/31 12:49:49.9	111.150	-0.480	0.480	2.760
2020/01/31 12:49:50.0	111.160	-0.500	0.520	2.790
2020/01/31 12:49:50.1	111.180	-0.530	0.560	2.820
2020/01/31 12:49:50.2	111.190	-0.550	0.600	2.850
2020/01/31 12:49:50.3	111.210	-0.580	0.640	2.880
2020/01/31 12:49:50.4	111.220	-0.600	0.660	2.900
2020/01/31 12:49:50.5	111.230	-0.610	0.690	2.920
2020/01/31 12:49:50.6	111.240	-0.630	0.700	2.940
2020/01/31 12:49:50.7	111.250	-0.640	0.720	2.950
2020/01/31 12:49:50.8	111.260	-0.640	0.720	2.970
2020/01/31 12:49:50.9	111.260	-0.650	0.720	2.980
2020/01/31 12:49:51.0	111.270	-0.650	0.710	2.980
2020/01/31 12:49:51.1	111.270	-0.650	0.700	2.990
2020/01/31 12:49:51.2	111.270	-0.640	0.680	2.990
2020/01/31 12:49:51.3	111.270	-0.630	0.650	2.990
2020/01/31 12:49:51.4	111.270	-0.620	0.610	2.990
2020/01/31 12:49:51.5	111.260	-0.610	0.570	2.980
2020/01/31 12:49:51.6	111.260	-0.590	0.530	2.970
2020/01/31 12:49:51.7	111.260	-0.570	0.480	2.960
2020/01/31 12:49:51.8	111.250	-0.550	0.430	2.950
2020/01/31 12:49:51.9	111.250	-0.520	0.370	2.930
2020/01/31 12:49:52.0	111.250	-0.490	0.300	2.910
2020/01/31 12:49:52.1	111.250	-0.460	0.240	2.880
2020/01/31 12:49:52.2	111.240	-0.430	0.170	2.860
2020/01/31 12:49:52.3	111.240	-0.390	0.100	2.820
2020/01/31 12:49:52.4	111.240	-0.360	0.030	2.790
2020/01/31 12:49:52.5	111.240	-0.320	-0.040	2.750
2020/01/31 12:49:52.6	111.240	-0.280	-0.110	2.710
2020/01/31 12:49:52.7	111.240	-0.250	-0.180	2.670
2020/01/31 12:49:52.8	111.240	-0.210	-0.240	2.620
2020/01/31 12:49:52.9	111.240	-0.170	-0.310	2.570
2020/01/31 12:49:53.0	111.240	-0.130	-0.370	2.520
2020/01/31 12:49:53.1	111.240	-0.090	-0.430	2.460
2020/01/31 12:49:53.2	111.240	-0.050	-0.490	2.400
2020/01/31 12:49:53.3	111.240	-0.020	-0.540	2.340
2020/01/31 12:49:53.4	111.240	0.020	-0.590	2.280
2020/01/31 12:49:53.5	111.220	0.050	-0.640	2.220
2020/01/31 12:49:53.6	111.220	0.090	-0.680	2.150
2020/01/31 12:49:53.7	111.220	0.120	-0.720	2.080
2020/01/31 12:49:53.8	111.220	0.150	-0.750	2.020
2020/01/31 12:49:53.9	111.210	0.170	-0.780	1.950
2020/01/31 12:49:54.0	111.210	0.200	-0.800	1.880
2020/01/31 12:49:54.1	111.200	0.220	-0.820	1.810
2020/01/31 12:49:54.2	111.200	0.240	-0.830	1.740
2020/01/31 12:49:54.3	111.190	0.260	-0.840	1.670
2020/01/31 12:49:54.4	111.180	0.280	-0.850	1.600
2020/01/31 12:49:54.5	111.170	0.290	-0.850	1.520
2020/01/31 12:49:54.6	111.160	0.300	-0.840	1.450
2020/01/31 12:49:54.7	111.160	0.310	-0.840	1.390
2020/01/31 12:49:54.8	111.150	0.320	-0.820	1.320
2020/01/31 12:49:54.9	111.140	0.320	-0.810	1.250
2020/01/31 12:49:55.0	111.130	0.330	-0.790	1.180
2020/01/31 12:49:55.1	111.120	0.330	-0.770	1.120
2020/01/31 12:49:55.2	111.110	0.320	-0.740	1.050
2020/01/31 12:49:55.3	111.100	0.320	-0.710	0.990
2020/01/31 12:49:55.4	111.090	0.320	-0.680	0.920
2020/01/31 12:49:55.5	111.070	0.310	-0.650	0.860
2020/01/31 12:49:55.6	111.060	0.300	-0.610	0.790
2020/01/31 12:49:55.7	111.060	0.290	-0.570	0.730
2020/01/31 12:49:55.8	111.050	0.280	-0.530	0.670
2020/01/31 12:49:55.9	111.040	0.270	-0.490	0.610
2020/01/31 12:49:56.0	111.040	0.260	-0.450	0.550
2020/01/31 12:49:56.1	111.030	0.250	-0.400	0.490
2020/01/31 12:49:56.2	111.020	0.240	-0.360	0.430
2020/01/31 12:49:56.3	111.020	0.230	-0.310	0.380
2020/01/31 12:49:56.4	111.010	0.220	-0.270	0.320
2020/01/31 12:49:56.5	111.010	0.200	-0.220	0.260
2020/01/31 12:49:56.6	111.010	0.190	-0.180	0.210
2020/01/31 12:49:56.7	111.000	0.180	-0.140	0.160
2020/01/31 12:49:56.8	111.000	0.170	-0.100	0.110
2020/01/31 12:49:56.9	110.990	0.160	-0.060	0.060
2020/01/31 12:49:57.0	110.980	0.150	-0.020	0.020
2020/01/31 12:49:57.1	110.980	0.140	0.010	-0.030
2020/01/31 12:49:57.2	110.970	0.140	0.040	-0.070
2020/01/31 12:49:57.3	110.960	0.130	0.070	-0.110
2020/01/31 12:49:57.4	110.960	0.120	0.100	-0.140
2020/01/31 12:49:57.5	110.960	0.110	0.120	-0.180
2020/01/31 12:49:57.6	110.950	0.110	0.140	-0.210
2020/01/31 12:49:57.7	110.940	0.100	0.150	-0.230
2020/01/31 12:49:57.8	110.930	0.100	0.170	-0.260
2020/01/31 12:49:57.9	110.920	0.090	0.180	-0.280
2020/01/31 12:49:58.0	110.910	0.090	0.180	-0.300
2020/01/31 12:49:58.1	110.900	0.080	0.190	-0.310
2020/01/31 12:49:58.2	110.890	0.080	0.190	-0.320
2020/01/31 12:49:58.3	110.880	0.070	0.190	-0.330
2020/01/31 12:49:58.4	110.870	0.070	0.180	-0.340
2020/01/31 12:49:58.5	110.880	0.070	0.180	-0.340
2020/01/31 12:49:58.6	110.870	0.060	0.170	-0.340
2020/01/31 12:49:58.7	110.860	0.060	0.160	-0.340
2020/01/31 12:49:58.8	110.850	0.050	0.150	-0.330
2020/01/31 12:49:58.9	110.840	0.050	0.140	-0.320
2020/01/31 12:49:59.0	110.830	0.050	0.120	-0.310
2020/01/31 12:49:59.1	110.820	0.040	0.100	-0.300
2020/01/31 12:49:59.2	110.810	0.040	0.090	-0.280
2020/01/31 12:49:59.3	110.800	0.030	0.070	-0.260
2020/01/31 12:49:59.4	110.790	0.030	0.050	-0.240
2020/01/31 12:49:59.5	110.800	0.030	0.030	-0.220
2020/01/31 12:49:59.6	110.790	0.020	0.010	-0.190
2020/01/31 12:49:59.7	110.780	0.020	-0.020	-0.160
2020/01/31 12:49:59.8	110.770	0.020	-0.040	-0.130
2020/01/31 12:49:59.9	110.760	0.020	-0.060	-0.100
2020/01/31 12:50:00.0	110.760	0.020	-0.080	-0.060
2020/01/31 12:50:00.1	110.750	0.020	-0.100	-0.020
2020/01/31 12:50:00.2	110.740	0.010	-0.120	0.020
2020/01/31 12:50:00.3	110.740	0.020	-0.140	0.060
2020/01/31 12:50:00.4	110.730	0.020	-0.150	0.100
2020/01/31 12:50:00.5	110.710	0.020	-0.170	0.150
2020/01/31 12:50:00.6	110.710	0.020	-0.180	0.200
2020/01/31 12:50:00.7	110.700	0.020	-0.200	0.250
2020/01/31 12:50:00.8	110.700	0.020	-0.210	0.300
2020/01/31 12:50:00.9	110.700	0.030	-0.220	0.360
2020/01/31 12:50:01.0	110.710	0.030	-0.220	0.410
2020/01/31 12:50:01.1	110.710	0.040	-0.230	0.470
2020/01/31 12:50:01.2	110.720	0.040	-0.240	0.530
2020/01/31 12:50:01.3	110.720	0.050	-0.240	0.590
2020/01/31 12:50:01.4	110.730	0.050	-0.240	0.660
2020/01/31 12:50:01.5	110.740	0.060	-0.240	0.720
2020/01/31 12:50:01.6	110.750	0.060	-0.250	0.790
2020/01/31 12:50:01.7	110.770	0.070	-0.250	0.860
2020/01/31 12:50:01.8	110.780	0.070	-0.250	0.920
2020/01/31 12:50:01.9	110.790	0.080	-0.250	0.990
2020/01/31 12:50:02.0	110.810	0.090	-0.260	1.060
2020/01/31 12:50:02.1	110.820	0.090	-0.260	1.130
2020/01/31 12:50:02.2	110.840	0.100	-0.260	1.200
2020/01/31 12:50:02.3	110.860	0.110	-0.270	1.270
2020/01/31 12:50:02.4	110.870	0.110	-0.280	1.340
2020/01/31 12:50:02.5	110.880	0.120	-0.290	1.410
2020/01/31 12:50:02.6	110.890	0.120	-0.300	1.490
2020/01/31 12:50:02.7	110.910	0.130	-0.300	1.560
2020/01/31 12:50:02.8	110.920	0.130	-0.310	1.630
2020/01/31 12:50:02.9	110.930	0.130	-0.330	1.700
2020/01/31 12:50:03.0	110.940	0.130	-0.340	1.780
2020/01/31 12:50:03.1	110.950	0.130	-0.350	1.850
2020/01/31 12:50:03.2	110.960	0.140	-0.360	1.920
2020/01/31 12:50:03.3	110.960	0.130	-0.380	1.990
2020/01/31 12:50:03.4	110.970	0.130	-0.390	2.060
2020/01/31 12:50:03.5	110.950	0.130	-0.400	2.130
2020/01/31 12:50:03.6	110.950	0.130	-0.410	2.200
2020/01/31 12:50:03.7	110.950	0.120	-0.420	2.270
2020/01/31 12:50:03.8	110.940	0.110	-0.430	2.340
2020/01/31 12:50:03.9	110.930	0.110	-0.440	2.400
2020/01/31 12:50:04.0	110.920	0.100	-0.440	2.470
2020/01/31 12:50:04.1	110.910	0.080	-0.450	2.530
2020/01/31 12:50:04.2	110.890	0.070	-0.450	2.600
2020/01/31 12:50:04.3	110.880	0.060	-0.440	2.660
2020/01/31 12:50:04.4	110.860	0.040	-0.430	2.720
2020/01/31 12:50:04.5	110.830	0.020	-0.420	2.770
2020/01/31 12:50:04.6	110.810	0.010	-0.410	2.830
2020/01/31 12:50:04.7	110.790	-0.010	-0.390	2.880
2020/01/31 12:50:04.8	110.770	-0.040	-0.370	2.940
2020/01/31 12:50:04.9	110.740	-0.060	-0.340	2.990
2020/01/31 12:50:05.0	110.720	-0.080	-0.310	3.030
2020/01/31 12:50:05.1	110.690	-0.110	-0.280	3.080
2020/01/31 12:50:05.2	110.670	-0.130	-0.240	3.120
2020/01/31 12:50:05.3	110.650	-0.160	-0.200	3.150
2020/01/31 12:50:05.4	110.630	-0.190	-0.160	3.180
2020/01/31 12:50:05.5	110.610	-0.220	-0.120	3.210
2020/01/31 12:50:05.6	110.590	-0.240	-0.070	3.230
2020/01/31 12:50:05.7	110.580	-0.270	-0.030	3.250
2020/01/31 12:50:05.8	110.560	-0.300	0.020	3.260
2020/01/31 12:50:05.9	110.550	-0.330	0.070	3.270
2020/01/31 12:50:06.0	110.540	-0.350	0.120	3.270
2020/01/31 12:50:06.1	110.530	-0.380	0.160	3.260
2020/01/31 12:50:06.2	110.520	-0.400	0.210	3.250
2020/01/31 12:50:06.3	110.520	-0.430	0.250	3.240
2020/01/31 12:50:06.4	110.510	-0.450	0.290	3.210
2020/01/31 12:50:06.5	110.520	-0.470	0.330	3.180
2020/01/31 12:50:06.6	110.520	-0.490	0.360	3.150
2020/01/31 12:50:06.7	110.520	-0.500	0.390	3.110
2020/01/31 12:50:06.8	110.520	-0.520	0.420	3.070
2020/01/31 12:50:06.9	110.530	-0.530	0.440	3.030
2020/01/31 12:50:07.0	110.530	-0.530	0.450	2.980
2020/01/31 12:50:07.1	110.540	-0.540	0.460	2.920
2020/01/31 12:50:07.2	110.540	-0.540	0.470	2.870
2020/01/31 12:50:07.3	110.550	-0.540	0.460	2.810
2020/01/31 12:50:07.4	110.550	-0.530	0.460	2.740
2020/01/31 12:50:07.5	110.560	-0.530	0.440	2.680
2020/01/31 12:50:07.6	110.570	-0.510	0.420	2.610
2020/01/31 12:50:07.7	110.570	-0.500	0.390	2.540
2020/01/31 12:50:07.8	110.580	-0.480	0.360	2.470
2020/01/31 12:50:07.9	110.590	-0.460	0.330	2.390
2020/01/31 12:50:08.0	110.590	-0.440	0.290	2.310
2020/01/31 12:50:08.1	110.600	-0.410	0.240	2.230
2020/01/31 12:50:08.2	110.600	-0.380	0.190	2.150
2020/01/31 12:50:08.3	110.610	-0.350	0.140	2.060
2020/01/31 12:50:08.4	110.610	-0.310	0.080	1.970
2020/01/31 12:50:08.5	110.610	-0.280	0.020	1.880
2020/01/31 12:50:08.6	110.620	-0.240	-0.040	1.780
2020/01/31 12:50:08.7	110.630	-0.200	-0.110	1.690
2020/01/31 12:50:08.8	110.630	-0.170	-0.170	1.590
2020/01/31 12:50:08.9	110.630	-0.130	-0.230	1.500
2020/01/31 12:50:09.0	110.640	-0.090	-0.290	1.400
2020/01/31 12:50:09.1	110.640	-0.050	-0.350	1.300
2020/01/31 12:50:09.2	110.650	-0.010	-0.410	1.200
2020/01/31 12:50:09.3	110.650	0.030	-0.470	1.110
2020/01/31 12:50:09.4	110.650	0.070	-0.520	1.010
2020/01/31 12:50:09.5	110.650	0.100	-0.570	0.910
2020/01/31 12:50:09.6	110.660	0.140	-0.610	0.820
2020/01/31 12:50:09.7	110.660	0.170	-0.650	0.720
2020/01/31 12:50:09.8	110.660	0.200	-0.680	0.630
2020/01/31 12:50:09.9	110.660	0.230	-0.710	0.530
2020/01/31 12:50:10.0	110.660	0.250	-0.730	0.440
2020/01/31 12:50:10.1	110.660	0.270	-0.750	0.350
2020/01/31 12:50:10.2	110.660	0.290	-0.760	0.270
2020/01/31 12:50:10.3	110.660	0.310	-0.760	0.180
2020/01/31 12:50:10.4	110.660	0.320	-0.760	0.100
2020/01/31 12:50:10.5	110.670	0.330	-0.750	0.020
2020/01/31 12:50:10.6	110.670	0.340	-0.740	-0.050
2020/01/31 12:50:10.7	110.670	0.340	-0.720	-0.120
2020/01/31 12:50:10.8	110.660	0.340	-0.690	-0.180
2020/01/31 12:50:10.9	110.660	0.340	-0.660	-0.240
2020/01/31 12:50:11.0	110.660	0.330	-0.630	-0.300
2020/01/31 12:50:11.1	110.660	0.320	-0.590	-0.350
2020/01/31 12:50:11.2	110.660	0.310	-0.540	-0.390
2020/01/31 12:50:11.3	110.650	0.300	-0.500	-0.430
2020/01/31 12:50:11.4	110.650	0.280	-0.450	-0.470
2020/01/31 12:50:11.5	110.660	0.270	-0.390	-0.490
2020/01/31 12:50:11.6	110.660	0.250	-0.340	-0.520
2020/01/31 12:50:11.7	110.650	0.230	-0.290	-0.530
2020/01/31 12:50:11.8	110.650	0.220	-0.240	-0.550
2020/01/31 12:50:11.9	110.640	0.200	-0.190	-0.550
2020/01/31 12:50:12.0	110.640	0.180	-0.140	-0.560
2020/01/31 12:50:12.1	110.630	0.160	-0.100	-0.550
2020/01/31 12:50:12.2	110.630	0.140	-0.060	-0.550
2020/01/31 12:50:12.3	110.620	0.120	-0.020	-0.530
2020/01/31 12:50:12.4	110.610	0.110	0.020	-0.520
2020/01/31 12:50:12.5	110.610	0.090	0.040	-0.500
2020/01/31 12:50:12.6	110.600	0.080	0.070	-0.480
2020/01/31 12:50:12.7	110.590	0.070	0.090	-0.450
2020/01/31 12:50:12.8	110.580	0.060	0.110	-0.420
2020/01/31 12:50:12.9	110.570	0.050	0.120	-0.390
2020/01/31 12:50:13.0	110.570	0.050	0.120	-0.360
2020/01/31 12:50:13.1	110.560	0.050	0.130	-0.320
2020/01/31 12:50:13.2	110.550	0.050	0.120	-0.280
2020/01/31 12:50:13.3	110.540	0.050	0.120	-0.250
2020/01/31 12:50:13.4	110.540	0.050	0.100	-0.210
2020/01/31 12:50:13.5	110.540	0.060	0.090	-0.170
2020/01/31 12:50:13.6	110.530	0.060	0.080	-0.130
2020/01/31 12:50:13.7	110.530	0.070	0.060	-0.090
2020/01/31 12:50:13.8	110.530	0.080	0.030	-0.050
2020/01/31 12:50:13.9	110.520	0.090	0.010	-0.010
2020/01/31 12:50:14.0	110.520	0.100	-0.010	0.040
2020/01/31 12:50:14.1	110.520	0.110	-0.040	0.080
2020/01/31 12:50:14.2	110.510	0.130	-0.060	0.130
2020/01/31 12:50:14.3	110.510	0.140	-0.090	0.180
2020/01/31 12:50:14.4	110.510	0.150	-0.110	0.220
2020/01/31 12:50:14.5	110.510	0.160	-0.130	0.280
2020/01/31 12:50:14.6	110.510	0.170	-0.150	0.330
2020/01/31 12:50:14.7	110.500	0.180	-0.160	0.390
2020/01/31 12:50:14.8	110.500	0.180	-0.180	0.440
2020/01/31 12:50:14.9	110.500	0.190	-0.190	0.500
2020/01/31 12:50:15.0	110.490	0.190	-0.190	0.560
2020/01/31 12:50:15.1	110.490	0.200	-0.200	0.620
2020/01/31 12:50:15.2	110.480	0.200	-0.200	0.690
2020/01/31 12:50:15.3	110.480	0.200	-0.200	0.760
2020/01/31 12:50:15.4	110.470	0.190	-0.190	0.830
2020/01/31 12:50:15.5	110.450	0.190	-0.180	0.900
2020/01/31 12:50:15.6	110.440	0.180	-0.170	0.970
2020/01/31 12:50:15.7	110.430	0.170	-0.160	1.040
2020/01/31 12:50:15.8	110.430	0.160	-0.150	1.120
2020/01/31 12:50:15.9	110.420	0.150	-0.130	1.200
2020/01/31 12:50:16.0	110.410	0.140	-0.110	1.270
2020/01/31 12:50:16.1	110.400	0.120	-0.100	1.350
2020/01/31 12:50:16.2	110.390	0.110	-0.080	1.430
2020/01/31 12:50:16.3	110.380	0.090	-0.060	1.510
2020/01/31 12:50:16.4	110.370	0.070	-0.040	1.590
2020/01/31 12:50:16.5	110.350	0.060	-0.020	1.670
2020/01/31 12:50:16.6	110.350	0.040	-0.010	1.740
2020/01/31 12:50:16.7	110.340	0.020	0.000	1.820
2020/01/31 12:50:16.8	110.330	-0.000	0.020	1.890
2020/01/31 12:50:16.9	110.330	-0.020	0.030	1.960
2020/01/31 12:50:17.0	110.320	-0.040	0.030	2.020
2020/01/31 12:50:17.1	110.320	-0.050	0.040	2.090
2020/01/31 12:50:17.2	110.320	-0.070	0.040	2.150
2020/01/31 12:50:17.3	110.320	-0.090	0.040	2.200
2020/01/31 12:50:17.4	110.330	-0.100	0.040	2.250
2020/01/31 12:50:17.5	110.320	-0.120	0.030	2.300
2020/01/31 12:50:17.6	110.330	-0.130	0.020	2.340
2020/01/31 12:50:17.7	110.340	-0.140	0.010	2.380
2020/01/31 12:50:17.8	110.350	-0.150	-0.000	2.410
2020/01/31 12:50:17.9	110.370	-0.160	-0.020	2.440
2020/01/31 12:50:18.0	110.380	-0.170	-0.040	2.460
2020/01/31 12:50:18.1	110.400	-0.170	-0.060	2.490
2020/01/31 12:50:18.2	110.420	-0.180	-0.080	2.500
2020/01/31 12:50:18.3	110.440	-0.180	-0.100	2.520
2020/01/31 12:50:18.4	110.470	-0.180	-0.130	2.530
2020/01/31 12:50:18.5	110.490	-0.190	-0.150	2.540
2020/01/31 12:50:18.6	110.510	-0.190	-0.180	2.550
2020/01/31 12:50:18.7	110.530	-0.190	-0.200	2.560
2020/01/31 12:50:18.8	110.560	-0.190	-0.230	2.560
2020/01/31 12:50:18.9	110.580	-0.190	-0.250	2.570
2020/01/31 12:50:19.0	110.600	-0.180	-0.270	2.570
2020/01/31 12:50:19.1	110.630	-0.180	-0.300	2.570
2020/01/31 12:50:19.2	110.650	-0.180	-0.320	2.570
2020/01/31 12:50:19.3	110.670	-0.180	-0.340	2.570
2020/01/31 12:50:19.4	110.680	-0.180	-0.350	2.570
2020/01/31 12:50:19.5	110.700	-0.180	-0.370	2.570
2020/01/31 12:50:19.6	110.710	-0.180	-0.380	2.570
2020/01/31 12:50:19.7	110.720	-0.180	-0.390	2.570
2020/01/31 12:50:19.8	110.730	-0.180	-0.400	2.570
2020/01/31 12:50:19.9	110.740	-0.180	-0.400	2.570
2020/01/31 12:50:20.0	110.740	-0.180	-0.400	2.560
2020/01/31 12:50:20.1	110.740	-0.180	-0.400	2.560
2020/01/31 12:50:20.2	110.740	-0.190	-0.400	2.560
2020/01/31 12:50:20.3	110.730	-0.190	-0.390	2.560
2020/01/31 12:50:20.4	110.720	-0.190	-0.380	2.560
2020/01/31 12:50:20.5	110.700	-0.200	-0.370	2.550
2020/01/31 12:50:20.6	110.690	-0.200	-0.350	2.550
2020/01/31 12:50:20.7	110.680	-0.210	-0.340	2.550
2020/01/31 12:50:20.8	110.660	-0.210	-0.320	2.540
2020/01/31 12:50:20.9	110.640	-0.220	-0.300	2.530
2020/01/31 12:50:21.0	110.620	-0.220	-0.270	2.530
2020/01/31 12:50:21.1	110.590	-0.230	-0.250	2.520
2020/01/31 12:50:21.2	110.570	-0.240	-0.230	2.500
2020/01/31 12:50:21.3	110.540	-0.240	-0.200	2.490
2020/01/31 12:50:21.4	110.520	-0.250	-0.170	2.470
2020/01/31 12:50:21.5	110.490	-0.250	-0.150	2.440
2020/01/31 12:50:21.6	110.460	-0.260	-0.120	2.420
2020/01/31 12:50:21.7	110.440	-0.260	-0.100	2.390
2020/01/31 12:50:21.8	110.410	-0.270	-0.070	2.360
2020/01/31 12:50:21.9	110.380	-0.270	-0.050	2.330
2020/01/31 12:50:22.0	110.350	-0.270	-0.030	2.290
2020/01/31 12:50:22.1	110.330	-0.270	-0.010	2.240
2020/01/31 12:50:22.2	110.300	-0.270	0.000	2.200
2020/01/31 12:50:22.3	110.280	-0.270	0.010	2.150
2020/01/31 12:50:22.4	110.250	-0.260	0.020	2.090
2020/01/31 12:50:22.5	110.230	-0.260	0.030	2.040
2020/01/31 12:50:22.6	110.210	-0.250	0.030	1.970
2020/01/31 12:50:22.7	110.190	-0.240	0.030	1.910
2020/01/31 12:50:22.8	110.170	-0.230	0.020	1.840
2020/01/31 12:50:22.9	110.150	-0.220	0.010	1.770
2020/01/31 12:50:23.0	110.130	-0.210	0.000	1.690
2020/01/31 12:50:23.1	110.120	-0.190	-0.010	1.620
2020/01/31 12:50:23.2	110.110	-0.170	-0.030	1.540
2020/01/31 12:50:23.3	110.090	-0.150	-0.050	1.450
2020/01/31 12:50:23.4	110.080	-0.130	-0.080	1.370
2020/01/31 12:50:23.5	110.080	-0.110	-0.100	1.280
2020/01/31 12:50:23.6	110.070	-0.080	-0.130	1.190
2020/01/31 12:50:23.7	110.060	-0.060	-0.160	1.110
2020/01/31 12:50:23.8	110.050	-0.030	-0.190	1.020
2020/01/31 12:50:23.9	110.050	-0.000	-0.220	0.930
2020/01/31 12:50:24.0	110.050	0.030	-0.250	0.840
2020/01/31 12:50:24.1	110.040	0.060	-0.290	0.750
2020/01/31 12:50:24.2	110.040	0.090	-0.320	0.660
2020/01/31 12:50:24.3	110.040	0.120	-0.350	0.570
2020/01/31 12:50:24.4	110.040	0.150	-0.380	0.480
2020/01/31 12:50:24.5	110.040	0.180	-0.410	0.390
2020/01/31 12:50:24.6	110.050	0.210	-0.430	0.310
2020/01/31 12:50:24.7	110.050	0.240	-0.450	0.220
2020/01/31 12:50:24.8	110.060	0.270	-0.470	0.140
2020/01/31 12:50:24.9	110.070	0.300	-0.490	0.060
2020/01/31 12:50:25.0	110.080	0.330	-0.510	-0.020
2020/01/31 12:50:25.1	110.090	0.350	-0.520	-0.100
2020/01/31 12:50:25.2	110.100	0.370	-0.520	-0.180
2020/01/31 12:50:25.3	110.120	0.390	-0.530	-0.250
2020/01/31 12:50:25.4	110.130	0.410	-0.520	-0.320
2020/01/31 12:50:25.5	110.170	0.430	-0.520	-0.390
2020/01/31 12:50:25.6	110.190	0.440	-0.510	-0.460
2020/01/31 12:50:25.7	110.210	0.450	-0.490	-0.520
2020/01/31 12:50:25.8	110.230	0.460	-0.470	-0.580
2020/01/31 12:50:25.9	110.260	0.460	-0.450	-0.640
2020/01/31 12:50:26.0	110.290	0.460	-0.420	-0.690
2020/01/31 12:50:26.1	110.310	0.460	-0.390	-0.740
2020/01/31 12:50:26.2	110.340	0.450	-0.360	-0.790
2020/01/31 12:50:26.3	110.370	0.450	-0.320	-0.830
2020/01/31 12:50:26.4	110.400	0.440	-0.280	-0.870
2020/01/31 12:50:26.5	110.430	0.420	-0.240	-0.900
2020/01/31 12:50:26.6	110.460	0.410	-0.190	-0.930
2020/01/31 12:50:26.7	110.480	0.390	-0.140	-0.960
2020/01/31 12:50:26.8	110.510	0.370	-0.100	-0.980
2020/01/31 12:50:26.9	110.540	0.340	-0.050	-0.990
2020/01/31 12:50:27.0	110.560	0.320	0.000	-1.000
2020/01/31 12:50:27.1	110.590	0.290	0.050	-1.010
2020/01/31 12:50:27.2	110.610	0.260	0.100	-1.010
2020/01/31 12:50:27.3	110.630	0.230	0.140	-1.010
2020/01/31 12:50:27.4	110.650	0.190	0.190	-1.000
2020/01/31 12:50:27.5	110.680	0.160	0.230	-0.980
2020/01/31 12:50:27.6	110.700	0.130	0.270	-0.970
2020/01/31 12:50:27.7	110.710	0.090	0.310	-0.940
2020/01/31 12:50:27.8	110.720	0.050	0.340	-0.910
2020/01/31 12:50:27.9	110.730	0.020	0.370	-0.870
2020/01/31 12:50:28.0	110.740	-0.020	0.400	-0.830
2020/01/31 12:50:28.1	110.740	-0.050	0.420	-0.780
2020/01/31 12:50:28.2	110.750	-0.090	0.440	-0.730
2020/01/31 12:50:28.3	110.750	-0.120	0.450	-0.670
2020/01/31 12:50:28.4	110.750	-0.150	0.460	-0.600
2020/01/31 12:50:28.5	110.760	-0.180	0.470	-0.530
2020/01/31 12:50:28.6	110.750	-0.210	0.470	-0.450
2020/01/31 12:50:28.7	110.740	-0.240	0.470	-0.360
2020/01/31 12:50:28.8	110.730	-0.270	0.460	-0.270
2020/01/31 12:50:28.9	110.720	-0.290	0.450	-0.170
2020/01/31 12:50:29.0	110.700	-0.310	0.430	-0.070
2020/01/31 12:50:29.1	110.690	-0.330	0.410	0.040
2020/01/31 12:50:29.2	110.670	-0.340	0.390	0.150
2020/01/31 12:50:29.3	110.640	-0.360	0.360	0.270
2020/01/31 12:50:29.4	110.620	-0.360	0.330	0.390
2020/01/31 12:50:29.5	110.590	-0.370	0.300	0.520
2020/01/31 12:50:29.6	110.560	-0.380	0.260	0.650
2020/01/31 12:50:29.7	110.530	-0.380	0.220	0.790
2020/01/31 12:50:29.8	110.490	-0.370	0.170	0.930
2020/01/31 12:50:29.9	110.460	-0.370	0.130	1.070
2020/01/31 12:50:30.0	110.420	-0.360	0.080	1.210
2020/01/31 12:50:30.1	110.390	-0.350	0.020	1.350
2020/01/31 12:50:30.2	110.350	-0.340	-0.030	1.490
2020/01/31 12:50:30.3	110.310	-0.320	-0.080	1.630
2020/01/31 12:50:30.4	110.280	-0.300	-0.140	1.760
2020/01/31 12:50:30.5	110.240	-0.280	-0.190	1.900
2020/01/31 12:50:30.6	110.200	-0.260	-0.250	2.030
2020/01/31 12:50:30.7	110.170	-0.240	-0.300	2.160
2020/01/31 12:50:30.8	110.130	-0.210	-0.360	2.280
2020/01/31 12:50:30.9	110.100	-0.180	-0.410	2.400
2020/01/31 12:50:31.0	110.080	-0.160	-0.460	2.510
2020/01/31 12:50:31.1	110.050	-0.130	-0.510	2.620
2020/01/31 12:50:31.2	110.030	-0.100	-0.560	2.730
2020/01/31 12:50:31.3	110.010	-0.070	-0.610	2.820
2020/01/31 12:50:31.4	109.990	-0.040	-0.650	2.910
2020/01/31 12:50:31.5	109.970	-0.010	-0.690	3.000
2020/01/31 12:50:31.6	109.960	0.020	-0.720	3.080
2020/01/31 12:50:31.7	109.950	0.050	-0.750	3.150
2020/01/31 12:50:31.8	109.950	0.070	-0.780	3.220
2020/01/31 12:50:31.9	109.940	0.100	-0.800	3.280
2020/01/31 12:50:32.0	109.950	0.130	-0.810	3.330
2020/01/31 12:50:32.1	109.950	0.150	-0.830	3.380
2020/01/31 12:50:32.2	109.960	0.170	-0.840	3.430
2020/01/31 12:50:32.3	109.970	0.190	-0.840	3.460
2020/01/31 12:50:32.4	109.980	0.210	-0.840	3.490
2020/01/31 12:50:32.5	109.980	0.230	-0.840	3.520
2020/01/31 12:50:32.6	110.000	0.240	-0.830	3.540
2020/01/31 12:50:32.7	110.020	0.260	-0.820	3.550
2020/01/31 12:50:32.8	110.030	0.270	-0.810	3.560
2020/01/31 12:50:32.9	110.050	0.280	-0.790	3.560
2020/01/31 12:50:33.0	110.070	0.290	-0.760	3.560
2020/01/31 12:50:33.1	110.100	0.290	-0.740	3.550
2020/01/31 12:50:33.2	110.120	0.290	-0.710	3.540
2020/01/31 12:50:33.3	110.140	0.300	-0.680	3.520
2020/01/31 12:50:33.4	110.160	0.300	-0.650	3.500
2020/01/31 12:50:33.5	110.180	0.300	-0.620	3.470
2020/01/31 12:50:33.6	110.200	0.290	-0.580	3.430
2020/01/31 12:50:33.7	110.220	0.290	-0.550	3.400
2020/01/31 12:50:33.8	110.230	0.280	-0.510	3.360
2020/01/31 12:50:33.9	110.250	0.280	-0.470	3.310
2020/01/31 12:50:34.0	110.270	0.270	-0.440	3.270
2020/01/31 12:50:34.1	110.280	0.260	-0.400	3.220
2020/01/31 12:50:34.2	110.290	0.250	-0.360	3.160
2020/01/31 12:50:34.3	110.300	0.250	-0.320	3.110
2020/01/31 12:50:34.4	110.310	0.240	-0.280	3.050
2020/01/31 12:50:34.5	110.330	0.230	-0.250	2.980
2020/01/31 12:50:34.6	110.340	0.220	-0.210	2.920
2020/01/31 12:50:34.7	110.340	0.210	-0.180	2.850
2020/01/31 12:50:34.8	110.340	0.200	-0.140	2.780
2020/01/31 12:50:34.9	110.350	0.190	-0.110	2.700
2020/01/31 12:50:35.0	110.350	0.180	-0.080	2.620
2020/01/31 12:50:35.1	110.350	0.170	-0.050	2.540
2020/01/31 12:50:35.2	110.350	0.160	-0.020	2.460
2020/01/31 12:50:35.3	110.340	0.160	0.010	2.370
2020/01/31 12:50:35.4	110.340	0.150	0.040	2.280
2020/01/31 12:50:35.5	110.340	0.140	0.070	2.180
2020/01/31 12:50:35.6	110.330	0.130	0.090	2.080
2020/01/31 12:50:35.7	110.330	0.120	0.120	1.980
2020/01/31 12:50:35.8	110.330	0.120	0.140	1.880
2020/01/31 12:50:35.9	110.330	0.110	0.160	1.780
2020/01/31 12:50:36.0	110.330	0.100	0.180	1.670
2020/01/31 12:50:36.1	110.330	0.090	0.210	1.570
2020/01/31 12:50:36.2	110.330	0.090	0.230	1.460
2020/01/31 12:50:36.3	110.330	0.080	0.250	1.350
2020/01/31 12:50:36.4	110.330	0.070	0.260	1.240
2020/01/31 12:50:36.5	110.340	0.060	0.280	1.140
2020/01/31 12:50:36.6	110.350	0.050	0.300	1.030
2020/01/31 12:50:36.7	110.350	0.040	0.310	0.920
2020/01/31 12:50:36.8	110.350	0.030	0.330	0.820
2020/01/31 12:50:36.9	110.360	0.010	0.340	0.710
2020/01/31 12:50:37.0	110.360	0.000	0.350	0.610
2020/01/31 12:50:37.1	110.370	-0.010	0.360	0.510
2020/01/31 12:50:37.2	110.380	-0.030	0.370	0.410
2020/01/31 12:50:37.3	110.390	-0.050	0.380	0.320
2020/01/31 12:50:37.4	110.390	-0.060	0.390	0.230
2020/01/31 12:50:37.5	110.390	-0.080	0.390	0.140
2020/01/31 12:50:37.6	110.400	-0.100	0.390	0.060
2020/01/31 12:50:37.7	110.410	-0.120	0.390	-0.020
2020/01/31 12:50:37.8	110.420	-0.140	0.390	-0.090
2020/01/31 12:50:37.9	110.430	-0.160	0.380	-0.150
2020/01/31 12:50:38.0	110.430	-0.190	0.370	-0.220
2020/01/31 12:50:38.1	110.440	-0.210	0.360	-0.270
2020/01/31 12:50:38.2	110.450	-0.230	0.350	-0.320
2020/01/31 12:50:38.3	110.450	-0.260	0.340	-0.370
2020/01/31 12:50:38.4	110.460	-0.280	0.320	-0.400
2020/01/31 12:50:38.5	110.460	-0.300	0.300	-0.440
2020/01/31 12:50:38.6	110.470	-0.330	0.280	-0.470
2020/01/31 12:50:38.7	110.470	-0.350	0.250	-0.490
2020/01/31 12:50:38.8	110.470	-0.380	0.230	-0.510
2020/01/31 12:50:38.9	110.470	-0.400	0.200	-0.530
2020/01/31 12:50:39.0	110.480	-0.420	0.170	-0.540
2020/01/31 12:50:39.1	110.480	-0.440	0.140	-0.540
2020/01/31 12:50:39.2	110.480	-0.470	0.100	-0.550
2020/01/31 12:50:39.3	110.480	-0.490	0.070	-0.550
2020/01/31 12:50:39.4	110.480	-0.500	0.030	-0.540
2020/01/31 12:50:39.5	110.470	-0.520	-0.000	-0.540
2020/01/31 12:50:39.6	110.470	-0.540	-0.040	-0.530
2020/01/31 12:50:39.7	110.470	-0.550	-0.080	-0.510
2020/01/31 12:50:39.8	110.470	-0.560	-0.120	-0.500
2020/01/31 12:50:39.9	110.460	-0.570	-0.160	-0.480
2020/01/31 12:50:40.0	110.460	-0.580	-0.200	-0.460
2020/01/31 12:50:40.1	110.460	-0.580	-0.240	-0.440
2020/01/31 12:50:40.2	110.450	-0.590	-0.280	-0.420
2020/01/31 12:50:40.3	110.450	-0.590	-0.320	-0.390
2020/01/31 12:50:40.4	110.440	-0.580	-0.360	-0.360
2020/01/31 12:50:40.5	110.450	-0.580	-0.400	-0.330
2020/01/31 12:50:40.6	110.440	-0.570	-0.440	-0.300
2020/01/31 12:50:40.7	110.430	-0.560	-0.480	-0.270
2020/01/31 12:50:40.8	110.420	-0.550	-0.530	-0.240
2020/01/31 12:50:40.9	110.420	-0.530	-0.570	-0.200
2020/01/31 12:50:41.0	110.410	-0.510	-0.610	-0.160
2020/01/31 12:50:41.1	110.400	-0.490	-0.650	-0.120
2020/01/31 12:50:41.2	110.390	-0.460	-0.680	-0.080
2020/01/31 12:50:41.3	110.380	-0.440	-0.720	-0.030
2020/01/31 12:50:41.4	110.370	-0.410	-0.750	0.010
2020/01/31 12:50:41.5	110.370	-0.370	-0.790	0.070
2020/01/31 12:50:41.6	110.360	-0.340	-0.820	0.120
2020/01/31 12:50:41.7	110.350	-0.300	-0.840	0.170
2020/01/31 12:50:41.8	110.340	-0.270	-0.870	0.220
2020/01/31 12:50:41.9	110.330	-0.230	-0.890	0.280
2020/01/31 12:50:42.0	110.320	-0.190	-0.910	0.330
2020/01/31 12:50:42.1	110.310	-0.150	-0.920	0.390
2020/01/31 12:50:42.2	110.310	-0.100	-0.930	0.450
2020/01/31 12:50:42.3	110.300	-0.060	-0.940	0.510
2020/01/31 12:50:42.4	110.290	-0.020	-0.940	0.570
2020/01/31 12:50:42.5	110.290	0.030	-0.930	0.640
2020/01/31 12:50:42.6	110.290	0.070	-0.920	0.700
2020/01/31 12:50:42.7	110.280	0.110	-0.910	0.760
2020/01/31 12:50:42.8	110.280	0.150	-0.890	0.830
2020/01/31 12:50:42.9	110.280	0.190	-0.870	0.890
2020/01/31 12:50:43.0	110.280	0.230	-0.840	0.950
2020/01/31 12:50:43.1	110.270	0.270	-0.810	1.010
2020/01/31 12:50:43.2	110.270	0.300	-0.770	1.070
2020/01/31 12:50:43.3	110.280	0.340	-0.730	1.130
2020/01/31 12:50:43.4	110.280	0.370	-0.690	1.190
2020/01/31 12:50:43.5	110.270	0.400	-0.640	1.250
2020/01/31 12:50:43.6	110.270	0.420	-0.590	1.310
2020/01/31 12:50:43.7	110.280	0.450	-0.530	1.360
2020/01/31 12:50:43.8	110.280	0.470	-0.470	1.410
2020/01/31 12:50:43.9	110.290	0.480	-0.410	1.460
2020/01/31 12:50:44.0	110.290	0.500	-0.350	1.510
2020/01/31 12:50:44.1	110.300	0.510	-0.280	1.560
2020/01/31 12:50:44.2	110.310	0.520	-0.210	1.600
2020/01/31 12:50:44.3	110.310	0.520	-0.150	1.640
2020/01/31 12:50:44.4	110.320	0.530	-0.080	1.680
2020/01/31 12:50:44.5	110.340	0.520	-0.010	1.720
2020/01/31 12:50:44.6	110.350	0.520	0.060	1.750
2020/01/31 12:50:44.7	110.360	0.520	0.130	1.780
2020/01/31 12:50:44.8	110.370	0.510	0.200	1.810
2020/01/31 12:50:44.9	110.380	0.500	0.260	1.830
2020/01/31 12:50:45.0	110.390	0.480	0.330	1.850
2020/01/31 12:50:45.1	110.400	0.470	0.390	1.870
2020/01/31 12:50:45.2	110.420	0.450	0.450	1.880
2020/01/31 12:50:45.3	110.430	0.440	0.500	1.890
2020/01/31 12:50:45.4	110.450	0.420	0.550	1.890
2020/01/31 12:50:45.5	110.460	0.400	0.600	1.900
2020/01/31 12:50:45.6	110.480	0.380	0.640	1.890
2020/01/31 12:50:45.7	110.500	0.350	0.680	1.890
2020/01/31 12:50:45.8	110.520	0.330	0.710	1.880
2020/01/31 12:50:45.9	110.540	0.310	0.730	1.870
2020/01/31 12:50:46.0	110.560	0.290	0.750	1.860
2020/01/31 12:50:46.1	110.580	0.270	0.760	1.840
2020/01/31 12:50:46.2	110.600	0.250	0.770	1.820
2020/01/31 12:50:46.3	110.620	0.230	0.770	1.800
2020/01/31 12:50:46.4	110.640	0.210	0.760	1.780
2020/01/31 12:50:46.5	110.660	0.190	0.740	1.760
2020/01/31 12:50:46.6	110.680	0.180	0.710	1.730
2020/01/31 12:50:46.7	110.700	0.160	0.680	1.710
2020/01/31 12:50:46.8	110.720	0.150	0.650	1.690
2020/01/31 12:50:46.9	110.740	0.140	0.600	1.660
2020/01/31 12:50:47.0	110.760	0.130	0.550	1.640
2020/01/31 12:50:47.1	110.770	0.130	0.490	1.620
2020/01/31 12:50:47.2	110.790	0.120	0.430	1.600
2020/01/31 12:50:47.3	110.800	0.120	0.360	1.580
2020/01/31 12:50:47.4	110.810	0.120	0.290	1.560
2020/01/31 12:50:47.5	110.830	0.120	0.210	1.550
2020/01/31 12:50:47.6	110.840	0.130	0.130	1.540
2020/01/31 12:50:47.7	110.840	0.130	0.050	1.520
2020/01/31 12:50:47.8	110.850	0.140	-0.040	1.520
2020/01/31 12:50:47.9	110.850	0.150	-0.120	1.510
2020/01/31 12:50:48.0	110.850	0.160	-0.210	1.500
2020/01/31 12:50:48.1	110.850	0.170	-0.300	1.500
2020/01/31 12:50:48.2	110.850	0.180	-0.380	1.500
2020/01/31 12:50:48.3	110.840	0.190	-0.460	1.500
2020/01/31 12:50:48.4	110.840	0.200	-0.540	1.510
2020/01/31 12:50:48.5	110.820	0.210	-0.620	1.510
2020/01/31 12:50:48.6	110.810	0.220	-0.690	1.520
2020/01/31 12:50:48.7	110.800	0.220	-0.750	1.530
2020/01/31 12:50:48.8	110.790	0.230	-0.810	1.540
2020/01/31 12:50:48.9	110.780	0.230	-0.870	1.550
2020/01/31 12:50:49.0	110.760	0.240	-0.910	1.570
2020/01/31 12:50:49.1	110.750	0.240	-0.950	1.580
2020/01/31 12:50:49.2	110.730	0.240	-0.980	1.600
2020/01/31 12:50:49.3	110.720	0.230	-1.000	1.620
2020/01/31 12:50:49.4	110.700	0.220	-1.010	1.630
2020/01/31 12:50:49.5	110.680	0.210	-1.010	1.650
2020/01/31 12:50:49.6	110.660	0.200	-1.010	1.670
2020/01/31 12:50:49.7	110.640	0.190	-1.000	1.690
2020/01/31 12:50:49.8	110.630	0.170	-0.970	1.710
2020/01/31 12:50:49.9	110.610	0.150	-0.950	1.720
2020/01/31 12:50:50.0	110.590	0.120	-0.910	1.740
2020/01/31 12:50:50.1	110.580	0.100	-0.870	1.760
2020/01/31 12:50:50.2	110.560	0.070	-0.820	1.770
2020/01/31 12:50:50.3	110.550	0.040	-0.760	1.780
2020/01/31 12:50:50.4	110.530	0.000	-0.700	1.800
2020/01/31 12:50:50.5	110.500	-0.030	-0.640	1.810
2020/01/31 12:50:50.6	110.490	-0.070	-0.570	1.820
2020/01/31 12:50:50.7	110.480	-0.100	-0.500	1.820
2020/01/31 12:50:50.8	110.470	-0.140	-0.430	1.830
2020/01/31 12:50:50.9	110.460	-0.180	-0.360	1.830
2020/01/31 12:50:51.0	110.450	-0.220	-0.290	1.830
2020/01/31 12:50:51.1	110.440	-0.260	-0.220	1.830
2020/01/31 12:50:51.2	110.430	-0.290	-0.150	1.830
2020/01/31 12:50:51.3	110.430	-0.330	-0.080	1.830
2020/01/31 12:50:51.4	110.420	-0.360	-0.020	1.820
2020/01/31 12:50:51.5	110.410	-0.390	0.050	1.810
2020/01/31 12:50:51.6	110.410	-0.420	0.100	1.790
2020/01/31 12:50:51.7	110.410	-0.450	0.160	1.780
2020/01/31 12:50:51.8	110.410	-0.480	0.200	1.760
2020/01/31 12:50:51.9	110.420	-0.500	0.240	1.740
2020/01/31 12:50:52.0	110.420	-0.520	0.280	1.710
2020/01/31 12:50:52.1	110.430	-0.540	0.310	1.680
2020/01/31 12:50:52.2	110.440	-0.550	0.330	1.650
2020/01/31 12:50:52.3	110.450	-0.560	0.350	1.620
2020/01/31 12:50:52.4	110.460	-0.560	0.360	1.580
2020/01/31 12:50:52.5	110.490	-0.570	0.370	1.550
2020/01/31 12:50:52.6	110.510	-0.560	0.370	1.500
2020/01/31 12:50:52.7	110.530	-0.560	0.370	1.460
2020/01/31 12:50:52.8	110.550	-0.550	0.360	1.410
2020/01/31 12:50:52.9	110.580	-0.540	0.340	1.360
2020/01/31 12:50:53.0	110.600	-0.530	0.320	1.300
2020/01/31 12:50:53.1	110.630	-0.510	0.300	1.250
2020/01/31 12:50:53.2	110.660	-0.490	0.270	1.190
2020/01/31 12:50:53.3	110.690	-0.470	0.240	1.130
2020/01/31 12:50:53.4	110.720	-0.450	0.210	1.080
2020/01/31 12:50:53.5	110.750	-0.420	0.170	1.010
2020/01/31 12:50:53.6	110.780	-0.390	0.130	0.960
2020/01/31 12:50:53.7	110.810	-0.370	0.090	0.900
2020/01/31 12:50:53.8	110.840	-0.340	0.050	0.840
2020/01/31 12:50:53.9	110.880	-0.310	0.000	0.780
2020/01/31 12:50:54.0	110.910	-0.280	-0.040	0.720
2020/01/31 12:50:54.1	110.940	-0.240	-0.080	0.660
2020/01/31 12:50:54.2	110.970	-0.210	-0.120	0.610
2020/01/31 12:50:54.3	110.990	-0.180	-0.160	0.560
2020/01/31 12:50:54.4	111.020	-0.150	-0.200	0.510
2020/01/31 12:50:54.5	111.040	-0.120	-0.240	0.460
2020/01/31 12:50:54.6	111.060	-0.100	-0.270	0.410
2020/01/31 12:50:54.7	111.080	-0.070	-0.310	0.370
2020/01/31 12:50:54.8	111.100	-0.040	-0.340	0.340
2020/01/31 12:50:54.9	111.120	-0.020	-0.360	0.300
2020/01/31 12:50:55.0	111.140	0.000	-0.390	0.270
2020/01/31 12:50:55.1	111.160	0.020	-0.410	0.240
2020/01/31 12:50:55.2	111.170	0.040	-0.420	0.220
2020/01/31 12:50:55.3	111.190	0.060	-0.430	0.200
2020/01/31 12:50:55.4	111.200	0.070	-0.440	0.180
2020/01/31 12:50:55.5	111.220	0.080	-0.450	0.170
2020/01/31 12:50:55.6	111.220	0.090	-0.450	0.170
2020/01/31 12:50:55.7	111.230	0.100	-0.440	0.160
2020/01/31 12:50:55.8	111.240	0.100	-0.440	0.160
2020/01/31 12:50:55.9	111.240	0.100	-0.420	0.160
2020/01/31 12:50:56.0	111.250	0.100	-0.410	0.160
2020/01/31 12:50:56.1	111.250	0.100	-0.390	0.170
2020/01/31 12:50:56.2	111.250	0.090	-0.370	0.180
2020/01/31 12:50:56.3	111.250	0.090	-0.340	0.200
2020/01/31 12:50:56.4	111.250	0.080	-0.320	0.220
2020/01/31 12:50:56.5	111.250	0.070	-0.290	0.240
2020/01/31 12:50:56.6	111.240	0.060	-0.260	0.270
2020/01/31 12:50:56.7	111.240	0.050	-0.230	0.290
2020/01/31 12:50:56.8	111.230	0.030	-0.200	0.320
2020/01/31 12:50:56.9	111.220	0.020	-0.170	0.360
2020/01/31 12:50:57.0	111.220	0.010	-0.140	0.390
2020/01/31 12:50:57.1	111.210	-0.000	-0.110	0.430
2020/01/31 12:50:57.2	111.200	-0.020	-0.080	0.470
2020/01/31 12:50:57.3	111.190	-0.030	-0.060	0.510
2020/01/31 12:50:57.4	111.180	-0.040	-0.040	0.560
2020/01/31 12:50:57.5	111.130	-0.050	-0.020	0.600
2020/01/31 12:50:57.6	111.120	-0.050	-0.010	0.640
2020/01/31 12:50:57.7	111.100	-0.060	0.010	0.690
2020/01/31 12:50:57.8	111.090	-0.060	0.020	0.730
2020/01/31 12:50:57.9	111.080	-0.070	0.020	0.780
2020/01/31 12:50:58.0	111.060	-0.060	0.030	0.820
2020/01/31 12:50:58.1	111.050	-0.060	0.020	0.860
2020/01/31 12:50:58.2	111.040	-0.050	0.020	0.910
2020/01/31 12:50:58.3	111.020	-0.050	0.010	0.950
2020/01/31 12:50:58.4	111.010	-0.040	0.000	0.990
2020/01/31 12:50:58.5	111.000	-0.020	-0.010	1.020
2020/01/31 12:50:58.6	110.990	-0.010	-0.020	1.060
2020/01/31 12:50:58.7	110.980	0.010	-0.040	1.100
2020/01/31 12:50:58.8	110.970	0.030	-0.070	1.130
2020/01/31 12:50:58.9	110.960	0.060	-0.090	1.160
2020/01/31 12:50:59.0	110.950	0.080	-0.110	1.190
2020/01/31 12:50:59.1	110.940	0.110	-0.140	1.210
2020/01/31 12:50:59.2	110.930	0.130	-0.160	1.240
2020/01/31 12:50:59.3	110.930	0.160	-0.190	1.250
2020/01/31 12:50:59.4	110.920	0.190	-0.210	1.270
2020/01/31 12:50:59.5	110.930	0.220	-0.240	1.290
2020/01/31 12:50:59.6	110.940	0.240	-0.260	1.300
2020/01/31 12:50:59.7	110.940	0.270	-0.290	1.310
2020/01/31 12:50:59.8	110.950	0.300	-0.310	1.310
2020/01/31 12:50:59.9	110.950	0.330	-0.320	1.320
2020/01/31 12:51:00.0	110.960	0.350	-0.340	1.320
2020/01/31 12:51:00.1	110.980	0.370	-0.350	1.320
2020/01/31 12:51:00.2	110.990	0.400	-0.360	1.310
2020/01/31 12:51:00.3	111.010	0.410	-0.370	1.310
2020/01/31 12:51:00.4	111.020	0.430	-0.370	1.300
2020/01/31 12:51:00.5	111.030	0.450	-0.370	1.290
2020/01/31 12:51:00.6	111.050	0.460	-0.360	1.290
2020/01/31 12:51:00.7	111.070	0.470	-0.360	1.280
2020/01/31 12:51:00.8	111.100	0.480	-0.340	1.280
2020/01/31 12:51:00.9	111.120	0.480	-0.330	1.270
2020/01/31 12:51:01.0	111.140	0.480	-0.310	1.270
2020/01/31 12:51:01.1	111.170	0.480	-0.290	1.270
2020/01/31 12:51:01.2	111.190	0.480	-0.260	1.270
2020/01/31 12:51:01.3	111.210	0.470	-0.240	1.270
2020/01/31 12:51:01.4	111.240	0.460	-0.210	1.280
2020/01/31 12:51:01.5	111.260	0.450	-0.180	1.280
2020/01/31 12:51:01.6	111.280	0.430	-0.150	1.290
2020/01/31 12:51:01.7	111.300	0.420	-0.120	1.310
2020/01/31 12:51:01.8	111.320	0.400	-0.080	1.320
2020/01/31 12:51:01.9	111.340	0.380	-0.050	1.340
2020/01/31 12:51:02.0	111.350	0.360	-0.020	1.350
2020/01/31 12:51:02.1	111.370	0.330	0.010	1.370
2020/01/31 12:51:02.2	111.380	0.310	0.040	1.390
2020/01/31 12:51:02.3	111.390	0.280	0.070	1.420
2020/01/31 12:51:02.4	111.400	0.260	0.090	1.440
2020/01/31 12:51:02.5	111.410	0.230	0.110	1.470
2020/01/31 12:51:02.6	111.420	0.200	0.130	1.490
2020/01/31 12:51:02.7	111.420	0.180	0.150	1.520
2020/01/31 12:51:02.8	111.430	0.150	0.160	1.550
2020/01/31 12:51:02.9	111.430	0.120	0.170	1.570
2020/01/31 12:51:03.0	111.440	0.100	0.180	1.600
2020/01/31 12:51:03.1	111.440	0.070	0.180	1.620
2020/01/31 12:51:03.2	111.440	0.050	0.180	1.640
2020/01/31 12:51:03.3	111.440	0.030	0.170	1.670
2020/01/31 12:51:03.4	111.440	0.000	0.160	1.690
2020/01/31 12:51:03.5	111.440	-0.010	0.150	1.710
2020/01/31 12:51:03.6	111.440	-0.030	0.130	1.720
2020/01/31 12:51:03.7	111.440	-0.050	0.110	1.740
2020/01/31 12:51:03.8	111.440	-0.060	0.080	1.750
2020/01/31 12:51:03.9	111.440	-0.070	0.050	1.760
2020/01/31 12:51:04.0	111.440	-0.080	0.010	1.770
2020/01/31 12:51:04.1	111.430	-0.090	-0.030	1.780
2020/01/31 12:51:04.2	111.430	-0.090	-0.070	1.790
2020/01/31 12:51:04.3	111.430	-0.100	-0.120	1.800
2020/01/31 12:51:04.4	111.420	-0.100	-0.170	1.810
2020/01/31 12:51:04.5	111.410	-0.090	-0.220	1.820
2020/01/31 12:51:04.6	111.400	-0.090	-0.270	1.820
2020/01/31 12:51:04.7	111.390	-0.090	-0.320	1.830
2020/01/31 12:51:04.8	111.380	-0.080	-0.380	1.840
2020/01/31 12:51:04.9	111.370	-0.070	-0.430	1.850
2020/01/31 12:51:05.0	111.360	-0.060	-0.480	1.860
2020/01/31 12:51:05.1	111.350	-0.050	-0.530	1.870
2020/01/31 12:51:05.2	111.340	-0.040	-0.580	1.890
2020/01/31 12:51:05.3	111.330	-0.030	-0.630	1.900
2020/01/31 12:51:05.4	111.310	-0.020	-0.670	1.910
2020/01/31 12:51:05.5	111.290	-0.010	-0.700	1.930
2020/01/31 12:51:05.6	111.280	0.000	-0.740	1.940
2020/01/31 12:51:05.7	111.270	0.010	-0.760	1.960
2020/01/31 12:51:05.8	111.260	0.020	-0.790	1.970
2020/01/31 12:51:05.9	111.240	0.030	-0.800	1.990
2020/01/31 12:51:06.0	111.230	0.040	-0.810	2.010
2020/01/31 12:51:06.1	111.220	0.040	-0.810	2.020
2020/01/31 12:51:06.2	111.210	0.040	-0.810	2.040
2020/01/31 12:51:06.3	111.210	0.040	-0.790	2.050
2020/01/31 12:51:06.4	111.200	0.040	-0.770	2.070
2020/01/31 12:51:06.5	111.190	0.040	-0.750	2.090
2020/01/31 12:51:06.6	111.180	0.030	-0.710	2.100
2020/01/31 12:51:06.7	111.180	0.020	-0.670	2.110
2020/01/31 12:51:06.8	111.180	0.010	-0.620	2.120
2020/01/31 12:51:06.9	111.180	-0.010	-0.560	2.130
2020/01/31 12:51:07.0	111.180	-0.030	-0.500	2.140
2020/01/31 12:51:07.1	111.180	-0.050	-0.430	2.150
2020/01/31 12:51:07.2	111.180	-0.070	-0.360	2.150
2020/01/31 12:51:07.3	111.190	-0.090	-0.280	2.150
2020/01/31 12:51:07.4	111.190	-0.120	-0.200	2.140
2020/01/31 12:51:07.5	111.200	-0.150	-0.120	2.140
2020/01/31 12:51:07.6	111.210	-0.180	-0.030	2.130
2020/01/31 12:51:07.7	111.220	-0.210	0.050	2.120
2020/01/31 12:51:07.8	111.230	-0.240	0.140	2.100
2020/01/31 12:51:07.9	111.240	-0.270	0.220	2.080
2020/01/31 12:51:08.0	111.260	-0.300	0.310	2.050
2020/01/31 12:51:08.1	111.270	-0.330	0.390	2.020
2020/01/31 12:51:08.2	111.290	-0.370	0.460	1.990
2020/01/31 12:51:08.3	111.310	-0.400	0.540	1.950
2020/01/31 12:51:08.4	111.320	-0.430	0.600	1.910
2020/01/31 12:51:08.5	111.360	-0.450	0.670	1.860
2020/01/31 12:51:08.6	111.380	-0.480	0.720	1.810
2020/01/31 12:51:08.7	111.400	-0.500	0.770	1.760
2020/01/31 12:51:08.8	111.420	-0.520	0.810	1.700
2020/01/31 12:51:08.9	111.440	-0.540	0.840	1.640
2020/01/31 12:51:09.0	111.460	-0.560	0.860	1.580
2020/01/31 12:51:09.1	111.480	-0.570	0.880	1.510
2020/01/31 12:51:09.2	111.500	-0.580	0.880	1.450
2020/01/31 12:51:09.3	111.520	-0.580	0.880	1.380
2020/01/31 12:51:09.4	111.540	-0.580	0.870	1.310
2020/01/31 12:51:09.5	111.550	-0.580	0.840	1.240
2020/01/31 12:51:09.6	111.570	-0.570	0.810	1.170
2020/01/31 12:51:09.7	111.580	-0.560	0.770	1.100
2020/01/31 12:51:09.8	111.600	-0.550	0.720	1.030
2020/01/31 12:51:09.9	111.610	-0.530	0.660	0.960
2020/01/31 12:51:10.0	111.620	-0.500	0.590	0.890
2020/01/31 12:51:10.1	111.630	-0.480	0.520	0.830
2020/01/31 12:51:10.2	111.640	-0.450	0.440	0.760
2020/01/31 12:51:10.3	111.640	-0.410	0.350	0.690
2020/01/31 12:51:10.4	111.650	-0.370	0.250	0.630
2020/01/31 12:51:10.5	111.640	-0.330	0.150	0.560
2020/01/31 12:51:10.6	111.640	-0.290	0.050	0.500
2020/01/31 12:51:10.7	111.640	-0.240	-0.060	0.440
2020/01/31 12:51:10.8	111.640	-0.190	-0.170	0.390
2020/01/31 12:51:10.9	111.630	-0.140	-0.280	0.330
2020/01/31 12:51:11.0	111.630	-0.090	-0.400	0.280
2020/01/31 12:51:11.1	111.630	-0.030	-0.510	0.230
2020/01/31 12:51:11.2	111.620	0.020	-0.620	0.180
2020/01/31 12:51:11.3	111.610	0.070	-0.730	0.130
2020/01/31 12:51:11.4	111.610	0.130	-0.840	0.090
2020/01/31 12:51:11.5	111.610	0.180	-0.940	0.050
2020/01/31 12:51:11.6	111.600	0.230	-1.040	0.020
2020/01/31 12:51:11.7	111.590	0.280	-1.130	-0.010
2020/01/31 12:51:11.8	111.580	0.330	-1.210	-0.040
2020/01/31 12:51:11.9	111.570	0.370	-1.290	-0.060
2020/01/31 12:51:12.0	111.560	0.410	-1.350	-0.080
2020/01/31 12:51:12.1	111.550	0.450	-1.410	-0.090
2020/01/31 12:51:12.2	111.530	0.480	-1.460	-0.100
2020/01/31 12:51:12.3	111.520	0.510	-1.500	-0.100
2020/01/31 12:51:12.4	111.510	0.540	-1.520	-0.100
2020/01/31 12:51:12.5	111.490	0.560	-1.540	-0.090
2020/01/31 12:51:12.6	111.480	0.570	-1.540	-0.080
2020/01/31 12:51:12.7	111.470	0.580	-1.540	-0.060
2020/01/31 12:51:12.8	111.460	0.590	-1.520	-0.040
2020/01/31 12:51:12.9	111.440	0.590	-1.480	-0.010
2020/01/31 12:51:13.0	111.430	0.580	-1.440	0.020
2020/01/31 12:51:13.1	111.420	0.570	-1.390	0.050
2020/01/31 12:51:13.2	111.410	0.550	-1.320	0.080
2020/01/31 12:51:13.3	111.410	0.530	-1.250	0.120
2020/01/31 12:51:13.4	111.400	0.510	-1.160	0.160
2020/01/31 12:51:13.5	111.400	0.480	-1.070	0.210
2020/01/31 12:51:13.6	111.390	0.440	-0.970	0.250
2020/01/31 12:51:13.7	111.390	0.400	-0.860	0.300
2020/01/31 12:51:13.8	111.380	0.360	-0.740	0.350
2020/01/31 12:51:13.9	111.370	0.320	-0.620	0.390
2020/01/31 12:51:14.0	111.370	0.270	-0.500	0.440
2020/01/31 12:51:14.1	111.370	0.220	-0.370	0.490
2020/01/31 12:51:14.2	111.360	0.170	-0.250	0.540
2020/01/31 12:51:14.3	111.360	0.120	-0.120	0.580
2020/01/31 12:51:14.4	111.350	0.070	0.010	0.630
2020/01/31 12:51:14.5	111.350	0.020	0.140	0.680
2020/01/31 12:51:14.6	111.340	-0.030	0.270	0.730
2020/01/31 12:51:14.7	111.340	-0.080	0.390	0.770
2020/01/31 12:51:14.8	111.330	-0.130	0.510	0.810
2020/01/31 12:51:14.9	111.330	-0.180	0.620	0.850
2020/01/31 12:51:15.0	111.330	-0.230	0.720	0.890
2020/01/31 12:51:15.1	111.320	-0.270	0.820	0.930
2020/01/31 12:51:15.2	111.320	-0.310	0.910	0.960
2020/01/31 12:51:15.3	111.310	-0.340	0.990	1.000
2020/01/31 12:51:15.4	111.310	-0.380	1.070	1.030
2020/01/31 12:51:15.5	111.300	-0.400	1.130	1.060
2020/01/31 12:51:15.6	111.290	-0.430	1.180	1.090
2020/01/31 12:51:15.7	111.290	-0.450	1.230	1.120
2020/01/31 12:51:15.8	111.290	-0.460	1.260	1.140
2020/01/31 12:51:15.9	111.280	-0.470	1.280	1.170
2020/01/31 12:51:16.0	111.280	-0.480	1.290	1.190
2020/01/31 12:51:16.1	111.280	-0.480	1.300	1.210
2020/01/31 12:51:16.2	111.280	-0.480	1.290	1.220
2020/01/31 12:51:16.3	111.280	-0.470	1.270	1.240
2020/01/31 12:51:16.4	111.280	-0.460	1.250	1.260
2020/01/31 12:51:16.5	111.280	-0.450	1.210	1.270
2020/01/31 12:51:16.6	111.290	-0.430	1.170	1.280
2020/01/31 12:51:16.7	111.290	-0.400	1.120	1.290
2020/01/31 12:51:16.8	111.300	-0.370	1.060	1.300
2020/01/31 12:51:16.9	111.310	-0.340	0.990	1.310
2020/01/31 12:51:17.0	111.320	-0.310	0.920	1.320
2020/01/31 12:51:17.1	111.340	-0.270	0.840	1.330
2020/01/31 12:51:17.2	111.350	-0.230	0.760	1.340
2020/01/31 12:51:17.3	111.360	-0.190	0.670	1.340
2020/01/31 12:51:17.4	111.380	-0.140	0.570	1.350
2020/01/31 12:51:17.5	111.410	-0.100	0.470	1.350
2020/01/31 12:51:17.6	111.430	-0.050	0.370	1.360
2020/01/31 12:51:17.7	111.450	-0.000	0.270	1.370
2020/01/31 12:51:17.8	111.470	0.050	0.160	1.370
2020/01/31 12:51:17.9	111.480	0.100	0.060	1.380
2020/01/31 12:51:18.0	111.500	0.150	-0.050	1.390
2020/01/31 12:51:18.1	111.520	0.200	-0.170	1.400
2020/01/31 12:51:18.2	111.540	0.250	-0.280	1.410
2020/01/31 12:51:18.3	111.550	0.290	-0.390	1.420
2020/01/31 12:51:18.4	111.560	0.340	-0.490	1.440
2020/01/31 12:51:18.5	111.570	0.390	-0.600	1.450
2020/01/31 12:51:18.6	111.580	0.430	-0.710	1.470
2020/01/31 12:51:18.7	111.590	0.470	-0.810	1.490
2020/01/31 12:51:18.8	111.600	0.510	-0.910	1.500
2020/01/31 12:51:18.9	111.600	0.550	-1.000	1.530
2020/01/31 12:51:19.0	111.610	0.580	-1.090	1.550
2020/01/31 12:51:19.1	111.610	0.620	-1.170	1.570
2020/01/31 12:51:19.2	111.610	0.640	-1.250	1.600
2020/01/31 12:51:19.3	111.610	0.670	-1.320	1.620
2020/01/31 12:51:19.4	111.610	0.690	-1.380	1.650
2020/01/31 12:51:19.5	111.600	0.710	-1.440	1.670
2020/01/31 12:51:19.6	111.600	0.720	-1.480	1.700
2020/01/31 12:51:19.7	111.590	0.730	-1.510	1.730
2020/01/31 12:51:19.8	111.590	0.740	-1.540	1.760
2020/01/31 12:51:19.9	111.580	0.740	-1.560	1.790
2020/01/31 12:51:20.0	111.570	0.740	-1.560	1.810
2020/01/31 12:51:20.1	111.570	0.730	-1.560	1.840
2020/01/31 12:51:20.2	111.560	0.720	-1.550	1.870
2020/01/31 12:51:20.3	111.550	0.700	-1.520	1.890
2020/01/31 12:51:20.4	111.540	0.680	-1.490	1.920
2020/01/31 12:51:20.5	111.540	0.660	-1.440	1.950
2020/01/31 12:51:20.6	111.530	0.630	-1.390	1.970
2020/01/31 12:51:20.7	111.520	0.600	-1.340	2.000
2020/01/31 12:51:20.8	111.510	0.570	-1.270	2.020
2020/01/31 12:51:20.9	111.510	0.530	-1.190	2.040
2020/01/31 12:51:21.0	111.500	0.490	-1.110	2.050
2020/01/31 12:51:21.1	111.490	0.440	-1.030	2.070
2020/01/31 12:51:21.2	111.480	0.390	-0.930	2.080
2020/01/31 12:51:21.3	111.470	0.340	-0.840	2.100
2020/01/31 12:51:21.4	111.460	0.290	-0.740	2.110
2020/01/31 12:51:21.5	111.440	0.240	-0.630	2.110
2020/01/31 12:51:21.6	111.430	0.180	-0.530	2.120
2020/01/31 12:51:21.7	111.420	0.130	-0.420	2.120
2020/01/31 12:51:21.8	111.410	0.070	-0.310	2.130
2020/01/31 12:51:21.9	111.400	0.010	-0.200	2.130
2020/01/31 12:51:22.0	111.390	-0.050	-0.100	2.130
2020/01/31 12:51:22.1	111.370	-0.100	0.010	2.120
2020/01/31 12:51:22.2	111.360	-0.160	0.110	2.120
2020/01/31 12:51:22.3	111.350	-0.220	0.210	2.110
2020/01/31 12:51:22.4	111.340	-0.270	0.310	2.100
2020/01/31 12:51:22.5	111.330	-0.330	0.400	2.100
2020/01/31 12:51:22.6	111.320	-0.380	0.490	2.080
2020/01/31 12:51:22.7	111.310	-0.430	0.570	2.070
2020/01/31 12:51:22.8	111.300	-0.480	0.650	2.050
2020/01/31 12:51:22.9	111.280	-0.520	0.710	2.030
2020/01/31 12:51:23.0	111.270	-0.570	0.770	2.010
2020/01/31 12:51:23.1	111.260	-0.610	0.830	1.990
2020/01/31 12:51:23.2	111.250	-0.640	0.870	1.970
2020/01/31 12:51:23.3	111.240	-0.670	0.910	1.940
2020/01/31 12:51:23.4	111.230	-0.700	0.930	1.910
2020/01/31 12:51:23.5	111.230	-0.730	0.950	1.890
2020/01/31 12:51:23.6	111.220	-0.750	0.960	1.850
2020/01/31 12:51:23.7	111.210	-0.760	0.960	1.820
2020/01/31 12:51:23.8	111.200	-0.770	0.960	1.790
2020/01/31 12:51:23.9	111.190	-0.780	0.940	1.750
2020/01/31 12:51:24.0	111.190	-0.780	0.920	1.720
2020/01/31 12:51:24.1	111.180	-0.780	0.890	1.680
2020/01/31 12:51:24.2	111.170	-0.770	0.860	1.640
2020/01/31 12:51:24.3	111.170	-0.760	0.810	1.590
2020/01/31 12:51:24.4	111.170	-0.750	0.760	1.550
2020/01/31 12:51:24.5	111.160	-0.730	0.710	1.500
2020/01/31 12:51:24.6	111.170	-0.710	0.650	1.450
2020/01/31 12:51:24.7	111.170	-0.690	0.590	1.400
2020/01/31 12:51:24.8	111.170	-0.660	0.520	1.350
2020/01/31 12:51:24.9	111.170	-0.630	0.460	1.290
2020/01/31 12:51:25.0	111.180	-0.600	0.390	1.240
2020/01/31 12:51:25.1	111.190	-0.570	0.320	1.180
2020/01/31 12:51:25.2	111.190	-0.530	0.240	1.120
2020/01/31 12:51:25.3	111.200	-0.500	0.170	1.060
2020/01/31 12:51:25.4	111.210	-0.460	0.100	0.990
2020/01/31 12:51:25.5	111.230	-0.420	0.030	0.930
2020/01/31 12:51:25.6	111.240	-0.380	-0.040	0.870
2020/01/31 12:51:25.7	111.250	-0.350	-0.110	0.800
2020/01/31 12:51:25.8	111.260	-0.310	-0.170	0.740
2020/01/31 12:51:25.9	111.270	-0.270	-0.240	0.680
2020/01/31 12:51:26.0	111.280	-0.230	-0.290	0.620
2020/01/31 12:51:26.1	111.290	-0.190	-0.350	0.560
2020/01/31 12:51:26.2	111.300	-0.160	-0.400	0.500
2020/01/31 12:51:26.3	111.310	-0.120	-0.450	0.440
2020/01/31 12:51:26.4	111.320	-0.090	-0.490	0.380
2020/01/31 12:51:26.5	111.340	-0.050	-0.530	0.330
2020/01/31 12:51:26.6	111.350	-0.020	-0.570	0.280
2020/01/31 12:51:26.7	111.350	0.010	-0.600	0.230
2020/01/31 12:51:26.8	111.360	0.040	-0.630	0.180
2020/01/31 12:51:26.9	111.370	0.060	-0.650	0.140
2020/01/31 12:51:27.0	111.370	0.090	-0.670	0.100
2020/01/31 12:51:27.1	111.380	0.110	-0.680	0.060
2020/01/31 12:51:27.2	111.380	0.130	-0.690	0.020
2020/01/31 12:51:27.3	111.380	0.150	-0.700	-0.010
2020/01/31 12:51:27.4	111.390	0.170	-0.700	-0.040
2020/01/31 12:51:27.5	111.380	0.190	-0.710	-0.070
2020/01/31 12:51:27.6	111.390	0.210	-0.700	-0.100
2020/01/31 12:51:27.7	111.390	0.220	-0.700	-0.120
2020/01/31 12:51:27.8	111.390	0.230	-0.690	-0.140
2020/01/31 12:51:27.9	111.390	0.240	-0.670	-0.160
2020/01/31 12:51:28.0	111.400	0.250	-0.660	-0.180
2020/01/31 12:51:28.1	111.400	0.260	-0.640	-0.190
2020/01/31 12:51:28.2	111.400	0.260	-0.620	-0.200
2020/01/31 12:51:28.3	111.410	0.270	-0.600	-0.200
2020/01/31 12:51:28.4	111.410	0.270	-0.580	-0.210
2020/01/31 12:51:28.5	111.410	0.270	-0.550	-0.200
2020/01/31 12:51:28.6	111.420	0.280	-0.530	-0.200
2020/01/31 12:51:28.7	111.420	0.280	-0.500	-0.200
2020/01/31 12:51:28.8	111.420	0.270	-0.470	-0.190
2020/01/31 12:51:28.9	111.430	0.270	-0.450	-0.170
2020/01/31 12:51:29.0	111.430	0.270	-0.420	-0.160
2020/01/31 12:51:29.1	111.440	0.270	-0.390	-0.140
2020/01/31 12:51:29.2	111.440	0.260	-0.360	-0.120
2020/01/31 12:51:29.3	111.450	0.260	-0.330	-0.100
2020/01/31 12:51:29.4	111.450	0.250	-0.300	-0.070
2020/01/31 12:51:29.5	111.450	0.250	-0.270	-0.040
2020/01/31 12:51:29.6	111.460	0.240	-0.240	-0.010
2020/01/31 12:51:29.7	111.460	0.230	-0.220	0.020
2020/01/31 12:51:29.8	111.460	0.230	-0.190	0.060
2020/01/31 12:51:29.9	111.460	0.220	-0.160	0.090
2020/01/31 12:51:30.0	111.470	0.220	-0.140	0.130
2020/01/31 12:51:30.1	111.470	0.210	-0.110	0.170
2020/01/31 12:51:30.2	111.470	0.200	-0.090	0.210
2020/01/31 12:51:30.3	111.470	0.200	-0.070	0.260
2020/01/31 12:51:30.4	111.470	0.190	-0.040	0.300
2020/01/31 12:51:30.5	111.470	0.180	-0.020	0.350
2020/01/31 12:51:30.6	111.470	0.180	-0.010	0.400
2020/01/31 12:51:30.7	111.470	0.170	0.010	0.450
2020/01/31 12:51:30.8	111.470	0.170	0.020	0.500
2020/01/31 12:51:30.9	111.460	0.170	0.040	0.550
2020/01/31 12:51:31.0	111.460	0.160	0.050	0.600
2020/01/31 12:51:31.1	111.460	0.160	0.060	0.650
2020/01/31 12:51:31.2	111.450	0.150	0.060	0.710
2020/01/31 12:51:31.3	111.450	0.150	0.070	0.760
2020/01/31 12:51:31.4	111.440	0.150	0.070	0.810
2020/01/31 12:51:31.5	111.440	0.150	0.070	0.870
2020/01/31 12:51:31.6	111.440	0.150	0.070	0.920
2020/01/31 12:51:31.7	111.430	0.150	0.070	0.980
2020/01/31 12:51:31.8	111.420	0.150	0.060	1.030
2020/01/31 12:51:31.9	111.420	0.150	0.060	1.080
2020/01/31 12:51:32.0	111.420	0.150	0.050	1.130
2020/01/31 12:51:32.1	111.410	0.150	0.040	1.180
2020/01/31 12:51:32.2	111.410	0.150	0.030	1.230
2020/01/31 12:51:32.3	111.400	0.150	0.010	1.280
2020/01/31 12:51:32.4	111.400	0.150	-0.000	1.330
2020/01/31 12:51:32.5	111.390	0.150	-0.020	1.370
2020/01/31 12:51:32.6	111.390	0.150	-0.030	1.420
2020/01/31 12:51:32.7	111.390	0.150	-0.050	1.460
2020/01/31 12:51:32.8	111.390	0.150	-0.070	1.510
2020/01/31 12:51:32.9	111.390	0.160	-0.090	1.550
2020/01/31 12:51:33.0	111.380	0.160	-0.110	1.590
2020/01/31 12:51:33.1	111.380	0.160	-0.120	1.640
2020/01/31 12:51:33.2	111.380	0.160	-0.140	1.680
2020/01/31 12:51:33.3	111.380	0.160	-0.160	1.720
2020/01/31 12:51:33.4	111.380	0.160	-0.180	1.770
2020/01/31 12:51:33.5	111.360	0.150	-0.200	1.810
2020/01/31 12:51:33.6	111.350	0.150	-0.220	1.850
2020/01/31 12:51:33.7	111.350	0.150	-0.240	1.900
2020/01/31 12:51:33.8	111.340	0.150	-0.250	1.940
2020/01/31 12:51:33.9	111.340	0.140	-0.270	1.980
2020/01/31 12:51:34.0	111.330	0.140	-0.280	2.030
2020/01/31 12:51:34.1	111.320	0.140	-0.290	2.070
2020/01/31 12:51:34.2	111.310	0.130	-0.300	2.120
2020/01/31 12:51:34.3	111.300	0.120	-0.310	2.160
2020/01/31 12:51:34.4	111.290	0.120	-0.320	2.200
2020/01/31 12:51:34.5	111.270	0.110	-0.320	2.250
2020/01/31 12:51:34.6	111.260	0.100	-0.330	2.290
2020/01/31 12:51:34.7	111.250	0.100	-0.330	2.320
2020/01/31 12:51:34.8	111.230	0.090	-0.330	2.360
2020/01/31 12:51:34.9	111.220	0.080	-0.320	2.390
2020/01/31 12:51:35.0	111.210	0.070	-0.320	2.420
2020/01/31 12:51:35.1	111.200	0.050	-0.310	2.450
2020/01/31 12:51:35.2	111.190	0.040	-0.300	2.470
2020/01/31 12:51:35.3	111.180	0.030	-0.280	2.490
2020/01/31 12:51:35.4	111.180	0.020	-0.270	2.510
2020/01/31 12:51:35.5	111.180	0.000	-0.240	2.520
2020/01/31 12:51:35.6	111.180	-0.010	-0.220	2.520
2020/01/31 12:51:35.7	111.170	-0.030	-0.200	2.530
2020/01/31 12:51:35.8	111.180	-0.040	-0.180	2.520
2020/01/31 12:51:35.9	111.180	-0.060	-0.160	2.520
2020/01/31 12:51:36.0	111.180	-0.070	-0.130	2.510
2020/01/31 12:51:36.1	111.180	-0.090	-0.100	2.490
2020/01/31 12:51:36.2	111.190	-0.100	-0.080	2.470
2020/01/31 12:51:36.3	111.200	-0.120	-0.050	2.450
2020/01/31 12:51:36.4	111.210	-0.140	-0.030	2.430
2020/01/31 12:51:36.5	111.220	-0.150	-0.010	2.400
2020/01/31 12:51:36.6	111.230	-0.160	0.020	2.360
2020/01/31 12:51:36.7	111.240	-0.180	0.040	2.330
2020/01/31 12:51:36.8	111.250	-0.190	0.060	2.290
2020/01/31 12:51:36.9	111.260	-0.200	0.070	2.250
2020/01/31 12:51:37.0	111.270	-0.210	0.090	2.210
2020/01/31 12:51:37.1	111.280	-0.220	0.100	2.170
2020/01/31 12:51:37.2	111.290	-0.220	0.110	2.120
2020/01/31 12:51:37.3	111.300	-0.230	0.110	2.080
2020/01/31 12:51:37.4	111.310	-0.230	0.110	2.030
2020/01/31 12:51:37.5	111.330	-0.230	0.110	1.980
2020/01/31 12:51:37.6	111.330	-0.230	0.100	1.920
2020/01/31 12:51:37.7	111.340	-0.230	0.090	1.870
2020/01/31 12:51:37.8	111.350	-0.230	0.080	1.810
2020/01/31 12:51:37.9	111.360	-0.220	0.060	1.760
2020/01/31 12:51:38.0	111.360	-0.210	0.040	1.700
2020/01/31 12:51:38.1	111.370	-0.200	0.010	1.640
2020/01/31 12:51:38.2	111.370	-0.190	-0.020	1.580
2020/01/31 12:51:38.3	111.380	-0.170	-0.050	1.510
2020/01/31 12:51:38.4	111.390	-0.160	-0.080	1.450
2020/01/31 12:51:38.5	111.400	-0.140	-0.120	1.390
2020/01/31 12:51:38.6	111.410	-0.120	-0.150	1.320
2020/01/31 12:51:38.7	111.410	-0.100	-0.190	1.260
2020/01/31 12:51:38.8	111.410	-0.080	-0.230	1.200
2020/01/31 12:51:38.9	111.420	-0.060	-0.260	1.130
2020/01/31 12:51:39.0	111.420	-0.040	-0.300	1.070
2020/01/31 12:51:39.1	111.430	-0.020	-0.330	1.010
2020/01/31 12:51:39.2	111.430	-0.000	-0.360	0.950
2020/01/31 12:51:39.3	111.440	0.020	-0.390	0.890
2020/01/31 12:51:39.4	111.440	0.040	-0.420	0.830
2020/01/31 12:51:39.5	111.450	0.060	-0.440	0.770
2020/01/31 12:51:39.6	111.450	0.070	-0.460	0.710
2020/01/31 12:51:39.7	111.460	0.090	-0.470	0.660
2020/01/31 12:51:39.8	111.470	0.110	-0.480	0.610
2020/01/31 12:51:39.9	111.470	0.120	-0.490	0.560
2020/01/31 12:51:40.0	111.480	0.130	-0.490	0.520
2020/01/31 12:51:40.1	111.480	0.140	-0.490	0.470
2020/01/31 12:51:40.2	111.490	0.150	-0.480	0.430
2020/01/31 12:51:40.3	111.490	0.160	-0.470	0.390
2020/01/31 12:51:40.4	111.500	0.160	-0.460	0.360
2020/01/31 12:51:40.5	111.510	0.160	-0.440	0.330
2020/01/31 12:51:40.6	111.520	0.160	-0.420	0.300
2020/01/31 12:51:40.7	111.520	0.160	-0.390	0.270
2020/01/31 12:51:40.8	111.520	0.150	-0.360	0.240
2020/01/31 12:51:40.9	111.520	0.150	-0.330	0.220
2020/01/31 12:51:41.0	111.520	0.140	-0.300	0.200
2020/01/31 12:51:41.1	111.520	0.130	-0.270	0.180
2020/01/31 12:51:41.2	111.520	0.120	-0.230	0.160
2020/01/31 12:51:41.3	111.510	0.110	-0.190	0.140
2020/01/31 12:51:41.4	111.510	0.090	-0.160	0.130
2020/01/31 12:51:41.5	111.500	0.080	-0.120	0.120
2020/01/31 12:51:41.6	111.500	0.060	-0.080	0.100
2020/01/31 12:51:41.7	111.490	0.050	-0.040	0.090
2020/01/31 12:51:41.8	111.490	0.030	-0.010	0.080
2020/01/31 12:51:41.9	111.480	0.010	0.030	0.070
2020/01/31 12:51:42.0	111.480	-0.000	0.060	0.060
2020/01/31 12:51:42.1	111.470	-0.020	0.090	0.050
2020/01/31 12:51:42.2	111.470	-0.040	0.120	0.040
2020/01/31 12:51:42.3	111.460	-0.060	0.150	0.030
2020/01/31 12:51:42.4	111.460	-0.070	0.170	0.020
2020/01/31 12:51:42.5	111.460	-0.090	0.190	0.020
2020/01/31 12:51:42.6	111.460	-0.100	0.210	0.010
2020/01/31 12:51:42.7	111.450	-0.120	0.220	0.010
2020/01/31 12:51:42.8	111.450	-0.130	0.230	0.010
2020/01/31 12:51:42.9	111.450	-0.150	0.240	0.010
2020/01/31 12:51:43.0	111.450	-0.160	0.240	0.010
2020/01/31 12:51:43.1	111.450	-0.170	0.240	0.010
2020/01/31 12:51:43.2	111.450	-0.180	0.240	0.020
2020/01/31 12:51:43.3	111.450	-0.190	0.230	0.020
2020/01/31 12:51:43.4	111.450	-0.190	0.220	0.030
2020/01/31 12:51:43.5	111.450	-0.200	0.210	0.040
2020/01/31 12:51:43.6	111.450	-0.200	0.200	0.060
2020/01/31 12:51:43.7	111.460	-0.210	0.180	0.070
2020/01/31 12:51:43.8	111.460	-0.210	0.160	0.090
2020/01/31 12:51:43.9	111.470	-0.210	0.140	0.120
2020/01/31 12:51:44.0	111.470	-0.210	0.120	0.140
2020/01/31 12:51:44.1	111.470	-0.210	0.100	0.170
2020/01/31 12:51:44.2	111.480	-0.210	0.080	0.200
2020/01/31 12:51:44.3	111.480	-0.210	0.050	0.230
2020/01/31 12:51:44.4	111.490	-0.210	0.020	0.270
2020/01/31 12:51:44.5	111.470	-0.200	-0.010	0.310
2020/01/31 12:51:44.6	111.480	-0.200	-0.030	0.350
2020/01/31 12:51:44.7	111.480	-0.190	-0.060	0.390
2020/01/31 12:51:44.8	111.480	-0.180	-0.100	0.440
2020/01/31 12:51:44.9	111.480	-0.170	-0.130	0.490
2020/01/31 12:51:45.0	111.480	-0.160	-0.160	0.540
2020/01/31 12:51:45.1	111.480	-0.150	-0.190	0.590
2020/01/31 12:51:45.2	111.480	-0.140	-0.220	0.640
2020/01/31 12:51:45.3	111.480	-0.130	-0.260	0.690
2020/01/31 12:51:45.4	111.470	-0.120	-0.290	0.750
2020/01/31 12:51:45.5	111.470	-0.100	-0.320	0.800
2020/01/31 12:51:45.6	111.470	-0.090	-0.350	0.860
2020/01/31 12:51:45.7	111.460	-0.080	-0.390	0.910
2020/01/31 12:51:45.8	111.460	-0.060	-0.420	0.970
2020/01/31 12:51:45.9	111.460	-0.050	-0.450	1.020
2020/01/31 12:51:46.0	111.460	-0.030	-0.480	1.080
2020/01/31 12:51:46.1	111.450	-0.010	-0.520	1.130
2020/01/31 12:51:46.2	111.450	0.000	-0.550	1.190
2020/01/31 12:51:46.3	111.450	0.020	-0.580	1.250
2020/01/31 12:51:46.4	111.450	0.040	-0.610	1.300
2020/01/31 12:51:46.5	111.440	0.050	-0.640	1.360
2020/01/31 12:51:46.6	111.440	0.070	-0.660	1.420
2020/01/31 12:51:46.7	111.430	0.090	-0.690	1.470
2020/01/31 12:51:46.8	111.430	0.110	-0.710	1.530
2020/01/31 12:51:46.9	111.420	0.120	-0.730	1.590
2020/01/31 12:51:47.0	111.410	0.140	-0.750	1.640
2020/01/31 12:51:47.1	111.410	0.150	-0.770	1.700
2020/01/31 12:51:47.2	111.400	0.170	-0.780	1.750
2020/01/31 12:51:47.3	111.390	0.190	-0.790	1.810
2020/01/31 12:51:47.4	111.380	0.200	-0.790	1.860
2020/01/31 12:51:47.5	111.360	0.210	-0.790	1.920
2020/01/31 12:51:47.6	111.350	0.230	-0.790	1.970
2020/01/31 12:51:47.7	111.330	0.240	-0.780	2.020
2020/01/31 12:51:47.8	111.320	0.250	-0.770	2.070
2020/01/31 12:51:47.9	111.310	0.260	-0.750	2.110
2020/01/31 12:51:48.0	111.290	0.270	-0.730	2.160
2020/01/31 12:51:48.1	111.270	0.270	-0.710	2.200
2020/01/31 12:51:48.2	111.260	0.280	-0.680	2.240
2020/01/31 12:51:48.3	111.240	0.280	-0.650	2.280
2020/01/31 12:51:48.4	111.230	0.280	-0.610	2.310
2020/01/31 12:51:48.5	111.220	0.290	-0.570	2.340
2020/01/31 12:51:48.6	111.210	0.280	-0.520	2.370
2020/01/31 12:51:48.7	111.200	0.280	-0.480	2.390
2020/01/31 12:51:48.8	111.180	0.280	-0.430	2.410
2020/01/31 12:51:48.9	111.170	0.270	-0.380	2.420
2020/01/31 12:51:49.0	111.160	0.270	-0.320	2.420
2020/01/31 12:51:49.1	111.150	0.260	-0.270	2.430
2020/01/31 12:51:49.2	111.150	0.250	-0.210	2.420
2020/01/31 12:51:49.3	111.140	0.240	-0.150	2.420
2020/01/31 12:51:49.4	111.140	0.220	-0.090	2.400
2020/01/31 12:51:49.5	111.140	0.210	-0.030	2.380
2020/01/31 12:51:49.6	111.150	0.200	0.030	2.360
2020/01/31 12:51:49.7	111.150	0.180	0.090	2.330
2020/01/31 12:51:49.8	111.160	0.160	0.150	2.290
2020/01/31 12:51:49.9	111.170	0.140	0.200	2.250
2020/01/31 12:51:50.0	111.180	0.130	0.260	2.210
2020/01/31 12:51:50.1	111.190	0.110	0.310	2.160
2020/01/31 12:51:50.2	111.210	0.090	0.360	2.100
2020/01/31 12:51:50.3	111.230	0.070	0.410	2.040
2020/01/31 12:51:50.4	111.250	0.050	0.460	1.980
2020/01/31 12:51:50.5	111.270	0.030	0.500	1.910
2020/01/31 12:51:50.6	111.300	0.010	0.540	1.840
2020/01/31 12:51:50.7	111.320	-0.010	0.580	1.770
2020/01/31 12:51:50.8	111.350	-0.030	0.620	1.690
2020/01/31 12:51:50.9	111.380	-0.050	0.650	1.610
2020/01/31 12:51:51.0	111.410	-0.070	0.670	1.530
2020/01/31 12:51:51.1	111.440	-0.090	0.690	1.450
2020/01/31 12:51:51.2	111.470	-0.100	0.710	1.370
2020/01/31 12:51:51.3	111.500	-0.120	0.720	1.290
2020/01/31 12:51:51.4	111.530	-0.140	0.730	1.210
2020/01/31 12:51:51.5	111.550	-0.150	0.730	1.130
2020/01/31 12:51:51.6	111.580	-0.160	0.730	1.060
2020/01/31 12:51:51.7	111.610	-0.170	0.720	0.980
2020/01/31 12:51:51.8	111.630	-0.180	0.710	0.910
2020/01/31 12:51:51.9	111.650	-0.190	0.690	0.840
2020/01/31 12:51:52.0	111.670	-0.200	0.670	0.780
2020/01/31 12:51:52.1	111.690	-0.200	0.640	0.720
2020/01/31 12:51:52.2	111.700	-0.210	0.610	0.660
2020/01/31 12:51:52.3	111.720	-0.210	0.570	0.610
2020/01/31 12:51:52.4	111.730	-0.210	0.530	0.560
2020/01/31 12:51:52.5	111.740	-0.200	0.480	0.510
2020/01/31 12:51:52.6	111.740	-0.200	0.430	0.470
2020/01/31 12:51:52.7	111.740	-0.190	0.370	0.430
2020/01/31 12:51:52.8	111.740	-0.190	0.320	0.390
2020/01/31 12:51:52.9	111.730	-0.180	0.250	0.360
2020/01/31 12:51:53.0	111.730	-0.170	0.190	0.330
2020/01/31 12:51:53.1	111.720	-0.160	0.120	0.300
2020/01/31 12:51:53.2	111.710	-0.140	0.060	0.280
2020/01/31 12:51:53.3	111.700	-0.130	-0.010	0.250
2020/01/31 12:51:53.4	111.680	-0.120	-0.080	0.230
2020/01/31 12:51:53.5	111.680	-0.100	-0.150	0.220
2020/01/31 12:51:53.6	111.660	-0.090	-0.230	0.200
2020/01/31 12:51:53.7	111.650	-0.070	-0.300	0.180
2020/01/31 12:51:53.8	111.630	-0.060	-0.360	0.170
2020/01/31 12:51:53.9	111.610	-0.040	-0.430	0.160
2020/01/31 12:51:54.0	111.600	-0.030	-0.500	0.140
2020/01/31 12:51:54.1	111.580	-0.010	-0.570	0.130
2020/01/31 12:51:54.2	111.570	0.000	-0.630	0.130
2020/01/31 12:51:54.3	111.560	0.020	-0.690	0.120
2020/01/31 12:51:54.4	111.550	0.030	-0.750	0.110
2020/01/31 12:51:54.5	111.540	0.050	-0.810	0.110
2020/01/31 12:51:54.6	111.530	0.060	-0.860	0.100
2020/01/31 12:51:54.7	111.520	0.070	-0.910	0.100
2020/01/31 12:51:54.8	111.520	0.080	-0.960	0.110
2020/01/31 12:51:54.9	111.510	0.090	-1.010	0.110
2020/01/31 12:51:55.0	111.500	0.100	-1.050	0.120
2020/01/31 12:51:55.1	111.500	0.110	-1.080	0.120
2020/01/31 12:51:55.2	111.500	0.120	-1.110	0.130
2020/01/31 12:51:55.3	111.490	0.130	-1.140	0.150
2020/01/31 12:51:55.4	111.490	0.140	-1.160	0.160
2020/01/31 12:51:55.5	111.490	0.140	-1.180	0.180
2020/01/31 12:51:55.6	111.490	0.150	-1.190	0.200
2020/01/31 12:51:55.7	111.490	0.150	-1.200	0.220
2020/01/31 12:51:55.8	111.490	0.160	-1.200	0.240
2020/01/31 12:51:55.9	111.500	0.160	-1.200	0.260
2020/01/31 12:51:56.0	111.500	0.160	-1.190	0.290
2020/01/31 12:51:56.1	111.500	0.160	-1.170	0.320
2020/01/31 12:51:56.2	111.500	0.160	-1.150	0.340
2020/01/31 12:51:56.3	111.500	0.160	-1.120	0.370
2020/01/31 12:51:56.4	111.510	0.160	-1.090	0.410
2020/01/31 12:51:56.5	111.510	0.150	-1.040	0.440
2020/01/31 12:51:56.6	111.510	0.150	-1.000	0.470
2020/01/31 12:51:56.7	111.510	0.140	-0.940	0.510
2020/01/31 12:51:56.8	111.510	0.130	-0.890	0.540
2020/01/31 12:51:56.9	111.510	0.120	-0.820	0.580
2020/01/31 12:51:57.0	111.510	0.110	-0.750	0.620
2020/01/31 12:51:57.1	111.510	0.100	-0.680	0.660
2020/01/31 12:51:57.2	111.510	0.090	-0.600	0.700
2020/01/31 12:51:57.3	111.510	0.070	-0.520	0.730
2020/01/31 12:51:57.4	111.510	0.050	-0.430	0.770
2020/01/31 12:51:57.5	111.500	0.040	-0.340	0.810
2020/01/31 12:51:57.6	111.500	0.020	-0.250	0.850
2020/01/31 12:51:57.7	111.500	-0.000	-0.150	0.890
2020/01/31 12:51:57.8	111.500	-0.020	-0.060	0.930
2020/01/31 12:51:57.9	111.500	-0.050	0.040	0.960
2020/01/31 12:51:58.0	111.500	-0.070	0.140	1.000
2020/01/31 12:51:58.1	111.500	-0.100	0.240	1.040
2020/01/31 12:51:58.2	111.510	-0.120	0.330	1.070
2020/01/31 12:51:58.3	111.510	-0.150	0.430	1.100
2020/01/31 12:51:58.4	111.510	-0.170	0.520	1.140
2020/01/31 12:51:58.5	111.510	-0.200	0.610	1.170
2020/01/31 12:51:58.6	111.510	-0.230	0.690	1.200
2020/01/31 12:51:58.7	111.510	-0.260	0.770	1.230
2020/01/31 12:51:58.8	111.520	-0.280	0.840	1.250
2020/01/31 12:51:58.9	111.520	-0.310	0.910	1.280
2020/01/31 12:51:59.0	111.520	-0.330	0.970	1.300
2020/01/31 12:51:59.1	111.520	-0.360	1.020	1.330
2020/01/31 12:51:59.2	111.520	-0.380	1.060	1.350
2020/01/31 12:51:59.3	111.520	-0.400	1.100	1.370
2020/01/31 12:51:59.4	111.520	-0.420	1.120	1.390
2020/01/31 12:51:59.5	111.520	-0.440	1.140	1.400
2020/01/31 12:51:59.6	111.510	-0.450	1.150	1.420
2020/01/31 12:51:59.7	111.510	-0.460	1.140	1.430
2020/01/31 12:51:59.8	111.510	-0.470	1.130	1.440
2020/01/31 12:51:59.9	111.500	-0.480	1.110	1.450
2020/01/31 12:52:00.0	111.500	-0.480	1.070	1.460
2020/01/31 12:52:00.1	111.490	-0.480	1.030	1.470
2020/01/31 12:52:00.2	111.490	-0.470	0.980	1.470
2020/01/31 12:52:00.3	111.480	-0.470	0.920	1.480
2020/01/31 12:52:00.4	111.480	-0.460	0.850	1.480
2020/01/31 12:52:00.5	111.470	-0.440	0.770	1.480
2020/01/31 12:52:00.6	111.470	-0.420	0.680	1.470
2020/01/31 12:52:00.7	111.470	-0.400	0.590	1.470
2020/01/31 12:52:00.8	111.460	-0.380	0.490	1.460
2020/01/31 12:52:00.9	111.460	-0.350	0.390	1.450
2020/01/31 12:52:01.0	111.470	-0.320	0.280	1.440
2020/01/31 12:52:01.1	111.470	-0.290	0.170	1.430
2020/01/31 12:52:01.2	111.470	-0.260	0.050	1.420
2020/01/31 12:52:01.3	111.470	-0.220	-0.060	1.400
2020/01/31 12:52:01.4	111.480	-0.180	-0.180	1.390
2020/01/31 12:52:01.5	111.490	-0.140	-0.300	1.370
2020/01/31 12:52:01.6	111.500	-0.100	-0.420	1.350
2020/01/31 12:52:01.7	111.500	-0.060	-0.540	1.340
2020/01/31 12:52:01.8	111.510	-0.020	-0.650	1.320
2020/01/31 12:52:01.9	111.520	0.030	-0.760	1.310
2020/01/31 12:52:02.0	111.530	0.070	-0.870	1.300
2020/01/31 12:52:02.1	111.540	0.110	-0.970	1.290
2020/01/31 12:52:02.2	111.550	0.150	-1.060	1.280
2020/01/31 12:52:02.3	111.560	0.190	-1.150	1.270
2020/01/31 12:52:02.4	111.570	0.230	-1.230	1.260
2020/01/31 12:52:02.5	111.580	0.270	-1.300	1.250
2020/01/31 12:52:02.6	111.590	0.300	-1.360	1.250
2020/01/31 12:52:02.7	111.600	0.340	-1.420	1.240
2020/01/31 12:52:02.8	111.610	0.370	-1.460	1.240
2020/01/31 12:52:02.9	111.620	0.390	-1.490	1.240
2020/01/31 12:52:03.0	111.630	0.420	-1.520	1.240
2020/01/31 12:52:03.1	111.640	0.440	-1.530	1.230
2020/01/31 12:52:03.2	111.650	0.460	-1.530	1.230
2020/01/31 12:52:03.3	111.660	0.480	-1.520	1.230
2020/01/31 12:52:03.4	111.670	0.490	-1.500	1.230
2020/01/31 12:52:03.5	111.670	0.500	-1.470	1.230
2020/01/31 12:52:03.6	111.680	0.500	-1.430	1.230
2020/01/31 12:52:03.7	111.690	0.510	-1.380	1.230
2020/01/31 12:52:03.8	111.700	0.510	-1.320	1.230
2020/01/31 12:52:03.9	111.720	0.500	-1.260	1.220
2020/01/31 12:52:04.0	111.730	0.490	-1.180	1.220
2020/01/31 12:52:04.1	111.740	0.480	-1.100	1.220
2020/01/31 12:52:04.2	111.750	0.470	-1.020	1.210
2020/01/31 12:52:04.3	111.770	0.460	-0.920	1.200
2020/01/31 12:52:04.4	111.780	0.440	-0.830	1.190
2020/01/31 12:52:04.5	111.790	0.420	-0.720	1.190
2020/01/31 12:52:04.6	111.800	0.400	-0.620	1.170
2020/01/31 12:52:04.7	111.820	0.370	-0.510	1.160
2020/01/31 12:52:04.8	111.830	0.350	-0.400	1.140
2020/01/31 12:52:04.9	111.840	0.320	-0.290	1.120
2020/01/31 12:52:05.0	111.850	0.290	-0.180	1.100
2020/01/31 12:52:05.1	111.860	0.260	-0.080	1.080
2020/01/31 12:52:05.2	111.870	0.230	0.030	1.050
2020/01/31 12:52:05.3	111.880	0.200	0.130	1.030
2020/01/31 12:52:05.4	111.880	0.170	0.230	1.000
2020/01/31 12:52:05.5	111.890	0.140	0.320	0.980
2020/01/31 12:52:05.6	111.900	0.110	0.410	0.950
2020/01/31 12:52:05.7	111.900	0.080	0.500	0.920
2020/01/31 12:52:05.8	111.900	0.050	0.580	0.900
2020/01/31 12:52:05.9	111.890	0.020	0.650	0.880
2020/01/31 12:52:06.0	111.890	-0.010	0.720	0.850
2020/01/31 12:52:06.1	111.880	-0.030	0.780	0.830
2020/01/31 12:52:06.2	111.880	-0.060	0.830	0.820
2020/01/31 12:52:06.3	111.870	-0.090	0.870	0.800
2020/01/31 12:52:06.4	111.850	-0.110	0.910	0.790
2020/01/31 12:52:06.5	111.840	-0.130	0.940	0.780
2020/01/31 12:52:06.6	111.820	-0.150	0.960	0.770
2020/01/31 12:52:06.7	111.810	-0.170	0.970	0.770
2020/01/31 12:52:06.8	111.790	-0.190	0.980	0.770
2020/01/31 12:52:06.9	111.770	-0.210	0.980	0.780
2020/01/31 12:52:07.0	111.750	-0.220	0.970	0.790
2020/01/31 12:52:07.1	111.730	-0.240	0.950	0.800
2020/01/31 12:52:07.2	111.710	-0.250	0.930	0.810
2020/01/31 12:52:07.3	111.680	-0.260	0.900	0.830
2020/01/31 12:52:07.4	111.660	-0.260	0.870	0.850
2020/01/31 12:52:07.5	111.640	-0.270	0.830	0.870
2020/01/31 12:52:07.6	111.620	-0.280	0.780	0.900
2020/01/31 12:52:07.7	111.600	-0.280	0.730	0.920
2020/01/31 12:52:07.8	111.580	-0.280	0.670	0.940
2020/01/31 12:52:07.9	111.560	-0.280	0.610	0.960
2020/01/31 12:52:08.0	111.540	-0.280	0.550	0.980
2020/01/31 12:52:08.1	111.530	-0.270	0.480	1.000
2020/01/31 12:52:08.2	111.520	-0.270	0.410	1.020
2020/01/31 12:52:08.3	111.510	-0.260	0.340	1.030
2020/01/31 12:52:08.4	111.500	-0.260	0.270	1.050
2020/01/31 12:52:08.5	111.490	-0.250	0.190	1.060
2020/01/31 12:52:08.6	111.480	-0.240	0.110	1.070
2020/01/31 12:52:08.7	111.480	-0.230	0.030	1.070
2020/01/31 12:52:08.8	111.480	-0.220	-0.040	1.080
2020/01/31 12:52:08.9	111.480	-0.210	-0.120	1.080
2020/01/31 12:52:09.0	111.480	-0.190	-0.200	1.080
2020/01/31 12:52:09.1	111.480	-0.180	-0.280	1.080
2020/01/31 12:52:09.2	111.490	-0.170	-0.350	1.080
2020/01/31 12:52:09.3	111.490	-0.150	-0.420	1.070
2020/01/31 12:52:09.4	111.500	-0.140	-0.500	1.060
2020/01/31 12:52:09.5	111.500	-0.120	-0.560	1.050
2020/01/31 12:52:09.6	111.500	-0.110	-0.630	1.040
2020/01/31 12:52:09.7	111.510	-0.090	-0.690	1.030
2020/01/31 12:52:09.8	111.520	-0.070	-0.750	1.020
2020/01/31 12:52:09.9	111.520	-0.060	-0.810	1.010
2020/01/31 12:52:10.0	111.530	-0.040	-0.860	1.000
2020/01/31 12:52:10.1	111.540	-0.030	-0.910	0.990
2020/01/31 12:52:10.2	111.550	-0.010	-0.960	0.980
2020/01/31 12:52:10.3	111.560	0.010	-0.990	0.970
2020/01/31 12:52:10.4	111.560	0.020	-1.030	0.960
2020/01/31 12:52:10.5	111.580	0.040	-1.050	0.950
2020/01/31 12:52:10.6	111.590	0.050	-1.080	0.940
2020/01/31 12:52:10.7	111.600	0.070	-1.090	0.940
2020/01/31 12:52:10.8	111.600	0.080	-1.100	0.930
2020/01/31 12:52:10.9	111.610	0.090	-1.110	0.930
2020/01/31 12:52:11.0	111.620	0.110	-1.110	0.920
2020/01/31 12:52:11.1	111.630	0.120	-1.100	0.920
2020/01/31 12:52:11.2	111.630	0.130	-1.090	0.920
2020/01/31 12:52:11.3	111.640	0.140	-1.070	0.920
2020/01/31 12:52:11.4	111.650	0.150	-1.040	0.920
2020/01/31 12:52:11.5	111.650	0.160	-1.020	0.930
2020/01/31 12:52:11.6	111.660	0.170	-0.980	0.930
2020/01/31 12:52:11.7	111.670	0.180	-0.940	0.940
2020/01/31 12:52:11.8	111.680	0.190	-0.890	0.940
2020/01/31 12:52:11.9	111.690	0.200	-0.840	0.950
2020/01/31 12:52:12.0	111.700	0.200	-0.790	0.960
2020/01/31 12:52:12.1	111.710	0.210	-0.740	0.970
2020/01/31 12:52:12.2	111.720	0.210	-0.680	0.980
2020/01/31 12:52:12.3	111.730	0.220	-0.620	0.990
2020/01/31 12:52:12.4	111.740	0.220	-0.550	1.000
2020/01/31 12:52:12.5	111.750	0.220	-0.490	1.020
2020/01/31 12:52:12.6	111.770	0.220	-0.420	1.030
2020/01/31 12:52:12.7	111.780	0.220	-0.360	1.040
2020/01/31 12:52:12.8	111.790	0.220	-0.290	1.050
2020/01/31 12:52:12.9	111.810	0.220	-0.220	1.070
2020/01/31 12:52:13.0	111.820	0.220	-0.160	1.080
2020/01/31 12:52:13.1	111.840	0.210	-0.100	1.100
2020/01/31 12:52:13.2	111.850	0.210	-0.040	1.110
2020/01/31 12:52:13.3	111.860	0.200	0.020	1.130
2020/01/31 12:52:13.4	111.870	0.200	0.080	1.140
2020/01/31 12:52:13.5	111.900	0.190	0.140	1.160
2020/01/31 12:52:13.6	111.910	0.180	0.190	1.180
2020/01/31 12:52:13.7	111.920	0.170	0.240	1.200
2020/01/31 12:52:13.8	111.930	0.160	0.290	1.220
2020/01/31 12:52:13.9	111.930	0.150	0.330	1.240
2020/01/31 12:52:14.0	111.940	0.140	0.370	1.250
2020/01/31 12:52:14.1	111.940	0.130	0.410	1.270
2020/01/31 12:52:14.2	111.940	0.110	0.440	1.290
2020/01/31 12:52:14.3	111.940	0.100	0.470	1.310
2020/01/31 12:52:14.4	111.930	0.090	0.500	1.330
2020/01/31 12:52:14.5	111.930	0.070	0.520	1.340
2020/01/31 12:52:14.6	111.920	0.050	0.530	1.360
2020/01/31 12:52:14.7	111.910	0.040	0.550	1.380
2020/01/31 12:52:14.8	111.900	0.020	0.560	1.390
2020/01/31 12:52:14.9	111.890	0.010	0.560	1.410
2020/01/31 12:52:15.0	111.870	-0.010	0.560	1.420
2020/01/31 12:52:15.1	111.850	-0.020	0.560	1.430
2020/01/31 12:52:15.2	111.830	-0.040	0.550	1.440
2020/01/31 12:52:15.3	111.810	-0.050	0.540	1.450
2020/01/31 12:52:15.4	111.790	-0.070	0.520	1.460
2020/01/31 12:52:15.5	111.770	-0.080	0.500	1.460
2020/01/31 12:52:15.6	111.750	-0.100	0.480	1.470
2020/01/31 12:52:15.7	111.720	-0.110	0.450	1.470
2020/01/31 12:52:15.8	111.700	-0.120	0.420	1.470
2020/01/31 12:52:15.9	111.670	-0.130	0.380	1.470
2020/01/31 12:52:16.0	111.650	-0.140	0.340	1.470
2020/01/31 12:52:16.1	111.630	-0.140	0.300	1.470
2020/01/31 12:52:16.2	111.600	-0.150	0.260	1.460
2020/01/31 12:52:16.3	111.580	-0.160	0.210	1.450
2020/01/31 12:52:16.4	111.560	-0.160	0.160	1.450
2020/01/31 12:52:16.5	111.540	-0.160	0.120	1.440
2020/01/31 12:52:16.6	111.520	-0.170	0.060	1.430
2020/01/31 12:52:16.7	111.500	-0.170	0.010	1.420
2020/01/31 12:52:16.8	111.480	-0.170	-0.040	1.410
2020/01/31 12:52:16.9	111.460	-0.170	-0.100	1.400
2020/01/31 12:52:17.0	111.440	-0.160	-0.150	1.390
2020/01/31 12:52:17.1	111.420	-0.160	-0.210	1.380
2020/01/31 12:52:17.2	111.410	-0.160	-0.260	1.370
2020/01/31 12:52:17.3	111.390	-0.160	-0.310	1.350
2020/01/31 12:52:17.4	111.380	-0.160	-0.360	1.340
2020/01/31 12:52:17.5	111.370	-0.150	-0.410	1.330
2020/01/31 12:52:17.6	111.360	-0.150	-0.460	1.320
2020/01/31 12:52:17.7	111.350	-0.150	-0.510	1.310
2020/01/31 12:52:17.8	111.340	-0.150	-0.550	1.290
2020/01/31 12:52:17.9	111.340	-0.140	-0.590	1.280
2020/01/31 12:52:18.0	111.340	-0.140	-0.620	1.270
2020/01/31 12:52:18.1	111.340	-0.140	-0.650	1.260
2020/01/31 12:52:18.2	111.340	-0.140	-0.680	1.240
2020/01/31 12:52:18.3	111.340	-0.140	-0.700	1.230
2020/01/31 12:52:18.4	111.350	-0.140	-0.720	1.220
2020/01/31 12:52:18.5	111.350	-0.150	-0.740	1.200
2020/01/31 12:52:18.6	111.360	-0.150	-0.750	1.180
2020/01/31 12:52:18.7	111.370	-0.150	-0.750	1.170
2020/01/31 12:52:18.8	111.390	-0.160	-0.760	1.150
2020/01/31 12:52:18.9	111.400	-0.160	-0.760	1.130
2020/01/31 12:52:19.0	111.420	-0.170	-0.750	1.110
2020/01/31 12:52:19.1	111.430	-0.170	-0.740	1.100
2020/01/31 12:52:19.2	111.450	-0.180	-0.730	1.080
2020/01/31 12:52:19.3	111.470	-0.180	-0.710	1.060
2020/01/31 12:52:19.4	111.490	-0.190	-0.690	1.040
2020/01/31 12:52:19.5	111.510	-0.190	-0.670	1.020
2020/01/31 12:52:19.6	111.530	-0.200	-0.650	1.000
2020/01/31 12:52:19.7	111.560	-0.210	-0.620	0.970
2020/01/31 12:52:19.8	111.580	-0.210	-0.590	0.950
2020/01/31 12:52:19.9	111.600	-0.220	-0.560	0.930
2020/01/31 12:52:20.0	111.630	-0.220	-0.520	0.910
2020/01/31 12:52:20.1	111.650	-0.220	-0.480	0.880
2020/01/31 12:52:20.2	111.680	-0.230	-0.450	0.860
2020/01/31 12:52:20.3	111.700	-0.230	-0.410	0.840
2020/01/31 12:52:20.4	111.720	-0.230	-0.370	0.810
2020/01/31 12:52:20.5	111.740	-0.230	-0.330	0.790
2020/01/31 12:52:20.6	111.760	-0.230	-0.280	0.770
2020/01/31 12:52:20.7	111.790	-0.230	-0.240	0.740
2020/01/31 12:52:20.8	111.810	-0.220	-0.200	0.720
2020/01/31 12:52:20.9	111.830	-0.220	-0.160	0.700
2020/01/31 12:52:21.0	111.850	-0.210	-0.120	0.680
2020/01/31 12:52:21.1	111.860	-0.210	-0.080	0.660
2020/01/31 12:52:21.2	111.880	-0.200	-0.040	0.640
2020/01/31 12:52:21.3	111.890	-0.190	-0.000	0.630
2020/01/31 12:52:21.4	111.900	-0.180	0.030	0.610
2020/01/31 12:52:21.5	111.920	-0.170	0.070	0.600
2020/01/31 12:52:21.6	111.930	-0.150	0.100	0.590
2020/01/31 12:52:21.7	111.930	-0.140	0.130	0.590
2020/01/31 12:52:21.8	111.930	-0.120	0.150	0.580
2020/01/31 12:52:21.9	111.930	-0.110	0.170	0.580
2020/01/31 12:52:22.0	111.930	-0.090	0.190	0.580
2020/01/31 12:52:22.1	111.930	-0.070	0.210	0.580
2020/01/31 12:52:22.2	111.920	-0.060	0.220	0.580
2020/01/31 12:52:22.3	111.910	-0.040	0.230	0.580
2020/01/31 12:52:22.4	111.900	-0.020	0.240	0.590
2020/01/31 12:52:22.5	111.890	0.000	0.250	0.590
2020/01/31 12:52:22.6	111.870	0.020	0.250	0.600
2020/01/31 12:52:22.7	111.860	0.040	0.250	0.610
2020/01/31 12:52:22.8	111.840	0.060	0.250	0.620
2020/01/31 12:52:22.9	111.830	0.080	0.250	0.630
2020/01/31 12:52:23.0	111.810	0.100	0.240	0.640
2020/01/31 12:52:23.1	111.790	0.120	0.240	0.650
2020/01/31 12:52:23.2	111.770	0.140	0.230	0.660
2020/01/31 12:52:23.3	111.750	0.160	0.220	0.670
2020/01/31 12:52:23.4	111.730	0.170	0.210	0.680
2020/01/31 12:52:23.5	111.720	0.190	0.200	0.700
2020/01/31 12:52:23.6	111.700	0.200	0.190	0.710
2020/01/31 12:52:23.7	111.680	0.220	0.180	0.730
2020/01/31 12:52:23.8	111.660	0.230	0.160	0.740
2020/01/31 12:52:23.9	111.650	0.250	0.150	0.760
2020/01/31 12:52:24.0	111.630	0.260	0.130	0.770
2020/01/31 12:52:24.1	111.610	0.270	0.110	0.790
2020/01/31 12:52:24.2	111.590	0.280	0.090	0.800
2020/01/31 12:52:24.3	111.570	0.290	0.070	0.820
2020/01/31 12:52:24.4	111.560	0.300	0.050	0.830
2020/01/31 12:52:24.5	111.540	0.310	0.030	0.850
2020/01/31 12:52:24.6	111.520	0.310	-0.000	0.860
2020/01/31 12:52:24.7	111.510	0.320	-0.030	0.880
2020/01/31 12:52:24.8	111.500	0.330	-0.060	0.890
2020/01/31 12:52:24.9	111.480	0.330	-0.090	0.910
2020/01/31 12:52:25.0	111.470	0.340	-0.120	0.920
2020/01/31 12:52:25.1	111.460	0.340	-0.150	0.940
2020/01/31 12:52:25.2	111.450	0.350	-0.190	0.950
2020/01/31 12:52:25.3	111.440	0.360	-0.220	0.960
2020/01/31 12:52:25.4	111.430	0.360	-0.260	0.980
2020/01/31 12:52:25.5	111.420	0.370	-0.290	0.990
2020/01/31 12:52:25.6	111.420	0.370	-0.330	1.000
2020/01/31 12:52:25.7	111.410	0.380	-0.370	1.010
2020/01/31 12:52:25.8	111.400	0.380	-0.410	1.010
2020/01/31 12:52:25.9	111.400	0.390	-0.440	1.020
2020/01/31 12:52:26.0	111.390	0.390	-0.480	1.030
2020/01/31 12:52:26.1	111.390	0.400	-0.520	1.030
2020/01/31 12:52:26.2	111.390	0.400	-0.550	1.030
2020/01/31 12:52:26.3	111.390	0.400	-0.580	1.040
2020/01/31 12:52:26.4	111.390	0.400	-0.610	1.040
2020/01/31 12:52:26.5	111.390	0.400	-0.630	1.030
2020/01/31 12:52:26.6	111.390	0.400	-0.650	1.030
2020/01/31 12:52:26.7	111.400	0.400	-0.670	1.020
2020/01/31 12:52:26.8	111.400	0.400	-0.680	1.020
2020/01/31 12:52:26.9	111.410	0.400	-0.690	1.010
2020/01/31 12:52:27.0	111.420	0.390	-0.690	1.010
2020/01/31 12:52:27.1	111.430	0.380	-0.690	1.000
2020/01/31 12:52:27.2	111.440	0.370	-0.680	1.000
2020/01/31 12:52:27.3	111.450	0.360	-0.670	0.990
2020/01/31 12:52:27.4	111.470	0.340	-0.650	0.990
2020/01/31 12:52:27.5	111.480	0.330	-0.620	0.990
2020/01/31 12:52:27.6	111.500	0.310	-0.590	0.990
2020/01/31 12:52:27.7	111.510	0.290	-0.560	0.980
2020/01/31 12:52:27.8	111.530	0.270	-0.520	0.980
2020/01/31 12:52:27.9	111.550	0.240	-0.470	0.980
2020/01/31 12:52:28.0	111.560	0.220	-0.420	0.990
2020/01/31 12:52:28.1	111.580	0.190	-0.370	0.990
2020/01/31 12:52:28.2	111.600	0.160	-0.310	0.990
2020/01/31 12:52:28.3	111.620	0.130	-0.250	1.000
2020/01/31 12:52:28.4	111.630	0.090	-0.190	1.000
2020/01/31 12:52:28.5	111.640	0.060	-0.120	1.010
2020/01/31 12:52:28.6	111.650	0.030	-0.050	1.020
2020/01/31 12:52:28.7	111.670	-0.010	0.010	1.030
2020/01/31 12:52:28.8	111.690	-0.040	0.070	1.040
2020/01/31 12:52:28.9	111.700	-0.080	0.130	1.050
2020/01/31 12:52:29.0	111.720	-0.110	0.190	1.050
2020/01/31 12:52:29.1	111.730	-0.150	0.250	1.060
2020/01/31 12:52:29.2	111.750	-0.180	0.300	1.070
2020/01/31 12:52:29.3	111.760	-0.220	0.350	1.080
2020/01/31 12:52:29.4	111.770	-0.250	0.390	1.100
2020/01/31 12:52:29.5	111.790	-0.280	0.430	1.110
2020/01/31 12:52:29.6	111.800	-0.310	0.460	1.120
2020/01/31 12:52:29.7	111.810	-0.340	0.480	1.130
2020/01/31 12:52:29.8	111.810	-0.360	0.490	1.150
2020/01/31 12:52:29.9	111.820	-0.380	0.500	1.160
2020/01/31 12:52:30.0	111.820	-0.400	0.500	1.170
2020/01/31 12:52:30.1	111.830	-0.420	0.500	1.190
2020/01/31 12:52:30.2	111.830	-0.440	0.480	1.200
2020/01/31 12:52:30.3	111.830	-0.450	0.460	1.220
2020/01/31 12:52:30.4	111.830	-0.460	0.430	1.230
2020/01/31 12:52:30.5	111.820	-0.470	0.390	1.250
2020/01/31 12:52:30.6	111.820	-0.470	0.340	1.260
2020/01/31 12:52:30.7	111.820	-0.470	0.300	1.280
2020/01/31 12:52:30.8	111.810	-0.470	0.240	1.300
2020/01/31 12:52:30.9	111.810	-0.470	0.180	1.320
2020/01/31 12:52:31.0	111.800	-0.470	0.120	1.340
2020/01/31 12:52:31.1	111.800	-0.460	0.050	1.350
2020/01/31 12:52:31.2	111.790	-0.450	-0.020	1.370
2020/01/31 12:52:31.3	111.790	-0.440	-0.080	1.390
2020/01/31 12:52:31.4	111.780	-0.430	-0.160	1.410
2020/01/31 12:52:31.5	111.780	-0.420	-0.220	1.440
2020/01/31 12:52:31.6	111.770	-0.400	-0.290	1.460
2020/01/31 12:52:31.7	111.770	-0.390	-0.360	1.480
2020/01/31 12:52:31.8	111.760	-0.370	-0.430	1.500
2020/01/31 12:52:31.9	111.760	-0.350	-0.490	1.520
2020/01/31 12:52:32.0	111.760	-0.340	-0.550	1.540
2020/01/31 12:52:32.1	111.760	-0.320	-0.600	1.560
2020/01/31 12:52:32.2	111.760	-0.300	-0.650	1.570
2020/01/31 12:52:32.3	111.750	-0.290	-0.700	1.590
2020/01/31 12:52:32.4	111.750	-0.270	-0.730	1.610
2020/01/31 12:52:32.5	111.750	-0.260	-0.770	1.620
2020/01/31 12:52:32.6	111.750	-0.240	-0.790	1.640
2020/01/31 12:52:32.7	111.750	-0.230	-0.810	1.660
2020/01/31 12:52:32.8	111.750	-0.220	-0.820	1.670
2020/01/31 12:52:32.9	111.750	-0.200	-0.830	1.680
2020/01/31 12:52:33.0	111.750	-0.190	-0.830	1.690
2020/01/31 12:52:33.1	111.750	-0.180	-0.820	1.700
2020/01/31 12:52:33.2	111.750	-0.170	-0.810	1.710
2020/01/31 12:52:33.3	111.750	-0.170	-0.790	1.720
2020/01/31 12:52:33.4	111.740	-0.160	-0.760	1.720
2020/01/31 12:52:33.5	111.740	-0.150	-0.730	1.730
2020/01/31 12:52:33.6	111.740	-0.150	-0.700	1.730
2020/01/31 12:52:33.7	111.730	-0.140	-0.660	1.740
2020/01/31 12:52:33.8	111.720	-0.130	-0.620	1.740
2020/01/31 12:52:33.9	111.710	-0.130	-0.580	1.740
2020/01/31 12:52:34.0	111.690	-0.130	-0.530	1.740
2020/01/31 12:52:34.1	111.680	-0.120	-0.480	1.740
2020/01/31 12:52:34.2	111.660	-0.120	-0.430	1.730
2020/01/31 12:52:34.3	111.640	-0.120	-0.380	1.730
2020/01/31 12:52:34.4	111.620	-0.110	-0.330	1.720
2020/01/31 12:52:34.5	111.600	-0.110	-0.280	1.710
2020/01/31 12:52:34.6	111.580	-0.110	-0.230	1.710
2020/01/31 12:52:34.7	111.550	-0.110	-0.170	1.690
2020/01/31 12:52:34.8	111.530	-0.100	-0.120	1.680
2020/01/31 12:52:34.9	111.500	-0.100	-0.070	1.670
2020/01/31 12:52:35.0	111.470	-0.100	-0.020	1.650
2020/01/31 12:52:35.1	111.450	-0.100	0.020	1.630
2020/01/31 12:52:35.2	111.420	-0.100	0.070	1.600
2020/01/31 12:52:35.3	111.400	-0.090	0.110	1.580
2020/01/31 12:52:35.4	111.370	-0.090	0.160	1.550
2020/01/31 12:52:35.5	111.360	-0.090	0.200	1.510
2020/01/31 12:52:35.6	111.340	-0.090	0.240	1.470
2020/01/31 12:52:35.7	111.330	-0.090	0.270	1.430
2020/01/31 12:52:35.8	111.320	-0.080	0.300	1.390
2020/01/31 12:52:35.9	111.310	-0.080	0.330	1.340
2020/01/31 12:52:36.0	111.300	-0.080	0.360	1.280
2020/01/31 12:52:36.1	111.300	-0.070	0.380	1.220
2020/01/31 12:52:36.2	111.300	-0.070	0.400	1.160
2020/01/31 12:52:36.3	111.310	-0.070	0.410	1.100
2020/01/31 12:52:36.4	111.320	-0.060	0.420	1.030
2020/01/31 12:52:36.5	111.340	-0.060	0.430	0.950
2020/01/31 12:52:36.6	111.360	-0.050	0.430	0.880
2020/01/31 12:52:36.7	111.380	-0.040	0.430	0.800
2020/01/31 12:52:36.8	111.400	-0.030	0.420	0.720
2020/01/31 12:52:36.9	111.430	-0.030	0.410	0.640
2020/01/31 12:52:37.0	111.460	-0.020	0.390	0.560
2020/01/31 12:52:37.1	111.490	-0.010	0.370	0.480
2020/01/31 12:52:37.2	111.520	0.000	0.340	0.390
2020/01/31 12:52:37.3	111.550	0.020	0.310	0.310
2020/01/31 12:52:37.4	111.590	0.030	0.280	0.230
2020/01/31 12:52:37.5	111.620	0.040	0.240	0.150
2020/01/31 12:52:37.6	111.660	0.060	0.200	0.070
2020/01/31 12:52:37.7	111.690	0.080	0.150	-0.010
2020/01/31 12:52:37.8	111.720	0.090	0.100	-0.090
2020/01/31 12:52:37.9	111.760	0.110	0.050	-0.160
2020/01/31 12:52:38.0	111.790	0.130	0.000	-0.230
2020/01/31 12:52:38.1	111.820	0.150	-0.050	-0.290
2020/01/31 12:52:38.2	111.850	0.170	-0.110	-0.360
2020/01/31 12:52:38.3	111.880	0.190	-0.160	-0.420
2020/01/31 12:52:38.4	111.900	0.210	-0.220	-0.470
2020/01/31 12:52:38.5	111.920	0.230	-0.270	-0.530
2020/01/31 12:52:38.6	111.940	0.240	-0.320	-0.580
2020/01/31 12:52:38.7	111.960	0.260	-0.370	-0.620
2020/01/31 12:52:38.8	111.980	0.280	-0.410	-0.660
2020/01/31 12:52:38.9	112.000	0.300	-0.450	-0.690
2020/01/31 12:52:39.0	112.020	0.310	-0.490	-0.710
2020/01/31 12:52:39.1	112.030	0.330	-0.520	-0.730
2020/01/31 12:52:39.2	112.040	0.340	-0.540	-0.750
2020/01/31 12:52:39.3	112.050	0.350	-0.570	-0.760
2020/01/31 12:52:39.4	112.060	0.360	-0.580	-0.760
2020/01/31 12:52:39.5	112.080	0.360	-0.590	-0.750
2020/01/31 12:52:39.6	112.080	0.370	-0.600	-0.740
2020/01/31 12:52:39.7	112.080	0.370	-0.600	-0.730
2020/01/31 12:52:39.8	112.070	0.370	-0.590	-0.700
2020/01/31 12:52:39.9	112.070	0.370	-0.580	-0.670
2020/01/31 12:52:40.0	112.060	0.370	-0.570	-0.640
2020/01/31 12:52:40.1	112.050	0.370	-0.550	-0.590
2020/01/31 12:52:40.2	112.040	0.360	-0.530	-0.540
2020/01/31 12:52:40.3	112.020	0.360	-0.510	-0.490
2020/01/31 12:52:40.4	112.000	0.350	-0.480	-0.430
2020/01/31 12:52:40.5	111.980	0.340	-0.450	-0.360
2020/01/31 12:52:40.6	111.960	0.330	-0.420	-0.290
2020/01/31 12:52:40.7	111.940	0.320	-0.380	-0.220
2020/01/31 12:52:40.8	111.910	0.300	-0.350	-0.140
2020/01/31 12:52:40.9	111.890	0.290	-0.320	-0.050
2020/01/31 12:52:41.0	111.860	0.280	-0.290	0.030
2020/01/31 12:52:41.1	111.830	0.260	-0.250	0.120
2020/01/31 12:52:41.2	111.800	0.250	-0.220	0.210
2020/01/31 12:52:41.3	111.770	0.230	-0.200	0.300
2020/01/31 12:52:41.4	111.750	0.220	-0.170	0.390
2020/01/31 12:52:41.5	111.720	0.200	-0.150	0.480
2020/01/31 12:52:41.6	111.690	0.190	-0.130	0.570
2020/01/31 12:52:41.7	111.670	0.170	-0.110	0.660
2020/01/31 12:52:41.8	111.640	0.160	-0.090	0.750
2020/01/31 12:52:41.9	111.620	0.150	-0.080	0.840
2020/01/31 12:52:42.0	111.600	0.130	-0.080	0.920
2020/01/31 12:52:42.1	111.580	0.120	-0.070	1.000
2020/01/31 12:52:42.2	111.570	0.110	-0.070	1.080
2020/01/31 12:52:42.3	111.550	0.100	-0.070	1.160
2020/01/31 12:52:42.4	111.540	0.090	-0.080	1.230
2020/01/31 12:52:42.5	111.520	0.080	-0.090	1.300
2020/01/31 12:52:42.6	111.510	0.070	-0.100	1.370
2020/01/31 12:52:42.7	111.510	0.060	-0.110	1.440
2020/01/31 12:52:42.8	111.500	0.050	-0.120	1.500
2020/01/31 12:52:42.9	111.500	0.040	-0.130	1.570
2020/01/31 12:52:43.0	111.490	0.030	-0.150	1.630
2020/01/31 12:52:43.1	111.490	0.020	-0.160	1.680
2020/01/31 12:52:43.2	111.490	0.020	-0.180	1.740
2020/01/31 12:52:43.3	111.500	0.010	-0.190	1.790
2020/01/31 12:52:43.4	111.500	0.000	-0.200	1.840
2020/01/31 12:52:43.5	111.500	-0.010	-0.210	1.890
2020/01/31 12:52:43.6	111.510	-0.020	-0.210	1.930
2020/01/31 12:52:43.7	111.520	-0.020	-0.220	1.980
2020/01/31 12:52:43.8	111.530	-0.030	-0.220	2.020
2020/01/31 12:52:43.9	111.540	-0.040	-0.220	2.050
2020/01/31 12:52:44.0	111.560	-0.050	-0.220	2.090
2020/01/31 12:52:44.1	111.570	-0.060	-0.210	2.120
2020/01/31 12:52:44.2	111.590	-0.060	-0.200	2.150
2020/01/31 12:52:44.3	111.600	-0.070	-0.190	2.180
2020/01/31 12:52:44.4	111.620	-0.080	-0.180	2.210
2020/01/31 12:52:44.5	111.640	-0.090	-0.160	2.230
2020/01/31 12:52:44.6	111.660	-0.100	-0.140	2.250
2020/01/31 12:52:44.7	111.680	-0.110	-0.120	2.270
2020/01/31 12:52:44.8	111.700	-0.120	-0.100	2.290
2020/01/31 12:52:44.9	111.730	-0.130	-0.080	2.300
2020/01/31 12:52:45.0	111.750	-0.140	-0.060	2.310
2020/01/31 12:52:45.1	111.770	-0.140	-0.040	2.320
2020/01/31 12:52:45.2	111.790	-0.150	-0.020	2.330
2020/01/31 12:52:45.3	111.810	-0.160	0.000	2.330
2020/01/31 12:52:45.4	111.840	-0.170	0.020	2.330
2020/01/31 12:52:45.5	111.860	-0.170	0.040	2.330
2020/01/31 12:52:45.6	111.880	-0.180	0.050	2.320
2020/01/31 12:52:45.7	111.900	-0.190	0.060	2.310
2020/01/31 12:52:45.8	111.920	-0.190	0.070	2.300
2020/01/31 12:52:45.9	111.940	-0.200	0.080	2.290
2020/01/31 12:52:46.0	111.960	-0.200	0.080	2.270
2020/01/31 12:52:46.1	111.980	-0.200	0.080	2.250
2020/01/31 12:52:46.2	112.000	-0.210	0.080	2.220
2020/01/31 12:52:46.3	112.010	-0.210	0.070	2.200
2020/01/31 12:52:46.4	112.030	-0.210	0.060	2.170
2020/01/31 12:52:46.5	112.050	-0.210	0.050	2.130
2020/01/31 12:52:46.6	112.060	-0.210	0.040	2.100
2020/01/31 12:52:46.7	112.070	-0.210	0.020	2.060
2020/01/31 12:52:46.8	112.080	-0.210	-0.000	2.030
2020/01/31 12:52:46.9	112.080	-0.200	-0.030	1.990
2020/01/31 12:52:47.0	112.090	-0.200	-0.050	1.950
2020/01/31 12:52:47.1	112.090	-0.200	-0.080	1.900
2020/01/31 12:52:47.2	112.090	-0.200	-0.100	1.860
2020/01/31 12:52:47.3	112.090	-0.190	-0.130	1.820
2020/01/31 12:52:47.4	112.090	-0.190	-0.160	1.780
2020/01/31 12:52:47.5	112.090	-0.190	-0.200	1.740
2020/01/31 12:52:47.6	112.090	-0.190	-0.230	1.700
2020/01/31 12:52:47.7	112.080	-0.180	-0.260	1.660
2020/01/31 12:52:47.8	112.080	-0.180	-0.290	1.620
2020/01/31 12:52:47.9	112.070	-0.180	-0.310	1.580
2020/01/31 12:52:48.0	112.060	-0.180	-0.340	1.540
2020/01/31 12:52:48.1	112.050	-0.180	-0.370	1.510
2020/01/31 12:52:48.2	112.040	-0.170	-0.390	1.480
2020/01/31 12:52:48.3	112.020	-0.170	-0.410	1.450
2020/01/31 12:52:48.4	112.010	-0.170	-0.430	1.420
2020/01/31 12:52:48.5	112.010	-0.180	-0.450	1.390
2020/01/31 12:52:48.6	112.000	-0.180	-0.460	1.360
2020/01/31 12:52:48.7	111.980	-0.180	-0.470	1.340
2020/01/31 12:52:48.8	111.970	-0.180	-0.480	1.310
2020/01/31 12:52:48.9	111.960	-0.190	-0.480	1.290
2020/01/31 12:52:49.0	111.940	-0.190	-0.480	1.260
2020/01/31 12:52:49.1	111.930	-0.190	-0.470	1.240
2020/01/31 12:52:49.2	111.920	-0.200	-0.470	1.220
2020/01/31 12:52:49.3	111.900	-0.200	-0.460	1.190
2020/01/31 12:52:49.4	111.890	-0.210	-0.450	1.170
2020/01/31 12:52:49.5	111.870	-0.220	-0.430	1.140
2020/01/31 12:52:49.6	111.860	-0.220	-0.410	1.120
2020/01/31 12:52:49.7	111.850	-0.230	-0.400	1.090
2020/01/31 12:52:49.8	111.840	-0.230	-0.380	1.070
2020/01/31 12:52:49.9	111.830	-0.240	-0.360	1.040
2020/01/31 12:52:50.0	111.820	-0.240	-0.330	1.010
2020/01/31 12:52:50.1	111.810	-0.240	-0.310	0.980
2020/01/31 12:52:50.2	111.800	-0.250	-0.290	0.950
2020/01/31 12:52:50.3	111.790	-0.250	-0.270	0.920
2020/01/31 12:52:50.4	111.790	-0.250	-0.250	0.890
2020/01/31 12:52:50.5	111.780	-0.250	-0.220	0.850
2020/01/31 12:52:50.6	111.780	-0.240	-0.200	0.820
2020/01/31 12:52:50.7	111.770	-0.240	-0.180	0.780
2020/01/31 12:52:50.8	111.770	-0.230	-0.170	0.740
2020/01/31 12:52:50.9	111.770	-0.220	-0.150	0.700
2020/01/31 12:52:51.0	111.770	-0.210	-0.130	0.660
2020/01/31 12:52:51.1	111.780	-0.200	-0.120	0.620
2020/01/31 12:52:51.2	111.780	-0.190	-0.100	0.580
2020/01/31 12:52:51.3	111.790	-0.180	-0.090	0.530
2020/01/31 12:52:51.4	111.800	-0.160	-0.080	0.490
2020/01/31 12:52:51.5	111.810	-0.140	-0.070	0.450
2020/01/31 12:52:51.6	111.820	-0.130	-0.060	0.400
2020/01/31 12:52:51.7	111.830	-0.110	-0.050	0.360
2020/01/31 12:52:51.8	111.840	-0.090	-0.040	0.310
2020/01/31 12:52:51.9	111.860	-0.070	-0.030	0.260
2020/01/31 12:52:52.0	111.880	-0.040	-0.020	0.220
2020/01/31 12:52:52.1	111.900	-0.020	-0.010	0.170
2020/01/31 12:52:52.2	111.920	-0.000	-0.010	0.120
2020/01/31 12:52:52.3	111.940	0.020	0.000	0.080
2020/01/31 12:52:52.4	111.960	0.040	0.010	0.030
2020/01/31 12:52:52.5	111.990	0.070	0.020	-0.020
2020/01/31 12:52:52.6	112.020	0.090	0.020	-0.060
2020/01/31 12:52:52.7	112.040	0.110	0.030	-0.110
2020/01/31 12:52:52.8	112.060	0.130	0.030	-0.160
2020/01/31 12:52:52.9	112.090	0.150	0.040	-0.200
2020/01/31 12:52:53.0	112.110	0.170	0.050	-0.240
2020/01/31 12:52:53.1	112.130	0.180	0.050	-0.280
2020/01/31 12:52:53.2	112.160	0.200	0.060	-0.320
2020/01/31 12:52:53.3	112.180	0.210	0.070	-0.360
2020/01/31 12:52:53.4	112.200	0.230	0.070	-0.400
2020/01/31 12:52:53.5	112.220	0.240	0.080	-0.430
2020/01/31 12:52:53.6	112.240	0.250	0.080	-0.460
2020/01/31 12:52:53.7	112.250	0.250	0.090	-0.490
2020/01/31 12:52:53.8	112.270	0.260	0.100	-0.520
2020/01/31 12:52:53.9	112.290	0.270	0.100	-0.540
2020/01/31 12:52:54.0	112.300	0.270	0.110	-0.550
2020/01/31 12:52:54.1	112.310	0.270	0.120	-0.560
2020/01/31 12:52:54.2	112.320	0.270	0.120	-0.570
2020/01/31 12:52:54.3	112.330	0.270	0.130	-0.570
2020/01/31 12:52:54.4	112.340	0.260	0.130	-0.570
2020/01/31 12:52:54.5	112.350	0.260	0.130	-0.560
2020/01/31 12:52:54.6	112.360	0.250	0.140	-0.550
2020/01/31 12:52:54.7	112.360	0.250	0.140	-0.530
2020/01/31 12:52:54.8	112.370	0.240	0.140	-0.510
2020/01/31 12:52:54.9	112.370	0.230	0.140	-0.480
2020/01/31 12:52:55.0	112.370	0.220	0.150	-0.440
2020/01/31 12:52:55.1	112.370	0.210	0.150	-0.400
2020/01/31 12:52:55.2	112.360	0.190	0.150	-0.360
2020/01/31 12:52:55.3	112.360	0.180	0.140	-0.310
2020/01/31 12:52:55.4	112.360	0.170	0.140	-0.250
2020/01/31 12:52:55.5	112.340	0.150	0.140	-0.190
2020/01/31 12:52:55.6	112.340	0.140	0.130	-0.130
2020/01/31 12:52:55.7	112.330	0.130	0.130	-0.060
2020/01/31 12:52:55.8	112.330	0.110	0.120	0.010
2020/01/31 12:52:55.9	112.320	0.100	0.120	0.080
2020/01/31 12:52:56.0	112.310	0.090	0.110	0.150
2020/01/31 12:52:56.1	112.310	0.070	0.100	0.230
2020/01/31 12:52:56.2	112.300	0.060	0.080	0.310
2020/01/31 12:52:56.3	112.300	0.050	0.070	0.390
2020/01/31 12:52:56.4	112.290	0.050	0.050	0.470
2020/01/31 12:52:56.5	112.280	0.040	0.040	0.550
2020/01/31 12:52:56.6	112.280	0.030	0.020	0.620
2020/01/31 12:52:56.7	112.270	0.030	-0.010	0.700
2020/01/31 12:52:56.8	112.260	0.030	-0.030	0.780
2020/01/31 12:52:56.9	112.260	0.020	-0.060	0.850
2020/01/31 12:52:57.0	112.250	0.030	-0.090	0.930
2020/01/31 12:52:57.1	112.250	0.030	-0.120	1.000
2020/01/31 12:52:57.2	112.240	0.030	-0.160	1.070
2020/01/31 12:52:57.3	112.230	0.040	-0.200	1.140
2020/01/31 12:52:57.4	112.230	0.050	-0.240	1.200
2020/01/31 12:52:57.5	112.230	0.060	-0.280	1.270
2020/01/31 12:52:57.6	112.220	0.080	-0.330	1.330
2020/01/31 12:52:57.7	112.210	0.090	-0.380	1.390
2020/01/31 12:52:57.8	112.200	0.110	-0.430	1.450
2020/01/31 12:52:57.9	112.200	0.130	-0.480	1.500
2020/01/31 12:52:58.0	112.190	0.150	-0.530	1.560
2020/01/31 12:52:58.1	112.180	0.170	-0.580	1.610
2020/01/31 12:52:58.2	112.170	0.190	-0.630	1.660
2020/01/31 12:52:58.3	112.170	0.210	-0.680	1.710
2020/01/31 12:52:58.4	112.160	0.230	-0.730	1.760
2020/01/31 12:52:58.5	112.160	0.250	-0.780	1.810
2020/01/31 12:52:58.6	112.160	0.280	-0.830	1.860
2020/01/31 12:52:58.7	112.160	0.300	-0.870	1.900
2020/01/31 12:52:58.8	112.160	0.320	-0.910	1.940
2020/01/31 12:52:58.9	112.160	0.330	-0.940	1.990
2020/01/31 12:52:59.0	112.160	0.350	-0.970	2.030
2020/01/31 12:52:59.1	112.160	0.360	-1.000	2.070
2020/01/31 12:52:59.2	112.160	0.380	-1.020	2.120
2020/01/31 12:52:59.3	112.170	0.390	-1.040	2.160
2020/01/31 12:52:59.4	112.170	0.390	-1.050	2.200
2020/01/31 12:52:59.5	112.160	0.400	-1.050	2.240
2020/01/31 12:52:59.6	112.170	0.400	-1.050	2.280
2020/01/31 12:52:59.7	112.180	0.390	-1.040	2.320
2020/01/31 12:52:59.8	112.190	0.390	-1.030	2.360
2020/01/31 12:52:59.9	112.190	0.380	-1.010	2.400
2020/01/31 12:53:00.0	112.200	0.370	-0.990	2.440
2020/01/31 12:53:00.1	112.210	0.350	-0.950	2.480
2020/01/31 12:53:00.2	112.220	0.330	-0.920	2.520
2020/01/31 12:53:00.3	112.230	0.310	-0.870	2.550
2020/01/31 12:53:00.4	112.230	0.280	-0.820	2.590
2020/01/31 12:53:00.5	112.240	0.260	-0.770	2.630
2020/01/31 12:53:00.6	112.250	0.230	-0.710	2.670
2020/01/31 12:53:00.7	112.250	0.200	-0.650	2.700
2020/01/31 12:53:00.8	112.260	0.160	-0.590	2.730
2020/01/31 12:53:00.9	112.270	0.130	-0.520	2.760
2020/01/31 12:53:01.0	112.270	0.090	-0.450	2.790
2020/01/31 12:53:01.1	112.280	0.050	-0.390	2.820
2020/01/31 12:53:01.2	112.280	0.010	-0.320	2.840
2020/01/31 12:53:01.3	112.290	-0.030	-0.240	2.860
2020/01/31 12:53:01.4	112.290	-0.060	-0.180	2.880
2020/01/31 12:53:01.5	112.290	-0.100	-0.110	2.890
2020/01/31 12:53:01.6	112.290	-0.140	-0.040	2.910
2020/01/31 12:53:01.7	112.290	-0.170	0.020	2.920
2020/01/31 12:53:01.8	112.280	-0.210	0.080	2.920
2020/01/31 12:53:01.9	112.280	-0.240	0.140	2.920
2020/01/31 12:53:02.0	112.280	-0.270	0.200	2.920
2020/01/31 12:53:02.1	112.270	-0.300	0.250	2.920
2020/01/31 12:53:02.2	112.260	-0.330	0.300	2.910
2020/01/31 12:53:02.3	112.260	-0.350	0.350	2.890
2020/01/31 12:53:02.4	112.250	-0.380	0.390	2.870
2020/01/31 12:53:02.5	112.250	-0.400	0.430	2.840
2020/01/31 12:53:02.6	112.240	-0.420	0.470	2.810
2020/01/31 12:53:02.7	112.240	-0.430	0.500	2.770
2020/01/31 12:53:02.8	112.230	-0.450	0.530	2.730
2020/01/31 12:53:02.9	112.220	-0.460	0.560	2.680
2020/01/31 12:53:03.0	112.210	-0.470	0.580	2.630
2020/01/31 12:53:03.1	112.210	-0.480	0.600	2.560
2020/01/31 12:53:03.2	112.200	-0.480	0.610	2.500
2020/01/31 12:53:03.3	112.200	-0.490	0.630	2.430
2020/01/31 12:53:03.4	112.190	-0.490	0.640	2.350
2020/01/31 12:53:03.5	112.180	-0.490	0.650	2.270
2020/01/31 12:53:03.6	112.180	-0.490	0.650	2.190
2020/01/31 12:53:03.7	112.180	-0.490	0.650	2.100
2020/01/31 12:53:03.8	112.180	-0.480	0.650	2.000
2020/01/31 12:53:03.9	112.170	-0.480	0.650	1.910
2020/01/31 12:53:04.0	112.170	-0.470	0.640	1.810
2020/01/31 12:53:04.1	112.170	-0.470	0.640	1.710
2020/01/31 12:53:04.2	112.180	-0.460	0.620	1.600
2020/01/31 12:53:04.3	112.180	-0.450	0.610	1.500
2020/01/31 12:53:04.4	112.180	-0.440	0.600	1.390
2020/01/31 12:53:04.5	112.180	-0.430	0.580	1.280
2020/01/31 12:53:04.6	112.180	-0.420	0.560	1.170
2020/01/31 12:53:04.7	112.190	-0.410	0.530	1.060
2020/01/31 12:53:04.8	112.190	-0.390	0.510	0.960
2020/01/31 12:53:04.9	112.200	-0.380	0.480	0.850
2020/01/31 12:53:05.0	112.210	-0.370	0.450	0.740
2020/01/31 12:53:05.1	112.210	-0.350	0.410	0.640
2020/01/31 12:53:05.2	112.220	-0.340	0.380	0.530
2020/01/31 12:53:05.3	112.230	-0.320	0.340	0.430
2020/01/31 12:53:05.4	112.240	-0.310	0.290	0.330
2020/01/31 12:53:05.5	112.250	-0.290	0.250	0.230
2020/01/31 12:53:05.6	112.260	-0.270	0.200	0.130
2020/01/31 12:53:05.7	112.270	-0.250	0.150	0.040
2020/01/31 12:53:05.8	112.290	-0.230	0.100	-0.050
2020/01/31 12:53:05.9	112.300	-0.210	0.040	-0.140
2020/01/31 12:53:06.0	112.310	-0.190	-0.010	-0.230
2020/01/31 12:53:06.1	112.320	-0.170	-0.070	-0.310
2020/01/31 12:53:06.2	112.330	-0.150	-0.130	-0.390
2020/01/31 12:53:06.3	112.340	-0.130	-0.200	-0.460
2020/01/31 12:53:06.4	112.350	-0.100	-0.260	-0.530
2020/01/31 12:53:06.5	112.360	-0.080	-0.330	-0.600
2020/01/31 12:53:06.6	112.370	-0.060	-0.400	-0.660
2020/01/31 12:53:06.7	112.380	-0.030	-0.460	-0.720
2020/01/31 12:53:06.8	112.390	-0.010	-0.530	-0.780
2020/01/31 12:53:06.9	112.400	0.020	-0.590	-0.840
2020/01/31 12:53:07.0	112.410	0.040	-0.650	-0.890
2020/01/31 12:53:07.1	112.420	0.060	-0.710	-0.930
2020/01/31 12:53:07.2	112.430	0.090	-0.770	-0.980
2020/01/31 12:53:07.3	112.440	0.110	-0.820	-1.020
2020/01/31 12:53:07.4	112.450	0.130	-0.870	-1.060
2020/01/31 12:53:07.5	112.480	0.150	-0.910	-1.100
2020/01/31 12:53:07.6	112.490	0.170	-0.960	-1.140
2020/01/31 12:53:07.7	112.510	0.190	-0.990	-1.170
2020/01/31 12:53:07.8	112.520	0.210	-1.020	-1.200
2020/01/31 12:53:07.9	112.530	0.220	-1.040	-1.220
2020/01/31 12:53:08.0	112.550	0.240	-1.060	-1.250
2020/01/31 12:53:08.1	112.560	0.250	-1.070	-1.260
2020/01/31 12:53:08.2	112.570	0.260	-1.070	-1.280
2020/01/31 12:53:08.3	112.590	0.270	-1.070	-1.290
2020/01/31 12:53:08.4	112.600	0.270	-1.060	-1.290
2020/01/31 12:53:08.5	112.620	0.280	-1.040	-1.290
2020/01/31 12:53:08.6	112.630	0.280	-1.020	-1.280
2020/01/31 12:53:08.7	112.640	0.280	-0.990	-1.270
2020/01/31 12:53:08.8	112.640	0.280	-0.950	-1.250
2020/01/31 12:53:08.9	112.650	0.270	-0.910	-1.230
2020/01/31 12:53:09.0	112.660	0.260	-0.870	-1.200
2020/01/31 12:53:09.1	112.660	0.260	-0.810	-1.170
2020/01/31 12:53:09.2	112.660	0.240	-0.760	-1.130
2020/01/31 12:53:09.3	112.660	0.230	-0.700	-1.080
2020/01/31 12:53:09.4	112.660	0.220	-0.640	-1.030
2020/01/31 12:53:09.5	112.660	0.200	-0.570	-0.970
2020/01/31 12:53:09.6	112.660	0.180	-0.500	-0.900
2020/01/31 12:53:09.7	112.660	0.160	-0.430	-0.830
2020/01/31 12:53:09.8	112.650	0.140	-0.350	-0.750
2020/01/31 12:53:09.9	112.650	0.120	-0.280	-0.670
2020/01/31 12:53:10.0	112.640	0.100	-0.200	-0.580
2020/01/31 12:53:10.1	112.630	0.070	-0.130	-0.480
2020/01/31 12:53:10.2	112.620	0.050	-0.050	-0.380
2020/01/31 12:53:10.3	112.610	0.030	0.020	-0.280
2020/01/31 12:53:10.4	112.610	0.010	0.090	-0.170
2020/01/31 12:53:10.5	112.590	-0.020	0.170	-0.050
2020/01/31 12:53:10.6	112.580	-0.040	0.240	0.070
2020/01/31 12:53:10.7	112.570	-0.060	0.300	0.190
2020/01/31 12:53:10.8	112.560	-0.080	0.360	0.310
2020/01/31 12:53:10.9	112.550	-0.100	0.420	0.430
2020/01/31 12:53:11.0	112.550	-0.120	0.480	0.550
2020/01/31 12:53:11.1	112.540	-0.140	0.530	0.680
2020/01/31 12:53:11.2	112.530	-0.150	0.570	0.800
2020/01/31 12:53:11.3	112.530	-0.160	0.610	0.930
2020/01/31 12:53:11.4	112.520	-0.170	0.650	1.050
2020/01/31 12:53:11.5	112.520	-0.180	0.680	1.170
2020/01/31 12:53:11.6	112.510	-0.190	0.700	1.290
2020/01/31 12:53:11.7	112.510	-0.200	0.710	1.400
2020/01/31 12:53:11.8	112.510	-0.200	0.720	1.520
2020/01/31 12:53:11.9	112.500	-0.200	0.730	1.630
2020/01/31 12:53:12.0	112.500	-0.200	0.720	1.740
2020/01/31 12:53:12.1	112.500	-0.190	0.710	1.840
2020/01/31 12:53:12.2	112.500	-0.190	0.700	1.950
2020/01/31 12:53:12.3	112.500	-0.180	0.680	2.040
2020/01/31 12:53:12.4	112.500	-0.170	0.650	2.140
2020/01/31 12:53:12.5	112.490	-0.160	0.610	2.230
2020/01/31 12:53:12.6	112.500	-0.140	0.570	2.310
2020/01/31 12:53:12.7	112.500	-0.130	0.520	2.390
2020/01/31 12:53:12.8	112.500	-0.110	0.470	2.460
2020/01/31 12:53:12.9	112.510	-0.090	0.410	2.530
2020/01/31 12:53:13.0	112.510	-0.070	0.350	2.600
2020/01/31 12:53:13.1	112.520	-0.040	0.290	2.660
2020/01/31 12:53:13.2	112.520	-0.020	0.220	2.710
2020/01/31 12:53:13.3	112.530	0.010	0.150	2.770
2020/01/31 12:53:13.4	112.540	0.040	0.070	2.810
2020/01/31 12:53:13.5	112.540	0.060	-0.010	2.860
2020/01/31 12:53:13.6	112.550	0.090	-0.090	2.900
2020/01/31 12:53:13.7	112.560	0.120	-0.170	2.930
2020/01/31 12:53:13.8	112.570	0.160	-0.250	2.960
2020/01/31 12:53:13.9	112.570	0.190	-0.330	2.990
2020/01/31 12:53:14.0	112.580	0.220	-0.410	3.020
2020/01/31 12:53:14.1	112.590	0.250	-0.490	3.040
2020/01/31 12:53:14.2	112.590	0.280	-0.570	3.060
2020/01/31 12:53:14.3	112.600	0.310	-0.640	3.080
2020/01/31 12:53:14.4	112.610	0.340	-0.710	3.090
2020/01/31 12:53:14.5	112.610	0.370	-0.780	3.100
2020/01/31 12:53:14.6	112.610	0.400	-0.850	3.110
2020/01/31 12:53:14.7	112.620	0.430	-0.910	3.120
2020/01/31 12:53:14.8	112.620	0.450	-0.970	3.130
2020/01/31 12:53:14.9	112.620	0.480	-1.020	3.130
2020/01/31 12:53:15.0	112.620	0.500	-1.070	3.130
2020/01/31 12:53:15.1	112.620	0.520	-1.110	3.140
2020/01/31 12:53:15.2	112.620	0.540	-1.140	3.140
2020/01/31 12:53:15.3	112.620	0.550	-1.170	3.130
2020/01/31 12:53:15.4	112.610	0.570	-1.190	3.130
2020/01/31 12:53:15.5	112.610	0.580	-1.210	3.120
2020/01/31 12:53:15.6	112.600	0.590	-1.220	3.120
2020/01/31 12:53:15.7	112.600	0.590	-1.220	3.110
2020/01/31 12:53:15.8	112.590	0.600	-1.210	3.100
2020/01/31 12:53:15.9	112.590	0.600	-1.190	3.090
2020/01/31 12:53:16.0	112.580	0.590	-1.170	3.080
2020/01/31 12:53:16.1	112.580	0.590	-1.140	3.060
2020/01/31 12:53:16.2	112.580	0.580	-1.100	3.040
2020/01/31 12:53:16.3	112.570	0.560	-1.050	3.020
2020/01/31 12:53:16.4	112.570	0.550	-1.000	3.000
2020/01/31 12:53:16.5	112.580	0.530	-0.930	2.980
2020/01/31 12:53:16.6	112.580	0.500	-0.870	2.950
2020/01/31 12:53:16.7	112.580	0.480	-0.790	2.920
2020/01/31 12:53:16.8	112.580	0.450	-0.720	2.890
2020/01/31 12:53:16.9	112.580	0.420	-0.630	2.860
2020/01/31 12:53:17.0	112.580	0.380	-0.550	2.820
2020/01/31 12:53:17.1	112.590	0.350	-0.460	2.780
2020/01/31 12:53:17.2	112.590	0.310	-0.360	2.740
2020/01/31 12:53:17.3	112.600	0.270	-0.270	2.700
2020/01/31 12:53:17.4	112.600	0.220	-0.170	2.650
2020/01/31 12:53:17.5	112.610	0.180	-0.080	2.600
2020/01/31 12:53:17.6	112.610	0.130	0.010	2.550
2020/01/31 12:53:17.7	112.620	0.080	0.110	2.500
2020/01/31 12:53:17.8	112.620	0.040	0.200	2.450
2020/01/31 12:53:17.9	112.630	-0.010	0.290	2.390
2020/01/31 12:53:18.0	112.630	-0.060	0.380	2.330
2020/01/31 12:53:18.1	112.640	-0.110	0.460	2.270
2020/01/31 12:53:18.2	112.640	-0.160	0.540	2.210
2020/01/31 12:53:18.3	112.640	-0.210	0.610	2.150
2020/01/31 12:53:18.4	112.650	-0.260	0.680	2.080
2020/01/31 12:53:18.5	112.650	-0.300	0.750	2.010
2020/01/31 12:53:18.6	112.660	-0.350	0.800	1.950
2020/01/31 12:53:18.7	112.660	-0.390	0.850	1.870
2020/01/31 12:53:18.8	112.660	-0.430	0.890	1.800
2020/01/31 12:53:18.9	112.660	-0.470	0.920	1.730
2020/01/31 12:53:19.0	112.660	-0.500	0.950	1.650
2020/01/31 12:53:19.1	112.660	-0.540	0.960	1.570
2020/01/31 12:53:19.2	112.660	-0.570	0.970	1.490
2020/01/31 12:53:19.3	112.660	-0.590	0.960	1.410
2020/01/31 12:53:19.4	112.660	-0.610	0.950	1.330
2020/01/31 12:53:19.5	112.670	-0.630	0.930	1.240
2020/01/31 12:53:19.6	112.670	-0.640	0.900	1.160
2020/01/31 12:53:19.7	112.680	-0.650	0.870	1.070
2020/01/31 12:53:19.8	112.680	-0.660	0.820	0.990
2020/01/31 12:53:19.9	112.690	-0.660	0.770	0.900
2020/01/31 12:53:20.0	112.690	-0.660	0.710	0.810
2020/01/31 12:53:20.1	112.700	-0.650	0.640	0.720
2020/01/31 12:53:20.2	112.710	-0.640	0.570	0.630
2020/01/31 12:53:20.3	112.720	-0.630	0.490	0.540
2020/01/31 12:53:20.4	112.730	-0.610	0.410	0.450
2020/01/31 12:53:20.5	112.740	-0.590	0.320	0.350
2020/01/31 12:53:20.6	112.750	-0.560	0.230	0.270
2020/01/31 12:53:20.7	112.770	-0.540	0.140	0.180
2020/01/31 12:53:20.8	112.780	-0.500	0.040	0.090
2020/01/31 12:53:20.9	112.800	-0.470	-0.060	0.000
2020/01/31 12:53:21.0	112.820	-0.440	-0.150	-0.080
2020/01/31 12:53:21.1	112.830	-0.400	-0.250	-0.160
2020/01/31 12:53:21.2	112.850	-0.360	-0.350	-0.240
2020/01/31 12:53:21.3	112.860	-0.320	-0.440	-0.310
2020/01/31 12:53:21.4	112.880	-0.280	-0.540	-0.380
2020/01/31 12:53:21.5	112.890	-0.240	-0.630	-0.450
2020/01/31 12:53:21.6	112.900	-0.200	-0.720	-0.510
2020/01/31 12:53:21.7	112.910	-0.150	-0.800	-0.560
2020/01/31 12:53:21.8	112.920	-0.110	-0.870	-0.610
2020/01/31 12:53:21.9	112.920	-0.070	-0.940	-0.650
2020/01/31 12:53:22.0	112.920	-0.040	-1.010	-0.690
2020/01/31 12:53:22.1	112.920	0.000	-1.060	-0.720
2020/01/31 12:53:22.2	112.920	0.040	-1.110	-0.740
2020/01/31 12:53:22.3	112.920	0.070	-1.150	-0.760
2020/01/31 12:53:22.4	112.910	0.100	-1.180	-0.770
2020/01/31 12:53:22.5	112.900	0.130	-1.200	-0.780
2020/01/31 12:53:22.6	112.890	0.150	-1.220	-0.780
2020/01/31 12:53:22.7	112.880	0.170	-1.220	-0.770
2020/01/31 12:53:22.8	112.860	0.190	-1.210	-0.760
2020/01/31 12:53:22.9	112.850	0.210	-1.200	-0.750
2020/01/31 12:53:23.0	112.830	0.220	-1.170	-0.730
2020/01/31 12:53:23.1	112.810	0.230	-1.140	-0.710
2020/01/31 12:53:23.2	112.790	0.230	-1.100	-0.680
2020/01/31 12:53:23.3	112.770	0.230	-1.040	-0.650
2020/01/31 12:53:23.4	112.750	0.230	-0.980	-0.610
2020/01/31 12:53:23.5	112.740	0.220	-0.910	-0.570
2020/01/31 12:53:23.6	112.730	0.210	-0.840	-0.530
2020/01/31 12:53:23.7	112.710	0.200	-0.750	-0.490
2020/01/31 12:53:23.8	112.690	0.180	-0.670	-0.440
2020/01/31 12:53:23.9	112.670	0.160	-0.570	-0.390
2020/01/31 12:53:24.0	112.660	0.140	-0.480	-0.340
2020/01/31 12:53:24.1	112.650	0.120	-0.380	-0.280
2020/01/31 12:53:24.2	112.630	0.090	-0.280	-0.230
2020/01/31 12:53:24.3	112.620	0.060	-0.170	-0.170
2020/01/31 12:53:24.4	112.620	0.040	-0.070	-0.110
2020/01/31 12:53:24.5	112.610	0.010	0.030	-0.040
2020/01/31 12:53:24.6	112.600	-0.020	0.130	0.020
2020/01/31 12:53:24.7	112.600	-0.050	0.230	0.090
2020/01/31 12:53:24.8	112.600	-0.080	0.330	0.150
2020/01/31 12:53:24.9	112.600	-0.110	0.420	0.220
2020/01/31 12:53:25.0	112.610	-0.140	0.500	0.280
2020/01/31 12:53:25.1	112.610	-0.160	0.580	0.350
2020/01/31 12:53:25.2	112.620	-0.190	0.650	0.410
2020/01/31 12:53:25.3	112.630	-0.210	0.720	0.480
2020/01/31 12:53:25.4	112.640	-0.230	0.780	0.550
2020/01/31 12:53:25.5	112.650	-0.250	0.830	0.610
2020/01/31 12:53:25.6	112.670	-0.260	0.870	0.680
2020/01/31 12:53:25.7	112.680	-0.280	0.900	0.750
2020/01/31 12:53:25.8	112.690	-0.290	0.920	0.820
2020/01/31 12:53:25.9	112.710	-0.290	0.930	0.880
2020/01/31 12:53:26.0	112.720	-0.290	0.930	0.950
2020/01/31 12:53:26.1	112.730	-0.290	0.920	1.020
2020/01/31 12:53:26.2	112.750	-0.290	0.890	1.090
2020/01/31 12:53:26.3	112.760	-0.280	0.860	1.160
2020/01/31 12:53:26.4	112.770	-0.260	0.820	1.240
2020/01/31 12:53:26.5	112.780	-0.250	0.770	1.310
2020/01/31 12:53:26.6	112.790	-0.230	0.710	1.380
2020/01/31 12:53:26.7	112.800	-0.210	0.640	1.450
2020/01/31 12:53:26.8	112.810	-0.180	0.570	1.520
2020/01/31 12:53:26.9	112.820	-0.150	0.490	1.590
2020/01/31 12:53:27.0	112.830	-0.120	0.400	1.660
2020/01/31 12:53:27.1	112.840	-0.090	0.310	1.730
2020/01/31 12:53:27.2	112.850	-0.060	0.220	1.800
2020/01/31 12:53:27.3	112.850	-0.020	0.120	1.860
2020/01/31 12:53:27.4	112.860	0.020	0.020	1.930
2020/01/31 12:53:27.5	112.870	0.050	-0.080	1.990
2020/01/31 12:53:27.6	112.870	0.090	-0.190	2.060
2020/01/31 12:53:27.7	112.880	0.130	-0.280	2.120
2020/01/31 12:53:27.8	112.880	0.170	-0.380	2.170
2020/01/31 12:53:27.9	112.890	0.200	-0.470	2.230
2020/01/31 12:53:28.0	112.890	0.240	-0.570	2.280
2020/01/31 12:53:28.1	112.900	0.280	-0.650	2.330
2020/01/31 12:53:28.2	112.900	0.310	-0.730	2.380
2020/01/31 12:53:28.3	112.900	0.340	-0.800	2.420
2020/01/31 12:53:28.4	112.900	0.370	-0.870	2.470
2020/01/31 12:53:28.5	112.890	0.400	-0.930	2.500
2020/01/31 12:53:28.6	112.890	0.430	-0.980	2.540
2020/01/31 12:53:28.7	112.890	0.450	-1.020	2.580
2020/01/31 12:53:28.8	112.890	0.470	-1.060	2.610
2020/01/31 12:53:28.9	112.890	0.490	-1.080	2.650
2020/01/31 12:53:29.0	112.880	0.500	-1.100	2.680
2020/01/31 12:53:29.1	112.880	0.520	-1.100	2.700
2020/01/31 12:53:29.2	112.880	0.530	-1.100	2.730
2020/01/31 12:53:29.3	112.880	0.540	-1.090	2.750
2020/01/31 12:53:29.4	112.870	0.540	-1.070	2.780
2020/01/31 12:53:29.5	112.860	0.540	-1.040	2.800
2020/01/31 12:53:29.6	112.860	0.540	-1.010	2.820
2020/01/31 12:53:29.7	112.850	0.540	-0.970	2.830
2020/01/31 12:53:29.8	112.850	0.530	-0.920	2.850
2020/01/31 12:53:29.9	112.850	0.530	-0.860	2.860
2020/01/31 12:53:30.0	112.840	0.520	-0.800	2.870
2020/01/31 12:53:30.1	112.840	0.510	-0.730	2.870
2020/01/31 12:53:30.2	112.830	0.490	-0.660	2.880
2020/01/31 12:53:30.3	112.820	0.480	-0.590	2.880
2020/01/31 12:53:30.4	112.820	0.460	-0.520	2.880
2020/01/31 12:53:30.5	112.810	0.440	-0.440	2.880
2020/01/31 12:53:30.6	112.800	0.420	-0.360	2.870
2020/01/31 12:53:30.7	112.800	0.400	-0.290	2.870
2020/01/31 12:53:30.8	112.790	0.380	-0.210	2.860
2020/01/31 12:53:30.9	112.780	0.360	-0.140	2.850
2020/01/31 12:53:31.0	112.770	0.340	-0.070	2.840
2020/01/31 12:53:31.1	112.770	0.310	-0.010	2.830
2020/01/31 12:53:31.2	112.760	0.290	0.050	2.820
2020/01/31 12:53:31.3	112.750	0.270	0.110	2.800
2020/01/31 12:53:31.4	112.740	0.250	0.160	2.780
2020/01/31 12:53:31.5	112.730	0.230	0.210	2.760
2020/01/31 12:53:31.6	112.720	0.200	0.250	2.740
2020/01/31 12:53:31.7	112.710	0.180	0.280	2.720
2020/01/31 12:53:31.8	112.700	0.160	0.310	2.690
2020/01/31 12:53:31.9	112.690	0.140	0.330	2.670
2020/01/31 12:53:32.0	112.680	0.130	0.340	2.640
2020/01/31 12:53:32.1	112.670	0.110	0.350	2.610
2020/01/31 12:53:32.2	112.660	0.090	0.340	2.570
2020/01/31 12:53:32.3	112.650	0.080	0.340	2.540
2020/01/31 12:53:32.4	112.640	0.060	0.320	2.500
2020/01/31 12:53:32.5	112.630	0.050	0.310	2.460
2020/01/31 12:53:32.6	112.620	0.030	0.280	2.410
2020/01/31 12:53:32.7	112.610	0.020	0.250	2.370
2020/01/31 12:53:32.8	112.600	0.010	0.220	2.320
2020/01/31 12:53:32.9	112.590	-0.000	0.180	2.260
2020/01/31 12:53:33.0	112.580	-0.010	0.150	2.210
2020/01/31 12:53:33.1	112.570	-0.020	0.100	2.150
2020/01/31 12:53:33.2	112.560	-0.040	0.060	2.090
2020/01/31 12:53:33.3	112.560	-0.050	0.020	2.030
2020/01/31 12:53:33.4	112.550	-0.060	-0.030	1.960
2020/01/31 12:53:33.5	112.540	-0.070	-0.080	1.890
2020/01/31 12:53:33.6	112.540	-0.080	-0.120	1.820
2020/01/31 12:53:33.7	112.530	-0.090	-0.160	1.750
2020/01/31 12:53:33.8	112.530	-0.100	-0.210	1.670
2020/01/31 12:53:33.9	112.520	-0.110	-0.250	1.600
2020/01/31 12:53:34.0	112.510	-0.120	-0.280	1.530
2020/01/31 12:53:34.1	112.510	-0.130	-0.320	1.450
2020/01/31 12:53:34.2	112.500	-0.140	-0.350	1.380
2020/01/31 12:53:34.3	112.500	-0.150	-0.380	1.300
2020/01/31 12:53:34.4	112.500	-0.170	-0.400	1.220
2020/01/31 12:53:34.5	112.490	-0.180	-0.420	1.150
2020/01/31 12:53:34.6	112.480	-0.190	-0.440	1.070
2020/01/31 12:53:34.7	112.480	-0.200	-0.450	0.990
2020/01/31 12:53:34.8	112.480	-0.220	-0.450	0.910
2020/01/31 12:53:34.9	112.480	-0.230	-0.460	0.840
2020/01/31 12:53:35.0	112.470	-0.240	-0.450	0.760
2020/01/31 12:53:35.1	112.470	-0.260	-0.450	0.680
2020/01/31 12:53:35.2	112.470	-0.270	-0.440	0.610
2020/01/31 12:53:35.3	112.470	-0.280	-0.420	0.540
2020/01/31 12:53:35.4	112.470	-0.290	-0.410	0.460
2020/01/31 12:53:35.5	112.470	-0.300	-0.380	0.400
2020/01/31 12:53:35.6	112.470	-0.310	-0.360	0.330
2020/01/31 12:53:35.7	112.470	-0.320	-0.330	0.260
2020/01/31 12:53:35.8	112.470	-0.330	-0.300	0.200
2020/01/31 12:53:35.9	112.470	-0.340	-0.270	0.140
2020/01/31 12:53:36.0	112.470	-0.350	-0.240	0.090
2020/01/31 12:53:36.1	112.470	-0.350	-0.200	0.030
2020/01/31 12:53:36.2	112.480	-0.360	-0.170	-0.020
2020/01/31 12:53:36.3	112.480	-0.360	-0.130	-0.060
2020/01/31 12:53:36.4	112.480	-0.360	-0.100	-0.110
2020/01/31 12:53:36.5	112.470	-0.360	-0.070	-0.140
2020/01/31 12:53:36.6	112.470	-0.360	-0.030	-0.180
2020/01/31 12:53:36.7	112.480	-0.360	-0.000	-0.210
2020/01/31 12:53:36.8	112.480	-0.360	0.030	-0.240
2020/01/31 12:53:36.9	112.480	-0.350	0.060	-0.260
2020/01/31 12:53:37.0	112.480	-0.340	0.080	-0.280
2020/01/31 12:53:37.1	112.480	-0.340	0.100	-0.290
2020/01/31 12:53:37.2	112.480	-0.330	0.120	-0.300
2020/01/31 12:53:37.3	112.480	-0.320	0.140	-0.310
2020/01/31 12:53:37.4	112.480	-0.310	0.160	-0.310
2020/01/31 12:53:37.5	112.490	-0.290	0.170	-0.310
2020/01/31 12:53:37.6	112.490	-0.280	0.180	-0.300
2020/01/31 12:53:37.7	112.490	-0.270	0.180	-0.300
2020/01/31 12:53:37.8	112.490	-0.250	0.180	-0.290
2020/01/31 12:53:37.9	112.480	-0.240	0.180	-0.270
2020/01/31 12:53:38.0	112.480	-0.220	0.180	-0.260
2020/01/31 12:53:38.1	112.480	-0.210	0.170	-0.240
2020/01/31 12:53:38.2	112.480	-0.190	0.170	-0.220
2020/01/31 12:53:38.3	112.480	-0.170	0.150	-0.200
2020/01/31 12:53:38.4	112.480	-0.160	0.140	-0.170
2020/01/31 12:53:38.5	112.470	-0.140	0.120	-0.150
2020/01/31 12:53:38.6	112.470	-0.120	0.100	-0.120
2020/01/31 12:53:38.7	112.460	-0.110	0.080	-0.090
2020/01/31 12:53:38.8	112.460	-0.090	0.060	-0.060
2020/01/31 12:53:38.9	112.460	-0.070	0.040	-0.030
2020/01/31 12:53:39.0	112.460	-0.060	0.010	-0.000
2020/01/31 12:53:39.1	112.460	-0.040	-0.010	0.030
2020/01/31 12:53:39.2	112.460	-0.020	-0.040	0.060
2020/01/31 12:53:39.3	112.470	-0.010	-0.070	0.100
2020/01/31 12:53:39.4	112.470	0.010	-0.090	0.130
2020/01/31 12:53:39.5	112.470	0.020	-0.120	0.160
2020/01/31 12:53:39.6	112.470	0.040	-0.150	0.190
2020/01/31 12:53:39.7	112.470	0.050	-0.180	0.230
2020/01/31 12:53:39.8	112.480	0.070	-0.210	0.260
2020/01/31 12:53:39.9	112.480	0.080	-0.250	0.300
2020/01/31 12:53:40.0	112.480	0.090	-0.280	0.330
2020/01/31 12:53:40.1	112.490	0.110	-0.310	0.370
2020/01/31 12:53:40.2	112.490	0.120	-0.340	0.410
2020/01/31 12:53:40.3	112.490	0.130	-0.370	0.450
2020/01/31 12:53:40.4	112.500	0.140	-0.400	0.490
2020/01/31 12:53:40.5	112.500	0.150	-0.430	0.530
2020/01/31 12:53:40.6	112.500	0.160	-0.450	0.580
2020/01/31 12:53:40.7	112.510	0.170	-0.480	0.620
2020/01/31 12:53:40.8	112.510	0.180	-0.500	0.670
2020/01/31 12:53:40.9	112.510	0.190	-0.520	0.720
2020/01/31 12:53:41.0	112.520	0.200	-0.540	0.780
2020/01/31 12:53:41.1	112.520	0.210	-0.550	0.830
2020/01/31 12:53:41.2	112.520	0.210	-0.560	0.890
2020/01/31 12:53:41.3	112.520	0.220	-0.570	0.940
2020/01/31 12:53:41.4	112.530	0.220	-0.580	1.010
2020/01/31 12:53:41.5	112.510	0.230	-0.580	1.070
2020/01/31 12:53:41.6	112.510	0.230	-0.580	1.130
2020/01/31 12:53:41.7	112.510	0.240	-0.570	1.190
2020/01/31 12:53:41.8	112.510	0.240	-0.560	1.260
2020/01/31 12:53:41.9	112.510	0.240	-0.550	1.330
2020/01/31 12:53:42.0	112.510	0.240	-0.530	1.390
2020/01/31 12:53:42.1	112.500	0.240	-0.510	1.460
2020/01/31 12:53:42.2	112.500	0.240	-0.490	1.530
2020/01/31 12:53:42.3	112.500	0.240	-0.460	1.590
2020/01/31 12:53:42.4	112.500	0.240	-0.430	1.660
2020/01/31 12:53:42.5	112.490	0.240	-0.390	1.730
2020/01/31 12:53:42.6	112.480	0.230	-0.360	1.800
2020/01/31 12:53:42.7	112.480	0.230	-0.320	1.860
2020/01/31 12:53:42.8	112.470	0.220	-0.270	1.930
2020/01/31 12:53:42.9	112.470	0.220	-0.230	1.990
2020/01/31 12:53:43.0	112.460	0.210	-0.190	2.060
2020/01/31 12:53:43.1	112.450	0.210	-0.140	2.120
2020/01/31 12:53:43.2	112.450	0.200	-0.090	2.180
2020/01/31 12:53:43.3	112.440	0.190	-0.050	2.240
2020/01/31 12:53:43.4	112.430	0.180	-0.000	2.300
2020/01/31 12:53:43.5	112.430	0.180	0.050	2.360
2020/01/31 12:53:43.6	112.420	0.170	0.090	2.410
2020/01/31 12:53:43.7	112.410	0.160	0.130	2.460
2020/01/31 12:53:43.8	112.390	0.150	0.180	2.520
2020/01/31 12:53:43.9	112.380	0.140	0.210	2.560
2020/01/31 12:53:44.0	112.360	0.130	0.250	2.610
2020/01/31 12:53:44.1	112.350	0.120	0.280	2.650
2020/01/31 12:53:44.2	112.330	0.110	0.310	2.690
2020/01/31 12:53:44.3	112.310	0.100	0.340	2.730
2020/01/31 12:53:44.4	112.290	0.090	0.360	2.760
2020/01/31 12:53:44.5	112.280	0.080	0.380	2.790
2020/01/31 12:53:44.6	112.260	0.070	0.400	2.820
2020/01/31 12:53:44.7	112.240	0.060	0.410	2.840
2020/01/31 12:53:44.8	112.220	0.050	0.410	2.860
2020/01/31 12:53:44.9	112.200	0.040	0.420	2.880
2020/01/31 12:53:45.0	112.190	0.030	0.420	2.890
2020/01/31 12:53:45.1	112.170	0.020	0.410	2.890
2020/01/31 12:53:45.2	112.150	0.020	0.400	2.890
2020/01/31 12:53:45.3	112.130	0.010	0.390	2.890
2020/01/31 12:53:45.4	112.120	-0.000	0.370	2.880
2020/01/31 12:53:45.5	112.110	-0.010	0.340	2.870
2020/01/31 12:53:45.6	112.100	-0.020	0.320	2.860
2020/01/31 12:53:45.7	112.080	-0.030	0.290	2.840
2020/01/31 12:53:45.8	112.070	-0.030	0.260	2.810
2020/01/31 12:53:45.9	112.060	-0.040	0.220	2.780
2020/01/31 12:53:46.0	112.050	-0.050	0.190	2.750
2020/01/31 12:53:46.1	112.040	-0.050	0.150	2.720
2020/01/31 12:53:46.2	112.030	-0.060	0.100	2.680
2020/01/31 12:53:46.3	112.030	-0.060	0.060	2.640
2020/01/31 12:53:46.4	112.020	-0.070	0.010	2.600
2020/01/31 12:53:46.5	112.020	-0.070	-0.040	2.550
2020/01/31 12:53:46.6	112.010	-0.080	-0.090	2.500
2020/01/31 12:53:46.7	112.000	-0.080	-0.140	2.450
2020/01/31 12:53:46.8	111.990	-0.080	-0.190	2.400
2020/01/31 12:53:46.9	111.980	-0.080	-0.240	2.350
2020/01/31 12:53:47.0	111.980	-0.080	-0.290	2.300
2020/01/31 12:53:47.1	111.970	-0.080	-0.340	2.240
2020/01/31 12:53:47.2	111.960	-0.080	-0.390	2.190
2020/01/31 12:53:47.3	111.950	-0.080	-0.440	2.130
2020/01/31 12:53:47.4	111.940	-0.070	-0.480	2.080
2020/01/31 12:53:47.5	111.930	-0.070	-0.520	2.020
2020/01/31 12:53:47.6	111.920	-0.070	-0.570	1.960
2020/01/31 12:53:47.7	111.910	-0.060	-0.600	1.900
2020/01/31 12:53:47.8	111.910	-0.050	-0.640	1.840
2020/01/31 12:53:47.9	111.900	-0.050	-0.670	1.780
2020/01/31 12:53:48.0	111.900	-0.040	-0.700	1.720
2020/01/31 12:53:48.1	111.900	-0.030	-0.720	1.650
2020/01/31 12:53:48.2	111.900	-0.020	-0.740	1.590
2020/01/31 12:53:48.3	111.900	-0.010	-0.760	1.520
2020/01/31 12:53:48.4	111.910	-0.000	-0.770	1.450
2020/01/31 12:53:48.5	111.910	0.010	-0.780	1.380
2020/01/31 12:53:48.6	111.920	0.020	-0.780	1.310
2020/01/31 12:53:48.7	111.930	0.030	-0.780	1.240
2020/01/31 12:53:48.8	111.940	0.040	-0.780	1.160
2020/01/31 12:53:48.9	111.950	0.050	-0.770	1.090
2020/01/31 12:53:49.0	111.970	0.060	-0.760	1.010
2020/01/31 12:53:49.1	111.990	0.070	-0.750	0.940
2020/01/31 12:53:49.2	112.000	0.080	-0.730	0.860
2020/01/31 12:53:49.3	112.020	0.090	-0.710	0.780
2020/01/31 12:53:49.4	112.040	0.100	-0.690	0.710
2020/01/31 12:53:49.5	112.060	0.110	-0.660	0.630
2020/01/31 12:53:49.6	112.080	0.120	-0.630	0.560
2020/01/31 12:53:49.7	112.100	0.130	-0.610	0.490
2020/01/31 12:53:49.8	112.120	0.140	-0.570	0.420
2020/01/31 12:53:49.9	112.130	0.150	-0.540	0.350
2020/01/31 12:53:50.0	112.150	0.160	-0.510	0.290
2020/01/31 12:53:50.1	112.160	0.160	-0.480	0.230
2020/01/31 12:53:50.2	112.170	0.170	-0.450	0.170
2020/01/31 12:53:50.3	112.180	0.180	-0.410	0.110
2020/01/31 12:53:50.4	112.190	0.180	-0.380	0.060
2020/01/31 12:53:50.5	112.200	0.190	-0.350	0.020
2020/01/31 12:53:50.6	112.210	0.190	-0.320	-0.020
2020/01/31 12:53:50.7	112.210	0.190	-0.290	-0.060
2020/01/31 12:53:50.8	112.210	0.200	-0.260	-0.100
2020/01/31 12:53:50.9	112.210	0.200	-0.230	-0.130
2020/01/31 12:53:51.0	112.210	0.200	-0.200	-0.150
2020/01/31 12:53:51.1	112.210	0.190	-0.170	-0.170
2020/01/31 12:53:51.2	112.200	0.190	-0.140	-0.190
2020/01/31 12:53:51.3	112.190	0.190	-0.110	-0.200
2020/01/31 12:53:51.4	112.180	0.180	-0.090	-0.210
2020/01/31 12:53:51.5	112.170	0.170	-0.060	-0.210
2020/01/31 12:53:51.6	112.160	0.160	-0.040	-0.210
2020/01/31 12:53:51.7	112.140	0.150	-0.010	-0.200
2020/01/31 12:53:51.8	112.120	0.140	0.010	-0.190
2020/01/31 12:53:51.9	112.100	0.120	0.030	-0.170
2020/01/31 12:53:52.0	112.080	0.110	0.060	-0.150
2020/01/31 12:53:52.1	112.060	0.090	0.080	-0.120
2020/01/31 12:53:52.2	112.040	0.070	0.100	-0.100
2020/01/31 12:53:52.3	112.010	0.050	0.120	-0.060
2020/01/31 12:53:52.4	111.990	0.030	0.140	-0.030
2020/01/31 12:53:52.5	111.960	0.010	0.160	0.010
2020/01/31 12:53:52.6	111.930	-0.010	0.180	0.050
2020/01/31 12:53:52.7	111.900	-0.040	0.200	0.100
2020/01/31 12:53:52.8	111.880	-0.060	0.220	0.140
2020/01/31 12:53:52.9	111.850	-0.090	0.230	0.190
2020/01/31 12:53:53.0	111.820	-0.110	0.250	0.240
2020/01/31 12:53:53.1	111.800	-0.130	0.260	0.290
2020/01/31 12:53:53.2	111.770	-0.160	0.270	0.340
2020/01/31 12:53:53.3	111.750	-0.180	0.280	0.400
2020/01/31 12:53:53.4	111.730	-0.200	0.290	0.450
2020/01/31 12:53:53.5	111.700	-0.230	0.300	0.510
2020/01/31 12:53:53.6	111.680	-0.250	0.310	0.560
2020/01/31 12:53:53.7	111.650	-0.270	0.310	0.620
2020/01/31 12:53:53.8	111.630	-0.280	0.310	0.680
2020/01/31 12:53:53.9	111.610	-0.300	0.310	0.740
2020/01/31 12:53:54.0	111.590	-0.320	0.310	0.790
2020/01/31 12:53:54.1	111.570	-0.330	0.300	0.850
2020/01/31 12:53:54.2	111.560	-0.340	0.300	0.910
2020/01/31 12:53:54.3	111.540	-0.350	0.290	0.970
2020/01/31 12:53:54.4	111.520	-0.360	0.280	1.030
2020/01/31 12:53:54.5	111.510	-0.360	0.260	1.090
2020/01/31 12:53:54.6	111.500	-0.370	0.240	1.150
2020/01/31 12:53:54.7	111.490	-0.370	0.230	1.200
2020/01/31 12:53:54.8	111.480	-0.370	0.210	1.260
2020/01/31 12:53:54.9	111.470	-0.360	0.190	1.310
2020/01/31 12:53:55.0	111.460	-0.360	0.160	1.360
2020/01/31 12:53:55.1	111.460	-0.350	0.140	1.410
2020/01/31 12:53:55.2	111.460	-0.340	0.120	1.460
2020/01/31 12:53:55.3	111.460	-0.330	0.090	1.500
2020/01/31 12:53:55.4	111.460	-0.320	0.070	1.550
2020/01/31 12:53:55.5	111.470	-0.310	0.040	1.590
2020/01/31 12:53:55.6	111.470	-0.300	0.010	1.620
2020/01/31 12:53:55.7	111.480	-0.280	-0.010	1.660
2020/01/31 12:53:55.8	111.490	-0.270	-0.040	1.690
2020/01/31 12:53:55.9	111.510	-0.250	-0.060	1.720
2020/01/31 12:53:56.0	111.520	-0.230	-0.090	1.750
2020/01/31 12:53:56.1	111.540	-0.220	-0.120	1.770
2020/01/31 12:53:56.2	111.560	-0.200	-0.140	1.790
2020/01/31 12:53:56.3	111.580	-0.180	-0.160	1.810
2020/01/31 12:53:56.4	111.600	-0.160	-0.190	1.830
2020/01/31 12:53:56.5	111.630	-0.150	-0.220	1.840
2020/01/31 12:53:56.6	111.660	-0.130	-0.240	1.860
2020/01/31 12:53:56.7	111.680	-0.120	-0.260	1.870
2020/01/31 12:53:56.8	111.710	-0.100	-0.280	1.880
2020/01/31 12:53:56.9	111.730	-0.090	-0.300	1.890
2020/01/31 12:53:57.0	111.750	-0.070	-0.310	1.900
2020/01/31 12:53:57.1	111.770	-0.060	-0.330	1.910
2020/01/31 12:53:57.2	111.790	-0.050	-0.340	1.910
2020/01/31 12:53:57.3	111.810	-0.040	-0.360	1.920
2020/01/31 12:53:57.4	111.820	-0.030	-0.370	1.930
2020/01/31 12:53:57.5	111.830	-0.020	-0.380	1.930
2020/01/31 12:53:57.6	111.840	-0.010	-0.390	1.940
2020/01/31 12:53:57.7	111.840	0.000	-0.400	1.950
2020/01/31 12:53:57.8	111.850	0.010	-0.410	1.950
2020/01/31 12:53:57.9	111.850	0.010	-0.420	1.960
2020/01/31 12:53:58.0	111.840	0.020	-0.430	1.970
2020/01/31 12:53:58.1	111.840	0.020	-0.440	1.980
2020/01/31 12:53:58.2	111.830	0.030	-0.450	1.990
2020/01/31 12:53:58.3	111.820	0.030	-0.460	2.000
2020/01/31 12:53:58.4	111.810	0.040	-0.460	2.010
2020/01/31 12:53:58.5	111.800	0.040	-0.470	2.010
2020/01/31 12:53:58.6	111.780	0.050	-0.470	2.030
2020/01/31 12:53:58.7	111.760	0.050	-0.480	2.040
2020/01/31 12:53:58.8	111.740	0.050	-0.480	2.050
2020/01/31 12:53:58.9	111.720	0.060	-0.480	2.060
2020/01/31 12:53:59.0	111.700	0.060	-0.480	2.070
2020/01/31 12:53:59.1	111.680	0.070	-0.480	2.080
2020/01/31 12:53:59.2	111.660	0.070	-0.480	2.090
2020/01/31 12:53:59.3	111.640	0.080	-0.480	2.090
2020/01/31 12:53:59.4	111.620	0.080	-0.470	2.100
2020/01/31 12:53:59.5	111.600	0.090	-0.470	2.100
2020/01/31 12:53:59.6	111.590	0.100	-0.460	2.100
2020/01/31 12:53:59.7	111.570	0.110	-0.450	2.100
2020/01/31 12:53:59.8	111.560	0.120	-0.440	2.090
2020/01/31 12:53:59.9	111.540	0.120	-0.420	2.080
2020/01/31 12:54:00.0	111.530	0.130	-0.410	2.070
2020/01/31 12:54:00.1	111.520	0.140	-0.390	2.060
2020/01/31 12:54:00.2	111.510	0.150	-0.370	2.050
2020/01/31 12:54:00.3	111.510	0.160	-0.350	2.030
2020/01/31 12:54:00.4	111.500	0.170	-0.330	2.010
2020/01/31 12:54:00.5	111.490	0.180	-0.300	1.980
2020/01/31 12:54:00.6	111.480	0.190	-0.280	1.960
2020/01/31 12:54:00.7	111.480	0.200	-0.250	1.930
2020/01/31 12:54:00.8	111.480	0.210	-0.230	1.910
2020/01/31 12:54:00.9	111.470	0.210	-0.200	1.880
2020/01/31 12:54:01.0	111.470	0.220	-0.170	1.850
2020/01/31 12:54:01.1	111.470	0.230	-0.150	1.820
2020/01/31 12:54:01.2	111.460	0.230	-0.120	1.780
2020/01/31 12:54:01.3	111.460	0.240	-0.090	1.750
2020/01/31 12:54:01.4	111.450	0.240	-0.060	1.710
2020/01/31 12:54:01.5	111.440	0.250	-0.040	1.670
2020/01/31 12:54:01.6	111.430	0.250	-0.010	1.640
2020/01/31 12:54:01.7	111.420	0.250	0.020	1.600
2020/01/31 12:54:01.8	111.410	0.250	0.040	1.570
2020/01/31 12:54:01.9	111.400	0.250	0.060	1.530
2020/01/31 12:54:02.0	111.390	0.250	0.090	1.490
2020/01/31 12:54:02.1	111.380	0.250	0.110	1.450
2020/01/31 12:54:02.2	111.360	0.240	0.130	1.410
2020/01/31 12:54:02.3	111.350	0.240	0.150	1.370
2020/01/31 12:54:02.4	111.330	0.230	0.160	1.330
2020/01/31 12:54:02.5	111.310	0.230	0.180	1.290
2020/01/31 12:54:02.6	111.300	0.220	0.190	1.240
2020/01/31 12:54:02.7	111.280	0.210	0.210	1.200
2020/01/31 12:54:02.8	111.260	0.200	0.220	1.160
2020/01/31 12:54:02.9	111.240	0.190	0.220	1.110
2020/01/31 12:54:03.0	111.220	0.190	0.230	1.070
2020/01/31 12:54:03.1	111.190	0.180	0.230	1.020
2020/01/31 12:54:03.2	111.170	0.170	0.230	0.970
2020/01/31 12:54:03.3	111.150	0.160	0.230	0.930
2020/01/31 12:54:03.4	111.120	0.150	0.220	0.880
2020/01/31 12:54:03.5	111.110	0.140	0.210	0.830
2020/01/31 12:54:03.6	111.090	0.130	0.190	0.790
2020/01/31 12:54:03.7	111.060	0.120	0.180	0.740
2020/01/31 12:54:03.8	111.040	0.110	0.150	0.690
2020/01/31 12:54:03.9	111.020	0.110	0.130	0.650
2020/01/31 12:54:04.0	110.990	0.100	0.100	0.610
2020/01/31 12:54:04.1	110.970	0.090	0.070	0.560
2020/01/31 12:54:04.2	110.950	0.080	0.030	0.520
2020/01/31 12:54:04.3	110.930	0.080	-0.010	0.480
2020/01/31 12:54:04.4	110.910	0.070	-0.050	0.440
2020/01/31 12:54:04.5	110.890	0.070	-0.090	0.410
2020/01/31 12:54:04.6	110.880	0.060	-0.140	0.370
2020/01/31 12:54:04.7	110.860	0.060	-0.190	0.340
2020/01/31 12:54:04.8	110.850	0.060	-0.240	0.310
2020/01/31 12:54:04.9	110.830	0.060	-0.290	0.280
2020/01/31 12:54:05.0	110.820	0.050	-0.340	0.250
2020/01/31 12:54:05.1	110.810	0.050	-0.390	0.220
2020/01/31 12:54:05.2	110.810	0.050	-0.430	0.200
2020/01/31 12:54:05.3	110.800	0.050	-0.480	0.180
2020/01/31 12:54:05.4	110.800	0.040	-0.530	0.160
2020/01/31 12:54:05.5	110.800	0.040	-0.570	0.140
2020/01/31 12:54:05.6	110.800	0.040	-0.610	0.130
2020/01/31 12:54:05.7	110.810	0.040	-0.640	0.110
2020/01/31 12:54:05.8	110.810	0.040	-0.680	0.100
2020/01/31 12:54:05.9	110.820	0.030	-0.700	0.090
2020/01/31 12:54:06.0	110.830	0.030	-0.720	0.080
2020/01/31 12:54:06.1	110.840	0.030	-0.740	0.070
2020/01/31 12:54:06.2	110.850	0.020	-0.750	0.070
2020/01/31 12:54:06.3	110.870	0.020	-0.760	0.070
2020/01/31 12:54:06.4	110.880	0.010	-0.760	0.070
2020/01/31 12:54:06.5	110.880	0.010	-0.750	0.070
2020/01/31 12:54:06.6	110.890	0.000	-0.740	0.080
2020/01/31 12:54:06.7	110.910	-0.010	-0.720	0.090
2020/01/31 12:54:06.8	110.920	-0.010	-0.690	0.100
2020/01/31 12:54:06.9	110.930	-0.020	-0.660	0.120
2020/01/31 12:54:07.0	110.940	-0.030	-0.630	0.130
2020/01/31 12:54:07.1	110.960	-0.040	-0.590	0.150
2020/01/31 12:54:07.2	110.970	-0.050	-0.540	0.180
2020/01/31 12:54:07.3	110.980	-0.060	-0.490	0.200
2020/01/31 12:54:07.4	110.990	-0.070	-0.440	0.230
2020/01/31 12:54:07.5	111.010	-0.080	-0.390	0.260
2020/01/31 12:54:07.6	111.020	-0.090	-0.340	0.300
2020/01/31 12:54:07.7	111.030	-0.100	-0.280	0.330
2020/01/31 12:54:07.8	111.040	-0.120	-0.220	0.370
2020/01/31 12:54:07.9	111.050	-0.130	-0.160	0.410
2020/01/31 12:54:08.0	111.060	-0.140	-0.100	0.450
2020/01/31 12:54:08.1	111.060	-0.150	-0.050	0.490
2020/01/31 12:54:08.2	111.070	-0.170	0.010	0.530
2020/01/31 12:54:08.3	111.080	-0.180	0.070	0.580
2020/01/31 12:54:08.4	111.080	-0.190	0.120	0.630
2020/01/31 12:54:08.5	111.080	-0.200	0.170	0.670
2020/01/31 12:54:08.6	111.080	-0.220	0.220	0.720
2020/01/31 12:54:08.7	111.080	-0.230	0.260	0.780
2020/01/31 12:54:08.8	111.080	-0.240	0.300	0.830
2020/01/31 12:54:08.9	111.080	-0.250	0.330	0.880
2020/01/31 12:54:09.0	111.070	-0.260	0.360	0.940
2020/01/31 12:54:09.1	111.070	-0.260	0.390	0.990
2020/01/31 12:54:09.2	111.060	-0.270	0.410	1.050
2020/01/31 12:54:09.3	111.050	-0.270	0.420	1.110
2020/01/31 12:54:09.4	111.040	-0.280	0.430	1.170
2020/01/31 12:54:09.5	111.020	-0.280	0.430	1.230
2020/01/31 12:54:09.6	111.010	-0.280	0.430	1.290
2020/01/31 12:54:09.7	110.990	-0.280	0.420	1.350
2020/01/31 12:54:09.8	110.980	-0.280	0.410	1.400
2020/01/31 12:54:09.9	110.960	-0.280	0.400	1.460
2020/01/31 12:54:10.0	110.940	-0.280	0.370	1.520
2020/01/31 12:54:10.1	110.920	-0.270	0.350	1.580
2020/01/31 12:54:10.2	110.890	-0.270	0.320	1.640
2020/01/31 12:54:10.3	110.870	-0.260	0.280	1.700
2020/01/31 12:54:10.4	110.840	-0.250	0.250	1.760
2020/01/31 12:54:10.5	110.810	-0.240	0.200	1.810
2020/01/31 12:54:10.6	110.790	-0.230	0.160	1.870
2020/01/31 12:54:10.7	110.760	-0.210	0.110	1.920
2020/01/31 12:54:10.8	110.730	-0.200	0.060	1.970
2020/01/31 12:54:10.9	110.700	-0.190	0.010	2.020
2020/01/31 12:54:11.0	110.670	-0.170	-0.040	2.070
2020/01/31 12:54:11.1	110.640	-0.160	-0.090	2.120
2020/01/31 12:54:11.2	110.610	-0.140	-0.130	2.160
2020/01/31 12:54:11.3	110.590	-0.120	-0.180	2.200
2020/01/31 12:54:11.4	110.560	-0.110	-0.230	2.240
2020/01/31 12:54:11.5	110.540	-0.090	-0.270	2.270
2020/01/31 12:54:11.6	110.520	-0.070	-0.310	2.300
2020/01/31 12:54:11.7	110.500	-0.060	-0.350	2.320
2020/01/31 12:54:11.8	110.480	-0.040	-0.380	2.350
2020/01/31 12:54:11.9	110.460	-0.030	-0.410	2.360
2020/01/31 12:54:12.0	110.440	-0.020	-0.430	2.380
2020/01/31 12:54:12.1	110.430	-0.000	-0.450	2.390
2020/01/31 12:54:12.2	110.410	0.010	-0.470	2.400
2020/01/31 12:54:12.3	110.400	0.020	-0.480	2.400
2020/01/31 12:54:12.4	110.390	0.030	-0.480	2.400
2020/01/31 12:54:12.5	110.380	0.030	-0.480	2.390
2020/01/31 12:54:12.6	110.380	0.040	-0.480	2.390
2020/01/31 12:54:12.7	110.380	0.040	-0.470	2.380
2020/01/31 12:54:12.8	110.380	0.050	-0.460	2.360
2020/01/31 12:54:12.9	110.380	0.050	-0.440	2.340
2020/01/31 12:54:13.0	110.380	0.050	-0.420	2.320
2020/01/31 12:54:13.1	110.380	0.040	-0.390	2.300
2020/01/31 12:54:13.2	110.390	0.040	-0.360	2.270
2020/01/31 12:54:13.3	110.390	0.040	-0.330	2.240
2020/01/31 12:54:13.4	110.400	0.030	-0.300	2.210
2020/01/31 12:54:13.5	110.410	0.020	-0.260	2.170
2020/01/31 12:54:13.6	110.420	0.020	-0.220	2.130
2020/01/31 12:54:13.7	110.430	0.010	-0.190	2.090
2020/01/31 12:54:13.8	110.440	-0.000	-0.150	2.050
2020/01/31 12:54:13.9	110.450	-0.010	-0.110	2.000
2020/01/31 12:54:14.0	110.450	-0.020	-0.080	1.950
2020/01/31 12:54:14.1	110.460	-0.030	-0.040	1.900
2020/01/31 12:54:14.2	110.470	-0.040	-0.010	1.850
2020/01/31 12:54:14.3	110.480	-0.050	0.020	1.800
2020/01/31 12:54:14.4	110.490	-0.060	0.040	1.740
2020/01/31 12:54:14.5	110.500	-0.070	0.070	1.680
2020/01/31 12:54:14.6	110.510	-0.080	0.090	1.620
2020/01/31 12:54:14.7	110.520	-0.090	0.110	1.560
2020/01/31 12:54:14.8	110.530	-0.100	0.120	1.500
2020/01/31 12:54:14.9	110.540	-0.100	0.130	1.440
2020/01/31 12:54:15.0	110.550	-0.110	0.130	1.380
2020/01/31 12:54:15.1	110.560	-0.110	0.130	1.320
2020/01/31 12:54:15.2	110.570	-0.110	0.130	1.250
2020/01/31 12:54:15.3	110.580	-0.110	0.120	1.190
2020/01/31 12:54:15.4	110.590	-0.110	0.100	1.130
2020/01/31 12:54:15.5	110.590	-0.110	0.080	1.060
2020/01/31 12:54:15.6	110.600	-0.110	0.060	1.000
2020/01/31 12:54:15.7	110.610	-0.100	0.030	0.940
2020/01/31 12:54:15.8	110.610	-0.090	-0.000	0.880
2020/01/31 12:54:15.9	110.620	-0.080	-0.040	0.830
2020/01/31 12:54:16.0	110.620	-0.070	-0.070	0.770
2020/01/31 12:54:16.1	110.620	-0.060	-0.110	0.720
2020/01/31 12:54:16.2	110.620	-0.050	-0.160	0.670
2020/01/31 12:54:16.3	110.620	-0.030	-0.200	0.630
2020/01/31 12:54:16.4	110.620	-0.010	-0.250	0.590
2020/01/31 12:54:16.5	110.610	0.000	-0.290	0.550
2020/01/31 12:54:16.6	110.600	0.020	-0.340	0.510
2020/01/31 12:54:16.7	110.600	0.040	-0.390	0.480
2020/01/31 12:54:16.8	110.580	0.060	-0.430	0.450
2020/01/31 12:54:16.9	110.570	0.080	-0.480	0.430
2020/01/31 12:54:17.0	110.550	0.100	-0.520	0.410
2020/01/31 12:54:17.1	110.540	0.130	-0.560	0.400
2020/01/31 12:54:17.2	110.520	0.150	-0.600	0.390
2020/01/31 12:54:17.3	110.500	0.170	-0.630	0.380
2020/01/31 12:54:17.4	110.470	0.190	-0.660	0.370
2020/01/31 12:54:17.5	110.450	0.200	-0.690	0.380
2020/01/31 12:54:17.6	110.430	0.220	-0.710	0.380
2020/01/31 12:54:17.7	110.400	0.240	-0.720	0.380
2020/01/31 12:54:17.8	110.380	0.250	-0.730	0.390
2020/01/31 12:54:17.9	110.350	0.270	-0.740	0.400
2020/01/31 12:54:18.0	110.320	0.280	-0.740	0.410
2020/01/31 12:54:18.1	110.300	0.290	-0.730	0.420
2020/01/31 12:54:18.2	110.270	0.300	-0.720	0.430
2020/01/31 12:54:18.3	110.250	0.310	-0.710	0.440
2020/01/31 12:54:18.4	110.220	0.310	-0.690	0.450
2020/01/31 12:54:18.5	110.190	0.320	-0.660	0.470
2020/01/31 12:54:18.6	110.170	0.320	-0.630	0.480
2020/01/31 12:54:18.7	110.150	0.320	-0.590	0.490
2020/01/31 12:54:18.8	110.140	0.320	-0.560	0.510
2020/01/31 12:54:18.9	110.120	0.310	-0.510	0.520
2020/01/31 12:54:19.0	110.110	0.310	-0.470	0.530
2020/01/31 12:54:19.1	110.090	0.300	-0.420	0.540
2020/01/31 12:54:19.2	110.080	0.290	-0.370	0.550
2020/01/31 12:54:19.3	110.080	0.280	-0.320	0.570
2020/01/31 12:54:19.4	110.070	0.270	-0.270	0.580
2020/01/31 12:54:19.5	110.060	0.260	-0.210	0.590
2020/01/31 12:54:19.6	110.050	0.250	-0.160	0.600
2020/01/31 12:54:19.7	110.050	0.230	-0.110	0.610
2020/01/31 12:54:19.8	110.050	0.220	-0.050	0.620
2020/01/31 12:54:19.9	110.040	0.200	-0.000	0.630
2020/01/31 12:54:20.0	110.040	0.180	0.050	0.640
2020/01/31 12:54:20.1	110.040	0.170	0.090	0.650
2020/01/31 12:54:20.2	110.040	0.150	0.140	0.660
2020/01/31 12:54:20.3	110.050	0.130	0.180	0.670
2020/01/31 12:54:20.4	110.050	0.120	0.220	0.680
2020/01/31 12:54:20.5	110.060	0.100	0.260	0.690
2020/01/31 12:54:20.6	110.060	0.080	0.290	0.700
2020/01/31 12:54:20.7	110.060	0.070	0.320	0.710
2020/01/31 12:54:20.8	110.070	0.050	0.340	0.720
2020/01/31 12:54:20.9	110.070	0.040	0.370	0.730
2020/01/31 12:54:21.0	110.070	0.020	0.380	0.740
2020/01/31 12:54:21.1	110.070	0.010	0.400	0.750
2020/01/31 12:54:21.2	110.070	0.000	0.410	0.770
2020/01/31 12:54:21.3	110.070	-0.010	0.410	0.780
2020/01/31 12:54:21.4	110.070	-0.020	0.410	0.790
2020/01/31 12:54:21.5	110.070	-0.030	0.410	0.800
2020/01/31 12:54:21.6	110.070	-0.040	0.410	0.810
2020/01/31 12:54:21.7	110.060	-0.040	0.400	0.820
2020/01/31 12:54:21.8	110.060	-0.050	0.390	0.830
2020/01/31 12:54:21.9	110.060	-0.060	0.370	0.840
2020/01/31 12:54:22.0	110.060	-0.060	0.360	0.850
2020/01/31 12:54:22.1	110.060	-0.060	0.340	0.860
2020/01/31 12:54:22.2	110.060	-0.070	0.320	0.860
2020/01/31 12:54:22.3	110.060	-0.070	0.290	0.870
2020/01/31 12:54:22.4	110.060	-0.070	0.270	0.880
2020/01/31 12:54:22.5	110.070	-0.070	0.250	0.880
2020/01/31 12:54:22.6	110.070	-0.080	0.220	0.880
2020/01/31 12:54:22.7	110.070	-0.080	0.190	0.890
2020/01/31 12:54:22.8	110.070	-0.080	0.170	0.900
2020/01/31 12:54:22.9	110.070	-0.080	0.140	0.900
2020/01/31 12:54:23.0	110.070	-0.080	0.120	0.910
2020/01/31 12:54:23.1	110.080	-0.080	0.090	0.910
2020/01/31 12:54:23.2	110.080	-0.090	0.060	0.920
2020/01/31 12:54:23.3	110.080	-0.090	0.040	0.930
2020/01/31 12:54:23.4	110.090	-0.090	0.010	0.940
2020/01/31 12:54:23.5	110.080	-0.100	-0.010	0.950
2020/01/31 12:54:23.6	110.080	-0.100	-0.040	0.960
2020/01/31 12:54:23.7	110.090	-0.100	-0.060	0.980
2020/01/31 12:54:23.8	110.090	-0.110	-0.080	1.000
2020/01/31 12:54:23.9	110.090	-0.110	-0.110	1.010
2020/01/31 12:54:24.0	110.090	-0.120	-0.130	1.040
2020/01/31 12:54:24.1	110.090	-0.120	-0.150	1.060
2020/01/31 12:54:24.2	110.090	-0.130	-0.170	1.080
2020/01/31 12:54:24.3	110.100	-0.130	-0.190	1.110
2020/01/31 12:54:24.4	110.100	-0.140	-0.220	1.140
2020/01/31 12:54:24.5	110.090	-0.140	-0.240	1.170
2020/01/31 12:54:24.6	110.090	-0.140	-0.260	1.210
2020/01/31 12:54:24.7	110.090	-0.150	-0.290	1.240
2020/01/31 12:54:24.8	110.080	-0.150	-0.310	1.280
2020/01/31 12:54:24.9	110.080	-0.150	-0.340	1.320
2020/01/31 12:54:25.0	110.080	-0.150	-0.360	1.360
2020/01/31 12:54:25.1	110.070	-0.150	-0.390	1.400
2020/01/31 12:54:25.2	110.060	-0.150	-0.420	1.440
2020/01/31 12:54:25.3	110.060	-0.150	-0.450	1.480
2020/01/31 12:54:25.4	110.050	-0.140	-0.480	1.520
2020/01/31 12:54:25.5	110.040	-0.140	-0.510	1.570
2020/01/31 12:54:25.6	110.030	-0.130	-0.540	1.610
2020/01/31 12:54:25.7	110.020	-0.120	-0.570	1.660
2020/01/31 12:54:25.8	110.010	-0.110	-0.600	1.700
2020/01/31 12:54:25.9	110.000	-0.100	-0.640	1.740
2020/01/31 12:54:26.0	109.980	-0.090	-0.670	1.780
2020/01/31 12:54:26.1	109.970	-0.080	-0.700	1.820
2020/01/31 12:54:26.2	109.960	-0.060	-0.730	1.860
2020/01/31 12:54:26.3	109.940	-0.050	-0.760	1.900
2020/01/31 12:54:26.4	109.930	-0.030	-0.790	1.930
2020/01/31 12:54:26.5	109.920	-0.020	-0.820	1.970
2020/01/31 12:54:26.6	109.900	-0.000	-0.840	2.000
2020/01/31 12:54:26.7	109.890	0.010	-0.860	2.030
2020/01/31 12:54:26.8	109.880	0.030	-0.880	2.050
2020/01/31 12:54:26.9	109.860	0.040	-0.890	2.080
2020/01/31 12:54:27.0	109.850	0.050	-0.900	2.100
2020/01/31 12:54:27.1	109.840	0.070	-0.910	2.120
2020/01/31 12:54:27.2	109.830	0.080	-0.910	2.130
2020/01/31 12:54:27.3	109.820	0.090	-0.910	2.150
2020/01/31 12:54:27.4	109.810	0.100	-0.900	2.160
2020/01/31 12:54:27.5	109.810	0.110	-0.890	2.170
2020/01/31 12:54:27.6	109.810	0.110	-0.870	2.180
2020/01/31 12:54:27.7	109.800	0.120	-0.850	2.190
2020/01/31 12:54:27.8	109.800	0.120	-0.820	2.190
2020/01/31 12:54:27.9	109.790	0.120	-0.790	2.200
2020/01/31 12:54:28.0	109.790	0.120	-0.760	2.200
2020/01/31 12:54:28.1	109.790	0.110	-0.720	2.200
2020/01/31 12:54:28.2	109.790	0.110	-0.670	2.200
2020/01/31 12:54:28.3	109.790	0.100	-0.620	2.200
2020/01/31 12:54:28.4	109.790	0.090	-0.570	2.190
2020/01/31 12:54:28.5	109.790	0.080	-0.510	2.190
2020/01/31 12:54:28.6	109.800	0.070	-0.450	2.180
2020/01/31 12:54:28.7	109.800	0.050	-0.380	2.170
2020/01/31 12:54:28.8	109.810	0.040	-0.310	2.150
2020/01/31 12:54:28.9	109.810	0.020	-0.240	2.140
2020/01/31 12:54:29.0	109.820	0.000	-0.170	2.120
2020/01/31 12:54:29.1	109.830	-0.020	-0.090	2.100
2020/01/31 12:54:29.2	109.840	-0.040	-0.010	2.080
2020/01/31 12:54:29.3	109.850	-0.060	0.070	2.050
2020/01/31 12:54:29.4	109.860	-0.080	0.150	2.020
2020/01/31 12:54:29.5	109.870	-0.100	0.230	1.990
2020/01/31 12:54:29.6	109.880	-0.130	0.310	1.950
2020/01/31 12:54:29.7	109.900	-0.150	0.380	1.910
2020/01/31 12:54:29.8	109.910	-0.170	0.460	1.870
2020/01/31 12:54:29.9	109.920	-0.190	0.530	1.830
2020/01/31 12:54:30.0	109.930	-0.220	0.600	1.790
2020/01/31 12:54:30.1	109.950	-0.240	0.670	1.740
2020/01/31 12:54:30.2	109.960	-0.260	0.730	1.690
2020/01/31 12:54:30.3	109.970	-0.280	0.790	1.630
2020/01/31 12:54:30.4	109.980	-0.290	0.840	1.580
2020/01/31 12:54:30.5	109.990	-0.310	0.890	1.520
2020/01/31 12:54:30.6	110.000	-0.330	0.930	1.460
2020/01/31 12:54:30.7	110.020	-0.340	0.960	1.400
2020/01/31 12:54:30.8	110.030	-0.350	0.990	1.330
2020/01/31 12:54:30.9	110.030	-0.360	1.010	1.270
2020/01/31 12:54:31.0	110.040	-0.370	1.020	1.200
2020/01/31 12:54:31.1	110.050	-0.380	1.030	1.140
2020/01/31 12:54:31.2	110.060	-0.380	1.030	1.070
2020/01/31 12:54:31.3	110.060	-0.390	1.020	1.000
2020/01/31 12:54:31.4	110.070	-0.390	1.000	0.930
2020/01/31 12:54:31.5	110.080	-0.390	0.980	0.860
2020/01/31 12:54:31.6	110.090	-0.390	0.950	0.800
2020/01/31 12:54:31.7	110.090	-0.380	0.910	0.730
2020/01/31 12:54:31.8	110.090	-0.370	0.870	0.670
2020/01/31 12:54:31.9	110.090	-0.360	0.820	0.600
2020/01/31 12:54:32.0	110.090	-0.350	0.770	0.540
2020/01/31 12:54:32.1	110.090	-0.340	0.700	0.480
2020/01/31 12:54:32.2	110.080	-0.330	0.640	0.420
2020/01/31 12:54:32.3	110.080	-0.310	0.570	0.360
2020/01/31 12:54:32.4	110.080	-0.290	0.500	0.310
2020/01/31 12:54:32.5	110.080	-0.270	0.420	0.260
2020/01/31 12:54:32.6	110.070	-0.250	0.340	0.200
2020/01/31 12:54:32.7	110.060	-0.230	0.250	0.150
2020/01/31 12:54:32.8	110.060	-0.210	0.170	0.110
2020/01/31 12:54:32.9	110.050	-0.180	0.090	0.060
2020/01/31 12:54:33.0	110.040	-0.160	0.000	0.020
2020/01/31 12:54:33.1	110.030	-0.130	-0.090	-0.020
2020/01/31 12:54:33.2	110.020	-0.110	-0.170	-0.060
2020/01/31 12:54:33.3	110.000	-0.080	-0.260	-0.100
2020/01/31 12:54:33.4	109.990	-0.050	-0.340	-0.130
2020/01/31 12:54:33.5	109.980	-0.030	-0.420	-0.170
2020/01/31 12:54:33.6	109.970	0.000	-0.500	-0.200
2020/01/31 12:54:33.7	109.950	0.030	-0.580	-0.220
2020/01/31 12:54:33.8	109.940	0.060	-0.650	-0.250
2020/01/31 12:54:33.9	109.920	0.080	-0.720	-0.270
2020/01/31 12:54:34.0	109.910	0.110	-0.790	-0.290
2020/01/31 12:54:34.1	109.890	0.130	-0.850	-0.300
2020/01/31 12:54:34.2	109.870	0.160	-0.910	-0.310
2020/01/31 12:54:34.3	109.860	0.180	-0.960	-0.320
2020/01/31 12:54:34.4	109.840	0.200	-1.010	-0.320
2020/01/31 12:54:34.5	109.810	0.220	-1.060	-0.320
2020/01/31 12:54:34.6	109.790	0.240	-1.090	-0.320
2020/01/31 12:54:34.7	109.780	0.260	-1.130	-0.310
2020/01/31 12:54:34.8	109.760	0.280	-1.150	-0.300
2020/01/31 12:54:34.9	109.740	0.290	-1.180	-0.280
2020/01/31 12:54:35.0	109.730	0.300	-1.190	-0.270
2020/01/31 12:54:35.1	109.710	0.320	-1.200	-0.240
2020/01/31 12:54:35.2	109.690	0.330	-1.210	-0.220
2020/01/31 12:54:35.3	109.680	0.340	-1.210	-0.190
2020/01/31 12:54:35.4	109.660	0.340	-1.200	-0.150
2020/01/31 12:54:35.5	109.640	0.350	-1.190	-0.120
2020/01/31 12:54:35.6	109.630	0.350	-1.180	-0.080
2020/01/31 12:54:35.7	109.620	0.360	-1.160	-0.040
2020/01/31 12:54:35.8	109.610	0.360	-1.140	0.010
2020/01/31 12:54:35.9	109.600	0.360	-1.110	0.050
2020/01/31 12:54:36.0	109.600	0.360	-1.080	0.100
2020/01/31 12:54:36.1	109.590	0.360	-1.040	0.150
2020/01/31 12:54:36.2	109.590	0.350	-1.000	0.200
2020/01/31 12:54:36.3	109.590	0.350	-0.960	0.250
2020/01/31 12:54:36.4	109.590	0.340	-0.920	0.300
2020/01/31 12:54:36.5	109.590	0.340	-0.870	0.350
2020/01/31 12:54:36.6	109.600	0.330	-0.820	0.410
2020/01/31 12:54:36.7	109.600	0.320	-0.770	0.460
2020/01/31 12:54:36.8	109.610	0.320	-0.710	0.510
2020/01/31 12:54:36.9	109.620	0.310	-0.660	0.560
2020/01/31 12:54:37.0	109.630	0.300	-0.600	0.610
2020/01/31 12:54:37.1	109.640	0.290	-0.550	0.670
2020/01/31 12:54:37.2	109.660	0.280	-0.490	0.720
2020/01/31 12:54:37.3	109.670	0.270	-0.430	0.770
2020/01/31 12:54:37.4	109.690	0.260	-0.370	0.820
2020/01/31 12:54:37.5	109.710	0.250	-0.320	0.870
2020/01/31 12:54:37.6	109.720	0.240	-0.260	0.920
2020/01/31 12:54:37.7	109.740	0.230	-0.200	0.970
2020/01/31 12:54:37.8	109.750	0.220	-0.150	1.020
2020/01/31 12:54:37.9	109.770	0.210	-0.090	1.060
2020/01/31 12:54:38.0	109.790	0.200	-0.040	1.110
2020/01/31 12:54:38.1	109.810	0.200	0.010	1.160
2020/01/31 12:54:38.2	109.820	0.190	0.060	1.210
2020/01/31 12:54:38.3	109.840	0.180	0.100	1.250
2020/01/31 12:54:38.4	109.860	0.170	0.150	1.300
2020/01/31 12:54:38.5	109.880	0.170	0.190	1.340
2020/01/31 12:54:38.6	109.900	0.160	0.230	1.390
2020/01/31 12:54:38.7	109.910	0.160	0.270	1.430
2020/01/31 12:54:38.8	109.930	0.150	0.300	1.470
2020/01/31 12:54:38.9	109.940	0.150	0.330	1.510
2020/01/31 12:54:39.0	109.960	0.140	0.360	1.550
2020/01/31 12:54:39.1	109.970	0.140	0.380	1.590
2020/01/31 12:54:39.2	109.980	0.130	0.400	1.630
2020/01/31 12:54:39.3	109.990	0.130	0.420	1.670
2020/01/31 12:54:39.4	110.000	0.120	0.430	1.700
2020/01/31 12:54:39.5	110.030	0.120	0.450	1.740
2020/01/31 12:54:39.6	110.040	0.110	0.450	1.780
2020/01/31 12:54:39.7	110.040	0.110	0.460	1.810
2020/01/31 12:54:39.8	110.050	0.110	0.460	1.850
2020/01/31 12:54:39.9	110.050	0.100	0.460	1.880
2020/01/31 12:54:40.0	110.060	0.100	0.460	1.920
2020/01/31 12:54:40.1	110.060	0.090	0.450	1.950
2020/01/31 12:54:40.2	110.060	0.080	0.440	1.980
2020/01/31 12:54:40.3	110.050	0.080	0.430	2.020
2020/01/31 12:54:40.4	110.050	0.070	0.420	2.050
2020/01/31 12:54:40.5	110.040	0.060	0.400	2.070
2020/01/31 12:54:40.6	110.040	0.050	0.380	2.110
2020/01/31 12:54:40.7	110.030	0.040	0.370	2.140
2020/01/31 12:54:40.8	110.020	0.030	0.350	2.160
2020/01/31 12:54:40.9	110.010	0.020	0.330	2.190
2020/01/31 12:54:41.0	109.990	0.010	0.300	2.220
2020/01/31 12:54:41.1	109.980	-0.000	0.280	2.250
2020/01/31 12:54:41.2	109.960	-0.020	0.260	2.270
2020/01/31 12:54:41.3	109.950	-0.030	0.230	2.290
2020/01/31 12:54:41.4	109.930	-0.050	0.210	2.310
2020/01/31 12:54:41.5	109.890	-0.060	0.180	2.330
2020/01/31 12:54:41.6	109.870	-0.080	0.150	2.350
2020/01/31 12:54:41.7	109.850	-0.100	0.130	2.360
2020/01/31 12:54:41.8	109.830	-0.120	0.100	2.370
2020/01/31 12:54:41.9	109.810	-0.140	0.080	2.380
2020/01/31 12:54:42.0	109.790	-0.160	0.050	2.390
2020/01/31 12:54:42.1	109.760	-0.180	0.030	2.390
2020/01/31 12:54:42.2	109.740	-0.200	0.010	2.390
2020/01/31 12:54:42.3	109.720	-0.220	-0.010	2.380
2020/01/31 12:54:42.4	109.710	-0.240	-0.030	2.380
2020/01/31 12:54:42.5	109.680	-0.260	-0.050	2.360
2020/01/31 12:54:42.6	109.670	-0.290	-0.070	2.350
2020/01/31 12:54:42.7	109.650	-0.310	-0.080	2.330
2020/01/31 12:54:42.8	109.640	-0.330	-0.100	2.310
2020/01/31 12:54:42.9	109.630	-0.350	-0.110	2.290
2020/01/31 12:54:43.0	109.630	-0.380	-0.120	2.260
2020/01/31 12:54:43.1	109.620	-0.400	-0.130	2.240
2020/01/31 12:54:43.2	109.620	-0.420	-0.140	2.210
2020/01/31 12:54:43.3	109.620	-0.440	-0.150	2.180
2020/01/31 12:54:43.4	109.620	-0.460	-0.160	2.140
2020/01/31 12:54:43.5	109.630	-0.470	-0.170	2.100
2020/01/31 12:54:43.6	109.630	-0.490	-0.170	2.060
2020/01/31 12:54:43.7	109.640	-0.500	-0.180	2.020
2020/01/31 12:54:43.8	109.650	-0.520	-0.190	1.980
2020/01/31 12:54:43.9	109.660	-0.530	-0.200	1.940
2020/01/31 12:54:44.0	109.680	-0.540	-0.210	1.890
2020/01/31 12:54:44.1	109.690	-0.550	-0.230	1.850
2020/01/31 12:54:44.2	109.700	-0.550	-0.240	1.800
2020/01/31 12:54:44.3	109.720	-0.550	-0.260	1.760
2020/01/31 12:54:44.4	109.740	-0.550	-0.270	1.710
2020/01/31 12:54:44.5	109.740	-0.550	-0.290	1.660
2020/01/31 12:54:44.6	109.760	-0.550	-0.310	1.610
2020/01/31 12:54:44.7	109.780	-0.540	-0.340	1.560
2020/01/31 12:54:44.8	109.800	-0.530	-0.360	1.510
2020/01/31 12:54:44.9	109.810	-0.510	-0.390	1.460
2020/01/31 12:54:45.0	109.830	-0.500	-0.410	1.410
2020/01/31 12:54:45.1	109.850	-0.480	-0.440	1.360
2020/01/31 12:54:45.2	109.870	-0.460	-0.470	1.310
2020/01/31 12:54:45.3	109.890	-0.440	-0.500	1.250
2020/01/31 12:54:45.4	109.900	-0.420	-0.530	1.200
2020/01/31 12:54:45.5	109.930	-0.390	-0.550	1.150
2020/01/31 12:54:45.6	109.940	-0.360	-0.580	1.100
2020/01/31 12:54:45.7	109.960	-0.330	-0.610	1.050
2020/01/31 12:54:45.8	109.970	-0.300	-0.630	1.000
2020/01/31 12:54:45.9	109.990	-0.270	-0.650	0.940
2020/01/31 12:54:46.0	110.000	-0.240	-0.670	0.890
2020/01/31 12:54:46.1	110.010	-0.200	-0.690	0.840
2020/01/31 12:54:46.2	110.020	-0.170	-0.710	0.790
2020/01/31 12:54:46.3	110.030	-0.140	-0.720	0.750
2020/01/31 12:54:46.4	110.040	-0.100	-0.720	0.700
2020/01/31 12:54:46.5	110.040	-0.070	-0.730	0.650
2020/01/31 12:54:46.6	110.050	-0.040	-0.730	0.610
2020/01/31 12:54:46.7	110.050	-0.010	-0.720	0.570
2020/01/31 12:54:46.8	110.050	0.020	-0.710	0.520
2020/01/31 12:54:46.9	110.060	0.050	-0.700	0.490
2020/01/31 12:54:47.0	110.060	0.080	-0.680	0.450
2020/01/31 12:54:47.1	110.060	0.110	-0.660	0.410
2020/01/31 12:54:47.2	110.060	0.130	-0.630	0.380
2020/01/31 12:54:47.3	110.050	0.160	-0.600	0.350
2020/01/31 12:54:47.4	110.050	0.180	-0.560	0.320
2020/01/31 12:54:47.5	110.050	0.200	-0.520	0.300
2020/01/31 12:54:47.6	110.050	0.220	-0.480	0.270
2020/01/31 12:54:47.7	110.040	0.230	-0.430	0.250
2020/01/31 12:54:47.8	110.040	0.250	-0.390	0.230
2020/01/31 12:54:47.9	110.030	0.260	-0.340	0.220
2020/01/31 12:54:48.0	110.020	0.270	-0.280	0.200
2020/01/31 12:54:48.1	110.010	0.280	-0.230	0.190
2020/01/31 12:54:48.2	110.000	0.290	-0.180	0.180
2020/01/31 12:54:48.3	109.990	0.290	-0.120	0.170
2020/01/31 12:54:48.4	109.980	0.290	-0.070	0.160
2020/01/31 12:54:48.5	109.980	0.300	-0.010	0.160
2020/01/31 12:54:48.6	109.970	0.300	0.040	0.150
2020/01/31 12:54:48.7	109.960	0.290	0.100	0.150
2020/01/31 12:54:48.8	109.940	0.290	0.150	0.150
2020/01/31 12:54:48.9	109.930	0.290	0.190	0.150
2020/01/31 12:54:49.0	109.920	0.280	0.240	0.150
2020/01/31 12:54:49.1	109.910	0.280	0.280	0.150
2020/01/31 12:54:49.2	109.900	0.270	0.320	0.160
2020/01/31 12:54:49.3	109.890	0.270	0.360	0.160
2020/01/31 12:54:49.4	109.880	0.260	0.390	0.170
2020/01/31 12:54:49.5	109.870	0.250	0.420	0.180
2020/01/31 12:54:49.6	109.860	0.240	0.450	0.190
2020/01/31 12:54:49.7	109.850	0.230	0.470	0.200
2020/01/31 12:54:49.8	109.840	0.220	0.490	0.210
2020/01/31 12:54:49.9	109.830	0.210	0.500	0.220
2020/01/31 12:54:50.0	109.820	0.200	0.510	0.230
2020/01/31 12:54:50.1	109.820	0.190	0.510	0.240
2020/01/31 12:54:50.2	109.810	0.180	0.510	0.250
2020/01/31 12:54:50.3	109.800	0.170	0.510	0.260
2020/01/31 12:54:50.4	109.800	0.160	0.500	0.270
2020/01/31 12:54:50.5	109.800	0.150	0.480	0.290
2020/01/31 12:54:50.6	109.790	0.140	0.460	0.300
2020/01/31 12:54:50.7	109.790	0.130	0.440	0.310
2020/01/31 12:54:50.8	109.790	0.120	0.410	0.320
2020/01/31 12:54:50.9	109.790	0.110	0.380	0.340
2020/01/31 12:54:51.0	109.790	0.100	0.340	0.350
2020/01/31 12:54:51.1	109.790	0.100	0.300	0.360
2020/01/31 12:54:51.2	109.790	0.090	0.260	0.380
2020/01/31 12:54:51.3	109.790	0.080	0.220	0.400
2020/01/31 12:54:51.4	109.800	0.080	0.170	0.410
2020/01/31 12:54:51.5	109.790	0.070	0.110	0.430
2020/01/31 12:54:51.6	109.800	0.070	0.060	0.450
2020/01/31 12:54:51.7	109.800	0.070	0.000	0.470
2020/01/31 12:54:51.8	109.810	0.070	-0.050	0.490
2020/01/31 12:54:51.9	109.810	0.070	-0.110	0.520
2020/01/31 12:54:52.0	109.820	0.070	-0.170	0.550
2020/01/31 12:54:52.1	109.820	0.070	-0.230	0.570
2020/01/31 12:54:52.2	109.830	0.070	-0.290	0.600
2020/01/31 12:54:52.3	109.830	0.080	-0.350	0.630
2020/01/31 12:54:52.4	109.840	0.080	-0.400	0.670
2020/01/31 12:54:52.5	109.850	0.090	-0.460	0.700
2020/01/31 12:54:52.6	109.850	0.100	-0.510	0.740
2020/01/31 12:54:52.7	109.860	0.110	-0.560	0.780
2020/01/31 12:54:52.8	109.860	0.120	-0.610	0.820
2020/01/31 12:54:52.9	109.870	0.130	-0.650	0.860
2020/01/31 12:54:53.0	109.870	0.140	-0.690	0.910
2020/01/31 12:54:53.1	109.880	0.150	-0.730	0.950
2020/01/31 12:54:53.2	109.880	0.170	-0.760	1.000
2020/01/31 12:54:53.3	109.880	0.180	-0.790	1.050
2020/01/31 12:54:53.4	109.880	0.190	-0.820	1.110
2020/01/31 12:54:53.5	109.900	0.210	-0.840	1.160
2020/01/31 12:54:53.6	109.900	0.220	-0.850	1.220
2020/01/31 12:54:53.7	109.900	0.240	-0.860	1.270
2020/01/31 12:54:53.8	109.900	0.250	-0.870	1.330
2020/01/31 12:54:53.9	109.900	0.260	-0.870	1.390
2020/01/31 12:54:54.0	109.900	0.270	-0.870	1.450
2020/01/31 12:54:54.1	109.900	0.280	-0.860	1.520
2020/01/31 12:54:54.2	109.900	0.290	-0.850	1.580
2020/01/31 12:54:54.3	109.900	0.300	-0.830	1.640
2020/01/31 12:54:54.4	109.890	0.310	-0.810	1.700
2020/01/31 12:54:54.5	109.890	0.310	-0.790	1.770
2020/01/31 12:54:54.6	109.890	0.320	-0.760	1.830
2020/01/31 12:54:54.7	109.880	0.320	-0.730	1.890
2020/01/31 12:54:54.8	109.880	0.320	-0.690	1.950
2020/01/31 12:54:54.9	109.870	0.310	-0.650	2.020
2020/01/31 12:54:55.0	109.870	0.310	-0.610	2.080
2020/01/31 12:54:55.1	109.860	0.300	-0.560	2.130
2020/01/31 12:54:55.2	109.860	0.300	-0.520	2.190
2020/01/31 12:54:55.3	109.850	0.280	-0.470	2.250
2020/01/31 12:54:55.4	109.840	0.270	-0.420	2.300
2020/01/31 12:54:55.5	109.840	0.260	-0.370	2.350
2020/01/31 12:54:55.6	109.830	0.240	-0.320	2.400
2020/01/31 12:54:55.7	109.820	0.230	-0.270	2.450
2020/01/31 12:54:55.8	109.810	0.210	-0.220	2.490
2020/01/31 12:54:55.9	109.800	0.190	-0.170	2.540
2020/01/31 12:54:56.0	109.790	0.160	-0.120	2.570
2020/01/31 12:54:56.1	109.790	0.140	-0.070	2.610
2020/01/31 12:54:56.2	109.780	0.120	-0.020	2.640
2020/01/31 12:54:56.3	109.780	0.090	0.020	2.660
2020/01/31 12:54:56.4	109.770	0.070	0.070	2.690
2020/01/31 12:54:56.5	109.770	0.040	0.110	2.700
2020/01/31 12:54:56.6	109.770	0.020	0.150	2.710
2020/01/31 12:54:56.7	109.770	-0.010	0.180	2.720
2020/01/31 12:54:56.8	109.770	-0.030	0.220	2.720
2020/01/31 12:54:56.9	109.770	-0.060	0.250	2.720
2020/01/31 12:54:57.0	109.770	-0.080	0.280	2.710
2020/01/31 12:54:57.1	109.770	-0.110	0.300	2.700
2020/01/31 12:54:57.2	109.780	-0.130	0.320	2.680
2020/01/31 12:54:57.3	109.780	-0.150	0.340	2.650
2020/01/31 12:54:57.4	109.790	-0.180	0.360	2.620
2020/01/31 12:54:57.5	109.800	-0.200	0.370	2.590
2020/01/31 12:54:57.6	109.810	-0.220	0.380	2.550
2020/01/31 12:54:57.7	109.820	-0.240	0.390	2.500
2020/01/31 12:54:57.8	109.830	-0.260	0.390	2.450
2020/01/31 12:54:57.9	109.840	-0.280	0.390	2.400
2020/01/31 12:54:58.0	109.850	-0.290	0.390	2.340
2020/01/31 12:54:58.1	109.860	-0.310	0.390	2.280
2020/01/31 12:54:58.2	109.870	-0.320	0.380	2.210
2020/01/31 12:54:58.3	109.880	-0.340	0.380	2.140
2020/01/31 12:54:58.4	109.900	-0.350	0.370	2.070
2020/01/31 12:54:58.5	109.910	-0.360	0.360	1.990
2020/01/31 12:54:58.6	109.920	-0.370	0.340	1.920
2020/01/31 12:54:58.7	109.930	-0.370	0.330	1.840
2020/01/31 12:54:58.8	109.940	-0.380	0.310	1.760
2020/01/31 12:54:58.9	109.950	-0.390	0.290	1.690
2020/01/31 12:54:59.0	109.960	-0.390	0.270	1.610
2020/01/31 12:54:59.1	109.960	-0.390	0.250	1.530
2020/01/31 12:54:59.2	109.970	-0.400	0.230	1.460
2020/01/31 12:54:59.3	109.970	-0.400	0.200	1.380
2020/01/31 12:54:59.4	109.980	-0.400	0.180	1.310
2020/01/31 12:54:59.5	109.980	-0.400	0.140	1.240
2020/01/31 12:54:59.6	109.980	-0.400	0.110	1.170
2020/01/31 12:54:59.7	109.980	-0.390	0.080	1.110
2020/01/31 12:54:59.8	109.980	-0.390	0.050	1.050
2020/01/31 12:54:59.9	109.980	-0.390	0.020	0.990
2020/01/31 12:55:00.0	109.980	-0.380	-0.020	0.930
2020/01/31 12:55:00.1	109.970	-0.380	-0.060	0.880
2020/01/31 12:55:00.2	109.970	-0.370	-0.090	0.830
2020/01/31 12:55:00.3	109.960	-0.360	-0.130	0.780
2020/01/31 12:55:00.4	109.950	-0.360	-0.170	0.730
2020/01/31 12:55:00.5	109.930	-0.350	-0.210	0.690
2020/01/31 12:55:00.6	109.920	-0.340	-0.240	0.650
2020/01/31 12:55:00.7	109.920	-0.340	-0.280	0.610
2020/01/31 12:55:00.8	109.910	-0.330	-0.320	0.580
2020/01/31 12:55:00.9	109.900	-0.320	-0.350	0.540
2020/01/31 12:55:01.0	109.890	-0.310	-0.380	0.510
2020/01/31 12:55:01.1	109.880	-0.300	-0.420	0.480
2020/01/31 12:55:01.2	109.870	-0.300	-0.450	0.450
2020/01/31 12:55:01.3	109.860	-0.290	-0.470	0.430
2020/01/31 12:55:01.4	109.850	-0.280	-0.500	0.400
2020/01/31 12:55:01.5	109.860	-0.270	-0.520	0.370
2020/01/31 12:55:01.6	109.850	-0.270	-0.540	0.350
2020/01/31 12:55:01.7	109.850	-0.260	-0.560	0.320
2020/01/31 12:55:01.8	109.840	-0.250	-0.580	0.300
2020/01/31 12:55:01.9	109.840	-0.240	-0.590	0.270
2020/01/31 12:55:02.0	109.840	-0.240	-0.600	0.250
2020/01/31 12:55:02.1	109.840	-0.230	-0.600	0.230
2020/01/31 12:55:02.2	109.840	-0.230	-0.610	0.200
2020/01/31 12:55:02.3	109.850	-0.220	-0.600	0.180
2020/01/31 12:55:02.4	109.850	-0.210	-0.600	0.150
2020/01/31 12:55:02.5	109.860	-0.210	-0.590	0.130
2020/01/31 12:55:02.6	109.870	-0.200	-0.580	0.100
2020/01/31 12:55:02.7	109.880	-0.200	-0.570	0.080
2020/01/31 12:55:02.8	109.890	-0.190	-0.550	0.060
2020/01/31 12:55:02.9	109.890	-0.180	-0.520	0.030
2020/01/31 12:55:03.0	109.900	-0.180	-0.500	0.010
2020/01/31 12:55:03.1	109.910	-0.170	-0.470	-0.000
2020/01/31 12:55:03.2	109.920	-0.170	-0.440	-0.020
2020/01/31 12:55:03.3	109.930	-0.160	-0.410	-0.040
2020/01/31 12:55:03.4	109.940	-0.150	-0.380	-0.050
2020/01/31 12:55:03.5	109.950	-0.150	-0.340	-0.060
2020/01/31 12:55:03.6	109.960	-0.140	-0.300	-0.060
2020/01/31 12:55:03.7	109.960	-0.130	-0.270	-0.070
2020/01/31 12:55:03.8	109.970	-0.120	-0.230	-0.070
2020/01/31 12:55:03.9	109.980	-0.110	-0.190	-0.060
2020/01/31 12:55:04.0	109.980	-0.100	-0.160	-0.060
2020/01/31 12:55:04.1	109.990	-0.090	-0.120	-0.050
2020/01/31 12:55:04.2	109.990	-0.080	-0.090	-0.030
2020/01/31 12:55:04.3	109.990	-0.070	-0.060	-0.020
2020/01/31 12:55:04.4	109.990	-0.050	-0.030	0.000
2020/01/31 12:55:04.5	109.980	-0.040	0.000	0.030
2020/01/31 12:55:04.6	109.980	-0.020	0.020	0.060
2020/01/31 12:55:04.7	109.970	-0.000	0.040	0.080
2020/01/31 12:55:04.8	109.970	0.020	0.060	0.110
2020/01/31 12:55:04.9	109.960	0.040	0.080	0.150
2020/01/31 12:55:05.0	109.960	0.060	0.090	0.180
2020/01/31 12:55:05.1	109.950	0.080	0.090	0.210
2020/01/31 12:55:05.2	109.940	0.100	0.100	0.240
2020/01/31 12:55:05.3	109.940	0.130	0.090	0.280
2020/01/31 12:55:05.4	109.930	0.150	0.090	0.310
2020/01/31 12:55:05.5	109.930	0.180	0.080	0.340
2020/01/31 12:55:05.6	109.920	0.200	0.070	0.370
2020/01/31 12:55:05.7	109.910	0.230	0.060	0.400
2020/01/31 12:55:05.8	109.910	0.260	0.040	0.430
2020/01/31 12:55:05.9	109.900	0.290	0.020	0.460
2020/01/31 12:55:06.0	109.890	0.320	-0.000	0.490
2020/01/31 12:55:06.1	109.880	0.350	-0.020	0.510
2020/01/31 12:55:06.2	109.870	0.370	-0.050	0.540
2020/01/31 12:55:06.3	109.860	0.400	-0.080	0.570
2020/01/31 12:55:06.4	109.850	0.430	-0.110	0.590
2020/01/31 12:55:06.5	109.840	0.460	-0.140	0.620
2020/01/31 12:55:06.6	109.830	0.480	-0.160	0.640
2020/01/31 12:55:06.7	109.820	0.510	-0.190	0.670
2020/01/31 12:55:06.8	109.810	0.530	-0.220	0.690
2020/01/31 12:55:06.9	109.790	0.560	-0.250	0.720
2020/01/31 12:55:07.0	109.780	0.580	-0.280	0.750
2020/01/31 12:55:07.1	109.770	0.600	-0.310	0.780
2020/01/31 12:55:07.2	109.760	0.620	-0.330	0.810
2020/01/31 12:55:07.3	109.750	0.630	-0.350	0.840
2020/01/31 12:55:07.4	109.740	0.650	-0.370	0.870
2020/01/31 12:55:07.5	109.740	0.660	-0.390	0.900
2020/01/31 12:55:07.6	109.730	0.670	-0.410	0.930
2020/01/31 12:55:07.7	109.720	0.670	-0.420	0.970
2020/01/31 12:55:07.8	109.710	0.680	-0.430	1.010
2020/01/31 12:55:07.9	109.710	0.680	-0.430	1.040
2020/01/31 12:55:08.0	109.700	0.670	-0.440	1.080
2020/01/31 12:55:08.1	109.700	0.670	-0.440	1.120
2020/01/31 12:55:08.2	109.700	0.660	-0.430	1.160
2020/01/31 12:55:08.3	109.690	0.650	-0.420	1.200
2020/01/31 12:55:08.4	109.690	0.640	-0.410	1.240
2020/01/31 12:55:08.5	109.700	0.620	-0.400	1.290
2020/01/31 12:55:08.6	109.700	0.600	-0.380	1.330
2020/01/31 12:55:08.7	109.710	0.580	-0.360	1.370
2020/01/31 12:55:08.8	109.710	0.550	-0.340	1.420
2020/01/31 12:55:08.9	109.720	0.530	-0.310	1.460
2020/01/31 12:55:09.0	109.730	0.500	-0.280	1.510
2020/01/31 12:55:09.1	109.740	0.470	-0.250	1.550
2020/01/31 12:55:09.2	109.750	0.430	-0.220	1.590
2020/01/31 12:55:09.3	109.760	0.400	-0.190	1.640
2020/01/31 12:55:09.4	109.770	0.360	-0.150	1.680
2020/01/31 12:55:09.5	109.780	0.320	-0.120	1.720
2020/01/31 12:55:09.6	109.800	0.280	-0.090	1.760
2020/01/31 12:55:09.7	109.810	0.240	-0.050	1.800
2020/01/31 12:55:09.8	109.830	0.200	-0.010	1.840
2020/01/31 12:55:09.9	109.850	0.160	0.020	1.870
2020/01/31 12:55:10.0	109.870	0.120	0.060	1.910
2020/01/31 12:55:10.1	109.890	0.070	0.090	1.940
2020/01/31 12:55:10.2	109.910	0.030	0.130	1.970
2020/01/31 12:55:10.3	109.930	-0.010	0.160	2.000
2020/01/31 12:55:10.4	109.950	-0.050	0.190	2.020
2020/01/31 12:55:10.5	109.970	-0.090	0.210	2.040
2020/01/31 12:55:10.6	110.000	-0.130	0.240	2.060
2020/01/31 12:55:10.7	110.020	-0.170	0.260	2.080
2020/01/31 12:55:10.8	110.040	-0.200	0.290	2.090
2020/01/31 12:55:10.9	110.070	-0.240	0.310	2.110
2020/01/31 12:55:11.0	110.090	-0.270	0.320	2.120
2020/01/31 12:55:11.1	110.110	-0.300	0.340	2.120
2020/01/31 12:55:11.2	110.130	-0.330	0.350	2.130
2020/01/31 12:55:11.3	110.160	-0.350	0.350	2.130
2020/01/31 12:55:11.4	110.170	-0.380	0.360	2.130
2020/01/31 12:55:11.5	110.180	-0.400	0.360	2.140
2020/01/31 12:55:11.6	110.190	-0.420	0.360	2.140
2020/01/31 12:55:11.7	110.210	-0.430	0.350	2.130
2020/01/31 12:55:11.8	110.220	-0.450	0.340	2.130
2020/01/31 12:55:11.9	110.230	-0.460	0.330	2.120
2020/01/31 12:55:12.0	110.240	-0.460	0.310	2.120
2020/01/31 12:55:12.1	110.240	-0.470	0.280	2.110
2020/01/31 12:55:12.2	110.250	-0.470	0.260	2.110
2020/01/31 12:55:12.3	110.250	-0.470	0.230	2.100
2020/01/31 12:55:12.4	110.250	-0.470	0.190	2.090
2020/01/31 12:55:12.5	110.250	-0.460	0.150	2.080
2020/01/31 12:55:12.6	110.240	-0.450	0.110	2.080
2020/01/31 12:55:12.7	110.230	-0.440	0.060	2.070
2020/01/31 12:55:12.8	110.230	-0.430	0.020	2.060
2020/01/31 12:55:12.9	110.210	-0.410	-0.040	2.060
2020/01/31 12:55:13.0	110.200	-0.390	-0.090	2.050
2020/01/31 12:55:13.1	110.180	-0.370	-0.140	2.050
2020/01/31 12:55:13.2	110.170	-0.350	-0.200	2.050
2020/01/31 12:55:13.3	110.150	-0.330	-0.260	2.040
2020/01/31 12:55:13.4	110.130	-0.300	-0.320	2.040
2020/01/31 12:55:13.5	110.110	-0.270	-0.380	2.040
2020/01/31 12:55:13.6	110.090	-0.250	-0.440	2.040
2020/01/31 12:55:13.7	110.070	-0.220	-0.500	2.030
2020/01/31 12:55:13.8	110.050	-0.190	-0.550	2.030
2020/01/31 12:55:13.9	110.020	-0.160	-0.610	2.030
2020/01/31 12:55:14.0	110.000	-0.140	-0.660	2.030
2020/01/31 12:55:14.1	109.980	-0.110	-0.720	2.020
2020/01/31 12:55:14.2	109.960	-0.080	-0.760	2.020
2020/01/31 12:55:14.3	109.940	-0.060	-0.810	2.010
2020/01/31 12:55:14.4	109.920	-0.030	-0.850	2.000
2020/01/31 12:55:14.5	109.900	-0.010	-0.880	1.990
2020/01/31 12:55:14.6	109.890	0.010	-0.910	1.980
2020/01/31 12:55:14.7	109.870	0.030	-0.940	1.970
2020/01/31 12:55:14.8	109.850	0.050	-0.950	1.950
2020/01/31 12:55:14.9	109.840	0.060	-0.960	1.940
2020/01/31 12:55:15.0	109.830	0.070	-0.970	1.920
2020/01/31 12:55:15.1	109.820	0.080	-0.960	1.890
2020/01/31 12:55:15.2	109.810	0.090	-0.950	1.870
2020/01/31 12:55:15.3	109.800	0.090	-0.930	1.840
2020/01/31 12:55:15.4	109.800	0.090	-0.910	1.800
2020/01/31 12:55:15.5	109.800	0.090	-0.870	1.770
2020/01/31 12:55:15.6	109.800	0.080	-0.830	1.730
2020/01/31 12:55:15.7	109.800	0.070	-0.790	1.690
2020/01/31 12:55:15.8	109.810	0.060	-0.740	1.640
2020/01/31 12:55:15.9	109.820	0.050	-0.680	1.590
2020/01/31 12:55:16.0	109.830	0.030	-0.620	1.540
2020/01/31 12:55:16.1	109.840	0.010	-0.550	1.490
2020/01/31 12:55:16.2	109.860	-0.010	-0.480	1.430
2020/01/31 12:55:16.3	109.870	-0.030	-0.410	1.370
2020/01/31 12:55:16.4	109.890	-0.060	-0.330	1.310
2020/01/31 12:55:16.5	109.910	-0.080	-0.260	1.240
2020/01/31 12:55:16.6	109.930	-0.110	-0.180	1.180
2020/01/31 12:55:16.7	109.950	-0.140	-0.100	1.110
2020/01/31 12:55:16.8	109.970	-0.160	-0.030	1.040
2020/01/31 12:55:16.9	110.000	-0.190	0.050	0.970
2020/01/31 12:55:17.0	110.020	-0.220	0.120	0.900
2020/01/31 12:55:17.1	110.050	-0.250	0.190	0.830
2020/01/31 12:55:17.2	110.070	-0.270	0.250	0.760
2020/01/31 12:55:17.3	110.090	-0.300	0.310	0.690
2020/01/31 12:55:17.4	110.120	-0.320	0.370	0.620
2020/01/31 12:55:17.5	110.150	-0.340	0.420	0.550
2020/01/31 12:55:17.6	110.170	-0.360	0.460	0.490
2020/01/31 12:55:17.7	110.190	-0.380	0.500	0.420
2020/01/31 12:55:17.8	110.210	-0.400	0.530	0.360
2020/01/31 12:55:17.9	110.230	-0.410	0.550	0.300
2020/01/31 12:55:18.0	110.250	-0.420	0.570	0.240
2020/01/31 12:55:18.1	110.260	-0.420	0.580	0.180
2020/01/31 12:55:18.2	110.280	-0.430	0.580	0.130
2020/01/31 12:55:18.3	110.290	-0.430	0.570	0.080
2020/01/31 12:55:18.4	110.300	-0.430	0.560	0.030
2020/01/31 12:55:18.5	110.320	-0.420	0.540	-0.010
2020/01/31 12:55:18.6	110.320	-0.410	0.520	-0.050
2020/01/31 12:55:18.7	110.330	-0.400	0.490	-0.080
2020/01/31 12:55:18.8	110.340	-0.380	0.460	-0.120
2020/01/31 12:55:18.9	110.340	-0.360	0.420	-0.150
2020/01/31 12:55:19.0	110.340	-0.340	0.370	-0.170
2020/01/31 12:55:19.1	110.340	-0.320	0.330	-0.190
2020/01/31 12:55:19.2	110.340	-0.300	0.280	-0.210
2020/01/31 12:55:19.3	110.340	-0.270	0.230	-0.230
2020/01/31 12:55:19.4	110.350	-0.240	0.170	-0.240
2020/01/31 12:55:19.5	110.340	-0.210	0.110	-0.260
2020/01/31 12:55:19.6	110.340	-0.170	0.060	-0.260
2020/01/31 12:55:19.7	110.340	-0.140	0.000	-0.270
2020/01/31 12:55:19.8	110.340	-0.100	-0.060	-0.270
2020/01/31 12:55:19.9	110.330	-0.060	-0.110	-0.270
2020/01/31 12:55:20.0	110.330	-0.030	-0.160	-0.260
2020/01/31 12:55:20.1	110.330	0.010	-0.220	-0.260
2020/01/31 12:55:20.2	110.330	0.050	-0.270	-0.250
2020/01/31 12:55:20.3	110.320	0.090	-0.310	-0.230
2020/01/31 12:55:20.4	110.310	0.130	-0.360	-0.220
2020/01/31 12:55:20.5	110.310	0.160	-0.400	-0.200
2020/01/31 12:55:20.6	110.300	0.200	-0.440	-0.180
2020/01/31 12:55:20.7	110.290	0.230	-0.470	-0.150
2020/01/31 12:55:20.8	110.290	0.270	-0.500	-0.130
2020/01/31 12:55:20.9	110.280	0.300	-0.520	-0.100
2020/01/31 12:55:21.0	110.270	0.330	-0.540	-0.070
2020/01/31 12:55:21.1	110.260	0.360	-0.560	-0.030
2020/01/31 12:55:21.2	110.240	0.390	-0.570	0.000
2020/01/31 12:55:21.3	110.230	0.410	-0.580	0.040
2020/01/31 12:55:21.4	110.220	0.440	-0.580	0.080
2020/01/31 12:55:21.5	110.220	0.460	-0.580	0.120
2020/01/31 12:55:21.6	110.210	0.470	-0.570	0.160
2020/01/31 12:55:21.7	110.200	0.490	-0.550	0.200
2020/01/31 12:55:21.8	110.200	0.500	-0.540	0.240
2020/01/31 12:55:21.9	110.190	0.500	-0.510	0.280
2020/01/31 12:55:22.0	110.190	0.510	-0.490	0.320
2020/01/31 12:55:22.1	110.190	0.510	-0.460	0.370
2020/01/31 12:55:22.2	110.190	0.510	-0.430	0.410
2020/01/31 12:55:22.3	110.190	0.500	-0.390	0.460
2020/01/31 12:55:22.4	110.200	0.490	-0.350	0.500
2020/01/31 12:55:22.5	110.210	0.480	-0.310	0.550
2020/01/31 12:55:22.6	110.220	0.470	-0.270	0.600
2020/01/31 12:55:22.7	110.230	0.450	-0.220	0.640
2020/01/31 12:55:22.8	110.230	0.440	-0.180	0.690
2020/01/31 12:55:22.9	110.250	0.420	-0.140	0.740
2020/01/31 12:55:23.0	110.260	0.400	-0.100	0.780
2020/01/31 12:55:23.1	110.270	0.380	-0.060	0.830
2020/01/31 12:55:23.2	110.280	0.360	-0.020	0.880
2020/01/31 12:55:23.3	110.290	0.330	0.020	0.930
2020/01/31 12:55:23.4	110.310	0.310	0.050	0.980
2020/01/31 12:55:23.5	110.320	0.290	0.080	1.040
2020/01/31 12:55:23.6	110.340	0.270	0.110	1.090
2020/01/31 12:55:23.7	110.350	0.250	0.140	1.140
2020/01/31 12:55:23.8	110.360	0.230	0.160	1.190
2020/01/31 12:55:23.9	110.380	0.210	0.180	1.240
2020/01/31 12:55:24.0	110.390	0.190	0.200	1.290
2020/01/31 12:55:24.1	110.400	0.180	0.210	1.350
2020/01/31 12:55:24.2	110.400	0.160	0.220	1.400
2020/01/31 12:55:24.3	110.410	0.150	0.220	1.450
2020/01/31 12:55:24.4	110.420	0.140	0.220	1.500
2020/01/31 12:55:24.5	110.430	0.130	0.210	1.550
2020/01/31 12:55:24.6	110.430	0.130	0.200	1.610
2020/01/31 12:55:24.7	110.430	0.120	0.180	1.660
2020/01/31 12:55:24.8	110.440	0.120	0.170	1.710
2020/01/31 12:55:24.9	110.440	0.120	0.140	1.750
2020/01/31 12:55:25.0	110.440	0.130	0.120	1.800
2020/01/31 12:55:25.1	110.440	0.130	0.090	1.840
2020/01/31 12:55:25.2	110.440	0.140	0.050	1.880
2020/01/31 12:55:25.3	110.440	0.150	0.020	1.920
2020/01/31 12:55:25.4	110.440	0.160	-0.020	1.950
2020/01/31 12:55:25.5	110.450	0.170	-0.060	1.990
2020/01/31 12:55:25.6	110.450	0.180	-0.100	2.020
2020/01/31 12:55:25.7	110.440	0.190	-0.140	2.050
2020/01/31 12:55:25.8	110.440	0.210	-0.180	2.070
2020/01/31 12:55:25.9	110.450	0.220	-0.230	2.090
2020/01/31 12:55:26.0	110.450	0.230	-0.270	2.110
2020/01/31 12:55:26.1	110.450	0.240	-0.310	2.130
2020/01/31 12:55:26.2	110.450	0.250	-0.350	2.150
2020/01/31 12:55:26.3	110.450	0.260	-0.390	2.160
2020/01/31 12:55:26.4	110.460	0.270	-0.420	2.180
2020/01/31 12:55:26.5	110.460	0.280	-0.460	2.180
2020/01/31 12:55:26.6	110.460	0.280	-0.490	2.190
2020/01/31 12:55:26.7	110.470	0.290	-0.510	2.200
2020/01/31 12:55:26.8	110.480	0.290	-0.540	2.210
2020/01/31 12:55:26.9	110.490	0.290	-0.560	2.220
2020/01/31 12:55:27.0	110.500	0.280	-0.580	2.230
2020/01/31 12:55:27.1	110.510	0.280	-0.590	2.240
2020/01/31 12:55:27.2	110.520	0.270	-0.600	2.250
2020/01/31 12:55:27.3	110.540	0.260	-0.610	2.260
2020/01/31 12:55:27.4	110.550	0.240	-0.610	2.270
2020/01/31 12:55:27.5	110.560	0.230	-0.610	2.280
2020/01/31 12:55:27.6	110.570	0.210	-0.600	2.290
2020/01/31 12:55:27.7	110.590	0.180	-0.590	2.300
2020/01/31 12:55:27.8	110.610	0.160	-0.580	2.320
2020/01/31 12:55:27.9	110.630	0.130	-0.570	2.330
2020/01/31 12:55:28.0	110.650	0.100	-0.550	2.350
2020/01/31 12:55:28.1	110.660	0.070	-0.530	2.360
2020/01/31 12:55:28.2	110.680	0.030	-0.500	2.380
2020/01/31 12:55:28.3	110.700	-0.000	-0.480	2.390
2020/01/31 12:55:28.4	110.720	-0.040	-0.450	2.410
2020/01/31 12:55:28.5	110.740	-0.080	-0.420	2.430
2020/01/31 12:55:28.6	110.750	-0.110	-0.390	2.440
2020/01/31 12:55:28.7	110.770	-0.150	-0.360	2.460
2020/01/31 12:55:28.8	110.780	-0.190	-0.320	2.480
2020/01/31 12:55:28.9	110.800	-0.230	-0.290	2.490
2020/01/31 12:55:29.0	110.810	-0.270	-0.260	2.510
2020/01/31 12:55:29.1	110.820	-0.300	-0.230	2.520
2020/01/31 12:55:29.2	110.820	-0.340	-0.200	2.530
2020/01/31 12:55:29.3	110.830	-0.370	-0.170	2.540
2020/01/31 12:55:29.4	110.830	-0.400	-0.140	2.550
2020/01/31 12:55:29.5	110.840	-0.430	-0.110	2.550
2020/01/31 12:55:29.6	110.840	-0.460	-0.080	2.550
2020/01/31 12:55:29.7	110.840	-0.480	-0.060	2.550
2020/01/31 12:55:29.8	110.840	-0.500	-0.030	2.550
2020/01/31 12:55:29.9	110.840	-0.520	-0.010	2.540
2020/01/31 12:55:30.0	110.830	-0.540	0.010	2.530
2020/01/31 12:55:30.1	110.820	-0.550	0.020	2.510
2020/01/31 12:55:30.2	110.820	-0.560	0.040	2.490
2020/01/31 12:55:30.3	110.810	-0.570	0.050	2.470
2020/01/31 12:55:30.4	110.800	-0.570	0.060	2.440
2020/01/31 12:55:30.5	110.800	-0.570	0.080	2.400
2020/01/31 12:55:30.6	110.790	-0.570	0.080	2.370
2020/01/31 12:55:30.7	110.780	-0.560	0.090	2.320
2020/01/31 12:55:30.8	110.770	-0.550	0.100	2.280
2020/01/31 12:55:30.9	110.760	-0.540	0.100	2.230
2020/01/31 12:55:31.0	110.750	-0.530	0.100	2.170
2020/01/31 12:55:31.1	110.740	-0.520	0.100	2.120
2020/01/31 12:55:31.2	110.730	-0.500	0.100	2.060
2020/01/31 12:55:31.3	110.720	-0.480	0.100	2.000
2020/01/31 12:55:31.4	110.710	-0.460	0.100	1.930
2020/01/31 12:55:31.5	110.710	-0.440	0.090	1.870
2020/01/31 12:55:31.6	110.690	-0.410	0.080	1.800
2020/01/31 12:55:31.7	110.680	-0.390	0.080	1.730
2020/01/31 12:55:31.8	110.660	-0.360	0.070	1.670
2020/01/31 12:55:31.9	110.650	-0.340	0.060	1.600
2020/01/31 12:55:32.0	110.630	-0.310	0.050	1.540
2020/01/31 12:55:32.1	110.610	-0.280	0.040	1.480
2020/01/31 12:55:32.2	110.590	-0.250	0.030	1.410
2020/01/31 12:55:32.3	110.570	-0.230	0.020	1.350
2020/01/31 12:55:32.4	110.550	-0.200	0.010	1.290
2020/01/31 12:55:32.5	110.530	-0.170	0.000	1.230
2020/01/31 12:55:32.6	110.510	-0.140	-0.010	1.170
2020/01/31 12:55:32.7	110.490	-0.120	-0.020	1.110
2020/01/31 12:55:32.8	110.470	-0.090	-0.030	1.050
2020/01/31 12:55:32.9	110.450	-0.070	-0.040	0.990
2020/01/31 12:55:33.0	110.430	-0.040	-0.050	0.930
2020/01/31 12:55:33.1	110.420	-0.020	-0.060	0.870
2020/01/31 12:55:33.2	110.410	0.000	-0.070	0.810
2020/01/31 12:55:33.3	110.400	0.020	-0.080	0.750
2020/01/31 12:55:33.4	110.390	0.040	-0.090	0.690
2020/01/31 12:55:33.5	110.380	0.060	-0.110	0.630
2020/01/31 12:55:33.6	110.370	0.070	-0.120	0.560
2020/01/31 12:55:33.7	110.380	0.090	-0.120	0.500
2020/01/31 12:55:33.8	110.380	0.100	-0.130	0.440
2020/01/31 12:55:33.9	110.390	0.120	-0.140	0.370
2020/01/31 12:55:34.0	110.400	0.130	-0.150	0.300
2020/01/31 12:55:34.1	110.420	0.140	-0.150	0.230
2020/01/31 12:55:34.2	110.440	0.150	-0.160	0.160
2020/01/31 12:55:34.3	110.470	0.160	-0.170	0.090
2020/01/31 12:55:34.4	110.500	0.170	-0.170	0.020
2020/01/31 12:55:34.5	110.530	0.170	-0.180	-0.050
2020/01/31 12:55:34.6	110.570	0.180	-0.190	-0.120
2020/01/31 12:55:34.7	110.600	0.190	-0.190	-0.190
2020/01/31 12:55:34.8	110.640	0.190	-0.200	-0.250
2020/01/31 12:55:34.9	110.690	0.200	-0.200	-0.320
2020/01/31 12:55:35.0	110.730	0.200	-0.210	-0.380
2020/01/31 12:55:35.1	110.770	0.210	-0.220	-0.440
2020/01/31 12:55:35.2	110.820	0.210	-0.220	-0.500
2020/01/31 12:55:35.3	110.860	0.210	-0.230	-0.560
2020/01/31 12:55:35.4	110.910	0.220	-0.230	-0.610
2020/01/31 12:55:35.5	110.950	0.220	-0.240	-0.650
2020/01/31 12:55:35.6	110.990	0.220	-0.250	-0.690
2020/01/31 12:55:35.7	111.030	0.220	-0.250	-0.730
2020/01/31 12:55:35.8	111.070	0.220	-0.260	-0.760
2020/01/31 12:55:35.9	111.110	0.230	-0.260	-0.790
2020/01/31 12:55:36.0	111.150	0.230	-0.270	-0.810
2020/01/31 12:55:36.1	111.180	0.230	-0.270	-0.830
2020/01/31 12:55:36.2	111.210	0.230	-0.280	-0.840
2020/01/31 12:55:36.3	111.240	0.230	-0.280	-0.840
2020/01/31 12:55:36.4	111.260	0.220	-0.280	-0.850
2020/01/31 12:55:36.5	111.290	0.220	-0.280	-0.840
2020/01/31 12:55:36.6	111.300	0.220	-0.280	-0.830
2020/01/31 12:55:36.7	111.320	0.220	-0.280	-0.810
2020/01/31 12:55:36.8	111.330	0.210	-0.280	-0.790
2020/01/31 12:55:36.9	111.340	0.210	-0.280	-0.770
2020/01/31 12:55:37.0	111.340	0.200	-0.270	-0.740
2020/01/31 12:55:37.1	111.340	0.200	-0.270	-0.700
2020/01/31 12:55:37.2	111.340	0.190	-0.260	-0.660
2020/01/31 12:55:37.3	111.330	0.180	-0.250	-0.610
2020/01/31 12:55:37.4	111.320	0.180	-0.240	-0.560
2020/01/31 12:55:37.5	111.310	0.170	-0.230	-0.500
2020/01/31 12:55:37.6	111.290	0.160	-0.210	-0.440
2020/01/31 12:55:37.7	111.280	0.150	-0.200	-0.380
2020/01/31 12:55:37.8	111.260	0.140	-0.180	-0.300
2020/01/31 12:55:37.9	111.230	0.130	-0.170	-0.230
2020/01/31 12:55:38.0	111.210	0.120	-0.150	-0.150
2020/01/31 12:55:38.1	111.180	0.100	-0.130	-0.060
2020/01/31 12:55:38.2	111.150	0.090	-0.110	0.030
2020/01/31 12:55:38.3	111.120	0.080	-0.090	0.120
2020/01/31 12:55:38.4	111.090	0.070	-0.070	0.220
2020/01/31 12:55:38.5	111.060	0.060	-0.050	0.320
2020/01/31 12:55:38.6	111.030	0.050	-0.030	0.420
2020/01/31 12:55:38.7	111.000	0.040	-0.010	0.530
2020/01/31 12:55:38.8	110.970	0.030	0.010	0.630
2020/01/31 12:55:38.9	110.930	0.020	0.020	0.740
2020/01/31 12:55:39.0	110.900	0.020	0.040	0.850
2020/01/31 12:55:39.1	110.870	0.010	0.050	0.970
2020/01/31 12:55:39.2	110.840	0.010	0.060	1.080
2020/01/31 12:55:39.3	110.820	0.000	0.070	1.190
2020/01/31 12:55:39.4	110.790	0.000	0.080	1.310
2020/01/31 12:55:39.5	110.750	0.000	0.080	1.420
2020/01/31 12:55:39.6	110.730	0.010	0.080	1.530
2020/01/31 12:55:39.7	110.710	0.010	0.080	1.640
2020/01/31 12:55:39.8	110.690	0.010	0.070	1.750
2020/01/31 12:55:39.9	110.670	0.020	0.060	1.860
2020/01/31 12:55:40.0	110.650	0.030	0.050	1.960
2020/01/31 12:55:40.1	110.630	0.040	0.030	2.060
2020/01/31 12:55:40.2	110.620	0.050	0.010	2.160
2020/01/31 12:55:40.3	110.610	0.070	-0.010	2.260
2020/01/31 12:55:40.4	110.600	0.080	-0.030	2.350
2020/01/31 12:55:40.5	110.600	0.100	-0.060	2.440
2020/01/31 12:55:40.6	110.590	0.110	-0.090	2.520
2020/01/31 12:55:40.7	110.590	0.130	-0.120	2.610
2020/01/31 12:55:40.8	110.580	0.150	-0.150	2.680
2020/01/31 12:55:40.9	110.580	0.170	-0.180	2.750
2020/01/31 12:55:41.0	110.590	0.190	-0.210	2.820
2020/01/31 12:55:41.1	110.590	0.200	-0.250	2.890
2020/01/31 12:55:41.2	110.590	0.220	-0.280	2.940
2020/01/31 12:55:41.3	110.600	0.240	-0.320	3.000
2020/01/31 12:55:41.4	110.610	0.260	-0.350	3.050
2020/01/31 12:55:41.5	110.610	0.270	-0.390	3.090
2020/01/31 12:55:41.6	110.620	0.290	-0.420	3.130
2020/01/31 12:55:41.7	110.630	0.300	-0.450	3.170
2020/01/31 12:55:41.8	110.640	0.310	-0.470	3.190
2020/01/31 12:55:41.9	110.640	0.320	-0.500	3.220
2020/01/31 12:55:42.0	110.650	0.330	-0.520	3.240
2020/01/31 12:55:42.1	110.660	0.340	-0.540	3.250
2020/01/31 12:55:42.2	110.670	0.340	-0.560	3.260
2020/01/31 12:55:42.3	110.680	0.340	-0.570	3.260
2020/01/31 12:55:42.4	110.690	0.340	-0.580	3.260
2020/01/31 12:55:42.5	110.700	0.340	-0.590	3.250
2020/01/31 12:55:42.6	110.710	0.330	-0.590	3.230
2020/01/31 12:55:42.7	110.710	0.330	-0.590	3.220
2020/01/31 12:55:42.8	110.720	0.310	-0.580	3.200
2020/01/31 12:55:42.9	110.730	0.300	-0.580	3.170
2020/01/31 12:55:43.0	110.740	0.290	-0.570	3.140
2020/01/31 12:55:43.1	110.740	0.270	-0.550	3.110
2020/01/31 12:55:43.2	110.750	0.250	-0.530	3.070
2020/01/31 12:55:43.3	110.760	0.230	-0.510	3.030
2020/01/31 12:55:43.4	110.770	0.200	-0.490	2.990
2020/01/31 12:55:43.5	110.770	0.170	-0.470	2.940
2020/01/31 12:55:43.6	110.780	0.150	-0.440	2.890
2020/01/31 12:55:43.7	110.780	0.120	-0.410	2.840
2020/01/31 12:55:43.8	110.790	0.090	-0.380	2.790
2020/01/31 12:55:43.9	110.800	0.050	-0.340	2.730
2020/01/31 12:55:44.0	110.810	0.020	-0.310	2.680
2020/01/31 12:55:44.1	110.820	-0.010	-0.270	2.620
2020/01/31 12:55:44.2	110.820	-0.050	-0.240	2.560
2020/01/31 12:55:44.3	110.830	-0.080	-0.200	2.500
2020/01/31 12:55:44.4	110.840	-0.120	-0.170	2.440
2020/01/31 12:55:44.5	110.850	-0.150	-0.130	2.370
2020/01/31 12:55:44.6	110.860	-0.180	-0.090	2.310
2020/01/31 12:55:44.7	110.860	-0.220	-0.060	2.250
2020/01/31 12:55:44.8	110.870	-0.250	-0.020	2.190
2020/01/31 12:55:44.9	110.880	-0.280	0.010	2.120
2020/01/31 12:55:45.0	110.880	-0.310	0.040	2.060
2020/01/31 12:55:45.1	110.890	-0.340	0.070	2.000
2020/01/31 12:55:45.2	110.890	-0.360	0.100	1.940
2020/01/31 12:55:45.3	110.900	-0.390	0.130	1.870
2020/01/31 12:55:45.4	110.900	-0.410	0.160	1.810
2020/01/31 12:55:45.5	110.900	-0.430	0.180	1.750
2020/01/31 12:55:45.6	110.910	-0.440	0.210	1.690
2020/01/31 12:55:45.7	110.910	-0.460	0.230	1.630
2020/01/31 12:55:45.8	110.910	-0.470	0.240	1.570
2020/01/31 12:55:45.9	110.910	-0.480	0.260	1.500
2020/01/31 12:55:46.0	110.910	-0.480	0.270	1.440
2020/01/31 12:55:46.1	110.910	-0.490	0.280	1.380
2020/01/31 12:55:46.2	110.910	-0.490	0.290	1.310
2020/01/31 12:55:46.3	110.910	-0.480	0.290	1.250
2020/01/31 12:55:46.4	110.910	-0.480	0.290	1.190
2020/01/31 12:55:46.5	110.920	-0.470	0.290	1.120
2020/01/31 12:55:46.6	110.910	-0.460	0.280	1.050
2020/01/31 12:55:46.7	110.910	-0.450	0.280	0.990
2020/01/31 12:55:46.8	110.910	-0.440	0.270	0.930
2020/01/31 12:55:46.9	110.900	-0.420	0.250	0.860
2020/01/31 12:55:47.0	110.890	-0.400	0.240	0.800
2020/01/31 12:55:47.1	110.890	-0.380	0.220	0.740
2020/01/31 12:55:47.2	110.880	-0.360	0.200	0.680
2020/01/31 12:55:47.3	110.870	-0.340	0.170	0.620
2020/01/31 12:55:47.4	110.850	-0.310	0.150	0.570
2020/01/31 12:55:47.5	110.840	-0.290	0.120	0.510
2020/01/31 12:55:47.6	110.830	-0.260	0.090	0.450
2020/01/31 12:55:47.7	110.820	-0.240	0.060	0.400
2020/01/31 12:55:47.8	110.800	-0.210	0.030	0.340
2020/01/31 12:55:47.9	110.780	-0.190	-0.010	0.290
2020/01/31 12:55:48.0	110.770	-0.160	-0.040	0.240
2020/01/31 12:55:48.1	110.750	-0.140	-0.080	0.190
2020/01/31 12:55:48.2	110.740	-0.110	-0.110	0.140
2020/01/31 12:55:48.3	110.720	-0.090	-0.140	0.090
2020/01/31 12:55:48.4	110.700	-0.070	-0.180	0.040
2020/01/31 12:55:48.5	110.690	-0.050	-0.210	-0.010
2020/01/31 12:55:48.6	110.670	-0.030	-0.240	-0.050
2020/01/31 12:55:48.7	110.660	-0.010	-0.270	-0.090
2020/01/31 12:55:48.8	110.640	0.000	-0.300	-0.130
2020/01/31 12:55:48.9	110.630	0.020	-0.330	-0.170
2020/01/31 12:55:49.0	110.620	0.030	-0.360	-0.200
2020/01/31 12:55:49.1	110.610	0.040	-0.380	-0.230
2020/01/31 12:55:49.2	110.600	0.050	-0.400	-0.260
2020/01/31 12:55:49.3	110.590	0.060	-0.420	-0.290
2020/01/31 12:55:49.4	110.580	0.060	-0.430	-0.320
2020/01/31 12:55:49.5	110.560	0.060	-0.450	-0.340
2020/01/31 12:55:49.6	110.560	0.070	-0.460	-0.350
2020/01/31 12:55:49.7	110.550	0.070	-0.470	-0.370
2020/01/31 12:55:49.8	110.550	0.070	-0.470	-0.380
2020/01/31 12:55:49.9	110.540	0.060	-0.470	-0.390
2020/01/31 12:55:50.0	110.540	0.060	-0.470	-0.400
2020/01/31 12:55:50.1	110.540	0.060	-0.460	-0.400
2020/01/31 12:55:50.2	110.540	0.050	-0.460	-0.400
2020/01/31 12:55:50.3	110.540	0.050	-0.440	-0.400
2020/01/31 12:55:50.4	110.540	0.040	-0.430	-0.390
2020/01/31 12:55:50.5	110.550	0.040	-0.410	-0.380
2020/01/31 12:55:50.6	110.550	0.030	-0.390	-0.370
2020/01/31 12:55:50.7	110.560	0.020	-0.370	-0.360
2020/01/31 12:55:50.8	110.560	0.020	-0.350	-0.340
2020/01/31 12:55:50.9	110.570	0.010	-0.320	-0.320
2020/01/31 12:55:51.0	110.580	0.000	-0.300	-0.300
2020/01/31 12:55:51.1	110.590	-0.000	-0.270	-0.280
2020/01/31 12:55:51.2	110.600	-0.010	-0.240	-0.250
2020/01/31 12:55:51.3	110.610	-0.010	-0.210	-0.230
2020/01/31 12:55:51.4	110.620	-0.020	-0.180	-0.200
2020/01/31 12:55:51.5	110.640	-0.020	-0.150	-0.170
2020/01/31 12:55:51.6	110.650	-0.020	-0.120	-0.130
2020/01/31 12:55:51.7	110.670	-0.020	-0.090	-0.100
2020/01/31 12:55:51.8	110.680	-0.030	-0.060	-0.060
2020/01/31 12:55:51.9	110.690	-0.020	-0.030	-0.020
2020/01/31 12:55:52.0	110.710	-0.020	-0.010	0.020
2020/01/31 12:55:52.1	110.720	-0.020	0.020	0.060
2020/01/31 12:55:52.2	110.730	-0.020	0.040	0.110
2020/01/31 12:55:52.3	110.740	-0.010	0.060	0.160
2020/01/31 12:55:52.4	110.760	-0.010	0.070	0.210
2020/01/31 12:55:52.5	110.770	0.000	0.080	0.260
2020/01/31 12:55:52.6	110.780	0.010	0.090	0.310
2020/01/31 12:55:52.7	110.780	0.020	0.100	0.370
2020/01/31 12:55:52.8	110.790	0.030	0.100	0.430
2020/01/31 12:55:52.9	110.800	0.040	0.100	0.480
2020/01/31 12:55:53.0	110.800	0.050	0.100	0.540
2020/01/31 12:55:53.1	110.800	0.070	0.090	0.600
2020/01/31 12:55:53.2	110.810	0.080	0.080	0.670
2020/01/31 12:55:53.3	110.810	0.100	0.060	0.730
2020/01/31 12:55:53.4	110.810	0.110	0.040	0.790
2020/01/31 12:55:53.5	110.800	0.130	0.020	0.860
2020/01/31 12:55:53.6	110.800	0.150	-0.000	0.920
2020/01/31 12:55:53.7	110.800	0.160	-0.030	0.990
2020/01/31 12:55:53.8	110.790	0.180	-0.060	1.050
2020/01/31 12:55:53.9	110.790	0.200	-0.090	1.110
2020/01/31 12:55:54.0	110.790	0.220	-0.120	1.180
2020/01/31 12:55:54.1	110.790	0.240	-0.160	1.240
2020/01/31 12:55:54.2	110.780	0.260	-0.200	1.310
2020/01/31 12:55:54.3	110.780	0.280	-0.230	1.370
2020/01/31 12:55:54.4	110.770	0.300	-0.270	1.430
2020/01/31 12:55:54.5	110.770	0.320	-0.310	1.500
2020/01/31 12:55:54.6	110.770	0.330	-0.340	1.560
2020/01/31 12:55:54.7	110.760	0.350	-0.380	1.620
2020/01/31 12:55:54.8	110.760	0.370	-0.410	1.690
2020/01/31 12:55:54.9	110.750	0.380	-0.440	1.750
2020/01/31 12:55:55.0	110.740	0.400	-0.470	1.810
2020/01/31 12:55:55.1	110.730	0.410	-0.490	1.880
2020/01/31 12:55:55.2	110.730	0.420	-0.520	1.940
2020/01/31 12:55:55.3	110.720	0.440	-0.540	2.010
2020/01/31 12:55:55.4	110.700	0.450	-0.560	2.070
2020/01/31 12:55:55.5	110.700	0.450	-0.570	2.130
2020/01/31 12:55:55.6	110.690	0.460	-0.580	2.200
2020/01/31 12:55:55.7	110.670	0.470	-0.590	2.260
2020/01/31 12:55:55.8	110.660	0.470	-0.590	2.320
2020/01/31 12:55:55.9	110.640	0.470	-0.590	2.380
2020/01/31 12:55:56.0	110.630	0.470	-0.580	2.440
2020/01/31 12:55:56.1	110.610	0.470	-0.580	2.490
2020/01/31 12:55:56.2	110.590	0.470	-0.560	2.550
2020/01/31 12:55:56.3	110.580	0.460	-0.550	2.600
2020/01/31 12:55:56.4	110.560	0.450	-0.530	2.650
2020/01/31 12:55:56.5	110.540	0.440	-0.510	2.690
2020/01/31 12:55:56.6	110.530	0.430	-0.480	2.730
2020/01/31 12:55:56.7	110.510	0.420	-0.450	2.770
2020/01/31 12:55:56.8	110.500	0.400	-0.420	2.810
2020/01/31 12:55:56.9	110.490	0.380	-0.390	2.840
2020/01/31 12:55:57.0	110.480	0.360	-0.350	2.870
2020/01/31 12:55:57.1	110.470	0.340	-0.320	2.890
2020/01/31 12:55:57.2	110.460	0.310	-0.280	2.910
2020/01/31 12:55:57.3	110.450	0.290	-0.240	2.920
2020/01/31 12:55:57.4	110.450	0.260	-0.200	2.940
2020/01/31 12:55:57.5	110.440	0.230	-0.150	2.940
2020/01/31 12:55:57.6	110.440	0.200	-0.110	2.950
2020/01/31 12:55:57.7	110.440	0.160	-0.070	2.940
2020/01/31 12:55:57.8	110.440	0.130	-0.030	2.940
2020/01/31 12:55:57.9	110.440	0.090	0.010	2.930
2020/01/31 12:55:58.0	110.440	0.060	0.050	2.910
2020/01/31 12:55:58.1	110.440	0.020	0.090	2.900
2020/01/31 12:55:58.2	110.450	-0.020	0.130	2.880
2020/01/31 12:55:58.3	110.450	-0.060	0.160	2.850
2020/01/31 12:55:58.4	110.460	-0.100	0.190	2.820
2020/01/31 12:55:58.5	110.480	-0.140	0.220	2.790
2020/01/31 12:55:58.6	110.480	-0.180	0.250	2.750
2020/01/31 12:55:58.7	110.490	-0.220	0.280	2.710
2020/01/31 12:55:58.8	110.500	-0.260	0.300	2.670
2020/01/31 12:55:58.9	110.510	-0.300	0.330	2.630
2020/01/31 12:55:59.0	110.520	-0.340	0.350	2.580
2020/01/31 12:55:59.1	110.530	-0.380	0.360	2.530
2020/01/31 12:55:59.2	110.540	-0.410	0.380	2.480
2020/01/31 12:55:59.3	110.560	-0.450	0.390	2.430
2020/01/31 12:55:59.4	110.560	-0.480	0.400	2.370
2020/01/31 12:55:59.5	110.570	-0.520	0.410	2.320
2020/01/31 12:55:59.6	110.580	-0.550	0.410	2.260
2020/01/31 12:55:59.7	110.580	-0.570	0.410	2.200
2020/01/31 12:55:59.8	110.590	-0.600	0.410	2.130
2020/01/31 12:55:59.9	110.600	-0.620	0.400	2.070
2020/01/31 12:56:00.0	110.600	-0.640	0.400	2.010
2020/01/31 12:56:00.1	110.600	-0.660	0.390	1.940
2020/01/31 12:56:00.2	110.600	-0.670	0.370	1.870
2020/01/31 12:56:00.3	110.600	-0.690	0.360	1.800
2020/01/31 12:56:00.4	110.600	-0.700	0.340	1.730
2020/01/31 12:56:00.5	110.590	-0.700	0.320	1.650
2020/01/31 12:56:00.6	110.580	-0.710	0.300	1.580
2020/01/31 12:56:00.7	110.580	-0.710	0.270	1.500
2020/01/31 12:56:00.8	110.580	-0.700	0.250	1.430
2020/01/31 12:56:00.9	110.570	-0.700	0.220	1.350
2020/01/31 12:56:01.0	110.560	-0.690	0.190	1.280
2020/01/31 12:56:01.1	110.560	-0.680	0.150	1.200
2020/01/31 12:56:01.2	110.550	-0.660	0.120	1.120
2020/01/31 12:56:01.3	110.540	-0.650	0.080	1.050
2020/01/31 12:56:01.4	110.530	-0.630	0.040	0.970
2020/01/31 12:56:01.5	110.530	-0.610	0.000	0.890
2020/01/31 12:56:01.6	110.520	-0.580	-0.040	0.820
2020/01/31 12:56:01.7	110.520	-0.560	-0.080	0.740
2020/01/31 12:56:01.8	110.510	-0.530	-0.120	0.670
2020/01/31 12:56:01.9	110.500	-0.500	-0.170	0.590
2020/01/31 12:56:02.0	110.500	-0.460	-0.210	0.520
2020/01/31 12:56:02.1	110.490	-0.430	-0.260	0.450
2020/01/31 12:56:02.2	110.480	-0.400	-0.300	0.380
2020/01/31 12:56:02.3	110.480	-0.360	-0.350	0.310
2020/01/31 12:56:02.4	110.480	-0.320	-0.400	0.250
2020/01/31 12:56:02.5	110.470	-0.280	-0.450	0.180
2020/01/31 12:56:02.6	110.470	-0.240	-0.490	0.110
2020/01/31 12:56:02.7	110.470	-0.200	-0.540	0.050
2020/01/31 12:56:02.8	110.470	-0.160	-0.580	-0.010
2020/01/31 12:56:02.9	110.470	-0.120	-0.630	-0.060
2020/01/31 12:56:03.0	110.480	-0.080	-0.670	-0.120
2020/01/31 12:56:03.1	110.480	-0.040	-0.710	-0.170
2020/01/31 12:56:03.2	110.490	0.010	-0.750	-0.220
2020/01/31 12:56:03.3	110.500	0.050	-0.780	-0.260
2020/01/31 12:56:03.4	110.500	0.090	-0.820	-0.310
2020/01/31 12:56:03.5	110.510	0.120	-0.850	-0.350
2020/01/31 12:56:03.6	110.530	0.160	-0.870	-0.390
2020/01/31 12:56:03.7	110.540	0.200	-0.900	-0.420
2020/01/31 12:56:03.8	110.550	0.230	-0.910	-0.450
2020/01/31 12:56:03.9	110.560	0.260	-0.930	-0.480
2020/01/31 12:56:04.0	110.580	0.290	-0.940	-0.500
2020/01/31 12:56:04.1	110.590	0.320	-0.940	-0.530
2020/01/31 12:56:04.2	110.610	0.350	-0.940	-0.540
2020/01/31 12:56:04.3	110.620	0.370	-0.940	-0.560
2020/01/31 12:56:04.4	110.630	0.390	-0.930	-0.570
2020/01/31 12:56:04.5	110.640	0.410	-0.910	-0.580
2020/01/31 12:56:04.6	110.650	0.430	-0.890	-0.580
2020/01/31 12:56:04.7	110.670	0.440	-0.870	-0.580
2020/01/31 12:56:04.8	110.680	0.450	-0.840	-0.570
2020/01/31 12:56:04.9	110.690	0.460	-0.800	-0.560
2020/01/31 12:56:05.0	110.690	0.460	-0.760	-0.550
2020/01/31 12:56:05.1	110.700	0.460	-0.720	-0.530
2020/01/31 12:56:05.2	110.700	0.460	-0.680	-0.520
2020/01/31 12:56:05.3	110.710	0.460	-0.630	-0.490
2020/01/31 12:56:05.4	110.710	0.450	-0.580	-0.470
2020/01/31 12:56:05.5	110.700	0.440	-0.520	-0.430
2020/01/31 12:56:05.6	110.700	0.430	-0.470	-0.400
2020/01/31 12:56:05.7	110.690	0.420	-0.410	-0.360
2020/01/31 12:56:05.8	110.690	0.410	-0.350	-0.330
2020/01/31 12:56:05.9	110.680	0.390	-0.290	-0.290
2020/01/31 12:56:06.0	110.670	0.370	-0.230	-0.250
2020/01/31 12:56:06.1	110.650	0.350	-0.170	-0.200
2020/01/31 12:56:06.2	110.640	0.330	-0.100	-0.160
2020/01/31 12:56:06.3	110.620	0.310	-0.040	-0.110
2020/01/31 12:56:06.4	110.600	0.290	0.020	-0.060
2020/01/31 12:56:06.5	110.590	0.270	0.090	-0.010
2020/01/31 12:56:06.6	110.570	0.240	0.150	0.040
2020/01/31 12:56:06.7	110.550	0.220	0.210	0.100
2020/01/31 12:56:06.8	110.520	0.190	0.270	0.150
2020/01/31 12:56:06.9	110.500	0.170	0.320	0.210
2020/01/31 12:56:07.0	110.470	0.140	0.380	0.270
2020/01/31 12:56:07.1	110.450	0.120	0.430	0.330
2020/01/31 12:56:07.2	110.420	0.090	0.480	0.390
2020/01/31 12:56:07.3	110.390	0.070	0.530	0.450
2020/01/31 12:56:07.4	110.360	0.050	0.570	0.520
2020/01/31 12:56:07.5	110.330	0.020	0.610	0.580
2020/01/31 12:56:07.6	110.300	-0.000	0.650	0.650
2020/01/31 12:56:07.7	110.270	-0.020	0.680	0.710
2020/01/31 12:56:07.8	110.250	-0.040	0.700	0.780
2020/01/31 12:56:07.9	110.220	-0.060	0.720	0.850
2020/01/31 12:56:08.0	110.190	-0.080	0.730	0.920
2020/01/31 12:56:08.1	110.170	-0.100	0.740	1.000
2020/01/31 12:56:08.2	110.140	-0.110	0.750	1.070
2020/01/31 12:56:08.3	110.110	-0.120	0.740	1.140
2020/01/31 12:56:08.4	110.090	-0.130	0.730	1.220
2020/01/31 12:56:08.5	110.070	-0.140	0.720	1.290
2020/01/31 12:56:08.6	110.050	-0.150	0.700	1.360
2020/01/31 12:56:08.7	110.030	-0.160	0.670	1.440
2020/01/31 12:56:08.8	110.010	-0.160	0.640	1.510
2020/01/31 12:56:08.9	109.990	-0.160	0.600	1.590
2020/01/31 12:56:09.0	109.970	-0.160	0.550	1.660
2020/01/31 12:56:09.1	109.960	-0.150	0.500	1.730
2020/01/31 12:56:09.2	109.950	-0.150	0.450	1.800
2020/01/31 12:56:09.3	109.940	-0.140	0.390	1.870
2020/01/31 12:56:09.4	109.930	-0.130	0.330	1.930
2020/01/31 12:56:09.5	109.930	-0.120	0.260	2.000
2020/01/31 12:56:09.6	109.930	-0.100	0.190	2.060
2020/01/31 12:56:09.7	109.930	-0.090	0.120	2.120
2020/01/31 12:56:09.8	109.930	-0.070	0.050	2.180
2020/01/31 12:56:09.9	109.930	-0.050	-0.030	2.230
2020/01/31 12:56:10.0	109.940	-0.030	-0.100	2.280
2020/01/31 12:56:10.1	109.940	-0.010	-0.180	2.330
2020/01/31 12:56:10.2	109.950	0.020	-0.260	2.380
2020/01/31 12:56:10.3	109.970	0.040	-0.330	2.420
2020/01/31 12:56:10.4	109.980	0.070	-0.410	2.460
2020/01/31 12:56:10.5	110.000	0.090	-0.480	2.500
2020/01/31 12:56:10.6	110.010	0.110	-0.550	2.530
2020/01/31 12:56:10.7	110.030	0.140	-0.620	2.560
2020/01/31 12:56:10.8	110.050	0.160	-0.680	2.590
2020/01/31 12:56:10.9	110.070	0.190	-0.740	2.620
2020/01/31 12:56:11.0	110.100	0.210	-0.800	2.640
2020/01/31 12:56:11.1	110.120	0.230	-0.850	2.670
2020/01/31 12:56:11.2	110.140	0.250	-0.890	2.690
2020/01/31 12:56:11.3	110.160	0.260	-0.930	2.700
2020/01/31 12:56:11.4	110.180	0.280	-0.970	2.720
2020/01/31 12:56:11.5	110.200	0.290	-0.990	2.730
2020/01/31 12:56:11.6	110.220	0.300	-1.010	2.740
2020/01/31 12:56:11.7	110.230	0.310	-1.020	2.750
2020/01/31 12:56:11.8	110.250	0.320	-1.030	2.760
2020/01/31 12:56:11.9	110.260	0.320	-1.030	2.760
2020/01/31 12:56:12.0	110.280	0.320	-1.030	2.760
2020/01/31 12:56:12.1	110.290	0.320	-1.010	2.760
2020/01/31 12:56:12.2	110.300	0.320	-1.000	2.760
2020/01/31 12:56:12.3	110.310	0.310	-0.970	2.750
2020/01/31 12:56:12.4	110.310	0.300	-0.940	2.750
2020/01/31 12:56:12.5	110.320	0.280	-0.910	2.740
2020/01/31 12:56:12.6	110.320	0.270	-0.870	2.720
2020/01/31 12:56:12.7	110.320	0.250	-0.830	2.710
2020/01/31 12:56:12.8	110.330	0.230	-0.780	2.700
2020/01/31 12:56:12.9	110.330	0.200	-0.730	2.680
2020/01/31 12:56:13.0	110.330	0.180	-0.680	2.660
2020/01/31 12:56:13.1	110.320	0.150	-0.620	2.650
2020/01/31 12:56:13.2	110.320	0.120	-0.560	2.630
2020/01/31 12:56:13.3	110.320	0.100	-0.500	2.610
2020/01/31 12:56:13.4	110.310	0.070	-0.430	2.580
2020/01/31 12:56:13.5	110.310	0.030	-0.360	2.560
2020/01/31 12:56:13.6	110.300	0.000	-0.290	2.540
2020/01/31 12:56:13.7	110.290	-0.030	-0.220	2.520
2020/01/31 12:56:13.8	110.290	-0.060	-0.160	2.490
2020/01/31 12:56:13.9	110.280	-0.090	-0.090	2.470
2020/01/31 12:56:14.0	110.270	-0.120	-0.020	2.440
2020/01/31 12:56:14.1	110.260	-0.150	0.050	2.410
2020/01/31 12:56:14.2	110.250	-0.180	0.110	2.380
2020/01/31 12:56:14.3	110.240	-0.200	0.180	2.350
2020/01/31 12:56:14.4	110.230	-0.230	0.240	2.320
2020/01/31 12:56:14.5	110.220	-0.250	0.290	2.290
2020/01/31 12:56:14.6	110.210	-0.270	0.350	2.250
2020/01/31 12:56:14.7	110.190	-0.290	0.400	2.220
2020/01/31 12:56:14.8	110.180	-0.310	0.450	2.180
2020/01/31 12:56:14.9	110.170	-0.330	0.490	2.140
2020/01/31 12:56:15.0	110.160	-0.340	0.530	2.100
2020/01/31 12:56:15.1	110.140	-0.350	0.560	2.060
2020/01/31 12:56:15.2	110.130	-0.360	0.590	2.020
2020/01/31 12:56:15.3	110.120	-0.370	0.620	1.970
2020/01/31 12:56:15.4	110.110	-0.380	0.640	1.930
2020/01/31 12:56:15.5	110.100	-0.380	0.650	1.880
2020/01/31 12:56:15.6	110.090	-0.380	0.660	1.830
2020/01/31 12:56:15.7	110.080	-0.380	0.660	1.780
2020/01/31 12:56:15.8	110.070	-0.370	0.660	1.730
2020/01/31 12:56:15.9	110.060	-0.370	0.650	1.670
2020/01/31 12:56:16.0	110.050	-0.360	0.630	1.620
2020/01/31 12:56:16.1	110.050	-0.350	0.610	1.560
2020/01/31 12:56:16.2	110.040	-0.340	0.590	1.500
2020/01/31 12:56:16.3	110.040	-0.330	0.550	1.440
2020/01/31 12:56:16.4	110.030	-0.320	0.510	1.370
2020/01/31 12:56:16.5	110.030	-0.300	0.470	1.310
2020/01/31 12:56:16.6	110.020	-0.290	0.420	1.240
2020/01/31 12:56:16.7	110.020	-0.270	0.360	1.170
2020/01/31 12:56:16.8	110.020	-0.250	0.300	1.100
2020/01/31 12:56:16.9	110.020	-0.230	0.240	1.030
2020/01/31 12:56:17.0	110.020	-0.210	0.170	0.960
2020/01/31 12:56:17.1	110.020	-0.190	0.100	0.880
2020/01/31 12:56:17.2	110.020	-0.170	0.030	0.810
2020/01/31 12:56:17.3	110.020	-0.150	-0.040	0.740
2020/01/31 12:56:17.4	110.020	-0.130	-0.120	0.660
2020/01/31 12:56:17.5	110.020	-0.110	-0.190	0.590
2020/01/31 12:56:17.6	110.020	-0.090	-0.270	0.510
2020/01/31 12:56:17.7	110.010	-0.070	-0.340	0.440
2020/01/31 12:56:17.8	110.010	-0.040	-0.410	0.380
2020/01/31 12:56:17.9	110.000	-0.020	-0.490	0.310
2020/01/31 12:56:18.0	110.000	-0.000	-0.560	0.250
2020/01/31 12:56:18.1	109.990	0.010	-0.620	0.190
2020/01/31 12:56:18.2	109.970	0.030	-0.690	0.130
2020/01/31 12:56:18.3	109.960	0.050	-0.750	0.070
2020/01/31 12:56:18.4	109.950	0.070	-0.810	0.020
2020/01/31 12:56:18.5	109.930	0.080	-0.860	-0.030
2020/01/31 12:56:18.6	109.910	0.100	-0.910	-0.080
2020/01/31 12:56:18.7	109.890	0.110	-0.950	-0.120
2020/01/31 12:56:18.8	109.870	0.120	-0.990	-0.160
2020/01/31 12:56:18.9	109.850	0.130	-1.020	-0.200
2020/01/31 12:56:19.0	109.820	0.140	-1.040	-0.230
2020/01/31 12:56:19.1	109.800	0.150	-1.060	-0.260
2020/01/31 12:56:19.2	109.780	0.160	-1.070	-0.290
2020/01/31 12:56:19.3	109.750	0.170	-1.070	-0.310
2020/01/31 12:56:19.4	109.730	0.170	-1.070	-0.330
2020/01/31 12:56:19.5	109.710	0.170	-1.060	-0.340
2020/01/31 12:56:19.6	109.690	0.180	-1.040	-0.360
2020/01/31 12:56:19.7	109.670	0.180	-1.020	-0.370
2020/01/31 12:56:19.8	109.650	0.180	-0.990	-0.370
2020/01/31 12:56:19.9	109.630	0.180	-0.950	-0.380
2020/01/31 12:56:20.0	109.610	0.170	-0.910	-0.380
2020/01/31 12:56:20.1	109.600	0.170	-0.860	-0.370
2020/01/31 12:56:20.2	109.580	0.170	-0.800	-0.370
2020/01/31 12:56:20.3	109.570	0.160	-0.740	-0.360
2020/01/31 12:56:20.4	109.560	0.150	-0.680	-0.350
2020/01/31 12:56:20.5	109.550	0.150	-0.610	-0.340
2020/01/31 12:56:20.6	109.540	0.140	-0.540	-0.320
2020/01/31 12:56:20.7	109.530	0.130	-0.470	-0.300
2020/01/31 12:56:20.8	109.520	0.120	-0.390	-0.280
2020/01/31 12:56:20.9	109.520	0.120	-0.320	-0.260
2020/01/31 12:56:21.0	109.510	0.110	-0.240	-0.230
2020/01/31 12:56:21.1	109.510	0.100	-0.170	-0.200
2020/01/31 12:56:21.2	109.500	0.090	-0.090	-0.170
2020/01/31 12:56:21.3	109.500	0.080	-0.020	-0.140
2020/01/31 12:56:21.4	109.500	0.070	0.050	-0.100
2020/01/31 12:56:21.5	109.510	0.060	0.120	-0.060
2020/01/31 12:56:21.6	109.510	0.050	0.180	-0.020
2020/01/31 12:56:21.7	109.510	0.050	0.250	0.020
2020/01/31 12:56:21.8	109.510	0.040	0.300	0.060
2020/01/31 12:56:21.9	109.520	0.030	0.350	0.100
2020/01/31 12:56:22.0	109.520	0.030	0.400	0.150
2020/01/31 12:56:22.1	109.530	0.020	0.440	0.200
2020/01/31 12:56:22.2	109.540	0.020	0.480	0.240
2020/01/31 12:56:22.3	109.550	0.010	0.510	0.290
2020/01/31 12:56:22.4	109.560	0.010	0.540	0.340
2020/01/31 12:56:22.5	109.580	0.010	0.560	0.380
2020/01/31 12:56:22.6	109.590	0.010	0.570	0.430
2020/01/31 12:56:22.7	109.610	0.010	0.580	0.480
2020/01/31 12:56:22.8	109.630	0.010	0.580	0.530
2020/01/31 12:56:22.9	109.650	0.010	0.580	0.570
2020/01/31 12:56:23.0	109.680	0.010	0.580	0.620
2020/01/31 12:56:23.1	109.700	0.010	0.560	0.670
2020/01/31 12:56:23.2	109.720	0.020	0.550	0.710
2020/01/31 12:56:23.3	109.750	0.020	0.530	0.760
2020/01/31 12:56:23.4	109.780	0.030	0.500	0.810
2020/01/31 12:56:23.5	109.810	0.030	0.470	0.850
2020/01/31 12:56:23.6	109.840	0.040	0.440	0.900
2020/01/31 12:56:23.7	109.870	0.050	0.410	0.950
2020/01/31 12:56:23.8	109.890	0.050	0.370	0.990
2020/01/31 12:56:23.9	109.920	0.060	0.330	1.040
2020/01/31 12:56:24.0	109.950	0.070	0.290	1.080
2020/01/31 12:56:24.1	109.970	0.080	0.250	1.130
2020/01/31 12:56:24.2	109.990	0.090	0.210	1.180
2020/01/31 12:56:24.3	110.020	0.110	0.170	1.220
2020/01/31 12:56:24.4	110.030	0.120	0.120	1.270
2020/01/31 12:56:24.5	110.040	0.130	0.080	1.320
2020/01/31 12:56:24.6	110.050	0.140	0.030	1.370
2020/01/31 12:56:24.7	110.060	0.150	-0.010	1.410
2020/01/31 12:56:24.8	110.070	0.170	-0.050	1.460
2020/01/31 12:56:24.9	110.080	0.180	-0.100	1.510
2020/01/31 12:56:25.0	110.090	0.190	-0.140	1.560
2020/01/31 12:56:25.1	110.090	0.200	-0.180	1.610
2020/01/31 12:56:25.2	110.090	0.210	-0.210	1.660
2020/01/31 12:56:25.3	110.080	0.220	-0.250	1.700
2020/01/31 12:56:25.4	110.080	0.230	-0.280	1.750
2020/01/31 12:56:25.5	110.080	0.240	-0.310	1.800
2020/01/31 12:56:25.6	110.070	0.250	-0.340	1.850
2020/01/31 12:56:25.7	110.060	0.250	-0.370	1.900
2020/01/31 12:56:25.8	110.040	0.260	-0.390	1.950
2020/01/31 12:56:25.9	110.020	0.260	-0.410	2.000
2020/01/31 12:56:26.0	110.000	0.270	-0.430	2.060
2020/01/31 12:56:26.1	109.980	0.270	-0.450	2.110
2020/01/31 12:56:26.2	109.960	0.270	-0.460	2.160
2020/01/31 12:56:26.3	109.930	0.260	-0.470	2.220
2020/01/31 12:56:26.4	109.910	0.260	-0.480	2.270
2020/01/31 12:56:26.5	109.880	0.260	-0.490	2.320
2020/01/31 12:56:26.6	109.850	0.250	-0.490	2.380
2020/01/31 12:56:26.7	109.820	0.240	-0.500	2.430
2020/01/31 12:56:26.8	109.780	0.230	-0.500	2.480
2020/01/31 12:56:26.9	109.750	0.220	-0.500	2.530
2020/01/31 12:56:27.0	109.720	0.210	-0.490	2.580
2020/01/31 12:56:27.1	109.690	0.190	-0.490	2.630
2020/01/31 12:56:27.2	109.650	0.180	-0.480	2.670
2020/01/31 12:56:27.3	109.620	0.160	-0.480	2.720
2020/01/31 12:56:27.4	109.590	0.140	-0.470	2.760
2020/01/31 12:56:27.5	109.550	0.120	-0.460	2.800
2020/01/31 12:56:27.6	109.520	0.100	-0.450	2.830
2020/01/31 12:56:27.7	109.500	0.080	-0.440	2.860
2020/01/31 12:56:27.8	109.470	0.060	-0.420	2.880
2020/01/31 12:56:27.9	109.450	0.030	-0.410	2.900
2020/01/31 12:56:28.0	109.430	0.010	-0.400	2.910
2020/01/31 12:56:28.1	109.410	-0.010	-0.390	2.920
2020/01/31 12:56:28.2	109.390	-0.040	-0.370	2.920
2020/01/31 12:56:28.3	109.380	-0.060	-0.360	2.920
2020/01/31 12:56:28.4	109.370	-0.080	-0.350	2.900
2020/01/31 12:56:28.5	109.360	-0.110	-0.330	2.880
2020/01/31 12:56:28.6	109.360	-0.130	-0.320	2.860
2020/01/31 12:56:28.7	109.360	-0.150	-0.310	2.830
2020/01/31 12:56:28.8	109.360	-0.180	-0.300	2.800
2020/01/31 12:56:28.9	109.360	-0.200	-0.290	2.760
2020/01/31 12:56:29.0	109.360	-0.220	-0.280	2.720
2020/01/31 12:56:29.1	109.370	-0.240	-0.270	2.670
2020/01/31 12:56:29.2	109.380	-0.250	-0.260	2.610
2020/01/31 12:56:29.3	109.390	-0.270	-0.260	2.550
2020/01/31 12:56:29.4	109.400	-0.280	-0.250	2.490
2020/01/31 12:56:29.5	109.420	-0.300	-0.240	2.420
2020/01/31 12:56:29.6	109.430	-0.310	-0.240	2.350
2020/01/31 12:56:29.7	109.450	-0.320	-0.230	2.280
2020/01/31 12:56:29.8	109.470	-0.330	-0.230	2.210
2020/01/31 12:56:29.9	109.490	-0.340	-0.220	2.130
2020/01/31 12:56:30.0	109.510	-0.340	-0.220	2.050
2020/01/31 12:56:30.1	109.530	-0.340	-0.210	1.970
2020/01/31 12:56:30.2	109.550	-0.350	-0.210	1.890
2020/01/31 12:56:30.3	109.570	-0.350	-0.200	1.810
2020/01/31 12:56:30.4	109.600	-0.350	-0.200	1.730
2020/01/31 12:56:30.5	109.620	-0.340	-0.200	1.650
2020/01/31 12:56:30.6	109.640	-0.340	-0.190	1.560
2020/01/31 12:56:30.7	109.670	-0.340	-0.190	1.480
2020/01/31 12:56:30.8	109.690	-0.330	-0.180	1.400
2020/01/31 12:56:30.9	109.710	-0.320	-0.180	1.320
2020/01/31 12:56:31.0	109.740	-0.310	-0.170	1.240
2020/01/31 12:56:31.1	109.760	-0.300	-0.160	1.170
2020/01/31 12:56:31.2	109.780	-0.290	-0.160	1.090
2020/01/31 12:56:31.3	109.800	-0.280	-0.150	1.020
2020/01/31 12:56:31.4	109.820	-0.270	-0.140	0.950
2020/01/31 12:56:31.5	109.830	-0.260	-0.130	0.870
2020/01/31 12:56:31.6	109.850	-0.250	-0.110	0.800
2020/01/31 12:56:31.7	109.860	-0.240	-0.100	0.730
2020/01/31 12:56:31.8	109.870	-0.220	-0.090	0.670
2020/01/31 12:56:31.9	109.890	-0.210	-0.080	0.600
2020/01/31 12:56:32.0	109.900	-0.200	-0.060	0.540
2020/01/31 12:56:32.1	109.900	-0.190	-0.050	0.480
2020/01/31 12:56:32.2	109.910	-0.180	-0.030	0.420
2020/01/31 12:56:32.3	109.910	-0.170	-0.010	0.360
2020/01/31 12:56:32.4	109.910	-0.160	0.010	0.310
2020/01/31 12:56:32.5	109.920	-0.150	0.020	0.250
2020/01/31 12:56:32.6	109.920	-0.140	0.040	0.200
2020/01/31 12:56:32.7	109.920	-0.130	0.060	0.150
2020/01/31 12:56:32.8	109.910	-0.120	0.080	0.100
2020/01/31 12:56:32.9	109.900	-0.120	0.100	0.050
2020/01/31 12:56:33.0	109.890	-0.110	0.120	0.010
2020/01/31 12:56:33.1	109.880	-0.110	0.140	-0.030
2020/01/31 12:56:33.2	109.860	-0.100	0.160	-0.080
2020/01/31 12:56:33.3	109.850	-0.100	0.170	-0.120
2020/01/31 12:56:33.4	109.830	-0.100	0.190	-0.150
2020/01/31 12:56:33.5	109.830	-0.090	0.200	-0.190
2020/01/31 12:56:33.6	109.810	-0.090	0.220	-0.230
2020/01/31 12:56:33.7	109.790	-0.090	0.230	-0.260
2020/01/31 12:56:33.8	109.770	-0.090	0.240	-0.290
2020/01/31 12:56:33.9	109.760	-0.080	0.250	-0.320
2020/01/31 12:56:34.0	109.740	-0.080	0.250	-0.350
2020/01/31 12:56:34.1	109.730	-0.080	0.250	-0.370
2020/01/31 12:56:34.2	109.710	-0.070	0.250	-0.400
2020/01/31 12:56:34.3	109.700	-0.070	0.240	-0.420
2020/01/31 12:56:34.4	109.690	-0.060	0.230	-0.440
2020/01/31 12:56:34.5	109.670	-0.060	0.220	-0.460
2020/01/31 12:56:34.6	109.660	-0.050	0.200	-0.480
2020/01/31 12:56:34.7	109.660	-0.040	0.180	-0.500
2020/01/31 12:56:34.8	109.650	-0.030	0.150	-0.510
2020/01/31 12:56:34.9	109.650	-0.020	0.120	-0.530
2020/01/31 12:56:35.0	109.650	-0.010	0.090	-0.540
2020/01/31 12:56:35.1	109.650	0.010	0.050	-0.550
2020/01/31 12:56:35.2	109.650	0.020	0.010	-0.550
2020/01/31 12:56:35.3	109.660	0.040	-0.040	-0.560
2020/01/31 12:56:35.4	109.660	0.060	-0.090	-0.560
2020/01/31 12:56:35.5	109.680	0.080	-0.140	-0.560
2020/01/31 12:56:35.6	109.690	0.100	-0.190	-0.550
2020/01/31 12:56:35.7	109.700	0.120	-0.240	-0.550
2020/01/31 12:56:35.8	109.710	0.140	-0.290	-0.540
2020/01/31 12:56:35.9	109.720	0.170	-0.350	-0.520
2020/01/31 12:56:36.0	109.730	0.190	-0.400	-0.500
2020/01/31 12:56:36.1	109.740	0.210	-0.450	-0.490
2020/01/31 12:56:36.2	109.750	0.230	-0.500	-0.460
2020/01/31 12:56:36.3	109.770	0.260	-0.540	-0.440
2020/01/31 12:56:36.4	109.780	0.280	-0.590	-0.410
2020/01/31 12:56:36.5	109.790	0.300	-0.630	-0.370
2020/01/31 12:56:36.6	109.800	0.320	-0.660	-0.340
2020/01/31 12:56:36.7	109.810	0.340	-0.690	-0.300
2020/01/31 12:56:36.8	109.820	0.360	-0.720	-0.260
2020/01/31 12:56:36.9	109.830	0.370	-0.740	-0.220
2020/01/31 12:56:37.0	109.830	0.390	-0.760	-0.170
2020/01/31 12:56:37.1	109.840	0.400	-0.770	-0.120
2020/01/31 12:56:37.2	109.840	0.410	-0.780	-0.070
2020/01/31 12:56:37.3	109.850	0.420	-0.780	-0.020
2020/01/31 12:56:37.4	109.850	0.420	-0.780	0.040
2020/01/31 12:56:37.5	109.840	0.430	-0.770	0.100
2020/01/31 12:56:37.6	109.840	0.430	-0.750	0.160
2020/01/31 12:56:37.7	109.840	0.430	-0.740	0.220
2020/01/31 12:56:37.8	109.840	0.430	-0.710	0.290
2020/01/31 12:56:37.9	109.830	0.420	-0.690	0.360
2020/01/31 12:56:38.0	109.830	0.410	-0.660	0.430
2020/01/31 12:56:38.1	109.820	0.400	-0.630	0.500
2020/01/31 12:56:38.2	109.810	0.390	-0.590	0.580
2020/01/31 12:56:38.3	109.800	0.380	-0.550	0.650
2020/01/31 12:56:38.4	109.790	0.360	-0.510	0.730
2020/01/31 12:56:38.5	109.790	0.350	-0.470	0.820
2020/01/31 12:56:38.6	109.780	0.330	-0.430	0.900
2020/01/31 12:56:38.7	109.770	0.310	-0.380	0.980
2020/01/31 12:56:38.8	109.760	0.290	-0.340	1.070
2020/01/31 12:56:38.9	109.740	0.270	-0.290	1.150
2020/01/31 12:56:39.0	109.730	0.250	-0.250	1.240
2020/01/31 12:56:39.1	109.710	0.230	-0.210	1.330
2020/01/31 12:56:39.2	109.700	0.200	-0.160	1.410
2020/01/31 12:56:39.3	109.680	0.180	-0.120	1.500
2020/01/31 12:56:39.4	109.660	0.160	-0.080	1.580
2020/01/31 12:56:39.5	109.640	0.130	-0.040	1.670
2020/01/31 12:56:39.6	109.620	0.110	-0.000	1.750
2020/01/31 12:56:39.7	109.600	0.090	0.030	1.830
2020/01/31 12:56:39.8	109.590	0.060	0.060	1.910
2020/01/31 12:56:39.9	109.570	0.040	0.090	1.980
2020/01/31 12:56:40.0	109.560	0.020	0.120	2.050
2020/01/31 12:56:40.1	109.550	0.000	0.140	2.120
2020/01/31 12:56:40.2	109.540	-0.020	0.160	2.180
2020/01/31 12:56:40.3	109.530	-0.040	0.180	2.230
2020/01/31 12:56:40.4	109.520	-0.050	0.200	2.280
2020/01/31 12:56:40.5	109.520	-0.070	0.220	2.330
2020/01/31 12:56:40.6	109.510	-0.080	0.230	2.370
2020/01/31 12:56:40.7	109.520	-0.100	0.240	2.410
2020/01/31 12:56:40.8	109.520	-0.110	0.240	2.430
2020/01/31 12:56:40.9	109.530	-0.120	0.250	2.460
2020/01/31 12:56:41.0	109.540	-0.130	0.250	2.470
2020/01/31 12:56:41.1	109.550	-0.130	0.250	2.490
2020/01/31 12:56:41.2	109.570	-0.140	0.240	2.490
2020/01/31 12:56:41.3	109.590	-0.140	0.240	2.490
2020/01/31 12:56:41.4	109.610	-0.150	0.230	2.490
2020/01/31 12:56:41.5	109.650	-0.150	0.220	2.480
2020/01/31 12:56:41.6	109.680	-0.150	0.210	2.470
2020/01/31 12:56:41.7	109.710	-0.150	0.190	2.450
2020/01/31 12:56:41.8	109.740	-0.140	0.180	2.430
2020/01/31 12:56:41.9	109.780	-0.140	0.160	2.410
2020/01/31 12:56:42.0	109.820	-0.140	0.140	2.380
2020/01/31 12:56:42.1	109.860	-0.130	0.130	2.360
2020/01/31 12:56:42.2	109.900	-0.120	0.110	2.330
2020/01/31 12:56:42.3	109.950	-0.120	0.090	2.300
2020/01/31 12:56:42.4	109.990	-0.110	0.070	2.270
2020/01/31 12:56:42.5	110.030	-0.100	0.040	2.230
2020/01/31 12:56:42.6	110.080	-0.090	0.020	2.200
2020/01/31 12:56:42.7	110.120	-0.090	0.000	2.170
2020/01/31 12:56:42.8	110.160	-0.080	-0.020	2.130
2020/01/31 12:56:42.9	110.200	-0.070	-0.040	2.100
2020/01/31 12:56:43.0	110.240	-0.070	-0.060	2.070
2020/01/31 12:56:43.1	110.280	-0.060	-0.080	2.030
2020/01/31 12:56:43.2	110.320	-0.060	-0.100	2.000
2020/01/31 12:56:43.3	110.350	-0.060	-0.110	1.970
2020/01/31 12:56:43.4	110.380	-0.050	-0.130	1.930
2020/01/31 12:56:43.5	110.410	-0.050	-0.140	1.900
2020/01/31 12:56:43.6	110.440	-0.060	-0.160	1.870
2020/01/31 12:56:43.7	110.460	-0.060	-0.170	1.830
2020/01/31 12:56:43.8	110.480	-0.060	-0.180	1.800
2020/01/31 12:56:43.9	110.490	-0.070	-0.180	1.770
2020/01/31 12:56:44.0	110.510	-0.080	-0.190	1.740
2020/01/31 12:56:44.1	110.520	-0.090	-0.190	1.710
2020/01/31 12:56:44.2	110.520	-0.100	-0.190	1.680
2020/01/31 12:56:44.3	110.520	-0.110	-0.190	1.650
2020/01/31 12:56:44.4	110.520	-0.120	-0.190	1.620
2020/01/31 12:56:44.5	110.510	-0.140	-0.190	1.590
2020/01/31 12:56:44.6	110.510	-0.150	-0.180	1.560
2020/01/31 12:56:44.7	110.500	-0.170	-0.170	1.530
2020/01/31 12:56:44.8	110.480	-0.190	-0.160	1.510
2020/01/31 12:56:44.9	110.470	-0.210	-0.150	1.480
2020/01/31 12:56:45.0	110.450	-0.230	-0.140	1.450
2020/01/31 12:56:45.1	110.430	-0.250	-0.130	1.420
2020/01/31 12:56:45.2	110.410	-0.270	-0.110	1.400
2020/01/31 12:56:45.3	110.390	-0.290	-0.100	1.370
2020/01/31 12:56:45.4	110.360	-0.310	-0.090	1.340
2020/01/31 12:56:45.5	110.320	-0.320	-0.070	1.310
2020/01/31 12:56:45.6	110.300	-0.340	-0.060	1.290
2020/01/31 12:56:45.7	110.270	-0.360	-0.040	1.260
2020/01/31 12:56:45.8	110.240	-0.370	-0.030	1.230
2020/01/31 12:56:45.9	110.210	-0.390	-0.020	1.200
2020/01/31 12:56:46.0	110.170	-0.400	-0.010	1.170
2020/01/31 12:56:46.1	110.140	-0.410	-0.010	1.150
2020/01/31 12:56:46.2	110.110	-0.420	-0.010	1.120
2020/01/31 12:56:46.3	110.080	-0.420	-0.000	1.090
2020/01/31 12:56:46.4	110.050	-0.430	-0.010	1.060
2020/01/31 12:56:46.5	110.020	-0.430	-0.010	1.030
2020/01/31 12:56:46.6	109.980	-0.430	-0.020	1.000
2020/01/31 12:56:46.7	109.950	-0.420	-0.030	0.970
2020/01/31 12:56:46.8	109.920	-0.410	-0.040	0.940
2020/01/31 12:56:46.9	109.900	-0.400	-0.060	0.900
2020/01/31 12:56:47.0	109.870	-0.390	-0.080	0.870
2020/01/31 12:56:47.1	109.850	-0.370	-0.110	0.840
2020/01/31 12:56:47.2	109.820	-0.350	-0.130	0.800
2020/01/31 12:56:47.3	109.800	-0.330	-0.160	0.770
2020/01/31 12:56:47.4	109.790	-0.310	-0.190	0.730
2020/01/31 12:56:47.5	109.770	-0.280	-0.230	0.690
2020/01/31 12:56:47.6	109.760	-0.250	-0.270	0.650
2020/01/31 12:56:47.7	109.750	-0.220	-0.310	0.610
2020/01/31 12:56:47.8	109.740	-0.190	-0.350	0.570
2020/01/31 12:56:47.9	109.740	-0.150	-0.390	0.530
2020/01/31 12:56:48.0	109.740	-0.120	-0.430	0.480
2020/01/31 12:56:48.1	109.740	-0.080	-0.470	0.440
2020/01/31 12:56:48.2	109.750	-0.040	-0.520	0.400
2020/01/31 12:56:48.3	109.760	-0.000	-0.560	0.350
2020/01/31 12:56:48.4	109.770	0.040	-0.600	0.310
2020/01/31 12:56:48.5	109.790	0.080	-0.640	0.260
2020/01/31 12:56:48.6	109.800	0.120	-0.670	0.210
2020/01/31 12:56:48.7	109.820	0.160	-0.710	0.170
2020/01/31 12:56:48.8	109.840	0.190	-0.740	0.120
2020/01/31 12:56:48.9	109.860	0.230	-0.770	0.080
2020/01/31 12:56:49.0	109.890	0.270	-0.790	0.030
2020/01/31 12:56:49.1	109.920	0.300	-0.810	-0.010
2020/01/31 12:56:49.2	109.940	0.330	-0.830	-0.060
2020/01/31 12:56:49.3	109.970	0.360	-0.840	-0.100
2020/01/31 12:56:49.4	110.010	0.390	-0.850	-0.140
2020/01/31 12:56:49.5	110.030	0.420	-0.850	-0.180
2020/01/31 12:56:49.6	110.070	0.440	-0.850	-0.220
2020/01/31 12:56:49.7	110.100	0.460	-0.840	-0.250
2020/01/31 12:56:49.8	110.130	0.480	-0.820	-0.290
2020/01/31 12:56:49.9	110.170	0.490	-0.800	-0.320
2020/01/31 12:56:50.0	110.200	0.500	-0.780	-0.350
2020/01/31 12:56:50.1	110.230	0.510	-0.750	-0.380
2020/01/31 12:56:50.2	110.270	0.510	-0.710	-0.400
2020/01/31 12:56:50.3	110.300	0.510	-0.670	-0.420
2020/01/31 12:56:50.4	110.330	0.510	-0.630	-0.440
2020/01/31 12:56:50.5	110.350	0.500	-0.570	-0.460
2020/01/31 12:56:50.6	110.380	0.490	-0.520	-0.470
2020/01/31 12:56:50.7	110.410	0.480	-0.460	-0.470
2020/01/31 12:56:50.8	110.430	0.460	-0.410	-0.480
2020/01/31 12:56:50.9	110.450	0.440	-0.340	-0.470
2020/01/31 12:56:51.0	110.470	0.420	-0.280	-0.460
2020/01/31 12:56:51.1	110.490	0.400	-0.210	-0.450
2020/01/31 12:56:51.2	110.500	0.370	-0.150	-0.430
2020/01/31 12:56:51.3	110.510	0.340	-0.080	-0.400
2020/01/31 12:56:51.4	110.520	0.310	-0.010	-0.370
2020/01/31 12:56:51.5	110.520	0.280	0.060	-0.330
2020/01/31 12:56:51.6	110.520	0.240	0.130	-0.290
2020/01/31 12:56:51.7	110.520	0.210	0.190	-0.250
2020/01/31 12:56:51.8	110.520	0.170	0.260	-0.190
2020/01/31 12:56:51.9	110.510	0.130	0.320	-0.130
2020/01/31 12:56:52.0	110.500	0.100	0.380	-0.070
2020/01/31 12:56:52.1	110.490	0.060	0.440	-0.000
2020/01/31 12:56:52.2	110.470	0.020	0.490	0.070
2020/01/31 12:56:52.3	110.460	-0.010	0.540	0.150
2020/01/31 12:56:52.4	110.440	-0.050	0.580	0.230
2020/01/31 12:56:52.5	110.410	-0.080	0.620	0.310
2020/01/31 12:56:52.6	110.390	-0.120	0.660	0.390
2020/01/31 12:56:52.7	110.370	-0.150	0.690	0.480
2020/01/31 12:56:52.8	110.340	-0.180	0.710	0.570
2020/01/31 12:56:52.9	110.320	-0.210	0.730	0.660
2020/01/31 12:56:53.0	110.300	-0.240	0.740	0.750
2020/01/31 12:56:53.1	110.270	-0.260	0.750	0.830
2020/01/31 12:56:53.2	110.250	-0.280	0.750	0.920
2020/01/31 12:56:53.3	110.230	-0.300	0.750	1.010
2020/01/31 12:56:53.4	110.200	-0.320	0.740	1.100
2020/01/31 12:56:53.5	110.180	-0.330	0.730	1.180
2020/01/31 12:56:53.6	110.160	-0.340	0.710	1.270
2020/01/31 12:56:53.7	110.140	-0.350	0.680	1.350
2020/01/31 12:56:53.8	110.120	-0.350	0.650	1.420
2020/01/31 12:56:53.9	110.100	-0.360	0.620	1.500
2020/01/31 12:56:54.0	110.080	-0.350	0.580	1.570
2020/01/31 12:56:54.1	110.070	-0.350	0.540	1.640
2020/01/31 12:56:54.2	110.050	-0.340	0.490	1.710
2020/01/31 12:56:54.3	110.040	-0.330	0.440	1.780
2020/01/31 12:56:54.4	110.030	-0.320	0.390	1.840
2020/01/31 12:56:54.5	110.010	-0.310	0.330	1.900
2020/01/31 12:56:54.6	110.000	-0.290	0.280	1.960
2020/01/31 12:56:54.7	109.990	-0.270	0.220	2.020
2020/01/31 12:56:54.8	109.980	-0.250	0.160	2.070
2020/01/31 12:56:54.9	109.970	-0.220	0.100	2.120
2020/01/31 12:56:55.0	109.970	-0.200	0.040	2.170
2020/01/31 12:56:55.1	109.960	-0.170	-0.020	2.220
2020/01/31 12:56:55.2	109.960	-0.150	-0.090	2.260
2020/01/31 12:56:55.3	109.960	-0.120	-0.150	2.300
2020/01/31 12:56:55.4	109.960	-0.090	-0.210	2.340
2020/01/31 12:56:55.5	109.950	-0.070	-0.270	2.370
2020/01/31 12:56:55.6	109.960	-0.040	-0.320	2.400
2020/01/31 12:56:55.7	109.960	-0.010	-0.380	2.430
2020/01/31 12:56:55.8	109.970	0.020	-0.430	2.460
2020/01/31 12:56:55.9	109.970	0.040	-0.490	2.480
2020/01/31 12:56:56.0	109.980	0.070	-0.530	2.500
2020/01/31 12:56:56.1	109.990	0.090	-0.580	2.510
2020/01/31 12:56:56.2	110.000	0.110	-0.620	2.530
2020/01/31 12:56:56.3	110.010	0.140	-0.670	2.540
2020/01/31 12:56:56.4	110.030	0.160	-0.700	2.540
2020/01/31 12:56:56.5	110.050	0.170	-0.740	2.550
2020/01/31 12:56:56.6	110.060	0.190	-0.770	2.550
2020/01/31 12:56:56.7	110.080	0.210	-0.800	2.540
2020/01/31 12:56:56.8	110.110	0.220	-0.820	2.540
2020/01/31 12:56:56.9	110.130	0.230	-0.840	2.530
2020/01/31 12:56:57.0	110.150	0.240	-0.860	2.520
2020/01/31 12:56:57.1	110.180	0.250	-0.870	2.500
2020/01/31 12:56:57.2	110.210	0.260	-0.880	2.480
2020/01/31 12:56:57.3	110.240	0.260	-0.880	2.460
2020/01/31 12:56:57.4	110.270	0.270	-0.880	2.440
2020/01/31 12:56:57.5	110.300	0.270	-0.880	2.410
2020/01/31 12:56:57.6	110.330	0.270	-0.880	2.380
2020/01/31 12:56:57.7	110.360	0.270	-0.870	2.350
2020/01/31 12:56:57.8	110.390	0.270	-0.860	2.310
2020/01/31 12:56:57.9	110.420	0.270	-0.850	2.280
2020/01/31 12:56:58.0	110.460	0.270	-0.830	2.240
2020/01/31 12:56:58.1	110.490	0.260	-0.810	2.200
2020/01/31 12:56:58.2	110.520	0.260	-0.790	2.160
2020/01/31 12:56:58.3	110.540	0.250	-0.770	2.120
2020/01/31 12:56:58.4	110.570	0.250	-0.740	2.080
2020/01/31 12:56:58.5	110.590	0.240	-0.720	2.040
2020/01/31 12:56:58.6	110.610	0.240	-0.690	2.000
2020/01/31 12:56:58.7	110.630	0.230	-0.660	1.950
2020/01/31 12:56:58.8	110.650	0.220	-0.630	1.910
2020/01/31 12:56:58.9	110.670	0.210	-0.590	1.870
2020/01/31 12:56:59.0	110.680	0.210	-0.560	1.820
2020/01/31 12:56:59.1	110.690	0.200	-0.520	1.780
2020/01/31 12:56:59.2	110.700	0.190	-0.490	1.740
2020/01/31 12:56:59.3	110.710	0.180	-0.450	1.690
2020/01/31 12:56:59.4	110.710	0.170	-0.410	1.650
2020/01/31 12:56:59.5	110.710	0.160	-0.370	1.600
2020/01/31 12:56:59.6	110.710	0.150	-0.330	1.560
2020/01/31 12:56:59.7	110.700	0.140	-0.280	1.510
2020/01/31 12:56:59.8	110.700	0.130	-0.240	1.470
2020/01/31 12:56:59.9	110.690	0.120	-0.200	1.430
2020/01/31 12:57:00.0	110.680	0.100	-0.150	1.390
2020/01/31 12:57:00.1	110.670	0.090	-0.110	1.350
2020/01/31 12:57:00.2	110.660	0.080	-0.070	1.310
2020/01/31 12:57:00.3	110.640	0.060	-0.020	1.270
2020/01/31 12:57:00.4	110.620	0.040	0.020	1.230
2020/01/31 12:57:00.5	110.590	0.030	0.060	1.190
2020/01/31 12:57:00.6	110.570	0.010	0.110	1.160
2020/01/31 12:57:00.7	110.550	-0.010	0.150	1.120
2020/01/31 12:57:00.8	110.520	-0.020	0.190	1.090
2020/01/31 12:57:00.9	110.490	-0.040	0.230	1.060
2020/01/31 12:57:01.0	110.470	-0.060	0.260	1.040
2020/01/31 12:57:01.1	110.440	-0.080	0.300	1.010
2020/01/31 12:57:01.2	110.410	-0.090	0.330	0.980
2020/01/31 12:57:01.3	110.380	-0.110	0.370	0.960
2020/01/31 12:57:01.4	110.340	-0.130	0.390	0.930
2020/01/31 12:57:01.5	110.330	-0.150	0.420	0.910
2020/01/31 12:57:01.6	110.300	-0.170	0.450	0.880
2020/01/31 12:57:01.7	110.270	-0.180	0.470	0.860
2020/01/31 12:57:01.8	110.240	-0.200	0.480	0.840
2020/01/31 12:57:01.9	110.210	-0.220	0.500	0.810
2020/01/31 12:57:02.0	110.180	-0.230	0.500	0.780
2020/01/31 12:57:02.1	110.160	-0.250	0.510	0.760
2020/01/31 12:57:02.2	110.130	-0.260	0.510	0.730
2020/01/31 12:57:02.3	110.110	-0.270	0.510	0.690
2020/01/31 12:57:02.4	110.090	-0.280	0.500	0.660
2020/01/31 12:57:02.5	110.060	-0.290	0.490	0.620
2020/01/31 12:57:02.6	110.050	-0.300	0.470	0.590
2020/01/31 12:57:02.7	110.030	-0.310	0.450	0.550
2020/01/31 12:57:02.8	110.020	-0.310	0.420	0.500
2020/01/31 12:57:02.9	110.010	-0.320	0.390	0.460
2020/01/31 12:57:03.0	110.010	-0.320	0.350	0.410
2020/01/31 12:57:03.1	110.000	-0.320	0.320	0.360
2020/01/31 12:57:03.2	110.000	-0.320	0.270	0.310
2020/01/31 12:57:03.3	110.000	-0.320	0.230	0.260
2020/01/31 12:57:03.4	110.010	-0.310	0.180	0.200
2020/01/31 12:57:03.5	110.010	-0.310	0.120	0.150
2020/01/31 12:57:03.6	110.020	-0.300	0.070	0.090
2020/01/31 12:57:03.7	110.030	-0.290	0.020	0.030
2020/01/31 12:57:03.8	110.050	-0.290	-0.040	-0.020
2020/01/31 12:57:03.9	110.060	-0.280	-0.100	-0.070
2020/01/31 12:57:04.0	110.080	-0.270	-0.160	-0.130
2020/01/31 12:57:04.1	110.100	-0.260	-0.210	-0.180
2020/01/31 12:57:04.2	110.120	-0.240	-0.270	-0.230
2020/01/31 12:57:04.3	110.140	-0.230	-0.330	-0.270
2020/01/31 12:57:04.4	110.160	-0.220	-0.380	-0.310
2020/01/31 12:57:04.5	110.180	-0.210	-0.430	-0.350
2020/01/31 12:57:04.6	110.200	-0.200	-0.480	-0.380
2020/01/31 12:57:04.7	110.220	-0.180	-0.530	-0.410
2020/01/31 12:57:04.8	110.250	-0.170	-0.580	-0.430
2020/01/31 12:57:04.9	110.270	-0.160	-0.620	-0.450
2020/01/31 12:57:05.0	110.290	-0.150	-0.650	-0.460
2020/01/31 12:57:05.1	110.320	-0.140	-0.690	-0.470
2020/01/31 12:57:05.2	110.340	-0.130	-0.710	-0.470
2020/01/31 12:57:05.3	110.370	-0.120	-0.740	-0.460
2020/01/31 12:57:05.4	110.390	-0.120	-0.750	-0.450
2020/01/31 12:57:05.5	110.410	-0.110	-0.770	-0.430
2020/01/31 12:57:05.6	110.430	-0.100	-0.770	-0.400
2020/01/31 12:57:05.7	110.450	-0.100	-0.770	-0.370
2020/01/31 12:57:05.8	110.470	-0.090	-0.760	-0.340
2020/01/31 12:57:05.9	110.480	-0.090	-0.750	-0.300
2020/01/31 12:57:06.0	110.500	-0.090	-0.730	-0.260
2020/01/31 12:57:06.1	110.520	-0.090	-0.710	-0.210
2020/01/31 12:57:06.2	110.530	-0.090	-0.670	-0.160
2020/01/31 12:57:06.3	110.550	-0.090	-0.640	-0.110
2020/01/31 12:57:06.4	110.560	-0.090	-0.590	-0.050
2020/01/31 12:57:06.5	110.570	-0.090	-0.540	0.010
2020/01/31 12:57:06.6	110.580	-0.090	-0.490	0.070
2020/01/31 12:57:06.7	110.590	-0.090	-0.440	0.130
2020/01/31 12:57:06.8	110.600	-0.100	-0.380	0.190
2020/01/31 12:57:06.9	110.600	-0.100	-0.310	0.250
2020/01/31 12:57:07.0	110.610	-0.110	-0.250	0.320
2020/01/31 12:57:07.1	110.620	-0.110	-0.180	0.380
2020/01/31 12:57:07.2	110.620	-0.120	-0.110	0.440
2020/01/31 12:57:07.3	110.630	-0.120	-0.050	0.500
2020/01/31 12:57:07.4	110.630	-0.130	0.020	0.560
2020/01/31 12:57:07.5	110.640	-0.130	0.090	0.620
2020/01/31 12:57:07.6	110.640	-0.140	0.150	0.680
2020/01/31 12:57:07.7	110.640	-0.140	0.210	0.740
2020/01/31 12:57:07.8	110.640	-0.150	0.270	0.790
2020/01/31 12:57:07.9	110.640	-0.150	0.320	0.850
2020/01/31 12:57:08.0	110.630	-0.150	0.370	0.900
2020/01/31 12:57:08.1	110.630	-0.150	0.410	0.950
2020/01/31 12:57:08.2	110.620	-0.150	0.440	1.010
2020/01/31 12:57:08.3	110.610	-0.150	0.470	1.060
2020/01/31 12:57:08.4	110.600	-0.140	0.490	1.110
2020/01/31 12:57:08.5	110.600	-0.130	0.510	1.160
2020/01/31 12:57:08.6	110.590	-0.130	0.510	1.210
2020/01/31 12:57:08.7	110.580	-0.110	0.510	1.260
2020/01/31 12:57:08.8	110.560	-0.100	0.500	1.310
2020/01/31 12:57:08.9	110.550	-0.080	0.480	1.350
2020/01/31 12:57:09.0	110.530	-0.070	0.450	1.400
2020/01/31 12:57:09.1	110.510	-0.040	0.420	1.450
2020/01/31 12:57:09.2	110.490	-0.020	0.380	1.490
2020/01/31 12:57:09.3	110.470	0.010	0.330	1.540
2020/01/31 12:57:09.4	110.450	0.030	0.280	1.580
2020/01/31 12:57:09.5	110.420	0.060	0.210	1.630
2020/01/31 12:57:09.6	110.400	0.100	0.150	1.670
2020/01/31 12:57:09.7	110.380	0.130	0.080	1.710
2020/01/31 12:57:09.8	110.360	0.170	0.000	1.750
2020/01/31 12:57:09.9	110.340	0.210	-0.070	1.790
2020/01/31 12:57:10.0	110.320	0.250	-0.150	1.820
2020/01/31 12:57:10.1	110.310	0.290	-0.240	1.850
2020/01/31 12:57:10.2	110.290	0.330	-0.320	1.880
2020/01/31 12:57:10.3	110.270	0.370	-0.400	1.910
2020/01/31 12:57:10.4	110.260	0.410	-0.480	1.930
2020/01/31 12:57:10.5	110.250	0.450	-0.550	1.950
2020/01/31 12:57:10.6	110.240	0.500	-0.630	1.970
2020/01/31 12:57:10.7	110.230	0.540	-0.700	1.990
2020/01/31 12:57:10.8	110.220	0.570	-0.770	2.000
2020/01/31 12:57:10.9	110.210	0.610	-0.830	2.010
2020/01/31 12:57:11.0	110.200	0.650	-0.890	2.020
2020/01/31 12:57:11.1	110.200	0.680	-0.940	2.030
2020/01/31 12:57:11.2	110.200	0.710	-0.980	2.030
2020/01/31 12:57:11.3	110.200	0.740	-1.020	2.030
2020/01/31 12:57:11.4	110.200	0.760	-1.050	2.030
2020/01/31 12:57:11.5	110.200	0.780	-1.070	2.030
2020/01/31 12:57:11.6	110.200	0.800	-1.080	2.030
2020/01/31 12:57:11.7	110.200	0.820	-1.090	2.020
2020/01/31 12:57:11.8	110.210	0.830	-1.090	2.010
2020/01/31 12:57:11.9	110.210	0.830	-1.080	2.000
2020/01/31 12:57:12.0	110.220	0.830	-1.060	1.990
2020/01/31 12:57:12.1	110.230	0.830	-1.040	1.980
2020/01/31 12:57:12.2	110.240	0.820	-1.000	1.960
2020/01/31 12:57:12.3	110.240	0.810	-0.960	1.940
2020/01/31 12:57:12.4	110.250	0.800	-0.920	1.920
2020/01/31 12:57:12.5	110.260	0.780	-0.860	1.900
2020/01/31 12:57:12.6	110.270	0.750	-0.800	1.870
2020/01/31 12:57:12.7	110.290	0.730	-0.740	1.850
2020/01/31 12:57:12.8	110.300	0.690	-0.670	1.820
2020/01/31 12:57:12.9	110.310	0.660	-0.600	1.790
2020/01/31 12:57:13.0	110.320	0.620	-0.520	1.760
2020/01/31 12:57:13.1	110.340	0.580	-0.440	1.730
2020/01/31 12:57:13.2	110.350	0.530	-0.360	1.690
2020/01/31 12:57:13.3	110.360	0.490	-0.280	1.660
2020/01/31 12:57:13.4	110.380	0.440	-0.190	1.620
2020/01/31 12:57:13.5	110.400	0.390	-0.100	1.590
2020/01/31 12:57:13.6	110.420	0.330	-0.020	1.550
2020/01/31 12:57:13.7	110.430	0.280	0.060	1.510
2020/01/31 12:57:13.8	110.450	0.220	0.150	1.470
2020/01/31 12:57:13.9	110.470	0.170	0.230	1.440
2020/01/31 12:57:14.0	110.480	0.110	0.300	1.400
2020/01/31 12:57:14.1	110.500	0.050	0.370	1.360
2020/01/31 12:57:14.2	110.520	-0.010	0.440	1.330
2020/01/31 12:57:14.3	110.530	-0.070	0.510	1.290
2020/01/31 12:57:14.4	110.550	-0.120	0.560	1.260
2020/01/31 12:57:14.5	110.560	-0.180	0.620	1.230
2020/01/31 12:57:14.6	110.580	-0.230	0.660	1.200
2020/01/31 12:57:14.7	110.590	-0.280	0.700	1.170
2020/01/31 12:57:14.8	110.600	-0.340	0.740	1.140
2020/01/31 12:57:14.9	110.620	-0.380	0.760	1.120
2020/01/31 12:57:15.0	110.630	-0.430	0.780	1.100
2020/01/31 12:57:15.1	110.640	-0.470	0.790	1.080
2020/01/31 12:57:15.2	110.650	-0.510	0.800	1.060
2020/01/31 12:57:15.3	110.660	-0.550	0.800	1.050
2020/01/31 12:57:15.4	110.670	-0.590	0.790	1.030
2020/01/31 12:57:15.5	110.680	-0.620	0.780	1.020
2020/01/31 12:57:15.6	110.680	-0.650	0.760	1.010
2020/01/31 12:57:15.7	110.690	-0.670	0.730	1.010
2020/01/31 12:57:15.8	110.690	-0.700	0.700	1.000
2020/01/31 12:57:15.9	110.690	-0.710	0.660	1.000
2020/01/31 12:57:16.0	110.690	-0.730	0.620	1.000
2020/01/31 12:57:16.1	110.690	-0.740	0.570	1.000
2020/01/31 12:57:16.2	110.690	-0.750	0.520	1.010
2020/01/31 12:57:16.3	110.690	-0.760	0.460	1.010
2020/01/31 12:57:16.4	110.690	-0.760	0.410	1.020
2020/01/31 12:57:16.5	110.680	-0.760	0.340	1.020
2020/01/31 12:57:16.6	110.680	-0.760	0.280	1.030
2020/01/31 12:57:16.7	110.680	-0.760	0.220	1.030
2020/01/31 12:57:16.8	110.670	-0.750	0.160	1.040
2020/01/31 12:57:16.9	110.670	-0.740	0.100	1.050
2020/01/31 12:57:17.0	110.660	-0.730	0.040	1.060
2020/01/31 12:57:17.1	110.650	-0.720	-0.020	1.060
2020/01/31 12:57:17.2	110.650	-0.710	-0.080	1.070
2020/01/31 12:57:17.3	110.640	-0.690	-0.140	1.080
2020/01/31 12:57:17.4	110.640	-0.670	-0.200	1.090
2020/01/31 12:57:17.5	110.640	-0.660	-0.250	1.090
2020/01/31 12:57:17.6	110.630	-0.640	-0.300	1.100
2020/01/31 12:57:17.7	110.620	-0.620	-0.340	1.110
2020/01/31 12:57:17.8	110.620	-0.590	-0.390	1.110
2020/01/31 12:57:17.9	110.610	-0.570	-0.430	1.120
2020/01/31 12:57:18.0	110.610	-0.550	-0.460	1.120
2020/01/31 12:57:18.1	110.610	-0.530	-0.500	1.130
2020/01/31 12:57:18.2	110.600	-0.500	-0.530	1.130
2020/01/31 12:57:18.3	110.600	-0.480	-0.550	1.140
2020/01/31 12:57:18.4	110.600	-0.460	-0.580	1.140
2020/01/31 12:57:18.5	110.600	-0.430	-0.590	1.150
2020/01/31 12:57:18.6	110.590	-0.410	-0.610	1.150
2020/01/31 12:57:18.7	110.590	-0.380	-0.620	1.150
2020/01/31 12:57:18.8	110.590	-0.360	-0.630	1.160
2020/01/31 12:57:18.9	110.590	-0.330	-0.640	1.160
2020/01/31 12:57:19.0	110.590	-0.310	-0.640	1.160
2020/01/31 12:57:19.1	110.580	-0.290	-0.640	1.160
2020/01/31 12:57:19.2	110.580	-0.260	-0.640	1.160
2020/01/31 12:57:19.3	110.580	-0.240	-0.630	1.160
2020/01/31 12:57:19.4	110.580	-0.210	-0.630	1.160
2020/01/31 12:57:19.5	110.570	-0.190	-0.620	1.160
2020/01/31 12:57:19.6	110.570	-0.160	-0.610	1.160
2020/01/31 12:57:19.7	110.570	-0.140	-0.600	1.160
2020/01/31 12:57:19.8	110.560	-0.110	-0.580	1.160
2020/01/31 12:57:19.9	110.560	-0.090	-0.570	1.150
2020/01/31 12:57:20.0	110.560	-0.060	-0.560	1.150
2020/01/31 12:57:20.1	110.550	-0.040	-0.540	1.140
2020/01/31 12:57:20.2	110.550	-0.010	-0.530	1.130
2020/01/31 12:57:20.3	110.540	0.010	-0.510	1.120
2020/01/31 12:57:20.4	110.540	0.040	-0.500	1.110
2020/01/31 12:57:20.5	110.530	0.060	-0.480	1.100
2020/01/31 12:57:20.6	110.530	0.090	-0.470	1.080
2020/01/31 12:57:20.7	110.530	0.110	-0.450	1.060
2020/01/31 12:57:20.8	110.530	0.130	-0.440	1.050
2020/01/31 12:57:20.9	110.530	0.160	-0.420	1.030
2020/01/31 12:57:21.0	110.530	0.180	-0.410	1.010
2020/01/31 12:57:21.1	110.530	0.200	-0.400	0.990
2020/01/31 12:57:21.2	110.530	0.220	-0.390	0.970
2020/01/31 12:57:21.3	110.530	0.250	-0.370	0.940
2020/01/31 12:57:21.4	110.530	0.270	-0.360	0.920
2020/01/31 12:57:21.5	110.530	0.290	-0.360	0.900
2020/01/31 12:57:21.6	110.530	0.310	-0.350	0.880
2020/01/31 12:57:21.7	110.530	0.320	-0.340	0.850
2020/01/31 12:57:21.8	110.530	0.340	-0.330	0.830
2020/01/31 12:57:21.9	110.540	0.360	-0.320	0.810
2020/01/31 12:57:22.0	110.540	0.380	-0.320	0.790
2020/01/31 12:57:22.1	110.550	0.390	-0.310	0.770
2020/01/31 12:57:22.2	110.550	0.410	-0.300	0.750
2020/01/31 12:57:22.3	110.550	0.420	-0.300	0.740
2020/01/31 12:57:22.4	110.560	0.430	-0.290	0.720
2020/01/31 12:57:22.5	110.560	0.450	-0.290	0.710
2020/01/31 12:57:22.6	110.560	0.460	-0.280	0.700
2020/01/31 12:57:22.7	110.560	0.470	-0.280	0.690
2020/01/31 12:57:22.8	110.560	0.480	-0.270	0.680
2020/01/31 12:57:22.9	110.570	0.490	-0.270	0.670
2020/01/31 12:57:23.0	110.570	0.500	-0.270	0.660
2020/01/31 12:57:23.1	110.580	0.510	-0.260	0.650
2020/01/31 12:57:23.2	110.580	0.510	-0.260	0.640
2020/01/31 12:57:23.3	110.590	0.520	-0.250	0.630
2020/01/31 12:57:23.4	110.600	0.520	-0.250	0.630
2020/01/31 12:57:23.5	110.600	0.520	-0.250	0.620
2020/01/31 12:57:23.6	110.620	0.520	-0.240	0.610
2020/01/31 12:57:23.7	110.630	0.520	-0.230	0.600
2020/01/31 12:57:23.8	110.650	0.520	-0.220	0.600
2020/01/31 12:57:23.9	110.660	0.510	-0.210	0.590
2020/01/31 12:57:24.0	110.680	0.510	-0.200	0.580
2020/01/31 12:57:24.1	110.700	0.500	-0.190	0.580
2020/01/31 12:57:24.2	110.720	0.490	-0.180	0.570
2020/01/31 12:57:24.3	110.740	0.480	-0.160	0.570
2020/01/31 12:57:24.4	110.760	0.460	-0.150	0.570
2020/01/31 12:57:24.5	110.780	0.450	-0.130	0.570
2020/01/31 12:57:24.6	110.800	0.430	-0.110	0.570
2020/01/31 12:57:24.7	110.820	0.410	-0.090	0.580
2020/01/31 12:57:24.8	110.840	0.390	-0.070	0.580
2020/01/31 12:57:24.9	110.850	0.370	-0.040	0.590
2020/01/31 12:57:25.0	110.870	0.340	-0.020	0.600
2020/01/31 12:57:25.1	110.890	0.320	0.010	0.610
2020/01/31 12:57:25.2	110.900	0.290	0.030	0.620
2020/01/31 12:57:25.3	110.910	0.260	0.060	0.640
2020/01/31 12:57:25.4	110.920	0.230	0.090	0.660
2020/01/31 12:57:25.5	110.930	0.200	0.110	0.680
2020/01/31 12:57:25.6	110.940	0.170	0.140	0.700
2020/01/31 12:57:25.7	110.940	0.140	0.170	0.730
2020/01/31 12:57:25.8	110.950	0.100	0.190	0.760
2020/01/31 12:57:25.9	110.950	0.070	0.220	0.790
2020/01/31 12:57:26.0	110.950	0.040	0.250	0.820
2020/01/31 12:57:26.1	110.940	0.010	0.270	0.850
2020/01/31 12:57:26.2	110.940	-0.030	0.300	0.890
2020/01/31 12:57:26.3	110.940	-0.060	0.320	0.930
2020/01/31 12:57:26.4	110.930	-0.090	0.340	0.970
2020/01/31 12:57:26.5	110.920	-0.130	0.360	1.010
2020/01/31 12:57:26.6	110.910	-0.160	0.380	1.050
2020/01/31 12:57:26.7	110.910	-0.190	0.400	1.100
2020/01/31 12:57:26.8	110.900	-0.220	0.420	1.140
2020/01/31 12:57:26.9	110.890	-0.250	0.430	1.180
2020/01/31 12:57:27.0	110.880	-0.270	0.450	1.230
2020/01/31 12:57:27.1	110.880	-0.300	0.460	1.270
2020/01/31 12:57:27.2	110.870	-0.330	0.470	1.320
2020/01/31 12:57:27.3	110.870	-0.350	0.470	1.360
2020/01/31 12:57:27.4	110.860	-0.370	0.480	1.410
2020/01/31 12:57:27.5	110.850	-0.390	0.480	1.450
2020/01/31 12:57:27.6	110.850	-0.410	0.470	1.490
2020/01/31 12:57:27.7	110.840	-0.420	0.470	1.540
2020/01/31 12:57:27.8	110.840	-0.440	0.460	1.580
2020/01/31 12:57:27.9	110.830	-0.450	0.450	1.630
2020/01/31 12:57:28.0	110.820	-0.450	0.430	1.670
2020/01/31 12:57:28.1	110.820	-0.460	0.410	1.720
2020/01/31 12:57:28.2	110.810	-0.460	0.390	1.760
2020/01/31 12:57:28.3	110.810	-0.460	0.360	1.810
2020/01/31 12:57:28.4	110.800	-0.460	0.320	1.850
2020/01/31 12:57:28.5	110.790	-0.460	0.290	1.900
2020/01/31 12:57:28.6	110.780	-0.450	0.240	1.940
2020/01/31 12:57:28.7	110.770	-0.440	0.200	1.990
2020/01/31 12:57:28.8	110.770	-0.420	0.150	2.030
2020/01/31 12:57:28.9	110.760	-0.410	0.090	2.070
2020/01/31 12:57:29.0	110.760	-0.390	0.030	2.100
2020/01/31 12:57:29.1	110.750	-0.370	-0.030	2.140
2020/01/31 12:57:29.2	110.750	-0.340	-0.090	2.170
2020/01/31 12:57:29.3	110.750	-0.320	-0.160	2.200
2020/01/31 12:57:29.4	110.750	-0.290	-0.230	2.220
2020/01/31 12:57:29.5	110.740	-0.260	-0.300	2.240
2020/01/31 12:57:29.6	110.740	-0.230	-0.380	2.260
2020/01/31 12:57:29.7	110.750	-0.200	-0.450	2.270
2020/01/31 12:57:29.8	110.760	-0.170	-0.520	2.280
2020/01/31 12:57:29.9	110.760	-0.140	-0.600	2.290
2020/01/31 12:57:30.0	110.780	-0.100	-0.670	2.290
2020/01/31 12:57:30.1	110.790	-0.070	-0.740	2.290
2020/01/31 12:57:30.2	110.800	-0.040	-0.810	2.290
2020/01/31 12:57:30.3	110.820	-0.000	-0.880	2.280
2020/01/31 12:57:30.4	110.840	0.030	-0.940	2.270
2020/01/31 12:57:30.5	110.860	0.060	-1.000	2.260
2020/01/31 12:57:30.6	110.880	0.100	-1.060	2.240
2020/01/31 12:57:30.7	110.900	0.130	-1.110	2.220
2020/01/31 12:57:30.8	110.920	0.160	-1.160	2.200
2020/01/31 12:57:30.9	110.950	0.190	-1.200	2.180
2020/01/31 12:57:31.0	110.970	0.210	-1.240	2.150
2020/01/31 12:57:31.1	111.000	0.240	-1.270	2.130
2020/01/31 12:57:31.2	111.030	0.260	-1.290	2.100
2020/01/31 12:57:31.3	111.050	0.290	-1.310	2.070
2020/01/31 12:57:31.4	111.080	0.300	-1.320	2.050
2020/01/31 12:57:31.5	111.110	0.320	-1.320	2.020
2020/01/31 12:57:31.6	111.130	0.340	-1.310	1.990
2020/01/31 12:57:31.7	111.150	0.350	-1.290	1.960
2020/01/31 12:57:31.8	111.170	0.360	-1.270	1.930
2020/01/31 12:57:31.9	111.200	0.360	-1.240	1.900
2020/01/31 12:57:32.0	111.220	0.370	-1.200	1.870
2020/01/31 12:57:32.1	111.230	0.370	-1.150	1.850
2020/01/31 12:57:32.2	111.250	0.360	-1.100	1.820
2020/01/31 12:57:32.3	111.260	0.360	-1.030	1.790
2020/01/31 12:57:32.4	111.280	0.350	-0.960	1.770
2020/01/31 12:57:32.5	111.280	0.340	-0.880	1.740
2020/01/31 12:57:32.6	111.290	0.330	-0.800	1.720
2020/01/31 12:57:32.7	111.300	0.310	-0.710	1.700
2020/01/31 12:57:32.8	111.300	0.290	-0.620	1.670
2020/01/31 12:57:32.9	111.300	0.270	-0.520	1.650
2020/01/31 12:57:33.0	111.300	0.240	-0.420	1.630
2020/01/31 12:57:33.1	111.300	0.210	-0.310	1.610
2020/01/31 12:57:33.2	111.290	0.190	-0.200	1.590
2020/01/31 12:57:33.3	111.290	0.160	-0.090	1.570
2020/01/31 12:57:33.4	111.280	0.120	0.020	1.550
2020/01/31 12:57:33.5	111.270	0.090	0.130	1.530
2020/01/31 12:57:33.6	111.260	0.050	0.240	1.510
2020/01/31 12:57:33.7	111.250	0.020	0.340	1.490
2020/01/31 12:57:33.8	111.240	-0.020	0.450	1.460
2020/01/31 12:57:33.9	111.230	-0.050	0.550	1.440
2020/01/31 12:57:34.0	111.210	-0.090	0.650	1.410
2020/01/31 12:57:34.1	111.200	-0.130	0.740	1.380
2020/01/31 12:57:34.2	111.190	-0.160	0.820	1.350
2020/01/31 12:57:34.3	111.180	-0.200	0.900	1.310
2020/01/31 12:57:34.4	111.160	-0.230	0.980	1.280
2020/01/31 12:57:34.5	111.160	-0.260	1.040	1.240
2020/01/31 12:57:34.6	111.150	-0.290	1.100	1.200
2020/01/31 12:57:34.7	111.130	-0.320	1.140	1.160
2020/01/31 12:57:34.8	111.120	-0.340	1.180	1.120
2020/01/31 12:57:34.9	111.110	-0.360	1.200	1.080
2020/01/31 12:57:35.0	111.100	-0.380	1.220	1.040
2020/01/31 12:57:35.1	111.080	-0.400	1.230	0.990
2020/01/31 12:57:35.2	111.070	-0.410	1.220	0.950
2020/01/31 12:57:35.3	111.060	-0.420	1.210	0.910
2020/01/31 12:57:35.4	111.050	-0.430	1.190	0.870
2020/01/31 12:57:35.5	111.060	-0.430	1.150	0.820
2020/01/31 12:57:35.6	111.040	-0.430	1.110	0.790
2020/01/31 12:57:35.7	111.030	-0.420	1.060	0.750
2020/01/31 12:57:35.8	111.020	-0.420	1.000	0.710
2020/01/31 12:57:35.9	111.010	-0.410	0.930	0.670
2020/01/31 12:57:36.0	111.000	-0.390	0.850	0.640
2020/01/31 12:57:36.1	110.990	-0.370	0.770	0.610
2020/01/31 12:57:36.2	110.980	-0.350	0.680	0.580
2020/01/31 12:57:36.3	110.970	-0.330	0.580	0.550
2020/01/31 12:57:36.4	110.960	-0.300	0.480	0.520
2020/01/31 12:57:36.5	110.950	-0.280	0.380	0.490
2020/01/31 12:57:36.6	110.940	-0.250	0.270	0.460
2020/01/31 12:57:36.7	110.940	-0.220	0.160	0.440
2020/01/31 12:57:36.8	110.940	-0.180	0.050	0.410
2020/01/31 12:57:36.9	110.940	-0.150	-0.070	0.390
2020/01/31 12:57:37.0	110.940	-0.110	-0.180	0.370
2020/01/31 12:57:37.1	110.940	-0.080	-0.300	0.350
2020/01/31 12:57:37.2	110.940	-0.040	-0.410	0.330
2020/01/31 12:57:37.3	110.950	-0.010	-0.520	0.310
2020/01/31 12:57:37.4	110.950	0.030	-0.630	0.290
2020/01/31 12:57:37.5	110.960	0.060	-0.730	0.270
2020/01/31 12:57:37.6	110.970	0.090	-0.830	0.250
2020/01/31 12:57:37.7	110.970	0.130	-0.930	0.240
2020/01/31 12:57:37.8	110.980	0.160	-1.020	0.230
2020/01/31 12:57:37.9	110.990	0.190	-1.100	0.220
2020/01/31 12:57:38.0	111.000	0.210	-1.180	0.210
2020/01/31 12:57:38.1	111.010	0.240	-1.250	0.200
2020/01/31 12:57:38.2	111.020	0.260	-1.310	0.200
2020/01/31 12:57:38.3	111.030	0.290	-1.360	0.200
2020/01/31 12:57:38.4	111.040	0.300	-1.410	0.200
2020/01/31 12:57:38.5	111.060	0.320	-1.440	0.210
2020/01/31 12:57:38.6	111.070	0.330	-1.470	0.220
2020/01/31 12:57:38.7	111.080	0.350	-1.490	0.230
2020/01/31 12:57:38.8	111.080	0.350	-1.500	0.250
2020/01/31 12:57:38.9	111.090	0.360	-1.500	0.260
2020/01/31 12:57:39.0	111.100	0.360	-1.490	0.280
2020/01/31 12:57:39.1	111.110	0.370	-1.470	0.310
2020/01/31 12:57:39.2	111.120	0.360	-1.440	0.340
2020/01/31 12:57:39.3	111.120	0.360	-1.410	0.370
2020/01/31 12:57:39.4	111.130	0.350	-1.360	0.400
2020/01/31 12:57:39.5	111.130	0.340	-1.310	0.440
2020/01/31 12:57:39.6	111.140	0.330	-1.250	0.490
2020/01/31 12:57:39.7	111.140	0.320	-1.180	0.530
2020/01/31 12:57:39.8	111.150	0.300	-1.100	0.580
2020/01/31 12:57:39.9	111.150	0.290	-1.020	0.630
2020/01/31 12:57:40.0	111.160	0.270	-0.940	0.680
2020/01/31 12:57:40.1	111.170	0.250	-0.840	0.740
2020/01/31 12:57:40.2	111.170	0.220	-0.750	0.800
2020/01/31 12:57:40.3	111.180	0.200	-0.650	0.860
2020/01/31 12:57:40.4	111.190	0.170	-0.550	0.920
2020/01/31 12:57:40.5	111.190	0.150	-0.440	0.990
2020/01/31 12:57:40.6	111.200	0.120	-0.340	1.050
2020/01/31 12:57:40.7	111.200	0.090	-0.230	1.120
2020/01/31 12:57:40.8	111.210	0.060	-0.130	1.180
2020/01/31 12:57:40.9	111.220	0.040	-0.030	1.250
2020/01/31 12:57:41.0	111.230	0.010	0.070	1.320
2020/01/31 12:57:41.1	111.230	-0.020	0.170	1.390
2020/01/31 12:57:41.2	111.240	-0.050	0.260	1.450
2020/01/31 12:57:41.3	111.250	-0.070	0.350	1.520
2020/01/31 12:57:41.4	111.260	-0.100	0.430	1.590
2020/01/31 12:57:41.5	111.260	-0.120	0.500	1.650
2020/01/31 12:57:41.6	111.270	-0.150	0.570	1.720
2020/01/31 12:57:41.7	111.270	-0.170	0.630	1.780
2020/01/31 12:57:41.8	111.280	-0.190	0.680	1.850
2020/01/31 12:57:41.9	111.280	-0.200	0.720	1.910
2020/01/31 12:57:42.0	111.290	-0.220	0.750	1.970
2020/01/31 12:57:42.1	111.290	-0.230	0.780	2.030
2020/01/31 12:57:42.2	111.300	-0.240	0.790	2.080
2020/01/31 12:57:42.3	111.300	-0.250	0.800	2.140
2020/01/31 12:57:42.4	111.310	-0.260	0.800	2.190
2020/01/31 12:57:42.5	111.310	-0.260	0.790	2.230
2020/01/31 12:57:42.6	111.320	-0.260	0.770	2.280
2020/01/31 12:57:42.7	111.320	-0.260	0.750	2.320
2020/01/31 12:57:42.8	111.330	-0.260	0.710	2.370
2020/01/31 12:57:42.9	111.330	-0.260	0.680	2.400
2020/01/31 12:57:43.0	111.340	-0.250	0.630	2.440
2020/01/31 12:57:43.1	111.350	-0.250	0.580	2.470
2020/01/31 12:57:43.2	111.350	-0.240	0.530	2.500
2020/01/31 12:57:43.3	111.360	-0.230	0.470	2.530
2020/01/31 12:57:43.4	111.370	-0.220	0.410	2.550
2020/01/31 12:57:43.5	111.370	-0.200	0.350	2.580
2020/01/31 12:57:43.6	111.370	-0.190	0.290	2.600
2020/01/31 12:57:43.7	111.370	-0.180	0.230	2.620
2020/01/31 12:57:43.8	111.380	-0.170	0.170	2.630
2020/01/31 12:57:43.9	111.380	-0.150	0.100	2.640
2020/01/31 12:57:44.0	111.380	-0.140	0.050	2.660
2020/01/31 12:57:44.1	111.380	-0.130	-0.010	2.660
2020/01/31 12:57:44.2	111.380	-0.120	-0.060	2.670
2020/01/31 12:57:44.3	111.370	-0.100	-0.110	2.680
2020/01/31 12:57:44.4	111.360	-0.090	-0.160	2.680
2020/01/31 12:57:44.5	111.350	-0.080	-0.200	2.680
2020/01/31 12:57:44.6	111.340	-0.080	-0.240	2.670
2020/01/31 12:57:44.7	111.330	-0.070	-0.270	2.670
2020/01/31 12:57:44.8	111.320	-0.060	-0.290	2.660
2020/01/31 12:57:44.9	111.310	-0.060	-0.310	2.650
2020/01/31 12:57:45.0	111.290	-0.060	-0.330	2.640
2020/01/31 12:57:45.1	111.280	-0.060	-0.340	2.620
2020/01/31 12:57:45.2	111.260	-0.060	-0.340	2.610
2020/01/31 12:57:45.3	111.250	-0.060	-0.340	2.590
2020/01/31 12:57:45.4	111.230	-0.060	-0.330	2.560
2020/01/31 12:57:45.5	111.200	-0.060	-0.320	2.530
2020/01/31 12:57:45.6	111.180	-0.070	-0.300	2.500
2020/01/31 12:57:45.7	111.160	-0.070	-0.280	2.470
2020/01/31 12:57:45.8	111.140	-0.080	-0.250	2.430
2020/01/31 12:57:45.9	111.130	-0.090	-0.220	2.390
2020/01/31 12:57:46.0	111.110	-0.090	-0.190	2.350
2020/01/31 12:57:46.1	111.090	-0.100	-0.160	2.300
2020/01/31 12:57:46.2	111.080	-0.110	-0.120	2.250
2020/01/31 12:57:46.3	111.060	-0.120	-0.090	2.200
2020/01/31 12:57:46.4	111.050	-0.130	-0.050	2.140
2020/01/31 12:57:46.5	111.040	-0.140	-0.020	2.080
2020/01/31 12:57:46.6	111.030	-0.140	0.020	2.020
2020/01/31 12:57:46.7	111.030	-0.150	0.050	1.950
2020/01/31 12:57:46.8	111.020	-0.150	0.080	1.880
2020/01/31 12:57:46.9	111.020	-0.160	0.110	1.810
2020/01/31 12:57:47.0	111.010	-0.160	0.140	1.740
2020/01/31 12:57:47.1	111.010	-0.160	0.160	1.670
2020/01/31 12:57:47.2	111.020	-0.160	0.170	1.590
2020/01/31 12:57:47.3	111.020	-0.160	0.180	1.510
2020/01/31 12:57:47.4	111.030	-0.160	0.190	1.430
2020/01/31 12:57:47.5	111.040	-0.150	0.190	1.350
2020/01/31 12:57:47.6	111.050	-0.140	0.180	1.270
2020/01/31 12:57:47.7	111.060	-0.130	0.160	1.190
2020/01/31 12:57:47.8	111.080	-0.120	0.140	1.110
2020/01/31 12:57:47.9	111.090	-0.100	0.110	1.040
2020/01/31 12:57:48.0	111.110	-0.090	0.080	0.960
2020/01/31 12:57:48.1	111.130	-0.060	0.030	0.880
2020/01/31 12:57:48.2	111.150	-0.040	-0.020	0.810
2020/01/31 12:57:48.3	111.160	-0.010	-0.080	0.730
2020/01/31 12:57:48.4	111.180	0.010	-0.140	0.660
2020/01/31 12:57:48.5	111.210	0.040	-0.210	0.590
2020/01/31 12:57:48.6	111.220	0.080	-0.280	0.530
2020/01/31 12:57:48.7	111.240	0.110	-0.360	0.470
2020/01/31 12:57:48.8	111.250	0.150	-0.440	0.410
2020/01/31 12:57:48.9	111.270	0.190	-0.530	0.350
2020/01/31 12:57:49.0	111.280	0.230	-0.610	0.300
2020/01/31 12:57:49.1	111.290	0.270	-0.700	0.250
2020/01/31 12:57:49.2	111.300	0.310	-0.780	0.200
2020/01/31 12:57:49.3	111.310	0.350	-0.870	0.160
2020/01/31 12:57:49.4	111.320	0.390	-0.950	0.120
2020/01/31 12:57:49.5	111.320	0.430	-1.030	0.080
2020/01/31 12:57:49.6	111.330	0.470	-1.100	0.050
2020/01/31 12:57:49.7	111.330	0.510	-1.170	0.020
2020/01/31 12:57:49.8	111.330	0.540	-1.230	-0.010
2020/01/31 12:57:49.9	111.340	0.570	-1.280	-0.030
2020/01/31 12:57:50.0	111.340	0.600	-1.330	-0.050
2020/01/31 12:57:50.1	111.340	0.630	-1.360	-0.070
2020/01/31 12:57:50.2	111.340	0.650	-1.390	-0.090
2020/01/31 12:57:50.3	111.330	0.670	-1.400	-0.100
2020/01/31 12:57:50.4	111.330	0.690	-1.400	-0.100
2020/01/31 12:57:50.5	111.330	0.700	-1.400	-0.110
2020/01/31 12:57:50.6	111.330	0.700	-1.380	-0.110
2020/01/31 12:57:50.7	111.330	0.700	-1.350	-0.100
2020/01/31 12:57:50.8	111.330	0.700	-1.310	-0.090
2020/01/31 12:57:50.9	111.330	0.690	-1.250	-0.080
2020/01/31 12:57:51.0	111.340	0.670	-1.190	-0.060
2020/01/31 12:57:51.1	111.340	0.650	-1.120	-0.040
2020/01/31 12:57:51.2	111.340	0.630	-1.040	-0.010
2020/01/31 12:57:51.3	111.340	0.600	-0.950	0.020
2020/01/31 12:57:51.4	111.340	0.560	-0.860	0.060
2020/01/31 12:57:51.5	111.340	0.530	-0.760	0.110
2020/01/31 12:57:51.6	111.340	0.480	-0.650	0.150
2020/01/31 12:57:51.7	111.350	0.440	-0.540	0.200
2020/01/31 12:57:51.8	111.350	0.390	-0.430	0.250
2020/01/31 12:57:51.9	111.360	0.330	-0.310	0.310
2020/01/31 12:57:52.0	111.360	0.280	-0.200	0.360
2020/01/31 12:57:52.1	111.360	0.220	-0.080	0.430
2020/01/31 12:57:52.2	111.370	0.170	0.030	0.490
2020/01/31 12:57:52.3	111.370	0.110	0.140	0.550
2020/01/31 12:57:52.4	111.380	0.050	0.250	0.620
2020/01/31 12:57:52.5	111.380	-0.010	0.360	0.700
2020/01/31 12:57:52.6	111.380	-0.070	0.450	0.770
2020/01/31 12:57:52.7	111.380	-0.130	0.550	0.840
2020/01/31 12:57:52.8	111.390	-0.190	0.640	0.910
2020/01/31 12:57:52.9	111.390	-0.240	0.720	0.980
2020/01/31 12:57:53.0	111.390	-0.290	0.790	1.050
2020/01/31 12:57:53.1	111.390	-0.340	0.860	1.130
2020/01/31 12:57:53.2	111.380	-0.390	0.920	1.200
2020/01/31 12:57:53.3	111.380	-0.440	0.970	1.270
2020/01/31 12:57:53.4	111.380	-0.480	1.010	1.340
2020/01/31 12:57:53.5	111.370	-0.520	1.050	1.410
2020/01/31 12:57:53.6	111.360	-0.550	1.080	1.470
2020/01/31 12:57:53.7	111.360	-0.580	1.100	1.540
2020/01/31 12:57:53.8	111.360	-0.610	1.110	1.600
2020/01/31 12:57:53.9	111.350	-0.640	1.110	1.660
2020/01/31 12:57:54.0	111.350	-0.660	1.110	1.720
2020/01/31 12:57:54.1	111.350	-0.670	1.100	1.770
2020/01/31 12:57:54.2	111.340	-0.690	1.080	1.830
2020/01/31 12:57:54.3	111.340	-0.700	1.060	1.880
2020/01/31 12:57:54.4	111.340	-0.700	1.030	1.930
2020/01/31 12:57:54.5	111.340	-0.710	0.990	1.970
2020/01/31 12:57:54.6	111.340	-0.710	0.950	2.010
2020/01/31 12:57:54.7	111.340	-0.700	0.910	2.050
2020/01/31 12:57:54.8	111.330	-0.700	0.860	2.090
2020/01/31 12:57:54.9	111.330	-0.690	0.800	2.120
2020/01/31 12:57:55.0	111.330	-0.680	0.750	2.160
2020/01/31 12:57:55.1	111.330	-0.670	0.690	2.190
2020/01/31 12:57:55.2	111.330	-0.650	0.630	2.220
2020/01/31 12:57:55.3	111.330	-0.640	0.570	2.240
2020/01/31 12:57:55.4	111.330	-0.620	0.500	2.270
2020/01/31 12:57:55.5	111.330	-0.600	0.440	2.290
2020/01/31 12:57:55.6	111.330	-0.580	0.380	2.310
2020/01/31 12:57:55.7	111.340	-0.560	0.310	2.330
2020/01/31 12:57:55.8	111.340	-0.530	0.250	2.350
2020/01/31 12:57:55.9	111.340	-0.510	0.180	2.360
2020/01/31 12:57:56.0	111.350	-0.480	0.120	2.380
2020/01/31 12:57:56.1	111.350	-0.460	0.050	2.390
2020/01/31 12:57:56.2	111.360	-0.430	-0.010	2.400
2020/01/31 12:57:56.3	111.360	-0.410	-0.070	2.410
2020/01/31 12:57:56.4	111.370	-0.380	-0.130	2.420
2020/01/31 12:57:56.5	111.370	-0.350	-0.200	2.420
2020/01/31 12:57:56.6	111.370	-0.330	-0.250	2.420
2020/01/31 12:57:56.7	111.380	-0.300	-0.310	2.430
2020/01/31 12:57:56.8	111.390	-0.270	-0.370	2.430
2020/01/31 12:57:56.9	111.400	-0.240	-0.420	2.430
2020/01/31 12:57:57.0	111.410	-0.210	-0.480	2.430
2020/01/31 12:57:57.1	111.420	-0.190	-0.530	2.430
2020/01/31 12:57:57.2	111.430	-0.160	-0.580	2.430
2020/01/31 12:57:57.3	111.440	-0.130	-0.630	2.420
2020/01/31 12:57:57.4	111.460	-0.100	-0.680	2.410
2020/01/31 12:57:57.5	111.470	-0.070	-0.720	2.400
2020/01/31 12:57:57.6	111.490	-0.040	-0.770	2.390
2020/01/31 12:57:57.7	111.510	-0.010	-0.810	2.380
2020/01/31 12:57:57.8	111.530	0.020	-0.850	2.360
2020/01/31 12:57:57.9	111.550	0.050	-0.890	2.340
2020/01/31 12:57:58.0	111.570	0.080	-0.930	2.320
2020/01/31 12:57:58.1	111.590	0.110	-0.960	2.290
2020/01/31 12:57:58.2	111.620	0.140	-1.000	2.270
2020/01/31 12:57:58.3	111.640	0.170	-1.030	2.240
2020/01/31 12:57:58.4	111.670	0.200	-1.060	2.210
2020/01/31 12:57:58.5	111.690	0.220	-1.090	2.170
2020/01/31 12:57:58.6	111.710	0.250	-1.110	2.140
2020/01/31 12:57:58.7	111.730	0.280	-1.130	2.110
2020/01/31 12:57:58.8	111.760	0.310	-1.150	2.070
2020/01/31 12:57:58.9	111.780	0.330	-1.160	2.040
2020/01/31 12:57:59.0	111.800	0.360	-1.170	2.000
2020/01/31 12:57:59.1	111.810	0.390	-1.170	1.960
2020/01/31 12:57:59.2	111.830	0.410	-1.170	1.920
2020/01/31 12:57:59.3	111.840	0.430	-1.170	1.890
2020/01/31 12:57:59.4	111.860	0.450	-1.160	1.850
2020/01/31 12:57:59.5	111.860	0.470	-1.140	1.800
2020/01/31 12:57:59.6	111.860	0.490	-1.130	1.760
2020/01/31 12:57:59.7	111.870	0.500	-1.100	1.720
2020/01/31 12:57:59.8	111.870	0.510	-1.070	1.680
2020/01/31 12:57:59.9	111.870	0.520	-1.040	1.640
2020/01/31 12:58:00.0	111.860	0.530	-1.000	1.600
2020/01/31 12:58:00.1	111.860	0.540	-0.950	1.560
2020/01/31 12:58:00.2	111.850	0.540	-0.900	1.520
2020/01/31 12:58:00.3	111.840	0.540	-0.850	1.480
2020/01/31 12:58:00.4	111.820	0.540	-0.790	1.430
2020/01/31 12:58:00.5	111.800	0.530	-0.720	1.400
2020/01/31 12:58:00.6	111.790	0.520	-0.660	1.350
2020/01/31 12:58:00.7	111.770	0.510	-0.590	1.310
2020/01/31 12:58:00.8	111.750	0.500	-0.510	1.270
2020/01/31 12:58:00.9	111.730	0.480	-0.430	1.230
2020/01/31 12:58:01.0	111.720	0.460	-0.350	1.190
2020/01/31 12:58:01.1	111.700	0.440	-0.270	1.140
2020/01/31 12:58:01.2	111.680	0.420	-0.190	1.100
2020/01/31 12:58:01.3	111.660	0.390	-0.100	1.060
2020/01/31 12:58:01.4	111.640	0.360	-0.020	1.010
2020/01/31 12:58:01.5	111.640	0.330	0.070	0.970
2020/01/31 12:58:01.6	111.630	0.300	0.160	0.920
2020/01/31 12:58:01.7	111.610	0.260	0.240	0.880
2020/01/31 12:58:01.8	111.600	0.230	0.320	0.840
2020/01/31 12:58:01.9	111.590	0.200	0.390	0.790
2020/01/31 12:58:02.0	111.570	0.160	0.470	0.750
2020/01/31 12:58:02.1	111.570	0.120	0.530	0.710
2020/01/31 12:58:02.2	111.560	0.090	0.600	0.660
2020/01/31 12:58:02.3	111.550	0.050	0.650	0.620
2020/01/31 12:58:02.4	111.550	0.020	0.710	0.580
2020/01/31 12:58:02.5	111.560	-0.010	0.750	0.540
2020/01/31 12:58:02.6	111.560	-0.040	0.790	0.500
2020/01/31 12:58:02.7	111.560	-0.070	0.820	0.470
2020/01/31 12:58:02.8	111.560	-0.100	0.850	0.430
2020/01/31 12:58:02.9	111.560	-0.130	0.860	0.400
2020/01/31 12:58:03.0	111.570	-0.150	0.870	0.360
2020/01/31 12:58:03.1	111.570	-0.170	0.870	0.330
2020/01/31 12:58:03.2	111.580	-0.190	0.870	0.300
2020/01/31 12:58:03.3	111.590	-0.210	0.860	0.280
2020/01/31 12:58:03.4	111.600	-0.220	0.840	0.250
2020/01/31 12:58:03.5	111.610	-0.230	0.810	0.220
2020/01/31 12:58:03.6	111.620	-0.230	0.780	0.200
2020/01/31 12:58:03.7	111.630	-0.240	0.740	0.180
2020/01/31 12:58:03.8	111.640	-0.240	0.700	0.160
2020/01/31 12:58:03.9	111.660	-0.240	0.650	0.150
2020/01/31 12:58:04.0	111.670	-0.240	0.590	0.130
2020/01/31 12:58:04.1	111.690	-0.230	0.540	0.120
2020/01/31 12:58:04.2	111.700	-0.220	0.470	0.110
2020/01/31 12:58:04.3	111.720	-0.220	0.410	0.100
2020/01/31 12:58:04.4	111.740	-0.210	0.340	0.090
2020/01/31 12:58:04.5	111.760	-0.190	0.270	0.080
2020/01/31 12:58:04.6	111.780	-0.180	0.210	0.070
2020/01/31 12:58:04.7	111.800	-0.170	0.140	0.060
2020/01/31 12:58:04.8	111.820	-0.150	0.070	0.060
2020/01/31 12:58:04.9	111.840	-0.140	0.000	0.060
2020/01/31 12:58:05.0	111.860	-0.130	-0.070	0.060
2020/01/31 12:58:05.1	111.880	-0.110	-0.130	0.060
2020/01/31 12:58:05.2	111.900	-0.100	-0.190	0.060
2020/01/31 12:58:05.3	111.920	-0.090	-0.250	0.070
2020/01/31 12:58:05.4	111.940	-0.070	-0.310	0.080
2020/01/31 12:58:05.5	111.960	-0.060	-0.360	0.090
2020/01/31 12:58:05.6	111.980	-0.050	-0.410	0.110
2020/01/31 12:58:05.7	111.990	-0.040	-0.450	0.130
2020/01/31 12:58:05.8	112.000	-0.030	-0.490	0.150
2020/01/31 12:58:05.9	112.020	-0.020	-0.530	0.170
2020/01/31 12:58:06.0	112.030	-0.020	-0.560	0.200
2020/01/31 12:58:06.1	112.030	-0.010	-0.580	0.240
2020/01/31 12:58:06.2	112.040	-0.010	-0.600	0.270
2020/01/31 12:58:06.3	112.050	-0.000	-0.620	0.310
2020/01/31 12:58:06.4	112.050	-0.000	-0.630	0.360
2020/01/31 12:58:06.5	112.050	-0.000	-0.650	0.410
2020/01/31 12:58:06.6	112.050	0.000	-0.650	0.460
2020/01/31 12:58:06.7	112.050	0.000	-0.650	0.520
2020/01/31 12:58:06.8	112.050	-0.000	-0.650	0.580
2020/01/31 12:58:06.9	112.040	-0.000	-0.650	0.640
2020/01/31 12:58:07.0	112.030	-0.000	-0.640	0.710
2020/01/31 12:58:07.1	112.020	-0.010	-0.640	0.780
2020/01/31 12:58:07.2	112.020	-0.010	-0.630	0.850
2020/01/31 12:58:07.3	112.010	-0.010	-0.610	0.920
2020/01/31 12:58:07.4	112.000	-0.010	-0.600	1.000
2020/01/31 12:58:07.5	111.990	-0.010	-0.580	1.080
2020/01/31 12:58:07.6	111.980	-0.020	-0.570	1.150
2020/01/31 12:58:07.7	111.970	-0.020	-0.560	1.230
2020/01/31 12:58:07.8	111.960	-0.020	-0.540	1.310
2020/01/31 12:58:07.9	111.950	-0.020	-0.520	1.390
2020/01/31 12:58:08.0	111.940	-0.020	-0.510	1.460
2020/01/31 12:58:08.1	111.930	-0.020	-0.490	1.540
2020/01/31 12:58:08.2	111.930	-0.020	-0.480	1.610
2020/01/31 12:58:08.3	111.920	-0.020	-0.460	1.680
2020/01/31 12:58:08.4	111.920	-0.020	-0.440	1.750
2020/01/31 12:58:08.5	111.910	-0.020	-0.430	1.820
2020/01/31 12:58:08.6	111.900	-0.020	-0.410	1.890
2020/01/31 12:58:08.7	111.900	-0.020	-0.390	1.950
2020/01/31 12:58:08.8	111.900	-0.010	-0.370	2.010
2020/01/31 12:58:08.9	111.900	-0.010	-0.350	2.070
2020/01/31 12:58:09.0	111.890	-0.010	-0.330	2.120
2020/01/31 12:58:09.1	111.890	-0.010	-0.310	2.180
2020/01/31 12:58:09.2	111.890	-0.010	-0.290	2.230
2020/01/31 12:58:09.3	111.890	-0.000	-0.270	2.280
2020/01/31 12:58:09.4	111.890	-0.000	-0.250	2.320
2020/01/31 12:58:09.5	111.880	0.000	-0.230	2.360
2020/01/31 12:58:09.6	111.880	0.000	-0.210	2.410
2020/01/31 12:58:09.7	111.880	0.000	-0.190	2.450
2020/01/31 12:58:09.8	111.870	0.010	-0.170	2.490
2020/01/31 12:58:09.9	111.870	0.010	-0.150	2.520
2020/01/31 12:58:10.0	111.870	0.010	-0.130	2.560
2020/01/31 12:58:10.1	111.870	0.010	-0.110	2.590
2020/01/31 12:58:10.2	111.860	0.010	-0.100	2.620
2020/01/31 12:58:10.3	111.860	0.010	-0.080	2.640
2020/01/31 12:58:10.4	111.860	0.010	-0.060	2.670
2020/01/31 12:58:10.5	111.850	0.010	-0.050	2.690
2020/01/31 12:58:10.6	111.840	0.020	-0.030	2.710
2020/01/31 12:58:10.7	111.840	0.020	-0.020	2.720
2020/01/31 12:58:10.8	111.840	0.020	-0.010	2.740
2020/01/31 12:58:10.9	111.850	0.010	-0.000	2.740
2020/01/31 12:58:11.0	111.850	0.010	0.000	2.750
2020/01/31 12:58:11.1	111.850	0.010	0.010	2.750
2020/01/31 12:58:11.2	111.860	0.010	0.010	2.750
2020/01/31 12:58:11.3	111.860	0.010	0.010	2.740
2020/01/31 12:58:11.4	111.870	0.010	0.010	2.730
2020/01/31 12:58:11.5	111.870	0.010	0.010	2.710
2020/01/31 12:58:11.6	111.880	0.010	0.010	2.690
2020/01/31 12:58:11.7	111.890	0.010	0.000	2.670
2020/01/31 12:58:11.8	111.900	0.010	-0.010	2.640
2020/01/31 12:58:11.9	111.900	0.010	-0.020	2.610
2020/01/31 12:58:12.0	111.910	0.010	-0.030	2.570
2020/01/31 12:58:12.1	111.920	0.010	-0.050	2.540
2020/01/31 12:58:12.2	111.930	0.010	-0.060	2.500
2020/01/31 12:58:12.3	111.940	0.010	-0.080	2.450
2020/01/31 12:58:12.4	111.950	0.010	-0.090	2.400
2020/01/31 12:58:12.5	111.960	0.010	-0.110	2.350
2020/01/31 12:58:12.6	111.970	0.010	-0.130	2.300
2020/01/31 12:58:12.7	111.980	0.010	-0.150	2.250
2020/01/31 12:58:12.8	111.990	0.010	-0.160	2.190
2020/01/31 12:58:12.9	112.000	0.000	-0.180	2.130
2020/01/31 12:58:13.0	112.010	0.000	-0.190	2.070
2020/01/31 12:58:13.1	112.020	-0.000	-0.210	2.000
2020/01/31 12:58:13.2	112.030	-0.010	-0.220	1.940
2020/01/31 12:58:13.3	112.040	-0.010	-0.220	1.880
2020/01/31 12:58:13.4	112.050	-0.020	-0.230	1.810
2020/01/31 12:58:13.5	112.070	-0.030	-0.230	1.740
2020/01/31 12:58:13.6	112.080	-0.040	-0.230	1.680
2020/01/31 12:58:13.7	112.090	-0.050	-0.230	1.610
2020/01/31 12:58:13.8	112.110	-0.050	-0.220	1.540
2020/01/31 12:58:13.9	112.120	-0.070	-0.210	1.480
2020/01/31 12:58:14.0	112.130	-0.080	-0.200	1.410
2020/01/31 12:58:14.1	112.140	-0.090	-0.190	1.350
2020/01/31 12:58:14.2	112.150	-0.100	-0.170	1.280
2020/01/31 12:58:14.3	112.170	-0.110	-0.150	1.220
2020/01/31 12:58:14.4	112.180	-0.120	-0.130	1.160
2020/01/31 12:58:14.5	112.200	-0.140	-0.110	1.100
2020/01/31 12:58:14.6	112.210	-0.150	-0.090	1.040
2020/01/31 12:58:14.7	112.220	-0.160	-0.060	0.980
2020/01/31 12:58:14.8	112.230	-0.170	-0.040	0.930
2020/01/31 12:58:14.9	112.240	-0.180	-0.010	0.880
2020/01/31 12:58:15.0	112.250	-0.190	0.010	0.830
2020/01/31 12:58:15.1	112.260	-0.200	0.040	0.780
2020/01/31 12:58:15.2	112.270	-0.210	0.060	0.730
2020/01/31 12:58:15.3	112.280	-0.220	0.090	0.690
2020/01/31 12:58:15.4	112.290	-0.220	0.110	0.650
2020/01/31 12:58:15.5	112.300	-0.230	0.130	0.610
2020/01/31 12:58:15.6	112.310	-0.230	0.140	0.570
2020/01/31 12:58:15.7	112.310	-0.230	0.160	0.540
2020/01/31 12:58:15.8	112.320	-0.220	0.170	0.500
2020/01/31 12:58:15.9	112.320	-0.220	0.180	0.470
2020/01/31 12:58:16.0	112.330	-0.210	0.190	0.440
2020/01/31 12:58:16.1	112.330	-0.200	0.190	0.410
2020/01/31 12:58:16.2	112.330	-0.190	0.190	0.380
2020/01/31 12:58:16.3	112.330	-0.170	0.190	0.360
2020/01/31 12:58:16.4	112.320	-0.160	0.180	0.340
2020/01/31 12:58:16.5	112.330	-0.140	0.170	0.320
2020/01/31 12:58:16.6	112.330	-0.120	0.160	0.290
2020/01/31 12:58:16.7	112.320	-0.100	0.140	0.270
2020/01/31 12:58:16.8	112.320	-0.070	0.120	0.260
2020/01/31 12:58:16.9	112.310	-0.040	0.100	0.240
2020/01/31 12:58:17.0	112.300	-0.020	0.080	0.220
2020/01/31 12:58:17.1	112.300	0.010	0.050	0.210
2020/01/31 12:58:17.2	112.290	0.040	0.020	0.200
2020/01/31 12:58:17.3	112.280	0.070	-0.010	0.180
2020/01/31 12:58:17.4	112.270	0.110	-0.050	0.180
2020/01/31 12:58:17.5	112.270	0.140	-0.080	0.160
2020/01/31 12:58:17.6	112.260	0.170	-0.120	0.160
2020/01/31 12:58:17.7	112.250	0.200	-0.160	0.150
2020/01/31 12:58:17.8	112.240	0.230	-0.190	0.150
2020/01/31 12:58:17.9	112.240	0.260	-0.230	0.150
2020/01/31 12:58:18.0	112.230	0.290	-0.270	0.150
2020/01/31 12:58:18.1	112.220	0.320	-0.310	0.150
2020/01/31 12:58:18.2	112.210	0.340	-0.350	0.150
2020/01/31 12:58:18.3	112.200	0.370	-0.380	0.160
2020/01/31 12:58:18.4	112.190	0.390	-0.420	0.160
2020/01/31 12:58:18.5	112.190	0.410	-0.450	0.170
2020/01/31 12:58:18.6	112.180	0.430	-0.490	0.180
2020/01/31 12:58:18.7	112.170	0.440	-0.520	0.200
2020/01/31 12:58:18.8	112.160	0.450	-0.550	0.210
2020/01/31 12:58:18.9	112.140	0.460	-0.580	0.220
2020/01/31 12:58:19.0	112.130	0.470	-0.610	0.240
2020/01/31 12:58:19.1	112.120	0.470	-0.630	0.260
2020/01/31 12:58:19.2	112.110	0.480	-0.660	0.280
2020/01/31 12:58:19.3	112.090	0.480	-0.680	0.300
2020/01/31 12:58:19.4	112.080	0.470	-0.690	0.330
2020/01/31 12:58:19.5	112.060	0.470	-0.710	0.350
2020/01/31 12:58:19.6	112.040	0.460	-0.720	0.380
2020/01/31 12:58:19.7	112.030	0.450	-0.720	0.410
2020/01/31 12:58:19.8	112.020	0.440	-0.730	0.440
2020/01/31 12:58:19.9	112.010	0.420	-0.730	0.470
2020/01/31 12:58:20.0	112.000	0.410	-0.720	0.510
2020/01/31 12:58:20.1	111.990	0.390	-0.710	0.540
2020/01/31 12:58:20.2	111.980	0.370	-0.700	0.580
2020/01/31 12:58:20.3	111.980	0.350	-0.690	0.620
2020/01/31 12:58:20.4	111.970	0.330	-0.670	0.660
2020/01/31 12:58:20.5	111.970	0.310	-0.640	0.700
2020/01/31 12:58:20.6	111.970	0.290	-0.610	0.740
2020/01/31 12:58:20.7	111.970	0.270	-0.590	0.780
2020/01/31 12:58:20.8	111.970	0.240	-0.550	0.820
2020/01/31 12:58:20.9	111.980	0.220	-0.520	0.870
2020/01/31 12:58:21.0	111.980	0.200	-0.480	0.910
2020/01/31 12:58:21.1	111.990	0.170	-0.440	0.950
2020/01/31 12:58:21.2	112.000	0.150	-0.390	1.000
2020/01/31 12:58:21.3	112.020	0.120	-0.350	1.050
2020/01/31 12:58:21.4	112.030	0.100	-0.300	1.100
2020/01/31 12:58:21.5	112.050	0.070	-0.250	1.140
2020/01/31 12:58:21.6	112.070	0.050	-0.210	1.200
2020/01/31 12:58:21.7	112.090	0.020	-0.160	1.250
2020/01/31 12:58:21.8	112.110	-0.010	-0.110	1.300
2020/01/31 12:58:21.9	112.130	-0.030	-0.060	1.350
2020/01/31 12:58:22.0	112.150	-0.060	-0.010	1.400
2020/01/31 12:58:22.1	112.180	-0.080	0.040	1.460
2020/01/31 12:58:22.2	112.200	-0.110	0.090	1.510
2020/01/31 12:58:22.3	112.230	-0.130	0.140	1.560
2020/01/31 12:58:22.4	112.250	-0.160	0.180	1.620
2020/01/31 12:58:22.5	112.270	-0.180	0.220	1.680
2020/01/31 12:58:22.6	112.300	-0.210	0.260	1.730
2020/01/31 12:58:22.7	112.320	-0.230	0.300	1.790
2020/01/31 12:58:22.8	112.340	-0.260	0.340	1.840
2020/01/31 12:58:22.9	112.370	-0.280	0.370	1.890
2020/01/31 12:58:23.0	112.390	-0.300	0.400	1.950
2020/01/31 12:58:23.1	112.410	-0.330	0.420	2.000
2020/01/31 12:58:23.2	112.430	-0.350	0.450	2.050
2020/01/31 12:58:23.3	112.450	-0.370	0.470	2.110
2020/01/31 12:58:23.4	112.460	-0.390	0.480	2.160
2020/01/31 12:58:23.5	112.460	-0.410	0.490	2.210
2020/01/31 12:58:23.6	112.480	-0.430	0.500	2.250
2020/01/31 12:58:23.7	112.490	-0.440	0.500	2.300
2020/01/31 12:58:23.8	112.490	-0.460	0.490	2.350
2020/01/31 12:58:23.9	112.500	-0.470	0.490	2.390
2020/01/31 12:58:24.0	112.500	-0.480	0.470	2.430
2020/01/31 12:58:24.1	112.500	-0.490	0.460	2.470
2020/01/31 12:58:24.2	112.500	-0.490	0.440	2.500
2020/01/31 12:58:24.3	112.500	-0.500	0.410	2.540
2020/01/31 12:58:24.4	112.500	-0.500	0.380	2.570
2020/01/31 12:58:24.5	112.500	-0.500	0.350	2.590
2020/01/31 12:58:24.6	112.490	-0.490	0.310	2.610
2020/01/31 12:58:24.7	112.480	-0.490	0.270	2.630
2020/01/31 12:58:24.8	112.470	-0.480	0.230	2.650
2020/01/31 12:58:24.9	112.450	-0.470	0.180	2.660
2020/01/31 12:58:25.0	112.440	-0.450	0.130	2.670
2020/01/31 12:58:25.1	112.420	-0.430	0.070	2.680
2020/01/31 12:58:25.2	112.410	-0.410	0.020	2.690
2020/01/31 12:58:25.3	112.390	-0.390	-0.040	2.690
2020/01/31 12:58:25.4	112.370	-0.370	-0.090	2.680
2020/01/31 12:58:25.5	112.350	-0.340	-0.150	2.680
2020/01/31 12:58:25.6	112.330	-0.310	-0.210	2.670
2020/01/31 12:58:25.7	112.310	-0.280	-0.270	2.650
2020/01/31 12:58:25.8	112.290	-0.250	-0.330	2.640
2020/01/31 12:58:25.9	112.280	-0.220	-0.380	2.620
2020/01/31 12:58:26.0	112.260	-0.180	-0.440	2.600
2020/01/31 12:58:26.1	112.240	-0.150	-0.490	2.580
2020/01/31 12:58:26.2	112.230	-0.110	-0.540	2.550
2020/01/31 12:58:26.3	112.220	-0.070	-0.590	2.520
2020/01/31 12:58:26.4	112.200	-0.040	-0.630	2.490
2020/01/31 12:58:26.5	112.190	0.000	-0.670	2.460
2020/01/31 12:58:26.6	112.180	0.040	-0.710	2.420
2020/01/31 12:58:26.7	112.170	0.070	-0.740	2.380
2020/01/31 12:58:26.8	112.160	0.110	-0.770	2.350
2020/01/31 12:58:26.9	112.160	0.150	-0.790	2.310
2020/01/31 12:58:27.0	112.150	0.180	-0.810	2.260
2020/01/31 12:58:27.1	112.150	0.210	-0.830	2.220
2020/01/31 12:58:27.2	112.150	0.240	-0.840	2.180
2020/01/31 12:58:27.3	112.150	0.270	-0.840	2.130
2020/01/31 12:58:27.4	112.160	0.300	-0.840	2.080
2020/01/31 12:58:27.5	112.150	0.330	-0.840	2.040
2020/01/31 12:58:27.6	112.160	0.350	-0.830	1.990
2020/01/31 12:58:27.7	112.170	0.370	-0.810	1.940
2020/01/31 12:58:27.8	112.170	0.390	-0.790	1.880
2020/01/31 12:58:27.9	112.180	0.400	-0.770	1.830
2020/01/31 12:58:28.0	112.190	0.410	-0.740	1.770
2020/01/31 12:58:28.1	112.200	0.420	-0.700	1.710
2020/01/31 12:58:28.2	112.210	0.430	-0.660	1.660
2020/01/31 12:58:28.3	112.220	0.440	-0.620	1.590
2020/01/31 12:58:28.4	112.230	0.440	-0.570	1.530
2020/01/31 12:58:28.5	112.250	0.440	-0.520	1.460
2020/01/31 12:58:28.6	112.260	0.430	-0.460	1.390
2020/01/31 12:58:28.7	112.280	0.430	-0.400	1.320
2020/01/31 12:58:28.8	112.290	0.420	-0.340	1.240
2020/01/31 12:58:28.9	112.300	0.400	-0.280	1.170
2020/01/31 12:58:29.0	112.320	0.390	-0.220	1.090
2020/01/31 12:58:29.1	112.330	0.370	-0.150	1.010
2020/01/31 12:58:29.2	112.350	0.360	-0.090	0.930
2020/01/31 12:58:29.3	112.360	0.340	-0.030	0.840
2020/01/31 12:58:29.4	112.380	0.310	0.040	0.760
2020/01/31 12:58:29.5	112.400	0.290	0.100	0.680
2020/01/31 12:58:29.6	112.420	0.270	0.160	0.590
2020/01/31 12:58:29.7	112.430	0.240	0.210	0.510
2020/01/31 12:58:29.8	112.440	0.210	0.260	0.420
2020/01/31 12:58:29.9	112.450	0.190	0.310	0.340
2020/01/31 12:58:30.0	112.460	0.160	0.360	0.260
2020/01/31 12:58:30.1	112.470	0.130	0.390	0.190
2020/01/31 12:58:30.2	112.480	0.100	0.430	0.110
2020/01/31 12:58:30.3	112.480	0.080	0.460	0.040
2020/01/31 12:58:30.4	112.490	0.050	0.480	-0.030
2020/01/31 12:58:30.5	112.500	0.020	0.490	-0.090
2020/01/31 12:58:30.6	112.500	-0.000	0.500	-0.140
2020/01/31 12:58:30.7	112.500	-0.030	0.510	-0.200
2020/01/31 12:58:30.8	112.500	-0.050	0.510	-0.250
2020/01/31 12:58:30.9	112.490	-0.070	0.500	-0.290
2020/01/31 12:58:31.0	112.490	-0.090	0.480	-0.330
2020/01/31 12:58:31.1	112.480	-0.110	0.460	-0.360
2020/01/31 12:58:31.2	112.470	-0.130	0.440	-0.390
2020/01/31 12:58:31.3	112.470	-0.150	0.410	-0.420
2020/01/31 12:58:31.4	112.460	-0.160	0.380	-0.440
2020/01/31 12:58:31.5	112.460	-0.180	0.340	-0.460
2020/01/31 12:58:31.6	112.450	-0.190	0.300	-0.470
2020/01/31 12:58:31.7	112.440	-0.200	0.260	-0.470
2020/01/31 12:58:31.8	112.430	-0.210	0.210	-0.470
2020/01/31 12:58:31.9	112.420	-0.220	0.170	-0.470
2020/01/31 12:58:32.0	112.410	-0.230	0.120	-0.460
2020/01/31 12:58:32.1	112.400	-0.240	0.070	-0.450
2020/01/31 12:58:32.2	112.390	-0.240	0.020	-0.430
2020/01/31 12:58:32.3	112.380	-0.240	-0.040	-0.410
2020/01/31 12:58:32.4	112.370	-0.250	-0.090	-0.390
2020/01/31 12:58:32.5	112.360	-0.250	-0.140	-0.350
2020/01/31 12:58:32.6	112.360	-0.250	-0.190	-0.320
2020/01/31 12:58:32.7	112.350	-0.250	-0.240	-0.290
2020/01/31 12:58:32.8	112.340	-0.250	-0.280	-0.250
2020/01/31 12:58:32.9	112.340	-0.250	-0.320	-0.200
2020/01/31 12:58:33.0	112.340	-0.250	-0.360	-0.160
2020/01/31 12:58:33.1	112.330	-0.250	-0.400	-0.110
2020/01/31 12:58:33.2	112.330	-0.250	-0.440	-0.060
2020/01/31 12:58:33.3	112.330	-0.240	-0.470	-0.000
2020/01/31 12:58:33.4	112.330	-0.240	-0.500	0.060
2020/01/31 12:58:33.5	112.330	-0.230	-0.530	0.110
2020/01/31 12:58:33.6	112.330	-0.230	-0.550	0.170
2020/01/31 12:58:33.7	112.340	-0.220	-0.570	0.230
2020/01/31 12:58:33.8	112.340	-0.220	-0.590	0.300
2020/01/31 12:58:33.9	112.350	-0.210	-0.600	0.360
2020/01/31 12:58:34.0	112.350	-0.210	-0.620	0.430
2020/01/31 12:58:34.1	112.360	-0.200	-0.620	0.500
2020/01/31 12:58:34.2	112.360	-0.190	-0.630	0.570
2020/01/31 12:58:34.3	112.370	-0.190	-0.630	0.640
2020/01/31 12:58:34.4	112.380	-0.180	-0.630	0.710
2020/01/31 12:58:34.5	112.380	-0.170	-0.630	0.790
2020/01/31 12:58:34.6	112.380	-0.160	-0.630	0.860
2020/01/31 12:58:34.7	112.390	-0.160	-0.620	0.930
2020/01/31 12:58:34.8	112.390	-0.150	-0.610	1.000
2020/01/31 12:58:34.9	112.390	-0.140	-0.600	1.080
2020/01/31 12:58:35.0	112.390	-0.130	-0.590	1.150
2020/01/31 12:58:35.1	112.400	-0.120	-0.570	1.220
2020/01/31 12:58:35.2	112.400	-0.110	-0.560	1.290
2020/01/31 12:58:35.3	112.400	-0.100	-0.540	1.360
2020/01/31 12:58:35.4	112.390	-0.090	-0.520	1.430
2020/01/31 12:58:35.5	112.390	-0.080	-0.500	1.500
2020/01/31 12:58:35.6	112.390	-0.060	-0.480	1.570
2020/01/31 12:58:35.7	112.380	-0.050	-0.450	1.630
2020/01/31 12:58:35.8	112.380	-0.040	-0.430	1.700
2020/01/31 12:58:35.9	112.380	-0.030	-0.410	1.760
2020/01/31 12:58:36.0	112.380	-0.020	-0.380	1.820
2020/01/31 12:58:36.1	112.380	-0.010	-0.360	1.870
2020/01/31 12:58:36.2	112.370	0.010	-0.330	1.930
2020/01/31 12:58:36.3	112.370	0.020	-0.300	1.980
2020/01/31 12:58:36.4	112.370	0.030	-0.270	2.020
2020/01/31 12:58:36.5	112.380	0.040	-0.240	2.070
2020/01/31 12:58:36.6	112.380	0.050	-0.210	2.110
2020/01/31 12:58:36.7	112.380	0.060	-0.180	2.150
2020/01/31 12:58:36.8	112.380	0.070	-0.150	2.190
2020/01/31 12:58:36.9	112.390	0.080	-0.120	2.220
2020/01/31 12:58:37.0	112.390	0.090	-0.090	2.250
2020/01/31 12:58:37.1	112.390	0.100	-0.060	2.280
2020/01/31 12:58:37.2	112.400	0.110	-0.020	2.300
2020/01/31 12:58:37.3	112.400	0.120	0.010	2.320
2020/01/31 12:58:37.4	112.410	0.130	0.040	2.340
2020/01/31 12:58:37.5	112.420	0.130	0.070	2.360
2020/01/31 12:58:37.6	112.430	0.140	0.100	2.370
2020/01/31 12:58:37.7	112.440	0.150	0.130	2.380
2020/01/31 12:58:37.8	112.440	0.150	0.160	2.390
2020/01/31 12:58:37.9	112.450	0.160	0.190	2.400
2020/01/31 12:58:38.0	112.460	0.160	0.210	2.400
2020/01/31 12:58:38.1	112.470	0.160	0.240	2.400
2020/01/31 12:58:38.2	112.470	0.170	0.260	2.390
2020/01/31 12:58:38.3	112.480	0.170	0.280	2.390
2020/01/31 12:58:38.4	112.490	0.170	0.300	2.380
2020/01/31 12:58:38.5	112.500	0.170	0.310	2.360
2020/01/31 12:58:38.6	112.510	0.180	0.320	2.350
2020/01/31 12:58:38.7	112.510	0.180	0.330	2.330
2020/01/31 12:58:38.8	112.520	0.180	0.340	2.310
2020/01/31 12:58:38.9	112.530	0.180	0.350	2.290
2020/01/31 12:58:39.0	112.530	0.180	0.350	2.270
2020/01/31 12:58:39.1	112.540	0.180	0.340	2.240
2020/01/31 12:58:39.2	112.540	0.180	0.330	2.210
2020/01/31 12:58:39.3	112.550	0.190	0.320	2.180
2020/01/31 12:58:39.4	112.550	0.190	0.310	2.150
2020/01/31 12:58:39.5	112.550	0.190	0.290	2.120
2020/01/31 12:58:39.6	112.550	0.190	0.270	2.080
2020/01/31 12:58:39.7	112.550	0.190	0.240	2.040
2020/01/31 12:58:39.8	112.560	0.200	0.210	2.000
2020/01/31 12:58:39.9	112.560	0.200	0.180	1.960
2020/01/31 12:58:40.0	112.560	0.200	0.140	1.920
2020/01/31 12:58:40.1	112.560	0.210	0.100	1.880
2020/01/31 12:58:40.2	112.560	0.210	0.060	1.830
2020/01/31 12:58:40.3	112.560	0.210	0.010	1.790
2020/01/31 12:58:40.4	112.570	0.220	-0.040	1.740
2020/01/31 12:58:40.5	112.560	0.220	-0.090	1.690
2020/01/31 12:58:40.6	112.560	0.230	-0.140	1.640
2020/01/31 12:58:40.7	112.560	0.230	-0.190	1.590
2020/01/31 12:58:40.8	112.570	0.240	-0.240	1.540
2020/01/31 12:58:40.9	112.570	0.240	-0.300	1.490
2020/01/31 12:58:41.0	112.570	0.250	-0.350	1.450
2020/01/31 12:58:41.1	112.570	0.250	-0.400	1.400
2020/01/31 12:58:41.2	112.570	0.260	-0.460	1.350
2020/01/31 12:58:41.3	112.570	0.260	-0.510	1.300
2020/01/31 12:58:41.4	112.570	0.270	-0.550	1.260
2020/01/31 12:58:41.5	112.570	0.270	-0.600	1.210
2020/01/31 12:58:41.6	112.570	0.270	-0.640	1.170
2020/01/31 12:58:41.7	112.570	0.270	-0.680	1.130
2020/01/31 12:58:41.8	112.570	0.270	-0.720	1.090
2020/01/31 12:58:41.9	112.570	0.270	-0.750	1.060
2020/01/31 12:58:42.0	112.560	0.270	-0.780	1.020
2020/01/31 12:58:42.1	112.560	0.270	-0.800	1.000
2020/01/31 12:58:42.2	112.560	0.270	-0.820	0.970
2020/01/31 12:58:42.3	112.550	0.260	-0.830	0.940
2020/01/31 12:58:42.4	112.540	0.250	-0.840	0.920
2020/01/31 12:58:42.5	112.530	0.250	-0.840	0.900
2020/01/31 12:58:42.6	112.520	0.240	-0.840	0.880
2020/01/31 12:58:42.7	112.510	0.220	-0.840	0.870
2020/01/31 12:58:42.8	112.500	0.210	-0.830	0.850
2020/01/31 12:58:42.9	112.490	0.190	-0.810	0.850
2020/01/31 12:58:43.0	112.480	0.180	-0.790	0.840
2020/01/31 12:58:43.1	112.460	0.160	-0.770	0.830
2020/01/31 12:58:43.2	112.450	0.140	-0.740	0.830
2020/01/31 12:58:43.3	112.440	0.120	-0.700	0.830
2020/01/31 12:58:43.4	112.420	0.090	-0.660	0.830
2020/01/31 12:58:43.5	112.410	0.070	-0.620	0.830
2020/01/31 12:58:43.6	112.390	0.040	-0.580	0.830
2020/01/31 12:58:43.7	112.380	0.010	-0.530	0.830
2020/01/31 12:58:43.8	112.370	-0.010	-0.470	0.840
2020/01/31 12:58:43.9	112.350	-0.040	-0.420	0.840
2020/01/31 12:58:44.0	112.340	-0.070	-0.360	0.850
2020/01/31 12:58:44.1	112.320	-0.110	-0.290	0.860
2020/01/31 12:58:44.2	112.310	-0.140	-0.230	0.870
2020/01/31 12:58:44.3	112.300	-0.170	-0.170	0.870
2020/01/31 12:58:44.4	112.290	-0.200	-0.100	0.880
2020/01/31 12:58:44.5	112.280	-0.230	-0.030	0.890
2020/01/31 12:58:44.6	112.270	-0.270	0.030	0.900
2020/01/31 12:58:44.7	112.260	-0.300	0.100	0.910
2020/01/31 12:58:44.8	112.260	-0.330	0.160	0.920
2020/01/31 12:58:44.9	112.250	-0.360	0.230	0.930
2020/01/31 12:58:45.0	112.250	-0.390	0.290	0.940
2020/01/31 12:58:45.1	112.250	-0.420	0.340	0.950
2020/01/31 12:58:45.2	112.250	-0.440	0.400	0.960
2020/01/31 12:58:45.3	112.250	-0.470	0.450	0.960
2020/01/31 12:58:45.4	112.260	-0.490	0.500	0.970
2020/01/31 12:58:45.5	112.280	-0.510	0.540	0.980
2020/01/31 12:58:45.6	112.280	-0.530	0.580	0.990
2020/01/31 12:58:45.7	112.290	-0.540	0.610	1.000
2020/01/31 12:58:45.8	112.300	-0.550	0.640	1.010
2020/01/31 12:58:45.9	112.310	-0.560	0.660	1.020
2020/01/31 12:58:46.0	112.320	-0.570	0.670	1.030
2020/01/31 12:58:46.1	112.340	-0.570	0.680	1.040
2020/01/31 12:58:46.2	112.350	-0.570	0.680	1.050
2020/01/31 12:58:46.3	112.360	-0.570	0.680	1.070
2020/01/31 12:58:46.4	112.380	-0.560	0.660	1.080
2020/01/31 12:58:46.5	112.390	-0.560	0.640	1.090
2020/01/31 12:58:46.6	112.410	-0.540	0.620	1.110
2020/01/31 12:58:46.7	112.420	-0.530	0.590	1.120
2020/01/31 12:58:46.8	112.440	-0.510	0.550	1.140
2020/01/31 12:58:46.9	112.450	-0.490	0.510	1.150
2020/01/31 12:58:47.0	112.470	-0.460	0.460	1.160
2020/01/31 12:58:47.1	112.480	-0.430	0.400	1.180
2020/01/31 12:58:47.2	112.500	-0.410	0.350	1.190
2020/01/31 12:58:47.3	112.510	-0.370	0.280	1.200
2020/01/31 12:58:47.4	112.520	-0.340	0.220	1.210
2020/01/31 12:58:47.5	112.530	-0.310	0.150	1.230
2020/01/31 12:58:47.6	112.550	-0.270	0.080	1.240
2020/01/31 12:58:47.7	112.560	-0.230	0.010	1.240
2020/01/31 12:58:47.8	112.570	-0.190	-0.070	1.250
2020/01/31 12:58:47.9	112.580	-0.150	-0.140	1.260
2020/01/31 12:58:48.0	112.590	-0.110	-0.210	1.260
2020/01/31 12:58:48.1	112.600	-0.070	-0.290	1.260
2020/01/31 12:58:48.2	112.610	-0.040	-0.360	1.260
2020/01/31 12:58:48.3	112.610	0.000	-0.430	1.270
2020/01/31 12:58:48.4	112.620	0.040	-0.490	1.270
2020/01/31 12:58:48.5	112.620	0.080	-0.560	1.260
2020/01/31 12:58:48.6	112.630	0.110	-0.620	1.260
2020/01/31 12:58:48.7	112.630	0.150	-0.670	1.260
2020/01/31 12:58:48.8	112.640	0.180	-0.730	1.260
2020/01/31 12:58:48.9	112.640	0.210	-0.780	1.260
2020/01/31 12:58:49.0	112.640	0.240	-0.820	1.260
2020/01/31 12:58:49.1	112.640	0.260	-0.860	1.270
2020/01/31 12:58:49.2	112.640	0.290	-0.890	1.270
2020/01/31 12:58:49.3	112.640	0.310	-0.910	1.270
2020/01/31 12:58:49.4	112.630	0.330	-0.930	1.280
2020/01/31 12:58:49.5	112.620	0.340	-0.950	1.280
2020/01/31 12:58:49.6	112.610	0.360	-0.950	1.290
2020/01/31 12:58:49.7	112.600	0.370	-0.960	1.300
2020/01/31 12:58:49.8	112.590	0.380	-0.950	1.320
2020/01/31 12:58:49.9	112.580	0.390	-0.940	1.330
2020/01/31 12:58:50.0	112.570	0.390	-0.930	1.350
2020/01/31 12:58:50.1	112.560	0.390	-0.900	1.370
2020/01/31 12:58:50.2	112.540	0.390	-0.880	1.390
2020/01/31 12:58:50.3	112.530	0.390	-0.840	1.410
2020/01/31 12:58:50.4	112.510	0.390	-0.810	1.430
2020/01/31 12:58:50.5	112.500	0.390	-0.770	1.460
2020/01/31 12:58:50.6	112.490	0.380	-0.720	1.480
2020/01/31 12:58:50.7	112.470	0.370	-0.670	1.510
2020/01/31 12:58:50.8	112.460	0.360	-0.620	1.530
2020/01/31 12:58:50.9	112.440	0.350	-0.560	1.560
2020/01/31 12:58:51.0	112.430	0.340	-0.500	1.580
2020/01/31 12:58:51.1	112.420	0.330	-0.440	1.610
2020/01/31 12:58:51.2	112.400	0.320	-0.380	1.630
2020/01/31 12:58:51.3	112.390	0.300	-0.320	1.650
2020/01/31 12:58:51.4	112.380	0.290	-0.260	1.670
2020/01/31 12:58:51.5	112.380	0.270	-0.190	1.690
2020/01/31 12:58:51.6	112.370	0.250	-0.130	1.710
2020/01/31 12:58:51.7	112.360	0.240	-0.070	1.730
2020/01/31 12:58:51.8	112.350	0.220	-0.010	1.750
2020/01/31 12:58:51.9	112.340	0.200	0.050	1.760
2020/01/31 12:58:52.0	112.340	0.180	0.100	1.780
2020/01/31 12:58:52.1	112.330	0.160	0.150	1.790
2020/01/31 12:58:52.2	112.320	0.140	0.200	1.800
2020/01/31 12:58:52.3	112.320	0.120	0.250	1.810
2020/01/31 12:58:52.4	112.310	0.100	0.290	1.820
2020/01/31 12:58:52.5	112.300	0.080	0.330	1.820
2020/01/31 12:58:52.6	112.290	0.070	0.360	1.830
2020/01/31 12:58:52.7	112.280	0.050	0.400	1.830
2020/01/31 12:58:52.8	112.280	0.030	0.420	1.840
2020/01/31 12:58:52.9	112.270	0.010	0.440	1.840
2020/01/31 12:58:53.0	112.260	-0.000	0.460	1.830
2020/01/31 12:58:53.1	112.250	-0.020	0.480	1.830
2020/01/31 12:58:53.2	112.240	-0.040	0.490	1.820
2020/01/31 12:58:53.3	112.240	-0.050	0.490	1.820
2020/01/31 12:58:53.4	112.230	-0.070	0.500	1.800
2020/01/31 12:58:53.5	112.240	-0.080	0.490	1.790
2020/01/31 12:58:53.6	112.230	-0.090	0.490	1.770
2020/01/31 12:58:53.7	112.230	-0.100	0.480	1.750
2020/01/31 12:58:53.8	112.230	-0.110	0.460	1.730
2020/01/31 12:58:53.9	112.230	-0.120	0.440	1.710
2020/01/31 12:58:54.0	112.230	-0.130	0.420	1.680
2020/01/31 12:58:54.1	112.230	-0.140	0.400	1.640
2020/01/31 12:58:54.2	112.230	-0.140	0.370	1.610
2020/01/31 12:58:54.3	112.240	-0.150	0.340	1.570
2020/01/31 12:58:54.4	112.240	-0.150	0.310	1.530
2020/01/31 12:58:54.5	112.270	-0.160	0.270	1.490
2020/01/31 12:58:54.6	112.270	-0.160	0.230	1.450
2020/01/31 12:58:54.7	112.290	-0.160	0.190	1.400
2020/01/31 12:58:54.8	112.300	-0.160	0.150	1.360
2020/01/31 12:58:54.9	112.310	-0.160	0.110	1.310
2020/01/31 12:58:55.0	112.320	-0.160	0.060	1.260
2020/01/31 12:58:55.1	112.340	-0.160	0.020	1.220
2020/01/31 12:58:55.2	112.350	-0.150	-0.030	1.170
2020/01/31 12:58:55.3	112.370	-0.150	-0.080	1.130
2020/01/31 12:58:55.4	112.380	-0.140	-0.130	1.090
2020/01/31 12:58:55.5	112.390	-0.140	-0.180	1.050
2020/01/31 12:58:55.6	112.400	-0.130	-0.230	1.010
2020/01/31 12:58:55.7	112.420	-0.120	-0.280	0.970
2020/01/31 12:58:55.8	112.430	-0.110	-0.320	0.940
2020/01/31 12:58:55.9	112.440	-0.100	-0.370	0.910
2020/01/31 12:58:56.0	112.450	-0.090	-0.420	0.880
2020/01/31 12:58:56.1	112.460	-0.080	-0.470	0.860
2020/01/31 12:58:56.2	112.470	-0.070	-0.510	0.840
2020/01/31 12:58:56.3	112.480	-0.050	-0.560	0.820
2020/01/31 12:58:56.4	112.480	-0.040	-0.600	0.810
2020/01/31 12:58:56.5	112.490	-0.020	-0.640	0.790
2020/01/31 12:58:56.6	112.490	-0.010	-0.680	0.790
2020/01/31 12:58:56.7	112.490	0.010	-0.710	0.790
2020/01/31 12:58:56.8	112.480	0.030	-0.750	0.790
2020/01/31 12:58:56.9	112.480	0.040	-0.780	0.790
2020/01/31 12:58:57.0	112.470	0.060	-0.810	0.800
2020/01/31 12:58:57.1	112.470	0.080	-0.830	0.800
2020/01/31 12:58:57.2	112.460	0.100	-0.860	0.810
2020/01/31 12:58:57.3	112.440	0.120	-0.870	0.830
2020/01/31 12:58:57.4	112.430	0.130	-0.890	0.840
2020/01/31 12:58:57.5	112.400	0.150	-0.900	0.860
2020/01/31 12:58:57.6	112.390	0.170	-0.900	0.880
2020/01/31 12:58:57.7	112.370	0.180	-0.910	0.900
2020/01/31 12:58:57.8	112.350	0.200	-0.900	0.920
2020/01/31 12:58:57.9	112.330	0.210	-0.890	0.940
2020/01/31 12:58:58.0	112.300	0.220	-0.880	0.960
2020/01/31 12:58:58.1	112.280	0.230	-0.860	0.980
2020/01/31 12:58:58.2	112.260	0.240	-0.830	1.010
2020/01/31 12:58:58.3	112.230	0.240	-0.800	1.030
2020/01/31 12:58:58.4	112.210	0.240	-0.770	1.050
2020/01/31 12:58:58.5	112.180	0.250	-0.720	1.080
2020/01/31 12:58:58.6	112.150	0.240	-0.680	1.100
2020/01/31 12:58:58.7	112.130	0.240	-0.630	1.120
2020/01/31 12:58:58.8	112.100	0.230	-0.570	1.150
2020/01/31 12:58:58.9	112.080	0.220	-0.510	1.170
2020/01/31 12:58:59.0	112.050	0.210	-0.440	1.200
2020/01/31 12:58:59.1	112.030	0.200	-0.380	1.220
2020/01/31 12:58:59.2	112.010	0.180	-0.310	1.240
2020/01/31 12:58:59.3	111.990	0.160	-0.240	1.260
2020/01/31 12:58:59.4	111.960	0.140	-0.160	1.280
2020/01/31 12:58:59.5	111.940	0.120	-0.090	1.300
2020/01/31 12:58:59.6	111.920	0.090	-0.020	1.320
2020/01/31 12:58:59.7	111.910	0.060	0.060	1.340
2020/01/31 12:58:59.8	111.890	0.040	0.130	1.350
2020/01/31 12:58:59.9	111.880	0.010	0.200	1.370
2020/01/31 12:59:00.0	111.870	-0.020	0.270	1.380
2020/01/31 12:59:00.1	111.860	-0.050	0.330	1.390
2020/01/31 12:59:00.2	111.850	-0.080	0.390	1.400
2020/01/31 12:59:00.3	111.840	-0.110	0.440	1.410
2020/01/31 12:59:00.4	111.840	-0.140	0.490	1.420
2020/01/31 12:59:00.5	111.850	-0.170	0.540	1.420
2020/01/31 12:59:00.6	111.850	-0.200	0.580	1.430
2020/01/31 12:59:00.7	111.850	-0.230	0.610	1.430
2020/01/31 12:59:00.8	111.850	-0.260	0.630	1.430
2020/01/31 12:59:00.9	111.860	-0.280	0.650	1.430
2020/01/31 12:59:01.0	111.870	-0.300	0.660	1.430
2020/01/31 12:59:01.1	111.880	-0.320	0.670	1.420
2020/01/31 12:59:01.2	111.890	-0.340	0.660	1.410
2020/01/31 12:59:01.3	111.900	-0.350	0.650	1.410
2020/01/31 12:59:01.4	111.920	-0.370	0.640	1.400
2020/01/31 12:59:01.5	111.960	-0.380	0.610	1.390
2020/01/31 12:59:01.6	111.980	-0.380	0.580	1.380
2020/01/31 12:59:01.7	112.000	-0.390	0.550	1.360
2020/01/31 12:59:01.8	112.020	-0.390	0.500	1.350
2020/01/31 12:59:01.9	112.040	-0.380	0.460	1.330
2020/01/31 12:59:02.0	112.060	-0.380	0.410	1.320
2020/01/31 12:59:02.1	112.080	-0.370	0.360	1.310
2020/01/31 12:59:02.2	112.110	-0.360	0.300	1.290
2020/01/31 12:59:02.3	112.130	-0.350	0.240	1.280
2020/01/31 12:59:02.4	112.150	-0.330	0.180	1.260
2020/01/31 12:59:02.5	112.170	-0.320	0.110	1.250
2020/01/31 12:59:02.6	112.190	-0.300	0.050	1.240
2020/01/31 12:59:02.7	112.200	-0.280	-0.010	1.230
2020/01/31 12:59:02.8	112.220	-0.250	-0.080	1.220
2020/01/31 12:59:02.9	112.230	-0.230	-0.140	1.210
2020/01/31 12:59:03.0	112.240	-0.210	-0.200	1.200
2020/01/31 12:59:03.1	112.250	-0.180	-0.250	1.200
2020/01/31 12:59:03.2	112.260	-0.160	-0.310	1.190
2020/01/31 12:59:03.3	112.260	-0.130	-0.350	1.190
2020/01/31 12:59:03.4	112.260	-0.100	-0.400	1.190
2020/01/31 12:59:03.5	112.270	-0.080	-0.440	1.180
2020/01/31 12:59:03.6	112.270	-0.050	-0.480	1.180
2020/01/31 12:59:03.7	112.260	-0.030	-0.510	1.180
2020/01/31 12:59:03.8	112.250	-0.010	-0.530	1.180
2020/01/31 12:59:03.9	112.250	0.010	-0.550	1.180
2020/01/31 12:59:04.0	112.240	0.030	-0.570	1.180
2020/01/31 12:59:04.1	112.220	0.050	-0.580	1.180
2020/01/31 12:59:04.2	112.210	0.070	-0.580	1.180
2020/01/31 12:59:04.3	112.190	0.090	-0.580	1.190
2020/01/31 12:59:04.4	112.180	0.100	-0.580	1.190
2020/01/31 12:59:04.5	112.140	0.110	-0.570	1.190
2020/01/31 12:59:04.6	112.130	0.120	-0.550	1.200
2020/01/31 12:59:04.7	112.100	0.130	-0.540	1.200
2020/01/31 12:59:04.8	112.080	0.140	-0.510	1.210
2020/01/31 12:59:04.9	112.060	0.140	-0.490	1.210
2020/01/31 12:59:05.0	112.040	0.150	-0.470	1.220
2020/01/31 12:59:05.1	112.020	0.150	-0.440	1.220
2020/01/31 12:59:05.2	111.990	0.150	-0.410	1.230
2020/01/31 12:59:05.3	111.970	0.150	-0.380	1.240
2020/01/31 12:59:05.4	111.950	0.150	-0.360	1.250
2020/01/31 12:59:05.5	111.920	0.150	-0.330	1.250
2020/01/31 12:59:05.6	111.890	0.140	-0.300	1.260
2020/01/31 12:59:05.7	111.870	0.140	-0.270	1.270
2020/01/31 12:59:05.8	111.850	0.140	-0.250	1.280
2020/01/31 12:59:05.9	111.830	0.140	-0.230	1.290
2020/01/31 12:59:06.0	111.810	0.130	-0.210	1.300
2020/01/31 12:59:06.1	111.790	0.130	-0.190	1.310
2020/01/31 12:59:06.2	111.780	0.130	-0.180	1.320
2020/01/31 12:59:06.3	111.760	0.130	-0.160	1.330
2020/01/31 12:59:06.4	111.740	0.130	-0.160	1.340
2020/01/31 12:59:06.5	111.720	0.130	-0.150	1.350
2020/01/31 12:59:06.6	111.700	0.130	-0.140	1.360
2020/01/31 12:59:06.7	111.680	0.140	-0.140	1.370
2020/01/31 12:59:06.8	111.670	0.140	-0.150	1.370
2020/01/31 12:59:06.9	111.650	0.140	-0.150	1.380
2020/01/31 12:59:07.0	111.640	0.150	-0.160	1.380
2020/01/31 12:59:07.1	111.620	0.160	-0.170	1.390
2020/01/31 12:59:07.2	111.610	0.160	-0.180	1.390
2020/01/31 12:59:07.3	111.590	0.170	-0.190	1.390
2020/01/31 12:59:07.4	111.580	0.180	-0.210	1.390
2020/01/31 12:59:07.5	111.570	0.190	-0.220	1.390
2020/01/31 12:59:07.6	111.560	0.200	-0.240	1.380
2020/01/31 12:59:07.7	111.550	0.210	-0.250	1.380
2020/01/31 12:59:07.8	111.540	0.220	-0.270	1.370
2020/01/31 12:59:07.9	111.520	0.230	-0.280	1.360
2020/01/31 12:59:08.0	111.510	0.240	-0.300	1.350
2020/01/31 12:59:08.1	111.500	0.250	-0.310	1.330
2020/01/31 12:59:08.2	111.490	0.260	-0.320	1.320
2020/01/31 12:59:08.3	111.480	0.260	-0.330	1.300
2020/01/31 12:59:08.4	111.480	0.270	-0.330	1.280
2020/01/31 12:59:08.5	111.470	0.270	-0.330	1.270
2020/01/31 12:59:08.6	111.460	0.280	-0.340	1.250
2020/01/31 12:59:08.7	111.460	0.280	-0.340	1.220
2020/01/31 12:59:08.8	111.450	0.280	-0.330	1.200
2020/01/31 12:59:08.9	111.450	0.280	-0.330	1.180
2020/01/31 12:59:09.0	111.450	0.280	-0.320	1.160
2020/01/31 12:59:09.1	111.440	0.270	-0.310	1.130
2020/01/31 12:59:09.2	111.440	0.260	-0.300	1.110
2020/01/31 12:59:09.3	111.440	0.250	-0.290	1.090
2020/01/31 12:59:09.4	111.450	0.240	-0.270	1.070
2020/01/31 12:59:09.5	111.460	0.230	-0.260	1.050
2020/01/31 12:59:09.6	111.460	0.220	-0.240	1.030
2020/01/31 12:59:09.7	111.470	0.200	-0.220	1.010
2020/01/31 12:59:09.8	111.470	0.180	-0.200	0.990
2020/01/31 12:59:09.9	111.480	0.160	-0.170	0.980
2020/01/31 12:59:10.0	111.490	0.140	-0.150	0.960
2020/01/31 12:59:10.1	111.500	0.120	-0.120	0.950
2020/01/31 12:59:10.2	111.510	0.090	-0.100	0.940
2020/01/31 12:59:10.3	111.520	0.070	-0.080	0.930
2020/01/31 12:59:10.4	111.540	0.040	-0.050	0.920
2020/01/31 12:59:10.5	111.550	0.020	-0.020	0.920
2020/01/31 12:59:10.6	111.560	-0.010	0.000	0.920
2020/01/31 12:59:10.7	111.570	-0.040	0.020	0.910
2020/01/31 12:59:10.8	111.580	-0.070	0.050	0.920
2020/01/31 12:59:10.9	111.590	-0.100	0.070	0.920
2020/01/31 12:59:11.0	111.600	-0.120	0.080	0.930
2020/01/31 12:59:11.1	111.600	-0.150	0.100	0.940
2020/01/31 12:59:11.2	111.600	-0.180	0.110	0.960
2020/01/31 12:59:11.3	111.610	-0.210	0.130	0.970
2020/01/31 12:59:11.4	111.610	-0.230	0.130	0.990
2020/01/31 12:59:11.5	111.610	-0.260	0.140	1.020
2020/01/31 12:59:11.6	111.610	-0.280	0.140	1.040
2020/01/31 12:59:11.7	111.610	-0.300	0.140	1.060
2020/01/31 12:59:11.8	111.600	-0.330	0.140	1.090
2020/01/31 12:59:11.9	111.600	-0.350	0.140	1.120
2020/01/31 12:59:12.0	111.590	-0.360	0.130	1.150
2020/01/31 12:59:12.1	111.590	-0.380	0.120	1.170
2020/01/31 12:59:12.2	111.580	-0.400	0.110	1.200
2020/01/31 12:59:12.3	111.580	-0.410	0.100	1.230
2020/01/31 12:59:12.4	111.570	-0.430	0.080	1.260
2020/01/31 12:59:12.5	111.560	-0.440	0.060	1.280
2020/01/31 12:59:12.6	111.550	-0.450	0.050	1.310
2020/01/31 12:59:12.7	111.550	-0.460	0.030	1.340
2020/01/31 12:59:12.8	111.540	-0.460	0.010	1.360
2020/01/31 12:59:12.9	111.530	-0.470	-0.010	1.390
2020/01/31 12:59:13.0	111.530	-0.470	-0.030	1.410
2020/01/31 12:59:13.1	111.520	-0.480	-0.050	1.430
2020/01/31 12:59:13.2	111.520	-0.480	-0.070	1.450
2020/01/31 12:59:13.3	111.510	-0.480	-0.090	1.480
2020/01/31 12:59:13.4	111.500	-0.480	-0.100	1.500
2020/01/31 12:59:13.5	111.490	-0.480	-0.120	1.520
2020/01/31 12:59:13.6	111.480	-0.470	-0.130	1.540
2020/01/31 12:59:13.7	111.470	-0.470	-0.150	1.570
2020/01/31 12:59:13.8	111.460	-0.460	-0.160	1.590
2020/01/31 12:59:13.9	111.450	-0.460	-0.170	1.610
2020/01/31 12:59:14.0	111.440	-0.450	-0.190	1.630
2020/01/31 12:59:14.1	111.420	-0.440	-0.200	1.650
2020/01/31 12:59:14.2	111.410	-0.430	-0.210	1.680
2020/01/31 12:59:14.3	111.390	-0.420	-0.210	1.700
2020/01/31 12:59:14.4	111.380	-0.410	-0.220	1.720
2020/01/31 12:59:14.5	111.360	-0.390	-0.230	1.740
2020/01/31 12:59:14.6	111.340	-0.380	-0.240	1.760
2020/01/31 12:59:14.7	111.330	-0.370	-0.240	1.780
2020/01/31 12:59:14.8	111.310	-0.350	-0.250	1.800
2020/01/31 12:59:14.9	111.290	-0.330	-0.250	1.810
2020/01/31 12:59:15.0	111.270	-0.320	-0.250	1.830
2020/01/31 12:59:15.1	111.260	-0.300	-0.250	1.840
2020/01/31 12:59:15.2	111.240	-0.280	-0.260	1.860
2020/01/31 12:59:15.3	111.220	-0.260	-0.260	1.870
2020/01/31 12:59:15.4	111.200	-0.240	-0.260	1.880
2020/01/31 12:59:15.5	111.180	-0.220	-0.250	1.880
2020/01/31 12:59:15.6	111.160	-0.200	-0.250	1.890
2020/01/31 12:59:15.7	111.140	-0.180	-0.250	1.890
2020/01/31 12:59:15.8	111.130	-0.160	-0.260	1.890
2020/01/31 12:59:15.9	111.110	-0.140	-0.260	1.890
2020/01/31 12:59:16.0	111.090	-0.110	-0.260	1.880
2020/01/31 12:59:16.1	111.070	-0.090	-0.260	1.870
2020/01/31 12:59:16.2	111.050	-0.070	-0.260	1.860
2020/01/31 12:59:16.3	111.040	-0.040	-0.260	1.850
2020/01/31 12:59:16.4	111.020	-0.010	-0.260	1.830
2020/01/31 12:59:16.5	111.000	0.010	-0.270	1.810
2020/01/31 12:59:16.6	110.990	0.040	-0.280	1.790
2020/01/31 12:59:16.7	110.970	0.070	-0.280	1.760
2020/01/31 12:59:16.8	110.960	0.100	-0.280	1.730
2020/01/31 12:59:16.9	110.950	0.120	-0.290	1.700
2020/01/31 12:59:17.0	110.940	0.150	-0.290	1.660
2020/01/31 12:59:17.1	110.930	0.180	-0.300	1.620
2020/01/31 12:59:17.2	110.920	0.210	-0.310	1.580
2020/01/31 12:59:17.3	110.920	0.240	-0.310	1.540
2020/01/31 12:59:17.4	110.910	0.270	-0.320	1.490
2020/01/31 12:59:17.5	110.910	0.310	-0.330	1.440
2020/01/31 12:59:17.6	110.910	0.340	-0.340	1.380
2020/01/31 12:59:17.7	110.910	0.370	-0.350	1.330
2020/01/31 12:59:17.8	110.910	0.400	-0.360	1.270
2020/01/31 12:59:17.9	110.920	0.430	-0.370	1.210
2020/01/31 12:59:18.0	110.920	0.460	-0.380	1.150
2020/01/31 12:59:18.1	110.920	0.490	-0.390	1.090
2020/01/31 12:59:18.2	110.930	0.510	-0.390	1.030
2020/01/31 12:59:18.3	110.940	0.540	-0.400	0.970
2020/01/31 12:59:18.4	110.940	0.570	-0.410	0.910
2020/01/31 12:59:18.5	110.950	0.590	-0.420	0.850
2020/01/31 12:59:18.6	110.960	0.610	-0.420	0.790
2020/01/31 12:59:18.7	110.960	0.630	-0.420	0.740
2020/01/31 12:59:18.8	110.970	0.650	-0.420	0.680
2020/01/31 12:59:18.9	110.980	0.670	-0.420	0.630
2020/01/31 12:59:19.0	110.990	0.680	-0.420	0.580
2020/01/31 12:59:19.1	110.990	0.690	-0.410	0.530
2020/01/31 12:59:19.2	111.000	0.700	-0.400	0.480
2020/01/31 12:59:19.3	111.010	0.700	-0.390	0.430
2020/01/31 12:59:19.4	111.010	0.700	-0.370	0.390
2020/01/31 12:59:19.5	111.020	0.700	-0.350	0.350
2020/01/31 12:59:19.6	111.020	0.690	-0.330	0.310
2020/01/31 12:59:19.7	111.030	0.680	-0.300	0.280
2020/01/31 12:59:19.8	111.030	0.670	-0.270	0.240
2020/01/31 12:59:19.9	111.030	0.650	-0.240	0.210
2020/01/31 12:59:20.0	111.030	0.630	-0.210	0.180
2020/01/31 12:59:20.1	111.030	0.610	-0.170	0.160
2020/01/31 12:59:20.2	111.030	0.580	-0.130	0.140
2020/01/31 12:59:20.3	111.030	0.550	-0.090	0.120
2020/01/31 12:59:20.4	111.030	0.520	-0.050	0.100
2020/01/31 12:59:20.5	111.030	0.480	-0.000	0.090
2020/01/31 12:59:20.6	111.030	0.440	0.040	0.080
2020/01/31 12:59:20.7	111.020	0.400	0.080	0.070
2020/01/31 12:59:20.8	111.010	0.360	0.130	0.070
2020/01/31 12:59:20.9	111.000	0.310	0.170	0.070
2020/01/31 12:59:21.0	110.990	0.270	0.210	0.070
2020/01/31 12:59:21.1	110.980	0.220	0.240	0.080
2020/01/31 12:59:21.2	110.970	0.170	0.280	0.090
2020/01/31 12:59:21.3	110.960	0.120	0.310	0.110
2020/01/31 12:59:21.4	110.940	0.080	0.340	0.130
2020/01/31 12:59:21.5	110.940	0.030	0.360	0.150
2020/01/31 12:59:21.6	110.930	-0.010	0.390	0.180
2020/01/31 12:59:21.7	110.910	-0.060	0.400	0.210
2020/01/31 12:59:21.8	110.890	-0.100	0.410	0.240
2020/01/31 12:59:21.9	110.870	-0.140	0.420	0.270
2020/01/31 12:59:22.0	110.850	-0.180	0.420	0.310
2020/01/31 12:59:22.1	110.840	-0.210	0.410	0.350
2020/01/31 12:59:22.2	110.820	-0.250	0.400	0.400
2020/01/31 12:59:22.3	110.800	-0.280	0.390	0.440
2020/01/31 12:59:22.4	110.790	-0.310	0.370	0.490
2020/01/31 12:59:22.5	110.780	-0.330	0.350	0.540
2020/01/31 12:59:22.6	110.770	-0.350	0.320	0.590
2020/01/31 12:59:22.7	110.750	-0.370	0.280	0.630
2020/01/31 12:59:22.8	110.740	-0.390	0.250	0.680
2020/01/31 12:59:22.9	110.730	-0.400	0.210	0.730
2020/01/31 12:59:23.0	110.730	-0.410	0.170	0.780
2020/01/31 12:59:23.1	110.720	-0.410	0.120	0.830
2020/01/31 12:59:23.2	110.720	-0.420	0.080	0.880
2020/01/31 12:59:23.3	110.710	-0.420	0.030	0.930
2020/01/31 12:59:23.4	110.710	-0.420	-0.020	0.980
2020/01/31 12:59:23.5	110.720	-0.420	-0.070	1.020
2020/01/31 12:59:23.6	110.720	-0.410	-0.120	1.070
2020/01/31 12:59:23.7	110.720	-0.410	-0.160	1.120
2020/01/31 12:59:23.8	110.730	-0.400	-0.210	1.160
2020/01/31 12:59:23.9	110.730	-0.390	-0.260	1.210
2020/01/31 12:59:24.0	110.740	-0.380	-0.310	1.260
2020/01/31 12:59:24.1	110.740	-0.370	-0.350	1.300
2020/01/31 12:59:24.2	110.750	-0.360	-0.390	1.350
2020/01/31 12:59:24.3	110.760	-0.350	-0.430	1.390
2020/01/31 12:59:24.4	110.760	-0.340	-0.470	1.440
2020/01/31 12:59:24.5	110.770	-0.330	-0.500	1.480
2020/01/31 12:59:24.6	110.770	-0.320	-0.530	1.530
2020/01/31 12:59:24.7	110.780	-0.310	-0.560	1.580
2020/01/31 12:59:24.8	110.780	-0.310	-0.580	1.620
2020/01/31 12:59:24.9	110.790	-0.300	-0.600	1.670
2020/01/31 12:59:25.0	110.790	-0.290	-0.620	1.720
2020/01/31 12:59:25.1	110.790	-0.290	-0.630	1.770
2020/01/31 12:59:25.2	110.790	-0.280	-0.640	1.810
2020/01/31 12:59:25.3	110.790	-0.280	-0.650	1.860
2020/01/31 12:59:25.4	110.790	-0.280	-0.650	1.910
2020/01/31 12:59:25.5	110.780	-0.270	-0.650	1.960
2020/01/31 12:59:25.6	110.770	-0.270	-0.640	2.010
2020/01/31 12:59:25.7	110.770	-0.280	-0.630	2.050
2020/01/31 12:59:25.8	110.760	-0.280	-0.620	2.100
2020/01/31 12:59:25.9	110.750	-0.280	-0.600	2.150
2020/01/31 12:59:26.0	110.730	-0.280	-0.570	2.190
2020/01/31 12:59:26.1	110.720	-0.290	-0.550	2.240
2020/01/31 12:59:26.2	110.700	-0.300	-0.520	2.280
2020/01/31 12:59:26.3	110.690	-0.300	-0.490	2.330
2020/01/31 12:59:26.4	110.670	-0.310	-0.450	2.370
2020/01/31 12:59:26.5	110.640	-0.320	-0.410	2.410
2020/01/31 12:59:26.6	110.620	-0.320	-0.370	2.450
2020/01/31 12:59:26.7	110.590	-0.330	-0.330	2.480
2020/01/31 12:59:26.8	110.570	-0.340	-0.290	2.510
2020/01/31 12:59:26.9	110.540	-0.350	-0.250	2.540
2020/01/31 12:59:27.0	110.520	-0.350	-0.200	2.570
2020/01/31 12:59:27.1	110.490	-0.360	-0.160	2.590
2020/01/31 12:59:27.2	110.470	-0.370	-0.120	2.610
2020/01/31 12:59:27.3	110.440	-0.370	-0.080	2.620
2020/01/31 12:59:27.4	110.420	-0.370	-0.040	2.630
2020/01/31 12:59:27.5	110.400	-0.370	-0.000	2.630
2020/01/31 12:59:27.6	110.380	-0.370	0.030	2.630
2020/01/31 12:59:27.7	110.350	-0.370	0.070	2.620
2020/01/31 12:59:27.8	110.330	-0.360	0.100	2.610
2020/01/31 12:59:27.9	110.310	-0.360	0.120	2.590
2020/01/31 12:59:28.0	110.290	-0.350	0.150	2.560
2020/01/31 12:59:28.1	110.280	-0.340	0.170	2.530
2020/01/31 12:59:28.2	110.260	-0.320	0.190	2.490
2020/01/31 12:59:28.3	110.250	-0.300	0.200	2.440
2020/01/31 12:59:28.4	110.240	-0.280	0.210	2.390
2020/01/31 12:59:28.5	110.230	-0.260	0.210	2.330
2020/01/31 12:59:28.6	110.220	-0.240	0.220	2.270
2020/01/31 12:59:28.7	110.220	-0.210	0.210	2.200
2020/01/31 12:59:28.8	110.210	-0.180	0.210	2.130
2020/01/31 12:59:28.9	110.210	-0.150	0.200	2.050
2020/01/31 12:59:29.0	110.210	-0.120	0.190	1.970
2020/01/31 12:59:29.1	110.210	-0.080	0.170	1.880
2020/01/31 12:59:29.2	110.210	-0.040	0.150	1.800
2020/01/31 12:59:29.3	110.210	-0.010	0.130	1.710
2020/01/31 12:59:29.4	110.210	0.030	0.110	1.620
2020/01/31 12:59:29.5	110.230	0.070	0.080	1.530
2020/01/31 12:59:29.6	110.240	0.110	0.060	1.440
2020/01/31 12:59:29.7	110.240	0.150	0.030	1.340
2020/01/31 12:59:29.8	110.250	0.190	-0.000	1.250
2020/01/31 12:59:29.9	110.250	0.230	-0.030	1.150
2020/01/31 12:59:30.0	110.260	0.270	-0.070	1.060
2020/01/31 12:59:30.1	110.260	0.310	-0.100	0.970
2020/01/31 12:59:30.2	110.270	0.350	-0.130	0.870
2020/01/31 12:59:30.3	110.270	0.390	-0.170	0.780
2020/01/31 12:59:30.4	110.280	0.430	-0.200	0.690
2020/01/31 12:59:30.5	110.280	0.460	-0.240	0.600
2020/01/31 12:59:30.6	110.290	0.500	-0.270	0.520
2020/01/31 12:59:30.7	110.290	0.530	-0.310	0.440
2020/01/31 12:59:30.8	110.290	0.560	-0.340	0.360
2020/01/31 12:59:30.9	110.290	0.580	-0.380	0.280
2020/01/31 12:59:31.0	110.290	0.610	-0.410	0.210
2020/01/31 12:59:31.1	110.280	0.630	-0.450	0.140
2020/01/31 12:59:31.2	110.280	0.660	-0.480	0.080
2020/01/31 12:59:31.3	110.280	0.670	-0.510	0.010
2020/01/31 12:59:31.4	110.270	0.690	-0.540	-0.040
2020/01/31 12:59:31.5	110.250	0.700	-0.570	-0.100
2020/01/31 12:59:31.6	110.240	0.720	-0.600	-0.150
2020/01/31 12:59:31.7	110.230	0.730	-0.630	-0.190
2020/01/31 12:59:31.8	110.220	0.730	-0.650	-0.240
2020/01/31 12:59:31.9	110.210	0.740	-0.680	-0.280
2020/01/31 12:59:32.0	110.200	0.740	-0.700	-0.310
2020/01/31 12:59:32.1	110.180	0.740	-0.720	-0.350
2020/01/31 12:59:32.2	110.170	0.730	-0.730	-0.380
2020/01/31 12:59:32.3	110.160	0.730	-0.750	-0.410
2020/01/31 12:59:32.4	110.140	0.720	-0.760	-0.430
2020/01/31 12:59:32.5	110.140	0.710	-0.760	-0.460
2020/01/31 12:59:32.6	110.130	0.700	-0.770	-0.480
2020/01/31 12:59:32.7	110.110	0.680	-0.770	-0.500
2020/01/31 12:59:32.8	110.100	0.660	-0.760	-0.520
2020/01/31 12:59:32.9	110.100	0.640	-0.750	-0.530
2020/01/31 12:59:33.0	110.090	0.620	-0.740	-0.540
2020/01/31 12:59:33.1	110.080	0.590	-0.720	-0.550
2020/01/31 12:59:33.2	110.080	0.560	-0.700	-0.560
2020/01/31 12:59:33.3	110.070	0.530	-0.670	-0.560
2020/01/31 12:59:33.4	110.070	0.500	-0.640	-0.560
2020/01/31 12:59:33.5	110.070	0.460	-0.600	-0.560
2020/01/31 12:59:33.6	110.070	0.430	-0.560	-0.550
2020/01/31 12:59:33.7	110.070	0.390	-0.510	-0.540
2020/01/31 12:59:33.8	110.080	0.340	-0.460	-0.530
2020/01/31 12:59:33.9	110.080	0.300	-0.410	-0.510
2020/01/31 12:59:34.0	110.090	0.260	-0.350	-0.480
2020/01/31 12:59:34.1	110.090	0.210	-0.280	-0.450
2020/01/31 12:59:34.2	110.100	0.160	-0.210	-0.420
2020/01/31 12:59:34.3	110.100	0.110	-0.140	-0.380
2020/01/31 12:59:34.4	110.110	0.060	-0.070	-0.330
2020/01/31 12:59:34.5	110.120	0.000	0.010	-0.280
2020/01/31 12:59:34.6	110.130	-0.050	0.090	-0.230
2020/01/31 12:59:34.7	110.140	-0.100	0.170	-0.170
2020/01/31 12:59:34.8	110.140	-0.160	0.250	-0.100
2020/01/31 12:59:34.9	110.150	-0.210	0.340	-0.040
2020/01/31 12:59:35.0	110.160	-0.260	0.420	0.030
2020/01/31 12:59:35.1	110.160	-0.320	0.490	0.110
2020/01/31 12:59:35.2	110.170	-0.370	0.570	0.190
2020/01/31 12:59:35.3	110.170	-0.420	0.650	0.270
2020/01/31 12:59:35.4	110.180	-0.470	0.720	0.350
2020/01/31 12:59:35.5	110.180	-0.510	0.780	0.440
2020/01/31 12:59:35.6	110.190	-0.560	0.840	0.520
2020/01/31 12:59:35.7	110.190	-0.600	0.900	0.610
2020/01/31 12:59:35.8	110.190	-0.640	0.950	0.700
2020/01/31 12:59:35.9	110.200	-0.680	0.990	0.790
2020/01/31 12:59:36.0	110.200	-0.710	1.030	0.870
2020/01/31 12:59:36.1	110.200	-0.740	1.060	0.960
2020/01/31 12:59:36.2	110.200	-0.770	1.080	1.050
2020/01/31 12:59:36.3	110.200	-0.790	1.090	1.130
2020/01/31 12:59:36.4	110.210	-0.810	1.090	1.220
2020/01/31 12:59:36.5	110.210	-0.830	1.090	1.300
2020/01/31 12:59:36.6	110.210	-0.840	1.070	1.380
2020/01/31 12:59:36.7	110.210	-0.840	1.050	1.450
2020/01/31 12:59:36.8	110.210	-0.850	1.010	1.530
2020/01/31 12:59:36.9	110.210	-0.840	0.970	1.600
2020/01/31 12:59:37.0	110.210	-0.840	0.920	1.670
2020/01/31 12:59:37.1	110.210	-0.830	0.860	1.740
2020/01/31 12:59:37.2	110.210	-0.810	0.790	1.810
2020/01/31 12:59:37.3	110.200	-0.790	0.710	1.870
2020/01/31 12:59:37.4	110.200	-0.770	0.630	1.930
2020/01/31 12:59:37.5	110.190	-0.750	0.530	2.000
2020/01/31 12:59:37.6	110.190	-0.720	0.430	2.050
2020/01/31 12:59:37.7	110.180	-0.680	0.330	2.110
2020/01/31 12:59:37.8	110.180	-0.640	0.220	2.170
2020/01/31 12:59:37.9	110.170	-0.600	0.100	2.220
2020/01/31 12:59:38.0	110.160	-0.560	-0.020	2.270
2020/01/31 12:59:38.1	110.160	-0.520	-0.140	2.320
2020/01/31 12:59:38.2	110.150	-0.470	-0.260	2.370
2020/01/31 12:59:38.3	110.140	-0.420	-0.380	2.410
2020/01/31 12:59:38.4	110.130	-0.370	-0.510	2.450
2020/01/31 12:59:38.5	110.100	-0.320	-0.620	2.490
2020/01/31 12:59:38.6	110.090	-0.270	-0.740	2.530
2020/01/31 12:59:38.7	110.080	-0.210	-0.860	2.570
2020/01/31 12:59:38.8	110.080	-0.160	-0.970	2.600
2020/01/31 12:59:38.9	110.070	-0.110	-1.070	2.630
2020/01/31 12:59:39.0	110.060	-0.060	-1.170	2.660
2020/01/31 12:59:39.1	110.060	-0.000	-1.270	2.690
2020/01/31 12:59:39.2	110.050	0.050	-1.350	2.720
2020/01/31 12:59:39.3	110.050	0.100	-1.430	2.740
2020/01/31 12:59:39.4	110.050	0.140	-1.490	2.760
2020/01/31 12:59:39.5	110.020	0.190	-1.550	2.770
2020/01/31 12:59:39.6	110.020	0.230	-1.600	2.790
2020/01/31 12:59:39.7	110.020	0.270	-1.640	2.800
2020/01/31 12:59:39.8	110.020	0.310	-1.660	2.810
2020/01/31 12:59:39.9	110.020	0.350	-1.670	2.810
2020/01/31 12:59:40.0	110.020	0.380	-1.670	2.820
2020/01/31 12:59:40.1	110.020	0.410	-1.660	2.820
2020/01/31 12:59:40.2	110.030	0.430	-1.640	2.810
2020/01/31 12:59:40.3	110.030	0.460	-1.610	2.800
2020/01/31 12:59:40.4	110.040	0.480	-1.570	2.790
2020/01/31 12:59:40.5	110.030	0.490	-1.510	2.780
2020/01/31 12:59:40.6	110.040	0.510	-1.450	2.760
2020/01/31 12:59:40.7	110.050	0.520	-1.370	2.730
2020/01/31 12:59:40.8	110.060	0.520	-1.290	2.700
2020/01/31 12:59:40.9	110.070	0.530	-1.200	2.670
2020/01/31 12:59:41.0	110.080	0.530	-1.100	2.630
2020/01/31 12:59:41.1	110.090	0.520	-1.000	2.590
2020/01/31 12:59:41.2	110.100	0.520	-0.890	2.550
2020/01/31 12:59:41.3	110.110	0.510	-0.770	2.500
2020/01/31 12:59:41.4	110.120	0.500	-0.660	2.440
2020/01/31 12:59:41.5	110.140	0.490	-0.530	2.380
2020/01/31 12:59:41.6	110.150	0.480	-0.410	2.320
2020/01/31 12:59:41.7	110.160	0.460	-0.290	2.250
2020/01/31 12:59:41.8	110.180	0.440	-0.170	2.170
2020/01/31 12:59:41.9	110.190	0.430	-0.050	2.100
2020/01/31 12:59:42.0	110.200	0.410	0.070	2.020
2020/01/31 12:59:42.1	110.210	0.390	0.180	1.930
2020/01/31 12:59:42.2	110.220	0.360	0.290	1.840
2020/01/31 12:59:42.3	110.240	0.340	0.400	1.750
2020/01/31 12:59:42.4	110.250	0.320	0.490	1.660
2020/01/31 12:59:42.5	110.270	0.300	0.590	1.560
2020/01/31 12:59:42.6	110.280	0.280	0.670	1.460
2020/01/31 12:59:42.7	110.290	0.250	0.740	1.360
2020/01/31 12:59:42.8	110.300	0.230	0.810	1.260
2020/01/31 12:59:42.9	110.310	0.210	0.870	1.160
2020/01/31 12:59:43.0	110.320	0.190	0.920	1.050
2020/01/31 12:59:43.1	110.320	0.170	0.960	0.950
2020/01/31 12:59:43.2	110.330	0.160	0.990	0.850
2020/01/31 12:59:43.3	110.330	0.140	1.020	0.750
2020/01/31 12:59:43.4	110.330	0.120	1.030	0.660
2020/01/31 12:59:43.5	110.340	0.110	1.030	0.560
2020/01/31 12:59:43.6	110.340	0.100	1.030	0.470
2020/01/31 12:59:43.7	110.340	0.080	1.020	0.380
2020/01/31 12:59:43.8	110.330	0.070	1.000	0.300
2020/01/31 12:59:43.9	110.330	0.060	0.970	0.210
2020/01/31 12:59:44.0	110.320	0.050	0.930	0.130
2020/01/31 12:59:44.1	110.310	0.050	0.890	0.060
2020/01/31 12:59:44.2	110.300	0.040	0.840	-0.010
2020/01/31 12:59:44.3	110.290	0.040	0.790	-0.080
2020/01/31 12:59:44.4	110.280	0.030	0.730	-0.150
2020/01/31 12:59:44.5	110.270	0.030	0.670	-0.210
2020/01/31 12:59:44.6	110.250	0.020	0.600	-0.270
2020/01/31 12:59:44.7	110.240	0.020	0.530	-0.330
2020/01/31 12:59:44.8	110.230	0.020	0.460	-0.390
2020/01/31 12:59:44.9	110.210	0.020	0.390	-0.440
2020/01/31 12:59:45.0	110.200	0.020	0.320	-0.490
2020/01/31 12:59:45.1	110.180	0.020	0.250	-0.530
2020/01/31 12:59:45.2	110.170	0.020	0.170	-0.570
2020/01/31 12:59:45.3	110.150	0.020	0.100	-0.610
2020/01/31 12:59:45.4	110.140	0.020	0.020	-0.650
2020/01/31 12:59:45.5	110.130	0.020	-0.050	-0.690
2020/01/31 12:59:45.6	110.110	0.020	-0.120	-0.720
2020/01/31 12:59:45.7	110.100	0.020	-0.190	-0.740
2020/01/31 12:59:45.8	110.090	0.010	-0.260	-0.770
2020/01/31 12:59:45.9	110.070	0.010	-0.330	-0.790
2020/01/31 12:59:46.0	110.060	0.010	-0.390	-0.800
2020/01/31 12:59:46.1	110.050	0.010	-0.460	-0.810
2020/01/31 12:59:46.2	110.040	0.010	-0.520	-0.820
2020/01/31 12:59:46.3	110.030	0.000	-0.580	-0.830
2020/01/31 12:59:46.4	110.030	0.000	-0.630	-0.830
2020/01/31 12:59:46.5	110.030	-0.000	-0.690	-0.830
2020/01/31 12:59:46.6	110.030	-0.010	-0.740	-0.820
2020/01/31 12:59:46.7	110.020	-0.010	-0.790	-0.810
2020/01/31 12:59:46.8	110.020	-0.010	-0.830	-0.800
2020/01/31 12:59:46.9	110.020	-0.020	-0.870	-0.780
2020/01/31 12:59:47.0	110.020	-0.020	-0.910	-0.760
2020/01/31 12:59:47.1	110.020	-0.030	-0.950	-0.730
2020/01/31 12:59:47.2	110.020	-0.030	-0.980	-0.700
2020/01/31 12:59:47.3	110.020	-0.040	-1.000	-0.660
2020/01/31 12:59:47.4	110.030	-0.040	-1.030	-0.620
2020/01/31 12:59:47.5	110.050	-0.050	-1.040	-0.580
2020/01/31 12:59:47.6	110.050	-0.050	-1.060	-0.530
2020/01/31 12:59:47.7	110.060	-0.060	-1.070	-0.480
2020/01/31 12:59:47.8	110.070	-0.060	-1.070	-0.430
2020/01/31 12:59:47.9	110.080	-0.070	-1.070	-0.370
2020/01/31 12:59:48.0	110.090	-0.080	-1.070	-0.310
2020/01/31 12:59:48.1	110.100	-0.080	-1.060	-0.240
2020/01/31 12:59:48.2	110.120	-0.090	-1.040	-0.180
2020/01/31 12:59:48.3	110.130	-0.100	-1.020	-0.110
2020/01/31 12:59:48.4	110.150	-0.100	-1.000	-0.040
2020/01/31 12:59:48.5	110.160	-0.110	-0.970	0.040
2020/01/31 12:59:48.6	110.170	-0.120	-0.930	0.120
2020/01/31 12:59:48.7	110.190	-0.130	-0.890	0.200
2020/01/31 12:59:48.8	110.210	-0.140	-0.850	0.280
2020/01/31 12:59:48.9	110.220	-0.150	-0.800	0.360
2020/01/31 12:59:49.0	110.240	-0.160	-0.750	0.440
2020/01/31 12:59:49.1	110.260	-0.170	-0.690	0.530
2020/01/31 12:59:49.2	110.280	-0.190	-0.630	0.610
2020/01/31 12:59:49.3	110.290	-0.200	-0.570	0.700
2020/01/31 12:59:49.4	110.310	-0.210	-0.500	0.790
2020/01/31 12:59:49.5	110.320	-0.220	-0.430	0.880
2020/01/31 12:59:49.6	110.330	-0.240	-0.360	0.960
2020/01/31 12:59:49.7	110.350	-0.250	-0.290	1.050
2020/01/31 12:59:49.8	110.360	-0.260	-0.210	1.140
2020/01/31 12:59:49.9	110.370	-0.280	-0.140	1.220
2020/01/31 12:59:50.0	110.380	-0.290	-0.070	1.310
2020/01/31 12:59:50.1	110.390	-0.300	0.000	1.390
2020/01/31 12:59:50.2	110.400	-0.310	0.070	1.480
2020/01/31 12:59:50.3	110.410	-0.330	0.140	1.560
2020/01/31 12:59:50.4	110.420	-0.340	0.210	1.640
2020/01/31 12:59:50.5	110.430	-0.340	0.270	1.720
2020/01/31 12:59:50.6	110.440	-0.350	0.330	1.800
2020/01/31 12:59:50.7	110.450	-0.360	0.390	1.870
2020/01/31 12:59:50.8	110.450	-0.360	0.440	1.940
2020/01/31 12:59:50.9	110.460	-0.370	0.490	2.010
2020/01/31 12:59:51.0	110.470	-0.370	0.530	2.070
2020/01/31 12:59:51.1	110.470	-0.370	0.570	2.130
2020/01/31 12:59:51.2	110.480	-0.360	0.610	2.180
2020/01/31 12:59:51.3	110.490	-0.360	0.640	2.240
2020/01/31 12:59:51.4	110.490	-0.350	0.660	2.280
2020/01/31 12:59:51.5	110.500	-0.340	0.680	2.330
2020/01/31 12:59:51.6	110.510	-0.330	0.700	2.370
2020/01/31 12:59:51.7	110.510	-0.310	0.700	2.410
2020/01/31 12:59:51.8	110.520	-0.300	0.700	2.440
2020/01/31 12:59:51.9	110.530	-0.280	0.690	2.470
2020/01/31 12:59:52.0	110.530	-0.250	0.680	2.490
2020/01/31 12:59:52.1	110.540	-0.230	0.660	2.520
2020/01/31 12:59:52.2	110.540	-0.200	0.630	2.540
2020/01/31 12:59:52.3	110.550	-0.170	0.600	2.550
2020/01/31 12:59:52.4	110.550	-0.140	0.570	2.570
2020/01/31 12:59:52.5	110.550	-0.110	0.520	2.580
2020/01/31 12:59:52.6	110.550	-0.070	0.480	2.590
2020/01/31 12:59:52.7	110.550	-0.040	0.430	2.600
2020/01/31 12:59:52.8	110.550	-0.000	0.370	2.600
2020/01/31 12:59:52.9	110.550	0.030	0.320	2.600
2020/01/31 12:59:53.0	110.550	0.070	0.260	2.600
2020/01/31 12:59:53.1	110.540	0.110	0.200	2.590
2020/01/31 12:59:53.2	110.540	0.140	0.140	2.580
2020/01/31 12:59:53.3	110.540	0.180	0.080	2.570
2020/01/31 12:59:53.4	110.530	0.220	0.020	2.560
2020/01/31 12:59:53.5	110.510	0.250	-0.040	2.540
2020/01/31 12:59:53.6	110.510	0.280	-0.100	2.520
2020/01/31 12:59:53.7	110.500	0.310	-0.160	2.490
2020/01/31 12:59:53.8	110.490	0.340	-0.210	2.470
2020/01/31 12:59:53.9	110.490	0.370	-0.260	2.440
2020/01/31 12:59:54.0	110.480	0.390	-0.310	2.400
2020/01/31 12:59:54.1	110.480	0.410	-0.350	2.370
2020/01/31 12:59:54.2	110.470	0.430	-0.390	2.330
2020/01/31 12:59:54.3	110.470	0.450	-0.420	2.280
2020/01/31 12:59:54.4	110.460	0.460	-0.450	2.230
2020/01/31 12:59:54.5	110.460	0.470	-0.470	2.180
2020/01/31 12:59:54.6	110.460	0.480	-0.490	2.130
2020/01/31 12:59:54.7	110.460	0.480	-0.500	2.070
2020/01/31 12:59:54.8	110.460	0.480	-0.510	2.010
2020/01/31 12:59:54.9	110.460	0.470	-0.520	1.950
2020/01/31 12:59:55.0	110.460	0.470	-0.520	1.880
2020/01/31 12:59:55.1	110.470	0.460	-0.510	1.810
2020/01/31 12:59:55.2	110.470	0.450	-0.500	1.740
2020/01/31 12:59:55.3	110.480	0.430	-0.490	1.670
2020/01/31 12:59:55.4	110.490	0.420	-0.480	1.590
2020/01/31 12:59:55.5	110.500	0.400	-0.460	1.510
2020/01/31 12:59:55.6	110.510	0.370	-0.440	1.430
2020/01/31 12:59:55.7	110.530	0.350	-0.420	1.360
2020/01/31 12:59:55.8	110.540	0.330	-0.400	1.280
2020/01/31 12:59:55.9	110.560	0.300	-0.370	1.200
2020/01/31 12:59:56.0	110.570	0.270	-0.350	1.120
2020/01/31 12:59:56.1	110.590	0.240	-0.320	1.040
2020/01/31 12:59:56.2	110.610	0.210	-0.300	0.970
2020/01/31 12:59:56.3	110.630	0.180	-0.270	0.890
2020/01/31 12:59:56.4	110.650	0.150	-0.250	0.820
2020/01/31 12:59:56.5	110.670	0.130	-0.230	0.750
2020/01/31 12:59:56.6	110.690	0.100	-0.210	0.680
2020/01/31 12:59:56.7	110.710	0.070	-0.190	0.610
2020/01/31 12:59:56.8	110.740	0.040	-0.180	0.550
2020/01/31 12:59:56.9	110.760	0.020	-0.160	0.480
2020/01/31 12:59:57.0	110.780	-0.010	-0.160	0.430
2020/01/31 12:59:57.1	110.810	-0.030	-0.150	0.370
2020/01/31 12:59:57.2	110.830	-0.050	-0.150	0.320
2020/01/31 12:59:57.3	110.850	-0.070	-0.150	0.270
2020/01/31 12:59:57.4	110.880	-0.090	-0.150	0.220
2020/01/31 12:59:57.5	110.900	-0.100	-0.160	0.190
2020/01/31 12:59:57.6	110.920	-0.110	-0.170	0.150
2020/01/31 12:59:57.7	110.940	-0.120	-0.190	0.120
2020/01/31 12:59:57.8	110.960	-0.130	-0.210	0.090
2020/01/31 12:59:57.9	110.980	-0.130	-0.230	0.070
2020/01/31 12:59:58.0	110.990	-0.140	-0.260	0.050
2020/01/31 12:59:58.1	111.010	-0.140	-0.280	0.040
2020/01/31 12:59:58.2	111.020	-0.130	-0.310	0.030
2020/01/31 12:59:58.3	111.030	-0.130	-0.350	0.030
2020/01/31 12:59:58.4	111.040	-0.120	-0.380	0.030
2020/01/31 12:59:58.5	111.040	-0.110	-0.420	0.040
2020/01/31 12:59:58.6	111.040	-0.100	-0.450	0.050
2020/01/31 12:59:58.7	111.040	-0.090	-0.490	0.070
2020/01/31 12:59:58.8	111.040	-0.070	-0.520	0.090
2020/01/31 12:59:58.9	111.030	-0.060	-0.560	0.110
2020/01/31 12:59:59.0	111.030	-0.040	-0.590	0.140
2020/01/31 12:59:59.1	111.020	-0.030	-0.620	0.170
2020/01/31 12:59:59.2	111.000	-0.010	-0.640	0.210
2020/01/31 12:59:59.3	110.990	0.010	-0.670	0.250
2020/01/31 12:59:59.4	110.970	0.030	-0.690	0.290
2020/01/31 12:59:59.5	110.950	0.040	-0.700	0.330
2020/01/31 12:59:59.6	110.930	0.060	-0.710	0.370
2020/01/31 12:59:59.7	110.910	0.080	-0.710	0.420
2020/01/31 12:59:59.8	110.890	0.090	-0.710	0.460
2020/01/31 12:59:59.9	110.870	0.100	-0.700	0.510
2020/01/31 13:00:00.0	110.850	0.120	-0.690	0.560
2020/01/31 13:00:00.1	110.830	0.130	-0.670	0.600
2020/01/31 13:00:00.2	110.810	0.140	-0.650	0.650
2020/01/31 13:00:00.3	110.790	0.140	-0.620	0.690
2020/01/31 13:00:00.4	110.770	0.150	-0.580	0.740
2020/01/31 13:00:00.5	110.750	0.150	-0.540	0.780
2020/01/31 13:00:00.6	110.740	0.160	-0.490	0.820
2020/01/31 13:00:00.7	110.720	0.160	-0.440	0.860
2020/01/31 13:00:00.8	110.710	0.150	-0.390	0.900
2020/01/31 13:00:00.9	110.700	0.150	-0.330	0.940
2020/01/31 13:00:01.0	110.690	0.140	-0.270	0.970
2020/01/31 13:00:01.1	110.690	0.140	-0.210	1.010
2020/01/31 13:00:01.2	110.680	0.130	-0.150	1.040
2020/01/31 13:00:01.3	110.680	0.120	-0.080	1.070
2020/01/31 13:00:01.4	110.680	0.110	-0.020	1.090
2020/01/31 13:00:01.5	110.690	0.090	0.040	1.120
2020/01/31 13:00:01.6	110.690	0.080	0.110	1.140
2020/01/31 13:00:01.7	110.700	0.070	0.170	1.160
2020/01/31 13:00:01.8	110.700	0.050	0.230	1.180
2020/01/31 13:00:01.9	110.710	0.040	0.280	1.200
2020/01/31 13:00:02.0	110.720	0.020	0.340	1.210
2020/01/31 13:00:02.1	110.740	0.000	0.390	1.220
2020/01/31 13:00:02.2	110.750	-0.010	0.440	1.230
2020/01/31 13:00:02.3	110.770	-0.030	0.480	1.240
2020/01/31 13:00:02.4	110.790	-0.040	0.520	1.250
2020/01/31 13:00:02.5	110.820	-0.060	0.560	1.250
2020/01/31 13:00:02.6	110.840	-0.070	0.590	1.260
2020/01/31 13:00:02.7	110.860	-0.090	0.610	1.260
2020/01/31 13:00:02.8	110.890	-0.100	0.630	1.260
2020/01/31 13:00:02.9	110.910	-0.110	0.640	1.260
2020/01/31 13:00:03.0	110.940	-0.120	0.650	1.260
2020/01/31 13:00:03.1	110.960	-0.130	0.660	1.260
2020/01/31 13:00:03.2	110.990	-0.140	0.650	1.250
2020/01/31 13:00:03.3	111.020	-0.150	0.640	1.250
2020/01/31 13:00:03.4	111.040	-0.160	0.630	1.250
2020/01/31 13:00:03.5	111.060	-0.160	0.610	1.240
2020/01/31 13:00:03.6	111.090	-0.170	0.590	1.240
2020/01/31 13:00:03.7	111.120	-0.170	0.560	1.230
2020/01/31 13:00:03.8	111.150	-0.170	0.530	1.230
2020/01/31 13:00:03.9	111.170	-0.170	0.500	1.220
2020/01/31 13:00:04.0	111.200	-0.170	0.460	1.210
2020/01/31 13:00:04.1	111.220	-0.160	0.410	1.210
2020/01/31 13:00:04.2	111.250	-0.160	0.370	1.200
2020/01/31 13:00:04.3	111.270	-0.150	0.320	1.190
2020/01/31 13:00:04.4	111.300	-0.150	0.270	1.190
2020/01/31 13:00:04.5	111.320	-0.140	0.220	1.180
2020/01/31 13:00:04.6	111.340	-0.130	0.160	1.170
2020/01/31 13:00:04.7	111.360	-0.120	0.110	1.160
2020/01/31 13:00:04.8	111.390	-0.110	0.050	1.150
2020/01/31 13:00:04.9	111.410	-0.100	-0.010	1.140
2020/01/31 13:00:05.0	111.430	-0.090	-0.060	1.130
2020/01/31 13:00:05.1	111.440	-0.080	-0.120	1.130
2020/01/31 13:00:05.2	111.460	-0.070	-0.180	1.120
2020/01/31 13:00:05.3	111.480	-0.060	-0.230	1.110
2020/01/31 13:00:05.4	111.500	-0.050	-0.290	1.110
2020/01/31 13:00:05.5	111.510	-0.040	-0.350	1.100
2020/01/31 13:00:05.6	111.520	-0.030	-0.400	1.100
2020/01/31 13:00:05.7	111.540	-0.020	-0.450	1.100
2020/01/31 13:00:05.8	111.550	-0.000	-0.500	1.100
2020/01/31 13:00:05.9	111.560	0.010	-0.550	1.100
2020/01/31 13:00:06.0	111.570	0.020	-0.600	1.110
2020/01/31 13:00:06.1	111.580	0.030	-0.640	1.120
2020/01/31 13:00:06.2	111.590	0.040	-0.690	1.130
2020/01/31 13:00:06.3	111.600	0.050	-0.730	1.140
2020/01/31 13:00:06.4	111.600	0.060	-0.760	1.160
2020/01/31 13:00:06.5	111.600	0.070	-0.790	1.170
2020/01/31 13:00:06.6	111.600	0.070	-0.820	1.190
2020/01/31 13:00:06.7	111.610	0.080	-0.850	1.220
2020/01/31 13:00:06.8	111.610	0.090	-0.870	1.240
2020/01/31 13:00:06.9	111.610	0.100	-0.890	1.270
2020/01/31 13:00:07.0	111.610	0.100	-0.910	1.300
2020/01/31 13:00:07.1	111.610	0.110	-0.920	1.330
2020/01/31 13:00:07.2	111.610	0.110	-0.930	1.360
2020/01/31 13:00:07.3	111.610	0.120	-0.930	1.390
2020/01/31 13:00:07.4	111.610	0.120	-0.940	1.430
2020/01/31 13:00:07.5	111.600	0.120	-0.930	1.460
2020/01/31 13:00:07.6	111.600	0.120	-0.930	1.500
2020/01/31 13:00:07.7	111.600	0.120	-0.910	1.540
2020/01/31 13:00:07.8	111.600	0.120	-0.900	1.570
2020/01/31 13:00:07.9	111.600	0.120	-0.880	1.610
2020/01/31 13:00:08.0	111.600	0.120	-0.850	1.650
2020/01/31 13:00:08.1	111.590	0.120	-0.820	1.680
2020/01/31 13:00:08.2	111.590	0.110	-0.790	1.720
2020/01/31 13:00:08.3	111.590	0.110	-0.750	1.760
2020/01/31 13:00:08.4	111.590	0.100	-0.710	1.790
2020/01/31 13:00:08.5	111.590	0.090	-0.670	1.830
2020/01/31 13:00:08.6	111.580	0.080	-0.620	1.860
2020/01/31 13:00:08.7	111.580	0.070	-0.570	1.890
2020/01/31 13:00:08.8	111.580	0.070	-0.520	1.920
2020/01/31 13:00:08.9	111.580	0.050	-0.460	1.940
2020/01/31 13:00:09.0	111.580	0.040	-0.400	1.960
2020/01/31 13:00:09.1	111.570	0.030	-0.340	1.980
2020/01/31 13:00:09.2	111.570	0.020	-0.280	2.000
2020/01/31 13:00:09.3	111.570	0.010	-0.220	2.020
2020/01/31 13:00:09.4	111.570	-0.010	-0.160	2.030
2020/01/31 13:00:09.5	111.570	-0.020	-0.100	2.030
2020/01/31 13:00:09.6	111.570	-0.040	-0.040	2.030
2020/01/31 13:00:09.7	111.570	-0.050	0.020	2.030
2020/01/31 13:00:09.8	111.570	-0.060	0.080	2.020
2020/01/31 13:00:09.9	111.570	-0.080	0.140	2.010
2020/01/31 13:00:10.0	111.570	-0.090	0.190	1.990
2020/01/31 13:00:10.1	111.580	-0.110	0.240	1.970
2020/01/31 13:00:10.2	111.580	-0.120	0.300	1.940
2020/01/31 13:00:10.3	111.590	-0.130	0.340	1.910
2020/01/31 13:00:10.4	111.600	-0.150	0.390	1.870
2020/01/31 13:00:10.5	111.610	-0.160	0.430	1.830
2020/01/31 13:00:10.6	111.620	-0.170	0.470	1.790
2020/01/31 13:00:10.7	111.630	-0.180	0.500	1.740
2020/01/31 13:00:10.8	111.650	-0.200	0.530	1.690
2020/01/31 13:00:10.9	111.660	-0.210	0.550	1.630
2020/01/31 13:00:11.0	111.670	-0.210	0.570	1.570
2020/01/31 13:00:11.1	111.690	-0.220	0.580	1.510
2020/01/31 13:00:11.2	111.700	-0.230	0.590	1.450
2020/01/31 13:00:11.3	111.720	-0.230	0.600	1.380
2020/01/31 13:00:11.4	111.740	-0.240	0.590	1.320
2020/01/31 13:00:11.5	111.750	-0.240	0.590	1.250
2020/01/31 13:00:11.6	111.770	-0.240	0.580	1.190
2020/01/31 13:00:11.7	111.780	-0.240	0.560	1.120
2020/01/31 13:00:11.8	111.790	-0.240	0.540	1.060
2020/01/31 13:00:11.9	111.810	-0.240	0.510	1.000
2020/01/31 13:00:12.0	111.820	-0.230	0.480	0.940
2020/01/31 13:00:12.1	111.830	-0.230	0.450	0.880
2020/01/31 13:00:12.2	111.840	-0.220	0.410	0.820
2020/01/31 13:00:12.3	111.840	-0.210	0.370	0.760
2020/01/31 13:00:12.4	111.850	-0.200	0.320	0.710
2020/01/31 13:00:12.5	111.850	-0.180	0.270	0.660
2020/01/31 13:00:12.6	111.860	-0.170	0.220	0.600
2020/01/31 13:00:12.7	111.860	-0.150	0.170	0.560
2020/01/31 13:00:12.8	111.870	-0.140	0.110	0.510
2020/01/31 13:00:12.9	111.870	-0.120	0.060	0.470
2020/01/31 13:00:13.0	111.870	-0.100	0.000	0.420
2020/01/31 13:00:13.1	111.870	-0.080	-0.060	0.380
2020/01/31 13:00:13.2	111.870	-0.060	-0.110	0.350
2020/01/31 13:00:13.3	111.870	-0.040	-0.170	0.310
2020/01/31 13:00:13.4	111.870	-0.010	-0.220	0.280
2020/01/31 13:00:13.5	111.860	0.010	-0.280	0.250
2020/01/31 13:00:13.6	111.860	0.030	-0.330	0.220
2020/01/31 13:00:13.7	111.860	0.060	-0.380	0.200
2020/01/31 13:00:13.8	111.850	0.080	-0.420	0.170
2020/01/31 13:00:13.9	111.850	0.100	-0.470	0.150
2020/01/31 13:00:14.0	111.850	0.130	-0.510	0.140
2020/01/31 13:00:14.1	111.840	0.150	-0.550	0.120
2020/01/31 13:00:14.2	111.840	0.170	-0.580	0.110
2020/01/31 13:00:14.3	111.840	0.190	-0.620	0.100
2020/01/31 13:00:14.4	111.830	0.220	-0.650	0.100
2020/01/31 13:00:14.5	111.840	0.240	-0.670	0.100
2020/01/31 13:00:14.6	111.840	0.260	-0.700	0.090
2020/01/31 13:00:14.7	111.840	0.280	-0.710	0.100
2020/01/31 13:00:14.8	111.830	0.300	-0.730	0.100
2020/01/31 13:00:14.9	111.830	0.310	-0.740	0.100
2020/01/31 13:00:15.0	111.830	0.330	-0.750	0.110
2020/01/31 13:00:15.1	111.830	0.340	-0.750	0.120
2020/01/31 13:00:15.2	111.830	0.360	-0.750	0.130
2020/01/31 13:00:15.3	111.830	0.370	-0.740	0.150
2020/01/31 13:00:15.4	111.840	0.380	-0.740	0.160
2020/01/31 13:00:15.5	111.840	0.390	-0.730	0.180
2020/01/31 13:00:15.6	111.850	0.400	-0.710	0.200
2020/01/31 13:00:15.7	111.850	0.400	-0.690	0.220
2020/01/31 13:00:15.8	111.860	0.410	-0.670	0.240
2020/01/31 13:00:15.9	111.870	0.410	-0.640	0.260
2020/01/31 13:00:16.0	111.880	0.410	-0.610	0.290
2020/01/31 13:00:16.1	111.890	0.410	-0.580	0.310
2020/01/31 13:00:16.2	111.900	0.400	-0.550	0.330
2020/01/31 13:00:16.3	111.920	0.400	-0.520	0.360
2020/01/31 13:00:16.4	111.940	0.390	-0.480	0.380
2020/01/31 13:00:16.5	111.950	0.380	-0.440	0.410
2020/01/31 13:00:16.6	111.970	0.370	-0.400	0.430
2020/01/31 13:00:16.7	111.990	0.360	-0.360	0.460
2020/01/31 13:00:16.8	112.020	0.340	-0.320	0.490
2020/01/31 13:00:16.9	112.040	0.330	-0.280	0.520
2020/01/31 13:00:17.0	112.060	0.310	-0.240	0.550
2020/01/31 13:00:17.1	112.090	0.290	-0.200	0.580
2020/01/31 13:00:17.2	112.110	0.270	-0.160	0.610
2020/01/31 13:00:17.3	112.140	0.250	-0.120	0.640
2020/01/31 13:00:17.4	112.170	0.220	-0.090	0.670
2020/01/31 13:00:17.5	112.180	0.200	-0.050	0.710
2020/01/31 13:00:17.6	112.200	0.170	-0.020	0.750
2020/01/31 13:00:17.7	112.220	0.150	0.010	0.790
2020/01/31 13:00:17.8	112.250	0.120	0.040	0.830
2020/01/31 13:00:17.9	112.270	0.100	0.070	0.880
2020/01/31 13:00:18.0	112.290	0.070	0.090	0.920
2020/01/31 13:00:18.1	112.300	0.040	0.110	0.970
2020/01/31 13:00:18.2	112.320	0.020	0.130	1.030
2020/01/31 13:00:18.3	112.330	-0.010	0.150	1.080
2020/01/31 13:00:18.4	112.340	-0.030	0.170	1.140
2020/01/31 13:00:18.5	112.350	-0.060	0.180	1.200
2020/01/31 13:00:18.6	112.350	-0.080	0.190	1.260
2020/01/31 13:00:18.7	112.350	-0.110	0.200	1.330
2020/01/31 13:00:18.8	112.350	-0.130	0.200	1.400
2020/01/31 13:00:18.9	112.340	-0.150	0.210	1.460
2020/01/31 13:00:19.0	112.340	-0.170	0.210	1.530
2020/01/31 13:00:19.1	112.330	-0.190	0.220	1.600
2020/01/31 13:00:19.2	112.310	-0.210	0.220	1.670
2020/01/31 13:00:19.3	112.300	-0.220	0.220	1.740
2020/01/31 13:00:19.4	112.290	-0.240	0.220	1.810
2020/01/31 13:00:19.5	112.260	-0.250	0.210	1.880
2020/01/31 13:00:19.6	112.240	-0.260	0.210	1.950
2020/01/31 13:00:19.7	112.220	-0.270	0.200	2.010
2020/01/31 13:00:19.8	112.200	-0.280	0.200	2.070
2020/01/31 13:00:19.9	112.180	-0.290	0.190	2.130
2020/01/31 13:00:20.0	112.170	-0.290	0.180	2.190
2020/01/31 13:00:20.1	112.150	-0.300	0.170	2.240
2020/01/31 13:00:20.2	112.130	-0.300	0.160	2.300
2020/01/31 13:00:20.3	112.110	-0.310	0.150	2.340
2020/01/31 13:00:20.4	112.090	-0.310	0.130	2.390
2020/01/31 13:00:20.5	112.060	-0.310	0.120	2.430
2020/01/31 13:00:20.6	112.050	-0.310	0.110	2.460
2020/01/31 13:00:20.7	112.030	-0.310	0.090	2.500
2020/01/31 13:00:20.8	112.020	-0.310	0.080	2.530
2020/01/31 13:00:20.9	112.000	-0.300	0.060	2.560
2020/01/31 13:00:21.0	111.990	-0.300	0.050	2.580
2020/01/31 13:00:21.1	111.980	-0.300	0.030	2.610
2020/01/31 13:00:21.2	111.970	-0.290	0.010	2.630
2020/01/31 13:00:21.3	111.960	-0.290	-0.000	2.640
2020/01/31 13:00:21.4	111.960	-0.280	-0.020	2.660
2020/01/31 13:00:21.5	111.950	-0.280	-0.040	2.670
2020/01/31 13:00:21.6	111.950	-0.270	-0.050	2.680
2020/01/31 13:00:21.7	111.940	-0.260	-0.070	2.690
2020/01/31 13:00:21.8	111.940	-0.250	-0.090	2.700
2020/01/31 13:00:21.9	111.940	-0.250	-0.110	2.700
2020/01/31 13:00:22.0	111.940	-0.240	-0.130	2.710
2020/01/31 13:00:22.1	111.940	-0.230	-0.150	2.710
2020/01/31 13:00:22.2	111.940	-0.220	-0.180	2.710
2020/01/31 13:00:22.3	111.940	-0.210	-0.200	2.700
2020/01/31 13:00:22.4	111.950	-0.190	-0.220	2.700
2020/01/31 13:00:22.5	111.950	-0.180	-0.250	2.690
2020/01/31 13:00:22.6	111.960	-0.170	-0.270	2.680
2020/01/31 13:00:22.7	111.970	-0.150	-0.300	2.660
2020/01/31 13:00:22.8	111.970	-0.140	-0.320	2.650
2020/01/31 13:00:22.9	111.980	-0.130	-0.350	2.630
2020/01/31 13:00:23.0	111.990	-0.110	-0.380	2.610
2020/01/31 13:00:23.1	112.000	-0.090	-0.400	2.580
2020/01/31 13:00:23.2	112.010	-0.080	-0.430	2.550
2020/01/31 13:00:23.3	112.020	-0.060	-0.460	2.520
2020/01/31 13:00:23.4	112.030	-0.040	-0.490	2.490
2020/01/31 13:00:23.5	112.030	-0.020	-0.520	2.460
2020/01/31 13:00:23.6	112.040	-0.010	-0.540	2.420
2020/01/31 13:00:23.7	112.040	0.010	-0.570	2.380
2020/01/31 13:00:23.8	112.050	0.030	-0.600	2.330
2020/01/31 13:00:23.9	112.060	0.050	-0.620	2.290
2020/01/31 13:00:24.0	112.060	0.070	-0.640	2.240
2020/01/31 13:00:24.1	112.060	0.080	-0.660	2.190
2020/01/31 13:00:24.2	112.070	0.100	-0.680	2.130
2020/01/31 13:00:24.3	112.070	0.120	-0.700	2.080
2020/01/31 13:00:24.4	112.070	0.130	-0.710	2.020
2020/01/31 13:00:24.5	112.070	0.150	-0.720	1.960
2020/01/31 13:00:24.6	112.070	0.160	-0.720	1.890
2020/01/31 13:00:24.7	112.070	0.180	-0.730	1.830
2020/01/31 13:00:24.8	112.060	0.190	-0.720	1.760
2020/01/31 13:00:24.9	112.060	0.200	-0.720	1.690
2020/01/31 13:00:25.0	112.060	0.210	-0.710	1.620
2020/01/31 13:00:25.1	112.060	0.220	-0.690	1.550
2020/01/31 13:00:25.2	112.060	0.220	-0.670	1.480
2020/01/31 13:00:25.3	112.050	0.230	-0.650	1.410
2020/01/31 13:00:25.4	112.050	0.230	-0.630	1.330
2020/01/31 13:00:25.5	112.050	0.230	-0.590	1.270
2020/01/31 13:00:25.6	112.050	0.230	-0.560	1.200
2020/01/31 13:00:25.7	112.040	0.220	-0.520	1.130
2020/01/31 13:00:25.8	112.040	0.220	-0.480	1.060
2020/01/31 13:00:25.9	112.040	0.210	-0.430	1.000
2020/01/31 13:00:26.0	112.030	0.200	-0.380	0.930
2020/01/31 13:00:26.1	112.030	0.190	-0.330	0.870
2020/01/31 13:00:26.2	112.020	0.180	-0.280	0.820
2020/01/31 13:00:26.3	112.020	0.170	-0.230	0.760
2020/01/31 13:00:26.4	112.010	0.150	-0.170	0.710
2020/01/31 13:00:26.5	112.000	0.140	-0.120	0.670
2020/01/31 13:00:26.6	111.990	0.120	-0.060	0.620
2020/01/31 13:00:26.7	111.990	0.100	-0.010	0.580
2020/01/31 13:00:26.8	111.980	0.080	0.050	0.550
2020/01/31 13:00:26.9	111.970	0.060	0.100	0.510
2020/01/31 13:00:27.0	111.960	0.040	0.150	0.480
2020/01/31 13:00:27.1	111.950	0.020	0.200	0.460
2020/01/31 13:00:27.2	111.940	0.000	0.240	0.440
2020/01/31 13:00:27.3	111.940	-0.020	0.290	0.420
2020/01/31 13:00:27.4	111.930	-0.040	0.320	0.400
2020/01/31 13:00:27.5	111.930	-0.060	0.360	0.390
2020/01/31 13:00:27.6	111.920	-0.080	0.390	0.380
2020/01/31 13:00:27.7	111.910	-0.090	0.410	0.370
2020/01/31 13:00:27.8	111.900	-0.110	0.440	0.360
2020/01/31 13:00:27.9	111.890	-0.130	0.450	0.360
2020/01/31 13:00:28.0	111.880	-0.140	0.470	0.360
2020/01/31 13:00:28.1	111.880	-0.150	0.470	0.360
2020/01/31 13:00:28.2	111.870	-0.170	0.480	0.360
2020/01/31 13:00:28.3	111.860	-0.180	0.480	0.360
2020/01/31 13:00:28.4	111.860	-0.190	0.470	0.360
2020/01/31 13:00:28.5	111.860	-0.190	0.460	0.360
2020/01/31 13:00:28.6	111.860	-0.200	0.440	0.370
2020/01/31 13:00:28.7	111.860	-0.200	0.430	0.370
2020/01/31 13:00:28.8	111.860	-0.210	0.410	0.370
2020/01/31 13:00:28.9	111.860	-0.210	0.380	0.370
2020/01/31 13:00:29.0	111.860	-0.210	0.360	0.370
2020/01/31 13:00:29.1	111.860	-0.210	0.330	0.370
2020/01/31 13:00:29.2	111.860	-0.200	0.300	0.370
2020/01/31 13:00:29.3	111.870	-0.200	0.270	0.370
2020/01/31 13:00:29.4	111.880	-0.200	0.240	0.370
2020/01/31 13:00:29.5	111.880	-0.190	0.210	0.370
2020/01/31 13:00:29.6	111.890	-0.180	0.170	0.370
2020/01/31 13:00:29.7	111.900	-0.180	0.140	0.360
2020/01/31 13:00:29.8	111.910	-0.170	0.110	0.360
2020/01/31 13:00:29.9	111.920	-0.160	0.070	0.360
2020/01/31 13:00:30.0	111.930	-0.150	0.040	0.350
2020/01/31 13:00:30.1	111.940	-0.140	0.010	0.350
2020/01/31 13:00:30.2	111.960	-0.130	-0.020	0.350
2020/01/31 13:00:30.3	111.970	-0.120	-0.050	0.340
2020/01/31 13:00:30.4	111.980	-0.110	-0.080	0.340
2020/01/31 13:00:30.5	111.980	-0.100	-0.110	0.350
2020/01/31 13:00:30.6	111.990	-0.090	-0.140	0.350
2020/01/31 13:00:30.7	112.000	-0.080	-0.170	0.350
2020/01/31 13:00:30.8	112.010	-0.070	-0.190	0.360
2020/01/31 13:00:30.9	112.010	-0.060	-0.220	0.370
2020/01/31 13:00:31.0	112.020	-0.050	-0.250	0.380
2020/01/31 13:00:31.1	112.020	-0.030	-0.270	0.400
2020/01/31 13:00:31.2	112.020	-0.020	-0.300	0.420
2020/01/31 13:00:31.3	112.020	-0.010	-0.320	0.440
2020/01/31 13:00:31.4	112.020	0.000	-0.340	0.470
2020/01/31 13:00:31.5	112.010	0.020	-0.360	0.500
2020/01/31 13:00:31.6	112.010	0.030	-0.390	0.530
2020/01/31 13:00:31.7	112.000	0.040	-0.410	0.570
2020/01/31 13:00:31.8	111.990	0.050	-0.430	0.610
2020/01/31 13:00:31.9	111.980	0.070	-0.440	0.650
2020/01/31 13:00:32.0	111.970	0.080	-0.460	0.690
2020/01/31 13:00:32.1	111.960	0.090	-0.480	0.740
2020/01/31 13:00:32.2	111.950	0.110	-0.490	0.790
2020/01/31 13:00:32.3	111.940	0.120	-0.500	0.840
2020/01/31 13:00:32.4	111.920	0.130	-0.520	0.900
2020/01/31 13:00:32.5	111.910	0.140	-0.520	0.960
2020/01/31 13:00:32.6	111.900	0.160	-0.530	1.010
2020/01/31 13:00:32.7	111.880	0.170	-0.540	1.070
2020/01/31 13:00:32.8	111.870	0.180	-0.550	1.140
2020/01/31 13:00:32.9	111.850	0.190	-0.550	1.200
2020/01/31 13:00:33.0	111.840	0.200	-0.550	1.260
2020/01/31 13:00:33.1	111.820	0.210	-0.550	1.330
2020/01/31 13:00:33.2	111.800	0.220	-0.550	1.390
2020/01/31 13:00:33.3	111.780	0.230	-0.550	1.460
2020/01/31 13:00:33.4	111.770	0.240	-0.550	1.530
2020/01/31 13:00:33.5	111.750	0.250	-0.550	1.600
2020/01/31 13:00:33.6	111.730	0.260	-0.540	1.670
2020/01/31 13:00:33.7	111.710	0.260	-0.540	1.730
2020/01/31 13:00:33.8	111.690	0.270	-0.540	1.800
2020/01/31 13:00:33.9	111.670	0.280	-0.530	1.870
2020/01/31 13:00:34.0	111.660	0.280	-0.520	1.930
2020/01/31 13:00:34.1	111.640	0.290	-0.520	1.990
2020/01/31 13:00:34.2	111.630	0.290	-0.510	2.050
2020/01/31 13:00:34.3	111.610	0.300	-0.500	2.110
2020/01/31 13:00:34.4	111.600	0.300	-0.490	2.160
2020/01/31 13:00:34.5	111.600	0.300	-0.490	2.220
2020/01/31 13:00:34.6	111.590	0.300	-0.480	2.270
2020/01/31 13:00:34.7	111.580	0.300	-0.470	2.320
2020/01/31 13:00:34.8	111.580	0.300	-0.460	2.360
2020/01/31 13:00:34.9	111.570	0.300	-0.440	2.400
2020/01/31 13:00:35.0	111.570	0.290	-0.430	2.440
2020/01/31 13:00:35.1	111.580	0.290	-0.410	2.470
2020/01/31 13:00:35.2	111.580	0.280	-0.400	2.500
2020/01/31 13:00:35.3	111.590	0.270	-0.380	2.520
2020/01/31 13:00:35.4	111.600	0.260	-0.360	2.540
2020/01/31 13:00:35.5	111.610	0.250	-0.330	2.560
2020/01/31 13:00:35.6	111.620	0.240	-0.300	2.570
2020/01/31 13:00:35.7	111.640	0.220	-0.280	2.580
2020/01/31 13:00:35.8	111.660	0.200	-0.250	2.580
2020/01/31 13:00:35.9	111.680	0.180	-0.210	2.580
2020/01/31 13:00:36.0	111.700	0.160	-0.180	2.580
2020/01/31 13:00:36.1	111.720	0.130	-0.140	2.570
2020/01/31 13:00:36.2	111.750	0.110	-0.100	2.560
2020/01/31 13:00:36.3	111.780	0.080	-0.070	2.550
2020/01/31 13:00:36.4	111.800	0.050	-0.030	2.530
2020/01/31 13:00:36.5	111.820	0.020	0.020	2.510
2020/01/31 13:00:36.6	111.850	-0.020	0.060	2.490
2020/01/31 13:00:36.7	111.870	-0.050	0.100	2.460
2020/01/31 13:00:36.8	111.900	-0.090	0.140	2.440
2020/01/31 13:00:36.9	111.920	-0.120	0.180	2.420
2020/01/31 13:00:37.0	111.940	-0.160	0.220	2.390
2020/01/31 13:00:37.1	111.960	-0.190	0.260	2.360
2020/01/31 13:00:37.2	111.980	-0.230	0.290	2.340
2020/01/31 13:00:37.3	112.000	-0.270	0.330	2.310
2020/01/31 13:00:37.4	112.010	-0.300	0.360	2.280
2020/01/31 13:00:37.5	112.030	-0.330	0.390	2.260
2020/01/31 13:00:37.6	112.040	-0.370	0.420	2.230
2020/01/31 13:00:37.7	112.040	-0.400	0.440	2.210
2020/01/31 13:00:37.8	112.040	-0.420	0.460	2.180
2020/01/31 13:00:37.9	112.040	-0.450	0.470	2.160
2020/01/31 13:00:38.0	112.040	-0.470	0.480	2.130
2020/01/31 13:00:38.1	112.030	-0.490	0.480	2.110
2020/01/31 13:00:38.2	112.020	-0.510	0.480	2.080
2020/01/31 13:00:38.3	112.010	-0.530	0.480	2.060
2020/01/31 13:00:38.4	111.990	-0.540	0.470	2.040
2020/01/31 13:00:38.5	111.980	-0.550	0.460	2.010
2020/01/31 13:00:38.6	111.960	-0.550	0.440	1.990
2020/01/31 13:00:38.7	111.930	-0.550	0.420	1.960
2020/01/31 13:00:38.8	111.910	-0.550	0.390	1.940
2020/01/31 13:00:38.9	111.880	-0.540	0.360	1.910
2020/01/31 13:00:39.0	111.850	-0.530	0.330	1.890
2020/01/31 13:00:39.1	111.830	-0.520	0.290	1.860
2020/01/31 13:00:39.2	111.800	-0.500	0.250	1.830
2020/01/31 13:00:39.3	111.770	-0.480	0.200	1.800
2020/01/31 13:00:39.4	111.740	-0.460	0.160	1.770
2020/01/31 13:00:39.5	111.710	-0.440	0.110	1.740
2020/01/31 13:00:39.6	111.680	-0.410	0.060	1.700
2020/01/31 13:00:39.7	111.650	-0.390	0.010	1.670
2020/01/31 13:00:39.8	111.620	-0.360	-0.040	1.630
2020/01/31 13:00:39.9	111.600	-0.330	-0.090	1.590
2020/01/31 13:00:40.0	111.570	-0.290	-0.150	1.560
2020/01/31 13:00:40.1	111.550	-0.260	-0.200	1.520
2020/01/31 13:00:40.2	111.530	-0.230	-0.250	1.480
2020/01/31 13:00:40.3	111.510	-0.200	-0.300	1.430
2020/01/31 13:00:40.4	111.490	-0.160	-0.350	1.390
2020/01/31 13:00:40.5	111.450	-0.130	-0.400	1.350
2020/01/31 13:00:40.6	111.440	-0.100	-0.440	1.310
2020/01/31 13:00:40.7	111.420	-0.060	-0.490	1.270
2020/01/31 13:00:40.8	111.410	-0.030	-0.530	1.220
2020/01/31 13:00:40.9	111.400	-0.000	-0.570	1.180
2020/01/31 13:00:41.0	111.390	0.030	-0.610	1.140
2020/01/31 13:00:41.1	111.390	0.060	-0.640	1.100
2020/01/31 13:00:41.2	111.380	0.080	-0.670	1.050
2020/01/31 13:00:41.3	111.380	0.110	-0.700	1.010
2020/01/31 13:00:41.4	111.370	0.130	-0.720	0.970
2020/01/31 13:00:41.5	111.380	0.150	-0.740	0.920
2020/01/31 13:00:41.6	111.380	0.170	-0.760	0.880
2020/01/31 13:00:41.7	111.390	0.190	-0.770	0.840
2020/01/31 13:00:41.8	111.390	0.200	-0.780	0.790
2020/01/31 13:00:41.9	111.400	0.210	-0.790	0.750
2020/01/31 13:00:42.0	111.410	0.230	-0.790	0.700
2020/01/31 13:00:42.1	111.420	0.240	-0.780	0.660
2020/01/31 13:00:42.2	111.430	0.240	-0.770	0.610
2020/01/31 13:00:42.3	111.440	0.250	-0.760	0.560
2020/01/31 13:00:42.4	111.460	0.250	-0.750	0.510
2020/01/31 13:00:42.5	111.470	0.260	-0.730	0.470
2020/01/31 13:00:42.6	111.490	0.260	-0.710	0.420
2020/01/31 13:00:42.7	111.500	0.260	-0.680	0.370
2020/01/31 13:00:42.8	111.520	0.260	-0.660	0.320
2020/01/31 13:00:42.9	111.540	0.250	-0.630	0.270
2020/01/31 13:00:43.0	111.550	0.250	-0.600	0.220
2020/01/31 13:00:43.1	111.570	0.250	-0.560	0.170
2020/01/31 13:00:43.2	111.590	0.240	-0.520	0.130
2020/01/31 13:00:43.3	111.600	0.240	-0.490	0.080
2020/01/31 13:00:43.4	111.620	0.230	-0.450	0.040
2020/01/31 13:00:43.5	111.630	0.220	-0.410	-0.000
2020/01/31 13:00:43.6	111.650	0.220	-0.360	-0.040
2020/01/31 13:00:43.7	111.660	0.210	-0.320	-0.080
2020/01/31 13:00:43.8	111.680	0.200	-0.280	-0.120
2020/01/31 13:00:43.9	111.690	0.190	-0.240	-0.150
2020/01/31 13:00:44.0	111.700	0.180	-0.200	-0.180
2020/01/31 13:00:44.1	111.720	0.180	-0.160	-0.200
2020/01/31 13:00:44.2	111.730	0.170	-0.120	-0.220
2020/01/31 13:00:44.3	111.740	0.160	-0.080	-0.240
2020/01/31 13:00:44.4	111.750	0.150	-0.040	-0.250
2020/01/31 13:00:44.5	111.770	0.140	-0.010	-0.250
2020/01/31 13:00:44.6	111.780	0.130	0.030	-0.250
2020/01/31 13:00:44.7	111.780	0.120	0.060	-0.250
2020/01/31 13:00:44.8	111.790	0.120	0.100	-0.240
2020/01/31 13:00:44.9	111.800	0.110	0.130	-0.220
2020/01/31 13:00:45.0	111.800	0.100	0.160	-0.200
2020/01/31 13:00:45.1	111.800	0.090	0.190	-0.170
2020/01/31 13:00:45.2	111.810	0.080	0.220	-0.140
2020/01/31 13:00:45.3	111.810	0.070	0.240	-0.100
2020/01/31 13:00:45.4	111.810	0.060	0.270	-0.050
2020/01/31 13:00:45.5	111.810	0.050	0.290	0.000
2020/01/31 13:00:45.6	111.800	0.040	0.310	0.060
2020/01/31 13:00:45.7	111.800	0.020	0.330	0.120
2020/01/31 13:00:45.8	111.790	0.010	0.350	0.180
2020/01/31 13:00:45.9	111.780	0.000	0.360	0.250
2020/01/31 13:00:46.0	111.770	-0.010	0.370	0.320
2020/01/31 13:00:46.1	111.760	-0.020	0.380	0.400
2020/01/31 13:00:46.2	111.740	-0.030	0.390	0.480
2020/01/31 13:00:46.3	111.730	-0.040	0.390	0.560
2020/01/31 13:00:46.4	111.720	-0.050	0.390	0.640
2020/01/31 13:00:46.5	111.710	-0.070	0.390	0.730
2020/01/31 13:00:46.6	111.690	-0.080	0.380	0.810
2020/01/31 13:00:46.7	111.680	-0.090	0.380	0.900
2020/01/31 13:00:46.8	111.660	-0.100	0.360	0.980
2020/01/31 13:00:46.9	111.650	-0.110	0.350	1.070
2020/01/31 13:00:47.0	111.630	-0.120	0.330	1.150
2020/01/31 13:00:47.1	111.620	-0.130	0.310	1.230
2020/01/31 13:00:47.2	111.610	-0.130	0.290	1.310
2020/01/31 13:00:47.3	111.600	-0.140	0.260	1.390
2020/01/31 13:00:47.4	111.590	-0.150	0.230	1.470
2020/01/31 13:00:47.5	111.590	-0.150	0.200	1.540
2020/01/31 13:00:47.6	111.580	-0.160	0.160	1.610
2020/01/31 13:00:47.7	111.570	-0.160	0.120	1.680
2020/01/31 13:00:47.8	111.570	-0.160	0.090	1.750
2020/01/31 13:00:47.9	111.560	-0.160	0.040	1.810
2020/01/31 13:00:48.0	111.560	-0.160	0.000	1.870
2020/01/31 13:00:48.1	111.550	-0.160	-0.040	1.930
2020/01/31 13:00:48.2	111.550	-0.160	-0.090	1.980
2020/01/31 13:00:48.3	111.550	-0.160	-0.130	2.030
2020/01/31 13:00:48.4	111.550	-0.150	-0.180	2.080
2020/01/31 13:00:48.5	111.570	-0.150	-0.230	2.130
2020/01/31 13:00:48.6	111.570	-0.140	-0.270	2.170
2020/01/31 13:00:48.7	111.580	-0.130	-0.320	2.210
2020/01/31 13:00:48.8	111.580	-0.120	-0.360	2.240
2020/01/31 13:00:48.9	111.590	-0.110	-0.410	2.270
2020/01/31 13:00:49.0	111.600	-0.100	-0.450	2.300
2020/01/31 13:00:49.1	111.610	-0.090	-0.490	2.330
2020/01/31 13:00:49.2	111.610	-0.070	-0.530	2.360
2020/01/31 13:00:49.3	111.620	-0.060	-0.570	2.380
2020/01/31 13:00:49.4	111.630	-0.040	-0.610	2.400
2020/01/31 13:00:49.5	111.620	-0.030	-0.640	2.430
2020/01/31 13:00:49.6	111.630	-0.010	-0.670	2.450
2020/01/31 13:00:49.7	111.640	0.000	-0.700	2.470
2020/01/31 13:00:49.8	111.640	0.020	-0.720	2.490
2020/01/31 13:00:49.9	111.640	0.040	-0.740	2.510
2020/01/31 13:00:50.0	111.650	0.060	-0.760	2.530
2020/01/31 13:00:50.1	111.640	0.070	-0.770	2.550
2020/01/31 13:00:50.2	111.640	0.090	-0.780	2.580
2020/01/31 13:00:50.3	111.640	0.110	-0.780	2.600
2020/01/31 13:00:50.4	111.630	0.120	-0.780	2.620
2020/01/31 13:00:50.5	111.620	0.140	-0.780	2.640
2020/01/31 13:00:50.6	111.610	0.150	-0.770	2.660
2020/01/31 13:00:50.7	111.600	0.160	-0.760	2.680
2020/01/31 13:00:50.8	111.590	0.180	-0.740	2.700
2020/01/31 13:00:50.9	111.580	0.190	-0.720	2.720
2020/01/31 13:00:51.0	111.560	0.190	-0.690	2.740
2020/01/31 13:00:51.1	111.550	0.200	-0.660	2.760
2020/01/31 13:00:51.2	111.530	0.210	-0.630	2.770
2020/01/31 13:00:51.3	111.510	0.210	-0.590	2.790
2020/01/31 13:00:51.4	111.500	0.210	-0.550	2.800
2020/01/31 13:00:51.5	111.480	0.210	-0.500	2.810
2020/01/31 13:00:51.6	111.460	0.210	-0.460	2.810
2020/01/31 13:00:51.7	111.450	0.200	-0.410	2.810
2020/01/31 13:00:51.8	111.430	0.190	-0.360	2.800
2020/01/31 13:00:51.9	111.420	0.190	-0.310	2.800
2020/01/31 13:00:52.0	111.410	0.170	-0.260	2.780
2020/01/31 13:00:52.1	111.390	0.160	-0.200	2.760
2020/01/31 13:00:52.2	111.380	0.150	-0.150	2.740
2020/01/31 13:00:52.3	111.370	0.130	-0.100	2.710
2020/01/31 13:00:52.4	111.360	0.120	-0.050	2.680
2020/01/31 13:00:52.5	111.350	0.100	-0.000	2.640
2020/01/31 13:00:52.6	111.340	0.080	0.040	2.600
2020/01/31 13:00:52.7	111.330	0.060	0.090	2.550
2020/01/31 13:00:52.8	111.330	0.040	0.130	2.500
2020/01/31 13:00:52.9	111.320	0.020	0.170	2.440
2020/01/31 13:00:53.0	111.320	-0.000	0.210	2.380
2020/01/31 13:00:53.1	111.310	-0.030	0.250	2.310
2020/01/31 13:00:53.2	111.310	-0.050	0.280	2.240
2020/01/31 13:00:53.3	111.310	-0.070	0.310	2.160
2020/01/31 13:00:53.4	111.310	-0.100	0.330	2.090
2020/01/31 13:00:53.5	111.310	-0.120	0.360	2.000
2020/01/31 13:00:53.6	111.310	-0.140	0.380	1.920
2020/01/31 13:00:53.7	111.320	-0.160	0.390	1.830
2020/01/31 13:00:53.8	111.320	-0.180	0.400	1.740
2020/01/31 13:00:53.9	111.320	-0.200	0.410	1.650
2020/01/31 13:00:54.0	111.330	-0.220	0.410	1.560
2020/01/31 13:00:54.1	111.330	-0.240	0.420	1.470
2020/01/31 13:00:54.2	111.340	-0.260	0.410	1.370
2020/01/31 13:00:54.3	111.340	-0.280	0.410	1.280
2020/01/31 13:00:54.4	111.350	-0.290	0.400	1.190
2020/01/31 13:00:54.5	111.350	-0.310	0.390	1.100
2020/01/31 13:00:54.6	111.360	-0.320	0.370	1.000
2020/01/31 13:00:54.7	111.360	-0.330	0.350	0.910
2020/01/31 13:00:54.8	111.370	-0.340	0.330	0.830
2020/01/31 13:00:54.9	111.370	-0.340	0.300	0.740
2020/01/31 13:00:55.0	111.370	-0.350	0.270	0.650
2020/01/31 13:00:55.1	111.380	-0.350	0.240	0.570
2020/01/31 13:00:55.2	111.380	-0.350	0.200	0.490
2020/01/31 13:00:55.3	111.380	-0.350	0.170	0.410
2020/01/31 13:00:55.4	111.380	-0.340	0.130	0.330
2020/01/31 13:00:55.5	111.390	-0.330	0.080	0.260
2020/01/31 13:00:55.6	111.390	-0.330	0.030	0.190
2020/01/31 13:00:55.7	111.390	-0.310	-0.010	0.110
2020/01/31 13:00:55.8	111.400	-0.300	-0.060	0.050
2020/01/31 13:00:55.9	111.400	-0.280	-0.110	-0.020
2020/01/31 13:00:56.0	111.400	-0.260	-0.160	-0.090
2020/01/31 13:00:56.1	111.400	-0.240	-0.220	-0.150
2020/01/31 13:00:56.2	111.410	-0.220	-0.270	-0.210
2020/01/31 13:00:56.3	111.410	-0.200	-0.320	-0.270
2020/01/31 13:00:56.4	111.410	-0.170	-0.380	-0.330
2020/01/31 13:00:56.5	111.430	-0.140	-0.430	-0.380
2020/01/31 13:00:56.6	111.440	-0.110	-0.480	-0.440
2020/01/31 13:00:56.7	111.440	-0.080	-0.530	-0.490
2020/01/31 13:00:56.8	111.450	-0.050	-0.580	-0.540
2020/01/31 13:00:56.9	111.450	-0.020	-0.620	-0.590
2020/01/31 13:00:57.0	111.460	0.010	-0.670	-0.630
2020/01/31 13:00:57.1	111.460	0.040	-0.700	-0.670
2020/01/31 13:00:57.2	111.470	0.070	-0.740	-0.710
2020/01/31 13:00:57.3	111.480	0.100	-0.770	-0.750
2020/01/31 13:00:57.4	111.480	0.130	-0.800	-0.780
2020/01/31 13:00:57.5	111.500	0.150	-0.820	-0.810
2020/01/31 13:00:57.6	111.500	0.180	-0.840	-0.830
2020/01/31 13:00:57.7	111.510	0.200	-0.850	-0.850
2020/01/31 13:00:57.8	111.510	0.220	-0.860	-0.870
2020/01/31 13:00:57.9	111.520	0.240	-0.860	-0.880
2020/01/31 13:00:58.0	111.520	0.260	-0.850	-0.890
2020/01/31 13:00:58.1	111.530	0.270	-0.840	-0.890
2020/01/31 13:00:58.2	111.530	0.280	-0.830	-0.880
2020/01/31 13:00:58.3	111.530	0.290	-0.800	-0.870
2020/01/31 13:00:58.4	111.530	0.290	-0.770	-0.860
2020/01/31 13:00:58.5	111.540	0.300	-0.740	-0.830
2020/01/31 13:00:58.6	111.530	0.290	-0.700	-0.800
2020/01/31 13:00:58.7	111.530	0.290	-0.660	-0.770
2020/01/31 13:00:58.8	111.530	0.280	-0.600	-0.730
2020/01/31 13:00:58.9	111.530	0.270	-0.550	-0.690
2020/01/31 13:00:59.0	111.520	0.250	-0.490	-0.640
2020/01/31 13:00:59.1	111.520	0.230	-0.420	-0.580
2020/01/31 13:00:59.2	111.510	0.210	-0.360	-0.520
2020/01/31 13:00:59.3	111.500	0.190	-0.290	-0.450
2020/01/31 13:00:59.4	111.500	0.160	-0.210	-0.380
2020/01/31 13:00:59.5	111.490	0.130	-0.140	-0.300
2020/01/31 13:00:59.6	111.480	0.100	-0.060	-0.220
2020/01/31 13:00:59.7	111.470	0.070	0.010	-0.140
2020/01/31 13:00:59.8	111.460	0.040	0.090	-0.050
2020/01/31 13:00:59.9	111.450	0.000	0.160	0.040
2020/01/31 13:01:00.0	111.440	-0.030	0.230	0.120
2020/01/31 13:01:00.1	111.430	-0.060	0.300	0.220
2020/01/31 13:01:00.2	111.420	-0.100	0.360	0.310
2020/01/31 13:01:00.3	111.400	-0.130	0.420	0.400
2020/01/31 13:01:00.4	111.390	-0.160	0.480	0.490
2020/01/31 13:01:00.5	111.390	-0.190	0.530	0.590
2020/01/31 13:01:00.6	111.380	-0.220	0.580	0.680
2020/01/31 13:01:00.7	111.370	-0.250	0.610	0.770
2020/01/31 13:01:00.8	111.360	-0.270	0.640	0.850
2020/01/31 13:01:00.9	111.350	-0.290	0.670	0.940
2020/01/31 13:01:01.0	111.350	-0.300	0.690	1.020
2020/01/31 13:01:01.1	111.340	-0.320	0.700	1.100
2020/01/31 13:01:01.2	111.330	-0.330	0.700	1.170
2020/01/31 13:01:01.3	111.330	-0.330	0.690	1.240
2020/01/31 13:01:01.4	111.330	-0.340	0.680	1.310
2020/01/31 13:01:01.5	111.320	-0.330	0.660	1.370
2020/01/31 13:01:01.6	111.320	-0.330	0.630	1.430
2020/01/31 13:01:01.7	111.320	-0.320	0.600	1.490
2020/01/31 13:01:01.8	111.320	-0.310	0.560	1.540
2020/01/31 13:01:01.9	111.320	-0.290	0.510	1.590
2020/01/31 13:01:02.0	111.320	-0.270	0.460	1.630
2020/01/31 13:01:02.1	111.330	-0.240	0.400	1.680
2020/01/31 13:01:02.2	111.330	-0.220	0.330	1.720
2020/01/31 13:01:02.3	111.330	-0.190	0.270	1.760
2020/01/31 13:01:02.4	111.340	-0.150	0.200	1.790
2020/01/31 13:01:02.5	111.350	-0.120	0.120	1.830
2020/01/31 13:01:02.6	111.360	-0.080	0.040	1.860
2020/01/31 13:01:02.7	111.360	-0.040	-0.030	1.890
2020/01/31 13:01:02.8	111.360	-0.000	-0.110	1.920
2020/01/31 13:01:02.9	111.370	0.040	-0.190	1.950
2020/01/31 13:01:03.0	111.370	0.080	-0.270	1.980
2020/01/31 13:01:03.1	111.370	0.120	-0.340	2.010
2020/01/31 13:01:03.2	111.380	0.160	-0.410	2.030
2020/01/31 13:01:03.3	111.380	0.200	-0.480	2.060
2020/01/31 13:01:03.4	111.380	0.230	-0.550	2.080
2020/01/31 13:01:03.5	111.380	0.270	-0.610	2.110
2020/01/31 13:01:03.6	111.380	0.300	-0.670	2.130
2020/01/31 13:01:03.7	111.380	0.330	-0.720	2.150
2020/01/31 13:01:03.8	111.380	0.360	-0.770	2.170
2020/01/31 13:01:03.9	111.390	0.390	-0.810	2.190
2020/01/31 13:01:04.0	111.390	0.410	-0.840	2.210
2020/01/31 13:01:04.1	111.390	0.430	-0.870	2.230
2020/01/31 13:01:04.2	111.390	0.450	-0.890	2.250
2020/01/31 13:01:04.3	111.390	0.460	-0.910	2.270
2020/01/31 13:01:04.4	111.390	0.470	-0.920	2.290
2020/01/31 13:01:04.5	111.390	0.470	-0.920	2.310
2020/01/31 13:01:04.6	111.390	0.470	-0.920	2.320
2020/01/31 13:01:04.7	111.390	0.470	-0.910	2.340
2020/01/31 13:01:04.8	111.390	0.460	-0.890	2.360
2020/01/31 13:01:04.9	111.380	0.450	-0.870	2.370
2020/01/31 13:01:05.0	111.380	0.430	-0.840	2.380
2020/01/31 13:01:05.1	111.370	0.410	-0.810	2.400
2020/01/31 13:01:05.2	111.370	0.390	-0.770	2.410
2020/01/31 13:01:05.3	111.360	0.370	-0.730	2.420
2020/01/31 13:01:05.4	111.350	0.340	-0.680	2.430
2020/01/31 13:01:05.5	111.350	0.310	-0.630	2.440
2020/01/31 13:01:05.6	111.340	0.280	-0.580	2.440
2020/01/31 13:01:05.7	111.330	0.250	-0.520	2.450
2020/01/31 13:01:05.8	111.320	0.210	-0.460	2.450
2020/01/31 13:01:05.9	111.310	0.180	-0.400	2.450
2020/01/31 13:01:06.0	111.290	0.140	-0.340	2.450
2020/01/31 13:01:06.1	111.280	0.100	-0.280	2.450
2020/01/31 13:01:06.2	111.270	0.060	-0.220	2.440
2020/01/31 13:01:06.3	111.260	0.030	-0.170	2.430
2020/01/31 13:01:06.4	111.240	-0.010	-0.110	2.410
2020/01/31 13:01:06.5	111.220	-0.050	-0.060	2.400
2020/01/31 13:01:06.6	111.200	-0.080	-0.000	2.380
2020/01/31 13:01:06.7	111.190	-0.110	0.050	2.350
2020/01/31 13:01:06.8	111.180	-0.150	0.090	2.320
2020/01/31 13:01:06.9	111.170	-0.170	0.130	2.290
2020/01/31 13:01:07.0	111.160	-0.200	0.170	2.250
2020/01/31 13:01:07.1	111.150	-0.230	0.200	2.210
2020/01/31 13:01:07.2	111.140	-0.250	0.230	2.160
2020/01/31 13:01:07.3	111.130	-0.270	0.250	2.110
2020/01/31 13:01:07.4	111.130	-0.280	0.270	2.050
2020/01/31 13:01:07.5	111.130	-0.300	0.280	1.990
2020/01/31 13:01:07.6	111.120	-0.310	0.290	1.930
2020/01/31 13:01:07.7	111.120	-0.310	0.290	1.860
2020/01/31 13:01:07.8	111.120	-0.320	0.290	1.790
2020/01/31 13:01:07.9	111.120	-0.320	0.280	1.710
2020/01/31 13:01:08.0	111.120	-0.320	0.270	1.630
2020/01/31 13:01:08.1	111.120	-0.310	0.260	1.550
2020/01/31 13:01:08.2	111.120	-0.300	0.240	1.470
2020/01/31 13:01:08.3	111.120	-0.290	0.210	1.390
2020/01/31 13:01:08.4	111.120	-0.280	0.190	1.310
2020/01/31 13:01:08.5	111.130	-0.270	0.150	1.220
2020/01/31 13:01:08.6	111.130	-0.250	0.120	1.130
2020/01/31 13:01:08.7	111.130	-0.240	0.090	1.050
2020/01/31 13:01:08.8	111.130	-0.220	0.050	0.960
2020/01/31 13:01:08.9	111.130	-0.200	0.020	0.880
2020/01/31 13:01:09.0	111.130	-0.180	-0.020	0.800
2020/01/31 13:01:09.1	111.130	-0.160	-0.060	0.710
2020/01/31 13:01:09.2	111.130	-0.140	-0.100	0.630
2020/01/31 13:01:09.3	111.130	-0.130	-0.130	0.550
2020/01/31 13:01:09.4	111.140	-0.110	-0.170	0.470
2020/01/31 13:01:09.5	111.140	-0.090	-0.200	0.390
2020/01/31 13:01:09.6	111.140	-0.080	-0.230	0.310
2020/01/31 13:01:09.7	111.140	-0.060	-0.260	0.230
2020/01/31 13:01:09.8	111.150	-0.050	-0.280	0.160
2020/01/31 13:01:09.9	111.160	-0.040	-0.300	0.090
2020/01/31 13:01:10.0	111.170	-0.030	-0.320	0.010
2020/01/31 13:01:10.1	111.170	-0.020	-0.340	-0.050
2020/01/31 13:01:10.2	111.180	-0.020	-0.350	-0.120
2020/01/31 13:01:10.3	111.190	-0.020	-0.350	-0.180
2020/01/31 13:01:10.4	111.200	-0.020	-0.350	-0.240
2020/01/31 13:01:10.5	111.210	-0.020	-0.350	-0.300
2020/01/31 13:01:10.6	111.220	-0.020	-0.350	-0.350
2020/01/31 13:01:10.7	111.230	-0.030	-0.340	-0.400
2020/01/31 13:01:10.8	111.240	-0.040	-0.320	-0.440
2020/01/31 13:01:10.9	111.250	-0.050	-0.310	-0.480
2020/01/31 13:01:11.0	111.260	-0.060	-0.290	-0.520
2020/01/31 13:01:11.1	111.260	-0.070	-0.270	-0.550
2020/01/31 13:01:11.2	111.270	-0.080	-0.240	-0.580
2020/01/31 13:01:11.3	111.280	-0.100	-0.210	-0.610
2020/01/31 13:01:11.4	111.280	-0.110	-0.190	-0.630
2020/01/31 13:01:11.5	111.280	-0.130	-0.160	-0.640
2020/01/31 13:01:11.6	111.280	-0.140	-0.130	-0.650
2020/01/31 13:01:11.7	111.280	-0.160	-0.090	-0.650
2020/01/31 13:01:11.8	111.280	-0.170	-0.060	-0.660
2020/01/31 13:01:11.9	111.280	-0.180	-0.030	-0.650
2020/01/31 13:01:12.0	111.280	-0.200	-0.000	-0.650
2020/01/31 13:01:12.1	111.270	-0.210	0.030	-0.640
2020/01/31 13:01:12.2	111.270	-0.220	0.050	-0.630
2020/01/31 13:01:12.3	111.260	-0.230	0.080	-0.610
2020/01/31 13:01:12.4	111.250	-0.240	0.100	-0.590
2020/01/31 13:01:12.5	111.250	-0.250	0.120	-0.570
2020/01/31 13:01:12.6	111.240	-0.250	0.130	-0.540
2020/01/31 13:01:12.7	111.230	-0.260	0.140	-0.510
2020/01/31 13:01:12.8	111.220	-0.260	0.150	-0.480
2020/01/31 13:01:12.9	111.210	-0.250	0.150	-0.450
2020/01/31 13:01:13.0	111.200	-0.250	0.150	-0.410
2020/01/31 13:01:13.1	111.190	-0.240	0.150	-0.380
2020/01/31 13:01:13.2	111.170	-0.240	0.140	-0.340
2020/01/31 13:01:13.3	111.160	-0.220	0.130	-0.290
2020/01/31 13:01:13.4	111.150	-0.210	0.110	-0.250
2020/01/31 13:01:13.5	111.150	-0.190	0.090	-0.200
2020/01/31 13:01:13.6	111.140	-0.170	0.070	-0.160
2020/01/31 13:01:13.7	111.120	-0.150	0.040	-0.110
2020/01/31 13:01:13.8	111.110	-0.130	0.010	-0.060
2020/01/31 13:01:13.9	111.100	-0.110	-0.020	-0.010
2020/01/31 13:01:14.0	111.090	-0.080	-0.060	0.030
2020/01/31 13:01:14.1	111.080	-0.050	-0.090	0.080
2020/01/31 13:01:14.2	111.070	-0.020	-0.130	0.130
2020/01/31 13:01:14.3	111.060	0.010	-0.170	0.180
2020/01/31 13:01:14.4	111.060	0.040	-0.200	0.230
2020/01/31 13:01:14.5	111.060	0.070	-0.240	0.280
2020/01/31 13:01:14.6	111.060	0.110	-0.280	0.330
2020/01/31 13:01:14.7	111.050	0.140	-0.310	0.380
2020/01/31 13:01:14.8	111.050	0.170	-0.340	0.430
2020/01/31 13:01:14.9	111.040	0.200	-0.370	0.480
2020/01/31 13:01:15.0	111.040	0.230	-0.400	0.520
2020/01/31 13:01:15.1	111.040	0.260	-0.420	0.570
2020/01/31 13:01:15.2	111.040	0.290	-0.440	0.620
2020/01/31 13:01:15.3	111.040	0.320	-0.460	0.670
2020/01/31 13:01:15.4	111.040	0.350	-0.480	0.720
2020/01/31 13:01:15.5	111.040	0.370	-0.490	0.770
2020/01/31 13:01:15.6	111.040	0.390	-0.500	0.820
2020/01/31 13:01:15.7	111.040	0.410	-0.500	0.860
2020/01/31 13:01:15.8	111.040	0.430	-0.500	0.910
2020/01/31 13:01:15.9	111.040	0.450	-0.500	0.950
2020/01/31 13:01:16.0	111.040	0.460	-0.490	1.000
2020/01/31 13:01:16.1	111.050	0.470	-0.480	1.040
2020/01/31 13:01:16.2	111.050	0.480	-0.470	1.090
2020/01/31 13:01:16.3	111.050	0.480	-0.460	1.130
2020/01/31 13:01:16.4	111.050	0.490	-0.440	1.170
2020/01/31 13:01:16.5	111.060	0.490	-0.420	1.210
2020/01/31 13:01:16.6	111.060	0.490	-0.400	1.250
2020/01/31 13:01:16.7	111.060	0.490	-0.370	1.290
2020/01/31 13:01:16.8	111.060	0.480	-0.350	1.330
2020/01/31 13:01:16.9	111.070	0.470	-0.320	1.360
2020/01/31 13:01:17.0	111.070	0.460	-0.300	1.400
2020/01/31 13:01:17.1	111.070	0.450	-0.270	1.430
2020/01/31 13:01:17.2	111.070	0.440	-0.240	1.460
2020/01/31 13:01:17.3	111.070	0.430	-0.210	1.490
2020/01/31 13:01:17.4	111.070	0.410	-0.190	1.520
2020/01/31 13:01:17.5	111.080	0.400	-0.160	1.540
2020/01/31 13:01:17.6	111.080	0.380	-0.130	1.570
2020/01/31 13:01:17.7	111.070	0.360	-0.110	1.590
2020/01/31 13:01:17.8	111.070	0.340	-0.080	1.610
2020/01/31 13:01:17.9	111.070	0.320	-0.060	1.630
2020/01/31 13:01:18.0	111.070	0.300	-0.040	1.650
2020/01/31 13:01:18.1	111.070	0.280	-0.020	1.670
2020/01/31 13:01:18.2	111.070	0.260	0.000	1.680
2020/01/31 13:01:18.3	111.060	0.240	0.020	1.700
2020/01/31 13:01:18.4	111.060	0.220	0.030	1.720
2020/01/31 13:01:18.5	111.060	0.200	0.050	1.730
2020/01/31 13:01:18.6	111.050	0.180	0.060	1.750
2020/01/31 13:01:18.7	111.050	0.160	0.070	1.760
2020/01/31 13:01:18.8	111.040	0.130	0.080	1.770
2020/01/31 13:01:18.9	111.040	0.110	0.080	1.780
2020/01/31 13:01:19.0	111.030	0.090	0.090	1.800
2020/01/31 13:01:19.1	111.030	0.070	0.090	1.810
2020/01/31 13:01:19.2	111.020	0.050	0.090	1.820
2020/01/31 13:01:19.3	111.020	0.030	0.090	1.830
2020/01/31 13:01:19.4	111.010	0.020	0.080	1.840
2020/01/31 13:01:19.5	111.000	-0.000	0.080	1.850
2020/01/31 13:01:19.6	111.000	-0.020	0.070	1.860
2020/01/31 13:01:19.7	110.990	-0.040	0.060	1.870
2020/01/31 13:01:19.8	110.990	-0.060	0.050	1.870
2020/01/31 13:01:19.9	110.980	-0.070	0.040	1.880
2020/01/31 13:01:20.0	110.980	-0.090	0.020	1.880
2020/01/31 13:01:20.1	110.970	-0.100	0.010	1.890
2020/01/31 13:01:20.2	110.970	-0.120	-0.010	1.890
2020/01/31 13:01:20.3	110.960	-0.130	-0.030	1.890
2020/01/31 13:01:20.4	110.960	-0.150	-0.050	1.890
2020/01/31 13:01:20.5	110.960	-0.160	-0.070	1.880
2020/01/31 13:01:20.6	110.960	-0.170	-0.090	1.870
2020/01/31 13:01:20.7	110.960	-0.180	-0.110	1.870
2020/01/31 13:01:20.8	110.960	-0.200	-0.140	1.860
2020/01/31 13:01:20.9	110.960	-0.210	-0.160	1.850
2020/01/31 13:01:21.0	110.960	-0.220	-0.180	1.840
2020/01/31 13:01:21.1	110.970	-0.230	-0.210	1.830
2020/01/31 13:01:21.2	110.970	-0.240	-0.240	1.820
2020/01/31 13:01:21.3	110.970	-0.240	-0.260	1.800
2020/01/31 13:01:21.4	110.980	-0.250	-0.290	1.790
2020/01/31 13:01:21.5	110.980	-0.260	-0.310	1.780
2020/01/31 13:01:21.6	110.990	-0.260	-0.340	1.760
2020/01/31 13:01:21.7	110.990	-0.270	-0.370	1.750
2020/01/31 13:01:21.8	110.990	-0.270	-0.400	1.740
2020/01/31 13:01:21.9	110.990	-0.280	-0.420	1.730
2020/01/31 13:01:22.0	110.990	-0.280	-0.450	1.710
2020/01/31 13:01:22.1	110.990	-0.280	-0.470	1.700
2020/01/31 13:01:22.2	110.990	-0.280	-0.490	1.690
2020/01/31 13:01:22.3	110.990	-0.280	-0.520	1.680
2020/01/31 13:01:22.4	110.980	-0.280	-0.540	1.670
2020/01/31 13:01:22.5	110.980	-0.280	-0.550	1.660
2020/01/31 13:01:22.6	110.970	-0.280	-0.570	1.650
2020/01/31 13:01:22.7	110.970	-0.280	-0.580	1.640
2020/01/31 13:01:22.8	110.960	-0.280	-0.590	1.630
2020/01/31 13:01:22.9	110.950	-0.280	-0.600	1.620
2020/01/31 13:01:23.0	110.950	-0.270	-0.600	1.610
2020/01/31 13:01:23.1	110.940	-0.270	-0.600	1.590
2020/01/31 13:01:23.2	110.930	-0.270	-0.590	1.580
2020/01/31 13:01:23.3	110.930	-0.270	-0.590	1.560
2020/01/31 13:01:23.4	110.920	-0.260	-0.570	1.540
2020/01/31 13:01:23.5	110.910	-0.260	-0.550	1.520
2020/01/31 13:01:23.6	110.900	-0.260	-0.530	1.500
2020/01/31 13:01:23.7	110.900	-0.250	-0.510	1.470
2020/01/31 13:01:23.8	110.890	-0.250	-0.480	1.450
2020/01/31 13:01:23.9	110.880	-0.240	-0.450	1.420
2020/01/31 13:01:24.0	110.880	-0.240	-0.420	1.390
2020/01/31 13:01:24.1	110.870	-0.240	-0.380	1.360
2020/01/31 13:01:24.2	110.860	-0.230	-0.340	1.320
2020/01/31 13:01:24.3	110.850	-0.230	-0.300	1.290
2020/01/31 13:01:24.4	110.850	-0.220	-0.260	1.250
2020/01/31 13:01:24.5	110.840	-0.220	-0.220	1.210
2020/01/31 13:01:24.6	110.830	-0.210	-0.180	1.180
2020/01/31 13:01:24.7	110.820	-0.210	-0.130	1.130
2020/01/31 13:01:24.8	110.810	-0.200	-0.090	1.090
2020/01/31 13:01:24.9	110.790	-0.190	-0.050	1.050
2020/01/31 13:01:25.0	110.780	-0.180	-0.010	1.010
2020/01/31 13:01:25.1	110.770	-0.170	0.030	0.960
2020/01/31 13:01:25.2	110.760	-0.160	0.060	0.910
2020/01/31 13:01:25.3	110.750	-0.150	0.100	0.870
2020/01/31 13:01:25.4	110.730	-0.140	0.130	0.820
2020/01/31 13:01:25.5	110.730	-0.130	0.160	0.770
2020/01/31 13:01:25.6	110.720	-0.120	0.180	0.720
2020/01/31 13:01:25.7	110.710	-0.110	0.200	0.670
2020/01/31 13:01:25.8	110.700	-0.090	0.230	0.610
2020/01/31 13:01:25.9	110.690	-0.080	0.240	0.560
2020/01/31 13:01:26.0	110.690	-0.060	0.260	0.500
2020/01/31 13:01:26.1	110.690	-0.050	0.270	0.440
2020/01/31 13:01:26.2	110.690	-0.040	0.280	0.380
2020/01/31 13:01:26.3	110.690	-0.020	0.290	0.330
2020/01/31 13:01:26.4	110.690	-0.010	0.300	0.270
2020/01/31 13:01:26.5	110.710	0.010	0.300	0.210
2020/01/31 13:01:26.6	110.710	0.020	0.310	0.150
2020/01/31 13:01:26.7	110.720	0.040	0.310	0.090
2020/01/31 13:01:26.8	110.730	0.050	0.310	0.030
2020/01/31 13:01:26.9	110.740	0.070	0.310	-0.030
2020/01/31 13:01:27.0	110.750	0.080	0.310	-0.080
2020/01/31 13:01:27.1	110.760	0.090	0.310	-0.140
2020/01/31 13:01:27.2	110.770	0.100	0.310	-0.190
2020/01/31 13:01:27.3	110.780	0.110	0.310	-0.240
2020/01/31 13:01:27.4	110.790	0.120	0.310	-0.280
2020/01/31 13:01:27.5	110.810	0.130	0.310	-0.320
2020/01/31 13:01:27.6	110.820	0.140	0.300	-0.360
2020/01/31 13:01:27.7	110.820	0.150	0.300	-0.400
2020/01/31 13:01:27.8	110.830	0.160	0.290	-0.430
2020/01/31 13:01:27.9	110.840	0.160	0.290	-0.460
2020/01/31 13:01:28.0	110.840	0.160	0.280	-0.480
2020/01/31 13:01:28.1	110.850	0.170	0.270	-0.500
2020/01/31 13:01:28.2	110.850	0.170	0.270	-0.520
2020/01/31 13:01:28.3	110.850	0.170	0.260	-0.530
2020/01/31 13:01:28.4	110.860	0.170	0.250	-0.540
2020/01/31 13:01:28.5	110.860	0.170	0.230	-0.550
2020/01/31 13:01:28.6	110.860	0.170	0.220	-0.560
2020/01/31 13:01:28.7	110.860	0.170	0.210	-0.560
2020/01/31 13:01:28.8	110.860	0.160	0.190	-0.560
2020/01/31 13:01:28.9	110.860	0.160	0.170	-0.550
2020/01/31 13:01:29.0	110.860	0.150	0.150	-0.550
2020/01/31 13:01:29.1	110.860	0.150	0.130	-0.540
2020/01/31 13:01:29.2	110.860	0.150	0.110	-0.530
2020/01/31 13:01:29.3	110.860	0.140	0.080	-0.520
2020/01/31 13:01:29.4	110.850	0.140	0.050	-0.510
2020/01/31 13:01:29.5	110.850	0.130	0.020	-0.500
2020/01/31 13:01:29.6	110.850	0.130	-0.010	-0.480
2020/01/31 13:01:29.7	110.840	0.120	-0.050	-0.470
2020/01/31 13:01:29.8	110.840	0.120	-0.090	-0.450
2020/01/31 13:01:29.9	110.840	0.120	-0.130	-0.430
2020/01/31 13:01:30.0	110.840	0.110	-0.180	-0.410
2020/01/31 13:01:30.1	110.830	0.110	-0.220	-0.390
2020/01/31 13:01:30.2	110.830	0.110	-0.270	-0.360
2020/01/31 13:01:30.3	110.820	0.120	-0.330	-0.330
2020/01/31 13:01:30.4	110.810	0.120	-0.380	-0.300
2020/01/31 13:01:30.5	110.800	0.120	-0.440	-0.270
2020/01/31 13:01:30.6	110.790	0.130	-0.500	-0.230
2020/01/31 13:01:30.7	110.780	0.130	-0.550	-0.190
2020/01/31 13:01:30.8	110.770	0.140	-0.620	-0.150
2020/01/31 13:01:30.9	110.760	0.150	-0.670	-0.100
2020/01/31 13:01:31.0	110.750	0.160	-0.730	-0.050
2020/01/31 13:01:31.1	110.740	0.170	-0.790	0.000
2020/01/31 13:01:31.2	110.730	0.190	-0.850	0.060
2020/01/31 13:01:31.3	110.710	0.200	-0.900	0.120
2020/01/31 13:01:31.4	110.700	0.210	-0.960	0.190
2020/01/31 13:01:31.5	110.680	0.230	-1.010	0.260
2020/01/31 13:01:31.6	110.670	0.240	-1.050	0.330
2020/01/31 13:01:31.7	110.650	0.260	-1.090	0.410
2020/01/31 13:01:31.8	110.640	0.270	-1.130	0.480
2020/01/31 13:01:31.9	110.620	0.290	-1.160	0.570
2020/01/31 13:01:32.0	110.610	0.300	-1.180	0.650
2020/01/31 13:01:32.1	110.600	0.320	-1.200	0.740
2020/01/31 13:01:32.2	110.590	0.330	-1.210	0.820
2020/01/31 13:01:32.3	110.570	0.340	-1.210	0.910
2020/01/31 13:01:32.4	110.560	0.350	-1.210	1.000
2020/01/31 13:01:32.5	110.550	0.360	-1.200	1.100
2020/01/31 13:01:32.6	110.550	0.360	-1.180	1.190
2020/01/31 13:01:32.7	110.540	0.370	-1.150	1.270
2020/01/31 13:01:32.8	110.530	0.370	-1.120	1.360
2020/01/31 13:01:32.9	110.530	0.370	-1.080	1.450
2020/01/31 13:01:33.0	110.530	0.370	-1.030	1.540
2020/01/31 13:01:33.1	110.530	0.360	-0.980	1.620
2020/01/31 13:01:33.2	110.530	0.360	-0.920	1.710
2020/01/31 13:01:33.3	110.530	0.350	-0.850	1.790
2020/01/31 13:01:33.4	110.530	0.330	-0.780	1.870
2020/01/31 13:01:33.5	110.530	0.320	-0.700	1.940
2020/01/31 13:01:33.6	110.530	0.300	-0.620	2.020
2020/01/31 13:01:33.7	110.530	0.280	-0.540	2.090
2020/01/31 13:01:33.8	110.540	0.260	-0.450	2.150
2020/01/31 13:01:33.9	110.550	0.230	-0.360	2.220
2020/01/31 13:01:34.0	110.550	0.200	-0.270	2.280
2020/01/31 13:01:34.1	110.560	0.170	-0.180	2.330
2020/01/31 13:01:34.2	110.570	0.140	-0.080	2.380
2020/01/31 13:01:34.3	110.580	0.110	0.010	2.430
2020/01/31 13:01:34.4	110.590	0.080	0.100	2.470
2020/01/31 13:01:34.5	110.590	0.050	0.190	2.510
2020/01/31 13:01:34.6	110.600	0.010	0.280	2.550
2020/01/31 13:01:34.7	110.610	-0.020	0.370	2.580
2020/01/31 13:01:34.8	110.620	-0.060	0.450	2.600
2020/01/31 13:01:34.9	110.630	-0.090	0.520	2.620
2020/01/31 13:01:35.0	110.640	-0.130	0.590	2.640
2020/01/31 13:01:35.1	110.640	-0.160	0.660	2.650
2020/01/31 13:01:35.2	110.650	-0.190	0.720	2.650
2020/01/31 13:01:35.3	110.660	-0.230	0.780	2.650
2020/01/31 13:01:35.4	110.670	-0.250	0.820	2.650
2020/01/31 13:01:35.5	110.680	-0.280	0.870	2.640
2020/01/31 13:01:35.6	110.690	-0.310	0.900	2.630
2020/01/31 13:01:35.7	110.690	-0.330	0.930	2.610
2020/01/31 13:01:35.8	110.700	-0.350	0.950	2.580
2020/01/31 13:01:35.9	110.710	-0.370	0.960	2.550
2020/01/31 13:01:36.0	110.710	-0.390	0.970	2.520
2020/01/31 13:01:36.1	110.720	-0.400	0.960	2.480
2020/01/31 13:01:36.2	110.730	-0.410	0.950	2.440
2020/01/31 13:01:36.3	110.730	-0.410	0.940	2.390
2020/01/31 13:01:36.4	110.740	-0.420	0.920	2.340
2020/01/31 13:01:36.5	110.750	-0.420	0.880	2.280
2020/01/31 13:01:36.6	110.750	-0.410	0.850	2.220
2020/01/31 13:01:36.7	110.750	-0.410	0.800	2.160
2020/01/31 13:01:36.8	110.760	-0.400	0.750	2.090
2020/01/31 13:01:36.9	110.760	-0.390	0.700	2.020
2020/01/31 13:01:37.0	110.760	-0.380	0.640	1.950
2020/01/31 13:01:37.1	110.760	-0.360	0.580	1.880
2020/01/31 13:01:37.2	110.760	-0.340	0.510	1.800
2020/01/31 13:01:37.3	110.760	-0.320	0.430	1.730
2020/01/31 13:01:37.4	110.760	-0.300	0.360	1.650
2020/01/31 13:01:37.5	110.760	-0.270	0.280	1.580
2020/01/31 13:01:37.6	110.750	-0.250	0.200	1.500
2020/01/31 13:01:37.7	110.750	-0.220	0.120	1.430
2020/01/31 13:01:37.8	110.740	-0.200	0.040	1.360
2020/01/31 13:01:37.9	110.730	-0.170	-0.050	1.290
2020/01/31 13:01:38.0	110.730	-0.140	-0.130	1.220
2020/01/31 13:01:38.1	110.720	-0.120	-0.210	1.160
2020/01/31 13:01:38.2	110.710	-0.090	-0.290	1.100
2020/01/31 13:01:38.3	110.700	-0.060	-0.370	1.040
2020/01/31 13:01:38.4	110.680	-0.040	-0.450	0.980
2020/01/31 13:01:38.5	110.680	-0.020	-0.530	0.930
2020/01/31 13:01:38.6	110.670	0.010	-0.600	0.880
2020/01/31 13:01:38.7	110.660	0.030	-0.660	0.830
2020/01/31 13:01:38.8	110.640	0.050	-0.730	0.780
2020/01/31 13:01:38.9	110.630	0.060	-0.780	0.740
2020/01/31 13:01:39.0	110.620	0.080	-0.840	0.700
2020/01/31 13:01:39.1	110.600	0.090	-0.880	0.660
2020/01/31 13:01:39.2	110.590	0.100	-0.920	0.620
2020/01/31 13:01:39.3	110.580	0.110	-0.960	0.580
2020/01/31 13:01:39.4	110.570	0.120	-0.990	0.550
2020/01/31 13:01:39.5	110.540	0.120	-1.010	0.510
2020/01/31 13:01:39.6	110.540	0.120	-1.030	0.480
2020/01/31 13:01:39.7	110.530	0.120	-1.030	0.440
2020/01/31 13:01:39.8	110.520	0.110	-1.040	0.410
2020/01/31 13:01:39.9	110.520	0.110	-1.030	0.370
2020/01/31 13:01:40.0	110.510	0.100	-1.020	0.340
2020/01/31 13:01:40.1	110.510	0.090	-1.010	0.300
2020/01/31 13:01:40.2	110.510	0.070	-0.990	0.260
2020/01/31 13:01:40.3	110.510	0.060	-0.960	0.230
2020/01/31 13:01:40.4	110.520	0.040	-0.930	0.190
2020/01/31 13:01:40.5	110.510	0.030	-0.890	0.150
2020/01/31 13:01:40.6	110.520	0.010	-0.850	0.110
2020/01/31 13:01:40.7	110.530	-0.010	-0.810	0.070
2020/01/31 13:01:40.8	110.540	-0.030	-0.760	0.030
2020/01/31 13:01:40.9	110.550	-0.050	-0.710	-0.010
2020/01/31 13:01:41.0	110.560	-0.070	-0.650	-0.040
2020/01/31 13:01:41.1	110.570	-0.090	-0.600	-0.080
2020/01/31 13:01:41.2	110.580	-0.110	-0.540	-0.120
2020/01/31 13:01:41.3	110.600	-0.130	-0.480	-0.160
2020/01/31 13:01:41.4	110.610	-0.150	-0.420	-0.200
2020/01/31 13:01:41.5	110.630	-0.170	-0.360	-0.230
2020/01/31 13:01:41.6	110.650	-0.180	-0.290	-0.260
2020/01/31 13:01:41.7	110.660	-0.200	-0.230	-0.300
2020/01/31 13:01:41.8	110.680	-0.210	-0.170	-0.330
2020/01/31 13:01:41.9	110.700	-0.230	-0.110	-0.360
2020/01/31 13:01:42.0	110.710	-0.240	-0.050	-0.390
2020/01/31 13:01:42.1	110.730	-0.250	0.000	-0.410
2020/01/31 13:01:42.2	110.750	-0.250	0.050	-0.430
2020/01/31 13:01:42.3	110.760	-0.260	0.110	-0.450
2020/01/31 13:01:42.4	110.780	-0.260	0.150	-0.460
2020/01/31 13:01:42.5	110.790	-0.260	0.200	-0.470
2020/01/31 13:01:42.6	110.800	-0.260	0.240	-0.480
2020/01/31 13:01:42.7	110.820	-0.260	0.280	-0.480
2020/01/31 13:01:42.8	110.830	-0.250	0.310	-0.480
2020/01/31 13:01:42.9	110.840	-0.250	0.340	-0.470
2020/01/31 13:01:43.0	110.850	-0.240	0.370	-0.460
2020/01/31 13:01:43.1	110.860	-0.230	0.390	-0.440
2020/01/31 13:01:43.2	110.870	-0.220	0.410	-0.420
2020/01/31 13:01:43.3	110.870	-0.210	0.420	-0.400
2020/01/31 13:01:43.4	110.880	-0.200	0.430	-0.370
2020/01/31 13:01:43.5	110.880	-0.180	0.440	-0.340
2020/01/31 13:01:43.6	110.890	-0.170	0.440	-0.300
2020/01/31 13:01:43.7	110.890	-0.150	0.440	-0.260
2020/01/31 13:01:43.8	110.900	-0.140	0.440	-0.220
2020/01/31 13:01:43.9	110.900	-0.120	0.430	-0.180
2020/01/31 13:01:44.0	110.900	-0.110	0.420	-0.130
2020/01/31 13:01:44.1	110.900	-0.090	0.410	-0.080
2020/01/31 13:01:44.2	110.910	-0.080	0.400	-0.030
2020/01/31 13:01:44.3	110.910	-0.060	0.380	0.020
2020/01/31 13:01:44.4	110.910	-0.040	0.360	0.080
2020/01/31 13:01:44.5	110.920	-0.030	0.340	0.130
2020/01/31 13:01:44.6	110.920	-0.010	0.320	0.190
2020/01/31 13:01:44.7	110.920	0.000	0.290	0.250
2020/01/31 13:01:44.8	110.920	0.010	0.260	0.300
2020/01/31 13:01:44.9	110.910	0.030	0.230	0.360
2020/01/31 13:01:45.0	110.910	0.040	0.210	0.410
2020/01/31 13:01:45.1	110.910	0.050	0.170	0.470
2020/01/31 13:01:45.2	110.910	0.060	0.140	0.520
2020/01/31 13:01:45.3	110.910	0.080	0.110	0.580
2020/01/31 13:01:45.4	110.900	0.090	0.080	0.630
2020/01/31 13:01:45.5	110.900	0.100	0.040	0.690
2020/01/31 13:01:45.6	110.900	0.110	0.010	0.740
2020/01/31 13:01:45.7	110.890	0.120	-0.030	0.790
2020/01/31 13:01:45.8	110.890	0.130	-0.060	0.830
2020/01/31 13:01:45.9	110.890	0.140	-0.100	0.880
2020/01/31 13:01:46.0	110.880	0.150	-0.140	0.930
2020/01/31 13:01:46.1	110.880	0.160	-0.180	0.970
2020/01/31 13:01:46.2	110.880	0.170	-0.210	1.010
2020/01/31 13:01:46.3	110.880	0.190	-0.250	1.050
2020/01/31 13:01:46.4	110.880	0.200	-0.290	1.080
2020/01/31 13:01:46.5	110.880	0.210	-0.330	1.120
2020/01/31 13:01:46.6	110.880	0.230	-0.370	1.150
2020/01/31 13:01:46.7	110.880	0.240	-0.410	1.180
2020/01/31 13:01:46.8	110.880	0.260	-0.450	1.210
2020/01/31 13:01:46.9	110.880	0.270	-0.490	1.230
2020/01/31 13:01:47.0	110.890	0.290	-0.530	1.260
2020/01/31 13:01:47.1	110.890	0.310	-0.570	1.280
2020/01/31 13:01:47.2	110.890	0.330	-0.610	1.300
2020/01/31 13:01:47.3	110.900	0.350	-0.650	1.320
2020/01/31 13:01:47.4	110.900	0.360	-0.690	1.340
2020/01/31 13:01:47.5	110.910	0.380	-0.720	1.360
2020/01/31 13:01:47.6	110.920	0.400	-0.750	1.380
2020/01/31 13:01:47.7	110.930	0.420	-0.780	1.390
2020/01/31 13:01:47.8	110.930	0.440	-0.810	1.400
2020/01/31 13:01:47.9	110.940	0.460	-0.840	1.420
2020/01/31 13:01:48.0	110.950	0.480	-0.860	1.430
2020/01/31 13:01:48.1	110.960	0.500	-0.880	1.440
2020/01/31 13:01:48.2	110.970	0.520	-0.890	1.450
2020/01/31 13:01:48.3	110.980	0.530	-0.900	1.450
2020/01/31 13:01:48.4	110.990	0.540	-0.900	1.460
2020/01/31 13:01:48.5	111.000	0.550	-0.900	1.470
2020/01/31 13:01:48.6	111.010	0.560	-0.890	1.470
2020/01/31 13:01:48.7	111.030	0.570	-0.870	1.480
2020/01/31 13:01:48.8	111.040	0.570	-0.850	1.480
2020/01/31 13:01:48.9	111.060	0.570	-0.820	1.480
2020/01/31 13:01:49.0	111.070	0.560	-0.790	1.490
2020/01/31 13:01:49.1	111.090	0.550	-0.750	1.500
2020/01/31 13:01:49.2	111.100	0.540	-0.700	1.500
2020/01/31 13:01:49.3	111.110	0.530	-0.650	1.510
2020/01/31 13:01:49.4	111.130	0.510	-0.590	1.520
2020/01/31 13:01:49.5	111.140	0.480	-0.530	1.530
2020/01/31 13:01:49.6	111.150	0.460	-0.460	1.540
2020/01/31 13:01:49.7	111.170	0.420	-0.390	1.550
2020/01/31 13:01:49.8	111.180	0.390	-0.310	1.560
2020/01/31 13:01:49.9	111.190	0.350	-0.240	1.580
2020/01/31 13:01:50.0	111.200	0.310	-0.160	1.590
2020/01/31 13:01:50.1	111.210	0.270	-0.080	1.610
2020/01/31 13:01:50.2	111.220	0.220	0.000	1.630
2020/01/31 13:01:50.3	111.230	0.170	0.090	1.650
2020/01/31 13:01:50.4	111.230	0.120	0.170	1.670
2020/01/31 13:01:50.5	111.240	0.070	0.250	1.690
2020/01/31 13:01:50.6	111.240	0.010	0.330	1.710
2020/01/31 13:01:50.7	111.250	-0.040	0.400	1.730
2020/01/31 13:01:50.8	111.250	-0.100	0.470	1.750
2020/01/31 13:01:50.9	111.260	-0.150	0.540	1.760
2020/01/31 13:01:51.0	111.260	-0.210	0.600	1.780
2020/01/31 13:01:51.1	111.270	-0.260	0.650	1.800
2020/01/31 13:01:51.2	111.270	-0.310	0.700	1.810
2020/01/31 13:01:51.3	111.280	-0.360	0.740	1.830
2020/01/31 13:01:51.4	111.280	-0.410	0.780	1.840
2020/01/31 13:01:51.5	111.290	-0.460	0.800	1.850
2020/01/31 13:01:51.6	111.290	-0.500	0.820	1.850
2020/01/31 13:01:51.7	111.300	-0.540	0.830	1.850
2020/01/31 13:01:51.8	111.300	-0.580	0.830	1.850
2020/01/31 13:01:51.9	111.300	-0.610	0.830	1.850
2020/01/31 13:01:52.0	111.310	-0.640	0.810	1.840
2020/01/31 13:01:52.1	111.310	-0.660	0.790	1.830
2020/01/31 13:01:52.2	111.310	-0.680	0.760	1.820
2020/01/31 13:01:52.3	111.320	-0.690	0.720	1.810
2020/01/31 13:01:52.4	111.320	-0.700	0.670	1.790
2020/01/31 13:01:52.5	111.330	-0.700	0.620	1.770
2020/01/31 13:01:52.6	111.330	-0.700	0.560	1.750
2020/01/31 13:01:52.7	111.330	-0.700	0.490	1.720
2020/01/31 13:01:52.8	111.330	-0.680	0.420	1.700
2020/01/31 13:01:52.9	111.340	-0.670	0.340	1.670
2020/01/31 13:01:53.0	111.340	-0.650	0.260	1.640
2020/01/31 13:01:53.1	111.340	-0.620	0.170	1.600
2020/01/31 13:01:53.2	111.340	-0.590	0.080	1.570
2020/01/31 13:01:53.3	111.340	-0.560	-0.010	1.540
2020/01/31 13:01:53.4	111.330	-0.520	-0.100	1.500
2020/01/31 13:01:53.5	111.340	-0.480	-0.190	1.460
2020/01/31 13:01:53.6	111.330	-0.430	-0.290	1.430
2020/01/31 13:01:53.7	111.330	-0.390	-0.380	1.390
2020/01/31 13:01:53.8	111.330	-0.340	-0.470	1.350
2020/01/31 13:01:53.9	111.330	-0.290	-0.560	1.320
2020/01/31 13:01:54.0	111.320	-0.240	-0.640	1.280
2020/01/31 13:01:54.1	111.320	-0.180	-0.720	1.250
2020/01/31 13:01:54.2	111.310	-0.130	-0.800	1.210
2020/01/31 13:01:54.3	111.300	-0.080	-0.880	1.180
2020/01/31 13:01:54.4	111.300	-0.030	-0.940	1.150
2020/01/31 13:01:54.5	111.290	0.030	-1.010	1.120
2020/01/31 13:01:54.6	111.280	0.080	-1.060	1.080
2020/01/31 13:01:54.7	111.270	0.130	-1.110	1.050
2020/01/31 13:01:54.8	111.260	0.170	-1.150	1.020
2020/01/31 13:01:54.9	111.250	0.220	-1.190	0.990
2020/01/31 13:01:55.0	111.250	0.260	-1.210	0.960
2020/01/31 13:01:55.1	111.240	0.300	-1.230	0.930
2020/01/31 13:01:55.2	111.230	0.330	-1.240	0.910
2020/01/31 13:01:55.3	111.230	0.370	-1.240	0.880
2020/01/31 13:01:55.4	111.220	0.390	-1.230	0.850
2020/01/31 13:01:55.5	111.220	0.420	-1.210	0.820
2020/01/31 13:01:55.6	111.220	0.440	-1.190	0.790
2020/01/31 13:01:55.7	111.210	0.460	-1.150	0.770
2020/01/31 13:01:55.8	111.220	0.470	-1.110	0.740
2020/01/31 13:01:55.9	111.220	0.470	-1.060	0.710
2020/01/31 13:01:56.0	111.220	0.480	-1.000	0.690
2020/01/31 13:01:56.1	111.220	0.480	-0.940	0.660
2020/01/31 13:01:56.2	111.230	0.470	-0.860	0.630
2020/01/31 13:01:56.3	111.230	0.460	-0.790	0.610
2020/01/31 13:01:56.4	111.240	0.450	-0.700	0.580
2020/01/31 13:01:56.5	111.260	0.430	-0.610	0.560
2020/01/31 13:01:56.6	111.260	0.410	-0.520	0.540
2020/01/31 13:01:56.7	111.270	0.380	-0.430	0.520
2020/01/31 13:01:56.8	111.280	0.360	-0.330	0.490
2020/01/31 13:01:56.9	111.300	0.320	-0.230	0.470
2020/01/31 13:01:57.0	111.310	0.290	-0.130	0.450
2020/01/31 13:01:57.1	111.320	0.250	-0.030	0.430
2020/01/31 13:01:57.2	111.330	0.220	0.070	0.410
2020/01/31 13:01:57.3	111.340	0.170	0.170	0.400
2020/01/31 13:01:57.4	111.360	0.130	0.270	0.380
2020/01/31 13:01:57.5	111.370	0.090	0.360	0.360
2020/01/31 13:01:57.6	111.390	0.050	0.450	0.340
2020/01/31 13:01:57.7	111.400	0.000	0.540	0.330
2020/01/31 13:01:57.8	111.420	-0.040	0.620	0.310
2020/01/31 13:01:57.9	111.430	-0.090	0.700	0.300
2020/01/31 13:01:58.0	111.440	-0.130	0.770	0.290
2020/01/31 13:01:58.1	111.460	-0.170	0.830	0.270
2020/01/31 13:01:58.2	111.470	-0.210	0.890	0.260
2020/01/31 13:01:58.3	111.490	-0.250	0.940	0.250
2020/01/31 13:01:58.4	111.500	-0.290	0.980	0.240
2020/01/31 13:01:58.5	111.510	-0.320	1.020	0.230
2020/01/31 13:01:58.6	111.520	-0.360	1.040	0.220
2020/01/31 13:01:58.7	111.540	-0.380	1.060	0.210
2020/01/31 13:01:58.8	111.550	-0.410	1.060	0.200
2020/01/31 13:01:58.9	111.560	-0.430	1.060	0.190
2020/01/31 13:01:59.0	111.570	-0.450	1.050	0.190
2020/01/31 13:01:59.1	111.580	-0.470	1.020	0.180
2020/01/31 13:01:59.2	111.590	-0.480	0.990	0.180
2020/01/31 13:01:59.3	111.600	-0.480	0.950	0.170
2020/01/31 13:01:59.4	111.610	-0.480	0.900	0.170
2020/01/31 13:01:59.5	111.620	-0.480	0.850	0.170
2020/01/31 13:01:59.6	111.630	-0.480	0.780	0.170
2020/01/31 13:01:59.7	111.640	-0.470	0.710	0.170
2020/01/31 13:01:59.8	111.640	-0.450	0.640	0.170
2020/01/31 13:01:59.9	111.650	-0.440	0.560	0.170
2020/01/31 13:02:00.0	111.650	-0.420	0.470	0.180
2020/01/31 13:02:00.1	111.660	-0.390	0.380	0.180
2020/01/31 13:02:00.2	111.660	-0.370	0.290	0.190
2020/01/31 13:02:00.3	111.660	-0.340	0.200	0.200
2020/01/31 13:02:00.4	111.660	-0.300	0.100	0.220
2020/01/31 13:02:00.5	111.650	-0.270	0.000	0.230
2020/01/31 13:02:00.6	111.650	-0.240	-0.090	0.250
2020/01/31 13:02:00.7	111.640	-0.200	-0.190	0.270
2020/01/31 13:02:00.8	111.640	-0.160	-0.280	0.300
2020/01/31 13:02:00.9	111.630	-0.130	-0.370	0.320
2020/01/31 13:02:01.0	111.630	-0.090	-0.460	0.350
2020/01/31 13:02:01.1	111.620	-0.050	-0.540	0.380
2020/01/31 13:02:01.2	111.610	-0.010	-0.620	0.410
2020/01/31 13:02:01.3	111.600	0.020	-0.700	0.450
2020/01/31 13:02:01.4	111.590	0.060	-0.770	0.490
2020/01/31 13:02:01.5	111.590	0.090	-0.830	0.530
2020/01/31 13:02:01.6	111.580	0.120	-0.890	0.570
2020/01/31 13:02:01.7	111.570	0.150	-0.940	0.610
2020/01/31 13:02:01.8	111.570	0.180	-0.990	0.650
2020/01/31 13:02:01.9	111.560	0.210	-1.030	0.690
2020/01/31 13:02:02.0	111.550	0.230	-1.060	0.740
2020/01/31 13:02:02.1	111.540	0.250	-1.090	0.780
2020/01/31 13:02:02.2	111.540	0.270	-1.110	0.830
2020/01/31 13:02:02.3	111.530	0.290	-1.130	0.880
2020/01/31 13:02:02.4	111.530	0.300	-1.140	0.920
2020/01/31 13:02:02.5	111.520	0.310	-1.140	0.980
2020/01/31 13:02:02.6	111.520	0.320	-1.140	1.020
2020/01/31 13:02:02.7	111.520	0.330	-1.130	1.070
2020/01/31 13:02:02.8	111.530	0.330	-1.120	1.120
2020/01/31 13:02:02.9	111.530	0.340	-1.100	1.170
2020/01/31 13:02:03.0	111.530	0.340	-1.080	1.210
2020/01/31 13:02:03.1	111.540	0.340	-1.050	1.260
2020/01/31 13:02:03.2	111.550	0.330	-1.020	1.300
2020/01/31 13:02:03.3	111.550	0.330	-0.990	1.350
2020/01/31 13:02:03.4	111.560	0.320	-0.950	1.390
2020/01/31 13:02:03.5	111.570	0.320	-0.900	1.430
2020/01/31 13:02:03.6	111.580	0.310	-0.860	1.470
2020/01/31 13:02:03.7	111.590	0.300	-0.810	1.510
2020/01/31 13:02:03.8	111.600	0.290	-0.760	1.550
2020/01/31 13:02:03.9	111.610	0.280	-0.710	1.580
2020/01/31 13:02:04.0	111.620	0.270	-0.660	1.610
2020/01/31 13:02:04.1	111.620	0.260	-0.610	1.640
2020/01/31 13:02:04.2	111.630	0.250	-0.560	1.670
2020/01/31 13:02:04.3	111.640	0.230	-0.500	1.690
2020/01/31 13:02:04.4	111.650	0.220	-0.450	1.710
2020/01/31 13:02:04.5	111.650	0.210	-0.390	1.730
2020/01/31 13:02:04.6	111.650	0.200	-0.330	1.750
2020/01/31 13:02:04.7	111.660	0.190	-0.280	1.760
2020/01/31 13:02:04.8	111.660	0.180	-0.220	1.760
2020/01/31 13:02:04.9	111.670	0.160	-0.160	1.770
2020/01/31 13:02:05.0	111.670	0.150	-0.110	1.760
2020/01/31 13:02:05.1	111.680	0.140	-0.050	1.760
2020/01/31 13:02:05.2	111.680	0.130	0.000	1.750
2020/01/31 13:02:05.3	111.690	0.120	0.050	1.740
2020/01/31 13:02:05.4	111.690	0.110	0.110	1.720
2020/01/31 13:02:05.5	111.700	0.090	0.150	1.700
2020/01/31 13:02:05.6	111.700	0.080	0.200	1.680
2020/01/31 13:02:05.7	111.710	0.070	0.250	1.650
2020/01/31 13:02:05.8	111.710	0.060	0.300	1.630
2020/01/31 13:02:05.9	111.720	0.050	0.340	1.600
2020/01/31 13:02:06.0	111.720	0.040	0.380	1.560
2020/01/31 13:02:06.1	111.730	0.030	0.410	1.530
2020/01/31 13:02:06.2	111.740	0.020	0.450	1.500
2020/01/31 13:02:06.3	111.740	0.010	0.480	1.460
2020/01/31 13:02:06.4	111.750	0.000	0.500	1.420
2020/01/31 13:02:06.5	111.760	-0.010	0.530	1.390
2020/01/31 13:02:06.6	111.770	-0.020	0.540	1.350
2020/01/31 13:02:06.7	111.770	-0.020	0.560	1.310
2020/01/31 13:02:06.8	111.780	-0.030	0.560	1.280
2020/01/31 13:02:06.9	111.780	-0.040	0.570	1.240
2020/01/31 13:02:07.0	111.790	-0.050	0.560	1.210
2020/01/31 13:02:07.1	111.790	-0.050	0.560	1.170
2020/01/31 13:02:07.2	111.790	-0.060	0.540	1.140
2020/01/31 13:02:07.3	111.790	-0.060	0.520	1.110
2020/01/31 13:02:07.4	111.790	-0.060	0.500	1.080
2020/01/31 13:02:07.5	111.790	-0.060	0.470	1.050
2020/01/31 13:02:07.6	111.790	-0.060	0.440	1.030
2020/01/31 13:02:07.7	111.780	-0.060	0.400	1.000
2020/01/31 13:02:07.8	111.770	-0.060	0.360	0.980
2020/01/31 13:02:07.9	111.770	-0.060	0.310	0.960
2020/01/31 13:02:08.0	111.760	-0.050	0.260	0.940
2020/01/31 13:02:08.1	111.750	-0.050	0.210	0.930
2020/01/31 13:02:08.2	111.730	-0.040	0.150	0.910
2020/01/31 13:02:08.3	111.720	-0.030	0.090	0.900
2020/01/31 13:02:08.4	111.710	-0.030	0.030	0.880
2020/01/31 13:02:08.5	111.690	-0.020	-0.040	0.870
2020/01/31 13:02:08.6	111.680	-0.010	-0.100	0.850
2020/01/31 13:02:08.7	111.670	0.000	-0.160	0.840
2020/01/31 13:02:08.8	111.660	0.010	-0.230	0.830
2020/01/31 13:02:08.9	111.650	0.020	-0.290	0.810
2020/01/31 13:02:09.0	111.640	0.030	-0.350	0.800
2020/01/31 13:02:09.1	111.630	0.040	-0.410	0.780
2020/01/31 13:02:09.2	111.620	0.050	-0.470	0.760
2020/01/31 13:02:09.3	111.620	0.060	-0.520	0.750
2020/01/31 13:02:09.4	111.620	0.070	-0.570	0.730
2020/01/31 13:02:09.5	111.620	0.070	-0.620	0.710
2020/01/31 13:02:09.6	111.620	0.080	-0.660	0.690
2020/01/31 13:02:09.7	111.620	0.080	-0.690	0.660
2020/01/31 13:02:09.8	111.630	0.090	-0.720	0.640
2020/01/31 13:02:09.9	111.630	0.090	-0.750	0.620
2020/01/31 13:02:10.0	111.640	0.090	-0.770	0.590
2020/01/31 13:02:10.1	111.650	0.090	-0.780	0.570
2020/01/31 13:02:10.2	111.660	0.090	-0.790	0.550
2020/01/31 13:02:10.3	111.670	0.090	-0.790	0.520
2020/01/31 13:02:10.4	111.690	0.090	-0.780	0.500
2020/01/31 13:02:10.5	111.700	0.080	-0.770	0.480
2020/01/31 13:02:10.6	111.710	0.080	-0.750	0.460
2020/01/31 13:02:10.7	111.730	0.070	-0.720	0.440
2020/01/31 13:02:10.8	111.740	0.060	-0.690	0.420
2020/01/31 13:02:10.9	111.760	0.050	-0.660	0.400
2020/01/31 13:02:11.0	111.770	0.040	-0.610	0.380
2020/01/31 13:02:11.1	111.790	0.020	-0.570	0.370
2020/01/31 13:02:11.2	111.810	0.010	-0.510	0.350
2020/01/31 13:02:11.3	111.820	-0.010	-0.460	0.340
2020/01/31 13:02:11.4	111.840	-0.020	-0.400	0.330
2020/01/31 13:02:11.5	111.860	-0.040	-0.340	0.330
2020/01/31 13:02:11.6	111.880	-0.050	-0.280	0.320
2020/01/31 13:02:11.7	111.890	-0.070	-0.210	0.320
2020/01/31 13:02:11.8	111.910	-0.090	-0.150	0.320
2020/01/31 13:02:11.9	111.920	-0.110	-0.080	0.320
2020/01/31 13:02:12.0	111.940	-0.130	-0.020	0.320
2020/01/31 13:02:12.1	111.950	-0.140	0.040	0.330
2020/01/31 13:02:12.2	111.970	-0.160	0.110	0.340
2020/01/31 13:02:12.3	111.980	-0.180	0.170	0.350
2020/01/31 13:02:12.4	111.990	-0.200	0.220	0.360
2020/01/31 13:02:12.5	112.010	-0.220	0.270	0.370
2020/01/31 13:02:12.6	112.020	-0.230	0.320	0.390
2020/01/31 13:02:12.7	112.030	-0.250	0.370	0.410
2020/01/31 13:02:12.8	112.040	-0.270	0.410	0.420
2020/01/31 13:02:12.9	112.050	-0.280	0.450	0.440
2020/01/31 13:02:13.0	112.060	-0.300	0.480	0.460
2020/01/31 13:02:13.1	112.070	-0.310	0.500	0.480
2020/01/31 13:02:13.2	112.080	-0.320	0.520	0.500
2020/01/31 13:02:13.3	112.080	-0.330	0.540	0.520
2020/01/31 13:02:13.4	112.090	-0.340	0.540	0.540
2020/01/31 13:02:13.5	112.110	-0.350	0.540	0.570
2020/01/31 13:02:13.6	112.110	-0.360	0.540	0.590
2020/01/31 13:02:13.7	112.120	-0.360	0.530	0.600
2020/01/31 13:02:13.8	112.130	-0.370	0.510	0.620
2020/01/31 13:02:13.9	112.130	-0.370	0.490	0.640
2020/01/31 13:02:14.0	112.140	-0.370	0.460	0.660
2020/01/31 13:02:14.1	112.140	-0.370	0.420	0.670
2020/01/31 13:02:14.2	112.150	-0.360	0.380	0.690
2020/01/31 13:02:14.3	112.160	-0.360	0.340	0.700
2020/01/31 13:02:14.4	112.160	-0.350	0.290	0.720
2020/01/31 13:02:14.5	112.170	-0.340	0.230	0.730
2020/01/31 13:02:14.6	112.170	-0.330	0.170	0.750
2020/01/31 13:02:14.7	112.180	-0.310	0.110	0.760
2020/01/31 13:02:14.8	112.180	-0.290	0.050	0.780
2020/01/31 13:02:14.9	112.190	-0.280	-0.020	0.800
2020/01/31 13:02:15.0	112.190	-0.260	-0.080	0.820
2020/01/31 13:02:15.1	112.190	-0.230	-0.150	0.830
2020/01/31 13:02:15.2	112.200	-0.210	-0.220	0.860
2020/01/31 13:02:15.3	112.200	-0.190	-0.280	0.880
2020/01/31 13:02:15.4	112.200	-0.160	-0.350	0.900
2020/01/31 13:02:15.5	112.200	-0.140	-0.410	0.930
2020/01/31 13:02:15.6	112.200	-0.110	-0.470	0.960
2020/01/31 13:02:15.7	112.200	-0.080	-0.530	0.980
2020/01/31 13:02:15.8	112.200	-0.050	-0.580	1.020
2020/01/31 13:02:15.9	112.190	-0.030	-0.630	1.050
2020/01/31 13:02:16.0	112.190	0.000	-0.670	1.080
2020/01/31 13:02:16.1	112.190	0.030	-0.720	1.120
2020/01/31 13:02:16.2	112.180	0.060	-0.750	1.160
2020/01/31 13:02:16.3	112.180	0.080	-0.780	1.190
2020/01/31 13:02:16.4	112.180	0.110	-0.800	1.230
2020/01/31 13:02:16.5	112.170	0.130	-0.820	1.270
2020/01/31 13:02:16.6	112.170	0.150	-0.830	1.310
2020/01/31 13:02:16.7	112.160	0.170	-0.830	1.350
2020/01/31 13:02:16.8	112.160	0.190	-0.820	1.390
2020/01/31 13:02:16.9	112.160	0.210	-0.810	1.420
2020/01/31 13:02:17.0	112.150	0.220	-0.800	1.460
2020/01/31 13:02:17.1	112.150	0.240	-0.770	1.490
2020/01/31 13:02:17.2	112.150	0.250	-0.750	1.510
2020/01/31 13:02:17.3	112.150	0.260	-0.710	1.540
2020/01/31 13:02:17.4	112.150	0.270	-0.670	1.560
2020/01/31 13:02:17.5	112.150	0.270	-0.630	1.590
2020/01/31 13:02:17.6	112.150	0.270	-0.580	1.600
2020/01/31 13:02:17.7	112.160	0.280	-0.540	1.610
2020/01/31 13:02:17.8	112.160	0.280	-0.480	1.620
2020/01/31 13:02:17.9	112.160	0.270	-0.430	1.620
2020/01/31 13:02:18.0	112.160	0.270	-0.380	1.620
2020/01/31 13:02:18.1	112.160	0.270	-0.320	1.620
2020/01/31 13:02:18.2	112.170	0.260	-0.270	1.610
2020/01/31 13:02:18.3	112.170	0.250	-0.210	1.600
2020/01/31 13:02:18.4	112.170	0.240	-0.160	1.580
2020/01/31 13:02:18.5	112.170	0.240	-0.110	1.560
2020/01/31 13:02:18.6	112.180	0.230	-0.070	1.540
2020/01/31 13:02:18.7	112.180	0.220	-0.020	1.510
2020/01/31 13:02:18.8	112.180	0.210	0.020	1.480
2020/01/31 13:02:18.9	112.180	0.200	0.060	1.450
2020/01/31 13:02:19.0	112.180	0.190	0.090	1.420
2020/01/31 13:02:19.1	112.180	0.180	0.120	1.390
2020/01/31 13:02:19.2	112.180	0.170	0.140	1.350
2020/01/31 13:02:19.3	112.170	0.160	0.160	1.310
2020/01/31 13:02:19.4	112.170	0.160	0.170	1.280
2020/01/31 13:02:19.5	112.170	0.150	0.180	1.240
2020/01/31 13:02:19.6	112.160	0.140	0.190	1.210
2020/01/31 13:02:19.7	112.150	0.140	0.180	1.170
2020/01/31 13:02:19.8	112.140	0.140	0.180	1.140
2020/01/31 13:02:19.9	112.130	0.130	0.170	1.110
2020/01/31 13:02:20.0	112.120	0.130	0.160	1.080
2020/01/31 13:02:20.1	112.110	0.130	0.140	1.050
2020/01/31 13:02:20.2	112.100	0.130	0.120	1.020
2020/01/31 13:02:20.3	112.090	0.130	0.090	0.990
2020/01/31 13:02:20.4	112.080	0.130	0.070	0.960
2020/01/31 13:02:20.5	112.070	0.130	0.040	0.940
2020/01/31 13:02:20.6	112.060	0.130	0.010	0.910
2020/01/31 13:02:20.7	112.050	0.140	-0.020	0.890
2020/01/31 13:02:20.8	112.040	0.140	-0.050	0.860
2020/01/31 13:02:20.9	112.030	0.150	-0.090	0.840
2020/01/31 13:02:21.0	112.020	0.150	-0.120	0.820
2020/01/31 13:02:21.1	112.020	0.160	-0.160	0.800
2020/01/31 13:02:21.2	112.010	0.170	-0.190	0.770
2020/01/31 13:02:21.3	112.000	0.170	-0.220	0.750
2020/01/31 13:02:21.4	112.000	0.180	-0.250	0.730
2020/01/31 13:02:21.5	112.000	0.190	-0.290	0.710
2020/01/31 13:02:21.6	111.990	0.190	-0.320	0.690
2020/01/31 13:02:21.7	111.990	0.200	-0.340	0.670
2020/01/31 13:02:21.8	111.990	0.200	-0.370	0.640
2020/01/31 13:02:21.9	111.990	0.210	-0.390	0.620
2020/01/31 13:02:22.0	112.000	0.210	-0.410	0.600
2020/01/31 13:02:22.1	112.000	0.220	-0.420	0.580
2020/01/31 13:02:22.2	112.010	0.220	-0.440	0.560
2020/01/31 13:02:22.3	112.010	0.220	-0.450	0.530
2020/01/31 13:02:22.4	112.020	0.230	-0.450	0.510
2020/01/31 13:02:22.5	112.030	0.230	-0.460	0.480
2020/01/31 13:02:22.6	112.040	0.230	-0.460	0.460
2020/01/31 13:02:22.7	112.050	0.220	-0.460	0.440
2020/01/31 13:02:22.8	112.060	0.220	-0.460	0.410
2020/01/31 13:02:22.9	112.070	0.220	-0.450	0.390
2020/01/31 13:02:23.0	112.080	0.210	-0.450	0.370
2020/01/31 13:02:23.1	112.090	0.200	-0.440	0.350
2020/01/31 13:02:23.2	112.100	0.200	-0.430	0.330
2020/01/31 13:02:23.3	112.110	0.190	-0.410	0.310
2020/01/31 13:02:23.4	112.120	0.180	-0.400	0.290
2020/01/31 13:02:23.5	112.130	0.160	-0.380	0.280
2020/01/31 13:02:23.6	112.140	0.150	-0.370	0.260
2020/01/31 13:02:23.7	112.140	0.130	-0.350	0.250
2020/01/31 13:02:23.8	112.150	0.120	-0.330	0.240
2020/01/31 13:02:23.9	112.150	0.100	-0.310	0.230
2020/01/31 13:02:24.0	112.150	0.080	-0.280	0.230
2020/01/31 13:02:24.1	112.150	0.060	-0.260	0.230
2020/01/31 13:02:24.2	112.150	0.040	-0.240	0.230
2020/01/31 13:02:24.3	112.150	0.020	-0.210	0.230
2020/01/31 13:02:24.4	112.150	-0.000	-0.190	0.240
2020/01/31 13:02:24.5	112.140	-0.030	-0.170	0.250
2020/01/31 13:02:24.6	112.130	-0.050	-0.140	0.260
2020/01/31 13:02:24.7	112.130	-0.070	-0.120	0.280
2020/01/31 13:02:24.8	112.120	-0.100	-0.090	0.300
2020/01/31 13:02:24.9	112.110	-0.120	-0.060	0.320
2020/01/31 13:02:25.0	112.100	-0.150	-0.040	0.340
2020/01/31 13:02:25.1	112.090	-0.180	-0.010	0.360
2020/01/31 13:02:25.2	112.080	-0.200	0.020	0.390
2020/01/31 13:02:25.3	112.080	-0.230	0.050	0.410
2020/01/31 13:02:25.4	112.070	-0.250	0.070	0.440
2020/01/31 13:02:25.5	112.060	-0.270	0.100	0.470
2020/01/31 13:02:25.6	112.060	-0.300	0.130	0.500
2020/01/31 13:02:25.7	112.050	-0.320	0.150	0.530
2020/01/31 13:02:25.8	112.040	-0.340	0.180	0.560
2020/01/31 13:02:25.9	112.040	-0.360	0.200	0.580
2020/01/31 13:02:26.0	112.030	-0.370	0.230	0.610
2020/01/31 13:02:26.1	112.030	-0.390	0.250	0.640
2020/01/31 13:02:26.2	112.030	-0.410	0.270	0.670
2020/01/31 13:02:26.3	112.020	-0.420	0.290	0.690
2020/01/31 13:02:26.4	112.020	-0.430	0.310	0.720
2020/01/31 13:02:26.5	112.020	-0.440	0.320	0.740
2020/01/31 13:02:26.6	112.020	-0.440	0.330	0.760
2020/01/31 13:02:26.7	112.020	-0.450	0.340	0.780
2020/01/31 13:02:26.8	112.020	-0.450	0.350	0.800
2020/01/31 13:02:26.9	112.020	-0.450	0.350	0.820
2020/01/31 13:02:27.0	112.020	-0.450	0.350	0.840
2020/01/31 13:02:27.1	112.030	-0.440	0.350	0.860
2020/01/31 13:02:27.2	112.030	-0.430	0.340	0.870
2020/01/31 13:02:27.3	112.040	-0.430	0.340	0.880
2020/01/31 13:02:27.4	112.040	-0.410	0.320	0.900
2020/01/31 13:02:27.5	112.050	-0.400	0.310	0.910
2020/01/31 13:02:27.6	112.060	-0.380	0.290	0.920
2020/01/31 13:02:27.7	112.060	-0.370	0.260	0.930
2020/01/31 13:02:27.8	112.070	-0.350	0.240	0.940
2020/01/31 13:02:27.9	112.070	-0.330	0.210	0.950
2020/01/31 13:02:28.0	112.080	-0.300	0.180	0.960
2020/01/31 13:02:28.1	112.090	-0.280	0.150	0.960
2020/01/31 13:02:28.2	112.090	-0.250	0.110	0.970
2020/01/31 13:02:28.3	112.100	-0.230	0.070	0.980
2020/01/31 13:02:28.4	112.100	-0.200	0.030	0.990
2020/01/31 13:02:28.5	112.100	-0.170	-0.010	1.000
2020/01/31 13:02:28.6	112.100	-0.140	-0.050	1.010
2020/01/31 13:02:28.7	112.110	-0.110	-0.090	1.010
2020/01/31 13:02:28.8	112.110	-0.080	-0.130	1.020
2020/01/31 13:02:28.9	112.110	-0.050	-0.180	1.030
2020/01/31 13:02:29.0	112.110	-0.030	-0.220	1.040
2020/01/31 13:02:29.1	112.110	0.000	-0.260	1.050
2020/01/31 13:02:29.2	112.110	0.030	-0.300	1.060
2020/01/31 13:02:29.3	112.110	0.050	-0.340	1.070
2020/01/31 13:02:29.4	112.110	0.080	-0.380	1.080
2020/01/31 13:02:29.5	112.110	0.100	-0.410	1.090
2020/01/31 13:02:29.6	112.110	0.120	-0.450	1.100
2020/01/31 13:02:29.7	112.110	0.140	-0.470	1.100
2020/01/31 13:02:29.8	112.110	0.160	-0.500	1.110
2020/01/31 13:02:29.9	112.100	0.180	-0.520	1.120
2020/01/31 13:02:30.0	112.100	0.190	-0.540	1.130
2020/01/31 13:02:30.1	112.100	0.210	-0.560	1.140
2020/01/31 13:02:30.2	112.100	0.220	-0.570	1.150
2020/01/31 13:02:30.3	112.100	0.230	-0.580	1.160
2020/01/31 13:02:30.4	112.090	0.230	-0.590	1.170
2020/01/31 13:02:30.5	112.090	0.240	-0.590	1.180
2020/01/31 13:02:30.6	112.090	0.240	-0.590	1.180
2020/01/31 13:02:30.7	112.080	0.240	-0.590	1.190
2020/01/31 13:02:30.8	112.080	0.240	-0.590	1.200
2020/01/31 13:02:30.9	112.080	0.240	-0.580	1.200
2020/01/31 13:02:31.0	112.080	0.240	-0.570	1.210
2020/01/31 13:02:31.1	112.080	0.230	-0.560	1.220
2020/01/31 13:02:31.2	112.070	0.230	-0.540	1.220
2020/01/31 13:02:31.3	112.070	0.220	-0.530	1.220
2020/01/31 13:02:31.4	112.070	0.210	-0.510	1.230
2020/01/31 13:02:31.5	112.070	0.200	-0.490	1.230
2020/01/31 13:02:31.6	112.060	0.190	-0.470	1.230
2020/01/31 13:02:31.7	112.060	0.180	-0.450	1.230
2020/01/31 13:02:31.8	112.060	0.170	-0.430	1.230
2020/01/31 13:02:31.9	112.050	0.160	-0.410	1.230
2020/01/31 13:02:32.0	112.050	0.150	-0.380	1.230
2020/01/31 13:02:32.1	112.050	0.140	-0.360	1.230
2020/01/31 13:02:32.2	112.040	0.130	-0.340	1.220
2020/01/31 13:02:32.3	112.040	0.120	-0.320	1.220
2020/01/31 13:02:32.4	112.030	0.110	-0.300	1.210
2020/01/31 13:02:32.5	112.030	0.110	-0.270	1.210
2020/01/31 13:02:32.6	112.020	0.100	-0.260	1.200
2020/01/31 13:02:32.7	112.010	0.090	-0.240	1.190
2020/01/31 13:02:32.8	112.010	0.090	-0.220	1.180
2020/01/31 13:02:32.9	112.000	0.080	-0.200	1.170
2020/01/31 13:02:33.0	111.990	0.080	-0.180	1.160
2020/01/31 13:02:33.1	111.980	0.070	-0.170	1.150
2020/01/31 13:02:33.2	111.970	0.070	-0.150	1.140
2020/01/31 13:02:33.3	111.950	0.070	-0.140	1.130
2020/01/31 13:02:33.4	111.940	0.070	-0.120	1.120
2020/01/31 13:02:33.5	111.930	0.070	-0.110	1.110
2020/01/31 13:02:33.6	111.920	0.070	-0.100	1.100
2020/01/31 13:02:33.7	111.900	0.070	-0.090	1.090
2020/01/31 13:02:33.8	111.890	0.080	-0.080	1.070
2020/01/31 13:02:33.9	111.870	0.080	-0.070	1.060
2020/01/31 13:02:34.0	111.860	0.080	-0.060	1.050
2020/01/31 13:02:34.1	111.850	0.080	-0.050	1.030
2020/01/31 13:02:34.2	111.830	0.090	-0.040	1.020
2020/01/31 13:02:34.3	111.820	0.090	-0.040	1.000
2020/01/31 13:02:34.4	111.800	0.090	-0.030	0.990
2020/01/31 13:02:34.5	111.790	0.100	-0.020	0.970
2020/01/31 13:02:34.6	111.770	0.100	-0.020	0.950
2020/01/31 13:02:34.7	111.760	0.100	-0.010	0.930
2020/01/31 13:02:34.8	111.750	0.100	-0.010	0.920
2020/01/31 13:02:34.9	111.740	0.100	-0.000	0.900
2020/01/31 13:02:35.0	111.730	0.100	0.000	0.880
2020/01/31 13:02:35.1	111.720	0.100	0.010	0.860
2020/01/31 13:02:35.2	111.710	0.100	0.010	0.830
2020/01/31 13:02:35.3	111.700	0.090	0.010	0.810
2020/01/31 13:02:35.4	111.690	0.090	0.010	0.790
2020/01/31 13:02:35.5	111.680	0.080	0.010	0.770
2020/01/31 13:02:35.6	111.670	0.080	0.010	0.750
2020/01/31 13:02:35.7	111.670	0.070	0.010	0.720
2020/01/31 13:02:35.8	111.660	0.060	0.000	0.700
2020/01/31 13:02:35.9	111.660	0.050	-0.000	0.670
2020/01/31 13:02:36.0	111.660	0.040	-0.010	0.650
2020/01/31 13:02:36.1	111.660	0.030	-0.010	0.630
2020/01/31 13:02:36.2	111.660	0.010	-0.020	0.610
2020/01/31 13:02:36.3	111.660	0.000	-0.030	0.580
2020/01/31 13:02:36.4	111.660	-0.010	-0.040	0.560
2020/01/31 13:02:36.5	111.660	-0.030	-0.060	0.540
2020/01/31 13:02:36.6	111.660	-0.040	-0.070	0.520
2020/01/31 13:02:36.7	111.660	-0.060	-0.080	0.500
2020/01/31 13:02:36.8	111.670	-0.070	-0.100	0.490
2020/01/31 13:02:36.9	111.670	-0.090	-0.110	0.470
2020/01/31 13:02:37.0	111.680	-0.100	-0.130	0.450
2020/01/31 13:02:37.1	111.680	-0.120	-0.150	0.440
2020/01/31 13:02:37.2	111.690	-0.130	-0.160	0.430
2020/01/31 13:02:37.3	111.690	-0.140	-0.180	0.420
2020/01/31 13:02:37.4	111.700	-0.150	-0.200	0.410
2020/01/31 13:02:37.5	111.710	-0.170	-0.220	0.400
2020/01/31 13:02:37.6	111.710	-0.180	-0.240	0.400
2020/01/31 13:02:37.7	111.720	-0.190	-0.250	0.390
2020/01/31 13:02:37.8	111.720	-0.190	-0.270	0.390
2020/01/31 13:02:37.9	111.730	-0.200	-0.290	0.390
2020/01/31 13:02:38.0	111.730	-0.210	-0.300	0.390
2020/01/31 13:02:38.1	111.740	-0.210	-0.310	0.390
2020/01/31 13:02:38.2	111.740	-0.210	-0.320	0.390
2020/01/31 13:02:38.3	111.750	-0.220	-0.330	0.400
2020/01/31 13:02:38.4	111.750	-0.220	-0.340	0.410
2020/01/31 13:02:38.5	111.750	-0.220	-0.350	0.420
2020/01/31 13:02:38.6	111.750	-0.210	-0.350	0.430
2020/01/31 13:02:38.7	111.750	-0.210	-0.350	0.440
2020/01/31 13:02:38.8	111.750	-0.210	-0.350	0.460
2020/01/31 13:02:38.9	111.750	-0.200	-0.350	0.470
2020/01/31 13:02:39.0	111.750	-0.190	-0.350	0.490
2020/01/31 13:02:39.1	111.750	-0.190	-0.340	0.500
2020/01/31 13:02:39.2	111.740	-0.180	-0.340	0.520
2020/01/31 13:02:39.3	111.740	-0.170	-0.330	0.540
2020/01/31 13:02:39.4	111.730	-0.160	-0.320	0.560
2020/01/31 13:02:39.5	111.730	-0.150	-0.310	0.580
2020/01/31 13:02:39.6	111.720	-0.140	-0.290	0.600
2020/01/31 13:02:39.7	111.720	-0.130	-0.280	0.620
2020/01/31 13:02:39.8	111.710	-0.120	-0.260	0.640
2020/01/31 13:02:39.9	111.710	-0.110	-0.250	0.660
2020/01/31 13:02:40.0	111.700	-0.100	-0.230	0.680
2020/01/31 13:02:40.1	111.690	-0.080	-0.210	0.700
2020/01/31 13:02:40.2	111.690	-0.070	-0.190	0.720
2020/01/31 13:02:40.3	111.680	-0.060	-0.170	0.740
2020/01/31 13:02:40.4	111.680	-0.050	-0.150	0.760
2020/01/31 13:02:40.5	111.670	-0.040	-0.130	0.780
2020/01/31 13:02:40.6	111.660	-0.030	-0.110	0.790
2020/01/31 13:02:40.7	111.660	-0.020	-0.090	0.810
2020/01/31 13:02:40.8	111.660	-0.010	-0.070	0.820
2020/01/31 13:02:40.9	111.660	0.000	-0.050	0.840
2020/01/31 13:02:41.0	111.650	0.010	-0.040	0.850
2020/01/31 13:02:41.1	111.650	0.020	-0.020	0.870
2020/01/31 13:02:41.2	111.660	0.030	-0.010	0.880
2020/01/31 13:02:41.3	111.660	0.040	0.000	0.890
2020/01/31 13:02:41.4	111.660	0.050	0.010	0.900
2020/01/31 13:02:41.5	111.670	0.070	0.020	0.910
2020/01/31 13:02:41.6	111.670	0.080	0.020	0.920
2020/01/31 13:02:41.7	111.670	0.090	0.030	0.930
2020/01/31 13:02:41.8	111.680	0.100	0.030	0.930
2020/01/31 13:02:41.9	111.680	0.110	0.030	0.940
2020/01/31 13:02:42.0	111.690	0.120	0.020	0.950
2020/01/31 13:02:42.1	111.700	0.130	0.020	0.960
2020/01/31 13:02:42.2	111.700	0.140	0.010	0.960
2020/01/31 13:02:42.3	111.710	0.150	0.000	0.970
2020/01/31 13:02:42.4	111.710	0.160	-0.010	0.980
2020/01/31 13:02:42.5	111.730	0.180	-0.020	0.990
2020/01/31 13:02:42.6	111.730	0.190	-0.030	1.000
2020/01/31 13:02:42.7	111.740	0.200	-0.050	1.010
2020/01/31 13:02:42.8	111.740	0.210	-0.070	1.020
2020/01/31 13:02:42.9	111.740	0.220	-0.080	1.030
2020/01/31 13:02:43.0	111.750	0.230	-0.100	1.040
2020/01/31 13:02:43.1	111.750	0.230	-0.110	1.050
2020/01/31 13:02:43.2	111.750	0.240	-0.130	1.070
2020/01/31 13:02:43.3	111.750	0.250	-0.140	1.080
2020/01/31 13:02:43.4	111.750	0.250	-0.150	1.090
2020/01/31 13:02:43.5	111.750	0.260	-0.170	1.100
2020/01/31 13:02:43.6	111.750	0.260	-0.180	1.110
2020/01/31 13:02:43.7	111.750	0.260	-0.190	1.110
2020/01/31 13:02:43.8	111.750	0.260	-0.190	1.120
2020/01/31 13:02:43.9	111.740	0.250	-0.190	1.130
2020/01/31 13:02:44.0	111.740	0.250	-0.190	1.130
2020/01/31 13:02:44.1	111.730	0.240	-0.190	1.140
2020/01/31 13:02:44.2	111.730	0.230	-0.180	1.140
2020/01/31 13:02:44.3	111.720	0.220	-0.170	1.150
2020/01/31 13:02:44.4	111.720	0.210	-0.160	1.150
2020/01/31 13:02:44.5	111.710	0.200	-0.140	1.150
2020/01/31 13:02:44.6	111.700	0.180	-0.130	1.150
2020/01/31 13:02:44.7	111.690	0.170	-0.110	1.140
2020/01/31 13:02:44.8	111.690	0.150	-0.090	1.140
2020/01/31 13:02:44.9	111.680	0.130	-0.070	1.130
2020/01/31 13:02:45.0	111.670	0.110	-0.050	1.130
2020/01/31 13:02:45.1	111.660	0.080	-0.030	1.120
2020/01/31 13:02:45.2	111.650	0.060	-0.010	1.110
2020/01/31 13:02:45.3	111.640	0.040	0.020	1.100
2020/01/31 13:02:45.4	111.630	0.010	0.040	1.090
2020/01/31 13:02:45.5	111.620	-0.010	0.050	1.080
2020/01/31 13:02:45.6	111.620	-0.030	0.070	1.060
2020/01/31 13:02:45.7	111.610	-0.060	0.090	1.050
2020/01/31 13:02:45.8	111.610	-0.080	0.100	1.040
2020/01/31 13:02:45.9	111.600	-0.100	0.110	1.020
2020/01/31 13:02:46.0	111.600	-0.130	0.130	1.010
2020/01/31 13:02:46.1	111.600	-0.150	0.130	0.990
2020/01/31 13:02:46.2	111.600	-0.170	0.140	0.970
2020/01/31 13:02:46.3	111.600	-0.190	0.140	0.960
2020/01/31 13:02:46.4	111.600	-0.210	0.140	0.940
2020/01/31 13:02:46.5	111.600	-0.220	0.140	0.920
2020/01/31 13:02:46.6	111.610	-0.240	0.140	0.900
2020/01/31 13:02:46.7	111.620	-0.250	0.130	0.890
2020/01/31 13:02:46.8	111.620	-0.260	0.120	0.870
2020/01/31 13:02:46.9	111.630	-0.270	0.110	0.850
2020/01/31 13:02:47.0	111.640	-0.280	0.090	0.840
2020/01/31 13:02:47.1	111.650	-0.290	0.070	0.820
2020/01/31 13:02:47.2	111.660	-0.300	0.050	0.810
2020/01/31 13:02:47.3	111.680	-0.300	0.030	0.800
2020/01/31 13:02:47.4	111.690	-0.300	0.010	0.790
2020/01/31 13:02:47.5	111.690	-0.300	-0.020	0.780
2020/01/31 13:02:47.6	111.700	-0.300	-0.050	0.770
2020/01/31 13:02:47.7	111.720	-0.300	-0.080	0.770
2020/01/31 13:02:47.8	111.730	-0.300	-0.110	0.770
2020/01/31 13:02:47.9	111.740	-0.290	-0.140	0.780
2020/01/31 13:02:48.0	111.750	-0.280	-0.180	0.780
2020/01/31 13:02:48.1	111.760	-0.280	-0.210	0.790
2020/01/31 13:02:48.2	111.770	-0.270	-0.250	0.800
2020/01/31 13:02:48.3	111.780	-0.260	-0.290	0.820
2020/01/31 13:02:48.4	111.780	-0.250	-0.320	0.840
2020/01/31 13:02:48.5	111.790	-0.240	-0.360	0.860
2020/01/31 13:02:48.6	111.790	-0.220	-0.400	0.880
2020/01/31 13:02:48.7	111.800	-0.210	-0.440	0.900
2020/01/31 13:02:48.8	111.790	-0.200	-0.480	0.920
2020/01/31 13:02:48.9	111.790	-0.180	-0.510	0.950
2020/01/31 13:02:49.0	111.780	-0.170	-0.550	0.980
2020/01/31 13:02:49.1	111.780	-0.160	-0.580	1.000
2020/01/31 13:02:49.2	111.770	-0.140	-0.610	1.030
2020/01/31 13:02:49.3	111.760	-0.130	-0.640	1.060
2020/01/31 13:02:49.4	111.740	-0.110	-0.670	1.090
2020/01/31 13:02:49.5	111.740	-0.100	-0.690	1.110
2020/01/31 13:02:49.6	111.720	-0.080	-0.710	1.140
2020/01/31 13:02:49.7	111.700	-0.070	-0.730	1.160
2020/01/31 13:02:49.8	111.680	-0.060	-0.740	1.190
2020/01/31 13:02:49.9	111.660	-0.050	-0.760	1.210
2020/01/31 13:02:50.0	111.640	-0.040	-0.760	1.230
2020/01/31 13:02:50.1	111.620	-0.020	-0.770	1.240
2020/01/31 13:02:50.2	111.590	-0.010	-0.770	1.260
2020/01/31 13:02:50.3	111.570	-0.000	-0.760	1.270
2020/01/31 13:02:50.4	111.550	0.000	-0.750	1.280
2020/01/31 13:02:50.5	111.520	0.010	-0.750	1.290
2020/01/31 13:02:50.6	111.500	0.020	-0.730	1.300
2020/01/31 13:02:50.7	111.480	0.030	-0.710	1.300
2020/01/31 13:02:50.8	111.460	0.030	-0.690	1.300
2020/01/31 13:02:50.9	111.440	0.040	-0.660	1.300
2020/01/31 13:02:51.0	111.420	0.040	-0.630	1.290
2020/01/31 13:02:51.1	111.410	0.040	-0.600	1.290
2020/01/31 13:02:51.2	111.390	0.050	-0.570	1.280
2020/01/31 13:02:51.3	111.380	0.050	-0.530	1.270
2020/01/31 13:02:51.4	111.370	0.050	-0.490	1.260
2020/01/31 13:02:51.5	111.360	0.050	-0.440	1.250
2020/01/31 13:02:51.6	111.350	0.050	-0.400	1.240
2020/01/31 13:02:51.7	111.350	0.050	-0.350	1.220
2020/01/31 13:02:51.8	111.340	0.050	-0.310	1.210
2020/01/31 13:02:51.9	111.340	0.050	-0.260	1.190
2020/01/31 13:02:52.0	111.330	0.050	-0.220	1.180
2020/01/31 13:02:52.1	111.330	0.040	-0.170	1.170
2020/01/31 13:02:52.2	111.330	0.040	-0.130	1.150
2020/01/31 13:02:52.3	111.330	0.040	-0.080	1.140
2020/01/31 13:02:52.4	111.330	0.040	-0.040	1.120
2020/01/31 13:02:52.5	111.330	0.030	0.000	1.110
2020/01/31 13:02:52.6	111.340	0.030	0.040	1.090
2020/01/31 13:02:52.7	111.350	0.030	0.080	1.080
2020/01/31 13:02:52.8	111.350	0.020	0.120	1.060
2020/01/31 13:02:52.9	111.360	0.020	0.150	1.050
2020/01/31 13:02:53.0	111.380	0.020	0.190	1.040
2020/01/31 13:02:53.1	111.390	0.020	0.220	1.020
2020/01/31 13:02:53.2	111.400	0.010	0.240	1.010
2020/01/31 13:02:53.3	111.420	0.010	0.270	0.990
2020/01/31 13:02:53.4	111.440	0.010	0.290	0.970
2020/01/31 13:02:53.5	111.460	0.010	0.310	0.960
2020/01/31 13:02:53.6	111.480	0.010	0.330	0.940
2020/01/31 13:02:53.7	111.490	0.010	0.340	0.920
2020/01/31 13:02:53.8	111.510	0.010	0.350	0.900
2020/01/31 13:02:53.9	111.530	0.010	0.360	0.880
2020/01/31 13:02:54.0	111.550	0.010	0.360	0.860
2020/01/31 13:02:54.1	111.570	0.010	0.360	0.840
2020/01/31 13:02:54.2	111.590	0.010	0.360	0.820
2020/01/31 13:02:54.3	111.610	0.020	0.350	0.790
2020/01/31 13:02:54.4	111.630	0.020	0.350	0.770
2020/01/31 13:02:54.5	111.650	0.030	0.330	0.740
2020/01/31 13:02:54.6	111.670	0.030	0.320	0.710
2020/01/31 13:02:54.7	111.680	0.040	0.300	0.680
2020/01/31 13:02:54.8	111.690	0.050	0.280	0.650
2020/01/31 13:02:54.9	111.710	0.060	0.250	0.620
2020/01/31 13:02:55.0	111.720	0.070	0.220	0.590
2020/01/31 13:02:55.1	111.730	0.080	0.190	0.560
2020/01/31 13:02:55.2	111.730	0.090	0.160	0.530
2020/01/31 13:02:55.3	111.740	0.100	0.130	0.500
2020/01/31 13:02:55.4	111.740	0.110	0.090	0.470
2020/01/31 13:02:55.5	111.750	0.120	0.050	0.430
2020/01/31 13:02:55.6	111.750	0.130	0.010	0.400
2020/01/31 13:02:55.7	111.750	0.140	-0.020	0.360
2020/01/31 13:02:55.8	111.750	0.160	-0.060	0.330
2020/01/31 13:02:55.9	111.740	0.170	-0.100	0.300
2020/01/31 13:02:56.0	111.740	0.180	-0.140	0.260
2020/01/31 13:02:56.1	111.730	0.190	-0.170	0.230
2020/01/31 13:02:56.2	111.720	0.200	-0.200	0.200
2020/01/31 13:02:56.3	111.720	0.210	-0.240	0.170
2020/01/31 13:02:56.4	111.710	0.210	-0.270	0.140
2020/01/31 13:02:56.5	111.700	0.220	-0.290	0.120
2020/01/31 13:02:56.6	111.690	0.220	-0.320	0.090
2020/01/31 13:02:56.7	111.680	0.230	-0.340	0.070
2020/01/31 13:02:56.8	111.670	0.230	-0.350	0.060
2020/01/31 13:02:56.9	111.660	0.230	-0.370	0.050
2020/01/31 13:02:57.0	111.640	0.230	-0.380	0.040
2020/01/31 13:02:57.1	111.630	0.230	-0.380	0.040
2020/01/31 13:02:57.2	111.610	0.220	-0.390	0.040
2020/01/31 13:02:57.3	111.600	0.220	-0.380	0.040
2020/01/31 13:02:57.4	111.590	0.210	-0.380	0.050
2020/01/31 13:02:57.5	111.570	0.200	-0.370	0.070
2020/01/31 13:02:57.6	111.560	0.200	-0.360	0.090
2020/01/31 13:02:57.7	111.540	0.180	-0.340	0.110
2020/01/31 13:02:57.8	111.530	0.170	-0.320	0.140
2020/01/31 13:02:57.9	111.520	0.160	-0.300	0.170
2020/01/31 13:02:58.0	111.510	0.140	-0.280	0.200
2020/01/31 13:02:58.1	111.490	0.130	-0.250	0.240
2020/01/31 13:02:58.2	111.480	0.110	-0.230	0.280
2020/01/31 13:02:58.3	111.470	0.090	-0.200	0.330
2020/01/31 13:02:58.4	111.470	0.070	-0.170	0.370
2020/01/31 13:02:58.5	111.450	0.050	-0.140	0.430
2020/01/31 13:02:58.6	111.450	0.030	-0.110	0.480
2020/01/31 13:02:58.7	111.450	0.020	-0.080	0.530
2020/01/31 13:02:58.8	111.440	-0.000	-0.060	0.580
2020/01/31 13:02:58.9	111.440	-0.020	-0.030	0.630
2020/01/31 13:02:59.0	111.440	-0.040	-0.010	0.680
2020/01/31 13:02:59.1	111.440	-0.060	0.010	0.730
2020/01/31 13:02:59.2	111.450	-0.080	0.030	0.780
2020/01/31 13:02:59.3	111.450	-0.100	0.050	0.830
2020/01/31 13:02:59.4	111.460	-0.120	0.060	0.880
2020/01/31 13:02:59.5	111.470	-0.130	0.070	0.920
2020/01/31 13:02:59.6	111.480	-0.150	0.080	0.960
2020/01/31 13:02:59.7	111.490	-0.160	0.080	1.000
2020/01/31 13:02:59.8	111.500	-0.170	0.080	1.040
2020/01/31 13:02:59.9	111.510	-0.190	0.070	1.070
2020/01/31 13:03:00.0	111.520	-0.200	0.070	1.110
2020/01/31 13:03:00.1	111.540	-0.200	0.050	1.140
2020/01/31 13:03:00.2	111.550	-0.210	0.040	1.160
2020/01/31 13:03:00.3	111.570	-0.220	0.020	1.190
2020/01/31 13:03:00.4	111.580	-0.220	-0.010	1.210
2020/01/31 13:03:00.5	111.600	-0.220	-0.040	1.230
2020/01/31 13:03:00.6	111.610	-0.220	-0.070	1.250
2020/01/31 13:03:00.7	111.620	-0.220	-0.100	1.270
2020/01/31 13:03:00.8	111.640	-0.220	-0.130	1.290
2020/01/31 13:03:00.9	111.650	-0.220	-0.160	1.300
2020/01/31 13:03:01.0	111.660	-0.220	-0.190	1.320
2020/01/31 13:03:01.1	111.670	-0.210	-0.230	1.330
2020/01/31 13:03:01.2	111.680	-0.200	-0.260	1.350
2020/01/31 13:03:01.3	111.690	-0.200	-0.300	1.370
2020/01/31 13:03:01.4	111.690	-0.190	-0.330	1.380
2020/01/31 13:03:01.5	111.700	-0.180	-0.360	1.400
2020/01/31 13:03:01.6	111.700	-0.170	-0.390	1.420
2020/01/31 13:03:01.7	111.710	-0.160	-0.420	1.430
2020/01/31 13:03:01.8	111.710	-0.150	-0.450	1.450
2020/01/31 13:03:01.9	111.710	-0.140	-0.480	1.470
2020/01/31 13:03:02.0	111.720	-0.120	-0.500	1.490
2020/01/31 13:03:02.1	111.720	-0.110	-0.520	1.510
2020/01/31 13:03:02.2	111.720	-0.100	-0.540	1.530
2020/01/31 13:03:02.3	111.720	-0.090	-0.550	1.550
2020/01/31 13:03:02.4	111.720	-0.080	-0.560	1.570
2020/01/31 13:03:02.5	111.720	-0.070	-0.570	1.590
2020/01/31 13:03:02.6	111.720	-0.060	-0.570	1.620
2020/01/31 13:03:02.7	111.720	-0.050	-0.580	1.640
2020/01/31 13:03:02.8	111.730	-0.040	-0.580	1.660
2020/01/31 13:03:02.9	111.730	-0.030	-0.570	1.680
2020/01/31 13:03:03.0	111.730	-0.020	-0.560	1.700
2020/01/31 13:03:03.1	111.730	-0.010	-0.550	1.710
2020/01/31 13:03:03.2	111.730	-0.010	-0.540	1.730
2020/01/31 13:03:03.3	111.730	0.000	-0.520	1.750
2020/01/31 13:03:03.4	111.730	0.010	-0.510	1.760
2020/01/31 13:03:03.5	111.720	0.010	-0.490	1.780
2020/01/31 13:03:03.6	111.720	0.010	-0.460	1.790
2020/01/31 13:03:03.7	111.720	0.020	-0.440	1.800
2020/01/31 13:03:03.8	111.720	0.020	-0.410	1.810
2020/01/31 13:03:03.9	111.710	0.020	-0.380	1.820
2020/01/31 13:03:04.0	111.710	0.020	-0.350	1.830
2020/01/31 13:03:04.1	111.700	0.030	-0.310	1.830
2020/01/31 13:03:04.2	111.690	0.030	-0.280	1.840
2020/01/31 13:03:04.3	111.680	0.030	-0.250	1.840
2020/01/31 13:03:04.4	111.670	0.030	-0.210	1.840
2020/01/31 13:03:04.5	111.680	0.030	-0.180	1.840
2020/01/31 13:03:04.6	111.660	0.030	-0.140	1.840
2020/01/31 13:03:04.7	111.650	0.030	-0.110	1.830
2020/01/31 13:03:04.8	111.640	0.020	-0.080	1.820
2020/01/31 13:03:04.9	111.620	0.020	-0.050	1.810
2020/01/31 13:03:05.0	111.610	0.020	-0.030	1.800
2020/01/31 13:03:05.1	111.590	0.020	-0.000	1.790
2020/01/31 13:03:05.2	111.580	0.020	0.020	1.770
2020/01/31 13:03:05.3	111.560	0.020	0.040	1.760
2020/01/31 13:03:05.4	111.550	0.020	0.050	1.740
2020/01/31 13:03:05.5	111.540	0.020	0.060	1.710
2020/01/31 13:03:05.6	111.520	0.020	0.070	1.690
2020/01/31 13:03:05.7	111.500	0.030	0.070	1.660
2020/01/31 13:03:05.8	111.490	0.030	0.080	1.630
2020/01/31 13:03:05.9	111.470	0.030	0.070	1.600
2020/01/31 13:03:06.0	111.460	0.030	0.070	1.570
2020/01/31 13:03:06.1	111.440	0.030	0.060	1.530
2020/01/31 13:03:06.2	111.430	0.040	0.050	1.490
2020/01/31 13:03:06.3	111.410	0.040	0.030	1.450
2020/01/31 13:03:06.4	111.400	0.040	0.020	1.410
2020/01/31 13:03:06.5	111.390	0.040	-0.000	1.370
2020/01/31 13:03:06.6	111.380	0.040	-0.020	1.320
2020/01/31 13:03:06.7	111.370	0.040	-0.040	1.280
2020/01/31 13:03:06.8	111.360	0.040	-0.060	1.230
2020/01/31 13:03:06.9	111.350	0.040	-0.080	1.190
2020/01/31 13:03:07.0	111.340	0.040	-0.100	1.140
2020/01/31 13:03:07.1	111.330	0.040	-0.120	1.090
2020/01/31 13:03:07.2	111.320	0.030	-0.130	1.040
2020/01/31 13:03:07.3	111.320	0.030	-0.150	0.990
2020/01/31 13:03:07.4	111.310	0.020	-0.160	0.940
2020/01/31 13:03:07.5	111.310	0.020	-0.170	0.890
2020/01/31 13:03:07.6	111.300	0.010	-0.170	0.840
2020/01/31 13:03:07.7	111.300	-0.010	-0.170	0.790
2020/01/31 13:03:07.8	111.300	-0.020	-0.170	0.740
2020/01/31 13:03:07.9	111.300	-0.030	-0.160	0.690
2020/01/31 13:03:08.0	111.300	-0.050	-0.150	0.640
2020/01/31 13:03:08.1	111.300	-0.070	-0.140	0.590
2020/01/31 13:03:08.2	111.310	-0.080	-0.120	0.540
2020/01/31 13:03:08.3	111.310	-0.100	-0.100	0.490
2020/01/31 13:03:08.4	111.320	-0.130	-0.070	0.450
2020/01/31 13:03:08.5	111.330	-0.150	-0.040	0.400
2020/01/31 13:03:08.6	111.340	-0.170	-0.010	0.350
2020/01/31 13:03:08.7	111.350	-0.190	0.030	0.310
2020/01/31 13:03:08.8	111.360	-0.220	0.070	0.270
2020/01/31 13:03:08.9	111.370	-0.240	0.110	0.220
2020/01/31 13:03:09.0	111.390	-0.270	0.150	0.180
2020/01/31 13:03:09.1	111.400	-0.290	0.190	0.140
2020/01/31 13:03:09.2	111.420	-0.310	0.240	0.100
2020/01/31 13:03:09.3	111.440	-0.340	0.280	0.060
2020/01/31 13:03:09.4	111.450	-0.360	0.320	0.020
2020/01/31 13:03:09.5	111.460	-0.380	0.350	-0.020
2020/01/31 13:03:09.6	111.480	-0.390	0.390	-0.060
2020/01/31 13:03:09.7	111.500	-0.410	0.420	-0.090
2020/01/31 13:03:09.8	111.520	-0.420	0.450	-0.130
2020/01/31 13:03:09.9	111.540	-0.430	0.470	-0.160
2020/01/31 13:03:10.0	111.560	-0.440	0.490	-0.190
2020/01/31 13:03:10.1	111.590	-0.440	0.500	-0.220
2020/01/31 13:03:10.2	111.610	-0.440	0.500	-0.250
2020/01/31 13:03:10.3	111.620	-0.440	0.500	-0.280
2020/01/31 13:03:10.4	111.640	-0.440	0.490	-0.300
2020/01/31 13:03:10.5	111.660	-0.430	0.480	-0.320
2020/01/31 13:03:10.6	111.680	-0.410	0.460	-0.340
2020/01/31 13:03:10.7	111.700	-0.400	0.430	-0.360
2020/01/31 13:03:10.8	111.710	-0.380	0.390	-0.380
2020/01/31 13:03:10.9	111.720	-0.350	0.340	-0.390
2020/01/31 13:03:11.0	111.730	-0.320	0.290	-0.400
2020/01/31 13:03:11.1	111.730	-0.290	0.230	-0.400
2020/01/31 13:03:11.2	111.740	-0.260	0.170	-0.410
2020/01/31 13:03:11.3	111.740	-0.220	0.090	-0.410
2020/01/31 13:03:11.4	111.740	-0.180	0.010	-0.400
2020/01/31 13:03:11.5	111.740	-0.130	-0.080	-0.390
2020/01/31 13:03:11.6	111.730	-0.090	-0.160	-0.380
2020/01/31 13:03:11.7	111.720	-0.040	-0.260	-0.370
2020/01/31 13:03:11.8	111.710	0.010	-0.360	-0.350
2020/01/31 13:03:11.9	111.700	0.070	-0.450	-0.330
2020/01/31 13:03:12.0	111.690	0.120	-0.560	-0.310
2020/01/31 13:03:12.1	111.680	0.180	-0.660	-0.290
2020/01/31 13:03:12.2	111.660	0.230	-0.760	-0.260
2020/01/31 13:03:12.3	111.650	0.290	-0.860	-0.230
2020/01/31 13:03:12.4	111.630	0.340	-0.960	-0.190
2020/01/31 13:03:12.5	111.610	0.400	-1.050	-0.160
2020/01/31 13:03:12.6	111.600	0.450	-1.140	-0.120
2020/01/31 13:03:12.7	111.580	0.500	-1.230	-0.080
2020/01/31 13:03:12.8	111.570	0.550	-1.310	-0.030
2020/01/31 13:03:12.9	111.550	0.590	-1.380	0.010
2020/01/31 13:03:13.0	111.540	0.630	-1.440	0.060
2020/01/31 13:03:13.1	111.530	0.670	-1.500	0.110
2020/01/31 13:03:13.2	111.510	0.710	-1.540	0.160
2020/01/31 13:03:13.3	111.500	0.740	-1.570	0.220
2020/01/31 13:03:13.4	111.490	0.760	-1.600	0.270
2020/01/31 13:03:13.5	111.490	0.780	-1.600	0.330
2020/01/31 13:03:13.6	111.480	0.800	-1.600	0.390
2020/01/31 13:03:13.7	111.470	0.810	-1.590	0.460
2020/01/31 13:03:13.8	111.470	0.810	-1.560	0.520
2020/01/31 13:03:13.9	111.460	0.810	-1.520	0.580
2020/01/31 13:03:14.0	111.450	0.810	-1.460	0.650
2020/01/31 13:03:14.1	111.450	0.790	-1.400	0.720
2020/01/31 13:03:14.2	111.440	0.780	-1.320	0.780
2020/01/31 13:03:14.3	111.430	0.750	-1.230	0.850
2020/01/31 13:03:14.4	111.430	0.730	-1.130	0.920
2020/01/31 13:03:14.5	111.420	0.690	-1.020	0.990
2020/01/31 13:03:14.6	111.420	0.650	-0.900	1.050
2020/01/31 13:03:14.7	111.420	0.610	-0.770	1.120
2020/01/31 13:03:14.8	111.420	0.560	-0.640	1.180
2020/01/31 13:03:14.9	111.420	0.510	-0.500	1.240
2020/01/31 13:03:15.0	111.420	0.460	-0.350	1.300
2020/01/31 13:03:15.1	111.420	0.400	-0.200	1.350
2020/01/31 13:03:15.2	111.420	0.340	-0.050	1.410
2020/01/31 13:03:15.3	111.430	0.270	0.100	1.460
2020/01/31 13:03:15.4	111.430	0.210	0.250	1.500
2020/01/31 13:03:15.5	111.440	0.140	0.410	1.540
2020/01/31 13:03:15.6	111.450	0.080	0.550	1.580
2020/01/31 13:03:15.7	111.460	0.010	0.690	1.620
2020/01/31 13:03:15.8	111.470	-0.060	0.830	1.650
2020/01/31 13:03:15.9	111.470	-0.130	0.960	1.670
2020/01/31 13:03:16.0	111.480	-0.190	1.080	1.690
2020/01/31 13:03:16.1	111.500	-0.260	1.190	1.710
2020/01/31 13:03:16.2	111.510	-0.320	1.290	1.720
2020/01/31 13:03:16.3	111.520	-0.380	1.380	1.730
2020/01/31 13:03:16.4	111.530	-0.430	1.450	1.740
2020/01/31 13:03:16.5	111.550	-0.480	1.520	1.740
2020/01/31 13:03:16.6	111.560	-0.530	1.570	1.740
2020/01/31 13:03:16.7	111.570	-0.580	1.600	1.730
2020/01/31 13:03:16.8	111.590	-0.610	1.630	1.720
2020/01/31 13:03:16.9	111.600	-0.650	1.630	1.710
2020/01/31 13:03:17.0	111.610	-0.680	1.620	1.700
2020/01/31 13:03:17.1	111.620	-0.700	1.600	1.680
2020/01/31 13:03:17.2	111.630	-0.720	1.570	1.660
2020/01/31 13:03:17.3	111.640	-0.730	1.510	1.630
2020/01/31 13:03:17.4	111.650	-0.740	1.450	1.610
2020/01/31 13:03:17.5	111.660	-0.740	1.370	1.580
2020/01/31 13:03:17.6	111.670	-0.740	1.290	1.560
2020/01/31 13:03:17.7	111.680	-0.730	1.190	1.530
2020/01/31 13:03:17.8	111.690	-0.710	1.080	1.500
2020/01/31 13:03:17.9	111.690	-0.700	0.960	1.470
2020/01/31 13:03:18.0	111.700	-0.670	0.830	1.440
2020/01/31 13:03:18.1	111.710	-0.640	0.700	1.410
2020/01/31 13:03:18.2	111.720	-0.610	0.560	1.380
2020/01/31 13:03:18.3	111.720	-0.580	0.420	1.360
2020/01/31 13:03:18.4	111.730	-0.540	0.270	1.330
2020/01/31 13:03:18.5	111.730	-0.500	0.120	1.300
2020/01/31 13:03:18.6	111.740	-0.450	-0.030	1.280
2020/01/31 13:03:18.7	111.740	-0.400	-0.180	1.250
2020/01/31 13:03:18.8	111.750	-0.360	-0.330	1.230
2020/01/31 13:03:18.9	111.750	-0.310	-0.480	1.210
2020/01/31 13:03:19.0	111.760	-0.260	-0.620	1.190
2020/01/31 13:03:19.1	111.760	-0.210	-0.760	1.170
2020/01/31 13:03:19.2	111.760	-0.160	-0.890	1.160
2020/01/31 13:03:19.3	111.760	-0.110	-1.010	1.140
2020/01/31 13:03:19.4	111.760	-0.060	-1.130	1.130
2020/01/31 13:03:19.5	111.750	-0.010	-1.240	1.120
2020/01/31 13:03:19.6	111.750	0.030	-1.340	1.110
2020/01/31 13:03:19.7	111.740	0.080	-1.430	1.110
2020/01/31 13:03:19.8	111.740	0.120	-1.510	1.100
2020/01/31 13:03:19.9	111.730	0.150	-1.580	1.100
2020/01/31 13:03:20.0	111.720	0.190	-1.630	1.100
2020/01/31 13:03:20.1	111.710	0.220	-1.680	1.100
2020/01/31 13:03:20.2	111.700	0.250	-1.710	1.100
2020/01/31 13:03:20.3	111.690	0.280	-1.730	1.110
2020/01/31 13:03:20.4	111.680	0.300	-1.740	1.110
2020/01/31 13:03:20.5	111.670	0.320	-1.740	1.110
2020/01/31 13:03:20.6	111.660	0.330	-1.720	1.120
2020/01/31 13:03:20.7	111.640	0.340	-1.690	1.120
2020/01/31 13:03:20.8	111.630	0.350	-1.650	1.130
2020/01/31 13:03:20.9	111.620	0.350	-1.600	1.130
2020/01/31 13:03:21.0	111.600	0.350	-1.540	1.130
2020/01/31 13:03:21.1	111.590	0.340	-1.470	1.140
2020/01/31 13:03:21.2	111.580	0.330	-1.390	1.140
2020/01/31 13:03:21.3	111.560	0.320	-1.300	1.140
2020/01/31 13:03:21.4	111.550	0.310	-1.200	1.130
2020/01/31 13:03:21.5	111.550	0.290	-1.100	1.140
2020/01/31 13:03:21.6	111.540	0.260	-0.980	1.130
2020/01/31 13:03:21.7	111.530	0.240	-0.870	1.120
2020/01/31 13:03:21.8	111.520	0.210	-0.740	1.110
2020/01/31 13:03:21.9	111.510	0.180	-0.620	1.100
2020/01/31 13:03:22.0	111.510	0.150	-0.490	1.090
2020/01/31 13:03:22.1	111.510	0.110	-0.360	1.070
2020/01/31 13:03:22.2	111.500	0.080	-0.230	1.060
2020/01/31 13:03:22.3	111.500	0.040	-0.110	1.040
2020/01/31 13:03:22.4	111.500	0.000	0.020	1.020
2020/01/31 13:03:22.5	111.500	-0.040	0.150	0.990
2020/01/31 13:03:22.6	111.510	-0.080	0.270	0.970
2020/01/31 13:03:22.7	111.510	-0.120	0.380	0.940
2020/01/31 13:03:22.8	111.510	-0.160	0.490	0.920
2020/01/31 13:03:22.9	111.520	-0.190	0.590	0.890
2020/01/31 13:03:23.0	111.530	-0.230	0.690	0.860
2020/01/31 13:03:23.1	111.530	-0.260	0.770	0.830
2020/01/31 13:03:23.2	111.540	-0.300	0.850	0.800
2020/01/31 13:03:23.3	111.550	-0.330	0.920	0.770
2020/01/31 13:03:23.4	111.560	-0.360	0.980	0.730
2020/01/31 13:03:23.5	111.570	-0.380	1.030	0.700
2020/01/31 13:03:23.6	111.580	-0.410	1.070	0.670
2020/01/31 13:03:23.7	111.600	-0.430	1.100	0.640
2020/01/31 13:03:23.8	111.610	-0.440	1.120	0.600
2020/01/31 13:03:23.9	111.620	-0.460	1.130	0.570
2020/01/31 13:03:24.0	111.640	-0.470	1.130	0.540
2020/01/31 13:03:24.1	111.650	-0.470	1.110	0.510
2020/01/31 13:03:24.2	111.670	-0.470	1.090	0.480
2020/01/31 13:03:24.3	111.680	-0.470	1.060	0.450
2020/01/31 13:03:24.4	111.700	-0.470	1.020	0.420
2020/01/31 13:03:24.5	111.710	-0.460	0.970	0.390
2020/01/31 13:03:24.6	111.730	-0.440	0.920	0.360
2020/01/31 13:03:24.7	111.740	-0.430	0.860	0.330
2020/01/31 13:03:24.8	111.760	-0.400	0.780	0.310
2020/01/31 13:03:24.9	111.780	-0.380	0.710	0.280
2020/01/31 13:03:25.0	111.790	-0.350	0.630	0.260
2020/01/31 13:03:25.1	111.810	-0.320	0.540	0.240
2020/01/31 13:03:25.2	111.820	-0.290	0.450	0.220
2020/01/31 13:03:25.3	111.840	-0.260	0.360	0.200
2020/01/31 13:03:25.4	111.850	-0.220	0.260	0.180
2020/01/31 13:03:25.5	111.870	-0.180	0.160	0.160
2020/01/31 13:03:25.6	111.880	-0.140	0.060	0.150
2020/01/31 13:03:25.7	111.890	-0.100	-0.050	0.140
2020/01/31 13:03:25.8	111.900	-0.060	-0.150	0.130
2020/01/31 13:03:25.9	111.900	-0.010	-0.250	0.120
2020/01/31 13:03:26.0	111.910	0.030	-0.350	0.120
2020/01/31 13:03:26.1	111.910	0.070	-0.450	0.120
2020/01/31 13:03:26.2	111.910	0.110	-0.540	0.120
2020/01/31 13:03:26.3	111.910	0.160	-0.630	0.120
2020/01/31 13:03:26.4	111.910	0.200	-0.720	0.130
2020/01/31 13:03:26.5	111.900	0.240	-0.810	0.130
2020/01/31 13:03:26.6	111.900	0.280	-0.890	0.140
2020/01/31 13:03:26.7	111.890	0.310	-0.960	0.160
2020/01/31 13:03:26.8	111.880	0.350	-1.030	0.170
2020/01/31 13:03:26.9	111.880	0.380	-1.090	0.190
2020/01/31 13:03:27.0	111.860	0.410	-1.150	0.210
2020/01/31 13:03:27.1	111.850	0.440	-1.200	0.240
2020/01/31 13:03:27.2	111.840	0.470	-1.240	0.260
2020/01/31 13:03:27.3	111.830	0.490	-1.270	0.290
2020/01/31 13:03:27.4	111.810	0.510	-1.290	0.320
2020/01/31 13:03:27.5	111.790	0.530	-1.300	0.350
2020/01/31 13:03:27.6	111.780	0.550	-1.310	0.380
2020/01/31 13:03:27.7	111.760	0.560	-1.310	0.420
2020/01/31 13:03:27.8	111.740	0.570	-1.300	0.450
2020/01/31 13:03:27.9	111.730	0.580	-1.280	0.490
2020/01/31 13:03:28.0	111.710	0.580	-1.250	0.530
2020/01/31 13:03:28.1	111.690	0.580	-1.220	0.570
2020/01/31 13:03:28.2	111.680	0.580	-1.180	0.610
2020/01/31 13:03:28.3	111.660	0.580	-1.130	0.650
2020/01/31 13:03:28.4	111.650	0.570	-1.070	0.700
2020/01/31 13:03:28.5	111.630	0.560	-1.000	0.740
2020/01/31 13:03:28.6	111.620	0.550	-0.930	0.790
2020/01/31 13:03:28.7	111.610	0.530	-0.860	0.840
2020/01/31 13:03:28.8	111.600	0.510	-0.780	0.880
2020/01/31 13:03:28.9	111.590	0.500	-0.690	0.930
2020/01/31 13:03:29.0	111.580	0.470	-0.610	0.980
2020/01/31 13:03:29.1	111.570	0.450	-0.510	1.030
2020/01/31 13:03:29.2	111.570	0.420	-0.420	1.080
2020/01/31 13:03:29.3	111.560	0.400	-0.330	1.120
2020/01/31 13:03:29.4	111.560	0.370	-0.230	1.170
2020/01/31 13:03:29.5	111.550	0.340	-0.130	1.220
2020/01/31 13:03:29.6	111.550	0.310	-0.040	1.270
2020/01/31 13:03:29.7	111.560	0.280	0.050	1.310
2020/01/31 13:03:29.8	111.560	0.250	0.150	1.350
2020/01/31 13:03:29.9	111.560	0.210	0.230	1.390
2020/01/31 13:03:30.0	111.570	0.180	0.320	1.430
2020/01/31 13:03:30.1	111.580	0.150	0.400	1.460
2020/01/31 13:03:30.2	111.580	0.120	0.480	1.500
2020/01/31 13:03:30.3	111.590	0.080	0.550	1.530
2020/01/31 13:03:30.4	111.600	0.050	0.610	1.560
2020/01/31 13:03:30.5	111.610	0.020	0.670	1.590
2020/01/31 13:03:30.6	111.620	-0.010	0.720	1.610
2020/01/31 13:03:30.7	111.640	-0.040	0.770	1.630
2020/01/31 13:03:30.8	111.650	-0.060	0.800	1.650
2020/01/31 13:03:30.9	111.660	-0.090	0.830	1.670
2020/01/31 13:03:31.0	111.680	-0.120	0.860	1.680
2020/01/31 13:03:31.1	111.690	-0.140	0.870	1.700
2020/01/31 13:03:31.2	111.710	-0.160	0.880	1.700
2020/01/31 13:03:31.3	111.730	-0.180	0.880	1.710
2020/01/31 13:03:31.4	111.740	-0.200	0.870	1.710
2020/01/31 13:03:31.5	111.770	-0.210	0.850	1.720
2020/01/31 13:03:31.6	111.780	-0.230	0.830	1.710
2020/01/31 13:03:31.7	111.800	-0.240	0.800	1.710
2020/01/31 13:03:31.8	111.820	-0.250	0.760	1.700
2020/01/31 13:03:31.9	111.840	-0.260	0.720	1.690
2020/01/31 13:03:32.0	111.850	-0.270	0.670	1.680
2020/01/31 13:03:32.1	111.870	-0.270	0.620	1.670
2020/01/31 13:03:32.2	111.890	-0.270	0.560	1.650
2020/01/31 13:03:32.3	111.910	-0.280	0.500	1.640
2020/01/31 13:03:32.4	111.920	-0.280	0.440	1.620
2020/01/31 13:03:32.5	111.940	-0.280	0.360	1.600
2020/01/31 13:03:32.6	111.960	-0.280	0.290	1.570
2020/01/31 13:03:32.7	111.980	-0.270	0.220	1.550
2020/01/31 13:03:32.8	111.990	-0.270	0.150	1.530
2020/01/31 13:03:32.9	112.010	-0.270	0.080	1.510
2020/01/31 13:03:33.0	112.030	-0.260	0.000	1.480
2020/01/31 13:03:33.1	112.040	-0.260	-0.070	1.460
2020/01/31 13:03:33.2	112.060	-0.250	-0.140	1.440
2020/01/31 13:03:33.3	112.070	-0.250	-0.210	1.420
2020/01/31 13:03:33.4	112.080	-0.240	-0.280	1.400
2020/01/31 13:03:33.5	112.090	-0.230	-0.350	1.390
2020/01/31 13:03:33.6	112.100	-0.230	-0.410	1.370
2020/01/31 13:03:33.7	112.110	-0.220	-0.470	1.360
2020/01/31 13:03:33.8	112.110	-0.210	-0.530	1.350
2020/01/31 13:03:33.9	112.120	-0.210	-0.590	1.340
2020/01/31 13:03:34.0	112.120	-0.200	-0.640	1.330
2020/01/31 13:03:34.1	112.130	-0.190	-0.690	1.320
2020/01/31 13:03:34.2	112.130	-0.180	-0.730	1.320
2020/01/31 13:03:34.3	112.130	-0.180	-0.770	1.310
2020/01/31 13:03:34.4	112.130	-0.170	-0.800	1.310
2020/01/31 13:03:34.5	112.120	-0.160	-0.840	1.300
2020/01/31 13:03:34.6	112.120	-0.160	-0.860	1.300
2020/01/31 13:03:34.7	112.120	-0.150	-0.880	1.300
2020/01/31 13:03:34.8	112.110	-0.140	-0.900	1.300
2020/01/31 13:03:34.9	112.100	-0.130	-0.910	1.300
2020/01/31 13:03:35.0	112.100	-0.130	-0.920	1.300
2020/01/31 13:03:35.1	112.090	-0.120	-0.920	1.300
2020/01/31 13:03:35.2	112.080	-0.110	-0.920	1.300
2020/01/31 13:03:35.3	112.070	-0.100	-0.910	1.300
2020/01/31 13:03:35.4	112.070	-0.100	-0.900	1.290
2020/01/31 13:03:35.5	112.060	-0.090	-0.880	1.290
2020/01/31 13:03:35.6	112.050	-0.080	-0.860	1.290
2020/01/31 13:03:35.7	112.050	-0.080	-0.830	1.280
2020/01/31 13:03:35.8	112.040	-0.070	-0.810	1.270
2020/01/31 13:03:35.9	112.040	-0.070	-0.780	1.260
2020/01/31 13:03:36.0	112.030	-0.060	-0.740	1.240
2020/01/31 13:03:36.1	112.030	-0.060	-0.700	1.230
2020/01/31 13:03:36.2	112.030	-0.050	-0.660	1.210
2020/01/31 13:03:36.3	112.030	-0.050	-0.610	1.190
2020/01/31 13:03:36.4	112.030	-0.050	-0.570	1.170
2020/01/31 13:03:36.5	112.030	-0.050	-0.520	1.140
2020/01/31 13:03:36.6	112.040	-0.050	-0.470	1.110
2020/01/31 13:03:36.7	112.050	-0.050	-0.410	1.080
2020/01/31 13:03:36.8	112.050	-0.050	-0.350	1.040
2020/01/31 13:03:36.9	112.060	-0.050	-0.300	1.010
2020/01/31 13:03:37.0	112.070	-0.050	-0.240	0.970
2020/01/31 13:03:37.1	112.080	-0.050	-0.180	0.930
2020/01/31 13:03:37.2	112.090	-0.050	-0.130	0.890
2020/01/31 13:03:37.3	112.100	-0.050	-0.070	0.850
2020/01/31 13:03:37.4	112.120	-0.050	-0.010	0.800
2020/01/31 13:03:37.5	112.130	-0.050	0.050	0.760
2020/01/31 13:03:37.6	112.140	-0.050	0.100	0.720
2020/01/31 13:03:37.7	112.150	-0.060	0.150	0.670
2020/01/31 13:03:37.8	112.160	-0.060	0.200	0.630
2020/01/31 13:03:37.9	112.170	-0.060	0.240	0.580
2020/01/31 13:03:38.0	112.180	-0.060	0.290	0.540
2020/01/31 13:03:38.1	112.190	-0.060	0.320	0.500
2020/01/31 13:03:38.2	112.190	-0.050	0.360	0.460
2020/01/31 13:03:38.3	112.200	-0.050	0.390	0.420
2020/01/31 13:03:38.4	112.200	-0.050	0.410	0.380
2020/01/31 13:03:38.5	112.200	-0.040	0.430	0.340
2020/01/31 13:03:38.6	112.210	-0.040	0.450	0.310
2020/01/31 13:03:38.7	112.210	-0.030	0.460	0.280
2020/01/31 13:03:38.8	112.210	-0.020	0.460	0.250
2020/01/31 13:03:38.9	112.210	-0.020	0.460	0.220
2020/01/31 13:03:39.0	112.200	-0.010	0.460	0.190
2020/01/31 13:03:39.1	112.200	0.000	0.450	0.160
2020/01/31 13:03:39.2	112.200	0.010	0.430	0.140
2020/01/31 13:03:39.3	112.200	0.020	0.410	0.110
2020/01/31 13:03:39.4	112.200	0.040	0.390	0.090
2020/01/31 13:03:39.5	112.190	0.050	0.360	0.070
2020/01/31 13:03:39.6	112.190	0.060	0.330	0.050
2020/01/31 13:03:39.7	112.190	0.080	0.290	0.030
2020/01/31 13:03:39.8	112.190	0.090	0.250	0.020
2020/01/31 13:03:39.9	112.190	0.100	0.210	-0.000
2020/01/31 13:03:40.0	112.190	0.120	0.170	-0.020
2020/01/31 13:03:40.1	112.190	0.130	0.120	-0.030
2020/01/31 13:03:40.2	112.190	0.140	0.080	-0.050
2020/01/31 13:03:40.3	112.190	0.150	0.030	-0.060
2020/01/31 13:03:40.4	112.190	0.170	-0.020	-0.070
2020/01/31 13:03:40.5	112.190	0.180	-0.070	-0.080
2020/01/31 13:03:40.6	112.190	0.190	-0.110	-0.090
2020/01/31 13:03:40.7	112.190	0.200	-0.160	-0.090
2020/01/31 13:03:40.8	112.190	0.200	-0.200	-0.100
2020/01/31 13:03:40.9	112.190	0.210	-0.250	-0.100
2020/01/31 13:03:41.0	112.190	0.220	-0.290	-0.110
2020/01/31 13:03:41.1	112.190	0.220	-0.330	-0.110
2020/01/31 13:03:41.2	112.190	0.230	-0.360	-0.110
2020/01/31 13:03:41.3	112.200	0.230	-0.400	-0.100
2020/01/31 13:03:41.4	112.200	0.230	-0.430	-0.100
2020/01/31 13:03:41.5	112.190	0.230	-0.450	-0.090
2020/01/31 13:03:41.6	112.200	0.230	-0.480	-0.090
2020/01/31 13:03:41.7	112.200	0.230	-0.500	-0.080
2020/01/31 13:03:41.8	112.200	0.220	-0.510	-0.060
2020/01/31 13:03:41.9	112.210	0.220	-0.530	-0.050
2020/01/31 13:03:42.0	112.220	0.210	-0.540	-0.030
2020/01/31 13:03:42.1	112.220	0.200	-0.550	-0.020
2020/01/31 13:03:42.2	112.230	0.200	-0.550	0.000
2020/01/31 13:03:42.3	112.240	0.190	-0.550	0.020
2020/01/31 13:03:42.4	112.260	0.180	-0.550	0.040
2020/01/31 13:03:42.5	112.280	0.170	-0.540	0.070
2020/01/31 13:03:42.6	112.300	0.160	-0.540	0.090
2020/01/31 13:03:42.7	112.320	0.150	-0.530	0.110
2020/01/31 13:03:42.8	112.340	0.140	-0.520	0.140
2020/01/31 13:03:42.9	112.360	0.130	-0.510	0.160
2020/01/31 13:03:43.0	112.390	0.120	-0.490	0.190
2020/01/31 13:03:43.1	112.420	0.110	-0.480	0.220
2020/01/31 13:03:43.2	112.450	0.100	-0.460	0.240
2020/01/31 13:03:43.3	112.480	0.090	-0.450	0.270
2020/01/31 13:03:43.4	112.510	0.080	-0.430	0.300
2020/01/31 13:03:43.5	112.550	0.070	-0.420	0.330
2020/01/31 13:03:43.6	112.580	0.070	-0.400	0.360
2020/01/31 13:03:43.7	112.620	0.060	-0.390	0.400
2020/01/31 13:03:43.8	112.660	0.050	-0.370	0.430
2020/01/31 13:03:43.9	112.690	0.050	-0.360	0.460
2020/01/31 13:03:44.0	112.730	0.040	-0.350	0.500
2020/01/31 13:03:44.1	112.770	0.040	-0.340	0.540
2020/01/31 13:03:44.2	112.800	0.030	-0.320	0.580
2020/01/31 13:03:44.3	112.840	0.030	-0.310	0.620
2020/01/31 13:03:44.4	112.870	0.030	-0.310	0.660
2020/01/31 13:03:44.5	112.910	0.020	-0.300	0.700
2020/01/31 13:03:44.6	112.940	0.020	-0.290	0.750
2020/01/31 13:03:44.7	112.960	0.020	-0.290	0.790
2020/01/31 13:03:44.8	112.980	0.020	-0.280	0.840
2020/01/31 13:03:44.9	113.000	0.020	-0.270	0.890
2020/01/31 13:03:45.0	113.020	0.020	-0.270	0.940
2020/01/31 13:03:45.1	113.040	0.020	-0.260	1.000
2020/01/31 13:03:45.2	113.050	0.020	-0.260	1.050
2020/01/31 13:03:45.3	113.050	0.020	-0.250	1.110
2020/01/31 13:03:45.4	113.060	0.030	-0.250	1.170
2020/01/31 13:03:45.5	113.060	0.030	-0.240	1.230
2020/01/31 13:03:45.6	113.060	0.030	-0.240	1.290
2020/01/31 13:03:45.7	113.060	0.030	-0.230	1.350
2020/01/31 13:03:45.8	113.050	0.040	-0.220	1.410
2020/01/31 13:03:45.9	113.040	0.040	-0.210	1.470
2020/01/31 13:03:46.0	113.030	0.040	-0.200	1.530
2020/01/31 13:03:46.1	113.020	0.050	-0.190	1.590
2020/01/31 13:03:46.2	113.010	0.050	-0.180	1.650
2020/01/31 13:03:46.3	112.990	0.050	-0.170	1.710
2020/01/31 13:03:46.4	112.980	0.050	-0.160	1.760
2020/01/31 13:03:46.5	112.970	0.060	-0.140	1.810
2020/01/31 13:03:46.6	112.950	0.060	-0.120	1.860
2020/01/31 13:03:46.7	112.940	0.060	-0.110	1.910
2020/01/31 13:03:46.8	112.930	0.060	-0.090	1.950
2020/01/31 13:03:46.9	112.920	0.060	-0.070	1.990
2020/01/31 13:03:47.0	112.910	0.060	-0.050	2.030
2020/01/31 13:03:47.1	112.900	0.060	-0.030	2.070
2020/01/31 13:03:47.2	112.900	0.050	-0.000	2.100
2020/01/31 13:03:47.3	112.900	0.050	0.020	2.130
2020/01/31 13:03:47.4	112.900	0.050	0.040	2.150
2020/01/31 13:03:47.5	112.900	0.040	0.060	2.170
2020/01/31 13:03:47.6	112.910	0.040	0.090	2.190
2020/01/31 13:03:47.7	112.910	0.030	0.110	2.200
2020/01/31 13:03:47.8	112.920	0.030	0.130	2.210
2020/01/31 13:03:47.9	112.930	0.020	0.150	2.220
2020/01/31 13:03:48.0	112.940	0.010	0.170	2.230
2020/01/31 13:03:48.1	112.950	-0.000	0.190	2.230
2020/01/31 13:03:48.2	112.960	-0.010	0.210	2.230
2020/01/31 13:03:48.3	112.980	-0.020	0.230	2.220
2020/01/31 13:03:48.4	112.990	-0.040	0.250	2.210
2020/01/31 13:03:48.5	113.010	-0.050	0.270	2.200
2020/01/31 13:03:48.6	113.030	-0.060	0.280	2.190
2020/01/31 13:03:48.7	113.040	-0.080	0.300	2.170
2020/01/31 13:03:48.8	113.060	-0.100	0.310	2.150
2020/01/31 13:03:48.9	113.080	-0.110	0.320	2.130
2020/01/31 13:03:49.0	113.100	-0.130	0.330	2.110
2020/01/31 13:03:49.1	113.110	-0.150	0.340	2.080
2020/01/31 13:03:49.2	113.130	-0.160	0.350	2.050
2020/01/31 13:03:49.3	113.150	-0.180	0.350	2.020
2020/01/31 13:03:49.4	113.170	-0.200	0.360	1.980
2020/01/31 13:03:49.5	113.200	-0.220	0.360	1.940
2020/01/31 13:03:49.6	113.220	-0.230	0.360	1.900
2020/01/31 13:03:49.7	113.240	-0.250	0.360	1.850
2020/01/31 13:03:49.8	113.260	-0.260	0.350	1.810
2020/01/31 13:03:49.9	113.290	-0.280	0.350	1.750
2020/01/31 13:03:50.0	113.310	-0.290	0.340	1.700
2020/01/31 13:03:50.1	113.330	-0.310	0.330	1.650
2020/01/31 13:03:50.2	113.350	-0.320	0.320	1.590
2020/01/31 13:03:50.3	113.370	-0.320	0.300	1.530
2020/01/31 13:03:50.4	113.390	-0.330	0.280	1.460
2020/01/31 13:03:50.5	113.420	-0.340	0.260	1.400
2020/01/31 13:03:50.6	113.440	-0.340	0.240	1.330
2020/01/31 13:03:50.7	113.460	-0.340	0.210	1.260
2020/01/31 13:03:50.8	113.480	-0.340	0.180	1.190
2020/01/31 13:03:50.9	113.500	-0.330	0.150	1.120
2020/01/31 13:03:51.0	113.520	-0.330	0.110	1.050
2020/01/31 13:03:51.1	113.530	-0.320	0.070	0.980
2020/01/31 13:03:51.2	113.550	-0.300	0.030	0.910
2020/01/31 13:03:51.3	113.570	-0.290	-0.020	0.830
2020/01/31 13:03:51.4	113.580	-0.270	-0.060	0.760
2020/01/31 13:03:51.5	113.600	-0.250	-0.110	0.690
2020/01/31 13:03:51.6	113.610	-0.230	-0.170	0.620
2020/01/31 13:03:51.7	113.630	-0.200	-0.220	0.540
2020/01/31 13:03:51.8	113.640	-0.170	-0.280	0.470
2020/01/31 13:03:51.9	113.660	-0.140	-0.330	0.400
2020/01/31 13:03:52.0	113.670	-0.110	-0.390	0.340
2020/01/31 13:03:52.1	113.680	-0.070	-0.450	0.270
2020/01/31 13:03:52.2	113.690	-0.040	-0.510	0.200
2020/01/31 13:03:52.3	113.710	-0.000	-0.570	0.140
2020/01/31 13:03:52.4	113.720	0.040	-0.630	0.080
2020/01/31 13:03:52.5	113.730	0.070	-0.690	0.020
2020/01/31 13:03:52.6	113.740	0.110	-0.750	-0.040
2020/01/31 13:03:52.7	113.750	0.150	-0.800	-0.100
2020/01/31 13:03:52.8	113.770	0.190	-0.850	-0.150
2020/01/31 13:03:52.9	113.780	0.230	-0.900	-0.200
2020/01/31 13:03:53.0	113.790	0.260	-0.940	-0.240
2020/01/31 13:03:53.1	113.800	0.300	-0.980	-0.290
2020/01/31 13:03:53.2	113.810	0.330	-1.020	-0.330
2020/01/31 13:03:53.3	113.820	0.360	-1.050	-0.360
2020/01/31 13:03:53.4	113.830	0.390	-1.070	-0.390
2020/01/31 13:03:53.5	113.840	0.420	-1.090	-0.420
2020/01/31 13:03:53.6	113.850	0.450	-1.110	-0.450
2020/01/31 13:03:53.7	113.860	0.470	-1.120	-0.470
2020/01/31 13:03:53.8	113.870	0.490	-1.120	-0.480
2020/01/31 13:03:53.9	113.880	0.500	-1.120	-0.490
2020/01/31 13:03:54.0	113.880	0.510	-1.110	-0.500
2020/01/31 13:03:54.1	113.880	0.520	-1.090	-0.500
2020/01/31 13:03:54.2	113.890	0.530	-1.070	-0.490
2020/01/31 13:03:54.3	113.890	0.530	-1.050	-0.490
2020/01/31 13:03:54.4	113.890	0.530	-1.020	-0.470
2020/01/31 13:03:54.5	113.880	0.520	-0.980	-0.450
2020/01/31 13:03:54.6	113.880	0.510	-0.940	-0.430
2020/01/31 13:03:54.7	113.870	0.500	-0.900	-0.400
2020/01/31 13:03:54.8	113.870	0.480	-0.850	-0.370
2020/01/31 13:03:54.9	113.860	0.460	-0.800	-0.340
2020/01/31 13:03:55.0	113.860	0.440	-0.740	-0.300
2020/01/31 13:03:55.1	113.850	0.410	-0.680	-0.270
2020/01/31 13:03:55.2	113.850	0.380	-0.620	-0.220
2020/01/31 13:03:55.3	113.840	0.350	-0.560	-0.180
2020/01/31 13:03:55.4	113.840	0.320	-0.490	-0.130
2020/01/31 13:03:55.5	113.830	0.280	-0.420	-0.080
2020/01/31 13:03:55.6	113.820	0.240	-0.350	-0.030
2020/01/31 13:03:55.7	113.820	0.210	-0.280	0.020
2020/01/31 13:03:55.8	113.820	0.170	-0.200	0.070
2020/01/31 13:03:55.9	113.810	0.120	-0.130	0.110
2020/01/31 13:03:56.0	113.810	0.080	-0.050	0.160
2020/01/31 13:03:56.1	113.820	0.040	0.020	0.210
2020/01/31 13:03:56.2	113.820	-0.000	0.100	0.260
2020/01/31 13:03:56.3	113.830	-0.040	0.170	0.310
2020/01/31 13:03:56.4	113.840	-0.080	0.240	0.350
2020/01/31 13:03:56.5	113.860	-0.120	0.320	0.400
2020/01/31 13:03:56.6	113.870	-0.160	0.390	0.440
2020/01/31 13:03:56.7	113.890	-0.200	0.450	0.480
2020/01/31 13:03:56.8	113.900	-0.240	0.510	0.520
2020/01/31 13:03:56.9	113.920	-0.270	0.570	0.560
2020/01/31 13:03:57.0	113.950	-0.300	0.620	0.600
2020/01/31 13:03:57.1	113.970	-0.330	0.670	0.640
2020/01/31 13:03:57.2	113.990	-0.360	0.710	0.680
2020/01/31 13:03:57.3	114.020	-0.380	0.750	0.710
2020/01/31 13:03:57.4	114.050	-0.410	0.780	0.750
2020/01/31 13:03:57.5	114.090	-0.430	0.800	0.790
2020/01/31 13:03:57.6	114.120	-0.440	0.820	0.820
2020/01/31 13:03:57.7	114.150	-0.460	0.830	0.860
2020/01/31 13:03:57.8	114.180	-0.470	0.830	0.890
2020/01/31 13:03:57.9	114.210	-0.470	0.830	0.930
2020/01/31 13:03:58.0	114.240	-0.480	0.820	0.960
2020/01/31 13:03:58.1	114.270	-0.480	0.810	0.990
2020/01/31 13:03:58.2	114.310	-0.480	0.780	1.020
2020/01/31 13:03:58.3	114.340	-0.470	0.760	1.050
2020/01/31 13:03:58.4	114.370	-0.470	0.720	1.080
2020/01/31 13:03:58.5	114.390	-0.460	0.680	1.110
2020/01/31 13:03:58.6	114.420	-0.440	0.640	1.140
2020/01/31 13:03:58.7	114.450	-0.430	0.590	1.170
2020/01/31 13:03:58.8	114.480	-0.410	0.540	1.190
2020/01/31 13:03:58.9	114.510	-0.390	0.490	1.220
2020/01/31 13:03:59.0	114.540	-0.370	0.430	1.240
2020/01/31 13:03:59.1	114.570	-0.350	0.370	1.270
2020/01/31 13:03:59.2	114.600	-0.320	0.310	1.290
2020/01/31 13:03:59.3	114.620	-0.300	0.250	1.310
2020/01/31 13:03:59.4	114.650	-0.270	0.190	1.330
2020/01/31 13:03:59.5	114.670	-0.240	0.130	1.360
2020/01/31 13:03:59.6	114.690	-0.210	0.070	1.380
2020/01/31 13:03:59.7	114.710	-0.180	0.010	1.410
2020/01/31 13:03:59.8	114.720	-0.150	-0.040	1.430
2020/01/31 13:03:59.9	114.730	-0.120	-0.100	1.460
2020/01/31 13:04:00.0	114.740	-0.090	-0.150	1.490
2020/01/31 13:04:00.1	114.750	-0.060	-0.200	1.520
2020/01/31 13:04:00.2	114.750	-0.020	-0.250	1.550
2020/01/31 13:04:00.3	114.750	0.010	-0.290	1.580
2020/01/31 13:04:00.4	114.750	0.040	-0.340	1.610
2020/01/31 13:04:00.5	114.750	0.070	-0.380	1.640
2020/01/31 13:04:00.6	114.740	0.100	-0.410	1.670
2020/01/31 13:04:00.7	114.730	0.130	-0.450	1.710
2020/01/31 13:04:00.8	114.720	0.160	-0.480	1.740
2020/01/31 13:04:00.9	114.710	0.190	-0.510	1.780
2020/01/31 13:04:01.0	114.690	0.210	-0.540	1.810
2020/01/31 13:04:01.1	114.670	0.240	-0.570	1.840
2020/01/31 13:04:01.2	114.660	0.260	-0.600	1.870
2020/01/31 13:04:01.3	114.640	0.290	-0.620	1.900
2020/01/31 13:04:01.4	114.620	0.310	-0.640	1.920
2020/01/31 13:04:01.5	114.620	0.330	-0.670	1.950
2020/01/31 13:04:01.6	114.600	0.350	-0.690	1.960
2020/01/31 13:04:01.7	114.590	0.370	-0.710	1.980
2020/01/31 13:04:01.8	114.580	0.390	-0.720	1.990
2020/01/31 13:04:01.9	114.570	0.410	-0.740	1.990
2020/01/31 13:04:02.0	114.560	0.430	-0.750	1.990
2020/01/31 13:04:02.1	114.560	0.440	-0.760	1.990
2020/01/31 13:04:02.2	114.560	0.460	-0.770	1.980
2020/01/31 13:04:02.3	114.560	0.470	-0.780	1.960
2020/01/31 13:04:02.4	114.560	0.480	-0.790	1.940
2020/01/31 13:04:02.5	114.570	0.490	-0.790	1.910
2020/01/31 13:04:02.6	114.580	0.490	-0.790	1.870
2020/01/31 13:04:02.7	114.590	0.500	-0.790	1.830
2020/01/31 13:04:02.8	114.610	0.500	-0.780	1.790
2020/01/31 13:04:02.9	114.630	0.500	-0.780	1.740
2020/01/31 13:04:03.0	114.640	0.500	-0.770	1.690
2020/01/31 13:04:03.1	114.670	0.500	-0.750	1.640
2020/01/31 13:04:03.2	114.690	0.500	-0.730	1.580
2020/01/31 13:04:03.3	114.710	0.490	-0.710	1.520
2020/01/31 13:04:03.4	114.740	0.480	-0.690	1.460
2020/01/31 13:04:03.5	114.770	0.470	-0.660	1.390
2020/01/31 13:04:03.6	114.790	0.460	-0.630	1.330
2020/01/31 13:04:03.7	114.820	0.440	-0.600	1.260
2020/01/31 13:04:03.8	114.850	0.430	-0.560	1.200
2020/01/31 13:04:03.9	114.880	0.410	-0.520	1.130
2020/01/31 13:04:04.0	114.920	0.380	-0.480	1.070
2020/01/31 13:04:04.1	114.950	0.360	-0.440	1.000
2020/01/31 13:04:04.2	114.980	0.330	-0.390	0.940
2020/01/31 13:04:04.3	115.010	0.310	-0.340	0.880
2020/01/31 13:04:04.4	115.050	0.270	-0.290	0.820
2020/01/31 13:04:04.5	115.070	0.240	-0.230	0.770
2020/01/31 13:04:04.6	115.110	0.210	-0.180	0.710
2020/01/31 13:04:04.7	115.140	0.170	-0.120	0.660
2020/01/31 13:04:04.8	115.170	0.140	-0.060	0.610
2020/01/31 13:04:04.9	115.200	0.100	-0.010	0.570
2020/01/31 13:04:05.0	115.230	0.060	0.050	0.520
2020/01/31 13:04:05.1	115.260	0.020	0.110	0.480
2020/01/31 13:04:05.2	115.290	-0.030	0.170	0.450
2020/01/31 13:04:05.3	115.320	-0.070	0.230	0.420
2020/01/31 13:04:05.4	115.340	-0.110	0.280	0.390
2020/01/31 13:04:05.5	115.370	-0.150	0.340	0.360
2020/01/31 13:04:05.6	115.390	-0.200	0.390	0.340
2020/01/31 13:04:05.7	115.410	-0.240	0.440	0.310
2020/01/31 13:04:05.8	115.430	-0.280	0.490	0.300
2020/01/31 13:04:05.9	115.440	-0.320	0.530	0.280
2020/01/31 13:04:06.0	115.460	-0.360	0.570	0.270
2020/01/31 13:04:06.1	115.470	-0.400	0.610	0.260
2020/01/31 13:04:06.2	115.480	-0.430	0.640	0.250
2020/01/31 13:04:06.3	115.480	-0.470	0.660	0.240
2020/01/31 13:04:06.4	115.490	-0.500	0.680	0.230
2020/01/31 13:04:06.5	115.490	-0.530	0.700	0.230
2020/01/31 13:04:06.6	115.490	-0.560	0.700	0.230
2020/01/31 13:04:06.7	115.490	-0.580	0.710	0.220
2020/01/31 13:04:06.8	115.480	-0.600	0.700	0.220
2020/01/31 13:04:06.9	115.480	-0.620	0.690	0.220
2020/01/31 13:04:07.0	115.470	-0.630	0.680	0.210
2020/01/31 13:04:07.1	115.460	-0.640	0.660	0.210
2020/01/31 13:04:07.2	115.450	-0.650	0.630	0.210
2020/01/31 13:04:07.3	115.430	-0.650	0.590	0.200
2020/01/31 13:04:07.4	115.420	-0.650	0.550	0.200
2020/01/31 13:04:07.5	115.410	-0.640	0.500	0.190
2020/01/31 13:04:07.6	115.400	-0.640	0.450	0.190
2020/01/31 13:04:07.7	115.380	-0.620	0.390	0.180
2020/01/31 13:04:07.8	115.370	-0.610	0.320	0.170
2020/01/31 13:04:07.9	115.360	-0.590	0.250	0.170
2020/01/31 13:04:08.0	115.340	-0.570	0.180	0.160
2020/01/31 13:04:08.1	115.330	-0.540	0.100	0.150
2020/01/31 13:04:08.2	115.320	-0.510	0.020	0.140
2020/01/31 13:04:08.3	115.310	-0.480	-0.060	0.130
2020/01/31 13:04:08.4	115.300	-0.450	-0.140	0.130
2020/01/31 13:04:08.5	115.300	-0.410	-0.230	0.120
2020/01/31 13:04:08.6	115.290	-0.370	-0.320	0.110
2020/01/31 13:04:08.7	115.290	-0.330	-0.400	0.110
2020/01/31 13:04:08.8	115.290	-0.290	-0.490	0.100
2020/01/31 13:04:08.9	115.280	-0.250	-0.570	0.100
2020/01/31 13:04:09.0	115.290	-0.210	-0.650	0.090
2020/01/31 13:04:09.1	115.290	-0.170	-0.730	0.090
2020/01/31 13:04:09.2	115.300	-0.120	-0.800	0.090
2020/01/31 13:04:09.3	115.300	-0.080	-0.870	0.100
2020/01/31 13:04:09.4	115.310	-0.040	-0.930	0.100
2020/01/31 13:04:09.5	115.330	0.000	-0.980	0.110
2020/01/31 13:04:09.6	115.340	0.040	-1.030	0.120
2020/01/31 13:04:09.7	115.350	0.080	-1.070	0.130
2020/01/31 13:04:09.8	115.360	0.120	-1.110	0.140
2020/01/31 13:04:09.9	115.380	0.150	-1.140	0.150
2020/01/31 13:04:10.0	115.390	0.180	-1.160	0.170
2020/01/31 13:04:10.1	115.400	0.210	-1.170	0.180
2020/01/31 13:04:10.2	115.420	0.240	-1.180	0.200
2020/01/31 13:04:10.3	115.430	0.270	-1.180	0.220
2020/01/31 13:04:10.4	115.450	0.290	-1.170	0.240
2020/01/31 13:04:10.5	115.470	0.310	-1.150	0.260
2020/01/31 13:04:10.6	115.480	0.330	-1.130	0.280
2020/01/31 13:04:10.7	115.490	0.340	-1.100	0.300
2020/01/31 13:04:10.8	115.510	0.360	-1.060	0.320
2020/01/31 13:04:10.9	115.520	0.360	-1.010	0.340
2020/01/31 13:04:11.0	115.530	0.370	-0.960	0.360
2020/01/31 13:04:11.1	115.540	0.370	-0.910	0.380
2020/01/31 13:04:11.2	115.550	0.380	-0.850	0.390
2020/01/31 13:04:11.3	115.560	0.370	-0.780	0.410
2020/01/31 13:04:11.4	115.570	0.370	-0.720	0.420
2020/01/31 13:04:11.5	115.570	0.360	-0.640	0.440
2020/01/31 13:04:11.6	115.580	0.360	-0.570	0.450
2020/01/31 13:04:11.7	115.590	0.350	-0.490	0.460
2020/01/31 13:04:11.8	115.600	0.340	-0.410	0.460
2020/01/31 13:04:11.9	115.610	0.320	-0.340	0.470
2020/01/31 13:04:12.0	115.620	0.310	-0.260	0.470
2020/01/31 13:04:12.1	115.630	0.300	-0.180	0.480
2020/01/31 13:04:12.2	115.640	0.280	-0.100	0.480
2020/01/31 13:04:12.3	115.650	0.260	-0.020	0.480
2020/01/31 13:04:12.4	115.660	0.250	0.060	0.480
2020/01/31 13:04:12.5	115.680	0.230	0.130	0.480
2020/01/31 13:04:12.6	115.690	0.210	0.200	0.480
2020/01/31 13:04:12.7	115.700	0.200	0.270	0.480
2020/01/31 13:04:12.8	115.700	0.180	0.330	0.480
2020/01/31 13:04:12.9	115.710	0.160	0.390	0.480
2020/01/31 13:04:13.0	115.720	0.150	0.440	0.480
2020/01/31 13:04:13.1	115.720	0.130	0.490	0.490
2020/01/31 13:04:13.2	115.730	0.120	0.540	0.490
2020/01/31 13:04:13.3	115.730	0.100	0.570	0.500
2020/01/31 13:04:13.4	115.730	0.090	0.610	0.510
2020/01/31 13:04:13.5	115.730	0.070	0.640	0.520
2020/01/31 13:04:13.6	115.740	0.060	0.660	0.530
2020/01/31 13:04:13.7	115.740	0.050	0.680	0.540
2020/01/31 13:04:13.8	115.740	0.040	0.690	0.560
2020/01/31 13:04:13.9	115.740	0.030	0.700	0.570
2020/01/31 13:04:14.0	115.740	0.020	0.710	0.590
2020/01/31 13:04:14.1	115.740	0.010	0.700	0.610
2020/01/31 13:04:14.2	115.740	0.000	0.700	0.630
2020/01/31 13:04:14.3	115.740	-0.010	0.690	0.650
2020/01/31 13:04:14.4	115.740	-0.020	0.680	0.670
2020/01/31 13:04:14.5	115.730	-0.020	0.660	0.690
2020/01/31 13:04:14.6	115.730	-0.030	0.640	0.710
2020/01/31 13:04:14.7	115.730	-0.040	0.620	0.740
2020/01/31 13:04:14.8	115.730	-0.040	0.590	0.760
2020/01/31 13:04:14.9	115.730	-0.050	0.560	0.780
2020/01/31 13:04:15.0	115.730	-0.060	0.530	0.800
2020/01/31 13:04:15.1	115.730	-0.060	0.500	0.830
2020/01/31 13:04:15.2	115.730	-0.070	0.460	0.850
2020/01/31 13:04:15.3	115.730	-0.080	0.420	0.870
2020/01/31 13:04:15.4	115.720	-0.080	0.380	0.890
2020/01/31 13:04:15.5	115.720	-0.090	0.340	0.910
2020/01/31 13:04:15.6	115.720	-0.090	0.300	0.930
2020/01/31 13:04:15.7	115.720	-0.100	0.250	0.950
2020/01/31 13:04:15.8	115.710	-0.110	0.200	0.970
2020/01/31 13:04:15.9	115.710	-0.110	0.150	0.990
2020/01/31 13:04:16.0	115.700	-0.120	0.110	1.010
2020/01/31 13:04:16.1	115.690	-0.120	0.050	1.030
2020/01/31 13:04:16.2	115.690	-0.130	0.000	1.050
2020/01/31 13:04:16.3	115.680	-0.130	-0.050	1.060
2020/01/31 13:04:16.4	115.670	-0.140	-0.100	1.080
2020/01/31 13:04:16.5	115.670	-0.140	-0.160	1.090
2020/01/31 13:04:16.6	115.660	-0.140	-0.210	1.110
2020/01/31 13:04:16.7	115.650	-0.150	-0.260	1.120
2020/01/31 13:04:16.8	115.640	-0.150	-0.310	1.130
2020/01/31 13:04:16.9	115.630	-0.150	-0.370	1.140
2020/01/31 13:04:17.0	115.630	-0.150	-0.420	1.160
2020/01/31 13:04:17.1	115.620	-0.150	-0.470	1.160
2020/01/31 13:04:17.2	115.610	-0.140	-0.520	1.170
2020/01/31 13:04:17.3	115.610	-0.140	-0.560	1.180
2020/01/31 13:04:17.4	115.600	-0.140	-0.610	1.190
2020/01/31 13:04:17.5	115.600	-0.130	-0.660	1.190
2020/01/31 13:04:17.6	115.600	-0.130	-0.700	1.200
2020/01/31 13:04:17.7	115.600	-0.120	-0.740	1.200
2020/01/31 13:04:17.8	115.600	-0.110	-0.780	1.200
2020/01/31 13:04:17.9	115.600	-0.100	-0.810	1.200
2020/01/31 13:04:18.0	115.600	-0.090	-0.840	1.200
2020/01/31 13:04:18.1	115.600	-0.080	-0.870	1.210
2020/01/31 13:04:18.2	115.610	-0.070	-0.900	1.210
2020/01/31 13:04:18.3	115.610	-0.050	-0.920	1.210
2020/01/31 13:04:18.4	115.610	-0.040	-0.940	1.210
2020/01/31 13:04:18.5	115.610	-0.020	-0.950	1.210
2020/01/31 13:04:18.6	115.620	-0.010	-0.970	1.220
2020/01/31 13:04:18.7	115.620	0.010	-0.980	1.220
2020/01/31 13:04:18.8	115.620	0.020	-0.980	1.230
2020/01/31 13:04:18.9	115.620	0.040	-0.980	1.230
2020/01/31 13:04:19.0	115.620	0.050	-0.980	1.240
2020/01/31 13:04:19.1	115.620	0.070	-0.980	1.250
2020/01/31 13:04:19.2	115.610	0.080	-0.970	1.260
2020/01/31 13:04:19.3	115.610	0.090	-0.960	1.260
2020/01/31 13:04:19.4	115.610	0.110	-0.940	1.270
2020/01/31 13:04:19.5	115.590	0.120	-0.920	1.280
2020/01/31 13:04:19.6	115.590	0.130	-0.900	1.290
2020/01/31 13:04:19.7	115.580	0.140	-0.870	1.300
2020/01/31 13:04:19.8	115.570	0.150	-0.840	1.300
2020/01/31 13:04:19.9	115.570	0.160	-0.800	1.310
2020/01/31 13:04:20.0	115.560	0.160	-0.760	1.310
2020/01/31 13:04:20.1	115.550	0.160	-0.720	1.310
2020/01/31 13:04:20.2	115.550	0.170	-0.670	1.310
2020/01/31 13:04:20.3	115.540	0.170	-0.620	1.300
2020/01/31 13:04:20.4	115.530	0.170	-0.570	1.300
2020/01/31 13:04:20.5	115.530	0.160	-0.510	1.290
2020/01/31 13:04:20.6	115.530	0.160	-0.450	1.280
2020/01/31 13:04:20.7	115.520	0.150	-0.390	1.260
2020/01/31 13:04:20.8	115.520	0.150	-0.330	1.240
2020/01/31 13:04:20.9	115.520	0.140	-0.270	1.220
2020/01/31 13:04:21.0	115.520	0.130	-0.200	1.190
2020/01/31 13:04:21.1	115.530	0.110	-0.140	1.160
2020/01/31 13:04:21.2	115.530	0.100	-0.070	1.130
2020/01/31 13:04:21.3	115.530	0.090	-0.000	1.090
2020/01/31 13:04:21.4	115.540	0.070	0.060	1.050
2020/01/31 13:04:21.5	115.550	0.060	0.130	1.010
2020/01/31 13:04:21.6	115.560	0.040	0.200	0.960
2020/01/31 13:04:21.7	115.570	0.030	0.260	0.910
2020/01/31 13:04:21.8	115.580	0.010	0.320	0.860
2020/01/31 13:04:21.9	115.600	-0.010	0.380	0.810
2020/01/31 13:04:22.0	115.610	-0.020	0.440	0.760
2020/01/31 13:04:22.1	115.620	-0.040	0.490	0.700
2020/01/31 13:04:22.2	115.640	-0.050	0.540	0.640
2020/01/31 13:04:22.3	115.650	-0.060	0.590	0.590
2020/01/31 13:04:22.4	115.670	-0.080	0.630	0.530
2020/01/31 13:04:22.5	115.690	-0.090	0.670	0.480
2020/01/31 13:04:22.6	115.700	-0.100	0.700	0.430
2020/01/31 13:04:22.7	115.710	-0.110	0.730	0.380
2020/01/31 13:04:22.8	115.720	-0.120	0.760	0.330
2020/01/31 13:04:22.9	115.730	-0.130	0.780	0.280
2020/01/31 13:04:23.0	115.740	-0.130	0.790	0.240
2020/01/31 13:04:23.1	115.740	-0.140	0.800	0.200
2020/01/31 13:04:23.2	115.740	-0.140	0.800	0.170
2020/01/31 13:04:23.3	115.740	-0.140	0.800	0.130
2020/01/31 13:04:23.4	115.740	-0.140	0.800	0.110
2020/01/31 13:04:23.5	115.730	-0.140	0.780	0.080
2020/01/31 13:04:23.6	115.730	-0.130	0.760	0.060
2020/01/31 13:04:23.7	115.720	-0.130	0.740	0.040
2020/01/31 13:04:23.8	115.700	-0.120	0.720	0.030
2020/01/31 13:04:23.9	115.690	-0.110	0.690	0.010
2020/01/31 13:04:24.0	115.670	-0.110	0.650	0.000
2020/01/31 13:04:24.1	115.660	-0.100	0.610	-0.010
2020/01/31 13:04:24.2	115.640	-0.090	0.570	-0.010
2020/01/31 13:04:24.3	115.610	-0.080	0.520	-0.020
2020/01/31 13:04:24.4	115.590	-0.060	0.480	-0.020
2020/01/31 13:04:24.5	115.570	-0.050	0.420	-0.030
2020/01/31 13:04:24.6	115.540	-0.040	0.370	-0.030
2020/01/31 13:04:24.7	115.520	-0.030	0.310	-0.030
2020/01/31 13:04:24.8	115.490	-0.020	0.250	-0.040
2020/01/31 13:04:24.9	115.460	-0.000	0.190	-0.040
2020/01/31 13:04:25.0	115.430	0.010	0.130	-0.040
2020/01/31 13:04:25.1	115.400	0.020	0.060	-0.040
2020/01/31 13:04:25.2	115.370	0.030	-0.000	-0.050
2020/01/31 13:04:25.3	115.340	0.040	-0.070	-0.050
2020/01/31 13:04:25.4	115.310	0.050	-0.130	-0.050
2020/01/31 13:04:25.5	115.280	0.060	-0.200	-0.050
2020/01/31 13:04:25.6	115.240	0.070	-0.260	-0.060
2020/01/31 13:04:25.7	115.210	0.080	-0.330	-0.060
2020/01/31 13:04:25.8	115.180	0.090	-0.400	-0.060
2020/01/31 13:04:25.9	115.150	0.100	-0.460	-0.060
2020/01/31 13:04:26.0	115.120	0.100	-0.520	-0.060
2020/01/31 13:04:26.1	115.090	0.110	-0.580	-0.060
2020/01/31 13:04:26.2	115.060	0.120	-0.640	-0.060
2020/01/31 13:04:26.3	115.040	0.120	-0.700	-0.050
2020/01/31 13:04:26.4	115.010	0.120	-0.750	-0.050
2020/01/31 13:04:26.5	114.980	0.130	-0.800	-0.040
2020/01/31 13:04:26.6	114.960	0.130	-0.850	-0.030
2020/01/31 13:04:26.7	114.950	0.130	-0.890	-0.020
2020/01/31 13:04:26.8	114.930	0.130	-0.930	-0.010
2020/01/31 13:04:26.9	114.910	0.130	-0.970	0.010
2020/01/31 13:04:27.0	114.900	0.130	-1.000	0.030
2020/01/31 13:04:27.1	114.890	0.120	-1.030	0.050
2020/01/31 13:04:27.2	114.880	0.120	-1.050	0.080
2020/01/31 13:04:27.3	114.880	0.120	-1.060	0.100
2020/01/31 13:04:27.4	114.880	0.110	-1.070	0.130
2020/01/31 13:04:27.5	114.870	0.100	-1.080	0.160
2020/01/31 13:04:27.6	114.870	0.100	-1.080	0.190
2020/01/31 13:04:27.7	114.870	0.090	-1.080	0.230
2020/01/31 13:04:27.8	114.880	0.080	-1.070	0.270
2020/01/31 13:04:27.9	114.880	0.070	-1.050	0.300
2020/01/31 13:04:28.0	114.890	0.060	-1.030	0.340
2020/01/31 13:04:28.1	114.900	0.050	-1.010	0.380
2020/01/31 13:04:28.2	114.920	0.040	-0.980	0.420
2020/01/31 13:04:28.3	114.930	0.030	-0.950	0.470
2020/01/31 13:04:28.4	114.940	0.020	-0.920	0.510
2020/01/31 13:04:28.5	114.960	0.010	-0.880	0.550
2020/01/31 13:04:28.6	114.970	-0.000	-0.840	0.590
2020/01/31 13:04:28.7	114.990	-0.020	-0.800	0.630
2020/01/31 13:04:28.8	115.010	-0.030	-0.750	0.670
2020/01/31 13:04:28.9	115.030	-0.040	-0.710	0.710
2020/01/31 13:04:29.0	115.040	-0.050	-0.660	0.750
2020/01/31 13:04:29.1	115.060	-0.060	-0.610	0.780
2020/01/31 13:04:29.2	115.080	-0.070	-0.560	0.820
2020/01/31 13:04:29.3	115.100	-0.080	-0.520	0.850
2020/01/31 13:04:29.4	115.120	-0.090	-0.470	0.880
2020/01/31 13:04:29.5	115.130	-0.100	-0.420	0.910
2020/01/31 13:04:29.6	115.150	-0.110	-0.370	0.930
2020/01/31 13:04:29.7	115.160	-0.110	-0.330	0.960
2020/01/31 13:04:29.8	115.170	-0.120	-0.280	0.980
2020/01/31 13:04:29.9	115.180	-0.120	-0.240	1.000
2020/01/31 13:04:30.0	115.190	-0.120	-0.200	1.020
2020/01/31 13:04:30.1	115.200	-0.120	-0.150	1.040
2020/01/31 13:04:30.2	115.200	-0.120	-0.110	1.060
2020/01/31 13:04:30.3	115.210	-0.120	-0.070	1.070
2020/01/31 13:04:30.4	115.210	-0.120	-0.040	1.090
2020/01/31 13:04:30.5	115.210	-0.120	0.010	1.110
2020/01/31 13:04:30.6	115.210	-0.110	0.040	1.120
2020/01/31 13:04:30.7	115.200	-0.110	0.080	1.140
2020/01/31 13:04:30.8	115.190	-0.100	0.110	1.160
2020/01/31 13:04:30.9	115.180	-0.100	0.140	1.170
2020/01/31 13:04:31.0	115.160	-0.090	0.180	1.190
2020/01/31 13:04:31.1	115.140	-0.080	0.210	1.210
2020/01/31 13:04:31.2	115.120	-0.070	0.240	1.230
2020/01/31 13:04:31.3	115.090	-0.060	0.270	1.250
2020/01/31 13:04:31.4	115.070	-0.060	0.300	1.280
2020/01/31 13:04:31.5	115.030	-0.050	0.320	1.300
2020/01/31 13:04:31.6	115.000	-0.040	0.350	1.320
2020/01/31 13:04:31.7	114.960	-0.030	0.380	1.340
2020/01/31 13:04:31.8	114.930	-0.020	0.400	1.370
2020/01/31 13:04:31.9	114.890	-0.020	0.430	1.390
2020/01/31 13:04:32.0	114.860	-0.010	0.450	1.410
2020/01/31 13:04:32.1	114.820	-0.000	0.470	1.440
2020/01/31 13:04:32.2	114.780	0.000	0.490	1.460
2020/01/31 13:04:32.3	114.740	0.010	0.510	1.480
2020/01/31 13:04:32.4	114.700	0.010	0.520	1.500
2020/01/31 13:04:32.5	114.660	0.010	0.540	1.520
2020/01/31 13:04:32.6	114.630	0.020	0.550	1.530
2020/01/31 13:04:32.7	114.590	0.020	0.560	1.550
2020/01/31 13:04:32.8	114.560	0.020	0.570	1.560
2020/01/31 13:04:32.9	114.520	0.020	0.570	1.570
2020/01/31 13:04:33.0	114.490	0.020	0.570	1.570
2020/01/31 13:04:33.1	114.460	0.020	0.570	1.570
2020/01/31 13:04:33.2	114.430	0.020	0.570	1.570
2020/01/31 13:04:33.3	114.400	0.020	0.560	1.560
2020/01/31 13:04:33.4	114.380	0.010	0.560	1.550
2020/01/31 13:04:33.5	114.360	0.010	0.540	1.540
2020/01/31 13:04:33.6	114.340	0.010	0.530	1.510
2020/01/31 13:04:33.7	114.320	0.000	0.520	1.490
2020/01/31 13:04:33.8	114.310	-0.000	0.500	1.460
2020/01/31 13:04:33.9	114.290	-0.000	0.480	1.430
2020/01/31 13:04:34.0	114.290	-0.010	0.460	1.390
2020/01/31 13:04:34.1	114.280	-0.010	0.430	1.340
2020/01/31 13:04:34.2	114.280	-0.010	0.410	1.290
2020/01/31 13:04:34.3	114.280	-0.020	0.380	1.240
2020/01/31 13:04:34.4	114.280	-0.020	0.350	1.180
2020/01/31 13:04:34.5	114.280	-0.020	0.320	1.120
2020/01/31 13:04:34.6	114.290	-0.020	0.280	1.050
2020/01/31 13:04:34.7	114.300	-0.020	0.240	0.980
2020/01/31 13:04:34.8	114.310	-0.020	0.210	0.910
2020/01/31 13:04:34.9	114.320	-0.020	0.170	0.840
2020/01/31 13:04:35.0	114.330	-0.020	0.120	0.760
2020/01/31 13:04:35.1	114.340	-0.020	0.080	0.680
2020/01/31 13:04:35.2	114.360	-0.010	0.030	0.600
2020/01/31 13:04:35.3	114.370	-0.010	-0.020	0.520
2020/01/31 13:04:35.4	114.380	-0.000	-0.060	0.450
2020/01/31 13:04:35.5	114.400	0.000	-0.110	0.370
2020/01/31 13:04:35.6	114.410	0.010	-0.170	0.290
2020/01/31 13:04:35.7	114.420	0.020	-0.220	0.220
2020/01/31 13:04:35.8	114.430	0.030	-0.270	0.150
2020/01/31 13:04:35.9	114.440	0.040	-0.330	0.080
2020/01/31 13:04:36.0	114.440	0.050	-0.380	0.020
2020/01/31 13:04:36.1	114.450	0.060	-0.430	-0.040
2020/01/31 13:04:36.2	114.450	0.070	-0.490	-0.100
2020/01/31 13:04:36.3	114.440	0.080	-0.540	-0.150
2020/01/31 13:04:36.4	114.440	0.090	-0.590	-0.190
2020/01/31 13:04:36.5	114.430	0.100	-0.640	-0.230
2020/01/31 13:04:36.6	114.420	0.120	-0.690	-0.260
2020/01/31 13:04:36.7	114.410	0.130	-0.740	-0.280
2020/01/31 13:04:36.8	114.390	0.140	-0.780	-0.300
2020/01/31 13:04:36.9	114.380	0.150	-0.820	-0.320
2020/01/31 13:04:37.0	114.360	0.170	-0.850	-0.330
2020/01/31 13:04:37.1	114.340	0.180	-0.880	-0.330
2020/01/31 13:04:37.2	114.310	0.190	-0.910	-0.330
2020/01/31 13:04:37.3	114.290	0.200	-0.940	-0.320
2020/01/31 13:04:37.4	114.260	0.210	-0.960	-0.310
2020/01/31 13:04:37.5	114.240	0.210	-0.970	-0.290
2020/01/31 13:04:37.6	114.210	0.220	-0.980	-0.270
2020/01/31 13:04:37.7	114.180	0.230	-0.990	-0.250
2020/01/31 13:04:37.8	114.150	0.230	-1.000	-0.220
2020/01/31 13:04:37.9	114.120	0.240	-0.990	-0.190
2020/01/31 13:04:38.0	114.080	0.240	-0.990	-0.160
2020/01/31 13:04:38.1	114.050	0.240	-0.980	-0.120
2020/01/31 13:04:38.2	114.010	0.250	-0.970	-0.080
2020/01/31 13:04:38.3	113.980	0.240	-0.950	-0.040
2020/01/31 13:04:38.4	113.940	0.240	-0.930	-0.000
2020/01/31 13:04:38.5	113.920	0.240	-0.900	0.040
2020/01/31 13:04:38.6	113.880	0.240	-0.870	0.090
2020/01/31 13:04:38.7	113.850	0.230	-0.840	0.140
2020/01/31 13:04:38.8	113.810	0.220	-0.810	0.180
2020/01/31 13:04:38.9	113.770	0.220	-0.770	0.230
2020/01/31 13:04:39.0	113.730	0.210	-0.730	0.280
2020/01/31 13:04:39.1	113.700	0.200	-0.690	0.330
2020/01/31 13:04:39.2	113.660	0.190	-0.640	0.380
2020/01/31 13:04:39.3	113.620	0.170	-0.590	0.420
2020/01/31 13:04:39.4	113.590	0.160	-0.550	0.470
2020/01/31 13:04:39.5	113.560	0.140	-0.500	0.520
2020/01/31 13:04:39.6	113.530	0.130	-0.450	0.570
2020/01/31 13:04:39.7	113.500	0.110	-0.400	0.610
2020/01/31 13:04:39.8	113.470	0.090	-0.340	0.660
2020/01/31 13:04:39.9	113.440	0.080	-0.290	0.700
2020/01/31 13:04:40.0	113.410	0.060	-0.240	0.740
2020/01/31 13:04:40.1	113.390	0.040	-0.190	0.780
2020/01/31 13:04:40.2	113.370	0.020	-0.140	0.820
2020/01/31 13:04:40.3	113.350	-0.000	-0.090	0.860
2020/01/31 13:04:40.4	113.330	-0.020	-0.040	0.890
2020/01/31 13:04:40.5	113.320	-0.050	0.000	0.930
2020/01/31 13:04:40.6	113.300	-0.070	0.050	0.960
2020/01/31 13:04:40.7	113.300	-0.090	0.090	0.990
2020/01/31 13:04:40.8	113.290	-0.110	0.140	1.020
2020/01/31 13:04:40.9	113.280	-0.130	0.180	1.050
2020/01/31 13:04:41.0	113.280	-0.160	0.210	1.080
2020/01/31 13:04:41.1	113.270	-0.180	0.250	1.100
2020/01/31 13:04:41.2	113.270	-0.200	0.280	1.130
2020/01/31 13:04:41.3	113.270	-0.220	0.310	1.150
2020/01/31 13:04:41.4	113.270	-0.240	0.330	1.180
2020/01/31 13:04:41.5	113.280	-0.260	0.350	1.200
2020/01/31 13:04:41.6	113.280	-0.280	0.370	1.220
2020/01/31 13:04:41.7	113.280	-0.300	0.390	1.240
2020/01/31 13:04:41.8	113.280	-0.320	0.400	1.260
2020/01/31 13:04:41.9	113.280	-0.330	0.410	1.280
2020/01/31 13:04:42.0	113.280	-0.340	0.420	1.290
2020/01/31 13:04:42.1	113.280	-0.360	0.420	1.310
2020/01/31 13:04:42.2	113.280	-0.370	0.420	1.320
2020/01/31 13:04:42.3	113.280	-0.380	0.420	1.330
2020/01/31 13:04:42.4	113.270	-0.390	0.410	1.340
2020/01/31 13:04:42.5	113.270	-0.390	0.400	1.350
2020/01/31 13:04:42.6	113.270	-0.400	0.390	1.360
2020/01/31 13:04:42.7	113.260	-0.400	0.370	1.360
2020/01/31 13:04:42.8	113.250	-0.400	0.360	1.360
2020/01/31 13:04:42.9	113.240	-0.400	0.340	1.370
2020/01/31 13:04:43.0	113.220	-0.400	0.320	1.370
2020/01/31 13:04:43.1	113.210	-0.390	0.290	1.360
2020/01/31 13:04:43.2	113.200	-0.390	0.270	1.360
2020/01/31 13:04:43.3	113.180	-0.380	0.250	1.360
2020/01/31 13:04:43.4	113.160	-0.370	0.220	1.350
2020/01/31 13:04:43.5	113.150	-0.360	0.200	1.340
2020/01/31 13:04:43.6	113.130	-0.350	0.180	1.330
2020/01/31 13:04:43.7	113.110	-0.330	0.150	1.320
2020/01/31 13:04:43.8	113.090	-0.320	0.130	1.310
2020/01/31 13:04:43.9	113.070	-0.300	0.100	1.290
2020/01/31 13:04:44.0	113.050	-0.290	0.080	1.280
2020/01/31 13:04:44.1	113.020	-0.270	0.060	1.260
2020/01/31 13:04:44.2	113.000	-0.250	0.030	1.240
2020/01/31 13:04:44.3	112.970	-0.230	0.010	1.230
2020/01/31 13:04:44.4	112.950	-0.200	-0.010	1.210
2020/01/31 13:04:44.5	112.930	-0.180	-0.030	1.190
2020/01/31 13:04:44.6	112.910	-0.160	-0.050	1.160
2020/01/31 13:04:44.7	112.880	-0.130	-0.070	1.140
2020/01/31 13:04:44.8	112.860	-0.110	-0.090	1.120
2020/01/31 13:04:44.9	112.830	-0.080	-0.110	1.090
2020/01/31 13:04:45.0	112.810	-0.060	-0.140	1.070
2020/01/31 13:04:45.1	112.780	-0.030	-0.160	1.040
2020/01/31 13:04:45.2	112.760	-0.000	-0.180	1.020
2020/01/31 13:04:45.3	112.730	0.020	-0.200	0.990
2020/01/31 13:04:45.4	112.710	0.050	-0.220	0.960
2020/01/31 13:04:45.5	112.690	0.080	-0.250	0.940
2020/01/31 13:04:45.6	112.670	0.110	-0.270	0.910
2020/01/31 13:04:45.7	112.640	0.140	-0.300	0.880
2020/01/31 13:04:45.8	112.620	0.160	-0.320	0.850
2020/01/31 13:04:45.9	112.600	0.190	-0.350	0.830
2020/01/31 13:04:46.0	112.580	0.220	-0.370	0.800
2020/01/31 13:04:46.1	112.550	0.240	-0.400	0.770
2020/01/31 13:04:46.2	112.530	0.270	-0.420	0.740
2020/01/31 13:04:46.3	112.510	0.290	-0.440	0.710
2020/01/31 13:04:46.4	112.490	0.320	-0.470	0.670
2020/01/31 13:04:46.5	112.480	0.340	-0.490	0.640
2020/01/31 13:04:46.6	112.460	0.360	-0.510	0.610
2020/01/31 13:04:46.7	112.440	0.380	-0.530	0.580
2020/01/31 13:04:46.8	112.430	0.390	-0.540	0.550
2020/01/31 13:04:46.9	112.410	0.410	-0.550	0.520
2020/01/31 13:04:47.0	112.400	0.420	-0.560	0.490
2020/01/31 13:04:47.1	112.380	0.430	-0.570	0.450
2020/01/31 13:04:47.2	112.370	0.440	-0.580	0.420
2020/01/31 13:04:47.3	112.360	0.450	-0.580	0.390
2020/01/31 13:04:47.4	112.340	0.450	-0.570	0.360
2020/01/31 13:04:47.5	112.330	0.450	-0.570	0.330
2020/01/31 13:04:47.6	112.310	0.450	-0.560	0.300
2020/01/31 13:04:47.7	112.300	0.440	-0.540	0.280
2020/01/31 13:04:47.8	112.290	0.430	-0.530	0.250
2020/01/31 13:04:47.9	112.280	0.420	-0.500	0.220
2020/01/31 13:04:48.0	112.260	0.410	-0.480	0.200
2020/01/31 13:04:48.1	112.250	0.400	-0.450	0.170
2020/01/31 13:04:48.2	112.240	0.380	-0.420	0.150
2020/01/31 13:04:48.3	112.220	0.360	-0.380	0.130
2020/01/31 13:04:48.4	112.210	0.340	-0.350	0.110
2020/01/31 13:04:48.5	112.190	0.310	-0.310	0.080
2020/01/31 13:04:48.6	112.170	0.290	-0.260	0.060
2020/01/31 13:04:48.7	112.160	0.260	-0.220	0.050
2020/01/31 13:04:48.8	112.140	0.230	-0.180	0.030
2020/01/31 13:04:48.9	112.120	0.200	-0.130	0.020
2020/01/31 13:04:49.0	112.100	0.170	-0.080	0.000
2020/01/31 13:04:49.1	112.080	0.140	-0.040	-0.010
2020/01/31 13:04:49.2	112.060	0.110	0.010	-0.020
2020/01/31 13:04:49.3	112.040	0.080	0.050	-0.030
2020/01/31 13:04:49.4	112.020	0.040	0.100	-0.030
2020/01/31 13:04:49.5	111.990	0.010	0.140	-0.040
2020/01/31 13:04:49.6	111.970	-0.020	0.180	-0.040
2020/01/31 13:04:49.7	111.940	-0.050	0.210	-0.040
2020/01/31 13:04:49.8	111.920	-0.080	0.240	-0.040
2020/01/31 13:04:49.9	111.890	-0.110	0.270	-0.040
2020/01/31 13:04:50.0	111.860	-0.140	0.300	-0.040
2020/01/31 13:04:50.1	111.830	-0.160	0.310	-0.030
2020/01/31 13:04:50.2	111.800	-0.190	0.330	-0.020
2020/01/31 13:04:50.3	111.770	-0.210	0.340	-0.010
2020/01/31 13:04:50.4	111.730	-0.230	0.340	-0.000
2020/01/31 13:04:50.5	111.700	-0.240	0.340	0.010
2020/01/31 13:04:50.6	111.660	-0.260	0.330	0.030
2020/01/31 13:04:50.7	111.630	-0.270	0.320	0.040
2020/01/31 13:04:50.8	111.600	-0.280	0.310	0.060
2020/01/31 13:04:50.9	111.570	-0.290	0.280	0.080
2020/01/31 13:04:51.0	111.530	-0.290	0.260	0.110
2020/01/31 13:04:51.1	111.500	-0.300	0.220	0.130
2020/01/31 13:04:51.2	111.470	-0.300	0.190	0.160
2020/01/31 13:04:51.3	111.440	-0.290	0.150	0.190
2020/01/31 13:04:51.4	111.410	-0.290	0.110	0.230
2020/01/31 13:04:51.5	111.350	-0.280	0.060	0.260
2020/01/31 13:04:51.6	111.320	-0.270	0.010	0.300
2020/01/31 13:04:51.7	111.290	-0.260	-0.040	0.340
2020/01/31 13:04:51.8	111.260	-0.250	-0.090	0.380
2020/01/31 13:04:51.9	111.230	-0.240	-0.140	0.420
2020/01/31 13:04:52.0	111.210	-0.220	-0.200	0.460
2020/01/31 13:04:52.1	111.180	-0.210	-0.250	0.500
2020/01/31 13:04:52.2	111.150	-0.190	-0.300	0.550
2020/01/31 13:04:52.3	111.120	-0.180	-0.350	0.590
2020/01/31 13:04:52.4	111.100	-0.160	-0.400	0.640
2020/01/31 13:04:52.5	111.080	-0.150	-0.450	0.680
2020/01/31 13:04:52.6	111.050	-0.130	-0.490	0.730
2020/01/31 13:04:52.7	111.030	-0.120	-0.530	0.770
2020/01/31 13:04:52.8	111.000	-0.100	-0.570	0.810
2020/01/31 13:04:52.9	110.980	-0.090	-0.610	0.850
2020/01/31 13:04:53.0	110.960	-0.080	-0.640	0.890
2020/01/31 13:04:53.1	110.930	-0.070	-0.660	0.930
2020/01/31 13:04:53.2	110.910	-0.060	-0.680	0.970
2020/01/31 13:04:53.3	110.890	-0.050	-0.700	1.000
2020/01/31 13:04:53.4	110.870	-0.040	-0.710	1.030
2020/01/31 13:04:53.5	110.860	-0.030	-0.720	1.060
2020/01/31 13:04:53.6	110.840	-0.030	-0.720	1.090
2020/01/31 13:04:53.7	110.820	-0.020	-0.720	1.110
2020/01/31 13:04:53.8	110.810	-0.020	-0.720	1.130
2020/01/31 13:04:53.9	110.790	-0.020	-0.700	1.150
2020/01/31 13:04:54.0	110.780	-0.020	-0.690	1.160
2020/01/31 13:04:54.1	110.760	-0.020	-0.670	1.180
2020/01/31 13:04:54.2	110.750	-0.020	-0.640	1.180
2020/01/31 13:04:54.3	110.740	-0.020	-0.620	1.190
2020/01/31 13:04:54.4	110.730	-0.030	-0.580	1.190
2020/01/31 13:04:54.5	110.710	-0.030	-0.550	1.190
2020/01/31 13:04:54.6	110.700	-0.030	-0.510	1.190
2020/01/31 13:04:54.7	110.700	-0.040	-0.470	1.190
2020/01/31 13:04:54.8	110.690	-0.040	-0.430	1.180
2020/01/31 13:04:54.9	110.690	-0.040	-0.380	1.170
2020/01/31 13:04:55.0	110.690	-0.050	-0.330	1.160
2020/01/31 13:04:55.1	110.690	-0.050	-0.290	1.150
2020/01/31 13:04:55.2	110.680	-0.050	-0.240	1.140
2020/01/31 13:04:55.3	110.680	-0.060	-0.190	1.130
2020/01/31 13:04:55.4	110.680	-0.060	-0.140	1.110
2020/01/31 13:04:55.5	110.680	-0.070	-0.080	1.100
2020/01/31 13:04:55.6	110.680	-0.070	-0.030	1.080
2020/01/31 13:04:55.7	110.680	-0.070	0.020	1.070
2020/01/31 13:04:55.8	110.670	-0.080	0.060	1.050
2020/01/31 13:04:55.9	110.660	-0.080	0.110	1.030
2020/01/31 13:04:56.0	110.650	-0.090	0.150	1.020
2020/01/31 13:04:56.1	110.640	-0.090	0.190	1.010
2020/01/31 13:04:56.2	110.630	-0.090	0.230	0.990
2020/01/31 13:04:56.3	110.610	-0.100	0.270	0.980
2020/01/31 13:04:56.4	110.600	-0.100	0.300	0.970
2020/01/31 13:04:56.5	110.580	-0.110	0.330	0.960
2020/01/31 13:04:56.6	110.550	-0.110	0.360	0.950
2020/01/31 13:04:56.7	110.530	-0.120	0.390	0.940
2020/01/31 13:04:56.8	110.500	-0.120	0.410	0.930
2020/01/31 13:04:56.9	110.470	-0.130	0.430	0.920
2020/01/31 13:04:57.0	110.440	-0.130	0.440	0.910
2020/01/31 13:04:57.1	110.400	-0.130	0.460	0.900
2020/01/31 13:04:57.2	110.360	-0.140	0.470	0.900
2020/01/31 13:04:57.3	110.320	-0.140	0.470	0.890
2020/01/31 13:04:57.4	110.280	-0.140	0.470	0.880
2020/01/31 13:04:57.5	110.240	-0.150	0.470	0.880
2020/01/31 13:04:57.6	110.190	-0.150	0.460	0.880
2020/01/31 13:04:57.7	110.140	-0.150	0.450	0.870
2020/01/31 13:04:57.8	110.090	-0.150	0.440	0.860
2020/01/31 13:04:57.9	110.040	-0.150	0.430	0.860
2020/01/31 13:04:58.0	109.980	-0.150	0.410	0.850
2020/01/31 13:04:58.1	109.930	-0.150	0.380	0.850
2020/01/31 13:04:58.2	109.870	-0.140	0.360	0.840
2020/01/31 13:04:58.3	109.820	-0.140	0.330	0.830
2020/01/31 13:04:58.4	109.770	-0.130	0.300	0.820
2020/01/31 13:04:58.5	109.720	-0.130	0.260	0.810
2020/01/31 13:04:58.6	109.660	-0.120	0.220	0.800
2020/01/31 13:04:58.7	109.610	-0.110	0.180	0.780
2020/01/31 13:04:58.8	109.560	-0.100	0.140	0.760
2020/01/31 13:04:58.9	109.510	-0.080	0.090	0.740
2020/01/31 13:04:59.0	109.470	-0.070	0.050	0.720
2020/01/31 13:04:59.1	109.420	-0.050	-0.000	0.700
2020/01/31 13:04:59.2	109.380	-0.040	-0.050	0.670
2020/01/31 13:04:59.3	109.340	-0.020	-0.100	0.650
2020/01/31 13:04:59.4	109.300	-0.000	-0.160	0.620
2020/01/31 13:04:59.5	109.270	0.010	-0.210	0.590
2020/01/31 13:04:59.6	109.240	0.030	-0.260	0.550
2020/01/31 13:04:59.7	109.210	0.050	-0.320	0.520
2020/01/31 13:04:59.8	109.190	0.070	-0.370	0.480
2020/01/31 13:04:59.9	109.160	0.090	-0.420	0.450
2020/01/31 13:05:00.0	109.140	0.110	-0.470	0.410
2020/01/31 13:05:00.1	109.120	0.130	-0.510	0.370
2020/01/31 13:05:00.2	109.110	0.150	-0.560	0.330
2020/01/31 13:05:00.3	109.090	0.160	-0.600	0.290
2020/01/31 13:05:00.4	109.080	0.180	-0.630	0.260
2020/01/31 13:05:00.5	109.070	0.200	-0.670	0.220
2020/01/31 13:05:00.6	109.060	0.210	-0.700	0.180
2020/01/31 13:05:00.7	109.050	0.230	-0.730	0.150
2020/01/31 13:05:00.8	109.040	0.240	-0.750	0.110
2020/01/31 13:05:00.9	109.030	0.250	-0.770	0.080
2020/01/31 13:05:01.0	109.020	0.260	-0.780	0.040
2020/01/31 13:05:01.1	109.010	0.270	-0.790	0.010
2020/01/31 13:05:01.2	109.000	0.270	-0.790	-0.020
2020/01/31 13:05:01.3	108.990	0.280	-0.800	-0.050
2020/01/31 13:05:01.4	108.980	0.280	-0.790	-0.070
2020/01/31 13:05:01.5	108.970	0.280	-0.780	-0.100
2020/01/31 13:05:01.6	108.950	0.280	-0.770	-0.120
2020/01/31 13:05:01.7	108.940	0.280	-0.760	-0.140
2020/01/31 13:05:01.8	108.920	0.280	-0.740	-0.160
2020/01/31 13:05:01.9	108.900	0.280	-0.710	-0.180
2020/01/31 13:05:02.0	108.880	0.270	-0.690	-0.200
2020/01/31 13:05:02.1	108.860	0.260	-0.660	-0.210
2020/01/31 13:05:02.2	108.830	0.260	-0.630	-0.230
2020/01/31 13:05:02.3	108.810	0.250	-0.600	-0.240
2020/01/31 13:05:02.4	108.780	0.240	-0.560	-0.250
2020/01/31 13:05:02.5	108.750	0.230	-0.530	-0.250
2020/01/31 13:05:02.6	108.720	0.220	-0.490	-0.260
2020/01/31 13:05:02.7	108.680	0.210	-0.450	-0.260
2020/01/31 13:05:02.8	108.650	0.200	-0.410	-0.260
2020/01/31 13:05:02.9	108.620	0.180	-0.370	-0.260
2020/01/31 13:05:03.0	108.580	0.170	-0.340	-0.250
2020/01/31 13:05:03.1	108.550	0.160	-0.300	-0.250
2020/01/31 13:05:03.2	108.510	0.150	-0.260	-0.240
2020/01/31 13:05:03.3	108.480	0.130	-0.230	-0.230
2020/01/31 13:05:03.4	108.440	0.120	-0.190	-0.220
2020/01/31 13:05:03.5	108.390	0.110	-0.160	-0.200
2020/01/31 13:05:03.6	108.360	0.100	-0.120	-0.190
2020/01/31 13:05:03.7	108.320	0.090	-0.100	-0.170
2020/01/31 13:05:03.8	108.290	0.080	-0.070	-0.150
2020/01/31 13:05:03.9	108.250	0.070	-0.040	-0.130
2020/01/31 13:05:04.0	108.220	0.060	-0.020	-0.110
2020/01/31 13:05:04.1	108.190	0.050	-0.000	-0.080
2020/01/31 13:05:04.2	108.150	0.050	0.020	-0.050
2020/01/31 13:05:04.3	108.120	0.040	0.040	-0.020
2020/01/31 13:05:04.4	108.090	0.030	0.050	0.010
2020/01/31 13:05:04.5	108.040	0.030	0.060	0.050
2020/01/31 13:05:04.6	108.010	0.020	0.070	0.080
2020/01/31 13:05:04.7	107.980	0.020	0.080	0.120
2020/01/31 13:05:04.8	107.950	0.020	0.090	0.160
2020/01/31 13:05:04.9	107.920	0.010	0.100	0.200
2020/01/31 13:05:05.0	107.880	0.010	0.110	0.250
2020/01/31 13:05:05.1	107.850	0.010	0.120	0.290
2020/01/31 13:05:05.2	107.820	0.000	0.120	0.340
2020/01/31 13:05:05.3	107.790	0.000	0.130	0.390
2020/01/31 13:05:05.4	107.760	-0.000	0.130	0.430
2020/01/31 13:05:05.5	107.720	-0.010	0.140	0.480
2020/01/31 13:05:05.6	107.680	-0.010	0.150	0.530
2020/01/31 13:05:05.7	107.650	-0.010	0.150	0.570
2020/01/31 13:05:05.8	107.620	-0.020	0.160	0.620
2020/01/31 13:05:05.9	107.590	-0.030	0.160	0.660
2020/01/31 13:05:06.0	107.560	-0.030	0.160	0.700
2020/01/31 13:05:06.1	107.540	-0.040	0.170	0.740
2020/01/31 13:05:06.2	107.510	-0.050	0.170	0.770
2020/01/31 13:05:06.3	107.480	-0.060	0.170	0.810
2020/01/31 13:05:06.4	107.450	-0.060	0.170	0.840
2020/01/31 13:05:06.5	107.420	-0.070	0.160	0.860
2020/01/31 13:05:06.6	107.390	-0.080	0.160	0.890
2020/01/31 13:05:06.7	107.370	-0.090	0.160	0.910
2020/01/31 13:05:06.8	107.340	-0.110	0.150	0.930
2020/01/31 13:05:06.9	107.310	-0.120	0.150	0.950
2020/01/31 13:05:07.0	107.290	-0.130	0.140	0.960
2020/01/31 13:05:07.1	107.260	-0.140	0.130	0.970
2020/01/31 13:05:07.2	107.230	-0.150	0.130	0.990
2020/01/31 13:05:07.3	107.210	-0.160	0.120	1.000
2020/01/31 13:05:07.4	107.180	-0.170	0.110	1.000
2020/01/31 13:05:07.5	107.150	-0.190	0.100	1.010
2020/01/31 13:05:07.6	107.120	-0.200	0.090	1.020
2020/01/31 13:05:07.7	107.090	-0.210	0.080	1.030
2020/01/31 13:05:07.8	107.060	-0.220	0.070	1.040
2020/01/31 13:05:07.9	107.030	-0.230	0.070	1.050
2020/01/31 13:05:08.0	107.000	-0.230	0.060	1.060
2020/01/31 13:05:08.1	106.960	-0.240	0.050	1.070
2020/01/31 13:05:08.2	106.930	-0.250	0.050	1.080
2020/01/31 13:05:08.3	106.890	-0.250	0.040	1.090
2020/01/31 13:05:08.4	106.860	-0.260	0.040	1.110
2020/01/31 13:05:08.5	106.810	-0.260	0.030	1.120
2020/01/31 13:05:08.6	106.770	-0.260	0.030	1.140
2020/01/31 13:05:08.7	106.730	-0.260	0.030	1.150
2020/01/31 13:05:08.8	106.700	-0.260	0.030	1.170
2020/01/31 13:05:08.9	106.660	-0.260	0.030	1.190
2020/01/31 13:05:09.0	106.620	-0.260	0.030	1.200
2020/01/31 13:05:09.1	106.580	-0.250	0.030	1.220
2020/01/31 13:05:09.2	106.550	-0.250	0.030	1.230
2020/01/31 13:05:09.3	106.510	-0.240	0.020	1.240
2020/01/31 13:05:09.4	106.480	-0.230	0.020	1.250
2020/01/31 13:05:09.5	106.440	-0.220	0.020	1.260
2020/01/31 13:05:09.6	106.410	-0.210	0.010	1.270
2020/01/31 13:05:09.7	106.370	-0.200	0.000	1.270
2020/01/31 13:05:09.8	106.340	-0.180	-0.010	1.270
2020/01/31 13:05:09.9	106.320	-0.170	-0.020	1.270
2020/01/31 13:05:10.0	106.290	-0.150	-0.040	1.270
2020/01/31 13:05:10.1	106.260	-0.140	-0.050	1.260
2020/01/31 13:05:10.2	106.240	-0.120	-0.080	1.250
2020/01/31 13:05:10.3	106.210	-0.100	-0.100	1.230
2020/01/31 13:05:10.4	106.190	-0.080	-0.130	1.210
2020/01/31 13:05:10.5	106.180	-0.060	-0.160	1.190
2020/01/31 13:05:10.6	106.150	-0.040	-0.200	1.170
2020/01/31 13:05:10.7	106.130	-0.020	-0.230	1.140
2020/01/31 13:05:10.8	106.110	0.000	-0.270	1.110
2020/01/31 13:05:10.9	106.080	0.030	-0.310	1.080
2020/01/31 13:05:11.0	106.060	0.050	-0.350	1.040
2020/01/31 13:05:11.1	106.030	0.070	-0.390	1.000
2020/01/31 13:05:11.2	106.000	0.090	-0.430	0.970
2020/01/31 13:05:11.3	105.970	0.110	-0.470	0.930
2020/01/31 13:05:11.4	105.940	0.130	-0.510	0.890
2020/01/31 13:05:11.5	105.910	0.150	-0.550	0.850
2020/01/31 13:05:11.6	105.870	0.170	-0.590	0.810
2020/01/31 13:05:11.7	105.840	0.190	-0.630	0.770
2020/01/31 13:05:11.8	105.800	0.210	-0.660	0.740
2020/01/31 13:05:11.9	105.750	0.230	-0.690	0.700
2020/01/31 13:05:12.0	105.710	0.240	-0.710	0.670
2020/01/31 13:05:12.1	105.670	0.260	-0.740	0.630
2020/01/31 13:05:12.2	105.620	0.270	-0.750	0.600
2020/01/31 13:05:12.3	105.570	0.280	-0.770	0.570
2020/01/31 13:05:12.4	105.530	0.290	-0.770	0.550
2020/01/31 13:05:12.5	105.480	0.300	-0.780	0.520
2020/01/31 13:05:12.6	105.430	0.310	-0.770	0.500
2020/01/31 13:05:12.7	105.380	0.320	-0.770	0.470
2020/01/31 13:05:12.8	105.340	0.320	-0.760	0.450
2020/01/31 13:05:12.9	105.290	0.320	-0.740	0.440
2020/01/31 13:05:13.0	105.240	0.320	-0.720	0.420
2020/01/31 13:05:13.1	105.190	0.320	-0.700	0.400
2020/01/31 13:05:13.2	105.140	0.320	-0.670	0.390
2020/01/31 13:05:13.3	105.100	0.320	-0.640	0.370
2020/01/31 13:05:13.4	105.050	0.310	-0.600	0.360
2020/01/31 13:05:13.5	105.020	0.300	-0.570	0.350
2020/01/31 13:05:13.6	104.970	0.300	-0.530	0.340
2020/01/31 13:05:13.7	104.930	0.290	-0.490	0.330
2020/01/31 13:05:13.8	104.890	0.270	-0.450	0.320
2020/01/31 13:05:13.9	104.860	0.260	-0.410	0.310
2020/01/31 13:05:14.0	104.820	0.250	-0.370	0.300
2020/01/31 13:05:14.1	104.780	0.230	-0.330	0.290
2020/01/31 13:05:14.2	104.750	0.210	-0.290	0.280
2020/01/31 13:05:14.3	104.720	0.190	-0.250	0.270
2020/01/31 13:05:14.4	104.680	0.170	-0.210	0.260
2020/01/31 13:05:14.5	104.660	0.150	-0.170	0.250
2020/01/31 13:05:14.6	104.630	0.130	-0.130	0.240
2020/01/31 13:05:14.7	104.600	0.110	-0.090	0.230
2020/01/31 13:05:14.8	104.570	0.080	-0.060	0.220
2020/01/31 13:05:14.9	104.540	0.060	-0.020	0.210
2020/01/31 13:05:15.0	104.510	0.030	0.010	0.200
2020/01/31 13:05:15.1	104.480	0.010	0.040	0.190
2020/01/31 13:05:15.2	104.460	-0.020	0.080	0.180
2020/01/31 13:05:15.3	104.430	-0.040	0.110	0.170
2020/01/31 13:05:15.4	104.400	-0.070	0.140	0.160
2020/01/31 13:05:15.5	104.360	-0.090	0.170	0.150
2020/01/31 13:05:15.6	104.330	-0.120	0.190	0.140
2020/01/31 13:05:15.7	104.300	-0.140	0.220	0.130
2020/01/31 13:05:15.8	104.280	-0.170	0.250	0.120
2020/01/31 13:05:15.9	104.250	-0.190	0.270	0.120
2020/01/31 13:05:16.0	104.220	-0.210	0.300	0.110
2020/01/31 13:05:16.1	104.190	-0.230	0.320	0.100
2020/01/31 13:05:16.2	104.160	-0.250	0.350	0.090
2020/01/31 13:05:16.3	104.130	-0.270	0.370	0.080
2020/01/31 13:05:16.4	104.100	-0.290	0.390	0.070
2020/01/31 13:05:16.5	104.080	-0.300	0.410	0.070
2020/01/31 13:05:16.6	104.050	-0.310	0.420	0.060
2020/01/31 13:05:16.7	104.020	-0.320	0.440	0.050
2020/01/31 13:05:16.8	103.990	-0.330	0.450	0.050
2020/01/31 13:05:16.9	103.960	-0.340	0.460	0.040
2020/01/31 13:05:17.0	103.930	-0.350	0.470	0.030
2020/01/31 13:05:17.1	103.900	-0.350	0.470	0.030
2020/01/31 13:05:17.2	103.860	-0.350	0.470	0.020
2020/01/31 13:05:17.3	103.830	-0.350	0.470	0.020
2020/01/31 13:05:17.4	103.800	-0.340	0.460	0.020
2020/01/31 13:05:17.5	103.760	-0.340	0.450	0.010
2020/01/31 13:05:17.6	103.720	-0.330	0.430	0.010
2020/01/31 13:05:17.7	103.690	-0.320	0.410	0.010
2020/01/31 13:05:17.8	103.650	-0.310	0.390	0.020
2020/01/31 13:05:17.9	103.610	-0.290	0.360	0.020
2020/01/31 13:05:18.0	103.570	-0.280	0.330	0.020
2020/01/31 13:05:18.1	103.530	-0.260	0.290	0.030
2020/01/31 13:05:18.2	103.490	-0.240	0.250	0.030
2020/01/31 13:05:18.3	103.450	-0.220	0.200	0.040
2020/01/31 13:05:18.4	103.410	-0.190	0.150	0.050
2020/01/31 13:05:18.5	103.390	-0.170	0.090	0.060
2020/01/31 13:05:18.6	103.350	-0.140	0.040	0.070
2020/01/31 13:05:18.7	103.310	-0.120	-0.020	0.080
2020/01/31 13:05:18.8	103.270	-0.090	-0.080	0.090
2020/01/31 13:05:18.9	103.230	-0.060	-0.150	0.100
2020/01/31 13:05:19.0	103.190	-0.030	-0.210	0.110
2020/01/31 13:05:19.1	103.150	-0.010	-0.270	0.120
2020/01/31 13:05:19.2	103.120	0.020	-0.340	0.130
2020/01/31 13:05:19.3	103.080	0.050	-0.400	0.150
2020/01/31 13:05:19.4	103.040	0.070	-0.460	0.160
2020/01/31 13:05:19.5	103.000	0.100	-0.520	0.170
2020/01/31 13:05:19.6	102.970	0.120	-0.580	0.190
2020/01/31 13:05:19.7	102.930	0.150	-0.630	0.210
2020/01/31 13:05:19.8	102.900	0.170	-0.680	0.220
2020/01/31 13:05:19.9	102.860	0.190	-0.730	0.240
2020/01/31 13:05:20.0	102.830	0.210	-0.770	0.260
2020/01/31 13:05:20.1	102.790	0.220	-0.800	0.280
2020/01/31 13:05:20.2	102.760	0.240	-0.830	0.310
2020/01/31 13:05:20.3	102.720	0.250	-0.860	0.330
2020/01/31 13:05:20.4	102.690	0.260	-0.870	0.350
2020/01/31 13:05:20.5	102.660	0.270	-0.880	0.380
2020/01/31 13:05:20.6	102.620	0.270	-0.890	0.410
2020/01/31 13:05:20.7	102.590	0.280	-0.890	0.440
2020/01/31 13:05:20.8	102.550	0.280	-0.880	0.460
2020/01/31 13:05:20.9	102.510	0.280	-0.870	0.490
2020/01/31 13:05:21.0	102.470	0.270	-0.850	0.530
2020/01/31 13:05:21.1	102.430	0.270	-0.820	0.560
2020/01/31 13:05:21.2	102.390	0.260	-0.790	0.590
2020/01/31 13:05:21.3	102.350	0.250	-0.750	0.620
2020/01/31 13:05:21.4	102.310	0.240	-0.710	0.650
2020/01/31 13:05:21.5	102.260	0.230	-0.670	0.680
2020/01/31 13:05:21.6	102.220	0.220	-0.620	0.720
2020/01/31 13:05:21.7	102.180	0.200	-0.560	0.750
2020/01/31 13:05:21.8	102.130	0.190	-0.510	0.780
2020/01/31 13:05:21.9	102.090	0.170	-0.450	0.810
2020/01/31 13:05:22.0	102.040	0.150	-0.390	0.840
2020/01/31 13:05:22.1	102.000	0.130	-0.330	0.860
2020/01/31 13:05:22.2	101.960	0.120	-0.260	0.890
2020/01/31 13:05:22.3	101.910	0.100	-0.200	0.910
2020/01/31 13:05:22.4	101.870	0.080	-0.140	0.930
2020/01/31 13:05:22.5	101.830	0.060	-0.080	0.950
2020/01/31 13:05:22.6	101.790	0.050	-0.030	0.960
2020/01/31 13:05:22.7	101.740	0.030	0.030	0.970
2020/01/31 13:05:22.8	101.700	0.020	0.080	0.980
2020/01/31 13:05:22.9	101.660	0.000	0.130	0.990
2020/01/31 13:05:23.0	101.620	-0.010	0.170	0.990
2020/01/31 13:05:23.1	101.580	-0.020	0.210	0.980
2020/01/31 13:05:23.2	101.540	-0.030	0.240	0.980
2020/01/31 13:05:23.3	101.510	-0.040	0.270	0.970
2020/01/31 13:05:23.4	101.470	-0.050	0.300	0.960
2020/01/31 13:05:23.5	101.430	-0.050	0.320	0.940
2020/01/31 13:05:23.6	101.390	-0.050	0.330	0.920
2020/01/31 13:05:23.7	101.360	-0.060	0.350	0.900
2020/01/31 13:05:23.8	101.320	-0.060	0.350	0.880
2020/01/31 13:05:23.9	101.290	-0.050	0.360	0.860
2020/01/31 13:05:24.0	101.260	-0.050	0.360	0.830
2020/01/31 13:05:24.1	101.220	-0.050	0.350	0.810
2020/01/31 13:05:24.2	101.190	-0.040	0.350	0.780
2020/01/31 13:05:24.3	101.160	-0.030	0.340	0.750
2020/01/31 13:05:24.4	101.130	-0.030	0.320	0.730
2020/01/31 13:05:24.5	101.090	-0.020	0.310	0.700
2020/01/31 13:05:24.6	101.060	-0.010	0.290	0.670
2020/01/31 13:05:24.7	101.030	0.000	0.260	0.640
2020/01/31 13:05:24.8	101.000	0.010	0.240	0.620
2020/01/31 13:05:24.9	100.970	0.020	0.210	0.590
2020/01/31 13:05:25.0	100.940	0.040	0.180	0.570
2020/01/31 13:05:25.1	100.900	0.050	0.150	0.550
2020/01/31 13:05:25.2	100.870	0.060	0.110	0.530
2020/01/31 13:05:25.3	100.840	0.070	0.080	0.510
2020/01/31 13:05:25.4	100.810	0.080	0.040	0.500
2020/01/31 13:05:25.5	100.780	0.090	-0.000	0.480
2020/01/31 13:05:25.6	100.750	0.100	-0.040	0.470
2020/01/31 13:05:25.7	100.720	0.110	-0.070	0.460
2020/01/31 13:05:25.8	100.680	0.120	-0.110	0.450
2020/01/31 13:05:25.9	100.650	0.130	-0.150	0.450
2020/01/31 13:05:26.0	100.620	0.140	-0.190	0.440
2020/01/31 13:05:26.1	100.590	0.150	-0.220	0.440
2020/01/31 13:05:26.2	100.560	0.160	-0.260	0.440
2020/01/31 13:05:26.3	100.530	0.160	-0.290	0.440
2020/01/31 13:05:26.4	100.490	0.170	-0.320	0.440
2020/01/31 13:05:26.5	100.460	0.170	-0.350	0.440
2020/01/31 13:05:26.6	100.430	0.170	-0.380	0.440
2020/01/31 13:05:26.7	100.400	0.170	-0.400	0.450
2020/01/31 13:05:26.8	100.360	0.170	-0.420	0.460
2020/01/31 13:05:26.9	100.320	0.170	-0.440	0.460
2020/01/31 13:05:27.0	100.280	0.170	-0.460	0.470
2020/01/31 13:05:27.1	100.240	0.160	-0.480	0.480
2020/01/31 13:05:27.2	100.200	0.150	-0.490	0.490
2020/01/31 13:05:27.3	100.150	0.150	-0.490	0.500
2020/01/31 13:05:27.4	100.110	0.140	-0.500	0.510
2020/01/31 13:05:27.5	100.070	0.120	-0.500	0.520
2020/01/31 13:05:27.6	100.010	0.110	-0.500	0.530
2020/01/31 13:05:27.7	99.960	0.090	-0.490	0.540
2020/01/31 13:05:27.8	99.900	0.080	-0.480	0.550
2020/01/31 13:05:27.9	99.840	0.060	-0.460	0.550
2020/01/31 13:05:28.0	99.780	0.040	-0.440	0.560
2020/01/31 13:05:28.1	99.720	0.010	-0.420	0.570
2020/01/31 13:05:28.2	99.660	-0.010	-0.400	0.570
2020/01/31 13:05:28.3	99.600	-0.030	-0.370	0.570
2020/01/31 13:05:28.4	99.530	-0.060	-0.330	0.570
2020/01/31 13:05:28.5	99.470	-0.090	-0.290	0.570
2020/01/31 13:05:28.6	99.400	-0.110	-0.260	0.570
2020/01/31 13:05:28.7	99.340	-0.140	-0.210	0.570
2020/01/31 13:05:28.8	99.280	-0.170	-0.170	0.560
2020/01/31 13:05:28.9	99.220	-0.200	-0.120	0.550
2020/01/31 13:05:29.0	99.160	-0.230	-0.080	0.550
2020/01/31 13:05:29.1	99.100	-0.260	-0.030	0.540
2020/01/31 13:05:29.2	99.040	-0.290	0.020	0.530
2020/01/31 13:05:29.3	98.980	-0.320	0.070	0.520
2020/01/31 13:05:29.4	98.930	-0.340	0.120	0.500
2020/01/31 13:05:29.5	98.880	-0.370	0.170	0.490
2020/01/31 13:05:29.6	98.830	-0.390	0.210	0.480
2020/01/31 13:05:29.7	98.790	-0.410	0.260	0.460
2020/01/31 13:05:29.8	98.740	-0.430	0.300	0.450
2020/01/31 13:05:29.9	98.700	-0.450	0.340	0.430
2020/01/31 13:05:30.0	98.660	-0.470	0.380	0.420
2020/01/31 13:05:30.1	98.620	-0.480	0.410	0.400
2020/01/31 13:05:30.2	98.580	-0.490	0.430	0.390
2020/01/31 13:05:30.3	98.550	-0.500	0.460	0.370
2020/01/31 13:05:30.4	98.510	-0.500	0.470	0.360
2020/01/31 13:05:30.5	98.490	-0.500	0.480	0.350
2020/01/31 13:05:30.6	98.460	-0.500	0.490	0.340
2020/01/31 13:05:30.7	98.430	-0.490	0.490	0.330
2020/01/31 13:05:30.8	98.400	-0.480	0.480	0.320
2020/01/31 13:05:30.9	98.370	-0.470	0.470	0.310
2020/01/31 13:05:31.0	98.340	-0.460	0.440	0.300
2020/01/31 13:05:31.1	98.320	-0.440	0.410	0.300
2020/01/31 13:05:31.2	98.290	-0.410	0.380	0.290
2020/01/31 13:05:31.3	98.270	-0.390	0.340	0.280
2020/01/31 13:05:31.4	98.240	-0.360	0.290	0.280
2020/01/31 13:05:31.5	98.220	-0.330	0.240	0.270
2020/01/31 13:05:31.6	98.190	-0.290	0.170	0.270
2020/01/31 13:05:31.7	98.170	-0.260	0.110	0.260
2020/01/31 13:05:31.8	98.140	-0.220	0.040	0.260
2020/01/31 13:05:31.9	98.120	-0.180	-0.040	0.250
2020/01/31 13:05:32.0	98.090	-0.140	-0.110	0.240
2020/01/31 13:05:32.1	98.060	-0.100	-0.190	0.240
2020/01/31 13:05:32.2	98.030	-0.050	-0.280	0.230
2020/01/31 13:05:32.3	98.010	-0.010	-0.360	0.220
2020/01/31 13:05:32.4	97.980	0.040	-0.450	0.210
2020/01/31 13:05:32.5	97.940	0.080	-0.540	0.200
2020/01/31 13:05:32.6	97.910	0.130	-0.620	0.190
2020/01/31 13:05:32.7	97.880	0.170	-0.700	0.180
2020/01/31 13:05:32.8	97.850	0.220	-0.780	0.180
2020/01/31 13:05:32.9	97.810	0.260	-0.850	0.170
2020/01/31 13:05:33.0	97.780	0.300	-0.930	0.160
2020/01/31 13:05:33.1	97.740	0.340	-0.990	0.150
2020/01/31 13:05:33.2	97.700	0.370	-1.050	0.140
2020/01/31 13:05:33.3	97.660	0.410	-1.100	0.140
2020/01/31 13:05:33.4	97.620	0.440	-1.150	0.130
2020/01/31 13:05:33.5	97.570	0.470	-1.190	0.130
2020/01/31 13:05:33.6	97.520	0.500	-1.220	0.130
2020/01/31 13:05:33.7	97.470	0.520	-1.240	0.130
2020/01/31 13:05:33.8	97.420	0.540	-1.260	0.140
2020/01/31 13:05:33.9	97.370	0.560	-1.260	0.140
2020/01/31 13:05:34.0	97.320	0.570	-1.260	0.150
2020/01/31 13:05:34.1	97.260	0.580	-1.250	0.160
2020/01/31 13:05:34.2	97.200	0.590	-1.220	0.180
2020/01/31 13:05:34.3	97.140	0.590	-1.190	0.190
2020/01/31 13:05:34.4	97.080	0.590	-1.150	0.210
2020/01/31 13:05:34.5	97.010	0.590	-1.110	0.240
2020/01/31 13:05:34.6	96.950	0.580	-1.050	0.260
2020/01/31 13:05:34.7	96.880	0.570	-0.990	0.290
2020/01/31 13:05:34.8	96.820	0.560	-0.920	0.320
2020/01/31 13:05:34.9	96.750	0.550	-0.840	0.350
2020/01/31 13:05:35.0	96.680	0.530	-0.760	0.380
2020/01/31 13:05:35.1	96.610	0.510	-0.670	0.410
2020/01/31 13:05:35.2	96.540	0.480	-0.580	0.450
2020/01/31 13:05:35.3	96.470	0.460	-0.480	0.490
2020/01/31 13:05:35.4	96.400	0.430	-0.380	0.530
2020/01/31 13:05:35.5	96.320	0.400	-0.280	0.570
2020/01/31 13:05:35.6	96.250	0.360	-0.170	0.610
2020/01/31 13:05:35.7	96.180	0.330	-0.070	0.650
2020/01/31 13:05:35.8	96.100	0.300	0.040	0.690
2020/01/31 13:05:35.9	96.030	0.260	0.140	0.730
2020/01/31 13:05:36.0	95.960	0.220	0.240	0.770
2020/01/31 13:05:36.1	95.890	0.190	0.340	0.810
2020/01/31 13:05:36.2	95.820	0.150	0.430	0.850
2020/01/31 13:05:36.3	95.750	0.110	0.530	0.880
2020/01/31 13:05:36.4	95.690	0.070	0.610	0.920
2020/01/31 13:05:36.5	95.620	0.030	0.690	0.950
2020/01/31 13:05:36.6	95.560	-0.010	0.770	0.980
2020/01/31 13:05:36.7	95.490	-0.040	0.830	1.010
2020/01/31 13:05:36.8	95.440	-0.080	0.900	1.030
2020/01/31 13:05:36.9	95.380	-0.120	0.950	1.050
2020/01/31 13:05:37.0	95.320	-0.150	1.000	1.060
2020/01/31 13:05:37.1	95.270	-0.190	1.030	1.070
2020/01/31 13:05:37.2	95.220	-0.220	1.060	1.080
2020/01/31 13:05:37.3	95.180	-0.250	1.080	1.080
2020/01/31 13:05:37.4	95.130	-0.280	1.090	1.080
2020/01/31 13:05:37.5	95.100	-0.310	1.100	1.070
2020/01/31 13:05:37.6	95.060	-0.330	1.090	1.050
2020/01/31 13:05:37.7	95.020	-0.360	1.080	1.040
2020/01/31 13:05:37.8	94.990	-0.380	1.050	1.020
2020/01/31 13:05:37.9	94.950	-0.400	1.020	0.990
2020/01/31 13:05:38.0	94.920	-0.420	0.990	0.970
2020/01/31 13:05:38.1	94.890	-0.430	0.940	0.930
2020/01/31 13:05:38.2	94.870	-0.440	0.890	0.900
2020/01/31 13:05:38.3	94.840	-0.450	0.830	0.860
2020/01/31 13:05:38.4	94.820	-0.460	0.760	0.820
2020/01/31 13:05:38.5	94.790	-0.470	0.690	0.780
2020/01/31 13:05:38.6	94.770	-0.470	0.610	0.740
2020/01/31 13:05:38.7	94.750	-0.470	0.530	0.690
2020/01/31 13:05:38.8	94.730	-0.470	0.440	0.640
2020/01/31 13:05:38.9	94.720	-0.460	0.350	0.590
2020/01/31 13:05:39.0	94.700	-0.460	0.260	0.550
2020/01/31 13:05:39.1	94.680	-0.450	0.170	0.500
2020/01/31 13:05:39.2	94.670	-0.430	0.070	0.450
2020/01/31 13:05:39.3	94.660	-0.420	-0.020	0.400
2020/01/31 13:05:39.4	94.640	-0.410	-0.120	0.350
2020/01/31 13:05:39.5	94.630	-0.390	-0.220	0.300
2020/01/31 13:05:39.6	94.610	-0.370	-0.310	0.260
2020/01/31 13:05:39.7	94.600	-0.350	-0.400	0.220
2020/01/31 13:05:39.8	94.580	-0.330	-0.490	0.180
2020/01/31 13:05:39.9	94.570	-0.310	-0.570	0.150
2020/01/31 13:05:40.0	94.550	-0.290	-0.650	0.120
2020/01/31 13:05:40.1	94.540	-0.260	-0.730	0.090
2020/01/31 13:05:40.2	94.520	-0.240	-0.800	0.070
2020/01/31 13:05:40.3	94.500	-0.210	-0.860	0.050
2020/01/31 13:05:40.4	94.470	-0.190	-0.920	0.040
2020/01/31 13:05:40.5	94.450	-0.160	-0.980	0.030
2020/01/31 13:05:40.6	94.420	-0.140	-1.020	0.030
2020/01/31 13:05:40.7	94.390	-0.110	-1.060	0.030
2020/01/31 13:05:40.8	94.350	-0.090	-1.100	0.040
2020/01/31 13:05:40.9	94.310	-0.060	-1.120	0.060
2020/01/31 13:05:41.0	94.270	-0.040	-1.140	0.070
2020/01/31 13:05:41.1	94.220	-0.010	-1.150	0.090
2020/01/31 13:05:41.2	94.170	0.010	-1.160	0.120
2020/01/31 13:05:41.3	94.110	0.030	-1.150	0.150
2020/01/31 13:05:41.4	94.060	0.050	-1.140	0.180
2020/01/31 13:05:41.5	94.020	0.070	-1.130	0.220
2020/01/31 13:05:41.6	93.950	0.090	-1.100	0.260
2020/01/31 13:05:41.7	93.890	0.100	-1.070	0.300
2020/01/31 13:05:41.8	93.810	0.120	-1.040	0.340
2020/01/31 13:05:41.9	93.740	0.130	-1.000	0.380
2020/01/31 13:05:42.0	93.660	0.140	-0.950	0.420
2020/01/31 13:05:42.1	93.590	0.150	-0.900	0.470
2020/01/31 13:05:42.2	93.510	0.160	-0.840	0.510
2020/01/31 13:05:42.3	93.420	0.170	-0.780	0.550
2020/01/31 13:05:42.4	93.340	0.170	-0.710	0.590
2020/01/31 13:05:42.5	93.270	0.170	-0.640	0.630
2020/01/31 13:05:42.6	93.180	0.170	-0.570	0.670
2020/01/31 13:05:42.7	93.100	0.170	-0.500	0.700
2020/01/31 13:05:42.8	93.010	0.170	-0.420	0.740
2020/01/31 13:05:42.9	92.930	0.170	-0.350	0.770
2020/01/31 13:05:43.0	92.840	0.160	-0.270	0.790
2020/01/31 13:05:43.1	92.750	0.160	-0.190	0.820
2020/01/31 13:05:43.2	92.670	0.150	-0.120	0.840
2020/01/31 13:05:43.3	92.580	0.140	-0.040	0.860
2020/01/31 13:05:43.4	92.500	0.130	0.030	0.880
2020/01/31 13:05:43.5	92.420	0.130	0.090	0.890
2020/01/31 13:05:43.6	92.340	0.120	0.150	0.900
2020/01/31 13:05:43.7	92.260	0.110	0.220	0.900
2020/01/31 13:05:43.8	92.190	0.100	0.280	0.910
2020/01/31 13:05:43.9	92.110	0.090	0.330	0.910
2020/01/31 13:05:44.0	92.040	0.080	0.380	0.910
2020/01/31 13:05:44.1	91.970	0.070	0.420	0.900
2020/01/31 13:05:44.2	91.900	0.070	0.460	0.890
2020/01/31 13:05:44.3	91.840	0.060	0.490	0.880
2020/01/31 13:05:44.4	91.780	0.060	0.510	0.870
2020/01/31 13:05:44.5	91.720	0.050	0.540	0.860
2020/01/31 13:05:44.6	91.660	0.050	0.550	0.840
2020/01/31 13:05:44.7	91.600	0.050	0.560	0.820
2020/01/31 13:05:44.8	91.550	0.050	0.560	0.800
2020/01/31 13:05:44.9	91.490	0.050	0.550	0.780
2020/01/31 13:05:45.0	91.440	0.060	0.540	0.760
2020/01/31 13:05:45.1	91.390	0.060	0.520	0.730
2020/01/31 13:05:45.2	91.340	0.070	0.490	0.700
2020/01/31 13:05:45.3	91.300	0.070	0.460	0.670
2020/01/31 13:05:45.4	91.250	0.080	0.420	0.640
2020/01/31 13:05:45.5	91.210	0.090	0.370	0.610
2020/01/31 13:05:45.6	91.170	0.100	0.330	0.570
2020/01/31 13:05:45.7	91.130	0.120	0.280	0.540
2020/01/31 13:05:45.8	91.090	0.130	0.220	0.500
2020/01/31 13:05:45.9	91.060	0.140	0.160	0.470
2020/01/31 13:05:46.0	91.020	0.160	0.100	0.430
2020/01/31 13:05:46.1	90.980	0.170	0.040	0.390
2020/01/31 13:05:46.2	90.940	0.180	-0.020	0.350
2020/01/31 13:05:46.3	90.910	0.200	-0.090	0.310
2020/01/31 13:05:46.4	90.870	0.210	-0.150	0.270
2020/01/31 13:05:46.5	90.860	0.230	-0.210	0.230
2020/01/31 13:05:46.6	90.820	0.240	-0.280	0.190
2020/01/31 13:05:46.7	90.790	0.250	-0.340	0.150
2020/01/31 13:05:46.8	90.750	0.260	-0.400	0.110
2020/01/31 13:05:46.9	90.710	0.270	-0.460	0.070
2020/01/31 13:05:47.0	90.680	0.280	-0.510	0.030
2020/01/31 13:05:47.1	90.640	0.290	-0.560	-0.010
2020/01/31 13:05:47.2	90.600	0.300	-0.610	-0.040
2020/01/31 13:05:47.3	90.570	0.310	-0.650	-0.080
2020/01/31 13:05:47.4	90.530	0.310	-0.680	-0.110
2020/01/31 13:05:47.5	90.480	0.310	-0.720	-0.140
2020/01/31 13:05:47.6	90.450	0.310	-0.750	-0.170
2020/01/31 13:05:47.7	90.410	0.310	-0.760	-0.200
2020/01/31 13:05:47.8	90.370	0.310	-0.780	-0.220
2020/01/31 13:05:47.9	90.330	0.310	-0.780	-0.250
2020/01/31 13:05:48.0	90.290	0.310	-0.780	-0.260
2020/01/31 13:05:48.1	90.240	0.300	-0.780	-0.280
2020/01/31 13:05:48.2	90.200	0.290	-0.770	-0.290
2020/01/31 13:05:48.3	90.160	0.280	-0.750	-0.300
2020/01/31 13:05:48.4	90.120	0.270	-0.730	-0.310
2020/01/31 13:05:48.5	90.070	0.260	-0.700	-0.320
2020/01/31 13:05:48.6	90.020	0.250	-0.670	-0.320
2020/01/31 13:05:48.7	89.980	0.240	-0.630	-0.320
2020/01/31 13:05:48.8	89.930	0.220	-0.590	-0.310
2020/01/31 13:05:48.9	89.890	0.210	-0.550	-0.300
2020/01/31 13:05:49.0	89.840	0.190	-0.510	-0.290
2020/01/31 13:05:49.1	89.790	0.170	-0.460	-0.270
2020/01/31 13:05:49.2	89.740	0.160	-0.410	-0.250
2020/01/31 13:05:49.3	89.690	0.140	-0.360	-0.230
2020/01/31 13:05:49.4	89.640	0.120	-0.310	-0.210
2020/01/31 13:05:49.5	89.570	0.100	-0.260	-0.180
2020/01/31 13:05:49.6	89.520	0.080	-0.210	-0.150
2020/01/31 13:05:49.7	89.460	0.060	-0.160	-0.120
2020/01/31 13:05:49.8	89.400	0.040	-0.110	-0.080
2020/01/31 13:05:49.9	89.340	0.030	-0.060	-0.050
2020/01/31 13:05:50.0	89.280	0.010	-0.010	-0.010
2020/01/31 13:05:50.1	89.220	-0.010	0.040	0.030
2020/01/31 13:05:50.2	89.150	-0.030	0.090	0.080
2020/01/31 13:05:50.3	89.090	-0.050	0.130	0.120
2020/01/31 13:05:50.4	89.020	-0.070	0.180	0.170
2020/01/31 13:05:50.5	88.940	-0.080	0.220	0.220
2020/01/31 13:05:50.6	88.870	-0.100	0.260	0.270
2020/01/31 13:05:50.7	88.800	-0.120	0.300	0.320
2020/01/31 13:05:50.8	88.730	-0.140	0.340	0.370
2020/01/31 13:05:50.9	88.660	-0.150	0.380	0.430
2020/01/31 13:05:51.0	88.580	-0.170	0.410	0.480
2020/01/31 13:05:51.1	88.510	-0.180	0.440	0.540
2020/01/31 13:05:51.2	88.440	-0.200	0.470	0.590
2020/01/31 13:05:51.3	88.360	-0.210	0.490	0.640
2020/01/31 13:05:51.4	88.290	-0.230	0.510	0.700
2020/01/31 13:05:51.5	88.210	-0.240	0.530	0.750
2020/01/31 13:05:51.6	88.140	-0.250	0.540	0.800
2020/01/31 13:05:51.7	88.070	-0.260	0.550	0.850
2020/01/31 13:05:51.8	88.000	-0.270	0.560	0.900
2020/01/31 13:05:51.9	87.930	-0.290	0.560	0.940
2020/01/31 13:05:52.0	87.860	-0.300	0.560	0.990
2020/01/31 13:05:52.1	87.790	-0.310	0.550	1.030
2020/01/31 13:05:52.2	87.720	-0.310	0.540	1.060
2020/01/31 13:05:52.3	87.650	-0.320	0.520	1.090
2020/01/31 13:05:52.4	87.590	-0.330	0.500	1.120
2020/01/31 13:05:52.5	87.530	-0.340	0.480	1.150
2020/01/31 13:05:52.6	87.470	-0.340	0.450	1.170
2020/01/31 13:05:52.7	87.410	-0.340	0.420	1.190
2020/01/31 13:05:52.8	87.350	-0.350	0.380	1.200
2020/01/31 13:05:52.9	87.300	-0.350	0.330	1.210
2020/01/31 13:05:53.0	87.250	-0.350	0.290	1.220
2020/01/31 13:05:53.1	87.200	-0.350	0.240	1.210
2020/01/31 13:05:53.2	87.150	-0.350	0.180	1.210
2020/01/31 13:05:53.3	87.110	-0.340	0.130	1.200
2020/01/31 13:05:53.4	87.060	-0.340	0.070	1.190
2020/01/31 13:05:53.5	87.030	-0.330	0.010	1.170
2020/01/31 13:05:53.6	86.990	-0.320	-0.050	1.150
2020/01/31 13:05:53.7	86.960	-0.320	-0.110	1.130
2020/01/31 13:05:53.8	86.920	-0.310	-0.180	1.110
2020/01/31 13:05:53.9	86.880	-0.300	-0.240	1.080
2020/01/31 13:05:54.0	86.850	-0.280	-0.300	1.050
2020/01/31 13:05:54.1	86.810	-0.270	-0.360	1.030
2020/01/31 13:05:54.2	86.780	-0.260	-0.420	1.000
2020/01/31 13:05:54.3	86.740	-0.240	-0.470	0.970
2020/01/31 13:05:54.4	86.700	-0.230	-0.520	0.950
2020/01/31 13:05:54.5	86.660	-0.210	-0.570	0.920
2020/01/31 13:05:54.6	86.620	-0.200	-0.620	0.900
2020/01/31 13:05:54.7	86.580	-0.180	-0.660	0.880
2020/01/31 13:05:54.8	86.540	-0.170	-0.700	0.860
2020/01/31 13:05:54.9	86.490	-0.160	-0.730	0.850
2020/01/31 13:05:55.0	86.440	-0.140	-0.760	0.830
2020/01/31 13:05:55.1	86.390	-0.130	-0.780	0.820
2020/01/31 13:05:55.2	86.340	-0.120	-0.800	0.810
2020/01/31 13:05:55.3	86.280	-0.110	-0.810	0.800
2020/01/31 13:05:55.4	86.220	-0.100	-0.820	0.800
2020/01/31 13:05:55.5	86.170	-0.090	-0.820	0.800
2020/01/31 13:05:55.6	86.110	-0.080	-0.820	0.790
2020/01/31 13:05:55.7	86.040	-0.070	-0.810	0.790
2020/01/31 13:05:55.8	85.980	-0.070	-0.790	0.790
2020/01/31 13:05:55.9	85.920	-0.070	-0.770	0.790
2020/01/31 13:05:56.0	85.850	-0.060	-0.740	0.800
2020/01/31 13:05:56.1	85.790	-0.060	-0.720	0.800
2020/01/31 13:05:56.2	85.720	-0.060	-0.680	0.800
2020/01/31 13:05:56.3	85.650	-0.060	-0.640	0.800
2020/01/31 13:05:56.4	85.590	-0.070	-0.600	0.800
2020/01/31 13:05:56.5	85.520	-0.070	-0.560	0.790
2020/01/31 13:05:56.6	85.450	-0.070	-0.510	0.790
2020/01/31 13:05:56.7	85.390	-0.080	-0.460	0.780
2020/01/31 13:05:56.8	85.320	-0.080	-0.420	0.780
2020/01/31 13:05:56.9	85.250	-0.090	-0.370	0.770
2020/01/31 13:05:57.0	85.190	-0.090	-0.320	0.750
2020/01/31 13:05:57.1	85.120	-0.100	-0.270	0.740
2020/01/31 13:05:57.2	85.060	-0.100	-0.230	0.720
2020/01/31 13:05:57.3	84.990	-0.100	-0.180	0.700
2020/01/31 13:05:57.4	84.930	-0.100	-0.140	0.670
2020/01/31 13:05:57.5	84.870	-0.100	-0.100	0.650
2020/01/31 13:05:57.6	84.810	-0.100	-0.060	0.620
2020/01/31 13:05:57.7	84.750	-0.100	-0.020	0.590
2020/01/31 13:05:57.8	84.690	-0.090	0.010	0.560
2020/01/31 13:05:57.9	84.630	-0.090	0.040	0.520
2020/01/31 13:05:58.0	84.570	-0.080	0.060	0.490
2020/01/31 13:05:58.1	84.510	-0.070	0.080	0.460
2020/01/31 13:05:58.2	84.450	-0.050	0.100	0.420
2020/01/31 13:05:58.3	84.390	-0.040	0.110	0.380
2020/01/31 13:05:58.4	84.330	-0.020	0.120	0.350
2020/01/31 13:05:58.5	84.280	-0.000	0.130	0.310
2020/01/31 13:05:58.6	84.220	0.020	0.130	0.280
2020/01/31 13:05:58.7	84.170	0.040	0.130	0.250
2020/01/31 13:05:58.8	84.110	0.070	0.130	0.210
2020/01/31 13:05:58.9	84.060	0.090	0.120	0.180
2020/01/31 13:05:59.0	84.000	0.120	0.100	0.150
2020/01/31 13:05:59.1	83.950	0.150	0.090	0.120
2020/01/31 13:05:59.2	83.890	0.180	0.070	0.100
2020/01/31 13:05:59.3	83.840	0.210	0.050	0.070
2020/01/31 13:05:59.4	83.780	0.240	0.020	0.050
2020/01/31 13:05:59.5	83.720	0.270	-0.000	0.030
2020/01/31 13:05:59.6	83.660	0.300	-0.030	0.010
2020/01/31 13:05:59.7	83.610	0.330	-0.060	-0.010
2020/01/31 13:05:59.8	83.550	0.360	-0.090	-0.030
2020/01/31 13:05:59.9	83.490	0.380	-0.120	-0.050
2020/01/31 13:06:00.0	83.420	0.410	-0.150	-0.060
2020/01/31 13:06:00.1	83.360	0.430	-0.180	-0.080
2020/01/31 13:06:00.2	83.290	0.450	-0.210	-0.090
2020/01/31 13:06:00.3	83.230	0.470	-0.240	-0.110
2020/01/31 13:06:00.4	83.160	0.490	-0.260	-0.120
2020/01/31 13:06:00.5	83.100	0.500	-0.290	-0.130
2020/01/31 13:06:00.6	83.020	0.520	-0.310	-0.140
2020/01/31 13:06:00.7	82.950	0.530	-0.330	-0.160
2020/01/31 13:06:00.8	82.870	0.530	-0.350	-0.170
2020/01/31 13:06:00.9	82.790	0.540	-0.360	-0.180
2020/01/31 13:06:01.0	82.710	0.540	-0.370	-0.190
2020/01/31 13:06:01.1	82.630	0.540	-0.380	-0.200
2020/01/31 13:06:01.2	82.550	0.530	-0.380	-0.210
2020/01/31 13:06:01.3	82.470	0.530	-0.380	-0.230
2020/01/31 13:06:01.4	82.380	0.520	-0.380	-0.240
2020/01/31 13:06:01.5	82.300	0.510	-0.380	-0.250
2020/01/31 13:06:01.6	82.210	0.490	-0.370	-0.260
2020/01/31 13:06:01.7	82.130	0.480	-0.360	-0.270
2020/01/31 13:06:01.8	82.050	0.460	-0.350	-0.280
2020/01/31 13:06:01.9	81.970	0.440	-0.330	-0.290
2020/01/31 13:06:02.0	81.890	0.420	-0.310	-0.310
2020/01/31 13:06:02.1	81.810	0.400	-0.290	-0.320
2020/01/31 13:06:02.2	81.740	0.370	-0.270	-0.340
2020/01/31 13:06:02.3	81.670	0.350	-0.240	-0.350
2020/01/31 13:06:02.4	81.600	0.320	-0.220	-0.370
2020/01/31 13:06:02.5	81.520	0.300	-0.190	-0.390
2020/01/31 13:06:02.6	81.460	0.270	-0.170	-0.400
2020/01/31 13:06:02.7	81.390	0.250	-0.140	-0.420
2020/01/31 13:06:02.8	81.330	0.220	-0.120	-0.430
2020/01/31 13:06:02.9	81.280	0.200	-0.090	-0.440
2020/01/31 13:06:03.0	81.220	0.170	-0.070	-0.460
2020/01/31 13:06:03.1	81.170	0.150	-0.040	-0.470
2020/01/31 13:06:03.2	81.120	0.130	-0.020	-0.480
2020/01/31 13:06:03.3	81.070	0.110	0.000	-0.490
2020/01/31 13:06:03.4	81.020	0.080	0.020	-0.490
2020/01/31 13:06:03.5	80.970	0.070	0.040	-0.490
2020/01/31 13:06:03.6	80.920	0.050	0.060	-0.490
2020/01/31 13:06:03.7	80.880	0.030	0.070	-0.490
2020/01/31 13:06:03.8	80.830	0.020	0.090	-0.480
2020/01/31 13:06:03.9	80.790	0.010	0.100	-0.480
2020/01/31 13:06:04.0	80.740	-0.010	0.100	-0.460
2020/01/31 13:06:04.1	80.690	-0.020	0.110	-0.450
2020/01/31 13:06:04.2	80.650	-0.020	0.110	-0.430
2020/01/31 13:06:04.3	80.600	-0.030	0.120	-0.400
2020/01/31 13:06:04.4	80.550	-0.040	0.120	-0.370
2020/01/31 13:06:04.5	80.500	-0.040	0.110	-0.340
2020/01/31 13:06:04.6	80.450	-0.050	0.110	-0.310
2020/01/31 13:06:04.7	80.400	-0.050	0.100	-0.270
2020/01/31 13:06:04.8	80.350	-0.050	0.100	-0.230
2020/01/31 13:06:04.9	80.300	-0.060	0.090	-0.180
2020/01/31 13:06:05.0	80.240	-0.060	0.080	-0.140
2020/01/31 13:06:05.1	80.190	-0.060	0.070	-0.090
2020/01/31 13:06:05.2	80.130	-0.060	0.060	-0.040
2020/01/31 13:06:05.3	80.080	-0.070	0.050	0.010
2020/01/31 13:06:05.4	80.020	-0.070	0.040	0.070
2020/01/31 13:06:05.5	79.980	-0.070	0.030	0.130
2020/01/31 13:06:05.6	79.930	-0.080	0.010	0.180
2020/01/31 13:06:05.7	79.870	-0.080	0.000	0.240
2020/01/31 13:06:05.8	79.820	-0.090	-0.010	0.300
2020/01/31 13:06:05.9	79.760	-0.090	-0.030	0.350
2020/01/31 13:06:06.0	79.700	-0.100	-0.040	0.410
2020/01/31 13:06:06.1	79.650	-0.110	-0.050	0.470
2020/01/31 13:06:06.2	79.590	-0.120	-0.070	0.520
2020/01/31 13:06:06.3	79.540	-0.130	-0.080	0.580
2020/01/31 13:06:06.4	79.480	-0.140	-0.090	0.630
2020/01/31 13:06:06.5	79.440	-0.150	-0.100	0.690
2020/01/31 13:06:06.6	79.390	-0.160	-0.110	0.740
2020/01/31 13:06:06.7	79.340	-0.180	-0.120	0.790
2020/01/31 13:06:06.8	79.290	-0.190	-0.130	0.840
2020/01/31 13:06:06.9	79.240	-0.210	-0.140	0.880
2020/01/31 13:06:07.0	79.190	-0.220	-0.140	0.920
2020/01/31 13:06:07.1	79.140	-0.240	-0.150	0.960
2020/01/31 13:06:07.2	79.100	-0.250	-0.150	1.000
2020/01/31 13:06:07.3	79.050	-0.270	-0.160	1.030
2020/01/31 13:06:07.4	79.000	-0.290	-0.160	1.070
2020/01/31 13:06:07.5	78.960	-0.300	-0.160	1.100
2020/01/31 13:06:07.6	78.920	-0.320	-0.160	1.130
2020/01/31 13:06:07.7	78.870	-0.340	-0.160	1.150
2020/01/31 13:06:07.8	78.820	-0.350	-0.150	1.180
2020/01/31 13:06:07.9	78.780	-0.370	-0.150	1.200
2020/01/31 13:06:08.0	78.730	-0.380	-0.140	1.220
2020/01/31 13:06:08.1	78.680	-0.400	-0.130	1.250
2020/01/31 13:06:08.2	78.620	-0.410	-0.120	1.270
2020/01/31 13:06:08.3	78.570	-0.430	-0.100	1.290
2020/01/31 13:06:08.4	78.510	-0.440	-0.080	1.310
2020/01/31 13:06:08.5	78.460	-0.450	-0.070	1.330
2020/01/31 13:06:08.6	78.400	-0.460	-0.050	1.360
2020/01/31 13:06:08.7	78.330	-0.470	-0.020	1.380
2020/01/31 13:06:08.8	78.260	-0.480	0.000	1.410
2020/01/31 13:06:08.9	78.190	-0.490	0.030	1.440
2020/01/31 13:06:09.0	78.120	-0.500	0.060	1.470
2020/01/31 13:06:09.1	78.040	-0.510	0.100	1.490
2020/01/31 13:06:09.2	77.970	-0.510	0.130	1.520
2020/01/31 13:06:09.3	77.890	-0.520	0.160	1.550
2020/01/31 13:06:09.4	77.800	-0.520	0.200	1.580
2020/01/31 13:06:09.5	77.710	-0.520	0.230	1.600
2020/01/31 13:06:09.6	77.620	-0.530	0.260	1.630
2020/01/31 13:06:09.7	77.530	-0.520	0.290	1.650
2020/01/31 13:06:09.8	77.440	-0.520	0.320	1.670
2020/01/31 13:06:09.9	77.350	-0.520	0.340	1.690
2020/01/31 13:06:10.0	77.250	-0.520	0.360	1.710
2020/01/31 13:06:10.1	77.160	-0.510	0.380	1.720
2020/01/31 13:06:10.2	77.060	-0.500	0.400	1.740
2020/01/31 13:06:10.3	76.970	-0.490	0.400	1.750
2020/01/31 13:06:10.4	76.870	-0.480	0.400	1.750
2020/01/31 13:06:10.5	76.780	-0.470	0.400	1.750
2020/01/31 13:06:10.6	76.680	-0.450	0.390	1.750
2020/01/31 13:06:10.7	76.590	-0.430	0.370	1.740
2020/01/31 13:06:10.8	76.490	-0.410	0.340	1.730
2020/01/31 13:06:10.9	76.400	-0.390	0.310	1.710
2020/01/31 13:06:11.0	76.310	-0.370	0.270	1.680
2020/01/31 13:06:11.1	76.220	-0.340	0.220	1.650
2020/01/31 13:06:11.2	76.130	-0.310	0.170	1.620
2020/01/31 13:06:11.3	76.050	-0.280	0.100	1.570
2020/01/31 13:06:11.4	75.970	-0.240	0.030	1.520
2020/01/31 13:06:11.5	75.890	-0.200	-0.040	1.470
2020/01/31 13:06:11.6	75.820	-0.160	-0.120	1.400
2020/01/31 13:06:11.7	75.750	-0.120	-0.210	1.340
2020/01/31 13:06:11.8	75.680	-0.080	-0.300	1.260
2020/01/31 13:06:11.9	75.610	-0.030	-0.400	1.190
2020/01/31 13:06:12.0	75.550	0.020	-0.490	1.110
2020/01/31 13:06:12.1	75.490	0.070	-0.590	1.020
2020/01/31 13:06:12.2	75.430	0.120	-0.690	0.930
2020/01/31 13:06:12.3	75.380	0.180	-0.790	0.840
2020/01/31 13:06:12.4	75.320	0.230	-0.890	0.750
2020/01/31 13:06:12.5	75.270	0.280	-0.990	0.650
2020/01/31 13:06:12.6	75.220	0.340	-1.080	0.560
2020/01/31 13:06:12.7	75.160	0.400	-1.170	0.460
2020/01/31 13:06:12.8	75.110	0.450	-1.260	0.370
2020/01/31 13:06:12.9	75.060	0.500	-1.330	0.270
2020/01/31 13:06:13.0	75.010	0.560	-1.400	0.180
2020/01/31 13:06:13.1	74.960	0.610	-1.460	0.090
2020/01/31 13:06:13.2	74.910	0.660	-1.510	0.000
2020/01/31 13:06:13.3	74.860	0.700	-1.560	-0.090
2020/01/31 13:06:13.4	74.800	0.740	-1.590	-0.170
2020/01/31 13:06:13.5	74.740	0.780	-1.610	-0.250
2020/01/31 13:06:13.6	74.680	0.820	-1.620	-0.320
2020/01/31 13:06:13.7	74.620	0.850	-1.610	-0.400
2020/01/31 13:06:13.8	74.560	0.880	-1.600	-0.470
2020/01/31 13:06:13.9	74.500	0.900	-1.570	-0.530
2020/01/31 13:06:14.0	74.430	0.920	-1.530	-0.600
2020/01/31 13:06:14.1	74.360	0.930	-1.480	-0.650
2020/01/31 13:06:14.2	74.290	0.930	-1.420	-0.710
2020/01/31 13:06:14.3	74.210	0.930	-1.350	-0.760
2020/01/31 13:06:14.4	74.140	0.930	-1.260	-0.810
2020/01/31 13:06:14.5	74.050	0.910	-1.170	-0.850
2020/01/31 13:06:14.6	73.970	0.900	-1.070	-0.890
2020/01/31 13:06:14.7	73.880	0.870	-0.950	-0.930
2020/01/31 13:06:14.8	73.790	0.840	-0.840	-0.960
2020/01/31 13:06:14.9	73.700	0.810	-0.710	-0.990
2020/01/31 13:06:15.0	73.610	0.770	-0.580	-1.010
2020/01/31 13:06:15.1	73.510	0.720	-0.450	-1.030
2020/01/31 13:06:15.2	73.420	0.670	-0.310	-1.050
2020/01/31 13:06:15.3	73.320	0.620	-0.180	-1.060
2020/01/31 13:06:15.4	73.220	0.560	-0.040	-1.080
2020/01/31 13:06:15.5	73.140	0.500	0.090	-1.090
2020/01/31 13:06:15.6	73.050	0.440	0.230	-1.090
2020/01/31 13:06:15.7	72.950	0.380	0.350	-1.100
2020/01/31 13:06:15.8	72.860	0.310	0.480	-1.100
2020/01/31 13:06:15.9	72.760	0.240	0.590	-1.100
2020/01/31 13:06:16.0	72.670	0.170	0.700	-1.110
2020/01/31 13:06:16.1	72.590	0.110	0.810	-1.100
2020/01/31 13:06:16.2	72.500	0.040	0.900	-1.100
2020/01/31 13:06:16.3	72.420	-0.020	0.980	-1.100
2020/01/31 13:06:16.4	72.340	-0.090	1.050	-1.100
2020/01/31 13:06:16.5	72.270	-0.150	1.120	-1.090
2020/01/31 13:06:16.6	72.200	-0.210	1.160	-1.090
2020/01/31 13:06:16.7	72.130	-0.260	1.200	-1.090
2020/01/31 13:06:16.8	72.070	-0.310	1.220	-1.080
2020/01/31 13:06:16.9	72.000	-0.360	1.240	-1.080
2020/01/31 13:06:17.0	71.950	-0.400	1.240	-1.080
2020/01/31 13:06:17.1	71.890	-0.430	1.230	-1.070
2020/01/31 13:06:17.2	71.840	-0.460	1.200	-1.070
2020/01/31 13:06:17.3	71.790	-0.490	1.170	-1.060
2020/01/31 13:06:17.4	71.740	-0.510	1.120	-1.050
2020/01/31 13:06:17.5	71.690	-0.520	1.070	-1.040
2020/01/31 13:06:17.6	71.640	-0.530	1.000	-1.030
2020/01/31 13:06:17.7	71.600	-0.530	0.930	-1.020
2020/01/31 13:06:17.8	71.560	-0.530	0.860	-1.000
2020/01/31 13:06:17.9	71.530	-0.520	0.770	-0.990
2020/01/31 13:06:18.0	71.490	-0.510	0.690	-0.970
2020/01/31 13:06:18.1	71.450	-0.490	0.600	-0.950
2020/01/31 13:06:18.2	71.420	-0.470	0.500	-0.920
2020/01/31 13:06:18.3	71.380	-0.440	0.410	-0.890
2020/01/31 13:06:18.4	71.350	-0.410	0.320	-0.860
2020/01/31 13:06:18.5	71.310	-0.380	0.220	-0.830
2020/01/31 13:06:18.6	71.270	-0.350	0.130	-0.790
2020/01/31 13:06:18.7	71.240	-0.310	0.040	-0.750
2020/01/31 13:06:18.8	71.200	-0.270	-0.040	-0.710
2020/01/31 13:06:18.9	71.160	-0.230	-0.120	-0.660
2020/01/31 13:06:19.0	71.120	-0.190	-0.200	-0.610
2020/01/31 13:06:19.1	71.080	-0.160	-0.270	-0.560
2020/01/31 13:06:19.2	71.040	-0.120	-0.330	-0.500
2020/01/31 13:06:19.3	70.990	-0.080	-0.380	-0.440
2020/01/31 13:06:19.4	70.940	-0.050	-0.430	-0.370
2020/01/31 13:06:19.5	70.890	-0.020	-0.470	-0.300
2020/01/31 13:06:19.6	70.840	0.010	-0.500	-0.230
2020/01/31 13:06:19.7	70.780	0.040	-0.530	-0.160
2020/01/31 13:06:19.8	70.710	0.060	-0.540	-0.080
2020/01/31 13:06:19.9	70.650	0.080	-0.550	0.000
2020/01/31 13:06:20.0	70.580	0.100	-0.550	0.090
2020/01/31 13:06:20.1	70.510	0.110	-0.540	0.180
2020/01/31 13:06:20.2	70.430	0.120	-0.530	0.270
2020/01/31 13:06:20.3	70.360	0.130	-0.510	0.360
2020/01/31 13:06:20.4	70.270	0.130	-0.480	0.460
2020/01/31 13:06:20.5	70.170	0.120	-0.450	0.560
2020/01/31 13:06:20.6	70.090	0.120	-0.410	0.660
2020/01/31 13:06:20.7	70.000	0.110	-0.370	0.760
2020/01/31 13:06:20.8	69.910	0.090	-0.330	0.860
2020/01/31 13:06:20.9	69.810	0.070	-0.280	0.960
2020/01/31 13:06:21.0	69.720	0.050	-0.240	1.060
2020/01/31 13:06:21.1	69.620	0.030	-0.190	1.160
2020/01/31 13:06:21.2	69.520	0.010	-0.140	1.260
2020/01/31 13:06:21.3	69.430	-0.020	-0.090	1.360
2020/01/31 13:06:21.4	69.330	-0.050	-0.050	1.450
2020/01/31 13:06:21.5	69.240	-0.070	-0.000	1.540
2020/01/31 13:06:21.6	69.140	-0.100	0.030	1.630
2020/01/31 13:06:21.7	69.050	-0.130	0.060	1.710
2020/01/31 13:06:21.8	68.960	-0.160	0.090	1.790
2020/01/31 13:06:21.9	68.860	-0.190	0.110	1.860
2020/01/31 13:06:22.0	68.780	-0.220	0.130	1.920
2020/01/31 13:06:22.1	68.690	-0.250	0.140	1.980
2020/01/31 13:06:22.2	68.600	-0.270	0.140	2.030
2020/01/31 13:06:22.3	68.520	-0.290	0.140	2.080
2020/01/31 13:06:22.4	68.440	-0.310	0.130	2.110
2020/01/31 13:06:22.5	68.360	-0.330	0.110	2.150
2020/01/31 13:06:22.6	68.290	-0.350	0.090	2.170
2020/01/31 13:06:22.7	68.210	-0.360	0.070	2.190
2020/01/31 13:06:22.8	68.140	-0.370	0.040	2.200
2020/01/31 13:06:22.9	68.070	-0.380	0.000	2.210
2020/01/31 13:06:23.0	68.010	-0.380	-0.040	2.210
2020/01/31 13:06:23.1	67.940	-0.380	-0.080	2.210
2020/01/31 13:06:23.2	67.870	-0.380	-0.120	2.200
2020/01/31 13:06:23.3	67.810	-0.380	-0.170	2.180
2020/01/31 13:06:23.4	67.740	-0.370	-0.210	2.170
2020/01/31 13:06:23.5	67.680	-0.360	-0.260	2.140
2020/01/31 13:06:23.6	67.620	-0.350	-0.300	2.120
2020/01/31 13:06:23.7	67.550	-0.330	-0.350	2.090
2020/01/31 13:06:23.8	67.490	-0.310	-0.390	2.060
2020/01/31 13:06:23.9	67.420	-0.290	-0.430	2.020
2020/01/31 13:06:24.0	67.360	-0.270	-0.460	1.990
2020/01/31 13:06:24.1	67.290	-0.250	-0.500	1.950
2020/01/31 13:06:24.2	67.220	-0.220	-0.530	1.910
2020/01/31 13:06:24.3	67.150	-0.190	-0.550	1.870
2020/01/31 13:06:24.4	67.090	-0.160	-0.580	1.820
2020/01/31 13:06:24.5	67.030	-0.130	-0.600	1.780
2020/01/31 13:06:24.6	66.960	-0.100	-0.620	1.730
2020/01/31 13:06:24.7	66.890	-0.070	-0.630	1.670
2020/01/31 13:06:24.8	66.820	-0.040	-0.640	1.620
2020/01/31 13:06:24.9	66.750	-0.000	-0.650	1.560
2020/01/31 13:06:25.0	66.680	0.030	-0.650	1.500
2020/01/31 13:06:25.1	66.610	0.060	-0.650	1.440
2020/01/31 13:06:25.2	66.540	0.090	-0.650	1.380
2020/01/31 13:06:25.3	66.470	0.120	-0.650	1.310
2020/01/31 13:06:25.4	66.400	0.150	-0.640	1.250
2020/01/31 13:06:25.5	66.330	0.180	-0.630	1.170
2020/01/31 13:06:25.6	66.260	0.210	-0.630	1.100
2020/01/31 13:06:25.7	66.190	0.240	-0.610	1.030
2020/01/31 13:06:25.8	66.120	0.260	-0.600	0.950
2020/01/31 13:06:25.9	66.050	0.280	-0.590	0.880
2020/01/31 13:06:26.0	65.980	0.300	-0.570	0.800
2020/01/31 13:06:26.1	65.900	0.310	-0.560	0.720
2020/01/31 13:06:26.2	65.830	0.330	-0.540	0.640
2020/01/31 13:06:26.3	65.760	0.340	-0.520	0.570
2020/01/31 13:06:26.4	65.680	0.350	-0.500	0.490
2020/01/31 13:06:26.5	65.600	0.350	-0.470	0.410
2020/01/31 13:06:26.6	65.530	0.350	-0.450	0.340
2020/01/31 13:06:26.7	65.450	0.350	-0.420	0.270
2020/01/31 13:06:26.8	65.360	0.350	-0.400	0.190
2020/01/31 13:06:26.9	65.280	0.340	-0.370	0.120
2020/01/31 13:06:27.0	65.200	0.330	-0.340	0.060
2020/01/31 13:06:27.1	65.110	0.320	-0.300	-0.010
2020/01/31 13:06:27.2	65.030	0.300	-0.270	-0.070
2020/01/31 13:06:27.3	64.940	0.290	-0.240	-0.140
2020/01/31 13:06:27.4	64.850	0.270	-0.200	-0.200
2020/01/31 13:06:27.5	64.770	0.240	-0.170	-0.260
2020/01/31 13:06:27.6	64.680	0.220	-0.130	-0.320
2020/01/31 13:06:27.7	64.600	0.200	-0.100	-0.370
2020/01/31 13:06:27.8	64.510	0.170	-0.060	-0.420
2020/01/31 13:06:27.9	64.430	0.140	-0.030	-0.480
2020/01/31 13:06:28.0	64.340	0.110	0.010	-0.530
2020/01/31 13:06:28.1	64.250	0.090	0.040	-0.580
2020/01/31 13:06:28.2	64.170	0.060	0.070	-0.620
2020/01/31 13:06:28.3	64.090	0.030	0.100	-0.670
2020/01/31 13:06:28.4	64.010	0.000	0.120	-0.720
2020/01/31 13:06:28.5	63.930	-0.020	0.140	-0.770
2020/01/31 13:06:28.6	63.850	-0.050	0.160	-0.810
2020/01/31 13:06:28.7	63.770	-0.070	0.180	-0.860
2020/01/31 13:06:28.8	63.700	-0.090	0.190	-0.910
2020/01/31 13:06:28.9	63.620	-0.110	0.200	-0.950
2020/01/31 13:06:29.0	63.550	-0.130	0.210	-1.000
2020/01/31 13:06:29.1	63.480	-0.150	0.210	-1.040
2020/01/31 13:06:29.2	63.400	-0.160	0.210	-1.090
2020/01/31 13:06:29.3	63.330	-0.170	0.200	-1.130
2020/01/31 13:06:29.4	63.270	-0.180	0.190	-1.170
2020/01/31 13:06:29.5	63.210	-0.180	0.180	-1.210
2020/01/31 13:06:29.6	63.140	-0.190	0.170	-1.250
2020/01/31 13:06:29.7	63.080	-0.190	0.150	-1.290
2020/01/31 13:06:29.8	63.010	-0.180	0.130	-1.330
2020/01/31 13:06:29.9	62.940	-0.180	0.110	-1.370
2020/01/31 13:06:30.0	62.880	-0.170	0.090	-1.400
2020/01/31 13:06:30.1	62.820	-0.160	0.060	-1.430
2020/01/31 13:06:30.2	62.750	-0.150	0.040	-1.460
2020/01/31 13:06:30.3	62.690	-0.130	0.010	-1.490
2020/01/31 13:06:30.4	62.630	-0.120	-0.010	-1.510
2020/01/31 13:06:30.5	62.560	-0.100	-0.040	-1.530
2020/01/31 13:06:30.6	62.500	-0.080	-0.060	-1.550
2020/01/31 13:06:30.7	62.440	-0.060	-0.080	-1.560
2020/01/31 13:06:30.8	62.380	-0.040	-0.110	-1.570
2020/01/31 13:06:30.9	62.310	-0.020	-0.130	-1.570
2020/01/31 13:06:31.0	62.250	0.010	-0.140	-1.570
2020/01/31 13:06:31.1	62.190	0.030	-0.160	-1.570
2020/01/31 13:06:31.2	62.130	0.050	-0.170	-1.560
2020/01/31 13:06:31.3	62.060	0.070	-0.190	-1.550
2020/01/31 13:06:31.4	62.000	0.100	-0.200	-1.530
2020/01/31 13:06:31.5	61.930	0.120	-0.210	-1.500
2020/01/31 13:06:31.6	61.870	0.140	-0.210	-1.470
2020/01/31 13:06:31.7	61.800	0.160	-0.210	-1.440
2020/01/31 13:06:31.8	61.730	0.180	-0.210	-1.400
2020/01/31 13:06:31.9	61.670	0.200	-0.210	-1.360
2020/01/31 13:06:32.0	61.600	0.220	-0.210	-1.320
2020/01/31 13:06:32.1	61.530	0.240	-0.210	-1.270
2020/01/31 13:06:32.2	61.460	0.250	-0.200	-1.210
2020/01/31 13:06:32.3	61.390	0.270	-0.190	-1.160
2020/01/31 13:06:32.4	61.310	0.280	-0.190	-1.090
2020/01/31 13:06:32.5	61.250	0.290	-0.180	-1.030
2020/01/31 13:06:32.6	61.180	0.300	-0.170	-0.960
2020/01/31 13:06:32.7	61.100	0.310	-0.160	-0.890
2020/01/31 13:06:32.8	61.030	0.320	-0.160	-0.820
2020/01/31 13:06:32.9	60.950	0.320	-0.150	-0.750
2020/01/31 13:06:33.0	60.880	0.330	-0.150	-0.670
2020/01/31 13:06:33.1	60.800	0.330	-0.140	-0.590
2020/01/31 13:06:33.2	60.730	0.330	-0.140	-0.520
2020/01/31 13:06:33.3	60.660	0.330	-0.140	-0.440
2020/01/31 13:06:33.4	60.580	0.330	-0.140	-0.370
2020/01/31 13:06:33.5	60.490	0.320	-0.140	-0.290
2020/01/31 13:06:33.6	60.420	0.320	-0.150	-0.210
2020/01/31 13:06:33.7	60.350	0.310	-0.150	-0.140
2020/01/31 13:06:33.8	60.270	0.310	-0.150	-0.070
2020/01/31 13:06:33.9	60.200	0.300	-0.160	0.010
2020/01/31 13:06:34.0	60.130	0.290	-0.160	0.080
2020/01/31 13:06:34.1	60.050	0.280	-0.170	0.150
2020/01/31 13:06:34.2	59.980	0.260	-0.170	0.220
2020/01/31 13:06:34.3	59.910	0.250	-0.170	0.290
2020/01/31 13:06:34.4	59.830	0.230	-0.170	0.360
2020/01/31 13:06:34.5	59.760	0.220	-0.170	0.430
2020/01/31 13:06:34.6	59.680	0.200	-0.170	0.500
2020/01/31 13:06:34.7	59.610	0.180	-0.160	0.570
2020/01/31 13:06:34.8	59.530	0.160	-0.150	0.640
2020/01/31 13:06:34.9	59.460	0.140	-0.140	0.700
2020/01/31 13:06:35.0	59.380	0.120	-0.120	0.770
2020/01/31 13:06:35.1	59.310	0.090	-0.100	0.840
2020/01/31 13:06:35.2	59.230	0.070	-0.080	0.910
2020/01/31 13:06:35.3	59.160	0.040	-0.060	0.970
2020/01/31 13:06:35.4	59.080	0.010	-0.030	1.030
2020/01/31 13:06:35.5	59.010	-0.020	-0.010	1.100
2020/01/31 13:06:35.6	58.940	-0.050	0.020	1.160
2020/01/31 13:06:35.7	58.860	-0.080	0.040	1.210
2020/01/31 13:06:35.8	58.790	-0.110	0.070	1.270
2020/01/31 13:06:35.9	58.720	-0.140	0.100	1.320
2020/01/31 13:06:36.0	58.640	-0.170	0.120	1.360
2020/01/31 13:06:36.1	58.570	-0.210	0.140	1.400
2020/01/31 13:06:36.2	58.500	-0.240	0.170	1.440
2020/01/31 13:06:36.3	58.430	-0.270	0.190	1.470
2020/01/31 13:06:36.4	58.360	-0.310	0.200	1.500
2020/01/31 13:06:36.5	58.290	-0.340	0.220	1.520
2020/01/31 13:06:36.6	58.220	-0.370	0.230	1.540
2020/01/31 13:06:36.7	58.150	-0.400	0.240	1.560
2020/01/31 13:06:36.8	58.090	-0.440	0.240	1.570
2020/01/31 13:06:36.9	58.020	-0.460	0.240	1.580
2020/01/31 13:06:37.0	57.960	-0.490	0.240	1.590
2020/01/31 13:06:37.1	57.900	-0.520	0.230	1.590
2020/01/31 13:06:37.2	57.830	-0.540	0.220	1.580
2020/01/31 13:06:37.3	57.770	-0.560	0.210	1.580
2020/01/31 13:06:37.4	57.710	-0.580	0.200	1.570
2020/01/31 13:06:37.5	57.640	-0.590	0.180	1.550
2020/01/31 13:06:37.6	57.580	-0.610	0.150	1.540
2020/01/31 13:06:37.7	57.510	-0.620	0.130	1.520
2020/01/31 13:06:37.8	57.450	-0.620	0.100	1.500
2020/01/31 13:06:37.9	57.390	-0.630	0.070	1.470
2020/01/31 13:06:38.0	57.320	-0.630	0.040	1.450
2020/01/31 13:06:38.1	57.260	-0.620	0.010	1.420
2020/01/31 13:06:38.2	57.190	-0.620	-0.020	1.390
2020/01/31 13:06:38.3	57.130	-0.610	-0.050	1.360
2020/01/31 13:06:38.4	57.060	-0.590	-0.090	1.330
2020/01/31 13:06:38.5	56.990	-0.570	-0.120	1.300
2020/01/31 13:06:38.6	56.920	-0.550	-0.150	1.260
2020/01/31 13:06:38.7	56.850	-0.530	-0.180	1.230
2020/01/31 13:06:38.8	56.780	-0.500	-0.210	1.200
2020/01/31 13:06:38.9	56.700	-0.470	-0.240	1.170
2020/01/31 13:06:39.0	56.630	-0.440	-0.270	1.140
2020/01/31 13:06:39.1	56.550	-0.410	-0.300	1.110
2020/01/31 13:06:39.2	56.480	-0.370	-0.320	1.080
2020/01/31 13:06:39.3	56.400	-0.330	-0.340	1.050
2020/01/31 13:06:39.4	56.320	-0.290	-0.360	1.020
2020/01/31 13:06:39.5	56.220	-0.250	-0.380	0.990
2020/01/31 13:06:39.6	56.140	-0.210	-0.400	0.960
2020/01/31 13:06:39.7	56.050	-0.160	-0.410	0.930
2020/01/31 13:06:39.8	55.970	-0.120	-0.430	0.910
2020/01/31 13:06:39.9	55.880	-0.070	-0.440	0.880
2020/01/31 13:06:40.0	55.800	-0.020	-0.450	0.850
2020/01/31 13:06:40.1	55.710	0.020	-0.460	0.820
2020/01/31 13:06:40.2	55.630	0.070	-0.470	0.790
2020/01/31 13:06:40.3	55.540	0.110	-0.480	0.760
2020/01/31 13:06:40.4	55.450	0.150	-0.490	0.730
2020/01/31 13:06:40.5	55.360	0.190	-0.490	0.700
2020/01/31 13:06:40.6	55.270	0.240	-0.500	0.670
2020/01/31 13:06:40.7	55.180	0.270	-0.510	0.640
2020/01/31 13:06:40.8	55.090	0.310	-0.510	0.610
2020/01/31 13:06:40.9	55.000	0.350	-0.520	0.580
2020/01/31 13:06:41.0	54.910	0.380	-0.520	0.550
2020/01/31 13:06:41.1	54.820	0.410	-0.520	0.510
2020/01/31 13:06:41.2	54.730	0.430	-0.520	0.480
2020/01/31 13:06:41.3	54.640	0.460	-0.530	0.440
2020/01/31 13:06:41.4	54.550	0.480	-0.530	0.410
2020/01/31 13:06:41.5	54.470	0.500	-0.530	0.360
2020/01/31 13:06:41.6	54.380	0.510	-0.530	0.320
2020/01/31 13:06:41.7	54.290	0.530	-0.530	0.280
2020/01/31 13:06:41.8	54.200	0.540	-0.530	0.240
2020/01/31 13:06:41.9	54.120	0.540	-0.520	0.200
2020/01/31 13:06:42.0	54.030	0.550	-0.520	0.150
2020/01/31 13:06:42.1	53.950	0.550	-0.520	0.100
2020/01/31 13:06:42.2	53.870	0.550	-0.510	0.050
2020/01/31 13:06:42.3	53.790	0.540	-0.510	-0.000
2020/01/31 13:06:42.4	53.710	0.530	-0.500	-0.060
2020/01/31 13:06:42.5	53.640	0.520	-0.500	-0.110
2020/01/31 13:06:42.6	53.570	0.510	-0.490	-0.170
2020/01/31 13:06:42.7	53.500	0.500	-0.480	-0.230
2020/01/31 13:06:42.8	53.430	0.480	-0.470	-0.290
2020/01/31 13:06:42.9	53.360	0.470	-0.460	-0.360
2020/01/31 13:06:43.0	53.290	0.450	-0.450	-0.430
2020/01/31 13:06:43.1	53.220	0.430	-0.440	-0.500
2020/01/31 13:06:43.2	53.160	0.410	-0.430	-0.570
2020/01/31 13:06:43.3	53.090	0.380	-0.420	-0.640
2020/01/31 13:06:43.4	53.030	0.360	-0.400	-0.710
2020/01/31 13:06:43.5	52.980	0.340	-0.380	-0.780
2020/01/31 13:06:43.6	52.920	0.310	-0.370	-0.850
2020/01/31 13:06:43.7	52.860	0.290	-0.350	-0.920
2020/01/31 13:06:43.8	52.800	0.260	-0.330	-0.990
2020/01/31 13:06:43.9	52.740	0.240	-0.310	-1.050
2020/01/31 13:06:44.0	52.680	0.210	-0.290	-1.110
2020/01/31 13:06:44.1	52.620	0.190	-0.270	-1.170
2020/01/31 13:06:44.2	52.570	0.170	-0.250	-1.230
2020/01/31 13:06:44.3	52.510	0.150	-0.230	-1.290
2020/01/31 13:06:44.4	52.460	0.120	-0.200	-1.340
2020/01/31 13:06:44.5	52.420	0.100	-0.180	-1.380
2020/01/31 13:06:44.6	52.360	0.080	-0.160	-1.430
2020/01/31 13:06:44.7	52.310	0.060	-0.140	-1.470
2020/01/31 13:06:44.8	52.260	0.050	-0.110	-1.500
2020/01/31 13:06:44.9	52.200	0.030	-0.090	-1.540
2020/01/31 13:06:45.0	52.150	0.010	-0.060	-1.560
2020/01/31 13:06:45.1	52.090	-0.000	-0.040	-1.580
2020/01/31 13:06:45.2	52.040	-0.020	-0.020	-1.600
2020/01/31 13:06:45.3	51.990	-0.030	0.010	-1.610
2020/01/31 13:06:45.4	51.930	-0.040	0.030	-1.620
2020/01/31 13:06:45.5	51.890	-0.050	0.050	-1.620
2020/01/31 13:06:45.6	51.840	-0.060	0.080	-1.620
2020/01/31 13:06:45.7	51.780	-0.070	0.100	-1.610
2020/01/31 13:06:45.8	51.730	-0.080	0.120	-1.600
2020/01/31 13:06:45.9	51.670	-0.090	0.150	-1.580
2020/01/31 13:06:46.0	51.610	-0.100	0.170	-1.560
2020/01/31 13:06:46.1	51.550	-0.110	0.190	-1.530
2020/01/31 13:06:46.2	51.490	-0.120	0.220	-1.500
2020/01/31 13:06:46.3	51.430	-0.120	0.240	-1.460
2020/01/31 13:06:46.4	51.360	-0.130	0.260	-1.420
2020/01/31 13:06:46.5	51.300	-0.140	0.280	-1.370
2020/01/31 13:06:46.6	51.230	-0.150	0.300	-1.320
2020/01/31 13:06:46.7	51.150	-0.160	0.320	-1.260
2020/01/31 13:06:46.8	51.080	-0.160	0.350	-1.200
2020/01/31 13:06:46.9	51.000	-0.170	0.370	-1.140
2020/01/31 13:06:47.0	50.910	-0.180	0.390	-1.070
2020/01/31 13:06:47.1	50.830	-0.190	0.420	-1.000
2020/01/31 13:06:47.2	50.740	-0.200	0.440	-0.920
2020/01/31 13:06:47.3	50.650	-0.200	0.460	-0.840
2020/01/31 13:06:47.4	50.550	-0.210	0.480	-0.750
2020/01/31 13:06:47.5	50.460	-0.220	0.500	-0.660
2020/01/31 13:06:47.6	50.360	-0.230	0.530	-0.570
2020/01/31 13:06:47.7	50.260	-0.240	0.550	-0.470
2020/01/31 13:06:47.8	50.150	-0.240	0.570	-0.370
2020/01/31 13:06:47.9	50.040	-0.250	0.580	-0.260
2020/01/31 13:06:48.0	49.930	-0.250	0.600	-0.160
2020/01/31 13:06:48.1	49.810	-0.260	0.610	-0.050
2020/01/31 13:06:48.2	49.700	-0.260	0.620	0.060
2020/01/31 13:06:48.3	49.580	-0.270	0.630	0.170
2020/01/31 13:06:48.4	49.470	-0.270	0.630	0.290
2020/01/31 13:06:48.5	49.370	-0.270	0.620	0.400
2020/01/31 13:06:48.6	49.250	-0.270	0.610	0.510
2020/01/31 13:06:48.7	49.140	-0.270	0.590	0.620
2020/01/31 13:06:48.8	49.030	-0.260	0.570	0.720
2020/01/31 13:06:48.9	48.920	-0.260	0.540	0.820
2020/01/31 13:06:49.0	48.810	-0.250	0.500	0.920
2020/01/31 13:06:49.1	48.700	-0.240	0.460	1.010
2020/01/31 13:06:49.2	48.600	-0.230	0.400	1.100
2020/01/31 13:06:49.3	48.510	-0.220	0.340	1.180
2020/01/31 13:06:49.4	48.420	-0.200	0.280	1.250
2020/01/31 13:06:49.5	48.330	-0.190	0.200	1.310
2020/01/31 13:06:49.6	48.250	-0.170	0.120	1.370
2020/01/31 13:06:49.7	48.170	-0.150	0.030	1.420
2020/01/31 13:06:49.8	48.100	-0.130	-0.060	1.460
2020/01/31 13:06:49.9	48.030	-0.100	-0.160	1.480
2020/01/31 13:06:50.0	47.970	-0.080	-0.270	1.510
2020/01/31 13:06:50.1	47.910	-0.050	-0.370	1.520
2020/01/31 13:06:50.2	47.860	-0.020	-0.480	1.520
2020/01/31 13:06:50.3	47.810	0.010	-0.600	1.510
2020/01/31 13:06:50.4	47.770	0.040	-0.710	1.500
2020/01/31 13:06:50.5	47.730	0.070	-0.820	1.470
2020/01/31 13:06:50.6	47.700	0.100	-0.930	1.440
2020/01/31 13:06:50.7	47.670	0.140	-1.040	1.410
2020/01/31 13:06:50.8	47.640	0.170	-1.140	1.370
2020/01/31 13:06:50.9	47.610	0.200	-1.230	1.320
2020/01/31 13:06:51.0	47.580	0.230	-1.320	1.270
2020/01/31 13:06:51.1	47.550	0.270	-1.400	1.230
2020/01/31 13:06:51.2	47.530	0.300	-1.460	1.180
2020/01/31 13:06:51.3	47.500	0.330	-1.520	1.130
2020/01/31 13:06:51.4	47.470	0.350	-1.570	1.080
2020/01/31 13:06:51.5	47.450	0.380	-1.590	1.030
2020/01/31 13:06:51.6	47.410	0.400	-1.610	0.990
2020/01/31 13:06:51.7	47.370	0.420	-1.610	0.950
2020/01/31 13:06:51.8	47.330	0.440	-1.600	0.910
2020/01/31 13:06:51.9	47.290	0.450	-1.580	0.870
2020/01/31 13:06:52.0	47.230	0.460	-1.540	0.840
2020/01/31 13:06:52.1	47.180	0.470	-1.480	0.820
2020/01/31 13:06:52.2	47.120	0.470	-1.410	0.790
2020/01/31 13:06:52.3	47.050	0.470	-1.330	0.770
2020/01/31 13:06:52.4	46.980	0.470	-1.240	0.760
2020/01/31 13:06:52.5	46.910	0.460	-1.140	0.740
2020/01/31 13:06:52.6	46.830	0.450	-1.030	0.740
2020/01/31 13:06:52.7	46.750	0.440	-0.910	0.730
2020/01/31 13:06:52.8	46.660	0.420	-0.780	0.730
2020/01/31 13:06:52.9	46.560	0.400	-0.650	0.730
2020/01/31 13:06:53.0	46.470	0.370	-0.520	0.730
2020/01/31 13:06:53.1	46.370	0.340	-0.380	0.730
2020/01/31 13:06:53.2	46.270	0.310	-0.240	0.730
2020/01/31 13:06:53.3	46.160	0.280	-0.110	0.730
2020/01/31 13:06:53.4	46.050	0.240	0.020	0.730
2020/01/31 13:06:53.5	45.950	0.200	0.150	0.730
2020/01/31 13:06:53.6	45.840	0.170	0.270	0.720
2020/01/31 13:06:53.7	45.730	0.130	0.380	0.720
2020/01/31 13:06:53.8	45.620	0.090	0.490	0.710
2020/01/31 13:06:53.9	45.510	0.050	0.580	0.690
2020/01/31 13:06:54.0	45.400	0.010	0.670	0.680
2020/01/31 13:06:54.1	45.290	-0.030	0.750	0.660
2020/01/31 13:06:54.2	45.180	-0.070	0.810	0.630
2020/01/31 13:06:54.3	45.080	-0.100	0.870	0.610
2020/01/31 13:06:54.4	44.980	-0.140	0.910	0.570
2020/01/31 13:06:54.5	44.880	-0.170	0.940	0.530
2020/01/31 13:06:54.6	44.780	-0.200	0.960	0.490
2020/01/31 13:06:54.7	44.690	-0.220	0.970	0.450
2020/01/31 13:06:54.8	44.590	-0.240	0.970	0.400
2020/01/31 13:06:54.9	44.510	-0.260	0.960	0.350
2020/01/31 13:06:55.0	44.420	-0.280	0.930	0.290
2020/01/31 13:06:55.1	44.340	-0.290	0.900	0.230
2020/01/31 13:06:55.2	44.250	-0.300	0.850	0.170
2020/01/31 13:06:55.3	44.180	-0.310	0.800	0.110
2020/01/31 13:06:55.4	44.100	-0.310	0.750	0.040
2020/01/31 13:06:55.5	44.030	-0.310	0.690	-0.030
2020/01/31 13:06:55.6	43.960	-0.300	0.620	-0.090
2020/01/31 13:06:55.7	43.890	-0.300	0.550	-0.160
2020/01/31 13:06:55.8	43.820	-0.290	0.470	-0.230
2020/01/31 13:06:55.9	43.750	-0.280	0.390	-0.300
2020/01/31 13:06:56.0	43.680	-0.270	0.320	-0.360
2020/01/31 13:06:56.1	43.620	-0.260	0.240	-0.430
2020/01/31 13:06:56.2	43.560	-0.240	0.160	-0.500
2020/01/31 13:06:56.3	43.500	-0.230	0.090	-0.560
2020/01/31 13:06:56.4	43.440	-0.210	0.020	-0.630
2020/01/31 13:06:56.5	43.390	-0.190	-0.060	-0.680
2020/01/31 13:06:56.6	43.330	-0.180	-0.120	-0.750
2020/01/31 13:06:56.7	43.270	-0.160	-0.180	-0.810
2020/01/31 13:06:56.8	43.220	-0.150	-0.240	-0.870
2020/01/31 13:06:56.9	43.170	-0.140	-0.290	-0.920
2020/01/31 13:06:57.0	43.120	-0.120	-0.340	-0.980
2020/01/31 13:06:57.1	43.070	-0.110	-0.390	-1.030
2020/01/31 13:06:57.2	43.020	-0.110	-0.420	-1.090
2020/01/31 13:06:57.3	42.970	-0.100	-0.460	-1.140
2020/01/31 13:06:57.4	42.920	-0.100	-0.480	-1.180
2020/01/31 13:06:57.5	42.880	-0.090	-0.500	-1.230
2020/01/31 13:06:57.6	42.830	-0.090	-0.520	-1.270
2020/01/31 13:06:57.7	42.780	-0.100	-0.530	-1.300
2020/01/31 13:06:57.8	42.730	-0.100	-0.530	-1.340
2020/01/31 13:06:57.9	42.680	-0.110	-0.540	-1.370
2020/01/31 13:06:58.0	42.620	-0.120	-0.530	-1.400
2020/01/31 13:06:58.1	42.570	-0.130	-0.520	-1.420
2020/01/31 13:06:58.2	42.510	-0.140	-0.510	-1.440
2020/01/31 13:06:58.3	42.450	-0.160	-0.490	-1.450
2020/01/31 13:06:58.4	42.390	-0.170	-0.470	-1.460
2020/01/31 13:06:58.5	42.340	-0.190	-0.450	-1.470
2020/01/31 13:06:58.6	42.280	-0.210	-0.420	-1.470
2020/01/31 13:06:58.7	42.210	-0.230	-0.390	-1.460
2020/01/31 13:06:58.8	42.140	-0.250	-0.360	-1.450
2020/01/31 13:06:58.9	42.070	-0.270	-0.320	-1.440
2020/01/31 13:06:59.0	41.990	-0.290	-0.280	-1.420
2020/01/31 13:06:59.1	41.920	-0.310	-0.240	-1.400
2020/01/31 13:06:59.2	41.840	-0.320	-0.200	-1.370
2020/01/31 13:06:59.3	41.760	-0.340	-0.170	-1.340
2020/01/31 13:06:59.4	41.680	-0.360	-0.130	-1.310
2020/01/31 13:06:59.5	41.590	-0.370	-0.090	-1.270
2020/01/31 13:06:59.6	41.510	-0.380	-0.050	-1.220
2020/01/31 13:06:59.7	41.420	-0.390	-0.020	-1.180
2020/01/31 13:06:59.8	41.330	-0.390	0.020	-1.120
2020/01/31 13:06:59.9	41.240	-0.390	0.050	-1.070
2020/01/31 13:07:00.0	41.150	-0.390	0.070	-1.010
2020/01/31 13:07:00.1	41.050	-0.390	0.100	-0.950
2020/01/31 13:07:00.2	40.960	-0.380	0.120	-0.890
2020/01/31 13:07:00.3	40.860	-0.370	0.130	-0.830
2020/01/31 13:07:00.4	40.760	-0.360	0.140	-0.760
2020/01/31 13:07:00.5	40.680	-0.340	0.140	-0.690
2020/01/31 13:07:00.6	40.580	-0.320	0.140	-0.620
2020/01/31 13:07:00.7	40.480	-0.300	0.140	-0.550
2020/01/31 13:07:00.8	40.390	-0.270	0.130	-0.480
2020/01/31 13:07:00.9	40.290	-0.240	0.110	-0.410
2020/01/31 13:07:01.0	40.190	-0.210	0.090	-0.340
2020/01/31 13:07:01.1	40.090	-0.180	0.070	-0.270
2020/01/31 13:07:01.2	40.000	-0.140	0.040	-0.200
2020/01/31 13:07:01.3	39.900	-0.100	0.010	-0.130
2020/01/31 13:07:01.4	39.810	-0.060	-0.030	-0.070
2020/01/31 13:07:01.5	39.720	-0.020	-0.070	-0.000
2020/01/31 13:07:01.6	39.630	0.020	-0.120	0.060
2020/01/31 13:07:01.7	39.540	0.060	-0.160	0.120
2020/01/31 13:07:01.8	39.460	0.110	-0.210	0.180
2020/01/31 13:07:01.9	39.370	0.150	-0.260	0.240
2020/01/31 13:07:02.0	39.280	0.190	-0.310	0.300
2020/01/31 13:07:02.1	39.200	0.230	-0.360	0.350
2020/01/31 13:07:02.2	39.120	0.280	-0.410	0.400
2020/01/31 13:07:02.3	39.040	0.320	-0.460	0.450
2020/01/31 13:07:02.4	38.970	0.360	-0.510	0.500
2020/01/31 13:07:02.5	38.900	0.390	-0.560	0.540
2020/01/31 13:07:02.6	38.820	0.430	-0.610	0.590
2020/01/31 13:07:02.7	38.750	0.460	-0.660	0.620
2020/01/31 13:07:02.8	38.680	0.490	-0.700	0.660
2020/01/31 13:07:02.9	38.610	0.520	-0.750	0.690
2020/01/31 13:07:03.0	38.550	0.550	-0.790	0.720
2020/01/31 13:07:03.1	38.480	0.570	-0.820	0.740
2020/01/31 13:07:03.2	38.420	0.590	-0.860	0.760
2020/01/31 13:07:03.3	38.360	0.600	-0.890	0.780
2020/01/31 13:07:03.4	38.300	0.620	-0.910	0.790
2020/01/31 13:07:03.5	38.250	0.630	-0.930	0.800
2020/01/31 13:07:03.6	38.190	0.630	-0.950	0.810
2020/01/31 13:07:03.7	38.130	0.630	-0.960	0.810
2020/01/31 13:07:03.8	38.070	0.630	-0.970	0.810
2020/01/31 13:07:03.9	38.020	0.630	-0.970	0.810
2020/01/31 13:07:04.0	37.960	0.620	-0.970	0.800
2020/01/31 13:07:04.1	37.910	0.610	-0.960	0.800
2020/01/31 13:07:04.2	37.850	0.600	-0.950	0.790
2020/01/31 13:07:04.3	37.790	0.580	-0.930	0.780
2020/01/31 13:07:04.4	37.740	0.560	-0.910	0.770
2020/01/31 13:07:04.5	37.670	0.540	-0.870	0.750
2020/01/31 13:07:04.6	37.610	0.520	-0.840	0.740
2020/01/31 13:07:04.7	37.550	0.500	-0.800	0.720
2020/01/31 13:07:04.8	37.480	0.470	-0.750	0.710
2020/01/31 13:07:04.9	37.420	0.440	-0.700	0.700
2020/01/31 13:07:05.0	37.350	0.410	-0.640	0.690
2020/01/31 13:07:05.1	37.280	0.380	-0.570	0.680
2020/01/31 13:07:05.2	37.200	0.350	-0.510	0.670
2020/01/31 13:07:05.3	37.130	0.310	-0.440	0.660
2020/01/31 13:07:05.4	37.050	0.280	-0.360	0.650
2020/01/31 13:07:05.5	36.960	0.240	-0.290	0.640
2020/01/31 13:07:05.6	36.880	0.210	-0.200	0.630
2020/01/31 13:07:05.7	36.790	0.180	-0.120	0.620
2020/01/31 13:07:05.8	36.700	0.140	-0.040	0.610
2020/01/31 13:07:05.9	36.610	0.110	0.050	0.610
2020/01/31 13:07:06.0	36.520	0.080	0.140	0.600
2020/01/31 13:07:06.1	36.430	0.050	0.220	0.590
2020/01/31 13:07:06.2	36.330	0.020	0.310	0.590
2020/01/31 13:07:06.3	36.230	-0.010	0.390	0.580
2020/01/31 13:07:06.4	36.140	-0.040	0.470	0.570
2020/01/31 13:07:06.5	36.020	-0.070	0.550	0.560
2020/01/31 13:07:06.6	35.910	-0.090	0.630	0.550
2020/01/31 13:07:06.7	35.810	-0.110	0.700	0.550
2020/01/31 13:07:06.8	35.710	-0.130	0.770	0.540
2020/01/31 13:07:06.9	35.610	-0.150	0.830	0.540
2020/01/31 13:07:07.0	35.500	-0.170	0.890	0.530
2020/01/31 13:07:07.1	35.400	-0.180	0.940	0.520
2020/01/31 13:07:07.2	35.290	-0.190	0.980	0.510
2020/01/31 13:07:07.3	35.190	-0.200	1.020	0.510
2020/01/31 13:07:07.4	35.090	-0.210	1.050	0.500
2020/01/31 13:07:07.5	34.980	-0.210	1.060	0.490
2020/01/31 13:07:07.6	34.890	-0.210	1.070	0.480
2020/01/31 13:07:07.7	34.790	-0.210	1.070	0.460
2020/01/31 13:07:07.8	34.700	-0.210	1.060	0.450
2020/01/31 13:07:07.9	34.600	-0.210	1.050	0.430
2020/01/31 13:07:08.0	34.520	-0.200	1.020	0.410
2020/01/31 13:07:08.1	34.430	-0.190	0.980	0.390
2020/01/31 13:07:08.2	34.350	-0.180	0.940	0.360
2020/01/31 13:07:08.3	34.270	-0.170	0.880	0.330
2020/01/31 13:07:08.4	34.200	-0.160	0.820	0.300
2020/01/31 13:07:08.5	34.130	-0.140	0.750	0.270
2020/01/31 13:07:08.6	34.060	-0.130	0.670	0.230
2020/01/31 13:07:08.7	34.000	-0.110	0.590	0.190
2020/01/31 13:07:08.8	33.940	-0.090	0.500	0.150
2020/01/31 13:07:08.9	33.880	-0.080	0.400	0.100
2020/01/31 13:07:09.0	33.830	-0.060	0.310	0.060
2020/01/31 13:07:09.1	33.780	-0.040	0.210	0.010
2020/01/31 13:07:09.2	33.730	-0.020	0.110	-0.040
2020/01/31 13:07:09.3	33.690	-0.010	0.000	-0.090
2020/01/31 13:07:09.4	33.650	0.010	-0.100	-0.140
2020/01/31 13:07:09.5	33.600	0.030	-0.200	-0.190
2020/01/31 13:07:09.6	33.560	0.040	-0.300	-0.250
2020/01/31 13:07:09.7	33.530	0.060	-0.400	-0.300
2020/01/31 13:07:09.8	33.500	0.070	-0.490	-0.350
2020/01/31 13:07:09.9	33.470	0.080	-0.580	-0.410
2020/01/31 13:07:10.0	33.440	0.090	-0.670	-0.460
2020/01/31 13:07:10.1	33.410	0.090	-0.750	-0.520
2020/01/31 13:07:10.2	33.380	0.100	-0.820	-0.570
2020/01/31 13:07:10.3	33.350	0.100	-0.890	-0.620
2020/01/31 13:07:10.4	33.330	0.100	-0.950	-0.680
2020/01/31 13:07:10.5	33.280	0.100	-1.000	-0.730
2020/01/31 13:07:10.6	33.250	0.090	-1.040	-0.770
2020/01/31 13:07:10.7	33.220	0.090	-1.080	-0.820
2020/01/31 13:07:10.8	33.190	0.080	-1.100	-0.860
2020/01/31 13:07:10.9	33.160	0.060	-1.120	-0.900
2020/01/31 13:07:11.0	33.120	0.050	-1.120	-0.940
2020/01/31 13:07:11.1	33.080	0.030	-1.120	-0.970
2020/01/31 13:07:11.2	33.040	0.010	-1.100	-1.000
2020/01/31 13:07:11.3	32.990	-0.010	-1.080	-1.020
2020/01/31 13:07:11.4	32.940	-0.040	-1.040	-1.030
2020/01/31 13:07:11.5	32.890	-0.070	-1.000	-1.040
2020/01/31 13:07:11.6	32.830	-0.100	-0.950	-1.040
2020/01/31 13:07:11.7	32.760	-0.130	-0.880	-1.040
2020/01/31 13:07:11.8	32.690	-0.160	-0.810	-1.030
2020/01/31 13:07:11.9	32.620	-0.200	-0.730	-1.010
2020/01/31 13:07:12.0	32.540	-0.230	-0.650	-0.990
2020/01/31 13:07:12.1	32.450	-0.270	-0.560	-0.960
2020/01/31 13:07:12.2	32.360	-0.310	-0.460	-0.920
2020/01/31 13:07:12.3	32.260	-0.340	-0.350	-0.880
2020/01/31 13:07:12.4	32.160	-0.380	-0.250	-0.830
2020/01/31 13:07:12.5	32.050	-0.420	-0.140	-0.780
2020/01/31 13:07:12.6	31.940	-0.460	-0.030	-0.720
2020/01/31 13:07:12.7	31.820	-0.490	0.080	-0.660
2020/01/31 13:07:12.8	31.690	-0.530	0.190	-0.590
2020/01/31 13:07:12.9	31.560	-0.560	0.300	-0.520
2020/01/31 13:07:13.0	31.430	-0.590	0.410	-0.450
2020/01/31 13:07:13.1	31.300	-0.620	0.510	-0.370
2020/01/31 13:07:13.2	31.160	-0.640	0.600	-0.300
2020/01/31 13:07:13.3	31.020	-0.670	0.680	-0.220
2020/01/31 13:07:13.4	30.890	-0.690	0.760	-0.150
2020/01/31 13:07:13.5	30.760	-0.700	0.820	-0.070
2020/01/31 13:07:13.6	30.620	-0.720	0.880	-0.000
2020/01/31 13:07:13.7	30.490	-0.720	0.920	0.060
2020/01/31 13:07:13.8	30.360	-0.730	0.940	0.120
2020/01/31 13:07:13.9	30.230	-0.730	0.950	0.180
2020/01/31 13:07:14.0	30.110	-0.720	0.950	0.220
2020/01/31 13:07:14.1	30.000	-0.710	0.940	0.270
2020/01/31 13:07:14.2	29.890	-0.690	0.900	0.300
2020/01/31 13:07:14.3	29.780	-0.670	0.860	0.330
2020/01/31 13:07:14.4	29.680	-0.650	0.800	0.350
2020/01/31 13:07:14.5	29.600	-0.620	0.720	0.370
2020/01/31 13:07:14.6	29.520	-0.580	0.630	0.380
2020/01/31 13:07:14.7	29.430	-0.540	0.530	0.380
2020/01/31 13:07:14.8	29.360	-0.500	0.420	0.380
2020/01/31 13:07:14.9	29.290	-0.450	0.310	0.360
2020/01/31 13:07:15.0	29.230	-0.400	0.180	0.350
2020/01/31 13:07:15.1	29.170	-0.350	0.050	0.320
2020/01/31 13:07:15.2	29.110	-0.290	-0.090	0.300
2020/01/31 13:07:15.3	29.070	-0.230	-0.230	0.270
2020/01/31 13:07:15.4	29.020	-0.170	-0.360	0.230
2020/01/31 13:07:15.5	29.000	-0.110	-0.500	0.200
2020/01/31 13:07:15.6	28.960	-0.040	-0.630	0.160
2020/01/31 13:07:15.7	28.930	0.020	-0.760	0.120
2020/01/31 13:07:15.8	28.900	0.080	-0.890	0.080
2020/01/31 13:07:15.9	28.870	0.140	-1.000	0.040
2020/01/31 13:07:16.0	28.840	0.200	-1.100	0.000
2020/01/31 13:07:16.1	28.810	0.250	-1.200	-0.040
2020/01/31 13:07:16.2	28.780	0.310	-1.270	-0.070
2020/01/31 13:07:16.3	28.750	0.360	-1.340	-0.100
2020/01/31 13:07:16.4	28.730	0.400	-1.390	-0.140
2020/01/31 13:07:16.5	28.720	0.450	-1.430	-0.160
2020/01/31 13:07:16.6	28.690	0.480	-1.450	-0.190
2020/01/31 13:07:16.7	28.660	0.520	-1.460	-0.210
2020/01/31 13:07:16.8	28.620	0.550	-1.450	-0.220
2020/01/31 13:07:16.9	28.590	0.570	-1.420	-0.240
2020/01/31 13:07:17.0	28.550	0.590	-1.380	-0.250
2020/01/31 13:07:17.1	28.500	0.600	-1.330	-0.250
2020/01/31 13:07:17.2	28.460	0.610	-1.270	-0.250
2020/01/31 13:07:17.3	28.410	0.620	-1.190	-0.250
2020/01/31 13:07:17.4	28.360	0.620	-1.110	-0.240
2020/01/31 13:07:17.5	28.320	0.620	-1.010	-0.230
2020/01/31 13:07:17.6	28.260	0.610	-0.910	-0.210
2020/01/31 13:07:17.7	28.210	0.600	-0.810	-0.190
2020/01/31 13:07:17.8	28.150	0.580	-0.700	-0.170
2020/01/31 13:07:17.9	28.080	0.560	-0.590	-0.140
2020/01/31 13:07:18.0	28.020	0.540	-0.480	-0.110
2020/01/31 13:07:18.1	27.950	0.520	-0.370	-0.070
2020/01/31 13:07:18.2	27.880	0.490	-0.270	-0.040
2020/01/31 13:07:18.3	27.810	0.460	-0.160	0.000
2020/01/31 13:07:18.4	27.740	0.440	-0.070	0.040
2020/01/31 13:07:18.5	27.680	0.410	0.020	0.090
2020/01/31 13:07:18.6	27.600	0.380	0.110	0.130
2020/01/31 13:07:18.7	27.530	0.350	0.180	0.180
2020/01/31 13:07:18.8	27.450	0.320	0.250	0.220
2020/01/31 13:07:18.9	27.370	0.290	0.310	0.270
2020/01/31 13:07:19.0	27.300	0.260	0.360	0.310
2020/01/31 13:07:19.1	27.220	0.230	0.390	0.350
2020/01/31 13:07:19.2	27.150	0.210	0.420	0.380
2020/01/31 13:07:19.3	27.080	0.180	0.430	0.410
2020/01/31 13:07:19.4	27.010	0.160	0.430	0.440
2020/01/31 13:07:19.5	26.940	0.140	0.430	0.460
2020/01/31 13:07:19.6	26.870	0.120	0.410	0.480
2020/01/31 13:07:19.7	26.810	0.110	0.380	0.490
2020/01/31 13:07:19.8	26.750	0.100	0.340	0.500
2020/01/31 13:07:19.9	26.700	0.090	0.300	0.500
2020/01/31 13:07:20.0	26.640	0.080	0.250	0.500
2020/01/31 13:07:20.1	26.600	0.080	0.190	0.490
2020/01/31 13:07:20.2	26.550	0.080	0.120	0.480
2020/01/31 13:07:20.3	26.510	0.080	0.060	0.450
2020/01/31 13:07:20.4	26.470	0.090	-0.020	0.430
2020/01/31 13:07:20.5	26.440	0.100	-0.090	0.390
2020/01/31 13:07:20.6	26.410	0.110	-0.170	0.360
2020/01/31 13:07:20.7	26.380	0.120	-0.240	0.320
2020/01/31 13:07:20.8	26.350	0.140	-0.320	0.280
2020/01/31 13:07:20.9	26.330	0.160	-0.390	0.240
2020/01/31 13:07:21.0	26.310	0.180	-0.450	0.200
2020/01/31 13:07:21.1	26.280	0.200	-0.520	0.160
2020/01/31 13:07:21.2	26.260	0.220	-0.570	0.110
2020/01/31 13:07:21.3	26.240	0.250	-0.620	0.080
2020/01/31 13:07:21.4	26.220	0.270	-0.670	0.040
2020/01/31 13:07:21.5	26.200	0.300	-0.700	0.000
2020/01/31 13:07:21.6	26.170	0.320	-0.720	-0.030
2020/01/31 13:07:21.7	26.140	0.340	-0.740	-0.050
2020/01/31 13:07:21.8	26.110	0.370	-0.740	-0.070
2020/01/31 13:07:21.9	26.080	0.390	-0.740	-0.080
2020/01/31 13:07:22.0	26.050	0.410	-0.720	-0.080
2020/01/31 13:07:22.1	26.010	0.430	-0.690	-0.080
2020/01/31 13:07:22.2	25.960	0.450	-0.650	-0.070
2020/01/31 13:07:22.3	25.920	0.460	-0.610	-0.060
2020/01/31 13:07:22.4	25.870	0.480	-0.550	-0.040
2020/01/31 13:07:22.5	25.810	0.480	-0.490	-0.010
2020/01/31 13:07:22.6	25.760	0.490	-0.410	0.030
2020/01/31 13:07:22.7	25.700	0.490	-0.330	0.070
2020/01/31 13:07:22.8	25.630	0.490	-0.250	0.110
2020/01/31 13:07:22.9	25.570	0.490	-0.160	0.160
2020/01/31 13:07:23.0	25.500	0.480	-0.060	0.220
2020/01/31 13:07:23.1	25.420	0.460	0.040	0.280
2020/01/31 13:07:23.2	25.350	0.450	0.140	0.340
2020/01/31 13:07:23.3	25.270	0.420	0.240	0.400
2020/01/31 13:07:23.4	25.190	0.400	0.340	0.470
2020/01/31 13:07:23.5	25.120	0.370	0.440	0.530
2020/01/31 13:07:23.6	25.040	0.330	0.540	0.600
2020/01/31 13:07:23.7	24.950	0.290	0.630	0.660
2020/01/31 13:07:23.8	24.870	0.250	0.720	0.720
2020/01/31 13:07:23.9	24.790	0.210	0.800	0.770
2020/01/31 13:07:24.0	24.710	0.160	0.880	0.820
2020/01/31 13:07:24.1	24.630	0.110	0.940	0.870
2020/01/31 13:07:24.2	24.550	0.060	1.000	0.910
2020/01/31 13:07:24.3	24.470	0.010	1.050	0.950
2020/01/31 13:07:24.4	24.390	-0.050	1.090	0.970
2020/01/31 13:07:24.5	24.330	-0.110	1.120	1.000
2020/01/31 13:07:24.6	24.260	-0.160	1.140	1.010
2020/01/31 13:07:24.7	24.190	-0.220	1.140	1.020
2020/01/31 13:07:24.8	24.120	-0.280	1.140	1.010
2020/01/31 13:07:24.9	24.060	-0.330	1.130	1.010
2020/01/31 13:07:25.0	24.000	-0.390	1.100	0.990
2020/01/31 13:07:25.1	23.940	-0.440	1.060	0.970
2020/01/31 13:07:25.2	23.880	-0.490	1.020	0.940
2020/01/31 13:07:25.3	23.830	-0.540	0.960	0.900
2020/01/31 13:07:25.4	23.780	-0.580	0.890	0.860
2020/01/31 13:07:25.5	23.740	-0.620	0.820	0.820
2020/01/31 13:07:25.6	23.690	-0.660	0.740	0.760
2020/01/31 13:07:25.7	23.650	-0.700	0.650	0.710
2020/01/31 13:07:25.8	23.610	-0.720	0.550	0.650
2020/01/31 13:07:25.9	23.570	-0.750	0.450	0.590
2020/01/31 13:07:26.0	23.540	-0.770	0.350	0.520
2020/01/31 13:07:26.1	23.510	-0.790	0.240	0.450
2020/01/31 13:07:26.2	23.480	-0.800	0.130	0.380
2020/01/31 13:07:26.3	23.450	-0.810	0.020	0.310
2020/01/31 13:07:26.4	23.430	-0.810	-0.090	0.230
2020/01/31 13:07:26.5	23.390	-0.800	-0.200	0.150
2020/01/31 13:07:26.6	23.370	-0.800	-0.310	0.070
2020/01/31 13:07:26.7	23.360	-0.780	-0.410	-0.010
2020/01/31 13:07:26.8	23.340	-0.770	-0.520	-0.080
2020/01/31 13:07:26.9	23.330	-0.750	-0.620	-0.160
2020/01/31 13:07:27.0	23.320	-0.720	-0.710	-0.240
2020/01/31 13:07:27.1	23.310	-0.690	-0.800	-0.310
2020/01/31 13:07:27.2	23.300	-0.660	-0.880	-0.390
2020/01/31 13:07:27.3	23.290	-0.620	-0.950	-0.460
2020/01/31 13:07:27.4	23.290	-0.590	-1.010	-0.530
2020/01/31 13:07:27.5	23.290	-0.550	-1.070	-0.600
2020/01/31 13:07:27.6	23.280	-0.500	-1.120	-0.670
2020/01/31 13:07:27.7	23.270	-0.460	-1.160	-0.730
2020/01/31 13:07:27.8	23.270	-0.420	-1.190	-0.780
2020/01/31 13:07:27.9	23.260	-0.370	-1.200	-0.830
2020/01/31 13:07:28.0	23.250	-0.330	-1.210	-0.880
2020/01/31 13:07:28.1	23.230	-0.280	-1.210	-0.920
2020/01/31 13:07:28.2	23.220	-0.240	-1.200	-0.960
2020/01/31 13:07:28.3	23.200	-0.190	-1.180	-0.990
2020/01/31 13:07:28.4	23.180	-0.150	-1.160	-1.010
2020/01/31 13:07:28.5	23.140	-0.110	-1.120	-1.030
2020/01/31 13:07:28.6	23.110	-0.080	-1.080	-1.040
2020/01/31 13:07:28.7	23.080	-0.040	-1.030	-1.050
2020/01/31 13:07:28.8	23.050	-0.010	-0.970	-1.050
2020/01/31 13:07:28.9	23.010	0.020	-0.910	-1.050
2020/01/31 13:07:29.0	22.960	0.050	-0.850	-1.040
2020/01/31 13:07:29.1	22.920	0.070	-0.780	-1.020
2020/01/31 13:07:29.2	22.870	0.100	-0.710	-1.010
2020/01/31 13:07:29.3	22.820	0.120	-0.640	-0.980
2020/01/31 13:07:29.4	22.770	0.130	-0.570	-0.960
2020/01/31 13:07:29.5	22.690	0.140	-0.500	-0.920
2020/01/31 13:07:29.6	22.640	0.150	-0.430	-0.890
2020/01/31 13:07:29.7	22.580	0.160	-0.370	-0.860
2020/01/31 13:07:29.8	22.520	0.170	-0.300	-0.820
2020/01/31 13:07:29.9	22.460	0.170	-0.240	-0.780
2020/01/31 13:07:30.0	22.400	0.170	-0.190	-0.740
2020/01/31 13:07:30.1	22.340	0.170	-0.130	-0.700
2020/01/31 13:07:30.2	22.280	0.170	-0.090	-0.660
2020/01/31 13:07:30.3	22.220	0.170	-0.050	-0.620
2020/01/31 13:07:30.4	22.150	0.160	-0.010	-0.570
2020/01/31 13:07:30.5	22.080	0.160	0.020	-0.530
2020/01/31 13:07:30.6	22.020	0.150	0.040	-0.490
2020/01/31 13:07:30.7	21.960	0.140	0.070	-0.440
2020/01/31 13:07:30.8	21.900	0.140	0.080	-0.400
2020/01/31 13:07:30.9	21.840	0.130	0.090	-0.350
2020/01/31 13:07:31.0	21.780	0.120	0.100	-0.310
2020/01/31 13:07:31.1	21.720	0.120	0.100	-0.260
2020/01/31 13:07:31.2	21.660	0.110	0.100	-0.210
2020/01/31 13:07:31.3	21.600	0.100	0.090	-0.160
2020/01/31 13:07:31.4	21.540	0.100	0.090	-0.120
2020/01/31 13:07:31.5	21.490	0.090	0.070	-0.060
2020/01/31 13:07:31.6	21.430	0.090	0.060	-0.020
2020/01/31 13:07:31.7	21.370	0.090	0.050	0.030
2020/01/31 13:07:31.8	21.320	0.090	0.040	0.080
2020/01/31 13:07:31.9	21.260	0.090	0.020	0.130
2020/01/31 13:07:32.0	21.210	0.090	0.000	0.180
2020/01/31 13:07:32.1	21.160	0.090	-0.010	0.230
2020/01/31 13:07:32.2	21.110	0.100	-0.030	0.280
2020/01/31 13:07:32.3	21.060	0.100	-0.050	0.320
2020/01/31 13:07:32.4	21.020	0.110	-0.070	0.360
2020/01/31 13:07:32.5	20.960	0.110	-0.090	0.400
2020/01/31 13:07:32.6	20.920	0.120	-0.110	0.440
2020/01/31 13:07:32.7	20.890	0.130	-0.130	0.470
2020/01/31 13:07:32.8	20.850	0.140	-0.150	0.500
2020/01/31 13:07:32.9	20.820	0.150	-0.180	0.530
2020/01/31 13:07:33.0	20.790	0.160	-0.200	0.550
2020/01/31 13:07:33.1	20.760	0.180	-0.230	0.570
2020/01/31 13:07:33.2	20.740	0.190	-0.250	0.580
2020/01/31 13:07:33.3	20.710	0.200	-0.280	0.590
2020/01/31 13:07:33.4	20.690	0.210	-0.300	0.600
2020/01/31 13:07:33.5	20.670	0.230	-0.340	0.610
2020/01/31 13:07:33.6	20.650	0.240	-0.360	0.610
2020/01/31 13:07:33.7	20.630	0.250	-0.390	0.610
2020/01/31 13:07:33.8	20.610	0.270	-0.410	0.610
2020/01/31 13:07:33.9	20.590	0.280	-0.430	0.610
2020/01/31 13:07:34.0	20.570	0.290	-0.460	0.610
2020/01/31 13:07:34.1	20.550	0.300	-0.480	0.600
2020/01/31 13:07:34.2	20.540	0.310	-0.500	0.600
2020/01/31 13:07:34.3	20.520	0.320	-0.510	0.590
2020/01/31 13:07:34.4	20.500	0.320	-0.530	0.580
2020/01/31 13:07:34.5	20.470	0.330	-0.540	0.580
2020/01/31 13:07:34.6	20.450	0.340	-0.550	0.570
2020/01/31 13:07:34.7	20.430	0.340	-0.550	0.560
2020/01/31 13:07:34.8	20.410	0.340	-0.550	0.550
2020/01/31 13:07:34.9	20.390	0.340	-0.550	0.550
2020/01/31 13:07:35.0	20.360	0.340	-0.550	0.540
2020/01/31 13:07:35.1	20.340	0.340	-0.540	0.530
2020/01/31 13:07:35.2	20.310	0.330	-0.530	0.530
2020/01/31 13:07:35.3	20.280	0.330	-0.520	0.520
2020/01/31 13:07:35.4	20.250	0.320	-0.500	0.520
2020/01/31 13:07:35.5	20.190	0.310	-0.470	0.520
2020/01/31 13:07:35.6	20.160	0.300	-0.450	0.510
2020/01/31 13:07:35.7	20.120	0.290	-0.420	0.510
2020/01/31 13:07:35.8	20.090	0.270	-0.390	0.510
2020/01/31 13:07:35.9	20.050	0.260	-0.350	0.510
2020/01/31 13:07:36.0	20.010	0.240	-0.310	0.510
2020/01/31 13:07:36.1	19.960	0.230	-0.270	0.520
2020/01/31 13:07:36.2	19.920	0.210	-0.230	0.520
2020/01/31 13:07:36.3	19.870	0.190	-0.190	0.520
2020/01/31 13:07:36.4	19.830	0.170	-0.140	0.530
2020/01/31 13:07:36.5	19.770	0.150	-0.100	0.530
2020/01/31 13:07:36.6	19.720	0.130	-0.050	0.530
2020/01/31 13:07:36.7	19.670	0.110	-0.000	0.540
2020/01/31 13:07:36.8	19.620	0.090	0.050	0.540
2020/01/31 13:07:36.9	19.570	0.080	0.090	0.550
2020/01/31 13:07:37.0	19.520	0.060	0.140	0.550
2020/01/31 13:07:37.1	19.480	0.040	0.180	0.560
2020/01/31 13:07:37.2	19.430	0.020	0.230	0.560
2020/01/31 13:07:37.3	19.380	0.010	0.270	0.570
2020/01/31 13:07:37.4	19.330	-0.010	0.310	0.570
2020/01/31 13:07:37.5	19.280	-0.020	0.350	0.570
2020/01/31 13:07:37.6	19.240	-0.030	0.380	0.570
2020/01/31 13:07:37.7	19.190	-0.050	0.410	0.570
2020/01/31 13:07:37.8	19.150	-0.060	0.440	0.570
2020/01/31 13:07:37.9	19.110	-0.070	0.460	0.570
2020/01/31 13:07:38.0	19.070	-0.080	0.490	0.570
2020/01/31 13:07:38.1	19.020	-0.090	0.500	0.560
2020/01/31 13:07:38.2	18.980	-0.100	0.520	0.550
2020/01/31 13:07:38.3	18.940	-0.110	0.530	0.540
2020/01/31 13:07:38.4	18.900	-0.110	0.530	0.530
2020/01/31 13:07:38.5	18.870	-0.120	0.530	0.520
2020/01/31 13:07:38.6	18.830	-0.130	0.530	0.500
2020/01/31 13:07:38.7	18.790	-0.130	0.520	0.480
2020/01/31 13:07:38.8	18.750	-0.140	0.510	0.460
2020/01/31 13:07:38.9	18.710	-0.140	0.490	0.440
2020/01/31 13:07:39.0	18.680	-0.140	0.470	0.420
2020/01/31 13:07:39.1	18.640	-0.140	0.450	0.390
2020/01/31 13:07:39.2	18.600	-0.150	0.420	0.370
2020/01/31 13:07:39.3	18.570	-0.150	0.390	0.340
2020/01/31 13:07:39.4	18.530	-0.150	0.360	0.310
2020/01/31 13:07:39.5	18.510	-0.150	0.330	0.280
2020/01/31 13:07:39.6	18.470	-0.150	0.290	0.250
2020/01/31 13:07:39.7	18.440	-0.140	0.250	0.220
2020/01/31 13:07:39.8	18.410	-0.140	0.210	0.190
2020/01/31 13:07:39.9	18.370	-0.140	0.160	0.160
2020/01/31 13:07:40.0	18.340	-0.130	0.120	0.130
2020/01/31 13:07:40.1	18.310	-0.130	0.080	0.110
2020/01/31 13:07:40.2	18.280	-0.120	0.040	0.080
2020/01/31 13:07:40.3	18.250	-0.110	-0.010	0.050
2020/01/31 13:07:40.4	18.210	-0.110	-0.050	0.030
2020/01/31 13:07:40.5	18.180	-0.100	-0.090	0.010
2020/01/31 13:07:40.6	18.140	-0.090	-0.130	-0.020
2020/01/31 13:07:40.7	18.110	-0.080	-0.170	-0.040
2020/01/31 13:07:40.8	18.080	-0.070	-0.200	-0.060
2020/01/31 13:07:40.9	18.050	-0.070	-0.240	-0.080
2020/01/31 13:07:41.0	18.020	-0.060	-0.270	-0.100
2020/01/31 13:07:41.1	17.990	-0.050	-0.300	-0.120
2020/01/31 13:07:41.2	17.960	-0.040	-0.330	-0.130
2020/01/31 13:07:41.3	17.930	-0.030	-0.360	-0.150
2020/01/31 13:07:41.4	17.900	-0.020	-0.390	-0.170
2020/01/31 13:07:41.5	17.860	-0.020	-0.420	-0.190
2020/01/31 13:07:41.6	17.830	-0.010	-0.440	-0.200
2020/01/31 13:07:41.7	17.800	-0.000	-0.470	-0.220
2020/01/31 13:07:41.8	17.770	0.000	-0.490	-0.230
2020/01/31 13:07:41.9	17.750	0.000	-0.510	-0.250
2020/01/31 13:07:42.0	17.720	0.010	-0.540	-0.270
2020/01/31 13:07:42.1	17.690	0.010	-0.560	-0.280
2020/01/31 13:07:42.2	17.670	0.010	-0.580	-0.300
2020/01/31 13:07:42.3	17.650	0.010	-0.600	-0.310
2020/01/31 13:07:42.4	17.620	0.000	-0.610	-0.330
2020/01/31 13:07:42.5	17.610	-0.000	-0.630	-0.340
2020/01/31 13:07:42.6	17.590	-0.010	-0.640	-0.360
2020/01/31 13:07:42.7	17.560	-0.010	-0.660	-0.370
2020/01/31 13:07:42.8	17.540	-0.020	-0.670	-0.390
2020/01/31 13:07:42.9	17.530	-0.030	-0.680	-0.400
2020/01/31 13:07:43.0	17.510	-0.050	-0.680	-0.410
2020/01/31 13:07:43.1	17.490	-0.060	-0.690	-0.430
2020/01/31 13:07:43.2	17.470	-0.070	-0.690	-0.440
2020/01/31 13:07:43.3	17.450	-0.090	-0.690	-0.450
2020/01/31 13:07:43.4	17.440	-0.100	-0.680	-0.450
2020/01/31 13:07:43.5	17.420	-0.120	-0.670	-0.460
2020/01/31 13:07:43.6	17.400	-0.140	-0.660	-0.460
2020/01/31 13:07:43.7	17.390	-0.160	-0.640	-0.470
2020/01/31 13:07:43.8	17.370	-0.180	-0.620	-0.470
2020/01/31 13:07:43.9	17.360	-0.200	-0.600	-0.470
2020/01/31 13:07:44.0	17.350	-0.220	-0.570	-0.460
2020/01/31 13:07:44.1	17.330	-0.240	-0.530	-0.460
2020/01/31 13:07:44.2	17.320	-0.260	-0.490	-0.450
2020/01/31 13:07:44.3	17.310	-0.280	-0.450	-0.440
2020/01/31 13:07:44.4	17.290	-0.300	-0.400	-0.430
2020/01/31 13:07:44.5	17.280	-0.320	-0.350	-0.420
2020/01/31 13:07:44.6	17.270	-0.330	-0.300	-0.400
2020/01/31 13:07:44.7	17.250	-0.350	-0.240	-0.390
2020/01/31 13:07:44.8	17.230	-0.370	-0.190	-0.370
2020/01/31 13:07:44.9	17.220	-0.380	-0.120	-0.350
2020/01/31 13:07:45.0	17.200	-0.390	-0.060	-0.320
2020/01/31 13:07:45.1	17.180	-0.400	-0.000	-0.300
2020/01/31 13:07:45.2	17.160	-0.410	0.060	-0.270
2020/01/31 13:07:45.3	17.140	-0.410	0.120	-0.230
2020/01/31 13:07:45.4	17.120	-0.420	0.180	-0.200
2020/01/31 13:07:45.5	17.100	-0.420	0.240	-0.160
2020/01/31 13:07:45.6	17.070	-0.420	0.300	-0.120
2020/01/31 13:07:45.7	17.050	-0.410	0.350	-0.080
2020/01/31 13:07:45.8	17.020	-0.400	0.400	-0.030
2020/01/31 13:07:45.9	16.990	-0.390	0.450	0.020
2020/01/31 13:07:46.0	16.960	-0.380	0.490	0.070
2020/01/31 13:07:46.1	16.920	-0.360	0.520	0.120
2020/01/31 13:07:46.2	16.890	-0.340	0.550	0.180
2020/01/31 13:07:46.3	16.860	-0.320	0.570	0.240
2020/01/31 13:07:46.4	16.820	-0.300	0.590	0.290
2020/01/31 13:07:46.5	16.780	-0.270	0.600	0.350
2020/01/31 13:07:46.6	16.750	-0.240	0.600	0.410
2020/01/31 13:07:46.7	16.720	-0.210	0.590	0.470
2020/01/31 13:07:46.8	16.680	-0.180	0.580	0.530
2020/01/31 13:07:46.9	16.650	-0.140	0.560	0.580
2020/01/31 13:07:47.0	16.620	-0.100	0.530	0.640
2020/01/31 13:07:47.1	16.590	-0.070	0.490	0.690
2020/01/31 13:07:47.2	16.570	-0.030	0.450	0.750
2020/01/31 13:07:47.3	16.540	0.010	0.400	0.800
2020/01/31 13:07:47.4	16.520	0.050	0.340	0.840
2020/01/31 13:07:47.5	16.500	0.090	0.280	0.890
2020/01/31 13:07:47.6	16.480	0.130	0.210	0.930
2020/01/31 13:07:47.7	16.460	0.170	0.140	0.970
2020/01/31 13:07:47.8	16.440	0.200	0.060	1.000
2020/01/31 13:07:47.9	16.430	0.240	-0.020	1.040
2020/01/31 13:07:48.0	16.420	0.270	-0.100	1.060
2020/01/31 13:07:48.1	16.400	0.300	-0.180	1.090
2020/01/31 13:07:48.2	16.390	0.330	-0.270	1.110
2020/01/31 13:07:48.3	16.390	0.360	-0.360	1.130
2020/01/31 13:07:48.4	16.380	0.380	-0.450	1.140
2020/01/31 13:07:48.5	16.370	0.400	-0.540	1.140
2020/01/31 13:07:48.6	16.370	0.420	-0.620	1.140
2020/01/31 13:07:48.7	16.370	0.440	-0.700	1.150
2020/01/31 13:07:48.8	16.370	0.450	-0.780	1.150
2020/01/31 13:07:48.9	16.370	0.460	-0.860	1.140
2020/01/31 13:07:49.0	16.370	0.470	-0.930	1.130
2020/01/31 13:07:49.1	16.380	0.470	-1.000	1.120
2020/01/31 13:07:49.2	16.380	0.470	-1.060	1.110
2020/01/31 13:07:49.3	16.390	0.470	-1.110	1.100
2020/01/31 13:07:49.4	16.390	0.470	-1.160	1.080
2020/01/31 13:07:49.5	16.400	0.460	-1.200	1.060
2020/01/31 13:07:49.6	16.400	0.450	-1.230	1.040
2020/01/31 13:07:49.7	16.410	0.440	-1.250	1.020
2020/01/31 13:07:49.8	16.420	0.420	-1.260	1.000
2020/01/31 13:07:49.9	16.420	0.400	-1.270	0.980
2020/01/31 13:07:50.0	16.430	0.380	-1.260	0.950
2020/01/31 13:07:50.1	16.430	0.360	-1.250	0.930
2020/01/31 13:07:50.2	16.430	0.340	-1.230	0.910
2020/01/31 13:07:50.3	16.440	0.310	-1.200	0.890
2020/01/31 13:07:50.4	16.440	0.290	-1.160	0.860
2020/01/31 13:07:50.5	16.420	0.260	-1.110	0.840
2020/01/31 13:07:50.6	16.420	0.230	-1.050	0.820
2020/01/31 13:07:50.7	16.420	0.210	-0.990	0.800
2020/01/31 13:07:50.8	16.420	0.180	-0.920	0.780
2020/01/31 13:07:50.9	16.420	0.150	-0.840	0.760
2020/01/31 13:07:51.0	16.410	0.120	-0.760	0.750
2020/01/31 13:07:51.1	16.400	0.090	-0.670	0.730
2020/01/31 13:07:51.2	16.400	0.070	-0.580	0.720
2020/01/31 13:07:51.3	16.390	0.040	-0.480	0.700
2020/01/31 13:07:51.4	16.380	0.020	-0.380	0.690
2020/01/31 13:07:51.5	16.380	-0.000	-0.290	0.680
2020/01/31 13:07:51.6	16.370	-0.020	-0.190	0.670
2020/01/31 13:07:51.7	16.360	-0.040	-0.090	0.660
2020/01/31 13:07:51.8	16.350	-0.060	0.000	0.650
2020/01/31 13:07:51.9	16.330	-0.070	0.090	0.650
2020/01/31 13:07:52.0	16.320	-0.080	0.180	0.640
2020/01/31 13:07:52.1	16.310	-0.090	0.260	0.630
2020/01/31 13:07:52.2	16.310	-0.100	0.340	0.620
2020/01/31 13:07:52.3	16.300	-0.100	0.410	0.610
2020/01/31 13:07:52.4	16.290	-0.110	0.480	0.600
2020/01/31 13:07:52.5	16.290	-0.100	0.530	0.590
2020/01/31 13:07:52.6	16.290	-0.100	0.580	0.580
2020/01/31 13:07:52.7	16.290	-0.090	0.620	0.570
2020/01/31 13:07:52.8	16.280	-0.080	0.650	0.550
2020/01/31 13:07:52.9	16.290	-0.070	0.680	0.540
2020/01/31 13:07:53.0	16.290	-0.060	0.700	0.520
2020/01/31 13:07:53.1	16.290	-0.040	0.700	0.510
2020/01/31 13:07:53.2	16.290	-0.020	0.700	0.490
2020/01/31 13:07:53.3	16.300	-0.000	0.690	0.470
2020/01/31 13:07:53.4	16.310	0.020	0.680	0.450
2020/01/31 13:07:53.5	16.320	0.040	0.660	0.430
2020/01/31 13:07:53.6	16.330	0.070	0.630	0.420
2020/01/31 13:07:53.7	16.340	0.090	0.600	0.400
2020/01/31 13:07:53.8	16.340	0.110	0.560	0.380
2020/01/31 13:07:53.9	16.350	0.140	0.520	0.370
2020/01/31 13:07:54.0	16.350	0.160	0.480	0.360
2020/01/31 13:07:54.1	16.350	0.180	0.430	0.340
2020/01/31 13:07:54.2	16.360	0.200	0.390	0.330
2020/01/31 13:07:54.3	16.360	0.220	0.340	0.320
2020/01/31 13:07:54.4	16.360	0.230	0.290	0.310
2020/01/31 13:07:54.5	16.340	0.250	0.250	0.300
2020/01/31 13:07:54.6	16.340	0.260	0.200	0.290
2020/01/31 13:07:54.7	16.340	0.270	0.160	0.280
2020/01/31 13:07:54.8	16.330	0.270	0.110	0.270
2020/01/31 13:07:54.9	16.330	0.270	0.080	0.260
2020/01/31 13:07:55.0	16.320	0.270	0.040	0.250
2020/01/31 13:07:55.1	16.310	0.270	0.010	0.240
2020/01/31 13:07:55.2	16.310	0.260	-0.020	0.220
2020/01/31 13:07:55.3	16.300	0.240	-0.050	0.210
2020/01/31 13:07:55.4	16.290	0.230	-0.070	0.200
2020/01/31 13:07:55.5	16.280	0.210	-0.090	0.180
2020/01/31 13:07:55.6	16.270	0.190	-0.110	0.160
2020/01/31 13:07:55.7	16.260	0.160	-0.120	0.140
2020/01/31 13:07:55.8	16.260	0.140	-0.130	0.130
2020/01/31 13:07:55.9	16.250	0.110	-0.130	0.100
2020/01/31 13:07:56.0	16.250	0.070	-0.130	0.080
2020/01/31 13:07:56.1	16.240	0.040	-0.130	0.060
2020/01/31 13:07:56.2	16.240	0.010	-0.120	0.040
2020/01/31 13:07:56.3	16.240	-0.030	-0.110	0.020
2020/01/31 13:07:56.4	16.230	-0.070	-0.100	-0.010
2020/01/31 13:07:56.5	16.230	-0.110	-0.090	-0.030
2020/01/31 13:07:56.6	16.230	-0.150	-0.080	-0.050
2020/01/31 13:07:56.7	16.230	-0.180	-0.060	-0.070
2020/01/31 13:07:56.8	16.220	-0.220	-0.050	-0.090
2020/01/31 13:07:56.9	16.220	-0.260	-0.030	-0.110
2020/01/31 13:07:57.0	16.230	-0.300	-0.010	-0.130
2020/01/31 13:07:57.1	16.230	-0.330	0.010	-0.150
2020/01/31 13:07:57.2	16.230	-0.370	0.020	-0.170
2020/01/31 13:07:57.3	16.230	-0.400	0.040	-0.190
2020/01/31 13:07:57.4	16.230	-0.430	0.050	-0.200
2020/01/31 13:07:57.5	16.240	-0.460	0.060	-0.220
2020/01/31 13:07:57.6	16.250	-0.480	0.060	-0.230
2020/01/31 13:07:57.7	16.250	-0.510	0.070	-0.250
2020/01/31 13:07:57.8	16.260	-0.530	0.070	-0.260
2020/01/31 13:07:57.9	16.270	-0.540	0.060	-0.280
2020/01/31 13:07:58.0	16.280	-0.560	0.060	-0.290
2020/01/31 13:07:58.1	16.290	-0.570	0.040	-0.310
2020/01/31 13:07:58.2	16.300	-0.580	0.030	-0.320
2020/01/31 13:07:58.3	16.320	-0.590	0.010	-0.340
2020/01/31 13:07:58.4	16.330	-0.590	-0.020	-0.360
2020/01/31 13:07:58.5	16.350	-0.590	-0.050	-0.380
2020/01/31 13:07:58.6	16.370	-0.580	-0.090	-0.400
2020/01/31 13:07:58.7	16.390	-0.580	-0.120	-0.420
2020/01/31 13:07:58.8	16.420	-0.570	-0.160	-0.440
2020/01/31 13:07:58.9	16.440	-0.550	-0.210	-0.460
2020/01/31 13:07:59.0	16.470	-0.540	-0.250	-0.480
2020/01/31 13:07:59.1	16.490	-0.520	-0.300	-0.500
2020/01/31 13:07:59.2	16.520	-0.500	-0.350	-0.530
2020/01/31 13:07:59.3	16.560	-0.480	-0.400	-0.550
2020/01/31 13:07:59.4	16.590	-0.450	-0.450	-0.570
2020/01/31 13:07:59.5	16.620	-0.420	-0.510	-0.600
2020/01/31 13:07:59.6	16.660	-0.390	-0.560	-0.620
2020/01/31 13:07:59.7	16.700	-0.360	-0.610	-0.650
2020/01/31 13:07:59.8	16.740	-0.330	-0.650	-0.670
2020/01/31 13:07:59.9	16.780	-0.300	-0.700	-0.690
2020/01/31 13:08:00.0	16.830	-0.260	-0.740	-0.720
2020/01/31 13:08:00.1	16.870	-0.230	-0.780	-0.740
2020/01/31 13:08:00.2	16.920	-0.190	-0.810	-0.760
2020/01/31 13:08:00.3	16.960	-0.160	-0.840	-0.770
2020/01/31 13:08:00.4	17.000	-0.120	-0.860	-0.790
2020/01/31 13:08:00.5	17.040	-0.090	-0.880	-0.800
2020/01/31 13:08:00.6	17.080	-0.050	-0.890	-0.810
2020/01/31 13:08:00.7	17.120	-0.020	-0.890	-0.810
2020/01/31 13:08:00.8	17.160	0.010	-0.890	-0.810
2020/01/31 13:08:00.9	17.190	0.050	-0.880	-0.800
2020/01/31 13:08:01.0	17.220	0.080	-0.860	-0.790
2020/01/31 13:08:01.1	17.250	0.100	-0.830	-0.770
2020/01/31 13:08:01.2	17.270	0.130	-0.800	-0.750
2020/01/31 13:08:01.3	17.290	0.150	-0.760	-0.720
2020/01/31 13:08:01.4	17.300	0.170	-0.720	-0.680
2020/01/31 13:08:01.5	17.300	0.190	-0.660	-0.640
2020/01/31 13:08:01.6	17.300	0.210	-0.610	-0.590
2020/01/31 13:08:01.7	17.290	0.220	-0.540	-0.540
2020/01/31 13:08:01.8	17.290	0.230	-0.470	-0.480
2020/01/31 13:08:01.9	17.270	0.240	-0.400	-0.410
2020/01/31 13:08:02.0	17.260	0.240	-0.330	-0.340
2020/01/31 13:08:02.1	17.240	0.250	-0.250	-0.260
2020/01/31 13:08:02.2	17.210	0.250	-0.170	-0.180
2020/01/31 13:08:02.3	17.180	0.240	-0.090	-0.090
2020/01/31 13:08:02.4	17.150	0.240	-0.020	-0.010
2020/01/31 13:08:02.5	17.120	0.230	0.060	0.090
2020/01/31 13:08:02.6	17.090	0.220	0.130	0.180
2020/01/31 13:08:02.7	17.050	0.210	0.200	0.280
2020/01/31 13:08:02.8	17.020	0.190	0.260	0.370
2020/01/31 13:08:02.9	16.980	0.180	0.320	0.470
2020/01/31 13:08:03.0	16.950	0.160	0.370	0.560
2020/01/31 13:08:03.1	16.910	0.150	0.410	0.650
2020/01/31 13:08:03.2	16.880	0.130	0.450	0.740
2020/01/31 13:08:03.3	16.850	0.120	0.480	0.830
2020/01/31 13:08:03.4	16.820	0.100	0.500	0.910
2020/01/31 13:08:03.5	16.800	0.090	0.510	0.990
2020/01/31 13:08:03.6	16.770	0.070	0.520	1.070
2020/01/31 13:08:03.7	16.750	0.060	0.510	1.140
2020/01/31 13:08:03.8	16.730	0.050	0.500	1.200
2020/01/31 13:08:03.9	16.710	0.030	0.480	1.260
2020/01/31 13:08:04.0	16.690	0.030	0.450	1.310
2020/01/31 13:08:04.1	16.670	0.020	0.410	1.350
2020/01/31 13:08:04.2	16.660	0.010	0.360	1.390
2020/01/31 13:08:04.3	16.650	0.010	0.310	1.410
2020/01/31 13:08:04.4	16.640	0.010	0.250	1.440
2020/01/31 13:08:04.5	16.630	0.010	0.190	1.450
2020/01/31 13:08:04.6	16.630	0.010	0.120	1.460
2020/01/31 13:08:04.7	16.630	0.020	0.050	1.460
2020/01/31 13:08:04.8	16.630	0.030	-0.020	1.450
2020/01/31 13:08:04.9	16.640	0.040	-0.100	1.430
2020/01/31 13:08:05.0	16.640	0.050	-0.180	1.410
2020/01/31 13:08:05.1	16.650	0.070	-0.250	1.380
2020/01/31 13:08:05.2	16.670	0.080	-0.330	1.350
2020/01/31 13:08:05.3	16.680	0.100	-0.400	1.300
2020/01/31 13:08:05.4	16.700	0.120	-0.480	1.260
2020/01/31 13:08:05.5	16.730	0.150	-0.550	1.200
2020/01/31 13:08:05.6	16.750	0.170	-0.610	1.140
2020/01/31 13:08:05.7	16.780	0.200	-0.670	1.070
2020/01/31 13:08:05.8	16.810	0.230	-0.730	1.010
2020/01/31 13:08:05.9	16.850	0.260	-0.780	0.930
2020/01/31 13:08:06.0	16.880	0.280	-0.820	0.860
2020/01/31 13:08:06.1	16.920	0.310	-0.860	0.770
2020/01/31 13:08:06.2	16.970	0.340	-0.890	0.690
2020/01/31 13:08:06.3	17.010	0.370	-0.920	0.600
2020/01/31 13:08:06.4	17.060	0.400	-0.930	0.510
2020/01/31 13:08:06.5	17.110	0.420	-0.940	0.420
2020/01/31 13:08:06.6	17.160	0.450	-0.950	0.330
2020/01/31 13:08:06.7	17.210	0.470	-0.950	0.240
2020/01/31 13:08:06.8	17.260	0.490	-0.940	0.150
2020/01/31 13:08:06.9	17.310	0.510	-0.920	0.060
2020/01/31 13:08:07.0	17.360	0.530	-0.900	-0.030
2020/01/31 13:08:07.1	17.410	0.540	-0.870	-0.120
2020/01/31 13:08:07.2	17.460	0.550	-0.830	-0.210
2020/01/31 13:08:07.3	17.510	0.550	-0.790	-0.290
2020/01/31 13:08:07.4	17.550	0.560	-0.750	-0.360
2020/01/31 13:08:07.5	17.580	0.550	-0.700	-0.440
2020/01/31 13:08:07.6	17.620	0.550	-0.640	-0.500
2020/01/31 13:08:07.7	17.660	0.530	-0.580	-0.560
2020/01/31 13:08:07.8	17.690	0.520	-0.520	-0.620
2020/01/31 13:08:07.9	17.720	0.500	-0.450	-0.670
2020/01/31 13:08:08.0	17.740	0.470	-0.380	-0.720
2020/01/31 13:08:08.1	17.760	0.450	-0.300	-0.760
2020/01/31 13:08:08.2	17.780	0.410	-0.230	-0.790
2020/01/31 13:08:08.3	17.790	0.380	-0.150	-0.820
2020/01/31 13:08:08.4	17.800	0.330	-0.070	-0.840
2020/01/31 13:08:08.5	17.790	0.290	0.010	-0.860
2020/01/31 13:08:08.6	17.790	0.240	0.090	-0.870
2020/01/31 13:08:08.7	17.780	0.190	0.170	-0.880
2020/01/31 13:08:08.8	17.770	0.140	0.250	-0.880
2020/01/31 13:08:08.9	17.760	0.080	0.320	-0.880
2020/01/31 13:08:09.0	17.740	0.020	0.390	-0.870
2020/01/31 13:08:09.1	17.710	-0.040	0.460	-0.860
2020/01/31 13:08:09.2	17.680	-0.100	0.530	-0.850
2020/01/31 13:08:09.3	17.650	-0.160	0.590	-0.830
2020/01/31 13:08:09.4	17.620	-0.220	0.650	-0.810
2020/01/31 13:08:09.5	17.580	-0.280	0.710	-0.790
2020/01/31 13:08:09.6	17.540	-0.340	0.750	-0.770
2020/01/31 13:08:09.7	17.500	-0.400	0.800	-0.740
2020/01/31 13:08:09.8	17.460	-0.450	0.840	-0.710
2020/01/31 13:08:09.9	17.410	-0.510	0.870	-0.690
2020/01/31 13:08:10.0	17.370	-0.560	0.890	-0.660
2020/01/31 13:08:10.1	17.330	-0.610	0.910	-0.630
2020/01/31 13:08:10.2	17.280	-0.650	0.920	-0.610
2020/01/31 13:08:10.3	17.240	-0.690	0.920	-0.580
2020/01/31 13:08:10.4	17.200	-0.720	0.920	-0.550
2020/01/31 13:08:10.5	17.170	-0.750	0.910	-0.530
2020/01/31 13:08:10.6	17.130	-0.780	0.900	-0.510
2020/01/31 13:08:10.7	17.100	-0.800	0.870	-0.490
2020/01/31 13:08:10.8	17.070	-0.810	0.840	-0.480
2020/01/31 13:08:10.9	17.030	-0.820	0.810	-0.460
2020/01/31 13:08:11.0	17.010	-0.830	0.770	-0.450
2020/01/31 13:08:11.1	16.980	-0.820	0.720	-0.440
2020/01/31 13:08:11.2	16.960	-0.820	0.670	-0.440
2020/01/31 13:08:11.3	16.940	-0.800	0.610	-0.440
2020/01/31 13:08:11.4	16.920	-0.790	0.550	-0.440
2020/01/31 13:08:11.5	16.900	-0.760	0.480	-0.450
2020/01/31 13:08:11.6	16.890	-0.730	0.410	-0.460
2020/01/31 13:08:11.7	16.880	-0.700	0.340	-0.470
2020/01/31 13:08:11.8	16.880	-0.670	0.270	-0.480
2020/01/31 13:08:11.9	16.880	-0.630	0.190	-0.500
2020/01/31 13:08:12.0	16.880	-0.580	0.120	-0.510
2020/01/31 13:08:12.1	16.880	-0.540	0.040	-0.530
2020/01/31 13:08:12.2	16.890	-0.490	-0.040	-0.550
2020/01/31 13:08:12.3	16.900	-0.430	-0.120	-0.570
2020/01/31 13:08:12.4	16.910	-0.380	-0.190	-0.590
2020/01/31 13:08:12.5	16.920	-0.330	-0.260	-0.600
2020/01/31 13:08:12.6	16.930	-0.270	-0.340	-0.620
2020/01/31 13:08:12.7	16.940	-0.210	-0.410	-0.630
2020/01/31 13:08:12.8	16.950	-0.160	-0.470	-0.640
2020/01/31 13:08:12.9	16.970	-0.100	-0.540	-0.650
2020/01/31 13:08:13.0	16.980	-0.040	-0.600	-0.660
2020/01/31 13:08:13.1	17.000	0.010	-0.660	-0.670
2020/01/31 13:08:13.2	17.010	0.060	-0.710	-0.670
2020/01/31 13:08:13.3	17.030	0.110	-0.760	-0.670
2020/01/31 13:08:13.4	17.040	0.160	-0.810	-0.670
2020/01/31 13:08:13.5	17.070	0.210	-0.850	-0.660
2020/01/31 13:08:13.6	17.090	0.250	-0.890	-0.660
2020/01/31 13:08:13.7	17.110	0.290	-0.920	-0.650
2020/01/31 13:08:13.8	17.130	0.330	-0.950	-0.640
2020/01/31 13:08:13.9	17.150	0.370	-0.980	-0.630
2020/01/31 13:08:14.0	17.170	0.400	-1.000	-0.620
2020/01/31 13:08:14.1	17.190	0.430	-1.020	-0.610
2020/01/31 13:08:14.2	17.210	0.450	-1.030	-0.590
2020/01/31 13:08:14.3	17.240	0.470	-1.040	-0.580
2020/01/31 13:08:14.4	17.260	0.490	-1.050	-0.560
2020/01/31 13:08:14.5	17.260	0.500	-1.050	-0.540
2020/01/31 13:08:14.6	17.290	0.510	-1.050	-0.520
2020/01/31 13:08:14.7	17.310	0.510	-1.050	-0.500
2020/01/31 13:08:14.8	17.330	0.510	-1.040	-0.480
2020/01/31 13:08:14.9	17.350	0.510	-1.020	-0.460
2020/01/31 13:08:15.0	17.360	0.500	-1.000	-0.430
2020/01/31 13:08:15.1	17.380	0.490	-0.980	-0.400
2020/01/31 13:08:15.2	17.390	0.480	-0.950	-0.370
2020/01/31 13:08:15.3	17.390	0.460	-0.920	-0.340
2020/01/31 13:08:15.4	17.400	0.440	-0.880	-0.310
2020/01/31 13:08:15.5	17.400	0.410	-0.840	-0.270
2020/01/31 13:08:15.6	17.390	0.390	-0.790	-0.230
2020/01/31 13:08:15.7	17.380	0.360	-0.740	-0.190
2020/01/31 13:08:15.8	17.370	0.330	-0.680	-0.140
2020/01/31 13:08:15.9	17.360	0.290	-0.620	-0.090
2020/01/31 13:08:16.0	17.330	0.260	-0.560	-0.040
2020/01/31 13:08:16.1	17.310	0.220	-0.490	0.010
2020/01/31 13:08:16.2	17.280	0.180	-0.420	0.060
2020/01/31 13:08:16.3	17.250	0.150	-0.350	0.120
2020/01/31 13:08:16.4	17.210	0.110	-0.270	0.170
2020/01/31 13:08:16.5	17.180	0.070	-0.190	0.230
2020/01/31 13:08:16.6	17.140	0.030	-0.120	0.290
2020/01/31 13:08:16.7	17.100	-0.010	-0.040	0.340
2020/01/31 13:08:16.8	17.060	-0.050	0.030	0.390
2020/01/31 13:08:16.9	17.010	-0.080	0.100	0.450
2020/01/31 13:08:17.0	16.970	-0.110	0.170	0.500
2020/01/31 13:08:17.1	16.920	-0.150	0.240	0.540
2020/01/31 13:08:17.2	16.880	-0.180	0.300	0.580
2020/01/31 13:08:17.3	16.840	-0.200	0.350	0.620
2020/01/31 13:08:17.4	16.800	-0.220	0.400	0.650
2020/01/31 13:08:17.5	16.770	-0.240	0.440	0.680
2020/01/31 13:08:17.6	16.740	-0.260	0.480	0.700
2020/01/31 13:08:17.7	16.710	-0.270	0.510	0.720
2020/01/31 13:08:17.8	16.690	-0.280	0.530	0.730
2020/01/31 13:08:17.9	16.660	-0.290	0.540	0.740
2020/01/31 13:08:18.0	16.650	-0.290	0.550	0.740
2020/01/31 13:08:18.1	16.630	-0.280	0.550	0.730
2020/01/31 13:08:18.2	16.620	-0.270	0.540	0.720
2020/01/31 13:08:18.3	16.610	-0.260	0.520	0.700
2020/01/31 13:08:18.4	16.610	-0.240	0.500	0.690
2020/01/31 13:08:18.5	16.620	-0.220	0.470	0.660
2020/01/31 13:08:18.6	16.620	-0.200	0.430	0.640
2020/01/31 13:08:18.7	16.630	-0.170	0.390	0.610
2020/01/31 13:08:18.8	16.630	-0.140	0.340	0.580
2020/01/31 13:08:18.9	16.640	-0.110	0.290	0.550
2020/01/31 13:08:19.0	16.650	-0.080	0.240	0.520
2020/01/31 13:08:19.1	16.660	-0.050	0.190	0.490
2020/01/31 13:08:19.2	16.660	-0.010	0.140	0.460
2020/01/31 13:08:19.3	16.670	0.030	0.090	0.430
2020/01/31 13:08:19.4	16.680	0.060	0.040	0.400
2020/01/31 13:08:19.5	16.690	0.100	-0.010	0.370
2020/01/31 13:08:19.6	16.700	0.130	-0.060	0.340
2020/01/31 13:08:19.7	16.700	0.160	-0.100	0.320
2020/01/31 13:08:19.8	16.710	0.190	-0.140	0.300
2020/01/31 13:08:19.9	16.710	0.220	-0.180	0.280
2020/01/31 13:08:20.0	16.710	0.250	-0.210	0.260
2020/01/31 13:08:20.1	16.710	0.270	-0.240	0.240
2020/01/31 13:08:20.2	16.720	0.290	-0.260	0.230
2020/01/31 13:08:20.3	16.720	0.300	-0.280	0.210
2020/01/31 13:08:20.4	16.720	0.310	-0.290	0.200
2020/01/31 13:08:20.5	16.720	0.320	-0.310	0.180
2020/01/31 13:08:20.6	16.720	0.320	-0.310	0.170
2020/01/31 13:08:20.7	16.720	0.320	-0.320	0.150
2020/01/31 13:08:20.8	16.720	0.320	-0.320	0.140
2020/01/31 13:08:20.9	16.720	0.310	-0.320	0.120
2020/01/31 13:08:21.0	16.730	0.300	-0.320	0.110
2020/01/31 13:08:21.1	16.730	0.280	-0.310	0.090
2020/01/31 13:08:21.2	16.730	0.270	-0.300	0.080
2020/01/31 13:08:21.3	16.740	0.240	-0.290	0.060
2020/01/31 13:08:21.4	16.750	0.220	-0.290	0.040
2020/01/31 13:08:21.5	16.770	0.190	-0.280	0.010
2020/01/31 13:08:21.6	16.780	0.160	-0.270	-0.010
2020/01/31 13:08:21.7	16.800	0.140	-0.260	-0.030
2020/01/31 13:08:21.8	16.810	0.100	-0.250	-0.060
2020/01/31 13:08:21.9	16.820	0.070	-0.240	-0.090
2020/01/31 13:08:22.0	16.840	0.040	-0.240	-0.120
2020/01/31 13:08:22.1	16.850	0.010	-0.230	-0.150
2020/01/31 13:08:22.2	16.870	-0.020	-0.220	-0.180
2020/01/31 13:08:22.3	16.890	-0.050	-0.220	-0.210
2020/01/31 13:08:22.4	16.900	-0.080	-0.220	-0.240
2020/01/31 13:08:22.5	16.910	-0.100	-0.210	-0.270
2020/01/31 13:08:22.6	16.930	-0.130	-0.210	-0.300
2020/01/31 13:08:22.7	16.940	-0.150	-0.210	-0.320
2020/01/31 13:08:22.8	16.960	-0.170	-0.200	-0.350
2020/01/31 13:08:22.9	16.970	-0.190	-0.200	-0.370
2020/01/31 13:08:23.0	16.980	-0.210	-0.200	-0.380
2020/01/31 13:08:23.1	16.990	-0.220	-0.190	-0.400
2020/01/31 13:08:23.2	17.000	-0.230	-0.190	-0.410
2020/01/31 13:08:23.3	17.000	-0.240	-0.190	-0.420
2020/01/31 13:08:23.4	17.000	-0.250	-0.180	-0.420
2020/01/31 13:08:23.5	16.990	-0.250	-0.170	-0.420
2020/01/31 13:08:23.6	16.980	-0.260	-0.170	-0.420
2020/01/31 13:08:23.7	16.980	-0.260	-0.160	-0.410
2020/01/31 13:08:23.8	16.980	-0.250	-0.150	-0.410
2020/01/31 13:08:23.9	16.970	-0.250	-0.150	-0.400
2020/01/31 13:08:24.0	16.970	-0.240	-0.140	-0.380
2020/01/31 13:08:24.1	16.960	-0.240	-0.130	-0.370
2020/01/31 13:08:24.2	16.950	-0.230	-0.130	-0.360
2020/01/31 13:08:24.3	16.940	-0.220	-0.120	-0.340
2020/01/31 13:08:24.4	16.930	-0.210	-0.120	-0.320
2020/01/31 13:08:24.5	16.910	-0.190	-0.120	-0.310
2020/01/31 13:08:24.6	16.900	-0.180	-0.120	-0.290
2020/01/31 13:08:24.7	16.890	-0.160	-0.120	-0.270
2020/01/31 13:08:24.8	16.890	-0.150	-0.120	-0.260
2020/01/31 13:08:24.9	16.880	-0.130	-0.120	-0.240
2020/01/31 13:08:25.0	16.870	-0.110	-0.120	-0.230
2020/01/31 13:08:25.1	16.860	-0.090	-0.130	-0.210
2020/01/31 13:08:25.2	16.860	-0.070	-0.140	-0.200
2020/01/31 13:08:25.3	16.860	-0.050	-0.150	-0.190
2020/01/31 13:08:25.4	16.850	-0.030	-0.160	-0.180
2020/01/31 13:08:25.5	16.850	-0.010	-0.170	-0.170
2020/01/31 13:08:25.6	16.850	0.010	-0.180	-0.160
2020/01/31 13:08:25.7	16.850	0.030	-0.190	-0.150
2020/01/31 13:08:25.8	16.850	0.060	-0.200	-0.140
2020/01/31 13:08:25.9	16.850	0.080	-0.220	-0.140
2020/01/31 13:08:26.0	16.850	0.100	-0.230	-0.130
2020/01/31 13:08:26.1	16.850	0.120	-0.250	-0.120
2020/01/31 13:08:26.2	16.850	0.140	-0.260	-0.110
2020/01/31 13:08:26.3	16.860	0.160	-0.270	-0.100
2020/01/31 13:08:26.4	16.860	0.190	-0.280	-0.090
2020/01/31 13:08:26.5	16.870	0.210	-0.300	-0.080
2020/01/31 13:08:26.6	16.870	0.230	-0.300	-0.070
2020/01/31 13:08:26.7	16.870	0.240	-0.310	-0.050
2020/01/31 13:08:26.8	16.870	0.260	-0.320	-0.040
2020/01/31 13:08:26.9	16.870	0.280	-0.320	-0.020
2020/01/31 13:08:27.0	16.870	0.290	-0.330	-0.000
2020/01/31 13:08:27.1	16.870	0.310	-0.330	0.010
2020/01/31 13:08:27.2	16.870	0.320	-0.330	0.030
2020/01/31 13:08:27.3	16.870	0.330	-0.320	0.050
2020/01/31 13:08:27.4	16.870	0.330	-0.320	0.070
2020/01/31 13:08:27.5	16.870	0.340	-0.320	0.090
2020/01/31 13:08:27.6	16.870	0.340	-0.310	0.110
2020/01/31 13:08:27.7	16.870	0.340	-0.300	0.120
2020/01/31 13:08:27.8	16.880	0.340	-0.290	0.140
2020/01/31 13:08:27.9	16.880	0.330	-0.280	0.150
2020/01/31 13:08:28.0	16.890	0.320	-0.270	0.160
2020/01/31 13:08:28.1	16.890	0.310	-0.260	0.170
2020/01/31 13:08:28.2	16.900	0.300	-0.250	0.180
2020/01/31 13:08:28.3	16.920	0.280	-0.240	0.180
2020/01/31 13:08:28.4	16.930	0.270	-0.220	0.180
2020/01/31 13:08:28.5	16.950	0.250	-0.210	0.180
2020/01/31 13:08:28.6	16.970	0.220	-0.200	0.170
2020/01/31 13:08:28.7	16.990	0.200	-0.180	0.160
2020/01/31 13:08:28.8	17.010	0.170	-0.170	0.150
2020/01/31 13:08:28.9	17.040	0.140	-0.150	0.140
2020/01/31 13:08:29.0	17.060	0.110	-0.140	0.130
2020/01/31 13:08:29.1	17.080	0.080	-0.120	0.110
2020/01/31 13:08:29.2	17.110	0.050	-0.100	0.090
2020/01/31 13:08:29.3	17.130	0.010	-0.080	0.080
2020/01/31 13:08:29.4	17.150	-0.020	-0.060	0.060
2020/01/31 13:08:29.5	17.170	-0.060	-0.040	0.040
2020/01/31 13:08:29.6	17.190	-0.100	-0.010	0.030
2020/01/31 13:08:29.7	17.210	-0.140	0.010	0.020
2020/01/31 13:08:29.8	17.220	-0.180	0.040	0.000
2020/01/31 13:08:29.9	17.230	-0.220	0.070	-0.010
2020/01/31 13:08:30.0	17.240	-0.260	0.100	-0.020
2020/01/31 13:08:30.1	17.250	-0.290	0.120	-0.030
2020/01/31 13:08:30.2	17.250	-0.330	0.150	-0.030
2020/01/31 13:08:30.3	17.250	-0.370	0.180	-0.040
2020/01/31 13:08:30.4	17.250	-0.410	0.210	-0.050
2020/01/31 13:08:30.5	17.240	-0.440	0.240	-0.050
2020/01/31 13:08:30.6	17.230	-0.470	0.260	-0.060
2020/01/31 13:08:30.7	17.230	-0.500	0.290	-0.060
2020/01/31 13:08:30.8	17.220	-0.530	0.310	-0.070
2020/01/31 13:08:30.9	17.210	-0.560	0.330	-0.070
2020/01/31 13:08:31.0	17.200	-0.580	0.350	-0.080
2020/01/31 13:08:31.1	17.190	-0.600	0.360	-0.090
2020/01/31 13:08:31.2	17.180	-0.610	0.380	-0.090
2020/01/31 13:08:31.3	17.170	-0.620	0.380	-0.100
2020/01/31 13:08:31.4	17.170	-0.630	0.390	-0.110
2020/01/31 13:08:31.5	17.160	-0.630	0.390	-0.120
2020/01/31 13:08:31.6	17.150	-0.630	0.390	-0.130
2020/01/31 13:08:31.7	17.150	-0.630	0.380	-0.150
2020/01/31 13:08:31.8	17.140	-0.610	0.360	-0.160
2020/01/31 13:08:31.9	17.140	-0.600	0.350	-0.170
2020/01/31 13:08:32.0	17.140	-0.580	0.330	-0.180
2020/01/31 13:08:32.1	17.140	-0.550	0.300	-0.190
2020/01/31 13:08:32.2	17.140	-0.530	0.270	-0.200
2020/01/31 13:08:32.3	17.140	-0.490	0.230	-0.210
2020/01/31 13:08:32.4	17.140	-0.450	0.190	-0.220
2020/01/31 13:08:32.5	17.140	-0.410	0.150	-0.230
2020/01/31 13:08:32.6	17.140	-0.370	0.100	-0.230
2020/01/31 13:08:32.7	17.140	-0.320	0.050	-0.240
2020/01/31 13:08:32.8	17.150	-0.270	0.000	-0.240
2020/01/31 13:08:32.9	17.150	-0.210	-0.050	-0.240
2020/01/31 13:08:33.0	17.150	-0.160	-0.110	-0.240
2020/01/31 13:08:33.1	17.160	-0.100	-0.160	-0.230
2020/01/31 13:08:33.2	17.160	-0.040	-0.220	-0.230
2020/01/31 13:08:33.3	17.170	0.020	-0.270	-0.220
2020/01/31 13:08:33.4	17.170	0.080	-0.330	-0.210
2020/01/31 13:08:33.5	17.170	0.140	-0.380	-0.190
2020/01/31 13:08:33.6	17.180	0.200	-0.430	-0.180
2020/01/31 13:08:33.7	17.180	0.260	-0.480	-0.160
2020/01/31 13:08:33.8	17.180	0.310	-0.530	-0.150
2020/01/31 13:08:33.9	17.190	0.370	-0.580	-0.130
2020/01/31 13:08:34.0	17.190	0.420	-0.620	-0.110
2020/01/31 13:08:34.1	17.200	0.470	-0.660	-0.100
2020/01/31 13:08:34.2	17.210	0.510	-0.700	-0.080
2020/01/31 13:08:34.3	17.220	0.560	-0.730	-0.060
2020/01/31 13:08:34.4	17.230	0.600	-0.760	-0.050
2020/01/31 13:08:34.5	17.230	0.630	-0.790	-0.030
2020/01/31 13:08:34.6	17.240	0.660	-0.820	-0.020
2020/01/31 13:08:34.7	17.250	0.690	-0.840	-0.010
2020/01/31 13:08:34.8	17.270	0.710	-0.860	0.000
2020/01/31 13:08:34.9	17.280	0.730	-0.870	0.010
2020/01/31 13:08:35.0	17.290	0.740	-0.890	0.020
2020/01/31 13:08:35.1	17.310	0.750	-0.890	0.020
2020/01/31 13:08:35.2	17.330	0.760	-0.900	0.020
2020/01/31 13:08:35.3	17.340	0.760	-0.900	0.020
2020/01/31 13:08:35.4	17.360	0.750	-0.900	0.020
2020/01/31 13:08:35.5	17.380	0.740	-0.900	0.020
2020/01/31 13:08:35.6	17.390	0.730	-0.890	0.020
2020/01/31 13:08:35.7	17.410	0.710	-0.880	0.010
2020/01/31 13:08:35.8	17.430	0.690	-0.860	0.010
2020/01/31 13:08:35.9	17.440	0.670	-0.850	0.000
2020/01/31 13:08:36.0	17.460	0.640	-0.830	-0.010
2020/01/31 13:08:36.1	17.480	0.610	-0.800	-0.010
2020/01/31 13:08:36.2	17.490	0.580	-0.780	-0.020
2020/01/31 13:08:36.3	17.510	0.550	-0.750	-0.030
2020/01/31 13:08:36.4	17.520	0.510	-0.720	-0.040
2020/01/31 13:08:36.5	17.530	0.470	-0.690	-0.050
2020/01/31 13:08:36.6	17.540	0.430	-0.650	-0.060
2020/01/31 13:08:36.7	17.560	0.390	-0.620	-0.070
2020/01/31 13:08:36.8	17.570	0.350	-0.580	-0.080
2020/01/31 13:08:36.9	17.580	0.310	-0.540	-0.090
2020/01/31 13:08:37.0	17.580	0.260	-0.500	-0.100
2020/01/31 13:08:37.1	17.590	0.220	-0.450	-0.110
2020/01/31 13:08:37.2	17.590	0.180	-0.410	-0.120
2020/01/31 13:08:37.3	17.590	0.130	-0.360	-0.130
2020/01/31 13:08:37.4	17.590	0.090	-0.310	-0.140
2020/01/31 13:08:37.5	17.600	0.050	-0.260	-0.140
2020/01/31 13:08:37.6	17.600	0.010	-0.210	-0.150
2020/01/31 13:08:37.7	17.590	-0.030	-0.160	-0.150
2020/01/31 13:08:37.8	17.580	-0.070	-0.110	-0.150
2020/01/31 13:08:37.9	17.570	-0.110	-0.060	-0.160
2020/01/31 13:08:38.0	17.550	-0.150	-0.010	-0.160
2020/01/31 13:08:38.1	17.540	-0.180	0.040	-0.160
2020/01/31 13:08:38.2	17.520	-0.210	0.090	-0.160
2020/01/31 13:08:38.3	17.500	-0.250	0.140	-0.160
2020/01/31 13:08:38.4	17.480	-0.270	0.190	-0.160
2020/01/31 13:08:38.5	17.460	-0.300	0.240	-0.160
2020/01/31 13:08:38.6	17.440	-0.330	0.280	-0.170
2020/01/31 13:08:38.7	17.410	-0.350	0.320	-0.170
2020/01/31 13:08:38.8	17.390	-0.370	0.360	-0.170
2020/01/31 13:08:38.9	17.370	-0.390	0.400	-0.180
2020/01/31 13:08:39.0	17.340	-0.410	0.430	-0.180
2020/01/31 13:08:39.1	17.320	-0.420	0.470	-0.190
2020/01/31 13:08:39.2	17.300	-0.430	0.500	-0.200
2020/01/31 13:08:39.3	17.270	-0.440	0.520	-0.210
2020/01/31 13:08:39.4	17.250	-0.440	0.540	-0.220
2020/01/31 13:08:39.5	17.220	-0.450	0.560	-0.230
2020/01/31 13:08:39.6	17.190	-0.450	0.570	-0.240
2020/01/31 13:08:39.7	17.170	-0.450	0.580	-0.250
2020/01/31 13:08:39.8	17.150	-0.440	0.590	-0.260
2020/01/31 13:08:39.9	17.120	-0.430	0.600	-0.260
2020/01/31 13:08:40.0	17.100	-0.420	0.600	-0.270
2020/01/31 13:08:40.1	17.080	-0.410	0.600	-0.280
2020/01/31 13:08:40.2	17.060	-0.400	0.590	-0.290
2020/01/31 13:08:40.3	17.040	-0.380	0.580	-0.300
2020/01/31 13:08:40.4	17.020	-0.360	0.570	-0.310
2020/01/31 13:08:40.5	17.010	-0.340	0.550	-0.310
2020/01/31 13:08:40.6	16.990	-0.320	0.530	-0.320
2020/01/31 13:08:40.7	16.980	-0.300	0.510	-0.320
2020/01/31 13:08:40.8	16.960	-0.270	0.480	-0.330
2020/01/31 13:08:40.9	16.950	-0.250	0.440	-0.340
2020/01/31 13:08:41.0	16.940	-0.220	0.410	-0.340
2020/01/31 13:08:41.1	16.930	-0.190	0.370	-0.350
2020/01/31 13:08:41.2	16.930	-0.170	0.330	-0.350
2020/01/31 13:08:41.3	16.930	-0.140	0.290	-0.360
2020/01/31 13:08:41.4	16.920	-0.110	0.240	-0.360
2020/01/31 13:08:41.5	16.910	-0.080	0.190	-0.370
2020/01/31 13:08:41.6	16.910	-0.060	0.140	-0.370
2020/01/31 13:08:41.7	16.920	-0.030	0.090	-0.380
2020/01/31 13:08:41.8	16.930	-0.000	0.040	-0.380
2020/01/31 13:08:41.9	16.950	0.020	-0.010	-0.390
2020/01/31 13:08:42.0	16.960	0.040	-0.060	-0.390
2020/01/31 13:08:42.1	16.980	0.060	-0.100	-0.390
2020/01/31 13:08:42.2	17.000	0.080	-0.150	-0.400
2020/01/31 13:08:42.3	17.020	0.100	-0.200	-0.400
2020/01/31 13:08:42.4	17.050	0.110	-0.240	-0.400
2020/01/31 13:08:42.5	17.070	0.130	-0.280	-0.400
2020/01/31 13:08:42.6	17.090	0.140	-0.320	-0.400
2020/01/31 13:08:42.7	17.120	0.140	-0.360	-0.400
2020/01/31 13:08:42.8	17.150	0.150	-0.390	-0.390
2020/01/31 13:08:42.9	17.170	0.150	-0.420	-0.390
2020/01/31 13:08:43.0	17.200	0.150	-0.440	-0.390
2020/01/31 13:08:43.1	17.230	0.150	-0.460	-0.380
2020/01/31 13:08:43.2	17.250	0.150	-0.480	-0.370
2020/01/31 13:08:43.3	17.280	0.140	-0.490	-0.360
2020/01/31 13:08:43.4	17.300	0.130	-0.500	-0.350
2020/01/31 13:08:43.5	17.330	0.120	-0.500	-0.340
2020/01/31 13:08:43.6	17.360	0.110	-0.500	-0.320
2020/01/31 13:08:43.7	17.380	0.090	-0.490	-0.310
2020/01/31 13:08:43.8	17.400	0.080	-0.480	-0.290
2020/01/31 13:08:43.9	17.420	0.060	-0.470	-0.280
2020/01/31 13:08:44.0	17.440	0.040	-0.450	-0.260
2020/01/31 13:08:44.1	17.460	0.020	-0.430	-0.240
2020/01/31 13:08:44.2	17.480	0.000	-0.410	-0.220
2020/01/31 13:08:44.3	17.490	-0.020	-0.390	-0.190
2020/01/31 13:08:44.4	17.500	-0.040	-0.360	-0.170
2020/01/31 13:08:44.5	17.530	-0.060	-0.330	-0.150
2020/01/31 13:08:44.6	17.540	-0.080	-0.300	-0.120
2020/01/31 13:08:44.7	17.550	-0.100	-0.270	-0.090
2020/01/31 13:08:44.8	17.550	-0.120	-0.230	-0.060
2020/01/31 13:08:44.9	17.550	-0.130	-0.200	-0.030
2020/01/31 13:08:45.0	17.550	-0.150	-0.170	0.010
2020/01/31 13:08:45.1	17.540	-0.170	-0.130	0.040
2020/01/31 13:08:45.2	17.530	-0.190	-0.100	0.080
2020/01/31 13:08:45.3	17.520	-0.200	-0.070	0.120
2020/01/31 13:08:45.4	17.500	-0.220	-0.030	0.170
2020/01/31 13:08:45.5	17.480	-0.230	-0.000	0.220
2020/01/31 13:08:45.6	17.460	-0.250	0.020	0.270
2020/01/31 13:08:45.7	17.430	-0.260	0.050	0.320
2020/01/31 13:08:45.8	17.400	-0.270	0.070	0.370
2020/01/31 13:08:45.9	17.370	-0.280	0.090	0.420
2020/01/31 13:08:46.0	17.330	-0.290	0.110	0.470
2020/01/31 13:08:46.1	17.290	-0.290	0.120	0.520
2020/01/31 13:08:46.2	17.260	-0.300	0.130	0.560
2020/01/31 13:08:46.3	17.220	-0.300	0.140	0.610
2020/01/31 13:08:46.4	17.180	-0.300	0.140	0.650
2020/01/31 13:08:46.5	17.150	-0.300	0.130	0.690
2020/01/31 13:08:46.6	17.110	-0.300	0.120	0.730
2020/01/31 13:08:46.7	17.070	-0.300	0.110	0.760
2020/01/31 13:08:46.8	17.030	-0.290	0.090	0.780
2020/01/31 13:08:46.9	16.990	-0.280	0.070	0.800
2020/01/31 13:08:47.0	16.950	-0.270	0.040	0.820
2020/01/31 13:08:47.1	16.910	-0.260	0.000	0.830
2020/01/31 13:08:47.2	16.870	-0.250	-0.030	0.840
2020/01/31 13:08:47.3	16.840	-0.230	-0.080	0.840
2020/01/31 13:08:47.4	16.810	-0.210	-0.120	0.830
2020/01/31 13:08:47.5	16.790	-0.190	-0.170	0.820
2020/01/31 13:08:47.6	16.760	-0.160	-0.220	0.810
2020/01/31 13:08:47.7	16.730	-0.130	-0.270	0.790
2020/01/31 13:08:47.8	16.710	-0.110	-0.330	0.770
2020/01/31 13:08:47.9	16.690	-0.070	-0.390	0.740
2020/01/31 13:08:48.0	16.670	-0.040	-0.450	0.710
2020/01/31 13:08:48.1	16.660	-0.000	-0.500	0.670
2020/01/31 13:08:48.2	16.640	0.030	-0.560	0.640
2020/01/31 13:08:48.3	16.640	0.070	-0.620	0.600
2020/01/31 13:08:48.4	16.630	0.110	-0.670	0.550
2020/01/31 13:08:48.5	16.620	0.150	-0.730	0.500
2020/01/31 13:08:48.6	16.620	0.200	-0.780	0.460
2020/01/31 13:08:48.7	16.620	0.240	-0.830	0.410
2020/01/31 13:08:48.8	16.620	0.280	-0.880	0.360
2020/01/31 13:08:48.9	16.630	0.330	-0.920	0.300
2020/01/31 13:08:49.0	16.650	0.370	-0.970	0.250
2020/01/31 13:08:49.1	16.660	0.410	-1.000	0.200
2020/01/31 13:08:49.2	16.680	0.450	-1.040	0.140
2020/01/31 13:08:49.3	16.700	0.490	-1.070	0.090
2020/01/31 13:08:49.4	16.720	0.530	-1.100	0.040
2020/01/31 13:08:49.5	16.740	0.570	-1.120	-0.020
2020/01/31 13:08:49.6	16.760	0.610	-1.140	-0.070
2020/01/31 13:08:49.7	16.790	0.640	-1.150	-0.120
2020/01/31 13:08:49.8	16.820	0.670	-1.160	-0.170
2020/01/31 13:08:49.9	16.850	0.700	-1.160	-0.220
2020/01/31 13:08:50.0	16.880	0.730	-1.160	-0.270
2020/01/31 13:08:50.1	16.920	0.750	-1.150	-0.320
2020/01/31 13:08:50.2	16.950	0.770	-1.140	-0.370
2020/01/31 13:08:50.3	16.990	0.780	-1.120	-0.420
2020/01/31 13:08:50.4	17.020	0.800	-1.100	-0.460
2020/01/31 13:08:50.5	17.040	0.800	-1.070	-0.510
2020/01/31 13:08:50.6	17.080	0.810	-1.040	-0.550
2020/01/31 13:08:50.7	17.120	0.810	-1.000	-0.590
2020/01/31 13:08:50.8	17.160	0.800	-0.950	-0.630
2020/01/31 13:08:50.9	17.190	0.800	-0.910	-0.670
2020/01/31 13:08:51.0	17.230	0.780	-0.850	-0.700
2020/01/31 13:08:51.1	17.270	0.770	-0.790	-0.740
2020/01/31 13:08:51.2	17.300	0.740	-0.730	-0.770
2020/01/31 13:08:51.3	17.340	0.720	-0.660	-0.790
2020/01/31 13:08:51.4	17.370	0.690	-0.590	-0.820
2020/01/31 13:08:51.5	17.400	0.660	-0.520	-0.840
2020/01/31 13:08:51.6	17.430	0.620	-0.440	-0.850
2020/01/31 13:08:51.7	17.450	0.580	-0.350	-0.870
2020/01/31 13:08:51.8	17.470	0.530	-0.260	-0.880
2020/01/31 13:08:51.9	17.480	0.480	-0.170	-0.880
2020/01/31 13:08:52.0	17.490	0.430	-0.080	-0.890
2020/01/31 13:08:52.1	17.500	0.370	0.020	-0.880
2020/01/31 13:08:52.2	17.500	0.310	0.120	-0.880
2020/01/31 13:08:52.3	17.490	0.250	0.220	-0.870
2020/01/31 13:08:52.4	17.490	0.190	0.320	-0.860
2020/01/31 13:08:52.5	17.470	0.120	0.430	-0.840
2020/01/31 13:08:52.6	17.450	0.050	0.530	-0.830
2020/01/31 13:08:52.7	17.430	-0.010	0.630	-0.810
2020/01/31 13:08:52.8	17.400	-0.080	0.730	-0.790
2020/01/31 13:08:52.9	17.370	-0.160	0.820	-0.770
2020/01/31 13:08:53.0	17.340	-0.230	0.920	-0.740
2020/01/31 13:08:53.1	17.300	-0.300	1.000	-0.720
2020/01/31 13:08:53.2	17.260	-0.360	1.090	-0.690
2020/01/31 13:08:53.3	17.220	-0.430	1.170	-0.660
2020/01/31 13:08:53.4	17.170	-0.500	1.240	-0.640
2020/01/31 13:08:53.5	17.140	-0.560	1.310	-0.610
2020/01/31 13:08:53.6	17.090	-0.620	1.370	-0.580
2020/01/31 13:08:53.7	17.040	-0.680	1.420	-0.540
2020/01/31 13:08:53.8	16.990	-0.730	1.470	-0.510
2020/01/31 13:08:53.9	16.940	-0.780	1.500	-0.480
2020/01/31 13:08:54.0	16.890	-0.820	1.530	-0.440
2020/01/31 13:08:54.1	16.840	-0.860	1.550	-0.410
2020/01/31 13:08:54.2	16.800	-0.890	1.560	-0.370
2020/01/31 13:08:54.3	16.750	-0.920	1.550	-0.340
2020/01/31 13:08:54.4	16.700	-0.940	1.540	-0.300
2020/01/31 13:08:54.5	16.660	-0.950	1.520	-0.260
2020/01/31 13:08:54.6	16.620	-0.960	1.490	-0.230
2020/01/31 13:08:54.7	16.580	-0.960	1.440	-0.190
2020/01/31 13:08:54.8	16.540	-0.950	1.390	-0.150
2020/01/31 13:08:54.9	16.510	-0.930	1.320	-0.120
2020/01/31 13:08:55.0	16.480	-0.910	1.250	-0.080
2020/01/31 13:08:55.1	16.450	-0.880	1.160	-0.050
2020/01/31 13:08:55.2	16.430	-0.850	1.070	-0.020
2020/01/31 13:08:55.3	16.410	-0.810	0.960	0.010
2020/01/31 13:08:55.4	16.390	-0.760	0.850	0.040
2020/01/31 13:08:55.5	16.380	-0.710	0.730	0.070
2020/01/31 13:08:55.6	16.370	-0.650	0.600	0.090
2020/01/31 13:08:55.7	16.360	-0.580	0.470	0.110
2020/01/31 13:08:55.8	16.360	-0.520	0.340	0.120
2020/01/31 13:08:55.9	16.360	-0.450	0.200	0.140
2020/01/31 13:08:56.0	16.370	-0.370	0.060	0.150
2020/01/31 13:08:56.1	16.380	-0.300	-0.090	0.150
2020/01/31 13:08:56.2	16.390	-0.220	-0.230	0.160
2020/01/31 13:08:56.3	16.400	-0.140	-0.370	0.160
2020/01/31 13:08:56.4	16.420	-0.070	-0.500	0.160
2020/01/31 13:08:56.5	16.440	0.010	-0.630	0.160
2020/01/31 13:08:56.6	16.460	0.090	-0.760	0.150
2020/01/31 13:08:56.7	16.480	0.160	-0.880	0.150
2020/01/31 13:08:56.8	16.500	0.230	-0.990	0.140
2020/01/31 13:08:56.9	16.520	0.290	-1.100	0.130
2020/01/31 13:08:57.0	16.540	0.360	-1.190	0.130
2020/01/31 13:08:57.1	16.560	0.410	-1.280	0.120
2020/01/31 13:08:57.2	16.570	0.460	-1.350	0.120
2020/01/31 13:08:57.3	16.590	0.510	-1.420	0.120
2020/01/31 13:08:57.4	16.600	0.550	-1.470	0.120
2020/01/31 13:08:57.5	16.610	0.580	-1.510	0.110
2020/01/31 13:08:57.6	16.620	0.600	-1.540	0.110
2020/01/31 13:08:57.7	16.630	0.620	-1.550	0.110
2020/01/31 13:08:57.8	16.640	0.630	-1.560	0.110
2020/01/31 13:08:57.9	16.650	0.640	-1.550	0.120
2020/01/31 13:08:58.0	16.650	0.630	-1.530	0.120
2020/01/31 13:08:58.1	16.660	0.620	-1.500	0.120
2020/01/31 13:08:58.2	16.660	0.610	-1.460	0.130
2020/01/31 13:08:58.3	16.660	0.580	-1.400	0.130
2020/01/31 13:08:58.4	16.660	0.550	-1.340	0.140
2020/01/31 13:08:58.5	16.650	0.520	-1.270	0.140
2020/01/31 13:08:58.6	16.650	0.480	-1.200	0.150
2020/01/31 13:08:58.7	16.640	0.430	-1.120	0.150
2020/01/31 13:08:58.8	16.640	0.380	-1.030	0.160
2020/01/31 13:08:58.9	16.630	0.330	-0.940	0.160
2020/01/31 13:08:59.0	16.620	0.270	-0.850	0.160
2020/01/31 13:08:59.1	16.610	0.210	-0.750	0.160
2020/01/31 13:08:59.2	16.600	0.150	-0.660	0.160
2020/01/31 13:08:59.3	16.590	0.090	-0.560	0.160
2020/01/31 13:08:59.4	16.580	0.020	-0.470	0.160
2020/01/31 13:08:59.5	16.570	-0.040	-0.380	0.150
2020/01/31 13:08:59.6	16.560	-0.100	-0.290	0.140
2020/01/31 13:08:59.7	16.550	-0.170	-0.200	0.120
2020/01/31 13:08:59.8	16.530	-0.230	-0.120	0.110
2020/01/31 13:08:59.9	16.520	-0.280	-0.050	0.090
2020/01/31 13:09:00.0	16.510	-0.340	0.020	0.070
2020/01/31 13:09:00.1	16.500	-0.390	0.080	0.050
2020/01/31 13:09:00.2	16.500	-0.440	0.130	0.020
2020/01/31 13:09:00.3	16.490	-0.480	0.180	-0.010
2020/01/31 13:09:00.4	16.480	-0.520	0.220	-0.040
2020/01/31 13:09:00.5	16.480	-0.550	0.250	-0.080
2020/01/31 13:09:00.6	16.470	-0.570	0.280	-0.110
2020/01/31 13:09:00.7	16.470	-0.600	0.300	-0.150
2020/01/31 13:09:00.8	16.470	-0.610	0.310	-0.180
2020/01/31 13:09:00.9	16.470	-0.620	0.310	-0.220
2020/01/31 13:09:01.0	16.470	-0.630	0.310	-0.260
2020/01/31 13:09:01.1	16.470	-0.620	0.300	-0.290
2020/01/31 13:09:01.2	16.470	-0.620	0.290	-0.330
2020/01/31 13:09:01.3	16.470	-0.600	0.270	-0.360
2020/01/31 13:09:01.4	16.470	-0.580	0.250	-0.400
2020/01/31 13:09:01.5	16.470	-0.560	0.220	-0.430
2020/01/31 13:09:01.6	16.470	-0.530	0.190	-0.460
2020/01/31 13:09:01.7	16.470	-0.500	0.160	-0.490
2020/01/31 13:09:01.8	16.480	-0.460	0.120	-0.520
2020/01/31 13:09:01.9	16.480	-0.420	0.080	-0.550
2020/01/31 13:09:02.0	16.490	-0.370	0.030	-0.570
2020/01/31 13:09:02.1	16.490	-0.320	-0.010	-0.590
2020/01/31 13:09:02.2	16.500	-0.270	-0.060	-0.610
2020/01/31 13:09:02.3	16.510	-0.220	-0.100	-0.630
2020/01/31 13:09:02.4	16.510	-0.170	-0.150	-0.650
2020/01/31 13:09:02.5	16.510	-0.110	-0.190	-0.670
2020/01/31 13:09:02.6	16.510	-0.060	-0.240	-0.680
2020/01/31 13:09:02.7	16.520	-0.000	-0.280	-0.700
2020/01/31 13:09:02.8	16.530	0.050	-0.320	-0.710
2020/01/31 13:09:02.9	16.540	0.100	-0.370	-0.720
2020/01/31 13:09:03.0	16.540	0.150	-0.400	-0.720
2020/01/31 13:09:03.1	16.550	0.200	-0.440	-0.720
2020/01/31 13:09:03.2	16.560	0.250	-0.470	-0.730
2020/01/31 13:09:03.3	16.570	0.300	-0.500	-0.720
2020/01/31 13:09:03.4	16.570	0.340	-0.520	-0.720
2020/01/31 13:09:03.5	16.580	0.380	-0.540	-0.700
2020/01/31 13:09:03.6	16.580	0.420	-0.560	-0.690
2020/01/31 13:09:03.7	16.580	0.450	-0.570	-0.670
2020/01/31 13:09:03.8	16.580	0.480	-0.570	-0.650
2020/01/31 13:09:03.9	16.580	0.510	-0.570	-0.620
2020/01/31 13:09:04.0	16.580	0.530	-0.560	-0.590
2020/01/31 13:09:04.1	16.580	0.550	-0.550	-0.550
2020/01/31 13:09:04.2	16.570	0.570	-0.540	-0.510
2020/01/31 13:09:04.3	16.560	0.580	-0.510	-0.460
2020/01/31 13:09:04.4	16.550	0.590	-0.490	-0.410
2020/01/31 13:09:04.5	16.540	0.590	-0.450	-0.350
2020/01/31 13:09:04.6	16.530	0.590	-0.420	-0.290
2020/01/31 13:09:04.7	16.520	0.590	-0.380	-0.230
2020/01/31 13:09:04.8	16.500	0.590	-0.330	-0.160
2020/01/31 13:09:04.9	16.490	0.580	-0.290	-0.090
2020/01/31 13:09:05.0	16.470	0.570	-0.240	-0.030
2020/01/31 13:09:05.1	16.460	0.560	-0.190	0.050
2020/01/31 13:09:05.2	16.440	0.550	-0.140	0.120
2020/01/31 13:09:05.3	16.430	0.530	-0.090	0.190
2020/01/31 13:09:05.4	16.420	0.510	-0.040	0.260
2020/01/31 13:09:05.5	16.410	0.490	0.000	0.330
2020/01/31 13:09:05.6	16.390	0.470	0.050	0.400
2020/01/31 13:09:05.7	16.380	0.450	0.090	0.460
2020/01/31 13:09:05.8	16.370	0.430	0.140	0.520
2020/01/31 13:09:05.9	16.370	0.400	0.180	0.580
2020/01/31 13:09:06.0	16.360	0.380	0.210	0.640
2020/01/31 13:09:06.1	16.360	0.360	0.240	0.690
2020/01/31 13:09:06.2	16.360	0.330	0.270	0.730
2020/01/31 13:09:06.3	16.360	0.310	0.300	0.780
2020/01/31 13:09:06.4	16.360	0.280	0.320	0.810
2020/01/31 13:09:06.5	16.380	0.260	0.330	0.840
2020/01/31 13:09:06.6	16.380	0.240	0.340	0.870
2020/01/31 13:09:06.7	16.390	0.220	0.340	0.890
2020/01/31 13:09:06.8	16.400	0.190	0.340	0.900
2020/01/31 13:09:06.9	16.410	0.170	0.340	0.910
2020/01/31 13:09:07.0	16.420	0.150	0.330	0.920
2020/01/31 13:09:07.1	16.440	0.130	0.320	0.920
2020/01/31 13:09:07.2	16.450	0.110	0.300	0.920
2020/01/31 13:09:07.3	16.470	0.090	0.280	0.910
2020/01/31 13:09:07.4	16.480	0.080	0.260	0.910
2020/01/31 13:09:07.5	16.520	0.060	0.240	0.900
2020/01/31 13:09:07.6	16.540	0.040	0.210	0.880
2020/01/31 13:09:07.7	16.550	0.030	0.180	0.860
2020/01/31 13:09:07.8	16.570	0.010	0.150	0.850
2020/01/31 13:09:07.9	16.590	-0.000	0.120	0.820
2020/01/31 13:09:08.0	16.600	-0.020	0.090	0.800
2020/01/31 13:09:08.1	16.620	-0.030	0.060	0.780
2020/01/31 13:09:08.2	16.640	-0.050	0.020	0.750
2020/01/31 13:09:08.3	16.650	-0.060	-0.010	0.720
2020/01/31 13:09:08.4	16.670	-0.080	-0.040	0.700
2020/01/31 13:09:08.5	16.690	-0.090	-0.070	0.660
2020/01/31 13:09:08.6	16.700	-0.110	-0.100	0.630
2020/01/31 13:09:08.7	16.720	-0.120	-0.130	0.600
2020/01/31 13:09:08.8	16.740	-0.140	-0.160	0.560
2020/01/31 13:09:08.9	16.750	-0.150	-0.190	0.520
2020/01/31 13:09:09.0	16.770	-0.170	-0.210	0.490
2020/01/31 13:09:09.1	16.790	-0.180	-0.240	0.440
2020/01/31 13:09:09.2	16.810	-0.200	-0.260	0.400
2020/01/31 13:09:09.3	16.840	-0.210	-0.280	0.360
2020/01/31 13:09:09.4	16.860	-0.220	-0.310	0.310
2020/01/31 13:09:09.5	16.870	-0.240	-0.320	0.260
2020/01/31 13:09:09.6	16.900	-0.250	-0.340	0.210
2020/01/31 13:09:09.7	16.920	-0.260	-0.360	0.160
2020/01/31 13:09:09.8	16.950	-0.280	-0.380	0.110
2020/01/31 13:09:09.9	16.980	-0.290	-0.390	0.060
2020/01/31 13:09:10.0	17.010	-0.300	-0.400	0.010
2020/01/31 13:09:10.1	17.030	-0.310	-0.410	-0.040
2020/01/31 13:09:10.2	17.060	-0.310	-0.420	-0.090
2020/01/31 13:09:10.3	17.090	-0.320	-0.430	-0.140
2020/01/31 13:09:10.4	17.120	-0.330	-0.430	-0.190
2020/01/31 13:09:10.5	17.130	-0.330	-0.440	-0.240
2020/01/31 13:09:10.6	17.160	-0.330	-0.430	-0.290
2020/01/31 13:09:10.7	17.180	-0.340	-0.430	-0.340
2020/01/31 13:09:10.8	17.210	-0.340	-0.430	-0.380
2020/01/31 13:09:10.9	17.230	-0.340	-0.420	-0.420
2020/01/31 13:09:11.0	17.250	-0.340	-0.410	-0.460
2020/01/31 13:09:11.1	17.280	-0.330	-0.400	-0.500
2020/01/31 13:09:11.2	17.300	-0.330	-0.380	-0.530
2020/01/31 13:09:11.3	17.310	-0.320	-0.370	-0.560
2020/01/31 13:09:11.4	17.330	-0.320	-0.350	-0.590
2020/01/31 13:09:11.5	17.340	-0.310	-0.330	-0.620
2020/01/31 13:09:11.6	17.350	-0.300	-0.310	-0.650
2020/01/31 13:09:11.7	17.370	-0.290	-0.280	-0.670
2020/01/31 13:09:11.8	17.380	-0.280	-0.260	-0.690
2020/01/31 13:09:11.9	17.390	-0.270	-0.240	-0.710
2020/01/31 13:09:12.0	17.410	-0.260	-0.210	-0.730
2020/01/31 13:09:12.1	17.420	-0.240	-0.190	-0.740
2020/01/31 13:09:12.2	17.430	-0.230	-0.160	-0.750
2020/01/31 13:09:12.3	17.440	-0.210	-0.140	-0.760
2020/01/31 13:09:12.4	17.450	-0.200	-0.120	-0.760
2020/01/31 13:09:12.5	17.460	-0.180	-0.100	-0.760
2020/01/31 13:09:12.6	17.470	-0.160	-0.080	-0.760
2020/01/31 13:09:12.7	17.480	-0.140	-0.060	-0.750
2020/01/31 13:09:12.8	17.480	-0.120	-0.040	-0.740
2020/01/31 13:09:12.9	17.480	-0.110	-0.020	-0.730
2020/01/31 13:09:13.0	17.490	-0.090	-0.010	-0.710
2020/01/31 13:09:13.1	17.490	-0.070	0.000	-0.690
2020/01/31 13:09:13.2	17.490	-0.050	0.010	-0.660
2020/01/31 13:09:13.3	17.480	-0.030	0.020	-0.630
2020/01/31 13:09:13.4	17.480	-0.010	0.030	-0.600
2020/01/31 13:09:13.5	17.470	0.010	0.030	-0.570
2020/01/31 13:09:13.6	17.460	0.030	0.030	-0.530
2020/01/31 13:09:13.7	17.450	0.040	0.030	-0.500
2020/01/31 13:09:13.8	17.450	0.060	0.030	-0.460
2020/01/31 13:09:13.9	17.440	0.080	0.030	-0.430
2020/01/31 13:09:14.0	17.430	0.090	0.020	-0.390
2020/01/31 13:09:14.1	17.420	0.100	0.010	-0.350
2020/01/31 13:09:14.2	17.420	0.110	0.010	-0.320
2020/01/31 13:09:14.3	17.410	0.120	-0.000	-0.290
2020/01/31 13:09:14.4	17.400	0.130	-0.010	-0.260
2020/01/31 13:09:14.5	17.390	0.140	-0.030	-0.220
2020/01/31 13:09:14.6	17.390	0.150	-0.040	-0.200
2020/01/31 13:09:14.7	17.390	0.150	-0.060	-0.180
2020/01/31 13:09:14.8	17.390	0.160	-0.080	-0.160
2020/01/31 13:09:14.9	17.390	0.160	-0.100	-0.150
2020/01/31 13:09:15.0	17.400	0.160	-0.120	-0.150
2020/01/31 13:09:15.1	17.410	0.160	-0.140	-0.150
2020/01/31 13:09:15.2	17.420	0.170	-0.160	-0.150
2020/01/31 13:09:15.3	17.440	0.170	-0.190	-0.160
2020/01/31 13:09:15.4	17.460	0.170	-0.210	-0.180
2020/01/31 13:09:15.5	17.490	0.170	-0.240	-0.200
2020/01/31 13:09:15.6	17.520	0.160	-0.260	-0.220
2020/01/31 13:09:15.7	17.540	0.160	-0.290	-0.250
2020/01/31 13:09:15.8	17.570	0.160	-0.320	-0.270
2020/01/31 13:09:15.9	17.600	0.160	-0.340	-0.300
2020/01/31 13:09:16.0	17.620	0.150	-0.370	-0.330
2020/01/31 13:09:16.1	17.650	0.150	-0.390	-0.360
2020/01/31 13:09:16.2	17.680	0.150	-0.410	-0.400
2020/01/31 13:09:16.3	17.700	0.140	-0.430	-0.420
2020/01/31 13:09:16.4	17.730	0.140	-0.450	-0.450
2020/01/31 13:09:16.5	17.750	0.130	-0.470	-0.480
2020/01/31 13:09:16.6	17.770	0.120	-0.480	-0.500
2020/01/31 13:09:16.7	17.800	0.120	-0.490	-0.530
2020/01/31 13:09:16.8	17.820	0.110	-0.490	-0.550
2020/01/31 13:09:16.9	17.840	0.100	-0.490	-0.570
2020/01/31 13:09:17.0	17.860	0.090	-0.480	-0.580
2020/01/31 13:09:17.1	17.870	0.080	-0.480	-0.600
2020/01/31 13:09:17.2	17.890	0.070	-0.460	-0.610
2020/01/31 13:09:17.3	17.910	0.060	-0.450	-0.610
2020/01/31 13:09:17.4	17.920	0.050	-0.420	-0.610
2020/01/31 13:09:17.5	17.930	0.030	-0.400	-0.610
2020/01/31 13:09:17.6	17.940	0.020	-0.370	-0.610
2020/01/31 13:09:17.7	17.960	0.010	-0.340	-0.600
2020/01/31 13:09:17.8	17.970	-0.010	-0.300	-0.600
2020/01/31 13:09:17.9	17.980	-0.020	-0.260	-0.580
2020/01/31 13:09:18.0	17.990	-0.040	-0.220	-0.570
2020/01/31 13:09:18.1	18.000	-0.050	-0.170	-0.550
2020/01/31 13:09:18.2	18.000	-0.070	-0.120	-0.530
2020/01/31 13:09:18.3	18.010	-0.080	-0.080	-0.510
2020/01/31 13:09:18.4	18.020	-0.100	-0.030	-0.490
2020/01/31 13:09:18.5	18.010	-0.110	0.010	-0.460
2020/01/31 13:09:18.6	18.010	-0.130	0.060	-0.440
2020/01/31 13:09:18.7	18.010	-0.140	0.100	-0.410
2020/01/31 13:09:18.8	18.020	-0.150	0.140	-0.390
2020/01/31 13:09:18.9	18.020	-0.160	0.180	-0.360
2020/01/31 13:09:19.0	18.030	-0.170	0.210	-0.340
2020/01/31 13:09:19.1	18.030	-0.180	0.240	-0.310
2020/01/31 13:09:19.2	18.030	-0.190	0.260	-0.290
2020/01/31 13:09:19.3	18.030	-0.200	0.270	-0.260
2020/01/31 13:09:19.4	18.030	-0.200	0.280	-0.240
2020/01/31 13:09:19.5	18.050	-0.200	0.290	-0.220
2020/01/31 13:09:19.6	18.050	-0.200	0.280	-0.200
2020/01/31 13:09:19.7	18.050	-0.200	0.270	-0.180
2020/01/31 13:09:19.8	18.050	-0.190	0.260	-0.160
2020/01/31 13:09:19.9	18.050	-0.180	0.230	-0.140
2020/01/31 13:09:20.0	18.050	-0.170	0.200	-0.120
2020/01/31 13:09:20.1	18.050	-0.160	0.170	-0.110
2020/01/31 13:09:20.2	18.050	-0.150	0.130	-0.090
2020/01/31 13:09:20.3	18.050	-0.130	0.080	-0.080
2020/01/31 13:09:20.4	18.040	-0.110	0.030	-0.070
2020/01/31 13:09:20.5	18.040	-0.090	-0.020	-0.050
2020/01/31 13:09:20.6	18.040	-0.070	-0.080	-0.040
2020/01/31 13:09:20.7	18.030	-0.050	-0.130	-0.030
2020/01/31 13:09:20.8	18.030	-0.030	-0.190	-0.020
2020/01/31 13:09:20.9	18.020	-0.000	-0.250	-0.010
2020/01/31 13:09:21.0	18.020	0.020	-0.310	-0.010
2020/01/31 13:09:21.1	18.020	0.050	-0.370	0.000
2020/01/31 13:09:21.2	18.010	0.080	-0.430	0.000
2020/01/31 13:09:21.3	18.010	0.100	-0.490	0.010
2020/01/31 13:09:21.4	18.000	0.130	-0.540	0.010
2020/01/31 13:09:21.5	17.990	0.160	-0.590	0.000
2020/01/31 13:09:21.6	17.990	0.180	-0.630	0.000
2020/01/31 13:09:21.7	17.980	0.210	-0.670	-0.000
2020/01/31 13:09:21.8	17.980	0.230	-0.710	-0.010
2020/01/31 13:09:21.9	17.980	0.250	-0.740	-0.010
2020/01/31 13:09:22.0	17.980	0.270	-0.760	-0.020
2020/01/31 13:09:22.1	17.970	0.290	-0.780	-0.030
2020/01/31 13:09:22.2	17.980	0.310	-0.800	-0.050
2020/01/31 13:09:22.3	17.980	0.320	-0.810	-0.060
2020/01/31 13:09:22.4	17.980	0.340	-0.810	-0.070
2020/01/31 13:09:22.5	17.980	0.350	-0.810	-0.090
2020/01/31 13:09:22.6	17.980	0.350	-0.800	-0.100
2020/01/31 13:09:22.7	17.990	0.360	-0.780	-0.120
2020/01/31 13:09:22.8	17.990	0.360	-0.770	-0.140
2020/01/31 13:09:22.9	17.990	0.360	-0.740	-0.150
2020/01/31 13:09:23.0	18.000	0.360	-0.710	-0.170
2020/01/31 13:09:23.1	18.000	0.360	-0.680	-0.190
2020/01/31 13:09:23.2	18.000	0.350	-0.640	-0.210
2020/01/31 13:09:23.3	18.000	0.340	-0.600	-0.220
2020/01/31 13:09:23.4	18.000	0.330	-0.560	-0.240
2020/01/31 13:09:23.5	18.010	0.310	-0.510	-0.250
2020/01/31 13:09:23.6	18.000	0.300	-0.460	-0.260
2020/01/31 13:09:23.7	18.000	0.280	-0.400	-0.270
2020/01/31 13:09:23.8	17.990	0.260	-0.340	-0.280
2020/01/31 13:09:23.9	17.980	0.230	-0.280	-0.280
2020/01/31 13:09:24.0	17.970	0.210	-0.220	-0.280
2020/01/31 13:09:24.1	17.950	0.180	-0.160	-0.290
2020/01/31 13:09:24.2	17.930	0.150	-0.090	-0.290
2020/01/31 13:09:24.3	17.920	0.120	-0.030	-0.280
2020/01/31 13:09:24.4	17.890	0.090	0.030	-0.280
2020/01/31 13:09:24.5	17.890	0.060	0.100	-0.280
2020/01/31 13:09:24.6	17.860	0.030	0.160	-0.270
2020/01/31 13:09:24.7	17.840	-0.010	0.220	-0.270
2020/01/31 13:09:24.8	17.810	-0.040	0.280	-0.260
2020/01/31 13:09:24.9	17.780	-0.070	0.340	-0.260
2020/01/31 13:09:25.0	17.760	-0.110	0.390	-0.260
2020/01/31 13:09:25.1	17.730	-0.140	0.440	-0.250
2020/01/31 13:09:25.2	17.700	-0.170	0.480	-0.250
2020/01/31 13:09:25.3	17.670	-0.200	0.520	-0.250
2020/01/31 13:09:25.4	17.640	-0.230	0.560	-0.250
2020/01/31 13:09:25.5	17.620	-0.260	0.590	-0.260
2020/01/31 13:09:25.6	17.590	-0.280	0.610	-0.260
2020/01/31 13:09:25.7	17.560	-0.310	0.630	-0.270
2020/01/31 13:09:25.8	17.540	-0.330	0.640	-0.280
2020/01/31 13:09:25.9	17.510	-0.350	0.640	-0.290
2020/01/31 13:09:26.0	17.490	-0.370	0.640	-0.300
2020/01/31 13:09:26.1	17.460	-0.380	0.630	-0.310
2020/01/31 13:09:26.2	17.440	-0.390	0.610	-0.330
2020/01/31 13:09:26.3	17.420	-0.400	0.590	-0.340
2020/01/31 13:09:26.4	17.390	-0.410	0.560	-0.360
2020/01/31 13:09:26.5	17.380	-0.420	0.530	-0.370
2020/01/31 13:09:26.6	17.360	-0.420	0.490	-0.390
2020/01/31 13:09:26.7	17.330	-0.420	0.450	-0.400
2020/01/31 13:09:26.8	17.310	-0.420	0.400	-0.420
2020/01/31 13:09:26.9	17.280	-0.410	0.350	-0.430
2020/01/31 13:09:27.0	17.260	-0.410	0.300	-0.440
2020/01/31 13:09:27.1	17.230	-0.400	0.250	-0.460
2020/01/31 13:09:27.2	17.200	-0.390	0.190	-0.470
2020/01/31 13:09:27.3	17.170	-0.380	0.140	-0.480
2020/01/31 13:09:27.4	17.150	-0.360	0.080	-0.490
2020/01/31 13:09:27.5	17.120	-0.350	0.030	-0.500
2020/01/31 13:09:27.6	17.090	-0.330	-0.030	-0.510
2020/01/31 13:09:27.7	17.060	-0.310	-0.080	-0.520
2020/01/31 13:09:27.8	17.030	-0.290	-0.130	-0.530
2020/01/31 13:09:27.9	17.000	-0.270	-0.180	-0.540
2020/01/31 13:09:28.0	16.970	-0.250	-0.230	-0.550
2020/01/31 13:09:28.1	16.940	-0.230	-0.280	-0.560
2020/01/31 13:09:28.2	16.910	-0.210	-0.320	-0.570
2020/01/31 13:09:28.3	16.880	-0.180	-0.360	-0.580
2020/01/31 13:09:28.4	16.860	-0.160	-0.400	-0.590
2020/01/31 13:09:28.5	16.820	-0.130	-0.440	-0.600
2020/01/31 13:09:28.6	16.800	-0.110	-0.470	-0.620
2020/01/31 13:09:28.7	16.780	-0.080	-0.500	-0.630
2020/01/31 13:09:28.8	16.760	-0.060	-0.530	-0.650
2020/01/31 13:09:28.9	16.740	-0.030	-0.560	-0.670
2020/01/31 13:09:29.0	16.730	-0.010	-0.590	-0.690
2020/01/31 13:09:29.1	16.720	0.020	-0.610	-0.710
2020/01/31 13:09:29.2	16.710	0.040	-0.630	-0.730
2020/01/31 13:09:29.3	16.710	0.070	-0.650	-0.750
2020/01/31 13:09:29.4	16.710	0.090	-0.670	-0.770
2020/01/31 13:09:29.5	16.690	0.110	-0.690	-0.800
2020/01/31 13:09:29.6	16.690	0.130	-0.710	-0.820
2020/01/31 13:09:29.7	16.690	0.150	-0.720	-0.830
2020/01/31 13:09:29.8	16.690	0.170	-0.730	-0.850
2020/01/31 13:09:29.9	16.680	0.190	-0.740	-0.860
2020/01/31 13:09:30.0	16.680	0.200	-0.750	-0.870
2020/01/31 13:09:30.1	16.680	0.220	-0.750	-0.880
2020/01/31 13:09:30.2	16.670	0.230	-0.750	-0.880
2020/01/31 13:09:30.3	16.670	0.230	-0.750	-0.880
2020/01/31 13:09:30.4	16.660	0.240	-0.750	-0.880
2020/01/31 13:09:30.5	16.650	0.240	-0.740	-0.870
2020/01/31 13:09:30.6	16.630	0.250	-0.730	-0.860
2020/01/31 13:09:30.7	16.620	0.240	-0.720	-0.850
2020/01/31 13:09:30.8	16.600	0.240	-0.710	-0.840
2020/01/31 13:09:30.9	16.580	0.240	-0.690	-0.820
2020/01/31 13:09:31.0	16.560	0.230	-0.670	-0.810
2020/01/31 13:09:31.1	16.540	0.220	-0.650	-0.790
2020/01/31 13:09:31.2	16.510	0.200	-0.630	-0.770
2020/01/31 13:09:31.3	16.490	0.190	-0.600	-0.760
2020/01/31 13:09:31.4	16.460	0.170	-0.570	-0.740
2020/01/31 13:09:31.5	16.440	0.160	-0.550	-0.720
2020/01/31 13:09:31.6	16.420	0.140	-0.520	-0.700
2020/01/31 13:09:31.7	16.390	0.120	-0.490	-0.690
2020/01/31 13:09:31.8	16.360	0.100	-0.450	-0.670
2020/01/31 13:09:31.9	16.330	0.080	-0.420	-0.660
2020/01/31 13:09:32.0	16.300	0.050	-0.390	-0.650
2020/01/31 13:09:32.1	16.260	0.030	-0.350	-0.640
2020/01/31 13:09:32.2	16.230	0.010	-0.320	-0.630
2020/01/31 13:09:32.3	16.200	-0.010	-0.280	-0.610
2020/01/31 13:09:32.4	16.160	-0.030	-0.240	-0.600
2020/01/31 13:09:32.5	16.130	-0.050	-0.200	-0.580
2020/01/31 13:09:32.6	16.090	-0.070	-0.160	-0.570
2020/01/31 13:09:32.7	16.050	-0.090	-0.120	-0.540
2020/01/31 13:09:32.8	16.010	-0.100	-0.080	-0.520
2020/01/31 13:09:32.9	15.960	-0.120	-0.040	-0.490
2020/01/31 13:09:33.0	15.910	-0.130	0.010	-0.460
2020/01/31 13:09:33.1	15.860	-0.140	0.050	-0.420
2020/01/31 13:09:33.2	15.810	-0.150	0.100	-0.370
2020/01/31 13:09:33.3	15.760	-0.160	0.150	-0.330
2020/01/31 13:09:33.4	15.700	-0.160	0.190	-0.270
2020/01/31 13:09:33.5	15.630	-0.170	0.240	-0.220
2020/01/31 13:09:33.6	15.570	-0.170	0.290	-0.160
2020/01/31 13:09:33.7	15.500	-0.170	0.330	-0.090
2020/01/31 13:09:33.8	15.440	-0.170	0.380	-0.020
2020/01/31 13:09:33.9	15.370	-0.170	0.420	0.050
2020/01/31 13:09:34.0	15.300	-0.170	0.460	0.120
2020/01/31 13:09:34.1	15.230	-0.170	0.500	0.200
2020/01/31 13:09:34.2	15.150	-0.160	0.530	0.270
2020/01/31 13:09:34.3	15.080	-0.150	0.560	0.350
2020/01/31 13:09:34.4	15.010	-0.150	0.580	0.420
2020/01/31 13:09:34.5	14.940	-0.140	0.600	0.500
2020/01/31 13:09:34.6	14.870	-0.130	0.620	0.570
2020/01/31 13:09:34.7	14.800	-0.120	0.620	0.630
2020/01/31 13:09:34.8	14.730	-0.110	0.620	0.700
2020/01/31 13:09:34.9	14.660	-0.100	0.620	0.760
2020/01/31 13:09:35.0	14.600	-0.080	0.600	0.810
2020/01/31 13:09:35.1	14.530	-0.070	0.580	0.860
2020/01/31 13:09:35.2	14.480	-0.050	0.560	0.900
2020/01/31 13:09:35.3	14.420	-0.040	0.520	0.940
2020/01/31 13:09:35.4	14.370	-0.020	0.480	0.960
2020/01/31 13:09:35.5	14.330	-0.000	0.430	0.990
2020/01/31 13:09:35.6	14.290	0.020	0.370	1.000
2020/01/31 13:09:35.7	14.250	0.040	0.310	1.010
2020/01/31 13:09:35.8	14.220	0.060	0.240	1.010
2020/01/31 13:09:35.9	14.200	0.080	0.160	1.000
2020/01/31 13:09:36.0	14.180	0.110	0.080	0.990
2020/01/31 13:09:36.1	14.160	0.130	-0.010	0.970
2020/01/31 13:09:36.2	14.150	0.160	-0.100	0.950
2020/01/31 13:09:36.3	14.140	0.180	-0.190	0.920
2020/01/31 13:09:36.4	14.140	0.210	-0.290	0.880
2020/01/31 13:09:36.5	14.140	0.230	-0.380	0.840
2020/01/31 13:09:36.6	14.150	0.260	-0.480	0.800
2020/01/31 13:09:36.7	14.160	0.280	-0.570	0.750
2020/01/31 13:09:36.8	14.170	0.300	-0.670	0.700
2020/01/31 13:09:36.9	14.190	0.330	-0.760	0.650
2020/01/31 13:09:37.0	14.210	0.340	-0.840	0.590
2020/01/31 13:09:37.1	14.230	0.360	-0.920	0.540
2020/01/31 13:09:37.2	14.250	0.370	-0.990	0.480
2020/01/31 13:09:37.3	14.270	0.390	-1.050	0.430
2020/01/31 13:09:37.4	14.290	0.390	-1.110	0.370
2020/01/31 13:09:37.5	14.300	0.400	-1.160	0.330
2020/01/31 13:09:37.6	14.320	0.400	-1.190	0.280
2020/01/31 13:09:37.7	14.340	0.400	-1.220	0.230
2020/01/31 13:09:37.8	14.350	0.390	-1.230	0.180
2020/01/31 13:09:37.9	14.360	0.380	-1.230	0.140
2020/01/31 13:09:38.0	14.370	0.370	-1.220	0.110
2020/01/31 13:09:38.1	14.370	0.350	-1.200	0.070
2020/01/31 13:09:38.2	14.370	0.330	-1.170	0.050
2020/01/31 13:09:38.3	14.370	0.310	-1.120	0.020
2020/01/31 13:09:38.4	14.360	0.280	-1.070	0.000
2020/01/31 13:09:38.5	14.360	0.250	-1.000	-0.010
2020/01/31 13:09:38.6	14.350	0.220	-0.930	-0.020
2020/01/31 13:09:38.7	14.330	0.180	-0.850	-0.030
2020/01/31 13:09:38.8	14.310	0.140	-0.760	-0.030
2020/01/31 13:09:38.9	14.280	0.110	-0.660	-0.030
2020/01/31 13:09:39.0	14.250	0.070	-0.560	-0.020
2020/01/31 13:09:39.1	14.220	0.030	-0.460	-0.010
2020/01/31 13:09:39.2	14.190	-0.010	-0.350	0.000
2020/01/31 13:09:39.3	14.160	-0.050	-0.240	0.020
2020/01/31 13:09:39.4	14.130	-0.090	-0.140	0.040
2020/01/31 13:09:39.5	14.090	-0.130	-0.030	0.060
2020/01/31 13:09:39.6	14.060	-0.170	0.070	0.080
2020/01/31 13:09:39.7	14.020	-0.200	0.170	0.110
2020/01/31 13:09:39.8	13.990	-0.230	0.260	0.130
2020/01/31 13:09:39.9	13.960	-0.260	0.350	0.160
2020/01/31 13:09:40.0	13.930	-0.280	0.430	0.180
2020/01/31 13:09:40.1	13.890	-0.300	0.500	0.210
2020/01/31 13:09:40.2	13.870	-0.320	0.560	0.240
2020/01/31 13:09:40.3	13.840	-0.330	0.610	0.260
2020/01/31 13:09:40.4	13.810	-0.340	0.660	0.290
2020/01/31 13:09:40.5	13.780	-0.340	0.690	0.310
2020/01/31 13:09:40.6	13.760	-0.340	0.710	0.340
2020/01/31 13:09:40.7	13.730	-0.330	0.730	0.360
2020/01/31 13:09:40.8	13.710	-0.320	0.740	0.390
2020/01/31 13:09:40.9	13.690	-0.310	0.740	0.410
2020/01/31 13:09:41.0	13.660	-0.300	0.730	0.440
2020/01/31 13:09:41.1	13.640	-0.280	0.710	0.460
2020/01/31 13:09:41.2	13.620	-0.260	0.680	0.480
2020/01/31 13:09:41.3	13.600	-0.230	0.650	0.490
2020/01/31 13:09:41.4	13.580	-0.210	0.620	0.510
2020/01/31 13:09:41.5	13.570	-0.180	0.570	0.530
2020/01/31 13:09:41.6	13.550	-0.160	0.530	0.540
2020/01/31 13:09:41.7	13.530	-0.130	0.480	0.540
2020/01/31 13:09:41.8	13.510	-0.100	0.420	0.550
2020/01/31 13:09:41.9	13.490	-0.080	0.360	0.550
2020/01/31 13:09:42.0	13.470	-0.050	0.300	0.540
2020/01/31 13:09:42.1	13.450	-0.030	0.240	0.530
2020/01/31 13:09:42.2	13.440	-0.010	0.180	0.520
2020/01/31 13:09:42.3	13.420	0.010	0.120	0.500
2020/01/31 13:09:42.4	13.400	0.030	0.050	0.480
2020/01/31 13:09:42.5	13.370	0.040	-0.010	0.460
2020/01/31 13:09:42.6	13.360	0.050	-0.070	0.430
2020/01/31 13:09:42.7	13.350	0.060	-0.130	0.400
2020/01/31 13:09:42.8	13.340	0.070	-0.190	0.360
2020/01/31 13:09:42.9	13.340	0.070	-0.240	0.320
2020/01/31 13:09:43.0	13.330	0.070	-0.300	0.280
2020/01/31 13:09:43.1	13.330	0.060	-0.350	0.240
2020/01/31 13:09:43.2	13.320	0.050	-0.400	0.200
2020/01/31 13:09:43.3	13.320	0.040	-0.440	0.150
2020/01/31 13:09:43.4	13.330	0.030	-0.480	0.110
2020/01/31 13:09:43.5	13.340	0.010	-0.520	0.060
2020/01/31 13:09:43.6	13.340	-0.000	-0.560	0.010
2020/01/31 13:09:43.7	13.350	-0.020	-0.590	-0.040
2020/01/31 13:09:43.8	13.360	-0.040	-0.620	-0.090
2020/01/31 13:09:43.9	13.370	-0.060	-0.640	-0.130
2020/01/31 13:09:44.0	13.380	-0.090	-0.660	-0.180
2020/01/31 13:09:44.1	13.400	-0.110	-0.680	-0.230
2020/01/31 13:09:44.2	13.410	-0.130	-0.690	-0.280
2020/01/31 13:09:44.3	13.430	-0.160	-0.700	-0.320
2020/01/31 13:09:44.4	13.450	-0.180	-0.710	-0.370
2020/01/31 13:09:44.5	13.450	-0.200	-0.710	-0.410
2020/01/31 13:09:44.6	13.470	-0.220	-0.710	-0.460
2020/01/31 13:09:44.7	13.490	-0.240	-0.710	-0.510
2020/01/31 13:09:44.8	13.510	-0.260	-0.710	-0.550
2020/01/31 13:09:44.9	13.530	-0.280	-0.700	-0.600
2020/01/31 13:09:45.0	13.540	-0.290	-0.690	-0.640
2020/01/31 13:09:45.1	13.560	-0.300	-0.690	-0.690
2020/01/31 13:09:45.2	13.580	-0.310	-0.680	-0.730
2020/01/31 13:09:45.3	13.590	-0.320	-0.660	-0.770
2020/01/31 13:09:45.4	13.600	-0.320	-0.650	-0.810
2020/01/31 13:09:45.5	13.610	-0.320	-0.640	-0.850
2020/01/31 13:09:45.6	13.620	-0.320	-0.620	-0.880
2020/01/31 13:09:45.7	13.620	-0.310	-0.600	-0.920
2020/01/31 13:09:45.8	13.630	-0.300	-0.580	-0.940
2020/01/31 13:09:45.9	13.630	-0.290	-0.550	-0.970
2020/01/31 13:09:46.0	13.630	-0.270	-0.530	-0.990
2020/01/31 13:09:46.1	13.630	-0.260	-0.500	-1.010
2020/01/31 13:09:46.2	13.630	-0.240	-0.470	-1.020
2020/01/31 13:09:46.3	13.620	-0.210	-0.440	-1.030
2020/01/31 13:09:46.4	13.610	-0.190	-0.410	-1.040
2020/01/31 13:09:46.5	13.600	-0.160	-0.380	-1.030
2020/01/31 13:09:46.6	13.590	-0.130	-0.350	-1.030
2020/01/31 13:09:46.7	13.570	-0.100	-0.310	-1.020
2020/01/31 13:09:46.8	13.560	-0.070	-0.280	-1.010
2020/01/31 13:09:46.9	13.540	-0.030	-0.240	-1.000
2020/01/31 13:09:47.0	13.520	0.000	-0.200	-0.980
2020/01/31 13:09:47.1	13.500	0.040	-0.160	-0.950
2020/01/31 13:09:47.2	13.480	0.070	-0.130	-0.930
2020/01/31 13:09:47.3	13.450	0.110	-0.090	-0.890
2020/01/31 13:09:47.4	13.430	0.140	-0.050	-0.860
2020/01/31 13:09:47.5	13.400	0.170	-0.020	-0.820
2020/01/31 13:09:47.6	13.370	0.210	0.010	-0.770
2020/01/31 13:09:47.7	13.340	0.240	0.050	-0.730
2020/01/31 13:09:47.8	13.310	0.270	0.080	-0.680
2020/01/31 13:09:47.9	13.270	0.290	0.110	-0.630
2020/01/31 13:09:48.0	13.230	0.320	0.130	-0.580
2020/01/31 13:09:48.1	13.200	0.340	0.160	-0.530
2020/01/31 13:09:48.2	13.150	0.360	0.180	-0.480
2020/01/31 13:09:48.3	13.110	0.380	0.200	-0.430
2020/01/31 13:09:48.4	13.070	0.390	0.220	-0.380
2020/01/31 13:09:48.5	13.030	0.410	0.230	-0.320
2020/01/31 13:09:48.6	12.990	0.410	0.240	-0.280
2020/01/31 13:09:48.7	12.940	0.420	0.250	-0.230
2020/01/31 13:09:48.8	12.890	0.420	0.260	-0.190
2020/01/31 13:09:48.9	12.840	0.420	0.260	-0.150
2020/01/31 13:09:49.0	12.790	0.420	0.260	-0.110
2020/01/31 13:09:49.1	12.740	0.410	0.250	-0.080
2020/01/31 13:09:49.2	12.690	0.400	0.250	-0.050
2020/01/31 13:09:49.3	12.640	0.390	0.240	-0.030
2020/01/31 13:09:49.4	12.590	0.380	0.220	-0.000
2020/01/31 13:09:49.5	12.560	0.360	0.210	0.020
2020/01/31 13:09:49.6	12.510	0.350	0.190	0.030
2020/01/31 13:09:49.7	12.460	0.330	0.170	0.050
2020/01/31 13:09:49.8	12.420	0.300	0.150	0.060
2020/01/31 13:09:49.9	12.370	0.280	0.130	0.060
2020/01/31 13:09:50.0	12.330	0.260	0.100	0.070
2020/01/31 13:09:50.1	12.290	0.230	0.070	0.070
2020/01/31 13:09:50.2	12.250	0.210	0.040	0.070
2020/01/31 13:09:50.3	12.220	0.180	0.010	0.060
2020/01/31 13:09:50.4	12.180	0.160	-0.020	0.060
2020/01/31 13:09:50.5	12.160	0.130	-0.060	0.050
2020/01/31 13:09:50.6	12.130	0.110	-0.090	0.040
2020/01/31 13:09:50.7	12.110	0.080	-0.130	0.020
2020/01/31 13:09:50.8				
2020/01/31 13:09:50.9	12.090	0.060	-0.170	0.000
2020/01/31 13:09:51.0	12.060	0.010	-0.240	-0.040
2020/01/31 13:09:51.1	12.050	-0.010	-0.280	-0.070
2020/01/31 13:09:51.2	12.040	-0.030	-0.310	-0.100
2020/01/31 13:09:51.3	12.040	-0.040	-0.350	-0.130
2020/01/31 13:09:51.4	12.030	-0.060	-0.380	-0.160
2020/01/31 13:09:51.5	12.020	-0.070	-0.410	-0.200
2020/01/31 13:09:51.6	12.020	-0.090	-0.440	-0.240
2020/01/31 13:09:51.7	12.030	-0.100	-0.470	-0.280
2020/01/31 13:09:51.8	12.040	-0.110	-0.500	-0.320
2020/01/31 13:09:51.9	12.040	-0.120	-0.520	-0.370
2020/01/31 13:09:52.0	12.050	-0.130	-0.550	-0.410
2020/01/31 13:09:52.1	12.060	-0.130	-0.570	-0.460
2020/01/31 13:09:52.2	12.070	-0.140	-0.580	-0.510
2020/01/31 13:09:52.3	12.070	-0.140	-0.590	-0.550
2020/01/31 13:09:52.4	12.080	-0.140	-0.600	-0.600
2020/01/31 13:09:52.5	12.070	-0.150	-0.610	-0.640
2020/01/31 13:09:52.6	12.070	-0.150	-0.610	-0.680
2020/01/31 13:09:52.7	12.070	-0.150	-0.610	-0.720
2020/01/31 13:09:52.8	12.060	-0.150	-0.600	-0.760
2020/01/31 13:09:52.9	12.060	-0.150	-0.590	-0.790
2020/01/31 13:09:53.0	12.050	-0.140	-0.580	-0.820
2020/01/31 13:09:53.1	12.040	-0.140	-0.560	-0.860
2020/01/31 13:09:53.2	12.020	-0.140	-0.540	-0.880
2020/01/31 13:09:53.3	12.000	-0.140	-0.520	-0.910
2020/01/31 13:09:53.4	11.980	-0.130	-0.500	-0.930
2020/01/31 13:09:53.5	11.940	-0.130	-0.470	-0.950
2020/01/31 13:09:53.6	11.920	-0.130	-0.440	-0.970
2020/01/31 13:09:53.7	11.890	-0.120	-0.410	-0.990
2020/01/31 13:09:53.8	11.850	-0.120	-0.380	-1.000
2020/01/31 13:09:53.9	11.820	-0.120	-0.350	-1.010
2020/01/31 13:09:54.0	11.780	-0.110	-0.320	-1.010
2020/01/31 13:09:54.1	11.740	-0.110	-0.280	-1.010
2020/01/31 13:09:54.2	11.700	-0.110	-0.250	-1.010
2020/01/31 13:09:54.3	11.660	-0.100	-0.220	-1.010
2020/01/31 13:09:54.4	11.610	-0.100	-0.190	-1.010
2020/01/31 13:09:54.5	11.570	-0.100	-0.160	-1.000
2020/01/31 13:09:54.6	11.520	-0.100	-0.130	-0.990
2020/01/31 13:09:54.7	11.470	-0.100	-0.100	-0.980
2020/01/31 13:09:54.8	11.420	-0.100	-0.070	-0.960
2020/01/31 13:09:54.9	11.370	-0.100	-0.040	-0.940
2020/01/31 13:09:55.0	11.320	-0.100	-0.020	-0.930
2020/01/31 13:09:55.1	11.270	-0.090	0.010	-0.900
2020/01/31 13:09:55.2	11.210	-0.100	0.030	-0.880
2020/01/31 13:09:55.3	11.160	-0.100	0.050	-0.860
2020/01/31 13:09:55.4	11.100	-0.100	0.070	-0.830
2020/01/31 13:09:55.5	11.040	-0.100	0.090	-0.790
2020/01/31 13:09:55.6	10.980	-0.100	0.100	-0.760
2020/01/31 13:09:55.7	10.920	-0.100	0.120	-0.730
2020/01/31 13:09:55.8	10.860	-0.100	0.140	-0.690
2020/01/31 13:09:55.9	10.790	-0.110	0.150	-0.650
2020/01/31 13:09:56.0	10.730	-0.110	0.170	-0.600
2020/01/31 13:09:56.1	10.660	-0.110	0.180	-0.560
2020/01/31 13:09:56.2	10.600	-0.110	0.190	-0.510
2020/01/31 13:09:56.3	10.530	-0.120	0.210	-0.460
2020/01/31 13:09:56.4	10.450	-0.120	0.220	-0.410
2020/01/31 13:09:56.5	10.400	-0.130	0.230	-0.350
2020/01/31 13:09:56.6	10.330	-0.130	0.240	-0.290
2020/01/31 13:09:56.7	10.250	-0.140	0.250	-0.240
2020/01/31 13:09:56.8	10.180	-0.140	0.260	-0.180
2020/01/31 13:09:56.9	10.100	-0.150	0.260	-0.120
2020/01/31 13:09:57.0	10.030	-0.150	0.270	-0.060
2020/01/31 13:09:57.1	9.950	-0.160	0.270	-0.010
2020/01/31 13:09:57.2	9.880	-0.160	0.270	0.050
2020/01/31 13:09:57.3	9.810	-0.170	0.270	0.100
2020/01/31 13:09:57.4	9.730	-0.170	0.260	0.160
2020/01/31 13:09:57.5	9.670	-0.180	0.260	0.210
2020/01/31 13:09:57.6	9.600	-0.180	0.250	0.260
2020/01/31 13:09:57.7	9.540	-0.190	0.230	0.300
2020/01/31 13:09:57.8	9.480	-0.190	0.220	0.340
2020/01/31 13:09:57.9	9.420	-0.200	0.200	0.370
2020/01/31 13:09:58.0	9.360	-0.200	0.170	0.410
2020/01/31 13:09:58.1	9.300	-0.200	0.140	0.430
2020/01/31 13:09:58.2	9.250	-0.200	0.110	0.460
2020/01/31 13:09:58.3	9.210	-0.200	0.080	0.480
2020/01/31 13:09:58.4	9.170	-0.200	0.040	0.490
2020/01/31 13:09:58.5	9.150	-0.190	-0.010	0.500
2020/01/31 13:09:58.6	9.120	-0.190	-0.060	0.510
2020/01/31 13:09:58.7	9.090	-0.180	-0.110	0.510
2020/01/31 13:09:58.8	9.060	-0.180	-0.160	0.500
2020/01/31 13:09:58.9	9.030	-0.170	-0.210	0.500
2020/01/31 13:09:59.0	9.010	-0.160	-0.270	0.490
2020/01/31 13:09:59.1	8.990	-0.150	-0.320	0.480
2020/01/31 13:09:59.2	8.980	-0.140	-0.380	0.460
2020/01/31 13:09:59.3	8.960	-0.120	-0.430	0.450
2020/01/31 13:09:59.4	8.950	-0.110	-0.480	0.430
2020/01/31 13:09:59.5	8.940	-0.090	-0.530	0.420
2020/01/31 13:09:59.6	8.930	-0.080	-0.580	0.400
2020/01/31 13:09:59.7	8.920	-0.070	-0.630	0.380
2020/01/31 13:09:59.8	8.910	-0.050	-0.670	0.370
2020/01/31 13:09:59.9	8.900	-0.040	-0.710	0.350
2020/01/31 13:10:00.0	8.880	-0.020	-0.740	0.330
2020/01/31 13:10:00.1	8.870	-0.010	-0.760	0.320
2020/01/31 13:10:00.2	8.850	0.010	-0.780	0.300
2020/01/31 13:10:00.3	8.840	0.020	-0.800	0.290
2020/01/31 13:10:00.4	8.810	0.030	-0.810	0.280
2020/01/31 13:10:00.5	8.790	0.040	-0.810	0.270
2020/01/31 13:10:00.6	8.760	0.050	-0.810	0.260
2020/01/31 13:10:00.7	8.730	0.060	-0.800	0.260
2020/01/31 13:10:00.8	8.690	0.070	-0.790	0.260
2020/01/31 13:10:00.9	8.650	0.080	-0.770	0.260
2020/01/31 13:10:01.0	8.610	0.090	-0.740	0.270
2020/01/31 13:10:01.1	8.570	0.090	-0.710	0.280
2020/01/31 13:10:01.2	8.520	0.100	-0.670	0.290
2020/01/31 13:10:01.3	8.470	0.100	-0.630	0.310
2020/01/31 13:10:01.4	8.410	0.110	-0.590	0.320
2020/01/31 13:10:01.5	8.360	0.110	-0.550	0.350
2020/01/31 13:10:01.6	8.300	0.120	-0.500	0.370
2020/01/31 13:10:01.7	8.230	0.120	-0.450	0.400
2020/01/31 13:10:01.8	8.160	0.120	-0.400	0.430
2020/01/31 13:10:01.9	8.090	0.130	-0.350	0.460
2020/01/31 13:10:02.0	8.020	0.130	-0.300	0.500
2020/01/31 13:10:02.1	7.950	0.140	-0.240	0.530
2020/01/31 13:10:02.2	7.880	0.140	-0.200	0.560
2020/01/31 13:10:02.3	7.810	0.150	-0.150	0.600
2020/01/31 13:10:02.4	7.730	0.150	-0.100	0.630
2020/01/31 13:10:02.5	7.680	0.160	-0.060	0.670
2020/01/31 13:10:02.6	7.610	0.160	-0.030	0.700
2020/01/31 13:10:02.7	7.540	0.170	0.010	0.720
2020/01/31 13:10:02.8	7.470	0.180	0.040	0.750
2020/01/31 13:10:02.9	7.400	0.180	0.060	0.770
2020/01/31 13:10:03.0	7.340	0.190	0.080	0.790
2020/01/31 13:10:03.1	7.270	0.200	0.100	0.810
2020/01/31 13:10:03.2	7.210	0.210	0.110	0.820
2020/01/31 13:10:03.3	7.150	0.220	0.110	0.830
2020/01/31 13:10:03.4	7.090	0.230	0.110	0.830
2020/01/31 13:10:03.5	7.050	0.240	0.110	0.830
2020/01/31 13:10:03.6	7.000	0.250	0.100	0.830
2020/01/31 13:10:03.7	6.940	0.260	0.090	0.830
2020/01/31 13:10:03.8	6.890	0.270	0.070	0.820
2020/01/31 13:10:03.9	6.850	0.280	0.050	0.810
2020/01/31 13:10:04.0	6.800	0.290	0.030	0.790
2020/01/31 13:10:04.1	6.760	0.290	0.010	0.770
2020/01/31 13:10:04.2	6.730	0.300	-0.020	0.750
2020/01/31 13:10:04.3	6.690	0.300	-0.050	0.730
2020/01/31 13:10:04.4	6.660	0.310	-0.080	0.700
2020/01/31 13:10:04.5	6.620	0.310	-0.110	0.670
2020/01/31 13:10:04.6	6.600	0.310	-0.140	0.650
2020/01/31 13:10:04.7	6.580	0.310	-0.170	0.610
2020/01/31 13:10:04.8	6.560	0.310	-0.200	0.580
2020/01/31 13:10:04.9	6.540	0.300	-0.220	0.550
2020/01/31 13:10:05.0	6.530	0.290	-0.250	0.520
2020/01/31 13:10:05.1	6.510	0.280	-0.270	0.480
2020/01/31 13:10:05.2	6.500	0.270	-0.290	0.450
2020/01/31 13:10:05.3	6.490	0.260	-0.300	0.420
2020/01/31 13:10:05.4	6.490	0.240	-0.310	0.390
2020/01/31 13:10:05.5	6.470	0.220	-0.310	0.360
2020/01/31 13:10:05.6	6.470	0.200	-0.310	0.330
2020/01/31 13:10:05.7	6.460	0.180	-0.310	0.300
2020/01/31 13:10:05.8	6.450	0.160	-0.300	0.280
2020/01/31 13:10:05.9	6.450	0.130	-0.290	0.260
2020/01/31 13:10:06.0	6.440	0.110	-0.270	0.240
2020/01/31 13:10:06.1	6.440	0.080	-0.260	0.220
2020/01/31 13:10:06.2	6.430	0.050	-0.230	0.200
2020/01/31 13:10:06.3	6.420	0.020	-0.210	0.180
2020/01/31 13:10:06.4	6.420	-0.010	-0.180	0.170
2020/01/31 13:10:06.5	6.410	-0.040	-0.150	0.160
2020/01/31 13:10:06.6	6.400	-0.060	-0.120	0.140
2020/01/31 13:10:06.7	6.390	-0.090	-0.090	0.130
2020/01/31 13:10:06.8	6.390	-0.120	-0.060	0.120
2020/01/31 13:10:06.9	6.380	-0.150	-0.030	0.110
2020/01/31 13:10:07.0	6.380	-0.170	-0.000	0.100
2020/01/31 13:10:07.1	6.370	-0.200	0.020	0.090
2020/01/31 13:10:07.2	6.370	-0.220	0.050	0.080
2020/01/31 13:10:07.3	6.370	-0.240	0.070	0.080
2020/01/31 13:10:07.4	6.370	-0.260	0.080	0.070
2020/01/31 13:10:07.5	6.360	-0.270	0.090	0.060
2020/01/31 13:10:07.6	6.360	-0.280	0.100	0.050
2020/01/31 13:10:07.7	6.360	-0.300	0.100	0.050
2020/01/31 13:10:07.8	6.350	-0.300	0.100	0.040
2020/01/31 13:10:07.9	6.350	-0.310	0.100	0.040
2020/01/31 13:10:08.0	6.350	-0.310	0.090	0.040
2020/01/31 13:10:08.1	6.350	-0.310	0.080	0.040
2020/01/31 13:10:08.2	6.350	-0.310	0.070	0.040
2020/01/31 13:10:08.3	6.350	-0.300	0.050	0.040
2020/01/31 13:10:08.4	6.340	-0.300	0.030	0.050
2020/01/31 13:10:08.5	6.330	-0.290	0.010	0.060
2020/01/31 13:10:08.6	6.320	-0.280	-0.010	0.070
2020/01/31 13:10:08.7	6.310	-0.270	-0.030	0.080
2020/01/31 13:10:08.8	6.300	-0.250	-0.060	0.100
2020/01/31 13:10:08.9	6.290	-0.240	-0.080	0.120
2020/01/31 13:10:09.0	6.280	-0.220	-0.110	0.140
2020/01/31 13:10:09.1	6.260	-0.200	-0.130	0.160
2020/01/31 13:10:09.2	6.240	-0.180	-0.150	0.190
2020/01/31 13:10:09.3	6.220	-0.160	-0.170	0.210
2020/01/31 13:10:09.4	6.200	-0.150	-0.190	0.240
2020/01/31 13:10:09.5	6.170	-0.130	-0.200	0.280
2020/01/31 13:10:09.6				
2020/01/31 13:10:09.7	6.140	-0.110	-0.220	0.310
2020/01/31 13:10:09.8				
2020/01/31 13:10:09.9	6.090	-0.070	-0.240	0.380
2020/01/31 13:10:10.0	6.040	-0.030	-0.250	0.460
2020/01/31 13:10:10.1	6.020	-0.010	-0.250	0.500
2020/01/31 13:10:10.2	5.990	0.010	-0.250	0.540
2020/01/31 13:10:10.3	5.970	0.030	-0.240	0.570
2020/01/31 13:10:10.4	5.940	0.040	-0.240	0.610
2020/01/31 13:10:10.5	5.910	0.060	-0.240	0.650
2020/01/31 13:10:10.6	5.890	0.070	-0.230	0.690
2020/01/31 13:10:10.7	5.870	0.090	-0.220	0.720
2020/01/31 13:10:10.8	5.860	0.100	-0.220	0.760
2020/01/31 13:10:10.9	5.840	0.110	-0.210	0.790
2020/01/31 13:10:11.0	5.830	0.120	-0.200	0.820
2020/01/31 13:10:11.1	5.820	0.120	-0.200	0.850
2020/01/31 13:10:11.2	5.820	0.130	-0.190	0.870
2020/01/31 13:10:11.3	5.820	0.140	-0.190	0.900
2020/01/31 13:10:11.4	5.820	0.140	-0.180	0.920
2020/01/31 13:10:11.5	5.820	0.140	-0.190	0.940
2020/01/31 13:10:11.6	5.830	0.140	-0.190	0.950
2020/01/31 13:10:11.7	5.840	0.140	-0.190	0.970
2020/01/31 13:10:11.8	5.860	0.140	-0.190	0.980
2020/01/31 13:10:11.9	5.880	0.140	-0.190	0.990
2020/01/31 13:10:12.0	5.900	0.140	-0.200	1.000
2020/01/31 13:10:12.1	5.920	0.140	-0.200	1.010
2020/01/31 13:10:12.2	5.940	0.130	-0.210	1.010
2020/01/31 13:10:12.3	5.970	0.120	-0.220	1.020
2020/01/31 13:10:12.4	5.990	0.110	-0.220	1.020
2020/01/31 13:10:12.5	6.020	0.100	-0.220	1.020
2020/01/31 13:10:12.6	6.050	0.090	-0.230	1.020
2020/01/31 13:10:12.7	6.080	0.080	-0.230	1.020
2020/01/31 13:10:12.8	6.110	0.070	-0.230	1.020
2020/01/31 13:10:12.9	6.140	0.050	-0.230	1.020
2020/01/31 13:10:13.0	6.170	0.030	-0.230	1.010
2020/01/31 13:10:13.1	6.200	0.020	-0.220	1.000
2020/01/31 13:10:13.2	6.220	-0.000	-0.210	1.000
2020/01/31 13:10:13.3	6.250	-0.020	-0.200	0.990
2020/01/31 13:10:13.4	6.280	-0.040	-0.190	0.980
2020/01/31 13:10:13.5	6.310	-0.060	-0.180	0.960
2020/01/31 13:10:13.6	6.330	-0.090	-0.160	0.950
2020/01/31 13:10:13.7	6.350	-0.110	-0.140	0.930
2020/01/31 13:10:13.8	6.370	-0.130	-0.120	0.920
2020/01/31 13:10:13.9	6.390	-0.150	-0.090	0.900
2020/01/31 13:10:14.0				
2020/01/31 13:10:14.1	6.410	-0.170	-0.070	0.880
2020/01/31 13:10:14.2	6.440	-0.210	-0.020	0.840
2020/01/31 13:10:14.3	6.450	-0.230	0.000	0.810
2020/01/31 13:10:14.4	6.460	-0.250	0.030	0.790
2020/01/31 13:10:14.5	6.490	-0.270	0.050	0.760
2020/01/31 13:10:14.6	6.500	-0.290	0.070	0.730
2020/01/31 13:10:14.7	6.500	-0.300	0.090	0.700
2020/01/31 13:10:14.8	6.510	-0.320	0.110	0.670
2020/01/31 13:10:14.9	6.510	-0.330	0.120	0.640
2020/01/31 13:10:15.0	6.520	-0.340	0.130	0.610
2020/01/31 13:10:15.1	6.520	-0.340	0.140	0.580
2020/01/31 13:10:15.2	6.520	-0.350	0.140	0.540
2020/01/31 13:10:15.3	6.520	-0.350	0.130	0.510
2020/01/31 13:10:15.4	6.520	-0.350	0.130	0.470
2020/01/31 13:10:15.5	6.520	-0.350	0.110	0.440
2020/01/31 13:10:15.6	6.520	-0.340	0.100	0.400
2020/01/31 13:10:15.7	6.520	-0.330	0.080	0.360
2020/01/31 13:10:15.8	6.520	-0.320	0.050	0.320
2020/01/31 13:10:15.9	6.520	-0.300	0.020	0.280
2020/01/31 13:10:16.0	6.520	-0.290	-0.020	0.240
2020/01/31 13:10:16.1				
2020/01/31 13:10:16.2	6.510	-0.270	-0.050	0.200
2020/01/31 13:10:16.3	6.510	-0.220	-0.140	0.110
2020/01/31 13:10:16.4	6.510	-0.190	-0.190	0.070
2020/01/31 13:10:16.5	6.510	-0.160	-0.240	0.020
2020/01/31 13:10:16.6	6.510	-0.120	-0.290	-0.020
2020/01/31 13:10:16.7	6.510	-0.090	-0.340	-0.060
2020/01/31 13:10:16.8	6.510	-0.050	-0.390	-0.110
2020/01/31 13:10:16.9	6.510	-0.010	-0.440	-0.150
2020/01/31 13:10:17.0	6.510	0.030	-0.490	-0.190
2020/01/31 13:10:17.1	6.510	0.070	-0.540	-0.230
2020/01/31 13:10:17.2	6.510	0.110	-0.580	-0.280
2020/01/31 13:10:17.3	6.510	0.160	-0.630	-0.320
2020/01/31 13:10:17.4	6.520	0.200	-0.670	-0.360
2020/01/31 13:10:17.5	6.520	0.240	-0.710	-0.400
2020/01/31 13:10:17.6	6.530	0.280	-0.740	-0.450
2020/01/31 13:10:17.7	6.540	0.320	-0.770	-0.490
2020/01/31 13:10:17.8	6.550	0.360	-0.790	-0.530
2020/01/31 13:10:17.9	6.560	0.390	-0.810	-0.580
2020/01/31 13:10:18.0	6.570	0.420	-0.820	-0.620
2020/01/31 13:10:18.1	6.590	0.450	-0.830	-0.660
2020/01/31 13:10:18.2				
2020/01/31 13:10:18.3	6.600	0.480	-0.840	-0.700
2020/01/31 13:10:18.4	6.640	0.530	-0.830	-0.780
2020/01/31 13:10:18.5	6.680	0.540	-0.810	-0.820
2020/01/31 13:10:18.6	6.700	0.560	-0.800	-0.850
2020/01/31 13:10:18.7	6.720	0.560	-0.770	-0.880
2020/01/31 13:10:18.8	6.740	0.570	-0.750	-0.920
2020/01/31 13:10:18.9	6.750	0.570	-0.710	-0.950
2020/01/31 13:10:19.0	6.770	0.560	-0.680	-0.970
2020/01/31 13:10:19.1	6.790	0.560	-0.640	-1.000
2020/01/31 13:10:19.2	6.810	0.540	-0.590	-1.020
2020/01/31 13:10:19.3	6.820	0.530	-0.540	-1.040
2020/01/31 13:10:19.4	6.840	0.510	-0.490	-1.060
2020/01/31 13:10:19.5	6.850	0.480	-0.440	-1.070
2020/01/31 13:10:19.6	6.870	0.450	-0.380	-1.080
2020/01/31 13:10:19.7	6.880	0.420	-0.330	-1.090
2020/01/31 13:10:19.8	6.890	0.390	-0.270	-1.100
2020/01/31 13:10:19.9	6.900	0.350	-0.210	-1.110
2020/01/31 13:10:20.0	6.910	0.310	-0.150	-1.110
2020/01/31 13:10:20.1	6.910	0.270	-0.100	-1.120
2020/01/31 13:10:20.2	6.920	0.220	-0.040	-1.120
2020/01/31 13:10:20.3	6.920	0.180	0.010	-1.120
2020/01/31 13:10:20.4	6.920	0.130	0.060	-1.120
2020/01/31 13:10:20.5	6.920	0.090	0.100	-1.120
2020/01/31 13:10:20.6	6.910	0.040	0.150	-1.110
2020/01/31 13:10:20.7	6.910	-0.010	0.190	-1.110
2020/01/31 13:10:20.8	6.900	-0.050	0.220	-1.100
2020/01/31 13:10:20.9	6.900	-0.090	0.250	-1.100
2020/01/31 13:10:21.0	6.890	-0.140	0.270	-1.090
2020/01/31 13:10:21.1	6.880	-0.180	0.290	-1.080
2020/01/31 13:10:21.2	6.860	-0.210	0.310	-1.070
2020/01/31 13:10:21.3	6.850	-0.250	0.320	-1.060
2020/01/31 13:10:21.4	6.840	-0.280	0.330	-1.050
2020/01/31 13:10:21.5	6.830	-0.310	0.330	-1.040
2020/01/31 13:10:21.6	6.810	-0.330	0.320	-1.030
2020/01/31 13:10:21.7	6.790	-0.360	0.320	-1.010
2020/01/31 13:10:21.8	6.780	-0.370	0.300	-0.990
2020/01/31 13:10:21.9	6.760	-0.390	0.290	-0.980
2020/01/31 13:10:22.0	6.740	-0.400	0.270	-0.960
2020/01/31 13:10:22.1	6.730	-0.410	0.250	-0.940
2020/01/31 13:10:22.2	6.710	-0.410	0.220	-0.920
2020/01/31 13:10:22.3	6.700	-0.410	0.200	-0.900
2020/01/31 13:10:22.4				
2020/01/31 13:10:22.5	6.680	-0.410	0.170	-0.880
2020/01/31 13:10:22.6	6.650	-0.390	0.110	-0.830
2020/01/31 13:10:22.7	6.640	-0.380	0.090	-0.810
2020/01/31 13:10:22.8	6.630	-0.370	0.060	-0.790
2020/01/31 13:10:22.9	6.620	-0.350	0.040	-0.760
2020/01/31 13:10:23.0	6.610	-0.330	0.010	-0.740
2020/01/31 13:10:23.1	6.600	-0.310	-0.010	-0.720
2020/01/31 13:10:23.2	6.590	-0.290	-0.020	-0.700
2020/01/31 13:10:23.3	6.580	-0.270	-0.040	-0.680
2020/01/31 13:10:23.4	6.570	-0.250	-0.050	-0.660
2020/01/31 13:10:23.5	6.550	-0.240	-0.060	-0.640
2020/01/31 13:10:23.6	6.540	-0.220	-0.070	-0.630
2020/01/31 13:10:23.7	6.530	-0.200	-0.070	-0.610
2020/01/31 13:10:23.8	6.520	-0.180	-0.070	-0.590
2020/01/31 13:10:23.9	6.510	-0.170	-0.070	-0.580
2020/01/31 13:10:24.0	6.500	-0.150	-0.060	-0.560
2020/01/31 13:10:24.1	6.490	-0.140	-0.050	-0.550
2020/01/31 13:10:24.2	6.480	-0.130	-0.050	-0.540
2020/01/31 13:10:24.3	6.460	-0.120	-0.030	-0.520
2020/01/31 13:10:24.4	6.450	-0.110	-0.020	-0.510
2020/01/31 13:10:24.5				
2020/01/31 13:10:24.6	6.430	-0.100	-0.010	-0.490
2020/01/31 13:10:24.7	6.390	-0.100	0.020	-0.470
2020/01/31 13:10:24.8	6.370	-0.100	0.030	-0.450
2020/01/31 13:10:24.9	6.350	-0.100	0.050	-0.430
2020/01/31 13:10:25.0	6.330	-0.100	0.060	-0.420
2020/01/31 13:10:25.1	6.300	-0.110	0.080	-0.400
2020/01/31 13:10:25.2	6.280	-0.110	0.090	-0.370
2020/01/31 13:10:25.3	6.250	-0.120	0.100	-0.350
2020/01/31 13:10:25.4	6.210	-0.130	0.120	-0.320
2020/01/31 13:10:25.5	6.170	-0.130	0.130	-0.300
2020/01/31 13:10:25.6	6.130	-0.140	0.140	-0.260
2020/01/31 13:10:25.7	6.090	-0.150	0.150	-0.230
2020/01/31 13:10:25.8	6.040	-0.160	0.150	-0.190
2020/01/31 13:10:25.9	5.990	-0.170	0.150	-0.160
2020/01/31 13:10:26.0	5.940	-0.180	0.150	-0.110
2020/01/31 13:10:26.1	5.890	-0.190	0.150	-0.070
2020/01/31 13:10:26.2	5.830	-0.200	0.150	-0.030
2020/01/31 13:10:26.3	5.780	-0.210	0.150	0.020
2020/01/31 13:10:26.4	5.710	-0.220	0.140	0.060
2020/01/31 13:10:26.5	5.650	-0.220	0.120	0.110
2020/01/31 13:10:26.6				
2020/01/31 13:10:26.7	5.580	-0.230	0.110	0.150
2020/01/31 13:10:26.8	5.440	-0.230	0.080	0.240
2020/01/31 13:10:26.9	5.370	-0.220	0.060	0.290
2020/01/31 13:10:27.0	5.300	-0.220	0.030	0.330
2020/01/31 13:10:27.1	5.230	-0.210	0.000	0.370
2020/01/31 13:10:27.2	5.150	-0.200	-0.030	0.410
2020/01/31 13:10:27.3	5.080	-0.180	-0.060	0.450
2020/01/31 13:10:27.4	5.010	-0.160	-0.100	0.490
2020/01/31 13:10:27.5	4.930	-0.140	-0.130	0.520
2020/01/31 13:10:27.6	4.860	-0.120	-0.170	0.560
2020/01/31 13:10:27.7	4.800	-0.090	-0.220	0.590
2020/01/31 13:10:27.8	4.730	-0.050	-0.260	0.620
2020/01/31 13:10:27.9	4.670	-0.020	-0.310	0.640
2020/01/31 13:10:28.0	4.610	0.020	-0.370	0.660
2020/01/31 13:10:28.1	4.560	0.060	-0.420	0.680
2020/01/31 13:10:28.2	4.510	0.100	-0.480	0.690
2020/01/31 13:10:28.3	4.460	0.140	-0.530	0.700
2020/01/31 13:10:28.4	4.420	0.190	-0.590	0.710
2020/01/31 13:10:28.5	4.400	0.230	-0.650	0.710
2020/01/31 13:10:28.6	4.370	0.280	-0.710	0.700
2020/01/31 13:10:28.7				
2020/01/31 13:10:28.8	4.340	0.320	-0.770	0.690
2020/01/31 13:10:28.9	4.300	0.400	-0.890	0.660
2020/01/31 13:10:29.0	4.290	0.440	-0.950	0.630
2020/01/31 13:10:29.1	4.290	0.480	-1.000	0.600
2020/01/31 13:10:29.2	4.280	0.510	-1.060	0.560
2020/01/31 13:10:29.3	4.280	0.540	-1.100	0.520
2020/01/31 13:10:29.4	4.290	0.560	-1.150	0.470
2020/01/31 13:10:29.5	4.290	0.580	-1.190	0.420
2020/01/31 13:10:29.6	4.300	0.590	-1.220	0.370
2020/01/31 13:10:29.7	4.310	0.600	-1.240	0.310
2020/01/31 13:10:29.8	4.320	0.600	-1.260	0.250
2020/01/31 13:10:29.9	4.330	0.600	-1.280	0.190
2020/01/31 13:10:30.0	4.340	0.590	-1.280	0.120
2020/01/31 13:10:30.1	4.360	0.570	-1.280	0.050
2020/01/31 13:10:30.2	4.370	0.550	-1.270	-0.020
2020/01/31 13:10:30.3	4.380	0.520	-1.260	-0.090
2020/01/31 13:10:30.4	4.390	0.490	-1.230	-0.160
2020/01/31 13:10:30.5	4.410	0.450	-1.200	-0.230
2020/01/31 13:10:30.6	4.420	0.410	-1.160	-0.300
2020/01/31 13:10:30.7	4.420	0.360	-1.120	-0.380
2020/01/31 13:10:30.8				
2020/01/31 13:10:30.9	4.420	0.310	-1.060	-0.450
2020/01/31 13:10:31.0	4.400	0.200	-0.930	-0.580
2020/01/31 13:10:31.1	4.390	0.140	-0.860	-0.650
2020/01/31 13:10:31.2	4.370	0.080	-0.780	-0.710
2020/01/31 13:10:31.3	4.350	0.010	-0.690	-0.760
2020/01/31 13:10:31.4	4.320	-0.050	-0.590	-0.820
2020/01/31 13:10:31.5	4.310	-0.110	-0.500	-0.870
2020/01/31 13:10:31.6	4.270	-0.180	-0.390	-0.910
2020/01/31 13:10:31.7	4.230	-0.240	-0.290	-0.960
2020/01/31 13:10:31.8	4.190	-0.300	-0.180	-0.990
2020/01/31 13:10:31.9	4.140	-0.360	-0.070	-1.020
2020/01/31 13:10:32.0	4.080	-0.420	0.050	-1.050
2020/01/31 13:10:32.1	4.030	-0.470	0.160	-1.070
2020/01/31 13:10:32.2	3.960	-0.520	0.270	-1.090
2020/01/31 13:10:32.3	3.900	-0.560	0.370	-1.100
2020/01/31 13:10:32.4	3.830	-0.600	0.480	-1.100
2020/01/31 13:10:32.5	3.760	-0.640	0.570	-1.100
2020/01/31 13:10:32.6	3.690	-0.670	0.670	-1.100
2020/01/31 13:10:32.7	3.610	-0.690	0.750	-1.090
2020/01/31 13:10:32.8	3.540	-0.710	0.830	-1.080
2020/01/31 13:10:32.9				
2020/01/31 13:10:33.0	3.460	-0.720	0.900	-1.070
2020/01/31 13:10:33.1	3.300	-0.730	1.020	-1.030
2020/01/31 13:10:33.2	3.220	-0.730	1.060	-1.010
2020/01/31 13:10:33.3	3.130	-0.720	1.100	-0.980
2020/01/31 13:10:33.4	3.050	-0.700	1.120	-0.950
2020/01/31 13:10:33.5	2.970	-0.680	1.130	-0.930
2020/01/31 13:10:33.6	2.890	-0.650	1.140	-0.890
2020/01/31 13:10:33.7	2.810	-0.620	1.130	-0.860
2020/01/31 13:10:33.8	2.730	-0.580	1.110	-0.820
2020/01/31 13:10:33.9	2.650	-0.540	1.080	-0.780
2020/01/31 13:10:34.0	2.570	-0.490	1.050	-0.740
2020/01/31 13:10:34.1	2.500	-0.440	1.000	-0.690
2020/01/31 13:10:34.2	2.430	-0.390	0.950	-0.640
2020/01/31 13:10:34.3	2.350	-0.330	0.890	-0.590
2020/01/31 13:10:34.4	2.280	-0.270	0.820	-0.540
2020/01/31 13:10:34.5	2.210	-0.210	0.750	-0.480
2020/01/31 13:10:34.6	2.140	-0.140	0.670	-0.420
2020/01/31 13:10:34.7	2.070	-0.080	0.590	-0.360
2020/01/31 13:10:34.8	2.010	-0.010	0.510	-0.300
2020/01/31 13:10:34.9	1.950	0.050	0.420	-0.240
2020/01/31 13:10:35.0				
2020/01/31 13:10:35.1	1.880	0.120	0.330	-0.180
2020/01/31 13:10:35.2	1.770	0.240	0.160	-0.050
2020/01/31 13:10:35.3	1.710	0.310	0.080	0.020
2020/01/31 13:10:35.4	1.650	0.370	-0.010	0.090
2020/01/31 13:10:35.5	1.600	0.420	-0.080	0.160
2020/01/31 13:10:35.6	1.550	0.480	-0.160	0.230
2020/01/31 13:10:35.7	1.500	0.530	-0.230	0.300
2020/01/31 13:10:35.8	1.450	0.570	-0.290	0.370
2020/01/31 13:10:35.9	1.410	0.610	-0.350	0.450
2020/01/31 13:10:36.0	1.360	0.650	-0.410	0.520
2020/01/31 13:10:36.1	1.320	0.680	-0.460	0.590
2020/01/31 13:10:36.2	1.280	0.710	-0.500	0.660
2020/01/31 13:10:36.3	1.240	0.730	-0.540	0.740
2020/01/31 13:10:36.4	1.210	0.750	-0.570	0.800
2020/01/31 13:10:36.5	1.180	0.760	-0.600	0.870
2020/01/31 13:10:36.6	1.150	0.770	-0.630	0.940
2020/01/31 13:10:36.7	1.130	0.770	-0.650	1.000
2020/01/31 13:10:36.8	1.110	0.770	-0.670	1.050
2020/01/31 13:10:36.9	1.090	0.760	-0.690	1.100
2020/01/31 13:10:37.0	1.070	0.740	-0.700	1.150
2020/01/31 13:10:37.1	1.060	0.720	-0.710	1.200
2020/01/31 13:10:37.2	1.060	0.700	-0.720	1.230
2020/01/31 13:10:37.3	1.060	0.670	-0.730	1.270
2020/01/31 13:10:37.4	1.060	0.630	-0.730	1.300
2020/01/31 13:10:37.5	1.080	0.590	-0.740	1.330
2020/01/31 13:10:37.6	1.080	0.550	-0.740	1.350
2020/01/31 13:10:37.7	1.090	0.510	-0.740	1.360
2020/01/31 13:10:37.8	1.110	0.460	-0.750	1.370
2020/01/31 13:10:37.9	1.120	0.410	-0.750	1.380
2020/01/31 13:10:38.0	1.140	0.360	-0.750	1.390
2020/01/31 13:10:38.1	1.150	0.300	-0.750	1.390
2020/01/31 13:10:38.2	1.170	0.250	-0.740	1.390
2020/01/31 13:10:38.3	1.190	0.190	-0.740	1.380
2020/01/31 13:10:38.4	1.220	0.130	-0.730	1.380
2020/01/31 13:10:38.5	1.230	0.070	-0.730	1.370
2020/01/31 13:10:38.6	1.250	0.010	-0.720	1.350
2020/01/31 13:10:38.7	1.270	-0.050	-0.700	1.340
2020/01/31 13:10:38.8	1.300	-0.100	-0.690	1.320
2020/01/31 13:10:38.9	1.320	-0.160	-0.670	1.300
2020/01/31 13:10:39.0	1.340	-0.210	-0.650	1.280
2020/01/31 13:10:39.1	1.360	-0.270	-0.630	1.260
2020/01/31 13:10:39.2				
2020/01/31 13:10:39.3	1.390	-0.320	-0.600	1.230
2020/01/31 13:10:39.4	1.420	-0.410	-0.540	1.180
2020/01/31 13:10:39.5	1.440	-0.450	-0.500	1.150
2020/01/31 13:10:39.6	1.460	-0.490	-0.460	1.120
2020/01/31 13:10:39.7	1.470	-0.520	-0.420	1.090
2020/01/31 13:10:39.8	1.480	-0.550	-0.380	1.060
2020/01/31 13:10:39.9	1.490	-0.570	-0.330	1.030
2020/01/31 13:10:40.0	1.490	-0.590	-0.280	1.000
2020/01/31 13:10:40.1	1.500	-0.610	-0.230	0.970
2020/01/31 13:10:40.2	1.500	-0.620	-0.180	0.950
2020/01/31 13:10:40.3	1.500	-0.620	-0.120	0.920
2020/01/31 13:10:40.4	1.490	-0.620	-0.070	0.900
2020/01/31 13:10:40.5	1.480	-0.610	-0.020	0.880
2020/01/31 13:10:40.6	1.470	-0.600	0.040	0.870
2020/01/31 13:10:40.7	1.460	-0.580	0.090	0.850
2020/01/31 13:10:40.8	1.450	-0.560	0.140	0.840
2020/01/31 13:10:40.9	1.430	-0.530	0.190	0.830
2020/01/31 13:10:41.0	1.420	-0.500	0.240	0.820
2020/01/31 13:10:41.1	1.400	-0.460	0.290	0.820
2020/01/31 13:10:41.2	1.380	-0.430	0.330	0.820
2020/01/31 13:10:41.3				
2020/01/31 13:10:41.4	1.360	-0.380	0.360	0.820
2020/01/31 13:10:41.5	1.320	-0.290	0.410	0.830
2020/01/31 13:10:41.6	1.290	-0.240	0.430	0.840
2020/01/31 13:10:41.7	1.270	-0.190	0.450	0.850
2020/01/31 13:10:41.8	1.250	-0.140	0.460	0.870
2020/01/31 13:10:41.9	1.220	-0.090	0.460	0.880
2020/01/31 13:10:42.0	1.200	-0.040	0.450	0.900
2020/01/31 13:10:42.1	1.170	0.010	0.440	0.910
2020/01/31 13:10:42.2	1.150	0.060	0.420	0.930
2020/01/31 13:10:42.3	1.120	0.100	0.400	0.940
2020/01/31 13:10:42.4	1.100	0.150	0.370	0.950
2020/01/31 13:10:42.5	1.080	0.190	0.330	0.960
2020/01/31 13:10:42.6	1.060	0.230	0.290	0.970
2020/01/31 13:10:42.7	1.040	0.260	0.250	0.970
2020/01/31 13:10:42.8	1.020	0.290	0.200	0.970
2020/01/31 13:10:42.9	1.000	0.320	0.150	0.970
2020/01/31 13:10:43.0	0.990	0.340	0.090	0.950
2020/01/31 13:10:43.1	0.970	0.360	0.030	0.940
2020/01/31 13:10:43.2	0.960	0.370	-0.030	0.920
2020/01/31 13:10:43.3	0.950	0.380	-0.090	0.890
2020/01/31 13:10:43.4				
2020/01/31 13:10:43.5	0.950	0.380	-0.160	0.860
2020/01/31 13:10:43.6	0.950	0.370	-0.280	0.780
2020/01/31 13:10:43.7	0.950	0.360	-0.340	0.730
2020/01/31 13:10:43.8	0.950	0.350	-0.400	0.680
2020/01/31 13:10:43.9	0.960	0.330	-0.450	0.620
2020/01/31 13:10:44.0	0.970	0.310	-0.510	0.570
2020/01/31 13:10:44.1	0.980	0.290	-0.550	0.500
2020/01/31 13:10:44.2	1.000	0.260	-0.590	0.440
2020/01/31 13:10:44.3	1.020	0.240	-0.630	0.380
2020/01/31 13:10:44.4	1.040	0.210	-0.660	0.310
2020/01/31 13:10:44.5	1.060	0.170	-0.690	0.240
2020/01/31 13:10:44.6	1.090	0.140	-0.710	0.170
2020/01/31 13:10:44.7	1.120	0.110	-0.720	0.100
2020/01/31 13:10:44.8	1.150	0.070	-0.730	0.040
2020/01/31 13:10:44.9	1.180	0.040	-0.730	-0.030
2020/01/31 13:10:45.0	1.220	0.000	-0.720	-0.100
2020/01/31 13:10:45.1	1.260	-0.030	-0.710	-0.170
2020/01/31 13:10:45.2	1.300	-0.060	-0.690	-0.230
2020/01/31 13:10:45.3	1.340	-0.090	-0.670	-0.300
2020/01/31 13:10:45.4	1.380	-0.120	-0.640	-0.360
2020/01/31 13:10:45.5				
2020/01/31 13:10:45.6	1.420	-0.150	-0.610	-0.420
2020/01/31 13:10:45.7	1.510	-0.200	-0.530	-0.530
2020/01/31 13:10:45.8	1.560	-0.210	-0.490	-0.590
2020/01/31 13:10:45.9	1.610	-0.230	-0.440	-0.640
2020/01/31 13:10:46.0	1.660	-0.240	-0.400	-0.690
2020/01/31 13:10:46.1	1.710	-0.250	-0.350	-0.740
2020/01/31 13:10:46.2	1.760	-0.260	-0.300	-0.780
2020/01/31 13:10:46.3	1.820	-0.260	-0.260	-0.820
2020/01/31 13:10:46.4	1.870	-0.260	-0.210	-0.860
2020/01/31 13:10:46.5	1.940	-0.250	-0.170	-0.900
2020/01/31 13:10:46.6	1.990	-0.250	-0.130	-0.930
2020/01/31 13:10:46.7	2.050	-0.230	-0.100	-0.960
2020/01/31 13:10:46.8	2.110	-0.220	-0.060	-0.980
2020/01/31 13:10:46.9	2.170	-0.200	-0.030	-1.010
2020/01/31 13:10:47.0	2.230	-0.180	-0.010	-1.030
2020/01/31 13:10:47.1	2.290	-0.150	0.010	-1.040
2020/01/31 13:10:47.2	2.350	-0.120	0.030	-1.050
2020/01/31 13:10:47.3	2.420	-0.090	0.040	-1.060
2020/01/31 13:10:47.4	2.480	-0.060	0.050	-1.060
2020/01/31 13:10:47.5	2.530	-0.030	0.050	-1.060
2020/01/31 13:10:47.6				
2020/01/31 13:10:47.7	2.590	0.010	0.050	-1.050
2020/01/31 13:10:47.8	2.710	0.090	0.040	-1.020
2020/01/31 13:10:47.9	2.770	0.130	0.020	-1.000
2020/01/31 13:10:48.0	2.820	0.160	0.010	-0.980
2020/01/31 13:10:48.1	2.880	0.200	-0.010	-0.950
2020/01/31 13:10:48.2	2.930	0.240	-0.020	-0.910
2020/01/31 13:10:48.3	2.980	0.270	-0.040	-0.870
2020/01/31 13:10:48.4	3.030	0.310	-0.070	-0.830
2020/01/31 13:10:48.5	3.070	0.340	-0.090	-0.770
2020/01/31 13:10:48.6	3.120	0.370	-0.110	-0.720
2020/01/31 13:10:48.7	3.160	0.400	-0.130	-0.670
2020/01/31 13:10:48.8	3.200	0.420	-0.160	-0.610
2020/01/31 13:10:48.9	3.240	0.440	-0.180	-0.550
2020/01/31 13:10:49.0	3.280	0.450	-0.200	-0.490
2020/01/31 13:10:49.1	3.310	0.460	-0.220	-0.430
2020/01/31 13:10:49.2	3.350	0.470	-0.240	-0.360
2020/01/31 13:10:49.3	3.390	0.470	-0.250	-0.300
2020/01/31 13:10:49.4	3.420	0.470	-0.270	-0.230
2020/01/31 13:10:49.5	3.450	0.470	-0.280	-0.160
2020/01/31 13:10:49.6	3.490	0.460	-0.290	-0.100
2020/01/31 13:10:49.7				
2020/01/31 13:10:49.8	3.520	0.440	-0.300	-0.040
2020/01/31 13:10:49.9	3.590	0.400	-0.310	0.070
2020/01/31 13:10:50.0	3.630	0.380	-0.310	0.130
2020/01/31 13:10:50.1	3.660	0.350	-0.310	0.180
2020/01/31 13:10:50.2	3.700	0.320	-0.300	0.220
2020/01/31 13:10:50.3	3.730	0.280	-0.290	0.270
2020/01/31 13:10:50.4	3.770	0.240	-0.280	0.310
2020/01/31 13:10:50.5	3.820	0.200	-0.270	0.350
2020/01/31 13:10:50.6	3.860	0.160	-0.250	0.390
2020/01/31 13:10:50.7	3.900	0.120	-0.240	0.420
2020/01/31 13:10:50.8	3.940	0.070	-0.210	0.450
2020/01/31 13:10:50.9	3.980	0.030	-0.190	0.470
2020/01/31 13:10:51.0	4.020	-0.020	-0.170	0.500
2020/01/31 13:10:51.1	4.070	-0.070	-0.140	0.520
2020/01/31 13:10:51.2	4.110	-0.110	-0.110	0.540
2020/01/31 13:10:51.3	4.160	-0.150	-0.080	0.560
2020/01/31 13:10:51.4	4.210	-0.200	-0.050	0.570
2020/01/31 13:10:51.5	4.240	-0.240	-0.020	0.590
2020/01/31 13:10:51.6	4.290	-0.280	0.010	0.600
2020/01/31 13:10:51.7	4.340	-0.310	0.050	0.610
2020/01/31 13:10:51.8				
2020/01/31 13:10:51.9	4.380	-0.350	0.080	0.620
2020/01/31 13:10:52.0	4.480	-0.410	0.140	0.630
2020/01/31 13:10:52.1	4.530	-0.430	0.170	0.640
2020/01/31 13:10:52.2	4.580	-0.450	0.190	0.640
2020/01/31 13:10:52.3	4.640	-0.470	0.220	0.640
2020/01/31 13:10:52.4	4.690	-0.490	0.240	0.640
2020/01/31 13:10:52.5	4.720	-0.500	0.250	0.640
2020/01/31 13:10:52.6	4.780	-0.510	0.270	0.640
2020/01/31 13:10:52.7	4.830	-0.510	0.280	0.630
2020/01/31 13:10:52.8	4.890	-0.510	0.280	0.630
2020/01/31 13:10:52.9	4.950	-0.510	0.290	0.620
2020/01/31 13:10:53.0	5.000	-0.500	0.290	0.610
2020/01/31 13:10:53.1	5.060	-0.490	0.280	0.600
2020/01/31 13:10:53.2	5.120	-0.480	0.270	0.590
2020/01/31 13:10:53.3	5.180	-0.470	0.260	0.570
2020/01/31 13:10:53.4	5.240	-0.450	0.240	0.560
2020/01/31 13:10:53.5	5.290	-0.430	0.220	0.540
2020/01/31 13:10:53.6	5.350	-0.400	0.190	0.530
2020/01/31 13:10:53.7	5.410	-0.380	0.160	0.510
2020/01/31 13:10:53.8	5.470	-0.350	0.130	0.500
2020/01/31 13:10:53.9				
2020/01/31 13:10:54.0	5.530	-0.320	0.100	0.480
2020/01/31 13:10:54.1	5.640	-0.260	0.020	0.450
2020/01/31 13:10:54.2	5.700	-0.230	-0.020	0.440
2020/01/31 13:10:54.3	5.760	-0.190	-0.060	0.430
2020/01/31 13:10:54.4	5.820	-0.160	-0.100	0.410
2020/01/31 13:10:54.5	5.860	-0.120	-0.140	0.400
2020/01/31 13:10:54.6	5.920	-0.080	-0.180	0.390
2020/01/31 13:10:54.7	5.970	-0.050	-0.220	0.380
2020/01/31 13:10:54.8	6.030	-0.010	-0.260	0.370
2020/01/31 13:10:54.9				
2020/01/31 13:10:55.0	6.080	0.020	-0.300	0.370
2020/01/31 13:10:55.1	6.190	0.090	-0.370	0.360
2020/01/31 13:10:55.2	6.240	0.120	-0.410	0.360
2020/01/31 13:10:55.3	6.300	0.150	-0.440	0.350
2020/01/31 13:10:55.4	6.350	0.180	-0.460	0.350
2020/01/31 13:10:55.5	6.400	0.210	-0.490	0.350
2020/01/31 13:10:55.6	6.450	0.240	-0.510	0.350
2020/01/31 13:10:55.7	6.510	0.260	-0.530	0.350
2020/01/31 13:10:55.8	6.560	0.280	-0.550	0.350
2020/01/31 13:10:55.9	6.620	0.300	-0.560	0.340
2020/01/31 13:10:56.0				
2020/01/31 13:10:56.1	6.670	0.320	-0.570	0.340
2020/01/31 13:10:56.2	6.780	0.350	-0.580	0.330
2020/01/31 13:10:56.3	6.830	0.370	-0.580	0.330
2020/01/31 13:10:56.4	6.890	0.380	-0.580	0.330
2020/01/31 13:10:56.5	6.950	0.390	-0.580	0.320
2020/01/31 13:10:56.6	7.000	0.390	-0.570	0.320
2020/01/31 13:10:56.7	7.060	0.400	-0.560	0.310
2020/01/31 13:10:56.8	7.110	0.400	-0.550	0.300
2020/01/31 13:10:56.9	7.160	0.400	-0.530	0.290
2020/01/31 13:10:57.0	7.210	0.400	-0.510	0.280
2020/01/31 13:10:57.1	7.250	0.400	-0.490	0.270
2020/01/31 13:10:57.2	7.300	0.400	-0.470	0.260
2020/01/31 13:10:57.3	7.340	0.390	-0.440	0.250
2020/01/31 13:10:57.4	7.390	0.390	-0.410	0.240
2020/01/31 13:10:57.5	7.430	0.380	-0.380	0.230
2020/01/31 13:10:57.6	7.470	0.370	-0.350	0.220
2020/01/31 13:10:57.7	7.510	0.360	-0.320	0.200
2020/01/31 13:10:57.8	7.550	0.340	-0.290	0.180
2020/01/31 13:10:57.9	7.580	0.330	-0.260	0.160
2020/01/31 13:10:58.0	7.620	0.320	-0.230	0.130
2020/01/31 13:10:58.1				
2020/01/31 13:10:58.2	7.650	0.300	-0.200	0.110
2020/01/31 13:10:58.3	7.730	0.270	-0.140	0.040
2020/01/31 13:10:58.4	7.760	0.250	-0.110	0.000
2020/01/31 13:10:58.5	7.800	0.230	-0.090	-0.040
2020/01/31 13:10:58.6	7.840	0.210	-0.070	-0.090
2020/01/31 13:10:58.7	7.880	0.190	-0.050	-0.140
2020/01/31 13:10:58.8	7.920	0.170	-0.040	-0.190
2020/01/31 13:10:58.9	7.960	0.140	-0.020	-0.240
2020/01/31 13:10:59.0	8.000	0.120	-0.010	-0.300
2020/01/31 13:10:59.1	8.040	0.100	-0.000	-0.360
2020/01/31 13:10:59.2	8.080	0.070	0.000	-0.420
2020/01/31 13:10:59.3	8.120	0.050	0.010	-0.480
2020/01/31 13:10:59.4	8.160	0.020	0.010	-0.550
2020/01/31 13:10:59.5	8.210	-0.000	0.010	-0.610
2020/01/31 13:10:59.6	8.250	-0.030	0.000	-0.680
2020/01/31 13:10:59.7	8.290	-0.060	-0.000	-0.750
2020/01/31 13:10:59.8	8.330	-0.080	-0.010	-0.820
2020/01/31 13:10:59.9	8.380	-0.110	-0.020	-0.890
2020/01/31 13:11:00.0	8.420	-0.140	-0.040	-0.970
2020/01/31 13:11:00.1	8.470	-0.170	-0.050	-1.050
2020/01/31 13:11:00.2				
2020/01/31 13:11:00.3	8.510	-0.190	-0.070	-1.120
2020/01/31 13:11:00.4	8.610	-0.250	-0.100	-1.280
2020/01/31 13:11:00.5	8.650	-0.270	-0.120	-1.370
2020/01/31 13:11:00.6				
2020/01/31 13:11:00.7	8.700	-0.300	-0.140	-1.450
2020/01/31 13:11:00.8	8.750	-0.320	-0.160	-1.530
2020/01/31 13:11:00.9	8.800	-0.340	-0.180	-1.610
2020/01/31 13:11:01.0	8.890	-0.380	-0.210	-1.780
2020/01/31 13:11:01.1	8.940	-0.400	-0.230	-1.860
2020/01/31 13:11:01.2	8.980	-0.420	-0.250	-1.930
2020/01/31 13:11:01.3	9.030	-0.430	-0.260	-2.000
2020/01/31 13:11:01.4	9.070	-0.440	-0.270	-2.070
2020/01/31 13:11:01.5	9.110	-0.450	-0.290	-2.140
2020/01/31 13:11:01.6	9.150	-0.460	-0.290	-2.200
2020/01/31 13:11:01.7	9.180	-0.470	-0.300	-2.260
2020/01/31 13:11:01.8	9.220	-0.470	-0.300	-2.310
2020/01/31 13:11:01.9	9.250	-0.470	-0.300	-2.350
2020/01/31 13:11:02.0	9.280	-0.460	-0.300	-2.380
2020/01/31 13:11:02.1	9.300	-0.460	-0.290	-2.410
2020/01/31 13:11:02.2	9.320	-0.450	-0.280	-2.430
2020/01/31 13:11:02.3				
2020/01/31 13:11:02.4	9.340	-0.440	-0.270	-2.450
2020/01/31 13:11:02.5				
2020/01/31 13:11:02.6	9.360	-0.400	-0.250	-2.450
2020/01/31 13:11:02.7	9.370	-0.380	-0.230	-2.440
2020/01/31 13:11:02.8	9.380	-0.360	-0.210	-2.430
2020/01/31 13:11:02.9	9.390	-0.330	-0.190	-2.400
2020/01/31 13:11:03.0	9.400	-0.300	-0.160	-2.370
2020/01/31 13:11:03.1	9.400	-0.230	-0.120	-2.300
2020/01/31 13:11:03.2	9.400	-0.200	-0.090	-2.250
2020/01/31 13:11:03.3	9.400	-0.160	-0.070	-2.190
2020/01/31 13:11:03.4	9.400	-0.120	-0.050	-2.140
2020/01/31 13:11:03.5	9.400	-0.070	-0.030	-2.070
2020/01/31 13:11:03.6	9.400	-0.030	-0.010	-2.000
2020/01/31 13:11:03.7	9.400	0.020	0.010	-1.930
2020/01/31 13:11:03.8	9.400	0.060	0.020	-1.850
2020/01/31 13:11:03.9	9.400	0.110	0.030	-1.780
2020/01/31 13:11:04.0	9.400	0.160	0.040	-1.700
2020/01/31 13:11:04.1	9.400	0.200	0.040	-1.610
2020/01/31 13:11:04.2	9.400	0.250	0.050	-1.530
2020/01/31 13:11:04.3	9.400	0.290	0.050	-1.440
2020/01/31 13:11:04.4				
2020/01/31 13:11:04.5	9.400	0.340	0.050	-1.350
2020/01/31 13:11:04.6				
2020/01/31 13:11:04.7	9.400	0.410	0.030	-1.170
2020/01/31 13:11:04.8	9.400	0.450	0.020	-1.080
2020/01/31 13:11:04.9	9.400	0.480	0.010	-0.990
2020/01/31 13:11:05.0				
2020/01/31 13:11:05.1	9.390	0.530	-0.000	-0.810
2020/01/31 13:11:05.2	9.390	0.550	-0.010	-0.710
2020/01/31 13:11:05.3	9.380	0.570	-0.030	-0.620
2020/01/31 13:11:05.4	9.380	0.570	-0.040	-0.530
2020/01/31 13:11:05.5	9.370	0.580	-0.050	-0.450
2020/01/31 13:11:05.6	9.360	0.580	-0.060	-0.350
2020/01/31 13:11:05.7	9.360	0.570	-0.070	-0.270
2020/01/31 13:11:05.8	9.350	0.560	-0.080	-0.190
2020/01/31 13:11:05.9	9.340	0.550	-0.090	-0.110
2020/01/31 13:11:06.0	9.340	0.530	-0.100	-0.030
2020/01/31 13:11:06.1	9.330	0.500	-0.110	0.040
2020/01/31 13:11:06.2	9.330	0.480	-0.120	0.110
2020/01/31 13:11:06.3	9.330	0.440	-0.130	0.170
2020/01/31 13:11:06.4				
2020/01/31 13:11:06.5	9.320	0.360	-0.140	0.280
2020/01/31 13:11:06.6	9.320	0.320	-0.150	0.330
2020/01/31 13:11:06.7	9.320	0.270	-0.170	0.370
2020/01/31 13:11:06.8	9.320	0.220	-0.180	0.400
2020/01/31 13:11:06.9	9.320	0.170	-0.190	0.430
2020/01/31 13:11:07.0	9.320	0.120	-0.200	0.460
2020/01/31 13:11:07.1	9.330	0.060	-0.220	0.470
2020/01/31 13:11:07.2	9.340	-0.050	-0.250	0.490
2020/01/31 13:11:07.3	9.350	-0.100	-0.270	0.490
2020/01/31 13:11:07.4	9.350	-0.160	-0.290	0.480
2020/01/31 13:11:07.5				
2020/01/31 13:11:07.6	9.360	-0.210	-0.300	0.470
2020/01/31 13:11:07.7	9.370	-0.260	-0.320	0.450
2020/01/31 13:11:07.8	9.380	-0.310	-0.340	0.430
2020/01/31 13:11:07.9	9.390	-0.350	-0.360	0.410
2020/01/31 13:11:08.0	9.400	-0.400	-0.370	0.380
2020/01/31 13:11:08.1	9.410	-0.440	-0.390	0.350
2020/01/31 13:11:08.2	9.420	-0.470	-0.410	0.310
2020/01/31 13:11:08.3	9.440	-0.530	-0.440	0.240
2020/01/31 13:11:08.4	9.450	-0.560	-0.450	0.210
2020/01/31 13:11:08.5	9.470	-0.580	-0.460	0.170
2020/01/31 13:11:08.6				
2020/01/31 13:11:08.7	9.480	-0.590	-0.470	0.130
2020/01/31 13:11:08.8				
2020/01/31 13:11:08.9	9.500	-0.610	-0.480	0.060
2020/01/31 13:11:09.0	9.500	-0.610	-0.480	0.030
2020/01/31 13:11:09.1	9.510	-0.610	-0.480	-0.000
2020/01/31 13:11:09.2	9.510	-0.600	-0.480	-0.030
2020/01/31 13:11:09.3	9.500	-0.580	-0.470	-0.080
2020/01/31 13:11:09.4	9.500	-0.560	-0.450	-0.100
2020/01/31 13:11:09.5	9.480	-0.540	-0.440	-0.120
2020/01/31 13:11:09.6				
2020/01/31 13:11:09.7	9.470	-0.520	-0.420	-0.140
2020/01/31 13:11:09.8	9.460	-0.490	-0.400	-0.150
2020/01/31 13:11:09.9	9.440	-0.460	-0.370	-0.150
2020/01/31 13:11:10.0	9.420	-0.430	-0.350	-0.160
2020/01/31 13:11:10.1	9.400	-0.400	-0.310	-0.160
2020/01/31 13:11:10.2	9.380	-0.370	-0.280	-0.160
2020/01/31 13:11:10.3				
2020/01/31 13:11:10.4	9.320	-0.300	-0.210	-0.140
2020/01/31 13:11:10.5	9.290	-0.260	-0.170	-0.130
2020/01/31 13:11:10.6	9.220	-0.180	-0.100	-0.090
2020/01/31 13:11:10.7				
2020/01/31 13:11:10.8	9.190	-0.140	-0.060	-0.070
2020/01/31 13:11:10.9	9.150	-0.110	-0.030	-0.050
2020/01/31 13:11:11.0	9.110	-0.070	0.010	-0.020
2020/01/31 13:11:11.1	9.070	-0.030	0.040	0.000
2020/01/31 13:11:11.2	9.030	0.010	0.080	0.030
2020/01/31 13:11:11.3	9.000	0.040	0.110	0.060
2020/01/31 13:11:11.4	8.960	0.080	0.130	0.090
2020/01/31 13:11:11.5	8.920	0.110	0.160	0.120
2020/01/31 13:11:11.6	8.850	0.170	0.190	0.170
2020/01/31 13:11:11.7	8.810	0.200	0.200	0.200
2020/01/31 13:11:11.8				
2020/01/31 13:11:11.9	8.780	0.230	0.210	0.230
2020/01/31 13:11:12.0	8.750	0.250	0.210	0.250
2020/01/31 13:11:12.1	8.720	0.280	0.210	0.280
2020/01/31 13:11:12.2	8.700	0.300	0.200	0.300
2020/01/31 13:11:12.3	8.670	0.320	0.190	0.310
2020/01/31 13:11:12.4				
2020/01/31 13:11:12.5	8.630	0.360	0.160	0.340
2020/01/31 13:11:12.6	8.600	0.370	0.130	0.350
2020/01/31 13:11:12.7	8.560	0.400	0.080	0.370
2020/01/31 13:11:12.8				
2020/01/31 13:11:12.9	8.550	0.410	0.040	0.370
2020/01/31 13:11:13.0	8.530	0.410	0.010	0.370
2020/01/31 13:11:13.1	8.520	0.420	-0.030	0.370
2020/01/31 13:11:13.2	8.510	0.420	-0.070	0.360
2020/01/31 13:11:13.3	8.490	0.430	-0.150	0.340
2020/01/31 13:11:13.4	8.480	0.420	-0.190	0.330
2020/01/31 13:11:13.5				
2020/01/31 13:11:13.6	8.470	0.420	-0.230	0.320
2020/01/31 13:11:13.7	8.460	0.410	-0.260	0.310
2020/01/31 13:11:13.8	8.460	0.410	-0.300	0.290
2020/01/31 13:11:13.9	8.450	0.390	-0.360	0.260
2020/01/31 13:11:14.0	8.440	0.380	-0.390	0.250
2020/01/31 13:11:14.1	8.440	0.360	-0.420	0.230
2020/01/31 13:11:14.2	8.440	0.350	-0.440	0.210
2020/01/31 13:11:14.3	8.430	0.330	-0.460	0.190
2020/01/31 13:11:14.4	8.430	0.310	-0.470	0.170
2020/01/31 13:11:14.5	8.430	0.300	-0.480	0.160
2020/01/31 13:11:14.6	8.420	0.280	-0.490	0.140
2020/01/31 13:11:14.7	8.430	0.260	-0.500	0.120
2020/01/31 13:11:14.8	8.430	0.240	-0.500	0.090
2020/01/31 13:11:14.9				
2020/01/31 13:11:15.0	8.430	0.210	-0.500	0.070
2020/01/31 13:11:15.1	8.430	0.170	-0.500	0.030
2020/01/31 13:11:15.2	8.430	0.150	-0.490	0.010
2020/01/31 13:11:15.3	8.430	0.130	-0.480	-0.010
2020/01/31 13:11:15.4	8.430	0.100	-0.470	-0.030
2020/01/31 13:11:15.5				
2020/01/31 13:11:15.6	8.430	0.080	-0.460	-0.050
2020/01/31 13:11:15.7	8.430	0.060	-0.450	-0.070
2020/01/31 13:11:15.8	8.430	0.040	-0.430	-0.080
2020/01/31 13:11:15.9	8.430	0.000	-0.410	-0.110
2020/01/31 13:11:16.0	8.430	-0.020	-0.390	-0.120
2020/01/31 13:11:16.1	8.430	-0.030	-0.380	-0.140
2020/01/31 13:11:16.2	8.430	-0.050	-0.370	-0.150
2020/01/31 13:11:16.3	8.430	-0.060	-0.350	-0.160
2020/01/31 13:11:16.4	8.430	-0.070	-0.340	-0.170
2020/01/31 13:11:16.5	8.440	-0.080	-0.330	-0.180
2020/01/31 13:11:16.6	8.440	-0.090	-0.320	-0.190
2020/01/31 13:11:16.7	8.450	-0.100	-0.310	-0.190
2020/01/31 13:11:16.8	8.450	-0.110	-0.300	-0.200
2020/01/31 13:11:16.9	8.460	-0.110	-0.290	-0.200
2020/01/31 13:11:17.0				
2020/01/31 13:11:17.1	8.460	-0.110	-0.280	-0.210
2020/01/31 13:11:17.2	8.480	-0.110	-0.260	-0.210
2020/01/31 13:11:17.3	8.480	-0.100	-0.260	-0.210
2020/01/31 13:11:17.4	8.500	-0.100	-0.250	-0.210
2020/01/31 13:11:17.5	8.510	-0.090	-0.240	-0.210
2020/01/31 13:11:17.6	8.520	-0.080	-0.240	-0.210
2020/01/31 13:11:17.7	8.530	-0.070	-0.230	-0.200
2020/01/31 13:11:17.8	8.550	-0.060	-0.220	-0.200
2020/01/31 13:11:17.9	8.560	-0.050	-0.220	-0.190
2020/01/31 13:11:18.0	8.580	-0.040	-0.210	-0.170
2020/01/31 13:11:18.1	8.590	-0.030	-0.200	-0.160
2020/01/31 13:11:18.2	8.610	-0.010	-0.190	-0.140
2020/01/31 13:11:18.3	8.620	-0.000	-0.180	-0.120
2020/01/31 13:11:18.4	8.640	0.010	-0.160	-0.100
2020/01/31 13:11:18.5				
2020/01/31 13:11:18.6	8.650	0.020	-0.150	-0.070
2020/01/31 13:11:18.7	8.670	0.030	-0.130	-0.040
2020/01/31 13:11:18.8	8.680	0.040	-0.110	-0.010
2020/01/31 13:11:18.9	8.710	0.050	-0.070	0.060
2020/01/31 13:11:19.0	8.730	0.050	-0.040	0.090
2020/01/31 13:11:19.1				
2020/01/31 13:11:19.2	8.750	0.060	-0.020	0.130
2020/01/31 13:11:19.3	8.780	0.050	0.030	0.200
2020/01/31 13:11:19.4	8.800	0.050	0.060	0.240
2020/01/31 13:11:19.5				
2020/01/31 13:11:19.6	8.830	0.050	0.080	0.280
2020/01/31 13:11:19.7	8.850	0.040	0.110	0.320
2020/01/31 13:11:19.8	8.870	0.030	0.130	0.360
2020/01/31 13:11:19.9	8.890	0.020	0.160	0.390
2020/01/31 13:11:20.0	8.910	0.010	0.180	0.430
2020/01/31 13:11:20.1	8.930	-0.010	0.200	0.460
2020/01/31 13:11:20.2	8.950	-0.020	0.220	0.500
2020/01/31 13:11:20.3	8.970	-0.040	0.240	0.530
2020/01/31 13:11:20.4	8.990	-0.060	0.260	0.570
2020/01/31 13:11:20.5	9.020	-0.080	0.270	0.600
2020/01/31 13:11:20.6	9.040	-0.100	0.280	0.630
2020/01/31 13:11:20.7	9.090	-0.130	0.300	0.690
2020/01/31 13:11:20.8	9.110	-0.150	0.300	0.710
2020/01/31 13:11:20.9	9.130	-0.170	0.310	0.740
2020/01/31 13:11:21.0	9.150	-0.190	0.310	0.760
2020/01/31 13:11:21.1	9.170	-0.210	0.300	0.780
2020/01/31 13:11:21.2				
2020/01/31 13:11:21.3	9.190	-0.230	0.300	0.800
2020/01/31 13:11:21.4	9.230	-0.260	0.280	0.840
2020/01/31 13:11:21.5				
2020/01/31 13:11:21.6	9.240	-0.270	0.260	0.850
2020/01/31 13:11:21.7	9.260	-0.280	0.240	0.870
2020/01/31 13:11:21.8	9.280	-0.300	0.230	0.880
2020/01/31 13:11:21.9	9.300	-0.300	0.210	0.880
2020/01/31 13:11:22.0	9.340	-0.320	0.160	0.890
2020/01/31 13:11:22.1	9.360	-0.320	0.130	0.890
2020/01/31 13:11:22.2	9.370	-0.320	0.100	0.890
2020/01/31 13:11:22.3	9.390	-0.320	0.070	0.890
2020/01/31 13:11:22.4	9.410	-0.310	0.040	0.880
2020/01/31 13:11:22.5				
2020/01/31 13:11:22.6	9.440	-0.310	0.000	0.870
2020/01/31 13:11:22.7	9.460	-0.300	-0.030	0.860
2020/01/31 13:11:22.8	9.480	-0.290	-0.070	0.840
2020/01/31 13:11:22.9	9.500	-0.270	-0.110	0.830
2020/01/31 13:11:23.0	9.530	-0.260	-0.150	0.810
2020/01/31 13:11:23.1	9.550	-0.240	-0.190	0.780
2020/01/31 13:11:23.2	9.580	-0.220	-0.230	0.760
2020/01/31 13:11:23.3	9.600	-0.200	-0.270	0.730
2020/01/31 13:11:23.4	9.630	-0.170	-0.310	0.700
2020/01/31 13:11:23.5	9.660	-0.140	-0.350	0.670
2020/01/31 13:11:23.6	9.720	-0.080	-0.430	0.600
2020/01/31 13:11:23.7	9.750	-0.050	-0.470	0.560
2020/01/31 13:11:23.8	9.780	-0.010	-0.510	0.530
2020/01/31 13:11:23.9	9.820	0.020	-0.550	0.490
2020/01/31 13:11:24.0	9.860	0.060	-0.590	0.450
2020/01/31 13:11:24.1	9.900	0.090	-0.620	0.410
2020/01/31 13:11:24.2	9.930	0.130	-0.650	0.370
2020/01/31 13:11:24.3	9.970	0.170	-0.690	0.330
2020/01/31 13:11:24.4	10.020	0.210	-0.710	0.290
2020/01/31 13:11:24.5				
2020/01/31 13:11:24.6	10.040	0.250	-0.740	0.250
2020/01/31 13:11:24.7	10.080	0.280	-0.760	0.210
2020/01/31 13:11:24.8	10.120	0.320	-0.780	0.170
2020/01/31 13:11:24.9	10.160	0.350	-0.800	0.140
2020/01/31 13:11:25.0	10.200	0.390	-0.810	0.100
2020/01/31 13:11:25.1	10.250	0.420	-0.820	0.060
2020/01/31 13:11:25.2	10.290	0.450	-0.830	0.030
2020/01/31 13:11:25.3	10.330	0.470	-0.830	-0.000
2020/01/31 13:11:25.4	10.370	0.500	-0.830	-0.040
2020/01/31 13:11:25.5	10.410	0.520	-0.820	-0.070
2020/01/31 13:11:25.6	10.470	0.550	-0.800	-0.140
2020/01/31 13:11:25.7	10.510	0.560	-0.780	-0.170
2020/01/31 13:11:25.8	10.540	0.570	-0.760	-0.200
2020/01/31 13:11:25.9	10.580	0.570	-0.730	-0.240
2020/01/31 13:11:26.0	10.620	0.570	-0.700	-0.270
2020/01/31 13:11:26.1	10.660	0.570	-0.670	-0.300
2020/01/31 13:11:26.2	10.700	0.560	-0.630	-0.330
2020/01/31 13:11:26.3	10.740	0.550	-0.590	-0.360
2020/01/31 13:11:26.4	10.770	0.530	-0.550	-0.390
2020/01/31 13:11:26.5				
2020/01/31 13:11:26.6	10.810	0.520	-0.510	-0.420
2020/01/31 13:11:26.7	10.850	0.500	-0.460	-0.450
2020/01/31 13:11:26.8	10.880	0.470	-0.410	-0.470
2020/01/31 13:11:26.9	10.920	0.450	-0.360	-0.490
2020/01/31 13:11:27.0	10.950	0.420	-0.300	-0.520
2020/01/31 13:11:27.1	10.980	0.390	-0.250	-0.540
2020/01/31 13:11:27.2	11.010	0.350	-0.190	-0.550
2020/01/31 13:11:27.3				
2020/01/31 13:11:27.4	11.060	0.280	-0.080	-0.580
2020/01/31 13:11:27.5				
2020/01/31 13:11:27.6	11.110	0.200	0.020	-0.600
2020/01/31 13:11:27.7	11.130	0.160	0.080	-0.610
2020/01/31 13:11:27.8	11.150	0.110	0.130	-0.620
2020/01/31 13:11:27.9	11.170	0.070	0.180	-0.630
2020/01/31 13:11:28.0	11.190	0.030	0.220	-0.640
2020/01/31 13:11:28.1	11.200	-0.020	0.260	-0.650
2020/01/31 13:11:28.2	11.220	-0.060	0.300	-0.660
2020/01/31 13:11:28.3	11.240	-0.140	0.370	-0.680
2020/01/31 13:11:28.4				
2020/01/31 13:11:28.5	11.250	-0.180	0.400	-0.690
2020/01/31 13:11:28.6	11.280	-0.260	0.440	-0.720
2020/01/31 13:11:28.7				
2020/01/31 13:11:28.8	11.290	-0.290	0.460	-0.730
2020/01/31 13:11:28.9	11.300	-0.330	0.460	-0.750
2020/01/31 13:11:29.0	11.310	-0.360	0.470	-0.770
2020/01/31 13:11:29.1	11.330	-0.380	0.460	-0.790
2020/01/31 13:11:29.2	11.340	-0.410	0.460	-0.820
2020/01/31 13:11:29.3	11.350	-0.430	0.440	-0.840
2020/01/31 13:11:29.4	11.360	-0.440	0.430	-0.870
2020/01/31 13:11:29.5	11.380	-0.460	0.410	-0.890
2020/01/31 13:11:29.6				
2020/01/31 13:11:29.7	11.410	-0.480	0.350	-0.950
2020/01/31 13:11:29.8				
2020/01/31 13:11:29.9	11.440	-0.490	0.290	-1.000
2020/01/31 13:11:30.0	11.460	-0.480	0.210	-1.050
2020/01/31 13:11:30.1	11.470	-0.470	0.170	-1.070
2020/01/31 13:11:30.2	11.480	-0.460	0.130	-1.100
2020/01/31 13:11:30.3	11.490	-0.450	0.090	-1.120
2020/01/31 13:11:30.4	11.500	-0.430	0.050	-1.140
2020/01/31 13:11:30.5	11.520	-0.410	0.010	-1.160
2020/01/31 13:11:30.6	11.530	-0.390	-0.030	-1.180
2020/01/31 13:11:30.7	11.540	-0.370	-0.070	-1.190
2020/01/31 13:11:30.8				
2020/01/31 13:11:30.9	11.550	-0.340	-0.110	-1.210
2020/01/31 13:11:31.0	11.560	-0.310	-0.150	-1.220
2020/01/31 13:11:31.1	11.570	-0.280	-0.180	-1.230
2020/01/31 13:11:31.2	11.580	-0.260	-0.220	-1.240
2020/01/31 13:11:31.3	11.600	-0.220	-0.250	-1.250
2020/01/31 13:11:31.4	11.610	-0.190	-0.280	-1.260
2020/01/31 13:11:31.5	11.620	-0.160	-0.310	-1.270
2020/01/31 13:11:31.6	11.640	-0.130	-0.340	-1.270
2020/01/31 13:11:31.7				
2020/01/31 13:11:31.8	11.660	-0.070	-0.390	-1.280
2020/01/31 13:11:31.9	11.680	-0.040	-0.420	-1.280
2020/01/31 13:11:32.0	11.710	0.020	-0.470	-1.290
2020/01/31 13:11:32.1	11.720	0.050	-0.490	-1.290
2020/01/31 13:11:32.2	11.740	0.080	-0.500	-1.290
2020/01/31 13:11:32.3	11.750	0.100	-0.520	-1.290
2020/01/31 13:11:32.4	11.770	0.120	-0.540	-1.290
2020/01/31 13:11:32.5				
2020/01/31 13:11:32.6	11.790	0.140	-0.550	-1.290
2020/01/31 13:11:32.7	11.800	0.160	-0.560	-1.290
2020/01/31 13:11:32.8	11.820	0.180	-0.570	-1.280
2020/01/31 13:11:32.9	11.830	0.190	-0.580	-1.280
2020/01/31 13:11:33.0	11.840	0.200	-0.590	-1.270
2020/01/31 13:11:33.1	11.860	0.210	-0.590	-1.260
2020/01/31 13:11:33.2	11.870	0.210	-0.590	-1.250
2020/01/31 13:11:33.3	11.880	0.210	-0.580	-1.240
2020/01/31 13:11:33.4	11.900	0.210	-0.580	-1.220
2020/01/31 13:11:33.5				
2020/01/31 13:11:33.6	11.920	0.200	-0.550	-1.180
2020/01/31 13:11:33.7	11.940	0.200	-0.540	-1.160
2020/01/31 13:11:33.8	11.950	0.180	-0.520	-1.130
2020/01/31 13:11:33.9	11.960	0.170	-0.500	-1.110
2020/01/31 13:11:34.0	11.970	0.160	-0.480	-1.080
2020/01/31 13:11:34.1	11.980	0.140	-0.450	-1.050
2020/01/31 13:11:34.2	11.990	0.120	-0.420	-1.010
2020/01/31 13:11:34.3	12.000	0.100	-0.390	-0.980
2020/01/31 13:11:34.4	12.010	0.080	-0.360	-0.940
2020/01/31 13:11:34.5	12.030	0.050	-0.320	-0.900
2020/01/31 13:11:34.6				
2020/01/31 13:11:34.7	12.030	0.010	-0.250	-0.820
2020/01/31 13:11:34.8				
2020/01/31 13:11:34.9	12.060	-0.040	-0.170	-0.740
2020/01/31 13:11:35.0	12.070	-0.070	-0.130	-0.690
2020/01/31 13:11:35.1	12.080	-0.090	-0.080	-0.650
2020/01/31 13:11:35.2	12.090	-0.120	-0.040	-0.600
2020/01/31 13:11:35.3	12.090	-0.140	0.000	-0.550
2020/01/31 13:11:35.4				
2020/01/31 13:11:35.5	12.110	-0.190	0.090	-0.450
2020/01/31 13:11:35.6	12.100	-0.210	0.130	-0.400
2020/01/31 13:11:35.7	12.100	-0.220	0.170	-0.350
2020/01/31 13:11:35.8	12.110	-0.240	0.220	-0.300
2020/01/31 13:11:35.9	12.110	-0.260	0.250	-0.240
2020/01/31 13:11:36.0	12.110	-0.270	0.290	-0.190
2020/01/31 13:11:36.1	12.110	-0.280	0.330	-0.130
2020/01/31 13:11:36.2	12.110	-0.290	0.360	-0.080
2020/01/31 13:11:36.3	12.100	-0.300	0.390	-0.020
2020/01/31 13:11:36.4	12.090	-0.310	0.430	0.100
2020/01/31 13:11:36.5				
2020/01/31 13:11:36.6	12.080	-0.310	0.450	0.160
2020/01/31 13:11:36.7	12.060	-0.310	0.470	0.220
2020/01/31 13:11:36.8	12.050	-0.310	0.480	0.280
2020/01/31 13:11:36.9	12.030	-0.300	0.480	0.340
2020/01/31 13:11:37.0	12.010	-0.300	0.480	0.400
2020/01/31 13:11:37.1	11.990	-0.290	0.480	0.450
2020/01/31 13:11:37.2	11.970	-0.280	0.470	0.500
2020/01/31 13:11:37.3	11.940	-0.270	0.460	0.560
2020/01/31 13:11:37.4				
2020/01/31 13:11:37.5	11.890	-0.240	0.410	0.650
2020/01/31 13:11:37.6	11.860	-0.220	0.380	0.690
2020/01/31 13:11:37.7	11.840	-0.200	0.340	0.730
2020/01/31 13:11:37.8	11.810	-0.170	0.300	0.770
2020/01/31 13:11:37.9	11.780	-0.150	0.260	0.800
2020/01/31 13:11:38.0	11.750	-0.120	0.210	0.830
2020/01/31 13:11:38.1	11.730	-0.100	0.150	0.850
2020/01/31 13:11:38.2	11.700	-0.070	0.090	0.880
2020/01/31 13:11:38.3	11.680	-0.030	0.030	0.890
2020/01/31 13:11:38.4	11.660	-0.000	-0.040	0.910
2020/01/31 13:11:38.5	11.630	0.030	-0.110	0.920
2020/01/31 13:11:38.6	11.610	0.070	-0.190	0.920
2020/01/31 13:11:38.7	11.600	0.110	-0.260	0.930
2020/01/31 13:11:38.8	11.590	0.150	-0.350	0.920
2020/01/31 13:11:38.9	11.580	0.190	-0.430	0.920
2020/01/31 13:11:39.0	11.570	0.230	-0.510	0.910
2020/01/31 13:11:39.1	11.570	0.270	-0.600	0.900
2020/01/31 13:11:39.2	11.570	0.310	-0.680	0.890
2020/01/31 13:11:39.3	11.580	0.350	-0.770	0.870
2020/01/31 13:11:39.4				
2020/01/31 13:11:39.5	11.590	0.440	-0.930	0.830
2020/01/31 13:11:39.6	11.600	0.480	-1.000	0.810
2020/01/31 13:11:39.7	11.620	0.510	-1.080	0.780
2020/01/31 13:11:39.8	11.630	0.550	-1.140	0.760
2020/01/31 13:11:39.9	11.650	0.580	-1.200	0.730
2020/01/31 13:11:40.0	11.660	0.610	-1.260	0.700
2020/01/31 13:11:40.1	11.680	0.640	-1.300	0.660
2020/01/31 13:11:40.2	11.700	0.670	-1.340	0.630
2020/01/31 13:11:40.3	11.720	0.690	-1.380	0.590
2020/01/31 13:11:40.4	11.740	0.700	-1.400	0.550
2020/01/31 13:11:40.5	11.760	0.720	-1.420	0.510
2020/01/31 13:11:40.6	11.780	0.720	-1.420	0.460
2020/01/31 13:11:40.7	11.800	0.730	-1.420	0.410
2020/01/31 13:11:40.8	11.820	0.730	-1.410	0.360
2020/01/31 13:11:40.9	11.830	0.720	-1.390	0.310
2020/01/31 13:11:41.0	11.850	0.710	-1.360	0.260
2020/01/31 13:11:41.1	11.870	0.700	-1.330	0.200
2020/01/31 13:11:41.2	11.890	0.680	-1.280	0.150
2020/01/31 13:11:41.3	11.910	0.660	-1.230	0.090
2020/01/31 13:11:41.4	11.920	0.630	-1.160	0.040
2020/01/31 13:11:41.5	11.930	0.600	-1.090	-0.020
2020/01/31 13:11:41.6	11.950	0.560	-1.020	-0.070
2020/01/31 13:11:41.7	11.950	0.530	-0.930	-0.110
2020/01/31 13:11:41.8	11.960	0.490	-0.830	-0.160
2020/01/31 13:11:41.9	11.960	0.440	-0.730	-0.200
2020/01/31 13:11:42.0	11.960	0.390	-0.620	-0.240
2020/01/31 13:11:42.1	11.950	0.350	-0.510	-0.270
2020/01/31 13:11:42.2	11.940	0.300	-0.400	-0.290
2020/01/31 13:11:42.3	11.930	0.240	-0.280	-0.320
2020/01/31 13:11:42.4	11.920	0.190	-0.150	-0.340
2020/01/31 13:11:42.5	11.900	0.130	-0.030	-0.350
2020/01/31 13:11:42.6	11.890	0.080	0.090	-0.360
2020/01/31 13:11:42.7	11.870	0.020	0.220	-0.370
2020/01/31 13:11:42.8	11.850	-0.030	0.340	-0.380
2020/01/31 13:11:42.9	11.830	-0.090	0.450	-0.380
2020/01/31 13:11:43.0	11.810	-0.150	0.560	-0.380
2020/01/31 13:11:43.1	11.780	-0.200	0.670	-0.390
2020/01/31 13:11:43.2	11.760	-0.250	0.760	-0.390
2020/01/31 13:11:43.3	11.740	-0.300	0.860	-0.390
2020/01/31 13:11:43.4	11.720	-0.350	0.940	-0.400
2020/01/31 13:11:43.5	11.700	-0.400	1.010	-0.400
2020/01/31 13:11:43.6	11.680	-0.440	1.070	-0.410
2020/01/31 13:11:43.7	11.660	-0.490	1.120	-0.420
2020/01/31 13:11:43.8	11.650	-0.520	1.160	-0.430
2020/01/31 13:11:43.9	11.640	-0.560	1.200	-0.440
2020/01/31 13:11:44.0	11.630	-0.590	1.220	-0.450
2020/01/31 13:11:44.1	11.620	-0.610	1.230	-0.470
2020/01/31 13:11:44.2	11.620	-0.640	1.230	-0.480
2020/01/31 13:11:44.3	11.620	-0.650	1.220	-0.500
2020/01/31 13:11:44.4	11.610	-0.670	1.210	-0.510
2020/01/31 13:11:44.5	11.610	-0.680	1.180	-0.530
2020/01/31 13:11:44.6	11.610	-0.680	1.150	-0.550
2020/01/31 13:11:44.7	11.610	-0.680	1.100	-0.560
2020/01/31 13:11:44.8	11.610	-0.680	1.060	-0.580
2020/01/31 13:11:44.9	11.610	-0.670	1.000	-0.590
2020/01/31 13:11:45.0	11.620	-0.660	0.940	-0.600
2020/01/31 13:11:45.1	11.620	-0.640	0.880	-0.610
2020/01/31 13:11:45.2	11.630	-0.620	0.810	-0.620
2020/01/31 13:11:45.3	11.640	-0.600	0.740	-0.630
2020/01/31 13:11:45.4	11.650	-0.570	0.670	-0.640
2020/01/31 13:11:45.5	11.660	-0.540	0.600	-0.640
2020/01/31 13:11:45.6	11.670	-0.510	0.520	-0.640
2020/01/31 13:11:45.7	11.680	-0.470	0.450	-0.640
2020/01/31 13:11:45.8	11.690	-0.440	0.370	-0.640
2020/01/31 13:11:45.9	11.710	-0.400	0.300	-0.640
2020/01/31 13:11:46.0	11.730	-0.360	0.220	-0.640
2020/01/31 13:11:46.1	11.750	-0.320	0.150	-0.630
2020/01/31 13:11:46.2	11.770	-0.280	0.080	-0.630
2020/01/31 13:11:46.3	11.790	-0.230	0.010	-0.620
2020/01/31 13:11:46.4	11.810	-0.190	-0.060	-0.610
2020/01/31 13:11:46.5	11.830	-0.150	-0.130	-0.600
2020/01/31 13:11:46.6	11.860	-0.110	-0.190	-0.590
2020/01/31 13:11:46.7	11.880	-0.070	-0.260	-0.580
2020/01/31 13:11:46.8	11.910	-0.030	-0.320	-0.570
2020/01/31 13:11:46.9	11.930	0.010	-0.380	-0.550
2020/01/31 13:11:47.0	11.960	0.040	-0.440	-0.540
2020/01/31 13:11:47.1	11.990	0.070	-0.490	-0.520
2020/01/31 13:11:47.2	12.010	0.100	-0.540	-0.500
2020/01/31 13:11:47.3	12.040	0.130	-0.590	-0.480
2020/01/31 13:11:47.4	12.060	0.160	-0.640	-0.460
2020/01/31 13:11:47.5	12.090	0.180	-0.680	-0.440
2020/01/31 13:11:47.6	12.110	0.200	-0.720	-0.410
2020/01/31 13:11:47.7	12.130	0.210	-0.760	-0.390
2020/01/31 13:11:47.8	12.150	0.230	-0.800	-0.360
2020/01/31 13:11:47.9	12.170	0.240	-0.830	-0.340
2020/01/31 13:11:48.0	12.180	0.250	-0.860	-0.310
2020/01/31 13:11:48.1	12.200	0.250	-0.890	-0.280
2020/01/31 13:11:48.2	12.210	0.250	-0.910	-0.260
2020/01/31 13:11:48.3	12.220	0.250	-0.940	-0.230
2020/01/31 13:11:48.4	12.220	0.250	-0.960	-0.200
2020/01/31 13:11:48.5	12.230	0.240	-0.980	-0.180
2020/01/31 13:11:48.6	12.260	0.240	-0.990	-0.150
2020/01/31 13:11:48.7	12.260	0.230	-1.000	-0.130
2020/01/31 13:11:48.8	12.270	0.220	-1.010	-0.110
2020/01/31 13:11:48.9	12.270	0.200	-1.020	-0.090
2020/01/31 13:11:49.0	12.270	0.190	-1.030	-0.070
2020/01/31 13:11:49.1	12.270	0.180	-1.030	-0.050
2020/01/31 13:11:49.2	12.270	0.160	-1.030	-0.040
2020/01/31 13:11:49.3	12.270	0.150	-1.020	-0.020
2020/01/31 13:11:49.4	12.270	0.130	-1.020	-0.010
2020/01/31 13:11:49.5	12.270	0.120	-1.010	-0.010
2020/01/31 13:11:49.6	12.280	0.110	-0.990	-0.000
2020/01/31 13:11:49.7	12.280	0.090	-0.980	0.000
2020/01/31 13:11:49.8	12.290	0.080	-0.960	-0.000
2020/01/31 13:11:49.9	12.290	0.070	-0.940	-0.000
2020/01/31 13:11:50.0	12.290	0.060	-0.920	-0.010
2020/01/31 13:11:50.1	12.300	0.050	-0.890	-0.020
2020/01/31 13:11:50.2	12.300	0.050	-0.860	-0.030
2020/01/31 13:11:50.3	12.310	0.040	-0.830	-0.040
2020/01/31 13:11:50.4	12.320	0.040	-0.800	-0.050
2020/01/31 13:11:50.5	12.320	0.030	-0.760	-0.060
2020/01/31 13:11:50.6	12.320	0.030	-0.720	-0.080
2020/01/31 13:11:50.7	12.330	0.030	-0.680	-0.100
2020/01/31 13:11:50.8	12.340	0.020	-0.640	-0.120
2020/01/31 13:11:50.9	12.350	0.020	-0.600	-0.140
2020/01/31 13:11:51.0	12.350	0.020	-0.550	-0.160
2020/01/31 13:11:51.1	12.360	0.020	-0.500	-0.190
2020/01/31 13:11:51.2	12.370	0.020	-0.450	-0.210
2020/01/31 13:11:51.3	12.390	0.020	-0.400	-0.240
2020/01/31 13:11:51.4	12.400	0.020	-0.350	-0.260
2020/01/31 13:11:51.5	12.410	0.020	-0.300	-0.290
2020/01/31 13:11:51.6	12.410	0.020	-0.250	-0.320
2020/01/31 13:11:51.7	12.430	0.020	-0.190	-0.340
2020/01/31 13:11:51.8	12.440	0.020	-0.140	-0.370
2020/01/31 13:11:51.9	12.460	0.020	-0.080	-0.390
2020/01/31 13:11:52.0	12.470	0.010	-0.020	-0.420
2020/01/31 13:11:52.1	12.490	0.010	0.040	-0.440
2020/01/31 13:11:52.2	12.510	0.010	0.090	-0.460
2020/01/31 13:11:52.3	12.520	0.010	0.150	-0.480
2020/01/31 13:11:52.4	12.540	0.000	0.200	-0.490
2020/01/31 13:11:52.5	12.560	0.000	0.260	-0.500
2020/01/31 13:11:52.6	12.580	-0.000	0.310	-0.510
2020/01/31 13:11:52.7	12.600	-0.010	0.360	-0.520
2020/01/31 13:11:52.8	12.610	-0.010	0.410	-0.530
2020/01/31 13:11:52.9	12.620	-0.010	0.460	-0.530
2020/01/31 13:11:53.0	12.630	-0.020	0.500	-0.530
2020/01/31 13:11:53.1	12.640	-0.020	0.550	-0.530
2020/01/31 13:11:53.2	12.650	-0.030	0.590	-0.520
2020/01/31 13:11:53.3	12.650	-0.030	0.620	-0.510
2020/01/31 13:11:53.4	12.650	-0.030	0.650	-0.500
2020/01/31 13:11:53.5	12.650	-0.040	0.680	-0.490
2020/01/31 13:11:53.6	12.660	-0.040	0.700	-0.470
2020/01/31 13:11:53.7	12.650	-0.040	0.720	-0.450
2020/01/31 13:11:53.8	12.650	-0.040	0.740	-0.440
2020/01/31 13:11:53.9	12.640	-0.040	0.750	-0.410
2020/01/31 13:11:54.0	12.630	-0.040	0.750	-0.390
2020/01/31 13:11:54.1	12.620	-0.040	0.750	-0.370
2020/01/31 13:11:54.2	12.610	-0.040	0.740	-0.340
2020/01/31 13:11:54.3	12.590	-0.040	0.730	-0.320
2020/01/31 13:11:54.4	12.570	-0.040	0.710	-0.290
2020/01/31 13:11:54.5	12.560	-0.030	0.690	-0.260
2020/01/31 13:11:54.6	12.540	-0.030	0.660	-0.230
2020/01/31 13:11:54.7	12.520	-0.020	0.620	-0.200
2020/01/31 13:11:54.8	12.500	-0.010	0.580	-0.180
2020/01/31 13:11:54.9	12.480	-0.000	0.540	-0.150
2020/01/31 13:11:55.0	12.460	0.010	0.490	-0.120
2020/01/31 13:11:55.1	12.440	0.020	0.430	-0.100
2020/01/31 13:11:55.2	12.430	0.030	0.380	-0.080
2020/01/31 13:11:55.3	12.410	0.040	0.310	-0.050
2020/01/31 13:11:55.4	12.390	0.050	0.240	-0.040
2020/01/31 13:11:55.5	12.380	0.070	0.170	-0.020
2020/01/31 13:11:55.6	12.370	0.080	0.100	-0.010
2020/01/31 13:11:55.7	12.360	0.100	0.020	-0.000
2020/01/31 13:11:55.8	12.350	0.110	-0.060	0.000
2020/01/31 13:11:55.9	12.340	0.130	-0.140	0.000
2020/01/31 13:11:56.0	12.340	0.140	-0.230	-0.000
2020/01/31 13:11:56.1	12.340	0.160	-0.310	-0.010
2020/01/31 13:11:56.2	12.350	0.180	-0.390	-0.020
2020/01/31 13:11:56.3	12.350	0.200	-0.480	-0.030
2020/01/31 13:11:56.4	12.360	0.210	-0.560	-0.050
2020/01/31 13:11:56.5	12.370	0.230	-0.640	-0.080
2020/01/31 13:11:56.6	12.380	0.250	-0.720	-0.100
2020/01/31 13:11:56.7	12.400	0.260	-0.800	-0.140
2020/01/31 13:11:56.8	12.420	0.280	-0.880	-0.170
2020/01/31 13:11:56.9	12.440	0.290	-0.950	-0.210
2020/01/31 13:11:57.0	12.460	0.300	-1.010	-0.250
2020/01/31 13:11:57.1	12.490	0.310	-1.080	-0.290
2020/01/31 13:11:57.2	12.510	0.320	-1.130	-0.330
2020/01/31 13:11:57.3	12.540	0.330	-1.180	-0.380
2020/01/31 13:11:57.4	12.570	0.330	-1.230	-0.420
2020/01/31 13:11:57.5	12.590	0.330	-1.260	-0.470
2020/01/31 13:11:57.6	12.620	0.330	-1.290	-0.520
2020/01/31 13:11:57.7	12.650	0.330	-1.310	-0.570
2020/01/31 13:11:57.8	12.680	0.320	-1.320	-0.620
2020/01/31 13:11:57.9	12.710	0.310	-1.320	-0.670
2020/01/31 13:11:58.0	12.730	0.300	-1.320	-0.710
2020/01/31 13:11:58.1	12.760	0.280	-1.310	-0.760
2020/01/31 13:11:58.2	12.780	0.260	-1.290	-0.810
2020/01/31 13:11:58.3	12.800	0.240	-1.260	-0.850
2020/01/31 13:11:58.4	12.820	0.210	-1.220	-0.900
2020/01/31 13:11:58.5	12.830	0.180	-1.170	-0.940
2020/01/31 13:11:58.6	12.850	0.150	-1.120	-0.980
2020/01/31 13:11:58.7	12.860	0.120	-1.060	-1.020
2020/01/31 13:11:58.8	12.860	0.080	-0.990	-1.060
2020/01/31 13:11:58.9	12.870	0.040	-0.910	-1.090
2020/01/31 13:11:59.0	12.870	-0.010	-0.830	-1.120
2020/01/31 13:11:59.1	12.860	-0.050	-0.740	-1.160
2020/01/31 13:11:59.2	12.860	-0.100	-0.650	-1.180
2020/01/31 13:11:59.3	12.850	-0.140	-0.550	-1.210
2020/01/31 13:11:59.4	12.840	-0.190	-0.460	-1.230
2020/01/31 13:11:59.5	12.820	-0.240	-0.350	-1.250
2020/01/31 13:11:59.6	12.800	-0.290	-0.250	-1.260
2020/01/31 13:11:59.7	12.780	-0.330	-0.150	-1.270
2020/01/31 13:11:59.8	12.760	-0.380	-0.050	-1.280
2020/01/31 13:11:59.9	12.740	-0.420	0.050	-1.290
2020/01/31 13:12:00.0	12.710	-0.470	0.160	-1.290
2020/01/31 13:12:00.1	12.680	-0.510	0.250	-1.290
2020/01/31 13:12:00.2	12.650	-0.550	0.350	-1.280
2020/01/31 13:12:00.3	12.610	-0.580	0.440	-1.270
2020/01/31 13:12:00.4	12.580	-0.620	0.520	-1.260
2020/01/31 13:12:00.5	12.540	-0.650	0.600	-1.240
2020/01/31 13:12:00.6	12.520	-0.670	0.680	-1.220
2020/01/31 13:12:00.7	12.480	-0.690	0.750	-1.200
2020/01/31 13:12:00.8	12.440	-0.710	0.810	-1.170
2020/01/31 13:12:00.9	12.400	-0.720	0.860	-1.140
2020/01/31 13:12:01.0	12.360	-0.730	0.910	-1.100
2020/01/31 13:12:01.1	12.320	-0.730	0.950	-1.060
2020/01/31 13:12:01.2	12.280	-0.730	0.980	-1.020
2020/01/31 13:12:01.3	12.240	-0.720	1.000	-0.980
2020/01/31 13:12:01.4	12.200	-0.710	1.010	-0.930
2020/01/31 13:12:01.5	12.160	-0.690	1.020	-0.880
2020/01/31 13:12:01.6	12.120	-0.670	1.010	-0.830
2020/01/31 13:12:01.7	12.090	-0.640	1.000	-0.770
2020/01/31 13:12:01.8	12.050	-0.610	0.980	-0.720
2020/01/31 13:12:01.9	12.010	-0.570	0.950	-0.660
2020/01/31 13:12:02.0	11.980	-0.530	0.920	-0.600
2020/01/31 13:12:02.1	11.940	-0.490	0.880	-0.550
2020/01/31 13:12:02.2	11.910	-0.440	0.830	-0.490
2020/01/31 13:12:02.3	11.880	-0.390	0.780	-0.430
2020/01/31 13:12:02.4	11.850	-0.340	0.720	-0.370
2020/01/31 13:12:02.5	11.820	-0.280	0.650	-0.310
2020/01/31 13:12:02.6	11.800	-0.230	0.590	-0.250
2020/01/31 13:12:02.7	11.770	-0.170	0.520	-0.190
2020/01/31 13:12:02.8	11.740	-0.120	0.440	-0.130
2020/01/31 13:12:02.9	11.710	-0.060	0.370	-0.070
2020/01/31 13:12:03.0	11.680	-0.000	0.290	-0.020
2020/01/31 13:12:03.1	11.650	0.050	0.210	0.040
2020/01/31 13:12:03.2	11.620	0.110	0.130	0.090
2020/01/31 13:12:03.3	11.590	0.160	0.050	0.140
2020/01/31 13:12:03.4	11.560	0.210	-0.030	0.190
2020/01/31 13:12:03.5	11.530	0.260	-0.110	0.240
2020/01/31 13:12:03.6	11.500	0.310	-0.190	0.280
2020/01/31 13:12:03.7	11.480	0.350	-0.270	0.330
2020/01/31 13:12:03.8	11.460	0.390	-0.350	0.360
2020/01/31 13:12:03.9	11.440	0.430	-0.420	0.400
2020/01/31 13:12:04.0	11.420	0.460	-0.490	0.430
2020/01/31 13:12:04.1	11.400	0.490	-0.560	0.460
2020/01/31 13:12:04.2	11.390	0.520	-0.630	0.480
2020/01/31 13:12:04.3	11.380	0.550	-0.690	0.500
2020/01/31 13:12:04.4	11.370	0.570	-0.750	0.520
2020/01/31 13:12:04.5	11.370	0.590	-0.810	0.530
2020/01/31 13:12:04.6	11.380	0.600	-0.870	0.540
2020/01/31 13:12:04.7	11.380	0.620	-0.920	0.550
2020/01/31 13:12:04.8	11.390	0.630	-0.960	0.550
2020/01/31 13:12:04.9	11.400	0.630	-1.010	0.550
2020/01/31 13:12:05.0	11.420	0.640	-1.050	0.540
2020/01/31 13:12:05.1	11.430	0.640	-1.080	0.540
2020/01/31 13:12:05.2	11.450	0.640	-1.120	0.530
2020/01/31 13:12:05.3	11.470	0.630	-1.140	0.510
2020/01/31 13:12:05.4	11.500	0.630	-1.170	0.500
2020/01/31 13:12:05.5	11.520	0.620	-1.180	0.480
2020/01/31 13:12:05.6	11.550	0.610	-1.200	0.460
2020/01/31 13:12:05.7	11.570	0.600	-1.200	0.440
2020/01/31 13:12:05.8	11.590	0.580	-1.210	0.420
2020/01/31 13:12:05.9	11.620	0.560	-1.200	0.390
2020/01/31 13:12:06.0	11.640	0.550	-1.190	0.370
2020/01/31 13:12:06.1	11.650	0.520	-1.180	0.340
2020/01/31 13:12:06.2	11.670	0.500	-1.160	0.320
2020/01/31 13:12:06.3	11.690	0.480	-1.140	0.290
2020/01/31 13:12:06.4	11.700	0.450	-1.110	0.270
2020/01/31 13:12:06.5	11.710	0.430	-1.070	0.240
2020/01/31 13:12:06.6	11.720	0.400	-1.030	0.210
2020/01/31 13:12:06.7	11.730	0.370	-0.990	0.190
2020/01/31 13:12:06.8	11.730	0.340	-0.940	0.160
2020/01/31 13:12:06.9	11.730	0.300	-0.890	0.140
2020/01/31 13:12:07.0	11.730	0.270	-0.830	0.120
2020/01/31 13:12:07.1	11.730	0.240	-0.770	0.100
2020/01/31 13:12:07.2	11.720	0.210	-0.700	0.080
2020/01/31 13:12:07.3	11.720	0.170	-0.640	0.060
2020/01/31 13:12:07.4	11.710	0.140	-0.570	0.040
2020/01/31 13:12:07.5	11.700	0.100	-0.500	0.020
2020/01/31 13:12:07.6	11.690	0.070	-0.420	0.000
2020/01/31 13:12:07.7	11.690	0.040	-0.350	-0.010
2020/01/31 13:12:07.8	11.670	0.000	-0.280	-0.030
2020/01/31 13:12:07.9	11.660	-0.030	-0.200	-0.040
2020/01/31 13:12:08.0	11.650	-0.060	-0.130	-0.050
2020/01/31 13:12:08.1	11.640	-0.090	-0.060	-0.060
2020/01/31 13:12:08.2	11.630	-0.130	0.010	-0.070
2020/01/31 13:12:08.3	11.620	-0.150	0.080	-0.080
2020/01/31 13:12:08.4	11.610	-0.180	0.150	-0.090
2020/01/31 13:12:08.5	11.600	-0.210	0.210	-0.090
2020/01/31 13:12:08.6	11.590	-0.240	0.270	-0.100
2020/01/31 13:12:08.7	11.580	-0.260	0.320	-0.100
2020/01/31 13:12:08.8	11.570	-0.280	0.380	-0.110
2020/01/31 13:12:08.9	11.570	-0.300	0.420	-0.110
2020/01/31 13:12:09.0	11.550	-0.320	0.470	-0.110
2020/01/31 13:12:09.1	11.540	-0.340	0.510	-0.110
2020/01/31 13:12:09.2	11.530	-0.360	0.540	-0.120
2020/01/31 13:12:09.3	11.520	-0.370	0.570	-0.120
2020/01/31 13:12:09.4	11.510	-0.390	0.600	-0.120
2020/01/31 13:12:09.5	11.490	-0.400	0.620	-0.120
2020/01/31 13:12:09.6	11.480	-0.410	0.630	-0.120
2020/01/31 13:12:09.7	11.470	-0.420	0.640	-0.120
2020/01/31 13:12:09.8	11.450	-0.430	0.650	-0.120
2020/01/31 13:12:09.9	11.430	-0.440	0.650	-0.130
2020/01/31 13:12:10.0	11.420	-0.440	0.650	-0.130
2020/01/31 13:12:10.1	11.400	-0.440	0.640	-0.140
2020/01/31 13:12:10.2	11.380	-0.440	0.620	-0.140
2020/01/31 13:12:10.3	11.350	-0.440	0.600	-0.150
2020/01/31 13:12:10.4	11.330	-0.440	0.580	-0.150
2020/01/31 13:12:10.5	11.310	-0.430	0.550	-0.160
2020/01/31 13:12:10.6	11.300	-0.430	0.520	-0.170
2020/01/31 13:12:10.7	11.270	-0.420	0.490	-0.180
2020/01/31 13:12:10.8	11.250	-0.410	0.450	-0.190
2020/01/31 13:12:10.9	11.220	-0.400	0.410	-0.190
2020/01/31 13:12:11.0	11.200	-0.380	0.370	-0.200
2020/01/31 13:12:11.1	11.170	-0.360	0.330	-0.210
2020/01/31 13:12:11.2	11.140	-0.340	0.280	-0.220
2020/01/31 13:12:11.3	11.110	-0.320	0.230	-0.230
2020/01/31 13:12:11.4	11.090	-0.300	0.190	-0.230
2020/01/31 13:12:11.5	11.060	-0.280	0.140	-0.240
2020/01/31 13:12:11.6	11.030	-0.250	0.090	-0.250
2020/01/31 13:12:11.7	11.000	-0.220	0.040	-0.250
2020/01/31 13:12:11.8	10.980	-0.200	-0.010	-0.260
2020/01/31 13:12:11.9	10.950	-0.160	-0.050	-0.260
2020/01/31 13:12:12.0	10.930	-0.130	-0.100	-0.260
2020/01/31 13:12:12.1	10.900	-0.100	-0.140	-0.260
2020/01/31 13:12:12.2	10.880	-0.070	-0.180	-0.260
2020/01/31 13:12:12.3	10.850	-0.040	-0.220	-0.260
2020/01/31 13:12:12.4	10.830	-0.000	-0.260	-0.260
2020/01/31 13:12:12.5	10.800	0.030	-0.290	-0.260
2020/01/31 13:12:12.6	10.790	0.060	-0.320	-0.250
2020/01/31 13:12:12.7	10.770	0.090	-0.350	-0.250
2020/01/31 13:12:12.8	10.740	0.120	-0.380	-0.240
2020/01/31 13:12:12.9	10.720	0.150	-0.400	-0.230
2020/01/31 13:12:13.0	10.700	0.170	-0.420	-0.220
2020/01/31 13:12:13.1	10.680	0.190	-0.430	-0.210
2020/01/31 13:12:13.2	10.660	0.220	-0.440	-0.200
2020/01/31 13:12:13.3	10.640	0.230	-0.450	-0.200
2020/01/31 13:12:13.4	10.620	0.250	-0.450	-0.190
2020/01/31 13:12:13.5	10.600	0.260	-0.460	-0.180
2020/01/31 13:12:13.6	10.570	0.270	-0.460	-0.160
2020/01/31 13:12:13.7	10.560	0.270	-0.460	-0.160
2020/01/31 13:12:13.8	10.540	0.280	-0.450	-0.150
2020/01/31 13:12:13.9	10.530	0.280	-0.450	-0.140
2020/01/31 13:12:14.0	10.510	0.270	-0.450	-0.140
2020/01/31 13:12:14.1	10.500	0.270	-0.440	-0.130
2020/01/31 13:12:14.2	10.490	0.260	-0.430	-0.130
2020/01/31 13:12:14.3	10.490	0.250	-0.430	-0.130
2020/01/31 13:12:14.4	10.480	0.230	-0.420	-0.130
2020/01/31 13:12:14.5	10.480	0.220	-0.410	-0.140
2020/01/31 13:12:14.6	10.490	0.200	-0.410	-0.140
2020/01/31 13:12:14.7	10.490	0.180	-0.400	-0.150
2020/01/31 13:12:14.8	10.500	0.160	-0.400	-0.160
2020/01/31 13:12:14.9	10.500	0.140	-0.390	-0.170
2020/01/31 13:12:15.0	10.510	0.110	-0.390	-0.180
2020/01/31 13:12:15.1	10.520	0.090	-0.380	-0.190
2020/01/31 13:12:15.2	10.540	0.070	-0.380	-0.210
2020/01/31 13:12:15.3	10.550	0.050	-0.370	-0.230
2020/01/31 13:12:15.4	10.570	0.020	-0.370	-0.240
2020/01/31 13:12:15.5	10.590	0.000	-0.360	-0.260
2020/01/31 13:12:15.6	10.600	-0.020	-0.360	-0.280
2020/01/31 13:12:15.7	10.620	-0.040	-0.350	-0.300
2020/01/31 13:12:15.8	10.640	-0.060	-0.350	-0.310
2020/01/31 13:12:15.9	10.660	-0.070	-0.340	-0.330
2020/01/31 13:12:16.0	10.690	-0.090	-0.330	-0.350
2020/01/31 13:12:16.1	10.710	-0.100	-0.320	-0.360
2020/01/31 13:12:16.2	10.730	-0.120	-0.310	-0.370
2020/01/31 13:12:16.3	10.750	-0.130	-0.300	-0.380
2020/01/31 13:12:16.4	10.770	-0.140	-0.290	-0.390
2020/01/31 13:12:16.5	10.790	-0.140	-0.280	-0.400
2020/01/31 13:12:16.6	10.810	-0.150	-0.260	-0.400
2020/01/31 13:12:16.7	10.820	-0.150	-0.250	-0.410
2020/01/31 13:12:16.8	10.840	-0.150	-0.240	-0.410
2020/01/31 13:12:16.9	10.850	-0.160	-0.220	-0.410
2020/01/31 13:12:17.0	10.860	-0.160	-0.210	-0.410
2020/01/31 13:12:17.1	10.860	-0.150	-0.200	-0.400
2020/01/31 13:12:17.2	10.870	-0.150	-0.180	-0.400
2020/01/31 13:12:17.3	10.870	-0.150	-0.170	-0.390
2020/01/31 13:12:17.4	10.870	-0.140	-0.160	-0.390
2020/01/31 13:12:17.5	10.870	-0.140	-0.140	-0.380
2020/01/31 13:12:17.6	10.860	-0.140	-0.130	-0.370
2020/01/31 13:12:17.7	10.850	-0.130	-0.120	-0.360
2020/01/31 13:12:17.8	10.840	-0.120	-0.120	-0.350
2020/01/31 13:12:17.9	10.830	-0.120	-0.110	-0.340
2020/01/31 13:12:18.0	10.820	-0.110	-0.110	-0.330
2020/01/31 13:12:18.1	10.810	-0.100	-0.100	-0.320
2020/01/31 13:12:18.2	10.790	-0.100	-0.100	-0.310
2020/01/31 13:12:18.3	10.780	-0.090	-0.100	-0.310
2020/01/31 13:12:18.4	10.760	-0.080	-0.110	-0.300
2020/01/31 13:12:18.5	10.740	-0.080	-0.110	-0.290
2020/01/31 13:12:18.6	10.720	-0.070	-0.120	-0.280
2020/01/31 13:12:18.7	10.700	-0.060	-0.130	-0.270
2020/01/31 13:12:18.8	10.690	-0.050	-0.140	-0.260
2020/01/31 13:12:18.9	10.670	-0.040	-0.150	-0.250
2020/01/31 13:12:19.0	10.650	-0.030	-0.170	-0.250
2020/01/31 13:12:19.1	10.630	-0.020	-0.180	-0.230
2020/01/31 13:12:19.2	10.610	-0.010	-0.200	-0.220
2020/01/31 13:12:19.3	10.590	0.000	-0.220	-0.210
2020/01/31 13:12:19.4	10.570	0.020	-0.240	-0.200
2020/01/31 13:12:19.5	10.550	0.030	-0.260	-0.180
2020/01/31 13:12:19.6	10.540	0.050	-0.280	-0.170
2020/01/31 13:12:19.7	10.520	0.060	-0.300	-0.150
2020/01/31 13:12:19.8	10.500	0.080	-0.310	-0.140
2020/01/31 13:12:19.9	10.490	0.100	-0.330	-0.120
2020/01/31 13:12:20.0	10.470	0.120	-0.350	-0.110
2020/01/31 13:12:20.1	10.450	0.140	-0.370	-0.090
2020/01/31 13:12:20.2	10.430	0.160	-0.390	-0.070
2020/01/31 13:12:20.3	10.410	0.180	-0.400	-0.060
2020/01/31 13:12:20.4	10.390	0.200	-0.410	-0.040
2020/01/31 13:12:20.5	10.370	0.230	-0.420	-0.020
2020/01/31 13:12:20.6	10.350	0.250	-0.430	-0.010
2020/01/31 13:12:20.7	10.330	0.270	-0.440	0.010
2020/01/31 13:12:20.8	10.310	0.300	-0.440	0.030
2020/01/31 13:12:20.9	10.290	0.320	-0.450	0.050
2020/01/31 13:12:21.0	10.280	0.350	-0.450	0.060
2020/01/31 13:12:21.1	10.260	0.370	-0.440	0.080
2020/01/31 13:12:21.2	10.240	0.390	-0.440	0.100
2020/01/31 13:12:21.3	10.220	0.410	-0.430	0.120
2020/01/31 13:12:21.4	10.200	0.430	-0.420	0.140
2020/01/31 13:12:21.5	10.190	0.440	-0.410	0.160
2020/01/31 13:12:21.6	10.180	0.460	-0.400	0.180
2020/01/31 13:12:21.7	10.160	0.470	-0.380	0.200
2020/01/31 13:12:21.8	10.150	0.480	-0.360	0.210
2020/01/31 13:12:21.9	10.130	0.490	-0.340	0.230
2020/01/31 13:12:22.0	10.120	0.490	-0.310	0.250
2020/01/31 13:12:22.1	10.110	0.490	-0.290	0.260
2020/01/31 13:12:22.2	10.090	0.490	-0.270	0.270
2020/01/31 13:12:22.3	10.080	0.490	-0.240	0.280
2020/01/31 13:12:22.4	10.070	0.480	-0.220	0.290
2020/01/31 13:12:22.5	10.060	0.460	-0.190	0.300
2020/01/31 13:12:22.6	10.060	0.450	-0.170	0.300
2020/01/31 13:12:22.7	10.050	0.430	-0.140	0.300
2020/01/31 13:12:22.8	10.050	0.410	-0.120	0.300
2020/01/31 13:12:22.9	10.050	0.380	-0.100	0.290
2020/01/31 13:12:23.0	10.050	0.360	-0.080	0.280
2020/01/31 13:12:23.1	10.050	0.330	-0.060	0.270
2020/01/31 13:12:23.2	10.050	0.290	-0.040	0.260
2020/01/31 13:12:23.3	10.060	0.260	-0.020	0.240
2020/01/31 13:12:23.4	10.070	0.220	-0.010	0.220
2020/01/31 13:12:23.5	10.070	0.190	0.010	0.200
2020/01/31 13:12:23.6	10.070	0.150	0.020	0.170
2020/01/31 13:12:23.7	10.090	0.110	0.030	0.140
2020/01/31 13:12:23.8	10.100	0.070	0.030	0.110
2020/01/31 13:12:23.9	10.110	0.030	0.040	0.080
2020/01/31 13:12:24.0	10.130	-0.010	0.040	0.040
2020/01/31 13:12:24.1	10.150	-0.050	0.040	0.010
2020/01/31 13:12:24.2	10.170	-0.080	0.040	-0.030
2020/01/31 13:12:24.3	10.190	-0.120	0.040	-0.070
2020/01/31 13:12:24.4	10.210	-0.160	0.040	-0.110
2020/01/31 13:12:24.5	10.240	-0.190	0.040	-0.150
2020/01/31 13:12:24.6	10.270	-0.220	0.040	-0.190
2020/01/31 13:12:24.7	10.290	-0.250	0.030	-0.240
2020/01/31 13:12:24.8	10.310	-0.280	0.030	-0.280
2020/01/31 13:12:24.9	10.340	-0.310	0.030	-0.320
2020/01/31 13:12:25.0	10.360	-0.330	0.030	-0.360
2020/01/31 13:12:25.1	10.380	-0.350	0.030	-0.400
2020/01/31 13:12:25.2	10.400	-0.380	0.030	-0.440
2020/01/31 13:12:25.3	10.410	-0.390	0.040	-0.480
2020/01/31 13:12:25.4	10.430	-0.410	0.040	-0.510
2020/01/31 13:12:25.5	10.440	-0.430	0.050	-0.550
2020/01/31 13:12:25.6	10.450	-0.440	0.060	-0.570
2020/01/31 13:12:25.7	10.450	-0.450	0.070	-0.600
2020/01/31 13:12:25.8	10.460	-0.470	0.090	-0.630
2020/01/31 13:12:25.9	10.460	-0.480	0.100	-0.660
2020/01/31 13:12:26.0	10.460	-0.490	0.120	-0.680
2020/01/31 13:12:26.1	10.450	-0.490	0.140	-0.700
2020/01/31 13:12:26.2	10.440	-0.500	0.160	-0.710
2020/01/31 13:12:26.3	10.430	-0.510	0.180	-0.730
2020/01/31 13:12:26.4	10.410	-0.510	0.200	-0.730
2020/01/31 13:12:26.5	10.390	-0.520	0.230	-0.740
2020/01/31 13:12:26.6	10.360	-0.520	0.250	-0.740
2020/01/31 13:12:26.7	10.330	-0.520	0.270	-0.740
2020/01/31 13:12:26.8	10.300	-0.520	0.290	-0.740
2020/01/31 13:12:26.9	10.260	-0.520	0.300	-0.730
2020/01/31 13:12:27.0	10.220	-0.520	0.320	-0.720
2020/01/31 13:12:27.1	10.180	-0.520	0.330	-0.710
2020/01/31 13:12:27.2	10.140	-0.520	0.340	-0.690
2020/01/31 13:12:27.3	10.100	-0.510	0.350	-0.670
2020/01/31 13:12:27.4	10.050	-0.510	0.350	-0.650
2020/01/31 13:12:27.5	10.000	-0.500	0.350	-0.630
2020/01/31 13:12:27.6	9.960	-0.490	0.340	-0.600
2020/01/31 13:12:27.7	9.910	-0.480	0.330	-0.570
2020/01/31 13:12:27.8	9.860	-0.470	0.310	-0.550
2020/01/31 13:12:27.9	9.820	-0.460	0.290	-0.520
2020/01/31 13:12:28.0	9.770	-0.440	0.270	-0.490
2020/01/31 13:12:28.1	9.730	-0.430	0.230	-0.470
2020/01/31 13:12:28.2	9.680	-0.410	0.190	-0.450
2020/01/31 13:12:28.3	9.640	-0.380	0.150	-0.430
2020/01/31 13:12:28.4	9.600	-0.360	0.100	-0.410
2020/01/31 13:12:28.5	9.570	-0.330	0.040	-0.390
2020/01/31 13:12:28.6	9.540	-0.310	-0.020	-0.370
2020/01/31 13:12:28.7	9.510	-0.280	-0.080	-0.360
2020/01/31 13:12:28.8	9.480	-0.240	-0.150	-0.350
2020/01/31 13:12:28.9	9.450	-0.210	-0.230	-0.350
2020/01/31 13:12:29.0	9.430	-0.170	-0.300	-0.340
2020/01/31 13:12:29.1	9.410	-0.140	-0.380	-0.340
2020/01/31 13:12:29.2	9.380	-0.100	-0.460	-0.340
2020/01/31 13:12:29.3	9.360	-0.060	-0.540	-0.350
2020/01/31 13:12:29.4	9.350	-0.020	-0.620	-0.350
2020/01/31 13:12:29.5	9.330	0.030	-0.700	-0.360
2020/01/31 13:12:29.6	9.320	0.070	-0.780	-0.360
2020/01/31 13:12:29.7	9.310	0.110	-0.850	-0.370
2020/01/31 13:12:29.8	9.290	0.150	-0.920	-0.380
2020/01/31 13:12:29.9	9.290	0.190	-0.990	-0.390
2020/01/31 13:12:30.0	9.280	0.230	-1.050	-0.400
2020/01/31 13:12:30.1	9.270	0.270	-1.110	-0.410
2020/01/31 13:12:30.2	9.270	0.310	-1.160	-0.420
2020/01/31 13:12:30.3	9.260	0.350	-1.210	-0.430
2020/01/31 13:12:30.4	9.260	0.380	-1.240	-0.440
2020/01/31 13:12:30.5	9.260	0.410	-1.280	-0.450
2020/01/31 13:12:30.6	9.260	0.450	-1.300	-0.460
2020/01/31 13:12:30.7	9.270	0.470	-1.320	-0.460
2020/01/31 13:12:30.8	9.270	0.500	-1.330	-0.470
2020/01/31 13:12:30.9	9.280	0.530	-1.330	-0.470
2020/01/31 13:12:31.0	9.280	0.550	-1.320	-0.480
2020/01/31 13:12:31.1	9.290	0.570	-1.310	-0.480
2020/01/31 13:12:31.2	9.300	0.580	-1.290	-0.480
2020/01/31 13:12:31.3	9.310	0.590	-1.270	-0.470
2020/01/31 13:12:31.4	9.320	0.600	-1.230	-0.470
2020/01/31 13:12:31.5	9.330	0.610	-1.190	-0.460
2020/01/31 13:12:31.6	9.350	0.610	-1.150	-0.460
2020/01/31 13:12:31.7	9.360	0.610	-1.100	-0.450
2020/01/31 13:12:31.8	9.370	0.610	-1.040	-0.440
2020/01/31 13:12:31.9	9.380	0.600	-0.980	-0.430
2020/01/31 13:12:32.0	9.390	0.590	-0.910	-0.410
2020/01/31 13:12:32.1	9.400	0.580	-0.840	-0.400
2020/01/31 13:12:32.2	9.420	0.560	-0.760	-0.380
2020/01/31 13:12:32.3	9.430	0.540	-0.690	-0.360
2020/01/31 13:12:32.4	9.440	0.520	-0.600	-0.340
2020/01/31 13:12:32.5	9.450	0.500	-0.520	-0.320
2020/01/31 13:12:32.6	9.450	0.470	-0.440	-0.300
2020/01/31 13:12:32.7	9.460	0.440	-0.350	-0.280
2020/01/31 13:12:32.8	9.470	0.400	-0.260	-0.260
2020/01/31 13:12:32.9	9.470	0.360	-0.170	-0.230
2020/01/31 13:12:33.0	9.480	0.320	-0.090	-0.210
2020/01/31 13:12:33.1	9.480	0.280	0.000	-0.190
2020/01/31 13:12:33.2	9.480	0.240	0.090	-0.170
2020/01/31 13:12:33.3	9.470	0.190	0.170	-0.150
2020/01/31 13:12:33.4	9.470	0.150	0.250	-0.130
2020/01/31 13:12:33.5	9.460	0.100	0.330	-0.110
2020/01/31 13:12:33.6	9.460	0.050	0.400	-0.090
2020/01/31 13:12:33.7	9.450	-0.000	0.480	-0.070
2020/01/31 13:12:33.8	9.440	-0.060	0.540	-0.050
2020/01/31 13:12:33.9	9.420	-0.110	0.610	-0.030
2020/01/31 13:12:34.0	9.400	-0.160	0.660	-0.010
2020/01/31 13:12:34.1	9.390	-0.210	0.720	0.010
2020/01/31 13:12:34.2	9.370	-0.260	0.770	0.030
2020/01/31 13:12:34.3	9.340	-0.310	0.810	0.050
2020/01/31 13:12:34.4	9.320	-0.350	0.850	0.070
2020/01/31 13:12:34.5	9.290	-0.400	0.880	0.090
2020/01/31 13:12:34.6	9.270	-0.440	0.900	0.120
2020/01/31 13:12:34.7	9.240	-0.480	0.920	0.140
2020/01/31 13:12:34.8	9.210	-0.520	0.940	0.160
2020/01/31 13:12:34.9	9.180	-0.550	0.940	0.180
2020/01/31 13:12:35.0	9.140	-0.580	0.950	0.200
2020/01/31 13:12:35.1	9.110	-0.610	0.940	0.220
2020/01/31 13:12:35.2	9.070	-0.630	0.930	0.240
2020/01/31 13:12:35.3	9.040	-0.640	0.920	0.260
2020/01/31 13:12:35.4	9.000	-0.660	0.890	0.280
2020/01/31 13:12:35.5	8.970	-0.660	0.870	0.300
2020/01/31 13:12:35.6	8.940	-0.670	0.830	0.310
2020/01/31 13:12:35.7	8.900	-0.660	0.790	0.330
2020/01/31 13:12:35.8	8.870	-0.650	0.750	0.340
2020/01/31 13:12:35.9	8.830	-0.640	0.690	0.360
2020/01/31 13:12:36.0	8.800	-0.620	0.640	0.380
2020/01/31 13:12:36.1	8.760	-0.600	0.570	0.390
2020/01/31 13:12:36.2	8.730	-0.570	0.510	0.400
2020/01/31 13:12:36.3	8.700	-0.530	0.440	0.420
2020/01/31 13:12:36.4	8.660	-0.490	0.360	0.430
2020/01/31 13:12:36.5	8.640	-0.450	0.280	0.440
2020/01/31 13:12:36.6	8.610	-0.400	0.200	0.450
2020/01/31 13:12:36.7	8.590	-0.350	0.110	0.460
2020/01/31 13:12:36.8	8.560	-0.290	0.020	0.470
2020/01/31 13:12:36.9	8.540	-0.230	-0.070	0.480
2020/01/31 13:12:37.0	8.530	-0.160	-0.160	0.490
2020/01/31 13:12:37.1	8.520	-0.100	-0.250	0.490
2020/01/31 13:12:37.2	8.500	-0.030	-0.340	0.500
2020/01/31 13:12:37.3	8.500	0.040	-0.430	0.500
2020/01/31 13:12:37.4	8.490	0.120	-0.520	0.510
2020/01/31 13:12:37.5	8.490	0.190	-0.600	0.510
2020/01/31 13:12:37.6	8.500	0.260	-0.680	0.510
2020/01/31 13:12:37.7	8.500	0.330	-0.760	0.510
2020/01/31 13:12:37.8	8.500	0.390	-0.830	0.510
2020/01/31 13:12:37.9	8.500	0.460	-0.900	0.510
2020/01/31 13:12:38.0	8.500	0.520	-0.960	0.500
2020/01/31 13:12:38.1	8.510	0.580	-1.010	0.500
2020/01/31 13:12:38.2	8.510	0.630	-1.050	0.500
2020/01/31 13:12:38.3	8.520	0.680	-1.090	0.490
2020/01/31 13:12:38.4	8.520	0.730	-1.120	0.490
2020/01/31 13:12:38.5	8.530	0.760	-1.140	0.480
2020/01/31 13:12:38.6	8.540	0.800	-1.150	0.480
2020/01/31 13:12:38.7	8.540	0.820	-1.160	0.470
2020/01/31 13:12:38.8	8.550	0.840	-1.150	0.460
2020/01/31 13:12:38.9	8.550	0.850	-1.140	0.460
2020/01/31 13:12:39.0	8.550	0.850	-1.110	0.450
2020/01/31 13:12:39.1	8.550	0.850	-1.090	0.440
2020/01/31 13:12:39.2	8.550	0.840	-1.050	0.430
2020/01/31 13:12:39.3	8.560	0.830	-1.010	0.420
2020/01/31 13:12:39.4	8.560	0.800	-0.960	0.410
2020/01/31 13:12:39.5	8.560	0.770	-0.900	0.400
2020/01/31 13:12:39.6	8.550	0.730	-0.850	0.390
2020/01/31 13:12:39.7	8.550	0.690	-0.780	0.380
2020/01/31 13:12:39.8	8.550	0.640	-0.720	0.370
2020/01/31 13:12:39.9	8.550	0.590	-0.650	0.360
2020/01/31 13:12:40.0	8.540	0.530	-0.580	0.350
2020/01/31 13:12:40.1	8.540	0.470	-0.500	0.340
2020/01/31 13:12:40.2	8.530	0.400	-0.430	0.330
2020/01/31 13:12:40.3	8.520	0.330	-0.360	0.320
2020/01/31 13:12:40.4	8.510	0.260	-0.280	0.300
2020/01/31 13:12:40.5	8.500	0.180	-0.210	0.290
2020/01/31 13:12:40.6	8.480	0.100	-0.140	0.270
2020/01/31 13:12:40.7	8.460	0.020	-0.070	0.250
2020/01/31 13:12:40.8	8.440	-0.060	0.000	0.230
2020/01/31 13:12:40.9	8.430	-0.140	0.070	0.210
2020/01/31 13:12:41.0	8.410	-0.220	0.130	0.180
2020/01/31 13:12:41.1	8.390	-0.300	0.180	0.150
2020/01/31 13:12:41.2	8.360	-0.370	0.240	0.120
2020/01/31 13:12:41.3	8.340	-0.450	0.280	0.080
2020/01/31 13:12:41.4	8.320	-0.520	0.320	0.040
2020/01/31 13:12:41.5	8.300	-0.580	0.360	-0.000
2020/01/31 13:12:41.6	8.280	-0.650	0.390	-0.050
2020/01/31 13:12:41.7	8.260	-0.700	0.410	-0.100
2020/01/31 13:12:41.8	8.250	-0.750	0.430	-0.150
2020/01/31 13:12:41.9	8.230	-0.800	0.440	-0.200
2020/01/31 13:12:42.0	8.220	-0.840	0.450	-0.260
2020/01/31 13:12:42.1	8.200	-0.870	0.450	-0.310
2020/01/31 13:12:42.2	8.190	-0.900	0.450	-0.370
2020/01/31 13:12:42.3	8.180	-0.910	0.430	-0.430
2020/01/31 13:12:42.4	8.170	-0.920	0.420	-0.480
2020/01/31 13:12:42.5	8.170	-0.930	0.390	-0.540
2020/01/31 13:12:42.6	8.160	-0.920	0.370	-0.590
2020/01/31 13:12:42.7	8.150	-0.910	0.340	-0.640
2020/01/31 13:12:42.8	8.150	-0.890	0.300	-0.690
2020/01/31 13:12:42.9	8.150	-0.860	0.260	-0.740
2020/01/31 13:12:43.0	8.150	-0.830	0.220	-0.790
2020/01/31 13:12:43.1	8.150	-0.790	0.170	-0.830
2020/01/31 13:12:43.2	8.160	-0.750	0.130	-0.870
2020/01/31 13:12:43.3	8.170	-0.700	0.080	-0.910
2020/01/31 13:12:43.4	8.180	-0.640	0.030	-0.940
2020/01/31 13:12:43.5	8.190	-0.590	-0.020	-0.980
2020/01/31 13:12:43.6	8.210	-0.530	-0.070	-1.010
2020/01/31 13:12:43.7	8.220	-0.470	-0.120	-1.030
2020/01/31 13:12:43.8	8.240	-0.400	-0.180	-1.060
2020/01/31 13:12:43.9	8.260	-0.340	-0.230	-1.090
2020/01/31 13:12:44.0	8.290	-0.270	-0.280	-1.110
2020/01/31 13:12:44.1	8.310	-0.210	-0.330	-1.140
2020/01/31 13:12:44.2	8.340	-0.150	-0.380	-1.160
2020/01/31 13:12:44.3	8.380	-0.080	-0.420	-1.190
2020/01/31 13:12:44.4	8.410	-0.020	-0.470	-1.210
2020/01/31 13:12:44.5	8.450	0.030	-0.520	-1.230
2020/01/31 13:12:44.6	8.490	0.090	-0.560	-1.250
2020/01/31 13:12:44.7	8.530	0.140	-0.600	-1.270
2020/01/31 13:12:44.8	8.570	0.190	-0.630	-1.290
2020/01/31 13:12:44.9	8.610	0.230	-0.670	-1.310
2020/01/31 13:12:45.0	8.650	0.270	-0.690	-1.320
2020/01/31 13:12:45.1	8.690	0.300	-0.720	-1.330
2020/01/31 13:12:45.2	8.720	0.330	-0.740	-1.340
2020/01/31 13:12:45.3	8.750	0.350	-0.750	-1.350
2020/01/31 13:12:45.4	8.780	0.370	-0.760	-1.350
2020/01/31 13:12:45.5	8.810	0.380	-0.760	-1.340
2020/01/31 13:12:45.6	8.820	0.380	-0.750	-1.330
2020/01/31 13:12:45.7	8.830	0.380	-0.740	-1.320
2020/01/31 13:12:45.8	8.840	0.380	-0.720	-1.310
2020/01/31 13:12:45.9	8.840	0.370	-0.690	-1.290
2020/01/31 13:12:46.0	8.830	0.350	-0.660	-1.260
2020/01/31 13:12:46.1	8.820	0.330	-0.620	-1.240
2020/01/31 13:12:46.2	8.810	0.310	-0.570	-1.210
2020/01/31 13:12:46.3	8.790	0.280	-0.520	-1.170
2020/01/31 13:12:46.4	8.770	0.250	-0.460	-1.140
2020/01/31 13:12:46.5	8.740	0.220	-0.400	-1.100
2020/01/31 13:12:46.6	8.720	0.190	-0.330	-1.050
2020/01/31 13:12:46.7	8.680	0.150	-0.260	-1.010
2020/01/31 13:12:46.8	8.640	0.110	-0.180	-0.960
2020/01/31 13:12:46.9	8.600	0.070	-0.100	-0.910
2020/01/31 13:12:47.0	8.550	0.030	-0.020	-0.850
2020/01/31 13:12:47.1	8.510	-0.000	0.060	-0.800
2020/01/31 13:12:47.2	8.460	-0.040	0.140	-0.750
2020/01/31 13:12:47.3	8.400	-0.080	0.220	-0.690
2020/01/31 13:12:47.4	8.350	-0.110	0.290	-0.640
2020/01/31 13:12:47.5	8.300	-0.140	0.370	-0.580
2020/01/31 13:12:47.6	8.250	-0.170	0.430	-0.520
2020/01/31 13:12:47.7	8.200	-0.190	0.490	-0.470
2020/01/31 13:12:47.8	8.150	-0.210	0.550	-0.420
2020/01/31 13:12:47.9	8.100	-0.220	0.600	-0.360
2020/01/31 13:12:48.0	8.050	-0.230	0.640	-0.320
2020/01/31 13:12:48.1	8.010	-0.240	0.670	-0.270
2020/01/31 13:12:48.2	7.960	-0.240	0.690	-0.220
2020/01/31 13:12:48.3	7.920	-0.230	0.700	-0.170
2020/01/31 13:12:48.4	7.870	-0.220	0.700	-0.130
2020/01/31 13:12:48.5	7.830	-0.200	0.690	-0.090
2020/01/31 13:12:48.6	7.780	-0.180	0.670	-0.040
2020/01/31 13:12:48.7	7.740	-0.150	0.640	-0.000
2020/01/31 13:12:48.8	7.710	-0.110	0.600	0.040
2020/01/31 13:12:48.9	7.670	-0.070	0.550	0.080
2020/01/31 13:12:49.0	7.640	-0.030	0.490	0.110
2020/01/31 13:12:49.1	7.610	0.020	0.430	0.150
2020/01/31 13:12:49.2	7.580	0.070	0.360	0.190
2020/01/31 13:12:49.3	7.550	0.130	0.280	0.220
2020/01/31 13:12:49.4	7.520	0.180	0.200	0.260
2020/01/31 13:12:49.5	7.490	0.240	0.110	0.290
2020/01/31 13:12:49.6	7.450	0.300	0.020	0.320
2020/01/31 13:12:49.7	7.430	0.360	-0.070	0.350
2020/01/31 13:12:49.8	7.410	0.420	-0.160	0.380
2020/01/31 13:12:49.9	7.380	0.480	-0.250	0.410
2020/01/31 13:12:50.0	7.360	0.540	-0.350	0.430
2020/01/31 13:12:50.1	7.350	0.590	-0.440	0.450
2020/01/31 13:12:50.2	7.330	0.650	-0.520	0.460
2020/01/31 13:12:50.3	7.320	0.690	-0.610	0.470
2020/01/31 13:12:50.4	7.310	0.740	-0.680	0.480
2020/01/31 13:12:50.5	7.310	0.780	-0.760	0.490
2020/01/31 13:12:50.6	7.290	0.810	-0.820	0.490
2020/01/31 13:12:50.7	7.290	0.840	-0.890	0.490
2020/01/31 13:12:50.8	7.290	0.860	-0.950	0.480
2020/01/31 13:12:50.9	7.300	0.870	-1.000	0.470
2020/01/31 13:12:51.0	7.310	0.880	-1.040	0.460
2020/01/31 13:12:51.1	7.320	0.880	-1.080	0.440
2020/01/31 13:12:51.2	7.340	0.880	-1.110	0.420
2020/01/31 13:12:51.3	7.360	0.860	-1.130	0.400
2020/01/31 13:12:51.4	7.380	0.850	-1.140	0.370
2020/01/31 13:12:51.5	7.400	0.820	-1.150	0.350
2020/01/31 13:12:51.6	7.440	0.790	-1.150	0.320
2020/01/31 13:12:51.7	7.470	0.750	-1.140	0.290
2020/01/31 13:12:51.8	7.500	0.710	-1.130	0.260
2020/01/31 13:12:51.9	7.530	0.660	-1.100	0.230
2020/01/31 13:12:52.0	7.560	0.600	-1.070	0.200
2020/01/31 13:12:52.1	7.590	0.540	-1.040	0.170
2020/01/31 13:12:52.2	7.620	0.470	-0.990	0.140
2020/01/31 13:12:52.3	7.640	0.400	-0.940	0.110
2020/01/31 13:12:52.4	7.670	0.330	-0.890	0.080
2020/01/31 13:12:52.5	7.690	0.250	-0.830	0.050
2020/01/31 13:12:52.6	7.710	0.170	-0.770	0.020
2020/01/31 13:12:52.7	7.730	0.090	-0.700	-0.010
2020/01/31 13:12:52.8	7.740	0.000	-0.620	-0.030
2020/01/31 13:12:52.9	7.750	-0.090	-0.550	-0.060
2020/01/31 13:12:53.0	7.760	-0.170	-0.470	-0.080
2020/01/31 13:12:53.1	7.770	-0.260	-0.390	-0.110
2020/01/31 13:12:53.2	7.770	-0.350	-0.310	-0.130
2020/01/31 13:12:53.3	7.770	-0.430	-0.230	-0.150
2020/01/31 13:12:53.4	7.770	-0.520	-0.150	-0.180
2020/01/31 13:12:53.5	7.760	-0.600	-0.080	-0.200
2020/01/31 13:12:53.6	7.750	-0.670	-0.000	-0.230
2020/01/31 13:12:53.7	7.740	-0.750	0.070	-0.250
2020/01/31 13:12:53.8	7.730	-0.820	0.130	-0.270
2020/01/31 13:12:53.9	7.720	-0.880	0.200	-0.300
2020/01/31 13:12:54.0	7.700	-0.950	0.250	-0.320
2020/01/31 13:12:54.1	7.690	-1.000	0.310	-0.350
2020/01/31 13:12:54.2	7.670	-1.050	0.350	-0.380
2020/01/31 13:12:54.3	7.650	-1.090	0.390	-0.400
2020/01/31 13:12:54.4	7.640	-1.130	0.430	-0.430
2020/01/31 13:12:54.5	7.620	-1.150	0.460	-0.460
2020/01/31 13:12:54.6	7.600	-1.180	0.480	-0.500
2020/01/31 13:12:54.7	7.580	-1.190	0.490	-0.530
2020/01/31 13:12:54.8	7.570	-1.200	0.500	-0.560
2020/01/31 13:12:54.9	7.550	-1.190	0.500	-0.590
2020/01/31 13:12:55.0	7.530	-1.180	0.490	-0.630
2020/01/31 13:12:55.1	7.520	-1.170	0.480	-0.660
2020/01/31 13:12:55.2	7.500	-1.140	0.460	-0.690
2020/01/31 13:12:55.3	7.490	-1.110	0.440	-0.720
2020/01/31 13:12:55.4	7.480	-1.080	0.410	-0.750
2020/01/31 13:12:55.5	7.460	-1.030	0.380	-0.780
2020/01/31 13:12:55.6	7.460	-0.980	0.340	-0.810
2020/01/31 13:12:55.7	7.440	-0.930	0.300	-0.830
2020/01/31 13:12:55.8	7.430	-0.870	0.260	-0.850
2020/01/31 13:12:55.9	7.420	-0.800	0.220	-0.860
2020/01/31 13:12:56.0	7.400	-0.730	0.180	-0.870
2020/01/31 13:12:56.1	7.390	-0.660	0.140	-0.870
2020/01/31 13:12:56.2	7.380	-0.590	0.090	-0.870
2020/01/31 13:12:56.3	7.360	-0.510	0.050	-0.860
2020/01/31 13:12:56.4	7.340	-0.430	0.020	-0.850
2020/01/31 13:12:56.5	7.330	-0.350	-0.020	-0.830
2020/01/31 13:12:56.6	7.320	-0.270	-0.050	-0.810
2020/01/31 13:12:56.7	7.300	-0.190	-0.080	-0.780
2020/01/31 13:12:56.8	7.280	-0.120	-0.110	-0.750
2020/01/31 13:12:56.9	7.260	-0.040	-0.130	-0.710
2020/01/31 13:12:57.0	7.240	0.040	-0.150	-0.660
2020/01/31 13:12:57.1	7.220	0.110	-0.160	-0.620
2020/01/31 13:12:57.2	7.200	0.180	-0.170	-0.560
2020/01/31 13:12:57.3	7.180	0.240	-0.170	-0.510
2020/01/31 13:12:57.4	7.160	0.300	-0.180	-0.450
2020/01/31 13:12:57.5	7.130	0.360	-0.170	-0.390
2020/01/31 13:12:57.6	7.100	0.410	-0.170	-0.320
2020/01/31 13:12:57.7	7.080	0.460	-0.160	-0.250
2020/01/31 13:12:57.8	7.060	0.500	-0.150	-0.180
2020/01/31 13:12:57.9	7.040	0.540	-0.140	-0.110
2020/01/31 13:12:58.0	7.010	0.580	-0.120	-0.040
2020/01/31 13:12:58.1	6.990	0.600	-0.110	0.030
2020/01/31 13:12:58.2	6.970	0.630	-0.090	0.110
2020/01/31 13:12:58.3	6.950	0.640	-0.070	0.180
2020/01/31 13:12:58.4	6.930	0.660	-0.060	0.250
2020/01/31 13:12:58.5	6.900	0.670	-0.040	0.320
2020/01/31 13:12:58.6	6.880	0.670	-0.030	0.390
2020/01/31 13:12:58.7	6.860	0.670	-0.020	0.460
2020/01/31 13:12:58.8	6.840	0.670	-0.010	0.530
2020/01/31 13:12:58.9	6.810	0.660	-0.000	0.590
2020/01/31 13:12:59.0	6.790	0.650	0.000	0.650
2020/01/31 13:12:59.1	6.770	0.630	-0.000	0.710
2020/01/31 13:12:59.2	6.750	0.620	-0.010	0.760
2020/01/31 13:12:59.3	6.740	0.600	-0.020	0.810
2020/01/31 13:12:59.4	6.720	0.580	-0.030	0.860
2020/01/31 13:12:59.5	6.710	0.560	-0.050	0.900
2020/01/31 13:12:59.6	6.710	0.540	-0.080	0.930
2020/01/31 13:12:59.7	6.700	0.520	-0.100	0.960
2020/01/31 13:12:59.8	6.700	0.500	-0.140	0.990
2020/01/31 13:12:59.9	6.700	0.490	-0.170	1.010
2020/01/31 13:13:00.0	6.700	0.470	-0.210	1.020
2020/01/31 13:13:00.1	6.710	0.450	-0.260	1.030
2020/01/31 13:13:00.2	6.720	0.430	-0.300	1.030
2020/01/31 13:13:00.3	6.730	0.420	-0.350	1.020
2020/01/31 13:13:00.4	6.750	0.410	-0.400	1.010
2020/01/31 13:13:00.5	6.770	0.390	-0.450	1.000
2020/01/31 13:13:00.6	6.800	0.380	-0.500	0.980
2020/01/31 13:13:00.7	6.830	0.370	-0.550	0.960
2020/01/31 13:13:00.8	6.850	0.370	-0.600	0.940
2020/01/31 13:13:00.9	6.870	0.360	-0.640	0.910
2020/01/31 13:13:01.0	6.900	0.350	-0.680	0.880
2020/01/31 13:13:01.1	6.920	0.350	-0.720	0.840
2020/01/31 13:13:01.2	6.950	0.340	-0.750	0.810
2020/01/31 13:13:01.3	6.970	0.330	-0.770	0.770
2020/01/31 13:13:01.4	6.990	0.330	-0.790	0.740
2020/01/31 13:13:01.5	7.010	0.320	-0.800	0.700
2020/01/31 13:13:01.6	7.030	0.310	-0.810	0.660
2020/01/31 13:13:01.7	7.040	0.300	-0.810	0.630
2020/01/31 13:13:01.8	7.040	0.280	-0.810	0.590
2020/01/31 13:13:01.9	7.050	0.270	-0.790	0.550
2020/01/31 13:13:02.0	7.050	0.250	-0.770	0.520
2020/01/31 13:13:02.1	7.040	0.230	-0.740	0.480
2020/01/31 13:13:02.2	7.040	0.210	-0.710	0.440
2020/01/31 13:13:02.3	7.030	0.190	-0.680	0.400
2020/01/31 13:13:02.4	7.020	0.160	-0.640	0.360
2020/01/31 13:13:02.5	7.010	0.130	-0.590	0.320
2020/01/31 13:13:02.6	7.000	0.100	-0.540	0.280
2020/01/31 13:13:02.7	6.990	0.070	-0.490	0.230
2020/01/31 13:13:02.8	6.970	0.030	-0.440	0.190
2020/01/31 13:13:02.9	6.960	-0.000	-0.390	0.140
2020/01/31 13:13:03.0	6.940	-0.040	-0.330	0.090
2020/01/31 13:13:03.1	6.930	-0.080	-0.280	0.040
2020/01/31 13:13:03.2	6.920	-0.130	-0.230	-0.010
2020/01/31 13:13:03.3	6.910	-0.170	-0.180	-0.070
2020/01/31 13:13:03.4	6.900	-0.210	-0.130	-0.120
2020/01/31 13:13:03.5	6.890	-0.260	-0.090	-0.180
2020/01/31 13:13:03.6	6.890	-0.300	-0.050	-0.250
2020/01/31 13:13:03.7	6.890	-0.340	-0.010	-0.310
2020/01/31 13:13:03.8	6.890	-0.380	0.020	-0.380
2020/01/31 13:13:03.9	6.900	-0.420	0.040	-0.450
2020/01/31 13:13:04.0	6.900	-0.450	0.060	-0.520
2020/01/31 13:13:04.1	6.910	-0.490	0.080	-0.590
2020/01/31 13:13:04.2	6.920	-0.510	0.090	-0.660
2020/01/31 13:13:04.3	6.940	-0.540	0.090	-0.730
2020/01/31 13:13:04.4	6.950	-0.560	0.090	-0.800
2020/01/31 13:13:04.5	6.970	-0.580	0.080	-0.880
2020/01/31 13:13:04.6	6.960	-0.600	0.070	-0.950
2020/01/31 13:13:04.7	6.980	-0.610	0.060	-1.030
2020/01/31 13:13:04.8	7.010	-0.610	0.040	-1.100
2020/01/31 13:13:04.9	7.030	-0.610	0.010	-1.170
2020/01/31 13:13:05.0	7.050	-0.610	-0.010	-1.240
2020/01/31 13:13:05.1	7.070	-0.600	-0.040	-1.310
2020/01/31 13:13:05.2	7.090	-0.580	-0.070	-1.380
2020/01/31 13:13:05.3	7.120	-0.570	-0.100	-1.440
2020/01/31 13:13:05.4	7.140	-0.550	-0.130	-1.500
2020/01/31 13:13:05.5	7.160	-0.520	-0.160	-1.570
2020/01/31 13:13:05.6	7.180	-0.490	-0.180	-1.620
2020/01/31 13:13:05.7	7.200	-0.460	-0.210	-1.670
2020/01/31 13:13:05.8	7.220	-0.420	-0.240	-1.730
2020/01/31 13:13:05.9	7.230	-0.390	-0.270	-1.770
2020/01/31 13:13:06.0	7.240	-0.350	-0.290	-1.810
2020/01/31 13:13:06.1	7.250	-0.310	-0.310	-1.850
2020/01/31 13:13:06.2	7.260	-0.260	-0.330	-1.880
2020/01/31 13:13:06.3	7.260	-0.220	-0.340	-1.900
2020/01/31 13:13:06.4	7.260	-0.170	-0.350	-1.910
2020/01/31 13:13:06.5	7.250	-0.130	-0.350	-1.920
2020/01/31 13:13:06.6	7.230	-0.080	-0.360	-1.920
2020/01/31 13:13:06.7	7.210	-0.040	-0.350	-1.900
2020/01/31 13:13:06.8	7.190	0.000	-0.340	-1.880
2020/01/31 13:13:06.9	7.160	0.040	-0.330	-1.850
2020/01/31 13:13:07.0	7.130	0.080	-0.320	-1.810
2020/01/31 13:13:07.1	7.090	0.120	-0.300	-1.760
2020/01/31 13:13:07.2	7.050	0.160	-0.270	-1.710
2020/01/31 13:13:07.3	7.010	0.190	-0.250	-1.650
2020/01/31 13:13:07.4	6.970	0.220	-0.220	-1.580
2020/01/31 13:13:07.5	6.920	0.250	-0.200	-1.500
2020/01/31 13:13:07.6	6.880	0.270	-0.170	-1.420
2020/01/31 13:13:07.7	6.830	0.300	-0.140	-1.340
2020/01/31 13:13:07.8	6.790	0.320	-0.110	-1.250
2020/01/31 13:13:07.9	6.750	0.330	-0.090	-1.160
2020/01/31 13:13:08.0	6.710	0.350	-0.060	-1.070
2020/01/31 13:13:08.1	6.670	0.360	-0.040	-0.980
2020/01/31 13:13:08.2	6.630	0.370	-0.020	-0.890
2020/01/31 13:13:08.3	6.600	0.380	-0.010	-0.800
2020/01/31 13:13:08.4	6.570	0.390	0.010	-0.710
2020/01/31 13:13:08.5	6.540	0.400	0.020	-0.620
2020/01/31 13:13:08.6	6.520	0.400	0.020	-0.530
2020/01/31 13:13:08.7	6.500	0.400	0.020	-0.450
2020/01/31 13:13:08.8	6.480	0.400	0.020	-0.370
2020/01/31 13:13:08.9	6.470	0.400	0.010	-0.300
2020/01/31 13:13:09.0	6.470	0.400	0.000	-0.230
2020/01/31 13:13:09.1	6.460	0.400	-0.010	-0.160
2020/01/31 13:13:09.2	6.460	0.400	-0.020	-0.100
2020/01/31 13:13:09.3	6.470	0.390	-0.040	-0.040
2020/01/31 13:13:09.4	6.470	0.390	-0.060	0.010
2020/01/31 13:13:09.5	6.480	0.380	-0.070	0.070
2020/01/31 13:13:09.6	6.500	0.370	-0.090	0.120
2020/01/31 13:13:09.7	6.510	0.370	-0.100	0.180
2020/01/31 13:13:09.8	6.520	0.360	-0.120	0.230
2020/01/31 13:13:09.9	6.540	0.350	-0.130	0.270
2020/01/31 13:13:10.0	6.550	0.340	-0.140	0.320
2020/01/31 13:13:10.1	6.570	0.330	-0.150	0.370
2020/01/31 13:13:10.2	6.580	0.310	-0.150	0.410
2020/01/31 13:13:10.3	6.600	0.300	-0.150	0.460
2020/01/31 13:13:10.4	6.610	0.290	-0.150	0.510
2020/01/31 13:13:10.5	6.630	0.270	-0.150	0.550
2020/01/31 13:13:10.6	6.640	0.250	-0.140	0.600
2020/01/31 13:13:10.7	6.650	0.240	-0.130	0.640
2020/01/31 13:13:10.8	6.670	0.220	-0.120	0.690
2020/01/31 13:13:10.9	6.680	0.200	-0.100	0.730
2020/01/31 13:13:11.0	6.680	0.170	-0.080	0.770
2020/01/31 13:13:11.1	6.690	0.150	-0.060	0.820
2020/01/31 13:13:11.2	6.690	0.120	-0.040	0.850
2020/01/31 13:13:11.3	6.700	0.100	-0.020	0.890
2020/01/31 13:13:11.4	6.700	0.070	-0.000	0.930
2020/01/31 13:13:11.5	6.690	0.040	0.020	0.960
2020/01/31 13:13:11.6	6.710	0.010	0.040	0.990
2020/01/31 13:13:11.7	6.710	-0.020	0.050	1.010
2020/01/31 13:13:11.8	6.700	-0.060	0.070	1.030
2020/01/31 13:13:11.9	6.690	-0.090	0.080	1.050
2020/01/31 13:13:12.0	6.680	-0.120	0.100	1.060
2020/01/31 13:13:12.1	6.670	-0.160	0.110	1.070
2020/01/31 13:13:12.2	6.660	-0.190	0.110	1.070
2020/01/31 13:13:12.3	6.650	-0.230	0.120	1.060
2020/01/31 13:13:12.4	6.630	-0.260	0.120	1.050
2020/01/31 13:13:12.5	6.620	-0.290	0.110	1.040
2020/01/31 13:13:12.6	6.600	-0.330	0.110	1.020
2020/01/31 13:13:12.7	6.580	-0.360	0.100	1.000
2020/01/31 13:13:12.8	6.570	-0.390	0.090	0.970
2020/01/31 13:13:12.9	6.560	-0.420	0.070	0.940
2020/01/31 13:13:13.0	6.550	-0.440	0.050	0.910
2020/01/31 13:13:13.1	6.540	-0.470	0.020	0.870
2020/01/31 13:13:13.2	6.520	-0.490	-0.000	0.830
2020/01/31 13:13:13.3	6.510	-0.510	-0.030	0.780
2020/01/31 13:13:13.4	6.500	-0.530	-0.060	0.740
2020/01/31 13:13:13.5	6.490	-0.540	-0.100	0.690
2020/01/31 13:13:13.6	6.490	-0.550	-0.130	0.630
2020/01/31 13:13:13.7	6.480	-0.560	-0.170	0.580
2020/01/31 13:13:13.8	6.470	-0.570	-0.210	0.520
2020/01/31 13:13:13.9	6.460	-0.570	-0.250	0.470
2020/01/31 13:13:14.0	6.450	-0.570	-0.290	0.410
2020/01/31 13:13:14.1	6.440	-0.570	-0.330	0.350
2020/01/31 13:13:14.2	6.430	-0.560	-0.360	0.290
2020/01/31 13:13:14.3	6.410	-0.550	-0.400	0.220
2020/01/31 13:13:14.4	6.400	-0.530	-0.440	0.160
2020/01/31 13:13:14.5	6.390	-0.520	-0.470	0.100
2020/01/31 13:13:14.6	6.380	-0.500	-0.510	0.040
2020/01/31 13:13:14.7	6.370	-0.470	-0.540	-0.030
2020/01/31 13:13:14.8	6.350	-0.450	-0.570	-0.090
2020/01/31 13:13:14.9	6.330	-0.420	-0.600	-0.150
2020/01/31 13:13:15.0	6.310	-0.380	-0.620	-0.210
2020/01/31 13:13:15.1	6.290	-0.350	-0.640	-0.270
2020/01/31 13:13:15.2	6.270	-0.310	-0.660	-0.330
2020/01/31 13:13:15.3	6.250	-0.280	-0.670	-0.380
2020/01/31 13:13:15.4	6.230	-0.240	-0.690	-0.440
2020/01/31 13:13:15.5	6.210	-0.200	-0.700	-0.490
2020/01/31 13:13:15.6	6.180	-0.160	-0.700	-0.540
2020/01/31 13:13:15.7	6.160	-0.110	-0.710	-0.590
2020/01/31 13:13:15.8	6.140	-0.070	-0.710	-0.630
2020/01/31 13:13:15.9	6.110	-0.030	-0.710	-0.680
2020/01/31 13:13:16.0	6.090	0.010	-0.710	-0.720
2020/01/31 13:13:16.1	6.060	0.060	-0.710	-0.760
2020/01/31 13:13:16.2	6.040	0.100	-0.710	-0.800
2020/01/31 13:13:16.3	6.010	0.140	-0.700	-0.830
2020/01/31 13:13:16.4	5.990	0.180	-0.700	-0.860
2020/01/31 13:13:16.5	5.960	0.220	-0.690	-0.890
2020/01/31 13:13:16.6	5.930	0.260	-0.690	-0.920
2020/01/31 13:13:16.7	5.910	0.290	-0.680	-0.940
2020/01/31 13:13:16.8	5.890	0.330	-0.670	-0.960
2020/01/31 13:13:16.9	5.860	0.360	-0.660	-0.980
2020/01/31 13:13:17.0	5.840	0.400	-0.650	-1.000
2020/01/31 13:13:17.1	5.820	0.420	-0.640	-1.010
2020/01/31 13:13:17.2	5.800	0.450	-0.630	-1.020
2020/01/31 13:13:17.3	5.790	0.480	-0.610	-1.030
2020/01/31 13:13:17.4	5.770	0.500	-0.600	-1.030
2020/01/31 13:13:17.5	5.750	0.520	-0.580	-1.040
2020/01/31 13:13:17.6	5.740	0.540	-0.570	-1.040
2020/01/31 13:13:17.7	5.730	0.560	-0.550	-1.030
2020/01/31 13:13:17.8	5.720	0.580	-0.530	-1.030
2020/01/31 13:13:17.9	5.720	0.590	-0.510	-1.020
2020/01/31 13:13:18.0	5.710	0.600	-0.490	-1.020
2020/01/31 13:13:18.1	5.710	0.610	-0.470	-1.010
2020/01/31 13:13:18.2	5.710	0.620	-0.450	-1.000
2020/01/31 13:13:18.3	5.720	0.620	-0.430	-0.990
2020/01/31 13:13:18.4	5.720	0.620	-0.400	-0.980
2020/01/31 13:13:18.5	5.730	0.630	-0.380	-0.970
2020/01/31 13:13:18.6	5.750	0.620	-0.360	-0.960
2020/01/31 13:13:18.7	5.760	0.620	-0.330	-0.940
2020/01/31 13:13:18.8	5.780	0.610	-0.300	-0.930
2020/01/31 13:13:18.9	5.790	0.610	-0.260	-0.910
2020/01/31 13:13:19.0	5.810	0.600	-0.230	-0.900
2020/01/31 13:13:19.1	5.830	0.580	-0.200	-0.880
2020/01/31 13:13:19.2	5.850	0.570	-0.160	-0.860
2020/01/31 13:13:19.3	5.870	0.550	-0.120	-0.840
2020/01/31 13:13:19.4	5.890	0.530	-0.080	-0.810
2020/01/31 13:13:19.5	5.910	0.510	-0.030	-0.790
2020/01/31 13:13:19.6	5.910	0.480	0.010	-0.760
2020/01/31 13:13:19.7	5.920	0.450	0.060	-0.730
2020/01/31 13:13:19.8	5.940	0.420	0.110	-0.690
2020/01/31 13:13:19.9	5.950	0.380	0.160	-0.660
2020/01/31 13:13:20.0	5.950	0.350	0.210	-0.620
2020/01/31 13:13:20.1	5.950	0.310	0.270	-0.570
2020/01/31 13:13:20.2	5.950	0.260	0.320	-0.530
2020/01/31 13:13:20.3	5.950	0.220	0.380	-0.470
2020/01/31 13:13:20.4	5.940	0.170	0.440	-0.420
2020/01/31 13:13:20.5	5.920	0.120	0.500	-0.360
2020/01/31 13:13:20.6	5.900	0.070	0.550	-0.290
2020/01/31 13:13:20.7	5.870	0.020	0.610	-0.230
2020/01/31 13:13:20.8	5.850	-0.040	0.670	-0.160
2020/01/31 13:13:20.9	5.820	-0.100	0.720	-0.090
2020/01/31 13:13:21.0	5.780	-0.150	0.770	-0.020
2020/01/31 13:13:21.1	5.740	-0.210	0.820	0.050
2020/01/31 13:13:21.2	5.700	-0.270	0.870	0.130
2020/01/31 13:13:21.3	5.660	-0.330	0.910	0.200
2020/01/31 13:13:21.4	5.610	-0.390	0.940	0.270
2020/01/31 13:13:21.5	5.560	-0.440	0.970	0.340
2020/01/31 13:13:21.6	5.520	-0.500	0.990	0.420
2020/01/31 13:13:21.7	5.470	-0.550	1.010	0.480
2020/01/31 13:13:21.8	5.420	-0.600	1.010	0.540
2020/01/31 13:13:21.9	5.360	-0.650	1.010	0.600
2020/01/31 13:13:22.0	5.310	-0.700	1.000	0.660
2020/01/31 13:13:22.1	5.260	-0.740	0.980	0.700
2020/01/31 13:13:22.2	5.210	-0.780	0.950	0.750
2020/01/31 13:13:22.3	5.170	-0.810	0.900	0.780
2020/01/31 13:13:22.4	5.130	-0.840	0.850	0.810
2020/01/31 13:13:22.5	5.090	-0.860	0.790	0.830
2020/01/31 13:13:22.6	5.050	-0.870	0.720	0.840
2020/01/31 13:13:22.7	5.020	-0.880	0.640	0.850
2020/01/31 13:13:22.8	5.000	-0.880	0.550	0.840
2020/01/31 13:13:22.9	4.980	-0.880	0.450	0.830
2020/01/31 13:13:23.0	4.960	-0.870	0.340	0.810
2020/01/31 13:13:23.1	4.950	-0.850	0.220	0.790
2020/01/31 13:13:23.2	4.940	-0.830	0.100	0.750
2020/01/31 13:13:23.3	4.940	-0.800	-0.030	0.710
2020/01/31 13:13:23.4	4.940	-0.760	-0.160	0.670
2020/01/31 13:13:23.5	4.940	-0.720	-0.300	0.620
2020/01/31 13:13:23.6	4.940	-0.680	-0.430	0.570
2020/01/31 13:13:23.7	4.940	-0.630	-0.570	0.520
2020/01/31 13:13:23.8	4.960	-0.570	-0.700	0.470
2020/01/31 13:13:23.9	4.970	-0.510	-0.830	0.410
2020/01/31 13:13:24.0	4.980	-0.450	-0.960	0.360
2020/01/31 13:13:24.1	5.000	-0.390	-1.080	0.300
2020/01/31 13:13:24.2	5.010	-0.320	-1.200	0.240
2020/01/31 13:13:24.3	5.030	-0.250	-1.310	0.180
2020/01/31 13:13:24.4	5.050	-0.190	-1.410	0.120
2020/01/31 13:13:24.5	5.080	-0.120	-1.500	0.060
2020/01/31 13:13:24.6	5.110	-0.050	-1.590	-0.010
2020/01/31 13:13:24.7	5.130	0.020	-1.660	-0.070
2020/01/31 13:13:24.8	5.160	0.080	-1.720	-0.130
2020/01/31 13:13:24.9	5.190	0.150	-1.770	-0.190
2020/01/31 13:13:25.0	5.220	0.210	-1.810	-0.260
2020/01/31 13:13:25.1	5.260	0.270	-1.840	-0.320
2020/01/31 13:13:25.2	5.290	0.320	-1.860	-0.380
2020/01/31 13:13:25.3	5.330	0.380	-1.860	-0.440
2020/01/31 13:13:25.4	5.360	0.420	-1.860	-0.500
2020/01/31 13:13:25.5	5.400	0.470	-1.840	-0.550
2020/01/31 13:13:25.6	5.430	0.510	-1.810	-0.600
2020/01/31 13:13:25.7	5.470	0.550	-1.770	-0.650
2020/01/31 13:13:25.8	5.500	0.580	-1.720	-0.690
2020/01/31 13:13:25.9	5.530	0.610	-1.660	-0.730
2020/01/31 13:13:26.0	5.560	0.630	-1.590	-0.760
2020/01/31 13:13:26.1	5.590	0.640	-1.510	-0.780
2020/01/31 13:13:26.2	5.610	0.660	-1.420	-0.800
2020/01/31 13:13:26.3	5.630	0.660	-1.320	-0.810
2020/01/31 13:13:26.4	5.640	0.670	-1.210	-0.810
2020/01/31 13:13:26.5	5.640	0.660	-1.100	-0.800
2020/01/31 13:13:26.6	5.640	0.650	-0.990	-0.780
2020/01/31 13:13:26.7	5.640	0.640	-0.860	-0.760
2020/01/31 13:13:26.8	5.620	0.620	-0.730	-0.730
2020/01/31 13:13:26.9	5.600	0.600	-0.600	-0.690
2020/01/31 13:13:27.0	5.580	0.570	-0.470	-0.650
2020/01/31 13:13:27.1	5.550	0.540	-0.340	-0.610
2020/01/31 13:13:27.2	5.520	0.510	-0.200	-0.560
2020/01/31 13:13:27.3	5.490	0.470	-0.070	-0.510
2020/01/31 13:13:27.4	5.450	0.430	0.050	-0.460
2020/01/31 13:13:27.5	5.400	0.390	0.180	-0.410
2020/01/31 13:13:27.6	5.350	0.350	0.290	-0.350
2020/01/31 13:13:27.7	5.300	0.300	0.410	-0.300
2020/01/31 13:13:27.8	5.250	0.260	0.510	-0.240
2020/01/31 13:13:27.9	5.200	0.210	0.610	-0.190
2020/01/31 13:13:28.0	5.150	0.160	0.700	-0.140
2020/01/31 13:13:28.1	5.100	0.120	0.790	-0.090
2020/01/31 13:13:28.2	5.040	0.080	0.860	-0.040
2020/01/31 13:13:28.3	4.990	0.030	0.920	0.000
2020/01/31 13:13:28.4	4.940	-0.000	0.980	0.040
2020/01/31 13:13:28.5	4.890	-0.040	1.020	0.080
2020/01/31 13:13:28.6	4.840	-0.070	1.060	0.110
2020/01/31 13:13:28.7	4.800	-0.100	1.090	0.140
2020/01/31 13:13:28.8	4.750	-0.130	1.100	0.170
2020/01/31 13:13:28.9	4.710	-0.150	1.110	0.200
2020/01/31 13:13:29.0	4.670	-0.170	1.110	0.220
2020/01/31 13:13:29.1	4.630	-0.190	1.100	0.250
2020/01/31 13:13:29.2	4.600	-0.200	1.080	0.260
2020/01/31 13:13:29.3	4.560	-0.200	1.060	0.280
2020/01/31 13:13:29.4	4.530	-0.210	1.020	0.300
2020/01/31 13:13:29.5	4.500	-0.200	0.980	0.310
2020/01/31 13:13:29.6	4.480	-0.200	0.940	0.320
2020/01/31 13:13:29.7	4.460	-0.190	0.890	0.330
2020/01/31 13:13:29.8	4.440	-0.180	0.830	0.330
2020/01/31 13:13:29.9	4.420	-0.170	0.770	0.330
2020/01/31 13:13:30.0	4.410	-0.150	0.710	0.330
2020/01/31 13:13:30.1	4.390	-0.130	0.640	0.330
2020/01/31 13:13:30.2	4.380	-0.120	0.570	0.320
2020/01/31 13:13:30.3	4.380	-0.090	0.490	0.310
2020/01/31 13:13:30.4	4.370	-0.070	0.420	0.300
2020/01/31 13:13:30.5	4.370	-0.050	0.340	0.290
2020/01/31 13:13:30.6	4.370	-0.030	0.260	0.270
2020/01/31 13:13:30.7	4.370	-0.010	0.180	0.250
2020/01/31 13:13:30.8	4.370	0.010	0.100	0.230
2020/01/31 13:13:30.9	4.380	0.040	0.020	0.200
2020/01/31 13:13:31.0	4.380	0.050	-0.050	0.170
2020/01/31 13:13:31.1	4.390	0.070	-0.130	0.140
2020/01/31 13:13:31.2	4.390	0.090	-0.200	0.110
2020/01/31 13:13:31.3	4.400	0.100	-0.280	0.080
2020/01/31 13:13:31.4	4.410	0.110	-0.350	0.040
2020/01/31 13:13:31.5	4.420	0.120	-0.410	0.000
2020/01/31 13:13:31.6	4.440	0.130	-0.470	-0.040
2020/01/31 13:13:31.7	4.440	0.130	-0.530	-0.080
2020/01/31 13:13:31.8	4.450	0.130	-0.590	-0.130
2020/01/31 13:13:31.9	4.460	0.130	-0.640	-0.170
2020/01/31 13:13:32.0	4.470	0.120	-0.680	-0.220
2020/01/31 13:13:32.1	4.480	0.110	-0.720	-0.270
2020/01/31 13:13:32.2	4.490	0.100	-0.760	-0.320
2020/01/31 13:13:32.3	4.490	0.090	-0.790	-0.370
2020/01/31 13:13:32.4	4.500	0.070	-0.820	-0.410
2020/01/31 13:13:32.5	4.500	0.050	-0.840	-0.460
2020/01/31 13:13:32.6	4.500	0.030	-0.850	-0.510
2020/01/31 13:13:32.7	4.510	0.000	-0.860	-0.550
2020/01/31 13:13:32.8	4.510	-0.020	-0.870	-0.590
2020/01/31 13:13:32.9	4.510	-0.050	-0.860	-0.630
2020/01/31 13:13:33.0	4.510	-0.080	-0.860	-0.660
2020/01/31 13:13:33.1	4.510	-0.110	-0.850	-0.700
2020/01/31 13:13:33.2	4.510	-0.140	-0.830	-0.730
2020/01/31 13:13:33.3	4.510	-0.170	-0.820	-0.750
2020/01/31 13:13:33.4	4.510	-0.210	-0.790	-0.780
2020/01/31 13:13:33.5	4.510	-0.240	-0.770	-0.800
2020/01/31 13:13:33.6	4.500	-0.270	-0.740	-0.820
2020/01/31 13:13:33.7	4.500	-0.300	-0.710	-0.840
2020/01/31 13:13:33.8	4.510	-0.330	-0.680	-0.850
2020/01/31 13:13:33.9	4.510	-0.360	-0.650	-0.870
2020/01/31 13:13:34.0	4.510	-0.380	-0.620	-0.880
2020/01/31 13:13:34.1	4.510	-0.410	-0.590	-0.890
2020/01/31 13:13:34.2	4.520	-0.430	-0.560	-0.900
2020/01/31 13:13:34.3	4.520	-0.450	-0.530	-0.910
2020/01/31 13:13:34.4	4.520	-0.470	-0.490	-0.920
2020/01/31 13:13:34.5	4.530	-0.480	-0.460	-0.930
2020/01/31 13:13:34.6	4.520	-0.490	-0.440	-0.940
2020/01/31 13:13:34.7	4.530	-0.500	-0.410	-0.940
2020/01/31 13:13:34.8	4.530	-0.510	-0.390	-0.940
2020/01/31 13:13:34.9	4.540	-0.510	-0.360	-0.950
2020/01/31 13:13:35.0	4.540	-0.510	-0.340	-0.950
2020/01/31 13:13:35.1	4.540	-0.500	-0.320	-0.950
2020/01/31 13:13:35.2	4.550	-0.490	-0.300	-0.940
2020/01/31 13:13:35.3	4.550	-0.480	-0.290	-0.930
2020/01/31 13:13:35.4	4.550	-0.470	-0.270	-0.920
2020/01/31 13:13:35.5	4.550	-0.450	-0.260	-0.910
2020/01/31 13:13:35.6	4.550	-0.420	-0.250	-0.890
2020/01/31 13:13:35.7	4.550	-0.400	-0.250	-0.870
2020/01/31 13:13:35.8	4.550	-0.370	-0.240	-0.840
2020/01/31 13:13:35.9	4.550	-0.340	-0.240	-0.820
2020/01/31 13:13:36.0	4.550	-0.310	-0.240	-0.790
2020/01/31 13:13:36.1	4.550	-0.270	-0.230	-0.750
2020/01/31 13:13:36.2	4.550	-0.230	-0.240	-0.720
2020/01/31 13:13:36.3	4.550	-0.190	-0.240	-0.680
2020/01/31 13:13:36.4	4.550	-0.150	-0.240	-0.630
2020/01/31 13:13:36.5	4.550	-0.110	-0.250	-0.590
2020/01/31 13:13:36.6	4.560	-0.060	-0.260	-0.540
2020/01/31 13:13:36.7	4.570	-0.020	-0.260	-0.500
2020/01/31 13:13:36.8	4.580	0.020	-0.270	-0.450
2020/01/31 13:13:36.9	4.590	0.070	-0.280	-0.400
2020/01/31 13:13:37.0	4.600	0.110	-0.290	-0.350
2020/01/31 13:13:37.1	4.610	0.160	-0.300	-0.300
2020/01/31 13:13:37.2	4.620	0.200	-0.310	-0.250
2020/01/31 13:13:37.3	4.630	0.240	-0.310	-0.200
2020/01/31 13:13:37.4	4.650	0.280	-0.320	-0.150
2020/01/31 13:13:37.5	4.660	0.320	-0.330	-0.100
2020/01/31 13:13:37.6	4.670	0.360	-0.330	-0.040
2020/01/31 13:13:37.7	4.690	0.390	-0.330	0.010
2020/01/31 13:13:37.8	4.700	0.420	-0.330	0.070
2020/01/31 13:13:37.9	4.710	0.440	-0.320	0.130
2020/01/31 13:13:38.0	4.710	0.460	-0.310	0.180
2020/01/31 13:13:38.1	4.710	0.480	-0.300	0.240
2020/01/31 13:13:38.2	4.720	0.490	-0.290	0.300
2020/01/31 13:13:38.3	4.710	0.500	-0.270	0.360
2020/01/31 13:13:38.4	4.710	0.510	-0.250	0.430
2020/01/31 13:13:38.5	4.700	0.510	-0.220	0.490
2020/01/31 13:13:38.6	4.700	0.500	-0.200	0.550
2020/01/31 13:13:38.7	4.680	0.490	-0.170	0.610
2020/01/31 13:13:38.8	4.660	0.480	-0.140	0.670
2020/01/31 13:13:38.9	4.640	0.470	-0.100	0.740
2020/01/31 13:13:39.0	4.620	0.450	-0.070	0.800
2020/01/31 13:13:39.1	4.600	0.420	-0.030	0.860
2020/01/31 13:13:39.2	4.570	0.400	0.010	0.920
2020/01/31 13:13:39.3	4.540	0.370	0.050	0.970
2020/01/31 13:13:39.4	4.510	0.340	0.090	1.030
2020/01/31 13:13:39.5	4.480	0.310	0.130	1.080
2020/01/31 13:13:39.6	4.430	0.270	0.170	1.130
2020/01/31 13:13:39.7	4.400	0.240	0.200	1.170
2020/01/31 13:13:39.8	4.360	0.200	0.230	1.210
2020/01/31 13:13:39.9	4.330	0.170	0.260	1.240
2020/01/31 13:13:40.0	4.300	0.130	0.290	1.270
2020/01/31 13:13:40.1	4.270	0.100	0.310	1.290
2020/01/31 13:13:40.2	4.250	0.070	0.330	1.310
2020/01/31 13:13:40.3	4.220	0.030	0.350	1.320
2020/01/31 13:13:40.4	4.200	0.010	0.360	1.320
2020/01/31 13:13:40.5	4.180	-0.020	0.360	1.310
2020/01/31 13:13:40.6	4.160	-0.040	0.360	1.300
2020/01/31 13:13:40.7	4.150	-0.060	0.360	1.280
2020/01/31 13:13:40.8	4.130	-0.080	0.350	1.250
2020/01/31 13:13:40.9	4.120	-0.090	0.340	1.220
2020/01/31 13:13:41.0	4.110	-0.100	0.320	1.180
2020/01/31 13:13:41.1	4.100	-0.110	0.300	1.140
2020/01/31 13:13:41.2	4.090	-0.110	0.280	1.100
2020/01/31 13:13:41.3	4.090	-0.110	0.250	1.050
2020/01/31 13:13:41.4	4.080	-0.110	0.220	1.000
2020/01/31 13:13:41.5	4.070	-0.100	0.190	0.950
2020/01/31 13:13:41.6	4.060	-0.090	0.160	0.890
2020/01/31 13:13:41.7	4.060	-0.080	0.120	0.840
2020/01/31 13:13:41.8	4.050	-0.070	0.090	0.780
2020/01/31 13:13:41.9	4.050	-0.050	0.050	0.720
2020/01/31 13:13:42.0	4.050	-0.030	0.010	0.660
2020/01/31 13:13:42.1	4.050	-0.010	-0.020	0.600
2020/01/31 13:13:42.2	4.040	0.010	-0.060	0.540
2020/01/31 13:13:42.3	4.040	0.030	-0.090	0.480
2020/01/31 13:13:42.4	4.040	0.050	-0.120	0.420
2020/01/31 13:13:42.5	4.040	0.070	-0.150	0.360
2020/01/31 13:13:42.6	4.050	0.090	-0.180	0.290
2020/01/31 13:13:42.7	4.050	0.110	-0.210	0.230
2020/01/31 13:13:42.8	4.050	0.130	-0.240	0.180
2020/01/31 13:13:42.9	4.060	0.140	-0.260	0.120
2020/01/31 13:13:43.0	4.060	0.160	-0.290	0.060
2020/01/31 13:13:43.1	4.060	0.170	-0.310	0.010
2020/01/31 13:13:43.2	4.070	0.190	-0.340	-0.040
2020/01/31 13:13:43.3	4.070	0.200	-0.360	-0.100
2020/01/31 13:13:43.4	4.080	0.200	-0.380	-0.150
2020/01/31 13:13:43.5	4.080	0.210	-0.400	-0.190
2020/01/31 13:13:43.6	4.100	0.210	-0.420	-0.240
2020/01/31 13:13:43.7	4.100	0.220	-0.450	-0.280
2020/01/31 13:13:43.8	4.110	0.220	-0.470	-0.330
2020/01/31 13:13:43.9	4.120	0.210	-0.490	-0.370
2020/01/31 13:13:44.0	4.130	0.210	-0.510	-0.410
2020/01/31 13:13:44.1	4.150	0.200	-0.530	-0.450
2020/01/31 13:13:44.2	4.160	0.200	-0.550	-0.500
2020/01/31 13:13:44.3	4.180	0.190	-0.570	-0.540
2020/01/31 13:13:44.4	4.190	0.180	-0.590	-0.580
2020/01/31 13:13:44.5	4.210	0.170	-0.610	-0.620
2020/01/31 13:13:44.6	4.220	0.160	-0.630	-0.660
2020/01/31 13:13:44.7	4.250	0.140	-0.650	-0.700
2020/01/31 13:13:44.8	4.270	0.130	-0.670	-0.740
2020/01/31 13:13:44.9	4.300	0.110	-0.690	-0.780
2020/01/31 13:13:45.0	4.330	0.100	-0.710	-0.820
2020/01/31 13:13:45.1	4.360	0.080	-0.730	-0.870
2020/01/31 13:13:45.2	4.390	0.070	-0.750	-0.910
2020/01/31 13:13:45.3	4.420	0.050	-0.760	-0.950
2020/01/31 13:13:45.4	4.450	0.040	-0.780	-0.990
2020/01/31 13:13:45.5	4.490	0.020	-0.790	-1.030
2020/01/31 13:13:45.6	4.520	0.010	-0.800	-1.060
2020/01/31 13:13:45.7	4.550	-0.010	-0.810	-1.090
2020/01/31 13:13:45.8	4.590	-0.020	-0.810	-1.130
2020/01/31 13:13:45.9	4.630	-0.040	-0.810	-1.150
2020/01/31 13:13:46.0	4.660	-0.050	-0.800	-1.180
2020/01/31 13:13:46.1	4.700	-0.070	-0.800	-1.200
2020/01/31 13:13:46.2	4.730	-0.080	-0.780	-1.220
2020/01/31 13:13:46.3	4.770	-0.090	-0.760	-1.230
2020/01/31 13:13:46.4	4.800	-0.110	-0.740	-1.240
2020/01/31 13:13:46.5	4.840	-0.120	-0.710	-1.240
2020/01/31 13:13:46.6	4.870	-0.130	-0.690	-1.240
2020/01/31 13:13:46.7	4.910	-0.150	-0.650	-1.230
2020/01/31 13:13:46.8	4.940	-0.160	-0.610	-1.220
2020/01/31 13:13:46.9	4.960	-0.170	-0.560	-1.200
2020/01/31 13:13:47.0	4.990	-0.190	-0.510	-1.180
2020/01/31 13:13:47.1	5.020	-0.200	-0.460	-1.160
2020/01/31 13:13:47.2	5.040	-0.210	-0.400	-1.130
2020/01/31 13:13:47.3	5.060	-0.220	-0.340	-1.100
2020/01/31 13:13:47.4	5.080	-0.240	-0.280	-1.060
2020/01/31 13:13:47.5	5.100	-0.250	-0.220	-1.020
2020/01/31 13:13:47.6	5.130	-0.270	-0.150	-0.970
2020/01/31 13:13:47.7	5.150	-0.280	-0.090	-0.930
2020/01/31 13:13:47.8	5.160	-0.290	-0.020	-0.880
2020/01/31 13:13:47.9	5.170	-0.310	0.040	-0.830
2020/01/31 13:13:48.0	5.170	-0.320	0.110	-0.780
2020/01/31 13:13:48.1	5.180	-0.340	0.170	-0.720
2020/01/31 13:13:48.2	5.180	-0.360	0.230	-0.670
2020/01/31 13:13:48.3	5.180	-0.370	0.290	-0.610
2020/01/31 13:13:48.4	5.180	-0.390	0.340	-0.550
2020/01/31 13:13:48.5	5.180	-0.400	0.390	-0.500
2020/01/31 13:13:48.6	5.190	-0.420	0.440	-0.430
2020/01/31 13:13:48.7	5.180	-0.430	0.480	-0.370
2020/01/31 13:13:48.8	5.170	-0.450	0.520	-0.310
2020/01/31 13:13:48.9	5.170	-0.460	0.550	-0.260
2020/01/31 13:13:49.0	5.160	-0.480	0.580	-0.200
2020/01/31 13:13:49.1	5.150	-0.490	0.610	-0.150
2020/01/31 13:13:49.2	5.130	-0.500	0.630	-0.090
2020/01/31 13:13:49.3	5.120	-0.510	0.640	-0.040
2020/01/31 13:13:49.4	5.110	-0.520	0.650	0.010
2020/01/31 13:13:49.5	5.100	-0.530	0.650	0.050
2020/01/31 13:13:49.6	5.100	-0.540	0.650	0.100
2020/01/31 13:13:49.7	5.090	-0.540	0.640	0.140
2020/01/31 13:13:49.8	5.080	-0.540	0.630	0.170
2020/01/31 13:13:49.9	5.070	-0.540	0.600	0.200
2020/01/31 13:13:50.0	5.060	-0.540	0.580	0.230
2020/01/31 13:13:50.1	5.060	-0.540	0.540	0.260
2020/01/31 13:13:50.2	5.050	-0.530	0.510	0.280
2020/01/31 13:13:50.3	5.050	-0.520	0.460	0.300
2020/01/31 13:13:50.4	5.040	-0.500	0.420	0.310
2020/01/31 13:13:50.5	5.040	-0.480	0.360	0.320
2020/01/31 13:13:50.6	5.040	-0.460	0.300	0.330
2020/01/31 13:13:50.7	5.040	-0.440	0.240	0.340
2020/01/31 13:13:50.8	5.040	-0.410	0.180	0.340
2020/01/31 13:13:50.9	5.050	-0.370	0.110	0.350
2020/01/31 13:13:51.0	5.050	-0.340	0.040	0.350
2020/01/31 13:13:51.1	5.050	-0.300	-0.030	0.340
2020/01/31 13:13:51.2	5.050	-0.260	-0.110	0.340
2020/01/31 13:13:51.3	5.050	-0.210	-0.180	0.340
2020/01/31 13:13:51.4	5.050	-0.160	-0.260	0.340
2020/01/31 13:13:51.5	5.050	-0.110	-0.330	0.330
2020/01/31 13:13:51.6	5.050	-0.050	-0.400	0.330
2020/01/31 13:13:51.7	5.050	0.000	-0.470	0.320
2020/01/31 13:13:51.8	5.050	0.060	-0.540	0.320
2020/01/31 13:13:51.9	5.050	0.120	-0.600	0.320
2020/01/31 13:13:52.0	5.050	0.190	-0.660	0.320
2020/01/31 13:13:52.1	5.040	0.250	-0.720	0.320
2020/01/31 13:13:52.2	5.040	0.320	-0.770	0.320
2020/01/31 13:13:52.3	5.040	0.380	-0.810	0.320
2020/01/31 13:13:52.4	5.040	0.440	-0.850	0.330
2020/01/31 13:13:52.5	5.030	0.510	-0.880	0.330
2020/01/31 13:13:52.6	5.040	0.570	-0.910	0.340
2020/01/31 13:13:52.7	5.040	0.630	-0.930	0.350
2020/01/31 13:13:52.8	5.030	0.690	-0.950	0.360
2020/01/31 13:13:52.9	5.030	0.740	-0.960	0.370
2020/01/31 13:13:53.0	5.030	0.790	-0.960	0.380
2020/01/31 13:13:53.1	5.040	0.840	-0.960	0.390
2020/01/31 13:13:53.2	5.040	0.880	-0.950	0.400
2020/01/31 13:13:53.3	5.040	0.920	-0.940	0.410
2020/01/31 13:13:53.4	5.050	0.950	-0.920	0.420
2020/01/31 13:13:53.5	5.050	0.980	-0.900	0.430
2020/01/31 13:13:53.6	5.050	1.000	-0.870	0.440
2020/01/31 13:13:53.7	5.050	1.020	-0.850	0.450
2020/01/31 13:13:53.8	5.060	1.030	-0.810	0.450
2020/01/31 13:13:53.9	5.070	1.040	-0.780	0.450
2020/01/31 13:13:54.0	5.090	1.030	-0.740	0.450
2020/01/31 13:13:54.1	5.100	1.020	-0.700	0.450
2020/01/31 13:13:54.2	5.110	1.010	-0.660	0.450
2020/01/31 13:13:54.3	5.130	0.990	-0.620	0.440
2020/01/31 13:13:54.4	5.140	0.960	-0.570	0.430
2020/01/31 13:13:54.5	5.160	0.920	-0.530	0.410
2020/01/31 13:13:54.6	5.200	0.880	-0.490	0.390
2020/01/31 13:13:54.7	5.220	0.840	-0.440	0.370
2020/01/31 13:13:54.8	5.240	0.790	-0.400	0.340
2020/01/31 13:13:54.9	5.260	0.730	-0.360	0.310
2020/01/31 13:13:55.0	5.280	0.670	-0.320	0.280
2020/01/31 13:13:55.1	5.300	0.600	-0.280	0.240
2020/01/31 13:13:55.2	5.320	0.530	-0.240	0.190
2020/01/31 13:13:55.3	5.340	0.460	-0.200	0.140
2020/01/31 13:13:55.4	5.360	0.390	-0.170	0.090
2020/01/31 13:13:55.5	5.380	0.310	-0.140	0.040
2020/01/31 13:13:55.6	5.410	0.230	-0.100	-0.020
2020/01/31 13:13:55.7	5.430	0.150	-0.070	-0.080
2020/01/31 13:13:55.8	5.450	0.070	-0.040	-0.150
2020/01/31 13:13:55.9	5.460	-0.010	-0.020	-0.210
2020/01/31 13:13:56.0	5.480	-0.090	0.010	-0.270
2020/01/31 13:13:56.1	5.490	-0.160	0.030	-0.340
2020/01/31 13:13:56.2	5.500	-0.240	0.060	-0.400
2020/01/31 13:13:56.3	5.500	-0.320	0.080	-0.470
2020/01/31 13:13:56.4	5.510	-0.390	0.100	-0.530
2020/01/31 13:13:56.5	5.510	-0.460	0.120	-0.590
2020/01/31 13:13:56.6	5.510	-0.530	0.150	-0.650
2020/01/31 13:13:56.7	5.510	-0.590	0.160	-0.710
2020/01/31 13:13:56.8	5.500	-0.650	0.180	-0.770
2020/01/31 13:13:56.9	5.490	-0.700	0.200	-0.830
2020/01/31 13:13:57.0	5.480	-0.750	0.210	-0.880
2020/01/31 13:13:57.1	5.470	-0.790	0.230	-0.930
2020/01/31 13:13:57.2	5.460	-0.830	0.240	-0.980
2020/01/31 13:13:57.3	5.450	-0.860	0.250	-1.030
2020/01/31 13:13:57.4	5.430	-0.890	0.260	-1.070
2020/01/31 13:13:57.5	5.420	-0.910	0.270	-1.110
2020/01/31 13:13:57.6	5.390	-0.930	0.280	-1.150
2020/01/31 13:13:57.7	5.380	-0.940	0.280	-1.180
2020/01/31 13:13:57.8	5.360	-0.940	0.280	-1.220
2020/01/31 13:13:57.9	5.340	-0.940	0.280	-1.250
2020/01/31 13:13:58.0	5.330	-0.930	0.280	-1.280
2020/01/31 13:13:58.1	5.310	-0.920	0.270	-1.300
2020/01/31 13:13:58.2	5.290	-0.900	0.260	-1.320
2020/01/31 13:13:58.3	5.280	-0.870	0.250	-1.340
2020/01/31 13:13:58.4	5.260	-0.850	0.230	-1.360
2020/01/31 13:13:58.5	5.250	-0.810	0.220	-1.380
2020/01/31 13:13:58.6	5.220	-0.770	0.200	-1.390
2020/01/31 13:13:58.7	5.200	-0.730	0.170	-1.400
2020/01/31 13:13:58.8	5.190	-0.690	0.150	-1.410
2020/01/31 13:13:58.9	5.170	-0.640	0.120	-1.410
2020/01/31 13:13:59.0	5.160	-0.590	0.090	-1.420
2020/01/31 13:13:59.1	5.140	-0.530	0.060	-1.410
2020/01/31 13:13:59.2	5.130	-0.480	0.030	-1.410
2020/01/31 13:13:59.3	5.110	-0.420	-0.000	-1.400
2020/01/31 13:13:59.4	5.100	-0.360	-0.040	-1.390
2020/01/31 13:13:59.5	5.080	-0.300	-0.070	-1.380
2020/01/31 13:13:59.6	5.070	-0.240	-0.110	-1.360
2020/01/31 13:13:59.7	5.050	-0.190	-0.140	-1.340
2020/01/31 13:13:59.8	5.040	-0.130	-0.180	-1.310
2020/01/31 13:13:59.9	5.030	-0.070	-0.210	-1.290
2020/01/31 13:14:00.0	5.020	-0.010	-0.250	-1.260
2020/01/31 13:14:00.1	5.010	0.040	-0.280	-1.230
2020/01/31 13:14:00.2	5.000	0.100	-0.320	-1.200
2020/01/31 13:14:00.3	4.990	0.150	-0.350	-1.160
2020/01/31 13:14:00.4	4.980	0.200	-0.380	-1.120
2020/01/31 13:14:00.5	4.970	0.240	-0.400	-1.090
2020/01/31 13:14:00.6	4.960	0.290	-0.430	-1.040
2020/01/31 13:14:00.7	4.950	0.330	-0.460	-1.000
2020/01/31 13:14:00.8	4.950	0.360	-0.480	-0.950
2020/01/31 13:14:00.9	4.940	0.400	-0.490	-0.910
2020/01/31 13:14:01.0	4.930	0.420	-0.510	-0.870
2020/01/31 13:14:01.1	4.930	0.450	-0.520	-0.820
2020/01/31 13:14:01.2	4.920	0.470	-0.530	-0.770
2020/01/31 13:14:01.3	4.910	0.490	-0.530	-0.720
2020/01/31 13:14:01.4	4.910	0.500	-0.530	-0.670
2020/01/31 13:14:01.5	4.900	0.510	-0.530	-0.620
2020/01/31 13:14:01.6	4.900	0.520	-0.530	-0.570
2020/01/31 13:14:01.7	4.900	0.520	-0.520	-0.510
2020/01/31 13:14:01.8	4.890	0.510	-0.510	-0.460
2020/01/31 13:14:01.9	4.880	0.510	-0.500	-0.400
2020/01/31 13:14:02.0	4.870	0.500	-0.480	-0.350
2020/01/31 13:14:02.1	4.860	0.490	-0.470	-0.290
2020/01/31 13:14:02.2	4.850	0.470	-0.440	-0.240
2020/01/31 13:14:02.3	4.830	0.450	-0.420	-0.180
2020/01/31 13:14:02.4	4.820	0.430	-0.400	-0.120
2020/01/31 13:14:02.5	4.800	0.410	-0.370	-0.060
2020/01/31 13:14:02.6	4.790	0.380	-0.340	-0.000
2020/01/31 13:14:02.7	4.770	0.360	-0.320	0.050
2020/01/31 13:14:02.8	4.760	0.330	-0.290	0.110
2020/01/31 13:14:02.9	4.740	0.300	-0.260	0.170
2020/01/31 13:14:03.0	4.720	0.270	-0.230	0.220
2020/01/31 13:14:03.1	4.690	0.240	-0.200	0.270
2020/01/31 13:14:03.2	4.670	0.200	-0.170	0.330
2020/01/31 13:14:03.3	4.650	0.170	-0.140	0.380
2020/01/31 13:14:03.4	4.630	0.140	-0.110	0.430
2020/01/31 13:14:03.5	4.600	0.110	-0.080	0.480
2020/01/31 13:14:03.6	4.590	0.080	-0.060	0.520
2020/01/31 13:14:03.7	4.560	0.050	-0.040	0.570
2020/01/31 13:14:03.8	4.540	0.020	-0.020	0.610
2020/01/31 13:14:03.9	4.520	-0.000	-0.000	0.650
2020/01/31 13:14:04.0	4.500	-0.030	0.010	0.680
2020/01/31 13:14:04.1	4.470	-0.050	0.020	0.720
2020/01/31 13:14:04.2	4.450	-0.070	0.020	0.750
2020/01/31 13:14:04.3	4.430	-0.090	0.020	0.780
2020/01/31 13:14:04.4	4.420	-0.110	0.020	0.810
2020/01/31 13:14:04.5	4.400	-0.130	0.010	0.830
2020/01/31 13:14:04.6	4.370	-0.140	-0.010	0.850
2020/01/31 13:14:04.7	4.360	-0.150	-0.030	0.860
2020/01/31 13:14:04.8	4.340	-0.160	-0.050	0.880
2020/01/31 13:14:04.9	4.340	-0.170	-0.070	0.880
2020/01/31 13:14:05.0	4.330	-0.180	-0.110	0.880
2020/01/31 13:14:05.1	4.330	-0.180	-0.140	0.880
2020/01/31 13:14:05.2	4.320	-0.180	-0.180	0.870
2020/01/31 13:14:05.3	4.330	-0.180	-0.220	0.860
2020/01/31 13:14:05.4	4.330	-0.180	-0.260	0.850
2020/01/31 13:14:05.5	4.340	-0.180	-0.300	0.830
2020/01/31 13:14:05.6	4.350	-0.170	-0.350	0.800
2020/01/31 13:14:05.7	4.360	-0.160	-0.390	0.770
2020/01/31 13:14:05.8	4.370	-0.160	-0.440	0.740
2020/01/31 13:14:05.9	4.390	-0.150	-0.490	0.700
2020/01/31 13:14:06.0	4.410	-0.140	-0.530	0.670
2020/01/31 13:14:06.1	4.430	-0.120	-0.570	0.630
2020/01/31 13:14:06.2	4.450	-0.110	-0.610	0.590
2020/01/31 13:14:06.3	4.470	-0.100	-0.650	0.550
2020/01/31 13:14:06.4	4.490	-0.090	-0.680	0.510
2020/01/31 13:14:06.5	4.510	-0.070	-0.710	0.470
2020/01/31 13:14:06.6	4.530	-0.060	-0.730	0.440
2020/01/31 13:14:06.7	4.540	-0.050	-0.750	0.410
2020/01/31 13:14:06.8	4.550	-0.040	-0.760	0.380
2020/01/31 13:14:06.9	4.560	-0.020	-0.760	0.360
2020/01/31 13:14:07.0	4.570	-0.010	-0.750	0.340
2020/01/31 13:14:07.1	4.570	-0.000	-0.730	0.320
2020/01/31 13:14:07.2	4.570	0.000	-0.710	0.310
2020/01/31 13:14:07.3	4.570	0.010	-0.680	0.300
2020/01/31 13:14:07.4	4.560	0.020	-0.650	0.300
2020/01/31 13:14:07.5	4.550	0.020	-0.610	0.300
2020/01/31 13:14:07.6	4.540	0.020	-0.560	0.300
2020/01/31 13:14:07.7	4.520	0.020	-0.510	0.310
2020/01/31 13:14:07.8	4.490	0.020	-0.450	0.320
2020/01/31 13:14:07.9	4.470	0.010	-0.390	0.330
2020/01/31 13:14:08.0	4.440	0.000	-0.330	0.340
2020/01/31 13:14:08.1	4.410	-0.010	-0.260	0.360
2020/01/31 13:14:08.2	4.380	-0.020	-0.190	0.370
2020/01/31 13:14:08.3	4.350	-0.030	-0.130	0.380
2020/01/31 13:14:08.4	4.310	-0.050	-0.060	0.390
2020/01/31 13:14:08.5	4.270	-0.060	0.000	0.390
2020/01/31 13:14:08.6	4.240	-0.080	0.070	0.400
2020/01/31 13:14:08.7	4.200	-0.100	0.130	0.400
2020/01/31 13:14:08.8	4.160	-0.120	0.180	0.400
2020/01/31 13:14:08.9	4.120	-0.140	0.240	0.390
2020/01/31 13:14:09.0	4.090	-0.160	0.280	0.380
2020/01/31 13:14:09.1	4.050	-0.180	0.330	0.370
2020/01/31 13:14:09.2	4.010	-0.200	0.360	0.360
2020/01/31 13:14:09.3	3.980	-0.220	0.390	0.340
2020/01/31 13:14:09.4	3.940	-0.230	0.420	0.320
2020/01/31 13:14:09.5	3.910	-0.250	0.440	0.290
2020/01/31 13:14:09.6	3.880	-0.260	0.450	0.260
2020/01/31 13:14:09.7	3.850	-0.270	0.450	0.230
2020/01/31 13:14:09.8	3.820	-0.270	0.450	0.200
2020/01/31 13:14:09.9	3.800	-0.280	0.440	0.170
2020/01/31 13:14:10.0	3.780	-0.280	0.430	0.140
2020/01/31 13:14:10.1	3.760	-0.280	0.410	0.100
2020/01/31 13:14:10.2	3.750	-0.270	0.380	0.070
2020/01/31 13:14:10.3	3.740	-0.260	0.350	0.030
2020/01/31 13:14:10.4	3.730	-0.240	0.320	-0.010
2020/01/31 13:14:10.5	3.720	-0.230	0.280	-0.050
2020/01/31 13:14:10.6	3.720	-0.200	0.230	-0.080
2020/01/31 13:14:10.7	3.710	-0.180	0.180	-0.120
2020/01/31 13:14:10.8	3.720	-0.150	0.130	-0.160
2020/01/31 13:14:10.9	3.720	-0.120	0.080	-0.200
2020/01/31 13:14:11.0	3.730	-0.080	0.020	-0.240
2020/01/31 13:14:11.1	3.740	-0.040	-0.040	-0.280
2020/01/31 13:14:11.2	3.750	-0.000	-0.100	-0.320
2020/01/31 13:14:11.3	3.770	0.040	-0.150	-0.360
2020/01/31 13:14:11.4	3.780	0.090	-0.210	-0.390
2020/01/31 13:14:11.5	3.800	0.130	-0.270	-0.430
2020/01/31 13:14:11.6	3.830	0.180	-0.320	-0.460
2020/01/31 13:14:11.7	3.850	0.220	-0.380	-0.500
2020/01/31 13:14:11.8	3.870	0.270	-0.430	-0.530
2020/01/31 13:14:11.9	3.890	0.320	-0.480	-0.560
2020/01/31 13:14:12.0	3.920	0.360	-0.520	-0.580
2020/01/31 13:14:12.1	3.940	0.400	-0.550	-0.600
2020/01/31 13:14:12.2	3.960	0.440	-0.590	-0.620
2020/01/31 13:14:12.3	3.990	0.480	-0.620	-0.640
2020/01/31 13:14:12.4	4.010	0.520	-0.640	-0.640
2020/01/31 13:14:12.5	4.020	0.550	-0.650	-0.650
2020/01/31 13:14:12.6	4.040	0.570	-0.660	-0.650
2020/01/31 13:14:12.7	4.050	0.600	-0.670	-0.650
2020/01/31 13:14:12.8	4.060	0.610	-0.660	-0.640
2020/01/31 13:14:12.9	4.070	0.630	-0.660	-0.630
2020/01/31 13:14:13.0	4.070	0.630	-0.640	-0.610
2020/01/31 13:14:13.1	4.070	0.640	-0.620	-0.590
2020/01/31 13:14:13.2	4.070	0.630	-0.600	-0.570
2020/01/31 13:14:13.3	4.070	0.620	-0.570	-0.550
2020/01/31 13:14:13.4	4.070	0.610	-0.540	-0.520
2020/01/31 13:14:13.5	4.060	0.590	-0.500	-0.490
2020/01/31 13:14:13.6	4.050	0.560	-0.470	-0.450
2020/01/31 13:14:13.7	4.030	0.530	-0.430	-0.420
2020/01/31 13:14:13.8	4.020	0.490	-0.380	-0.380
2020/01/31 13:14:13.9	4.000	0.450	-0.340	-0.340
2020/01/31 13:14:14.0	3.980	0.410	-0.290	-0.310
2020/01/31 13:14:14.1	3.950	0.360	-0.250	-0.270
2020/01/31 13:14:14.2	3.930	0.300	-0.200	-0.240
2020/01/31 13:14:14.3	3.900	0.240	-0.160	-0.200
2020/01/31 13:14:14.4	3.870	0.180	-0.110	-0.170
2020/01/31 13:14:14.5	3.830	0.120	-0.070	-0.130
2020/01/31 13:14:14.6	3.800	0.060	-0.030	-0.100
2020/01/31 13:14:14.7	3.760	-0.010	0.000	-0.070
2020/01/31 13:14:14.8	3.730	-0.080	0.040	-0.040
2020/01/31 13:14:14.9	3.690	-0.140	0.070	-0.020
2020/01/31 13:14:15.0	3.660	-0.210	0.100	-0.000
2020/01/31 13:14:15.1	3.630	-0.280	0.120	0.010
2020/01/31 13:14:15.2	3.590	-0.340	0.140	0.030
2020/01/31 13:14:15.3	3.560	-0.400	0.160	0.040
2020/01/31 13:14:15.4	3.540	-0.460	0.170	0.040
2020/01/31 13:14:15.5	3.510	-0.510	0.170	0.040
2020/01/31 13:14:15.6	3.490	-0.560	0.170	0.030
2020/01/31 13:14:15.7	3.470	-0.610	0.170	0.030
2020/01/31 13:14:15.8	3.450	-0.650	0.160	0.010
2020/01/31 13:14:15.9	3.430	-0.680	0.140	-0.000
2020/01/31 13:14:16.0	3.420	-0.710	0.120	-0.020
2020/01/31 13:14:16.1	3.410	-0.740	0.100	-0.050
2020/01/31 13:14:16.2	3.410	-0.760	0.070	-0.070
2020/01/31 13:14:16.3	3.400	-0.770	0.040	-0.100
2020/01/31 13:14:16.4	3.400	-0.770	0.000	-0.130
2020/01/31 13:14:16.5	3.400	-0.770	-0.040	-0.160
2020/01/31 13:14:16.6	3.410	-0.770	-0.080	-0.190
2020/01/31 13:14:16.7	3.420	-0.750	-0.120	-0.230
2020/01/31 13:14:16.8	3.430	-0.740	-0.160	-0.260
2020/01/31 13:14:16.9	3.440	-0.720	-0.210	-0.300
2020/01/31 13:14:17.0	3.450	-0.690	-0.250	-0.340
2020/01/31 13:14:17.1	3.460	-0.660	-0.300	-0.370
2020/01/31 13:14:17.2	3.470	-0.630	-0.340	-0.410
2020/01/31 13:14:17.3	3.480	-0.590	-0.380	-0.440
2020/01/31 13:14:17.4	3.500	-0.550	-0.420	-0.470
2020/01/31 13:14:17.5	3.510	-0.510	-0.450	-0.500
2020/01/31 13:14:17.6	3.520	-0.470	-0.490	-0.530
2020/01/31 13:14:17.7	3.530	-0.420	-0.520	-0.560
2020/01/31 13:14:17.8	3.540	-0.380	-0.540	-0.580
2020/01/31 13:14:17.9	3.550	-0.330	-0.570	-0.600
2020/01/31 13:14:18.0	3.550	-0.290	-0.580	-0.620
2020/01/31 13:14:18.1	3.560	-0.240	-0.600	-0.640
2020/01/31 13:14:18.2	3.570	-0.200	-0.610	-0.650
2020/01/31 13:14:18.3	3.570	-0.150	-0.620	-0.660
2020/01/31 13:14:18.4	3.570	-0.110	-0.630	-0.660
2020/01/31 13:14:18.5	3.580	-0.070	-0.630	-0.660
2020/01/31 13:14:18.6	3.580	-0.030	-0.630	-0.650
2020/01/31 13:14:18.7	3.580	0.010	-0.620	-0.650
2020/01/31 13:14:18.8	3.580	0.050	-0.610	-0.630
2020/01/31 13:14:18.9	3.580	0.080	-0.600	-0.620
2020/01/31 13:14:19.0	3.580	0.120	-0.590	-0.600
2020/01/31 13:14:19.1	3.580	0.150	-0.570	-0.580
2020/01/31 13:14:19.2	3.580	0.180	-0.550	-0.550
2020/01/31 13:14:19.3	3.580	0.200	-0.530	-0.520
2020/01/31 13:14:19.4	3.580	0.230	-0.510	-0.490
2020/01/31 13:14:19.5	3.570	0.250	-0.480	-0.450
2020/01/31 13:14:19.6	3.570	0.280	-0.460	-0.410
2020/01/31 13:14:19.7	3.570	0.300	-0.430	-0.370
2020/01/31 13:14:19.8	3.560	0.320	-0.400	-0.320
2020/01/31 13:14:19.9	3.560	0.340	-0.370	-0.280
2020/01/31 13:14:20.0	3.550	0.350	-0.340	-0.230
2020/01/31 13:14:20.1	3.550	0.370	-0.310	-0.180
2020/01/31 13:14:20.2	3.540	0.380	-0.280	-0.130
2020/01/31 13:14:20.3	3.540	0.400	-0.250	-0.070
2020/01/31 13:14:20.4	3.530	0.410	-0.220	-0.020
2020/01/31 13:14:20.5	3.520	0.420	-0.180	0.030
2020/01/31 13:14:20.6	3.510	0.430	-0.150	0.090
2020/01/31 13:14:20.7	3.500	0.440	-0.120	0.140
2020/01/31 13:14:20.8	3.490	0.450	-0.090	0.200
2020/01/31 13:14:20.9	3.480	0.460	-0.060	0.250
2020/01/31 13:14:21.0	3.470	0.470	-0.030	0.310
2020/01/31 13:14:21.1	3.450	0.470	0.000	0.360
2020/01/31 13:14:21.2	3.440	0.480	0.030	0.410
2020/01/31 13:14:21.3	3.430	0.480	0.060	0.460
2020/01/31 13:14:21.4	3.420	0.490	0.080	0.510
2020/01/31 13:14:21.5	3.400	0.490	0.110	0.560
2020/01/31 13:14:21.6	3.390	0.490	0.130	0.610
2020/01/31 13:14:21.7	3.370	0.490	0.150	0.650
2020/01/31 13:14:21.8	3.360	0.490	0.160	0.690
2020/01/31 13:14:21.9	3.340	0.480	0.180	0.730
2020/01/31 13:14:22.0	3.330	0.480	0.190	0.760
2020/01/31 13:14:22.1	3.310	0.470	0.200	0.790
2020/01/31 13:14:22.2	3.290	0.460	0.200	0.820
2020/01/31 13:14:22.3	3.280	0.450	0.200	0.850
2020/01/31 13:14:22.4	3.260	0.430	0.200	0.870
2020/01/31 13:14:22.5	3.240	0.420	0.200	0.890
2020/01/31 13:14:22.6	3.220	0.400	0.190	0.900
2020/01/31 13:14:22.7	3.210	0.380	0.180	0.910
2020/01/31 13:14:22.8	3.190	0.360	0.170	0.920
2020/01/31 13:14:22.9	3.170	0.330	0.150	0.920
2020/01/31 13:14:23.0	3.150	0.310	0.130	0.920
2020/01/31 13:14:23.1	3.140	0.280	0.100	0.910
2020/01/31 13:14:23.2	3.120	0.250	0.080	0.890
2020/01/31 13:14:23.3	3.110	0.220	0.050	0.870
2020/01/31 13:14:23.4	3.090	0.180	0.020	0.850
2020/01/31 13:14:23.5	3.080	0.150	-0.020	0.820
2020/01/31 13:14:23.6	3.070	0.120	-0.060	0.780
2020/01/31 13:14:23.7	3.070	0.080	-0.100	0.740
2020/01/31 13:14:23.8	3.060	0.050	-0.140	0.690
2020/01/31 13:14:23.9	3.060	0.010	-0.190	0.640
2020/01/31 13:14:24.0	3.060	-0.020	-0.230	0.590
2020/01/31 13:14:24.1	3.060	-0.060	-0.280	0.530
2020/01/31 13:14:24.2	3.060	-0.090	-0.330	0.460
2020/01/31 13:14:24.3	3.070	-0.130	-0.370	0.390
2020/01/31 13:14:24.4	3.080	-0.160	-0.420	0.320
2020/01/31 13:14:24.5	3.100	-0.190	-0.470	0.250
2020/01/31 13:14:24.6	3.130	-0.220	-0.510	0.170
2020/01/31 13:14:24.7	3.150	-0.250	-0.550	0.090
2020/01/31 13:14:24.8	3.170	-0.280	-0.590	0.010
2020/01/31 13:14:24.9	3.190	-0.300	-0.620	-0.080
2020/01/31 13:14:25.0	3.210	-0.320	-0.660	-0.160
2020/01/31 13:14:25.1	3.240	-0.340	-0.680	-0.240
2020/01/31 13:14:25.2	3.260	-0.360	-0.710	-0.330
2020/01/31 13:14:25.3	3.290	-0.370	-0.720	-0.410
2020/01/31 13:14:25.4	3.320	-0.390	-0.740	-0.490
2020/01/31 13:14:25.5	3.350	-0.390	-0.740	-0.570
2020/01/31 13:14:25.6	3.390	-0.400	-0.750	-0.640
2020/01/31 13:14:25.7	3.420	-0.400	-0.740	-0.710
2020/01/31 13:14:25.8	3.450	-0.400	-0.730	-0.780
2020/01/31 13:14:25.9	3.470	-0.400	-0.720	-0.850
2020/01/31 13:14:26.0	3.500	-0.390	-0.690	-0.910
2020/01/31 13:14:26.1	3.520	-0.380	-0.660	-0.960
2020/01/31 13:14:26.2	3.540	-0.370	-0.630	-1.000
2020/01/31 13:14:26.3	3.560	-0.350	-0.590	-1.040
2020/01/31 13:14:26.4	3.580	-0.330	-0.550	-1.070
2020/01/31 13:14:26.5	3.590	-0.310	-0.500	-1.090
2020/01/31 13:14:26.6	3.610	-0.290	-0.450	-1.110
2020/01/31 13:14:26.7	3.620	-0.270	-0.390	-1.120
2020/01/31 13:14:26.8	3.620	-0.250	-0.330	-1.120
2020/01/31 13:14:26.9	3.620	-0.230	-0.270	-1.110
2020/01/31 13:14:27.0	3.620	-0.200	-0.210	-1.100
2020/01/31 13:14:27.1	3.620	-0.180	-0.150	-1.090
2020/01/31 13:14:27.2	3.610	-0.160	-0.080	-1.060
2020/01/31 13:14:27.3	3.600	-0.140	-0.020	-1.040
2020/01/31 13:14:27.4	3.580	-0.120	0.040	-1.010
2020/01/31 13:14:27.5	3.570	-0.100	0.100	-0.970
2020/01/31 13:14:27.6	3.550	-0.090	0.160	-0.930
2020/01/31 13:14:27.7	3.530	-0.080	0.210	-0.900
2020/01/31 13:14:27.8	3.510	-0.060	0.260	-0.860
2020/01/31 13:14:27.9	3.490	-0.050	0.300	-0.820
2020/01/31 13:14:28.0	3.470	-0.050	0.340	-0.780
2020/01/31 13:14:28.1	3.440	-0.040	0.370	-0.740
2020/01/31 13:14:28.2	3.410	-0.030	0.390	-0.700
2020/01/31 13:14:28.3	3.380	-0.030	0.410	-0.650
2020/01/31 13:14:28.4	3.360	-0.030	0.420	-0.610
2020/01/31 13:14:28.5	3.330	-0.030	0.430	-0.570
2020/01/31 13:14:28.6	3.290	-0.040	0.430	-0.530
2020/01/31 13:14:28.7	3.260	-0.040	0.420	-0.490
2020/01/31 13:14:28.8	3.230	-0.050	0.400	-0.450
2020/01/31 13:14:28.9	3.200	-0.060	0.380	-0.410
2020/01/31 13:14:29.0	3.180	-0.060	0.360	-0.370
2020/01/31 13:14:29.1	3.150	-0.070	0.320	-0.340
2020/01/31 13:14:29.2	3.120	-0.080	0.290	-0.310
2020/01/31 13:14:29.3	3.100	-0.090	0.240	-0.280
2020/01/31 13:14:29.4	3.080	-0.100	0.200	-0.260
2020/01/31 13:14:29.5	3.060	-0.110	0.140	-0.240
2020/01/31 13:14:29.6	3.030	-0.120	0.090	-0.220
2020/01/31 13:14:29.7	3.020	-0.130	0.030	-0.200
2020/01/31 13:14:29.8	3.000	-0.130	-0.030	-0.190
2020/01/31 13:14:29.9	2.990	-0.140	-0.090	-0.180
2020/01/31 13:14:30.0	2.990	-0.150	-0.160	-0.180
2020/01/31 13:14:30.1	2.980	-0.150	-0.220	-0.180
2020/01/31 13:14:30.2	2.980	-0.150	-0.280	-0.180
2020/01/31 13:14:30.3	2.990	-0.150	-0.340	-0.190
2020/01/31 13:14:30.4	2.990	-0.150	-0.400	-0.200
2020/01/31 13:14:30.5	3.000	-0.150	-0.460	-0.210
2020/01/31 13:14:30.6	3.010	-0.140	-0.520	-0.230
2020/01/31 13:14:30.7	3.030	-0.140	-0.570	-0.240
2020/01/31 13:14:30.8	3.040	-0.130	-0.610	-0.260
2020/01/31 13:14:30.9	3.060	-0.120	-0.660	-0.280
2020/01/31 13:14:31.0	3.070	-0.110	-0.700	-0.310
2020/01/31 13:14:31.1	3.090	-0.110	-0.730	-0.330
2020/01/31 13:14:31.2	3.110	-0.100	-0.760	-0.360
2020/01/31 13:14:31.3	3.140	-0.080	-0.780	-0.380
2020/01/31 13:14:31.4	3.160	-0.070	-0.800	-0.410
2020/01/31 13:14:31.5	3.180	-0.060	-0.820	-0.440
2020/01/31 13:14:31.6	3.200	-0.050	-0.830	-0.460
2020/01/31 13:14:31.7	3.230	-0.040	-0.830	-0.490
2020/01/31 13:14:31.8	3.250	-0.020	-0.830	-0.510
2020/01/31 13:14:31.9	3.280	-0.010	-0.830	-0.530
2020/01/31 13:14:32.0	3.300	-0.000	-0.810	-0.550
2020/01/31 13:14:32.1	3.330	0.010	-0.800	-0.570
2020/01/31 13:14:32.2	3.350	0.020	-0.780	-0.580
2020/01/31 13:14:32.3	3.370	0.040	-0.760	-0.590
2020/01/31 13:14:32.4	3.400	0.050	-0.740	-0.600
2020/01/31 13:14:32.5	3.420	0.060	-0.710	-0.600
2020/01/31 13:14:32.6	3.450	0.070	-0.680	-0.600
2020/01/31 13:14:32.7	3.470	0.080	-0.640	-0.590
2020/01/31 13:14:32.8	3.480	0.090	-0.610	-0.580
2020/01/31 13:14:32.9	3.500	0.100	-0.570	-0.570
2020/01/31 13:14:33.0	3.510	0.110	-0.530	-0.540
2020/01/31 13:14:33.1	3.520	0.120	-0.480	-0.520
2020/01/31 13:14:33.2	3.520	0.130	-0.440	-0.490
2020/01/31 13:14:33.3	3.530	0.140	-0.390	-0.450
2020/01/31 13:14:33.4	3.520	0.150	-0.340	-0.410
2020/01/31 13:14:33.5	3.520	0.160	-0.290	-0.360
2020/01/31 13:14:33.6	3.510	0.170	-0.250	-0.310
2020/01/31 13:14:33.7	3.500	0.170	-0.200	-0.260
2020/01/31 13:14:33.8	3.480	0.180	-0.150	-0.210
2020/01/31 13:14:33.9	3.460	0.190	-0.100	-0.150
2020/01/31 13:14:34.0	3.440	0.200	-0.060	-0.090
2020/01/31 13:14:34.1	3.410	0.210	-0.010	-0.030
2020/01/31 13:14:34.2	3.390	0.220	0.030	0.030
2020/01/31 13:14:34.3	3.350	0.220	0.060	0.100
2020/01/31 13:14:34.4	3.320	0.240	0.100	0.160
2020/01/31 13:14:34.5	3.280	0.250	0.130	0.220
2020/01/31 13:14:34.6	3.240	0.260	0.160	0.290
2020/01/31 13:14:34.7	3.190	0.270	0.180	0.350
2020/01/31 13:14:34.8	3.150	0.280	0.210	0.410
2020/01/31 13:14:34.9	3.100	0.300	0.220	0.470
2020/01/31 13:14:35.0	3.060	0.310	0.240	0.530
2020/01/31 13:14:35.1	3.010	0.330	0.250	0.590
2020/01/31 13:14:35.2	2.960	0.350	0.250	0.640
2020/01/31 13:14:35.3	2.910	0.360	0.250	0.700
2020/01/31 13:14:35.4	2.860	0.380	0.240	0.750
2020/01/31 13:14:35.5	2.810	0.400	0.240	0.800
2020/01/31 13:14:35.6	2.750	0.410	0.220	0.840
2020/01/31 13:14:35.7	2.710	0.430	0.200	0.890
2020/01/31 13:14:35.8	2.670	0.450	0.180	0.930
2020/01/31 13:14:35.9	2.630	0.470	0.150	0.960
2020/01/31 13:14:36.0	2.590	0.480	0.120	0.990
2020/01/31 13:14:36.1	2.560	0.500	0.080	1.020
2020/01/31 13:14:36.2	2.540	0.520	0.040	1.050
2020/01/31 13:14:36.3	2.520	0.530	-0.010	1.060
2020/01/31 13:14:36.4	2.500	0.540	-0.060	1.080
2020/01/31 13:14:36.5	2.490	0.560	-0.110	1.090
2020/01/31 13:14:36.6	2.470	0.570	-0.160	1.090
2020/01/31 13:14:36.7	2.470	0.570	-0.220	1.090
2020/01/31 13:14:36.8	2.470	0.580	-0.270	1.080
2020/01/31 13:14:36.9	2.470	0.580	-0.330	1.060
2020/01/31 13:14:37.0	2.480	0.580	-0.390	1.040
2020/01/31 13:14:37.1	2.500	0.580	-0.450	1.020
2020/01/31 13:14:37.2	2.520	0.570	-0.500	0.990
2020/01/31 13:14:37.3	2.540	0.560	-0.560	0.950
2020/01/31 13:14:37.4	2.560	0.550	-0.610	0.900
2020/01/31 13:14:37.5	2.590	0.540	-0.660	0.850
2020/01/31 13:14:37.6	2.630	0.520	-0.710	0.790
2020/01/31 13:14:37.7	2.670	0.490	-0.760	0.730
2020/01/31 13:14:37.8	2.710	0.460	-0.800	0.660
2020/01/31 13:14:37.9	2.750	0.430	-0.840	0.590
2020/01/31 13:14:38.0	2.790	0.400	-0.870	0.510
2020/01/31 13:14:38.1	2.840	0.360	-0.900	0.430
2020/01/31 13:14:38.2	2.880	0.320	-0.920	0.350
2020/01/31 13:14:38.3	2.930	0.280	-0.930	0.260
2020/01/31 13:14:38.4	2.980	0.230	-0.940	0.180
2020/01/31 13:14:38.5	3.020	0.190	-0.940	0.090
2020/01/31 13:14:38.6	3.080	0.130	-0.930	0.010
2020/01/31 13:14:38.7	3.120	0.080	-0.920	-0.070
2020/01/31 13:14:38.8	3.160	0.030	-0.890	-0.140
2020/01/31 13:14:38.9	3.200	-0.030	-0.850	-0.220
2020/01/31 13:14:39.0	3.230	-0.090	-0.810	-0.290
2020/01/31 13:14:39.1	3.260	-0.150	-0.750	-0.350
2020/01/31 13:14:39.2	3.290	-0.210	-0.690	-0.410
2020/01/31 13:14:39.3	3.310	-0.270	-0.620	-0.470
2020/01/31 13:14:39.4	3.330	-0.340	-0.540	-0.530
2020/01/31 13:14:39.5	3.340	-0.400	-0.450	-0.580
2020/01/31 13:14:39.6	3.350	-0.460	-0.360	-0.620
2020/01/31 13:14:39.7	3.360	-0.530	-0.270	-0.670
2020/01/31 13:14:39.8	3.360	-0.590	-0.170	-0.710
2020/01/31 13:14:39.9	3.370	-0.650	-0.070	-0.750
2020/01/31 13:14:40.0	3.360	-0.700	0.040	-0.790
2020/01/31 13:14:40.1	3.360	-0.760	0.140	-0.820
2020/01/31 13:14:40.2	3.350	-0.810	0.240	-0.850
2020/01/31 13:14:40.3	3.340	-0.860	0.340	-0.880
2020/01/31 13:14:40.4	3.330	-0.910	0.440	-0.900
2020/01/31 13:14:40.5	3.320	-0.950	0.540	-0.920
2020/01/31 13:14:40.6	3.290	-0.990	0.630	-0.940
2020/01/31 13:14:40.7	3.270	-1.030	0.710	-0.960
2020/01/31 13:14:40.8	3.250	-1.060	0.790	-0.970
2020/01/31 13:14:40.9	3.220	-1.080	0.860	-0.980
2020/01/31 13:14:41.0	3.200	-1.100	0.920	-0.980
2020/01/31 13:14:41.1	3.170	-1.110	0.980	-0.980
2020/01/31 13:14:41.2	3.130	-1.120	1.020	-0.980
2020/01/31 13:14:41.3	3.100	-1.120	1.060	-0.970
2020/01/31 13:14:41.4	3.060	-1.120	1.090	-0.960
2020/01/31 13:14:41.5	3.020	-1.110	1.110	-0.950
2020/01/31 13:14:41.6	2.980	-1.090	1.110	-0.920
2020/01/31 13:14:41.7	2.930	-1.070	1.110	-0.900
2020/01/31 13:14:41.8	2.890	-1.040	1.100	-0.880
2020/01/31 13:14:41.9	2.840	-1.010	1.080	-0.850
2020/01/31 13:14:42.0	2.790	-0.980	1.050	-0.810
2020/01/31 13:14:42.1	2.740	-0.940	1.010	-0.780
2020/01/31 13:14:42.2	2.690	-0.900	0.960	-0.750
2020/01/31 13:14:42.3	2.640	-0.850	0.900	-0.710
2020/01/31 13:14:42.4	2.590	-0.800	0.830	-0.670
2020/01/31 13:14:42.5	2.540	-0.750	0.760	-0.640
2020/01/31 13:14:42.6	2.500	-0.690	0.680	-0.600
2020/01/31 13:14:42.7	2.450	-0.630	0.600	-0.560
2020/01/31 13:14:42.8	2.410	-0.570	0.500	-0.530
2020/01/31 13:14:42.9	2.370	-0.510	0.400	-0.490
2020/01/31 13:14:43.0	2.330	-0.440	0.300	-0.460
2020/01/31 13:14:43.1	2.300	-0.380	0.190	-0.430
2020/01/31 13:14:43.2	2.270	-0.310	0.080	-0.400
2020/01/31 13:14:43.3	2.240	-0.240	-0.030	-0.380
2020/01/31 13:14:43.4	2.220	-0.180	-0.150	-0.350
2020/01/31 13:14:43.5	2.200	-0.110	-0.270	-0.330
2020/01/31 13:14:43.6	2.180	-0.040	-0.380	-0.310
2020/01/31 13:14:43.7	2.170	0.030	-0.500	-0.290
2020/01/31 13:14:43.8	2.160	0.100	-0.620	-0.270
2020/01/31 13:14:43.9	2.160	0.160	-0.730	-0.250
2020/01/31 13:14:44.0	2.160	0.230	-0.840	-0.240
2020/01/31 13:14:44.1	2.160	0.290	-0.950	-0.220
2020/01/31 13:14:44.2	2.160	0.360	-1.050	-0.210
2020/01/31 13:14:44.3	2.170	0.420	-1.150	-0.190
2020/01/31 13:14:44.4	2.180	0.470	-1.240	-0.180
2020/01/31 13:14:44.5	2.190	0.530	-1.320	-0.160
2020/01/31 13:14:44.6	2.210	0.580	-1.400	-0.150
2020/01/31 13:14:44.7	2.220	0.630	-1.470	-0.130
2020/01/31 13:14:44.8	2.240	0.680	-1.530	-0.110
2020/01/31 13:14:44.9	2.260	0.730	-1.580	-0.100
2020/01/31 13:14:45.0	2.280	0.770	-1.630	-0.080
2020/01/31 13:14:45.1	2.300	0.810	-1.660	-0.060
2020/01/31 13:14:45.2	2.310	0.840	-1.690	-0.050
2020/01/31 13:14:45.3	2.340	0.870	-1.700	-0.030
2020/01/31 13:14:45.4	2.360	0.900	-1.710	-0.010
2020/01/31 13:14:45.5	2.380	0.920	-1.700	0.000
2020/01/31 13:14:45.6	2.400	0.940	-1.690	0.020
2020/01/31 13:14:45.7	2.420	0.950	-1.670	0.040
2020/01/31 13:14:45.8	2.450	0.960	-1.640	0.060
2020/01/31 13:14:45.9	2.470	0.970	-1.600	0.070
2020/01/31 13:14:46.0	2.490	0.970	-1.560	0.090
2020/01/31 13:14:46.1	2.510	0.970	-1.500	0.100
2020/01/31 13:14:46.2	2.530	0.960	-1.440	0.120
2020/01/31 13:14:46.3	2.550	0.950	-1.380	0.140
2020/01/31 13:14:46.4	2.570	0.940	-1.300	0.160
2020/01/31 13:14:46.5	2.590	0.920	-1.220	0.170
2020/01/31 13:14:46.6	2.610	0.900	-1.150	0.190
2020/01/31 13:14:46.7	2.630	0.880	-1.060	0.210
2020/01/31 13:14:46.8	2.650	0.850	-0.970	0.230
2020/01/31 13:14:46.9	2.670	0.820	-0.870	0.240
2020/01/31 13:14:47.0	2.680	0.780	-0.770	0.260
2020/01/31 13:14:47.1	2.700	0.740	-0.680	0.280
2020/01/31 13:14:47.2	2.710	0.700	-0.570	0.300
2020/01/31 13:14:47.3	2.720	0.660	-0.470	0.320
2020/01/31 13:14:47.4	2.730	0.610	-0.370	0.340
2020/01/31 13:14:47.5	2.730	0.560	-0.270	0.360
2020/01/31 13:14:47.6	2.740	0.500	-0.180	0.390
2020/01/31 13:14:47.7	2.750	0.450	-0.080	0.400
2020/01/31 13:14:47.8	2.750	0.390	0.020	0.420
2020/01/31 13:14:47.9	2.750	0.330	0.110	0.440
2020/01/31 13:14:48.0	2.740	0.270	0.200	0.450
2020/01/31 13:14:48.1	2.740	0.210	0.290	0.460
2020/01/31 13:14:48.2	2.740	0.140	0.370	0.470
2020/01/31 13:14:48.3	2.730	0.080	0.440	0.480
2020/01/31 13:14:48.4	2.730	0.020	0.510	0.480
2020/01/31 13:14:48.5	2.720	-0.040	0.580	0.480
2020/01/31 13:14:48.6	2.730	-0.110	0.640	0.480
2020/01/31 13:14:48.7	2.730	-0.160	0.690	0.470
2020/01/31 13:14:48.8	2.730	-0.220	0.730	0.460
2020/01/31 13:14:48.9	2.730	-0.280	0.770	0.440
2020/01/31 13:14:49.0	2.720	-0.330	0.800	0.420
2020/01/31 13:14:49.1	2.720	-0.380	0.830	0.390
2020/01/31 13:14:49.2	2.720	-0.430	0.850	0.360
2020/01/31 13:14:49.3	2.730	-0.470	0.860	0.330
2020/01/31 13:14:49.4	2.730	-0.510	0.860	0.300
2020/01/31 13:14:49.5	2.730	-0.540	0.860	0.260
2020/01/31 13:14:49.6	2.750	-0.570	0.850	0.220
2020/01/31 13:14:49.7	2.750	-0.590	0.840	0.170
2020/01/31 13:14:49.8	2.750	-0.610	0.820	0.130
2020/01/31 13:14:49.9	2.760	-0.620	0.790	0.080
2020/01/31 13:14:50.0	2.760	-0.630	0.760	0.040
2020/01/31 13:14:50.1	2.760	-0.640	0.730	-0.010
2020/01/31 13:14:50.2	2.770	-0.640	0.690	-0.050
2020/01/31 13:14:50.3	2.770	-0.630	0.660	-0.100
2020/01/31 13:14:50.4	2.770	-0.620	0.620	-0.140
2020/01/31 13:14:50.5	2.760	-0.600	0.570	-0.180
2020/01/31 13:14:50.6	2.750	-0.580	0.530	-0.210
2020/01/31 13:14:50.7	2.740	-0.560	0.490	-0.250
2020/01/31 13:14:50.8	2.730	-0.540	0.440	-0.280
2020/01/31 13:14:50.9	2.720	-0.510	0.400	-0.310
2020/01/31 13:14:51.0	2.710	-0.480	0.350	-0.330
2020/01/31 13:14:51.1	2.700	-0.440	0.300	-0.360
2020/01/31 13:14:51.2	2.680	-0.410	0.260	-0.380
2020/01/31 13:14:51.3	2.660	-0.370	0.210	-0.400
2020/01/31 13:14:51.4	2.650	-0.340	0.170	-0.420
2020/01/31 13:14:51.5	2.630	-0.300	0.120	-0.430
2020/01/31 13:14:51.6	2.610	-0.260	0.080	-0.450
2020/01/31 13:14:51.7	2.590	-0.230	0.040	-0.460
2020/01/31 13:14:51.8	2.570	-0.190	-0.010	-0.480
2020/01/31 13:14:51.9	2.560	-0.160	-0.050	-0.490
2020/01/31 13:14:52.0	2.540	-0.130	-0.090	-0.500
2020/01/31 13:14:52.1	2.530	-0.090	-0.130	-0.520
2020/01/31 13:14:52.2	2.520	-0.070	-0.170	-0.530
2020/01/31 13:14:52.3	2.510	-0.040	-0.210	-0.550
2020/01/31 13:14:52.4	2.500	-0.010	-0.250	-0.560
2020/01/31 13:14:52.5	2.490	0.010	-0.280	-0.580
2020/01/31 13:14:52.6	2.490	0.030	-0.320	-0.590
2020/01/31 13:14:52.7	2.490	0.050	-0.360	-0.610
2020/01/31 13:14:52.8	2.490	0.070	-0.390	-0.630
2020/01/31 13:14:52.9	2.500	0.090	-0.430	-0.650
2020/01/31 13:14:53.0	2.510	0.100	-0.460	-0.670
2020/01/31 13:14:53.1	2.520	0.110	-0.500	-0.690
2020/01/31 13:14:53.2	2.540	0.120	-0.530	-0.710
2020/01/31 13:14:53.3	2.550	0.130	-0.560	-0.730
2020/01/31 13:14:53.4	2.570	0.130	-0.590	-0.750
2020/01/31 13:14:53.5	2.600	0.140	-0.620	-0.780
2020/01/31 13:14:53.6	2.620	0.140	-0.650	-0.800
2020/01/31 13:14:53.7	2.650	0.140	-0.670	-0.820
2020/01/31 13:14:53.8	2.670	0.140	-0.690	-0.830
2020/01/31 13:14:53.9	2.690	0.140	-0.710	-0.850
2020/01/31 13:14:54.0	2.710	0.140	-0.730	-0.860
2020/01/31 13:14:54.1	2.730	0.140	-0.740	-0.860
2020/01/31 13:14:54.2	2.750	0.140	-0.750	-0.870
2020/01/31 13:14:54.3	2.770	0.140	-0.750	-0.870
2020/01/31 13:14:54.4	2.780	0.130	-0.750	-0.860
2020/01/31 13:14:54.5	2.800	0.130	-0.740	-0.850
2020/01/31 13:14:54.6	2.810	0.130	-0.730	-0.840
2020/01/31 13:14:54.7	2.820	0.120	-0.720	-0.820
2020/01/31 13:14:54.8	2.830	0.120	-0.700	-0.800
2020/01/31 13:14:54.9	2.830	0.110	-0.680	-0.770
2020/01/31 13:14:55.0	2.830	0.110	-0.650	-0.740
2020/01/31 13:14:55.1	2.830	0.110	-0.630	-0.710
2020/01/31 13:14:55.2	2.830	0.100	-0.600	-0.670
2020/01/31 13:14:55.3	2.820	0.100	-0.560	-0.630
2020/01/31 13:14:55.4	2.820	0.090	-0.530	-0.590
2020/01/31 13:14:55.5	2.810	0.080	-0.500	-0.550
2020/01/31 13:14:55.6	2.800	0.080	-0.470	-0.500
2020/01/31 13:14:55.7	2.790	0.070	-0.430	-0.450
2020/01/31 13:14:55.8	2.770	0.060	-0.400	-0.400
2020/01/31 13:14:55.9	2.760	0.060	-0.360	-0.350
2020/01/31 13:14:56.0	2.740	0.050	-0.330	-0.300
2020/01/31 13:14:56.1	2.730	0.040	-0.300	-0.250
2020/01/31 13:14:56.2	2.710	0.030	-0.270	-0.200
2020/01/31 13:14:56.3	2.690	0.020	-0.240	-0.160
2020/01/31 13:14:56.4	2.670	0.010	-0.220	-0.110
2020/01/31 13:14:56.5	2.650	0.000	-0.190	-0.070
2020/01/31 13:14:56.6	2.630	-0.010	-0.170	-0.020
2020/01/31 13:14:56.7	2.610	-0.020	-0.150	0.010
2020/01/31 13:14:56.8	2.590	-0.030	-0.140	0.040
2020/01/31 13:14:56.9	2.580	-0.050	-0.120	0.070
2020/01/31 13:14:57.0	2.560	-0.060	-0.120	0.100
2020/01/31 13:14:57.1	2.550	-0.070	-0.110	0.120
2020/01/31 13:14:57.2	2.540	-0.080	-0.110	0.130
2020/01/31 13:14:57.3	2.530	-0.090	-0.110	0.150
2020/01/31 13:14:57.4	2.530	-0.100	-0.110	0.150
2020/01/31 13:14:57.5	2.520	-0.110	-0.120	0.160
2020/01/31 13:14:57.6	2.530	-0.120	-0.130	0.160
2020/01/31 13:14:57.7	2.530	-0.130	-0.140	0.160
2020/01/31 13:14:57.8	2.530	-0.140	-0.160	0.150
2020/01/31 13:14:57.9	2.540	-0.140	-0.170	0.140
2020/01/31 13:14:58.0	2.550	-0.150	-0.190	0.130
2020/01/31 13:14:58.1	2.560	-0.150	-0.220	0.120
2020/01/31 13:14:58.2	2.580	-0.150	-0.240	0.100
2020/01/31 13:14:58.3	2.600	-0.160	-0.260	0.080
2020/01/31 13:14:58.4	2.620	-0.160	-0.290	0.060
2020/01/31 13:14:58.5	2.650	-0.160	-0.320	0.040
2020/01/31 13:14:58.6	2.680	-0.160	-0.340	0.010
2020/01/31 13:14:58.7	2.710	-0.150	-0.370	-0.020
2020/01/31 13:14:58.8	2.740	-0.150	-0.390	-0.050
2020/01/31 13:14:58.9	2.780	-0.150	-0.420	-0.080
2020/01/31 13:14:59.0	2.810	-0.140	-0.440	-0.120
2020/01/31 13:14:59.1	2.850	-0.140	-0.460	-0.160
2020/01/31 13:14:59.2	2.890	-0.130	-0.470	-0.200
2020/01/31 13:14:59.3	2.920	-0.130	-0.490	-0.240
2020/01/31 13:14:59.4	2.960	-0.120	-0.500	-0.280
2020/01/31 13:14:59.5	3.000	-0.120	-0.510	-0.320
2020/01/31 13:14:59.6	3.040	-0.110	-0.510	-0.360
2020/01/31 13:14:59.7	3.070	-0.110	-0.520	-0.410
2020/01/31 13:14:59.8	3.110	-0.100	-0.520	-0.450
2020/01/31 13:14:59.9	3.150	-0.090	-0.510	-0.500
2020/01/31 13:15:00.0	3.190	-0.080	-0.500	-0.540
2020/01/31 13:15:00.1	3.220	-0.070	-0.490	-0.580
2020/01/31 13:15:00.2	3.260	-0.070	-0.480	-0.620
2020/01/31 13:15:00.3	3.290	-0.060	-0.460	-0.660
2020/01/31 13:15:00.4	3.320	-0.050	-0.440	-0.690
2020/01/31 13:15:00.5	3.350	-0.040	-0.410	-0.720
2020/01/31 13:15:00.6	3.380	-0.030	-0.380	-0.740
2020/01/31 13:15:00.7	3.400	-0.020	-0.350	-0.760
2020/01/31 13:15:00.8	3.420	-0.010	-0.320	-0.780
2020/01/31 13:15:00.9	3.430	0.000	-0.280	-0.790
2020/01/31 13:15:01.0	3.440	0.020	-0.240	-0.790
2020/01/31 13:15:01.1	3.450	0.030	-0.200	-0.790
2020/01/31 13:15:01.2	3.450	0.040	-0.160	-0.780
2020/01/31 13:15:01.3	3.450	0.050	-0.120	-0.760
2020/01/31 13:15:01.4	3.440	0.060	-0.080	-0.740
2020/01/31 13:15:01.5	3.430	0.080	-0.040	-0.720
2020/01/31 13:15:01.6	3.420	0.090	-0.000	-0.690
2020/01/31 13:15:01.7	3.400	0.100	0.040	-0.650
2020/01/31 13:15:01.8	3.380	0.110	0.080	-0.620
2020/01/31 13:15:01.9	3.360	0.130	0.110	-0.580
2020/01/31 13:15:02.0	3.340	0.140	0.140	-0.530
2020/01/31 13:15:02.1	3.320	0.150	0.180	-0.490
2020/01/31 13:15:02.2	3.290	0.160	0.200	-0.440
2020/01/31 13:15:02.3	3.270	0.180	0.230	-0.390
2020/01/31 13:15:02.4	3.240	0.190	0.250	-0.340
2020/01/31 13:15:02.5	3.210	0.200	0.270	-0.290
2020/01/31 13:15:02.6	3.190	0.210	0.280	-0.240
2020/01/31 13:15:02.7	3.160	0.220	0.290	-0.190
2020/01/31 13:15:02.8	3.140	0.230	0.290	-0.140
2020/01/31 13:15:02.9	3.110	0.240	0.300	-0.090
2020/01/31 13:15:03.0	3.090	0.240	0.300	-0.050
2020/01/31 13:15:03.1	3.060	0.250	0.300	-0.000
2020/01/31 13:15:03.2	3.040	0.260	0.290	0.040
2020/01/31 13:15:03.3	3.020	0.260	0.290	0.080
2020/01/31 13:15:03.4	3.000	0.260	0.280	0.110
2020/01/31 13:15:03.5	2.980	0.260	0.270	0.150
2020/01/31 13:15:03.6	2.950	0.260	0.260	0.180
2020/01/31 13:15:03.7	2.940	0.260	0.250	0.220
2020/01/31 13:15:03.8	2.920	0.260	0.230	0.240
2020/01/31 13:15:03.9	2.900	0.250	0.220	0.270
2020/01/31 13:15:04.0	2.880	0.250	0.210	0.300
2020/01/31 13:15:04.1	2.860	0.240	0.190	0.320
2020/01/31 13:15:04.2	2.850	0.230	0.180	0.350
2020/01/31 13:15:04.3	2.830	0.220	0.170	0.370
2020/01/31 13:15:04.4	2.810	0.210	0.160	0.400
2020/01/31 13:15:04.5	2.790	0.200	0.140	0.420
2020/01/31 13:15:04.6	2.760	0.180	0.130	0.440
2020/01/31 13:15:04.7	2.740	0.170	0.120	0.460
2020/01/31 13:15:04.8	2.730	0.150	0.100	0.480
2020/01/31 13:15:04.9	2.710	0.140	0.090	0.490
2020/01/31 13:15:05.0	2.700	0.120	0.070	0.510
2020/01/31 13:15:05.1	2.680	0.100	0.060	0.520
2020/01/31 13:15:05.2	2.670	0.080	0.040	0.530
2020/01/31 13:15:05.3	2.660	0.060	0.010	0.530
2020/01/31 13:15:05.4	2.660	0.050	-0.010	0.530
2020/01/31 13:15:05.5	2.650	0.030	-0.040	0.530
2020/01/31 13:15:05.6	2.650	0.010	-0.070	0.530
2020/01/31 13:15:05.7	2.650	-0.010	-0.100	0.520
2020/01/31 13:15:05.8	2.650	-0.030	-0.140	0.500
2020/01/31 13:15:05.9	2.650	-0.050	-0.180	0.480
2020/01/31 13:15:06.0	2.660	-0.060	-0.230	0.460
2020/01/31 13:15:06.1	2.670	-0.080	-0.270	0.430
2020/01/31 13:15:06.2	2.680	-0.100	-0.320	0.400
2020/01/31 13:15:06.3	2.700	-0.110	-0.370	0.360
2020/01/31 13:15:06.4	2.710	-0.130	-0.430	0.320
2020/01/31 13:15:06.5	2.730	-0.140	-0.480	0.280
2020/01/31 13:15:06.6	2.750	-0.160	-0.540	0.230
2020/01/31 13:15:06.7	2.770	-0.170	-0.590	0.180
2020/01/31 13:15:06.8	2.800	-0.180	-0.650	0.120
2020/01/31 13:15:06.9	2.820	-0.190	-0.710	0.060
2020/01/31 13:15:07.0	2.850	-0.200	-0.760	-0.000
2020/01/31 13:15:07.1	2.880	-0.210	-0.820	-0.070
2020/01/31 13:15:07.2	2.910	-0.220	-0.870	-0.140
2020/01/31 13:15:07.3	2.950	-0.230	-0.930	-0.210
2020/01/31 13:15:07.4	2.980	-0.230	-0.970	-0.280
2020/01/31 13:15:07.5	3.020	-0.240	-1.020	-0.350
2020/01/31 13:15:07.6	3.070	-0.240	-1.060	-0.430
2020/01/31 13:15:07.7	3.110	-0.250	-1.100	-0.510
2020/01/31 13:15:07.8	3.150	-0.250	-1.140	-0.580
2020/01/31 13:15:07.9	3.190	-0.250	-1.160	-0.660
2020/01/31 13:15:08.0	3.230	-0.250	-1.190	-0.740
2020/01/31 13:15:08.1	3.280	-0.250	-1.200	-0.810
2020/01/31 13:15:08.2	3.320	-0.250	-1.210	-0.880
2020/01/31 13:15:08.3	3.360	-0.250	-1.210	-0.950
2020/01/31 13:15:08.4	3.400	-0.250	-1.210	-1.020
2020/01/31 13:15:08.5	3.440	-0.250	-1.200	-1.080
2020/01/31 13:15:08.6	3.490	-0.250	-1.180	-1.140
2020/01/31 13:15:08.7	3.530	-0.240	-1.150	-1.200
2020/01/31 13:15:08.8	3.560	-0.240	-1.110	-1.250
2020/01/31 13:15:08.9	3.590	-0.240	-1.070	-1.300
2020/01/31 13:15:09.0	3.610	-0.240	-1.020	-1.340
2020/01/31 13:15:09.1	3.640	-0.240	-0.960	-1.380
2020/01/31 13:15:09.2	3.660	-0.230	-0.900	-1.420
2020/01/31 13:15:09.3	3.670	-0.230	-0.830	-1.450
2020/01/31 13:15:09.4	3.680	-0.230	-0.750	-1.480
2020/01/31 13:15:09.5	3.690	-0.220	-0.670	-1.500
2020/01/31 13:15:09.6	3.690	-0.220	-0.590	-1.510
2020/01/31 13:15:09.7	3.690	-0.210	-0.500	-1.530
2020/01/31 13:15:09.8	3.690	-0.210	-0.410	-1.530
2020/01/31 13:15:09.9	3.680	-0.200	-0.320	-1.530
2020/01/31 13:15:10.0	3.670	-0.200	-0.220	-1.530
2020/01/31 13:15:10.1	3.660	-0.190	-0.130	-1.520
2020/01/31 13:15:10.2	3.640	-0.180	-0.040	-1.510
2020/01/31 13:15:10.3	3.630	-0.170	0.050	-1.490
2020/01/31 13:15:10.4	3.610	-0.160	0.140	-1.470
2020/01/31 13:15:10.5	3.590	-0.140	0.220	-1.440
2020/01/31 13:15:10.6	3.560	-0.130	0.300	-1.400
2020/01/31 13:15:10.7	3.540	-0.110	0.370	-1.370
2020/01/31 13:15:10.8	3.520	-0.090	0.440	-1.320
2020/01/31 13:15:10.9	3.490	-0.070	0.500	-1.280
2020/01/31 13:15:11.0	3.470	-0.050	0.550	-1.220
2020/01/31 13:15:11.1	3.440	-0.020	0.600	-1.170
2020/01/31 13:15:11.2	3.410	0.000	0.640	-1.110
2020/01/31 13:15:11.3	3.390	0.030	0.670	-1.050
2020/01/31 13:15:11.4	3.360	0.060	0.690	-0.980
2020/01/31 13:15:11.5	3.330	0.090	0.710	-0.910
2020/01/31 13:15:11.6	3.310	0.120	0.710	-0.830
2020/01/31 13:15:11.7	3.280	0.160	0.710	-0.760
2020/01/31 13:15:11.8	3.260	0.190	0.710	-0.680
2020/01/31 13:15:11.9	3.230	0.220	0.700	-0.610
2020/01/31 13:15:12.0	3.200	0.260	0.680	-0.530
2020/01/31 13:15:12.1	3.170	0.290	0.660	-0.450
2020/01/31 13:15:12.2	3.140	0.320	0.630	-0.380
2020/01/31 13:15:12.3	3.110	0.360	0.600	-0.300
2020/01/31 13:15:12.4	3.080	0.390	0.560	-0.220
2020/01/31 13:15:12.5	3.050	0.410	0.520	-0.150
2020/01/31 13:15:12.6	3.010	0.440	0.480	-0.080
2020/01/31 13:15:12.7	2.980	0.460	0.430	-0.000
2020/01/31 13:15:12.8	2.950	0.480	0.380	0.060
2020/01/31 13:15:12.9	2.930	0.500	0.330	0.130
2020/01/31 13:15:13.0	2.900	0.520	0.270	0.190
2020/01/31 13:15:13.1	2.880	0.530	0.210	0.250
2020/01/31 13:15:13.2	2.850	0.540	0.150	0.310
2020/01/31 13:15:13.3	2.830	0.550	0.090	0.360
2020/01/31 13:15:13.4	2.810	0.550	0.020	0.410
2020/01/31 13:15:13.5	2.800	0.550	-0.040	0.450
2020/01/31 13:15:13.6	2.790	0.540	-0.110	0.490
2020/01/31 13:15:13.7	2.780	0.540	-0.180	0.530
2020/01/31 13:15:13.8	2.770	0.530	-0.240	0.560
2020/01/31 13:15:13.9	2.770	0.510	-0.310	0.580
2020/01/31 13:15:14.0	2.760	0.490	-0.380	0.600
2020/01/31 13:15:14.1	2.760	0.470	-0.440	0.620
2020/01/31 13:15:14.2	2.760	0.450	-0.500	0.630
2020/01/31 13:15:14.3	2.770	0.420	-0.570	0.640
2020/01/31 13:15:14.4	2.770	0.390	-0.620	0.650
2020/01/31 13:15:14.5	2.780	0.360	-0.680	0.640
2020/01/31 13:15:14.6	2.790	0.330	-0.730	0.640
2020/01/31 13:15:14.7	2.800	0.290	-0.780	0.630
2020/01/31 13:15:14.8	2.810	0.250	-0.820	0.610
2020/01/31 13:15:14.9	2.830	0.210	-0.860	0.590
2020/01/31 13:15:15.0	2.840	0.170	-0.890	0.570
2020/01/31 13:15:15.1	2.860	0.130	-0.920	0.540
2020/01/31 13:15:15.2	2.880	0.090	-0.950	0.500
2020/01/31 13:15:15.3	2.900	0.040	-0.960	0.460
2020/01/31 13:15:15.4	2.920	0.000	-0.970	0.420
2020/01/31 13:15:15.5	2.940	-0.040	-0.980	0.370
2020/01/31 13:15:15.6	2.970	-0.090	-0.980	0.310
2020/01/31 13:15:15.7	2.990	-0.130	-0.970	0.260
2020/01/31 13:15:15.8	3.010	-0.170	-0.960	0.200
2020/01/31 13:15:15.9	3.030	-0.210	-0.940	0.150
2020/01/31 13:15:16.0	3.050	-0.250	-0.920	0.090
2020/01/31 13:15:16.1	3.070	-0.290	-0.890	0.030
2020/01/31 13:15:16.2	3.080	-0.320	-0.850	-0.030
2020/01/31 13:15:16.3	3.090	-0.350	-0.810	-0.080
2020/01/31 13:15:16.4	3.110	-0.380	-0.760	-0.140
2020/01/31 13:15:16.5	3.110	-0.410	-0.710	-0.190
2020/01/31 13:15:16.6	3.120	-0.440	-0.660	-0.240
2020/01/31 13:15:16.7	3.120	-0.460	-0.600	-0.290
2020/01/31 13:15:16.8	3.130	-0.490	-0.540	-0.330
2020/01/31 13:15:16.9	3.130	-0.500	-0.470	-0.380
2020/01/31 13:15:17.0	3.130	-0.520	-0.410	-0.420
2020/01/31 13:15:17.1	3.120	-0.530	-0.340	-0.450
2020/01/31 13:15:17.2	3.120	-0.540	-0.270	-0.480
2020/01/31 13:15:17.3	3.110	-0.550	-0.210	-0.510
2020/01/31 13:15:17.4	3.100	-0.560	-0.140	-0.540
2020/01/31 13:15:17.5	3.100	-0.560	-0.070	-0.560
2020/01/31 13:15:17.6	3.090	-0.560	-0.010	-0.590
2020/01/31 13:15:17.7	3.080	-0.550	0.050	-0.600
2020/01/31 13:15:17.8	3.070	-0.550	0.110	-0.620
2020/01/31 13:15:17.9	3.060	-0.540	0.160	-0.630
2020/01/31 13:15:18.0	3.050	-0.530	0.210	-0.640
2020/01/31 13:15:18.1	3.040	-0.510	0.260	-0.650
2020/01/31 13:15:18.2	3.030	-0.490	0.300	-0.660
2020/01/31 13:15:18.3	3.010	-0.470	0.330	-0.660
2020/01/31 13:15:18.4	3.000	-0.450	0.360	-0.660
2020/01/31 13:15:18.5	2.990	-0.430	0.390	-0.660
2020/01/31 13:15:18.6	2.980	-0.400	0.410	-0.660
2020/01/31 13:15:18.7	2.970	-0.370	0.420	-0.650
2020/01/31 13:15:18.8	2.960	-0.340	0.430	-0.650
2020/01/31 13:15:18.9	2.950	-0.310	0.430	-0.640
2020/01/31 13:15:19.0	2.930	-0.270	0.430	-0.620
2020/01/31 13:15:19.1	2.920	-0.240	0.420	-0.610
2020/01/31 13:15:19.2	2.910	-0.200	0.410	-0.590
2020/01/31 13:15:19.3	2.900	-0.160	0.390	-0.580
2020/01/31 13:15:19.4	2.890	-0.130	0.370	-0.560
2020/01/31 13:15:19.5	2.870	-0.090	0.340	-0.530
2020/01/31 13:15:19.6	2.860	-0.050	0.310	-0.510
2020/01/31 13:15:19.7	2.850	-0.010	0.270	-0.480
2020/01/31 13:15:19.8	2.840	0.020	0.230	-0.460
2020/01/31 13:15:19.9	2.840	0.060	0.190	-0.430
2020/01/31 13:15:20.0	2.830	0.090	0.150	-0.400
2020/01/31 13:15:20.1	2.820	0.130	0.100	-0.370
2020/01/31 13:15:20.2	2.820	0.160	0.050	-0.340
2020/01/31 13:15:20.3	2.810	0.190	-0.000	-0.310
2020/01/31 13:15:20.4	2.810	0.220	-0.060	-0.280
2020/01/31 13:15:20.5	2.810	0.250	-0.110	-0.250
2020/01/31 13:15:20.6	2.800	0.270	-0.170	-0.220
2020/01/31 13:15:20.7	2.810	0.290	-0.230	-0.190
2020/01/31 13:15:20.8	2.810	0.310	-0.290	-0.170
2020/01/31 13:15:20.9	2.810	0.330	-0.350	-0.150
2020/01/31 13:15:21.0	2.820	0.340	-0.410	-0.130
2020/01/31 13:15:21.1	2.820	0.350	-0.480	-0.110
2020/01/31 13:15:21.2	2.830	0.360	-0.530	-0.090
2020/01/31 13:15:21.3	2.830	0.370	-0.590	-0.080
2020/01/31 13:15:21.4	2.840	0.370	-0.650	-0.070
2020/01/31 13:15:21.5	2.850	0.370	-0.700	-0.060
2020/01/31 13:15:21.6	2.860	0.370	-0.750	-0.050
2020/01/31 13:15:21.7	2.870	0.360	-0.790	-0.040
2020/01/31 13:15:21.8	2.870	0.360	-0.830	-0.040
2020/01/31 13:15:21.9	2.880	0.350	-0.870	-0.030
2020/01/31 13:15:22.0	2.880	0.340	-0.900	-0.030
2020/01/31 13:15:22.1	2.880	0.330	-0.920	-0.020
2020/01/31 13:15:22.2	2.880	0.320	-0.930	-0.010
2020/01/31 13:15:22.3	2.870	0.300	-0.940	-0.010
2020/01/31 13:15:22.4	2.860	0.290	-0.940	0.000
2020/01/31 13:15:22.5	2.850	0.270	-0.930	0.010
2020/01/31 13:15:22.6	2.840	0.250	-0.920	0.020
2020/01/31 13:15:22.7	2.830	0.240	-0.900	0.030
2020/01/31 13:15:22.8	2.810	0.220	-0.870	0.040
2020/01/31 13:15:22.9	2.790	0.200	-0.830	0.050
2020/01/31 13:15:23.0	2.770	0.190	-0.790	0.070
2020/01/31 13:15:23.1	2.750	0.170	-0.740	0.080
2020/01/31 13:15:23.2	2.720	0.160	-0.680	0.090
2020/01/31 13:15:23.3	2.700	0.140	-0.630	0.110
2020/01/31 13:15:23.4	2.670	0.130	-0.560	0.120
2020/01/31 13:15:23.5	2.640	0.120	-0.500	0.140
2020/01/31 13:15:23.6	2.610	0.110	-0.430	0.150
2020/01/31 13:15:23.7	2.580	0.100	-0.360	0.170
2020/01/31 13:15:23.8	2.550	0.100	-0.290	0.190
2020/01/31 13:15:23.9	2.520	0.090	-0.220	0.200
2020/01/31 13:15:24.0	2.490	0.090	-0.150	0.220
2020/01/31 13:15:24.1	2.460	0.080	-0.090	0.240
2020/01/31 13:15:24.2	2.430	0.080	-0.020	0.260
2020/01/31 13:15:24.3	2.400	0.080	0.040	0.270
2020/01/31 13:15:24.4	2.380	0.080	0.090	0.290
2020/01/31 13:15:24.5	2.350	0.090	0.140	0.300
2020/01/31 13:15:24.6	2.310	0.090	0.190	0.320
2020/01/31 13:15:24.7	2.290	0.090	0.230	0.330
2020/01/31 13:15:24.8	2.270	0.100	0.270	0.340
2020/01/31 13:15:24.9	2.240	0.100	0.300	0.350
2020/01/31 13:15:25.0	2.220	0.110	0.320	0.360
2020/01/31 13:15:25.1	2.210	0.110	0.340	0.360
2020/01/31 13:15:25.2	2.190	0.120	0.350	0.360
2020/01/31 13:15:25.3	2.180	0.120	0.350	0.360
2020/01/31 13:15:25.4	2.160	0.130	0.350	0.360
2020/01/31 13:15:25.5	2.150	0.130	0.340	0.350
2020/01/31 13:15:25.6	2.150	0.140	0.330	0.340
2020/01/31 13:15:25.7	2.150	0.140	0.310	0.330
2020/01/31 13:15:25.8	2.140	0.140	0.290	0.310
2020/01/31 13:15:25.9	2.150	0.140	0.260	0.290
2020/01/31 13:15:26.0	2.150	0.140	0.220	0.270
2020/01/31 13:15:26.1	2.160	0.140	0.190	0.240
2020/01/31 13:15:26.2	2.170	0.140	0.150	0.200
2020/01/31 13:15:26.3	2.180	0.140	0.100	0.170
2020/01/31 13:15:26.4	2.200	0.130	0.060	0.130
2020/01/31 13:15:26.5	2.220	0.130	0.010	0.090
2020/01/31 13:15:26.6	2.240	0.120	-0.040	0.040
2020/01/31 13:15:26.7	2.260	0.110	-0.090	-0.010
2020/01/31 13:15:26.8	2.290	0.100	-0.140	-0.060
2020/01/31 13:15:26.9	2.320	0.090	-0.190	-0.120
2020/01/31 13:15:27.0	2.340	0.070	-0.240	-0.170
2020/01/31 13:15:27.1	2.370	0.050	-0.280	-0.230
2020/01/31 13:15:27.2	2.400	0.040	-0.330	-0.290
2020/01/31 13:15:27.3	2.420	0.020	-0.370	-0.340
2020/01/31 13:15:27.4	2.450	-0.000	-0.410	-0.400
2020/01/31 13:15:27.5	2.470	-0.030	-0.450	-0.450
2020/01/31 13:15:27.6	2.500	-0.050	-0.480	-0.500
2020/01/31 13:15:27.7	2.520	-0.080	-0.510	-0.550
2020/01/31 13:15:27.8	2.530	-0.100	-0.530	-0.600
2020/01/31 13:15:27.9	2.550	-0.130	-0.550	-0.650
2020/01/31 13:15:28.0	2.560	-0.160	-0.560	-0.690
2020/01/31 13:15:28.1	2.570	-0.190	-0.570	-0.730
2020/01/31 13:15:28.2	2.570	-0.220	-0.570	-0.760
2020/01/31 13:15:28.3	2.570	-0.250	-0.570	-0.790
2020/01/31 13:15:28.4	2.570	-0.280	-0.570	-0.820
2020/01/31 13:15:28.5	2.570	-0.310	-0.560	-0.850
2020/01/31 13:15:28.6	2.570	-0.340	-0.550	-0.870
2020/01/31 13:15:28.7	2.570	-0.370	-0.530	-0.890
2020/01/31 13:15:28.8	2.560	-0.390	-0.510	-0.900
2020/01/31 13:15:28.9	2.550	-0.420	-0.480	-0.910
2020/01/31 13:15:29.0	2.540	-0.450	-0.460	-0.920
2020/01/31 13:15:29.1	2.530	-0.470	-0.430	-0.930
2020/01/31 13:15:29.2	2.520	-0.490	-0.400	-0.940
2020/01/31 13:15:29.3	2.510	-0.510	-0.370	-0.940
2020/01/31 13:15:29.4	2.500	-0.530	-0.340	-0.950
2020/01/31 13:15:29.5	2.490	-0.540	-0.310	-0.950
2020/01/31 13:15:29.6	2.480	-0.550	-0.280	-0.950
2020/01/31 13:15:29.7	2.480	-0.560	-0.250	-0.940
2020/01/31 13:15:29.8	2.470	-0.570	-0.230	-0.940
2020/01/31 13:15:29.9	2.460	-0.570	-0.200	-0.930
2020/01/31 13:15:30.0	2.450	-0.570	-0.180	-0.920
2020/01/31 13:15:30.1	2.450	-0.570	-0.160	-0.910
2020/01/31 13:15:30.2	2.440	-0.560	-0.140	-0.900
2020/01/31 13:15:30.3	2.440	-0.550	-0.120	-0.890
2020/01/31 13:15:30.4	2.430	-0.530	-0.110	-0.870
2020/01/31 13:15:30.5	2.420	-0.510	-0.100	-0.850
2020/01/31 13:15:30.6	2.410	-0.490	-0.090	-0.840
2020/01/31 13:15:30.7	2.410	-0.470	-0.090	-0.810
2020/01/31 13:15:30.8	2.400	-0.440	-0.080	-0.790
2020/01/31 13:15:30.9	2.400	-0.410	-0.080	-0.760
2020/01/31 13:15:31.0	2.390	-0.380	-0.070	-0.730
2020/01/31 13:15:31.1	2.390	-0.340	-0.070	-0.700
2020/01/31 13:15:31.2	2.380	-0.310	-0.070	-0.670
2020/01/31 13:15:31.3	2.380	-0.270	-0.070	-0.640
2020/01/31 13:15:31.4	2.370	-0.220	-0.070	-0.600
2020/01/31 13:15:31.5	2.360	-0.180	-0.070	-0.560
2020/01/31 13:15:31.6	2.340	-0.140	-0.070	-0.520
2020/01/31 13:15:31.7	2.330	-0.090	-0.070	-0.480
2020/01/31 13:15:31.8	2.330	-0.040	-0.070	-0.440
2020/01/31 13:15:31.9	2.320	0.010	-0.070	-0.390
2020/01/31 13:15:32.0	2.310	0.060	-0.070	-0.340
2020/01/31 13:15:32.1	2.300	0.110	-0.060	-0.290
2020/01/31 13:15:32.2	2.290	0.160	-0.060	-0.230
2020/01/31 13:15:32.3	2.280	0.200	-0.060	-0.180
2020/01/31 13:15:32.4	2.270	0.250	-0.050	-0.120
2020/01/31 13:15:32.5	2.260	0.300	-0.040	-0.050
2020/01/31 13:15:32.6	2.250	0.340	-0.040	0.010
2020/01/31 13:15:32.7	2.240	0.390	-0.030	0.080
2020/01/31 13:15:32.8	2.230	0.430	-0.020	0.150
2020/01/31 13:15:32.9	2.210	0.470	-0.020	0.220
2020/01/31 13:15:33.0	2.200	0.510	-0.010	0.300
2020/01/31 13:15:33.1	2.180	0.540	-0.010	0.370
2020/01/31 13:15:33.2	2.170	0.570	-0.010	0.450
2020/01/31 13:15:33.3	2.160	0.600	-0.010	0.520
2020/01/31 13:15:33.4	2.140	0.630	-0.010	0.600
2020/01/31 13:15:33.5	2.130	0.650	-0.010	0.670
2020/01/31 13:15:33.6	2.120	0.670	-0.020	0.740
2020/01/31 13:15:33.7	2.110	0.690	-0.030	0.810
2020/01/31 13:15:33.8	2.100	0.700	-0.040	0.880
2020/01/31 13:15:33.9	2.090	0.700	-0.050	0.940
2020/01/31 13:15:34.0	2.080	0.710	-0.060	1.000
2020/01/31 13:15:34.1	2.070	0.710	-0.080	1.050
2020/01/31 13:15:34.2	2.070	0.700	-0.100	1.100
2020/01/31 13:15:34.3	2.070	0.690	-0.120	1.150
2020/01/31 13:15:34.4	2.070	0.680	-0.150	1.180
2020/01/31 13:15:34.5	2.070	0.670	-0.170	1.220
2020/01/31 13:15:34.6	2.070	0.650	-0.200	1.240
2020/01/31 13:15:34.7	2.070	0.630	-0.230	1.260
2020/01/31 13:15:34.8	2.080	0.600	-0.260	1.280
2020/01/31 13:15:34.9	2.090	0.570	-0.290	1.290
2020/01/31 13:15:35.0	2.090	0.540	-0.320	1.290
2020/01/31 13:15:35.1	2.100	0.510	-0.350	1.290
2020/01/31 13:15:35.2	2.110	0.470	-0.380	1.280
2020/01/31 13:15:35.3	2.130	0.440	-0.410	1.270
2020/01/31 13:15:35.4	2.140	0.400	-0.440	1.250
2020/01/31 13:15:35.5	2.150	0.360	-0.460	1.230
2020/01/31 13:15:35.6	2.160	0.320	-0.490	1.200
2020/01/31 13:15:35.7	2.170	0.270	-0.510	1.170
2020/01/31 13:15:35.8	2.190	0.230	-0.530	1.130
2020/01/31 13:15:35.9	2.200	0.190	-0.550	1.090
2020/01/31 13:15:36.0	2.220	0.140	-0.570	1.050
2020/01/31 13:15:36.1	2.230	0.100	-0.580	1.010
2020/01/31 13:15:36.2	2.250	0.060	-0.590	0.960
2020/01/31 13:15:36.3	2.260	0.010	-0.600	0.910
2020/01/31 13:15:36.4	2.280	-0.030	-0.610	0.850
2020/01/31 13:15:36.5	2.300	-0.070	-0.610	0.790
2020/01/31 13:15:36.6	2.310	-0.110	-0.620	0.730
2020/01/31 13:15:36.7	2.330	-0.150	-0.620	0.670
2020/01/31 13:15:36.8	2.350	-0.190	-0.620	0.600
2020/01/31 13:15:36.9	2.370	-0.220	-0.620	0.530
2020/01/31 13:15:37.0	2.390	-0.260	-0.610	0.460
2020/01/31 13:15:37.1	2.420	-0.290	-0.610	0.380
2020/01/31 13:15:37.2	2.440	-0.320	-0.600	0.300
2020/01/31 13:15:37.3	2.470	-0.350	-0.590	0.220
2020/01/31 13:15:37.4	2.500	-0.370	-0.580	0.140
2020/01/31 13:15:37.5	2.530	-0.390	-0.570	0.060
2020/01/31 13:15:37.6	2.580	-0.410	-0.560	-0.030
2020/01/31 13:15:37.7	2.610	-0.430	-0.550	-0.120
2020/01/31 13:15:37.8	2.650	-0.440	-0.530	-0.210
2020/01/31 13:15:37.9	2.680	-0.450	-0.520	-0.290
2020/01/31 13:15:38.0	2.720	-0.460	-0.500	-0.380
2020/01/31 13:15:38.1	2.750	-0.470	-0.480	-0.470
2020/01/31 13:15:38.2	2.790	-0.480	-0.460	-0.550
2020/01/31 13:15:38.3	2.820	-0.480	-0.440	-0.630
2020/01/31 13:15:38.4	2.860	-0.480	-0.420	-0.710
2020/01/31 13:15:38.5	2.890	-0.480	-0.390	-0.790
2020/01/31 13:15:38.6	2.930	-0.470	-0.370	-0.860
2020/01/31 13:15:38.7	2.950	-0.470	-0.340	-0.930
2020/01/31 13:15:38.8	2.970	-0.460	-0.310	-0.990
2020/01/31 13:15:38.9	2.990	-0.450	-0.280	-1.050
2020/01/31 13:15:39.0	3.010	-0.450	-0.250	-1.110
2020/01/31 13:15:39.1	3.020	-0.430	-0.220	-1.160
2020/01/31 13:15:39.2	3.030	-0.420	-0.180	-1.200
2020/01/31 13:15:39.3	3.030	-0.410	-0.150	-1.240
2020/01/31 13:15:39.4	3.030	-0.400	-0.110	-1.270
2020/01/31 13:15:39.5	3.030	-0.380	-0.070	-1.290
2020/01/31 13:15:39.6	3.010	-0.360	-0.030	-1.310
2020/01/31 13:15:39.7	3.000	-0.350	0.000	-1.320
2020/01/31 13:15:39.8	2.980	-0.330	0.040	-1.330
2020/01/31 13:15:39.9	2.960	-0.310	0.080	-1.330
2020/01/31 13:15:40.0	2.940	-0.290	0.120	-1.320
2020/01/31 13:15:40.1	2.920	-0.270	0.160	-1.310
2020/01/31 13:15:40.2	2.890	-0.250	0.190	-1.290
2020/01/31 13:15:40.3	2.860	-0.220	0.230	-1.260
2020/01/31 13:15:40.4	2.830	-0.200	0.260	-1.230
2020/01/31 13:15:40.5	2.800	-0.180	0.290	-1.190
2020/01/31 13:15:40.6	2.780	-0.150	0.310	-1.150
2020/01/31 13:15:40.7	2.750	-0.130	0.340	-1.100
2020/01/31 13:15:40.8	2.710	-0.100	0.360	-1.050
2020/01/31 13:15:40.9	2.680	-0.080	0.370	-0.990
2020/01/31 13:15:41.0	2.650	-0.050	0.380	-0.940
2020/01/31 13:15:41.1	2.620	-0.030	0.390	-0.880
2020/01/31 13:15:41.2	2.590	0.000	0.390	-0.820
2020/01/31 13:15:41.3	2.560	0.030	0.380	-0.760
2020/01/31 13:15:41.4	2.540	0.050	0.370	-0.700
2020/01/31 13:15:41.5	2.510	0.080	0.350	-0.640
2020/01/31 13:15:41.6	2.490	0.100	0.340	-0.580
2020/01/31 13:15:41.7	2.470	0.130	0.310	-0.520
2020/01/31 13:15:41.8	2.450	0.150	0.280	-0.470
2020/01/31 13:15:41.9	2.440	0.170	0.240	-0.420
2020/01/31 13:15:42.0	2.420	0.190	0.210	-0.370
2020/01/31 13:15:42.1	2.410	0.210	0.160	-0.320
2020/01/31 13:15:42.2	2.400	0.220	0.120	-0.280
2020/01/31 13:15:42.3	2.390	0.240	0.070	-0.240
2020/01/31 13:15:42.4	2.380	0.250	0.020	-0.200
2020/01/31 13:15:42.5	2.370	0.260	-0.030	-0.160
2020/01/31 13:15:42.6	2.360	0.270	-0.080	-0.130
2020/01/31 13:15:42.7	2.360	0.270	-0.130	-0.100
2020/01/31 13:15:42.8	2.360	0.280	-0.180	-0.070
2020/01/31 13:15:42.9	2.360	0.280	-0.230	-0.040
2020/01/31 13:15:43.0	2.370	0.280	-0.280	-0.020
2020/01/31 13:15:43.1	2.370	0.270	-0.330	0.000
2020/01/31 13:15:43.2	2.380	0.260	-0.370	0.020
2020/01/31 13:15:43.3	2.380	0.260	-0.410	0.030
2020/01/31 13:15:43.4	2.390	0.240	-0.450	0.040
2020/01/31 13:15:43.5	2.400	0.230	-0.490	0.050
2020/01/31 13:15:43.6	2.420	0.210	-0.520	0.060
2020/01/31 13:15:43.7	2.440	0.200	-0.550	0.060
2020/01/31 13:15:43.8	2.450	0.180	-0.570	0.060
2020/01/31 13:15:43.9	2.460	0.150	-0.590	0.060
2020/01/31 13:15:44.0	2.480	0.130	-0.610	0.050
2020/01/31 13:15:44.1	2.490	0.110	-0.620	0.040
2020/01/31 13:15:44.2	2.500	0.080	-0.630	0.030
2020/01/31 13:15:44.3	2.520	0.050	-0.630	0.020
2020/01/31 13:15:44.4	2.530	0.030	-0.630	0.000
2020/01/31 13:15:44.5	2.540	-0.000	-0.630	-0.010
2020/01/31 13:15:44.6	2.540	-0.030	-0.630	-0.030
2020/01/31 13:15:44.7	2.550	-0.060	-0.620	-0.040
2020/01/31 13:15:44.8	2.560	-0.090	-0.600	-0.060
2020/01/31 13:15:44.9	2.570	-0.120	-0.590	-0.080
2020/01/31 13:15:45.0	2.570	-0.150	-0.570	-0.100
2020/01/31 13:15:45.1	2.580	-0.170	-0.550	-0.110
2020/01/31 13:15:45.2	2.580	-0.200	-0.530	-0.130
2020/01/31 13:15:45.3	2.580	-0.220	-0.510	-0.150
2020/01/31 13:15:45.4	2.590	-0.250	-0.490	-0.160
2020/01/31 13:15:45.5	2.590	-0.270	-0.460	-0.180
2020/01/31 13:15:45.6	2.590	-0.280	-0.440	-0.200
2020/01/31 13:15:45.7	2.590	-0.300	-0.420	-0.210
2020/01/31 13:15:45.8	2.590	-0.310	-0.400	-0.230
2020/01/31 13:15:45.9	2.590	-0.320	-0.380	-0.240
2020/01/31 13:15:46.0	2.590	-0.330	-0.360	-0.260
2020/01/31 13:15:46.1	2.590	-0.340	-0.350	-0.270
2020/01/31 13:15:46.2	2.590	-0.340	-0.330	-0.280
2020/01/31 13:15:46.3	2.590	-0.330	-0.320	-0.300
2020/01/31 13:15:46.4	2.590	-0.330	-0.310	-0.310
2020/01/31 13:15:46.5	2.590	-0.320	-0.300	-0.320
2020/01/31 13:15:46.6	2.600	-0.310	-0.300	-0.320
2020/01/31 13:15:46.7	2.600	-0.290	-0.290	-0.330
2020/01/31 13:15:46.8	2.600	-0.270	-0.290	-0.340
2020/01/31 13:15:46.9	2.600	-0.250	-0.290	-0.340
2020/01/31 13:15:47.0	2.600	-0.220	-0.290	-0.340
2020/01/31 13:15:47.1	2.600	-0.200	-0.290	-0.330
2020/01/31 13:15:47.2	2.600	-0.160	-0.290	-0.330
2020/01/31 13:15:47.3	2.590	-0.130	-0.290	-0.320
2020/01/31 13:15:47.4	2.590	-0.100	-0.290	-0.310
2020/01/31 13:15:47.5	2.580	-0.060	-0.290	-0.300
2020/01/31 13:15:47.6	2.590	-0.020	-0.290	-0.290
2020/01/31 13:15:47.7	2.580	0.020	-0.290	-0.280
2020/01/31 13:15:47.8	2.580	0.060	-0.290	-0.260
2020/01/31 13:15:47.9	2.570	0.100	-0.280	-0.240
2020/01/31 13:15:48.0	2.560	0.140	-0.280	-0.220
2020/01/31 13:15:48.1	2.560	0.180	-0.270	-0.200
2020/01/31 13:15:48.2	2.550	0.220	-0.260	-0.180
2020/01/31 13:15:48.3	2.540	0.260	-0.250	-0.160
2020/01/31 13:15:48.4	2.530	0.300	-0.240	-0.130
2020/01/31 13:15:48.5	2.530	0.340	-0.230	-0.100
2020/01/31 13:15:48.6	2.520	0.370	-0.210	-0.070
2020/01/31 13:15:48.7	2.510	0.410	-0.200	-0.040
2020/01/31 13:15:48.8	2.500	0.440	-0.180	-0.010
2020/01/31 13:15:48.9	2.490	0.460	-0.160	0.020
2020/01/31 13:15:49.0	2.480	0.490	-0.150	0.050
2020/01/31 13:15:49.1	2.470	0.510	-0.130	0.080
2020/01/31 13:15:49.2	2.460	0.530	-0.110	0.120
2020/01/31 13:15:49.3	2.450	0.540	-0.100	0.150
2020/01/31 13:15:49.4	2.440	0.560	-0.080	0.190
2020/01/31 13:15:49.5	2.430	0.560	-0.060	0.220
2020/01/31 13:15:49.6	2.400	0.570	-0.050	0.260
2020/01/31 13:15:49.7	2.380	0.570	-0.040	0.290
2020/01/31 13:15:49.8	2.370	0.560	-0.020	0.330
2020/01/31 13:15:49.9	2.350	0.560	-0.010	0.360
2020/01/31 13:15:50.0	2.320	0.540	0.000	0.390
2020/01/31 13:15:50.1	2.300	0.530	0.010	0.430
2020/01/31 13:15:50.2	2.280	0.510	0.020	0.450
2020/01/31 13:15:50.3	2.250	0.480	0.030	0.480
2020/01/31 13:15:50.4	2.230	0.460	0.040	0.500
2020/01/31 13:15:50.5	2.200	0.430	0.040	0.520
2020/01/31 13:15:50.6	2.170	0.390	0.040	0.540
2020/01/31 13:15:50.7	2.150	0.360	0.040	0.560
2020/01/31 13:15:50.8	2.120	0.320	0.030	0.560
2020/01/31 13:15:50.9	2.100	0.280	0.030	0.570
2020/01/31 13:15:51.0	2.070	0.230	0.020	0.570
2020/01/31 13:15:51.1	2.050	0.190	0.010	0.570
2020/01/31 13:15:51.2	2.030	0.140	-0.010	0.560
2020/01/31 13:15:51.3	2.010	0.100	-0.020	0.540
2020/01/31 13:15:51.4	1.990	0.050	-0.050	0.520
2020/01/31 13:15:51.5	1.980	0.010	-0.070	0.500
2020/01/31 13:15:51.6	1.970	-0.040	-0.100	0.470
2020/01/31 13:15:51.7	1.960	-0.090	-0.130	0.440
2020/01/31 13:15:51.8	1.950	-0.130	-0.150	0.400
2020/01/31 13:15:51.9	1.950	-0.170	-0.180	0.360
2020/01/31 13:15:52.0	1.950	-0.210	-0.210	0.310
2020/01/31 13:15:52.1	1.960	-0.250	-0.250	0.260
2020/01/31 13:15:52.2	1.960	-0.280	-0.280	0.210
2020/01/31 13:15:52.3	1.970	-0.320	-0.310	0.150
2020/01/31 13:15:52.4	1.980	-0.350	-0.340	0.090
2020/01/31 13:15:52.5	1.990	-0.370	-0.370	0.030
2020/01/31 13:15:52.6	2.020	-0.400	-0.400	-0.030
2020/01/31 13:15:52.7	2.030	-0.420	-0.420	-0.090
2020/01/31 13:15:52.8	2.040	-0.430	-0.450	-0.160
2020/01/31 13:15:52.9	2.060	-0.450	-0.470	-0.220
2020/01/31 13:15:53.0	2.070	-0.460	-0.490	-0.290
2020/01/31 13:15:53.1	2.090	-0.470	-0.500	-0.350
2020/01/31 13:15:53.2	2.100	-0.480	-0.510	-0.420
2020/01/31 13:15:53.3	2.120	-0.480	-0.520	-0.480
2020/01/31 13:15:53.4	2.130	-0.480	-0.530	-0.540
2020/01/31 13:15:53.5	2.140	-0.480	-0.530	-0.610
2020/01/31 13:15:53.6	2.170	-0.470	-0.530	-0.660
2020/01/31 13:15:53.7	2.180	-0.460	-0.520	-0.720
2020/01/31 13:15:53.8	2.200	-0.450	-0.520	-0.770
2020/01/31 13:15:53.9	2.210	-0.440	-0.510	-0.830
2020/01/31 13:15:54.0	2.220	-0.420	-0.500	-0.870
2020/01/31 13:15:54.1	2.230	-0.410	-0.480	-0.920
2020/01/31 13:15:54.2	2.240	-0.390	-0.470	-0.960
2020/01/31 13:15:54.3	2.240	-0.370	-0.450	-1.000
2020/01/31 13:15:54.4	2.250	-0.340	-0.430	-1.030
2020/01/31 13:15:54.5	2.250	-0.320	-0.410	-1.060
2020/01/31 13:15:54.6	2.260	-0.300	-0.390	-1.090
2020/01/31 13:15:54.7	2.260	-0.270	-0.370	-1.100
2020/01/31 13:15:54.8	2.270	-0.240	-0.340	-1.120
2020/01/31 13:15:54.9	2.270	-0.220	-0.320	-1.130
2020/01/31 13:15:55.0	2.270	-0.190	-0.290	-1.130
2020/01/31 13:15:55.1	2.270	-0.160	-0.260	-1.140
2020/01/31 13:15:55.2	2.260	-0.130	-0.230	-1.130
2020/01/31 13:15:55.3	2.260	-0.100	-0.200	-1.130
2020/01/31 13:15:55.4	2.260	-0.080	-0.170	-1.120
2020/01/31 13:15:55.5	2.250	-0.050	-0.140	-1.100
2020/01/31 13:15:55.6	2.260	-0.020	-0.110	-1.080
2020/01/31 13:15:55.7	2.260	0.000	-0.080	-1.060
2020/01/31 13:15:55.8	2.250	0.020	-0.050	-1.040
2020/01/31 13:15:55.9	2.240	0.050	-0.020	-1.010
2020/01/31 13:15:56.0	2.230	0.070	0.010	-0.980
2020/01/31 13:15:56.1	2.220	0.080	0.040	-0.950
2020/01/31 13:15:56.2	2.210	0.100	0.070	-0.910
2020/01/31 13:15:56.3	2.190	0.110	0.100	-0.870
2020/01/31 13:15:56.4	2.180	0.130	0.120	-0.820
2020/01/31 13:15:56.5	2.150	0.130	0.150	-0.770
2020/01/31 13:15:56.6	2.120	0.140	0.170	-0.720
2020/01/31 13:15:56.7	2.090	0.140	0.190	-0.660
2020/01/31 13:15:56.8	2.050	0.140	0.210	-0.600
2020/01/31 13:15:56.9	2.010	0.140	0.230	-0.540
2020/01/31 13:15:57.0	1.960	0.130	0.250	-0.470
2020/01/31 13:15:57.1	1.910	0.130	0.270	-0.410
2020/01/31 13:15:57.2	1.860	0.110	0.280	-0.350
2020/01/31 13:15:57.3	1.810	0.100	0.290	-0.280
2020/01/31 13:15:57.4	1.760	0.090	0.290	-0.220
2020/01/31 13:15:57.5	1.710	0.070	0.290	-0.160
2020/01/31 13:15:57.6	1.670	0.060	0.290	-0.100
2020/01/31 13:15:57.7	1.620	0.040	0.280	-0.040
2020/01/31 13:15:57.8	1.580	0.020	0.270	0.010
2020/01/31 13:15:57.9	1.530	-0.000	0.250	0.060
2020/01/31 13:15:58.0	1.490	-0.020	0.230	0.100
2020/01/31 13:15:58.1	1.450	-0.040	0.200	0.140
2020/01/31 13:15:58.2	1.410	-0.060	0.170	0.170
2020/01/31 13:15:58.3	1.380	-0.070	0.130	0.200
2020/01/31 13:15:58.4	1.350	-0.090	0.080	0.220
2020/01/31 13:15:58.5	1.330	-0.100	0.030	0.230
2020/01/31 13:15:58.6	1.310	-0.110	-0.020	0.240
2020/01/31 13:15:58.7	1.310	-0.110	-0.090	0.240
2020/01/31 13:15:58.8	1.300	-0.120	-0.150	0.230
2020/01/31 13:15:58.9	1.310	-0.110	-0.220	0.220
2020/01/31 13:15:59.0	1.320	-0.110	-0.300	0.200
2020/01/31 13:15:59.1	1.340	-0.100	-0.380	0.180
2020/01/31 13:15:59.2	1.360	-0.090	-0.460	0.150
2020/01/31 13:15:59.3	1.380	-0.070	-0.540	0.120
2020/01/31 13:15:59.4	1.410	-0.060	-0.620	0.080
2020/01/31 13:15:59.5	1.440	-0.030	-0.700	0.050
2020/01/31 13:15:59.6	1.480	-0.010	-0.770	0.010
2020/01/31 13:15:59.7	1.520	0.020	-0.850	-0.030
2020/01/31 13:15:59.8	1.550	0.040	-0.920	-0.070
2020/01/31 13:15:59.9	1.590	0.070	-0.980	-0.110
2020/01/31 13:16:00.0	1.630	0.110	-1.040	-0.150
2020/01/31 13:16:00.1	1.670	0.140	-1.090	-0.190
2020/01/31 13:16:00.2	1.710	0.170	-1.140	-0.220
2020/01/31 13:16:00.3	1.740	0.200	-1.180	-0.260
2020/01/31 13:16:00.4	1.780	0.230	-1.210	-0.290
2020/01/31 13:16:00.5	1.810	0.260	-1.230	-0.310
2020/01/31 13:16:00.6	1.830	0.280	-1.250	-0.330
2020/01/31 13:16:00.7	1.860	0.310	-1.250	-0.350
2020/01/31 13:16:00.8	1.890	0.330	-1.250	-0.360
2020/01/31 13:16:00.9	1.910	0.350	-1.240	-0.370
2020/01/31 13:16:01.0	1.940	0.360	-1.210	-0.380
2020/01/31 13:16:01.1	1.960	0.370	-1.180	-0.380
2020/01/31 13:16:01.2	1.970	0.380	-1.140	-0.370
2020/01/31 13:16:01.3	1.980	0.380	-1.100	-0.360
2020/01/31 13:16:01.4	1.990	0.380	-1.040	-0.350
2020/01/31 13:16:01.5	2.000	0.380	-0.980	-0.330
2020/01/31 13:16:01.6	2.010	0.370	-0.910	-0.310
2020/01/31 13:16:01.7	2.020	0.350	-0.840	-0.290
2020/01/31 13:16:01.8	2.020	0.330	-0.760	-0.260
2020/01/31 13:16:01.9	2.020	0.310	-0.680	-0.240
2020/01/31 13:16:02.0	2.020	0.280	-0.590	-0.210
2020/01/31 13:16:02.1	2.010	0.250	-0.500	-0.180
2020/01/31 13:16:02.2	2.010	0.220	-0.410	-0.150
2020/01/31 13:16:02.3	2.000	0.180	-0.320	-0.120
2020/01/31 13:16:02.4	2.000	0.150	-0.220	-0.090
2020/01/31 13:16:02.5	1.990	0.100	-0.130	-0.060
2020/01/31 13:16:02.6	1.980	0.060	-0.040	-0.030
2020/01/31 13:16:02.7	1.970	0.020	0.050	-0.000
2020/01/31 13:16:02.8	1.960	-0.030	0.140	0.020
2020/01/31 13:16:02.9	1.960	-0.070	0.220	0.050
2020/01/31 13:16:03.0	1.950	-0.110	0.300	0.070
2020/01/31 13:16:03.1	1.950	-0.160	0.380	0.090
2020/01/31 13:16:03.2	1.940	-0.200	0.450	0.110
2020/01/31 13:16:03.3	1.940	-0.230	0.520	0.130
2020/01/31 13:16:03.4	1.930	-0.270	0.580	0.150
2020/01/31 13:16:03.5	1.930	-0.300	0.630	0.170
2020/01/31 13:16:03.6	1.920	-0.330	0.680	0.190
2020/01/31 13:16:03.7	1.910	-0.350	0.720	0.200
2020/01/31 13:16:03.8	1.910	-0.380	0.760	0.220
2020/01/31 13:16:03.9	1.910	-0.390	0.790	0.230
2020/01/31 13:16:04.0	1.910	-0.400	0.810	0.250
2020/01/31 13:16:04.1	1.910	-0.410	0.830	0.260
2020/01/31 13:16:04.2	1.910	-0.420	0.840	0.280
2020/01/31 13:16:04.3	1.910	-0.410	0.850	0.290
2020/01/31 13:16:04.4	1.910	-0.410	0.840	0.300
2020/01/31 13:16:04.5	1.910	-0.400	0.830	0.320
2020/01/31 13:16:04.6	1.900	-0.390	0.820	0.330
2020/01/31 13:16:04.7	1.890	-0.370	0.800	0.340
2020/01/31 13:16:04.8	1.890	-0.350	0.770	0.350
2020/01/31 13:16:04.9	1.880	-0.320	0.730	0.360
2020/01/31 13:16:05.0	1.870	-0.300	0.690	0.370
2020/01/31 13:16:05.1	1.860	-0.270	0.640	0.370
2020/01/31 13:16:05.2	1.840	-0.240	0.590	0.380
2020/01/31 13:16:05.3	1.830	-0.200	0.530	0.380
2020/01/31 13:16:05.4	1.810	-0.170	0.460	0.370
2020/01/31 13:16:05.5	1.800	-0.130	0.390	0.370
2020/01/31 13:16:05.6	1.780	-0.100	0.320	0.360
2020/01/31 13:16:05.7	1.760	-0.060	0.240	0.350
2020/01/31 13:16:05.8	1.740	-0.020	0.160	0.340
2020/01/31 13:16:05.9	1.730	0.010	0.080	0.330
2020/01/31 13:16:06.0	1.700	0.050	-0.010	0.320
2020/01/31 13:16:06.1	1.680	0.080	-0.090	0.300
2020/01/31 13:16:06.2	1.660	0.120	-0.180	0.280
2020/01/31 13:16:06.3	1.640	0.150	-0.270	0.270
2020/01/31 13:16:06.4	1.620	0.180	-0.360	0.250
2020/01/31 13:16:06.5	1.600	0.200	-0.440	0.230
2020/01/31 13:16:06.6	1.580	0.230	-0.530	0.210
2020/01/31 13:16:06.7	1.560	0.250	-0.610	0.190
2020/01/31 13:16:06.8	1.540	0.270	-0.690	0.170
2020/01/31 13:16:06.9	1.520	0.290	-0.770	0.150
2020/01/31 13:16:07.0	1.500	0.310	-0.840	0.120
2020/01/31 13:16:07.1	1.490	0.320	-0.900	0.100
2020/01/31 13:16:07.2	1.470	0.330	-0.970	0.070
2020/01/31 13:16:07.3	1.460	0.330	-1.020	0.040
2020/01/31 13:16:07.4	1.450	0.340	-1.070	0.010
2020/01/31 13:16:07.5	1.440	0.340	-1.120	-0.020
2020/01/31 13:16:07.6	1.430	0.330	-1.160	-0.050
2020/01/31 13:16:07.7	1.430	0.330	-1.190	-0.090
2020/01/31 13:16:07.8	1.430	0.320	-1.220	-0.120
2020/01/31 13:16:07.9	1.430	0.310	-1.240	-0.160
2020/01/31 13:16:08.0	1.430	0.300	-1.250	-0.210
2020/01/31 13:16:08.1	1.430	0.290	-1.250	-0.250
2020/01/31 13:16:08.2	1.440	0.270	-1.240	-0.300
2020/01/31 13:16:08.3	1.450	0.260	-1.230	-0.340
2020/01/31 13:16:08.4	1.460	0.240	-1.210	-0.390
2020/01/31 13:16:08.5	1.470	0.220	-1.180	-0.440
2020/01/31 13:16:08.6	1.480	0.200	-1.150	-0.490
2020/01/31 13:16:08.7	1.490	0.180	-1.110	-0.540
2020/01/31 13:16:08.8	1.500	0.160	-1.060	-0.580
2020/01/31 13:16:08.9	1.520	0.140	-1.010	-0.630
2020/01/31 13:16:09.0	1.540	0.120	-0.950	-0.680
2020/01/31 13:16:09.1	1.550	0.100	-0.890	-0.720
2020/01/31 13:16:09.2	1.570	0.070	-0.820	-0.760
2020/01/31 13:16:09.3	1.590	0.050	-0.740	-0.800
2020/01/31 13:16:09.4	1.610	0.030	-0.670	-0.840
2020/01/31 13:16:09.5	1.630	0.010	-0.590	-0.880
2020/01/31 13:16:09.6	1.650	-0.010	-0.510	-0.910
2020/01/31 13:16:09.7	1.670	-0.030	-0.420	-0.940
2020/01/31 13:16:09.8	1.680	-0.050	-0.340	-0.970
2020/01/31 13:16:09.9	1.700	-0.070	-0.250	-0.990
2020/01/31 13:16:10.0	1.720	-0.090	-0.170	-1.010
2020/01/31 13:16:10.1	1.740	-0.100	-0.080	-1.030
2020/01/31 13:16:10.2	1.760	-0.120	0.000	-1.040
2020/01/31 13:16:10.3	1.780	-0.140	0.080	-1.060
2020/01/31 13:16:10.4	1.800	-0.150	0.160	-1.060
2020/01/31 13:16:10.5	1.820	-0.170	0.230	-1.070
2020/01/31 13:16:10.6	1.850	-0.180	0.290	-1.080
2020/01/31 13:16:10.7	1.870	-0.190	0.350	-1.080
2020/01/31 13:16:10.8	1.890	-0.200	0.410	-1.080
2020/01/31 13:16:10.9	1.910	-0.210	0.460	-1.080
2020/01/31 13:16:11.0	1.940	-0.220	0.500	-1.080
2020/01/31 13:16:11.1	1.960	-0.230	0.530	-1.070
2020/01/31 13:16:11.2	1.980	-0.240	0.560	-1.060
2020/01/31 13:16:11.3	2.010	-0.250	0.580	-1.050
2020/01/31 13:16:11.4	2.030	-0.250	0.590	-1.040
2020/01/31 13:16:11.5	2.050	-0.260	0.600	-1.020
2020/01/31 13:16:11.6	2.080	-0.260	0.600	-1.000
2020/01/31 13:16:11.7	2.100	-0.260	0.590	-0.980
2020/01/31 13:16:11.8	2.110	-0.260	0.570	-0.960
2020/01/31 13:16:11.9	2.130	-0.260	0.540	-0.930
2020/01/31 13:16:12.0	2.150	-0.260	0.510	-0.910
2020/01/31 13:16:12.1	2.160	-0.260	0.480	-0.870
2020/01/31 13:16:12.2	2.170	-0.260	0.430	-0.840
2020/01/31 13:16:12.3	2.190	-0.250	0.380	-0.810
2020/01/31 13:16:12.4	2.200	-0.240	0.330	-0.770
2020/01/31 13:16:12.5	2.210	-0.240	0.270	-0.730
2020/01/31 13:16:12.6	2.220	-0.230	0.210	-0.690
2020/01/31 13:16:12.7	2.220	-0.220	0.140	-0.650
2020/01/31 13:16:12.8	2.230	-0.210	0.080	-0.610
2020/01/31 13:16:12.9	2.230	-0.200	0.010	-0.570
2020/01/31 13:16:13.0	2.240	-0.180	-0.060	-0.520
2020/01/31 13:16:13.1	2.240	-0.170	-0.130	-0.480
2020/01/31 13:16:13.2	2.250	-0.150	-0.200	-0.430
2020/01/31 13:16:13.3	2.250	-0.140	-0.270	-0.390
2020/01/31 13:16:13.4	2.250	-0.120	-0.330	-0.350
2020/01/31 13:16:13.5	2.250	-0.100	-0.400	-0.300
2020/01/31 13:16:13.6	2.250	-0.080	-0.460	-0.260
2020/01/31 13:16:13.7	2.250	-0.070	-0.510	-0.220
2020/01/31 13:16:13.8	2.240	-0.050	-0.560	-0.170
2020/01/31 13:16:13.9	2.240	-0.030	-0.610	-0.130
2020/01/31 13:16:14.0	2.240	-0.010	-0.650	-0.090
2020/01/31 13:16:14.1	2.230	0.010	-0.680	-0.050
2020/01/31 13:16:14.2	2.230	0.030	-0.710	-0.010
2020/01/31 13:16:14.3	2.220	0.040	-0.740	0.030
2020/01/31 13:16:14.4	2.220	0.060	-0.750	0.060
2020/01/31 13:16:14.5	2.210	0.080	-0.760	0.100
2020/01/31 13:16:14.6	2.200	0.090	-0.770	0.140
2020/01/31 13:16:14.7	2.200	0.110	-0.770	0.170
2020/01/31 13:16:14.8	2.190	0.120	-0.760	0.200
2020/01/31 13:16:14.9	2.180	0.130	-0.750	0.240
2020/01/31 13:16:15.0	2.170	0.140	-0.730	0.270
2020/01/31 13:16:15.1	2.170	0.150	-0.700	0.300
2020/01/31 13:16:15.2	2.160	0.160	-0.670	0.330
2020/01/31 13:16:15.3	2.150	0.170	-0.640	0.360
2020/01/31 13:16:15.4	2.140	0.170	-0.600	0.390
2020/01/31 13:16:15.5	2.130	0.180	-0.550	0.420
2020/01/31 13:16:15.6	2.130	0.180	-0.510	0.440
2020/01/31 13:16:15.7	2.120	0.180	-0.460	0.470
2020/01/31 13:16:15.8	2.110	0.180	-0.410	0.500
2020/01/31 13:16:15.9	2.100	0.180	-0.350	0.530
2020/01/31 13:16:16.0	2.090	0.180	-0.290	0.550
2020/01/31 13:16:16.1	2.080	0.170	-0.240	0.580
2020/01/31 13:16:16.2	2.080	0.170	-0.180	0.600
2020/01/31 13:16:16.3	2.070	0.160	-0.120	0.630
2020/01/31 13:16:16.4	2.060	0.150	-0.060	0.650
2020/01/31 13:16:16.5	2.040	0.140	-0.000	0.670
2020/01/31 13:16:16.6	2.020	0.130	0.050	0.700
2020/01/31 13:16:16.7	2.010	0.120	0.110	0.720
2020/01/31 13:16:16.8	2.000	0.110	0.160	0.730
2020/01/31 13:16:16.9	1.980	0.090	0.210	0.750
2020/01/31 13:16:17.0	1.970	0.080	0.250	0.770
2020/01/31 13:16:17.1	1.950	0.060	0.290	0.780
2020/01/31 13:16:17.2	1.930	0.050	0.330	0.790
2020/01/31 13:16:17.3	1.910	0.030	0.360	0.810
2020/01/31 13:16:17.4	1.890	0.020	0.380	0.810
2020/01/31 13:16:17.5	1.870	0.000	0.400	0.820
2020/01/31 13:16:17.6	1.840	-0.010	0.420	0.820
2020/01/31 13:16:17.7	1.820	-0.020	0.420	0.820
2020/01/31 13:16:17.8	1.800	-0.040	0.420	0.820
2020/01/31 13:16:17.9	1.790	-0.050	0.420	0.810
2020/01/31 13:16:18.0	1.770	-0.060	0.400	0.800
2020/01/31 13:16:18.1	1.750	-0.070	0.380	0.790
2020/01/31 13:16:18.2	1.730	-0.070	0.360	0.770
2020/01/31 13:16:18.3	1.720	-0.080	0.320	0.750
2020/01/31 13:16:18.4	1.710	-0.080	0.290	0.730
2020/01/31 13:16:18.5	1.700	-0.080	0.240	0.700
2020/01/31 13:16:18.6	1.700	-0.080	0.190	0.660
2020/01/31 13:16:18.7	1.700	-0.080	0.140	0.630
2020/01/31 13:16:18.8	1.700	-0.070	0.080	0.590
2020/01/31 13:16:18.9	1.700	-0.060	0.020	0.540
2020/01/31 13:16:19.0	1.710	-0.050	-0.040	0.490
2020/01/31 13:16:19.1	1.720	-0.040	-0.110	0.440
2020/01/31 13:16:19.2	1.730	-0.030	-0.180	0.380
2020/01/31 13:16:19.3	1.750	-0.010	-0.250	0.320
2020/01/31 13:16:19.4	1.780	0.000	-0.330	0.260
2020/01/31 13:16:19.5	1.800	0.020	-0.400	0.190
2020/01/31 13:16:19.6	1.830	0.040	-0.470	0.120
2020/01/31 13:16:19.7	1.850	0.060	-0.540	0.050
2020/01/31 13:16:19.8	1.880	0.070	-0.610	-0.020
2020/01/31 13:16:19.9	1.920	0.090	-0.680	-0.100
2020/01/31 13:16:20.0	1.950	0.110	-0.750	-0.170
2020/01/31 13:16:20.1	1.980	0.130	-0.810	-0.250
2020/01/31 13:16:20.2	2.010	0.140	-0.860	-0.320
2020/01/31 13:16:20.3	2.040	0.160	-0.910	-0.400
2020/01/31 13:16:20.4	2.070	0.170	-0.960	-0.470
2020/01/31 13:16:20.5	2.100	0.180	-0.990	-0.540
2020/01/31 13:16:20.6	2.140	0.190	-1.030	-0.600
2020/01/31 13:16:20.7	2.160	0.200	-1.050	-0.670
2020/01/31 13:16:20.8	2.190	0.200	-1.070	-0.740
2020/01/31 13:16:20.9	2.220	0.200	-1.080	-0.800
2020/01/31 13:16:21.0	2.240	0.200	-1.080	-0.860
2020/01/31 13:16:21.1	2.270	0.200	-1.080	-0.910
2020/01/31 13:16:21.2	2.290	0.190	-1.060	-0.960
2020/01/31 13:16:21.3	2.310	0.180	-1.040	-1.010
2020/01/31 13:16:21.4	2.330	0.170	-1.020	-1.060
2020/01/31 13:16:21.5	2.350	0.150	-0.990	-1.100
2020/01/31 13:16:21.6	2.360	0.130	-0.950	-1.140
2020/01/31 13:16:21.7	2.370	0.110	-0.910	-1.170
2020/01/31 13:16:21.8	2.390	0.090	-0.860	-1.210
2020/01/31 13:16:21.9	2.400	0.070	-0.800	-1.240
2020/01/31 13:16:22.0	2.410	0.040	-0.740	-1.260
2020/01/31 13:16:22.1	2.420	0.010	-0.680	-1.290
2020/01/31 13:16:22.2	2.420	-0.020	-0.620	-1.310
2020/01/31 13:16:22.3	2.430	-0.050	-0.550	-1.330
2020/01/31 13:16:22.4	2.430	-0.080	-0.490	-1.340
2020/01/31 13:16:22.5	2.430	-0.110	-0.420	-1.360
2020/01/31 13:16:22.6	2.430	-0.140	-0.350	-1.360
2020/01/31 13:16:22.7	2.430	-0.180	-0.290	-1.370
2020/01/31 13:16:22.8	2.420	-0.210	-0.220	-1.370
2020/01/31 13:16:22.9	2.410	-0.240	-0.160	-1.370
2020/01/31 13:16:23.0	2.400	-0.260	-0.100	-1.370
2020/01/31 13:16:23.1	2.390	-0.290	-0.040	-1.360
2020/01/31 13:16:23.2	2.380	-0.320	0.020	-1.350
2020/01/31 13:16:23.3	2.370	-0.340	0.070	-1.330
2020/01/31 13:16:23.4	2.350	-0.360	0.120	-1.310
2020/01/31 13:16:23.5	2.340	-0.370	0.170	-1.290
2020/01/31 13:16:23.6	2.330	-0.380	0.200	-1.250
2020/01/31 13:16:23.7	2.310	-0.390	0.240	-1.220
2020/01/31 13:16:23.8	2.290	-0.400	0.270	-1.190
2020/01/31 13:16:23.9	2.270	-0.400	0.300	-1.150
2020/01/31 13:16:24.0	2.250	-0.390	0.320	-1.110
2020/01/31 13:16:24.1	2.230	-0.390	0.340	-1.060
2020/01/31 13:16:24.2	2.220	-0.380	0.350	-1.010
2020/01/31 13:16:24.3	2.200	-0.360	0.360	-0.960
2020/01/31 13:16:24.4	2.180	-0.340	0.360	-0.910
2020/01/31 13:16:24.5	2.160	-0.320	0.360	-0.860
2020/01/31 13:16:24.6	2.150	-0.290	0.350	-0.810
2020/01/31 13:16:24.7	2.140	-0.260	0.330	-0.750
2020/01/31 13:16:24.8	2.120	-0.230	0.320	-0.700
2020/01/31 13:16:24.9	2.110	-0.190	0.300	-0.640
2020/01/31 13:16:25.0	2.090	-0.150	0.270	-0.590
2020/01/31 13:16:25.1	2.080	-0.110	0.250	-0.530
2020/01/31 13:16:25.2	2.060	-0.070	0.220	-0.480
2020/01/31 13:16:25.3	2.050	-0.030	0.190	-0.420
2020/01/31 13:16:25.4	2.040	0.010	0.160	-0.360
2020/01/31 13:16:25.5	2.020	0.060	0.130	-0.310
2020/01/31 13:16:25.6	2.010	0.100	0.100	-0.250
2020/01/31 13:16:25.7	1.990	0.140	0.070	-0.190
2020/01/31 13:16:25.8	1.980	0.180	0.040	-0.140
2020/01/31 13:16:25.9	1.960	0.220	0.020	-0.080
2020/01/31 13:16:26.0	1.940	0.250	-0.010	-0.030
2020/01/31 13:16:26.1	1.920	0.290	-0.030	0.030
2020/01/31 13:16:26.2	1.910	0.320	-0.050	0.080
2020/01/31 13:16:26.3	1.890	0.340	-0.070	0.130
2020/01/31 13:16:26.4	1.870	0.370	-0.080	0.180
2020/01/31 13:16:26.5	1.850	0.390	-0.090	0.230
2020/01/31 13:16:26.6	1.820	0.400	-0.100	0.280
2020/01/31 13:16:26.7	1.800	0.410	-0.110	0.330
2020/01/31 13:16:26.8	1.780	0.420	-0.120	0.370
2020/01/31 13:16:26.9	1.770	0.430	-0.120	0.410
2020/01/31 13:16:27.0	1.750	0.430	-0.120	0.450
2020/01/31 13:16:27.1	1.730	0.420	-0.120	0.490
2020/01/31 13:16:27.2	1.710	0.420	-0.120	0.520
2020/01/31 13:16:27.3	1.690	0.400	-0.110	0.550
2020/01/31 13:16:27.4	1.660	0.390	-0.110	0.580
2020/01/31 13:16:27.5	1.640	0.370	-0.110	0.610
2020/01/31 13:16:27.6	1.630	0.350	-0.100	0.630
2020/01/31 13:16:27.7	1.610	0.330	-0.100	0.660
2020/01/31 13:16:27.8	1.590	0.300	-0.090	0.670
2020/01/31 13:16:27.9	1.580	0.270	-0.090	0.690
2020/01/31 13:16:28.0	1.560	0.240	-0.090	0.700
2020/01/31 13:16:28.1	1.550	0.210	-0.090	0.700
2020/01/31 13:16:28.2	1.530	0.180	-0.100	0.710
2020/01/31 13:16:28.3	1.520	0.150	-0.100	0.700
2020/01/31 13:16:28.4	1.520	0.120	-0.110	0.700
2020/01/31 13:16:28.5	1.510	0.090	-0.130	0.680
2020/01/31 13:16:28.6	1.500	0.060	-0.150	0.660
2020/01/31 13:16:28.7	1.500	0.030	-0.170	0.640
2020/01/31 13:16:28.8	1.510	0.000	-0.190	0.610
2020/01/31 13:16:28.9	1.520	-0.020	-0.220	0.580
2020/01/31 13:16:29.0	1.530	-0.040	-0.260	0.540
2020/01/31 13:16:29.1	1.550	-0.060	-0.290	0.500
2020/01/31 13:16:29.2	1.570	-0.080	-0.330	0.460
2020/01/31 13:16:29.3	1.600	-0.100	-0.380	0.410
2020/01/31 13:16:29.4	1.620	-0.110	-0.420	0.360
2020/01/31 13:16:29.5	1.650	-0.120	-0.470	0.300
2020/01/31 13:16:29.6	1.680	-0.120	-0.520	0.240
2020/01/31 13:16:29.7	1.710	-0.130	-0.570	0.180
2020/01/31 13:16:29.8	1.740	-0.130	-0.620	0.120
2020/01/31 13:16:29.9	1.770	-0.130	-0.670	0.050
2020/01/31 13:16:30.0	1.810	-0.120	-0.710	-0.010
2020/01/31 13:16:30.1	1.840	-0.120	-0.760	-0.080
2020/01/31 13:16:30.2	1.880	-0.110	-0.810	-0.150
2020/01/31 13:16:30.3	1.920	-0.100	-0.850	-0.220
2020/01/31 13:16:30.4	1.950	-0.090	-0.880	-0.290
2020/01/31 13:16:30.5	1.990	-0.080	-0.910	-0.350
2020/01/31 13:16:30.6	2.030	-0.070	-0.940	-0.420
2020/01/31 13:16:30.7	2.060	-0.060	-0.960	-0.480
2020/01/31 13:16:30.8	2.100	-0.040	-0.970	-0.530
2020/01/31 13:16:30.9	2.130	-0.030	-0.980	-0.580
2020/01/31 13:16:31.0	2.160	-0.020	-0.970	-0.630
2020/01/31 13:16:31.1	2.190	-0.010	-0.960	-0.660
2020/01/31 13:16:31.2	2.210	0.000	-0.940	-0.700
2020/01/31 13:16:31.3	2.230	0.010	-0.910	-0.720
2020/01/31 13:16:31.4	2.250	0.020	-0.870	-0.740
2020/01/31 13:16:31.5	2.260	0.030	-0.830	-0.750
2020/01/31 13:16:31.6	2.270	0.030	-0.770	-0.760
2020/01/31 13:16:31.7	2.270	0.030	-0.710	-0.760
2020/01/31 13:16:31.8	2.260	0.030	-0.640	-0.750
2020/01/31 13:16:31.9	2.250	0.030	-0.560	-0.730
2020/01/31 13:16:32.0	2.240	0.020	-0.480	-0.710
2020/01/31 13:16:32.1	2.220	0.010	-0.400	-0.680
2020/01/31 13:16:32.2	2.190	0.000	-0.310	-0.650
2020/01/31 13:16:32.3	2.170	-0.010	-0.220	-0.620
2020/01/31 13:16:32.4	2.130	-0.020	-0.130	-0.580
2020/01/31 13:16:32.5	2.100	-0.040	-0.050	-0.540
2020/01/31 13:16:32.6	2.070	-0.060	0.030	-0.490
2020/01/31 13:16:32.7	2.030	-0.080	0.110	-0.450
2020/01/31 13:16:32.8	1.990	-0.100	0.190	-0.400
2020/01/31 13:16:32.9	1.960	-0.120	0.260	-0.360
2020/01/31 13:16:33.0	1.920	-0.140	0.320	-0.320
2020/01/31 13:16:33.1	1.890	-0.160	0.370	-0.280
2020/01/31 13:16:33.2	1.860	-0.180	0.410	-0.250
2020/01/31 13:16:33.3	1.830	-0.200	0.450	-0.220
2020/01/31 13:16:33.4	1.800	-0.220	0.470	-0.190
2020/01/31 13:16:33.5	1.780	-0.240	0.490	-0.170
2020/01/31 13:16:33.6	1.770	-0.250	0.500	-0.160
2020/01/31 13:16:33.7	1.750	-0.260	0.490	-0.140
2020/01/31 13:16:33.8	1.740	-0.270	0.480	-0.140
2020/01/31 13:16:33.9	1.740	-0.280	0.450	-0.140
2020/01/31 13:16:34.0	1.730	-0.290	0.420	-0.140
2020/01/31 13:16:34.1	1.730	-0.290	0.380	-0.150
2020/01/31 13:16:34.2	1.740	-0.290	0.340	-0.160
2020/01/31 13:16:34.3	1.740	-0.280	0.280	-0.180
2020/01/31 13:16:34.4	1.750	-0.280	0.230	-0.200
2020/01/31 13:16:34.5	1.760	-0.270	0.160	-0.220
2020/01/31 13:16:34.6	1.780	-0.260	0.100	-0.240
2020/01/31 13:16:34.7	1.790	-0.250	0.040	-0.270
2020/01/31 13:16:34.8	1.800	-0.230	-0.030	-0.290
2020/01/31 13:16:34.9	1.810	-0.220	-0.090	-0.320
2020/01/31 13:16:35.0	1.830	-0.200	-0.150	-0.340
2020/01/31 13:16:35.1	1.840	-0.180	-0.210	-0.360
2020/01/31 13:16:35.2	1.850	-0.160	-0.260	-0.370
2020/01/31 13:16:35.3	1.860	-0.140	-0.310	-0.390
2020/01/31 13:16:35.4	1.860	-0.120	-0.350	-0.400
2020/01/31 13:16:35.5	1.870	-0.090	-0.390	-0.400
2020/01/31 13:16:35.6	1.880	-0.070	-0.420	-0.400
2020/01/31 13:16:35.7	1.880	-0.050	-0.440	-0.400
2020/01/31 13:16:35.8	1.880	-0.020	-0.460	-0.390
2020/01/31 13:16:35.9	1.880	-0.000	-0.460	-0.380
2020/01/31 13:16:36.0	1.870	0.020	-0.470	-0.360
2020/01/31 13:16:36.1	1.870	0.040	-0.470	-0.340
2020/01/31 13:16:36.2	1.860	0.060	-0.460	-0.320
2020/01/31 13:16:36.3	1.850	0.080	-0.450	-0.300
2020/01/31 13:16:36.4	1.840	0.100	-0.430	-0.270
2020/01/31 13:16:36.5	1.830	0.120	-0.410	-0.250
2020/01/31 13:16:36.6	1.830	0.140	-0.400	-0.220
2020/01/31 13:16:36.7	1.820	0.150	-0.370	-0.190
2020/01/31 13:16:36.8	1.810	0.170	-0.350	-0.160
2020/01/31 13:16:36.9	1.800	0.180	-0.320	-0.140
2020/01/31 13:16:37.0	1.790	0.200	-0.300	-0.110
2020/01/31 13:16:37.1	1.780	0.210	-0.280	-0.090
2020/01/31 13:16:37.2	1.770	0.220	-0.250	-0.060
2020/01/31 13:16:37.3	1.760	0.230	-0.230	-0.040
2020/01/31 13:16:37.4	1.760	0.240	-0.210	-0.020
2020/01/31 13:16:37.5	1.750	0.250	-0.200	-0.000
2020/01/31 13:16:37.6	1.740	0.260	-0.190	0.010
2020/01/31 13:16:37.7	1.730	0.270	-0.180	0.030
2020/01/31 13:16:37.8	1.730	0.280	-0.180	0.040
2020/01/31 13:16:37.9	1.720	0.290	-0.170	0.060
2020/01/31 13:16:38.0	1.710	0.290	-0.170	0.070
2020/01/31 13:16:38.1	1.700	0.300	-0.180	0.090
2020/01/31 13:16:38.2	1.690	0.310	-0.190	0.100
2020/01/31 13:16:38.3	1.680	0.320	-0.200	0.120
2020/01/31 13:16:38.4	1.670	0.330	-0.210	0.130
2020/01/31 13:16:38.5	1.660	0.330	-0.220	0.140
2020/01/31 13:16:38.6	1.650	0.340	-0.240	0.150
2020/01/31 13:16:38.7	1.640	0.350	-0.260	0.160
2020/01/31 13:16:38.8	1.630	0.350	-0.280	0.170
2020/01/31 13:16:38.9	1.620	0.360	-0.300	0.170
2020/01/31 13:16:39.0	1.610	0.360	-0.320	0.170
2020/01/31 13:16:39.1	1.600	0.360	-0.340	0.170
2020/01/31 13:16:39.2	1.590	0.370	-0.360	0.170
2020/01/31 13:16:39.3	1.590	0.370	-0.380	0.160
2020/01/31 13:16:39.4	1.580	0.370	-0.400	0.150
2020/01/31 13:16:39.5	1.580	0.370	-0.420	0.130
2020/01/31 13:16:39.6	1.570	0.360	-0.430	0.120
2020/01/31 13:16:39.7	1.570	0.360	-0.450	0.100
2020/01/31 13:16:39.8	1.570	0.350	-0.460	0.080
2020/01/31 13:16:39.9	1.580	0.340	-0.470	0.050
2020/01/31 13:16:40.0	1.580	0.330	-0.480	0.030
2020/01/31 13:16:40.1	1.580	0.320	-0.490	0.010
2020/01/31 13:16:40.2	1.590	0.310	-0.500	-0.020
2020/01/31 13:16:40.3	1.590	0.290	-0.500	-0.040
2020/01/31 13:16:40.4	1.600	0.270	-0.500	-0.070
2020/01/31 13:16:40.5	1.610	0.260	-0.500	-0.090
2020/01/31 13:16:40.6	1.620	0.240	-0.500	-0.120
2020/01/31 13:16:40.7	1.630	0.210	-0.490	-0.150
2020/01/31 13:16:40.8	1.640	0.190	-0.480	-0.170
2020/01/31 13:16:40.9	1.660	0.160	-0.470	-0.200
2020/01/31 13:16:41.0	1.680	0.140	-0.450	-0.230
2020/01/31 13:16:41.1	1.690	0.110	-0.430	-0.260
2020/01/31 13:16:41.2	1.720	0.080	-0.420	-0.280
2020/01/31 13:16:41.3	1.740	0.050	-0.400	-0.310
2020/01/31 13:16:41.4	1.770	0.020	-0.380	-0.340
2020/01/31 13:16:41.5	1.790	-0.020	-0.350	-0.370
2020/01/31 13:16:41.6	1.810	-0.050	-0.330	-0.410
2020/01/31 13:16:41.7	1.840	-0.080	-0.310	-0.440
2020/01/31 13:16:41.8	1.880	-0.110	-0.280	-0.470
2020/01/31 13:16:41.9	1.910	-0.150	-0.260	-0.510
2020/01/31 13:16:42.0	1.950	-0.180	-0.230	-0.550
2020/01/31 13:16:42.1	1.980	-0.210	-0.210	-0.580
2020/01/31 13:16:42.2	2.020	-0.240	-0.190	-0.620
2020/01/31 13:16:42.3	2.050	-0.280	-0.160	-0.660
2020/01/31 13:16:42.4	2.090	-0.310	-0.140	-0.690
2020/01/31 13:16:42.5	2.120	-0.330	-0.110	-0.720
2020/01/31 13:16:42.6	2.150	-0.360	-0.090	-0.760
2020/01/31 13:16:42.7	2.180	-0.390	-0.070	-0.780
2020/01/31 13:16:42.8	2.210	-0.410	-0.050	-0.810
2020/01/31 13:16:42.9	2.230	-0.440	-0.030	-0.830
2020/01/31 13:16:43.0	2.250	-0.460	-0.000	-0.850
2020/01/31 13:16:43.1	2.270	-0.480	0.020	-0.860
2020/01/31 13:16:43.2	2.290	-0.500	0.040	-0.880
2020/01/31 13:16:43.3	2.310	-0.520	0.060	-0.880
2020/01/31 13:16:43.4	2.320	-0.530	0.080	-0.890
2020/01/31 13:16:43.5	2.330	-0.550	0.100	-0.890
2020/01/31 13:16:43.6	2.340	-0.560	0.120	-0.880
2020/01/31 13:16:43.7	2.350	-0.570	0.140	-0.880
2020/01/31 13:16:43.8	2.350	-0.580	0.160	-0.870
2020/01/31 13:16:43.9	2.360	-0.580	0.180	-0.860
2020/01/31 13:16:44.0	2.360	-0.590	0.200	-0.840
2020/01/31 13:16:44.1	2.360	-0.590	0.210	-0.830
2020/01/31 13:16:44.2	2.360	-0.590	0.230	-0.810
2020/01/31 13:16:44.3	2.350	-0.590	0.240	-0.780
2020/01/31 13:16:44.4	2.340	-0.590	0.250	-0.750
2020/01/31 13:16:44.5	2.330	-0.580	0.270	-0.720
2020/01/31 13:16:44.6	2.330	-0.580	0.270	-0.690
2020/01/31 13:16:44.7	2.310	-0.570	0.280	-0.650
2020/01/31 13:16:44.8	2.300	-0.560	0.290	-0.610
2020/01/31 13:16:44.9	2.280	-0.540	0.290	-0.570
2020/01/31 13:16:45.0	2.260	-0.530	0.290	-0.520
2020/01/31 13:16:45.1	2.240	-0.510	0.290	-0.470
2020/01/31 13:16:45.2	2.210	-0.500	0.280	-0.420
2020/01/31 13:16:45.3	2.190	-0.470	0.280	-0.370
2020/01/31 13:16:45.4	2.160	-0.450	0.270	-0.320
2020/01/31 13:16:45.5	2.130	-0.430	0.250	-0.260
2020/01/31 13:16:45.6	2.110	-0.400	0.230	-0.200
2020/01/31 13:16:45.7	2.070	-0.380	0.210	-0.150
2020/01/31 13:16:45.8	2.040	-0.350	0.190	-0.090
2020/01/31 13:16:45.9	2.010	-0.320	0.160	-0.030
2020/01/31 13:16:46.0	1.980	-0.290	0.130	0.020
2020/01/31 13:16:46.1	1.950	-0.250	0.090	0.070
2020/01/31 13:16:46.2	1.910	-0.220	0.050	0.120
2020/01/31 13:16:46.3	1.880	-0.190	0.010	0.170
2020/01/31 13:16:46.4	1.850	-0.150	-0.040	0.220
2020/01/31 13:16:46.5	1.820	-0.110	-0.090	0.260
2020/01/31 13:16:46.6	1.790	-0.080	-0.140	0.300
2020/01/31 13:16:46.7	1.760	-0.040	-0.200	0.330
2020/01/31 13:16:46.8	1.740	0.000	-0.260	0.360
2020/01/31 13:16:46.9	1.710	0.040	-0.320	0.390
2020/01/31 13:16:47.0	1.690	0.080	-0.380	0.410
2020/01/31 13:16:47.1	1.670	0.120	-0.440	0.420
2020/01/31 13:16:47.2	1.650	0.160	-0.510	0.440
2020/01/31 13:16:47.3	1.630	0.200	-0.570	0.440
2020/01/31 13:16:47.4	1.620	0.240	-0.630	0.450
2020/01/31 13:16:47.5	1.610	0.270	-0.690	0.450
2020/01/31 13:16:47.6	1.590	0.310	-0.750	0.440
2020/01/31 13:16:47.7	1.590	0.350	-0.800	0.440
2020/01/31 13:16:47.8	1.580	0.390	-0.850	0.430
2020/01/31 13:16:47.9	1.580	0.420	-0.900	0.420
2020/01/31 13:16:48.0	1.580	0.460	-0.940	0.410
2020/01/31 13:16:48.1	1.580	0.490	-0.980	0.400
2020/01/31 13:16:48.2	1.590	0.530	-1.010	0.390
2020/01/31 13:16:48.3	1.590	0.560	-1.040	0.380
2020/01/31 13:16:48.4	1.600	0.590	-1.060	0.360
2020/01/31 13:16:48.5	1.610	0.620	-1.070	0.350
2020/01/31 13:16:48.6	1.610	0.650	-1.080	0.340
2020/01/31 13:16:48.7	1.620	0.670	-1.080	0.330
2020/01/31 13:16:48.8	1.630	0.690	-1.080	0.320
2020/01/31 13:16:48.9	1.640	0.710	-1.070	0.310
2020/01/31 13:16:49.0	1.650	0.730	-1.050	0.300
2020/01/31 13:16:49.1	1.660	0.750	-1.030	0.290
2020/01/31 13:16:49.2	1.670	0.760	-1.000	0.280
2020/01/31 13:16:49.3	1.680	0.770	-0.970	0.270
2020/01/31 13:16:49.4	1.690	0.780	-0.940	0.270
2020/01/31 13:16:49.5	1.700	0.790	-0.900	0.260
2020/01/31 13:16:49.6	1.720	0.790	-0.860	0.250
2020/01/31 13:16:49.7	1.720	0.790	-0.820	0.240
2020/01/31 13:16:49.8	1.730	0.790	-0.780	0.220
2020/01/31 13:16:49.9	1.740	0.780	-0.730	0.210
2020/01/31 13:16:50.0	1.750	0.780	-0.680	0.190
2020/01/31 13:16:50.1	1.750	0.770	-0.640	0.170
2020/01/31 13:16:50.2	1.760	0.750	-0.590	0.150
2020/01/31 13:16:50.3	1.770	0.740	-0.540	0.130
2020/01/31 13:16:50.4	1.780	0.720	-0.500	0.100
2020/01/31 13:16:50.5	1.790	0.700	-0.460	0.070
2020/01/31 13:16:50.6	1.800	0.680	-0.420	0.040
2020/01/31 13:16:50.7	1.810	0.660	-0.380	0.010
2020/01/31 13:16:50.8	1.820	0.630	-0.340	-0.020
2020/01/31 13:16:50.9	1.830	0.600	-0.300	-0.060
2020/01/31 13:16:51.0	1.840	0.570	-0.270	-0.090
2020/01/31 13:16:51.1	1.850	0.540	-0.240	-0.130
2020/01/31 13:16:51.2	1.860	0.510	-0.210	-0.170
2020/01/31 13:16:51.3	1.870	0.470	-0.180	-0.210
2020/01/31 13:16:51.4	1.880	0.440	-0.150	-0.260
2020/01/31 13:16:51.5	1.880	0.400	-0.130	-0.300
2020/01/31 13:16:51.6	1.900	0.360	-0.110	-0.350
2020/01/31 13:16:51.7	1.910	0.320	-0.090	-0.400
2020/01/31 13:16:51.8	1.920	0.280	-0.070	-0.450
2020/01/31 13:16:51.9	1.920	0.240	-0.050	-0.500
2020/01/31 13:16:52.0	1.930	0.190	-0.040	-0.550
2020/01/31 13:16:52.1	1.940	0.150	-0.020	-0.600
2020/01/31 13:16:52.2	1.950	0.100	-0.010	-0.660
2020/01/31 13:16:52.3	1.950	0.060	0.010	-0.710
2020/01/31 13:16:52.4	1.960	0.010	0.020	-0.760
2020/01/31 13:16:52.5	1.970	-0.030	0.040	-0.810
2020/01/31 13:16:52.6	1.980	-0.070	0.050	-0.860
2020/01/31 13:16:52.7	1.990	-0.120	0.070	-0.910
2020/01/31 13:16:52.8	2.000	-0.160	0.090	-0.950
2020/01/31 13:16:52.9	2.010	-0.200	0.110	-0.990
2020/01/31 13:16:53.0	2.020	-0.250	0.130	-1.030
2020/01/31 13:16:53.1	2.030	-0.290	0.150	-1.070
2020/01/31 13:16:53.2	2.040	-0.330	0.170	-1.100
2020/01/31 13:16:53.3	2.050	-0.370	0.200	-1.120
2020/01/31 13:16:53.4	2.050	-0.410	0.220	-1.150
2020/01/31 13:16:53.5	2.060	-0.450	0.250	-1.160
2020/01/31 13:16:53.6	2.070	-0.480	0.280	-1.180
2020/01/31 13:16:53.7	2.070	-0.520	0.310	-1.190
2020/01/31 13:16:53.8	2.070	-0.550	0.340	-1.190
2020/01/31 13:16:53.9	2.070	-0.590	0.370	-1.190
2020/01/31 13:16:54.0	2.070	-0.620	0.400	-1.190
2020/01/31 13:16:54.1	2.070	-0.650	0.430	-1.190
2020/01/31 13:16:54.2	2.070	-0.680	0.470	-1.180
2020/01/31 13:16:54.3	2.060	-0.700	0.500	-1.170
2020/01/31 13:16:54.4	2.060	-0.730	0.520	-1.150
2020/01/31 13:16:54.5	2.050	-0.750	0.550	-1.130
2020/01/31 13:16:54.6	2.050	-0.770	0.570	-1.110
2020/01/31 13:16:54.7	2.040	-0.790	0.590	-1.090
2020/01/31 13:16:54.8	2.030	-0.800	0.610	-1.060
2020/01/31 13:16:54.9	2.020	-0.820	0.620	-1.030
2020/01/31 13:16:55.0	2.010	-0.830	0.630	-1.000
2020/01/31 13:16:55.1	2.000	-0.830	0.640	-0.970
2020/01/31 13:16:55.2	1.990	-0.840	0.640	-0.930
2020/01/31 13:16:55.3	1.980	-0.840	0.630	-0.890
2020/01/31 13:16:55.4	1.960	-0.830	0.620	-0.840
2020/01/31 13:16:55.5	1.950	-0.830	0.610	-0.800
2020/01/31 13:16:55.6	1.930	-0.820	0.590	-0.750
2020/01/31 13:16:55.7	1.920	-0.800	0.570	-0.700
2020/01/31 13:16:55.8	1.900	-0.790	0.540	-0.640
2020/01/31 13:16:55.9	1.890	-0.770	0.510	-0.590
2020/01/31 13:16:56.0	1.870	-0.740	0.470	-0.530
2020/01/31 13:16:56.1	1.850	-0.720	0.430	-0.470
2020/01/31 13:16:56.2	1.840	-0.690	0.390	-0.410
2020/01/31 13:16:56.3	1.820	-0.650	0.340	-0.350
2020/01/31 13:16:56.4	1.800	-0.620	0.290	-0.280
2020/01/31 13:16:56.5	1.790	-0.580	0.240	-0.210
2020/01/31 13:16:56.6	1.770	-0.540	0.190	-0.140
2020/01/31 13:16:56.7	1.760	-0.500	0.130	-0.080
2020/01/31 13:16:56.8	1.740	-0.450	0.080	-0.010
2020/01/31 13:16:56.9	1.730	-0.410	0.020	0.060
2020/01/31 13:16:57.0	1.710	-0.360	-0.030	0.130
2020/01/31 13:16:57.1	1.700	-0.310	-0.090	0.190
2020/01/31 13:16:57.2	1.690	-0.260	-0.150	0.260
2020/01/31 13:16:57.3	1.670	-0.220	-0.210	0.330
2020/01/31 13:16:57.4	1.660	-0.170	-0.270	0.390
2020/01/31 13:16:57.5	1.650	-0.120	-0.320	0.450
2020/01/31 13:16:57.6	1.640	-0.070	-0.380	0.520
2020/01/31 13:16:57.7	1.630	-0.020	-0.440	0.570
2020/01/31 13:16:57.8	1.620	0.020	-0.500	0.630
2020/01/31 13:16:57.9	1.610	0.060	-0.550	0.680
2020/01/31 13:16:58.0	1.600	0.110	-0.600	0.720
2020/01/31 13:16:58.1	1.590	0.140	-0.660	0.760
2020/01/31 13:16:58.2	1.580	0.180	-0.710	0.800
2020/01/31 13:16:58.3	1.580	0.220	-0.750	0.830
2020/01/31 13:16:58.4	1.570	0.250	-0.800	0.850
2020/01/31 13:16:58.5	1.560	0.280	-0.840	0.870
2020/01/31 13:16:58.6	1.560	0.300	-0.890	0.880
2020/01/31 13:16:58.7	1.550	0.320	-0.920	0.890
2020/01/31 13:16:58.8	1.550	0.340	-0.960	0.890
2020/01/31 13:16:58.9	1.550	0.360	-0.990	0.890
2020/01/31 13:16:59.0	1.550	0.370	-1.020	0.880
2020/01/31 13:16:59.1	1.550	0.380	-1.050	0.870
2020/01/31 13:16:59.2	1.550	0.390	-1.070	0.860
2020/01/31 13:16:59.3	1.550	0.390	-1.090	0.830
2020/01/31 13:16:59.4	1.550	0.400	-1.110	0.810
2020/01/31 13:16:59.5	1.560	0.400	-1.120	0.780
2020/01/31 13:16:59.6	1.550	0.390	-1.140	0.740
2020/01/31 13:16:59.7	1.560	0.390	-1.140	0.700
2020/01/31 13:16:59.8	1.570	0.390	-1.150	0.660
2020/01/31 13:16:59.9	1.580	0.380	-1.150	0.610
2020/01/31 13:17:00.0	1.590	0.370	-1.150	0.560
2020/01/31 13:17:00.1	1.610	0.360	-1.150	0.500
2020/01/31 13:17:00.2	1.620	0.350	-1.140	0.450
2020/01/31 13:17:00.3	1.640	0.340	-1.140	0.390
2020/01/31 13:17:00.4	1.650	0.330	-1.130	0.320
2020/01/31 13:17:00.5	1.670	0.320	-1.110	0.260
2020/01/31 13:17:00.6	1.680	0.310	-1.100	0.190
2020/01/31 13:17:00.7	1.700	0.300	-1.080	0.120
2020/01/31 13:17:00.8	1.720	0.290	-1.070	0.050
2020/01/31 13:17:00.9	1.740	0.280	-1.050	-0.020
2020/01/31 13:17:01.0	1.760	0.270	-1.030	-0.100
2020/01/31 13:17:01.1	1.780	0.260	-1.000	-0.170
2020/01/31 13:17:01.2	1.800	0.260	-0.980	-0.240
2020/01/31 13:17:01.3	1.820	0.250	-0.950	-0.310
2020/01/31 13:17:01.4	1.850	0.250	-0.930	-0.380
2020/01/31 13:17:01.5	1.870	0.250	-0.900	-0.450
2020/01/31 13:17:01.6	1.890	0.250	-0.870	-0.520
2020/01/31 13:17:01.7	1.920	0.250	-0.840	-0.580
2020/01/31 13:17:01.8	1.940	0.250	-0.800	-0.640
2020/01/31 13:17:01.9	1.970	0.250	-0.760	-0.700
2020/01/31 13:17:02.0	1.990	0.250	-0.720	-0.760
2020/01/31 13:17:02.1	2.010	0.250	-0.680	-0.810
2020/01/31 13:17:02.2	2.040	0.260	-0.640	-0.860
2020/01/31 13:17:02.3	2.060	0.260	-0.600	-0.910
2020/01/31 13:17:02.4	2.090	0.270	-0.550	-0.950
2020/01/31 13:17:02.5	2.110	0.270	-0.510	-0.980
2020/01/31 13:17:02.6	2.130	0.280	-0.450	-1.020
2020/01/31 13:17:02.7	2.150	0.280	-0.410	-1.050
2020/01/31 13:17:02.8	2.170	0.280	-0.350	-1.070
2020/01/31 13:17:02.9	2.190	0.290	-0.300	-1.090
2020/01/31 13:17:03.0	2.200	0.290	-0.250	-1.100
2020/01/31 13:17:03.1	2.220	0.290	-0.190	-1.120
2020/01/31 13:17:03.2	2.230	0.300	-0.140	-1.120
2020/01/31 13:17:03.3	2.240	0.300	-0.090	-1.130
2020/01/31 13:17:03.4	2.250	0.300	-0.030	-1.120
2020/01/31 13:17:03.5	2.250	0.290	0.020	-1.120
2020/01/31 13:17:03.6	2.260	0.290	0.070	-1.110
2020/01/31 13:17:03.7	2.270	0.290	0.130	-1.100
2020/01/31 13:17:03.8	2.270	0.290	0.180	-1.080
2020/01/31 13:17:03.9	2.270	0.280	0.230	-1.060
2020/01/31 13:17:04.0	2.260	0.280	0.270	-1.040
2020/01/31 13:17:04.1	2.260	0.270	0.320	-1.020
2020/01/31 13:17:04.2	2.260	0.260	0.360	-0.990
2020/01/31 13:17:04.3	2.250	0.250	0.400	-0.960
2020/01/31 13:17:04.4	2.240	0.250	0.430	-0.930
2020/01/31 13:17:04.5	2.230	0.240	0.470	-0.890
2020/01/31 13:17:04.6	2.230	0.230	0.500	-0.850
2020/01/31 13:17:04.7	2.220	0.220	0.520	-0.810
2020/01/31 13:17:04.8	2.210	0.210	0.550	-0.760
2020/01/31 13:17:04.9	2.190	0.200	0.570	-0.710
2020/01/31 13:17:05.0	2.180	0.190	0.580	-0.650
2020/01/31 13:17:05.1	2.160	0.180	0.600	-0.590
2020/01/31 13:17:05.2	2.140	0.170	0.610	-0.530
2020/01/31 13:17:05.3	2.120	0.160	0.620	-0.470
2020/01/31 13:17:05.4	2.100	0.150	0.620	-0.400
2020/01/31 13:17:05.5	2.080	0.140	0.620	-0.330
2020/01/31 13:17:05.6	2.060	0.130	0.620	-0.260
2020/01/31 13:17:05.7	2.040	0.120	0.620	-0.190
2020/01/31 13:17:05.8	2.020	0.110	0.610	-0.120
2020/01/31 13:17:05.9	1.990	0.100	0.600	-0.060
2020/01/31 13:17:06.0	1.970	0.080	0.590	0.010
2020/01/31 13:17:06.1	1.940	0.070	0.580	0.080
2020/01/31 13:17:06.2	1.920	0.050	0.560	0.140
2020/01/31 13:17:06.3	1.890	0.040	0.550	0.190
2020/01/31 13:17:06.4	1.860	0.020	0.530	0.250
2020/01/31 13:17:06.5	1.840	0.000	0.510	0.300
2020/01/31 13:17:06.6	1.820	-0.010	0.480	0.350
2020/01/31 13:17:06.7	1.790	-0.030	0.460	0.390
2020/01/31 13:17:06.8	1.770	-0.050	0.430	0.420
2020/01/31 13:17:06.9	1.750	-0.070	0.410	0.460
2020/01/31 13:17:07.0	1.720	-0.100	0.380	0.480
2020/01/31 13:17:07.1	1.700	-0.120	0.350	0.510
2020/01/31 13:17:07.2	1.680	-0.140	0.310	0.530
2020/01/31 13:17:07.3	1.660	-0.160	0.280	0.540
2020/01/31 13:17:07.4	1.650	-0.190	0.250	0.550
2020/01/31 13:17:07.5	1.630	-0.210	0.210	0.560
2020/01/31 13:17:07.6	1.620	-0.230	0.170	0.560
2020/01/31 13:17:07.7	1.600	-0.250	0.140	0.560
2020/01/31 13:17:07.8	1.590	-0.280	0.100	0.560
2020/01/31 13:17:07.9	1.580	-0.300	0.060	0.560
2020/01/31 13:17:08.0	1.580	-0.320	0.030	0.550
2020/01/31 13:17:08.1	1.580	-0.340	-0.010	0.530
2020/01/31 13:17:08.2	1.580	-0.360	-0.050	0.510
2020/01/31 13:17:08.3	1.580	-0.380	-0.080	0.490
2020/01/31 13:17:08.4	1.590	-0.400	-0.120	0.470
2020/01/31 13:17:08.5	1.600	-0.410	-0.160	0.440
2020/01/31 13:17:08.6	1.610	-0.430	-0.190	0.400
2020/01/31 13:17:08.7	1.630	-0.440	-0.230	0.370
2020/01/31 13:17:08.8	1.650	-0.450	-0.270	0.320
2020/01/31 13:17:08.9	1.670	-0.460	-0.310	0.280
2020/01/31 13:17:09.0	1.700	-0.470	-0.340	0.230
2020/01/31 13:17:09.1	1.730	-0.470	-0.380	0.180
2020/01/31 13:17:09.2	1.760	-0.480	-0.420	0.120
2020/01/31 13:17:09.3	1.790	-0.480	-0.460	0.070
2020/01/31 13:17:09.4	1.820	-0.480	-0.500	0.010
2020/01/31 13:17:09.5	1.840	-0.480	-0.530	-0.040
2020/01/31 13:17:09.6	1.870	-0.470	-0.570	-0.110
2020/01/31 13:17:09.7	1.900	-0.470	-0.610	-0.160
2020/01/31 13:17:09.8	1.920	-0.460	-0.640	-0.220
2020/01/31 13:17:09.9	1.950	-0.450	-0.670	-0.270
2020/01/31 13:17:10.0	1.970	-0.440	-0.700	-0.320
2020/01/31 13:17:10.1	1.990	-0.430	-0.720	-0.370
2020/01/31 13:17:10.2	2.000	-0.420	-0.750	-0.420
2020/01/31 13:17:10.3	2.020	-0.400	-0.770	-0.460
2020/01/31 13:17:10.4	2.030	-0.390	-0.780	-0.500
2020/01/31 13:17:10.5	2.040	-0.370	-0.800	-0.540
2020/01/31 13:17:10.6	2.050	-0.360	-0.810	-0.570
2020/01/31 13:17:10.7	2.060	-0.340	-0.820	-0.610
2020/01/31 13:17:10.8	2.060	-0.330	-0.820	-0.630
2020/01/31 13:17:10.9	2.070	-0.310	-0.820	-0.660
2020/01/31 13:17:11.0	2.080	-0.290	-0.810	-0.680
2020/01/31 13:17:11.1	2.080	-0.280	-0.800	-0.690
2020/01/31 13:17:11.2	2.090	-0.260	-0.790	-0.710
2020/01/31 13:17:11.3	2.090	-0.240	-0.780	-0.720
2020/01/31 13:17:11.4	2.090	-0.230	-0.760	-0.720
2020/01/31 13:17:11.5	2.090	-0.210	-0.740	-0.730
2020/01/31 13:17:11.6	2.090	-0.200	-0.720	-0.730
2020/01/31 13:17:11.7	2.090	-0.180	-0.700	-0.730
2020/01/31 13:17:11.8	2.090	-0.170	-0.670	-0.720
2020/01/31 13:17:11.9	2.090	-0.150	-0.650	-0.720
2020/01/31 13:17:12.0	2.090	-0.140	-0.630	-0.720
2020/01/31 13:17:12.1	2.080	-0.130	-0.600	-0.710
2020/01/31 13:17:12.2	2.080	-0.120	-0.580	-0.700
2020/01/31 13:17:12.3	2.070	-0.110	-0.560	-0.690
2020/01/31 13:17:12.4	2.060	-0.100	-0.530	-0.680
2020/01/31 13:17:12.5	2.050	-0.100	-0.510	-0.670
2020/01/31 13:17:12.6	2.050	-0.090	-0.490	-0.650
2020/01/31 13:17:12.7	2.040	-0.080	-0.470	-0.640
2020/01/31 13:17:12.8	2.030	-0.080	-0.460	-0.630
2020/01/31 13:17:12.9	2.020	-0.070	-0.440	-0.610
2020/01/31 13:17:13.0	2.000	-0.070	-0.430	-0.600
2020/01/31 13:17:13.1	1.990	-0.070	-0.420	-0.590
2020/01/31 13:17:13.2	1.970	-0.060	-0.410	-0.570
2020/01/31 13:17:13.3	1.960	-0.050	-0.400	-0.560
2020/01/31 13:17:13.4	1.940	-0.050	-0.390	-0.540
2020/01/31 13:17:13.5	1.930	-0.040	-0.390	-0.520
2020/01/31 13:17:13.6	1.910	-0.030	-0.380	-0.510
2020/01/31 13:17:13.7	1.900	-0.020	-0.380	-0.490
2020/01/31 13:17:13.8	1.890	-0.010	-0.380	-0.470
2020/01/31 13:17:13.9	1.870	-0.000	-0.380	-0.460
2020/01/31 13:17:14.0	1.860	0.010	-0.380	-0.440
2020/01/31 13:17:14.1	1.850	0.030	-0.390	-0.420
2020/01/31 13:17:14.2	1.850	0.050	-0.390	-0.400
2020/01/31 13:17:14.3	1.840	0.070	-0.400	-0.380
2020/01/31 13:17:14.4	1.830	0.090	-0.400	-0.360
2020/01/31 13:17:14.5	1.830	0.110	-0.410	-0.340
2020/01/31 13:17:14.6	1.830	0.140	-0.420	-0.310
2020/01/31 13:17:14.7	1.830	0.170	-0.420	-0.290
2020/01/31 13:17:14.8	1.830	0.200	-0.430	-0.260
2020/01/31 13:17:14.9	1.830	0.230	-0.440	-0.240
2020/01/31 13:17:15.0	1.840	0.270	-0.440	-0.220
2020/01/31 13:17:15.1	1.840	0.300	-0.450	-0.190
2020/01/31 13:17:15.2	1.840	0.340	-0.450	-0.160
2020/01/31 13:17:15.3	1.850	0.370	-0.460	-0.140
2020/01/31 13:17:15.4	1.850	0.410	-0.460	-0.110
2020/01/31 13:17:15.5	1.860	0.450	-0.460	-0.080
2020/01/31 13:17:15.6	1.870	0.490	-0.460	-0.050
2020/01/31 13:17:15.7	1.870	0.520	-0.460	-0.030
2020/01/31 13:17:15.8	1.880	0.560	-0.450	0.000
2020/01/31 13:17:15.9	1.890	0.590	-0.450	0.030
2020/01/31 13:17:16.0	1.900	0.630	-0.440	0.060
2020/01/31 13:17:16.1	1.900	0.660	-0.430	0.090
2020/01/31 13:17:16.2	1.910	0.690	-0.420	0.120
2020/01/31 13:17:16.3	1.920	0.720	-0.410	0.150
2020/01/31 13:17:16.4	1.930	0.740	-0.390	0.180
2020/01/31 13:17:16.5	1.940	0.760	-0.370	0.210
2020/01/31 13:17:16.6	1.940	0.780	-0.350	0.240
2020/01/31 13:17:16.7	1.950	0.800	-0.330	0.280
2020/01/31 13:17:16.8	1.960	0.810	-0.310	0.310
2020/01/31 13:17:16.9	1.970	0.810	-0.280	0.340
2020/01/31 13:17:17.0	1.970	0.820	-0.250	0.370
2020/01/31 13:17:17.1	1.980	0.820	-0.220	0.410
2020/01/31 13:17:17.2	1.990	0.810	-0.190	0.440
2020/01/31 13:17:17.3	1.990	0.800	-0.150	0.480
2020/01/31 13:17:17.4	2.000	0.790	-0.110	0.510
2020/01/31 13:17:17.5	2.000	0.770	-0.070	0.540
2020/01/31 13:17:17.6	2.000	0.740	-0.030	0.570
2020/01/31 13:17:17.7	2.000	0.720	0.010	0.610
2020/01/31 13:17:17.8	1.990	0.680	0.060	0.640
2020/01/31 13:17:17.9	1.990	0.650	0.100	0.660
2020/01/31 13:17:18.0	1.990	0.610	0.140	0.690
2020/01/31 13:17:18.1	1.980	0.560	0.190	0.710
2020/01/31 13:17:18.2	1.980	0.510	0.230	0.730
2020/01/31 13:17:18.3	1.970	0.460	0.270	0.750
2020/01/31 13:17:18.4	1.960	0.410	0.300	0.760
2020/01/31 13:17:18.5	1.950	0.360	0.340	0.770
2020/01/31 13:17:18.6	1.950	0.300	0.370	0.780
2020/01/31 13:17:18.7	1.950	0.240	0.400	0.780
2020/01/31 13:17:18.8	1.940	0.180	0.420	0.780
2020/01/31 13:17:18.9	1.930	0.120	0.440	0.770
2020/01/31 13:17:19.0	1.920	0.070	0.460	0.760
2020/01/31 13:17:19.1	1.920	0.010	0.470	0.750
2020/01/31 13:17:19.2	1.910	-0.050	0.480	0.730
2020/01/31 13:17:19.3	1.900	-0.110	0.480	0.710
2020/01/31 13:17:19.4	1.900	-0.160	0.480	0.690
2020/01/31 13:17:19.5	1.890	-0.210	0.470	0.660
2020/01/31 13:17:19.6	1.890	-0.270	0.460	0.630
2020/01/31 13:17:19.7	1.890	-0.310	0.450	0.600
2020/01/31 13:17:19.8	1.880	-0.360	0.440	0.570
2020/01/31 13:17:19.9	1.870	-0.400	0.420	0.530
2020/01/31 13:17:20.0	1.870	-0.450	0.400	0.490
2020/01/31 13:17:20.1	1.860	-0.480	0.380	0.440
2020/01/31 13:17:20.2	1.860	-0.520	0.360	0.400
2020/01/31 13:17:20.3	1.850	-0.550	0.340	0.350
2020/01/31 13:17:20.4	1.840	-0.580	0.310	0.300
2020/01/31 13:17:20.5	1.840	-0.600	0.280	0.240
2020/01/31 13:17:20.6	1.840	-0.630	0.260	0.190
2020/01/31 13:17:20.7	1.840	-0.650	0.230	0.130
2020/01/31 13:17:20.8	1.840	-0.660	0.200	0.070
2020/01/31 13:17:20.9	1.830	-0.680	0.180	0.010
2020/01/31 13:17:21.0	1.830	-0.690	0.150	-0.050
2020/01/31 13:17:21.1	1.830	-0.690	0.120	-0.110
2020/01/31 13:17:21.2	1.820	-0.700	0.090	-0.180
2020/01/31 13:17:21.3	1.820	-0.700	0.060	-0.240
2020/01/31 13:17:21.4	1.820	-0.700	0.030	-0.300
2020/01/31 13:17:21.5	1.830	-0.700	-0.000	-0.370
2020/01/31 13:17:21.6	1.830	-0.690	-0.040	-0.430
2020/01/31 13:17:21.7	1.830	-0.680	-0.070	-0.500
2020/01/31 13:17:21.8	1.840	-0.670	-0.100	-0.560
2020/01/31 13:17:21.9	1.840	-0.660	-0.130	-0.620
2020/01/31 13:17:22.0	1.840	-0.640	-0.170	-0.670
2020/01/31 13:17:22.1	1.840	-0.630	-0.200	-0.730
2020/01/31 13:17:22.2	1.850	-0.610	-0.230	-0.780
2020/01/31 13:17:22.3	1.850	-0.590	-0.260	-0.830
2020/01/31 13:17:22.4	1.850	-0.570	-0.290	-0.870
2020/01/31 13:17:22.5	1.850	-0.550	-0.320	-0.920
2020/01/31 13:17:22.6	1.840	-0.530	-0.350	-0.960
2020/01/31 13:17:22.7	1.840	-0.510	-0.380	-0.990
2020/01/31 13:17:22.8	1.840	-0.490	-0.400	-1.030
2020/01/31 13:17:22.9	1.830	-0.470	-0.430	-1.060
2020/01/31 13:17:23.0	1.830	-0.440	-0.450	-1.080
2020/01/31 13:17:23.1	1.820	-0.420	-0.470	-1.110
2020/01/31 13:17:23.2	1.810	-0.400	-0.490	-1.130
2020/01/31 13:17:23.3	1.800	-0.380	-0.500	-1.150
2020/01/31 13:17:23.4	1.790	-0.360	-0.520	-1.160
2020/01/31 13:17:23.5	1.780	-0.330	-0.530	-1.170
2020/01/31 13:17:23.6	1.780	-0.310	-0.540	-1.180
2020/01/31 13:17:23.7	1.770	-0.290	-0.550	-1.180
2020/01/31 13:17:23.8	1.750	-0.270	-0.560	-1.180
2020/01/31 13:17:23.9	1.740	-0.250	-0.560	-1.180
2020/01/31 13:17:24.0	1.730	-0.230	-0.570	-1.170
2020/01/31 13:17:24.1	1.710	-0.200	-0.580	-1.160
2020/01/31 13:17:24.2	1.700	-0.180	-0.580	-1.150
2020/01/31 13:17:24.3	1.680	-0.160	-0.590	-1.130
2020/01/31 13:17:24.4	1.660	-0.140	-0.590	-1.110
2020/01/31 13:17:24.5	1.640	-0.120	-0.590	-1.080
2020/01/31 13:17:24.6	1.630	-0.100	-0.600	-1.050
2020/01/31 13:17:24.7	1.610	-0.080	-0.600	-1.020
2020/01/31 13:17:24.8	1.590	-0.060	-0.610	-0.980
2020/01/31 13:17:24.9	1.570	-0.030	-0.620	-0.940
2020/01/31 13:17:25.0	1.560	-0.010	-0.630	-0.900
2020/01/31 13:17:25.1	1.540	0.010	-0.640	-0.860
2020/01/31 13:17:25.2	1.530	0.030	-0.650	-0.820
2020/01/31 13:17:25.3	1.520	0.060	-0.670	-0.780
2020/01/31 13:17:25.4	1.510	0.080	-0.690	-0.740
2020/01/31 13:17:25.5	1.500	0.100	-0.710	-0.700
2020/01/31 13:17:25.6	1.500	0.130	-0.730	-0.660
2020/01/31 13:17:25.7	1.500	0.150	-0.760	-0.630
2020/01/31 13:17:25.8	1.510	0.180	-0.780	-0.590
2020/01/31 13:17:25.9	1.510	0.200	-0.810	-0.560
2020/01/31 13:17:26.0	1.520	0.230	-0.840	-0.530
2020/01/31 13:17:26.1	1.530	0.260	-0.870	-0.500
2020/01/31 13:17:26.2	1.550	0.280	-0.900	-0.470
2020/01/31 13:17:26.3	1.560	0.310	-0.930	-0.450
2020/01/31 13:17:26.4	1.580	0.340	-0.960	-0.420
2020/01/31 13:17:26.5	1.600	0.360	-0.990	-0.400
2020/01/31 13:17:26.6	1.620	0.390	-1.010	-0.380
2020/01/31 13:17:26.7	1.640	0.410	-1.030	-0.360
2020/01/31 13:17:26.8	1.660	0.440	-1.050	-0.330
2020/01/31 13:17:26.9	1.690	0.460	-1.070	-0.310
2020/01/31 13:17:27.0	1.710	0.480	-1.080	-0.280
2020/01/31 13:17:27.1	1.730	0.500	-1.080	-0.260
2020/01/31 13:17:27.2	1.760	0.520	-1.080	-0.230
2020/01/31 13:17:27.3	1.780	0.530	-1.070	-0.200
2020/01/31 13:17:27.4	1.800	0.550	-1.050	-0.160
2020/01/31 13:17:27.5	1.830	0.560	-1.030	-0.130
2020/01/31 13:17:27.6	1.860	0.560	-0.990	-0.090
2020/01/31 13:17:27.7	1.880	0.570	-0.950	-0.050
2020/01/31 13:17:27.8	1.900	0.570	-0.910	-0.010
2020/01/31 13:17:27.9	1.910	0.570	-0.850	0.030
2020/01/31 13:17:28.0	1.930	0.570	-0.790	0.070
2020/01/31 13:17:28.1	1.950	0.560	-0.720	0.110
2020/01/31 13:17:28.2	1.970	0.550	-0.650	0.160
2020/01/31 13:17:28.3	1.980	0.540	-0.570	0.200
2020/01/31 13:17:28.4	1.990	0.520	-0.490	0.250
2020/01/31 13:17:28.5	2.010	0.500	-0.410	0.290
2020/01/31 13:17:28.6	2.020	0.480	-0.320	0.340
2020/01/31 13:17:28.7	2.030	0.460	-0.230	0.380
2020/01/31 13:17:28.8	2.040	0.430	-0.140	0.430
2020/01/31 13:17:28.9	2.050	0.400	-0.050	0.470
2020/01/31 13:17:29.0	2.060	0.370	0.040	0.520
2020/01/31 13:17:29.1	2.060	0.340	0.130	0.560
2020/01/31 13:17:29.2	2.070	0.310	0.220	0.600
2020/01/31 13:17:29.3	2.080	0.280	0.300	0.640
2020/01/31 13:17:29.4	2.080	0.250	0.390	0.680
2020/01/31 13:17:29.5	2.090	0.210	0.460	0.720
2020/01/31 13:17:29.6	2.100	0.180	0.540	0.750
2020/01/31 13:17:29.7	2.110	0.140	0.600	0.780
2020/01/31 13:17:29.8	2.110	0.110	0.670	0.810
2020/01/31 13:17:29.9	2.110	0.080	0.720	0.830
2020/01/31 13:17:30.0	2.110	0.040	0.770	0.860
2020/01/31 13:17:30.1	2.110	0.010	0.810	0.880
2020/01/31 13:17:30.2	2.110	-0.020	0.840	0.890
2020/01/31 13:17:30.3	2.110	-0.050	0.870	0.910
2020/01/31 13:17:30.4	2.110	-0.070	0.890	0.910
2020/01/31 13:17:30.5	2.110	-0.100	0.900	0.920
2020/01/31 13:17:30.6	2.110	-0.120	0.910	0.920
2020/01/31 13:17:30.7	2.100	-0.150	0.900	0.920
2020/01/31 13:17:30.8	2.090	-0.170	0.900	0.920
2020/01/31 13:17:30.9	2.080	-0.180	0.880	0.920
2020/01/31 13:17:31.0	2.070	-0.200	0.860	0.910
2020/01/31 13:17:31.1	2.050	-0.210	0.830	0.900
2020/01/31 13:17:31.2	2.040	-0.230	0.800	0.890
2020/01/31 13:17:31.3	2.020	-0.240	0.770	0.880
2020/01/31 13:17:31.4	1.990	-0.250	0.730	0.870
2020/01/31 13:17:31.5	1.970	-0.260	0.690	0.860
2020/01/31 13:17:31.6	1.940	-0.260	0.640	0.840
2020/01/31 13:17:31.7	1.910	-0.270	0.600	0.830
2020/01/31 13:17:31.8	1.870	-0.270	0.550	0.810
2020/01/31 13:17:31.9	1.840	-0.270	0.500	0.790
2020/01/31 13:17:32.0	1.800	-0.280	0.450	0.770
2020/01/31 13:17:32.1	1.770	-0.280	0.410	0.750
2020/01/31 13:17:32.2	1.730	-0.280	0.360	0.730
2020/01/31 13:17:32.3	1.690	-0.280	0.310	0.700
2020/01/31 13:17:32.4	1.640	-0.280	0.260	0.670
2020/01/31 13:17:32.5	1.600	-0.280	0.210	0.640
2020/01/31 13:17:32.6	1.560	-0.280	0.160	0.610
2020/01/31 13:17:32.7	1.510	-0.270	0.110	0.580
2020/01/31 13:17:32.8	1.470	-0.270	0.060	0.540
2020/01/31 13:17:32.9	1.430	-0.270	0.020	0.500
2020/01/31 13:17:33.0	1.390	-0.270	-0.030	0.460
2020/01/31 13:17:33.1	1.360	-0.260	-0.070	0.420
2020/01/31 13:17:33.2	1.320	-0.260	-0.120	0.380
2020/01/31 13:17:33.3	1.280	-0.260	-0.160	0.330
2020/01/31 13:17:33.4	1.250	-0.250	-0.200	0.290
2020/01/31 13:17:33.5	1.220	-0.250	-0.250	0.240
2020/01/31 13:17:33.6	1.200	-0.240	-0.290	0.190
2020/01/31 13:17:33.7	1.170	-0.230	-0.330	0.140
2020/01/31 13:17:33.8	1.140	-0.230	-0.370	0.090
2020/01/31 13:17:33.9	1.120	-0.220	-0.410	0.040
2020/01/31 13:17:34.0	1.090	-0.210	-0.440	-0.000
2020/01/31 13:17:34.1	1.070	-0.200	-0.480	-0.050
2020/01/31 13:17:34.2	1.050	-0.190	-0.510	-0.100
2020/01/31 13:17:34.3	1.040	-0.180	-0.540	-0.140
2020/01/31 13:17:34.4	1.020	-0.160	-0.580	-0.190
2020/01/31 13:17:34.5	1.010	-0.150	-0.600	-0.230
2020/01/31 13:17:34.6	1.000	-0.140	-0.630	-0.270
2020/01/31 13:17:34.7	0.990	-0.120	-0.660	-0.320
2020/01/31 13:17:34.8	0.980	-0.110	-0.680	-0.360
2020/01/31 13:17:34.9	0.970	-0.090	-0.700	-0.400
2020/01/31 13:17:35.0	0.970	-0.080	-0.710	-0.440
2020/01/31 13:17:35.1	0.970	-0.060	-0.720	-0.480
2020/01/31 13:17:35.2	0.970	-0.050	-0.730	-0.520
2020/01/31 13:17:35.3	0.970	-0.030	-0.740	-0.560
2020/01/31 13:17:35.4	0.980	-0.020	-0.750	-0.600
2020/01/31 13:17:35.5	0.990	-0.000	-0.750	-0.640
2020/01/31 13:17:35.6	1.000	0.010	-0.750	-0.680
2020/01/31 13:17:35.7	1.020	0.020	-0.750	-0.720
2020/01/31 13:17:35.8	1.030	0.040	-0.750	-0.750
2020/01/31 13:17:35.9	1.050	0.050	-0.750	-0.790
2020/01/31 13:17:36.0	1.080	0.060	-0.740	-0.820
2020/01/31 13:17:36.1	1.100	0.060	-0.730	-0.860
2020/01/31 13:17:36.2	1.130	0.070	-0.730	-0.890
2020/01/31 13:17:36.3	1.160	0.080	-0.720	-0.910
2020/01/31 13:17:36.4	1.190	0.080	-0.720	-0.940
2020/01/31 13:17:36.5	1.230	0.090	-0.710	-0.960
2020/01/31 13:17:36.6	1.280	0.090	-0.710	-0.980
2020/01/31 13:17:36.7	1.310	0.090	-0.710	-1.000
2020/01/31 13:17:36.8	1.350	0.090	-0.700	-1.020
2020/01/31 13:17:36.9	1.390	0.080	-0.700	-1.040
2020/01/31 13:17:37.0	1.430	0.080	-0.700	-1.060
2020/01/31 13:17:37.1	1.470	0.070	-0.700	-1.070
2020/01/31 13:17:37.2	1.510	0.060	-0.700	-1.080
2020/01/31 13:17:37.3	1.550	0.050	-0.700	-1.100
2020/01/31 13:17:37.4	1.590	0.040	-0.700	-1.110
2020/01/31 13:17:37.5	1.630	0.030	-0.710	-1.120
2020/01/31 13:17:37.6	1.680	0.020	-0.710	-1.130
2020/01/31 13:17:37.7	1.720	0.000	-0.710	-1.140
2020/01/31 13:17:37.8	1.750	-0.010	-0.720	-1.150
2020/01/31 13:17:37.9	1.780	-0.030	-0.720	-1.160
2020/01/31 13:17:38.0	1.820	-0.050	-0.720	-1.160
2020/01/31 13:17:38.1	1.840	-0.070	-0.730	-1.170
2020/01/31 13:17:38.2	1.870	-0.090	-0.720	-1.170
2020/01/31 13:17:38.3	1.890	-0.100	-0.720	-1.170
2020/01/31 13:17:38.4	1.910	-0.120	-0.720	-1.160
2020/01/31 13:17:38.5	1.930	-0.140	-0.710	-1.160
2020/01/31 13:17:38.6	1.940	-0.160	-0.700	-1.150
2020/01/31 13:17:38.7	1.950	-0.170	-0.690	-1.130
2020/01/31 13:17:38.8	1.960	-0.190	-0.670	-1.120
2020/01/31 13:17:38.9	1.950	-0.200	-0.650	-1.100
2020/01/31 13:17:39.0	1.950	-0.210	-0.630	-1.070
2020/01/31 13:17:39.1	1.940	-0.230	-0.600	-1.050
2020/01/31 13:17:39.2	1.930	-0.230	-0.570	-1.020
2020/01/31 13:17:39.3	1.910	-0.240	-0.540	-0.990
2020/01/31 13:17:39.4	1.890	-0.250	-0.500	-0.950
2020/01/31 13:17:39.5	1.870	-0.250	-0.460	-0.910
2020/01/31 13:17:39.6	1.830	-0.260	-0.420	-0.870
2020/01/31 13:17:39.7	1.800	-0.260	-0.370	-0.830
2020/01/31 13:17:39.8	1.770	-0.250	-0.320	-0.790
2020/01/31 13:17:39.9	1.740	-0.250	-0.270	-0.740
2020/01/31 13:17:40.0	1.700	-0.240	-0.220	-0.690
2020/01/31 13:17:40.1	1.670	-0.230	-0.170	-0.640
2020/01/31 13:17:40.2	1.630	-0.220	-0.120	-0.590
2020/01/31 13:17:40.3	1.590	-0.210	-0.060	-0.540
2020/01/31 13:17:40.4	1.550	-0.190	-0.010	-0.490
2020/01/31 13:17:40.5	1.510	-0.170	0.040	-0.430
2020/01/31 13:17:40.6	1.470	-0.150	0.100	-0.380
2020/01/31 13:17:40.7	1.420	-0.130	0.150	-0.320
2020/01/31 13:17:40.8	1.380	-0.110	0.200	-0.260
2020/01/31 13:17:40.9	1.340	-0.080	0.250	-0.200
2020/01/31 13:17:41.0	1.300	-0.050	0.300	-0.130
2020/01/31 13:17:41.1	1.260	-0.030	0.340	-0.070
2020/01/31 13:17:41.2	1.220	-0.000	0.390	-0.010
2020/01/31 13:17:41.3	1.180	0.030	0.430	0.060
2020/01/31 13:17:41.4	1.140	0.050	0.460	0.130
2020/01/31 13:17:41.5	1.100	0.080	0.500	0.190
2020/01/31 13:17:41.6	1.060	0.110	0.520	0.260
2020/01/31 13:17:41.7	1.030	0.140	0.550	0.330
2020/01/31 13:17:41.8	0.990	0.160	0.570	0.400
2020/01/31 13:17:41.9	0.960	0.190	0.590	0.460
2020/01/31 13:17:42.0	0.930	0.210	0.610	0.530
2020/01/31 13:17:42.1	0.900	0.230	0.610	0.590
2020/01/31 13:17:42.2	0.870	0.250	0.620	0.650
2020/01/31 13:17:42.3	0.850	0.270	0.620	0.700
2020/01/31 13:17:42.4	0.820	0.290	0.610	0.760
2020/01/31 13:17:42.5	0.800	0.300	0.600	0.810
2020/01/31 13:17:42.6	0.770	0.310	0.580	0.850
2020/01/31 13:17:42.7	0.750	0.320	0.560	0.890
2020/01/31 13:17:42.8	0.740	0.330	0.540	0.930
2020/01/31 13:17:42.9	0.730	0.340	0.510	0.960
2020/01/31 13:17:43.0	0.720	0.340	0.470	0.980
2020/01/31 13:17:43.1	0.710	0.340	0.430	1.000
2020/01/31 13:17:43.2	0.710	0.340	0.390	1.020
2020/01/31 13:17:43.3	0.710	0.340	0.340	1.020
2020/01/31 13:17:43.4	0.710	0.330	0.280	1.030
2020/01/31 13:17:43.5	0.720	0.320	0.230	1.020
2020/01/31 13:17:43.6	0.720	0.310	0.170	1.020
2020/01/31 13:17:43.7	0.740	0.300	0.110	1.000
2020/01/31 13:17:43.8	0.750	0.290	0.040	0.980
2020/01/31 13:17:43.9	0.770	0.270	-0.020	0.960
2020/01/31 13:17:44.0	0.790	0.260	-0.090	0.930
2020/01/31 13:17:44.1	0.810	0.240	-0.150	0.900
2020/01/31 13:17:44.2	0.830	0.220	-0.220	0.870
2020/01/31 13:17:44.3	0.860	0.200	-0.280	0.830
2020/01/31 13:17:44.4	0.880	0.170	-0.340	0.790
2020/01/31 13:17:44.5	0.910	0.150	-0.390	0.750
2020/01/31 13:17:44.6	0.920	0.130	-0.450	0.710
2020/01/31 13:17:44.7	0.950	0.110	-0.500	0.660
2020/01/31 13:17:44.8	0.980	0.080	-0.540	0.620
2020/01/31 13:17:44.9	1.000	0.060	-0.590	0.570
2020/01/31 13:17:45.0	1.030	0.030	-0.620	0.530
2020/01/31 13:17:45.1	1.050	0.010	-0.660	0.480
2020/01/31 13:17:45.2	1.080	-0.020	-0.690	0.430
2020/01/31 13:17:45.3	1.100	-0.040	-0.720	0.380
2020/01/31 13:17:45.4	1.130	-0.070	-0.740	0.330
2020/01/31 13:17:45.5	1.150	-0.090	-0.760	0.280
2020/01/31 13:17:45.6	1.190	-0.110	-0.770	0.230
2020/01/31 13:17:45.7	1.210	-0.130	-0.780	0.180
2020/01/31 13:17:45.8	1.230	-0.150	-0.790	0.130
2020/01/31 13:17:45.9	1.250	-0.170	-0.790	0.090
2020/01/31 13:17:46.0	1.270	-0.190	-0.800	0.040
2020/01/31 13:17:46.1	1.290	-0.200	-0.790	-0.010
2020/01/31 13:17:46.2	1.300	-0.220	-0.790	-0.060
2020/01/31 13:17:46.3	1.320	-0.230	-0.780	-0.100
2020/01/31 13:17:46.4	1.330	-0.240	-0.770	-0.150
2020/01/31 13:17:46.5	1.340	-0.250	-0.760	-0.190
2020/01/31 13:17:46.6	1.340	-0.260	-0.750	-0.230
2020/01/31 13:17:46.7	1.340	-0.260	-0.730	-0.270
2020/01/31 13:17:46.8	1.350	-0.270	-0.720	-0.310
2020/01/31 13:17:46.9	1.350	-0.270	-0.700	-0.340
2020/01/31 13:17:47.0	1.360	-0.260	-0.680	-0.370
2020/01/31 13:17:47.1	1.350	-0.260	-0.650	-0.400
2020/01/31 13:17:47.2	1.350	-0.250	-0.630	-0.430
2020/01/31 13:17:47.3	1.350	-0.240	-0.610	-0.450
2020/01/31 13:17:47.4	1.350	-0.230	-0.580	-0.470
2020/01/31 13:17:47.5	1.340	-0.220	-0.560	-0.490
2020/01/31 13:17:47.6	1.340	-0.200	-0.530	-0.510
2020/01/31 13:17:47.7	1.330	-0.180	-0.510	-0.520
2020/01/31 13:17:47.8	1.320	-0.160	-0.480	-0.530
2020/01/31 13:17:47.9	1.310	-0.140	-0.450	-0.540
2020/01/31 13:17:48.0	1.300	-0.110	-0.420	-0.550
2020/01/31 13:17:48.1	1.290	-0.090	-0.400	-0.550
2020/01/31 13:17:48.2	1.280	-0.060	-0.370	-0.550
2020/01/31 13:17:48.3	1.270	-0.030	-0.350	-0.550
2020/01/31 13:17:48.4	1.260	-0.010	-0.320	-0.540
2020/01/31 13:17:48.5	1.250	0.020	-0.300	-0.540
2020/01/31 13:17:48.6	1.250	0.050	-0.270	-0.520
2020/01/31 13:17:48.7	1.240	0.080	-0.250	-0.510
2020/01/31 13:17:48.8	1.230	0.110	-0.220	-0.500
2020/01/31 13:17:48.9	1.220	0.140	-0.200	-0.490
2020/01/31 13:17:49.0	1.210	0.160	-0.170	-0.470
2020/01/31 13:17:49.1	1.190	0.190	-0.140	-0.450
2020/01/31 13:17:49.2	1.180	0.210	-0.120	-0.430
2020/01/31 13:17:49.3	1.170	0.230	-0.090	-0.410
2020/01/31 13:17:49.4	1.160	0.240	-0.060	-0.380
2020/01/31 13:17:49.5	1.150	0.260	-0.030	-0.360
2020/01/31 13:17:49.6	1.140	0.270	-0.010	-0.330
2020/01/31 13:17:49.7	1.130	0.280	0.020	-0.300
2020/01/31 13:17:49.8	1.120	0.280	0.050	-0.270
2020/01/31 13:17:49.9	1.110	0.280	0.080	-0.230
2020/01/31 13:17:50.0	1.100	0.280	0.110	-0.200
2020/01/31 13:17:50.1	1.090	0.280	0.130	-0.170
2020/01/31 13:17:50.2	1.080	0.270	0.160	-0.140
2020/01/31 13:17:50.3	1.070	0.260	0.180	-0.100
2020/01/31 13:17:50.4	1.070	0.240	0.200	-0.070
2020/01/31 13:17:50.5	1.070	0.220	0.220	-0.040
2020/01/31 13:17:50.6	1.060	0.200	0.240	-0.010
2020/01/31 13:17:50.7	1.060	0.180	0.250	0.020
2020/01/31 13:17:50.8	1.060	0.150	0.260	0.050
2020/01/31 13:17:50.9	1.070	0.130	0.270	0.070
2020/01/31 13:17:51.0	1.070	0.100	0.280	0.100
2020/01/31 13:17:51.1	1.070	0.060	0.280	0.120
2020/01/31 13:17:51.2	1.080	0.030	0.280	0.130
2020/01/31 13:17:51.3	1.080	-0.000	0.270	0.150
2020/01/31 13:17:51.4	1.090	-0.040	0.260	0.160
2020/01/31 13:17:51.5	1.100	-0.070	0.250	0.170
2020/01/31 13:17:51.6	1.100	-0.110	0.230	0.170
2020/01/31 13:17:51.7	1.110	-0.140	0.210	0.170
2020/01/31 13:17:51.8	1.120	-0.180	0.190	0.160
2020/01/31 13:17:51.9	1.120	-0.210	0.170	0.160
2020/01/31 13:17:52.0	1.130	-0.250	0.140	0.140
2020/01/31 13:17:52.1	1.130	-0.280	0.100	0.130
2020/01/31 13:17:52.2	1.140	-0.310	0.070	0.110
2020/01/31 13:17:52.3	1.150	-0.330	0.030	0.080
2020/01/31 13:17:52.4	1.150	-0.360	-0.010	0.060
2020/01/31 13:17:52.5	1.160	-0.380	-0.050	0.030
2020/01/31 13:17:52.6	1.170	-0.400	-0.090	-0.000
2020/01/31 13:17:52.7	1.180	-0.420	-0.130	-0.040
2020/01/31 13:17:52.8	1.190	-0.430	-0.180	-0.070
2020/01/31 13:17:52.9	1.200	-0.440	-0.230	-0.110
2020/01/31 13:17:53.0	1.200	-0.450	-0.270	-0.160
2020/01/31 13:17:53.1	1.210	-0.450	-0.320	-0.200
2020/01/31 13:17:53.2	1.220	-0.450	-0.370	-0.250
2020/01/31 13:17:53.3	1.240	-0.450	-0.410	-0.290
2020/01/31 13:17:53.4	1.250	-0.450	-0.460	-0.340
2020/01/31 13:17:53.5	1.260	-0.440	-0.500	-0.390
2020/01/31 13:17:53.6	1.290	-0.430	-0.540	-0.440
2020/01/31 13:17:53.7	1.300	-0.410	-0.590	-0.480
2020/01/31 13:17:53.8	1.320	-0.400	-0.620	-0.530
2020/01/31 13:17:53.9	1.340	-0.380	-0.660	-0.580
2020/01/31 13:17:54.0	1.360	-0.360	-0.700	-0.620
2020/01/31 13:17:54.1	1.380	-0.340	-0.730	-0.670
2020/01/31 13:17:54.2	1.400	-0.310	-0.760	-0.710
2020/01/31 13:17:54.3	1.420	-0.290	-0.780	-0.750
2020/01/31 13:17:54.4	1.440	-0.260	-0.810	-0.790
2020/01/31 13:17:54.5	1.460	-0.240	-0.830	-0.820
2020/01/31 13:17:54.6	1.480	-0.210	-0.840	-0.850
2020/01/31 13:17:54.7	1.500	-0.190	-0.850	-0.880
2020/01/31 13:17:54.8	1.510	-0.160	-0.860	-0.910
2020/01/31 13:17:54.9	1.530	-0.140	-0.870	-0.930
2020/01/31 13:17:55.0	1.540	-0.120	-0.860	-0.950
2020/01/31 13:17:55.1	1.560	-0.090	-0.860	-0.970
2020/01/31 13:17:55.2	1.570	-0.070	-0.850	-0.980
2020/01/31 13:17:55.3	1.570	-0.060	-0.840	-0.990
2020/01/31 13:17:55.4	1.580	-0.040	-0.820	-1.000
2020/01/31 13:17:55.5	1.590	-0.020	-0.800	-1.000
2020/01/31 13:17:55.6	1.590	-0.010	-0.780	-1.000
2020/01/31 13:17:55.7	1.590	0.010	-0.750	-0.990
2020/01/31 13:17:55.8	1.590	0.020	-0.710	-0.980
2020/01/31 13:17:55.9	1.580	0.030	-0.680	-0.970
2020/01/31 13:17:56.0	1.580	0.030	-0.630	-0.950
2020/01/31 13:17:56.1	1.570	0.040	-0.590	-0.930
2020/01/31 13:17:56.2	1.560	0.050	-0.540	-0.910
2020/01/31 13:17:56.3	1.560	0.050	-0.490	-0.880
2020/01/31 13:17:56.4	1.550	0.060	-0.440	-0.860
2020/01/31 13:17:56.5	1.540	0.060	-0.390	-0.820
2020/01/31 13:17:56.6	1.530	0.070	-0.340	-0.790
2020/01/31 13:17:56.7	1.520	0.070	-0.290	-0.750
2020/01/31 13:17:56.8	1.510	0.070	-0.240	-0.720
2020/01/31 13:17:56.9	1.500	0.080	-0.190	-0.680
2020/01/31 13:17:57.0	1.500	0.080	-0.140	-0.640
2020/01/31 13:17:57.1	1.490	0.090	-0.090	-0.600
2020/01/31 13:17:57.2	1.480	0.090	-0.050	-0.550
2020/01/31 13:17:57.3	1.480	0.100	-0.010	-0.510
2020/01/31 13:17:57.4	1.470	0.100	0.030	-0.460
2020/01/31 13:17:57.5	1.470	0.110	0.060	-0.420
2020/01/31 13:17:57.6	1.460	0.120	0.090	-0.370
2020/01/31 13:17:57.7	1.450	0.130	0.120	-0.320
2020/01/31 13:17:57.8	1.450	0.140	0.140	-0.270
2020/01/31 13:17:57.9	1.450	0.150	0.160	-0.220
2020/01/31 13:17:58.0	1.450	0.170	0.170	-0.170
2020/01/31 13:17:58.1	1.450	0.180	0.180	-0.130
2020/01/31 13:17:58.2	1.450	0.190	0.190	-0.080
2020/01/31 13:17:58.3	1.460	0.210	0.190	-0.030
2020/01/31 13:17:58.4	1.460	0.230	0.190	0.010
2020/01/31 13:17:58.5	1.460	0.240	0.190	0.060
2020/01/31 13:17:58.6	1.460	0.260	0.180	0.100
2020/01/31 13:17:58.7	1.470	0.270	0.170	0.150
2020/01/31 13:17:58.8	1.480	0.290	0.160	0.190
2020/01/31 13:17:58.9	1.480	0.310	0.150	0.230
2020/01/31 13:17:59.0	1.490	0.320	0.130	0.280
2020/01/31 13:17:59.1	1.490	0.340	0.120	0.320
2020/01/31 13:17:59.2	1.500	0.350	0.100	0.360
2020/01/31 13:17:59.3	1.510	0.370	0.090	0.410
2020/01/31 13:17:59.4	1.510	0.380	0.080	0.450
2020/01/31 13:17:59.5	1.520	0.390	0.060	0.490
2020/01/31 13:17:59.6	1.510	0.400	0.050	0.540
2020/01/31 13:17:59.7	1.520	0.410	0.040	0.590
2020/01/31 13:17:59.8	1.520	0.420	0.030	0.630
2020/01/31 13:17:59.9	1.520	0.420	0.020	0.680
2020/01/31 13:18:00.0	1.520	0.420	0.020	0.720
2020/01/31 13:18:00.1	1.510	0.420	0.010	0.760
2020/01/31 13:18:00.2	1.510	0.420	0.010	0.810
2020/01/31 13:18:00.3	1.500	0.410	0.010	0.850
2020/01/31 13:18:00.4	1.490	0.400	0.010	0.880
2020/01/31 13:18:00.5	1.480	0.390	0.010	0.920
2020/01/31 13:18:00.6	1.470	0.380	0.010	0.950
2020/01/31 13:18:00.7	1.460	0.360	0.010	0.980
2020/01/31 13:18:00.8	1.450	0.340	0.010	1.000
2020/01/31 13:18:00.9	1.430	0.320	0.000	1.020
2020/01/31 13:18:01.0	1.420	0.300	0.000	1.030
2020/01/31 13:18:01.1	1.410	0.270	-0.000	1.040
2020/01/31 13:18:01.2	1.400	0.240	-0.010	1.040
2020/01/31 13:18:01.3	1.380	0.210	-0.020	1.030
2020/01/31 13:18:01.4	1.370	0.180	-0.030	1.020
2020/01/31 13:18:01.5	1.370	0.150	-0.040	0.990
2020/01/31 13:18:01.6	1.360	0.120	-0.060	0.970
2020/01/31 13:18:01.7	1.360	0.090	-0.080	0.930
2020/01/31 13:18:01.8	1.360	0.050	-0.100	0.890
2020/01/31 13:18:01.9	1.360	0.020	-0.130	0.840
2020/01/31 13:18:02.0	1.360	-0.010	-0.160	0.780
2020/01/31 13:18:02.1	1.360	-0.040	-0.190	0.720
2020/01/31 13:18:02.2	1.370	-0.080	-0.230	0.650
2020/01/31 13:18:02.3	1.370	-0.110	-0.270	0.580
2020/01/31 13:18:02.4	1.380	-0.140	-0.310	0.500
2020/01/31 13:18:02.5	1.390	-0.170	-0.350	0.420
2020/01/31 13:18:02.6	1.400	-0.200	-0.380	0.330
2020/01/31 13:18:02.7	1.410	-0.220	-0.430	0.250
2020/01/31 13:18:02.8	1.420	-0.250	-0.470	0.160
2020/01/31 13:18:02.9	1.430	-0.280	-0.510	0.070
2020/01/31 13:18:03.0	1.440	-0.300	-0.540	-0.030
2020/01/31 13:18:03.1	1.450	-0.320	-0.580	-0.120
2020/01/31 13:18:03.2	1.460	-0.340	-0.610	-0.210
2020/01/31 13:18:03.3	1.470	-0.360	-0.640	-0.300
2020/01/31 13:18:03.4	1.470	-0.380	-0.660	-0.390
2020/01/31 13:18:03.5	1.480	-0.390	-0.690	-0.490
2020/01/31 13:18:03.6	1.490	-0.410	-0.710	-0.580
2020/01/31 13:18:03.7	1.490	-0.420	-0.720	-0.670
2020/01/31 13:18:03.8	1.490	-0.430	-0.730	-0.760
2020/01/31 13:18:03.9	1.490	-0.440	-0.730	-0.840
2020/01/31 13:18:04.0	1.490	-0.450	-0.720	-0.920
2020/01/31 13:18:04.1	1.490	-0.450	-0.720	-1.000
2020/01/31 13:18:04.2	1.490	-0.450	-0.700	-1.070
2020/01/31 13:18:04.3	1.490	-0.460	-0.680	-1.140
2020/01/31 13:18:04.4	1.490	-0.450	-0.660	-1.210
2020/01/31 13:18:04.5	1.480	-0.450	-0.630	-1.270
2020/01/31 13:18:04.6	1.480	-0.440	-0.600	-1.320
2020/01/31 13:18:04.7	1.480	-0.440	-0.560	-1.360
2020/01/31 13:18:04.8	1.470	-0.430	-0.520	-1.400
2020/01/31 13:18:04.9	1.460	-0.420	-0.470	-1.440
2020/01/31 13:18:05.0	1.450	-0.400	-0.430	-1.460
2020/01/31 13:18:05.1	1.440	-0.390	-0.380	-1.480
2020/01/31 13:18:05.2	1.430	-0.370	-0.330	-1.490
2020/01/31 13:18:05.3	1.410	-0.350	-0.290	-1.500
2020/01/31 13:18:05.4	1.400	-0.330	-0.240	-1.490
2020/01/31 13:18:05.5	1.390	-0.300	-0.190	-1.490
2020/01/31 13:18:05.6	1.390	-0.280	-0.150	-1.470
2020/01/31 13:18:05.7	1.380	-0.250	-0.100	-1.460
2020/01/31 13:18:05.8	1.370	-0.220	-0.060	-1.430
2020/01/31 13:18:05.9	1.360	-0.200	-0.020	-1.410
2020/01/31 13:18:06.0	1.350	-0.170	0.010	-1.380
2020/01/31 13:18:06.1	1.340	-0.140	0.040	-1.340
2020/01/31 13:18:06.2	1.340	-0.100	0.070	-1.310
2020/01/31 13:18:06.3	1.330	-0.070	0.090	-1.270
2020/01/31 13:18:06.4	1.330	-0.040	0.110	-1.230
2020/01/31 13:18:06.5	1.330	-0.010	0.120	-1.190
2020/01/31 13:18:06.6	1.340	0.020	0.130	-1.150
2020/01/31 13:18:06.7	1.350	0.050	0.130	-1.110
2020/01/31 13:18:06.8	1.350	0.080	0.130	-1.060
2020/01/31 13:18:06.9	1.360	0.110	0.130	-1.020
2020/01/31 13:18:07.0	1.360	0.140	0.120	-0.980
2020/01/31 13:18:07.1	1.370	0.160	0.100	-0.940
2020/01/31 13:18:07.2	1.380	0.190	0.090	-0.900
2020/01/31 13:18:07.3	1.390	0.210	0.070	-0.850
2020/01/31 13:18:07.4	1.400	0.230	0.050	-0.810
2020/01/31 13:18:07.5	1.420	0.250	0.020	-0.770
2020/01/31 13:18:07.6	1.430	0.270	-0.010	-0.720
2020/01/31 13:18:07.7	1.440	0.280	-0.030	-0.670
2020/01/31 13:18:07.8	1.450	0.290	-0.060	-0.620
2020/01/31 13:18:07.9	1.460	0.300	-0.090	-0.570
2020/01/31 13:18:08.0	1.470	0.310	-0.120	-0.520
2020/01/31 13:18:08.1	1.480	0.310	-0.150	-0.470
2020/01/31 13:18:08.2	1.490	0.310	-0.170	-0.420
2020/01/31 13:18:08.3	1.500	0.300	-0.200	-0.360
2020/01/31 13:18:08.4	1.500	0.290	-0.220	-0.310
2020/01/31 13:18:08.5	1.510	0.280	-0.250	-0.250
2020/01/31 13:18:08.6	1.500	0.270	-0.270	-0.190
2020/01/31 13:18:08.7	1.510	0.250	-0.290	-0.140
2020/01/31 13:18:08.8	1.510	0.230	-0.300	-0.080
2020/01/31 13:18:08.9	1.510	0.210	-0.320	-0.030
2020/01/31 13:18:09.0	1.500	0.190	-0.330	0.030
2020/01/31 13:18:09.1	1.500	0.160	-0.340	0.080
2020/01/31 13:18:09.2	1.490	0.140	-0.340	0.130
2020/01/31 13:18:09.3	1.490	0.110	-0.350	0.180
2020/01/31 13:18:09.4	1.480	0.080	-0.350	0.220
2020/01/31 13:18:09.5	1.470	0.050	-0.350	0.270
2020/01/31 13:18:09.6	1.460	0.020	-0.350	0.300
2020/01/31 13:18:09.7	1.450	-0.010	-0.350	0.340
2020/01/31 13:18:09.8	1.440	-0.030	-0.350	0.380
2020/01/31 13:18:09.9	1.430	-0.060	-0.350	0.410
2020/01/31 13:18:10.0	1.420	-0.090	-0.340	0.440
2020/01/31 13:18:10.1	1.410	-0.110	-0.340	0.470
2020/01/31 13:18:10.2	1.400	-0.130	-0.340	0.490
2020/01/31 13:18:10.3	1.390	-0.150	-0.330	0.510
2020/01/31 13:18:10.4	1.380	-0.170	-0.330	0.520
2020/01/31 13:18:10.5	1.370	-0.180	-0.330	0.540
2020/01/31 13:18:10.6	1.370	-0.200	-0.330	0.550
2020/01/31 13:18:10.7	1.360	-0.210	-0.330	0.560
2020/01/31 13:18:10.8	1.360	-0.210	-0.330	0.560
2020/01/31 13:18:10.9	1.360	-0.220	-0.330	0.560
2020/01/31 13:18:11.0	1.350	-0.220	-0.340	0.550
2020/01/31 13:18:11.1	1.350	-0.220	-0.340	0.550
2020/01/31 13:18:11.2	1.350	-0.210	-0.340	0.540
2020/01/31 13:18:11.3	1.350	-0.210	-0.350	0.530
2020/01/31 13:18:11.4	1.350	-0.200	-0.360	0.520
2020/01/31 13:18:11.5	1.360	-0.190	-0.360	0.500
2020/01/31 13:18:11.6	1.360	-0.180	-0.370	0.490
2020/01/31 13:18:11.7	1.370	-0.160	-0.380	0.470
2020/01/31 13:18:11.8	1.370	-0.150	-0.380	0.460
2020/01/31 13:18:11.9	1.370	-0.130	-0.390	0.440
2020/01/31 13:18:12.0	1.380	-0.120	-0.390	0.420
2020/01/31 13:18:12.1	1.380	-0.100	-0.400	0.400
2020/01/31 13:18:12.2	1.390	-0.080	-0.400	0.380
2020/01/31 13:18:12.3	1.400	-0.060	-0.410	0.360
2020/01/31 13:18:12.4	1.410	-0.050	-0.410	0.330
2020/01/31 13:18:12.5	1.410	-0.030	-0.410	0.310
2020/01/31 13:18:12.6	1.430	-0.010	-0.420	0.290
2020/01/31 13:18:12.7	1.440	0.000	-0.420	0.260
2020/01/31 13:18:12.8	1.450	0.020	-0.410	0.240
2020/01/31 13:18:12.9	1.460	0.040	-0.410	0.220
2020/01/31 13:18:13.0	1.480	0.050	-0.410	0.190
2020/01/31 13:18:13.1	1.490	0.060	-0.400	0.170
2020/01/31 13:18:13.2	1.500	0.080	-0.400	0.140
2020/01/31 13:18:13.3	1.510	0.090	-0.390	0.120
2020/01/31 13:18:13.4	1.530	0.100	-0.380	0.100
2020/01/31 13:18:13.5	1.540	0.110	-0.370	0.070
2020/01/31 13:18:13.6	1.550	0.120	-0.350	0.050
2020/01/31 13:18:13.7	1.570	0.130	-0.340	0.030
2020/01/31 13:18:13.8	1.580	0.140	-0.320	0.010
2020/01/31 13:18:13.9	1.600	0.140	-0.300	-0.010
2020/01/31 13:18:14.0	1.610	0.150	-0.280	-0.020
2020/01/31 13:18:14.1	1.630	0.160	-0.260	-0.040
2020/01/31 13:18:14.2	1.640	0.160	-0.240	-0.050
2020/01/31 13:18:14.3	1.650	0.160	-0.220	-0.070
2020/01/31 13:18:14.4	1.660	0.170	-0.200	-0.080
2020/01/31 13:18:14.5	1.670	0.170	-0.170	-0.090
2020/01/31 13:18:14.6	1.670	0.170	-0.150	-0.100
2020/01/31 13:18:14.7	1.680	0.170	-0.120	-0.100
2020/01/31 13:18:14.8	1.690	0.180	-0.100	-0.110
2020/01/31 13:18:14.9	1.690	0.180	-0.070	-0.110
2020/01/31 13:18:15.0	1.690	0.180	-0.050	-0.120
2020/01/31 13:18:15.1	1.690	0.180	-0.030	-0.120
2020/01/31 13:18:15.2	1.680	0.180	-0.000	-0.110
2020/01/31 13:18:15.3	1.670	0.170	0.020	-0.110
2020/01/31 13:18:15.4	1.660	0.170	0.040	-0.100
2020/01/31 13:18:15.5	1.640	0.170	0.060	-0.100
2020/01/31 13:18:15.6	1.620	0.170	0.090	-0.090
2020/01/31 13:18:15.7	1.590	0.170	0.100	-0.080
2020/01/31 13:18:15.8	1.570	0.160	0.120	-0.070
2020/01/31 13:18:15.9	1.540	0.160	0.130	-0.070
2020/01/31 13:18:16.0	1.510	0.160	0.140	-0.060
2020/01/31 13:18:16.1	1.480	0.160	0.150	-0.050
2020/01/31 13:18:16.2	1.450	0.160	0.160	-0.040
2020/01/31 13:18:16.3	1.420	0.150	0.170	-0.030
2020/01/31 13:18:16.4	1.380	0.150	0.170	-0.030
2020/01/31 13:18:16.5	1.350	0.150	0.170	-0.020
2020/01/31 13:18:16.6	1.320	0.150	0.170	-0.020
2020/01/31 13:18:16.7	1.280	0.150	0.170	-0.010
2020/01/31 13:18:16.8	1.240	0.150	0.160	-0.000
2020/01/31 13:18:16.9	1.210	0.140	0.150	0.010
2020/01/31 13:18:17.0	1.170	0.140	0.140	0.010
2020/01/31 13:18:17.1	1.140	0.140	0.130	0.020
2020/01/31 13:18:17.2	1.110	0.140	0.110	0.020
2020/01/31 13:18:17.3	1.080	0.140	0.090	0.030
2020/01/31 13:18:17.4	1.050	0.140	0.070	0.030
2020/01/31 13:18:17.5	1.020	0.130	0.050	0.030
2020/01/31 13:18:17.6	1.010	0.130	0.020	0.040
2020/01/31 13:18:17.7	0.990	0.130	-0.000	0.040
2020/01/31 13:18:17.8	0.970	0.120	-0.040	0.040
2020/01/31 13:18:17.9	0.960	0.120	-0.070	0.030
2020/01/31 13:18:18.0	0.950	0.110	-0.100	0.020
2020/01/31 13:18:18.1	0.940	0.100	-0.140	0.010
2020/01/31 13:18:18.2	0.940	0.100	-0.180	-0.000
2020/01/31 13:18:18.3	0.940	0.090	-0.220	-0.020
2020/01/31 13:18:18.4	0.940	0.080	-0.260	-0.040
2020/01/31 13:18:18.5	0.940	0.060	-0.290	-0.060
2020/01/31 13:18:18.6	0.960	0.050	-0.340	-0.090
2020/01/31 13:18:18.7	0.970	0.040	-0.380	-0.120
2020/01/31 13:18:18.8	0.980	0.020	-0.410	-0.150
2020/01/31 13:18:18.9	0.990	0.000	-0.450	-0.190
2020/01/31 13:18:19.0	1.010	-0.020	-0.490	-0.230
2020/01/31 13:18:19.1	1.030	-0.040	-0.520	-0.280
2020/01/31 13:18:19.2	1.050	-0.060	-0.560	-0.320
2020/01/31 13:18:19.3	1.070	-0.080	-0.590	-0.380
2020/01/31 13:18:19.4	1.100	-0.100	-0.610	-0.430
2020/01/31 13:18:19.5	1.120	-0.120	-0.640	-0.480
2020/01/31 13:18:19.6	1.170	-0.150	-0.660	-0.540
2020/01/31 13:18:19.7	1.200	-0.170	-0.670	-0.600
2020/01/31 13:18:19.8	1.230	-0.190	-0.680	-0.660
2020/01/31 13:18:19.9	1.260	-0.210	-0.690	-0.720
2020/01/31 13:18:20.0	1.290	-0.240	-0.690	-0.780
2020/01/31 13:18:20.1	1.330	-0.260	-0.680	-0.830
2020/01/31 13:18:20.2	1.360	-0.280	-0.670	-0.890
2020/01/31 13:18:20.3	1.400	-0.300	-0.660	-0.950
2020/01/31 13:18:20.4	1.430	-0.320	-0.640	-1.000
2020/01/31 13:18:20.5	1.470	-0.330	-0.610	-1.050
2020/01/31 13:18:20.6	1.510	-0.350	-0.590	-1.100
2020/01/31 13:18:20.7	1.550	-0.360	-0.550	-1.150
2020/01/31 13:18:20.8	1.580	-0.370	-0.520	-1.190
2020/01/31 13:18:20.9	1.620	-0.390	-0.480	-1.220
2020/01/31 13:18:21.0	1.650	-0.390	-0.440	-1.260
2020/01/31 13:18:21.1	1.670	-0.400	-0.400	-1.280
2020/01/31 13:18:21.2	1.700	-0.410	-0.350	-1.300
2020/01/31 13:18:21.3	1.720	-0.410	-0.300	-1.320
2020/01/31 13:18:21.4	1.750	-0.420	-0.260	-1.330
2020/01/31 13:18:21.5	1.770	-0.420	-0.210	-1.330
2020/01/31 13:18:21.6	1.790	-0.420	-0.170	-1.320
2020/01/31 13:18:21.7	1.800	-0.410	-0.130	-1.320
2020/01/31 13:18:21.8	1.810	-0.410	-0.080	-1.300
2020/01/31 13:18:21.9	1.820	-0.410	-0.040	-1.280
2020/01/31 13:18:22.0	1.830	-0.400	-0.010	-1.260
2020/01/31 13:18:22.1	1.830	-0.390	0.030	-1.230
2020/01/31 13:18:22.2	1.840	-0.380	0.050	-1.190
2020/01/31 13:18:22.3	1.840	-0.370	0.080	-1.150
2020/01/31 13:18:22.4	1.840	-0.360	0.100	-1.110
2020/01/31 13:18:22.5	1.840	-0.340	0.110	-1.070
2020/01/31 13:18:22.6	1.820	-0.330	0.120	-1.020
2020/01/31 13:18:22.7	1.820	-0.310	0.130	-0.970
2020/01/31 13:18:22.8	1.820	-0.300	0.120	-0.910
2020/01/31 13:18:22.9	1.810	-0.280	0.120	-0.860
2020/01/31 13:18:23.0	1.810	-0.260	0.110	-0.810
2020/01/31 13:18:23.1	1.810	-0.240	0.090	-0.750
2020/01/31 13:18:23.2	1.800	-0.220	0.070	-0.690
2020/01/31 13:18:23.3	1.800	-0.200	0.040	-0.640
2020/01/31 13:18:23.4	1.790	-0.170	0.000	-0.580
2020/01/31 13:18:23.5	1.790	-0.150	-0.030	-0.520
2020/01/31 13:18:23.6	1.790	-0.120	-0.080	-0.460
2020/01/31 13:18:23.7	1.780	-0.100	-0.120	-0.410
2020/01/31 13:18:23.8	1.780	-0.070	-0.170	-0.350
2020/01/31 13:18:23.9	1.780	-0.050	-0.220	-0.300
2020/01/31 13:18:24.0	1.780	-0.020	-0.270	-0.250
2020/01/31 13:18:24.1	1.770	0.000	-0.330	-0.200
2020/01/31 13:18:24.2	1.770	0.030	-0.380	-0.160
2020/01/31 13:18:24.3	1.780	0.060	-0.440	-0.120
2020/01/31 13:18:24.4	1.780	0.080	-0.500	-0.080
2020/01/31 13:18:24.5	1.780	0.110	-0.550	-0.040
2020/01/31 13:18:24.6	1.780	0.140	-0.610	-0.010
2020/01/31 13:18:24.7	1.790	0.170	-0.660	0.020
2020/01/31 13:18:24.8	1.790	0.190	-0.720	0.040
2020/01/31 13:18:24.9	1.800	0.220	-0.770	0.060
2020/01/31 13:18:25.0	1.820	0.250	-0.810	0.080
2020/01/31 13:18:25.1	1.830	0.270	-0.860	0.090
2020/01/31 13:18:25.2	1.850	0.300	-0.890	0.100
2020/01/31 13:18:25.3	1.860	0.320	-0.930	0.110
2020/01/31 13:18:25.4	1.880	0.350	-0.960	0.110
2020/01/31 13:18:25.5	1.900	0.370	-0.980	0.110
2020/01/31 13:18:25.6	1.930	0.400	-0.990	0.110
2020/01/31 13:18:25.7	1.950	0.420	-1.000	0.120
2020/01/31 13:18:25.8	1.970	0.450	-1.000	0.120
2020/01/31 13:18:25.9	1.990	0.470	-0.990	0.120
2020/01/31 13:18:26.0	2.010	0.490	-0.970	0.130
2020/01/31 13:18:26.1	2.030	0.510	-0.940	0.140
2020/01/31 13:18:26.2	2.050	0.530	-0.900	0.150
2020/01/31 13:18:26.3	2.060	0.540	-0.860	0.170
2020/01/31 13:18:26.4	2.070	0.560	-0.800	0.190
2020/01/31 13:18:26.5	2.080	0.570	-0.740	0.210
2020/01/31 13:18:26.6	2.090	0.580	-0.670	0.240
2020/01/31 13:18:26.7	2.090	0.590	-0.590	0.280
2020/01/31 13:18:26.8	2.100	0.600	-0.510	0.310
2020/01/31 13:18:26.9	2.090	0.600	-0.420	0.350
2020/01/31 13:18:27.0	2.090	0.610	-0.320	0.400
2020/01/31 13:18:27.1	2.080	0.610	-0.220	0.440
2020/01/31 13:18:27.2	2.070	0.600	-0.120	0.490
2020/01/31 13:18:27.3	2.060	0.590	-0.020	0.540
2020/01/31 13:18:27.4	2.040	0.580	0.090	0.600
2020/01/31 13:18:27.5	2.020	0.570	0.190	0.650
2020/01/31 13:18:27.6	2.000	0.550	0.290	0.710
2020/01/31 13:18:27.7	1.980	0.530	0.390	0.760
2020/01/31 13:18:27.8	1.960	0.510	0.480	0.810
2020/01/31 13:18:27.9	1.930	0.490	0.570	0.860
2020/01/31 13:18:28.0	1.900	0.460	0.660	0.900
2020/01/31 13:18:28.1	1.870	0.430	0.740	0.950
2020/01/31 13:18:28.2	1.850	0.390	0.810	0.990
2020/01/31 13:18:28.3	1.820	0.360	0.870	1.020
2020/01/31 13:18:28.4	1.790	0.320	0.920	1.050
2020/01/31 13:18:28.5	1.760	0.280	0.970	1.080
2020/01/31 13:18:28.6	1.740	0.230	1.000	1.100
2020/01/31 13:18:28.7	1.710	0.190	1.020	1.110
2020/01/31 13:18:28.8	1.690	0.150	1.030	1.120
2020/01/31 13:18:28.9	1.670	0.100	1.040	1.120
2020/01/31 13:18:29.0	1.650	0.060	1.030	1.110
2020/01/31 13:18:29.1	1.630	0.010	1.010	1.100
2020/01/31 13:18:29.2	1.610	-0.030	0.980	1.080
2020/01/31 13:18:29.3	1.600	-0.070	0.940	1.050
2020/01/31 13:18:29.4	1.600	-0.110	0.890	1.020
2020/01/31 13:18:29.5	1.600	-0.160	0.830	0.970
2020/01/31 13:18:29.6	1.600	-0.190	0.760	0.920
2020/01/31 13:18:29.7	1.600	-0.230	0.680	0.860
2020/01/31 13:18:29.8	1.610	-0.260	0.600	0.790
2020/01/31 13:18:29.9	1.620	-0.300	0.500	0.710
2020/01/31 13:18:30.0	1.640	-0.320	0.400	0.630
2020/01/31 13:18:30.1	1.660	-0.350	0.300	0.540
2020/01/31 13:18:30.2	1.690	-0.370	0.190	0.450
2020/01/31 13:18:30.3	1.710	-0.390	0.080	0.340
2020/01/31 13:18:30.4	1.740	-0.410	-0.030	0.240
2020/01/31 13:18:30.5	1.770	-0.420	-0.150	0.130
2020/01/31 13:18:30.6	1.790	-0.430	-0.260	0.020
2020/01/31 13:18:30.7	1.820	-0.430	-0.370	-0.100
2020/01/31 13:18:30.8	1.850	-0.440	-0.480	-0.210
2020/01/31 13:18:30.9	1.880	-0.440	-0.580	-0.320
2020/01/31 13:18:31.0	1.910	-0.430	-0.680	-0.440
2020/01/31 13:18:31.1	1.940	-0.430	-0.770	-0.550
2020/01/31 13:18:31.2	1.970	-0.420	-0.850	-0.650
2020/01/31 13:18:31.3	1.990	-0.410	-0.930	-0.760
2020/01/31 13:18:31.4	2.020	-0.400	-1.000	-0.860
2020/01/31 13:18:31.5	2.040	-0.390	-1.060	-0.960
2020/01/31 13:18:31.6	2.050	-0.380	-1.110	-1.050
2020/01/31 13:18:31.7	2.070	-0.360	-1.150	-1.140
2020/01/31 13:18:31.8	2.090	-0.350	-1.190	-1.220
2020/01/31 13:18:31.9	2.100	-0.330	-1.210	-1.300
2020/01/31 13:18:32.0	2.110	-0.320	-1.230	-1.360
2020/01/31 13:18:32.1	2.120	-0.300	-1.240	-1.430
2020/01/31 13:18:32.2	2.130	-0.290	-1.240	-1.490
2020/01/31 13:18:32.3	2.140	-0.280	-1.230	-1.540
2020/01/31 13:18:32.4	2.140	-0.270	-1.220	-1.590
2020/01/31 13:18:32.5	2.150	-0.250	-1.200	-1.630
2020/01/31 13:18:32.6	2.150	-0.240	-1.180	-1.670
2020/01/31 13:18:32.7	2.160	-0.230	-1.150	-1.700
2020/01/31 13:18:32.8	2.170	-0.230	-1.110	-1.730
2020/01/31 13:18:32.9	2.170	-0.220	-1.080	-1.750
2020/01/31 13:18:33.0	2.180	-0.210	-1.040	-1.770
2020/01/31 13:18:33.1	2.190	-0.210	-0.990	-1.790
2020/01/31 13:18:33.2	2.200	-0.200	-0.950	-1.800
2020/01/31 13:18:33.3	2.210	-0.200	-0.910	-1.810
2020/01/31 13:18:33.4	2.230	-0.190	-0.860	-1.820
2020/01/31 13:18:33.5	2.240	-0.190	-0.820	-1.830
2020/01/31 13:18:33.6	2.260	-0.190	-0.780	-1.830
2020/01/31 13:18:33.7	2.280	-0.180	-0.740	-1.830
2020/01/31 13:18:33.8	2.300	-0.180	-0.700	-1.830
2020/01/31 13:18:33.9	2.320	-0.180	-0.660	-1.830
2020/01/31 13:18:34.0	2.350	-0.170	-0.620	-1.820
2020/01/31 13:18:34.1	2.370	-0.170	-0.580	-1.820
2020/01/31 13:18:34.2	2.390	-0.170	-0.550	-1.810
2020/01/31 13:18:34.3	2.420	-0.160	-0.520	-1.800
2020/01/31 13:18:34.4	2.450	-0.160	-0.490	-1.780
2020/01/31 13:18:34.5	2.470	-0.150	-0.460	-1.760
2020/01/31 13:18:34.6	2.510	-0.150	-0.430	-1.740
2020/01/31 13:18:34.7	2.540	-0.140	-0.400	-1.720
2020/01/31 13:18:34.8	2.560	-0.130	-0.370	-1.700
2020/01/31 13:18:34.9	2.580	-0.130	-0.340	-1.670
2020/01/31 13:18:35.0	2.610	-0.120	-0.310	-1.640
2020/01/31 13:18:35.1	2.630	-0.110	-0.290	-1.610
2020/01/31 13:18:35.2	2.650	-0.100	-0.260	-1.580
2020/01/31 13:18:35.3	2.670	-0.100	-0.230	-1.540
2020/01/31 13:18:35.4	2.700	-0.090	-0.210	-1.510
2020/01/31 13:18:35.5	2.720	-0.080	-0.180	-1.470
2020/01/31 13:18:35.6	2.730	-0.070	-0.160	-1.420
2020/01/31 13:18:35.7	2.750	-0.070	-0.130	-1.380
2020/01/31 13:18:35.8	2.770	-0.060	-0.110	-1.340
2020/01/31 13:18:35.9	2.790	-0.050	-0.080	-1.290
2020/01/31 13:18:36.0	2.810	-0.050	-0.060	-1.250
2020/01/31 13:18:36.1	2.820	-0.040	-0.040	-1.200
2020/01/31 13:18:36.2	2.840	-0.040	-0.020	-1.150
2020/01/31 13:18:36.3	2.850	-0.030	0.000	-1.090
2020/01/31 13:18:36.4	2.870	-0.030	0.020	-1.040
2020/01/31 13:18:36.5	2.880	-0.020	0.040	-0.980
2020/01/31 13:18:36.6	2.890	-0.020	0.050	-0.920
2020/01/31 13:18:36.7	2.910	-0.020	0.070	-0.860
2020/01/31 13:18:36.8	2.920	-0.020	0.080	-0.800
2020/01/31 13:18:36.9	2.940	-0.010	0.090	-0.740
2020/01/31 13:18:37.0	2.950	-0.010	0.100	-0.670
2020/01/31 13:18:37.1	2.960	-0.010	0.110	-0.610
2020/01/31 13:18:37.2	2.970	-0.000	0.120	-0.540
2020/01/31 13:18:37.3	2.980	-0.000	0.130	-0.480
2020/01/31 13:18:37.4	2.990	0.000	0.130	-0.410
2020/01/31 13:18:37.5	3.000	0.000	0.140	-0.340
2020/01/31 13:18:37.6	3.010	0.010	0.140	-0.270
2020/01/31 13:18:37.7	3.010	0.010	0.150	-0.200
2020/01/31 13:18:37.8	3.010	0.010	0.160	-0.130
2020/01/31 13:18:37.9	3.010	0.020	0.160	-0.060
2020/01/31 13:18:38.0	3.000	0.030	0.170	0.010
2020/01/31 13:18:38.1	2.990	0.030	0.180	0.090
2020/01/31 13:18:38.2	2.980	0.040	0.190	0.170
2020/01/31 13:18:38.3	2.960	0.050	0.200	0.250
2020/01/31 13:18:38.4	2.930	0.070	0.220	0.340
2020/01/31 13:18:38.5	2.900	0.080	0.240	0.420
2020/01/31 13:18:38.6	2.870	0.100	0.250	0.510
2020/01/31 13:18:38.7	2.830	0.110	0.270	0.610
2020/01/31 13:18:38.8	2.790	0.130	0.290	0.700
2020/01/31 13:18:38.9	2.750	0.150	0.310	0.800
2020/01/31 13:18:39.0	2.700	0.170	0.330	0.900
2020/01/31 13:18:39.1	2.650	0.200	0.350	1.000
2020/01/31 13:18:39.2	2.600	0.220	0.370	1.090
2020/01/31 13:18:39.3	2.540	0.250	0.380	1.190
2020/01/31 13:18:39.4	2.490	0.270	0.390	1.280
2020/01/31 13:18:39.5	2.430	0.300	0.400	1.370
2020/01/31 13:18:39.6	2.370	0.320	0.400	1.460
2020/01/31 13:18:39.7	2.320	0.350	0.400	1.550
2020/01/31 13:18:39.8	2.260	0.380	0.400	1.620
2020/01/31 13:18:39.9	2.210	0.400	0.390	1.700
2020/01/31 13:18:40.0	2.160	0.430	0.370	1.760
2020/01/31 13:18:40.1	2.110	0.450	0.340	1.820
2020/01/31 13:18:40.2	2.070	0.480	0.310	1.870
2020/01/31 13:18:40.3	2.030	0.500	0.280	1.910
2020/01/31 13:18:40.4	1.990	0.520	0.230	1.950
2020/01/31 13:18:40.5	1.950	0.540	0.180	1.970
2020/01/31 13:18:40.6	1.920	0.550	0.130	1.990
2020/01/31 13:18:40.7	1.890	0.570	0.070	2.000
2020/01/31 13:18:40.8	1.870	0.580	0.000	2.000
2020/01/31 13:18:40.9	1.850	0.590	-0.070	1.990
2020/01/31 13:18:41.0	1.830	0.590	-0.140	1.970
2020/01/31 13:18:41.1	1.810	0.600	-0.220	1.940
2020/01/31 13:18:41.2	1.800	0.600	-0.290	1.900
2020/01/31 13:18:41.3	1.790	0.590	-0.370	1.860
2020/01/31 13:18:41.4	1.790	0.580	-0.450	1.800
2020/01/31 13:18:41.5	1.780	0.570	-0.530	1.740
2020/01/31 13:18:41.6	1.780	0.560	-0.610	1.670
2020/01/31 13:18:41.7	1.780	0.540	-0.680	1.600
2020/01/31 13:18:41.8	1.790	0.520	-0.750	1.520
2020/01/31 13:18:41.9	1.790	0.500	-0.820	1.430
2020/01/31 13:18:42.0	1.800	0.470	-0.880	1.330
2020/01/31 13:18:42.1	1.810	0.440	-0.930	1.230
2020/01/31 13:18:42.2	1.830	0.400	-0.980	1.130
2020/01/31 13:18:42.3	1.840	0.370	-1.030	1.020
2020/01/31 13:18:42.4	1.860	0.330	-1.070	0.900
2020/01/31 13:18:42.5	1.880	0.290	-1.100	0.780
2020/01/31 13:18:42.6	1.910	0.240	-1.120	0.650
2020/01/31 13:18:42.7	1.940	0.200	-1.140	0.520
2020/01/31 13:18:42.8	1.970	0.150	-1.150	0.390
2020/01/31 13:18:42.9	2.000	0.100	-1.150	0.260
2020/01/31 13:18:43.0	2.030	0.050	-1.150	0.120
2020/01/31 13:18:43.1	2.070	0.010	-1.140	-0.010
2020/01/31 13:18:43.2	2.110	-0.040	-1.120	-0.150
2020/01/31 13:18:43.3	2.150	-0.090	-1.100	-0.290
2020/01/31 13:18:43.4	2.190	-0.140	-1.070	-0.430
2020/01/31 13:18:43.5	2.230	-0.180	-1.040	-0.570
2020/01/31 13:18:43.6	2.270	-0.230	-1.010	-0.710
2020/01/31 13:18:43.7	2.320	-0.270	-0.970	-0.840
2020/01/31 13:18:43.8	2.370	-0.310	-0.920	-0.980
2020/01/31 13:18:43.9	2.420	-0.340	-0.880	-1.110
2020/01/31 13:18:44.0	2.460	-0.380	-0.820	-1.230
2020/01/31 13:18:44.1	2.510	-0.410	-0.770	-1.360
2020/01/31 13:18:44.2	2.560	-0.440	-0.720	-1.470
2020/01/31 13:18:44.3	2.610	-0.460	-0.660	-1.590
2020/01/31 13:18:44.4	2.660	-0.480	-0.600	-1.690
2020/01/31 13:18:44.5	2.700	-0.500	-0.540	-1.800
2020/01/31 13:18:44.6	2.760	-0.510	-0.490	-1.890
2020/01/31 13:18:44.7	2.810	-0.530	-0.430	-1.980
2020/01/31 13:18:44.8	2.840	-0.530	-0.370	-2.060
2020/01/31 13:18:44.9	2.880	-0.540	-0.310	-2.130
2020/01/31 13:18:45.0	2.920	-0.540	-0.260	-2.200
2020/01/31 13:18:45.1	2.950	-0.540	-0.200	-2.260
2020/01/31 13:18:45.2	2.980	-0.540	-0.150	-2.320
2020/01/31 13:18:45.3	3.000	-0.530	-0.100	-2.370
2020/01/31 13:18:45.4	3.030	-0.520	-0.060	-2.410
2020/01/31 13:18:45.5	3.050	-0.510	-0.020	-2.440
2020/01/31 13:18:45.6	3.070	-0.500	0.020	-2.470
2020/01/31 13:18:45.7	3.090	-0.480	0.060	-2.490
2020/01/31 13:18:45.8	3.100	-0.470	0.090	-2.510
2020/01/31 13:18:45.9	3.110	-0.450	0.120	-2.520
2020/01/31 13:18:46.0	3.120	-0.440	0.140	-2.520
2020/01/31 13:18:46.1	3.130	-0.420	0.160	-2.520
2020/01/31 13:18:46.2	3.130	-0.410	0.170	-2.520
2020/01/31 13:18:46.3	3.130	-0.390	0.180	-2.510
2020/01/31 13:18:46.4	3.130	-0.370	0.190	-2.490
2020/01/31 13:18:46.5	3.130	-0.360	0.190	-2.470
2020/01/31 13:18:46.6	3.120	-0.340	0.190	-2.440
2020/01/31 13:18:46.7	3.110	-0.330	0.180	-2.410
2020/01/31 13:18:46.8	3.110	-0.310	0.170	-2.370
2020/01/31 13:18:46.9	3.100	-0.300	0.160	-2.330
2020/01/31 13:18:47.0	3.090	-0.290	0.150	-2.290
2020/01/31 13:18:47.1	3.080	-0.280	0.140	-2.240
2020/01/31 13:18:47.2	3.060	-0.270	0.120	-2.190
2020/01/31 13:18:47.3	3.050	-0.260	0.100	-2.130
2020/01/31 13:18:47.4	3.040	-0.250	0.080	-2.070
2020/01/31 13:18:47.5	3.020	-0.240	0.060	-2.010
2020/01/31 13:18:47.6	3.010	-0.230	0.040	-1.940
2020/01/31 13:18:47.7	2.990	-0.230	0.020	-1.870
2020/01/31 13:18:47.8	2.980	-0.220	0.000	-1.790
2020/01/31 13:18:47.9	2.960	-0.210	-0.010	-1.710
2020/01/31 13:18:48.0	2.930	-0.210	-0.030	-1.630
2020/01/31 13:18:48.1	2.910	-0.200	-0.050	-1.550
2020/01/31 13:18:48.2	2.890	-0.190	-0.060	-1.460
2020/01/31 13:18:48.3	2.860	-0.190	-0.070	-1.380
2020/01/31 13:18:48.4	2.840	-0.180	-0.080	-1.280
2020/01/31 13:18:48.5	2.810	-0.170	-0.090	-1.190
2020/01/31 13:18:48.6	2.790	-0.170	-0.090	-1.080
2020/01/31 13:18:48.7	2.760	-0.160	-0.090	-0.980
2020/01/31 13:18:48.8	2.730	-0.150	-0.090	-0.880
2020/01/31 13:18:48.9	2.690	-0.140	-0.080	-0.770
2020/01/31 13:18:49.0	2.660	-0.130	-0.070	-0.670
2020/01/31 13:18:49.1	2.620	-0.120	-0.060	-0.560
2020/01/31 13:18:49.2	2.580	-0.100	-0.050	-0.440
2020/01/31 13:18:49.3	2.550	-0.090	-0.040	-0.330
2020/01/31 13:18:49.4	2.510	-0.070	-0.020	-0.210
2020/01/31 13:18:49.5	2.470	-0.060	-0.000	-0.100
2020/01/31 13:18:49.6	2.410	-0.040	0.020	0.020
2020/01/31 13:18:49.7	2.370	-0.030	0.040	0.140
2020/01/31 13:18:49.8	2.320	-0.010	0.050	0.250
2020/01/31 13:18:49.9	2.280	0.010	0.070	0.370
2020/01/31 13:18:50.0	2.230	0.030	0.090	0.480
2020/01/31 13:18:50.1	2.180	0.040	0.110	0.590
2020/01/31 13:18:50.2	2.140	0.060	0.130	0.700
2020/01/31 13:18:50.3	2.090	0.080	0.140	0.810
2020/01/31 13:18:50.4	2.040	0.100	0.150	0.920
2020/01/31 13:18:50.5	1.990	0.120	0.160	1.020
2020/01/31 13:18:50.6	1.940	0.140	0.160	1.120
2020/01/31 13:18:50.7	1.900	0.170	0.160	1.220
2020/01/31 13:18:50.8	1.850	0.190	0.160	1.310
2020/01/31 13:18:50.9	1.810	0.210	0.150	1.390
2020/01/31 13:18:51.0	1.770	0.230	0.140	1.480
2020/01/31 13:18:51.1	1.740	0.260	0.120	1.550
2020/01/31 13:18:51.2	1.710	0.280	0.100	1.620
2020/01/31 13:18:51.3	1.680	0.310	0.070	1.680
2020/01/31 13:18:51.4	1.650	0.330	0.040	1.740
2020/01/31 13:18:51.5	1.630	0.360	0.010	1.790
2020/01/31 13:18:51.6	1.620	0.390	-0.030	1.830
2020/01/31 13:18:51.7	1.610	0.410	-0.080	1.860
2020/01/31 13:18:51.8	1.610	0.440	-0.130	1.890
2020/01/31 13:18:51.9	1.610	0.470	-0.180	1.900
2020/01/31 13:18:52.0	1.610	0.500	-0.240	1.910
2020/01/31 13:18:52.1	1.620	0.530	-0.300	1.910
2020/01/31 13:18:52.2	1.640	0.560	-0.370	1.900
2020/01/31 13:18:52.3	1.660	0.590	-0.440	1.890
2020/01/31 13:18:52.4	1.690	0.610	-0.510	1.860
2020/01/31 13:18:52.5	1.720	0.640	-0.580	1.830
2020/01/31 13:18:52.6	1.750	0.660	-0.650	1.790
2020/01/31 13:18:52.7	1.790	0.690	-0.720	1.740
2020/01/31 13:18:52.8	1.830	0.710	-0.790	1.690
2020/01/31 13:18:52.9	1.870	0.720	-0.850	1.630
2020/01/31 13:18:53.0	1.910	0.740	-0.910	1.570
2020/01/31 13:18:53.1	1.950	0.750	-0.970	1.500
2020/01/31 13:18:53.2	2.000	0.750	-1.020	1.430
2020/01/31 13:18:53.3	2.040	0.750	-1.060	1.360
2020/01/31 13:18:53.4	2.080	0.750	-1.100	1.280
2020/01/31 13:18:53.5	2.120	0.740	-1.130	1.200
2020/01/31 13:18:53.6	2.150	0.720	-1.160	1.120
2020/01/31 13:18:53.7	2.190	0.700	-1.180	1.030
2020/01/31 13:18:53.8	2.220	0.670	-1.180	0.950
2020/01/31 13:18:53.9	2.250	0.640	-1.180	0.860
2020/01/31 13:18:54.0	2.280	0.600	-1.180	0.760
2020/01/31 13:18:54.1	2.300	0.560	-1.160	0.670
2020/01/31 13:18:54.2	2.330	0.510	-1.140	0.570
2020/01/31 13:18:54.3	2.350	0.460	-1.110	0.480
2020/01/31 13:18:54.4	2.360	0.400	-1.070	0.380
2020/01/31 13:18:54.5	2.380	0.330	-1.030	0.280
2020/01/31 13:18:54.6	2.400	0.260	-0.980	0.180
2020/01/31 13:18:54.7	2.400	0.190	-0.920	0.080
2020/01/31 13:18:54.8	2.410	0.120	-0.860	-0.020
2020/01/31 13:18:54.9	2.410	0.040	-0.800	-0.120
2020/01/31 13:18:55.0	2.410	-0.040	-0.730	-0.220
2020/01/31 13:18:55.1	2.410	-0.120	-0.660	-0.310
2020/01/31 13:18:55.2	2.400	-0.200	-0.590	-0.410
2020/01/31 13:18:55.3	2.400	-0.280	-0.520	-0.510
2020/01/31 13:18:55.4	2.390	-0.360	-0.440	-0.600
2020/01/31 13:18:55.5	2.380	-0.430	-0.370	-0.700
2020/01/31 13:18:55.6	2.380	-0.510	-0.290	-0.800
2020/01/31 13:18:55.7	2.370	-0.580	-0.220	-0.890
2020/01/31 13:18:55.8	2.360	-0.650	-0.150	-0.970
2020/01/31 13:18:55.9	2.350	-0.710	-0.080	-1.060
2020/01/31 13:18:56.0	2.340	-0.770	-0.010	-1.150
2020/01/31 13:18:56.1	2.330	-0.820	0.050	-1.230
2020/01/31 13:18:56.2	2.320	-0.870	0.110	-1.310
2020/01/31 13:18:56.3	2.310	-0.910	0.160	-1.380
2020/01/31 13:18:56.4	2.300	-0.940	0.210	-1.450
2020/01/31 13:18:56.5	2.290	-0.960	0.260	-1.520
2020/01/31 13:18:56.6	2.290	-0.980	0.300	-1.590
2020/01/31 13:18:56.7	2.280	-0.980	0.340	-1.650
2020/01/31 13:18:56.8	2.270	-0.980	0.370	-1.700
2020/01/31 13:18:56.9	2.260	-0.970	0.400	-1.750
2020/01/31 13:18:57.0	2.250	-0.960	0.420	-1.790
2020/01/31 13:18:57.1	2.240	-0.930	0.440	-1.830
2020/01/31 13:18:57.2	2.230	-0.900	0.450	-1.860
2020/01/31 13:18:57.3	2.220	-0.860	0.460	-1.880
2020/01/31 13:18:57.4	2.210	-0.820	0.470	-1.900
2020/01/31 13:18:57.5	2.200	-0.760	0.470	-1.910
2020/01/31 13:18:57.6	2.190	-0.710	0.470	-1.910
2020/01/31 13:18:57.7	2.180	-0.640	0.460	-1.910
2020/01/31 13:18:57.8	2.160	-0.580	0.450	-1.910
2020/01/31 13:18:57.9	2.150	-0.510	0.440	-1.900
2020/01/31 13:18:58.0	2.130	-0.430	0.420	-1.880
2020/01/31 13:18:58.1	2.120	-0.360	0.410	-1.860
2020/01/31 13:18:58.2	2.110	-0.280	0.390	-1.840
2020/01/31 13:18:58.3	2.090	-0.200	0.370	-1.800
2020/01/31 13:18:58.4	2.080	-0.120	0.340	-1.770
2020/01/31 13:18:58.5	2.060	-0.040	0.320	-1.720
2020/01/31 13:18:58.6	2.050	0.040	0.290	-1.670
2020/01/31 13:18:58.7	2.040	0.110	0.270	-1.620
2020/01/31 13:18:58.8	2.020	0.190	0.240	-1.560
2020/01/31 13:18:58.9	2.000	0.260	0.210	-1.490
2020/01/31 13:18:59.0	1.980	0.320	0.180	-1.420
2020/01/31 13:18:59.1	1.960	0.390	0.150	-1.350
2020/01/31 13:18:59.2	1.940	0.440	0.120	-1.280
2020/01/31 13:18:59.3	1.920	0.500	0.090	-1.200
2020/01/31 13:18:59.4	1.900	0.540	0.060	-1.120
2020/01/31 13:18:59.5	1.880	0.590	0.030	-1.040
2020/01/31 13:18:59.6	1.850	0.620	-0.010	-0.950
2020/01/31 13:18:59.7	1.830	0.650	-0.040	-0.870
2020/01/31 13:18:59.8	1.810	0.670	-0.070	-0.790
2020/01/31 13:18:59.9	1.800	0.690	-0.100	-0.710
2020/01/31 13:19:00.0	1.780	0.700	-0.130	-0.630
2020/01/31 13:19:00.1	1.760	0.700	-0.160	-0.560
2020/01/31 13:19:00.2	1.740	0.700	-0.190	-0.480
2020/01/31 13:19:00.3	1.720	0.690	-0.210	-0.410
2020/01/31 13:19:00.4	1.710	0.670	-0.240	-0.340
2020/01/31 13:19:00.5	1.690	0.650	-0.260	-0.270
2020/01/31 13:19:00.6	1.680	0.630	-0.280	-0.200
2020/01/31 13:19:00.7	1.670	0.600	-0.300	-0.140
2020/01/31 13:19:00.8	1.650	0.560	-0.320	-0.090
2020/01/31 13:19:00.9	1.640	0.520	-0.330	-0.030
2020/01/31 13:19:01.0	1.630	0.480	-0.350	0.020
2020/01/31 13:19:01.1	1.610	0.430	-0.360	0.060
2020/01/31 13:19:01.2	1.600	0.380	-0.360	0.100
2020/01/31 13:19:01.3	1.590	0.320	-0.370	0.140
2020/01/31 13:19:01.4	1.580	0.270	-0.370	0.170
2020/01/31 13:19:01.5	1.570	0.210	-0.370	0.200
2020/01/31 13:19:01.6	1.550	0.150	-0.380	0.220
2020/01/31 13:19:01.7	1.540	0.090	-0.370	0.240
2020/01/31 13:19:01.8	1.530	0.030	-0.370	0.260
2020/01/31 13:19:01.9	1.520	-0.030	-0.370	0.270
2020/01/31 13:19:02.0	1.520	-0.090	-0.360	0.280
2020/01/31 13:19:02.1	1.510	-0.150	-0.350	0.290
2020/01/31 13:19:02.2	1.500	-0.200	-0.350	0.290
2020/01/31 13:19:02.3	1.490	-0.250	-0.340	0.290
2020/01/31 13:19:02.4	1.480	-0.310	-0.340	0.290
2020/01/31 13:19:02.5	1.480	-0.350	-0.340	0.280
2020/01/31 13:19:02.6	1.460	-0.400	-0.340	0.280
2020/01/31 13:19:02.7	1.460	-0.440	-0.340	0.270
2020/01/31 13:19:02.8	1.450	-0.470	-0.340	0.250
2020/01/31 13:19:02.9	1.450	-0.510	-0.350	0.240
2020/01/31 13:19:03.0	1.450	-0.530	-0.360	0.220
2020/01/31 13:19:03.1	1.450	-0.560	-0.370	0.200
2020/01/31 13:19:03.2	1.450	-0.570	-0.390	0.180
2020/01/31 13:19:03.3	1.460	-0.580	-0.410	0.150
2020/01/31 13:19:03.4	1.460	-0.590	-0.430	0.130
2020/01/31 13:19:03.5	1.470	-0.590	-0.450	0.100
2020/01/31 13:19:03.6	1.480	-0.590	-0.480	0.070
2020/01/31 13:19:03.7	1.490	-0.570	-0.510	0.040
2020/01/31 13:19:03.8	1.510	-0.560	-0.540	0.010
2020/01/31 13:19:03.9	1.530	-0.540	-0.580	-0.030
2020/01/31 13:19:04.0	1.550	-0.510	-0.620	-0.060
2020/01/31 13:19:04.1	1.570	-0.480	-0.650	-0.090
2020/01/31 13:19:04.2	1.590	-0.450	-0.690	-0.120
2020/01/31 13:19:04.3	1.620	-0.410	-0.730	-0.150
2020/01/31 13:19:04.4	1.650	-0.360	-0.770	-0.180
2020/01/31 13:19:04.5	1.670	-0.320	-0.800	-0.200
2020/01/31 13:19:04.6	1.690	-0.270	-0.830	-0.230
2020/01/31 13:19:04.7	1.720	-0.210	-0.860	-0.250
2020/01/31 13:19:04.8	1.750	-0.160	-0.890	-0.260
2020/01/31 13:19:04.9	1.770	-0.110	-0.910	-0.280
2020/01/31 13:19:05.0	1.800	-0.050	-0.920	-0.290
2020/01/31 13:19:05.1	1.820	0.010	-0.930	-0.300
2020/01/31 13:19:05.2	1.840	0.060	-0.940	-0.300
2020/01/31 13:19:05.3	1.870	0.120	-0.940	-0.300
2020/01/31 13:19:05.4	1.890	0.170	-0.930	-0.300
2020/01/31 13:19:05.5	1.910	0.230	-0.920	-0.290
2020/01/31 13:19:05.6	1.920	0.280	-0.900	-0.280
2020/01/31 13:19:05.7	1.940	0.330	-0.880	-0.260
2020/01/31 13:19:05.8	1.950	0.370	-0.850	-0.240
2020/01/31 13:19:05.9	1.970	0.420	-0.810	-0.210
2020/01/31 13:19:06.0	1.980	0.460	-0.770	-0.190
2020/01/31 13:19:06.1	1.990	0.490	-0.720	-0.150
2020/01/31 13:19:06.2	2.010	0.520	-0.670	-0.120
2020/01/31 13:19:06.3	2.020	0.550	-0.610	-0.080
2020/01/31 13:19:06.4	2.030	0.570	-0.550	-0.030
2020/01/31 13:19:06.5	2.030	0.590	-0.490	0.010
2020/01/31 13:19:06.6	2.040	0.610	-0.420	0.070
2020/01/31 13:19:06.7	2.040	0.620	-0.360	0.120
2020/01/31 13:19:06.8	2.050	0.620	-0.290	0.170
2020/01/31 13:19:06.9	2.050	0.620	-0.220	0.220
2020/01/31 13:19:07.0	2.060	0.610	-0.140	0.280
2020/01/31 13:19:07.1	2.060	0.600	-0.070	0.340
2020/01/31 13:19:07.2	2.060	0.590	-0.000	0.390
2020/01/31 13:19:07.3	2.060	0.570	0.070	0.440
2020/01/31 13:19:07.4	2.060	0.540	0.130	0.500
2020/01/31 13:19:07.5	2.060	0.520	0.200	0.550
2020/01/31 13:19:07.6	2.060	0.490	0.260	0.600
2020/01/31 13:19:07.7	2.050	0.450	0.310	0.650
2020/01/31 13:19:07.8	2.050	0.410	0.370	0.690
2020/01/31 13:19:07.9	2.050	0.380	0.420	0.730
2020/01/31 13:19:08.0	2.040	0.330	0.470	0.770
2020/01/31 13:19:08.1	2.040	0.290	0.510	0.800
2020/01/31 13:19:08.2	2.030	0.250	0.540	0.830
2020/01/31 13:19:08.3	2.020	0.200	0.580	0.850
2020/01/31 13:19:08.4	2.020	0.150	0.600	0.870
2020/01/31 13:19:08.5	2.010	0.110	0.620	0.880
2020/01/31 13:19:08.6	2.000	0.060	0.640	0.890
2020/01/31 13:19:08.7	1.990	0.010	0.650	0.900
2020/01/31 13:19:08.8	1.980	-0.030	0.660	0.900
2020/01/31 13:19:08.9	1.960	-0.080	0.660	0.890
2020/01/31 13:19:09.0	1.950	-0.120	0.660	0.880
2020/01/31 13:19:09.1	1.930	-0.170	0.650	0.870
2020/01/31 13:19:09.2	1.910	-0.210	0.640	0.850
2020/01/31 13:19:09.3	1.890	-0.250	0.620	0.820
2020/01/31 13:19:09.4	1.870	-0.290	0.600	0.800
2020/01/31 13:19:09.5	1.840	-0.320	0.580	0.770
2020/01/31 13:19:09.6	1.820	-0.360	0.550	0.730
2020/01/31 13:19:09.7	1.790	-0.390	0.520	0.700
2020/01/31 13:19:09.8	1.760	-0.420	0.480	0.650
2020/01/31 13:19:09.9	1.730	-0.440	0.450	0.610
2020/01/31 13:19:10.0	1.700	-0.470	0.410	0.560
2020/01/31 13:19:10.1	1.670	-0.490	0.360	0.510
2020/01/31 13:19:10.2	1.630	-0.500	0.320	0.460
2020/01/31 13:19:10.3	1.600	-0.520	0.270	0.410
2020/01/31 13:19:10.4	1.570	-0.530	0.220	0.350
2020/01/31 13:19:10.5	1.540	-0.530	0.170	0.290
2020/01/31 13:19:10.6	1.520	-0.540	0.120	0.230
2020/01/31 13:19:10.7	1.490	-0.540	0.060	0.170
2020/01/31 13:19:10.8	1.460	-0.540	0.010	0.110
2020/01/31 13:19:10.9	1.430	-0.530	-0.050	0.040
2020/01/31 13:19:11.0	1.400	-0.520	-0.100	-0.020
2020/01/31 13:19:11.1	1.380	-0.510	-0.160	-0.090
2020/01/31 13:19:11.2	1.360	-0.490	-0.220	-0.150
2020/01/31 13:19:11.3	1.340	-0.470	-0.280	-0.220
2020/01/31 13:19:11.4	1.320	-0.440	-0.330	-0.280
2020/01/31 13:19:11.5	1.300	-0.420	-0.390	-0.340
2020/01/31 13:19:11.6	1.290	-0.390	-0.450	-0.410
2020/01/31 13:19:11.7	1.280	-0.350	-0.500	-0.470
2020/01/31 13:19:11.8	1.270	-0.320	-0.560	-0.530
2020/01/31 13:19:11.9	1.260	-0.280	-0.610	-0.590
2020/01/31 13:19:12.0	1.260	-0.240	-0.660	-0.650
2020/01/31 13:19:12.1	1.260	-0.200	-0.710	-0.700
2020/01/31 13:19:12.2	1.250	-0.160	-0.760	-0.750
2020/01/31 13:19:12.3	1.260	-0.120	-0.800	-0.810
2020/01/31 13:19:12.4	1.260	-0.070	-0.850	-0.860
2020/01/31 13:19:12.5	1.260	-0.030	-0.890	-0.910
2020/01/31 13:19:12.6	1.280	0.020	-0.940	-0.950
2020/01/31 13:19:12.7	1.290	0.060	-0.980	-1.000
2020/01/31 13:19:12.8	1.300	0.110	-1.010	-1.040
2020/01/31 13:19:12.9	1.310	0.150	-1.050	-1.080
2020/01/31 13:19:13.0	1.330	0.190	-1.080	-1.120
2020/01/31 13:19:13.1	1.350	0.230	-1.110	-1.160
2020/01/31 13:19:13.2	1.360	0.270	-1.130	-1.200
2020/01/31 13:19:13.3	1.390	0.310	-1.160	-1.230
2020/01/31 13:19:13.4	1.410	0.350	-1.180	-1.260
2020/01/31 13:19:13.5	1.440	0.380	-1.190	-1.290
2020/01/31 13:19:13.6	1.470	0.410	-1.200	-1.320
2020/01/31 13:19:13.7	1.490	0.440	-1.200	-1.340
2020/01/31 13:19:13.8	1.520	0.470	-1.200	-1.360
2020/01/31 13:19:13.9	1.550	0.490	-1.190	-1.370
2020/01/31 13:19:14.0	1.580	0.500	-1.180	-1.380
2020/01/31 13:19:14.1	1.610	0.520	-1.160	-1.390
2020/01/31 13:19:14.2	1.630	0.520	-1.130	-1.390
2020/01/31 13:19:14.3	1.660	0.530	-1.100	-1.390
2020/01/31 13:19:14.4	1.690	0.530	-1.060	-1.380
2020/01/31 13:19:14.5	1.710	0.530	-1.010	-1.370
2020/01/31 13:19:14.6	1.750	0.520	-0.960	-1.350
2020/01/31 13:19:14.7	1.770	0.510	-0.910	-1.340
2020/01/31 13:19:14.8	1.790	0.490	-0.840	-1.320
2020/01/31 13:19:14.9	1.820	0.470	-0.780	-1.290
2020/01/31 13:19:15.0	1.840	0.440	-0.710	-1.260
2020/01/31 13:19:15.1	1.860	0.420	-0.630	-1.240
2020/01/31 13:19:15.2	1.890	0.380	-0.550	-1.200
2020/01/31 13:19:15.3	1.910	0.350	-0.470	-1.170
2020/01/31 13:19:15.4	1.930	0.310	-0.390	-1.130
2020/01/31 13:19:15.5	1.950	0.270	-0.300	-1.090
2020/01/31 13:19:15.6	1.980	0.230	-0.220	-1.050
2020/01/31 13:19:15.7	2.000	0.180	-0.130	-1.010
2020/01/31 13:19:15.8	2.020	0.130	-0.040	-0.960
2020/01/31 13:19:15.9	2.030	0.080	0.040	-0.920
2020/01/31 13:19:16.0	2.050	0.030	0.130	-0.870
2020/01/31 13:19:16.1	2.060	-0.020	0.210	-0.820
2020/01/31 13:19:16.2	2.070	-0.070	0.290	-0.770
2020/01/31 13:19:16.3	2.080	-0.120	0.370	-0.720
2020/01/31 13:19:16.4	2.090	-0.160	0.440	-0.660
2020/01/31 13:19:16.5	2.090	-0.210	0.510	-0.610
2020/01/31 13:19:16.6	2.090	-0.260	0.580	-0.550
2020/01/31 13:19:16.7	2.080	-0.310	0.640	-0.490
2020/01/31 13:19:16.8	2.070	-0.350	0.700	-0.420
2020/01/31 13:19:16.9	2.060	-0.390	0.760	-0.360
2020/01/31 13:19:17.0	2.040	-0.430	0.810	-0.300
2020/01/31 13:19:17.1	2.010	-0.460	0.860	-0.230
2020/01/31 13:19:17.2	1.980	-0.500	0.900	-0.170
2020/01/31 13:19:17.3	1.950	-0.520	0.940	-0.100
2020/01/31 13:19:17.4	1.910	-0.550	0.970	-0.040
2020/01/31 13:19:17.5	1.880	-0.560	0.990	0.030
2020/01/31 13:19:17.6	1.830	-0.580	1.010	0.090
2020/01/31 13:19:17.7	1.780	-0.590	1.020	0.160
2020/01/31 13:19:17.8	1.740	-0.590	1.020	0.220
2020/01/31 13:19:17.9	1.690	-0.590	1.010	0.280
2020/01/31 13:19:18.0	1.640	-0.580	1.000	0.340
2020/01/31 13:19:18.1	1.590	-0.570	0.980	0.400
2020/01/31 13:19:18.2	1.550	-0.550	0.950	0.450
2020/01/31 13:19:18.3	1.500	-0.530	0.910	0.510
2020/01/31 13:19:18.4	1.460	-0.500	0.860	0.560
2020/01/31 13:19:18.5	1.420	-0.470	0.810	0.600
2020/01/31 13:19:18.6	1.380	-0.430	0.740	0.640
2020/01/31 13:19:18.7	1.340	-0.390	0.670	0.680
2020/01/31 13:19:18.8	1.310	-0.340	0.580	0.710
2020/01/31 13:19:18.9	1.280	-0.290	0.490	0.740
2020/01/31 13:19:19.0	1.260	-0.240	0.390	0.770
2020/01/31 13:19:19.1	1.240	-0.180	0.290	0.790
2020/01/31 13:19:19.2	1.230	-0.120	0.180	0.800
2020/01/31 13:19:19.3	1.220	-0.050	0.060	0.810
2020/01/31 13:19:19.4	1.210	0.010	-0.060	0.820
2020/01/31 13:19:19.5	1.210	0.080	-0.190	0.830
2020/01/31 13:19:19.6	1.200	0.150	-0.310	0.830
2020/01/31 13:19:19.7	1.200	0.220	-0.440	0.820
2020/01/31 13:19:19.8	1.210	0.290	-0.570	0.820
2020/01/31 13:19:19.9	1.210	0.360	-0.690	0.810
2020/01/31 13:19:20.0	1.220	0.420	-0.810	0.800
2020/01/31 13:19:20.1	1.230	0.480	-0.930	0.780
2020/01/31 13:19:20.2	1.240	0.540	-1.040	0.760
2020/01/31 13:19:20.3	1.260	0.600	-1.140	0.740
2020/01/31 13:19:20.4	1.270	0.650	-1.230	0.720
2020/01/31 13:19:20.5	1.280	0.700	-1.310	0.700
2020/01/31 13:19:20.6	1.290	0.740	-1.390	0.670
2020/01/31 13:19:20.7	1.300	0.770	-1.450	0.650
2020/01/31 13:19:20.8	1.320	0.800	-1.500	0.630
2020/01/31 13:19:20.9	1.330	0.820	-1.540	0.600
2020/01/31 13:19:21.0	1.340	0.830	-1.560	0.580
2020/01/31 13:19:21.1	1.350	0.840	-1.570	0.550
2020/01/31 13:19:21.2	1.360	0.840	-1.570	0.530
2020/01/31 13:19:21.3	1.370	0.840	-1.550	0.500
2020/01/31 13:19:21.4	1.380	0.820	-1.520	0.470
2020/01/31 13:19:21.5	1.400	0.800	-1.480	0.450
2020/01/31 13:19:21.6	1.400	0.770	-1.430	0.430
2020/01/31 13:19:21.7	1.410	0.740	-1.370	0.400
2020/01/31 13:19:21.8	1.420	0.700	-1.300	0.370
2020/01/31 13:19:21.9	1.440	0.650	-1.220	0.350
2020/01/31 13:19:22.0	1.450	0.600	-1.140	0.320
2020/01/31 13:19:22.1	1.460	0.540	-1.040	0.290
2020/01/31 13:19:22.2	1.470	0.480	-0.940	0.260
2020/01/31 13:19:22.3	1.480	0.420	-0.840	0.240
2020/01/31 13:19:22.4	1.500	0.350	-0.730	0.210
2020/01/31 13:19:22.5	1.510	0.280	-0.630	0.180
2020/01/31 13:19:22.6	1.510	0.210	-0.520	0.150
2020/01/31 13:19:22.7	1.530	0.140	-0.410	0.130
2020/01/31 13:19:22.8	1.530	0.070	-0.300	0.100
2020/01/31 13:19:22.9	1.540	-0.010	-0.190	0.080
2020/01/31 13:19:23.0	1.550	-0.080	-0.090	0.060
2020/01/31 13:19:23.1	1.550	-0.150	0.010	0.040
2020/01/31 13:19:23.2	1.550	-0.220	0.110	0.010
2020/01/31 13:19:23.3	1.550	-0.290	0.200	-0.010
2020/01/31 13:19:23.4	1.550	-0.360	0.290	-0.030
2020/01/31 13:19:23.5	1.550	-0.430	0.370	-0.050
2020/01/31 13:19:23.6	1.550	-0.490	0.440	-0.070
2020/01/31 13:19:23.7	1.540	-0.550	0.510	-0.100
2020/01/31 13:19:23.8	1.530	-0.600	0.570	-0.120
2020/01/31 13:19:23.9	1.520	-0.650	0.610	-0.140
2020/01/31 13:19:24.0	1.520	-0.700	0.650	-0.170
2020/01/31 13:19:24.1	1.510	-0.740	0.680	-0.200
2020/01/31 13:19:24.2	1.490	-0.780	0.700	-0.220
2020/01/31 13:19:24.3	1.480	-0.810	0.710	-0.250
2020/01/31 13:19:24.4	1.470	-0.830	0.710	-0.280
2020/01/31 13:19:24.5	1.460	-0.850	0.700	-0.310
2020/01/31 13:19:24.6	1.460	-0.860	0.680	-0.340
2020/01/31 13:19:24.7	1.450	-0.870	0.650	-0.370
2020/01/31 13:19:24.8	1.440	-0.870	0.610	-0.400
2020/01/31 13:19:24.9	1.440	-0.860	0.570	-0.440
2020/01/31 13:19:25.0	1.430	-0.850	0.520	-0.470
2020/01/31 13:19:25.1	1.430	-0.830	0.450	-0.500
2020/01/31 13:19:25.2	1.430	-0.800	0.390	-0.540
2020/01/31 13:19:25.3	1.430	-0.770	0.320	-0.570
2020/01/31 13:19:25.4	1.430	-0.740	0.240	-0.610
2020/01/31 13:19:25.5	1.430	-0.700	0.160	-0.640
2020/01/31 13:19:25.6	1.440	-0.650	0.080	-0.680
2020/01/31 13:19:25.7	1.450	-0.600	-0.010	-0.720
2020/01/31 13:19:25.8	1.460	-0.550	-0.090	-0.750
2020/01/31 13:19:25.9	1.470	-0.490	-0.180	-0.790
2020/01/31 13:19:26.0	1.480	-0.430	-0.260	-0.830
2020/01/31 13:19:26.1	1.500	-0.370	-0.350	-0.870
2020/01/31 13:19:26.2	1.510	-0.300	-0.430	-0.920
2020/01/31 13:19:26.3	1.530	-0.240	-0.500	-0.960
2020/01/31 13:19:26.4	1.550	-0.170	-0.570	-1.000
2020/01/31 13:19:26.5	1.570	-0.100	-0.640	-1.040
2020/01/31 13:19:26.6	1.600	-0.040	-0.700	-1.070
2020/01/31 13:19:26.7	1.620	0.030	-0.760	-1.110
2020/01/31 13:19:26.8	1.640	0.090	-0.800	-1.140
2020/01/31 13:19:26.9	1.650	0.150	-0.840	-1.180
2020/01/31 13:19:27.0	1.670	0.210	-0.870	-1.210
2020/01/31 13:19:27.1	1.690	0.270	-0.890	-1.230
2020/01/31 13:19:27.2	1.710	0.320	-0.910	-1.260
2020/01/31 13:19:27.3	1.720	0.370	-0.910	-1.280
2020/01/31 13:19:27.4	1.730	0.420	-0.910	-1.290
2020/01/31 13:19:27.5	1.740	0.460	-0.890	-1.310
2020/01/31 13:19:27.6	1.760	0.500	-0.870	-1.320
2020/01/31 13:19:27.7	1.770	0.530	-0.840	-1.320
2020/01/31 13:19:27.8	1.770	0.550	-0.810	-1.320
2020/01/31 13:19:27.9	1.770	0.570	-0.760	-1.320
2020/01/31 13:19:28.0	1.770	0.590	-0.710	-1.310
2020/01/31 13:19:28.1	1.770	0.600	-0.660	-1.300
2020/01/31 13:19:28.2	1.770	0.600	-0.590	-1.280
2020/01/31 13:19:28.3	1.760	0.600	-0.530	-1.260
2020/01/31 13:19:28.4	1.740	0.600	-0.460	-1.240
2020/01/31 13:19:28.5	1.730	0.590	-0.390	-1.200
2020/01/31 13:19:28.6	1.720	0.570	-0.310	-1.160
2020/01/31 13:19:28.7	1.700	0.550	-0.230	-1.130
2020/01/31 13:19:28.8	1.680	0.530	-0.160	-1.080
2020/01/31 13:19:28.9	1.650	0.510	-0.080	-1.040
2020/01/31 13:19:29.0	1.620	0.480	-0.000	-0.990
2020/01/31 13:19:29.1	1.590	0.440	0.070	-0.930
2020/01/31 13:19:29.2	1.550	0.410	0.140	-0.870
2020/01/31 13:19:29.3	1.520	0.370	0.210	-0.820
2020/01/31 13:19:29.4	1.480	0.330	0.270	-0.750
2020/01/31 13:19:29.5	1.440	0.300	0.330	-0.690
2020/01/31 13:19:29.6	1.390	0.260	0.390	-0.620
2020/01/31 13:19:29.7	1.350	0.220	0.430	-0.550
2020/01/31 13:19:29.8	1.300	0.180	0.480	-0.490
2020/01/31 13:19:29.9	1.250	0.140	0.510	-0.420
2020/01/31 13:19:30.0	1.210	0.100	0.540	-0.350
2020/01/31 13:19:30.1	1.160	0.070	0.570	-0.290
2020/01/31 13:19:30.2	1.120	0.040	0.580	-0.220
2020/01/31 13:19:30.3	1.070	0.000	0.590	-0.160
2020/01/31 13:19:30.4	1.030	-0.020	0.590	-0.090
2020/01/31 13:19:30.5	0.990	-0.050	0.590	-0.030
2020/01/31 13:19:30.6	0.960	-0.070	0.570	0.030
2020/01/31 13:19:30.7	0.920	-0.090	0.550	0.080
2020/01/31 13:19:30.8	0.890	-0.110	0.520	0.130
2020/01/31 13:19:30.9	0.860	-0.120	0.490	0.180
2020/01/31 13:19:31.0	0.830	-0.130	0.450	0.220
2020/01/31 13:19:31.1	0.810	-0.140	0.400	0.260
2020/01/31 13:19:31.2	0.790	-0.140	0.340	0.290
2020/01/31 13:19:31.3	0.780	-0.140	0.280	0.320
2020/01/31 13:19:31.4	0.770	-0.140	0.210	0.340
2020/01/31 13:19:31.5	0.770	-0.130	0.140	0.360
2020/01/31 13:19:31.6	0.760	-0.120	0.060	0.370
2020/01/31 13:19:31.7	0.770	-0.110	-0.020	0.370
2020/01/31 13:19:31.8	0.780	-0.090	-0.110	0.370
2020/01/31 13:19:31.9	0.800	-0.070	-0.200	0.360
2020/01/31 13:19:32.0	0.820	-0.060	-0.290	0.350
2020/01/31 13:19:32.1	0.850	-0.030	-0.380	0.330
2020/01/31 13:19:32.2	0.890	-0.010	-0.470	0.310
2020/01/31 13:19:32.3	0.920	0.010	-0.570	0.290
2020/01/31 13:19:32.4	0.960	0.030	-0.660	0.260
2020/01/31 13:19:32.5	1.010	0.060	-0.750	0.230
2020/01/31 13:19:32.6	1.060	0.080	-0.840	0.190
2020/01/31 13:19:32.7	1.110	0.100	-0.920	0.150
2020/01/31 13:19:32.8	1.160	0.120	-0.990	0.110
2020/01/31 13:19:32.9	1.210	0.140	-1.060	0.070
2020/01/31 13:19:33.0	1.270	0.160	-1.130	0.030
2020/01/31 13:19:33.1	1.330	0.170	-1.190	-0.010
2020/01/31 13:19:33.2	1.380	0.180	-1.230	-0.060
2020/01/31 13:19:33.3	1.440	0.190	-1.270	-0.100
2020/01/31 13:19:33.4	1.500	0.200	-1.300	-0.140
2020/01/31 13:19:33.5	1.560	0.200	-1.330	-0.180
2020/01/31 13:19:33.6	1.630	0.200	-1.340	-0.220
2020/01/31 13:19:33.7	1.680	0.200	-1.350	-0.260
2020/01/31 13:19:33.8	1.740	0.190	-1.340	-0.300
2020/01/31 13:19:33.9	1.790	0.190	-1.320	-0.330
2020/01/31 13:19:34.0	1.840	0.170	-1.300	-0.360
2020/01/31 13:19:34.1	1.890	0.160	-1.270	-0.390
2020/01/31 13:19:34.2	1.940	0.140	-1.230	-0.420
2020/01/31 13:19:34.3	1.980	0.120	-1.180	-0.440
2020/01/31 13:19:34.4	2.020	0.100	-1.120	-0.460
2020/01/31 13:19:34.5	2.060	0.080	-1.050	-0.480
2020/01/31 13:19:34.6	2.100	0.060	-0.980	-0.490
2020/01/31 13:19:34.7	2.130	0.030	-0.910	-0.490
2020/01/31 13:19:34.8	2.160	0.010	-0.820	-0.500
2020/01/31 13:19:34.9	2.180	-0.020	-0.740	-0.500
2020/01/31 13:19:35.0	2.200	-0.050	-0.650	-0.490
2020/01/31 13:19:35.1	2.220	-0.070	-0.550	-0.480
2020/01/31 13:19:35.2	2.230	-0.100	-0.460	-0.470
2020/01/31 13:19:35.3	2.240	-0.130	-0.360	-0.450
2020/01/31 13:19:35.4	2.240	-0.150	-0.260	-0.430
2020/01/31 13:19:35.5	2.240	-0.170	-0.170	-0.400
2020/01/31 13:19:35.6	2.220	-0.200	-0.080	-0.370
2020/01/31 13:19:35.7	2.210	-0.220	0.020	-0.340
2020/01/31 13:19:35.8	2.200	-0.240	0.110	-0.310
2020/01/31 13:19:35.9	2.180	-0.250	0.200	-0.270
2020/01/31 13:19:36.0	2.160	-0.270	0.280	-0.240
2020/01/31 13:19:36.1	2.140	-0.280	0.350	-0.200
2020/01/31 13:19:36.2	2.110	-0.300	0.420	-0.170
2020/01/31 13:19:36.3	2.090	-0.310	0.490	-0.130
2020/01/31 13:19:36.4	2.060	-0.310	0.540	-0.090
2020/01/31 13:19:36.5	2.030	-0.320	0.590	-0.060
2020/01/31 13:19:36.6	1.990	-0.320	0.630	-0.030
2020/01/31 13:19:36.7	1.950	-0.330	0.670	-0.000
2020/01/31 13:19:36.8	1.920	-0.320	0.690	0.020
2020/01/31 13:19:36.9	1.890	-0.320	0.710	0.050
2020/01/31 13:19:37.0	1.850	-0.320	0.720	0.070
2020/01/31 13:19:37.1	1.820	-0.310	0.720	0.080
2020/01/31 13:19:37.2	1.780	-0.300	0.720	0.100
2020/01/31 13:19:37.3	1.750	-0.290	0.700	0.100
2020/01/31 13:19:37.4	1.720	-0.280	0.680	0.110
2020/01/31 13:19:37.5	1.680	-0.270	0.660	0.110
2020/01/31 13:19:37.6	1.640	-0.250	0.620	0.110
2020/01/31 13:19:37.7	1.610	-0.240	0.590	0.110
2020/01/31 13:19:37.8	1.580	-0.220	0.550	0.100
2020/01/31 13:19:37.9	1.550	-0.200	0.500	0.080
2020/01/31 13:19:38.0	1.520	-0.180	0.450	0.060
2020/01/31 13:19:38.1	1.500	-0.170	0.400	0.040
2020/01/31 13:19:38.2	1.470	-0.150	0.340	0.020
2020/01/31 13:19:38.3	1.450	-0.120	0.290	-0.010
2020/01/31 13:19:38.4	1.430	-0.100	0.230	-0.040
2020/01/31 13:19:38.5	1.420	-0.080	0.170	-0.070
2020/01/31 13:19:38.6	1.400	-0.060	0.110	-0.110
2020/01/31 13:19:38.7	1.390	-0.040	0.050	-0.140
2020/01/31 13:19:38.8	1.380	-0.020	-0.010	-0.180
2020/01/31 13:19:38.9	1.370	0.010	-0.070	-0.220
2020/01/31 13:19:39.0	1.360	0.030	-0.120	-0.250
2020/01/31 13:19:39.1	1.350	0.050	-0.170	-0.290
2020/01/31 13:19:39.2	1.340	0.070	-0.220	-0.330
2020/01/31 13:19:39.3	1.340	0.090	-0.270	-0.360
2020/01/31 13:19:39.4	1.330	0.120	-0.310	-0.400
2020/01/31 13:19:39.5	1.320	0.140	-0.350	-0.430
2020/01/31 13:19:39.6	1.320	0.160	-0.390	-0.460
2020/01/31 13:19:39.7	1.310	0.180	-0.420	-0.490
2020/01/31 13:19:39.8	1.300	0.190	-0.440	-0.510
2020/01/31 13:19:39.9	1.300	0.210	-0.470	-0.530
2020/01/31 13:19:40.0	1.290	0.230	-0.480	-0.550
2020/01/31 13:19:40.1	1.280	0.250	-0.500	-0.570
2020/01/31 13:19:40.2	1.270	0.260	-0.510	-0.580
2020/01/31 13:19:40.3	1.260	0.270	-0.520	-0.590
2020/01/31 13:19:40.4	1.250	0.290	-0.520	-0.590
2020/01/31 13:19:40.5	1.240	0.300	-0.520	-0.590
2020/01/31 13:19:40.6	1.250	0.310	-0.520	-0.590
2020/01/31 13:19:40.7	1.240	0.320	-0.520	-0.580
2020/01/31 13:19:40.8	1.230	0.330	-0.520	-0.580
2020/01/31 13:19:40.9	1.220	0.340	-0.520	-0.570
2020/01/31 13:19:41.0	1.210	0.340	-0.520	-0.560
2020/01/31 13:19:41.1	1.200	0.350	-0.510	-0.550
2020/01/31 13:19:41.2	1.200	0.360	-0.510	-0.530
2020/01/31 13:19:41.3	1.190	0.360	-0.510	-0.520
2020/01/31 13:19:41.4	1.190	0.370	-0.510	-0.510
2020/01/31 13:19:41.5	1.190	0.370	-0.520	-0.490
2020/01/31 13:19:41.6	1.190	0.370	-0.520	-0.480
2020/01/31 13:19:41.7	1.200	0.380	-0.530	-0.470
2020/01/31 13:19:41.8	1.200	0.380	-0.540	-0.450
2020/01/31 13:19:41.9	1.210	0.380	-0.540	-0.440
2020/01/31 13:19:42.0	1.220	0.380	-0.550	-0.430
2020/01/31 13:19:42.1	1.240	0.380	-0.570	-0.430
2020/01/31 13:19:42.2	1.250	0.380	-0.580	-0.420
2020/01/31 13:19:42.3	1.270	0.380	-0.590	-0.420
2020/01/31 13:19:42.4	1.300	0.370	-0.600	-0.410
2020/01/31 13:19:42.5	1.330	0.370	-0.610	-0.410
2020/01/31 13:19:42.6	1.350	0.370	-0.630	-0.410
2020/01/31 13:19:42.7	1.380	0.360	-0.640	-0.410
2020/01/31 13:19:42.8	1.420	0.350	-0.650	-0.420
2020/01/31 13:19:42.9	1.450	0.350	-0.660	-0.420
2020/01/31 13:19:43.0	1.490	0.340	-0.670	-0.430
2020/01/31 13:19:43.1	1.540	0.330	-0.670	-0.430
2020/01/31 13:19:43.2	1.580	0.320	-0.670	-0.440
2020/01/31 13:19:43.3	1.620	0.300	-0.680	-0.440
2020/01/31 13:19:43.4	1.670	0.290	-0.670	-0.450
2020/01/31 13:19:43.5	1.720	0.270	-0.670	-0.460
2020/01/31 13:19:43.6	1.770	0.260	-0.660	-0.460
2020/01/31 13:19:43.7	1.820	0.240	-0.650	-0.470
2020/01/31 13:19:43.8	1.870	0.210	-0.640	-0.480
2020/01/31 13:19:43.9	1.920	0.190	-0.630	-0.480
2020/01/31 13:19:44.0	1.970	0.170	-0.610	-0.490
2020/01/31 13:19:44.1	2.020	0.140	-0.590	-0.500
2020/01/31 13:19:44.2	2.070	0.120	-0.570	-0.500
2020/01/31 13:19:44.3	2.120	0.090	-0.550	-0.510
2020/01/31 13:19:44.4	2.170	0.060	-0.520	-0.510
2020/01/31 13:19:44.5	2.210	0.030	-0.500	-0.510
2020/01/31 13:19:44.6	2.260	-0.000	-0.470	-0.510
2020/01/31 13:19:44.7	2.300	-0.040	-0.440	-0.510
2020/01/31 13:19:44.8	2.340	-0.070	-0.410	-0.510
2020/01/31 13:19:44.9	2.380	-0.100	-0.380	-0.510
2020/01/31 13:19:45.0	2.410	-0.140	-0.340	-0.500
2020/01/31 13:19:45.1	2.440	-0.170	-0.310	-0.500
2020/01/31 13:19:45.2	2.470	-0.210	-0.280	-0.490
2020/01/31 13:19:45.3	2.490	-0.240	-0.240	-0.480
2020/01/31 13:19:45.4	2.510	-0.270	-0.200	-0.470
2020/01/31 13:19:45.5	2.530	-0.310	-0.160	-0.450
2020/01/31 13:19:45.6	2.540	-0.340	-0.120	-0.430
2020/01/31 13:19:45.7	2.540	-0.370	-0.080	-0.410
2020/01/31 13:19:45.8	2.550	-0.400	-0.030	-0.390
2020/01/31 13:19:45.9	2.550	-0.430	0.010	-0.360
2020/01/31 13:19:46.0	2.550	-0.460	0.050	-0.340
2020/01/31 13:19:46.1	2.540	-0.480	0.100	-0.310
2020/01/31 13:19:46.2	2.530	-0.500	0.150	-0.270
2020/01/31 13:19:46.3	2.510	-0.520	0.190	-0.240
2020/01/31 13:19:46.4	2.490	-0.540	0.240	-0.200
2020/01/31 13:19:46.5	2.470	-0.550	0.280	-0.160
2020/01/31 13:19:46.6	2.450	-0.560	0.320	-0.130
2020/01/31 13:19:46.7	2.430	-0.570	0.370	-0.090
2020/01/31 13:19:46.8	2.400	-0.580	0.400	-0.050
2020/01/31 13:19:46.9	2.370	-0.580	0.440	-0.010
2020/01/31 13:19:47.0	2.340	-0.580	0.470	0.030
2020/01/31 13:19:47.1	2.310	-0.580	0.500	0.070
2020/01/31 13:19:47.2	2.290	-0.570	0.520	0.100
2020/01/31 13:19:47.3	2.260	-0.560	0.540	0.130
2020/01/31 13:19:47.4	2.230	-0.550	0.550	0.170
2020/01/31 13:19:47.5	2.200	-0.530	0.560	0.200
2020/01/31 13:19:47.6	2.170	-0.510	0.560	0.220
2020/01/31 13:19:47.7	2.150	-0.490	0.560	0.250
2020/01/31 13:19:47.8	2.120	-0.460	0.550	0.270
2020/01/31 13:19:47.9	2.100	-0.440	0.540	0.290
2020/01/31 13:19:48.0	2.070	-0.410	0.520	0.310
2020/01/31 13:19:48.1	2.050	-0.380	0.490	0.330
2020/01/31 13:19:48.2	2.020	-0.350	0.460	0.340
2020/01/31 13:19:48.3	2.000	-0.310	0.430	0.350
2020/01/31 13:19:48.4	1.980	-0.280	0.390	0.350
2020/01/31 13:19:48.5	1.960	-0.250	0.340	0.350
2020/01/31 13:19:48.6	1.940	-0.210	0.300	0.350
2020/01/31 13:19:48.7	1.920	-0.170	0.250	0.350
2020/01/31 13:19:48.8	1.900	-0.140	0.190	0.340
2020/01/31 13:19:48.9	1.890	-0.100	0.140	0.330
2020/01/31 13:19:49.0	1.870	-0.060	0.080	0.310
2020/01/31 13:19:49.1	1.860	-0.030	0.020	0.290
2020/01/31 13:19:49.2	1.850	0.010	-0.040	0.270
2020/01/31 13:19:49.3	1.840	0.050	-0.100	0.250
2020/01/31 13:19:49.4	1.830	0.080	-0.160	0.220
2020/01/31 13:19:49.5	1.830	0.110	-0.220	0.190
2020/01/31 13:19:49.6	1.830	0.150	-0.280	0.170
2020/01/31 13:19:49.7	1.820	0.180	-0.340	0.130
2020/01/31 13:19:49.8	1.820	0.210	-0.390	0.100
2020/01/31 13:19:49.9	1.830	0.240	-0.450	0.070
2020/01/31 13:19:50.0	1.830	0.270	-0.500	0.040
2020/01/31 13:19:50.1	1.840	0.290	-0.550	0.010
2020/01/31 13:19:50.2	1.840	0.320	-0.590	-0.030
2020/01/31 13:19:50.3	1.850	0.340	-0.630	-0.060
2020/01/31 13:19:50.4	1.870	0.370	-0.670	-0.090
2020/01/31 13:19:50.5	1.880	0.390	-0.710	-0.120
2020/01/31 13:19:50.6	1.900	0.410	-0.740	-0.150
2020/01/31 13:19:50.7	1.910	0.420	-0.760	-0.170
2020/01/31 13:19:50.8	1.930	0.440	-0.780	-0.200
2020/01/31 13:19:50.9	1.950	0.450	-0.800	-0.220
2020/01/31 13:19:51.0	1.970	0.460	-0.820	-0.240
2020/01/31 13:19:51.1	1.990	0.470	-0.830	-0.270
2020/01/31 13:19:51.2	2.010	0.480	-0.830	-0.280
2020/01/31 13:19:51.3	2.030	0.480	-0.840	-0.300
2020/01/31 13:19:51.4	2.050	0.480	-0.830	-0.320
2020/01/31 13:19:51.5	2.070	0.480	-0.820	-0.340
2020/01/31 13:19:51.6	2.080	0.470	-0.820	-0.350
2020/01/31 13:19:51.7	2.100	0.460	-0.800	-0.360
2020/01/31 13:19:51.8	2.120	0.450	-0.780	-0.380
2020/01/31 13:19:51.9	2.130	0.430	-0.760	-0.390
2020/01/31 13:19:52.0	2.150	0.410	-0.730	-0.400
2020/01/31 13:19:52.1	2.160	0.390	-0.700	-0.410
2020/01/31 13:19:52.2	2.180	0.370	-0.660	-0.420
2020/01/31 13:19:52.3	2.190	0.340	-0.630	-0.430
2020/01/31 13:19:52.4	2.200	0.310	-0.590	-0.440
2020/01/31 13:19:52.5	2.200	0.280	-0.550	-0.460
2020/01/31 13:19:52.6	2.210	0.250	-0.510	-0.470
2020/01/31 13:19:52.7	2.220	0.220	-0.470	-0.480
2020/01/31 13:19:52.8	2.220	0.190	-0.430	-0.490
2020/01/31 13:19:52.9	2.230	0.150	-0.390	-0.510
2020/01/31 13:19:53.0	2.240	0.120	-0.350	-0.520
2020/01/31 13:19:53.1	2.240	0.090	-0.310	-0.540
2020/01/31 13:19:53.2	2.250	0.050	-0.280	-0.550
2020/01/31 13:19:53.3	2.250	0.020	-0.250	-0.570
2020/01/31 13:19:53.4	2.250	-0.010	-0.220	-0.580
2020/01/31 13:19:53.5	2.260	-0.040	-0.190	-0.600
2020/01/31 13:19:53.6	2.260	-0.070	-0.160	-0.620
2020/01/31 13:19:53.7	2.260	-0.100	-0.140	-0.640
2020/01/31 13:19:53.8	2.270	-0.120	-0.120	-0.660
2020/01/31 13:19:53.9	2.270	-0.150	-0.110	-0.690
2020/01/31 13:19:54.0	2.280	-0.170	-0.100	-0.710
2020/01/31 13:19:54.1	2.290	-0.180	-0.100	-0.740
2020/01/31 13:19:54.2	2.290	-0.200	-0.100	-0.770
2020/01/31 13:19:54.3	2.300	-0.210	-0.100	-0.800
2020/01/31 13:19:54.4	2.300	-0.220	-0.100	-0.830
2020/01/31 13:19:54.5	2.310	-0.220	-0.110	-0.860
2020/01/31 13:19:54.6	2.310	-0.220	-0.120	-0.900
2020/01/31 13:19:54.7	2.310	-0.220	-0.140	-0.930
2020/01/31 13:19:54.8	2.320	-0.220	-0.150	-0.960
2020/01/31 13:19:54.9	2.320	-0.210	-0.170	-0.980
2020/01/31 13:19:55.0	2.320	-0.200	-0.190	-1.010
2020/01/31 13:19:55.1	2.320	-0.180	-0.200	-1.030
2020/01/31 13:19:55.2	2.320	-0.160	-0.220	-1.050
2020/01/31 13:19:55.3	2.320	-0.140	-0.240	-1.060
2020/01/31 13:19:55.4	2.310	-0.120	-0.250	-1.070
2020/01/31 13:19:55.5	2.310	-0.100	-0.260	-1.070
2020/01/31 13:19:55.6	2.320	-0.070	-0.270	-1.070
2020/01/31 13:19:55.7	2.310	-0.040	-0.280	-1.070
2020/01/31 13:19:55.8	2.300	-0.010	-0.280	-1.060
2020/01/31 13:19:55.9	2.300	0.020	-0.280	-1.050
2020/01/31 13:19:56.0	2.290	0.050	-0.280	-1.030
2020/01/31 13:19:56.1	2.280	0.080	-0.280	-1.010
2020/01/31 13:19:56.2	2.270	0.110	-0.270	-0.980
2020/01/31 13:19:56.3	2.260	0.140	-0.260	-0.950
2020/01/31 13:19:56.4	2.250	0.160	-0.240	-0.910
2020/01/31 13:19:56.5	2.240	0.190	-0.230	-0.880
2020/01/31 13:19:56.6	2.230	0.220	-0.210	-0.830
2020/01/31 13:19:56.7	2.230	0.240	-0.190	-0.780
2020/01/31 13:19:56.8	2.220	0.260	-0.170	-0.740
2020/01/31 13:19:56.9	2.210	0.280	-0.150	-0.690
2020/01/31 13:19:57.0	2.210	0.290	-0.130	-0.630
2020/01/31 13:19:57.1	2.200	0.310	-0.110	-0.580
2020/01/31 13:19:57.2	2.200	0.310	-0.090	-0.520
2020/01/31 13:19:57.3	2.190	0.320	-0.070	-0.470
2020/01/31 13:19:57.4	2.190	0.320	-0.060	-0.410
2020/01/31 13:19:57.5	2.190	0.320	-0.040	-0.350
2020/01/31 13:19:57.6	2.180	0.320	-0.030	-0.280
2020/01/31 13:19:57.7	2.180	0.310	-0.020	-0.220
2020/01/31 13:19:57.8	2.180	0.300	-0.010	-0.160
2020/01/31 13:19:57.9	2.180	0.280	-0.000	-0.100
2020/01/31 13:19:58.0	2.180	0.260	0.000	-0.040
2020/01/31 13:19:58.1	2.180	0.240	0.010	0.010
2020/01/31 13:19:58.2	2.180	0.220	0.010	0.060
2020/01/31 13:19:58.3	2.170	0.190	0.010	0.110
2020/01/31 13:19:58.4	2.170	0.150	0.000	0.160
2020/01/31 13:19:58.5	2.170	0.120	-0.000	0.200
2020/01/31 13:19:58.6	2.170	0.080	-0.010	0.230
2020/01/31 13:19:58.7	2.170	0.040	-0.020	0.260
2020/01/31 13:19:58.8	2.170	0.000	-0.040	0.290
2020/01/31 13:19:58.9	2.170	-0.040	-0.050	0.310
2020/01/31 13:19:59.0	2.170	-0.080	-0.070	0.320
2020/01/31 13:19:59.1	2.170	-0.120	-0.080	0.330
2020/01/31 13:19:59.2	2.180	-0.170	-0.100	0.340
2020/01/31 13:19:59.3	2.180	-0.210	-0.120	0.340
2020/01/31 13:19:59.4	2.190	-0.260	-0.140	0.330
2020/01/31 13:19:59.5	2.190	-0.300	-0.160	0.320
2020/01/31 13:19:59.6	2.200	-0.340	-0.180	0.310
2020/01/31 13:19:59.7	2.210	-0.380	-0.200	0.290
2020/01/31 13:19:59.8	2.220	-0.420	-0.220	0.270
2020/01/31 13:19:59.9	2.230	-0.460	-0.240	0.240
2020/01/31 13:20:00.0	2.240	-0.490	-0.260	0.220
2020/01/31 13:20:00.1	2.250	-0.530	-0.270	0.190
2020/01/31 13:20:00.2	2.260	-0.560	-0.290	0.160
2020/01/31 13:20:00.3	2.280	-0.580	-0.300	0.120
2020/01/31 13:20:00.4	2.290	-0.600	-0.320	0.090
2020/01/31 13:20:00.5	2.300	-0.620	-0.330	0.060
2020/01/31 13:20:00.6	2.320	-0.640	-0.340	0.020
2020/01/31 13:20:00.7	2.340	-0.650	-0.350	-0.010
2020/01/31 13:20:00.8	2.350	-0.660	-0.360	-0.040
2020/01/31 13:20:00.9	2.360	-0.660	-0.360	-0.070
2020/01/31 13:20:01.0	2.370	-0.660	-0.370	-0.100
2020/01/31 13:20:01.1	2.380	-0.660	-0.370	-0.120
2020/01/31 13:20:01.2	2.400	-0.650	-0.370	-0.150
2020/01/31 13:20:01.3	2.410	-0.640	-0.370	-0.170
2020/01/31 13:20:01.4	2.410	-0.620	-0.360	-0.190
2020/01/31 13:20:01.5	2.420	-0.600	-0.360	-0.200
2020/01/31 13:20:01.6	2.420	-0.580	-0.350	-0.220
2020/01/31 13:20:01.7	2.430	-0.550	-0.340	-0.230
2020/01/31 13:20:01.8	2.440	-0.520	-0.330	-0.240
2020/01/31 13:20:01.9	2.440	-0.490	-0.320	-0.250
2020/01/31 13:20:02.0	2.450	-0.460	-0.310	-0.250
2020/01/31 13:20:02.1	2.460	-0.420	-0.300	-0.260
2020/01/31 13:20:02.2	2.460	-0.380	-0.290	-0.260
2020/01/31 13:20:02.3	2.460	-0.340	-0.280	-0.260
2020/01/31 13:20:02.4	2.460	-0.300	-0.260	-0.250
2020/01/31 13:20:02.5	2.460	-0.260	-0.250	-0.250
2020/01/31 13:20:02.6	2.460	-0.210	-0.240	-0.240
2020/01/31 13:20:02.7	2.460	-0.170	-0.220	-0.230
2020/01/31 13:20:02.8	2.460	-0.120	-0.210	-0.220
2020/01/31 13:20:02.9	2.450	-0.080	-0.190	-0.200
2020/01/31 13:20:03.0	2.450	-0.030	-0.180	-0.190
2020/01/31 13:20:03.1	2.440	0.010	-0.160	-0.170
2020/01/31 13:20:03.2	2.430	0.050	-0.150	-0.150
2020/01/31 13:20:03.3	2.420	0.100	-0.130	-0.120
2020/01/31 13:20:03.4	2.410	0.140	-0.120	-0.100
2020/01/31 13:20:03.5	2.390	0.180	-0.100	-0.070
2020/01/31 13:20:03.6	2.360	0.220	-0.090	-0.040
2020/01/31 13:20:03.7	2.350	0.250	-0.070	-0.010
2020/01/31 13:20:03.8	2.330	0.290	-0.060	0.020
2020/01/31 13:20:03.9	2.300	0.320	-0.050	0.050
2020/01/31 13:20:04.0	2.280	0.350	-0.030	0.090
2020/01/31 13:20:04.1	2.260	0.380	-0.020	0.120
2020/01/31 13:20:04.2	2.230	0.400	-0.010	0.160
2020/01/31 13:20:04.3	2.200	0.430	-0.000	0.200
2020/01/31 13:20:04.4	2.170	0.450	0.000	0.240
2020/01/31 13:20:04.5	2.140	0.460	0.010	0.280
2020/01/31 13:20:04.6	2.100	0.480	0.010	0.320
2020/01/31 13:20:04.7	2.070	0.490	0.020	0.350
2020/01/31 13:20:04.8	2.030	0.500	0.020	0.390
2020/01/31 13:20:04.9	2.000	0.510	0.020	0.430
2020/01/31 13:20:05.0	1.970	0.520	0.020	0.460
2020/01/31 13:20:05.1	1.950	0.520	0.010	0.500
2020/01/31 13:20:05.2	1.920	0.530	0.010	0.530
2020/01/31 13:20:05.3	1.890	0.530	-0.000	0.560
2020/01/31 13:20:05.4	1.870	0.530	-0.010	0.590
2020/01/31 13:20:05.5	1.840	0.520	-0.030	0.610
2020/01/31 13:20:05.6	1.840	0.520	-0.040	0.640
2020/01/31 13:20:05.7	1.820	0.520	-0.060	0.660
2020/01/31 13:20:05.8	1.800	0.510	-0.080	0.670
2020/01/31 13:20:05.9	1.790	0.500	-0.100	0.680
2020/01/31 13:20:06.0	1.780	0.500	-0.120	0.690
2020/01/31 13:20:06.1	1.770	0.490	-0.140	0.700
2020/01/31 13:20:06.2	1.760	0.480	-0.170	0.700
2020/01/31 13:20:06.3	1.750	0.470	-0.200	0.700
2020/01/31 13:20:06.4	1.750	0.460	-0.220	0.700
2020/01/31 13:20:06.5	1.750	0.450	-0.250	0.690
2020/01/31 13:20:06.6	1.750	0.440	-0.280	0.680
2020/01/31 13:20:06.7	1.750	0.420	-0.310	0.660
2020/01/31 13:20:06.8	1.750	0.410	-0.340	0.640
2020/01/31 13:20:06.9	1.750	0.400	-0.370	0.620
2020/01/31 13:20:07.0	1.750	0.380	-0.400	0.590
2020/01/31 13:20:07.1	1.760	0.370	-0.430	0.560
2020/01/31 13:20:07.2	1.770	0.350	-0.470	0.530
2020/01/31 13:20:07.3	1.770	0.330	-0.500	0.490
2020/01/31 13:20:07.4	1.790	0.320	-0.530	0.440
2020/01/31 13:20:07.5	1.800	0.300	-0.560	0.390
2020/01/31 13:20:07.6	1.820	0.280	-0.590	0.340
2020/01/31 13:20:07.7	1.830	0.270	-0.620	0.290
2020/01/31 13:20:07.8	1.850	0.250	-0.660	0.230
2020/01/31 13:20:07.9	1.870	0.230	-0.690	0.170
2020/01/31 13:20:08.0	1.900	0.210	-0.720	0.110
2020/01/31 13:20:08.1	1.920	0.200	-0.750	0.040
2020/01/31 13:20:08.2	1.950	0.180	-0.770	-0.030
2020/01/31 13:20:08.3	1.990	0.170	-0.800	-0.100
2020/01/31 13:20:08.4	2.020	0.150	-0.830	-0.170
2020/01/31 13:20:08.5	2.060	0.140	-0.850	-0.250
2020/01/31 13:20:08.6	2.100	0.120	-0.880	-0.330
2020/01/31 13:20:08.7	2.140	0.110	-0.900	-0.410
2020/01/31 13:20:08.8	2.190	0.100	-0.920	-0.480
2020/01/31 13:20:08.9	2.230	0.090	-0.930	-0.560
2020/01/31 13:20:09.0	2.280	0.080	-0.950	-0.630
2020/01/31 13:20:09.1	2.320	0.070	-0.960	-0.710
2020/01/31 13:20:09.2	2.370	0.060	-0.960	-0.780
2020/01/31 13:20:09.3	2.420	0.050	-0.970	-0.850
2020/01/31 13:20:09.4	2.460	0.040	-0.960	-0.920
2020/01/31 13:20:09.5	2.510	0.030	-0.950	-0.980
2020/01/31 13:20:09.6	2.550	0.010	-0.940	-1.040
2020/01/31 13:20:09.7	2.600	0.000	-0.920	-1.100
2020/01/31 13:20:09.8	2.640	-0.010	-0.890	-1.160
2020/01/31 13:20:09.9	2.680	-0.020	-0.860	-1.210
2020/01/31 13:20:10.0	2.710	-0.040	-0.820	-1.250
2020/01/31 13:20:10.1	2.750	-0.050	-0.780	-1.300
2020/01/31 13:20:10.2	2.780	-0.070	-0.730	-1.330
2020/01/31 13:20:10.3	2.810	-0.090	-0.670	-1.370
2020/01/31 13:20:10.4	2.840	-0.110	-0.600	-1.400
2020/01/31 13:20:10.5	2.860	-0.140	-0.530	-1.420
2020/01/31 13:20:10.6	2.880	-0.160	-0.460	-1.440
2020/01/31 13:20:10.7	2.900	-0.190	-0.380	-1.450
2020/01/31 13:20:10.8	2.910	-0.220	-0.300	-1.460
2020/01/31 13:20:10.9	2.930	-0.250	-0.210	-1.460
2020/01/31 13:20:11.0	2.940	-0.280	-0.120	-1.460
2020/01/31 13:20:11.1	2.950	-0.310	-0.020	-1.440
2020/01/31 13:20:11.2	2.950	-0.350	0.070	-1.430
2020/01/31 13:20:11.3	2.950	-0.380	0.170	-1.400
2020/01/31 13:20:11.4	2.950	-0.420	0.270	-1.370
2020/01/31 13:20:11.5	2.950	-0.450	0.360	-1.340
2020/01/31 13:20:11.6	2.960	-0.490	0.460	-1.290
2020/01/31 13:20:11.7	2.940	-0.520	0.550	-1.240
2020/01/31 13:20:11.8	2.930	-0.560	0.640	-1.190
2020/01/31 13:20:11.9	2.910	-0.590	0.720	-1.130
2020/01/31 13:20:12.0	2.890	-0.630	0.800	-1.060
2020/01/31 13:20:12.1	2.870	-0.660	0.870	-1.000
2020/01/31 13:20:12.2	2.840	-0.690	0.940	-0.930
2020/01/31 13:20:12.3	2.810	-0.720	1.000	-0.850
2020/01/31 13:20:12.4	2.780	-0.750	1.050	-0.770
2020/01/31 13:20:12.5	2.750	-0.770	1.090	-0.700
2020/01/31 13:20:12.6	2.710	-0.790	1.120	-0.610
2020/01/31 13:20:12.7	2.680	-0.810	1.140	-0.540
2020/01/31 13:20:12.8	2.640	-0.820	1.150	-0.460
2020/01/31 13:20:12.9	2.610	-0.830	1.150	-0.380
2020/01/31 13:20:13.0	2.570	-0.830	1.140	-0.310
2020/01/31 13:20:13.1	2.540	-0.830	1.120	-0.240
2020/01/31 13:20:13.2	2.500	-0.820	1.090	-0.170
2020/01/31 13:20:13.3	2.470	-0.810	1.050	-0.100
2020/01/31 13:20:13.4	2.440	-0.800	1.000	-0.040
2020/01/31 13:20:13.5	2.400	-0.770	0.940	0.020
2020/01/31 13:20:13.6	2.380	-0.750	0.870	0.080
2020/01/31 13:20:13.7	2.350	-0.710	0.790	0.130
2020/01/31 13:20:13.8	2.330	-0.670	0.700	0.180
2020/01/31 13:20:13.9	2.300	-0.630	0.610	0.230
2020/01/31 13:20:14.0	2.280	-0.580	0.500	0.270
2020/01/31 13:20:14.1	2.260	-0.530	0.400	0.310
2020/01/31 13:20:14.2	2.240	-0.470	0.280	0.340
2020/01/31 13:20:14.3	2.230	-0.410	0.170	0.380
2020/01/31 13:20:14.4	2.210	-0.340	0.050	0.410
2020/01/31 13:20:14.5	2.200	-0.270	-0.080	0.430
2020/01/31 13:20:14.6	2.190	-0.200	-0.200	0.460
2020/01/31 13:20:14.7	2.190	-0.130	-0.320	0.480
2020/01/31 13:20:14.8	2.180	-0.060	-0.440	0.510
2020/01/31 13:20:14.9	2.170	0.020	-0.560	0.520
2020/01/31 13:20:15.0	2.170	0.090	-0.670	0.540
2020/01/31 13:20:15.1	2.170	0.160	-0.780	0.560
2020/01/31 13:20:15.2	2.160	0.230	-0.880	0.570
2020/01/31 13:20:15.3	2.160	0.300	-0.980	0.580
2020/01/31 13:20:15.4	2.160	0.370	-1.060	0.590
2020/01/31 13:20:15.5	2.150	0.430	-1.140	0.600
2020/01/31 13:20:15.6	2.150	0.480	-1.210	0.610
2020/01/31 13:20:15.7	2.150	0.540	-1.270	0.610
2020/01/31 13:20:15.8	2.140	0.580	-1.310	0.610
2020/01/31 13:20:15.9	2.130	0.630	-1.350	0.610
2020/01/31 13:20:16.0	2.120	0.660	-1.380	0.600
2020/01/31 13:20:16.1	2.110	0.700	-1.400	0.590
2020/01/31 13:20:16.2	2.110	0.720	-1.400	0.580
2020/01/31 13:20:16.3	2.100	0.740	-1.400	0.570
2020/01/31 13:20:16.4	2.090	0.750	-1.390	0.550
2020/01/31 13:20:16.5	2.080	0.760	-1.370	0.530
2020/01/31 13:20:16.6	2.070	0.770	-1.340	0.500
2020/01/31 13:20:16.7	2.060	0.760	-1.310	0.470
2020/01/31 13:20:16.8	2.050	0.760	-1.270	0.440
2020/01/31 13:20:16.9	2.040	0.740	-1.220	0.410
2020/01/31 13:20:17.0	2.030	0.730	-1.160	0.380
2020/01/31 13:20:17.1	2.020	0.700	-1.100	0.350
2020/01/31 13:20:17.2	2.010	0.680	-1.040	0.320
2020/01/31 13:20:17.3	2.000	0.650	-0.970	0.280
2020/01/31 13:20:17.4	2.000	0.620	-0.900	0.250
2020/01/31 13:20:17.5	1.990	0.590	-0.830	0.210
2020/01/31 13:20:17.6	1.990	0.550	-0.760	0.170
2020/01/31 13:20:17.7	1.990	0.520	-0.690	0.140
2020/01/31 13:20:17.8	1.990	0.480	-0.620	0.100
2020/01/31 13:20:17.9	2.000	0.450	-0.550	0.060
2020/01/31 13:20:18.0	2.000	0.410	-0.490	0.020
2020/01/31 13:20:18.1	2.010	0.380	-0.430	-0.020
2020/01/31 13:20:18.2	2.020	0.350	-0.370	-0.060
2020/01/31 13:20:18.3	2.030	0.310	-0.310	-0.100
2020/01/31 13:20:18.4	2.050	0.280	-0.260	-0.150
2020/01/31 13:20:18.5	2.070	0.250	-0.220	-0.190
2020/01/31 13:20:18.6	2.080	0.230	-0.180	-0.240
2020/01/31 13:20:18.7	2.100	0.200	-0.140	-0.290
2020/01/31 13:20:18.8	2.120	0.180	-0.100	-0.330
2020/01/31 13:20:18.9	2.150	0.160	-0.080	-0.380
2020/01/31 13:20:19.0	2.170	0.140	-0.050	-0.430
2020/01/31 13:20:19.1	2.200	0.120	-0.030	-0.490
2020/01/31 13:20:19.2	2.220	0.110	-0.010	-0.530
2020/01/31 13:20:19.3	2.250	0.100	-0.000	-0.580
2020/01/31 13:20:19.4	2.270	0.090	0.010	-0.620
2020/01/31 13:20:19.5	2.290	0.080	0.020	-0.670
2020/01/31 13:20:19.6	2.320	0.070	0.020	-0.710
2020/01/31 13:20:19.7	2.340	0.060	0.030	-0.740
2020/01/31 13:20:19.8	2.360	0.060	0.040	-0.770
2020/01/31 13:20:19.9	2.380	0.060	0.040	-0.790
2020/01/31 13:20:20.0	2.390	0.050	0.050	-0.810
2020/01/31 13:20:20.1	2.410	0.050	0.060	-0.830
2020/01/31 13:20:20.2	2.420	0.050	0.070	-0.830
2020/01/31 13:20:20.3	2.430	0.040	0.080	-0.840
2020/01/31 13:20:20.4	2.430	0.040	0.090	-0.830
2020/01/31 13:20:20.5	2.440	0.040	0.100	-0.830
2020/01/31 13:20:20.6	2.440	0.030	0.110	-0.810
2020/01/31 13:20:20.7	2.440	0.020	0.130	-0.800
2020/01/31 13:20:20.8	2.440	0.020	0.150	-0.780
2020/01/31 13:20:20.9	2.440	0.010	0.160	-0.760
2020/01/31 13:20:21.0	2.440	-0.010	0.180	-0.730
2020/01/31 13:20:21.1	2.430	-0.020	0.200	-0.700
2020/01/31 13:20:21.2	2.420	-0.040	0.220	-0.670
2020/01/31 13:20:21.3	2.410	-0.050	0.240	-0.640
2020/01/31 13:20:21.4	2.400	-0.070	0.260	-0.610
2020/01/31 13:20:21.5	2.390	-0.090	0.280	-0.570
2020/01/31 13:20:21.6	2.380	-0.120	0.290	-0.540
2020/01/31 13:20:21.7	2.370	-0.140	0.310	-0.500
2020/01/31 13:20:21.8	2.350	-0.170	0.320	-0.470
2020/01/31 13:20:21.9	2.340	-0.200	0.330	-0.440
2020/01/31 13:20:22.0	2.320	-0.230	0.340	-0.400
2020/01/31 13:20:22.1	2.310	-0.260	0.350	-0.370
2020/01/31 13:20:22.2	2.290	-0.290	0.350	-0.350
2020/01/31 13:20:22.3	2.280	-0.320	0.350	-0.320
2020/01/31 13:20:22.4	2.270	-0.350	0.350	-0.300
2020/01/31 13:20:22.5	2.250	-0.380	0.340	-0.280
2020/01/31 13:20:22.6	2.240	-0.420	0.330	-0.260
2020/01/31 13:20:22.7	2.230	-0.450	0.310	-0.250
2020/01/31 13:20:22.8	2.220	-0.470	0.290	-0.230
2020/01/31 13:20:22.9	2.210	-0.500	0.270	-0.230
2020/01/31 13:20:23.0	2.210	-0.530	0.250	-0.220
2020/01/31 13:20:23.1	2.200	-0.550	0.220	-0.210
2020/01/31 13:20:23.2	2.190	-0.570	0.180	-0.210
2020/01/31 13:20:23.3	2.190	-0.590	0.150	-0.210
2020/01/31 13:20:23.4	2.180	-0.610	0.110	-0.210
2020/01/31 13:20:23.5	2.170	-0.620	0.070	-0.210
2020/01/31 13:20:23.6	2.160	-0.640	0.030	-0.210
2020/01/31 13:20:23.7	2.150	-0.640	-0.020	-0.210
2020/01/31 13:20:23.8	2.150	-0.650	-0.060	-0.220
2020/01/31 13:20:23.9	2.140	-0.650	-0.110	-0.220
2020/01/31 13:20:24.0	2.130	-0.650	-0.150	-0.220
2020/01/31 13:20:24.1	2.120	-0.640	-0.200	-0.220
2020/01/31 13:20:24.2	2.100	-0.640	-0.250	-0.230
2020/01/31 13:20:24.3	2.090	-0.630	-0.290	-0.230
2020/01/31 13:20:24.4	2.080	-0.610	-0.340	-0.240
2020/01/31 13:20:24.5	2.070	-0.590	-0.380	-0.240
2020/01/31 13:20:24.6	2.060	-0.570	-0.430	-0.250
2020/01/31 13:20:24.7	2.050	-0.550	-0.470	-0.260
2020/01/31 13:20:24.8	2.040	-0.520	-0.510	-0.260
2020/01/31 13:20:24.9	2.030	-0.490	-0.550	-0.280
2020/01/31 13:20:25.0	2.010	-0.460	-0.590	-0.290
2020/01/31 13:20:25.1	2.000	-0.420	-0.630	-0.300
2020/01/31 13:20:25.2	2.000	-0.380	-0.670	-0.310
2020/01/31 13:20:25.3	1.990	-0.340	-0.710	-0.330
2020/01/31 13:20:25.4	1.980	-0.300	-0.750	-0.340
2020/01/31 13:20:25.5	1.980	-0.250	-0.780	-0.360
2020/01/31 13:20:25.6	1.980	-0.200	-0.810	-0.380
2020/01/31 13:20:25.7	1.980	-0.150	-0.850	-0.390
2020/01/31 13:20:25.8	1.980	-0.100	-0.880	-0.400
2020/01/31 13:20:25.9	1.980	-0.050	-0.900	-0.410
2020/01/31 13:20:26.0	1.990	0.010	-0.930	-0.420
2020/01/31 13:20:26.1	1.990	0.070	-0.950	-0.430
2020/01/31 13:20:26.2	2.000	0.120	-0.970	-0.430
2020/01/31 13:20:26.3	2.010	0.180	-0.990	-0.440
2020/01/31 13:20:26.4	2.020	0.230	-1.000	-0.430
2020/01/31 13:20:26.5	2.030	0.290	-1.010	-0.430
2020/01/31 13:20:26.6	2.040	0.340	-1.020	-0.420
2020/01/31 13:20:26.7	2.050	0.400	-1.020	-0.410
2020/01/31 13:20:26.8	2.060	0.450	-1.020	-0.400
2020/01/31 13:20:26.9	2.070	0.490	-1.010	-0.380
2020/01/31 13:20:27.0	2.080	0.540	-0.990	-0.360
2020/01/31 13:20:27.1	2.090	0.580	-0.970	-0.330
2020/01/31 13:20:27.2	2.090	0.620	-0.950	-0.310
2020/01/31 13:20:27.3	2.100	0.650	-0.920	-0.280
2020/01/31 13:20:27.4	2.100	0.680	-0.880	-0.250
2020/01/31 13:20:27.5	2.100	0.700	-0.840	-0.220
2020/01/31 13:20:27.6	2.110	0.720	-0.800	-0.180
2020/01/31 13:20:27.7	2.110	0.730	-0.750	-0.150
2020/01/31 13:20:27.8	2.110	0.740	-0.690	-0.110
2020/01/31 13:20:27.9	2.100	0.750	-0.630	-0.080
2020/01/31 13:20:28.0	2.100	0.740	-0.570	-0.040
2020/01/31 13:20:28.1	2.090	0.740	-0.510	-0.000
2020/01/31 13:20:28.2	2.080	0.730	-0.440	0.040
2020/01/31 13:20:28.3	2.070	0.710	-0.370	0.080
2020/01/31 13:20:28.4	2.060	0.690	-0.300	0.120
2020/01/31 13:20:28.5	2.050	0.660	-0.220	0.160
2020/01/31 13:20:28.6	2.040	0.630	-0.150	0.200
2020/01/31 13:20:28.7	2.020	0.600	-0.080	0.240
2020/01/31 13:20:28.8	2.010	0.560	-0.010	0.280
2020/01/31 13:20:28.9	2.000	0.520	0.060	0.320
2020/01/31 13:20:29.0	1.990	0.480	0.130	0.350
2020/01/31 13:20:29.1	1.980	0.430	0.190	0.390
2020/01/31 13:20:29.2	1.970	0.390	0.250	0.420
2020/01/31 13:20:29.3	1.960	0.340	0.310	0.450
2020/01/31 13:20:29.4	1.950	0.290	0.360	0.480
2020/01/31 13:20:29.5	1.940	0.240	0.410	0.510
2020/01/31 13:20:29.6	1.950	0.190	0.450	0.530
2020/01/31 13:20:29.7	1.950	0.140	0.490	0.550
2020/01/31 13:20:29.8	1.940	0.090	0.520	0.570
2020/01/31 13:20:29.9	1.940	0.040	0.540	0.590
2020/01/31 13:20:30.0	1.940	-0.010	0.560	0.600
2020/01/31 13:20:30.1	1.940	-0.050	0.580	0.610
2020/01/31 13:20:30.2	1.940	-0.100	0.590	0.610
2020/01/31 13:20:30.3	1.940	-0.140	0.590	0.610
2020/01/31 13:20:30.4	1.930	-0.180	0.590	0.610
2020/01/31 13:20:30.5	1.930	-0.220	0.580	0.610
2020/01/31 13:20:30.6	1.920	-0.250	0.570	0.600
2020/01/31 13:20:30.7	1.910	-0.280	0.550	0.590
2020/01/31 13:20:30.8	1.910	-0.310	0.540	0.580
2020/01/31 13:20:30.9	1.900	-0.340	0.510	0.570
2020/01/31 13:20:31.0	1.890	-0.360	0.490	0.550
2020/01/31 13:20:31.1	1.880	-0.380	0.460	0.530
2020/01/31 13:20:31.2	1.870	-0.400	0.430	0.520
2020/01/31 13:20:31.3	1.860	-0.420	0.390	0.500
2020/01/31 13:20:31.4	1.850	-0.430	0.360	0.480
2020/01/31 13:20:31.5	1.840	-0.440	0.320	0.460
2020/01/31 13:20:31.6	1.830	-0.440	0.280	0.430
2020/01/31 13:20:31.7	1.820	-0.440	0.240	0.410
2020/01/31 13:20:31.8	1.800	-0.440	0.200	0.390
2020/01/31 13:20:31.9	1.790	-0.430	0.160	0.360
2020/01/31 13:20:32.0	1.790	-0.420	0.110	0.340
2020/01/31 13:20:32.1	1.780	-0.410	0.070	0.310
2020/01/31 13:20:32.2	1.770	-0.400	0.020	0.280
2020/01/31 13:20:32.3	1.770	-0.380	-0.020	0.250
2020/01/31 13:20:32.4	1.770	-0.360	-0.070	0.220
2020/01/31 13:20:32.5	1.770	-0.340	-0.120	0.180
2020/01/31 13:20:32.6	1.760	-0.310	-0.170	0.150
2020/01/31 13:20:32.7	1.770	-0.290	-0.220	0.110
2020/01/31 13:20:32.8	1.780	-0.260	-0.260	0.070
2020/01/31 13:20:32.9	1.790	-0.220	-0.310	0.030
2020/01/31 13:20:33.0	1.800	-0.190	-0.360	-0.010
2020/01/31 13:20:33.1	1.820	-0.160	-0.410	-0.050
2020/01/31 13:20:33.2	1.830	-0.120	-0.450	-0.080
2020/01/31 13:20:33.3	1.840	-0.090	-0.500	-0.120
2020/01/31 13:20:33.4	1.850	-0.050	-0.540	-0.150
2020/01/31 13:20:33.5	1.860	-0.010	-0.580	-0.180
2020/01/31 13:20:33.6	1.870	0.030	-0.620	-0.210
2020/01/31 13:20:33.7	1.880	0.060	-0.650	-0.240
2020/01/31 13:20:33.8	1.880	0.100	-0.680	-0.260
2020/01/31 13:20:33.9	1.880	0.130	-0.710	-0.280
2020/01/31 13:20:34.0	1.880	0.160	-0.730	-0.300
2020/01/31 13:20:34.1	1.880	0.190	-0.750	-0.310
2020/01/31 13:20:34.2	1.870	0.220	-0.770	-0.330
2020/01/31 13:20:34.3	1.860	0.250	-0.780	-0.340
2020/01/31 13:20:34.4	1.850	0.270	-0.780	-0.350
2020/01/31 13:20:34.5	1.840	0.290	-0.780	-0.350
2020/01/31 13:20:34.6	1.840	0.300	-0.790	-0.350
2020/01/31 13:20:34.7	1.820	0.320	-0.780	-0.360
2020/01/31 13:20:34.8	1.810	0.330	-0.770	-0.360
2020/01/31 13:20:34.9	1.790	0.330	-0.750	-0.370
2020/01/31 13:20:35.0	1.770	0.340	-0.740	-0.370
2020/01/31 13:20:35.1	1.760	0.340	-0.710	-0.370
2020/01/31 13:20:35.2	1.740	0.330	-0.690	-0.370
2020/01/31 13:20:35.3	1.720	0.320	-0.670	-0.380
2020/01/31 13:20:35.4	1.710	0.310	-0.640	-0.380
2020/01/31 13:20:35.5	1.700	0.300	-0.610	-0.390
2020/01/31 13:20:35.6	1.700	0.290	-0.590	-0.390
2020/01/31 13:20:35.7	1.700	0.270	-0.560	-0.400
2020/01/31 13:20:35.8	1.690	0.250	-0.530	-0.410
2020/01/31 13:20:35.9	1.690	0.220	-0.510	-0.420
2020/01/31 13:20:36.0	1.690	0.200	-0.480	-0.440
2020/01/31 13:20:36.1	1.690	0.170	-0.460	-0.460
2020/01/31 13:20:36.2	1.700	0.150	-0.440	-0.480
2020/01/31 13:20:36.3	1.710	0.120	-0.410	-0.500
2020/01/31 13:20:36.4	1.720	0.090	-0.400	-0.520
2020/01/31 13:20:36.5	1.740	0.060	-0.380	-0.540
2020/01/31 13:20:36.6	1.760	0.030	-0.370	-0.570
2020/01/31 13:20:36.7	1.780	0.000	-0.350	-0.590
2020/01/31 13:20:36.8	1.800	-0.020	-0.340	-0.620
2020/01/31 13:20:36.9	1.820	-0.050	-0.330	-0.640
2020/01/31 13:20:37.0	1.850	-0.080	-0.310	-0.670
2020/01/31 13:20:37.1	1.880	-0.100	-0.300	-0.700
2020/01/31 13:20:37.2	1.900	-0.130	-0.290	-0.730
2020/01/31 13:20:37.3	1.930	-0.150	-0.280	-0.750
2020/01/31 13:20:37.4	1.960	-0.180	-0.270	-0.780
2020/01/31 13:20:37.5	1.990	-0.200	-0.260	-0.800
2020/01/31 13:20:37.6	2.020	-0.220	-0.250	-0.830
2020/01/31 13:20:37.7	2.050	-0.240	-0.230	-0.850
2020/01/31 13:20:37.8	2.070	-0.260	-0.220	-0.880
2020/01/31 13:20:37.9	2.100	-0.280	-0.200	-0.900
2020/01/31 13:20:38.0	2.120	-0.300	-0.190	-0.920
2020/01/31 13:20:38.1	2.140	-0.320	-0.170	-0.940
2020/01/31 13:20:38.2	2.160	-0.330	-0.150	-0.960
2020/01/31 13:20:38.3	2.170	-0.350	-0.130	-0.980
2020/01/31 13:20:38.4	2.190	-0.360	-0.100	-0.990
2020/01/31 13:20:38.5	2.200	-0.370	-0.080	-1.000
2020/01/31 13:20:38.6	2.200	-0.390	-0.060	-1.010
2020/01/31 13:20:38.7	2.210	-0.400	-0.030	-1.010
2020/01/31 13:20:38.8	2.210	-0.410	-0.010	-1.020
2020/01/31 13:20:38.9	2.200	-0.420	0.020	-1.020
2020/01/31 13:20:39.0	2.190	-0.430	0.040	-1.010
2020/01/31 13:20:39.1	2.180	-0.440	0.070	-1.000
2020/01/31 13:20:39.2	2.160	-0.450	0.090	-0.990
2020/01/31 13:20:39.3	2.140	-0.450	0.120	-0.970
2020/01/31 13:20:39.4	2.110	-0.460	0.140	-0.950
2020/01/31 13:20:39.5	2.080	-0.470	0.160	-0.930
2020/01/31 13:20:39.6	2.050	-0.470	0.180	-0.900
2020/01/31 13:20:39.7	2.010	-0.470	0.200	-0.870
2020/01/31 13:20:39.8	1.970	-0.470	0.220	-0.840
2020/01/31 13:20:39.9	1.930	-0.470	0.230	-0.800
2020/01/31 13:20:40.0	1.890	-0.470	0.240	-0.770
2020/01/31 13:20:40.1	1.850	-0.460	0.250	-0.730
2020/01/31 13:20:40.2	1.810	-0.460	0.250	-0.700
2020/01/31 13:20:40.3	1.770	-0.450	0.250	-0.660
2020/01/31 13:20:40.4	1.720	-0.430	0.250	-0.620
2020/01/31 13:20:40.5	1.680	-0.420	0.250	-0.580
2020/01/31 13:20:40.6	1.650	-0.400	0.240	-0.530
2020/01/31 13:20:40.7	1.610	-0.380	0.230	-0.490
2020/01/31 13:20:40.8	1.570	-0.350	0.210	-0.450
2020/01/31 13:20:40.9	1.540	-0.330	0.190	-0.400
2020/01/31 13:20:41.0	1.500	-0.290	0.170	-0.360
2020/01/31 13:20:41.1	1.470	-0.260	0.140	-0.310
2020/01/31 13:20:41.2	1.440	-0.220	0.110	-0.270
2020/01/31 13:20:41.3	1.410	-0.180	0.080	-0.220
2020/01/31 13:20:41.4	1.390	-0.130	0.050	-0.180
2020/01/31 13:20:41.5	1.360	-0.080	0.010	-0.130
2020/01/31 13:20:41.6	1.330	-0.030	-0.030	-0.080
2020/01/31 13:20:41.7	1.310	0.020	-0.070	-0.040
2020/01/31 13:20:41.8	1.290	0.080	-0.110	0.010
2020/01/31 13:20:41.9	1.270	0.140	-0.140	0.060
2020/01/31 13:20:42.0	1.250	0.200	-0.180	0.110
2020/01/31 13:20:42.1	1.240	0.260	-0.220	0.160
2020/01/31 13:20:42.2	1.220	0.320	-0.250	0.210
2020/01/31 13:20:42.3	1.210	0.380	-0.290	0.260
2020/01/31 13:20:42.4	1.200	0.440	-0.320	0.320
2020/01/31 13:20:42.5	1.190	0.500	-0.350	0.370
2020/01/31 13:20:42.6	1.190	0.560	-0.380	0.430
2020/01/31 13:20:42.7	1.180	0.620	-0.410	0.480
2020/01/31 13:20:42.8	1.170	0.670	-0.440	0.530
2020/01/31 13:20:42.9	1.170	0.720	-0.460	0.580
2020/01/31 13:20:43.0	1.170	0.770	-0.480	0.630
2020/01/31 13:20:43.1	1.170	0.820	-0.500	0.680
2020/01/31 13:20:43.2	1.170	0.860	-0.520	0.730
2020/01/31 13:20:43.3	1.170	0.900	-0.540	0.770
2020/01/31 13:20:43.4	1.170	0.940	-0.550	0.810
2020/01/31 13:20:43.5	1.180	0.960	-0.570	0.850
2020/01/31 13:20:43.6	1.180	0.990	-0.580	0.880
2020/01/31 13:20:43.7	1.190	1.010	-0.590	0.920
2020/01/31 13:20:43.8	1.200	1.020	-0.600	0.940
2020/01/31 13:20:43.9	1.210	1.030	-0.600	0.970
2020/01/31 13:20:44.0	1.220	1.030	-0.610	0.980
2020/01/31 13:20:44.1	1.230	1.030	-0.610	1.000
2020/01/31 13:20:44.2	1.250	1.020	-0.620	1.010
2020/01/31 13:20:44.3	1.260	1.000	-0.620	1.020
2020/01/31 13:20:44.4	1.280	0.980	-0.620	1.020
2020/01/31 13:20:44.5	1.290	0.950	-0.620	1.020
2020/01/31 13:20:44.6	1.300	0.920	-0.610	1.010
2020/01/31 13:20:44.7	1.310	0.880	-0.600	1.000
2020/01/31 13:20:44.8	1.330	0.830	-0.590	0.980
2020/01/31 13:20:44.9	1.350	0.780	-0.580	0.960
2020/01/31 13:20:45.0	1.370	0.730	-0.570	0.940
2020/01/31 13:20:45.1	1.380	0.670	-0.550	0.910
2020/01/31 13:20:45.2	1.400	0.600	-0.530	0.870
2020/01/31 13:20:45.3	1.420	0.540	-0.510	0.840
2020/01/31 13:20:45.4	1.440	0.460	-0.480	0.800
2020/01/31 13:20:45.5	1.450	0.390	-0.460	0.760
2020/01/31 13:20:45.6	1.470	0.310	-0.430	0.710
2020/01/31 13:20:45.7	1.480	0.230	-0.400	0.660
2020/01/31 13:20:45.8	1.500	0.150	-0.360	0.610
2020/01/31 13:20:45.9	1.520	0.070	-0.330	0.550
2020/01/31 13:20:46.0	1.530	-0.010	-0.290	0.490
2020/01/31 13:20:46.1	1.550	-0.100	-0.260	0.430
2020/01/31 13:20:46.2	1.560	-0.180	-0.220	0.370
2020/01/31 13:20:46.3	1.570	-0.260	-0.180	0.310
2020/01/31 13:20:46.4	1.580	-0.340	-0.150	0.250
2020/01/31 13:20:46.5	1.600	-0.420	-0.110	0.180
2020/01/31 13:20:46.6	1.600	-0.490	-0.080	0.110
2020/01/31 13:20:46.7	1.610	-0.570	-0.040	0.050
2020/01/31 13:20:46.8	1.620	-0.630	-0.010	-0.020
2020/01/31 13:20:46.9	1.620	-0.700	0.030	-0.090
2020/01/31 13:20:47.0	1.620	-0.760	0.060	-0.160
2020/01/31 13:20:47.1	1.620	-0.820	0.090	-0.220
2020/01/31 13:20:47.2	1.620	-0.870	0.110	-0.290
2020/01/31 13:20:47.3	1.620	-0.910	0.140	-0.360
2020/01/31 13:20:47.4	1.610	-0.950	0.160	-0.420
2020/01/31 13:20:47.5	1.600	-0.990	0.180	-0.480
2020/01/31 13:20:47.6	1.590	-1.020	0.190	-0.550
2020/01/31 13:20:47.7	1.580	-1.040	0.210	-0.600
2020/01/31 13:20:47.8	1.560	-1.060	0.220	-0.660
2020/01/31 13:20:47.9	1.540	-1.070	0.230	-0.710
2020/01/31 13:20:48.0	1.520	-1.070	0.230	-0.760
2020/01/31 13:20:48.1	1.490	-1.070	0.240	-0.800
2020/01/31 13:20:48.2	1.470	-1.060	0.240	-0.840
2020/01/31 13:20:48.3	1.440	-1.050	0.240	-0.880
2020/01/31 13:20:48.4	1.410	-1.030	0.230	-0.910
2020/01/31 13:20:48.5	1.390	-1.000	0.220	-0.940
2020/01/31 13:20:48.6	1.380	-0.970	0.210	-0.960
2020/01/31 13:20:48.7	1.350	-0.930	0.190	-0.980
2020/01/31 13:20:48.8	1.320	-0.890	0.170	-0.990
2020/01/31 13:20:48.9	1.290	-0.850	0.150	-1.000
2020/01/31 13:20:49.0	1.260	-0.800	0.120	-1.010
2020/01/31 13:20:49.1	1.230	-0.750	0.090	-1.020
2020/01/31 13:20:49.2	1.210	-0.700	0.060	-1.020
2020/01/31 13:20:49.3	1.180	-0.640	0.020	-1.020
2020/01/31 13:20:49.4	1.160	-0.580	-0.020	-1.020
2020/01/31 13:20:49.5	1.130	-0.520	-0.060	-1.020
2020/01/31 13:20:49.6	1.130	-0.460	-0.110	-1.020
2020/01/31 13:20:49.7	1.110	-0.390	-0.160	-1.020
2020/01/31 13:20:49.8	1.100	-0.330	-0.210	-1.010
2020/01/31 13:20:49.9	1.080	-0.260	-0.260	-1.010
2020/01/31 13:20:50.0	1.080	-0.200	-0.320	-1.010
2020/01/31 13:20:50.1	1.070	-0.130	-0.370	-1.000
2020/01/31 13:20:50.2	1.070	-0.070	-0.430	-1.000
2020/01/31 13:20:50.3	1.080	-0.010	-0.490	-0.990
2020/01/31 13:20:50.4	1.080	0.050	-0.550	-0.980
2020/01/31 13:20:50.5	1.090	0.110	-0.600	-0.980
2020/01/31 13:20:50.6	1.110	0.170	-0.660	-0.970
2020/01/31 13:20:50.7	1.130	0.230	-0.710	-0.960
2020/01/31 13:20:50.8	1.160	0.280	-0.760	-0.950
2020/01/31 13:20:50.9	1.180	0.330	-0.810	-0.940
2020/01/31 13:20:51.0	1.210	0.380	-0.850	-0.930
2020/01/31 13:20:51.1	1.240	0.420	-0.890	-0.910
2020/01/31 13:20:51.2	1.280	0.460	-0.920	-0.900
2020/01/31 13:20:51.3	1.310	0.500	-0.950	-0.880
2020/01/31 13:20:51.4	1.350	0.530	-0.960	-0.860
2020/01/31 13:20:51.5	1.380	0.560	-0.980	-0.840
2020/01/31 13:20:51.6	1.420	0.580	-0.990	-0.820
2020/01/31 13:20:51.7	1.450	0.600	-0.980	-0.790
2020/01/31 13:20:51.8	1.490	0.610	-0.980	-0.760
2020/01/31 13:20:51.9	1.520	0.620	-0.960	-0.740
2020/01/31 13:20:52.0	1.560	0.630	-0.940	-0.700
2020/01/31 13:20:52.1	1.590	0.630	-0.910	-0.670
2020/01/31 13:20:52.2	1.620	0.620	-0.870	-0.640
2020/01/31 13:20:52.3	1.650	0.620	-0.830	-0.600
2020/01/31 13:20:52.4	1.680	0.600	-0.780	-0.570
2020/01/31 13:20:52.5	1.700	0.590	-0.720	-0.530
2020/01/31 13:20:52.6	1.730	0.570	-0.670	-0.480
2020/01/31 13:20:52.7	1.750	0.550	-0.600	-0.440
2020/01/31 13:20:52.8	1.760	0.530	-0.530	-0.390
2020/01/31 13:20:52.9	1.780	0.510	-0.460	-0.340
2020/01/31 13:20:53.0	1.790	0.480	-0.380	-0.290
2020/01/31 13:20:53.1	1.800	0.450	-0.310	-0.230
2020/01/31 13:20:53.2	1.800	0.420	-0.230	-0.180
2020/01/31 13:20:53.3	1.800	0.390	-0.140	-0.110
2020/01/31 13:20:53.4	1.800	0.360	-0.060	-0.050
2020/01/31 13:20:53.5	1.800	0.320	0.020	0.020
2020/01/31 13:20:53.6	1.780	0.290	0.100	0.090
2020/01/31 13:20:53.7	1.770	0.260	0.180	0.170
2020/01/31 13:20:53.8	1.750	0.220	0.260	0.240
2020/01/31 13:20:53.9	1.730	0.190	0.340	0.310
2020/01/31 13:20:54.0	1.710	0.160	0.410	0.390
2020/01/31 13:20:54.1	1.680	0.130	0.480	0.460
2020/01/31 13:20:54.2	1.650	0.100	0.540	0.530
2020/01/31 13:20:54.3	1.620	0.070	0.600	0.610
2020/01/31 13:20:54.4	1.590	0.050	0.650	0.680
2020/01/31 13:20:54.5	1.560	0.020	0.690	0.750
2020/01/31 13:20:54.6	1.520	0.000	0.730	0.810
2020/01/31 13:20:54.7	1.490	-0.020	0.760	0.870
2020/01/31 13:20:54.8	1.450	-0.040	0.780	0.930
2020/01/31 13:20:54.9	1.410	-0.050	0.800	0.980
2020/01/31 13:20:55.0	1.370	-0.060	0.800	1.030
2020/01/31 13:20:55.1	1.340	-0.070	0.800	1.080
2020/01/31 13:20:55.2	1.300	-0.080	0.790	1.120
2020/01/31 13:20:55.3	1.270	-0.080	0.780	1.150
2020/01/31 13:20:55.4	1.230	-0.090	0.750	1.180
2020/01/31 13:20:55.5	1.200	-0.090	0.720	1.210
2020/01/31 13:20:55.6	1.170	-0.080	0.680	1.220
2020/01/31 13:20:55.7	1.140	-0.080	0.630	1.240
2020/01/31 13:20:55.8	1.120	-0.070	0.580	1.250
2020/01/31 13:20:55.9	1.090	-0.060	0.530	1.250
2020/01/31 13:20:56.0	1.070	-0.050	0.460	1.250
2020/01/31 13:20:56.1	1.050	-0.040	0.390	1.250
2020/01/31 13:20:56.2	1.040	-0.020	0.320	1.240
2020/01/31 13:20:56.3	1.020	-0.000	0.250	1.220
2020/01/31 13:20:56.4	1.010	0.010	0.170	1.210
2020/01/31 13:20:56.5	0.990	0.030	0.090	1.190
2020/01/31 13:20:56.6	0.960	0.050	0.010	1.160
2020/01/31 13:20:56.7	0.960	0.070	-0.070	1.130
2020/01/31 13:20:56.8	0.950	0.090	-0.150	1.100
2020/01/31 13:20:56.9	0.940	0.110	-0.230	1.070
2020/01/31 13:20:57.0	0.940	0.130	-0.310	1.030
2020/01/31 13:20:57.1	0.930	0.150	-0.390	0.990
2020/01/31 13:20:57.2	0.930	0.180	-0.470	0.950
2020/01/31 13:20:57.3	0.940	0.200	-0.540	0.900
2020/01/31 13:20:57.4	0.940	0.220	-0.620	0.850
2020/01/31 13:20:57.5	0.950	0.230	-0.680	0.800
2020/01/31 13:20:57.6	0.940	0.250	-0.750	0.730
2020/01/31 13:20:57.7	0.960	0.270	-0.810	0.670
2020/01/31 13:20:57.8	0.970	0.280	-0.870	0.610
2020/01/31 13:20:57.9	0.990	0.300	-0.920	0.540
2020/01/31 13:20:58.0	1.010	0.310	-0.970	0.470
2020/01/31 13:20:58.1	1.040	0.320	-1.020	0.400
2020/01/31 13:20:58.2	1.060	0.330	-1.060	0.320
2020/01/31 13:20:58.3	1.090	0.330	-1.090	0.250
2020/01/31 13:20:58.4	1.120	0.330	-1.130	0.170
2020/01/31 13:20:58.5	1.150	0.330	-1.150	0.090
2020/01/31 13:20:58.6	1.180	0.330	-1.170	0.020
2020/01/31 13:20:58.7	1.210	0.330	-1.190	-0.060
2020/01/31 13:20:58.8	1.240	0.320	-1.190	-0.140
2020/01/31 13:20:58.9	1.270	0.310	-1.200	-0.210
2020/01/31 13:20:59.0	1.300	0.290	-1.190	-0.290
2020/01/31 13:20:59.1	1.320	0.270	-1.180	-0.360
2020/01/31 13:20:59.2	1.350	0.250	-1.170	-0.430
2020/01/31 13:20:59.3	1.370	0.230	-1.140	-0.500
2020/01/31 13:20:59.4	1.390	0.200	-1.120	-0.570
2020/01/31 13:20:59.5	1.410	0.170	-1.080	-0.640
2020/01/31 13:20:59.6	1.440	0.130	-1.050	-0.700
2020/01/31 13:20:59.7	1.460	0.100	-1.000	-0.770
2020/01/31 13:20:59.8	1.480	0.060	-0.960	-0.830
2020/01/31 13:20:59.9	1.490	0.010	-0.910	-0.890
2020/01/31 13:21:00.0	1.510	-0.030	-0.850	-0.950
2020/01/31 13:21:00.1	1.530	-0.080	-0.790	-1.000
2020/01/31 13:21:00.2	1.540	-0.130	-0.730	-1.060
2020/01/31 13:21:00.3	1.560	-0.180	-0.670	-1.110
2020/01/31 13:21:00.4	1.570	-0.230	-0.610	-1.160
2020/01/31 13:21:00.5	1.590	-0.280	-0.540	-1.210
2020/01/31 13:21:00.6	1.600	-0.330	-0.480	-1.260
2020/01/31 13:21:00.7	1.620	-0.380	-0.410	-1.310
2020/01/31 13:21:00.8	1.650	-0.430	-0.350	-1.350
2020/01/31 13:21:00.9	1.670	-0.480	-0.290	-1.400
2020/01/31 13:21:01.0	1.690	-0.520	-0.230	-1.440
2020/01/31 13:21:01.1	1.720	-0.570	-0.180	-1.480
2020/01/31 13:21:01.2	1.750	-0.610	-0.120	-1.530
2020/01/31 13:21:01.3	1.780	-0.650	-0.080	-1.570
2020/01/31 13:21:01.4	1.810	-0.680	-0.030	-1.610
2020/01/31 13:21:01.5	1.840	-0.710	0.010	-1.650
2020/01/31 13:21:01.6	1.880	-0.740	0.050	-1.690
2020/01/31 13:21:01.7	1.910	-0.770	0.080	-1.730
2020/01/31 13:21:01.8	1.950	-0.790	0.110	-1.770
2020/01/31 13:21:01.9	1.980	-0.810	0.140	-1.810
2020/01/31 13:21:02.0	2.010	-0.820	0.160	-1.840
2020/01/31 13:21:02.1	2.040	-0.830	0.180	-1.870
2020/01/31 13:21:02.2	2.070	-0.840	0.190	-1.900
2020/01/31 13:21:02.3	2.090	-0.840	0.200	-1.930
2020/01/31 13:21:02.4	2.120	-0.830	0.210	-1.950
2020/01/31 13:21:02.5	2.140	-0.830	0.220	-1.970
2020/01/31 13:21:02.6	2.160	-0.820	0.230	-1.970
2020/01/31 13:21:02.7	2.170	-0.800	0.230	-1.980
2020/01/31 13:21:02.8	2.170	-0.780	0.230	-1.980
2020/01/31 13:21:02.9	2.170	-0.760	0.240	-1.970
2020/01/31 13:21:03.0	2.160	-0.730	0.240	-1.950
2020/01/31 13:21:03.1	2.150	-0.700	0.240	-1.930
2020/01/31 13:21:03.2	2.130	-0.670	0.240	-1.890
2020/01/31 13:21:03.3	2.110	-0.630	0.250	-1.860
2020/01/31 13:21:03.4	2.080	-0.590	0.250	-1.810
2020/01/31 13:21:03.5	2.050	-0.550	0.250	-1.760
2020/01/31 13:21:03.6	2.010	-0.510	0.250	-1.690
2020/01/31 13:21:03.7	1.970	-0.460	0.260	-1.620
2020/01/31 13:21:03.8	1.930	-0.410	0.270	-1.550
2020/01/31 13:21:03.9	1.880	-0.360	0.270	-1.470
2020/01/31 13:21:04.0	1.830	-0.310	0.280	-1.380
2020/01/31 13:21:04.1	1.780	-0.250	0.280	-1.290
2020/01/31 13:21:04.2	1.730	-0.200	0.280	-1.200
2020/01/31 13:21:04.3	1.670	-0.140	0.290	-1.100
2020/01/31 13:21:04.4	1.620	-0.080	0.290	-0.990
2020/01/31 13:21:04.5	1.560	-0.030	0.290	-0.890
2020/01/31 13:21:04.6	1.520	0.030	0.280	-0.770
2020/01/31 13:21:04.7	1.460	0.090	0.280	-0.660
2020/01/31 13:21:04.8	1.410	0.150	0.270	-0.550
2020/01/31 13:21:04.9	1.360	0.210	0.260	-0.440
2020/01/31 13:21:05.0	1.310	0.270	0.240	-0.330
2020/01/31 13:21:05.1	1.260	0.330	0.220	-0.220
2020/01/31 13:21:05.2	1.220	0.390	0.200	-0.120
2020/01/31 13:21:05.3	1.180	0.450	0.170	-0.010
2020/01/31 13:21:05.4	1.140	0.510	0.140	0.090
2020/01/31 13:21:05.5	1.100	0.570	0.110	0.190
2020/01/31 13:21:05.6	1.080	0.620	0.070	0.300
2020/01/31 13:21:05.7	1.050	0.670	0.030	0.390
2020/01/31 13:21:05.8	1.020	0.730	-0.010	0.480
2020/01/31 13:21:05.9	1.000	0.780	-0.060	0.570
2020/01/31 13:21:06.0	0.980	0.820	-0.100	0.650
2020/01/31 13:21:06.1	0.960	0.870	-0.150	0.730
2020/01/31 13:21:06.2	0.950	0.910	-0.200	0.800
2020/01/31 13:21:06.3	0.940	0.950	-0.250	0.870
2020/01/31 13:21:06.4	0.930	0.980	-0.300	0.940
2020/01/31 13:21:06.5	0.930	1.010	-0.360	1.000
2020/01/31 13:21:06.6	0.930	1.040	-0.410	1.060
2020/01/31 13:21:06.7	0.930	1.060	-0.460	1.110
2020/01/31 13:21:06.8	0.940	1.070	-0.500	1.160
2020/01/31 13:21:06.9	0.950	1.090	-0.550	1.200
2020/01/31 13:21:07.0	0.960	1.090	-0.590	1.230
2020/01/31 13:21:07.1	0.970	1.090	-0.630	1.270
2020/01/31 13:21:07.2	0.980	1.090	-0.670	1.290
2020/01/31 13:21:07.3	1.000	1.080	-0.700	1.310
2020/01/31 13:21:07.4	1.010	1.060	-0.720	1.320
2020/01/31 13:21:07.5	1.030	1.040	-0.740	1.330
2020/01/31 13:21:07.6	1.050	1.010	-0.760	1.340
2020/01/31 13:21:07.7	1.060	0.980	-0.770	1.340
2020/01/31 13:21:07.8	1.080	0.940	-0.780	1.330
2020/01/31 13:21:07.9	1.090	0.900	-0.780	1.320
2020/01/31 13:21:08.0	1.110	0.850	-0.770	1.310
2020/01/31 13:21:08.1	1.120	0.790	-0.760	1.290
2020/01/31 13:21:08.2	1.130	0.730	-0.740	1.260
2020/01/31 13:21:08.3	1.140	0.670	-0.720	1.230
2020/01/31 13:21:08.4	1.150	0.600	-0.690	1.200
2020/01/31 13:21:08.5	1.160	0.530	-0.660	1.170
2020/01/31 13:21:08.6	1.160	0.450	-0.630	1.130
2020/01/31 13:21:08.7	1.160	0.380	-0.590	1.090
2020/01/31 13:21:08.8	1.170	0.300	-0.550	1.050
2020/01/31 13:21:08.9	1.170	0.220	-0.510	1.000
2020/01/31 13:21:09.0	1.170	0.130	-0.470	0.960
2020/01/31 13:21:09.1	1.170	0.050	-0.420	0.910
2020/01/31 13:21:09.2	1.170	-0.030	-0.380	0.850
2020/01/31 13:21:09.3	1.180	-0.120	-0.330	0.800
2020/01/31 13:21:09.4	1.180	-0.200	-0.290	0.740
2020/01/31 13:21:09.5	1.180	-0.280	-0.250	0.680
2020/01/31 13:21:09.6	1.200	-0.350	-0.210	0.610
2020/01/31 13:21:09.7	1.210	-0.430	-0.180	0.540
2020/01/31 13:21:09.8	1.220	-0.500	-0.150	0.460
2020/01/31 13:21:09.9	1.230	-0.570	-0.120	0.390
2020/01/31 13:21:10.0	1.250	-0.630	-0.100	0.310
2020/01/31 13:21:10.1	1.260	-0.690	-0.080	0.220
2020/01/31 13:21:10.2	1.280	-0.740	-0.070	0.130
2020/01/31 13:21:10.3	1.310	-0.790	-0.070	0.040
2020/01/31 13:21:10.4	1.330	-0.830	-0.060	-0.050
2020/01/31 13:21:10.5	1.350	-0.870	-0.060	-0.150
2020/01/31 13:21:10.6	1.390	-0.900	-0.070	-0.250
2020/01/31 13:21:10.7	1.420	-0.930	-0.080	-0.340
2020/01/31 13:21:10.8	1.450	-0.950	-0.090	-0.440
2020/01/31 13:21:10.9	1.470	-0.970	-0.110	-0.540
2020/01/31 13:21:11.0	1.500	-0.980	-0.120	-0.640
2020/01/31 13:21:11.1	1.530	-0.990	-0.140	-0.740
2020/01/31 13:21:11.2	1.560	-0.990	-0.160	-0.830
2020/01/31 13:21:11.3	1.590	-0.990	-0.180	-0.930
2020/01/31 13:21:11.4	1.620	-0.990	-0.200	-1.020
2020/01/31 13:21:11.5	1.640	-0.980	-0.220	-1.110
2020/01/31 13:21:11.6	1.650	-0.970	-0.240	-1.200
2020/01/31 13:21:11.7	1.680	-0.950	-0.260	-1.280
2020/01/31 13:21:11.8	1.700	-0.930	-0.270	-1.360
2020/01/31 13:21:11.9	1.720	-0.910	-0.290	-1.430
2020/01/31 13:21:12.0	1.740	-0.890	-0.300	-1.500
2020/01/31 13:21:12.1	1.750	-0.860	-0.310	-1.560
2020/01/31 13:21:12.2	1.770	-0.830	-0.320	-1.620
2020/01/31 13:21:12.3	1.780	-0.800	-0.320	-1.670
2020/01/31 13:21:12.4	1.790	-0.770	-0.320	-1.720
2020/01/31 13:21:12.5	1.800	-0.740	-0.320	-1.760
2020/01/31 13:21:12.6	1.810	-0.700	-0.320	-1.790
2020/01/31 13:21:12.7	1.810	-0.670	-0.310	-1.820
2020/01/31 13:21:12.8	1.820	-0.630	-0.310	-1.840
2020/01/31 13:21:12.9	1.820	-0.590	-0.300	-1.860
2020/01/31 13:21:13.0	1.810	-0.550	-0.290	-1.870
2020/01/31 13:21:13.1	1.810	-0.510	-0.280	-1.870
2020/01/31 13:21:13.2	1.810	-0.460	-0.260	-1.870
2020/01/31 13:21:13.3	1.800	-0.420	-0.250	-1.860
2020/01/31 13:21:13.4	1.790	-0.380	-0.240	-1.850
2020/01/31 13:21:13.5	1.780	-0.330	-0.230	-1.830
2020/01/31 13:21:13.6	1.780	-0.290	-0.220	-1.800
2020/01/31 13:21:13.7	1.770	-0.240	-0.210	-1.780
2020/01/31 13:21:13.8	1.750	-0.190	-0.200	-1.750
2020/01/31 13:21:13.9	1.740	-0.140	-0.190	-1.710
2020/01/31 13:21:14.0	1.730	-0.100	-0.180	-1.670
2020/01/31 13:21:14.1	1.710	-0.050	-0.180	-1.630
2020/01/31 13:21:14.2	1.700	0.000	-0.180	-1.590
2020/01/31 13:21:14.3	1.690	0.050	-0.180	-1.540
2020/01/31 13:21:14.4	1.680	0.100	-0.180	-1.490
2020/01/31 13:21:14.5	1.660	0.150	-0.180	-1.440
2020/01/31 13:21:14.6	1.650	0.200	-0.190	-1.380
2020/01/31 13:21:14.7	1.640	0.250	-0.190	-1.330
2020/01/31 13:21:14.8	1.630	0.300	-0.200	-1.270
2020/01/31 13:21:14.9	1.620	0.350	-0.210	-1.210
2020/01/31 13:21:15.0	1.600	0.400	-0.220	-1.150
2020/01/31 13:21:15.1	1.590	0.440	-0.220	-1.080
2020/01/31 13:21:15.2	1.570	0.490	-0.230	-1.010
2020/01/31 13:21:15.3	1.550	0.530	-0.240	-0.950
2020/01/31 13:21:15.4	1.540	0.570	-0.250	-0.880
2020/01/31 13:21:15.5	1.520	0.610	-0.260	-0.800
2020/01/31 13:21:15.6	1.500	0.650	-0.270	-0.720
2020/01/31 13:21:15.7	1.480	0.680	-0.280	-0.650
2020/01/31 13:21:15.8	1.460	0.720	-0.280	-0.580
2020/01/31 13:21:15.9	1.430	0.740	-0.280	-0.500
2020/01/31 13:21:16.0	1.410	0.770	-0.280	-0.430
2020/01/31 13:21:16.1	1.390	0.780	-0.280	-0.350
2020/01/31 13:21:16.2	1.360	0.800	-0.270	-0.280
2020/01/31 13:21:16.3	1.340	0.810	-0.270	-0.200
2020/01/31 13:21:16.4	1.310	0.820	-0.260	-0.130
2020/01/31 13:21:16.5	1.290	0.820	-0.240	-0.050
2020/01/31 13:21:16.6	1.260	0.810	-0.230	0.030
2020/01/31 13:21:16.7	1.240	0.800	-0.210	0.100
2020/01/31 13:21:16.8	1.220	0.790	-0.190	0.170
2020/01/31 13:21:16.9	1.190	0.770	-0.170	0.250
2020/01/31 13:21:17.0	1.170	0.750	-0.150	0.310
2020/01/31 13:21:17.1	1.140	0.720	-0.120	0.380
2020/01/31 13:21:17.2	1.120	0.690	-0.100	0.450
2020/01/31 13:21:17.3	1.100	0.660	-0.070	0.510
2020/01/31 13:21:17.4	1.080	0.620	-0.050	0.570
2020/01/31 13:21:17.5	1.060	0.580	-0.020	0.630
2020/01/31 13:21:17.6	1.040	0.530	0.000	0.690
2020/01/31 13:21:17.7	1.020	0.480	0.030	0.740
2020/01/31 13:21:17.8	1.000	0.430	0.050	0.780
2020/01/31 13:21:17.9	0.990	0.380	0.070	0.830
2020/01/31 13:21:18.0	0.970	0.330	0.090	0.870
2020/01/31 13:21:18.1	0.960	0.270	0.110	0.900
2020/01/31 13:21:18.2	0.950	0.220	0.130	0.940
2020/01/31 13:21:18.3	0.940	0.160	0.140	0.960
2020/01/31 13:21:18.4	0.930	0.110	0.150	0.990
2020/01/31 13:21:18.5	0.920	0.050	0.150	1.010
2020/01/31 13:21:18.6	0.910	-0.000	0.160	1.020
2020/01/31 13:21:18.7	0.910	-0.050	0.150	1.030
2020/01/31 13:21:18.8	0.910	-0.100	0.150	1.040
2020/01/31 13:21:18.9	0.920	-0.150	0.140	1.040
2020/01/31 13:21:19.0	0.920	-0.190	0.120	1.030
2020/01/31 13:21:19.1	0.930	-0.230	0.100	1.020
2020/01/31 13:21:19.2	0.940	-0.270	0.070	1.000
2020/01/31 13:21:19.3	0.960	-0.300	0.040	0.980
2020/01/31 13:21:19.4	0.970	-0.330	0.010	0.950
2020/01/31 13:21:19.5	0.990	-0.360	-0.030	0.920
2020/01/31 13:21:19.6	1.000	-0.380	-0.070	0.870
2020/01/31 13:21:19.7	1.020	-0.390	-0.120	0.830
2020/01/31 13:21:19.8	1.040	-0.400	-0.170	0.790
2020/01/31 13:21:19.9	1.060	-0.410	-0.220	0.740
2020/01/31 13:21:20.0	1.090	-0.410	-0.270	0.690
2020/01/31 13:21:20.1	1.110	-0.410	-0.320	0.630
2020/01/31 13:21:20.2	1.140	-0.410	-0.380	0.580
2020/01/31 13:21:20.3	1.160	-0.400	-0.440	0.520
2020/01/31 13:21:20.4	1.190	-0.380	-0.490	0.460
2020/01/31 13:21:20.5	1.210	-0.370	-0.550	0.400
2020/01/31 13:21:20.6	1.260	-0.340	-0.600	0.340
2020/01/31 13:21:20.7	1.290	-0.320	-0.650	0.280
2020/01/31 13:21:20.8	1.320	-0.290	-0.700	0.220
2020/01/31 13:21:20.9	1.350	-0.260	-0.750	0.160
2020/01/31 13:21:21.0	1.380	-0.230	-0.800	0.100
2020/01/31 13:21:21.1	1.410	-0.190	-0.840	0.040
2020/01/31 13:21:21.2	1.450	-0.160	-0.880	-0.020
2020/01/31 13:21:21.3	1.480	-0.120	-0.920	-0.070
2020/01/31 13:21:21.4	1.520	-0.080	-0.950	-0.130
2020/01/31 13:21:21.5	1.550	-0.040	-0.970	-0.190
2020/01/31 13:21:21.6	1.580	-0.000	-1.000	-0.250
2020/01/31 13:21:21.7	1.610	0.040	-1.010	-0.300
2020/01/31 13:21:21.8	1.650	0.070	-1.020	-0.350
2020/01/31 13:21:21.9	1.680	0.110	-1.030	-0.400
2020/01/31 13:21:22.0	1.720	0.140	-1.020	-0.450
2020/01/31 13:21:22.1	1.750	0.180	-1.010	-0.500
2020/01/31 13:21:22.2	1.780	0.210	-1.000	-0.540
2020/01/31 13:21:22.3	1.810	0.230	-0.980	-0.590
2020/01/31 13:21:22.4	1.830	0.260	-0.950	-0.620
2020/01/31 13:21:22.5	1.850	0.270	-0.910	-0.660
2020/01/31 13:21:22.6	1.870	0.290	-0.870	-0.690
2020/01/31 13:21:22.7	1.890	0.300	-0.830	-0.720
2020/01/31 13:21:22.8	1.900	0.310	-0.780	-0.740
2020/01/31 13:21:22.9	1.920	0.310	-0.720	-0.760
2020/01/31 13:21:23.0	1.920	0.310	-0.660	-0.780
2020/01/31 13:21:23.1	1.930	0.300	-0.590	-0.790
2020/01/31 13:21:23.2	1.930	0.290	-0.520	-0.800
2020/01/31 13:21:23.3	1.930	0.270	-0.440	-0.800
2020/01/31 13:21:23.4	1.930	0.250	-0.360	-0.800
2020/01/31 13:21:23.5	1.930	0.220	-0.280	-0.800
2020/01/31 13:21:23.6	1.920	0.190	-0.200	-0.790
2020/01/31 13:21:23.7	1.910	0.150	-0.120	-0.780
2020/01/31 13:21:23.8	1.900	0.110	-0.030	-0.760
2020/01/31 13:21:23.9	1.880	0.070	0.050	-0.750
2020/01/31 13:21:24.0	1.860	0.030	0.140	-0.730
2020/01/31 13:21:24.1	1.840	-0.020	0.220	-0.710
2020/01/31 13:21:24.2	1.820	-0.070	0.300	-0.690
2020/01/31 13:21:24.3	1.800	-0.120	0.380	-0.670
2020/01/31 13:21:24.4	1.770	-0.180	0.450	-0.640
2020/01/31 13:21:24.5	1.750	-0.230	0.520	-0.620
2020/01/31 13:21:24.6	1.720	-0.280	0.580	-0.590
2020/01/31 13:21:24.7	1.700	-0.340	0.640	-0.560
2020/01/31 13:21:24.8	1.670	-0.390	0.690	-0.530
2020/01/31 13:21:24.9	1.640	-0.440	0.740	-0.510
2020/01/31 13:21:25.0	1.610	-0.490	0.780	-0.480
2020/01/31 13:21:25.1	1.580	-0.530	0.820	-0.450
2020/01/31 13:21:25.2	1.550	-0.570	0.850	-0.430
2020/01/31 13:21:25.3	1.520	-0.610	0.870	-0.400
2020/01/31 13:21:25.4	1.490	-0.650	0.880	-0.370
2020/01/31 13:21:25.5	1.460	-0.680	0.890	-0.350
2020/01/31 13:21:25.6	1.440	-0.700	0.890	-0.330
2020/01/31 13:21:25.7	1.410	-0.720	0.880	-0.300
2020/01/31 13:21:25.8	1.390	-0.740	0.860	-0.280
2020/01/31 13:21:25.9	1.360	-0.750	0.840	-0.270
2020/01/31 13:21:26.0	1.340	-0.750	0.810	-0.250
2020/01/31 13:21:26.1	1.320	-0.750	0.770	-0.240
2020/01/31 13:21:26.2	1.300	-0.740	0.730	-0.220
2020/01/31 13:21:26.3	1.280	-0.720	0.680	-0.210
2020/01/31 13:21:26.4	1.270	-0.700	0.620	-0.210
2020/01/31 13:21:26.5	1.250	-0.680	0.560	-0.200
2020/01/31 13:21:26.6	1.230	-0.650	0.490	-0.190
2020/01/31 13:21:26.7	1.220	-0.610	0.420	-0.190
2020/01/31 13:21:26.8	1.210	-0.570	0.350	-0.190
2020/01/31 13:21:26.9	1.200	-0.520	0.270	-0.180
2020/01/31 13:21:27.0	1.190	-0.470	0.190	-0.180
2020/01/31 13:21:27.1	1.180	-0.420	0.110	-0.180
2020/01/31 13:21:27.2	1.180	-0.360	0.030	-0.180
2020/01/31 13:21:27.3	1.170	-0.300	-0.060	-0.180
2020/01/31 13:21:27.4	1.170	-0.240	-0.140	-0.170
2020/01/31 13:21:27.5	1.170	-0.180	-0.220	-0.170
2020/01/31 13:21:27.6	1.170	-0.110	-0.300	-0.170
2020/01/31 13:21:27.7	1.170	-0.040	-0.380	-0.160
2020/01/31 13:21:27.8	1.170	0.020	-0.460	-0.160
2020/01/31 13:21:27.9	1.180	0.090	-0.540	-0.150
2020/01/31 13:21:28.0	1.180	0.160	-0.610	-0.140
2020/01/31 13:21:28.1	1.190	0.230	-0.680	-0.130
2020/01/31 13:21:28.2	1.200	0.290	-0.750	-0.120
2020/01/31 13:21:28.3	1.220	0.350	-0.810	-0.120
2020/01/31 13:21:28.4	1.230	0.420	-0.870	-0.110
2020/01/31 13:21:28.5	1.250	0.470	-0.930	-0.100
2020/01/31 13:21:28.6	1.280	0.530	-0.980	-0.090
2020/01/31 13:21:28.7	1.300	0.580	-1.030	-0.080
2020/01/31 13:21:28.8	1.320	0.630	-1.080	-0.080
2020/01/31 13:21:28.9	1.350	0.670	-1.120	-0.070
2020/01/31 13:21:29.0	1.380	0.710	-1.160	-0.070
2020/01/31 13:21:29.1	1.410	0.750	-1.190	-0.060
2020/01/31 13:21:29.2	1.450	0.770	-1.220	-0.060
2020/01/31 13:21:29.3	1.490	0.800	-1.250	-0.070
2020/01/31 13:21:29.4	1.530	0.820	-1.270	-0.070
2020/01/31 13:21:29.5	1.570	0.830	-1.290	-0.080
2020/01/31 13:21:29.6	1.620	0.840	-1.310	-0.090
2020/01/31 13:21:29.7	1.660	0.840	-1.320	-0.100
2020/01/31 13:21:29.8	1.710	0.840	-1.330	-0.110
2020/01/31 13:21:29.9	1.750	0.830	-1.330	-0.130
2020/01/31 13:21:30.0	1.790	0.820	-1.320	-0.150
2020/01/31 13:21:30.1	1.840	0.800	-1.320	-0.170
2020/01/31 13:21:30.2	1.880	0.780	-1.300	-0.190
2020/01/31 13:21:30.3	1.930	0.750	-1.290	-0.210
2020/01/31 13:21:30.4	1.970	0.720	-1.260	-0.230
2020/01/31 13:21:30.5	2.010	0.680	-1.230	-0.250
2020/01/31 13:21:30.6	2.040	0.640	-1.200	-0.270
2020/01/31 13:21:30.7	2.080	0.590	-1.160	-0.290
2020/01/31 13:21:30.8	2.110	0.540	-1.110	-0.300
2020/01/31 13:21:30.9	2.140	0.490	-1.060	-0.320
2020/01/31 13:21:31.0	2.160	0.440	-1.000	-0.340
2020/01/31 13:21:31.1	2.190	0.380	-0.930	-0.350
2020/01/31 13:21:31.2	2.210	0.320	-0.860	-0.360
2020/01/31 13:21:31.3	2.230	0.260	-0.780	-0.370
2020/01/31 13:21:31.4	2.240	0.190	-0.700	-0.380
2020/01/31 13:21:31.5	2.250	0.130	-0.610	-0.390
2020/01/31 13:21:31.6	2.240	0.070	-0.530	-0.400
2020/01/31 13:21:31.7	2.250	0.000	-0.430	-0.410
2020/01/31 13:21:31.8	2.250	-0.060	-0.340	-0.410
2020/01/31 13:21:31.9	2.250	-0.120	-0.240	-0.420
2020/01/31 13:21:32.0	2.250	-0.180	-0.140	-0.420
2020/01/31 13:21:32.1	2.250	-0.240	-0.040	-0.430
2020/01/31 13:21:32.2	2.250	-0.290	0.060	-0.430
2020/01/31 13:21:32.3	2.240	-0.350	0.150	-0.430
2020/01/31 13:21:32.4	2.240	-0.390	0.240	-0.440
2020/01/31 13:21:32.5	2.230	-0.440	0.330	-0.440
2020/01/31 13:21:32.6	2.230	-0.480	0.420	-0.450
2020/01/31 13:21:32.7	2.220	-0.510	0.500	-0.460
2020/01/31 13:21:32.8	2.220	-0.540	0.580	-0.460
2020/01/31 13:21:32.9	2.210	-0.570	0.640	-0.470
2020/01/31 13:21:33.0	2.200	-0.590	0.710	-0.470
2020/01/31 13:21:33.1	2.200	-0.610	0.760	-0.480
2020/01/31 13:21:33.2	2.190	-0.620	0.810	-0.480
2020/01/31 13:21:33.3	2.180	-0.620	0.850	-0.490
2020/01/31 13:21:33.4	2.170	-0.620	0.880	-0.490
2020/01/31 13:21:33.5	2.160	-0.620	0.900	-0.490
2020/01/31 13:21:33.6	2.150	-0.610	0.910	-0.480
2020/01/31 13:21:33.7	2.140	-0.590	0.910	-0.480
2020/01/31 13:21:33.8	2.120	-0.570	0.910	-0.480
2020/01/31 13:21:33.9	2.100	-0.550	0.890	-0.470
2020/01/31 13:21:34.0	2.090	-0.520	0.870	-0.460
2020/01/31 13:21:34.1	2.070	-0.490	0.840	-0.460
2020/01/31 13:21:34.2	2.050	-0.450	0.800	-0.450
2020/01/31 13:21:34.3	2.030	-0.410	0.750	-0.440
2020/01/31 13:21:34.4	2.010	-0.370	0.700	-0.430
2020/01/31 13:21:34.5	1.990	-0.330	0.640	-0.420
2020/01/31 13:21:34.6	1.980	-0.280	0.580	-0.410
2020/01/31 13:21:34.7	1.960	-0.230	0.510	-0.400
2020/01/31 13:21:34.8	1.940	-0.180	0.430	-0.400
2020/01/31 13:21:34.9	1.920	-0.120	0.360	-0.390
2020/01/31 13:21:35.0	1.910	-0.070	0.280	-0.380
2020/01/31 13:21:35.1	1.890	-0.020	0.200	-0.380
2020/01/31 13:21:35.2	1.880	0.040	0.110	-0.370
2020/01/31 13:21:35.3	1.870	0.090	0.030	-0.370
2020/01/31 13:21:35.4	1.860	0.140	-0.050	-0.360
2020/01/31 13:21:35.5	1.850	0.190	-0.130	-0.350
2020/01/31 13:21:35.6	1.850	0.250	-0.200	-0.340
2020/01/31 13:21:35.7	1.840	0.290	-0.270	-0.340
2020/01/31 13:21:35.8	1.840	0.340	-0.340	-0.330
2020/01/31 13:21:35.9	1.840	0.380	-0.410	-0.310
2020/01/31 13:21:36.0	1.840	0.420	-0.470	-0.300
2020/01/31 13:21:36.1	1.840	0.460	-0.520	-0.280
2020/01/31 13:21:36.2	1.850	0.490	-0.570	-0.260
2020/01/31 13:21:36.3	1.850	0.520	-0.610	-0.240
2020/01/31 13:21:36.4	1.850	0.550	-0.640	-0.220
2020/01/31 13:21:36.5	1.860	0.570	-0.670	-0.200
2020/01/31 13:21:36.6	1.860	0.590	-0.690	-0.170
2020/01/31 13:21:36.7	1.860	0.600	-0.700	-0.140
2020/01/31 13:21:36.8	1.870	0.600	-0.710	-0.120
2020/01/31 13:21:36.9	1.870	0.600	-0.700	-0.090
2020/01/31 13:21:37.0	1.880	0.600	-0.700	-0.070
2020/01/31 13:21:37.1	1.880	0.590	-0.680	-0.040
2020/01/31 13:21:37.2	1.890	0.570	-0.660	-0.020
2020/01/31 13:21:37.3	1.890	0.550	-0.630	0.000
2020/01/31 13:21:37.4	1.900	0.520	-0.600	0.020
2020/01/31 13:21:37.5	1.900	0.490	-0.560	0.040
2020/01/31 13:21:37.6	1.910	0.450	-0.520	0.060
2020/01/31 13:21:37.7	1.920	0.410	-0.480	0.070
2020/01/31 13:21:37.8	1.920	0.370	-0.430	0.090
2020/01/31 13:21:37.9	1.930	0.320	-0.380	0.100
2020/01/31 13:21:38.0	1.930	0.270	-0.330	0.110
2020/01/31 13:21:38.1	1.940	0.220	-0.280	0.120
2020/01/31 13:21:38.2	1.940	0.160	-0.230	0.120
2020/01/31 13:21:38.3	1.950	0.110	-0.170	0.120
2020/01/31 13:21:38.4	1.950	0.050	-0.120	0.120
2020/01/31 13:21:38.5	1.950	-0.010	-0.070	0.120
2020/01/31 13:21:38.6	1.960	-0.070	-0.020	0.130
2020/01/31 13:21:38.7	1.960	-0.130	0.020	0.120
2020/01/31 13:21:38.8	1.970	-0.180	0.060	0.110
2020/01/31 13:21:38.9	1.970	-0.240	0.100	0.100
2020/01/31 13:21:39.0	1.970	-0.300	0.130	0.090
2020/01/31 13:21:39.1	1.980	-0.350	0.160	0.080
2020/01/31 13:21:39.2	1.980	-0.410	0.190	0.060
2020/01/31 13:21:39.3	1.980	-0.460	0.210	0.040
2020/01/31 13:21:39.4	1.980	-0.510	0.230	0.020
2020/01/31 13:21:39.5	1.980	-0.550	0.240	-0.000
2020/01/31 13:21:39.6	1.980	-0.590	0.240	-0.030
2020/01/31 13:21:39.7	1.980	-0.630	0.240	-0.060
2020/01/31 13:21:39.8	1.970	-0.670	0.240	-0.100
2020/01/31 13:21:39.9	1.970	-0.700	0.220	-0.130
2020/01/31 13:21:40.0	1.960	-0.730	0.210	-0.180
2020/01/31 13:21:40.1	1.960	-0.750	0.180	-0.220
2020/01/31 13:21:40.2	1.950	-0.770	0.160	-0.270
2020/01/31 13:21:40.3	1.950	-0.780	0.120	-0.320
2020/01/31 13:21:40.4	1.940	-0.790	0.080	-0.370
2020/01/31 13:21:40.5	1.940	-0.790	0.040	-0.430
2020/01/31 13:21:40.6	1.930	-0.790	-0.010	-0.490
2020/01/31 13:21:40.7	1.930	-0.780	-0.060	-0.550
2020/01/31 13:21:40.8	1.930	-0.770	-0.110	-0.610
2020/01/31 13:21:40.9	1.930	-0.750	-0.170	-0.670
2020/01/31 13:21:41.0	1.930	-0.730	-0.230	-0.730
2020/01/31 13:21:41.1	1.930	-0.710	-0.300	-0.800
2020/01/31 13:21:41.2	1.930	-0.680	-0.370	-0.860
2020/01/31 13:21:41.3	1.940	-0.640	-0.430	-0.920
2020/01/31 13:21:41.4	1.940	-0.600	-0.500	-0.970
2020/01/31 13:21:41.5	1.950	-0.560	-0.570	-1.030
2020/01/31 13:21:41.6	1.950	-0.520	-0.640	-1.090
2020/01/31 13:21:41.7	1.960	-0.470	-0.710	-1.140
2020/01/31 13:21:41.8	1.970	-0.410	-0.770	-1.180
2020/01/31 13:21:41.9	1.990	-0.360	-0.830	-1.220
2020/01/31 13:21:42.0	2.000	-0.300	-0.890	-1.260
2020/01/31 13:21:42.1	2.010	-0.250	-0.950	-1.290
2020/01/31 13:21:42.2	2.020	-0.190	-1.000	-1.320
2020/01/31 13:21:42.3	2.030	-0.130	-1.040	-1.340
2020/01/31 13:21:42.4	2.050	-0.070	-1.080	-1.360
2020/01/31 13:21:42.5	2.060	-0.010	-1.120	-1.370
2020/01/31 13:21:42.6	2.080	0.050	-1.140	-1.370
2020/01/31 13:21:42.7	2.090	0.110	-1.160	-1.380
2020/01/31 13:21:42.8	2.100	0.170	-1.180	-1.370
2020/01/31 13:21:42.9	2.110	0.230	-1.180	-1.360
2020/01/31 13:21:43.0	2.120	0.280	-1.180	-1.350
2020/01/31 13:21:43.1	2.130	0.330	-1.180	-1.330
2020/01/31 13:21:43.2	2.140	0.380	-1.160	-1.310
2020/01/31 13:21:43.3	2.140	0.430	-1.140	-1.280
2020/01/31 13:21:43.4	2.150	0.470	-1.120	-1.240
2020/01/31 13:21:43.5	2.150	0.520	-1.080	-1.200
2020/01/31 13:21:43.6	2.160	0.560	-1.050	-1.150
2020/01/31 13:21:43.7	2.160	0.590	-1.010	-1.110
2020/01/31 13:21:43.8	2.170	0.620	-0.960	-1.050
2020/01/31 13:21:43.9	2.170	0.650	-0.910	-1.000
2020/01/31 13:21:44.0	2.180	0.680	-0.860	-0.940
2020/01/31 13:21:44.1	2.180	0.700	-0.800	-0.880
2020/01/31 13:21:44.2	2.180	0.720	-0.740	-0.810
2020/01/31 13:21:44.3	2.190	0.740	-0.680	-0.740
2020/01/31 13:21:44.4	2.190	0.750	-0.610	-0.670
2020/01/31 13:21:44.5	2.190	0.760	-0.550	-0.600
2020/01/31 13:21:44.6	2.190	0.760	-0.480	-0.510
2020/01/31 13:21:44.7	2.190	0.770	-0.420	-0.440
2020/01/31 13:21:44.8	2.190	0.760	-0.350	-0.360
2020/01/31 13:21:44.9	2.190	0.760	-0.280	-0.280
2020/01/31 13:21:45.0	2.190	0.750	-0.220	-0.200
2020/01/31 13:21:45.1	2.190	0.740	-0.150	-0.120
2020/01/31 13:21:45.2	2.180	0.720	-0.090	-0.040
2020/01/31 13:21:45.3	2.180	0.700	-0.030	0.040
2020/01/31 13:21:45.4	2.180	0.680	0.030	0.120
2020/01/31 13:21:45.5	2.170	0.650	0.090	0.190
2020/01/31 13:21:45.6	2.160	0.620	0.140	0.270
2020/01/31 13:21:45.7	2.150	0.590	0.200	0.340
2020/01/31 13:21:45.8	2.150	0.560	0.250	0.410
2020/01/31 13:21:45.9	2.140	0.520	0.290	0.470
2020/01/31 13:21:46.0	2.130	0.480	0.340	0.520
2020/01/31 13:21:46.1	2.120	0.430	0.380	0.580
2020/01/31 13:21:46.2	2.110	0.390	0.410	0.630
2020/01/31 13:21:46.3	2.110	0.340	0.440	0.670
2020/01/31 13:21:46.4	2.100	0.290	0.470	0.710
2020/01/31 13:21:46.5	2.090	0.240	0.500	0.740
2020/01/31 13:21:46.6	2.080	0.190	0.520	0.780
2020/01/31 13:21:46.7	2.070	0.140	0.530	0.800
2020/01/31 13:21:46.8	2.060	0.090	0.540	0.820
2020/01/31 13:21:46.9	2.050	0.040	0.550	0.840
2020/01/31 13:21:47.0	2.050	-0.010	0.560	0.850
2020/01/31 13:21:47.1	2.040	-0.060	0.560	0.860
2020/01/31 13:21:47.2	2.040	-0.110	0.560	0.860
2020/01/31 13:21:47.3	2.030	-0.160	0.560	0.860
2020/01/31 13:21:47.4	2.030	-0.210	0.550	0.850
2020/01/31 13:21:47.5	2.030	-0.260	0.540	0.840
2020/01/31 13:21:47.6	2.040	-0.300	0.530	0.830
2020/01/31 13:21:47.7	2.040	-0.340	0.510	0.810
2020/01/31 13:21:47.8	2.040	-0.380	0.490	0.790
2020/01/31 13:21:47.9	2.040	-0.420	0.470	0.770
2020/01/31 13:21:48.0	2.040	-0.450	0.440	0.740
2020/01/31 13:21:48.1	2.040	-0.480	0.420	0.710
2020/01/31 13:21:48.2	2.040	-0.510	0.390	0.670
2020/01/31 13:21:48.3	2.040	-0.540	0.360	0.630
2020/01/31 13:21:48.4	2.030	-0.560	0.320	0.590
2020/01/31 13:21:48.5	2.030	-0.570	0.290	0.550
2020/01/31 13:21:48.6	2.030	-0.590	0.250	0.500
2020/01/31 13:21:48.7	2.030	-0.600	0.210	0.450
2020/01/31 13:21:48.8	2.020	-0.600	0.170	0.400
2020/01/31 13:21:48.9	2.020	-0.600	0.130	0.350
2020/01/31 13:21:49.0	2.010	-0.600	0.090	0.300
2020/01/31 13:21:49.1	2.000	-0.590	0.050	0.250
2020/01/31 13:21:49.2	1.990	-0.580	0.000	0.210
2020/01/31 13:21:49.3	1.970	-0.570	-0.040	0.160
2020/01/31 13:21:49.4	1.960	-0.550	-0.070	0.120
2020/01/31 13:21:49.5	1.950	-0.530	-0.110	0.070
2020/01/31 13:21:49.6	1.930	-0.500	-0.150	0.030
2020/01/31 13:21:49.7	1.910	-0.470	-0.190	-0.010
2020/01/31 13:21:49.8	1.890	-0.440	-0.220	-0.050
2020/01/31 13:21:49.9	1.870	-0.410	-0.250	-0.080
2020/01/31 13:21:50.0	1.860	-0.370	-0.270	-0.110
2020/01/31 13:21:50.1	1.840	-0.330	-0.300	-0.130
2020/01/31 13:21:50.2	1.820	-0.290	-0.320	-0.150
2020/01/31 13:21:50.3	1.800	-0.250	-0.330	-0.170
2020/01/31 13:21:50.4	1.780	-0.210	-0.350	-0.180
2020/01/31 13:21:50.5	1.760	-0.160	-0.360	-0.200
2020/01/31 13:21:50.6	1.730	-0.120	-0.370	-0.200
2020/01/31 13:21:50.7	1.710	-0.080	-0.380	-0.210
2020/01/31 13:21:50.8	1.700	-0.030	-0.390	-0.210
2020/01/31 13:21:50.9	1.680	0.010	-0.390	-0.210
2020/01/31 13:21:51.0	1.660	0.050	-0.400	-0.220
2020/01/31 13:21:51.1	1.650	0.090	-0.400	-0.220
2020/01/31 13:21:51.2	1.640	0.130	-0.400	-0.220
2020/01/31 13:21:51.3	1.630	0.160	-0.400	-0.220
2020/01/31 13:21:51.4	1.620	0.200	-0.410	-0.220
2020/01/31 13:21:51.5	1.610	0.220	-0.410	-0.210
2020/01/31 13:21:51.6	1.610	0.250	-0.410	-0.210
2020/01/31 13:21:51.7	1.610	0.270	-0.420	-0.210
2020/01/31 13:21:51.8	1.600	0.290	-0.420	-0.220
2020/01/31 13:21:51.9	1.600	0.310	-0.420	-0.220
2020/01/31 13:21:52.0	1.600	0.320	-0.430	-0.230
2020/01/31 13:21:52.1	1.610	0.320	-0.430	-0.240
2020/01/31 13:21:52.2	1.610	0.330	-0.440	-0.250
2020/01/31 13:21:52.3	1.620	0.330	-0.450	-0.260
2020/01/31 13:21:52.4	1.630	0.320	-0.460	-0.280
2020/01/31 13:21:52.5	1.640	0.320	-0.470	-0.300
2020/01/31 13:21:52.6	1.660	0.310	-0.480	-0.320
2020/01/31 13:21:52.7	1.680	0.290	-0.500	-0.350
2020/01/31 13:21:52.8	1.700	0.280	-0.510	-0.380
2020/01/31 13:21:52.9	1.720	0.260	-0.530	-0.410
2020/01/31 13:21:53.0	1.750	0.240	-0.550	-0.450
2020/01/31 13:21:53.1	1.770	0.220	-0.560	-0.480
2020/01/31 13:21:53.2	1.800	0.200	-0.580	-0.520
2020/01/31 13:21:53.3	1.830	0.180	-0.600	-0.560
2020/01/31 13:21:53.4	1.860	0.150	-0.610	-0.590
2020/01/31 13:21:53.5	1.880	0.130	-0.630	-0.630
2020/01/31 13:21:53.6	1.900	0.100	-0.640	-0.660
2020/01/31 13:21:53.7	1.920	0.080	-0.650	-0.690
2020/01/31 13:21:53.8	1.940	0.060	-0.650	-0.720
2020/01/31 13:21:53.9	1.960	0.030	-0.650	-0.750
2020/01/31 13:21:54.0	1.980	0.010	-0.650	-0.770
2020/01/31 13:21:54.1	2.000	-0.010	-0.640	-0.780
2020/01/31 13:21:54.2	2.010	-0.040	-0.630	-0.800
2020/01/31 13:21:54.3	2.030	-0.060	-0.620	-0.810
2020/01/31 13:21:54.4	2.040	-0.080	-0.600	-0.810
2020/01/31 13:21:54.5	2.050	-0.090	-0.580	-0.820
2020/01/31 13:21:54.6	2.060	-0.110	-0.550	-0.820
2020/01/31 13:21:54.7	2.070	-0.130	-0.520	-0.820
2020/01/31 13:21:54.8	2.070	-0.140	-0.490	-0.820
2020/01/31 13:21:54.9	2.070	-0.160	-0.460	-0.810
2020/01/31 13:21:55.0	2.070	-0.170	-0.430	-0.810
2020/01/31 13:21:55.1	2.070	-0.190	-0.400	-0.800
2020/01/31 13:21:55.2	2.070	-0.200	-0.360	-0.800
2020/01/31 13:21:55.3	2.070	-0.210	-0.330	-0.790
2020/01/31 13:21:55.4	2.060	-0.220	-0.300	-0.780
2020/01/31 13:21:55.5	2.060	-0.230	-0.280	-0.780
2020/01/31 13:21:55.6	2.060	-0.240	-0.250	-0.770
2020/01/31 13:21:55.7	2.050	-0.240	-0.230	-0.760
2020/01/31 13:21:55.8	2.050	-0.250	-0.210	-0.760
2020/01/31 13:21:55.9	2.040	-0.250	-0.200	-0.750
2020/01/31 13:21:56.0	2.040	-0.260	-0.190	-0.750
2020/01/31 13:21:56.1	2.030	-0.260	-0.180	-0.740
2020/01/31 13:21:56.2	2.030	-0.260	-0.180	-0.740
2020/01/31 13:21:56.3	2.030	-0.260	-0.180	-0.740
2020/01/31 13:21:56.4	2.030	-0.250	-0.190	-0.740
2020/01/31 13:21:56.5	2.030	-0.250	-0.200	-0.730
2020/01/31 13:21:56.6	2.040	-0.240	-0.220	-0.730
2020/01/31 13:21:56.7	2.040	-0.230	-0.230	-0.730
2020/01/31 13:21:56.8	2.040	-0.230	-0.250	-0.730
2020/01/31 13:21:56.9	2.050	-0.210	-0.280	-0.730
2020/01/31 13:21:57.0	2.060	-0.200	-0.300	-0.730
2020/01/31 13:21:57.1	2.060	-0.190	-0.320	-0.730
2020/01/31 13:21:57.2	2.070	-0.170	-0.350	-0.740
2020/01/31 13:21:57.3	2.080	-0.160	-0.370	-0.740
2020/01/31 13:21:57.4	2.090	-0.140	-0.400	-0.740
2020/01/31 13:21:57.5	2.100	-0.120	-0.420	-0.740
2020/01/31 13:21:57.6	2.090	-0.100	-0.440	-0.740
2020/01/31 13:21:57.7	2.100	-0.080	-0.460	-0.740
2020/01/31 13:21:57.8	2.110	-0.050	-0.480	-0.740
2020/01/31 13:21:57.9	2.120	-0.030	-0.490	-0.740
2020/01/31 13:21:58.0	2.130	-0.000	-0.500	-0.740
2020/01/31 13:21:58.1	2.130	0.020	-0.500	-0.730
2020/01/31 13:21:58.2	2.140	0.050	-0.500	-0.720
2020/01/31 13:21:58.3	2.150	0.080	-0.500	-0.710
2020/01/31 13:21:58.4	2.150	0.110	-0.480	-0.700
2020/01/31 13:21:58.5	2.160	0.130	-0.470	-0.680
2020/01/31 13:21:58.6	2.160	0.160	-0.450	-0.660
2020/01/31 13:21:58.7	2.160	0.190	-0.420	-0.640
2020/01/31 13:21:58.8	2.170	0.210	-0.390	-0.610
2020/01/31 13:21:58.9	2.170	0.240	-0.350	-0.580
2020/01/31 13:21:59.0	2.170	0.270	-0.310	-0.540
2020/01/31 13:21:59.1	2.180	0.290	-0.270	-0.500
2020/01/31 13:21:59.2	2.190	0.310	-0.220	-0.460
2020/01/31 13:21:59.3	2.190	0.330	-0.170	-0.420
2020/01/31 13:21:59.4	2.200	0.350	-0.120	-0.380
2020/01/31 13:21:59.5	2.210	0.370	-0.070	-0.330
2020/01/31 13:21:59.6	2.220	0.390	-0.020	-0.280
2020/01/31 13:21:59.7	2.220	0.400	0.040	-0.230
2020/01/31 13:21:59.8	2.230	0.410	0.090	-0.170
2020/01/31 13:21:59.9	2.240	0.420	0.140	-0.120
2020/01/31 13:22:00.0	2.250	0.430	0.190	-0.070
2020/01/31 13:22:00.1	2.260	0.430	0.240	-0.020
2020/01/31 13:22:00.2	2.270	0.430	0.280	0.030
2020/01/31 13:22:00.3	2.280	0.430	0.320	0.080
2020/01/31 13:22:00.4	2.290	0.430	0.360	0.130
2020/01/31 13:22:00.5	2.300	0.420	0.390	0.170
2020/01/31 13:22:00.6	2.310	0.410	0.410	0.220
2020/01/31 13:22:00.7	2.320	0.400	0.430	0.270
2020/01/31 13:22:00.8	2.330	0.390	0.450	0.310
2020/01/31 13:22:00.9	2.340	0.370	0.470	0.340
2020/01/31 13:22:01.0	2.350	0.350	0.480	0.380
2020/01/31 13:22:01.1	2.360	0.340	0.480	0.420
2020/01/31 13:22:01.2	2.360	0.310	0.480	0.450
2020/01/31 13:22:01.3	2.370	0.290	0.480	0.490
2020/01/31 13:22:01.4	2.370	0.270	0.480	0.520
2020/01/31 13:22:01.5	2.370	0.240	0.470	0.560
2020/01/31 13:22:01.6	2.350	0.220	0.470	0.590
2020/01/31 13:22:01.7	2.340	0.190	0.460	0.620
2020/01/31 13:22:01.8	2.330	0.160	0.440	0.650
2020/01/31 13:22:01.9	2.320	0.130	0.430	0.680
2020/01/31 13:22:02.0	2.300	0.100	0.410	0.710
2020/01/31 13:22:02.1	2.280	0.070	0.390	0.730
2020/01/31 13:22:02.2	2.260	0.040	0.370	0.740
2020/01/31 13:22:02.3	2.240	0.010	0.350	0.760
2020/01/31 13:22:02.4	2.220	-0.010	0.330	0.760
2020/01/31 13:22:02.5	2.200	-0.040	0.300	0.770
2020/01/31 13:22:02.6	2.160	-0.070	0.270	0.770
2020/01/31 13:22:02.7	2.140	-0.100	0.240	0.770
2020/01/31 13:22:02.8	2.110	-0.120	0.210	0.760
2020/01/31 13:22:02.9	2.080	-0.150	0.170	0.740
2020/01/31 13:22:03.0	2.050	-0.170	0.140	0.730
2020/01/31 13:22:03.1	2.030	-0.190	0.100	0.710
2020/01/31 13:22:03.2	2.000	-0.210	0.060	0.680
2020/01/31 13:22:03.3	1.970	-0.220	0.020	0.650
2020/01/31 13:22:03.4	1.950	-0.240	-0.030	0.620
2020/01/31 13:22:03.5	1.920	-0.250	-0.070	0.580
2020/01/31 13:22:03.6	1.900	-0.260	-0.120	0.540
2020/01/31 13:22:03.7	1.880	-0.260	-0.170	0.500
2020/01/31 13:22:03.8	1.860	-0.260	-0.230	0.450
2020/01/31 13:22:03.9	1.850	-0.260	-0.280	0.390
2020/01/31 13:22:04.0	1.830	-0.260	-0.340	0.340
2020/01/31 13:22:04.1	1.830	-0.260	-0.400	0.280
2020/01/31 13:22:04.2	1.820	-0.250	-0.460	0.210
2020/01/31 13:22:04.3	1.810	-0.240	-0.520	0.150
2020/01/31 13:22:04.4	1.810	-0.230	-0.570	0.080
2020/01/31 13:22:04.5	1.810	-0.220	-0.630	0.010
2020/01/31 13:22:04.6	1.820	-0.200	-0.690	-0.060
2020/01/31 13:22:04.7	1.820	-0.190	-0.740	-0.140
2020/01/31 13:22:04.8	1.830	-0.180	-0.790	-0.210
2020/01/31 13:22:04.9	1.840	-0.160	-0.840	-0.290
2020/01/31 13:22:05.0	1.850	-0.150	-0.880	-0.360
2020/01/31 13:22:05.1	1.860	-0.130	-0.920	-0.440
2020/01/31 13:22:05.2	1.870	-0.120	-0.960	-0.520
2020/01/31 13:22:05.3	1.880	-0.100	-0.990	-0.600
2020/01/31 13:22:05.4	1.900	-0.090	-1.020	-0.670
2020/01/31 13:22:05.5	1.910	-0.080	-1.040	-0.750
2020/01/31 13:22:05.6	1.920	-0.070	-1.060	-0.830
2020/01/31 13:22:05.7	1.940	-0.070	-1.070	-0.900
2020/01/31 13:22:05.8	1.950	-0.060	-1.080	-0.980
2020/01/31 13:22:05.9	1.970	-0.060	-1.080	-1.050
2020/01/31 13:22:06.0	1.990	-0.050	-1.080	-1.120
2020/01/31 13:22:06.1	2.010	-0.050	-1.080	-1.190
2020/01/31 13:22:06.2	2.030	-0.050	-1.070	-1.260
2020/01/31 13:22:06.3	2.050	-0.050	-1.060	-1.320
2020/01/31 13:22:06.4	2.070	-0.050	-1.040	-1.380
2020/01/31 13:22:06.5	2.090	-0.050	-1.030	-1.440
2020/01/31 13:22:06.6	2.120	-0.060	-1.000	-1.490
2020/01/31 13:22:06.7	2.150	-0.060	-0.980	-1.540
2020/01/31 13:22:06.8	2.170	-0.060	-0.950	-1.590
2020/01/31 13:22:06.9	2.200	-0.070	-0.920	-1.630
2020/01/31 13:22:07.0	2.230	-0.070	-0.890	-1.670
2020/01/31 13:22:07.1	2.270	-0.070	-0.860	-1.710
2020/01/31 13:22:07.2	2.300	-0.080	-0.820	-1.740
2020/01/31 13:22:07.3	2.330	-0.080	-0.790	-1.770
2020/01/31 13:22:07.4	2.370	-0.080	-0.750	-1.800
2020/01/31 13:22:07.5	2.410	-0.080	-0.720	-1.820
2020/01/31 13:22:07.6	2.440	-0.080	-0.680	-1.830
2020/01/31 13:22:07.7	2.480	-0.080	-0.650	-1.850
2020/01/31 13:22:07.8	2.520	-0.080	-0.610	-1.860
2020/01/31 13:22:07.9	2.560	-0.080	-0.580	-1.870
2020/01/31 13:22:08.0	2.590	-0.080	-0.540	-1.880
2020/01/31 13:22:08.1	2.630	-0.080	-0.510	-1.880
2020/01/31 13:22:08.2	2.670	-0.070	-0.470	-1.880
2020/01/31 13:22:08.3	2.700	-0.070	-0.440	-1.870
2020/01/31 13:22:08.4	2.730	-0.070	-0.400	-1.860
2020/01/31 13:22:08.5	2.750	-0.070	-0.370	-1.850
2020/01/31 13:22:08.6	2.770	-0.060	-0.340	-1.820
2020/01/31 13:22:08.7	2.790	-0.060	-0.300	-1.800
2020/01/31 13:22:08.8	2.810	-0.060	-0.260	-1.770
2020/01/31 13:22:08.9	2.820	-0.060	-0.220	-1.740
2020/01/31 13:22:09.0	2.830	-0.060	-0.190	-1.710
2020/01/31 13:22:09.1	2.830	-0.060	-0.150	-1.660
2020/01/31 13:22:09.2	2.830	-0.060	-0.110	-1.620
2020/01/31 13:22:09.3	2.830	-0.060	-0.060	-1.560
2020/01/31 13:22:09.4	2.820	-0.060	-0.020	-1.510
2020/01/31 13:22:09.5	2.810	-0.070	0.030	-1.440
2020/01/31 13:22:09.6	2.790	-0.070	0.070	-1.370
2020/01/31 13:22:09.7	2.770	-0.070	0.110	-1.300
2020/01/31 13:22:09.8	2.750	-0.080	0.160	-1.220
2020/01/31 13:22:09.9	2.720	-0.090	0.210	-1.140
2020/01/31 13:22:10.0	2.700	-0.090	0.260	-1.050
2020/01/31 13:22:10.1	2.670	-0.100	0.300	-0.960
2020/01/31 13:22:10.2	2.630	-0.110	0.350	-0.870
2020/01/31 13:22:10.3	2.600	-0.110	0.390	-0.770
2020/01/31 13:22:10.4	2.570	-0.120	0.440	-0.680
2020/01/31 13:22:10.5	2.530	-0.130	0.480	-0.580
2020/01/31 13:22:10.6	2.510	-0.130	0.520	-0.480
2020/01/31 13:22:10.7	2.470	-0.140	0.560	-0.380
2020/01/31 13:22:10.8	2.440	-0.140	0.590	-0.290
2020/01/31 13:22:10.9	2.410	-0.150	0.620	-0.190
2020/01/31 13:22:11.0	2.380	-0.150	0.650	-0.100
2020/01/31 13:22:11.1	2.350	-0.150	0.670	-0.020
2020/01/31 13:22:11.2	2.320	-0.150	0.680	0.070
2020/01/31 13:22:11.3	2.290	-0.150	0.690	0.150
2020/01/31 13:22:11.4	2.270	-0.140	0.690	0.220
2020/01/31 13:22:11.5	2.250	-0.140	0.690	0.300
2020/01/31 13:22:11.6	2.230	-0.130	0.680	0.370
2020/01/31 13:22:11.7	2.210	-0.120	0.660	0.430
2020/01/31 13:22:11.8	2.190	-0.100	0.640	0.500
2020/01/31 13:22:11.9	2.170	-0.090	0.610	0.560
2020/01/31 13:22:12.0	2.150	-0.070	0.580	0.620
2020/01/31 13:22:12.1	2.130	-0.050	0.550	0.680
2020/01/31 13:22:12.2	2.110	-0.030	0.510	0.740
2020/01/31 13:22:12.3	2.100	-0.000	0.460	0.790
2020/01/31 13:22:12.4	2.080	0.020	0.410	0.840
2020/01/31 13:22:12.5	2.060	0.050	0.360	0.890
2020/01/31 13:22:12.6	2.050	0.080	0.310	0.940
2020/01/31 13:22:12.7	2.030	0.110	0.250	0.990
2020/01/31 13:22:12.8	2.020	0.140	0.200	1.030
2020/01/31 13:22:12.9	2.000	0.170	0.140	1.070
2020/01/31 13:22:13.0	1.980	0.200	0.080	1.110
2020/01/31 13:22:13.1	1.970	0.230	0.020	1.140
2020/01/31 13:22:13.2	1.950	0.260	-0.050	1.170
2020/01/31 13:22:13.3	1.940	0.290	-0.110	1.200
2020/01/31 13:22:13.4	1.930	0.320	-0.170	1.220
2020/01/31 13:22:13.5	1.920	0.340	-0.230	1.230
2020/01/31 13:22:13.6	1.910	0.360	-0.290	1.240
2020/01/31 13:22:13.7	1.900	0.380	-0.360	1.250
2020/01/31 13:22:13.8	1.890	0.400	-0.420	1.240
2020/01/31 13:22:13.9	1.890	0.420	-0.480	1.230
2020/01/31 13:22:14.0	1.890	0.430	-0.540	1.210
2020/01/31 13:22:14.1	1.890	0.440	-0.590	1.190
2020/01/31 13:22:14.2	1.900	0.450	-0.650	1.150
2020/01/31 13:22:14.3	1.900	0.450	-0.700	1.120
2020/01/31 13:22:14.4	1.910	0.450	-0.760	1.070
2020/01/31 13:22:14.5	1.930	0.450	-0.810	1.020
2020/01/31 13:22:14.6	1.950	0.440	-0.860	0.960
2020/01/31 13:22:14.7	1.960	0.440	-0.900	0.900
2020/01/31 13:22:14.8	1.980	0.420	-0.950	0.830
2020/01/31 13:22:14.9	2.000	0.410	-0.990	0.760
2020/01/31 13:22:15.0	2.020	0.390	-1.020	0.690
2020/01/31 13:22:15.1	2.040	0.370	-1.050	0.610
2020/01/31 13:22:15.2	2.060	0.350	-1.070	0.540
2020/01/31 13:22:15.3	2.080	0.330	-1.090	0.460
2020/01/31 13:22:15.4	2.100	0.300	-1.110	0.380
2020/01/31 13:22:15.5	2.120	0.270	-1.110	0.300
2020/01/31 13:22:15.6	2.130	0.240	-1.110	0.220
2020/01/31 13:22:15.7	2.150	0.210	-1.100	0.140
2020/01/31 13:22:15.8	2.170	0.180	-1.090	0.060
2020/01/31 13:22:15.9	2.180	0.150	-1.070	-0.010
2020/01/31 13:22:16.0	2.190	0.110	-1.040	-0.090
2020/01/31 13:22:16.1	2.200	0.080	-1.010	-0.160
2020/01/31 13:22:16.2	2.220	0.050	-0.970	-0.230
2020/01/31 13:22:16.3	2.220	0.010	-0.920	-0.300
2020/01/31 13:22:16.4	2.230	-0.020	-0.880	-0.370
2020/01/31 13:22:16.5	2.240	-0.060	-0.820	-0.440
2020/01/31 13:22:16.6	2.250	-0.090	-0.770	-0.510
2020/01/31 13:22:16.7	2.250	-0.120	-0.710	-0.580
2020/01/31 13:22:16.8	2.260	-0.160	-0.640	-0.640
2020/01/31 13:22:16.9	2.260	-0.190	-0.580	-0.710
2020/01/31 13:22:17.0	2.270	-0.220	-0.510	-0.770
2020/01/31 13:22:17.1	2.270	-0.240	-0.450	-0.830
2020/01/31 13:22:17.2	2.280	-0.270	-0.380	-0.890
2020/01/31 13:22:17.3	2.290	-0.290	-0.320	-0.950
2020/01/31 13:22:17.4	2.290	-0.320	-0.250	-1.010
2020/01/31 13:22:17.5	2.300	-0.340	-0.190	-1.070
2020/01/31 13:22:17.6	2.320	-0.350	-0.140	-1.120
2020/01/31 13:22:17.7	2.330	-0.370	-0.080	-1.170
2020/01/31 13:22:17.8	2.340	-0.380	-0.030	-1.220
2020/01/31 13:22:17.9	2.350	-0.390	0.030	-1.260
2020/01/31 13:22:18.0	2.350	-0.400	0.070	-1.300
2020/01/31 13:22:18.1	2.360	-0.410	0.120	-1.330
2020/01/31 13:22:18.2	2.360	-0.410	0.160	-1.360
2020/01/31 13:22:18.3	2.360	-0.410	0.190	-1.390
2020/01/31 13:22:18.4	2.360	-0.410	0.220	-1.410
2020/01/31 13:22:18.5	2.360	-0.410	0.250	-1.420
2020/01/31 13:22:18.6	2.360	-0.400	0.270	-1.430
2020/01/31 13:22:18.7	2.350	-0.390	0.290	-1.440
2020/01/31 13:22:18.8	2.350	-0.380	0.300	-1.440
2020/01/31 13:22:18.9	2.340	-0.370	0.310	-1.440
2020/01/31 13:22:19.0	2.330	-0.350	0.310	-1.430
2020/01/31 13:22:19.1	2.330	-0.330	0.310	-1.430
2020/01/31 13:22:19.2	2.320	-0.310	0.310	-1.420
2020/01/31 13:22:19.3	2.310	-0.290	0.300	-1.400
2020/01/31 13:22:19.4	2.300	-0.270	0.290	-1.380
2020/01/31 13:22:19.5	2.290	-0.240	0.270	-1.360
2020/01/31 13:22:19.6	2.290	-0.210	0.240	-1.340
2020/01/31 13:22:19.7	2.280	-0.180	0.220	-1.310
2020/01/31 13:22:19.8	2.270	-0.150	0.190	-1.290
2020/01/31 13:22:19.9	2.270	-0.120	0.150	-1.260
2020/01/31 13:22:20.0	2.260	-0.090	0.110	-1.230
2020/01/31 13:22:20.1	2.260	-0.050	0.080	-1.200
2020/01/31 13:22:20.2	2.260	-0.020	0.040	-1.170
2020/01/31 13:22:20.3	2.250	0.020	-0.010	-1.140
2020/01/31 13:22:20.4	2.250	0.050	-0.050	-1.100
2020/01/31 13:22:20.5	2.250	0.090	-0.090	-1.060
2020/01/31 13:22:20.6	2.250	0.130	-0.140	-1.020
2020/01/31 13:22:20.7	2.250	0.160	-0.180	-0.980
2020/01/31 13:22:20.8	2.240	0.200	-0.220	-0.940
2020/01/31 13:22:20.9	2.240	0.230	-0.250	-0.890
2020/01/31 13:22:21.0	2.230	0.260	-0.290	-0.840
2020/01/31 13:22:21.1	2.220	0.290	-0.320	-0.780
2020/01/31 13:22:21.2	2.210	0.320	-0.340	-0.730
2020/01/31 13:22:21.3	2.200	0.340	-0.360	-0.670
2020/01/31 13:22:21.4	2.190	0.360	-0.380	-0.610
2020/01/31 13:22:21.5	2.180	0.380	-0.390	-0.550
2020/01/31 13:22:21.6	2.160	0.400	-0.400	-0.480
2020/01/31 13:22:21.7	2.150	0.410	-0.400	-0.410
2020/01/31 13:22:21.8	2.130	0.410	-0.400	-0.350
2020/01/31 13:22:21.9	2.110	0.420	-0.390	-0.280
2020/01/31 13:22:22.0	2.100	0.420	-0.380	-0.220
2020/01/31 13:22:22.1	2.080	0.410	-0.370	-0.150
2020/01/31 13:22:22.2	2.060	0.400	-0.350	-0.090
2020/01/31 13:22:22.3	2.040	0.390	-0.330	-0.030
2020/01/31 13:22:22.4	2.030	0.370	-0.310	0.030
2020/01/31 13:22:22.5	2.020	0.350	-0.290	0.090
2020/01/31 13:22:22.6	2.020	0.320	-0.270	0.150
2020/01/31 13:22:22.7	2.010	0.290	-0.250	0.200
2020/01/31 13:22:22.8	2.010	0.260	-0.220	0.250
2020/01/31 13:22:22.9	2.000	0.230	-0.200	0.290
2020/01/31 13:22:23.0	2.000	0.190	-0.180	0.330
2020/01/31 13:22:23.1	2.000	0.150	-0.160	0.370
2020/01/31 13:22:23.2	2.010	0.110	-0.150	0.400
2020/01/31 13:22:23.3	2.010	0.060	-0.140	0.420
2020/01/31 13:22:23.4	2.030	0.020	-0.130	0.440
2020/01/31 13:22:23.5	2.040	-0.020	-0.120	0.450
2020/01/31 13:22:23.6	2.060	-0.070	-0.120	0.460
2020/01/31 13:22:23.7	2.080	-0.110	-0.120	0.460
2020/01/31 13:22:23.8	2.110	-0.160	-0.120	0.460
2020/01/31 13:22:23.9	2.130	-0.200	-0.130	0.450
2020/01/31 13:22:24.0	2.160	-0.240	-0.140	0.440
2020/01/31 13:22:24.1	2.190	-0.280	-0.150	0.420
2020/01/31 13:22:24.2	2.210	-0.320	-0.160	0.400
2020/01/31 13:22:24.3	2.240	-0.350	-0.170	0.380
2020/01/31 13:22:24.4	2.270	-0.390	-0.190	0.360
2020/01/31 13:22:24.5	2.290	-0.410	-0.200	0.330
2020/01/31 13:22:24.6	2.320	-0.440	-0.220	0.300
2020/01/31 13:22:24.7	2.340	-0.460	-0.240	0.270
2020/01/31 13:22:24.8	2.360	-0.480	-0.250	0.240
2020/01/31 13:22:24.9	2.380	-0.500	-0.270	0.210
2020/01/31 13:22:25.0	2.390	-0.510	-0.280	0.180
2020/01/31 13:22:25.1	2.410	-0.520	-0.290	0.150
2020/01/31 13:22:25.2	2.420	-0.520	-0.300	0.120
2020/01/31 13:22:25.3	2.430	-0.520	-0.310	0.090
2020/01/31 13:22:25.4	2.440	-0.520	-0.320	0.060
2020/01/31 13:22:25.5	2.440	-0.510	-0.320	0.040
2020/01/31 13:22:25.6	2.430	-0.500	-0.330	0.010
2020/01/31 13:22:25.7	2.430	-0.490	-0.330	-0.010
2020/01/31 13:22:25.8	2.430	-0.470	-0.330	-0.030
2020/01/31 13:22:25.9	2.430	-0.450	-0.330	-0.050
2020/01/31 13:22:26.0	2.430	-0.430	-0.330	-0.070
2020/01/31 13:22:26.1	2.420	-0.400	-0.330	-0.080
2020/01/31 13:22:26.2	2.420	-0.370	-0.330	-0.090
2020/01/31 13:22:26.3	2.410	-0.340	-0.320	-0.110
2020/01/31 13:22:26.4	2.410	-0.310	-0.320	-0.110
2020/01/31 13:22:26.5	2.400	-0.270	-0.320	-0.120
2020/01/31 13:22:26.6	2.380	-0.240	-0.320	-0.130
2020/01/31 13:22:26.7	2.370	-0.200	-0.310	-0.130
2020/01/31 13:22:26.8	2.360	-0.170	-0.310	-0.130
2020/01/31 13:22:26.9	2.350	-0.130	-0.310	-0.120
2020/01/31 13:22:27.0	2.330	-0.090	-0.310	-0.120
2020/01/31 13:22:27.1	2.310	-0.050	-0.310	-0.110
2020/01/31 13:22:27.2	2.290	-0.010	-0.300	-0.100
2020/01/31 13:22:27.3	2.280	0.020	-0.300	-0.100
2020/01/31 13:22:27.4	2.260	0.060	-0.300	-0.080
2020/01/31 13:22:27.5	2.240	0.100	-0.300	-0.070
2020/01/31 13:22:27.6	2.220	0.130	-0.300	-0.060
2020/01/31 13:22:27.7	2.200	0.170	-0.300	-0.040
2020/01/31 13:22:27.8	2.180	0.200	-0.300	-0.020
2020/01/31 13:22:27.9	2.160	0.230	-0.300	-0.010
2020/01/31 13:22:28.0	2.140	0.260	-0.300	0.010
2020/01/31 13:22:28.1	2.130	0.290	-0.300	0.030
2020/01/31 13:22:28.2	2.110	0.320	-0.300	0.050
2020/01/31 13:22:28.3	2.090	0.350	-0.310	0.070
2020/01/31 13:22:28.4	2.080	0.380	-0.310	0.090
2020/01/31 13:22:28.5	2.070	0.400	-0.310	0.110
2020/01/31 13:22:28.6	2.060	0.430	-0.310	0.130
2020/01/31 13:22:28.7	2.050	0.450	-0.310	0.140
2020/01/31 13:22:28.8	2.040	0.470	-0.310	0.160
2020/01/31 13:22:28.9	2.030	0.490	-0.310	0.180
2020/01/31 13:22:29.0	2.030	0.500	-0.310	0.190
2020/01/31 13:22:29.1	2.030	0.520	-0.310	0.200
2020/01/31 13:22:29.2	2.030	0.530	-0.310	0.210
2020/01/31 13:22:29.3	2.040	0.540	-0.310	0.210
2020/01/31 13:22:29.4	2.050	0.550	-0.310	0.220
2020/01/31 13:22:29.5	2.060	0.560	-0.310	0.220
2020/01/31 13:22:29.6	2.080	0.570	-0.310	0.220
2020/01/31 13:22:29.7	2.100	0.570	-0.300	0.210
2020/01/31 13:22:29.8	2.110	0.570	-0.300	0.210
2020/01/31 13:22:29.9	2.130	0.570	-0.300	0.200
2020/01/31 13:22:30.0	2.150	0.560	-0.290	0.180
2020/01/31 13:22:30.1	2.180	0.560	-0.290	0.170
2020/01/31 13:22:30.2	2.200	0.550	-0.280	0.150
2020/01/31 13:22:30.3	2.230	0.530	-0.270	0.130
2020/01/31 13:22:30.4	2.250	0.520	-0.260	0.110
2020/01/31 13:22:30.5	2.280	0.500	-0.250	0.090
2020/01/31 13:22:30.6	2.310	0.470	-0.250	0.070
2020/01/31 13:22:30.7	2.340	0.450	-0.230	0.040
2020/01/31 13:22:30.8	2.360	0.420	-0.220	0.010
2020/01/31 13:22:30.9	2.390	0.390	-0.210	-0.010
2020/01/31 13:22:31.0	2.420	0.350	-0.200	-0.050
2020/01/31 13:22:31.1	2.440	0.310	-0.180	-0.080
2020/01/31 13:22:31.2	2.470	0.270	-0.170	-0.110
2020/01/31 13:22:31.3	2.490	0.230	-0.150	-0.150
2020/01/31 13:22:31.4	2.510	0.190	-0.140	-0.180
2020/01/31 13:22:31.5	2.530	0.140	-0.120	-0.220
2020/01/31 13:22:31.6	2.560	0.090	-0.110	-0.250
2020/01/31 13:22:31.7	2.580	0.040	-0.100	-0.290
2020/01/31 13:22:31.8	2.590	-0.000	-0.090	-0.320
2020/01/31 13:22:31.9	2.610	-0.060	-0.080	-0.360
2020/01/31 13:22:32.0	2.620	-0.110	-0.070	-0.390
2020/01/31 13:22:32.1	2.630	-0.160	-0.060	-0.430
2020/01/31 13:22:32.2	2.630	-0.210	-0.050	-0.460
2020/01/31 13:22:32.3	2.640	-0.260	-0.050	-0.500
2020/01/31 13:22:32.4	2.640	-0.300	-0.050	-0.530
2020/01/31 13:22:32.5	2.640	-0.350	-0.040	-0.560
2020/01/31 13:22:32.6	2.630	-0.390	-0.050	-0.590
2020/01/31 13:22:32.7	2.630	-0.440	-0.050	-0.620
2020/01/31 13:22:32.8	2.620	-0.480	-0.050	-0.640
2020/01/31 13:22:32.9	2.610	-0.510	-0.060	-0.670
2020/01/31 13:22:33.0	2.600	-0.550	-0.060	-0.690
2020/01/31 13:22:33.1	2.590	-0.580	-0.070	-0.710
2020/01/31 13:22:33.2	2.570	-0.610	-0.080	-0.740
2020/01/31 13:22:33.3	2.560	-0.630	-0.090	-0.760
2020/01/31 13:22:33.4	2.540	-0.650	-0.090	-0.780
2020/01/31 13:22:33.5	2.520	-0.660	-0.100	-0.790
2020/01/31 13:22:33.6	2.500	-0.680	-0.110	-0.810
2020/01/31 13:22:33.7	2.480	-0.680	-0.120	-0.830
2020/01/31 13:22:33.8	2.460	-0.680	-0.130	-0.850
2020/01/31 13:22:33.9	2.440	-0.680	-0.130	-0.870
2020/01/31 13:22:34.0	2.410	-0.680	-0.140	-0.880
2020/01/31 13:22:34.1	2.390	-0.660	-0.150	-0.900
2020/01/31 13:22:34.2	2.370	-0.650	-0.160	-0.910
2020/01/31 13:22:34.3	2.350	-0.630	-0.160	-0.930
2020/01/31 13:22:34.4	2.320	-0.610	-0.170	-0.940
2020/01/31 13:22:34.5	2.300	-0.580	-0.170	-0.940
2020/01/31 13:22:34.6	2.270	-0.550	-0.180	-0.950
2020/01/31 13:22:34.7	2.250	-0.510	-0.180	-0.950
2020/01/31 13:22:34.8	2.220	-0.480	-0.180	-0.950
2020/01/31 13:22:34.9	2.200	-0.440	-0.180	-0.950
2020/01/31 13:22:35.0	2.180	-0.390	-0.180	-0.950
2020/01/31 13:22:35.1	2.160	-0.350	-0.180	-0.940
2020/01/31 13:22:35.2	2.130	-0.300	-0.180	-0.940
2020/01/31 13:22:35.3	2.110	-0.260	-0.170	-0.930
2020/01/31 13:22:35.4	2.100	-0.210	-0.170	-0.910
2020/01/31 13:22:35.5	2.080	-0.160	-0.170	-0.900
2020/01/31 13:22:35.6	2.070	-0.120	-0.170	-0.880
2020/01/31 13:22:35.7	2.050	-0.070	-0.160	-0.860
2020/01/31 13:22:35.8	2.040	-0.020	-0.160	-0.840
2020/01/31 13:22:35.9	2.030	0.020	-0.160	-0.820
2020/01/31 13:22:36.0	2.020	0.070	-0.160	-0.790
2020/01/31 13:22:36.1	2.010	0.110	-0.160	-0.770
2020/01/31 13:22:36.2	2.000	0.150	-0.160	-0.740
2020/01/31 13:22:36.3	2.000	0.190	-0.160	-0.710
2020/01/31 13:22:36.4	1.990	0.230	-0.160	-0.680
2020/01/31 13:22:36.5	1.990	0.260	-0.160	-0.650
2020/01/31 13:22:36.6	1.990	0.290	-0.170	-0.620
2020/01/31 13:22:36.7	1.990	0.320	-0.170	-0.590
2020/01/31 13:22:36.8	1.990	0.350	-0.170	-0.550
2020/01/31 13:22:36.9	1.990	0.370	-0.170	-0.510
2020/01/31 13:22:37.0	1.990	0.390	-0.170	-0.470
2020/01/31 13:22:37.1	1.990	0.400	-0.180	-0.430
2020/01/31 13:22:37.2	1.990	0.420	-0.180	-0.390
2020/01/31 13:22:37.3	1.990	0.430	-0.180	-0.350
2020/01/31 13:22:37.4	1.990	0.430	-0.190	-0.300
2020/01/31 13:22:37.5	1.990	0.430	-0.190	-0.260
2020/01/31 13:22:37.6	1.990	0.430	-0.190	-0.210
2020/01/31 13:22:37.7	1.990	0.430	-0.200	-0.160
2020/01/31 13:22:37.8	2.000	0.420	-0.210	-0.120
2020/01/31 13:22:37.9	2.000	0.410	-0.210	-0.080
2020/01/31 13:22:38.0	2.000	0.400	-0.220	-0.030
2020/01/31 13:22:38.1	2.000	0.380	-0.230	0.010
2020/01/31 13:22:38.2	2.010	0.370	-0.250	0.050
2020/01/31 13:22:38.3	2.010	0.350	-0.260	0.090
2020/01/31 13:22:38.4	2.020	0.330	-0.270	0.120
2020/01/31 13:22:38.5	2.020	0.300	-0.290	0.160
2020/01/31 13:22:38.6	2.030	0.280	-0.310	0.190
2020/01/31 13:22:38.7	2.030	0.260	-0.330	0.220
2020/01/31 13:22:38.8	2.040	0.230	-0.360	0.250
2020/01/31 13:22:38.9	2.050	0.200	-0.380	0.270
2020/01/31 13:22:39.0	2.050	0.180	-0.400	0.300
2020/01/31 13:22:39.1	2.060	0.150	-0.430	0.320
2020/01/31 13:22:39.2	2.060	0.130	-0.450	0.340
2020/01/31 13:22:39.3	2.060	0.100	-0.470	0.360
2020/01/31 13:22:39.4	2.070	0.080	-0.500	0.370
2020/01/31 13:22:39.5	2.070	0.050	-0.520	0.390
2020/01/31 13:22:39.6	2.070	0.030	-0.540	0.400
2020/01/31 13:22:39.7	2.070	0.010	-0.560	0.410
2020/01/31 13:22:39.8	2.060	-0.010	-0.580	0.420
2020/01/31 13:22:39.9	2.060	-0.030	-0.590	0.420
2020/01/31 13:22:40.0	2.060	-0.040	-0.610	0.420
2020/01/31 13:22:40.1	2.050	-0.060	-0.620	0.420
2020/01/31 13:22:40.2	2.050	-0.070	-0.630	0.420
2020/01/31 13:22:40.3	2.050	-0.080	-0.640	0.410
2020/01/31 13:22:40.4	2.040	-0.090	-0.640	0.400
2020/01/31 13:22:40.5	2.040	-0.100	-0.650	0.390
2020/01/31 13:22:40.6	2.040	-0.110	-0.650	0.380
2020/01/31 13:22:40.7	2.040	-0.110	-0.650	0.360
2020/01/31 13:22:40.8	2.050	-0.120	-0.650	0.340
2020/01/31 13:22:40.9	2.050	-0.120	-0.650	0.320
2020/01/31 13:22:41.0	2.060	-0.120	-0.650	0.290
2020/01/31 13:22:41.1	2.070	-0.120	-0.650	0.260
2020/01/31 13:22:41.2	2.090	-0.120	-0.640	0.230
2020/01/31 13:22:41.3	2.100	-0.120	-0.640	0.190
2020/01/31 13:22:41.4	2.120	-0.110	-0.640	0.160
2020/01/31 13:22:41.5	2.140	-0.110	-0.630	0.120
2020/01/31 13:22:41.6	2.160	-0.100	-0.630	0.070
2020/01/31 13:22:41.7	2.180	-0.100	-0.620	0.030
2020/01/31 13:22:41.8	2.210	-0.090	-0.610	-0.010
2020/01/31 13:22:41.9	2.240	-0.080	-0.600	-0.060
2020/01/31 13:22:42.0	2.270	-0.070	-0.580	-0.110
2020/01/31 13:22:42.1	2.310	-0.070	-0.570	-0.150
2020/01/31 13:22:42.2	2.340	-0.060	-0.550	-0.200
2020/01/31 13:22:42.3	2.380	-0.050	-0.530	-0.250
2020/01/31 13:22:42.4	2.420	-0.050	-0.510	-0.300
2020/01/31 13:22:42.5	2.450	-0.040	-0.480	-0.350
2020/01/31 13:22:42.6	2.480	-0.040	-0.450	-0.390
2020/01/31 13:22:42.7	2.510	-0.030	-0.420	-0.430
2020/01/31 13:22:42.8	2.550	-0.030	-0.380	-0.470
2020/01/31 13:22:42.9	2.580	-0.020	-0.340	-0.510
2020/01/31 13:22:43.0	2.610	-0.020	-0.290	-0.540
2020/01/31 13:22:43.1	2.640	-0.020	-0.240	-0.570
2020/01/31 13:22:43.2	2.660	-0.020	-0.190	-0.590
2020/01/31 13:22:43.3	2.680	-0.020	-0.140	-0.610
2020/01/31 13:22:43.4	2.700	-0.020	-0.080	-0.620
2020/01/31 13:22:43.5	2.710	-0.020	-0.010	-0.620
2020/01/31 13:22:43.6	2.720	-0.020	0.050	-0.610
2020/01/31 13:22:43.7	2.720	-0.020	0.110	-0.600
2020/01/31 13:22:43.8	2.710	-0.030	0.180	-0.590
2020/01/31 13:22:43.9	2.700	-0.030	0.250	-0.560
2020/01/31 13:22:44.0	2.690	-0.040	0.320	-0.540
2020/01/31 13:22:44.1	2.670	-0.040	0.380	-0.500
2020/01/31 13:22:44.2	2.640	-0.050	0.450	-0.460
2020/01/31 13:22:44.3	2.610	-0.050	0.510	-0.420
2020/01/31 13:22:44.4	2.580	-0.060	0.570	-0.370
2020/01/31 13:22:44.5	2.540	-0.070	0.630	-0.320
2020/01/31 13:22:44.6	2.510	-0.080	0.680	-0.260
2020/01/31 13:22:44.7	2.460	-0.080	0.730	-0.200
2020/01/31 13:22:44.8	2.410	-0.090	0.760	-0.150
2020/01/31 13:22:44.9	2.360	-0.100	0.800	-0.090
2020/01/31 13:22:45.0	2.310	-0.110	0.830	-0.030
2020/01/31 13:22:45.1	2.250	-0.120	0.850	0.020
2020/01/31 13:22:45.2	2.190	-0.130	0.860	0.080
2020/01/31 13:22:45.3	2.130	-0.140	0.860	0.130
2020/01/31 13:22:45.4	2.080	-0.150	0.860	0.190
2020/01/31 13:22:45.5	2.020	-0.160	0.850	0.240
2020/01/31 13:22:45.6	1.980	-0.160	0.830	0.290
2020/01/31 13:22:45.7	1.930	-0.170	0.800	0.330
2020/01/31 13:22:45.8	1.880	-0.180	0.760	0.370
2020/01/31 13:22:45.9	1.830	-0.190	0.710	0.410
2020/01/31 13:22:46.0	1.780	-0.190	0.660	0.440
2020/01/31 13:22:46.1	1.740	-0.200	0.600	0.460
2020/01/31 13:22:46.2	1.700	-0.200	0.530	0.480
2020/01/31 13:22:46.3	1.670	-0.200	0.460	0.490
2020/01/31 13:22:46.4	1.640	-0.200	0.370	0.500
2020/01/31 13:22:46.5	1.620	-0.200	0.290	0.500
2020/01/31 13:22:46.6	1.600	-0.200	0.190	0.500
2020/01/31 13:22:46.7	1.590	-0.190	0.100	0.490
2020/01/31 13:22:46.8	1.580	-0.190	-0.000	0.470
2020/01/31 13:22:46.9	1.570	-0.180	-0.100	0.450
2020/01/31 13:22:47.0	1.570	-0.170	-0.200	0.420
2020/01/31 13:22:47.1	1.560	-0.160	-0.300	0.400
2020/01/31 13:22:47.2	1.570	-0.150	-0.400	0.360
2020/01/31 13:22:47.3	1.570	-0.140	-0.500	0.320
2020/01/31 13:22:47.4	1.580	-0.120	-0.600	0.280
2020/01/31 13:22:47.5	1.590	-0.110	-0.690	0.240
2020/01/31 13:22:47.6	1.620	-0.090	-0.770	0.190
2020/01/31 13:22:47.7	1.630	-0.070	-0.850	0.140
2020/01/31 13:22:47.8	1.650	-0.050	-0.920	0.090
2020/01/31 13:22:47.9	1.660	-0.040	-0.990	0.040
2020/01/31 13:22:48.0	1.680	-0.020	-1.050	-0.010
2020/01/31 13:22:48.1	1.700	0.000	-1.100	-0.070
2020/01/31 13:22:48.2	1.710	0.020	-1.150	-0.120
2020/01/31 13:22:48.3	1.730	0.040	-1.180	-0.180
2020/01/31 13:22:48.4	1.750	0.070	-1.210	-0.230
2020/01/31 13:22:48.5	1.770	0.090	-1.230	-0.290
2020/01/31 13:22:48.6	1.780	0.110	-1.240	-0.340
2020/01/31 13:22:48.7	1.800	0.130	-1.240	-0.390
2020/01/31 13:22:48.8	1.820	0.150	-1.240	-0.440
2020/01/31 13:22:48.9	1.840	0.170	-1.220	-0.490
2020/01/31 13:22:49.0	1.860	0.180	-1.200	-0.530
2020/01/31 13:22:49.1	1.870	0.200	-1.180	-0.570
2020/01/31 13:22:49.2	1.890	0.220	-1.150	-0.610
2020/01/31 13:22:49.3	1.910	0.230	-1.120	-0.650
2020/01/31 13:22:49.4	1.920	0.250	-1.080	-0.680
2020/01/31 13:22:49.5	1.940	0.260	-1.030	-0.710
2020/01/31 13:22:49.6	1.950	0.280	-0.990	-0.750
2020/01/31 13:22:49.7	1.960	0.290	-0.940	-0.770
2020/01/31 13:22:49.8	1.980	0.300	-0.890	-0.790
2020/01/31 13:22:49.9	1.990	0.310	-0.840	-0.820
2020/01/31 13:22:50.0	2.000	0.310	-0.790	-0.830
2020/01/31 13:22:50.1	2.010	0.320	-0.740	-0.850
2020/01/31 13:22:50.2	2.020	0.330	-0.690	-0.870
2020/01/31 13:22:50.3	2.030	0.330	-0.640	-0.880
2020/01/31 13:22:50.4	2.030	0.330	-0.600	-0.890
2020/01/31 13:22:50.5	2.040	0.330	-0.560	-0.900
2020/01/31 13:22:50.6	2.050	0.330	-0.520	-0.910
2020/01/31 13:22:50.7	2.050	0.330	-0.480	-0.910
2020/01/31 13:22:50.8	2.060	0.330	-0.450	-0.920
2020/01/31 13:22:50.9	2.070	0.320	-0.420	-0.930
2020/01/31 13:22:51.0	2.070	0.320	-0.400	-0.930
2020/01/31 13:22:51.1	2.080	0.310	-0.370	-0.940
2020/01/31 13:22:51.2	2.090	0.300	-0.360	-0.940
2020/01/31 13:22:51.3	2.100	0.290	-0.340	-0.950
2020/01/31 13:22:51.4	2.110	0.290	-0.330	-0.950
2020/01/31 13:22:51.5	2.120	0.280	-0.320	-0.960
2020/01/31 13:22:51.6	2.130	0.270	-0.320	-0.960
2020/01/31 13:22:51.7	2.150	0.250	-0.320	-0.970
2020/01/31 13:22:51.8	2.170	0.240	-0.320	-0.970
2020/01/31 13:22:51.9	2.190	0.230	-0.330	-0.980
2020/01/31 13:22:52.0	2.210	0.210	-0.330	-0.980
2020/01/31 13:22:52.1	2.230	0.200	-0.340	-0.980
2020/01/31 13:22:52.2	2.250	0.180	-0.340	-0.990
2020/01/31 13:22:52.3	2.280	0.170	-0.350	-0.990
2020/01/31 13:22:52.4	2.300	0.150	-0.350	-0.990
2020/01/31 13:22:52.5	2.330	0.130	-0.360	-1.000
2020/01/31 13:22:52.6	2.350	0.110	-0.360	-1.000
2020/01/31 13:22:52.7	2.380	0.090	-0.350	-1.000
2020/01/31 13:22:52.8	2.410	0.060	-0.350	-1.000
2020/01/31 13:22:52.9	2.430	0.040	-0.340	-1.010
2020/01/31 13:22:53.0	2.460	0.020	-0.330	-1.010
2020/01/31 13:22:53.1	2.490	-0.010	-0.320	-1.010
2020/01/31 13:22:53.2	2.510	-0.030	-0.300	-1.010
2020/01/31 13:22:53.3	2.530	-0.060	-0.270	-1.000
2020/01/31 13:22:53.4	2.550	-0.080	-0.240	-0.990
2020/01/31 13:22:53.5	2.570	-0.110	-0.210	-0.980
2020/01/31 13:22:53.6	2.580	-0.140	-0.170	-0.970
2020/01/31 13:22:53.7	2.600	-0.160	-0.130	-0.950
2020/01/31 13:22:53.8	2.610	-0.190	-0.080	-0.930
2020/01/31 13:22:53.9	2.620	-0.220	-0.030	-0.900
2020/01/31 13:22:54.0	2.620	-0.250	0.020	-0.870
2020/01/31 13:22:54.1	2.620	-0.270	0.080	-0.830
2020/01/31 13:22:54.2	2.620	-0.300	0.140	-0.790
2020/01/31 13:22:54.3	2.620	-0.330	0.200	-0.750
2020/01/31 13:22:54.4	2.610	-0.360	0.260	-0.700
2020/01/31 13:22:54.5	2.600	-0.380	0.320	-0.640
2020/01/31 13:22:54.6	2.580	-0.410	0.390	-0.580
2020/01/31 13:22:54.7	2.560	-0.430	0.450	-0.520
2020/01/31 13:22:54.8	2.540	-0.460	0.510	-0.450
2020/01/31 13:22:54.9	2.520	-0.480	0.570	-0.380
2020/01/31 13:22:55.0	2.490	-0.500	0.620	-0.310
2020/01/31 13:22:55.1	2.460	-0.520	0.670	-0.230
2020/01/31 13:22:55.2	2.420	-0.540	0.720	-0.160
2020/01/31 13:22:55.3	2.380	-0.550	0.760	-0.080
2020/01/31 13:22:55.4	2.340	-0.570	0.790	-0.000
2020/01/31 13:22:55.5	2.300	-0.580	0.820	0.080
2020/01/31 13:22:55.6	2.260	-0.590	0.840	0.160
2020/01/31 13:22:55.7	2.210	-0.600	0.850	0.230
2020/01/31 13:22:55.8	2.170	-0.610	0.860	0.300
2020/01/31 13:22:55.9	2.120	-0.610	0.860	0.370
2020/01/31 13:22:56.0	2.080	-0.610	0.850	0.440
2020/01/31 13:22:56.1	2.030	-0.610	0.830	0.500
2020/01/31 13:22:56.2	1.990	-0.600	0.800	0.560
2020/01/31 13:22:56.3	1.940	-0.600	0.770	0.610
2020/01/31 13:22:56.4	1.900	-0.580	0.730	0.660
2020/01/31 13:22:56.5	1.860	-0.570	0.680	0.710
2020/01/31 13:22:56.6	1.810	-0.550	0.630	0.750
2020/01/31 13:22:56.7	1.770	-0.530	0.560	0.780
2020/01/31 13:22:56.8	1.730	-0.500	0.500	0.810
2020/01/31 13:22:56.9	1.700	-0.470	0.430	0.840
2020/01/31 13:22:57.0	1.670	-0.440	0.350	0.860
2020/01/31 13:22:57.1	1.640	-0.410	0.270	0.880
2020/01/31 13:22:57.2	1.620	-0.370	0.190	0.900
2020/01/31 13:22:57.3	1.590	-0.330	0.110	0.910
2020/01/31 13:22:57.4	1.580	-0.290	0.030	0.920
2020/01/31 13:22:57.5	1.560	-0.240	-0.060	0.920
2020/01/31 13:22:57.6	1.560	-0.200	-0.140	0.920
2020/01/31 13:22:57.7	1.550	-0.150	-0.220	0.920
2020/01/31 13:22:57.8	1.550	-0.100	-0.300	0.920
2020/01/31 13:22:57.9	1.540	-0.050	-0.380	0.910
2020/01/31 13:22:58.0	1.540	0.000	-0.450	0.910
2020/01/31 13:22:58.1	1.550	0.060	-0.520	0.890
2020/01/31 13:22:58.2	1.550	0.110	-0.590	0.880
2020/01/31 13:22:58.3	1.560	0.160	-0.650	0.860
2020/01/31 13:22:58.4	1.570	0.210	-0.710	0.840
2020/01/31 13:22:58.5	1.590	0.270	-0.760	0.820
2020/01/31 13:22:58.6	1.600	0.320	-0.810	0.800
2020/01/31 13:22:58.7	1.620	0.370	-0.860	0.770
2020/01/31 13:22:58.8	1.640	0.410	-0.890	0.740
2020/01/31 13:22:58.9	1.650	0.460	-0.930	0.710
2020/01/31 13:22:59.0	1.670	0.500	-0.960	0.680
2020/01/31 13:22:59.1	1.690	0.540	-0.980	0.650
2020/01/31 13:22:59.2	1.710	0.580	-1.000	0.610
2020/01/31 13:22:59.3	1.720	0.620	-1.010	0.580
2020/01/31 13:22:59.4	1.740	0.650	-1.020	0.550
2020/01/31 13:22:59.5	1.750	0.680	-1.020	0.510
2020/01/31 13:22:59.6	1.760	0.700	-1.020	0.480
2020/01/31 13:22:59.7	1.770	0.730	-1.010	0.450
2020/01/31 13:22:59.8	1.780	0.740	-1.000	0.410
2020/01/31 13:22:59.9	1.790	0.750	-0.980	0.380
2020/01/31 13:23:00.0	1.790	0.760	-0.960	0.350
2020/01/31 13:23:00.1	1.790	0.760	-0.940	0.320
2020/01/31 13:23:00.2	1.800	0.760	-0.910	0.290
2020/01/31 13:23:00.3	1.790	0.760	-0.890	0.260
2020/01/31 13:23:00.4	1.790	0.750	-0.850	0.230
2020/01/31 13:23:00.5	1.790	0.730	-0.820	0.200
2020/01/31 13:23:00.6	1.780	0.710	-0.790	0.170
2020/01/31 13:23:00.7	1.780	0.680	-0.760	0.130
2020/01/31 13:23:00.8	1.770	0.660	-0.720	0.100
2020/01/31 13:23:00.9	1.770	0.620	-0.680	0.060
2020/01/31 13:23:01.0	1.760	0.590	-0.650	0.020
2020/01/31 13:23:01.1	1.750	0.540	-0.610	-0.020
2020/01/31 13:23:01.2	1.750	0.500	-0.570	-0.070
2020/01/31 13:23:01.3	1.740	0.460	-0.540	-0.110
2020/01/31 13:23:01.4	1.740	0.410	-0.510	-0.160
2020/01/31 13:23:01.5	1.730	0.360	-0.480	-0.210
2020/01/31 13:23:01.6	1.730	0.300	-0.450	-0.260
2020/01/31 13:23:01.7	1.730	0.250	-0.420	-0.320
2020/01/31 13:23:01.8	1.730	0.200	-0.400	-0.380
2020/01/31 13:23:01.9	1.740	0.150	-0.380	-0.430
2020/01/31 13:23:02.0	1.740	0.090	-0.360	-0.490
2020/01/31 13:23:02.1	1.750	0.040	-0.340	-0.550
2020/01/31 13:23:02.2	1.750	-0.010	-0.330	-0.610
2020/01/31 13:23:02.3	1.760	-0.050	-0.320	-0.670
2020/01/31 13:23:02.4	1.780	-0.100	-0.320	-0.740
2020/01/31 13:23:02.5	1.790	-0.140	-0.310	-0.800
2020/01/31 13:23:02.6	1.820	-0.180	-0.310	-0.860
2020/01/31 13:23:02.7	1.830	-0.220	-0.310	-0.920
2020/01/31 13:23:02.8	1.860	-0.250	-0.310	-0.990
2020/01/31 13:23:02.9	1.880	-0.280	-0.310	-1.050
2020/01/31 13:23:03.0	1.900	-0.310	-0.310	-1.110
2020/01/31 13:23:03.1	1.930	-0.330	-0.320	-1.170
2020/01/31 13:23:03.2	1.960	-0.350	-0.320	-1.230
2020/01/31 13:23:03.3	1.980	-0.370	-0.320	-1.290
2020/01/31 13:23:03.4	2.010	-0.380	-0.330	-1.350
2020/01/31 13:23:03.5	2.040	-0.390	-0.330	-1.410
2020/01/31 13:23:03.6	2.060	-0.400	-0.330	-1.460
2020/01/31 13:23:03.7	2.090	-0.400	-0.330	-1.510
2020/01/31 13:23:03.8	2.120	-0.400	-0.330	-1.560
2020/01/31 13:23:03.9	2.140	-0.400	-0.330	-1.610
2020/01/31 13:23:04.0	2.160	-0.400	-0.330	-1.650
2020/01/31 13:23:04.1	2.180	-0.400	-0.330	-1.690
2020/01/31 13:23:04.2	2.200	-0.390	-0.320	-1.720
2020/01/31 13:23:04.3	2.210	-0.380	-0.320	-1.760
2020/01/31 13:23:04.4	2.230	-0.380	-0.310	-1.780
2020/01/31 13:23:04.5	2.240	-0.370	-0.300	-1.810
2020/01/31 13:23:04.6	2.240	-0.360	-0.290	-1.830
2020/01/31 13:23:04.7	2.250	-0.350	-0.280	-1.840
2020/01/31 13:23:04.8	2.260	-0.330	-0.270	-1.850
2020/01/31 13:23:04.9	2.260	-0.320	-0.250	-1.850
2020/01/31 13:23:05.0	2.270	-0.310	-0.240	-1.850
2020/01/31 13:23:05.1	2.270	-0.300	-0.220	-1.850
2020/01/31 13:23:05.2	2.280	-0.290	-0.200	-1.840
2020/01/31 13:23:05.3	2.280	-0.270	-0.180	-1.820
2020/01/31 13:23:05.4	2.280	-0.260	-0.160	-1.800
2020/01/31 13:23:05.5	2.270	-0.250	-0.140	-1.770
2020/01/31 13:23:05.6	2.270	-0.240	-0.120	-1.740
2020/01/31 13:23:05.7	2.260	-0.230	-0.100	-1.700
2020/01/31 13:23:05.8	2.250	-0.220	-0.080	-1.660
2020/01/31 13:23:05.9	2.240	-0.210	-0.050	-1.610
2020/01/31 13:23:06.0	2.230	-0.200	-0.030	-1.560
2020/01/31 13:23:06.1	2.220	-0.190	-0.000	-1.500
2020/01/31 13:23:06.2	2.200	-0.180	0.020	-1.440
2020/01/31 13:23:06.3	2.190	-0.170	0.050	-1.380
2020/01/31 13:23:06.4	2.170	-0.170	0.070	-1.320
2020/01/31 13:23:06.5	2.150	-0.160	0.100	-1.250
2020/01/31 13:23:06.6	2.140	-0.150	0.120	-1.170
2020/01/31 13:23:06.7	2.120	-0.150	0.150	-1.090
2020/01/31 13:23:06.8	2.100	-0.140	0.170	-1.020
2020/01/31 13:23:06.9	2.070	-0.130	0.200	-0.940
2020/01/31 13:23:07.0	2.050	-0.130	0.220	-0.860
2020/01/31 13:23:07.1	2.030	-0.120	0.240	-0.770
2020/01/31 13:23:07.2	2.000	-0.120	0.260	-0.690
2020/01/31 13:23:07.3	1.980	-0.110	0.280	-0.610
2020/01/31 13:23:07.4	1.960	-0.110	0.300	-0.530
2020/01/31 13:23:07.5	1.940	-0.100	0.320	-0.440
2020/01/31 13:23:07.6	1.920	-0.090	0.340	-0.350
2020/01/31 13:23:07.7	1.900	-0.090	0.350	-0.270
2020/01/31 13:23:07.8	1.870	-0.080	0.360	-0.190
2020/01/31 13:23:07.9	1.850	-0.070	0.370	-0.110
2020/01/31 13:23:08.0	1.830	-0.060	0.380	-0.030
2020/01/31 13:23:08.1	1.810	-0.060	0.380	0.050
2020/01/31 13:23:08.2	1.790	-0.050	0.390	0.120
2020/01/31 13:23:08.3	1.760	-0.040	0.390	0.200
2020/01/31 13:23:08.4	1.740	-0.030	0.390	0.270
2020/01/31 13:23:08.5	1.720	-0.020	0.390	0.340
2020/01/31 13:23:08.6	1.710	-0.020	0.380	0.420
2020/01/31 13:23:08.7	1.680	-0.010	0.370	0.490
2020/01/31 13:23:08.8	1.660	0.000	0.360	0.560
2020/01/31 13:23:08.9	1.630	0.010	0.350	0.630
2020/01/31 13:23:09.0	1.600	0.020	0.340	0.690
2020/01/31 13:23:09.1	1.570	0.030	0.330	0.760
2020/01/31 13:23:09.2	1.530	0.040	0.310	0.820
2020/01/31 13:23:09.3	1.500	0.040	0.290	0.880
2020/01/31 13:23:09.4	1.460	0.050	0.270	0.940
2020/01/31 13:23:09.5	1.430	0.060	0.250	0.990
2020/01/31 13:23:09.6	1.390	0.070	0.220	1.040
2020/01/31 13:23:09.7	1.360	0.080	0.190	1.090
2020/01/31 13:23:09.8	1.320	0.080	0.160	1.130
2020/01/31 13:23:09.9	1.290	0.090	0.130	1.160
2020/01/31 13:23:10.0	1.260	0.100	0.090	1.190
2020/01/31 13:23:10.1	1.230	0.110	0.050	1.220
2020/01/31 13:23:10.2	1.200	0.120	0.010	1.240
2020/01/31 13:23:10.3	1.170	0.130	-0.030	1.260
2020/01/31 13:23:10.4	1.140	0.140	-0.080	1.270
2020/01/31 13:23:10.5	1.120	0.150	-0.130	1.270
2020/01/31 13:23:10.6	1.090	0.160	-0.180	1.260
2020/01/31 13:23:10.7	1.070	0.170	-0.230	1.260
2020/01/31 13:23:10.8	1.060	0.180	-0.280	1.250
2020/01/31 13:23:10.9	1.040	0.190	-0.330	1.230
2020/01/31 13:23:11.0	1.030	0.200	-0.390	1.210
2020/01/31 13:23:11.1	1.020	0.210	-0.440	1.190
2020/01/31 13:23:11.2	1.010	0.220	-0.500	1.160
2020/01/31 13:23:11.3	1.010	0.230	-0.550	1.130
2020/01/31 13:23:11.4	1.010	0.240	-0.610	1.090
2020/01/31 13:23:11.5	1.010	0.250	-0.660	1.050
2020/01/31 13:23:11.6	1.020	0.260	-0.710	1.000
2020/01/31 13:23:11.7	1.030	0.260	-0.750	0.960
2020/01/31 13:23:11.8	1.030	0.270	-0.800	0.910
2020/01/31 13:23:11.9	1.040	0.270	-0.840	0.850
2020/01/31 13:23:12.0	1.050	0.280	-0.880	0.800
2020/01/31 13:23:12.1	1.070	0.280	-0.910	0.740
2020/01/31 13:23:12.2	1.080	0.280	-0.950	0.680
2020/01/31 13:23:12.3	1.090	0.280	-0.970	0.620
2020/01/31 13:23:12.4	1.110	0.270	-1.000	0.560
2020/01/31 13:23:12.5	1.120	0.260	-1.020	0.500
2020/01/31 13:23:12.6	1.130	0.260	-1.030	0.430
2020/01/31 13:23:12.7	1.140	0.250	-1.040	0.360
2020/01/31 13:23:12.8	1.160	0.230	-1.050	0.300
2020/01/31 13:23:12.9	1.170	0.220	-1.050	0.230
2020/01/31 13:23:13.0	1.190	0.200	-1.050	0.170
2020/01/31 13:23:13.1	1.200	0.190	-1.040	0.100
2020/01/31 13:23:13.2	1.220	0.170	-1.030	0.040
2020/01/31 13:23:13.3	1.230	0.150	-1.020	-0.030
2020/01/31 13:23:13.4	1.240	0.120	-1.000	-0.090
2020/01/31 13:23:13.5	1.260	0.100	-0.980	-0.160
2020/01/31 13:23:13.6	1.250	0.080	-0.960	-0.220
2020/01/31 13:23:13.7	1.260	0.050	-0.930	-0.280
2020/01/31 13:23:13.8	1.270	0.030	-0.900	-0.340
2020/01/31 13:23:13.9	1.280	0.000	-0.870	-0.400
2020/01/31 13:23:14.0	1.290	-0.020	-0.830	-0.460
2020/01/31 13:23:14.1	1.300	-0.050	-0.800	-0.520
2020/01/31 13:23:14.2	1.310	-0.070	-0.770	-0.570
2020/01/31 13:23:14.3	1.320	-0.090	-0.730	-0.620
2020/01/31 13:23:14.4	1.330	-0.110	-0.700	-0.670
2020/01/31 13:23:14.5	1.340	-0.130	-0.660	-0.720
2020/01/31 13:23:14.6	1.350	-0.150	-0.630	-0.770
2020/01/31 13:23:14.7	1.360	-0.160	-0.600	-0.820
2020/01/31 13:23:14.8	1.380	-0.170	-0.570	-0.870
2020/01/31 13:23:14.9	1.390	-0.180	-0.550	-0.910
2020/01/31 13:23:15.0	1.410	-0.190	-0.520	-0.950
2020/01/31 13:23:15.1	1.430	-0.190	-0.500	-0.990
2020/01/31 13:23:15.2	1.440	-0.190	-0.480	-1.030
2020/01/31 13:23:15.3	1.470	-0.190	-0.460	-1.070
2020/01/31 13:23:15.4	1.490	-0.180	-0.440	-1.110
2020/01/31 13:23:15.5	1.510	-0.180	-0.430	-1.140
2020/01/31 13:23:15.6	1.550	-0.160	-0.420	-1.170
2020/01/31 13:23:15.7	1.570	-0.150	-0.410	-1.200
2020/01/31 13:23:15.8	1.600	-0.140	-0.390	-1.230
2020/01/31 13:23:15.9	1.620	-0.120	-0.380	-1.250
2020/01/31 13:23:16.0	1.640	-0.100	-0.370	-1.270
2020/01/31 13:23:16.1	1.660	-0.080	-0.360	-1.290
2020/01/31 13:23:16.2	1.680	-0.060	-0.340	-1.300
2020/01/31 13:23:16.3	1.700	-0.040	-0.330	-1.300
2020/01/31 13:23:16.4	1.720	-0.010	-0.310	-1.300
2020/01/31 13:23:16.5	1.730	0.010	-0.290	-1.300
2020/01/31 13:23:16.6	1.740	0.030	-0.260	-1.280
2020/01/31 13:23:16.7	1.750	0.050	-0.240	-1.260
2020/01/31 13:23:16.8	1.750	0.070	-0.210	-1.240
2020/01/31 13:23:16.9	1.750	0.090	-0.180	-1.220
2020/01/31 13:23:17.0	1.750	0.110	-0.150	-1.180
2020/01/31 13:23:17.1	1.740	0.120	-0.110	-1.150
2020/01/31 13:23:17.2	1.730	0.140	-0.070	-1.110
2020/01/31 13:23:17.3	1.720	0.150	-0.030	-1.070
2020/01/31 13:23:17.4	1.700	0.160	0.010	-1.020
2020/01/31 13:23:17.5	1.680	0.170	0.050	-0.970
2020/01/31 13:23:17.6	1.660	0.170	0.090	-0.910
2020/01/31 13:23:17.7	1.640	0.170	0.130	-0.860
2020/01/31 13:23:17.8	1.610	0.170	0.180	-0.810
2020/01/31 13:23:17.9	1.580	0.170	0.220	-0.760
2020/01/31 13:23:18.0	1.550	0.160	0.270	-0.700
2020/01/31 13:23:18.1	1.520	0.150	0.310	-0.640
2020/01/31 13:23:18.2	1.490	0.140	0.350	-0.590
2020/01/31 13:23:18.3	1.460	0.130	0.390	-0.530
2020/01/31 13:23:18.4	1.430	0.120	0.420	-0.480
2020/01/31 13:23:18.5	1.400	0.100	0.460	-0.420
2020/01/31 13:23:18.6	1.370	0.090	0.480	-0.370
2020/01/31 13:23:18.7	1.340	0.070	0.510	-0.310
2020/01/31 13:23:18.8	1.310	0.050	0.530	-0.260
2020/01/31 13:23:18.9	1.280	0.030	0.550	-0.210
2020/01/31 13:23:19.0	1.250	0.020	0.570	-0.150
2020/01/31 13:23:19.1	1.220	-0.000	0.580	-0.100
2020/01/31 13:23:19.2	1.190	-0.020	0.590	-0.050
2020/01/31 13:23:19.3	1.160	-0.040	0.600	-0.000
2020/01/31 13:23:19.4	1.130	-0.060	0.600	0.050
2020/01/31 13:23:19.5	1.100	-0.070	0.600	0.090
2020/01/31 13:23:19.6	1.070	-0.090	0.600	0.140
2020/01/31 13:23:19.7	1.050	-0.100	0.590	0.180
2020/01/31 13:23:19.8	1.020	-0.120	0.580	0.220
2020/01/31 13:23:19.9	1.000	-0.130	0.560	0.260
2020/01/31 13:23:20.0	0.970	-0.140	0.540	0.290
2020/01/31 13:23:20.1	0.950	-0.150	0.520	0.320
2020/01/31 13:23:20.2	0.920	-0.160	0.500	0.350
2020/01/31 13:23:20.3	0.900	-0.160	0.470	0.380
2020/01/31 13:23:20.4	0.880	-0.170	0.440	0.400
2020/01/31 13:23:20.5	0.860	-0.170	0.410	0.420
2020/01/31 13:23:20.6	0.860	-0.180	0.380	0.440
2020/01/31 13:23:20.7	0.850	-0.180	0.350	0.460
2020/01/31 13:23:20.8	0.830	-0.180	0.310	0.480
2020/01/31 13:23:20.9	0.810	-0.180	0.280	0.500
2020/01/31 13:23:21.0	0.790	-0.180	0.240	0.510
2020/01/31 13:23:21.1	0.780	-0.170	0.210	0.520
2020/01/31 13:23:21.2	0.760	-0.170	0.170	0.540
2020/01/31 13:23:21.3	0.750	-0.170	0.140	0.550
2020/01/31 13:23:21.4	0.730	-0.170	0.100	0.560
2020/01/31 13:23:21.5	0.720	-0.160	0.070	0.570
2020/01/31 13:23:21.6	0.710	-0.160	0.030	0.570
2020/01/31 13:23:21.7	0.690	-0.160	-0.010	0.580
2020/01/31 13:23:21.8	0.680	-0.150	-0.040	0.590
2020/01/31 13:23:21.9	0.670	-0.150	-0.080	0.590
2020/01/31 13:23:22.0	0.660	-0.140	-0.110	0.600
2020/01/31 13:23:22.1	0.650	-0.140	-0.150	0.600
2020/01/31 13:23:22.2	0.640	-0.140	-0.180	0.600
2020/01/31 13:23:22.3	0.630	-0.130	-0.220	0.600
2020/01/31 13:23:22.4	0.620	-0.130	-0.250	0.600
2020/01/31 13:23:22.5	0.610	-0.130	-0.290	0.600
2020/01/31 13:23:22.6	0.620	-0.120	-0.330	0.590
2020/01/31 13:23:22.7	0.620	-0.120	-0.370	0.590
2020/01/31 13:23:22.8	0.610	-0.110	-0.410	0.590
2020/01/31 13:23:22.9	0.620	-0.110	-0.450	0.580
2020/01/31 13:23:23.0	0.620	-0.100	-0.500	0.580
2020/01/31 13:23:23.1	0.620	-0.090	-0.540	0.570
2020/01/31 13:23:23.2	0.630	-0.090	-0.590	0.560
2020/01/31 13:23:23.3	0.630	-0.080	-0.640	0.560
2020/01/31 13:23:23.4	0.630	-0.070	-0.680	0.550
2020/01/31 13:23:23.5	0.640	-0.060	-0.730	0.540
2020/01/31 13:23:23.6	0.640	-0.050	-0.780	0.540
2020/01/31 13:23:23.7	0.640	-0.030	-0.830	0.530
2020/01/31 13:23:23.8	0.650	-0.020	-0.870	0.520
2020/01/31 13:23:23.9	0.650	-0.010	-0.920	0.510
2020/01/31 13:23:24.0	0.660	0.000	-0.960	0.500
2020/01/31 13:23:24.1	0.660	0.020	-1.010	0.490
2020/01/31 13:23:24.2	0.670	0.030	-1.050	0.470
2020/01/31 13:23:24.3	0.670	0.040	-1.090	0.450
2020/01/31 13:23:24.4	0.680	0.060	-1.120	0.420
2020/01/31 13:23:24.5	0.690	0.070	-1.160	0.400
2020/01/31 13:23:24.6	0.690	0.090	-1.190	0.360
2020/01/31 13:23:24.7	0.700	0.100	-1.220	0.330
2020/01/31 13:23:24.8	0.720	0.110	-1.250	0.290
2020/01/31 13:23:24.9	0.740	0.130	-1.270	0.250
2020/01/31 13:23:25.0	0.760	0.140	-1.290	0.200
2020/01/31 13:23:25.1	0.780	0.150	-1.310	0.150
2020/01/31 13:23:25.2	0.810	0.170	-1.330	0.090
2020/01/31 13:23:25.3	0.840	0.180	-1.330	0.030
2020/01/31 13:23:25.4	0.870	0.190	-1.340	-0.030
2020/01/31 13:23:25.5	0.910	0.200	-1.340	-0.090
2020/01/31 13:23:25.6	0.940	0.210	-1.340	-0.150
2020/01/31 13:23:25.7	0.970	0.220	-1.320	-0.210
2020/01/31 13:23:25.8	1.010	0.220	-1.310	-0.270
2020/01/31 13:23:25.9	1.040	0.230	-1.280	-0.320
2020/01/31 13:23:26.0	1.070	0.230	-1.250	-0.370
2020/01/31 13:23:26.1	1.100	0.230	-1.210	-0.420
2020/01/31 13:23:26.2	1.120	0.220	-1.160	-0.460
2020/01/31 13:23:26.3	1.140	0.220	-1.110	-0.500
2020/01/31 13:23:26.4	1.150	0.210	-1.040	-0.540
2020/01/31 13:23:26.5	1.170	0.190	-0.980	-0.580
2020/01/31 13:23:26.6	1.180	0.180	-0.900	-0.600
2020/01/31 13:23:26.7	1.190	0.160	-0.820	-0.640
2020/01/31 13:23:26.8	1.200	0.140	-0.730	-0.670
2020/01/31 13:23:26.9	1.200	0.120	-0.640	-0.700
2020/01/31 13:23:27.0	1.210	0.100	-0.550	-0.730
2020/01/31 13:23:27.1	1.210	0.070	-0.450	-0.760
2020/01/31 13:23:27.2	1.210	0.040	-0.350	-0.780
2020/01/31 13:23:27.3	1.210	0.020	-0.250	-0.810
2020/01/31 13:23:27.4	1.210	-0.010	-0.150	-0.840
2020/01/31 13:23:27.5	1.210	-0.040	-0.050	-0.860
2020/01/31 13:23:27.6	1.210	-0.070	0.040	-0.890
2020/01/31 13:23:27.7	1.210	-0.100	0.140	-0.910
2020/01/31 13:23:27.8	1.210	-0.130	0.230	-0.930
2020/01/31 13:23:27.9	1.210	-0.150	0.320	-0.950
2020/01/31 13:23:28.0	1.210	-0.180	0.410	-0.970
2020/01/31 13:23:28.1	1.210	-0.200	0.490	-0.980
2020/01/31 13:23:28.2	1.210	-0.220	0.560	-1.000
2020/01/31 13:23:28.3	1.210	-0.240	0.630	-1.000
2020/01/31 13:23:28.4	1.210	-0.250	0.690	-1.010
2020/01/31 13:23:28.5	1.210	-0.260	0.750	-1.010
2020/01/31 13:23:28.6	1.230	-0.260	0.790	-1.000
2020/01/31 13:23:28.7	1.230	-0.260	0.830	-0.990
2020/01/31 13:23:28.8	1.230	-0.260	0.860	-0.980
2020/01/31 13:23:28.9	1.230	-0.250	0.890	-0.960
2020/01/31 13:23:29.0	1.220	-0.240	0.900	-0.940
2020/01/31 13:23:29.1	1.220	-0.230	0.910	-0.910
2020/01/31 13:23:29.2	1.210	-0.210	0.920	-0.870
2020/01/31 13:23:29.3	1.190	-0.190	0.910	-0.830
2020/01/31 13:23:29.4	1.180	-0.170	0.900	-0.790
2020/01/31 13:23:29.5	1.160	-0.140	0.890	-0.740
2020/01/31 13:23:29.6	1.150	-0.110	0.870	-0.680
2020/01/31 13:23:29.7	1.130	-0.090	0.840	-0.630
2020/01/31 13:23:29.8	1.100	-0.060	0.810	-0.580
2020/01/31 13:23:29.9	1.070	-0.030	0.770	-0.530
2020/01/31 13:23:30.0	1.030	0.010	0.730	-0.470
2020/01/31 13:23:30.1	1.000	0.040	0.690	-0.420
2020/01/31 13:23:30.2	0.960	0.070	0.640	-0.370
2020/01/31 13:23:30.3	0.920	0.100	0.590	-0.310
2020/01/31 13:23:30.4	0.870	0.130	0.530	-0.260
2020/01/31 13:23:30.5	0.830	0.150	0.480	-0.210
2020/01/31 13:23:30.6	0.790	0.180	0.420	-0.150
2020/01/31 13:23:30.7	0.740	0.200	0.360	-0.100
2020/01/31 13:23:30.8	0.690	0.230	0.290	-0.050
2020/01/31 13:23:30.9	0.640	0.250	0.230	0.010
2020/01/31 13:23:31.0	0.580	0.270	0.160	0.060
2020/01/31 13:23:31.1	0.530	0.280	0.090	0.110
2020/01/31 13:23:31.2	0.480	0.300	0.030	0.160
2020/01/31 13:23:31.3	0.420	0.310	-0.040	0.220
2020/01/31 13:23:31.4	0.370	0.320	-0.110	0.270
2020/01/31 13:23:31.5	0.320	0.330	-0.170	0.320
2020/01/31 13:23:31.6	0.270	0.330	-0.240	0.370
2020/01/31 13:23:31.7	0.220	0.330	-0.300	0.410
2020/01/31 13:23:31.8	0.180	0.330	-0.360	0.450
2020/01/31 13:23:31.9	0.130	0.330	-0.420	0.480
2020/01/31 13:23:32.0	0.100	0.320	-0.480	0.520
2020/01/31 13:23:32.1	0.060	0.320	-0.530	0.540
2020/01/31 13:23:32.2	0.030	0.310	-0.590	0.560
2020/01/31 13:23:32.3	0.000	0.300	-0.640	0.580
2020/01/31 13:23:32.4	359.980	0.290	-0.680	0.590
2020/01/31 13:23:32.5	359.960	0.270	-0.730	0.590
2020/01/31 13:23:32.6	359.940	0.260	-0.770	0.580
2020/01/31 13:23:32.7	359.930	0.240	-0.810	0.570
2020/01/31 13:23:32.8	359.930	0.230	-0.840	0.560
2020/01/31 13:23:32.9	359.920	0.210	-0.870	0.530
2020/01/31 13:23:33.0	359.930	0.200	-0.900	0.510
2020/01/31 13:23:33.1	359.940	0.180	-0.920	0.470
2020/01/31 13:23:33.2	359.950	0.170	-0.930	0.440
2020/01/31 13:23:33.3	359.960	0.150	-0.950	0.400
2020/01/31 13:23:33.4	359.980	0.140	-0.950	0.350
2020/01/31 13:23:33.5	0.000	0.130	-0.950	0.310
2020/01/31 13:23:33.6	0.010	0.110	-0.950	0.250
2020/01/31 13:23:33.7	0.030	0.100	-0.940	0.200
2020/01/31 13:23:33.8	0.060	0.080	-0.930	0.150
2020/01/31 13:23:33.9	0.080	0.070	-0.910	0.100
2020/01/31 13:23:34.0	0.110	0.060	-0.880	0.050
2020/01/31 13:23:34.1	0.140	0.040	-0.850	0.000
2020/01/31 13:23:34.2	0.170	0.030	-0.810	-0.050
2020/01/31 13:23:34.3	0.190	0.010	-0.760	-0.090
2020/01/31 13:23:34.4	0.220	-0.000	-0.720	-0.140
2020/01/31 13:23:34.5	0.250	-0.020	-0.670	-0.180
2020/01/31 13:23:34.6	0.270	-0.040	-0.610	-0.210
2020/01/31 13:23:34.7	0.290	-0.060	-0.560	-0.240
2020/01/31 13:23:34.8	0.320	-0.070	-0.500	-0.270
2020/01/31 13:23:34.9	0.340	-0.090	-0.430	-0.300
2020/01/31 13:23:35.0	0.360	-0.110	-0.370	-0.330
2020/01/31 13:23:35.1	0.390	-0.130	-0.310	-0.350
2020/01/31 13:23:35.2	0.410	-0.160	-0.250	-0.380
2020/01/31 13:23:35.3	0.430	-0.180	-0.190	-0.400
2020/01/31 13:23:35.4	0.450	-0.200	-0.140	-0.410
2020/01/31 13:23:35.5	0.470	-0.230	-0.090	-0.430
2020/01/31 13:23:35.6	0.490	-0.250	-0.040	-0.450
2020/01/31 13:23:35.7	0.510	-0.280	0.000	-0.460
2020/01/31 13:23:35.8	0.530	-0.300	0.040	-0.480
2020/01/31 13:23:35.9	0.550	-0.330	0.070	-0.490
2020/01/31 13:23:36.0	0.570	-0.350	0.100	-0.500
2020/01/31 13:23:36.1	0.590	-0.380	0.120	-0.510
2020/01/31 13:23:36.2	0.600	-0.400	0.130	-0.520
2020/01/31 13:23:36.3	0.620	-0.420	0.140	-0.530
2020/01/31 13:23:36.4	0.630	-0.450	0.140	-0.540
2020/01/31 13:23:36.5	0.650	-0.470	0.130	-0.560
2020/01/31 13:23:36.6	0.680	-0.490	0.120	-0.560
2020/01/31 13:23:36.7	0.700	-0.500	0.100	-0.570
2020/01/31 13:23:36.8	0.710	-0.520	0.080	-0.580
2020/01/31 13:23:36.9	0.730	-0.530	0.050	-0.600
2020/01/31 13:23:37.0	0.740	-0.540	0.020	-0.610
2020/01/31 13:23:37.1	0.760	-0.550	-0.020	-0.620
2020/01/31 13:23:37.2	0.770	-0.560	-0.060	-0.630
2020/01/31 13:23:37.3	0.790	-0.570	-0.100	-0.650
2020/01/31 13:23:37.4	0.800	-0.570	-0.140	-0.660
2020/01/31 13:23:37.5	0.820	-0.570	-0.190	-0.680
2020/01/31 13:23:37.6	0.820	-0.560	-0.240	-0.690
2020/01/31 13:23:37.7	0.840	-0.560	-0.280	-0.710
2020/01/31 13:23:37.8	0.850	-0.550	-0.330	-0.720
2020/01/31 13:23:37.9	0.860	-0.530	-0.370	-0.730
2020/01/31 13:23:38.0	0.870	-0.520	-0.420	-0.740
2020/01/31 13:23:38.1	0.880	-0.500	-0.460	-0.760
2020/01/31 13:23:38.2	0.890	-0.480	-0.490	-0.760
2020/01/31 13:23:38.3	0.900	-0.460	-0.520	-0.770
2020/01/31 13:23:38.4	0.900	-0.430	-0.550	-0.780
2020/01/31 13:23:38.5	0.910	-0.410	-0.570	-0.780
2020/01/31 13:23:38.6	0.920	-0.380	-0.590	-0.780
2020/01/31 13:23:38.7	0.920	-0.340	-0.600	-0.780
2020/01/31 13:23:38.8	0.920	-0.310	-0.610	-0.780
2020/01/31 13:23:38.9	0.920	-0.270	-0.600	-0.770
2020/01/31 13:23:39.0	0.920	-0.240	-0.600	-0.760
2020/01/31 13:23:39.1	0.920	-0.200	-0.580	-0.750
2020/01/31 13:23:39.2	0.920	-0.160	-0.560	-0.730
2020/01/31 13:23:39.3	0.910	-0.110	-0.540	-0.710
2020/01/31 13:23:39.4	0.910	-0.070	-0.510	-0.690
2020/01/31 13:23:39.5	0.910	-0.020	-0.480	-0.670
2020/01/31 13:23:39.6	0.910	0.020	-0.440	-0.640
2020/01/31 13:23:39.7	0.910	0.070	-0.400	-0.610
2020/01/31 13:23:39.8	0.900	0.110	-0.360	-0.570
2020/01/31 13:23:39.9	0.890	0.160	-0.310	-0.530
2020/01/31 13:23:40.0	0.880	0.200	-0.260	-0.490
2020/01/31 13:23:40.1	0.870	0.250	-0.220	-0.440
2020/01/31 13:23:40.2	0.850	0.290	-0.170	-0.380
2020/01/31 13:23:40.3	0.830	0.340	-0.110	-0.330
2020/01/31 13:23:40.4	0.800	0.380	-0.060	-0.260
2020/01/31 13:23:40.5	0.770	0.420	-0.010	-0.200
2020/01/31 13:23:40.6	0.720	0.460	0.030	-0.120
2020/01/31 13:23:40.7	0.690	0.490	0.080	-0.050
2020/01/31 13:23:40.8	0.640	0.520	0.130	0.010
2020/01/31 13:23:40.9	0.600	0.550	0.170	0.080
2020/01/31 13:23:41.0	0.550	0.570	0.220	0.150
2020/01/31 13:23:41.1	0.500	0.590	0.250	0.220
2020/01/31 13:23:41.2	0.450	0.610	0.290	0.280
2020/01/31 13:23:41.3	0.400	0.620	0.320	0.340
2020/01/31 13:23:41.4	0.340	0.630	0.350	0.400
2020/01/31 13:23:41.5	0.280	0.640	0.370	0.450
2020/01/31 13:23:41.6	0.240	0.640	0.380	0.490
2020/01/31 13:23:41.7	0.180	0.630	0.390	0.540
2020/01/31 13:23:41.8	0.120	0.630	0.400	0.580
2020/01/31 13:23:41.9	0.070	0.610	0.400	0.610
2020/01/31 13:23:42.0	0.020	0.600	0.390	0.630
2020/01/31 13:23:42.1	359.970	0.580	0.370	0.660
2020/01/31 13:23:42.2	359.920	0.560	0.350	0.670
2020/01/31 13:23:42.3	359.880	0.530	0.330	0.680
2020/01/31 13:23:42.4	359.840	0.510	0.290	0.690
2020/01/31 13:23:42.5	359.810	0.480	0.250	0.690
2020/01/31 13:23:42.6	359.780	0.450	0.210	0.680
2020/01/31 13:23:42.7	359.760	0.420	0.160	0.670
2020/01/31 13:23:42.8	359.750	0.390	0.100	0.640
2020/01/31 13:23:42.9	359.740	0.350	0.040	0.620
2020/01/31 13:23:43.0	359.730	0.320	-0.030	0.580
2020/01/31 13:23:43.1	359.740	0.290	-0.100	0.540
2020/01/31 13:23:43.2	359.750	0.260	-0.180	0.490
2020/01/31 13:23:43.3	359.770	0.230	-0.260	0.440
2020/01/31 13:23:43.4	359.790	0.200	-0.340	0.370
2020/01/31 13:23:43.5	359.820	0.180	-0.420	0.310
2020/01/31 13:23:43.6	359.840	0.150	-0.500	0.230
2020/01/31 13:23:43.7	359.880	0.130	-0.580	0.160
2020/01/31 13:23:43.8	359.930	0.100	-0.660	0.080
2020/01/31 13:23:43.9	359.970	0.080	-0.740	-0.010
2020/01/31 13:23:44.0	0.020	0.070	-0.810	-0.090
2020/01/31 13:23:44.1	0.070	0.050	-0.880	-0.180
2020/01/31 13:23:44.2	0.130	0.040	-0.940	-0.260
2020/01/31 13:23:44.3	0.180	0.030	-1.000	-0.350
2020/01/31 13:23:44.4	0.230	0.010	-1.040	-0.430
2020/01/31 13:23:44.5	0.280	0.010	-1.080	-0.510
2020/01/31 13:23:44.6	0.330	-0.000	-1.110	-0.590
2020/01/31 13:23:44.7	0.380	-0.010	-1.130	-0.670
2020/01/31 13:23:44.8	0.430	-0.010	-1.140	-0.740
2020/01/31 13:23:44.9	0.470	-0.020	-1.130	-0.800
2020/01/31 13:23:45.0	0.520	-0.020	-1.120	-0.860
2020/01/31 13:23:45.1	0.560	-0.020	-1.100	-0.920
2020/01/31 13:23:45.2	0.600	-0.020	-1.080	-0.970
2020/01/31 13:23:45.3	0.650	-0.030	-1.040	-1.020
2020/01/31 13:23:45.4	0.690	-0.030	-1.000	-1.070
2020/01/31 13:23:45.5	0.730	-0.030	-0.950	-1.110
2020/01/31 13:23:45.6	0.780	-0.040	-0.900	-1.140
2020/01/31 13:23:45.7	0.810	-0.040	-0.840	-1.170
2020/01/31 13:23:45.8	0.850	-0.050	-0.780	-1.200
2020/01/31 13:23:45.9	0.890	-0.060	-0.720	-1.230
2020/01/31 13:23:46.0	0.930	-0.060	-0.650	-1.250
2020/01/31 13:23:46.1	0.960	-0.070	-0.590	-1.280
2020/01/31 13:23:46.2	1.000	-0.080	-0.530	-1.290
2020/01/31 13:23:46.3	1.030	-0.090	-0.460	-1.310
2020/01/31 13:23:46.4	1.070	-0.100	-0.400	-1.320
2020/01/31 13:23:46.5	1.100	-0.120	-0.340	-1.340
2020/01/31 13:23:46.6	1.130	-0.130	-0.290	-1.350
2020/01/31 13:23:46.7	1.160	-0.140	-0.240	-1.360
2020/01/31 13:23:46.8	1.190	-0.160	-0.190	-1.360
2020/01/31 13:23:46.9	1.220	-0.170	-0.140	-1.370
2020/01/31 13:23:47.0	1.250	-0.190	-0.100	-1.370
2020/01/31 13:23:47.1	1.280	-0.200	-0.070	-1.380
2020/01/31 13:23:47.2	1.300	-0.210	-0.040	-1.380
2020/01/31 13:23:47.3	1.330	-0.230	-0.010	-1.380
2020/01/31 13:23:47.4	1.350	-0.240	0.010	-1.380
2020/01/31 13:23:47.5	1.370	-0.250	0.030	-1.380
2020/01/31 13:23:47.6	1.390	-0.260	0.040	-1.380
2020/01/31 13:23:47.7	1.400	-0.270	0.050	-1.370
2020/01/31 13:23:47.8	1.410	-0.280	0.060	-1.370
2020/01/31 13:23:47.9	1.420	-0.290	0.070	-1.360
2020/01/31 13:23:48.0	1.430	-0.300	0.080	-1.350
2020/01/31 13:23:48.1	1.430	-0.300	0.090	-1.330
2020/01/31 13:23:48.2	1.430	-0.300	0.090	-1.320
2020/01/31 13:23:48.3	1.420	-0.300	0.100	-1.300
2020/01/31 13:23:48.4	1.410	-0.300	0.100	-1.280
2020/01/31 13:23:48.5	1.390	-0.300	0.110	-1.250
2020/01/31 13:23:48.6	1.380	-0.300	0.120	-1.210
2020/01/31 13:23:48.7	1.350	-0.290	0.130	-1.180
2020/01/31 13:23:48.8	1.330	-0.290	0.140	-1.140
2020/01/31 13:23:48.9	1.290	-0.280	0.150	-1.100
2020/01/31 13:23:49.0	1.260	-0.270	0.160	-1.060
2020/01/31 13:23:49.1	1.220	-0.260	0.170	-1.010
2020/01/31 13:23:49.2	1.180	-0.250	0.180	-0.960
2020/01/31 13:23:49.3	1.140	-0.240	0.190	-0.910
2020/01/31 13:23:49.4	1.100	-0.230	0.200	-0.860
2020/01/31 13:23:49.5	1.050	-0.220	0.210	-0.810
2020/01/31 13:23:49.6	1.000	-0.210	0.210	-0.750
2020/01/31 13:23:49.7	0.950	-0.200	0.220	-0.690
2020/01/31 13:23:49.8	0.900	-0.190	0.230	-0.640
2020/01/31 13:23:49.9	0.850	-0.180	0.230	-0.580
2020/01/31 13:23:50.0	0.800	-0.160	0.240	-0.530
2020/01/31 13:23:50.1	0.750	-0.150	0.240	-0.470
2020/01/31 13:23:50.2	0.710	-0.140	0.240	-0.420
2020/01/31 13:23:50.3	0.660	-0.130	0.230	-0.370
2020/01/31 13:23:50.4	0.620	-0.110	0.230	-0.310
2020/01/31 13:23:50.5	0.570	-0.100	0.220	-0.260
2020/01/31 13:23:50.6	0.530	-0.090	0.210	-0.210
2020/01/31 13:23:50.7	0.490	-0.080	0.200	-0.160
2020/01/31 13:23:50.8	0.450	-0.060	0.180	-0.110
2020/01/31 13:23:50.9	0.410	-0.050	0.170	-0.070
2020/01/31 13:23:51.0	0.370	-0.040	0.150	-0.020
2020/01/31 13:23:51.1	0.340	-0.030	0.130	0.020
2020/01/31 13:23:51.2	0.300	-0.010	0.110	0.060
2020/01/31 13:23:51.3	0.260	-0.000	0.090	0.100
2020/01/31 13:23:51.4	0.230	0.010	0.070	0.140
2020/01/31 13:23:51.5	0.200	0.020	0.040	0.180
2020/01/31 13:23:51.6	0.170	0.030	0.020	0.210
2020/01/31 13:23:51.7	0.150	0.040	-0.010	0.240
2020/01/31 13:23:51.8	0.120	0.050	-0.030	0.270
2020/01/31 13:23:51.9	0.100	0.050	-0.060	0.290
2020/01/31 13:23:52.0	0.080	0.060	-0.090	0.310
2020/01/31 13:23:52.1	0.070	0.070	-0.110	0.330
2020/01/31 13:23:52.2	0.060	0.080	-0.140	0.350
2020/01/31 13:23:52.3	0.060	0.080	-0.170	0.370
2020/01/31 13:23:52.4	0.050	0.090	-0.200	0.380
2020/01/31 13:23:52.5	0.060	0.100	-0.240	0.390
2020/01/31 13:23:52.6	0.060	0.100	-0.270	0.400
2020/01/31 13:23:52.7	0.070	0.110	-0.310	0.400
2020/01/31 13:23:52.8	0.090	0.120	-0.340	0.400
2020/01/31 13:23:52.9	0.120	0.130	-0.380	0.390
2020/01/31 13:23:53.0	0.150	0.130	-0.420	0.390
2020/01/31 13:23:53.1	0.180	0.140	-0.460	0.370
2020/01/31 13:23:53.2	0.220	0.150	-0.500	0.360
2020/01/31 13:23:53.3	0.270	0.160	-0.540	0.340
2020/01/31 13:23:53.4	0.320	0.170	-0.580	0.320
2020/01/31 13:23:53.5	0.370	0.180	-0.620	0.300
2020/01/31 13:23:53.6	0.420	0.180	-0.660	0.270
2020/01/31 13:23:53.7	0.470	0.190	-0.700	0.240
2020/01/31 13:23:53.8	0.530	0.200	-0.730	0.220
2020/01/31 13:23:53.9	0.580	0.200	-0.760	0.190
2020/01/31 13:23:54.0	0.630	0.210	-0.790	0.160
2020/01/31 13:23:54.1	0.680	0.210	-0.810	0.130
2020/01/31 13:23:54.2	0.730	0.210	-0.820	0.100
2020/01/31 13:23:54.3	0.770	0.210	-0.840	0.070
2020/01/31 13:23:54.4	0.810	0.200	-0.840	0.040
2020/01/31 13:23:54.5	0.850	0.200	-0.840	0.020
2020/01/31 13:23:54.6	0.890	0.200	-0.840	-0.010
2020/01/31 13:23:54.7	0.920	0.190	-0.830	-0.040
2020/01/31 13:23:54.8	0.950	0.180	-0.820	-0.060
2020/01/31 13:23:54.9	0.970	0.170	-0.800	-0.080
2020/01/31 13:23:55.0	0.990	0.160	-0.770	-0.110
2020/01/31 13:23:55.1	1.010	0.140	-0.750	-0.130
2020/01/31 13:23:55.2	1.020	0.130	-0.710	-0.150
2020/01/31 13:23:55.3	1.030	0.110	-0.680	-0.160
2020/01/31 13:23:55.4	1.030	0.100	-0.640	-0.180
2020/01/31 13:23:55.5	1.040	0.080	-0.600	-0.190
2020/01/31 13:23:55.6	1.040	0.060	-0.550	-0.200
2020/01/31 13:23:55.7	1.030	0.040	-0.510	-0.210
2020/01/31 13:23:55.8	1.020	0.020	-0.460	-0.220
2020/01/31 13:23:55.9	1.020	-0.010	-0.420	-0.230
2020/01/31 13:23:56.0	1.000	-0.030	-0.370	-0.240
2020/01/31 13:23:56.1	0.990	-0.050	-0.320	-0.250
2020/01/31 13:23:56.2	0.980	-0.070	-0.280	-0.260
2020/01/31 13:23:56.3	0.970	-0.090	-0.230	-0.270
2020/01/31 13:23:56.4	0.950	-0.110	-0.190	-0.280
2020/01/31 13:23:56.5	0.940	-0.130	-0.150	-0.290
2020/01/31 13:23:56.6	0.920	-0.140	-0.120	-0.310
2020/01/31 13:23:56.7	0.900	-0.160	-0.090	-0.320
2020/01/31 13:23:56.8	0.890	-0.170	-0.060	-0.330
2020/01/31 13:23:56.9	0.870	-0.180	-0.030	-0.340
2020/01/31 13:23:57.0	0.860	-0.190	-0.010	-0.360
2020/01/31 13:23:57.1	0.850	-0.200	0.010	-0.370
2020/01/31 13:23:57.2	0.840	-0.200	0.020	-0.380
2020/01/31 13:23:57.3	0.830	-0.200	0.030	-0.400
2020/01/31 13:23:57.4	0.820	-0.190	0.040	-0.410
2020/01/31 13:23:57.5	0.810	-0.190	0.040	-0.420
2020/01/31 13:23:57.6	0.800	-0.180	0.040	-0.440
2020/01/31 13:23:57.7	0.790	-0.160	0.040	-0.450
2020/01/31 13:23:57.8	0.780	-0.150	0.030	-0.460
2020/01/31 13:23:57.9	0.780	-0.130	0.020	-0.470
2020/01/31 13:23:58.0	0.770	-0.110	0.010	-0.480
2020/01/31 13:23:58.1	0.770	-0.090	-0.010	-0.490
2020/01/31 13:23:58.2	0.770	-0.060	-0.020	-0.500
2020/01/31 13:23:58.3	0.760	-0.040	-0.040	-0.510
2020/01/31 13:23:58.4	0.760	-0.010	-0.060	-0.520
2020/01/31 13:23:58.5	0.760	0.010	-0.080	-0.530
2020/01/31 13:23:58.6	0.760	0.040	-0.100	-0.540
2020/01/31 13:23:58.7	0.760	0.070	-0.120	-0.550
2020/01/31 13:23:58.8	0.770	0.090	-0.150	-0.560
2020/01/31 13:23:58.9	0.770	0.120	-0.170	-0.570
2020/01/31 13:23:59.0	0.770	0.140	-0.190	-0.580
2020/01/31 13:23:59.1	0.780	0.160	-0.220	-0.590
2020/01/31 13:23:59.2	0.790	0.180	-0.240	-0.600
2020/01/31 13:23:59.3	0.800	0.200	-0.260	-0.610
2020/01/31 13:23:59.4	0.810	0.210	-0.290	-0.620
2020/01/31 13:23:59.5	0.820	0.220	-0.310	-0.630
2020/01/31 13:23:59.6	0.850	0.230	-0.330	-0.640
2020/01/31 13:23:59.7	0.870	0.240	-0.350	-0.650
2020/01/31 13:23:59.8	0.890	0.240	-0.370	-0.670
2020/01/31 13:23:59.9	0.910	0.240	-0.390	-0.680
2020/01/31 13:24:00.0	0.940	0.240	-0.410	-0.690
2020/01/31 13:24:00.1	0.960	0.240	-0.420	-0.710
2020/01/31 13:24:00.2	0.990	0.230	-0.440	-0.720
2020/01/31 13:24:00.3	1.020	0.220	-0.450	-0.730
2020/01/31 13:24:00.4	1.050	0.210	-0.460	-0.750
2020/01/31 13:24:00.5	1.080	0.190	-0.470	-0.760
2020/01/31 13:24:00.6	1.100	0.180	-0.470	-0.770
2020/01/31 13:24:00.7	1.130	0.160	-0.480	-0.780
2020/01/31 13:24:00.8	1.170	0.140	-0.480	-0.790
2020/01/31 13:24:00.9	1.200	0.120	-0.470	-0.800
2020/01/31 13:24:01.0	1.230	0.100	-0.460	-0.810
2020/01/31 13:24:01.1	1.260	0.080	-0.450	-0.810
2020/01/31 13:24:01.2	1.290	0.060	-0.440	-0.820
2020/01/31 13:24:01.3	1.320	0.030	-0.420	-0.820
2020/01/31 13:24:01.4	1.340	0.010	-0.390	-0.810
2020/01/31 13:24:01.5	1.360	-0.010	-0.360	-0.810
2020/01/31 13:24:01.6	1.380	-0.030	-0.330	-0.800
2020/01/31 13:24:01.7	1.400	-0.050	-0.290	-0.780
2020/01/31 13:24:01.8	1.410	-0.080	-0.250	-0.760
2020/01/31 13:24:01.9	1.410	-0.090	-0.200	-0.740
2020/01/31 13:24:02.0	1.410	-0.110	-0.150	-0.720
2020/01/31 13:24:02.1	1.410	-0.130	-0.090	-0.690
2020/01/31 13:24:02.2	1.400	-0.150	-0.030	-0.650
2020/01/31 13:24:02.3	1.390	-0.160	0.030	-0.610
2020/01/31 13:24:02.4	1.370	-0.170	0.090	-0.570
2020/01/31 13:24:02.5	1.350	-0.180	0.160	-0.530
2020/01/31 13:24:02.6	1.320	-0.190	0.210	-0.480
2020/01/31 13:24:02.7	1.290	-0.200	0.270	-0.430
2020/01/31 13:24:02.8	1.250	-0.210	0.330	-0.370
2020/01/31 13:24:02.9	1.220	-0.210	0.390	-0.320
2020/01/31 13:24:03.0	1.180	-0.210	0.440	-0.270
2020/01/31 13:24:03.1	1.130	-0.210	0.490	-0.210
2020/01/31 13:24:03.2	1.090	-0.210	0.530	-0.160
2020/01/31 13:24:03.3	1.040	-0.210	0.570	-0.100
2020/01/31 13:24:03.4	1.000	-0.200	0.600	-0.050
2020/01/31 13:24:03.5	0.950	-0.200	0.620	-0.000
2020/01/31 13:24:03.6	0.920	-0.190	0.640	0.050
2020/01/31 13:24:03.7	0.870	-0.180	0.640	0.100
2020/01/31 13:24:03.8	0.830	-0.160	0.640	0.150
2020/01/31 13:24:03.9	0.790	-0.150	0.630	0.190
2020/01/31 13:24:04.0	0.750	-0.130	0.610	0.230
2020/01/31 13:24:04.1	0.720	-0.110	0.580	0.260
2020/01/31 13:24:04.2	0.690	-0.090	0.540	0.290
2020/01/31 13:24:04.3	0.660	-0.070	0.500	0.320
2020/01/31 13:24:04.4	0.630	-0.040	0.440	0.340
2020/01/31 13:24:04.5	0.610	-0.010	0.380	0.360
2020/01/31 13:24:04.6	0.600	0.020	0.310	0.380
2020/01/31 13:24:04.7	0.590	0.050	0.240	0.390
2020/01/31 13:24:04.8	0.580	0.080	0.160	0.390
2020/01/31 13:24:04.9	0.580	0.110	0.070	0.400
2020/01/31 13:24:05.0	0.580	0.150	-0.020	0.390
2020/01/31 13:24:05.1	0.590	0.180	-0.120	0.390
2020/01/31 13:24:05.2	0.600	0.220	-0.220	0.380
2020/01/31 13:24:05.3	0.620	0.250	-0.310	0.360
2020/01/31 13:24:05.4	0.640	0.290	-0.410	0.340
2020/01/31 13:24:05.5	0.660	0.320	-0.510	0.320
2020/01/31 13:24:05.6	0.700	0.360	-0.610	0.300
2020/01/31 13:24:05.7	0.720	0.390	-0.700	0.280
2020/01/31 13:24:05.8	0.750	0.420	-0.780	0.250
2020/01/31 13:24:05.9	0.790	0.450	-0.860	0.220
2020/01/31 13:24:06.0	0.820	0.470	-0.930	0.190
2020/01/31 13:24:06.1	0.860	0.490	-1.000	0.170
2020/01/31 13:24:06.2	0.900	0.510	-1.060	0.140
2020/01/31 13:24:06.3	0.930	0.530	-1.110	0.110
2020/01/31 13:24:06.4	0.970	0.540	-1.140	0.080
2020/01/31 13:24:06.5	1.010	0.540	-1.170	0.050
2020/01/31 13:24:06.6	1.040	0.540	-1.190	0.020
2020/01/31 13:24:06.7	1.080	0.540	-1.200	-0.000
2020/01/31 13:24:06.8	1.120	0.530	-1.200	-0.020
2020/01/31 13:24:06.9	1.150	0.520	-1.190	-0.050
2020/01/31 13:24:07.0	1.190	0.500	-1.170	-0.070
2020/01/31 13:24:07.1	1.220	0.470	-1.140	-0.080
2020/01/31 13:24:07.2	1.250	0.450	-1.110	-0.100
2020/01/31 13:24:07.3	1.280	0.410	-1.060	-0.120
2020/01/31 13:24:07.4	1.310	0.370	-1.010	-0.130
2020/01/31 13:24:07.5	1.340	0.330	-0.960	-0.140
2020/01/31 13:24:07.6	1.360	0.280	-0.890	-0.150
2020/01/31 13:24:07.7	1.390	0.230	-0.830	-0.170
2020/01/31 13:24:07.8	1.420	0.180	-0.760	-0.180
2020/01/31 13:24:07.9	1.440	0.120	-0.690	-0.200
2020/01/31 13:24:08.0	1.470	0.060	-0.620	-0.210
2020/01/31 13:24:08.1	1.500	-0.010	-0.540	-0.230
2020/01/31 13:24:08.2	1.520	-0.070	-0.470	-0.250
2020/01/31 13:24:08.3	1.550	-0.140	-0.400	-0.270
2020/01/31 13:24:08.4	1.580	-0.210	-0.330	-0.300
2020/01/31 13:24:08.5	1.610	-0.280	-0.260	-0.330
2020/01/31 13:24:08.6	1.640	-0.340	-0.200	-0.360
2020/01/31 13:24:08.7	1.670	-0.410	-0.140	-0.390
2020/01/31 13:24:08.8	1.700	-0.480	-0.090	-0.430
2020/01/31 13:24:08.9	1.730	-0.540	-0.040	-0.470
2020/01/31 13:24:09.0	1.770	-0.600	0.010	-0.510
2020/01/31 13:24:09.1	1.800	-0.660	0.050	-0.560
2020/01/31 13:24:09.2	1.830	-0.710	0.080	-0.610
2020/01/31 13:24:09.3	1.870	-0.770	0.110	-0.660
2020/01/31 13:24:09.4	1.900	-0.810	0.130	-0.710
2020/01/31 13:24:09.5	1.930	-0.860	0.140	-0.760
2020/01/31 13:24:09.6	1.970	-0.890	0.150	-0.800
2020/01/31 13:24:09.7	2.000	-0.930	0.160	-0.850
2020/01/31 13:24:09.8	2.030	-0.960	0.150	-0.900
2020/01/31 13:24:09.9	2.060	-0.980	0.150	-0.950
2020/01/31 13:24:10.0	2.090	-1.000	0.140	-1.000
2020/01/31 13:24:10.1	2.110	-1.010	0.120	-1.040
2020/01/31 13:24:10.2	2.130	-1.010	0.100	-1.080
2020/01/31 13:24:10.3	2.160	-1.010	0.080	-1.120
2020/01/31 13:24:10.4	2.180	-1.010	0.050	-1.160
2020/01/31 13:24:10.5	2.200	-0.990	0.020	-1.200
2020/01/31 13:24:10.6	2.210	-0.980	-0.010	-1.230
2020/01/31 13:24:10.7	2.230	-0.950	-0.040	-1.260
2020/01/31 13:24:10.8	2.250	-0.930	-0.080	-1.290
2020/01/31 13:24:10.9	2.260	-0.890	-0.120	-1.310
2020/01/31 13:24:11.0	2.280	-0.860	-0.150	-1.340
2020/01/31 13:24:11.1	2.290	-0.820	-0.190	-1.360
2020/01/31 13:24:11.2	2.300	-0.770	-0.230	-1.370
2020/01/31 13:24:11.3	2.320	-0.720	-0.260	-1.390
2020/01/31 13:24:11.4	2.330	-0.670	-0.300	-1.400
2020/01/31 13:24:11.5	2.340	-0.610	-0.330	-1.410
2020/01/31 13:24:11.6	2.350	-0.560	-0.360	-1.420
2020/01/31 13:24:11.7	2.360	-0.500	-0.390	-1.420
2020/01/31 13:24:11.8	2.360	-0.430	-0.410	-1.420
2020/01/31 13:24:11.9	2.360	-0.370	-0.430	-1.410
2020/01/31 13:24:12.0	2.360	-0.310	-0.450	-1.400
2020/01/31 13:24:12.1	2.360	-0.240	-0.460	-1.390
2020/01/31 13:24:12.2	2.350	-0.180	-0.470	-1.360
2020/01/31 13:24:12.3	2.340	-0.110	-0.480	-1.340
2020/01/31 13:24:12.4	2.330	-0.040	-0.470	-1.310
2020/01/31 13:24:12.5	2.320	0.020	-0.470	-1.280
2020/01/31 13:24:12.6	2.300	0.090	-0.460	-1.230
2020/01/31 13:24:12.7	2.280	0.150	-0.440	-1.190
2020/01/31 13:24:12.8	2.250	0.210	-0.420	-1.140
2020/01/31 13:24:12.9	2.220	0.270	-0.400	-1.080
2020/01/31 13:24:13.0	2.190	0.330	-0.370	-1.030
2020/01/31 13:24:13.1	2.160	0.390	-0.330	-0.960
2020/01/31 13:24:13.2	2.130	0.440	-0.290	-0.890
2020/01/31 13:24:13.3	2.090	0.490	-0.250	-0.820
2020/01/31 13:24:13.4	2.050	0.550	-0.210	-0.740
2020/01/31 13:24:13.5	2.010	0.590	-0.160	-0.670
2020/01/31 13:24:13.6	1.980	0.640	-0.110	-0.580
2020/01/31 13:24:13.7	1.940	0.680	-0.060	-0.490
2020/01/31 13:24:13.8	1.890	0.730	-0.010	-0.400
2020/01/31 13:24:13.9	1.850	0.770	0.040	-0.310
2020/01/31 13:24:14.0	1.810	0.800	0.090	-0.220
2020/01/31 13:24:14.1	1.770	0.840	0.140	-0.130
2020/01/31 13:24:14.2	1.740	0.870	0.180	-0.040
2020/01/31 13:24:14.3	1.700	0.900	0.230	0.060
2020/01/31 13:24:14.4	1.670	0.930	0.260	0.150
2020/01/31 13:24:14.5	1.640	0.960	0.300	0.240
2020/01/31 13:24:14.6	1.600	0.980	0.320	0.340
2020/01/31 13:24:14.7	1.570	1.000	0.350	0.420
2020/01/31 13:24:14.8	1.550	1.020	0.370	0.510
2020/01/31 13:24:14.9	1.530	1.030	0.380	0.590
2020/01/31 13:24:15.0	1.510	1.050	0.390	0.670
2020/01/31 13:24:15.1	1.490	1.050	0.390	0.740
2020/01/31 13:24:15.2	1.470	1.060	0.390	0.810
2020/01/31 13:24:15.3	1.460	1.060	0.380	0.880
2020/01/31 13:24:15.4	1.440	1.060	0.360	0.940
2020/01/31 13:24:15.5	1.430	1.050	0.350	0.990
2020/01/31 13:24:15.6	1.430	1.040	0.320	1.040
2020/01/31 13:24:15.7	1.420	1.020	0.290	1.080
2020/01/31 13:24:15.8	1.410	1.000	0.260	1.110
2020/01/31 13:24:15.9	1.400	0.980	0.220	1.140
2020/01/31 13:24:16.0	1.390	0.950	0.180	1.160
2020/01/31 13:24:16.1	1.380	0.920	0.140	1.170
2020/01/31 13:24:16.2	1.370	0.880	0.090	1.170
2020/01/31 13:24:16.3	1.370	0.840	0.040	1.170
2020/01/31 13:24:16.4	1.370	0.790	-0.020	1.150
2020/01/31 13:24:16.5	1.370	0.740	-0.070	1.130
2020/01/31 13:24:16.6	1.370	0.690	-0.130	1.100
2020/01/31 13:24:16.7	1.370	0.630	-0.190	1.060
2020/01/31 13:24:16.8	1.380	0.570	-0.240	1.020
2020/01/31 13:24:16.9	1.400	0.500	-0.300	0.970
2020/01/31 13:24:17.0	1.410	0.430	-0.360	0.910
2020/01/31 13:24:17.1	1.430	0.360	-0.420	0.840
2020/01/31 13:24:17.2	1.450	0.290	-0.480	0.770
2020/01/31 13:24:17.3	1.480	0.220	-0.530	0.690
2020/01/31 13:24:17.4	1.510	0.140	-0.580	0.610
2020/01/31 13:24:17.5	1.540	0.060	-0.630	0.520
2020/01/31 13:24:17.6	1.570	-0.020	-0.680	0.420
2020/01/31 13:24:17.7	1.600	-0.090	-0.720	0.320
2020/01/31 13:24:17.8	1.640	-0.170	-0.760	0.220
2020/01/31 13:24:17.9	1.680	-0.250	-0.790	0.110
2020/01/31 13:24:18.0	1.720	-0.330	-0.820	-0.000
2020/01/31 13:24:18.1	1.760	-0.410	-0.850	-0.110
2020/01/31 13:24:18.2	1.800	-0.480	-0.870	-0.230
2020/01/31 13:24:18.3	1.850	-0.560	-0.880	-0.350
2020/01/31 13:24:18.4	1.890	-0.630	-0.890	-0.470
2020/01/31 13:24:18.5	1.940	-0.700	-0.900	-0.590
2020/01/31 13:24:18.6	2.000	-0.770	-0.890	-0.710
2020/01/31 13:24:18.7	2.050	-0.830	-0.890	-0.830
2020/01/31 13:24:18.8	2.100	-0.890	-0.880	-0.950
2020/01/31 13:24:18.9	2.150	-0.940	-0.860	-1.060
2020/01/31 13:24:19.0	2.210	-0.990	-0.840	-1.170
2020/01/31 13:24:19.1	2.260	-1.030	-0.820	-1.290
2020/01/31 13:24:19.2	2.310	-1.070	-0.800	-1.390
2020/01/31 13:24:19.3	2.370	-1.100	-0.770	-1.500
2020/01/31 13:24:19.4	2.420	-1.130	-0.740	-1.600
2020/01/31 13:24:19.5	2.480	-1.150	-0.710	-1.690
2020/01/31 13:24:19.6	2.530	-1.160	-0.680	-1.780
2020/01/31 13:24:19.7	2.580	-1.170	-0.640	-1.860
2020/01/31 13:24:19.8	2.630	-1.170	-0.610	-1.940
2020/01/31 13:24:19.9	2.690	-1.170	-0.570	-2.010
2020/01/31 13:24:20.0	2.740	-1.160	-0.530	-2.070
2020/01/31 13:24:20.1	2.790	-1.140	-0.500	-2.130
2020/01/31 13:24:20.2	2.830	-1.120	-0.460	-2.170
2020/01/31 13:24:20.3	2.880	-1.090	-0.420	-2.210
2020/01/31 13:24:20.4	2.920	-1.060	-0.390	-2.250
2020/01/31 13:24:20.5	2.960	-1.020	-0.350	-2.280
2020/01/31 13:24:20.6	2.970	-0.980	-0.320	-2.290
2020/01/31 13:24:20.7	3.000	-0.930	-0.290	-2.310
2020/01/31 13:24:20.8	3.030	-0.890	-0.250	-2.310
2020/01/31 13:24:20.9	3.060	-0.830	-0.220	-2.310
2020/01/31 13:24:21.0	3.080	-0.780	-0.190	-2.310
2020/01/31 13:24:21.1	3.090	-0.720	-0.160	-2.290
2020/01/31 13:24:21.2	3.110	-0.660	-0.130	-2.270
2020/01/31 13:24:21.3	3.110	-0.590	-0.100	-2.240
2020/01/31 13:24:21.4	3.120	-0.530	-0.080	-2.210
2020/01/31 13:24:21.5	3.120	-0.460	-0.060	-2.170
2020/01/31 13:24:21.6	3.100	-0.390	-0.040	-2.110
2020/01/31 13:24:21.7	3.090	-0.330	-0.020	-2.050
2020/01/31 13:24:21.8	3.080	-0.260	0.000	-1.990
2020/01/31 13:24:21.9	3.060	-0.190	0.020	-1.920
2020/01/31 13:24:22.0	3.040	-0.120	0.030	-1.840
2020/01/31 13:24:22.1	3.010	-0.060	0.050	-1.750
2020/01/31 13:24:22.2	2.980	0.010	0.060	-1.650
2020/01/31 13:24:22.3	2.940	0.070	0.070	-1.550
2020/01/31 13:24:22.4	2.900	0.130	0.080	-1.450
2020/01/31 13:24:22.5	2.860	0.190	0.080	-1.340
2020/01/31 13:24:22.6	2.810	0.250	0.080	-1.210
2020/01/31 13:24:22.7	2.770	0.300	0.080	-1.090
2020/01/31 13:24:22.8	2.720	0.350	0.080	-0.970
2020/01/31 13:24:22.9	2.670	0.400	0.080	-0.840
2020/01/31 13:24:23.0	2.620	0.440	0.070	-0.720
2020/01/31 13:24:23.1	2.570	0.480	0.070	-0.600
2020/01/31 13:24:23.2	2.520	0.520	0.060	-0.470
2020/01/31 13:24:23.3	2.470	0.550	0.050	-0.350
2020/01/31 13:24:23.4	2.430	0.580	0.030	-0.230
2020/01/31 13:24:23.5	2.380	0.600	0.020	-0.120
2020/01/31 13:24:23.6	2.350	0.620	-0.000	0.000
2020/01/31 13:24:23.7	2.310	0.640	-0.020	0.110
2020/01/31 13:24:23.8	2.270	0.660	-0.040	0.210
2020/01/31 13:24:23.9	2.230	0.670	-0.070	0.300
2020/01/31 13:24:24.0	2.200	0.680	-0.090	0.390
2020/01/31 13:24:24.1	2.170	0.690	-0.120	0.470
2020/01/31 13:24:24.2	2.150	0.690	-0.140	0.550
2020/01/31 13:24:24.3	2.130	0.690	-0.170	0.620
2020/01/31 13:24:24.4	2.110	0.690	-0.200	0.680
2020/01/31 13:24:24.5	2.100	0.690	-0.230	0.730
2020/01/31 13:24:24.6	2.090	0.690	-0.260	0.790
2020/01/31 13:24:24.7	2.080	0.690	-0.280	0.830
2020/01/31 13:24:24.8	2.080	0.680	-0.310	0.870
2020/01/31 13:24:24.9	2.080	0.680	-0.340	0.910
2020/01/31 13:24:25.0	2.090	0.670	-0.360	0.940
2020/01/31 13:24:25.1	2.100	0.670	-0.380	0.960
2020/01/31 13:24:25.2	2.110	0.660	-0.400	0.990
2020/01/31 13:24:25.3	2.130	0.650	-0.410	1.010
2020/01/31 13:24:25.4	2.140	0.640	-0.430	1.020
2020/01/31 13:24:25.5	2.160	0.640	-0.430	1.040
2020/01/31 13:24:25.6	2.180	0.630	-0.440	1.040
2020/01/31 13:24:25.7	2.200	0.620	-0.430	1.050
2020/01/31 13:24:25.8	2.210	0.600	-0.430	1.060
2020/01/31 13:24:25.9	2.230	0.590	-0.410	1.060
2020/01/31 13:24:26.0	2.240	0.570	-0.400	1.060
2020/01/31 13:24:26.1	2.250	0.550	-0.380	1.060
2020/01/31 13:24:26.2	2.260	0.530	-0.350	1.050
2020/01/31 13:24:26.3	2.270	0.510	-0.330	1.040
2020/01/31 13:24:26.4	2.280	0.480	-0.300	1.030
2020/01/31 13:24:26.5	2.280	0.450	-0.260	1.010
2020/01/31 13:24:26.6	2.300	0.420	-0.230	1.000
2020/01/31 13:24:26.7	2.300	0.390	-0.200	0.970
2020/01/31 13:24:26.8	2.310	0.350	-0.160	0.950
2020/01/31 13:24:26.9	2.310	0.310	-0.130	0.920
2020/01/31 13:24:27.0	2.310	0.270	-0.100	0.880
2020/01/31 13:24:27.1	2.320	0.220	-0.070	0.850
2020/01/31 13:24:27.2	2.320	0.180	-0.040	0.810
2020/01/31 13:24:27.3	2.320	0.130	-0.020	0.770
2020/01/31 13:24:27.4	2.330	0.080	0.000	0.720
2020/01/31 13:24:27.5	2.330	0.030	0.020	0.670
2020/01/31 13:24:27.6	2.340	-0.020	0.030	0.620
2020/01/31 13:24:27.7	2.350	-0.070	0.040	0.560
2020/01/31 13:24:27.8	2.360	-0.120	0.040	0.500
2020/01/31 13:24:27.9	2.370	-0.170	0.040	0.440
2020/01/31 13:24:28.0	2.390	-0.220	0.030	0.380
2020/01/31 13:24:28.1	2.400	-0.260	0.010	0.310
2020/01/31 13:24:28.2	2.420	-0.310	-0.010	0.240
2020/01/31 13:24:28.3	2.450	-0.350	-0.040	0.170
2020/01/31 13:24:28.4	2.470	-0.390	-0.070	0.090
2020/01/31 13:24:28.5	2.500	-0.420	-0.100	0.010
2020/01/31 13:24:28.6	2.530	-0.450	-0.140	-0.070
2020/01/31 13:24:28.7	2.560	-0.480	-0.190	-0.150
2020/01/31 13:24:28.8	2.590	-0.500	-0.240	-0.240
2020/01/31 13:24:28.9	2.620	-0.520	-0.290	-0.330
2020/01/31 13:24:29.0	2.660	-0.530	-0.340	-0.410
2020/01/31 13:24:29.1	2.690	-0.540	-0.390	-0.500
2020/01/31 13:24:29.2	2.720	-0.540	-0.440	-0.590
2020/01/31 13:24:29.3	2.760	-0.540	-0.490	-0.670
2020/01/31 13:24:29.4	2.790	-0.530	-0.550	-0.750
2020/01/31 13:24:29.5	2.820	-0.520	-0.600	-0.840
2020/01/31 13:24:29.6	2.830	-0.500	-0.640	-0.920
2020/01/31 13:24:29.7	2.860	-0.480	-0.690	-1.000
2020/01/31 13:24:29.8	2.890	-0.450	-0.730	-1.070
2020/01/31 13:24:29.9	2.910	-0.420	-0.760	-1.140
2020/01/31 13:24:30.0	2.940	-0.380	-0.790	-1.200
2020/01/31 13:24:30.1	2.960	-0.340	-0.820	-1.260
2020/01/31 13:24:30.2	2.980	-0.300	-0.840	-1.310
2020/01/31 13:24:30.3	3.000	-0.250	-0.850	-1.360
2020/01/31 13:24:30.4	3.020	-0.200	-0.860	-1.400
2020/01/31 13:24:30.5	3.030	-0.150	-0.860	-1.440
2020/01/31 13:24:30.6	3.040	-0.100	-0.850	-1.470
2020/01/31 13:24:30.7	3.060	-0.050	-0.840	-1.500
2020/01/31 13:24:30.8	3.070	0.000	-0.820	-1.520
2020/01/31 13:24:30.9	3.080	0.050	-0.790	-1.530
2020/01/31 13:24:31.0	3.090	0.110	-0.760	-1.540
2020/01/31 13:24:31.1	3.100	0.160	-0.720	-1.550
2020/01/31 13:24:31.2	3.110	0.200	-0.670	-1.550
2020/01/31 13:24:31.3	3.110	0.250	-0.620	-1.540
2020/01/31 13:24:31.4	3.120	0.290	-0.570	-1.530
2020/01/31 13:24:31.5	3.120	0.330	-0.510	-1.510
2020/01/31 13:24:31.6	3.130	0.360	-0.450	-1.490
2020/01/31 13:24:31.7	3.120	0.390	-0.380	-1.460
2020/01/31 13:24:31.8	3.120	0.420	-0.310	-1.430
2020/01/31 13:24:31.9	3.120	0.430	-0.240	-1.390
2020/01/31 13:24:32.0	3.110	0.450	-0.170	-1.350
2020/01/31 13:24:32.1	3.100	0.460	-0.100	-1.300
2020/01/31 13:24:32.2	3.090	0.460	-0.020	-1.250
2020/01/31 13:24:32.3	3.080	0.460	0.050	-1.200
2020/01/31 13:24:32.4	3.060	0.450	0.120	-1.140
2020/01/31 13:24:32.5	3.050	0.440	0.190	-1.080
2020/01/31 13:24:32.6	3.030	0.420	0.250	-1.020
2020/01/31 13:24:32.7	3.010	0.400	0.310	-0.960
2020/01/31 13:24:32.8	2.990	0.370	0.370	-0.900
2020/01/31 13:24:32.9	2.970	0.340	0.430	-0.840
2020/01/31 13:24:33.0	2.950	0.300	0.480	-0.780
2020/01/31 13:24:33.1	2.930	0.260	0.520	-0.730
2020/01/31 13:24:33.2	2.910	0.210	0.560	-0.670
2020/01/31 13:24:33.3	2.890	0.160	0.590	-0.630
2020/01/31 13:24:33.4	2.870	0.110	0.620	-0.580
2020/01/31 13:24:33.5	2.850	0.060	0.640	-0.540
2020/01/31 13:24:33.6	2.850	-0.000	0.650	-0.500
2020/01/31 13:24:33.7	2.830	-0.060	0.650	-0.470
2020/01/31 13:24:33.8	2.820	-0.110	0.650	-0.440
2020/01/31 13:24:33.9	2.800	-0.170	0.640	-0.420
2020/01/31 13:24:34.0	2.790	-0.230	0.630	-0.410
2020/01/31 13:24:34.1	2.790	-0.280	0.610	-0.390
2020/01/31 13:24:34.2	2.790	-0.330	0.580	-0.390
2020/01/31 13:24:34.3	2.790	-0.380	0.540	-0.390
2020/01/31 13:24:34.4	2.790	-0.430	0.500	-0.390
2020/01/31 13:24:34.5	2.800	-0.480	0.460	-0.400
2020/01/31 13:24:34.6	2.820	-0.510	0.400	-0.420
2020/01/31 13:24:34.7	2.830	-0.550	0.350	-0.440
2020/01/31 13:24:34.8	2.860	-0.580	0.290	-0.460
2020/01/31 13:24:34.9	2.880	-0.600	0.220	-0.490
2020/01/31 13:24:35.0	2.910	-0.620	0.150	-0.520
2020/01/31 13:24:35.1	2.950	-0.640	0.070	-0.550
2020/01/31 13:24:35.2	2.980	-0.640	-0.000	-0.580
2020/01/31 13:24:35.3	3.020	-0.640	-0.080	-0.620
2020/01/31 13:24:35.4	3.060	-0.640	-0.160	-0.660
2020/01/31 13:24:35.5	3.100	-0.630	-0.240	-0.700
2020/01/31 13:24:35.6	3.140	-0.620	-0.320	-0.740
2020/01/31 13:24:35.7	3.180	-0.600	-0.390	-0.770
2020/01/31 13:24:35.8	3.220	-0.570	-0.470	-0.810
2020/01/31 13:24:35.9	3.260	-0.540	-0.540	-0.840
2020/01/31 13:24:36.0	3.310	-0.510	-0.610	-0.870
2020/01/31 13:24:36.1	3.350	-0.470	-0.670	-0.900
2020/01/31 13:24:36.2	3.380	-0.430	-0.730	-0.920
2020/01/31 13:24:36.3	3.420	-0.390	-0.780	-0.940
2020/01/31 13:24:36.4	3.450	-0.340	-0.830	-0.960
2020/01/31 13:24:36.5	3.480	-0.300	-0.860	-0.970
2020/01/31 13:24:36.6	3.490	-0.250	-0.900	-0.970
2020/01/31 13:24:36.7	3.520	-0.200	-0.920	-0.970
2020/01/31 13:24:36.8	3.540	-0.150	-0.940	-0.960
2020/01/31 13:24:36.9	3.550	-0.100	-0.950	-0.950
2020/01/31 13:24:37.0	3.560	-0.050	-0.950	-0.930
2020/01/31 13:24:37.1	3.570	-0.000	-0.950	-0.900
2020/01/31 13:24:37.2	3.580	0.040	-0.930	-0.870
2020/01/31 13:24:37.3	3.580	0.090	-0.920	-0.840
2020/01/31 13:24:37.4	3.580	0.130	-0.890	-0.800
2020/01/31 13:24:37.5	3.570	0.170	-0.860	-0.750
2020/01/31 13:24:37.6	3.560	0.210	-0.830	-0.690
2020/01/31 13:24:37.7	3.550	0.250	-0.780	-0.640
2020/01/31 13:24:37.8	3.540	0.280	-0.740	-0.580
2020/01/31 13:24:37.9	3.520	0.310	-0.690	-0.510
2020/01/31 13:24:38.0	3.500	0.330	-0.640	-0.450
2020/01/31 13:24:38.1	3.480	0.360	-0.590	-0.380
2020/01/31 13:24:38.2	3.460	0.380	-0.540	-0.310
2020/01/31 13:24:38.3	3.440	0.390	-0.490	-0.240
2020/01/31 13:24:38.4	3.420	0.410	-0.430	-0.170
2020/01/31 13:24:38.5	3.400	0.420	-0.380	-0.090
2020/01/31 13:24:38.6	3.380	0.420	-0.340	-0.020
2020/01/31 13:24:38.7	3.360	0.430	-0.290	0.050
2020/01/31 13:24:38.8	3.340	0.430	-0.250	0.120
2020/01/31 13:24:38.9	3.310	0.440	-0.210	0.190
2020/01/31 13:24:39.0	3.290	0.440	-0.170	0.250
2020/01/31 13:24:39.1	3.280	0.440	-0.140	0.310
2020/01/31 13:24:39.2	3.260	0.430	-0.120	0.370
2020/01/31 13:24:39.3	3.240	0.430	-0.090	0.430
2020/01/31 13:24:39.4	3.230	0.430	-0.080	0.470
2020/01/31 13:24:39.5	3.220	0.420	-0.070	0.520
2020/01/31 13:24:39.6	3.210	0.420	-0.060	0.560
2020/01/31 13:24:39.7	3.210	0.410	-0.060	0.600
2020/01/31 13:24:39.8	3.200	0.410	-0.060	0.630
2020/01/31 13:24:39.9	3.200	0.410	-0.070	0.650
2020/01/31 13:24:40.0	3.200	0.400	-0.080	0.670
2020/01/31 13:24:40.1	3.200	0.400	-0.100	0.680
2020/01/31 13:24:40.2	3.210	0.400	-0.120	0.690
2020/01/31 13:24:40.3	3.210	0.400	-0.150	0.690
2020/01/31 13:24:40.4	3.220	0.400	-0.180	0.690
2020/01/31 13:24:40.5	3.230	0.400	-0.210	0.680
2020/01/31 13:24:40.6	3.250	0.400	-0.230	0.660
2020/01/31 13:24:40.7	3.260	0.400	-0.270	0.640
2020/01/31 13:24:40.8	3.270	0.400	-0.310	0.620
2020/01/31 13:24:40.9	3.290	0.410	-0.350	0.590
2020/01/31 13:24:41.0	3.310	0.410	-0.390	0.560
2020/01/31 13:24:41.1	3.320	0.410	-0.430	0.520
2020/01/31 13:24:41.2	3.340	0.420	-0.470	0.480
2020/01/31 13:24:41.3	3.360	0.420	-0.510	0.430
2020/01/31 13:24:41.4	3.390	0.420	-0.550	0.380
2020/01/31 13:24:41.5	3.410	0.430	-0.580	0.320
2020/01/31 13:24:41.6	3.440	0.430	-0.620	0.260
2020/01/31 13:24:41.7	3.470	0.430	-0.650	0.200
2020/01/31 13:24:41.8	3.490	0.430	-0.680	0.130
2020/01/31 13:24:41.9	3.520	0.430	-0.710	0.060
2020/01/31 13:24:42.0	3.550	0.430	-0.730	-0.010
2020/01/31 13:24:42.1	3.580	0.420	-0.750	-0.080
2020/01/31 13:24:42.2	3.620	0.420	-0.760	-0.150
2020/01/31 13:24:42.3	3.650	0.410	-0.770	-0.220
2020/01/31 13:24:42.4	3.680	0.400	-0.770	-0.290
2020/01/31 13:24:42.5	3.710	0.390	-0.760	-0.360
2020/01/31 13:24:42.6	3.730	0.370	-0.750	-0.430
2020/01/31 13:24:42.7	3.760	0.360	-0.730	-0.500
2020/01/31 13:24:42.8	3.780	0.340	-0.710	-0.570
2020/01/31 13:24:42.9	3.810	0.320	-0.680	-0.630
2020/01/31 13:24:43.0	3.830	0.290	-0.640	-0.690
2020/01/31 13:24:43.1	3.840	0.270	-0.600	-0.750
2020/01/31 13:24:43.2	3.860	0.240	-0.550	-0.810
2020/01/31 13:24:43.3	3.870	0.210	-0.500	-0.860
2020/01/31 13:24:43.4	3.880	0.170	-0.440	-0.910
2020/01/31 13:24:43.5	3.890	0.140	-0.380	-0.960
2020/01/31 13:24:43.6	3.900	0.100	-0.320	-1.000
2020/01/31 13:24:43.7	3.900	0.060	-0.250	-1.050
2020/01/31 13:24:43.8	3.900	0.020	-0.180	-1.080
2020/01/31 13:24:43.9	3.900	-0.020	-0.110	-1.120
2020/01/31 13:24:44.0	3.900	-0.070	-0.030	-1.150
2020/01/31 13:24:44.1	3.900	-0.110	0.040	-1.180
2020/01/31 13:24:44.2	3.900	-0.160	0.120	-1.200
2020/01/31 13:24:44.3	3.890	-0.200	0.190	-1.230
2020/01/31 13:24:44.4	3.890	-0.250	0.260	-1.250
2020/01/31 13:24:44.5	3.880	-0.290	0.330	-1.270
2020/01/31 13:24:44.6	3.870	-0.340	0.390	-1.280
2020/01/31 13:24:44.7	3.870	-0.380	0.460	-1.300
2020/01/31 13:24:44.8	3.870	-0.420	0.520	-1.310
2020/01/31 13:24:44.9	3.860	-0.460	0.570	-1.320
2020/01/31 13:24:45.0	3.860	-0.500	0.620	-1.340
2020/01/31 13:24:45.1	3.860	-0.540	0.660	-1.350
2020/01/31 13:24:45.2	3.860	-0.570	0.700	-1.360
2020/01/31 13:24:45.3	3.850	-0.600	0.730	-1.360
2020/01/31 13:24:45.4	3.850	-0.630	0.760	-1.370
2020/01/31 13:24:45.5	3.850	-0.660	0.780	-1.380
2020/01/31 13:24:45.6	3.850	-0.690	0.800	-1.380
2020/01/31 13:24:45.7	3.850	-0.710	0.810	-1.380
2020/01/31 13:24:45.8	3.840	-0.730	0.820	-1.370
2020/01/31 13:24:45.9	3.820	-0.750	0.820	-1.370
2020/01/31 13:24:46.0	3.810	-0.760	0.820	-1.360
2020/01/31 13:24:46.1	3.790	-0.780	0.810	-1.340
2020/01/31 13:24:46.2	3.760	-0.790	0.800	-1.320
2020/01/31 13:24:46.3	3.740	-0.800	0.790	-1.300
2020/01/31 13:24:46.4	3.700	-0.800	0.770	-1.270
2020/01/31 13:24:46.5	3.670	-0.810	0.750	-1.240
2020/01/31 13:24:46.6	3.630	-0.810	0.720	-1.200
2020/01/31 13:24:46.7	3.580	-0.810	0.690	-1.160
2020/01/31 13:24:46.8	3.540	-0.800	0.660	-1.120
2020/01/31 13:24:46.9	3.490	-0.800	0.620	-1.070
2020/01/31 13:24:47.0	3.440	-0.790	0.580	-1.020
2020/01/31 13:24:47.1	3.390	-0.770	0.530	-0.970
2020/01/31 13:24:47.2	3.340	-0.760	0.490	-0.920
2020/01/31 13:24:47.3	3.280	-0.740	0.430	-0.870
2020/01/31 13:24:47.4	3.230	-0.720	0.380	-0.810
2020/01/31 13:24:47.5	3.180	-0.700	0.310	-0.760
2020/01/31 13:24:47.6	3.130	-0.680	0.250	-0.700
2020/01/31 13:24:47.7	3.080	-0.650	0.180	-0.650
2020/01/31 13:24:47.8	3.040	-0.620	0.110	-0.600
2020/01/31 13:24:47.9	3.000	-0.590	0.030	-0.550
2020/01/31 13:24:48.0	2.960	-0.550	-0.050	-0.500
2020/01/31 13:24:48.1	2.920	-0.520	-0.140	-0.460
2020/01/31 13:24:48.2	2.890	-0.480	-0.220	-0.410
2020/01/31 13:24:48.3	2.870	-0.430	-0.310	-0.370
2020/01/31 13:24:48.4	2.850	-0.390	-0.400	-0.340
2020/01/31 13:24:48.5	2.830	-0.340	-0.490	-0.300
2020/01/31 13:24:48.6	2.820	-0.290	-0.580	-0.260
2020/01/31 13:24:48.7	2.810	-0.240	-0.680	-0.230
2020/01/31 13:24:48.8	2.800	-0.180	-0.770	-0.200
2020/01/31 13:24:48.9	2.800	-0.130	-0.860	-0.170
2020/01/31 13:24:49.0	2.800	-0.070	-0.940	-0.140
2020/01/31 13:24:49.1	2.800	-0.010	-1.030	-0.120
2020/01/31 13:24:49.2	2.810	0.050	-1.110	-0.090
2020/01/31 13:24:49.3	2.820	0.110	-1.180	-0.070
2020/01/31 13:24:49.4	2.830	0.170	-1.250	-0.050
2020/01/31 13:24:49.5	2.850	0.230	-1.310	-0.020
2020/01/31 13:24:49.6	2.860	0.290	-1.370	-0.010
2020/01/31 13:24:49.7	2.880	0.350	-1.420	0.010
2020/01/31 13:24:49.8	2.910	0.410	-1.460	0.030
2020/01/31 13:24:49.9	2.930	0.460	-1.490	0.050
2020/01/31 13:24:50.0	2.960	0.520	-1.520	0.060
2020/01/31 13:24:50.1	2.990	0.570	-1.540	0.070
2020/01/31 13:24:50.2	3.020	0.620	-1.550	0.080
2020/01/31 13:24:50.3	3.060	0.670	-1.550	0.090
2020/01/31 13:24:50.4	3.100	0.710	-1.550	0.100
2020/01/31 13:24:50.5	3.130	0.750	-1.540	0.100
2020/01/31 13:24:50.6	3.180	0.790	-1.520	0.120
2020/01/31 13:24:50.7	3.220	0.820	-1.490	0.120
2020/01/31 13:24:50.8	3.260	0.850	-1.460	0.120
2020/01/31 13:24:50.9	3.300	0.870	-1.420	0.120
2020/01/31 13:24:51.0	3.340	0.890	-1.370	0.130
2020/01/31 13:24:51.1	3.380	0.900	-1.320	0.130
2020/01/31 13:24:51.2	3.420	0.910	-1.260	0.130
2020/01/31 13:24:51.3	3.450	0.910	-1.200	0.140
2020/01/31 13:24:51.4	3.480	0.910	-1.130	0.140
2020/01/31 13:24:51.5	3.510	0.900	-1.050	0.150
2020/01/31 13:24:51.6	3.520	0.880	-0.970	0.150
2020/01/31 13:24:51.7	3.550	0.860	-0.880	0.150
2020/01/31 13:24:51.8	3.560	0.830	-0.800	0.160
2020/01/31 13:24:51.9	3.580	0.800	-0.710	0.160
2020/01/31 13:24:52.0	3.590	0.760	-0.620	0.170
2020/01/31 13:24:52.1	3.600	0.720	-0.520	0.180
2020/01/31 13:24:52.2	3.610	0.680	-0.430	0.180
2020/01/31 13:24:52.3	3.620	0.630	-0.340	0.180
2020/01/31 13:24:52.4	3.620	0.580	-0.250	0.190
2020/01/31 13:24:52.5	3.620	0.520	-0.170	0.190
2020/01/31 13:24:52.6	3.630	0.460	-0.090	0.200
2020/01/31 13:24:52.7	3.620	0.400	-0.010	0.200
2020/01/31 13:24:52.8	3.620	0.340	0.070	0.200
2020/01/31 13:24:52.9	3.610	0.280	0.140	0.200
2020/01/31 13:24:53.0	3.590	0.210	0.210	0.200
2020/01/31 13:24:53.1	3.580	0.150	0.270	0.200
2020/01/31 13:24:53.2	3.570	0.090	0.320	0.200
2020/01/31 13:24:53.3	3.550	0.020	0.370	0.200
2020/01/31 13:24:53.4	3.530	-0.040	0.410	0.190
2020/01/31 13:24:53.5	3.510	-0.090	0.450	0.190
2020/01/31 13:24:53.6	3.510	-0.150	0.480	0.180
2020/01/31 13:24:53.7	3.490	-0.200	0.500	0.170
2020/01/31 13:24:53.8	3.470	-0.250	0.520	0.150
2020/01/31 13:24:53.9	3.450	-0.300	0.530	0.140
2020/01/31 13:24:54.0	3.430	-0.340	0.540	0.120
2020/01/31 13:24:54.1	3.410	-0.380	0.540	0.100
2020/01/31 13:24:54.2	3.390	-0.410	0.540	0.070
2020/01/31 13:24:54.3	3.370	-0.440	0.540	0.040
2020/01/31 13:24:54.4	3.350	-0.470	0.530	0.020
2020/01/31 13:24:54.5	3.330	-0.490	0.510	-0.020
2020/01/31 13:24:54.6	3.330	-0.500	0.500	-0.050
2020/01/31 13:24:54.7	3.310	-0.510	0.480	-0.090
2020/01/31 13:24:54.8	3.290	-0.520	0.460	-0.120
2020/01/31 13:24:54.9	3.270	-0.520	0.430	-0.160
2020/01/31 13:24:55.0	3.260	-0.520	0.410	-0.190
2020/01/31 13:24:55.1	3.240	-0.510	0.390	-0.230
2020/01/31 13:24:55.2	3.220	-0.500	0.360	-0.260
2020/01/31 13:24:55.3	3.210	-0.490	0.330	-0.300
2020/01/31 13:24:55.4	3.190	-0.470	0.310	-0.330
2020/01/31 13:24:55.5	3.170	-0.450	0.280	-0.360
2020/01/31 13:24:55.6	3.160	-0.420	0.260	-0.380
2020/01/31 13:24:55.7	3.140	-0.400	0.230	-0.400
2020/01/31 13:24:55.8	3.120	-0.370	0.210	-0.420
2020/01/31 13:24:55.9	3.090	-0.340	0.200	-0.430
2020/01/31 13:24:56.0	3.070	-0.310	0.180	-0.440
2020/01/31 13:24:56.1	3.030	-0.280	0.170	-0.440
2020/01/31 13:24:56.2	3.000	-0.260	0.150	-0.440
2020/01/31 13:24:56.3	2.960	-0.230	0.150	-0.440
2020/01/31 13:24:56.4	2.920	-0.200	0.140	-0.430
2020/01/31 13:24:56.5	2.880	-0.170	0.130	-0.420
2020/01/31 13:24:56.6	2.840	-0.150	0.130	-0.400
2020/01/31 13:24:56.7	2.790	-0.130	0.120	-0.390
2020/01/31 13:24:56.8	2.730	-0.110	0.120	-0.370
2020/01/31 13:24:56.9	2.680	-0.090	0.120	-0.350
2020/01/31 13:24:57.0	2.630	-0.070	0.110	-0.340
2020/01/31 13:24:57.1	2.570	-0.050	0.110	-0.320
2020/01/31 13:24:57.2	2.520	-0.040	0.100	-0.310
2020/01/31 13:24:57.3	2.460	-0.030	0.090	-0.290
2020/01/31 13:24:57.4	2.410	-0.020	0.080	-0.280
2020/01/31 13:24:57.5	2.350	-0.010	0.070	-0.270
2020/01/31 13:24:57.6	2.310	-0.010	0.050	-0.260
2020/01/31 13:24:57.7	2.270	-0.000	0.030	-0.260
2020/01/31 13:24:57.8	2.220	0.000	0.010	-0.250
2020/01/31 13:24:57.9	2.180	0.000	-0.020	-0.250
2020/01/31 13:24:58.0	2.150	0.010	-0.050	-0.260
2020/01/31 13:24:58.1	2.110	0.010	-0.080	-0.260
2020/01/31 13:24:58.2	2.090	0.010	-0.120	-0.270
2020/01/31 13:24:58.3	2.070	0.010	-0.160	-0.290
2020/01/31 13:24:58.4	2.050	0.010	-0.200	-0.310
2020/01/31 13:24:58.5	2.040	0.020	-0.240	-0.330
2020/01/31 13:24:58.6	2.030	0.020	-0.290	-0.350
2020/01/31 13:24:58.7	2.040	0.020	-0.340	-0.380
2020/01/31 13:24:58.8	2.040	0.030	-0.390	-0.410
2020/01/31 13:24:58.9	2.060	0.030	-0.440	-0.450
2020/01/31 13:24:59.0	2.080	0.040	-0.500	-0.480
2020/01/31 13:24:59.1	2.100	0.050	-0.550	-0.520
2020/01/31 13:24:59.2	2.130	0.060	-0.600	-0.560
2020/01/31 13:24:59.3	2.160	0.070	-0.640	-0.600
2020/01/31 13:24:59.4	2.190	0.080	-0.690	-0.650
2020/01/31 13:24:59.5	2.230	0.090	-0.730	-0.700
2020/01/31 13:24:59.6	2.270	0.100	-0.770	-0.740
2020/01/31 13:24:59.7	2.310	0.110	-0.800	-0.790
2020/01/31 13:24:59.8	2.360	0.120	-0.830	-0.840
2020/01/31 13:24:59.9	2.410	0.130	-0.860	-0.890
2020/01/31 13:25:00.0	2.450	0.140	-0.870	-0.940
2020/01/31 13:25:00.1	2.500	0.150	-0.890	-0.980
2020/01/31 13:25:00.2	2.550	0.160	-0.900	-1.030
2020/01/31 13:25:00.3	2.590	0.160	-0.900	-1.070
2020/01/31 13:25:00.4	2.640	0.170	-0.900	-1.110
2020/01/31 13:25:00.5	2.680	0.170	-0.890	-1.140
2020/01/31 13:25:00.6	2.730	0.170	-0.880	-1.170
2020/01/31 13:25:00.7	2.770	0.180	-0.860	-1.200
2020/01/31 13:25:00.8	2.810	0.170	-0.840	-1.220
2020/01/31 13:25:00.9	2.840	0.170	-0.810	-1.240
2020/01/31 13:25:01.0	2.880	0.170	-0.780	-1.250
2020/01/31 13:25:01.1	2.910	0.160	-0.750	-1.260
2020/01/31 13:25:01.2	2.940	0.150	-0.710	-1.270
2020/01/31 13:25:01.3	2.970	0.140	-0.670	-1.270
2020/01/31 13:25:01.4	3.000	0.130	-0.620	-1.260
2020/01/31 13:25:01.5	3.030	0.120	-0.570	-1.250
2020/01/31 13:25:01.6	3.060	0.110	-0.520	-1.230
2020/01/31 13:25:01.7	3.080	0.090	-0.470	-1.210
2020/01/31 13:25:01.8	3.100	0.080	-0.420	-1.190
2020/01/31 13:25:01.9	3.120	0.060	-0.370	-1.160
2020/01/31 13:25:02.0	3.140	0.040	-0.320	-1.130
2020/01/31 13:25:02.1	3.160	0.020	-0.270	-1.100
2020/01/31 13:25:02.2	3.170	0.010	-0.220	-1.060
2020/01/31 13:25:02.3	3.190	-0.010	-0.170	-1.030
2020/01/31 13:25:02.4	3.200	-0.030	-0.130	-0.980
2020/01/31 13:25:02.5	3.210	-0.050	-0.090	-0.940
2020/01/31 13:25:02.6	3.210	-0.070	-0.050	-0.900
2020/01/31 13:25:02.7	3.220	-0.080	-0.020	-0.850
2020/01/31 13:25:02.8	3.220	-0.100	0.010	-0.800
2020/01/31 13:25:02.9	3.220	-0.110	0.030	-0.750
2020/01/31 13:25:03.0	3.220	-0.130	0.050	-0.700
2020/01/31 13:25:03.1	3.220	-0.140	0.060	-0.650
2020/01/31 13:25:03.2	3.210	-0.150	0.070	-0.600
2020/01/31 13:25:03.3	3.200	-0.160	0.080	-0.550
2020/01/31 13:25:03.4	3.190	-0.160	0.080	-0.490
2020/01/31 13:25:03.5	3.170	-0.170	0.070	-0.440
2020/01/31 13:25:03.6	3.150	-0.170	0.070	-0.380
2020/01/31 13:25:03.7	3.130	-0.180	0.060	-0.320
2020/01/31 13:25:03.8	3.100	-0.180	0.040	-0.270
2020/01/31 13:25:03.9	3.070	-0.180	0.030	-0.210
2020/01/31 13:25:04.0	3.040	-0.180	0.010	-0.160
2020/01/31 13:25:04.1	3.000	-0.170	-0.010	-0.100
2020/01/31 13:25:04.2	2.960	-0.170	-0.030	-0.050
2020/01/31 13:25:04.3	2.920	-0.160	-0.050	0.000
2020/01/31 13:25:04.4	2.880	-0.150	-0.070	0.060
2020/01/31 13:25:04.5	2.840	-0.150	-0.100	0.100
2020/01/31 13:25:04.6	2.800	-0.140	-0.120	0.150
2020/01/31 13:25:04.7	2.750	-0.130	-0.140	0.200
2020/01/31 13:25:04.8	2.700	-0.120	-0.160	0.240
2020/01/31 13:25:04.9	2.650	-0.110	-0.170	0.290
2020/01/31 13:25:05.0	2.600	-0.100	-0.190	0.330
2020/01/31 13:25:05.1	2.550	-0.080	-0.200	0.370
2020/01/31 13:25:05.2	2.500	-0.070	-0.210	0.410
2020/01/31 13:25:05.3	2.440	-0.060	-0.220	0.440
2020/01/31 13:25:05.4	2.390	-0.050	-0.230	0.470
2020/01/31 13:25:05.5	2.340	-0.040	-0.240	0.500
2020/01/31 13:25:05.6	2.300	-0.030	-0.240	0.520
2020/01/31 13:25:05.7	2.250	-0.020	-0.250	0.540
2020/01/31 13:25:05.8	2.200	-0.010	-0.250	0.560
2020/01/31 13:25:05.9	2.160	-0.000	-0.250	0.570
2020/01/31 13:25:06.0	2.120	0.010	-0.260	0.580
2020/01/31 13:25:06.1	2.080	0.020	-0.260	0.580
2020/01/31 13:25:06.2	2.050	0.020	-0.260	0.580
2020/01/31 13:25:06.3	2.020	0.030	-0.270	0.580
2020/01/31 13:25:06.4	2.000	0.040	-0.270	0.570
2020/01/31 13:25:06.5	1.980	0.050	-0.280	0.550
2020/01/31 13:25:06.6	1.980	0.070	-0.290	0.530
2020/01/31 13:25:06.7	1.970	0.080	-0.300	0.510
2020/01/31 13:25:06.8	1.970	0.090	-0.310	0.480
2020/01/31 13:25:06.9	1.970	0.100	-0.320	0.450
2020/01/31 13:25:07.0	1.980	0.120	-0.340	0.410
2020/01/31 13:25:07.1	1.990	0.130	-0.350	0.370
2020/01/31 13:25:07.2	2.010	0.150	-0.370	0.330
2020/01/31 13:25:07.3	2.030	0.170	-0.380	0.280
2020/01/31 13:25:07.4	2.060	0.190	-0.390	0.240
2020/01/31 13:25:07.5	2.090	0.210	-0.410	0.190
2020/01/31 13:25:07.6	2.110	0.220	-0.420	0.140
2020/01/31 13:25:07.7	2.150	0.240	-0.430	0.090
2020/01/31 13:25:07.8	2.180	0.260	-0.430	0.040
2020/01/31 13:25:07.9	2.210	0.280	-0.430	-0.010
2020/01/31 13:25:08.0	2.250	0.290	-0.420	-0.050
2020/01/31 13:25:08.1	2.280	0.310	-0.410	-0.100
2020/01/31 13:25:08.2	2.310	0.320	-0.400	-0.140
2020/01/31 13:25:08.3	2.340	0.330	-0.380	-0.180
2020/01/31 13:25:08.4	2.360	0.340	-0.350	-0.220
2020/01/31 13:25:08.5	2.390	0.350	-0.320	-0.260
2020/01/31 13:25:08.6	2.420	0.350	-0.290	-0.300
2020/01/31 13:25:08.7	2.440	0.350	-0.260	-0.330
2020/01/31 13:25:08.8	2.460	0.350	-0.220	-0.360
2020/01/31 13:25:08.9	2.480	0.350	-0.180	-0.390
2020/01/31 13:25:09.0	2.500	0.340	-0.140	-0.420
2020/01/31 13:25:09.1	2.510	0.330	-0.090	-0.440
2020/01/31 13:25:09.2	2.530	0.320	-0.050	-0.470
2020/01/31 13:25:09.3	2.540	0.310	-0.010	-0.490
2020/01/31 13:25:09.4	2.550	0.290	0.030	-0.500
2020/01/31 13:25:09.5	2.560	0.270	0.060	-0.520
2020/01/31 13:25:09.6	2.560	0.250	0.100	-0.530
2020/01/31 13:25:09.7	2.570	0.220	0.130	-0.540
2020/01/31 13:25:09.8	2.570	0.200	0.160	-0.550
2020/01/31 13:25:09.9	2.580	0.170	0.180	-0.560
2020/01/31 13:25:10.0	2.580	0.140	0.200	-0.570
2020/01/31 13:25:10.1	2.590	0.110	0.210	-0.570
2020/01/31 13:25:10.2	2.590	0.080	0.220	-0.580
2020/01/31 13:25:10.3	2.590	0.050	0.230	-0.580
2020/01/31 13:25:10.4	2.590	0.010	0.230	-0.580
2020/01/31 13:25:10.5	2.590	-0.020	0.220	-0.590
2020/01/31 13:25:10.6	2.600	-0.060	0.210	-0.580
2020/01/31 13:25:10.7	2.600	-0.090	0.200	-0.590
2020/01/31 13:25:10.8	2.600	-0.130	0.180	-0.590
2020/01/31 13:25:10.9	2.590	-0.170	0.160	-0.590
2020/01/31 13:25:11.0	2.590	-0.200	0.140	-0.600
2020/01/31 13:25:11.1	2.580	-0.240	0.110	-0.600
2020/01/31 13:25:11.2	2.580	-0.270	0.080	-0.610
2020/01/31 13:25:11.3	2.570	-0.300	0.050	-0.620
2020/01/31 13:25:11.4	2.560	-0.330	0.020	-0.620
2020/01/31 13:25:11.5	2.550	-0.360	-0.010	-0.630
2020/01/31 13:25:11.6	2.540	-0.390	-0.050	-0.640
2020/01/31 13:25:11.7	2.530	-0.410	-0.080	-0.650
2020/01/31 13:25:11.8	2.520	-0.440	-0.110	-0.650
2020/01/31 13:25:11.9	2.500	-0.460	-0.140	-0.660
2020/01/31 13:25:12.0	2.480	-0.480	-0.170	-0.670
2020/01/31 13:25:12.1	2.460	-0.490	-0.190	-0.670
2020/01/31 13:25:12.2	2.440	-0.510	-0.220	-0.670
2020/01/31 13:25:12.3	2.420	-0.520	-0.240	-0.680
2020/01/31 13:25:12.4	2.390	-0.530	-0.260	-0.680
2020/01/31 13:25:12.5	2.360	-0.530	-0.280	-0.680
2020/01/31 13:25:12.6	2.330	-0.530	-0.290	-0.680
2020/01/31 13:25:12.7	2.300	-0.530	-0.300	-0.680
2020/01/31 13:25:12.8	2.270	-0.530	-0.320	-0.680
2020/01/31 13:25:12.9	2.240	-0.520	-0.330	-0.680
2020/01/31 13:25:13.0	2.210	-0.520	-0.330	-0.680
2020/01/31 13:25:13.1	2.180	-0.500	-0.340	-0.680
2020/01/31 13:25:13.2	2.150	-0.490	-0.350	-0.680
2020/01/31 13:25:13.3	2.120	-0.470	-0.350	-0.680
2020/01/31 13:25:13.4	2.090	-0.450	-0.360	-0.680
2020/01/31 13:25:13.5	2.060	-0.430	-0.360	-0.670
2020/01/31 13:25:13.6	2.040	-0.410	-0.370	-0.670
2020/01/31 13:25:13.7	2.010	-0.380	-0.370	-0.670
2020/01/31 13:25:13.8	1.990	-0.350	-0.380	-0.660
2020/01/31 13:25:13.9	1.970	-0.320	-0.380	-0.650
2020/01/31 13:25:14.0	1.950	-0.280	-0.390	-0.650
2020/01/31 13:25:14.1	1.930	-0.250	-0.390	-0.640
2020/01/31 13:25:14.2	1.920	-0.210	-0.400	-0.630
2020/01/31 13:25:14.3	1.910	-0.170	-0.410	-0.620
2020/01/31 13:25:14.4	1.900	-0.130	-0.420	-0.610
2020/01/31 13:25:14.5	1.890	-0.090	-0.430	-0.590
2020/01/31 13:25:14.6	1.890	-0.050	-0.440	-0.570
2020/01/31 13:25:14.7	1.880	-0.000	-0.450	-0.560
2020/01/31 13:25:14.8	1.880	0.040	-0.460	-0.540
2020/01/31 13:25:14.9	1.880	0.080	-0.470	-0.530
2020/01/31 13:25:15.0	1.880	0.130	-0.490	-0.510
2020/01/31 13:25:15.1	1.890	0.170	-0.500	-0.490
2020/01/31 13:25:15.2	1.890	0.220	-0.520	-0.480
2020/01/31 13:25:15.3	1.900	0.260	-0.530	-0.460
2020/01/31 13:25:15.4	1.910	0.300	-0.550	-0.440
2020/01/31 13:25:15.5	1.920	0.340	-0.570	-0.430
2020/01/31 13:25:15.6	1.940	0.380	-0.580	-0.410
2020/01/31 13:25:15.7	1.960	0.420	-0.600	-0.390
2020/01/31 13:25:15.8	1.980	0.460	-0.620	-0.380
2020/01/31 13:25:15.9	2.000	0.490	-0.630	-0.360
2020/01/31 13:25:16.0	2.020	0.520	-0.640	-0.350
2020/01/31 13:25:16.1	2.040	0.550	-0.660	-0.330
2020/01/31 13:25:16.2	2.060	0.570	-0.670	-0.310
2020/01/31 13:25:16.3	2.090	0.590	-0.670	-0.300
2020/01/31 13:25:16.4	2.110	0.610	-0.680	-0.280
2020/01/31 13:25:16.5	2.140	0.620	-0.680	-0.260
2020/01/31 13:25:16.6	2.160	0.630	-0.680	-0.240
2020/01/31 13:25:16.7	2.190	0.630	-0.670	-0.220
2020/01/31 13:25:16.8	2.220	0.630	-0.660	-0.190
2020/01/31 13:25:16.9	2.240	0.620	-0.650	-0.170
2020/01/31 13:25:17.0	2.260	0.610	-0.630	-0.140
2020/01/31 13:25:17.1	2.290	0.600	-0.600	-0.120
2020/01/31 13:25:17.2	2.310	0.580	-0.580	-0.090
2020/01/31 13:25:17.3	2.330	0.550	-0.550	-0.060
2020/01/31 13:25:17.4	2.340	0.520	-0.510	-0.030
2020/01/31 13:25:17.5	2.360	0.490	-0.470	0.010
2020/01/31 13:25:17.6	2.370	0.450	-0.430	0.040
2020/01/31 13:25:17.7	2.380	0.410	-0.380	0.070
2020/01/31 13:25:17.8	2.390	0.370	-0.330	0.110
2020/01/31 13:25:17.9	2.390	0.320	-0.280	0.140
2020/01/31 13:25:18.0	2.390	0.270	-0.230	0.180
2020/01/31 13:25:18.1	2.400	0.210	-0.170	0.220
2020/01/31 13:25:18.2	2.390	0.160	-0.120	0.250
2020/01/31 13:25:18.3	2.390	0.100	-0.060	0.290
2020/01/31 13:25:18.4	2.380	0.040	-0.010	0.330
2020/01/31 13:25:18.5	2.370	-0.010	0.050	0.370
2020/01/31 13:25:18.6	2.360	-0.070	0.100	0.410
2020/01/31 13:25:18.7	2.340	-0.130	0.150	0.450
2020/01/31 13:25:18.8	2.330	-0.190	0.210	0.480
2020/01/31 13:25:18.9	2.310	-0.240	0.250	0.520
2020/01/31 13:25:19.0	2.290	-0.300	0.300	0.550
2020/01/31 13:25:19.1	2.270	-0.350	0.340	0.590
2020/01/31 13:25:19.2	2.240	-0.400	0.380	0.620
2020/01/31 13:25:19.3	2.220	-0.440	0.410	0.650
2020/01/31 13:25:19.4	2.200	-0.480	0.440	0.670
2020/01/31 13:25:19.5	2.170	-0.520	0.460	0.700
2020/01/31 13:25:19.6	2.150	-0.560	0.480	0.720
2020/01/31 13:25:19.7	2.130	-0.590	0.500	0.730
2020/01/31 13:25:19.8	2.110	-0.610	0.500	0.750
2020/01/31 13:25:19.9	2.080	-0.640	0.500	0.750
2020/01/31 13:25:20.0	2.060	-0.650	0.500	0.760
2020/01/31 13:25:20.1	2.040	-0.660	0.480	0.760
2020/01/31 13:25:20.2	2.020	-0.660	0.460	0.750
2020/01/31 13:25:20.3	2.010	-0.660	0.440	0.740
2020/01/31 13:25:20.4	1.990	-0.650	0.410	0.730
2020/01/31 13:25:20.5	1.980	-0.640	0.380	0.710
2020/01/31 13:25:20.6	1.970	-0.620	0.330	0.680
2020/01/31 13:25:20.7	1.960	-0.590	0.290	0.660
2020/01/31 13:25:20.8	1.950	-0.560	0.240	0.630
2020/01/31 13:25:20.9	1.950	-0.520	0.190	0.590
2020/01/31 13:25:21.0	1.950	-0.480	0.130	0.560
2020/01/31 13:25:21.1	1.950	-0.430	0.080	0.520
2020/01/31 13:25:21.2	1.960	-0.380	0.020	0.480
2020/01/31 13:25:21.3	1.960	-0.320	-0.040	0.440
2020/01/31 13:25:21.4	1.970	-0.260	-0.110	0.400
2020/01/31 13:25:21.5	1.980	-0.200	-0.170	0.360
2020/01/31 13:25:21.6	1.980	-0.130	-0.230	0.310
2020/01/31 13:25:21.7	1.990	-0.060	-0.290	0.270
2020/01/31 13:25:21.8	2.000	0.010	-0.340	0.230
2020/01/31 13:25:21.9	2.010	0.080	-0.400	0.190
2020/01/31 13:25:22.0	2.020	0.150	-0.440	0.160
2020/01/31 13:25:22.1	2.030	0.220	-0.490	0.130
2020/01/31 13:25:22.2	2.030	0.290	-0.530	0.100
2020/01/31 13:25:22.3	2.040	0.360	-0.560	0.080
2020/01/31 13:25:22.4	2.040	0.420	-0.590	0.050
2020/01/31 13:25:22.5	2.040	0.480	-0.620	0.030
2020/01/31 13:25:22.6	2.030	0.540	-0.640	0.020
2020/01/31 13:25:22.7	2.030	0.580	-0.650	0.000
2020/01/31 13:25:22.8	2.020	0.630	-0.660	-0.010
2020/01/31 13:25:22.9	2.010	0.670	-0.660	-0.020
2020/01/31 13:25:23.0	2.000	0.700	-0.660	-0.040
2020/01/31 13:25:23.1	1.990	0.720	-0.650	-0.050
2020/01/31 13:25:23.2	1.970	0.740	-0.640	-0.060
2020/01/31 13:25:23.3	1.960	0.750	-0.620	-0.060
2020/01/31 13:25:23.4	1.940	0.760	-0.600	-0.070
2020/01/31 13:25:23.5	1.920	0.750	-0.580	-0.080
2020/01/31 13:25:23.6	1.910	0.740	-0.560	-0.080
2020/01/31 13:25:23.7	1.890	0.730	-0.530	-0.090
2020/01/31 13:25:23.8	1.870	0.710	-0.510	-0.100
2020/01/31 13:25:23.9	1.860	0.680	-0.480	-0.120
2020/01/31 13:25:24.0	1.840	0.640	-0.460	-0.130
2020/01/31 13:25:24.1	1.830	0.600	-0.430	-0.150
2020/01/31 13:25:24.2	1.820	0.560	-0.410	-0.160
2020/01/31 13:25:24.3	1.810	0.510	-0.390	-0.190
2020/01/31 13:25:24.4	1.800	0.460	-0.370	-0.210
2020/01/31 13:25:24.5	1.790	0.400	-0.350	-0.230
2020/01/31 13:25:24.6	1.790	0.340	-0.340	-0.260
2020/01/31 13:25:24.7	1.790	0.280	-0.330	-0.300
2020/01/31 13:25:24.8	1.790	0.220	-0.310	-0.330
2020/01/31 13:25:24.9	1.790	0.160	-0.310	-0.370
2020/01/31 13:25:25.0	1.800	0.100	-0.300	-0.410
2020/01/31 13:25:25.1	1.810	0.030	-0.300	-0.450
2020/01/31 13:25:25.2	1.820	-0.030	-0.290	-0.500
2020/01/31 13:25:25.3	1.830	-0.090	-0.290	-0.550
2020/01/31 13:25:25.4	1.850	-0.150	-0.290	-0.600
2020/01/31 13:25:25.5	1.870	-0.200	-0.290	-0.650
2020/01/31 13:25:25.6	1.890	-0.260	-0.300	-0.710
2020/01/31 13:25:25.7	1.910	-0.310	-0.300	-0.760
2020/01/31 13:25:25.8	1.930	-0.350	-0.300	-0.820
2020/01/31 13:25:25.9	1.960	-0.390	-0.310	-0.880
2020/01/31 13:25:26.0	1.990	-0.430	-0.310	-0.940
2020/01/31 13:25:26.1	2.020	-0.470	-0.320	-1.000
2020/01/31 13:25:26.2	2.050	-0.500	-0.320	-1.070
2020/01/31 13:25:26.3	2.080	-0.520	-0.330	-1.130
2020/01/31 13:25:26.4	2.110	-0.540	-0.330	-1.190
2020/01/31 13:25:26.5	2.150	-0.560	-0.340	-1.260
2020/01/31 13:25:26.6	2.180	-0.560	-0.340	-1.320
2020/01/31 13:25:26.7	2.220	-0.570	-0.350	-1.380
2020/01/31 13:25:26.8	2.250	-0.570	-0.350	-1.430
2020/01/31 13:25:26.9	2.290	-0.560	-0.350	-1.490
2020/01/31 13:25:27.0	2.330	-0.550	-0.350	-1.540
2020/01/31 13:25:27.1	2.360	-0.540	-0.350	-1.590
2020/01/31 13:25:27.2	2.400	-0.520	-0.350	-1.630
2020/01/31 13:25:27.3	2.440	-0.500	-0.340	-1.670
2020/01/31 13:25:27.4	2.470	-0.480	-0.330	-1.710
2020/01/31 13:25:27.5	2.500	-0.450	-0.320	-1.740
2020/01/31 13:25:27.6	2.530	-0.420	-0.310	-1.760
2020/01/31 13:25:27.7	2.560	-0.390	-0.290	-1.780
2020/01/31 13:25:27.8	2.590	-0.360	-0.270	-1.790
2020/01/31 13:25:27.9	2.610	-0.320	-0.250	-1.800
2020/01/31 13:25:28.0	2.630	-0.290	-0.220	-1.800
2020/01/31 13:25:28.1	2.640	-0.260	-0.190	-1.790
2020/01/31 13:25:28.2	2.660	-0.230	-0.160	-1.780
2020/01/31 13:25:28.3	2.660	-0.190	-0.130	-1.750
2020/01/31 13:25:28.4	2.660	-0.170	-0.090	-1.720
2020/01/31 13:25:28.5	2.660	-0.140	-0.050	-1.690
2020/01/31 13:25:28.6	2.660	-0.120	-0.010	-1.640
2020/01/31 13:25:28.7	2.640	-0.090	0.030	-1.590
2020/01/31 13:25:28.8	2.630	-0.080	0.070	-1.540
2020/01/31 13:25:28.9	2.600	-0.060	0.110	-1.480
2020/01/31 13:25:29.0	2.580	-0.050	0.160	-1.410
2020/01/31 13:25:29.1	2.540	-0.040	0.200	-1.340
2020/01/31 13:25:29.2	2.510	-0.040	0.240	-1.260
2020/01/31 13:25:29.3	2.470	-0.040	0.270	-1.180
2020/01/31 13:25:29.4	2.430	-0.040	0.310	-1.100
2020/01/31 13:25:29.5	2.380	-0.040	0.330	-1.020
2020/01/31 13:25:29.6	2.330	-0.050	0.360	-0.920
2020/01/31 13:25:29.7	2.280	-0.070	0.380	-0.840
2020/01/31 13:25:29.8	2.230	-0.080	0.400	-0.750
2020/01/31 13:25:29.9	2.180	-0.100	0.410	-0.660
2020/01/31 13:25:30.0	2.130	-0.110	0.410	-0.580
2020/01/31 13:25:30.1	2.080	-0.130	0.410	-0.490
2020/01/31 13:25:30.2	2.040	-0.150	0.400	-0.410
2020/01/31 13:25:30.3	1.990	-0.170	0.390	-0.330
2020/01/31 13:25:30.4	1.940	-0.190	0.370	-0.260
2020/01/31 13:25:30.5	1.900	-0.210	0.350	-0.190
2020/01/31 13:25:30.6	1.870	-0.230	0.320	-0.120
2020/01/31 13:25:30.7	1.830	-0.240	0.280	-0.060
2020/01/31 13:25:30.8	1.800	-0.260	0.240	-0.000
2020/01/31 13:25:30.9	1.770	-0.260	0.190	0.050
2020/01/31 13:25:31.0	1.750	-0.270	0.140	0.100
2020/01/31 13:25:31.1	1.730	-0.270	0.090	0.140
2020/01/31 13:25:31.2	1.710	-0.270	0.030	0.180
2020/01/31 13:25:31.3	1.700	-0.260	-0.030	0.210
2020/01/31 13:25:31.4	1.690	-0.250	-0.090	0.250
2020/01/31 13:25:31.5	1.690	-0.230	-0.150	0.270
2020/01/31 13:25:31.6	1.680	-0.210	-0.220	0.300
2020/01/31 13:25:31.7	1.680	-0.190	-0.280	0.330
2020/01/31 13:25:31.8	1.680	-0.150	-0.340	0.350
2020/01/31 13:25:31.9	1.680	-0.120	-0.400	0.370
2020/01/31 13:25:32.0	1.680	-0.080	-0.460	0.400
2020/01/31 13:25:32.1	1.680	-0.030	-0.510	0.420
2020/01/31 13:25:32.2	1.690	0.010	-0.560	0.440
2020/01/31 13:25:32.3	1.690	0.060	-0.610	0.460
2020/01/31 13:25:32.4	1.700	0.110	-0.660	0.480
2020/01/31 13:25:32.5	1.700	0.170	-0.700	0.500
2020/01/31 13:25:32.6	1.710	0.220	-0.730	0.520
2020/01/31 13:25:32.7	1.720	0.280	-0.770	0.540
2020/01/31 13:25:32.8	1.720	0.330	-0.790	0.550
2020/01/31 13:25:32.9	1.730	0.380	-0.820	0.570
2020/01/31 13:25:33.0	1.730	0.430	-0.840	0.580
2020/01/31 13:25:33.1	1.730	0.480	-0.850	0.590
2020/01/31 13:25:33.2	1.740	0.520	-0.870	0.590
2020/01/31 13:25:33.3	1.740	0.560	-0.870	0.600
2020/01/31 13:25:33.4	1.730	0.600	-0.880	0.600
2020/01/31 13:25:33.5	1.730	0.630	-0.880	0.600
2020/01/31 13:25:33.6	1.720	0.650	-0.880	0.600
2020/01/31 13:25:33.7	1.720	0.670	-0.870	0.600
2020/01/31 13:25:33.8	1.710	0.690	-0.860	0.590
2020/01/31 13:25:33.9	1.700	0.700	-0.850	0.580
2020/01/31 13:25:34.0	1.690	0.700	-0.830	0.560
2020/01/31 13:25:34.1	1.690	0.700	-0.810	0.550
2020/01/31 13:25:34.2	1.680	0.690	-0.790	0.530
2020/01/31 13:25:34.3	1.670	0.680	-0.770	0.510
2020/01/31 13:25:34.4	1.660	0.660	-0.740	0.480
2020/01/31 13:25:34.5	1.660	0.630	-0.720	0.460
2020/01/31 13:25:34.6	1.650	0.600	-0.690	0.420
2020/01/31 13:25:34.7	1.640	0.570	-0.660	0.390
2020/01/31 13:25:34.8	1.640	0.530	-0.630	0.350
2020/01/31 13:25:34.9	1.640	0.490	-0.610	0.320
2020/01/31 13:25:35.0	1.640	0.450	-0.580	0.270
2020/01/31 13:25:35.1	1.650	0.400	-0.550	0.230
2020/01/31 13:25:35.2	1.660	0.350	-0.530	0.190
2020/01/31 13:25:35.3	1.670	0.300	-0.510	0.140
2020/01/31 13:25:35.4	1.680	0.250	-0.480	0.090
2020/01/31 13:25:35.5	1.700	0.200	-0.460	0.030
2020/01/31 13:25:35.6	1.720	0.150	-0.450	-0.020
2020/01/31 13:25:35.7	1.740	0.100	-0.430	-0.080
2020/01/31 13:25:35.8	1.770	0.060	-0.420	-0.140
2020/01/31 13:25:35.9	1.790	0.010	-0.410	-0.210
2020/01/31 13:25:36.0	1.820	-0.030	-0.390	-0.270
2020/01/31 13:25:36.1	1.850	-0.070	-0.380	-0.330
2020/01/31 13:25:36.2	1.880	-0.110	-0.370	-0.390
2020/01/31 13:25:36.3	1.900	-0.150	-0.360	-0.450
2020/01/31 13:25:36.4	1.930	-0.180	-0.350	-0.510
2020/01/31 13:25:36.5	1.950	-0.210	-0.340	-0.570
2020/01/31 13:25:36.6	1.980	-0.230	-0.330	-0.630
2020/01/31 13:25:36.7	2.000	-0.250	-0.310	-0.680
2020/01/31 13:25:36.8	2.020	-0.270	-0.300	-0.730
2020/01/31 13:25:36.9	2.040	-0.280	-0.280	-0.780
2020/01/31 13:25:37.0	2.060	-0.290	-0.270	-0.820
2020/01/31 13:25:37.1	2.070	-0.300	-0.250	-0.870
2020/01/31 13:25:37.2	2.080	-0.300	-0.230	-0.910
2020/01/31 13:25:37.3	2.090	-0.310	-0.210	-0.950
2020/01/31 13:25:37.4	2.100	-0.300	-0.190	-0.990
2020/01/31 13:25:37.5	2.120	-0.300	-0.170	-1.020
2020/01/31 13:25:37.6	2.120	-0.290	-0.140	-1.050
2020/01/31 13:25:37.7	2.130	-0.280	-0.120	-1.090
2020/01/31 13:25:37.8	2.140	-0.270	-0.100	-1.120
2020/01/31 13:25:37.9	2.150	-0.260	-0.080	-1.150
2020/01/31 13:25:38.0	2.160	-0.250	-0.060	-1.180
2020/01/31 13:25:38.1	2.170	-0.230	-0.040	-1.210
2020/01/31 13:25:38.2	2.180	-0.220	-0.020	-1.240
2020/01/31 13:25:38.3	2.200	-0.200	0.000	-1.270
2020/01/31 13:25:38.4	2.210	-0.190	0.020	-1.290
2020/01/31 13:25:38.5	2.220	-0.170	0.050	-1.310
2020/01/31 13:25:38.6	2.240	-0.160	0.060	-1.330
2020/01/31 13:25:38.7	2.250	-0.140	0.080	-1.350
2020/01/31 13:25:38.8	2.260	-0.130	0.100	-1.360
2020/01/31 13:25:38.9	2.260	-0.120	0.120	-1.370
2020/01/31 13:25:39.0	2.260	-0.100	0.150	-1.370
2020/01/31 13:25:39.1	2.260	-0.090	0.170	-1.370
2020/01/31 13:25:39.2	2.260	-0.090	0.200	-1.360
2020/01/31 13:25:39.3	2.250	-0.080	0.220	-1.340
2020/01/31 13:25:39.4	2.240	-0.080	0.250	-1.320
2020/01/31 13:25:39.5	2.220	-0.080	0.280	-1.280
2020/01/31 13:25:39.6	2.200	-0.080	0.310	-1.240
2020/01/31 13:25:39.7	2.180	-0.080	0.350	-1.200
2020/01/31 13:25:39.8	2.150	-0.090	0.380	-1.150
2020/01/31 13:25:39.9	2.110	-0.090	0.420	-1.100
2020/01/31 13:25:40.0	2.080	-0.100	0.450	-1.040
2020/01/31 13:25:40.1	2.030	-0.120	0.490	-0.980
2020/01/31 13:25:40.2	1.990	-0.130	0.530	-0.910
2020/01/31 13:25:40.3	1.940	-0.150	0.560	-0.840
2020/01/31 13:25:40.4	1.880	-0.160	0.600	-0.770
2020/01/31 13:25:40.5	1.830	-0.180	0.630	-0.690
2020/01/31 13:25:40.6	1.770	-0.200	0.660	-0.610
2020/01/31 13:25:40.7	1.710	-0.220	0.690	-0.540
2020/01/31 13:25:40.8	1.650	-0.240	0.710	-0.460
2020/01/31 13:25:40.9	1.590	-0.270	0.730	-0.380
2020/01/31 13:25:41.0	1.520	-0.290	0.750	-0.310
2020/01/31 13:25:41.1	1.460	-0.310	0.750	-0.230
2020/01/31 13:25:41.2	1.400	-0.330	0.760	-0.150
2020/01/31 13:25:41.3	1.340	-0.340	0.750	-0.080
2020/01/31 13:25:41.4	1.280	-0.360	0.740	-0.010
2020/01/31 13:25:41.5	1.220	-0.370	0.720	0.060
2020/01/31 13:25:41.6	1.170	-0.390	0.700	0.120
2020/01/31 13:25:41.7	1.120	-0.390	0.660	0.190
2020/01/31 13:25:41.8	1.070	-0.400	0.620	0.250
2020/01/31 13:25:41.9	1.020	-0.400	0.570	0.300
2020/01/31 13:25:42.0	0.970	-0.400	0.510	0.360
2020/01/31 13:25:42.1	0.930	-0.400	0.450	0.410
2020/01/31 13:25:42.2	0.890	-0.390	0.380	0.450
2020/01/31 13:25:42.3	0.850	-0.370	0.310	0.490
2020/01/31 13:25:42.4	0.820	-0.360	0.230	0.520
2020/01/31 13:25:42.5	0.790	-0.340	0.140	0.550
2020/01/31 13:25:42.6	0.750	-0.310	0.050	0.580
2020/01/31 13:25:42.7	0.730	-0.290	-0.040	0.600
2020/01/31 13:25:42.8	0.720	-0.250	-0.140	0.610
2020/01/31 13:25:42.9	0.710	-0.220	-0.240	0.610
2020/01/31 13:25:43.0	0.700	-0.180	-0.350	0.610
2020/01/31 13:25:43.1	0.700	-0.130	-0.450	0.600
2020/01/31 13:25:43.2	0.710	-0.090	-0.560	0.580
2020/01/31 13:25:43.3	0.720	-0.040	-0.670	0.560
2020/01/31 13:25:43.4	0.730	0.020	-0.770	0.530
2020/01/31 13:25:43.5	0.750	0.070	-0.880	0.500
2020/01/31 13:25:43.6	0.770	0.130	-0.980	0.460
2020/01/31 13:25:43.7	0.800	0.190	-1.080	0.420
2020/01/31 13:25:43.8	0.830	0.240	-1.180	0.380
2020/01/31 13:25:43.9	0.860	0.300	-1.270	0.340
2020/01/31 13:25:44.0	0.900	0.360	-1.350	0.290
2020/01/31 13:25:44.1	0.940	0.420	-1.430	0.240
2020/01/31 13:25:44.2	0.990	0.470	-1.500	0.190
2020/01/31 13:25:44.3	1.030	0.530	-1.570	0.140
2020/01/31 13:25:44.4	1.080	0.580	-1.620	0.090
2020/01/31 13:25:44.5	1.130	0.620	-1.670	0.040
2020/01/31 13:25:44.6	1.180	0.670	-1.700	-0.010
2020/01/31 13:25:44.7	1.230	0.710	-1.730	-0.060
2020/01/31 13:25:44.8	1.280	0.740	-1.750	-0.110
2020/01/31 13:25:44.9	1.340	0.770	-1.760	-0.170
2020/01/31 13:25:45.0	1.390	0.800	-1.750	-0.220
2020/01/31 13:25:45.1	1.440	0.810	-1.740	-0.270
2020/01/31 13:25:45.2	1.490	0.830	-1.720	-0.320
2020/01/31 13:25:45.3	1.540	0.830	-1.690	-0.370
2020/01/31 13:25:45.4	1.590	0.830	-1.660	-0.420
2020/01/31 13:25:45.5	1.630	0.820	-1.610	-0.460
2020/01/31 13:25:45.6	1.670	0.810	-1.560	-0.500
2020/01/31 13:25:45.7	1.710	0.790	-1.490	-0.550
2020/01/31 13:25:45.8	1.740	0.760	-1.430	-0.590
2020/01/31 13:25:45.9	1.770	0.730	-1.350	-0.630
2020/01/31 13:25:46.0	1.800	0.690	-1.270	-0.670
2020/01/31 13:25:46.1	1.820	0.650	-1.180	-0.710
2020/01/31 13:25:46.2	1.840	0.600	-1.080	-0.740
2020/01/31 13:25:46.3	1.860	0.540	-0.990	-0.780
2020/01/31 13:25:46.4	1.870	0.480	-0.890	-0.810
2020/01/31 13:25:46.5	1.890	0.420	-0.790	-0.850
2020/01/31 13:25:46.6	1.890	0.350	-0.680	-0.880
2020/01/31 13:25:46.7	1.900	0.280	-0.580	-0.900
2020/01/31 13:25:46.8	1.900	0.210	-0.470	-0.930
2020/01/31 13:25:46.9	1.900	0.130	-0.360	-0.950
2020/01/31 13:25:47.0	1.890	0.050	-0.250	-0.970
2020/01/31 13:25:47.1	1.880	-0.020	-0.150	-0.980
2020/01/31 13:25:47.2	1.880	-0.100	-0.040	-0.990
2020/01/31 13:25:47.3	1.860	-0.180	0.060	-1.000
2020/01/31 13:25:47.4	1.850	-0.250	0.160	-1.000
2020/01/31 13:25:47.5	1.830	-0.330	0.260	-1.000
2020/01/31 13:25:47.6	1.820	-0.400	0.350	-0.990
2020/01/31 13:25:47.7	1.800	-0.470	0.440	-0.990
2020/01/31 13:25:47.8	1.780	-0.530	0.520	-0.980
2020/01/31 13:25:47.9	1.760	-0.590	0.600	-0.960
2020/01/31 13:25:48.0	1.730	-0.650	0.670	-0.950
2020/01/31 13:25:48.1	1.700	-0.700	0.730	-0.930
2020/01/31 13:25:48.2	1.680	-0.750	0.790	-0.910
2020/01/31 13:25:48.3	1.650	-0.800	0.840	-0.890
2020/01/31 13:25:48.4	1.620	-0.830	0.890	-0.870
2020/01/31 13:25:48.5	1.590	-0.870	0.920	-0.850
2020/01/31 13:25:48.6	1.560	-0.890	0.950	-0.830
2020/01/31 13:25:48.7	1.540	-0.910	0.970	-0.800
2020/01/31 13:25:48.8	1.510	-0.930	0.980	-0.780
2020/01/31 13:25:48.9	1.480	-0.940	0.990	-0.750
2020/01/31 13:25:49.0	1.450	-0.940	0.990	-0.730
2020/01/31 13:25:49.1	1.420	-0.930	0.970	-0.710
2020/01/31 13:25:49.2	1.390	-0.920	0.960	-0.680
2020/01/31 13:25:49.3	1.360	-0.910	0.930	-0.660
2020/01/31 13:25:49.4	1.330	-0.880	0.900	-0.630
2020/01/31 13:25:49.5	1.310	-0.850	0.860	-0.600
2020/01/31 13:25:49.6	1.290	-0.820	0.820	-0.570
2020/01/31 13:25:49.7	1.260	-0.780	0.770	-0.540
2020/01/31 13:25:49.8	1.230	-0.730	0.720	-0.510
2020/01/31 13:25:49.9	1.210	-0.680	0.660	-0.480
2020/01/31 13:25:50.0	1.180	-0.630	0.600	-0.450
2020/01/31 13:25:50.1	1.160	-0.570	0.530	-0.410
2020/01/31 13:25:50.2	1.130	-0.510	0.470	-0.370
2020/01/31 13:25:50.3	1.100	-0.440	0.400	-0.330
2020/01/31 13:25:50.4	1.080	-0.380	0.340	-0.290
2020/01/31 13:25:50.5	1.060	-0.310	0.270	-0.240
2020/01/31 13:25:50.6	1.010	-0.240	0.200	-0.190
2020/01/31 13:25:50.7	0.990	-0.160	0.140	-0.140
2020/01/31 13:25:50.8	0.970	-0.090	0.080	-0.090
2020/01/31 13:25:50.9	0.950	-0.020	0.020	-0.040
2020/01/31 13:25:51.0	0.930	0.050	-0.040	0.010
2020/01/31 13:25:51.1	0.910	0.120	-0.100	0.070
2020/01/31 13:25:51.2	0.900	0.190	-0.150	0.120
2020/01/31 13:25:51.3	0.880	0.250	-0.200	0.170
2020/01/31 13:25:51.4	0.870	0.320	-0.250	0.230
2020/01/31 13:25:51.5	0.860	0.380	-0.290	0.280
2020/01/31 13:25:51.6	0.850	0.440	-0.330	0.330
2020/01/31 13:25:51.7	0.840	0.490	-0.370	0.380
2020/01/31 13:25:51.8	0.840	0.540	-0.410	0.430
2020/01/31 13:25:51.9	0.840	0.590	-0.440	0.470
2020/01/31 13:25:52.0	0.840	0.630	-0.470	0.510
2020/01/31 13:25:52.1	0.840	0.670	-0.500	0.550
2020/01/31 13:25:52.2	0.850	0.700	-0.520	0.590
2020/01/31 13:25:52.3	0.860	0.730	-0.550	0.620
2020/01/31 13:25:52.4	0.870	0.760	-0.570	0.650
2020/01/31 13:25:52.5	0.880	0.780	-0.590	0.680
2020/01/31 13:25:52.6	0.900	0.790	-0.610	0.700
2020/01/31 13:25:52.7	0.920	0.810	-0.630	0.720
2020/01/31 13:25:52.8	0.940	0.810	-0.640	0.740
2020/01/31 13:25:52.9	0.960	0.810	-0.660	0.750
2020/01/31 13:25:53.0	0.990	0.810	-0.680	0.760
2020/01/31 13:25:53.1	1.010	0.810	-0.690	0.760
2020/01/31 13:25:53.2	1.040	0.800	-0.710	0.760
2020/01/31 13:25:53.3	1.080	0.780	-0.720	0.750
2020/01/31 13:25:53.4	1.110	0.760	-0.740	0.740
2020/01/31 13:25:53.5	1.140	0.740	-0.750	0.730
2020/01/31 13:25:53.6	1.190	0.720	-0.760	0.720
2020/01/31 13:25:53.7	1.220	0.690	-0.770	0.690
2020/01/31 13:25:53.8	1.260	0.660	-0.780	0.670
2020/01/31 13:25:53.9	1.290	0.620	-0.790	0.640
2020/01/31 13:25:54.0	1.330	0.580	-0.790	0.610
2020/01/31 13:25:54.1	1.360	0.540	-0.800	0.580
2020/01/31 13:25:54.2	1.390	0.490	-0.800	0.550
2020/01/31 13:25:54.3	1.420	0.440	-0.790	0.510
2020/01/31 13:25:54.4	1.450	0.390	-0.790	0.470
2020/01/31 13:25:54.5	1.470	0.340	-0.780	0.430
2020/01/31 13:25:54.6	1.490	0.280	-0.770	0.380
2020/01/31 13:25:54.7	1.500	0.230	-0.750	0.340
2020/01/31 13:25:54.8	1.510	0.170	-0.730	0.290
2020/01/31 13:25:54.9	1.520	0.110	-0.700	0.230
2020/01/31 13:25:55.0	1.520	0.050	-0.680	0.180
2020/01/31 13:25:55.1	1.520	-0.010	-0.650	0.120
2020/01/31 13:25:55.2	1.520	-0.070	-0.610	0.070
2020/01/31 13:25:55.3	1.510	-0.130	-0.580	0.010
2020/01/31 13:25:55.4	1.500	-0.200	-0.540	-0.050
2020/01/31 13:25:55.5	1.490	-0.250	-0.500	-0.110
2020/01/31 13:25:55.6	1.470	-0.310	-0.450	-0.170
2020/01/31 13:25:55.7	1.450	-0.370	-0.410	-0.230
2020/01/31 13:25:55.8	1.430	-0.420	-0.360	-0.280
2020/01/31 13:25:55.9	1.410	-0.470	-0.310	-0.340
2020/01/31 13:25:56.0	1.380	-0.520	-0.260	-0.390
2020/01/31 13:25:56.1	1.350	-0.570	-0.210	-0.440
2020/01/31 13:25:56.2	1.330	-0.610	-0.160	-0.500
2020/01/31 13:25:56.3	1.300	-0.640	-0.110	-0.540
2020/01/31 13:25:56.4	1.270	-0.680	-0.070	-0.590
2020/01/31 13:25:56.5	1.250	-0.700	-0.020	-0.640
2020/01/31 13:25:56.6	1.220	-0.720	0.020	-0.680
2020/01/31 13:25:56.7	1.190	-0.740	0.060	-0.720
2020/01/31 13:25:56.8	1.170	-0.750	0.090	-0.760
2020/01/31 13:25:56.9	1.150	-0.760	0.130	-0.800
2020/01/31 13:25:57.0	1.120	-0.760	0.160	-0.830
2020/01/31 13:25:57.1	1.100	-0.760	0.180	-0.860
2020/01/31 13:25:57.2	1.080	-0.750	0.210	-0.890
2020/01/31 13:25:57.3	1.060	-0.740	0.230	-0.910
2020/01/31 13:25:57.4	1.050	-0.720	0.240	-0.940
2020/01/31 13:25:57.5	1.030	-0.690	0.250	-0.960
2020/01/31 13:25:57.6	1.020	-0.660	0.260	-0.980
2020/01/31 13:25:57.7	1.010	-0.630	0.260	-1.000
2020/01/31 13:25:57.8	1.000	-0.600	0.260	-1.010
2020/01/31 13:25:57.9	0.990	-0.560	0.260	-1.030
2020/01/31 13:25:58.0	0.980	-0.520	0.250	-1.040
2020/01/31 13:25:58.1	0.970	-0.470	0.240	-1.050
2020/01/31 13:25:58.2	0.960	-0.420	0.230	-1.060
2020/01/31 13:25:58.3	0.960	-0.380	0.210	-1.080
2020/01/31 13:25:58.4	0.960	-0.330	0.190	-1.090
2020/01/31 13:25:58.5	0.960	-0.270	0.170	-1.100
2020/01/31 13:25:58.6	0.950	-0.220	0.150	-1.100
2020/01/31 13:25:58.7	0.960	-0.170	0.120	-1.110
2020/01/31 13:25:58.8	0.960	-0.120	0.100	-1.120
2020/01/31 13:25:58.9	0.980	-0.060	0.070	-1.130
2020/01/31 13:25:59.0	0.990	-0.010	0.040	-1.140
2020/01/31 13:25:59.1	1.000	0.040	0.010	-1.140
2020/01/31 13:25:59.2	1.020	0.090	-0.030	-1.150
2020/01/31 13:25:59.3	1.040	0.140	-0.060	-1.150
2020/01/31 13:25:59.4	1.060	0.180	-0.100	-1.150
2020/01/31 13:25:59.5	1.080	0.230	-0.130	-1.150
2020/01/31 13:25:59.6	1.110	0.270	-0.170	-1.140
2020/01/31 13:25:59.7	1.140	0.310	-0.200	-1.130
2020/01/31 13:25:59.8	1.160	0.340	-0.230	-1.120
2020/01/31 13:25:59.9	1.190	0.380	-0.260	-1.100
2020/01/31 13:26:00.0	1.210	0.400	-0.290	-1.080
2020/01/31 13:26:00.1	1.230	0.430	-0.320	-1.060
2020/01/31 13:26:00.2	1.260	0.450	-0.340	-1.030
2020/01/31 13:26:00.3	1.280	0.470	-0.360	-1.000
2020/01/31 13:26:00.4	1.300	0.480	-0.380	-0.970
2020/01/31 13:26:00.5	1.320	0.490	-0.390	-0.930
2020/01/31 13:26:00.6	1.340	0.500	-0.410	-0.880
2020/01/31 13:26:00.7	1.350	0.500	-0.410	-0.840
2020/01/31 13:26:00.8	1.360	0.500	-0.420	-0.800
2020/01/31 13:26:00.9	1.380	0.490	-0.420	-0.750
2020/01/31 13:26:01.0	1.390	0.480	-0.410	-0.710
2020/01/31 13:26:01.1	1.390	0.470	-0.410	-0.660
2020/01/31 13:26:01.2	1.400	0.450	-0.400	-0.610
2020/01/31 13:26:01.3	1.410	0.430	-0.380	-0.560
2020/01/31 13:26:01.4	1.410	0.410	-0.370	-0.510
2020/01/31 13:26:01.5	1.410	0.390	-0.350	-0.460
2020/01/31 13:26:01.6	1.400	0.370	-0.330	-0.410
2020/01/31 13:26:01.7	1.400	0.340	-0.310	-0.360
2020/01/31 13:26:01.8	1.390	0.320	-0.280	-0.310
2020/01/31 13:26:01.9	1.390	0.290	-0.260	-0.260
2020/01/31 13:26:02.0	1.380	0.270	-0.230	-0.210
2020/01/31 13:26:02.1	1.370	0.240	-0.210	-0.160
2020/01/31 13:26:02.2	1.360	0.210	-0.190	-0.110
2020/01/31 13:26:02.3	1.350	0.190	-0.160	-0.060
2020/01/31 13:26:02.4	1.340	0.160	-0.140	-0.010
2020/01/31 13:26:02.5	1.330	0.140	-0.130	0.030
2020/01/31 13:26:02.6	1.310	0.120	-0.110	0.080
2020/01/31 13:26:02.7	1.300	0.100	-0.100	0.130
2020/01/31 13:26:02.8	1.280	0.080	-0.090	0.170
2020/01/31 13:26:02.9	1.270	0.060	-0.090	0.210
2020/01/31 13:26:03.0	1.250	0.050	-0.090	0.240
2020/01/31 13:26:03.1	1.240	0.030	-0.090	0.280
2020/01/31 13:26:03.2	1.230	0.020	-0.100	0.310
2020/01/31 13:26:03.3	1.210	0.010	-0.120	0.330
2020/01/31 13:26:03.4	1.200	-0.000	-0.130	0.360
2020/01/31 13:26:03.5	1.190	-0.010	-0.160	0.370
2020/01/31 13:26:03.6	1.200	-0.020	-0.190	0.390
2020/01/31 13:26:03.7	1.190	-0.020	-0.220	0.400
2020/01/31 13:26:03.8	1.180	-0.030	-0.260	0.410
2020/01/31 13:26:03.9	1.180	-0.030	-0.300	0.410
2020/01/31 13:26:04.0	1.180	-0.030	-0.340	0.400
2020/01/31 13:26:04.1	1.180	-0.030	-0.380	0.390
2020/01/31 13:26:04.2	1.190	-0.030	-0.430	0.380
2020/01/31 13:26:04.3	1.190	-0.020	-0.480	0.360
2020/01/31 13:26:04.4	1.200	-0.020	-0.530	0.340
2020/01/31 13:26:04.5	1.210	-0.020	-0.580	0.320
2020/01/31 13:26:04.6	1.240	-0.010	-0.630	0.290
2020/01/31 13:26:04.7	1.260	-0.000	-0.680	0.260
2020/01/31 13:26:04.8	1.270	0.000	-0.730	0.230
2020/01/31 13:26:04.9	1.300	0.010	-0.770	0.190
2020/01/31 13:26:05.0	1.320	0.010	-0.820	0.150
2020/01/31 13:26:05.1	1.340	0.020	-0.850	0.110
2020/01/31 13:26:05.2	1.370	0.020	-0.890	0.070
2020/01/31 13:26:05.3	1.390	0.030	-0.920	0.030
2020/01/31 13:26:05.4	1.420	0.030	-0.940	-0.010
2020/01/31 13:26:05.5	1.450	0.030	-0.960	-0.060
2020/01/31 13:26:05.6	1.470	0.040	-0.970	-0.100
2020/01/31 13:26:05.7	1.500	0.040	-0.970	-0.140
2020/01/31 13:26:05.8	1.530	0.040	-0.960	-0.180
2020/01/31 13:26:05.9	1.560	0.030	-0.950	-0.220
2020/01/31 13:26:06.0	1.580	0.030	-0.930	-0.250
2020/01/31 13:26:06.1	1.610	0.020	-0.890	-0.280
2020/01/31 13:26:06.2	1.640	0.020	-0.850	-0.310
2020/01/31 13:26:06.3	1.660	0.010	-0.800	-0.340
2020/01/31 13:26:06.4	1.690	-0.000	-0.740	-0.360
2020/01/31 13:26:06.5	1.710	-0.020	-0.680	-0.380
2020/01/31 13:26:06.6	1.740	-0.030	-0.600	-0.400
2020/01/31 13:26:06.7	1.760	-0.050	-0.530	-0.410
2020/01/31 13:26:06.8	1.780	-0.070	-0.440	-0.420
2020/01/31 13:26:06.9	1.790	-0.080	-0.350	-0.420
2020/01/31 13:26:07.0	1.810	-0.110	-0.260	-0.420
2020/01/31 13:26:07.1	1.820	-0.130	-0.170	-0.420
2020/01/31 13:26:07.2	1.830	-0.150	-0.070	-0.420
2020/01/31 13:26:07.3	1.840	-0.180	0.030	-0.410
2020/01/31 13:26:07.4	1.850	-0.200	0.120	-0.400
2020/01/31 13:26:07.5	1.850	-0.230	0.220	-0.390
2020/01/31 13:26:07.6	1.850	-0.250	0.310	-0.370
2020/01/31 13:26:07.7	1.860	-0.280	0.400	-0.350
2020/01/31 13:26:07.8	1.860	-0.300	0.480	-0.340
2020/01/31 13:26:07.9	1.860	-0.320	0.560	-0.320
2020/01/31 13:26:08.0	1.860	-0.350	0.640	-0.300
2020/01/31 13:26:08.1	1.860	-0.360	0.700	-0.280
2020/01/31 13:26:08.2	1.860	-0.380	0.760	-0.260
2020/01/31 13:26:08.3	1.850	-0.400	0.810	-0.230
2020/01/31 13:26:08.4	1.850	-0.410	0.850	-0.210
2020/01/31 13:26:08.5	1.840	-0.420	0.890	-0.180
2020/01/31 13:26:08.6	1.850	-0.420	0.910	-0.160
2020/01/31 13:26:08.7	1.840	-0.420	0.930	-0.130
2020/01/31 13:26:08.8	1.830	-0.420	0.940	-0.110
2020/01/31 13:26:08.9	1.820	-0.410	0.930	-0.080
2020/01/31 13:26:09.0	1.810	-0.400	0.920	-0.050
2020/01/31 13:26:09.1	1.800	-0.390	0.900	-0.020
2020/01/31 13:26:09.2	1.780	-0.370	0.870	0.010
2020/01/31 13:26:09.3	1.770	-0.340	0.840	0.040
2020/01/31 13:26:09.4	1.750	-0.320	0.800	0.070
2020/01/31 13:26:09.5	1.730	-0.290	0.750	0.100
2020/01/31 13:26:09.6	1.720	-0.250	0.690	0.140
2020/01/31 13:26:09.7	1.690	-0.220	0.630	0.170
2020/01/31 13:26:09.8	1.670	-0.180	0.570	0.200
2020/01/31 13:26:09.9	1.640	-0.140	0.500	0.240
2020/01/31 13:26:10.0	1.620	-0.100	0.430	0.270
2020/01/31 13:26:10.1	1.590	-0.060	0.360	0.300
2020/01/31 13:26:10.2	1.560	-0.010	0.280	0.330
2020/01/31 13:26:10.3	1.540	0.030	0.200	0.360
2020/01/31 13:26:10.4	1.510	0.070	0.120	0.390
2020/01/31 13:26:10.5	1.480	0.120	0.050	0.420
2020/01/31 13:26:10.6	1.450	0.160	-0.030	0.450
2020/01/31 13:26:10.7	1.420	0.200	-0.110	0.470
2020/01/31 13:26:10.8	1.390	0.240	-0.190	0.500
2020/01/31 13:26:10.9	1.370	0.270	-0.270	0.510
2020/01/31 13:26:11.0	1.350	0.310	-0.350	0.530
2020/01/31 13:26:11.1	1.330	0.340	-0.430	0.540
2020/01/31 13:26:11.2	1.310	0.370	-0.510	0.550
2020/01/31 13:26:11.3	1.300	0.390	-0.580	0.550
2020/01/31 13:26:11.4	1.290	0.410	-0.660	0.540
2020/01/31 13:26:11.5	1.280	0.430	-0.730	0.530
2020/01/31 13:26:11.6	1.270	0.440	-0.790	0.520
2020/01/31 13:26:11.7	1.270	0.460	-0.860	0.500
2020/01/31 13:26:11.8	1.280	0.460	-0.920	0.470
2020/01/31 13:26:11.9	1.290	0.470	-0.980	0.430
2020/01/31 13:26:12.0	1.300	0.470	-1.040	0.390
2020/01/31 13:26:12.1	1.320	0.470	-1.090	0.340
2020/01/31 13:26:12.2	1.340	0.460	-1.140	0.280
2020/01/31 13:26:12.3	1.370	0.450	-1.190	0.220
2020/01/31 13:26:12.4	1.400	0.440	-1.230	0.150
2020/01/31 13:26:12.5	1.440	0.430	-1.260	0.080
2020/01/31 13:26:12.6	1.480	0.410	-1.290	-0.010
2020/01/31 13:26:12.7	1.520	0.390	-1.320	-0.090
2020/01/31 13:26:12.8	1.560	0.370	-1.330	-0.180
2020/01/31 13:26:12.9	1.610	0.340	-1.340	-0.270
2020/01/31 13:26:13.0	1.660	0.320	-1.350	-0.360
2020/01/31 13:26:13.1	1.710	0.290	-1.350	-0.460
2020/01/31 13:26:13.2	1.760	0.260	-1.340	-0.550
2020/01/31 13:26:13.3	1.810	0.230	-1.320	-0.650
2020/01/31 13:26:13.4	1.860	0.200	-1.300	-0.740
2020/01/31 13:26:13.5	1.910	0.160	-1.270	-0.840
2020/01/31 13:26:13.6	1.960	0.130	-1.240	-0.930
2020/01/31 13:26:13.7	2.010	0.090	-1.200	-1.020
2020/01/31 13:26:13.8	2.050	0.060	-1.150	-1.110
2020/01/31 13:26:13.9	2.100	0.020	-1.100	-1.190
2020/01/31 13:26:14.0	2.140	-0.010	-1.040	-1.270
2020/01/31 13:26:14.1	2.170	-0.040	-0.980	-1.350
2020/01/31 13:26:14.2	2.210	-0.080	-0.910	-1.420
2020/01/31 13:26:14.3	2.240	-0.110	-0.850	-1.490
2020/01/31 13:26:14.4	2.260	-0.140	-0.770	-1.550
2020/01/31 13:26:14.5	2.280	-0.170	-0.700	-1.610
2020/01/31 13:26:14.6	2.300	-0.200	-0.620	-1.660
2020/01/31 13:26:14.7	2.310	-0.230	-0.540	-1.710
2020/01/31 13:26:14.8	2.310	-0.250	-0.460	-1.750
2020/01/31 13:26:14.9	2.320	-0.270	-0.380	-1.780
2020/01/31 13:26:15.0	2.320	-0.290	-0.310	-1.800
2020/01/31 13:26:15.1	2.310	-0.310	-0.230	-1.820
2020/01/31 13:26:15.2	2.300	-0.330	-0.150	-1.840
2020/01/31 13:26:15.3	2.290	-0.340	-0.080	-1.840
2020/01/31 13:26:15.4	2.280	-0.350	-0.000	-1.840
2020/01/31 13:26:15.5	2.260	-0.360	0.060	-1.840
2020/01/31 13:26:15.6	2.230	-0.360	0.130	-1.820
2020/01/31 13:26:15.7	2.200	-0.370	0.190	-1.800
2020/01/31 13:26:15.8	2.180	-0.360	0.240	-1.780
2020/01/31 13:26:15.9	2.150	-0.360	0.300	-1.750
2020/01/31 13:26:16.0	2.120	-0.350	0.340	-1.720
2020/01/31 13:26:16.1	2.080	-0.340	0.380	-1.680
2020/01/31 13:26:16.2	2.050	-0.330	0.420	-1.630
2020/01/31 13:26:16.3	2.010	-0.320	0.450	-1.580
2020/01/31 13:26:16.4	1.980	-0.300	0.470	-1.530
2020/01/31 13:26:16.5	1.940	-0.280	0.490	-1.470
2020/01/31 13:26:16.6	1.900	-0.250	0.500	-1.400
2020/01/31 13:26:16.7	1.870	-0.220	0.510	-1.330
2020/01/31 13:26:16.8	1.830	-0.200	0.510	-1.260
2020/01/31 13:26:16.9	1.790	-0.160	0.510	-1.190
2020/01/31 13:26:17.0	1.760	-0.130	0.500	-1.110
2020/01/31 13:26:17.1	1.720	-0.090	0.480	-1.040
2020/01/31 13:26:17.2	1.690	-0.050	0.460	-0.960
2020/01/31 13:26:17.3	1.660	-0.020	0.440	-0.870
2020/01/31 13:26:17.4	1.630	0.020	0.420	-0.790
2020/01/31 13:26:17.5	1.600	0.070	0.390	-0.700
2020/01/31 13:26:17.6	1.570	0.110	0.360	-0.610
2020/01/31 13:26:17.7	1.550	0.150	0.320	-0.520
2020/01/31 13:26:17.8	1.530	0.190	0.280	-0.440
2020/01/31 13:26:17.9	1.510	0.240	0.240	-0.350
2020/01/31 13:26:18.0	1.500	0.280	0.200	-0.270
2020/01/31 13:26:18.1	1.490	0.320	0.160	-0.180
2020/01/31 13:26:18.2	1.490	0.360	0.120	-0.100
2020/01/31 13:26:18.3	1.480	0.400	0.070	-0.010
2020/01/31 13:26:18.4	1.490	0.440	0.030	0.070
2020/01/31 13:26:18.5	1.490	0.470	-0.010	0.150
2020/01/31 13:26:18.6	1.490	0.500	-0.060	0.230
2020/01/31 13:26:18.7	1.500	0.530	-0.100	0.300
2020/01/31 13:26:18.8	1.510	0.560	-0.140	0.380
2020/01/31 13:26:18.9	1.530	0.580	-0.170	0.450
2020/01/31 13:26:19.0	1.540	0.600	-0.200	0.520
2020/01/31 13:26:19.1	1.560	0.620	-0.230	0.590
2020/01/31 13:26:19.2	1.580	0.630	-0.260	0.670
2020/01/31 13:26:19.3	1.600	0.630	-0.280	0.730
2020/01/31 13:26:19.4	1.610	0.630	-0.290	0.800
2020/01/31 13:26:19.5	1.630	0.630	-0.300	0.870
2020/01/31 13:26:19.6	1.650	0.620	-0.310	0.940
2020/01/31 13:26:19.7	1.660	0.610	-0.310	1.000
2020/01/31 13:26:19.8	1.670	0.590	-0.310	1.060
2020/01/31 13:26:19.9	1.680	0.560	-0.300	1.120
2020/01/31 13:26:20.0	1.690	0.530	-0.290	1.170
2020/01/31 13:26:20.1	1.700	0.490	-0.280	1.220
2020/01/31 13:26:20.2	1.700	0.450	-0.260	1.270
2020/01/31 13:26:20.3	1.700	0.410	-0.240	1.310
2020/01/31 13:26:20.4	1.710	0.360	-0.220	1.350
2020/01/31 13:26:20.5	1.700	0.300	-0.190	1.390
2020/01/31 13:26:20.6	1.700	0.250	-0.170	1.410
2020/01/31 13:26:20.7	1.700	0.180	-0.140	1.440
2020/01/31 13:26:20.8	1.690	0.120	-0.110	1.460
2020/01/31 13:26:20.9	1.690	0.060	-0.090	1.470
2020/01/31 13:26:21.0	1.680	-0.010	-0.060	1.470
2020/01/31 13:26:21.1	1.670	-0.080	-0.030	1.470
2020/01/31 13:26:21.2	1.670	-0.150	-0.010	1.470
2020/01/31 13:26:21.3	1.660	-0.210	0.020	1.460
2020/01/31 13:26:21.4	1.650	-0.280	0.040	1.440
2020/01/31 13:26:21.5	1.640	-0.350	0.060	1.420
2020/01/31 13:26:21.6	1.640	-0.410	0.070	1.380
2020/01/31 13:26:21.7	1.640	-0.470	0.080	1.350
2020/01/31 13:26:21.8	1.630	-0.530	0.090	1.300
2020/01/31 13:26:21.9	1.630	-0.590	0.090	1.250
2020/01/31 13:26:22.0	1.630	-0.640	0.080	1.200
2020/01/31 13:26:22.1	1.630	-0.680	0.080	1.140
2020/01/31 13:26:22.2	1.630	-0.720	0.060	1.080
2020/01/31 13:26:22.3	1.630	-0.760	0.050	1.000
2020/01/31 13:26:22.4	1.640	-0.790	0.030	0.930
2020/01/31 13:26:22.5	1.640	-0.810	0.000	0.850
2020/01/31 13:26:22.6	1.650	-0.830	-0.030	0.770
2020/01/31 13:26:22.7	1.650	-0.840	-0.060	0.680
2020/01/31 13:26:22.8	1.650	-0.850	-0.090	0.590
2020/01/31 13:26:22.9	1.660	-0.850	-0.120	0.500
2020/01/31 13:26:23.0	1.660	-0.850	-0.160	0.410
2020/01/31 13:26:23.1	1.660	-0.840	-0.190	0.320
2020/01/31 13:26:23.2	1.660	-0.820	-0.230	0.220
2020/01/31 13:26:23.3	1.650	-0.800	-0.270	0.130
2020/01/31 13:26:23.4	1.650	-0.770	-0.300	0.030
2020/01/31 13:26:23.5	1.650	-0.740	-0.340	-0.060
2020/01/31 13:26:23.6	1.660	-0.700	-0.380	-0.160
2020/01/31 13:26:23.7	1.650	-0.660	-0.420	-0.250
2020/01/31 13:26:23.8	1.640	-0.620	-0.460	-0.340
2020/01/31 13:26:23.9	1.630	-0.570	-0.490	-0.420
2020/01/31 13:26:24.0	1.620	-0.520	-0.530	-0.510
2020/01/31 13:26:24.1	1.610	-0.460	-0.560	-0.590
2020/01/31 13:26:24.2	1.590	-0.410	-0.590	-0.660
2020/01/31 13:26:24.3	1.580	-0.350	-0.620	-0.730
2020/01/31 13:26:24.4	1.560	-0.290	-0.660	-0.800
2020/01/31 13:26:24.5	1.540	-0.220	-0.680	-0.870
2020/01/31 13:26:24.6	1.530	-0.160	-0.710	-0.930
2020/01/31 13:26:24.7	1.510	-0.100	-0.740	-0.980
2020/01/31 13:26:24.8	1.490	-0.040	-0.770	-1.030
2020/01/31 13:26:24.9	1.480	0.030	-0.790	-1.080
2020/01/31 13:26:25.0	1.460	0.090	-0.810	-1.130
2020/01/31 13:26:25.1	1.450	0.150	-0.830	-1.170
2020/01/31 13:26:25.2	1.440	0.200	-0.850	-1.210
2020/01/31 13:26:25.3	1.430	0.260	-0.870	-1.240
2020/01/31 13:26:25.4	1.420	0.310	-0.890	-1.270
2020/01/31 13:26:25.5	1.410	0.360	-0.900	-1.300
2020/01/31 13:26:25.6	1.410	0.410	-0.910	-1.320
2020/01/31 13:26:25.7	1.400	0.450	-0.920	-1.350
2020/01/31 13:26:25.8	1.400	0.490	-0.930	-1.370
2020/01/31 13:26:25.9	1.390	0.530	-0.930	-1.380
2020/01/31 13:26:26.0	1.390	0.560	-0.920	-1.400
2020/01/31 13:26:26.1	1.390	0.580	-0.920	-1.410
2020/01/31 13:26:26.2	1.390	0.610	-0.910	-1.420
2020/01/31 13:26:26.3	1.390	0.620	-0.890	-1.420
2020/01/31 13:26:26.4	1.400	0.640	-0.880	-1.430
2020/01/31 13:26:26.5	1.400	0.640	-0.850	-1.430
2020/01/31 13:26:26.6	1.400	0.640	-0.830	-1.430
2020/01/31 13:26:26.7	1.410	0.640	-0.800	-1.420
2020/01/31 13:26:26.8	1.410	0.640	-0.770	-1.420
2020/01/31 13:26:26.9	1.420	0.630	-0.730	-1.410
2020/01/31 13:26:27.0	1.430	0.610	-0.690	-1.390
2020/01/31 13:26:27.1	1.430	0.590	-0.640	-1.380
2020/01/31 13:26:27.2	1.440	0.570	-0.600	-1.360
2020/01/31 13:26:27.3	1.450	0.540	-0.550	-1.350
2020/01/31 13:26:27.4	1.460	0.520	-0.500	-1.320
2020/01/31 13:26:27.5	1.470	0.490	-0.440	-1.300
2020/01/31 13:26:27.6	1.480	0.450	-0.390	-1.270
2020/01/31 13:26:27.7	1.490	0.420	-0.340	-1.250
2020/01/31 13:26:27.8	1.500	0.380	-0.280	-1.220
2020/01/31 13:26:27.9	1.510	0.340	-0.230	-1.190
2020/01/31 13:26:28.0	1.510	0.310	-0.170	-1.150
2020/01/31 13:26:28.1	1.520	0.270	-0.110	-1.120
2020/01/31 13:26:28.2	1.530	0.230	-0.060	-1.080
2020/01/31 13:26:28.3	1.540	0.190	0.000	-1.040
2020/01/31 13:26:28.4	1.550	0.150	0.060	-1.000
2020/01/31 13:26:28.5	1.550	0.120	0.110	-0.950
2020/01/31 13:26:28.6	1.550	0.080	0.160	-0.900
2020/01/31 13:26:28.7	1.560	0.050	0.210	-0.850
2020/01/31 13:26:28.8	1.560	0.010	0.260	-0.800
2020/01/31 13:26:28.9	1.570	-0.020	0.310	-0.740
2020/01/31 13:26:29.0	1.570	-0.050	0.350	-0.690
2020/01/31 13:26:29.1	1.570	-0.070	0.400	-0.630
2020/01/31 13:26:29.2	1.560	-0.100	0.440	-0.570
2020/01/31 13:26:29.3	1.560	-0.120	0.470	-0.500
2020/01/31 13:26:29.4	1.560	-0.140	0.500	-0.440
2020/01/31 13:26:29.5	1.550	-0.160	0.530	-0.380
2020/01/31 13:26:29.6	1.560	-0.180	0.560	-0.310
2020/01/31 13:26:29.7	1.550	-0.190	0.570	-0.240
2020/01/31 13:26:29.8	1.540	-0.200	0.590	-0.180
2020/01/31 13:26:29.9	1.530	-0.210	0.600	-0.110
2020/01/31 13:26:30.0	1.520	-0.220	0.600	-0.050
2020/01/31 13:26:30.1	1.510	-0.220	0.600	0.020
2020/01/31 13:26:30.2	1.500	-0.220	0.590	0.080
2020/01/31 13:26:30.3	1.490	-0.220	0.580	0.140
2020/01/31 13:26:30.4	1.470	-0.220	0.560	0.200
2020/01/31 13:26:30.5	1.460	-0.220	0.540	0.260
2020/01/31 13:26:30.6	1.440	-0.220	0.510	0.320
2020/01/31 13:26:30.7	1.430	-0.210	0.480	0.380
2020/01/31 13:26:30.8	1.410	-0.200	0.440	0.430
2020/01/31 13:26:30.9	1.390	-0.200	0.400	0.490
2020/01/31 13:26:31.0	1.370	-0.190	0.360	0.530
2020/01/31 13:26:31.1	1.350	-0.180	0.310	0.580
2020/01/31 13:26:31.2	1.340	-0.160	0.260	0.620
2020/01/31 13:26:31.3	1.320	-0.150	0.200	0.660
2020/01/31 13:26:31.4	1.300	-0.140	0.150	0.690
2020/01/31 13:26:31.5	1.290	-0.120	0.090	0.720
2020/01/31 13:26:31.6	1.280	-0.100	0.030	0.750
2020/01/31 13:26:31.7	1.270	-0.090	-0.030	0.770
2020/01/31 13:26:31.8	1.260	-0.070	-0.090	0.800
2020/01/31 13:26:31.9	1.240	-0.050	-0.150	0.820
2020/01/31 13:26:32.0	1.230	-0.030	-0.210	0.830
2020/01/31 13:26:32.1	1.230	-0.010	-0.270	0.850
2020/01/31 13:26:32.2	1.220	0.010	-0.320	0.860
2020/01/31 13:26:32.3	1.220	0.040	-0.380	0.870
2020/01/31 13:26:32.4	1.220	0.060	-0.430	0.870
2020/01/31 13:26:32.5	1.220	0.090	-0.480	0.880
2020/01/31 13:26:32.6	1.220	0.110	-0.530	0.870
2020/01/31 13:26:32.7	1.230	0.140	-0.580	0.870
2020/01/31 13:26:32.8	1.250	0.160	-0.630	0.860
2020/01/31 13:26:32.9	1.260	0.190	-0.670	0.860
2020/01/31 13:26:33.0	1.280	0.210	-0.710	0.840
2020/01/31 13:26:33.1	1.300	0.240	-0.750	0.830
2020/01/31 13:26:33.2	1.320	0.260	-0.780	0.810
2020/01/31 13:26:33.3	1.340	0.290	-0.810	0.790
2020/01/31 13:26:33.4	1.370	0.310	-0.840	0.770
2020/01/31 13:26:33.5	1.400	0.320	-0.860	0.750
2020/01/31 13:26:33.6	1.420	0.340	-0.880	0.720
2020/01/31 13:26:33.7	1.440	0.350	-0.900	0.690
2020/01/31 13:26:33.8	1.470	0.360	-0.910	0.660
2020/01/31 13:26:33.9	1.500	0.370	-0.910	0.630
2020/01/31 13:26:34.0	1.520	0.370	-0.910	0.600
2020/01/31 13:26:34.1	1.540	0.370	-0.900	0.570
2020/01/31 13:26:34.2	1.560	0.360	-0.880	0.540
2020/01/31 13:26:34.3	1.580	0.350	-0.860	0.500
2020/01/31 13:26:34.4	1.590	0.340	-0.830	0.470
2020/01/31 13:26:34.5	1.610	0.320	-0.800	0.430
2020/01/31 13:26:34.6	1.620	0.290	-0.760	0.390
2020/01/31 13:26:34.7	1.630	0.260	-0.720	0.360
2020/01/31 13:26:34.8	1.640	0.230	-0.670	0.320
2020/01/31 13:26:34.9	1.640	0.190	-0.610	0.280
2020/01/31 13:26:35.0	1.650	0.150	-0.550	0.240
2020/01/31 13:26:35.1	1.650	0.100	-0.490	0.200
2020/01/31 13:26:35.2	1.650	0.060	-0.420	0.160
2020/01/31 13:26:35.3	1.640	0.010	-0.350	0.130
2020/01/31 13:26:35.4	1.640	-0.050	-0.280	0.090
2020/01/31 13:26:35.5	1.640	-0.100	-0.200	0.050
2020/01/31 13:26:35.6	1.640	-0.160	-0.130	0.010
2020/01/31 13:26:35.7	1.630	-0.210	-0.050	-0.020
2020/01/31 13:26:35.8	1.620	-0.270	0.020	-0.060
2020/01/31 13:26:35.9	1.610	-0.330	0.100	-0.090
2020/01/31 13:26:36.0	1.600	-0.380	0.170	-0.120
2020/01/31 13:26:36.1	1.600	-0.430	0.240	-0.160
2020/01/31 13:26:36.2	1.590	-0.480	0.300	-0.190
2020/01/31 13:26:36.3	1.580	-0.530	0.360	-0.220
2020/01/31 13:26:36.4	1.560	-0.580	0.420	-0.250
2020/01/31 13:26:36.5	1.550	-0.620	0.470	-0.280
2020/01/31 13:26:36.6	1.540	-0.660	0.510	-0.310
2020/01/31 13:26:36.7	1.530	-0.690	0.550	-0.340
2020/01/31 13:26:36.8	1.520	-0.720	0.580	-0.360
2020/01/31 13:26:36.9	1.510	-0.750	0.610	-0.390
2020/01/31 13:26:37.0	1.500	-0.770	0.620	-0.420
2020/01/31 13:26:37.1	1.490	-0.780	0.630	-0.450
2020/01/31 13:26:37.2	1.480	-0.790	0.630	-0.470
2020/01/31 13:26:37.3	1.470	-0.800	0.630	-0.500
2020/01/31 13:26:37.4	1.470	-0.800	0.610	-0.530
2020/01/31 13:26:37.5	1.460	-0.790	0.590	-0.560
2020/01/31 13:26:37.6	1.450	-0.780	0.560	-0.590
2020/01/31 13:26:37.7	1.450	-0.760	0.530	-0.620
2020/01/31 13:26:37.8	1.440	-0.740	0.490	-0.650
2020/01/31 13:26:37.9	1.430	-0.720	0.440	-0.680
2020/01/31 13:26:38.0	1.430	-0.690	0.380	-0.710
2020/01/31 13:26:38.1	1.420	-0.650	0.320	-0.740
2020/01/31 13:26:38.2	1.420	-0.620	0.260	-0.780
2020/01/31 13:26:38.3	1.410	-0.570	0.190	-0.810
2020/01/31 13:26:38.4	1.410	-0.530	0.110	-0.840
2020/01/31 13:26:38.5	1.410	-0.480	0.040	-0.870
2020/01/31 13:26:38.6	1.400	-0.430	-0.040	-0.900
2020/01/31 13:26:38.7	1.400	-0.370	-0.120	-0.930
2020/01/31 13:26:38.8	1.400	-0.320	-0.200	-0.960
2020/01/31 13:26:38.9	1.400	-0.260	-0.290	-0.980
2020/01/31 13:26:39.0	1.400	-0.200	-0.370	-1.000
2020/01/31 13:26:39.1	1.400	-0.140	-0.450	-1.020
2020/01/31 13:26:39.2	1.400	-0.080	-0.530	-1.030
2020/01/31 13:26:39.3	1.410	-0.020	-0.610	-1.050
2020/01/31 13:26:39.4	1.410	0.040	-0.680	-1.060
2020/01/31 13:26:39.5	1.410	0.100	-0.750	-1.060
2020/01/31 13:26:39.6	1.430	0.160	-0.820	-1.060
2020/01/31 13:26:39.7	1.430	0.210	-0.880	-1.060
2020/01/31 13:26:39.8	1.440	0.270	-0.940	-1.060
2020/01/31 13:26:39.9	1.450	0.320	-1.000	-1.060
2020/01/31 13:26:40.0	1.460	0.370	-1.040	-1.060
2020/01/31 13:26:40.1	1.470	0.420	-1.090	-1.060
2020/01/31 13:26:40.2	1.480	0.460	-1.120	-1.050
2020/01/31 13:26:40.3	1.490	0.500	-1.160	-1.040
2020/01/31 13:26:40.4	1.510	0.540	-1.180	-1.030
2020/01/31 13:26:40.5	1.520	0.570	-1.200	-1.020
2020/01/31 13:26:40.6	1.530	0.600	-1.210	-1.010
2020/01/31 13:26:40.7	1.540	0.630	-1.220	-0.990
2020/01/31 13:26:40.8	1.560	0.650	-1.220	-0.980
2020/01/31 13:26:40.9	1.570	0.670	-1.210	-0.960
2020/01/31 13:26:41.0	1.590	0.690	-1.200	-0.940
2020/01/31 13:26:41.1	1.600	0.700	-1.180	-0.920
2020/01/31 13:26:41.2	1.620	0.710	-1.150	-0.890
2020/01/31 13:26:41.3	1.630	0.720	-1.120	-0.860
2020/01/31 13:26:41.4	1.650	0.720	-1.090	-0.830
2020/01/31 13:26:41.5	1.660	0.720	-1.040	-0.800
2020/01/31 13:26:41.6	1.670	0.720	-1.000	-0.760
2020/01/31 13:26:41.7	1.680	0.710	-0.950	-0.730
2020/01/31 13:26:41.8	1.690	0.700	-0.900	-0.690
2020/01/31 13:26:41.9	1.700	0.690	-0.840	-0.640
2020/01/31 13:26:42.0	1.710	0.670	-0.780	-0.600
2020/01/31 13:26:42.1	1.720	0.650	-0.710	-0.560
2020/01/31 13:26:42.2	1.730	0.630	-0.650	-0.510
2020/01/31 13:26:42.3	1.730	0.610	-0.580	-0.470
2020/01/31 13:26:42.4	1.740	0.580	-0.510	-0.420
2020/01/31 13:26:42.5	1.740	0.550	-0.440	-0.380
2020/01/31 13:26:42.6	1.740	0.520	-0.370	-0.330
2020/01/31 13:26:42.7	1.750	0.490	-0.300	-0.290
2020/01/31 13:26:42.8	1.750	0.460	-0.240	-0.250
2020/01/31 13:26:42.9	1.760	0.430	-0.170	-0.210
2020/01/31 13:26:43.0	1.770	0.400	-0.110	-0.180
2020/01/31 13:26:43.1	1.780	0.360	-0.050	-0.140
2020/01/31 13:26:43.2	1.800	0.330	0.000	-0.110
2020/01/31 13:26:43.3	1.820	0.290	0.060	-0.090
2020/01/31 13:26:43.4	1.830	0.260	0.100	-0.070
2020/01/31 13:26:43.5	1.850	0.230	0.150	-0.050
2020/01/31 13:26:43.6	1.870	0.190	0.190	-0.040
2020/01/31 13:26:43.7	1.900	0.160	0.220	-0.020
2020/01/31 13:26:43.8	1.920	0.130	0.250	-0.020
2020/01/31 13:26:43.9	1.950	0.100	0.280	-0.010
2020/01/31 13:26:44.0	1.980	0.070	0.300	-0.010
2020/01/31 13:26:44.1	2.010	0.040	0.320	-0.000
2020/01/31 13:26:44.2	2.040	0.010	0.340	-0.000
2020/01/31 13:26:44.3	2.070	-0.020	0.360	-0.000
2020/01/31 13:26:44.4	2.090	-0.050	0.370	-0.010
2020/01/31 13:26:44.5	2.120	-0.080	0.390	-0.010
2020/01/31 13:26:44.6	2.160	-0.110	0.390	-0.000
2020/01/31 13:26:44.7	2.180	-0.140	0.400	-0.000
2020/01/31 13:26:44.8	2.200	-0.160	0.410	-0.000
2020/01/31 13:26:44.9	2.220	-0.190	0.420	-0.000
2020/01/31 13:26:45.0	2.240	-0.220	0.430	-0.000
2020/01/31 13:26:45.1	2.260	-0.240	0.440	0.000
2020/01/31 13:26:45.2	2.270	-0.270	0.450	0.010
2020/01/31 13:26:45.3	2.280	-0.290	0.460	0.020
2020/01/31 13:26:45.4	2.290	-0.320	0.470	0.030
2020/01/31 13:26:45.5	2.300	-0.340	0.470	0.040
2020/01/31 13:26:45.6	2.310	-0.360	0.480	0.050
2020/01/31 13:26:45.7	2.310	-0.390	0.480	0.070
2020/01/31 13:26:45.8	2.320	-0.410	0.490	0.090
2020/01/31 13:26:45.9	2.320	-0.430	0.490	0.100
2020/01/31 13:26:46.0	2.310	-0.450	0.490	0.120
2020/01/31 13:26:46.1	2.310	-0.470	0.490	0.150
2020/01/31 13:26:46.2	2.300	-0.480	0.480	0.170
2020/01/31 13:26:46.3	2.290	-0.500	0.470	0.190
2020/01/31 13:26:46.4	2.280	-0.520	0.460	0.210
2020/01/31 13:26:46.5	2.270	-0.530	0.450	0.240
2020/01/31 13:26:46.6	2.250	-0.540	0.430	0.260
2020/01/31 13:26:46.7	2.230	-0.560	0.410	0.280
2020/01/31 13:26:46.8	2.210	-0.570	0.390	0.300
2020/01/31 13:26:46.9	2.190	-0.570	0.360	0.320
2020/01/31 13:26:47.0	2.160	-0.580	0.330	0.330
2020/01/31 13:26:47.1	2.130	-0.590	0.300	0.350
2020/01/31 13:26:47.2	2.100	-0.590	0.260	0.360
2020/01/31 13:26:47.3	2.070	-0.590	0.230	0.360
2020/01/31 13:26:47.4	2.040	-0.590	0.190	0.370
2020/01/31 13:26:47.5	2.010	-0.580	0.150	0.370
2020/01/31 13:26:47.6	1.980	-0.580	0.100	0.370
2020/01/31 13:26:47.7	1.950	-0.570	0.060	0.370
2020/01/31 13:26:47.8	1.920	-0.550	0.010	0.360
2020/01/31 13:26:47.9	1.890	-0.540	-0.040	0.360
2020/01/31 13:26:48.0	1.860	-0.520	-0.090	0.360
2020/01/31 13:26:48.1	1.830	-0.490	-0.140	0.350
2020/01/31 13:26:48.2	1.800	-0.470	-0.190	0.340
2020/01/31 13:26:48.3	1.770	-0.440	-0.240	0.330
2020/01/31 13:26:48.4	1.750	-0.410	-0.290	0.320
2020/01/31 13:26:48.5	1.730	-0.370	-0.340	0.310
2020/01/31 13:26:48.6	1.700	-0.330	-0.390	0.300
2020/01/31 13:26:48.7	1.690	-0.290	-0.440	0.280
2020/01/31 13:26:48.8	1.680	-0.250	-0.490	0.260
2020/01/31 13:26:48.9	1.670	-0.200	-0.530	0.240
2020/01/31 13:26:49.0	1.660	-0.160	-0.580	0.220
2020/01/31 13:26:49.1	1.650	-0.110	-0.620	0.200
2020/01/31 13:26:49.2	1.650	-0.060	-0.670	0.180
2020/01/31 13:26:49.3	1.650	-0.010	-0.710	0.160
2020/01/31 13:26:49.4	1.650	0.040	-0.740	0.130
2020/01/31 13:26:49.5	1.650	0.090	-0.780	0.100
2020/01/31 13:26:49.6	1.650	0.130	-0.810	0.070
2020/01/31 13:26:49.7	1.650	0.180	-0.840	0.040
2020/01/31 13:26:49.8	1.660	0.230	-0.870	0.020
2020/01/31 13:26:49.9	1.670	0.270	-0.900	-0.010
2020/01/31 13:26:50.0	1.680	0.320	-0.920	-0.040
2020/01/31 13:26:50.1	1.690	0.360	-0.940	-0.070
2020/01/31 13:26:50.2	1.700	0.400	-0.960	-0.100
2020/01/31 13:26:50.3	1.710	0.430	-0.980	-0.130
2020/01/31 13:26:50.4	1.720	0.460	-0.990	-0.160
2020/01/31 13:26:50.5	1.740	0.490	-1.000	-0.190
2020/01/31 13:26:50.6	1.750	0.520	-1.010	-0.220
2020/01/31 13:26:50.7	1.770	0.540	-1.010	-0.250
2020/01/31 13:26:50.8	1.790	0.560	-1.010	-0.280
2020/01/31 13:26:50.9	1.810	0.580	-1.010	-0.310
2020/01/31 13:26:51.0	1.840	0.590	-1.010	-0.340
2020/01/31 13:26:51.1	1.860	0.600	-1.000	-0.370
2020/01/31 13:26:51.2	1.890	0.600	-1.000	-0.400
2020/01/31 13:26:51.3	1.920	0.600	-0.980	-0.440
2020/01/31 13:26:51.4	1.950	0.590	-0.970	-0.470
2020/01/31 13:26:51.5	1.980	0.590	-0.960	-0.500
2020/01/31 13:26:51.6	2.010	0.570	-0.940	-0.540
2020/01/31 13:26:51.7	2.050	0.560	-0.910	-0.580
2020/01/31 13:26:51.8	2.090	0.540	-0.890	-0.610
2020/01/31 13:26:51.9	2.130	0.520	-0.860	-0.650
2020/01/31 13:26:52.0	2.170	0.490	-0.840	-0.680
2020/01/31 13:26:52.1	2.210	0.460	-0.800	-0.720
2020/01/31 13:26:52.2	2.250	0.430	-0.770	-0.760
2020/01/31 13:26:52.3	2.290	0.400	-0.740	-0.800
2020/01/31 13:26:52.4	2.330	0.360	-0.700	-0.830
2020/01/31 13:26:52.5	2.380	0.320	-0.660	-0.870
2020/01/31 13:26:52.6	2.420	0.280	-0.620	-0.900
2020/01/31 13:26:52.7	2.460	0.240	-0.570	-0.940
2020/01/31 13:26:52.8	2.500	0.200	-0.530	-0.970
2020/01/31 13:26:52.9	2.530	0.150	-0.480	-1.000
2020/01/31 13:26:53.0	2.560	0.110	-0.430	-1.020
2020/01/31 13:26:53.1	2.590	0.060	-0.370	-1.040
2020/01/31 13:26:53.2	2.610	0.020	-0.320	-1.060
2020/01/31 13:26:53.3	2.630	-0.020	-0.260	-1.070
2020/01/31 13:26:53.4	2.650	-0.060	-0.200	-1.080
2020/01/31 13:26:53.5	2.660	-0.110	-0.140	-1.090
2020/01/31 13:26:53.6	2.680	-0.150	-0.070	-1.090
2020/01/31 13:26:53.7	2.690	-0.180	-0.010	-1.090
2020/01/31 13:26:53.8	2.690	-0.220	0.050	-1.090
2020/01/31 13:26:53.9	2.690	-0.260	0.120	-1.080
2020/01/31 13:26:54.0	2.690	-0.290	0.180	-1.070
2020/01/31 13:26:54.1	2.680	-0.320	0.240	-1.060
2020/01/31 13:26:54.2	2.670	-0.340	0.300	-1.050
2020/01/31 13:26:54.3	2.660	-0.370	0.350	-1.040
2020/01/31 13:26:54.4	2.650	-0.390	0.410	-1.020
2020/01/31 13:26:54.5	2.630	-0.410	0.460	-1.010
2020/01/31 13:26:54.6	2.620	-0.420	0.500	-0.990
2020/01/31 13:26:54.7	2.600	-0.430	0.540	-0.970
2020/01/31 13:26:54.8	2.580	-0.440	0.580	-0.950
2020/01/31 13:26:54.9	2.550	-0.450	0.610	-0.920
2020/01/31 13:26:55.0	2.520	-0.450	0.640	-0.900
2020/01/31 13:26:55.1	2.490	-0.450	0.660	-0.870
2020/01/31 13:26:55.2	2.460	-0.440	0.680	-0.850
2020/01/31 13:26:55.3	2.430	-0.430	0.690	-0.820
2020/01/31 13:26:55.4	2.400	-0.420	0.690	-0.790
2020/01/31 13:26:55.5	2.360	-0.410	0.690	-0.760
2020/01/31 13:26:55.6	2.340	-0.390	0.680	-0.740
2020/01/31 13:26:55.7	2.310	-0.370	0.670	-0.710
2020/01/31 13:26:55.8	2.280	-0.350	0.640	-0.680
2020/01/31 13:26:55.9	2.250	-0.320	0.610	-0.660
2020/01/31 13:26:56.0	2.220	-0.300	0.580	-0.630
2020/01/31 13:26:56.1	2.190	-0.270	0.540	-0.610
2020/01/31 13:26:56.2	2.160	-0.240	0.490	-0.580
2020/01/31 13:26:56.3	2.140	-0.210	0.440	-0.560
2020/01/31 13:26:56.4	2.110	-0.170	0.390	-0.540
2020/01/31 13:26:56.5	2.090	-0.140	0.330	-0.510
2020/01/31 13:26:56.6	2.060	-0.110	0.260	-0.490
2020/01/31 13:26:56.7	2.050	-0.070	0.190	-0.460
2020/01/31 13:26:56.8	2.030	-0.040	0.120	-0.440
2020/01/31 13:26:56.9	2.020	-0.010	0.050	-0.420
2020/01/31 13:26:57.0	2.010	0.030	-0.020	-0.400
2020/01/31 13:26:57.1	2.010	0.060	-0.100	-0.370
2020/01/31 13:26:57.2	2.000	0.090	-0.170	-0.350
2020/01/31 13:26:57.3	2.000	0.120	-0.250	-0.330
2020/01/31 13:26:57.4	1.990	0.150	-0.320	-0.300
2020/01/31 13:26:57.5	1.990	0.180	-0.390	-0.280
2020/01/31 13:26:57.6	1.990	0.200	-0.450	-0.260
2020/01/31 13:26:57.7	1.990	0.230	-0.510	-0.230
2020/01/31 13:26:57.8	1.990	0.250	-0.570	-0.210
2020/01/31 13:26:57.9	1.990	0.260	-0.620	-0.190
2020/01/31 13:26:58.0	2.000	0.280	-0.670	-0.170
2020/01/31 13:26:58.1	2.000	0.290	-0.710	-0.150
2020/01/31 13:26:58.2	2.000	0.300	-0.740	-0.130
2020/01/31 13:26:58.3	2.010	0.300	-0.770	-0.110
2020/01/31 13:26:58.4	2.010	0.300	-0.790	-0.100
2020/01/31 13:26:58.5	2.020	0.300	-0.800	-0.080
2020/01/31 13:26:58.6	2.010	0.300	-0.800	-0.060
2020/01/31 13:26:58.7	2.020	0.290	-0.800	-0.040
2020/01/31 13:26:58.8	2.020	0.290	-0.790	-0.020
2020/01/31 13:26:58.9	2.020	0.280	-0.780	-0.010
2020/01/31 13:26:59.0	2.030	0.260	-0.750	0.010
2020/01/31 13:26:59.1	2.030	0.250	-0.730	0.030
2020/01/31 13:26:59.2	2.040	0.240	-0.690	0.050
2020/01/31 13:26:59.3	2.040	0.220	-0.650	0.070
2020/01/31 13:26:59.4	2.040	0.200	-0.610	0.090
2020/01/31 13:26:59.5	2.050	0.180	-0.570	0.120
2020/01/31 13:26:59.6	2.040	0.160	-0.520	0.140
2020/01/31 13:26:59.7	2.040	0.140	-0.470	0.160
2020/01/31 13:26:59.8	2.050	0.120	-0.420	0.180
2020/01/31 13:26:59.9	2.060	0.100	-0.370	0.200
2020/01/31 13:27:00.0	2.060	0.080	-0.320	0.220
2020/01/31 13:27:00.1	2.070	0.060	-0.280	0.250
2020/01/31 13:27:00.2	2.080	0.040	-0.230	0.270
2020/01/31 13:27:00.3	2.090	0.020	-0.190	0.280
2020/01/31 13:27:00.4	2.100	-0.000	-0.160	0.300
2020/01/31 13:27:00.5	2.110	-0.020	-0.120	0.320
2020/01/31 13:27:00.6	2.130	-0.040	-0.100	0.330
2020/01/31 13:27:00.7	2.140	-0.060	-0.080	0.340
2020/01/31 13:27:00.8	2.150	-0.070	-0.060	0.350
2020/01/31 13:27:00.9	2.160	-0.090	-0.040	0.360
2020/01/31 13:27:01.0	2.180	-0.100	-0.030	0.360
2020/01/31 13:27:01.1	2.190	-0.110	-0.020	0.350
2020/01/31 13:27:01.2	2.210	-0.130	-0.020	0.350
2020/01/31 13:27:01.3	2.220	-0.140	-0.020	0.340
2020/01/31 13:27:01.4	2.230	-0.150	-0.030	0.320
2020/01/31 13:27:01.5	2.250	-0.150	-0.040	0.300
2020/01/31 13:27:01.6	2.270	-0.160	-0.050	0.280
2020/01/31 13:27:01.7	2.280	-0.170	-0.060	0.250
2020/01/31 13:27:01.8	2.290	-0.170	-0.080	0.230
2020/01/31 13:27:01.9	2.300	-0.180	-0.100	0.200
2020/01/31 13:27:02.0	2.320	-0.180	-0.110	0.170
2020/01/31 13:27:02.1	2.320	-0.180	-0.130	0.140
2020/01/31 13:27:02.2	2.330	-0.190	-0.150	0.110
2020/01/31 13:27:02.3	2.340	-0.190	-0.170	0.080
2020/01/31 13:27:02.4	2.340	-0.190	-0.190	0.050
2020/01/31 13:27:02.5	2.340	-0.180	-0.210	0.030
2020/01/31 13:27:02.6	2.340	-0.180	-0.220	0.010
2020/01/31 13:27:02.7	2.340	-0.180	-0.240	-0.010
2020/01/31 13:27:02.8	2.340	-0.170	-0.240	-0.030
2020/01/31 13:27:02.9	2.330	-0.170	-0.250	-0.040
2020/01/31 13:27:03.0	2.330	-0.170	-0.250	-0.040
2020/01/31 13:27:03.1	2.320	-0.160	-0.250	-0.050
2020/01/31 13:27:03.2	2.310	-0.150	-0.250	-0.050
2020/01/31 13:27:03.3	2.300	-0.150	-0.250	-0.050
2020/01/31 13:27:03.4	2.290	-0.140	-0.240	-0.050
2020/01/31 13:27:03.5	2.270	-0.130	-0.230	-0.050
2020/01/31 13:27:03.6	2.260	-0.130	-0.220	-0.040
2020/01/31 13:27:03.7	2.250	-0.120	-0.220	-0.040
2020/01/31 13:27:03.8	2.240	-0.110	-0.210	-0.030
2020/01/31 13:27:03.9	2.230	-0.110	-0.210	-0.030
2020/01/31 13:27:04.0	2.220	-0.100	-0.200	-0.030
2020/01/31 13:27:04.1	2.220	-0.090	-0.200	-0.030
2020/01/31 13:27:04.2	2.210	-0.080	-0.200	-0.040
2020/01/31 13:27:04.3	2.210	-0.070	-0.210	-0.040
2020/01/31 13:27:04.4	2.210	-0.070	-0.220	-0.050
2020/01/31 13:27:04.5	2.220	-0.060	-0.230	-0.060
2020/01/31 13:27:04.6	2.230	-0.050	-0.250	-0.080
2020/01/31 13:27:04.7	2.240	-0.040	-0.260	-0.100
2020/01/31 13:27:04.8	2.250	-0.030	-0.280	-0.120
2020/01/31 13:27:04.9	2.270	-0.020	-0.310	-0.140
2020/01/31 13:27:05.0	2.280	-0.010	-0.330	-0.170
2020/01/31 13:27:05.1	2.290	-0.000	-0.360	-0.190
2020/01/31 13:27:05.2	2.310	0.010	-0.390	-0.220
2020/01/31 13:27:05.3	2.330	0.010	-0.420	-0.250
2020/01/31 13:27:05.4	2.350	0.020	-0.450	-0.290
2020/01/31 13:27:05.5	2.360	0.030	-0.480	-0.320
2020/01/31 13:27:05.6	2.390	0.030	-0.500	-0.360
2020/01/31 13:27:05.7	2.410	0.040	-0.530	-0.390
2020/01/31 13:27:05.8	2.420	0.040	-0.550	-0.430
2020/01/31 13:27:05.9	2.440	0.050	-0.580	-0.460
2020/01/31 13:27:06.0	2.460	0.050	-0.600	-0.490
2020/01/31 13:27:06.1	2.470	0.050	-0.610	-0.530
2020/01/31 13:27:06.2	2.480	0.050	-0.620	-0.560
2020/01/31 13:27:06.3	2.490	0.050	-0.630	-0.590
2020/01/31 13:27:06.4	2.500	0.050	-0.630	-0.610
2020/01/31 13:27:06.5	2.510	0.050	-0.630	-0.640
2020/01/31 13:27:06.6	2.510	0.050	-0.620	-0.660
2020/01/31 13:27:06.7	2.510	0.040	-0.600	-0.680
2020/01/31 13:27:06.8	2.520	0.040	-0.580	-0.690
2020/01/31 13:27:06.9	2.510	0.030	-0.560	-0.700
2020/01/31 13:27:07.0	2.510	0.030	-0.530	-0.700
2020/01/31 13:27:07.1	2.510	0.020	-0.490	-0.700
2020/01/31 13:27:07.2	2.510	0.020	-0.450	-0.700
2020/01/31 13:27:07.3	2.500	0.010	-0.410	-0.700
2020/01/31 13:27:07.4	2.490	0.010	-0.360	-0.690
2020/01/31 13:27:07.5	2.490	0.000	-0.320	-0.680
2020/01/31 13:27:07.6	2.470	-0.000	-0.270	-0.660
2020/01/31 13:27:07.7	2.460	-0.010	-0.210	-0.650
2020/01/31 13:27:07.8	2.460	-0.010	-0.160	-0.630
2020/01/31 13:27:07.9	2.450	-0.010	-0.110	-0.610
2020/01/31 13:27:08.0	2.440	-0.010	-0.060	-0.590
2020/01/31 13:27:08.1	2.430	-0.010	-0.010	-0.570
2020/01/31 13:27:08.2	2.430	-0.010	0.030	-0.550
2020/01/31 13:27:08.3	2.420	-0.010	0.080	-0.530
2020/01/31 13:27:08.4	2.410	-0.000	0.110	-0.510
2020/01/31 13:27:08.5	2.400	0.000	0.150	-0.490
2020/01/31 13:27:08.6	2.400	0.010	0.180	-0.470
2020/01/31 13:27:08.7	2.390	0.010	0.200	-0.450
2020/01/31 13:27:08.8	2.390	0.020	0.220	-0.430
2020/01/31 13:27:08.9	2.380	0.030	0.240	-0.410
2020/01/31 13:27:09.0	2.370	0.040	0.250	-0.390
2020/01/31 13:27:09.1	2.360	0.050	0.250	-0.380
2020/01/31 13:27:09.2	2.350	0.070	0.250	-0.370
2020/01/31 13:27:09.3	2.350	0.080	0.250	-0.360
2020/01/31 13:27:09.4	2.340	0.090	0.240	-0.350
2020/01/31 13:27:09.5	2.330	0.100	0.220	-0.340
2020/01/31 13:27:09.6	2.340	0.120	0.200	-0.340
2020/01/31 13:27:09.7	2.330	0.130	0.170	-0.340
2020/01/31 13:27:09.8	2.330	0.140	0.140	-0.340
2020/01/31 13:27:09.9	2.320	0.160	0.100	-0.340
2020/01/31 13:27:10.0	2.320	0.170	0.070	-0.350
2020/01/31 13:27:10.1	2.320	0.180	0.030	-0.350
2020/01/31 13:27:10.2	2.320	0.190	-0.020	-0.360
2020/01/31 13:27:10.3	2.320	0.210	-0.060	-0.370
2020/01/31 13:27:10.4	2.320	0.220	-0.100	-0.380
2020/01/31 13:27:10.5	2.320	0.220	-0.150	-0.390
2020/01/31 13:27:10.6	2.330	0.230	-0.200	-0.400
2020/01/31 13:27:10.7	2.330	0.240	-0.240	-0.410
2020/01/31 13:27:10.8	2.340	0.250	-0.280	-0.430
2020/01/31 13:27:10.9	2.340	0.250	-0.330	-0.440
2020/01/31 13:27:11.0	2.350	0.260	-0.370	-0.450
2020/01/31 13:27:11.1	2.360	0.260	-0.400	-0.460
2020/01/31 13:27:11.2	2.370	0.260	-0.440	-0.480
2020/01/31 13:27:11.3	2.380	0.260	-0.470	-0.490
2020/01/31 13:27:11.4	2.390	0.260	-0.500	-0.500
2020/01/31 13:27:11.5	2.400	0.260	-0.520	-0.500
2020/01/31 13:27:11.6	2.400	0.250	-0.540	-0.520
2020/01/31 13:27:11.7	2.420	0.250	-0.550	-0.520
2020/01/31 13:27:11.8	2.430	0.240	-0.560	-0.520
2020/01/31 13:27:11.9	2.440	0.230	-0.570	-0.530
2020/01/31 13:27:12.0	2.450	0.220	-0.570	-0.520
2020/01/31 13:27:12.1	2.460	0.210	-0.560	-0.520
2020/01/31 13:27:12.2	2.460	0.190	-0.560	-0.520
2020/01/31 13:27:12.3	2.470	0.180	-0.540	-0.510
2020/01/31 13:27:12.4	2.470	0.160	-0.530	-0.500
2020/01/31 13:27:12.5	2.480	0.140	-0.510	-0.490
2020/01/31 13:27:12.6	2.490	0.120	-0.490	-0.480
2020/01/31 13:27:12.7	2.490	0.100	-0.460	-0.460
2020/01/31 13:27:12.8	2.490	0.070	-0.430	-0.450
2020/01/31 13:27:12.9	2.490	0.050	-0.410	-0.430
2020/01/31 13:27:13.0	2.490	0.030	-0.380	-0.420
2020/01/31 13:27:13.1	2.490	-0.000	-0.350	-0.400
2020/01/31 13:27:13.2	2.490	-0.030	-0.320	-0.390
2020/01/31 13:27:13.3	2.490	-0.050	-0.290	-0.370
2020/01/31 13:27:13.4	2.490	-0.080	-0.260	-0.360
2020/01/31 13:27:13.5	2.500	-0.110	-0.240	-0.350
2020/01/31 13:27:13.6	2.500	-0.140	-0.210	-0.340
2020/01/31 13:27:13.7	2.510	-0.160	-0.190	-0.340
2020/01/31 13:27:13.8	2.510	-0.190	-0.170	-0.330
2020/01/31 13:27:13.9	2.520	-0.210	-0.150	-0.330
2020/01/31 13:27:14.0	2.530	-0.240	-0.130	-0.330
2020/01/31 13:27:14.1	2.530	-0.260	-0.120	-0.340
2020/01/31 13:27:14.2	2.540	-0.280	-0.100	-0.340
2020/01/31 13:27:14.3	2.550	-0.300	-0.090	-0.350
2020/01/31 13:27:14.4	2.560	-0.320	-0.080	-0.360
2020/01/31 13:27:14.5	2.570	-0.340	-0.070	-0.370
2020/01/31 13:27:14.6	2.580	-0.350	-0.060	-0.380
2020/01/31 13:27:14.7	2.590	-0.370	-0.050	-0.390
2020/01/31 13:27:14.8	2.600	-0.380	-0.040	-0.400
2020/01/31 13:27:14.9	2.600	-0.390	-0.030	-0.410
2020/01/31 13:27:15.0	2.610	-0.400	-0.020	-0.420
2020/01/31 13:27:15.1	2.620	-0.400	-0.020	-0.420
2020/01/31 13:27:15.2	2.620	-0.410	-0.010	-0.430
2020/01/31 13:27:15.3	2.620	-0.410	0.000	-0.430
2020/01/31 13:27:15.4	2.620	-0.410	0.010	-0.430
2020/01/31 13:27:15.5	2.620	-0.410	0.020	-0.430
2020/01/31 13:27:15.6	2.620	-0.400	0.020	-0.420
2020/01/31 13:27:15.7	2.620	-0.400	0.030	-0.420
2020/01/31 13:27:15.8	2.620	-0.390	0.040	-0.410
2020/01/31 13:27:15.9	2.620	-0.380	0.040	-0.400
2020/01/31 13:27:16.0	2.620	-0.370	0.050	-0.390
2020/01/31 13:27:16.1	2.610	-0.350	0.050	-0.380
2020/01/31 13:27:16.2	2.610	-0.340	0.040	-0.360
2020/01/31 13:27:16.3	2.610	-0.320	0.040	-0.350
2020/01/31 13:27:16.4	2.610	-0.300	0.030	-0.330
2020/01/31 13:27:16.5	2.610	-0.280	0.020	-0.320
2020/01/31 13:27:16.6	2.610	-0.260	0.010	-0.300
2020/01/31 13:27:16.7	2.610	-0.240	-0.010	-0.290
2020/01/31 13:27:16.8	2.620	-0.220	-0.030	-0.270
2020/01/31 13:27:16.9	2.620	-0.190	-0.050	-0.260
2020/01/31 13:27:17.0	2.620	-0.170	-0.080	-0.240
2020/01/31 13:27:17.1	2.620	-0.140	-0.110	-0.230
2020/01/31 13:27:17.2	2.620	-0.120	-0.140	-0.220
2020/01/31 13:27:17.3	2.620	-0.090	-0.180	-0.200
2020/01/31 13:27:17.4	2.620	-0.070	-0.210	-0.190
2020/01/31 13:27:17.5	2.620	-0.040	-0.250	-0.180
2020/01/31 13:27:17.6	2.610	-0.020	-0.280	-0.170
2020/01/31 13:27:17.7	2.610	0.010	-0.320	-0.160
2020/01/31 13:27:17.8	2.600	0.030	-0.360	-0.150
2020/01/31 13:27:17.9	2.600	0.060	-0.390	-0.140
2020/01/31 13:27:18.0	2.590	0.080	-0.430	-0.130
2020/01/31 13:27:18.1	2.570	0.100	-0.460	-0.120
2020/01/31 13:27:18.2	2.560	0.110	-0.490	-0.110
2020/01/31 13:27:18.3	2.540	0.130	-0.510	-0.100
2020/01/31 13:27:18.4	2.530	0.140	-0.530	-0.080
2020/01/31 13:27:18.5	2.510	0.150	-0.550	-0.070
2020/01/31 13:27:18.6	2.480	0.160	-0.560	-0.060
2020/01/31 13:27:18.7	2.460	0.170	-0.570	-0.050
2020/01/31 13:27:18.8	2.430	0.180	-0.580	-0.030
2020/01/31 13:27:18.9	2.390	0.180	-0.570	-0.010
2020/01/31 13:27:19.0	2.360	0.180	-0.570	0.000
2020/01/31 13:27:19.1	2.320	0.180	-0.560	0.020
2020/01/31 13:27:19.2	2.290	0.170	-0.540	0.040
2020/01/31 13:27:19.3	2.250	0.170	-0.520	0.060
2020/01/31 13:27:19.4	2.210	0.160	-0.500	0.080
2020/01/31 13:27:19.5	2.170	0.150	-0.470	0.100
2020/01/31 13:27:19.6	2.120	0.140	-0.440	0.120
2020/01/31 13:27:19.7	2.080	0.130	-0.410	0.140
2020/01/31 13:27:19.8	2.040	0.120	-0.380	0.160
2020/01/31 13:27:19.9	2.000	0.100	-0.340	0.180
2020/01/31 13:27:20.0	1.970	0.090	-0.310	0.200
2020/01/31 13:27:20.1	1.930	0.080	-0.270	0.210
2020/01/31 13:27:20.2	1.900	0.060	-0.240	0.220
2020/01/31 13:27:20.3	1.860	0.050	-0.210	0.230
2020/01/31 13:27:20.4	1.840	0.040	-0.170	0.240
2020/01/31 13:27:20.5	1.810	0.030	-0.150	0.240
2020/01/31 13:27:20.6	1.790	0.020	-0.120	0.230
2020/01/31 13:27:20.7	1.770	0.010	-0.100	0.230
2020/01/31 13:27:20.8	1.760	0.010	-0.080	0.220
2020/01/31 13:27:20.9	1.760	0.000	-0.070	0.200
2020/01/31 13:27:21.0	1.760	0.000	-0.060	0.180
2020/01/31 13:27:21.1	1.760	0.010	-0.060	0.160
2020/01/31 13:27:21.2	1.770	0.010	-0.070	0.130
2020/01/31 13:27:21.3	1.780	0.020	-0.070	0.100
2020/01/31 13:27:21.4	1.800	0.030	-0.090	0.060
2020/01/31 13:27:21.5	1.820	0.040	-0.100	0.020
2020/01/31 13:27:21.6	1.830	0.060	-0.120	-0.020
2020/01/31 13:27:21.7	1.860	0.070	-0.150	-0.060
2020/01/31 13:27:21.8	1.880	0.090	-0.170	-0.110
2020/01/31 13:27:21.9	1.910	0.110	-0.200	-0.150
2020/01/31 13:27:22.0	1.940	0.130	-0.230	-0.200
2020/01/31 13:27:22.1	1.970	0.150	-0.260	-0.250
2020/01/31 13:27:22.2	1.990	0.170	-0.290	-0.300
2020/01/31 13:27:22.3	2.020	0.190	-0.320	-0.350
2020/01/31 13:27:22.4	2.050	0.200	-0.350	-0.400
2020/01/31 13:27:22.5	2.080	0.220	-0.380	-0.450
2020/01/31 13:27:22.6	2.100	0.240	-0.410	-0.490
2020/01/31 13:27:22.7	2.130	0.250	-0.440	-0.540
2020/01/31 13:27:22.8	2.150	0.270	-0.460	-0.590
2020/01/31 13:27:22.9	2.170	0.280	-0.480	-0.630
2020/01/31 13:27:23.0	2.190	0.290	-0.500	-0.670
2020/01/31 13:27:23.1	2.210	0.290	-0.510	-0.700
2020/01/31 13:27:23.2	2.220	0.290	-0.520	-0.730
2020/01/31 13:27:23.3	2.230	0.290	-0.520	-0.760
2020/01/31 13:27:23.4	2.240	0.290	-0.520	-0.790
2020/01/31 13:27:23.5	2.240	0.290	-0.510	-0.810
2020/01/31 13:27:23.6	2.250	0.280	-0.510	-0.820
2020/01/31 13:27:23.7	2.240	0.260	-0.490	-0.840
2020/01/31 13:27:23.8	2.240	0.250	-0.470	-0.850
2020/01/31 13:27:23.9	2.230	0.230	-0.450	-0.860
2020/01/31 13:27:24.0	2.230	0.210	-0.430	-0.870
2020/01/31 13:27:24.1	2.210	0.190	-0.400	-0.870
2020/01/31 13:27:24.2	2.200	0.160	-0.370	-0.870
2020/01/31 13:27:24.3	2.190	0.140	-0.330	-0.870
2020/01/31 13:27:24.4	2.170	0.110	-0.300	-0.870
2020/01/31 13:27:24.5	2.150	0.080	-0.260	-0.860
2020/01/31 13:27:24.6	2.130	0.050	-0.220	-0.850
2020/01/31 13:27:24.7	2.110	0.010	-0.180	-0.840
2020/01/31 13:27:24.8	2.080	-0.020	-0.140	-0.820
2020/01/31 13:27:24.9	2.050	-0.050	-0.100	-0.810
2020/01/31 13:27:25.0	2.030	-0.090	-0.060	-0.790
2020/01/31 13:27:25.1	2.000	-0.120	-0.020	-0.780
2020/01/31 13:27:25.2	1.960	-0.150	0.010	-0.760
2020/01/31 13:27:25.3	1.930	-0.180	0.050	-0.740
2020/01/31 13:27:25.4	1.900	-0.210	0.080	-0.710
2020/01/31 13:27:25.5	1.870	-0.230	0.110	-0.690
2020/01/31 13:27:25.6	1.840	-0.260	0.140	-0.660
2020/01/31 13:27:25.7	1.810	-0.280	0.160	-0.640
2020/01/31 13:27:25.8	1.770	-0.300	0.190	-0.610
2020/01/31 13:27:25.9	1.740	-0.310	0.210	-0.580
2020/01/31 13:27:26.0	1.700	-0.330	0.230	-0.550
2020/01/31 13:27:26.1	1.660	-0.340	0.240	-0.520
2020/01/31 13:27:26.2	1.620	-0.350	0.250	-0.490
2020/01/31 13:27:26.3	1.590	-0.350	0.260	-0.460
2020/01/31 13:27:26.4	1.550	-0.350	0.260	-0.420
2020/01/31 13:27:26.5	1.510	-0.350	0.270	-0.390
2020/01/31 13:27:26.6	1.470	-0.350	0.260	-0.350
2020/01/31 13:27:26.7	1.430	-0.340	0.260	-0.320
2020/01/31 13:27:26.8	1.390	-0.330	0.250	-0.290
2020/01/31 13:27:26.9	1.350	-0.320	0.240	-0.260
2020/01/31 13:27:27.0	1.320	-0.310	0.220	-0.220
2020/01/31 13:27:27.1	1.280	-0.290	0.200	-0.190
2020/01/31 13:27:27.2	1.240	-0.280	0.170	-0.160
2020/01/31 13:27:27.3	1.210	-0.260	0.150	-0.130
2020/01/31 13:27:27.4	1.180	-0.240	0.110	-0.110
2020/01/31 13:27:27.5	1.150	-0.220	0.080	-0.080
2020/01/31 13:27:27.6	1.120	-0.190	0.040	-0.060
2020/01/31 13:27:27.7	1.090	-0.170	-0.000	-0.040
2020/01/31 13:27:27.8	1.070	-0.150	-0.040	-0.020
2020/01/31 13:27:27.9	1.050	-0.120	-0.090	-0.000
2020/01/31 13:27:28.0	1.030	-0.100	-0.140	0.010
2020/01/31 13:27:28.1	1.020	-0.070	-0.190	0.020
2020/01/31 13:27:28.2	1.010	-0.040	-0.240	0.030
2020/01/31 13:27:28.3	1.000	-0.020	-0.290	0.040
2020/01/31 13:27:28.4	1.000	0.010	-0.340	0.040
2020/01/31 13:27:28.5	0.990	0.040	-0.390	0.050
2020/01/31 13:27:28.6	0.980	0.070	-0.440	0.050
2020/01/31 13:27:28.7	0.990	0.090	-0.490	0.050
2020/01/31 13:27:28.8	0.990	0.120	-0.540	0.050
2020/01/31 13:27:28.9	1.000	0.150	-0.590	0.050
2020/01/31 13:27:29.0	1.010	0.170	-0.640	0.050
2020/01/31 13:27:29.1	1.020	0.200	-0.680	0.050
2020/01/31 13:27:29.2	1.030	0.230	-0.720	0.060
2020/01/31 13:27:29.3	1.050	0.250	-0.750	0.060
2020/01/31 13:27:29.4	1.060	0.270	-0.780	0.070
2020/01/31 13:27:29.5	1.080	0.300	-0.810	0.070
2020/01/31 13:27:29.6	1.110	0.320	-0.830	0.080
2020/01/31 13:27:29.7	1.130	0.340	-0.850	0.090
2020/01/31 13:27:29.8	1.150	0.360	-0.860	0.110
2020/01/31 13:27:29.9	1.180	0.380	-0.870	0.120
2020/01/31 13:27:30.0	1.200	0.390	-0.870	0.140
2020/01/31 13:27:30.1	1.220	0.400	-0.870	0.160
2020/01/31 13:27:30.2	1.240	0.420	-0.860	0.170
2020/01/31 13:27:30.3	1.270	0.420	-0.840	0.190
2020/01/31 13:27:30.4	1.290	0.430	-0.820	0.220
2020/01/31 13:27:30.5	1.320	0.430	-0.800	0.240
2020/01/31 13:27:30.6	1.350	0.430	-0.770	0.270
2020/01/31 13:27:30.7	1.380	0.430	-0.740	0.290
2020/01/31 13:27:30.8	1.400	0.420	-0.700	0.310
2020/01/31 13:27:30.9	1.420	0.410	-0.660	0.330
2020/01/31 13:27:31.0	1.450	0.400	-0.610	0.350
2020/01/31 13:27:31.1	1.470	0.380	-0.560	0.370
2020/01/31 13:27:31.2	1.490	0.360	-0.510	0.390
2020/01/31 13:27:31.3	1.510	0.340	-0.450	0.400
2020/01/31 13:27:31.4	1.540	0.320	-0.400	0.420
2020/01/31 13:27:31.5	1.560	0.290	-0.340	0.430
2020/01/31 13:27:31.6	1.580	0.260	-0.280	0.450
2020/01/31 13:27:31.7	1.600	0.230	-0.220	0.460
2020/01/31 13:27:31.8	1.620	0.190	-0.160	0.470
2020/01/31 13:27:31.9	1.640	0.160	-0.110	0.480
2020/01/31 13:27:32.0	1.670	0.120	-0.050	0.480
2020/01/31 13:27:32.1	1.690	0.080	-0.000	0.490
2020/01/31 13:27:32.2	1.710	0.040	0.050	0.490
2020/01/31 13:27:32.3	1.730	-0.000	0.090	0.490
2020/01/31 13:27:32.4	1.740	-0.040	0.140	0.490
2020/01/31 13:27:32.5	1.760	-0.080	0.180	0.490
2020/01/31 13:27:32.6	1.770	-0.130	0.210	0.490
2020/01/31 13:27:32.7	1.790	-0.170	0.240	0.490
2020/01/31 13:27:32.8	1.800	-0.210	0.260	0.480
2020/01/31 13:27:32.9	1.820	-0.250	0.280	0.480
2020/01/31 13:27:33.0	1.830	-0.290	0.300	0.470
2020/01/31 13:27:33.1	1.830	-0.330	0.310	0.460
2020/01/31 13:27:33.2	1.840	-0.370	0.310	0.460
2020/01/31 13:27:33.3	1.840	-0.410	0.310	0.450
2020/01/31 13:27:33.4	1.840	-0.440	0.310	0.440
2020/01/31 13:27:33.5	1.840	-0.480	0.300	0.430
2020/01/31 13:27:33.6	1.850	-0.510	0.290	0.420
2020/01/31 13:27:33.7	1.840	-0.540	0.270	0.400
2020/01/31 13:27:33.8	1.820	-0.570	0.250	0.390
2020/01/31 13:27:33.9	1.810	-0.590	0.220	0.370
2020/01/31 13:27:34.0	1.790	-0.620	0.200	0.350
2020/01/31 13:27:34.1	1.770	-0.640	0.170	0.330
2020/01/31 13:27:34.2	1.750	-0.660	0.140	0.310
2020/01/31 13:27:34.3	1.730	-0.670	0.100	0.280
2020/01/31 13:27:34.4	1.700	-0.680	0.070	0.250
2020/01/31 13:27:34.5	1.670	-0.690	0.030	0.220
2020/01/31 13:27:34.6	1.640	-0.700	-0.010	0.180
2020/01/31 13:27:34.7	1.610	-0.700	-0.040	0.150
2020/01/31 13:27:34.8	1.570	-0.700	-0.080	0.110
2020/01/31 13:27:34.9	1.540	-0.700	-0.110	0.080
2020/01/31 13:27:35.0	1.500	-0.690	-0.150	0.040
2020/01/31 13:27:35.1	1.460	-0.680	-0.180	0.000
2020/01/31 13:27:35.2	1.430	-0.660	-0.210	-0.030
2020/01/31 13:27:35.3	1.390	-0.640	-0.240	-0.070
2020/01/31 13:27:35.4	1.350	-0.620	-0.260	-0.100
2020/01/31 13:27:35.5	1.310	-0.600	-0.280	-0.130
2020/01/31 13:27:35.6	1.250	-0.570	-0.300	-0.160
2020/01/31 13:27:35.7	1.210	-0.530	-0.320	-0.180
2020/01/31 13:27:35.8	1.160	-0.500	-0.330	-0.200
2020/01/31 13:27:35.9	1.120	-0.460	-0.340	-0.220
2020/01/31 13:27:36.0	1.080	-0.420	-0.350	-0.240
2020/01/31 13:27:36.1	1.040	-0.370	-0.350	-0.250
2020/01/31 13:27:36.2	1.000	-0.320	-0.350	-0.260
2020/01/31 13:27:36.3	0.970	-0.270	-0.350	-0.270
2020/01/31 13:27:36.4	0.930	-0.220	-0.350	-0.280
2020/01/31 13:27:36.5	0.900	-0.160	-0.350	-0.290
2020/01/31 13:27:36.6	0.870	-0.110	-0.350	-0.290
2020/01/31 13:27:36.7	0.840	-0.050	-0.340	-0.290
2020/01/31 13:27:36.8	0.810	0.010	-0.340	-0.290
2020/01/31 13:27:36.9	0.790	0.070	-0.330	-0.300
2020/01/31 13:27:37.0	0.770	0.130	-0.330	-0.300
2020/01/31 13:27:37.1	0.750	0.200	-0.330	-0.300
2020/01/31 13:27:37.2	0.730	0.260	-0.320	-0.300
2020/01/31 13:27:37.3	0.720	0.320	-0.320	-0.300
2020/01/31 13:27:37.4	0.710	0.380	-0.310	-0.300
2020/01/31 13:27:37.5	0.710	0.450	-0.310	-0.300
2020/01/31 13:27:37.6	0.710	0.500	-0.310	-0.300
2020/01/31 13:27:37.7	0.710	0.560	-0.310	-0.300
2020/01/31 13:27:37.8	0.710	0.620	-0.310	-0.300
2020/01/31 13:27:37.9	0.710	0.670	-0.310	-0.300
2020/01/31 13:27:38.0	0.720	0.720	-0.310	-0.300
2020/01/31 13:27:38.1	0.730	0.760	-0.310	-0.300
2020/01/31 13:27:38.2	0.750	0.800	-0.310	-0.300
2020/01/31 13:27:38.3	0.760	0.840	-0.310	-0.300
2020/01/31 13:27:38.4	0.780	0.870	-0.320	-0.300
2020/01/31 13:27:38.5	0.800	0.900	-0.320	-0.300
2020/01/31 13:27:38.6	0.820	0.920	-0.320	-0.290
2020/01/31 13:27:38.7	0.840	0.940	-0.320	-0.290
2020/01/31 13:27:38.8	0.860	0.950	-0.320	-0.290
2020/01/31 13:27:38.9	0.890	0.950	-0.330	-0.290
2020/01/31 13:27:39.0	0.910	0.950	-0.330	-0.290
2020/01/31 13:27:39.1	0.940	0.950	-0.330	-0.290
2020/01/31 13:27:39.2	0.960	0.930	-0.330	-0.280
2020/01/31 13:27:39.3	0.990	0.910	-0.330	-0.280
2020/01/31 13:27:39.4	1.020	0.890	-0.330	-0.280
2020/01/31 13:27:39.5	1.050	0.860	-0.330	-0.280
2020/01/31 13:27:39.6	1.070	0.820	-0.340	-0.270
2020/01/31 13:27:39.7	1.100	0.780	-0.340	-0.270
2020/01/31 13:27:39.8	1.130	0.730	-0.340	-0.280
2020/01/31 13:27:39.9	1.160	0.680	-0.350	-0.280
2020/01/31 13:27:40.0	1.200	0.630	-0.350	-0.280
2020/01/31 13:27:40.1	1.240	0.570	-0.350	-0.290
2020/01/31 13:27:40.2	1.270	0.500	-0.350	-0.300
2020/01/31 13:27:40.3	1.310	0.440	-0.360	-0.310
2020/01/31 13:27:40.4	1.350	0.370	-0.360	-0.320
2020/01/31 13:27:40.5	1.390	0.300	-0.370	-0.330
2020/01/31 13:27:40.6	1.420	0.220	-0.370	-0.350
2020/01/31 13:27:40.7	1.460	0.150	-0.370	-0.360
2020/01/31 13:27:40.8	1.500	0.070	-0.380	-0.380
2020/01/31 13:27:40.9	1.530	-0.000	-0.380	-0.400
2020/01/31 13:27:41.0	1.570	-0.080	-0.380	-0.420
2020/01/31 13:27:41.1	1.600	-0.150	-0.380	-0.440
2020/01/31 13:27:41.2	1.630	-0.230	-0.370	-0.460
2020/01/31 13:27:41.3	1.660	-0.300	-0.370	-0.480
2020/01/31 13:27:41.4	1.690	-0.370	-0.360	-0.490
2020/01/31 13:27:41.5	1.710	-0.440	-0.350	-0.510
2020/01/31 13:27:41.6	1.740	-0.500	-0.340	-0.520
2020/01/31 13:27:41.7	1.760	-0.560	-0.320	-0.530
2020/01/31 13:27:41.8	1.770	-0.620	-0.310	-0.540
2020/01/31 13:27:41.9	1.780	-0.670	-0.290	-0.550
2020/01/31 13:27:42.0	1.790	-0.720	-0.260	-0.550
2020/01/31 13:27:42.1	1.790	-0.760	-0.240	-0.550
2020/01/31 13:27:42.2	1.790	-0.800	-0.210	-0.540
2020/01/31 13:27:42.3	1.800	-0.830	-0.180	-0.540
2020/01/31 13:27:42.4	1.790	-0.860	-0.150	-0.530
2020/01/31 13:27:42.5	1.790	-0.880	-0.120	-0.520
2020/01/31 13:27:42.6	1.780	-0.900	-0.090	-0.510
2020/01/31 13:27:42.7	1.770	-0.910	-0.060	-0.500
2020/01/31 13:27:42.8	1.770	-0.920	-0.030	-0.480
2020/01/31 13:27:42.9	1.760	-0.910	-0.000	-0.470
2020/01/31 13:27:43.0	1.750	-0.910	0.020	-0.460
2020/01/31 13:27:43.1	1.740	-0.900	0.040	-0.450
2020/01/31 13:27:43.2	1.730	-0.880	0.060	-0.430
2020/01/31 13:27:43.3	1.720	-0.850	0.070	-0.420
2020/01/31 13:27:43.4	1.710	-0.830	0.080	-0.410
2020/01/31 13:27:43.5	1.700	-0.790	0.090	-0.390
2020/01/31 13:27:43.6	1.690	-0.760	0.090	-0.380
2020/01/31 13:27:43.7	1.680	-0.710	0.090	-0.360
2020/01/31 13:27:43.8	1.660	-0.670	0.090	-0.340
2020/01/31 13:27:43.9	1.650	-0.620	0.090	-0.320
2020/01/31 13:27:44.0	1.630	-0.560	0.080	-0.300
2020/01/31 13:27:44.1	1.610	-0.510	0.070	-0.280
2020/01/31 13:27:44.2	1.590	-0.450	0.060	-0.260
2020/01/31 13:27:44.3	1.570	-0.390	0.050	-0.230
2020/01/31 13:27:44.4	1.540	-0.330	0.030	-0.210
2020/01/31 13:27:44.5	1.520	-0.270	0.010	-0.180
2020/01/31 13:27:44.6	1.510	-0.210	-0.010	-0.140
2020/01/31 13:27:44.7	1.480	-0.150	-0.020	-0.120
2020/01/31 13:27:44.8	1.460	-0.090	-0.050	-0.090
2020/01/31 13:27:44.9	1.440	-0.030	-0.070	-0.060
2020/01/31 13:27:45.0	1.420	0.030	-0.090	-0.030
2020/01/31 13:27:45.1	1.400	0.090	-0.110	-0.000
2020/01/31 13:27:45.2	1.380	0.150	-0.130	0.030
2020/01/31 13:27:45.3	1.360	0.200	-0.150	0.050
2020/01/31 13:27:45.4	1.340	0.250	-0.170	0.080
2020/01/31 13:27:45.5	1.330	0.300	-0.190	0.110
2020/01/31 13:27:45.6	1.310	0.340	-0.210	0.140
2020/01/31 13:27:45.7	1.300	0.390	-0.230	0.160
2020/01/31 13:27:45.8	1.290	0.430	-0.250	0.190
2020/01/31 13:27:45.9	1.290	0.460	-0.270	0.210
2020/01/31 13:27:46.0	1.290	0.500	-0.290	0.230
2020/01/31 13:27:46.1	1.290	0.530	-0.310	0.250
2020/01/31 13:27:46.2	1.290	0.550	-0.330	0.270
2020/01/31 13:27:46.3	1.290	0.580	-0.350	0.290
2020/01/31 13:27:46.4	1.300	0.600	-0.360	0.310
2020/01/31 13:27:46.5	1.310	0.620	-0.380	0.320
2020/01/31 13:27:46.6	1.310	0.630	-0.400	0.340
2020/01/31 13:27:46.7	1.320	0.640	-0.420	0.350
2020/01/31 13:27:46.8	1.330	0.640	-0.430	0.370
2020/01/31 13:27:46.9	1.330	0.640	-0.440	0.390
2020/01/31 13:27:47.0	1.340	0.640	-0.440	0.400
2020/01/31 13:27:47.1	1.340	0.630	-0.450	0.410
2020/01/31 13:27:47.2	1.340	0.620	-0.450	0.430
2020/01/31 13:27:47.3	1.340	0.610	-0.450	0.440
2020/01/31 13:27:47.4	1.340	0.590	-0.440	0.450
2020/01/31 13:27:47.5	1.340	0.560	-0.440	0.460
2020/01/31 13:27:47.6	1.350	0.540	-0.430	0.480
2020/01/31 13:27:47.7	1.350	0.510	-0.420	0.480
2020/01/31 13:27:47.8	1.350	0.470	-0.410	0.490
2020/01/31 13:27:47.9	1.350	0.440	-0.390	0.490
2020/01/31 13:27:48.0	1.350	0.400	-0.380	0.490
2020/01/31 13:27:48.1	1.350	0.350	-0.370	0.490
2020/01/31 13:27:48.2	1.350	0.310	-0.350	0.480
2020/01/31 13:27:48.3	1.360	0.260	-0.340	0.470
2020/01/31 13:27:48.4	1.360	0.220	-0.330	0.460
2020/01/31 13:27:48.5	1.370	0.170	-0.320	0.440
2020/01/31 13:27:48.6	1.380	0.120	-0.310	0.410
2020/01/31 13:27:48.7	1.400	0.070	-0.300	0.380
2020/01/31 13:27:48.8	1.420	0.020	-0.290	0.340
2020/01/31 13:27:48.9	1.440	-0.030	-0.290	0.300
2020/01/31 13:27:49.0	1.460	-0.080	-0.280	0.250
2020/01/31 13:27:49.1	1.480	-0.130	-0.280	0.190
2020/01/31 13:27:49.2	1.510	-0.180	-0.280	0.130
2020/01/31 13:27:49.3	1.540	-0.220	-0.280	0.070
2020/01/31 13:27:49.4	1.570	-0.270	-0.280	-0.000
2020/01/31 13:27:49.5	1.590	-0.310	-0.280	-0.080
2020/01/31 13:27:49.6	1.630	-0.350	-0.280	-0.150
2020/01/31 13:27:49.7	1.660	-0.380	-0.280	-0.230
2020/01/31 13:27:49.8	1.690	-0.410	-0.280	-0.310
2020/01/31 13:27:49.9	1.710	-0.440	-0.280	-0.390
2020/01/31 13:27:50.0	1.740	-0.470	-0.280	-0.460
2020/01/31 13:27:50.1	1.770	-0.490	-0.270	-0.540
2020/01/31 13:27:50.2	1.790	-0.510	-0.270	-0.620
2020/01/31 13:27:50.3	1.810	-0.520	-0.260	-0.690
2020/01/31 13:27:50.4	1.830	-0.530	-0.250	-0.760
2020/01/31 13:27:50.5	1.850	-0.540	-0.240	-0.820
2020/01/31 13:27:50.6	1.860	-0.540	-0.220	-0.880
2020/01/31 13:27:50.7	1.870	-0.540	-0.210	-0.930
2020/01/31 13:27:50.8	1.880	-0.540	-0.190	-0.980
2020/01/31 13:27:50.9	1.890	-0.530	-0.170	-1.030
2020/01/31 13:27:51.0	1.900	-0.520	-0.150	-1.060
2020/01/31 13:27:51.1	1.900	-0.510	-0.130	-1.090
2020/01/31 13:27:51.2	1.900	-0.490	-0.100	-1.120
2020/01/31 13:27:51.3	1.900	-0.470	-0.080	-1.140
2020/01/31 13:27:51.4	1.890	-0.440	-0.060	-1.150
2020/01/31 13:27:51.5	1.890	-0.420	-0.040	-1.160
2020/01/31 13:27:51.6	1.870	-0.390	-0.010	-1.160
2020/01/31 13:27:51.7	1.860	-0.360	0.010	-1.160
2020/01/31 13:27:51.8	1.850	-0.330	0.030	-1.150
2020/01/31 13:27:51.9	1.830	-0.290	0.040	-1.140
2020/01/31 13:27:52.0	1.810	-0.260	0.050	-1.120
2020/01/31 13:27:52.1	1.790	-0.230	0.060	-1.100
2020/01/31 13:27:52.2	1.770	-0.190	0.070	-1.080
2020/01/31 13:27:52.3	1.740	-0.150	0.070	-1.060
2020/01/31 13:27:52.4	1.720	-0.120	0.070	-1.030
2020/01/31 13:27:52.5	1.690	-0.080	0.070	-1.000
2020/01/31 13:27:52.6	1.670	-0.050	0.060	-0.970
2020/01/31 13:27:52.7	1.640	-0.010	0.050	-0.940
2020/01/31 13:27:52.8	1.610	0.030	0.030	-0.900
2020/01/31 13:27:52.9	1.580	0.060	0.020	-0.860
2020/01/31 13:27:53.0	1.550	0.090	-0.000	-0.830
2020/01/31 13:27:53.1	1.530	0.130	-0.030	-0.790
2020/01/31 13:27:53.2	1.500	0.160	-0.050	-0.750
2020/01/31 13:27:53.3	1.470	0.190	-0.080	-0.700
2020/01/31 13:27:53.4	1.440	0.220	-0.110	-0.660
2020/01/31 13:27:53.5	1.410	0.250	-0.140	-0.610
2020/01/31 13:27:53.6	1.390	0.280	-0.180	-0.560
2020/01/31 13:27:53.7	1.370	0.300	-0.220	-0.510
2020/01/31 13:27:53.8	1.340	0.330	-0.250	-0.460
2020/01/31 13:27:53.9	1.320	0.350	-0.290	-0.400
2020/01/31 13:27:54.0	1.300	0.380	-0.320	-0.350
2020/01/31 13:27:54.1	1.290	0.400	-0.360	-0.300
2020/01/31 13:27:54.2	1.270	0.420	-0.390	-0.250
2020/01/31 13:27:54.3	1.260	0.440	-0.430	-0.190
2020/01/31 13:27:54.4	1.250	0.460	-0.460	-0.140
2020/01/31 13:27:54.5	1.240	0.470	-0.490	-0.090
2020/01/31 13:27:54.6	1.240	0.490	-0.520	-0.040
2020/01/31 13:27:54.7	1.240	0.500	-0.550	0.000
2020/01/31 13:27:54.8	1.240	0.520	-0.570	0.050
2020/01/31 13:27:54.9	1.240	0.530	-0.590	0.090
2020/01/31 13:27:55.0	1.250	0.530	-0.610	0.120
2020/01/31 13:27:55.1	1.260	0.540	-0.620	0.150
2020/01/31 13:27:55.2	1.270	0.540	-0.630	0.180
2020/01/31 13:27:55.3	1.280	0.540	-0.630	0.210
2020/01/31 13:27:55.4	1.300	0.540	-0.630	0.230
2020/01/31 13:27:55.5	1.320	0.540	-0.630	0.240
2020/01/31 13:27:55.6	1.340	0.530	-0.620	0.260
2020/01/31 13:27:55.7	1.370	0.520	-0.600	0.270
2020/01/31 13:27:55.8	1.390	0.500	-0.590	0.270
2020/01/31 13:27:55.9	1.410	0.480	-0.560	0.280
2020/01/31 13:27:56.0	1.440	0.460	-0.540	0.280
2020/01/31 13:27:56.1	1.460	0.440	-0.510	0.270
2020/01/31 13:27:56.2	1.490	0.410	-0.470	0.270
2020/01/31 13:27:56.3	1.510	0.380	-0.430	0.260
2020/01/31 13:27:56.4	1.540	0.340	-0.400	0.260
2020/01/31 13:27:56.5	1.560	0.310	-0.350	0.240
2020/01/31 13:27:56.6	1.580	0.270	-0.320	0.230
2020/01/31 13:27:56.7	1.600	0.220	-0.270	0.220
2020/01/31 13:27:56.8	1.630	0.180	-0.230	0.210
2020/01/31 13:27:56.9	1.650	0.130	-0.180	0.190
2020/01/31 13:27:57.0	1.670	0.080	-0.140	0.180
2020/01/31 13:27:57.1	1.690	0.030	-0.100	0.160
2020/01/31 13:27:57.2	1.710	-0.020	-0.060	0.140
2020/01/31 13:27:57.3	1.740	-0.070	-0.020	0.120
2020/01/31 13:27:57.4	1.760	-0.120	0.020	0.090
2020/01/31 13:27:57.5	1.780	-0.170	0.050	0.070
2020/01/31 13:27:57.6	1.820	-0.220	0.070	0.040
2020/01/31 13:27:57.7	1.840	-0.260	0.100	0.010
2020/01/31 13:27:57.8	1.870	-0.310	0.110	-0.020
2020/01/31 13:27:57.9	1.900	-0.350	0.120	-0.060
2020/01/31 13:27:58.0	1.930	-0.390	0.130	-0.090
2020/01/31 13:27:58.1	1.960	-0.420	0.130	-0.130
2020/01/31 13:27:58.2	1.990	-0.460	0.120	-0.180
2020/01/31 13:27:58.3	2.020	-0.480	0.110	-0.220
2020/01/31 13:27:58.4	2.060	-0.510	0.090	-0.270
2020/01/31 13:27:58.5	2.090	-0.520	0.070	-0.310
2020/01/31 13:27:58.6	2.130	-0.540	0.040	-0.360
2020/01/31 13:27:58.7	2.160	-0.550	0.010	-0.410
2020/01/31 13:27:58.8	2.190	-0.550	-0.030	-0.450
2020/01/31 13:27:58.9	2.220	-0.550	-0.070	-0.500
2020/01/31 13:27:59.0	2.240	-0.550	-0.110	-0.540
2020/01/31 13:27:59.1	2.270	-0.540	-0.150	-0.580
2020/01/31 13:27:59.2	2.290	-0.530	-0.190	-0.610
2020/01/31 13:27:59.3	2.300	-0.510	-0.230	-0.650
2020/01/31 13:27:59.4	2.320	-0.490	-0.260	-0.670
2020/01/31 13:27:59.5	2.320	-0.460	-0.300	-0.700
2020/01/31 13:27:59.6	2.330	-0.440	-0.330	-0.710
2020/01/31 13:27:59.7	2.330	-0.410	-0.360	-0.730
2020/01/31 13:27:59.8	2.330	-0.380	-0.390	-0.730
2020/01/31 13:27:59.9	2.320	-0.350	-0.400	-0.730
2020/01/31 13:28:00.0	2.300	-0.310	-0.420	-0.730
2020/01/31 13:28:00.1	2.290	-0.280	-0.420	-0.720
2020/01/31 13:28:00.2	2.270	-0.250	-0.420	-0.710
2020/01/31 13:28:00.3	2.240	-0.220	-0.420	-0.690
2020/01/31 13:28:00.4	2.210	-0.190	-0.400	-0.660
2020/01/31 13:28:00.5	2.180	-0.160	-0.390	-0.630
2020/01/31 13:28:00.6	2.150	-0.130	-0.370	-0.600
2020/01/31 13:28:00.7	2.110	-0.100	-0.340	-0.560
2020/01/31 13:28:00.8	2.070	-0.080	-0.310	-0.510
2020/01/31 13:28:00.9	2.020	-0.060	-0.270	-0.460
2020/01/31 13:28:01.0	1.980	-0.040	-0.230	-0.410
2020/01/31 13:28:01.1	1.930	-0.020	-0.190	-0.360
2020/01/31 13:28:01.2	1.890	-0.010	-0.140	-0.300
2020/01/31 13:28:01.3	1.840	-0.000	-0.100	-0.240
2020/01/31 13:28:01.4	1.790	0.000	-0.050	-0.170
2020/01/31 13:28:01.5	1.740	0.010	-0.000	-0.110
2020/01/31 13:28:01.6	1.690	0.010	0.040	-0.040
2020/01/31 13:28:01.7	1.640	0.010	0.080	0.020
2020/01/31 13:28:01.8	1.590	0.010	0.120	0.090
2020/01/31 13:28:01.9	1.550	0.000	0.150	0.150
2020/01/31 13:28:02.0	1.500	-0.000	0.190	0.210
2020/01/31 13:28:02.1	1.460	-0.010	0.210	0.260
2020/01/31 13:28:02.2	1.420	-0.020	0.230	0.310
2020/01/31 13:28:02.3	1.380	-0.030	0.250	0.360
2020/01/31 13:28:02.4	1.350	-0.040	0.260	0.400
2020/01/31 13:28:02.5	1.310	-0.040	0.260	0.430
2020/01/31 13:28:02.6	1.280	-0.050	0.260	0.470
2020/01/31 13:28:02.7	1.260	-0.060	0.250	0.490
2020/01/31 13:28:02.8	1.230	-0.060	0.230	0.510
2020/01/31 13:28:02.9	1.210	-0.070	0.210	0.520
2020/01/31 13:28:03.0	1.190	-0.070	0.180	0.530
2020/01/31 13:28:03.1	1.170	-0.070	0.150	0.530
2020/01/31 13:28:03.2	1.160	-0.070	0.110	0.520
2020/01/31 13:28:03.3	1.150	-0.060	0.060	0.510
2020/01/31 13:28:03.4	1.140	-0.050	0.010	0.490
2020/01/31 13:28:03.5	1.130	-0.040	-0.040	0.470
2020/01/31 13:28:03.6	1.130	-0.030	-0.100	0.450
2020/01/31 13:28:03.7	1.130	-0.010	-0.160	0.420
2020/01/31 13:28:03.8	1.130	0.010	-0.220	0.390
2020/01/31 13:28:03.9	1.130	0.040	-0.290	0.360
2020/01/31 13:28:04.0	1.140	0.060	-0.350	0.320
2020/01/31 13:28:04.1	1.150	0.090	-0.420	0.290
2020/01/31 13:28:04.2	1.160	0.120	-0.480	0.250
2020/01/31 13:28:04.3	1.170	0.160	-0.540	0.220
2020/01/31 13:28:04.4	1.190	0.190	-0.600	0.180
2020/01/31 13:28:04.5	1.200	0.230	-0.650	0.150
2020/01/31 13:28:04.6	1.220	0.260	-0.710	0.120
2020/01/31 13:28:04.7	1.230	0.300	-0.750	0.080
2020/01/31 13:28:04.8	1.250	0.340	-0.790	0.050
2020/01/31 13:28:04.9	1.270	0.370	-0.830	0.020
2020/01/31 13:28:05.0	1.280	0.410	-0.860	-0.000
2020/01/31 13:28:05.1	1.300	0.440	-0.880	-0.030
2020/01/31 13:28:05.2	1.320	0.470	-0.890	-0.060
2020/01/31 13:28:05.3	1.330	0.490	-0.900	-0.080
2020/01/31 13:28:05.4	1.350	0.520	-0.910	-0.100
2020/01/31 13:28:05.5	1.360	0.540	-0.910	-0.120
2020/01/31 13:28:05.6	1.380	0.550	-0.890	-0.140
2020/01/31 13:28:05.7	1.390	0.560	-0.880	-0.160
2020/01/31 13:28:05.8	1.410	0.570	-0.860	-0.180
2020/01/31 13:28:05.9	1.430	0.570	-0.840	-0.210
2020/01/31 13:28:06.0	1.450	0.570	-0.820	-0.230
2020/01/31 13:28:06.1	1.470	0.570	-0.790	-0.250
2020/01/31 13:28:06.2	1.490	0.550	-0.760	-0.280
2020/01/31 13:28:06.3	1.510	0.540	-0.730	-0.310
2020/01/31 13:28:06.4	1.530	0.520	-0.690	-0.340
2020/01/31 13:28:06.5	1.560	0.490	-0.660	-0.370
2020/01/31 13:28:06.6	1.580	0.460	-0.620	-0.400
2020/01/31 13:28:06.7	1.610	0.430	-0.590	-0.430
2020/01/31 13:28:06.8	1.640	0.390	-0.550	-0.470
2020/01/31 13:28:06.9	1.670	0.350	-0.520	-0.510
2020/01/31 13:28:07.0	1.700	0.310	-0.480	-0.550
2020/01/31 13:28:07.1	1.740	0.270	-0.450	-0.600
2020/01/31 13:28:07.2	1.780	0.220	-0.420	-0.640
2020/01/31 13:28:07.3	1.810	0.170	-0.400	-0.690
2020/01/31 13:28:07.4	1.860	0.120	-0.370	-0.740
2020/01/31 13:28:07.5	1.900	0.070	-0.350	-0.790
2020/01/31 13:28:07.6	1.950	0.020	-0.320	-0.840
2020/01/31 13:28:07.7	1.990	-0.030	-0.300	-0.890
2020/01/31 13:28:07.8	2.040	-0.070	-0.290	-0.940
2020/01/31 13:28:07.9	2.080	-0.120	-0.270	-0.990
2020/01/31 13:28:08.0	2.130	-0.170	-0.260	-1.040
2020/01/31 13:28:08.1	2.170	-0.210	-0.240	-1.090
2020/01/31 13:28:08.2	2.210	-0.250	-0.230	-1.140
2020/01/31 13:28:08.3	2.250	-0.290	-0.210	-1.190
2020/01/31 13:28:08.4	2.290	-0.330	-0.200	-1.230
2020/01/31 13:28:08.5	2.330	-0.360	-0.180	-1.270
2020/01/31 13:28:08.6	2.370	-0.390	-0.170	-1.300
2020/01/31 13:28:08.7	2.400	-0.420	-0.150	-1.330
2020/01/31 13:28:08.8	2.420	-0.440	-0.130	-1.350
2020/01/31 13:28:08.9	2.440	-0.460	-0.110	-1.370
2020/01/31 13:28:09.0	2.450	-0.480	-0.090	-1.390
2020/01/31 13:28:09.1	2.460	-0.490	-0.060	-1.400
2020/01/31 13:28:09.2	2.470	-0.500	-0.040	-1.410
2020/01/31 13:28:09.3	2.470	-0.500	-0.010	-1.410
2020/01/31 13:28:09.4	2.460	-0.500	0.020	-1.400
2020/01/31 13:28:09.5	2.460	-0.500	0.050	-1.390
2020/01/31 13:28:09.6	2.460	-0.490	0.080	-1.370
2020/01/31 13:28:09.7	2.450	-0.480	0.120	-1.350
2020/01/31 13:28:09.8	2.430	-0.460	0.150	-1.320
2020/01/31 13:28:09.9	2.410	-0.440	0.180	-1.290
2020/01/31 13:28:10.0	2.380	-0.420	0.220	-1.250
2020/01/31 13:28:10.1	2.360	-0.400	0.250	-1.210
2020/01/31 13:28:10.2	2.330	-0.370	0.280	-1.160
2020/01/31 13:28:10.3	2.300	-0.340	0.310	-1.110
2020/01/31 13:28:10.4	2.270	-0.310	0.330	-1.060
2020/01/31 13:28:10.5	2.230	-0.270	0.360	-1.000
2020/01/31 13:28:10.6	2.200	-0.230	0.380	-0.930
2020/01/31 13:28:10.7	2.160	-0.190	0.400	-0.860
2020/01/31 13:28:10.8	2.130	-0.160	0.410	-0.790
2020/01/31 13:28:10.9	2.090	-0.110	0.430	-0.720
2020/01/31 13:28:11.0	2.060	-0.070	0.440	-0.640
2020/01/31 13:28:11.1	2.020	-0.030	0.440	-0.570
2020/01/31 13:28:11.2	1.990	0.010	0.440	-0.490
2020/01/31 13:28:11.3	1.950	0.050	0.440	-0.410
2020/01/31 13:28:11.4	1.910	0.090	0.440	-0.330
2020/01/31 13:28:11.5	1.880	0.130	0.430	-0.250
2020/01/31 13:28:11.6	1.850	0.160	0.410	-0.170
2020/01/31 13:28:11.7	1.820	0.200	0.400	-0.090
2020/01/31 13:28:11.8	1.780	0.230	0.380	-0.010
2020/01/31 13:28:11.9	1.750	0.260	0.360	0.070
2020/01/31 13:28:12.0	1.720	0.290	0.330	0.140
2020/01/31 13:28:12.1	1.690	0.320	0.310	0.220
2020/01/31 13:28:12.2	1.660	0.340	0.280	0.290
2020/01/31 13:28:12.3	1.630	0.360	0.250	0.370
2020/01/31 13:28:12.4	1.610	0.380	0.210	0.440
2020/01/31 13:28:12.5	1.580	0.390	0.180	0.510
2020/01/31 13:28:12.6	1.540	0.400	0.140	0.580
2020/01/31 13:28:12.7	1.520	0.410	0.100	0.640
2020/01/31 13:28:12.8	1.500	0.410	0.070	0.700
2020/01/31 13:28:12.9	1.480	0.410	0.030	0.760
2020/01/31 13:28:13.0	1.460	0.410	-0.010	0.820
2020/01/31 13:28:13.1	1.450	0.400	-0.050	0.870
2020/01/31 13:28:13.2	1.430	0.390	-0.080	0.920
2020/01/31 13:28:13.3	1.410	0.380	-0.120	0.970
2020/01/31 13:28:13.4	1.400	0.360	-0.160	1.010
2020/01/31 13:28:13.5	1.390	0.340	-0.200	1.040
2020/01/31 13:28:13.6	1.370	0.310	-0.240	1.080
2020/01/31 13:28:13.7	1.360	0.290	-0.270	1.100
2020/01/31 13:28:13.8	1.350	0.260	-0.310	1.120
2020/01/31 13:28:13.9	1.340	0.230	-0.350	1.130
2020/01/31 13:28:14.0	1.330	0.190	-0.380	1.140
2020/01/31 13:28:14.1	1.320	0.160	-0.420	1.140
2020/01/31 13:28:14.2	1.310	0.120	-0.460	1.140
2020/01/31 13:28:14.3	1.300	0.090	-0.490	1.130
2020/01/31 13:28:14.4	1.290	0.050	-0.530	1.110
2020/01/31 13:28:14.5	1.290	0.020	-0.560	1.090
2020/01/31 13:28:14.6	1.280	-0.020	-0.600	1.060
2020/01/31 13:28:14.7	1.280	-0.050	-0.630	1.020
2020/01/31 13:28:14.8	1.280	-0.090	-0.670	0.980
2020/01/31 13:28:14.9	1.290	-0.120	-0.700	0.930
2020/01/31 13:28:15.0	1.300	-0.150	-0.730	0.880
2020/01/31 13:28:15.1	1.310	-0.180	-0.770	0.820
2020/01/31 13:28:15.2	1.330	-0.200	-0.800	0.760
2020/01/31 13:28:15.3	1.350	-0.220	-0.830	0.690
2020/01/31 13:28:15.4	1.370	-0.240	-0.870	0.610
2020/01/31 13:28:15.5	1.400	-0.260	-0.900	0.530
2020/01/31 13:28:15.6	1.420	-0.270	-0.930	0.450
2020/01/31 13:28:15.7	1.450	-0.280	-0.960	0.360
2020/01/31 13:28:15.8	1.490	-0.280	-0.990	0.260
2020/01/31 13:28:15.9	1.540	-0.280	-1.010	0.170
2020/01/31 13:28:16.0	1.580	-0.280	-1.040	0.060
2020/01/31 13:28:16.1	1.630	-0.280	-1.060	-0.040
2020/01/31 13:28:16.2	1.690	-0.270	-1.080	-0.140
2020/01/31 13:28:16.3	1.740	-0.260	-1.100	-0.250
2020/01/31 13:28:16.4	1.800	-0.240	-1.110	-0.350
2020/01/31 13:28:16.5	1.860	-0.230	-1.120	-0.460
2020/01/31 13:28:16.6	1.930	-0.210	-1.130	-0.570
2020/01/31 13:28:16.7	1.990	-0.190	-1.130	-0.670
2020/01/31 13:28:16.8	2.050	-0.170	-1.130	-0.770
2020/01/31 13:28:16.9	2.110	-0.160	-1.120	-0.880
2020/01/31 13:28:17.0	2.180	-0.140	-1.110	-0.970
2020/01/31 13:28:17.1	2.240	-0.120	-1.090	-1.070
2020/01/31 13:28:17.2	2.300	-0.100	-1.070	-1.160
2020/01/31 13:28:17.3	2.350	-0.080	-1.040	-1.250
2020/01/31 13:28:17.4	2.410	-0.070	-1.010	-1.330
2020/01/31 13:28:17.5	2.460	-0.060	-0.960	-1.400
2020/01/31 13:28:17.6	2.520	-0.050	-0.920	-1.470
2020/01/31 13:28:17.7	2.560	-0.040	-0.870	-1.530
2020/01/31 13:28:17.8	2.600	-0.030	-0.810	-1.590
2020/01/31 13:28:17.9	2.640	-0.030	-0.750	-1.650
2020/01/31 13:28:18.0	2.670	-0.030	-0.690	-1.690
2020/01/31 13:28:18.1	2.690	-0.030	-0.620	-1.730
2020/01/31 13:28:18.2	2.710	-0.040	-0.540	-1.760
2020/01/31 13:28:18.3	2.730	-0.050	-0.470	-1.790
2020/01/31 13:28:18.4	2.740	-0.060	-0.390	-1.810
2020/01/31 13:28:18.5	2.740	-0.070	-0.310	-1.820
2020/01/31 13:28:18.6	2.740	-0.080	-0.230	-1.830
2020/01/31 13:28:18.7	2.740	-0.100	-0.150	-1.830
2020/01/31 13:28:18.8	2.730	-0.120	-0.070	-1.830
2020/01/31 13:28:18.9	2.720	-0.140	0.010	-1.820
2020/01/31 13:28:19.0	2.700	-0.160	0.090	-1.800
2020/01/31 13:28:19.1	2.680	-0.190	0.160	-1.780
2020/01/31 13:28:19.2	2.660	-0.210	0.240	-1.760
2020/01/31 13:28:19.3	2.630	-0.230	0.310	-1.730
2020/01/31 13:28:19.4	2.610	-0.250	0.370	-1.690
2020/01/31 13:28:19.5	2.580	-0.270	0.430	-1.650
2020/01/31 13:28:19.6	2.560	-0.290	0.490	-1.600
2020/01/31 13:28:19.7	2.530	-0.310	0.540	-1.560
2020/01/31 13:28:19.8	2.500	-0.320	0.590	-1.510
2020/01/31 13:28:19.9	2.470	-0.330	0.620	-1.450
2020/01/31 13:28:20.0	2.440	-0.340	0.660	-1.400
2020/01/31 13:28:20.1	2.410	-0.350	0.680	-1.340
2020/01/31 13:28:20.2	2.380	-0.350	0.700	-1.280
2020/01/31 13:28:20.3	2.340	-0.340	0.720	-1.220
2020/01/31 13:28:20.4	2.310	-0.340	0.720	-1.150
2020/01/31 13:28:20.5	2.280	-0.330	0.720	-1.090
2020/01/31 13:28:20.6	2.270	-0.320	0.720	-1.010
2020/01/31 13:28:20.7	2.240	-0.300	0.700	-0.940
2020/01/31 13:28:20.8	2.210	-0.280	0.690	-0.870
2020/01/31 13:28:20.9	2.180	-0.250	0.660	-0.800
2020/01/31 13:28:21.0	2.140	-0.230	0.640	-0.730
2020/01/31 13:28:21.1	2.110	-0.200	0.600	-0.660
2020/01/31 13:28:21.2	2.080	-0.160	0.570	-0.580
2020/01/31 13:28:21.3	2.040	-0.130	0.530	-0.510
2020/01/31 13:28:21.4	2.010	-0.090	0.490	-0.440
2020/01/31 13:28:21.5	1.970	-0.050	0.440	-0.370
2020/01/31 13:28:21.6	1.920	-0.010	0.390	-0.300
2020/01/31 13:28:21.7	1.890	0.030	0.350	-0.230
2020/01/31 13:28:21.8	1.850	0.070	0.300	-0.160
2020/01/31 13:28:21.9	1.820	0.110	0.240	-0.100
2020/01/31 13:28:22.0	1.780	0.150	0.190	-0.030
2020/01/31 13:28:22.1	1.740	0.200	0.140	0.030
2020/01/31 13:28:22.2	1.710	0.240	0.090	0.090
2020/01/31 13:28:22.3	1.670	0.280	0.040	0.140
2020/01/31 13:28:22.4	1.640	0.320	-0.010	0.200
2020/01/31 13:28:22.5	1.600	0.360	-0.060	0.250
2020/01/31 13:28:22.6	1.560	0.390	-0.120	0.300
2020/01/31 13:28:22.7	1.520	0.420	-0.160	0.350
2020/01/31 13:28:22.8	1.490	0.460	-0.200	0.390
2020/01/31 13:28:22.9	1.470	0.480	-0.250	0.430
2020/01/31 13:28:23.0	1.440	0.510	-0.280	0.470
2020/01/31 13:28:23.1	1.410	0.530	-0.320	0.510
2020/01/31 13:28:23.2	1.390	0.550	-0.350	0.540
2020/01/31 13:28:23.3	1.370	0.570	-0.380	0.570
2020/01/31 13:28:23.4	1.350	0.590	-0.410	0.600
2020/01/31 13:28:23.5	1.330	0.600	-0.440	0.630
2020/01/31 13:28:23.6	1.320	0.610	-0.450	0.650
2020/01/31 13:28:23.7	1.300	0.610	-0.470	0.670
2020/01/31 13:28:23.8	1.290	0.610	-0.490	0.690
2020/01/31 13:28:23.9	1.290	0.610	-0.500	0.710
2020/01/31 13:28:24.0	1.280	0.610	-0.510	0.720
2020/01/31 13:28:24.1	1.280	0.610	-0.520	0.730
2020/01/31 13:28:24.2	1.270	0.600	-0.530	0.730
2020/01/31 13:28:24.3	1.270	0.590	-0.530	0.730
2020/01/31 13:28:24.4	1.280	0.580	-0.530	0.730
2020/01/31 13:28:24.5	1.280	0.560	-0.540	0.730
2020/01/31 13:28:24.6	1.290	0.550	-0.540	0.730
2020/01/31 13:28:24.7	1.300	0.530	-0.540	0.720
2020/01/31 13:28:24.8	1.310	0.520	-0.540	0.710
2020/01/31 13:28:24.9	1.330	0.500	-0.540	0.700
2020/01/31 13:28:25.0	1.340	0.480	-0.540	0.680
2020/01/31 13:28:25.1	1.360	0.460	-0.540	0.670
2020/01/31 13:28:25.2	1.380	0.440	-0.540	0.650
2020/01/31 13:28:25.3	1.400	0.410	-0.540	0.630
2020/01/31 13:28:25.4	1.420	0.390	-0.540	0.610
2020/01/31 13:28:25.5	1.450	0.370	-0.530	0.590
2020/01/31 13:28:25.6	1.460	0.350	-0.530	0.570
2020/01/31 13:28:25.7	1.490	0.330	-0.530	0.550
2020/01/31 13:28:25.8	1.520	0.310	-0.530	0.530
2020/01/31 13:28:25.9	1.550	0.290	-0.530	0.510
2020/01/31 13:28:26.0	1.580	0.270	-0.530	0.490
2020/01/31 13:28:26.1	1.610	0.250	-0.530	0.470
2020/01/31 13:28:26.2	1.640	0.230	-0.530	0.440
2020/01/31 13:28:26.3	1.670	0.210	-0.530	0.420
2020/01/31 13:28:26.4	1.700	0.190	-0.530	0.400
2020/01/31 13:28:26.5	1.730	0.170	-0.530	0.380
2020/01/31 13:28:26.6	1.740	0.150	-0.530	0.360
2020/01/31 13:28:26.7	1.770	0.130	-0.530	0.340
2020/01/31 13:28:26.8	1.800	0.110	-0.520	0.330
2020/01/31 13:28:26.9	1.820	0.090	-0.520	0.310
2020/01/31 13:28:27.0	1.850	0.060	-0.510	0.290
2020/01/31 13:28:27.1	1.870	0.040	-0.500	0.280
2020/01/31 13:28:27.2	1.890	0.020	-0.490	0.260
2020/01/31 13:28:27.3	1.910	-0.010	-0.470	0.250
2020/01/31 13:28:27.4	1.930	-0.030	-0.460	0.230
2020/01/31 13:28:27.5	1.950	-0.060	-0.440	0.220
2020/01/31 13:28:27.6	1.960	-0.080	-0.430	0.210
2020/01/31 13:28:27.7	1.970	-0.110	-0.410	0.190
2020/01/31 13:28:27.8	1.990	-0.140	-0.390	0.180
2020/01/31 13:28:27.9	2.000	-0.170	-0.370	0.160
2020/01/31 13:28:28.0	2.020	-0.200	-0.350	0.140
2020/01/31 13:28:28.1	2.030	-0.230	-0.330	0.130
2020/01/31 13:28:28.2	2.040	-0.270	-0.310	0.110
2020/01/31 13:28:28.3	2.060	-0.300	-0.290	0.080
2020/01/31 13:28:28.4	2.070	-0.330	-0.260	0.060
2020/01/31 13:28:28.5	2.080	-0.370	-0.240	0.040
2020/01/31 13:28:28.6	2.110	-0.400	-0.220	0.020
2020/01/31 13:28:28.7	2.130	-0.440	-0.200	-0.010
2020/01/31 13:28:28.8	2.140	-0.470	-0.180	-0.040
2020/01/31 13:28:28.9	2.150	-0.500	-0.160	-0.070
2020/01/31 13:28:29.0	2.160	-0.540	-0.140	-0.100
2020/01/31 13:28:29.1	2.180	-0.570	-0.120	-0.130
2020/01/31 13:28:29.2	2.190	-0.600	-0.110	-0.170
2020/01/31 13:28:29.3	2.200	-0.630	-0.090	-0.200
2020/01/31 13:28:29.4	2.210	-0.660	-0.080	-0.230
2020/01/31 13:28:29.5	2.220	-0.690	-0.060	-0.270
2020/01/31 13:28:29.6	2.240	-0.710	-0.050	-0.300
2020/01/31 13:28:29.7	2.250	-0.740	-0.040	-0.340
2020/01/31 13:28:29.8	2.260	-0.760	-0.030	-0.370
2020/01/31 13:28:29.9	2.270	-0.780	-0.030	-0.410
2020/01/31 13:28:30.0	2.270	-0.790	-0.020	-0.450
2020/01/31 13:28:30.1	2.280	-0.810	-0.020	-0.480
2020/01/31 13:28:30.2	2.290	-0.820	-0.020	-0.520
2020/01/31 13:28:30.3	2.290	-0.820	-0.020	-0.560
2020/01/31 13:28:30.4	2.300	-0.820	-0.030	-0.600
2020/01/31 13:28:30.5	2.300	-0.820	-0.030	-0.640
2020/01/31 13:28:30.6	2.310	-0.820	-0.040	-0.690
2020/01/31 13:28:30.7	2.320	-0.810	-0.050	-0.730
2020/01/31 13:28:30.8	2.320	-0.800	-0.070	-0.770
2020/01/31 13:28:30.9	2.320	-0.780	-0.080	-0.810
2020/01/31 13:28:31.0	2.330	-0.760	-0.090	-0.860
2020/01/31 13:28:31.1	2.330	-0.740	-0.110	-0.900
2020/01/31 13:28:31.2	2.340	-0.710	-0.130	-0.940
2020/01/31 13:28:31.3	2.340	-0.680	-0.150	-0.980
2020/01/31 13:28:31.4	2.340	-0.640	-0.170	-1.020
2020/01/31 13:28:31.5	2.340	-0.600	-0.190	-1.050
2020/01/31 13:28:31.6	2.340	-0.560	-0.210	-1.080
2020/01/31 13:28:31.7	2.340	-0.510	-0.230	-1.110
2020/01/31 13:28:31.8	2.340	-0.460	-0.250	-1.130
2020/01/31 13:28:31.9	2.330	-0.410	-0.270	-1.140
2020/01/31 13:28:32.0	2.320	-0.350	-0.290	-1.150
2020/01/31 13:28:32.1	2.310	-0.290	-0.300	-1.160
2020/01/31 13:28:32.2	2.300	-0.230	-0.320	-1.160
2020/01/31 13:28:32.3	2.280	-0.170	-0.330	-1.150
2020/01/31 13:28:32.4	2.260	-0.110	-0.340	-1.140
2020/01/31 13:28:32.5	2.240	-0.050	-0.350	-1.120
2020/01/31 13:28:32.6	2.220	0.010	-0.350	-1.090
2020/01/31 13:28:32.7	2.190	0.070	-0.350	-1.060
2020/01/31 13:28:32.8	2.160	0.130	-0.350	-1.020
2020/01/31 13:28:32.9	2.130	0.190	-0.350	-0.980
2020/01/31 13:28:33.0	2.100	0.250	-0.340	-0.930
2020/01/31 13:28:33.1	2.070	0.310	-0.320	-0.880
2020/01/31 13:28:33.2	2.040	0.360	-0.310	-0.830
2020/01/31 13:28:33.3	2.000	0.410	-0.290	-0.760
2020/01/31 13:28:33.4	1.960	0.460	-0.270	-0.700
2020/01/31 13:28:33.5	1.920	0.500	-0.250	-0.630
2020/01/31 13:28:33.6	1.890	0.550	-0.220	-0.560
2020/01/31 13:28:33.7	1.850	0.580	-0.190	-0.480
2020/01/31 13:28:33.8	1.810	0.620	-0.160	-0.410
2020/01/31 13:28:33.9	1.780	0.650	-0.130	-0.330
2020/01/31 13:28:34.0	1.740	0.680	-0.100	-0.260
2020/01/31 13:28:34.1	1.710	0.700	-0.070	-0.180
2020/01/31 13:28:34.2	1.670	0.720	-0.040	-0.100
2020/01/31 13:28:34.3	1.640	0.740	-0.010	-0.030
2020/01/31 13:28:34.4	1.610	0.750	0.020	0.050
2020/01/31 13:28:34.5	1.590	0.760	0.040	0.120
2020/01/31 13:28:34.6	1.560	0.760	0.070	0.190
2020/01/31 13:28:34.7	1.540	0.760	0.090	0.260
2020/01/31 13:28:34.8	1.530	0.760	0.110	0.320
2020/01/31 13:28:34.9	1.510	0.760	0.120	0.380
2020/01/31 13:28:35.0	1.500	0.750	0.140	0.440
2020/01/31 13:28:35.1	1.490	0.740	0.150	0.490
2020/01/31 13:28:35.2	1.490	0.720	0.150	0.540
2020/01/31 13:28:35.3	1.490	0.710	0.160	0.590
2020/01/31 13:28:35.4	1.490	0.690	0.160	0.630
2020/01/31 13:28:35.5	1.490	0.670	0.150	0.670
2020/01/31 13:28:35.6	1.490	0.650	0.150	0.710
2020/01/31 13:28:35.7	1.500	0.630	0.140	0.750
2020/01/31 13:28:35.8	1.510	0.600	0.120	0.780
2020/01/31 13:28:35.9	1.530	0.580	0.100	0.800
2020/01/31 13:28:36.0	1.540	0.550	0.090	0.820
2020/01/31 13:28:36.1	1.570	0.520	0.060	0.840
2020/01/31 13:28:36.2	1.590	0.490	0.040	0.850
2020/01/31 13:28:36.3	1.620	0.460	0.010	0.860
2020/01/31 13:28:36.4	1.640	0.430	-0.020	0.860
2020/01/31 13:28:36.5	1.680	0.400	-0.060	0.860
2020/01/31 13:28:36.6	1.710	0.370	-0.090	0.850
2020/01/31 13:28:36.7	1.750	0.340	-0.130	0.840
2020/01/31 13:28:36.8	1.780	0.310	-0.170	0.830
2020/01/31 13:28:36.9	1.820	0.280	-0.210	0.810
2020/01/31 13:28:37.0	1.860	0.250	-0.260	0.790
2020/01/31 13:28:37.1	1.900	0.220	-0.300	0.760
2020/01/31 13:28:37.2	1.940	0.200	-0.350	0.730
2020/01/31 13:28:37.3	1.980	0.170	-0.390	0.700
2020/01/31 13:28:37.4	2.020	0.140	-0.440	0.660
2020/01/31 13:28:37.5	2.060	0.110	-0.490	0.620
2020/01/31 13:28:37.6	2.110	0.090	-0.540	0.580
2020/01/31 13:28:37.7	2.150	0.060	-0.580	0.540
2020/01/31 13:28:37.8	2.190	0.040	-0.630	0.490
2020/01/31 13:28:37.9	2.230	0.020	-0.670	0.440
2020/01/31 13:28:38.0	2.280	-0.010	-0.710	0.390
2020/01/31 13:28:38.1	2.320	-0.030	-0.750	0.340
2020/01/31 13:28:38.2	2.360	-0.050	-0.790	0.290
2020/01/31 13:28:38.3	2.400	-0.060	-0.820	0.240
2020/01/31 13:28:38.4	2.450	-0.080	-0.860	0.190
2020/01/31 13:28:38.5	2.480	-0.100	-0.880	0.150
2020/01/31 13:28:38.6	2.530	-0.110	-0.900	0.100
2020/01/31 13:28:38.7	2.570	-0.120	-0.920	0.060
2020/01/31 13:28:38.8	2.600	-0.130	-0.930	0.010
2020/01/31 13:28:38.9	2.640	-0.150	-0.940	-0.020
2020/01/31 13:28:39.0	2.670	-0.160	-0.940	-0.060
2020/01/31 13:28:39.1	2.690	-0.170	-0.930	-0.090
2020/01/31 13:28:39.2	2.710	-0.180	-0.920	-0.120
2020/01/31 13:28:39.3	2.730	-0.190	-0.910	-0.150
2020/01/31 13:28:39.4	2.750	-0.200	-0.880	-0.170
2020/01/31 13:28:39.5	2.760	-0.210	-0.850	-0.190
2020/01/31 13:28:39.6	2.760	-0.220	-0.810	-0.200
2020/01/31 13:28:39.7	2.760	-0.230	-0.770	-0.210
2020/01/31 13:28:39.8	2.760	-0.240	-0.720	-0.230
2020/01/31 13:28:39.9	2.760	-0.250	-0.670	-0.240
2020/01/31 13:28:40.0	2.750	-0.260	-0.610	-0.250
2020/01/31 13:28:40.1	2.740	-0.270	-0.550	-0.260
2020/01/31 13:28:40.2	2.730	-0.280	-0.480	-0.260
2020/01/31 13:28:40.3	2.710	-0.300	-0.410	-0.270
2020/01/31 13:28:40.4	2.690	-0.310	-0.340	-0.280
2020/01/31 13:28:40.5	2.670	-0.330	-0.270	-0.290
2020/01/31 13:28:40.6	2.660	-0.340	-0.190	-0.300
2020/01/31 13:28:40.7	2.640	-0.350	-0.120	-0.310
2020/01/31 13:28:40.8	2.620	-0.370	-0.040	-0.320
2020/01/31 13:28:40.9	2.590	-0.380	0.030	-0.330
2020/01/31 13:28:41.0	2.570	-0.400	0.110	-0.340
2020/01/31 13:28:41.1	2.540	-0.410	0.180	-0.350
2020/01/31 13:28:41.2	2.520	-0.420	0.240	-0.360
2020/01/31 13:28:41.3	2.490	-0.430	0.310	-0.370
2020/01/31 13:28:41.4	2.470	-0.440	0.360	-0.380
2020/01/31 13:28:41.5	2.450	-0.450	0.410	-0.390
2020/01/31 13:28:41.6	2.440	-0.460	0.460	-0.400
2020/01/31 13:28:41.7	2.420	-0.460	0.500	-0.410
2020/01/31 13:28:41.8	2.410	-0.460	0.530	-0.420
2020/01/31 13:28:41.9	2.400	-0.460	0.550	-0.440
2020/01/31 13:28:42.0	2.390	-0.460	0.570	-0.450
2020/01/31 13:28:42.1	2.380	-0.450	0.570	-0.470
2020/01/31 13:28:42.2	2.380	-0.440	0.570	-0.480
2020/01/31 13:28:42.3	2.370	-0.430	0.560	-0.500
2020/01/31 13:28:42.4	2.370	-0.410	0.540	-0.520
2020/01/31 13:28:42.5	2.370	-0.400	0.520	-0.540
2020/01/31 13:28:42.6	2.370	-0.380	0.480	-0.560
2020/01/31 13:28:42.7	2.380	-0.350	0.440	-0.580
2020/01/31 13:28:42.8	2.380	-0.330	0.390	-0.600
2020/01/31 13:28:42.9	2.390	-0.300	0.340	-0.620
2020/01/31 13:28:43.0	2.390	-0.270	0.290	-0.650
2020/01/31 13:28:43.1	2.400	-0.240	0.230	-0.670
2020/01/31 13:28:43.2	2.400	-0.210	0.160	-0.690
2020/01/31 13:28:43.3	2.400	-0.170	0.100	-0.720
2020/01/31 13:28:43.4	2.400	-0.140	0.030	-0.740
2020/01/31 13:28:43.5	2.400	-0.110	-0.030	-0.760
2020/01/31 13:28:43.6	2.390	-0.070	-0.100	-0.780
2020/01/31 13:28:43.7	2.380	-0.040	-0.160	-0.800
2020/01/31 13:28:43.8	2.370	-0.010	-0.220	-0.810
2020/01/31 13:28:43.9	2.350	0.020	-0.280	-0.830
2020/01/31 13:28:44.0	2.330	0.050	-0.340	-0.830
2020/01/31 13:28:44.1	2.310	0.080	-0.390	-0.840
2020/01/31 13:28:44.2	2.290	0.110	-0.430	-0.840
2020/01/31 13:28:44.3	2.260	0.130	-0.470	-0.840
2020/01/31 13:28:44.4	2.230	0.150	-0.510	-0.830
2020/01/31 13:28:44.5	2.200	0.170	-0.540	-0.820
2020/01/31 13:28:44.6	2.170	0.190	-0.560	-0.800
2020/01/31 13:28:44.7	2.130	0.200	-0.580	-0.780
2020/01/31 13:28:44.8	2.100	0.220	-0.590	-0.760
2020/01/31 13:28:44.9	2.060	0.220	-0.600	-0.740
2020/01/31 13:28:45.0	2.020	0.230	-0.590	-0.710
2020/01/31 13:28:45.1	1.990	0.230	-0.590	-0.680
2020/01/31 13:28:45.2	1.950	0.230	-0.580	-0.650
2020/01/31 13:28:45.3	1.920	0.230	-0.560	-0.610
2020/01/31 13:28:45.4	1.880	0.230	-0.540	-0.580
2020/01/31 13:28:45.5	1.850	0.220	-0.520	-0.540
2020/01/31 13:28:45.6	1.820	0.210	-0.500	-0.500
2020/01/31 13:28:45.7	1.790	0.200	-0.470	-0.470
2020/01/31 13:28:45.8	1.770	0.190	-0.440	-0.430
2020/01/31 13:28:45.9	1.740	0.180	-0.410	-0.400
2020/01/31 13:28:46.0	1.720	0.160	-0.380	-0.360
2020/01/31 13:28:46.1	1.710	0.150	-0.350	-0.330
2020/01/31 13:28:46.2	1.690	0.130	-0.330	-0.300
2020/01/31 13:28:46.3	1.680	0.120	-0.300	-0.270
2020/01/31 13:28:46.4	1.670	0.100	-0.270	-0.250
2020/01/31 13:28:46.5	1.670	0.090	-0.250	-0.230
2020/01/31 13:28:46.6	1.670	0.080	-0.230	-0.200
2020/01/31 13:28:46.7	1.660	0.070	-0.210	-0.180
2020/01/31 13:28:46.8	1.660	0.060	-0.190	-0.160
2020/01/31 13:28:46.9	1.660	0.050	-0.180	-0.150
2020/01/31 13:28:47.0	1.660	0.040	-0.160	-0.130
2020/01/31 13:28:47.1	1.670	0.030	-0.150	-0.120
2020/01/31 13:28:47.2	1.670	0.030	-0.150	-0.100
2020/01/31 13:28:47.3	1.680	0.030	-0.140	-0.090
2020/01/31 13:28:47.4	1.690	0.030	-0.140	-0.080
2020/01/31 13:28:47.5	1.700	0.040	-0.140	-0.070
2020/01/31 13:28:47.6	1.700	0.040	-0.150	-0.060
2020/01/31 13:28:47.7	1.710	0.050	-0.160	-0.060
2020/01/31 13:28:47.8	1.720	0.060	-0.170	-0.050
2020/01/31 13:28:47.9	1.740	0.070	-0.180	-0.050
2020/01/31 13:28:48.0	1.760	0.080	-0.200	-0.040
2020/01/31 13:28:48.1	1.780	0.100	-0.220	-0.040
2020/01/31 13:28:48.2	1.800	0.110	-0.240	-0.040
2020/01/31 13:28:48.3	1.820	0.130	-0.270	-0.040
2020/01/31 13:28:48.4	1.840	0.150	-0.300	-0.040
2020/01/31 13:28:48.5	1.860	0.170	-0.330	-0.040
2020/01/31 13:28:48.6	1.890	0.190	-0.360	-0.050
2020/01/31 13:28:48.7	1.910	0.210	-0.390	-0.050
2020/01/31 13:28:48.8	1.930	0.230	-0.420	-0.050
2020/01/31 13:28:48.9	1.960	0.250	-0.450	-0.060
2020/01/31 13:28:49.0	1.980	0.270	-0.480	-0.060
2020/01/31 13:28:49.1	2.000	0.280	-0.510	-0.070
2020/01/31 13:28:49.2	2.020	0.300	-0.540	-0.070
2020/01/31 13:28:49.3	2.040	0.320	-0.570	-0.080
2020/01/31 13:28:49.4	2.060	0.330	-0.600	-0.080
2020/01/31 13:28:49.5	2.080	0.340	-0.630	-0.090
2020/01/31 13:28:49.6	2.100	0.350	-0.650	-0.090
2020/01/31 13:28:49.7	2.110	0.360	-0.670	-0.090
2020/01/31 13:28:49.8	2.130	0.360	-0.680	-0.100
2020/01/31 13:28:49.9	2.140	0.360	-0.690	-0.100
2020/01/31 13:28:50.0	2.150	0.360	-0.700	-0.100
2020/01/31 13:28:50.1	2.160	0.360	-0.700	-0.100
2020/01/31 13:28:50.2	2.160	0.350	-0.700	-0.100
2020/01/31 13:28:50.3	2.170	0.340	-0.690	-0.090
2020/01/31 13:28:50.4	2.170	0.330	-0.680	-0.090
2020/01/31 13:28:50.5	2.180	0.310	-0.660	-0.080
2020/01/31 13:28:50.6	2.180	0.290	-0.640	-0.070
2020/01/31 13:28:50.7	2.180	0.270	-0.610	-0.060
2020/01/31 13:28:50.8	2.180	0.250	-0.580	-0.050
2020/01/31 13:28:50.9	2.170	0.220	-0.540	-0.040
2020/01/31 13:28:51.0	2.160	0.190	-0.500	-0.030
2020/01/31 13:28:51.1	2.160	0.160	-0.460	-0.020
2020/01/31 13:28:51.2	2.140	0.130	-0.410	-0.010
2020/01/31 13:28:51.3	2.130	0.090	-0.360	0.000
2020/01/31 13:28:51.4	2.120	0.050	-0.310	0.010
2020/01/31 13:28:51.5	2.110	0.020	-0.260	0.020
2020/01/31 13:28:51.6	2.090	-0.020	-0.200	0.030
2020/01/31 13:28:51.7	2.080	-0.070	-0.150	0.040
2020/01/31 13:28:51.8	2.060	-0.110	-0.090	0.050
2020/01/31 13:28:51.9	2.050	-0.150	-0.040	0.050
2020/01/31 13:28:52.0	2.030	-0.190	0.020	0.050
2020/01/31 13:28:52.1	2.010	-0.230	0.070	0.050
2020/01/31 13:28:52.2	2.000	-0.270	0.120	0.050
2020/01/31 13:28:52.3	1.980	-0.310	0.170	0.050
2020/01/31 13:28:52.4	1.960	-0.340	0.220	0.050
2020/01/31 13:28:52.5	1.940	-0.380	0.270	0.050
2020/01/31 13:28:52.6	1.920	-0.410	0.310	0.040
2020/01/31 13:28:52.7	1.900	-0.440	0.350	0.030
2020/01/31 13:28:52.8	1.880	-0.470	0.390	0.030
2020/01/31 13:28:52.9	1.860	-0.490	0.420	0.020
2020/01/31 13:28:53.0	1.840	-0.510	0.450	0.010
2020/01/31 13:28:53.1	1.810	-0.530	0.480	0.010
2020/01/31 13:28:53.2	1.780	-0.540	0.510	0.010
2020/01/31 13:28:53.3	1.760	-0.550	0.530	0.010
2020/01/31 13:28:53.4	1.730	-0.550	0.550	0.010
2020/01/31 13:28:53.5	1.690	-0.550	0.560	0.010
2020/01/31 13:28:53.6	1.670	-0.550	0.570	0.020
2020/01/31 13:28:53.7	1.640	-0.550	0.570	0.030
2020/01/31 13:28:53.8	1.600	-0.540	0.570	0.040
2020/01/31 13:28:53.9	1.560	-0.520	0.570	0.050
2020/01/31 13:28:54.0	1.530	-0.500	0.560	0.070
2020/01/31 13:28:54.1	1.490	-0.480	0.550	0.080
2020/01/31 13:28:54.2	1.450	-0.460	0.540	0.100
2020/01/31 13:28:54.3	1.410	-0.430	0.510	0.120
2020/01/31 13:28:54.4	1.370	-0.410	0.490	0.140
2020/01/31 13:28:54.5	1.330	-0.370	0.460	0.150
2020/01/31 13:28:54.6	1.280	-0.340	0.420	0.170
2020/01/31 13:28:54.7	1.250	-0.310	0.380	0.190
2020/01/31 13:28:54.8	1.220	-0.270	0.330	0.200
2020/01/31 13:28:54.9	1.190	-0.240	0.280	0.210
2020/01/31 13:28:55.0	1.160	-0.200	0.220	0.220
2020/01/31 13:28:55.1	1.140	-0.170	0.160	0.230
2020/01/31 13:28:55.2	1.110	-0.130	0.100	0.230
2020/01/31 13:28:55.3	1.100	-0.100	0.030	0.230
2020/01/31 13:28:55.4	1.080	-0.060	-0.040	0.220
2020/01/31 13:28:55.5	1.070	-0.030	-0.110	0.220
2020/01/31 13:28:55.6	1.050	0.000	-0.180	0.200
2020/01/31 13:28:55.7	1.050	0.030	-0.260	0.190
2020/01/31 13:28:55.8	1.050	0.060	-0.340	0.160
2020/01/31 13:28:55.9	1.050	0.080	-0.410	0.140
2020/01/31 13:28:56.0	1.060	0.110	-0.490	0.110
2020/01/31 13:28:56.1	1.070	0.130	-0.570	0.070
2020/01/31 13:28:56.2	1.090	0.140	-0.650	0.040
2020/01/31 13:28:56.3	1.100	0.160	-0.720	-0.010
2020/01/31 13:28:56.4	1.130	0.170	-0.790	-0.050
2020/01/31 13:28:56.5	1.150	0.190	-0.860	-0.100
2020/01/31 13:28:56.6	1.170	0.200	-0.920	-0.150
2020/01/31 13:28:56.7	1.200	0.200	-0.980	-0.200
2020/01/31 13:28:56.8	1.230	0.210	-1.040	-0.250
2020/01/31 13:28:56.9	1.260	0.210	-1.080	-0.300
2020/01/31 13:28:57.0	1.300	0.210	-1.120	-0.350
2020/01/31 13:28:57.1	1.330	0.210	-1.160	-0.400
2020/01/31 13:28:57.2	1.360	0.200	-1.180	-0.450
2020/01/31 13:28:57.3	1.390	0.200	-1.200	-0.490
2020/01/31 13:28:57.4	1.430	0.190	-1.200	-0.530
2020/01/31 13:28:57.5	1.460	0.180	-1.200	-0.570
2020/01/31 13:28:57.6	1.490	0.170	-1.190	-0.610
2020/01/31 13:28:57.7	1.510	0.160	-1.170	-0.630
2020/01/31 13:28:57.8	1.540	0.150	-1.140	-0.660
2020/01/31 13:28:57.9	1.560	0.130	-1.110	-0.680
2020/01/31 13:28:58.0	1.580	0.120	-1.060	-0.690
2020/01/31 13:28:58.1	1.600	0.110	-1.010	-0.700
2020/01/31 13:28:58.2	1.610	0.090	-0.950	-0.710
2020/01/31 13:28:58.3	1.620	0.080	-0.880	-0.710
2020/01/31 13:28:58.4	1.630	0.060	-0.810	-0.700
2020/01/31 13:28:58.5	1.640	0.050	-0.730	-0.690
2020/01/31 13:28:58.6	1.640	0.040	-0.650	-0.670
2020/01/31 13:28:58.7	1.640	0.030	-0.570	-0.650
2020/01/31 13:28:58.8	1.640	0.020	-0.490	-0.620
2020/01/31 13:28:58.9	1.630	0.010	-0.400	-0.590
2020/01/31 13:28:59.0	1.630	-0.000	-0.310	-0.560
2020/01/31 13:28:59.1	1.620	-0.010	-0.230	-0.520
2020/01/31 13:28:59.2	1.610	-0.020	-0.150	-0.480
2020/01/31 13:28:59.3	1.600	-0.020	-0.070	-0.440
2020/01/31 13:28:59.4	1.590	-0.020	-0.000	-0.400
2020/01/31 13:28:59.5	1.580	-0.020	0.060	-0.350
2020/01/31 13:28:59.6	1.580	-0.020	0.120	-0.300
2020/01/31 13:28:59.7	1.570	-0.020	0.170	-0.260
2020/01/31 13:28:59.8	1.560	-0.010	0.220	-0.210
2020/01/31 13:28:59.9	1.560	-0.010	0.260	-0.170
2020/01/31 13:29:00.0	1.550	0.000	0.290	-0.120
2020/01/31 13:29:00.1	1.550	0.010	0.310	-0.080
2020/01/31 13:29:00.2	1.540	0.020	0.330	-0.040
2020/01/31 13:29:00.3	1.540	0.040	0.340	-0.000
2020/01/31 13:29:00.4	1.540	0.050	0.340	0.030
2020/01/31 13:29:00.5	1.540	0.070	0.330	0.070
2020/01/31 13:29:00.6	1.540	0.080	0.310	0.110
2020/01/31 13:29:00.7	1.540	0.100	0.300	0.140
2020/01/31 13:29:00.8	1.540	0.120	0.270	0.170
2020/01/31 13:29:00.9	1.540	0.130	0.240	0.200
2020/01/31 13:29:01.0	1.540	0.150	0.210	0.220
2020/01/31 13:29:01.1	1.540	0.170	0.170	0.250
2020/01/31 13:29:01.2	1.540	0.180	0.130	0.270
2020/01/31 13:29:01.3	1.540	0.200	0.090	0.290
2020/01/31 13:29:01.4	1.540	0.220	0.050	0.320
2020/01/31 13:29:01.5	1.540	0.230	0.000	0.330
2020/01/31 13:29:01.6	1.550	0.240	-0.040	0.360
2020/01/31 13:29:01.7	1.550	0.250	-0.090	0.370
2020/01/31 13:29:01.8	1.550	0.260	-0.130	0.380
2020/01/31 13:29:01.9	1.550	0.270	-0.170	0.400
2020/01/31 13:29:02.0	1.550	0.270	-0.210	0.410
2020/01/31 13:29:02.1	1.550	0.280	-0.250	0.420
2020/01/31 13:29:02.2	1.550	0.280	-0.290	0.420
2020/01/31 13:29:02.3	1.550	0.280	-0.330	0.430
2020/01/31 13:29:02.4	1.550	0.280	-0.360	0.440
2020/01/31 13:29:02.5	1.550	0.270	-0.390	0.440
2020/01/31 13:29:02.6	1.540	0.260	-0.420	0.440
2020/01/31 13:29:02.7	1.540	0.250	-0.450	0.450
2020/01/31 13:29:02.8	1.550	0.240	-0.470	0.450
2020/01/31 13:29:02.9	1.550	0.230	-0.490	0.450
2020/01/31 13:29:03.0	1.550	0.210	-0.510	0.450
2020/01/31 13:29:03.1	1.550	0.190	-0.520	0.450
2020/01/31 13:29:03.2	1.550	0.170	-0.530	0.440
2020/01/31 13:29:03.3	1.560	0.150	-0.530	0.440
2020/01/31 13:29:03.4	1.560	0.130	-0.530	0.430
2020/01/31 13:29:03.5	1.570	0.100	-0.530	0.420
2020/01/31 13:29:03.6	1.570	0.080	-0.530	0.410
2020/01/31 13:29:03.7	1.580	0.050	-0.520	0.390
2020/01/31 13:29:03.8	1.590	0.020	-0.510	0.380
2020/01/31 13:29:03.9	1.600	-0.010	-0.500	0.360
2020/01/31 13:29:04.0	1.620	-0.030	-0.480	0.330
2020/01/31 13:29:04.1	1.630	-0.060	-0.460	0.310
2020/01/31 13:29:04.2	1.650	-0.090	-0.440	0.280
2020/01/31 13:29:04.3	1.670	-0.110	-0.420	0.250
2020/01/31 13:29:04.4	1.680	-0.140	-0.400	0.220
2020/01/31 13:29:04.5	1.700	-0.160	-0.370	0.190
2020/01/31 13:29:04.6	1.730	-0.190	-0.340	0.160
2020/01/31 13:29:04.7	1.750	-0.210	-0.310	0.130
2020/01/31 13:29:04.8	1.770	-0.230	-0.280	0.110
2020/01/31 13:29:04.9	1.780	-0.240	-0.240	0.080
2020/01/31 13:29:05.0	1.800	-0.260	-0.200	0.060
2020/01/31 13:29:05.1	1.810	-0.270	-0.160	0.030
2020/01/31 13:29:05.2	1.820	-0.290	-0.120	0.020
2020/01/31 13:29:05.3	1.830	-0.300	-0.080	-0.000
2020/01/31 13:29:05.4	1.830	-0.300	-0.040	-0.010
2020/01/31 13:29:05.5	1.840	-0.310	0.000	-0.030
2020/01/31 13:29:05.6	1.830	-0.320	0.040	-0.040
2020/01/31 13:29:05.7	1.830	-0.320	0.090	-0.040
2020/01/31 13:29:05.8	1.830	-0.320	0.130	-0.050
2020/01/31 13:29:05.9	1.830	-0.320	0.170	-0.060
2020/01/31 13:29:06.0	1.820	-0.320	0.200	-0.070
2020/01/31 13:29:06.1	1.820	-0.320	0.240	-0.070
2020/01/31 13:29:06.2	1.810	-0.320	0.270	-0.080
2020/01/31 13:29:06.3	1.800	-0.310	0.290	-0.080
2020/01/31 13:29:06.4	1.790	-0.310	0.320	-0.090
2020/01/31 13:29:06.5	1.780	-0.300	0.330	-0.100
2020/01/31 13:29:06.6	1.790	-0.300	0.340	-0.100
2020/01/31 13:29:06.7	1.780	-0.290	0.350	-0.110
2020/01/31 13:29:06.8	1.770	-0.280	0.350	-0.120
2020/01/31 13:29:06.9	1.760	-0.280	0.350	-0.130
2020/01/31 13:29:07.0	1.750	-0.270	0.340	-0.140
2020/01/31 13:29:07.1	1.740	-0.260	0.320	-0.150
2020/01/31 13:29:07.2	1.730	-0.250	0.300	-0.160
2020/01/31 13:29:07.3	1.720	-0.240	0.270	-0.170
2020/01/31 13:29:07.4	1.710	-0.230	0.240	-0.180
2020/01/31 13:29:07.5	1.700	-0.220	0.200	-0.190
2020/01/31 13:29:07.6	1.700	-0.210	0.160	-0.210
2020/01/31 13:29:07.7	1.690	-0.200	0.110	-0.220
2020/01/31 13:29:07.8	1.680	-0.190	0.060	-0.240
2020/01/31 13:29:07.9	1.670	-0.180	0.010	-0.250
2020/01/31 13:29:08.0	1.670	-0.160	-0.050	-0.260
2020/01/31 13:29:08.1	1.660	-0.150	-0.110	-0.280
2020/01/31 13:29:08.2	1.660	-0.140	-0.170	-0.290
2020/01/31 13:29:08.3	1.650	-0.120	-0.240	-0.310
2020/01/31 13:29:08.4	1.650	-0.110	-0.300	-0.330
2020/01/31 13:29:08.5	1.650	-0.100	-0.360	-0.340
2020/01/31 13:29:08.6	1.640	-0.080	-0.420	-0.360
2020/01/31 13:29:08.7	1.650	-0.060	-0.490	-0.380
2020/01/31 13:29:08.8	1.650	-0.050	-0.550	-0.400
2020/01/31 13:29:08.9	1.660	-0.030	-0.610	-0.420
2020/01/31 13:29:09.0	1.670	-0.010	-0.660	-0.440
2020/01/31 13:29:09.1	1.680	0.000	-0.720	-0.460
2020/01/31 13:29:09.2	1.690	0.020	-0.770	-0.480
2020/01/31 13:29:09.3	1.710	0.040	-0.810	-0.510
2020/01/31 13:29:09.4	1.730	0.060	-0.860	-0.530
2020/01/31 13:29:09.5	1.750	0.080	-0.890	-0.560
2020/01/31 13:29:09.6	1.770	0.100	-0.930	-0.580
2020/01/31 13:29:09.7	1.790	0.120	-0.960	-0.610
2020/01/31 13:29:09.8	1.820	0.140	-0.980	-0.630
2020/01/31 13:29:09.9	1.840	0.160	-1.000	-0.640
2020/01/31 13:29:10.0	1.870	0.180	-1.000	-0.660
2020/01/31 13:29:10.1	1.890	0.200	-1.010	-0.670
2020/01/31 13:29:10.2	1.920	0.220	-1.000	-0.680
2020/01/31 13:29:10.3	1.940	0.230	-0.990	-0.690
2020/01/31 13:29:10.4	1.970	0.250	-0.970	-0.690
2020/01/31 13:29:10.5	1.990	0.270	-0.950	-0.690
2020/01/31 13:29:10.6	2.010	0.280	-0.910	-0.690
2020/01/31 13:29:10.7	2.030	0.290	-0.880	-0.680
2020/01/31 13:29:10.8	2.050	0.300	-0.830	-0.670
2020/01/31 13:29:10.9	2.070	0.310	-0.780	-0.660
2020/01/31 13:29:11.0	2.080	0.320	-0.730	-0.650
2020/01/31 13:29:11.1	2.100	0.330	-0.670	-0.630
2020/01/31 13:29:11.2	2.110	0.330	-0.610	-0.620
2020/01/31 13:29:11.3	2.120	0.330	-0.550	-0.600
2020/01/31 13:29:11.4	2.130	0.330	-0.490	-0.580
2020/01/31 13:29:11.5	2.140	0.330	-0.420	-0.550
2020/01/31 13:29:11.6	2.150	0.320	-0.350	-0.520
2020/01/31 13:29:11.7	2.150	0.320	-0.290	-0.500
2020/01/31 13:29:11.8	2.150	0.310	-0.220	-0.470
2020/01/31 13:29:11.9	2.150	0.290	-0.160	-0.440
2020/01/31 13:29:12.0	2.150	0.280	-0.100	-0.410
2020/01/31 13:29:12.1	2.150	0.260	-0.030	-0.390
2020/01/31 13:29:12.2	2.140	0.240	0.020	-0.360
2020/01/31 13:29:12.3	2.130	0.220	0.080	-0.320
2020/01/31 13:29:12.4	2.110	0.200	0.130	-0.290
2020/01/31 13:29:12.5	2.100	0.180	0.180	-0.260
2020/01/31 13:29:12.6	2.080	0.150	0.220	-0.230
2020/01/31 13:29:12.7	2.050	0.130	0.260	-0.200
2020/01/31 13:29:12.8	2.030	0.100	0.290	-0.160
2020/01/31 13:29:12.9	2.000	0.070	0.330	-0.130
2020/01/31 13:29:13.0	1.970	0.040	0.350	-0.100
2020/01/31 13:29:13.1	1.930	0.010	0.370	-0.070
2020/01/31 13:29:13.2	1.900	-0.020	0.390	-0.040
2020/01/31 13:29:13.3	1.860	-0.040	0.410	-0.000
2020/01/31 13:29:13.4	1.830	-0.070	0.410	0.020
2020/01/31 13:29:13.5	1.790	-0.100	0.420	0.050
2020/01/31 13:29:13.6	1.750	-0.130	0.420	0.080
2020/01/31 13:29:13.7	1.720	-0.150	0.410	0.100
2020/01/31 13:29:13.8	1.680	-0.170	0.400	0.120
2020/01/31 13:29:13.9	1.640	-0.190	0.390	0.140
2020/01/31 13:29:14.0	1.610	-0.210	0.370	0.150
2020/01/31 13:29:14.1	1.580	-0.230	0.340	0.160
2020/01/31 13:29:14.2	1.550	-0.240	0.320	0.170
2020/01/31 13:29:14.3	1.520	-0.260	0.290	0.170
2020/01/31 13:29:14.4	1.490	-0.270	0.250	0.170
2020/01/31 13:29:14.5	1.470	-0.270	0.220	0.170
2020/01/31 13:29:14.6	1.430	-0.280	0.180	0.160
2020/01/31 13:29:14.7	1.420	-0.280	0.130	0.150
2020/01/31 13:29:14.8	1.400	-0.280	0.090	0.140
2020/01/31 13:29:14.9	1.390	-0.280	0.050	0.120
2020/01/31 13:29:15.0	1.380	-0.270	0.000	0.110
2020/01/31 13:29:15.1	1.370	-0.260	-0.040	0.090
2020/01/31 13:29:15.2	1.360	-0.260	-0.080	0.070
2020/01/31 13:29:15.3	1.350	-0.240	-0.130	0.060
2020/01/31 13:29:15.4	1.340	-0.230	-0.170	0.040
2020/01/31 13:29:15.5	1.330	-0.220	-0.210	0.030
2020/01/31 13:29:15.6	1.310	-0.200	-0.240	0.020
2020/01/31 13:29:15.7	1.300	-0.190	-0.280	0.010
2020/01/31 13:29:15.8	1.290	-0.170	-0.310	-0.000
2020/01/31 13:29:15.9	1.270	-0.160	-0.340	-0.010
2020/01/31 13:29:16.0	1.260	-0.140	-0.360	-0.010
2020/01/31 13:29:16.1	1.250	-0.130	-0.380	-0.010
2020/01/31 13:29:16.2	1.230	-0.110	-0.400	-0.010
2020/01/31 13:29:16.3	1.210	-0.090	-0.410	-0.010
2020/01/31 13:29:16.4	1.200	-0.080	-0.420	-0.010
2020/01/31 13:29:16.5	1.180	-0.070	-0.430	-0.010
2020/01/31 13:29:16.6	1.160	-0.050	-0.430	0.000
2020/01/31 13:29:16.7	1.150	-0.040	-0.440	0.010
2020/01/31 13:29:16.8	1.130	-0.030	-0.440	0.010
2020/01/31 13:29:16.9	1.110	-0.020	-0.430	0.020
2020/01/31 13:29:17.0	1.090	-0.000	-0.430	0.030
2020/01/31 13:29:17.1	1.080	0.010	-0.430	0.040
2020/01/31 13:29:17.2	1.060	0.010	-0.420	0.050
2020/01/31 13:29:17.3	1.040	0.020	-0.410	0.050
2020/01/31 13:29:17.4	1.030	0.030	-0.410	0.060
2020/01/31 13:29:17.5	1.020	0.040	-0.410	0.070
2020/01/31 13:29:17.6	1.010	0.050	-0.410	0.080
2020/01/31 13:29:17.7	1.000	0.060	-0.410	0.080
2020/01/31 13:29:17.8	0.990	0.060	-0.410	0.080
2020/01/31 13:29:17.9	0.990	0.070	-0.410	0.080
2020/01/31 13:29:18.0	0.990	0.080	-0.420	0.090
2020/01/31 13:29:18.1	0.990	0.090	-0.430	0.080
2020/01/31 13:29:18.2	0.990	0.100	-0.440	0.080
2020/01/31 13:29:18.3	1.000	0.100	-0.450	0.080
2020/01/31 13:29:18.4	1.000	0.110	-0.460	0.070
2020/01/31 13:29:18.5	1.010	0.120	-0.480	0.070
2020/01/31 13:29:18.6	1.020	0.130	-0.500	0.060
2020/01/31 13:29:18.7	1.030	0.130	-0.520	0.050
2020/01/31 13:29:18.8	1.050	0.140	-0.540	0.040
2020/01/31 13:29:18.9	1.070	0.150	-0.560	0.020
2020/01/31 13:29:19.0	1.090	0.150	-0.580	0.010
2020/01/31 13:29:19.1	1.110	0.150	-0.610	-0.010
2020/01/31 13:29:19.2	1.130	0.160	-0.630	-0.030
2020/01/31 13:29:19.3	1.160	0.160	-0.650	-0.050
2020/01/31 13:29:19.4	1.190	0.160	-0.670	-0.080
2020/01/31 13:29:19.5	1.220	0.150	-0.690	-0.100
2020/01/31 13:29:19.6	1.250	0.150	-0.710	-0.130
2020/01/31 13:29:19.7	1.280	0.150	-0.720	-0.160
2020/01/31 13:29:19.8	1.320	0.140	-0.740	-0.190
2020/01/31 13:29:19.9	1.360	0.130	-0.750	-0.220
2020/01/31 13:29:20.0	1.390	0.120	-0.750	-0.250
2020/01/31 13:29:20.1	1.430	0.110	-0.760	-0.280
2020/01/31 13:29:20.2	1.470	0.100	-0.760	-0.310
2020/01/31 13:29:20.3	1.510	0.090	-0.750	-0.340
2020/01/31 13:29:20.4	1.550	0.070	-0.740	-0.380
2020/01/31 13:29:20.5	1.580	0.060	-0.730	-0.400
2020/01/31 13:29:20.6	1.620	0.040	-0.710	-0.430
2020/01/31 13:29:20.7	1.650	0.020	-0.680	-0.460
2020/01/31 13:29:20.8	1.690	0.000	-0.650	-0.480
2020/01/31 13:29:20.9	1.720	-0.010	-0.610	-0.500
2020/01/31 13:29:21.0	1.740	-0.030	-0.570	-0.510
2020/01/31 13:29:21.1	1.770	-0.050	-0.520	-0.520
2020/01/31 13:29:21.2	1.790	-0.070	-0.460	-0.530
2020/01/31 13:29:21.3	1.800	-0.090	-0.400	-0.530
2020/01/31 13:29:21.4	1.810	-0.110	-0.340	-0.520
2020/01/31 13:29:21.5	1.810	-0.130	-0.260	-0.510
2020/01/31 13:29:21.6	1.830	-0.150	-0.190	-0.490
2020/01/31 13:29:21.7	1.820	-0.170	-0.110	-0.470
2020/01/31 13:29:21.8	1.820	-0.190	-0.030	-0.440
2020/01/31 13:29:21.9	1.800	-0.200	0.050	-0.410
2020/01/31 13:29:22.0	1.790	-0.220	0.140	-0.380
2020/01/31 13:29:22.1	1.770	-0.230	0.220	-0.340
2020/01/31 13:29:22.2	1.740	-0.250	0.300	-0.300
2020/01/31 13:29:22.3	1.710	-0.260	0.380	-0.260
2020/01/31 13:29:22.4	1.680	-0.270	0.450	-0.210
2020/01/31 13:29:22.5	1.650	-0.270	0.520	-0.160
2020/01/31 13:29:22.6	1.620	-0.280	0.580	-0.110
2020/01/31 13:29:22.7	1.580	-0.280	0.630	-0.060
2020/01/31 13:29:22.8	1.540	-0.280	0.680	-0.020
2020/01/31 13:29:22.9	1.510	-0.280	0.720	0.030
2020/01/31 13:29:23.0	1.470	-0.280	0.750	0.080
2020/01/31 13:29:23.1	1.430	-0.270	0.780	0.130
2020/01/31 13:29:23.2	1.390	-0.260	0.790	0.170
2020/01/31 13:29:23.3	1.360	-0.250	0.800	0.210
2020/01/31 13:29:23.4	1.320	-0.230	0.790	0.250
2020/01/31 13:29:23.5	1.280	-0.220	0.780	0.290
2020/01/31 13:29:23.6	1.250	-0.200	0.750	0.320
2020/01/31 13:29:23.7	1.220	-0.180	0.720	0.360
2020/01/31 13:29:23.8	1.190	-0.150	0.680	0.380
2020/01/31 13:29:23.9	1.150	-0.130	0.630	0.410
2020/01/31 13:29:24.0	1.120	-0.100	0.570	0.430
2020/01/31 13:29:24.1	1.090	-0.080	0.510	0.450
2020/01/31 13:29:24.2	1.060	-0.050	0.440	0.470
2020/01/31 13:29:24.3	1.030	-0.020	0.360	0.480
2020/01/31 13:29:24.4	1.000	0.010	0.280	0.490
2020/01/31 13:29:24.5	0.970	0.030	0.200	0.500
2020/01/31 13:29:24.6	0.930	0.060	0.110	0.510
2020/01/31 13:29:24.7	0.900	0.090	0.020	0.510
2020/01/31 13:29:24.8	0.870	0.110	-0.060	0.510
2020/01/31 13:29:24.9	0.850	0.140	-0.150	0.500
2020/01/31 13:29:25.0	0.820	0.160	-0.240	0.500
2020/01/31 13:29:25.1	0.800	0.180	-0.330	0.480
2020/01/31 13:29:25.2	0.770	0.200	-0.410	0.470
2020/01/31 13:29:25.3	0.750	0.220	-0.490	0.450
2020/01/31 13:29:25.4	0.730	0.230	-0.560	0.440
2020/01/31 13:29:25.5	0.710	0.250	-0.630	0.410
2020/01/31 13:29:25.6	0.700	0.260	-0.690	0.390
2020/01/31 13:29:25.7	0.690	0.270	-0.750	0.360
2020/01/31 13:29:25.8	0.670	0.270	-0.800	0.340
2020/01/31 13:29:25.9	0.660	0.270	-0.850	0.310
2020/01/31 13:29:26.0	0.650	0.280	-0.880	0.270
2020/01/31 13:29:26.1	0.640	0.270	-0.920	0.240
2020/01/31 13:29:26.2	0.630	0.270	-0.940	0.210
2020/01/31 13:29:26.3	0.630	0.260	-0.950	0.170
2020/01/31 13:29:26.4	0.620	0.260	-0.960	0.130
2020/01/31 13:29:26.5	0.620	0.250	-0.970	0.100
2020/01/31 13:29:26.6	0.620	0.240	-0.960	0.060
2020/01/31 13:29:26.7	0.620	0.230	-0.950	0.020
2020/01/31 13:29:26.8	0.630	0.210	-0.940	-0.020
2020/01/31 13:29:26.9	0.640	0.200	-0.920	-0.050
2020/01/31 13:29:27.0	0.640	0.180	-0.890	-0.090
2020/01/31 13:29:27.1	0.660	0.170	-0.860	-0.120
2020/01/31 13:29:27.2	0.670	0.150	-0.820	-0.150
2020/01/31 13:29:27.3	0.680	0.140	-0.780	-0.190
2020/01/31 13:29:27.4	0.700	0.120	-0.740	-0.220
2020/01/31 13:29:27.5	0.710	0.110	-0.690	-0.250
2020/01/31 13:29:27.6	0.720	0.090	-0.650	-0.270
2020/01/31 13:29:27.7	0.740	0.080	-0.600	-0.300
2020/01/31 13:29:27.8	0.750	0.060	-0.550	-0.320
2020/01/31 13:29:27.9	0.770	0.050	-0.500	-0.350
2020/01/31 13:29:28.0	0.790	0.040	-0.450	-0.370
2020/01/31 13:29:28.1	0.820	0.020	-0.400	-0.390
2020/01/31 13:29:28.2	0.840	0.010	-0.350	-0.410
2020/01/31 13:29:28.3	0.860	-0.000	-0.310	-0.430
2020/01/31 13:29:28.4	0.880	-0.020	-0.260	-0.450
2020/01/31 13:29:28.5	0.910	-0.030	-0.220	-0.470
2020/01/31 13:29:28.6	0.930	-0.040	-0.190	-0.490
2020/01/31 13:29:28.7	0.950	-0.050	-0.150	-0.510
2020/01/31 13:29:28.8	0.980	-0.060	-0.120	-0.530
2020/01/31 13:29:28.9	1.010	-0.070	-0.090	-0.550
2020/01/31 13:29:29.0	1.030	-0.080	-0.070	-0.570
2020/01/31 13:29:29.1	1.060	-0.090	-0.050	-0.580
2020/01/31 13:29:29.2	1.080	-0.100	-0.040	-0.600
2020/01/31 13:29:29.3	1.100	-0.110	-0.030	-0.610
2020/01/31 13:29:29.4	1.120	-0.110	-0.020	-0.620
2020/01/31 13:29:29.5	1.140	-0.120	-0.010	-0.640
2020/01/31 13:29:29.6	1.170	-0.130	-0.020	-0.640
2020/01/31 13:29:29.7	1.190	-0.140	-0.020	-0.650
2020/01/31 13:29:29.8	1.210	-0.140	-0.020	-0.650
2020/01/31 13:29:29.9	1.220	-0.150	-0.030	-0.660
2020/01/31 13:29:30.0	1.230	-0.160	-0.040	-0.660
2020/01/31 13:29:30.1	1.250	-0.160	-0.040	-0.660
2020/01/31 13:29:30.2	1.260	-0.170	-0.050	-0.650
2020/01/31 13:29:30.3	1.270	-0.180	-0.060	-0.650
2020/01/31 13:29:30.4	1.280	-0.180	-0.080	-0.650
2020/01/31 13:29:30.5	1.280	-0.190	-0.090	-0.640
2020/01/31 13:29:30.6	1.300	-0.190	-0.100	-0.630
2020/01/31 13:29:30.7	1.310	-0.190	-0.110	-0.620
2020/01/31 13:29:30.8	1.320	-0.200	-0.120	-0.620
2020/01/31 13:29:30.9	1.320	-0.200	-0.130	-0.610
2020/01/31 13:29:31.0	1.330	-0.200	-0.140	-0.610
2020/01/31 13:29:31.1	1.330	-0.200	-0.160	-0.600
2020/01/31 13:29:31.2	1.330	-0.200	-0.170	-0.590
2020/01/31 13:29:31.3	1.340	-0.200	-0.180	-0.590
2020/01/31 13:29:31.4	1.340	-0.200	-0.190	-0.580
2020/01/31 13:29:31.5	1.350	-0.200	-0.200	-0.570
2020/01/31 13:29:31.6	1.370	-0.200	-0.210	-0.570
2020/01/31 13:29:31.7	1.370	-0.190	-0.230	-0.560
2020/01/31 13:29:31.8	1.380	-0.190	-0.240	-0.550
2020/01/31 13:29:31.9	1.380	-0.180	-0.250	-0.540
2020/01/31 13:29:32.0	1.390	-0.170	-0.260	-0.540
2020/01/31 13:29:32.1	1.390	-0.160	-0.270	-0.530
2020/01/31 13:29:32.2	1.400	-0.150	-0.270	-0.510
2020/01/31 13:29:32.3	1.400	-0.150	-0.280	-0.500
2020/01/31 13:29:32.4	1.400	-0.140	-0.290	-0.480
2020/01/31 13:29:32.5	1.400	-0.130	-0.300	-0.470
2020/01/31 13:29:32.6	1.400	-0.120	-0.300	-0.440
2020/01/31 13:29:32.7	1.390	-0.100	-0.310	-0.420
2020/01/31 13:29:32.8	1.390	-0.090	-0.310	-0.390
2020/01/31 13:29:32.9	1.370	-0.080	-0.310	-0.360
2020/01/31 13:29:33.0	1.360	-0.080	-0.310	-0.330
2020/01/31 13:29:33.1	1.340	-0.070	-0.300	-0.300
2020/01/31 13:29:33.2	1.320	-0.060	-0.300	-0.270
2020/01/31 13:29:33.3	1.300	-0.050	-0.290	-0.230
2020/01/31 13:29:33.4	1.280	-0.050	-0.280	-0.200
2020/01/31 13:29:33.5	1.250	-0.040	-0.270	-0.160
2020/01/31 13:29:33.6	1.210	-0.040	-0.260	-0.120
2020/01/31 13:29:33.7	1.170	-0.030	-0.250	-0.080
2020/01/31 13:29:33.8	1.140	-0.030	-0.230	-0.040
2020/01/31 13:29:33.9	1.100	-0.030	-0.220	-0.000
2020/01/31 13:29:34.0	1.070	-0.030	-0.200	0.030
2020/01/31 13:29:34.1	1.030	-0.030	-0.180	0.070
2020/01/31 13:29:34.2	0.990	-0.030	-0.160	0.110
2020/01/31 13:29:34.3	0.950	-0.040	-0.140	0.140
2020/01/31 13:29:34.4	0.900	-0.040	-0.120	0.180
2020/01/31 13:29:34.5	0.860	-0.050	-0.100	0.210
2020/01/31 13:29:34.6	0.830	-0.050	-0.080	0.250
2020/01/31 13:29:34.7	0.790	-0.050	-0.060	0.280
2020/01/31 13:29:34.8	0.750	-0.060	-0.040	0.300
2020/01/31 13:29:34.9	0.710	-0.060	-0.020	0.330
2020/01/31 13:29:35.0	0.670	-0.060	-0.000	0.360
2020/01/31 13:29:35.1	0.630	-0.070	0.010	0.380
2020/01/31 13:29:35.2	0.600	-0.070	0.030	0.410
2020/01/31 13:29:35.3	0.570	-0.070	0.040	0.430
2020/01/31 13:29:35.4	0.530	-0.060	0.050	0.450
2020/01/31 13:29:35.5	0.510	-0.060	0.060	0.470
2020/01/31 13:29:35.6	0.480	-0.060	0.060	0.480
2020/01/31 13:29:35.7	0.460	-0.050	0.060	0.500
2020/01/31 13:29:35.8	0.440	-0.040	0.060	0.510
2020/01/31 13:29:35.9	0.430	-0.030	0.060	0.520
2020/01/31 13:29:36.0	0.410	-0.020	0.060	0.530
2020/01/31 13:29:36.1	0.400	-0.010	0.050	0.540
2020/01/31 13:29:36.2	0.390	-0.000	0.040	0.540
2020/01/31 13:29:36.3	0.390	0.010	0.030	0.540
2020/01/31 13:29:36.4	0.380	0.020	0.010	0.540
2020/01/31 13:29:36.5	0.380	0.040	-0.000	0.530
2020/01/31 13:29:36.6	0.390	0.050	-0.020	0.530
2020/01/31 13:29:36.7	0.390	0.060	-0.030	0.510
2020/01/31 13:29:36.8	0.390	0.080	-0.050	0.500
2020/01/31 13:29:36.9	0.400	0.090	-0.070	0.480
2020/01/31 13:29:37.0	0.410	0.100	-0.090	0.460
2020/01/31 13:29:37.1	0.420	0.110	-0.110	0.440
2020/01/31 13:29:37.2	0.430	0.120	-0.130	0.410
2020/01/31 13:29:37.3	0.440	0.120	-0.160	0.390
2020/01/31 13:29:37.4	0.450	0.130	-0.180	0.360
2020/01/31 13:29:37.5	0.460	0.130	-0.200	0.330
2020/01/31 13:29:37.6	0.470	0.140	-0.220	0.300
2020/01/31 13:29:37.7	0.480	0.140	-0.240	0.270
2020/01/31 13:29:37.8	0.490	0.130	-0.260	0.240
2020/01/31 13:29:37.9	0.500	0.130	-0.270	0.200
2020/01/31 13:29:38.0	0.500	0.130	-0.290	0.170
2020/01/31 13:29:38.1	0.510	0.120	-0.310	0.140
2020/01/31 13:29:38.2	0.520	0.110	-0.320	0.100
2020/01/31 13:29:38.3	0.530	0.100	-0.330	0.070
2020/01/31 13:29:38.4	0.540	0.090	-0.340	0.030
2020/01/31 13:29:38.5	0.550	0.080	-0.350	-0.010
2020/01/31 13:29:38.6	0.550	0.070	-0.360	-0.040
2020/01/31 13:29:38.7	0.560	0.050	-0.370	-0.070
2020/01/31 13:29:38.8	0.570	0.040	-0.380	-0.110
2020/01/31 13:29:38.9	0.580	0.030	-0.380	-0.140
2020/01/31 13:29:39.0	0.600	0.020	-0.390	-0.180
2020/01/31 13:29:39.1	0.610	0.000	-0.400	-0.210
2020/01/31 13:29:39.2	0.630	-0.010	-0.400	-0.240
2020/01/31 13:29:39.3	0.650	-0.020	-0.410	-0.280
2020/01/31 13:29:39.4	0.670	-0.020	-0.430	-0.310
2020/01/31 13:29:39.5	0.700	-0.030	-0.440	-0.350
2020/01/31 13:29:39.6	0.730	-0.040	-0.460	-0.380
2020/01/31 13:29:39.7	0.760	-0.040	-0.480	-0.420
2020/01/31 13:29:39.8	0.790	-0.040	-0.500	-0.460
2020/01/31 13:29:39.9	0.830	-0.040	-0.520	-0.490
2020/01/31 13:29:40.0	0.870	-0.030	-0.550	-0.530
2020/01/31 13:29:40.1	0.900	-0.030	-0.570	-0.570
2020/01/31 13:29:40.2	0.940	-0.020	-0.600	-0.600
2020/01/31 13:29:40.3	0.980	-0.010	-0.630	-0.630
2020/01/31 13:29:40.4	1.010	-0.000	-0.660	-0.670
2020/01/31 13:29:40.5	1.050	0.010	-0.680	-0.690
2020/01/31 13:29:40.6	1.070	0.020	-0.710	-0.720
2020/01/31 13:29:40.7	1.090	0.030	-0.730	-0.740
2020/01/31 13:29:40.8	1.120	0.040	-0.740	-0.760
2020/01/31 13:29:40.9	1.140	0.050	-0.750	-0.770
2020/01/31 13:29:41.0	1.150	0.060	-0.760	-0.780
2020/01/31 13:29:41.1	1.160	0.070	-0.760	-0.780
2020/01/31 13:29:41.2	1.170	0.080	-0.750	-0.780
2020/01/31 13:29:41.3	1.170	0.080	-0.740	-0.770
2020/01/31 13:29:41.4	1.170	0.090	-0.730	-0.760
2020/01/31 13:29:41.5	1.170	0.090	-0.700	-0.740
2020/01/31 13:29:41.6	1.150	0.100	-0.680	-0.720
2020/01/31 13:29:41.7	1.140	0.100	-0.640	-0.690
2020/01/31 13:29:41.8	1.120	0.100	-0.600	-0.660
2020/01/31 13:29:41.9	1.100	0.100	-0.550	-0.620
2020/01/31 13:29:42.0	1.080	0.090	-0.500	-0.580
2020/01/31 13:29:42.1	1.050	0.090	-0.440	-0.540
2020/01/31 13:29:42.2	1.020	0.080	-0.380	-0.490
2020/01/31 13:29:42.3	0.990	0.070	-0.320	-0.440
2020/01/31 13:29:42.4	0.950	0.060	-0.250	-0.390
2020/01/31 13:29:42.5	0.920	0.050	-0.190	-0.340
2020/01/31 13:29:42.6	0.880	0.040	-0.120	-0.280
2020/01/31 13:29:42.7	0.850	0.030	-0.050	-0.230
2020/01/31 13:29:42.8	0.820	0.010	0.010	-0.170
2020/01/31 13:29:42.9	0.780	-0.000	0.070	-0.120
2020/01/31 13:29:43.0	0.750	-0.020	0.130	-0.080
2020/01/31 13:29:43.1	0.720	-0.030	0.180	-0.030
2020/01/31 13:29:43.2	0.690	-0.050	0.230	0.010
2020/01/31 13:29:43.3	0.660	-0.060	0.270	0.050
2020/01/31 13:29:43.4	0.640	-0.070	0.310	0.090
2020/01/31 13:29:43.5	0.610	-0.080	0.340	0.120
2020/01/31 13:29:43.6	0.590	-0.090	0.370	0.140
2020/01/31 13:29:43.7	0.570	-0.100	0.390	0.160
2020/01/31 13:29:43.8	0.560	-0.110	0.400	0.180
2020/01/31 13:29:43.9	0.540	-0.110	0.410	0.190
2020/01/31 13:29:44.0	0.540	-0.110	0.410	0.200
2020/01/31 13:29:44.1	0.530	-0.110	0.400	0.210
2020/01/31 13:29:44.2	0.530	-0.110	0.390	0.210
2020/01/31 13:29:44.3	0.520	-0.100	0.370	0.210
2020/01/31 13:29:44.4	0.530	-0.090	0.350	0.200
2020/01/31 13:29:44.5	0.530	-0.080	0.320	0.200
2020/01/31 13:29:44.6	0.550	-0.070	0.290	0.190
2020/01/31 13:29:44.7	0.560	-0.060	0.260	0.180
2020/01/31 13:29:44.8	0.560	-0.050	0.220	0.170
2020/01/31 13:29:44.9	0.570	-0.040	0.180	0.150
2020/01/31 13:29:45.0	0.580	-0.020	0.140	0.140
2020/01/31 13:29:45.1	0.590	-0.010	0.100	0.120
2020/01/31 13:29:45.2	0.600	0.010	0.050	0.100
2020/01/31 13:29:45.3	0.600	0.020	0.010	0.080
2020/01/31 13:29:45.4	0.610	0.030	-0.030	0.060
2020/01/31 13:29:45.5	0.610	0.040	-0.070	0.040
2020/01/31 13:29:45.6	0.610	0.050	-0.100	0.020
2020/01/31 13:29:45.7	0.610	0.050	-0.140	-0.000
2020/01/31 13:29:45.8	0.620	0.050	-0.170	-0.020
2020/01/31 13:29:45.9	0.620	0.060	-0.200	-0.050
2020/01/31 13:29:46.0	0.620	0.050	-0.230	-0.070
2020/01/31 13:29:46.1	0.620	0.050	-0.250	-0.100
2020/01/31 13:29:46.2	0.620	0.040	-0.280	-0.120
2020/01/31 13:29:46.3	0.630	0.030	-0.290	-0.150
2020/01/31 13:29:46.4	0.630	0.020	-0.310	-0.170
2020/01/31 13:29:46.5	0.630	0.010	-0.320	-0.190
2020/01/31 13:29:46.6	0.640	-0.010	-0.330	-0.220
2020/01/31 13:29:46.7	0.640	-0.030	-0.340	-0.240
2020/01/31 13:29:46.8	0.640	-0.050	-0.340	-0.250
2020/01/31 13:29:46.9	0.650	-0.070	-0.340	-0.270
2020/01/31 13:29:47.0	0.650	-0.090	-0.340	-0.290
2020/01/31 13:29:47.1	0.660	-0.110	-0.340	-0.300
2020/01/31 13:29:47.2	0.660	-0.130	-0.330	-0.310
2020/01/31 13:29:47.3	0.670	-0.160	-0.330	-0.330
2020/01/31 13:29:47.4	0.680	-0.180	-0.320	-0.340
2020/01/31 13:29:47.5	0.700	-0.200	-0.320	-0.350
2020/01/31 13:29:47.6	0.720	-0.220	-0.310	-0.360
2020/01/31 13:29:47.7	0.740	-0.240	-0.310	-0.370
2020/01/31 13:29:47.8	0.760	-0.250	-0.310	-0.380
2020/01/31 13:29:47.9	0.770	-0.270	-0.310	-0.390
2020/01/31 13:29:48.0	0.790	-0.280	-0.310	-0.400
2020/01/31 13:29:48.1	0.820	-0.290	-0.310	-0.410
2020/01/31 13:29:48.2	0.840	-0.290	-0.320	-0.420
2020/01/31 13:29:48.3	0.860	-0.290	-0.330	-0.440
2020/01/31 13:29:48.4	0.890	-0.290	-0.340	-0.450
2020/01/31 13:29:48.5	0.910	-0.280	-0.350	-0.460
2020/01/31 13:29:48.6	0.950	-0.270	-0.360	-0.470
2020/01/31 13:29:48.7	0.970	-0.260	-0.380	-0.480
2020/01/31 13:29:48.8	0.990	-0.240	-0.390	-0.490
2020/01/31 13:29:48.9	1.020	-0.220	-0.400	-0.500
2020/01/31 13:29:49.0	1.040	-0.200	-0.420	-0.500
2020/01/31 13:29:49.1	1.050	-0.170	-0.430	-0.500
2020/01/31 13:29:49.2	1.070	-0.140	-0.440	-0.500
2020/01/31 13:29:49.3	1.080	-0.100	-0.450	-0.490
2020/01/31 13:29:49.4	1.100	-0.070	-0.450	-0.480
2020/01/31 13:29:49.5	1.100	-0.030	-0.460	-0.460
2020/01/31 13:29:49.6	1.100	0.010	-0.460	-0.430
2020/01/31 13:29:49.7	1.100	0.040	-0.460	-0.410
2020/01/31 13:29:49.8	1.100	0.080	-0.450	-0.380
2020/01/31 13:29:49.9	1.090	0.120	-0.440	-0.350
2020/01/31 13:29:50.0	1.080	0.150	-0.430	-0.310
2020/01/31 13:29:50.1	1.070	0.190	-0.420	-0.270
2020/01/31 13:29:50.2	1.050	0.220	-0.400	-0.230
2020/01/31 13:29:50.3	1.030	0.250	-0.380	-0.190
2020/01/31 13:29:50.4	1.010	0.280	-0.360	-0.140
2020/01/31 13:29:50.5	0.980	0.300	-0.340	-0.090
2020/01/31 13:29:50.6	0.960	0.320	-0.320	-0.040
2020/01/31 13:29:50.7	0.930	0.340	-0.290	0.000
2020/01/31 13:29:50.8	0.910	0.350	-0.270	0.050
2020/01/31 13:29:50.9	0.880	0.360	-0.240	0.090
2020/01/31 13:29:51.0	0.850	0.360	-0.210	0.140
2020/01/31 13:29:51.1	0.820	0.360	-0.190	0.180
2020/01/31 13:29:51.2	0.790	0.360	-0.160	0.220
2020/01/31 13:29:51.3	0.760	0.350	-0.140	0.260
2020/01/31 13:29:51.4	0.740	0.340	-0.120	0.290
2020/01/31 13:29:51.5	0.720	0.330	-0.100	0.320
2020/01/31 13:29:51.6	0.710	0.310	-0.080	0.350
2020/01/31 13:29:51.7	0.690	0.290	-0.070	0.380
2020/01/31 13:29:51.8	0.680	0.260	-0.060	0.400
2020/01/31 13:29:51.9	0.670	0.240	-0.050	0.420
2020/01/31 13:29:52.0	0.660	0.210	-0.050	0.430
2020/01/31 13:29:52.1	0.660	0.180	-0.050	0.440
2020/01/31 13:29:52.2	0.660	0.150	-0.050	0.440
2020/01/31 13:29:52.3	0.660	0.120	-0.060	0.440
2020/01/31 13:29:52.4	0.670	0.090	-0.070	0.440
2020/01/31 13:29:52.5	0.680	0.060	-0.090	0.430
2020/01/31 13:29:52.6	0.700	0.030	-0.110	0.420
2020/01/31 13:29:52.7	0.720	0.010	-0.130	0.400
2020/01/31 13:29:52.8	0.740	-0.020	-0.160	0.380
2020/01/31 13:29:52.9	0.760	-0.040	-0.190	0.360
2020/01/31 13:29:53.0	0.780	-0.060	-0.220	0.330
2020/01/31 13:29:53.1	0.810	-0.080	-0.250	0.300
2020/01/31 13:29:53.2	0.830	-0.100	-0.280	0.270
2020/01/31 13:29:53.3	0.860	-0.110	-0.320	0.230
2020/01/31 13:29:53.4	0.890	-0.130	-0.350	0.200
2020/01/31 13:29:53.5	0.920	-0.140	-0.380	0.160
2020/01/31 13:29:53.6	0.940	-0.140	-0.410	0.120
2020/01/31 13:29:53.7	0.970	-0.150	-0.440	0.080
2020/01/31 13:29:53.8	1.000	-0.150	-0.470	0.040
2020/01/31 13:29:53.9	1.030	-0.150	-0.490	-0.010
2020/01/31 13:29:54.0	1.060	-0.140	-0.510	-0.050
2020/01/31 13:29:54.1	1.090	-0.140	-0.530	-0.090
2020/01/31 13:29:54.2	1.130	-0.130	-0.550	-0.140
2020/01/31 13:29:54.3	1.160	-0.120	-0.560	-0.180
2020/01/31 13:29:54.4	1.200	-0.110	-0.570	-0.230
2020/01/31 13:29:54.5	1.230	-0.100	-0.580	-0.270
2020/01/31 13:29:54.6	1.270	-0.090	-0.590	-0.320
2020/01/31 13:29:54.7	1.310	-0.080	-0.590	-0.360
2020/01/31 13:29:54.8	1.350	-0.070	-0.590	-0.410
2020/01/31 13:29:54.9	1.380	-0.060	-0.580	-0.450
2020/01/31 13:29:55.0	1.420	-0.040	-0.570	-0.490
2020/01/31 13:29:55.1	1.450	-0.030	-0.560	-0.530
2020/01/31 13:29:55.2	1.480	-0.020	-0.550	-0.560
2020/01/31 13:29:55.3	1.520	-0.010	-0.540	-0.600
2020/01/31 13:29:55.4	1.550	-0.000	-0.520	-0.630
2020/01/31 13:29:55.5	1.580	0.010	-0.500	-0.660
2020/01/31 13:29:55.6	1.590	0.010	-0.490	-0.680
2020/01/31 13:29:55.7	1.610	0.020	-0.460	-0.700
2020/01/31 13:29:55.8	1.640	0.020	-0.440	-0.720
2020/01/31 13:29:55.9	1.660	0.030	-0.410	-0.740
2020/01/31 13:29:56.0	1.670	0.030	-0.390	-0.760
2020/01/31 13:29:56.1	1.690	0.020	-0.360	-0.770
2020/01/31 13:29:56.2	1.700	0.020	-0.330	-0.780
2020/01/31 13:29:56.3	1.710	0.020	-0.300	-0.790
2020/01/31 13:29:56.4	1.720	0.010	-0.260	-0.790
2020/01/31 13:29:56.5	1.730	0.000	-0.230	-0.790
2020/01/31 13:29:56.6	1.740	-0.010	-0.200	-0.800
2020/01/31 13:29:56.7	1.740	-0.020	-0.170	-0.800
2020/01/31 13:29:56.8	1.740	-0.030	-0.130	-0.800
2020/01/31 13:29:56.9	1.740	-0.050	-0.100	-0.790
2020/01/31 13:29:57.0	1.740	-0.060	-0.070	-0.790
2020/01/31 13:29:57.1	1.740	-0.070	-0.040	-0.780
2020/01/31 13:29:57.2	1.740	-0.090	-0.010	-0.770
2020/01/31 13:29:57.3	1.740	-0.100	0.020	-0.760
2020/01/31 13:29:57.4	1.740	-0.110	0.060	-0.750
2020/01/31 13:29:57.5	1.740	-0.130	0.090	-0.740
2020/01/31 13:29:57.6	1.730	-0.140	0.110	-0.720
2020/01/31 13:29:57.7	1.730	-0.150	0.140	-0.710
2020/01/31 13:29:57.8	1.730	-0.160	0.170	-0.690
2020/01/31 13:29:57.9	1.730	-0.170	0.190	-0.680
2020/01/31 13:29:58.0	1.730	-0.170	0.220	-0.660
2020/01/31 13:29:58.1	1.740	-0.180	0.240	-0.650
2020/01/31 13:29:58.2	1.740	-0.180	0.260	-0.630
2020/01/31 13:29:58.3	1.740	-0.180	0.270	-0.610
2020/01/31 13:29:58.4	1.750	-0.180	0.290	-0.590
2020/01/31 13:29:58.5	1.750	-0.180	0.300	-0.570
2020/01/31 13:29:58.6	1.750	-0.170	0.310	-0.550
2020/01/31 13:29:58.7	1.750	-0.160	0.320	-0.520
2020/01/31 13:29:58.8	1.750	-0.150	0.330	-0.500
2020/01/31 13:29:58.9	1.750	-0.140	0.340	-0.470
2020/01/31 13:29:59.0	1.750	-0.130	0.340	-0.440
2020/01/31 13:29:59.1	1.750	-0.110	0.340	-0.400
2020/01/31 13:29:59.2	1.750	-0.090	0.340	-0.370
2020/01/31 13:29:59.3	1.740	-0.080	0.340	-0.330
2020/01/31 13:29:59.4	1.740	-0.060	0.340	-0.290
2020/01/31 13:29:59.5	1.730	-0.040	0.340	-0.250
2020/01/31 13:29:59.6	1.730	-0.020	0.330	-0.200
2020/01/31 13:29:59.7	1.720	-0.010	0.320	-0.160
2020/01/31 13:29:59.8	1.700	0.010	0.320	-0.110
2020/01/31 13:29:59.9	1.690	0.030	0.310	-0.070
2020/01/31 13:30:00.0	1.680	0.050	0.300	-0.020
2020/01/31 13:30:00.1	1.660	0.060	0.280	0.020
2020/01/31 13:30:00.2	1.640	0.080	0.270	0.070
2020/01/31 13:30:00.3	1.630	0.090	0.250	0.110
2020/01/31 13:30:00.4	1.610	0.100	0.230	0.150
2020/01/31 13:30:00.5	1.590	0.110	0.210	0.190
2020/01/31 13:30:00.6	1.580	0.120	0.180	0.230
2020/01/31 13:30:00.7	1.560	0.130	0.150	0.270
2020/01/31 13:30:00.8	1.550	0.140	0.110	0.300
2020/01/31 13:30:00.9	1.530	0.150	0.080	0.330
2020/01/31 13:30:01.0	1.510	0.150	0.040	0.350
2020/01/31 13:30:01.1	1.500	0.160	-0.010	0.370
2020/01/31 13:30:01.2	1.490	0.160	-0.050	0.390
2020/01/31 13:30:01.3	1.470	0.170	-0.100	0.400
2020/01/31 13:30:01.4	1.460	0.170	-0.160	0.410
2020/01/31 13:30:01.5	1.450	0.170	-0.220	0.410
2020/01/31 13:30:01.6	1.430	0.170	-0.280	0.420
2020/01/31 13:30:01.7	1.430	0.180	-0.340	0.410
2020/01/31 13:30:01.8	1.420	0.180	-0.400	0.400
2020/01/31 13:30:01.9	1.420	0.180	-0.470	0.390
2020/01/31 13:30:02.0	1.420	0.180	-0.540	0.370
2020/01/31 13:30:02.1	1.420	0.180	-0.600	0.350
2020/01/31 13:30:02.2	1.430	0.190	-0.670	0.320
2020/01/31 13:30:02.3	1.430	0.190	-0.740	0.290
2020/01/31 13:30:02.4	1.440	0.190	-0.810	0.260
2020/01/31 13:30:02.5	1.440	0.190	-0.870	0.230
2020/01/31 13:30:02.6	1.460	0.200	-0.930	0.190
2020/01/31 13:30:02.7	1.470	0.200	-0.990	0.150
2020/01/31 13:30:02.8	1.480	0.210	-1.050	0.110
2020/01/31 13:30:02.9	1.490	0.210	-1.100	0.070
2020/01/31 13:30:03.0	1.500	0.220	-1.140	0.030
2020/01/31 13:30:03.1	1.510	0.220	-1.180	-0.020
2020/01/31 13:30:03.2	1.530	0.230	-1.220	-0.060
2020/01/31 13:30:03.3	1.540	0.240	-1.250	-0.110
2020/01/31 13:30:03.4	1.560	0.240	-1.270	-0.160
2020/01/31 13:30:03.5	1.570	0.250	-1.290	-0.210
2020/01/31 13:30:03.6	1.590	0.250	-1.290	-0.260
2020/01/31 13:30:03.7	1.610	0.260	-1.300	-0.310
2020/01/31 13:30:03.8	1.630	0.260	-1.290	-0.360
2020/01/31 13:30:03.9	1.650	0.260	-1.280	-0.410
2020/01/31 13:30:04.0	1.670	0.260	-1.260	-0.460
2020/01/31 13:30:04.1	1.690	0.260	-1.230	-0.520
2020/01/31 13:30:04.2	1.720	0.260	-1.200	-0.570
2020/01/31 13:30:04.3	1.740	0.260	-1.160	-0.620
2020/01/31 13:30:04.4	1.770	0.250	-1.110	-0.670
2020/01/31 13:30:04.5	1.800	0.240	-1.060	-0.720
2020/01/31 13:30:04.6	1.840	0.230	-1.020	-0.770
2020/01/31 13:30:04.7	1.870	0.220	-0.960	-0.810
2020/01/31 13:30:04.8	1.910	0.210	-0.890	-0.860
2020/01/31 13:30:04.9	1.940	0.190	-0.830	-0.900
2020/01/31 13:30:05.0	1.980	0.170	-0.750	-0.940
2020/01/31 13:30:05.1	2.020	0.150	-0.680	-0.970
2020/01/31 13:30:05.2	2.060	0.130	-0.610	-1.010
2020/01/31 13:30:05.3	2.100	0.100	-0.530	-1.040
2020/01/31 13:30:05.4	2.140	0.080	-0.450	-1.070
2020/01/31 13:30:05.5	2.180	0.050	-0.380	-1.100
2020/01/31 13:30:05.6	2.240	0.010	-0.290	-1.130
2020/01/31 13:30:05.7	2.280	-0.020	-0.220	-1.150
2020/01/31 13:30:05.8	2.330	-0.060	-0.140	-1.170
2020/01/31 13:30:05.9	2.370	-0.090	-0.070	-1.190
2020/01/31 13:30:06.0	2.410	-0.130	-0.000	-1.210
2020/01/31 13:30:06.1	2.450	-0.170	0.070	-1.230
2020/01/31 13:30:06.2	2.480	-0.210	0.130	-1.240
2020/01/31 13:30:06.3	2.520	-0.250	0.190	-1.250
2020/01/31 13:30:06.4	2.550	-0.300	0.250	-1.260
2020/01/31 13:30:06.5	2.580	-0.340	0.300	-1.270
2020/01/31 13:30:06.6	2.620	-0.380	0.350	-1.270
2020/01/31 13:30:06.7	2.640	-0.420	0.390	-1.270
2020/01/31 13:30:06.8	2.670	-0.460	0.430	-1.270
2020/01/31 13:30:06.9	2.680	-0.500	0.460	-1.270
2020/01/31 13:30:07.0	2.700	-0.540	0.490	-1.260
2020/01/31 13:30:07.1	2.710	-0.580	0.520	-1.250
2020/01/31 13:30:07.2	2.730	-0.610	0.530	-1.240
2020/01/31 13:30:07.3	2.740	-0.640	0.550	-1.220
2020/01/31 13:30:07.4	2.740	-0.670	0.560	-1.200
2020/01/31 13:30:07.5	2.750	-0.700	0.560	-1.180
2020/01/31 13:30:07.6	2.740	-0.720	0.560	-1.150
2020/01/31 13:30:07.7	2.740	-0.740	0.560	-1.130
2020/01/31 13:30:07.8	2.740	-0.750	0.550	-1.100
2020/01/31 13:30:07.9	2.740	-0.760	0.540	-1.070
2020/01/31 13:30:08.0	2.730	-0.770	0.530	-1.030
2020/01/31 13:30:08.1	2.730	-0.770	0.510	-1.000
2020/01/31 13:30:08.2	2.720	-0.760	0.490	-0.960
2020/01/31 13:30:08.3	2.720	-0.750	0.470	-0.920
2020/01/31 13:30:08.4	2.710	-0.740	0.450	-0.870
2020/01/31 13:30:08.5	2.700	-0.720	0.430	-0.830
2020/01/31 13:30:08.6	2.690	-0.700	0.400	-0.780
2020/01/31 13:30:08.7	2.680	-0.680	0.380	-0.730
2020/01/31 13:30:08.8	2.660	-0.650	0.350	-0.680
2020/01/31 13:30:08.9	2.650	-0.610	0.320	-0.620
2020/01/31 13:30:09.0	2.630	-0.580	0.300	-0.570
2020/01/31 13:30:09.1	2.610	-0.530	0.270	-0.510
2020/01/31 13:30:09.2	2.580	-0.490	0.240	-0.450
2020/01/31 13:30:09.3	2.560	-0.440	0.220	-0.380
2020/01/31 13:30:09.4	2.530	-0.390	0.200	-0.320
2020/01/31 13:30:09.5	2.500	-0.340	0.170	-0.250
2020/01/31 13:30:09.6	2.460	-0.280	0.150	-0.170
2020/01/31 13:30:09.7	2.430	-0.220	0.130	-0.110
2020/01/31 13:30:09.8	2.400	-0.170	0.110	-0.040
2020/01/31 13:30:09.9	2.370	-0.110	0.090	0.030
2020/01/31 13:30:10.0	2.330	-0.050	0.080	0.100
2020/01/31 13:30:10.1	2.300	0.010	0.060	0.170
2020/01/31 13:30:10.2	2.260	0.070	0.050	0.240
2020/01/31 13:30:10.3	2.230	0.130	0.040	0.310
2020/01/31 13:30:10.4	2.190	0.190	0.020	0.380
2020/01/31 13:30:10.5	2.150	0.240	0.010	0.440
2020/01/31 13:30:10.6	2.120	0.290	-0.010	0.510
2020/01/31 13:30:10.7	2.080	0.340	-0.020	0.560
2020/01/31 13:30:10.8	2.040	0.390	-0.030	0.620
2020/01/31 13:30:10.9	2.000	0.430	-0.050	0.670
2020/01/31 13:30:11.0	1.970	0.470	-0.060	0.720
2020/01/31 13:30:11.1	1.930	0.510	-0.070	0.760
2020/01/31 13:30:11.2	1.890	0.540	-0.090	0.800
2020/01/31 13:30:11.3	1.860	0.560	-0.100	0.830
2020/01/31 13:30:11.4	1.830	0.590	-0.120	0.850
2020/01/31 13:30:11.5	1.800	0.610	-0.140	0.870
2020/01/31 13:30:11.6	1.760	0.620	-0.170	0.880
2020/01/31 13:30:11.7	1.740	0.630	-0.190	0.890
2020/01/31 13:30:11.8	1.710	0.640	-0.210	0.890
2020/01/31 13:30:11.9	1.690	0.640	-0.240	0.880
2020/01/31 13:30:12.0	1.670	0.640	-0.270	0.860
2020/01/31 13:30:12.1	1.650	0.630	-0.300	0.840
2020/01/31 13:30:12.2	1.630	0.620	-0.330	0.820
2020/01/31 13:30:12.3	1.620	0.610	-0.370	0.790
2020/01/31 13:30:12.4	1.610	0.600	-0.410	0.750
2020/01/31 13:30:12.5	1.610	0.580	-0.450	0.710
2020/01/31 13:30:12.6	1.610	0.570	-0.490	0.660
2020/01/31 13:30:12.7	1.610	0.550	-0.530	0.600
2020/01/31 13:30:12.8	1.620	0.530	-0.580	0.550
2020/01/31 13:30:12.9	1.630	0.510	-0.620	0.490
2020/01/31 13:30:13.0	1.640	0.490	-0.670	0.420
2020/01/31 13:30:13.1	1.660	0.470	-0.720	0.350
2020/01/31 13:30:13.2	1.680	0.450	-0.770	0.280
2020/01/31 13:30:13.3	1.710	0.430	-0.820	0.200
2020/01/31 13:30:13.4	1.740	0.410	-0.870	0.120
2020/01/31 13:30:13.5	1.780	0.400	-0.920	0.040
2020/01/31 13:30:13.6	1.810	0.380	-0.970	-0.050
2020/01/31 13:30:13.7	1.860	0.370	-1.010	-0.140
2020/01/31 13:30:13.8	1.900	0.350	-1.060	-0.230
2020/01/31 13:30:13.9	1.940	0.340	-1.100	-0.320
2020/01/31 13:30:14.0	1.990	0.330	-1.140	-0.410
2020/01/31 13:30:14.1	2.040	0.320	-1.170	-0.500
2020/01/31 13:30:14.2	2.100	0.310	-1.200	-0.590
2020/01/31 13:30:14.3	2.150	0.300	-1.230	-0.690
2020/01/31 13:30:14.4	2.210	0.300	-1.260	-0.780
2020/01/31 13:30:14.5	2.260	0.290	-1.270	-0.870
2020/01/31 13:30:14.6	2.330	0.280	-1.290	-0.960
2020/01/31 13:30:14.7	2.390	0.280	-1.290	-1.050
2020/01/31 13:30:14.8	2.450	0.270	-1.300	-1.140
2020/01/31 13:30:14.9	2.510	0.260	-1.290	-1.220
2020/01/31 13:30:15.0	2.570	0.260	-1.280	-1.300
2020/01/31 13:30:15.1	2.630	0.250	-1.260	-1.380
2020/01/31 13:30:15.2	2.690	0.240	-1.240	-1.460
2020/01/31 13:30:15.3	2.740	0.230	-1.210	-1.530
2020/01/31 13:30:15.4	2.800	0.210	-1.170	-1.600
2020/01/31 13:30:15.5	2.850	0.200	-1.130	-1.660
2020/01/31 13:30:15.6	2.910	0.180	-1.080	-1.710
2020/01/31 13:30:15.7	2.960	0.170	-1.030	-1.770
2020/01/31 13:30:15.8	3.010	0.140	-0.970	-1.810
2020/01/31 13:30:15.9	3.050	0.120	-0.900	-1.860
2020/01/31 13:30:16.0	3.100	0.100	-0.830	-1.890
2020/01/31 13:30:16.1	3.140	0.070	-0.760	-1.920
2020/01/31 13:30:16.2	3.180	0.040	-0.680	-1.940
2020/01/31 13:30:16.3	3.220	0.010	-0.600	-1.960
2020/01/31 13:30:16.4	3.250	-0.020	-0.510	-1.970
2020/01/31 13:30:16.5	3.280	-0.050	-0.420	-1.980
2020/01/31 13:30:16.6	3.310	-0.090	-0.340	-1.970
2020/01/31 13:30:16.7	3.330	-0.120	-0.250	-1.970
2020/01/31 13:30:16.8	3.360	-0.160	-0.160	-1.950
2020/01/31 13:30:16.9	3.380	-0.200	-0.070	-1.940
2020/01/31 13:30:17.0	3.390	-0.240	0.010	-1.910
2020/01/31 13:30:17.1	3.410	-0.280	0.100	-1.880
2020/01/31 13:30:17.2	3.420	-0.320	0.180	-1.850
2020/01/31 13:30:17.3	3.430	-0.360	0.270	-1.820
2020/01/31 13:30:17.4	3.440	-0.400	0.340	-1.780
2020/01/31 13:30:17.5	3.440	-0.440	0.420	-1.740
2020/01/31 13:30:17.6	3.450	-0.470	0.490	-1.690
2020/01/31 13:30:17.7	3.450	-0.510	0.550	-1.650
2020/01/31 13:30:17.8	3.440	-0.540	0.620	-1.600
2020/01/31 13:30:17.9	3.440	-0.580	0.670	-1.550
2020/01/31 13:30:18.0	3.430	-0.610	0.720	-1.500
2020/01/31 13:30:18.1	3.420	-0.630	0.770	-1.450
2020/01/31 13:30:18.2	3.410	-0.660	0.810	-1.400
2020/01/31 13:30:18.3	3.400	-0.680	0.850	-1.340
2020/01/31 13:30:18.4	3.380	-0.700	0.870	-1.280
2020/01/31 13:30:18.5	3.360	-0.710	0.900	-1.230
2020/01/31 13:30:18.6	3.350	-0.720	0.910	-1.160
2020/01/31 13:30:18.7	3.330	-0.730	0.920	-1.100
2020/01/31 13:30:18.8	3.310	-0.730	0.920	-1.040
2020/01/31 13:30:18.9	3.280	-0.730	0.920	-0.970
2020/01/31 13:30:19.0	3.250	-0.720	0.920	-0.900
2020/01/31 13:30:19.1	3.220	-0.720	0.900	-0.830
2020/01/31 13:30:19.2	3.190	-0.700	0.880	-0.760
2020/01/31 13:30:19.3	3.160	-0.690	0.860	-0.680
2020/01/31 13:30:19.4	3.120	-0.670	0.830	-0.610
2020/01/31 13:30:19.5	3.080	-0.650	0.800	-0.530
2020/01/31 13:30:19.6	3.030	-0.620	0.760	-0.440
2020/01/31 13:30:19.7	2.980	-0.590	0.720	-0.360
2020/01/31 13:30:19.8	2.930	-0.560	0.680	-0.280
2020/01/31 13:30:19.9	2.880	-0.530	0.630	-0.200
2020/01/31 13:30:20.0	2.830	-0.500	0.580	-0.120
2020/01/31 13:30:20.1	2.780	-0.460	0.530	-0.040
2020/01/31 13:30:20.2	2.730	-0.430	0.480	0.040
2020/01/31 13:30:20.3	2.670	-0.390	0.420	0.110
2020/01/31 13:30:20.4	2.620	-0.350	0.370	0.180
2020/01/31 13:30:20.5	2.570	-0.310	0.310	0.250
2020/01/31 13:30:20.6	2.520	-0.270	0.250	0.310
2020/01/31 13:30:20.7	2.470	-0.230	0.200	0.370
2020/01/31 13:30:20.8	2.420	-0.190	0.140	0.430
2020/01/31 13:30:20.9	2.380	-0.150	0.090	0.480
2020/01/31 13:30:21.0	2.330	-0.110	0.030	0.530
2020/01/31 13:30:21.1	2.290	-0.070	-0.020	0.570
2020/01/31 13:30:21.2	2.250	-0.040	-0.070	0.620
2020/01/31 13:30:21.3	2.210	0.000	-0.110	0.650
2020/01/31 13:30:21.4	2.180	0.040	-0.160	0.690
2020/01/31 13:30:21.5	2.150	0.070	-0.200	0.720
2020/01/31 13:30:21.6	2.120	0.110	-0.240	0.750
2020/01/31 13:30:21.7	2.100	0.140	-0.280	0.780
2020/01/31 13:30:21.8	2.070	0.170	-0.310	0.800
2020/01/31 13:30:21.9	2.050	0.200	-0.340	0.820
2020/01/31 13:30:22.0	2.030	0.230	-0.370	0.830
2020/01/31 13:30:22.1	2.010	0.260	-0.400	0.840
2020/01/31 13:30:22.2	2.000	0.280	-0.420	0.850
2020/01/31 13:30:22.3	1.990	0.310	-0.440	0.850
2020/01/31 13:30:22.4	1.980	0.330	-0.460	0.850
2020/01/31 13:30:22.5	1.980	0.350	-0.480	0.850
2020/01/31 13:30:22.6	1.960	0.370	-0.490	0.840
2020/01/31 13:30:22.7	1.960	0.380	-0.510	0.820
2020/01/31 13:30:22.8	1.970	0.400	-0.530	0.810
2020/01/31 13:30:22.9	1.980	0.410	-0.540	0.780
2020/01/31 13:30:23.0	2.000	0.420	-0.560	0.760
2020/01/31 13:30:23.1	2.010	0.430	-0.580	0.730
2020/01/31 13:30:23.2	2.040	0.440	-0.600	0.700
2020/01/31 13:30:23.3	2.060	0.450	-0.610	0.670
2020/01/31 13:30:23.4	2.090	0.460	-0.640	0.630
2020/01/31 13:30:23.5	2.120	0.470	-0.660	0.600
2020/01/31 13:30:23.6	2.160	0.470	-0.680	0.560
2020/01/31 13:30:23.7	2.190	0.480	-0.700	0.520
2020/01/31 13:30:23.8	2.230	0.480	-0.730	0.480
2020/01/31 13:30:23.9	2.260	0.480	-0.750	0.440
2020/01/31 13:30:24.0	2.300	0.490	-0.770	0.400
2020/01/31 13:30:24.1	2.330	0.490	-0.800	0.360
2020/01/31 13:30:24.2	2.370	0.490	-0.820	0.330
2020/01/31 13:30:24.3	2.400	0.480	-0.830	0.290
2020/01/31 13:30:24.4	2.440	0.480	-0.850	0.250
2020/01/31 13:30:24.5	2.470	0.480	-0.860	0.220
2020/01/31 13:30:24.6	2.500	0.470	-0.880	0.180
2020/01/31 13:30:24.7	2.530	0.460	-0.880	0.150
2020/01/31 13:30:24.8	2.560	0.460	-0.890	0.120
2020/01/31 13:30:24.9	2.580	0.450	-0.890	0.080
2020/01/31 13:30:25.0	2.610	0.430	-0.880	0.060
2020/01/31 13:30:25.1	2.630	0.420	-0.870	0.030
2020/01/31 13:30:25.2	2.650	0.410	-0.860	0.000
2020/01/31 13:30:25.3	2.670	0.390	-0.840	-0.020
2020/01/31 13:30:25.4	2.680	0.370	-0.820	-0.040
2020/01/31 13:30:25.5	2.700	0.350	-0.800	-0.060
2020/01/31 13:30:25.6	2.710	0.330	-0.770	-0.070
2020/01/31 13:30:25.7	2.720	0.310	-0.740	-0.090
2020/01/31 13:30:25.8	2.730	0.280	-0.710	-0.100
2020/01/31 13:30:25.9	2.740	0.260	-0.670	-0.110
2020/01/31 13:30:26.0	2.750	0.240	-0.640	-0.120
2020/01/31 13:30:26.1	2.760	0.210	-0.600	-0.120
2020/01/31 13:30:26.2	2.770	0.180	-0.570	-0.130
2020/01/31 13:30:26.3	2.780	0.160	-0.530	-0.130
2020/01/31 13:30:26.4	2.790	0.130	-0.500	-0.140
2020/01/31 13:30:26.5	2.800	0.110	-0.470	-0.140
2020/01/31 13:30:26.6	2.820	0.080	-0.450	-0.140
2020/01/31 13:30:26.7	2.830	0.060	-0.430	-0.150
2020/01/31 13:30:26.8	2.850	0.030	-0.410	-0.150
2020/01/31 13:30:26.9	2.860	0.010	-0.400	-0.160
2020/01/31 13:30:27.0	2.870	-0.020	-0.390	-0.170
2020/01/31 13:30:27.1	2.880	-0.040	-0.380	-0.180
2020/01/31 13:30:27.2	2.890	-0.070	-0.380	-0.200
2020/01/31 13:30:27.3	2.910	-0.090	-0.380	-0.210
2020/01/31 13:30:27.4	2.920	-0.110	-0.380	-0.230
2020/01/31 13:30:27.5	2.940	-0.130	-0.390	-0.260
2020/01/31 13:30:27.6	2.960	-0.150	-0.400	-0.280
2020/01/31 13:30:27.7	2.970	-0.160	-0.410	-0.310
2020/01/31 13:30:27.8	2.990	-0.180	-0.430	-0.350
2020/01/31 13:30:27.9	3.010	-0.190	-0.450	-0.390
2020/01/31 13:30:28.0	3.030	-0.200	-0.460	-0.430
2020/01/31 13:30:28.1	3.050	-0.210	-0.480	-0.480
2020/01/31 13:30:28.2	3.070	-0.220	-0.500	-0.530
2020/01/31 13:30:28.3	3.100	-0.230	-0.520	-0.580
2020/01/31 13:30:28.4	3.120	-0.230	-0.540	-0.630
2020/01/31 13:30:28.5	3.140	-0.230	-0.550	-0.690
2020/01/31 13:30:28.6	3.170	-0.230	-0.570	-0.740
2020/01/31 13:30:28.7	3.190	-0.230	-0.570	-0.800
2020/01/31 13:30:28.8	3.210	-0.230	-0.580	-0.850
2020/01/31 13:30:28.9	3.220	-0.230	-0.580	-0.910
2020/01/31 13:30:29.0	3.240	-0.230	-0.570	-0.960
2020/01/31 13:30:29.1	3.250	-0.220	-0.560	-1.010
2020/01/31 13:30:29.2	3.260	-0.210	-0.540	-1.060
2020/01/31 13:30:29.3	3.260	-0.200	-0.510	-1.100
2020/01/31 13:30:29.4	3.270	-0.200	-0.480	-1.140
2020/01/31 13:30:29.5	3.270	-0.190	-0.440	-1.180
2020/01/31 13:30:29.6	3.260	-0.180	-0.390	-1.210
2020/01/31 13:30:29.7	3.250	-0.170	-0.340	-1.240
2020/01/31 13:30:29.8	3.250	-0.160	-0.280	-1.260
2020/01/31 13:30:29.9	3.240	-0.150	-0.210	-1.280
2020/01/31 13:30:30.0	3.230	-0.150	-0.140	-1.290
2020/01/31 13:30:30.1	3.210	-0.140	-0.060	-1.290
2020/01/31 13:30:30.2	3.190	-0.130	0.020	-1.290
2020/01/31 13:30:30.3	3.170	-0.130	0.110	-1.280
2020/01/31 13:30:30.4	3.150	-0.130	0.200	-1.270
2020/01/31 13:30:30.5	3.120	-0.130	0.290	-1.250
2020/01/31 13:30:30.6	3.090	-0.130	0.380	-1.220
2020/01/31 13:30:30.7	3.060	-0.130	0.470	-1.190
2020/01/31 13:30:30.8	3.020	-0.130	0.560	-1.150
2020/01/31 13:30:30.9	2.980	-0.130	0.650	-1.110
2020/01/31 13:30:31.0	2.940	-0.140	0.740	-1.060
2020/01/31 13:30:31.1	2.900	-0.140	0.820	-1.000
2020/01/31 13:30:31.2	2.860	-0.150	0.900	-0.940
2020/01/31 13:30:31.3	2.820	-0.150	0.980	-0.880
2020/01/31 13:30:31.4	2.780	-0.160	1.040	-0.820
2020/01/31 13:30:31.5	2.740	-0.170	1.110	-0.750
2020/01/31 13:30:31.6	2.690	-0.170	1.160	-0.670
2020/01/31 13:30:31.7	2.650	-0.180	1.200	-0.600
2020/01/31 13:30:31.8	2.610	-0.180	1.240	-0.530
2020/01/31 13:30:31.9	2.570	-0.190	1.260	-0.460
2020/01/31 13:30:32.0	2.540	-0.190	1.280	-0.400
2020/01/31 13:30:32.1	2.510	-0.200	1.280	-0.330
2020/01/31 13:30:32.2	2.480	-0.200	1.280	-0.270
2020/01/31 13:30:32.3	2.450	-0.200	1.260	-0.210
2020/01/31 13:30:32.4	2.430	-0.200	1.230	-0.150
2020/01/31 13:30:32.5	2.410	-0.190	1.190	-0.100
2020/01/31 13:30:32.6	2.370	-0.190	1.130	-0.050
2020/01/31 13:30:32.7	2.360	-0.180	1.070	-0.010
2020/01/31 13:30:32.8	2.340	-0.170	1.000	0.040
2020/01/31 13:30:32.9	2.330	-0.160	0.920	0.080
2020/01/31 13:30:33.0	2.320	-0.140	0.830	0.120
2020/01/31 13:30:33.1	2.320	-0.120	0.730	0.160
2020/01/31 13:30:33.2	2.310	-0.110	0.630	0.190
2020/01/31 13:30:33.3	2.300	-0.080	0.520	0.230
2020/01/31 13:30:33.4	2.300	-0.060	0.410	0.260
2020/01/31 13:30:33.5	2.300	-0.040	0.290	0.300
2020/01/31 13:30:33.6	2.290	-0.010	0.180	0.330
2020/01/31 13:30:33.7	2.290	0.010	0.060	0.370
2020/01/31 13:30:33.8	2.280	0.040	-0.050	0.400
2020/01/31 13:30:33.9	2.280	0.070	-0.160	0.440
2020/01/31 13:30:34.0	2.270	0.100	-0.270	0.480
2020/01/31 13:30:34.1	2.270	0.130	-0.380	0.510
2020/01/31 13:30:34.2	2.270	0.160	-0.480	0.550
2020/01/31 13:30:34.3	2.260	0.190	-0.580	0.580
2020/01/31 13:30:34.4	2.260	0.210	-0.680	0.620
2020/01/31 13:30:34.5	2.250	0.240	-0.770	0.650
2020/01/31 13:30:34.6	2.250	0.270	-0.850	0.690
2020/01/31 13:30:34.7	2.250	0.290	-0.930	0.730
2020/01/31 13:30:34.8	2.250	0.310	-1.010	0.750
2020/01/31 13:30:34.9	2.250	0.330	-1.080	0.780
2020/01/31 13:30:35.0	2.250	0.350	-1.140	0.800
2020/01/31 13:30:35.1	2.250	0.370	-1.200	0.820
2020/01/31 13:30:35.2	2.260	0.390	-1.260	0.840
2020/01/31 13:30:35.3	2.270	0.400	-1.320	0.850
2020/01/31 13:30:35.4	2.290	0.420	-1.370	0.860
2020/01/31 13:30:35.5	2.310	0.430	-1.410	0.860
2020/01/31 13:30:35.6	2.330	0.440	-1.450	0.850
2020/01/31 13:30:35.7	2.350	0.440	-1.490	0.840
2020/01/31 13:30:35.8	2.380	0.450	-1.530	0.820
2020/01/31 13:30:35.9	2.420	0.450	-1.560	0.790
2020/01/31 13:30:36.0	2.460	0.460	-1.590	0.760
2020/01/31 13:30:36.1	2.500	0.460	-1.610	0.720
2020/01/31 13:30:36.2	2.540	0.460	-1.630	0.680
2020/01/31 13:30:36.3	2.590	0.460	-1.650	0.630
2020/01/31 13:30:36.4	2.650	0.450	-1.660	0.580
2020/01/31 13:30:36.5	2.700	0.450	-1.660	0.520
2020/01/31 13:30:36.6	2.760	0.440	-1.670	0.450
2020/01/31 13:30:36.7	2.820	0.440	-1.670	0.390
2020/01/31 13:30:36.8	2.880	0.430	-1.660	0.310
2020/01/31 13:30:36.9	2.940	0.420	-1.640	0.240
2020/01/31 13:30:37.0	3.010	0.410	-1.620	0.160
2020/01/31 13:30:37.1	3.070	0.400	-1.590	0.090
2020/01/31 13:30:37.2	3.140	0.390	-1.560	0.010
2020/01/31 13:30:37.3	3.200	0.380	-1.520	-0.070
2020/01/31 13:30:37.4	3.260	0.360	-1.470	-0.150
2020/01/31 13:30:37.5	3.320	0.350	-1.410	-0.220
2020/01/31 13:30:37.6	3.380	0.330	-1.350	-0.290
2020/01/31 13:30:37.7	3.430	0.310	-1.280	-0.360
2020/01/31 13:30:37.8	3.480	0.290	-1.200	-0.430
2020/01/31 13:30:37.9	3.530	0.270	-1.110	-0.490
2020/01/31 13:30:38.0	3.570	0.240	-1.020	-0.550
2020/01/31 13:30:38.1	3.610	0.210	-0.920	-0.600
2020/01/31 13:30:38.2	3.640	0.180	-0.820	-0.650
2020/01/31 13:30:38.3	3.680	0.150	-0.710	-0.700
2020/01/31 13:30:38.4	3.700	0.120	-0.600	-0.740
2020/01/31 13:30:38.5	3.730	0.080	-0.480	-0.770
2020/01/31 13:30:38.6	3.760	0.040	-0.370	-0.800
2020/01/31 13:30:38.7	3.770	0.000	-0.250	-0.830
2020/01/31 13:30:38.8	3.780	-0.040	-0.120	-0.850
2020/01/31 13:30:38.9	3.790	-0.090	-0.000	-0.870
2020/01/31 13:30:39.0	3.800	-0.130	0.120	-0.880
2020/01/31 13:30:39.1	3.790	-0.180	0.240	-0.890
2020/01/31 13:30:39.2	3.790	-0.230	0.360	-0.900
2020/01/31 13:30:39.3	3.780	-0.280	0.480	-0.910
2020/01/31 13:30:39.4	3.770	-0.330	0.590	-0.910
2020/01/31 13:30:39.5	3.760	-0.380	0.700	-0.910
2020/01/31 13:30:39.6	3.750	-0.420	0.800	-0.900
2020/01/31 13:30:39.7	3.730	-0.470	0.900	-0.900
2020/01/31 13:30:39.8	3.700	-0.520	0.980	-0.890
2020/01/31 13:30:39.9	3.680	-0.570	1.060	-0.880
2020/01/31 13:30:40.0	3.650	-0.610	1.130	-0.870
2020/01/31 13:30:40.1	3.610	-0.660	1.200	-0.850
2020/01/31 13:30:40.2	3.580	-0.700	1.250	-0.830
2020/01/31 13:30:40.3	3.540	-0.730	1.290	-0.810
2020/01/31 13:30:40.4	3.490	-0.770	1.330	-0.790
2020/01/31 13:30:40.5	3.450	-0.800	1.350	-0.770
2020/01/31 13:30:40.6	3.410	-0.830	1.370	-0.740
2020/01/31 13:30:40.7	3.360	-0.850	1.370	-0.710
2020/01/31 13:30:40.8	3.310	-0.870	1.360	-0.690
2020/01/31 13:30:40.9	3.260	-0.880	1.350	-0.660
2020/01/31 13:30:41.0	3.210	-0.890	1.320	-0.630
2020/01/31 13:30:41.1	3.160	-0.890	1.280	-0.590
2020/01/31 13:30:41.2	3.110	-0.880	1.240	-0.560
2020/01/31 13:30:41.3	3.050	-0.870	1.180	-0.530
2020/01/31 13:30:41.4	3.000	-0.860	1.120	-0.500
2020/01/31 13:30:41.5	2.950	-0.840	1.040	-0.470
2020/01/31 13:30:41.6	2.900	-0.810	0.960	-0.440
2020/01/31 13:30:41.7	2.860	-0.780	0.880	-0.400
2020/01/31 13:30:41.8	2.820	-0.740	0.780	-0.380
2020/01/31 13:30:41.9	2.770	-0.700	0.680	-0.350
2020/01/31 13:30:42.0	2.740	-0.650	0.580	-0.320
2020/01/31 13:30:42.1	2.700	-0.590	0.470	-0.300
2020/01/31 13:30:42.2	2.670	-0.530	0.350	-0.270
2020/01/31 13:30:42.3	2.640	-0.470	0.240	-0.250
2020/01/31 13:30:42.4	2.620	-0.400	0.120	-0.230
2020/01/31 13:30:42.5	2.600	-0.330	-0.000	-0.210
2020/01/31 13:30:42.6	2.580	-0.250	-0.120	-0.190
2020/01/31 13:30:42.7	2.570	-0.170	-0.240	-0.170
2020/01/31 13:30:42.8	2.560	-0.090	-0.360	-0.150
2020/01/31 13:30:42.9	2.560	-0.000	-0.480	-0.140
2020/01/31 13:30:43.0	2.560	0.090	-0.590	-0.120
2020/01/31 13:30:43.1	2.560	0.170	-0.700	-0.110
2020/01/31 13:30:43.2	2.570	0.260	-0.800	-0.090
2020/01/31 13:30:43.3	2.580	0.350	-0.900	-0.080
2020/01/31 13:30:43.4	2.600	0.430	-0.990	-0.060
2020/01/31 13:30:43.5	2.610	0.520	-1.070	-0.050
2020/01/31 13:30:43.6	2.640	0.600	-1.150	-0.030
2020/01/31 13:30:43.7	2.660	0.680	-1.210	-0.020
2020/01/31 13:30:43.8	2.680	0.750	-1.270	-0.000
2020/01/31 13:30:43.9	2.700	0.820	-1.310	0.010
2020/01/31 13:30:44.0	2.720	0.880	-1.340	0.030
2020/01/31 13:30:44.1	2.750	0.940	-1.360	0.050
2020/01/31 13:30:44.2	2.770	0.990	-1.370	0.070
2020/01/31 13:30:44.3	2.790	1.030	-1.370	0.090
2020/01/31 13:30:44.4	2.810	1.070	-1.360	0.110
2020/01/31 13:30:44.5	2.840	1.090	-1.330	0.130
2020/01/31 13:30:44.6	2.870	1.110	-1.300	0.160
2020/01/31 13:30:44.7	2.890	1.130	-1.260	0.190
2020/01/31 13:30:44.8	2.910	1.130	-1.210	0.220
2020/01/31 13:30:44.9	2.920	1.130	-1.150	0.250
2020/01/31 13:30:45.0	2.940	1.120	-1.090	0.270
2020/01/31 13:30:45.1	2.960	1.100	-1.020	0.300
2020/01/31 13:30:45.2	2.980	1.070	-0.940	0.330
2020/01/31 13:30:45.3	2.990	1.030	-0.860	0.360
2020/01/31 13:30:45.4	3.000	0.990	-0.780	0.390
2020/01/31 13:30:45.5	3.010	0.940	-0.690	0.410
2020/01/31 13:30:45.6	3.030	0.880	-0.610	0.440
2020/01/31 13:30:45.7	3.040	0.820	-0.520	0.460
2020/01/31 13:30:45.8	3.050	0.760	-0.440	0.480
2020/01/31 13:30:45.9	3.050	0.680	-0.350	0.490
2020/01/31 13:30:46.0	3.050	0.610	-0.270	0.500
2020/01/31 13:30:46.1	3.060	0.530	-0.190	0.500
2020/01/31 13:30:46.2	3.060	0.440	-0.110	0.500
2020/01/31 13:30:46.3	3.060	0.360	-0.040	0.490
2020/01/31 13:30:46.4	3.060	0.280	0.030	0.480
2020/01/31 13:30:46.5	3.050	0.190	0.090	0.470
2020/01/31 13:30:46.6	3.060	0.100	0.140	0.440
2020/01/31 13:30:46.7	3.060	0.020	0.190	0.410
2020/01/31 13:30:46.8	3.050	-0.060	0.230	0.380
2020/01/31 13:30:46.9	3.050	-0.140	0.270	0.350
2020/01/31 13:30:47.0	3.050	-0.220	0.290	0.300
2020/01/31 13:30:47.1	3.050	-0.300	0.310	0.260
2020/01/31 13:30:47.2	3.050	-0.370	0.330	0.210
2020/01/31 13:30:47.3	3.050	-0.430	0.340	0.160
2020/01/31 13:30:47.4	3.050	-0.490	0.340	0.100
2020/01/31 13:30:47.5	3.050	-0.550	0.330	0.040
2020/01/31 13:30:47.6	3.060	-0.600	0.320	-0.020
2020/01/31 13:30:47.7	3.070	-0.640	0.300	-0.080
2020/01/31 13:30:47.8	3.070	-0.670	0.280	-0.150
2020/01/31 13:30:47.9	3.080	-0.710	0.250	-0.220
2020/01/31 13:30:48.0	3.100	-0.730	0.220	-0.280
2020/01/31 13:30:48.1	3.110	-0.750	0.190	-0.350
2020/01/31 13:30:48.2	3.120	-0.760	0.150	-0.420
2020/01/31 13:30:48.3	3.130	-0.770	0.110	-0.490
2020/01/31 13:30:48.4	3.150	-0.770	0.070	-0.550
2020/01/31 13:30:48.5	3.160	-0.770	0.030	-0.610
2020/01/31 13:30:48.6	3.180	-0.760	-0.010	-0.680
2020/01/31 13:30:48.7	3.190	-0.740	-0.060	-0.740
2020/01/31 13:30:48.8	3.200	-0.730	-0.100	-0.790
2020/01/31 13:30:48.9	3.210	-0.700	-0.130	-0.850
2020/01/31 13:30:49.0	3.220	-0.680	-0.170	-0.900
2020/01/31 13:30:49.1	3.220	-0.650	-0.200	-0.940
2020/01/31 13:30:49.2	3.230	-0.620	-0.240	-0.990
2020/01/31 13:30:49.3	3.230	-0.590	-0.260	-1.030
2020/01/31 13:30:49.4	3.230	-0.550	-0.290	-1.060
2020/01/31 13:30:49.5	3.230	-0.510	-0.310	-1.090
2020/01/31 13:30:49.6	3.220	-0.470	-0.330	-1.120
2020/01/31 13:30:49.7	3.220	-0.430	-0.350	-1.140
2020/01/31 13:30:49.8	3.210	-0.390	-0.360	-1.160
2020/01/31 13:30:49.9	3.210	-0.350	-0.370	-1.170
2020/01/31 13:30:50.0	3.200	-0.310	-0.380	-1.180
2020/01/31 13:30:50.1	3.190	-0.270	-0.380	-1.190
2020/01/31 13:30:50.2	3.180	-0.230	-0.390	-1.190
2020/01/31 13:30:50.3	3.180	-0.190	-0.390	-1.190
2020/01/31 13:30:50.4	3.170	-0.150	-0.390	-1.180
2020/01/31 13:30:50.5	3.160	-0.110	-0.390	-1.170
2020/01/31 13:30:50.6	3.140	-0.070	-0.400	-1.150
2020/01/31 13:30:50.7	3.140	-0.040	-0.400	-1.140
2020/01/31 13:30:50.8	3.130	0.000	-0.400	-1.120
2020/01/31 13:30:50.9	3.130	0.030	-0.400	-1.100
2020/01/31 13:30:51.0	3.120	0.070	-0.410	-1.070
2020/01/31 13:30:51.1	3.120	0.100	-0.410	-1.040
2020/01/31 13:30:51.2	3.120	0.130	-0.420	-1.020
2020/01/31 13:30:51.3	3.120	0.150	-0.430	-0.990
2020/01/31 13:30:51.4	3.120	0.180	-0.430	-0.950
2020/01/31 13:30:51.5	3.120	0.200	-0.440	-0.920
2020/01/31 13:30:51.6	3.120	0.220	-0.460	-0.880
2020/01/31 13:30:51.7	3.120	0.240	-0.470	-0.850
2020/01/31 13:30:51.8	3.120	0.260	-0.480	-0.810
2020/01/31 13:30:51.9	3.120	0.270	-0.490	-0.780
2020/01/31 13:30:52.0	3.120	0.280	-0.490	-0.740
2020/01/31 13:30:52.1	3.110	0.290	-0.500	-0.710
2020/01/31 13:30:52.2	3.110	0.300	-0.510	-0.670
2020/01/31 13:30:52.3	3.110	0.300	-0.510	-0.640
2020/01/31 13:30:52.4	3.100	0.300	-0.510	-0.610
2020/01/31 13:30:52.5	3.100	0.300	-0.510	-0.570
2020/01/31 13:30:52.6	3.090	0.300	-0.510	-0.540
2020/01/31 13:30:52.7	3.090	0.300	-0.500	-0.500
2020/01/31 13:30:52.8	3.080	0.290	-0.490	-0.460
2020/01/31 13:30:52.9	3.070	0.290	-0.480	-0.420
2020/01/31 13:30:53.0	3.060	0.280	-0.460	-0.380
2020/01/31 13:30:53.1	3.050	0.280	-0.440	-0.330
2020/01/31 13:30:53.2	3.040	0.270	-0.410	-0.290
2020/01/31 13:30:53.3	3.020	0.260	-0.380	-0.240
2020/01/31 13:30:53.4	3.010	0.250	-0.350	-0.190
2020/01/31 13:30:53.5	3.000	0.240	-0.310	-0.140
2020/01/31 13:30:53.6	2.980	0.230	-0.280	-0.080
2020/01/31 13:30:53.7	2.970	0.220	-0.240	-0.030
2020/01/31 13:30:53.8	2.960	0.210	-0.200	0.020
2020/01/31 13:30:53.9	2.950	0.200	-0.160	0.070
2020/01/31 13:30:54.0	2.950	0.190	-0.110	0.120
2020/01/31 13:30:54.1	2.940	0.180	-0.070	0.170
2020/01/31 13:30:54.2	2.940	0.170	-0.030	0.220
2020/01/31 13:30:54.3	2.930	0.160	0.010	0.260
2020/01/31 13:30:54.4	2.930	0.160	0.040	0.310
2020/01/31 13:30:54.5	2.930	0.150	0.080	0.350
2020/01/31 13:30:54.6	2.930	0.140	0.110	0.400
2020/01/31 13:30:54.7	2.930	0.140	0.140	0.440
2020/01/31 13:30:54.8	2.940	0.130	0.160	0.470
2020/01/31 13:30:54.9	2.940	0.130	0.190	0.510
2020/01/31 13:30:55.0	2.950	0.130	0.200	0.540
2020/01/31 13:30:55.1	2.950	0.130	0.220	0.570
2020/01/31 13:30:55.2	2.960	0.120	0.230	0.600
2020/01/31 13:30:55.3	2.960	0.120	0.240	0.630
2020/01/31 13:30:55.4	2.970	0.120	0.240	0.650
2020/01/31 13:30:55.5	2.980	0.120	0.240	0.670
2020/01/31 13:30:55.6	2.990	0.120	0.240	0.690
2020/01/31 13:30:55.7	3.000	0.130	0.230	0.710
2020/01/31 13:30:55.8	3.000	0.130	0.220	0.720
2020/01/31 13:30:55.9	3.010	0.130	0.210	0.730
2020/01/31 13:30:56.0	3.010	0.120	0.200	0.740
2020/01/31 13:30:56.1	3.010	0.120	0.190	0.750
2020/01/31 13:30:56.2	3.010	0.120	0.170	0.750
2020/01/31 13:30:56.3	3.020	0.120	0.150	0.760
2020/01/31 13:30:56.4	3.010	0.110	0.130	0.760
2020/01/31 13:30:56.5	3.010	0.110	0.110	0.760
2020/01/31 13:30:56.6	3.010	0.100	0.090	0.760
2020/01/31 13:30:56.7	3.000	0.090	0.060	0.760
2020/01/31 13:30:56.8	2.990	0.080	0.030	0.760
2020/01/31 13:30:56.9	2.980	0.070	0.010	0.750
2020/01/31 13:30:57.0	2.970	0.060	-0.020	0.750
2020/01/31 13:30:57.1	2.950	0.040	-0.050	0.740
2020/01/31 13:30:57.2	2.940	0.030	-0.090	0.730
2020/01/31 13:30:57.3	2.930	0.010	-0.120	0.710
2020/01/31 13:30:57.4	2.910	-0.010	-0.150	0.690
2020/01/31 13:30:57.5	2.900	-0.030	-0.190	0.670
2020/01/31 13:30:57.6	2.890	-0.050	-0.220	0.640
2020/01/31 13:30:57.7	2.880	-0.060	-0.260	0.610
2020/01/31 13:30:57.8	2.870	-0.080	-0.290	0.580
2020/01/31 13:30:57.9	2.870	-0.100	-0.330	0.540
2020/01/31 13:30:58.0	2.870	-0.120	-0.360	0.490
2020/01/31 13:30:58.1	2.860	-0.140	-0.400	0.450
2020/01/31 13:30:58.2	2.870	-0.160	-0.430	0.400
2020/01/31 13:30:58.3	2.870	-0.170	-0.460	0.340
2020/01/31 13:30:58.4	2.880	-0.190	-0.500	0.290
2020/01/31 13:30:58.5	2.890	-0.200	-0.530	0.230
2020/01/31 13:30:58.6	2.900	-0.210	-0.550	0.160
2020/01/31 13:30:58.7	2.920	-0.220	-0.580	0.100
2020/01/31 13:30:58.8	2.930	-0.230	-0.610	0.030
2020/01/31 13:30:58.9	2.950	-0.240	-0.630	-0.030
2020/01/31 13:30:59.0	2.960	-0.240	-0.650	-0.100
2020/01/31 13:30:59.1	2.980	-0.240	-0.660	-0.160
2020/01/31 13:30:59.2	2.990	-0.240	-0.670	-0.230
2020/01/31 13:30:59.3	3.010	-0.240	-0.680	-0.290
2020/01/31 13:30:59.4	3.020	-0.230	-0.680	-0.350
2020/01/31 13:30:59.5	3.030	-0.220	-0.670	-0.400
2020/01/31 13:30:59.6	3.050	-0.220	-0.670	-0.460
2020/01/31 13:30:59.7	3.050	-0.210	-0.660	-0.510
2020/01/31 13:30:59.8	3.060	-0.190	-0.640	-0.550
2020/01/31 13:30:59.9	3.060	-0.180	-0.620	-0.600
2020/01/31 13:31:00.0	3.050	-0.170	-0.600	-0.640
2020/01/31 13:31:00.1	3.050	-0.150	-0.570	-0.670
2020/01/31 13:31:00.2	3.040	-0.130	-0.540	-0.700
2020/01/31 13:31:00.3	3.030	-0.120	-0.500	-0.720
2020/01/31 13:31:00.4	3.010	-0.100	-0.460	-0.740
2020/01/31 13:31:00.5	2.990	-0.080	-0.420	-0.750
2020/01/31 13:31:00.6	2.970	-0.060	-0.380	-0.750
2020/01/31 13:31:00.7	2.950	-0.040	-0.340	-0.750
2020/01/31 13:31:00.8	2.920	-0.020	-0.300	-0.750
2020/01/31 13:31:00.9	2.880	-0.000	-0.250	-0.740
2020/01/31 13:31:01.0	2.850	0.020	-0.200	-0.730
2020/01/31 13:31:01.1	2.810	0.040	-0.160	-0.710
2020/01/31 13:31:01.2	2.770	0.050	-0.120	-0.690
2020/01/31 13:31:01.3	2.730	0.070	-0.080	-0.670
2020/01/31 13:31:01.4	2.690	0.090	-0.040	-0.640
2020/01/31 13:31:01.5	2.650	0.100	-0.000	-0.620
2020/01/31 13:31:01.6	2.600	0.120	0.030	-0.590
2020/01/31 13:31:01.7	2.560	0.130	0.060	-0.560
2020/01/31 13:31:01.8	2.530	0.150	0.080	-0.530
2020/01/31 13:31:01.9	2.490	0.160	0.100	-0.500
2020/01/31 13:31:02.0	2.460	0.170	0.110	-0.470
2020/01/31 13:31:02.1	2.430	0.180	0.120	-0.450
2020/01/31 13:31:02.2	2.400	0.190	0.120	-0.420
2020/01/31 13:31:02.3	2.380	0.200	0.120	-0.400
2020/01/31 13:31:02.4	2.360	0.210	0.110	-0.380
2020/01/31 13:31:02.5	2.340	0.210	0.090	-0.360
2020/01/31 13:31:02.6	2.330	0.220	0.070	-0.340
2020/01/31 13:31:02.7	2.320	0.230	0.040	-0.330
2020/01/31 13:31:02.8	2.320	0.230	0.010	-0.320
2020/01/31 13:31:02.9	2.320	0.240	-0.030	-0.310
2020/01/31 13:31:03.0	2.330	0.240	-0.070	-0.310
2020/01/31 13:31:03.1	2.340	0.240	-0.120	-0.300
2020/01/31 13:31:03.2	2.350	0.240	-0.170	-0.300
2020/01/31 13:31:03.3	2.370	0.240	-0.220	-0.300
2020/01/31 13:31:03.4	2.390	0.240	-0.270	-0.310
2020/01/31 13:31:03.5	2.420	0.230	-0.330	-0.310
2020/01/31 13:31:03.6	2.430	0.230	-0.380	-0.310
2020/01/31 13:31:03.7	2.460	0.220	-0.430	-0.310
2020/01/31 13:31:03.8	2.490	0.210	-0.480	-0.320
2020/01/31 13:31:03.9	2.510	0.200	-0.530	-0.320
2020/01/31 13:31:04.0	2.540	0.190	-0.570	-0.320
2020/01/31 13:31:04.1	2.570	0.170	-0.610	-0.320
2020/01/31 13:31:04.2	2.600	0.150	-0.650	-0.330
2020/01/31 13:31:04.3	2.630	0.130	-0.680	-0.320
2020/01/31 13:31:04.4	2.650	0.110	-0.700	-0.320
2020/01/31 13:31:04.5	2.680	0.080	-0.720	-0.320
2020/01/31 13:31:04.6	2.720	0.060	-0.730	-0.310
2020/01/31 13:31:04.7	2.740	0.030	-0.740	-0.310
2020/01/31 13:31:04.8	2.760	-0.000	-0.740	-0.300
2020/01/31 13:31:04.9	2.780	-0.030	-0.730	-0.290
2020/01/31 13:31:05.0	2.790	-0.060	-0.720	-0.280
2020/01/31 13:31:05.1	2.810	-0.100	-0.700	-0.270
2020/01/31 13:31:05.2	2.820	-0.130	-0.670	-0.260
2020/01/31 13:31:05.3	2.830	-0.170	-0.630	-0.240
2020/01/31 13:31:05.4	2.840	-0.200	-0.600	-0.230
2020/01/31 13:31:05.5	2.840	-0.240	-0.550	-0.210
2020/01/31 13:31:05.6	2.850	-0.270	-0.500	-0.190
2020/01/31 13:31:05.7	2.850	-0.300	-0.450	-0.170
2020/01/31 13:31:05.8	2.850	-0.330	-0.390	-0.150
2020/01/31 13:31:05.9	2.850	-0.360	-0.330	-0.130
2020/01/31 13:31:06.0	2.850	-0.390	-0.260	-0.110
2020/01/31 13:31:06.1	2.840	-0.420	-0.200	-0.090
2020/01/31 13:31:06.2	2.830	-0.440	-0.130	-0.070
2020/01/31 13:31:06.3	2.820	-0.460	-0.060	-0.050
2020/01/31 13:31:06.4	2.810	-0.480	0.000	-0.030
2020/01/31 13:31:06.5	2.790	-0.490	0.070	-0.000
2020/01/31 13:31:06.6	2.780	-0.500	0.130	0.030
2020/01/31 13:31:06.7	2.770	-0.500	0.190	0.050
2020/01/31 13:31:06.8	2.750	-0.500	0.250	0.080
2020/01/31 13:31:06.9	2.730	-0.500	0.310	0.110
2020/01/31 13:31:07.0	2.700	-0.490	0.360	0.140
2020/01/31 13:31:07.1	2.680	-0.480	0.400	0.170
2020/01/31 13:31:07.2	2.660	-0.460	0.440	0.200
2020/01/31 13:31:07.3	2.630	-0.440	0.470	0.230
2020/01/31 13:31:07.4	2.610	-0.420	0.500	0.260
2020/01/31 13:31:07.5	2.580	-0.390	0.520	0.290
2020/01/31 13:31:07.6	2.550	-0.360	0.520	0.320
2020/01/31 13:31:07.7	2.520	-0.330	0.520	0.340
2020/01/31 13:31:07.8	2.500	-0.290	0.520	0.370
2020/01/31 13:31:07.9	2.470	-0.250	0.510	0.390
2020/01/31 13:31:08.0	2.440	-0.210	0.480	0.410
2020/01/31 13:31:08.1	2.410	-0.170	0.450	0.420
2020/01/31 13:31:08.2	2.380	-0.130	0.420	0.440
2020/01/31 13:31:08.3	2.350	-0.080	0.370	0.450
2020/01/31 13:31:08.4	2.320	-0.040	0.320	0.450
2020/01/31 13:31:08.5	2.300	0.010	0.270	0.450
2020/01/31 13:31:08.6	2.270	0.050	0.200	0.450
2020/01/31 13:31:08.7	2.240	0.100	0.130	0.450
2020/01/31 13:31:08.8	2.220	0.140	0.060	0.440
2020/01/31 13:31:08.9	2.190	0.180	-0.010	0.430
2020/01/31 13:31:09.0	2.170	0.220	-0.090	0.410
2020/01/31 13:31:09.1	2.140	0.260	-0.170	0.400
2020/01/31 13:31:09.2	2.120	0.300	-0.250	0.380
2020/01/31 13:31:09.3	2.090	0.330	-0.330	0.360
2020/01/31 13:31:09.4	2.070	0.360	-0.410	0.330
2020/01/31 13:31:09.5	2.050	0.390	-0.490	0.310
2020/01/31 13:31:09.6	2.020	0.420	-0.570	0.280
2020/01/31 13:31:09.7	2.000	0.440	-0.640	0.260
2020/01/31 13:31:09.8	1.980	0.460	-0.700	0.230
2020/01/31 13:31:09.9	1.960	0.480	-0.760	0.210
2020/01/31 13:31:10.0	1.940	0.490	-0.820	0.180
2020/01/31 13:31:10.1	1.920	0.500	-0.870	0.150
2020/01/31 13:31:10.2	1.900	0.510	-0.910	0.120
2020/01/31 13:31:10.3	1.890	0.510	-0.950	0.100
2020/01/31 13:31:10.4	1.870	0.510	-0.970	0.070
2020/01/31 13:31:10.5	1.860	0.510	-1.000	0.040
2020/01/31 13:31:10.6	1.840	0.500	-1.010	0.010
2020/01/31 13:31:10.7	1.830	0.500	-1.020	-0.020
2020/01/31 13:31:10.8	1.830	0.490	-1.020	-0.050
2020/01/31 13:31:10.9	1.820	0.470	-1.010	-0.090
2020/01/31 13:31:11.0	1.830	0.460	-1.000	-0.120
2020/01/31 13:31:11.1	1.830	0.440	-0.990	-0.160
2020/01/31 13:31:11.2	1.830	0.430	-0.960	-0.190
2020/01/31 13:31:11.3	1.840	0.410	-0.930	-0.230
2020/01/31 13:31:11.4	1.850	0.390	-0.900	-0.260
2020/01/31 13:31:11.5	1.870	0.370	-0.860	-0.300
2020/01/31 13:31:11.6	1.870	0.350	-0.820	-0.340
2020/01/31 13:31:11.7	1.890	0.330	-0.780	-0.380
2020/01/31 13:31:11.8	1.910	0.310	-0.730	-0.410
2020/01/31 13:31:11.9	1.930	0.290	-0.680	-0.450
2020/01/31 13:31:12.0	1.960	0.270	-0.620	-0.490
2020/01/31 13:31:12.1	1.980	0.250	-0.560	-0.520
2020/01/31 13:31:12.2	2.010	0.240	-0.510	-0.550
2020/01/31 13:31:12.3	2.030	0.220	-0.440	-0.580
2020/01/31 13:31:12.4	2.060	0.200	-0.380	-0.600
2020/01/31 13:31:12.5	2.080	0.180	-0.320	-0.630
2020/01/31 13:31:12.6	2.110	0.170	-0.260	-0.640
2020/01/31 13:31:12.7	2.130	0.150	-0.190	-0.660
2020/01/31 13:31:12.8	2.150	0.140	-0.130	-0.670
2020/01/31 13:31:12.9	2.170	0.120	-0.060	-0.670
2020/01/31 13:31:13.0	2.190	0.100	0.000	-0.680
2020/01/31 13:31:13.1	2.200	0.090	0.070	-0.670
2020/01/31 13:31:13.2	2.210	0.070	0.130	-0.670
2020/01/31 13:31:13.3	2.220	0.050	0.190	-0.660
2020/01/31 13:31:13.4	2.220	0.030	0.250	-0.650
2020/01/31 13:31:13.5	2.220	0.010	0.310	-0.630
2020/01/31 13:31:13.6	2.210	-0.010	0.360	-0.610
2020/01/31 13:31:13.7	2.210	-0.030	0.410	-0.590
2020/01/31 13:31:13.8	2.200	-0.060	0.460	-0.560
2020/01/31 13:31:13.9	2.190	-0.080	0.500	-0.540
2020/01/31 13:31:14.0	2.180	-0.100	0.540	-0.510
2020/01/31 13:31:14.1	2.160	-0.130	0.570	-0.490
2020/01/31 13:31:14.2	2.150	-0.150	0.600	-0.460
2020/01/31 13:31:14.3	2.130	-0.180	0.620	-0.430
2020/01/31 13:31:14.4	2.110	-0.210	0.640	-0.400
2020/01/31 13:31:14.5	2.090	-0.230	0.650	-0.370
2020/01/31 13:31:14.6	2.080	-0.260	0.650	-0.340
2020/01/31 13:31:14.7	2.050	-0.280	0.650	-0.310
2020/01/31 13:31:14.8	2.030	-0.310	0.640	-0.280
2020/01/31 13:31:14.9	2.010	-0.330	0.620	-0.240
2020/01/31 13:31:15.0	1.980	-0.350	0.600	-0.210
2020/01/31 13:31:15.1	1.960	-0.370	0.570	-0.180
2020/01/31 13:31:15.2	1.940	-0.390	0.530	-0.150
2020/01/31 13:31:15.3	1.920	-0.410	0.490	-0.130
2020/01/31 13:31:15.4	1.900	-0.420	0.440	-0.100
2020/01/31 13:31:15.5	1.880	-0.430	0.390	-0.080
2020/01/31 13:31:15.6	1.860	-0.440	0.330	-0.050
2020/01/31 13:31:15.7	1.850	-0.440	0.270	-0.040
2020/01/31 13:31:15.8	1.840	-0.450	0.200	-0.020
2020/01/31 13:31:15.9	1.830	-0.440	0.120	-0.010
2020/01/31 13:31:16.0	1.820	-0.440	0.050	-0.010
2020/01/31 13:31:16.1	1.810	-0.430	-0.030	-0.010
2020/01/31 13:31:16.2	1.810	-0.420	-0.110	-0.010
2020/01/31 13:31:16.3	1.810	-0.410	-0.200	-0.020
2020/01/31 13:31:16.4	1.810	-0.390	-0.280	-0.030
2020/01/31 13:31:16.5	1.810	-0.370	-0.370	-0.040
2020/01/31 13:31:16.6	1.820	-0.340	-0.450	-0.060
2020/01/31 13:31:16.7	1.820	-0.320	-0.540	-0.080
2020/01/31 13:31:16.8	1.830	-0.290	-0.610	-0.100
2020/01/31 13:31:16.9	1.830	-0.260	-0.690	-0.120
2020/01/31 13:31:17.0	1.840	-0.230	-0.760	-0.140
2020/01/31 13:31:17.1	1.840	-0.190	-0.820	-0.160
2020/01/31 13:31:17.2	1.840	-0.160	-0.880	-0.180
2020/01/31 13:31:17.3	1.840	-0.130	-0.930	-0.190
2020/01/31 13:31:17.4	1.840	-0.100	-0.980	-0.210
2020/01/31 13:31:17.5	1.830	-0.070	-1.010	-0.220
2020/01/31 13:31:17.6	1.830	-0.040	-1.040	-0.240
2020/01/31 13:31:17.7	1.820	-0.010	-1.060	-0.250
2020/01/31 13:31:17.8	1.810	0.010	-1.070	-0.260
2020/01/31 13:31:17.9	1.800	0.040	-1.070	-0.260
2020/01/31 13:31:18.0	1.780	0.050	-1.060	-0.270
2020/01/31 13:31:18.1	1.760	0.070	-1.050	-0.270
2020/01/31 13:31:18.2	1.740	0.080	-1.020	-0.270
2020/01/31 13:31:18.3	1.720	0.090	-0.990	-0.270
2020/01/31 13:31:18.4	1.690	0.100	-0.950	-0.260
2020/01/31 13:31:18.5	1.670	0.100	-0.900	-0.250
2020/01/31 13:31:18.6	1.640	0.100	-0.860	-0.240
2020/01/31 13:31:18.7	1.610	0.100	-0.800	-0.230
2020/01/31 13:31:18.8	1.580	0.090	-0.740	-0.210
2020/01/31 13:31:18.9	1.550	0.090	-0.680	-0.200
2020/01/31 13:31:19.0	1.520	0.080	-0.610	-0.180
2020/01/31 13:31:19.1	1.490	0.070	-0.550	-0.160
2020/01/31 13:31:19.2	1.460	0.050	-0.480	-0.140
2020/01/31 13:31:19.3	1.440	0.040	-0.410	-0.120
2020/01/31 13:31:19.4	1.410	0.030	-0.350	-0.100
2020/01/31 13:31:19.5	1.390	0.010	-0.290	-0.070
2020/01/31 13:31:19.6	1.370	-0.000	-0.230	-0.050
2020/01/31 13:31:19.7	1.350	-0.010	-0.170	-0.030
2020/01/31 13:31:19.8	1.330	-0.030	-0.120	-0.010
2020/01/31 13:31:19.9	1.310	-0.040	-0.070	0.010
2020/01/31 13:31:20.0	1.300	-0.040	-0.030	0.040
2020/01/31 13:31:20.1	1.290	-0.050	0.010	0.060
2020/01/31 13:31:20.2	1.280	-0.050	0.050	0.080
2020/01/31 13:31:20.3	1.270	-0.050	0.080	0.090
2020/01/31 13:31:20.4	1.270	-0.050	0.100	0.110
2020/01/31 13:31:20.5	1.260	-0.050	0.120	0.130
2020/01/31 13:31:20.6	1.260	-0.040	0.140	0.150
2020/01/31 13:31:20.7	1.260	-0.030	0.150	0.170
2020/01/31 13:31:20.8	1.260	-0.020	0.150	0.190
2020/01/31 13:31:20.9	1.260	-0.000	0.160	0.200
2020/01/31 13:31:21.0	1.260	0.020	0.160	0.220
2020/01/31 13:31:21.1	1.270	0.040	0.160	0.240
2020/01/31 13:31:21.2	1.270	0.060	0.160	0.250
2020/01/31 13:31:21.3	1.270	0.080	0.150	0.270
2020/01/31 13:31:21.4	1.280	0.100	0.140	0.280
2020/01/31 13:31:21.5	1.280	0.130	0.120	0.300
2020/01/31 13:31:21.6	1.290	0.150	0.110	0.310
2020/01/31 13:31:21.7	1.300	0.180	0.090	0.320
2020/01/31 13:31:21.8	1.310	0.200	0.070	0.330
2020/01/31 13:31:21.9	1.320	0.230	0.050	0.330
2020/01/31 13:31:22.0	1.330	0.250	0.020	0.340
2020/01/31 13:31:22.1	1.340	0.270	-0.010	0.340
2020/01/31 13:31:22.2	1.350	0.290	-0.040	0.340
2020/01/31 13:31:22.3	1.370	0.310	-0.070	0.340
2020/01/31 13:31:22.4	1.380	0.320	-0.100	0.340
2020/01/31 13:31:22.5	1.400	0.340	-0.140	0.330
2020/01/31 13:31:22.6	1.430	0.350	-0.180	0.330
2020/01/31 13:31:22.7	1.450	0.360	-0.210	0.320
2020/01/31 13:31:22.8	1.460	0.360	-0.250	0.300
2020/01/31 13:31:22.9	1.480	0.360	-0.290	0.280
2020/01/31 13:31:23.0	1.500	0.360	-0.330	0.260
2020/01/31 13:31:23.1	1.520	0.360	-0.370	0.240
2020/01/31 13:31:23.2	1.540	0.360	-0.410	0.210
2020/01/31 13:31:23.3	1.560	0.350	-0.450	0.180
2020/01/31 13:31:23.4	1.590	0.340	-0.490	0.150
2020/01/31 13:31:23.5	1.610	0.320	-0.530	0.120
2020/01/31 13:31:23.6	1.620	0.310	-0.570	0.080
2020/01/31 13:31:23.7	1.640	0.290	-0.600	0.040
2020/01/31 13:31:23.8	1.670	0.270	-0.630	-0.000
2020/01/31 13:31:23.9	1.690	0.250	-0.660	-0.040
2020/01/31 13:31:24.0	1.720	0.230	-0.690	-0.090
2020/01/31 13:31:24.1	1.740	0.210	-0.710	-0.130
2020/01/31 13:31:24.2	1.760	0.190	-0.730	-0.180
2020/01/31 13:31:24.3	1.790	0.160	-0.740	-0.220
2020/01/31 13:31:24.4	1.810	0.140	-0.750	-0.260
2020/01/31 13:31:24.5	1.830	0.110	-0.750	-0.310
2020/01/31 13:31:24.6	1.850	0.090	-0.750	-0.350
2020/01/31 13:31:24.7	1.870	0.070	-0.750	-0.390
2020/01/31 13:31:24.8	1.890	0.040	-0.730	-0.430
2020/01/31 13:31:24.9	1.910	0.020	-0.720	-0.470
2020/01/31 13:31:25.0	1.920	-0.000	-0.700	-0.500
2020/01/31 13:31:25.1	1.940	-0.030	-0.670	-0.540
2020/01/31 13:31:25.2	1.950	-0.050	-0.640	-0.560
2020/01/31 13:31:25.3	1.960	-0.070	-0.600	-0.590
2020/01/31 13:31:25.4	1.970	-0.090	-0.560	-0.610
2020/01/31 13:31:25.5	1.970	-0.100	-0.510	-0.630
2020/01/31 13:31:25.6	1.980	-0.120	-0.460	-0.640
2020/01/31 13:31:25.7	1.980	-0.140	-0.400	-0.650
2020/01/31 13:31:25.8	1.980	-0.150	-0.340	-0.660
2020/01/31 13:31:25.9	1.970	-0.170	-0.280	-0.660
2020/01/31 13:31:26.0	1.960	-0.180	-0.220	-0.660
2020/01/31 13:31:26.1	1.950	-0.190	-0.160	-0.660
2020/01/31 13:31:26.2	1.940	-0.210	-0.090	-0.650
2020/01/31 13:31:26.3	1.930	-0.220	-0.020	-0.640
2020/01/31 13:31:26.4	1.910	-0.230	0.040	-0.630
2020/01/31 13:31:26.5	1.890	-0.240	0.110	-0.620
2020/01/31 13:31:26.6	1.860	-0.250	0.170	-0.590
2020/01/31 13:31:26.7	1.840	-0.250	0.240	-0.580
2020/01/31 13:31:26.8	1.810	-0.260	0.300	-0.550
2020/01/31 13:31:26.9	1.780	-0.270	0.360	-0.530
2020/01/31 13:31:27.0	1.740	-0.270	0.420	-0.510
2020/01/31 13:31:27.1	1.710	-0.280	0.470	-0.480
2020/01/31 13:31:27.2	1.670	-0.280	0.520	-0.450
2020/01/31 13:31:27.3	1.630	-0.290	0.570	-0.430
2020/01/31 13:31:27.4	1.600	-0.290	0.610	-0.400
2020/01/31 13:31:27.5	1.560	-0.290	0.640	-0.370
2020/01/31 13:31:27.6	1.520	-0.290	0.670	-0.350
2020/01/31 13:31:27.7	1.480	-0.290	0.690	-0.320
2020/01/31 13:31:27.8	1.450	-0.290	0.710	-0.300
2020/01/31 13:31:27.9	1.410	-0.290	0.720	-0.280
2020/01/31 13:31:28.0	1.380	-0.290	0.720	-0.250
2020/01/31 13:31:28.1	1.350	-0.280	0.710	-0.230
2020/01/31 13:31:28.2	1.320	-0.280	0.700	-0.220
2020/01/31 13:31:28.3	1.290	-0.270	0.680	-0.200
2020/01/31 13:31:28.4	1.270	-0.260	0.660	-0.180
2020/01/31 13:31:28.5	1.240	-0.250	0.630	-0.170
2020/01/31 13:31:28.6	1.230	-0.240	0.590	-0.160
2020/01/31 13:31:28.7	1.210	-0.220	0.550	-0.150
2020/01/31 13:31:28.8	1.190	-0.210	0.500	-0.140
2020/01/31 13:31:28.9	1.180	-0.190	0.440	-0.130
2020/01/31 13:31:29.0	1.160	-0.180	0.380	-0.120
2020/01/31 13:31:29.1	1.150	-0.160	0.320	-0.120
2020/01/31 13:31:29.2	1.140	-0.140	0.250	-0.110
2020/01/31 13:31:29.3	1.130	-0.120	0.180	-0.100
2020/01/31 13:31:29.4	1.120	-0.100	0.110	-0.100
2020/01/31 13:31:29.5	1.110	-0.070	0.030	-0.090
2020/01/31 13:31:29.6	1.110	-0.050	-0.040	-0.080
2020/01/31 13:31:29.7	1.100	-0.030	-0.120	-0.080
2020/01/31 13:31:29.8	1.090	-0.010	-0.200	-0.070
2020/01/31 13:31:29.9	1.080	0.010	-0.280	-0.070
2020/01/31 13:31:30.0	1.070	0.030	-0.350	-0.070
2020/01/31 13:31:30.1	1.070	0.050	-0.430	-0.070
2020/01/31 13:31:30.2	1.060	0.070	-0.510	-0.070
2020/01/31 13:31:30.3	1.060	0.080	-0.580	-0.070
2020/01/31 13:31:30.4	1.060	0.100	-0.660	-0.080
2020/01/31 13:31:30.5	1.070	0.110	-0.730	-0.090
2020/01/31 13:31:30.6	1.070	0.130	-0.800	-0.090
2020/01/31 13:31:30.7	1.080	0.140	-0.860	-0.110
2020/01/31 13:31:30.8	1.090	0.150	-0.920	-0.120
2020/01/31 13:31:30.9	1.110	0.160	-0.980	-0.140
2020/01/31 13:31:31.0	1.130	0.160	-1.040	-0.160
2020/01/31 13:31:31.1	1.150	0.170	-1.080	-0.180
2020/01/31 13:31:31.2	1.170	0.170	-1.130	-0.200
2020/01/31 13:31:31.3	1.200	0.170	-1.170	-0.220
2020/01/31 13:31:31.4	1.230	0.170	-1.200	-0.250
2020/01/31 13:31:31.5	1.260	0.170	-1.230	-0.270
2020/01/31 13:31:31.6	1.300	0.170	-1.250	-0.300
2020/01/31 13:31:31.7	1.330	0.160	-1.270	-0.320
2020/01/31 13:31:31.8	1.370	0.160	-1.280	-0.350
2020/01/31 13:31:31.9	1.400	0.150	-1.280	-0.370
2020/01/31 13:31:32.0	1.440	0.140	-1.280	-0.390
2020/01/31 13:31:32.1	1.480	0.130	-1.270	-0.410
2020/01/31 13:31:32.2	1.520	0.120	-1.250	-0.430
2020/01/31 13:31:32.3	1.560	0.110	-1.230	-0.450
2020/01/31 13:31:32.4	1.600	0.100	-1.200	-0.470
2020/01/31 13:31:32.5	1.640	0.090	-1.170	-0.480
2020/01/31 13:31:32.6	1.680	0.080	-1.140	-0.490
2020/01/31 13:31:32.7	1.710	0.070	-1.090	-0.500
2020/01/31 13:31:32.8	1.750	0.050	-1.050	-0.510
2020/01/31 13:31:32.9	1.780	0.040	-0.990	-0.520
2020/01/31 13:31:33.0	1.820	0.030	-0.940	-0.520
2020/01/31 13:31:33.1	1.850	0.010	-0.880	-0.530
2020/01/31 13:31:33.2	1.880	0.000	-0.810	-0.530
2020/01/31 13:31:33.3	1.910	-0.010	-0.750	-0.530
2020/01/31 13:31:33.4	1.930	-0.020	-0.680	-0.540
2020/01/31 13:31:33.5	1.950	-0.030	-0.610	-0.540
2020/01/31 13:31:33.6	1.970	-0.040	-0.540	-0.530
2020/01/31 13:31:33.7	1.990	-0.050	-0.460	-0.530
2020/01/31 13:31:33.8	2.010	-0.060	-0.390	-0.520
2020/01/31 13:31:33.9	2.020	-0.070	-0.320	-0.520
2020/01/31 13:31:34.0	2.030	-0.080	-0.240	-0.510
2020/01/31 13:31:34.1	2.040	-0.090	-0.170	-0.500
2020/01/31 13:31:34.2	2.050	-0.100	-0.100	-0.480
2020/01/31 13:31:34.3	2.050	-0.100	-0.030	-0.470
2020/01/31 13:31:34.4	2.050	-0.110	0.040	-0.440
2020/01/31 13:31:34.5	2.040	-0.110	0.100	-0.420
2020/01/31 13:31:34.6	2.040	-0.120	0.160	-0.390
2020/01/31 13:31:34.7	2.030	-0.120	0.220	-0.360
2020/01/31 13:31:34.8	2.020	-0.130	0.280	-0.330
2020/01/31 13:31:34.9	2.000	-0.130	0.330	-0.300
2020/01/31 13:31:35.0	1.970	-0.140	0.380	-0.260
2020/01/31 13:31:35.1	1.950	-0.140	0.420	-0.230
2020/01/31 13:31:35.2	1.920	-0.140	0.460	-0.190
2020/01/31 13:31:35.3	1.890	-0.150	0.500	-0.160
2020/01/31 13:31:35.4	1.860	-0.150	0.530	-0.120
2020/01/31 13:31:35.5	1.820	-0.150	0.550	-0.080
2020/01/31 13:31:35.6	1.790	-0.150	0.570	-0.040
2020/01/31 13:31:35.7	1.750	-0.160	0.590	-0.010
2020/01/31 13:31:35.8	1.710	-0.160	0.600	0.030
2020/01/31 13:31:35.9	1.670	-0.160	0.600	0.060
2020/01/31 13:31:36.0	1.640	-0.160	0.600	0.100
2020/01/31 13:31:36.1	1.600	-0.160	0.600	0.130
2020/01/31 13:31:36.2	1.560	-0.150	0.590	0.160
2020/01/31 13:31:36.3	1.520	-0.150	0.580	0.190
2020/01/31 13:31:36.4	1.480	-0.150	0.560	0.220
2020/01/31 13:31:36.5	1.450	-0.140	0.540	0.250
2020/01/31 13:31:36.6	1.420	-0.130	0.520	0.280
2020/01/31 13:31:36.7	1.380	-0.120	0.490	0.300
2020/01/31 13:31:36.8	1.350	-0.110	0.460	0.330
2020/01/31 13:31:36.9	1.320	-0.100	0.430	0.350
2020/01/31 13:31:37.0	1.290	-0.090	0.390	0.380
2020/01/31 13:31:37.1	1.260	-0.070	0.350	0.400
2020/01/31 13:31:37.2	1.230	-0.050	0.310	0.430
2020/01/31 13:31:37.3	1.210	-0.030	0.270	0.450
2020/01/31 13:31:37.4	1.180	-0.010	0.220	0.470
2020/01/31 13:31:37.5	1.160	0.020	0.170	0.490
2020/01/31 13:31:37.6	1.140	0.040	0.130	0.520
2020/01/31 13:31:37.7	1.130	0.070	0.080	0.540
2020/01/31 13:31:37.8	1.110	0.100	0.030	0.560
2020/01/31 13:31:37.9	1.100	0.130	-0.020	0.580
2020/01/31 13:31:38.0	1.090	0.160	-0.070	0.600
2020/01/31 13:31:38.1	1.080	0.190	-0.110	0.610
2020/01/31 13:31:38.2	1.070	0.230	-0.160	0.630
2020/01/31 13:31:38.3	1.060	0.260	-0.210	0.640
2020/01/31 13:31:38.4	1.060	0.290	-0.250	0.660
2020/01/31 13:31:38.5	1.050	0.320	-0.290	0.670
2020/01/31 13:31:38.6	1.050	0.350	-0.340	0.680
2020/01/31 13:31:38.7	1.050	0.380	-0.380	0.690
2020/01/31 13:31:38.8	1.050	0.410	-0.420	0.690
2020/01/31 13:31:38.9	1.040	0.430	-0.450	0.690
2020/01/31 13:31:39.0	1.040	0.460	-0.490	0.690
2020/01/31 13:31:39.1	1.040	0.480	-0.520	0.680
2020/01/31 13:31:39.2	1.040	0.500	-0.550	0.680
2020/01/31 13:31:39.3	1.040	0.510	-0.580	0.670
2020/01/31 13:31:39.4	1.040	0.520	-0.600	0.660
2020/01/31 13:31:39.5	1.030	0.530	-0.620	0.650
2020/01/31 13:31:39.6	1.040	0.540	-0.650	0.630
2020/01/31 13:31:39.7	1.030	0.540	-0.660	0.620
2020/01/31 13:31:39.8	1.030	0.540	-0.680	0.600
2020/01/31 13:31:39.9	1.030	0.530	-0.690	0.580
2020/01/31 13:31:40.0	1.030	0.520	-0.700	0.560
2020/01/31 13:31:40.1	1.030	0.510	-0.700	0.540
2020/01/31 13:31:40.2	1.030	0.490	-0.700	0.520
2020/01/31 13:31:40.3	1.030	0.470	-0.710	0.490
2020/01/31 13:31:40.4	1.030	0.440	-0.700	0.470
2020/01/31 13:31:40.5	1.030	0.420	-0.700	0.440
2020/01/31 13:31:40.6	1.030	0.380	-0.690	0.410
2020/01/31 13:31:40.7	1.040	0.350	-0.690	0.370
2020/01/31 13:31:40.8	1.050	0.310	-0.680	0.340
2020/01/31 13:31:40.9	1.060	0.270	-0.670	0.300
2020/01/31 13:31:41.0	1.070	0.230	-0.650	0.260
2020/01/31 13:31:41.1	1.090	0.180	-0.640	0.210
2020/01/31 13:31:41.2	1.110	0.140	-0.630	0.160
2020/01/31 13:31:41.3	1.130	0.090	-0.610	0.110
2020/01/31 13:31:41.4	1.150	0.040	-0.590	0.050
2020/01/31 13:31:41.5	1.170	-0.010	-0.580	-0.010
2020/01/31 13:31:41.6	1.200	-0.060	-0.560	-0.080
2020/01/31 13:31:41.7	1.230	-0.110	-0.550	-0.140
2020/01/31 13:31:41.8	1.260	-0.150	-0.530	-0.210
2020/01/31 13:31:41.9	1.290	-0.200	-0.510	-0.290
2020/01/31 13:31:42.0	1.320	-0.250	-0.500	-0.360
2020/01/31 13:31:42.1	1.350	-0.290	-0.480	-0.430
2020/01/31 13:31:42.2	1.380	-0.340	-0.460	-0.510
2020/01/31 13:31:42.3	1.410	-0.380	-0.440	-0.580
2020/01/31 13:31:42.4	1.450	-0.420	-0.420	-0.650
2020/01/31 13:31:42.5	1.480	-0.450	-0.400	-0.720
2020/01/31 13:31:42.6	1.510	-0.490	-0.380	-0.790
2020/01/31 13:31:42.7	1.540	-0.520	-0.360	-0.850
2020/01/31 13:31:42.8	1.560	-0.540	-0.340	-0.910
2020/01/31 13:31:42.9	1.580	-0.570	-0.310	-0.960
2020/01/31 13:31:43.0	1.600	-0.590	-0.280	-1.010
2020/01/31 13:31:43.1	1.610	-0.610	-0.250	-1.050
2020/01/31 13:31:43.2	1.620	-0.620	-0.220	-1.080
2020/01/31 13:31:43.3	1.620	-0.630	-0.190	-1.110
2020/01/31 13:31:43.4	1.620	-0.640	-0.150	-1.130
2020/01/31 13:31:43.5	1.620	-0.640	-0.120	-1.140
2020/01/31 13:31:43.6	1.610	-0.640	-0.080	-1.150
2020/01/31 13:31:43.7	1.600	-0.640	-0.050	-1.150
2020/01/31 13:31:43.8	1.580	-0.630	-0.010	-1.150
2020/01/31 13:31:43.9	1.570	-0.620	0.030	-1.140
2020/01/31 13:31:44.0	1.550	-0.610	0.060	-1.130
2020/01/31 13:31:44.1	1.520	-0.590	0.100	-1.110
2020/01/31 13:31:44.2	1.500	-0.580	0.130	-1.090
2020/01/31 13:31:44.3	1.470	-0.560	0.160	-1.060
2020/01/31 13:31:44.4	1.450	-0.530	0.190	-1.030
2020/01/31 13:31:44.5	1.420	-0.510	0.220	-1.000
2020/01/31 13:31:44.6	1.390	-0.480	0.240	-0.960
2020/01/31 13:31:44.7	1.360	-0.450	0.260	-0.930
2020/01/31 13:31:44.8	1.330	-0.420	0.270	-0.890
2020/01/31 13:31:44.9	1.300	-0.380	0.280	-0.850
2020/01/31 13:31:45.0	1.280	-0.350	0.280	-0.810
2020/01/31 13:31:45.1	1.250	-0.310	0.280	-0.770
2020/01/31 13:31:45.2	1.230	-0.270	0.280	-0.730
2020/01/31 13:31:45.3	1.210	-0.230	0.260	-0.690
2020/01/31 13:31:45.4	1.190	-0.190	0.250	-0.650
2020/01/31 13:31:45.5	1.170	-0.150	0.230	-0.600
2020/01/31 13:31:45.6	1.140	-0.110	0.210	-0.560
2020/01/31 13:31:45.7	1.130	-0.070	0.180	-0.510
2020/01/31 13:31:45.8	1.110	-0.030	0.150	-0.460
2020/01/31 13:31:45.9	1.090	0.010	0.110	-0.410
2020/01/31 13:31:46.0	1.080	0.050	0.070	-0.360
2020/01/31 13:31:46.1	1.060	0.090	0.040	-0.310
2020/01/31 13:31:46.2	1.050	0.130	-0.010	-0.260
2020/01/31 13:31:46.3	1.040	0.160	-0.050	-0.210
2020/01/31 13:31:46.4	1.030	0.200	-0.090	-0.160
2020/01/31 13:31:46.5	1.020	0.230	-0.140	-0.110
2020/01/31 13:31:46.6	1.000	0.260	-0.180	-0.060
2020/01/31 13:31:46.7	1.000	0.290	-0.230	-0.020
2020/01/31 13:31:46.8	1.000	0.310	-0.270	0.020
2020/01/31 13:31:46.9	1.000	0.330	-0.310	0.060
2020/01/31 13:31:47.0	1.000	0.350	-0.350	0.100
2020/01/31 13:31:47.1	1.000	0.370	-0.390	0.130
2020/01/31 13:31:47.2	1.010	0.390	-0.430	0.160
2020/01/31 13:31:47.3	1.010	0.400	-0.470	0.180
2020/01/31 13:31:47.4	1.020	0.410	-0.500	0.200
2020/01/31 13:31:47.5	1.040	0.420	-0.530	0.210
2020/01/31 13:31:47.6	1.050	0.420	-0.560	0.230
2020/01/31 13:31:47.7	1.060	0.420	-0.580	0.240
2020/01/31 13:31:47.8	1.080	0.430	-0.600	0.240
2020/01/31 13:31:47.9	1.100	0.420	-0.610	0.250
2020/01/31 13:31:48.0	1.110	0.420	-0.630	0.250
2020/01/31 13:31:48.1	1.130	0.420	-0.640	0.250
2020/01/31 13:31:48.2	1.150	0.410	-0.640	0.250
2020/01/31 13:31:48.3	1.170	0.400	-0.640	0.250
2020/01/31 13:31:48.4	1.190	0.390	-0.630	0.250
2020/01/31 13:31:48.5	1.210	0.380	-0.620	0.250
2020/01/31 13:31:48.6	1.220	0.370	-0.610	0.250
2020/01/31 13:31:48.7	1.230	0.350	-0.590	0.250
2020/01/31 13:31:48.8	1.240	0.340	-0.570	0.260
2020/01/31 13:31:48.9	1.260	0.320	-0.550	0.260
2020/01/31 13:31:49.0	1.270	0.310	-0.520	0.270
2020/01/31 13:31:49.1	1.270	0.290	-0.490	0.280
2020/01/31 13:31:49.2	1.280	0.270	-0.460	0.290
2020/01/31 13:31:49.3	1.280	0.250	-0.420	0.300
2020/01/31 13:31:49.4	1.280	0.230	-0.380	0.310
2020/01/31 13:31:49.5	1.280	0.210	-0.340	0.320
2020/01/31 13:31:49.6	1.280	0.190	-0.310	0.340
2020/01/31 13:31:49.7	1.280	0.170	-0.270	0.350
2020/01/31 13:31:49.8	1.270	0.140	-0.230	0.360
2020/01/31 13:31:49.9	1.270	0.120	-0.190	0.380
2020/01/31 13:31:50.0	1.260	0.100	-0.150	0.390
2020/01/31 13:31:50.1	1.250	0.080	-0.120	0.400
2020/01/31 13:31:50.2	1.240	0.050	-0.080	0.410
2020/01/31 13:31:50.3	1.230	0.030	-0.050	0.420
2020/01/31 13:31:50.4	1.220	0.010	-0.030	0.430
2020/01/31 13:31:50.5	1.210	-0.010	-0.010	0.430
2020/01/31 13:31:50.6	1.210	-0.040	0.010	0.440
2020/01/31 13:31:50.7	1.200	-0.060	0.030	0.440
2020/01/31 13:31:50.8	1.180	-0.080	0.040	0.440
2020/01/31 13:31:50.9	1.170	-0.090	0.040	0.440
2020/01/31 13:31:51.0	1.160	-0.110	0.050	0.430
2020/01/31 13:31:51.1	1.150	-0.130	0.040	0.430
2020/01/31 13:31:51.2	1.130	-0.140	0.040	0.420
2020/01/31 13:31:51.3	1.120	-0.160	0.030	0.410
2020/01/31 13:31:51.4	1.100	-0.170	0.010	0.410
2020/01/31 13:31:51.5	1.090	-0.180	-0.000	0.400
2020/01/31 13:31:51.6	1.080	-0.190	-0.020	0.390
2020/01/31 13:31:51.7	1.060	-0.200	-0.040	0.380
2020/01/31 13:31:51.8	1.050	-0.200	-0.060	0.360
2020/01/31 13:31:51.9	1.030	-0.210	-0.090	0.350
2020/01/31 13:31:52.0	1.020	-0.210	-0.110	0.340
2020/01/31 13:31:52.1	1.000	-0.210	-0.130	0.330
2020/01/31 13:31:52.2	0.980	-0.210	-0.150	0.310
2020/01/31 13:31:52.3	0.970	-0.210	-0.180	0.300
2020/01/31 13:31:52.4	0.960	-0.200	-0.200	0.290
2020/01/31 13:31:52.5	0.940	-0.200	-0.220	0.270
2020/01/31 13:31:52.6	0.920	-0.190	-0.230	0.260
2020/01/31 13:31:52.7	0.910	-0.180	-0.250	0.240
2020/01/31 13:31:52.8	0.900	-0.170	-0.260	0.230
2020/01/31 13:31:52.9	0.890	-0.160	-0.280	0.220
2020/01/31 13:31:53.0	0.880	-0.140	-0.290	0.210
2020/01/31 13:31:53.1	0.880	-0.120	-0.290	0.190
2020/01/31 13:31:53.2	0.870	-0.100	-0.300	0.180
2020/01/31 13:31:53.3	0.860	-0.080	-0.300	0.170
2020/01/31 13:31:53.4	0.860	-0.060	-0.310	0.160
2020/01/31 13:31:53.5	0.850	-0.040	-0.310	0.150
2020/01/31 13:31:53.6	0.840	-0.010	-0.310	0.140
2020/01/31 13:31:53.7	0.830	0.010	-0.300	0.140
2020/01/31 13:31:53.8	0.830	0.040	-0.300	0.130
2020/01/31 13:31:53.9	0.830	0.070	-0.300	0.130
2020/01/31 13:31:54.0	0.830	0.100	-0.290	0.120
2020/01/31 13:31:54.1	0.830	0.130	-0.290	0.120
2020/01/31 13:31:54.2	0.830	0.160	-0.280	0.120
2020/01/31 13:31:54.3	0.830	0.190	-0.280	0.120
2020/01/31 13:31:54.4	0.830	0.220	-0.280	0.110
2020/01/31 13:31:54.5	0.840	0.250	-0.270	0.110
2020/01/31 13:31:54.6	0.840	0.280	-0.270	0.110
2020/01/31 13:31:54.7	0.850	0.310	-0.270	0.110
2020/01/31 13:31:54.8	0.860	0.330	-0.270	0.100
2020/01/31 13:31:54.9	0.870	0.360	-0.270	0.090
2020/01/31 13:31:55.0	0.880	0.380	-0.280	0.080
2020/01/31 13:31:55.1	0.890	0.400	-0.280	0.070
2020/01/31 13:31:55.2	0.910	0.420	-0.290	0.060
2020/01/31 13:31:55.3	0.920	0.430	-0.290	0.040
2020/01/31 13:31:55.4	0.940	0.440	-0.300	0.020
2020/01/31 13:31:55.5	0.960	0.440	-0.310	0.010
2020/01/31 13:31:55.6	1.000	0.450	-0.320	-0.010
2020/01/31 13:31:55.7	1.010	0.440	-0.320	-0.030
2020/01/31 13:31:55.8	1.030	0.440	-0.330	-0.050
2020/01/31 13:31:55.9	1.050	0.430	-0.340	-0.070
2020/01/31 13:31:56.0	1.060	0.410	-0.340	-0.100
2020/01/31 13:31:56.1	1.080	0.390	-0.340	-0.120
2020/01/31 13:31:56.2	1.090	0.370	-0.340	-0.140
2020/01/31 13:31:56.3	1.110	0.340	-0.340	-0.170
2020/01/31 13:31:56.4	1.120	0.310	-0.340	-0.190
2020/01/31 13:31:56.5	1.130	0.270	-0.330	-0.220
2020/01/31 13:31:56.6	1.150	0.230	-0.320	-0.250
2020/01/31 13:31:56.7	1.160	0.180	-0.310	-0.270
2020/01/31 13:31:56.8	1.170	0.130	-0.300	-0.300
2020/01/31 13:31:56.9	1.180	0.080	-0.290	-0.320
2020/01/31 13:31:57.0	1.190	0.030	-0.270	-0.350
2020/01/31 13:31:57.1	1.190	-0.030	-0.260	-0.370
2020/01/31 13:31:57.2	1.200	-0.090	-0.240	-0.400
2020/01/31 13:31:57.3	1.200	-0.140	-0.220	-0.420
2020/01/31 13:31:57.4	1.200	-0.200	-0.190	-0.440
2020/01/31 13:31:57.5	1.210	-0.260	-0.170	-0.460
2020/01/31 13:31:57.6	1.220	-0.320	-0.150	-0.470
2020/01/31 13:31:57.7	1.220	-0.380	-0.120	-0.490
2020/01/31 13:31:57.8	1.220	-0.430	-0.100	-0.500
2020/01/31 13:31:57.9	1.210	-0.490	-0.070	-0.520
2020/01/31 13:31:58.0	1.210	-0.540	-0.040	-0.530
2020/01/31 13:31:58.1	1.210	-0.590	-0.020	-0.530
2020/01/31 13:31:58.2	1.200	-0.630	0.010	-0.540
2020/01/31 13:31:58.3	1.190	-0.670	0.030	-0.550
2020/01/31 13:31:58.4	1.190	-0.710	0.050	-0.560
2020/01/31 13:31:58.5	1.180	-0.750	0.070	-0.560
2020/01/31 13:31:58.6	1.180	-0.780	0.090	-0.570
2020/01/31 13:31:58.7	1.170	-0.800	0.100	-0.580
2020/01/31 13:31:58.8	1.160	-0.820	0.110	-0.590
2020/01/31 13:31:58.9	1.150	-0.840	0.120	-0.600
2020/01/31 13:31:59.0	1.140	-0.850	0.130	-0.610
2020/01/31 13:31:59.1	1.130	-0.850	0.130	-0.620
2020/01/31 13:31:59.2	1.120	-0.850	0.120	-0.640
2020/01/31 13:31:59.3	1.120	-0.850	0.120	-0.650
2020/01/31 13:31:59.4	1.100	-0.840	0.100	-0.660
2020/01/31 13:31:59.5	1.090	-0.820	0.090	-0.680
2020/01/31 13:31:59.6	1.070	-0.800	0.070	-0.690
2020/01/31 13:31:59.7	1.060	-0.770	0.040	-0.700
2020/01/31 13:31:59.8	1.050	-0.740	0.020	-0.710
2020/01/31 13:31:59.9	1.030	-0.710	-0.010	-0.720
2020/01/31 13:32:00.0	1.020	-0.670	-0.030	-0.730
2020/01/31 13:32:00.1	1.000	-0.630	-0.070	-0.730
2020/01/31 13:32:00.2	0.980	-0.580	-0.100	-0.740
2020/01/31 13:32:00.3	0.960	-0.530	-0.130	-0.730
2020/01/31 13:32:00.4	0.940	-0.480	-0.160	-0.730
2020/01/31 13:32:00.5	0.920	-0.430	-0.200	-0.720
2020/01/31 13:32:00.6	0.910	-0.370	-0.230	-0.710
2020/01/31 13:32:00.7	0.880	-0.310	-0.260	-0.700
2020/01/31 13:32:00.8	0.860	-0.250	-0.290	-0.680
2020/01/31 13:32:00.9	0.830	-0.190	-0.320	-0.660
2020/01/31 13:32:01.0	0.810	-0.130	-0.350	-0.630
2020/01/31 13:32:01.1	0.780	-0.070	-0.370	-0.610
2020/01/31 13:32:01.2	0.760	-0.010	-0.400	-0.580
2020/01/31 13:32:01.3	0.740	0.050	-0.420	-0.550
2020/01/31 13:32:01.4	0.710	0.110	-0.440	-0.510
2020/01/31 13:32:01.5	0.690	0.170	-0.460	-0.480
2020/01/31 13:32:01.6	0.680	0.220	-0.480	-0.430
2020/01/31 13:32:01.7	0.660	0.280	-0.490	-0.400
2020/01/31 13:32:01.8	0.640	0.330	-0.500	-0.360
2020/01/31 13:32:01.9	0.630	0.380	-0.520	-0.310
2020/01/31 13:32:02.0	0.610	0.420	-0.530	-0.270
2020/01/31 13:32:02.1	0.600	0.470	-0.540	-0.230
2020/01/31 13:32:02.2	0.590	0.510	-0.540	-0.180
2020/01/31 13:32:02.3	0.580	0.550	-0.550	-0.130
2020/01/31 13:32:02.4	0.570	0.580	-0.560	-0.080
2020/01/31 13:32:02.5	0.560	0.610	-0.560	-0.030
2020/01/31 13:32:02.6	0.540	0.640	-0.570	0.020
2020/01/31 13:32:02.7	0.530	0.670	-0.570	0.080
2020/01/31 13:32:02.8	0.520	0.690	-0.570	0.130
2020/01/31 13:32:02.9	0.520	0.700	-0.570	0.190
2020/01/31 13:32:03.0	0.510	0.720	-0.570	0.240
2020/01/31 13:32:03.1	0.500	0.730	-0.560	0.300
2020/01/31 13:32:03.2	0.490	0.730	-0.560	0.360
2020/01/31 13:32:03.3	0.490	0.740	-0.550	0.420
2020/01/31 13:32:03.4	0.480	0.740	-0.540	0.480
2020/01/31 13:32:03.5	0.480	0.740	-0.530	0.530
2020/01/31 13:32:03.6	0.470	0.730	-0.530	0.590
2020/01/31 13:32:03.7	0.470	0.730	-0.520	0.650
2020/01/31 13:32:03.8	0.460	0.720	-0.500	0.700
2020/01/31 13:32:03.9	0.460	0.710	-0.490	0.750
2020/01/31 13:32:04.0	0.460	0.690	-0.480	0.800
2020/01/31 13:32:04.1	0.460	0.680	-0.460	0.850
2020/01/31 13:32:04.2	0.460	0.660	-0.450	0.890
2020/01/31 13:32:04.3	0.460	0.650	-0.430	0.930
2020/01/31 13:32:04.4	0.470	0.630	-0.410	0.970
2020/01/31 13:32:04.5	0.480	0.610	-0.390	1.000
2020/01/31 13:32:04.6	0.500	0.590	-0.380	1.030
2020/01/31 13:32:04.7	0.520	0.570	-0.370	1.060
2020/01/31 13:32:04.8	0.530	0.550	-0.350	1.080
2020/01/31 13:32:04.9	0.550	0.530	-0.330	1.100
2020/01/31 13:32:05.0	0.570	0.510	-0.320	1.120
2020/01/31 13:32:05.1	0.590	0.490	-0.300	1.130
2020/01/31 13:32:05.2	0.620	0.470	-0.280	1.140
2020/01/31 13:32:05.3	0.650	0.450	-0.270	1.140
2020/01/31 13:32:05.4	0.680	0.430	-0.260	1.130
2020/01/31 13:32:05.5	0.720	0.400	-0.250	1.120
2020/01/31 13:32:05.6	0.750	0.380	-0.230	1.120
2020/01/31 13:32:05.7	0.790	0.360	-0.220	1.100
2020/01/31 13:32:05.8	0.820	0.330	-0.210	1.080
2020/01/31 13:32:05.9	0.860	0.310	-0.200	1.050
2020/01/31 13:32:06.0	0.900	0.280	-0.190	1.020
2020/01/31 13:32:06.1	0.930	0.250	-0.180	0.990
2020/01/31 13:32:06.2	0.960	0.220	-0.170	0.950
2020/01/31 13:32:06.3	0.990	0.190	-0.160	0.910
2020/01/31 13:32:06.4	1.010	0.150	-0.140	0.870
2020/01/31 13:32:06.5	1.030	0.120	-0.130	0.820
2020/01/31 13:32:06.6	1.050	0.070	-0.110	0.770
2020/01/31 13:32:06.7	1.060	0.030	-0.090	0.720
2020/01/31 13:32:06.8	1.080	-0.010	-0.070	0.670
2020/01/31 13:32:06.9	1.080	-0.060	-0.050	0.620
2020/01/31 13:32:07.0	1.080	-0.110	-0.020	0.560
2020/01/31 13:32:07.1	1.080	-0.170	0.000	0.510
2020/01/31 13:32:07.2	1.080	-0.220	0.030	0.450
2020/01/31 13:32:07.3	1.070	-0.280	0.060	0.390
2020/01/31 13:32:07.4	1.050	-0.330	0.080	0.330
2020/01/31 13:32:07.5	1.040	-0.390	0.110	0.270
2020/01/31 13:32:07.6	1.030	-0.450	0.140	0.210
2020/01/31 13:32:07.7	1.010	-0.510	0.170	0.150
2020/01/31 13:32:07.8	0.980	-0.570	0.200	0.090
2020/01/31 13:32:07.9	0.960	-0.620	0.230	0.030
2020/01/31 13:32:08.0	0.930	-0.680	0.260	-0.030
2020/01/31 13:32:08.1	0.900	-0.730	0.290	-0.080
2020/01/31 13:32:08.2	0.860	-0.790	0.310	-0.140
2020/01/31 13:32:08.3	0.830	-0.840	0.340	-0.200
2020/01/31 13:32:08.4	0.790	-0.890	0.360	-0.260
2020/01/31 13:32:08.5	0.750	-0.930	0.380	-0.320
2020/01/31 13:32:08.6	0.700	-0.970	0.390	-0.380
2020/01/31 13:32:08.7	0.660	-1.000	0.410	-0.440
2020/01/31 13:32:08.8	0.620	-1.030	0.410	-0.500
2020/01/31 13:32:08.9	0.580	-1.050	0.420	-0.560
2020/01/31 13:32:09.0	0.550	-1.070	0.420	-0.620
2020/01/31 13:32:09.1	0.510	-1.080	0.410	-0.680
2020/01/31 13:32:09.2	0.480	-1.080	0.400	-0.740
2020/01/31 13:32:09.3	0.440	-1.080	0.380	-0.790
2020/01/31 13:32:09.4	0.410	-1.070	0.360	-0.850
2020/01/31 13:32:09.5	0.380	-1.050	0.340	-0.900
2020/01/31 13:32:09.6	0.370	-1.030	0.310	-0.950
2020/01/31 13:32:09.7	0.340	-0.990	0.270	-1.000
2020/01/31 13:32:09.8	0.320	-0.950	0.230	-1.050
2020/01/31 13:32:09.9	0.300	-0.910	0.180	-1.090
2020/01/31 13:32:10.0	0.280	-0.850	0.130	-1.130
2020/01/31 13:32:10.1	0.270	-0.790	0.080	-1.170
2020/01/31 13:32:10.2	0.260	-0.730	0.020	-1.210
2020/01/31 13:32:10.3	0.240	-0.660	-0.040	-1.240
2020/01/31 13:32:10.4	0.240	-0.580	-0.100	-1.270
2020/01/31 13:32:10.5	0.230	-0.510	-0.170	-1.300
2020/01/31 13:32:10.6	0.230	-0.420	-0.230	-1.310
2020/01/31 13:32:10.7	0.220	-0.340	-0.300	-1.330
2020/01/31 13:32:10.8	0.220	-0.250	-0.360	-1.350
2020/01/31 13:32:10.9	0.220	-0.160	-0.420	-1.360
2020/01/31 13:32:11.0	0.220	-0.080	-0.480	-1.360
2020/01/31 13:32:11.1	0.220	0.010	-0.540	-1.360
2020/01/31 13:32:11.2	0.220	0.100	-0.600	-1.360
2020/01/31 13:32:11.3	0.230	0.180	-0.650	-1.360
2020/01/31 13:32:11.4	0.230	0.260	-0.690	-1.350
2020/01/31 13:32:11.5	0.230	0.340	-0.740	-1.330
2020/01/31 13:32:11.6	0.240	0.420	-0.780	-1.310
2020/01/31 13:32:11.7	0.250	0.480	-0.810	-1.290
2020/01/31 13:32:11.8	0.250	0.550	-0.840	-1.260
2020/01/31 13:32:11.9	0.250	0.610	-0.860	-1.230
2020/01/31 13:32:12.0	0.250	0.660	-0.870	-1.200
2020/01/31 13:32:12.1	0.250	0.710	-0.880	-1.160
2020/01/31 13:32:12.2	0.250	0.740	-0.890	-1.120
2020/01/31 13:32:12.3	0.240	0.780	-0.890	-1.080
2020/01/31 13:32:12.4	0.240	0.800	-0.880	-1.030
2020/01/31 13:32:12.5	0.230	0.820	-0.870	-0.980
2020/01/31 13:32:12.6	0.230	0.840	-0.850	-0.920
2020/01/31 13:32:12.7	0.220	0.840	-0.830	-0.860
2020/01/31 13:32:12.8	0.210	0.840	-0.800	-0.790
2020/01/31 13:32:12.9	0.200	0.830	-0.770	-0.730
2020/01/31 13:32:13.0	0.190	0.820	-0.740	-0.660
2020/01/31 13:32:13.1	0.180	0.800	-0.700	-0.590
2020/01/31 13:32:13.2	0.170	0.780	-0.660	-0.510
2020/01/31 13:32:13.3	0.150	0.750	-0.620	-0.440
2020/01/31 13:32:13.4	0.140	0.710	-0.580	-0.360
2020/01/31 13:32:13.5	0.120	0.680	-0.540	-0.280
2020/01/31 13:32:13.6	0.090	0.630	-0.500	-0.200
2020/01/31 13:32:13.7	0.080	0.590	-0.460	-0.130
2020/01/31 13:32:13.8	0.070	0.540	-0.430	-0.060
2020/01/31 13:32:13.9	0.060	0.490	-0.390	0.010
2020/01/31 13:32:14.0	0.050	0.440	-0.360	0.080
2020/01/31 13:32:14.1	0.040	0.390	-0.330	0.140
2020/01/31 13:32:14.2	0.030	0.330	-0.310	0.200
2020/01/31 13:32:14.3	0.030	0.280	-0.290	0.250
2020/01/31 13:32:14.4	0.030	0.230	-0.270	0.290
2020/01/31 13:32:14.5	0.030	0.180	-0.260	0.340
2020/01/31 13:32:14.6	0.020	0.130	-0.260	0.370
2020/01/31 13:32:14.7	0.020	0.090	-0.250	0.400
2020/01/31 13:32:14.8	0.030	0.040	-0.250	0.430
2020/01/31 13:32:14.9	0.050	0.000	-0.250	0.450
2020/01/31 13:32:15.0	0.060	-0.040	-0.260	0.470
2020/01/31 13:32:15.1	0.080	-0.070	-0.270	0.480
2020/01/31 13:32:15.2	0.100	-0.100	-0.280	0.490
2020/01/31 13:32:15.3	0.120	-0.130	-0.290	0.490
2020/01/31 13:32:15.4	0.140	-0.150	-0.300	0.490
2020/01/31 13:32:15.5	0.160	-0.170	-0.310	0.490
2020/01/31 13:32:15.6	0.190	-0.190	-0.320	0.490
2020/01/31 13:32:15.7	0.220	-0.200	-0.330	0.480
2020/01/31 13:32:15.8	0.240	-0.210	-0.330	0.480
2020/01/31 13:32:15.9	0.260	-0.210	-0.340	0.470
2020/01/31 13:32:16.0	0.290	-0.210	-0.340	0.460
2020/01/31 13:32:16.1	0.310	-0.210	-0.340	0.450
2020/01/31 13:32:16.2	0.340	-0.210	-0.340	0.440
2020/01/31 13:32:16.3	0.360	-0.200	-0.330	0.420
2020/01/31 13:32:16.4	0.380	-0.190	-0.320	0.410
2020/01/31 13:32:16.5	0.400	-0.180	-0.310	0.400
2020/01/31 13:32:16.6	0.430	-0.170	-0.290	0.390
2020/01/31 13:32:16.7	0.450	-0.160	-0.270	0.370
2020/01/31 13:32:16.8	0.470	-0.140	-0.250	0.360
2020/01/31 13:32:16.9	0.490	-0.130	-0.230	0.350
2020/01/31 13:32:17.0	0.510	-0.110	-0.200	0.330
2020/01/31 13:32:17.1	0.530	-0.100	-0.170	0.320
2020/01/31 13:32:17.2	0.550	-0.090	-0.140	0.300
2020/01/31 13:32:17.3	0.570	-0.070	-0.110	0.290
2020/01/31 13:32:17.4	0.590	-0.060	-0.080	0.270
2020/01/31 13:32:17.5	0.600	-0.040	-0.050	0.260
2020/01/31 13:32:17.6	0.610	-0.030	-0.020	0.240
2020/01/31 13:32:17.7	0.630	-0.020	0.010	0.230
2020/01/31 13:32:17.8	0.640	-0.010	0.040	0.220
2020/01/31 13:32:17.9	0.660	-0.010	0.070	0.210
2020/01/31 13:32:18.0	0.670	0.000	0.090	0.200
2020/01/31 13:32:18.1	0.680	0.000	0.120	0.200
2020/01/31 13:32:18.2	0.690	0.010	0.140	0.190
2020/01/31 13:32:18.3	0.700	0.010	0.170	0.190
2020/01/31 13:32:18.4	0.700	0.010	0.190	0.180
2020/01/31 13:32:18.5	0.700	0.000	0.210	0.180
2020/01/31 13:32:18.6	0.700	-0.010	0.220	0.180
2020/01/31 13:32:18.7	0.700	-0.010	0.240	0.180
2020/01/31 13:32:18.8	0.690	-0.020	0.250	0.180
2020/01/31 13:32:18.9	0.680	-0.040	0.270	0.180
2020/01/31 13:32:19.0	0.670	-0.050	0.280	0.180
2020/01/31 13:32:19.1	0.650	-0.070	0.290	0.190
2020/01/31 13:32:19.2	0.640	-0.080	0.300	0.190
2020/01/31 13:32:19.3	0.620	-0.100	0.300	0.190
2020/01/31 13:32:19.4	0.590	-0.120	0.310	0.190
2020/01/31 13:32:19.5	0.570	-0.140	0.310	0.190
2020/01/31 13:32:19.6	0.540	-0.160	0.300	0.190
2020/01/31 13:32:19.7	0.510	-0.170	0.300	0.200
2020/01/31 13:32:19.8	0.480	-0.190	0.290	0.200
2020/01/31 13:32:19.9	0.450	-0.210	0.280	0.200
2020/01/31 13:32:20.0	0.410	-0.230	0.270	0.200
2020/01/31 13:32:20.1	0.380	-0.240	0.250	0.190
2020/01/31 13:32:20.2	0.350	-0.250	0.230	0.190
2020/01/31 13:32:20.3	0.320	-0.260	0.210	0.190
2020/01/31 13:32:20.4	0.290	-0.270	0.180	0.180
2020/01/31 13:32:20.5	0.260	-0.270	0.150	0.180
2020/01/31 13:32:20.6	0.240	-0.280	0.120	0.170
2020/01/31 13:32:20.7	0.210	-0.270	0.090	0.160
2020/01/31 13:32:20.8	0.190	-0.270	0.050	0.150
2020/01/31 13:32:20.9	0.160	-0.260	0.010	0.130
2020/01/31 13:32:21.0	0.140	-0.250	-0.040	0.120
2020/01/31 13:32:21.1	0.120	-0.230	-0.090	0.100
2020/01/31 13:32:21.2	0.110	-0.210	-0.140	0.080
2020/01/31 13:32:21.3	0.100	-0.190	-0.190	0.060
2020/01/31 13:32:21.4	0.090	-0.160	-0.240	0.030
2020/01/31 13:32:21.5	0.080	-0.130	-0.300	0.010
2020/01/31 13:32:21.6	0.080	-0.100	-0.350	-0.020
2020/01/31 13:32:21.7	0.080	-0.060	-0.410	-0.050
2020/01/31 13:32:21.8	0.080	-0.020	-0.470	-0.080
2020/01/31 13:32:21.9	0.080	0.020	-0.530	-0.110
2020/01/31 13:32:22.0	0.090	0.060	-0.590	-0.140
2020/01/31 13:32:22.1	0.100	0.110	-0.640	-0.170
2020/01/31 13:32:22.2	0.110	0.150	-0.700	-0.200
2020/01/31 13:32:22.3	0.120	0.200	-0.750	-0.230
2020/01/31 13:32:22.4	0.130	0.240	-0.800	-0.260
2020/01/31 13:32:22.5	0.140	0.290	-0.850	-0.290
2020/01/31 13:32:22.6	0.150	0.330	-0.900	-0.320
2020/01/31 13:32:22.7	0.160	0.380	-0.940	-0.340
2020/01/31 13:32:22.8	0.180	0.420	-0.970	-0.370
2020/01/31 13:32:22.9	0.190	0.450	-1.000	-0.390
2020/01/31 13:32:23.0	0.210	0.490	-1.030	-0.410
2020/01/31 13:32:23.1	0.220	0.520	-1.050	-0.420
2020/01/31 13:32:23.2	0.240	0.540	-1.060	-0.440
2020/01/31 13:32:23.3	0.250	0.560	-1.060	-0.450
2020/01/31 13:32:23.4	0.260	0.580	-1.060	-0.460
2020/01/31 13:32:23.5	0.270	0.600	-1.050	-0.460
2020/01/31 13:32:23.6	0.280	0.600	-1.040	-0.470
2020/01/31 13:32:23.7	0.290	0.610	-1.020	-0.470
2020/01/31 13:32:23.8	0.300	0.600	-0.990	-0.470
2020/01/31 13:32:23.9	0.310	0.590	-0.960	-0.470
2020/01/31 13:32:24.0	0.320	0.580	-0.920	-0.470
2020/01/31 13:32:24.1	0.320	0.560	-0.880	-0.470
2020/01/31 13:32:24.2	0.330	0.540	-0.830	-0.470
2020/01/31 13:32:24.3	0.340	0.510	-0.780	-0.470
2020/01/31 13:32:24.4	0.350	0.480	-0.730	-0.470
2020/01/31 13:32:24.5	0.360	0.450	-0.670	-0.470
2020/01/31 13:32:24.6	0.360	0.410	-0.620	-0.460
2020/01/31 13:32:24.7	0.370	0.370	-0.550	-0.460
2020/01/31 13:32:24.8	0.380	0.320	-0.490	-0.460
2020/01/31 13:32:24.9	0.390	0.270	-0.430	-0.450
2020/01/31 13:32:25.0	0.400	0.220	-0.360	-0.450
2020/01/31 13:32:25.1	0.410	0.170	-0.300	-0.450
2020/01/31 13:32:25.2	0.420	0.120	-0.240	-0.450
2020/01/31 13:32:25.3	0.430	0.070	-0.180	-0.450
2020/01/31 13:32:25.4	0.450	0.010	-0.120	-0.450
2020/01/31 13:32:25.5	0.460	-0.040	-0.060	-0.450
2020/01/31 13:32:25.6	0.480	-0.100	-0.000	-0.440
2020/01/31 13:32:25.7	0.500	-0.150	0.050	-0.450
2020/01/31 13:32:25.8	0.510	-0.200	0.100	-0.450
2020/01/31 13:32:25.9	0.530	-0.250	0.140	-0.460
2020/01/31 13:32:26.0	0.550	-0.300	0.180	-0.470
2020/01/31 13:32:26.1	0.560	-0.340	0.220	-0.480
2020/01/31 13:32:26.2	0.580	-0.390	0.250	-0.490
2020/01/31 13:32:26.3	0.600	-0.430	0.280	-0.500
2020/01/31 13:32:26.4	0.620	-0.460	0.310	-0.520
2020/01/31 13:32:26.5	0.640	-0.500	0.330	-0.530
2020/01/31 13:32:26.6	0.660	-0.530	0.350	-0.550
2020/01/31 13:32:26.7	0.680	-0.550	0.360	-0.570
2020/01/31 13:32:26.8	0.690	-0.570	0.370	-0.590
2020/01/31 13:32:26.9	0.710	-0.590	0.380	-0.600
2020/01/31 13:32:27.0	0.720	-0.610	0.380	-0.620
2020/01/31 13:32:27.1	0.730	-0.620	0.380	-0.630
2020/01/31 13:32:27.2	0.740	-0.620	0.380	-0.640
2020/01/31 13:32:27.3	0.740	-0.620	0.380	-0.650
2020/01/31 13:32:27.4	0.740	-0.620	0.370	-0.650
2020/01/31 13:32:27.5	0.740	-0.620	0.370	-0.660
2020/01/31 13:32:27.6	0.750	-0.610	0.360	-0.650
2020/01/31 13:32:27.7	0.740	-0.600	0.350	-0.640
2020/01/31 13:32:27.8	0.730	-0.580	0.340	-0.630
2020/01/31 13:32:27.9	0.710	-0.570	0.340	-0.620
2020/01/31 13:32:28.0	0.690	-0.540	0.330	-0.600
2020/01/31 13:32:28.1	0.670	-0.520	0.320	-0.580
2020/01/31 13:32:28.2	0.650	-0.500	0.310	-0.550
2020/01/31 13:32:28.3	0.630	-0.470	0.300	-0.520
2020/01/31 13:32:28.4	0.600	-0.440	0.290	-0.480
2020/01/31 13:32:28.5	0.570	-0.410	0.290	-0.450
2020/01/31 13:32:28.6	0.550	-0.380	0.270	-0.410
2020/01/31 13:32:28.7	0.520	-0.350	0.260	-0.360
2020/01/31 13:32:28.8	0.490	-0.320	0.250	-0.320
2020/01/31 13:32:28.9	0.470	-0.290	0.240	-0.280
2020/01/31 13:32:29.0	0.440	-0.250	0.220	-0.230
2020/01/31 13:32:29.1	0.420	-0.220	0.210	-0.190
2020/01/31 13:32:29.2	0.400	-0.190	0.190	-0.140
2020/01/31 13:32:29.3	0.380	-0.160	0.160	-0.100
2020/01/31 13:32:29.4	0.370	-0.120	0.130	-0.060
2020/01/31 13:32:29.5	0.360	-0.090	0.100	-0.020
2020/01/31 13:32:29.6	0.360	-0.060	0.070	0.020
2020/01/31 13:32:29.7	0.360	-0.030	0.030	0.060
2020/01/31 13:32:29.8	0.360	0.000	-0.010	0.090
2020/01/31 13:32:29.9	0.360	0.030	-0.060	0.120
2020/01/31 13:32:30.0	0.360	0.060	-0.110	0.150
2020/01/31 13:32:30.1	0.370	0.090	-0.160	0.180
2020/01/31 13:32:30.2	0.380	0.110	-0.210	0.200
2020/01/31 13:32:30.3	0.390	0.140	-0.270	0.220
2020/01/31 13:32:30.4	0.400	0.160	-0.320	0.240
2020/01/31 13:32:30.5	0.410	0.180	-0.380	0.260
2020/01/31 13:32:30.6	0.430	0.200	-0.440	0.280
2020/01/31 13:32:30.7	0.440	0.220	-0.490	0.290
2020/01/31 13:32:30.8	0.450	0.240	-0.550	0.300
2020/01/31 13:32:30.9	0.460	0.250	-0.600	0.310
2020/01/31 13:32:31.0	0.470	0.260	-0.650	0.320
2020/01/31 13:32:31.1	0.480	0.270	-0.700	0.330
2020/01/31 13:32:31.2	0.490	0.280	-0.740	0.340
2020/01/31 13:32:31.3	0.490	0.290	-0.780	0.340
2020/01/31 13:32:31.4	0.490	0.300	-0.820	0.340
2020/01/31 13:32:31.5	0.500	0.300	-0.850	0.340
2020/01/31 13:32:31.6	0.490	0.300	-0.880	0.350
2020/01/31 13:32:31.7	0.490	0.300	-0.900	0.340
2020/01/31 13:32:31.8	0.490	0.300	-0.920	0.340
2020/01/31 13:32:31.9	0.490	0.300	-0.930	0.340
2020/01/31 13:32:32.0	0.490	0.300	-0.940	0.340
2020/01/31 13:32:32.1	0.490	0.300	-0.950	0.330
2020/01/31 13:32:32.2	0.490	0.290	-0.950	0.330
2020/01/31 13:32:32.3	0.490	0.290	-0.940	0.320
2020/01/31 13:32:32.4	0.490	0.290	-0.930	0.320
2020/01/31 13:32:32.5	0.500	0.280	-0.920	0.310
2020/01/31 13:32:32.6	0.510	0.280	-0.900	0.310
2020/01/31 13:32:32.7	0.510	0.280	-0.890	0.300
2020/01/31 13:32:32.8	0.520	0.270	-0.870	0.300
2020/01/31 13:32:32.9	0.520	0.270	-0.850	0.290
2020/01/31 13:32:33.0	0.530	0.270	-0.820	0.280
2020/01/31 13:32:33.1	0.540	0.270	-0.800	0.280
2020/01/31 13:32:33.2	0.550	0.270	-0.770	0.270
2020/01/31 13:32:33.3	0.570	0.270	-0.750	0.260
2020/01/31 13:32:33.4	0.580	0.270	-0.720	0.250
2020/01/31 13:32:33.5	0.600	0.280	-0.690	0.240
2020/01/31 13:32:33.6	0.620	0.280	-0.660	0.230
2020/01/31 13:32:33.7	0.640	0.280	-0.640	0.220
2020/01/31 13:32:33.8	0.670	0.290	-0.610	0.210
2020/01/31 13:32:33.9	0.690	0.290	-0.580	0.200
2020/01/31 13:32:34.0	0.710	0.290	-0.540	0.190
2020/01/31 13:32:34.1	0.730	0.300	-0.510	0.170
2020/01/31 13:32:34.2	0.750	0.300	-0.480	0.160
2020/01/31 13:32:34.3	0.770	0.300	-0.450	0.150
2020/01/31 13:32:34.4	0.790	0.300	-0.410	0.140
2020/01/31 13:32:34.5	0.810	0.300	-0.380	0.130
2020/01/31 13:32:34.6	0.820	0.300	-0.340	0.120
2020/01/31 13:32:34.7	0.840	0.290	-0.310	0.110
2020/01/31 13:32:34.8	0.850	0.290	-0.270	0.110
2020/01/31 13:32:34.9	0.860	0.280	-0.230	0.100
2020/01/31 13:32:35.0	0.870	0.270	-0.190	0.100
2020/01/31 13:32:35.1	0.880	0.260	-0.150	0.100
2020/01/31 13:32:35.2	0.890	0.250	-0.110	0.100
2020/01/31 13:32:35.3	0.890	0.240	-0.070	0.100
2020/01/31 13:32:35.4	0.890	0.220	-0.030	0.100
2020/01/31 13:32:35.5	0.900	0.200	0.020	0.110
2020/01/31 13:32:35.6	0.890	0.180	0.060	0.110
2020/01/31 13:32:35.7	0.890	0.160	0.100	0.120
2020/01/31 13:32:35.8	0.890	0.130	0.140	0.120
2020/01/31 13:32:35.9	0.890	0.110	0.170	0.130
2020/01/31 13:32:36.0	0.880	0.080	0.210	0.130
2020/01/31 13:32:36.1	0.880	0.050	0.250	0.130
2020/01/31 13:32:36.2	0.880	0.020	0.280	0.130
2020/01/31 13:32:36.3	0.870	-0.010	0.300	0.120
2020/01/31 13:32:36.4	0.870	-0.040	0.330	0.120
2020/01/31 13:32:36.5	0.870	-0.070	0.350	0.110
2020/01/31 13:32:36.6	0.880	-0.100	0.360	0.090
2020/01/31 13:32:36.7	0.880	-0.130	0.380	0.080
2020/01/31 13:32:36.8	0.890	-0.150	0.380	0.060
2020/01/31 13:32:36.9	0.890	-0.180	0.380	0.030
2020/01/31 13:32:37.0	0.900	-0.210	0.380	0.010
2020/01/31 13:32:37.1	0.900	-0.230	0.370	-0.020
2020/01/31 13:32:37.2	0.910	-0.250	0.360	-0.050
2020/01/31 13:32:37.3	0.920	-0.270	0.350	-0.080
2020/01/31 13:32:37.4	0.930	-0.290	0.330	-0.120
2020/01/31 13:32:37.5	0.940	-0.300	0.300	-0.150
2020/01/31 13:32:37.6	0.960	-0.310	0.270	-0.190
2020/01/31 13:32:37.7	0.970	-0.320	0.240	-0.220
2020/01/31 13:32:37.8	0.980	-0.320	0.210	-0.260
2020/01/31 13:32:37.9	0.990	-0.330	0.170	-0.290
2020/01/31 13:32:38.0	1.000	-0.330	0.130	-0.320
2020/01/31 13:32:38.1	1.000	-0.320	0.090	-0.360
2020/01/31 13:32:38.2	1.010	-0.320	0.050	-0.390
2020/01/31 13:32:38.3	1.020	-0.310	0.000	-0.420
2020/01/31 13:32:38.4	1.020	-0.300	-0.040	-0.450
2020/01/31 13:32:38.5	1.020	-0.290	-0.080	-0.470
2020/01/31 13:32:38.6	1.040	-0.270	-0.130	-0.500
2020/01/31 13:32:38.7	1.040	-0.260	-0.170	-0.520
2020/01/31 13:32:38.8	1.040	-0.240	-0.210	-0.550
2020/01/31 13:32:38.9	1.030	-0.220	-0.250	-0.570
2020/01/31 13:32:39.0	1.030	-0.200	-0.280	-0.590
2020/01/31 13:32:39.1	1.030	-0.190	-0.310	-0.610
2020/01/31 13:32:39.2	1.020	-0.170	-0.340	-0.630
2020/01/31 13:32:39.3	1.010	-0.150	-0.370	-0.650
2020/01/31 13:32:39.4	1.010	-0.130	-0.390	-0.670
2020/01/31 13:32:39.5	1.000	-0.120	-0.410	-0.690
2020/01/31 13:32:39.6	0.970	-0.100	-0.430	-0.700
2020/01/31 13:32:39.7	0.960	-0.090	-0.440	-0.710
2020/01/31 13:32:39.8	0.950	-0.080	-0.450	-0.720
2020/01/31 13:32:39.9	0.930	-0.070	-0.450	-0.740
2020/01/31 13:32:40.0	0.920	-0.060	-0.450	-0.750
2020/01/31 13:32:40.1	0.910	-0.050	-0.450	-0.750
2020/01/31 13:32:40.2	0.890	-0.050	-0.450	-0.760
2020/01/31 13:32:40.3	0.870	-0.040	-0.440	-0.770
2020/01/31 13:32:40.4	0.850	-0.040	-0.430	-0.770
2020/01/31 13:32:40.5	0.830	-0.050	-0.420	-0.770
2020/01/31 13:32:40.6	0.820	-0.050	-0.400	-0.770
2020/01/31 13:32:40.7	0.800	-0.050	-0.390	-0.770
2020/01/31 13:32:40.8	0.770	-0.060	-0.370	-0.770
2020/01/31 13:32:40.9	0.750	-0.070	-0.350	-0.770
2020/01/31 13:32:41.0	0.730	-0.080	-0.330	-0.760
2020/01/31 13:32:41.1	0.700	-0.090	-0.310	-0.750
2020/01/31 13:32:41.2	0.680	-0.110	-0.280	-0.750
2020/01/31 13:32:41.3	0.660	-0.120	-0.260	-0.740
2020/01/31 13:32:41.4	0.640	-0.130	-0.240	-0.730
2020/01/31 13:32:41.5	0.610	-0.150	-0.220	-0.720
2020/01/31 13:32:41.6	0.570	-0.160	-0.200	-0.710
2020/01/31 13:32:41.7	0.550	-0.180	-0.180	-0.700
2020/01/31 13:32:41.8	0.530	-0.190	-0.160	-0.690
2020/01/31 13:32:41.9	0.510	-0.200	-0.130	-0.680
2020/01/31 13:32:42.0	0.500	-0.210	-0.110	-0.660
2020/01/31 13:32:42.1	0.480	-0.220	-0.090	-0.650
2020/01/31 13:32:42.2	0.470	-0.230	-0.070	-0.630
2020/01/31 13:32:42.3	0.460	-0.230	-0.050	-0.610
2020/01/31 13:32:42.4	0.450	-0.240	-0.040	-0.600
2020/01/31 13:32:42.5	0.440	-0.240	-0.020	-0.580
2020/01/31 13:32:42.6	0.450	-0.240	-0.010	-0.560
2020/01/31 13:32:42.7	0.450	-0.240	0.000	-0.550
2020/01/31 13:32:42.8	0.450	-0.230	0.010	-0.530
2020/01/31 13:32:42.9	0.460	-0.230	0.010	-0.510
2020/01/31 13:32:43.0	0.460	-0.220	0.020	-0.500
2020/01/31 13:32:43.1	0.480	-0.210	0.010	-0.480
2020/01/31 13:32:43.2	0.490	-0.190	0.010	-0.470
2020/01/31 13:32:43.3	0.510	-0.180	-0.000	-0.450
2020/01/31 13:32:43.4	0.530	-0.160	-0.020	-0.440
2020/01/31 13:32:43.5	0.550	-0.150	-0.040	-0.430
2020/01/31 13:32:43.6	0.570	-0.130	-0.060	-0.420
2020/01/31 13:32:43.7	0.590	-0.110	-0.090	-0.410
2020/01/31 13:32:43.8	0.620	-0.080	-0.120	-0.400
2020/01/31 13:32:43.9	0.650	-0.060	-0.160	-0.390
2020/01/31 13:32:44.0	0.690	-0.030	-0.190	-0.380
2020/01/31 13:32:44.1	0.720	-0.010	-0.240	-0.370
2020/01/31 13:32:44.2	0.750	0.020	-0.280	-0.360
2020/01/31 13:32:44.3	0.790	0.050	-0.330	-0.360
2020/01/31 13:32:44.4	0.820	0.080	-0.380	-0.350
2020/01/31 13:32:44.5	0.860	0.110	-0.430	-0.340
2020/01/31 13:32:44.6	0.890	0.130	-0.480	-0.330
2020/01/31 13:32:44.7	0.930	0.160	-0.530	-0.310
2020/01/31 13:32:44.8	0.960	0.190	-0.580	-0.300
2020/01/31 13:32:44.9	0.990	0.220	-0.630	-0.280
2020/01/31 13:32:45.0	1.020	0.250	-0.680	-0.270
2020/01/31 13:32:45.1	1.050	0.280	-0.730	-0.250
2020/01/31 13:32:45.2	1.080	0.300	-0.770	-0.230
2020/01/31 13:32:45.3	1.110	0.330	-0.810	-0.210
2020/01/31 13:32:45.4	1.140	0.350	-0.850	-0.180
2020/01/31 13:32:45.5	1.160	0.370	-0.880	-0.160
2020/01/31 13:32:45.6	1.190	0.390	-0.910	-0.130
2020/01/31 13:32:45.7	1.220	0.410	-0.940	-0.110
2020/01/31 13:32:45.8	1.240	0.430	-0.950	-0.080
2020/01/31 13:32:45.9	1.260	0.440	-0.970	-0.050
2020/01/31 13:32:46.0	1.270	0.460	-0.970	-0.030
2020/01/31 13:32:46.1	1.290	0.470	-0.970	0.000
2020/01/31 13:32:46.2	1.300	0.480	-0.970	0.030
2020/01/31 13:32:46.3	1.310	0.480	-0.960	0.060
2020/01/31 13:32:46.4	1.330	0.490	-0.940	0.100
2020/01/31 13:32:46.5	1.330	0.490	-0.920	0.130
2020/01/31 13:32:46.6	1.360	0.480	-0.890	0.170
2020/01/31 13:32:46.7	1.360	0.480	-0.860	0.200
2020/01/31 13:32:46.8	1.360	0.470	-0.820	0.240
2020/01/31 13:32:46.9	1.360	0.460	-0.770	0.280
2020/01/31 13:32:47.0	1.360	0.450	-0.720	0.320
2020/01/31 13:32:47.1	1.350	0.440	-0.660	0.360
2020/01/31 13:32:47.2	1.340	0.420	-0.600	0.400
2020/01/31 13:32:47.3	1.330	0.400	-0.540	0.430
2020/01/31 13:32:47.4	1.320	0.380	-0.470	0.470
2020/01/31 13:32:47.5	1.300	0.350	-0.400	0.510
2020/01/31 13:32:47.6	1.280	0.330	-0.320	0.550
2020/01/31 13:32:47.7	1.270	0.300	-0.250	0.580
2020/01/31 13:32:47.8	1.250	0.270	-0.170	0.610
2020/01/31 13:32:47.9	1.220	0.230	-0.090	0.640
2020/01/31 13:32:48.0	1.200	0.200	-0.010	0.670
2020/01/31 13:32:48.1	1.180	0.170	0.060	0.690
2020/01/31 13:32:48.2	1.160	0.130	0.140	0.710
2020/01/31 13:32:48.3	1.130	0.090	0.210	0.720
2020/01/31 13:32:48.4	1.110	0.060	0.280	0.740
2020/01/31 13:32:48.5	1.090	0.020	0.350	0.740
2020/01/31 13:32:48.6	1.080	-0.020	0.410	0.750
2020/01/31 13:32:48.7	1.060	-0.050	0.470	0.740
2020/01/31 13:32:48.8	1.040	-0.090	0.520	0.740
2020/01/31 13:32:48.9	1.020	-0.120	0.570	0.720
2020/01/31 13:32:49.0	1.000	-0.160	0.610	0.710
2020/01/31 13:32:49.1	0.990	-0.190	0.640	0.690
2020/01/31 13:32:49.2	0.970	-0.220	0.670	0.660
2020/01/31 13:32:49.3	0.960	-0.240	0.690	0.640
2020/01/31 13:32:49.4	0.950	-0.270	0.700	0.610
2020/01/31 13:32:49.5	0.930	-0.290	0.710	0.570
2020/01/31 13:32:49.6	0.930	-0.310	0.710	0.540
2020/01/31 13:32:49.7	0.920	-0.320	0.700	0.500
2020/01/31 13:32:49.8	0.910	-0.340	0.690	0.470
2020/01/31 13:32:49.9	0.900	-0.350	0.670	0.430
2020/01/31 13:32:50.0	0.900	-0.350	0.640	0.390
2020/01/31 13:32:50.1	0.890	-0.350	0.610	0.360
2020/01/31 13:32:50.2	0.890	-0.350	0.570	0.320
2020/01/31 13:32:50.3	0.880	-0.350	0.520	0.290
2020/01/31 13:32:50.4	0.880	-0.340	0.470	0.260
2020/01/31 13:32:50.5	0.870	-0.330	0.420	0.220
2020/01/31 13:32:50.6	0.870	-0.320	0.360	0.190
2020/01/31 13:32:50.7	0.870	-0.310	0.300	0.150
2020/01/31 13:32:50.8	0.870	-0.290	0.240	0.120
2020/01/31 13:32:50.9	0.870	-0.270	0.180	0.090
2020/01/31 13:32:51.0	0.870	-0.250	0.120	0.050
2020/01/31 13:32:51.1	0.880	-0.230	0.050	0.020
2020/01/31 13:32:51.2	0.880	-0.210	-0.020	-0.020
2020/01/31 13:32:51.3	0.890	-0.190	-0.080	-0.060
2020/01/31 13:32:51.4	0.900	-0.170	-0.150	-0.100
2020/01/31 13:32:51.5	0.920	-0.150	-0.210	-0.150
2020/01/31 13:32:51.6	0.920	-0.130	-0.280	-0.190
2020/01/31 13:32:51.7	0.940	-0.110	-0.340	-0.240
2020/01/31 13:32:51.8	0.960	-0.090	-0.400	-0.290
2020/01/31 13:32:51.9	0.980	-0.070	-0.460	-0.350
2020/01/31 13:32:52.0	1.000	-0.050	-0.510	-0.400
2020/01/31 13:32:52.1	1.020	-0.040	-0.570	-0.450
2020/01/31 13:32:52.2	1.040	-0.030	-0.620	-0.510
2020/01/31 13:32:52.3	1.070	-0.020	-0.660	-0.560
2020/01/31 13:32:52.4	1.090	-0.010	-0.700	-0.610
2020/01/31 13:32:52.5	1.110	-0.000	-0.740	-0.670
2020/01/31 13:32:52.6	1.130	-0.000	-0.770	-0.720
2020/01/31 13:32:52.7	1.150	0.000	-0.790	-0.770
2020/01/31 13:32:52.8	1.170	0.000	-0.810	-0.810
2020/01/31 13:32:52.9	1.180	-0.000	-0.820	-0.850
2020/01/31 13:32:53.0	1.200	-0.010	-0.830	-0.890
2020/01/31 13:32:53.1	1.210	-0.020	-0.830	-0.930
2020/01/31 13:32:53.2	1.210	-0.020	-0.820	-0.960
2020/01/31 13:32:53.3	1.220	-0.040	-0.800	-0.980
2020/01/31 13:32:53.4	1.220	-0.050	-0.780	-1.000
2020/01/31 13:32:53.5	1.220	-0.060	-0.750	-1.020
2020/01/31 13:32:53.6	1.230	-0.070	-0.720	-1.030
2020/01/31 13:32:53.7	1.220	-0.090	-0.690	-1.040
2020/01/31 13:32:53.8	1.220	-0.100	-0.650	-1.040
2020/01/31 13:32:53.9	1.210	-0.120	-0.600	-1.040
2020/01/31 13:32:54.0	1.200	-0.130	-0.550	-1.040
2020/01/31 13:32:54.1	1.190	-0.150	-0.500	-1.030
2020/01/31 13:32:54.2	1.180	-0.160	-0.450	-1.020
2020/01/31 13:32:54.3	1.180	-0.170	-0.400	-1.000
2020/01/31 13:32:54.4	1.170	-0.190	-0.350	-0.990
2020/01/31 13:32:54.5	1.160	-0.190	-0.300	-0.970
2020/01/31 13:32:54.6	1.160	-0.200	-0.260	-0.950
2020/01/31 13:32:54.7	1.160	-0.200	-0.210	-0.930
2020/01/31 13:32:54.8	1.160	-0.210	-0.180	-0.920
2020/01/31 13:32:54.9	1.160	-0.210	-0.140	-0.900
2020/01/31 13:32:55.0	1.160	-0.200	-0.120	-0.880
2020/01/31 13:32:55.1	1.160	-0.190	-0.090	-0.870
2020/01/31 13:32:55.2	1.170	-0.180	-0.080	-0.850
2020/01/31 13:32:55.3	1.180	-0.170	-0.070	-0.840
2020/01/31 13:32:55.4	1.190	-0.150	-0.070	-0.820
2020/01/31 13:32:55.5	1.200	-0.130	-0.070	-0.810
2020/01/31 13:32:55.6	1.210	-0.110	-0.080	-0.800
2020/01/31 13:32:55.7	1.230	-0.080	-0.100	-0.790
2020/01/31 13:32:55.8	1.250	-0.060	-0.120	-0.780
2020/01/31 13:32:55.9	1.270	-0.030	-0.140	-0.770
2020/01/31 13:32:56.0	1.290	-0.000	-0.170	-0.760
2020/01/31 13:32:56.1	1.320	0.030	-0.200	-0.750
2020/01/31 13:32:56.2	1.340	0.060	-0.240	-0.750
2020/01/31 13:32:56.3	1.370	0.090	-0.270	-0.740
2020/01/31 13:32:56.4	1.390	0.120	-0.310	-0.730
2020/01/31 13:32:56.5	1.420	0.140	-0.350	-0.720
2020/01/31 13:32:56.6	1.430	0.170	-0.380	-0.700
2020/01/31 13:32:56.7	1.450	0.190	-0.420	-0.690
2020/01/31 13:32:56.8	1.470	0.220	-0.450	-0.670
2020/01/31 13:32:56.9	1.490	0.240	-0.480	-0.650
2020/01/31 13:32:57.0	1.510	0.250	-0.510	-0.630
2020/01/31 13:32:57.1	1.530	0.270	-0.530	-0.610
2020/01/31 13:32:57.2	1.550	0.280	-0.560	-0.590
2020/01/31 13:32:57.3	1.570	0.290	-0.570	-0.560
2020/01/31 13:32:57.4	1.580	0.300	-0.590	-0.530
2020/01/31 13:32:57.5	1.590	0.300	-0.590	-0.500
2020/01/31 13:32:57.6	1.600	0.300	-0.600	-0.460
2020/01/31 13:32:57.7	1.620	0.290	-0.600	-0.430
2020/01/31 13:32:57.8	1.630	0.290	-0.590	-0.400
2020/01/31 13:32:57.9	1.640	0.280	-0.580	-0.360
2020/01/31 13:32:58.0	1.650	0.270	-0.560	-0.320
2020/01/31 13:32:58.1	1.660	0.250	-0.540	-0.280
2020/01/31 13:32:58.2	1.660	0.240	-0.520	-0.240
2020/01/31 13:32:58.3	1.670	0.220	-0.490	-0.200
2020/01/31 13:32:58.4	1.680	0.200	-0.450	-0.160
2020/01/31 13:32:58.5	1.680	0.170	-0.420	-0.120
2020/01/31 13:32:58.6	1.700	0.150	-0.380	-0.080
2020/01/31 13:32:58.7	1.700	0.130	-0.330	-0.040
2020/01/31 13:32:58.8	1.710	0.100	-0.290	-0.000
2020/01/31 13:32:58.9	1.710	0.080	-0.240	0.040
2020/01/31 13:32:59.0	1.720	0.050	-0.200	0.070
2020/01/31 13:32:59.1	1.720	0.030	-0.150	0.110
2020/01/31 13:32:59.2	1.730	0.010	-0.110	0.140
2020/01/31 13:32:59.3	1.730	-0.010	-0.060	0.170
2020/01/31 13:32:59.4	1.730	-0.030	-0.020	0.200
2020/01/31 13:32:59.5	1.740	-0.050	0.020	0.230
2020/01/31 13:32:59.6	1.740	-0.070	0.060	0.260
2020/01/31 13:32:59.7	1.750	-0.080	0.100	0.290
2020/01/31 13:32:59.8	1.750	-0.100	0.130	0.310
2020/01/31 13:32:59.9	1.750	-0.110	0.160	0.330
2020/01/31 13:33:00.0	1.760	-0.110	0.190	0.350
2020/01/31 13:33:00.1	1.760	-0.120	0.210	0.370
2020/01/31 13:33:00.2	1.760	-0.120	0.230	0.380
2020/01/31 13:33:00.3	1.770	-0.120	0.240	0.390
2020/01/31 13:33:00.4	1.770	-0.120	0.250	0.400
2020/01/31 13:33:00.5	1.780	-0.110	0.260	0.410
2020/01/31 13:33:00.6	1.790	-0.100	0.260	0.420
2020/01/31 13:33:00.7	1.790	-0.090	0.250	0.420
2020/01/31 13:33:00.8	1.800	-0.080	0.240	0.430
2020/01/31 13:33:00.9	1.810	-0.070	0.230	0.430
2020/01/31 13:33:01.0	1.820	-0.050	0.220	0.430
2020/01/31 13:33:01.1	1.820	-0.040	0.200	0.430
2020/01/31 13:33:01.2	1.830	-0.020	0.170	0.430
2020/01/31 13:33:01.3	1.840	0.000	0.150	0.430
2020/01/31 13:33:01.4	1.850	0.020	0.120	0.430
2020/01/31 13:33:01.5	1.850	0.040	0.100	0.430
2020/01/31 13:33:01.6	1.860	0.060	0.070	0.420
2020/01/31 13:33:01.7	1.870	0.070	0.040	0.420
2020/01/31 13:33:01.8	1.870	0.090	0.010	0.420
2020/01/31 13:33:01.9	1.870	0.110	-0.020	0.410
2020/01/31 13:33:02.0	1.870	0.120	-0.050	0.400
2020/01/31 13:33:02.1	1.880	0.130	-0.080	0.390
2020/01/31 13:33:02.2	1.880	0.140	-0.110	0.380
2020/01/31 13:33:02.3	1.880	0.150	-0.140	0.370
2020/01/31 13:33:02.4	1.880	0.160	-0.170	0.350
2020/01/31 13:33:02.5	1.880	0.160	-0.190	0.330
2020/01/31 13:33:02.6	1.890	0.170	-0.220	0.310
2020/01/31 13:33:02.7	1.900	0.170	-0.240	0.290
2020/01/31 13:33:02.8	1.900	0.160	-0.260	0.270
2020/01/31 13:33:02.9	1.900	0.160	-0.280	0.240
2020/01/31 13:33:03.0	1.910	0.150	-0.300	0.210
2020/01/31 13:33:03.1	1.910	0.150	-0.310	0.180
2020/01/31 13:33:03.2	1.910	0.140	-0.330	0.150
2020/01/31 13:33:03.3	1.920	0.130	-0.340	0.120
2020/01/31 13:33:03.4	1.920	0.110	-0.350	0.090
2020/01/31 13:33:03.5	1.930	0.100	-0.360	0.060
2020/01/31 13:33:03.6	1.930	0.080	-0.370	0.030
2020/01/31 13:33:03.7	1.940	0.070	-0.380	0.000
2020/01/31 13:33:03.8	1.940	0.050	-0.380	-0.020
2020/01/31 13:33:03.9	1.940	0.030	-0.380	-0.050
2020/01/31 13:33:04.0	1.940	0.010	-0.380	-0.070
2020/01/31 13:33:04.1	1.940	-0.010	-0.380	-0.090
2020/01/31 13:33:04.2	1.930	-0.030	-0.370	-0.110
2020/01/31 13:33:04.3	1.930	-0.050	-0.370	-0.130
2020/01/31 13:33:04.4	1.920	-0.070	-0.360	-0.150
2020/01/31 13:33:04.5	1.910	-0.090	-0.350	-0.170
2020/01/31 13:33:04.6	1.900	-0.110	-0.340	-0.180
2020/01/31 13:33:04.7	1.890	-0.130	-0.330	-0.200
2020/01/31 13:33:04.8	1.880	-0.150	-0.330	-0.220
2020/01/31 13:33:04.9	1.870	-0.170	-0.320	-0.250
2020/01/31 13:33:05.0	1.860	-0.190	-0.310	-0.270
2020/01/31 13:33:05.1	1.840	-0.210	-0.300	-0.290
2020/01/31 13:33:05.2	1.830	-0.220	-0.290	-0.320
2020/01/31 13:33:05.3	1.820	-0.240	-0.280	-0.350
2020/01/31 13:33:05.4	1.810	-0.250	-0.280	-0.380
2020/01/31 13:33:05.5	1.800	-0.260	-0.270	-0.410
2020/01/31 13:33:05.6	1.800	-0.270	-0.270	-0.450
2020/01/31 13:33:05.7	1.790	-0.280	-0.270	-0.480
2020/01/31 13:33:05.8	1.790	-0.290	-0.270	-0.520
2020/01/31 13:33:05.9	1.780	-0.290	-0.280	-0.560
2020/01/31 13:33:06.0	1.780	-0.290	-0.290	-0.610
2020/01/31 13:33:06.1	1.780	-0.290	-0.290	-0.650
2020/01/31 13:33:06.2	1.790	-0.290	-0.310	-0.690
2020/01/31 13:33:06.3	1.790	-0.280	-0.320	-0.740
2020/01/31 13:33:06.4	1.800	-0.270	-0.330	-0.780
2020/01/31 13:33:06.5	1.810	-0.260	-0.350	-0.830
2020/01/31 13:33:06.6	1.820	-0.250	-0.370	-0.870
2020/01/31 13:33:06.7	1.830	-0.230	-0.390	-0.920
2020/01/31 13:33:06.8	1.850	-0.210	-0.410	-0.960
2020/01/31 13:33:06.9	1.860	-0.190	-0.440	-1.000
2020/01/31 13:33:07.0	1.880	-0.170	-0.460	-1.050
2020/01/31 13:33:07.1	1.910	-0.140	-0.480	-1.090
2020/01/31 13:33:07.2	1.930	-0.120	-0.510	-1.120
2020/01/31 13:33:07.3	1.950	-0.090	-0.530	-1.160
2020/01/31 13:33:07.4	1.980	-0.060	-0.550	-1.190
2020/01/31 13:33:07.5	2.010	-0.030	-0.570	-1.220
2020/01/31 13:33:07.6	2.030	-0.010	-0.590	-1.250
2020/01/31 13:33:07.7	2.060	0.020	-0.600	-1.270
2020/01/31 13:33:07.8	2.090	0.050	-0.620	-1.300
2020/01/31 13:33:07.9	2.120	0.080	-0.620	-1.310
2020/01/31 13:33:08.0	2.150	0.100	-0.630	-1.330
2020/01/31 13:33:08.1	2.180	0.130	-0.630	-1.330
2020/01/31 13:33:08.2	2.200	0.150	-0.630	-1.340
2020/01/31 13:33:08.3	2.230	0.170	-0.620	-1.340
2020/01/31 13:33:08.4	2.250	0.190	-0.610	-1.330
2020/01/31 13:33:08.5	2.270	0.210	-0.590	-1.320
2020/01/31 13:33:08.6	2.290	0.220	-0.570	-1.300
2020/01/31 13:33:08.7	2.300	0.230	-0.540	-1.270
2020/01/31 13:33:08.8	2.310	0.240	-0.510	-1.240
2020/01/31 13:33:08.9	2.320	0.240	-0.470	-1.210
2020/01/31 13:33:09.0	2.320	0.240	-0.420	-1.170
2020/01/31 13:33:09.1	2.320	0.240	-0.370	-1.130
2020/01/31 13:33:09.2	2.320	0.230	-0.320	-1.080
2020/01/31 13:33:09.3	2.310	0.220	-0.260	-1.020
2020/01/31 13:33:09.4	2.300	0.210	-0.200	-0.970
2020/01/31 13:33:09.5	2.290	0.190	-0.140	-0.910
2020/01/31 13:33:09.6	2.280	0.170	-0.080	-0.840
2020/01/31 13:33:09.7	2.260	0.150	-0.010	-0.780
2020/01/31 13:33:09.8	2.240	0.130	0.050	-0.710
2020/01/31 13:33:09.9	2.220	0.100	0.120	-0.650
2020/01/31 13:33:10.0	2.200	0.070	0.180	-0.580
2020/01/31 13:33:10.1	2.180	0.040	0.240	-0.520
2020/01/31 13:33:10.2	2.150	0.010	0.290	-0.450
2020/01/31 13:33:10.3	2.130	-0.020	0.340	-0.390
2020/01/31 13:33:10.4	2.110	-0.060	0.390	-0.330
2020/01/31 13:33:10.5	2.090	-0.090	0.430	-0.280
2020/01/31 13:33:10.6	2.070	-0.120	0.460	-0.220
2020/01/31 13:33:10.7	2.050	-0.150	0.490	-0.170
2020/01/31 13:33:10.8	2.040	-0.180	0.510	-0.130
2020/01/31 13:33:10.9	2.030	-0.210	0.520	-0.090
2020/01/31 13:33:11.0	2.020	-0.240	0.520	-0.050
2020/01/31 13:33:11.1	2.010	-0.260	0.520	-0.020
2020/01/31 13:33:11.2	2.010	-0.280	0.500	0.010
2020/01/31 13:33:11.3	2.010	-0.300	0.480	0.030
2020/01/31 13:33:11.4	2.010	-0.320	0.450	0.050
2020/01/31 13:33:11.5	2.020	-0.330	0.410	0.070
2020/01/31 13:33:11.6	2.020	-0.340	0.360	0.080
2020/01/31 13:33:11.7	2.030	-0.340	0.310	0.090
2020/01/31 13:33:11.8	2.050	-0.340	0.240	0.100
2020/01/31 13:33:11.9	2.060	-0.340	0.180	0.100
2020/01/31 13:33:12.0	2.080	-0.330	0.110	0.100
2020/01/31 13:33:12.1	2.100	-0.320	0.030	0.100
2020/01/31 13:33:12.2	2.120	-0.310	-0.040	0.090
2020/01/31 13:33:12.3	2.140	-0.290	-0.120	0.090
2020/01/31 13:33:12.4	2.160	-0.270	-0.200	0.080
2020/01/31 13:33:12.5	2.180	-0.250	-0.280	0.070
2020/01/31 13:33:12.6	2.180	-0.230	-0.360	0.060
2020/01/31 13:33:12.7	2.200	-0.200	-0.430	0.050
2020/01/31 13:33:12.8	2.220	-0.170	-0.500	0.050
2020/01/31 13:33:12.9	2.230	-0.140	-0.570	0.040
2020/01/31 13:33:13.0	2.250	-0.110	-0.630	0.030
2020/01/31 13:33:13.1	2.260	-0.080	-0.680	0.020
2020/01/31 13:33:13.2	2.270	-0.050	-0.730	0.020
2020/01/31 13:33:13.3	2.270	-0.020	-0.770	0.010
2020/01/31 13:33:13.4	2.270	0.010	-0.810	0.010
2020/01/31 13:33:13.5	2.280	0.040	-0.840	0.010
2020/01/31 13:33:13.6	2.280	0.070	-0.860	0.020
2020/01/31 13:33:13.7	2.280	0.100	-0.870	0.020
2020/01/31 13:33:13.8	2.270	0.120	-0.870	0.030
2020/01/31 13:33:13.9	2.270	0.150	-0.870	0.040
2020/01/31 13:33:14.0	2.260	0.170	-0.860	0.050
2020/01/31 13:33:14.1	2.250	0.190	-0.840	0.070
2020/01/31 13:33:14.2	2.240	0.210	-0.820	0.080
2020/01/31 13:33:14.3	2.220	0.230	-0.790	0.100
2020/01/31 13:33:14.4	2.210	0.240	-0.750	0.110
2020/01/31 13:33:14.5	2.200	0.250	-0.710	0.130
2020/01/31 13:33:14.6	2.190	0.260	-0.670	0.160
2020/01/31 13:33:14.7	2.180	0.270	-0.630	0.180
2020/01/31 13:33:14.8	2.160	0.280	-0.580	0.200
2020/01/31 13:33:14.9	2.150	0.280	-0.530	0.220
2020/01/31 13:33:15.0	2.140	0.280	-0.480	0.240
2020/01/31 13:33:15.1	2.130	0.280	-0.430	0.260
2020/01/31 13:33:15.2	2.110	0.270	-0.390	0.270
2020/01/31 13:33:15.3	2.100	0.270	-0.340	0.290
2020/01/31 13:33:15.4	2.090	0.260	-0.290	0.300
2020/01/31 13:33:15.5	2.080	0.250	-0.250	0.310
2020/01/31 13:33:15.6	2.070	0.230	-0.210	0.320
2020/01/31 13:33:15.7	2.060	0.220	-0.170	0.330
2020/01/31 13:33:15.8	2.050	0.200	-0.130	0.330
2020/01/31 13:33:15.9	2.040	0.190	-0.100	0.340
2020/01/31 13:33:16.0	2.030	0.170	-0.060	0.340
2020/01/31 13:33:16.1	2.020	0.150	-0.030	0.330
2020/01/31 13:33:16.2	2.010	0.130	-0.010	0.330
2020/01/31 13:33:16.3	2.000	0.110	0.020	0.320
2020/01/31 13:33:16.4	1.980	0.090	0.040	0.310
2020/01/31 13:33:16.5	1.970	0.060	0.060	0.300
2020/01/31 13:33:16.6	1.940	0.040	0.080	0.290
2020/01/31 13:33:16.7	1.930	0.020	0.090	0.270
2020/01/31 13:33:16.8	1.920	-0.000	0.110	0.260
2020/01/31 13:33:16.9	1.910	-0.020	0.120	0.240
2020/01/31 13:33:17.0	1.900	-0.040	0.130	0.220
2020/01/31 13:33:17.1	1.900	-0.060	0.130	0.200
2020/01/31 13:33:17.2	1.890	-0.070	0.140	0.180
2020/01/31 13:33:17.3	1.890	-0.090	0.140	0.160
2020/01/31 13:33:17.4	1.890	-0.100	0.150	0.140
2020/01/31 13:33:17.5	1.890	-0.110	0.150	0.120
2020/01/31 13:33:17.6	1.900	-0.120	0.150	0.090
2020/01/31 13:33:17.7	1.900	-0.120	0.150	0.070
2020/01/31 13:33:17.8	1.900	-0.120	0.140	0.050
2020/01/31 13:33:17.9	1.900	-0.120	0.140	0.030
2020/01/31 13:33:18.0	1.910	-0.120	0.140	0.010
2020/01/31 13:33:18.1	1.910	-0.120	0.130	-0.010
2020/01/31 13:33:18.2	1.920	-0.110	0.120	-0.030
2020/01/31 13:33:18.3	1.920	-0.100	0.110	-0.040
2020/01/31 13:33:18.4	1.920	-0.090	0.110	-0.060
2020/01/31 13:33:18.5	1.920	-0.080	0.090	-0.070
2020/01/31 13:33:18.6	1.930	-0.060	0.080	-0.070
2020/01/31 13:33:18.7	1.930	-0.050	0.070	-0.080
2020/01/31 13:33:18.8	1.930	-0.030	0.050	-0.090
2020/01/31 13:33:18.9	1.930	-0.010	0.040	-0.100
2020/01/31 13:33:19.0	1.930	0.000	0.020	-0.120
2020/01/31 13:33:19.1	1.930	0.020	-0.010	-0.130
2020/01/31 13:33:19.2	1.920	0.040	-0.030	-0.140
2020/01/31 13:33:19.3	1.920	0.060	-0.060	-0.160
2020/01/31 13:33:19.4	1.920	0.070	-0.090	-0.180
2020/01/31 13:33:19.5	1.920	0.090	-0.120	-0.200
2020/01/31 13:33:19.6	1.940	0.100	-0.160	-0.230
2020/01/31 13:33:19.7	1.940	0.120	-0.190	-0.260
2020/01/31 13:33:19.8	1.950	0.130	-0.230	-0.290
2020/01/31 13:33:19.9	1.950	0.150	-0.270	-0.330
2020/01/31 13:33:20.0	1.960	0.160	-0.310	-0.360
2020/01/31 13:33:20.1	1.960	0.170	-0.350	-0.400
2020/01/31 13:33:20.2	1.970	0.180	-0.400	-0.440
2020/01/31 13:33:20.3	1.980	0.180	-0.440	-0.490
2020/01/31 13:33:20.4	1.980	0.190	-0.480	-0.530
2020/01/31 13:33:20.5	1.990	0.190	-0.520	-0.570
2020/01/31 13:33:20.6	1.990	0.200	-0.560	-0.610
2020/01/31 13:33:20.7	1.990	0.200	-0.600	-0.650
2020/01/31 13:33:20.8	2.000	0.200	-0.640	-0.690
2020/01/31 13:33:20.9	2.000	0.190	-0.670	-0.730
2020/01/31 13:33:21.0	2.000	0.190	-0.700	-0.770
2020/01/31 13:33:21.1	1.990	0.180	-0.730	-0.800
2020/01/31 13:33:21.2	1.990	0.170	-0.750	-0.830
2020/01/31 13:33:21.3	1.980	0.160	-0.760	-0.860
2020/01/31 13:33:21.4	1.970	0.150	-0.780	-0.880
2020/01/31 13:33:21.5	1.960	0.140	-0.780	-0.900
2020/01/31 13:33:21.6	1.960	0.130	-0.790	-0.920
2020/01/31 13:33:21.7	1.940	0.110	-0.780	-0.930
2020/01/31 13:33:21.8	1.930	0.090	-0.780	-0.950
2020/01/31 13:33:21.9	1.910	0.070	-0.770	-0.960
2020/01/31 13:33:22.0	1.890	0.050	-0.750	-0.970
2020/01/31 13:33:22.1	1.870	0.030	-0.730	-0.980
2020/01/31 13:33:22.2	1.850	0.010	-0.710	-0.980
2020/01/31 13:33:22.3	1.830	-0.010	-0.680	-0.990
2020/01/31 13:33:22.4	1.820	-0.030	-0.650	-1.000
2020/01/31 13:33:22.5	1.800	-0.050	-0.620	-1.000
2020/01/31 13:33:22.6	1.760	-0.070	-0.590	-1.010
2020/01/31 13:33:22.7	1.750	-0.100	-0.560	-1.010
2020/01/31 13:33:22.8	1.740	-0.120	-0.530	-1.020
2020/01/31 13:33:22.9	1.740	-0.140	-0.500	-1.030
2020/01/31 13:33:23.0	1.730	-0.160	-0.470	-1.030
2020/01/31 13:33:23.1	1.730	-0.180	-0.430	-1.040
2020/01/31 13:33:23.2	1.740	-0.190	-0.410	-1.050
2020/01/31 13:33:23.3	1.750	-0.210	-0.380	-1.060
2020/01/31 13:33:23.4	1.760	-0.220	-0.350	-1.070
2020/01/31 13:33:23.5	1.770	-0.230	-0.330	-1.080
2020/01/31 13:33:23.6	1.790	-0.240	-0.310	-1.090
2020/01/31 13:33:23.7	1.810	-0.250	-0.290	-1.100
2020/01/31 13:33:23.8	1.840	-0.250	-0.270	-1.110
2020/01/31 13:33:23.9	1.870	-0.260	-0.250	-1.120
2020/01/31 13:33:24.0	1.900	-0.260	-0.240	-1.130
2020/01/31 13:33:24.1	1.940	-0.260	-0.230	-1.140
2020/01/31 13:33:24.2	1.970	-0.250	-0.210	-1.140
2020/01/31 13:33:24.3	2.010	-0.250	-0.200	-1.150
2020/01/31 13:33:24.4	2.040	-0.240	-0.190	-1.150
2020/01/31 13:33:24.5	2.080	-0.240	-0.170	-1.150
2020/01/31 13:33:24.6	2.130	-0.230	-0.160	-1.140
2020/01/31 13:33:24.7	2.160	-0.220	-0.150	-1.120
2020/01/31 13:33:24.8	2.190	-0.210	-0.130	-1.110
2020/01/31 13:33:24.9	2.220	-0.200	-0.110	-1.090
2020/01/31 13:33:25.0	2.240	-0.190	-0.090	-1.060
2020/01/31 13:33:25.1	2.260	-0.190	-0.070	-1.040
2020/01/31 13:33:25.2	2.270	-0.180	-0.050	-1.000
2020/01/31 13:33:25.3	2.290	-0.170	-0.020	-0.970
2020/01/31 13:33:25.4	2.290	-0.170	0.000	-0.920
2020/01/31 13:33:25.5	2.300	-0.160	0.030	-0.880
2020/01/31 13:33:25.6	2.300	-0.160	0.060	-0.820
2020/01/31 13:33:25.7	2.300	-0.150	0.090	-0.770
2020/01/31 13:33:25.8	2.290	-0.150	0.120	-0.720
2020/01/31 13:33:25.9	2.280	-0.150	0.150	-0.660
2020/01/31 13:33:26.0	2.280	-0.150	0.180	-0.600
2020/01/31 13:33:26.1	2.270	-0.160	0.200	-0.540
2020/01/31 13:33:26.2	2.260	-0.160	0.230	-0.480
2020/01/31 13:33:26.3	2.240	-0.160	0.250	-0.420
2020/01/31 13:33:26.4	2.230	-0.170	0.270	-0.350
2020/01/31 13:33:26.5	2.220	-0.180	0.290	-0.290
2020/01/31 13:33:26.6	2.210	-0.180	0.300	-0.230
2020/01/31 13:33:26.7	2.200	-0.190	0.310	-0.160
2020/01/31 13:33:26.8	2.200	-0.190	0.320	-0.100
2020/01/31 13:33:26.9	2.190	-0.200	0.320	-0.050
2020/01/31 13:33:27.0	2.190	-0.200	0.310	0.010
2020/01/31 13:33:27.1	2.190	-0.210	0.310	0.060
2020/01/31 13:33:27.2	2.200	-0.210	0.290	0.110
2020/01/31 13:33:27.3	2.200	-0.210	0.270	0.150
2020/01/31 13:33:27.4	2.210	-0.210	0.250	0.200
2020/01/31 13:33:27.5	2.220	-0.210	0.230	0.240
2020/01/31 13:33:27.6	2.230	-0.210	0.200	0.280
2020/01/31 13:33:27.7	2.240	-0.200	0.170	0.320
2020/01/31 13:33:27.8	2.240	-0.200	0.140	0.360
2020/01/31 13:33:27.9	2.250	-0.190	0.110	0.400
2020/01/31 13:33:28.0	2.250	-0.180	0.080	0.440
2020/01/31 13:33:28.1	2.250	-0.170	0.050	0.480
2020/01/31 13:33:28.2	2.250	-0.150	0.020	0.520
2020/01/31 13:33:28.3	2.240	-0.140	-0.000	0.560
2020/01/31 13:33:28.4	2.240	-0.120	-0.020	0.600
2020/01/31 13:33:28.5	2.220	-0.100	-0.040	0.640
2020/01/31 13:33:28.6	2.210	-0.080	-0.060	0.690
2020/01/31 13:33:28.7	2.190	-0.060	-0.080	0.730
2020/01/31 13:33:28.8	2.170	-0.040	-0.090	0.780
2020/01/31 13:33:28.9	2.140	-0.020	-0.090	0.820
2020/01/31 13:33:29.0	2.110	0.000	-0.100	0.870
2020/01/31 13:33:29.1	2.080	0.030	-0.100	0.910
2020/01/31 13:33:29.2	2.040	0.050	-0.100	0.960
2020/01/31 13:33:29.3	2.000	0.080	-0.100	1.000
2020/01/31 13:33:29.4	1.960	0.100	-0.100	1.040
2020/01/31 13:33:29.5	1.920	0.120	-0.090	1.080
2020/01/31 13:33:29.6	1.860	0.150	-0.090	1.120
2020/01/31 13:33:29.7	1.810	0.170	-0.090	1.160
2020/01/31 13:33:29.8	1.770	0.190	-0.090	1.190
2020/01/31 13:33:29.9	1.720	0.210	-0.090	1.210
2020/01/31 13:33:30.0	1.670	0.230	-0.090	1.230
2020/01/31 13:33:30.1	1.630	0.250	-0.100	1.240
2020/01/31 13:33:30.2	1.580	0.270	-0.110	1.250
2020/01/31 13:33:30.3	1.540	0.290	-0.120	1.250
2020/01/31 13:33:30.4	1.500	0.300	-0.140	1.240
2020/01/31 13:33:30.5	1.460	0.320	-0.170	1.230
2020/01/31 13:33:30.6	1.440	0.330	-0.200	1.210
2020/01/31 13:33:30.7	1.410	0.340	-0.240	1.180
2020/01/31 13:33:30.8	1.390	0.360	-0.280	1.150
2020/01/31 13:33:30.9	1.360	0.370	-0.320	1.110
2020/01/31 13:33:31.0	1.350	0.380	-0.370	1.070
2020/01/31 13:33:31.1	1.340	0.390	-0.420	1.010
2020/01/31 13:33:31.2	1.330	0.400	-0.480	0.950
2020/01/31 13:33:31.3	1.330	0.410	-0.540	0.890
2020/01/31 13:33:31.4	1.330	0.420	-0.610	0.820
2020/01/31 13:33:31.5	1.340	0.430	-0.670	0.740
2020/01/31 13:33:31.6	1.360	0.440	-0.740	0.660
2020/01/31 13:33:31.7	1.380	0.440	-0.810	0.570
2020/01/31 13:33:31.8	1.400	0.450	-0.880	0.480
2020/01/31 13:33:31.9	1.430	0.460	-0.950	0.380
2020/01/31 13:33:32.0	1.470	0.460	-1.020	0.280
2020/01/31 13:33:32.1	1.500	0.470	-1.080	0.180
2020/01/31 13:33:32.2	1.550	0.470	-1.140	0.070
2020/01/31 13:33:32.3	1.590	0.480	-1.200	-0.040
2020/01/31 13:33:32.4	1.640	0.480	-1.250	-0.150
2020/01/31 13:33:32.5	1.690	0.480	-1.300	-0.260
2020/01/31 13:33:32.6	1.740	0.480	-1.330	-0.380
2020/01/31 13:33:32.7	1.790	0.480	-1.360	-0.490
2020/01/31 13:33:32.8	1.840	0.470	-1.390	-0.600
2020/01/31 13:33:32.9	1.900	0.470	-1.400	-0.710
2020/01/31 13:33:33.0	1.950	0.460	-1.400	-0.820
2020/01/31 13:33:33.1	2.000	0.450	-1.390	-0.920
2020/01/31 13:33:33.2	2.050	0.440	-1.370	-1.030
2020/01/31 13:33:33.3	2.100	0.430	-1.340	-1.120
2020/01/31 13:33:33.4	2.140	0.410	-1.300	-1.210
2020/01/31 13:33:33.5	2.190	0.390	-1.250	-1.300
2020/01/31 13:33:33.6	2.230	0.370	-1.190	-1.380
2020/01/31 13:33:33.7	2.260	0.350	-1.120	-1.460
2020/01/31 13:33:33.8	2.300	0.330	-1.040	-1.520
2020/01/31 13:33:33.9	2.330	0.300	-0.950	-1.590
2020/01/31 13:33:34.0	2.360	0.270	-0.860	-1.650
2020/01/31 13:33:34.1	2.390	0.250	-0.760	-1.700
2020/01/31 13:33:34.2	2.410	0.210	-0.650	-1.750
2020/01/31 13:33:34.3	2.430	0.180	-0.540	-1.790
2020/01/31 13:33:34.4	2.450	0.150	-0.430	-1.830
2020/01/31 13:33:34.5	2.470	0.110	-0.320	-1.860
2020/01/31 13:33:34.6	2.490	0.080	-0.210	-1.880
2020/01/31 13:33:34.7	2.500	0.040	-0.110	-1.900
2020/01/31 13:33:34.8	2.520	0.010	0.000	-1.920
2020/01/31 13:33:34.9	2.530	-0.030	0.100	-1.930
2020/01/31 13:33:35.0	2.530	-0.070	0.200	-1.940
2020/01/31 13:33:35.1	2.540	-0.100	0.290	-1.950
2020/01/31 13:33:35.2	2.550	-0.140	0.370	-1.950
2020/01/31 13:33:35.3	2.560	-0.170	0.450	-1.950
2020/01/31 13:33:35.4	2.560	-0.210	0.520	-1.950
2020/01/31 13:33:35.5	2.570	-0.240	0.580	-1.950
2020/01/31 13:33:35.6	2.570	-0.270	0.630	-1.940
2020/01/31 13:33:35.7	2.570	-0.300	0.670	-1.930
2020/01/31 13:33:35.8	2.580	-0.330	0.710	-1.920
2020/01/31 13:33:35.9	2.580	-0.360	0.740	-1.900
2020/01/31 13:33:36.0	2.580	-0.380	0.760	-1.880
2020/01/31 13:33:36.1	2.580	-0.410	0.780	-1.860
2020/01/31 13:33:36.2	2.580	-0.430	0.780	-1.830
2020/01/31 13:33:36.3	2.580	-0.450	0.780	-1.800
2020/01/31 13:33:36.4	2.580	-0.470	0.780	-1.770
2020/01/31 13:33:36.5	2.570	-0.490	0.770	-1.730
2020/01/31 13:33:36.6	2.560	-0.510	0.750	-1.680
2020/01/31 13:33:36.7	2.550	-0.520	0.730	-1.640
2020/01/31 13:33:36.8	2.540	-0.540	0.700	-1.590
2020/01/31 13:33:36.9	2.520	-0.550	0.670	-1.550
2020/01/31 13:33:37.0	2.510	-0.560	0.630	-1.500
2020/01/31 13:33:37.1	2.490	-0.570	0.590	-1.440
2020/01/31 13:33:37.2	2.480	-0.580	0.550	-1.390
2020/01/31 13:33:37.3	2.460	-0.590	0.510	-1.340
2020/01/31 13:33:37.4	2.440	-0.590	0.460	-1.280
2020/01/31 13:33:37.5	2.420	-0.600	0.420	-1.220
2020/01/31 13:33:37.6	2.380	-0.600	0.370	-1.170
2020/01/31 13:33:37.7	2.360	-0.600	0.320	-1.110
2020/01/31 13:33:37.8	2.340	-0.610	0.270	-1.050
2020/01/31 13:33:37.9	2.310	-0.600	0.220	-1.000
2020/01/31 13:33:38.0	2.290	-0.600	0.170	-0.940
2020/01/31 13:33:38.1	2.270	-0.600	0.120	-0.880
2020/01/31 13:33:38.2	2.250	-0.590	0.070	-0.820
2020/01/31 13:33:38.3	2.220	-0.580	0.030	-0.770
2020/01/31 13:33:38.4	2.200	-0.580	-0.020	-0.710
2020/01/31 13:33:38.5	2.180	-0.560	-0.060	-0.650
2020/01/31 13:33:38.6	2.170	-0.550	-0.110	-0.590
2020/01/31 13:33:38.7	2.150	-0.540	-0.150	-0.530
2020/01/31 13:33:38.8	2.130	-0.520	-0.190	-0.470
2020/01/31 13:33:38.9	2.110	-0.510	-0.230	-0.420
2020/01/31 13:33:39.0	2.090	-0.490	-0.270	-0.360
2020/01/31 13:33:39.1	2.080	-0.470	-0.300	-0.310
2020/01/31 13:33:39.2	2.060	-0.450	-0.340	-0.250
2020/01/31 13:33:39.3	2.050	-0.420	-0.370	-0.200
2020/01/31 13:33:39.4	2.040	-0.400	-0.400	-0.140
2020/01/31 13:33:39.5	2.030	-0.370	-0.430	-0.090
2020/01/31 13:33:39.6	2.020	-0.350	-0.450	-0.030
2020/01/31 13:33:39.7	2.010	-0.320	-0.480	0.020
2020/01/31 13:33:39.8	2.000	-0.290	-0.500	0.080
2020/01/31 13:33:39.9	1.990	-0.260	-0.520	0.130
2020/01/31 13:33:40.0	1.990	-0.230	-0.540	0.180
2020/01/31 13:33:40.1	1.980	-0.190	-0.560	0.230
2020/01/31 13:33:40.2	1.980	-0.160	-0.580	0.280
2020/01/31 13:33:40.3	1.980	-0.130	-0.600	0.330
2020/01/31 13:33:40.4	1.980	-0.090	-0.610	0.380
2020/01/31 13:33:40.5	1.980	-0.060	-0.630	0.430
2020/01/31 13:33:40.6	1.980	-0.020	-0.640	0.470
2020/01/31 13:33:40.7	1.990	0.010	-0.660	0.510
2020/01/31 13:33:40.8	1.990	0.050	-0.670	0.550
2020/01/31 13:33:40.9	2.000	0.080	-0.680	0.590
2020/01/31 13:33:41.0	2.010	0.120	-0.680	0.620
2020/01/31 13:33:41.1	2.020	0.150	-0.690	0.650
2020/01/31 13:33:41.2	2.030	0.190	-0.690	0.680
2020/01/31 13:33:41.3	2.050	0.220	-0.690	0.710
2020/01/31 13:33:41.4	2.060	0.250	-0.690	0.740
2020/01/31 13:33:41.5	2.070	0.280	-0.690	0.770
2020/01/31 13:33:41.6	2.090	0.310	-0.680	0.790
2020/01/31 13:33:41.7	2.110	0.340	-0.670	0.820
2020/01/31 13:33:41.8	2.120	0.370	-0.650	0.840
2020/01/31 13:33:41.9	2.140	0.390	-0.640	0.870
2020/01/31 13:33:42.0	2.150	0.420	-0.620	0.890
2020/01/31 13:33:42.1	2.170	0.440	-0.590	0.910
2020/01/31 13:33:42.2	2.180	0.460	-0.570	0.940
2020/01/31 13:33:42.3	2.200	0.480	-0.540	0.960
2020/01/31 13:33:42.4	2.210	0.500	-0.510	0.990
2020/01/31 13:33:42.5	2.230	0.510	-0.480	1.010
2020/01/31 13:33:42.6	2.230	0.530	-0.450	1.030
2020/01/31 13:33:42.7	2.250	0.540	-0.420	1.060
2020/01/31 13:33:42.8	2.260	0.550	-0.380	1.080
2020/01/31 13:33:42.9	2.270	0.560	-0.350	1.100
2020/01/31 13:33:43.0	2.280	0.570	-0.310	1.130
2020/01/31 13:33:43.1	2.300	0.570	-0.280	1.150
2020/01/31 13:33:43.2	2.310	0.580	-0.250	1.170
2020/01/31 13:33:43.3	2.320	0.580	-0.220	1.190
2020/01/31 13:33:43.4	2.330	0.590	-0.190	1.210
2020/01/31 13:33:43.5	2.340	0.590	-0.160	1.230
2020/01/31 13:33:43.6	2.360	0.590	-0.140	1.250
2020/01/31 13:33:43.7	2.370	0.590	-0.120	1.270
2020/01/31 13:33:43.8	2.370	0.590	-0.100	1.280
2020/01/31 13:33:43.9	2.380	0.580	-0.090	1.280
2020/01/31 13:33:44.0	2.390	0.580	-0.080	1.290
2020/01/31 13:33:44.1	2.400	0.570	-0.080	1.290
2020/01/31 13:33:44.2	2.400	0.560	-0.070	1.280
2020/01/31 13:33:44.3	2.410	0.560	-0.070	1.270
2020/01/31 13:33:44.4	2.410	0.550	-0.080	1.260
2020/01/31 13:33:44.5	2.410	0.540	-0.090	1.240
2020/01/31 13:33:44.6	2.420	0.530	-0.100	1.210
2020/01/31 13:33:44.7	2.420	0.510	-0.120	1.180
2020/01/31 13:33:44.8	2.420	0.500	-0.140	1.140
2020/01/31 13:33:44.9	2.430	0.480	-0.160	1.100
2020/01/31 13:33:45.0	2.430	0.470	-0.180	1.050
2020/01/31 13:33:45.1	2.430	0.450	-0.210	0.990
2020/01/31 13:33:45.2	2.430	0.430	-0.240	0.940
2020/01/31 13:33:45.3	2.440	0.420	-0.270	0.870
2020/01/31 13:33:45.4	2.440	0.400	-0.300	0.800
2020/01/31 13:33:45.5	2.440	0.370	-0.330	0.730
2020/01/31 13:33:45.6	2.450	0.350	-0.350	0.650
2020/01/31 13:33:45.7	2.460	0.330	-0.380	0.570
2020/01/31 13:33:45.8	2.460	0.300	-0.410	0.480
2020/01/31 13:33:45.9	2.470	0.280	-0.440	0.400
2020/01/31 13:33:46.0	2.470	0.250	-0.460	0.310
2020/01/31 13:33:46.1	2.480	0.220	-0.490	0.210
2020/01/31 13:33:46.2	2.480	0.190	-0.500	0.120
2020/01/31 13:33:46.3	2.480	0.160	-0.520	0.030
2020/01/31 13:33:46.4	2.490	0.120	-0.530	-0.070
2020/01/31 13:33:46.5	2.490	0.090	-0.540	-0.170
2020/01/31 13:33:46.6	2.480	0.050	-0.540	-0.270
2020/01/31 13:33:46.7	2.480	0.020	-0.540	-0.370
2020/01/31 13:33:46.8	2.480	-0.020	-0.530	-0.470
2020/01/31 13:33:46.9	2.480	-0.060	-0.520	-0.570
2020/01/31 13:33:47.0	2.480	-0.100	-0.510	-0.670
2020/01/31 13:33:47.1	2.470	-0.150	-0.490	-0.770
2020/01/31 13:33:47.2	2.470	-0.190	-0.460	-0.870
2020/01/31 13:33:47.3	2.470	-0.230	-0.430	-0.980
2020/01/31 13:33:47.4	2.470	-0.270	-0.400	-1.080
2020/01/31 13:33:47.5	2.460	-0.310	-0.370	-1.180
2020/01/31 13:33:47.6	2.470	-0.350	-0.330	-1.280
2020/01/31 13:33:47.7	2.470	-0.390	-0.290	-1.380
2020/01/31 13:33:47.8	2.460	-0.430	-0.250	-1.470
2020/01/31 13:33:47.9	2.460	-0.460	-0.210	-1.560
2020/01/31 13:33:48.0	2.460	-0.500	-0.160	-1.650
2020/01/31 13:33:48.1	2.460	-0.530	-0.120	-1.740
2020/01/31 13:33:48.2	2.460	-0.560	-0.070	-1.820
2020/01/31 13:33:48.3	2.460	-0.580	-0.030	-1.900
2020/01/31 13:33:48.4	2.460	-0.600	0.010	-1.970
2020/01/31 13:33:48.5	2.460	-0.620	0.050	-2.040
2020/01/31 13:33:48.6	2.460	-0.640	0.090	-2.100
2020/01/31 13:33:48.7	2.460	-0.650	0.130	-2.160
2020/01/31 13:33:48.8	2.460	-0.660	0.160	-2.210
2020/01/31 13:33:48.9	2.460	-0.660	0.190	-2.260
2020/01/31 13:33:49.0	2.460	-0.660	0.220	-2.290
2020/01/31 13:33:49.1	2.460	-0.650	0.240	-2.320
2020/01/31 13:33:49.2	2.460	-0.640	0.260	-2.350
2020/01/31 13:33:49.3	2.450	-0.630	0.280	-2.360
2020/01/31 13:33:49.4	2.450	-0.610	0.290	-2.370
2020/01/31 13:33:49.5	2.440	-0.590	0.300	-2.370
2020/01/31 13:33:49.6	2.450	-0.570	0.310	-2.360
2020/01/31 13:33:49.7	2.440	-0.540	0.310	-2.340
2020/01/31 13:33:49.8	2.430	-0.510	0.310	-2.320
2020/01/31 13:33:49.9	2.410	-0.480	0.300	-2.290
2020/01/31 13:33:50.0	2.400	-0.450	0.300	-2.250
2020/01/31 13:33:50.1	2.390	-0.420	0.290	-2.210
2020/01/31 13:33:50.2	2.370	-0.380	0.270	-2.160
2020/01/31 13:33:50.3	2.360	-0.340	0.260	-2.100
2020/01/31 13:33:50.4	2.340	-0.310	0.240	-2.040
2020/01/31 13:33:50.5	2.320	-0.270	0.210	-1.970
2020/01/31 13:33:50.6	2.320	-0.230	0.180	-1.900
2020/01/31 13:33:50.7	2.300	-0.190	0.160	-1.820
2020/01/31 13:33:50.8	2.290	-0.160	0.120	-1.740
2020/01/31 13:33:50.9	2.270	-0.120	0.090	-1.660
2020/01/31 13:33:51.0	2.260	-0.080	0.050	-1.580
2020/01/31 13:33:51.1	2.250	-0.050	0.020	-1.490
2020/01/31 13:33:51.2	2.240	-0.020	-0.020	-1.400
2020/01/31 13:33:51.3	2.220	0.020	-0.070	-1.300
2020/01/31 13:33:51.4	2.210	0.050	-0.110	-1.210
2020/01/31 13:33:51.5	2.200	0.080	-0.150	-1.110
2020/01/31 13:33:51.6	2.190	0.100	-0.200	-1.000
2020/01/31 13:33:51.7	2.180	0.130	-0.250	-0.900
2020/01/31 13:33:51.8	2.180	0.150	-0.290	-0.800
2020/01/31 13:33:51.9	2.170	0.170	-0.340	-0.700
2020/01/31 13:33:52.0	2.160	0.190	-0.380	-0.600
2020/01/31 13:33:52.1	2.160	0.210	-0.420	-0.500
2020/01/31 13:33:52.2	2.150	0.220	-0.460	-0.400
2020/01/31 13:33:52.3	2.140	0.240	-0.500	-0.300
2020/01/31 13:33:52.4	2.140	0.250	-0.540	-0.210
2020/01/31 13:33:52.5	2.130	0.250	-0.580	-0.110
2020/01/31 13:33:52.6	2.120	0.260	-0.610	-0.020
2020/01/31 13:33:52.7	2.120	0.260	-0.640	0.070
2020/01/31 13:33:52.8	2.110	0.260	-0.660	0.160
2020/01/31 13:33:52.9	2.110	0.260	-0.690	0.240
2020/01/31 13:33:53.0	2.100	0.260	-0.700	0.320
2020/01/31 13:33:53.1	2.100	0.250	-0.720	0.390
2020/01/31 13:33:53.2	2.090	0.240	-0.730	0.460
2020/01/31 13:33:53.3	2.090	0.230	-0.730	0.530
2020/01/31 13:33:53.4	2.080	0.220	-0.740	0.590
2020/01/31 13:33:53.5	2.080	0.210	-0.730	0.650
2020/01/31 13:33:53.6	2.080	0.200	-0.730	0.710
2020/01/31 13:33:53.7	2.080	0.180	-0.720	0.760
2020/01/31 13:33:53.8	2.080	0.170	-0.710	0.810
2020/01/31 13:33:53.9	2.080	0.160	-0.690	0.860
2020/01/31 13:33:54.0	2.080	0.140	-0.670	0.900
2020/01/31 13:33:54.1	2.080	0.130	-0.640	0.940
2020/01/31 13:33:54.2	2.080	0.110	-0.620	0.970
2020/01/31 13:33:54.3	2.090	0.100	-0.590	1.000
2020/01/31 13:33:54.4	2.100	0.080	-0.560	1.020
2020/01/31 13:33:54.5	2.100	0.070	-0.520	1.040
2020/01/31 13:33:54.6	2.110	0.050	-0.490	1.060
2020/01/31 13:33:54.7	2.120	0.040	-0.450	1.070
2020/01/31 13:33:54.8	2.130	0.030	-0.410	1.080
2020/01/31 13:33:54.9	2.150	0.020	-0.380	1.090
2020/01/31 13:33:55.0	2.160	0.010	-0.340	1.090
2020/01/31 13:33:55.1	2.170	0.000	-0.300	1.080
2020/01/31 13:33:55.2	2.180	-0.000	-0.270	1.080
2020/01/31 13:33:55.3	2.200	-0.010	-0.240	1.070
2020/01/31 13:33:55.4	2.210	-0.010	-0.200	1.060
2020/01/31 13:33:55.5	2.220	-0.010	-0.170	1.050
2020/01/31 13:33:55.6	2.220	-0.010	-0.150	1.030
2020/01/31 13:33:55.7	2.230	-0.010	-0.120	1.010
2020/01/31 13:33:55.8	2.230	-0.010	-0.100	1.000
2020/01/31 13:33:55.9	2.230	-0.000	-0.070	0.980
2020/01/31 13:33:56.0	2.230	0.010	-0.050	0.970
2020/01/31 13:33:56.1	2.230	0.010	-0.030	0.950
2020/01/31 13:33:56.2	2.220	0.020	-0.020	0.930
2020/01/31 13:33:56.3	2.220	0.040	-0.010	0.910
2020/01/31 13:33:56.4	2.210	0.050	0.000	0.900
2020/01/31 13:33:56.5	2.200	0.060	0.010	0.880
2020/01/31 13:33:56.6	2.180	0.080	0.020	0.860
2020/01/31 13:33:56.7	2.170	0.100	0.030	0.840
2020/01/31 13:33:56.8	2.150	0.110	0.030	0.830
2020/01/31 13:33:56.9	2.130	0.130	0.030	0.810
2020/01/31 13:33:57.0	2.110	0.150	0.030	0.790
2020/01/31 13:33:57.1	2.090	0.160	0.020	0.780
2020/01/31 13:33:57.2	2.070	0.180	0.010	0.760
2020/01/31 13:33:57.3	2.040	0.190	0.010	0.740
2020/01/31 13:33:57.4	2.020	0.210	-0.010	0.730
2020/01/31 13:33:57.5	1.990	0.220	-0.020	0.710
2020/01/31 13:33:57.6	1.960	0.230	-0.040	0.700
2020/01/31 13:33:57.7	1.930	0.240	-0.050	0.680
2020/01/31 13:33:57.8	1.900	0.250	-0.070	0.670
2020/01/31 13:33:57.9	1.880	0.250	-0.090	0.650
2020/01/31 13:33:58.0	1.850	0.260	-0.110	0.640
2020/01/31 13:33:58.1	1.820	0.260	-0.130	0.620
2020/01/31 13:33:58.2	1.790	0.260	-0.150	0.600
2020/01/31 13:33:58.3	1.760	0.260	-0.180	0.590
2020/01/31 13:33:58.4	1.740	0.250	-0.200	0.570
2020/01/31 13:33:58.5	1.710	0.240	-0.230	0.550
2020/01/31 13:33:58.6	1.680	0.230	-0.250	0.530
2020/01/31 13:33:58.7	1.650	0.220	-0.280	0.510
2020/01/31 13:33:58.8	1.630	0.210	-0.300	0.480
2020/01/31 13:33:58.9	1.600	0.190	-0.330	0.450
2020/01/31 13:33:59.0	1.580	0.170	-0.350	0.420
2020/01/31 13:33:59.1	1.560	0.150	-0.380	0.390
2020/01/31 13:33:59.2	1.540	0.130	-0.400	0.350
2020/01/31 13:33:59.3	1.520	0.110	-0.420	0.310
2020/01/31 13:33:59.4	1.510	0.090	-0.440	0.270
2020/01/31 13:33:59.5	1.490	0.070	-0.460	0.220
2020/01/31 13:33:59.6	1.480	0.050	-0.480	0.170
2020/01/31 13:33:59.7	1.470	0.020	-0.490	0.110
2020/01/31 13:33:59.8	1.460	-0.000	-0.510	0.060
2020/01/31 13:33:59.9	1.450	-0.020	-0.520	-0.000
2020/01/31 13:34:00.0	1.450	-0.040	-0.530	-0.060
2020/01/31 13:34:00.1	1.450	-0.060	-0.530	-0.130
2020/01/31 13:34:00.2	1.450	-0.080	-0.530	-0.190
2020/01/31 13:34:00.3	1.450	-0.100	-0.530	-0.250
2020/01/31 13:34:00.4	1.450	-0.110	-0.530	-0.310
2020/01/31 13:34:00.5	1.450	-0.120	-0.520	-0.370
2020/01/31 13:34:00.6	1.450	-0.130	-0.500	-0.430
2020/01/31 13:34:00.7	1.460	-0.130	-0.490	-0.490
2020/01/31 13:34:00.8	1.460	-0.140	-0.470	-0.540
2020/01/31 13:34:00.9	1.460	-0.140	-0.450	-0.590
2020/01/31 13:34:01.0	1.470	-0.130	-0.420	-0.640
2020/01/31 13:34:01.1	1.470	-0.130	-0.390	-0.680
2020/01/31 13:34:01.2	1.470	-0.120	-0.360	-0.720
2020/01/31 13:34:01.3	1.470	-0.110	-0.330	-0.760
2020/01/31 13:34:01.4	1.470	-0.100	-0.290	-0.790
2020/01/31 13:34:01.5	1.470	-0.090	-0.250	-0.810
2020/01/31 13:34:01.6	1.470	-0.070	-0.220	-0.840
2020/01/31 13:34:01.7	1.470	-0.060	-0.180	-0.860
2020/01/31 13:34:01.8	1.470	-0.040	-0.150	-0.880
2020/01/31 13:34:01.9	1.470	-0.020	-0.110	-0.890
2020/01/31 13:34:02.0	1.470	-0.010	-0.080	-0.910
2020/01/31 13:34:02.1	1.470	0.010	-0.050	-0.920
2020/01/31 13:34:02.2	1.470	0.030	-0.020	-0.930
2020/01/31 13:34:02.3	1.470	0.040	0.000	-0.950
2020/01/31 13:34:02.4	1.480	0.060	0.030	-0.960
2020/01/31 13:34:02.5	1.480	0.070	0.040	-0.970
2020/01/31 13:34:02.6	1.470	0.080	0.050	-0.980
2020/01/31 13:34:02.7	1.470	0.090	0.060	-0.990
2020/01/31 13:34:02.8	1.480	0.100	0.070	-1.000
2020/01/31 13:34:02.9	1.480	0.100	0.070	-1.010
2020/01/31 13:34:03.0	1.480	0.100	0.070	-1.030
2020/01/31 13:34:03.1	1.480	0.100	0.070	-1.040
2020/01/31 13:34:03.2	1.480	0.100	0.060	-1.050
2020/01/31 13:34:03.3	1.480	0.090	0.050	-1.060
2020/01/31 13:34:03.4	1.480	0.080	0.040	-1.070
2020/01/31 13:34:03.5	1.480	0.070	0.020	-1.080
2020/01/31 13:34:03.6	1.480	0.060	-0.000	-1.080
2020/01/31 13:34:03.7	1.480	0.040	-0.020	-1.090
2020/01/31 13:34:03.8	1.470	0.020	-0.040	-1.090
2020/01/31 13:34:03.9	1.470	-0.000	-0.070	-1.090
2020/01/31 13:34:04.0	1.470	-0.030	-0.090	-1.090
2020/01/31 13:34:04.1	1.460	-0.050	-0.110	-1.090
2020/01/31 13:34:04.2	1.460	-0.080	-0.140	-1.080
2020/01/31 13:34:04.3	1.450	-0.100	-0.160	-1.080
2020/01/31 13:34:04.4	1.450	-0.130	-0.180	-1.060
2020/01/31 13:34:04.5	1.450	-0.160	-0.200	-1.050
2020/01/31 13:34:04.6	1.440	-0.190	-0.220	-1.040
2020/01/31 13:34:04.7	1.440	-0.220	-0.230	-1.020
2020/01/31 13:34:04.8	1.440	-0.240	-0.250	-1.000
2020/01/31 13:34:04.9	1.440	-0.270	-0.270	-0.980
2020/01/31 13:34:05.0	1.440	-0.290	-0.280	-0.960
2020/01/31 13:34:05.1	1.440	-0.320	-0.290	-0.940
2020/01/31 13:34:05.2	1.450	-0.340	-0.310	-0.920
2020/01/31 13:34:05.3	1.450	-0.350	-0.320	-0.900
2020/01/31 13:34:05.4	1.460	-0.370	-0.330	-0.870
2020/01/31 13:34:05.5	1.470	-0.380	-0.330	-0.850
2020/01/31 13:34:05.6	1.470	-0.380	-0.340	-0.820
2020/01/31 13:34:05.7	1.480	-0.390	-0.350	-0.790
2020/01/31 13:34:05.8	1.490	-0.390	-0.350	-0.770
2020/01/31 13:34:05.9	1.500	-0.380	-0.350	-0.740
2020/01/31 13:34:06.0	1.510	-0.370	-0.360	-0.700
2020/01/31 13:34:06.1	1.520	-0.360	-0.360	-0.670
2020/01/31 13:34:06.2	1.520	-0.340	-0.350	-0.630
2020/01/31 13:34:06.3	1.530	-0.320	-0.350	-0.590
2020/01/31 13:34:06.4	1.530	-0.300	-0.340	-0.540
2020/01/31 13:34:06.5	1.530	-0.270	-0.340	-0.490
2020/01/31 13:34:06.6	1.540	-0.240	-0.320	-0.430
2020/01/31 13:34:06.7	1.530	-0.200	-0.310	-0.380
2020/01/31 13:34:06.8	1.530	-0.170	-0.300	-0.310
2020/01/31 13:34:06.9	1.520	-0.130	-0.280	-0.240
2020/01/31 13:34:07.0	1.510	-0.090	-0.270	-0.170
2020/01/31 13:34:07.1	1.490	-0.050	-0.250	-0.100
2020/01/31 13:34:07.2	1.480	-0.010	-0.230	-0.020
2020/01/31 13:34:07.3	1.460	0.030	-0.210	0.060
2020/01/31 13:34:07.4	1.440	0.070	-0.190	0.140
2020/01/31 13:34:07.5	1.410	0.110	-0.170	0.230
2020/01/31 13:34:07.6	1.390	0.150	-0.150	0.320
2020/01/31 13:34:07.7	1.370	0.190	-0.130	0.410
2020/01/31 13:34:07.8	1.340	0.220	-0.110	0.490
2020/01/31 13:34:07.9	1.310	0.250	-0.090	0.580
2020/01/31 13:34:08.0	1.290	0.280	-0.070	0.660
2020/01/31 13:34:08.1	1.260	0.300	-0.060	0.740
2020/01/31 13:34:08.2	1.230	0.320	-0.050	0.820
2020/01/31 13:34:08.3	1.210	0.340	-0.030	0.900
2020/01/31 13:34:08.4	1.180	0.350	-0.030	0.970
2020/01/31 13:34:08.5	1.160	0.360	-0.020	1.030
2020/01/31 13:34:08.6	1.150	0.360	-0.020	1.100
2020/01/31 13:34:08.7	1.130	0.360	-0.020	1.150
2020/01/31 13:34:08.8	1.110	0.360	-0.020	1.200
2020/01/31 13:34:08.9	1.100	0.350	-0.020	1.250
2020/01/31 13:34:09.0	1.080	0.340	-0.030	1.280
2020/01/31 13:34:09.1	1.070	0.330	-0.040	1.310
2020/01/31 13:34:09.2	1.070	0.310	-0.050	1.340
2020/01/31 13:34:09.3	1.070	0.290	-0.070	1.350
2020/01/31 13:34:09.4	1.070	0.270	-0.090	1.360
2020/01/31 13:34:09.5	1.070	0.240	-0.110	1.360
2020/01/31 13:34:09.6	1.090	0.220	-0.140	1.350
2020/01/31 13:34:09.7	1.110	0.190	-0.160	1.340
2020/01/31 13:34:09.8	1.120	0.160	-0.190	1.310
2020/01/31 13:34:09.9	1.140	0.130	-0.220	1.280
2020/01/31 13:34:10.0	1.160	0.100	-0.260	1.250
2020/01/31 13:34:10.1	1.190	0.070	-0.290	1.200
2020/01/31 13:34:10.2	1.220	0.040	-0.330	1.150
2020/01/31 13:34:10.3	1.250	0.020	-0.370	1.100
2020/01/31 13:34:10.4	1.280	-0.010	-0.400	1.040
2020/01/31 13:34:10.5	1.310	-0.040	-0.440	0.980
2020/01/31 13:34:10.6	1.360	-0.060	-0.470	0.900
2020/01/31 13:34:10.7	1.400	-0.080	-0.500	0.830
2020/01/31 13:34:10.8	1.430	-0.100	-0.540	0.760
2020/01/31 13:34:10.9	1.470	-0.120	-0.560	0.690
2020/01/31 13:34:11.0	1.510	-0.140	-0.590	0.610
2020/01/31 13:34:11.1	1.540	-0.160	-0.610	0.540
2020/01/31 13:34:11.2	1.570	-0.170	-0.620	0.460
2020/01/31 13:34:11.3	1.600	-0.180	-0.630	0.390
2020/01/31 13:34:11.4	1.630	-0.190	-0.640	0.320
2020/01/31 13:34:11.5	1.650	-0.200	-0.640	0.250
2020/01/31 13:34:11.6	1.670	-0.210	-0.640	0.180
2020/01/31 13:34:11.7	1.680	-0.210	-0.630	0.110
2020/01/31 13:34:11.8	1.700	-0.220	-0.620	0.050
2020/01/31 13:34:11.9	1.710	-0.220	-0.610	-0.010
2020/01/31 13:34:12.0	1.720	-0.220	-0.590	-0.060
2020/01/31 13:34:12.1	1.720	-0.220	-0.560	-0.110
2020/01/31 13:34:12.2	1.720	-0.220	-0.540	-0.160
2020/01/31 13:34:12.3	1.720	-0.220	-0.510	-0.200
2020/01/31 13:34:12.4	1.720	-0.210	-0.480	-0.240
2020/01/31 13:34:12.5	1.710	-0.210	-0.450	-0.280
2020/01/31 13:34:12.6	1.710	-0.200	-0.420	-0.310
2020/01/31 13:34:12.7	1.700	-0.190	-0.390	-0.340
2020/01/31 13:34:12.8	1.690	-0.180	-0.350	-0.360
2020/01/31 13:34:12.9	1.680	-0.180	-0.320	-0.390
2020/01/31 13:34:13.0	1.670	-0.160	-0.290	-0.410
2020/01/31 13:34:13.1	1.660	-0.150	-0.260	-0.420
2020/01/31 13:34:13.2	1.650	-0.140	-0.230	-0.440
2020/01/31 13:34:13.3	1.640	-0.130	-0.210	-0.450
2020/01/31 13:34:13.4	1.630	-0.110	-0.190	-0.460
2020/01/31 13:34:13.5	1.620	-0.100	-0.170	-0.470
2020/01/31 13:34:13.6	1.610	-0.080	-0.160	-0.480
2020/01/31 13:34:13.7	1.600	-0.060	-0.140	-0.490
2020/01/31 13:34:13.8	1.600	-0.040	-0.140	-0.490
2020/01/31 13:34:13.9	1.600	-0.020	-0.130	-0.500
2020/01/31 13:34:14.0	1.590	0.000	-0.130	-0.500
2020/01/31 13:34:14.1	1.590	0.020	-0.130	-0.500
2020/01/31 13:34:14.2	1.590	0.040	-0.130	-0.500
2020/01/31 13:34:14.3	1.590	0.070	-0.140	-0.510
2020/01/31 13:34:14.4	1.590	0.090	-0.150	-0.510
2020/01/31 13:34:14.5	1.590	0.110	-0.150	-0.510
2020/01/31 13:34:14.6	1.600	0.130	-0.170	-0.510
2020/01/31 13:34:14.7	1.600	0.150	-0.180	-0.510
2020/01/31 13:34:14.8	1.600	0.170	-0.190	-0.510
2020/01/31 13:34:14.9	1.610	0.190	-0.200	-0.500
2020/01/31 13:34:15.0	1.610	0.210	-0.200	-0.500
2020/01/31 13:34:15.1	1.610	0.230	-0.210	-0.500
2020/01/31 13:34:15.2	1.620	0.240	-0.220	-0.490
2020/01/31 13:34:15.3	1.620	0.260	-0.220	-0.490
2020/01/31 13:34:15.4	1.630	0.270	-0.230	-0.480
2020/01/31 13:34:15.5	1.630	0.280	-0.230	-0.470
2020/01/31 13:34:15.6	1.640	0.290	-0.230	-0.460
2020/01/31 13:34:15.7	1.640	0.300	-0.230	-0.440
2020/01/31 13:34:15.8	1.650	0.300	-0.220	-0.430
2020/01/31 13:34:15.9	1.660	0.300	-0.220	-0.420
2020/01/31 13:34:16.0	1.660	0.300	-0.210	-0.400
2020/01/31 13:34:16.1	1.660	0.300	-0.200	-0.390
2020/01/31 13:34:16.2	1.670	0.300	-0.190	-0.370
2020/01/31 13:34:16.3	1.670	0.290	-0.180	-0.350
2020/01/31 13:34:16.4	1.680	0.290	-0.170	-0.330
2020/01/31 13:34:16.5	1.680	0.280	-0.150	-0.310
2020/01/31 13:34:16.6	1.690	0.260	-0.140	-0.280
2020/01/31 13:34:16.7	1.690	0.250	-0.120	-0.260
2020/01/31 13:34:16.8	1.690	0.230	-0.100	-0.240
2020/01/31 13:34:16.9	1.690	0.220	-0.080	-0.220
2020/01/31 13:34:17.0	1.690	0.200	-0.060	-0.200
2020/01/31 13:34:17.1	1.680	0.180	-0.040	-0.180
2020/01/31 13:34:17.2	1.680	0.160	-0.020	-0.160
2020/01/31 13:34:17.3	1.670	0.140	0.000	-0.140
2020/01/31 13:34:17.4	1.660	0.120	0.020	-0.120
2020/01/31 13:34:17.5	1.650	0.090	0.040	-0.100
2020/01/31 13:34:17.6	1.640	0.070	0.060	-0.080
2020/01/31 13:34:17.7	1.620	0.050	0.080	-0.060
2020/01/31 13:34:17.8	1.600	0.030	0.100	-0.040
2020/01/31 13:34:17.9	1.590	0.000	0.110	-0.020
2020/01/31 13:34:18.0	1.570	-0.020	0.120	-0.010
2020/01/31 13:34:18.1	1.550	-0.040	0.130	0.010
2020/01/31 13:34:18.2	1.530	-0.060	0.140	0.030
2020/01/31 13:34:18.3	1.500	-0.080	0.150	0.040
2020/01/31 13:34:18.4	1.480	-0.090	0.150	0.050
2020/01/31 13:34:18.5	1.460	-0.110	0.150	0.060
2020/01/31 13:34:18.6	1.440	-0.120	0.140	0.070
2020/01/31 13:34:18.7	1.420	-0.140	0.130	0.080
2020/01/31 13:34:18.8	1.400	-0.150	0.110	0.080
2020/01/31 13:34:18.9	1.380	-0.160	0.090	0.080
2020/01/31 13:34:19.0	1.360	-0.170	0.070	0.080
2020/01/31 13:34:19.1	1.340	-0.180	0.040	0.070
2020/01/31 13:34:19.2	1.330	-0.190	0.010	0.070
2020/01/31 13:34:19.3	1.310	-0.190	-0.020	0.050
2020/01/31 13:34:19.4	1.300	-0.200	-0.060	0.040
2020/01/31 13:34:19.5	1.290	-0.200	-0.100	0.020
2020/01/31 13:34:19.6	1.280	-0.200	-0.150	-0.000
2020/01/31 13:34:19.7	1.280	-0.200	-0.190	-0.030
2020/01/31 13:34:19.8	1.280	-0.200	-0.240	-0.060
2020/01/31 13:34:19.9	1.280	-0.200	-0.290	-0.090
2020/01/31 13:34:20.0	1.280	-0.200	-0.350	-0.130
2020/01/31 13:34:20.1	1.290	-0.200	-0.400	-0.170
2020/01/31 13:34:20.2	1.310	-0.190	-0.450	-0.210
2020/01/31 13:34:20.3	1.320	-0.190	-0.500	-0.260
2020/01/31 13:34:20.4	1.340	-0.180	-0.550	-0.310
2020/01/31 13:34:20.5	1.350	-0.180	-0.600	-0.360
2020/01/31 13:34:20.6	1.390	-0.170	-0.650	-0.410
2020/01/31 13:34:20.7	1.410	-0.170	-0.690	-0.460
2020/01/31 13:34:20.8	1.430	-0.160	-0.730	-0.500
2020/01/31 13:34:20.9	1.450	-0.160	-0.770	-0.550
2020/01/31 13:34:21.0	1.470	-0.150	-0.800	-0.600
2020/01/31 13:34:21.1	1.490	-0.150	-0.820	-0.640
2020/01/31 13:34:21.2	1.500	-0.140	-0.840	-0.680
2020/01/31 13:34:21.3	1.520	-0.140	-0.860	-0.720
2020/01/31 13:34:21.4	1.540	-0.140	-0.870	-0.760
2020/01/31 13:34:21.5	1.560	-0.140	-0.870	-0.800
2020/01/31 13:34:21.6	1.570	-0.140	-0.870	-0.830
2020/01/31 13:34:21.7	1.590	-0.140	-0.860	-0.860
2020/01/31 13:34:21.8	1.600	-0.140	-0.850	-0.890
2020/01/31 13:34:21.9	1.620	-0.140	-0.830	-0.910
2020/01/31 13:34:22.0	1.630	-0.140	-0.800	-0.930
2020/01/31 13:34:22.1	1.640	-0.150	-0.780	-0.950
2020/01/31 13:34:22.2	1.660	-0.150	-0.740	-0.970
2020/01/31 13:34:22.3	1.670	-0.150	-0.710	-0.980
2020/01/31 13:34:22.4	1.690	-0.160	-0.670	-0.990
2020/01/31 13:34:22.5	1.700	-0.160	-0.630	-1.000
2020/01/31 13:34:22.6	1.700	-0.160	-0.580	-1.000
2020/01/31 13:34:22.7	1.710	-0.170	-0.530	-1.000
2020/01/31 13:34:22.8	1.720	-0.170	-0.480	-1.000
2020/01/31 13:34:22.9	1.720	-0.170	-0.430	-0.990
2020/01/31 13:34:23.0	1.730	-0.170	-0.380	-0.980
2020/01/31 13:34:23.1	1.730	-0.180	-0.330	-0.960
2020/01/31 13:34:23.2	1.740	-0.180	-0.270	-0.940
2020/01/31 13:34:23.3	1.740	-0.180	-0.220	-0.910
2020/01/31 13:34:23.4	1.730	-0.180	-0.160	-0.880
2020/01/31 13:34:23.5	1.730	-0.170	-0.100	-0.850
2020/01/31 13:34:23.6	1.710	-0.170	-0.050	-0.810
2020/01/31 13:34:23.7	1.700	-0.170	0.000	-0.770
2020/01/31 13:34:23.8	1.690	-0.170	0.060	-0.730
2020/01/31 13:34:23.9	1.680	-0.160	0.110	-0.680
2020/01/31 13:34:24.0	1.670	-0.160	0.160	-0.640
2020/01/31 13:34:24.1	1.660	-0.150	0.220	-0.580
2020/01/31 13:34:24.2	1.640	-0.140	0.260	-0.530
2020/01/31 13:34:24.3	1.630	-0.140	0.310	-0.470
2020/01/31 13:34:24.4	1.610	-0.130	0.350	-0.410
2020/01/31 13:34:24.5	1.600	-0.120	0.390	-0.350
2020/01/31 13:34:24.6	1.570	-0.110	0.420	-0.290
2020/01/31 13:34:24.7	1.560	-0.100	0.450	-0.220
2020/01/31 13:34:24.8	1.540	-0.090	0.480	-0.160
2020/01/31 13:34:24.9	1.520	-0.070	0.490	-0.090
2020/01/31 13:34:25.0	1.510	-0.060	0.510	-0.020
2020/01/31 13:34:25.1	1.490	-0.040	0.520	0.050
2020/01/31 13:34:25.2	1.480	-0.030	0.520	0.120
2020/01/31 13:34:25.3	1.460	-0.010	0.520	0.190
2020/01/31 13:34:25.4	1.450	0.010	0.510	0.270
2020/01/31 13:34:25.5	1.430	0.030	0.490	0.340
2020/01/31 13:34:25.6	1.420	0.050	0.470	0.420
2020/01/31 13:34:25.7	1.410	0.070	0.450	0.490
2020/01/31 13:34:25.8	1.390	0.090	0.420	0.560
2020/01/31 13:34:25.9	1.380	0.110	0.390	0.630
2020/01/31 13:34:26.0	1.370	0.130	0.350	0.690
2020/01/31 13:34:26.1	1.350	0.150	0.300	0.760
2020/01/31 13:34:26.2	1.340	0.170	0.260	0.820
2020/01/31 13:34:26.3	1.330	0.190	0.210	0.880
2020/01/31 13:34:26.4	1.310	0.210	0.150	0.930
2020/01/31 13:34:26.5	1.300	0.220	0.100	0.980
2020/01/31 13:34:26.6	1.280	0.240	0.040	1.030
2020/01/31 13:34:26.7	1.260	0.260	-0.020	1.070
2020/01/31 13:34:26.8	1.250	0.270	-0.080	1.110
2020/01/31 13:34:26.9	1.230	0.290	-0.140	1.140
2020/01/31 13:34:27.0	1.210	0.300	-0.210	1.160
2020/01/31 13:34:27.1	1.200	0.310	-0.270	1.180
2020/01/31 13:34:27.2	1.180	0.320	-0.330	1.200
2020/01/31 13:34:27.3	1.160	0.330	-0.390	1.210
2020/01/31 13:34:27.4	1.140	0.330	-0.440	1.210
2020/01/31 13:34:27.5	1.130	0.340	-0.500	1.220
2020/01/31 13:34:27.6	1.120	0.340	-0.550	1.210
2020/01/31 13:34:27.7	1.100	0.340	-0.590	1.210
2020/01/31 13:34:27.8	1.080	0.340	-0.640	1.200
2020/01/31 13:34:27.9	1.060	0.340	-0.680	1.180
2020/01/31 13:34:28.0	1.040	0.340	-0.720	1.170
2020/01/31 13:34:28.1	1.020	0.330	-0.750	1.150
2020/01/31 13:34:28.2	1.000	0.320	-0.780	1.120
2020/01/31 13:34:28.3	0.980	0.310	-0.800	1.090
2020/01/31 13:34:28.4	0.960	0.300	-0.820	1.060
2020/01/31 13:34:28.5	0.940	0.290	-0.840	1.020
2020/01/31 13:34:28.6	0.930	0.270	-0.850	0.980
2020/01/31 13:34:28.7	0.910	0.250	-0.860	0.930
2020/01/31 13:34:28.8	0.900	0.230	-0.860	0.870
2020/01/31 13:34:28.9	0.880	0.210	-0.870	0.820
2020/01/31 13:34:29.0	0.870	0.190	-0.860	0.750
2020/01/31 13:34:29.1	0.860	0.160	-0.860	0.680
2020/01/31 13:34:29.2	0.850	0.140	-0.860	0.610
2020/01/31 13:34:29.3	0.840	0.110	-0.850	0.530
2020/01/31 13:34:29.4	0.830	0.080	-0.850	0.440
2020/01/31 13:34:29.5	0.830	0.060	-0.840	0.360
2020/01/31 13:34:29.6	0.840	0.030	-0.830	0.260
2020/01/31 13:34:29.7	0.850	0.000	-0.820	0.160
2020/01/31 13:34:29.8	0.860	-0.030	-0.820	0.060
2020/01/31 13:34:29.9	0.870	-0.050	-0.810	-0.040
2020/01/31 13:34:30.0	0.890	-0.080	-0.810	-0.150
2020/01/31 13:34:30.1	0.910	-0.100	-0.810	-0.260
2020/01/31 13:34:30.2	0.940	-0.120	-0.800	-0.370
2020/01/31 13:34:30.3	0.970	-0.140	-0.800	-0.480
2020/01/31 13:34:30.4	1.000	-0.160	-0.800	-0.600
2020/01/31 13:34:30.5	1.040	-0.170	-0.810	-0.710
2020/01/31 13:34:30.6	1.090	-0.180	-0.810	-0.830
2020/01/31 13:34:30.7	1.130	-0.190	-0.810	-0.950
2020/01/31 13:34:30.8	1.180	-0.200	-0.810	-1.060
2020/01/31 13:34:30.9	1.230	-0.200	-0.810	-1.170
2020/01/31 13:34:31.0	1.280	-0.200	-0.810	-1.280
2020/01/31 13:34:31.1	1.330	-0.200	-0.800	-1.380
2020/01/31 13:34:31.2	1.380	-0.200	-0.800	-1.480
2020/01/31 13:34:31.3	1.430	-0.200	-0.780	-1.570
2020/01/31 13:34:31.4	1.470	-0.190	-0.770	-1.660
2020/01/31 13:34:31.5	1.520	-0.190	-0.750	-1.740
2020/01/31 13:34:31.6	1.570	-0.180	-0.720	-1.820
2020/01/31 13:34:31.7	1.610	-0.180	-0.690	-1.890
2020/01/31 13:34:31.8	1.650	-0.170	-0.660	-1.960
2020/01/31 13:34:31.9	1.680	-0.160	-0.610	-2.020
2020/01/31 13:34:32.0	1.720	-0.160	-0.570	-2.070
2020/01/31 13:34:32.1	1.750	-0.150	-0.510	-2.110
2020/01/31 13:34:32.2	1.770	-0.140	-0.450	-2.150
2020/01/31 13:34:32.3	1.790	-0.140	-0.390	-2.170
2020/01/31 13:34:32.4	1.810	-0.140	-0.320	-2.190
2020/01/31 13:34:32.5	1.820	-0.130	-0.240	-2.200
2020/01/31 13:34:32.6	1.840	-0.130	-0.170	-2.200
2020/01/31 13:34:32.7	1.850	-0.130	-0.090	-2.190
2020/01/31 13:34:32.8	1.850	-0.130	-0.000	-2.170
2020/01/31 13:34:32.9	1.850	-0.130	0.080	-2.150
2020/01/31 13:34:33.0	1.840	-0.130	0.170	-2.110
2020/01/31 13:34:33.1	1.830	-0.130	0.260	-2.070
2020/01/31 13:34:33.2	1.810	-0.140	0.340	-2.010
2020/01/31 13:34:33.3	1.790	-0.140	0.430	-1.950
2020/01/31 13:34:33.4	1.770	-0.150	0.510	-1.880
2020/01/31 13:34:33.5	1.750	-0.150	0.590	-1.800
2020/01/31 13:34:33.6	1.720	-0.160	0.660	-1.710
2020/01/31 13:34:33.7	1.690	-0.160	0.730	-1.610
2020/01/31 13:34:33.8	1.660	-0.170	0.790	-1.520
2020/01/31 13:34:33.9	1.620	-0.170	0.850	-1.410
2020/01/31 13:34:34.0	1.580	-0.180	0.900	-1.310
2020/01/31 13:34:34.1	1.550	-0.180	0.940	-1.200
2020/01/31 13:34:34.2	1.510	-0.180	0.970	-1.090
2020/01/31 13:34:34.3	1.470	-0.190	0.990	-0.970
2020/01/31 13:34:34.4	1.430	-0.190	1.000	-0.860
2020/01/31 13:34:34.5	1.400	-0.190	1.010	-0.750
2020/01/31 13:34:34.6	1.350	-0.190	1.000	-0.640
2020/01/31 13:34:34.7	1.320	-0.180	0.980	-0.530
2020/01/31 13:34:34.8	1.280	-0.180	0.950	-0.420
2020/01/31 13:34:34.9	1.250	-0.170	0.920	-0.310
2020/01/31 13:34:35.0	1.210	-0.170	0.870	-0.210
2020/01/31 13:34:35.1	1.180	-0.160	0.810	-0.110
2020/01/31 13:34:35.2	1.140	-0.150	0.750	-0.010
2020/01/31 13:34:35.3	1.110	-0.140	0.680	0.080
2020/01/31 13:34:35.4	1.070	-0.120	0.610	0.180
2020/01/31 13:34:35.5	1.040	-0.110	0.530	0.270
2020/01/31 13:34:35.6	1.000	-0.090	0.440	0.360
2020/01/31 13:34:35.7	0.960	-0.080	0.350	0.450
2020/01/31 13:34:35.8	0.920	-0.060	0.260	0.530
2020/01/31 13:34:35.9	0.880	-0.040	0.170	0.610
2020/01/31 13:34:36.0	0.850	-0.030	0.090	0.690
2020/01/31 13:34:36.1	0.810	-0.010	-0.000	0.770
2020/01/31 13:34:36.2	0.770	0.010	-0.090	0.850
2020/01/31 13:34:36.3	0.730	0.020	-0.170	0.920
2020/01/31 13:34:36.4	0.690	0.040	-0.250	0.990
2020/01/31 13:34:36.5	0.650	0.050	-0.320	1.060
2020/01/31 13:34:36.6	0.630	0.070	-0.390	1.120
2020/01/31 13:34:36.7	0.600	0.080	-0.460	1.180
2020/01/31 13:34:36.8	0.560	0.090	-0.520	1.240
2020/01/31 13:34:36.9	0.530	0.100	-0.570	1.300
2020/01/31 13:34:37.0	0.500	0.110	-0.620	1.350
2020/01/31 13:34:37.1	0.470	0.110	-0.660	1.390
2020/01/31 13:34:37.2	0.440	0.120	-0.700	1.430
2020/01/31 13:34:37.3	0.420	0.120	-0.730	1.460
2020/01/31 13:34:37.4	0.400	0.120	-0.760	1.490
2020/01/31 13:34:37.5	0.380	0.120	-0.780	1.510
2020/01/31 13:34:37.6	0.370	0.120	-0.800	1.520
2020/01/31 13:34:37.7	0.370	0.110	-0.810	1.530
2020/01/31 13:34:37.8	0.370	0.110	-0.830	1.520
2020/01/31 13:34:37.9	0.370	0.100	-0.830	1.510
2020/01/31 13:34:38.0	0.380	0.090	-0.840	1.500
2020/01/31 13:34:38.1	0.400	0.080	-0.850	1.470
2020/01/31 13:34:38.2	0.420	0.070	-0.850	1.440
2020/01/31 13:34:38.3	0.450	0.060	-0.850	1.390
2020/01/31 13:34:38.4	0.480	0.060	-0.850	1.340
2020/01/31 13:34:38.5	0.520	0.050	-0.850	1.290
2020/01/31 13:34:38.6	0.560	0.040	-0.850	1.220
2020/01/31 13:34:38.7	0.610	0.030	-0.850	1.150
2020/01/31 13:34:38.8	0.660	0.020	-0.850	1.080
2020/01/31 13:34:38.9	0.710	0.010	-0.840	1.000
2020/01/31 13:34:39.0	0.760	0.010	-0.840	0.920
2020/01/31 13:34:39.1	0.820	-0.000	-0.840	0.840
2020/01/31 13:34:39.2	0.870	-0.010	-0.830	0.750
2020/01/31 13:34:39.3	0.930	-0.010	-0.820	0.660
2020/01/31 13:34:39.4	0.990	-0.020	-0.810	0.570
2020/01/31 13:34:39.5	1.040	-0.020	-0.800	0.490
2020/01/31 13:34:39.6	1.100	-0.030	-0.790	0.390
2020/01/31 13:34:39.7	1.150	-0.030	-0.780	0.310
2020/01/31 13:34:39.8	1.190	-0.030	-0.760	0.230
2020/01/31 13:34:39.9	1.240	-0.040	-0.740	0.160
2020/01/31 13:34:40.0	1.270	-0.040	-0.710	0.080
2020/01/31 13:34:40.1	1.310	-0.040	-0.680	0.010
2020/01/31 13:34:40.2	1.340	-0.050	-0.650	-0.050
2020/01/31 13:34:40.3	1.360	-0.050	-0.620	-0.120
2020/01/31 13:34:40.4	1.390	-0.050	-0.580	-0.180
2020/01/31 13:34:40.5	1.410	-0.060	-0.540	-0.230
2020/01/31 13:34:40.6	1.410	-0.060	-0.500	-0.290
2020/01/31 13:34:40.7	1.420	-0.070	-0.460	-0.340
2020/01/31 13:34:40.8	1.430	-0.070	-0.420	-0.390
2020/01/31 13:34:40.9	1.440	-0.080	-0.370	-0.430
2020/01/31 13:34:41.0	1.440	-0.080	-0.330	-0.480
2020/01/31 13:34:41.1	1.440	-0.090	-0.290	-0.520
2020/01/31 13:34:41.2	1.440	-0.100	-0.240	-0.560
2020/01/31 13:34:41.3	1.430	-0.110	-0.200	-0.600
2020/01/31 13:34:41.4	1.430	-0.110	-0.160	-0.630
2020/01/31 13:34:41.5	1.420	-0.120	-0.120	-0.660
2020/01/31 13:34:41.6	1.400	-0.130	-0.090	-0.690
2020/01/31 13:34:41.7	1.390	-0.140	-0.060	-0.720
2020/01/31 13:34:41.8	1.370	-0.140	-0.030	-0.740
2020/01/31 13:34:41.9	1.360	-0.150	-0.010	-0.770
2020/01/31 13:34:42.0	1.340	-0.160	0.010	-0.790
2020/01/31 13:34:42.1	1.320	-0.160	0.020	-0.800
2020/01/31 13:34:42.2	1.310	-0.160	0.030	-0.820
2020/01/31 13:34:42.3	1.290	-0.170	0.030	-0.830
2020/01/31 13:34:42.4	1.270	-0.170	0.030	-0.840
2020/01/31 13:34:42.5	1.250	-0.170	0.020	-0.850
2020/01/31 13:34:42.6	1.230	-0.160	0.010	-0.860
2020/01/31 13:34:42.7	1.210	-0.160	-0.000	-0.860
2020/01/31 13:34:42.8	1.190	-0.150	-0.020	-0.860
2020/01/31 13:34:42.9	1.170	-0.140	-0.040	-0.870
2020/01/31 13:34:43.0	1.160	-0.130	-0.070	-0.870
2020/01/31 13:34:43.1	1.140	-0.110	-0.100	-0.870
2020/01/31 13:34:43.2	1.120	-0.100	-0.130	-0.870
2020/01/31 13:34:43.3	1.110	-0.080	-0.160	-0.870
2020/01/31 13:34:43.4	1.090	-0.060	-0.190	-0.870
2020/01/31 13:34:43.5	1.080	-0.030	-0.220	-0.870
2020/01/31 13:34:43.6	1.080	-0.010	-0.260	-0.870
2020/01/31 13:34:43.7	1.070	0.020	-0.290	-0.870
2020/01/31 13:34:43.8	1.070	0.050	-0.320	-0.860
2020/01/31 13:34:43.9	1.060	0.080	-0.340	-0.860
2020/01/31 13:34:44.0	1.060	0.120	-0.370	-0.850
2020/01/31 13:34:44.1	1.050	0.150	-0.390	-0.840
2020/01/31 13:34:44.2	1.050	0.190	-0.400	-0.830
2020/01/31 13:34:44.3	1.050	0.230	-0.410	-0.820
2020/01/31 13:34:44.4	1.050	0.270	-0.420	-0.800
2020/01/31 13:34:44.5	1.050	0.310	-0.420	-0.780
2020/01/31 13:34:44.6	1.060	0.340	-0.420	-0.760
2020/01/31 13:34:44.7	1.060	0.380	-0.410	-0.730
2020/01/31 13:34:44.8	1.060	0.420	-0.400	-0.700
2020/01/31 13:34:44.9	1.060	0.460	-0.380	-0.660
2020/01/31 13:34:45.0	1.060	0.490	-0.360	-0.620
2020/01/31 13:34:45.1	1.060	0.520	-0.330	-0.570
2020/01/31 13:34:45.2	1.060	0.550	-0.300	-0.520
2020/01/31 13:34:45.3	1.050	0.580	-0.260	-0.470
2020/01/31 13:34:45.4	1.050	0.600	-0.220	-0.410
2020/01/31 13:34:45.5	1.040	0.620	-0.180	-0.360
2020/01/31 13:34:45.6	1.020	0.630	-0.130	-0.290
2020/01/31 13:34:45.7	1.010	0.640	-0.080	-0.230
2020/01/31 13:34:45.8	1.000	0.640	-0.030	-0.160
2020/01/31 13:34:45.9	0.980	0.640	0.020	-0.090
2020/01/31 13:34:46.0	0.960	0.630	0.070	-0.030
2020/01/31 13:34:46.1	0.940	0.620	0.120	0.040
2020/01/31 13:34:46.2	0.910	0.600	0.170	0.100
2020/01/31 13:34:46.3	0.890	0.570	0.220	0.160
2020/01/31 13:34:46.4	0.860	0.540	0.270	0.220
2020/01/31 13:34:46.5	0.840	0.510	0.310	0.280
2020/01/31 13:34:46.6	0.810	0.470	0.350	0.330
2020/01/31 13:34:46.7	0.780	0.420	0.380	0.380
2020/01/31 13:34:46.8	0.760	0.380	0.410	0.430
2020/01/31 13:34:46.9	0.730	0.320	0.430	0.470
2020/01/31 13:34:47.0	0.710	0.270	0.450	0.500
2020/01/31 13:34:47.1	0.680	0.210	0.460	0.530
2020/01/31 13:34:47.2	0.660	0.150	0.460	0.550
2020/01/31 13:34:47.3	0.640	0.090	0.450	0.570
2020/01/31 13:34:47.4	0.630	0.030	0.440	0.580
2020/01/31 13:34:47.5	0.620	-0.030	0.420	0.580
2020/01/31 13:34:47.6	0.590	-0.090	0.390	0.580
2020/01/31 13:34:47.7	0.580	-0.150	0.360	0.570
2020/01/31 13:34:47.8	0.580	-0.200	0.320	0.550
2020/01/31 13:34:47.9	0.580	-0.260	0.270	0.530
2020/01/31 13:34:48.0	0.580	-0.310	0.210	0.500
2020/01/31 13:34:48.1	0.590	-0.360	0.150	0.460
2020/01/31 13:34:48.2	0.600	-0.410	0.090	0.420
2020/01/31 13:34:48.3	0.620	-0.450	0.010	0.370
2020/01/31 13:34:48.4	0.630	-0.490	-0.060	0.320
2020/01/31 13:34:48.5	0.650	-0.520	-0.140	0.260
2020/01/31 13:34:48.6	0.670	-0.550	-0.220	0.200
2020/01/31 13:34:48.7	0.700	-0.570	-0.300	0.140
2020/01/31 13:34:48.8	0.730	-0.590	-0.380	0.070
2020/01/31 13:34:48.9	0.760	-0.610	-0.460	0.010
2020/01/31 13:34:49.0	0.790	-0.620	-0.530	-0.060
2020/01/31 13:34:49.1	0.820	-0.620	-0.600	-0.120
2020/01/31 13:34:49.2	0.860	-0.620	-0.670	-0.190
2020/01/31 13:34:49.3	0.890	-0.620	-0.730	-0.260
2020/01/31 13:34:49.4	0.920	-0.610	-0.790	-0.320
2020/01/31 13:34:49.5	0.950	-0.600	-0.830	-0.380
2020/01/31 13:34:49.6	1.000	-0.590	-0.870	-0.440
2020/01/31 13:34:49.7	1.030	-0.580	-0.900	-0.500
2020/01/31 13:34:49.8	1.050	-0.560	-0.920	-0.550
2020/01/31 13:34:49.9	1.080	-0.540	-0.930	-0.600
2020/01/31 13:34:50.0	1.100	-0.520	-0.940	-0.640
2020/01/31 13:34:50.1	1.110	-0.500	-0.930	-0.690
2020/01/31 13:34:50.2	1.130	-0.480	-0.910	-0.720
2020/01/31 13:34:50.3	1.140	-0.460	-0.880	-0.750
2020/01/31 13:34:50.4	1.150	-0.440	-0.850	-0.780
2020/01/31 13:34:50.5	1.150	-0.420	-0.800	-0.800
2020/01/31 13:34:50.6	1.150	-0.400	-0.760	-0.810
2020/01/31 13:34:50.7	1.150	-0.380	-0.700	-0.820
2020/01/31 13:34:50.8	1.150	-0.360	-0.630	-0.830
2020/01/31 13:34:50.9	1.140	-0.340	-0.570	-0.820
2020/01/31 13:34:51.0	1.130	-0.330	-0.490	-0.820
2020/01/31 13:34:51.1	1.120	-0.310	-0.420	-0.810
2020/01/31 13:34:51.2	1.110	-0.290	-0.340	-0.790
2020/01/31 13:34:51.3	1.090	-0.280	-0.270	-0.770
2020/01/31 13:34:51.4	1.070	-0.270	-0.190	-0.740
2020/01/31 13:34:51.5	1.060	-0.250	-0.120	-0.720
2020/01/31 13:34:51.6	1.040	-0.240	-0.050	-0.680
2020/01/31 13:34:51.7	1.020	-0.230	0.020	-0.650
2020/01/31 13:34:51.8	1.000	-0.220	0.090	-0.610
2020/01/31 13:34:51.9	0.980	-0.210	0.150	-0.580
2020/01/31 13:34:52.0	0.960	-0.200	0.200	-0.540
2020/01/31 13:34:52.1	0.930	-0.180	0.240	-0.500
2020/01/31 13:34:52.2	0.910	-0.170	0.280	-0.460
2020/01/31 13:34:52.3	0.890	-0.160	0.310	-0.420
2020/01/31 13:34:52.4	0.870	-0.140	0.330	-0.380
2020/01/31 13:34:52.5	0.850	-0.120	0.340	-0.340
2020/01/31 13:34:52.6	0.830	-0.110	0.340	-0.300
2020/01/31 13:34:52.7	0.810	-0.080	0.340	-0.270
2020/01/31 13:34:52.8	0.790	-0.060	0.320	-0.240
2020/01/31 13:34:52.9	0.780	-0.040	0.290	-0.210
2020/01/31 13:34:53.0	0.760	-0.010	0.250	-0.180
2020/01/31 13:34:53.1	0.750	0.020	0.210	-0.150
2020/01/31 13:34:53.2	0.740	0.050	0.160	-0.130
2020/01/31 13:34:53.3	0.740	0.080	0.100	-0.110
2020/01/31 13:34:53.4	0.730	0.110	0.030	-0.090
2020/01/31 13:34:53.5	0.730	0.150	-0.050	-0.080
2020/01/31 13:34:53.6	0.730	0.180	-0.130	-0.070
2020/01/31 13:34:53.7	0.730	0.220	-0.210	-0.060
2020/01/31 13:34:53.8	0.730	0.260	-0.290	-0.050
2020/01/31 13:34:53.9	0.740	0.290	-0.380	-0.050
2020/01/31 13:34:54.0	0.760	0.330	-0.470	-0.040
2020/01/31 13:34:54.1	0.770	0.370	-0.560	-0.040
2020/01/31 13:34:54.2	0.790	0.410	-0.650	-0.050
2020/01/31 13:34:54.3	0.810	0.450	-0.730	-0.050
2020/01/31 13:34:54.4	0.840	0.480	-0.820	-0.050
2020/01/31 13:34:54.5	0.870	0.520	-0.900	-0.060
2020/01/31 13:34:54.6	0.900	0.550	-0.970	-0.070
2020/01/31 13:34:54.7	0.930	0.580	-1.040	-0.080
2020/01/31 13:34:54.8	0.970	0.610	-1.100	-0.090
2020/01/31 13:34:54.9	1.010	0.630	-1.150	-0.100
2020/01/31 13:34:55.0	1.050	0.660	-1.200	-0.110
2020/01/31 13:34:55.1	1.080	0.670	-1.240	-0.110
2020/01/31 13:34:55.2	1.120	0.690	-1.260	-0.120
2020/01/31 13:34:55.3	1.160	0.700	-1.280	-0.120
2020/01/31 13:34:55.4	1.200	0.700	-1.280	-0.130
2020/01/31 13:34:55.5	1.230	0.700	-1.270	-0.120
2020/01/31 13:34:55.6	1.260	0.700	-1.260	-0.120
2020/01/31 13:34:55.7	1.280	0.690	-1.230	-0.110
2020/01/31 13:34:55.8	1.310	0.670	-1.190	-0.100
2020/01/31 13:34:55.9	1.320	0.650	-1.130	-0.090
2020/01/31 13:34:56.0	1.340	0.630	-1.070	-0.080
2020/01/31 13:34:56.1	1.350	0.600	-1.000	-0.070
2020/01/31 13:34:56.2	1.360	0.560	-0.920	-0.050
2020/01/31 13:34:56.3	1.360	0.520	-0.830	-0.030
2020/01/31 13:34:56.4	1.360	0.470	-0.730	-0.010
2020/01/31 13:34:56.5	1.350	0.420	-0.620	0.010
2020/01/31 13:34:56.6	1.340	0.370	-0.520	0.030
2020/01/31 13:34:56.7	1.330	0.310	-0.400	0.050
2020/01/31 13:34:56.8	1.320	0.250	-0.290	0.070
2020/01/31 13:34:56.9	1.300	0.180	-0.170	0.100
2020/01/31 13:34:57.0	1.280	0.120	-0.050	0.120
2020/01/31 13:34:57.1	1.260	0.050	0.070	0.140
2020/01/31 13:34:57.2	1.230	-0.020	0.180	0.160
2020/01/31 13:34:57.3	1.210	-0.090	0.300	0.180
2020/01/31 13:34:57.4	1.180	-0.160	0.410	0.200
2020/01/31 13:34:57.5	1.150	-0.230	0.510	0.220
2020/01/31 13:34:57.6	1.120	-0.290	0.610	0.240
2020/01/31 13:34:57.7	1.090	-0.360	0.710	0.250
2020/01/31 13:34:57.8	1.050	-0.420	0.790	0.270
2020/01/31 13:34:57.9	1.020	-0.480	0.870	0.280
2020/01/31 13:34:58.0	0.980	-0.540	0.940	0.300
2020/01/31 13:34:58.1	0.950	-0.590	1.000	0.310
2020/01/31 13:34:58.2	0.910	-0.630	1.050	0.320
2020/01/31 13:34:58.3	0.880	-0.670	1.090	0.330
2020/01/31 13:34:58.4	0.840	-0.710	1.120	0.340
2020/01/31 13:34:58.5	0.800	-0.740	1.130	0.350
2020/01/31 13:34:58.6	0.770	-0.760	1.140	0.360
2020/01/31 13:34:58.7	0.740	-0.770	1.140	0.360
2020/01/31 13:34:58.8	0.700	-0.780	1.120	0.370
2020/01/31 13:34:58.9	0.670	-0.780	1.100	0.370
2020/01/31 13:34:59.0	0.630	-0.770	1.060	0.370
2020/01/31 13:34:59.1	0.600	-0.750	1.020	0.370
2020/01/31 13:34:59.2	0.570	-0.730	0.970	0.370
2020/01/31 13:34:59.3	0.540	-0.700	0.900	0.360
2020/01/31 13:34:59.4	0.520	-0.660	0.830	0.360
2020/01/31 13:34:59.5	0.490	-0.620	0.760	0.350
2020/01/31 13:34:59.6	0.480	-0.570	0.680	0.350
2020/01/31 13:34:59.7	0.460	-0.510	0.590	0.340
2020/01/31 13:34:59.8	0.440	-0.450	0.490	0.330
2020/01/31 13:34:59.9	0.420	-0.390	0.400	0.320
2020/01/31 13:35:00.0	0.400	-0.320	0.300	0.300
2020/01/31 13:35:00.1	0.380	-0.260	0.190	0.290
2020/01/31 13:35:00.2	0.370	-0.190	0.090	0.270
2020/01/31 13:35:00.3	0.350	-0.110	-0.020	0.260
2020/01/31 13:35:00.4	0.340	-0.040	-0.120	0.230
2020/01/31 13:35:00.5	0.330	0.030	-0.230	0.210
2020/01/31 13:35:00.6	0.330	0.100	-0.330	0.180
2020/01/31 13:35:00.7	0.330	0.160	-0.430	0.160
2020/01/31 13:35:00.8	0.330	0.230	-0.530	0.120
2020/01/31 13:35:00.9	0.330	0.290	-0.630	0.090
2020/01/31 13:35:01.0	0.340	0.350	-0.720	0.050
2020/01/31 13:35:01.1	0.350	0.400	-0.810	0.010
2020/01/31 13:35:01.2	0.370	0.450	-0.890	-0.030
2020/01/31 13:35:01.3	0.390	0.500	-0.970	-0.070
2020/01/31 13:35:01.4	0.410	0.540	-1.040	-0.120
2020/01/31 13:35:01.5	0.440	0.570	-1.100	-0.170
2020/01/31 13:35:01.6	0.500	0.600	-1.160	-0.220
2020/01/31 13:35:01.7	0.530	0.630	-1.220	-0.270
2020/01/31 13:35:01.8	0.570	0.650	-1.260	-0.330
2020/01/31 13:35:01.9	0.610	0.660	-1.300	-0.380
2020/01/31 13:35:02.0	0.660	0.660	-1.330	-0.440
2020/01/31 13:35:02.1	0.700	0.670	-1.360	-0.490
2020/01/31 13:35:02.2	0.750	0.660	-1.380	-0.550
2020/01/31 13:35:02.3	0.800	0.650	-1.380	-0.610
2020/01/31 13:35:02.4	0.850	0.640	-1.390	-0.670
2020/01/31 13:35:02.5	0.900	0.620	-1.380	-0.720
2020/01/31 13:35:02.6	0.960	0.590	-1.370	-0.780
2020/01/31 13:35:02.7	1.010	0.560	-1.350	-0.830
2020/01/31 13:35:02.8	1.060	0.530	-1.320	-0.880
2020/01/31 13:35:02.9	1.110	0.490	-1.290	-0.930
2020/01/31 13:35:03.0	1.150	0.450	-1.250	-0.970
2020/01/31 13:35:03.1	1.190	0.410	-1.200	-1.010
2020/01/31 13:35:03.2	1.230	0.360	-1.140	-1.050
2020/01/31 13:35:03.3	1.260	0.320	-1.070	-1.080
2020/01/31 13:35:03.4	1.290	0.270	-1.000	-1.110
2020/01/31 13:35:03.5	1.320	0.220	-0.930	-1.130
2020/01/31 13:35:03.6	1.340	0.170	-0.850	-1.150
2020/01/31 13:35:03.7	1.360	0.120	-0.760	-1.170
2020/01/31 13:35:03.8	1.380	0.070	-0.670	-1.180
2020/01/31 13:35:03.9	1.400	0.020	-0.580	-1.190
2020/01/31 13:35:04.0	1.410	-0.030	-0.490	-1.200
2020/01/31 13:35:04.1	1.420	-0.070	-0.390	-1.200
2020/01/31 13:35:04.2	1.430	-0.120	-0.300	-1.200
2020/01/31 13:35:04.3	1.430	-0.160	-0.200	-1.200
2020/01/31 13:35:04.4	1.430	-0.210	-0.110	-1.190
2020/01/31 13:35:04.5	1.430	-0.250	-0.020	-1.190
2020/01/31 13:35:04.6	1.410	-0.280	0.060	-1.170
2020/01/31 13:35:04.7	1.410	-0.320	0.140	-1.160
2020/01/31 13:35:04.8	1.400	-0.350	0.220	-1.140
2020/01/31 13:35:04.9	1.390	-0.380	0.290	-1.130
2020/01/31 13:35:05.0	1.380	-0.400	0.360	-1.100
2020/01/31 13:35:05.1	1.370	-0.430	0.420	-1.080
2020/01/31 13:35:05.2	1.360	-0.440	0.470	-1.060
2020/01/31 13:35:05.3	1.350	-0.460	0.520	-1.030
2020/01/31 13:35:05.4	1.330	-0.470	0.560	-1.000
2020/01/31 13:35:05.5	1.320	-0.480	0.590	-0.970
2020/01/31 13:35:05.6	1.300	-0.490	0.610	-0.940
2020/01/31 13:35:05.7	1.290	-0.490	0.630	-0.910
2020/01/31 13:35:05.8	1.270	-0.490	0.640	-0.880
2020/01/31 13:35:05.9	1.260	-0.480	0.640	-0.840
2020/01/31 13:35:06.0	1.240	-0.470	0.630	-0.810
2020/01/31 13:35:06.1	1.230	-0.460	0.620	-0.780
2020/01/31 13:35:06.2	1.220	-0.450	0.600	-0.740
2020/01/31 13:35:06.3	1.200	-0.440	0.580	-0.710
2020/01/31 13:35:06.4	1.190	-0.420	0.550	-0.670
2020/01/31 13:35:06.5	1.180	-0.400	0.510	-0.640
2020/01/31 13:35:06.6	1.160	-0.380	0.470	-0.600
2020/01/31 13:35:06.7	1.150	-0.360	0.430	-0.570
2020/01/31 13:35:06.8	1.140	-0.330	0.380	-0.530
2020/01/31 13:35:06.9	1.130	-0.310	0.330	-0.500
2020/01/31 13:35:07.0	1.120	-0.280	0.280	-0.460
2020/01/31 13:35:07.1	1.110	-0.250	0.230	-0.430
2020/01/31 13:35:07.2	1.100	-0.220	0.170	-0.390
2020/01/31 13:35:07.3	1.090	-0.200	0.120	-0.350
2020/01/31 13:35:07.4	1.070	-0.170	0.070	-0.320
2020/01/31 13:35:07.5	1.060	-0.140	0.010	-0.280
2020/01/31 13:35:07.6	1.050	-0.110	-0.040	-0.230
2020/01/31 13:35:07.7	1.030	-0.090	-0.090	-0.190
2020/01/31 13:35:07.8	1.020	-0.060	-0.130	-0.150
2020/01/31 13:35:07.9	1.000	-0.040	-0.170	-0.110
2020/01/31 13:35:08.0	0.990	-0.010	-0.210	-0.060
2020/01/31 13:35:08.1	0.970	0.010	-0.250	-0.010
2020/01/31 13:35:08.2	0.960	0.030	-0.280	0.040
2020/01/31 13:35:08.3	0.940	0.050	-0.300	0.090
2020/01/31 13:35:08.4	0.930	0.070	-0.330	0.140
2020/01/31 13:35:08.5	0.920	0.090	-0.340	0.190
2020/01/31 13:35:08.6	0.910	0.110	-0.360	0.240
2020/01/31 13:35:08.7	0.900	0.120	-0.370	0.300
2020/01/31 13:35:08.8	0.900	0.140	-0.380	0.350
2020/01/31 13:35:08.9	0.890	0.150	-0.390	0.400
2020/01/31 13:35:09.0	0.890	0.160	-0.400	0.450
2020/01/31 13:35:09.1	0.890	0.170	-0.400	0.500
2020/01/31 13:35:09.2	0.890	0.180	-0.410	0.540
2020/01/31 13:35:09.3	0.890	0.190	-0.410	0.580
2020/01/31 13:35:09.4	0.900	0.200	-0.420	0.620
2020/01/31 13:35:09.5	0.910	0.210	-0.420	0.660
2020/01/31 13:35:09.6	0.920	0.210	-0.430	0.700
2020/01/31 13:35:09.7	0.930	0.220	-0.430	0.730
2020/01/31 13:35:09.8	0.950	0.220	-0.440	0.750
2020/01/31 13:35:09.9	0.960	0.220	-0.440	0.770
2020/01/31 13:35:10.0	0.980	0.230	-0.450	0.790
2020/01/31 13:35:10.1	0.990	0.230	-0.450	0.800
2020/01/31 13:35:10.2	1.010	0.230	-0.460	0.810
2020/01/31 13:35:10.3	1.030	0.230	-0.470	0.810
2020/01/31 13:35:10.4	1.060	0.230	-0.480	0.810
2020/01/31 13:35:10.5	1.080	0.220	-0.490	0.800
2020/01/31 13:35:10.6	1.100	0.220	-0.500	0.790
2020/01/31 13:35:10.7	1.120	0.220	-0.510	0.780
2020/01/31 13:35:10.8	1.150	0.210	-0.520	0.760
2020/01/31 13:35:10.9	1.170	0.210	-0.540	0.730
2020/01/31 13:35:11.0	1.200	0.200	-0.550	0.710
2020/01/31 13:35:11.1	1.230	0.190	-0.560	0.680
2020/01/31 13:35:11.2	1.260	0.180	-0.570	0.640
2020/01/31 13:35:11.3	1.290	0.180	-0.570	0.610
2020/01/31 13:35:11.4	1.320	0.170	-0.580	0.570
2020/01/31 13:35:11.5	1.350	0.160	-0.590	0.530
2020/01/31 13:35:11.6	1.380	0.150	-0.590	0.500
2020/01/31 13:35:11.7	1.410	0.140	-0.590	0.460
2020/01/31 13:35:11.8	1.430	0.130	-0.590	0.420
2020/01/31 13:35:11.9	1.450	0.120	-0.580	0.380
2020/01/31 13:35:12.0	1.470	0.110	-0.570	0.340
2020/01/31 13:35:12.1	1.490	0.100	-0.560	0.310
2020/01/31 13:35:12.2	1.500	0.090	-0.540	0.270
2020/01/31 13:35:12.3	1.510	0.080	-0.530	0.240
2020/01/31 13:35:12.4	1.520	0.070	-0.510	0.200
2020/01/31 13:35:12.5	1.530	0.070	-0.490	0.160
2020/01/31 13:35:12.6	1.540	0.060	-0.460	0.130
2020/01/31 13:35:12.7	1.540	0.050	-0.440	0.090
2020/01/31 13:35:12.8	1.540	0.040	-0.410	0.060
2020/01/31 13:35:12.9	1.550	0.040	-0.380	0.020
2020/01/31 13:35:13.0	1.550	0.030	-0.360	-0.010
2020/01/31 13:35:13.1	1.550	0.030	-0.330	-0.050
2020/01/31 13:35:13.2	1.550	0.020	-0.300	-0.080
2020/01/31 13:35:13.3	1.550	0.020	-0.280	-0.120
2020/01/31 13:35:13.4	1.550	0.020	-0.250	-0.150
2020/01/31 13:35:13.5	1.560	0.020	-0.230	-0.190
2020/01/31 13:35:13.6	1.560	0.030	-0.220	-0.230
2020/01/31 13:35:13.7	1.560	0.030	-0.200	-0.260
2020/01/31 13:35:13.8	1.570	0.040	-0.180	-0.300
2020/01/31 13:35:13.9	1.580	0.050	-0.170	-0.340
2020/01/31 13:35:14.0	1.590	0.060	-0.160	-0.370
2020/01/31 13:35:14.1	1.600	0.070	-0.150	-0.410
2020/01/31 13:35:14.2	1.610	0.080	-0.140	-0.440
2020/01/31 13:35:14.3	1.620	0.090	-0.130	-0.470
2020/01/31 13:35:14.4	1.630	0.100	-0.130	-0.500
2020/01/31 13:35:14.5	1.630	0.120	-0.130	-0.530
2020/01/31 13:35:14.6	1.650	0.130	-0.120	-0.560
2020/01/31 13:35:14.7	1.660	0.140	-0.120	-0.580
2020/01/31 13:35:14.8	1.660	0.150	-0.120	-0.610
2020/01/31 13:35:14.9	1.670	0.160	-0.120	-0.630
2020/01/31 13:35:15.0	1.670	0.170	-0.120	-0.650
2020/01/31 13:35:15.1	1.670	0.180	-0.120	-0.670
2020/01/31 13:35:15.2	1.680	0.190	-0.110	-0.690
2020/01/31 13:35:15.3	1.680	0.190	-0.110	-0.710
2020/01/31 13:35:15.4	1.680	0.190	-0.110	-0.730
2020/01/31 13:35:15.5	1.680	0.190	-0.100	-0.740
2020/01/31 13:35:15.6	1.670	0.190	-0.100	-0.760
2020/01/31 13:35:15.7	1.670	0.190	-0.090	-0.780
2020/01/31 13:35:15.8	1.670	0.180	-0.080	-0.790
2020/01/31 13:35:15.9	1.670	0.170	-0.070	-0.810
2020/01/31 13:35:16.0	1.670	0.160	-0.060	-0.820
2020/01/31 13:35:16.1	1.660	0.150	-0.040	-0.830
2020/01/31 13:35:16.2	1.660	0.130	-0.030	-0.840
2020/01/31 13:35:16.3	1.660	0.110	-0.020	-0.850
2020/01/31 13:35:16.4	1.660	0.090	-0.000	-0.860
2020/01/31 13:35:16.5	1.650	0.070	0.010	-0.860
2020/01/31 13:35:16.6	1.650	0.050	0.020	-0.870
2020/01/31 13:35:16.7	1.650	0.020	0.040	-0.870
2020/01/31 13:35:16.8	1.650	-0.010	0.050	-0.870
2020/01/31 13:35:16.9	1.650	-0.030	0.070	-0.860
2020/01/31 13:35:17.0	1.640	-0.060	0.080	-0.850
2020/01/31 13:35:17.1	1.640	-0.090	0.100	-0.840
2020/01/31 13:35:17.2	1.630	-0.120	0.110	-0.830
2020/01/31 13:35:17.3	1.630	-0.150	0.120	-0.810
2020/01/31 13:35:17.4	1.620	-0.180	0.140	-0.790
2020/01/31 13:35:17.5	1.610	-0.220	0.150	-0.770
2020/01/31 13:35:17.6	1.600	-0.250	0.160	-0.740
2020/01/31 13:35:17.7	1.590	-0.280	0.170	-0.710
2020/01/31 13:35:17.8	1.570	-0.300	0.170	-0.680
2020/01/31 13:35:17.9	1.550	-0.330	0.180	-0.650
2020/01/31 13:35:18.0	1.530	-0.360	0.180	-0.620
2020/01/31 13:35:18.1	1.510	-0.380	0.180	-0.580
2020/01/31 13:35:18.2	1.490	-0.400	0.170	-0.550
2020/01/31 13:35:18.3	1.470	-0.420	0.160	-0.520
2020/01/31 13:35:18.4	1.450	-0.440	0.150	-0.490
2020/01/31 13:35:18.5	1.430	-0.450	0.130	-0.460
2020/01/31 13:35:18.6	1.420	-0.460	0.110	-0.430
2020/01/31 13:35:18.7	1.410	-0.470	0.090	-0.410
2020/01/31 13:35:18.8	1.390	-0.470	0.050	-0.390
2020/01/31 13:35:18.9	1.380	-0.470	0.020	-0.370
2020/01/31 13:35:19.0	1.370	-0.460	-0.020	-0.360
2020/01/31 13:35:19.1	1.360	-0.450	-0.070	-0.350
2020/01/31 13:35:19.2	1.360	-0.430	-0.120	-0.350
2020/01/31 13:35:19.3	1.360	-0.410	-0.170	-0.350
2020/01/31 13:35:19.4	1.360	-0.380	-0.230	-0.350
2020/01/31 13:35:19.5	1.370	-0.350	-0.280	-0.350
2020/01/31 13:35:19.6	1.370	-0.320	-0.350	-0.360
2020/01/31 13:35:19.7	1.380	-0.280	-0.410	-0.370
2020/01/31 13:35:19.8	1.390	-0.240	-0.470	-0.370
2020/01/31 13:35:19.9	1.410	-0.190	-0.540	-0.380
2020/01/31 13:35:20.0	1.430	-0.140	-0.600	-0.390
2020/01/31 13:35:20.1	1.450	-0.090	-0.660	-0.400
2020/01/31 13:35:20.2	1.480	-0.030	-0.720	-0.400
2020/01/31 13:35:20.3	1.500	0.020	-0.770	-0.410
2020/01/31 13:35:20.4	1.530	0.080	-0.820	-0.410
2020/01/31 13:35:20.5	1.550	0.140	-0.860	-0.410
2020/01/31 13:35:20.6	1.580	0.190	-0.900	-0.410
2020/01/31 13:35:20.7	1.600	0.250	-0.940	-0.410
2020/01/31 13:35:20.8	1.630	0.300	-0.960	-0.410
2020/01/31 13:35:20.9	1.650	0.350	-0.980	-0.410
2020/01/31 13:35:21.0	1.660	0.400	-0.980	-0.400
2020/01/31 13:35:21.1	1.680	0.440	-0.980	-0.390
2020/01/31 13:35:21.2	1.690	0.480	-0.970	-0.380
2020/01/31 13:35:21.3	1.700	0.510	-0.950	-0.370
2020/01/31 13:35:21.4	1.710	0.530	-0.930	-0.360
2020/01/31 13:35:21.5	1.720	0.560	-0.900	-0.350
2020/01/31 13:35:21.6	1.720	0.570	-0.860	-0.330
2020/01/31 13:35:21.7	1.730	0.580	-0.810	-0.310
2020/01/31 13:35:21.8	1.730	0.580	-0.760	-0.300
2020/01/31 13:35:21.9	1.730	0.570	-0.700	-0.280
2020/01/31 13:35:22.0	1.720	0.560	-0.630	-0.260
2020/01/31 13:35:22.1	1.720	0.550	-0.570	-0.240
2020/01/31 13:35:22.2	1.710	0.520	-0.500	-0.220
2020/01/31 13:35:22.3	1.710	0.490	-0.420	-0.200
2020/01/31 13:35:22.4	1.700	0.460	-0.350	-0.180
2020/01/31 13:35:22.5	1.700	0.420	-0.270	-0.160
2020/01/31 13:35:22.6	1.700	0.380	-0.200	-0.140
2020/01/31 13:35:22.7	1.690	0.330	-0.120	-0.120
2020/01/31 13:35:22.8	1.690	0.280	-0.050	-0.100
2020/01/31 13:35:22.9	1.690	0.230	0.020	-0.080
2020/01/31 13:35:23.0	1.680	0.170	0.090	-0.070
2020/01/31 13:35:23.1	1.680	0.120	0.160	-0.050
2020/01/31 13:35:23.2	1.680	0.060	0.220	-0.030
2020/01/31 13:35:23.3	1.680	0.010	0.270	-0.020
2020/01/31 13:35:23.4	1.680	-0.050	0.320	-0.010
2020/01/31 13:35:23.5	1.680	-0.100	0.370	0.000
2020/01/31 13:35:23.6	1.670	-0.160	0.400	0.010
2020/01/31 13:35:23.7	1.670	-0.210	0.440	0.020
2020/01/31 13:35:23.8	1.670	-0.250	0.470	0.020
2020/01/31 13:35:23.9	1.660	-0.300	0.490	0.030
2020/01/31 13:35:24.0	1.660	-0.340	0.510	0.040
2020/01/31 13:35:24.1	1.660	-0.370	0.520	0.040
2020/01/31 13:35:24.2	1.650	-0.410	0.530	0.050
2020/01/31 13:35:24.3	1.640	-0.430	0.530	0.050
2020/01/31 13:35:24.4	1.630	-0.460	0.520	0.060
2020/01/31 13:35:24.5	1.620	-0.480	0.520	0.060
2020/01/31 13:35:24.6	1.590	-0.490	0.500	0.070
2020/01/31 13:35:24.7	1.580	-0.500	0.490	0.070
2020/01/31 13:35:24.8	1.560	-0.500	0.470	0.080
2020/01/31 13:35:24.9	1.550	-0.500	0.440	0.090
2020/01/31 13:35:25.0	1.530	-0.500	0.410	0.100
2020/01/31 13:35:25.1	1.510	-0.480	0.380	0.110
2020/01/31 13:35:25.2	1.490	-0.470	0.340	0.120
2020/01/31 13:35:25.3	1.470	-0.450	0.300	0.130
2020/01/31 13:35:25.4	1.450	-0.420	0.250	0.150
2020/01/31 13:35:25.5	1.430	-0.400	0.200	0.160
2020/01/31 13:35:25.6	1.420	-0.370	0.150	0.180
2020/01/31 13:35:25.7	1.400	-0.330	0.090	0.190
2020/01/31 13:35:25.8	1.380	-0.290	0.030	0.210
2020/01/31 13:35:25.9	1.370	-0.250	-0.030	0.220
2020/01/31 13:35:26.0	1.350	-0.210	-0.100	0.230
2020/01/31 13:35:26.1	1.340	-0.170	-0.170	0.240
2020/01/31 13:35:26.2	1.330	-0.120	-0.240	0.250
2020/01/31 13:35:26.3	1.320	-0.080	-0.320	0.260
2020/01/31 13:35:26.4	1.310	-0.030	-0.400	0.260
2020/01/31 13:35:26.5	1.310	0.010	-0.480	0.250
2020/01/31 13:35:26.6	1.310	0.060	-0.560	0.250
2020/01/31 13:35:26.7	1.310	0.110	-0.640	0.240
2020/01/31 13:35:26.8	1.320	0.150	-0.720	0.230
2020/01/31 13:35:26.9	1.330	0.200	-0.800	0.210
2020/01/31 13:35:27.0	1.340	0.240	-0.880	0.180
2020/01/31 13:35:27.1	1.360	0.280	-0.960	0.160
2020/01/31 13:35:27.2	1.380	0.320	-1.030	0.130
2020/01/31 13:35:27.3	1.400	0.350	-1.100	0.100
2020/01/31 13:35:27.4	1.430	0.380	-1.160	0.060
2020/01/31 13:35:27.5	1.450	0.410	-1.220	0.020
2020/01/31 13:35:27.6	1.490	0.440	-1.270	-0.030
2020/01/31 13:35:27.7	1.520	0.460	-1.310	-0.070
2020/01/31 13:35:27.8	1.550	0.480	-1.350	-0.110
2020/01/31 13:35:27.9	1.590	0.490	-1.380	-0.160
2020/01/31 13:35:28.0	1.620	0.500	-1.390	-0.200
2020/01/31 13:35:28.1	1.650	0.510	-1.400	-0.240
2020/01/31 13:35:28.2	1.680	0.510	-1.400	-0.280
2020/01/31 13:35:28.3	1.700	0.510	-1.380	-0.320
2020/01/31 13:35:28.4	1.730	0.500	-1.360	-0.360
2020/01/31 13:35:28.5	1.740	0.490	-1.320	-0.390
2020/01/31 13:35:28.6	1.770	0.470	-1.270	-0.410
2020/01/31 13:35:28.7	1.770	0.440	-1.210	-0.440
2020/01/31 13:35:28.8	1.780	0.420	-1.130	-0.460
2020/01/31 13:35:28.9	1.780	0.380	-1.050	-0.480
2020/01/31 13:35:29.0	1.780	0.350	-0.960	-0.500
2020/01/31 13:35:29.1	1.780	0.310	-0.860	-0.520
2020/01/31 13:35:29.2	1.770	0.270	-0.760	-0.540
2020/01/31 13:35:29.3	1.760	0.220	-0.650	-0.550
2020/01/31 13:35:29.4	1.750	0.170	-0.530	-0.560
2020/01/31 13:35:29.5	1.740	0.120	-0.410	-0.570
2020/01/31 13:35:29.6	1.730	0.070	-0.300	-0.590
2020/01/31 13:35:29.7	1.720	0.020	-0.180	-0.600
2020/01/31 13:35:29.8	1.710	-0.030	-0.060	-0.610
2020/01/31 13:35:29.9	1.700	-0.080	0.050	-0.630
2020/01/31 13:35:30.0	1.700	-0.130	0.160	-0.640
2020/01/31 13:35:30.1	1.690	-0.170	0.260	-0.660
2020/01/31 13:35:30.2	1.690	-0.220	0.350	-0.680
2020/01/31 13:35:30.3	1.690	-0.260	0.430	-0.690
2020/01/31 13:35:30.4	1.700	-0.290	0.500	-0.720
2020/01/31 13:35:30.5	1.710	-0.330	0.560	-0.740
2020/01/31 13:35:30.6	1.710	-0.350	0.610	-0.760
2020/01/31 13:35:30.7	1.720	-0.370	0.650	-0.780
2020/01/31 13:35:30.8	1.740	-0.390	0.680	-0.800
2020/01/31 13:35:30.9	1.750	-0.400	0.690	-0.830
2020/01/31 13:35:31.0	1.770	-0.410	0.700	-0.850
2020/01/31 13:35:31.1	1.790	-0.410	0.690	-0.870
2020/01/31 13:35:31.2	1.810	-0.400	0.680	-0.890
2020/01/31 13:35:31.3	1.830	-0.400	0.650	-0.910
2020/01/31 13:35:31.4	1.860	-0.380	0.620	-0.930
2020/01/31 13:35:31.5	1.880	-0.360	0.580	-0.940
2020/01/31 13:35:31.6	1.900	-0.340	0.540	-0.960
2020/01/31 13:35:31.7	1.920	-0.310	0.480	-0.970
2020/01/31 13:35:31.8	1.940	-0.280	0.430	-0.980
2020/01/31 13:35:31.9	1.960	-0.250	0.370	-0.990
2020/01/31 13:35:32.0	1.970	-0.220	0.320	-1.000
2020/01/31 13:35:32.1	1.990	-0.190	0.260	-1.000
2020/01/31 13:35:32.2	1.990	-0.150	0.200	-1.000
2020/01/31 13:35:32.3	2.000	-0.110	0.150	-0.990
2020/01/31 13:35:32.4	2.000	-0.080	0.100	-0.980
2020/01/31 13:35:32.5	2.000	-0.040	0.050	-0.970
2020/01/31 13:35:32.6	2.000	-0.010	0.010	-0.950
2020/01/31 13:35:32.7	1.990	0.020	-0.030	-0.920
2020/01/31 13:35:32.8	1.980	0.050	-0.060	-0.890
2020/01/31 13:35:32.9	1.960	0.080	-0.090	-0.860
2020/01/31 13:35:33.0	1.930	0.110	-0.100	-0.820
2020/01/31 13:35:33.1	1.900	0.130	-0.120	-0.780
2020/01/31 13:35:33.2	1.870	0.150	-0.120	-0.740
2020/01/31 13:35:33.3	1.830	0.160	-0.120	-0.690
2020/01/31 13:35:33.4	1.790	0.170	-0.110	-0.630
2020/01/31 13:35:33.5	1.740	0.180	-0.100	-0.580
2020/01/31 13:35:33.6	1.690	0.180	-0.090	-0.520
2020/01/31 13:35:33.7	1.640	0.180	-0.070	-0.460
2020/01/31 13:35:33.8	1.590	0.170	-0.040	-0.400
2020/01/31 13:35:33.9	1.530	0.160	-0.020	-0.340
2020/01/31 13:35:34.0	1.480	0.140	0.010	-0.290
2020/01/31 13:35:34.1	1.430	0.130	0.040	-0.230
2020/01/31 13:35:34.2	1.380	0.110	0.070	-0.170
2020/01/31 13:35:34.3	1.320	0.080	0.090	-0.120
2020/01/31 13:35:34.4	1.270	0.060	0.120	-0.070
2020/01/31 13:35:34.5	1.230	0.030	0.140	-0.020
2020/01/31 13:35:34.6	1.160	-0.000	0.160	0.030
2020/01/31 13:35:34.7	1.120	-0.030	0.170	0.070
2020/01/31 13:35:34.8	1.090	-0.060	0.180	0.100
2020/01/31 13:35:34.9	1.050	-0.090	0.180	0.130
2020/01/31 13:35:35.0	1.030	-0.120	0.180	0.150
2020/01/31 13:35:35.1	1.000	-0.150	0.170	0.170
2020/01/31 13:35:35.2	0.980	-0.180	0.150	0.170
2020/01/31 13:35:35.3	0.970	-0.200	0.130	0.180
2020/01/31 13:35:35.4	0.960	-0.230	0.100	0.170
2020/01/31 13:35:35.5	0.950	-0.250	0.070	0.160
2020/01/31 13:35:35.6	0.960	-0.270	0.030	0.140
2020/01/31 13:35:35.7	0.960	-0.280	-0.010	0.120
2020/01/31 13:35:35.8	0.970	-0.300	-0.060	0.090
2020/01/31 13:35:35.9	0.980	-0.310	-0.120	0.060
2020/01/31 13:35:36.0	0.990	-0.310	-0.180	0.020
2020/01/31 13:35:36.1	1.010	-0.320	-0.240	-0.030
2020/01/31 13:35:36.2	1.030	-0.320	-0.300	-0.080
2020/01/31 13:35:36.3	1.050	-0.320	-0.360	-0.130
2020/01/31 13:35:36.4	1.080	-0.310	-0.430	-0.180
2020/01/31 13:35:36.5	1.110	-0.300	-0.490	-0.240
2020/01/31 13:35:36.6	1.150	-0.290	-0.560	-0.290
2020/01/31 13:35:36.7	1.180	-0.280	-0.620	-0.350
2020/01/31 13:35:36.8	1.210	-0.260	-0.680	-0.400
2020/01/31 13:35:36.9	1.250	-0.240	-0.740	-0.460
2020/01/31 13:35:37.0	1.280	-0.220	-0.790	-0.500
2020/01/31 13:35:37.1	1.310	-0.200	-0.840	-0.550
2020/01/31 13:35:37.2	1.340	-0.170	-0.880	-0.590
2020/01/31 13:35:37.3	1.370	-0.140	-0.920	-0.630
2020/01/31 13:35:37.4	1.400	-0.110	-0.950	-0.660
2020/01/31 13:35:37.5	1.430	-0.080	-0.970	-0.690
2020/01/31 13:35:37.6	1.460	-0.050	-0.990	-0.710
2020/01/31 13:35:37.7	1.480	-0.020	-1.010	-0.720
2020/01/31 13:35:37.8	1.500	0.010	-1.010	-0.740
2020/01/31 13:35:37.9	1.520	0.040	-1.010	-0.740
2020/01/31 13:35:38.0	1.540	0.080	-1.010	-0.750
2020/01/31 13:35:38.1	1.560	0.110	-1.000	-0.740
2020/01/31 13:35:38.2	1.570	0.140	-0.980	-0.740
2020/01/31 13:35:38.3	1.590	0.180	-0.970	-0.730
2020/01/31 13:35:38.4	1.600	0.210	-0.940	-0.710
2020/01/31 13:35:38.5	1.610	0.240	-0.920	-0.700
2020/01/31 13:35:38.6	1.620	0.270	-0.890	-0.680
2020/01/31 13:35:38.7	1.630	0.300	-0.860	-0.660
2020/01/31 13:35:38.8	1.640	0.330	-0.830	-0.630
2020/01/31 13:35:38.9	1.640	0.360	-0.800	-0.600
2020/01/31 13:35:39.0	1.650	0.390	-0.760	-0.570
2020/01/31 13:35:39.1	1.650	0.420	-0.730	-0.540
2020/01/31 13:35:39.2	1.660	0.440	-0.700	-0.510
2020/01/31 13:35:39.3	1.660	0.460	-0.670	-0.470
2020/01/31 13:35:39.4	1.670	0.490	-0.640	-0.440
2020/01/31 13:35:39.5	1.670	0.510	-0.610	-0.400
2020/01/31 13:35:39.6	1.680	0.530	-0.580	-0.360
2020/01/31 13:35:39.7	1.680	0.540	-0.560	-0.320
2020/01/31 13:35:39.8	1.690	0.560	-0.540	-0.290
2020/01/31 13:35:39.9	1.690	0.570	-0.510	-0.250
2020/01/31 13:35:40.0	1.700	0.580	-0.490	-0.220
2020/01/31 13:35:40.1	1.710	0.590	-0.470	-0.190
2020/01/31 13:35:40.2	1.710	0.590	-0.460	-0.160
2020/01/31 13:35:40.3	1.720	0.600	-0.440	-0.130
2020/01/31 13:35:40.4	1.730	0.600	-0.430	-0.100
2020/01/31 13:35:40.5	1.740	0.590	-0.420	-0.080
2020/01/31 13:35:40.6	1.740	0.590	-0.400	-0.060
2020/01/31 13:35:40.7	1.750	0.580	-0.390	-0.040
2020/01/31 13:35:40.8	1.760	0.570	-0.380	-0.020
2020/01/31 13:35:40.9	1.770	0.560	-0.370	-0.010
2020/01/31 13:35:41.0	1.780	0.540	-0.360	0.010
2020/01/31 13:35:41.1	1.790	0.520	-0.350	0.020
2020/01/31 13:35:41.2	1.810	0.500	-0.330	0.020
2020/01/31 13:35:41.3	1.820	0.470	-0.320	0.030
2020/01/31 13:35:41.4	1.830	0.440	-0.310	0.030
2020/01/31 13:35:41.5	1.850	0.410	-0.290	0.030
2020/01/31 13:35:41.6	1.850	0.380	-0.280	0.020
2020/01/31 13:35:41.7	1.870	0.350	-0.260	0.020
2020/01/31 13:35:41.8	1.890	0.310	-0.240	0.010
2020/01/31 13:35:41.9	1.900	0.270	-0.220	-0.010
2020/01/31 13:35:42.0	1.920	0.230	-0.200	-0.030
2020/01/31 13:35:42.1	1.940	0.190	-0.170	-0.050
2020/01/31 13:35:42.2	1.960	0.140	-0.150	-0.070
2020/01/31 13:35:42.3	1.990	0.100	-0.120	-0.090
2020/01/31 13:35:42.4	2.010	0.060	-0.090	-0.120
2020/01/31 13:35:42.5	2.030	0.010	-0.060	-0.150
2020/01/31 13:35:42.6	2.060	-0.030	-0.030	-0.190
2020/01/31 13:35:42.7	2.080	-0.080	-0.000	-0.220
2020/01/31 13:35:42.8	2.100	-0.120	0.030	-0.250
2020/01/31 13:35:42.9	2.130	-0.170	0.060	-0.290
2020/01/31 13:35:43.0	2.150	-0.210	0.100	-0.320
2020/01/31 13:35:43.1	2.170	-0.250	0.140	-0.360
2020/01/31 13:35:43.2	2.200	-0.290	0.170	-0.390
2020/01/31 13:35:43.3	2.220	-0.320	0.210	-0.420
2020/01/31 13:35:43.4	2.230	-0.360	0.240	-0.450
2020/01/31 13:35:43.5	2.250	-0.390	0.280	-0.470
2020/01/31 13:35:43.6	2.280	-0.420	0.320	-0.500
2020/01/31 13:35:43.7	2.290	-0.450	0.350	-0.520
2020/01/31 13:35:43.8	2.300	-0.480	0.390	-0.540
2020/01/31 13:35:43.9	2.300	-0.500	0.420	-0.550
2020/01/31 13:35:44.0	2.310	-0.520	0.450	-0.570
2020/01/31 13:35:44.1	2.310	-0.540	0.480	-0.580
2020/01/31 13:35:44.2	2.300	-0.560	0.510	-0.590
2020/01/31 13:35:44.3	2.300	-0.570	0.530	-0.590
2020/01/31 13:35:44.4	2.290	-0.590	0.550	-0.600
2020/01/31 13:35:44.5	2.280	-0.590	0.570	-0.600
2020/01/31 13:35:44.6	2.260	-0.600	0.590	-0.590
2020/01/31 13:35:44.7	2.240	-0.600	0.600	-0.590
2020/01/31 13:35:44.8	2.220	-0.610	0.600	-0.580
2020/01/31 13:35:44.9	2.210	-0.600	0.600	-0.580
2020/01/31 13:35:45.0	2.190	-0.600	0.600	-0.570
2020/01/31 13:35:45.1	2.170	-0.590	0.590	-0.560
2020/01/31 13:35:45.2	2.140	-0.590	0.570	-0.550
2020/01/31 13:35:45.3	2.120	-0.580	0.550	-0.530
2020/01/31 13:35:45.4	2.100	-0.560	0.530	-0.520
2020/01/31 13:35:45.5	2.070	-0.550	0.500	-0.500
2020/01/31 13:35:45.6	2.060	-0.530	0.470	-0.490
2020/01/31 13:35:45.7	2.030	-0.510	0.440	-0.470
2020/01/31 13:35:45.8	2.010	-0.490	0.400	-0.450
2020/01/31 13:35:45.9	1.990	-0.470	0.360	-0.430
2020/01/31 13:35:46.0	1.960	-0.440	0.310	-0.410
2020/01/31 13:35:46.1	1.940	-0.420	0.270	-0.390
2020/01/31 13:35:46.2	1.910	-0.390	0.220	-0.370
2020/01/31 13:35:46.3	1.890	-0.360	0.170	-0.340
2020/01/31 13:35:46.4	1.860	-0.340	0.120	-0.310
2020/01/31 13:35:46.5	1.840	-0.310	0.080	-0.290
2020/01/31 13:35:46.6	1.820	-0.280	0.030	-0.260
2020/01/31 13:35:46.7	1.790	-0.250	-0.010	-0.230
2020/01/31 13:35:46.8	1.770	-0.220	-0.060	-0.200
2020/01/31 13:35:46.9	1.740	-0.190	-0.100	-0.170
2020/01/31 13:35:47.0	1.710	-0.160	-0.140	-0.140
2020/01/31 13:35:47.1	1.690	-0.130	-0.180	-0.110
2020/01/31 13:35:47.2	1.660	-0.100	-0.210	-0.080
2020/01/31 13:35:47.3	1.630	-0.070	-0.240	-0.060
2020/01/31 13:35:47.4	1.610	-0.040	-0.270	-0.030
2020/01/31 13:35:47.5	1.580	-0.010	-0.300	0.000
2020/01/31 13:35:47.6	1.550	0.020	-0.330	0.030
2020/01/31 13:35:47.7	1.530	0.050	-0.350	0.060
2020/01/31 13:35:47.8	1.510	0.070	-0.370	0.080
2020/01/31 13:35:47.9	1.490	0.100	-0.390	0.110
2020/01/31 13:35:48.0	1.480	0.130	-0.410	0.130
2020/01/31 13:35:48.1	1.460	0.160	-0.420	0.150
2020/01/31 13:35:48.2	1.450	0.180	-0.440	0.180
2020/01/31 13:35:48.3	1.440	0.210	-0.450	0.190
2020/01/31 13:35:48.4	1.440	0.230	-0.470	0.210
2020/01/31 13:35:48.5	1.440	0.260	-0.490	0.220
2020/01/31 13:35:48.6	1.430	0.280	-0.500	0.230
2020/01/31 13:35:48.7	1.430	0.310	-0.520	0.240
2020/01/31 13:35:48.8	1.440	0.330	-0.540	0.250
2020/01/31 13:35:48.9	1.450	0.360	-0.560	0.250
2020/01/31 13:35:49.0	1.470	0.380	-0.580	0.250
2020/01/31 13:35:49.1	1.490	0.400	-0.610	0.240
2020/01/31 13:35:49.2	1.510	0.420	-0.630	0.230
2020/01/31 13:35:49.3	1.540	0.440	-0.650	0.220
2020/01/31 13:35:49.4	1.560	0.460	-0.680	0.210
2020/01/31 13:35:49.5	1.590	0.470	-0.710	0.190
2020/01/31 13:35:49.6	1.620	0.490	-0.740	0.170
2020/01/31 13:35:49.7	1.660	0.500	-0.770	0.140
2020/01/31 13:35:49.8	1.690	0.510	-0.800	0.120
2020/01/31 13:35:49.9	1.730	0.520	-0.820	0.090
2020/01/31 13:35:50.0	1.770	0.530	-0.850	0.060
2020/01/31 13:35:50.1	1.810	0.540	-0.880	0.020
2020/01/31 13:35:50.2	1.860	0.540	-0.910	-0.010
2020/01/31 13:35:50.3	1.900	0.540	-0.940	-0.050
2020/01/31 13:35:50.4	1.940	0.540	-0.960	-0.080
2020/01/31 13:35:50.5	1.990	0.540	-0.990	-0.120
2020/01/31 13:35:50.6	2.030	0.540	-1.010	-0.160
2020/01/31 13:35:50.7	2.070	0.530	-1.030	-0.200
2020/01/31 13:35:50.8	2.110	0.530	-1.050	-0.230
2020/01/31 13:35:50.9	2.150	0.520	-1.070	-0.270
2020/01/31 13:35:51.0	2.190	0.500	-1.080	-0.300
2020/01/31 13:35:51.1	2.230	0.490	-1.090	-0.340
2020/01/31 13:35:51.2	2.270	0.480	-1.100	-0.370
2020/01/31 13:35:51.3	2.300	0.460	-1.100	-0.400
2020/01/31 13:35:51.4	2.340	0.440	-1.100	-0.430
2020/01/31 13:35:51.5	2.380	0.430	-1.100	-0.470
2020/01/31 13:35:51.6	2.420	0.410	-1.100	-0.500
2020/01/31 13:35:51.7	2.450	0.380	-1.090	-0.530
2020/01/31 13:35:51.8	2.490	0.360	-1.080	-0.560
2020/01/31 13:35:51.9	2.530	0.340	-1.070	-0.580
2020/01/31 13:35:52.0	2.560	0.320	-1.050	-0.610
2020/01/31 13:35:52.1	2.600	0.290	-1.030	-0.640
2020/01/31 13:35:52.2	2.630	0.270	-1.010	-0.670
2020/01/31 13:35:52.3	2.670	0.240	-0.980	-0.690
2020/01/31 13:35:52.4	2.700	0.210	-0.950	-0.720
2020/01/31 13:35:52.5	2.730	0.190	-0.920	-0.740
2020/01/31 13:35:52.6	2.770	0.160	-0.880	-0.770
2020/01/31 13:35:52.7	2.800	0.130	-0.840	-0.790
2020/01/31 13:35:52.8	2.830	0.110	-0.800	-0.810
2020/01/31 13:35:52.9	2.860	0.080	-0.750	-0.820
2020/01/31 13:35:53.0	2.880	0.050	-0.700	-0.840
2020/01/31 13:35:53.1	2.910	0.020	-0.640	-0.850
2020/01/31 13:35:53.2	2.930	-0.000	-0.580	-0.870
2020/01/31 13:35:53.3	2.950	-0.030	-0.520	-0.880
2020/01/31 13:35:53.4	2.970	-0.060	-0.450	-0.890
2020/01/31 13:35:53.5	2.990	-0.090	-0.380	-0.890
2020/01/31 13:35:53.6	3.010	-0.120	-0.310	-0.900
2020/01/31 13:35:53.7	3.010	-0.150	-0.240	-0.900
2020/01/31 13:35:53.8	3.020	-0.180	-0.160	-0.900
2020/01/31 13:35:53.9	3.030	-0.210	-0.080	-0.900
2020/01/31 13:35:54.0	3.020	-0.240	-0.000	-0.900
2020/01/31 13:35:54.1	3.020	-0.270	0.080	-0.900
2020/01/31 13:35:54.2	3.010	-0.290	0.160	-0.890
2020/01/31 13:35:54.3	3.000	-0.320	0.240	-0.880
2020/01/31 13:35:54.4	2.990	-0.350	0.320	-0.870
2020/01/31 13:35:54.5	2.970	-0.380	0.400	-0.860
2020/01/31 13:35:54.6	2.960	-0.410	0.480	-0.840
2020/01/31 13:35:54.7	2.940	-0.430	0.560	-0.830
2020/01/31 13:35:54.8	2.910	-0.460	0.640	-0.810
2020/01/31 13:35:54.9	2.880	-0.480	0.710	-0.790
2020/01/31 13:35:55.0	2.850	-0.510	0.780	-0.760
2020/01/31 13:35:55.1	2.820	-0.530	0.840	-0.740
2020/01/31 13:35:55.2	2.780	-0.550	0.900	-0.720
2020/01/31 13:35:55.3	2.750	-0.570	0.960	-0.690
2020/01/31 13:35:55.4	2.710	-0.580	1.010	-0.670
2020/01/31 13:35:55.5	2.680	-0.600	1.050	-0.640
2020/01/31 13:35:55.6	2.630	-0.610	1.090	-0.620
2020/01/31 13:35:55.7	2.590	-0.620	1.120	-0.600
2020/01/31 13:35:55.8	2.550	-0.620	1.150	-0.570
2020/01/31 13:35:55.9	2.520	-0.630	1.160	-0.550
2020/01/31 13:35:56.0	2.480	-0.630	1.170	-0.530
2020/01/31 13:35:56.1	2.450	-0.620	1.170	-0.510
2020/01/31 13:35:56.2	2.420	-0.620	1.170	-0.490
2020/01/31 13:35:56.3	2.380	-0.610	1.150	-0.480
2020/01/31 13:35:56.4	2.350	-0.590	1.130	-0.460
2020/01/31 13:35:56.5	2.330	-0.580	1.100	-0.450
2020/01/31 13:35:56.6	2.300	-0.560	1.070	-0.430
2020/01/31 13:35:56.7	2.270	-0.530	1.020	-0.420
2020/01/31 13:35:56.8	2.240	-0.510	0.970	-0.400
2020/01/31 13:35:56.9	2.210	-0.480	0.920	-0.380
2020/01/31 13:35:57.0	2.180	-0.440	0.860	-0.370
2020/01/31 13:35:57.1	2.150	-0.410	0.790	-0.350
2020/01/31 13:35:57.2	2.120	-0.370	0.730	-0.330
2020/01/31 13:35:57.3	2.090	-0.330	0.660	-0.300
2020/01/31 13:35:57.4	2.050	-0.290	0.580	-0.280
2020/01/31 13:35:57.5	2.010	-0.250	0.510	-0.250
2020/01/31 13:35:57.6	1.970	-0.200	0.430	-0.220
2020/01/31 13:35:57.7	1.930	-0.160	0.350	-0.190
2020/01/31 13:35:57.8	1.890	-0.120	0.270	-0.160
2020/01/31 13:35:57.9	1.850	-0.070	0.200	-0.130
2020/01/31 13:35:58.0	1.800	-0.030	0.120	-0.100
2020/01/31 13:35:58.1	1.760	0.010	0.040	-0.070
2020/01/31 13:35:58.2	1.720	0.050	-0.040	-0.040
2020/01/31 13:35:58.3	1.680	0.090	-0.120	-0.010
2020/01/31 13:35:58.4	1.630	0.130	-0.190	0.030
2020/01/31 13:35:58.5	1.590	0.170	-0.270	0.060
2020/01/31 13:35:58.6	1.560	0.200	-0.340	0.090
2020/01/31 13:35:58.7	1.530	0.240	-0.410	0.120
2020/01/31 13:35:58.8	1.490	0.270	-0.480	0.150
2020/01/31 13:35:58.9	1.460	0.300	-0.550	0.180
2020/01/31 13:35:59.0	1.430	0.330	-0.610	0.220
2020/01/31 13:35:59.1	1.410	0.360	-0.680	0.240
2020/01/31 13:35:59.2	1.390	0.390	-0.740	0.270
2020/01/31 13:35:59.3	1.370	0.410	-0.800	0.300
2020/01/31 13:35:59.4	1.360	0.440	-0.860	0.320
2020/01/31 13:35:59.5	1.350	0.460	-0.920	0.350
2020/01/31 13:35:59.6	1.360	0.480	-0.970	0.370
2020/01/31 13:35:59.7	1.350	0.500	-1.020	0.390
2020/01/31 13:35:59.8	1.360	0.520	-1.070	0.400
2020/01/31 13:35:59.9	1.370	0.540	-1.120	0.410
2020/01/31 13:36:00.0	1.380	0.560	-1.160	0.430
2020/01/31 13:36:00.1	1.390	0.570	-1.200	0.430
2020/01/31 13:36:00.2	1.410	0.580	-1.230	0.440
2020/01/31 13:36:00.3	1.440	0.590	-1.260	0.440
2020/01/31 13:36:00.4	1.460	0.600	-1.290	0.440
2020/01/31 13:36:00.5	1.490	0.610	-1.310	0.440
2020/01/31 13:36:00.6	1.540	0.620	-1.330	0.440
2020/01/31 13:36:00.7	1.570	0.620	-1.340	0.430
2020/01/31 13:36:00.8	1.600	0.620	-1.340	0.420
2020/01/31 13:36:00.9	1.640	0.620	-1.340	0.410
2020/01/31 13:36:01.0	1.670	0.610	-1.340	0.400
2020/01/31 13:36:01.1	1.700	0.600	-1.330	0.390
2020/01/31 13:36:01.2	1.740	0.590	-1.310	0.370
2020/01/31 13:36:01.3	1.770	0.580	-1.290	0.360
2020/01/31 13:36:01.4	1.810	0.560	-1.260	0.340
2020/01/31 13:36:01.5	1.840	0.540	-1.230	0.320
2020/01/31 13:36:01.6	1.880	0.520	-1.200	0.310
2020/01/31 13:36:01.7	1.920	0.490	-1.150	0.290
2020/01/31 13:36:01.8	1.950	0.460	-1.110	0.270
2020/01/31 13:36:01.9	1.980	0.430	-1.060	0.250
2020/01/31 13:36:02.0	2.010	0.390	-1.010	0.230
2020/01/31 13:36:02.1	2.040	0.350	-0.950	0.210
2020/01/31 13:36:02.2	2.070	0.310	-0.900	0.180
2020/01/31 13:36:02.3	2.100	0.260	-0.840	0.160
2020/01/31 13:36:02.4	2.130	0.220	-0.780	0.140
2020/01/31 13:36:02.5	2.150	0.170	-0.730	0.110
2020/01/31 13:36:02.6	2.170	0.120	-0.670	0.080
2020/01/31 13:36:02.7	2.200	0.070	-0.610	0.050
2020/01/31 13:36:02.8	2.220	0.020	-0.560	0.020
2020/01/31 13:36:02.9	2.250	-0.040	-0.500	-0.010
2020/01/31 13:36:03.0	2.270	-0.090	-0.450	-0.040
2020/01/31 13:36:03.1	2.300	-0.140	-0.400	-0.070
2020/01/31 13:36:03.2	2.320	-0.200	-0.350	-0.110
2020/01/31 13:36:03.3	2.340	-0.250	-0.300	-0.150
2020/01/31 13:36:03.4	2.360	-0.300	-0.260	-0.180
2020/01/31 13:36:03.5	2.370	-0.350	-0.210	-0.220
2020/01/31 13:36:03.6	2.390	-0.400	-0.180	-0.260
2020/01/31 13:36:03.7	2.400	-0.450	-0.140	-0.310
2020/01/31 13:36:03.8	2.410	-0.500	-0.110	-0.350
2020/01/31 13:36:03.9	2.420	-0.540	-0.080	-0.390
2020/01/31 13:36:04.0	2.430	-0.580	-0.050	-0.440
2020/01/31 13:36:04.1	2.440	-0.620	-0.030	-0.490
2020/01/31 13:36:04.2	2.450	-0.650	-0.000	-0.530
2020/01/31 13:36:04.3	2.460	-0.680	0.020	-0.580
2020/01/31 13:36:04.4	2.460	-0.710	0.040	-0.640
2020/01/31 13:36:04.5	2.470	-0.730	0.060	-0.690
2020/01/31 13:36:04.6	2.480	-0.740	0.080	-0.750
2020/01/31 13:36:04.7	2.480	-0.760	0.100	-0.800
2020/01/31 13:36:04.8	2.480	-0.770	0.110	-0.850
2020/01/31 13:36:04.9	2.480	-0.770	0.120	-0.910
2020/01/31 13:36:05.0	2.480	-0.770	0.140	-0.960
2020/01/31 13:36:05.1	2.480	-0.760	0.150	-1.010
2020/01/31 13:36:05.2	2.470	-0.750	0.160	-1.050
2020/01/31 13:36:05.3	2.470	-0.740	0.170	-1.100
2020/01/31 13:36:05.4	2.460	-0.720	0.180	-1.140
2020/01/31 13:36:05.5	2.450	-0.700	0.200	-1.180
2020/01/31 13:36:05.6	2.450	-0.680	0.210	-1.210
2020/01/31 13:36:05.7	2.440	-0.650	0.220	-1.230
2020/01/31 13:36:05.8	2.430	-0.620	0.230	-1.260
2020/01/31 13:36:05.9	2.410	-0.580	0.250	-1.270
2020/01/31 13:36:06.0	2.390	-0.550	0.270	-1.280
2020/01/31 13:36:06.1	2.370	-0.510	0.280	-1.290
2020/01/31 13:36:06.2	2.350	-0.470	0.300	-1.280
2020/01/31 13:36:06.3	2.330	-0.420	0.320	-1.270
2020/01/31 13:36:06.4	2.310	-0.380	0.330	-1.250
2020/01/31 13:36:06.5	2.280	-0.330	0.350	-1.230
2020/01/31 13:36:06.6	2.250	-0.280	0.370	-1.200
2020/01/31 13:36:06.7	2.220	-0.230	0.380	-1.160
2020/01/31 13:36:06.8	2.190	-0.180	0.400	-1.110
2020/01/31 13:36:06.9	2.160	-0.130	0.410	-1.060
2020/01/31 13:36:07.0	2.120	-0.080	0.420	-1.010
2020/01/31 13:36:07.1	2.090	-0.030	0.430	-0.950
2020/01/31 13:36:07.2	2.050	0.020	0.440	-0.890
2020/01/31 13:36:07.3	2.020	0.070	0.440	-0.820
2020/01/31 13:36:07.4	1.980	0.120	0.450	-0.750
2020/01/31 13:36:07.5	1.950	0.170	0.450	-0.680
2020/01/31 13:36:07.6	1.900	0.210	0.440	-0.600
2020/01/31 13:36:07.7	1.860	0.260	0.440	-0.520
2020/01/31 13:36:07.8	1.830	0.310	0.430	-0.440
2020/01/31 13:36:07.9	1.790	0.350	0.420	-0.360
2020/01/31 13:36:08.0	1.760	0.400	0.410	-0.280
2020/01/31 13:36:08.1	1.720	0.440	0.390	-0.200
2020/01/31 13:36:08.2	1.690	0.480	0.370	-0.120
2020/01/31 13:36:08.3	1.660	0.530	0.350	-0.030
2020/01/31 13:36:08.4	1.630	0.560	0.330	0.050
2020/01/31 13:36:08.5	1.600	0.600	0.300	0.130
2020/01/31 13:36:08.6	1.560	0.640	0.270	0.220
2020/01/31 13:36:08.7	1.530	0.670	0.240	0.300
2020/01/31 13:36:08.8	1.500	0.700	0.210	0.380
2020/01/31 13:36:08.9	1.480	0.720	0.170	0.450
2020/01/31 13:36:09.0	1.450	0.750	0.140	0.530
2020/01/31 13:36:09.1	1.430	0.760	0.100	0.600
2020/01/31 13:36:09.2	1.410	0.780	0.060	0.660
2020/01/31 13:36:09.3	1.390	0.790	0.020	0.730
2020/01/31 13:36:09.4	1.370	0.800	-0.030	0.790
2020/01/31 13:36:09.5	1.350	0.800	-0.070	0.840
2020/01/31 13:36:09.6	1.330	0.800	-0.110	0.900
2020/01/31 13:36:09.7	1.320	0.790	-0.160	0.940
2020/01/31 13:36:09.8	1.310	0.770	-0.210	0.980
2020/01/31 13:36:09.9	1.300	0.760	-0.260	1.010
2020/01/31 13:36:10.0	1.290	0.730	-0.310	1.030
2020/01/31 13:36:10.1	1.280	0.710	-0.350	1.050
2020/01/31 13:36:10.2	1.280	0.680	-0.400	1.060
2020/01/31 13:36:10.3	1.280	0.640	-0.450	1.060
2020/01/31 13:36:10.4	1.280	0.600	-0.500	1.050
2020/01/31 13:36:10.5	1.290	0.560	-0.550	1.040
2020/01/31 13:36:10.6	1.300	0.510	-0.600	1.010
2020/01/31 13:36:10.7	1.310	0.460	-0.650	0.990
2020/01/31 13:36:10.8	1.320	0.410	-0.690	0.950
2020/01/31 13:36:10.9	1.340	0.350	-0.740	0.910
2020/01/31 13:36:11.0	1.360	0.290	-0.780	0.860
2020/01/31 13:36:11.1	1.380	0.230	-0.830	0.810
2020/01/31 13:36:11.2	1.400	0.170	-0.870	0.750
2020/01/31 13:36:11.3	1.430	0.110	-0.900	0.690
2020/01/31 13:36:11.4	1.460	0.050	-0.940	0.620
2020/01/31 13:36:11.5	1.490	-0.000	-0.970	0.550
2020/01/31 13:36:11.6	1.540	-0.060	-1.000	0.480
2020/01/31 13:36:11.7	1.580	-0.120	-1.030	0.400
2020/01/31 13:36:11.8	1.620	-0.180	-1.050	0.320
2020/01/31 13:36:11.9	1.660	-0.230	-1.070	0.240
2020/01/31 13:36:12.0	1.700	-0.280	-1.090	0.150
2020/01/31 13:36:12.1	1.740	-0.330	-1.100	0.070
2020/01/31 13:36:12.2	1.780	-0.370	-1.110	-0.020
2020/01/31 13:36:12.3	1.830	-0.410	-1.120	-0.110
2020/01/31 13:36:12.4	1.870	-0.450	-1.120	-0.190
2020/01/31 13:36:12.5	1.910	-0.480	-1.120	-0.280
2020/01/31 13:36:12.6	1.950	-0.510	-1.110	-0.370
2020/01/31 13:36:12.7	1.990	-0.540	-1.100	-0.450
2020/01/31 13:36:12.8	2.030	-0.560	-1.080	-0.540
2020/01/31 13:36:12.9	2.060	-0.580	-1.070	-0.620
2020/01/31 13:36:13.0	2.100	-0.590	-1.040	-0.700
2020/01/31 13:36:13.1	2.130	-0.600	-1.020	-0.770
2020/01/31 13:36:13.2	2.160	-0.600	-0.990	-0.850
2020/01/31 13:36:13.3	2.190	-0.600	-0.960	-0.920
2020/01/31 13:36:13.4	2.220	-0.590	-0.930	-0.990
2020/01/31 13:36:13.5	2.240	-0.580	-0.900	-1.050
2020/01/31 13:36:13.6	2.260	-0.560	-0.870	-1.110
2020/01/31 13:36:13.7	2.280	-0.540	-0.830	-1.170
2020/01/31 13:36:13.8	2.310	-0.520	-0.790	-1.220
2020/01/31 13:36:13.9	2.330	-0.490	-0.760	-1.270
2020/01/31 13:36:14.0	2.340	-0.460	-0.720	-1.320
2020/01/31 13:36:14.1	2.360	-0.420	-0.680	-1.360
2020/01/31 13:36:14.2	2.380	-0.380	-0.640	-1.400
2020/01/31 13:36:14.3	2.400	-0.340	-0.600	-1.430
2020/01/31 13:36:14.4	2.410	-0.300	-0.560	-1.460
2020/01/31 13:36:14.5	2.430	-0.250	-0.520	-1.490
2020/01/31 13:36:14.6	2.430	-0.200	-0.480	-1.510
2020/01/31 13:36:14.7	2.440	-0.150	-0.440	-1.520
2020/01/31 13:36:14.8	2.460	-0.110	-0.400	-1.530
2020/01/31 13:36:14.9	2.470	-0.060	-0.360	-1.540
2020/01/31 13:36:15.0	2.480	-0.010	-0.320	-1.530
2020/01/31 13:36:15.1	2.490	0.040	-0.280	-1.530
2020/01/31 13:36:15.2	2.490	0.080	-0.240	-1.520
2020/01/31 13:36:15.3	2.500	0.130	-0.200	-1.500
2020/01/31 13:36:15.4	2.500	0.170	-0.160	-1.480
2020/01/31 13:36:15.5	2.500	0.210	-0.110	-1.460
2020/01/31 13:36:15.6	2.520	0.240	-0.070	-1.420
2020/01/31 13:36:15.7	2.520	0.280	-0.030	-1.390
2020/01/31 13:36:15.8	2.520	0.300	0.020	-1.350
2020/01/31 13:36:15.9	2.520	0.330	0.060	-1.310
2020/01/31 13:36:16.0	2.520	0.350	0.110	-1.270
2020/01/31 13:36:16.1	2.520	0.360	0.150	-1.230
2020/01/31 13:36:16.2	2.510	0.370	0.200	-1.180
2020/01/31 13:36:16.3	2.510	0.380	0.250	-1.130
2020/01/31 13:36:16.4	2.510	0.380	0.290	-1.080
2020/01/31 13:36:16.5	2.500	0.370	0.340	-1.030
2020/01/31 13:36:16.6	2.500	0.360	0.380	-0.970
2020/01/31 13:36:16.7	2.500	0.350	0.420	-0.910
2020/01/31 13:36:16.8	2.490	0.330	0.470	-0.850
2020/01/31 13:36:16.9	2.480	0.310	0.510	-0.790
2020/01/31 13:36:17.0	2.470	0.290	0.550	-0.730
2020/01/31 13:36:17.1	2.460	0.260	0.580	-0.670
2020/01/31 13:36:17.2	2.450	0.230	0.620	-0.610
2020/01/31 13:36:17.3	2.440	0.190	0.650	-0.540
2020/01/31 13:36:17.4	2.420	0.150	0.680	-0.480
2020/01/31 13:36:17.5	2.400	0.110	0.710	-0.410
2020/01/31 13:36:17.6	2.380	0.070	0.740	-0.330
2020/01/31 13:36:17.7	2.350	0.030	0.760	-0.260
2020/01/31 13:36:17.8	2.330	-0.020	0.780	-0.190
2020/01/31 13:36:17.9	2.290	-0.070	0.790	-0.120
2020/01/31 13:36:18.0	2.260	-0.110	0.800	-0.050
2020/01/31 13:36:18.1	2.220	-0.160	0.810	0.020
2020/01/31 13:36:18.2	2.180	-0.210	0.810	0.090
2020/01/31 13:36:18.3	2.130	-0.260	0.810	0.160
2020/01/31 13:36:18.4	2.090	-0.310	0.810	0.230
2020/01/31 13:36:18.5	2.040	-0.350	0.790	0.290
2020/01/31 13:36:18.6	1.980	-0.400	0.770	0.350
2020/01/31 13:36:18.7	1.930	-0.440	0.750	0.400
2020/01/31 13:36:18.8	1.880	-0.480	0.720	0.450
2020/01/31 13:36:18.9	1.840	-0.510	0.680	0.490
2020/01/31 13:36:19.0	1.790	-0.550	0.640	0.520
2020/01/31 13:36:19.1	1.740	-0.580	0.590	0.540
2020/01/31 13:36:19.2	1.700	-0.610	0.530	0.560
2020/01/31 13:36:19.3	1.660	-0.630	0.460	0.570
2020/01/31 13:36:19.4	1.620	-0.640	0.390	0.580
2020/01/31 13:36:19.5	1.590	-0.660	0.310	0.570
2020/01/31 13:36:19.6	1.550	-0.660	0.230	0.550
2020/01/31 13:36:19.7	1.530	-0.670	0.150	0.530
2020/01/31 13:36:19.8	1.510	-0.660	0.050	0.510
2020/01/31 13:36:19.9	1.500	-0.650	-0.050	0.470
2020/01/31 13:36:20.0	1.490	-0.640	-0.150	0.430
2020/01/31 13:36:20.1	1.490	-0.620	-0.260	0.380
2020/01/31 13:36:20.2	1.500	-0.590	-0.370	0.330
2020/01/31 13:36:20.3	1.510	-0.550	-0.480	0.280
2020/01/31 13:36:20.4	1.520	-0.520	-0.590	0.220
2020/01/31 13:36:20.5	1.540	-0.470	-0.700	0.160
2020/01/31 13:36:20.6	1.560	-0.420	-0.810	0.100
2020/01/31 13:36:20.7	1.580	-0.370	-0.920	0.040
2020/01/31 13:36:20.8	1.600	-0.310	-1.020	-0.020
2020/01/31 13:36:20.9	1.620	-0.250	-1.110	-0.070
2020/01/31 13:36:21.0	1.650	-0.190	-1.200	-0.120
2020/01/31 13:36:21.1	1.670	-0.120	-1.280	-0.170
2020/01/31 13:36:21.2	1.700	-0.050	-1.350	-0.220
2020/01/31 13:36:21.3	1.720	0.010	-1.420	-0.260
2020/01/31 13:36:21.4	1.750	0.080	-1.470	-0.290
2020/01/31 13:36:21.5	1.770	0.150	-1.520	-0.320
2020/01/31 13:36:21.6	1.800	0.220	-1.550	-0.350
2020/01/31 13:36:21.7	1.820	0.280	-1.570	-0.370
2020/01/31 13:36:21.8	1.830	0.340	-1.580	-0.380
2020/01/31 13:36:21.9	1.850	0.400	-1.570	-0.390
2020/01/31 13:36:22.0	1.860	0.460	-1.560	-0.390
2020/01/31 13:36:22.1	1.870	0.510	-1.530	-0.380
2020/01/31 13:36:22.2	1.880	0.560	-1.500	-0.370
2020/01/31 13:36:22.3	1.890	0.610	-1.450	-0.360
2020/01/31 13:36:22.4	1.900	0.650	-1.400	-0.340
2020/01/31 13:36:22.5	1.900	0.690	-1.330	-0.310
2020/01/31 13:36:22.6	1.930	0.720	-1.260	-0.280
2020/01/31 13:36:22.7	1.930	0.740	-1.190	-0.240
2020/01/31 13:36:22.8	1.940	0.770	-1.100	-0.200
2020/01/31 13:36:22.9	1.940	0.780	-1.020	-0.160
2020/01/31 13:36:23.0	1.940	0.800	-0.920	-0.120
2020/01/31 13:36:23.1	1.940	0.810	-0.830	-0.070
2020/01/31 13:36:23.2	1.940	0.810	-0.740	-0.020
2020/01/31 13:36:23.3	1.940	0.810	-0.650	0.020
2020/01/31 13:36:23.4	1.950	0.810	-0.560	0.070
2020/01/31 13:36:23.5	1.950	0.800	-0.470	0.120
2020/01/31 13:36:23.6	1.960	0.790	-0.380	0.160
2020/01/31 13:36:23.7	1.970	0.770	-0.300	0.210
2020/01/31 13:36:23.8	1.970	0.760	-0.230	0.250
2020/01/31 13:36:23.9	1.990	0.740	-0.160	0.290
2020/01/31 13:36:24.0	2.000	0.720	-0.090	0.320
2020/01/31 13:36:24.1	2.010	0.690	-0.040	0.350
2020/01/31 13:36:24.2	2.030	0.670	0.010	0.380
2020/01/31 13:36:24.3	2.040	0.650	0.060	0.400
2020/01/31 13:36:24.4	2.060	0.620	0.100	0.430
2020/01/31 13:36:24.5	2.080	0.590	0.130	0.440
2020/01/31 13:36:24.6	2.080	0.560	0.150	0.450
2020/01/31 13:36:24.7	2.100	0.540	0.170	0.460
2020/01/31 13:36:24.8	2.130	0.510	0.180	0.470
2020/01/31 13:36:24.9	2.150	0.480	0.190	0.480
2020/01/31 13:36:25.0	2.170	0.450	0.190	0.480
2020/01/31 13:36:25.1	2.190	0.420	0.190	0.480
2020/01/31 13:36:25.2	2.210	0.380	0.190	0.480
2020/01/31 13:36:25.3	2.230	0.350	0.190	0.480
2020/01/31 13:36:25.4	2.250	0.320	0.180	0.480
2020/01/31 13:36:25.5	2.260	0.280	0.170	0.470
2020/01/31 13:36:25.6	2.260	0.250	0.160	0.460
2020/01/31 13:36:25.7	2.280	0.210	0.150	0.450
2020/01/31 13:36:25.8	2.290	0.170	0.140	0.440
2020/01/31 13:36:25.9	2.300	0.140	0.130	0.420
2020/01/31 13:36:26.0	2.300	0.100	0.120	0.400
2020/01/31 13:36:26.1	2.310	0.060	0.110	0.380
2020/01/31 13:36:26.2	2.310	0.010	0.100	0.350
2020/01/31 13:36:26.3	2.310	-0.030	0.100	0.320
2020/01/31 13:36:26.4	2.310	-0.070	0.090	0.290
2020/01/31 13:36:26.5	2.310	-0.110	0.080	0.250
2020/01/31 13:36:26.6	2.310	-0.160	0.080	0.210
2020/01/31 13:36:26.7	2.310	-0.200	0.080	0.170
2020/01/31 13:36:26.8	2.300	-0.250	0.080	0.130
2020/01/31 13:36:26.9	2.300	-0.290	0.080	0.080
2020/01/31 13:36:27.0	2.290	-0.330	0.080	0.040
2020/01/31 13:36:27.1	2.270	-0.370	0.080	-0.010
2020/01/31 13:36:27.2	2.260	-0.410	0.080	-0.050
2020/01/31 13:36:27.3	2.240	-0.450	0.090	-0.090
2020/01/31 13:36:27.4	2.230	-0.490	0.090	-0.130
2020/01/31 13:36:27.5	2.210	-0.530	0.090	-0.180
2020/01/31 13:36:27.6	2.180	-0.560	0.100	-0.220
2020/01/31 13:36:27.7	2.160	-0.590	0.100	-0.260
2020/01/31 13:36:27.8	2.140	-0.620	0.110	-0.300
2020/01/31 13:36:27.9	2.110	-0.640	0.110	-0.330
2020/01/31 13:36:28.0	2.090	-0.670	0.110	-0.370
2020/01/31 13:36:28.1	2.070	-0.690	0.110	-0.400
2020/01/31 13:36:28.2	2.040	-0.700	0.100	-0.440
2020/01/31 13:36:28.3	2.020	-0.720	0.100	-0.470
2020/01/31 13:36:28.4	1.990	-0.730	0.090	-0.510
2020/01/31 13:36:28.5	1.970	-0.740	0.080	-0.540
2020/01/31 13:36:28.6	1.950	-0.740	0.060	-0.570
2020/01/31 13:36:28.7	1.930	-0.740	0.040	-0.610
2020/01/31 13:36:28.8	1.910	-0.740	0.020	-0.650
2020/01/31 13:36:28.9	1.880	-0.730	0.000	-0.680
2020/01/31 13:36:29.0	1.860	-0.720	-0.020	-0.720
2020/01/31 13:36:29.1	1.840	-0.710	-0.050	-0.760
2020/01/31 13:36:29.2	1.820	-0.690	-0.080	-0.800
2020/01/31 13:36:29.3	1.800	-0.670	-0.110	-0.840
2020/01/31 13:36:29.4	1.780	-0.650	-0.140	-0.880
2020/01/31 13:36:29.5	1.760	-0.630	-0.170	-0.910
2020/01/31 13:36:29.6	1.740	-0.600	-0.200	-0.950
2020/01/31 13:36:29.7	1.720	-0.570	-0.230	-0.980
2020/01/31 13:36:29.8	1.700	-0.540	-0.260	-1.010
2020/01/31 13:36:29.9	1.680	-0.500	-0.280	-1.040
2020/01/31 13:36:30.0	1.660	-0.470	-0.300	-1.060
2020/01/31 13:36:30.1	1.640	-0.430	-0.320	-1.080
2020/01/31 13:36:30.2	1.620	-0.390	-0.340	-1.100
2020/01/31 13:36:30.3	1.600	-0.350	-0.350	-1.100
2020/01/31 13:36:30.4	1.580	-0.310	-0.360	-1.110
2020/01/31 13:36:30.5	1.550	-0.270	-0.370	-1.110
2020/01/31 13:36:30.6	1.550	-0.230	-0.370	-1.100
2020/01/31 13:36:30.7	1.520	-0.190	-0.370	-1.080
2020/01/31 13:36:30.8	1.500	-0.150	-0.360	-1.060
2020/01/31 13:36:30.9	1.470	-0.110	-0.360	-1.040
2020/01/31 13:36:31.0	1.450	-0.080	-0.340	-1.010
2020/01/31 13:36:31.1	1.420	-0.040	-0.330	-0.970
2020/01/31 13:36:31.2	1.400	0.000	-0.320	-0.940
2020/01/31 13:36:31.3	1.370	0.040	-0.300	-0.890
2020/01/31 13:36:31.4	1.350	0.070	-0.290	-0.850
2020/01/31 13:36:31.5	1.330	0.110	-0.270	-0.800
2020/01/31 13:36:31.6	1.340	0.140	-0.260	-0.740
2020/01/31 13:36:31.7	1.320	0.180	-0.250	-0.680
2020/01/31 13:36:31.8	1.310	0.210	-0.240	-0.630
2020/01/31 13:36:31.9	1.290	0.240	-0.230	-0.570
2020/01/31 13:36:32.0	1.280	0.270	-0.230	-0.520
2020/01/31 13:36:32.1	1.280	0.300	-0.230	-0.460
2020/01/31 13:36:32.2	1.270	0.330	-0.240	-0.410
2020/01/31 13:36:32.3	1.270	0.360	-0.250	-0.360
2020/01/31 13:36:32.4	1.280	0.390	-0.260	-0.310
2020/01/31 13:36:32.5	1.280	0.410	-0.280	-0.260
2020/01/31 13:36:32.6	1.290	0.440	-0.310	-0.210
2020/01/31 13:36:32.7	1.300	0.460	-0.340	-0.170
2020/01/31 13:36:32.8	1.320	0.490	-0.370	-0.130
2020/01/31 13:36:32.9	1.340	0.510	-0.400	-0.090
2020/01/31 13:36:33.0	1.360	0.540	-0.440	-0.060
2020/01/31 13:36:33.1	1.380	0.560	-0.480	-0.030
2020/01/31 13:36:33.2	1.410	0.580	-0.520	0.000
2020/01/31 13:36:33.3	1.440	0.600	-0.560	0.030
2020/01/31 13:36:33.4	1.470	0.610	-0.600	0.050
2020/01/31 13:36:33.5	1.510	0.630	-0.640	0.070
2020/01/31 13:36:33.6	1.540	0.640	-0.680	0.090
2020/01/31 13:36:33.7	1.580	0.650	-0.710	0.110
2020/01/31 13:36:33.8	1.620	0.660	-0.750	0.120
2020/01/31 13:36:33.9	1.660	0.670	-0.770	0.140
2020/01/31 13:36:34.0	1.710	0.670	-0.800	0.150
2020/01/31 13:36:34.1	1.750	0.670	-0.820	0.160
2020/01/31 13:36:34.2	1.790	0.670	-0.830	0.170
2020/01/31 13:36:34.3	1.840	0.660	-0.840	0.180
2020/01/31 13:36:34.4	1.880	0.650	-0.840	0.190
2020/01/31 13:36:34.5	1.920	0.630	-0.830	0.210
2020/01/31 13:36:34.6	1.970	0.610	-0.820	0.220
2020/01/31 13:36:34.7	2.010	0.590	-0.800	0.240
2020/01/31 13:36:34.8	2.050	0.570	-0.770	0.250
2020/01/31 13:36:34.9	2.080	0.540	-0.740	0.270
2020/01/31 13:36:35.0	2.110	0.510	-0.700	0.290
2020/01/31 13:36:35.1	2.140	0.470	-0.650	0.310
2020/01/31 13:36:35.2	2.170	0.430	-0.600	0.330
2020/01/31 13:36:35.3	2.190	0.390	-0.540	0.350
2020/01/31 13:36:35.4	2.220	0.350	-0.480	0.370
2020/01/31 13:36:35.5	2.230	0.300	-0.420	0.390
2020/01/31 13:36:35.6	2.240	0.250	-0.350	0.410
2020/01/31 13:36:35.7	2.250	0.200	-0.280	0.430
2020/01/31 13:36:35.8	2.260	0.150	-0.210	0.460
2020/01/31 13:36:35.9	2.270	0.100	-0.140	0.480
2020/01/31 13:36:36.0	2.280	0.050	-0.070	0.500
2020/01/31 13:36:36.1	2.280	-0.010	-0.000	0.520
2020/01/31 13:36:36.2	2.280	-0.060	0.070	0.540
2020/01/31 13:36:36.3	2.280	-0.110	0.130	0.570
2020/01/31 13:36:36.4	2.270	-0.160	0.200	0.590
2020/01/31 13:36:36.5	2.270	-0.210	0.260	0.610
2020/01/31 13:36:36.6	2.240	-0.260	0.310	0.630
2020/01/31 13:36:36.7	2.220	-0.310	0.360	0.650
2020/01/31 13:36:36.8	2.210	-0.350	0.410	0.670
2020/01/31 13:36:36.9	2.200	-0.390	0.440	0.680
2020/01/31 13:36:37.0	2.180	-0.430	0.480	0.700
2020/01/31 13:36:37.1	2.160	-0.460	0.500	0.710
2020/01/31 13:36:37.2	2.140	-0.490	0.520	0.720
2020/01/31 13:36:37.3	2.120	-0.510	0.540	0.720
2020/01/31 13:36:37.4	2.100	-0.540	0.540	0.720
2020/01/31 13:36:37.5	2.080	-0.550	0.540	0.720
2020/01/31 13:36:37.6	2.020	-0.560	0.540	0.720
2020/01/31 13:36:37.7	2.000	-0.570	0.520	0.710
2020/01/31 13:36:37.8	1.970	-0.580	0.500	0.700
2020/01/31 13:36:37.9	1.940	-0.580	0.480	0.680
2020/01/31 13:36:38.0	1.920	-0.570	0.450	0.660
2020/01/31 13:36:38.1	1.890	-0.560	0.420	0.640
2020/01/31 13:36:38.2	1.860	-0.550	0.380	0.610
2020/01/31 13:36:38.3	1.830	-0.530	0.340	0.590
2020/01/31 13:36:38.4	1.810	-0.510	0.290	0.550
2020/01/31 13:36:38.5	1.780	-0.490	0.250	0.520
2020/01/31 13:36:38.6	1.750	-0.460	0.200	0.480
2020/01/31 13:36:38.7	1.720	-0.430	0.150	0.440
2020/01/31 13:36:38.8	1.700	-0.400	0.090	0.390
2020/01/31 13:36:38.9	1.670	-0.360	0.040	0.350
2020/01/31 13:36:39.0	1.650	-0.330	-0.020	0.300
2020/01/31 13:36:39.1	1.630	-0.290	-0.080	0.250
2020/01/31 13:36:39.2	1.600	-0.250	-0.130	0.190
2020/01/31 13:36:39.3	1.580	-0.210	-0.190	0.140
2020/01/31 13:36:39.4	1.560	-0.170	-0.240	0.080
2020/01/31 13:36:39.5	1.540	-0.140	-0.290	0.020
2020/01/31 13:36:39.6	1.550	-0.100	-0.340	-0.030
2020/01/31 13:36:39.7	1.530	-0.060	-0.390	-0.090
2020/01/31 13:36:39.8	1.510	-0.030	-0.430	-0.150
2020/01/31 13:36:39.9	1.500	0.010	-0.480	-0.210
2020/01/31 13:36:40.0	1.480	0.040	-0.510	-0.270
2020/01/31 13:36:40.1	1.460	0.070	-0.550	-0.320
2020/01/31 13:36:40.2	1.450	0.100	-0.580	-0.380
2020/01/31 13:36:40.3	1.440	0.120	-0.610	-0.440
2020/01/31 13:36:40.4	1.420	0.150	-0.630	-0.490
2020/01/31 13:36:40.5	1.410	0.170	-0.650	-0.550
2020/01/31 13:36:40.6	1.410	0.190	-0.670	-0.600
2020/01/31 13:36:40.7	1.410	0.200	-0.690	-0.650
2020/01/31 13:36:40.8	1.400	0.210	-0.700	-0.700
2020/01/31 13:36:40.9	1.390	0.220	-0.700	-0.750
2020/01/31 13:36:41.0	1.390	0.230	-0.710	-0.800
2020/01/31 13:36:41.1	1.390	0.240	-0.710	-0.850
2020/01/31 13:36:41.2	1.390	0.240	-0.710	-0.890
2020/01/31 13:36:41.3	1.400	0.240	-0.710	-0.940
2020/01/31 13:36:41.4	1.400	0.240	-0.700	-0.980
2020/01/31 13:36:41.5	1.410	0.230	-0.700	-1.020
2020/01/31 13:36:41.6	1.430	0.230	-0.690	-1.060
2020/01/31 13:36:41.7	1.440	0.220	-0.680	-1.100
2020/01/31 13:36:41.8	1.450	0.210	-0.670	-1.130
2020/01/31 13:36:41.9	1.460	0.200	-0.650	-1.170
2020/01/31 13:36:42.0	1.480	0.190	-0.640	-1.200
2020/01/31 13:36:42.1	1.490	0.180	-0.620	-1.230
2020/01/31 13:36:42.2	1.510	0.160	-0.590	-1.250
2020/01/31 13:36:42.3	1.520	0.150	-0.570	-1.270
2020/01/31 13:36:42.4	1.540	0.130	-0.540	-1.290
2020/01/31 13:36:42.5	1.560	0.120	-0.510	-1.310
2020/01/31 13:36:42.6	1.580	0.100	-0.480	-1.320
2020/01/31 13:36:42.7	1.600	0.080	-0.450	-1.330
2020/01/31 13:36:42.8	1.620	0.070	-0.410	-1.340
2020/01/31 13:36:42.9	1.630	0.050	-0.370	-1.340
2020/01/31 13:36:43.0	1.650	0.030	-0.330	-1.350
2020/01/31 13:36:43.1	1.670	0.010	-0.280	-1.340
2020/01/31 13:36:43.2	1.680	-0.010	-0.240	-1.340
2020/01/31 13:36:43.3	1.700	-0.030	-0.190	-1.340
2020/01/31 13:36:43.4	1.720	-0.040	-0.150	-1.330
2020/01/31 13:36:43.5	1.740	-0.060	-0.100	-1.320
2020/01/31 13:36:43.6	1.760	-0.080	-0.060	-1.310
2020/01/31 13:36:43.7	1.780	-0.090	-0.020	-1.300
2020/01/31 13:36:43.8	1.800	-0.110	0.020	-1.290
2020/01/31 13:36:43.9	1.820	-0.120	0.060	-1.280
2020/01/31 13:36:44.0	1.840	-0.140	0.090	-1.270
2020/01/31 13:36:44.1	1.860	-0.150	0.120	-1.250
2020/01/31 13:36:44.2	1.880	-0.160	0.150	-1.240
2020/01/31 13:36:44.3	1.900	-0.170	0.180	-1.220
2020/01/31 13:36:44.4	1.920	-0.180	0.200	-1.200
2020/01/31 13:36:44.5	1.940	-0.190	0.210	-1.190
2020/01/31 13:36:44.6	1.980	-0.190	0.230	-1.160
2020/01/31 13:36:44.7	2.000	-0.200	0.240	-1.140
2020/01/31 13:36:44.8	2.020	-0.200	0.240	-1.110
2020/01/31 13:36:44.9	2.040	-0.200	0.240	-1.090
2020/01/31 13:36:45.0	2.050	-0.200	0.230	-1.060
2020/01/31 13:36:45.1	2.070	-0.200	0.220	-1.030
2020/01/31 13:36:45.2	2.080	-0.200	0.200	-1.000
2020/01/31 13:36:45.3	2.090	-0.200	0.190	-0.960
2020/01/31 13:36:45.4	2.100	-0.190	0.170	-0.920
2020/01/31 13:36:45.5	2.110	-0.190	0.140	-0.890
2020/01/31 13:36:45.6	2.120	-0.180	0.110	-0.840
2020/01/31 13:36:45.7	2.120	-0.170	0.080	-0.800
2020/01/31 13:36:45.8	2.120	-0.170	0.050	-0.760
2020/01/31 13:36:45.9	2.120	-0.160	0.020	-0.710
2020/01/31 13:36:46.0	2.120	-0.150	-0.010	-0.670
2020/01/31 13:36:46.1	2.110	-0.140	-0.050	-0.620
2020/01/31 13:36:46.2	2.100	-0.130	-0.080	-0.580
2020/01/31 13:36:46.3	2.090	-0.130	-0.120	-0.530
2020/01/31 13:36:46.4	2.080	-0.120	-0.150	-0.480
2020/01/31 13:36:46.5	2.070	-0.100	-0.190	-0.430
2020/01/31 13:36:46.6	2.040	-0.090	-0.220	-0.380
2020/01/31 13:36:46.7	2.020	-0.080	-0.250	-0.340
2020/01/31 13:36:46.8	2.000	-0.070	-0.290	-0.290
2020/01/31 13:36:46.9	1.980	-0.060	-0.320	-0.240
2020/01/31 13:36:47.0	1.960	-0.050	-0.340	-0.190
2020/01/31 13:36:47.1	1.930	-0.030	-0.370	-0.140
2020/01/31 13:36:47.2	1.910	-0.020	-0.400	-0.100
2020/01/31 13:36:47.3	1.880	-0.010	-0.420	-0.050
2020/01/31 13:36:47.4	1.860	0.010	-0.450	-0.010
2020/01/31 13:36:47.5	1.830	0.020	-0.470	0.030
2020/01/31 13:36:47.6	1.800	0.040	-0.500	0.080
2020/01/31 13:36:47.7	1.780	0.050	-0.520	0.110
2020/01/31 13:36:47.8	1.760	0.070	-0.540	0.150
2020/01/31 13:36:47.9	1.740	0.090	-0.560	0.180
2020/01/31 13:36:48.0	1.730	0.100	-0.580	0.200
2020/01/31 13:36:48.1	1.720	0.120	-0.600	0.230
2020/01/31 13:36:48.2	1.710	0.140	-0.620	0.250
2020/01/31 13:36:48.3	1.700	0.160	-0.630	0.260
2020/01/31 13:36:48.4	1.690	0.180	-0.650	0.270
2020/01/31 13:36:48.5	1.690	0.200	-0.660	0.280
2020/01/31 13:36:48.6	1.670	0.220	-0.680	0.290
2020/01/31 13:36:48.7	1.670	0.240	-0.690	0.290
2020/01/31 13:36:48.8	1.670	0.260	-0.700	0.300
2020/01/31 13:36:48.9	1.680	0.280	-0.710	0.300
2020/01/31 13:36:49.0	1.680	0.300	-0.710	0.290
2020/01/31 13:36:49.1	1.690	0.320	-0.710	0.290
2020/01/31 13:36:49.2	1.690	0.340	-0.710	0.290
2020/01/31 13:36:49.3	1.700	0.360	-0.700	0.290
2020/01/31 13:36:49.4	1.700	0.370	-0.690	0.290
2020/01/31 13:36:49.5	1.710	0.390	-0.670	0.290
2020/01/31 13:36:49.6	1.720	0.400	-0.650	0.290
2020/01/31 13:36:49.7	1.720	0.410	-0.620	0.290
2020/01/31 13:36:49.8	1.720	0.420	-0.590	0.290
2020/01/31 13:36:49.9	1.720	0.420	-0.560	0.290
2020/01/31 13:36:50.0	1.720	0.420	-0.520	0.300
2020/01/31 13:36:50.1	1.720	0.420	-0.470	0.300
2020/01/31 13:36:50.2	1.710	0.410	-0.420	0.300
2020/01/31 13:36:50.3	1.710	0.400	-0.370	0.310
2020/01/31 13:36:50.4	1.700	0.380	-0.320	0.310
2020/01/31 13:36:50.5	1.690	0.360	-0.260	0.310
2020/01/31 13:36:50.6	1.670	0.340	-0.200	0.310
2020/01/31 13:36:50.7	1.660	0.320	-0.140	0.320
2020/01/31 13:36:50.8	1.650	0.290	-0.080	0.320
2020/01/31 13:36:50.9	1.640	0.260	-0.020	0.320
2020/01/31 13:36:51.0	1.630	0.220	0.040	0.320
2020/01/31 13:36:51.1	1.620	0.190	0.100	0.330
2020/01/31 13:36:51.2	1.610	0.150	0.160	0.330
2020/01/31 13:36:51.3	1.600	0.110	0.210	0.330
2020/01/31 13:36:51.4	1.590	0.070	0.260	0.340
2020/01/31 13:36:51.5	1.570	0.020	0.300	0.340
2020/01/31 13:36:51.6	1.550	-0.020	0.340	0.340
2020/01/31 13:36:51.7	1.540	-0.060	0.380	0.340
2020/01/31 13:36:51.8	1.530	-0.100	0.400	0.340
2020/01/31 13:36:51.9	1.520	-0.150	0.420	0.340
2020/01/31 13:36:52.0	1.520	-0.190	0.440	0.340
2020/01/31 13:36:52.1	1.510	-0.220	0.450	0.340
2020/01/31 13:36:52.2	1.510	-0.260	0.450	0.340
2020/01/31 13:36:52.3	1.510	-0.290	0.440	0.330
2020/01/31 13:36:52.4	1.510	-0.330	0.420	0.330
2020/01/31 13:36:52.5	1.510	-0.350	0.400	0.320
2020/01/31 13:36:52.6	1.510	-0.380	0.380	0.300
2020/01/31 13:36:52.7	1.520	-0.400	0.340	0.290
2020/01/31 13:36:52.8	1.530	-0.420	0.300	0.270
2020/01/31 13:36:52.9	1.530	-0.430	0.260	0.250
2020/01/31 13:36:53.0	1.550	-0.440	0.210	0.220
2020/01/31 13:36:53.1	1.560	-0.450	0.150	0.190
2020/01/31 13:36:53.2	1.570	-0.460	0.090	0.160
2020/01/31 13:36:53.3	1.590	-0.460	0.030	0.120
2020/01/31 13:36:53.4	1.600	-0.460	-0.040	0.080
2020/01/31 13:36:53.5	1.620	-0.450	-0.110	0.030
2020/01/31 13:36:53.6	1.640	-0.450	-0.180	-0.010
2020/01/31 13:36:53.7	1.660	-0.440	-0.240	-0.060
2020/01/31 13:36:53.8	1.680	-0.430	-0.310	-0.110
2020/01/31 13:36:53.9	1.690	-0.410	-0.370	-0.150
2020/01/31 13:36:54.0	1.710	-0.400	-0.430	-0.200
2020/01/31 13:36:54.1	1.720	-0.380	-0.490	-0.250
2020/01/31 13:36:54.2	1.730	-0.370	-0.550	-0.290
2020/01/31 13:36:54.3	1.740	-0.350	-0.600	-0.340
2020/01/31 13:36:54.4	1.750	-0.330	-0.640	-0.380
2020/01/31 13:36:54.5	1.760	-0.320	-0.680	-0.420
2020/01/31 13:36:54.6	1.770	-0.300	-0.720	-0.460
2020/01/31 13:36:54.7	1.780	-0.280	-0.750	-0.490
2020/01/31 13:36:54.8	1.780	-0.270	-0.770	-0.530
2020/01/31 13:36:54.9	1.780	-0.250	-0.790	-0.560
2020/01/31 13:36:55.0	1.790	-0.240	-0.810	-0.600
2020/01/31 13:36:55.1	1.790	-0.230	-0.810	-0.630
2020/01/31 13:36:55.2	1.790	-0.220	-0.820	-0.660
2020/01/31 13:36:55.3	1.790	-0.210	-0.810	-0.690
2020/01/31 13:36:55.4	1.790	-0.200	-0.800	-0.710
2020/01/31 13:36:55.5	1.790	-0.190	-0.790	-0.740
2020/01/31 13:36:55.6	1.790	-0.180	-0.770	-0.760
2020/01/31 13:36:55.7	1.790	-0.180	-0.740	-0.780
2020/01/31 13:36:55.8	1.780	-0.170	-0.710	-0.800
2020/01/31 13:36:55.9	1.780	-0.170	-0.670	-0.820
2020/01/31 13:36:56.0	1.770	-0.170	-0.630	-0.840
2020/01/31 13:36:56.1	1.770	-0.160	-0.590	-0.850
2020/01/31 13:36:56.2	1.760	-0.160	-0.540	-0.860
2020/01/31 13:36:56.3	1.750	-0.160	-0.490	-0.860
2020/01/31 13:36:56.4	1.740	-0.160	-0.440	-0.870
2020/01/31 13:36:56.5	1.730	-0.160	-0.380	-0.870
2020/01/31 13:36:56.6	1.720	-0.160	-0.330	-0.860
2020/01/31 13:36:56.7	1.700	-0.150	-0.270	-0.860
2020/01/31 13:36:56.8	1.680	-0.150	-0.210	-0.850
2020/01/31 13:36:56.9	1.660	-0.150	-0.150	-0.830
2020/01/31 13:36:57.0	1.640	-0.140	-0.090	-0.820
2020/01/31 13:36:57.1	1.620	-0.140	-0.030	-0.800
2020/01/31 13:36:57.2	1.590	-0.140	0.030	-0.770
2020/01/31 13:36:57.3	1.570	-0.130	0.080	-0.750
2020/01/31 13:36:57.4	1.540	-0.120	0.130	-0.720
2020/01/31 13:36:57.5	1.520	-0.110	0.180	-0.700
2020/01/31 13:36:57.6	1.500	-0.110	0.220	-0.670
2020/01/31 13:36:57.7	1.470	-0.090	0.260	-0.640
2020/01/31 13:36:57.8	1.450	-0.080	0.290	-0.600
2020/01/31 13:36:57.9	1.420	-0.070	0.320	-0.570
2020/01/31 13:36:58.0	1.400	-0.060	0.340	-0.540
2020/01/31 13:36:58.1	1.380	-0.040	0.360	-0.510
2020/01/31 13:36:58.2	1.350	-0.030	0.370	-0.470
2020/01/31 13:36:58.3	1.330	-0.010	0.380	-0.440
2020/01/31 13:36:58.4	1.320	0.010	0.370	-0.400
2020/01/31 13:36:58.5	1.300	0.030	0.370	-0.370
2020/01/31 13:36:58.6	1.300	0.050	0.350	-0.330
2020/01/31 13:36:58.7	1.280	0.070	0.340	-0.300
2020/01/31 13:36:58.8	1.270	0.090	0.310	-0.270
2020/01/31 13:36:58.9	1.260	0.110	0.290	-0.230
2020/01/31 13:36:59.0	1.250	0.130	0.260	-0.200
2020/01/31 13:36:59.1	1.250	0.160	0.220	-0.170
2020/01/31 13:36:59.2	1.240	0.180	0.180	-0.140
2020/01/31 13:36:59.3	1.240	0.200	0.140	-0.110
2020/01/31 13:36:59.4	1.240	0.220	0.100	-0.080
2020/01/31 13:36:59.5	1.240	0.250	0.050	-0.060
2020/01/31 13:36:59.6	1.240	0.270	0.000	-0.030
2020/01/31 13:36:59.7	1.240	0.290	-0.050	-0.010
2020/01/31 13:36:59.8	1.250	0.310	-0.100	0.020
2020/01/31 13:36:59.9	1.250	0.330	-0.150	0.040
2020/01/31 13:37:00.0	1.260	0.340	-0.200	0.060
2020/01/31 13:37:00.1	1.270	0.360	-0.260	0.070
2020/01/31 13:37:00.2	1.280	0.370	-0.310	0.090
2020/01/31 13:37:00.3	1.300	0.390	-0.360	0.110
2020/01/31 13:37:00.4	1.310	0.400	-0.400	0.120
2020/01/31 13:37:00.5	1.320	0.410	-0.450	0.130
2020/01/31 13:37:00.6	1.340	0.410	-0.500	0.140
2020/01/31 13:37:00.7	1.350	0.420	-0.540	0.150
2020/01/31 13:37:00.8	1.370	0.420	-0.570	0.160
2020/01/31 13:37:00.9	1.380	0.430	-0.610	0.180
2020/01/31 13:37:01.0	1.400	0.430	-0.640	0.190
2020/01/31 13:37:01.1	1.410	0.420	-0.670	0.200
2020/01/31 13:37:01.2	1.430	0.420	-0.690	0.210
2020/01/31 13:37:01.3	1.440	0.420	-0.710	0.220
2020/01/31 13:37:01.4	1.450	0.410	-0.720	0.230
2020/01/31 13:37:01.5	1.470	0.400	-0.730	0.240
2020/01/31 13:37:01.6	1.490	0.390	-0.730	0.250
2020/01/31 13:37:01.7	1.510	0.380	-0.730	0.260
2020/01/31 13:37:01.8	1.520	0.370	-0.730	0.270
2020/01/31 13:37:01.9	1.540	0.360	-0.720	0.280
2020/01/31 13:37:02.0	1.550	0.340	-0.710	0.280
2020/01/31 13:37:02.1	1.570	0.330	-0.690	0.290
2020/01/31 13:37:02.2	1.590	0.310	-0.680	0.290
2020/01/31 13:37:02.3	1.600	0.300	-0.660	0.290
2020/01/31 13:37:02.4	1.620	0.280	-0.640	0.290
2020/01/31 13:37:02.5	1.640	0.260	-0.620	0.290
2020/01/31 13:37:02.6	1.650	0.240	-0.590	0.290
2020/01/31 13:37:02.7	1.670	0.230	-0.570	0.280
2020/01/31 13:37:02.8	1.690	0.210	-0.550	0.270
2020/01/31 13:37:02.9	1.710	0.190	-0.520	0.260
2020/01/31 13:37:03.0	1.720	0.170	-0.500	0.250
2020/01/31 13:37:03.1	1.740	0.150	-0.470	0.240
2020/01/31 13:37:03.2	1.760	0.130	-0.440	0.230
2020/01/31 13:37:03.3	1.770	0.100	-0.420	0.220
2020/01/31 13:37:03.4	1.770	0.080	-0.390	0.220
2020/01/31 13:37:03.5	1.780	0.060	-0.360	0.210
2020/01/31 13:37:03.6	1.780	0.030	-0.340	0.200
2020/01/31 13:37:03.7	1.780	0.010	-0.310	0.190
2020/01/31 13:37:03.8	1.770	-0.020	-0.280	0.180
2020/01/31 13:37:03.9	1.770	-0.050	-0.260	0.170
2020/01/31 13:37:04.0	1.760	-0.070	-0.230	0.160
2020/01/31 13:37:04.1	1.750	-0.100	-0.210	0.140
2020/01/31 13:37:04.2	1.740	-0.120	-0.190	0.130
2020/01/31 13:37:04.3	1.730	-0.150	-0.170	0.120
2020/01/31 13:37:04.4	1.710	-0.170	-0.150	0.110
2020/01/31 13:37:04.5	1.700	-0.200	-0.130	0.090
2020/01/31 13:37:04.6	1.670	-0.220	-0.110	0.070
2020/01/31 13:37:04.7	1.660	-0.250	-0.090	0.050
2020/01/31 13:37:04.8	1.640	-0.270	-0.080	0.040
2020/01/31 13:37:04.9	1.620	-0.290	-0.070	0.020
2020/01/31 13:37:05.0	1.600	-0.310	-0.060	-0.000
2020/01/31 13:37:05.1	1.590	-0.320	-0.050	-0.020
2020/01/31 13:37:05.2	1.570	-0.340	-0.040	-0.040
2020/01/31 13:37:05.3	1.550	-0.350	-0.030	-0.060
2020/01/31 13:37:05.4	1.530	-0.360	-0.030	-0.080
2020/01/31 13:37:05.5	1.520	-0.370	-0.020	-0.100
2020/01/31 13:37:05.6	1.490	-0.370	-0.020	-0.120
2020/01/31 13:37:05.7	1.480	-0.380	-0.020	-0.130
2020/01/31 13:37:05.8	1.470	-0.380	-0.020	-0.150
2020/01/31 13:37:05.9	1.450	-0.380	-0.020	-0.160
2020/01/31 13:37:06.0	1.440	-0.370	-0.020	-0.180
2020/01/31 13:37:06.1	1.430	-0.360	-0.020	-0.190
2020/01/31 13:37:06.2	1.420	-0.350	-0.020	-0.200
2020/01/31 13:37:06.3	1.410	-0.340	-0.030	-0.220
2020/01/31 13:37:06.4	1.410	-0.330	-0.030	-0.230
2020/01/31 13:37:06.5	1.400	-0.310	-0.040	-0.240
2020/01/31 13:37:06.6	1.400	-0.300	-0.050	-0.250
2020/01/31 13:37:06.7	1.400	-0.280	-0.060	-0.260
2020/01/31 13:37:06.8	1.400	-0.260	-0.070	-0.280
2020/01/31 13:37:06.9	1.400	-0.240	-0.080	-0.290
2020/01/31 13:37:07.0	1.410	-0.220	-0.090	-0.310
2020/01/31 13:37:07.1	1.410	-0.200	-0.110	-0.320
2020/01/31 13:37:07.2	1.420	-0.180	-0.120	-0.340
2020/01/31 13:37:07.3	1.420	-0.150	-0.140	-0.350
2020/01/31 13:37:07.4	1.430	-0.130	-0.160	-0.370
2020/01/31 13:37:07.5	1.440	-0.110	-0.180	-0.390
2020/01/31 13:37:07.6	1.450	-0.090	-0.190	-0.410
2020/01/31 13:37:07.7	1.470	-0.070	-0.210	-0.420
2020/01/31 13:37:07.8	1.480	-0.050	-0.230	-0.440
2020/01/31 13:37:07.9	1.500	-0.040	-0.250	-0.460
2020/01/31 13:37:08.0	1.510	-0.020	-0.270	-0.480
2020/01/31 13:37:08.1	1.530	-0.010	-0.290	-0.500
2020/01/31 13:37:08.2	1.550	0.010	-0.300	-0.520
2020/01/31 13:37:08.3	1.570	0.020	-0.320	-0.540
2020/01/31 13:37:08.4	1.590	0.030	-0.340	-0.550
2020/01/31 13:37:08.5	1.610	0.040	-0.350	-0.570
2020/01/31 13:37:08.6	1.620	0.040	-0.360	-0.580
2020/01/31 13:37:08.7	1.640	0.050	-0.370	-0.590
2020/01/31 13:37:08.8	1.660	0.050	-0.380	-0.600
2020/01/31 13:37:08.9	1.680	0.050	-0.390	-0.610
2020/01/31 13:37:09.0	1.700	0.050	-0.390	-0.620
2020/01/31 13:37:09.1	1.710	0.050	-0.390	-0.630
2020/01/31 13:37:09.2	1.730	0.040	-0.390	-0.640
2020/01/31 13:37:09.3	1.740	0.040	-0.380	-0.640
2020/01/31 13:37:09.4	1.760	0.030	-0.370	-0.650
2020/01/31 13:37:09.5	1.770	0.020	-0.360	-0.650
2020/01/31 13:37:09.6	1.780	0.010	-0.350	-0.660
2020/01/31 13:37:09.7	1.790	-0.000	-0.330	-0.660
2020/01/31 13:37:09.8	1.800	-0.020	-0.320	-0.670
2020/01/31 13:37:09.9	1.810	-0.030	-0.290	-0.670
2020/01/31 13:37:10.0	1.820	-0.040	-0.270	-0.680
2020/01/31 13:37:10.1	1.820	-0.060	-0.250	-0.680
2020/01/31 13:37:10.2	1.820	-0.070	-0.220	-0.690
2020/01/31 13:37:10.3	1.830	-0.090	-0.200	-0.690
2020/01/31 13:37:10.4	1.830	-0.110	-0.170	-0.690
2020/01/31 13:37:10.5	1.830	-0.120	-0.140	-0.690
2020/01/31 13:37:10.6	1.820	-0.140	-0.110	-0.690
2020/01/31 13:37:10.7	1.810	-0.150	-0.080	-0.690
2020/01/31 13:37:10.8	1.810	-0.170	-0.050	-0.680
2020/01/31 13:37:10.9	1.800	-0.180	-0.020	-0.670
2020/01/31 13:37:11.0	1.800	-0.200	0.010	-0.670
2020/01/31 13:37:11.1	1.790	-0.210	0.040	-0.650
2020/01/31 13:37:11.2	1.780	-0.230	0.070	-0.640
2020/01/31 13:37:11.3	1.770	-0.240	0.100	-0.630
2020/01/31 13:37:11.4	1.760	-0.250	0.120	-0.610
2020/01/31 13:37:11.5	1.750	-0.260	0.150	-0.590
2020/01/31 13:37:11.6	1.750	-0.280	0.170	-0.570
2020/01/31 13:37:11.7	1.740	-0.280	0.190	-0.540
2020/01/31 13:37:11.8	1.730	-0.290	0.200	-0.520
2020/01/31 13:37:11.9	1.720	-0.300	0.220	-0.490
2020/01/31 13:37:12.0	1.710	-0.310	0.230	-0.470
2020/01/31 13:37:12.1	1.700	-0.310	0.230	-0.440
2020/01/31 13:37:12.2	1.690	-0.310	0.230	-0.410
2020/01/31 13:37:12.3	1.680	-0.310	0.230	-0.390
2020/01/31 13:37:12.4	1.670	-0.310	0.230	-0.360
2020/01/31 13:37:12.5	1.660	-0.310	0.220	-0.330
2020/01/31 13:37:12.6	1.660	-0.300	0.210	-0.300
2020/01/31 13:37:12.7	1.640	-0.290	0.190	-0.270
2020/01/31 13:37:12.8	1.630	-0.280	0.180	-0.240
2020/01/31 13:37:12.9	1.620	-0.270	0.160	-0.210
2020/01/31 13:37:13.0	1.600	-0.260	0.130	-0.180
2020/01/31 13:37:13.1	1.580	-0.240	0.100	-0.140
2020/01/31 13:37:13.2	1.570	-0.220	0.080	-0.110
2020/01/31 13:37:13.3	1.550	-0.200	0.050	-0.070
2020/01/31 13:37:13.4	1.530	-0.170	0.010	-0.040
2020/01/31 13:37:13.5	1.510	-0.150	-0.020	0.000
2020/01/31 13:37:13.6	1.480	-0.120	-0.060	0.040
2020/01/31 13:37:13.7	1.460	-0.080	-0.090	0.080
2020/01/31 13:37:13.8	1.440	-0.050	-0.130	0.130
2020/01/31 13:37:13.9	1.410	-0.010	-0.170	0.170
2020/01/31 13:37:14.0	1.390	0.030	-0.200	0.220
2020/01/31 13:37:14.1	1.360	0.070	-0.240	0.260
2020/01/31 13:37:14.2	1.330	0.110	-0.280	0.310
2020/01/31 13:37:14.3	1.310	0.150	-0.320	0.360
2020/01/31 13:37:14.4	1.280	0.200	-0.360	0.410
2020/01/31 13:37:14.5	1.250	0.240	-0.400	0.460
2020/01/31 13:37:14.6	1.210	0.290	-0.440	0.510
2020/01/31 13:37:14.7	1.190	0.330	-0.470	0.560
2020/01/31 13:37:14.8	1.170	0.380	-0.510	0.600
2020/01/31 13:37:14.9	1.150	0.420	-0.560	0.650
2020/01/31 13:37:15.0	1.130	0.460	-0.600	0.690
2020/01/31 13:37:15.1	1.110	0.510	-0.640	0.730
2020/01/31 13:37:15.2	1.100	0.550	-0.680	0.770
2020/01/31 13:37:15.3	1.090	0.590	-0.720	0.800
2020/01/31 13:37:15.4	1.080	0.620	-0.760	0.830
2020/01/31 13:37:15.5	1.080	0.660	-0.800	0.850
2020/01/31 13:37:15.6	1.110	0.690	-0.850	0.870
2020/01/31 13:37:15.7	1.110	0.710	-0.890	0.880
2020/01/31 13:37:15.8	1.120	0.740	-0.930	0.880
2020/01/31 13:37:15.9	1.130	0.760	-0.970	0.880
2020/01/31 13:37:16.0	1.140	0.780	-1.000	0.880
2020/01/31 13:37:16.1	1.160	0.790	-1.040	0.860
2020/01/31 13:37:16.2	1.180	0.800	-1.070	0.840
2020/01/31 13:37:16.3	1.210	0.800	-1.100	0.820
2020/01/31 13:37:16.4	1.240	0.800	-1.130	0.790
2020/01/31 13:37:16.5	1.270	0.790	-1.150	0.750
2020/01/31 13:37:16.6	1.320	0.780	-1.170	0.710
2020/01/31 13:37:16.7	1.360	0.770	-1.190	0.660
2020/01/31 13:37:16.8	1.400	0.750	-1.200	0.600
2020/01/31 13:37:16.9	1.450	0.730	-1.200	0.550
2020/01/31 13:37:17.0	1.500	0.700	-1.200	0.490
2020/01/31 13:37:17.1	1.550	0.660	-1.200	0.430
2020/01/31 13:37:17.2	1.610	0.630	-1.190	0.360
2020/01/31 13:37:17.3	1.660	0.580	-1.170	0.290
2020/01/31 13:37:17.4	1.720	0.540	-1.140	0.230
2020/01/31 13:37:17.5	1.770	0.490	-1.110	0.160
2020/01/31 13:37:17.6	1.830	0.430	-1.070	0.090
2020/01/31 13:37:17.7	1.890	0.380	-1.020	0.030
2020/01/31 13:37:17.8	1.940	0.320	-0.960	-0.030
2020/01/31 13:37:17.9	1.990	0.250	-0.900	-0.090
2020/01/31 13:37:18.0	2.040	0.190	-0.830	-0.150
2020/01/31 13:37:18.1	2.090	0.120	-0.750	-0.210
2020/01/31 13:37:18.2	2.130	0.050	-0.670	-0.260
2020/01/31 13:37:18.3	2.170	-0.020	-0.580	-0.310
2020/01/31 13:37:18.4	2.210	-0.100	-0.490	-0.360
2020/01/31 13:37:18.5	2.240	-0.170	-0.390	-0.410
2020/01/31 13:37:18.6	2.260	-0.250	-0.290	-0.450
2020/01/31 13:37:18.7	2.290	-0.320	-0.190	-0.490
2020/01/31 13:37:18.8	2.310	-0.390	-0.090	-0.530
2020/01/31 13:37:18.9	2.320	-0.460	0.020	-0.560
2020/01/31 13:37:19.0	2.340	-0.530	0.120	-0.590
2020/01/31 13:37:19.1	2.340	-0.600	0.230	-0.620
2020/01/31 13:37:19.2	2.350	-0.670	0.330	-0.640
2020/01/31 13:37:19.3	2.350	-0.730	0.430	-0.670
2020/01/31 13:37:19.4	2.340	-0.790	0.530	-0.690
2020/01/31 13:37:19.5	2.340	-0.840	0.620	-0.700
2020/01/31 13:37:19.6	2.320	-0.890	0.710	-0.720
2020/01/31 13:37:19.7	2.300	-0.930	0.790	-0.740
2020/01/31 13:37:19.8	2.290	-0.970	0.870	-0.750
2020/01/31 13:37:19.9	2.270	-1.010	0.940	-0.750
2020/01/31 13:37:20.0	2.250	-1.040	1.000	-0.760
2020/01/31 13:37:20.1	2.220	-1.060	1.050	-0.760
2020/01/31 13:37:20.2	2.200	-1.080	1.100	-0.770
2020/01/31 13:37:20.3	2.170	-1.090	1.140	-0.770
2020/01/31 13:37:20.4	2.150	-1.090	1.170	-0.770
2020/01/31 13:37:20.5	2.120	-1.090	1.190	-0.770
2020/01/31 13:37:20.6	2.080	-1.080	1.200	-0.760
2020/01/31 13:37:20.7	2.050	-1.070	1.200	-0.760
2020/01/31 13:37:20.8	2.020	-1.050	1.200	-0.750
2020/01/31 13:37:20.9	1.990	-1.020	1.180	-0.750
2020/01/31 13:37:21.0	1.950	-0.990	1.160	-0.740
2020/01/31 13:37:21.1	1.920	-0.950	1.130	-0.730
2020/01/31 13:37:21.2	1.880	-0.910	1.090	-0.710
2020/01/31 13:37:21.3	1.850	-0.860	1.040	-0.700
2020/01/31 13:37:21.4	1.810	-0.810	0.980	-0.680
2020/01/31 13:37:21.5	1.760	-0.750	0.920	-0.650
2020/01/31 13:37:21.6	1.720	-0.690	0.860	-0.630
2020/01/31 13:37:21.7	1.670	-0.630	0.790	-0.600
2020/01/31 13:37:21.8	1.620	-0.570	0.710	-0.560
2020/01/31 13:37:21.9	1.570	-0.500	0.640	-0.530
2020/01/31 13:37:22.0	1.520	-0.440	0.560	-0.490
2020/01/31 13:37:22.1	1.470	-0.370	0.480	-0.450
2020/01/31 13:37:22.2	1.410	-0.310	0.390	-0.410
2020/01/31 13:37:22.3	1.360	-0.240	0.310	-0.370
2020/01/31 13:37:22.4	1.300	-0.180	0.220	-0.330
2020/01/31 13:37:22.5	1.240	-0.110	0.140	-0.280
2020/01/31 13:37:22.6	1.200	-0.050	0.050	-0.230
2020/01/31 13:37:22.7	1.140	0.010	-0.030	-0.190
2020/01/31 13:37:22.8	1.090	0.070	-0.110	-0.150
2020/01/31 13:37:22.9	1.040	0.120	-0.190	-0.110
2020/01/31 13:37:23.0	0.990	0.180	-0.270	-0.070
2020/01/31 13:37:23.1	0.940	0.230	-0.350	-0.030
2020/01/31 13:37:23.2	0.890	0.280	-0.420	0.010
2020/01/31 13:37:23.3	0.850	0.320	-0.490	0.050
2020/01/31 13:37:23.4	0.810	0.360	-0.560	0.090
2020/01/31 13:37:23.5	0.770	0.400	-0.620	0.120
2020/01/31 13:37:23.6	0.750	0.440	-0.680	0.150
2020/01/31 13:37:23.7	0.720	0.470	-0.740	0.190
2020/01/31 13:37:23.8	0.700	0.500	-0.800	0.210
2020/01/31 13:37:23.9	0.670	0.530	-0.850	0.240
2020/01/31 13:37:24.0	0.660	0.560	-0.900	0.260
2020/01/31 13:37:24.1	0.650	0.580	-0.950	0.280
2020/01/31 13:37:24.2	0.640	0.610	-0.990	0.300
2020/01/31 13:37:24.3	0.640	0.630	-1.030	0.310
2020/01/31 13:37:24.4	0.640	0.640	-1.060	0.330
2020/01/31 13:37:24.5	0.640	0.660	-1.090	0.340
2020/01/31 13:37:24.6	0.650	0.680	-1.120	0.350
2020/01/31 13:37:24.7	0.670	0.690	-1.140	0.360
2020/01/31 13:37:24.8	0.680	0.700	-1.160	0.360
2020/01/31 13:37:24.9	0.700	0.700	-1.170	0.370
2020/01/31 13:37:25.0	0.720	0.710	-1.170	0.370
2020/01/31 13:37:25.1	0.740	0.710	-1.180	0.380
2020/01/31 13:37:25.2	0.760	0.710	-1.170	0.380
2020/01/31 13:37:25.3	0.780	0.710	-1.160	0.380
2020/01/31 13:37:25.4	0.800	0.700	-1.150	0.380
2020/01/31 13:37:25.5	0.830	0.690	-1.130	0.380
2020/01/31 13:37:25.6	0.860	0.680	-1.110	0.380
2020/01/31 13:37:25.7	0.880	0.660	-1.080	0.380
2020/01/31 13:37:25.8	0.910	0.640	-1.060	0.370
2020/01/31 13:37:25.9	0.930	0.620	-1.030	0.360
2020/01/31 13:37:26.0	0.950	0.600	-1.000	0.350
2020/01/31 13:37:26.1	0.980	0.570	-0.960	0.340
2020/01/31 13:37:26.2	1.000	0.540	-0.930	0.330
2020/01/31 13:37:26.3	1.020	0.500	-0.900	0.310
2020/01/31 13:37:26.4	1.050	0.470	-0.860	0.290
2020/01/31 13:37:26.5	1.070	0.430	-0.830	0.270
2020/01/31 13:37:26.6	1.110	0.390	-0.790	0.250
2020/01/31 13:37:26.7	1.130	0.350	-0.760	0.230
2020/01/31 13:37:26.8	1.160	0.300	-0.720	0.200
2020/01/31 13:37:26.9	1.190	0.260	-0.690	0.170
2020/01/31 13:37:27.0	1.220	0.210	-0.660	0.140
2020/01/31 13:37:27.1	1.250	0.170	-0.640	0.100
2020/01/31 13:37:27.2	1.280	0.120	-0.610	0.070
2020/01/31 13:37:27.3	1.310	0.070	-0.590	0.030
2020/01/31 13:37:27.4	1.350	0.030	-0.570	-0.020
2020/01/31 13:37:27.5	1.380	-0.020	-0.540	-0.060
2020/01/31 13:37:27.6	1.410	-0.060	-0.530	-0.110
2020/01/31 13:37:27.7	1.450	-0.110	-0.510	-0.160
2020/01/31 13:37:27.8	1.490	-0.150	-0.490	-0.210
2020/01/31 13:37:27.9	1.530	-0.190	-0.480	-0.260
2020/01/31 13:37:28.0	1.570	-0.230	-0.460	-0.300
2020/01/31 13:37:28.1	1.600	-0.260	-0.440	-0.350
2020/01/31 13:37:28.2	1.640	-0.300	-0.430	-0.400
2020/01/31 13:37:28.3	1.680	-0.330	-0.410	-0.450
2020/01/31 13:37:28.4	1.710	-0.360	-0.390	-0.490
2020/01/31 13:37:28.5	1.740	-0.380	-0.370	-0.530
2020/01/31 13:37:28.6	1.780	-0.410	-0.350	-0.580
2020/01/31 13:37:28.7	1.810	-0.430	-0.330	-0.610
2020/01/31 13:37:28.8	1.830	-0.440	-0.300	-0.640
2020/01/31 13:37:28.9	1.850	-0.460	-0.270	-0.670
2020/01/31 13:37:29.0	1.870	-0.470	-0.250	-0.700
2020/01/31 13:37:29.1	1.890	-0.470	-0.220	-0.720
2020/01/31 13:37:29.2	1.900	-0.480	-0.180	-0.730
2020/01/31 13:37:29.3	1.910	-0.480	-0.150	-0.750
2020/01/31 13:37:29.4	1.920	-0.480	-0.120	-0.760
2020/01/31 13:37:29.5	1.930	-0.470	-0.080	-0.760
2020/01/31 13:37:29.6	1.930	-0.470	-0.040	-0.760
2020/01/31 13:37:29.7	1.930	-0.460	-0.010	-0.750
2020/01/31 13:37:29.8	1.930	-0.450	0.030	-0.750
2020/01/31 13:37:29.9	1.920	-0.430	0.070	-0.740
2020/01/31 13:37:30.0	1.910	-0.420	0.110	-0.720
2020/01/31 13:37:30.1	1.900	-0.400	0.150	-0.710
2020/01/31 13:37:30.2	1.890	-0.380	0.180	-0.690
2020/01/31 13:37:30.3	1.880	-0.360	0.220	-0.670
2020/01/31 13:37:30.4	1.860	-0.340	0.250	-0.640
2020/01/31 13:37:30.5	1.850	-0.320	0.280	-0.620
2020/01/31 13:37:30.6	1.820	-0.290	0.310	-0.600
2020/01/31 13:37:30.7	1.810	-0.270	0.340	-0.570
2020/01/31 13:37:30.8	1.790	-0.240	0.360	-0.540
2020/01/31 13:37:30.9	1.780	-0.220	0.380	-0.520
2020/01/31 13:37:31.0	1.760	-0.190	0.400	-0.490
2020/01/31 13:37:31.1	1.740	-0.170	0.420	-0.460
2020/01/31 13:37:31.2	1.730	-0.140	0.430	-0.430
2020/01/31 13:37:31.3	1.710	-0.120	0.440	-0.410
2020/01/31 13:37:31.4	1.700	-0.090	0.440	-0.380
2020/01/31 13:37:31.5	1.690	-0.070	0.450	-0.350
2020/01/31 13:37:31.6	1.670	-0.040	0.450	-0.320
2020/01/31 13:37:31.7	1.660	-0.020	0.440	-0.290
2020/01/31 13:37:31.8	1.650	0.000	0.440	-0.270
2020/01/31 13:37:31.9	1.640	0.020	0.430	-0.240
2020/01/31 13:37:32.0	1.620	0.040	0.420	-0.210
2020/01/31 13:37:32.1	1.610	0.060	0.410	-0.180
2020/01/31 13:37:32.2	1.590	0.080	0.400	-0.140
2020/01/31 13:37:32.3	1.570	0.090	0.390	-0.110
2020/01/31 13:37:32.4	1.550	0.110	0.380	-0.070
2020/01/31 13:37:32.5	1.530	0.120	0.370	-0.030
2020/01/31 13:37:32.6	1.490	0.130	0.360	0.010
2020/01/31 13:37:32.7	1.460	0.140	0.350	0.050
2020/01/31 13:37:32.8	1.430	0.150	0.340	0.100
2020/01/31 13:37:32.9	1.390	0.150	0.330	0.140
2020/01/31 13:37:33.0	1.350	0.160	0.330	0.190
2020/01/31 13:37:33.1	1.310	0.160	0.320	0.240
2020/01/31 13:37:33.2	1.260	0.160	0.320	0.290
2020/01/31 13:37:33.3	1.210	0.160	0.320	0.340
2020/01/31 13:37:33.4	1.160	0.150	0.320	0.390
2020/01/31 13:37:33.5	1.100	0.150	0.320	0.440
2020/01/31 13:37:33.6	1.030	0.140	0.320	0.490
2020/01/31 13:37:33.7	0.970	0.130	0.320	0.540
2020/01/31 13:37:33.8	0.910	0.120	0.320	0.590
2020/01/31 13:37:33.9	0.840	0.110	0.320	0.630
2020/01/31 13:37:34.0	0.780	0.100	0.310	0.670
2020/01/31 13:37:34.1	0.720	0.080	0.310	0.710
2020/01/31 13:37:34.2	0.660	0.070	0.300	0.740
2020/01/31 13:37:34.3	0.600	0.050	0.290	0.770
2020/01/31 13:37:34.4	0.550	0.030	0.270	0.790
2020/01/31 13:37:34.5	0.500	0.010	0.250	0.810
2020/01/31 13:37:34.6	0.460	-0.000	0.230	0.820
2020/01/31 13:37:34.7	0.420	-0.020	0.200	0.820
2020/01/31 13:37:34.8	0.380	-0.040	0.160	0.810
2020/01/31 13:37:34.9	0.340	-0.050	0.120	0.800
2020/01/31 13:37:35.0	0.310	-0.070	0.070	0.780
2020/01/31 13:37:35.1	0.280	-0.080	0.020	0.760
2020/01/31 13:37:35.2	0.260	-0.100	-0.040	0.720
2020/01/31 13:37:35.3	0.250	-0.110	-0.110	0.680
2020/01/31 13:37:35.4	0.240	-0.120	-0.180	0.640
2020/01/31 13:37:35.5	0.240	-0.120	-0.250	0.590
2020/01/31 13:37:35.6	0.260	-0.130	-0.330	0.530
2020/01/31 13:37:35.7	0.270	-0.130	-0.420	0.470
2020/01/31 13:37:35.8	0.280	-0.130	-0.500	0.400
2020/01/31 13:37:35.9	0.300	-0.130	-0.590	0.320
2020/01/31 13:37:36.0	0.330	-0.130	-0.670	0.250
2020/01/31 13:37:36.1	0.350	-0.120	-0.760	0.160
2020/01/31 13:37:36.2	0.390	-0.110	-0.840	0.080
2020/01/31 13:37:36.3	0.430	-0.100	-0.930	-0.010
2020/01/31 13:37:36.4	0.470	-0.080	-1.010	-0.100
2020/01/31 13:37:36.5	0.510	-0.070	-1.090	-0.190
2020/01/31 13:37:36.6	0.580	-0.050	-1.160	-0.280
2020/01/31 13:37:36.7	0.630	-0.030	-1.230	-0.370
2020/01/31 13:37:36.8	0.680	-0.000	-1.290	-0.460
2020/01/31 13:37:36.9	0.740	0.020	-1.350	-0.550
2020/01/31 13:37:37.0	0.790	0.050	-1.400	-0.630
2020/01/31 13:37:37.1	0.850	0.080	-1.440	-0.710
2020/01/31 13:37:37.2	0.900	0.110	-1.470	-0.790
2020/01/31 13:37:37.3	0.960	0.140	-1.500	-0.860
2020/01/31 13:37:37.4	1.010	0.170	-1.510	-0.930
2020/01/31 13:37:37.5	1.060	0.200	-1.520	-0.990
2020/01/31 13:37:37.6	1.120	0.230	-1.520	-1.050
2020/01/31 13:37:37.7	1.170	0.260	-1.510	-1.100
2020/01/31 13:37:37.8	1.220	0.290	-1.490	-1.150
2020/01/31 13:37:37.9	1.260	0.310	-1.460	-1.190
2020/01/31 13:37:38.0	1.310	0.340	-1.430	-1.230
2020/01/31 13:37:38.1	1.350	0.360	-1.390	-1.260
2020/01/31 13:37:38.2	1.400	0.380	-1.350	-1.280
2020/01/31 13:37:38.3	1.440	0.400	-1.300	-1.300
2020/01/31 13:37:38.4	1.480	0.410	-1.240	-1.320
2020/01/31 13:37:38.5	1.520	0.420	-1.180	-1.330
2020/01/31 13:37:38.6	1.560	0.430	-1.120	-1.340
2020/01/31 13:37:38.7	1.590	0.430	-1.060	-1.340
2020/01/31 13:37:38.8	1.620	0.430	-1.000	-1.340
2020/01/31 13:37:38.9	1.650	0.430	-0.930	-1.340
2020/01/31 13:37:39.0	1.680	0.420	-0.860	-1.340
2020/01/31 13:37:39.1	1.710	0.410	-0.800	-1.330
2020/01/31 13:37:39.2	1.740	0.400	-0.730	-1.320
2020/01/31 13:37:39.3	1.760	0.380	-0.660	-1.300
2020/01/31 13:37:39.4	1.790	0.360	-0.600	-1.280
2020/01/31 13:37:39.5	1.810	0.330	-0.530	-1.260
2020/01/31 13:37:39.6	1.820	0.300	-0.470	-1.240
2020/01/31 13:37:39.7	1.840	0.270	-0.410	-1.220
2020/01/31 13:37:39.8	1.850	0.240	-0.350	-1.190
2020/01/31 13:37:39.9	1.870	0.200	-0.300	-1.170
2020/01/31 13:37:40.0	1.890	0.170	-0.250	-1.140
2020/01/31 13:37:40.1	1.900	0.130	-0.200	-1.110
2020/01/31 13:37:40.2	1.920	0.080	-0.150	-1.080
2020/01/31 13:37:40.3	1.930	0.040	-0.110	-1.050
2020/01/31 13:37:40.4	1.940	-0.000	-0.060	-1.020
2020/01/31 13:37:40.5	1.960	-0.050	-0.030	-1.000
2020/01/31 13:37:40.6	1.950	-0.090	0.010	-0.970
2020/01/31 13:37:40.7	1.960	-0.130	0.040	-0.940
2020/01/31 13:37:40.8	1.970	-0.180	0.080	-0.910
2020/01/31 13:37:40.9	1.980	-0.220	0.110	-0.880
2020/01/31 13:37:41.0	1.990	-0.260	0.140	-0.850
2020/01/31 13:37:41.1	1.990	-0.290	0.170	-0.810
2020/01/31 13:37:41.2	1.990	-0.330	0.190	-0.780
2020/01/31 13:37:41.3	1.990	-0.360	0.220	-0.740
2020/01/31 13:37:41.4	1.980	-0.400	0.250	-0.710
2020/01/31 13:37:41.5	1.970	-0.420	0.280	-0.670
2020/01/31 13:37:41.6	1.950	-0.450	0.310	-0.620
2020/01/31 13:37:41.7	1.930	-0.470	0.340	-0.580
2020/01/31 13:37:41.8	1.910	-0.490	0.370	-0.530
2020/01/31 13:37:41.9	1.890	-0.510	0.400	-0.490
2020/01/31 13:37:42.0	1.870	-0.520	0.430	-0.440
2020/01/31 13:37:42.1	1.840	-0.520	0.460	-0.390
2020/01/31 13:37:42.2	1.810	-0.530	0.490	-0.340
2020/01/31 13:37:42.3	1.780	-0.530	0.520	-0.290
2020/01/31 13:37:42.4	1.750	-0.530	0.550	-0.250
2020/01/31 13:37:42.5	1.710	-0.520	0.580	-0.200
2020/01/31 13:37:42.6	1.670	-0.510	0.610	-0.150
2020/01/31 13:37:42.7	1.640	-0.500	0.630	-0.100
2020/01/31 13:37:42.8	1.600	-0.480	0.650	-0.050
2020/01/31 13:37:42.9	1.560	-0.460	0.660	0.000
2020/01/31 13:37:43.0	1.530	-0.430	0.680	0.050
2020/01/31 13:37:43.1	1.500	-0.410	0.680	0.090
2020/01/31 13:37:43.2	1.460	-0.370	0.690	0.130
2020/01/31 13:37:43.3	1.430	-0.340	0.690	0.180
2020/01/31 13:37:43.4	1.400	-0.310	0.680	0.220
2020/01/31 13:37:43.5	1.370	-0.270	0.670	0.260
2020/01/31 13:37:43.6	1.330	-0.230	0.650	0.290
2020/01/31 13:37:43.7	1.300	-0.190	0.630	0.330
2020/01/31 13:37:43.8	1.280	-0.140	0.610	0.370
2020/01/31 13:37:43.9	1.260	-0.100	0.580	0.410
2020/01/31 13:37:44.0	1.230	-0.050	0.550	0.450
2020/01/31 13:37:44.1	1.210	-0.010	0.510	0.480
2020/01/31 13:37:44.2	1.190	0.040	0.470	0.520
2020/01/31 13:37:44.3	1.170	0.080	0.430	0.550
2020/01/31 13:37:44.4	1.150	0.120	0.390	0.590
2020/01/31 13:37:44.5	1.130	0.170	0.350	0.620
2020/01/31 13:37:44.6	1.110	0.210	0.300	0.660
2020/01/31 13:37:44.7	1.080	0.250	0.250	0.690
2020/01/31 13:37:44.8	1.060	0.280	0.210	0.730
2020/01/31 13:37:44.9	1.040	0.320	0.160	0.760
2020/01/31 13:37:45.0	1.020	0.350	0.120	0.790
2020/01/31 13:37:45.1	1.000	0.370	0.070	0.820
2020/01/31 13:37:45.2	0.980	0.400	0.030	0.850
2020/01/31 13:37:45.3	0.950	0.420	-0.010	0.880
2020/01/31 13:37:45.4	0.930	0.430	-0.060	0.900
2020/01/31 13:37:45.5	0.910	0.450	-0.100	0.920
2020/01/31 13:37:45.6	0.900	0.460	-0.140	0.950
2020/01/31 13:37:45.7	0.880	0.460	-0.180	0.960
2020/01/31 13:37:45.8	0.860	0.460	-0.220	0.980
2020/01/31 13:37:45.9	0.840	0.460	-0.250	0.990
2020/01/31 13:37:46.0	0.820	0.450	-0.290	1.000
2020/01/31 13:37:46.1	0.810	0.440	-0.330	1.000
2020/01/31 13:37:46.2	0.790	0.430	-0.360	1.000
2020/01/31 13:37:46.3	0.780	0.410	-0.400	1.000
2020/01/31 13:37:46.4	0.770	0.390	-0.440	0.990
2020/01/31 13:37:46.5	0.760	0.370	-0.470	0.980
2020/01/31 13:37:46.6	0.760	0.350	-0.510	0.960
2020/01/31 13:37:46.7	0.750	0.320	-0.550	0.940
2020/01/31 13:37:46.8	0.750	0.290	-0.580	0.920
2020/01/31 13:37:46.9	0.750	0.260	-0.620	0.890
2020/01/31 13:37:47.0	0.760	0.230	-0.660	0.850
2020/01/31 13:37:47.1	0.770	0.200	-0.690	0.810
2020/01/31 13:37:47.2	0.780	0.170	-0.730	0.770
2020/01/31 13:37:47.3	0.790	0.140	-0.760	0.720
2020/01/31 13:37:47.4	0.800	0.110	-0.790	0.670
2020/01/31 13:37:47.5	0.820	0.070	-0.830	0.610
2020/01/31 13:37:47.6	0.850	0.040	-0.860	0.550
2020/01/31 13:37:47.7	0.870	0.010	-0.880	0.490
2020/01/31 13:37:47.8	0.890	-0.020	-0.910	0.430
2020/01/31 13:37:47.9	0.920	-0.050	-0.930	0.360
2020/01/31 13:37:48.0	0.940	-0.080	-0.950	0.290
2020/01/31 13:37:48.1	0.970	-0.110	-0.960	0.230
2020/01/31 13:37:48.2	0.990	-0.130	-0.970	0.160
2020/01/31 13:37:48.3	1.020	-0.160	-0.980	0.080
2020/01/31 13:37:48.4	1.040	-0.180	-0.990	0.010
2020/01/31 13:37:48.5	1.070	-0.200	-0.980	-0.060
2020/01/31 13:37:48.6	1.090	-0.220	-0.980	-0.140
2020/01/31 13:37:48.7	1.110	-0.240	-0.970	-0.210
2020/01/31 13:37:48.8	1.130	-0.260	-0.960	-0.280
2020/01/31 13:37:48.9	1.150	-0.270	-0.940	-0.350
2020/01/31 13:37:49.0	1.170	-0.290	-0.920	-0.430
2020/01/31 13:37:49.1	1.180	-0.300	-0.900	-0.500
2020/01/31 13:37:49.2	1.200	-0.310	-0.880	-0.570
2020/01/31 13:37:49.3	1.220	-0.320	-0.850	-0.640
2020/01/31 13:37:49.4	1.240	-0.330	-0.820	-0.710
2020/01/31 13:37:49.5	1.250	-0.330	-0.790	-0.780
2020/01/31 13:37:49.6	1.280	-0.340	-0.760	-0.850
2020/01/31 13:37:49.7	1.290	-0.340	-0.730	-0.920
2020/01/31 13:37:49.8	1.310	-0.340	-0.700	-0.990
2020/01/31 13:37:49.9	1.330	-0.330	-0.670	-1.050
2020/01/31 13:37:50.0	1.350	-0.330	-0.640	-1.110
2020/01/31 13:37:50.1	1.360	-0.320	-0.610	-1.170
2020/01/31 13:37:50.2	1.380	-0.310	-0.580	-1.220
2020/01/31 13:37:50.3	1.400	-0.290	-0.550	-1.270
2020/01/31 13:37:50.4	1.420	-0.280	-0.520	-1.320
2020/01/31 13:37:50.5	1.440	-0.260	-0.500	-1.360
2020/01/31 13:37:50.6	1.470	-0.240	-0.470	-1.400
2020/01/31 13:37:50.7	1.490	-0.220	-0.450	-1.440
2020/01/31 13:37:50.8	1.510	-0.190	-0.430	-1.480
2020/01/31 13:37:50.9	1.540	-0.160	-0.410	-1.510
2020/01/31 13:37:51.0	1.560	-0.140	-0.400	-1.540
2020/01/31 13:37:51.1	1.580	-0.100	-0.380	-1.560
2020/01/31 13:37:51.2	1.610	-0.070	-0.370	-1.580
2020/01/31 13:37:51.3	1.630	-0.040	-0.360	-1.590
2020/01/31 13:37:51.4	1.650	-0.010	-0.350	-1.600
2020/01/31 13:37:51.5	1.670	0.030	-0.340	-1.610
2020/01/31 13:37:51.6	1.680	0.060	-0.330	-1.610
2020/01/31 13:37:51.7	1.700	0.100	-0.320	-1.610
2020/01/31 13:37:51.8	1.720	0.130	-0.300	-1.600
2020/01/31 13:37:51.9	1.740	0.170	-0.290	-1.590
2020/01/31 13:37:52.0	1.750	0.200	-0.280	-1.570
2020/01/31 13:37:52.1	1.770	0.230	-0.270	-1.550
2020/01/31 13:37:52.2	1.780	0.270	-0.250	-1.520
2020/01/31 13:37:52.3	1.790	0.300	-0.230	-1.490
2020/01/31 13:37:52.4	1.800	0.320	-0.210	-1.450
2020/01/31 13:37:52.5	1.810	0.350	-0.190	-1.410
2020/01/31 13:37:52.6	1.820	0.370	-0.170	-1.360
2020/01/31 13:37:52.7	1.830	0.400	-0.140	-1.310
2020/01/31 13:37:52.8	1.830	0.410	-0.120	-1.250
2020/01/31 13:37:52.9	1.830	0.430	-0.080	-1.190
2020/01/31 13:37:53.0	1.830	0.440	-0.050	-1.130
2020/01/31 13:37:53.1	1.830	0.460	-0.020	-1.060
2020/01/31 13:37:53.2	1.830	0.460	0.020	-0.990
2020/01/31 13:37:53.3	1.820	0.470	0.060	-0.910
2020/01/31 13:37:53.4	1.810	0.470	0.100	-0.830
2020/01/31 13:37:53.5	1.800	0.470	0.140	-0.740
2020/01/31 13:37:53.6	1.770	0.460	0.180	-0.650
2020/01/31 13:37:53.7	1.750	0.450	0.220	-0.560
2020/01/31 13:37:53.8	1.730	0.440	0.260	-0.470
2020/01/31 13:37:53.9	1.700	0.430	0.310	-0.370
2020/01/31 13:37:54.0	1.670	0.410	0.350	-0.270
2020/01/31 13:37:54.1	1.640	0.390	0.390	-0.170
2020/01/31 13:37:54.2	1.600	0.360	0.430	-0.080
2020/01/31 13:37:54.3	1.560	0.340	0.470	0.020
2020/01/31 13:37:54.4	1.520	0.310	0.500	0.120
2020/01/31 13:37:54.5	1.480	0.280	0.530	0.220
2020/01/31 13:37:54.6	1.420	0.250	0.560	0.310
2020/01/31 13:37:54.7	1.380	0.210	0.580	0.400
2020/01/31 13:37:54.8	1.330	0.180	0.600	0.490
2020/01/31 13:37:54.9	1.280	0.140	0.610	0.570
2020/01/31 13:37:55.0	1.240	0.100	0.620	0.640
2020/01/31 13:37:55.1	1.190	0.060	0.620	0.710
2020/01/31 13:37:55.2	1.150	0.030	0.620	0.780
2020/01/31 13:37:55.3	1.100	-0.010	0.610	0.830
2020/01/31 13:37:55.4	1.060	-0.050	0.590	0.880
2020/01/31 13:37:55.5	1.020	-0.080	0.570	0.930
2020/01/31 13:37:55.6	0.980	-0.120	0.540	0.960
2020/01/31 13:37:55.7	0.940	-0.150	0.510	0.990
2020/01/31 13:37:55.8	0.900	-0.180	0.460	1.010
2020/01/31 13:37:55.9	0.870	-0.200	0.420	1.030
2020/01/31 13:37:56.0	0.840	-0.230	0.360	1.030
2020/01/31 13:37:56.1	0.820	-0.250	0.300	1.030
2020/01/31 13:37:56.2	0.790	-0.270	0.240	1.030
2020/01/31 13:37:56.3	0.770	-0.290	0.170	1.010
2020/01/31 13:37:56.4	0.750	-0.300	0.100	0.990
2020/01/31 13:37:56.5	0.740	-0.310	0.020	0.970
2020/01/31 13:37:56.6	0.740	-0.320	-0.060	0.940
2020/01/31 13:37:56.7	0.730	-0.320	-0.130	0.900
2020/01/31 13:37:56.8	0.720	-0.320	-0.210	0.860
2020/01/31 13:37:56.9	0.720	-0.320	-0.290	0.820
2020/01/31 13:37:57.0	0.710	-0.310	-0.370	0.770
2020/01/31 13:37:57.1	0.710	-0.300	-0.440	0.730
2020/01/31 13:37:57.2	0.710	-0.290	-0.510	0.680
2020/01/31 13:37:57.3	0.710	-0.270	-0.580	0.630
2020/01/31 13:37:57.4	0.720	-0.260	-0.640	0.580
2020/01/31 13:37:57.5	0.720	-0.240	-0.700	0.530
2020/01/31 13:37:57.6	0.740	-0.210	-0.760	0.480
2020/01/31 13:37:57.7	0.750	-0.190	-0.810	0.430
2020/01/31 13:37:57.8	0.760	-0.160	-0.850	0.380
2020/01/31 13:37:57.9	0.770	-0.140	-0.880	0.330
2020/01/31 13:37:58.0	0.790	-0.110	-0.910	0.280
2020/01/31 13:37:58.1	0.800	-0.080	-0.940	0.230
2020/01/31 13:37:58.2	0.820	-0.050	-0.950	0.190
2020/01/31 13:37:58.3	0.840	-0.030	-0.960	0.140
2020/01/31 13:37:58.4	0.860	0.000	-0.970	0.100
2020/01/31 13:37:58.5	0.880	0.030	-0.960	0.060
2020/01/31 13:37:58.6	0.910	0.060	-0.960	0.020
2020/01/31 13:37:58.7	0.930	0.080	-0.940	-0.020
2020/01/31 13:37:58.8	0.950	0.100	-0.920	-0.050
2020/01/31 13:37:58.9	0.980	0.130	-0.890	-0.080
2020/01/31 13:37:59.0	1.000	0.150	-0.860	-0.110
2020/01/31 13:37:59.1	1.020	0.170	-0.830	-0.130
2020/01/31 13:37:59.2	1.050	0.180	-0.790	-0.160
2020/01/31 13:37:59.3	1.070	0.200	-0.740	-0.180
2020/01/31 13:37:59.4	1.090	0.210	-0.700	-0.190
2020/01/31 13:37:59.5	1.110	0.220	-0.650	-0.200
2020/01/31 13:37:59.6	1.130	0.230	-0.600	-0.210
2020/01/31 13:37:59.7	1.140	0.230	-0.550	-0.220
2020/01/31 13:37:59.8	1.160	0.230	-0.500	-0.220
2020/01/31 13:37:59.9	1.170	0.230	-0.450	-0.220
2020/01/31 13:38:00.0	1.180	0.230	-0.400	-0.220
2020/01/31 13:38:00.1	1.190	0.220	-0.350	-0.220
2020/01/31 13:38:00.2	1.200	0.210	-0.300	-0.220
2020/01/31 13:38:00.3	1.210	0.200	-0.260	-0.210
2020/01/31 13:38:00.4	1.210	0.190	-0.220	-0.210
2020/01/31 13:38:00.5	1.220	0.180	-0.180	-0.200
2020/01/31 13:38:00.6	1.220	0.160	-0.150	-0.200
2020/01/31 13:38:00.7	1.230	0.150	-0.120	-0.200
2020/01/31 13:38:00.8	1.230	0.130	-0.090	-0.190
2020/01/31 13:38:00.9	1.240	0.110	-0.060	-0.190
2020/01/31 13:38:01.0	1.240	0.090	-0.040	-0.180
2020/01/31 13:38:01.1	1.250	0.070	-0.020	-0.180
2020/01/31 13:38:01.2	1.260	0.050	-0.010	-0.180
2020/01/31 13:38:01.3	1.260	0.030	-0.000	-0.180
2020/01/31 13:38:01.4	1.270	0.010	0.010	-0.180
2020/01/31 13:38:01.5	1.270	-0.010	0.010	-0.180
2020/01/31 13:38:01.6	1.280	-0.040	0.010	-0.180
2020/01/31 13:38:01.7	1.290	-0.060	0.000	-0.180
2020/01/31 13:38:01.8	1.290	-0.080	-0.000	-0.180
2020/01/31 13:38:01.9	1.300	-0.100	-0.010	-0.190
2020/01/31 13:38:02.0	1.300	-0.120	-0.020	-0.190
2020/01/31 13:38:02.1	1.310	-0.130	-0.030	-0.200
2020/01/31 13:38:02.2	1.310	-0.150	-0.040	-0.210
2020/01/31 13:38:02.3	1.310	-0.170	-0.060	-0.210
2020/01/31 13:38:02.4	1.320	-0.180	-0.080	-0.220
2020/01/31 13:38:02.5	1.320	-0.200	-0.090	-0.230
2020/01/31 13:38:02.6	1.320	-0.210	-0.110	-0.240
2020/01/31 13:38:02.7	1.320	-0.220	-0.130	-0.250
2020/01/31 13:38:02.8	1.320	-0.230	-0.150	-0.270
2020/01/31 13:38:02.9	1.320	-0.240	-0.170	-0.280
2020/01/31 13:38:03.0	1.320	-0.250	-0.190	-0.290
2020/01/31 13:38:03.1	1.320	-0.260	-0.210	-0.300
2020/01/31 13:38:03.2	1.320	-0.260	-0.230	-0.320
2020/01/31 13:38:03.3	1.320	-0.260	-0.250	-0.330
2020/01/31 13:38:03.4	1.320	-0.270	-0.280	-0.340
2020/01/31 13:38:03.5	1.320	-0.270	-0.300	-0.360
2020/01/31 13:38:03.6	1.320	-0.260	-0.320	-0.370
2020/01/31 13:38:03.7	1.310	-0.260	-0.330	-0.380
2020/01/31 13:38:03.8	1.310	-0.250	-0.350	-0.400
2020/01/31 13:38:03.9	1.310	-0.250	-0.370	-0.410
2020/01/31 13:38:04.0	1.300	-0.240	-0.380	-0.420
2020/01/31 13:38:04.1	1.290	-0.230	-0.390	-0.430
2020/01/31 13:38:04.2	1.290	-0.220	-0.400	-0.440
2020/01/31 13:38:04.3	1.280	-0.210	-0.410	-0.450
2020/01/31 13:38:04.4	1.270	-0.200	-0.420	-0.460
2020/01/31 13:38:04.5	1.260	-0.180	-0.420	-0.460
2020/01/31 13:38:04.6	1.250	-0.170	-0.420	-0.470
2020/01/31 13:38:04.7	1.240	-0.160	-0.420	-0.470
2020/01/31 13:38:04.8	1.220	-0.140	-0.420	-0.470
2020/01/31 13:38:04.9	1.210	-0.130	-0.420	-0.460
2020/01/31 13:38:05.0	1.200	-0.110	-0.410	-0.460
2020/01/31 13:38:05.1	1.180	-0.100	-0.410	-0.450
2020/01/31 13:38:05.2	1.170	-0.080	-0.400	-0.440
2020/01/31 13:38:05.3	1.150	-0.070	-0.390	-0.430
2020/01/31 13:38:05.4	1.140	-0.050	-0.380	-0.420
2020/01/31 13:38:05.5	1.130	-0.040	-0.370	-0.410
2020/01/31 13:38:05.6	1.120	-0.020	-0.360	-0.390
2020/01/31 13:38:05.7	1.110	-0.010	-0.350	-0.380
2020/01/31 13:38:05.8	1.100	0.000	-0.330	-0.360
2020/01/31 13:38:05.9	1.090	0.020	-0.310	-0.350
2020/01/31 13:38:06.0	1.080	0.030	-0.300	-0.330
2020/01/31 13:38:06.1	1.070	0.040	-0.280	-0.320
2020/01/31 13:38:06.2	1.060	0.050	-0.270	-0.300
2020/01/31 13:38:06.3	1.050	0.060	-0.250	-0.290
2020/01/31 13:38:06.4	1.050	0.070	-0.240	-0.270
2020/01/31 13:38:06.5	1.040	0.080	-0.230	-0.250
2020/01/31 13:38:06.6	1.040	0.090	-0.210	-0.240
2020/01/31 13:38:06.7	1.040	0.100	-0.200	-0.220
2020/01/31 13:38:06.8	1.030	0.110	-0.190	-0.210
2020/01/31 13:38:06.9	1.030	0.120	-0.180	-0.200
2020/01/31 13:38:07.0	1.030	0.130	-0.170	-0.180
2020/01/31 13:38:07.1	1.030	0.130	-0.160	-0.170
2020/01/31 13:38:07.2	1.040	0.140	-0.150	-0.160
2020/01/31 13:38:07.3	1.040	0.150	-0.140	-0.150
2020/01/31 13:38:07.4	1.040	0.160	-0.140	-0.140
2020/01/31 13:38:07.5	1.050	0.160	-0.130	-0.130
2020/01/31 13:38:07.6	1.050	0.170	-0.130	-0.120
2020/01/31 13:38:07.7	1.050	0.180	-0.130	-0.110
2020/01/31 13:38:07.8	1.060	0.180	-0.130	-0.110
2020/01/31 13:38:07.9	1.070	0.190	-0.130	-0.100
2020/01/31 13:38:08.0	1.080	0.200	-0.130	-0.090
2020/01/31 13:38:08.1	1.080	0.200	-0.130	-0.090
2020/01/31 13:38:08.2	1.090	0.210	-0.130	-0.080
2020/01/31 13:38:08.3	1.100	0.220	-0.120	-0.070
2020/01/31 13:38:08.4	1.110	0.230	-0.120	-0.060
2020/01/31 13:38:08.5	1.120	0.240	-0.120	-0.050
2020/01/31 13:38:08.6	1.100	0.240	-0.120	-0.040
2020/01/31 13:38:08.7	1.110	0.250	-0.120	-0.020
2020/01/31 13:38:08.8	1.120	0.260	-0.120	-0.010
2020/01/31 13:38:08.9	1.120	0.270	-0.120	0.010
2020/01/31 13:38:09.0	1.130	0.280	-0.120	0.030
2020/01/31 13:38:09.1	1.130	0.290	-0.120	0.050
2020/01/31 13:38:09.2	1.140	0.300	-0.110	0.080
2020/01/31 13:38:09.3	1.140	0.310	-0.110	0.110
2020/01/31 13:38:09.4	1.130	0.320	-0.110	0.140
2020/01/31 13:38:09.5	1.130	0.330	-0.100	0.170
2020/01/31 13:38:09.6	1.140	0.340	-0.100	0.210
2020/01/31 13:38:09.7	1.130	0.340	-0.100	0.260
2020/01/31 13:38:09.8	1.120	0.350	-0.090	0.300
2020/01/31 13:38:09.9	1.110	0.360	-0.080	0.340
2020/01/31 13:38:10.0	1.100	0.360	-0.080	0.390
2020/01/31 13:38:10.1	1.090	0.370	-0.070	0.440
2020/01/31 13:38:10.2	1.080	0.370	-0.060	0.490
2020/01/31 13:38:10.3	1.060	0.370	-0.060	0.530
2020/01/31 13:38:10.4	1.050	0.370	-0.050	0.580
2020/01/31 13:38:10.5	1.030	0.370	-0.050	0.620
2020/01/31 13:38:10.6	1.010	0.360	-0.050	0.670
2020/01/31 13:38:10.7	1.000	0.360	-0.040	0.710
2020/01/31 13:38:10.8	0.980	0.350	-0.040	0.740
2020/01/31 13:38:10.9	0.970	0.340	-0.040	0.780
2020/01/31 13:38:11.0	0.960	0.330	-0.050	0.800
2020/01/31 13:38:11.1	0.940	0.320	-0.050	0.830
2020/01/31 13:38:11.2	0.930	0.300	-0.060	0.840
2020/01/31 13:38:11.3	0.920	0.290	-0.060	0.860
2020/01/31 13:38:11.4	0.920	0.270	-0.070	0.860
2020/01/31 13:38:11.5	0.910	0.250	-0.080	0.870
2020/01/31 13:38:11.6	0.890	0.230	-0.090	0.860
2020/01/31 13:38:11.7	0.890	0.210	-0.110	0.860
2020/01/31 13:38:11.8	0.880	0.180	-0.120	0.850
2020/01/31 13:38:11.9	0.870	0.160	-0.130	0.830
2020/01/31 13:38:12.0	0.860	0.130	-0.150	0.810
2020/01/31 13:38:12.1	0.850	0.100	-0.160	0.790
2020/01/31 13:38:12.2	0.840	0.070	-0.170	0.770
2020/01/31 13:38:12.3	0.840	0.040	-0.190	0.740
2020/01/31 13:38:12.4	0.830	0.000	-0.200	0.710
2020/01/31 13:38:12.5	0.820	-0.030	-0.210	0.680
2020/01/31 13:38:12.6	0.820	-0.070	-0.220	0.640
2020/01/31 13:38:12.7	0.810	-0.100	-0.230	0.610
2020/01/31 13:38:12.8	0.800	-0.140	-0.240	0.560
2020/01/31 13:38:12.9	0.800	-0.180	-0.250	0.520
2020/01/31 13:38:13.0	0.790	-0.220	-0.250	0.480
2020/01/31 13:38:13.1	0.790	-0.260	-0.260	0.430
2020/01/31 13:38:13.2	0.780	-0.300	-0.260	0.370
2020/01/31 13:38:13.3	0.780	-0.330	-0.270	0.320
2020/01/31 13:38:13.4	0.780	-0.370	-0.270	0.260
2020/01/31 13:38:13.5	0.790	-0.410	-0.270	0.200
2020/01/31 13:38:13.6	0.810	-0.450	-0.270	0.130
2020/01/31 13:38:13.7	0.810	-0.480	-0.280	0.070
2020/01/31 13:38:13.8	0.820	-0.520	-0.280	-0.000
2020/01/31 13:38:13.9	0.830	-0.550	-0.280	-0.070
2020/01/31 13:38:14.0	0.840	-0.580	-0.280	-0.150
2020/01/31 13:38:14.1	0.860	-0.610	-0.280	-0.220
2020/01/31 13:38:14.2	0.880	-0.630	-0.290	-0.300
2020/01/31 13:38:14.3	0.890	-0.660	-0.290	-0.380
2020/01/31 13:38:14.4	0.910	-0.680	-0.290	-0.450
2020/01/31 13:38:14.5	0.930	-0.700	-0.300	-0.530
2020/01/31 13:38:14.6	0.970	-0.710	-0.310	-0.610
2020/01/31 13:38:14.7	1.000	-0.720	-0.310	-0.690
2020/01/31 13:38:14.8	1.020	-0.730	-0.320	-0.760
2020/01/31 13:38:14.9	1.050	-0.740	-0.330	-0.830
2020/01/31 13:38:15.0	1.070	-0.740	-0.340	-0.900
2020/01/31 13:38:15.1	1.100	-0.740	-0.350	-0.970
2020/01/31 13:38:15.2	1.130	-0.730	-0.350	-1.030
2020/01/31 13:38:15.3	1.160	-0.720	-0.360	-1.090
2020/01/31 13:38:15.4	1.190	-0.710	-0.380	-1.150
2020/01/31 13:38:15.5	1.220	-0.690	-0.390	-1.210
2020/01/31 13:38:15.6	1.240	-0.670	-0.400	-1.250
2020/01/31 13:38:15.7	1.270	-0.650	-0.410	-1.300
2020/01/31 13:38:15.8	1.290	-0.620	-0.420	-1.340
2020/01/31 13:38:15.9	1.320	-0.590	-0.430	-1.380
2020/01/31 13:38:16.0	1.340	-0.560	-0.440	-1.410
2020/01/31 13:38:16.1	1.370	-0.530	-0.450	-1.440
2020/01/31 13:38:16.2	1.390	-0.490	-0.450	-1.460
2020/01/31 13:38:16.3	1.410	-0.450	-0.460	-1.480
2020/01/31 13:38:16.4	1.420	-0.400	-0.460	-1.490
2020/01/31 13:38:16.5	1.440	-0.360	-0.470	-1.500
2020/01/31 13:38:16.6	1.460	-0.310	-0.470	-1.510
2020/01/31 13:38:16.7	1.470	-0.260	-0.470	-1.510
2020/01/31 13:38:16.8	1.480	-0.210	-0.470	-1.500
2020/01/31 13:38:16.9	1.490	-0.150	-0.470	-1.490
2020/01/31 13:38:17.0	1.490	-0.100	-0.460	-1.480
2020/01/31 13:38:17.1	1.500	-0.040	-0.450	-1.460
2020/01/31 13:38:17.2	1.500	0.010	-0.440	-1.430
2020/01/31 13:38:17.3	1.500	0.070	-0.430	-1.400
2020/01/31 13:38:17.4	1.500	0.120	-0.410	-1.360
2020/01/31 13:38:17.5	1.500	0.180	-0.400	-1.320
2020/01/31 13:38:17.6	1.490	0.230	-0.380	-1.270
2020/01/31 13:38:17.7	1.480	0.290	-0.360	-1.210
2020/01/31 13:38:17.8	1.470	0.340	-0.340	-1.160
2020/01/31 13:38:17.9	1.460	0.390	-0.320	-1.100
2020/01/31 13:38:18.0	1.450	0.430	-0.300	-1.040
2020/01/31 13:38:18.1	1.440	0.480	-0.280	-0.970
2020/01/31 13:38:18.2	1.420	0.520	-0.270	-0.900
2020/01/31 13:38:18.3	1.400	0.550	-0.250	-0.830
2020/01/31 13:38:18.4	1.390	0.590	-0.230	-0.760
2020/01/31 13:38:18.5	1.370	0.620	-0.210	-0.690
2020/01/31 13:38:18.6	1.350	0.640	-0.200	-0.620
2020/01/31 13:38:18.7	1.330	0.670	-0.190	-0.550
2020/01/31 13:38:18.8	1.310	0.680	-0.180	-0.480
2020/01/31 13:38:18.9	1.290	0.700	-0.170	-0.420
2020/01/31 13:38:19.0	1.270	0.700	-0.160	-0.350
2020/01/31 13:38:19.1	1.250	0.710	-0.160	-0.290
2020/01/31 13:38:19.2	1.230	0.710	-0.150	-0.230
2020/01/31 13:38:19.3	1.210	0.700	-0.150	-0.180
2020/01/31 13:38:19.4	1.190	0.690	-0.160	-0.130
2020/01/31 13:38:19.5	1.170	0.680	-0.160	-0.080
2020/01/31 13:38:19.6	1.150	0.660	-0.170	-0.030
2020/01/31 13:38:19.7	1.140	0.640	-0.180	0.010
2020/01/31 13:38:19.8	1.120	0.610	-0.190	0.050
2020/01/31 13:38:19.9	1.100	0.580	-0.200	0.080
2020/01/31 13:38:20.0	1.080	0.550	-0.210	0.110
2020/01/31 13:38:20.1	1.070	0.510	-0.230	0.140
2020/01/31 13:38:20.2	1.050	0.470	-0.240	0.160
2020/01/31 13:38:20.3	1.040	0.430	-0.260	0.180
2020/01/31 13:38:20.4	1.030	0.390	-0.270	0.190
2020/01/31 13:38:20.5	1.020	0.350	-0.290	0.200
2020/01/31 13:38:20.6	1.000	0.300	-0.310	0.210
2020/01/31 13:38:20.7	0.990	0.250	-0.330	0.210
2020/01/31 13:38:20.8	0.990	0.210	-0.340	0.210
2020/01/31 13:38:20.9	0.980	0.160	-0.360	0.210
2020/01/31 13:38:21.0	0.980	0.110	-0.380	0.200
2020/01/31 13:38:21.1	0.980	0.070	-0.390	0.190
2020/01/31 13:38:21.2	0.980	0.030	-0.410	0.180
2020/01/31 13:38:21.3	0.980	-0.020	-0.420	0.160
2020/01/31 13:38:21.4	0.980	-0.060	-0.430	0.150
2020/01/31 13:38:21.5	0.990	-0.090	-0.440	0.130
2020/01/31 13:38:21.6	0.990	-0.130	-0.440	0.100
2020/01/31 13:38:21.7	1.000	-0.160	-0.440	0.080
2020/01/31 13:38:21.8	1.010	-0.190	-0.440	0.060
2020/01/31 13:38:21.9	1.020	-0.210	-0.440	0.050
2020/01/31 13:38:22.0	1.030	-0.230	-0.430	0.030
2020/01/31 13:38:22.1	1.040	-0.250	-0.420	0.010
2020/01/31 13:38:22.2	1.060	-0.260	-0.410	0.000
2020/01/31 13:38:22.3	1.070	-0.270	-0.390	-0.010
2020/01/31 13:38:22.4	1.080	-0.270	-0.380	-0.020
2020/01/31 13:38:22.5	1.100	-0.270	-0.360	-0.020
2020/01/31 13:38:22.6	1.110	-0.260	-0.340	-0.030
2020/01/31 13:38:22.7	1.130	-0.260	-0.320	-0.030
2020/01/31 13:38:22.8	1.140	-0.240	-0.290	-0.030
2020/01/31 13:38:22.9	1.160	-0.230	-0.270	-0.030
2020/01/31 13:38:23.0	1.180	-0.210	-0.240	-0.020
2020/01/31 13:38:23.1	1.200	-0.190	-0.220	-0.010
2020/01/31 13:38:23.2	1.220	-0.170	-0.190	-0.000
2020/01/31 13:38:23.3	1.240	-0.150	-0.170	0.010
2020/01/31 13:38:23.4	1.250	-0.120	-0.150	0.020
2020/01/31 13:38:23.5	1.270	-0.100	-0.130	0.040
2020/01/31 13:38:23.6	1.280	-0.070	-0.100	0.060
2020/01/31 13:38:23.7	1.290	-0.040	-0.080	0.070
2020/01/31 13:38:23.8	1.310	-0.020	-0.070	0.090
2020/01/31 13:38:23.9	1.330	0.000	-0.050	0.110
2020/01/31 13:38:24.0	1.340	0.030	-0.040	0.120
2020/01/31 13:38:24.1	1.360	0.050	-0.030	0.140
2020/01/31 13:38:24.2	1.370	0.070	-0.020	0.150
2020/01/31 13:38:24.3	1.390	0.090	-0.010	0.170
2020/01/31 13:38:24.4	1.400	0.100	-0.000	0.190
2020/01/31 13:38:24.5	1.420	0.120	0.000	0.200
2020/01/31 13:38:24.6	1.430	0.130	0.000	0.220
2020/01/31 13:38:24.7	1.440	0.130	0.000	0.230
2020/01/31 13:38:24.8	1.450	0.140	0.000	0.240
2020/01/31 13:38:24.9	1.470	0.140	0.010	0.250
2020/01/31 13:38:25.0	1.480	0.130	0.000	0.260
2020/01/31 13:38:25.1	1.490	0.130	0.000	0.270
2020/01/31 13:38:25.2	1.500	0.120	0.000	0.280
2020/01/31 13:38:25.3	1.510	0.110	0.010	0.290
2020/01/31 13:38:25.4	1.520	0.090	0.010	0.290
2020/01/31 13:38:25.5	1.530	0.070	0.010	0.300
2020/01/31 13:38:25.6	1.520	0.050	0.010	0.300
2020/01/31 13:38:25.7	1.520	0.030	0.010	0.310
2020/01/31 13:38:25.8	1.520	0.000	0.010	0.310
2020/01/31 13:38:25.9	1.520	-0.030	0.020	0.310
2020/01/31 13:38:26.0	1.520	-0.060	0.030	0.310
2020/01/31 13:38:26.1	1.510	-0.090	0.030	0.310
2020/01/31 13:38:26.2	1.500	-0.120	0.040	0.310
2020/01/31 13:38:26.3	1.490	-0.160	0.050	0.310
2020/01/31 13:38:26.4	1.480	-0.190	0.060	0.300
2020/01/31 13:38:26.5	1.460	-0.230	0.060	0.290
2020/01/31 13:38:26.6	1.450	-0.260	0.080	0.280
2020/01/31 13:38:26.7	1.430	-0.290	0.080	0.270
2020/01/31 13:38:26.8	1.410	-0.330	0.090	0.260
2020/01/31 13:38:26.9	1.390	-0.360	0.100	0.240
2020/01/31 13:38:27.0	1.370	-0.390	0.100	0.230
2020/01/31 13:38:27.1	1.350	-0.410	0.100	0.210
2020/01/31 13:38:27.2	1.320	-0.440	0.110	0.190
2020/01/31 13:38:27.3	1.290	-0.460	0.110	0.170
2020/01/31 13:38:27.4	1.270	-0.480	0.110	0.150
2020/01/31 13:38:27.5	1.230	-0.490	0.110	0.130
2020/01/31 13:38:27.6	1.220	-0.500	0.100	0.110
2020/01/31 13:38:27.7	1.190	-0.510	0.100	0.080
2020/01/31 13:38:27.8	1.150	-0.510	0.090	0.060
2020/01/31 13:38:27.9	1.120	-0.510	0.090	0.030
2020/01/31 13:38:28.0	1.090	-0.510	0.080	0.000
2020/01/31 13:38:28.1	1.050	-0.500	0.070	-0.020
2020/01/31 13:38:28.2	1.020	-0.480	0.050	-0.050
2020/01/31 13:38:28.3	0.980	-0.470	0.040	-0.080
2020/01/31 13:38:28.4	0.950	-0.440	0.020	-0.110
2020/01/31 13:38:28.5	0.910	-0.410	0.000	-0.130
2020/01/31 13:38:28.6	0.880	-0.380	-0.020	-0.160
2020/01/31 13:38:28.7	0.840	-0.350	-0.040	-0.180
2020/01/31 13:38:28.8	0.810	-0.310	-0.060	-0.210
2020/01/31 13:38:28.9	0.770	-0.260	-0.090	-0.230
2020/01/31 13:38:29.0	0.740	-0.220	-0.120	-0.250
2020/01/31 13:38:29.1	0.700	-0.170	-0.150	-0.270
2020/01/31 13:38:29.2	0.670	-0.120	-0.180	-0.290
2020/01/31 13:38:29.3	0.640	-0.070	-0.220	-0.300
2020/01/31 13:38:29.4	0.610	-0.010	-0.260	-0.320
2020/01/31 13:38:29.5	0.580	0.040	-0.300	-0.330
2020/01/31 13:38:29.6	0.550	0.100	-0.330	-0.350
2020/01/31 13:38:29.7	0.520	0.150	-0.380	-0.360
2020/01/31 13:38:29.8	0.500	0.200	-0.420	-0.380
2020/01/31 13:38:29.9	0.480	0.260	-0.470	-0.390
2020/01/31 13:38:30.0	0.460	0.310	-0.510	-0.410
2020/01/31 13:38:30.1	0.450	0.360	-0.560	-0.420
2020/01/31 13:38:30.2	0.440	0.400	-0.610	-0.440
2020/01/31 13:38:30.3	0.430	0.450	-0.650	-0.460
2020/01/31 13:38:30.4	0.420	0.490	-0.700	-0.480
2020/01/31 13:38:30.5	0.420	0.520	-0.740	-0.500
2020/01/31 13:38:30.6	0.430	0.550	-0.790	-0.510
2020/01/31 13:38:30.7	0.430	0.580	-0.840	-0.530
2020/01/31 13:38:30.8	0.440	0.600	-0.880	-0.550
2020/01/31 13:38:30.9	0.450	0.620	-0.920	-0.580
2020/01/31 13:38:31.0	0.460	0.630	-0.960	-0.600
2020/01/31 13:38:31.1	0.470	0.640	-0.990	-0.620
2020/01/31 13:38:31.2	0.480	0.640	-1.030	-0.650
2020/01/31 13:38:31.3	0.500	0.640	-1.060	-0.670
2020/01/31 13:38:31.4	0.520	0.630	-1.080	-0.690
2020/01/31 13:38:31.5	0.550	0.620	-1.110	-0.720
2020/01/31 13:38:31.6	0.570	0.600	-1.130	-0.740
2020/01/31 13:38:31.7	0.600	0.580	-1.150	-0.770
2020/01/31 13:38:31.8	0.630	0.550	-1.160	-0.790
2020/01/31 13:38:31.9	0.670	0.520	-1.170	-0.820
2020/01/31 13:38:32.0	0.710	0.490	-1.180	-0.840
2020/01/31 13:38:32.1	0.750	0.450	-1.180	-0.870
2020/01/31 13:38:32.2	0.790	0.410	-1.180	-0.890
2020/01/31 13:38:32.3	0.840	0.370	-1.170	-0.910
2020/01/31 13:38:32.4	0.880	0.320	-1.160	-0.940
2020/01/31 13:38:32.5	0.930	0.280	-1.140	-0.960
2020/01/31 13:38:32.6	0.990	0.230	-1.120	-0.980
2020/01/31 13:38:32.7	1.050	0.180	-1.100	-1.000
2020/01/31 13:38:32.8	1.100	0.130	-1.070	-1.020
2020/01/31 13:38:32.9	1.150	0.080	-1.030	-1.040
2020/01/31 13:38:33.0	1.200	0.030	-0.990	-1.050
2020/01/31 13:38:33.1	1.250	-0.020	-0.940	-1.060
2020/01/31 13:38:33.2	1.300	-0.070	-0.890	-1.070
2020/01/31 13:38:33.3	1.350	-0.120	-0.830	-1.080
2020/01/31 13:38:33.4	1.400	-0.170	-0.760	-1.080
2020/01/31 13:38:33.5	1.440	-0.210	-0.690	-1.080
2020/01/31 13:38:33.6	1.480	-0.250	-0.620	-1.080
2020/01/31 13:38:33.7	1.510	-0.290	-0.540	-1.070
2020/01/31 13:38:33.8	1.550	-0.330	-0.460	-1.060
2020/01/31 13:38:33.9	1.570	-0.360	-0.370	-1.040
2020/01/31 13:38:34.0	1.600	-0.390	-0.280	-1.010
2020/01/31 13:38:34.1	1.620	-0.420	-0.180	-0.980
2020/01/31 13:38:34.2	1.630	-0.440	-0.090	-0.950
2020/01/31 13:38:34.3	1.640	-0.460	0.010	-0.910
2020/01/31 13:38:34.4	1.650	-0.480	0.110	-0.870
2020/01/31 13:38:34.5	1.650	-0.490	0.210	-0.820
2020/01/31 13:38:34.6	1.640	-0.500	0.300	-0.770
2020/01/31 13:38:34.7	1.640	-0.500	0.390	-0.710
2020/01/31 13:38:34.8	1.640	-0.510	0.480	-0.660
2020/01/31 13:38:34.9	1.630	-0.500	0.570	-0.600
2020/01/31 13:38:35.0	1.620	-0.500	0.650	-0.540
2020/01/31 13:38:35.1	1.610	-0.490	0.730	-0.470
2020/01/31 13:38:35.2	1.600	-0.480	0.800	-0.410
2020/01/31 13:38:35.3	1.580	-0.470	0.870	-0.340
2020/01/31 13:38:35.4	1.570	-0.450	0.920	-0.270
2020/01/31 13:38:35.5	1.550	-0.430	0.970	-0.200
2020/01/31 13:38:35.6	1.530	-0.410	1.010	-0.130
2020/01/31 13:38:35.7	1.510	-0.390	1.050	-0.060
2020/01/31 13:38:35.8	1.480	-0.360	1.070	0.010
2020/01/31 13:38:35.9	1.450	-0.340	1.090	0.080
2020/01/31 13:38:36.0	1.420	-0.310	1.100	0.160
2020/01/31 13:38:36.1	1.390	-0.290	1.100	0.230
2020/01/31 13:38:36.2	1.350	-0.260	1.090	0.300
2020/01/31 13:38:36.3	1.310	-0.230	1.080	0.370
2020/01/31 13:38:36.4	1.280	-0.200	1.050	0.440
2020/01/31 13:38:36.5	1.230	-0.180	1.020	0.510
2020/01/31 13:38:36.6	1.170	-0.150	0.980	0.570
2020/01/31 13:38:36.7	1.130	-0.120	0.940	0.640
2020/01/31 13:38:36.8	1.090	-0.100	0.890	0.690
2020/01/31 13:38:36.9	1.040	-0.070	0.830	0.750
2020/01/31 13:38:37.0	1.000	-0.050	0.770	0.800
2020/01/31 13:38:37.1	0.960	-0.030	0.700	0.840
2020/01/31 13:38:37.2	0.910	-0.000	0.630	0.880
2020/01/31 13:38:37.3	0.870	0.020	0.550	0.920
2020/01/31 13:38:37.4	0.830	0.040	0.470	0.950
2020/01/31 13:38:37.5	0.790	0.060	0.390	0.970
2020/01/31 13:38:37.6	0.750	0.080	0.300	0.990
2020/01/31 13:38:37.7	0.720	0.090	0.210	1.010
2020/01/31 13:38:37.8	0.690	0.110	0.120	1.020
2020/01/31 13:38:37.9	0.660	0.130	0.030	1.020
2020/01/31 13:38:38.0	0.630	0.140	-0.060	1.020
2020/01/31 13:38:38.1	0.610	0.160	-0.160	1.010
2020/01/31 13:38:38.2	0.590	0.170	-0.250	1.000
2020/01/31 13:38:38.3	0.570	0.190	-0.340	0.980
2020/01/31 13:38:38.4	0.550	0.200	-0.430	0.960
2020/01/31 13:38:38.5	0.540	0.210	-0.520	0.940
2020/01/31 13:38:38.6	0.530	0.230	-0.610	0.910
2020/01/31 13:38:38.7	0.520	0.240	-0.690	0.880
2020/01/31 13:38:38.8	0.510	0.250	-0.770	0.850
2020/01/31 13:38:38.9	0.510	0.270	-0.850	0.810
2020/01/31 13:38:39.0	0.510	0.280	-0.920	0.770
2020/01/31 13:38:39.1	0.510	0.290	-0.980	0.720
2020/01/31 13:38:39.2	0.510	0.300	-1.040	0.670
2020/01/31 13:38:39.3	0.510	0.320	-1.090	0.620
2020/01/31 13:38:39.4	0.520	0.330	-1.140	0.570
2020/01/31 13:38:39.5	0.530	0.330	-1.180	0.510
2020/01/31 13:38:39.6	0.550	0.340	-1.210	0.450
2020/01/31 13:38:39.7	0.560	0.350	-1.240	0.390
2020/01/31 13:38:39.8	0.570	0.360	-1.250	0.320
2020/01/31 13:38:39.9	0.580	0.360	-1.260	0.260
2020/01/31 13:38:40.0	0.600	0.360	-1.270	0.190
2020/01/31 13:38:40.1	0.620	0.360	-1.270	0.130
2020/01/31 13:38:40.2	0.630	0.360	-1.260	0.060
2020/01/31 13:38:40.3	0.650	0.360	-1.240	-0.010
2020/01/31 13:38:40.4	0.670	0.360	-1.210	-0.080
2020/01/31 13:38:40.5	0.700	0.350	-1.190	-0.150
2020/01/31 13:38:40.6	0.730	0.340	-1.150	-0.210
2020/01/31 13:38:40.7	0.750	0.330	-1.110	-0.280
2020/01/31 13:38:40.8	0.780	0.320	-1.070	-0.340
2020/01/31 13:38:40.9	0.800	0.300	-1.020	-0.410
2020/01/31 13:38:41.0	0.830	0.280	-0.970	-0.470
2020/01/31 13:38:41.1	0.860	0.260	-0.910	-0.530
2020/01/31 13:38:41.2	0.890	0.240	-0.860	-0.590
2020/01/31 13:38:41.3	0.920	0.220	-0.800	-0.640
2020/01/31 13:38:41.4	0.950	0.190	-0.740	-0.700
2020/01/31 13:38:41.5	0.980	0.160	-0.680	-0.750
2020/01/31 13:38:41.6	1.010	0.130	-0.620	-0.810
2020/01/31 13:38:41.7	1.040	0.100	-0.570	-0.860
2020/01/31 13:38:41.8	1.080	0.070	-0.510	-0.900
2020/01/31 13:38:41.9	1.110	0.030	-0.450	-0.950
2020/01/31 13:38:42.0	1.140	-0.000	-0.400	-0.990
2020/01/31 13:38:42.1	1.170	-0.040	-0.350	-1.040
2020/01/31 13:38:42.2	1.200	-0.080	-0.300	-1.080
2020/01/31 13:38:42.3	1.230	-0.120	-0.250	-1.120
2020/01/31 13:38:42.4	1.260	-0.160	-0.210	-1.150
2020/01/31 13:38:42.5	1.290	-0.200	-0.170	-1.190
2020/01/31 13:38:42.6	1.320	-0.240	-0.130	-1.220
2020/01/31 13:38:42.7	1.350	-0.280	-0.090	-1.250
2020/01/31 13:38:42.8	1.370	-0.320	-0.060	-1.280
2020/01/31 13:38:42.9	1.400	-0.360	-0.030	-1.310
2020/01/31 13:38:43.0	1.420	-0.400	-0.000	-1.340
2020/01/31 13:38:43.1	1.440	-0.440	0.020	-1.360
2020/01/31 13:38:43.2	1.450	-0.470	0.050	-1.380
2020/01/31 13:38:43.3	1.470	-0.510	0.070	-1.400
2020/01/31 13:38:43.4	1.480	-0.540	0.080	-1.410
2020/01/31 13:38:43.5	1.490	-0.570	0.100	-1.420
2020/01/31 13:38:43.6	1.490	-0.600	0.120	-1.420
2020/01/31 13:38:43.7	1.490	-0.630	0.130	-1.420
2020/01/31 13:38:43.8	1.490	-0.650	0.140	-1.410
2020/01/31 13:38:43.9	1.480	-0.670	0.150	-1.390
2020/01/31 13:38:44.0	1.470	-0.680	0.160	-1.370
2020/01/31 13:38:44.1	1.460	-0.690	0.170	-1.350
2020/01/31 13:38:44.2	1.450	-0.700	0.180	-1.310
2020/01/31 13:38:44.3	1.430	-0.700	0.190	-1.270
2020/01/31 13:38:44.4	1.410	-0.700	0.210	-1.230
2020/01/31 13:38:44.5	1.390	-0.700	0.220	-1.180
2020/01/31 13:38:44.6	1.360	-0.690	0.230	-1.120
2020/01/31 13:38:44.7	1.330	-0.670	0.240	-1.070
2020/01/31 13:38:44.8	1.300	-0.660	0.250	-1.000
2020/01/31 13:38:44.9	1.270	-0.630	0.260	-0.940
2020/01/31 13:38:45.0	1.240	-0.610	0.270	-0.870
2020/01/31 13:38:45.1	1.210	-0.580	0.280	-0.800
2020/01/31 13:38:45.2	1.180	-0.550	0.290	-0.720
2020/01/31 13:38:45.3	1.140	-0.510	0.300	-0.650
2020/01/31 13:38:45.4	1.110	-0.470	0.300	-0.570
2020/01/31 13:38:45.5	1.080	-0.420	0.300	-0.500
2020/01/31 13:38:45.6	1.040	-0.380	0.300	-0.420
2020/01/31 13:38:45.7	1.010	-0.330	0.290	-0.350
2020/01/31 13:38:45.8	0.980	-0.280	0.280	-0.270
2020/01/31 13:38:45.9	0.950	-0.220	0.260	-0.190
2020/01/31 13:38:46.0	0.920	-0.170	0.250	-0.120
2020/01/31 13:38:46.1	0.890	-0.110	0.230	-0.050
2020/01/31 13:38:46.2	0.870	-0.060	0.200	0.020
2020/01/31 13:38:46.3	0.850	0.000	0.170	0.090
2020/01/31 13:38:46.4	0.820	0.060	0.140	0.150
2020/01/31 13:38:46.5	0.800	0.110	0.110	0.210
2020/01/31 13:38:46.6	0.770	0.170	0.070	0.270
2020/01/31 13:38:46.7	0.750	0.220	0.030	0.330
2020/01/31 13:38:46.8	0.730	0.280	-0.010	0.370
2020/01/31 13:38:46.9	0.720	0.330	-0.050	0.410
2020/01/31 13:38:47.0	0.700	0.370	-0.100	0.450
2020/01/31 13:38:47.1	0.690	0.420	-0.140	0.480
2020/01/31 13:38:47.2	0.680	0.460	-0.180	0.510
2020/01/31 13:38:47.3	0.680	0.500	-0.230	0.540
2020/01/31 13:38:47.4	0.670	0.540	-0.280	0.550
2020/01/31 13:38:47.5	0.670	0.570	-0.320	0.570
2020/01/31 13:38:47.6	0.690	0.600	-0.370	0.580
2020/01/31 13:38:47.7	0.690	0.630	-0.410	0.590
2020/01/31 13:38:47.8	0.700	0.650	-0.450	0.590
2020/01/31 13:38:47.9	0.710	0.670	-0.490	0.590
2020/01/31 13:38:48.0	0.720	0.680	-0.530	0.590
2020/01/31 13:38:48.1	0.740	0.690	-0.570	0.580
2020/01/31 13:38:48.2	0.750	0.700	-0.610	0.570
2020/01/31 13:38:48.3	0.770	0.710	-0.640	0.560
2020/01/31 13:38:48.4	0.800	0.710	-0.680	0.550
2020/01/31 13:38:48.5	0.820	0.710	-0.710	0.530
2020/01/31 13:38:48.6	0.850	0.700	-0.740	0.520
2020/01/31 13:38:48.7	0.870	0.700	-0.760	0.500
2020/01/31 13:38:48.8	0.900	0.690	-0.780	0.480
2020/01/31 13:38:48.9	0.930	0.680	-0.800	0.460
2020/01/31 13:38:49.0	0.950	0.660	-0.820	0.440
2020/01/31 13:38:49.1	0.980	0.640	-0.830	0.420
2020/01/31 13:38:49.2	1.000	0.620	-0.830	0.390
2020/01/31 13:38:49.3	1.030	0.600	-0.840	0.370
2020/01/31 13:38:49.4	1.050	0.580	-0.840	0.340
2020/01/31 13:38:49.5	1.070	0.550	-0.840	0.310
2020/01/31 13:38:49.6	1.080	0.520	-0.830	0.280
2020/01/31 13:38:49.7	1.100	0.490	-0.820	0.250
2020/01/31 13:38:49.8	1.120	0.450	-0.810	0.210
2020/01/31 13:38:49.9	1.130	0.420	-0.790	0.180
2020/01/31 13:38:50.0	1.150	0.380	-0.770	0.140
2020/01/31 13:38:50.1	1.160	0.340	-0.750	0.100
2020/01/31 13:38:50.2	1.170	0.300	-0.730	0.050
2020/01/31 13:38:50.3	1.190	0.260	-0.710	0.010
2020/01/31 13:38:50.4	1.200	0.220	-0.680	-0.040
2020/01/31 13:38:50.5	1.210	0.180	-0.660	-0.080
2020/01/31 13:38:50.6	1.240	0.140	-0.630	-0.130
2020/01/31 13:38:50.7	1.260	0.100	-0.600	-0.180
2020/01/31 13:38:50.8	1.270	0.050	-0.580	-0.230
2020/01/31 13:38:50.9	1.290	0.010	-0.550	-0.280
2020/01/31 13:38:51.0	1.310	-0.030	-0.520	-0.330
2020/01/31 13:38:51.1	1.320	-0.070	-0.490	-0.380
2020/01/31 13:38:51.2	1.340	-0.110	-0.470	-0.440
2020/01/31 13:38:51.3	1.360	-0.150	-0.440	-0.490
2020/01/31 13:38:51.4	1.380	-0.180	-0.420	-0.540
2020/01/31 13:38:51.5	1.400	-0.220	-0.390	-0.600
2020/01/31 13:38:51.6	1.430	-0.250	-0.370	-0.650
2020/01/31 13:38:51.7	1.450	-0.290	-0.340	-0.700
2020/01/31 13:38:51.8	1.470	-0.320	-0.310	-0.750
2020/01/31 13:38:51.9	1.490	-0.350	-0.290	-0.800
2020/01/31 13:38:52.0	1.510	-0.380	-0.260	-0.850
2020/01/31 13:38:52.1	1.530	-0.410	-0.230	-0.890
2020/01/31 13:38:52.2	1.550	-0.430	-0.200	-0.940
2020/01/31 13:38:52.3	1.560	-0.460	-0.170	-0.980
2020/01/31 13:38:52.4	1.580	-0.480	-0.140	-1.020
2020/01/31 13:38:52.5	1.590	-0.500	-0.110	-1.050
2020/01/31 13:38:52.6	1.600	-0.520	-0.080	-1.090
2020/01/31 13:38:52.7	1.610	-0.540	-0.040	-1.120
2020/01/31 13:38:52.8	1.610	-0.560	-0.010	-1.150
2020/01/31 13:38:52.9	1.620	-0.570	0.030	-1.170
2020/01/31 13:38:53.0	1.620	-0.590	0.070	-1.190
2020/01/31 13:38:53.1	1.620	-0.600	0.100	-1.210
2020/01/31 13:38:53.2	1.620	-0.600	0.140	-1.220
2020/01/31 13:38:53.3	1.610	-0.610	0.180	-1.230
2020/01/31 13:38:53.4	1.600	-0.610	0.220	-1.230
2020/01/31 13:38:53.5	1.590	-0.610	0.260	-1.230
2020/01/31 13:38:53.6	1.580	-0.610	0.290	-1.220
2020/01/31 13:38:53.7	1.570	-0.610	0.330	-1.210
2020/01/31 13:38:53.8	1.560	-0.600	0.370	-1.190
2020/01/31 13:38:53.9	1.540	-0.590	0.400	-1.170
2020/01/31 13:38:54.0	1.530	-0.570	0.430	-1.140
2020/01/31 13:38:54.1	1.510	-0.560	0.460	-1.110
2020/01/31 13:38:54.2	1.490	-0.540	0.490	-1.080
2020/01/31 13:38:54.3	1.480	-0.520	0.520	-1.050
2020/01/31 13:38:54.4	1.460	-0.490	0.540	-1.010
2020/01/31 13:38:54.5	1.440	-0.460	0.560	-0.960
2020/01/31 13:38:54.6	1.420	-0.430	0.570	-0.920
2020/01/31 13:38:54.7	1.410	-0.400	0.580	-0.870
2020/01/31 13:38:54.8	1.390	-0.360	0.580	-0.820
2020/01/31 13:38:54.9	1.380	-0.320	0.580	-0.770
2020/01/31 13:38:55.0	1.370	-0.280	0.580	-0.710
2020/01/31 13:38:55.1	1.350	-0.240	0.570	-0.650
2020/01/31 13:38:55.2	1.340	-0.190	0.560	-0.590
2020/01/31 13:38:55.3	1.330	-0.150	0.540	-0.530
2020/01/31 13:38:55.4	1.310	-0.100	0.530	-0.460
2020/01/31 13:38:55.5	1.300	-0.050	0.500	-0.390
2020/01/31 13:38:55.6	1.280	-0.000	0.480	-0.320
2020/01/31 13:38:55.7	1.270	0.050	0.450	-0.250
2020/01/31 13:38:55.8	1.250	0.100	0.420	-0.170
2020/01/31 13:38:55.9	1.230	0.140	0.390	-0.100
2020/01/31 13:38:56.0	1.210	0.190	0.350	-0.020
2020/01/31 13:38:56.1	1.190	0.240	0.320	0.050
2020/01/31 13:38:56.2	1.170	0.280	0.280	0.130
2020/01/31 13:38:56.3	1.140	0.320	0.240	0.210
2020/01/31 13:38:56.4	1.120	0.360	0.210	0.280
2020/01/31 13:38:56.5	1.090	0.390	0.170	0.360
2020/01/31 13:38:56.6	1.060	0.420	0.130	0.440
2020/01/31 13:38:56.7	1.030	0.450	0.090	0.510
2020/01/31 13:38:56.8	1.010	0.480	0.050	0.580
2020/01/31 13:38:56.9	0.980	0.500	0.010	0.650
2020/01/31 13:38:57.0	0.950	0.520	-0.030	0.710
2020/01/31 13:38:57.1	0.930	0.530	-0.070	0.780
2020/01/31 13:38:57.2	0.900	0.540	-0.110	0.840
2020/01/31 13:38:57.3	0.880	0.540	-0.160	0.900
2020/01/31 13:38:57.4	0.860	0.540	-0.200	0.950
2020/01/31 13:38:57.5	0.840	0.540	-0.250	1.000
2020/01/31 13:38:57.6	0.820	0.530	-0.300	1.050
2020/01/31 13:38:57.7	0.800	0.520	-0.350	1.090
2020/01/31 13:38:57.8	0.790	0.510	-0.400	1.120
2020/01/31 13:38:57.9	0.780	0.490	-0.450	1.150
2020/01/31 13:38:58.0	0.770	0.470	-0.510	1.170
2020/01/31 13:38:58.1	0.770	0.440	-0.580	1.180
2020/01/31 13:38:58.2	0.770	0.410	-0.640	1.180
2020/01/31 13:38:58.3	0.780	0.380	-0.710	1.170
2020/01/31 13:38:58.4	0.790	0.350	-0.780	1.150
2020/01/31 13:38:58.5	0.810	0.320	-0.850	1.120
2020/01/31 13:38:58.6	0.840	0.280	-0.930	1.090
2020/01/31 13:38:58.7	0.870	0.250	-1.010	1.040
2020/01/31 13:38:58.8	0.900	0.210	-1.080	0.980
2020/01/31 13:38:58.9	0.940	0.170	-1.160	0.910
2020/01/31 13:38:59.0	0.990	0.140	-1.240	0.820
2020/01/31 13:38:59.1	1.040	0.100	-1.320	0.730
2020/01/31 13:38:59.2	1.090	0.060	-1.400	0.630
2020/01/31 13:38:59.3	1.150	0.020	-1.480	0.520
2020/01/31 13:38:59.4	1.210	-0.010	-1.550	0.400
2020/01/31 13:38:59.5	1.280	-0.050	-1.620	0.280
2020/01/31 13:38:59.6	1.370	-0.080	-1.680	0.140
2020/01/31 13:38:59.7	1.440	-0.110	-1.730	0.010
2020/01/31 13:38:59.8	1.520	-0.140	-1.780	-0.120
2020/01/31 13:38:59.9	1.590	-0.170	-1.820	-0.260
2020/01/31 13:39:00.0	1.660	-0.200	-1.850	-0.390
2020/01/31 13:39:00.1	1.740	-0.220	-1.870	-0.520
2020/01/31 13:39:00.2	1.810	-0.250	-1.880	-0.650
2020/01/31 13:39:00.3	1.870	-0.270	-1.870	-0.780
2020/01/31 13:39:00.4	1.940	-0.290	-1.860	-0.900
2020/01/31 13:39:00.5	2.000	-0.310	-1.830	-1.020
2020/01/31 13:39:00.6	2.070	-0.330	-1.790	-1.140
2020/01/31 13:39:00.7	2.120	-0.350	-1.740	-1.240
2020/01/31 13:39:00.8	2.180	-0.360	-1.670	-1.350
2020/01/31 13:39:00.9	2.230	-0.370	-1.600	-1.450
2020/01/31 13:39:01.0	2.270	-0.380	-1.510	-1.540
2020/01/31 13:39:01.1	2.320	-0.390	-1.410	-1.630
2020/01/31 13:39:01.2	2.350	-0.400	-1.310	-1.710
2020/01/31 13:39:01.3	2.390	-0.410	-1.190	-1.780
2020/01/31 13:39:01.4	2.420	-0.410	-1.070	-1.850
2020/01/31 13:39:01.5	2.450	-0.420	-0.950	-1.910
2020/01/31 13:39:01.6	2.490	-0.420	-0.820	-1.960
2020/01/31 13:39:01.7	2.510	-0.420	-0.680	-2.010
2020/01/31 13:39:01.8	2.530	-0.410	-0.540	-2.050
2020/01/31 13:39:01.9	2.550	-0.410	-0.400	-2.080
2020/01/31 13:39:02.0	2.560	-0.400	-0.260	-2.110
2020/01/31 13:39:02.1	2.570	-0.390	-0.120	-2.130
2020/01/31 13:39:02.2	2.580	-0.380	0.020	-2.140
2020/01/31 13:39:02.3	2.590	-0.370	0.150	-2.150
2020/01/31 13:39:02.4	2.600	-0.350	0.280	-2.140
2020/01/31 13:39:02.5	2.600	-0.330	0.410	-2.130
2020/01/31 13:39:02.6	2.600	-0.310	0.520	-2.110
2020/01/31 13:39:02.7	2.600	-0.290	0.630	-2.080
2020/01/31 13:39:02.8	2.590	-0.260	0.740	-2.050
2020/01/31 13:39:02.9	2.590	-0.230	0.830	-2.000
2020/01/31 13:39:03.0	2.580	-0.200	0.920	-1.950
2020/01/31 13:39:03.1	2.570	-0.170	1.000	-1.890
2020/01/31 13:39:03.2	2.550	-0.130	1.080	-1.820
2020/01/31 13:39:03.3	2.540	-0.100	1.140	-1.740
2020/01/31 13:39:03.4	2.520	-0.060	1.200	-1.650
2020/01/31 13:39:03.5	2.490	-0.020	1.240	-1.560
2020/01/31 13:39:03.6	2.460	0.010	1.280	-1.450
2020/01/31 13:39:03.7	2.430	0.050	1.310	-1.340
2020/01/31 13:39:03.8	2.390	0.090	1.340	-1.230
2020/01/31 13:39:03.9	2.340	0.130	1.360	-1.100
2020/01/31 13:39:04.0	2.290	0.170	1.370	-0.970
2020/01/31 13:39:04.1	2.240	0.200	1.370	-0.840
2020/01/31 13:39:04.2	2.180	0.240	1.370	-0.700
2020/01/31 13:39:04.3	2.110	0.270	1.360	-0.560
2020/01/31 13:39:04.4	2.050	0.300	1.340	-0.410
2020/01/31 13:39:04.5	1.980	0.330	1.320	-0.270
2020/01/31 13:39:04.6	1.900	0.360	1.290	-0.110
2020/01/31 13:39:04.7	1.830	0.380	1.250	0.040
2020/01/31 13:39:04.8	1.750	0.400	1.210	0.190
2020/01/31 13:39:04.9	1.680	0.420	1.170	0.340
2020/01/31 13:39:05.0	1.610	0.440	1.110	0.490
2020/01/31 13:39:05.1	1.530	0.460	1.050	0.630
2020/01/31 13:39:05.2	1.460	0.470	0.990	0.770
2020/01/31 13:39:05.3	1.390	0.480	0.910	0.910
2020/01/31 13:39:05.4	1.330	0.490	0.830	1.040
2020/01/31 13:39:05.5	1.270	0.490	0.750	1.170
2020/01/31 13:39:05.6	1.200	0.500	0.650	1.290
2020/01/31 13:39:05.7	1.140	0.500	0.560	1.410
2020/01/31 13:39:05.8	1.090	0.500	0.450	1.510
2020/01/31 13:39:05.9	1.050	0.500	0.350	1.610
2020/01/31 13:39:06.0	1.010	0.500	0.230	1.700
2020/01/31 13:39:06.1	0.970	0.500	0.120	1.780
2020/01/31 13:39:06.2	0.940	0.490	0.000	1.850
2020/01/31 13:39:06.3	0.920	0.490	-0.120	1.910
2020/01/31 13:39:06.4	0.900	0.480	-0.240	1.960
2020/01/31 13:39:06.5	0.880	0.480	-0.370	2.000
2020/01/31 13:39:06.6	0.860	0.470	-0.490	2.030
2020/01/31 13:39:06.7	0.850	0.470	-0.610	2.050
2020/01/31 13:39:06.8	0.850	0.460	-0.730	2.060
2020/01/31 13:39:06.9	0.860	0.450	-0.850	2.060
2020/01/31 13:39:07.0	0.870	0.450	-0.970	2.050
2020/01/31 13:39:07.1	0.880	0.440	-1.080	2.030
2020/01/31 13:39:07.2	0.900	0.430	-1.190	2.000
2020/01/31 13:39:07.3	0.920	0.420	-1.290	1.970
2020/01/31 13:39:07.4	0.950	0.410	-1.380	1.920
2020/01/31 13:39:07.5	0.980	0.400	-1.470	1.870
2020/01/31 13:39:07.6	1.010	0.390	-1.550	1.800
2020/01/31 13:39:07.7	1.050	0.380	-1.620	1.740
2020/01/31 13:39:07.8	1.090	0.360	-1.680	1.660
2020/01/31 13:39:07.9	1.130	0.350	-1.730	1.580
2020/01/31 13:39:08.0	1.180	0.330	-1.780	1.490
2020/01/31 13:39:08.1	1.230	0.310	-1.810	1.400
2020/01/31 13:39:08.2	1.280	0.290	-1.830	1.300
2020/01/31 13:39:08.3	1.330	0.270	-1.840	1.200
2020/01/31 13:39:08.4	1.380	0.240	-1.840	1.090
2020/01/31 13:39:08.5	1.440	0.220	-1.830	0.980
2020/01/31 13:39:08.6	1.510	0.190	-1.820	0.860
2020/01/31 13:39:08.7	1.560	0.160	-1.790	0.740
2020/01/31 13:39:08.8	1.620	0.130	-1.750	0.620
2020/01/31 13:39:08.9	1.680	0.100	-1.700	0.500
2020/01/31 13:39:09.0	1.740	0.070	-1.650	0.370
2020/01/31 13:39:09.1	1.790	0.030	-1.580	0.250
2020/01/31 13:39:09.2	1.850	-0.010	-1.510	0.120
2020/01/31 13:39:09.3	1.900	-0.050	-1.440	-0.000
2020/01/31 13:39:09.4	1.960	-0.080	-1.350	-0.130
2020/01/31 13:39:09.5	2.010	-0.120	-1.260	-0.250
2020/01/31 13:39:09.6	2.060	-0.170	-1.170	-0.370
2020/01/31 13:39:09.7	2.110	-0.210	-1.070	-0.490
2020/01/31 13:39:09.8	2.150	-0.250	-0.970	-0.610
2020/01/31 13:39:09.9	2.200	-0.290	-0.860	-0.720
2020/01/31 13:39:10.0	2.240	-0.330	-0.760	-0.830
2020/01/31 13:39:10.1	2.280	-0.370	-0.650	-0.940
2020/01/31 13:39:10.2	2.310	-0.410	-0.540	-1.040
2020/01/31 13:39:10.3	2.340	-0.450	-0.430	-1.140
2020/01/31 13:39:10.4	2.360	-0.490	-0.320	-1.230
2020/01/31 13:39:10.5	2.380	-0.520	-0.210	-1.310
2020/01/31 13:39:10.6	2.410	-0.560	-0.110	-1.390
2020/01/31 13:39:10.7	2.420	-0.590	-0.000	-1.460
2020/01/31 13:39:10.8	2.420	-0.620	0.100	-1.520
2020/01/31 13:39:10.9	2.420	-0.650	0.200	-1.570
2020/01/31 13:39:11.0	2.410	-0.670	0.300	-1.620
2020/01/31 13:39:11.1	2.390	-0.700	0.390	-1.650
2020/01/31 13:39:11.2	2.360	-0.720	0.480	-1.680
2020/01/31 13:39:11.3	2.340	-0.730	0.560	-1.700
2020/01/31 13:39:11.4	2.300	-0.750	0.640	-1.720
2020/01/31 13:39:11.5	2.260	-0.760	0.720	-1.720
2020/01/31 13:39:11.6	2.220	-0.760	0.790	-1.720
2020/01/31 13:39:11.7	2.170	-0.760	0.850	-1.710
2020/01/31 13:39:11.8	2.120	-0.760	0.900	-1.700
2020/01/31 13:39:11.9	2.060	-0.760	0.950	-1.680
2020/01/31 13:39:12.0	2.000	-0.750	0.980	-1.660
2020/01/31 13:39:12.1	1.940	-0.740	1.010	-1.630
2020/01/31 13:39:12.2	1.870	-0.730	1.030	-1.590
2020/01/31 13:39:12.3	1.810	-0.710	1.040	-1.560
2020/01/31 13:39:12.4	1.740	-0.680	1.040	-1.510
2020/01/31 13:39:12.5	1.670	-0.660	1.030	-1.470
2020/01/31 13:39:12.6	1.610	-0.630	1.010	-1.420
2020/01/31 13:39:12.7	1.550	-0.590	0.980	-1.360
2020/01/31 13:39:12.8	1.480	-0.560	0.940	-1.310
2020/01/31 13:39:12.9	1.420	-0.510	0.900	-1.250
2020/01/31 13:39:13.0	1.360	-0.470	0.840	-1.190
2020/01/31 13:39:13.1	1.300	-0.420	0.770	-1.130
2020/01/31 13:39:13.2	1.240	-0.370	0.690	-1.070
2020/01/31 13:39:13.3	1.190	-0.320	0.600	-1.010
2020/01/31 13:39:13.4	1.140	-0.260	0.510	-0.950
2020/01/31 13:39:13.5	1.100	-0.200	0.410	-0.890
2020/01/31 13:39:13.6	1.060	-0.140	0.300	-0.820
2020/01/31 13:39:13.7	1.020	-0.080	0.190	-0.760
2020/01/31 13:39:13.8	0.990	-0.010	0.070	-0.710
2020/01/31 13:39:13.9	0.960	0.050	-0.050	-0.650
2020/01/31 13:39:14.0	0.930	0.120	-0.180	-0.590
2020/01/31 13:39:14.1	0.910	0.190	-0.300	-0.540
2020/01/31 13:39:14.2	0.890	0.250	-0.420	-0.480
2020/01/31 13:39:14.3	0.880	0.320	-0.550	-0.430
2020/01/31 13:39:14.4	0.870	0.390	-0.670	-0.380
2020/01/31 13:39:14.5	0.860	0.450	-0.790	-0.330
2020/01/31 13:39:14.6	0.850	0.510	-0.900	-0.280
2020/01/31 13:39:14.7	0.850	0.570	-1.010	-0.230
2020/01/31 13:39:14.8	0.860	0.620	-1.110	-0.180
2020/01/31 13:39:14.9	0.870	0.670	-1.200	-0.140
2020/01/31 13:39:15.0	0.880	0.720	-1.280	-0.090
2020/01/31 13:39:15.1	0.890	0.760	-1.350	-0.050
2020/01/31 13:39:15.2	0.910	0.800	-1.410	-0.000
2020/01/31 13:39:15.3	0.930	0.830	-1.450	0.040
2020/01/31 13:39:15.4	0.950	0.860	-1.490	0.080
2020/01/31 13:39:15.5	0.970	0.880	-1.510	0.120
2020/01/31 13:39:15.6	1.010	0.890	-1.520	0.170
2020/01/31 13:39:15.7	1.040	0.900	-1.520	0.210
2020/01/31 13:39:15.8	1.060	0.900	-1.500	0.250
2020/01/31 13:39:15.9	1.080	0.900	-1.480	0.290
2020/01/31 13:39:16.0	1.100	0.890	-1.430	0.330
2020/01/31 13:39:16.1	1.130	0.870	-1.380	0.370
2020/01/31 13:39:16.2	1.150	0.840	-1.320	0.410
2020/01/31 13:39:16.3	1.170	0.820	-1.250	0.450
2020/01/31 13:39:16.4	1.180	0.780	-1.160	0.480
2020/01/31 13:39:16.5	1.200	0.740	-1.070	0.520
2020/01/31 13:39:16.6	1.220	0.700	-0.970	0.560
2020/01/31 13:39:16.7	1.230	0.650	-0.860	0.600
2020/01/31 13:39:16.8	1.240	0.600	-0.750	0.640
2020/01/31 13:39:16.9	1.250	0.540	-0.630	0.670
2020/01/31 13:39:17.0	1.250	0.480	-0.500	0.710
2020/01/31 13:39:17.1	1.250	0.420	-0.380	0.750
2020/01/31 13:39:17.2	1.250	0.360	-0.240	0.790
2020/01/31 13:39:17.3	1.250	0.290	-0.110	0.830
2020/01/31 13:39:17.4	1.240	0.230	0.020	0.870
2020/01/31 13:39:17.5	1.230	0.170	0.150	0.910
2020/01/31 13:39:17.6	1.210	0.100	0.280	0.950
2020/01/31 13:39:17.7	1.200	0.040	0.400	0.990
2020/01/31 13:39:17.8	1.180	-0.020	0.520	1.030
2020/01/31 13:39:17.9	1.160	-0.080	0.630	1.060
2020/01/31 13:39:18.0	1.140	-0.130	0.730	1.100
2020/01/31 13:39:18.1	1.120	-0.190	0.830	1.140
2020/01/31 13:39:18.2	1.100	-0.240	0.920	1.170
2020/01/31 13:39:18.3	1.070	-0.280	1.000	1.200
2020/01/31 13:39:18.4	1.050	-0.330	1.060	1.220
2020/01/31 13:39:18.5	1.030	-0.360	1.120	1.240
2020/01/31 13:39:18.6	0.990	-0.400	1.160	1.260
2020/01/31 13:39:18.7	0.970	-0.430	1.190	1.270
2020/01/31 13:39:18.8	0.950	-0.450	1.210	1.280
2020/01/31 13:39:18.9	0.930	-0.470	1.220	1.280
2020/01/31 13:39:19.0	0.910	-0.480	1.210	1.280
2020/01/31 13:39:19.1	0.900	-0.490	1.190	1.270
2020/01/31 13:39:19.2	0.880	-0.490	1.160	1.250
2020/01/31 13:39:19.3	0.870	-0.490	1.120	1.230
2020/01/31 13:39:19.4	0.850	-0.490	1.060	1.200
2020/01/31 13:39:19.5	0.840	-0.480	1.000	1.170
2020/01/31 13:39:19.6	0.820	-0.460	0.930	1.130
2020/01/31 13:39:19.7	0.820	-0.440	0.850	1.090
2020/01/31 13:39:19.8	0.810	-0.420	0.760	1.040
2020/01/31 13:39:19.9	0.810	-0.390	0.660	0.990
2020/01/31 13:39:20.0	0.810	-0.370	0.560	0.940
2020/01/31 13:39:20.1	0.810	-0.330	0.460	0.880
2020/01/31 13:39:20.2	0.810	-0.300	0.350	0.820
2020/01/31 13:39:20.3	0.820	-0.270	0.230	0.750
2020/01/31 13:39:20.4	0.820	-0.230	0.120	0.690
2020/01/31 13:39:20.5	0.830	-0.190	0.010	0.620
2020/01/31 13:39:20.6	0.840	-0.160	-0.100	0.550
2020/01/31 13:39:20.7	0.850	-0.120	-0.210	0.480
2020/01/31 13:39:20.8	0.860	-0.090	-0.320	0.410
2020/01/31 13:39:20.9	0.870	-0.060	-0.420	0.350
2020/01/31 13:39:21.0	0.890	-0.020	-0.520	0.280
2020/01/31 13:39:21.1	0.900	0.010	-0.610	0.210
2020/01/31 13:39:21.2	0.910	0.030	-0.690	0.140
2020/01/31 13:39:21.3	0.920	0.060	-0.770	0.080
2020/01/31 13:39:21.4	0.940	0.080	-0.850	0.010
2020/01/31 13:39:21.5	0.950	0.090	-0.910	-0.050
2020/01/31 13:39:21.6	0.980	0.110	-0.970	-0.110
2020/01/31 13:39:21.7	0.990	0.120	-1.020	-0.170
2020/01/31 13:39:21.8	1.010	0.120	-1.060	-0.230
2020/01/31 13:39:21.9	1.020	0.130	-1.100	-0.290
2020/01/31 13:39:22.0	1.030	0.130	-1.130	-0.350
2020/01/31 13:39:22.1	1.050	0.120	-1.150	-0.410
2020/01/31 13:39:22.2	1.060	0.120	-1.170	-0.470
2020/01/31 13:39:22.3	1.070	0.100	-1.180	-0.520
2020/01/31 13:39:22.4	1.090	0.090	-1.180	-0.580
2020/01/31 13:39:22.5	1.110	0.070	-1.180	-0.630
2020/01/31 13:39:22.6	1.140	0.060	-1.170	-0.690
2020/01/31 13:39:22.7	1.150	0.040	-1.160	-0.740
2020/01/31 13:39:22.8	1.170	0.010	-1.140	-0.800
2020/01/31 13:39:22.9	1.190	-0.010	-1.130	-0.850
2020/01/31 13:39:23.0	1.210	-0.030	-1.100	-0.900
2020/01/31 13:39:23.1	1.220	-0.060	-1.070	-0.940
2020/01/31 13:39:23.2	1.240	-0.080	-1.040	-0.990
2020/01/31 13:39:23.3	1.260	-0.100	-1.010	-1.030
2020/01/31 13:39:23.4	1.280	-0.120	-0.980	-1.070
2020/01/31 13:39:23.5	1.300	-0.140	-0.940	-1.110
2020/01/31 13:39:23.6	1.320	-0.160	-0.900	-1.140
2020/01/31 13:39:23.7	1.340	-0.180	-0.860	-1.170
2020/01/31 13:39:23.8	1.350	-0.190	-0.820	-1.190
2020/01/31 13:39:23.9	1.370	-0.200	-0.770	-1.210
2020/01/31 13:39:24.0	1.380	-0.210	-0.720	-1.230
2020/01/31 13:39:24.1	1.390	-0.210	-0.680	-1.240
2020/01/31 13:39:24.2	1.400	-0.210	-0.630	-1.240
2020/01/31 13:39:24.3	1.400	-0.210	-0.580	-1.240
2020/01/31 13:39:24.4	1.400	-0.210	-0.520	-1.230
2020/01/31 13:39:24.5	1.400	-0.200	-0.470	-1.220
2020/01/31 13:39:24.6	1.400	-0.190	-0.430	-1.200
2020/01/31 13:39:24.7	1.400	-0.180	-0.370	-1.180
2020/01/31 13:39:24.8	1.390	-0.160	-0.320	-1.150
2020/01/31 13:39:24.9	1.380	-0.140	-0.270	-1.120
2020/01/31 13:39:25.0	1.370	-0.120	-0.220	-1.080
2020/01/31 13:39:25.1	1.350	-0.100	-0.170	-1.040
2020/01/31 13:39:25.2	1.340	-0.080	-0.120	-1.000
2020/01/31 13:39:25.3	1.320	-0.050	-0.070	-0.950
2020/01/31 13:39:25.4	1.300	-0.030	-0.030	-0.900
2020/01/31 13:39:25.5	1.280	-0.000	0.020	-0.850
2020/01/31 13:39:25.6	1.270	0.030	0.060	-0.790
2020/01/31 13:39:25.7	1.250	0.050	0.090	-0.730
2020/01/31 13:39:25.8	1.230	0.080	0.120	-0.670
2020/01/31 13:39:25.9	1.210	0.110	0.150	-0.610
2020/01/31 13:39:26.0	1.190	0.130	0.170	-0.550
2020/01/31 13:39:26.1	1.170	0.160	0.190	-0.490
2020/01/31 13:39:26.2	1.160	0.180	0.210	-0.440
2020/01/31 13:39:26.3	1.150	0.210	0.210	-0.380
2020/01/31 13:39:26.4	1.140	0.230	0.220	-0.320
2020/01/31 13:39:26.5	1.130	0.250	0.210	-0.260
2020/01/31 13:39:26.6	1.110	0.270	0.200	-0.200
2020/01/31 13:39:26.7	1.110	0.290	0.190	-0.150
2020/01/31 13:39:26.8	1.110	0.310	0.170	-0.100
2020/01/31 13:39:26.9	1.110	0.330	0.150	-0.050
2020/01/31 13:39:27.0	1.110	0.340	0.120	-0.010
2020/01/31 13:39:27.1	1.120	0.350	0.090	0.030
2020/01/31 13:39:27.2	1.130	0.370	0.050	0.070
2020/01/31 13:39:27.3	1.150	0.380	0.010	0.110
2020/01/31 13:39:27.4	1.160	0.390	-0.030	0.140
2020/01/31 13:39:27.5	1.180	0.390	-0.070	0.160
2020/01/31 13:39:27.6	1.210	0.400	-0.120	0.190
2020/01/31 13:39:27.7	1.240	0.400	-0.170	0.200
2020/01/31 13:39:27.8	1.270	0.400	-0.220	0.220
2020/01/31 13:39:27.9	1.300	0.400	-0.270	0.220
2020/01/31 13:39:28.0	1.330	0.400	-0.320	0.220
2020/01/31 13:39:28.1	1.370	0.400	-0.370	0.220
2020/01/31 13:39:28.2	1.410	0.390	-0.420	0.210
2020/01/31 13:39:28.3	1.450	0.390	-0.470	0.190
2020/01/31 13:39:28.4	1.500	0.380	-0.510	0.170
2020/01/31 13:39:28.5	1.550	0.370	-0.550	0.140
2020/01/31 13:39:28.6	1.600	0.370	-0.590	0.110
2020/01/31 13:39:28.7	1.650	0.360	-0.630	0.080
2020/01/31 13:39:28.8	1.710	0.350	-0.660	0.040
2020/01/31 13:39:28.9	1.770	0.330	-0.680	0.000
2020/01/31 13:39:29.0	1.820	0.320	-0.700	-0.040
2020/01/31 13:39:29.1	1.880	0.310	-0.700	-0.080
2020/01/31 13:39:29.2	1.930	0.290	-0.710	-0.120
2020/01/31 13:39:29.3	1.990	0.270	-0.700	-0.150
2020/01/31 13:39:29.4	2.040	0.250	-0.690	-0.190
2020/01/31 13:39:29.5	2.090	0.230	-0.660	-0.220
2020/01/31 13:39:29.6	2.120	0.210	-0.630	-0.250
2020/01/31 13:39:29.7	2.160	0.180	-0.590	-0.270
2020/01/31 13:39:29.8	2.200	0.150	-0.540	-0.290
2020/01/31 13:39:29.9	2.220	0.120	-0.480	-0.310
2020/01/31 13:39:30.0	2.240	0.080	-0.420	-0.320
2020/01/31 13:39:30.1	2.260	0.050	-0.350	-0.330
2020/01/31 13:39:30.2	2.270	0.010	-0.270	-0.330
2020/01/31 13:39:30.3	2.280	-0.030	-0.180	-0.330
2020/01/31 13:39:30.4	2.280	-0.070	-0.100	-0.330
2020/01/31 13:39:30.5	2.270	-0.120	-0.000	-0.330
2020/01/31 13:39:30.6	2.260	-0.170	0.090	-0.320
2020/01/31 13:39:30.7	2.250	-0.220	0.180	-0.310
2020/01/31 13:39:30.8	2.230	-0.260	0.280	-0.300
2020/01/31 13:39:30.9	2.200	-0.320	0.370	-0.290
2020/01/31 13:39:31.0	2.180	-0.370	0.460	-0.280
2020/01/31 13:39:31.1	2.140	-0.420	0.550	-0.270
2020/01/31 13:39:31.2	2.110	-0.470	0.640	-0.260
2020/01/31 13:39:31.3	2.070	-0.520	0.720	-0.240
2020/01/31 13:39:31.4	2.030	-0.560	0.790	-0.230
2020/01/31 13:39:31.5	1.980	-0.610	0.860	-0.210
2020/01/31 13:39:31.6	1.950	-0.650	0.930	-0.200
2020/01/31 13:39:31.7	1.900	-0.690	0.980	-0.180
2020/01/31 13:39:31.8	1.850	-0.730	1.020	-0.160
2020/01/31 13:39:31.9	1.810	-0.760	1.050	-0.140
2020/01/31 13:39:32.0	1.760	-0.790	1.080	-0.130
2020/01/31 13:39:32.1	1.710	-0.810	1.090	-0.110
2020/01/31 13:39:32.2	1.670	-0.820	1.090	-0.090
2020/01/31 13:39:32.3	1.620	-0.830	1.080	-0.070
2020/01/31 13:39:32.4	1.580	-0.840	1.060	-0.060
2020/01/31 13:39:32.5	1.540	-0.830	1.020	-0.040
2020/01/31 13:39:32.6	1.520	-0.820	0.980	-0.030
2020/01/31 13:39:32.7	1.480	-0.810	0.920	-0.010
2020/01/31 13:39:32.8	1.450	-0.780	0.860	-0.000
2020/01/31 13:39:32.9	1.420	-0.750	0.780	0.010
2020/01/31 13:39:33.0	1.390	-0.710	0.690	0.020
2020/01/31 13:39:33.1	1.360	-0.670	0.600	0.030
2020/01/31 13:39:33.2	1.340	-0.620	0.490	0.030
2020/01/31 13:39:33.3	1.330	-0.560	0.380	0.030
2020/01/31 13:39:33.4	1.320	-0.500	0.270	0.030
2020/01/31 13:39:33.5	1.310	-0.430	0.140	0.030
2020/01/31 13:39:33.6	1.300	-0.360	0.010	0.020
2020/01/31 13:39:33.7	1.300	-0.290	-0.120	0.020
2020/01/31 13:39:33.8	1.300	-0.210	-0.250	0.000
2020/01/31 13:39:33.9	1.310	-0.130	-0.380	-0.010
2020/01/31 13:39:34.0	1.320	-0.050	-0.520	-0.030
2020/01/31 13:39:34.1	1.330	0.030	-0.650	-0.050
2020/01/31 13:39:34.2	1.350	0.110	-0.780	-0.080
2020/01/31 13:39:34.3	1.370	0.190	-0.900	-0.100
2020/01/31 13:39:34.4	1.390	0.270	-1.020	-0.130
2020/01/31 13:39:34.5	1.410	0.350	-1.130	-0.160
2020/01/31 13:39:34.6	1.430	0.420	-1.230	-0.190
2020/01/31 13:39:34.7	1.460	0.480	-1.330	-0.220
2020/01/31 13:39:34.8	1.480	0.550	-1.420	-0.260
2020/01/31 13:39:34.9	1.500	0.610	-1.490	-0.290
2020/01/31 13:39:35.0	1.530	0.660	-1.560	-0.320
2020/01/31 13:39:35.1	1.550	0.700	-1.610	-0.350
2020/01/31 13:39:35.2	1.570	0.740	-1.660	-0.390
2020/01/31 13:39:35.3	1.590	0.780	-1.690	-0.410
2020/01/31 13:39:35.4	1.610	0.800	-1.710	-0.440
2020/01/31 13:39:35.5	1.630	0.820	-1.720	-0.470
2020/01/31 13:39:35.6	1.640	0.830	-1.720	-0.490
2020/01/31 13:39:35.7	1.660	0.830	-1.710	-0.520
2020/01/31 13:39:35.8	1.670	0.830	-1.680	-0.540
2020/01/31 13:39:35.9	1.690	0.820	-1.650	-0.560
2020/01/31 13:39:36.0	1.700	0.800	-1.610	-0.580
2020/01/31 13:39:36.1	1.720	0.770	-1.550	-0.600
2020/01/31 13:39:36.2	1.730	0.740	-1.490	-0.620
2020/01/31 13:39:36.3	1.740	0.700	-1.420	-0.630
2020/01/31 13:39:36.4	1.760	0.660	-1.350	-0.650
2020/01/31 13:39:36.5	1.770	0.610	-1.270	-0.670
2020/01/31 13:39:36.6	1.780	0.560	-1.180	-0.690
2020/01/31 13:39:36.7	1.800	0.510	-1.090	-0.700
2020/01/31 13:39:36.8	1.810	0.450	-1.000	-0.720
2020/01/31 13:39:36.9	1.830	0.390	-0.910	-0.740
2020/01/31 13:39:37.0	1.850	0.330	-0.810	-0.770
2020/01/31 13:39:37.1	1.870	0.270	-0.720	-0.790
2020/01/31 13:39:37.2	1.890	0.210	-0.620	-0.810
2020/01/31 13:39:37.3	1.920	0.150	-0.530	-0.830
2020/01/31 13:39:37.4	1.940	0.090	-0.440	-0.860
2020/01/31 13:39:37.5	1.960	0.030	-0.340	-0.880
2020/01/31 13:39:37.6	2.000	-0.030	-0.260	-0.900
2020/01/31 13:39:37.7	2.020	-0.080	-0.170	-0.920
2020/01/31 13:39:37.8	2.040	-0.130	-0.090	-0.930
2020/01/31 13:39:37.9	2.060	-0.180	-0.010	-0.950
2020/01/31 13:39:38.0	2.070	-0.230	0.060	-0.960
2020/01/31 13:39:38.1	2.080	-0.270	0.140	-0.970
2020/01/31 13:39:38.2	2.090	-0.300	0.200	-0.980
2020/01/31 13:39:38.3	2.100	-0.330	0.270	-0.980
2020/01/31 13:39:38.4	2.110	-0.360	0.330	-0.980
2020/01/31 13:39:38.5	2.110	-0.390	0.380	-0.980
2020/01/31 13:39:38.6	2.110	-0.410	0.430	-0.970
2020/01/31 13:39:38.7	2.110	-0.420	0.470	-0.960
2020/01/31 13:39:38.8	2.110	-0.430	0.510	-0.950
2020/01/31 13:39:38.9	2.110	-0.440	0.540	-0.940
2020/01/31 13:39:39.0	2.110	-0.440	0.560	-0.930
2020/01/31 13:39:39.1	2.110	-0.440	0.580	-0.910
2020/01/31 13:39:39.2	2.100	-0.440	0.590	-0.890
2020/01/31 13:39:39.3	2.100	-0.430	0.600	-0.870
2020/01/31 13:39:39.4	2.090	-0.420	0.600	-0.850
2020/01/31 13:39:39.5	2.090	-0.410	0.590	-0.830
2020/01/31 13:39:39.6	2.090	-0.390	0.580	-0.800
2020/01/31 13:39:39.7	2.080	-0.380	0.560	-0.780
2020/01/31 13:39:39.8	2.080	-0.360	0.540	-0.760
2020/01/31 13:39:39.9	2.070	-0.340	0.520	-0.730
2020/01/31 13:39:40.0	2.070	-0.320	0.490	-0.710
2020/01/31 13:39:40.1	2.060	-0.300	0.460	-0.690
2020/01/31 13:39:40.2	2.060	-0.280	0.420	-0.660
2020/01/31 13:39:40.3	2.060	-0.260	0.380	-0.640
2020/01/31 13:39:40.4	2.050	-0.240	0.340	-0.620
2020/01/31 13:39:40.5	2.050	-0.220	0.290	-0.600
2020/01/31 13:39:40.6	2.040	-0.200	0.250	-0.580
2020/01/31 13:39:40.7	2.040	-0.190	0.200	-0.560
2020/01/31 13:39:40.8	2.030	-0.170	0.150	-0.550
2020/01/31 13:39:40.9	2.020	-0.160	0.110	-0.530
2020/01/31 13:39:41.0	2.010	-0.140	0.060	-0.520
2020/01/31 13:39:41.1	2.000	-0.130	0.010	-0.500
2020/01/31 13:39:41.2	1.990	-0.120	-0.030	-0.490
2020/01/31 13:39:41.3	1.980	-0.120	-0.070	-0.480
2020/01/31 13:39:41.4	1.970	-0.110	-0.110	-0.470
2020/01/31 13:39:41.5	1.960	-0.100	-0.150	-0.460
2020/01/31 13:39:41.6	1.950	-0.100	-0.190	-0.450
2020/01/31 13:39:41.7	1.940	-0.100	-0.220	-0.440
2020/01/31 13:39:41.8	1.920	-0.090	-0.250	-0.430
2020/01/31 13:39:41.9	1.910	-0.090	-0.280	-0.410
2020/01/31 13:39:42.0	1.890	-0.090	-0.310	-0.400
2020/01/31 13:39:42.1	1.870	-0.090	-0.330	-0.390
2020/01/31 13:39:42.2	1.860	-0.090	-0.350	-0.370
2020/01/31 13:39:42.3	1.850	-0.090	-0.360	-0.360
2020/01/31 13:39:42.4	1.830	-0.090	-0.370	-0.340
2020/01/31 13:39:42.5	1.820	-0.090	-0.380	-0.330
2020/01/31 13:39:42.6	1.800	-0.080	-0.390	-0.320
2020/01/31 13:39:42.7	1.790	-0.080	-0.400	-0.300
2020/01/31 13:39:42.8	1.790	-0.070	-0.400	-0.290
2020/01/31 13:39:42.9	1.780	-0.070	-0.400	-0.280
2020/01/31 13:39:43.0	1.780	-0.060	-0.400	-0.260
2020/01/31 13:39:43.1	1.780	-0.050	-0.400	-0.250
2020/01/31 13:39:43.2	1.780	-0.030	-0.400	-0.240
2020/01/31 13:39:43.3	1.780	-0.020	-0.400	-0.220
2020/01/31 13:39:43.4	1.780	-0.000	-0.390	-0.210
2020/01/31 13:39:43.5	1.780	0.020	-0.390	-0.200
2020/01/31 13:39:43.6	1.780	0.030	-0.380	-0.180
2020/01/31 13:39:43.7	1.790	0.060	-0.380	-0.170
2020/01/31 13:39:43.8	1.790	0.080	-0.370	-0.160
2020/01/31 13:39:43.9	1.790	0.100	-0.360	-0.140
2020/01/31 13:39:44.0	1.800	0.130	-0.350	-0.120
2020/01/31 13:39:44.1	1.800	0.150	-0.340	-0.110
2020/01/31 13:39:44.2	1.800	0.180	-0.330	-0.090
2020/01/31 13:39:44.3	1.810	0.200	-0.320	-0.070
2020/01/31 13:39:44.4	1.810	0.230	-0.310	-0.050
2020/01/31 13:39:44.5	1.810	0.250	-0.300	-0.020
2020/01/31 13:39:44.6	1.820	0.280	-0.290	0.010
2020/01/31 13:39:44.7	1.830	0.310	-0.280	0.030
2020/01/31 13:39:44.8	1.830	0.330	-0.260	0.060
2020/01/31 13:39:44.9	1.840	0.350	-0.250	0.090
2020/01/31 13:39:45.0	1.840	0.380	-0.240	0.120
2020/01/31 13:39:45.1	1.850	0.400	-0.220	0.150
2020/01/31 13:39:45.2	1.850	0.420	-0.210	0.180
2020/01/31 13:39:45.3	1.860	0.430	-0.200	0.220
2020/01/31 13:39:45.4	1.870	0.450	-0.180	0.250
2020/01/31 13:39:45.5	1.870	0.460	-0.170	0.290
2020/01/31 13:39:45.6	1.880	0.470	-0.160	0.330
2020/01/31 13:39:45.7	1.880	0.480	-0.150	0.370
2020/01/31 13:39:45.8	1.880	0.490	-0.140	0.410
2020/01/31 13:39:45.9	1.880	0.490	-0.130	0.460
2020/01/31 13:39:46.0	1.880	0.490	-0.120	0.500
2020/01/31 13:39:46.1	1.870	0.490	-0.110	0.540
2020/01/31 13:39:46.2	1.870	0.480	-0.100	0.590
2020/01/31 13:39:46.3	1.860	0.480	-0.090	0.630
2020/01/31 13:39:46.4	1.850	0.460	-0.080	0.670
2020/01/31 13:39:46.5	1.840	0.450	-0.070	0.710
2020/01/31 13:39:46.6	1.820	0.430	-0.070	0.750
2020/01/31 13:39:46.7	1.810	0.410	-0.060	0.790
2020/01/31 13:39:46.8	1.790	0.390	-0.050	0.820
2020/01/31 13:39:46.9	1.770	0.360	-0.050	0.850
2020/01/31 13:39:47.0	1.760	0.330	-0.050	0.880
2020/01/31 13:39:47.1	1.740	0.300	-0.040	0.900
2020/01/31 13:39:47.2	1.720	0.270	-0.040	0.920
2020/01/31 13:39:47.3	1.700	0.230	-0.050	0.940
2020/01/31 13:39:47.4	1.680	0.190	-0.050	0.950
2020/01/31 13:39:47.5	1.670	0.160	-0.060	0.960
2020/01/31 13:39:47.6	1.650	0.120	-0.060	0.960
2020/01/31 13:39:47.7	1.630	0.080	-0.070	0.960
2020/01/31 13:39:47.8	1.620	0.040	-0.090	0.950
2020/01/31 13:39:47.9	1.610	-0.000	-0.100	0.930
2020/01/31 13:39:48.0	1.600	-0.040	-0.120	0.910
2020/01/31 13:39:48.1	1.590	-0.080	-0.140	0.880
2020/01/31 13:39:48.2	1.590	-0.110	-0.160	0.850
2020/01/31 13:39:48.3	1.590	-0.150	-0.180	0.810
2020/01/31 13:39:48.4	1.590	-0.180	-0.210	0.760
2020/01/31 13:39:48.5	1.600	-0.220	-0.240	0.710
2020/01/31 13:39:48.6	1.590	-0.250	-0.270	0.650
2020/01/31 13:39:48.7	1.600	-0.280	-0.310	0.580
2020/01/31 13:39:48.8	1.620	-0.300	-0.350	0.510
2020/01/31 13:39:48.9	1.630	-0.330	-0.390	0.440
2020/01/31 13:39:49.0	1.660	-0.350	-0.430	0.360
2020/01/31 13:39:49.1	1.680	-0.360	-0.470	0.270
2020/01/31 13:39:49.2	1.700	-0.380	-0.510	0.180
2020/01/31 13:39:49.3	1.730	-0.390	-0.550	0.090
2020/01/31 13:39:49.4	1.760	-0.400	-0.590	0.000
2020/01/31 13:39:49.5	1.790	-0.410	-0.630	-0.090
2020/01/31 13:39:49.6	1.840	-0.410	-0.670	-0.190
2020/01/31 13:39:49.7	1.880	-0.420	-0.700	-0.290
2020/01/31 13:39:49.8	1.910	-0.410	-0.730	-0.380
2020/01/31 13:39:49.9	1.940	-0.410	-0.760	-0.480
2020/01/31 13:39:50.0	1.980	-0.410	-0.780	-0.570
2020/01/31 13:39:50.1	2.010	-0.400	-0.800	-0.660
2020/01/31 13:39:50.2	2.040	-0.390	-0.820	-0.750
2020/01/31 13:39:50.3	2.070	-0.380	-0.830	-0.840
2020/01/31 13:39:50.4	2.110	-0.370	-0.830	-0.920
2020/01/31 13:39:50.5	2.140	-0.350	-0.830	-0.990
2020/01/31 13:39:50.6	2.170	-0.340	-0.830	-1.070
2020/01/31 13:39:50.7	2.200	-0.320	-0.820	-1.130
2020/01/31 13:39:50.8	2.230	-0.310	-0.800	-1.200
2020/01/31 13:39:50.9	2.260	-0.290	-0.780	-1.260
2020/01/31 13:39:51.0	2.280	-0.270	-0.750	-1.310
2020/01/31 13:39:51.1	2.300	-0.260	-0.720	-1.360
2020/01/31 13:39:51.2	2.320	-0.240	-0.680	-1.400
2020/01/31 13:39:51.3	2.340	-0.220	-0.630	-1.440
2020/01/31 13:39:51.4	2.360	-0.200	-0.590	-1.470
2020/01/31 13:39:51.5	2.380	-0.190	-0.540	-1.500
2020/01/31 13:39:51.6	2.400	-0.170	-0.480	-1.520
2020/01/31 13:39:51.7	2.410	-0.150	-0.430	-1.540
2020/01/31 13:39:51.8	2.420	-0.140	-0.370	-1.550
2020/01/31 13:39:51.9	2.430	-0.120	-0.310	-1.560
2020/01/31 13:39:52.0	2.440	-0.110	-0.250	-1.560
2020/01/31 13:39:52.1	2.450	-0.090	-0.190	-1.560
2020/01/31 13:39:52.2	2.450	-0.080	-0.130	-1.550
2020/01/31 13:39:52.3	2.450	-0.070	-0.070	-1.540
2020/01/31 13:39:52.4	2.460	-0.050	-0.010	-1.520
2020/01/31 13:39:52.5	2.460	-0.040	0.040	-1.500
2020/01/31 13:39:52.6	2.460	-0.030	0.090	-1.470
2020/01/31 13:39:52.7	2.460	-0.020	0.130	-1.450
2020/01/31 13:39:52.8	2.450	-0.010	0.170	-1.410
2020/01/31 13:39:52.9	2.450	0.000	0.210	-1.380
2020/01/31 13:39:53.0	2.440	0.010	0.240	-1.340
2020/01/31 13:39:53.1	2.430	0.020	0.270	-1.300
2020/01/31 13:39:53.2	2.420	0.030	0.290	-1.250
2020/01/31 13:39:53.3	2.410	0.040	0.300	-1.200
2020/01/31 13:39:53.4	2.400	0.050	0.310	-1.150
2020/01/31 13:39:53.5	2.380	0.060	0.310	-1.090
2020/01/31 13:39:53.6	2.360	0.070	0.300	-1.040
2020/01/31 13:39:53.7	2.340	0.080	0.290	-0.980
2020/01/31 13:39:53.8	2.320	0.080	0.280	-0.920
2020/01/31 13:39:53.9	2.300	0.090	0.260	-0.860
2020/01/31 13:39:54.0	2.280	0.100	0.240	-0.800
2020/01/31 13:39:54.1	2.260	0.100	0.210	-0.740
2020/01/31 13:39:54.2	2.230	0.110	0.180	-0.680
2020/01/31 13:39:54.3	2.210	0.110	0.150	-0.620
2020/01/31 13:39:54.4	2.180	0.110	0.110	-0.570
2020/01/31 13:39:54.5	2.150	0.120	0.080	-0.510
2020/01/31 13:39:54.6	2.140	0.120	0.030	-0.450
2020/01/31 13:39:54.7	2.110	0.120	-0.010	-0.400
2020/01/31 13:39:54.8	2.080	0.130	-0.050	-0.340
2020/01/31 13:39:54.9	2.050	0.130	-0.090	-0.290
2020/01/31 13:39:55.0	2.020	0.130	-0.130	-0.250
2020/01/31 13:39:55.1	1.990	0.130	-0.170	-0.200
2020/01/31 13:39:55.2	1.960	0.140	-0.210	-0.150
2020/01/31 13:39:55.3	1.930	0.140	-0.250	-0.100
2020/01/31 13:39:55.4	1.910	0.140	-0.280	-0.050
2020/01/31 13:39:55.5	1.880	0.140	-0.320	-0.010
2020/01/31 13:39:55.6	1.850	0.140	-0.350	0.040
2020/01/31 13:39:55.7	1.830	0.140	-0.380	0.080
2020/01/31 13:39:55.8	1.800	0.150	-0.400	0.130
2020/01/31 13:39:55.9	1.780	0.150	-0.420	0.180
2020/01/31 13:39:56.0	1.760	0.150	-0.440	0.220
2020/01/31 13:39:56.1	1.750	0.150	-0.460	0.260
2020/01/31 13:39:56.2	1.730	0.150	-0.470	0.300
2020/01/31 13:39:56.3	1.720	0.150	-0.480	0.340
2020/01/31 13:39:56.4	1.710	0.150	-0.490	0.380
2020/01/31 13:39:56.5	1.700	0.150	-0.490	0.420
2020/01/31 13:39:56.6	1.680	0.140	-0.490	0.450
2020/01/31 13:39:56.7	1.680	0.140	-0.490	0.480
2020/01/31 13:39:56.8	1.680	0.130	-0.480	0.510
2020/01/31 13:39:56.9	1.680	0.130	-0.470	0.530
2020/01/31 13:39:57.0	1.680	0.120	-0.460	0.550
2020/01/31 13:39:57.1	1.690	0.110	-0.450	0.570
2020/01/31 13:39:57.2	1.690	0.100	-0.430	0.580
2020/01/31 13:39:57.3	1.700	0.090	-0.410	0.590
2020/01/31 13:39:57.4	1.710	0.070	-0.390	0.600
2020/01/31 13:39:57.5	1.720	0.060	-0.360	0.610
2020/01/31 13:39:57.6	1.730	0.050	-0.340	0.600
2020/01/31 13:39:57.7	1.750	0.030	-0.320	0.600
2020/01/31 13:39:57.8	1.770	0.010	-0.290	0.600
2020/01/31 13:39:57.9	1.780	-0.000	-0.260	0.590
2020/01/31 13:39:58.0	1.810	-0.020	-0.240	0.580
2020/01/31 13:39:58.1	1.830	-0.040	-0.210	0.560
2020/01/31 13:39:58.2	1.850	-0.050	-0.180	0.540
2020/01/31 13:39:58.3	1.880	-0.070	-0.160	0.530
2020/01/31 13:39:58.4	1.900	-0.080	-0.140	0.500
2020/01/31 13:39:58.5	1.930	-0.100	-0.110	0.480
2020/01/31 13:39:58.6	1.960	-0.110	-0.090	0.460
2020/01/31 13:39:58.7	1.990	-0.120	-0.070	0.440
2020/01/31 13:39:58.8	2.020	-0.140	-0.050	0.410
2020/01/31 13:39:58.9	2.050	-0.150	-0.030	0.390
2020/01/31 13:39:59.0	2.070	-0.150	-0.010	0.370
2020/01/31 13:39:59.1	2.090	-0.160	0.000	0.360
2020/01/31 13:39:59.2	2.120	-0.170	0.020	0.340
2020/01/31 13:39:59.3	2.130	-0.170	0.030	0.320
2020/01/31 13:39:59.4	2.150	-0.170	0.050	0.310
2020/01/31 13:39:59.5	2.160	-0.180	0.060	0.300
2020/01/31 13:39:59.6	2.160	-0.170	0.060	0.290
2020/01/31 13:39:59.7	2.170	-0.170	0.070	0.270
2020/01/31 13:39:59.8	2.180	-0.170	0.080	0.260
2020/01/31 13:39:59.9	2.180	-0.160	0.090	0.250
2020/01/31 13:40:00.0	2.180	-0.160	0.090	0.240
2020/01/31 13:40:00.1	2.180	-0.150	0.090	0.240
2020/01/31 13:40:00.2	2.170	-0.140	0.090	0.230
2020/01/31 13:40:00.3	2.170	-0.120	0.090	0.230
2020/01/31 13:40:00.4	2.160	-0.110	0.090	0.220
2020/01/31 13:40:00.5	2.140	-0.100	0.090	0.220
2020/01/31 13:40:00.6	2.130	-0.080	0.080	0.220
2020/01/31 13:40:00.7	2.120	-0.060	0.070	0.220
2020/01/31 13:40:00.8	2.100	-0.040	0.060	0.220
2020/01/31 13:40:00.9	2.080	-0.020	0.050	0.230
2020/01/31 13:40:01.0	2.070	-0.000	0.030	0.230
2020/01/31 13:40:01.1	2.050	0.020	0.010	0.240
2020/01/31 13:40:01.2	2.030	0.040	-0.010	0.240
2020/01/31 13:40:01.3	2.010	0.060	-0.030	0.250
2020/01/31 13:40:01.4	1.990	0.080	-0.060	0.250
2020/01/31 13:40:01.5	1.970	0.100	-0.090	0.260
2020/01/31 13:40:01.6	1.950	0.120	-0.130	0.270
2020/01/31 13:40:01.7	1.930	0.140	-0.160	0.270
2020/01/31 13:40:01.8	1.910	0.160	-0.200	0.270
2020/01/31 13:40:01.9	1.890	0.180	-0.230	0.270
2020/01/31 13:40:02.0	1.870	0.200	-0.270	0.270
2020/01/31 13:40:02.1	1.850	0.210	-0.310	0.270
2020/01/31 13:40:02.2	1.830	0.230	-0.360	0.260
2020/01/31 13:40:02.3	1.810	0.240	-0.400	0.250
2020/01/31 13:40:02.4	1.790	0.250	-0.440	0.240
2020/01/31 13:40:02.5	1.770	0.260	-0.480	0.220
2020/01/31 13:40:02.6	1.760	0.270	-0.530	0.200
2020/01/31 13:40:02.7	1.750	0.280	-0.570	0.180
2020/01/31 13:40:02.8	1.730	0.280	-0.610	0.150
2020/01/31 13:40:02.9	1.720	0.290	-0.650	0.120
2020/01/31 13:40:03.0	1.710	0.290	-0.690	0.080
2020/01/31 13:40:03.1	1.710	0.290	-0.720	0.050
2020/01/31 13:40:03.2	1.700	0.290	-0.760	0.010
2020/01/31 13:40:03.3	1.700	0.290	-0.790	-0.040
2020/01/31 13:40:03.4	1.700	0.280	-0.820	-0.080
2020/01/31 13:40:03.5	1.700	0.280	-0.840	-0.130
2020/01/31 13:40:03.6	1.710	0.270	-0.860	-0.180
2020/01/31 13:40:03.7	1.720	0.260	-0.880	-0.230
2020/01/31 13:40:03.8	1.730	0.250	-0.890	-0.290
2020/01/31 13:40:03.9	1.740	0.240	-0.900	-0.340
2020/01/31 13:40:04.0	1.750	0.230	-0.900	-0.390
2020/01/31 13:40:04.1	1.760	0.220	-0.900	-0.450
2020/01/31 13:40:04.2	1.780	0.210	-0.900	-0.500
2020/01/31 13:40:04.3	1.790	0.190	-0.890	-0.550
2020/01/31 13:40:04.4	1.810	0.170	-0.870	-0.600
2020/01/31 13:40:04.5	1.820	0.160	-0.850	-0.660
2020/01/31 13:40:04.6	1.850	0.140	-0.830	-0.710
2020/01/31 13:40:04.7	1.860	0.120	-0.810	-0.760
2020/01/31 13:40:04.8	1.880	0.100	-0.770	-0.810
2020/01/31 13:40:04.9	1.890	0.070	-0.740	-0.850
2020/01/31 13:40:05.0	1.910	0.050	-0.700	-0.900
2020/01/31 13:40:05.1	1.920	0.030	-0.650	-0.950
2020/01/31 13:40:05.2	1.940	0.000	-0.610	-0.990
2020/01/31 13:40:05.3	1.950	-0.020	-0.560	-1.030
2020/01/31 13:40:05.4	1.960	-0.050	-0.510	-1.070
2020/01/31 13:40:05.5	1.980	-0.080	-0.450	-1.110
2020/01/31 13:40:05.6	1.990	-0.100	-0.400	-1.150
2020/01/31 13:40:05.7	2.010	-0.130	-0.340	-1.180
2020/01/31 13:40:05.8	2.020	-0.160	-0.280	-1.210
2020/01/31 13:40:05.9	2.040	-0.190	-0.230	-1.240
2020/01/31 13:40:06.0	2.050	-0.210	-0.170	-1.270
2020/01/31 13:40:06.1	2.060	-0.240	-0.120	-1.290
2020/01/31 13:40:06.2	2.070	-0.270	-0.060	-1.310
2020/01/31 13:40:06.3	2.090	-0.290	-0.010	-1.320
2020/01/31 13:40:06.4	2.100	-0.320	0.040	-1.330
2020/01/31 13:40:06.5	2.100	-0.350	0.090	-1.330
2020/01/31 13:40:06.6	2.110	-0.370	0.130	-1.330
2020/01/31 13:40:06.7	2.120	-0.390	0.170	-1.330
2020/01/31 13:40:06.8	2.120	-0.420	0.220	-1.320
2020/01/31 13:40:06.9	2.120	-0.440	0.250	-1.300
2020/01/31 13:40:07.0	2.120	-0.460	0.290	-1.280
2020/01/31 13:40:07.1	2.110	-0.480	0.320	-1.250
2020/01/31 13:40:07.2	2.100	-0.490	0.350	-1.220
2020/01/31 13:40:07.3	2.090	-0.510	0.370	-1.180
2020/01/31 13:40:07.4	2.070	-0.520	0.390	-1.150
2020/01/31 13:40:07.5	2.060	-0.530	0.410	-1.100
2020/01/31 13:40:07.6	2.050	-0.540	0.420	-1.060
2020/01/31 13:40:07.7	2.040	-0.550	0.430	-1.010
2020/01/31 13:40:07.8	2.020	-0.550	0.440	-0.960
2020/01/31 13:40:07.9	2.010	-0.550	0.440	-0.910
2020/01/31 13:40:08.0	1.990	-0.540	0.430	-0.860
2020/01/31 13:40:08.1	1.970	-0.540	0.430	-0.800
2020/01/31 13:40:08.2	1.960	-0.530	0.410	-0.750
2020/01/31 13:40:08.3	1.940	-0.520	0.400	-0.690
2020/01/31 13:40:08.4	1.930	-0.500	0.380	-0.630
2020/01/31 13:40:08.5	1.910	-0.480	0.360	-0.560
2020/01/31 13:40:08.6	1.890	-0.460	0.330	-0.500
2020/01/31 13:40:08.7	1.880	-0.430	0.300	-0.430
2020/01/31 13:40:08.8	1.870	-0.400	0.270	-0.370
2020/01/31 13:40:08.9	1.860	-0.360	0.240	-0.300
2020/01/31 13:40:09.0	1.850	-0.320	0.210	-0.240
2020/01/31 13:40:09.1	1.850	-0.280	0.170	-0.170
2020/01/31 13:40:09.2	1.840	-0.240	0.130	-0.100
2020/01/31 13:40:09.3	1.830	-0.190	0.090	-0.030
2020/01/31 13:40:09.4	1.830	-0.140	0.050	0.030
2020/01/31 13:40:09.5	1.830	-0.090	0.010	0.100
2020/01/31 13:40:09.6	1.820	-0.040	-0.030	0.170
2020/01/31 13:40:09.7	1.820	0.020	-0.070	0.240
2020/01/31 13:40:09.8	1.810	0.070	-0.110	0.310
2020/01/31 13:40:09.9	1.810	0.120	-0.150	0.380
2020/01/31 13:40:10.0	1.800	0.180	-0.190	0.450
2020/01/31 13:40:10.1	1.800	0.230	-0.230	0.520
2020/01/31 13:40:10.2	1.790	0.290	-0.270	0.580
2020/01/31 13:40:10.3	1.790	0.340	-0.300	0.650
2020/01/31 13:40:10.4	1.780	0.390	-0.340	0.710
2020/01/31 13:40:10.5	1.780	0.430	-0.370	0.780
2020/01/31 13:40:10.6	1.760	0.480	-0.400	0.840
2020/01/31 13:40:10.7	1.750	0.520	-0.430	0.900
2020/01/31 13:40:10.8	1.750	0.560	-0.460	0.960
2020/01/31 13:40:10.9	1.740	0.590	-0.490	1.010
2020/01/31 13:40:11.0	1.730	0.620	-0.510	1.060
2020/01/31 13:40:11.1	1.720	0.640	-0.540	1.110
2020/01/31 13:40:11.2	1.710	0.670	-0.560	1.150
2020/01/31 13:40:11.3	1.710	0.680	-0.580	1.190
2020/01/31 13:40:11.4	1.700	0.700	-0.600	1.230
2020/01/31 13:40:11.5	1.690	0.700	-0.610	1.260
2020/01/31 13:40:11.6	1.680	0.710	-0.630	1.290
2020/01/31 13:40:11.7	1.680	0.710	-0.640	1.300
2020/01/31 13:40:11.8	1.680	0.700	-0.650	1.320
2020/01/31 13:40:11.9	1.680	0.690	-0.660	1.320
2020/01/31 13:40:12.0	1.680	0.680	-0.660	1.330
2020/01/31 13:40:12.1	1.680	0.660	-0.660	1.320
2020/01/31 13:40:12.2	1.690	0.640	-0.660	1.310
2020/01/31 13:40:12.3	1.690	0.610	-0.650	1.290
2020/01/31 13:40:12.4	1.700	0.580	-0.650	1.270
2020/01/31 13:40:12.5	1.710	0.550	-0.630	1.240
2020/01/31 13:40:12.6	1.730	0.520	-0.620	1.210
2020/01/31 13:40:12.7	1.740	0.480	-0.610	1.170
2020/01/31 13:40:12.8	1.750	0.440	-0.590	1.130
2020/01/31 13:40:12.9	1.760	0.400	-0.560	1.080
2020/01/31 13:40:13.0	1.770	0.360	-0.540	1.030
2020/01/31 13:40:13.1	1.780	0.310	-0.510	0.980
2020/01/31 13:40:13.2	1.790	0.270	-0.480	0.920
2020/01/31 13:40:13.3	1.800	0.220	-0.440	0.870
2020/01/31 13:40:13.4	1.810	0.180	-0.410	0.810
2020/01/31 13:40:13.5	1.820	0.130	-0.370	0.750
2020/01/31 13:40:13.6	1.820	0.080	-0.330	0.690
2020/01/31 13:40:13.7	1.820	0.040	-0.290	0.620
2020/01/31 13:40:13.8	1.810	-0.010	-0.240	0.560
2020/01/31 13:40:13.9	1.810	-0.060	-0.200	0.500
2020/01/31 13:40:14.0	1.800	-0.100	-0.160	0.430
2020/01/31 13:40:14.1	1.790	-0.150	-0.120	0.360
2020/01/31 13:40:14.2	1.770	-0.190	-0.080	0.290
2020/01/31 13:40:14.3	1.750	-0.230	-0.040	0.220
2020/01/31 13:40:14.4	1.740	-0.280	-0.000	0.150
2020/01/31 13:40:14.5	1.720	-0.320	0.030	0.080
2020/01/31 13:40:14.6	1.700	-0.360	0.060	-0.000
2020/01/31 13:40:14.7	1.680	-0.400	0.090	-0.080
2020/01/31 13:40:14.8	1.660	-0.430	0.110	-0.160
2020/01/31 13:40:14.9	1.640	-0.470	0.130	-0.240
2020/01/31 13:40:15.0	1.620	-0.500	0.140	-0.330
2020/01/31 13:40:15.1	1.600	-0.530	0.150	-0.420
2020/01/31 13:40:15.2	1.580	-0.560	0.150	-0.500
2020/01/31 13:40:15.3	1.560	-0.580	0.150	-0.590
2020/01/31 13:40:15.4	1.550	-0.610	0.140	-0.680
2020/01/31 13:40:15.5	1.540	-0.630	0.130	-0.770
2020/01/31 13:40:15.6	1.540	-0.640	0.110	-0.860
2020/01/31 13:40:15.7	1.530	-0.660	0.090	-0.950
2020/01/31 13:40:15.8	1.530	-0.670	0.070	-1.040
2020/01/31 13:40:15.9	1.530	-0.670	0.040	-1.130
2020/01/31 13:40:16.0	1.530	-0.670	0.000	-1.220
2020/01/31 13:40:16.1	1.540	-0.670	-0.030	-1.310
2020/01/31 13:40:16.2	1.550	-0.670	-0.070	-1.400
2020/01/31 13:40:16.3	1.560	-0.660	-0.120	-1.480
2020/01/31 13:40:16.4	1.580	-0.650	-0.160	-1.570
2020/01/31 13:40:16.5	1.600	-0.640	-0.210	-1.650
2020/01/31 13:40:16.6	1.620	-0.620	-0.250	-1.720
2020/01/31 13:40:16.7	1.650	-0.600	-0.300	-1.800
2020/01/31 13:40:16.8	1.670	-0.580	-0.350	-1.870
2020/01/31 13:40:16.9	1.690	-0.550	-0.390	-1.930
2020/01/31 13:40:17.0	1.710	-0.520	-0.430	-1.990
2020/01/31 13:40:17.1	1.740	-0.490	-0.470	-2.050
2020/01/31 13:40:17.2	1.760	-0.460	-0.500	-2.100
2020/01/31 13:40:17.3	1.780	-0.430	-0.540	-2.140
2020/01/31 13:40:17.4	1.800	-0.390	-0.560	-2.180
2020/01/31 13:40:17.5	1.810	-0.360	-0.590	-2.210
2020/01/31 13:40:17.6	1.840	-0.320	-0.610	-2.240
2020/01/31 13:40:17.7	1.860	-0.280	-0.620	-2.260
2020/01/31 13:40:17.8	1.870	-0.250	-0.630	-2.270
2020/01/31 13:40:17.9	1.890	-0.210	-0.640	-2.280
2020/01/31 13:40:18.0	1.900	-0.180	-0.640	-2.280
2020/01/31 13:40:18.1	1.910	-0.140	-0.640	-2.270
2020/01/31 13:40:18.2	1.910	-0.110	-0.630	-2.250
2020/01/31 13:40:18.3	1.920	-0.080	-0.610	-2.230
2020/01/31 13:40:18.4	1.930	-0.050	-0.600	-2.200
2020/01/31 13:40:18.5	1.930	-0.020	-0.570	-2.170
2020/01/31 13:40:18.6	1.930	0.010	-0.550	-2.120
2020/01/31 13:40:18.7	1.930	0.040	-0.530	-2.070
2020/01/31 13:40:18.8	1.930	0.060	-0.490	-2.010
2020/01/31 13:40:18.9	1.930	0.080	-0.460	-1.940
2020/01/31 13:40:19.0	1.920	0.100	-0.420	-1.870
2020/01/31 13:40:19.1	1.910	0.120	-0.390	-1.800
2020/01/31 13:40:19.2	1.900	0.140	-0.340	-1.710
2020/01/31 13:40:19.3	1.890	0.160	-0.300	-1.620
2020/01/31 13:40:19.4	1.880	0.170	-0.260	-1.530
2020/01/31 13:40:19.5	1.870	0.190	-0.220	-1.430
2020/01/31 13:40:19.6	1.850	0.200	-0.180	-1.320
2020/01/31 13:40:19.7	1.830	0.210	-0.140	-1.210
2020/01/31 13:40:19.8	1.810	0.220	-0.100	-1.100
2020/01/31 13:40:19.9	1.790	0.230	-0.070	-0.990
2020/01/31 13:40:20.0	1.770	0.240	-0.030	-0.870
2020/01/31 13:40:20.1	1.740	0.250	0.000	-0.760
2020/01/31 13:40:20.2	1.720	0.260	0.030	-0.640
2020/01/31 13:40:20.3	1.700	0.270	0.060	-0.520
2020/01/31 13:40:20.4	1.670	0.290	0.080	-0.400
2020/01/31 13:40:20.5	1.650	0.300	0.100	-0.280
2020/01/31 13:40:20.6	1.640	0.310	0.110	-0.160
2020/01/31 13:40:20.7	1.620	0.330	0.120	-0.040
2020/01/31 13:40:20.8	1.590	0.340	0.130	0.070
2020/01/31 13:40:20.9	1.570	0.360	0.130	0.190
2020/01/31 13:40:21.0	1.550	0.380	0.130	0.300
2020/01/31 13:40:21.1	1.530	0.400	0.120	0.410
2020/01/31 13:40:21.2	1.510	0.420	0.110	0.520
2020/01/31 13:40:21.3	1.490	0.440	0.100	0.630
2020/01/31 13:40:21.4	1.470	0.470	0.080	0.730
2020/01/31 13:40:21.5	1.460	0.490	0.050	0.830
2020/01/31 13:40:21.6	1.430	0.510	0.020	0.930
2020/01/31 13:40:21.7	1.420	0.530	-0.010	1.030
2020/01/31 13:40:21.8	1.400	0.550	-0.040	1.120
2020/01/31 13:40:21.9	1.390	0.560	-0.070	1.200
2020/01/31 13:40:22.0	1.370	0.580	-0.110	1.280
2020/01/31 13:40:22.1	1.360	0.590	-0.150	1.360
2020/01/31 13:40:22.2	1.350	0.600	-0.190	1.420
2020/01/31 13:40:22.3	1.340	0.610	-0.230	1.490
2020/01/31 13:40:22.4	1.330	0.610	-0.270	1.540
2020/01/31 13:40:22.5	1.320	0.610	-0.310	1.590
2020/01/31 13:40:22.6	1.310	0.610	-0.360	1.630
2020/01/31 13:40:22.7	1.310	0.600	-0.400	1.670
2020/01/31 13:40:22.8	1.320	0.590	-0.440	1.690
2020/01/31 13:40:22.9	1.320	0.580	-0.490	1.700
2020/01/31 13:40:23.0	1.330	0.560	-0.530	1.710
2020/01/31 13:40:23.1	1.350	0.540	-0.570	1.710
2020/01/31 13:40:23.2	1.360	0.510	-0.610	1.700
2020/01/31 13:40:23.3	1.380	0.490	-0.650	1.690
2020/01/31 13:40:23.4	1.410	0.450	-0.690	1.660
2020/01/31 13:40:23.5	1.440	0.420	-0.720	1.630
2020/01/31 13:40:23.6	1.460	0.380	-0.750	1.580
2020/01/31 13:40:23.7	1.500	0.350	-0.780	1.530
2020/01/31 13:40:23.8	1.540	0.300	-0.800	1.480
2020/01/31 13:40:23.9	1.580	0.260	-0.820	1.420
2020/01/31 13:40:24.0	1.620	0.220	-0.840	1.350
2020/01/31 13:40:24.1	1.670	0.170	-0.850	1.280
2020/01/31 13:40:24.2	1.710	0.120	-0.850	1.210
2020/01/31 13:40:24.3	1.750	0.070	-0.840	1.130
2020/01/31 13:40:24.4	1.790	0.020	-0.830	1.050
2020/01/31 13:40:24.5	1.830	-0.030	-0.800	0.980
2020/01/31 13:40:24.6	1.860	-0.080	-0.780	0.890
2020/01/31 13:40:24.7	1.890	-0.130	-0.740	0.820
2020/01/31 13:40:24.8	1.920	-0.180	-0.690	0.740
2020/01/31 13:40:24.9	1.940	-0.230	-0.630	0.660
2020/01/31 13:40:25.0	1.960	-0.280	-0.560	0.590
2020/01/31 13:40:25.1	1.970	-0.330	-0.490	0.510
2020/01/31 13:40:25.2	1.980	-0.380	-0.410	0.440
2020/01/31 13:40:25.3	1.980	-0.430	-0.330	0.380
2020/01/31 13:40:25.4	1.980	-0.480	-0.240	0.310
2020/01/31 13:40:25.5	1.970	-0.520	-0.140	0.250
2020/01/31 13:40:25.6	1.960	-0.560	-0.040	0.190
2020/01/31 13:40:25.7	1.950	-0.600	0.060	0.140
2020/01/31 13:40:25.8	1.930	-0.640	0.160	0.090
2020/01/31 13:40:25.9	1.900	-0.680	0.250	0.040
2020/01/31 13:40:26.0	1.880	-0.710	0.350	0.000
2020/01/31 13:40:26.1	1.850	-0.740	0.440	-0.040
2020/01/31 13:40:26.2	1.820	-0.760	0.530	-0.070
2020/01/31 13:40:26.3	1.780	-0.780	0.610	-0.110
2020/01/31 13:40:26.4	1.750	-0.800	0.680	-0.140
2020/01/31 13:40:26.5	1.710	-0.820	0.740	-0.170
2020/01/31 13:40:26.6	1.670	-0.830	0.790	-0.190
2020/01/31 13:40:26.7	1.640	-0.840	0.840	-0.220
2020/01/31 13:40:26.8	1.600	-0.840	0.880	-0.250
2020/01/31 13:40:26.9	1.560	-0.840	0.900	-0.270
2020/01/31 13:40:27.0	1.530	-0.830	0.920	-0.300
2020/01/31 13:40:27.1	1.490	-0.820	0.920	-0.330
2020/01/31 13:40:27.2	1.460	-0.810	0.910	-0.360
2020/01/31 13:40:27.3	1.430	-0.790	0.890	-0.390
2020/01/31 13:40:27.4	1.400	-0.770	0.860	-0.420
2020/01/31 13:40:27.5	1.370	-0.750	0.820	-0.450
2020/01/31 13:40:27.6	1.350	-0.720	0.770	-0.490
2020/01/31 13:40:27.7	1.330	-0.680	0.710	-0.530
2020/01/31 13:40:27.8	1.310	-0.640	0.640	-0.570
2020/01/31 13:40:27.9	1.290	-0.600	0.560	-0.610
2020/01/31 13:40:28.0	1.270	-0.560	0.480	-0.640
2020/01/31 13:40:28.1	1.260	-0.510	0.390	-0.680
2020/01/31 13:40:28.2	1.240	-0.460	0.290	-0.720
2020/01/31 13:40:28.3	1.230	-0.410	0.190	-0.760
2020/01/31 13:40:28.4	1.220	-0.360	0.090	-0.800
2020/01/31 13:40:28.5	1.220	-0.300	-0.010	-0.830
2020/01/31 13:40:28.6	1.220	-0.250	-0.110	-0.860
2020/01/31 13:40:28.7	1.220	-0.190	-0.220	-0.890
2020/01/31 13:40:28.8	1.220	-0.130	-0.310	-0.920
2020/01/31 13:40:28.9	1.210	-0.070	-0.410	-0.950
2020/01/31 13:40:29.0	1.210	-0.020	-0.500	-0.970
2020/01/31 13:40:29.1	1.210	0.040	-0.590	-0.980
2020/01/31 13:40:29.2	1.210	0.090	-0.670	-1.000
2020/01/31 13:40:29.3	1.210	0.140	-0.750	-1.010
2020/01/31 13:40:29.4	1.210	0.200	-0.820	-1.010
2020/01/31 13:40:29.5	1.220	0.240	-0.880	-1.020
2020/01/31 13:40:29.6	1.210	0.290	-0.940	-1.010
2020/01/31 13:40:29.7	1.220	0.330	-0.990	-1.010
2020/01/31 13:40:29.8	1.230	0.380	-1.030	-1.000
2020/01/31 13:40:29.9	1.230	0.410	-1.060	-0.990
2020/01/31 13:40:30.0	1.240	0.450	-1.090	-0.970
2020/01/31 13:40:30.1	1.250	0.480	-1.120	-0.960
2020/01/31 13:40:30.2	1.260	0.500	-1.130	-0.940
2020/01/31 13:40:30.3	1.270	0.530	-1.140	-0.920
2020/01/31 13:40:30.4	1.280	0.550	-1.150	-0.900
2020/01/31 13:40:30.5	1.290	0.560	-1.150	-0.870
2020/01/31 13:40:30.6	1.300	0.570	-1.140	-0.850
2020/01/31 13:40:30.7	1.320	0.580	-1.130	-0.830
2020/01/31 13:40:30.8	1.330	0.590	-1.120	-0.810
2020/01/31 13:40:30.9	1.350	0.590	-1.100	-0.780
2020/01/31 13:40:31.0	1.370	0.590	-1.080	-0.760
2020/01/31 13:40:31.1	1.390	0.580	-1.050	-0.740
2020/01/31 13:40:31.2	1.410	0.580	-1.020	-0.720
2020/01/31 13:40:31.3	1.440	0.570	-0.990	-0.700
2020/01/31 13:40:31.4	1.460	0.550	-0.960	-0.680
2020/01/31 13:40:31.5	1.490	0.540	-0.920	-0.670
2020/01/31 13:40:31.6	1.500	0.520	-0.890	-0.650
2020/01/31 13:40:31.7	1.530	0.500	-0.850	-0.630
2020/01/31 13:40:31.8	1.560	0.480	-0.810	-0.610
2020/01/31 13:40:31.9	1.580	0.460	-0.760	-0.590
2020/01/31 13:40:32.0	1.610	0.430	-0.720	-0.580
2020/01/31 13:40:32.1	1.630	0.410	-0.670	-0.560
2020/01/31 13:40:32.2	1.660	0.380	-0.610	-0.540
2020/01/31 13:40:32.3	1.680	0.350	-0.560	-0.520
2020/01/31 13:40:32.4	1.700	0.320	-0.510	-0.490
2020/01/31 13:40:32.5	1.720	0.290	-0.450	-0.470
2020/01/31 13:40:32.6	1.740	0.260	-0.390	-0.440
2020/01/31 13:40:32.7	1.760	0.230	-0.340	-0.410
2020/01/31 13:40:32.8	1.770	0.190	-0.270	-0.380
2020/01/31 13:40:32.9	1.780	0.160	-0.210	-0.350
2020/01/31 13:40:33.0	1.790	0.120	-0.160	-0.310
2020/01/31 13:40:33.1	1.790	0.090	-0.100	-0.280
2020/01/31 13:40:33.2	1.800	0.050	-0.040	-0.250
2020/01/31 13:40:33.3	1.800	0.020	0.020	-0.210
2020/01/31 13:40:33.4	1.800	-0.020	0.070	-0.180
2020/01/31 13:40:33.5	1.810	-0.050	0.120	-0.150
2020/01/31 13:40:33.6	1.800	-0.090	0.170	-0.110
2020/01/31 13:40:33.7	1.800	-0.120	0.210	-0.080
2020/01/31 13:40:33.8	1.800	-0.160	0.250	-0.060
2020/01/31 13:40:33.9	1.800	-0.190	0.290	-0.030
2020/01/31 13:40:34.0	1.790	-0.220	0.320	-0.010
2020/01/31 13:40:34.1	1.790	-0.260	0.340	0.010
2020/01/31 13:40:34.2	1.780	-0.290	0.360	0.030
2020/01/31 13:40:34.3	1.780	-0.310	0.380	0.040
2020/01/31 13:40:34.4	1.770	-0.340	0.390	0.060
2020/01/31 13:40:34.5	1.760	-0.360	0.390	0.070
2020/01/31 13:40:34.6	1.750	-0.380	0.390	0.080
2020/01/31 13:40:34.7	1.740	-0.400	0.380	0.090
2020/01/31 13:40:34.8	1.730	-0.420	0.370	0.090
2020/01/31 13:40:34.9	1.720	-0.430	0.350	0.100
2020/01/31 13:40:35.0	1.710	-0.440	0.330	0.100
2020/01/31 13:40:35.1	1.700	-0.440	0.310	0.100
2020/01/31 13:40:35.2	1.680	-0.440	0.280	0.110
2020/01/31 13:40:35.3	1.670	-0.440	0.250	0.110
2020/01/31 13:40:35.4	1.650	-0.430	0.220	0.120
2020/01/31 13:40:35.5	1.630	-0.420	0.190	0.130
2020/01/31 13:40:35.6	1.620	-0.410	0.150	0.130
2020/01/31 13:40:35.7	1.600	-0.390	0.110	0.140
2020/01/31 13:40:35.8	1.580	-0.370	0.080	0.150
2020/01/31 13:40:35.9	1.560	-0.340	0.040	0.170
2020/01/31 13:40:36.0	1.540	-0.310	0.000	0.180
2020/01/31 13:40:36.1	1.520	-0.270	-0.040	0.200
2020/01/31 13:40:36.2	1.500	-0.230	-0.070	0.220
2020/01/31 13:40:36.3	1.480	-0.190	-0.110	0.240
2020/01/31 13:40:36.4	1.460	-0.150	-0.140	0.260
2020/01/31 13:40:36.5	1.430	-0.100	-0.170	0.280
2020/01/31 13:40:36.6	1.410	-0.050	-0.210	0.310
2020/01/31 13:40:36.7	1.390	-0.010	-0.240	0.330
2020/01/31 13:40:36.8	1.370	0.050	-0.270	0.360
2020/01/31 13:40:36.9	1.350	0.100	-0.290	0.380
2020/01/31 13:40:37.0	1.330	0.150	-0.320	0.410
2020/01/31 13:40:37.1	1.310	0.200	-0.340	0.440
2020/01/31 13:40:37.2	1.290	0.250	-0.370	0.460
2020/01/31 13:40:37.3	1.270	0.290	-0.380	0.490
2020/01/31 13:40:37.4	1.260	0.340	-0.400	0.510
2020/01/31 13:40:37.5	1.240	0.380	-0.410	0.530
2020/01/31 13:40:37.6	1.220	0.420	-0.430	0.550
2020/01/31 13:40:37.7	1.200	0.460	-0.440	0.570
2020/01/31 13:40:37.8	1.190	0.490	-0.440	0.580
2020/01/31 13:40:37.9	1.180	0.520	-0.440	0.600
2020/01/31 13:40:38.0	1.160	0.540	-0.440	0.610
2020/01/31 13:40:38.1	1.160	0.560	-0.440	0.610
2020/01/31 13:40:38.2	1.150	0.580	-0.430	0.610
2020/01/31 13:40:38.3	1.140	0.590	-0.420	0.610
2020/01/31 13:40:38.4	1.140	0.590	-0.410	0.610
2020/01/31 13:40:38.5	1.130	0.590	-0.400	0.610
2020/01/31 13:40:38.6	1.130	0.580	-0.380	0.600
2020/01/31 13:40:38.7	1.130	0.570	-0.370	0.590
2020/01/31 13:40:38.8	1.140	0.550	-0.350	0.580
2020/01/31 13:40:38.9	1.140	0.530	-0.330	0.560
2020/01/31 13:40:39.0	1.150	0.500	-0.300	0.550
2020/01/31 13:40:39.1	1.150	0.470	-0.280	0.530
2020/01/31 13:40:39.2	1.160	0.430	-0.260	0.520
2020/01/31 13:40:39.3	1.170	0.390	-0.230	0.500
2020/01/31 13:40:39.4	1.180	0.350	-0.210	0.480
2020/01/31 13:40:39.5	1.200	0.310	-0.180	0.450
2020/01/31 13:40:39.6	1.210	0.260	-0.150	0.430
2020/01/31 13:40:39.7	1.230	0.200	-0.130	0.410
2020/01/31 13:40:39.8	1.240	0.150	-0.100	0.380
2020/01/31 13:40:39.9	1.260	0.100	-0.080	0.360
2020/01/31 13:40:40.0	1.280	0.040	-0.060	0.330
2020/01/31 13:40:40.1	1.300	-0.020	-0.040	0.290
2020/01/31 13:40:40.2	1.320	-0.080	-0.020	0.260
2020/01/31 13:40:40.3	1.350	-0.130	-0.010	0.220
2020/01/31 13:40:40.4	1.370	-0.190	-0.000	0.170
2020/01/31 13:40:40.5	1.400	-0.240	0.010	0.130
2020/01/31 13:40:40.6	1.440	-0.300	0.010	0.080
2020/01/31 13:40:40.7	1.470	-0.350	0.010	0.030
2020/01/31 13:40:40.8	1.500	-0.400	0.000	-0.030
2020/01/31 13:40:40.9	1.540	-0.450	-0.000	-0.090
2020/01/31 13:40:41.0	1.570	-0.490	-0.020	-0.150
2020/01/31 13:40:41.1	1.600	-0.530	-0.030	-0.220
2020/01/31 13:40:41.2	1.640	-0.570	-0.050	-0.280
2020/01/31 13:40:41.3	1.670	-0.600	-0.060	-0.340
2020/01/31 13:40:41.4	1.700	-0.630	-0.080	-0.410
2020/01/31 13:40:41.5	1.720	-0.650	-0.100	-0.470
2020/01/31 13:40:41.6	1.760	-0.670	-0.120	-0.520
2020/01/31 13:40:41.7	1.780	-0.690	-0.140	-0.580
2020/01/31 13:40:41.8	1.800	-0.700	-0.160	-0.630
2020/01/31 13:40:41.9	1.810	-0.710	-0.180	-0.680
2020/01/31 13:40:42.0	1.820	-0.720	-0.190	-0.720
2020/01/31 13:40:42.1	1.830	-0.720	-0.200	-0.760
2020/01/31 13:40:42.2	1.830	-0.710	-0.220	-0.790
2020/01/31 13:40:42.3	1.830	-0.700	-0.230	-0.820
2020/01/31 13:40:42.4	1.820	-0.690	-0.240	-0.840
2020/01/31 13:40:42.5	1.810	-0.680	-0.250	-0.860
2020/01/31 13:40:42.6	1.810	-0.660	-0.260	-0.870
2020/01/31 13:40:42.7	1.790	-0.630	-0.270	-0.880
2020/01/31 13:40:42.8	1.770	-0.610	-0.280	-0.890
2020/01/31 13:40:42.9	1.750	-0.580	-0.280	-0.890
2020/01/31 13:40:43.0	1.730	-0.550	-0.290	-0.890
2020/01/31 13:40:43.1	1.700	-0.510	-0.300	-0.880
2020/01/31 13:40:43.2	1.680	-0.470	-0.300	-0.870
2020/01/31 13:40:43.3	1.650	-0.430	-0.310	-0.860
2020/01/31 13:40:43.4	1.620	-0.390	-0.320	-0.840
2020/01/31 13:40:43.5	1.590	-0.350	-0.330	-0.830
2020/01/31 13:40:43.6	1.560	-0.300	-0.350	-0.810
2020/01/31 13:40:43.7	1.530	-0.250	-0.360	-0.790
2020/01/31 13:40:43.8	1.500	-0.200	-0.370	-0.760
2020/01/31 13:40:43.9	1.480	-0.150	-0.390	-0.740
2020/01/31 13:40:44.0	1.450	-0.100	-0.400	-0.710
2020/01/31 13:40:44.1	1.430	-0.050	-0.420	-0.690
2020/01/31 13:40:44.2	1.410	0.000	-0.440	-0.660
2020/01/31 13:40:44.3	1.380	0.060	-0.460	-0.640
2020/01/31 13:40:44.4	1.360	0.110	-0.480	-0.610
2020/01/31 13:40:44.5	1.340	0.160	-0.500	-0.580
2020/01/31 13:40:44.6	1.310	0.220	-0.520	-0.550
2020/01/31 13:40:44.7	1.300	0.270	-0.540	-0.520
2020/01/31 13:40:44.8	1.280	0.320	-0.560	-0.500
2020/01/31 13:40:44.9	1.270	0.370	-0.580	-0.470
2020/01/31 13:40:45.0	1.260	0.420	-0.600	-0.450
2020/01/31 13:40:45.1	1.250	0.460	-0.610	-0.420
2020/01/31 13:40:45.2	1.240	0.510	-0.630	-0.400
2020/01/31 13:40:45.3	1.240	0.550	-0.640	-0.370
2020/01/31 13:40:45.4	1.240	0.590	-0.650	-0.350
2020/01/31 13:40:45.5	1.240	0.620	-0.660	-0.330
2020/01/31 13:40:45.6	1.250	0.650	-0.670	-0.310
2020/01/31 13:40:45.7	1.260	0.680	-0.670	-0.290
2020/01/31 13:40:45.8	1.270	0.710	-0.670	-0.270
2020/01/31 13:40:45.9	1.280	0.730	-0.670	-0.250
2020/01/31 13:40:46.0	1.300	0.750	-0.660	-0.240
2020/01/31 13:40:46.1	1.320	0.760	-0.650	-0.220
2020/01/31 13:40:46.2	1.340	0.770	-0.640	-0.210
2020/01/31 13:40:46.3	1.360	0.770	-0.620	-0.190
2020/01/31 13:40:46.4	1.390	0.770	-0.600	-0.180
2020/01/31 13:40:46.5	1.410	0.770	-0.580	-0.170
2020/01/31 13:40:46.6	1.440	0.760	-0.550	-0.150
2020/01/31 13:40:46.7	1.470	0.740	-0.520	-0.130
2020/01/31 13:40:46.8	1.490	0.720	-0.480	-0.120
2020/01/31 13:40:46.9	1.510	0.700	-0.440	-0.100
2020/01/31 13:40:47.0	1.530	0.670	-0.390	-0.080
2020/01/31 13:40:47.1	1.550	0.630	-0.340	-0.060
2020/01/31 13:40:47.2	1.560	0.590	-0.290	-0.030
2020/01/31 13:40:47.3	1.570	0.550	-0.230	-0.010
2020/01/31 13:40:47.4	1.570	0.500	-0.170	0.020
2020/01/31 13:40:47.5	1.580	0.450	-0.110	0.040
2020/01/31 13:40:47.6	1.570	0.390	-0.050	0.080
2020/01/31 13:40:47.7	1.570	0.340	0.010	0.110
2020/01/31 13:40:47.8	1.560	0.280	0.070	0.130
2020/01/31 13:40:47.9	1.550	0.210	0.130	0.160
2020/01/31 13:40:48.0	1.540	0.150	0.190	0.190
2020/01/31 13:40:48.1	1.530	0.080	0.250	0.220
2020/01/31 13:40:48.2	1.510	0.020	0.310	0.250
2020/01/31 13:40:48.3	1.500	-0.050	0.360	0.280
2020/01/31 13:40:48.4	1.480	-0.110	0.410	0.310
2020/01/31 13:40:48.5	1.460	-0.170	0.450	0.340
2020/01/31 13:40:48.6	1.450	-0.240	0.490	0.360
2020/01/31 13:40:48.7	1.430	-0.290	0.520	0.380
2020/01/31 13:40:48.8	1.420	-0.350	0.550	0.410
2020/01/31 13:40:48.9	1.400	-0.400	0.570	0.430
2020/01/31 13:40:49.0	1.380	-0.450	0.580	0.440
2020/01/31 13:40:49.1	1.370	-0.490	0.590	0.460
2020/01/31 13:40:49.2	1.360	-0.530	0.590	0.470
2020/01/31 13:40:49.3	1.350	-0.570	0.580	0.480
2020/01/31 13:40:49.4	1.330	-0.600	0.570	0.490
2020/01/31 13:40:49.5	1.330	-0.620	0.550	0.490
2020/01/31 13:40:49.6	1.320	-0.630	0.520	0.490
2020/01/31 13:40:49.7	1.320	-0.650	0.480	0.490
2020/01/31 13:40:49.8	1.310	-0.650	0.440	0.490
2020/01/31 13:40:49.9	1.310	-0.650	0.400	0.480
2020/01/31 13:40:50.0	1.310	-0.640	0.350	0.470
2020/01/31 13:40:50.1	1.320	-0.630	0.290	0.450
2020/01/31 13:40:50.2	1.320	-0.610	0.230	0.440
2020/01/31 13:40:50.3	1.330	-0.590	0.170	0.420
2020/01/31 13:40:50.4	1.340	-0.560	0.100	0.400
2020/01/31 13:40:50.5	1.350	-0.530	0.040	0.370
2020/01/31 13:40:50.6	1.360	-0.500	-0.030	0.350
2020/01/31 13:40:50.7	1.370	-0.460	-0.100	0.330
2020/01/31 13:40:50.8	1.380	-0.420	-0.160	0.300
2020/01/31 13:40:50.9	1.390	-0.380	-0.230	0.280
2020/01/31 13:40:51.0	1.400	-0.340	-0.290	0.250
2020/01/31 13:40:51.1	1.410	-0.290	-0.350	0.230
2020/01/31 13:40:51.2	1.410	-0.250	-0.410	0.200
2020/01/31 13:40:51.3	1.410	-0.210	-0.460	0.180
2020/01/31 13:40:51.4	1.420	-0.160	-0.510	0.160
2020/01/31 13:40:51.5	1.410	-0.120	-0.550	0.140
2020/01/31 13:40:51.6	1.420	-0.090	-0.590	0.120
2020/01/31 13:40:51.7	1.410	-0.050	-0.620	0.100
2020/01/31 13:40:51.8	1.410	-0.020	-0.650	0.080
2020/01/31 13:40:51.9	1.400	0.010	-0.680	0.070
2020/01/31 13:40:52.0	1.400	0.040	-0.700	0.050
2020/01/31 13:40:52.1	1.390	0.070	-0.710	0.040
2020/01/31 13:40:52.2	1.380	0.090	-0.720	0.020
2020/01/31 13:40:52.3	1.370	0.100	-0.730	0.000
2020/01/31 13:40:52.4	1.360	0.120	-0.730	-0.010
2020/01/31 13:40:52.5	1.360	0.130	-0.730	-0.030
2020/01/31 13:40:52.6	1.350	0.130	-0.730	-0.040
2020/01/31 13:40:52.7	1.340	0.140	-0.730	-0.050
2020/01/31 13:40:52.8	1.340	0.140	-0.720	-0.070
2020/01/31 13:40:52.9	1.330	0.130	-0.710	-0.090
2020/01/31 13:40:53.0	1.330	0.130	-0.710	-0.110
2020/01/31 13:40:53.1	1.340	0.120	-0.700	-0.130
2020/01/31 13:40:53.2	1.340	0.110	-0.690	-0.160
2020/01/31 13:40:53.3	1.350	0.100	-0.680	-0.180
2020/01/31 13:40:53.4	1.360	0.090	-0.670	-0.210
2020/01/31 13:40:53.5	1.360	0.080	-0.660	-0.240
2020/01/31 13:40:53.6	1.380	0.060	-0.650	-0.270
2020/01/31 13:40:53.7	1.390	0.050	-0.640	-0.300
2020/01/31 13:40:53.8	1.400	0.040	-0.630	-0.330
2020/01/31 13:40:53.9	1.410	0.020	-0.620	-0.360
2020/01/31 13:40:54.0	1.430	0.010	-0.600	-0.390
2020/01/31 13:40:54.1	1.440	-0.000	-0.590	-0.430
2020/01/31 13:40:54.2	1.450	-0.010	-0.580	-0.460
2020/01/31 13:40:54.3	1.460	-0.020	-0.560	-0.490
2020/01/31 13:40:54.4	1.470	-0.030	-0.540	-0.520
2020/01/31 13:40:54.5	1.470	-0.030	-0.520	-0.540
2020/01/31 13:40:54.6	1.480	-0.030	-0.500	-0.560
2020/01/31 13:40:54.7	1.480	-0.030	-0.480	-0.580
2020/01/31 13:40:54.8	1.480	-0.030	-0.450	-0.600
2020/01/31 13:40:54.9	1.480	-0.030	-0.420	-0.620
2020/01/31 13:40:55.0	1.470	-0.020	-0.390	-0.630
2020/01/31 13:40:55.1	1.460	-0.010	-0.360	-0.630
2020/01/31 13:40:55.2	1.450	-0.000	-0.320	-0.630
2020/01/31 13:40:55.3	1.430	0.010	-0.280	-0.630
2020/01/31 13:40:55.4	1.410	0.020	-0.240	-0.620
2020/01/31 13:40:55.5	1.390	0.040	-0.200	-0.610
2020/01/31 13:40:55.6	1.370	0.060	-0.160	-0.600
2020/01/31 13:40:55.7	1.340	0.070	-0.120	-0.580
2020/01/31 13:40:55.8	1.320	0.090	-0.080	-0.560
2020/01/31 13:40:55.9	1.290	0.110	-0.040	-0.530
2020/01/31 13:40:56.0	1.270	0.130	0.000	-0.500
2020/01/31 13:40:56.1	1.240	0.150	0.040	-0.480
2020/01/31 13:40:56.2	1.220	0.170	0.080	-0.450
2020/01/31 13:40:56.3	1.190	0.190	0.110	-0.410
2020/01/31 13:40:56.4	1.170	0.210	0.140	-0.380
2020/01/31 13:40:56.5	1.150	0.230	0.160	-0.350
2020/01/31 13:40:56.6	1.130	0.250	0.190	-0.310
2020/01/31 13:40:56.7	1.110	0.270	0.200	-0.280
2020/01/31 13:40:56.8	1.100	0.290	0.220	-0.250
2020/01/31 13:40:56.9	1.080	0.300	0.230	-0.210
2020/01/31 13:40:57.0	1.070	0.310	0.230	-0.180
2020/01/31 13:40:57.1	1.060	0.330	0.230	-0.150
2020/01/31 13:40:57.2	1.050	0.340	0.230	-0.120
2020/01/31 13:40:57.3	1.050	0.350	0.220	-0.100
2020/01/31 13:40:57.4	1.040	0.350	0.220	-0.070
2020/01/31 13:40:57.5	1.040	0.360	0.200	-0.050
2020/01/31 13:40:57.6	1.030	0.360	0.190	-0.020
2020/01/31 13:40:57.7	1.030	0.360	0.170	0.000
2020/01/31 13:40:57.8	1.030	0.350	0.150	0.020
2020/01/31 13:40:57.9	1.030	0.350	0.130	0.040
2020/01/31 13:40:58.0	1.030	0.340	0.100	0.060
2020/01/31 13:40:58.1	1.040	0.330	0.080	0.080
2020/01/31 13:40:58.2	1.040	0.320	0.050	0.090
2020/01/31 13:40:58.3	1.040	0.310	0.030	0.110
2020/01/31 13:40:58.4	1.040	0.290	0.000	0.120
2020/01/31 13:40:58.5	1.050	0.270	-0.030	0.140
2020/01/31 13:40:58.6	1.050	0.250	-0.060	0.150
2020/01/31 13:40:58.7	1.050	0.230	-0.090	0.170
2020/01/31 13:40:58.8	1.060	0.210	-0.110	0.180
2020/01/31 13:40:58.9	1.060	0.190	-0.140	0.190
2020/01/31 13:40:59.0	1.070	0.170	-0.170	0.200
2020/01/31 13:40:59.1	1.080	0.150	-0.200	0.210
2020/01/31 13:40:59.2	1.090	0.120	-0.230	0.220
2020/01/31 13:40:59.3	1.100	0.100	-0.260	0.230
2020/01/31 13:40:59.4	1.110	0.070	-0.290	0.230
2020/01/31 13:40:59.5	1.130	0.050	-0.320	0.240
2020/01/31 13:40:59.6	1.140	0.020	-0.340	0.240
2020/01/31 13:40:59.7	1.160	-0.000	-0.370	0.240
2020/01/31 13:40:59.8	1.180	-0.030	-0.400	0.240
2020/01/31 13:40:59.9	1.200	-0.050	-0.420	0.230
2020/01/31 13:41:00.0	1.210	-0.070	-0.450	0.220
2020/01/31 13:41:00.1	1.230	-0.100	-0.470	0.200
2020/01/31 13:41:00.2	1.250	-0.120	-0.490	0.180
2020/01/31 13:41:00.3	1.270	-0.140	-0.510	0.160
2020/01/31 13:41:00.4	1.290	-0.160	-0.530	0.140
2020/01/31 13:41:00.5	1.310	-0.190	-0.550	0.120
2020/01/31 13:41:00.6	1.330	-0.210	-0.570	0.090
2020/01/31 13:41:00.7	1.350	-0.230	-0.590	0.060
2020/01/31 13:41:00.8	1.360	-0.240	-0.600	0.030
2020/01/31 13:41:00.9	1.380	-0.260	-0.610	0.000
2020/01/31 13:41:01.0	1.390	-0.280	-0.620	-0.030
2020/01/31 13:41:01.1	1.400	-0.290	-0.630	-0.050
2020/01/31 13:41:01.2	1.410	-0.310	-0.630	-0.080
2020/01/31 13:41:01.3	1.430	-0.320	-0.640	-0.110
2020/01/31 13:41:01.4	1.430	-0.340	-0.640	-0.140
2020/01/31 13:41:01.5	1.440	-0.350	-0.640	-0.170
2020/01/31 13:41:01.6	1.450	-0.360	-0.630	-0.190
2020/01/31 13:41:01.7	1.450	-0.370	-0.630	-0.220
2020/01/31 13:41:01.8	1.450	-0.380	-0.620	-0.250
2020/01/31 13:41:01.9	1.450	-0.390	-0.620	-0.270
2020/01/31 13:41:02.0	1.450	-0.400	-0.610	-0.290
2020/01/31 13:41:02.1	1.450	-0.410	-0.600	-0.310
2020/01/31 13:41:02.2	1.440	-0.410	-0.590	-0.330
2020/01/31 13:41:02.3	1.440	-0.420	-0.570	-0.350
2020/01/31 13:41:02.4	1.430	-0.420	-0.560	-0.370
2020/01/31 13:41:02.5	1.430	-0.420	-0.540	-0.390
2020/01/31 13:41:02.6	1.420	-0.420	-0.530	-0.400
2020/01/31 13:41:02.7	1.420	-0.410	-0.510	-0.410
2020/01/31 13:41:02.8	1.410	-0.410	-0.500	-0.430
2020/01/31 13:41:02.9	1.410	-0.400	-0.480	-0.440
2020/01/31 13:41:03.0	1.400	-0.390	-0.460	-0.450
2020/01/31 13:41:03.1	1.400	-0.370	-0.440	-0.460
2020/01/31 13:41:03.2	1.400	-0.360	-0.410	-0.470
2020/01/31 13:41:03.3	1.390	-0.340	-0.390	-0.480
2020/01/31 13:41:03.4	1.390	-0.320	-0.360	-0.490
2020/01/31 13:41:03.5	1.390	-0.290	-0.340	-0.490
2020/01/31 13:41:03.6	1.400	-0.270	-0.310	-0.500
2020/01/31 13:41:03.7	1.400	-0.240	-0.290	-0.500
2020/01/31 13:41:03.8	1.400	-0.210	-0.260	-0.500
2020/01/31 13:41:03.9	1.400	-0.170	-0.230	-0.500
2020/01/31 13:41:04.0	1.400	-0.140	-0.200	-0.500
2020/01/31 13:41:04.1	1.400	-0.100	-0.170	-0.490
2020/01/31 13:41:04.2	1.390	-0.060	-0.140	-0.480
2020/01/31 13:41:04.3	1.390	-0.020	-0.110	-0.460
2020/01/31 13:41:04.4	1.390	0.020	-0.080	-0.450
2020/01/31 13:41:04.5	1.380	0.070	-0.050	-0.420
2020/01/31 13:41:04.6	1.380	0.110	-0.020	-0.390
2020/01/31 13:41:04.7	1.370	0.150	0.010	-0.360
2020/01/31 13:41:04.8	1.360	0.190	0.050	-0.330
2020/01/31 13:41:04.9	1.350	0.230	0.080	-0.290
2020/01/31 13:41:05.0	1.340	0.260	0.110	-0.250
2020/01/31 13:41:05.1	1.320	0.300	0.140	-0.210
2020/01/31 13:41:05.2	1.300	0.330	0.160	-0.170
2020/01/31 13:41:05.3	1.290	0.360	0.190	-0.120
2020/01/31 13:41:05.4	1.270	0.390	0.220	-0.070
2020/01/31 13:41:05.5	1.250	0.420	0.240	-0.020
2020/01/31 13:41:05.6	1.230	0.440	0.260	0.030
2020/01/31 13:41:05.7	1.210	0.460	0.280	0.080
2020/01/31 13:41:05.8	1.190	0.470	0.300	0.140
2020/01/31 13:41:05.9	1.160	0.490	0.320	0.190
2020/01/31 13:41:06.0	1.140	0.490	0.330	0.240
2020/01/31 13:41:06.1	1.120	0.500	0.340	0.290
2020/01/31 13:41:06.2	1.100	0.500	0.350	0.330
2020/01/31 13:41:06.3	1.080	0.500	0.360	0.380
2020/01/31 13:41:06.4	1.060	0.490	0.370	0.420
2020/01/31 13:41:06.5	1.040	0.480	0.370	0.470
2020/01/31 13:41:06.6	1.020	0.470	0.370	0.510
2020/01/31 13:41:06.7	1.000	0.450	0.370	0.540
2020/01/31 13:41:06.8	0.980	0.430	0.370	0.580
2020/01/31 13:41:06.9	0.970	0.410	0.360	0.610
2020/01/31 13:41:07.0	0.950	0.390	0.350	0.640
2020/01/31 13:41:07.1	0.940	0.360	0.350	0.660
2020/01/31 13:41:07.2	0.920	0.330	0.330	0.680
2020/01/31 13:41:07.3	0.910	0.300	0.320	0.700
2020/01/31 13:41:07.4	0.890	0.270	0.300	0.710
2020/01/31 13:41:07.5	0.880	0.240	0.280	0.730
2020/01/31 13:41:07.6	0.860	0.200	0.260	0.740
2020/01/31 13:41:07.7	0.850	0.160	0.230	0.740
2020/01/31 13:41:07.8	0.830	0.130	0.200	0.740
2020/01/31 13:41:07.9	0.820	0.090	0.170	0.740
2020/01/31 13:41:08.0	0.800	0.050	0.140	0.730
2020/01/31 13:41:08.1	0.780	0.010	0.100	0.720
2020/01/31 13:41:08.2	0.770	-0.030	0.060	0.700
2020/01/31 13:41:08.3	0.750	-0.070	0.020	0.680
2020/01/31 13:41:08.4	0.740	-0.110	-0.030	0.650
2020/01/31 13:41:08.5	0.720	-0.150	-0.080	0.620
2020/01/31 13:41:08.6	0.720	-0.190	-0.120	0.580
2020/01/31 13:41:08.7	0.710	-0.230	-0.180	0.530
2020/01/31 13:41:08.8	0.700	-0.260	-0.230	0.480
2020/01/31 13:41:08.9	0.690	-0.300	-0.290	0.430
2020/01/31 13:41:09.0	0.680	-0.330	-0.340	0.370
2020/01/31 13:41:09.1	0.680	-0.360	-0.400	0.310
2020/01/31 13:41:09.2	0.680	-0.390	-0.460	0.240
2020/01/31 13:41:09.3	0.680	-0.410	-0.520	0.170
2020/01/31 13:41:09.4	0.680	-0.440	-0.580	0.090
2020/01/31 13:41:09.5	0.680	-0.450	-0.640	0.020
2020/01/31 13:41:09.6	0.690	-0.470	-0.690	-0.070
2020/01/31 13:41:09.7	0.710	-0.480	-0.750	-0.150
2020/01/31 13:41:09.8	0.720	-0.490	-0.810	-0.230
2020/01/31 13:41:09.9	0.740	-0.490	-0.870	-0.320
2020/01/31 13:41:10.0	0.760	-0.490	-0.930	-0.400
2020/01/31 13:41:10.1	0.780	-0.480	-0.980	-0.480
2020/01/31 13:41:10.2	0.810	-0.470	-1.030	-0.560
2020/01/31 13:41:10.3	0.840	-0.450	-1.080	-0.650
2020/01/31 13:41:10.4	0.870	-0.430	-1.130	-0.730
2020/01/31 13:41:10.5	0.910	-0.410	-1.170	-0.800
2020/01/31 13:41:10.6	0.940	-0.380	-1.210	-0.880
2020/01/31 13:41:10.7	0.980	-0.350	-1.250	-0.950
2020/01/31 13:41:10.8	1.020	-0.310	-1.280	-1.020
2020/01/31 13:41:10.9	1.060	-0.270	-1.300	-1.080
2020/01/31 13:41:11.0	1.110	-0.230	-1.320	-1.140
2020/01/31 13:41:11.1	1.150	-0.190	-1.340	-1.200
2020/01/31 13:41:11.2	1.190	-0.140	-1.340	-1.250
2020/01/31 13:41:11.3	1.230	-0.100	-1.340	-1.300
2020/01/31 13:41:11.4	1.280	-0.050	-1.340	-1.340
2020/01/31 13:41:11.5	1.320	-0.000	-1.320	-1.380
2020/01/31 13:41:11.6	1.350	0.050	-1.300	-1.410
2020/01/31 13:41:11.7	1.390	0.090	-1.270	-1.440
2020/01/31 13:41:11.8	1.420	0.140	-1.230	-1.460
2020/01/31 13:41:11.9	1.460	0.180	-1.180	-1.470
2020/01/31 13:41:12.0	1.490	0.220	-1.130	-1.470
2020/01/31 13:41:12.1	1.520	0.260	-1.070	-1.470
2020/01/31 13:41:12.2	1.550	0.290	-1.000	-1.470
2020/01/31 13:41:12.3	1.570	0.320	-0.920	-1.450
2020/01/31 13:41:12.4	1.590	0.350	-0.840	-1.430
2020/01/31 13:41:12.5	1.610	0.370	-0.760	-1.390
2020/01/31 13:41:12.6	1.630	0.380	-0.670	-1.350
2020/01/31 13:41:12.7	1.640	0.400	-0.580	-1.300
2020/01/31 13:41:12.8	1.650	0.400	-0.480	-1.250
2020/01/31 13:41:12.9	1.640	0.410	-0.380	-1.190
2020/01/31 13:41:13.0	1.640	0.400	-0.280	-1.120
2020/01/31 13:41:13.1	1.630	0.400	-0.180	-1.050
2020/01/31 13:41:13.2	1.620	0.390	-0.080	-0.970
2020/01/31 13:41:13.3	1.600	0.370	0.020	-0.890
2020/01/31 13:41:13.4	1.580	0.350	0.110	-0.800
2020/01/31 13:41:13.5	1.560	0.330	0.200	-0.710
2020/01/31 13:41:13.6	1.530	0.300	0.290	-0.620
2020/01/31 13:41:13.7	1.500	0.270	0.370	-0.530
2020/01/31 13:41:13.8	1.470	0.230	0.440	-0.440
2020/01/31 13:41:13.9	1.440	0.200	0.510	-0.350
2020/01/31 13:41:14.0	1.400	0.160	0.570	-0.270
2020/01/31 13:41:14.1	1.370	0.120	0.620	-0.190
2020/01/31 13:41:14.2	1.330	0.080	0.660	-0.120
2020/01/31 13:41:14.3	1.290	0.050	0.690	-0.050
2020/01/31 13:41:14.4	1.260	0.010	0.720	0.020
2020/01/31 13:41:14.5	1.220	-0.030	0.730	0.080
2020/01/31 13:41:14.6	1.180	-0.060	0.740	0.140
2020/01/31 13:41:14.7	1.140	-0.090	0.730	0.190
2020/01/31 13:41:14.8	1.110	-0.120	0.720	0.230
2020/01/31 13:41:14.9	1.070	-0.150	0.700	0.270
2020/01/31 13:41:15.0	1.040	-0.170	0.680	0.310
2020/01/31 13:41:15.1	1.010	-0.190	0.650	0.340
2020/01/31 13:41:15.2	0.970	-0.200	0.610	0.370
2020/01/31 13:41:15.3	0.940	-0.210	0.560	0.400
2020/01/31 13:41:15.4	0.920	-0.210	0.510	0.420
2020/01/31 13:41:15.5	0.890	-0.210	0.460	0.450
2020/01/31 13:41:15.6	0.870	-0.210	0.400	0.460
2020/01/31 13:41:15.7	0.850	-0.200	0.340	0.480
2020/01/31 13:41:15.8	0.830	-0.180	0.270	0.500
2020/01/31 13:41:15.9	0.810	-0.160	0.210	0.510
2020/01/31 13:41:16.0	0.790	-0.140	0.150	0.520
2020/01/31 13:41:16.1	0.770	-0.120	0.080	0.530
2020/01/31 13:41:16.2	0.760	-0.090	0.020	0.540
2020/01/31 13:41:16.3	0.740	-0.060	-0.050	0.540
2020/01/31 13:41:16.4	0.730	-0.030	-0.110	0.550
2020/01/31 13:41:16.5	0.720	-0.000	-0.160	0.550
2020/01/31 13:41:16.6	0.710	0.030	-0.220	0.550
2020/01/31 13:41:16.7	0.700	0.060	-0.270	0.540
2020/01/31 13:41:16.8	0.690	0.090	-0.320	0.530
2020/01/31 13:41:16.9	0.690	0.120	-0.360	0.520
2020/01/31 13:41:17.0	0.690	0.150	-0.400	0.510
2020/01/31 13:41:17.1	0.690	0.180	-0.440	0.490
2020/01/31 13:41:17.2	0.690	0.210	-0.470	0.470
2020/01/31 13:41:17.3	0.690	0.230	-0.490	0.450
2020/01/31 13:41:17.4	0.700	0.250	-0.510	0.420
2020/01/31 13:41:17.5	0.700	0.270	-0.530	0.400
2020/01/31 13:41:17.6	0.690	0.280	-0.540	0.370
2020/01/31 13:41:17.7	0.700	0.290	-0.550	0.350
2020/01/31 13:41:17.8	0.710	0.300	-0.550	0.320
2020/01/31 13:41:17.9	0.720	0.310	-0.550	0.290
2020/01/31 13:41:18.0	0.730	0.310	-0.540	0.270
2020/01/31 13:41:18.1	0.740	0.310	-0.530	0.240
2020/01/31 13:41:18.2	0.750	0.300	-0.520	0.220
2020/01/31 13:41:18.3	0.770	0.290	-0.500	0.200
2020/01/31 13:41:18.4	0.780	0.280	-0.480	0.180
2020/01/31 13:41:18.5	0.790	0.260	-0.460	0.160
2020/01/31 13:41:18.6	0.800	0.240	-0.430	0.140
2020/01/31 13:41:18.7	0.820	0.220	-0.400	0.120
2020/01/31 13:41:18.8	0.830	0.200	-0.370	0.110
2020/01/31 13:41:18.9	0.840	0.170	-0.340	0.090
2020/01/31 13:41:19.0	0.850	0.150	-0.310	0.080
2020/01/31 13:41:19.1	0.860	0.120	-0.280	0.070
2020/01/31 13:41:19.2	0.860	0.090	-0.250	0.050
2020/01/31 13:41:19.3	0.870	0.060	-0.220	0.040
2020/01/31 13:41:19.4	0.880	0.030	-0.190	0.030
2020/01/31 13:41:19.5	0.880	-0.000	-0.160	0.020
2020/01/31 13:41:19.6	0.890	-0.030	-0.130	0.020
2020/01/31 13:41:19.7	0.890	-0.060	-0.110	0.010
2020/01/31 13:41:19.8	0.890	-0.090	-0.080	0.000
2020/01/31 13:41:19.9	0.900	-0.120	-0.060	-0.010
2020/01/31 13:41:20.0	0.900	-0.150	-0.050	-0.020
2020/01/31 13:41:20.1	0.900	-0.170	-0.040	-0.030
2020/01/31 13:41:20.2	0.900	-0.190	-0.030	-0.040
2020/01/31 13:41:20.3	0.900	-0.210	-0.020	-0.050
2020/01/31 13:41:20.4	0.910	-0.230	-0.020	-0.060
2020/01/31 13:41:20.5	0.910	-0.250	-0.030	-0.070
2020/01/31 13:41:20.6	0.910	-0.260	-0.040	-0.080
2020/01/31 13:41:20.7	0.920	-0.270	-0.050	-0.100
2020/01/31 13:41:20.8	0.930	-0.280	-0.070	-0.110
2020/01/31 13:41:20.9	0.930	-0.280	-0.090	-0.120
2020/01/31 13:41:21.0	0.940	-0.280	-0.110	-0.130
2020/01/31 13:41:21.1	0.950	-0.280	-0.140	-0.150
2020/01/31 13:41:21.2	0.960	-0.280	-0.170	-0.160
2020/01/31 13:41:21.3	0.980	-0.270	-0.200	-0.170
2020/01/31 13:41:21.4	0.990	-0.270	-0.230	-0.180
2020/01/31 13:41:21.5	1.000	-0.260	-0.270	-0.190
2020/01/31 13:41:21.6	1.010	-0.250	-0.300	-0.200
2020/01/31 13:41:21.7	1.020	-0.240	-0.340	-0.200
2020/01/31 13:41:21.8	1.030	-0.220	-0.370	-0.210
2020/01/31 13:41:21.9	1.040	-0.210	-0.400	-0.210
2020/01/31 13:41:22.0	1.050	-0.200	-0.430	-0.220
2020/01/31 13:41:22.1	1.050	-0.190	-0.460	-0.220
2020/01/31 13:41:22.2	1.060	-0.170	-0.490	-0.220
2020/01/31 13:41:22.3	1.070	-0.160	-0.510	-0.230
2020/01/31 13:41:22.4	1.070	-0.150	-0.530	-0.230
2020/01/31 13:41:22.5	1.080	-0.140	-0.540	-0.230
2020/01/31 13:41:22.6	1.080	-0.130	-0.550	-0.230
2020/01/31 13:41:22.7	1.080	-0.120	-0.560	-0.240
2020/01/31 13:41:22.8	1.080	-0.110	-0.560	-0.240
2020/01/31 13:41:22.9	1.080	-0.110	-0.550	-0.240
2020/01/31 13:41:23.0	1.080	-0.110	-0.540	-0.240
2020/01/31 13:41:23.1	1.080	-0.100	-0.530	-0.240
2020/01/31 13:41:23.2	1.070	-0.100	-0.510	-0.240
2020/01/31 13:41:23.3	1.070	-0.100	-0.490	-0.240
2020/01/31 13:41:23.4	1.060	-0.100	-0.460	-0.230
2020/01/31 13:41:23.5	1.050	-0.100	-0.430	-0.230
2020/01/31 13:41:23.6	1.050	-0.110	-0.400	-0.220
2020/01/31 13:41:23.7	1.040	-0.110	-0.360	-0.220
2020/01/31 13:41:23.8	1.030	-0.110	-0.330	-0.210
2020/01/31 13:41:23.9	1.030	-0.120	-0.290	-0.210
2020/01/31 13:41:24.0	1.020	-0.120	-0.260	-0.200
2020/01/31 13:41:24.1	1.010	-0.130	-0.220	-0.200
2020/01/31 13:41:24.2	1.010	-0.140	-0.190	-0.190
2020/01/31 13:41:24.3	1.000	-0.140	-0.150	-0.190
2020/01/31 13:41:24.4	0.990	-0.150	-0.120	-0.180
2020/01/31 13:41:24.5	0.990	-0.150	-0.100	-0.180
2020/01/31 13:41:24.6	0.990	-0.150	-0.080	-0.180
2020/01/31 13:41:24.7	0.990	-0.160	-0.060	-0.180
2020/01/31 13:41:24.8	0.980	-0.160	-0.040	-0.180
2020/01/31 13:41:24.9	0.980	-0.160	-0.030	-0.180
2020/01/31 13:41:25.0	0.980	-0.150	-0.020	-0.180
2020/01/31 13:41:25.1	0.980	-0.150	-0.020	-0.190
2020/01/31 13:41:25.2	0.980	-0.140	-0.020	-0.200
2020/01/31 13:41:25.3	0.980	-0.130	-0.030	-0.200
2020/01/31 13:41:25.4	0.980	-0.120	-0.040	-0.210
2020/01/31 13:41:25.5	0.990	-0.110	-0.050	-0.230
2020/01/31 13:41:25.6	0.990	-0.090	-0.070	-0.240
2020/01/31 13:41:25.7	0.990	-0.070	-0.100	-0.250
2020/01/31 13:41:25.8	1.000	-0.050	-0.120	-0.270
2020/01/31 13:41:25.9	1.000	-0.020	-0.160	-0.290
2020/01/31 13:41:26.0	1.010	0.000	-0.190	-0.300
2020/01/31 13:41:26.1	1.020	0.030	-0.230	-0.320
2020/01/31 13:41:26.2	1.020	0.060	-0.260	-0.330
2020/01/31 13:41:26.3	1.030	0.100	-0.300	-0.350
2020/01/31 13:41:26.4	1.030	0.130	-0.340	-0.360
2020/01/31 13:41:26.5	1.030	0.170	-0.370	-0.360
2020/01/31 13:41:26.6	1.040	0.200	-0.400	-0.370
2020/01/31 13:41:26.7	1.040	0.240	-0.440	-0.380
2020/01/31 13:41:26.8	1.040	0.280	-0.460	-0.380
2020/01/31 13:41:26.9	1.040	0.320	-0.490	-0.370
2020/01/31 13:41:27.0	1.030	0.350	-0.510	-0.370
2020/01/31 13:41:27.1	1.030	0.390	-0.530	-0.360
2020/01/31 13:41:27.2	1.030	0.420	-0.540	-0.350
2020/01/31 13:41:27.3	1.030	0.460	-0.550	-0.340
2020/01/31 13:41:27.4	1.030	0.490	-0.550	-0.320
2020/01/31 13:41:27.5	1.030	0.520	-0.550	-0.300
2020/01/31 13:41:27.6	1.030	0.540	-0.560	-0.280
2020/01/31 13:41:27.7	1.030	0.570	-0.550	-0.260
2020/01/31 13:41:27.8	1.030	0.590	-0.540	-0.240
2020/01/31 13:41:27.9	1.040	0.610	-0.530	-0.210
2020/01/31 13:41:28.0	1.040	0.620	-0.510	-0.190
2020/01/31 13:41:28.1	1.040	0.630	-0.490	-0.160
2020/01/31 13:41:28.2	1.050	0.640	-0.470	-0.130
2020/01/31 13:41:28.3	1.050	0.640	-0.450	-0.100
2020/01/31 13:41:28.4	1.060	0.640	-0.420	-0.070
2020/01/31 13:41:28.5	1.060	0.640	-0.400	-0.040
2020/01/31 13:41:28.6	1.080	0.630	-0.370	-0.000
2020/01/31 13:41:28.7	1.080	0.620	-0.340	0.030
2020/01/31 13:41:28.8	1.080	0.610	-0.310	0.060
2020/01/31 13:41:28.9	1.090	0.590	-0.290	0.100
2020/01/31 13:41:29.0	1.090	0.570	-0.260	0.130
2020/01/31 13:41:29.1	1.100	0.540	-0.230	0.160
2020/01/31 13:41:29.2	1.100	0.520	-0.210	0.190
2020/01/31 13:41:29.3	1.100	0.490	-0.180	0.220
2020/01/31 13:41:29.4	1.110	0.450	-0.150	0.250
2020/01/31 13:41:29.5	1.110	0.420	-0.130	0.280
2020/01/31 13:41:29.6	1.120	0.380	-0.110	0.310
2020/01/31 13:41:29.7	1.120	0.350	-0.090	0.330
2020/01/31 13:41:29.8	1.120	0.310	-0.060	0.360
2020/01/31 13:41:29.9	1.120	0.270	-0.040	0.370
2020/01/31 13:41:30.0	1.120	0.220	-0.020	0.390
2020/01/31 13:41:30.1	1.120	0.180	0.000	0.410
2020/01/31 13:41:30.2	1.120	0.140	0.020	0.420
2020/01/31 13:41:30.3	1.110	0.090	0.040	0.430
2020/01/31 13:41:30.4	1.110	0.050	0.060	0.440
2020/01/31 13:41:30.5	1.100	0.010	0.070	0.440
2020/01/31 13:41:30.6	1.110	-0.030	0.090	0.440
2020/01/31 13:41:30.7	1.110	-0.080	0.100	0.430
2020/01/31 13:41:30.8	1.100	-0.120	0.110	0.420
2020/01/31 13:41:30.9	1.100	-0.150	0.110	0.410
2020/01/31 13:41:31.0	1.100	-0.190	0.110	0.390
2020/01/31 13:41:31.1	1.100	-0.220	0.110	0.370
2020/01/31 13:41:31.2	1.110	-0.260	0.100	0.350
2020/01/31 13:41:31.3	1.110	-0.290	0.100	0.320
2020/01/31 13:41:31.4	1.120	-0.310	0.080	0.290
2020/01/31 13:41:31.5	1.130	-0.340	0.070	0.260
2020/01/31 13:41:31.6	1.130	-0.360	0.060	0.220
2020/01/31 13:41:31.7	1.140	-0.380	0.040	0.180
2020/01/31 13:41:31.8	1.160	-0.400	0.020	0.140
2020/01/31 13:41:31.9	1.170	-0.420	-0.000	0.100
2020/01/31 13:41:32.0	1.180	-0.430	-0.030	0.060
2020/01/31 13:41:32.1	1.200	-0.450	-0.050	0.010
2020/01/31 13:41:32.2	1.220	-0.460	-0.070	-0.030
2020/01/31 13:41:32.3	1.230	-0.470	-0.100	-0.080
2020/01/31 13:41:32.4	1.250	-0.480	-0.120	-0.130
2020/01/31 13:41:32.5	1.260	-0.480	-0.140	-0.170
2020/01/31 13:41:32.6	1.280	-0.490	-0.170	-0.220
2020/01/31 13:41:32.7	1.300	-0.490	-0.190	-0.270
2020/01/31 13:41:32.8	1.310	-0.500	-0.210	-0.320
2020/01/31 13:41:32.9	1.330	-0.500	-0.220	-0.360
2020/01/31 13:41:33.0	1.340	-0.500	-0.230	-0.410
2020/01/31 13:41:33.1	1.350	-0.510	-0.250	-0.460
2020/01/31 13:41:33.2	1.370	-0.510	-0.260	-0.510
2020/01/31 13:41:33.3	1.380	-0.510	-0.260	-0.560
2020/01/31 13:41:33.4	1.390	-0.510	-0.270	-0.600
2020/01/31 13:41:33.5	1.400	-0.510	-0.270	-0.650
2020/01/31 13:41:33.6	1.420	-0.510	-0.270	-0.700
2020/01/31 13:41:33.7	1.430	-0.520	-0.270	-0.740
2020/01/31 13:41:33.8	1.440	-0.520	-0.260	-0.780
2020/01/31 13:41:33.9	1.450	-0.520	-0.260	-0.820
2020/01/31 13:41:34.0	1.460	-0.520	-0.250	-0.860
2020/01/31 13:41:34.1	1.470	-0.510	-0.240	-0.900
2020/01/31 13:41:34.2	1.480	-0.510	-0.230	-0.930
2020/01/31 13:41:34.3	1.490	-0.510	-0.220	-0.960
2020/01/31 13:41:34.4	1.500	-0.500	-0.200	-0.980
2020/01/31 13:41:34.5	1.510	-0.500	-0.190	-1.000
2020/01/31 13:41:34.6	1.510	-0.490	-0.170	-1.010
2020/01/31 13:41:34.7	1.520	-0.480	-0.150	-1.020
2020/01/31 13:41:34.8	1.520	-0.470	-0.130	-1.020
2020/01/31 13:41:34.9	1.520	-0.460	-0.110	-1.020
2020/01/31 13:41:35.0	1.510	-0.450	-0.090	-1.010
2020/01/31 13:41:35.1	1.510	-0.430	-0.070	-0.990
2020/01/31 13:41:35.2	1.500	-0.420	-0.050	-0.970
2020/01/31 13:41:35.3	1.490	-0.400	-0.040	-0.940
2020/01/31 13:41:35.4	1.480	-0.380	-0.020	-0.910
2020/01/31 13:41:35.5	1.460	-0.360	-0.010	-0.880
2020/01/31 13:41:35.6	1.450	-0.330	0.000	-0.830
2020/01/31 13:41:35.7	1.440	-0.310	0.010	-0.790
2020/01/31 13:41:35.8	1.420	-0.280	0.010	-0.750
2020/01/31 13:41:35.9	1.400	-0.250	0.020	-0.710
2020/01/31 13:41:36.0	1.390	-0.220	0.010	-0.670
2020/01/31 13:41:36.1	1.370	-0.190	0.010	-0.630
2020/01/31 13:41:36.2	1.350	-0.160	-0.000	-0.580
2020/01/31 13:41:36.3	1.340	-0.120	-0.020	-0.540
2020/01/31 13:41:36.4	1.320	-0.090	-0.040	-0.500
2020/01/31 13:41:36.5	1.310	-0.050	-0.060	-0.460
2020/01/31 13:41:36.6	1.300	-0.010	-0.090	-0.420
2020/01/31 13:41:36.7	1.280	0.030	-0.120	-0.380
2020/01/31 13:41:36.8	1.270	0.070	-0.160	-0.350
2020/01/31 13:41:36.9	1.260	0.110	-0.200	-0.310
2020/01/31 13:41:37.0	1.250	0.150	-0.240	-0.280
2020/01/31 13:41:37.1	1.250	0.200	-0.280	-0.250
2020/01/31 13:41:37.2	1.240	0.240	-0.330	-0.220
2020/01/31 13:41:37.3	1.230	0.280	-0.380	-0.190
2020/01/31 13:41:37.4	1.230	0.330	-0.430	-0.160
2020/01/31 13:41:37.5	1.220	0.370	-0.480	-0.130
2020/01/31 13:41:37.6	1.220	0.410	-0.530	-0.100
2020/01/31 13:41:37.7	1.220	0.450	-0.570	-0.060
2020/01/31 13:41:37.8	1.210	0.490	-0.620	-0.030
2020/01/31 13:41:37.9	1.200	0.520	-0.660	0.000
2020/01/31 13:41:38.0	1.190	0.550	-0.700	0.040
2020/01/31 13:41:38.1	1.170	0.590	-0.740	0.080
2020/01/31 13:41:38.2	1.160	0.610	-0.770	0.110
2020/01/31 13:41:38.3	1.150	0.640	-0.790	0.150
2020/01/31 13:41:38.4	1.130	0.660	-0.820	0.190
2020/01/31 13:41:38.5	1.120	0.680	-0.830	0.230
2020/01/31 13:41:38.6	1.100	0.690	-0.850	0.270
2020/01/31 13:41:38.7	1.090	0.700	-0.850	0.310
2020/01/31 13:41:38.8	1.070	0.710	-0.850	0.340
2020/01/31 13:41:38.9	1.060	0.710	-0.850	0.380
2020/01/31 13:41:39.0	1.050	0.710	-0.840	0.410
2020/01/31 13:41:39.1	1.040	0.700	-0.830	0.440
2020/01/31 13:41:39.2	1.030	0.700	-0.810	0.470
2020/01/31 13:41:39.3	1.020	0.680	-0.790	0.490
2020/01/31 13:41:39.4	1.010	0.670	-0.770	0.510
2020/01/31 13:41:39.5	1.010	0.650	-0.750	0.530
2020/01/31 13:41:39.6	1.020	0.630	-0.720	0.540
2020/01/31 13:41:39.7	1.020	0.610	-0.700	0.550
2020/01/31 13:41:39.8	1.030	0.590	-0.670	0.550
2020/01/31 13:41:39.9	1.040	0.560	-0.640	0.550
2020/01/31 13:41:40.0	1.050	0.540	-0.610	0.550
2020/01/31 13:41:40.1	1.070	0.510	-0.590	0.540
2020/01/31 13:41:40.2	1.080	0.480	-0.560	0.530
2020/01/31 13:41:40.3	1.100	0.450	-0.530	0.510
2020/01/31 13:41:40.4	1.120	0.420	-0.500	0.490
2020/01/31 13:41:40.5	1.140	0.390	-0.470	0.470
2020/01/31 13:41:40.6	1.160	0.360	-0.440	0.450
2020/01/31 13:41:40.7	1.180	0.330	-0.410	0.420
2020/01/31 13:41:40.8	1.200	0.300	-0.380	0.390
2020/01/31 13:41:40.9	1.220	0.270	-0.350	0.360
2020/01/31 13:41:41.0	1.240	0.240	-0.320	0.330
2020/01/31 13:41:41.1	1.260	0.210	-0.290	0.290
2020/01/31 13:41:41.2	1.280	0.180	-0.250	0.260
2020/01/31 13:41:41.3	1.300	0.150	-0.220	0.220
2020/01/31 13:41:41.4	1.320	0.120	-0.190	0.180
2020/01/31 13:41:41.5	1.340	0.090	-0.150	0.130
2020/01/31 13:41:41.6	1.350	0.060	-0.120	0.090
2020/01/31 13:41:41.7	1.370	0.030	-0.090	0.040
2020/01/31 13:41:41.8	1.390	0.000	-0.060	-0.010
2020/01/31 13:41:41.9	1.410	-0.030	-0.020	-0.070
2020/01/31 13:41:42.0	1.430	-0.060	0.010	-0.120
2020/01/31 13:41:42.1	1.450	-0.090	0.040	-0.180
2020/01/31 13:41:42.2	1.470	-0.120	0.060	-0.240
2020/01/31 13:41:42.3	1.490	-0.150	0.090	-0.300
2020/01/31 13:41:42.4	1.510	-0.180	0.110	-0.360
2020/01/31 13:41:42.5	1.530	-0.200	0.130	-0.430
2020/01/31 13:41:42.6	1.550	-0.230	0.150	-0.490
2020/01/31 13:41:42.7	1.560	-0.260	0.170	-0.550
2020/01/31 13:41:42.8	1.580	-0.290	0.190	-0.610
2020/01/31 13:41:42.9	1.590	-0.320	0.200	-0.670
2020/01/31 13:41:43.0	1.600	-0.340	0.210	-0.730
2020/01/31 13:41:43.1	1.610	-0.370	0.220	-0.780
2020/01/31 13:41:43.2	1.620	-0.400	0.230	-0.840
2020/01/31 13:41:43.3	1.630	-0.420	0.240	-0.890
2020/01/31 13:41:43.4	1.630	-0.450	0.240	-0.930
2020/01/31 13:41:43.5	1.640	-0.470	0.250	-0.970
2020/01/31 13:41:43.6	1.650	-0.490	0.250	-1.010
2020/01/31 13:41:43.7	1.650	-0.510	0.250	-1.050
2020/01/31 13:41:43.8	1.640	-0.530	0.250	-1.080
2020/01/31 13:41:43.9	1.640	-0.550	0.250	-1.110
2020/01/31 13:41:44.0	1.640	-0.570	0.250	-1.130
2020/01/31 13:41:44.1	1.630	-0.580	0.250	-1.150
2020/01/31 13:41:44.2	1.620	-0.590	0.240	-1.170
2020/01/31 13:41:44.3	1.610	-0.600	0.240	-1.180
2020/01/31 13:41:44.4	1.600	-0.610	0.230	-1.190
2020/01/31 13:41:44.5	1.590	-0.620	0.230	-1.190
2020/01/31 13:41:44.6	1.580	-0.620	0.220	-1.190
2020/01/31 13:41:44.7	1.570	-0.620	0.220	-1.190
2020/01/31 13:41:44.8	1.550	-0.610	0.210	-1.180
2020/01/31 13:41:44.9	1.530	-0.610	0.200	-1.170
2020/01/31 13:41:45.0	1.520	-0.600	0.200	-1.150
2020/01/31 13:41:45.1	1.500	-0.590	0.190	-1.130
2020/01/31 13:41:45.2	1.470	-0.570	0.190	-1.110
2020/01/31 13:41:45.3	1.450	-0.550	0.180	-1.080
2020/01/31 13:41:45.4	1.430	-0.530	0.170	-1.050
2020/01/31 13:41:45.5	1.400	-0.510	0.160	-1.010
2020/01/31 13:41:45.6	1.370	-0.480	0.160	-0.970
2020/01/31 13:41:45.7	1.350	-0.460	0.150	-0.920
2020/01/31 13:41:45.8	1.320	-0.430	0.140	-0.870
2020/01/31 13:41:45.9	1.290	-0.400	0.130	-0.810
2020/01/31 13:41:46.0	1.250	-0.360	0.120	-0.760
2020/01/31 13:41:46.1	1.220	-0.330	0.100	-0.690
2020/01/31 13:41:46.2	1.190	-0.290	0.090	-0.630
2020/01/31 13:41:46.3	1.160	-0.250	0.070	-0.560
2020/01/31 13:41:46.4	1.130	-0.220	0.050	-0.490
2020/01/31 13:41:46.5	1.090	-0.180	0.030	-0.420
2020/01/31 13:41:46.6	1.070	-0.140	-0.000	-0.340
2020/01/31 13:41:46.7	1.040	-0.100	-0.030	-0.270
2020/01/31 13:41:46.8	1.010	-0.060	-0.060	-0.190
2020/01/31 13:41:46.9	0.990	-0.020	-0.100	-0.120
2020/01/31 13:41:47.0	0.960	0.020	-0.130	-0.050
2020/01/31 13:41:47.1	0.940	0.060	-0.170	0.020
2020/01/31 13:41:47.2	0.910	0.100	-0.210	0.090
2020/01/31 13:41:47.3	0.890	0.130	-0.260	0.160
2020/01/31 13:41:47.4	0.870	0.170	-0.300	0.220
2020/01/31 13:41:47.5	0.850	0.200	-0.350	0.290
2020/01/31 13:41:47.6	0.820	0.240	-0.400	0.350
2020/01/31 13:41:47.7	0.810	0.270	-0.440	0.400
2020/01/31 13:41:47.8	0.790	0.300	-0.490	0.460
2020/01/31 13:41:47.9	0.780	0.330	-0.540	0.510
2020/01/31 13:41:48.0	0.770	0.350	-0.590	0.550
2020/01/31 13:41:48.1	0.760	0.380	-0.630	0.600
2020/01/31 13:41:48.2	0.750	0.400	-0.670	0.630
2020/01/31 13:41:48.3	0.740	0.420	-0.710	0.670
2020/01/31 13:41:48.4	0.740	0.440	-0.750	0.700
2020/01/31 13:41:48.5	0.730	0.450	-0.790	0.730
2020/01/31 13:41:48.6	0.730	0.470	-0.820	0.760
2020/01/31 13:41:48.7	0.730	0.480	-0.850	0.780
2020/01/31 13:41:48.8	0.730	0.490	-0.870	0.800
2020/01/31 13:41:48.9	0.730	0.490	-0.890	0.810
2020/01/31 13:41:49.0	0.740	0.500	-0.910	0.820
2020/01/31 13:41:49.1	0.740	0.500	-0.930	0.830
2020/01/31 13:41:49.2	0.760	0.490	-0.940	0.830
2020/01/31 13:41:49.3	0.770	0.490	-0.950	0.830
2020/01/31 13:41:49.4	0.790	0.480	-0.950	0.820
2020/01/31 13:41:49.5	0.810	0.470	-0.950	0.810
2020/01/31 13:41:49.6	0.830	0.450	-0.950	0.800
2020/01/31 13:41:49.7	0.860	0.440	-0.940	0.780
2020/01/31 13:41:49.8	0.890	0.420	-0.930	0.750
2020/01/31 13:41:49.9	0.920	0.400	-0.920	0.720
2020/01/31 13:41:50.0	0.960	0.380	-0.910	0.690
2020/01/31 13:41:50.1	0.990	0.350	-0.890	0.650
2020/01/31 13:41:50.2	1.040	0.330	-0.870	0.600
2020/01/31 13:41:50.3	1.080	0.300	-0.850	0.550
2020/01/31 13:41:50.4	1.120	0.270	-0.830	0.500
2020/01/31 13:41:50.5	1.170	0.240	-0.810	0.440
2020/01/31 13:41:50.6	1.230	0.210	-0.780	0.380
2020/01/31 13:41:50.7	1.280	0.180	-0.760	0.320
2020/01/31 13:41:50.8	1.330	0.150	-0.730	0.260
2020/01/31 13:41:50.9	1.380	0.120	-0.700	0.190
2020/01/31 13:41:51.0	1.430	0.090	-0.670	0.120
2020/01/31 13:41:51.1	1.480	0.070	-0.630	0.060
2020/01/31 13:41:51.2	1.530	0.040	-0.600	-0.010
2020/01/31 13:41:51.3	1.580	0.010	-0.570	-0.080
2020/01/31 13:41:51.4	1.620	-0.010	-0.530	-0.140
2020/01/31 13:41:51.5	1.670	-0.040	-0.490	-0.200
2020/01/31 13:41:51.6	1.710	-0.060	-0.450	-0.270
2020/01/31 13:41:51.7	1.750	-0.080	-0.410	-0.320
2020/01/31 13:41:51.8	1.780	-0.100	-0.370	-0.380
2020/01/31 13:41:51.9	1.810	-0.120	-0.320	-0.430
2020/01/31 13:41:52.0	1.830	-0.130	-0.270	-0.470
2020/01/31 13:41:52.1	1.860	-0.150	-0.220	-0.510
2020/01/31 13:41:52.2	1.870	-0.160	-0.170	-0.540
2020/01/31 13:41:52.3	1.880	-0.170	-0.120	-0.570
2020/01/31 13:41:52.4	1.890	-0.180	-0.070	-0.590
2020/01/31 13:41:52.5	1.890	-0.190	-0.010	-0.610
2020/01/31 13:41:52.6	1.880	-0.190	0.040	-0.610
2020/01/31 13:41:52.7	1.870	-0.200	0.100	-0.620
2020/01/31 13:41:52.8	1.860	-0.200	0.160	-0.620
2020/01/31 13:41:52.9	1.840	-0.210	0.210	-0.610
2020/01/31 13:41:53.0	1.820	-0.210	0.270	-0.610
2020/01/31 13:41:53.1	1.790	-0.210	0.320	-0.600
2020/01/31 13:41:53.2	1.770	-0.210	0.370	-0.580
2020/01/31 13:41:53.3	1.740	-0.220	0.410	-0.570
2020/01/31 13:41:53.4	1.710	-0.220	0.450	-0.550
2020/01/31 13:41:53.5	1.680	-0.220	0.490	-0.530
2020/01/31 13:41:53.6	1.650	-0.220	0.520	-0.520
2020/01/31 13:41:53.7	1.620	-0.210	0.540	-0.500
2020/01/31 13:41:53.8	1.590	-0.210	0.560	-0.480
2020/01/31 13:41:53.9	1.560	-0.210	0.570	-0.470
2020/01/31 13:41:54.0	1.540	-0.210	0.570	-0.460
2020/01/31 13:41:54.1	1.510	-0.200	0.570	-0.440
2020/01/31 13:41:54.2	1.490	-0.200	0.560	-0.440
2020/01/31 13:41:54.3	1.480	-0.190	0.540	-0.430
2020/01/31 13:41:54.4	1.460	-0.180	0.520	-0.420
2020/01/31 13:41:54.5	1.450	-0.170	0.480	-0.420
2020/01/31 13:41:54.6	1.450	-0.160	0.450	-0.410
2020/01/31 13:41:54.7	1.440	-0.150	0.400	-0.410
2020/01/31 13:41:54.8	1.430	-0.140	0.350	-0.410
2020/01/31 13:41:54.9	1.420	-0.130	0.300	-0.410
2020/01/31 13:41:55.0	1.420	-0.110	0.240	-0.400
2020/01/31 13:41:55.1	1.410	-0.090	0.180	-0.400
2020/01/31 13:41:55.2	1.410	-0.080	0.120	-0.400
2020/01/31 13:41:55.3	1.400	-0.060	0.060	-0.390
2020/01/31 13:41:55.4	1.390	-0.040	-0.000	-0.390
2020/01/31 13:41:55.5	1.390	-0.020	-0.060	-0.380
2020/01/31 13:41:55.6	1.380	-0.000	-0.120	-0.360
2020/01/31 13:41:55.7	1.370	0.020	-0.180	-0.350
2020/01/31 13:41:55.8	1.350	0.030	-0.230	-0.340
2020/01/31 13:41:55.9	1.340	0.050	-0.270	-0.320
2020/01/31 13:41:56.0	1.320	0.070	-0.310	-0.310
2020/01/31 13:41:56.1	1.300	0.090	-0.350	-0.290
2020/01/31 13:41:56.2	1.280	0.100	-0.380	-0.270
2020/01/31 13:41:56.3	1.260	0.120	-0.410	-0.250
2020/01/31 13:41:56.4	1.230	0.130	-0.430	-0.230
2020/01/31 13:41:56.5	1.200	0.140	-0.440	-0.210
2020/01/31 13:41:56.6	1.180	0.150	-0.450	-0.190
2020/01/31 13:41:56.7	1.160	0.160	-0.450	-0.160
2020/01/31 13:41:56.8	1.130	0.170	-0.450	-0.140
2020/01/31 13:41:56.9	1.100	0.180	-0.450	-0.110
2020/01/31 13:41:57.0	1.070	0.180	-0.440	-0.090
2020/01/31 13:41:57.1	1.040	0.190	-0.430	-0.060
2020/01/31 13:41:57.2	1.010	0.190	-0.420	-0.030
2020/01/31 13:41:57.3	0.990	0.200	-0.410	-0.010
2020/01/31 13:41:57.4	0.970	0.200	-0.390	0.020
2020/01/31 13:41:57.5	0.950	0.200	-0.380	0.040
2020/01/31 13:41:57.6	0.920	0.200	-0.370	0.060
2020/01/31 13:41:57.7	0.910	0.200	-0.360	0.080
2020/01/31 13:41:57.8	0.900	0.190	-0.350	0.100
2020/01/31 13:41:57.9	0.890	0.190	-0.340	0.110
2020/01/31 13:41:58.0	0.890	0.190	-0.330	0.130
2020/01/31 13:41:58.1	0.900	0.190	-0.330	0.130
2020/01/31 13:41:58.2	0.900	0.190	-0.330	0.140
2020/01/31 13:41:58.3	0.910	0.190	-0.340	0.140
2020/01/31 13:41:58.4	0.930	0.190	-0.340	0.140
2020/01/31 13:41:58.5	0.950	0.190	-0.350	0.130
2020/01/31 13:41:58.6	0.970	0.190	-0.360	0.130
2020/01/31 13:41:58.7	0.990	0.190	-0.370	0.120
2020/01/31 13:41:58.8	1.010	0.190	-0.390	0.100
2020/01/31 13:41:58.9	1.040	0.190	-0.410	0.080
2020/01/31 13:41:59.0	1.070	0.190	-0.430	0.060
2020/01/31 13:41:59.1	1.100	0.190	-0.450	0.040
2020/01/31 13:41:59.2	1.130	0.180	-0.470	0.010
2020/01/31 13:41:59.3	1.160	0.180	-0.490	-0.020
2020/01/31 13:41:59.4	1.190	0.170	-0.510	-0.060
2020/01/31 13:41:59.5	1.230	0.160	-0.520	-0.090
2020/01/31 13:41:59.6	1.270	0.150	-0.550	-0.130
2020/01/31 13:41:59.7	1.300	0.140	-0.560	-0.170
2020/01/31 13:41:59.8	1.340	0.130	-0.570	-0.210
2020/01/31 13:41:59.9	1.380	0.110	-0.580	-0.250
2020/01/31 13:42:00.0	1.410	0.090	-0.590	-0.290
2020/01/31 13:42:00.1	1.450	0.070	-0.590	-0.330
2020/01/31 13:42:00.2	1.480	0.050	-0.590	-0.370
2020/01/31 13:42:00.3	1.520	0.030	-0.580	-0.410
2020/01/31 13:42:00.4	1.550	-0.000	-0.570	-0.450
2020/01/31 13:42:00.5	1.580	-0.030	-0.560	-0.490
2020/01/31 13:42:00.6	1.620	-0.060	-0.540	-0.520
2020/01/31 13:42:00.7	1.650	-0.090	-0.520	-0.560
2020/01/31 13:42:00.8	1.680	-0.130	-0.500	-0.590
2020/01/31 13:42:00.9	1.700	-0.160	-0.470	-0.610
2020/01/31 13:42:01.0	1.720	-0.200	-0.440	-0.630
2020/01/31 13:42:01.1	1.740	-0.230	-0.410	-0.650
2020/01/31 13:42:01.2	1.750	-0.270	-0.370	-0.670
2020/01/31 13:42:01.3	1.770	-0.310	-0.330	-0.690
2020/01/31 13:42:01.4	1.780	-0.340	-0.290	-0.700
2020/01/31 13:42:01.5	1.780	-0.380	-0.250	-0.710
2020/01/31 13:42:01.6	1.790	-0.410	-0.210	-0.710
2020/01/31 13:42:01.7	1.800	-0.450	-0.170	-0.720
2020/01/31 13:42:01.8	1.800	-0.480	-0.130	-0.720
2020/01/31 13:42:01.9	1.810	-0.510	-0.100	-0.720
2020/01/31 13:42:02.0	1.810	-0.530	-0.060	-0.720
2020/01/31 13:42:02.1	1.810	-0.550	-0.030	-0.710
2020/01/31 13:42:02.2	1.810	-0.570	0.010	-0.710
2020/01/31 13:42:02.3	1.800	-0.590	0.040	-0.700
2020/01/31 13:42:02.4	1.800	-0.600	0.070	-0.680
2020/01/31 13:42:02.5	1.790	-0.600	0.090	-0.670
2020/01/31 13:42:02.6	1.790	-0.600	0.110	-0.650
2020/01/31 13:42:02.7	1.780	-0.600	0.130	-0.630
2020/01/31 13:42:02.8	1.770	-0.590	0.150	-0.600
2020/01/31 13:42:02.9	1.760	-0.580	0.160	-0.570
2020/01/31 13:42:03.0	1.750	-0.560	0.180	-0.540
2020/01/31 13:42:03.1	1.740	-0.530	0.180	-0.500
2020/01/31 13:42:03.2	1.720	-0.500	0.190	-0.460
2020/01/31 13:42:03.3	1.700	-0.470	0.190	-0.410
2020/01/31 13:42:03.4	1.680	-0.430	0.190	-0.360
2020/01/31 13:42:03.5	1.660	-0.390	0.190	-0.310
2020/01/31 13:42:03.6	1.640	-0.350	0.180	-0.250
2020/01/31 13:42:03.7	1.620	-0.300	0.170	-0.200
2020/01/31 13:42:03.8	1.590	-0.250	0.160	-0.140
2020/01/31 13:42:03.9	1.570	-0.200	0.150	-0.070
2020/01/31 13:42:04.0	1.540	-0.150	0.140	-0.010
2020/01/31 13:42:04.1	1.510	-0.100	0.120	0.050
2020/01/31 13:42:04.2	1.480	-0.040	0.110	0.110
2020/01/31 13:42:04.3	1.450	0.010	0.090	0.170
2020/01/31 13:42:04.4	1.420	0.060	0.070	0.220
2020/01/31 13:42:04.5	1.390	0.110	0.050	0.280
2020/01/31 13:42:04.6	1.370	0.160	0.030	0.330
2020/01/31 13:42:04.7	1.340	0.210	0.000	0.380
2020/01/31 13:42:04.8	1.310	0.250	-0.020	0.420
2020/01/31 13:42:04.9	1.290	0.290	-0.050	0.460
2020/01/31 13:42:05.0	1.260	0.330	-0.080	0.490
2020/01/31 13:42:05.1	1.240	0.370	-0.110	0.520
2020/01/31 13:42:05.2	1.220	0.400	-0.140	0.540
2020/01/31 13:42:05.3	1.200	0.430	-0.170	0.560
2020/01/31 13:42:05.4	1.190	0.460	-0.210	0.570
2020/01/31 13:42:05.5	1.170	0.480	-0.240	0.580
2020/01/31 13:42:05.6	1.160	0.500	-0.280	0.590
2020/01/31 13:42:05.7	1.150	0.520	-0.320	0.580
2020/01/31 13:42:05.8	1.140	0.530	-0.360	0.580
2020/01/31 13:42:05.9	1.140	0.540	-0.400	0.570
2020/01/31 13:42:06.0	1.130	0.550	-0.450	0.550
2020/01/31 13:42:06.1	1.130	0.550	-0.490	0.530
2020/01/31 13:42:06.2	1.140	0.550	-0.530	0.510
2020/01/31 13:42:06.3	1.140	0.550	-0.570	0.480
2020/01/31 13:42:06.4	1.150	0.540	-0.620	0.450
2020/01/31 13:42:06.5	1.160	0.540	-0.660	0.420
2020/01/31 13:42:06.6	1.170	0.530	-0.700	0.380
2020/01/31 13:42:06.7	1.190	0.510	-0.740	0.340
2020/01/31 13:42:06.8	1.210	0.500	-0.780	0.290
2020/01/31 13:42:06.9	1.230	0.490	-0.810	0.250
2020/01/31 13:42:07.0	1.250	0.470	-0.850	0.200
2020/01/31 13:42:07.1	1.270	0.450	-0.880	0.150
2020/01/31 13:42:07.2	1.300	0.430	-0.900	0.090
2020/01/31 13:42:07.3	1.330	0.410	-0.930	0.040
2020/01/31 13:42:07.4	1.360	0.390	-0.950	-0.020
2020/01/31 13:42:07.5	1.390	0.370	-0.960	-0.080
2020/01/31 13:42:07.6	1.420	0.350	-0.980	-0.150
2020/01/31 13:42:07.7	1.450	0.330	-0.980	-0.210
2020/01/31 13:42:07.8	1.490	0.300	-0.980	-0.280
2020/01/31 13:42:07.9	1.520	0.270	-0.980	-0.340
2020/01/31 13:42:08.0	1.560	0.250	-0.960	-0.410
2020/01/31 13:42:08.1	1.590	0.220	-0.940	-0.480
2020/01/31 13:42:08.2	1.620	0.190	-0.920	-0.540
2020/01/31 13:42:08.3	1.650	0.160	-0.890	-0.610
2020/01/31 13:42:08.4	1.690	0.130	-0.850	-0.680
2020/01/31 13:42:08.5	1.720	0.100	-0.810	-0.740
2020/01/31 13:42:08.6	1.750	0.070	-0.760	-0.800
2020/01/31 13:42:08.7	1.780	0.030	-0.710	-0.860
2020/01/31 13:42:08.8	1.800	-0.000	-0.640	-0.920
2020/01/31 13:42:08.9	1.820	-0.040	-0.580	-0.970
2020/01/31 13:42:09.0	1.840	-0.070	-0.510	-1.020
2020/01/31 13:42:09.1	1.860	-0.100	-0.430	-1.060
2020/01/31 13:42:09.2	1.870	-0.140	-0.360	-1.090
2020/01/31 13:42:09.3	1.880	-0.170	-0.270	-1.130
2020/01/31 13:42:09.4	1.890	-0.210	-0.190	-1.150
2020/01/31 13:42:09.5	1.890	-0.240	-0.100	-1.170
2020/01/31 13:42:09.6	1.890	-0.270	-0.020	-1.180
2020/01/31 13:42:09.7	1.880	-0.300	0.070	-1.190
2020/01/31 13:42:09.8	1.870	-0.330	0.160	-1.190
2020/01/31 13:42:09.9	1.860	-0.360	0.250	-1.180
2020/01/31 13:42:10.0	1.850	-0.390	0.330	-1.170
2020/01/31 13:42:10.1	1.830	-0.410	0.420	-1.150
2020/01/31 13:42:10.2	1.810	-0.430	0.500	-1.120
2020/01/31 13:42:10.3	1.780	-0.450	0.570	-1.090
2020/01/31 13:42:10.4	1.760	-0.470	0.640	-1.060
2020/01/31 13:42:10.5	1.730	-0.480	0.710	-1.020
2020/01/31 13:42:10.6	1.710	-0.490	0.760	-0.970
2020/01/31 13:42:10.7	1.680	-0.500	0.820	-0.920
2020/01/31 13:42:10.8	1.650	-0.500	0.860	-0.870
2020/01/31 13:42:10.9	1.620	-0.500	0.890	-0.820
2020/01/31 13:42:11.0	1.590	-0.500	0.920	-0.760
2020/01/31 13:42:11.1	1.560	-0.490	0.940	-0.700
2020/01/31 13:42:11.2	1.530	-0.480	0.940	-0.640
2020/01/31 13:42:11.3	1.500	-0.470	0.940	-0.580
2020/01/31 13:42:11.4	1.470	-0.450	0.930	-0.520
2020/01/31 13:42:11.5	1.440	-0.430	0.910	-0.450
2020/01/31 13:42:11.6	1.410	-0.400	0.880	-0.390
2020/01/31 13:42:11.7	1.390	-0.370	0.840	-0.330
2020/01/31 13:42:11.8	1.360	-0.340	0.790	-0.260
2020/01/31 13:42:11.9	1.340	-0.300	0.730	-0.200
2020/01/31 13:42:12.0	1.320	-0.260	0.670	-0.140
2020/01/31 13:42:12.1	1.300	-0.220	0.600	-0.080
2020/01/31 13:42:12.2	1.280	-0.180	0.520	-0.020
2020/01/31 13:42:12.3	1.270	-0.130	0.430	0.040
2020/01/31 13:42:12.4	1.250	-0.080	0.350	0.100
2020/01/31 13:42:12.5	1.240	-0.030	0.260	0.150
2020/01/31 13:42:12.6	1.230	0.020	0.160	0.210
2020/01/31 13:42:12.7	1.220	0.060	0.060	0.260
2020/01/31 13:42:12.8	1.220	0.110	-0.030	0.310
2020/01/31 13:42:12.9	1.220	0.160	-0.130	0.350
2020/01/31 13:42:13.0	1.220	0.210	-0.230	0.400
2020/01/31 13:42:13.1	1.220	0.260	-0.330	0.440
2020/01/31 13:42:13.2	1.220	0.300	-0.420	0.470
2020/01/31 13:42:13.3	1.230	0.340	-0.510	0.510
2020/01/31 13:42:13.4	1.230	0.380	-0.600	0.540
2020/01/31 13:42:13.5	1.240	0.420	-0.690	0.570
2020/01/31 13:42:13.6	1.240	0.450	-0.770	0.600
2020/01/31 13:42:13.7	1.250	0.480	-0.850	0.620
2020/01/31 13:42:13.8	1.260	0.500	-0.920	0.640
2020/01/31 13:42:13.9	1.270	0.520	-0.990	0.660
2020/01/31 13:42:14.0	1.270	0.530	-1.060	0.660
2020/01/31 13:42:14.1	1.280	0.540	-1.120	0.660
2020/01/31 13:42:14.2	1.300	0.540	-1.170	0.660
2020/01/31 13:42:14.3	1.310	0.540	-1.210	0.650
2020/01/31 13:42:14.4	1.320	0.530	-1.250	0.630
2020/01/31 13:42:14.5	1.330	0.510	-1.290	0.610
2020/01/31 13:42:14.6	1.350	0.490	-1.320	0.580
2020/01/31 13:42:14.7	1.360	0.470	-1.340	0.550
2020/01/31 13:42:14.8	1.380	0.440	-1.350	0.500
2020/01/31 13:42:14.9	1.390	0.400	-1.360	0.460
2020/01/31 13:42:15.0	1.410	0.360	-1.360	0.400
2020/01/31 13:42:15.1	1.430	0.320	-1.350	0.340
2020/01/31 13:42:15.2	1.450	0.270	-1.340	0.280
2020/01/31 13:42:15.3	1.480	0.220	-1.320	0.210
2020/01/31 13:42:15.4	1.500	0.170	-1.300	0.140
2020/01/31 13:42:15.5	1.530	0.110	-1.270	0.060
2020/01/31 13:42:15.6	1.550	0.050	-1.230	-0.030
2020/01/31 13:42:15.7	1.580	-0.000	-1.190	-0.110
2020/01/31 13:42:15.8	1.610	-0.070	-1.140	-0.200
2020/01/31 13:42:15.9	1.640	-0.130	-1.090	-0.280
2020/01/31 13:42:16.0	1.670	-0.190	-1.040	-0.370
2020/01/31 13:42:16.1	1.700	-0.250	-0.980	-0.460
2020/01/31 13:42:16.2	1.730	-0.310	-0.920	-0.550
2020/01/31 13:42:16.3	1.760	-0.360	-0.850	-0.640
2020/01/31 13:42:16.4	1.790	-0.420	-0.780	-0.730
2020/01/31 13:42:16.5	1.820	-0.470	-0.710	-0.820
2020/01/31 13:42:16.6	1.850	-0.530	-0.630	-0.900
2020/01/31 13:42:16.7	1.870	-0.570	-0.560	-0.980
2020/01/31 13:42:16.8	1.900	-0.620	-0.480	-1.060
2020/01/31 13:42:16.9	1.920	-0.660	-0.400	-1.140
2020/01/31 13:42:17.0	1.950	-0.700	-0.320	-1.210
2020/01/31 13:42:17.1	1.970	-0.730	-0.240	-1.280
2020/01/31 13:42:17.2	1.980	-0.760	-0.160	-1.340
2020/01/31 13:42:17.3	2.000	-0.780	-0.090	-1.400
2020/01/31 13:42:17.4	2.010	-0.800	-0.010	-1.460
2020/01/31 13:42:17.5	2.020	-0.820	0.070	-1.510
2020/01/31 13:42:17.6	2.040	-0.830	0.140	-1.550
2020/01/31 13:42:17.7	2.040	-0.830	0.200	-1.580
2020/01/31 13:42:17.8	2.040	-0.830	0.270	-1.610
2020/01/31 13:42:17.9	2.040	-0.830	0.330	-1.640
2020/01/31 13:42:18.0	2.030	-0.820	0.390	-1.650
2020/01/31 13:42:18.1	2.020	-0.810	0.450	-1.660
2020/01/31 13:42:18.2	2.010	-0.790	0.500	-1.670
2020/01/31 13:42:18.3	1.990	-0.770	0.540	-1.670
2020/01/31 13:42:18.4	1.970	-0.740	0.580	-1.660
2020/01/31 13:42:18.5	1.950	-0.720	0.620	-1.650
2020/01/31 13:42:18.6	1.930	-0.680	0.640	-1.630
2020/01/31 13:42:18.7	1.900	-0.640	0.670	-1.600
2020/01/31 13:42:18.8	1.880	-0.600	0.690	-1.570
2020/01/31 13:42:18.9	1.850	-0.560	0.700	-1.530
2020/01/31 13:42:19.0	1.820	-0.510	0.710	-1.490
2020/01/31 13:42:19.1	1.790	-0.460	0.720	-1.440
2020/01/31 13:42:19.2	1.760	-0.400	0.720	-1.390
2020/01/31 13:42:19.3	1.720	-0.350	0.710	-1.330
2020/01/31 13:42:19.4	1.690	-0.290	0.700	-1.260
2020/01/31 13:42:19.5	1.650	-0.220	0.690	-1.190
2020/01/31 13:42:19.6	1.610	-0.160	0.670	-1.110
2020/01/31 13:42:19.7	1.570	-0.090	0.650	-1.020
2020/01/31 13:42:19.8	1.530	-0.030	0.620	-0.930
2020/01/31 13:42:19.9	1.490	0.040	0.590	-0.840
2020/01/31 13:42:20.0	1.450	0.110	0.560	-0.740
2020/01/31 13:42:20.1	1.410	0.180	0.530	-0.640
2020/01/31 13:42:20.2	1.370	0.250	0.490	-0.530
2020/01/31 13:42:20.3	1.320	0.320	0.450	-0.420
2020/01/31 13:42:20.4	1.280	0.390	0.410	-0.310
2020/01/31 13:42:20.5	1.240	0.450	0.370	-0.190
2020/01/31 13:42:20.6	1.200	0.520	0.320	-0.070
2020/01/31 13:42:20.7	1.160	0.580	0.270	0.040
2020/01/31 13:42:20.8	1.120	0.650	0.220	0.160
2020/01/31 13:42:20.9	1.080	0.710	0.160	0.270
2020/01/31 13:42:21.0	1.040	0.760	0.100	0.390
2020/01/31 13:42:21.1	1.010	0.820	0.050	0.500
2020/01/31 13:42:21.2	0.980	0.870	-0.020	0.610
2020/01/31 13:42:21.3	0.950	0.920	-0.080	0.710
2020/01/31 13:42:21.4	0.920	0.960	-0.140	0.800
2020/01/31 13:42:21.5	0.890	1.000	-0.210	0.900
2020/01/31 13:42:21.6	0.870	1.040	-0.280	0.990
2020/01/31 13:42:21.7	0.860	1.070	-0.340	1.070
2020/01/31 13:42:21.8	0.840	1.090	-0.410	1.140
2020/01/31 13:42:21.9	0.820	1.110	-0.470	1.200
2020/01/31 13:42:22.0	0.810	1.130	-0.540	1.260
2020/01/31 13:42:22.1	0.810	1.130	-0.600	1.300
2020/01/31 13:42:22.2	0.800	1.140	-0.650	1.340
2020/01/31 13:42:22.3	0.800	1.130	-0.710	1.370
2020/01/31 13:42:22.4	0.790	1.120	-0.760	1.400
2020/01/31 13:42:22.5	0.790	1.110	-0.810	1.420
2020/01/31 13:42:22.6	0.790	1.080	-0.850	1.420
2020/01/31 13:42:22.7	0.790	1.060	-0.890	1.430
2020/01/31 13:42:22.8	0.800	1.020	-0.930	1.420
2020/01/31 13:42:22.9	0.810	0.980	-0.960	1.410
2020/01/31 13:42:23.0	0.820	0.930	-0.980	1.390
2020/01/31 13:42:23.1	0.830	0.880	-1.000	1.370
2020/01/31 13:42:23.2	0.840	0.820	-1.020	1.340
2020/01/31 13:42:23.3	0.850	0.760	-1.020	1.300
2020/01/31 13:42:23.4	0.860	0.690	-1.030	1.260
2020/01/31 13:42:23.5	0.880	0.610	-1.020	1.210
2020/01/31 13:42:23.6	0.900	0.540	-1.020	1.160
2020/01/31 13:42:23.7	0.920	0.450	-1.000	1.100
2020/01/31 13:42:23.8	0.940	0.370	-0.990	1.040
2020/01/31 13:42:23.9	0.970	0.280	-0.960	0.970
2020/01/31 13:42:24.0	0.990	0.190	-0.940	0.890
2020/01/31 13:42:24.1	1.010	0.100	-0.910	0.810
2020/01/31 13:42:24.2	1.040	0.000	-0.880	0.730
2020/01/31 13:42:24.3	1.070	-0.090	-0.850	0.640
2020/01/31 13:42:24.4	1.100	-0.190	-0.810	0.540
2020/01/31 13:42:24.5	1.140	-0.280	-0.770	0.440
2020/01/31 13:42:24.6	1.180	-0.370	-0.740	0.330
2020/01/31 13:42:24.7	1.220	-0.460	-0.700	0.220
2020/01/31 13:42:24.8	1.260	-0.550	-0.660	0.100
2020/01/31 13:42:24.9	1.300	-0.640	-0.620	-0.020
2020/01/31 13:42:25.0	1.350	-0.720	-0.590	-0.140
2020/01/31 13:42:25.1	1.390	-0.800	-0.550	-0.270
2020/01/31 13:42:25.2	1.440	-0.870	-0.520	-0.390
2020/01/31 13:42:25.3	1.490	-0.930	-0.480	-0.520
2020/01/31 13:42:25.4	1.540	-0.990	-0.450	-0.640
2020/01/31 13:42:25.5	1.590	-1.050	-0.420	-0.770
2020/01/31 13:42:25.6	1.650	-1.090	-0.390	-0.900
2020/01/31 13:42:25.7	1.700	-1.130	-0.360	-1.020
2020/01/31 13:42:25.8	1.750	-1.170	-0.330	-1.130
2020/01/31 13:42:25.9	1.810	-1.190	-0.300	-1.250
2020/01/31 13:42:26.0	1.860	-1.210	-0.280	-1.360
2020/01/31 13:42:26.1	1.910	-1.210	-0.260	-1.470
2020/01/31 13:42:26.2	1.960	-1.210	-0.230	-1.570
2020/01/31 13:42:26.3	2.010	-1.210	-0.220	-1.670
2020/01/31 13:42:26.4	2.060	-1.190	-0.200	-1.760
2020/01/31 13:42:26.5	2.100	-1.170	-0.180	-1.850
2020/01/31 13:42:26.6	2.140	-1.140	-0.180	-1.930
2020/01/31 13:42:26.7	2.190	-1.110	-0.160	-2.000
2020/01/31 13:42:26.8	2.230	-1.060	-0.150	-2.070
2020/01/31 13:42:26.9	2.260	-1.020	-0.140	-2.130
2020/01/31 13:42:27.0	2.290	-0.960	-0.140	-2.180
2020/01/31 13:42:27.1	2.320	-0.900	-0.130	-2.230
2020/01/31 13:42:27.2	2.340	-0.840	-0.120	-2.260
2020/01/31 13:42:27.3	2.360	-0.780	-0.120	-2.290
2020/01/31 13:42:27.4	2.370	-0.710	-0.110	-2.310
2020/01/31 13:42:27.5	2.380	-0.640	-0.100	-2.320
2020/01/31 13:42:27.6	2.390	-0.570	-0.100	-2.320
2020/01/31 13:42:27.7	2.390	-0.490	-0.090	-2.320
2020/01/31 13:42:27.8	2.390	-0.420	-0.080	-2.300
2020/01/31 13:42:27.9	2.380	-0.350	-0.070	-2.280
2020/01/31 13:42:28.0	2.360	-0.280	-0.070	-2.240
2020/01/31 13:42:28.1	2.340	-0.200	-0.060	-2.200
2020/01/31 13:42:28.2	2.320	-0.140	-0.050	-2.150
2020/01/31 13:42:28.3	2.300	-0.070	-0.030	-2.100
2020/01/31 13:42:28.4	2.270	-0.000	-0.020	-2.030
2020/01/31 13:42:28.5	2.240	0.060	-0.010	-1.970
2020/01/31 13:42:28.6	2.200	0.120	-0.000	-1.880
2020/01/31 13:42:28.7	2.170	0.180	0.010	-1.800
2020/01/31 13:42:28.8	2.130	0.230	0.020	-1.720
2020/01/31 13:42:28.9	2.090	0.280	0.040	-1.620
2020/01/31 13:42:29.0	2.040	0.330	0.050	-1.530
2020/01/31 13:42:29.1	2.000	0.370	0.060	-1.420
2020/01/31 13:42:29.2	1.950	0.410	0.080	-1.320
2020/01/31 13:42:29.3	1.900	0.450	0.090	-1.210
2020/01/31 13:42:29.4	1.850	0.480	0.100	-1.100
2020/01/31 13:42:29.5	1.790	0.510	0.110	-0.980
2020/01/31 13:42:29.6	1.740	0.530	0.120	-0.860
2020/01/31 13:42:29.7	1.680	0.550	0.140	-0.740
2020/01/31 13:42:29.8	1.630	0.570	0.150	-0.620
2020/01/31 13:42:29.9	1.570	0.590	0.160	-0.500
2020/01/31 13:42:30.0	1.510	0.600	0.170	-0.380
2020/01/31 13:42:30.1	1.450	0.610	0.180	-0.250
2020/01/31 13:42:30.2	1.390	0.620	0.200	-0.130
2020/01/31 13:42:30.3	1.330	0.630	0.210	-0.010
2020/01/31 13:42:30.4	1.280	0.640	0.210	0.110
2020/01/31 13:42:30.5	1.220	0.640	0.220	0.230
2020/01/31 13:42:30.6	1.160	0.640	0.230	0.350
2020/01/31 13:42:30.7	1.110	0.640	0.230	0.460
2020/01/31 13:42:30.8	1.060	0.640	0.240	0.570
2020/01/31 13:42:30.9	1.010	0.640	0.240	0.670
2020/01/31 13:42:31.0	0.960	0.640	0.240	0.770
2020/01/31 13:42:31.1	0.920	0.640	0.230	0.870
2020/01/31 13:42:31.2	0.880	0.630	0.230	0.960
2020/01/31 13:42:31.3	0.840	0.620	0.220	1.040
2020/01/31 13:42:31.4	0.800	0.620	0.210	1.110
2020/01/31 13:42:31.5	0.770	0.610	0.200	1.180
2020/01/31 13:42:31.6	0.740	0.600	0.180	1.250
2020/01/31 13:42:31.7	0.710	0.580	0.150	1.300
2020/01/31 13:42:31.8	0.690	0.570	0.130	1.350
2020/01/31 13:42:31.9	0.680	0.550	0.100	1.380
2020/01/31 13:42:32.0	0.670	0.540	0.070	1.410
2020/01/31 13:42:32.1	0.660	0.520	0.030	1.440
2020/01/31 13:42:32.2	0.660	0.500	-0.010	1.450
2020/01/31 13:42:32.3	0.660	0.480	-0.050	1.460
2020/01/31 13:42:32.4	0.660	0.450	-0.100	1.450
2020/01/31 13:42:32.5	0.670	0.430	-0.140	1.450
2020/01/31 13:42:32.6	0.670	0.400	-0.190	1.430
2020/01/31 13:42:32.7	0.690	0.370	-0.250	1.410
2020/01/31 13:42:32.8	0.710	0.340	-0.300	1.380
2020/01/31 13:42:32.9	0.730	0.310	-0.350	1.350
2020/01/31 13:42:33.0	0.760	0.270	-0.410	1.310
2020/01/31 13:42:33.1	0.780	0.240	-0.460	1.270
2020/01/31 13:42:33.2	0.810	0.200	-0.520	1.220
2020/01/31 13:42:33.3	0.840	0.160	-0.570	1.170
2020/01/31 13:42:33.4	0.880	0.120	-0.620	1.120
2020/01/31 13:42:33.5	0.910	0.080	-0.670	1.060
2020/01/31 13:42:33.6	0.940	0.040	-0.720	0.990
2020/01/31 13:42:33.7	0.980	0.000	-0.760	0.930
2020/01/31 13:42:33.8	1.010	-0.040	-0.800	0.860
2020/01/31 13:42:33.9	1.050	-0.080	-0.840	0.790
2020/01/31 13:42:34.0	1.090	-0.120	-0.880	0.720
2020/01/31 13:42:34.1	1.130	-0.160	-0.910	0.640
2020/01/31 13:42:34.2	1.170	-0.210	-0.940	0.560
2020/01/31 13:42:34.3	1.210	-0.250	-0.960	0.480
2020/01/31 13:42:34.4	1.250	-0.280	-0.980	0.390
2020/01/31 13:42:34.5	1.300	-0.320	-0.990	0.300
2020/01/31 13:42:34.6	1.340	-0.360	-1.000	0.210
2020/01/31 13:42:34.7	1.380	-0.390	-1.010	0.130
2020/01/31 13:42:34.8	1.420	-0.420	-1.010	0.040
2020/01/31 13:42:34.9	1.470	-0.450	-1.000	-0.050
2020/01/31 13:42:35.0	1.510	-0.480	-1.000	-0.140
2020/01/31 13:42:35.1	1.550	-0.500	-0.980	-0.230
2020/01/31 13:42:35.2	1.590	-0.520	-0.970	-0.310
2020/01/31 13:42:35.3	1.620	-0.540	-0.940	-0.390
2020/01/31 13:42:35.4	1.660	-0.550	-0.920	-0.470
2020/01/31 13:42:35.5	1.690	-0.560	-0.890	-0.550
2020/01/31 13:42:35.6	1.730	-0.570	-0.850	-0.620
2020/01/31 13:42:35.7	1.760	-0.570	-0.820	-0.690
2020/01/31 13:42:35.8	1.790	-0.570	-0.780	-0.760
2020/01/31 13:42:35.9	1.820	-0.570	-0.740	-0.820
2020/01/31 13:42:36.0	1.840	-0.560	-0.700	-0.870
2020/01/31 13:42:36.1	1.860	-0.550	-0.650	-0.930
2020/01/31 13:42:36.2	1.880	-0.540	-0.610	-0.980
2020/01/31 13:42:36.3	1.900	-0.530	-0.560	-1.020
2020/01/31 13:42:36.4	1.910	-0.510	-0.520	-1.060
2020/01/31 13:42:36.5	1.920	-0.500	-0.470	-1.090
2020/01/31 13:42:36.6	1.940	-0.480	-0.430	-1.120
2020/01/31 13:42:36.7	1.940	-0.460	-0.380	-1.140
2020/01/31 13:42:36.8	1.940	-0.430	-0.340	-1.160
2020/01/31 13:42:36.9	1.940	-0.410	-0.290	-1.180
2020/01/31 13:42:37.0	1.940	-0.390	-0.250	-1.190
2020/01/31 13:42:37.1	1.930	-0.360	-0.210	-1.200
2020/01/31 13:42:37.2	1.920	-0.340	-0.180	-1.200
2020/01/31 13:42:37.3	1.910	-0.310	-0.150	-1.210
2020/01/31 13:42:37.4	1.900	-0.290	-0.120	-1.210
2020/01/31 13:42:37.5	1.890	-0.260	-0.090	-1.200
2020/01/31 13:42:37.6	1.880	-0.240	-0.070	-1.200
2020/01/31 13:42:37.7	1.860	-0.210	-0.050	-1.200
2020/01/31 13:42:37.8	1.850	-0.180	-0.040	-1.190
2020/01/31 13:42:37.9	1.840	-0.160	-0.030	-1.190
2020/01/31 13:42:38.0	1.830	-0.130	-0.020	-1.180
2020/01/31 13:42:38.1	1.820	-0.110	-0.020	-1.180
2020/01/31 13:42:38.2	1.810	-0.080	-0.020	-1.180
2020/01/31 13:42:38.3	1.810	-0.050	-0.030	-1.170
2020/01/31 13:42:38.4	1.800	-0.030	-0.030	-1.170
2020/01/31 13:42:38.5	1.800	-0.000	-0.050	-1.160
2020/01/31 13:42:38.6	1.790	0.020	-0.060	-1.150
2020/01/31 13:42:38.7	1.790	0.050	-0.070	-1.150
2020/01/31 13:42:38.8	1.790	0.070	-0.090	-1.140
2020/01/31 13:42:38.9	1.790	0.100	-0.110	-1.130
2020/01/31 13:42:39.0	1.790	0.120	-0.120	-1.110
2020/01/31 13:42:39.1	1.780	0.150	-0.140	-1.090
2020/01/31 13:42:39.2	1.780	0.170	-0.150	-1.070
2020/01/31 13:42:39.3	1.780	0.190	-0.160	-1.050
2020/01/31 13:42:39.4	1.780	0.220	-0.170	-1.020
2020/01/31 13:42:39.5	1.770	0.240	-0.180	-0.980
2020/01/31 13:42:39.6	1.770	0.260	-0.180	-0.940
2020/01/31 13:42:39.7	1.760	0.280	-0.180	-0.890
2020/01/31 13:42:39.8	1.740	0.300	-0.170	-0.840
2020/01/31 13:42:39.9	1.730	0.320	-0.150	-0.780
2020/01/31 13:42:40.0	1.710	0.340	-0.140	-0.720
2020/01/31 13:42:40.1	1.690	0.350	-0.110	-0.650
2020/01/31 13:42:40.2	1.670	0.370	-0.080	-0.580
2020/01/31 13:42:40.3	1.650	0.380	-0.050	-0.510
2020/01/31 13:42:40.4	1.630	0.380	-0.010	-0.430
2020/01/31 13:42:40.5	1.600	0.390	0.030	-0.350
2020/01/31 13:42:40.6	1.570	0.390	0.060	-0.260
2020/01/31 13:42:40.7	1.540	0.400	0.110	-0.180
2020/01/31 13:42:40.8	1.510	0.390	0.150	-0.090
2020/01/31 13:42:40.9	1.480	0.390	0.200	-0.010
2020/01/31 13:42:41.0	1.450	0.380	0.250	0.070
2020/01/31 13:42:41.1	1.420	0.380	0.290	0.160
2020/01/31 13:42:41.2	1.400	0.360	0.330	0.240
2020/01/31 13:42:41.3	1.370	0.350	0.370	0.320
2020/01/31 13:42:41.4	1.340	0.340	0.410	0.400
2020/01/31 13:42:41.5	1.310	0.320	0.440	0.470
2020/01/31 13:42:41.6	1.280	0.300	0.470	0.540
2020/01/31 13:42:41.7	1.260	0.290	0.490	0.610
2020/01/31 13:42:41.8	1.230	0.270	0.510	0.680
2020/01/31 13:42:41.9	1.210	0.250	0.520	0.740
2020/01/31 13:42:42.0	1.190	0.230	0.530	0.800
2020/01/31 13:42:42.1	1.180	0.210	0.530	0.850
2020/01/31 13:42:42.2	1.160	0.190	0.520	0.900
2020/01/31 13:42:42.3	1.150	0.180	0.510	0.950
2020/01/31 13:42:42.4	1.140	0.160	0.490	0.990
2020/01/31 13:42:42.5	1.130	0.140	0.470	1.030
2020/01/31 13:42:42.6	1.130	0.130	0.440	1.070
2020/01/31 13:42:42.7	1.120	0.110	0.400	1.100
2020/01/31 13:42:42.8	1.120	0.100	0.360	1.120
2020/01/31 13:42:42.9	1.120	0.090	0.320	1.140
2020/01/31 13:42:43.0	1.120	0.080	0.270	1.150
2020/01/31 13:42:43.1	1.120	0.070	0.220	1.150
2020/01/31 13:42:43.2	1.120	0.070	0.160	1.160
2020/01/31 13:42:43.3	1.130	0.060	0.100	1.150
2020/01/31 13:42:43.4	1.140	0.060	0.040	1.140
2020/01/31 13:42:43.5	1.150	0.060	-0.020	1.120
2020/01/31 13:42:43.6	1.150	0.060	-0.080	1.100
2020/01/31 13:42:43.7	1.160	0.060	-0.150	1.070
2020/01/31 13:42:43.8	1.170	0.060	-0.210	1.040
2020/01/31 13:42:43.9	1.190	0.070	-0.280	1.000
2020/01/31 13:42:44.0	1.200	0.070	-0.340	0.960
2020/01/31 13:42:44.1	1.210	0.080	-0.410	0.920
2020/01/31 13:42:44.2	1.220	0.080	-0.470	0.870
2020/01/31 13:42:44.3	1.230	0.090	-0.530	0.820
2020/01/31 13:42:44.4	1.240	0.090	-0.590	0.770
2020/01/31 13:42:44.5	1.260	0.100	-0.650	0.710
2020/01/31 13:42:44.6	1.280	0.100	-0.700	0.650
2020/01/31 13:42:44.7	1.300	0.110	-0.750	0.590
2020/01/31 13:42:44.8	1.310	0.110	-0.800	0.520
2020/01/31 13:42:44.9	1.330	0.120	-0.850	0.460
2020/01/31 13:42:45.0	1.350	0.120	-0.890	0.390
2020/01/31 13:42:45.1	1.370	0.120	-0.930	0.320
2020/01/31 13:42:45.2	1.390	0.130	-0.960	0.250
2020/01/31 13:42:45.3	1.420	0.130	-1.000	0.180
2020/01/31 13:42:45.4	1.440	0.130	-1.030	0.110
2020/01/31 13:42:45.5	1.470	0.130	-1.050	0.040
2020/01/31 13:42:45.6	1.500	0.120	-1.070	-0.040
2020/01/31 13:42:45.7	1.530	0.120	-1.090	-0.110
2020/01/31 13:42:45.8	1.560	0.120	-1.100	-0.170
2020/01/31 13:42:45.9	1.590	0.110	-1.110	-0.240
2020/01/31 13:42:46.0	1.620	0.100	-1.110	-0.310
2020/01/31 13:42:46.1	1.650	0.090	-1.110	-0.380
2020/01/31 13:42:46.2	1.680	0.080	-1.110	-0.440
2020/01/31 13:42:46.3	1.710	0.070	-1.100	-0.500
2020/01/31 13:42:46.4	1.740	0.060	-1.080	-0.560
2020/01/31 13:42:46.5	1.760	0.040	-1.070	-0.620
2020/01/31 13:42:46.6	1.780	0.030	-1.040	-0.680
2020/01/31 13:42:46.7	1.810	0.010	-1.010	-0.730
2020/01/31 13:42:46.8	1.830	-0.010	-0.980	-0.780
2020/01/31 13:42:46.9	1.850	-0.030	-0.940	-0.830
2020/01/31 13:42:47.0	1.870	-0.050	-0.900	-0.870
2020/01/31 13:42:47.1	1.890	-0.070	-0.850	-0.910
2020/01/31 13:42:47.2	1.910	-0.090	-0.800	-0.950
2020/01/31 13:42:47.3	1.920	-0.110	-0.750	-0.980
2020/01/31 13:42:47.4	1.930	-0.130	-0.690	-1.010
2020/01/31 13:42:47.5	1.940	-0.160	-0.630	-1.030
2020/01/31 13:42:47.6	1.950	-0.180	-0.570	-1.050
2020/01/31 13:42:47.7	1.950	-0.200	-0.500	-1.070
2020/01/31 13:42:47.8	1.960	-0.230	-0.430	-1.080
2020/01/31 13:42:47.9	1.960	-0.250	-0.360	-1.090
2020/01/31 13:42:48.0	1.960	-0.280	-0.290	-1.090
2020/01/31 13:42:48.1	1.960	-0.300	-0.210	-1.090
2020/01/31 13:42:48.2	1.960	-0.320	-0.140	-1.090
2020/01/31 13:42:48.3	1.960	-0.350	-0.070	-1.080
2020/01/31 13:42:48.4	1.960	-0.380	0.000	-1.080
2020/01/31 13:42:48.5	1.950	-0.400	0.070	-1.070
2020/01/31 13:42:48.6	1.950	-0.430	0.130	-1.050
2020/01/31 13:42:48.7	1.940	-0.450	0.200	-1.040
2020/01/31 13:42:48.8	1.930	-0.470	0.260	-1.020
2020/01/31 13:42:48.9	1.920	-0.500	0.310	-1.010
2020/01/31 13:42:49.0	1.910	-0.520	0.370	-0.990
2020/01/31 13:42:49.1	1.890	-0.540	0.410	-0.970
2020/01/31 13:42:49.2	1.880	-0.560	0.450	-0.950
2020/01/31 13:42:49.3	1.860	-0.580	0.490	-0.930
2020/01/31 13:42:49.4	1.850	-0.590	0.520	-0.910
2020/01/31 13:42:49.5	1.840	-0.600	0.540	-0.890
2020/01/31 13:42:49.6	1.820	-0.610	0.560	-0.870
2020/01/31 13:42:49.7	1.810	-0.620	0.560	-0.850
2020/01/31 13:42:49.8	1.800	-0.620	0.570	-0.830
2020/01/31 13:42:49.9	1.790	-0.620	0.560	-0.810
2020/01/31 13:42:50.0	1.780	-0.620	0.550	-0.790
2020/01/31 13:42:50.1	1.780	-0.610	0.520	-0.770
2020/01/31 13:42:50.2	1.780	-0.600	0.500	-0.760
2020/01/31 13:42:50.3	1.780	-0.580	0.460	-0.740
2020/01/31 13:42:50.4	1.790	-0.560	0.420	-0.720
2020/01/31 13:42:50.5	1.790	-0.530	0.370	-0.710
2020/01/31 13:42:50.6	1.810	-0.500	0.310	-0.690
2020/01/31 13:42:50.7	1.820	-0.460	0.250	-0.680
2020/01/31 13:42:50.8	1.830	-0.420	0.190	-0.670
2020/01/31 13:42:50.9	1.850	-0.380	0.120	-0.660
2020/01/31 13:42:51.0	1.860	-0.330	0.040	-0.650
2020/01/31 13:42:51.1	1.880	-0.270	-0.030	-0.640
2020/01/31 13:42:51.2	1.900	-0.220	-0.100	-0.630
2020/01/31 13:42:51.3	1.920	-0.160	-0.180	-0.620
2020/01/31 13:42:51.4	1.940	-0.100	-0.250	-0.610
2020/01/31 13:42:51.5	1.950	-0.030	-0.320	-0.600
2020/01/31 13:42:51.6	1.980	0.030	-0.390	-0.570
2020/01/31 13:42:51.7	1.990	0.100	-0.460	-0.550
2020/01/31 13:42:51.8	2.000	0.160	-0.520	-0.530
2020/01/31 13:42:51.9	2.010	0.230	-0.570	-0.500
2020/01/31 13:42:52.0	2.020	0.300	-0.620	-0.470
2020/01/31 13:42:52.1	2.030	0.360	-0.660	-0.430
2020/01/31 13:42:52.2	2.030	0.420	-0.690	-0.390
2020/01/31 13:42:52.3	2.030	0.480	-0.710	-0.350
2020/01/31 13:42:52.4	2.030	0.540	-0.730	-0.300
2020/01/31 13:42:52.5	2.030	0.600	-0.740	-0.260
2020/01/31 13:42:52.6	2.030	0.650	-0.750	-0.200
2020/01/31 13:42:52.7	2.030	0.700	-0.750	-0.150
2020/01/31 13:42:52.8	2.030	0.740	-0.740	-0.090
2020/01/31 13:42:52.9	2.020	0.780	-0.720	-0.030
2020/01/31 13:42:53.0	2.020	0.810	-0.700	0.030
2020/01/31 13:42:53.1	2.010	0.840	-0.670	0.090
2020/01/31 13:42:53.2	2.010	0.860	-0.640	0.150
2020/01/31 13:42:53.3	2.000	0.880	-0.600	0.210
2020/01/31 13:42:53.4	1.990	0.890	-0.560	0.270
2020/01/31 13:42:53.5	1.990	0.900	-0.520	0.330
2020/01/31 13:42:53.6	1.970	0.900	-0.470	0.390
2020/01/31 13:42:53.7	1.960	0.900	-0.430	0.450
2020/01/31 13:42:53.8	1.950	0.900	-0.380	0.510
2020/01/31 13:42:53.9	1.940	0.880	-0.340	0.560
2020/01/31 13:42:54.0	1.940	0.870	-0.290	0.610
2020/01/31 13:42:54.1	1.930	0.850	-0.250	0.650
2020/01/31 13:42:54.2	1.920	0.820	-0.200	0.700
2020/01/31 13:42:54.3	1.920	0.790	-0.160	0.730
2020/01/31 13:42:54.4	1.910	0.760	-0.120	0.760
2020/01/31 13:42:54.5	1.910	0.720	-0.080	0.790
2020/01/31 13:42:54.6	1.910	0.680	-0.050	0.810
2020/01/31 13:42:54.7	1.900	0.640	-0.020	0.830
2020/01/31 13:42:54.8	1.900	0.590	0.010	0.840
2020/01/31 13:42:54.9	1.890	0.540	0.040	0.840
2020/01/31 13:42:55.0	1.890	0.490	0.060	0.840
2020/01/31 13:42:55.1	1.890	0.430	0.080	0.840
2020/01/31 13:42:55.2	1.880	0.380	0.090	0.820
2020/01/31 13:42:55.3	1.880	0.320	0.110	0.810
2020/01/31 13:42:55.4	1.880	0.260	0.110	0.780
2020/01/31 13:42:55.5	1.880	0.200	0.120	0.760
2020/01/31 13:42:55.6	1.880	0.140	0.120	0.730
2020/01/31 13:42:55.7	1.880	0.080	0.120	0.690
2020/01/31 13:42:55.8	1.880	0.020	0.110	0.650
2020/01/31 13:42:55.9	1.890	-0.030	0.100	0.610
2020/01/31 13:42:56.0	1.890	-0.090	0.080	0.560
2020/01/31 13:42:56.1	1.890	-0.150	0.070	0.510
2020/01/31 13:42:56.2	1.890	-0.210	0.050	0.460
2020/01/31 13:42:56.3	1.890	-0.260	0.030	0.400
2020/01/31 13:42:56.4	1.890	-0.310	0.000	0.340
2020/01/31 13:42:56.5	1.890	-0.360	-0.020	0.280
2020/01/31 13:42:56.6	1.900	-0.410	-0.050	0.220
2020/01/31 13:42:56.7	1.900	-0.460	-0.080	0.150
2020/01/31 13:42:56.8	1.900	-0.500	-0.100	0.090
2020/01/31 13:42:56.9	1.900	-0.540	-0.130	0.020
2020/01/31 13:42:57.0	1.900	-0.580	-0.160	-0.050
2020/01/31 13:42:57.1	1.890	-0.610	-0.190	-0.120
2020/01/31 13:42:57.2	1.890	-0.640	-0.210	-0.180
2020/01/31 13:42:57.3	1.890	-0.670	-0.240	-0.250
2020/01/31 13:42:57.4	1.880	-0.690	-0.260	-0.320
2020/01/31 13:42:57.5	1.880	-0.710	-0.280	-0.390
2020/01/31 13:42:57.6	1.870	-0.730	-0.310	-0.460
2020/01/31 13:42:57.7	1.860	-0.740	-0.320	-0.530
2020/01/31 13:42:57.8	1.860	-0.750	-0.340	-0.600
2020/01/31 13:42:57.9	1.850	-0.750	-0.350	-0.670
2020/01/31 13:42:58.0	1.850	-0.750	-0.360	-0.730
2020/01/31 13:42:58.1	1.840	-0.750	-0.370	-0.800
2020/01/31 13:42:58.2	1.840	-0.740	-0.370	-0.860
2020/01/31 13:42:58.3	1.830	-0.730	-0.380	-0.930
2020/01/31 13:42:58.4	1.830	-0.720	-0.380	-0.990
2020/01/31 13:42:58.5	1.820	-0.700	-0.380	-1.050
2020/01/31 13:42:58.6	1.810	-0.680	-0.370	-1.110
2020/01/31 13:42:58.7	1.810	-0.660	-0.370	-1.160
2020/01/31 13:42:58.8	1.810	-0.630	-0.360	-1.220
2020/01/31 13:42:58.9	1.820	-0.600	-0.350	-1.270
2020/01/31 13:42:59.0	1.820	-0.570	-0.340	-1.310
2020/01/31 13:42:59.1	1.830	-0.540	-0.330	-1.360
2020/01/31 13:42:59.2	1.830	-0.500	-0.330	-1.400
2020/01/31 13:42:59.3	1.840	-0.470	-0.320	-1.440
2020/01/31 13:42:59.4	1.850	-0.430	-0.310	-1.470
2020/01/31 13:42:59.5	1.860	-0.390	-0.300	-1.500
2020/01/31 13:42:59.6	1.870	-0.340	-0.290	-1.530
2020/01/31 13:42:59.7	1.880	-0.300	-0.280	-1.550
2020/01/31 13:42:59.8	1.890	-0.260	-0.270	-1.570
2020/01/31 13:42:59.9	1.900	-0.220	-0.260	-1.590
2020/01/31 13:43:00.0	1.920	-0.180	-0.260	-1.600
2020/01/31 13:43:00.1	1.930	-0.130	-0.250	-1.600
2020/01/31 13:43:00.2	1.940	-0.090	-0.240	-1.600
2020/01/31 13:43:00.3	1.950	-0.060	-0.230	-1.600
2020/01/31 13:43:00.4	1.960	-0.020	-0.230	-1.590
2020/01/31 13:43:00.5	1.970	0.020	-0.220	-1.580
2020/01/31 13:43:00.6	1.970	0.050	-0.220	-1.570
2020/01/31 13:43:00.7	1.970	0.080	-0.220	-1.550
2020/01/31 13:43:00.8	1.970	0.110	-0.210	-1.520
2020/01/31 13:43:00.9	1.970	0.140	-0.210	-1.500
2020/01/31 13:43:01.0	1.970	0.170	-0.210	-1.470
2020/01/31 13:43:01.1	1.970	0.190	-0.210	-1.440
2020/01/31 13:43:01.2	1.970	0.210	-0.210	-1.400
2020/01/31 13:43:01.3	1.970	0.230	-0.210	-1.360
2020/01/31 13:43:01.4	1.960	0.240	-0.210	-1.320
2020/01/31 13:43:01.5	1.960	0.260	-0.210	-1.270
2020/01/31 13:43:01.6	1.950	0.270	-0.210	-1.220
2020/01/31 13:43:01.7	1.940	0.280	-0.220	-1.170
2020/01/31 13:43:01.8	1.930	0.290	-0.220	-1.110
2020/01/31 13:43:01.9	1.920	0.290	-0.220	-1.050
2020/01/31 13:43:02.0	1.910	0.300	-0.220	-0.990
2020/01/31 13:43:02.1	1.900	0.300	-0.220	-0.920
2020/01/31 13:43:02.2	1.890	0.300	-0.220	-0.860
2020/01/31 13:43:02.3	1.880	0.300	-0.220	-0.780
2020/01/31 13:43:02.4	1.870	0.300	-0.220	-0.710
2020/01/31 13:43:02.5	1.850	0.300	-0.220	-0.630
2020/01/31 13:43:02.6	1.850	0.300	-0.220	-0.550
2020/01/31 13:43:02.7	1.830	0.300	-0.220	-0.470
2020/01/31 13:43:02.8	1.820	0.300	-0.210	-0.390
2020/01/31 13:43:02.9	1.800	0.300	-0.210	-0.300
2020/01/31 13:43:03.0	1.790	0.300	-0.210	-0.220
2020/01/31 13:43:03.1	1.770	0.300	-0.210	-0.130
2020/01/31 13:43:03.2	1.760	0.300	-0.210	-0.040
2020/01/31 13:43:03.3	1.740	0.290	-0.220	0.050
2020/01/31 13:43:03.4	1.720	0.290	-0.220	0.140
2020/01/31 13:43:03.5	1.700	0.290	-0.230	0.230
2020/01/31 13:43:03.6	1.690	0.290	-0.240	0.320
2020/01/31 13:43:03.7	1.670	0.280	-0.250	0.400
2020/01/31 13:43:03.8	1.650	0.280	-0.260	0.490
2020/01/31 13:43:03.9	1.630	0.280	-0.270	0.570
2020/01/31 13:43:04.0	1.600	0.270	-0.290	0.640
2020/01/31 13:43:04.1	1.580	0.270	-0.310	0.710
2020/01/31 13:43:04.2	1.560	0.270	-0.320	0.780
2020/01/31 13:43:04.3	1.540	0.260	-0.350	0.840
2020/01/31 13:43:04.4	1.520	0.260	-0.370	0.900
2020/01/31 13:43:04.5	1.500	0.260	-0.390	0.950
2020/01/31 13:43:04.6	1.490	0.250	-0.420	1.000
2020/01/31 13:43:04.7	1.470	0.250	-0.450	1.050
2020/01/31 13:43:04.8	1.450	0.250	-0.470	1.080
2020/01/31 13:43:04.9	1.430	0.240	-0.500	1.120
2020/01/31 13:43:05.0	1.410	0.240	-0.530	1.140
2020/01/31 13:43:05.1	1.400	0.230	-0.550	1.160
2020/01/31 13:43:05.2	1.390	0.230	-0.580	1.180
2020/01/31 13:43:05.3	1.380	0.230	-0.600	1.190
2020/01/31 13:43:05.4	1.370	0.220	-0.630	1.200
2020/01/31 13:43:05.5	1.360	0.220	-0.650	1.200
2020/01/31 13:43:05.6	1.360	0.210	-0.670	1.200
2020/01/31 13:43:05.7	1.360	0.210	-0.680	1.190
2020/01/31 13:43:05.8	1.360	0.210	-0.700	1.170
2020/01/31 13:43:05.9	1.360	0.200	-0.710	1.160
2020/01/31 13:43:06.0	1.370	0.190	-0.720	1.130
2020/01/31 13:43:06.1	1.380	0.190	-0.720	1.110
2020/01/31 13:43:06.2	1.400	0.180	-0.730	1.070
2020/01/31 13:43:06.3	1.410	0.170	-0.720	1.040
2020/01/31 13:43:06.4	1.430	0.170	-0.720	1.000
2020/01/31 13:43:06.5	1.450	0.160	-0.710	0.960
2020/01/31 13:43:06.6	1.480	0.150	-0.700	0.910
2020/01/31 13:43:06.7	1.500	0.130	-0.680	0.860
2020/01/31 13:43:06.8	1.520	0.120	-0.660	0.810
2020/01/31 13:43:06.9	1.550	0.100	-0.640	0.760
2020/01/31 13:43:07.0	1.570	0.090	-0.610	0.700
2020/01/31 13:43:07.1	1.590	0.070	-0.580	0.650
2020/01/31 13:43:07.2	1.610	0.050	-0.540	0.590
2020/01/31 13:43:07.3	1.630	0.030	-0.500	0.530
2020/01/31 13:43:07.4	1.640	0.000	-0.460	0.470
2020/01/31 13:43:07.5	1.660	-0.020	-0.410	0.410
2020/01/31 13:43:07.6	1.680	-0.050	-0.360	0.360
2020/01/31 13:43:07.7	1.690	-0.070	-0.300	0.300
2020/01/31 13:43:07.8	1.700	-0.100	-0.250	0.240
2020/01/31 13:43:07.9	1.710	-0.130	-0.190	0.180
2020/01/31 13:43:08.0	1.710	-0.160	-0.130	0.120
2020/01/31 13:43:08.1	1.720	-0.190	-0.070	0.060
2020/01/31 13:43:08.2	1.720	-0.220	-0.010	0.010
2020/01/31 13:43:08.3	1.720	-0.250	0.060	-0.050
2020/01/31 13:43:08.4	1.720	-0.280	0.120	-0.100
2020/01/31 13:43:08.5	1.710	-0.310	0.180	-0.150
2020/01/31 13:43:08.6	1.700	-0.340	0.240	-0.210
2020/01/31 13:43:08.7	1.700	-0.370	0.300	-0.260
2020/01/31 13:43:08.8	1.690	-0.390	0.360	-0.300
2020/01/31 13:43:08.9	1.680	-0.410	0.410	-0.350
2020/01/31 13:43:09.0	1.670	-0.440	0.460	-0.390
2020/01/31 13:43:09.1	1.660	-0.450	0.510	-0.430
2020/01/31 13:43:09.2	1.640	-0.470	0.550	-0.470
2020/01/31 13:43:09.3	1.630	-0.480	0.590	-0.510
2020/01/31 13:43:09.4	1.610	-0.490	0.620	-0.540
2020/01/31 13:43:09.5	1.600	-0.500	0.650	-0.580
2020/01/31 13:43:09.6	1.580	-0.500	0.670	-0.600
2020/01/31 13:43:09.7	1.560	-0.500	0.680	-0.630
2020/01/31 13:43:09.8	1.540	-0.500	0.690	-0.660
2020/01/31 13:43:09.9	1.520	-0.490	0.690	-0.680
2020/01/31 13:43:10.0	1.500	-0.480	0.690	-0.700
2020/01/31 13:43:10.1	1.480	-0.470	0.680	-0.710
2020/01/31 13:43:10.2	1.460	-0.450	0.670	-0.720
2020/01/31 13:43:10.3	1.430	-0.430	0.650	-0.730
2020/01/31 13:43:10.4	1.410	-0.400	0.620	-0.740
2020/01/31 13:43:10.5	1.390	-0.380	0.600	-0.740
2020/01/31 13:43:10.6	1.360	-0.350	0.560	-0.740
2020/01/31 13:43:10.7	1.340	-0.310	0.520	-0.730
2020/01/31 13:43:10.8	1.310	-0.280	0.490	-0.720
2020/01/31 13:43:10.9	1.280	-0.240	0.440	-0.710
2020/01/31 13:43:11.0	1.260	-0.210	0.400	-0.690
2020/01/31 13:43:11.1	1.230	-0.170	0.360	-0.670
2020/01/31 13:43:11.2	1.200	-0.130	0.310	-0.640
2020/01/31 13:43:11.3	1.170	-0.090	0.270	-0.610
2020/01/31 13:43:11.4	1.140	-0.050	0.230	-0.580
2020/01/31 13:43:11.5	1.110	-0.010	0.180	-0.540
2020/01/31 13:43:11.6	1.080	0.030	0.140	-0.500
2020/01/31 13:43:11.7	1.050	0.060	0.100	-0.450
2020/01/31 13:43:11.8	1.020	0.100	0.060	-0.410
2020/01/31 13:43:11.9	0.990	0.130	0.010	-0.360
2020/01/31 13:43:12.0	0.960	0.160	-0.030	-0.310
2020/01/31 13:43:12.1	0.930	0.190	-0.070	-0.260
2020/01/31 13:43:12.2	0.900	0.220	-0.110	-0.210
2020/01/31 13:43:12.3	0.870	0.250	-0.160	-0.170
2020/01/31 13:43:12.4	0.850	0.270	-0.200	-0.120
2020/01/31 13:43:12.5	0.830	0.290	-0.240	-0.070
2020/01/31 13:43:12.6	0.800	0.310	-0.300	-0.030
2020/01/31 13:43:12.7	0.790	0.320	-0.340	0.010
2020/01/31 13:43:12.8	0.770	0.330	-0.390	0.050
2020/01/31 13:43:12.9	0.760	0.340	-0.450	0.080
2020/01/31 13:43:13.0	0.750	0.350	-0.500	0.110
2020/01/31 13:43:13.1	0.750	0.360	-0.560	0.130
2020/01/31 13:43:13.2	0.750	0.360	-0.610	0.150
2020/01/31 13:43:13.3	0.750	0.360	-0.680	0.160
2020/01/31 13:43:13.4	0.760	0.360	-0.740	0.170
2020/01/31 13:43:13.5	0.770	0.360	-0.800	0.170
2020/01/31 13:43:13.6	0.800	0.350	-0.870	0.160
2020/01/31 13:43:13.7	0.820	0.350	-0.930	0.150
2020/01/31 13:43:13.8	0.840	0.340	-1.000	0.130
2020/01/31 13:43:13.9	0.870	0.330	-1.070	0.110
2020/01/31 13:43:14.0	0.900	0.320	-1.140	0.080
2020/01/31 13:43:14.1	0.930	0.310	-1.200	0.040
2020/01/31 13:43:14.2	0.970	0.300	-1.270	0.000
2020/01/31 13:43:14.3	1.010	0.290	-1.330	-0.040
2020/01/31 13:43:14.4	1.050	0.280	-1.390	-0.090
2020/01/31 13:43:14.5	1.100	0.260	-1.440	-0.140
2020/01/31 13:43:14.6	1.140	0.250	-1.490	-0.200
2020/01/31 13:43:14.7	1.180	0.240	-1.540	-0.250
2020/01/31 13:43:14.8	1.230	0.220	-1.570	-0.310
2020/01/31 13:43:14.9	1.280	0.210	-1.600	-0.360
2020/01/31 13:43:15.0	1.330	0.190	-1.630	-0.420
2020/01/31 13:43:15.1	1.380	0.180	-1.640	-0.480
2020/01/31 13:43:15.2	1.420	0.160	-1.650	-0.530
2020/01/31 13:43:15.3	1.470	0.150	-1.650	-0.580
2020/01/31 13:43:15.4	1.510	0.130	-1.640	-0.630
2020/01/31 13:43:15.5	1.560	0.110	-1.620	-0.680
2020/01/31 13:43:15.6	1.600	0.100	-1.590	-0.720
2020/01/31 13:43:15.7	1.640	0.080	-1.550	-0.770
2020/01/31 13:43:15.8	1.670	0.060	-1.510	-0.800
2020/01/31 13:43:15.9	1.710	0.050	-1.450	-0.830
2020/01/31 13:43:16.0	1.740	0.030	-1.390	-0.860
2020/01/31 13:43:16.1	1.770	0.010	-1.310	-0.890
2020/01/31 13:43:16.2	1.800	-0.010	-1.230	-0.900
2020/01/31 13:43:16.3	1.830	-0.020	-1.140	-0.920
2020/01/31 13:43:16.4	1.850	-0.040	-1.040	-0.920
2020/01/31 13:43:16.5	1.870	-0.060	-0.940	-0.920
2020/01/31 13:43:16.6	1.880	-0.080	-0.830	-0.920
2020/01/31 13:43:16.7	1.890	-0.100	-0.710	-0.910
2020/01/31 13:43:16.8	1.900	-0.110	-0.590	-0.890
2020/01/31 13:43:16.9	1.900	-0.130	-0.460	-0.870
2020/01/31 13:43:17.0	1.910	-0.150	-0.330	-0.850
2020/01/31 13:43:17.1	1.900	-0.170	-0.200	-0.820
2020/01/31 13:43:17.2	1.900	-0.190	-0.070	-0.780
2020/01/31 13:43:17.3	1.890	-0.200	0.060	-0.740
2020/01/31 13:43:17.4	1.880	-0.220	0.190	-0.700
2020/01/31 13:43:17.5	1.870	-0.240	0.320	-0.660
2020/01/31 13:43:17.6	1.860	-0.250	0.440	-0.610
2020/01/31 13:43:17.7	1.840	-0.270	0.560	-0.560
2020/01/31 13:43:17.8	1.820	-0.280	0.670	-0.510
2020/01/31 13:43:17.9	1.800	-0.300	0.780	-0.460
2020/01/31 13:43:18.0	1.770	-0.310	0.880	-0.410
2020/01/31 13:43:18.1	1.750	-0.320	0.970	-0.360
2020/01/31 13:43:18.2	1.720	-0.330	1.060	-0.300
2020/01/31 13:43:18.3	1.690	-0.340	1.140	-0.250
2020/01/31 13:43:18.4	1.660	-0.350	1.200	-0.200
2020/01/31 13:43:18.5	1.630	-0.360	1.260	-0.150
2020/01/31 13:43:18.6	1.610	-0.370	1.300	-0.100
2020/01/31 13:43:18.7	1.580	-0.380	1.340	-0.060
2020/01/31 13:43:18.8	1.550	-0.380	1.360	-0.010
2020/01/31 13:43:18.9	1.520	-0.390	1.380	0.030
2020/01/31 13:43:19.0	1.490	-0.390	1.380	0.070
2020/01/31 13:43:19.1	1.460	-0.390	1.380	0.100
2020/01/31 13:43:19.2	1.430	-0.390	1.360	0.140
2020/01/31 13:43:19.3	1.400	-0.390	1.340	0.170
2020/01/31 13:43:19.4	1.380	-0.390	1.300	0.190
2020/01/31 13:43:19.5	1.350	-0.390	1.260	0.220
2020/01/31 13:43:19.6	1.330	-0.390	1.210	0.240
2020/01/31 13:43:19.7	1.300	-0.380	1.150	0.260
2020/01/31 13:43:19.8	1.280	-0.370	1.080	0.280
2020/01/31 13:43:19.9	1.260	-0.370	1.000	0.290
2020/01/31 13:43:20.0	1.240	-0.360	0.930	0.300
2020/01/31 13:43:20.1	1.220	-0.340	0.840	0.310
2020/01/31 13:43:20.2	1.200	-0.330	0.750	0.320
2020/01/31 13:43:20.3	1.180	-0.320	0.660	0.330
2020/01/31 13:43:20.4	1.170	-0.300	0.560	0.330
2020/01/31 13:43:20.5	1.150	-0.280	0.460	0.340
2020/01/31 13:43:20.6	1.140	-0.270	0.370	0.350
2020/01/31 13:43:20.7	1.120	-0.240	0.260	0.350
2020/01/31 13:43:20.8	1.100	-0.220	0.160	0.350
2020/01/31 13:43:20.9	1.090	-0.200	0.060	0.360
2020/01/31 13:43:21.0	1.070	-0.170	-0.050	0.360
2020/01/31 13:43:21.1	1.060	-0.150	-0.150	0.360
2020/01/31 13:43:21.2	1.040	-0.120	-0.250	0.360
2020/01/31 13:43:21.3	1.030	-0.090	-0.350	0.360
2020/01/31 13:43:21.4	1.010	-0.060	-0.440	0.370
2020/01/31 13:43:21.5	0.990	-0.030	-0.540	0.370
2020/01/31 13:43:21.6	0.980	0.010	-0.630	0.370
2020/01/31 13:43:21.7	0.970	0.040	-0.720	0.370
2020/01/31 13:43:21.8	0.950	0.080	-0.800	0.370
2020/01/31 13:43:21.9	0.940	0.110	-0.880	0.370
2020/01/31 13:43:22.0	0.930	0.150	-0.960	0.380
2020/01/31 13:43:22.1	0.920	0.190	-1.030	0.380
2020/01/31 13:43:22.2	0.920	0.220	-1.100	0.380
2020/01/31 13:43:22.3	0.910	0.260	-1.160	0.380
2020/01/31 13:43:22.4	0.910	0.300	-1.210	0.380
2020/01/31 13:43:22.5	0.910	0.330	-1.260	0.370
2020/01/31 13:43:22.6	0.910	0.370	-1.310	0.370
2020/01/31 13:43:22.7	0.910	0.410	-1.350	0.370
2020/01/31 13:43:22.8	0.910	0.440	-1.380	0.360
2020/01/31 13:43:22.9	0.920	0.470	-1.400	0.360
2020/01/31 13:43:23.0	0.930	0.500	-1.420	0.350
2020/01/31 13:43:23.1	0.940	0.530	-1.430	0.340
2020/01/31 13:43:23.2	0.950	0.550	-1.430	0.330
2020/01/31 13:43:23.3	0.960	0.580	-1.430	0.320
2020/01/31 13:43:23.4	0.970	0.600	-1.420	0.310
2020/01/31 13:43:23.5	0.980	0.610	-1.400	0.300
2020/01/31 13:43:23.6	1.000	0.620	-1.370	0.290
2020/01/31 13:43:23.7	1.010	0.630	-1.340	0.280
2020/01/31 13:43:23.8	1.020	0.630	-1.290	0.280
2020/01/31 13:43:23.9	1.040	0.640	-1.250	0.270
2020/01/31 13:43:24.0	1.050	0.630	-1.190	0.260
2020/01/31 13:43:24.1	1.060	0.620	-1.130	0.260
2020/01/31 13:43:24.2	1.070	0.610	-1.060	0.260
2020/01/31 13:43:24.3	1.080	0.590	-0.990	0.260
2020/01/31 13:43:24.4	1.090	0.570	-0.920	0.260
2020/01/31 13:43:24.5	1.100	0.550	-0.840	0.260
2020/01/31 13:43:24.6	1.110	0.520	-0.760	0.260
2020/01/31 13:43:24.7	1.120	0.490	-0.670	0.270
2020/01/31 13:43:24.8	1.120	0.450	-0.580	0.270
2020/01/31 13:43:24.9	1.130	0.410	-0.490	0.280
2020/01/31 13:43:25.0	1.130	0.370	-0.400	0.280
2020/01/31 13:43:25.1	1.130	0.320	-0.310	0.280
2020/01/31 13:43:25.2	1.130	0.280	-0.220	0.280
2020/01/31 13:43:25.3	1.130	0.230	-0.140	0.280
2020/01/31 13:43:25.4	1.130	0.180	-0.060	0.280
2020/01/31 13:43:25.5	1.130	0.120	0.020	0.280
2020/01/31 13:43:25.6	1.120	0.070	0.100	0.270
2020/01/31 13:43:25.7	1.120	0.020	0.160	0.260
2020/01/31 13:43:25.8	1.110	-0.040	0.230	0.240
2020/01/31 13:43:25.9	1.110	-0.090	0.280	0.220
2020/01/31 13:43:26.0	1.110	-0.140	0.330	0.200
2020/01/31 13:43:26.1	1.100	-0.190	0.380	0.180
2020/01/31 13:43:26.2	1.100	-0.240	0.410	0.150
2020/01/31 13:43:26.3	1.100	-0.280	0.440	0.120
2020/01/31 13:43:26.4	1.100	-0.330	0.460	0.080
2020/01/31 13:43:26.5	1.100	-0.370	0.470	0.050
2020/01/31 13:43:26.6	1.090	-0.400	0.480	0.000
2020/01/31 13:43:26.7	1.090	-0.430	0.470	-0.040
2020/01/31 13:43:26.8	1.100	-0.460	0.460	-0.080
2020/01/31 13:43:26.9	1.100	-0.480	0.440	-0.110
2020/01/31 13:43:27.0	1.100	-0.500	0.410	-0.150
2020/01/31 13:43:27.1	1.110	-0.520	0.380	-0.190
2020/01/31 13:43:27.2	1.110	-0.530	0.340	-0.230
2020/01/31 13:43:27.3	1.120	-0.530	0.300	-0.270
2020/01/31 13:43:27.4	1.130	-0.530	0.250	-0.310
2020/01/31 13:43:27.5	1.130	-0.530	0.200	-0.350
2020/01/31 13:43:27.6	1.140	-0.520	0.150	-0.380
2020/01/31 13:43:27.7	1.140	-0.510	0.090	-0.420
2020/01/31 13:43:27.8	1.150	-0.490	0.040	-0.450
2020/01/31 13:43:27.9	1.160	-0.470	-0.020	-0.490
2020/01/31 13:43:28.0	1.160	-0.440	-0.080	-0.520
2020/01/31 13:43:28.1	1.170	-0.420	-0.130	-0.550
2020/01/31 13:43:28.2	1.180	-0.390	-0.180	-0.580
2020/01/31 13:43:28.3	1.180	-0.350	-0.240	-0.600
2020/01/31 13:43:28.4	1.180	-0.320	-0.280	-0.620
2020/01/31 13:43:28.5	1.190	-0.280	-0.330	-0.640
2020/01/31 13:43:28.6	1.190	-0.250	-0.370	-0.650
2020/01/31 13:43:28.7	1.190	-0.210	-0.400	-0.670
2020/01/31 13:43:28.8	1.190	-0.170	-0.430	-0.670
2020/01/31 13:43:28.9	1.180	-0.130	-0.460	-0.680
2020/01/31 13:43:29.0	1.180	-0.090	-0.480	-0.680
2020/01/31 13:43:29.1	1.170	-0.050	-0.490	-0.670
2020/01/31 13:43:29.2	1.150	-0.020	-0.500	-0.660
2020/01/31 13:43:29.3	1.140	0.020	-0.510	-0.650
2020/01/31 13:43:29.4	1.120	0.050	-0.510	-0.640
2020/01/31 13:43:29.5	1.100	0.080	-0.500	-0.620
2020/01/31 13:43:29.6	1.080	0.100	-0.490	-0.590
2020/01/31 13:43:29.7	1.050	0.130	-0.480	-0.570
2020/01/31 13:43:29.8	1.030	0.150	-0.460	-0.550
2020/01/31 13:43:29.9	1.010	0.170	-0.440	-0.520
2020/01/31 13:43:30.0	0.980	0.180	-0.420	-0.490
2020/01/31 13:43:30.1	0.950	0.190	-0.390	-0.460
2020/01/31 13:43:30.2	0.930	0.200	-0.370	-0.430
2020/01/31 13:43:30.3	0.900	0.200	-0.340	-0.400
2020/01/31 13:43:30.4	0.870	0.200	-0.310	-0.370
2020/01/31 13:43:30.5	0.850	0.200	-0.290	-0.340
2020/01/31 13:43:30.6	0.840	0.200	-0.260	-0.310
2020/01/31 13:43:30.7	0.820	0.190	-0.240	-0.280
2020/01/31 13:43:30.8	0.800	0.180	-0.220	-0.260
2020/01/31 13:43:30.9	0.780	0.160	-0.200	-0.230
2020/01/31 13:43:31.0	0.760	0.150	-0.180	-0.210
2020/01/31 13:43:31.1	0.740	0.130	-0.170	-0.200
2020/01/31 13:43:31.2	0.730	0.110	-0.150	-0.180
2020/01/31 13:43:31.3	0.710	0.090	-0.140	-0.170
2020/01/31 13:43:31.4	0.700	0.070	-0.140	-0.150
2020/01/31 13:43:31.5	0.690	0.050	-0.130	-0.140
2020/01/31 13:43:31.6	0.670	0.030	-0.130	-0.130
2020/01/31 13:43:31.7	0.660	0.010	-0.120	-0.120
2020/01/31 13:43:31.8	0.650	-0.010	-0.120	-0.120
2020/01/31 13:43:31.9	0.640	-0.040	-0.120	-0.110
2020/01/31 13:43:32.0	0.630	-0.060	-0.120	-0.100
2020/01/31 13:43:32.1	0.620	-0.070	-0.120	-0.090
2020/01/31 13:43:32.2	0.600	-0.090	-0.120	-0.080
2020/01/31 13:43:32.3	0.590	-0.110	-0.120	-0.070
2020/01/31 13:43:32.4	0.580	-0.120	-0.120	-0.060
2020/01/31 13:43:32.5	0.570	-0.130	-0.110	-0.050
2020/01/31 13:43:32.6	0.550	-0.140	-0.110	-0.040
2020/01/31 13:43:32.7	0.540	-0.150	-0.110	-0.030
2020/01/31 13:43:32.8	0.530	-0.150	-0.100	-0.020
2020/01/31 13:43:32.9	0.520	-0.150	-0.100	-0.000
2020/01/31 13:43:33.0	0.510	-0.150	-0.100	0.010
2020/01/31 13:43:33.1	0.500	-0.140	-0.090	0.030
2020/01/31 13:43:33.2	0.500	-0.130	-0.090	0.050
2020/01/31 13:43:33.3	0.490	-0.120	-0.080	0.060
2020/01/31 13:43:33.4	0.490	-0.110	-0.080	0.080
2020/01/31 13:43:33.5	0.490	-0.090	-0.070	0.100
2020/01/31 13:43:33.6	0.490	-0.070	-0.070	0.120
2020/01/31 13:43:33.7	0.490	-0.050	-0.070	0.140
2020/01/31 13:43:33.8	0.500	-0.030	-0.070	0.160
2020/01/31 13:43:33.9	0.510	0.000	-0.070	0.180
2020/01/31 13:43:34.0	0.520	0.030	-0.070	0.200
2020/01/31 13:43:34.1	0.530	0.060	-0.080	0.220
2020/01/31 13:43:34.2	0.550	0.080	-0.080	0.250
2020/01/31 13:43:34.3	0.570	0.110	-0.090	0.270
2020/01/31 13:43:34.4	0.580	0.140	-0.100	0.290
2020/01/31 13:43:34.5	0.600	0.170	-0.100	0.310
2020/01/31 13:43:34.6	0.630	0.200	-0.110	0.340
2020/01/31 13:43:34.7	0.640	0.220	-0.120	0.370
2020/01/31 13:43:34.8	0.660	0.240	-0.130	0.390
2020/01/31 13:43:34.9	0.670	0.260	-0.140	0.400
2020/01/31 13:43:35.0	0.690	0.280	-0.140	0.420
2020/01/31 13:43:35.1	0.700	0.290	-0.150	0.440
2020/01/31 13:43:35.2	0.720	0.300	-0.160	0.450
2020/01/31 13:43:35.3	0.730	0.310	-0.170	0.460
2020/01/31 13:43:35.4	0.740	0.310	-0.180	0.470
2020/01/31 13:43:35.5	0.760	0.310	-0.190	0.480
2020/01/31 13:43:35.6	0.760	0.310	-0.200	0.480
2020/01/31 13:43:35.7	0.780	0.300	-0.210	0.480
2020/01/31 13:43:35.8	0.790	0.290	-0.220	0.480
2020/01/31 13:43:35.9	0.800	0.280	-0.230	0.480
2020/01/31 13:43:36.0	0.810	0.260	-0.250	0.470
2020/01/31 13:43:36.1	0.820	0.240	-0.260	0.460
2020/01/31 13:43:36.2	0.830	0.220	-0.270	0.450
2020/01/31 13:43:36.3	0.840	0.200	-0.290	0.440
2020/01/31 13:43:36.4	0.840	0.170	-0.300	0.430
2020/01/31 13:43:36.5	0.850	0.140	-0.320	0.420
2020/01/31 13:43:36.6	0.860	0.110	-0.330	0.410
2020/01/31 13:43:36.7	0.860	0.080	-0.350	0.390
2020/01/31 13:43:36.8	0.860	0.050	-0.360	0.380
2020/01/31 13:43:36.9	0.860	0.010	-0.380	0.370
2020/01/31 13:43:37.0	0.860	-0.020	-0.390	0.350
2020/01/31 13:43:37.1	0.850	-0.050	-0.400	0.340
2020/01/31 13:43:37.2	0.840	-0.090	-0.410	0.320
2020/01/31 13:43:37.3	0.840	-0.120	-0.420	0.300
2020/01/31 13:43:37.4	0.830	-0.150	-0.440	0.290
2020/01/31 13:43:37.5	0.820	-0.180	-0.450	0.270
2020/01/31 13:43:37.6	0.810	-0.200	-0.450	0.250
2020/01/31 13:43:37.7	0.800	-0.230	-0.460	0.230
2020/01/31 13:43:37.8	0.790	-0.250	-0.470	0.210
2020/01/31 13:43:37.9	0.780	-0.270	-0.480	0.190
2020/01/31 13:43:38.0	0.770	-0.280	-0.490	0.170
2020/01/31 13:43:38.1	0.760	-0.300	-0.490	0.140
2020/01/31 13:43:38.2	0.750	-0.300	-0.500	0.120
2020/01/31 13:43:38.3	0.750	-0.310	-0.510	0.100
2020/01/31 13:43:38.4	0.740	-0.310	-0.510	0.070
2020/01/31 13:43:38.5	0.730	-0.310	-0.520	0.050
2020/01/31 13:43:38.6	0.730	-0.300	-0.520	0.020
2020/01/31 13:43:38.7	0.730	-0.290	-0.530	-0.010
2020/01/31 13:43:38.8	0.730	-0.280	-0.540	-0.040
2020/01/31 13:43:38.9	0.730	-0.260	-0.540	-0.060
2020/01/31 13:43:39.0	0.730	-0.250	-0.550	-0.090
2020/01/31 13:43:39.1	0.730	-0.220	-0.560	-0.120
2020/01/31 13:43:39.2	0.740	-0.200	-0.560	-0.150
2020/01/31 13:43:39.3	0.740	-0.170	-0.570	-0.180
2020/01/31 13:43:39.4	0.750	-0.150	-0.570	-0.200
2020/01/31 13:43:39.5	0.760	-0.120	-0.580	-0.230
2020/01/31 13:43:39.6	0.770	-0.090	-0.580	-0.260
2020/01/31 13:43:39.7	0.770	-0.060	-0.580	-0.290
2020/01/31 13:43:39.8	0.780	-0.030	-0.570	-0.310
2020/01/31 13:43:39.9	0.790	-0.010	-0.570	-0.340
2020/01/31 13:43:40.0	0.800	0.020	-0.560	-0.360
2020/01/31 13:43:40.1	0.800	0.040	-0.550	-0.390
2020/01/31 13:43:40.2	0.810	0.070	-0.530	-0.410
2020/01/31 13:43:40.3	0.810	0.090	-0.510	-0.430
2020/01/31 13:43:40.4	0.820	0.110	-0.490	-0.460
2020/01/31 13:43:40.5	0.820	0.120	-0.460	-0.470
2020/01/31 13:43:40.6	0.820	0.140	-0.430	-0.490
2020/01/31 13:43:40.7	0.820	0.150	-0.400	-0.500
2020/01/31 13:43:40.8	0.810	0.160	-0.360	-0.520
2020/01/31 13:43:40.9	0.810	0.160	-0.320	-0.530
2020/01/31 13:43:41.0	0.800	0.160	-0.280	-0.540
2020/01/31 13:43:41.1	0.790	0.160	-0.230	-0.540
2020/01/31 13:43:41.2	0.770	0.150	-0.180	-0.540
2020/01/31 13:43:41.3	0.760	0.150	-0.120	-0.540
2020/01/31 13:43:41.4	0.740	0.140	-0.060	-0.540
2020/01/31 13:43:41.5	0.720	0.120	-0.010	-0.540
2020/01/31 13:43:41.6	0.700	0.110	0.050	-0.520
2020/01/31 13:43:41.7	0.680	0.090	0.120	-0.510
2020/01/31 13:43:41.8	0.650	0.070	0.180	-0.500
2020/01/31 13:43:41.9	0.620	0.040	0.240	-0.480
2020/01/31 13:43:42.0	0.600	0.020	0.290	-0.460
2020/01/31 13:43:42.1	0.570	-0.000	0.350	-0.440
2020/01/31 13:43:42.2	0.540	-0.030	0.410	-0.420
2020/01/31 13:43:42.3	0.510	-0.050	0.460	-0.400
2020/01/31 13:43:42.4	0.480	-0.080	0.500	-0.370
2020/01/31 13:43:42.5	0.450	-0.100	0.540	-0.350
2020/01/31 13:43:42.6	0.410	-0.130	0.570	-0.320
2020/01/31 13:43:42.7	0.380	-0.150	0.600	-0.300
2020/01/31 13:43:42.8	0.360	-0.170	0.620	-0.280
2020/01/31 13:43:42.9	0.330	-0.190	0.630	-0.250
2020/01/31 13:43:43.0	0.310	-0.200	0.640	-0.230
2020/01/31 13:43:43.1	0.280	-0.220	0.640	-0.210
2020/01/31 13:43:43.2	0.260	-0.230	0.630	-0.200
2020/01/31 13:43:43.3	0.240	-0.240	0.610	-0.180
2020/01/31 13:43:43.4	0.220	-0.240	0.580	-0.160
2020/01/31 13:43:43.5	0.210	-0.240	0.540	-0.150
2020/01/31 13:43:43.6	0.200	-0.240	0.500	-0.140
2020/01/31 13:43:43.7	0.180	-0.230	0.440	-0.120
2020/01/31 13:43:43.8	0.180	-0.220	0.380	-0.110
2020/01/31 13:43:43.9	0.170	-0.210	0.320	-0.110
2020/01/31 13:43:44.0	0.160	-0.190	0.240	-0.100
2020/01/31 13:43:44.1	0.160	-0.170	0.170	-0.090
2020/01/31 13:43:44.2	0.160	-0.150	0.080	-0.090
2020/01/31 13:43:44.3	0.160	-0.120	-0.010	-0.080
2020/01/31 13:43:44.4	0.170	-0.100	-0.100	-0.080
2020/01/31 13:43:44.5	0.170	-0.060	-0.190	-0.070
2020/01/31 13:43:44.6	0.190	-0.030	-0.280	-0.070
2020/01/31 13:43:44.7	0.200	0.000	-0.380	-0.060
2020/01/31 13:43:44.8	0.210	0.040	-0.470	-0.060
2020/01/31 13:43:44.9	0.220	0.070	-0.560	-0.060
2020/01/31 13:43:45.0	0.230	0.110	-0.650	-0.060
2020/01/31 13:43:45.1	0.240	0.140	-0.730	-0.050
2020/01/31 13:43:45.2	0.260	0.180	-0.820	-0.050
2020/01/31 13:43:45.3	0.270	0.210	-0.890	-0.050
2020/01/31 13:43:45.4	0.290	0.240	-0.960	-0.050
2020/01/31 13:43:45.5	0.310	0.270	-1.030	-0.050
2020/01/31 13:43:45.6	0.340	0.300	-1.090	-0.060
2020/01/31 13:43:45.7	0.360	0.330	-1.140	-0.060
2020/01/31 13:43:45.8	0.390	0.360	-1.190	-0.060
2020/01/31 13:43:45.9	0.410	0.380	-1.230	-0.070
2020/01/31 13:43:46.0	0.440	0.400	-1.260	-0.070
2020/01/31 13:43:46.1	0.480	0.420	-1.290	-0.080
2020/01/31 13:43:46.2	0.510	0.440	-1.310	-0.080
2020/01/31 13:43:46.3	0.550	0.450	-1.320	-0.090
2020/01/31 13:43:46.4	0.580	0.460	-1.320	-0.090
2020/01/31 13:43:46.5	0.620	0.470	-1.320	-0.100
2020/01/31 13:43:46.6	0.660	0.470	-1.310	-0.100
2020/01/31 13:43:46.7	0.690	0.480	-1.290	-0.100
2020/01/31 13:43:46.8	0.730	0.470	-1.270	-0.110
2020/01/31 13:43:46.9	0.770	0.470	-1.240	-0.100
2020/01/31 13:43:47.0	0.810	0.470	-1.200	-0.100
2020/01/31 13:43:47.1	0.840	0.460	-1.160	-0.100
2020/01/31 13:43:47.2	0.880	0.450	-1.110	-0.090
2020/01/31 13:43:47.3	0.910	0.430	-1.050	-0.070
2020/01/31 13:43:47.4	0.930	0.420	-0.990	-0.060
2020/01/31 13:43:47.5	0.960	0.400	-0.920	-0.040
2020/01/31 13:43:47.6	0.990	0.390	-0.850	-0.020
2020/01/31 13:43:47.7	1.010	0.370	-0.780	0.010
2020/01/31 13:43:47.8	1.020	0.340	-0.690	0.040
2020/01/31 13:43:47.9	1.030	0.320	-0.610	0.070
2020/01/31 13:43:48.0	1.040	0.300	-0.520	0.100
2020/01/31 13:43:48.1	1.040	0.270	-0.430	0.140
2020/01/31 13:43:48.2	1.040	0.250	-0.330	0.180
2020/01/31 13:43:48.3	1.030	0.220	-0.240	0.220
2020/01/31 13:43:48.4	1.020	0.190	-0.140	0.270
2020/01/31 13:43:48.5	1.000	0.160	-0.040	0.320
2020/01/31 13:43:48.6	0.980	0.130	0.060	0.360
2020/01/31 13:43:48.7	0.950	0.110	0.150	0.410
2020/01/31 13:43:48.8	0.930	0.080	0.250	0.460
2020/01/31 13:43:48.9	0.900	0.050	0.340	0.520
2020/01/31 13:43:49.0	0.860	0.020	0.430	0.570
2020/01/31 13:43:49.1	0.830	-0.010	0.520	0.620
2020/01/31 13:43:49.2	0.790	-0.050	0.600	0.670
2020/01/31 13:43:49.3	0.750	-0.080	0.670	0.720
2020/01/31 13:43:49.4	0.710	-0.110	0.740	0.760
2020/01/31 13:43:49.5	0.660	-0.140	0.800	0.810
2020/01/31 13:43:49.6	0.610	-0.170	0.850	0.850
2020/01/31 13:43:49.7	0.570	-0.200	0.890	0.890
2020/01/31 13:43:49.8	0.520	-0.220	0.930	0.920
2020/01/31 13:43:49.9	0.480	-0.250	0.960	0.950
2020/01/31 13:43:50.0	0.440	-0.280	0.980	0.980
2020/01/31 13:43:50.1	0.400	-0.300	0.980	1.000
2020/01/31 13:43:50.2	0.370	-0.330	0.980	1.010
2020/01/31 13:43:50.3	0.330	-0.350	0.970	1.010
2020/01/31 13:43:50.4	0.300	-0.370	0.950	1.010
2020/01/31 13:43:50.5	0.270	-0.390	0.920	1.010
2020/01/31 13:43:50.6	0.240	-0.400	0.880	0.990
2020/01/31 13:43:50.7	0.220	-0.420	0.840	0.970
2020/01/31 13:43:50.8	0.210	-0.430	0.780	0.950
2020/01/31 13:43:50.9	0.190	-0.440	0.720	0.910
2020/01/31 13:43:51.0	0.180	-0.440	0.650	0.870
2020/01/31 13:43:51.1	0.170	-0.450	0.570	0.830
2020/01/31 13:43:51.2	0.170	-0.450	0.490	0.780
2020/01/31 13:43:51.3	0.160	-0.450	0.400	0.720
2020/01/31 13:43:51.4	0.160	-0.450	0.310	0.660
2020/01/31 13:43:51.5	0.170	-0.450	0.220	0.600
2020/01/31 13:43:51.6	0.170	-0.440	0.130	0.530
2020/01/31 13:43:51.7	0.180	-0.430	0.040	0.460
2020/01/31 13:43:51.8	0.180	-0.420	-0.060	0.390
2020/01/31 13:43:51.9	0.190	-0.410	-0.150	0.320
2020/01/31 13:43:52.0	0.190	-0.400	-0.230	0.250
2020/01/31 13:43:52.1	0.200	-0.380	-0.320	0.180
2020/01/31 13:43:52.2	0.210	-0.370	-0.400	0.110
2020/01/31 13:43:52.3	0.220	-0.350	-0.470	0.040
2020/01/31 13:43:52.4	0.220	-0.330	-0.540	-0.030
2020/01/31 13:43:52.5	0.230	-0.320	-0.600	-0.100
2020/01/31 13:43:52.6	0.240	-0.300	-0.660	-0.170
2020/01/31 13:43:52.7	0.250	-0.280	-0.700	-0.230
2020/01/31 13:43:52.8	0.260	-0.260	-0.750	-0.290
2020/01/31 13:43:52.9	0.270	-0.240	-0.780	-0.360
2020/01/31 13:43:53.0	0.290	-0.220	-0.810	-0.410
2020/01/31 13:43:53.1	0.300	-0.200	-0.830	-0.470
2020/01/31 13:43:53.2	0.310	-0.180	-0.850	-0.520
2020/01/31 13:43:53.3	0.330	-0.170	-0.860	-0.570
2020/01/31 13:43:53.4	0.340	-0.150	-0.870	-0.620
2020/01/31 13:43:53.5	0.360	-0.130	-0.870	-0.670
2020/01/31 13:43:53.6	0.380	-0.110	-0.870	-0.710
2020/01/31 13:43:53.7	0.400	-0.100	-0.860	-0.750
2020/01/31 13:43:53.8	0.420	-0.080	-0.860	-0.780
2020/01/31 13:43:53.9	0.440	-0.070	-0.840	-0.810
2020/01/31 13:43:54.0	0.460	-0.050	-0.830	-0.840
2020/01/31 13:43:54.1	0.480	-0.040	-0.810	-0.870
2020/01/31 13:43:54.2	0.500	-0.030	-0.790	-0.890
2020/01/31 13:43:54.3	0.510	-0.020	-0.770	-0.910
2020/01/31 13:43:54.4	0.530	-0.000	-0.740	-0.930
2020/01/31 13:43:54.5	0.550	0.010	-0.720	-0.950
2020/01/31 13:43:54.6	0.580	0.020	-0.690	-0.950
2020/01/31 13:43:54.7	0.600	0.030	-0.660	-0.960
2020/01/31 13:43:54.8	0.610	0.040	-0.630	-0.960
2020/01/31 13:43:54.9	0.620	0.050	-0.600	-0.960
2020/01/31 13:43:55.0	0.630	0.060	-0.570	-0.960
2020/01/31 13:43:55.1	0.640	0.070	-0.540	-0.960
2020/01/31 13:43:55.2	0.650	0.080	-0.510	-0.950
2020/01/31 13:43:55.3	0.660	0.090	-0.480	-0.940
2020/01/31 13:43:55.4	0.660	0.100	-0.450	-0.930
2020/01/31 13:43:55.5	0.670	0.110	-0.420	-0.910
2020/01/31 13:43:55.6	0.680	0.120	-0.390	-0.890
2020/01/31 13:43:55.7	0.680	0.130	-0.360	-0.870
2020/01/31 13:43:55.8	0.680	0.140	-0.340	-0.860
2020/01/31 13:43:55.9	0.690	0.160	-0.320	-0.840
2020/01/31 13:43:56.0	0.690	0.170	-0.300	-0.810
2020/01/31 13:43:56.1	0.690	0.180	-0.290	-0.790
2020/01/31 13:43:56.2	0.690	0.190	-0.270	-0.770
2020/01/31 13:43:56.3	0.700	0.200	-0.270	-0.750
2020/01/31 13:43:56.4	0.700	0.210	-0.260	-0.720
2020/01/31 13:43:56.5	0.700	0.220	-0.260	-0.700
2020/01/31 13:43:56.6	0.710	0.230	-0.270	-0.680
2020/01/31 13:43:56.7	0.710	0.240	-0.270	-0.660
2020/01/31 13:43:56.8	0.720	0.250	-0.280	-0.640
2020/01/31 13:43:56.9	0.730	0.250	-0.300	-0.620
2020/01/31 13:43:57.0	0.740	0.260	-0.310	-0.600
2020/01/31 13:43:57.1	0.760	0.270	-0.330	-0.590
2020/01/31 13:43:57.2	0.770	0.270	-0.350	-0.570
2020/01/31 13:43:57.3	0.780	0.280	-0.380	-0.550
2020/01/31 13:43:57.4	0.800	0.280	-0.400	-0.530
2020/01/31 13:43:57.5	0.810	0.290	-0.430	-0.510
2020/01/31 13:43:57.6	0.830	0.290	-0.450	-0.490
2020/01/31 13:43:57.7	0.850	0.290	-0.480	-0.470
2020/01/31 13:43:57.8	0.860	0.290	-0.500	-0.450
2020/01/31 13:43:57.9	0.880	0.290	-0.520	-0.420
2020/01/31 13:43:58.0	0.890	0.280	-0.530	-0.390
2020/01/31 13:43:58.1	0.900	0.280	-0.550	-0.360
2020/01/31 13:43:58.2	0.910	0.270	-0.550	-0.330
2020/01/31 13:43:58.3	0.910	0.260	-0.560	-0.290
2020/01/31 13:43:58.4	0.920	0.250	-0.550	-0.250
2020/01/31 13:43:58.5	0.920	0.240	-0.550	-0.210
2020/01/31 13:43:58.6	0.920	0.230	-0.530	-0.170
2020/01/31 13:43:58.7	0.910	0.220	-0.510	-0.120
2020/01/31 13:43:58.8	0.900	0.210	-0.490	-0.070
2020/01/31 13:43:58.9	0.890	0.190	-0.450	-0.020
2020/01/31 13:43:59.0	0.880	0.180	-0.420	0.030
2020/01/31 13:43:59.1	0.870	0.160	-0.380	0.080
2020/01/31 13:43:59.2	0.850	0.140	-0.330	0.130
2020/01/31 13:43:59.3	0.830	0.130	-0.280	0.180
2020/01/31 13:43:59.4	0.810	0.110	-0.220	0.230
2020/01/31 13:43:59.5	0.790	0.090	-0.160	0.280
2020/01/31 13:43:59.6	0.770	0.080	-0.100	0.340
2020/01/31 13:43:59.7	0.750	0.060	-0.040	0.390
2020/01/31 13:43:59.8	0.720	0.050	0.020	0.440
2020/01/31 13:43:59.9	0.700	0.030	0.090	0.490
2020/01/31 13:44:00.0	0.670	0.020	0.150	0.540
2020/01/31 13:44:00.1	0.640	0.010	0.210	0.580
2020/01/31 13:44:00.2	0.620	-0.000	0.270	0.630
2020/01/31 13:44:00.3	0.600	-0.010	0.320	0.670
2020/01/31 13:44:00.4	0.570	-0.020	0.380	0.710
2020/01/31 13:44:00.5	0.550	-0.020	0.420	0.750
2020/01/31 13:44:00.6	0.510	-0.030	0.460	0.790
2020/01/31 13:44:00.7	0.490	-0.030	0.500	0.820
2020/01/31 13:44:00.8	0.470	-0.030	0.530	0.860
2020/01/31 13:44:00.9	0.460	-0.030	0.550	0.880
2020/01/31 13:44:01.0	0.440	-0.030	0.570	0.910
2020/01/31 13:44:01.1	0.430	-0.030	0.580	0.930
2020/01/31 13:44:01.2	0.410	-0.020	0.580	0.950
2020/01/31 13:44:01.3	0.400	-0.020	0.580	0.970
2020/01/31 13:44:01.4	0.390	-0.010	0.570	0.980
2020/01/31 13:44:01.5	0.370	-0.010	0.550	0.990
2020/01/31 13:44:01.6	0.360	-0.000	0.530	1.000
2020/01/31 13:44:01.7	0.350	0.000	0.500	1.000
2020/01/31 13:44:01.8	0.340	0.010	0.470	1.000
2020/01/31 13:44:01.9	0.330	0.010	0.430	1.000
2020/01/31 13:44:02.0	0.330	0.020	0.380	0.990
2020/01/31 13:44:02.1	0.320	0.020	0.340	0.980
2020/01/31 13:44:02.2	0.320	0.030	0.280	0.960
2020/01/31 13:44:02.3	0.320	0.030	0.220	0.940
2020/01/31 13:44:02.4	0.320	0.040	0.160	0.910
2020/01/31 13:44:02.5	0.320	0.040	0.100	0.880
2020/01/31 13:44:02.6	0.330	0.040	0.030	0.840
2020/01/31 13:44:02.7	0.340	0.040	-0.040	0.800
2020/01/31 13:44:02.8	0.350	0.050	-0.110	0.760
2020/01/31 13:44:02.9	0.360	0.050	-0.180	0.720
2020/01/31 13:44:03.0	0.380	0.050	-0.260	0.670
2020/01/31 13:44:03.1	0.400	0.050	-0.330	0.610
2020/01/31 13:44:03.2	0.420	0.050	-0.400	0.550
2020/01/31 13:44:03.3	0.440	0.050	-0.480	0.490
2020/01/31 13:44:03.4	0.470	0.050	-0.550	0.430
2020/01/31 13:44:03.5	0.500	0.050	-0.610	0.360
2020/01/31 13:44:03.6	0.540	0.050	-0.670	0.290
2020/01/31 13:44:03.7	0.570	0.040	-0.740	0.220
2020/01/31 13:44:03.8	0.610	0.040	-0.790	0.150
2020/01/31 13:44:03.9	0.640	0.040	-0.850	0.080
2020/01/31 13:44:04.0	0.680	0.040	-0.890	0.010
2020/01/31 13:44:04.1	0.710	0.030	-0.940	-0.060
2020/01/31 13:44:04.2	0.740	0.030	-0.970	-0.130
2020/01/31 13:44:04.3	0.770	0.020	-1.000	-0.200
2020/01/31 13:44:04.4	0.800	0.010	-1.020	-0.270
2020/01/31 13:44:04.5	0.830	0.010	-1.030	-0.340
2020/01/31 13:44:04.6	0.850	0.000	-1.040	-0.410
2020/01/31 13:44:04.7	0.880	-0.010	-1.040	-0.470
2020/01/31 13:44:04.8	0.900	-0.020	-1.030	-0.540
2020/01/31 13:44:04.9	0.920	-0.030	-1.020	-0.600
2020/01/31 13:44:05.0	0.940	-0.040	-0.990	-0.660
2020/01/31 13:44:05.1	0.960	-0.050	-0.960	-0.720
2020/01/31 13:44:05.2	0.970	-0.070	-0.920	-0.780
2020/01/31 13:44:05.3	0.990	-0.080	-0.880	-0.830
2020/01/31 13:44:05.4	1.000	-0.100	-0.830	-0.880
2020/01/31 13:44:05.5	1.010	-0.110	-0.770	-0.930
2020/01/31 13:44:05.6	1.030	-0.130	-0.710	-0.980
2020/01/31 13:44:05.7	1.040	-0.150	-0.650	-1.020
2020/01/31 13:44:05.8	1.050	-0.170	-0.580	-1.060
2020/01/31 13:44:05.9	1.060	-0.190	-0.520	-1.100
2020/01/31 13:44:06.0	1.070	-0.210	-0.450	-1.130
2020/01/31 13:44:06.1	1.080	-0.230	-0.380	-1.170
2020/01/31 13:44:06.2	1.080	-0.250	-0.310	-1.200
2020/01/31 13:44:06.3	1.090	-0.270	-0.250	-1.220
2020/01/31 13:44:06.4	1.100	-0.300	-0.180	-1.250
2020/01/31 13:44:06.5	1.110	-0.320	-0.120	-1.270
2020/01/31 13:44:06.6	1.120	-0.340	-0.070	-1.280
2020/01/31 13:44:06.7	1.130	-0.360	-0.010	-1.300
2020/01/31 13:44:06.8	1.130	-0.380	0.040	-1.320
2020/01/31 13:44:06.9	1.140	-0.400	0.090	-1.330
2020/01/31 13:44:07.0	1.150	-0.420	0.130	-1.350
2020/01/31 13:44:07.1	1.150	-0.440	0.160	-1.360
2020/01/31 13:44:07.2	1.160	-0.450	0.190	-1.370
2020/01/31 13:44:07.3	1.160	-0.470	0.220	-1.380
2020/01/31 13:44:07.4	1.170	-0.480	0.240	-1.390
2020/01/31 13:44:07.5	1.170	-0.490	0.260	-1.390
2020/01/31 13:44:07.6	1.170	-0.500	0.270	-1.400
2020/01/31 13:44:07.7	1.170	-0.510	0.270	-1.400
2020/01/31 13:44:07.8	1.160	-0.510	0.280	-1.390
2020/01/31 13:44:07.9	1.160	-0.520	0.280	-1.390
2020/01/31 13:44:08.0	1.150	-0.520	0.280	-1.370
2020/01/31 13:44:08.1	1.130	-0.520	0.270	-1.360
2020/01/31 13:44:08.2	1.110	-0.510	0.270	-1.330
2020/01/31 13:44:08.3	1.090	-0.510	0.260	-1.310
2020/01/31 13:44:08.4	1.060	-0.500	0.260	-1.270
2020/01/31 13:44:08.5	1.020	-0.490	0.250	-1.240
2020/01/31 13:44:08.6	0.990	-0.480	0.240	-1.190
2020/01/31 13:44:08.7	0.940	-0.460	0.230	-1.140
2020/01/31 13:44:08.8	0.900	-0.450	0.220	-1.090
2020/01/31 13:44:08.9	0.850	-0.430	0.210	-1.040
2020/01/31 13:44:09.0	0.800	-0.400	0.200	-0.980
2020/01/31 13:44:09.1	0.750	-0.380	0.190	-0.910
2020/01/31 13:44:09.2	0.700	-0.350	0.180	-0.850
2020/01/31 13:44:09.3	0.640	-0.330	0.170	-0.780
2020/01/31 13:44:09.4	0.590	-0.300	0.160	-0.710
2020/01/31 13:44:09.5	0.540	-0.260	0.140	-0.640
2020/01/31 13:44:09.6	0.470	-0.230	0.130	-0.560
2020/01/31 13:44:09.7	0.420	-0.190	0.110	-0.490
2020/01/31 13:44:09.8	0.380	-0.160	0.080	-0.420
2020/01/31 13:44:09.9	0.330	-0.120	0.060	-0.340
2020/01/31 13:44:10.0	0.300	-0.070	0.030	-0.270
2020/01/31 13:44:10.1	0.260	-0.030	-0.010	-0.210
2020/01/31 13:44:10.2	0.230	0.010	-0.040	-0.140
2020/01/31 13:44:10.3	0.210	0.060	-0.090	-0.080
2020/01/31 13:44:10.4	0.190	0.110	-0.130	-0.020
2020/01/31 13:44:10.5	0.180	0.160	-0.190	0.040
2020/01/31 13:44:10.6	0.170	0.210	-0.240	0.090
2020/01/31 13:44:10.7	0.170	0.260	-0.300	0.140
2020/01/31 13:44:10.8	0.170	0.310	-0.360	0.190
2020/01/31 13:44:10.9	0.170	0.360	-0.420	0.230
2020/01/31 13:44:11.0	0.180	0.410	-0.490	0.270
2020/01/31 13:44:11.1	0.190	0.460	-0.550	0.310
2020/01/31 13:44:11.2	0.200	0.500	-0.610	0.340
2020/01/31 13:44:11.3	0.220	0.550	-0.680	0.370
2020/01/31 13:44:11.4	0.230	0.590	-0.740	0.400
2020/01/31 13:44:11.5	0.250	0.630	-0.790	0.420
2020/01/31 13:44:11.6	0.260	0.660	-0.850	0.440
2020/01/31 13:44:11.7	0.280	0.690	-0.900	0.460
2020/01/31 13:44:11.8	0.300	0.720	-0.950	0.470
2020/01/31 13:44:11.9	0.320	0.740	-0.990	0.470
2020/01/31 13:44:12.0	0.350	0.760	-1.020	0.480
2020/01/31 13:44:12.1	0.370	0.770	-1.050	0.470
2020/01/31 13:44:12.2	0.400	0.770	-1.080	0.470
2020/01/31 13:44:12.3	0.420	0.770	-1.100	0.460
2020/01/31 13:44:12.4	0.450	0.770	-1.110	0.450
2020/01/31 13:44:12.5	0.480	0.760	-1.110	0.440
2020/01/31 13:44:12.6	0.520	0.750	-1.110	0.420
2020/01/31 13:44:12.7	0.540	0.730	-1.100	0.410
2020/01/31 13:44:12.8	0.570	0.700	-1.090	0.390
2020/01/31 13:44:12.9	0.600	0.680	-1.060	0.380
2020/01/31 13:44:13.0	0.630	0.640	-1.040	0.360
2020/01/31 13:44:13.1	0.660	0.610	-1.000	0.340
2020/01/31 13:44:13.2	0.690	0.570	-0.960	0.320
2020/01/31 13:44:13.3	0.720	0.530	-0.910	0.300
2020/01/31 13:44:13.4	0.750	0.480	-0.860	0.280
2020/01/31 13:44:13.5	0.780	0.440	-0.810	0.260
2020/01/31 13:44:13.6	0.810	0.390	-0.740	0.240
2020/01/31 13:44:13.7	0.840	0.340	-0.680	0.230
2020/01/31 13:44:13.8	0.860	0.300	-0.610	0.210
2020/01/31 13:44:13.9	0.890	0.250	-0.540	0.190
2020/01/31 13:44:14.0	0.920	0.200	-0.460	0.180
2020/01/31 13:44:14.1	0.940	0.150	-0.380	0.160
2020/01/31 13:44:14.2	0.960	0.100	-0.300	0.150
2020/01/31 13:44:14.3	0.980	0.050	-0.220	0.140
2020/01/31 13:44:14.4	0.990	0.010	-0.140	0.130
2020/01/31 13:44:14.5	1.000	-0.030	-0.060	0.110
2020/01/31 13:44:14.6	1.010	-0.080	0.020	0.100
2020/01/31 13:44:14.7	1.020	-0.110	0.100	0.090
2020/01/31 13:44:14.8	1.020	-0.150	0.180	0.080
2020/01/31 13:44:14.9	1.020	-0.180	0.250	0.070
2020/01/31 13:44:15.0	1.020	-0.210	0.320	0.060
2020/01/31 13:44:15.1	1.020	-0.230	0.390	0.050
2020/01/31 13:44:15.2	1.010	-0.250	0.450	0.050
2020/01/31 13:44:15.3	1.000	-0.270	0.510	0.040
2020/01/31 13:44:15.4	0.990	-0.290	0.560	0.030
2020/01/31 13:44:15.5	0.970	-0.300	0.610	0.020
2020/01/31 13:44:15.6	0.960	-0.300	0.660	0.020
2020/01/31 13:44:15.7	0.940	-0.310	0.690	0.020
2020/01/31 13:44:15.8	0.920	-0.310	0.720	0.010
2020/01/31 13:44:15.9	0.890	-0.300	0.750	0.010
2020/01/31 13:44:16.0	0.870	-0.300	0.770	0.020
2020/01/31 13:44:16.1	0.830	-0.290	0.780	0.020
2020/01/31 13:44:16.2	0.800	-0.280	0.790	0.020
2020/01/31 13:44:16.3	0.770	-0.270	0.790	0.030
2020/01/31 13:44:16.4	0.730	-0.250	0.780	0.030
2020/01/31 13:44:16.5	0.690	-0.240	0.770	0.040
2020/01/31 13:44:16.6	0.650	-0.220	0.750	0.050
2020/01/31 13:44:16.7	0.610	-0.200	0.720	0.050
2020/01/31 13:44:16.8	0.570	-0.190	0.690	0.060
2020/01/31 13:44:16.9	0.530	-0.170	0.650	0.060
2020/01/31 13:44:17.0	0.490	-0.150	0.610	0.060
2020/01/31 13:44:17.1	0.450	-0.130	0.560	0.050
2020/01/31 13:44:17.2	0.420	-0.110	0.510	0.050
2020/01/31 13:44:17.3	0.380	-0.090	0.450	0.040
2020/01/31 13:44:17.4	0.350	-0.080	0.380	0.020
2020/01/31 13:44:17.5	0.320	-0.060	0.310	0.000
2020/01/31 13:44:17.6	0.310	-0.050	0.240	-0.020
2020/01/31 13:44:17.7	0.290	-0.030	0.170	-0.040
2020/01/31 13:44:17.8	0.270	-0.020	0.080	-0.080
2020/01/31 13:44:17.9	0.270	-0.010	-0.000	-0.110
2020/01/31 13:44:18.0	0.260	-0.000	-0.090	-0.160
2020/01/31 13:44:18.1	0.270	0.010	-0.180	-0.200
2020/01/31 13:44:18.2	0.280	0.020	-0.280	-0.260
2020/01/31 13:44:18.3	0.290	0.020	-0.370	-0.310
2020/01/31 13:44:18.4	0.310	0.030	-0.460	-0.370
2020/01/31 13:44:18.5	0.330	0.030	-0.560	-0.430
2020/01/31 13:44:18.6	0.360	0.040	-0.650	-0.490
2020/01/31 13:44:18.7	0.390	0.040	-0.740	-0.550
2020/01/31 13:44:18.8	0.420	0.040	-0.820	-0.610
2020/01/31 13:44:18.9	0.460	0.030	-0.900	-0.680
2020/01/31 13:44:19.0	0.490	0.030	-0.970	-0.740
2020/01/31 13:44:19.1	0.530	0.030	-1.040	-0.800
2020/01/31 13:44:19.2	0.570	0.020	-1.090	-0.860
2020/01/31 13:44:19.3	0.610	0.010	-1.140	-0.920
2020/01/31 13:44:19.4	0.650	-0.000	-1.180	-0.970
2020/01/31 13:44:19.5	0.690	-0.010	-1.220	-1.030
2020/01/31 13:44:19.6	0.740	-0.030	-1.240	-1.070
2020/01/31 13:44:19.7	0.780	-0.040	-1.250	-1.120
2020/01/31 13:44:19.8	0.810	-0.060	-1.260	-1.160
2020/01/31 13:44:19.9	0.850	-0.080	-1.250	-1.200
2020/01/31 13:44:20.0	0.880	-0.100	-1.240	-1.240
2020/01/31 13:44:20.1	0.910	-0.120	-1.210	-1.280
2020/01/31 13:44:20.2	0.940	-0.150	-1.180	-1.300
2020/01/31 13:44:20.3	0.970	-0.170	-1.140	-1.330
2020/01/31 13:44:20.4	1.000	-0.190	-1.090	-1.350
2020/01/31 13:44:20.5	1.020	-0.220	-1.040	-1.370
2020/01/31 13:44:20.6	1.050	-0.240	-0.980	-1.380
2020/01/31 13:44:20.7	1.070	-0.260	-0.920	-1.390
2020/01/31 13:44:20.8	1.090	-0.290	-0.850	-1.390
2020/01/31 13:44:20.9	1.100	-0.310	-0.780	-1.390
2020/01/31 13:44:21.0	1.120	-0.330	-0.700	-1.390
2020/01/31 13:44:21.1	1.140	-0.350	-0.630	-1.380
2020/01/31 13:44:21.2	1.150	-0.370	-0.550	-1.370
2020/01/31 13:44:21.3	1.170	-0.390	-0.480	-1.360
2020/01/31 13:44:21.4	1.180	-0.410	-0.410	-1.350
2020/01/31 13:44:21.5	1.200	-0.420	-0.340	-1.330
2020/01/31 13:44:21.6	1.190	-0.430	-0.270	-1.310
2020/01/31 13:44:21.7	1.210	-0.440	-0.200	-1.300
2020/01/31 13:44:21.8	1.220	-0.450	-0.140	-1.280
2020/01/31 13:44:21.9	1.230	-0.460	-0.080	-1.260
2020/01/31 13:44:22.0	1.240	-0.460	-0.030	-1.240
2020/01/31 13:44:22.1	1.250	-0.460	0.020	-1.220
2020/01/31 13:44:22.2	1.260	-0.460	0.060	-1.200
2020/01/31 13:44:22.3	1.270	-0.460	0.100	-1.180
2020/01/31 13:44:22.4	1.270	-0.460	0.130	-1.150
2020/01/31 13:44:22.5	1.270	-0.450	0.160	-1.130
2020/01/31 13:44:22.6	1.280	-0.440	0.180	-1.100
2020/01/31 13:44:22.7	1.270	-0.420	0.200	-1.070
2020/01/31 13:44:22.8	1.270	-0.410	0.220	-1.040
2020/01/31 13:44:22.9	1.260	-0.390	0.230	-1.010
2020/01/31 13:44:23.0	1.260	-0.380	0.240	-0.970
2020/01/31 13:44:23.1	1.240	-0.360	0.250	-0.940
2020/01/31 13:44:23.2	1.230	-0.340	0.250	-0.900
2020/01/31 13:44:23.3	1.210	-0.310	0.250	-0.850
2020/01/31 13:44:23.4	1.190	-0.290	0.250	-0.810
2020/01/31 13:44:23.5	1.170	-0.270	0.240	-0.760
2020/01/31 13:44:23.6	1.140	-0.240	0.240	-0.710
2020/01/31 13:44:23.7	1.120	-0.210	0.230	-0.660
2020/01/31 13:44:23.8	1.090	-0.190	0.230	-0.600
2020/01/31 13:44:23.9	1.060	-0.160	0.220	-0.550
2020/01/31 13:44:24.0	1.030	-0.130	0.210	-0.490
2020/01/31 13:44:24.1	0.990	-0.100	0.210	-0.430
2020/01/31 13:44:24.2	0.960	-0.070	0.200	-0.370
2020/01/31 13:44:24.3	0.920	-0.050	0.200	-0.300
2020/01/31 13:44:24.4	0.890	-0.020	0.190	-0.240
2020/01/31 13:44:24.5	0.850	0.010	0.190	-0.170
2020/01/31 13:44:24.6	0.810	0.040	0.180	-0.100
2020/01/31 13:44:24.7	0.770	0.070	0.180	-0.030
2020/01/31 13:44:24.8	0.730	0.090	0.180	0.050
2020/01/31 13:44:24.9	0.690	0.120	0.170	0.120
2020/01/31 13:44:25.0	0.660	0.150	0.170	0.200
2020/01/31 13:44:25.1	0.620	0.180	0.160	0.280
2020/01/31 13:44:25.2	0.590	0.210	0.160	0.350
2020/01/31 13:44:25.3	0.560	0.230	0.150	0.430
2020/01/31 13:44:25.4	0.540	0.260	0.140	0.500
2020/01/31 13:44:25.5	0.510	0.290	0.120	0.570
2020/01/31 13:44:25.6	0.490	0.320	0.100	0.640
2020/01/31 13:44:25.7	0.480	0.350	0.080	0.700
2020/01/31 13:44:25.8	0.460	0.370	0.060	0.760
2020/01/31 13:44:25.9	0.450	0.400	0.030	0.820
2020/01/31 13:44:26.0	0.450	0.430	-0.010	0.870
2020/01/31 13:44:26.1	0.450	0.460	-0.050	0.910
2020/01/31 13:44:26.2	0.450	0.480	-0.090	0.950
2020/01/31 13:44:26.3	0.450	0.510	-0.130	0.990
2020/01/31 13:44:26.4	0.450	0.540	-0.180	1.020
2020/01/31 13:44:26.5	0.460	0.560	-0.240	1.050
2020/01/31 13:44:26.6	0.470	0.590	-0.290	1.070
2020/01/31 13:44:26.7	0.480	0.610	-0.350	1.090
2020/01/31 13:44:26.8	0.500	0.640	-0.400	1.110
2020/01/31 13:44:26.9	0.510	0.660	-0.460	1.120
2020/01/31 13:44:27.0	0.530	0.680	-0.520	1.120
2020/01/31 13:44:27.1	0.550	0.700	-0.580	1.120
2020/01/31 13:44:27.2	0.570	0.720	-0.630	1.120
2020/01/31 13:44:27.3	0.600	0.740	-0.690	1.120
2020/01/31 13:44:27.4	0.620	0.750	-0.740	1.110
2020/01/31 13:44:27.5	0.650	0.760	-0.790	1.090
2020/01/31 13:44:27.6	0.690	0.780	-0.830	1.080
2020/01/31 13:44:27.7	0.730	0.780	-0.870	1.060
2020/01/31 13:44:27.8	0.760	0.790	-0.900	1.030
2020/01/31 13:44:27.9	0.800	0.790	-0.930	1.010
2020/01/31 13:44:28.0	0.840	0.790	-0.960	0.980
2020/01/31 13:44:28.1	0.880	0.780	-0.970	0.950
2020/01/31 13:44:28.2	0.920	0.780	-0.980	0.920
2020/01/31 13:44:28.3	0.960	0.770	-0.990	0.880
2020/01/31 13:44:28.4	1.000	0.750	-0.980	0.840
2020/01/31 13:44:28.5	1.050	0.730	-0.970	0.800
2020/01/31 13:44:28.6	1.090	0.710	-0.960	0.760
2020/01/31 13:44:28.7	1.140	0.680	-0.940	0.720
2020/01/31 13:44:28.8	1.180	0.650	-0.910	0.670
2020/01/31 13:44:28.9	1.220	0.620	-0.880	0.630
2020/01/31 13:44:29.0	1.260	0.580	-0.840	0.580
2020/01/31 13:44:29.1	1.290	0.540	-0.790	0.530
2020/01/31 13:44:29.2	1.330	0.500	-0.740	0.490
2020/01/31 13:44:29.3	1.360	0.450	-0.690	0.440
2020/01/31 13:44:29.4	1.380	0.400	-0.630	0.390
2020/01/31 13:44:29.5	1.410	0.340	-0.560	0.340
2020/01/31 13:44:29.6	1.430	0.280	-0.500	0.300
2020/01/31 13:44:29.7	1.440	0.220	-0.430	0.250
2020/01/31 13:44:29.8	1.450	0.160	-0.360	0.200
2020/01/31 13:44:29.9	1.460	0.090	-0.290	0.150
2020/01/31 13:44:30.0	1.460	0.030	-0.220	0.100
2020/01/31 13:44:30.1	1.460	-0.040	-0.150	0.050
2020/01/31 13:44:30.2	1.460	-0.110	-0.080	0.000
2020/01/31 13:44:30.3	1.450	-0.180	-0.020	-0.050
2020/01/31 13:44:30.4	1.440	-0.250	0.050	-0.100
2020/01/31 13:44:30.5	1.430	-0.310	0.110	-0.150
2020/01/31 13:44:30.6	1.430	-0.380	0.170	-0.210
2020/01/31 13:44:30.7	1.410	-0.440	0.220	-0.260
2020/01/31 13:44:30.8	1.400	-0.510	0.270	-0.310
2020/01/31 13:44:30.9	1.380	-0.570	0.310	-0.360
2020/01/31 13:44:31.0	1.360	-0.620	0.340	-0.420
2020/01/31 13:44:31.1	1.350	-0.680	0.370	-0.470
2020/01/31 13:44:31.2	1.330	-0.720	0.400	-0.520
2020/01/31 13:44:31.3	1.310	-0.770	0.410	-0.580
2020/01/31 13:44:31.4	1.300	-0.810	0.420	-0.640
2020/01/31 13:44:31.5	1.290	-0.850	0.420	-0.700
2020/01/31 13:44:31.6	1.280	-0.880	0.420	-0.760
2020/01/31 13:44:31.7	1.270	-0.900	0.400	-0.820
2020/01/31 13:44:31.8	1.270	-0.920	0.380	-0.890
2020/01/31 13:44:31.9	1.260	-0.940	0.350	-0.960
2020/01/31 13:44:32.0	1.260	-0.950	0.320	-1.030
2020/01/31 13:44:32.1	1.260	-0.950	0.280	-1.100
2020/01/31 13:44:32.2	1.270	-0.950	0.230	-1.170
2020/01/31 13:44:32.3	1.270	-0.940	0.180	-1.240
2020/01/31 13:44:32.4	1.280	-0.930	0.130	-1.310
2020/01/31 13:44:32.5	1.280	-0.920	0.070	-1.370
2020/01/31 13:44:32.6	1.290	-0.890	0.010	-1.450
2020/01/31 13:44:32.7	1.290	-0.870	-0.050	-1.510
2020/01/31 13:44:32.8	1.300	-0.840	-0.110	-1.570
2020/01/31 13:44:32.9	1.300	-0.800	-0.170	-1.620
2020/01/31 13:44:33.0	1.310	-0.760	-0.220	-1.670
2020/01/31 13:44:33.1	1.310	-0.720	-0.280	-1.720
2020/01/31 13:44:33.2	1.310	-0.680	-0.330	-1.760
2020/01/31 13:44:33.3	1.310	-0.630	-0.380	-1.790
2020/01/31 13:44:33.4	1.310	-0.590	-0.420	-1.810
2020/01/31 13:44:33.5	1.300	-0.540	-0.460	-1.830
2020/01/31 13:44:33.6	1.300	-0.490	-0.480	-1.840
2020/01/31 13:44:33.7	1.290	-0.440	-0.510	-1.850
2020/01/31 13:44:33.8	1.270	-0.390	-0.520	-1.850
2020/01/31 13:44:33.9	1.250	-0.350	-0.530	-1.840
2020/01/31 13:44:34.0	1.230	-0.300	-0.530	-1.830
2020/01/31 13:44:34.1	1.210	-0.250	-0.520	-1.810
2020/01/31 13:44:34.2	1.190	-0.210	-0.500	-1.780
2020/01/31 13:44:34.3	1.160	-0.170	-0.480	-1.750
2020/01/31 13:44:34.4	1.130	-0.130	-0.450	-1.710
2020/01/31 13:44:34.5	1.100	-0.100	-0.410	-1.660
2020/01/31 13:44:34.6	1.080	-0.060	-0.370	-1.610
2020/01/31 13:44:34.7	1.040	-0.030	-0.320	-1.550
2020/01/31 13:44:34.8	1.010	-0.010	-0.270	-1.490
2020/01/31 13:44:34.9	0.970	0.020	-0.210	-1.420
2020/01/31 13:44:35.0	0.940	0.040	-0.150	-1.350
2020/01/31 13:44:35.1	0.900	0.060	-0.090	-1.280
2020/01/31 13:44:35.2	0.870	0.070	-0.030	-1.210
2020/01/31 13:44:35.3	0.840	0.090	0.020	-1.130
2020/01/31 13:44:35.4	0.810	0.100	0.080	-1.050
2020/01/31 13:44:35.5	0.780	0.110	0.130	-0.970
2020/01/31 13:44:35.6	0.760	0.110	0.170	-0.890
2020/01/31 13:44:35.7	0.730	0.120	0.210	-0.800
2020/01/31 13:44:35.8	0.710	0.130	0.250	-0.720
2020/01/31 13:44:35.9	0.690	0.130	0.270	-0.640
2020/01/31 13:44:36.0	0.680	0.140	0.300	-0.560
2020/01/31 13:44:36.1	0.660	0.140	0.310	-0.480
2020/01/31 13:44:36.2	0.650	0.150	0.320	-0.410
2020/01/31 13:44:36.3	0.650	0.160	0.320	-0.330
2020/01/31 13:44:36.4	0.640	0.170	0.310	-0.260
2020/01/31 13:44:36.5	0.640	0.170	0.290	-0.190
2020/01/31 13:44:36.6	0.620	0.180	0.270	-0.130
2020/01/31 13:44:36.7	0.630	0.200	0.230	-0.070
2020/01/31 13:44:36.8	0.630	0.210	0.200	-0.010
2020/01/31 13:44:36.9	0.640	0.230	0.150	0.050
2020/01/31 13:44:37.0	0.650	0.250	0.100	0.100
2020/01/31 13:44:37.1	0.660	0.270	0.040	0.150
2020/01/31 13:44:37.2	0.670	0.290	-0.030	0.190
2020/01/31 13:44:37.3	0.690	0.320	-0.090	0.230
2020/01/31 13:44:37.4	0.700	0.340	-0.170	0.270
2020/01/31 13:44:37.5	0.720	0.370	-0.240	0.310
2020/01/31 13:44:37.6	0.750	0.400	-0.310	0.340
2020/01/31 13:44:37.7	0.770	0.430	-0.390	0.370
2020/01/31 13:44:37.8	0.790	0.460	-0.460	0.400
2020/01/31 13:44:37.9	0.810	0.500	-0.540	0.430
2020/01/31 13:44:38.0	0.830	0.530	-0.610	0.450
2020/01/31 13:44:38.1	0.860	0.560	-0.670	0.480
2020/01/31 13:44:38.2	0.880	0.590	-0.740	0.500
2020/01/31 13:44:38.3	0.900	0.630	-0.790	0.530
2020/01/31 13:44:38.4	0.930	0.660	-0.850	0.550
2020/01/31 13:44:38.5	0.950	0.680	-0.890	0.570
2020/01/31 13:44:38.6	0.970	0.710	-0.940	0.590
2020/01/31 13:44:38.7	1.000	0.730	-0.970	0.610
2020/01/31 13:44:38.8	1.020	0.750	-1.000	0.630
2020/01/31 13:44:38.9	1.040	0.760	-1.020	0.650
2020/01/31 13:44:39.0	1.060	0.770	-1.040	0.660
2020/01/31 13:44:39.1	1.090	0.770	-1.040	0.680
2020/01/31 13:44:39.2	1.110	0.770	-1.040	0.690
2020/01/31 13:44:39.3	1.130	0.770	-1.040	0.700
2020/01/31 13:44:39.4	1.150	0.760	-1.030	0.710
2020/01/31 13:44:39.5	1.170	0.740	-1.010	0.720
2020/01/31 13:44:39.6	1.190	0.720	-0.990	0.720
2020/01/31 13:44:39.7	1.200	0.690	-0.960	0.720
2020/01/31 13:44:39.8	1.220	0.650	-0.930	0.720
2020/01/31 13:44:39.9	1.240	0.610	-0.890	0.710
2020/01/31 13:44:40.0	1.260	0.570	-0.850	0.700
2020/01/31 13:44:40.1	1.280	0.520	-0.810	0.690
2020/01/31 13:44:40.2	1.300	0.460	-0.760	0.670
2020/01/31 13:44:40.3	1.320	0.400	-0.710	0.650
2020/01/31 13:44:40.4	1.330	0.340	-0.660	0.620
2020/01/31 13:44:40.5	1.350	0.270	-0.610	0.590
2020/01/31 13:44:40.6	1.370	0.200	-0.560	0.560
2020/01/31 13:44:40.7	1.390	0.120	-0.500	0.520
2020/01/31 13:44:40.8	1.400	0.040	-0.450	0.470
2020/01/31 13:44:40.9	1.420	-0.030	-0.390	0.430
2020/01/31 13:44:41.0	1.430	-0.110	-0.330	0.380
2020/01/31 13:44:41.1	1.440	-0.200	-0.270	0.320
2020/01/31 13:44:41.2	1.460	-0.280	-0.210	0.270
2020/01/31 13:44:41.3	1.460	-0.350	-0.160	0.210
2020/01/31 13:44:41.4	1.470	-0.430	-0.100	0.150
2020/01/31 13:44:41.5	1.480	-0.510	-0.040	0.090
2020/01/31 13:44:41.6	1.490	-0.580	0.010	0.020
2020/01/31 13:44:41.7	1.490	-0.650	0.070	-0.040
2020/01/31 13:44:41.8	1.490	-0.710	0.120	-0.100
2020/01/31 13:44:41.9	1.490	-0.770	0.180	-0.150
2020/01/31 13:44:42.0	1.480	-0.820	0.230	-0.210
2020/01/31 13:44:42.1	1.470	-0.870	0.280	-0.260
2020/01/31 13:44:42.2	1.460	-0.900	0.330	-0.300
2020/01/31 13:44:42.3	1.440	-0.940	0.380	-0.340
2020/01/31 13:44:42.4	1.420	-0.960	0.430	-0.370
2020/01/31 13:44:42.5	1.400	-0.970	0.470	-0.400
2020/01/31 13:44:42.6	1.370	-0.980	0.510	-0.430
2020/01/31 13:44:42.7	1.340	-0.980	0.560	-0.440
2020/01/31 13:44:42.8	1.310	-0.970	0.590	-0.450
2020/01/31 13:44:42.9	1.270	-0.960	0.630	-0.450
2020/01/31 13:44:43.0	1.240	-0.930	0.660	-0.440
2020/01/31 13:44:43.1	1.200	-0.900	0.690	-0.430
2020/01/31 13:44:43.2	1.160	-0.860	0.710	-0.420
2020/01/31 13:44:43.3	1.120	-0.810	0.730	-0.400
2020/01/31 13:44:43.4	1.080	-0.760	0.740	-0.370
2020/01/31 13:44:43.5	1.040	-0.700	0.740	-0.350
2020/01/31 13:44:43.6	0.990	-0.630	0.730	-0.310
2020/01/31 13:44:43.7	0.950	-0.560	0.720	-0.280
2020/01/31 13:44:43.8	0.920	-0.490	0.710	-0.250
2020/01/31 13:44:43.9	0.890	-0.410	0.680	-0.230
2020/01/31 13:44:44.0	0.860	-0.330	0.650	-0.200
2020/01/31 13:44:44.1	0.830	-0.250	0.610	-0.170
2020/01/31 13:44:44.2	0.810	-0.170	0.560	-0.150
2020/01/31 13:44:44.3	0.790	-0.090	0.510	-0.130
2020/01/31 13:44:44.4	0.780	-0.010	0.450	-0.110
2020/01/31 13:44:44.5	0.760	0.070	0.380	-0.100
2020/01/31 13:44:44.6	0.750	0.150	0.300	-0.080
2020/01/31 13:44:44.7	0.750	0.220	0.230	-0.070
2020/01/31 13:44:44.8	0.750	0.300	0.150	-0.070
2020/01/31 13:44:44.9	0.750	0.360	0.060	-0.070
2020/01/31 13:44:45.0	0.760	0.430	-0.030	-0.070
2020/01/31 13:44:45.1	0.770	0.490	-0.120	-0.070
2020/01/31 13:44:45.2	0.780	0.540	-0.210	-0.080
2020/01/31 13:44:45.3	0.790	0.590	-0.310	-0.090
2020/01/31 13:44:45.4	0.810	0.630	-0.400	-0.100
2020/01/31 13:44:45.5	0.830	0.670	-0.490	-0.110
2020/01/31 13:44:45.6	0.860	0.700	-0.580	-0.130
2020/01/31 13:44:45.7	0.890	0.730	-0.670	-0.150
2020/01/31 13:44:45.8	0.920	0.750	-0.750	-0.170
2020/01/31 13:44:45.9	0.950	0.760	-0.830	-0.200
2020/01/31 13:44:46.0	0.990	0.760	-0.910	-0.220
2020/01/31 13:44:46.1	1.030	0.760	-0.980	-0.250
2020/01/31 13:44:46.2	1.070	0.760	-1.040	-0.290
2020/01/31 13:44:46.3	1.110	0.740	-1.100	-0.320
2020/01/31 13:44:46.4	1.160	0.720	-1.150	-0.360
2020/01/31 13:44:46.5	1.210	0.700	-1.190	-0.390
2020/01/31 13:44:46.6	1.270	0.670	-1.220	-0.430
2020/01/31 13:44:46.7	1.320	0.640	-1.240	-0.480
2020/01/31 13:44:46.8	1.380	0.600	-1.260	-0.520
2020/01/31 13:44:46.9	1.430	0.560	-1.270	-0.570
2020/01/31 13:44:47.0	1.490	0.510	-1.270	-0.620
2020/01/31 13:44:47.1	1.540	0.470	-1.260	-0.670
2020/01/31 13:44:47.2	1.600	0.420	-1.240	-0.720
2020/01/31 13:44:47.3	1.650	0.360	-1.220	-0.780
2020/01/31 13:44:47.4	1.700	0.310	-1.180	-0.830
2020/01/31 13:44:47.5	1.750	0.250	-1.140	-0.880
2020/01/31 13:44:47.6	1.810	0.200	-1.100	-0.930
2020/01/31 13:44:47.7	1.850	0.140	-1.040	-0.980
2020/01/31 13:44:47.8	1.900	0.080	-0.980	-1.030
2020/01/31 13:44:47.9	1.940	0.020	-0.910	-1.070
2020/01/31 13:44:48.0	1.980	-0.030	-0.840	-1.110
2020/01/31 13:44:48.1	2.010	-0.090	-0.770	-1.150
2020/01/31 13:44:48.2	2.050	-0.140	-0.680	-1.180
2020/01/31 13:44:48.3	2.070	-0.200	-0.600	-1.210
2020/01/31 13:44:48.4	2.100	-0.250	-0.510	-1.240
2020/01/31 13:44:48.5	2.110	-0.300	-0.420	-1.260
2020/01/31 13:44:48.6	2.130	-0.350	-0.330	-1.280
2020/01/31 13:44:48.7	2.140	-0.400	-0.240	-1.290
2020/01/31 13:44:48.8	2.140	-0.440	-0.150	-1.300
2020/01/31 13:44:48.9	2.140	-0.480	-0.060	-1.300
2020/01/31 13:44:49.0	2.140	-0.520	0.030	-1.300
2020/01/31 13:44:49.1	2.130	-0.560	0.110	-1.300
2020/01/31 13:44:49.2	2.120	-0.590	0.190	-1.300
2020/01/31 13:44:49.3	2.110	-0.620	0.260	-1.290
2020/01/31 13:44:49.4	2.090	-0.640	0.330	-1.280
2020/01/31 13:44:49.5	2.080	-0.660	0.400	-1.260
2020/01/31 13:44:49.6	2.050	-0.680	0.450	-1.250
2020/01/31 13:44:49.7	2.020	-0.690	0.500	-1.230
2020/01/31 13:44:49.8	2.000	-0.700	0.550	-1.210
2020/01/31 13:44:49.9	1.970	-0.700	0.580	-1.190
2020/01/31 13:44:50.0	1.950	-0.700	0.610	-1.170
2020/01/31 13:44:50.1	1.920	-0.690	0.630	-1.150
2020/01/31 13:44:50.2	1.890	-0.680	0.640	-1.120
2020/01/31 13:44:50.3	1.860	-0.660	0.640	-1.090
2020/01/31 13:44:50.4	1.820	-0.640	0.630	-1.070
2020/01/31 13:44:50.5	1.790	-0.610	0.620	-1.040
2020/01/31 13:44:50.6	1.760	-0.580	0.590	-1.000
2020/01/31 13:44:50.7	1.730	-0.550	0.560	-0.970
2020/01/31 13:44:50.8	1.690	-0.500	0.520	-0.930
2020/01/31 13:44:50.9	1.660	-0.460	0.480	-0.900
2020/01/31 13:44:51.0	1.630	-0.410	0.430	-0.850
2020/01/31 13:44:51.1	1.600	-0.350	0.370	-0.810
2020/01/31 13:44:51.2	1.580	-0.300	0.310	-0.770
2020/01/31 13:44:51.3	1.550	-0.240	0.240	-0.720
2020/01/31 13:44:51.4	1.520	-0.170	0.170	-0.670
2020/01/31 13:44:51.5	1.500	-0.110	0.100	-0.620
2020/01/31 13:44:51.6	1.480	-0.040	0.020	-0.560
2020/01/31 13:44:51.7	1.460	0.020	-0.050	-0.510
2020/01/31 13:44:51.8	1.440	0.090	-0.130	-0.450
2020/01/31 13:44:51.9	1.430	0.160	-0.200	-0.390
2020/01/31 13:44:52.0	1.420	0.220	-0.270	-0.330
2020/01/31 13:44:52.1	1.410	0.290	-0.340	-0.270
2020/01/31 13:44:52.2	1.400	0.350	-0.410	-0.210
2020/01/31 13:44:52.3	1.400	0.410	-0.480	-0.150
2020/01/31 13:44:52.4	1.400	0.470	-0.540	-0.090
2020/01/31 13:44:52.5	1.400	0.520	-0.590	-0.020
2020/01/31 13:44:52.6	1.410	0.570	-0.640	0.040
2020/01/31 13:44:52.7	1.420	0.620	-0.690	0.100
2020/01/31 13:44:52.8	1.430	0.660	-0.720	0.170
2020/01/31 13:44:52.9	1.450	0.690	-0.750	0.230
2020/01/31 13:44:53.0	1.460	0.720	-0.780	0.290
2020/01/31 13:44:53.1	1.480	0.750	-0.790	0.350
2020/01/31 13:44:53.2	1.500	0.770	-0.800	0.410
2020/01/31 13:44:53.3	1.520	0.780	-0.800	0.470
2020/01/31 13:44:53.4	1.550	0.780	-0.790	0.530
2020/01/31 13:44:53.5	1.570	0.780	-0.770	0.590
2020/01/31 13:44:53.6	1.600	0.770	-0.750	0.650
2020/01/31 13:44:53.7	1.620	0.760	-0.720	0.710
2020/01/31 13:44:53.8	1.640	0.740	-0.680	0.760
2020/01/31 13:44:53.9	1.660	0.710	-0.630	0.820
2020/01/31 13:44:54.0	1.680	0.680	-0.580	0.870
2020/01/31 13:44:54.1	1.700	0.640	-0.530	0.920
2020/01/31 13:44:54.2	1.720	0.590	-0.470	0.960
2020/01/31 13:44:54.3	1.740	0.540	-0.400	1.010
2020/01/31 13:44:54.4	1.760	0.490	-0.330	1.050
2020/01/31 13:44:54.5	1.770	0.430	-0.260	1.080
2020/01/31 13:44:54.6	1.790	0.360	-0.200	1.120
2020/01/31 13:44:54.7	1.800	0.290	-0.130	1.140
2020/01/31 13:44:54.8	1.810	0.220	-0.060	1.170
2020/01/31 13:44:54.9	1.810	0.150	0.010	1.180
2020/01/31 13:44:55.0	1.820	0.080	0.070	1.190
2020/01/31 13:44:55.1	1.830	0.000	0.140	1.200
2020/01/31 13:44:55.2	1.840	-0.070	0.190	1.200
2020/01/31 13:44:55.3	1.840	-0.150	0.240	1.190
2020/01/31 13:44:55.4	1.850	-0.220	0.290	1.170
2020/01/31 13:44:55.5	1.860	-0.300	0.330	1.150
2020/01/31 13:44:55.6	1.870	-0.370	0.360	1.110
2020/01/31 13:44:55.7	1.880	-0.430	0.390	1.080
2020/01/31 13:44:55.8	1.890	-0.490	0.400	1.030
2020/01/31 13:44:55.9	1.910	-0.550	0.410	0.980
2020/01/31 13:44:56.0	1.920	-0.610	0.410	0.920
2020/01/31 13:44:56.1	1.930	-0.650	0.410	0.850
2020/01/31 13:44:56.2	1.950	-0.690	0.390	0.780
2020/01/31 13:44:56.3	1.970	-0.730	0.360	0.700
2020/01/31 13:44:56.4	1.990	-0.760	0.330	0.620
2020/01/31 13:44:56.5	2.020	-0.780	0.290	0.540
2020/01/31 13:44:56.6	2.030	-0.790	0.240	0.440
2020/01/31 13:44:56.7	2.060	-0.790	0.190	0.350
2020/01/31 13:44:56.8	2.090	-0.790	0.130	0.260
2020/01/31 13:44:56.9	2.110	-0.780	0.060	0.160
2020/01/31 13:44:57.0	2.140	-0.760	-0.010	0.060
2020/01/31 13:44:57.1	2.170	-0.730	-0.080	-0.030
2020/01/31 13:44:57.2	2.200	-0.690	-0.160	-0.130
2020/01/31 13:44:57.3	2.230	-0.650	-0.240	-0.220
2020/01/31 13:44:57.4	2.260	-0.600	-0.320	-0.310
2020/01/31 13:44:57.5	2.280	-0.550	-0.390	-0.400
2020/01/31 13:44:57.6	2.310	-0.490	-0.470	-0.490
2020/01/31 13:44:57.7	2.330	-0.430	-0.540	-0.570
2020/01/31 13:44:57.8	2.350	-0.360	-0.610	-0.640
2020/01/31 13:44:57.9	2.370	-0.290	-0.670	-0.720
2020/01/31 13:44:58.0	2.390	-0.210	-0.730	-0.780
2020/01/31 13:44:58.1	2.400	-0.140	-0.780	-0.840
2020/01/31 13:44:58.2	2.410	-0.060	-0.830	-0.900
2020/01/31 13:44:58.3	2.420	0.020	-0.870	-0.950
2020/01/31 13:44:58.4	2.420	0.090	-0.900	-0.990
2020/01/31 13:44:58.5	2.410	0.170	-0.920	-1.030
2020/01/31 13:44:58.6	2.390	0.240	-0.940	-1.060
2020/01/31 13:44:58.7	2.380	0.310	-0.950	-1.080
2020/01/31 13:44:58.8	2.370	0.370	-0.950	-1.100
2020/01/31 13:44:58.9	2.350	0.440	-0.950	-1.110
2020/01/31 13:44:59.0	2.330	0.490	-0.930	-1.120
2020/01/31 13:44:59.1	2.310	0.540	-0.910	-1.120
2020/01/31 13:44:59.2	2.290	0.590	-0.890	-1.120
2020/01/31 13:44:59.3	2.260	0.630	-0.860	-1.120
2020/01/31 13:44:59.4	2.230	0.660	-0.820	-1.110
2020/01/31 13:44:59.5	2.200	0.690	-0.780	-1.100
2020/01/31 13:44:59.6	2.160	0.710	-0.740	-1.080
2020/01/31 13:44:59.7	2.120	0.720	-0.700	-1.060
2020/01/31 13:44:59.8	2.090	0.730	-0.650	-1.040
2020/01/31 13:44:59.9	2.050	0.730	-0.590	-1.030
2020/01/31 13:45:00.0	2.020	0.720	-0.540	-1.010
2020/01/31 13:45:00.1	1.980	0.710	-0.490	-0.990
2020/01/31 13:45:00.2	1.950	0.690	-0.430	-0.980
2020/01/31 13:45:00.3	1.920	0.670	-0.380	-0.960
2020/01/31 13:45:00.4	1.890	0.640	-0.330	-0.950
2020/01/31 13:45:00.5	1.860	0.610	-0.280	-0.940
2020/01/31 13:45:00.6	1.830	0.570	-0.230	-0.930
2020/01/31 13:45:00.7	1.810	0.540	-0.190	-0.930
2020/01/31 13:45:00.8	1.790	0.490	-0.140	-0.920
2020/01/31 13:45:00.9	1.780	0.450	-0.100	-0.920
2020/01/31 13:45:01.0	1.760	0.410	-0.070	-0.920
2020/01/31 13:45:01.1	1.750	0.360	-0.040	-0.930
2020/01/31 13:45:01.2	1.750	0.320	-0.010	-0.930
2020/01/31 13:45:01.3	1.740	0.270	0.020	-0.940
2020/01/31 13:45:01.4	1.740	0.230	0.040	-0.950
2020/01/31 13:45:01.5	1.750	0.180	0.050	-0.960
2020/01/31 13:45:01.6	1.760	0.140	0.070	-0.960
2020/01/31 13:45:01.7	1.770	0.100	0.080	-0.970
2020/01/31 13:45:01.8	1.780	0.060	0.090	-0.980
2020/01/31 13:45:01.9	1.800	0.030	0.100	-0.990
2020/01/31 13:45:02.0	1.820	-0.010	0.100	-1.000
2020/01/31 13:45:02.1	1.840	-0.040	0.100	-1.010
2020/01/31 13:45:02.2	1.860	-0.070	0.100	-1.020
2020/01/31 13:45:02.3	1.880	-0.090	0.100	-1.020
2020/01/31 13:45:02.4	1.910	-0.110	0.090	-1.030
2020/01/31 13:45:02.5	1.940	-0.130	0.090	-1.040
2020/01/31 13:45:02.6	1.970	-0.150	0.080	-1.040
2020/01/31 13:45:02.7	2.000	-0.170	0.070	-1.040
2020/01/31 13:45:02.8	2.040	-0.180	0.060	-1.040
2020/01/31 13:45:02.9	2.070	-0.190	0.050	-1.050
2020/01/31 13:45:03.0	2.110	-0.200	0.040	-1.050
2020/01/31 13:45:03.1	2.140	-0.210	0.030	-1.050
2020/01/31 13:45:03.2	2.180	-0.220	0.020	-1.040
2020/01/31 13:45:03.3	2.210	-0.220	0.010	-1.040
2020/01/31 13:45:03.4	2.250	-0.220	-0.000	-1.040
2020/01/31 13:45:03.5	2.280	-0.230	-0.010	-1.040
2020/01/31 13:45:03.6	2.300	-0.230	-0.020	-1.030
2020/01/31 13:45:03.7	2.330	-0.230	-0.030	-1.030
2020/01/31 13:45:03.8	2.370	-0.230	-0.040	-1.020
2020/01/31 13:45:03.9	2.400	-0.230	-0.050	-1.020
2020/01/31 13:45:04.0	2.420	-0.230	-0.060	-1.010
2020/01/31 13:45:04.1	2.450	-0.230	-0.070	-1.010
2020/01/31 13:45:04.2	2.480	-0.230	-0.080	-1.000
2020/01/31 13:45:04.3	2.500	-0.220	-0.090	-0.990
2020/01/31 13:45:04.4	2.520	-0.220	-0.100	-0.980
2020/01/31 13:45:04.5	2.540	-0.220	-0.110	-0.960
2020/01/31 13:45:04.6	2.570	-0.220	-0.120	-0.940
2020/01/31 13:45:04.7	2.580	-0.210	-0.120	-0.920
2020/01/31 13:45:04.8	2.590	-0.210	-0.130	-0.900
2020/01/31 13:45:04.9	2.600	-0.200	-0.130	-0.870
2020/01/31 13:45:05.0	2.610	-0.200	-0.140	-0.850
2020/01/31 13:45:05.1	2.610	-0.200	-0.140	-0.820
2020/01/31 13:45:05.2	2.620	-0.190	-0.140	-0.780
2020/01/31 13:45:05.3	2.620	-0.190	-0.140	-0.750
2020/01/31 13:45:05.4	2.620	-0.180	-0.150	-0.710
2020/01/31 13:45:05.5	2.610	-0.180	-0.150	-0.670
2020/01/31 13:45:05.6	2.600	-0.180	-0.150	-0.630
2020/01/31 13:45:05.7	2.600	-0.170	-0.150	-0.590
2020/01/31 13:45:05.8	2.590	-0.170	-0.150	-0.550
2020/01/31 13:45:05.9	2.590	-0.170	-0.160	-0.510
2020/01/31 13:45:06.0	2.580	-0.170	-0.160	-0.470
2020/01/31 13:45:06.1	2.570	-0.160	-0.160	-0.420
2020/01/31 13:45:06.2	2.560	-0.160	-0.170	-0.390
2020/01/31 13:45:06.3	2.550	-0.160	-0.170	-0.350
2020/01/31 13:45:06.4	2.540	-0.160	-0.170	-0.320
2020/01/31 13:45:06.5	2.530	-0.160	-0.170	-0.290
2020/01/31 13:45:06.6	2.520	-0.160	-0.180	-0.250
2020/01/31 13:45:06.7	2.510	-0.160	-0.180	-0.230
2020/01/31 13:45:06.8	2.500	-0.160	-0.180	-0.200
2020/01/31 13:45:06.9	2.480	-0.160	-0.180	-0.180
2020/01/31 13:45:07.0	2.470	-0.160	-0.180	-0.160
2020/01/31 13:45:07.1	2.460	-0.160	-0.180	-0.150
2020/01/31 13:45:07.2	2.440	-0.170	-0.170	-0.130
2020/01/31 13:45:07.3	2.430	-0.170	-0.170	-0.110
2020/01/31 13:45:07.4	2.410	-0.170	-0.160	-0.100
2020/01/31 13:45:07.5	2.400	-0.170	-0.150	-0.090
2020/01/31 13:45:07.6	2.380	-0.160	-0.150	-0.070
2020/01/31 13:45:07.7	2.370	-0.160	-0.130	-0.060
2020/01/31 13:45:07.8	2.350	-0.160	-0.120	-0.040
2020/01/31 13:45:07.9	2.330	-0.160	-0.110	-0.030
2020/01/31 13:45:08.0	2.320	-0.150	-0.100	-0.010
2020/01/31 13:45:08.1	2.300	-0.150	-0.090	0.010
2020/01/31 13:45:08.2	2.290	-0.140	-0.070	0.030
2020/01/31 13:45:08.3	2.270	-0.130	-0.060	0.040
2020/01/31 13:45:08.4	2.260	-0.130	-0.050	0.060
2020/01/31 13:45:08.5	2.240	-0.120	-0.040	0.080
2020/01/31 13:45:08.6	2.230	-0.100	-0.030	0.100
2020/01/31 13:45:08.7	2.220	-0.090	-0.030	0.120
2020/01/31 13:45:08.8	2.210	-0.080	-0.020	0.140
2020/01/31 13:45:08.9	2.210	-0.060	-0.020	0.150
2020/01/31 13:45:09.0	2.200	-0.050	-0.030	0.170
2020/01/31 13:45:09.1	2.200	-0.030	-0.030	0.180
2020/01/31 13:45:09.2	2.200	-0.010	-0.040	0.190
2020/01/31 13:45:09.3	2.210	0.010	-0.060	0.200
2020/01/31 13:45:09.4	2.210	0.030	-0.080	0.200
2020/01/31 13:45:09.5	2.220	0.050	-0.100	0.200
2020/01/31 13:45:09.6	2.240	0.070	-0.120	0.200
2020/01/31 13:45:09.7	2.250	0.100	-0.150	0.200
2020/01/31 13:45:09.8	2.270	0.120	-0.180	0.190
2020/01/31 13:45:09.9	2.290	0.140	-0.220	0.180
2020/01/31 13:45:10.0	2.310	0.160	-0.260	0.170
2020/01/31 13:45:10.1	2.330	0.190	-0.300	0.160
2020/01/31 13:45:10.2	2.350	0.210	-0.340	0.140
2020/01/31 13:45:10.3	2.370	0.230	-0.380	0.130
2020/01/31 13:45:10.4	2.390	0.250	-0.420	0.110
2020/01/31 13:45:10.5	2.410	0.260	-0.470	0.080
2020/01/31 13:45:10.6	2.440	0.280	-0.510	0.060
2020/01/31 13:45:10.7	2.460	0.290	-0.550	0.040
2020/01/31 13:45:10.8	2.480	0.300	-0.590	0.010
2020/01/31 13:45:10.9	2.500	0.310	-0.630	-0.010
2020/01/31 13:45:11.0	2.520	0.320	-0.660	-0.040
2020/01/31 13:45:11.1	2.540	0.330	-0.690	-0.060
2020/01/31 13:45:11.2	2.550	0.330	-0.720	-0.090
2020/01/31 13:45:11.3	2.570	0.330	-0.740	-0.110
2020/01/31 13:45:11.4	2.580	0.330	-0.760	-0.140
2020/01/31 13:45:11.5	2.590	0.330	-0.770	-0.160
2020/01/31 13:45:11.6	2.610	0.330	-0.790	-0.180
2020/01/31 13:45:11.7	2.620	0.320	-0.790	-0.200
2020/01/31 13:45:11.8	2.630	0.320	-0.800	-0.220
2020/01/31 13:45:11.9	2.630	0.310	-0.790	-0.230
2020/01/31 13:45:12.0	2.640	0.300	-0.790	-0.240
2020/01/31 13:45:12.1	2.650	0.290	-0.780	-0.250
2020/01/31 13:45:12.2	2.650	0.280	-0.770	-0.250
2020/01/31 13:45:12.3	2.660	0.270	-0.750	-0.250
2020/01/31 13:45:12.4	2.660	0.260	-0.740	-0.250
2020/01/31 13:45:12.5	2.660	0.250	-0.710	-0.250
2020/01/31 13:45:12.6	2.660	0.230	-0.690	-0.240
2020/01/31 13:45:12.7	2.660	0.220	-0.670	-0.240
2020/01/31 13:45:12.8	2.670	0.220	-0.640	-0.230
2020/01/31 13:45:12.9	2.670	0.210	-0.610	-0.220
2020/01/31 13:45:13.0	2.670	0.200	-0.590	-0.210
2020/01/31 13:45:13.1	2.680	0.190	-0.560	-0.200
2020/01/31 13:45:13.2	2.680	0.190	-0.530	-0.190
2020/01/31 13:45:13.3	2.690	0.180	-0.510	-0.180
2020/01/31 13:45:13.4	2.690	0.180	-0.480	-0.170
2020/01/31 13:45:13.5	2.700	0.180	-0.460	-0.160
2020/01/31 13:45:13.6	2.710	0.170	-0.440	-0.160
2020/01/31 13:45:13.7	2.720	0.170	-0.410	-0.150
2020/01/31 13:45:13.8	2.720	0.170	-0.390	-0.150
2020/01/31 13:45:13.9	2.720	0.170	-0.370	-0.150
2020/01/31 13:45:14.0	2.730	0.170	-0.350	-0.150
2020/01/31 13:45:14.1	2.730	0.180	-0.340	-0.150
2020/01/31 13:45:14.2	2.740	0.180	-0.320	-0.160
2020/01/31 13:45:14.3	2.740	0.180	-0.300	-0.170
2020/01/31 13:45:14.4	2.750	0.180	-0.290	-0.180
2020/01/31 13:45:14.5	2.750	0.180	-0.280	-0.190
2020/01/31 13:45:14.6	2.770	0.180	-0.270	-0.210
2020/01/31 13:45:14.7	2.770	0.180	-0.250	-0.220
2020/01/31 13:45:14.8	2.780	0.170	-0.240	-0.240
2020/01/31 13:45:14.9	2.780	0.170	-0.230	-0.270
2020/01/31 13:45:15.0	2.790	0.160	-0.220	-0.290
2020/01/31 13:45:15.1	2.800	0.150	-0.200	-0.320
2020/01/31 13:45:15.2	2.810	0.140	-0.190	-0.350
2020/01/31 13:45:15.3	2.820	0.130	-0.180	-0.380
2020/01/31 13:45:15.4	2.830	0.120	-0.160	-0.410
2020/01/31 13:45:15.5	2.840	0.110	-0.150	-0.450
2020/01/31 13:45:15.6	2.860	0.090	-0.140	-0.480
2020/01/31 13:45:15.7	2.880	0.070	-0.120	-0.520
2020/01/31 13:45:15.8	2.890	0.050	-0.110	-0.550
2020/01/31 13:45:15.9	2.910	0.030	-0.090	-0.590
2020/01/31 13:45:16.0	2.930	0.010	-0.070	-0.630
2020/01/31 13:45:16.1	2.960	-0.010	-0.060	-0.670
2020/01/31 13:45:16.2	2.980	-0.040	-0.040	-0.710
2020/01/31 13:45:16.3	3.000	-0.060	-0.020	-0.750
2020/01/31 13:45:16.4	3.030	-0.090	-0.010	-0.780
2020/01/31 13:45:16.5	3.060	-0.120	0.010	-0.820
2020/01/31 13:45:16.6	3.080	-0.140	0.030	-0.860
2020/01/31 13:45:16.7	3.110	-0.170	0.040	-0.900
2020/01/31 13:45:16.8	3.140	-0.190	0.060	-0.930
2020/01/31 13:45:16.9	3.160	-0.220	0.080	-0.960
2020/01/31 13:45:17.0	3.190	-0.240	0.100	-0.990
2020/01/31 13:45:17.1	3.210	-0.270	0.110	-1.020
2020/01/31 13:45:17.2	3.230	-0.290	0.130	-1.050
2020/01/31 13:45:17.3	3.250	-0.310	0.150	-1.070
2020/01/31 13:45:17.4	3.270	-0.330	0.170	-1.090
2020/01/31 13:45:17.5	3.290	-0.350	0.190	-1.110
2020/01/31 13:45:17.6	3.290	-0.370	0.210	-1.120
2020/01/31 13:45:17.7	3.300	-0.380	0.220	-1.140
2020/01/31 13:45:17.8	3.310	-0.400	0.240	-1.150
2020/01/31 13:45:17.9	3.320	-0.410	0.260	-1.150
2020/01/31 13:45:18.0	3.320	-0.410	0.280	-1.160
2020/01/31 13:45:18.1	3.320	-0.420	0.290	-1.160
2020/01/31 13:45:18.2	3.320	-0.420	0.310	-1.150
2020/01/31 13:45:18.3	3.320	-0.420	0.330	-1.140
2020/01/31 13:45:18.4	3.310	-0.420	0.350	-1.130
2020/01/31 13:45:18.5	3.300	-0.410	0.360	-1.110
2020/01/31 13:45:18.6	3.290	-0.400	0.370	-1.090
2020/01/31 13:45:18.7	3.270	-0.390	0.390	-1.070
2020/01/31 13:45:18.8	3.250	-0.370	0.400	-1.030
2020/01/31 13:45:18.9	3.220	-0.360	0.410	-1.000
2020/01/31 13:45:19.0	3.200	-0.330	0.420	-0.950
2020/01/31 13:45:19.1	3.170	-0.310	0.430	-0.910
2020/01/31 13:45:19.2	3.130	-0.290	0.440	-0.850
2020/01/31 13:45:19.3	3.100	-0.260	0.440	-0.800
2020/01/31 13:45:19.4	3.060	-0.230	0.440	-0.740
2020/01/31 13:45:19.5	3.020	-0.200	0.440	-0.670
2020/01/31 13:45:19.6	2.970	-0.170	0.430	-0.600
2020/01/31 13:45:19.7	2.930	-0.140	0.420	-0.530
2020/01/31 13:45:19.8	2.880	-0.100	0.410	-0.460
2020/01/31 13:45:19.9	2.840	-0.070	0.390	-0.380
2020/01/31 13:45:20.0	2.790	-0.030	0.370	-0.310
2020/01/31 13:45:20.1	2.740	-0.000	0.350	-0.230
2020/01/31 13:45:20.2	2.690	0.030	0.320	-0.150
2020/01/31 13:45:20.3	2.650	0.070	0.280	-0.080
2020/01/31 13:45:20.4	2.600	0.100	0.250	-0.010
2020/01/31 13:45:20.5	2.560	0.130	0.210	0.060
2020/01/31 13:45:20.6	2.520	0.160	0.160	0.140
2020/01/31 13:45:20.7	2.480	0.190	0.110	0.200
2020/01/31 13:45:20.8	2.450	0.220	0.060	0.270
2020/01/31 13:45:20.9	2.410	0.250	0.000	0.320
2020/01/31 13:45:21.0	2.380	0.270	-0.060	0.370
2020/01/31 13:45:21.1	2.350	0.290	-0.120	0.420
2020/01/31 13:45:21.2	2.330	0.310	-0.190	0.460
2020/01/31 13:45:21.3	2.310	0.330	-0.250	0.500
2020/01/31 13:45:21.4	2.290	0.340	-0.320	0.520
2020/01/31 13:45:21.5	2.280	0.360	-0.390	0.550
2020/01/31 13:45:21.6	2.290	0.370	-0.470	0.570
2020/01/31 13:45:21.7	2.280	0.370	-0.540	0.580
2020/01/31 13:45:21.8	2.290	0.380	-0.610	0.580
2020/01/31 13:45:21.9	2.290	0.380	-0.680	0.580
2020/01/31 13:45:22.0	2.300	0.380	-0.750	0.580
2020/01/31 13:45:22.1	2.310	0.370	-0.810	0.570
2020/01/31 13:45:22.2	2.330	0.370	-0.880	0.560
2020/01/31 13:45:22.3	2.350	0.360	-0.940	0.540
2020/01/31 13:45:22.4	2.370	0.350	-0.990	0.520
2020/01/31 13:45:22.5	2.400	0.340	-1.040	0.500
2020/01/31 13:45:22.6	2.420	0.330	-1.080	0.470
2020/01/31 13:45:22.7	2.450	0.310	-1.120	0.440
2020/01/31 13:45:22.8	2.490	0.300	-1.160	0.410
2020/01/31 13:45:22.9	2.530	0.280	-1.180	0.380
2020/01/31 13:45:23.0	2.570	0.260	-1.210	0.340
2020/01/31 13:45:23.1	2.610	0.250	-1.220	0.300
2020/01/31 13:45:23.2	2.660	0.230	-1.230	0.260
2020/01/31 13:45:23.3	2.700	0.210	-1.240	0.220
2020/01/31 13:45:23.4	2.750	0.190	-1.240	0.180
2020/01/31 13:45:23.5	2.810	0.180	-1.240	0.130
2020/01/31 13:45:23.6	2.860	0.160	-1.230	0.080
2020/01/31 13:45:23.7	2.910	0.150	-1.220	0.030
2020/01/31 13:45:23.8	2.970	0.130	-1.210	-0.030
2020/01/31 13:45:23.9	3.030	0.120	-1.190	-0.080
2020/01/31 13:45:24.0	3.100	0.110	-1.180	-0.130
2020/01/31 13:45:24.1	3.160	0.090	-1.160	-0.190
2020/01/31 13:45:24.2	3.220	0.080	-1.140	-0.250
2020/01/31 13:45:24.3	3.290	0.070	-1.110	-0.300
2020/01/31 13:45:24.4	3.350	0.060	-1.080	-0.350
2020/01/31 13:45:24.5	3.410	0.050	-1.060	-0.410
2020/01/31 13:45:24.6	3.460	0.040	-1.030	-0.460
2020/01/31 13:45:24.7	3.520	0.040	-0.990	-0.500
2020/01/31 13:45:24.8	3.570	0.030	-0.960	-0.550
2020/01/31 13:45:24.9	3.610	0.010	-0.920	-0.590
2020/01/31 13:45:25.0	3.660	0.000	-0.870	-0.630
2020/01/31 13:45:25.1	3.690	-0.010	-0.820	-0.670
2020/01/31 13:45:25.2	3.730	-0.020	-0.770	-0.700
2020/01/31 13:45:25.3	3.750	-0.040	-0.720	-0.730
2020/01/31 13:45:25.4	3.770	-0.060	-0.660	-0.760
2020/01/31 13:45:25.5	3.790	-0.070	-0.600	-0.780
2020/01/31 13:45:25.6	3.800	-0.090	-0.540	-0.810
2020/01/31 13:45:25.7	3.810	-0.110	-0.470	-0.830
2020/01/31 13:45:25.8	3.810	-0.140	-0.410	-0.850
2020/01/31 13:45:25.9	3.800	-0.160	-0.340	-0.870
2020/01/31 13:45:26.0	3.800	-0.180	-0.270	-0.890
2020/01/31 13:45:26.1	3.780	-0.210	-0.190	-0.900
2020/01/31 13:45:26.2	3.770	-0.230	-0.120	-0.910
2020/01/31 13:45:26.3	3.750	-0.260	-0.050	-0.920
2020/01/31 13:45:26.4	3.720	-0.290	0.030	-0.920
2020/01/31 13:45:26.5	3.690	-0.310	0.100	-0.930
2020/01/31 13:45:26.6	3.670	-0.340	0.170	-0.930
2020/01/31 13:45:26.7	3.630	-0.360	0.240	-0.920
2020/01/31 13:45:26.8	3.600	-0.390	0.310	-0.920
2020/01/31 13:45:26.9	3.560	-0.410	0.370	-0.910
2020/01/31 13:45:27.0	3.520	-0.430	0.440	-0.900
2020/01/31 13:45:27.1	3.480	-0.450	0.500	-0.890
2020/01/31 13:45:27.2	3.440	-0.470	0.550	-0.880
2020/01/31 13:45:27.3	3.400	-0.480	0.600	-0.870
2020/01/31 13:45:27.4	3.360	-0.500	0.650	-0.850
2020/01/31 13:45:27.5	3.320	-0.510	0.680	-0.830
2020/01/31 13:45:27.6	3.280	-0.510	0.720	-0.810
2020/01/31 13:45:27.7	3.240	-0.510	0.740	-0.790
2020/01/31 13:45:27.8	3.200	-0.510	0.760	-0.760
2020/01/31 13:45:27.9	3.160	-0.500	0.770	-0.740
2020/01/31 13:45:28.0	3.110	-0.490	0.770	-0.710
2020/01/31 13:45:28.1	3.070	-0.480	0.770	-0.680
2020/01/31 13:45:28.2	3.030	-0.460	0.760	-0.660
2020/01/31 13:45:28.3	2.990	-0.430	0.740	-0.630
2020/01/31 13:45:28.4	2.950	-0.410	0.710	-0.600
2020/01/31 13:45:28.5	2.910	-0.370	0.680	-0.570
2020/01/31 13:45:28.6	2.880	-0.340	0.630	-0.530
2020/01/31 13:45:28.7	2.840	-0.300	0.580	-0.510
2020/01/31 13:45:28.8	2.810	-0.260	0.530	-0.480
2020/01/31 13:45:28.9	2.770	-0.210	0.470	-0.450
2020/01/31 13:45:29.0	2.740	-0.160	0.410	-0.430
2020/01/31 13:45:29.1	2.710	-0.110	0.350	-0.400
2020/01/31 13:45:29.2	2.680	-0.060	0.280	-0.380
2020/01/31 13:45:29.3	2.650	-0.000	0.210	-0.350
2020/01/31 13:45:29.4	2.630	0.050	0.140	-0.330
2020/01/31 13:45:29.5	2.600	0.110	0.060	-0.310
2020/01/31 13:45:29.6	2.590	0.170	-0.010	-0.280
2020/01/31 13:45:29.7	2.570	0.220	-0.080	-0.260
2020/01/31 13:45:29.8	2.550	0.280	-0.150	-0.240
2020/01/31 13:45:29.9	2.530	0.330	-0.220	-0.210
2020/01/31 13:45:30.0	2.520	0.380	-0.280	-0.190
2020/01/31 13:45:30.1	2.510	0.430	-0.340	-0.160
2020/01/31 13:45:30.2	2.500	0.480	-0.390	-0.140
2020/01/31 13:45:30.3	2.490	0.520	-0.440	-0.110
2020/01/31 13:45:30.4	2.490	0.560	-0.490	-0.090
2020/01/31 13:45:30.5	2.480	0.600	-0.530	-0.060
2020/01/31 13:45:30.6	2.480	0.630	-0.560	-0.030
2020/01/31 13:45:30.7	2.480	0.660	-0.590	-0.000
2020/01/31 13:45:30.8	2.470	0.680	-0.610	0.030
2020/01/31 13:45:30.9	2.470	0.690	-0.630	0.050
2020/01/31 13:45:31.0	2.470	0.700	-0.640	0.080
2020/01/31 13:45:31.1	2.470	0.710	-0.640	0.110
2020/01/31 13:45:31.2	2.480	0.710	-0.640	0.140
2020/01/31 13:45:31.3	2.480	0.700	-0.640	0.170
2020/01/31 13:45:31.4	2.480	0.690	-0.630	0.190
2020/01/31 13:45:31.5	2.480	0.670	-0.610	0.220
2020/01/31 13:45:31.6	2.500	0.650	-0.590	0.250
2020/01/31 13:45:31.7	2.500	0.620	-0.570	0.270
2020/01/31 13:45:31.8	2.510	0.580	-0.540	0.290
2020/01/31 13:45:31.9	2.510	0.540	-0.510	0.310
2020/01/31 13:45:32.0	2.520	0.500	-0.480	0.330
2020/01/31 13:45:32.1	2.530	0.450	-0.450	0.350
2020/01/31 13:45:32.2	2.540	0.400	-0.420	0.360
2020/01/31 13:45:32.3	2.550	0.350	-0.380	0.370
2020/01/31 13:45:32.4	2.560	0.290	-0.350	0.370
2020/01/31 13:45:32.5	2.570	0.240	-0.310	0.370
2020/01/31 13:45:32.6	2.590	0.180	-0.280	0.370
2020/01/31 13:45:32.7	2.600	0.120	-0.250	0.360
2020/01/31 13:45:32.8	2.620	0.050	-0.220	0.350
2020/01/31 13:45:32.9	2.630	-0.010	-0.190	0.330
2020/01/31 13:45:33.0	2.640	-0.070	-0.160	0.310
2020/01/31 13:45:33.1	2.660	-0.130	-0.130	0.290
2020/01/31 13:45:33.2	2.680	-0.180	-0.110	0.260
2020/01/31 13:45:33.3	2.690	-0.240	-0.080	0.230
2020/01/31 13:45:33.4	2.710	-0.290	-0.060	0.200
2020/01/31 13:45:33.5	2.730	-0.340	-0.040	0.170
2020/01/31 13:45:33.6	2.740	-0.380	-0.020	0.130
2020/01/31 13:45:33.7	2.750	-0.420	-0.010	0.090
2020/01/31 13:45:33.8	2.770	-0.460	0.010	0.060
2020/01/31 13:45:33.9	2.780	-0.490	0.020	0.030
2020/01/31 13:45:34.0	2.780	-0.510	0.040	-0.000
2020/01/31 13:45:34.1	2.790	-0.530	0.050	-0.030
2020/01/31 13:45:34.2	2.790	-0.550	0.060	-0.050
2020/01/31 13:45:34.3	2.790	-0.560	0.070	-0.070
2020/01/31 13:45:34.4	2.780	-0.560	0.080	-0.080
2020/01/31 13:45:34.5	2.770	-0.560	0.090	-0.090
2020/01/31 13:45:34.6	2.760	-0.560	0.090	-0.090
2020/01/31 13:45:34.7	2.750	-0.550	0.090	-0.100
2020/01/31 13:45:34.8	2.730	-0.540	0.100	-0.100
2020/01/31 13:45:34.9	2.710	-0.520	0.100	-0.090
2020/01/31 13:45:35.0	2.690	-0.500	0.090	-0.090
2020/01/31 13:45:35.1	2.670	-0.470	0.080	-0.080
2020/01/31 13:45:35.2	2.650	-0.440	0.070	-0.070
2020/01/31 13:45:35.3	2.630	-0.410	0.060	-0.060
2020/01/31 13:45:35.4	2.610	-0.380	0.040	-0.050
2020/01/31 13:45:35.5	2.580	-0.340	0.020	-0.040
2020/01/31 13:45:35.6	2.560	-0.310	-0.010	-0.020
2020/01/31 13:45:35.7	2.540	-0.270	-0.040	-0.010
2020/01/31 13:45:35.8	2.520	-0.230	-0.080	-0.010
2020/01/31 13:45:35.9	2.500	-0.190	-0.120	-0.000
2020/01/31 13:45:36.0	2.490	-0.150	-0.160	0.000
2020/01/31 13:45:36.1	2.470	-0.110	-0.210	0.010
2020/01/31 13:45:36.2	2.460	-0.070	-0.260	0.000
2020/01/31 13:45:36.3	2.460	-0.030	-0.310	-0.000
2020/01/31 13:45:36.4	2.450	0.010	-0.370	-0.010
2020/01/31 13:45:36.5	2.450	0.040	-0.430	-0.020
2020/01/31 13:45:36.6	2.450	0.070	-0.480	-0.040
2020/01/31 13:45:36.7	2.460	0.110	-0.540	-0.060
2020/01/31 13:45:36.8	2.470	0.140	-0.600	-0.080
2020/01/31 13:45:36.9	2.480	0.160	-0.660	-0.100
2020/01/31 13:45:37.0	2.500	0.190	-0.720	-0.130
2020/01/31 13:45:37.1	2.510	0.210	-0.770	-0.160
2020/01/31 13:45:37.2	2.530	0.230	-0.820	-0.190
2020/01/31 13:45:37.3	2.550	0.240	-0.870	-0.230
2020/01/31 13:45:37.4	2.570	0.260	-0.910	-0.260
2020/01/31 13:45:37.5	2.600	0.270	-0.950	-0.290
2020/01/31 13:45:37.6	2.620	0.280	-0.990	-0.320
2020/01/31 13:45:37.7	2.650	0.280	-1.020	-0.350
2020/01/31 13:45:37.8	2.670	0.290	-1.040	-0.370
2020/01/31 13:45:37.9	2.690	0.290	-1.050	-0.400
2020/01/31 13:45:38.0	2.710	0.290	-1.050	-0.420
2020/01/31 13:45:38.1	2.730	0.280	-1.050	-0.430
2020/01/31 13:45:38.2	2.740	0.270	-1.040	-0.450
2020/01/31 13:45:38.3	2.760	0.270	-1.020	-0.460
2020/01/31 13:45:38.4	2.770	0.250	-1.000	-0.460
2020/01/31 13:45:38.5	2.780	0.240	-0.970	-0.470
2020/01/31 13:45:38.6	2.780	0.230	-0.930	-0.470
2020/01/31 13:45:38.7	2.790	0.210	-0.880	-0.460
2020/01/31 13:45:38.8	2.790	0.190	-0.830	-0.460
2020/01/31 13:45:38.9	2.790	0.180	-0.780	-0.450
2020/01/31 13:45:39.0	2.800	0.160	-0.720	-0.440
2020/01/31 13:45:39.1	2.800	0.140	-0.660	-0.430
2020/01/31 13:45:39.2	2.800	0.120	-0.600	-0.420
2020/01/31 13:45:39.3	2.790	0.100	-0.540	-0.410
2020/01/31 13:45:39.4	2.790	0.080	-0.470	-0.390
2020/01/31 13:45:39.5	2.790	0.060	-0.410	-0.380
2020/01/31 13:45:39.6	2.790	0.040	-0.350	-0.360
2020/01/31 13:45:39.7	2.780	0.030	-0.290	-0.350
2020/01/31 13:45:39.8	2.770	0.010	-0.230	-0.330
2020/01/31 13:45:39.9	2.770	-0.000	-0.170	-0.320
2020/01/31 13:45:40.0	2.760	-0.010	-0.120	-0.310
2020/01/31 13:45:40.1	2.760	-0.020	-0.070	-0.290
2020/01/31 13:45:40.2	2.750	-0.030	-0.020	-0.280
2020/01/31 13:45:40.3	2.740	-0.040	0.020	-0.270
2020/01/31 13:45:40.4	2.730	-0.040	0.060	-0.250
2020/01/31 13:45:40.5	2.720	-0.040	0.100	-0.240
2020/01/31 13:45:40.6	2.720	-0.040	0.130	-0.220
2020/01/31 13:45:40.7	2.710	-0.040	0.160	-0.210
2020/01/31 13:45:40.8	2.700	-0.030	0.180	-0.190
2020/01/31 13:45:40.9	2.690	-0.020	0.200	-0.180
2020/01/31 13:45:41.0	2.690	-0.020	0.220	-0.160
2020/01/31 13:45:41.1	2.680	-0.010	0.230	-0.150
2020/01/31 13:45:41.2	2.670	0.010	0.240	-0.140
2020/01/31 13:45:41.3	2.660	0.020	0.250	-0.120
2020/01/31 13:45:41.4	2.650	0.030	0.260	-0.110
2020/01/31 13:45:41.5	2.640	0.040	0.260	-0.100
2020/01/31 13:45:41.6	2.630	0.050	0.260	-0.080
2020/01/31 13:45:41.7	2.620	0.060	0.260	-0.070
2020/01/31 13:45:41.8	2.600	0.070	0.270	-0.060
2020/01/31 13:45:41.9	2.590	0.080	0.270	-0.060
2020/01/31 13:45:42.0	2.570	0.090	0.270	-0.050
2020/01/31 13:45:42.1	2.560	0.100	0.270	-0.040
2020/01/31 13:45:42.2	2.540	0.110	0.260	-0.030
2020/01/31 13:45:42.3	2.530	0.120	0.260	-0.030
2020/01/31 13:45:42.4	2.510	0.120	0.260	-0.020
2020/01/31 13:45:42.5	2.490	0.120	0.260	-0.010
2020/01/31 13:45:42.6	2.470	0.120	0.260	-0.010
2020/01/31 13:45:42.7	2.450	0.120	0.260	-0.000
2020/01/31 13:45:42.8	2.430	0.110	0.260	0.010
2020/01/31 13:45:42.9	2.410	0.110	0.260	0.010
2020/01/31 13:45:43.0	2.390	0.100	0.260	0.020
2020/01/31 13:45:43.1	2.370	0.090	0.260	0.030
2020/01/31 13:45:43.2	2.350	0.080	0.260	0.040
2020/01/31 13:45:43.3	2.330	0.060	0.260	0.040
2020/01/31 13:45:43.4	2.310	0.050	0.260	0.050
2020/01/31 13:45:43.5	2.290	0.030	0.260	0.050
2020/01/31 13:45:43.6	2.270	0.010	0.260	0.060
2020/01/31 13:45:43.7	2.250	-0.010	0.260	0.070
2020/01/31 13:45:43.8	2.240	-0.030	0.260	0.080
2020/01/31 13:45:43.9	2.220	-0.050	0.260	0.080
2020/01/31 13:45:44.0	2.210	-0.070	0.250	0.080
2020/01/31 13:45:44.1	2.200	-0.090	0.250	0.080
2020/01/31 13:45:44.2	2.190	-0.110	0.240	0.080
2020/01/31 13:45:44.3	2.180	-0.140	0.230	0.080
2020/01/31 13:45:44.4	2.170	-0.160	0.210	0.080
2020/01/31 13:45:44.5	2.170	-0.180	0.190	0.070
2020/01/31 13:45:44.6	2.180	-0.200	0.170	0.070
2020/01/31 13:45:44.7	2.180	-0.230	0.140	0.060
2020/01/31 13:45:44.8	2.180	-0.250	0.110	0.040
2020/01/31 13:45:44.9	2.180	-0.270	0.080	0.030
2020/01/31 13:45:45.0	2.190	-0.290	0.040	0.010
2020/01/31 13:45:45.1	2.190	-0.300	-0.000	-0.010
2020/01/31 13:45:45.2	2.200	-0.320	-0.050	-0.040
2020/01/31 13:45:45.3	2.210	-0.340	-0.100	-0.060
2020/01/31 13:45:45.4	2.220	-0.350	-0.160	-0.090
2020/01/31 13:45:45.5	2.230	-0.360	-0.210	-0.120
2020/01/31 13:45:45.6	2.250	-0.370	-0.280	-0.150
2020/01/31 13:45:45.7	2.270	-0.380	-0.340	-0.190
2020/01/31 13:45:45.8	2.280	-0.390	-0.410	-0.230
2020/01/31 13:45:45.9	2.300	-0.390	-0.470	-0.270
2020/01/31 13:45:46.0	2.330	-0.390	-0.540	-0.310
2020/01/31 13:45:46.1	2.350	-0.390	-0.610	-0.350
2020/01/31 13:45:46.2	2.380	-0.380	-0.670	-0.390
2020/01/31 13:45:46.3	2.410	-0.370	-0.740	-0.440
2020/01/31 13:45:46.4	2.440	-0.360	-0.800	-0.480
2020/01/31 13:45:46.5	2.470	-0.350	-0.860	-0.520
2020/01/31 13:45:46.6	2.510	-0.330	-0.920	-0.570
2020/01/31 13:45:46.7	2.540	-0.320	-0.970	-0.610
2020/01/31 13:45:46.8	2.580	-0.290	-1.020	-0.650
2020/01/31 13:45:46.9	2.610	-0.270	-1.060	-0.680
2020/01/31 13:45:47.0	2.650	-0.250	-1.090	-0.710
2020/01/31 13:45:47.1	2.680	-0.220	-1.120	-0.740
2020/01/31 13:45:47.2	2.710	-0.190	-1.140	-0.770
2020/01/31 13:45:47.3	2.740	-0.160	-1.150	-0.790
2020/01/31 13:45:47.4	2.770	-0.120	-1.150	-0.810
2020/01/31 13:45:47.5	2.800	-0.090	-1.150	-0.820
2020/01/31 13:45:47.6	2.820	-0.060	-1.140	-0.820
2020/01/31 13:45:47.7	2.830	-0.020	-1.120	-0.810
2020/01/31 13:45:47.8	2.840	0.010	-1.080	-0.800
2020/01/31 13:45:47.9	2.850	0.050	-1.040	-0.780
2020/01/31 13:45:48.0	2.850	0.080	-1.000	-0.760
2020/01/31 13:45:48.1	2.850	0.120	-0.940	-0.730
2020/01/31 13:45:48.2	2.840	0.150	-0.880	-0.690
2020/01/31 13:45:48.3	2.820	0.180	-0.810	-0.640
2020/01/31 13:45:48.4	2.800	0.210	-0.740	-0.590
2020/01/31 13:45:48.5	2.770	0.230	-0.660	-0.530
2020/01/31 13:45:48.6	2.730	0.260	-0.580	-0.460
2020/01/31 13:45:48.7	2.690	0.280	-0.500	-0.390
2020/01/31 13:45:48.8	2.650	0.300	-0.420	-0.320
2020/01/31 13:45:48.9	2.600	0.320	-0.330	-0.250
2020/01/31 13:45:49.0	2.560	0.340	-0.250	-0.170
2020/01/31 13:45:49.1	2.510	0.350	-0.170	-0.100
2020/01/31 13:45:49.2	2.450	0.360	-0.100	-0.020
2020/01/31 13:45:49.3	2.400	0.370	-0.030	0.060
2020/01/31 13:45:49.4	2.350	0.370	0.040	0.130
2020/01/31 13:45:49.5	2.300	0.380	0.100	0.200
2020/01/31 13:45:49.6	2.240	0.380	0.150	0.280
2020/01/31 13:45:49.7	2.190	0.380	0.200	0.340
2020/01/31 13:45:49.8	2.150	0.380	0.240	0.410
2020/01/31 13:45:49.9	2.110	0.380	0.270	0.460
2020/01/31 13:45:50.0	2.070	0.380	0.290	0.510
2020/01/31 13:45:50.1	2.030	0.370	0.300	0.550
2020/01/31 13:45:50.2	2.010	0.370	0.300	0.590
2020/01/31 13:45:50.3	1.980	0.370	0.290	0.620
2020/01/31 13:45:50.4	1.960	0.360	0.270	0.640
2020/01/31 13:45:50.5	1.950	0.360	0.250	0.650
2020/01/31 13:45:50.6	1.950	0.360	0.210	0.660
2020/01/31 13:45:50.7	1.940	0.350	0.170	0.660
2020/01/31 13:45:50.8	1.940	0.350	0.120	0.650
2020/01/31 13:45:50.9	1.940	0.350	0.070	0.640
2020/01/31 13:45:51.0	1.940	0.350	0.010	0.620
2020/01/31 13:45:51.1	1.950	0.340	-0.050	0.600
2020/01/31 13:45:51.2	1.960	0.340	-0.110	0.570
2020/01/31 13:45:51.3	1.970	0.340	-0.180	0.540
2020/01/31 13:45:51.4	1.980	0.330	-0.240	0.500
2020/01/31 13:45:51.5	1.990	0.330	-0.300	0.470
2020/01/31 13:45:51.6	2.000	0.320	-0.360	0.430
2020/01/31 13:45:51.7	2.020	0.320	-0.410	0.390
2020/01/31 13:45:51.8	2.030	0.310	-0.460	0.340
2020/01/31 13:45:51.9	2.040	0.300	-0.500	0.300
2020/01/31 13:45:52.0	2.060	0.290	-0.540	0.250
2020/01/31 13:45:52.1	2.070	0.270	-0.570	0.210
2020/01/31 13:45:52.2	2.090	0.260	-0.590	0.160
2020/01/31 13:45:52.3	2.100	0.240	-0.610	0.110
2020/01/31 13:45:52.4	2.120	0.220	-0.620	0.060
2020/01/31 13:45:52.5	2.130	0.200	-0.620	0.010
2020/01/31 13:45:52.6	2.150	0.170	-0.610	-0.040
2020/01/31 13:45:52.7	2.170	0.150	-0.600	-0.090
2020/01/31 13:45:52.8	2.180	0.120	-0.580	-0.140
2020/01/31 13:45:52.9	2.190	0.090	-0.560	-0.180
2020/01/31 13:45:53.0	2.210	0.060	-0.530	-0.230
2020/01/31 13:45:53.1	2.220	0.030	-0.490	-0.270
2020/01/31 13:45:53.2	2.230	-0.010	-0.450	-0.320
2020/01/31 13:45:53.3	2.240	-0.040	-0.410	-0.360
2020/01/31 13:45:53.4	2.250	-0.080	-0.370	-0.400
2020/01/31 13:45:53.5	2.250	-0.120	-0.320	-0.430
2020/01/31 13:45:53.6	2.270	-0.150	-0.270	-0.470
2020/01/31 13:45:53.7	2.280	-0.190	-0.220	-0.500
2020/01/31 13:45:53.8	2.280	-0.230	-0.170	-0.530
2020/01/31 13:45:53.9	2.290	-0.270	-0.130	-0.570
2020/01/31 13:45:54.0	2.290	-0.300	-0.080	-0.590
2020/01/31 13:45:54.1	2.290	-0.340	-0.030	-0.620
2020/01/31 13:45:54.2	2.290	-0.370	0.010	-0.650
2020/01/31 13:45:54.3	2.300	-0.400	0.050	-0.670
2020/01/31 13:45:54.4	2.300	-0.430	0.100	-0.700
2020/01/31 13:45:54.5	2.300	-0.460	0.130	-0.720
2020/01/31 13:45:54.6	2.290	-0.490	0.170	-0.740
2020/01/31 13:45:54.7	2.290	-0.510	0.200	-0.760
2020/01/31 13:45:54.8	2.290	-0.530	0.230	-0.770
2020/01/31 13:45:54.9	2.290	-0.540	0.250	-0.790
2020/01/31 13:45:55.0	2.280	-0.550	0.270	-0.800
2020/01/31 13:45:55.1	2.280	-0.560	0.290	-0.810
2020/01/31 13:45:55.2	2.270	-0.570	0.300	-0.820
2020/01/31 13:45:55.3	2.260	-0.570	0.310	-0.820
2020/01/31 13:45:55.4	2.250	-0.560	0.320	-0.820
2020/01/31 13:45:55.5	2.240	-0.560	0.320	-0.820
2020/01/31 13:45:55.6	2.230	-0.550	0.320	-0.810
2020/01/31 13:45:55.7	2.210	-0.530	0.320	-0.810
2020/01/31 13:45:55.8	2.200	-0.510	0.310	-0.790
2020/01/31 13:45:55.9	2.180	-0.490	0.300	-0.780
2020/01/31 13:45:56.0	2.160	-0.470	0.290	-0.760
2020/01/31 13:45:56.1	2.140	-0.440	0.270	-0.740
2020/01/31 13:45:56.2	2.120	-0.420	0.250	-0.720
2020/01/31 13:45:56.3	2.100	-0.380	0.230	-0.690
2020/01/31 13:45:56.4	2.080	-0.350	0.210	-0.670
2020/01/31 13:45:56.5	2.060	-0.320	0.180	-0.640
2020/01/31 13:45:56.6	2.030	-0.280	0.150	-0.600
2020/01/31 13:45:56.7	2.000	-0.250	0.120	-0.570
2020/01/31 13:45:56.8	1.980	-0.210	0.090	-0.540
2020/01/31 13:45:56.9	1.950	-0.180	0.050	-0.510
2020/01/31 13:45:57.0	1.930	-0.140	0.020	-0.470
2020/01/31 13:45:57.1	1.900	-0.110	-0.020	-0.440
2020/01/31 13:45:57.2	1.880	-0.070	-0.050	-0.410
2020/01/31 13:45:57.3	1.850	-0.040	-0.090	-0.380
2020/01/31 13:45:57.4	1.830	-0.010	-0.120	-0.340
2020/01/31 13:45:57.5	1.810	0.020	-0.160	-0.310
2020/01/31 13:45:57.6	1.790	0.050	-0.200	-0.280
2020/01/31 13:45:57.7	1.760	0.080	-0.240	-0.250
2020/01/31 13:45:57.8	1.740	0.100	-0.270	-0.220
2020/01/31 13:45:57.9	1.720	0.120	-0.310	-0.190
2020/01/31 13:45:58.0	1.700	0.140	-0.340	-0.160
2020/01/31 13:45:58.1	1.680	0.160	-0.380	-0.130
2020/01/31 13:45:58.2	1.660	0.180	-0.410	-0.100
2020/01/31 13:45:58.3	1.640	0.190	-0.440	-0.070
2020/01/31 13:45:58.4	1.620	0.200	-0.470	-0.040
2020/01/31 13:45:58.5	1.600	0.210	-0.500	-0.010
2020/01/31 13:45:58.6	1.580	0.210	-0.530	0.020
2020/01/31 13:45:58.7	1.560	0.220	-0.550	0.050
2020/01/31 13:45:58.8	1.540	0.220	-0.570	0.080
2020/01/31 13:45:58.9	1.520	0.220	-0.590	0.100
2020/01/31 13:45:59.0	1.500	0.220	-0.600	0.130
2020/01/31 13:45:59.1	1.480	0.220	-0.610	0.160
2020/01/31 13:45:59.2	1.460	0.220	-0.620	0.190
2020/01/31 13:45:59.3	1.440	0.220	-0.620	0.220
2020/01/31 13:45:59.4	1.420	0.220	-0.620	0.240
2020/01/31 13:45:59.5	1.400	0.210	-0.620	0.270
2020/01/31 13:45:59.6	1.390	0.210	-0.610	0.300
2020/01/31 13:45:59.7	1.370	0.210	-0.600	0.330
2020/01/31 13:45:59.8	1.350	0.210	-0.590	0.350
2020/01/31 13:45:59.9	1.330	0.200	-0.570	0.380
2020/01/31 13:46:00.0	1.310	0.200	-0.560	0.400
2020/01/31 13:46:00.1	1.290	0.200	-0.540	0.430
2020/01/31 13:46:00.2	1.260	0.190	-0.510	0.450
2020/01/31 13:46:00.3	1.240	0.190	-0.490	0.480
2020/01/31 13:46:00.4	1.220	0.190	-0.460	0.500
2020/01/31 13:46:00.5	1.200	0.190	-0.440	0.520
2020/01/31 13:46:00.6	1.180	0.180	-0.420	0.540
2020/01/31 13:46:00.7	1.160	0.180	-0.390	0.550
2020/01/31 13:46:00.8	1.140	0.180	-0.370	0.570
2020/01/31 13:46:00.9	1.120	0.170	-0.350	0.580
2020/01/31 13:46:01.0	1.100	0.170	-0.320	0.590
2020/01/31 13:46:01.1	1.090	0.170	-0.310	0.590
2020/01/31 13:46:01.2	1.070	0.160	-0.290	0.600
2020/01/31 13:46:01.3	1.060	0.160	-0.280	0.590
2020/01/31 13:46:01.4	1.060	0.160	-0.270	0.590
2020/01/31 13:46:01.5	1.050	0.150	-0.260	0.580
2020/01/31 13:46:01.6	1.060	0.150	-0.260	0.570
2020/01/31 13:46:01.7	1.060	0.150	-0.260	0.550
2020/01/31 13:46:01.8	1.060	0.150	-0.260	0.530
2020/01/31 13:46:01.9	1.070	0.140	-0.270	0.500
2020/01/31 13:46:02.0	1.080	0.140	-0.280	0.470
2020/01/31 13:46:02.1	1.100	0.140	-0.300	0.430
2020/01/31 13:46:02.2	1.110	0.140	-0.320	0.400
2020/01/31 13:46:02.3	1.130	0.140	-0.340	0.360
2020/01/31 13:46:02.4	1.150	0.140	-0.370	0.310
2020/01/31 13:46:02.5	1.170	0.140	-0.390	0.270
2020/01/31 13:46:02.6	1.200	0.140	-0.420	0.220
2020/01/31 13:46:02.7	1.230	0.140	-0.450	0.170
2020/01/31 13:46:02.8	1.250	0.140	-0.480	0.120
2020/01/31 13:46:02.9	1.280	0.140	-0.520	0.070
2020/01/31 13:46:03.0	1.300	0.140	-0.550	0.020
2020/01/31 13:46:03.1	1.330	0.140	-0.570	-0.030
2020/01/31 13:46:03.2	1.360	0.140	-0.600	-0.080
2020/01/31 13:46:03.3	1.380	0.140	-0.630	-0.130
2020/01/31 13:46:03.4	1.410	0.140	-0.650	-0.180
2020/01/31 13:46:03.5	1.430	0.130	-0.660	-0.220
2020/01/31 13:46:03.6	1.460	0.130	-0.680	-0.270
2020/01/31 13:46:03.7	1.490	0.130	-0.690	-0.310
2020/01/31 13:46:03.8	1.510	0.120	-0.690	-0.350
2020/01/31 13:46:03.9	1.530	0.120	-0.690	-0.390
2020/01/31 13:46:04.0	1.540	0.110	-0.680	-0.420
2020/01/31 13:46:04.1	1.560	0.100	-0.670	-0.460
2020/01/31 13:46:04.2	1.570	0.090	-0.650	-0.490
2020/01/31 13:46:04.3	1.580	0.070	-0.620	-0.510
2020/01/31 13:46:04.4	1.590	0.060	-0.590	-0.530
2020/01/31 13:46:04.5	1.590	0.040	-0.560	-0.550
2020/01/31 13:46:04.6	1.600	0.020	-0.520	-0.560
2020/01/31 13:46:04.7	1.590	-0.000	-0.470	-0.560
2020/01/31 13:46:04.8	1.590	-0.020	-0.420	-0.560
2020/01/31 13:46:04.9	1.580	-0.050	-0.370	-0.560
2020/01/31 13:46:05.0	1.570	-0.080	-0.310	-0.560
2020/01/31 13:46:05.1	1.550	-0.100	-0.260	-0.540
2020/01/31 13:46:05.2	1.530	-0.130	-0.200	-0.530
2020/01/31 13:46:05.3	1.510	-0.160	-0.140	-0.510
2020/01/31 13:46:05.4	1.490	-0.190	-0.080	-0.490
2020/01/31 13:46:05.5	1.470	-0.220	-0.020	-0.470
2020/01/31 13:46:05.6	1.460	-0.260	0.040	-0.440
2020/01/31 13:46:05.7	1.430	-0.290	0.100	-0.420
2020/01/31 13:46:05.8	1.400	-0.320	0.160	-0.390
2020/01/31 13:46:05.9	1.370	-0.350	0.220	-0.360
2020/01/31 13:46:06.0	1.340	-0.390	0.270	-0.340
2020/01/31 13:46:06.1	1.310	-0.420	0.320	-0.310
2020/01/31 13:46:06.2	1.280	-0.440	0.370	-0.280
2020/01/31 13:46:06.3	1.250	-0.470	0.410	-0.260
2020/01/31 13:46:06.4	1.220	-0.500	0.450	-0.230
2020/01/31 13:46:06.5	1.190	-0.520	0.490	-0.210
2020/01/31 13:46:06.6	1.160	-0.540	0.510	-0.190
2020/01/31 13:46:06.7	1.130	-0.560	0.540	-0.170
2020/01/31 13:46:06.8	1.100	-0.570	0.560	-0.160
2020/01/31 13:46:06.9	1.070	-0.580	0.580	-0.140
2020/01/31 13:46:07.0	1.040	-0.580	0.590	-0.130
2020/01/31 13:46:07.1	1.020	-0.580	0.600	-0.120
2020/01/31 13:46:07.2	0.990	-0.580	0.600	-0.110
2020/01/31 13:46:07.3	0.960	-0.570	0.600	-0.090
2020/01/31 13:46:07.4	0.930	-0.550	0.600	-0.080
2020/01/31 13:46:07.5	0.910	-0.530	0.580	-0.070
2020/01/31 13:46:07.6	0.890	-0.510	0.570	-0.060
2020/01/31 13:46:07.7	0.860	-0.480	0.550	-0.050
2020/01/31 13:46:07.8	0.840	-0.440	0.520	-0.040
2020/01/31 13:46:07.9	0.820	-0.400	0.490	-0.020
2020/01/31 13:46:08.0	0.800	-0.350	0.460	-0.010
2020/01/31 13:46:08.1	0.770	-0.300	0.420	0.010
2020/01/31 13:46:08.2	0.750	-0.240	0.380	0.040
2020/01/31 13:46:08.3	0.730	-0.180	0.340	0.060
2020/01/31 13:46:08.4	0.720	-0.120	0.300	0.090
2020/01/31 13:46:08.5	0.700	-0.060	0.250	0.120
2020/01/31 13:46:08.6	0.680	0.010	0.200	0.150
2020/01/31 13:46:08.7	0.660	0.080	0.150	0.180
2020/01/31 13:46:08.8	0.640	0.150	0.100	0.220
2020/01/31 13:46:08.9	0.620	0.220	0.050	0.260
2020/01/31 13:46:09.0	0.600	0.290	0.000	0.300
2020/01/31 13:46:09.1	0.580	0.360	-0.050	0.350
2020/01/31 13:46:09.2	0.550	0.420	-0.090	0.390
2020/01/31 13:46:09.3	0.530	0.490	-0.140	0.440
2020/01/31 13:46:09.4	0.510	0.550	-0.180	0.480
2020/01/31 13:46:09.5	0.490	0.600	-0.220	0.530
2020/01/31 13:46:09.6	0.470	0.650	-0.260	0.590
2020/01/31 13:46:09.7	0.450	0.690	-0.300	0.630
2020/01/31 13:46:09.8	0.420	0.730	-0.330	0.680
2020/01/31 13:46:09.9	0.400	0.760	-0.370	0.730
2020/01/31 13:46:10.0	0.380	0.790	-0.390	0.770
2020/01/31 13:46:10.1	0.350	0.810	-0.420	0.820
2020/01/31 13:46:10.2	0.330	0.820	-0.440	0.860
2020/01/31 13:46:10.3	0.300	0.820	-0.470	0.900
2020/01/31 13:46:10.4	0.280	0.820	-0.490	0.940
2020/01/31 13:46:10.5	0.260	0.810	-0.500	0.970
2020/01/31 13:46:10.6	0.240	0.790	-0.530	1.010
2020/01/31 13:46:10.7	0.220	0.770	-0.540	1.030
2020/01/31 13:46:10.8	0.200	0.740	-0.560	1.060
2020/01/31 13:46:10.9	0.190	0.710	-0.570	1.080
2020/01/31 13:46:11.0	0.180	0.670	-0.590	1.090
2020/01/31 13:46:11.1	0.170	0.620	-0.610	1.100
2020/01/31 13:46:11.2	0.160	0.570	-0.630	1.100
2020/01/31 13:46:11.3	0.160	0.520	-0.640	1.100
2020/01/31 13:46:11.4	0.160	0.470	-0.660	1.100
2020/01/31 13:46:11.5	0.160	0.410	-0.680	1.080
2020/01/31 13:46:11.6	0.170	0.350	-0.710	1.070
2020/01/31 13:46:11.7	0.180	0.290	-0.730	1.050
2020/01/31 13:46:11.8	0.190	0.230	-0.750	1.020
2020/01/31 13:46:11.9	0.210	0.160	-0.780	0.980
2020/01/31 13:46:12.0	0.230	0.100	-0.800	0.940
2020/01/31 13:46:12.1	0.250	0.040	-0.830	0.890
2020/01/31 13:46:12.2	0.270	-0.020	-0.860	0.840
2020/01/31 13:46:12.3	0.300	-0.080	-0.880	0.780
2020/01/31 13:46:12.4	0.330	-0.140	-0.910	0.720
2020/01/31 13:46:12.5	0.370	-0.190	-0.930	0.650
2020/01/31 13:46:12.6	0.400	-0.240	-0.950	0.570
2020/01/31 13:46:12.7	0.430	-0.290	-0.970	0.500
2020/01/31 13:46:12.8	0.470	-0.340	-0.990	0.420
2020/01/31 13:46:12.9	0.500	-0.380	-1.000	0.340
2020/01/31 13:46:13.0	0.540	-0.420	-1.010	0.260
2020/01/31 13:46:13.1	0.580	-0.460	-1.020	0.170
2020/01/31 13:46:13.2	0.610	-0.490	-1.020	0.090
2020/01/31 13:46:13.3	0.650	-0.520	-1.010	0.000
2020/01/31 13:46:13.4	0.680	-0.540	-1.000	-0.080
2020/01/31 13:46:13.5	0.720	-0.570	-0.990	-0.170
2020/01/31 13:46:13.6	0.750	-0.580	-0.970	-0.250
2020/01/31 13:46:13.7	0.790	-0.600	-0.940	-0.330
2020/01/31 13:46:13.8	0.820	-0.610	-0.910	-0.410
2020/01/31 13:46:13.9	0.850	-0.610	-0.870	-0.480
2020/01/31 13:46:14.0	0.890	-0.620	-0.830	-0.560
2020/01/31 13:46:14.1	0.920	-0.620	-0.790	-0.630
2020/01/31 13:46:14.2	0.950	-0.610	-0.740	-0.700
2020/01/31 13:46:14.3	0.980	-0.610	-0.680	-0.760
2020/01/31 13:46:14.4	1.010	-0.600	-0.630	-0.820
2020/01/31 13:46:14.5	1.050	-0.580	-0.570	-0.880
2020/01/31 13:46:14.6	1.080	-0.570	-0.510	-0.930
2020/01/31 13:46:14.7	1.110	-0.550	-0.450	-0.990
2020/01/31 13:46:14.8	1.140	-0.530	-0.390	-1.040
2020/01/31 13:46:14.9	1.170	-0.510	-0.330	-1.080
2020/01/31 13:46:15.0	1.200	-0.490	-0.270	-1.130
2020/01/31 13:46:15.1	1.230	-0.460	-0.210	-1.170
2020/01/31 13:46:15.2	1.250	-0.430	-0.150	-1.200
2020/01/31 13:46:15.3	1.280	-0.400	-0.090	-1.230
2020/01/31 13:46:15.4	1.300	-0.380	-0.040	-1.260
2020/01/31 13:46:15.5	1.320	-0.350	0.020	-1.290
2020/01/31 13:46:15.6	1.340	-0.320	0.070	-1.300
2020/01/31 13:46:15.7	1.350	-0.280	0.120	-1.320
2020/01/31 13:46:15.8	1.360	-0.250	0.160	-1.330
2020/01/31 13:46:15.9	1.360	-0.220	0.210	-1.330
2020/01/31 13:46:16.0	1.370	-0.190	0.250	-1.330
2020/01/31 13:46:16.1	1.360	-0.160	0.280	-1.320
2020/01/31 13:46:16.2	1.360	-0.130	0.320	-1.300
2020/01/31 13:46:16.3	1.350	-0.110	0.350	-1.290
2020/01/31 13:46:16.4	1.330	-0.080	0.380	-1.260
2020/01/31 13:46:16.5	1.310	-0.050	0.400	-1.230
2020/01/31 13:46:16.6	1.300	-0.030	0.420	-1.200
2020/01/31 13:46:16.7	1.270	-0.010	0.440	-1.160
2020/01/31 13:46:16.8	1.240	0.010	0.450	-1.120
2020/01/31 13:46:16.9	1.210	0.030	0.470	-1.070
2020/01/31 13:46:17.0	1.180	0.050	0.480	-1.030
2020/01/31 13:46:17.1	1.140	0.070	0.480	-0.980
2020/01/31 13:46:17.2	1.100	0.080	0.480	-0.920
2020/01/31 13:46:17.3	1.060	0.090	0.480	-0.870
2020/01/31 13:46:17.4	1.010	0.100	0.480	-0.810
2020/01/31 13:46:17.5	0.970	0.110	0.470	-0.760
2020/01/31 13:46:17.6	0.930	0.120	0.460	-0.690
2020/01/31 13:46:17.7	0.880	0.120	0.450	-0.630
2020/01/31 13:46:17.8	0.830	0.120	0.430	-0.570
2020/01/31 13:46:17.9	0.780	0.130	0.410	-0.520
2020/01/31 13:46:18.0	0.730	0.130	0.390	-0.460
2020/01/31 13:46:18.1	0.680	0.130	0.370	-0.400
2020/01/31 13:46:18.2	0.640	0.120	0.350	-0.340
2020/01/31 13:46:18.3	0.590	0.120	0.320	-0.280
2020/01/31 13:46:18.4	0.540	0.120	0.290	-0.230
2020/01/31 13:46:18.5	0.500	0.110	0.260	-0.170
2020/01/31 13:46:18.6	0.450	0.110	0.230	-0.120
2020/01/31 13:46:18.7	0.410	0.100	0.200	-0.070
2020/01/31 13:46:18.8	0.370	0.100	0.170	-0.010
2020/01/31 13:46:18.9	0.330	0.090	0.140	0.040
2020/01/31 13:46:19.0	0.290	0.090	0.100	0.080
2020/01/31 13:46:19.1	0.250	0.080	0.070	0.130
2020/01/31 13:46:19.2	0.210	0.080	0.040	0.170
2020/01/31 13:46:19.3	0.180	0.080	0.010	0.210
2020/01/31 13:46:19.4	0.140	0.070	-0.020	0.250
2020/01/31 13:46:19.5	0.110	0.070	-0.050	0.290
2020/01/31 13:46:19.6	0.090	0.070	-0.080	0.330
2020/01/31 13:46:19.7	0.060	0.070	-0.100	0.370
2020/01/31 13:46:19.8	0.030	0.070	-0.130	0.400
2020/01/31 13:46:19.9	0.000	0.070	-0.150	0.430
2020/01/31 13:46:20.0	359.970	0.070	-0.170	0.450
2020/01/31 13:46:20.1	359.950	0.070	-0.190	0.480
2020/01/31 13:46:20.2	359.920	0.080	-0.210	0.500
2020/01/31 13:46:20.3	359.890	0.080	-0.220	0.520
2020/01/31 13:46:20.4	359.870	0.080	-0.240	0.540
2020/01/31 13:46:20.5	359.850	0.090	-0.250	0.560
2020/01/31 13:46:20.6	359.820	0.090	-0.260	0.570
2020/01/31 13:46:20.7	359.800	0.090	-0.280	0.580
2020/01/31 13:46:20.8	359.780	0.100	-0.290	0.590
2020/01/31 13:46:20.9	359.770	0.100	-0.300	0.590
2020/01/31 13:46:21.0	359.760	0.110	-0.310	0.600
2020/01/31 13:46:21.1	359.750	0.110	-0.320	0.590
2020/01/31 13:46:21.2	359.750	0.120	-0.340	0.590
2020/01/31 13:46:21.3	359.750	0.120	-0.360	0.580
2020/01/31 13:46:21.4	359.750	0.130	-0.370	0.570
2020/01/31 13:46:21.5	359.760	0.140	-0.390	0.560
2020/01/31 13:46:21.6	359.760	0.140	-0.420	0.540
2020/01/31 13:46:21.7	359.780	0.150	-0.440	0.510
2020/01/31 13:46:21.8	359.800	0.160	-0.470	0.490
2020/01/31 13:46:21.9	359.820	0.170	-0.500	0.460
2020/01/31 13:46:22.0	359.850	0.180	-0.540	0.430
2020/01/31 13:46:22.1	359.880	0.180	-0.570	0.390
2020/01/31 13:46:22.2	359.910	0.190	-0.610	0.360
2020/01/31 13:46:22.3	359.940	0.200	-0.650	0.320
2020/01/31 13:46:22.4	359.970	0.210	-0.680	0.290
2020/01/31 13:46:22.5	0.010	0.220	-0.720	0.250
2020/01/31 13:46:22.6	0.040	0.220	-0.760	0.210
2020/01/31 13:46:22.7	0.070	0.230	-0.790	0.180
2020/01/31 13:46:22.8	0.110	0.240	-0.830	0.140
2020/01/31 13:46:22.9	0.140	0.240	-0.860	0.100
2020/01/31 13:46:23.0	0.180	0.240	-0.890	0.060
2020/01/31 13:46:23.1	0.220	0.250	-0.920	0.020
2020/01/31 13:46:23.2	0.250	0.250	-0.940	-0.010
2020/01/31 13:46:23.3	0.290	0.250	-0.960	-0.050
2020/01/31 13:46:23.4	0.320	0.240	-0.980	-0.090
2020/01/31 13:46:23.5	0.350	0.240	-0.990	-0.120
2020/01/31 13:46:23.6	0.380	0.230	-0.990	-0.160
2020/01/31 13:46:23.7	0.410	0.230	-0.990	-0.190
2020/01/31 13:46:23.8	0.440	0.220	-0.980	-0.220
2020/01/31 13:46:23.9	0.470	0.200	-0.970	-0.250
2020/01/31 13:46:24.0	0.490	0.190	-0.950	-0.280
2020/01/31 13:46:24.1	0.510	0.180	-0.930	-0.310
2020/01/31 13:46:24.2	0.540	0.160	-0.900	-0.330
2020/01/31 13:46:24.3	0.550	0.140	-0.870	-0.360
2020/01/31 13:46:24.4	0.570	0.120	-0.840	-0.380
2020/01/31 13:46:24.5	0.580	0.090	-0.790	-0.400
2020/01/31 13:46:24.6	0.590	0.070	-0.750	-0.420
2020/01/31 13:46:24.7	0.600	0.040	-0.700	-0.440
2020/01/31 13:46:24.8	0.610	0.010	-0.650	-0.460
2020/01/31 13:46:24.9	0.610	-0.020	-0.590	-0.480
2020/01/31 13:46:25.0	0.610	-0.060	-0.530	-0.500
2020/01/31 13:46:25.1	0.610	-0.090	-0.470	-0.520
2020/01/31 13:46:25.2	0.610	-0.120	-0.410	-0.540
2020/01/31 13:46:25.3	0.600	-0.160	-0.340	-0.560
2020/01/31 13:46:25.4	0.600	-0.200	-0.280	-0.570
2020/01/31 13:46:25.5	0.590	-0.230	-0.210	-0.590
2020/01/31 13:46:25.6	0.590	-0.270	-0.150	-0.600
2020/01/31 13:46:25.7	0.580	-0.310	-0.080	-0.610
2020/01/31 13:46:25.8	0.570	-0.340	-0.020	-0.630
2020/01/31 13:46:25.9	0.550	-0.380	0.040	-0.640
2020/01/31 13:46:26.0	0.540	-0.410	0.100	-0.650
2020/01/31 13:46:26.1	0.530	-0.440	0.150	-0.650
2020/01/31 13:46:26.2	0.510	-0.470	0.200	-0.660
2020/01/31 13:46:26.3	0.500	-0.500	0.250	-0.660
2020/01/31 13:46:26.4	0.480	-0.520	0.290	-0.670
2020/01/31 13:46:26.5	0.460	-0.550	0.330	-0.670
2020/01/31 13:46:26.6	0.450	-0.570	0.360	-0.670
2020/01/31 13:46:26.7	0.430	-0.580	0.390	-0.670
2020/01/31 13:46:26.8	0.410	-0.590	0.420	-0.660
2020/01/31 13:46:26.9	0.400	-0.600	0.440	-0.660
2020/01/31 13:46:27.0	0.380	-0.610	0.450	-0.650
2020/01/31 13:46:27.1	0.360	-0.610	0.460	-0.640
2020/01/31 13:46:27.2	0.340	-0.610	0.460	-0.640
2020/01/31 13:46:27.3	0.320	-0.600	0.460	-0.630
2020/01/31 13:46:27.4	0.300	-0.590	0.460	-0.620
2020/01/31 13:46:27.5	0.280	-0.580	0.450	-0.610
2020/01/31 13:46:27.6	0.260	-0.560	0.430	-0.600
2020/01/31 13:46:27.7	0.240	-0.540	0.420	-0.590
2020/01/31 13:46:27.8	0.220	-0.520	0.400	-0.570
2020/01/31 13:46:27.9	0.190	-0.490	0.370	-0.560
2020/01/31 13:46:28.0	0.170	-0.460	0.350	-0.550
2020/01/31 13:46:28.1	0.140	-0.430	0.320	-0.530
2020/01/31 13:46:28.2	0.110	-0.390	0.290	-0.510
2020/01/31 13:46:28.3	0.080	-0.350	0.250	-0.500
2020/01/31 13:46:28.4	0.060	-0.310	0.220	-0.480
2020/01/31 13:46:28.5	0.030	-0.270	0.180	-0.460
2020/01/31 13:46:28.6	359.990	-0.230	0.150	-0.430
2020/01/31 13:46:28.7	359.970	-0.180	0.110	-0.410
2020/01/31 13:46:28.8	359.940	-0.140	0.070	-0.380
2020/01/31 13:46:28.9	359.910	-0.090	0.030	-0.350
2020/01/31 13:46:29.0	359.880	-0.040	-0.010	-0.320
2020/01/31 13:46:29.1	359.850	0.000	-0.040	-0.290
2020/01/31 13:46:29.2	359.820	0.050	-0.080	-0.250
2020/01/31 13:46:29.3	359.790	0.090	-0.120	-0.210
2020/01/31 13:46:29.4	359.760	0.140	-0.160	-0.170
2020/01/31 13:46:29.5	359.740	0.180	-0.190	-0.130
2020/01/31 13:46:29.6	359.700	0.220	-0.230	-0.090
2020/01/31 13:46:29.7	359.680	0.260	-0.260	-0.040
2020/01/31 13:46:29.8	359.650	0.300	-0.290	0.000
2020/01/31 13:46:29.9	359.620	0.330	-0.320	0.050
2020/01/31 13:46:30.0	359.600	0.360	-0.350	0.090
2020/01/31 13:46:30.1	359.580	0.390	-0.380	0.140
2020/01/31 13:46:30.2	359.560	0.420	-0.400	0.180
2020/01/31 13:46:30.3	359.540	0.440	-0.420	0.230
2020/01/31 13:46:30.4	359.520	0.470	-0.440	0.270
2020/01/31 13:46:30.5	359.500	0.490	-0.460	0.310
2020/01/31 13:46:30.6	359.480	0.500	-0.480	0.350
2020/01/31 13:46:30.7	359.470	0.510	-0.500	0.390
2020/01/31 13:46:30.8	359.460	0.520	-0.510	0.430
2020/01/31 13:46:30.9	359.460	0.530	-0.520	0.460
2020/01/31 13:46:31.0	359.450	0.530	-0.530	0.490
2020/01/31 13:46:31.1	359.450	0.530	-0.540	0.510
2020/01/31 13:46:31.2	359.450	0.530	-0.540	0.540
2020/01/31 13:46:31.3	359.450	0.530	-0.540	0.560
2020/01/31 13:46:31.4	359.450	0.520	-0.540	0.580
2020/01/31 13:46:31.5	359.460	0.510	-0.540	0.590
2020/01/31 13:46:31.6	359.480	0.490	-0.540	0.610
2020/01/31 13:46:31.7	359.490	0.480	-0.530	0.620
2020/01/31 13:46:31.8	359.500	0.460	-0.520	0.620
2020/01/31 13:46:31.9	359.520	0.440	-0.510	0.630
2020/01/31 13:46:32.0	359.530	0.420	-0.490	0.630
2020/01/31 13:46:32.1	359.550	0.390	-0.480	0.630
2020/01/31 13:46:32.2	359.570	0.370	-0.460	0.630
2020/01/31 13:46:32.3	359.600	0.340	-0.440	0.630
2020/01/31 13:46:32.4	359.620	0.310	-0.410	0.620
2020/01/31 13:46:32.5	359.650	0.280	-0.390	0.610
2020/01/31 13:46:32.6	359.670	0.250	-0.360	0.600
2020/01/31 13:46:32.7	359.700	0.220	-0.340	0.590
2020/01/31 13:46:32.8	359.730	0.190	-0.310	0.580
2020/01/31 13:46:32.9	359.760	0.150	-0.270	0.570
2020/01/31 13:46:33.0	359.790	0.120	-0.240	0.560
2020/01/31 13:46:33.1	359.810	0.090	-0.210	0.540
2020/01/31 13:46:33.2	359.840	0.050	-0.180	0.530
2020/01/31 13:46:33.3	359.870	0.020	-0.150	0.510
2020/01/31 13:46:33.4	359.900	-0.010	-0.110	0.500
2020/01/31 13:46:33.5	359.920	-0.050	-0.080	0.480
2020/01/31 13:46:33.6	359.940	-0.080	-0.060	0.470
2020/01/31 13:46:33.7	359.970	-0.110	-0.030	0.450
2020/01/31 13:46:33.8	359.990	-0.140	-0.010	0.430
2020/01/31 13:46:33.9	0.010	-0.170	0.020	0.410
2020/01/31 13:46:34.0	0.040	-0.190	0.040	0.390
2020/01/31 13:46:34.1	0.060	-0.220	0.050	0.370
2020/01/31 13:46:34.2	0.080	-0.240	0.060	0.350
2020/01/31 13:46:34.3	0.100	-0.260	0.070	0.320
2020/01/31 13:46:34.4	0.110	-0.270	0.080	0.290
2020/01/31 13:46:34.5	0.130	-0.290	0.080	0.260
2020/01/31 13:46:34.6	0.160	-0.300	0.070	0.230
2020/01/31 13:46:34.7	0.170	-0.310	0.060	0.200
2020/01/31 13:46:34.8	0.190	-0.320	0.050	0.160
2020/01/31 13:46:34.9	0.210	-0.320	0.030	0.130
2020/01/31 13:46:35.0	0.230	-0.330	0.000	0.090
2020/01/31 13:46:35.1	0.240	-0.330	-0.020	0.050
2020/01/31 13:46:35.2	0.260	-0.320	-0.060	0.000
2020/01/31 13:46:35.3	0.280	-0.320	-0.090	-0.040
2020/01/31 13:46:35.4	0.290	-0.310	-0.130	-0.090
2020/01/31 13:46:35.5	0.310	-0.300	-0.180	-0.140
2020/01/31 13:46:35.6	0.320	-0.290	-0.220	-0.180
2020/01/31 13:46:35.7	0.340	-0.280	-0.270	-0.230
2020/01/31 13:46:35.8	0.360	-0.270	-0.320	-0.290
2020/01/31 13:46:35.9	0.370	-0.250	-0.370	-0.340
2020/01/31 13:46:36.0	0.390	-0.240	-0.420	-0.390
2020/01/31 13:46:36.1	0.400	-0.220	-0.470	-0.440
2020/01/31 13:46:36.2	0.420	-0.210	-0.510	-0.490
2020/01/31 13:46:36.3	0.430	-0.190	-0.560	-0.550
2020/01/31 13:46:36.4	0.450	-0.170	-0.600	-0.600
2020/01/31 13:46:36.5	0.460	-0.160	-0.640	-0.650
2020/01/31 13:46:36.6	0.480	-0.140	-0.680	-0.690
2020/01/31 13:46:36.7	0.490	-0.120	-0.710	-0.740
2020/01/31 13:46:36.8	0.500	-0.110	-0.730	-0.780
2020/01/31 13:46:36.9	0.510	-0.100	-0.750	-0.820
2020/01/31 13:46:37.0	0.520	-0.080	-0.770	-0.850
2020/01/31 13:46:37.1	0.530	-0.070	-0.770	-0.890
2020/01/31 13:46:37.2	0.530	-0.060	-0.780	-0.910
2020/01/31 13:46:37.3	0.540	-0.050	-0.770	-0.940
2020/01/31 13:46:37.4	0.540	-0.040	-0.760	-0.960
2020/01/31 13:46:37.5	0.540	-0.040	-0.740	-0.970
2020/01/31 13:46:37.6	0.540	-0.030	-0.720	-0.990
2020/01/31 13:46:37.7	0.530	-0.030	-0.690	-0.990
2020/01/31 13:46:37.8	0.530	-0.030	-0.650	-1.000
2020/01/31 13:46:37.9	0.520	-0.030	-0.610	-1.000
2020/01/31 13:46:38.0	0.510	-0.030	-0.560	-1.000
2020/01/31 13:46:38.1	0.500	-0.030	-0.510	-0.990
2020/01/31 13:46:38.2	0.480	-0.040	-0.450	-0.980
2020/01/31 13:46:38.3	0.470	-0.040	-0.390	-0.970
2020/01/31 13:46:38.4	0.450	-0.050	-0.330	-0.960
2020/01/31 13:46:38.5	0.430	-0.060	-0.260	-0.940
2020/01/31 13:46:38.6	0.430	-0.070	-0.200	-0.920
2020/01/31 13:46:38.7	0.410	-0.080	-0.130	-0.890
2020/01/31 13:46:38.8	0.380	-0.090	-0.060	-0.870
2020/01/31 13:46:38.9	0.360	-0.100	0.000	-0.850
2020/01/31 13:46:39.0	0.340	-0.100	0.070	-0.820
2020/01/31 13:46:39.1	0.310	-0.110	0.140	-0.790
2020/01/31 13:46:39.2	0.290	-0.120	0.200	-0.760
2020/01/31 13:46:39.3	0.260	-0.130	0.260	-0.720
2020/01/31 13:46:39.4	0.240	-0.130	0.310	-0.690
2020/01/31 13:46:39.5	0.210	-0.130	0.360	-0.650
2020/01/31 13:46:39.6	0.180	-0.140	0.410	-0.610
2020/01/31 13:46:39.7	0.150	-0.140	0.450	-0.570
2020/01/31 13:46:39.8	0.130	-0.130	0.480	-0.530
2020/01/31 13:46:39.9	0.110	-0.130	0.500	-0.490
2020/01/31 13:46:40.0	0.080	-0.120	0.520	-0.450
2020/01/31 13:46:40.1	0.060	-0.110	0.530	-0.400
2020/01/31 13:46:40.2	0.030	-0.100	0.540	-0.360
2020/01/31 13:46:40.3	0.010	-0.090	0.540	-0.310
2020/01/31 13:46:40.4	359.990	-0.070	0.530	-0.270
2020/01/31 13:46:40.5	359.970	-0.060	0.510	-0.220
2020/01/31 13:46:40.6	359.960	-0.040	0.490	-0.170
2020/01/31 13:46:40.7	359.950	-0.010	0.460	-0.130
2020/01/31 13:46:40.8	359.930	0.010	0.420	-0.090
2020/01/31 13:46:40.9	359.920	0.030	0.380	-0.060
2020/01/31 13:46:41.0	359.910	0.060	0.330	-0.020
2020/01/31 13:46:41.1	359.910	0.090	0.280	0.010
2020/01/31 13:46:41.2	359.900	0.120	0.220	0.030
2020/01/31 13:46:41.3	359.900	0.150	0.160	0.060
2020/01/31 13:46:41.4	359.900	0.180	0.090	0.070
2020/01/31 13:46:41.5	359.910	0.210	0.020	0.090
2020/01/31 13:46:41.6	359.920	0.240	-0.050	0.100
2020/01/31 13:46:41.7	359.930	0.270	-0.130	0.110
2020/01/31 13:46:41.8	359.940	0.300	-0.200	0.110
2020/01/31 13:46:41.9	359.960	0.320	-0.280	0.110
2020/01/31 13:46:42.0	359.970	0.350	-0.350	0.100
2020/01/31 13:46:42.1	359.990	0.380	-0.420	0.090
2020/01/31 13:46:42.2	0.010	0.400	-0.490	0.090
2020/01/31 13:46:42.3	0.030	0.420	-0.560	0.080
2020/01/31 13:46:42.4	0.050	0.440	-0.620	0.070
2020/01/31 13:46:42.5	0.080	0.450	-0.680	0.060
2020/01/31 13:46:42.6	0.100	0.470	-0.730	0.050
2020/01/31 13:46:42.7	0.120	0.470	-0.780	0.040
2020/01/31 13:46:42.8	0.150	0.480	-0.820	0.040
2020/01/31 13:46:42.9	0.170	0.480	-0.860	0.030
2020/01/31 13:46:43.0	0.200	0.480	-0.890	0.020
2020/01/31 13:46:43.1	0.230	0.470	-0.910	0.020
2020/01/31 13:46:43.2	0.260	0.460	-0.930	0.020
2020/01/31 13:46:43.3	0.280	0.450	-0.940	0.010
2020/01/31 13:46:43.4	0.310	0.430	-0.950	0.010
2020/01/31 13:46:43.5	0.340	0.410	-0.950	0.010
2020/01/31 13:46:43.6	0.370	0.390	-0.940	0.010
2020/01/31 13:46:43.7	0.410	0.360	-0.930	0.010
2020/01/31 13:46:43.8	0.440	0.330	-0.920	0.010
2020/01/31 13:46:43.9	0.470	0.290	-0.890	0.010
2020/01/31 13:46:44.0	0.500	0.260	-0.870	0.010
2020/01/31 13:46:44.1	0.530	0.220	-0.840	0.010
2020/01/31 13:46:44.2	0.560	0.180	-0.810	0.010
2020/01/31 13:46:44.3	0.590	0.130	-0.770	0.000
2020/01/31 13:46:44.4	0.620	0.090	-0.730	-0.000
2020/01/31 13:46:44.5	0.650	0.040	-0.690	-0.010
2020/01/31 13:46:44.6	0.680	-0.000	-0.650	-0.020
2020/01/31 13:46:44.7	0.710	-0.050	-0.600	-0.020
2020/01/31 13:46:44.8	0.730	-0.090	-0.550	-0.030
2020/01/31 13:46:44.9	0.760	-0.140	-0.510	-0.040
2020/01/31 13:46:45.0	0.780	-0.180	-0.460	-0.060
2020/01/31 13:46:45.1	0.800	-0.230	-0.410	-0.070
2020/01/31 13:46:45.2	0.830	-0.270	-0.360	-0.080
2020/01/31 13:46:45.3	0.850	-0.300	-0.310	-0.090
2020/01/31 13:46:45.4	0.870	-0.340	-0.270	-0.110
2020/01/31 13:46:45.5	0.880	-0.370	-0.220	-0.120
2020/01/31 13:46:45.6	0.900	-0.400	-0.180	-0.140
2020/01/31 13:46:45.7	0.920	-0.420	-0.150	-0.160
2020/01/31 13:46:45.8	0.940	-0.450	-0.110	-0.180
2020/01/31 13:46:45.9	0.960	-0.460	-0.080	-0.200
2020/01/31 13:46:46.0	0.980	-0.480	-0.050	-0.220
2020/01/31 13:46:46.1	1.000	-0.490	-0.020	-0.240
2020/01/31 13:46:46.2	1.020	-0.500	0.000	-0.270
2020/01/31 13:46:46.3	1.030	-0.500	0.020	-0.290
2020/01/31 13:46:46.4	1.050	-0.500	0.040	-0.320
2020/01/31 13:46:46.5	1.070	-0.500	0.050	-0.350
2020/01/31 13:46:46.6	1.090	-0.500	0.060	-0.380
2020/01/31 13:46:46.7	1.110	-0.490	0.070	-0.400
2020/01/31 13:46:46.8	1.120	-0.480	0.080	-0.430
2020/01/31 13:46:46.9	1.130	-0.470	0.080	-0.460
2020/01/31 13:46:47.0	1.140	-0.460	0.090	-0.490
2020/01/31 13:46:47.1	1.140	-0.450	0.090	-0.510
2020/01/31 13:46:47.2	1.150	-0.430	0.100	-0.540
2020/01/31 13:46:47.3	1.140	-0.420	0.110	-0.560
2020/01/31 13:46:47.4	1.140	-0.400	0.110	-0.580
2020/01/31 13:46:47.5	1.130	-0.390	0.120	-0.600
2020/01/31 13:46:47.6	1.120	-0.370	0.120	-0.610
2020/01/31 13:46:47.7	1.110	-0.360	0.130	-0.630
2020/01/31 13:46:47.8	1.090	-0.340	0.140	-0.640
2020/01/31 13:46:47.9	1.070	-0.330	0.150	-0.660
2020/01/31 13:46:48.0	1.040	-0.320	0.160	-0.660
2020/01/31 13:46:48.1	1.010	-0.310	0.180	-0.670
2020/01/31 13:46:48.2	0.980	-0.290	0.190	-0.670
2020/01/31 13:46:48.3	0.950	-0.280	0.210	-0.670
2020/01/31 13:46:48.4	0.910	-0.270	0.230	-0.670
2020/01/31 13:46:48.5	0.880	-0.260	0.240	-0.670
2020/01/31 13:46:48.6	0.840	-0.250	0.260	-0.660
2020/01/31 13:46:48.7	0.800	-0.250	0.280	-0.650
2020/01/31 13:46:48.8	0.750	-0.240	0.290	-0.630
2020/01/31 13:46:48.9	0.710	-0.230	0.310	-0.610
2020/01/31 13:46:49.0	0.670	-0.220	0.320	-0.590
2020/01/31 13:46:49.1	0.630	-0.210	0.330	-0.570
2020/01/31 13:46:49.2	0.590	-0.200	0.340	-0.550
2020/01/31 13:46:49.3	0.550	-0.190	0.340	-0.520
2020/01/31 13:46:49.4	0.510	-0.170	0.340	-0.490
2020/01/31 13:46:49.5	0.470	-0.160	0.340	-0.460
2020/01/31 13:46:49.6	0.430	-0.140	0.330	-0.420
2020/01/31 13:46:49.7	0.390	-0.130	0.310	-0.390
2020/01/31 13:46:49.8	0.350	-0.110	0.300	-0.350
2020/01/31 13:46:49.9	0.310	-0.090	0.280	-0.320
2020/01/31 13:46:50.0	0.280	-0.070	0.250	-0.280
2020/01/31 13:46:50.1	0.250	-0.050	0.220	-0.250
2020/01/31 13:46:50.2	0.210	-0.020	0.190	-0.220
2020/01/31 13:46:50.3	0.180	0.010	0.150	-0.180
2020/01/31 13:46:50.4	0.150	0.040	0.110	-0.150
2020/01/31 13:46:50.5	0.130	0.070	0.060	-0.120
2020/01/31 13:46:50.6	0.090	0.100	0.010	-0.090
2020/01/31 13:46:50.7	0.070	0.130	-0.040	-0.060
2020/01/31 13:46:50.8	0.050	0.170	-0.090	-0.030
2020/01/31 13:46:50.9	0.030	0.200	-0.150	-0.010
2020/01/31 13:46:51.0	0.020	0.240	-0.210	0.020
2020/01/31 13:46:51.1	0.000	0.280	-0.260	0.040
2020/01/31 13:46:51.2	359.990	0.320	-0.320	0.060
2020/01/31 13:46:51.3	359.990	0.360	-0.380	0.080
2020/01/31 13:46:51.4	359.980	0.400	-0.440	0.110
2020/01/31 13:46:51.5	359.980	0.450	-0.500	0.130
2020/01/31 13:46:51.6	359.980	0.490	-0.550	0.150
2020/01/31 13:46:51.7	359.990	0.530	-0.610	0.170
2020/01/31 13:46:51.8	359.990	0.570	-0.660	0.180
2020/01/31 13:46:51.9	0.000	0.610	-0.710	0.200
2020/01/31 13:46:52.0	0.010	0.650	-0.760	0.220
2020/01/31 13:46:52.1	0.020	0.690	-0.800	0.230
2020/01/31 13:46:52.2	0.040	0.730	-0.840	0.250
2020/01/31 13:46:52.3	0.050	0.760	-0.880	0.260
2020/01/31 13:46:52.4	0.070	0.790	-0.910	0.280
2020/01/31 13:46:52.5	0.090	0.820	-0.940	0.290
2020/01/31 13:46:52.6	0.100	0.840	-0.970	0.300
2020/01/31 13:46:52.7	0.120	0.860	-0.990	0.310
2020/01/31 13:46:52.8	0.150	0.870	-1.010	0.310
2020/01/31 13:46:52.9	0.170	0.880	-1.020	0.320
2020/01/31 13:46:53.0	0.190	0.890	-1.030	0.320
2020/01/31 13:46:53.1	0.220	0.890	-1.040	0.310
2020/01/31 13:46:53.2	0.240	0.890	-1.040	0.310
2020/01/31 13:46:53.3	0.270	0.880	-1.030	0.300
2020/01/31 13:46:53.4	0.300	0.870	-1.030	0.280
2020/01/31 13:46:53.5	0.320	0.850	-1.010	0.270
2020/01/31 13:46:53.6	0.350	0.820	-1.000	0.250
2020/01/31 13:46:53.7	0.380	0.790	-0.980	0.230
2020/01/31 13:46:53.8	0.410	0.760	-0.950	0.200
2020/01/31 13:46:53.9	0.440	0.720	-0.930	0.180
2020/01/31 13:46:54.0	0.460	0.670	-0.900	0.150
2020/01/31 13:46:54.1	0.490	0.620	-0.870	0.120
2020/01/31 13:46:54.2	0.520	0.570	-0.830	0.090
2020/01/31 13:46:54.3	0.540	0.510	-0.790	0.060
2020/01/31 13:46:54.4	0.570	0.450	-0.750	0.030
2020/01/31 13:46:54.5	0.590	0.390	-0.710	-0.010
2020/01/31 13:46:54.6	0.620	0.320	-0.670	-0.040
2020/01/31 13:46:54.7	0.650	0.250	-0.620	-0.070
2020/01/31 13:46:54.8	0.670	0.180	-0.570	-0.110
2020/01/31 13:46:54.9	0.700	0.110	-0.530	-0.150
2020/01/31 13:46:55.0	0.720	0.030	-0.480	-0.190
2020/01/31 13:46:55.1	0.750	-0.040	-0.430	-0.220
2020/01/31 13:46:55.2	0.770	-0.110	-0.380	-0.260
2020/01/31 13:46:55.3	0.800	-0.190	-0.330	-0.300
2020/01/31 13:46:55.4	0.820	-0.260	-0.280	-0.340
2020/01/31 13:46:55.5	0.840	-0.330	-0.240	-0.380
2020/01/31 13:46:55.6	0.860	-0.400	-0.190	-0.420
2020/01/31 13:46:55.7	0.890	-0.470	-0.140	-0.460
2020/01/31 13:46:55.8	0.910	-0.530	-0.100	-0.500
2020/01/31 13:46:55.9	0.940	-0.590	-0.060	-0.540
2020/01/31 13:46:56.0	0.970	-0.640	-0.020	-0.580
2020/01/31 13:46:56.1	0.990	-0.700	0.020	-0.620
2020/01/31 13:46:56.2	1.020	-0.740	0.060	-0.660
2020/01/31 13:46:56.3	1.050	-0.790	0.090	-0.690
2020/01/31 13:46:56.4	1.070	-0.830	0.120	-0.730
2020/01/31 13:46:56.5	1.100	-0.860	0.150	-0.770
2020/01/31 13:46:56.6	1.130	-0.890	0.180	-0.800
2020/01/31 13:46:56.7	1.160	-0.910	0.200	-0.830
2020/01/31 13:46:56.8	1.180	-0.930	0.230	-0.860
2020/01/31 13:46:56.9	1.210	-0.940	0.250	-0.890
2020/01/31 13:46:57.0	1.240	-0.950	0.270	-0.910
2020/01/31 13:46:57.1	1.260	-0.950	0.280	-0.930
2020/01/31 13:46:57.2	1.280	-0.950	0.300	-0.950
2020/01/31 13:46:57.3	1.300	-0.940	0.310	-0.970
2020/01/31 13:46:57.4	1.320	-0.930	0.320	-0.980
2020/01/31 13:46:57.5	1.340	-0.920	0.330	-0.990
2020/01/31 13:46:57.6	1.360	-0.900	0.340	-1.000
2020/01/31 13:46:57.7	1.370	-0.880	0.350	-1.000
2020/01/31 13:46:57.8	1.380	-0.850	0.360	-1.010
2020/01/31 13:46:57.9	1.390	-0.820	0.370	-1.000
2020/01/31 13:46:58.0	1.390	-0.790	0.370	-1.000
2020/01/31 13:46:58.1	1.400	-0.760	0.380	-0.990
2020/01/31 13:46:58.2	1.400	-0.720	0.380	-0.980
2020/01/31 13:46:58.3	1.400	-0.690	0.380	-0.960
2020/01/31 13:46:58.4	1.390	-0.650	0.380	-0.950
2020/01/31 13:46:58.5	1.380	-0.610	0.390	-0.920
2020/01/31 13:46:58.6	1.380	-0.560	0.380	-0.890
2020/01/31 13:46:58.7	1.370	-0.520	0.380	-0.860
2020/01/31 13:46:58.8	1.360	-0.480	0.380	-0.830
2020/01/31 13:46:58.9	1.340	-0.440	0.370	-0.790
2020/01/31 13:46:59.0	1.330	-0.390	0.370	-0.750
2020/01/31 13:46:59.1	1.310	-0.350	0.360	-0.710
2020/01/31 13:46:59.2	1.290	-0.310	0.360	-0.660
2020/01/31 13:46:59.3	1.260	-0.270	0.350	-0.610
2020/01/31 13:46:59.4	1.230	-0.230	0.340	-0.550
2020/01/31 13:46:59.5	1.200	-0.190	0.330	-0.490
2020/01/31 13:46:59.6	1.180	-0.150	0.320	-0.430
2020/01/31 13:46:59.7	1.150	-0.120	0.310	-0.360
2020/01/31 13:46:59.8	1.110	-0.080	0.300	-0.290
2020/01/31 13:46:59.9	1.070	-0.050	0.290	-0.230
2020/01/31 13:47:00.0	1.020	-0.020	0.270	-0.150
2020/01/31 13:47:00.1	0.970	0.000	0.260	-0.080
2020/01/31 13:47:00.2	0.920	0.030	0.240	-0.010
2020/01/31 13:47:00.3	0.870	0.050	0.220	0.060
2020/01/31 13:47:00.4	0.820	0.080	0.200	0.130
2020/01/31 13:47:00.5	0.770	0.100	0.180	0.200
2020/01/31 13:47:00.6	0.710	0.120	0.150	0.260
2020/01/31 13:47:00.7	0.660	0.140	0.120	0.330
2020/01/31 13:47:00.8	0.610	0.150	0.090	0.390
2020/01/31 13:47:00.9	0.560	0.170	0.060	0.450
2020/01/31 13:47:01.0	0.510	0.190	0.030	0.500
2020/01/31 13:47:01.1	0.470	0.200	-0.010	0.550
2020/01/31 13:47:01.2	0.430	0.220	-0.050	0.600
2020/01/31 13:47:01.3	0.390	0.240	-0.090	0.640
2020/01/31 13:47:01.4	0.350	0.250	-0.130	0.670
2020/01/31 13:47:01.5	0.320	0.270	-0.180	0.700
2020/01/31 13:47:01.6	0.300	0.290	-0.230	0.730
2020/01/31 13:47:01.7	0.280	0.310	-0.280	0.750
2020/01/31 13:47:01.8	0.260	0.330	-0.340	0.760
2020/01/31 13:47:01.9	0.260	0.360	-0.400	0.770
2020/01/31 13:47:02.0	0.250	0.380	-0.460	0.770
2020/01/31 13:47:02.1	0.260	0.400	-0.520	0.760
2020/01/31 13:47:02.2	0.270	0.430	-0.590	0.750
2020/01/31 13:47:02.3	0.280	0.460	-0.660	0.740
2020/01/31 13:47:02.4	0.300	0.490	-0.720	0.720
2020/01/31 13:47:02.5	0.320	0.510	-0.790	0.690
2020/01/31 13:47:02.6	0.350	0.540	-0.860	0.660
2020/01/31 13:47:02.7	0.380	0.570	-0.920	0.630
2020/01/31 13:47:02.8	0.420	0.600	-0.980	0.590
2020/01/31 13:47:02.9	0.450	0.630	-1.040	0.550
2020/01/31 13:47:03.0	0.490	0.650	-1.100	0.510
2020/01/31 13:47:03.1	0.540	0.670	-1.150	0.460
2020/01/31 13:47:03.2	0.580	0.700	-1.200	0.420
2020/01/31 13:47:03.3	0.630	0.710	-1.240	0.370
2020/01/31 13:47:03.4	0.670	0.730	-1.270	0.320
2020/01/31 13:47:03.5	0.720	0.740	-1.300	0.270
2020/01/31 13:47:03.6	0.760	0.750	-1.330	0.220
2020/01/31 13:47:03.7	0.810	0.760	-1.340	0.160
2020/01/31 13:47:03.8	0.860	0.760	-1.350	0.110
2020/01/31 13:47:03.9	0.910	0.760	-1.360	0.060
2020/01/31 13:47:04.0	0.960	0.760	-1.350	0.010
2020/01/31 13:47:04.1	1.010	0.750	-1.340	-0.040
2020/01/31 13:47:04.2	1.060	0.730	-1.320	-0.090
2020/01/31 13:47:04.3	1.100	0.710	-1.290	-0.130
2020/01/31 13:47:04.4	1.150	0.690	-1.260	-0.180
2020/01/31 13:47:04.5	1.190	0.660	-1.220	-0.220
2020/01/31 13:47:04.6	1.250	0.630	-1.180	-0.260
2020/01/31 13:47:04.7	1.290	0.600	-1.130	-0.300
2020/01/31 13:47:04.8	1.330	0.560	-1.070	-0.340
2020/01/31 13:47:04.9	1.370	0.520	-1.010	-0.380
2020/01/31 13:47:05.0	1.410	0.480	-0.940	-0.420
2020/01/31 13:47:05.1	1.440	0.430	-0.870	-0.460
2020/01/31 13:47:05.2	1.480	0.380	-0.790	-0.490
2020/01/31 13:47:05.3	1.510	0.330	-0.720	-0.530
2020/01/31 13:47:05.4	1.540	0.280	-0.630	-0.560
2020/01/31 13:47:05.5	1.580	0.230	-0.550	-0.590
2020/01/31 13:47:05.6	1.610	0.170	-0.470	-0.620
2020/01/31 13:47:05.7	1.640	0.120	-0.380	-0.650
2020/01/31 13:47:05.8	1.680	0.070	-0.300	-0.680
2020/01/31 13:47:05.9	1.710	0.020	-0.210	-0.710
2020/01/31 13:47:06.0	1.740	-0.030	-0.120	-0.730
2020/01/31 13:47:06.1	1.770	-0.080	-0.040	-0.760
2020/01/31 13:47:06.2	1.800	-0.120	0.040	-0.780
2020/01/31 13:47:06.3	1.830	-0.170	0.120	-0.800
2020/01/31 13:47:06.4	1.860	-0.210	0.200	-0.820
2020/01/31 13:47:06.5	1.890	-0.240	0.280	-0.830
2020/01/31 13:47:06.6	1.920	-0.270	0.350	-0.850
2020/01/31 13:47:06.7	1.950	-0.300	0.420	-0.860
2020/01/31 13:47:06.8	1.970	-0.330	0.480	-0.860
2020/01/31 13:47:06.9	1.990	-0.350	0.540	-0.860
2020/01/31 13:47:07.0	2.010	-0.370	0.600	-0.860
2020/01/31 13:47:07.1	2.020	-0.380	0.650	-0.850
2020/01/31 13:47:07.2	2.030	-0.390	0.700	-0.840
2020/01/31 13:47:07.3	2.040	-0.400	0.740	-0.830
2020/01/31 13:47:07.4	2.040	-0.400	0.780	-0.810
2020/01/31 13:47:07.5	2.040	-0.400	0.810	-0.790
2020/01/31 13:47:07.6	2.010	-0.400	0.840	-0.760
2020/01/31 13:47:07.7	2.010	-0.400	0.860	-0.730
2020/01/31 13:47:07.8	2.000	-0.390	0.870	-0.700
2020/01/31 13:47:07.9	1.980	-0.390	0.880	-0.670
2020/01/31 13:47:08.0	1.970	-0.380	0.890	-0.640
2020/01/31 13:47:08.1	1.950	-0.370	0.880	-0.610
2020/01/31 13:47:08.2	1.930	-0.360	0.870	-0.580
2020/01/31 13:47:08.3	1.910	-0.350	0.860	-0.540
2020/01/31 13:47:08.4	1.880	-0.340	0.830	-0.510
2020/01/31 13:47:08.5	1.860	-0.330	0.800	-0.480
2020/01/31 13:47:08.6	1.820	-0.330	0.770	-0.440
2020/01/31 13:47:08.7	1.800	-0.320	0.720	-0.410
2020/01/31 13:47:08.8	1.770	-0.310	0.670	-0.380
2020/01/31 13:47:08.9	1.740	-0.300	0.620	-0.350
2020/01/31 13:47:09.0	1.710	-0.300	0.560	-0.330
2020/01/31 13:47:09.1	1.680	-0.290	0.490	-0.300
2020/01/31 13:47:09.2	1.650	-0.290	0.420	-0.280
2020/01/31 13:47:09.3	1.620	-0.290	0.350	-0.260
2020/01/31 13:47:09.4	1.600	-0.280	0.270	-0.250
2020/01/31 13:47:09.5	1.570	-0.280	0.190	-0.240
2020/01/31 13:47:09.6	1.560	-0.280	0.100	-0.220
2020/01/31 13:47:09.7	1.540	-0.280	0.020	-0.220
2020/01/31 13:47:09.8	1.520	-0.280	-0.070	-0.230
2020/01/31 13:47:09.9	1.500	-0.290	-0.160	-0.240
2020/01/31 13:47:10.0	1.490	-0.290	-0.250	-0.250
2020/01/31 13:47:10.1	1.480	-0.290	-0.340	-0.270
2020/01/31 13:47:10.2	1.480	-0.290	-0.430	-0.290
2020/01/31 13:47:10.3	1.480	-0.300	-0.510	-0.320
2020/01/31 13:47:10.4	1.480	-0.300	-0.600	-0.350
2020/01/31 13:47:10.5	1.480	-0.300	-0.680	-0.390
2020/01/31 13:47:10.6	1.490	-0.300	-0.750	-0.430
2020/01/31 13:47:10.7	1.500	-0.300	-0.810	-0.470
2020/01/31 13:47:10.8	1.510	-0.290	-0.870	-0.510
2020/01/31 13:47:10.9	1.530	-0.290	-0.930	-0.550
2020/01/31 13:47:11.0	1.550	-0.280	-0.980	-0.590
2020/01/31 13:47:11.1	1.570	-0.280	-1.020	-0.630
2020/01/31 13:47:11.2	1.590	-0.270	-1.050	-0.680
2020/01/31 13:47:11.3	1.620	-0.260	-1.070	-0.720
2020/01/31 13:47:11.4	1.640	-0.250	-1.080	-0.760
2020/01/31 13:47:11.5	1.670	-0.230	-1.080	-0.790
2020/01/31 13:47:11.6	1.700	-0.220	-1.080	-0.830
2020/01/31 13:47:11.7	1.720	-0.210	-1.070	-0.860
2020/01/31 13:47:11.8	1.750	-0.190	-1.040	-0.890
2020/01/31 13:47:11.9	1.770	-0.180	-1.010	-0.910
2020/01/31 13:47:12.0	1.790	-0.170	-0.970	-0.930
2020/01/31 13:47:12.1	1.810	-0.150	-0.930	-0.950
2020/01/31 13:47:12.2	1.830	-0.140	-0.870	-0.960
2020/01/31 13:47:12.3	1.850	-0.130	-0.820	-0.980
2020/01/31 13:47:12.4	1.860	-0.120	-0.750	-0.980
2020/01/31 13:47:12.5	1.880	-0.110	-0.690	-0.990
2020/01/31 13:47:12.6	1.900	-0.100	-0.620	-0.990
2020/01/31 13:47:12.7	1.910	-0.090	-0.550	-0.990
2020/01/31 13:47:12.8	1.930	-0.080	-0.490	-0.990
2020/01/31 13:47:12.9	1.940	-0.070	-0.420	-0.990
2020/01/31 13:47:13.0	1.950	-0.070	-0.350	-0.980
2020/01/31 13:47:13.1	1.970	-0.060	-0.290	-0.980
2020/01/31 13:47:13.2	1.980	-0.050	-0.230	-0.970
2020/01/31 13:47:13.3	2.000	-0.050	-0.180	-0.970
2020/01/31 13:47:13.4	2.010	-0.040	-0.130	-0.960
2020/01/31 13:47:13.5	2.030	-0.030	-0.080	-0.950
2020/01/31 13:47:13.6	2.040	-0.030	-0.050	-0.940
2020/01/31 13:47:13.7	2.060	-0.020	-0.020	-0.920
2020/01/31 13:47:13.8	2.080	-0.010	0.010	-0.910
2020/01/31 13:47:13.9	2.090	-0.000	0.030	-0.900
2020/01/31 13:47:14.0	2.110	0.010	0.040	-0.880
2020/01/31 13:47:14.1	2.130	0.020	0.050	-0.870
2020/01/31 13:47:14.2	2.140	0.030	0.050	-0.850
2020/01/31 13:47:14.3	2.160	0.050	0.050	-0.830
2020/01/31 13:47:14.4	2.170	0.060	0.040	-0.810
2020/01/31 13:47:14.5	2.190	0.080	0.030	-0.790
2020/01/31 13:47:14.6	2.210	0.100	0.010	-0.760
2020/01/31 13:47:14.7	2.220	0.120	-0.010	-0.740
2020/01/31 13:47:14.8	2.230	0.150	-0.030	-0.710
2020/01/31 13:47:14.9	2.240	0.170	-0.050	-0.680
2020/01/31 13:47:15.0	2.250	0.200	-0.080	-0.640
2020/01/31 13:47:15.1	2.250	0.230	-0.100	-0.610
2020/01/31 13:47:15.2	2.250	0.260	-0.130	-0.570
2020/01/31 13:47:15.3	2.260	0.290	-0.150	-0.530
2020/01/31 13:47:15.4	2.260	0.320	-0.180	-0.490
2020/01/31 13:47:15.5	2.260	0.360	-0.200	-0.440
2020/01/31 13:47:15.6	2.260	0.390	-0.230	-0.390
2020/01/31 13:47:15.7	2.260	0.430	-0.250	-0.340
2020/01/31 13:47:15.8	2.260	0.460	-0.270	-0.290
2020/01/31 13:47:15.9	2.260	0.500	-0.290	-0.240
2020/01/31 13:47:16.0	2.260	0.530	-0.310	-0.180
2020/01/31 13:47:16.1	2.250	0.570	-0.320	-0.130
2020/01/31 13:47:16.2	2.250	0.600	-0.340	-0.070
2020/01/31 13:47:16.3	2.250	0.630	-0.350	-0.020
2020/01/31 13:47:16.4	2.240	0.660	-0.360	0.040
2020/01/31 13:47:16.5	2.240	0.680	-0.370	0.090
2020/01/31 13:47:16.6	2.240	0.700	-0.370	0.150
2020/01/31 13:47:16.7	2.230	0.720	-0.380	0.200
2020/01/31 13:47:16.8	2.230	0.740	-0.380	0.240
2020/01/31 13:47:16.9	2.230	0.750	-0.380	0.290
2020/01/31 13:47:17.0	2.220	0.760	-0.370	0.330
2020/01/31 13:47:17.1	2.220	0.760	-0.370	0.360
2020/01/31 13:47:17.2	2.220	0.760	-0.360	0.390
2020/01/31 13:47:17.3	2.220	0.750	-0.350	0.420
2020/01/31 13:47:17.4	2.220	0.740	-0.340	0.440
2020/01/31 13:47:17.5	2.210	0.730	-0.320	0.450
2020/01/31 13:47:17.6	2.210	0.710	-0.310	0.460
2020/01/31 13:47:17.7	2.210	0.680	-0.290	0.470
2020/01/31 13:47:17.8	2.210	0.650	-0.270	0.470
2020/01/31 13:47:17.9	2.210	0.620	-0.250	0.470
2020/01/31 13:47:18.0	2.220	0.580	-0.230	0.460
2020/01/31 13:47:18.1	2.220	0.540	-0.210	0.450
2020/01/31 13:47:18.2	2.230	0.500	-0.180	0.430
2020/01/31 13:47:18.3	2.230	0.450	-0.160	0.410
2020/01/31 13:47:18.4	2.240	0.400	-0.140	0.390
2020/01/31 13:47:18.5	2.250	0.350	-0.120	0.360
2020/01/31 13:47:18.6	2.260	0.300	-0.090	0.340
2020/01/31 13:47:18.7	2.270	0.250	-0.070	0.310
2020/01/31 13:47:18.8	2.280	0.200	-0.040	0.280
2020/01/31 13:47:18.9	2.300	0.140	-0.020	0.240
2020/01/31 13:47:19.0	2.310	0.090	-0.000	0.200
2020/01/31 13:47:19.1	2.330	0.040	0.020	0.160
2020/01/31 13:47:19.2	2.350	-0.010	0.040	0.120
2020/01/31 13:47:19.3	2.370	-0.060	0.050	0.070
2020/01/31 13:47:19.4	2.390	-0.110	0.070	0.030
2020/01/31 13:47:19.5	2.410	-0.160	0.080	-0.020
2020/01/31 13:47:19.6	2.430	-0.210	0.090	-0.070
2020/01/31 13:47:19.7	2.450	-0.250	0.100	-0.120
2020/01/31 13:47:19.8	2.470	-0.290	0.100	-0.170
2020/01/31 13:47:19.9	2.490	-0.320	0.100	-0.230
2020/01/31 13:47:20.0	2.510	-0.360	0.090	-0.280
2020/01/31 13:47:20.1	2.530	-0.390	0.090	-0.330
2020/01/31 13:47:20.2	2.550	-0.420	0.080	-0.390
2020/01/31 13:47:20.3	2.570	-0.440	0.060	-0.440
2020/01/31 13:47:20.4	2.590	-0.460	0.040	-0.490
2020/01/31 13:47:20.5	2.610	-0.480	0.020	-0.540
2020/01/31 13:47:20.6	2.620	-0.490	-0.000	-0.590
2020/01/31 13:47:20.7	2.640	-0.500	-0.030	-0.640
2020/01/31 13:47:20.8	2.650	-0.510	-0.060	-0.690
2020/01/31 13:47:20.9	2.660	-0.510	-0.090	-0.730
2020/01/31 13:47:21.0	2.670	-0.520	-0.130	-0.780
2020/01/31 13:47:21.1	2.680	-0.510	-0.160	-0.820
2020/01/31 13:47:21.2	2.690	-0.510	-0.200	-0.860
2020/01/31 13:47:21.3	2.700	-0.500	-0.240	-0.900
2020/01/31 13:47:21.4	2.710	-0.490	-0.280	-0.930
2020/01/31 13:47:21.5	2.720	-0.480	-0.320	-0.970
2020/01/31 13:47:21.6	2.720	-0.470	-0.360	-1.000
2020/01/31 13:47:21.7	2.730	-0.460	-0.400	-1.030
2020/01/31 13:47:21.8	2.740	-0.440	-0.430	-1.060
2020/01/31 13:47:21.9	2.750	-0.420	-0.470	-1.080
2020/01/31 13:47:22.0	2.760	-0.400	-0.510	-1.110
2020/01/31 13:47:22.1	2.770	-0.390	-0.540	-1.130
2020/01/31 13:47:22.2	2.780	-0.370	-0.580	-1.140
2020/01/31 13:47:22.3	2.780	-0.350	-0.610	-1.160
2020/01/31 13:47:22.4	2.790	-0.330	-0.630	-1.170
2020/01/31 13:47:22.5	2.800	-0.310	-0.660	-1.190
2020/01/31 13:47:22.6	2.800	-0.290	-0.680	-1.190
2020/01/31 13:47:22.7	2.810	-0.270	-0.700	-1.200
2020/01/31 13:47:22.8	2.820	-0.250	-0.710	-1.200
2020/01/31 13:47:22.9	2.830	-0.230	-0.720	-1.200
2020/01/31 13:47:23.0	2.840	-0.220	-0.730	-1.200
2020/01/31 13:47:23.1	2.850	-0.200	-0.730	-1.200
2020/01/31 13:47:23.2	2.860	-0.190	-0.720	-1.190
2020/01/31 13:47:23.3	2.860	-0.180	-0.710	-1.180
2020/01/31 13:47:23.4	2.870	-0.170	-0.690	-1.170
2020/01/31 13:47:23.5	2.870	-0.160	-0.670	-1.150
2020/01/31 13:47:23.6	2.880	-0.150	-0.640	-1.130
2020/01/31 13:47:23.7	2.880	-0.150	-0.610	-1.110
2020/01/31 13:47:23.8	2.880	-0.140	-0.570	-1.090
2020/01/31 13:47:23.9	2.880	-0.140	-0.530	-1.070
2020/01/31 13:47:24.0	2.880	-0.140	-0.490	-1.040
2020/01/31 13:47:24.1	2.870	-0.140	-0.430	-1.010
2020/01/31 13:47:24.2	2.870	-0.150	-0.380	-0.980
2020/01/31 13:47:24.3	2.860	-0.150	-0.320	-0.950
2020/01/31 13:47:24.4	2.850	-0.150	-0.260	-0.920
2020/01/31 13:47:24.5	2.840	-0.160	-0.200	-0.880
2020/01/31 13:47:24.6	2.820	-0.170	-0.140	-0.840
2020/01/31 13:47:24.7	2.810	-0.170	-0.080	-0.800
2020/01/31 13:47:24.8	2.800	-0.180	-0.020	-0.760
2020/01/31 13:47:24.9	2.790	-0.190	0.040	-0.720
2020/01/31 13:47:25.0	2.780	-0.190	0.100	-0.680
2020/01/31 13:47:25.1	2.770	-0.200	0.160	-0.640
2020/01/31 13:47:25.2	2.750	-0.210	0.220	-0.600
2020/01/31 13:47:25.3	2.740	-0.210	0.270	-0.560
2020/01/31 13:47:25.4	2.730	-0.210	0.310	-0.510
2020/01/31 13:47:25.5	2.710	-0.210	0.350	-0.470
2020/01/31 13:47:25.6	2.710	-0.210	0.390	-0.420
2020/01/31 13:47:25.7	2.690	-0.210	0.420	-0.370
2020/01/31 13:47:25.8	2.680	-0.200	0.440	-0.330
2020/01/31 13:47:25.9	2.670	-0.190	0.450	-0.280
2020/01/31 13:47:26.0	2.670	-0.180	0.460	-0.240
2020/01/31 13:47:26.1	2.660	-0.160	0.450	-0.200
2020/01/31 13:47:26.2	2.660	-0.140	0.440	-0.160
2020/01/31 13:47:26.3	2.660	-0.120	0.420	-0.130
2020/01/31 13:47:26.4	2.660	-0.100	0.400	-0.100
2020/01/31 13:47:26.5	2.660	-0.070	0.360	-0.070
2020/01/31 13:47:26.6	2.670	-0.040	0.310	-0.040
2020/01/31 13:47:26.7	2.680	-0.000	0.260	-0.020
2020/01/31 13:47:26.8	2.700	0.030	0.200	-0.010
2020/01/31 13:47:26.9	2.720	0.070	0.130	0.000
2020/01/31 13:47:27.0	2.740	0.120	0.060	0.010
2020/01/31 13:47:27.1	2.760	0.160	-0.020	0.010
2020/01/31 13:47:27.2	2.790	0.210	-0.100	0.010
2020/01/31 13:47:27.3	2.820	0.260	-0.190	0.010
2020/01/31 13:47:27.4	2.840	0.310	-0.270	0.000
2020/01/31 13:47:27.5	2.870	0.360	-0.360	-0.000
2020/01/31 13:47:27.6	2.890	0.410	-0.440	-0.000
2020/01/31 13:47:27.7	2.910	0.450	-0.510	-0.010
2020/01/31 13:47:27.8	2.930	0.500	-0.590	-0.010
2020/01/31 13:47:27.9	2.950	0.540	-0.660	-0.010
2020/01/31 13:47:28.0	2.960	0.590	-0.720	-0.010
2020/01/31 13:47:28.1	2.970	0.620	-0.770	-0.010
2020/01/31 13:47:28.2	2.970	0.660	-0.820	-0.000
2020/01/31 13:47:28.3	2.970	0.690	-0.850	0.000
2020/01/31 13:47:28.4	2.960	0.710	-0.880	0.010
2020/01/31 13:47:28.5	2.950	0.730	-0.890	0.020
2020/01/31 13:47:28.6	2.940	0.750	-0.900	0.030
2020/01/31 13:47:28.7	2.920	0.760	-0.900	0.050
2020/01/31 13:47:28.8	2.900	0.760	-0.880	0.060
2020/01/31 13:47:28.9	2.870	0.750	-0.860	0.070
2020/01/31 13:47:29.0	2.840	0.740	-0.830	0.090
2020/01/31 13:47:29.1	2.810	0.730	-0.790	0.100
2020/01/31 13:47:29.2	2.780	0.710	-0.740	0.120
2020/01/31 13:47:29.3	2.750	0.680	-0.680	0.140
2020/01/31 13:47:29.4	2.710	0.640	-0.620	0.160
2020/01/31 13:47:29.5	2.670	0.600	-0.550	0.180
2020/01/31 13:47:29.6	2.640	0.560	-0.480	0.200
2020/01/31 13:47:29.7	2.600	0.510	-0.410	0.210
2020/01/31 13:47:29.8	2.560	0.460	-0.330	0.230
2020/01/31 13:47:29.9	2.530	0.400	-0.250	0.240
2020/01/31 13:47:30.0	2.490	0.350	-0.180	0.260
2020/01/31 13:47:30.1	2.460	0.280	-0.100	0.270
2020/01/31 13:47:30.2	2.440	0.220	-0.030	0.270
2020/01/31 13:47:30.3	2.410	0.160	0.030	0.270
2020/01/31 13:47:30.4	2.390	0.100	0.100	0.270
2020/01/31 13:47:30.5	2.380	0.040	0.150	0.260
2020/01/31 13:47:30.6	2.370	-0.020	0.200	0.250
2020/01/31 13:47:30.7	2.370	-0.080	0.250	0.230
2020/01/31 13:47:30.8	2.370	-0.130	0.280	0.210
2020/01/31 13:47:30.9	2.370	-0.180	0.310	0.180
2020/01/31 13:47:31.0	2.380	-0.230	0.330	0.150
2020/01/31 13:47:31.1	2.390	-0.270	0.350	0.110
2020/01/31 13:47:31.2	2.400	-0.310	0.350	0.070
2020/01/31 13:47:31.3	2.420	-0.340	0.350	0.030
2020/01/31 13:47:31.4	2.430	-0.370	0.350	-0.020
2020/01/31 13:47:31.5	2.450	-0.400	0.340	-0.060
2020/01/31 13:47:31.6	2.480	-0.410	0.320	-0.110
2020/01/31 13:47:31.7	2.500	-0.430	0.300	-0.160
2020/01/31 13:47:31.8	2.520	-0.430	0.280	-0.210
2020/01/31 13:47:31.9	2.530	-0.430	0.250	-0.260
2020/01/31 13:47:32.0	2.550	-0.430	0.220	-0.300
2020/01/31 13:47:32.1	2.570	-0.420	0.200	-0.340
2020/01/31 13:47:32.2	2.580	-0.410	0.160	-0.380
2020/01/31 13:47:32.3	2.590	-0.390	0.130	-0.420
2020/01/31 13:47:32.4	2.600	-0.370	0.100	-0.450
2020/01/31 13:47:32.5	2.610	-0.350	0.070	-0.480
2020/01/31 13:47:32.6	2.600	-0.320	0.030	-0.510
2020/01/31 13:47:32.7	2.610	-0.290	-0.000	-0.530
2020/01/31 13:47:32.8	2.610	-0.260	-0.040	-0.550
2020/01/31 13:47:32.9	2.610	-0.230	-0.070	-0.570
2020/01/31 13:47:33.0	2.610	-0.190	-0.110	-0.590
2020/01/31 13:47:33.1	2.610	-0.160	-0.140	-0.610
2020/01/31 13:47:33.2	2.600	-0.120	-0.180	-0.620
2020/01/31 13:47:33.3	2.600	-0.090	-0.210	-0.640
2020/01/31 13:47:33.4	2.590	-0.050	-0.250	-0.650
2020/01/31 13:47:33.5	2.590	-0.020	-0.280	-0.660
2020/01/31 13:47:33.6	2.590	0.010	-0.320	-0.670
2020/01/31 13:47:33.7	2.590	0.040	-0.360	-0.690
2020/01/31 13:47:33.8	2.590	0.070	-0.390	-0.700
2020/01/31 13:47:33.9	2.580	0.090	-0.430	-0.710
2020/01/31 13:47:34.0	2.590	0.120	-0.470	-0.730
2020/01/31 13:47:34.1	2.590	0.140	-0.500	-0.740
2020/01/31 13:47:34.2	2.590	0.150	-0.540	-0.750
2020/01/31 13:47:34.3	2.590	0.170	-0.570	-0.770
2020/01/31 13:47:34.4	2.600	0.180	-0.610	-0.780
2020/01/31 13:47:34.5	2.610	0.190	-0.640	-0.800
2020/01/31 13:47:34.6	2.620	0.190	-0.680	-0.810
2020/01/31 13:47:34.7	2.620	0.190	-0.710	-0.820
2020/01/31 13:47:34.8	2.630	0.190	-0.740	-0.830
2020/01/31 13:47:34.9	2.640	0.190	-0.760	-0.850
2020/01/31 13:47:35.0	2.660	0.180	-0.790	-0.860
2020/01/31 13:47:35.1	2.670	0.170	-0.810	-0.870
2020/01/31 13:47:35.2	2.680	0.160	-0.830	-0.880
2020/01/31 13:47:35.3	2.700	0.150	-0.850	-0.900
2020/01/31 13:47:35.4	2.710	0.140	-0.860	-0.910
2020/01/31 13:47:35.5	2.730	0.120	-0.870	-0.920
2020/01/31 13:47:35.6	2.740	0.100	-0.870	-0.930
2020/01/31 13:47:35.7	2.760	0.080	-0.870	-0.940
2020/01/31 13:47:35.8	2.780	0.060	-0.870	-0.950
2020/01/31 13:47:35.9	2.800	0.040	-0.870	-0.970
2020/01/31 13:47:36.0	2.820	0.020	-0.860	-0.980
2020/01/31 13:47:36.1	2.840	-0.010	-0.840	-0.990
2020/01/31 13:47:36.2	2.850	-0.030	-0.830	-1.000
2020/01/31 13:47:36.3	2.870	-0.050	-0.800	-1.010
2020/01/31 13:47:36.4	2.890	-0.080	-0.780	-1.020
2020/01/31 13:47:36.5	2.910	-0.100	-0.740	-1.020
2020/01/31 13:47:36.6	2.920	-0.120	-0.710	-1.030
2020/01/31 13:47:36.7	2.940	-0.150	-0.670	-1.030
2020/01/31 13:47:36.8	2.950	-0.170	-0.620	-1.040
2020/01/31 13:47:36.9	2.960	-0.190	-0.580	-1.040
2020/01/31 13:47:37.0	2.980	-0.210	-0.520	-1.040
2020/01/31 13:47:37.1	2.990	-0.240	-0.470	-1.030
2020/01/31 13:47:37.2	3.000	-0.260	-0.410	-1.030
2020/01/31 13:47:37.3	3.010	-0.280	-0.350	-1.020
2020/01/31 13:47:37.4	3.020	-0.300	-0.290	-1.010
2020/01/31 13:47:37.5	3.020	-0.320	-0.220	-1.000
2020/01/31 13:47:37.6	3.030	-0.330	-0.160	-0.990
2020/01/31 13:47:37.7	3.030	-0.350	-0.090	-0.970
2020/01/31 13:47:37.8	3.030	-0.360	-0.030	-0.950
2020/01/31 13:47:37.9	3.030	-0.380	0.040	-0.930
2020/01/31 13:47:38.0	3.020	-0.390	0.100	-0.910
2020/01/31 13:47:38.1	3.020	-0.400	0.160	-0.880
2020/01/31 13:47:38.2	3.000	-0.410	0.220	-0.850
2020/01/31 13:47:38.3	2.990	-0.420	0.280	-0.820
2020/01/31 13:47:38.4	2.980	-0.420	0.330	-0.780
2020/01/31 13:47:38.5	2.960	-0.420	0.380	-0.750
2020/01/31 13:47:38.6	2.940	-0.430	0.420	-0.700
2020/01/31 13:47:38.7	2.920	-0.420	0.460	-0.660
2020/01/31 13:47:38.8	2.890	-0.420	0.500	-0.610
2020/01/31 13:47:38.9	2.860	-0.420	0.530	-0.560
2020/01/31 13:47:39.0	2.840	-0.410	0.560	-0.510
2020/01/31 13:47:39.1	2.810	-0.400	0.580	-0.460
2020/01/31 13:47:39.2	2.770	-0.380	0.590	-0.410
2020/01/31 13:47:39.3	2.740	-0.360	0.600	-0.360
2020/01/31 13:47:39.4	2.700	-0.350	0.610	-0.300
2020/01/31 13:47:39.5	2.670	-0.320	0.610	-0.240
2020/01/31 13:47:39.6	2.640	-0.300	0.600	-0.180
2020/01/31 13:47:39.7	2.600	-0.270	0.590	-0.120
2020/01/31 13:47:39.8	2.560	-0.240	0.570	-0.060
2020/01/31 13:47:39.9	2.520	-0.210	0.550	-0.000
2020/01/31 13:47:40.0	2.480	-0.170	0.520	0.060
2020/01/31 13:47:40.1	2.440	-0.130	0.490	0.120
2020/01/31 13:47:40.2	2.400	-0.090	0.450	0.180
2020/01/31 13:47:40.3	2.360	-0.050	0.410	0.240
2020/01/31 13:47:40.4	2.320	-0.010	0.370	0.300
2020/01/31 13:47:40.5	2.290	0.040	0.320	0.350
2020/01/31 13:47:40.6	2.260	0.080	0.270	0.410
2020/01/31 13:47:40.7	2.220	0.130	0.220	0.470
2020/01/31 13:47:40.8	2.190	0.170	0.160	0.520
2020/01/31 13:47:40.9	2.160	0.220	0.110	0.560
2020/01/31 13:47:41.0	2.130	0.260	0.050	0.610
2020/01/31 13:47:41.1	2.110	0.300	-0.000	0.650
2020/01/31 13:47:41.2	2.090	0.340	-0.060	0.690
2020/01/31 13:47:41.3	2.060	0.380	-0.120	0.730
2020/01/31 13:47:41.4	2.050	0.420	-0.170	0.760
2020/01/31 13:47:41.5	2.030	0.460	-0.230	0.800
2020/01/31 13:47:41.6	2.020	0.490	-0.280	0.820
2020/01/31 13:47:41.7	2.020	0.520	-0.330	0.850
2020/01/31 13:47:41.8	2.010	0.550	-0.380	0.870
2020/01/31 13:47:41.9	2.010	0.570	-0.430	0.890
2020/01/31 13:47:42.0	2.010	0.590	-0.470	0.910
2020/01/31 13:47:42.1	2.010	0.610	-0.510	0.920
2020/01/31 13:47:42.2	2.020	0.620	-0.550	0.940
2020/01/31 13:47:42.3	2.020	0.630	-0.590	0.940
2020/01/31 13:47:42.4	2.030	0.640	-0.620	0.950
2020/01/31 13:47:42.5	2.040	0.640	-0.640	0.960
2020/01/31 13:47:42.6	2.070	0.640	-0.670	0.960
2020/01/31 13:47:42.7	2.080	0.640	-0.690	0.960
2020/01/31 13:47:42.8	2.100	0.630	-0.700	0.950
2020/01/31 13:47:42.9	2.120	0.620	-0.710	0.950
2020/01/31 13:47:43.0	2.130	0.600	-0.720	0.940
2020/01/31 13:47:43.1	2.150	0.590	-0.720	0.920
2020/01/31 13:47:43.2	2.170	0.570	-0.720	0.910
2020/01/31 13:47:43.3	2.180	0.540	-0.710	0.890
2020/01/31 13:47:43.4	2.200	0.520	-0.710	0.870
2020/01/31 13:47:43.5	2.210	0.490	-0.700	0.850
2020/01/31 13:47:43.6	2.240	0.460	-0.680	0.820
2020/01/31 13:47:43.7	2.260	0.430	-0.670	0.790
2020/01/31 13:47:43.8	2.270	0.400	-0.650	0.760
2020/01/31 13:47:43.9	2.280	0.360	-0.640	0.730
2020/01/31 13:47:44.0	2.300	0.330	-0.620	0.690
2020/01/31 13:47:44.1	2.310	0.290	-0.600	0.650
2020/01/31 13:47:44.2	2.330	0.260	-0.590	0.610
2020/01/31 13:47:44.3	2.340	0.220	-0.570	0.560
2020/01/31 13:47:44.4	2.360	0.190	-0.560	0.510
2020/01/31 13:47:44.5	2.380	0.150	-0.540	0.450
2020/01/31 13:47:44.6	2.390	0.120	-0.530	0.390
2020/01/31 13:47:44.7	2.410	0.080	-0.520	0.330
2020/01/31 13:47:44.8	2.430	0.050	-0.520	0.260
2020/01/31 13:47:44.9	2.450	0.020	-0.510	0.190
2020/01/31 13:47:45.0	2.470	-0.010	-0.510	0.120
2020/01/31 13:47:45.1	2.490	-0.040	-0.500	0.050
2020/01/31 13:47:45.2	2.520	-0.060	-0.500	-0.030
2020/01/31 13:47:45.3	2.540	-0.090	-0.500	-0.100
2020/01/31 13:47:45.4	2.560	-0.110	-0.510	-0.180
2020/01/31 13:47:45.5	2.580	-0.130	-0.510	-0.260
2020/01/31 13:47:45.6	2.620	-0.150	-0.510	-0.330
2020/01/31 13:47:45.7	2.640	-0.170	-0.510	-0.410
2020/01/31 13:47:45.8	2.660	-0.180	-0.510	-0.490
2020/01/31 13:47:45.9	2.680	-0.200	-0.510	-0.560
2020/01/31 13:47:46.0	2.700	-0.210	-0.510	-0.630
2020/01/31 13:47:46.1	2.720	-0.220	-0.510	-0.700
2020/01/31 13:47:46.2	2.740	-0.230	-0.500	-0.770
2020/01/31 13:47:46.3	2.750	-0.240	-0.490	-0.840
2020/01/31 13:47:46.4	2.770	-0.250	-0.480	-0.900
2020/01/31 13:47:46.5	2.780	-0.260	-0.460	-0.960
2020/01/31 13:47:46.6	2.790	-0.260	-0.450	-1.020
2020/01/31 13:47:46.7	2.800	-0.270	-0.430	-1.070
2020/01/31 13:47:46.8	2.810	-0.280	-0.400	-1.120
2020/01/31 13:47:46.9	2.820	-0.280	-0.370	-1.160
2020/01/31 13:47:47.0	2.820	-0.290	-0.330	-1.200
2020/01/31 13:47:47.1	2.820	-0.300	-0.300	-1.240
2020/01/31 13:47:47.2	2.820	-0.310	-0.260	-1.270
2020/01/31 13:47:47.3	2.820	-0.310	-0.210	-1.300
2020/01/31 13:47:47.4	2.820	-0.320	-0.170	-1.320
2020/01/31 13:47:47.5	2.820	-0.330	-0.120	-1.340
2020/01/31 13:47:47.6	2.820	-0.340	-0.070	-1.350
2020/01/31 13:47:47.7	2.810	-0.350	-0.020	-1.360
2020/01/31 13:47:47.8	2.800	-0.350	0.030	-1.370
2020/01/31 13:47:47.9	2.800	-0.360	0.080	-1.380
2020/01/31 13:47:48.0	2.790	-0.370	0.120	-1.380
2020/01/31 13:47:48.1	2.780	-0.380	0.170	-1.380
2020/01/31 13:47:48.2	2.760	-0.390	0.210	-1.370
2020/01/31 13:47:48.3	2.750	-0.390	0.250	-1.360
2020/01/31 13:47:48.4	2.740	-0.400	0.290	-1.350
2020/01/31 13:47:48.5	2.720	-0.410	0.320	-1.340
2020/01/31 13:47:48.6	2.700	-0.410	0.350	-1.320
2020/01/31 13:47:48.7	2.680	-0.420	0.370	-1.290
2020/01/31 13:47:48.8	2.660	-0.420	0.400	-1.270
2020/01/31 13:47:48.9	2.640	-0.420	0.410	-1.240
2020/01/31 13:47:49.0	2.620	-0.420	0.420	-1.210
2020/01/31 13:47:49.1	2.590	-0.420	0.430	-1.180
2020/01/31 13:47:49.2	2.570	-0.410	0.430	-1.140
2020/01/31 13:47:49.3	2.550	-0.410	0.420	-1.100
2020/01/31 13:47:49.4	2.520	-0.400	0.410	-1.060
2020/01/31 13:47:49.5	2.490	-0.390	0.390	-1.020
2020/01/31 13:47:49.6	2.470	-0.370	0.370	-0.970
2020/01/31 13:47:49.7	2.450	-0.360	0.340	-0.920
2020/01/31 13:47:49.8	2.420	-0.340	0.310	-0.870
2020/01/31 13:47:49.9	2.390	-0.320	0.270	-0.820
2020/01/31 13:47:50.0	2.370	-0.300	0.230	-0.760
2020/01/31 13:47:50.1	2.350	-0.270	0.180	-0.710
2020/01/31 13:47:50.2	2.330	-0.250	0.130	-0.660
2020/01/31 13:47:50.3	2.300	-0.220	0.080	-0.600
2020/01/31 13:47:50.4	2.290	-0.190	0.020	-0.550
2020/01/31 13:47:50.5	2.270	-0.160	-0.040	-0.500
2020/01/31 13:47:50.6	2.250	-0.130	-0.100	-0.440
2020/01/31 13:47:50.7	2.240	-0.100	-0.160	-0.380
2020/01/31 13:47:50.8	2.230	-0.070	-0.220	-0.330
2020/01/31 13:47:50.9	2.220	-0.030	-0.280	-0.290
2020/01/31 13:47:51.0	2.210	0.000	-0.340	-0.240
2020/01/31 13:47:51.1	2.200	0.030	-0.390	-0.190
2020/01/31 13:47:51.2	2.190	0.070	-0.440	-0.140
2020/01/31 13:47:51.3	2.190	0.100	-0.490	-0.100
2020/01/31 13:47:51.4	2.180	0.130	-0.540	-0.050
2020/01/31 13:47:51.5	2.180	0.160	-0.580	-0.010
2020/01/31 13:47:51.6	2.190	0.190	-0.620	0.030
2020/01/31 13:47:51.7	2.190	0.220	-0.650	0.080
2020/01/31 13:47:51.8	2.200	0.250	-0.680	0.120
2020/01/31 13:47:51.9	2.200	0.280	-0.700	0.160
2020/01/31 13:47:52.0	2.210	0.300	-0.710	0.210
2020/01/31 13:47:52.1	2.210	0.320	-0.720	0.250
2020/01/31 13:47:52.2	2.220	0.340	-0.730	0.290
2020/01/31 13:47:52.3	2.230	0.360	-0.720	0.340
2020/01/31 13:47:52.4	2.240	0.380	-0.720	0.380
2020/01/31 13:47:52.5	2.250	0.390	-0.710	0.420
2020/01/31 13:47:52.6	2.270	0.400	-0.690	0.470
2020/01/31 13:47:52.7	2.280	0.410	-0.670	0.510
2020/01/31 13:47:52.8	2.300	0.420	-0.640	0.540
2020/01/31 13:47:52.9	2.310	0.420	-0.620	0.580
2020/01/31 13:47:53.0	2.330	0.420	-0.590	0.610
2020/01/31 13:47:53.1	2.340	0.420	-0.550	0.640
2020/01/31 13:47:53.2	2.360	0.420	-0.520	0.670
2020/01/31 13:47:53.3	2.380	0.410	-0.480	0.690
2020/01/31 13:47:53.4	2.400	0.410	-0.450	0.710
2020/01/31 13:47:53.5	2.420	0.400	-0.410	0.720
2020/01/31 13:47:53.6	2.430	0.380	-0.380	0.730
2020/01/31 13:47:53.7	2.450	0.370	-0.340	0.730
2020/01/31 13:47:53.8	2.470	0.350	-0.300	0.740
2020/01/31 13:47:53.9	2.490	0.330	-0.270	0.730
2020/01/31 13:47:54.0	2.500	0.320	-0.230	0.730
2020/01/31 13:47:54.1	2.520	0.300	-0.200	0.720
2020/01/31 13:47:54.2	2.530	0.280	-0.170	0.710
2020/01/31 13:47:54.3	2.540	0.250	-0.140	0.690
2020/01/31 13:47:54.4	2.540	0.230	-0.110	0.680
2020/01/31 13:47:54.5	2.550	0.210	-0.080	0.660
2020/01/31 13:47:54.6	2.540	0.190	-0.050	0.650
2020/01/31 13:47:54.7	2.540	0.160	-0.020	0.630
2020/01/31 13:47:54.8	2.540	0.140	0.000	0.610
2020/01/31 13:47:54.9	2.530	0.120	0.020	0.590
2020/01/31 13:47:55.0	2.530	0.100	0.050	0.570
2020/01/31 13:47:55.1	2.520	0.080	0.070	0.540
2020/01/31 13:47:55.2	2.510	0.060	0.080	0.520
2020/01/31 13:47:55.3	2.500	0.040	0.100	0.500
2020/01/31 13:47:55.4	2.490	0.030	0.110	0.480
2020/01/31 13:47:55.5	2.480	0.010	0.120	0.460
2020/01/31 13:47:55.6	2.460	0.000	0.130	0.440
2020/01/31 13:47:55.7	2.450	-0.010	0.140	0.420
2020/01/31 13:47:55.8	2.440	-0.020	0.140	0.390
2020/01/31 13:47:55.9	2.430	-0.030	0.140	0.370
2020/01/31 13:47:56.0	2.430	-0.030	0.130	0.350
2020/01/31 13:47:56.1	2.420	-0.040	0.120	0.330
2020/01/31 13:47:56.2	2.420	-0.040	0.110	0.300
2020/01/31 13:47:56.3	2.410	-0.040	0.090	0.280
2020/01/31 13:47:56.4	2.410	-0.040	0.070	0.250
2020/01/31 13:47:56.5	2.410	-0.040	0.050	0.220
2020/01/31 13:47:56.6	2.420	-0.030	0.020	0.190
2020/01/31 13:47:56.7	2.420	-0.030	-0.020	0.160
2020/01/31 13:47:56.8	2.430	-0.020	-0.050	0.130
2020/01/31 13:47:56.9	2.440	-0.010	-0.090	0.100
2020/01/31 13:47:57.0	2.440	-0.010	-0.130	0.060
2020/01/31 13:47:57.1	2.450	0.000	-0.170	0.020
2020/01/31 13:47:57.2	2.460	0.010	-0.220	-0.020
2020/01/31 13:47:57.3	2.460	0.020	-0.260	-0.060
2020/01/31 13:47:57.4	2.470	0.020	-0.310	-0.100
2020/01/31 13:47:57.5	2.480	0.030	-0.360	-0.150
2020/01/31 13:47:57.6	2.490	0.030	-0.400	-0.190
2020/01/31 13:47:57.7	2.500	0.040	-0.440	-0.240
2020/01/31 13:47:57.8	2.500	0.040	-0.490	-0.290
2020/01/31 13:47:57.9	2.500	0.050	-0.530	-0.330
2020/01/31 13:47:58.0	2.510	0.050	-0.560	-0.380
2020/01/31 13:47:58.1	2.510	0.050	-0.600	-0.420
2020/01/31 13:47:58.2	2.510	0.050	-0.630	-0.460
2020/01/31 13:47:58.3	2.510	0.050	-0.650	-0.500
2020/01/31 13:47:58.4	2.510	0.050	-0.670	-0.540
2020/01/31 13:47:58.5	2.510	0.040	-0.690	-0.570
2020/01/31 13:47:58.6	2.500	0.040	-0.700	-0.600
2020/01/31 13:47:58.7	2.500	0.040	-0.710	-0.620
2020/01/31 13:47:58.8	2.490	0.030	-0.710	-0.640
2020/01/31 13:47:58.9	2.480	0.020	-0.700	-0.660
2020/01/31 13:47:59.0	2.470	0.020	-0.690	-0.680
2020/01/31 13:47:59.1	2.460	0.010	-0.680	-0.690
2020/01/31 13:47:59.2	2.450	0.000	-0.660	-0.690
2020/01/31 13:47:59.3	2.440	-0.010	-0.640	-0.700
2020/01/31 13:47:59.4	2.430	-0.020	-0.620	-0.700
2020/01/31 13:47:59.5	2.420	-0.030	-0.590	-0.700
2020/01/31 13:47:59.6	2.410	-0.040	-0.560	-0.700
2020/01/31 13:47:59.7	2.400	-0.050	-0.520	-0.700
2020/01/31 13:47:59.8	2.390	-0.060	-0.490	-0.700
2020/01/31 13:47:59.9	2.380	-0.070	-0.460	-0.700
2020/01/31 13:48:00.0	2.370	-0.080	-0.420	-0.700
2020/01/31 13:48:00.1	2.360	-0.090	-0.380	-0.700
2020/01/31 13:48:00.2	2.350	-0.100	-0.350	-0.700
2020/01/31 13:48:00.3	2.350	-0.100	-0.310	-0.700
2020/01/31 13:48:00.4	2.340	-0.110	-0.280	-0.700
2020/01/31 13:48:00.5	2.340	-0.120	-0.240	-0.710
2020/01/31 13:48:00.6	2.340	-0.130	-0.220	-0.710
2020/01/31 13:48:00.7	2.340	-0.140	-0.180	-0.720
2020/01/31 13:48:00.8	2.340	-0.140	-0.150	-0.730
2020/01/31 13:48:00.9	2.340	-0.150	-0.120	-0.750
2020/01/31 13:48:01.0	2.350	-0.150	-0.090	-0.760
2020/01/31 13:48:01.1	2.360	-0.160	-0.070	-0.780
2020/01/31 13:48:01.2	2.370	-0.160	-0.050	-0.800
2020/01/31 13:48:01.3	2.380	-0.160	-0.030	-0.830
2020/01/31 13:48:01.4	2.390	-0.160	-0.010	-0.850
2020/01/31 13:48:01.5	2.410	-0.170	0.010	-0.870
2020/01/31 13:48:01.6	2.420	-0.170	0.020	-0.900
2020/01/31 13:48:01.7	2.440	-0.160	0.030	-0.920
2020/01/31 13:48:01.8	2.460	-0.160	0.040	-0.950
2020/01/31 13:48:01.9	2.480	-0.160	0.040	-0.970
2020/01/31 13:48:02.0	2.500	-0.150	0.040	-0.990
2020/01/31 13:48:02.1	2.520	-0.150	0.050	-1.010
2020/01/31 13:48:02.2	2.540	-0.140	0.040	-1.020
2020/01/31 13:48:02.3	2.560	-0.140	0.040	-1.040
2020/01/31 13:48:02.4	2.580	-0.130	0.040	-1.050
2020/01/31 13:48:02.5	2.600	-0.120	0.030	-1.050
2020/01/31 13:48:02.6	2.620	-0.120	0.020	-1.060
2020/01/31 13:48:02.7	2.630	-0.110	0.020	-1.060
2020/01/31 13:48:02.8	2.650	-0.100	0.010	-1.060
2020/01/31 13:48:02.9	2.660	-0.100	-0.000	-1.050
2020/01/31 13:48:03.0	2.670	-0.090	-0.010	-1.050
2020/01/31 13:48:03.1	2.690	-0.080	-0.020	-1.040
2020/01/31 13:48:03.2	2.700	-0.080	-0.030	-1.040
2020/01/31 13:48:03.3	2.710	-0.070	-0.040	-1.030
2020/01/31 13:48:03.4	2.710	-0.070	-0.050	-1.030
2020/01/31 13:48:03.5	2.720	-0.070	-0.060	-1.020
2020/01/31 13:48:03.6	2.730	-0.070	-0.070	-1.010
2020/01/31 13:48:03.7	2.740	-0.060	-0.080	-1.010
2020/01/31 13:48:03.8	2.740	-0.060	-0.090	-1.000
2020/01/31 13:48:03.9	2.740	-0.060	-0.100	-0.990
2020/01/31 13:48:04.0	2.730	-0.060	-0.110	-0.980
2020/01/31 13:48:04.1	2.730	-0.060	-0.110	-0.960
2020/01/31 13:48:04.2	2.720	-0.060	-0.110	-0.950
2020/01/31 13:48:04.3	2.710	-0.060	-0.110	-0.930
2020/01/31 13:48:04.4	2.690	-0.060	-0.110	-0.900
2020/01/31 13:48:04.5	2.680	-0.050	-0.110	-0.870
2020/01/31 13:48:04.6	2.650	-0.050	-0.110	-0.840
2020/01/31 13:48:04.7	2.630	-0.050	-0.100	-0.800
2020/01/31 13:48:04.8	2.610	-0.050	-0.090	-0.760
2020/01/31 13:48:04.9	2.580	-0.040	-0.080	-0.710
2020/01/31 13:48:05.0	2.560	-0.040	-0.070	-0.660
2020/01/31 13:48:05.1	2.530	-0.040	-0.060	-0.600
2020/01/31 13:48:05.2	2.490	-0.030	-0.050	-0.540
2020/01/31 13:48:05.3	2.460	-0.030	-0.040	-0.480
2020/01/31 13:48:05.4	2.430	-0.030	-0.020	-0.410
2020/01/31 13:48:05.5	2.390	-0.020	-0.010	-0.340
2020/01/31 13:48:05.6	2.350	-0.020	-0.000	-0.260
2020/01/31 13:48:05.7	2.310	-0.020	0.010	-0.190
2020/01/31 13:48:05.8	2.260	-0.020	0.020	-0.110
2020/01/31 13:48:05.9	2.220	-0.010	0.030	-0.040
2020/01/31 13:48:06.0	2.170	-0.010	0.030	0.030
2020/01/31 13:48:06.1	2.130	-0.010	0.040	0.100
2020/01/31 13:48:06.2	2.080	-0.010	0.040	0.170
2020/01/31 13:48:06.3	2.040	-0.010	0.030	0.240
2020/01/31 13:48:06.4	1.990	-0.010	0.030	0.300
2020/01/31 13:48:06.5	1.940	-0.010	0.020	0.350
2020/01/31 13:48:06.6	1.900	-0.010	-0.000	0.410
2020/01/31 13:48:06.7	1.860	-0.000	-0.020	0.460
2020/01/31 13:48:06.8	1.820	-0.000	-0.040	0.500
2020/01/31 13:48:06.9	1.780	-0.000	-0.060	0.530
2020/01/31 13:48:07.0	1.750	-0.000	-0.090	0.560
2020/01/31 13:48:07.1	1.720	-0.000	-0.120	0.580
2020/01/31 13:48:07.2	1.690	-0.000	-0.150	0.600
2020/01/31 13:48:07.3	1.670	0.000	-0.180	0.610
2020/01/31 13:48:07.4	1.650	0.000	-0.220	0.610
2020/01/31 13:48:07.5	1.630	0.010	-0.270	0.610
2020/01/31 13:48:07.6	1.620	0.010	-0.310	0.600
2020/01/31 13:48:07.7	1.610	0.020	-0.350	0.590
2020/01/31 13:48:07.8	1.610	0.030	-0.400	0.580
2020/01/31 13:48:07.9	1.620	0.030	-0.450	0.560
2020/01/31 13:48:08.0	1.620	0.040	-0.490	0.530
2020/01/31 13:48:08.1	1.630	0.050	-0.540	0.510
2020/01/31 13:48:08.2	1.640	0.060	-0.590	0.480
2020/01/31 13:48:08.3	1.660	0.070	-0.630	0.450
2020/01/31 13:48:08.4	1.670	0.080	-0.670	0.420
2020/01/31 13:48:08.5	1.690	0.100	-0.710	0.390
2020/01/31 13:48:08.6	1.700	0.110	-0.740	0.360
2020/01/31 13:48:08.7	1.710	0.120	-0.770	0.330
2020/01/31 13:48:08.8	1.730	0.130	-0.800	0.300
2020/01/31 13:48:08.9	1.750	0.140	-0.810	0.270
2020/01/31 13:48:09.0	1.770	0.140	-0.830	0.250
2020/01/31 13:48:09.1	1.790	0.150	-0.840	0.220
2020/01/31 13:48:09.2	1.810	0.160	-0.850	0.190
2020/01/31 13:48:09.3	1.830	0.170	-0.850	0.160
2020/01/31 13:48:09.4	1.850	0.170	-0.850	0.140
2020/01/31 13:48:09.5	1.880	0.170	-0.840	0.110
2020/01/31 13:48:09.6	1.900	0.180	-0.830	0.080
2020/01/31 13:48:09.7	1.930	0.180	-0.820	0.050
2020/01/31 13:48:09.8	1.960	0.180	-0.800	0.020
2020/01/31 13:48:09.9	1.990	0.180	-0.780	-0.010
2020/01/31 13:48:10.0	2.020	0.180	-0.760	-0.040
2020/01/31 13:48:10.1	2.060	0.180	-0.740	-0.070
2020/01/31 13:48:10.2	2.090	0.180	-0.720	-0.100
2020/01/31 13:48:10.3	2.130	0.180	-0.690	-0.130
2020/01/31 13:48:10.4	2.170	0.180	-0.670	-0.170
2020/01/31 13:48:10.5	2.210	0.180	-0.640	-0.200
2020/01/31 13:48:10.6	2.270	0.180	-0.610	-0.230
2020/01/31 13:48:10.7	2.310	0.170	-0.580	-0.260
2020/01/31 13:48:10.8	2.350	0.170	-0.550	-0.290
2020/01/31 13:48:10.9	2.390	0.170	-0.520	-0.320
2020/01/31 13:48:11.0	2.430	0.170	-0.490	-0.350
2020/01/31 13:48:11.1	2.470	0.160	-0.460	-0.380
2020/01/31 13:48:11.2	2.510	0.160	-0.430	-0.410
2020/01/31 13:48:11.3	2.540	0.160	-0.400	-0.440
2020/01/31 13:48:11.4	2.580	0.150	-0.360	-0.460
2020/01/31 13:48:11.5	2.610	0.150	-0.330	-0.490
2020/01/31 13:48:11.6	2.650	0.150	-0.300	-0.510
2020/01/31 13:48:11.7	2.670	0.140	-0.270	-0.530
2020/01/31 13:48:11.8	2.700	0.140	-0.240	-0.550
2020/01/31 13:48:11.9	2.720	0.130	-0.200	-0.570
2020/01/31 13:48:12.0	2.750	0.130	-0.170	-0.590
2020/01/31 13:48:12.1	2.770	0.120	-0.140	-0.600
2020/01/31 13:48:12.2	2.780	0.120	-0.110	-0.610
2020/01/31 13:48:12.3	2.790	0.110	-0.080	-0.620
2020/01/31 13:48:12.4	2.800	0.100	-0.050	-0.630
2020/01/31 13:48:12.5	2.810	0.090	-0.020	-0.640
2020/01/31 13:48:12.6	2.810	0.080	0.000	-0.640
2020/01/31 13:48:12.7	2.810	0.070	0.030	-0.640
2020/01/31 13:48:12.8	2.810	0.060	0.060	-0.640
2020/01/31 13:48:12.9	2.800	0.040	0.080	-0.640
2020/01/31 13:48:13.0	2.790	0.030	0.110	-0.640
2020/01/31 13:48:13.1	2.770	0.010	0.140	-0.630
2020/01/31 13:48:13.2	2.750	-0.010	0.160	-0.630
2020/01/31 13:48:13.3	2.730	-0.030	0.190	-0.620
2020/01/31 13:48:13.4	2.700	-0.040	0.210	-0.620
2020/01/31 13:48:13.5	2.670	-0.060	0.230	-0.610
2020/01/31 13:48:13.6	2.630	-0.080	0.250	-0.600
2020/01/31 13:48:13.7	2.590	-0.110	0.270	-0.590
2020/01/31 13:48:13.8	2.550	-0.130	0.290	-0.590
2020/01/31 13:48:13.9	2.500	-0.150	0.310	-0.580
2020/01/31 13:48:14.0	2.450	-0.170	0.330	-0.570
2020/01/31 13:48:14.1	2.400	-0.190	0.340	-0.560
2020/01/31 13:48:14.2	2.340	-0.220	0.350	-0.550
2020/01/31 13:48:14.3	2.280	-0.240	0.360	-0.540
2020/01/31 13:48:14.4	2.220	-0.260	0.370	-0.530
2020/01/31 13:48:14.5	2.160	-0.280	0.380	-0.520
2020/01/31 13:48:14.6	2.090	-0.300	0.390	-0.510
2020/01/31 13:48:14.7	2.020	-0.310	0.390	-0.500
2020/01/31 13:48:14.8	1.950	-0.330	0.390	-0.490
2020/01/31 13:48:14.9	1.890	-0.340	0.390	-0.480
2020/01/31 13:48:15.0	1.820	-0.350	0.390	-0.470
2020/01/31 13:48:15.1	1.750	-0.360	0.380	-0.460
2020/01/31 13:48:15.2	1.680	-0.370	0.370	-0.450
2020/01/31 13:48:15.3	1.620	-0.370	0.360	-0.440
2020/01/31 13:48:15.4	1.550	-0.370	0.350	-0.430
2020/01/31 13:48:15.5	1.490	-0.370	0.330	-0.420
2020/01/31 13:48:15.6	1.440	-0.370	0.300	-0.410
2020/01/31 13:48:15.7	1.380	-0.360	0.280	-0.400
2020/01/31 13:48:15.8	1.330	-0.350	0.250	-0.390
2020/01/31 13:48:15.9	1.280	-0.330	0.220	-0.380
2020/01/31 13:48:16.0	1.240	-0.310	0.180	-0.380
2020/01/31 13:48:16.1	1.190	-0.290	0.140	-0.380
2020/01/31 13:48:16.2	1.160	-0.270	0.100	-0.370
2020/01/31 13:48:16.3	1.130	-0.240	0.060	-0.370
2020/01/31 13:48:16.4	1.100	-0.210	0.010	-0.370
2020/01/31 13:48:16.5	1.080	-0.180	-0.040	-0.380
2020/01/31 13:48:16.6	1.050	-0.140	-0.090	-0.380
2020/01/31 13:48:16.7	1.040	-0.100	-0.150	-0.390
2020/01/31 13:48:16.8	1.030	-0.070	-0.210	-0.400
2020/01/31 13:48:16.9	1.030	-0.030	-0.260	-0.410
2020/01/31 13:48:17.0	1.030	0.020	-0.320	-0.420
2020/01/31 13:48:17.1	1.030	0.060	-0.380	-0.430
2020/01/31 13:48:17.2	1.040	0.100	-0.440	-0.450
2020/01/31 13:48:17.3	1.050	0.140	-0.490	-0.460
2020/01/31 13:48:17.4	1.070	0.180	-0.550	-0.480
2020/01/31 13:48:17.5	1.090	0.210	-0.600	-0.500
2020/01/31 13:48:17.6	1.110	0.250	-0.650	-0.510
2020/01/31 13:48:17.7	1.140	0.280	-0.700	-0.530
2020/01/31 13:48:17.8	1.160	0.310	-0.740	-0.550
2020/01/31 13:48:17.9	1.190	0.340	-0.770	-0.570
2020/01/31 13:48:18.0	1.220	0.360	-0.800	-0.580
2020/01/31 13:48:18.1	1.250	0.380	-0.830	-0.590
2020/01/31 13:48:18.2	1.280	0.400	-0.850	-0.610
2020/01/31 13:48:18.3	1.310	0.410	-0.860	-0.620
2020/01/31 13:48:18.4	1.340	0.420	-0.870	-0.620
2020/01/31 13:48:18.5	1.370	0.420	-0.870	-0.630
2020/01/31 13:48:18.6	1.410	0.420	-0.870	-0.630
2020/01/31 13:48:18.7	1.430	0.410	-0.860	-0.630
2020/01/31 13:48:18.8	1.460	0.400	-0.850	-0.630
2020/01/31 13:48:18.9	1.480	0.390	-0.820	-0.620
2020/01/31 13:48:19.0	1.510	0.370	-0.800	-0.620
2020/01/31 13:48:19.1	1.530	0.350	-0.770	-0.610
2020/01/31 13:48:19.2	1.550	0.320	-0.730	-0.600
2020/01/31 13:48:19.3	1.580	0.290	-0.700	-0.580
2020/01/31 13:48:19.4	1.600	0.260	-0.660	-0.560
2020/01/31 13:48:19.5	1.620	0.220	-0.620	-0.550
2020/01/31 13:48:19.6	1.630	0.190	-0.570	-0.530
2020/01/31 13:48:19.7	1.650	0.150	-0.530	-0.510
2020/01/31 13:48:19.8	1.680	0.110	-0.490	-0.490
2020/01/31 13:48:19.9	1.700	0.070	-0.450	-0.470
2020/01/31 13:48:20.0	1.720	0.030	-0.410	-0.440
2020/01/31 13:48:20.1	1.740	-0.010	-0.370	-0.420
2020/01/31 13:48:20.2	1.770	-0.050	-0.330	-0.400
2020/01/31 13:48:20.3	1.790	-0.090	-0.300	-0.370
2020/01/31 13:48:20.4	1.810	-0.130	-0.270	-0.350
2020/01/31 13:48:20.5	1.840	-0.170	-0.240	-0.330
2020/01/31 13:48:20.6	1.860	-0.210	-0.220	-0.300
2020/01/31 13:48:20.7	1.880	-0.240	-0.200	-0.270
2020/01/31 13:48:20.8	1.900	-0.270	-0.180	-0.250
2020/01/31 13:48:20.9	1.910	-0.300	-0.170	-0.220
2020/01/31 13:48:21.0	1.920	-0.330	-0.160	-0.190
2020/01/31 13:48:21.1	1.930	-0.360	-0.150	-0.160
2020/01/31 13:48:21.2	1.940	-0.380	-0.140	-0.130
2020/01/31 13:48:21.3	1.940	-0.410	-0.130	-0.100
2020/01/31 13:48:21.4	1.940	-0.430	-0.120	-0.070
2020/01/31 13:48:21.5	1.940	-0.440	-0.120	-0.030
2020/01/31 13:48:21.6	1.940	-0.460	-0.120	0.000
2020/01/31 13:48:21.7	1.930	-0.470	-0.110	0.040
2020/01/31 13:48:21.8	1.920	-0.480	-0.110	0.070
2020/01/31 13:48:21.9	1.910	-0.490	-0.110	0.100
2020/01/31 13:48:22.0	1.890	-0.500	-0.110	0.130
2020/01/31 13:48:22.1	1.880	-0.500	-0.110	0.160
2020/01/31 13:48:22.2	1.860	-0.500	-0.100	0.180
2020/01/31 13:48:22.3	1.850	-0.500	-0.100	0.200
2020/01/31 13:48:22.4	1.830	-0.500	-0.100	0.230
2020/01/31 13:48:22.5	1.810	-0.500	-0.100	0.240
2020/01/31 13:48:22.6	1.800	-0.490	-0.100	0.260
2020/01/31 13:48:22.7	1.790	-0.480	-0.100	0.270
2020/01/31 13:48:22.8	1.770	-0.470	-0.100	0.280
2020/01/31 13:48:22.9	1.760	-0.450	-0.100	0.290
2020/01/31 13:48:23.0	1.750	-0.440	-0.100	0.300
2020/01/31 13:48:23.1	1.740	-0.420	-0.100	0.300
2020/01/31 13:48:23.2	1.730	-0.400	-0.100	0.300
2020/01/31 13:48:23.3	1.720	-0.380	-0.100	0.300
2020/01/31 13:48:23.4	1.710	-0.350	-0.100	0.300
2020/01/31 13:48:23.5	1.700	-0.330	-0.100	0.300
2020/01/31 13:48:23.6	1.690	-0.300	-0.100	0.290
2020/01/31 13:48:23.7	1.680	-0.270	-0.100	0.290
2020/01/31 13:48:23.8	1.680	-0.240	-0.100	0.290
2020/01/31 13:48:23.9	1.670	-0.210	-0.100	0.280
2020/01/31 13:48:24.0	1.670	-0.170	-0.100	0.280
2020/01/31 13:48:24.1	1.660	-0.140	-0.100	0.280
2020/01/31 13:48:24.2	1.650	-0.100	-0.100	0.270
2020/01/31 13:48:24.3	1.640	-0.070	-0.100	0.270
2020/01/31 13:48:24.4	1.630	-0.030	-0.100	0.260
2020/01/31 13:48:24.5	1.620	0.000	-0.090	0.260
2020/01/31 13:48:24.6	1.610	0.040	-0.090	0.260
2020/01/31 13:48:24.7	1.600	0.070	-0.090	0.260
2020/01/31 13:48:24.8	1.590	0.110	-0.080	0.250
2020/01/31 13:48:24.9	1.570	0.140	-0.070	0.250
2020/01/31 13:48:25.0	1.560	0.170	-0.070	0.240
2020/01/31 13:48:25.1	1.540	0.200	-0.060	0.240
2020/01/31 13:48:25.2	1.520	0.230	-0.050	0.230
2020/01/31 13:48:25.3	1.510	0.250	-0.050	0.230
2020/01/31 13:48:25.4	1.490	0.280	-0.040	0.220
2020/01/31 13:48:25.5	1.460	0.300	-0.040	0.210
2020/01/31 13:48:25.6	1.450	0.320	-0.030	0.210
2020/01/31 13:48:25.7	1.430	0.340	-0.030	0.200
2020/01/31 13:48:25.8	1.410	0.350	-0.030	0.190
2020/01/31 13:48:25.9	1.380	0.370	-0.030	0.190
2020/01/31 13:48:26.0	1.360	0.380	-0.030	0.180
2020/01/31 13:48:26.1	1.340	0.390	-0.030	0.170
2020/01/31 13:48:26.2	1.310	0.400	-0.040	0.160
2020/01/31 13:48:26.3	1.290	0.410	-0.050	0.160
2020/01/31 13:48:26.4	1.270	0.420	-0.060	0.150
2020/01/31 13:48:26.5	1.240	0.430	-0.070	0.140
2020/01/31 13:48:26.6	1.210	0.430	-0.090	0.130
2020/01/31 13:48:26.7	1.190	0.430	-0.110	0.120
2020/01/31 13:48:26.8	1.180	0.440	-0.130	0.100
2020/01/31 13:48:26.9	1.160	0.440	-0.160	0.080
2020/01/31 13:48:27.0	1.140	0.440	-0.180	0.070
2020/01/31 13:48:27.1	1.130	0.440	-0.210	0.050
2020/01/31 13:48:27.2	1.120	0.440	-0.240	0.020
2020/01/31 13:48:27.3	1.110	0.440	-0.270	0.000
2020/01/31 13:48:27.4	1.100	0.440	-0.300	-0.020
2020/01/31 13:48:27.5	1.090	0.450	-0.330	-0.050
2020/01/31 13:48:27.6	1.090	0.450	-0.360	-0.070
2020/01/31 13:48:27.7	1.090	0.450	-0.400	-0.100
2020/01/31 13:48:27.8	1.090	0.450	-0.430	-0.120
2020/01/31 13:48:27.9	1.090	0.450	-0.450	-0.150
2020/01/31 13:48:28.0	1.090	0.450	-0.480	-0.170
2020/01/31 13:48:28.1	1.090	0.450	-0.500	-0.200
2020/01/31 13:48:28.2	1.090	0.440	-0.520	-0.220
2020/01/31 13:48:28.3	1.100	0.440	-0.540	-0.250
2020/01/31 13:48:28.4	1.100	0.440	-0.560	-0.270
2020/01/31 13:48:28.5	1.110	0.430	-0.570	-0.290
2020/01/31 13:48:28.6	1.120	0.430	-0.580	-0.310
2020/01/31 13:48:28.7	1.120	0.420	-0.580	-0.330
2020/01/31 13:48:28.8	1.130	0.410	-0.580	-0.350
2020/01/31 13:48:28.9	1.130	0.390	-0.570	-0.360
2020/01/31 13:48:29.0	1.140	0.380	-0.570	-0.380
2020/01/31 13:48:29.1	1.140	0.360	-0.550	-0.390
2020/01/31 13:48:29.2	1.140	0.340	-0.540	-0.400
2020/01/31 13:48:29.3	1.140	0.320	-0.520	-0.400
2020/01/31 13:48:29.4	1.140	0.300	-0.490	-0.410
2020/01/31 13:48:29.5	1.130	0.270	-0.460	-0.410
2020/01/31 13:48:29.6	1.120	0.240	-0.430	-0.410
2020/01/31 13:48:29.7	1.110	0.210	-0.400	-0.410
2020/01/31 13:48:29.8	1.100	0.180	-0.360	-0.400
2020/01/31 13:48:29.9	1.090	0.140	-0.320	-0.400
2020/01/31 13:48:30.0	1.080	0.100	-0.280	-0.390
2020/01/31 13:48:30.1	1.060	0.060	-0.240	-0.380
2020/01/31 13:48:30.2	1.050	0.020	-0.200	-0.370
2020/01/31 13:48:30.3	1.040	-0.020	-0.160	-0.360
2020/01/31 13:48:30.4	1.020	-0.060	-0.120	-0.350
2020/01/31 13:48:30.5	1.010	-0.100	-0.080	-0.340
2020/01/31 13:48:30.6	1.000	-0.140	-0.040	-0.320
2020/01/31 13:48:30.7	0.990	-0.180	-0.010	-0.310
2020/01/31 13:48:30.8	0.970	-0.220	0.020	-0.310
2020/01/31 13:48:30.9	0.970	-0.260	0.050	-0.300
2020/01/31 13:48:31.0	0.960	-0.300	0.070	-0.300
2020/01/31 13:48:31.1	0.950	-0.340	0.090	-0.300
2020/01/31 13:48:31.2	0.950	-0.370	0.100	-0.300
2020/01/31 13:48:31.3	0.950	-0.400	0.110	-0.300
2020/01/31 13:48:31.4	0.950	-0.430	0.110	-0.310
2020/01/31 13:48:31.5	0.960	-0.450	0.110	-0.320
2020/01/31 13:48:31.6	0.970	-0.470	0.100	-0.330
2020/01/31 13:48:31.7	0.980	-0.490	0.090	-0.350
2020/01/31 13:48:31.8	1.000	-0.500	0.070	-0.360
2020/01/31 13:48:31.9	1.010	-0.510	0.050	-0.380
2020/01/31 13:48:32.0	1.030	-0.520	0.020	-0.400
2020/01/31 13:48:32.1	1.050	-0.520	-0.010	-0.420
2020/01/31 13:48:32.2	1.070	-0.520	-0.040	-0.440
2020/01/31 13:48:32.3	1.100	-0.520	-0.080	-0.460
2020/01/31 13:48:32.4	1.120	-0.520	-0.120	-0.490
2020/01/31 13:48:32.5	1.150	-0.510	-0.160	-0.510
2020/01/31 13:48:32.6	1.170	-0.500	-0.200	-0.530
2020/01/31 13:48:32.7	1.200	-0.490	-0.240	-0.560
2020/01/31 13:48:32.8	1.230	-0.480	-0.280	-0.580
2020/01/31 13:48:32.9	1.250	-0.460	-0.310	-0.610
2020/01/31 13:48:33.0	1.280	-0.450	-0.350	-0.630
2020/01/31 13:48:33.1	1.310	-0.440	-0.380	-0.660
2020/01/31 13:48:33.2	1.330	-0.420	-0.410	-0.680
2020/01/31 13:48:33.3	1.350	-0.410	-0.440	-0.700
2020/01/31 13:48:33.4	1.370	-0.390	-0.460	-0.720
2020/01/31 13:48:33.5	1.390	-0.380	-0.480	-0.730
2020/01/31 13:48:33.6	1.410	-0.370	-0.500	-0.750
2020/01/31 13:48:33.7	1.430	-0.360	-0.500	-0.760
2020/01/31 13:48:33.8	1.440	-0.350	-0.510	-0.770
2020/01/31 13:48:33.9	1.450	-0.340	-0.510	-0.780
2020/01/31 13:48:34.0	1.470	-0.330	-0.500	-0.790
2020/01/31 13:48:34.1	1.480	-0.320	-0.490	-0.800
2020/01/31 13:48:34.2	1.490	-0.320	-0.480	-0.800
2020/01/31 13:48:34.3	1.490	-0.310	-0.460	-0.800
2020/01/31 13:48:34.4	1.500	-0.310	-0.440	-0.800
2020/01/31 13:48:34.5	1.510	-0.310	-0.420	-0.800
2020/01/31 13:48:34.6	1.520	-0.310	-0.390	-0.790
2020/01/31 13:48:34.7	1.520	-0.300	-0.360	-0.780
2020/01/31 13:48:34.8	1.520	-0.300	-0.320	-0.770
2020/01/31 13:48:34.9	1.520	-0.300	-0.290	-0.760
2020/01/31 13:48:35.0	1.520	-0.300	-0.250	-0.740
2020/01/31 13:48:35.1	1.520	-0.300	-0.220	-0.730
2020/01/31 13:48:35.2	1.520	-0.300	-0.180	-0.700
2020/01/31 13:48:35.3	1.510	-0.290	-0.140	-0.680
2020/01/31 13:48:35.4	1.510	-0.290	-0.110	-0.660
2020/01/31 13:48:35.5	1.500	-0.280	-0.070	-0.630
2020/01/31 13:48:35.6	1.500	-0.280	-0.040	-0.590
2020/01/31 13:48:35.7	1.490	-0.270	-0.010	-0.560
2020/01/31 13:48:35.8	1.480	-0.260	0.020	-0.520
2020/01/31 13:48:35.9	1.460	-0.240	0.040	-0.490
2020/01/31 13:48:36.0	1.440	-0.230	0.060	-0.450
2020/01/31 13:48:36.1	1.430	-0.210	0.070	-0.410
2020/01/31 13:48:36.2	1.410	-0.190	0.080	-0.370
2020/01/31 13:48:36.3	1.390	-0.170	0.090	-0.320
2020/01/31 13:48:36.4	1.360	-0.150	0.090	-0.280
2020/01/31 13:48:36.5	1.340	-0.120	0.080	-0.240
2020/01/31 13:48:36.6	1.300	-0.100	0.070	-0.200
2020/01/31 13:48:36.7	1.270	-0.070	0.050	-0.160
2020/01/31 13:48:36.8	1.240	-0.040	0.040	-0.110
2020/01/31 13:48:36.9	1.210	-0.010	0.020	-0.070
2020/01/31 13:48:37.0	1.180	0.030	-0.010	-0.030
2020/01/31 13:48:37.1	1.150	0.060	-0.040	0.010
2020/01/31 13:48:37.2	1.120	0.090	-0.070	0.050
2020/01/31 13:48:37.3	1.090	0.130	-0.100	0.090
2020/01/31 13:48:37.4	1.060	0.160	-0.130	0.130
2020/01/31 13:48:37.5	1.020	0.200	-0.170	0.170
2020/01/31 13:48:37.6	0.990	0.230	-0.200	0.210
2020/01/31 13:48:37.7	0.960	0.270	-0.240	0.240
2020/01/31 13:48:37.8	0.920	0.300	-0.270	0.270
2020/01/31 13:48:37.9	0.900	0.330	-0.310	0.310
2020/01/31 13:48:38.0	0.870	0.360	-0.340	0.330
2020/01/31 13:48:38.1	0.840	0.390	-0.380	0.360
2020/01/31 13:48:38.2	0.820	0.420	-0.410	0.390
2020/01/31 13:48:38.3	0.790	0.440	-0.440	0.410
2020/01/31 13:48:38.4	0.770	0.470	-0.470	0.430
2020/01/31 13:48:38.5	0.760	0.490	-0.490	0.450
2020/01/31 13:48:38.6	0.730	0.510	-0.520	0.470
2020/01/31 13:48:38.7	0.720	0.530	-0.540	0.480
2020/01/31 13:48:38.8	0.710	0.540	-0.550	0.500
2020/01/31 13:48:38.9	0.700	0.560	-0.570	0.510
2020/01/31 13:48:39.0	0.700	0.570	-0.570	0.520
2020/01/31 13:48:39.1	0.700	0.580	-0.580	0.540
2020/01/31 13:48:39.2	0.700	0.580	-0.580	0.550
2020/01/31 13:48:39.3	0.700	0.590	-0.580	0.560
2020/01/31 13:48:39.4	0.700	0.590	-0.570	0.570
2020/01/31 13:48:39.5	0.710	0.590	-0.550	0.580
2020/01/31 13:48:39.6	0.710	0.580	-0.540	0.590
2020/01/31 13:48:39.7	0.720	0.570	-0.520	0.600
2020/01/31 13:48:39.8	0.730	0.570	-0.500	0.610
2020/01/31 13:48:39.9	0.740	0.550	-0.470	0.620
2020/01/31 13:48:40.0	0.750	0.540	-0.440	0.630
2020/01/31 13:48:40.1	0.760	0.520	-0.410	0.630
2020/01/31 13:48:40.2	0.770	0.510	-0.380	0.640
2020/01/31 13:48:40.3	0.790	0.490	-0.340	0.640
2020/01/31 13:48:40.4	0.800	0.470	-0.310	0.640
2020/01/31 13:48:40.5	0.810	0.440	-0.270	0.640
2020/01/31 13:48:40.6	0.830	0.420	-0.230	0.640
2020/01/31 13:48:40.7	0.840	0.390	-0.200	0.630
2020/01/31 13:48:40.8	0.860	0.360	-0.160	0.630
2020/01/31 13:48:40.9	0.870	0.340	-0.120	0.620
2020/01/31 13:48:41.0	0.880	0.310	-0.090	0.600
2020/01/31 13:48:41.1	0.890	0.280	-0.060	0.590
2020/01/31 13:48:41.2	0.900	0.250	-0.020	0.570
2020/01/31 13:48:41.3	0.910	0.220	0.010	0.560
2020/01/31 13:48:41.4	0.920	0.180	0.030	0.540
2020/01/31 13:48:41.5	0.930	0.150	0.060	0.510
2020/01/31 13:48:41.6	0.920	0.120	0.080	0.490
2020/01/31 13:48:41.7	0.930	0.090	0.100	0.460
2020/01/31 13:48:41.8	0.930	0.070	0.120	0.440
2020/01/31 13:48:41.9	0.930	0.040	0.140	0.410
2020/01/31 13:48:42.0	0.930	0.010	0.150	0.380
2020/01/31 13:48:42.1	0.930	-0.020	0.160	0.350
2020/01/31 13:48:42.2	0.930	-0.040	0.170	0.320
2020/01/31 13:48:42.3	0.930	-0.060	0.170	0.290
2020/01/31 13:48:42.4	0.930	-0.090	0.170	0.260
2020/01/31 13:48:42.5	0.930	-0.110	0.170	0.230
2020/01/31 13:48:42.6	0.940	-0.130	0.170	0.210
2020/01/31 13:48:42.7	0.930	-0.140	0.160	0.180
2020/01/31 13:48:42.8	0.930	-0.160	0.140	0.150
2020/01/31 13:48:42.9	0.930	-0.170	0.120	0.120
2020/01/31 13:48:43.0	0.930	-0.180	0.100	0.090
2020/01/31 13:48:43.1	0.930	-0.190	0.080	0.060
2020/01/31 13:48:43.2	0.930	-0.200	0.050	0.030
2020/01/31 13:48:43.3	0.930	-0.210	0.020	0.000
2020/01/31 13:48:43.4	0.930	-0.210	-0.020	-0.030
2020/01/31 13:48:43.5	0.940	-0.210	-0.060	-0.060
2020/01/31 13:48:43.6	0.950	-0.210	-0.100	-0.090
2020/01/31 13:48:43.7	0.960	-0.210	-0.140	-0.120
2020/01/31 13:48:43.8	0.970	-0.210	-0.190	-0.160
2020/01/31 13:48:43.9	0.980	-0.210	-0.230	-0.190
2020/01/31 13:48:44.0	1.000	-0.200	-0.280	-0.230
2020/01/31 13:48:44.1	1.010	-0.200	-0.320	-0.260
2020/01/31 13:48:44.2	1.030	-0.190	-0.370	-0.300
2020/01/31 13:48:44.3	1.050	-0.180	-0.410	-0.340
2020/01/31 13:48:44.4	1.060	-0.170	-0.450	-0.380
2020/01/31 13:48:44.5	1.080	-0.170	-0.490	-0.420
2020/01/31 13:48:44.6	1.110	-0.160	-0.530	-0.470
2020/01/31 13:48:44.7	1.130	-0.150	-0.560	-0.510
2020/01/31 13:48:44.8	1.150	-0.140	-0.590	-0.550
2020/01/31 13:48:44.9	1.170	-0.140	-0.620	-0.590
2020/01/31 13:48:45.0	1.190	-0.130	-0.640	-0.630
2020/01/31 13:48:45.1	1.210	-0.120	-0.660	-0.680
2020/01/31 13:48:45.2	1.230	-0.110	-0.670	-0.720
2020/01/31 13:48:45.3	1.250	-0.110	-0.680	-0.760
2020/01/31 13:48:45.4	1.270	-0.100	-0.690	-0.790
2020/01/31 13:48:45.5	1.280	-0.100	-0.690	-0.830
2020/01/31 13:48:45.6	1.310	-0.100	-0.690	-0.860
2020/01/31 13:48:45.7	1.320	-0.100	-0.680	-0.900
2020/01/31 13:48:45.8	1.340	-0.090	-0.680	-0.930
2020/01/31 13:48:45.9	1.350	-0.090	-0.660	-0.960
2020/01/31 13:48:46.0	1.370	-0.090	-0.650	-0.990
2020/01/31 13:48:46.1	1.380	-0.100	-0.640	-1.010
2020/01/31 13:48:46.2	1.390	-0.100	-0.620	-1.040
2020/01/31 13:48:46.3	1.400	-0.100	-0.600	-1.060
2020/01/31 13:48:46.4	1.410	-0.110	-0.590	-1.080
2020/01/31 13:48:46.5	1.420	-0.110	-0.570	-1.090
2020/01/31 13:48:46.6	1.430	-0.120	-0.560	-1.110
2020/01/31 13:48:46.7	1.440	-0.130	-0.540	-1.120
2020/01/31 13:48:46.8	1.450	-0.140	-0.520	-1.140
2020/01/31 13:48:46.9	1.460	-0.140	-0.510	-1.150
2020/01/31 13:48:47.0	1.470	-0.150	-0.490	-1.160
2020/01/31 13:48:47.1	1.490	-0.160	-0.480	-1.170
2020/01/31 13:48:47.2	1.500	-0.170	-0.460	-1.180
2020/01/31 13:48:47.3	1.510	-0.180	-0.450	-1.190
2020/01/31 13:48:47.4	1.520	-0.190	-0.430	-1.200
2020/01/31 13:48:47.5	1.530	-0.200	-0.420	-1.210
2020/01/31 13:48:47.6	1.540	-0.200	-0.400	-1.210
2020/01/31 13:48:47.7	1.550	-0.210	-0.390	-1.220
2020/01/31 13:48:47.8	1.560	-0.220	-0.370	-1.220
2020/01/31 13:48:47.9	1.570	-0.230	-0.350	-1.220
2020/01/31 13:48:48.0	1.570	-0.230	-0.330	-1.220
2020/01/31 13:48:48.1	1.580	-0.240	-0.300	-1.220
2020/01/31 13:48:48.2	1.580	-0.250	-0.280	-1.210
2020/01/31 13:48:48.3	1.580	-0.250	-0.250	-1.190
2020/01/31 13:48:48.4	1.580	-0.260	-0.210	-1.180
2020/01/31 13:48:48.5	1.580	-0.260	-0.180	-1.160
2020/01/31 13:48:48.6	1.570	-0.260	-0.140	-1.130
2020/01/31 13:48:48.7	1.560	-0.270	-0.100	-1.100
2020/01/31 13:48:48.8	1.550	-0.270	-0.050	-1.060
2020/01/31 13:48:48.9	1.530	-0.270	0.000	-1.020
2020/01/31 13:48:49.0	1.510	-0.270	0.050	-0.970
2020/01/31 13:48:49.1	1.490	-0.270	0.110	-0.920
2020/01/31 13:48:49.2	1.470	-0.260	0.160	-0.860
2020/01/31 13:48:49.3	1.440	-0.260	0.220	-0.790
2020/01/31 13:48:49.4	1.410	-0.260	0.280	-0.720
2020/01/31 13:48:49.5	1.380	-0.250	0.330	-0.650
2020/01/31 13:48:49.6	1.350	-0.240	0.390	-0.570
2020/01/31 13:48:49.7	1.320	-0.240	0.440	-0.480
2020/01/31 13:48:49.8	1.280	-0.230	0.490	-0.390
2020/01/31 13:48:49.9	1.250	-0.220	0.540	-0.300
2020/01/31 13:48:50.0	1.210	-0.210	0.580	-0.210
2020/01/31 13:48:50.1	1.170	-0.190	0.610	-0.110
2020/01/31 13:48:50.2	1.140	-0.180	0.640	-0.020
2020/01/31 13:48:50.3	1.100	-0.170	0.660	0.080
2020/01/31 13:48:50.4	1.060	-0.150	0.680	0.170
2020/01/31 13:48:50.5	1.030	-0.140	0.690	0.270
2020/01/31 13:48:50.6	0.990	-0.120	0.690	0.360
2020/01/31 13:48:50.7	0.960	-0.110	0.680	0.450
2020/01/31 13:48:50.8	0.930	-0.090	0.660	0.530
2020/01/31 13:48:50.9	0.910	-0.070	0.640	0.600
2020/01/31 13:48:51.0	0.880	-0.050	0.610	0.670
2020/01/31 13:48:51.1	0.860	-0.030	0.570	0.730
2020/01/31 13:48:51.2	0.840	-0.000	0.530	0.790
2020/01/31 13:48:51.3	0.830	0.020	0.470	0.840
2020/01/31 13:48:51.4	0.810	0.040	0.410	0.880
2020/01/31 13:48:51.5	0.810	0.070	0.350	0.920
2020/01/31 13:48:51.6	0.800	0.090	0.280	0.960
2020/01/31 13:48:51.7	0.790	0.120	0.200	0.990
2020/01/31 13:48:51.8	0.790	0.140	0.120	1.010
2020/01/31 13:48:51.9	0.800	0.170	0.040	1.030
2020/01/31 13:48:52.0	0.800	0.200	-0.040	1.040
2020/01/31 13:48:52.1	0.810	0.220	-0.130	1.060
2020/01/31 13:48:52.2	0.820	0.250	-0.210	1.070
2020/01/31 13:48:52.3	0.840	0.270	-0.300	1.080
2020/01/31 13:48:52.4	0.850	0.300	-0.380	1.080
2020/01/31 13:48:52.5	0.860	0.320	-0.460	1.090
2020/01/31 13:48:52.6	0.880	0.350	-0.530	1.100
2020/01/31 13:48:52.7	0.900	0.370	-0.610	1.100
2020/01/31 13:48:52.8	0.920	0.390	-0.670	1.100
2020/01/31 13:48:52.9	0.940	0.410	-0.740	1.100
2020/01/31 13:48:53.0	0.960	0.430	-0.800	1.100
2020/01/31 13:48:53.1	0.980	0.440	-0.850	1.100
2020/01/31 13:48:53.2	1.010	0.460	-0.900	1.090
2020/01/31 13:48:53.3	1.030	0.470	-0.950	1.090
2020/01/31 13:48:53.4	1.060	0.480	-0.990	1.080
2020/01/31 13:48:53.5	1.090	0.490	-1.020	1.070
2020/01/31 13:48:53.6	1.130	0.500	-1.060	1.060
2020/01/31 13:48:53.7	1.160	0.500	-1.080	1.040
2020/01/31 13:48:53.8	1.190	0.500	-1.100	1.020
2020/01/31 13:48:53.9	1.220	0.510	-1.110	1.000
2020/01/31 13:48:54.0	1.260	0.510	-1.120	0.980
2020/01/31 13:48:54.1	1.300	0.500	-1.130	0.950
2020/01/31 13:48:54.2	1.330	0.500	-1.130	0.920
2020/01/31 13:48:54.3	1.370	0.500	-1.120	0.890
2020/01/31 13:48:54.4	1.410	0.490	-1.110	0.850
2020/01/31 13:48:54.5	1.450	0.480	-1.100	0.810
2020/01/31 13:48:54.6	1.490	0.470	-1.080	0.770
2020/01/31 13:48:54.7	1.520	0.460	-1.060	0.730
2020/01/31 13:48:54.8	1.560	0.440	-1.040	0.680
2020/01/31 13:48:54.9	1.600	0.430	-1.010	0.630
2020/01/31 13:48:55.0	1.640	0.410	-0.970	0.580
2020/01/31 13:48:55.1	1.670	0.400	-0.930	0.530
2020/01/31 13:48:55.2	1.700	0.380	-0.890	0.480
2020/01/31 13:48:55.3	1.740	0.360	-0.850	0.430
2020/01/31 13:48:55.4	1.770	0.340	-0.800	0.380
2020/01/31 13:48:55.5	1.790	0.320	-0.750	0.330
2020/01/31 13:48:55.6	1.830	0.300	-0.710	0.280
2020/01/31 13:48:55.7	1.850	0.280	-0.650	0.230
2020/01/31 13:48:55.8	1.870	0.250	-0.600	0.180
2020/01/31 13:48:55.9	1.890	0.230	-0.540	0.140
2020/01/31 13:48:56.0	1.900	0.210	-0.490	0.090
2020/01/31 13:48:56.1	1.920	0.180	-0.440	0.050
2020/01/31 13:48:56.2	1.930	0.160	-0.380	0.010
2020/01/31 13:48:56.3	1.940	0.130	-0.330	-0.040
2020/01/31 13:48:56.4	1.940	0.110	-0.280	-0.080
2020/01/31 13:48:56.5	1.950	0.080	-0.230	-0.120
2020/01/31 13:48:56.6	1.960	0.060	-0.180	-0.150
2020/01/31 13:48:56.7	1.960	0.030	-0.130	-0.190
2020/01/31 13:48:56.8	1.960	0.010	-0.090	-0.230
2020/01/31 13:48:56.9	1.970	-0.020	-0.050	-0.270
2020/01/31 13:48:57.0	1.970	-0.040	-0.010	-0.310
2020/01/31 13:48:57.1	1.970	-0.060	0.020	-0.350
2020/01/31 13:48:57.2	1.970	-0.090	0.060	-0.380
2020/01/31 13:48:57.3	1.970	-0.110	0.090	-0.420
2020/01/31 13:48:57.4	1.970	-0.130	0.110	-0.460
2020/01/31 13:48:57.5	1.970	-0.150	0.140	-0.500
2020/01/31 13:48:57.6	1.970	-0.170	0.160	-0.530
2020/01/31 13:48:57.7	1.970	-0.190	0.180	-0.560
2020/01/31 13:48:57.8	1.960	-0.200	0.200	-0.600
2020/01/31 13:48:57.9	1.960	-0.220	0.210	-0.630
2020/01/31 13:48:58.0	1.950	-0.230	0.230	-0.660
2020/01/31 13:48:58.1	1.950	-0.250	0.240	-0.690
2020/01/31 13:48:58.2	1.940	-0.260	0.250	-0.720
2020/01/31 13:48:58.3	1.930	-0.270	0.260	-0.750
2020/01/31 13:48:58.4	1.930	-0.280	0.270	-0.770
2020/01/31 13:48:58.5	1.920	-0.290	0.280	-0.800
2020/01/31 13:48:58.6	1.920	-0.300	0.280	-0.820
2020/01/31 13:48:58.7	1.910	-0.310	0.290	-0.830
2020/01/31 13:48:58.8	1.910	-0.320	0.290	-0.850
2020/01/31 13:48:58.9	1.900	-0.330	0.300	-0.870
2020/01/31 13:48:59.0	1.890	-0.340	0.300	-0.880
2020/01/31 13:48:59.1	1.890	-0.350	0.300	-0.890
2020/01/31 13:48:59.2	1.880	-0.350	0.300	-0.900
2020/01/31 13:48:59.3	1.880	-0.360	0.300	-0.910
2020/01/31 13:48:59.4	1.880	-0.370	0.300	-0.920
2020/01/31 13:48:59.5	1.880	-0.370	0.300	-0.920
2020/01/31 13:48:59.6	1.880	-0.380	0.300	-0.920
2020/01/31 13:48:59.7	1.880	-0.390	0.290	-0.930
2020/01/31 13:48:59.8	1.880	-0.390	0.280	-0.930
2020/01/31 13:48:59.9	1.890	-0.400	0.260	-0.930
2020/01/31 13:49:00.0	1.890	-0.410	0.250	-0.940
2020/01/31 13:49:00.1	1.900	-0.410	0.230	-0.940
2020/01/31 13:49:00.2	1.910	-0.410	0.200	-0.950
2020/01/31 13:49:00.3	1.930	-0.420	0.180	-0.960
2020/01/31 13:49:00.4	1.940	-0.420	0.150	-0.960
2020/01/31 13:49:00.5	1.960	-0.420	0.120	-0.970
2020/01/31 13:49:00.6	1.990	-0.420	0.080	-0.980
2020/01/31 13:49:00.7	2.010	-0.420	0.040	-0.990
2020/01/31 13:49:00.8	2.030	-0.420	-0.000	-0.990
2020/01/31 13:49:00.9	2.060	-0.420	-0.050	-1.000
2020/01/31 13:49:01.0	2.080	-0.420	-0.090	-1.010
2020/01/31 13:49:01.1	2.100	-0.420	-0.130	-1.020
2020/01/31 13:49:01.2	2.130	-0.410	-0.180	-1.030
2020/01/31 13:49:01.3	2.150	-0.410	-0.220	-1.030
2020/01/31 13:49:01.4	2.170	-0.400	-0.260	-1.040
2020/01/31 13:49:01.5	2.190	-0.400	-0.300	-1.040
2020/01/31 13:49:01.6	2.210	-0.390	-0.340	-1.030
2020/01/31 13:49:01.7	2.220	-0.380	-0.380	-1.030
2020/01/31 13:49:01.8	2.230	-0.370	-0.410	-1.030
2020/01/31 13:49:01.9	2.240	-0.360	-0.440	-1.020
2020/01/31 13:49:02.0	2.250	-0.350	-0.470	-1.010
2020/01/31 13:49:02.1	2.260	-0.330	-0.490	-1.000
2020/01/31 13:49:02.2	2.260	-0.320	-0.510	-0.980
2020/01/31 13:49:02.3	2.260	-0.300	-0.530	-0.960
2020/01/31 13:49:02.4	2.260	-0.290	-0.540	-0.940
2020/01/31 13:49:02.5	2.260	-0.270	-0.550	-0.920
2020/01/31 13:49:02.6	2.260	-0.250	-0.560	-0.890
2020/01/31 13:49:02.7	2.260	-0.230	-0.560	-0.860
2020/01/31 13:49:02.8	2.250	-0.210	-0.560	-0.830
2020/01/31 13:49:02.9	2.240	-0.190	-0.550	-0.790
2020/01/31 13:49:03.0	2.230	-0.160	-0.540	-0.750
2020/01/31 13:49:03.1	2.220	-0.140	-0.530	-0.710
2020/01/31 13:49:03.2	2.210	-0.110	-0.510	-0.670
2020/01/31 13:49:03.3	2.190	-0.090	-0.490	-0.620
2020/01/31 13:49:03.4	2.170	-0.060	-0.470	-0.560
2020/01/31 13:49:03.5	2.160	-0.030	-0.450	-0.510
2020/01/31 13:49:03.6	2.140	-0.000	-0.430	-0.440
2020/01/31 13:49:03.7	2.120	0.020	-0.400	-0.380
2020/01/31 13:49:03.8	2.100	0.050	-0.380	-0.320
2020/01/31 13:49:03.9	2.080	0.080	-0.350	-0.260
2020/01/31 13:49:04.0	2.070	0.110	-0.330	-0.190
2020/01/31 13:49:04.1	2.050	0.140	-0.300	-0.120
2020/01/31 13:49:04.2	2.030	0.170	-0.280	-0.060
2020/01/31 13:49:04.3	2.010	0.200	-0.250	0.010
2020/01/31 13:49:04.4	2.000	0.230	-0.230	0.080
2020/01/31 13:49:04.5	1.980	0.250	-0.210	0.140
2020/01/31 13:49:04.6	1.960	0.280	-0.190	0.210
2020/01/31 13:49:04.7	1.950	0.310	-0.180	0.270
2020/01/31 13:49:04.8	1.930	0.330	-0.160	0.330
2020/01/31 13:49:04.9	1.920	0.360	-0.150	0.390
2020/01/31 13:49:05.0	1.920	0.380	-0.140	0.440
2020/01/31 13:49:05.1	1.910	0.400	-0.130	0.500
2020/01/31 13:49:05.2	1.900	0.420	-0.120	0.540
2020/01/31 13:49:05.3	1.900	0.440	-0.120	0.590
2020/01/31 13:49:05.4	1.900	0.460	-0.130	0.630
2020/01/31 13:49:05.5	1.900	0.480	-0.130	0.660
2020/01/31 13:49:05.6	1.900	0.490	-0.140	0.700
2020/01/31 13:49:05.7	1.910	0.510	-0.160	0.730
2020/01/31 13:49:05.8	1.920	0.520	-0.170	0.750
2020/01/31 13:49:05.9	1.930	0.530	-0.190	0.770
2020/01/31 13:49:06.0	1.950	0.540	-0.220	0.780
2020/01/31 13:49:06.1	1.960	0.550	-0.240	0.790
2020/01/31 13:49:06.2	1.980	0.560	-0.270	0.800
2020/01/31 13:49:06.3	2.000	0.560	-0.300	0.800
2020/01/31 13:49:06.4	2.030	0.570	-0.330	0.800
2020/01/31 13:49:06.5	2.050	0.570	-0.360	0.790
2020/01/31 13:49:06.6	2.070	0.570	-0.390	0.780
2020/01/31 13:49:06.7	2.100	0.560	-0.420	0.770
2020/01/31 13:49:06.8	2.120	0.560	-0.450	0.760
2020/01/31 13:49:06.9	2.150	0.550	-0.480	0.740
2020/01/31 13:49:07.0	2.170	0.540	-0.500	0.730
2020/01/31 13:49:07.1	2.200	0.530	-0.530	0.710
2020/01/31 13:49:07.2	2.220	0.510	-0.550	0.690
2020/01/31 13:49:07.3	2.250	0.490	-0.570	0.670
2020/01/31 13:49:07.4	2.270	0.470	-0.580	0.650
2020/01/31 13:49:07.5	2.290	0.450	-0.590	0.630
2020/01/31 13:49:07.6	2.310	0.430	-0.600	0.610
2020/01/31 13:49:07.7	2.330	0.400	-0.610	0.580
2020/01/31 13:49:07.8	2.350	0.380	-0.610	0.550
2020/01/31 13:49:07.9	2.360	0.350	-0.610	0.530
2020/01/31 13:49:08.0	2.380	0.310	-0.600	0.500
2020/01/31 13:49:08.1	2.390	0.280	-0.590	0.460
2020/01/31 13:49:08.2	2.400	0.250	-0.580	0.430
2020/01/31 13:49:08.3	2.420	0.210	-0.560	0.400
2020/01/31 13:49:08.4	2.430	0.180	-0.540	0.360
2020/01/31 13:49:08.5	2.440	0.140	-0.520	0.320
2020/01/31 13:49:08.6	2.450	0.100	-0.500	0.280
2020/01/31 13:49:08.7	2.460	0.070	-0.470	0.240
2020/01/31 13:49:08.8	2.470	0.030	-0.450	0.200
2020/01/31 13:49:08.9	2.480	-0.000	-0.420	0.160
2020/01/31 13:49:09.0	2.490	-0.040	-0.390	0.110
2020/01/31 13:49:09.1	2.500	-0.070	-0.350	0.070
2020/01/31 13:49:09.2	2.510	-0.100	-0.320	0.020
2020/01/31 13:49:09.3	2.520	-0.130	-0.290	-0.020
2020/01/31 13:49:09.4	2.530	-0.160	-0.250	-0.060
2020/01/31 13:49:09.5	2.540	-0.190	-0.220	-0.110
2020/01/31 13:49:09.6	2.550	-0.210	-0.180	-0.150
2020/01/31 13:49:09.7	2.550	-0.240	-0.150	-0.190
2020/01/31 13:49:09.8	2.560	-0.260	-0.120	-0.230
2020/01/31 13:49:09.9	2.570	-0.280	-0.080	-0.270
2020/01/31 13:49:10.0	2.580	-0.290	-0.050	-0.310
2020/01/31 13:49:10.1	2.580	-0.310	-0.010	-0.340
2020/01/31 13:49:10.2	2.590	-0.320	0.020	-0.380
2020/01/31 13:49:10.3	2.590	-0.330	0.050	-0.410
2020/01/31 13:49:10.4	2.590	-0.340	0.080	-0.450
2020/01/31 13:49:10.5	2.600	-0.350	0.110	-0.480
2020/01/31 13:49:10.6	2.600	-0.360	0.130	-0.510
2020/01/31 13:49:10.7	2.600	-0.370	0.160	-0.540
2020/01/31 13:49:10.8	2.600	-0.370	0.180	-0.570
2020/01/31 13:49:10.9	2.590	-0.380	0.200	-0.590
2020/01/31 13:49:11.0	2.590	-0.380	0.220	-0.620
2020/01/31 13:49:11.1	2.580	-0.390	0.240	-0.640
2020/01/31 13:49:11.2	2.570	-0.390	0.260	-0.670
2020/01/31 13:49:11.3	2.570	-0.390	0.270	-0.690
2020/01/31 13:49:11.4	2.560	-0.390	0.280	-0.710
2020/01/31 13:49:11.5	2.540	-0.390	0.290	-0.720
2020/01/31 13:49:11.6	2.540	-0.400	0.300	-0.740
2020/01/31 13:49:11.7	2.520	-0.400	0.300	-0.750
2020/01/31 13:49:11.8	2.510	-0.400	0.300	-0.760
2020/01/31 13:49:11.9	2.490	-0.400	0.290	-0.770
2020/01/31 13:49:12.0	2.480	-0.400	0.290	-0.780
2020/01/31 13:49:12.1	2.460	-0.400	0.280	-0.780
2020/01/31 13:49:12.2	2.440	-0.400	0.270	-0.790
2020/01/31 13:49:12.3	2.420	-0.400	0.250	-0.790
2020/01/31 13:49:12.4	2.400	-0.390	0.230	-0.790
2020/01/31 13:49:12.5	2.390	-0.390	0.210	-0.790
2020/01/31 13:49:12.6	2.380	-0.390	0.180	-0.780
2020/01/31 13:49:12.7	2.360	-0.380	0.150	-0.780
2020/01/31 13:49:12.8	2.350	-0.380	0.120	-0.770
2020/01/31 13:49:12.9	2.330	-0.370	0.090	-0.760
2020/01/31 13:49:13.0	2.320	-0.360	0.050	-0.760
2020/01/31 13:49:13.1	2.320	-0.350	0.010	-0.750
2020/01/31 13:49:13.2	2.310	-0.340	-0.040	-0.750
2020/01/31 13:49:13.3	2.300	-0.330	-0.090	-0.740
2020/01/31 13:49:13.4	2.300	-0.310	-0.140	-0.740
2020/01/31 13:49:13.5	2.300	-0.300	-0.190	-0.730
2020/01/31 13:49:13.6	2.300	-0.280	-0.240	-0.730
2020/01/31 13:49:13.7	2.310	-0.260	-0.300	-0.730
2020/01/31 13:49:13.8	2.320	-0.230	-0.360	-0.730
2020/01/31 13:49:13.9	2.330	-0.210	-0.420	-0.730
2020/01/31 13:49:14.0	2.350	-0.180	-0.480	-0.740
2020/01/31 13:49:14.1	2.360	-0.160	-0.540	-0.750
2020/01/31 13:49:14.2	2.380	-0.130	-0.600	-0.750
2020/01/31 13:49:14.3	2.410	-0.100	-0.650	-0.760
2020/01/31 13:49:14.4	2.430	-0.070	-0.710	-0.770
2020/01/31 13:49:14.5	2.450	-0.040	-0.760	-0.780
2020/01/31 13:49:14.6	2.480	-0.000	-0.810	-0.790
2020/01/31 13:49:14.7	2.500	0.030	-0.850	-0.790
2020/01/31 13:49:14.8	2.520	0.060	-0.890	-0.790
2020/01/31 13:49:14.9	2.550	0.100	-0.930	-0.790
2020/01/31 13:49:15.0	2.570	0.130	-0.950	-0.790
2020/01/31 13:49:15.1	2.590	0.160	-0.970	-0.780
2020/01/31 13:49:15.2	2.610	0.190	-0.990	-0.770
2020/01/31 13:49:15.3	2.620	0.220	-1.000	-0.750
2020/01/31 13:49:15.4	2.640	0.250	-1.000	-0.730
2020/01/31 13:49:15.5	2.650	0.280	-0.990	-0.710
2020/01/31 13:49:15.6	2.660	0.300	-0.980	-0.680
2020/01/31 13:49:15.7	2.670	0.330	-0.960	-0.650
2020/01/31 13:49:15.8	2.670	0.340	-0.930	-0.620
2020/01/31 13:49:15.9	2.680	0.360	-0.900	-0.580
2020/01/31 13:49:16.0	2.680	0.370	-0.860	-0.540
2020/01/31 13:49:16.1	2.680	0.380	-0.810	-0.500
2020/01/31 13:49:16.2	2.680	0.390	-0.760	-0.460
2020/01/31 13:49:16.3	2.680	0.390	-0.710	-0.420
2020/01/31 13:49:16.4	2.680	0.380	-0.650	-0.380
2020/01/31 13:49:16.5	2.670	0.380	-0.580	-0.340
2020/01/31 13:49:16.6	2.670	0.370	-0.520	-0.290
2020/01/31 13:49:16.7	2.670	0.350	-0.450	-0.250
2020/01/31 13:49:16.8	2.660	0.330	-0.380	-0.210
2020/01/31 13:49:16.9	2.660	0.310	-0.320	-0.170
2020/01/31 13:49:17.0	2.650	0.290	-0.250	-0.130
2020/01/31 13:49:17.1	2.650	0.260	-0.180	-0.100
2020/01/31 13:49:17.2	2.640	0.230	-0.110	-0.060
2020/01/31 13:49:17.3	2.640	0.200	-0.040	-0.030
2020/01/31 13:49:17.4	2.640	0.160	0.020	0.000
2020/01/31 13:49:17.5	2.630	0.120	0.080	0.030
2020/01/31 13:49:17.6	2.630	0.090	0.140	0.060
2020/01/31 13:49:17.7	2.630	0.050	0.190	0.080
2020/01/31 13:49:17.8	2.630	0.010	0.240	0.100
2020/01/31 13:49:17.9	2.630	-0.030	0.290	0.120
2020/01/31 13:49:18.0	2.630	-0.070	0.330	0.140
2020/01/31 13:49:18.1	2.630	-0.110	0.370	0.150
2020/01/31 13:49:18.2	2.630	-0.150	0.410	0.170
2020/01/31 13:49:18.3	2.630	-0.190	0.440	0.180
2020/01/31 13:49:18.4	2.620	-0.220	0.470	0.190
2020/01/31 13:49:18.5	2.620	-0.260	0.490	0.190
2020/01/31 13:49:18.6	2.620	-0.290	0.510	0.210
2020/01/31 13:49:18.7	2.620	-0.320	0.530	0.210
2020/01/31 13:49:18.8	2.610	-0.340	0.540	0.220
2020/01/31 13:49:18.9	2.600	-0.360	0.550	0.230
2020/01/31 13:49:19.0	2.590	-0.380	0.550	0.240
2020/01/31 13:49:19.1	2.580	-0.400	0.560	0.250
2020/01/31 13:49:19.2	2.560	-0.410	0.560	0.260
2020/01/31 13:49:19.3	2.550	-0.420	0.550	0.270
2020/01/31 13:49:19.4	2.530	-0.420	0.550	0.290
2020/01/31 13:49:19.5	2.500	-0.420	0.540	0.300
2020/01/31 13:49:19.6	2.490	-0.410	0.520	0.320
2020/01/31 13:49:19.7	2.460	-0.410	0.510	0.330
2020/01/31 13:49:19.8	2.440	-0.390	0.480	0.350
2020/01/31 13:49:19.9	2.410	-0.380	0.460	0.360
2020/01/31 13:49:20.0	2.390	-0.360	0.430	0.380
2020/01/31 13:49:20.1	2.360	-0.330	0.390	0.390
2020/01/31 13:49:20.2	2.340	-0.310	0.350	0.400
2020/01/31 13:49:20.3	2.320	-0.280	0.310	0.410
2020/01/31 13:49:20.4	2.310	-0.240	0.260	0.420
2020/01/31 13:49:20.5	2.290	-0.210	0.210	0.420
2020/01/31 13:49:20.6	2.280	-0.170	0.150	0.420
2020/01/31 13:49:20.7	2.270	-0.130	0.090	0.420
2020/01/31 13:49:20.8	2.260	-0.080	0.020	0.420
2020/01/31 13:49:20.9	2.260	-0.040	-0.050	0.410
2020/01/31 13:49:21.0	2.260	0.010	-0.120	0.390
2020/01/31 13:49:21.1	2.260	0.060	-0.190	0.380
2020/01/31 13:49:21.2	2.260	0.110	-0.270	0.360
2020/01/31 13:49:21.3	2.270	0.160	-0.350	0.340
2020/01/31 13:49:21.4	2.280	0.210	-0.430	0.320
2020/01/31 13:49:21.5	2.290	0.260	-0.500	0.290
2020/01/31 13:49:21.6	2.310	0.310	-0.580	0.270
2020/01/31 13:49:21.7	2.330	0.360	-0.660	0.240
2020/01/31 13:49:21.8	2.350	0.400	-0.740	0.220
2020/01/31 13:49:21.9	2.370	0.450	-0.810	0.190
2020/01/31 13:49:22.0	2.390	0.500	-0.880	0.170
2020/01/31 13:49:22.1	2.410	0.540	-0.940	0.140
2020/01/31 13:49:22.2	2.440	0.580	-1.000	0.120
2020/01/31 13:49:22.3	2.460	0.610	-1.050	0.090
2020/01/31 13:49:22.4	2.480	0.640	-1.100	0.070
2020/01/31 13:49:22.5	2.500	0.670	-1.140	0.040
2020/01/31 13:49:22.6	2.530	0.690	-1.170	0.020
2020/01/31 13:49:22.7	2.550	0.710	-1.200	-0.010
2020/01/31 13:49:22.8	2.570	0.730	-1.220	-0.030
2020/01/31 13:49:22.9	2.590	0.730	-1.230	-0.060
2020/01/31 13:49:23.0	2.610	0.740	-1.240	-0.080
2020/01/31 13:49:23.1	2.630	0.740	-1.230	-0.110
2020/01/31 13:49:23.2	2.650	0.730	-1.230	-0.140
2020/01/31 13:49:23.3	2.670	0.720	-1.210	-0.170
2020/01/31 13:49:23.4	2.690	0.710	-1.190	-0.200
2020/01/31 13:49:23.5	2.710	0.690	-1.160	-0.230
2020/01/31 13:49:23.6	2.730	0.670	-1.130	-0.260
2020/01/31 13:49:23.7	2.750	0.640	-1.100	-0.290
2020/01/31 13:49:23.8	2.770	0.610	-1.060	-0.330
2020/01/31 13:49:23.9	2.790	0.570	-1.010	-0.360
2020/01/31 13:49:24.0	2.810	0.540	-0.970	-0.400
2020/01/31 13:49:24.1	2.830	0.500	-0.920	-0.440
2020/01/31 13:49:24.2	2.860	0.450	-0.870	-0.470
2020/01/31 13:49:24.3	2.880	0.410	-0.820	-0.510
2020/01/31 13:49:24.4	2.900	0.360	-0.760	-0.550
2020/01/31 13:49:24.5	2.930	0.310	-0.710	-0.590
2020/01/31 13:49:24.6	2.950	0.270	-0.660	-0.620
2020/01/31 13:49:24.7	2.980	0.220	-0.600	-0.660
2020/01/31 13:49:24.8	3.000	0.160	-0.550	-0.690
2020/01/31 13:49:24.9	3.030	0.110	-0.490	-0.730
2020/01/31 13:49:25.0	3.060	0.060	-0.440	-0.770
2020/01/31 13:49:25.1	3.080	0.010	-0.390	-0.800
2020/01/31 13:49:25.2	3.110	-0.040	-0.330	-0.840
2020/01/31 13:49:25.3	3.140	-0.090	-0.280	-0.870
2020/01/31 13:49:25.4	3.160	-0.140	-0.230	-0.910
2020/01/31 13:49:25.5	3.190	-0.190	-0.170	-0.940
2020/01/31 13:49:25.6	3.200	-0.230	-0.130	-0.970
2020/01/31 13:49:25.7	3.220	-0.280	-0.070	-1.000
2020/01/31 13:49:25.8	3.240	-0.320	-0.020	-1.020
2020/01/31 13:49:25.9	3.250	-0.370	0.020	-1.050
2020/01/31 13:49:26.0	3.270	-0.410	0.070	-1.070
2020/01/31 13:49:26.1	3.280	-0.450	0.120	-1.080
2020/01/31 13:49:26.2	3.280	-0.480	0.170	-1.100
2020/01/31 13:49:26.3	3.280	-0.520	0.220	-1.110
2020/01/31 13:49:26.4	3.280	-0.550	0.270	-1.110
2020/01/31 13:49:26.5	3.280	-0.590	0.310	-1.120
2020/01/31 13:49:26.6	3.270	-0.620	0.360	-1.110
2020/01/31 13:49:26.7	3.250	-0.640	0.400	-1.110
2020/01/31 13:49:26.8	3.240	-0.670	0.440	-1.100
2020/01/31 13:49:26.9	3.220	-0.700	0.490	-1.080
2020/01/31 13:49:27.0	3.190	-0.720	0.530	-1.070
2020/01/31 13:49:27.1	3.170	-0.740	0.560	-1.050
2020/01/31 13:49:27.2	3.140	-0.760	0.600	-1.030
2020/01/31 13:49:27.3	3.110	-0.770	0.630	-1.010
2020/01/31 13:49:27.4	3.080	-0.780	0.660	-0.980
2020/01/31 13:49:27.5	3.050	-0.800	0.690	-0.950
2020/01/31 13:49:27.6	3.020	-0.800	0.700	-0.920
2020/01/31 13:49:27.7	2.990	-0.810	0.720	-0.900
2020/01/31 13:49:27.8	2.950	-0.810	0.730	-0.870
2020/01/31 13:49:27.9	2.920	-0.810	0.740	-0.840
2020/01/31 13:49:28.0	2.890	-0.810	0.740	-0.800
2020/01/31 13:49:28.1	2.860	-0.810	0.740	-0.770
2020/01/31 13:49:28.2	2.830	-0.800	0.730	-0.740
2020/01/31 13:49:28.3	2.810	-0.790	0.710	-0.710
2020/01/31 13:49:28.4	2.780	-0.770	0.690	-0.680
2020/01/31 13:49:28.5	2.760	-0.760	0.660	-0.650
2020/01/31 13:49:28.6	2.740	-0.740	0.630	-0.620
2020/01/31 13:49:28.7	2.720	-0.710	0.590	-0.590
2020/01/31 13:49:28.8	2.700	-0.690	0.550	-0.560
2020/01/31 13:49:28.9	2.690	-0.660	0.500	-0.530
2020/01/31 13:49:29.0	2.670	-0.630	0.450	-0.500
2020/01/31 13:49:29.1	2.660	-0.590	0.390	-0.470
2020/01/31 13:49:29.2	2.650	-0.560	0.330	-0.440
2020/01/31 13:49:29.3	2.640	-0.520	0.270	-0.410
2020/01/31 13:49:29.4	2.630	-0.480	0.210	-0.380
2020/01/31 13:49:29.5	2.620	-0.430	0.140	-0.350
2020/01/31 13:49:29.6	2.610	-0.390	0.070	-0.310
2020/01/31 13:49:29.7	2.600	-0.340	0.010	-0.270
2020/01/31 13:49:29.8	2.600	-0.290	-0.060	-0.240
2020/01/31 13:49:29.9	2.590	-0.240	-0.120	-0.200
2020/01/31 13:49:30.0	2.590	-0.190	-0.190	-0.160
2020/01/31 13:49:30.1	2.590	-0.140	-0.250	-0.130
2020/01/31 13:49:30.2	2.590	-0.090	-0.310	-0.090
2020/01/31 13:49:30.3	2.590	-0.030	-0.370	-0.050
2020/01/31 13:49:30.4	2.590	0.020	-0.420	-0.020
2020/01/31 13:49:30.5	2.590	0.070	-0.470	0.020
2020/01/31 13:49:30.6	2.600	0.120	-0.520	0.060
2020/01/31 13:49:30.7	2.610	0.170	-0.570	0.090
2020/01/31 13:49:30.8	2.610	0.230	-0.610	0.130
2020/01/31 13:49:30.9	2.620	0.280	-0.650	0.160
2020/01/31 13:49:31.0	2.630	0.320	-0.680	0.200
2020/01/31 13:49:31.1	2.630	0.370	-0.710	0.240
2020/01/31 13:49:31.2	2.640	0.420	-0.740	0.270
2020/01/31 13:49:31.3	2.640	0.460	-0.760	0.310
2020/01/31 13:49:31.4	2.650	0.500	-0.770	0.350
2020/01/31 13:49:31.5	2.650	0.540	-0.780	0.390
2020/01/31 13:49:31.6	2.660	0.580	-0.790	0.440
2020/01/31 13:49:31.7	2.660	0.620	-0.790	0.480
2020/01/31 13:49:31.8	2.660	0.650	-0.790	0.530
2020/01/31 13:49:31.9	2.660	0.680	-0.780	0.570
2020/01/31 13:49:32.0	2.660	0.710	-0.770	0.620
2020/01/31 13:49:32.1	2.660	0.730	-0.750	0.660
2020/01/31 13:49:32.2	2.660	0.760	-0.730	0.710
2020/01/31 13:49:32.3	2.650	0.770	-0.710	0.760
2020/01/31 13:49:32.4	2.650	0.790	-0.680	0.810
2020/01/31 13:49:32.5	2.640	0.800	-0.660	0.850
2020/01/31 13:49:32.6	2.630	0.810	-0.630	0.900
2020/01/31 13:49:32.7	2.620	0.820	-0.600	0.950
2020/01/31 13:49:32.8	2.610	0.820	-0.570	0.990
2020/01/31 13:49:32.9	2.600	0.820	-0.540	1.030
2020/01/31 13:49:33.0	2.590	0.810	-0.520	1.060
2020/01/31 13:49:33.1	2.580	0.800	-0.490	1.100
2020/01/31 13:49:33.2	2.560	0.790	-0.460	1.130
2020/01/31 13:49:33.3	2.550	0.780	-0.440	1.150
2020/01/31 13:49:33.4	2.540	0.760	-0.420	1.170
2020/01/31 13:49:33.5	2.530	0.740	-0.400	1.180
2020/01/31 13:49:33.6	2.510	0.720	-0.390	1.190
2020/01/31 13:49:33.7	2.500	0.690	-0.370	1.190
2020/01/31 13:49:33.8	2.500	0.670	-0.360	1.180
2020/01/31 13:49:33.9	2.490	0.640	-0.360	1.160
2020/01/31 13:49:34.0	2.490	0.610	-0.360	1.140
2020/01/31 13:49:34.1	2.490	0.570	-0.360	1.110
2020/01/31 13:49:34.2	2.500	0.540	-0.360	1.070
2020/01/31 13:49:34.3	2.510	0.510	-0.370	1.020
2020/01/31 13:49:34.4	2.520	0.470	-0.380	0.970
2020/01/31 13:49:34.5	2.540	0.430	-0.390	0.910
2020/01/31 13:49:34.6	2.560	0.400	-0.410	0.840
2020/01/31 13:49:34.7	2.590	0.360	-0.430	0.770
2020/01/31 13:49:34.8	2.610	0.330	-0.450	0.690
2020/01/31 13:49:34.9	2.640	0.290	-0.470	0.620
2020/01/31 13:49:35.0	2.670	0.250	-0.490	0.530
2020/01/31 13:49:35.1	2.710	0.220	-0.520	0.450
2020/01/31 13:49:35.2	2.740	0.180	-0.540	0.370
2020/01/31 13:49:35.3	2.770	0.140	-0.560	0.280
2020/01/31 13:49:35.4	2.800	0.110	-0.580	0.200
2020/01/31 13:49:35.5	2.830	0.070	-0.600	0.120
2020/01/31 13:49:35.6	2.870	0.040	-0.620	0.030
2020/01/31 13:49:35.7	2.890	-0.000	-0.630	-0.050
2020/01/31 13:49:35.8	2.920	-0.040	-0.630	-0.130
2020/01/31 13:49:35.9	2.950	-0.070	-0.640	-0.210
2020/01/31 13:49:36.0	2.970	-0.110	-0.640	-0.280
2020/01/31 13:49:36.1	2.990	-0.140	-0.640	-0.360
2020/01/31 13:49:36.2	3.020	-0.180	-0.640	-0.440
2020/01/31 13:49:36.3	3.040	-0.210	-0.630	-0.510
2020/01/31 13:49:36.4	3.060	-0.250	-0.620	-0.590
2020/01/31 13:49:36.5	3.080	-0.280	-0.600	-0.660
2020/01/31 13:49:36.6	3.110	-0.310	-0.580	-0.730
2020/01/31 13:49:36.7	3.130	-0.340	-0.560	-0.800
2020/01/31 13:49:36.8	3.150	-0.370	-0.530	-0.870
2020/01/31 13:49:36.9	3.170	-0.400	-0.510	-0.930
2020/01/31 13:49:37.0	3.190	-0.430	-0.480	-0.990
2020/01/31 13:49:37.1	3.210	-0.450	-0.440	-1.050
2020/01/31 13:49:37.2	3.230	-0.470	-0.410	-1.110
2020/01/31 13:49:37.3	3.260	-0.500	-0.370	-1.160
2020/01/31 13:49:37.4	3.280	-0.510	-0.330	-1.210
2020/01/31 13:49:37.5	3.300	-0.530	-0.300	-1.260
2020/01/31 13:49:37.6	3.330	-0.550	-0.260	-1.310
2020/01/31 13:49:37.7	3.350	-0.560	-0.220	-1.350
2020/01/31 13:49:37.8	3.380	-0.570	-0.180	-1.390
2020/01/31 13:49:37.9	3.400	-0.570	-0.140	-1.420
2020/01/31 13:49:38.0	3.430	-0.580	-0.110	-1.450
2020/01/31 13:49:38.1	3.450	-0.580	-0.070	-1.480
2020/01/31 13:49:38.2	3.470	-0.590	-0.030	-1.500
2020/01/31 13:49:38.3	3.490	-0.590	0.000	-1.520
2020/01/31 13:49:38.4	3.510	-0.580	0.040	-1.540
2020/01/31 13:49:38.5	3.530	-0.580	0.080	-1.550
2020/01/31 13:49:38.6	3.530	-0.580	0.110	-1.550
2020/01/31 13:49:38.7	3.540	-0.570	0.150	-1.540
2020/01/31 13:49:38.8	3.540	-0.570	0.190	-1.530
2020/01/31 13:49:38.9	3.540	-0.560	0.230	-1.520
2020/01/31 13:49:39.0	3.530	-0.550	0.270	-1.500
2020/01/31 13:49:39.1	3.520	-0.550	0.310	-1.470
2020/01/31 13:49:39.2	3.510	-0.540	0.360	-1.440
2020/01/31 13:49:39.3	3.490	-0.530	0.400	-1.410
2020/01/31 13:49:39.4	3.460	-0.520	0.440	-1.370
2020/01/31 13:49:39.5	3.440	-0.510	0.480	-1.320
2020/01/31 13:49:39.6	3.410	-0.500	0.510	-1.270
2020/01/31 13:49:39.7	3.380	-0.490	0.550	-1.220
2020/01/31 13:49:39.8	3.340	-0.480	0.580	-1.160
2020/01/31 13:49:39.9	3.310	-0.470	0.610	-1.100
2020/01/31 13:49:40.0	3.270	-0.450	0.640	-1.040
2020/01/31 13:49:40.1	3.230	-0.440	0.660	-0.980
2020/01/31 13:49:40.2	3.190	-0.420	0.680	-0.910
2020/01/31 13:49:40.3	3.140	-0.410	0.700	-0.850
2020/01/31 13:49:40.4	3.100	-0.390	0.710	-0.780
2020/01/31 13:49:40.5	3.060	-0.370	0.720	-0.720
2020/01/31 13:49:40.6	3.020	-0.350	0.720	-0.650
2020/01/31 13:49:40.7	2.980	-0.330	0.710	-0.590
2020/01/31 13:49:40.8	2.950	-0.310	0.700	-0.530
2020/01/31 13:49:40.9	2.910	-0.290	0.690	-0.480
2020/01/31 13:49:41.0	2.870	-0.260	0.670	-0.420
2020/01/31 13:49:41.1	2.840	-0.230	0.640	-0.370
2020/01/31 13:49:41.2	2.810	-0.200	0.600	-0.320
2020/01/31 13:49:41.3	2.780	-0.170	0.560	-0.270
2020/01/31 13:49:41.4	2.750	-0.140	0.510	-0.230
2020/01/31 13:49:41.5	2.720	-0.110	0.460	-0.180
2020/01/31 13:49:41.6	2.690	-0.070	0.400	-0.140
2020/01/31 13:49:41.7	2.660	-0.040	0.340	-0.100
2020/01/31 13:49:41.8	2.630	0.000	0.270	-0.060
2020/01/31 13:49:41.9	2.600	0.040	0.190	-0.020
2020/01/31 13:49:42.0	2.580	0.080	0.120	0.010
2020/01/31 13:49:42.1	2.550	0.120	0.040	0.050
2020/01/31 13:49:42.2	2.520	0.160	-0.050	0.080
2020/01/31 13:49:42.3	2.490	0.190	-0.130	0.110
2020/01/31 13:49:42.4	2.450	0.230	-0.220	0.150
2020/01/31 13:49:42.5	2.420	0.270	-0.300	0.180
2020/01/31 13:49:42.6	2.400	0.300	-0.390	0.210
2020/01/31 13:49:42.7	2.360	0.340	-0.470	0.250
2020/01/31 13:49:42.8	2.330	0.370	-0.560	0.280
2020/01/31 13:49:42.9	2.300	0.400	-0.630	0.310
2020/01/31 13:49:43.0	2.270	0.430	-0.710	0.330
2020/01/31 13:49:43.1	2.240	0.460	-0.780	0.360
2020/01/31 13:49:43.2	2.220	0.480	-0.850	0.380
2020/01/31 13:49:43.3	2.190	0.500	-0.920	0.400
2020/01/31 13:49:43.4	2.170	0.520	-0.980	0.420
2020/01/31 13:49:43.5	2.150	0.540	-1.040	0.430
2020/01/31 13:49:43.6	2.140	0.550	-1.090	0.440
2020/01/31 13:49:43.7	2.130	0.560	-1.140	0.450
2020/01/31 13:49:43.8	2.120	0.570	-1.180	0.450
2020/01/31 13:49:43.9	2.110	0.570	-1.220	0.450
2020/01/31 13:49:44.0	2.110	0.570	-1.250	0.450
2020/01/31 13:49:44.1	2.110	0.570	-1.270	0.440
2020/01/31 13:49:44.2	2.120	0.560	-1.290	0.420
2020/01/31 13:49:44.3	2.130	0.560	-1.310	0.410
2020/01/31 13:49:44.4	2.140	0.550	-1.320	0.390
2020/01/31 13:49:44.5	2.150	0.540	-1.320	0.370
2020/01/31 13:49:44.6	2.160	0.530	-1.320	0.340
2020/01/31 13:49:44.7	2.180	0.510	-1.310	0.320
2020/01/31 13:49:44.8	2.200	0.490	-1.290	0.290
2020/01/31 13:49:44.9	2.220	0.480	-1.270	0.260
2020/01/31 13:49:45.0	2.240	0.460	-1.240	0.230
2020/01/31 13:49:45.1	2.270	0.440	-1.210	0.200
2020/01/31 13:49:45.2	2.300	0.410	-1.170	0.170
2020/01/31 13:49:45.3	2.330	0.390	-1.130	0.140
2020/01/31 13:49:45.4	2.360	0.370	-1.080	0.120
2020/01/31 13:49:45.5	2.390	0.340	-1.030	0.090
2020/01/31 13:49:45.6	2.430	0.320	-0.980	0.060
2020/01/31 13:49:45.7	2.460	0.290	-0.920	0.040
2020/01/31 13:49:45.8	2.500	0.270	-0.860	0.010
2020/01/31 13:49:45.9	2.540	0.240	-0.800	-0.010
2020/01/31 13:49:46.0	2.580	0.210	-0.740	-0.030
2020/01/31 13:49:46.1	2.630	0.190	-0.680	-0.060
2020/01/31 13:49:46.2	2.670	0.170	-0.610	-0.080
2020/01/31 13:49:46.3	2.720	0.140	-0.550	-0.100
2020/01/31 13:49:46.4	2.760	0.120	-0.480	-0.120
2020/01/31 13:49:46.5	2.810	0.100	-0.420	-0.140
2020/01/31 13:49:46.6	2.860	0.080	-0.360	-0.150
2020/01/31 13:49:46.7	2.900	0.060	-0.300	-0.170
2020/01/31 13:49:46.8	2.940	0.040	-0.240	-0.190
2020/01/31 13:49:46.9	2.990	0.020	-0.190	-0.200
2020/01/31 13:49:47.0	3.030	0.000	-0.130	-0.220
2020/01/31 13:49:47.1	3.070	-0.010	-0.080	-0.230
2020/01/31 13:49:47.2	3.110	-0.030	-0.030	-0.250
2020/01/31 13:49:47.3	3.140	-0.040	0.010	-0.260
2020/01/31 13:49:47.4	3.180	-0.060	0.060	-0.270
2020/01/31 13:49:47.5	3.210	-0.070	0.100	-0.290
2020/01/31 13:49:47.6	3.240	-0.080	0.140	-0.300
2020/01/31 13:49:47.7	3.260	-0.080	0.180	-0.310
2020/01/31 13:49:47.8	3.290	-0.090	0.220	-0.310
2020/01/31 13:49:47.9	3.310	-0.100	0.250	-0.320
2020/01/31 13:49:48.0	3.330	-0.100	0.280	-0.320
2020/01/31 13:49:48.1	3.340	-0.100	0.320	-0.320
2020/01/31 13:49:48.2	3.360	-0.110	0.350	-0.320
2020/01/31 13:49:48.3	3.360	-0.110	0.370	-0.310
2020/01/31 13:49:48.4	3.370	-0.110	0.400	-0.300
2020/01/31 13:49:48.5	3.370	-0.110	0.420	-0.290
2020/01/31 13:49:48.6	3.360	-0.110	0.440	-0.270
2020/01/31 13:49:48.7	3.350	-0.120	0.460	-0.250
2020/01/31 13:49:48.8	3.340	-0.120	0.470	-0.230
2020/01/31 13:49:48.9	3.330	-0.120	0.480	-0.210
2020/01/31 13:49:49.0	3.310	-0.120	0.490	-0.180
2020/01/31 13:49:49.1	3.280	-0.130	0.500	-0.160
2020/01/31 13:49:49.2	3.260	-0.130	0.500	-0.130
2020/01/31 13:49:49.3	3.230	-0.130	0.490	-0.110
2020/01/31 13:49:49.4	3.200	-0.140	0.480	-0.080
2020/01/31 13:49:49.5	3.170	-0.150	0.470	-0.060
2020/01/31 13:49:49.6	3.120	-0.150	0.450	-0.040
2020/01/31 13:49:49.7	3.090	-0.160	0.430	-0.020
2020/01/31 13:49:49.8	3.060	-0.170	0.410	-0.010
2020/01/31 13:49:49.9	3.030	-0.170	0.380	-0.000
2020/01/31 13:49:50.0	2.990	-0.180	0.350	-0.000
2020/01/31 13:49:50.1	2.960	-0.190	0.310	-0.000
2020/01/31 13:49:50.2	2.930	-0.200	0.270	-0.010
2020/01/31 13:49:50.3	2.910	-0.210	0.230	-0.020
2020/01/31 13:49:50.4	2.880	-0.210	0.180	-0.040
2020/01/31 13:49:50.5	2.850	-0.220	0.140	-0.070
2020/01/31 13:49:50.6	2.830	-0.230	0.090	-0.090
2020/01/31 13:49:50.7	2.800	-0.230	0.040	-0.130
2020/01/31 13:49:50.8	2.780	-0.240	-0.010	-0.160
2020/01/31 13:49:50.9	2.760	-0.240	-0.060	-0.190
2020/01/31 13:49:51.0	2.730	-0.250	-0.110	-0.230
2020/01/31 13:49:51.1	2.710	-0.250	-0.150	-0.260
2020/01/31 13:49:51.2	2.680	-0.250	-0.200	-0.290
2020/01/31 13:49:51.3	2.660	-0.250	-0.240	-0.330
2020/01/31 13:49:51.4	2.630	-0.260	-0.270	-0.360
2020/01/31 13:49:51.5	2.600	-0.250	-0.310	-0.390
2020/01/31 13:49:51.6	2.570	-0.250	-0.340	-0.420
2020/01/31 13:49:51.7	2.550	-0.250	-0.360	-0.450
2020/01/31 13:49:51.8	2.520	-0.250	-0.380	-0.470
2020/01/31 13:49:51.9	2.490	-0.250	-0.400	-0.500
2020/01/31 13:49:52.0	2.460	-0.240	-0.410	-0.520
2020/01/31 13:49:52.1	2.440	-0.240	-0.420	-0.540
2020/01/31 13:49:52.2	2.410	-0.240	-0.420	-0.560
2020/01/31 13:49:52.3	2.380	-0.230	-0.420	-0.580
2020/01/31 13:49:52.4	2.360	-0.230	-0.420	-0.590
2020/01/31 13:49:52.5	2.340	-0.220	-0.410	-0.610
2020/01/31 13:49:52.6	2.310	-0.220	-0.410	-0.620
2020/01/31 13:49:52.7	2.300	-0.210	-0.400	-0.630
2020/01/31 13:49:52.8	2.280	-0.210	-0.390	-0.640
2020/01/31 13:49:52.9	2.270	-0.200	-0.380	-0.650
2020/01/31 13:49:53.0	2.260	-0.200	-0.370	-0.670
2020/01/31 13:49:53.1	2.260	-0.190	-0.360	-0.680
2020/01/31 13:49:53.2	2.250	-0.180	-0.350	-0.690
2020/01/31 13:49:53.3	2.260	-0.170	-0.350	-0.700
2020/01/31 13:49:53.4	2.260	-0.170	-0.340	-0.710
2020/01/31 13:49:53.5	2.260	-0.160	-0.330	-0.730
2020/01/31 13:49:53.6	2.270	-0.150	-0.330	-0.740
2020/01/31 13:49:53.7	2.280	-0.140	-0.330	-0.750
2020/01/31 13:49:53.8	2.290	-0.130	-0.330	-0.760
2020/01/31 13:49:53.9	2.300	-0.120	-0.330	-0.770
2020/01/31 13:49:54.0	2.310	-0.110	-0.330	-0.770
2020/01/31 13:49:54.1	2.320	-0.100	-0.340	-0.770
2020/01/31 13:49:54.2	2.330	-0.090	-0.340	-0.770
2020/01/31 13:49:54.3	2.340	-0.080	-0.340	-0.770
2020/01/31 13:49:54.4	2.350	-0.070	-0.340	-0.760
2020/01/31 13:49:54.5	2.360	-0.050	-0.340	-0.750
2020/01/31 13:49:54.6	2.370	-0.040	-0.350	-0.730
2020/01/31 13:49:54.7	2.370	-0.030	-0.350	-0.710
2020/01/31 13:49:54.8	2.380	-0.010	-0.350	-0.680
2020/01/31 13:49:54.9	2.390	-0.000	-0.340	-0.660
2020/01/31 13:49:55.0	2.390	0.010	-0.340	-0.620
2020/01/31 13:49:55.1	2.400	0.030	-0.340	-0.590
2020/01/31 13:49:55.2	2.410	0.040	-0.340	-0.550
2020/01/31 13:49:55.3	2.420	0.060	-0.330	-0.520
2020/01/31 13:49:55.4	2.430	0.080	-0.330	-0.480
2020/01/31 13:49:55.5	2.440	0.090	-0.330	-0.440
2020/01/31 13:49:55.6	2.460	0.110	-0.330	-0.390
2020/01/31 13:49:55.7	2.480	0.130	-0.330	-0.360
2020/01/31 13:49:55.8	2.490	0.140	-0.330	-0.320
2020/01/31 13:49:55.9	2.520	0.160	-0.340	-0.280
2020/01/31 13:49:56.0	2.540	0.180	-0.350	-0.250
2020/01/31 13:49:56.1	2.570	0.200	-0.360	-0.220
2020/01/31 13:49:56.2	2.600	0.210	-0.370	-0.190
2020/01/31 13:49:56.3	2.630	0.230	-0.390	-0.170
2020/01/31 13:49:56.4	2.660	0.240	-0.400	-0.150
2020/01/31 13:49:56.5	2.690	0.260	-0.420	-0.130
2020/01/31 13:49:56.6	2.740	0.270	-0.440	-0.110
2020/01/31 13:49:56.7	2.770	0.290	-0.460	-0.090
2020/01/31 13:49:56.8	2.810	0.300	-0.480	-0.080
2020/01/31 13:49:56.9	2.840	0.310	-0.500	-0.080
2020/01/31 13:49:57.0	2.880	0.320	-0.520	-0.070
2020/01/31 13:49:57.1	2.920	0.330	-0.540	-0.070
2020/01/31 13:49:57.2	2.950	0.330	-0.560	-0.070
2020/01/31 13:49:57.3	2.990	0.340	-0.580	-0.070
2020/01/31 13:49:57.4	3.020	0.340	-0.590	-0.070
2020/01/31 13:49:57.5	3.050	0.340	-0.600	-0.070
2020/01/31 13:49:57.6	3.080	0.340	-0.610	-0.070
2020/01/31 13:49:57.7	3.100	0.340	-0.610	-0.070
2020/01/31 13:49:57.8	3.130	0.330	-0.610	-0.070
2020/01/31 13:49:57.9	3.150	0.330	-0.610	-0.070
2020/01/31 13:49:58.0	3.160	0.320	-0.600	-0.070
2020/01/31 13:49:58.1	3.180	0.310	-0.590	-0.070
2020/01/31 13:49:58.2	3.190	0.300	-0.570	-0.070
2020/01/31 13:49:58.3	3.200	0.290	-0.550	-0.060
2020/01/31 13:49:58.4	3.200	0.270	-0.530	-0.060
2020/01/31 13:49:58.5	3.210	0.260	-0.500	-0.060
2020/01/31 13:49:58.6	3.210	0.240	-0.480	-0.060
2020/01/31 13:49:58.7	3.210	0.230	-0.440	-0.060
2020/01/31 13:49:58.8	3.210	0.210	-0.410	-0.060
2020/01/31 13:49:58.9	3.200	0.190	-0.370	-0.060
2020/01/31 13:49:59.0	3.190	0.170	-0.330	-0.070
2020/01/31 13:49:59.1	3.190	0.160	-0.300	-0.070
2020/01/31 13:49:59.2	3.180	0.140	-0.260	-0.080
2020/01/31 13:49:59.3	3.170	0.120	-0.220	-0.080
2020/01/31 13:49:59.4	3.160	0.100	-0.180	-0.090
2020/01/31 13:49:59.5	3.150	0.090	-0.140	-0.100
2020/01/31 13:49:59.6	3.140	0.070	-0.110	-0.110
2020/01/31 13:49:59.7	3.130	0.060	-0.070	-0.120
2020/01/31 13:49:59.8	3.120	0.050	-0.040	-0.130
2020/01/31 13:49:59.9	3.100	0.040	-0.000	-0.140
2020/01/31 13:50:00.0	3.080	0.030	0.030	-0.140
2020/01/31 13:50:00.1	3.060	0.020	0.060	-0.140
2020/01/31 13:50:00.2	3.030	0.010	0.090	-0.140
2020/01/31 13:50:00.3	3.010	-0.000	0.120	-0.140
2020/01/31 13:50:00.4	2.970	-0.010	0.150	-0.140
2020/01/31 13:50:00.5	2.940	-0.020	0.180	-0.130
2020/01/31 13:50:00.6	2.900	-0.020	0.200	-0.120
2020/01/31 13:50:00.7	2.860	-0.030	0.230	-0.110
2020/01/31 13:50:00.8	2.810	-0.040	0.260	-0.100
2020/01/31 13:50:00.9	2.770	-0.050	0.280	-0.090
2020/01/31 13:50:01.0	2.720	-0.060	0.310	-0.080
2020/01/31 13:50:01.1	2.660	-0.070	0.330	-0.070
2020/01/31 13:50:01.2	2.610	-0.080	0.360	-0.070
2020/01/31 13:50:01.3	2.560	-0.090	0.380	-0.060
2020/01/31 13:50:01.4	2.500	-0.100	0.390	-0.050
2020/01/31 13:50:01.5	2.450	-0.110	0.410	-0.050
2020/01/31 13:50:01.6	2.400	-0.120	0.420	-0.050
2020/01/31 13:50:01.7	2.350	-0.140	0.430	-0.050
2020/01/31 13:50:01.8	2.290	-0.150	0.440	-0.050
2020/01/31 13:50:01.9	2.240	-0.160	0.440	-0.050
2020/01/31 13:50:02.0	2.190	-0.180	0.440	-0.060
2020/01/31 13:50:02.1	2.150	-0.190	0.430	-0.070
2020/01/31 13:50:02.2	2.100	-0.210	0.420	-0.090
2020/01/31 13:50:02.3	2.060	-0.220	0.400	-0.100
2020/01/31 13:50:02.4	2.030	-0.230	0.380	-0.120
2020/01/31 13:50:02.5	1.990	-0.240	0.360	-0.140
2020/01/31 13:50:02.6	1.970	-0.250	0.330	-0.170
2020/01/31 13:50:02.7	1.950	-0.260	0.300	-0.200
2020/01/31 13:50:02.8	1.930	-0.270	0.260	-0.230
2020/01/31 13:50:02.9	1.920	-0.280	0.210	-0.260
2020/01/31 13:50:03.0	1.910	-0.280	0.160	-0.300
2020/01/31 13:50:03.1	1.910	-0.280	0.100	-0.330
2020/01/31 13:50:03.2	1.920	-0.270	0.040	-0.370
2020/01/31 13:50:03.3	1.940	-0.260	-0.020	-0.410
2020/01/31 13:50:03.4	1.960	-0.250	-0.090	-0.460
2020/01/31 13:50:03.5	1.980	-0.240	-0.160	-0.500
2020/01/31 13:50:03.6	2.020	-0.220	-0.240	-0.550
2020/01/31 13:50:03.7	2.060	-0.200	-0.320	-0.600
2020/01/31 13:50:03.8	2.100	-0.180	-0.400	-0.650
2020/01/31 13:50:03.9	2.150	-0.150	-0.480	-0.690
2020/01/31 13:50:04.0	2.210	-0.120	-0.570	-0.740
2020/01/31 13:50:04.1	2.270	-0.090	-0.650	-0.800
2020/01/31 13:50:04.2	2.330	-0.050	-0.730	-0.850
2020/01/31 13:50:04.3	2.400	-0.010	-0.800	-0.900
2020/01/31 13:50:04.4	2.460	0.020	-0.880	-0.950
2020/01/31 13:50:04.5	2.530	0.060	-0.940	-0.990
2020/01/31 13:50:04.6	2.610	0.100	-1.010	-1.040
2020/01/31 13:50:04.7	2.680	0.140	-1.070	-1.080
2020/01/31 13:50:04.8	2.750	0.170	-1.120	-1.120
2020/01/31 13:50:04.9	2.810	0.210	-1.160	-1.150
2020/01/31 13:50:05.0	2.880	0.240	-1.200	-1.180
2020/01/31 13:50:05.1	2.940	0.280	-1.230	-1.200
2020/01/31 13:50:05.2	3.000	0.310	-1.250	-1.220
2020/01/31 13:50:05.3	3.060	0.340	-1.270	-1.230
2020/01/31 13:50:05.4	3.110	0.360	-1.270	-1.240
2020/01/31 13:50:05.5	3.160	0.380	-1.260	-1.240
2020/01/31 13:50:05.6	3.200	0.400	-1.250	-1.240
2020/01/31 13:50:05.7	3.240	0.410	-1.230	-1.230
2020/01/31 13:50:05.8	3.270	0.420	-1.200	-1.210
2020/01/31 13:50:05.9	3.300	0.430	-1.160	-1.190
2020/01/31 13:50:06.0	3.320	0.430	-1.110	-1.160
2020/01/31 13:50:06.1	3.330	0.430	-1.060	-1.130
2020/01/31 13:50:06.2	3.340	0.420	-1.000	-1.090
2020/01/31 13:50:06.3	3.340	0.410	-0.940	-1.040
2020/01/31 13:50:06.4	3.340	0.390	-0.860	-1.000
2020/01/31 13:50:06.5	3.330	0.370	-0.790	-0.940
2020/01/31 13:50:06.6	3.310	0.350	-0.710	-0.880
2020/01/31 13:50:06.7	3.290	0.320	-0.620	-0.830
2020/01/31 13:50:06.8	3.270	0.290	-0.540	-0.770
2020/01/31 13:50:06.9	3.240	0.250	-0.450	-0.720
2020/01/31 13:50:07.0	3.210	0.220	-0.350	-0.660
2020/01/31 13:50:07.1	3.180	0.180	-0.260	-0.610
2020/01/31 13:50:07.2	3.150	0.130	-0.170	-0.550
2020/01/31 13:50:07.3	3.110	0.090	-0.080	-0.500
2020/01/31 13:50:07.4	3.070	0.040	0.010	-0.450
2020/01/31 13:50:07.5	3.030	-0.000	0.090	-0.400
2020/01/31 13:50:07.6	3.000	-0.050	0.180	-0.350
2020/01/31 13:50:07.7	2.960	-0.090	0.260	-0.310
2020/01/31 13:50:07.8	2.920	-0.140	0.330	-0.270
2020/01/31 13:50:07.9	2.880	-0.190	0.400	-0.240
2020/01/31 13:50:08.0	2.840	-0.230	0.470	-0.210
2020/01/31 13:50:08.1	2.800	-0.270	0.520	-0.180
2020/01/31 13:50:08.2	2.760	-0.310	0.580	-0.160
2020/01/31 13:50:08.3	2.720	-0.350	0.620	-0.140
2020/01/31 13:50:08.4	2.680	-0.390	0.660	-0.120
2020/01/31 13:50:08.5	2.650	-0.420	0.700	-0.110
2020/01/31 13:50:08.6	2.600	-0.450	0.720	-0.100
2020/01/31 13:50:08.7	2.560	-0.480	0.740	-0.090
2020/01/31 13:50:08.8	2.530	-0.500	0.750	-0.080
2020/01/31 13:50:08.9	2.500	-0.520	0.760	-0.080
2020/01/31 13:50:09.0	2.460	-0.530	0.760	-0.080
2020/01/31 13:50:09.1	2.430	-0.550	0.750	-0.090
2020/01/31 13:50:09.2	2.400	-0.550	0.740	-0.100
2020/01/31 13:50:09.3	2.370	-0.560	0.720	-0.110
2020/01/31 13:50:09.4	2.350	-0.560	0.700	-0.120
2020/01/31 13:50:09.5	2.320	-0.550	0.660	-0.130
2020/01/31 13:50:09.6	2.300	-0.540	0.630	-0.150
2020/01/31 13:50:09.7	2.280	-0.530	0.590	-0.160
2020/01/31 13:50:09.8	2.260	-0.520	0.540	-0.180
2020/01/31 13:50:09.9	2.240	-0.500	0.490	-0.200
2020/01/31 13:50:10.0	2.230	-0.480	0.430	-0.220
2020/01/31 13:50:10.1	2.220	-0.450	0.370	-0.240
2020/01/31 13:50:10.2	2.210	-0.420	0.300	-0.260
2020/01/31 13:50:10.3	2.210	-0.390	0.240	-0.280
2020/01/31 13:50:10.4	2.200	-0.360	0.170	-0.310
2020/01/31 13:50:10.5	2.200	-0.320	0.090	-0.330
2020/01/31 13:50:10.6	2.200	-0.280	0.020	-0.350
2020/01/31 13:50:10.7	2.210	-0.240	-0.060	-0.370
2020/01/31 13:50:10.8	2.220	-0.200	-0.140	-0.390
2020/01/31 13:50:10.9	2.220	-0.160	-0.220	-0.420
2020/01/31 13:50:11.0	2.230	-0.120	-0.290	-0.440
2020/01/31 13:50:11.1	2.250	-0.070	-0.370	-0.460
2020/01/31 13:50:11.2	2.260	-0.030	-0.450	-0.480
2020/01/31 13:50:11.3	2.270	0.010	-0.520	-0.500
2020/01/31 13:50:11.4	2.290	0.050	-0.590	-0.510
2020/01/31 13:50:11.5	2.310	0.090	-0.660	-0.530
2020/01/31 13:50:11.6	2.320	0.130	-0.720	-0.540
2020/01/31 13:50:11.7	2.340	0.160	-0.780	-0.560
2020/01/31 13:50:11.8	2.360	0.200	-0.840	-0.570
2020/01/31 13:50:11.9	2.390	0.230	-0.890	-0.580
2020/01/31 13:50:12.0	2.410	0.260	-0.930	-0.590
2020/01/31 13:50:12.1	2.430	0.280	-0.970	-0.600
2020/01/31 13:50:12.2	2.450	0.300	-1.000	-0.610
2020/01/31 13:50:12.3	2.470	0.320	-1.030	-0.610
2020/01/31 13:50:12.4	2.490	0.330	-1.040	-0.620
2020/01/31 13:50:12.5	2.510	0.340	-1.050	-0.620
2020/01/31 13:50:12.6	2.540	0.350	-1.060	-0.620
2020/01/31 13:50:12.7	2.560	0.350	-1.050	-0.610
2020/01/31 13:50:12.8	2.580	0.350	-1.040	-0.610
2020/01/31 13:50:12.9	2.600	0.350	-1.020	-0.600
2020/01/31 13:50:13.0	2.620	0.340	-0.990	-0.590
2020/01/31 13:50:13.1	2.640	0.330	-0.960	-0.580
2020/01/31 13:50:13.2	2.660	0.320	-0.920	-0.570
2020/01/31 13:50:13.3	2.680	0.300	-0.880	-0.550
2020/01/31 13:50:13.4	2.700	0.280	-0.830	-0.540
2020/01/31 13:50:13.5	2.720	0.260	-0.770	-0.520
2020/01/31 13:50:13.6	2.750	0.230	-0.720	-0.500
2020/01/31 13:50:13.7	2.770	0.210	-0.660	-0.480
2020/01/31 13:50:13.8	2.790	0.180	-0.590	-0.450
2020/01/31 13:50:13.9	2.810	0.150	-0.530	-0.430
2020/01/31 13:50:14.0	2.830	0.120	-0.460	-0.410
2020/01/31 13:50:14.1	2.850	0.090	-0.400	-0.380
2020/01/31 13:50:14.2	2.870	0.060	-0.330	-0.350
2020/01/31 13:50:14.3	2.890	0.040	-0.260	-0.330
2020/01/31 13:50:14.4	2.910	0.010	-0.200	-0.300
2020/01/31 13:50:14.5	2.920	-0.020	-0.140	-0.270
2020/01/31 13:50:14.6	2.950	-0.050	-0.090	-0.230
2020/01/31 13:50:14.7	2.960	-0.070	-0.040	-0.200
2020/01/31 13:50:14.8	2.970	-0.090	0.010	-0.170
2020/01/31 13:50:14.9	2.980	-0.110	0.060	-0.130
2020/01/31 13:50:15.0	2.990	-0.130	0.090	-0.100
2020/01/31 13:50:15.1	3.000	-0.150	0.130	-0.070
2020/01/31 13:50:15.2	3.000	-0.160	0.150	-0.030
2020/01/31 13:50:15.3	3.010	-0.170	0.180	-0.000
2020/01/31 13:50:15.4	3.010	-0.170	0.190	0.030
2020/01/31 13:50:15.5	3.020	-0.170	0.200	0.060
2020/01/31 13:50:15.6	3.030	-0.170	0.200	0.090
2020/01/31 13:50:15.7	3.030	-0.170	0.200	0.110
2020/01/31 13:50:15.8	3.030	-0.160	0.200	0.140
2020/01/31 13:50:15.9	3.030	-0.140	0.180	0.160
2020/01/31 13:50:16.0	3.030	-0.130	0.170	0.180
2020/01/31 13:50:16.1	3.030	-0.110	0.140	0.200
2020/01/31 13:50:16.2	3.030	-0.080	0.120	0.220
2020/01/31 13:50:16.3	3.030	-0.050	0.090	0.240
2020/01/31 13:50:16.4	3.030	-0.020	0.060	0.250
2020/01/31 13:50:16.5	3.030	0.010	0.030	0.270
2020/01/31 13:50:16.6	3.040	0.040	-0.010	0.280
2020/01/31 13:50:16.7	3.040	0.080	-0.050	0.290
2020/01/31 13:50:16.8	3.040	0.120	-0.080	0.300
2020/01/31 13:50:16.9	3.040	0.160	-0.120	0.320
2020/01/31 13:50:17.0	3.050	0.200	-0.160	0.330
2020/01/31 13:50:17.1	3.050	0.240	-0.200	0.340
2020/01/31 13:50:17.2	3.060	0.280	-0.230	0.350
2020/01/31 13:50:17.3	3.060	0.330	-0.270	0.360
2020/01/31 13:50:17.4	3.070	0.370	-0.300	0.370
2020/01/31 13:50:17.5	3.070	0.400	-0.330	0.380
2020/01/31 13:50:17.6	3.080	0.440	-0.360	0.390
2020/01/31 13:50:17.7	3.090	0.480	-0.390	0.400
2020/01/31 13:50:17.8	3.090	0.510	-0.410	0.400
2020/01/31 13:50:17.9	3.100	0.540	-0.430	0.400
2020/01/31 13:50:18.0	3.110	0.560	-0.450	0.400
2020/01/31 13:50:18.1	3.110	0.580	-0.460	0.400
2020/01/31 13:50:18.2	3.120	0.600	-0.470	0.390
2020/01/31 13:50:18.3	3.120	0.610	-0.480	0.380
2020/01/31 13:50:18.4	3.130	0.620	-0.480	0.370
2020/01/31 13:50:18.5	3.130	0.620	-0.480	0.350
2020/01/31 13:50:18.6	3.130	0.620	-0.480	0.330
2020/01/31 13:50:18.7	3.130	0.620	-0.470	0.300
2020/01/31 13:50:18.8	3.130	0.610	-0.460	0.270
2020/01/31 13:50:18.9	3.120	0.590	-0.450	0.240
2020/01/31 13:50:19.0	3.110	0.570	-0.430	0.200
2020/01/31 13:50:19.1	3.100	0.540	-0.410	0.160
2020/01/31 13:50:19.2	3.090	0.510	-0.390	0.120
2020/01/31 13:50:19.3	3.080	0.480	-0.370	0.080
2020/01/31 13:50:19.4	3.060	0.440	-0.340	0.030
2020/01/31 13:50:19.5	3.050	0.390	-0.310	-0.020
2020/01/31 13:50:19.6	3.040	0.350	-0.280	-0.060
2020/01/31 13:50:19.7	3.020	0.300	-0.240	-0.110
2020/01/31 13:50:19.8	3.010	0.240	-0.210	-0.160
2020/01/31 13:50:19.9	2.990	0.190	-0.180	-0.220
2020/01/31 13:50:20.0	2.970	0.130	-0.140	-0.270
2020/01/31 13:50:20.1	2.960	0.060	-0.100	-0.320
2020/01/31 13:50:20.2	2.940	0.000	-0.070	-0.380
2020/01/31 13:50:20.3	2.930	-0.060	-0.040	-0.440
2020/01/31 13:50:20.4	2.920	-0.130	-0.000	-0.490
2020/01/31 13:50:20.5	2.910	-0.190	0.030	-0.550
2020/01/31 13:50:20.6	2.900	-0.260	0.050	-0.610
2020/01/31 13:50:20.7	2.890	-0.320	0.080	-0.680
2020/01/31 13:50:20.8	2.880	-0.380	0.100	-0.740
2020/01/31 13:50:20.9	2.880	-0.440	0.120	-0.800
2020/01/31 13:50:21.0	2.880	-0.500	0.140	-0.870
2020/01/31 13:50:21.1	2.880	-0.560	0.150	-0.940
2020/01/31 13:50:21.2	2.880	-0.610	0.160	-1.010
2020/01/31 13:50:21.3	2.890	-0.660	0.160	-1.080
2020/01/31 13:50:21.4	2.890	-0.710	0.160	-1.140
2020/01/31 13:50:21.5	2.900	-0.750	0.160	-1.210
2020/01/31 13:50:21.6	2.900	-0.790	0.150	-1.280
2020/01/31 13:50:21.7	2.910	-0.820	0.140	-1.350
2020/01/31 13:50:21.8	2.920	-0.850	0.130	-1.420
2020/01/31 13:50:21.9	2.930	-0.880	0.120	-1.480
2020/01/31 13:50:22.0	2.940	-0.900	0.100	-1.540
2020/01/31 13:50:22.1	2.940	-0.920	0.080	-1.600
2020/01/31 13:50:22.2	2.950	-0.930	0.060	-1.660
2020/01/31 13:50:22.3	2.960	-0.930	0.050	-1.710
2020/01/31 13:50:22.4	2.970	-0.940	0.030	-1.760
2020/01/31 13:50:22.5	2.980	-0.930	0.010	-1.800
2020/01/31 13:50:22.6	2.980	-0.930	-0.010	-1.850
2020/01/31 13:50:22.7	2.990	-0.910	-0.030	-1.880
2020/01/31 13:50:22.8	3.000	-0.900	-0.050	-1.920
2020/01/31 13:50:22.9	3.010	-0.880	-0.070	-1.950
2020/01/31 13:50:23.0	3.020	-0.850	-0.090	-1.970
2020/01/31 13:50:23.1	3.030	-0.820	-0.110	-1.990
2020/01/31 13:50:23.2	3.050	-0.790	-0.130	-2.010
2020/01/31 13:50:23.3	3.060	-0.750	-0.150	-2.020
2020/01/31 13:50:23.4	3.080	-0.710	-0.180	-2.030
2020/01/31 13:50:23.5	3.100	-0.660	-0.200	-2.040
2020/01/31 13:50:23.6	3.130	-0.610	-0.220	-2.040
2020/01/31 13:50:23.7	3.150	-0.560	-0.240	-2.040
2020/01/31 13:50:23.8	3.180	-0.510	-0.270	-2.040
2020/01/31 13:50:23.9	3.210	-0.450	-0.290	-2.030
2020/01/31 13:50:24.0	3.230	-0.390	-0.320	-2.020
2020/01/31 13:50:24.1	3.270	-0.330	-0.350	-2.010
2020/01/31 13:50:24.2	3.300	-0.260	-0.380	-1.990
2020/01/31 13:50:24.3	3.330	-0.200	-0.410	-1.970
2020/01/31 13:50:24.4	3.360	-0.130	-0.440	-1.950
2020/01/31 13:50:24.5	3.400	-0.070	-0.470	-1.920
2020/01/31 13:50:24.6	3.430	-0.000	-0.500	-1.880
2020/01/31 13:50:24.7	3.460	0.060	-0.530	-1.840
2020/01/31 13:50:24.8	3.490	0.130	-0.560	-1.790
2020/01/31 13:50:24.9	3.510	0.190	-0.590	-1.740
2020/01/31 13:50:25.0	3.540	0.250	-0.620	-1.690
2020/01/31 13:50:25.1	3.560	0.300	-0.640	-1.620
2020/01/31 13:50:25.2	3.570	0.360	-0.660	-1.560
2020/01/31 13:50:25.3	3.590	0.410	-0.680	-1.480
2020/01/31 13:50:25.4	3.600	0.460	-0.690	-1.410
2020/01/31 13:50:25.5	3.600	0.500	-0.710	-1.330
2020/01/31 13:50:25.6	3.600	0.540	-0.720	-1.240
2020/01/31 13:50:25.7	3.610	0.570	-0.720	-1.150
2020/01/31 13:50:25.8	3.600	0.600	-0.730	-1.060
2020/01/31 13:50:25.9	3.600	0.630	-0.730	-0.980
2020/01/31 13:50:26.0	3.600	0.650	-0.720	-0.890
2020/01/31 13:50:26.1	3.590	0.670	-0.720	-0.800
2020/01/31 13:50:26.2	3.590	0.680	-0.710	-0.720
2020/01/31 13:50:26.3	3.580	0.690	-0.690	-0.640
2020/01/31 13:50:26.4	3.570	0.690	-0.680	-0.550
2020/01/31 13:50:26.5	3.560	0.690	-0.660	-0.470
2020/01/31 13:50:26.6	3.560	0.680	-0.640	-0.390
2020/01/31 13:50:26.7	3.560	0.670	-0.610	-0.310
2020/01/31 13:50:26.8	3.550	0.660	-0.590	-0.230
2020/01/31 13:50:26.9	3.540	0.650	-0.560	-0.160
2020/01/31 13:50:27.0	3.540	0.630	-0.530	-0.090
2020/01/31 13:50:27.1	3.530	0.610	-0.490	-0.020
2020/01/31 13:50:27.2	3.530	0.580	-0.460	0.050
2020/01/31 13:50:27.3	3.530	0.560	-0.420	0.110
2020/01/31 13:50:27.4	3.530	0.530	-0.390	0.180
2020/01/31 13:50:27.5	3.530	0.510	-0.350	0.240
2020/01/31 13:50:27.6	3.540	0.480	-0.310	0.300
2020/01/31 13:50:27.7	3.540	0.450	-0.270	0.350
2020/01/31 13:50:27.8	3.540	0.420	-0.230	0.410
2020/01/31 13:50:27.9	3.550	0.390	-0.200	0.460
2020/01/31 13:50:28.0	3.560	0.370	-0.160	0.510
2020/01/31 13:50:28.1	3.560	0.340	-0.120	0.560
2020/01/31 13:50:28.2	3.570	0.310	-0.080	0.600
2020/01/31 13:50:28.3	3.580	0.280	-0.040	0.640
2020/01/31 13:50:28.4	3.590	0.260	-0.000	0.680
2020/01/31 13:50:28.5	3.590	0.230	0.040	0.720
2020/01/31 13:50:28.6	3.600	0.210	0.070	0.750
2020/01/31 13:50:28.7	3.600	0.180	0.110	0.780
2020/01/31 13:50:28.8	3.610	0.160	0.140	0.810
2020/01/31 13:50:28.9	3.610	0.130	0.180	0.830
2020/01/31 13:50:29.0	3.620	0.110	0.210	0.850
2020/01/31 13:50:29.1	3.620	0.090	0.240	0.870
2020/01/31 13:50:29.2	3.620	0.060	0.270	0.880
2020/01/31 13:50:29.3	3.610	0.040	0.290	0.900
2020/01/31 13:50:29.4	3.610	0.020	0.320	0.910
2020/01/31 13:50:29.5	3.600	-0.000	0.340	0.910
2020/01/31 13:50:29.6	3.590	-0.020	0.360	0.920
2020/01/31 13:50:29.7	3.580	-0.040	0.370	0.920
2020/01/31 13:50:29.8	3.560	-0.060	0.390	0.930
2020/01/31 13:50:29.9	3.550	-0.080	0.400	0.930
2020/01/31 13:50:30.0	3.530	-0.100	0.400	0.920
2020/01/31 13:50:30.1	3.510	-0.120	0.400	0.920
2020/01/31 13:50:30.2	3.480	-0.140	0.400	0.910
2020/01/31 13:50:30.3	3.460	-0.160	0.400	0.910
2020/01/31 13:50:30.4	3.430	-0.180	0.390	0.900
2020/01/31 13:50:30.5	3.400	-0.200	0.370	0.880
2020/01/31 13:50:30.6	3.370	-0.220	0.350	0.870
2020/01/31 13:50:30.7	3.340	-0.240	0.330	0.850
2020/01/31 13:50:30.8	3.310	-0.260	0.310	0.830
2020/01/31 13:50:30.9	3.280	-0.270	0.280	0.800
2020/01/31 13:50:31.0	3.250	-0.290	0.250	0.770
2020/01/31 13:50:31.1	3.210	-0.300	0.220	0.740
2020/01/31 13:50:31.2	3.180	-0.320	0.180	0.710
2020/01/31 13:50:31.3	3.150	-0.330	0.140	0.670
2020/01/31 13:50:31.4	3.120	-0.340	0.100	0.630
2020/01/31 13:50:31.5	3.100	-0.350	0.050	0.580
2020/01/31 13:50:31.6	3.070	-0.360	0.010	0.530
2020/01/31 13:50:31.7	3.040	-0.360	-0.040	0.480
2020/01/31 13:50:31.8	3.020	-0.370	-0.090	0.420
2020/01/31 13:50:31.9	3.000	-0.370	-0.140	0.360
2020/01/31 13:50:32.0	2.980	-0.370	-0.190	0.300
2020/01/31 13:50:32.1	2.960	-0.360	-0.250	0.240
2020/01/31 13:50:32.2	2.950	-0.360	-0.300	0.170
2020/01/31 13:50:32.3	2.940	-0.350	-0.350	0.100
2020/01/31 13:50:32.4	2.930	-0.340	-0.410	0.030
2020/01/31 13:50:32.5	2.930	-0.320	-0.460	-0.040
2020/01/31 13:50:32.6	2.930	-0.310	-0.510	-0.120
2020/01/31 13:50:32.7	2.940	-0.290	-0.560	-0.190
2020/01/31 13:50:32.8	2.950	-0.260	-0.620	-0.270
2020/01/31 13:50:32.9	2.960	-0.240	-0.670	-0.350
2020/01/31 13:50:33.0	2.970	-0.210	-0.720	-0.430
2020/01/31 13:50:33.1	2.990	-0.180	-0.760	-0.510
2020/01/31 13:50:33.2	3.010	-0.150	-0.810	-0.580
2020/01/31 13:50:33.3	3.040	-0.120	-0.850	-0.660
2020/01/31 13:50:33.4	3.060	-0.080	-0.890	-0.740
2020/01/31 13:50:33.5	3.090	-0.050	-0.930	-0.810
2020/01/31 13:50:33.6	3.120	-0.010	-0.960	-0.890
2020/01/31 13:50:33.7	3.150	0.030	-0.990	-0.960
2020/01/31 13:50:33.8	3.180	0.060	-1.020	-1.030
2020/01/31 13:50:33.9	3.220	0.100	-1.040	-1.100
2020/01/31 13:50:34.0	3.250	0.140	-1.060	-1.170
2020/01/31 13:50:34.1	3.290	0.170	-1.070	-1.230
2020/01/31 13:50:34.2	3.320	0.210	-1.080	-1.300
2020/01/31 13:50:34.3	3.360	0.240	-1.080	-1.360
2020/01/31 13:50:34.4	3.400	0.280	-1.090	-1.420
2020/01/31 13:50:34.5	3.440	0.310	-1.080	-1.470
2020/01/31 13:50:34.6	3.480	0.340	-1.080	-1.520
2020/01/31 13:50:34.7	3.510	0.360	-1.060	-1.580
2020/01/31 13:50:34.8	3.550	0.390	-1.040	-1.620
2020/01/31 13:50:34.9	3.590	0.410	-1.020	-1.670
2020/01/31 13:50:35.0	3.630	0.420	-1.000	-1.710
2020/01/31 13:50:35.1	3.660	0.440	-0.960	-1.750
2020/01/31 13:50:35.2	3.700	0.450	-0.930	-1.780
2020/01/31 13:50:35.3	3.740	0.450	-0.890	-1.810
2020/01/31 13:50:35.4	3.770	0.460	-0.850	-1.840
2020/01/31 13:50:35.5	3.810	0.460	-0.800	-1.860
2020/01/31 13:50:35.6	3.840	0.450	-0.750	-1.870
2020/01/31 13:50:35.7	3.870	0.450	-0.700	-1.880
2020/01/31 13:50:35.8	3.900	0.440	-0.640	-1.890
2020/01/31 13:50:35.9	3.930	0.420	-0.590	-1.890
2020/01/31 13:50:36.0	3.960	0.410	-0.530	-1.890
2020/01/31 13:50:36.1	3.990	0.380	-0.460	-1.880
2020/01/31 13:50:36.2	4.010	0.360	-0.400	-1.860
2020/01/31 13:50:36.3	4.030	0.330	-0.330	-1.840
2020/01/31 13:50:36.4	4.050	0.300	-0.260	-1.810
2020/01/31 13:50:36.5	4.060	0.270	-0.190	-1.780
2020/01/31 13:50:36.6	4.070	0.230	-0.130	-1.730
2020/01/31 13:50:36.7	4.070	0.190	-0.060	-1.690
2020/01/31 13:50:36.8	4.080	0.150	0.010	-1.650
2020/01/31 13:50:36.9	4.080	0.110	0.080	-1.600
2020/01/31 13:50:37.0	4.080	0.070	0.150	-1.540
2020/01/31 13:50:37.1	4.070	0.020	0.220	-1.480
2020/01/31 13:50:37.2	4.060	-0.020	0.290	-1.420
2020/01/31 13:50:37.3	4.050	-0.070	0.360	-1.360
2020/01/31 13:50:37.4	4.030	-0.120	0.420	-1.300
2020/01/31 13:50:37.5	4.010	-0.160	0.490	-1.230
2020/01/31 13:50:37.6	3.990	-0.210	0.550	-1.150
2020/01/31 13:50:37.7	3.970	-0.250	0.600	-1.080
2020/01/31 13:50:37.8	3.940	-0.290	0.660	-1.010
2020/01/31 13:50:37.9	3.910	-0.330	0.710	-0.930
2020/01/31 13:50:38.0	3.870	-0.370	0.750	-0.860
2020/01/31 13:50:38.1	3.840	-0.410	0.790	-0.780
2020/01/31 13:50:38.2	3.800	-0.440	0.830	-0.700
2020/01/31 13:50:38.3	3.760	-0.470	0.860	-0.620
2020/01/31 13:50:38.4	3.720	-0.490	0.890	-0.540
2020/01/31 13:50:38.5	3.680	-0.510	0.910	-0.460
2020/01/31 13:50:38.6	3.640	-0.530	0.920	-0.380
2020/01/31 13:50:38.7	3.600	-0.540	0.930	-0.300
2020/01/31 13:50:38.8	3.560	-0.550	0.930	-0.220
2020/01/31 13:50:38.9	3.520	-0.550	0.920	-0.140
2020/01/31 13:50:39.0	3.480	-0.550	0.910	-0.060
2020/01/31 13:50:39.1	3.430	-0.550	0.890	0.010
2020/01/31 13:50:39.2	3.390	-0.540	0.870	0.090
2020/01/31 13:50:39.3	3.360	-0.520	0.830	0.170
2020/01/31 13:50:39.4	3.320	-0.510	0.800	0.240
2020/01/31 13:50:39.5	3.280	-0.480	0.750	0.310
2020/01/31 13:50:39.6	3.240	-0.460	0.690	0.390
2020/01/31 13:50:39.7	3.200	-0.430	0.630	0.450
2020/01/31 13:50:39.8	3.170	-0.400	0.570	0.520
2020/01/31 13:50:39.9	3.140	-0.360	0.500	0.570
2020/01/31 13:50:40.0	3.110	-0.320	0.430	0.630
2020/01/31 13:50:40.1	3.080	-0.280	0.350	0.680
2020/01/31 13:50:40.2	3.050	-0.240	0.260	0.730
2020/01/31 13:50:40.3	3.020	-0.190	0.170	0.770
2020/01/31 13:50:40.4	3.000	-0.140	0.080	0.810
2020/01/31 13:50:40.5	2.980	-0.100	-0.010	0.840
2020/01/31 13:50:40.6	2.970	-0.050	-0.100	0.860
2020/01/31 13:50:40.7	2.950	0.000	-0.200	0.880
2020/01/31 13:50:40.8	2.940	0.050	-0.300	0.890
2020/01/31 13:50:40.9	2.930	0.100	-0.400	0.900
2020/01/31 13:50:41.0	2.920	0.150	-0.490	0.900
2020/01/31 13:50:41.1	2.910	0.200	-0.590	0.900
2020/01/31 13:50:41.2	2.910	0.240	-0.680	0.890
2020/01/31 13:50:41.3	2.910	0.280	-0.770	0.880
2020/01/31 13:50:41.4	2.910	0.320	-0.860	0.870
2020/01/31 13:50:41.5	2.910	0.360	-0.930	0.850
2020/01/31 13:50:41.6	2.910	0.400	-1.010	0.830
2020/01/31 13:50:41.7	2.920	0.430	-1.080	0.810
2020/01/31 13:50:41.8	2.920	0.460	-1.130	0.790
2020/01/31 13:50:41.9	2.930	0.480	-1.180	0.770
2020/01/31 13:50:42.0	2.930	0.500	-1.220	0.750
2020/01/31 13:50:42.1	2.940	0.520	-1.260	0.730
2020/01/31 13:50:42.2	2.950	0.530	-1.280	0.710
2020/01/31 13:50:42.3	2.950	0.540	-1.290	0.690
2020/01/31 13:50:42.4	2.960	0.550	-1.290	0.660
2020/01/31 13:50:42.5	2.970	0.550	-1.290	0.640
2020/01/31 13:50:42.6	2.980	0.540	-1.270	0.620
2020/01/31 13:50:42.7	2.990	0.530	-1.250	0.600
2020/01/31 13:50:42.8	3.000	0.520	-1.220	0.580
2020/01/31 13:50:42.9	3.010	0.500	-1.180	0.560
2020/01/31 13:50:43.0	3.030	0.480	-1.130	0.530
2020/01/31 13:50:43.1	3.040	0.460	-1.080	0.510
2020/01/31 13:50:43.2	3.050	0.430	-1.030	0.480
2020/01/31 13:50:43.3	3.060	0.400	-0.970	0.450
2020/01/31 13:50:43.4	3.080	0.370	-0.910	0.420
2020/01/31 13:50:43.5	3.090	0.330	-0.850	0.390
2020/01/31 13:50:43.6	3.110	0.300	-0.790	0.360
2020/01/31 13:50:43.7	3.130	0.260	-0.730	0.320
2020/01/31 13:50:43.8	3.150	0.220	-0.670	0.290
2020/01/31 13:50:43.9	3.170	0.180	-0.610	0.250
2020/01/31 13:50:44.0	3.190	0.150	-0.550	0.210
2020/01/31 13:50:44.1	3.220	0.110	-0.500	0.170
2020/01/31 13:50:44.2	3.240	0.070	-0.450	0.120
2020/01/31 13:50:44.3	3.260	0.030	-0.400	0.080
2020/01/31 13:50:44.4	3.290	-0.000	-0.360	0.030
2020/01/31 13:50:44.5	3.310	-0.040	-0.320	-0.020
2020/01/31 13:50:44.6	3.340	-0.070	-0.280	-0.060
2020/01/31 13:50:44.7	3.370	-0.100	-0.250	-0.110
2020/01/31 13:50:44.8	3.400	-0.130	-0.220	-0.170
2020/01/31 13:50:44.9	3.420	-0.160	-0.190	-0.220
2020/01/31 13:50:45.0	3.450	-0.190	-0.170	-0.270
2020/01/31 13:50:45.1	3.480	-0.210	-0.150	-0.330
2020/01/31 13:50:45.2	3.510	-0.240	-0.130	-0.390
2020/01/31 13:50:45.3	3.530	-0.260	-0.120	-0.440
2020/01/31 13:50:45.4	3.560	-0.270	-0.100	-0.500
2020/01/31 13:50:45.5	3.590	-0.290	-0.090	-0.560
2020/01/31 13:50:45.6	3.630	-0.300	-0.080	-0.620
2020/01/31 13:50:45.7	3.660	-0.310	-0.080	-0.680
2020/01/31 13:50:45.8	3.690	-0.310	-0.070	-0.740
2020/01/31 13:50:45.9	3.720	-0.320	-0.070	-0.800
2020/01/31 13:50:46.0	3.750	-0.320	-0.070	-0.860
2020/01/31 13:50:46.1	3.770	-0.320	-0.070	-0.920
2020/01/31 13:50:46.2	3.800	-0.310	-0.060	-0.970
2020/01/31 13:50:46.3	3.820	-0.300	-0.060	-1.030
2020/01/31 13:50:46.4	3.850	-0.290	-0.060	-1.070
2020/01/31 13:50:46.5	3.870	-0.280	-0.050	-1.120
2020/01/31 13:50:46.6	3.890	-0.260	-0.050	-1.160
2020/01/31 13:50:46.7	3.910	-0.240	-0.050	-1.190
2020/01/31 13:50:46.8	3.920	-0.220	-0.040	-1.220
2020/01/31 13:50:46.9	3.930	-0.200	-0.030	-1.240
2020/01/31 13:50:47.0	3.940	-0.170	-0.010	-1.260
2020/01/31 13:50:47.1	3.940	-0.150	0.000	-1.270
2020/01/31 13:50:47.2	3.940	-0.120	0.020	-1.280
2020/01/31 13:50:47.3	3.940	-0.090	0.030	-1.280
2020/01/31 13:50:47.4	3.930	-0.070	0.050	-1.270
2020/01/31 13:50:47.5	3.920	-0.040	0.070	-1.260
2020/01/31 13:50:47.6	3.900	-0.010	0.090	-1.240
2020/01/31 13:50:47.7	3.890	0.020	0.100	-1.230
2020/01/31 13:50:47.8	3.880	0.040	0.120	-1.210
2020/01/31 13:50:47.9	3.860	0.070	0.130	-1.190
2020/01/31 13:50:48.0	3.840	0.090	0.140	-1.170
2020/01/31 13:50:48.1	3.820	0.110	0.150	-1.150
2020/01/31 13:50:48.2	3.800	0.130	0.150	-1.130
2020/01/31 13:50:48.3	3.790	0.150	0.150	-1.110
2020/01/31 13:50:48.4	3.770	0.170	0.150	-1.090
2020/01/31 13:50:48.5	3.750	0.180	0.140	-1.070
2020/01/31 13:50:48.6	3.730	0.200	0.120	-1.050
2020/01/31 13:50:48.7	3.710	0.210	0.110	-1.030
2020/01/31 13:50:48.8	3.700	0.220	0.080	-1.020
2020/01/31 13:50:48.9	3.680	0.220	0.060	-1.010
2020/01/31 13:50:49.0	3.660	0.230	0.030	-0.990
2020/01/31 13:50:49.1	3.650	0.230	-0.000	-0.980
2020/01/31 13:50:49.2	3.630	0.230	-0.040	-0.980
2020/01/31 13:50:49.3	3.620	0.230	-0.080	-0.970
2020/01/31 13:50:49.4	3.600	0.220	-0.120	-0.960
2020/01/31 13:50:49.5	3.590	0.220	-0.160	-0.960
2020/01/31 13:50:49.6	3.580	0.210	-0.200	-0.950
2020/01/31 13:50:49.7	3.560	0.200	-0.240	-0.950
2020/01/31 13:50:49.8	3.540	0.190	-0.280	-0.950
2020/01/31 13:50:49.9	3.520	0.170	-0.320	-0.940
2020/01/31 13:50:50.0	3.500	0.160	-0.360	-0.940
2020/01/31 13:50:50.1	3.480	0.140	-0.390	-0.930
2020/01/31 13:50:50.2	3.450	0.120	-0.420	-0.930
2020/01/31 13:50:50.3	3.430	0.100	-0.440	-0.920
2020/01/31 13:50:50.4	3.400	0.080	-0.460	-0.900
2020/01/31 13:50:50.5	3.360	0.060	-0.470	-0.890
2020/01/31 13:50:50.6	3.330	0.040	-0.470	-0.870
2020/01/31 13:50:50.7	3.290	0.010	-0.460	-0.850
2020/01/31 13:50:50.8	3.260	-0.010	-0.450	-0.830
2020/01/31 13:50:50.9	3.220	-0.040	-0.440	-0.800
2020/01/31 13:50:51.0	3.180	-0.070	-0.410	-0.770
2020/01/31 13:50:51.1	3.150	-0.100	-0.380	-0.740
2020/01/31 13:50:51.2	3.110	-0.120	-0.350	-0.700
2020/01/31 13:50:51.3	3.070	-0.150	-0.310	-0.670
2020/01/31 13:50:51.4	3.040	-0.180	-0.270	-0.630
2020/01/31 13:50:51.5	3.000	-0.200	-0.230	-0.600
2020/01/31 13:50:51.6	2.980	-0.230	-0.190	-0.560
2020/01/31 13:50:51.7	2.950	-0.250	-0.140	-0.520
2020/01/31 13:50:51.8	2.930	-0.280	-0.100	-0.490
2020/01/31 13:50:51.9	2.900	-0.300	-0.060	-0.450
2020/01/31 13:50:52.0	2.890	-0.310	-0.010	-0.420
2020/01/31 13:50:52.1	2.880	-0.330	0.020	-0.390
2020/01/31 13:50:52.2	2.870	-0.340	0.060	-0.360
2020/01/31 13:50:52.3	2.870	-0.350	0.090	-0.340
2020/01/31 13:50:52.4	2.870	-0.360	0.110	-0.320
2020/01/31 13:50:52.5	2.870	-0.370	0.130	-0.300
2020/01/31 13:50:52.6	2.880	-0.370	0.150	-0.290
2020/01/31 13:50:52.7	2.890	-0.360	0.160	-0.280
2020/01/31 13:50:52.8	2.910	-0.360	0.160	-0.270
2020/01/31 13:50:52.9	2.930	-0.350	0.150	-0.270
2020/01/31 13:50:53.0	2.960	-0.330	0.140	-0.270
2020/01/31 13:50:53.1	2.990	-0.320	0.130	-0.270
2020/01/31 13:50:53.2	3.020	-0.300	0.100	-0.280
2020/01/31 13:50:53.3	3.050	-0.270	0.080	-0.280
2020/01/31 13:50:53.4	3.080	-0.250	0.050	-0.290
2020/01/31 13:50:53.5	3.120	-0.220	0.020	-0.300
2020/01/31 13:50:53.6	3.150	-0.190	-0.010	-0.300
2020/01/31 13:50:53.7	3.190	-0.160	-0.050	-0.310
2020/01/31 13:50:53.8	3.220	-0.130	-0.080	-0.320
2020/01/31 13:50:53.9	3.250	-0.100	-0.120	-0.330
2020/01/31 13:50:54.0	3.280	-0.060	-0.160	-0.340
2020/01/31 13:50:54.1	3.310	-0.030	-0.190	-0.340
2020/01/31 13:50:54.2	3.340	0.010	-0.230	-0.350
2020/01/31 13:50:54.3	3.360	0.040	-0.260	-0.360
2020/01/31 13:50:54.4	3.380	0.080	-0.290	-0.360
2020/01/31 13:50:54.5	3.400	0.110	-0.320	-0.370
2020/01/31 13:50:54.6	3.420	0.140	-0.350	-0.370
2020/01/31 13:50:54.7	3.430	0.170	-0.370	-0.370
2020/01/31 13:50:54.8	3.440	0.200	-0.390	-0.370
2020/01/31 13:50:54.9	3.450	0.230	-0.410	-0.370
2020/01/31 13:50:55.0	3.460	0.260	-0.420	-0.360
2020/01/31 13:50:55.1	3.460	0.280	-0.430	-0.350
2020/01/31 13:50:55.2	3.460	0.300	-0.430	-0.340
2020/01/31 13:50:55.3	3.460	0.320	-0.440	-0.330
2020/01/31 13:50:55.4	3.450	0.340	-0.440	-0.320
2020/01/31 13:50:55.5	3.440	0.360	-0.440	-0.300
2020/01/31 13:50:55.6	3.440	0.370	-0.430	-0.290
2020/01/31 13:50:55.7	3.430	0.380	-0.420	-0.270
2020/01/31 13:50:55.8	3.420	0.380	-0.420	-0.250
2020/01/31 13:50:55.9	3.410	0.390	-0.410	-0.240
2020/01/31 13:50:56.0	3.400	0.390	-0.400	-0.220
2020/01/31 13:50:56.1	3.390	0.390	-0.390	-0.210
2020/01/31 13:50:56.2	3.390	0.380	-0.390	-0.190
2020/01/31 13:50:56.3	3.380	0.380	-0.380	-0.180
2020/01/31 13:50:56.4	3.380	0.370	-0.380	-0.170
2020/01/31 13:50:56.5	3.370	0.360	-0.380	-0.160
2020/01/31 13:50:56.6	3.380	0.350	-0.380	-0.150
2020/01/31 13:50:56.7	3.380	0.340	-0.380	-0.150
2020/01/31 13:50:56.8	3.390	0.320	-0.390	-0.150
2020/01/31 13:50:56.9	3.390	0.310	-0.400	-0.150
2020/01/31 13:50:57.0	3.400	0.290	-0.400	-0.150
2020/01/31 13:50:57.1	3.400	0.270	-0.420	-0.160
2020/01/31 13:50:57.2	3.410	0.250	-0.430	-0.170
2020/01/31 13:50:57.3	3.420	0.230	-0.440	-0.180
2020/01/31 13:50:57.4	3.420	0.210	-0.460	-0.190
2020/01/31 13:50:57.5	3.430	0.190	-0.480	-0.200
2020/01/31 13:50:57.6	3.440	0.170	-0.490	-0.210
2020/01/31 13:50:57.7	3.440	0.150	-0.510	-0.220
2020/01/31 13:50:57.8	3.440	0.130	-0.530	-0.230
2020/01/31 13:50:57.9	3.440	0.110	-0.540	-0.240
2020/01/31 13:50:58.0	3.430	0.080	-0.560	-0.260
2020/01/31 13:50:58.1	3.420	0.060	-0.570	-0.270
2020/01/31 13:50:58.2	3.420	0.040	-0.580	-0.280
2020/01/31 13:50:58.3	3.410	0.020	-0.590	-0.290
2020/01/31 13:50:58.4	3.400	-0.000	-0.590	-0.310
2020/01/31 13:50:58.5	3.380	-0.020	-0.590	-0.320
2020/01/31 13:50:58.6	3.370	-0.040	-0.590	-0.330
2020/01/31 13:50:58.7	3.360	-0.060	-0.590	-0.340
2020/01/31 13:50:58.8	3.340	-0.080	-0.580	-0.350
2020/01/31 13:50:58.9	3.330	-0.100	-0.570	-0.360
2020/01/31 13:50:59.0	3.310	-0.110	-0.560	-0.370
2020/01/31 13:50:59.1	3.290	-0.120	-0.540	-0.380
2020/01/31 13:50:59.2	3.270	-0.140	-0.520	-0.380
2020/01/31 13:50:59.3	3.260	-0.150	-0.500	-0.390
2020/01/31 13:50:59.4	3.240	-0.160	-0.480	-0.390
2020/01/31 13:50:59.5	3.230	-0.160	-0.450	-0.390
2020/01/31 13:50:59.6	3.220	-0.170	-0.430	-0.390
2020/01/31 13:50:59.7	3.210	-0.170	-0.400	-0.400
2020/01/31 13:50:59.8	3.200	-0.170	-0.370	-0.390
2020/01/31 13:50:59.9	3.190	-0.170	-0.340	-0.390
2020/01/31 13:51:00.0	3.180	-0.160	-0.320	-0.390
2020/01/31 13:51:00.1	3.180	-0.160	-0.290	-0.390
2020/01/31 13:51:00.2	3.180	-0.150	-0.260	-0.380
2020/01/31 13:51:00.3	3.180	-0.140	-0.230	-0.380
2020/01/31 13:51:00.4	3.180	-0.130	-0.210	-0.370
2020/01/31 13:51:00.5	3.180	-0.120	-0.180	-0.370
2020/01/31 13:51:00.6	3.190	-0.110	-0.160	-0.360
2020/01/31 13:51:00.7	3.200	-0.100	-0.130	-0.350
2020/01/31 13:51:00.8	3.200	-0.080	-0.110	-0.340
2020/01/31 13:51:00.9	3.210	-0.070	-0.090	-0.340
2020/01/31 13:51:01.0	3.220	-0.050	-0.070	-0.340
2020/01/31 13:51:01.1	3.230	-0.040	-0.050	-0.330
2020/01/31 13:51:01.2	3.240	-0.030	-0.030	-0.330
2020/01/31 13:51:01.3	3.250	-0.010	-0.010	-0.320
2020/01/31 13:51:01.4	3.270	-0.000	0.010	-0.320
2020/01/31 13:51:01.5	3.280	0.010	0.020	-0.320
2020/01/31 13:51:01.6	3.290	0.020	0.030	-0.330
2020/01/31 13:51:01.7	3.300	0.030	0.040	-0.330
2020/01/31 13:51:01.8	3.310	0.040	0.060	-0.330
2020/01/31 13:51:01.9	3.320	0.050	0.070	-0.330
2020/01/31 13:51:02.0	3.330	0.060	0.070	-0.330
2020/01/31 13:51:02.1	3.350	0.060	0.080	-0.330
2020/01/31 13:51:02.2	3.360	0.070	0.090	-0.330
2020/01/31 13:51:02.3	3.370	0.070	0.100	-0.340
2020/01/31 13:51:02.4	3.380	0.070	0.100	-0.340
2020/01/31 13:51:02.5	3.390	0.070	0.110	-0.340
2020/01/31 13:51:02.6	3.390	0.070	0.120	-0.340
2020/01/31 13:51:02.7	3.400	0.070	0.120	-0.340
2020/01/31 13:51:02.8	3.410	0.070	0.130	-0.350
2020/01/31 13:51:02.9	3.420	0.070	0.130	-0.350
2020/01/31 13:51:03.0	3.420	0.060	0.130	-0.350
2020/01/31 13:51:03.1	3.430	0.060	0.130	-0.360
2020/01/31 13:51:03.2	3.440	0.050	0.130	-0.360
2020/01/31 13:51:03.3	3.450	0.040	0.130	-0.360
2020/01/31 13:51:03.4	3.450	0.030	0.130	-0.360
2020/01/31 13:51:03.5	3.460	0.030	0.130	-0.370
2020/01/31 13:51:03.6	3.460	0.020	0.130	-0.370
2020/01/31 13:51:03.7	3.470	0.010	0.130	-0.370
2020/01/31 13:51:03.8	3.470	-0.000	0.120	-0.370
2020/01/31 13:51:03.9	3.470	-0.010	0.120	-0.380
2020/01/31 13:51:04.0	3.480	-0.020	0.120	-0.380
2020/01/31 13:51:04.1	3.480	-0.030	0.110	-0.380
2020/01/31 13:51:04.2	3.470	-0.040	0.100	-0.380
2020/01/31 13:51:04.3	3.470	-0.050	0.100	-0.380
2020/01/31 13:51:04.4	3.470	-0.060	0.090	-0.380
2020/01/31 13:51:04.5	3.470	-0.070	0.080	-0.380
2020/01/31 13:51:04.6	3.470	-0.080	0.080	-0.380
2020/01/31 13:51:04.7	3.460	-0.090	0.070	-0.380
2020/01/31 13:51:04.8	3.450	-0.100	0.060	-0.380
2020/01/31 13:51:04.9	3.440	-0.110	0.040	-0.380
2020/01/31 13:51:05.0	3.430	-0.110	0.030	-0.380
2020/01/31 13:51:05.1	3.420	-0.120	0.010	-0.380
2020/01/31 13:51:05.2	3.410	-0.120	-0.000	-0.380
2020/01/31 13:51:05.3	3.400	-0.130	-0.020	-0.380
2020/01/31 13:51:05.4	3.380	-0.130	-0.040	-0.370
2020/01/31 13:51:05.5	3.370	-0.140	-0.060	-0.370
2020/01/31 13:51:05.6	3.360	-0.140	-0.080	-0.370
2020/01/31 13:51:05.7	3.340	-0.140	-0.100	-0.360
2020/01/31 13:51:05.8	3.330	-0.140	-0.130	-0.360
2020/01/31 13:51:05.9	3.310	-0.140	-0.150	-0.350
2020/01/31 13:51:06.0	3.290	-0.140	-0.180	-0.350
2020/01/31 13:51:06.1	3.270	-0.140	-0.200	-0.340
2020/01/31 13:51:06.2	3.260	-0.140	-0.230	-0.340
2020/01/31 13:51:06.3	3.240	-0.140	-0.260	-0.330
2020/01/31 13:51:06.4	3.220	-0.140	-0.290	-0.330
2020/01/31 13:51:06.5	3.210	-0.140	-0.320	-0.330
2020/01/31 13:51:06.6	3.190	-0.140	-0.350	-0.320
2020/01/31 13:51:06.7	3.170	-0.140	-0.380	-0.320
2020/01/31 13:51:06.8	3.150	-0.140	-0.410	-0.330
2020/01/31 13:51:06.9	3.130	-0.140	-0.430	-0.330
2020/01/31 13:51:07.0	3.120	-0.140	-0.460	-0.330
2020/01/31 13:51:07.1	3.100	-0.140	-0.480	-0.340
2020/01/31 13:51:07.2	3.080	-0.140	-0.500	-0.350
2020/01/31 13:51:07.3	3.070	-0.140	-0.520	-0.350
2020/01/31 13:51:07.4	3.050	-0.140	-0.540	-0.360
2020/01/31 13:51:07.5	3.040	-0.150	-0.560	-0.370
2020/01/31 13:51:07.6	3.030	-0.150	-0.580	-0.380
2020/01/31 13:51:07.7	3.020	-0.150	-0.590	-0.400
2020/01/31 13:51:07.8	3.020	-0.160	-0.600	-0.410
2020/01/31 13:51:07.9	3.010	-0.160	-0.610	-0.420
2020/01/31 13:51:08.0	3.010	-0.160	-0.620	-0.440
2020/01/31 13:51:08.1	3.000	-0.170	-0.620	-0.460
2020/01/31 13:51:08.2	3.010	-0.170	-0.630	-0.470
2020/01/31 13:51:08.3	3.010	-0.180	-0.630	-0.490
2020/01/31 13:51:08.4	3.020	-0.180	-0.630	-0.510
2020/01/31 13:51:08.5	3.020	-0.180	-0.630	-0.530
2020/01/31 13:51:08.6	3.040	-0.180	-0.620	-0.540
2020/01/31 13:51:08.7	3.050	-0.180	-0.620	-0.560
2020/01/31 13:51:08.8	3.070	-0.180	-0.610	-0.580
2020/01/31 13:51:08.9	3.080	-0.170	-0.600	-0.590
2020/01/31 13:51:09.0	3.100	-0.170	-0.590	-0.610
2020/01/31 13:51:09.1	3.130	-0.160	-0.580	-0.620
2020/01/31 13:51:09.2	3.150	-0.150	-0.570	-0.630
2020/01/31 13:51:09.3	3.170	-0.140	-0.560	-0.640
2020/01/31 13:51:09.4	3.190	-0.130	-0.550	-0.640
2020/01/31 13:51:09.5	3.220	-0.110	-0.530	-0.650
2020/01/31 13:51:09.6	3.240	-0.090	-0.520	-0.650
2020/01/31 13:51:09.7	3.260	-0.070	-0.510	-0.640
2020/01/31 13:51:09.8	3.290	-0.050	-0.490	-0.640
2020/01/31 13:51:09.9	3.310	-0.030	-0.480	-0.630
2020/01/31 13:51:10.0	3.330	-0.000	-0.460	-0.620
2020/01/31 13:51:10.1	3.360	0.020	-0.440	-0.600
2020/01/31 13:51:10.2	3.380	0.050	-0.430	-0.580
2020/01/31 13:51:10.3	3.400	0.080	-0.410	-0.560
2020/01/31 13:51:10.4	3.420	0.120	-0.390	-0.540
2020/01/31 13:51:10.5	3.430	0.150	-0.380	-0.510
2020/01/31 13:51:10.6	3.450	0.180	-0.360	-0.480
2020/01/31 13:51:10.7	3.460	0.220	-0.350	-0.450
2020/01/31 13:51:10.8	3.470	0.250	-0.330	-0.420
2020/01/31 13:51:10.9	3.490	0.280	-0.320	-0.380
2020/01/31 13:51:11.0	3.500	0.320	-0.300	-0.340
2020/01/31 13:51:11.1	3.500	0.350	-0.290	-0.300
2020/01/31 13:51:11.2	3.510	0.380	-0.280	-0.270
2020/01/31 13:51:11.3	3.510	0.410	-0.260	-0.220
2020/01/31 13:51:11.4	3.520	0.440	-0.250	-0.180
2020/01/31 13:51:11.5	3.520	0.470	-0.240	-0.140
2020/01/31 13:51:11.6	3.520	0.490	-0.240	-0.090
2020/01/31 13:51:11.7	3.520	0.520	-0.230	-0.050
2020/01/31 13:51:11.8	3.520	0.540	-0.220	-0.010
2020/01/31 13:51:11.9	3.520	0.560	-0.210	0.030
2020/01/31 13:51:12.0	3.510	0.580	-0.210	0.070
2020/01/31 13:51:12.1	3.510	0.590	-0.200	0.110
2020/01/31 13:51:12.2	3.510	0.600	-0.200	0.150
2020/01/31 13:51:12.3	3.500	0.610	-0.200	0.180
2020/01/31 13:51:12.4	3.500	0.610	-0.200	0.220
2020/01/31 13:51:12.5	3.500	0.620	-0.200	0.250
2020/01/31 13:51:12.6	3.510	0.610	-0.200	0.280
2020/01/31 13:51:12.7	3.500	0.610	-0.200	0.300
2020/01/31 13:51:12.8	3.500	0.600	-0.200	0.320
2020/01/31 13:51:12.9	3.500	0.590	-0.200	0.340
2020/01/31 13:51:13.0	3.500	0.580	-0.200	0.360
2020/01/31 13:51:13.1	3.510	0.560	-0.200	0.370
2020/01/31 13:51:13.2	3.510	0.540	-0.200	0.380
2020/01/31 13:51:13.3	3.510	0.510	-0.200	0.380
2020/01/31 13:51:13.4	3.520	0.490	-0.200	0.380
2020/01/31 13:51:13.5	3.520	0.460	-0.190	0.380
2020/01/31 13:51:13.6	3.530	0.430	-0.180	0.370
2020/01/31 13:51:13.7	3.540	0.390	-0.180	0.360
2020/01/31 13:51:13.8	3.540	0.350	-0.170	0.350
2020/01/31 13:51:13.9	3.550	0.310	-0.160	0.330
2020/01/31 13:51:14.0	3.560	0.270	-0.150	0.310
2020/01/31 13:51:14.1	3.570	0.230	-0.130	0.280
2020/01/31 13:51:14.2	3.580	0.180	-0.120	0.250
2020/01/31 13:51:14.3	3.590	0.130	-0.100	0.220
2020/01/31 13:51:14.4	3.610	0.080	-0.080	0.180
2020/01/31 13:51:14.5	3.620	0.030	-0.060	0.140
2020/01/31 13:51:14.6	3.630	-0.020	-0.040	0.100
2020/01/31 13:51:14.7	3.640	-0.070	-0.020	0.060
2020/01/31 13:51:14.8	3.640	-0.120	0.010	0.020
2020/01/31 13:51:14.9	3.650	-0.170	0.030	-0.020
2020/01/31 13:51:15.0	3.650	-0.230	0.060	-0.060
2020/01/31 13:51:15.1	3.650	-0.280	0.090	-0.110
2020/01/31 13:51:15.2	3.650	-0.330	0.120	-0.150
2020/01/31 13:51:15.3	3.640	-0.380	0.150	-0.190
2020/01/31 13:51:15.4	3.630	-0.430	0.180	-0.230
2020/01/31 13:51:15.5	3.620	-0.480	0.210	-0.270
2020/01/31 13:51:15.6	3.600	-0.530	0.240	-0.300
2020/01/31 13:51:15.7	3.580	-0.570	0.270	-0.330
2020/01/31 13:51:15.8	3.550	-0.620	0.300	-0.370
2020/01/31 13:51:15.9	3.520	-0.660	0.330	-0.400
2020/01/31 13:51:16.0	3.490	-0.700	0.350	-0.430
2020/01/31 13:51:16.1	3.460	-0.740	0.380	-0.460
2020/01/31 13:51:16.2	3.430	-0.770	0.400	-0.490
2020/01/31 13:51:16.3	3.390	-0.800	0.410	-0.520
2020/01/31 13:51:16.4	3.350	-0.830	0.420	-0.540
2020/01/31 13:51:16.5	3.310	-0.850	0.430	-0.570
2020/01/31 13:51:16.6	3.270	-0.870	0.440	-0.590
2020/01/31 13:51:16.7	3.230	-0.880	0.430	-0.620
2020/01/31 13:51:16.8	3.190	-0.890	0.420	-0.640
2020/01/31 13:51:16.9	3.160	-0.900	0.400	-0.670
2020/01/31 13:51:17.0	3.120	-0.890	0.380	-0.690
2020/01/31 13:51:17.1	3.090	-0.890	0.350	-0.720
2020/01/31 13:51:17.2	3.060	-0.870	0.310	-0.750
2020/01/31 13:51:17.3	3.030	-0.860	0.260	-0.770
2020/01/31 13:51:17.4	3.010	-0.830	0.210	-0.800
2020/01/31 13:51:17.5	2.980	-0.800	0.150	-0.830
2020/01/31 13:51:17.6	2.960	-0.760	0.080	-0.850
2020/01/31 13:51:17.7	2.950	-0.720	0.000	-0.880
2020/01/31 13:51:17.8	2.940	-0.670	-0.070	-0.910
2020/01/31 13:51:17.9	2.930	-0.610	-0.160	-0.930
2020/01/31 13:51:18.0	2.930	-0.550	-0.240	-0.950
2020/01/31 13:51:18.1	2.920	-0.480	-0.330	-0.970
2020/01/31 13:51:18.2	2.920	-0.410	-0.420	-0.980
2020/01/31 13:51:18.3	2.930	-0.340	-0.510	-1.000
2020/01/31 13:51:18.4	2.930	-0.260	-0.600	-1.010
2020/01/31 13:51:18.5	2.940	-0.180	-0.680	-1.010
2020/01/31 13:51:18.6	2.940	-0.090	-0.760	-1.010
2020/01/31 13:51:18.7	2.950	-0.010	-0.830	-1.010
2020/01/31 13:51:18.8	2.960	0.080	-0.900	-1.000
2020/01/31 13:51:18.9	2.970	0.160	-0.970	-0.990
2020/01/31 13:51:19.0	2.980	0.250	-1.020	-0.970
2020/01/31 13:51:19.1	2.990	0.330	-1.070	-0.950
2020/01/31 13:51:19.2	3.000	0.410	-1.100	-0.930
2020/01/31 13:51:19.3	3.010	0.490	-1.130	-0.900
2020/01/31 13:51:19.4	3.020	0.560	-1.150	-0.860
2020/01/31 13:51:19.5	3.030	0.630	-1.150	-0.820
2020/01/31 13:51:19.6	3.030	0.700	-1.160	-0.770
2020/01/31 13:51:19.7	3.040	0.750	-1.140	-0.730
2020/01/31 13:51:19.8	3.040	0.800	-1.120	-0.680
2020/01/31 13:51:19.9	3.050	0.850	-1.090	-0.620
2020/01/31 13:51:20.0	3.060	0.890	-1.060	-0.560
2020/01/31 13:51:20.1	3.060	0.920	-1.010	-0.500
2020/01/31 13:51:20.2	3.070	0.940	-0.960	-0.440
2020/01/31 13:51:20.3	3.080	0.960	-0.900	-0.380
2020/01/31 13:51:20.4	3.080	0.970	-0.830	-0.310
2020/01/31 13:51:20.5	3.090	0.970	-0.760	-0.240
2020/01/31 13:51:20.6	3.100	0.960	-0.690	-0.170
2020/01/31 13:51:20.7	3.100	0.940	-0.620	-0.100
2020/01/31 13:51:20.8	3.110	0.920	-0.540	-0.040
2020/01/31 13:51:20.9	3.120	0.890	-0.470	0.030
2020/01/31 13:51:21.0	3.130	0.850	-0.390	0.100
2020/01/31 13:51:21.1	3.140	0.810	-0.310	0.160
2020/01/31 13:51:21.2	3.150	0.760	-0.240	0.220
2020/01/31 13:51:21.3	3.160	0.710	-0.170	0.280
2020/01/31 13:51:21.4	3.170	0.650	-0.100	0.340
2020/01/31 13:51:21.5	3.180	0.590	-0.040	0.390
2020/01/31 13:51:21.6	3.190	0.520	0.020	0.450
2020/01/31 13:51:21.7	3.200	0.450	0.080	0.490
2020/01/31 13:51:21.8	3.220	0.380	0.130	0.530
2020/01/31 13:51:21.9	3.230	0.300	0.170	0.570
2020/01/31 13:51:22.0	3.240	0.220	0.210	0.600
2020/01/31 13:51:22.1	3.250	0.150	0.250	0.620
2020/01/31 13:51:22.2	3.260	0.070	0.280	0.640
2020/01/31 13:51:22.3	3.270	-0.010	0.300	0.660
2020/01/31 13:51:22.4	3.290	-0.090	0.320	0.670
2020/01/31 13:51:22.5	3.300	-0.160	0.330	0.680
2020/01/31 13:51:22.6	3.320	-0.230	0.330	0.680
2020/01/31 13:51:22.7	3.320	-0.300	0.330	0.680
2020/01/31 13:51:22.8	3.330	-0.370	0.320	0.670
2020/01/31 13:51:22.9	3.340	-0.430	0.310	0.660
2020/01/31 13:51:23.0	3.340	-0.490	0.300	0.650
2020/01/31 13:51:23.1	3.340	-0.550	0.280	0.640
2020/01/31 13:51:23.2	3.340	-0.600	0.260	0.620
2020/01/31 13:51:23.3	3.340	-0.650	0.230	0.600
2020/01/31 13:51:23.4	3.340	-0.690	0.200	0.570
2020/01/31 13:51:23.5	3.330	-0.720	0.170	0.550
2020/01/31 13:51:23.6	3.340	-0.750	0.140	0.530
2020/01/31 13:51:23.7	3.330	-0.770	0.110	0.500
2020/01/31 13:51:23.8	3.320	-0.790	0.080	0.480
2020/01/31 13:51:23.9	3.310	-0.800	0.040	0.450
2020/01/31 13:51:24.0	3.290	-0.810	0.010	0.430
2020/01/31 13:51:24.1	3.280	-0.810	-0.020	0.400
2020/01/31 13:51:24.2	3.270	-0.810	-0.050	0.380
2020/01/31 13:51:24.3	3.250	-0.800	-0.080	0.350
2020/01/31 13:51:24.4	3.240	-0.780	-0.110	0.330
2020/01/31 13:51:24.5	3.220	-0.770	-0.130	0.310
2020/01/31 13:51:24.6	3.220	-0.740	-0.160	0.280
2020/01/31 13:51:24.7	3.200	-0.720	-0.180	0.260
2020/01/31 13:51:24.8	3.190	-0.690	-0.200	0.240
2020/01/31 13:51:24.9	3.170	-0.650	-0.210	0.220
2020/01/31 13:51:25.0	3.160	-0.620	-0.230	0.200
2020/01/31 13:51:25.1	3.140	-0.580	-0.250	0.180
2020/01/31 13:51:25.2	3.130	-0.530	-0.260	0.160
2020/01/31 13:51:25.3	3.120	-0.490	-0.270	0.150
2020/01/31 13:51:25.4	3.110	-0.450	-0.280	0.130
2020/01/31 13:51:25.5	3.100	-0.400	-0.290	0.110
2020/01/31 13:51:25.6	3.100	-0.350	-0.310	0.090
2020/01/31 13:51:25.7	3.090	-0.300	-0.310	0.070
2020/01/31 13:51:25.8	3.090	-0.250	-0.320	0.050
2020/01/31 13:51:25.9	3.080	-0.200	-0.330	0.030
2020/01/31 13:51:26.0	3.080	-0.150	-0.340	0.010
2020/01/31 13:51:26.1	3.080	-0.110	-0.350	-0.010
2020/01/31 13:51:26.2	3.080	-0.060	-0.350	-0.020
2020/01/31 13:51:26.3	3.080	-0.010	-0.360	-0.040
2020/01/31 13:51:26.4	3.080	0.030	-0.370	-0.050
2020/01/31 13:51:26.5	3.080	0.080	-0.370	-0.060
2020/01/31 13:51:26.6	3.070	0.120	-0.380	-0.070
2020/01/31 13:51:26.7	3.070	0.160	-0.390	-0.080
2020/01/31 13:51:26.8	3.070	0.190	-0.390	-0.090
2020/01/31 13:51:26.9	3.070	0.230	-0.390	-0.100
2020/01/31 13:51:27.0	3.070	0.260	-0.400	-0.100
2020/01/31 13:51:27.1	3.080	0.290	-0.400	-0.110
2020/01/31 13:51:27.2	3.080	0.310	-0.410	-0.120
2020/01/31 13:51:27.3	3.080	0.340	-0.410	-0.130
2020/01/31 13:51:27.4	3.080	0.360	-0.420	-0.140
2020/01/31 13:51:27.5	3.090	0.380	-0.420	-0.150
2020/01/31 13:51:27.6	3.090	0.390	-0.420	-0.160
2020/01/31 13:51:27.7	3.100	0.410	-0.430	-0.180
2020/01/31 13:51:27.8	3.110	0.420	-0.430	-0.190
2020/01/31 13:51:27.9	3.120	0.430	-0.440	-0.210
2020/01/31 13:51:28.0	3.130	0.440	-0.440	-0.220
2020/01/31 13:51:28.1	3.140	0.440	-0.450	-0.240
2020/01/31 13:51:28.2	3.160	0.450	-0.450	-0.270
2020/01/31 13:51:28.3	3.180	0.450	-0.460	-0.290
2020/01/31 13:51:28.4	3.200	0.450	-0.460	-0.310
2020/01/31 13:51:28.5	3.210	0.450	-0.470	-0.340
2020/01/31 13:51:28.6	3.240	0.450	-0.480	-0.360
2020/01/31 13:51:28.7	3.260	0.450	-0.480	-0.380
2020/01/31 13:51:28.8	3.280	0.450	-0.490	-0.400
2020/01/31 13:51:28.9	3.300	0.450	-0.490	-0.420
2020/01/31 13:51:29.0	3.320	0.440	-0.490	-0.440
2020/01/31 13:51:29.1	3.340	0.440	-0.480	-0.460
2020/01/31 13:51:29.2	3.360	0.430	-0.480	-0.480
2020/01/31 13:51:29.3	3.370	0.420	-0.470	-0.490
2020/01/31 13:51:29.4	3.380	0.410	-0.460	-0.500
2020/01/31 13:51:29.5	3.390	0.400	-0.440	-0.510
2020/01/31 13:51:29.6	3.400	0.390	-0.430	-0.510
2020/01/31 13:51:29.7	3.400	0.380	-0.410	-0.510
2020/01/31 13:51:29.8	3.410	0.360	-0.380	-0.510
2020/01/31 13:51:29.9	3.410	0.340	-0.350	-0.510
2020/01/31 13:51:30.0	3.400	0.320	-0.310	-0.500
2020/01/31 13:51:30.1	3.400	0.300	-0.280	-0.500
2020/01/31 13:51:30.2	3.390	0.280	-0.240	-0.490
2020/01/31 13:51:30.3	3.390	0.260	-0.200	-0.480
2020/01/31 13:51:30.4	3.370	0.230	-0.160	-0.470
2020/01/31 13:51:30.5	3.360	0.200	-0.120	-0.460
2020/01/31 13:51:30.6	3.360	0.180	-0.070	-0.440
2020/01/31 13:51:30.7	3.340	0.150	-0.030	-0.420
2020/01/31 13:51:30.8	3.330	0.120	0.010	-0.410
2020/01/31 13:51:30.9	3.310	0.080	0.050	-0.390
2020/01/31 13:51:31.0	3.300	0.050	0.090	-0.370
2020/01/31 13:51:31.1	3.280	0.020	0.130	-0.350
2020/01/31 13:51:31.2	3.270	-0.010	0.160	-0.340
2020/01/31 13:51:31.3	3.250	-0.040	0.190	-0.320
2020/01/31 13:51:31.4	3.240	-0.080	0.220	-0.300
2020/01/31 13:51:31.5	3.220	-0.110	0.240	-0.290
2020/01/31 13:51:31.6	3.210	-0.140	0.250	-0.270
2020/01/31 13:51:31.7	3.200	-0.170	0.260	-0.250
2020/01/31 13:51:31.8	3.190	-0.190	0.270	-0.240
2020/01/31 13:51:31.9	3.180	-0.220	0.270	-0.230
2020/01/31 13:51:32.0	3.180	-0.240	0.260	-0.230
2020/01/31 13:51:32.1	3.170	-0.260	0.250	-0.220
2020/01/31 13:51:32.2	3.160	-0.280	0.230	-0.220
2020/01/31 13:51:32.3	3.160	-0.300	0.210	-0.220
2020/01/31 13:51:32.4	3.160	-0.320	0.190	-0.230
2020/01/31 13:51:32.5	3.150	-0.330	0.160	-0.230
2020/01/31 13:51:32.6	3.160	-0.340	0.120	-0.240
2020/01/31 13:51:32.7	3.150	-0.340	0.080	-0.250
2020/01/31 13:51:32.8	3.150	-0.350	0.040	-0.260
2020/01/31 13:51:32.9	3.140	-0.350	0.000	-0.270
2020/01/31 13:51:33.0	3.130	-0.350	-0.040	-0.270
2020/01/31 13:51:33.1	3.120	-0.340	-0.080	-0.280
2020/01/31 13:51:33.2	3.110	-0.340	-0.130	-0.280
2020/01/31 13:51:33.3	3.110	-0.330	-0.170	-0.290
2020/01/31 13:51:33.4	3.090	-0.320	-0.210	-0.290
2020/01/31 13:51:33.5	3.080	-0.300	-0.250	-0.290
2020/01/31 13:51:33.6	3.070	-0.290	-0.290	-0.290
2020/01/31 13:51:33.7	3.060	-0.270	-0.330	-0.290
2020/01/31 13:51:33.8	3.050	-0.250	-0.360	-0.280
2020/01/31 13:51:33.9	3.030	-0.230	-0.390	-0.280
2020/01/31 13:51:34.0	3.020	-0.200	-0.420	-0.270
2020/01/31 13:51:34.1	3.010	-0.180	-0.440	-0.260
2020/01/31 13:51:34.2	3.000	-0.150	-0.460	-0.250
2020/01/31 13:51:34.3	3.000	-0.130	-0.480	-0.240
2020/01/31 13:51:34.4	2.990	-0.100	-0.500	-0.230
2020/01/31 13:51:34.5	2.980	-0.070	-0.510	-0.220
2020/01/31 13:51:34.6	2.980	-0.050	-0.520	-0.200
2020/01/31 13:51:34.7	2.980	-0.020	-0.530	-0.190
2020/01/31 13:51:34.8	2.980	0.010	-0.530	-0.180
2020/01/31 13:51:34.9	2.990	0.040	-0.530	-0.170
2020/01/31 13:51:35.0	2.990	0.060	-0.540	-0.160
2020/01/31 13:51:35.1	3.000	0.090	-0.530	-0.150
2020/01/31 13:51:35.2	3.010	0.110	-0.530	-0.150
2020/01/31 13:51:35.3	3.020	0.130	-0.530	-0.140
2020/01/31 13:51:35.4	3.030	0.160	-0.520	-0.130
2020/01/31 13:51:35.5	3.050	0.180	-0.520	-0.130
2020/01/31 13:51:35.6	3.070	0.190	-0.520	-0.120
2020/01/31 13:51:35.7	3.090	0.210	-0.510	-0.120
2020/01/31 13:51:35.8	3.110	0.220	-0.500	-0.120
2020/01/31 13:51:35.9	3.130	0.240	-0.490	-0.120
2020/01/31 13:51:36.0	3.150	0.240	-0.480	-0.120
2020/01/31 13:51:36.1	3.170	0.250	-0.470	-0.120
2020/01/31 13:51:36.2	3.190	0.250	-0.450	-0.120
2020/01/31 13:51:36.3	3.210	0.250	-0.440	-0.120
2020/01/31 13:51:36.4	3.220	0.250	-0.420	-0.120
2020/01/31 13:51:36.5	3.240	0.240	-0.400	-0.120
2020/01/31 13:51:36.6	3.250	0.240	-0.380	-0.120
2020/01/31 13:51:36.7	3.270	0.220	-0.360	-0.120
2020/01/31 13:51:36.8	3.280	0.210	-0.340	-0.120
2020/01/31 13:51:36.9	3.290	0.190	-0.320	-0.120
2020/01/31 13:51:37.0	3.300	0.180	-0.290	-0.120
2020/01/31 13:51:37.1	3.310	0.150	-0.270	-0.120
2020/01/31 13:51:37.2	3.320	0.130	-0.250	-0.120
2020/01/31 13:51:37.3	3.330	0.110	-0.220	-0.120
2020/01/31 13:51:37.4	3.340	0.080	-0.200	-0.120
2020/01/31 13:51:37.5	3.340	0.060	-0.170	-0.120
2020/01/31 13:51:37.6	3.350	0.030	-0.150	-0.120
2020/01/31 13:51:37.7	3.360	0.000	-0.130	-0.120
2020/01/31 13:51:37.8	3.360	-0.030	-0.100	-0.120
2020/01/31 13:51:37.9	3.370	-0.060	-0.080	-0.120
2020/01/31 13:51:38.0	3.370	-0.080	-0.060	-0.120
2020/01/31 13:51:38.1	3.360	-0.110	-0.040	-0.120
2020/01/31 13:51:38.2	3.360	-0.140	-0.020	-0.120
2020/01/31 13:51:38.3	3.360	-0.160	-0.000	-0.120
2020/01/31 13:51:38.4	3.350	-0.180	0.020	-0.120
2020/01/31 13:51:38.5	3.340	-0.200	0.030	-0.120
2020/01/31 13:51:38.6	3.340	-0.220	0.050	-0.120
2020/01/31 13:51:38.7	3.320	-0.240	0.060	-0.110
2020/01/31 13:51:38.8	3.310	-0.260	0.070	-0.110
2020/01/31 13:51:38.9	3.300	-0.270	0.080	-0.110
2020/01/31 13:51:39.0	3.280	-0.280	0.080	-0.100
2020/01/31 13:51:39.1	3.260	-0.290	0.090	-0.100
2020/01/31 13:51:39.2	3.240	-0.290	0.090	-0.090
2020/01/31 13:51:39.3	3.220	-0.290	0.090	-0.080
2020/01/31 13:51:39.4	3.200	-0.290	0.080	-0.070
2020/01/31 13:51:39.5	3.180	-0.290	0.080	-0.060
2020/01/31 13:51:39.6	3.160	-0.290	0.070	-0.050
2020/01/31 13:51:39.7	3.140	-0.280	0.060	-0.040
2020/01/31 13:51:39.8	3.120	-0.270	0.050	-0.030
2020/01/31 13:51:39.9	3.100	-0.260	0.040	-0.010
2020/01/31 13:51:40.0	3.070	-0.250	0.020	0.000
2020/01/31 13:51:40.1	3.050	-0.240	0.000	0.020
2020/01/31 13:51:40.2	3.020	-0.230	-0.020	0.030
2020/01/31 13:51:40.3	3.000	-0.220	-0.040	0.040
2020/01/31 13:51:40.4	2.980	-0.200	-0.070	0.050
2020/01/31 13:51:40.5	2.960	-0.190	-0.100	0.060
2020/01/31 13:51:40.6	2.940	-0.170	-0.130	0.070
2020/01/31 13:51:40.7	2.920	-0.160	-0.160	0.070
2020/01/31 13:51:40.8	2.900	-0.150	-0.190	0.070
2020/01/31 13:51:40.9	2.890	-0.130	-0.220	0.070
2020/01/31 13:51:41.0	2.880	-0.120	-0.260	0.060
2020/01/31 13:51:41.1	2.870	-0.110	-0.290	0.050
2020/01/31 13:51:41.2	2.870	-0.100	-0.330	0.040
2020/01/31 13:51:41.3	2.860	-0.080	-0.370	0.020
2020/01/31 13:51:41.4	2.860	-0.070	-0.400	0.000
2020/01/31 13:51:41.5	2.860	-0.060	-0.440	-0.020
2020/01/31 13:51:41.6	2.870	-0.050	-0.470	-0.050
2020/01/31 13:51:41.7	2.870	-0.040	-0.500	-0.070
2020/01/31 13:51:41.8	2.880	-0.040	-0.530	-0.100
2020/01/31 13:51:41.9	2.890	-0.030	-0.560	-0.130
2020/01/31 13:51:42.0	2.900	-0.020	-0.590	-0.160
2020/01/31 13:51:42.1	2.910	-0.010	-0.620	-0.190
2020/01/31 13:51:42.2	2.920	-0.000	-0.640	-0.220
2020/01/31 13:51:42.3	2.940	0.010	-0.660	-0.260
2020/01/31 13:51:42.4	2.950	0.010	-0.670	-0.290
2020/01/31 13:51:42.5	2.970	0.020	-0.680	-0.310
2020/01/31 13:51:42.6	2.980	0.030	-0.680	-0.340
2020/01/31 13:51:42.7	2.990	0.040	-0.680	-0.360
2020/01/31 13:51:42.8	3.000	0.040	-0.670	-0.390
2020/01/31 13:51:42.9	3.010	0.050	-0.660	-0.410
2020/01/31 13:51:43.0	3.010	0.050	-0.640	-0.430
2020/01/31 13:51:43.1	3.010	0.060	-0.610	-0.440
2020/01/31 13:51:43.2	3.010	0.060	-0.580	-0.460
2020/01/31 13:51:43.3	3.010	0.070	-0.540	-0.470
2020/01/31 13:51:43.4	3.010	0.070	-0.500	-0.480
2020/01/31 13:51:43.5	3.000	0.080	-0.460	-0.490
2020/01/31 13:51:43.6	2.990	0.080	-0.410	-0.490
2020/01/31 13:51:43.7	2.980	0.080	-0.360	-0.500
2020/01/31 13:51:43.8	2.970	0.090	-0.310	-0.510
2020/01/31 13:51:43.9	2.960	0.090	-0.260	-0.510
2020/01/31 13:51:44.0	2.950	0.090	-0.210	-0.510
2020/01/31 13:51:44.1	2.940	0.100	-0.160	-0.510
2020/01/31 13:51:44.2	2.930	0.100	-0.120	-0.510
2020/01/31 13:51:44.3	2.920	0.100	-0.070	-0.510
2020/01/31 13:51:44.4	2.910	0.110	-0.030	-0.510
2020/01/31 13:51:44.5	2.900	0.110	0.000	-0.500
2020/01/31 13:51:44.6	2.880	0.120	0.030	-0.490
2020/01/31 13:51:44.7	2.870	0.130	0.060	-0.480
2020/01/31 13:51:44.8	2.870	0.140	0.080	-0.470
2020/01/31 13:51:44.9	2.860	0.140	0.100	-0.460
2020/01/31 13:51:45.0	2.850	0.150	0.110	-0.440
2020/01/31 13:51:45.1	2.840	0.160	0.110	-0.430
2020/01/31 13:51:45.2	2.840	0.180	0.110	-0.410
2020/01/31 13:51:45.3	2.830	0.190	0.110	-0.390
2020/01/31 13:51:45.4	2.830	0.200	0.100	-0.370
2020/01/31 13:51:45.5	2.820	0.210	0.090	-0.350
2020/01/31 13:51:45.6	2.820	0.230	0.070	-0.330
2020/01/31 13:51:45.7	2.820	0.240	0.050	-0.310
2020/01/31 13:51:45.8	2.820	0.260	0.030	-0.280
2020/01/31 13:51:45.9	2.820	0.270	-0.000	-0.260
2020/01/31 13:51:46.0	2.810	0.280	-0.030	-0.240
2020/01/31 13:51:46.1	2.810	0.300	-0.060	-0.220
2020/01/31 13:51:46.2	2.810	0.310	-0.090	-0.200
2020/01/31 13:51:46.3	2.810	0.320	-0.130	-0.180
2020/01/31 13:51:46.4	2.820	0.330	-0.160	-0.160
2020/01/31 13:51:46.5	2.820	0.340	-0.190	-0.150
2020/01/31 13:51:46.6	2.830	0.350	-0.220	-0.130
2020/01/31 13:51:46.7	2.830	0.360	-0.250	-0.110
2020/01/31 13:51:46.8	2.830	0.370	-0.280	-0.100
2020/01/31 13:51:46.9	2.840	0.370	-0.310	-0.090
2020/01/31 13:51:47.0	2.850	0.370	-0.340	-0.080
2020/01/31 13:51:47.1	2.850	0.370	-0.360	-0.070
2020/01/31 13:51:47.2	2.860	0.370	-0.380	-0.060
2020/01/31 13:51:47.3	2.870	0.370	-0.400	-0.050
2020/01/31 13:51:47.4	2.880	0.360	-0.410	-0.040
2020/01/31 13:51:47.5	2.890	0.360	-0.430	-0.040
2020/01/31 13:51:47.6	2.890	0.350	-0.440	-0.030
2020/01/31 13:51:47.7	2.900	0.330	-0.450	-0.030
2020/01/31 13:51:47.8	2.910	0.320	-0.460	-0.020
2020/01/31 13:51:47.9	2.910	0.300	-0.460	-0.020
2020/01/31 13:51:48.0	2.920	0.280	-0.460	-0.020
2020/01/31 13:51:48.1	2.930	0.250	-0.470	-0.010
2020/01/31 13:51:48.2	2.930	0.230	-0.460	-0.010
2020/01/31 13:51:48.3	2.930	0.200	-0.460	-0.010
2020/01/31 13:51:48.4	2.930	0.170	-0.460	-0.010
2020/01/31 13:51:48.5	2.930	0.130	-0.450	-0.010
2020/01/31 13:51:48.6	2.930	0.100	-0.440	-0.010
2020/01/31 13:51:48.7	2.930	0.060	-0.430	-0.020
2020/01/31 13:51:48.8	2.930	0.020	-0.420	-0.030
2020/01/31 13:51:48.9	2.920	-0.020	-0.410	-0.040
2020/01/31 13:51:49.0	2.920	-0.060	-0.400	-0.050
2020/01/31 13:51:49.1	2.920	-0.100	-0.380	-0.070
2020/01/31 13:51:49.2	2.920	-0.150	-0.370	-0.090
2020/01/31 13:51:49.3	2.920	-0.190	-0.350	-0.110
2020/01/31 13:51:49.4	2.920	-0.240	-0.340	-0.140
2020/01/31 13:51:49.5	2.920	-0.280	-0.320	-0.170
2020/01/31 13:51:49.6	2.930	-0.320	-0.310	-0.200
2020/01/31 13:51:49.7	2.930	-0.360	-0.290	-0.240
2020/01/31 13:51:49.8	2.940	-0.400	-0.280	-0.280
2020/01/31 13:51:49.9	2.950	-0.430	-0.260	-0.320
2020/01/31 13:51:50.0	2.960	-0.470	-0.250	-0.370
2020/01/31 13:51:50.1	2.970	-0.500	-0.230	-0.410
2020/01/31 13:51:50.2	2.990	-0.530	-0.220	-0.460
2020/01/31 13:51:50.3	3.000	-0.550	-0.200	-0.510
2020/01/31 13:51:50.4	3.020	-0.570	-0.190	-0.560
2020/01/31 13:51:50.5	3.030	-0.590	-0.170	-0.610
2020/01/31 13:51:50.6	3.060	-0.600	-0.150	-0.660
2020/01/31 13:51:50.7	3.070	-0.610	-0.130	-0.710
2020/01/31 13:51:50.8	3.090	-0.610	-0.110	-0.750
2020/01/31 13:51:50.9	3.100	-0.610	-0.090	-0.790
2020/01/31 13:51:51.0	3.120	-0.600	-0.070	-0.820
2020/01/31 13:51:51.1	3.130	-0.600	-0.050	-0.850
2020/01/31 13:51:51.2	3.140	-0.580	-0.020	-0.880
2020/01/31 13:51:51.3	3.140	-0.570	0.000	-0.900
2020/01/31 13:51:51.4	3.140	-0.550	0.030	-0.920
2020/01/31 13:51:51.5	3.140	-0.530	0.060	-0.930
2020/01/31 13:51:51.6	3.140	-0.500	0.080	-0.930
2020/01/31 13:51:51.7	3.130	-0.480	0.110	-0.940
2020/01/31 13:51:51.8	3.120	-0.450	0.140	-0.930
2020/01/31 13:51:51.9	3.110	-0.420	0.170	-0.920
2020/01/31 13:51:52.0	3.090	-0.380	0.190	-0.910
2020/01/31 13:51:52.1	3.060	-0.350	0.220	-0.890
2020/01/31 13:51:52.2	3.040	-0.320	0.240	-0.870
2020/01/31 13:51:52.3	3.010	-0.280	0.260	-0.840
2020/01/31 13:51:52.4	2.980	-0.250	0.280	-0.810
2020/01/31 13:51:52.5	2.940	-0.210	0.290	-0.780
2020/01/31 13:51:52.6	2.910	-0.180	0.300	-0.740
2020/01/31 13:51:52.7	2.870	-0.140	0.300	-0.700
2020/01/31 13:51:52.8	2.830	-0.110	0.300	-0.660
2020/01/31 13:51:52.9	2.790	-0.080	0.300	-0.610
2020/01/31 13:51:53.0	2.740	-0.040	0.300	-0.570
2020/01/31 13:51:53.1	2.700	-0.010	0.280	-0.520
2020/01/31 13:51:53.2	2.660	0.020	0.270	-0.470
2020/01/31 13:51:53.3	2.620	0.050	0.240	-0.430
2020/01/31 13:51:53.4	2.580	0.080	0.220	-0.380
2020/01/31 13:51:53.5	2.540	0.100	0.180	-0.340
2020/01/31 13:51:53.6	2.510	0.130	0.150	-0.290
2020/01/31 13:51:53.7	2.470	0.150	0.100	-0.250
2020/01/31 13:51:53.8	2.440	0.170	0.060	-0.210
2020/01/31 13:51:53.9	2.410	0.190	0.010	-0.170
2020/01/31 13:51:54.0	2.380	0.210	-0.050	-0.140
2020/01/31 13:51:54.1	2.350	0.230	-0.110	-0.100
2020/01/31 13:51:54.2	2.330	0.250	-0.170	-0.070
2020/01/31 13:51:54.3	2.300	0.270	-0.230	-0.040
2020/01/31 13:51:54.4	2.280	0.280	-0.300	-0.010
2020/01/31 13:51:54.5	2.260	0.300	-0.360	0.020
2020/01/31 13:51:54.6	2.240	0.310	-0.430	0.050
2020/01/31 13:51:54.7	2.230	0.320	-0.490	0.070
2020/01/31 13:51:54.8	2.210	0.330	-0.550	0.100
2020/01/31 13:51:54.9	2.200	0.340	-0.600	0.120
2020/01/31 13:51:55.0	2.180	0.350	-0.660	0.150
2020/01/31 13:51:55.1	2.160	0.350	-0.700	0.170
2020/01/31 13:51:55.2	2.150	0.360	-0.740	0.200
2020/01/31 13:51:55.3	2.140	0.360	-0.780	0.220
2020/01/31 13:51:55.4	2.120	0.360	-0.800	0.250
2020/01/31 13:51:55.5	2.110	0.360	-0.830	0.270
2020/01/31 13:51:55.6	2.100	0.360	-0.840	0.300
2020/01/31 13:51:55.7	2.090	0.360	-0.850	0.320
2020/01/31 13:51:55.8	2.080	0.350	-0.850	0.350
2020/01/31 13:51:55.9	2.070	0.350	-0.850	0.370
2020/01/31 13:51:56.0	2.070	0.340	-0.840	0.390
2020/01/31 13:51:56.1	2.060	0.330	-0.820	0.410
2020/01/31 13:51:56.2	2.060	0.330	-0.800	0.430
2020/01/31 13:51:56.3	2.070	0.320	-0.780	0.440
2020/01/31 13:51:56.4	2.070	0.310	-0.750	0.460
2020/01/31 13:51:56.5	2.080	0.300	-0.720	0.470
2020/01/31 13:51:56.6	2.100	0.290	-0.690	0.470
2020/01/31 13:51:56.7	2.120	0.290	-0.660	0.470
2020/01/31 13:51:56.8	2.140	0.280	-0.630	0.470
2020/01/31 13:51:56.9	2.170	0.270	-0.590	0.470
2020/01/31 13:51:57.0	2.200	0.260	-0.560	0.460
2020/01/31 13:51:57.1	2.240	0.260	-0.540	0.440
2020/01/31 13:51:57.2	2.280	0.250	-0.510	0.420
2020/01/31 13:51:57.3	2.320	0.250	-0.490	0.400
2020/01/31 13:51:57.4	2.370	0.250	-0.470	0.370
2020/01/31 13:51:57.5	2.420	0.240	-0.450	0.350
2020/01/31 13:51:57.6	2.470	0.240	-0.440	0.320
2020/01/31 13:51:57.7	2.520	0.240	-0.430	0.290
2020/01/31 13:51:57.8	2.570	0.240	-0.420	0.260
2020/01/31 13:51:57.9	2.620	0.230	-0.410	0.230
2020/01/31 13:51:58.0	2.660	0.230	-0.400	0.190
2020/01/31 13:51:58.1	2.700	0.220	-0.390	0.160
2020/01/31 13:51:58.2	2.740	0.210	-0.380	0.130
2020/01/31 13:51:58.3	2.780	0.210	-0.380	0.100
2020/01/31 13:51:58.4	2.810	0.190	-0.370	0.060
2020/01/31 13:51:58.5	2.840	0.180	-0.360	0.030
2020/01/31 13:51:58.6	2.860	0.170	-0.360	-0.000
2020/01/31 13:51:58.7	2.880	0.150	-0.350	-0.040
2020/01/31 13:51:58.8	2.900	0.130	-0.340	-0.080
2020/01/31 13:51:58.9	2.920	0.110	-0.340	-0.120
2020/01/31 13:51:59.0	2.930	0.080	-0.330	-0.160
2020/01/31 13:51:59.1	2.940	0.060	-0.320	-0.200
2020/01/31 13:51:59.2	2.940	0.030	-0.310	-0.240
2020/01/31 13:51:59.3	2.940	0.000	-0.300	-0.290
2020/01/31 13:51:59.4	2.940	-0.030	-0.290	-0.330
2020/01/31 13:51:59.5	2.930	-0.060	-0.280	-0.370
2020/01/31 13:51:59.6	2.930	-0.100	-0.260	-0.410
2020/01/31 13:51:59.7	2.910	-0.130	-0.240	-0.450
2020/01/31 13:51:59.8	2.900	-0.170	-0.230	-0.490
2020/01/31 13:51:59.9	2.880	-0.210	-0.200	-0.530
2020/01/31 13:52:00.0	2.850	-0.250	-0.180	-0.570
2020/01/31 13:52:00.1	2.830	-0.280	-0.160	-0.600
2020/01/31 13:52:00.2	2.800	-0.320	-0.130	-0.640
2020/01/31 13:52:00.3	2.770	-0.360	-0.100	-0.670
2020/01/31 13:52:00.4	2.740	-0.400	-0.070	-0.700
2020/01/31 13:52:00.5	2.710	-0.430	-0.040	-0.740
2020/01/31 13:52:00.6	2.680	-0.470	-0.010	-0.760
2020/01/31 13:52:00.7	2.650	-0.500	0.030	-0.790
2020/01/31 13:52:00.8	2.620	-0.530	0.060	-0.820
2020/01/31 13:52:00.9	2.580	-0.560	0.090	-0.840
2020/01/31 13:52:01.0	2.550	-0.580	0.120	-0.870
2020/01/31 13:52:01.1	2.510	-0.600	0.150	-0.890
2020/01/31 13:52:01.2	2.480	-0.620	0.180	-0.910
2020/01/31 13:52:01.3	2.440	-0.630	0.210	-0.930
2020/01/31 13:52:01.4	2.410	-0.640	0.230	-0.940
2020/01/31 13:52:01.5	2.370	-0.650	0.260	-0.960
2020/01/31 13:52:01.6	2.340	-0.650	0.280	-0.970
2020/01/31 13:52:01.7	2.300	-0.650	0.300	-0.980
2020/01/31 13:52:01.8	2.270	-0.640	0.320	-0.990
2020/01/31 13:52:01.9	2.240	-0.630	0.330	-1.000
2020/01/31 13:52:02.0	2.210	-0.620	0.350	-1.010
2020/01/31 13:52:02.1	2.180	-0.600	0.360	-1.010
2020/01/31 13:52:02.2	2.150	-0.580	0.360	-1.020
2020/01/31 13:52:02.3	2.130	-0.550	0.360	-1.020
2020/01/31 13:52:02.4	2.100	-0.530	0.360	-1.020
2020/01/31 13:52:02.5	2.080	-0.490	0.360	-1.020
2020/01/31 13:52:02.6	2.060	-0.460	0.350	-1.010
2020/01/31 13:52:02.7	2.040	-0.420	0.340	-1.010
2020/01/31 13:52:02.8	2.020	-0.390	0.320	-1.000
2020/01/31 13:52:02.9	2.000	-0.350	0.310	-0.990
2020/01/31 13:52:03.0	1.990	-0.300	0.290	-0.970
2020/01/31 13:52:03.1	1.970	-0.260	0.260	-0.960
2020/01/31 13:52:03.2	1.950	-0.210	0.240	-0.930
2020/01/31 13:52:03.3	1.930	-0.170	0.210	-0.910
2020/01/31 13:52:03.4	1.910	-0.120	0.190	-0.870
2020/01/31 13:52:03.5	1.890	-0.080	0.160	-0.840
2020/01/31 13:52:03.6	1.870	-0.030	0.130	-0.800
2020/01/31 13:52:03.7	1.850	0.010	0.100	-0.760
2020/01/31 13:52:03.8	1.830	0.060	0.070	-0.710
2020/01/31 13:52:03.9	1.800	0.100	0.050	-0.660
2020/01/31 13:52:04.0	1.780	0.140	0.020	-0.610
2020/01/31 13:52:04.1	1.760	0.180	-0.010	-0.560
2020/01/31 13:52:04.2	1.730	0.220	-0.040	-0.500
2020/01/31 13:52:04.3	1.700	0.260	-0.060	-0.440
2020/01/31 13:52:04.4	1.670	0.290	-0.090	-0.390
2020/01/31 13:52:04.5	1.650	0.320	-0.110	-0.330
2020/01/31 13:52:04.6	1.610	0.350	-0.140	-0.260
2020/01/31 13:52:04.7	1.580	0.380	-0.160	-0.200
2020/01/31 13:52:04.8	1.550	0.410	-0.190	-0.130
2020/01/31 13:52:04.9	1.520	0.430	-0.210	-0.070
2020/01/31 13:52:05.0	1.490	0.450	-0.230	-0.010
2020/01/31 13:52:05.1	1.460	0.470	-0.250	0.060
2020/01/31 13:52:05.2	1.440	0.480	-0.280	0.120
2020/01/31 13:52:05.3	1.410	0.500	-0.300	0.190
2020/01/31 13:52:05.4	1.380	0.510	-0.320	0.250
2020/01/31 13:52:05.5	1.360	0.520	-0.350	0.310
2020/01/31 13:52:05.6	1.340	0.530	-0.370	0.370
2020/01/31 13:52:05.7	1.320	0.530	-0.400	0.430
2020/01/31 13:52:05.8	1.300	0.540	-0.430	0.490
2020/01/31 13:52:05.9	1.290	0.540	-0.460	0.540
2020/01/31 13:52:06.0	1.270	0.540	-0.500	0.590
2020/01/31 13:52:06.1	1.260	0.540	-0.530	0.640
2020/01/31 13:52:06.2	1.260	0.540	-0.570	0.680
2020/01/31 13:52:06.3	1.250	0.540	-0.610	0.720
2020/01/31 13:52:06.4	1.250	0.530	-0.650	0.750
2020/01/31 13:52:06.5	1.250	0.530	-0.690	0.780
2020/01/31 13:52:06.6	1.260	0.520	-0.730	0.800
2020/01/31 13:52:06.7	1.270	0.510	-0.770	0.820
2020/01/31 13:52:06.8	1.280	0.500	-0.810	0.820
2020/01/31 13:52:06.9	1.290	0.490	-0.850	0.830
2020/01/31 13:52:07.0	1.310	0.470	-0.890	0.820
2020/01/31 13:52:07.1	1.330	0.460	-0.930	0.810
2020/01/31 13:52:07.2	1.350	0.440	-0.960	0.800
2020/01/31 13:52:07.3	1.380	0.430	-1.000	0.780
2020/01/31 13:52:07.4	1.410	0.410	-1.030	0.750
2020/01/31 13:52:07.5	1.440	0.390	-1.060	0.720
2020/01/31 13:52:07.6	1.480	0.370	-1.090	0.670
2020/01/31 13:52:07.7	1.520	0.340	-1.110	0.630
2020/01/31 13:52:07.8	1.560	0.320	-1.120	0.580
2020/01/31 13:52:07.9	1.600	0.300	-1.140	0.530
2020/01/31 13:52:08.0	1.650	0.270	-1.150	0.480
2020/01/31 13:52:08.1	1.700	0.250	-1.150	0.420
2020/01/31 13:52:08.2	1.750	0.220	-1.150	0.360
2020/01/31 13:52:08.3	1.800	0.200	-1.140	0.300
2020/01/31 13:52:08.4	1.860	0.170	-1.130	0.240
2020/01/31 13:52:08.5	1.910	0.150	-1.110	0.170
2020/01/31 13:52:08.6	1.970	0.120	-1.090	0.110
2020/01/31 13:52:08.7	2.030	0.090	-1.060	0.040
2020/01/31 13:52:08.8	2.080	0.070	-1.020	-0.020
2020/01/31 13:52:08.9	2.140	0.040	-0.980	-0.090
2020/01/31 13:52:09.0	2.190	0.010	-0.940	-0.150
2020/01/31 13:52:09.1	2.250	-0.020	-0.890	-0.210
2020/01/31 13:52:09.2	2.290	-0.050	-0.830	-0.270
2020/01/31 13:52:09.3	2.340	-0.070	-0.770	-0.320
2020/01/31 13:52:09.4	2.380	-0.100	-0.710	-0.380
2020/01/31 13:52:09.5	2.420	-0.140	-0.640	-0.430
2020/01/31 13:52:09.6	2.460	-0.170	-0.570	-0.480
2020/01/31 13:52:09.7	2.490	-0.200	-0.490	-0.530
2020/01/31 13:52:09.8	2.520	-0.230	-0.410	-0.570
2020/01/31 13:52:09.9	2.550	-0.260	-0.320	-0.610
2020/01/31 13:52:10.0	2.570	-0.290	-0.240	-0.650
2020/01/31 13:52:10.1	2.590	-0.330	-0.150	-0.680
2020/01/31 13:52:10.2	2.610	-0.360	-0.060	-0.710
2020/01/31 13:52:10.3	2.620	-0.390	0.020	-0.740
2020/01/31 13:52:10.4	2.630	-0.430	0.110	-0.770
2020/01/31 13:52:10.5	2.640	-0.460	0.190	-0.790
2020/01/31 13:52:10.6	2.640	-0.490	0.270	-0.810
2020/01/31 13:52:10.7	2.640	-0.520	0.350	-0.820
2020/01/31 13:52:10.8	2.640	-0.550	0.430	-0.840
2020/01/31 13:52:10.9	2.640	-0.570	0.500	-0.850
2020/01/31 13:52:11.0	2.630	-0.600	0.560	-0.860
2020/01/31 13:52:11.1	2.620	-0.630	0.630	-0.860
2020/01/31 13:52:11.2	2.610	-0.650	0.680	-0.870
2020/01/31 13:52:11.3	2.590	-0.670	0.730	-0.860
2020/01/31 13:52:11.4	2.570	-0.690	0.780	-0.860
2020/01/31 13:52:11.5	2.550	-0.700	0.820	-0.860
2020/01/31 13:52:11.6	2.520	-0.720	0.840	-0.840
2020/01/31 13:52:11.7	2.500	-0.730	0.870	-0.830
2020/01/31 13:52:11.8	2.470	-0.730	0.890	-0.820
2020/01/31 13:52:11.9	2.430	-0.740	0.900	-0.800
2020/01/31 13:52:12.0	2.390	-0.740	0.910	-0.790
2020/01/31 13:52:12.1	2.350	-0.740	0.910	-0.770
2020/01/31 13:52:12.2	2.310	-0.730	0.900	-0.740
2020/01/31 13:52:12.3	2.270	-0.720	0.890	-0.720
2020/01/31 13:52:12.4	2.220	-0.710	0.870	-0.690
2020/01/31 13:52:12.5	2.170	-0.700	0.850	-0.670
2020/01/31 13:52:12.6	2.130	-0.680	0.820	-0.640
2020/01/31 13:52:12.7	2.070	-0.650	0.790	-0.610
2020/01/31 13:52:12.8	2.020	-0.630	0.760	-0.580
2020/01/31 13:52:12.9	1.970	-0.600	0.720	-0.540
2020/01/31 13:52:13.0	1.910	-0.560	0.670	-0.500
2020/01/31 13:52:13.1	1.860	-0.520	0.630	-0.460
2020/01/31 13:52:13.2	1.800	-0.480	0.580	-0.420
2020/01/31 13:52:13.3	1.740	-0.440	0.530	-0.380
2020/01/31 13:52:13.4	1.690	-0.390	0.470	-0.330
2020/01/31 13:52:13.5	1.640	-0.340	0.410	-0.290
2020/01/31 13:52:13.6	1.590	-0.290	0.350	-0.230
2020/01/31 13:52:13.7	1.540	-0.240	0.290	-0.190
2020/01/31 13:52:13.8	1.490	-0.180	0.230	-0.140
2020/01/31 13:52:13.9	1.440	-0.130	0.170	-0.090
2020/01/31 13:52:14.0	1.400	-0.070	0.100	-0.040
2020/01/31 13:52:14.1	1.360	-0.010	0.040	0.010
2020/01/31 13:52:14.2	1.310	0.050	-0.020	0.050
2020/01/31 13:52:14.3	1.280	0.120	-0.090	0.100
2020/01/31 13:52:14.4	1.240	0.180	-0.160	0.140
2020/01/31 13:52:14.5	1.210	0.240	-0.220	0.180
2020/01/31 13:52:14.6	1.170	0.300	-0.290	0.220
2020/01/31 13:52:14.7	1.140	0.360	-0.350	0.260
2020/01/31 13:52:14.8	1.120	0.410	-0.410	0.290
2020/01/31 13:52:14.9	1.090	0.470	-0.470	0.330
2020/01/31 13:52:15.0	1.070	0.520	-0.530	0.360
2020/01/31 13:52:15.1	1.050	0.570	-0.590	0.390
2020/01/31 13:52:15.2	1.030	0.620	-0.640	0.420
2020/01/31 13:52:15.3	1.010	0.670	-0.690	0.450
2020/01/31 13:52:15.4	1.000	0.710	-0.730	0.480
2020/01/31 13:52:15.5	0.990	0.750	-0.770	0.500
2020/01/31 13:52:15.6	0.980	0.780	-0.810	0.530
2020/01/31 13:52:15.7	0.970	0.810	-0.840	0.560
2020/01/31 13:52:15.8	0.960	0.830	-0.870	0.580
2020/01/31 13:52:15.9	0.960	0.850	-0.890	0.600
2020/01/31 13:52:16.0	0.950	0.870	-0.900	0.620
2020/01/31 13:52:16.1	0.950	0.880	-0.910	0.640
2020/01/31 13:52:16.2	0.950	0.880	-0.920	0.650
2020/01/31 13:52:16.3	0.950	0.880	-0.920	0.670
2020/01/31 13:52:16.4	0.950	0.880	-0.920	0.680
2020/01/31 13:52:16.5	0.960	0.860	-0.910	0.690
2020/01/31 13:52:16.6	0.970	0.850	-0.900	0.690
2020/01/31 13:52:16.7	0.980	0.830	-0.890	0.690
2020/01/31 13:52:16.8	0.990	0.800	-0.880	0.690
2020/01/31 13:52:16.9	1.000	0.770	-0.860	0.680
2020/01/31 13:52:17.0	1.020	0.740	-0.850	0.660
2020/01/31 13:52:17.1	1.030	0.700	-0.830	0.650
2020/01/31 13:52:17.2	1.060	0.660	-0.820	0.620
2020/01/31 13:52:17.3	1.080	0.620	-0.800	0.600
2020/01/31 13:52:17.4	1.110	0.570	-0.780	0.570
2020/01/31 13:52:17.5	1.140	0.520	-0.770	0.530
2020/01/31 13:52:17.6	1.170	0.470	-0.750	0.490
2020/01/31 13:52:17.7	1.210	0.420	-0.740	0.440
2020/01/31 13:52:17.8	1.250	0.370	-0.730	0.390
2020/01/31 13:52:17.9	1.290	0.310	-0.720	0.340
2020/01/31 13:52:18.0	1.340	0.260	-0.710	0.280
2020/01/31 13:52:18.1	1.380	0.210	-0.710	0.220
2020/01/31 13:52:18.2	1.430	0.160	-0.700	0.150
2020/01/31 13:52:18.3	1.480	0.100	-0.700	0.080
2020/01/31 13:52:18.4	1.530	0.050	-0.700	0.000
2020/01/31 13:52:18.5	1.580	0.000	-0.700	-0.070
2020/01/31 13:52:18.6	1.630	-0.040	-0.690	-0.150
2020/01/31 13:52:18.7	1.670	-0.090	-0.690	-0.230
2020/01/31 13:52:18.8	1.720	-0.140	-0.690	-0.300
2020/01/31 13:52:18.9	1.760	-0.180	-0.680	-0.380
2020/01/31 13:52:19.0	1.800	-0.220	-0.670	-0.450
2020/01/31 13:52:19.1	1.840	-0.260	-0.660	-0.530
2020/01/31 13:52:19.2	1.870	-0.300	-0.650	-0.600
2020/01/31 13:52:19.3	1.900	-0.330	-0.640	-0.680
2020/01/31 13:52:19.4	1.930	-0.370	-0.620	-0.750
2020/01/31 13:52:19.5	1.950	-0.400	-0.600	-0.820
2020/01/31 13:52:19.6	1.970	-0.430	-0.580	-0.890
2020/01/31 13:52:19.7	1.990	-0.450	-0.550	-0.960
2020/01/31 13:52:19.8	2.000	-0.480	-0.530	-1.020
2020/01/31 13:52:19.9	2.020	-0.500	-0.500	-1.090
2020/01/31 13:52:20.0	2.030	-0.530	-0.470	-1.150
2020/01/31 13:52:20.1	2.050	-0.550	-0.440	-1.210
2020/01/31 13:52:20.2	2.060	-0.560	-0.400	-1.270
2020/01/31 13:52:20.3	2.070	-0.580	-0.370	-1.330
2020/01/31 13:52:20.4	2.080	-0.600	-0.330	-1.380
2020/01/31 13:52:20.5	2.090	-0.610	-0.300	-1.440
2020/01/31 13:52:20.6	2.100	-0.620	-0.260	-1.490
2020/01/31 13:52:20.7	2.100	-0.630	-0.230	-1.540
2020/01/31 13:52:20.8	2.110	-0.630	-0.190	-1.580
2020/01/31 13:52:20.9	2.120	-0.640	-0.150	-1.630
2020/01/31 13:52:21.0	2.120	-0.640	-0.120	-1.670
2020/01/31 13:52:21.1	2.130	-0.640	-0.080	-1.710
2020/01/31 13:52:21.2	2.140	-0.640	-0.050	-1.750
2020/01/31 13:52:21.3	2.150	-0.640	-0.020	-1.780
2020/01/31 13:52:21.4	2.150	-0.630	0.020	-1.810
2020/01/31 13:52:21.5	2.160	-0.620	0.050	-1.830
2020/01/31 13:52:21.6	2.160	-0.610	0.080	-1.850
2020/01/31 13:52:21.7	2.170	-0.600	0.110	-1.870
2020/01/31 13:52:21.8	2.170	-0.590	0.140	-1.880
2020/01/31 13:52:21.9	2.180	-0.570	0.170	-1.890
2020/01/31 13:52:22.0	2.180	-0.550	0.200	-1.890
2020/01/31 13:52:22.1	2.180	-0.530	0.230	-1.890
2020/01/31 13:52:22.2	2.180	-0.510	0.260	-1.880
2020/01/31 13:52:22.3	2.180	-0.490	0.290	-1.860
2020/01/31 13:52:22.4	2.180	-0.460	0.330	-1.840
2020/01/31 13:52:22.5	2.180	-0.430	0.360	-1.810
2020/01/31 13:52:22.6	2.160	-0.400	0.390	-1.770
2020/01/31 13:52:22.7	2.150	-0.370	0.420	-1.730
2020/01/31 13:52:22.8	2.140	-0.340	0.450	-1.670
2020/01/31 13:52:22.9	2.120	-0.300	0.490	-1.620
2020/01/31 13:52:23.0	2.090	-0.270	0.530	-1.550
2020/01/31 13:52:23.1	2.070	-0.230	0.560	-1.480
2020/01/31 13:52:23.2	2.040	-0.190	0.600	-1.400
2020/01/31 13:52:23.3	2.000	-0.150	0.630	-1.320
2020/01/31 13:52:23.4	1.960	-0.110	0.660	-1.230
2020/01/31 13:52:23.5	1.920	-0.070	0.690	-1.130
2020/01/31 13:52:23.6	1.870	-0.030	0.720	-1.030
2020/01/31 13:52:23.7	1.820	0.010	0.740	-0.920
2020/01/31 13:52:23.8	1.760	0.050	0.760	-0.820
2020/01/31 13:52:23.9	1.710	0.100	0.770	-0.710
2020/01/31 13:52:24.0	1.650	0.140	0.780	-0.590
2020/01/31 13:52:24.1	1.590	0.180	0.780	-0.480
2020/01/31 13:52:24.2	1.530	0.220	0.770	-0.370
2020/01/31 13:52:24.3	1.470	0.250	0.760	-0.250
2020/01/31 13:52:24.4	1.400	0.290	0.740	-0.140
2020/01/31 13:52:24.5	1.340	0.330	0.720	-0.030
2020/01/31 13:52:24.6	1.280	0.360	0.680	0.090
2020/01/31 13:52:24.7	1.220	0.390	0.650	0.200
2020/01/31 13:52:24.8	1.160	0.420	0.600	0.300
2020/01/31 13:52:24.9	1.100	0.450	0.550	0.400
2020/01/31 13:52:25.0	1.040	0.480	0.490	0.500
2020/01/31 13:52:25.1	0.980	0.500	0.420	0.590
2020/01/31 13:52:25.2	0.930	0.520	0.350	0.680
2020/01/31 13:52:25.3	0.880	0.540	0.270	0.760
2020/01/31 13:52:25.4	0.830	0.560	0.190	0.830
2020/01/31 13:52:25.5	0.790	0.570	0.110	0.900
2020/01/31 13:52:25.6	0.740	0.580	0.010	0.960
2020/01/31 13:52:25.7	0.700	0.590	-0.080	1.020
2020/01/31 13:52:25.8	0.670	0.600	-0.170	1.060
2020/01/31 13:52:25.9	0.640	0.600	-0.260	1.110
2020/01/31 13:52:26.0	0.610	0.600	-0.350	1.140
2020/01/31 13:52:26.1	0.580	0.590	-0.440	1.170
2020/01/31 13:52:26.2	0.560	0.580	-0.530	1.190
2020/01/31 13:52:26.3	0.540	0.570	-0.620	1.200
2020/01/31 13:52:26.4	0.530	0.560	-0.710	1.210
2020/01/31 13:52:26.5	0.520	0.540	-0.790	1.210
2020/01/31 13:52:26.6	0.520	0.520	-0.870	1.210
2020/01/31 13:52:26.7	0.520	0.500	-0.940	1.200
2020/01/31 13:52:26.8	0.530	0.480	-1.020	1.180
2020/01/31 13:52:26.9	0.540	0.450	-1.080	1.160
2020/01/31 13:52:27.0	0.550	0.430	-1.150	1.130
2020/01/31 13:52:27.1	0.570	0.400	-1.210	1.100
2020/01/31 13:52:27.2	0.600	0.370	-1.260	1.060
2020/01/31 13:52:27.3	0.630	0.340	-1.310	1.010
2020/01/31 13:52:27.4	0.660	0.310	-1.360	0.960
2020/01/31 13:52:27.5	0.700	0.280	-1.400	0.900
2020/01/31 13:52:27.6	0.750	0.250	-1.430	0.840
2020/01/31 13:52:27.7	0.800	0.220	-1.460	0.770
2020/01/31 13:52:27.8	0.850	0.200	-1.490	0.690
2020/01/31 13:52:27.9	0.900	0.170	-1.510	0.620
2020/01/31 13:52:28.0	0.960	0.140	-1.520	0.540
2020/01/31 13:52:28.1	1.020	0.110	-1.530	0.450
2020/01/31 13:52:28.2	1.080	0.080	-1.530	0.360
2020/01/31 13:52:28.3	1.150	0.060	-1.530	0.270
2020/01/31 13:52:28.4	1.210	0.030	-1.520	0.180
2020/01/31 13:52:28.5	1.280	0.010	-1.500	0.090
2020/01/31 13:52:28.6	1.350	-0.020	-1.480	-0.010
2020/01/31 13:52:28.7	1.410	-0.040	-1.450	-0.100
2020/01/31 13:52:28.8	1.470	-0.060	-1.410	-0.200
2020/01/31 13:52:28.9	1.530	-0.080	-1.360	-0.290
2020/01/31 13:52:29.0	1.590	-0.110	-1.310	-0.380
2020/01/31 13:52:29.1	1.640	-0.130	-1.250	-0.460
2020/01/31 13:52:29.2	1.690	-0.150	-1.190	-0.550
2020/01/31 13:52:29.3	1.740	-0.170	-1.120	-0.630
2020/01/31 13:52:29.4	1.780	-0.180	-1.040	-0.710
2020/01/31 13:52:29.5	1.820	-0.200	-0.960	-0.780
2020/01/31 13:52:29.6	1.850	-0.220	-0.880	-0.850
2020/01/31 13:52:29.7	1.880	-0.240	-0.790	-0.910
2020/01/31 13:52:29.8	1.910	-0.250	-0.700	-0.970
2020/01/31 13:52:29.9	1.930	-0.270	-0.610	-1.030
2020/01/31 13:52:30.0	1.950	-0.280	-0.520	-1.080
2020/01/31 13:52:30.1	1.970	-0.300	-0.420	-1.120
2020/01/31 13:52:30.2	1.980	-0.310	-0.330	-1.160
2020/01/31 13:52:30.3	1.980	-0.330	-0.240	-1.200
2020/01/31 13:52:30.4	1.980	-0.340	-0.150	-1.220
2020/01/31 13:52:30.5	1.980	-0.350	-0.060	-1.250
2020/01/31 13:52:30.6	1.970	-0.360	0.030	-1.270
2020/01/31 13:52:30.7	1.960	-0.370	0.110	-1.280
2020/01/31 13:52:30.8	1.950	-0.380	0.190	-1.290
2020/01/31 13:52:30.9	1.930	-0.390	0.260	-1.290
2020/01/31 13:52:31.0	1.910	-0.400	0.330	-1.300
2020/01/31 13:52:31.1	1.890	-0.400	0.400	-1.300
2020/01/31 13:52:31.2	1.870	-0.410	0.460	-1.290
2020/01/31 13:52:31.3	1.850	-0.410	0.510	-1.290
2020/01/31 13:52:31.4	1.820	-0.410	0.560	-1.280
2020/01/31 13:52:31.5	1.790	-0.410	0.590	-1.270
2020/01/31 13:52:31.6	1.770	-0.410	0.630	-1.250
2020/01/31 13:52:31.7	1.740	-0.400	0.660	-1.240
2020/01/31 13:52:31.8	1.710	-0.400	0.680	-1.220
2020/01/31 13:52:31.9	1.680	-0.390	0.690	-1.210
2020/01/31 13:52:32.0	1.660	-0.380	0.700	-1.190
2020/01/31 13:52:32.1	1.630	-0.360	0.700	-1.170
2020/01/31 13:52:32.2	1.600	-0.340	0.700	-1.150
2020/01/31 13:52:32.3	1.580	-0.330	0.690	-1.130
2020/01/31 13:52:32.4	1.550	-0.300	0.680	-1.110
2020/01/31 13:52:32.5	1.530	-0.280	0.660	-1.090
2020/01/31 13:52:32.6	1.510	-0.250	0.640	-1.060
2020/01/31 13:52:32.7	1.480	-0.230	0.620	-1.040
2020/01/31 13:52:32.8	1.450	-0.190	0.590	-1.010
2020/01/31 13:52:32.9	1.420	-0.160	0.570	-0.970
2020/01/31 13:52:33.0	1.400	-0.130	0.540	-0.940
2020/01/31 13:52:33.1	1.370	-0.090	0.510	-0.900
2020/01/31 13:52:33.2	1.340	-0.060	0.480	-0.860
2020/01/31 13:52:33.3	1.310	-0.020	0.440	-0.820
2020/01/31 13:52:33.4	1.280	0.020	0.410	-0.770
2020/01/31 13:52:33.5	1.250	0.060	0.380	-0.720
2020/01/31 13:52:33.6	1.220	0.100	0.340	-0.670
2020/01/31 13:52:33.7	1.190	0.140	0.310	-0.610
2020/01/31 13:52:33.8	1.160	0.170	0.280	-0.560
2020/01/31 13:52:33.9	1.130	0.210	0.250	-0.510
2020/01/31 13:52:34.0	1.090	0.240	0.220	-0.450
2020/01/31 13:52:34.1	1.060	0.270	0.190	-0.400
2020/01/31 13:52:34.2	1.030	0.300	0.160	-0.340
2020/01/31 13:52:34.3	1.000	0.330	0.130	-0.290
2020/01/31 13:52:34.4	0.970	0.350	0.110	-0.230
2020/01/31 13:52:34.5	0.940	0.380	0.080	-0.180
2020/01/31 13:52:34.6	0.910	0.390	0.050	-0.120
2020/01/31 13:52:34.7	0.880	0.410	0.020	-0.070
2020/01/31 13:52:34.8	0.860	0.420	-0.010	-0.020
2020/01/31 13:52:34.9	0.830	0.430	-0.040	0.030
2020/01/31 13:52:35.0	0.800	0.430	-0.070	0.070
2020/01/31 13:52:35.1	0.780	0.440	-0.100	0.120
2020/01/31 13:52:35.2	0.750	0.440	-0.130	0.160
2020/01/31 13:52:35.3	0.730	0.430	-0.160	0.200
2020/01/31 13:52:35.4	0.710	0.420	-0.190	0.230
2020/01/31 13:52:35.5	0.690	0.420	-0.230	0.270
2020/01/31 13:52:35.6	0.670	0.400	-0.270	0.300
2020/01/31 13:52:35.7	0.650	0.390	-0.310	0.320
2020/01/31 13:52:35.8	0.640	0.370	-0.350	0.340
2020/01/31 13:52:35.9	0.630	0.360	-0.390	0.360
2020/01/31 13:52:36.0	0.620	0.340	-0.430	0.370
2020/01/31 13:52:36.1	0.610	0.320	-0.470	0.380
2020/01/31 13:52:36.2	0.610	0.290	-0.510	0.390
2020/01/31 13:52:36.3	0.610	0.270	-0.560	0.400
2020/01/31 13:52:36.4	0.610	0.250	-0.600	0.400
2020/01/31 13:52:36.5	0.610	0.230	-0.640	0.400
2020/01/31 13:52:36.6	0.620	0.210	-0.670	0.390
2020/01/31 13:52:36.7	0.630	0.180	-0.700	0.380
2020/01/31 13:52:36.8	0.640	0.160	-0.740	0.370
2020/01/31 13:52:36.9	0.650	0.140	-0.770	0.360
2020/01/31 13:52:37.0	0.660	0.120	-0.800	0.340
2020/01/31 13:52:37.1	0.680	0.100	-0.820	0.320
2020/01/31 13:52:37.2	0.700	0.070	-0.840	0.300
2020/01/31 13:52:37.3	0.720	0.050	-0.860	0.280
2020/01/31 13:52:37.4	0.750	0.040	-0.880	0.250
2020/01/31 13:52:37.5	0.780	0.020	-0.890	0.220
2020/01/31 13:52:37.6	0.810	0.000	-0.910	0.180
2020/01/31 13:52:37.7	0.850	-0.020	-0.910	0.150
2020/01/31 13:52:37.8	0.880	-0.030	-0.920	0.110
2020/01/31 13:52:37.9	0.920	-0.050	-0.920	0.070
2020/01/31 13:52:38.0	0.960	-0.060	-0.920	0.020
2020/01/31 13:52:38.1	1.000	-0.080	-0.910	-0.020
2020/01/31 13:52:38.2	1.030	-0.090	-0.900	-0.060
2020/01/31 13:52:38.3	1.070	-0.100	-0.890	-0.110
2020/01/31 13:52:38.4	1.110	-0.110	-0.880	-0.150
2020/01/31 13:52:38.5	1.150	-0.130	-0.860	-0.190
2020/01/31 13:52:38.6	1.190	-0.140	-0.830	-0.230
2020/01/31 13:52:38.7	1.230	-0.150	-0.810	-0.270
2020/01/31 13:52:38.8	1.260	-0.160	-0.780	-0.310
2020/01/31 13:52:38.9	1.300	-0.170	-0.750	-0.340
2020/01/31 13:52:39.0	1.330	-0.180	-0.710	-0.380
2020/01/31 13:52:39.1	1.370	-0.190	-0.680	-0.410
2020/01/31 13:52:39.2	1.400	-0.200	-0.640	-0.440
2020/01/31 13:52:39.3	1.430	-0.200	-0.590	-0.470
2020/01/31 13:52:39.4	1.460	-0.210	-0.550	-0.490
2020/01/31 13:52:39.5	1.480	-0.220	-0.500	-0.520
2020/01/31 13:52:39.6	1.500	-0.230	-0.460	-0.540
2020/01/31 13:52:39.7	1.520	-0.240	-0.410	-0.560
2020/01/31 13:52:39.8	1.540	-0.250	-0.360	-0.590
2020/01/31 13:52:39.9	1.570	-0.260	-0.310	-0.610
2020/01/31 13:52:40.0	1.580	-0.270	-0.260	-0.630
2020/01/31 13:52:40.1	1.600	-0.270	-0.220	-0.650
2020/01/31 13:52:40.2	1.620	-0.280	-0.170	-0.670
2020/01/31 13:52:40.3	1.630	-0.290	-0.120	-0.690
2020/01/31 13:52:40.4	1.650	-0.300	-0.080	-0.710
2020/01/31 13:52:40.5	1.660	-0.310	-0.030	-0.730
2020/01/31 13:52:40.6	1.670	-0.310	0.010	-0.750
2020/01/31 13:52:40.7	1.680	-0.320	0.040	-0.770
2020/01/31 13:52:40.8	1.680	-0.330	0.080	-0.790
2020/01/31 13:52:40.9	1.690	-0.330	0.110	-0.810
2020/01/31 13:52:41.0	1.690	-0.340	0.140	-0.820
2020/01/31 13:52:41.1	1.690	-0.340	0.170	-0.840
2020/01/31 13:52:41.2	1.690	-0.340	0.190	-0.860
2020/01/31 13:52:41.3	1.680	-0.340	0.210	-0.870
2020/01/31 13:52:41.4	1.670	-0.340	0.230	-0.880
2020/01/31 13:52:41.5	1.660	-0.340	0.250	-0.890
2020/01/31 13:52:41.6	1.650	-0.330	0.260	-0.890
2020/01/31 13:52:41.7	1.630	-0.330	0.280	-0.890
2020/01/31 13:52:41.8	1.600	-0.320	0.290	-0.890
2020/01/31 13:52:41.9	1.570	-0.310	0.300	-0.880
2020/01/31 13:52:42.0	1.540	-0.300	0.320	-0.860
2020/01/31 13:52:42.1	1.500	-0.290	0.330	-0.850
2020/01/31 13:52:42.2	1.460	-0.270	0.340	-0.820
2020/01/31 13:52:42.3	1.410	-0.260	0.350	-0.800
2020/01/31 13:52:42.4	1.360	-0.240	0.360	-0.770
2020/01/31 13:52:42.5	1.310	-0.220	0.370	-0.730
2020/01/31 13:52:42.6	1.250	-0.190	0.370	-0.690
2020/01/31 13:52:42.7	1.200	-0.170	0.380	-0.650
2020/01/31 13:52:42.8	1.140	-0.140	0.380	-0.610
2020/01/31 13:52:42.9	1.090	-0.110	0.380	-0.570
2020/01/31 13:52:43.0	1.030	-0.080	0.380	-0.520
2020/01/31 13:52:43.1	0.970	-0.050	0.370	-0.470
2020/01/31 13:52:43.2	0.920	-0.010	0.360	-0.430
2020/01/31 13:52:43.3	0.860	0.030	0.350	-0.380
2020/01/31 13:52:43.4	0.800	0.060	0.340	-0.330
2020/01/31 13:52:43.5	0.750	0.100	0.320	-0.280
2020/01/31 13:52:43.6	0.700	0.140	0.300	-0.230
2020/01/31 13:52:43.7	0.650	0.180	0.270	-0.180
2020/01/31 13:52:43.8	0.600	0.210	0.250	-0.140
2020/01/31 13:52:43.9	0.550	0.250	0.210	-0.090
2020/01/31 13:52:44.0	0.510	0.290	0.170	-0.050
2020/01/31 13:52:44.1	0.470	0.320	0.130	-0.010
2020/01/31 13:52:44.2	0.430	0.360	0.080	0.020
2020/01/31 13:52:44.3	0.400	0.390	0.030	0.060
2020/01/31 13:52:44.4	0.380	0.420	-0.020	0.080
2020/01/31 13:52:44.5	0.350	0.450	-0.080	0.110
2020/01/31 13:52:44.6	0.340	0.480	-0.140	0.140
2020/01/31 13:52:44.7	0.320	0.510	-0.210	0.150
2020/01/31 13:52:44.8	0.310	0.530	-0.270	0.170
2020/01/31 13:52:44.9	0.310	0.550	-0.340	0.180
2020/01/31 13:52:45.0	0.310	0.570	-0.410	0.180
2020/01/31 13:52:45.1	0.320	0.580	-0.480	0.190
2020/01/31 13:52:45.2	0.330	0.590	-0.550	0.190
2020/01/31 13:52:45.3	0.340	0.600	-0.610	0.180
2020/01/31 13:52:45.4	0.360	0.600	-0.680	0.170
2020/01/31 13:52:45.5	0.380	0.600	-0.750	0.160
2020/01/31 13:52:45.6	0.410	0.600	-0.810	0.150
2020/01/31 13:52:45.7	0.440	0.600	-0.870	0.130
2020/01/31 13:52:45.8	0.470	0.590	-0.930	0.110
2020/01/31 13:52:45.9	0.510	0.570	-0.980	0.080
2020/01/31 13:52:46.0	0.550	0.560	-1.030	0.050
2020/01/31 13:52:46.1	0.600	0.540	-1.080	0.020
2020/01/31 13:52:46.2	0.640	0.520	-1.120	-0.010
2020/01/31 13:52:46.3	0.700	0.490	-1.150	-0.050
2020/01/31 13:52:46.4	0.750	0.470	-1.190	-0.090
2020/01/31 13:52:46.5	0.800	0.440	-1.210	-0.130
2020/01/31 13:52:46.6	0.860	0.410	-1.230	-0.180
2020/01/31 13:52:46.7	0.920	0.370	-1.240	-0.220
2020/01/31 13:52:46.8	0.980	0.340	-1.250	-0.270
2020/01/31 13:52:46.9	1.040	0.300	-1.250	-0.310
2020/01/31 13:52:47.0	1.090	0.270	-1.240	-0.360
2020/01/31 13:52:47.1	1.150	0.230	-1.220	-0.410
2020/01/31 13:52:47.2	1.210	0.190	-1.200	-0.460
2020/01/31 13:52:47.3	1.260	0.150	-1.170	-0.510
2020/01/31 13:52:47.4	1.320	0.110	-1.130	-0.550
2020/01/31 13:52:47.5	1.370	0.070	-1.090	-0.600
2020/01/31 13:52:47.6	1.420	0.030	-1.040	-0.640
2020/01/31 13:52:47.7	1.460	-0.000	-0.990	-0.680
2020/01/31 13:52:47.8	1.510	-0.040	-0.920	-0.720
2020/01/31 13:52:47.9	1.550	-0.080	-0.860	-0.750
2020/01/31 13:52:48.0	1.590	-0.110	-0.780	-0.780
2020/01/31 13:52:48.1	1.620	-0.150	-0.710	-0.800
2020/01/31 13:52:48.2	1.650	-0.180	-0.630	-0.830
2020/01/31 13:52:48.3	1.680	-0.210	-0.540	-0.840
2020/01/31 13:52:48.4	1.700	-0.240	-0.450	-0.860
2020/01/31 13:52:48.5	1.710	-0.270	-0.360	-0.870
2020/01/31 13:52:48.6	1.730	-0.290	-0.270	-0.870
2020/01/31 13:52:48.7	1.740	-0.320	-0.180	-0.870
2020/01/31 13:52:48.8	1.740	-0.340	-0.090	-0.870
2020/01/31 13:52:48.9	1.740	-0.360	0.000	-0.860
2020/01/31 13:52:49.0	1.740	-0.380	0.090	-0.850
2020/01/31 13:52:49.1	1.730	-0.400	0.180	-0.830
2020/01/31 13:52:49.2	1.720	-0.410	0.260	-0.810
2020/01/31 13:52:49.3	1.710	-0.430	0.340	-0.790
2020/01/31 13:52:49.4	1.690	-0.440	0.420	-0.760
2020/01/31 13:52:49.5	1.660	-0.450	0.490	-0.730
2020/01/31 13:52:49.6	1.640	-0.450	0.560	-0.690
2020/01/31 13:52:49.7	1.610	-0.460	0.620	-0.660
2020/01/31 13:52:49.8	1.570	-0.460	0.680	-0.610
2020/01/31 13:52:49.9	1.540	-0.460	0.730	-0.570
2020/01/31 13:52:50.0	1.500	-0.460	0.770	-0.530
2020/01/31 13:52:50.1	1.460	-0.460	0.810	-0.480
2020/01/31 13:52:50.2	1.410	-0.460	0.840	-0.440
2020/01/31 13:52:50.3	1.370	-0.450	0.860	-0.390
2020/01/31 13:52:50.4	1.320	-0.450	0.880	-0.340
2020/01/31 13:52:50.5	1.280	-0.440	0.890	-0.300
2020/01/31 13:52:50.6	1.230	-0.430	0.890	-0.250
2020/01/31 13:52:50.7	1.190	-0.420	0.880	-0.210
2020/01/31 13:52:50.8	1.140	-0.410	0.870	-0.170
2020/01/31 13:52:50.9	1.100	-0.400	0.860	-0.140
2020/01/31 13:52:51.0	1.060	-0.380	0.830	-0.100
2020/01/31 13:52:51.1	1.020	-0.360	0.800	-0.070
2020/01/31 13:52:51.2	0.980	-0.350	0.760	-0.040
2020/01/31 13:52:51.3	0.940	-0.330	0.720	-0.020
2020/01/31 13:52:51.4	0.910	-0.310	0.680	0.010
2020/01/31 13:52:51.5	0.880	-0.280	0.620	0.030
2020/01/31 13:52:51.6	0.860	-0.260	0.570	0.050
2020/01/31 13:52:51.7	0.830	-0.240	0.510	0.060
2020/01/31 13:52:51.8	0.810	-0.210	0.440	0.080
2020/01/31 13:52:51.9	0.790	-0.190	0.380	0.090
2020/01/31 13:52:52.0	0.780	-0.160	0.300	0.100
2020/01/31 13:52:52.1	0.770	-0.130	0.230	0.100
2020/01/31 13:52:52.2	0.760	-0.100	0.160	0.110
2020/01/31 13:52:52.3	0.750	-0.070	0.080	0.110
2020/01/31 13:52:52.4	0.750	-0.050	0.000	0.120
2020/01/31 13:52:52.5	0.750	-0.020	-0.080	0.120
2020/01/31 13:52:52.6	0.750	0.010	-0.160	0.120
2020/01/31 13:52:52.7	0.750	0.040	-0.230	0.120
2020/01/31 13:52:52.8	0.750	0.060	-0.310	0.120
2020/01/31 13:52:52.9	0.760	0.090	-0.380	0.110
2020/01/31 13:52:53.0	0.770	0.110	-0.450	0.110
2020/01/31 13:52:53.1	0.780	0.130	-0.520	0.100
2020/01/31 13:52:53.2	0.800	0.150	-0.580	0.090
2020/01/31 13:52:53.3	0.810	0.170	-0.640	0.080
2020/01/31 13:52:53.4	0.830	0.180	-0.700	0.070
2020/01/31 13:52:53.5	0.850	0.200	-0.750	0.060
2020/01/31 13:52:53.6	0.870	0.210	-0.800	0.040
2020/01/31 13:52:53.7	0.890	0.220	-0.840	0.030
2020/01/31 13:52:53.8	0.910	0.220	-0.880	0.010
2020/01/31 13:52:53.9	0.930	0.230	-0.920	-0.010
2020/01/31 13:52:54.0	0.950	0.230	-0.950	-0.030
2020/01/31 13:52:54.1	0.980	0.230	-0.970	-0.040
2020/01/31 13:52:54.2	1.000	0.230	-0.990	-0.060
2020/01/31 13:52:54.3	1.030	0.220	-1.010	-0.080
2020/01/31 13:52:54.4	1.050	0.220	-1.020	-0.100
2020/01/31 13:52:54.5	1.080	0.210	-1.030	-0.120
2020/01/31 13:52:54.6	1.110	0.200	-1.030	-0.140
2020/01/31 13:52:54.7	1.140	0.190	-1.030	-0.160
2020/01/31 13:52:54.8	1.160	0.180	-1.020	-0.170
2020/01/31 13:52:54.9	1.190	0.170	-1.000	-0.190
2020/01/31 13:52:55.0	1.220	0.150	-0.990	-0.210
2020/01/31 13:52:55.1	1.250	0.140	-0.970	-0.220
2020/01/31 13:52:55.2	1.280	0.120	-0.940	-0.240
2020/01/31 13:52:55.3	1.310	0.110	-0.910	-0.250
2020/01/31 13:52:55.4	1.330	0.100	-0.880	-0.260
2020/01/31 13:52:55.5	1.360	0.080	-0.850	-0.270
2020/01/31 13:52:55.6	1.380	0.070	-0.810	-0.280
2020/01/31 13:52:55.7	1.400	0.060	-0.770	-0.290
2020/01/31 13:52:55.8	1.430	0.040	-0.720	-0.300
2020/01/31 13:52:55.9	1.450	0.030	-0.680	-0.300
2020/01/31 13:52:56.0	1.480	0.020	-0.640	-0.310
2020/01/31 13:52:56.1	1.500	0.020	-0.590	-0.310
2020/01/31 13:52:56.2	1.520	0.010	-0.540	-0.310
2020/01/31 13:52:56.3	1.540	0.010	-0.500	-0.310
2020/01/31 13:52:56.4	1.560	0.000	-0.450	-0.310
2020/01/31 13:52:56.5	1.580	0.000	-0.400	-0.300
2020/01/31 13:52:56.6	1.600	-0.000	-0.360	-0.290
2020/01/31 13:52:56.7	1.610	0.000	-0.320	-0.290
2020/01/31 13:52:56.8	1.620	0.000	-0.270	-0.290
2020/01/31 13:52:56.9	1.630	0.010	-0.230	-0.280
2020/01/31 13:52:57.0	1.640	0.010	-0.190	-0.280
2020/01/31 13:52:57.1	1.650	0.020	-0.150	-0.270
2020/01/31 13:52:57.2	1.660	0.030	-0.120	-0.270
2020/01/31 13:52:57.3	1.660	0.040	-0.080	-0.260
2020/01/31 13:52:57.4	1.660	0.050	-0.050	-0.260
2020/01/31 13:52:57.5	1.660	0.060	-0.020	-0.250
2020/01/31 13:52:57.6	1.660	0.070	0.000	-0.250
2020/01/31 13:52:57.7	1.660	0.080	0.020	-0.250
2020/01/31 13:52:57.8	1.650	0.090	0.040	-0.250
2020/01/31 13:52:57.9	1.640	0.100	0.060	-0.250
2020/01/31 13:52:58.0	1.640	0.110	0.070	-0.250
2020/01/31 13:52:58.1	1.630	0.120	0.080	-0.260
2020/01/31 13:52:58.2	1.620	0.130	0.090	-0.260
2020/01/31 13:52:58.3	1.600	0.140	0.090	-0.270
2020/01/31 13:52:58.4	1.590	0.140	0.090	-0.270
2020/01/31 13:52:58.5	1.580	0.150	0.090	-0.280
2020/01/31 13:52:58.6	1.570	0.160	0.090	-0.290
2020/01/31 13:52:58.7	1.550	0.160	0.080	-0.290
2020/01/31 13:52:58.8	1.540	0.170	0.070	-0.300
2020/01/31 13:52:58.9	1.530	0.170	0.060	-0.310
2020/01/31 13:52:59.0	1.510	0.170	0.050	-0.320
2020/01/31 13:52:59.1	1.500	0.170	0.030	-0.330
2020/01/31 13:52:59.2	1.490	0.170	0.020	-0.340
2020/01/31 13:52:59.3	1.480	0.170	-0.000	-0.350
2020/01/31 13:52:59.4	1.470	0.170	-0.020	-0.350
2020/01/31 13:52:59.5	1.460	0.170	-0.040	-0.360
2020/01/31 13:52:59.6	1.460	0.170	-0.060	-0.370
2020/01/31 13:52:59.7	1.450	0.160	-0.080	-0.380
2020/01/31 13:52:59.8	1.450	0.160	-0.100	-0.390
2020/01/31 13:52:59.9	1.450	0.150	-0.120	-0.410
2020/01/31 13:53:00.0	1.450	0.140	-0.140	-0.420
2020/01/31 13:53:00.1	1.450	0.130	-0.160	-0.430
2020/01/31 13:53:00.2	1.450	0.130	-0.180	-0.440
2020/01/31 13:53:00.3	1.450	0.120	-0.200	-0.460
2020/01/31 13:53:00.4	1.460	0.110	-0.220	-0.480
2020/01/31 13:53:00.5	1.460	0.100	-0.230	-0.490
2020/01/31 13:53:00.6	1.470	0.090	-0.240	-0.510
2020/01/31 13:53:00.7	1.480	0.080	-0.260	-0.530
2020/01/31 13:53:00.8	1.490	0.070	-0.270	-0.550
2020/01/31 13:53:00.9	1.500	0.060	-0.280	-0.570
2020/01/31 13:53:01.0	1.520	0.050	-0.290	-0.590
2020/01/31 13:53:01.1	1.530	0.040	-0.300	-0.610
2020/01/31 13:53:01.2	1.540	0.040	-0.300	-0.630
2020/01/31 13:53:01.3	1.560	0.030	-0.300	-0.650
2020/01/31 13:53:01.4	1.570	0.020	-0.300	-0.670
2020/01/31 13:53:01.5	1.580	0.010	-0.300	-0.690
2020/01/31 13:53:01.6	1.600	0.010	-0.300	-0.700
2020/01/31 13:53:01.7	1.610	0.000	-0.300	-0.720
2020/01/31 13:53:01.8	1.620	-0.000	-0.290	-0.730
2020/01/31 13:53:01.9	1.630	-0.010	-0.280	-0.750
2020/01/31 13:53:02.0	1.640	-0.010	-0.270	-0.760
2020/01/31 13:53:02.1	1.650	-0.020	-0.260	-0.760
2020/01/31 13:53:02.2	1.650	-0.020	-0.240	-0.770
2020/01/31 13:53:02.3	1.660	-0.020	-0.230	-0.770
2020/01/31 13:53:02.4	1.660	-0.020	-0.220	-0.770
2020/01/31 13:53:02.5	1.670	-0.020	-0.200	-0.760
2020/01/31 13:53:02.6	1.660	-0.030	-0.180	-0.760
2020/01/31 13:53:02.7	1.670	-0.030	-0.170	-0.750
2020/01/31 13:53:02.8	1.660	-0.030	-0.150	-0.740
2020/01/31 13:53:02.9	1.660	-0.030	-0.130	-0.730
2020/01/31 13:53:03.0	1.660	-0.030	-0.110	-0.710
2020/01/31 13:53:03.1	1.660	-0.030	-0.100	-0.690
2020/01/31 13:53:03.2	1.650	-0.020	-0.080	-0.680
2020/01/31 13:53:03.3	1.650	-0.020	-0.070	-0.660
2020/01/31 13:53:03.4	1.640	-0.020	-0.050	-0.640
2020/01/31 13:53:03.5	1.640	-0.020	-0.040	-0.620
2020/01/31 13:53:03.6	1.640	-0.020	-0.040	-0.590
2020/01/31 13:53:03.7	1.630	-0.020	-0.030	-0.570
2020/01/31 13:53:03.8	1.630	-0.020	-0.030	-0.550
2020/01/31 13:53:03.9	1.630	-0.020	-0.020	-0.530
2020/01/31 13:53:04.0	1.620	-0.020	-0.020	-0.500
2020/01/31 13:53:04.1	1.620	-0.020	-0.030	-0.480
2020/01/31 13:53:04.2	1.620	-0.020	-0.030	-0.460
2020/01/31 13:53:04.3	1.620	-0.020	-0.040	-0.440
2020/01/31 13:53:04.4	1.630	-0.030	-0.050	-0.420
2020/01/31 13:53:04.5	1.630	-0.030	-0.060	-0.400
2020/01/31 13:53:04.6	1.640	-0.030	-0.070	-0.380
2020/01/31 13:53:04.7	1.650	-0.030	-0.090	-0.360
2020/01/31 13:53:04.8	1.660	-0.030	-0.110	-0.340
2020/01/31 13:53:04.9	1.660	-0.040	-0.120	-0.320
2020/01/31 13:53:05.0	1.670	-0.040	-0.140	-0.300
2020/01/31 13:53:05.1	1.680	-0.050	-0.160	-0.290
2020/01/31 13:53:05.2	1.690	-0.050	-0.180	-0.270
2020/01/31 13:53:05.3	1.700	-0.060	-0.200	-0.250
2020/01/31 13:53:05.4	1.720	-0.060	-0.220	-0.240
2020/01/31 13:53:05.5	1.730	-0.070	-0.240	-0.220
2020/01/31 13:53:05.6	1.740	-0.080	-0.260	-0.200
2020/01/31 13:53:05.7	1.750	-0.090	-0.270	-0.190
2020/01/31 13:53:05.8	1.760	-0.100	-0.290	-0.180
2020/01/31 13:53:05.9	1.780	-0.110	-0.300	-0.170
2020/01/31 13:53:06.0	1.790	-0.120	-0.310	-0.160
2020/01/31 13:53:06.1	1.800	-0.130	-0.320	-0.150
2020/01/31 13:53:06.2	1.810	-0.140	-0.320	-0.140
2020/01/31 13:53:06.3	1.820	-0.160	-0.330	-0.130
2020/01/31 13:53:06.4	1.820	-0.170	-0.330	-0.110
2020/01/31 13:53:06.5	1.830	-0.180	-0.330	-0.100
2020/01/31 13:53:06.6	1.830	-0.200	-0.330	-0.090
2020/01/31 13:53:06.7	1.830	-0.210	-0.320	-0.080
2020/01/31 13:53:06.8	1.830	-0.230	-0.320	-0.060
2020/01/31 13:53:06.9	1.830	-0.240	-0.310	-0.050
2020/01/31 13:53:07.0	1.830	-0.250	-0.300	-0.030
2020/01/31 13:53:07.1	1.830	-0.270	-0.280	-0.020
2020/01/31 13:53:07.2	1.820	-0.280	-0.270	-0.000
2020/01/31 13:53:07.3	1.820	-0.290	-0.250	0.010
2020/01/31 13:53:07.4	1.810	-0.310	-0.230	0.030
2020/01/31 13:53:07.5	1.800	-0.320	-0.220	0.040
2020/01/31 13:53:07.6	1.800	-0.330	-0.200	0.060
2020/01/31 13:53:07.7	1.790	-0.340	-0.180	0.070
2020/01/31 13:53:07.8	1.780	-0.340	-0.170	0.080
2020/01/31 13:53:07.9	1.780	-0.350	-0.150	0.090
2020/01/31 13:53:08.0	1.770	-0.350	-0.140	0.090
2020/01/31 13:53:08.1	1.760	-0.360	-0.130	0.090
2020/01/31 13:53:08.2	1.760	-0.360	-0.120	0.090
2020/01/31 13:53:08.3	1.760	-0.350	-0.120	0.090
2020/01/31 13:53:08.4	1.750	-0.350	-0.110	0.080
2020/01/31 13:53:08.5	1.750	-0.340	-0.110	0.080
2020/01/31 13:53:08.6	1.750	-0.330	-0.120	0.060
2020/01/31 13:53:08.7	1.750	-0.320	-0.120	0.050
2020/01/31 13:53:08.8	1.750	-0.300	-0.130	0.040
2020/01/31 13:53:08.9	1.750	-0.290	-0.140	0.030
2020/01/31 13:53:09.0	1.750	-0.270	-0.150	0.020
2020/01/31 13:53:09.1	1.750	-0.240	-0.170	0.010
2020/01/31 13:53:09.2	1.750	-0.220	-0.180	-0.000
2020/01/31 13:53:09.3	1.750	-0.190	-0.200	-0.010
2020/01/31 13:53:09.4	1.750	-0.160	-0.220	-0.020
2020/01/31 13:53:09.5	1.760	-0.130	-0.240	-0.030
2020/01/31 13:53:09.6	1.760	-0.090	-0.260	-0.040
2020/01/31 13:53:09.7	1.760	-0.060	-0.280	-0.040
2020/01/31 13:53:09.8	1.760	-0.020	-0.310	-0.050
2020/01/31 13:53:09.9	1.760	0.020	-0.330	-0.060
2020/01/31 13:53:10.0	1.760	0.060	-0.350	-0.060
2020/01/31 13:53:10.1	1.760	0.100	-0.370	-0.060
2020/01/31 13:53:10.2	1.760	0.140	-0.390	-0.060
2020/01/31 13:53:10.3	1.760	0.190	-0.410	-0.070
2020/01/31 13:53:10.4	1.760	0.230	-0.430	-0.070
2020/01/31 13:53:10.5	1.760	0.270	-0.450	-0.060
2020/01/31 13:53:10.6	1.760	0.310	-0.470	-0.060
2020/01/31 13:53:10.7	1.760	0.350	-0.480	-0.060
2020/01/31 13:53:10.8	1.760	0.380	-0.500	-0.060
2020/01/31 13:53:10.9	1.760	0.420	-0.510	-0.060
2020/01/31 13:53:11.0	1.760	0.450	-0.520	-0.050
2020/01/31 13:53:11.1	1.760	0.480	-0.530	-0.050
2020/01/31 13:53:11.2	1.750	0.510	-0.530	-0.050
2020/01/31 13:53:11.3	1.750	0.530	-0.540	-0.050
2020/01/31 13:53:11.4	1.750	0.550	-0.540	-0.050
2020/01/31 13:53:11.5	1.750	0.570	-0.550	-0.050
2020/01/31 13:53:11.6	1.740	0.580	-0.550	-0.040
2020/01/31 13:53:11.7	1.730	0.590	-0.540	-0.050
2020/01/31 13:53:11.8	1.730	0.590	-0.540	-0.050
2020/01/31 13:53:11.9	1.720	0.590	-0.530	-0.050
2020/01/31 13:53:12.0	1.720	0.590	-0.520	-0.050
2020/01/31 13:53:12.1	1.710	0.580	-0.510	-0.060
2020/01/31 13:53:12.2	1.700	0.570	-0.500	-0.060
2020/01/31 13:53:12.3	1.690	0.550	-0.490	-0.070
2020/01/31 13:53:12.4	1.680	0.530	-0.470	-0.080
2020/01/31 13:53:12.5	1.680	0.500	-0.450	-0.080
2020/01/31 13:53:12.6	1.670	0.470	-0.430	-0.090
2020/01/31 13:53:12.7	1.660	0.440	-0.410	-0.100
2020/01/31 13:53:12.8	1.650	0.400	-0.390	-0.110
2020/01/31 13:53:12.9	1.640	0.360	-0.360	-0.130
2020/01/31 13:53:13.0	1.630	0.320	-0.340	-0.140
2020/01/31 13:53:13.1	1.630	0.280	-0.310	-0.160
2020/01/31 13:53:13.2	1.620	0.230	-0.290	-0.180
2020/01/31 13:53:13.3	1.620	0.180	-0.270	-0.200
2020/01/31 13:53:13.4	1.610	0.130	-0.250	-0.220
2020/01/31 13:53:13.5	1.610	0.080	-0.230	-0.250
2020/01/31 13:53:13.6	1.620	0.030	-0.210	-0.280
2020/01/31 13:53:13.7	1.620	-0.020	-0.190	-0.310
2020/01/31 13:53:13.8	1.630	-0.060	-0.170	-0.350
2020/01/31 13:53:13.9	1.630	-0.110	-0.160	-0.390
2020/01/31 13:53:14.0	1.640	-0.160	-0.150	-0.430
2020/01/31 13:53:14.1	1.650	-0.200	-0.140	-0.480
2020/01/31 13:53:14.2	1.670	-0.240	-0.130	-0.530
2020/01/31 13:53:14.3	1.680	-0.280	-0.130	-0.580
2020/01/31 13:53:14.4	1.690	-0.320	-0.120	-0.630
2020/01/31 13:53:14.5	1.710	-0.360	-0.120	-0.680
2020/01/31 13:53:14.6	1.720	-0.390	-0.120	-0.740
2020/01/31 13:53:14.7	1.730	-0.410	-0.120	-0.790
2020/01/31 13:53:14.8	1.750	-0.440	-0.120	-0.840
2020/01/31 13:53:14.9	1.760	-0.460	-0.130	-0.890
2020/01/31 13:53:15.0	1.770	-0.470	-0.130	-0.940
2020/01/31 13:53:15.1	1.780	-0.490	-0.130	-0.990
2020/01/31 13:53:15.2	1.790	-0.490	-0.130	-1.030
2020/01/31 13:53:15.3	1.800	-0.500	-0.140	-1.080
2020/01/31 13:53:15.4	1.810	-0.500	-0.140	-1.120
2020/01/31 13:53:15.5	1.810	-0.490	-0.140	-1.150
2020/01/31 13:53:15.6	1.820	-0.480	-0.140	-1.190
2020/01/31 13:53:15.7	1.820	-0.470	-0.140	-1.210
2020/01/31 13:53:15.8	1.830	-0.450	-0.140	-1.240
2020/01/31 13:53:15.9	1.830	-0.430	-0.140	-1.260
2020/01/31 13:53:16.0	1.840	-0.410	-0.130	-1.270
2020/01/31 13:53:16.1	1.840	-0.380	-0.120	-1.290
2020/01/31 13:53:16.2	1.840	-0.340	-0.120	-1.290
2020/01/31 13:53:16.3	1.840	-0.310	-0.110	-1.290
2020/01/31 13:53:16.4	1.840	-0.270	-0.100	-1.280
2020/01/31 13:53:16.5	1.840	-0.230	-0.080	-1.270
2020/01/31 13:53:16.6	1.830	-0.190	-0.070	-1.250
2020/01/31 13:53:16.7	1.830	-0.150	-0.050	-1.220
2020/01/31 13:53:16.8	1.820	-0.100	-0.030	-1.190
2020/01/31 13:53:16.9	1.820	-0.060	-0.010	-1.150
2020/01/31 13:53:17.0	1.810	-0.020	0.010	-1.110
2020/01/31 13:53:17.1	1.800	0.030	0.040	-1.060
2020/01/31 13:53:17.2	1.790	0.070	0.060	-1.010
2020/01/31 13:53:17.3	1.770	0.110	0.090	-0.950
2020/01/31 13:53:17.4	1.760	0.150	0.110	-0.880
2020/01/31 13:53:17.5	1.740	0.190	0.140	-0.820
2020/01/31 13:53:17.6	1.720	0.220	0.160	-0.740
2020/01/31 13:53:17.7	1.700	0.260	0.180	-0.660
2020/01/31 13:53:17.8	1.680	0.290	0.200	-0.590
2020/01/31 13:53:17.9	1.660	0.310	0.230	-0.520
2020/01/31 13:53:18.0	1.640	0.330	0.240	-0.440
2020/01/31 13:53:18.1	1.620	0.350	0.260	-0.370
2020/01/31 13:53:18.2	1.600	0.370	0.270	-0.290
2020/01/31 13:53:18.3	1.570	0.380	0.280	-0.220
2020/01/31 13:53:18.4	1.550	0.380	0.280	-0.150
2020/01/31 13:53:18.5	1.530	0.380	0.280	-0.090
2020/01/31 13:53:18.6	1.510	0.380	0.270	-0.020
2020/01/31 13:53:18.7	1.490	0.370	0.260	0.030
2020/01/31 13:53:18.8	1.470	0.360	0.250	0.080
2020/01/31 13:53:18.9	1.450	0.340	0.230	0.130
2020/01/31 13:53:19.0	1.430	0.320	0.210	0.170
2020/01/31 13:53:19.1	1.420	0.300	0.180	0.200
2020/01/31 13:53:19.2	1.400	0.270	0.140	0.230
2020/01/31 13:53:19.3	1.390	0.240	0.110	0.250
2020/01/31 13:53:19.4	1.380	0.210	0.070	0.260
2020/01/31 13:53:19.5	1.370	0.170	0.020	0.270
2020/01/31 13:53:19.6	1.370	0.130	-0.030	0.280
2020/01/31 13:53:19.7	1.360	0.100	-0.080	0.270
2020/01/31 13:53:19.8	1.360	0.050	-0.130	0.260
2020/01/31 13:53:19.9	1.360	0.010	-0.180	0.240
2020/01/31 13:53:20.0	1.350	-0.030	-0.240	0.220
2020/01/31 13:53:20.1	1.360	-0.070	-0.290	0.200
2020/01/31 13:53:20.2	1.360	-0.110	-0.350	0.170
2020/01/31 13:53:20.3	1.360	-0.150	-0.400	0.140
2020/01/31 13:53:20.4	1.370	-0.190	-0.460	0.100
2020/01/31 13:53:20.5	1.370	-0.230	-0.510	0.060
2020/01/31 13:53:20.6	1.370	-0.260	-0.560	0.020
2020/01/31 13:53:20.7	1.380	-0.300	-0.600	-0.020
2020/01/31 13:53:20.8	1.380	-0.320	-0.640	-0.060
2020/01/31 13:53:20.9	1.390	-0.350	-0.670	-0.100
2020/01/31 13:53:21.0	1.390	-0.370	-0.710	-0.150
2020/01/31 13:53:21.1	1.390	-0.390	-0.730	-0.190
2020/01/31 13:53:21.2	1.400	-0.410	-0.750	-0.230
2020/01/31 13:53:21.3	1.400	-0.420	-0.770	-0.270
2020/01/31 13:53:21.4	1.390	-0.430	-0.770	-0.300
2020/01/31 13:53:21.5	1.390	-0.430	-0.780	-0.340
2020/01/31 13:53:21.6	1.360	-0.430	-0.780	-0.370
2020/01/31 13:53:21.7	1.350	-0.430	-0.770	-0.390
2020/01/31 13:53:21.8	1.340	-0.420	-0.760	-0.420
2020/01/31 13:53:21.9	1.330	-0.410	-0.750	-0.440
2020/01/31 13:53:22.0	1.320	-0.390	-0.730	-0.450
2020/01/31 13:53:22.1	1.300	-0.380	-0.710	-0.470
2020/01/31 13:53:22.2	1.280	-0.360	-0.690	-0.480
2020/01/31 13:53:22.3	1.270	-0.330	-0.670	-0.480
2020/01/31 13:53:22.4	1.250	-0.310	-0.640	-0.490
2020/01/31 13:53:22.5	1.230	-0.280	-0.620	-0.500
2020/01/31 13:53:22.6	1.210	-0.250	-0.600	-0.500
2020/01/31 13:53:22.7	1.200	-0.220	-0.580	-0.500
2020/01/31 13:53:22.8	1.190	-0.190	-0.560	-0.500
2020/01/31 13:53:22.9	1.180	-0.160	-0.550	-0.510
2020/01/31 13:53:23.0	1.170	-0.130	-0.530	-0.510
2020/01/31 13:53:23.1	1.160	-0.090	-0.520	-0.510
2020/01/31 13:53:23.2	1.160	-0.060	-0.520	-0.520
2020/01/31 13:53:23.3	1.160	-0.020	-0.520	-0.530
2020/01/31 13:53:23.4	1.160	0.010	-0.520	-0.530
2020/01/31 13:53:23.5	1.170	0.040	-0.520	-0.540
2020/01/31 13:53:23.6	1.170	0.080	-0.530	-0.550
2020/01/31 13:53:23.7	1.190	0.110	-0.540	-0.560
2020/01/31 13:53:23.8	1.200	0.140	-0.550	-0.570
2020/01/31 13:53:23.9	1.220	0.170	-0.570	-0.580
2020/01/31 13:53:24.0	1.240	0.200	-0.580	-0.600
2020/01/31 13:53:24.1	1.260	0.230	-0.600	-0.610
2020/01/31 13:53:24.2	1.280	0.260	-0.610	-0.620
2020/01/31 13:53:24.3	1.300	0.280	-0.630	-0.630
2020/01/31 13:53:24.4	1.320	0.300	-0.640	-0.650
2020/01/31 13:53:24.5	1.340	0.320	-0.650	-0.660
2020/01/31 13:53:24.6	1.360	0.330	-0.660	-0.660
2020/01/31 13:53:24.7	1.380	0.350	-0.660	-0.670
2020/01/31 13:53:24.8	1.400	0.360	-0.660	-0.670
2020/01/31 13:53:24.9	1.410	0.360	-0.650	-0.680
2020/01/31 13:53:25.0	1.420	0.370	-0.640	-0.680
2020/01/31 13:53:25.1	1.420	0.370	-0.630	-0.680
2020/01/31 13:53:25.2	1.430	0.360	-0.600	-0.670
2020/01/31 13:53:25.3	1.430	0.360	-0.570	-0.670
2020/01/31 13:53:25.4	1.420	0.350	-0.540	-0.660
2020/01/31 13:53:25.5	1.420	0.340	-0.500	-0.640
2020/01/31 13:53:25.6	1.410	0.320	-0.460	-0.630
2020/01/31 13:53:25.7	1.400	0.310	-0.410	-0.610
2020/01/31 13:53:25.8	1.380	0.290	-0.360	-0.590
2020/01/31 13:53:25.9	1.360	0.270	-0.300	-0.560
2020/01/31 13:53:26.0	1.330	0.240	-0.240	-0.530
2020/01/31 13:53:26.1	1.300	0.220	-0.180	-0.500
2020/01/31 13:53:26.2	1.270	0.190	-0.110	-0.470
2020/01/31 13:53:26.3	1.240	0.160	-0.040	-0.440
2020/01/31 13:53:26.4	1.200	0.130	0.020	-0.400
2020/01/31 13:53:26.5	1.170	0.100	0.090	-0.360
2020/01/31 13:53:26.6	1.140	0.070	0.150	-0.310
2020/01/31 13:53:26.7	1.090	0.040	0.220	-0.270
2020/01/31 13:53:26.8	1.050	0.010	0.280	-0.230
2020/01/31 13:53:26.9	1.010	-0.020	0.340	-0.190
2020/01/31 13:53:27.0	0.970	-0.050	0.400	-0.150
2020/01/31 13:53:27.1	0.920	-0.080	0.450	-0.110
2020/01/31 13:53:27.2	0.880	-0.100	0.490	-0.080
2020/01/31 13:53:27.3	0.840	-0.130	0.530	-0.050
2020/01/31 13:53:27.4	0.800	-0.150	0.560	-0.020
2020/01/31 13:53:27.5	0.760	-0.170	0.590	0.010
2020/01/31 13:53:27.6	0.730	-0.190	0.610	0.030
2020/01/31 13:53:27.7	0.700	-0.200	0.620	0.050
2020/01/31 13:53:27.8	0.660	-0.210	0.620	0.060
2020/01/31 13:53:27.9	0.630	-0.220	0.620	0.070
2020/01/31 13:53:28.0	0.600	-0.230	0.610	0.070
2020/01/31 13:53:28.1	0.570	-0.230	0.600	0.070
2020/01/31 13:53:28.2	0.540	-0.230	0.570	0.070
2020/01/31 13:53:28.3	0.500	-0.230	0.550	0.060
2020/01/31 13:53:28.4	0.470	-0.220	0.510	0.050
2020/01/31 13:53:28.5	0.440	-0.210	0.470	0.040
2020/01/31 13:53:28.6	0.410	-0.200	0.430	0.030
2020/01/31 13:53:28.7	0.380	-0.190	0.380	0.020
2020/01/31 13:53:28.8	0.350	-0.170	0.330	0.010
2020/01/31 13:53:28.9	0.320	-0.150	0.280	-0.000
2020/01/31 13:53:29.0	0.280	-0.130	0.230	-0.020
2020/01/31 13:53:29.1	0.250	-0.110	0.170	-0.030
2020/01/31 13:53:29.2	0.210	-0.080	0.120	-0.040
2020/01/31 13:53:29.3	0.170	-0.060	0.060	-0.050
2020/01/31 13:53:29.4	0.130	-0.030	0.010	-0.060
2020/01/31 13:53:29.5	0.090	-0.010	-0.040	-0.060
2020/01/31 13:53:29.6	0.060	0.020	-0.090	-0.070
2020/01/31 13:53:29.7	0.020	0.040	-0.140	-0.070
2020/01/31 13:53:29.8	359.980	0.070	-0.180	-0.080
2020/01/31 13:53:29.9	359.940	0.090	-0.220	-0.080
2020/01/31 13:53:30.0	359.890	0.120	-0.260	-0.080
2020/01/31 13:53:30.1	359.850	0.140	-0.290	-0.080
2020/01/31 13:53:30.2	359.810	0.160	-0.320	-0.080
2020/01/31 13:53:30.3	359.760	0.180	-0.340	-0.080
2020/01/31 13:53:30.4	359.720	0.190	-0.360	-0.070
2020/01/31 13:53:30.5	359.680	0.210	-0.380	-0.070
2020/01/31 13:53:30.6	359.640	0.220	-0.400	-0.070
2020/01/31 13:53:30.7	359.600	0.230	-0.410	-0.070
2020/01/31 13:53:30.8	359.560	0.240	-0.420	-0.060
2020/01/31 13:53:30.9	359.520	0.250	-0.420	-0.060
2020/01/31 13:53:31.0	359.480	0.250	-0.430	-0.060
2020/01/31 13:53:31.1	359.450	0.260	-0.430	-0.060
2020/01/31 13:53:31.2	359.410	0.260	-0.430	-0.060
2020/01/31 13:53:31.3	359.380	0.250	-0.430	-0.060
2020/01/31 13:53:31.4	359.340	0.250	-0.430	-0.060
2020/01/31 13:53:31.5	359.310	0.240	-0.430	-0.060
2020/01/31 13:53:31.6	359.290	0.240	-0.430	-0.060
2020/01/31 13:53:31.7	359.260	0.230	-0.430	-0.060
2020/01/31 13:53:31.8	359.230	0.220	-0.430	-0.060
2020/01/31 13:53:31.9	359.210	0.200	-0.430	-0.070
2020/01/31 13:53:32.0	359.180	0.190	-0.420	-0.070
2020/01/31 13:53:32.1	359.160	0.180	-0.420	-0.070
2020/01/31 13:53:32.2	359.140	0.160	-0.420	-0.070
2020/01/31 13:53:32.3	359.120	0.150	-0.420	-0.070
2020/01/31 13:53:32.4	359.100	0.130	-0.420	-0.070
2020/01/31 13:53:32.5	359.080	0.120	-0.420	-0.070
2020/01/31 13:53:32.6	359.060	0.100	-0.430	-0.070
2020/01/31 13:53:32.7	359.050	0.090	-0.430	-0.070
2020/01/31 13:53:32.8	359.040	0.070	-0.430	-0.070
2020/01/31 13:53:32.9	359.030	0.060	-0.430	-0.070
2020/01/31 13:53:33.0	359.020	0.040	-0.440	-0.080
2020/01/31 13:53:33.1	359.010	0.030	-0.440	-0.080
2020/01/31 13:53:33.2	359.010	0.020	-0.450	-0.090
2020/01/31 13:53:33.3	359.010	0.010	-0.450	-0.100
2020/01/31 13:53:33.4	359.000	-0.000	-0.460	-0.110
2020/01/31 13:53:33.5	359.000	-0.010	-0.470	-0.120
2020/01/31 13:53:33.6	359.000	-0.020	-0.470	-0.130
2020/01/31 13:53:33.7	359.000	-0.030	-0.480	-0.140
2020/01/31 13:53:33.8	359.000	-0.040	-0.490	-0.150
2020/01/31 13:53:33.9	359.000	-0.050	-0.500	-0.170
2020/01/31 13:53:34.0	359.000	-0.050	-0.500	-0.180
2020/01/31 13:53:34.1	359.000	-0.060	-0.510	-0.200
2020/01/31 13:53:34.2	359.000	-0.070	-0.520	-0.210
2020/01/31 13:53:34.3	359.000	-0.070	-0.530	-0.230
2020/01/31 13:53:34.4	359.000	-0.080	-0.530	-0.240
2020/01/31 13:53:34.5	358.990	-0.080	-0.540	-0.250
2020/01/31 13:53:34.6	358.980	-0.090	-0.540	-0.260
2020/01/31 13:53:34.7	358.970	-0.090	-0.540	-0.260
2020/01/31 13:53:34.8	358.960	-0.100	-0.550	-0.270
2020/01/31 13:53:34.9	358.950	-0.100	-0.550	-0.270
2020/01/31 13:53:35.0	358.940	-0.110	-0.550	-0.270
2020/01/31 13:53:35.1	358.920	-0.110	-0.540	-0.270
2020/01/31 13:53:35.2	358.910	-0.120	-0.540	-0.260
2020/01/31 13:53:35.3	358.880	-0.130	-0.540	-0.250
2020/01/31 13:53:35.4	358.860	-0.140	-0.530	-0.250
2020/01/31 13:53:35.5	358.840	-0.150	-0.520	-0.240
2020/01/31 13:53:35.6	358.810	-0.160	-0.510	-0.220
2020/01/31 13:53:35.7	358.790	-0.170	-0.510	-0.220
2020/01/31 13:53:35.8	358.760	-0.180	-0.500	-0.210
2020/01/31 13:53:35.9	358.730	-0.190	-0.490	-0.200
2020/01/31 13:53:36.0	358.700	-0.200	-0.480	-0.200
2020/01/31 13:53:36.1	358.670	-0.220	-0.470	-0.200
2020/01/31 13:53:36.2	358.640	-0.230	-0.460	-0.200
2020/01/31 13:53:36.3	358.610	-0.240	-0.450	-0.200
2020/01/31 13:53:36.4	358.580	-0.250	-0.440	-0.200
2020/01/31 13:53:36.5	358.550	-0.260	-0.430	-0.210
2020/01/31 13:53:36.6	358.530	-0.280	-0.420	-0.220
2020/01/31 13:53:36.7	358.500	-0.290	-0.410	-0.230
2020/01/31 13:53:36.8	358.470	-0.290	-0.390	-0.240
2020/01/31 13:53:36.9	358.430	-0.300	-0.380	-0.250
2020/01/31 13:53:37.0	358.400	-0.310	-0.360	-0.260
2020/01/31 13:53:37.1	358.370	-0.310	-0.340	-0.270
2020/01/31 13:53:37.2	358.340	-0.310	-0.330	-0.280
2020/01/31 13:53:37.3	358.300	-0.310	-0.300	-0.280
2020/01/31 13:53:37.4	358.270	-0.310	-0.280	-0.290
2020/01/31 13:53:37.5	358.230	-0.300	-0.260	-0.290
2020/01/31 13:53:37.6	358.200	-0.290	-0.240	-0.290
2020/01/31 13:53:37.7	358.160	-0.280	-0.210	-0.290
2020/01/31 13:53:37.8	358.120	-0.270	-0.180	-0.280
2020/01/31 13:53:37.9	358.080	-0.260	-0.150	-0.270
2020/01/31 13:53:38.0	358.030	-0.240	-0.120	-0.260
2020/01/31 13:53:38.1	357.990	-0.230	-0.080	-0.250
2020/01/31 13:53:38.2	357.950	-0.210	-0.050	-0.230
2020/01/31 13:53:38.3	357.900	-0.190	-0.020	-0.210
2020/01/31 13:53:38.4	357.860	-0.170	0.010	-0.190
2020/01/31 13:53:38.5	357.810	-0.140	0.050	-0.170
2020/01/31 13:53:38.6	357.770	-0.120	0.080	-0.140
2020/01/31 13:53:38.7	357.720	-0.100	0.110	-0.110
2020/01/31 13:53:38.8	357.680	-0.080	0.140	-0.080
2020/01/31 13:53:38.9	357.630	-0.050	0.170	-0.050
2020/01/31 13:53:39.0	357.590	-0.030	0.190	-0.020
2020/01/31 13:53:39.1	357.540	-0.010	0.220	0.020
2020/01/31 13:53:39.2	357.500	0.010	0.240	0.050
2020/01/31 13:53:39.3	357.460	0.030	0.260	0.090
2020/01/31 13:53:39.4	357.420	0.050	0.270	0.120
2020/01/31 13:53:39.5	357.380	0.070	0.290	0.160
2020/01/31 13:53:39.6	357.340	0.090	0.290	0.200
2020/01/31 13:53:39.7	357.310	0.110	0.300	0.240
2020/01/31 13:53:39.8	357.270	0.130	0.300	0.270
2020/01/31 13:53:39.9	357.240	0.140	0.300	0.310
2020/01/31 13:53:40.0	357.210	0.160	0.290	0.350
2020/01/31 13:53:40.1	357.180	0.170	0.290	0.380
2020/01/31 13:53:40.2	357.150	0.190	0.270	0.420
2020/01/31 13:53:40.3	357.120	0.200	0.260	0.450
2020/01/31 13:53:40.4	357.100	0.210	0.240	0.480
2020/01/31 13:53:40.5	357.070	0.220	0.220	0.520
2020/01/31 13:53:40.6	357.050	0.230	0.200	0.550
2020/01/31 13:53:40.7	357.030	0.240	0.170	0.580
2020/01/31 13:53:40.8	357.000	0.250	0.140	0.610
2020/01/31 13:53:40.9	356.980	0.260	0.120	0.640
2020/01/31 13:53:41.0	356.950	0.270	0.090	0.670
2020/01/31 13:53:41.1	356.920	0.270	0.060	0.700
2020/01/31 13:53:41.2	356.900	0.280	0.030	0.730
2020/01/31 13:53:41.3	356.870	0.280	-0.000	0.760
2020/01/31 13:53:41.4	356.840	0.280	-0.030	0.790
2020/01/31 13:53:41.5	356.820	0.280	-0.060	0.810
2020/01/31 13:53:41.6	356.780	0.280	-0.090	0.840
2020/01/31 13:53:41.7	356.750	0.280	-0.110	0.860
2020/01/31 13:53:41.8	356.720	0.280	-0.140	0.880
2020/01/31 13:53:41.9	356.690	0.280	-0.160	0.890
2020/01/31 13:53:42.0	356.660	0.270	-0.180	0.900
2020/01/31 13:53:42.1	356.630	0.270	-0.200	0.920
2020/01/31 13:53:42.2	356.600	0.260	-0.210	0.920
2020/01/31 13:53:42.3	356.560	0.250	-0.230	0.930
2020/01/31 13:53:42.4	356.530	0.240	-0.240	0.930
2020/01/31 13:53:42.5	356.490	0.230	-0.250	0.940
2020/01/31 13:53:42.6	356.450	0.220	-0.260	0.930
2020/01/31 13:53:42.7	356.410	0.210	-0.270	0.930
2020/01/31 13:53:42.8	356.380	0.200	-0.270	0.930
2020/01/31 13:53:42.9	356.340	0.190	-0.280	0.920
2020/01/31 13:53:43.0	356.300	0.180	-0.280	0.920
2020/01/31 13:53:43.1	356.260	0.160	-0.280	0.910
2020/01/31 13:53:43.2	356.210	0.150	-0.280	0.910
2020/01/31 13:53:43.3	356.170	0.140	-0.270	0.900
2020/01/31 13:53:43.4	356.130	0.130	-0.270	0.890
2020/01/31 13:53:43.5	356.090	0.110	-0.270	0.870
2020/01/31 13:53:43.6	356.050	0.100	-0.260	0.860
2020/01/31 13:53:43.7	356.010	0.090	-0.260	0.840
2020/01/31 13:53:43.8	355.970	0.080	-0.260	0.830
2020/01/31 13:53:43.9	355.930	0.070	-0.260	0.810
2020/01/31 13:53:44.0	355.900	0.060	-0.260	0.790
2020/01/31 13:53:44.1	355.860	0.060	-0.260	0.760
2020/01/31 13:53:44.2	355.830	0.050	-0.260	0.740
2020/01/31 13:53:44.3	355.790	0.050	-0.260	0.710
2020/01/31 13:53:44.4	355.760	0.050	-0.270	0.680
2020/01/31 13:53:44.5	355.730	0.050	-0.280	0.650
2020/01/31 13:53:44.6	355.700	0.050	-0.290	0.620
2020/01/31 13:53:44.7	355.670	0.050	-0.300	0.590
2020/01/31 13:53:44.8	355.640	0.060	-0.320	0.550
2020/01/31 13:53:44.9	355.610	0.070	-0.340	0.520
2020/01/31 13:53:45.0	355.590	0.080	-0.360	0.490
2020/01/31 13:53:45.1	355.560	0.090	-0.380	0.460
2020/01/31 13:53:45.2	355.530	0.110	-0.400	0.430
2020/01/31 13:53:45.3	355.500	0.130	-0.420	0.400
2020/01/31 13:53:45.4	355.470	0.140	-0.450	0.380
2020/01/31 13:53:45.5	355.440	0.160	-0.470	0.350
2020/01/31 13:53:45.6	355.400	0.180	-0.500	0.330
2020/01/31 13:53:45.7	355.370	0.200	-0.520	0.310
2020/01/31 13:53:45.8	355.350	0.230	-0.550	0.290
2020/01/31 13:53:45.9	355.320	0.250	-0.570	0.270
2020/01/31 13:53:46.0	355.290	0.270	-0.590	0.250
2020/01/31 13:53:46.1	355.260	0.280	-0.620	0.230
2020/01/31 13:53:46.2	355.230	0.300	-0.640	0.210
2020/01/31 13:53:46.3	355.200	0.320	-0.660	0.200
2020/01/31 13:53:46.4	355.180	0.330	-0.670	0.180
2020/01/31 13:53:46.5	355.150	0.340	-0.690	0.160
2020/01/31 13:53:46.6	355.120	0.350	-0.700	0.140
2020/01/31 13:53:46.7	355.100	0.350	-0.710	0.130
2020/01/31 13:53:46.8	355.080	0.350	-0.720	0.110
2020/01/31 13:53:46.9	355.060	0.350	-0.730	0.090
2020/01/31 13:53:47.0	355.040	0.340	-0.730	0.070
2020/01/31 13:53:47.1	355.030	0.330	-0.730	0.050
2020/01/31 13:53:47.2	355.020	0.310	-0.730	0.030
2020/01/31 13:53:47.3	355.010	0.290	-0.730	0.010
2020/01/31 13:53:47.4	355.000	0.270	-0.720	-0.020
2020/01/31 13:53:47.5	354.990	0.240	-0.710	-0.040
2020/01/31 13:53:47.6	354.980	0.200	-0.700	-0.060
2020/01/31 13:53:47.7	354.970	0.170	-0.690	-0.090
2020/01/31 13:53:47.8	354.970	0.130	-0.670	-0.120
2020/01/31 13:53:47.9	354.970	0.080	-0.660	-0.140
2020/01/31 13:53:48.0	354.980	0.030	-0.640	-0.170
2020/01/31 13:53:48.1	354.980	-0.010	-0.620	-0.200
2020/01/31 13:53:48.2	354.990	-0.070	-0.600	-0.230
2020/01/31 13:53:48.3	355.000	-0.120	-0.580	-0.260
2020/01/31 13:53:48.4	355.000	-0.170	-0.560	-0.300
2020/01/31 13:53:48.5	355.010	-0.230	-0.530	-0.330
2020/01/31 13:53:48.6	355.020	-0.290	-0.510	-0.360
2020/01/31 13:53:48.7	355.030	-0.340	-0.480	-0.390
2020/01/31 13:53:48.8	355.040	-0.400	-0.450	-0.420
2020/01/31 13:53:48.9	355.060	-0.460	-0.420	-0.450
2020/01/31 13:53:49.0	355.070	-0.510	-0.380	-0.470
2020/01/31 13:53:49.1	355.080	-0.560	-0.340	-0.500
2020/01/31 13:53:49.2	355.080	-0.610	-0.300	-0.520
2020/01/31 13:53:49.3	355.090	-0.660	-0.260	-0.530
2020/01/31 13:53:49.4	355.090	-0.710	-0.220	-0.550
2020/01/31 13:53:49.5	355.090	-0.750	-0.170	-0.560
2020/01/31 13:53:49.6	355.080	-0.790	-0.120	-0.560
2020/01/31 13:53:49.7	355.070	-0.820	-0.070	-0.560
2020/01/31 13:53:49.8	355.060	-0.850	-0.020	-0.560
2020/01/31 13:53:49.9	355.040	-0.880	0.030	-0.550
2020/01/31 13:53:50.0	355.020	-0.900	0.080	-0.540
2020/01/31 13:53:50.1	355.000	-0.920	0.130	-0.520
2020/01/31 13:53:50.2	354.980	-0.930	0.180	-0.490
2020/01/31 13:53:50.3	354.950	-0.930	0.220	-0.470
2020/01/31 13:53:50.4	354.930	-0.930	0.270	-0.440
2020/01/31 13:53:50.5	354.900	-0.930	0.300	-0.410
2020/01/31 13:53:50.6	354.860	-0.910	0.340	-0.370
2020/01/31 13:53:50.7	354.830	-0.900	0.360	-0.340
2020/01/31 13:53:50.8	354.790	-0.870	0.390	-0.300
2020/01/31 13:53:50.9	354.760	-0.840	0.410	-0.260
2020/01/31 13:53:51.0	354.730	-0.810	0.420	-0.220
2020/01/31 13:53:51.1	354.690	-0.760	0.430	-0.180
2020/01/31 13:53:51.2	354.660	-0.720	0.430	-0.140
2020/01/31 13:53:51.3	354.630	-0.660	0.420	-0.090
2020/01/31 13:53:51.4	354.600	-0.610	0.410	-0.050
2020/01/31 13:53:51.5	354.570	-0.540	0.390	-0.000
2020/01/31 13:53:51.6	354.540	-0.480	0.370	0.050
2020/01/31 13:53:51.7	354.510	-0.400	0.340	0.090
2020/01/31 13:53:51.8	354.480	-0.330	0.300	0.140
2020/01/31 13:53:51.9	354.460	-0.250	0.260	0.190
2020/01/31 13:53:52.0	354.440	-0.170	0.220	0.240
2020/01/31 13:53:52.1	354.410	-0.090	0.180	0.290
2020/01/31 13:53:52.2	354.390	-0.010	0.130	0.340
2020/01/31 13:53:52.3	354.370	0.070	0.080	0.390
2020/01/31 13:53:52.4	354.350	0.150	0.030	0.440
2020/01/31 13:53:52.5	354.330	0.230	-0.020	0.490
2020/01/31 13:53:52.6	354.280	0.310	-0.080	0.550
2020/01/31 13:53:52.7	354.260	0.380	-0.130	0.600
2020/01/31 13:53:52.8	354.240	0.450	-0.170	0.660
2020/01/31 13:53:52.9	354.220	0.520	-0.210	0.710
2020/01/31 13:53:53.0	354.200	0.590	-0.250	0.760
2020/01/31 13:53:53.1	354.180	0.640	-0.290	0.820
2020/01/31 13:53:53.2	354.160	0.700	-0.320	0.870
2020/01/31 13:53:53.3	354.140	0.740	-0.350	0.930
2020/01/31 13:53:53.4	354.120	0.790	-0.370	0.980
2020/01/31 13:53:53.5	354.090	0.820	-0.390	1.030
2020/01/31 13:53:53.6	354.070	0.850	-0.400	1.090
2020/01/31 13:53:53.7	354.040	0.870	-0.410	1.140
2020/01/31 13:53:53.8	354.020	0.890	-0.410	1.190
2020/01/31 13:53:53.9	354.000	0.900	-0.400	1.240
2020/01/31 13:53:54.0	353.970	0.900	-0.390	1.290
2020/01/31 13:53:54.1	353.950	0.890	-0.370	1.330
2020/01/31 13:53:54.2	353.920	0.880	-0.350	1.380
2020/01/31 13:53:54.3	353.890	0.860	-0.320	1.420
2020/01/31 13:53:54.4	353.860	0.840	-0.280	1.460
2020/01/31 13:53:54.5	353.830	0.810	-0.240	1.490
2020/01/31 13:53:54.6	353.800	0.780	-0.200	1.530
2020/01/31 13:53:54.7	353.770	0.740	-0.150	1.560
2020/01/31 13:53:54.8	353.730	0.700	-0.100	1.580
2020/01/31 13:53:54.9	353.700	0.650	-0.050	1.600
2020/01/31 13:53:55.0	353.660	0.610	0.000	1.620
2020/01/31 13:53:55.1	353.630	0.550	0.050	1.640
2020/01/31 13:53:55.2	353.590	0.500	0.110	1.650
2020/01/31 13:53:55.3	353.550	0.450	0.160	1.650
2020/01/31 13:53:55.4	353.520	0.390	0.210	1.650
2020/01/31 13:53:55.5	353.480	0.340	0.250	1.650
2020/01/31 13:53:55.6	353.450	0.280	0.290	1.640
2020/01/31 13:53:55.7	353.410	0.230	0.330	1.630
2020/01/31 13:53:55.8	353.380	0.180	0.360	1.610
2020/01/31 13:53:55.9	353.350	0.130	0.380	1.590
2020/01/31 13:53:56.0	353.320	0.080	0.390	1.570
2020/01/31 13:53:56.1	353.300	0.040	0.400	1.540
2020/01/31 13:53:56.2	353.270	-0.010	0.400	1.500
2020/01/31 13:53:56.3	353.250	-0.040	0.390	1.460
2020/01/31 13:53:56.4	353.240	-0.080	0.370	1.410
2020/01/31 13:53:56.5	353.220	-0.110	0.350	1.350
2020/01/31 13:53:56.6	353.200	-0.140	0.310	1.290
2020/01/31 13:53:56.7	353.190	-0.160	0.270	1.230
2020/01/31 13:53:56.8	353.190	-0.180	0.220	1.160
2020/01/31 13:53:56.9	353.190	-0.190	0.160	1.080
2020/01/31 13:53:57.0	353.190	-0.210	0.090	1.000
2020/01/31 13:53:57.1	353.190	-0.220	0.030	0.910
2020/01/31 13:53:57.2	353.190	-0.220	-0.050	0.820
2020/01/31 13:53:57.3	353.200	-0.220	-0.130	0.730
2020/01/31 13:53:57.4	353.210	-0.220	-0.210	0.630
2020/01/31 13:53:57.5	353.220	-0.220	-0.290	0.530
2020/01/31 13:53:57.6	353.230	-0.220	-0.380	0.430
2020/01/31 13:53:57.7	353.240	-0.210	-0.460	0.320
2020/01/31 13:53:57.8	353.250	-0.200	-0.550	0.220
2020/01/31 13:53:57.9	353.250	-0.190	-0.630	0.120
2020/01/31 13:53:58.0	353.260	-0.180	-0.710	0.020
2020/01/31 13:53:58.1	353.270	-0.170	-0.790	-0.090
2020/01/31 13:53:58.2	353.270	-0.160	-0.870	-0.190
2020/01/31 13:53:58.3	353.280	-0.150	-0.940	-0.280
2020/01/31 13:53:58.4	353.280	-0.140	-1.000	-0.380
2020/01/31 13:53:58.5	353.280	-0.140	-1.060	-0.470
2020/01/31 13:53:58.6	353.280	-0.130	-1.110	-0.570
2020/01/31 13:53:58.7	353.280	-0.120	-1.160	-0.660
2020/01/31 13:53:58.8	353.280	-0.120	-1.200	-0.740
2020/01/31 13:53:58.9	353.280	-0.110	-1.240	-0.830
2020/01/31 13:53:59.0	353.290	-0.110	-1.270	-0.910
2020/01/31 13:53:59.1	353.290	-0.110	-1.290	-0.990
2020/01/31 13:53:59.2	353.290	-0.110	-1.300	-1.070
2020/01/31 13:53:59.3	353.290	-0.110	-1.310	-1.140
2020/01/31 13:53:59.4	353.300	-0.110	-1.320	-1.220
2020/01/31 13:53:59.5	353.310	-0.120	-1.320	-1.290
2020/01/31 13:53:59.6	353.310	-0.120	-1.310	-1.360
2020/01/31 13:53:59.7	353.320	-0.130	-1.300	-1.420
2020/01/31 13:53:59.8	353.330	-0.140	-1.290	-1.490
2020/01/31 13:53:59.9	353.350	-0.140	-1.270	-1.550
2020/01/31 13:54:00.0	353.370	-0.150	-1.250	-1.610
2020/01/31 13:54:00.1	353.390	-0.160	-1.230	-1.670
2020/01/31 13:54:00.2	353.410	-0.160	-1.200	-1.720
2020/01/31 13:54:00.3	353.430	-0.170	-1.170	-1.770
2020/01/31 13:54:00.4	353.460	-0.180	-1.140	-1.820
2020/01/31 13:54:00.5	353.490	-0.180	-1.110	-1.860
2020/01/31 13:54:00.6	353.510	-0.190	-1.070	-1.900
2020/01/31 13:54:00.7	353.540	-0.190	-1.030	-1.940
2020/01/31 13:54:00.8	353.580	-0.190	-1.000	-1.970
2020/01/31 13:54:00.9	353.610	-0.200	-0.960	-2.000
2020/01/31 13:54:01.0	353.650	-0.200	-0.920	-2.020
2020/01/31 13:54:01.1	353.680	-0.200	-0.880	-2.040
2020/01/31 13:54:01.2	353.720	-0.200	-0.830	-2.060
2020/01/31 13:54:01.3	353.750	-0.190	-0.790	-2.080
2020/01/31 13:54:01.4	353.790	-0.190	-0.740	-2.090
2020/01/31 13:54:01.5	353.820	-0.190	-0.690	-2.090
2020/01/31 13:54:01.6	353.850	-0.190	-0.640	-2.090
2020/01/31 13:54:01.7	353.880	-0.180	-0.580	-2.080
2020/01/31 13:54:01.8	353.920	-0.180	-0.520	-2.070
2020/01/31 13:54:01.9	353.950	-0.180	-0.460	-2.060
2020/01/31 13:54:02.0	353.970	-0.180	-0.390	-2.030
2020/01/31 13:54:02.1	354.000	-0.170	-0.320	-2.010
2020/01/31 13:54:02.2	354.020	-0.170	-0.240	-1.970
2020/01/31 13:54:02.3	354.040	-0.170	-0.160	-1.930
2020/01/31 13:54:02.4	354.050	-0.170	-0.080	-1.880
2020/01/31 13:54:02.5	354.070	-0.170	0.010	-1.830
2020/01/31 13:54:02.6	354.080	-0.180	0.090	-1.760
2020/01/31 13:54:02.7	354.080	-0.180	0.190	-1.680
2020/01/31 13:54:02.8	354.070	-0.190	0.280	-1.600
2020/01/31 13:54:02.9	354.060	-0.190	0.370	-1.510
2020/01/31 13:54:03.0	354.040	-0.200	0.470	-1.410
2020/01/31 13:54:03.1	354.020	-0.210	0.570	-1.300
2020/01/31 13:54:03.2	353.990	-0.220	0.660	-1.180
2020/01/31 13:54:03.3	353.950	-0.230	0.760	-1.060
2020/01/31 13:54:03.4	353.910	-0.250	0.850	-0.930
2020/01/31 13:54:03.5	353.870	-0.260	0.940	-0.800
2020/01/31 13:54:03.6	353.820	-0.280	1.020	-0.660
2020/01/31 13:54:03.7	353.760	-0.290	1.100	-0.520
2020/01/31 13:54:03.8	353.710	-0.310	1.170	-0.380
2020/01/31 13:54:03.9	353.650	-0.320	1.220	-0.240
2020/01/31 13:54:04.0	353.590	-0.330	1.280	-0.100
2020/01/31 13:54:04.1	353.530	-0.350	1.320	0.040
2020/01/31 13:54:04.2	353.470	-0.360	1.340	0.180
2020/01/31 13:54:04.3	353.410	-0.370	1.360	0.310
2020/01/31 13:54:04.4	353.350	-0.370	1.370	0.430
2020/01/31 13:54:04.5	353.290	-0.380	1.360	0.560
2020/01/31 13:54:04.6	353.240	-0.380	1.340	0.670
2020/01/31 13:54:04.7	353.180	-0.380	1.310	0.780
2020/01/31 13:54:04.8	353.120	-0.380	1.270	0.880
2020/01/31 13:54:04.9	353.070	-0.370	1.210	0.980
2020/01/31 13:54:05.0	353.020	-0.350	1.150	1.070
2020/01/31 13:54:05.1	352.970	-0.330	1.070	1.150
2020/01/31 13:54:05.2	352.930	-0.310	0.980	1.220
2020/01/31 13:54:05.3	352.890	-0.280	0.890	1.280
2020/01/31 13:54:05.4	352.840	-0.250	0.780	1.340
2020/01/31 13:54:05.5	352.810	-0.210	0.670	1.400
2020/01/31 13:54:05.6	352.770	-0.170	0.560	1.450
2020/01/31 13:54:05.7	352.740	-0.120	0.440	1.500
2020/01/31 13:54:05.8	352.700	-0.070	0.330	1.540
2020/01/31 13:54:05.9	352.660	-0.020	0.210	1.580
2020/01/31 13:54:06.0	352.630	0.040	0.090	1.620
2020/01/31 13:54:06.1	352.590	0.100	-0.020	1.660
2020/01/31 13:54:06.2	352.550	0.170	-0.130	1.700
2020/01/31 13:54:06.3	352.510	0.230	-0.240	1.740
2020/01/31 13:54:06.4	352.470	0.300	-0.340	1.780
2020/01/31 13:54:06.5	352.430	0.370	-0.430	1.810
2020/01/31 13:54:06.6	352.380	0.440	-0.530	1.850
2020/01/31 13:54:06.7	352.340	0.500	-0.610	1.890
2020/01/31 13:54:06.8	352.290	0.570	-0.680	1.920
2020/01/31 13:54:06.9	352.240	0.630	-0.740	1.950
2020/01/31 13:54:07.0	352.200	0.690	-0.790	1.980
2020/01/31 13:54:07.1	352.150	0.740	-0.840	2.010
2020/01/31 13:54:07.2	352.110	0.790	-0.880	2.030
2020/01/31 13:54:07.3	352.060	0.840	-0.920	2.050
2020/01/31 13:54:07.4	352.020	0.880	-0.940	2.060
2020/01/31 13:54:07.5	351.980	0.920	-0.960	2.070
2020/01/31 13:54:07.6	351.950	0.940	-0.970	2.080
2020/01/31 13:54:07.7	351.920	0.970	-0.980	2.070
2020/01/31 13:54:07.8	351.890	0.980	-0.980	2.060
2020/01/31 13:54:07.9	351.860	0.990	-0.980	2.040
2020/01/31 13:54:08.0	351.830	0.990	-0.970	2.020
2020/01/31 13:54:08.1	351.820	0.990	-0.960	1.990
2020/01/31 13:54:08.2	351.800	0.980	-0.950	1.950
2020/01/31 13:54:08.3	351.790	0.960	-0.930	1.900
2020/01/31 13:54:08.4	351.780	0.940	-0.910	1.850
2020/01/31 13:54:08.5	351.780	0.900	-0.890	1.790
2020/01/31 13:54:08.6	351.790	0.870	-0.870	1.720
2020/01/31 13:54:08.7	351.800	0.830	-0.850	1.650
2020/01/31 13:54:08.8	351.810	0.780	-0.830	1.570
2020/01/31 13:54:08.9	351.830	0.730	-0.800	1.480
2020/01/31 13:54:09.0	351.850	0.670	-0.780	1.390
2020/01/31 13:54:09.1	351.870	0.610	-0.760	1.290
2020/01/31 13:54:09.2	351.900	0.550	-0.730	1.180
2020/01/31 13:54:09.3	351.930	0.480	-0.710	1.070
2020/01/31 13:54:09.4	351.970	0.420	-0.690	0.960
2020/01/31 13:54:09.5	352.010	0.350	-0.670	0.840
2020/01/31 13:54:09.6	352.050	0.280	-0.650	0.720
2020/01/31 13:54:09.7	352.100	0.210	-0.640	0.600
2020/01/31 13:54:09.8	352.140	0.140	-0.620	0.470
2020/01/31 13:54:09.9	352.190	0.070	-0.600	0.340
2020/01/31 13:54:10.0	352.240	-0.000	-0.590	0.220
2020/01/31 13:54:10.1	352.300	-0.070	-0.570	0.090
2020/01/31 13:54:10.2	352.350	-0.140	-0.560	-0.040
2020/01/31 13:54:10.3	352.400	-0.200	-0.550	-0.170
2020/01/31 13:54:10.4	352.450	-0.260	-0.530	-0.290
2020/01/31 13:54:10.5	352.500	-0.320	-0.520	-0.420
2020/01/31 13:54:10.6	352.550	-0.380	-0.510	-0.540
2020/01/31 13:54:10.7	352.600	-0.430	-0.500	-0.660
2020/01/31 13:54:10.8	352.650	-0.480	-0.490	-0.770
2020/01/31 13:54:10.9	352.700	-0.520	-0.480	-0.890
2020/01/31 13:54:11.0	352.740	-0.560	-0.460	-1.000
2020/01/31 13:54:11.1	352.790	-0.600	-0.450	-1.110
2020/01/31 13:54:11.2	352.830	-0.630	-0.440	-1.210
2020/01/31 13:54:11.3	352.870	-0.660	-0.430	-1.310
2020/01/31 13:54:11.4	352.910	-0.680	-0.430	-1.400
2020/01/31 13:54:11.5	352.940	-0.700	-0.420	-1.490
2020/01/31 13:54:11.6	352.970	-0.720	-0.410	-1.570
2020/01/31 13:54:11.7	353.000	-0.730	-0.400	-1.650
2020/01/31 13:54:11.8	353.030	-0.740	-0.400	-1.720
2020/01/31 13:54:11.9	353.050	-0.740	-0.400	-1.780
2020/01/31 13:54:12.0	353.080	-0.740	-0.390	-1.840
2020/01/31 13:54:12.1	353.090	-0.740	-0.390	-1.890
2020/01/31 13:54:12.2	353.110	-0.730	-0.390	-1.940
2020/01/31 13:54:12.3	353.130	-0.720	-0.390	-1.980
2020/01/31 13:54:12.4	353.140	-0.710	-0.390	-2.010
2020/01/31 13:54:12.5	353.150	-0.690	-0.390	-2.040
2020/01/31 13:54:12.6	353.160	-0.670	-0.400	-2.050
2020/01/31 13:54:12.7	353.170	-0.650	-0.400	-2.060
2020/01/31 13:54:12.8	353.180	-0.630	-0.400	-2.070
2020/01/31 13:54:12.9	353.190	-0.610	-0.410	-2.080
2020/01/31 13:54:13.0	353.190	-0.580	-0.410	-2.080
2020/01/31 13:54:13.1	353.200	-0.560	-0.410	-2.070
2020/01/31 13:54:13.2	353.210	-0.530	-0.410	-2.060
2020/01/31 13:54:13.3	353.220	-0.500	-0.410	-2.040
2020/01/31 13:54:13.4	353.220	-0.480	-0.410	-2.020
2020/01/31 13:54:13.5	353.230	-0.450	-0.410	-1.990
2020/01/31 13:54:13.6	353.240	-0.420	-0.410	-1.960
2020/01/31 13:54:13.7	353.250	-0.390	-0.400	-1.930
2020/01/31 13:54:13.8	353.260	-0.370	-0.390	-1.890
2020/01/31 13:54:13.9	353.260	-0.340	-0.380	-1.850
2020/01/31 13:54:14.0	353.270	-0.310	-0.370	-1.810
2020/01/31 13:54:14.1	353.280	-0.290	-0.360	-1.760
2020/01/31 13:54:14.2	353.290	-0.270	-0.340	-1.710
2020/01/31 13:54:14.3	353.290	-0.240	-0.320	-1.660
2020/01/31 13:54:14.4	353.300	-0.220	-0.290	-1.600
2020/01/31 13:54:14.5	353.300	-0.200	-0.270	-1.540
2020/01/31 13:54:14.6	353.310	-0.180	-0.230	-1.470
2020/01/31 13:54:14.7	353.320	-0.160	-0.200	-1.400
2020/01/31 13:54:14.8	353.320	-0.140	-0.160	-1.330
2020/01/31 13:54:14.9	353.320	-0.130	-0.120	-1.260
2020/01/31 13:54:15.0	353.320	-0.110	-0.070	-1.180
2020/01/31 13:54:15.1	353.320	-0.100	-0.020	-1.100
2020/01/31 13:54:15.2	353.320	-0.090	0.030	-1.010
2020/01/31 13:54:15.3	353.310	-0.080	0.090	-0.930
2020/01/31 13:54:15.4	353.300	-0.070	0.150	-0.840
2020/01/31 13:54:15.5	353.290	-0.060	0.210	-0.750
2020/01/31 13:54:15.6	353.270	-0.050	0.270	-0.650
2020/01/31 13:54:15.7	353.260	-0.050	0.340	-0.550
2020/01/31 13:54:15.8	353.230	-0.040	0.400	-0.450
2020/01/31 13:54:15.9	353.210	-0.040	0.470	-0.350
2020/01/31 13:54:16.0	353.180	-0.040	0.540	-0.250
2020/01/31 13:54:16.1	353.150	-0.030	0.600	-0.150
2020/01/31 13:54:16.2	353.120	-0.030	0.670	-0.040
2020/01/31 13:54:16.3	353.080	-0.030	0.730	0.070
2020/01/31 13:54:16.4	353.040	-0.030	0.790	0.170
2020/01/31 13:54:16.5	353.000	-0.030	0.840	0.280
2020/01/31 13:54:16.6	352.960	-0.030	0.900	0.390
2020/01/31 13:54:16.7	352.910	-0.030	0.940	0.500
2020/01/31 13:54:16.8	352.860	-0.030	0.980	0.610
2020/01/31 13:54:16.9	352.810	-0.020	1.020	0.710
2020/01/31 13:54:17.0	352.760	-0.020	1.050	0.820
2020/01/31 13:54:17.1	352.710	-0.020	1.060	0.920
2020/01/31 13:54:17.2	352.660	-0.010	1.080	1.020
2020/01/31 13:54:17.3	352.600	-0.010	1.080	1.120
2020/01/31 13:54:17.4	352.550	0.000	1.080	1.220
2020/01/31 13:54:17.5	352.500	0.010	1.060	1.310
2020/01/31 13:54:17.6	352.460	0.020	1.040	1.400
2020/01/31 13:54:17.7	352.420	0.040	1.000	1.480
2020/01/31 13:54:17.8	352.380	0.060	0.960	1.560
2020/01/31 13:54:17.9	352.330	0.070	0.910	1.630
2020/01/31 13:54:18.0	352.300	0.100	0.850	1.700
2020/01/31 13:54:18.1	352.260	0.120	0.780	1.760
2020/01/31 13:54:18.2	352.240	0.150	0.700	1.810
2020/01/31 13:54:18.3	352.210	0.170	0.610	1.860
2020/01/31 13:54:18.4	352.190	0.210	0.520	1.890
2020/01/31 13:54:18.5	352.170	0.240	0.410	1.930
2020/01/31 13:54:18.6	352.170	0.280	0.300	1.960
2020/01/31 13:54:18.7	352.170	0.310	0.180	1.970
2020/01/31 13:54:18.8	352.170	0.350	0.060	1.980
2020/01/31 13:54:18.9	352.170	0.400	-0.070	1.980
2020/01/31 13:54:19.0	352.190	0.440	-0.200	1.980
2020/01/31 13:54:19.1	352.200	0.480	-0.340	1.960
2020/01/31 13:54:19.2	352.230	0.520	-0.470	1.940
2020/01/31 13:54:19.3	352.250	0.570	-0.610	1.910
2020/01/31 13:54:19.4	352.290	0.610	-0.740	1.880
2020/01/31 13:54:19.5	352.330	0.650	-0.880	1.840
2020/01/31 13:54:19.6	352.360	0.690	-1.020	1.790
2020/01/31 13:54:19.7	352.410	0.730	-1.140	1.730
2020/01/31 13:54:19.8	352.460	0.770	-1.270	1.670
2020/01/31 13:54:19.9	352.510	0.800	-1.390	1.610
2020/01/31 13:54:20.0	352.570	0.830	-1.500	1.540
2020/01/31 13:54:20.1	352.630	0.860	-1.600	1.470
2020/01/31 13:54:20.2	352.700	0.880	-1.700	1.390
2020/01/31 13:54:20.3	352.760	0.900	-1.780	1.320
2020/01/31 13:54:20.4	352.830	0.910	-1.860	1.240
2020/01/31 13:54:20.5	352.890	0.920	-1.920	1.160
2020/01/31 13:54:20.6	352.960	0.920	-1.980	1.090
2020/01/31 13:54:20.7	353.030	0.920	-2.020	1.010
2020/01/31 13:54:20.8	353.100	0.910	-2.050	0.930
2020/01/31 13:54:20.9	353.160	0.900	-2.060	0.850
2020/01/31 13:54:21.0	353.230	0.880	-2.070	0.780
2020/01/31 13:54:21.1	353.290	0.850	-2.060	0.700
2020/01/31 13:54:21.2	353.360	0.820	-2.030	0.630
2020/01/31 13:54:21.3	353.420	0.780	-2.000	0.550
2020/01/31 13:54:21.4	353.480	0.740	-1.950	0.480
2020/01/31 13:54:21.5	353.540	0.690	-1.900	0.410
2020/01/31 13:54:21.6	353.600	0.630	-1.830	0.340
2020/01/31 13:54:21.7	353.660	0.570	-1.750	0.270
2020/01/31 13:54:21.8	353.710	0.510	-1.660	0.200
2020/01/31 13:54:21.9	353.770	0.440	-1.560	0.130
2020/01/31 13:54:22.0	353.820	0.370	-1.450	0.060
2020/01/31 13:54:22.1	353.870	0.290	-1.340	-0.000
2020/01/31 13:54:22.2	353.910	0.210	-1.220	-0.070
2020/01/31 13:54:22.3	353.960	0.130	-1.090	-0.140
2020/01/31 13:54:22.4	354.000	0.050	-0.960	-0.200
2020/01/31 13:54:22.5	354.040	-0.040	-0.820	-0.260
2020/01/31 13:54:22.6	354.100	-0.120	-0.690	-0.330
2020/01/31 13:54:22.7	354.130	-0.210	-0.550	-0.390
2020/01/31 13:54:22.8	354.170	-0.290	-0.410	-0.440
2020/01/31 13:54:22.9	354.200	-0.370	-0.270	-0.500
2020/01/31 13:54:23.0	354.220	-0.450	-0.130	-0.550
2020/01/31 13:54:23.1	354.250	-0.530	0.010	-0.610
2020/01/31 13:54:23.2	354.270	-0.600	0.140	-0.660
2020/01/31 13:54:23.3	354.290	-0.670	0.270	-0.710
2020/01/31 13:54:23.4	354.310	-0.730	0.390	-0.750
2020/01/31 13:54:23.5	354.330	-0.790	0.510	-0.800
2020/01/31 13:54:23.6	354.330	-0.850	0.610	-0.850
2020/01/31 13:54:23.7	354.340	-0.890	0.710	-0.890
2020/01/31 13:54:23.8	354.350	-0.940	0.800	-0.930
2020/01/31 13:54:23.9	354.370	-0.970	0.880	-0.960
2020/01/31 13:54:24.0	354.380	-1.000	0.950	-1.000
2020/01/31 13:54:24.1	354.390	-1.020	1.010	-1.040
2020/01/31 13:54:24.2	354.400	-1.030	1.060	-1.070
2020/01/31 13:54:24.3	354.420	-1.040	1.100	-1.100
2020/01/31 13:54:24.4	354.430	-1.040	1.120	-1.130
2020/01/31 13:54:24.5	354.440	-1.030	1.130	-1.160
2020/01/31 13:54:24.6	354.450	-1.020	1.130	-1.180
2020/01/31 13:54:24.7	354.470	-1.000	1.130	-1.210
2020/01/31 13:54:24.8	354.480	-0.970	1.110	-1.230
2020/01/31 13:54:24.9	354.500	-0.940	1.080	-1.260
2020/01/31 13:54:25.0	354.510	-0.900	1.040	-1.280
2020/01/31 13:54:25.1	354.530	-0.860	0.990	-1.300
2020/01/31 13:54:25.2	354.540	-0.810	0.940	-1.320
2020/01/31 13:54:25.3	354.560	-0.760	0.880	-1.330
2020/01/31 13:54:25.4	354.570	-0.710	0.820	-1.340
2020/01/31 13:54:25.5	354.580	-0.650	0.740	-1.360
2020/01/31 13:54:25.6	354.590	-0.600	0.670	-1.360
2020/01/31 13:54:25.7	354.600	-0.540	0.590	-1.370
2020/01/31 13:54:25.8	354.610	-0.480	0.510	-1.370
2020/01/31 13:54:25.9	354.620	-0.420	0.430	-1.370
2020/01/31 13:54:26.0	354.630	-0.360	0.350	-1.360
2020/01/31 13:54:26.1	354.640	-0.300	0.280	-1.350
2020/01/31 13:54:26.2	354.640	-0.240	0.200	-1.330
2020/01/31 13:54:26.3	354.640	-0.190	0.130	-1.310
2020/01/31 13:54:26.4	354.640	-0.130	0.060	-1.290
2020/01/31 13:54:26.5	354.640	-0.080	-0.010	-1.260
2020/01/31 13:54:26.6	354.640	-0.030	-0.070	-1.210
2020/01/31 13:54:26.7	354.630	0.010	-0.130	-1.180
2020/01/31 13:54:26.8	354.620	0.060	-0.180	-1.130
2020/01/31 13:54:26.9	354.610	0.100	-0.230	-1.090
2020/01/31 13:54:27.0	354.600	0.130	-0.270	-1.040
2020/01/31 13:54:27.1	354.580	0.160	-0.310	-0.990
2020/01/31 13:54:27.2	354.570	0.190	-0.340	-0.940
2020/01/31 13:54:27.3	354.550	0.220	-0.360	-0.890
2020/01/31 13:54:27.4	354.530	0.240	-0.380	-0.840
2020/01/31 13:54:27.5	354.520	0.260	-0.400	-0.790
2020/01/31 13:54:27.6	354.500	0.270	-0.410	-0.720
2020/01/31 13:54:27.7	354.490	0.280	-0.410	-0.670
2020/01/31 13:54:27.8	354.480	0.290	-0.420	-0.620
2020/01/31 13:54:27.9	354.460	0.300	-0.420	-0.570
2020/01/31 13:54:28.0	354.460	0.300	-0.410	-0.520
2020/01/31 13:54:28.1	354.450	0.300	-0.410	-0.470
2020/01/31 13:54:28.2	354.450	0.310	-0.400	-0.420
2020/01/31 13:54:28.3	354.450	0.310	-0.400	-0.370
2020/01/31 13:54:28.4	354.450	0.310	-0.390	-0.330
2020/01/31 13:54:28.5	354.460	0.300	-0.380	-0.290
2020/01/31 13:54:28.6	354.470	0.300	-0.380	-0.240
2020/01/31 13:54:28.7	354.480	0.300	-0.370	-0.210
2020/01/31 13:54:28.8	354.500	0.300	-0.370	-0.170
2020/01/31 13:54:28.9	354.520	0.300	-0.360	-0.130
2020/01/31 13:54:29.0	354.540	0.300	-0.360	-0.100
2020/01/31 13:54:29.1	354.570	0.300	-0.350	-0.070
2020/01/31 13:54:29.2	354.590	0.290	-0.350	-0.040
2020/01/31 13:54:29.3	354.620	0.290	-0.350	-0.010
2020/01/31 13:54:29.4	354.650	0.290	-0.350	0.020
2020/01/31 13:54:29.5	354.670	0.290	-0.350	0.050
2020/01/31 13:54:29.6	354.710	0.290	-0.360	0.070
2020/01/31 13:54:29.7	354.740	0.290	-0.360	0.090
2020/01/31 13:54:29.8	354.770	0.290	-0.370	0.120
2020/01/31 13:54:29.9	354.800	0.290	-0.380	0.130
2020/01/31 13:54:30.0	354.830	0.290	-0.390	0.150
2020/01/31 13:54:30.1	354.870	0.290	-0.400	0.160
2020/01/31 13:54:30.2	354.910	0.290	-0.420	0.170
2020/01/31 13:54:30.3	354.950	0.290	-0.430	0.180
2020/01/31 13:54:30.4	354.980	0.290	-0.450	0.190
2020/01/31 13:54:30.5	355.030	0.290	-0.470	0.190
2020/01/31 13:54:30.6	355.080	0.300	-0.490	0.200
2020/01/31 13:54:30.7	355.120	0.300	-0.510	0.200
2020/01/31 13:54:30.8	355.170	0.300	-0.530	0.200
2020/01/31 13:54:30.9	355.220	0.300	-0.550	0.200
2020/01/31 13:54:31.0	355.270	0.300	-0.570	0.190
2020/01/31 13:54:31.1	355.320	0.300	-0.590	0.190
2020/01/31 13:54:31.2	355.370	0.310	-0.610	0.190
2020/01/31 13:54:31.3	355.420	0.310	-0.630	0.180
2020/01/31 13:54:31.4	355.480	0.310	-0.650	0.170
2020/01/31 13:54:31.5	355.530	0.310	-0.670	0.160
2020/01/31 13:54:31.6	355.610	0.310	-0.690	0.150
2020/01/31 13:54:31.7	355.670	0.300	-0.700	0.140
2020/01/31 13:54:31.8	355.730	0.300	-0.720	0.120
2020/01/31 13:54:31.9	355.790	0.300	-0.730	0.100
2020/01/31 13:54:32.0	355.850	0.290	-0.740	0.080
2020/01/31 13:54:32.1	355.910	0.280	-0.750	0.050
2020/01/31 13:54:32.2	355.970	0.270	-0.750	0.030
2020/01/31 13:54:32.3	356.040	0.260	-0.750	-0.000
2020/01/31 13:54:32.4	356.100	0.250	-0.750	-0.030
2020/01/31 13:54:32.5	356.160	0.240	-0.750	-0.070
2020/01/31 13:54:32.6	356.240	0.220	-0.750	-0.100
2020/01/31 13:54:32.7	356.300	0.200	-0.740	-0.130
2020/01/31 13:54:32.8	356.360	0.180	-0.720	-0.170
2020/01/31 13:54:32.9	356.410	0.150	-0.710	-0.210
2020/01/31 13:54:33.0	356.470	0.130	-0.690	-0.240
2020/01/31 13:54:33.1	356.520	0.100	-0.670	-0.280
2020/01/31 13:54:33.2	356.570	0.070	-0.640	-0.310
2020/01/31 13:54:33.3	356.620	0.040	-0.610	-0.350
2020/01/31 13:54:33.4	356.660	0.010	-0.580	-0.380
2020/01/31 13:54:33.5	356.700	-0.020	-0.550	-0.410
2020/01/31 13:54:33.6	356.750	-0.060	-0.510	-0.440
2020/01/31 13:54:33.7	356.790	-0.090	-0.470	-0.470
2020/01/31 13:54:33.8	356.830	-0.130	-0.430	-0.490
2020/01/31 13:54:33.9	356.860	-0.160	-0.380	-0.520
2020/01/31 13:54:34.0	356.900	-0.200	-0.330	-0.550
2020/01/31 13:54:34.1	356.930	-0.230	-0.280	-0.570
2020/01/31 13:54:34.2	356.960	-0.260	-0.220	-0.600
2020/01/31 13:54:34.3	356.980	-0.300	-0.170	-0.620
2020/01/31 13:54:34.4	357.010	-0.330	-0.110	-0.650
2020/01/31 13:54:34.5	357.040	-0.360	-0.050	-0.670
2020/01/31 13:54:34.6	357.070	-0.390	0.010	-0.700
2020/01/31 13:54:34.7	357.090	-0.410	0.070	-0.730
2020/01/31 13:54:34.8	357.110	-0.440	0.120	-0.750
2020/01/31 13:54:34.9	357.130	-0.460	0.180	-0.780
2020/01/31 13:54:35.0	357.150	-0.480	0.230	-0.800
2020/01/31 13:54:35.1	357.160	-0.490	0.280	-0.820
2020/01/31 13:54:35.2	357.180	-0.500	0.330	-0.840
2020/01/31 13:54:35.3	357.190	-0.510	0.380	-0.860
2020/01/31 13:54:35.4	357.200	-0.520	0.420	-0.880
2020/01/31 13:54:35.5	357.210	-0.520	0.460	-0.890
2020/01/31 13:54:35.6	357.220	-0.520	0.500	-0.900
2020/01/31 13:54:35.7	357.220	-0.510	0.530	-0.910
2020/01/31 13:54:35.8	357.230	-0.500	0.560	-0.920
2020/01/31 13:54:35.9	357.230	-0.490	0.580	-0.920
2020/01/31 13:54:36.0	357.230	-0.470	0.600	-0.920
2020/01/31 13:54:36.1	357.220	-0.450	0.610	-0.920
2020/01/31 13:54:36.2	357.220	-0.430	0.620	-0.920
2020/01/31 13:54:36.3	357.210	-0.400	0.620	-0.920
2020/01/31 13:54:36.4	357.210	-0.380	0.620	-0.910
2020/01/31 13:54:36.5	357.200	-0.340	0.610	-0.900
2020/01/31 13:54:36.6	357.190	-0.310	0.600	-0.890
2020/01/31 13:54:36.7	357.180	-0.280	0.590	-0.880
2020/01/31 13:54:36.8	357.170	-0.240	0.560	-0.870
2020/01/31 13:54:36.9	357.170	-0.210	0.540	-0.860
2020/01/31 13:54:37.0	357.160	-0.170	0.510	-0.850
2020/01/31 13:54:37.1	357.160	-0.130	0.470	-0.840
2020/01/31 13:54:37.2	357.150	-0.090	0.430	-0.830
2020/01/31 13:54:37.3	357.150	-0.060	0.380	-0.820
2020/01/31 13:54:37.4	357.150	-0.020	0.340	-0.810
2020/01/31 13:54:37.5	357.150	0.020	0.280	-0.810
2020/01/31 13:54:37.6	357.150	0.050	0.230	-0.800
2020/01/31 13:54:37.7	357.150	0.080	0.170	-0.790
2020/01/31 13:54:37.8	357.160	0.120	0.110	-0.790
2020/01/31 13:54:37.9	357.170	0.150	0.040	-0.790
2020/01/31 13:54:38.0	357.180	0.170	-0.020	-0.790
2020/01/31 13:54:38.1	357.190	0.200	-0.090	-0.790
2020/01/31 13:54:38.2	357.210	0.220	-0.150	-0.800
2020/01/31 13:54:38.3	357.220	0.240	-0.220	-0.800
2020/01/31 13:54:38.4	357.240	0.260	-0.280	-0.810
2020/01/31 13:54:38.5	357.260	0.270	-0.350	-0.810
2020/01/31 13:54:38.6	357.290	0.280	-0.410	-0.820
2020/01/31 13:54:38.7	357.310	0.290	-0.470	-0.820
2020/01/31 13:54:38.8	357.330	0.300	-0.520	-0.830
2020/01/31 13:54:38.9	357.350	0.300	-0.570	-0.840
2020/01/31 13:54:39.0	357.370	0.300	-0.620	-0.850
2020/01/31 13:54:39.1	357.390	0.300	-0.660	-0.850
2020/01/31 13:54:39.2	357.410	0.290	-0.690	-0.860
2020/01/31 13:54:39.3	357.430	0.280	-0.720	-0.870
2020/01/31 13:54:39.4	357.450	0.270	-0.750	-0.870
2020/01/31 13:54:39.5	357.470	0.260	-0.760	-0.880
2020/01/31 13:54:39.6	357.510	0.250	-0.770	-0.880
2020/01/31 13:54:39.7	357.530	0.230	-0.780	-0.890
2020/01/31 13:54:39.8	357.550	0.210	-0.780	-0.890
2020/01/31 13:54:39.9	357.570	0.200	-0.780	-0.900
2020/01/31 13:54:40.0	357.590	0.180	-0.760	-0.900
2020/01/31 13:54:40.1	357.620	0.160	-0.750	-0.900
2020/01/31 13:54:40.2	357.640	0.140	-0.730	-0.900
2020/01/31 13:54:40.3	357.660	0.120	-0.710	-0.900
2020/01/31 13:54:40.4	357.680	0.100	-0.690	-0.900
2020/01/31 13:54:40.5	357.700	0.090	-0.660	-0.900
2020/01/31 13:54:40.6	357.730	0.070	-0.630	-0.880
2020/01/31 13:54:40.7	357.750	0.050	-0.600	-0.880
2020/01/31 13:54:40.8	357.770	0.040	-0.580	-0.880
2020/01/31 13:54:40.9	357.790	0.030	-0.550	-0.870
2020/01/31 13:54:41.0	357.820	0.020	-0.520	-0.860
2020/01/31 13:54:41.1	357.840	0.010	-0.500	-0.850
2020/01/31 13:54:41.2	357.870	0.000	-0.470	-0.840
2020/01/31 13:54:41.3	357.890	-0.000	-0.450	-0.830
2020/01/31 13:54:41.4	357.920	-0.000	-0.440	-0.820
2020/01/31 13:54:41.5	357.940	-0.010	-0.420	-0.800
2020/01/31 13:54:41.6	357.970	-0.000	-0.410	-0.780
2020/01/31 13:54:41.7	358.000	-0.000	-0.410	-0.770
2020/01/31 13:54:41.8	358.030	0.000	-0.400	-0.750
2020/01/31 13:54:41.9	358.050	0.010	-0.400	-0.730
2020/01/31 13:54:42.0	358.080	0.020	-0.400	-0.720
2020/01/31 13:54:42.1	358.110	0.030	-0.410	-0.700
2020/01/31 13:54:42.2	358.140	0.040	-0.420	-0.680
2020/01/31 13:54:42.3	358.170	0.050	-0.430	-0.660
2020/01/31 13:54:42.4	358.200	0.060	-0.440	-0.640
2020/01/31 13:54:42.5	358.220	0.070	-0.450	-0.620
2020/01/31 13:54:42.6	358.260	0.080	-0.470	-0.600
2020/01/31 13:54:42.7	358.290	0.100	-0.480	-0.580
2020/01/31 13:54:42.8	358.310	0.110	-0.500	-0.560
2020/01/31 13:54:42.9	358.350	0.120	-0.510	-0.540
2020/01/31 13:54:43.0	358.380	0.130	-0.520	-0.520
2020/01/31 13:54:43.1	358.410	0.140	-0.530	-0.510
2020/01/31 13:54:43.2	358.440	0.150	-0.540	-0.490
2020/01/31 13:54:43.3	358.470	0.160	-0.540	-0.470
2020/01/31 13:54:43.4	358.500	0.160	-0.540	-0.450
2020/01/31 13:54:43.5	358.530	0.170	-0.540	-0.430
2020/01/31 13:54:43.6	358.570	0.170	-0.540	-0.410
2020/01/31 13:54:43.7	358.600	0.170	-0.530	-0.390
2020/01/31 13:54:43.8	358.630	0.180	-0.510	-0.360
2020/01/31 13:54:43.9	358.660	0.170	-0.490	-0.340
2020/01/31 13:54:44.0	358.690	0.170	-0.470	-0.320
2020/01/31 13:54:44.1	358.730	0.170	-0.440	-0.290
2020/01/31 13:54:44.2	358.760	0.160	-0.410	-0.270
2020/01/31 13:54:44.3	358.790	0.160	-0.380	-0.240
2020/01/31 13:54:44.4	358.820	0.150	-0.340	-0.220
2020/01/31 13:54:44.5	358.850	0.140	-0.300	-0.190
2020/01/31 13:54:44.6	358.880	0.130	-0.260	-0.160
2020/01/31 13:54:44.7	358.910	0.110	-0.220	-0.130
2020/01/31 13:54:44.8	358.930	0.100	-0.170	-0.100
2020/01/31 13:54:44.9	358.960	0.080	-0.120	-0.070
2020/01/31 13:54:45.0	358.980	0.060	-0.070	-0.040
2020/01/31 13:54:45.1	359.000	0.040	-0.030	-0.020
2020/01/31 13:54:45.2	359.030	0.010	0.020	0.010
2020/01/31 13:54:45.3	359.050	-0.010	0.070	0.030
2020/01/31 13:54:45.4	359.070	-0.030	0.120	0.060
2020/01/31 13:54:45.5	359.080	-0.060	0.160	0.080
2020/01/31 13:54:45.6	359.120	-0.090	0.200	0.100
2020/01/31 13:54:45.7	359.140	-0.110	0.240	0.120
2020/01/31 13:54:45.8	359.160	-0.140	0.270	0.130
2020/01/31 13:54:45.9	359.170	-0.160	0.300	0.150
2020/01/31 13:54:46.0	359.190	-0.190	0.320	0.160
2020/01/31 13:54:46.1	359.210	-0.210	0.350	0.170
2020/01/31 13:54:46.2	359.240	-0.240	0.360	0.180
2020/01/31 13:54:46.3	359.260	-0.260	0.370	0.180
2020/01/31 13:54:46.4	359.280	-0.280	0.380	0.180
2020/01/31 13:54:46.5	359.300	-0.300	0.380	0.190
2020/01/31 13:54:46.6	359.330	-0.320	0.380	0.180
2020/01/31 13:54:46.7	359.350	-0.330	0.370	0.180
2020/01/31 13:54:46.8	359.380	-0.350	0.350	0.170
2020/01/31 13:54:46.9	359.410	-0.360	0.340	0.160
2020/01/31 13:54:47.0	359.440	-0.360	0.310	0.140
2020/01/31 13:54:47.1	359.470	-0.370	0.280	0.130
2020/01/31 13:54:47.2	359.500	-0.370	0.250	0.100
2020/01/31 13:54:47.3	359.530	-0.360	0.210	0.080
2020/01/31 13:54:47.4	359.570	-0.360	0.170	0.050
2020/01/31 13:54:47.5	359.610	-0.350	0.130	0.020
2020/01/31 13:54:47.6	359.650	-0.340	0.080	-0.020
2020/01/31 13:54:47.7	359.690	-0.320	0.030	-0.060
2020/01/31 13:54:47.8	359.740	-0.300	-0.020	-0.090
2020/01/31 13:54:47.9	359.780	-0.280	-0.070	-0.140
2020/01/31 13:54:48.0	359.820	-0.260	-0.130	-0.180
2020/01/31 13:54:48.1	359.870	-0.230	-0.180	-0.220
2020/01/31 13:54:48.2	359.920	-0.200	-0.230	-0.270
2020/01/31 13:54:48.3	359.960	-0.170	-0.280	-0.310
2020/01/31 13:54:48.4	0.010	-0.140	-0.320	-0.350
2020/01/31 13:54:48.5	0.050	-0.110	-0.370	-0.390
2020/01/31 13:54:48.6	0.090	-0.070	-0.410	-0.430
2020/01/31 13:54:48.7	0.130	-0.040	-0.440	-0.470
2020/01/31 13:54:48.8	0.170	-0.010	-0.470	-0.500
2020/01/31 13:54:48.9	0.210	0.020	-0.500	-0.540
2020/01/31 13:54:49.0	0.240	0.050	-0.520	-0.570
2020/01/31 13:54:49.1	0.270	0.080	-0.530	-0.600
2020/01/31 13:54:49.2	0.300	0.110	-0.540	-0.620
2020/01/31 13:54:49.3	0.330	0.130	-0.540	-0.650
2020/01/31 13:54:49.4	0.350	0.150	-0.530	-0.670
2020/01/31 13:54:49.5	0.370	0.170	-0.520	-0.680
2020/01/31 13:54:49.6	0.390	0.190	-0.500	-0.690
2020/01/31 13:54:49.7	0.400	0.200	-0.470	-0.700
2020/01/31 13:54:49.8	0.410	0.210	-0.440	-0.710
2020/01/31 13:54:49.9	0.420	0.220	-0.410	-0.720
2020/01/31 13:54:50.0	0.420	0.220	-0.370	-0.720
2020/01/31 13:54:50.1	0.420	0.220	-0.320	-0.710
2020/01/31 13:54:50.2	0.410	0.220	-0.270	-0.710
2020/01/31 13:54:50.3	0.400	0.210	-0.220	-0.700
2020/01/31 13:54:50.4	0.390	0.200	-0.170	-0.690
2020/01/31 13:54:50.5	0.370	0.190	-0.120	-0.680
2020/01/31 13:54:50.6	0.340	0.170	-0.070	-0.660
2020/01/31 13:54:50.7	0.320	0.150	-0.010	-0.640
2020/01/31 13:54:50.8	0.290	0.130	0.040	-0.630
2020/01/31 13:54:50.9	0.260	0.110	0.100	-0.610
2020/01/31 13:54:51.0	0.230	0.090	0.150	-0.590
2020/01/31 13:54:51.1	0.190	0.070	0.190	-0.570
2020/01/31 13:54:51.2	0.160	0.040	0.230	-0.550
2020/01/31 13:54:51.3	0.120	0.020	0.270	-0.540
2020/01/31 13:54:51.4	0.090	-0.000	0.300	-0.520
2020/01/31 13:54:51.5	0.050	-0.020	0.330	-0.500
2020/01/31 13:54:51.6	0.020	-0.040	0.350	-0.490
2020/01/31 13:54:51.7	359.990	-0.060	0.360	-0.470
2020/01/31 13:54:51.8	359.960	-0.080	0.360	-0.460
2020/01/31 13:54:51.9	359.930	-0.090	0.360	-0.460
2020/01/31 13:54:52.0	359.910	-0.100	0.350	-0.450
2020/01/31 13:54:52.1	359.880	-0.100	0.330	-0.450
2020/01/31 13:54:52.2	359.870	-0.110	0.300	-0.450
2020/01/31 13:54:52.3	359.850	-0.100	0.260	-0.450
2020/01/31 13:54:52.4	359.840	-0.100	0.220	-0.460
2020/01/31 13:54:52.5	359.840	-0.090	0.170	-0.470
2020/01/31 13:54:52.6	359.830	-0.070	0.110	-0.480
2020/01/31 13:54:52.7	359.840	-0.050	0.040	-0.500
2020/01/31 13:54:52.8	359.840	-0.030	-0.030	-0.520
2020/01/31 13:54:52.9	359.860	-0.010	-0.110	-0.540
2020/01/31 13:54:53.0	359.880	0.030	-0.200	-0.570
2020/01/31 13:54:53.1	359.900	0.060	-0.280	-0.600
2020/01/31 13:54:53.2	359.920	0.100	-0.380	-0.630
2020/01/31 13:54:53.3	359.950	0.140	-0.470	-0.670
2020/01/31 13:54:53.4	359.990	0.180	-0.570	-0.710
2020/01/31 13:54:53.5	0.030	0.220	-0.660	-0.750
2020/01/31 13:54:53.6	0.080	0.270	-0.760	-0.790
2020/01/31 13:54:53.7	0.120	0.320	-0.850	-0.840
2020/01/31 13:54:53.8	0.170	0.360	-0.940	-0.880
2020/01/31 13:54:53.9	0.220	0.410	-1.020	-0.920
2020/01/31 13:54:54.0	0.280	0.450	-1.100	-0.970
2020/01/31 13:54:54.1	0.340	0.500	-1.180	-1.010
2020/01/31 13:54:54.2	0.400	0.540	-1.250	-1.050
2020/01/31 13:54:54.3	0.460	0.580	-1.310	-1.090
2020/01/31 13:54:54.4	0.520	0.620	-1.360	-1.130
2020/01/31 13:54:54.5	0.590	0.650	-1.400	-1.160
2020/01/31 13:54:54.6	0.660	0.680	-1.440	-1.200
2020/01/31 13:54:54.7	0.720	0.700	-1.460	-1.230
2020/01/31 13:54:54.8	0.790	0.720	-1.470	-1.250
2020/01/31 13:54:54.9	0.860	0.730	-1.470	-1.280
2020/01/31 13:54:55.0	0.920	0.740	-1.460	-1.300
2020/01/31 13:54:55.1	0.990	0.740	-1.440	-1.310
2020/01/31 13:54:55.2	1.050	0.730	-1.400	-1.330
2020/01/31 13:54:55.3	1.120	0.720	-1.360	-1.340
2020/01/31 13:54:55.4	1.180	0.700	-1.310	-1.340
2020/01/31 13:54:55.5	1.240	0.670	-1.250	-1.350
2020/01/31 13:54:55.6	1.290	0.630	-1.180	-1.340
2020/01/31 13:54:55.7	1.350	0.590	-1.100	-1.330
2020/01/31 13:54:55.8	1.400	0.550	-1.010	-1.330
2020/01/31 13:54:55.9	1.450	0.490	-0.910	-1.320
2020/01/31 13:54:56.0	1.490	0.430	-0.810	-1.310
2020/01/31 13:54:56.1	1.540	0.370	-0.710	-1.300
2020/01/31 13:54:56.2	1.580	0.300	-0.600	-1.280
2020/01/31 13:54:56.3	1.620	0.230	-0.490	-1.260
2020/01/31 13:54:56.4	1.660	0.150	-0.380	-1.240
2020/01/31 13:54:56.5	1.690	0.080	-0.260	-1.220
2020/01/31 13:54:56.6	1.720	-0.000	-0.150	-1.190
2020/01/31 13:54:56.7	1.750	-0.090	-0.040	-1.170
2020/01/31 13:54:56.8	1.780	-0.170	0.070	-1.140
2020/01/31 13:54:56.9	1.800	-0.250	0.180	-1.110
2020/01/31 13:54:57.0	1.830	-0.330	0.280	-1.080
2020/01/31 13:54:57.1	1.850	-0.410	0.380	-1.050
2020/01/31 13:54:57.2	1.880	-0.490	0.470	-1.020
2020/01/31 13:54:57.3	1.900	-0.560	0.560	-1.000
2020/01/31 13:54:57.4	1.920	-0.630	0.640	-0.970
2020/01/31 13:54:57.5	1.950	-0.690	0.700	-0.940
2020/01/31 13:54:57.6	1.970	-0.750	0.760	-0.910
2020/01/31 13:54:57.7	2.000	-0.810	0.810	-0.880
2020/01/31 13:54:57.8	2.020	-0.860	0.860	-0.860
2020/01/31 13:54:57.9	2.040	-0.900	0.890	-0.830
2020/01/31 13:54:58.0	2.060	-0.940	0.910	-0.810
2020/01/31 13:54:58.1	2.080	-0.970	0.920	-0.790
2020/01/31 13:54:58.2	2.100	-0.990	0.920	-0.770
2020/01/31 13:54:58.3	2.120	-1.010	0.910	-0.750
2020/01/31 13:54:58.4	2.140	-1.020	0.900	-0.740
2020/01/31 13:54:58.5	2.160	-1.020	0.880	-0.730
2020/01/31 13:54:58.6	2.170	-1.020	0.850	-0.710
2020/01/31 13:54:58.7	2.190	-1.010	0.810	-0.710
2020/01/31 13:54:58.8	2.200	-0.990	0.770	-0.700
2020/01/31 13:54:58.9	2.210	-0.970	0.720	-0.690
2020/01/31 13:54:59.0	2.210	-0.950	0.670	-0.690
2020/01/31 13:54:59.1	2.220	-0.920	0.610	-0.680
2020/01/31 13:54:59.2	2.220	-0.880	0.550	-0.680
2020/01/31 13:54:59.3	2.210	-0.840	0.490	-0.670
2020/01/31 13:54:59.4	2.210	-0.790	0.420	-0.670
2020/01/31 13:54:59.5	2.200	-0.750	0.360	-0.660
2020/01/31 13:54:59.6	2.180	-0.690	0.290	-0.660
2020/01/31 13:54:59.7	2.170	-0.640	0.230	-0.650
2020/01/31 13:54:59.8	2.150	-0.580	0.160	-0.640
2020/01/31 13:54:59.9	2.130	-0.530	0.100	-0.630
2020/01/31 13:55:00.0	2.100	-0.470	0.040	-0.620
2020/01/31 13:55:00.1	2.070	-0.410	-0.020	-0.600
2020/01/31 13:55:00.2	2.040	-0.350	-0.070	-0.590
2020/01/31 13:55:00.3	2.000	-0.290	-0.120	-0.570
2020/01/31 13:55:00.4	1.950	-0.240	-0.160	-0.550
2020/01/31 13:55:00.5	1.910	-0.180	-0.200	-0.530
2020/01/31 13:55:00.6	1.860	-0.130	-0.240	-0.510
2020/01/31 13:55:00.7	1.800	-0.080	-0.260	-0.490
2020/01/31 13:55:00.8	1.750	-0.030	-0.290	-0.460
2020/01/31 13:55:00.9	1.690	0.020	-0.310	-0.440
2020/01/31 13:55:01.0	1.640	0.070	-0.320	-0.410
2020/01/31 13:55:01.1	1.580	0.110	-0.330	-0.380
2020/01/31 13:55:01.2	1.520	0.150	-0.340	-0.360
2020/01/31 13:55:01.3	1.460	0.190	-0.340	-0.330
2020/01/31 13:55:01.4	1.400	0.220	-0.340	-0.300
2020/01/31 13:55:01.5	1.340	0.250	-0.340	-0.270
2020/01/31 13:55:01.6	1.290	0.280	-0.330	-0.250
2020/01/31 13:55:01.7	1.240	0.310	-0.320	-0.220
2020/01/31 13:55:01.8	1.190	0.340	-0.320	-0.190
2020/01/31 13:55:01.9	1.140	0.360	-0.310	-0.160
2020/01/31 13:55:02.0	1.100	0.390	-0.300	-0.140
2020/01/31 13:55:02.1	1.060	0.410	-0.300	-0.110
2020/01/31 13:55:02.2	1.020	0.430	-0.290	-0.090
2020/01/31 13:55:02.3	1.000	0.450	-0.290	-0.070
2020/01/31 13:55:02.4	0.970	0.470	-0.290	-0.050
2020/01/31 13:55:02.5	0.960	0.490	-0.290	-0.040
2020/01/31 13:55:02.6	0.950	0.510	-0.300	-0.030
2020/01/31 13:55:02.7	0.950	0.530	-0.310	-0.020
2020/01/31 13:55:02.8	0.950	0.550	-0.330	-0.020
2020/01/31 13:55:02.9	0.950	0.570	-0.350	-0.030
2020/01/31 13:55:03.0	0.970	0.580	-0.370	-0.030
2020/01/31 13:55:03.1	0.980	0.600	-0.390	-0.040
2020/01/31 13:55:03.2	1.010	0.610	-0.420	-0.060
2020/01/31 13:55:03.3	1.040	0.630	-0.450	-0.080
2020/01/31 13:55:03.4	1.070	0.640	-0.480	-0.100
2020/01/31 13:55:03.5	1.110	0.650	-0.520	-0.120
2020/01/31 13:55:03.6	1.160	0.660	-0.560	-0.150
2020/01/31 13:55:03.7	1.210	0.660	-0.600	-0.180
2020/01/31 13:55:03.8	1.260	0.670	-0.640	-0.220
2020/01/31 13:55:03.9	1.320	0.670	-0.680	-0.250
2020/01/31 13:55:04.0	1.370	0.670	-0.710	-0.290
2020/01/31 13:55:04.1	1.440	0.670	-0.750	-0.330
2020/01/31 13:55:04.2	1.500	0.670	-0.790	-0.370
2020/01/31 13:55:04.3	1.570	0.660	-0.820	-0.410
2020/01/31 13:55:04.4	1.640	0.650	-0.850	-0.450
2020/01/31 13:55:04.5	1.710	0.640	-0.880	-0.490
2020/01/31 13:55:04.6	1.770	0.630	-0.900	-0.530
2020/01/31 13:55:04.7	1.840	0.610	-0.920	-0.570
2020/01/31 13:55:04.8	1.910	0.590	-0.940	-0.610
2020/01/31 13:55:04.9	1.980	0.560	-0.950	-0.650
2020/01/31 13:55:05.0	2.040	0.540	-0.960	-0.680
2020/01/31 13:55:05.1	2.110	0.510	-0.960	-0.720
2020/01/31 13:55:05.2	2.170	0.480	-0.950	-0.740
2020/01/31 13:55:05.3	2.220	0.450	-0.940	-0.770
2020/01/31 13:55:05.4	2.280	0.410	-0.920	-0.800
2020/01/31 13:55:05.5	2.330	0.370	-0.890	-0.820
2020/01/31 13:55:05.6	2.380	0.330	-0.870	-0.830
2020/01/31 13:55:05.7	2.420	0.290	-0.830	-0.850
2020/01/31 13:55:05.8	2.460	0.250	-0.790	-0.870
2020/01/31 13:55:05.9	2.490	0.210	-0.750	-0.880
2020/01/31 13:55:06.0	2.520	0.160	-0.700	-0.890
2020/01/31 13:55:06.1	2.550	0.120	-0.650	-0.900
2020/01/31 13:55:06.2	2.570	0.070	-0.590	-0.900
2020/01/31 13:55:06.3	2.590	0.030	-0.530	-0.910
2020/01/31 13:55:06.4	2.600	-0.020	-0.480	-0.920
2020/01/31 13:55:06.5	2.620	-0.060	-0.420	-0.920
2020/01/31 13:55:06.6	2.630	-0.110	-0.350	-0.930
2020/01/31 13:55:06.7	2.640	-0.150	-0.290	-0.930
2020/01/31 13:55:06.8	2.650	-0.190	-0.230	-0.940
2020/01/31 13:55:06.9	2.650	-0.230	-0.170	-0.950
2020/01/31 13:55:07.0	2.660	-0.260	-0.120	-0.950
2020/01/31 13:55:07.1	2.670	-0.300	-0.060	-0.960
2020/01/31 13:55:07.2	2.670	-0.330	-0.010	-0.980
2020/01/31 13:55:07.3	2.670	-0.360	0.040	-0.990
2020/01/31 13:55:07.4	2.680	-0.390	0.090	-1.000
2020/01/31 13:55:07.5	2.680	-0.410	0.130	-1.020
2020/01/31 13:55:07.6	2.690	-0.440	0.170	-1.030
2020/01/31 13:55:07.7	2.690	-0.450	0.200	-1.050
2020/01/31 13:55:07.8	2.690	-0.470	0.230	-1.060
2020/01/31 13:55:07.9	2.700	-0.480	0.260	-1.080
2020/01/31 13:55:08.0	2.700	-0.490	0.290	-1.090
2020/01/31 13:55:08.1	2.700	-0.500	0.310	-1.110
2020/01/31 13:55:08.2	2.700	-0.500	0.330	-1.120
2020/01/31 13:55:08.3	2.700	-0.500	0.340	-1.130
2020/01/31 13:55:08.4	2.690	-0.500	0.360	-1.140
2020/01/31 13:55:08.5	2.690	-0.490	0.370	-1.140
2020/01/31 13:55:08.6	2.670	-0.490	0.380	-1.150
2020/01/31 13:55:08.7	2.660	-0.480	0.390	-1.150
2020/01/31 13:55:08.8	2.640	-0.470	0.390	-1.140
2020/01/31 13:55:08.9	2.620	-0.450	0.400	-1.140
2020/01/31 13:55:09.0	2.600	-0.440	0.400	-1.130
2020/01/31 13:55:09.1	2.580	-0.430	0.400	-1.120
2020/01/31 13:55:09.2	2.550	-0.410	0.410	-1.110
2020/01/31 13:55:09.3	2.520	-0.400	0.410	-1.100
2020/01/31 13:55:09.4	2.490	-0.380	0.410	-1.080
2020/01/31 13:55:09.5	2.460	-0.370	0.400	-1.060
2020/01/31 13:55:09.6	2.430	-0.350	0.400	-1.040
2020/01/31 13:55:09.7	2.400	-0.330	0.390	-1.020
2020/01/31 13:55:09.8	2.360	-0.320	0.390	-1.000
2020/01/31 13:55:09.9	2.330	-0.300	0.380	-0.970
2020/01/31 13:55:10.0	2.290	-0.290	0.370	-0.950
2020/01/31 13:55:10.1	2.260	-0.270	0.360	-0.920
2020/01/31 13:55:10.2	2.230	-0.260	0.350	-0.900
2020/01/31 13:55:10.3	2.200	-0.240	0.330	-0.870
2020/01/31 13:55:10.4	2.170	-0.230	0.320	-0.840
2020/01/31 13:55:10.5	2.140	-0.220	0.290	-0.810
2020/01/31 13:55:10.6	2.120	-0.200	0.270	-0.780
2020/01/31 13:55:10.7	2.100	-0.190	0.240	-0.750
2020/01/31 13:55:10.8	2.080	-0.170	0.200	-0.720
2020/01/31 13:55:10.9	2.070	-0.160	0.170	-0.690
2020/01/31 13:55:11.0	2.060	-0.140	0.130	-0.660
2020/01/31 13:55:11.1	2.050	-0.130	0.090	-0.640
2020/01/31 13:55:11.2	2.050	-0.110	0.040	-0.610
2020/01/31 13:55:11.3	2.060	-0.100	-0.010	-0.580
2020/01/31 13:55:11.4	2.060	-0.080	-0.060	-0.560
2020/01/31 13:55:11.5	2.070	-0.060	-0.110	-0.540
2020/01/31 13:55:11.6	2.080	-0.050	-0.160	-0.510
2020/01/31 13:55:11.7	2.090	-0.030	-0.220	-0.490
2020/01/31 13:55:11.8	2.110	-0.010	-0.270	-0.470
2020/01/31 13:55:11.9	2.130	0.010	-0.330	-0.450
2020/01/31 13:55:12.0	2.150	0.030	-0.380	-0.430
2020/01/31 13:55:12.1	2.170	0.050	-0.430	-0.410
2020/01/31 13:55:12.2	2.200	0.070	-0.480	-0.390
2020/01/31 13:55:12.3	2.220	0.080	-0.530	-0.370
2020/01/31 13:55:12.4	2.250	0.110	-0.580	-0.350
2020/01/31 13:55:12.5	2.280	0.130	-0.620	-0.330
2020/01/31 13:55:12.6	2.300	0.150	-0.660	-0.310
2020/01/31 13:55:12.7	2.330	0.170	-0.700	-0.290
2020/01/31 13:55:12.8	2.360	0.190	-0.730	-0.260
2020/01/31 13:55:12.9	2.390	0.210	-0.750	-0.230
2020/01/31 13:55:13.0	2.420	0.230	-0.780	-0.200
2020/01/31 13:55:13.1	2.450	0.250	-0.790	-0.160
2020/01/31 13:55:13.2	2.490	0.280	-0.800	-0.130
2020/01/31 13:55:13.3	2.520	0.300	-0.810	-0.090
2020/01/31 13:55:13.4	2.550	0.320	-0.810	-0.050
2020/01/31 13:55:13.5	2.580	0.340	-0.800	-0.000
2020/01/31 13:55:13.6	2.620	0.360	-0.800	0.050
2020/01/31 13:55:13.7	2.650	0.380	-0.780	0.090
2020/01/31 13:55:13.8	2.690	0.390	-0.770	0.140
2020/01/31 13:55:13.9	2.720	0.410	-0.750	0.180
2020/01/31 13:55:14.0	2.760	0.420	-0.720	0.220
2020/01/31 13:55:14.1	2.790	0.430	-0.690	0.270
2020/01/31 13:55:14.2	2.830	0.440	-0.660	0.310
2020/01/31 13:55:14.3	2.870	0.450	-0.630	0.340
2020/01/31 13:55:14.4	2.910	0.450	-0.600	0.380
2020/01/31 13:55:14.5	2.950	0.460	-0.560	0.410
2020/01/31 13:55:14.6	2.980	0.450	-0.530	0.440
2020/01/31 13:55:14.7	3.020	0.450	-0.490	0.470
2020/01/31 13:55:14.8	3.060	0.440	-0.450	0.490
2020/01/31 13:55:14.9	3.100	0.430	-0.420	0.510
2020/01/31 13:55:15.0	3.140	0.420	-0.380	0.520
2020/01/31 13:55:15.1	3.180	0.400	-0.340	0.530
2020/01/31 13:55:15.2	3.220	0.380	-0.310	0.540
2020/01/31 13:55:15.3	3.250	0.360	-0.280	0.540
2020/01/31 13:55:15.4	3.290	0.340	-0.250	0.540
2020/01/31 13:55:15.5	3.320	0.310	-0.220	0.540
2020/01/31 13:55:15.6	3.350	0.280	-0.190	0.540
2020/01/31 13:55:15.7	3.380	0.250	-0.160	0.530
2020/01/31 13:55:15.8	3.410	0.210	-0.140	0.520
2020/01/31 13:55:15.9	3.430	0.170	-0.120	0.510
2020/01/31 13:55:16.0	3.450	0.130	-0.100	0.490
2020/01/31 13:55:16.1	3.470	0.090	-0.090	0.480
2020/01/31 13:55:16.2	3.480	0.050	-0.080	0.460
2020/01/31 13:55:16.3	3.490	0.010	-0.060	0.440
2020/01/31 13:55:16.4	3.500	-0.040	-0.060	0.410
2020/01/31 13:55:16.5	3.510	-0.080	-0.050	0.390
2020/01/31 13:55:16.6	3.520	-0.120	-0.050	0.360
2020/01/31 13:55:16.7	3.530	-0.170	-0.050	0.320
2020/01/31 13:55:16.8	3.540	-0.210	-0.060	0.280
2020/01/31 13:55:16.9	3.540	-0.250	-0.070	0.240
2020/01/31 13:55:17.0	3.550	-0.290	-0.080	0.190
2020/01/31 13:55:17.1	3.550	-0.330	-0.090	0.130
2020/01/31 13:55:17.2	3.560	-0.360	-0.100	0.080
2020/01/31 13:55:17.3	3.560	-0.400	-0.120	0.010
2020/01/31 13:55:17.4	3.570	-0.430	-0.140	-0.050
2020/01/31 13:55:17.5	3.570	-0.450	-0.160	-0.130
2020/01/31 13:55:17.6	3.570	-0.480	-0.180	-0.200
2020/01/31 13:55:17.7	3.570	-0.490	-0.200	-0.280
2020/01/31 13:55:17.8	3.580	-0.510	-0.220	-0.370
2020/01/31 13:55:17.9	3.590	-0.520	-0.250	-0.450
2020/01/31 13:55:18.0	3.590	-0.530	-0.270	-0.530
2020/01/31 13:55:18.1	3.600	-0.530	-0.290	-0.610
2020/01/31 13:55:18.2	3.610	-0.530	-0.310	-0.700
2020/01/31 13:55:18.3	3.610	-0.520	-0.330	-0.780
2020/01/31 13:55:18.4	3.620	-0.510	-0.350	-0.860
2020/01/31 13:55:18.5	3.630	-0.500	-0.360	-0.930
2020/01/31 13:55:18.6	3.620	-0.480	-0.370	-1.010
2020/01/31 13:55:18.7	3.630	-0.460	-0.380	-1.080
2020/01/31 13:55:18.8	3.640	-0.440	-0.380	-1.150
2020/01/31 13:55:18.9	3.660	-0.410	-0.390	-1.210
2020/01/31 13:55:19.0	3.670	-0.380	-0.380	-1.270
2020/01/31 13:55:19.1	3.680	-0.340	-0.380	-1.330
2020/01/31 13:55:19.2	3.700	-0.310	-0.370	-1.380
2020/01/31 13:55:19.3	3.710	-0.270	-0.360	-1.430
2020/01/31 13:55:19.4	3.730	-0.230	-0.340	-1.470
2020/01/31 13:55:19.5	3.750	-0.190	-0.330	-1.510
2020/01/31 13:55:19.6	3.750	-0.160	-0.310	-1.550
2020/01/31 13:55:19.7	3.770	-0.120	-0.290	-1.580
2020/01/31 13:55:19.8	3.790	-0.080	-0.260	-1.610
2020/01/31 13:55:19.9	3.810	-0.040	-0.230	-1.640
2020/01/31 13:55:20.0	3.830	-0.000	-0.210	-1.660
2020/01/31 13:55:20.1	3.840	0.030	-0.180	-1.670
2020/01/31 13:55:20.2	3.860	0.070	-0.150	-1.690
2020/01/31 13:55:20.3	3.870	0.100	-0.110	-1.690
2020/01/31 13:55:20.4	3.890	0.130	-0.080	-1.700
2020/01/31 13:55:20.5	3.900	0.160	-0.050	-1.700
2020/01/31 13:55:20.6	3.900	0.180	-0.030	-1.690
2020/01/31 13:55:20.7	3.910	0.210	0.010	-1.680
2020/01/31 13:55:20.8	3.920	0.230	0.040	-1.670
2020/01/31 13:55:20.9	3.920	0.250	0.060	-1.650
2020/01/31 13:55:21.0	3.930	0.260	0.090	-1.630
2020/01/31 13:55:21.1	3.930	0.270	0.120	-1.610
2020/01/31 13:55:21.2	3.930	0.280	0.140	-1.580
2020/01/31 13:55:21.3	3.930	0.290	0.160	-1.550
2020/01/31 13:55:21.4	3.920	0.300	0.180	-1.510
2020/01/31 13:55:21.5	3.920	0.300	0.190	-1.470
2020/01/31 13:55:21.6	3.920	0.310	0.200	-1.430
2020/01/31 13:55:21.7	3.910	0.310	0.210	-1.380
2020/01/31 13:55:21.8	3.900	0.310	0.220	-1.330
2020/01/31 13:55:21.9	3.900	0.310	0.220	-1.280
2020/01/31 13:55:22.0	3.890	0.310	0.220	-1.230
2020/01/31 13:55:22.1	3.880	0.310	0.210	-1.180
2020/01/31 13:55:22.2	3.870	0.300	0.210	-1.120
2020/01/31 13:55:22.3	3.870	0.300	0.190	-1.060
2020/01/31 13:55:22.4	3.860	0.300	0.180	-1.000
2020/01/31 13:55:22.5	3.850	0.300	0.160	-0.940
2020/01/31 13:55:22.6	3.850	0.300	0.130	-0.880
2020/01/31 13:55:22.7	3.840	0.300	0.100	-0.820
2020/01/31 13:55:22.8	3.840	0.300	0.070	-0.760
2020/01/31 13:55:22.9	3.840	0.300	0.040	-0.700
2020/01/31 13:55:23.0	3.840	0.310	0.000	-0.640
2020/01/31 13:55:23.1	3.840	0.310	-0.040	-0.580
2020/01/31 13:55:23.2	3.840	0.320	-0.080	-0.530
2020/01/31 13:55:23.3	3.850	0.330	-0.130	-0.480
2020/01/31 13:55:23.4	3.850	0.330	-0.180	-0.430
2020/01/31 13:55:23.5	3.860	0.340	-0.230	-0.380
2020/01/31 13:55:23.6	3.880	0.350	-0.280	-0.330
2020/01/31 13:55:23.7	3.900	0.360	-0.330	-0.290
2020/01/31 13:55:23.8	3.920	0.370	-0.390	-0.250
2020/01/31 13:55:23.9	3.940	0.380	-0.440	-0.210
2020/01/31 13:55:24.0	3.970	0.390	-0.490	-0.180
2020/01/31 13:55:24.1	4.000	0.400	-0.550	-0.150
2020/01/31 13:55:24.2	4.030	0.410	-0.600	-0.130
2020/01/31 13:55:24.3	4.060	0.420	-0.650	-0.110
2020/01/31 13:55:24.4	4.100	0.430	-0.690	-0.100
2020/01/31 13:55:24.5	4.140	0.440	-0.740	-0.090
2020/01/31 13:55:24.6	4.180	0.440	-0.780	-0.080
2020/01/31 13:55:24.7	4.220	0.440	-0.810	-0.070
2020/01/31 13:55:24.8	4.260	0.440	-0.840	-0.070
2020/01/31 13:55:24.9	4.300	0.430	-0.870	-0.080
2020/01/31 13:55:25.0	4.340	0.420	-0.880	-0.080
2020/01/31 13:55:25.1	4.380	0.410	-0.890	-0.090
2020/01/31 13:55:25.2	4.420	0.400	-0.900	-0.090
2020/01/31 13:55:25.3	4.450	0.370	-0.890	-0.100
2020/01/31 13:55:25.4	4.480	0.350	-0.880	-0.110
2020/01/31 13:55:25.5	4.500	0.320	-0.860	-0.130
2020/01/31 13:55:25.6	4.530	0.280	-0.830	-0.140
2020/01/31 13:55:25.7	4.550	0.240	-0.790	-0.160
2020/01/31 13:55:25.8	4.560	0.200	-0.740	-0.180
2020/01/31 13:55:25.9	4.570	0.150	-0.690	-0.200
2020/01/31 13:55:26.0	4.580	0.100	-0.630	-0.220
2020/01/31 13:55:26.1	4.580	0.040	-0.570	-0.250
2020/01/31 13:55:26.2	4.580	-0.020	-0.500	-0.270
2020/01/31 13:55:26.3	4.580	-0.080	-0.420	-0.300
2020/01/31 13:55:26.4	4.570	-0.140	-0.340	-0.330
2020/01/31 13:55:26.5	4.560	-0.210	-0.260	-0.350
2020/01/31 13:55:26.6	4.560	-0.280	-0.170	-0.390
2020/01/31 13:55:26.7	4.550	-0.350	-0.090	-0.420
2020/01/31 13:55:26.8	4.530	-0.420	-0.000	-0.440
2020/01/31 13:55:26.9	4.520	-0.490	0.080	-0.470
2020/01/31 13:55:27.0	4.500	-0.560	0.170	-0.500
2020/01/31 13:55:27.1	4.490	-0.630	0.250	-0.530
2020/01/31 13:55:27.2	4.470	-0.700	0.320	-0.560
2020/01/31 13:55:27.3	4.450	-0.760	0.390	-0.590
2020/01/31 13:55:27.4	4.440	-0.820	0.450	-0.620
2020/01/31 13:55:27.5	4.430	-0.880	0.510	-0.650
2020/01/31 13:55:27.6	4.420	-0.930	0.550	-0.680
2020/01/31 13:55:27.7	4.410	-0.980	0.590	-0.720
2020/01/31 13:55:27.8	4.400	-1.030	0.620	-0.750
2020/01/31 13:55:27.9	4.400	-1.060	0.650	-0.780
2020/01/31 13:55:28.0	4.390	-1.090	0.660	-0.820
2020/01/31 13:55:28.1	4.390	-1.120	0.660	-0.850
2020/01/31 13:55:28.2	4.390	-1.130	0.650	-0.880
2020/01/31 13:55:28.3	4.380	-1.140	0.640	-0.910
2020/01/31 13:55:28.4	4.380	-1.150	0.610	-0.940
2020/01/31 13:55:28.5	4.380	-1.140	0.580	-0.970
2020/01/31 13:55:28.6	4.380	-1.130	0.540	-1.000
2020/01/31 13:55:28.7	4.380	-1.110	0.490	-1.030
2020/01/31 13:55:28.8	4.370	-1.080	0.440	-1.050
2020/01/31 13:55:28.9	4.370	-1.050	0.370	-1.070
2020/01/31 13:55:29.0	4.370	-1.010	0.310	-1.080
2020/01/31 13:55:29.1	4.360	-0.960	0.240	-1.100
2020/01/31 13:55:29.2	4.360	-0.910	0.170	-1.110
2020/01/31 13:55:29.3	4.350	-0.850	0.090	-1.120
2020/01/31 13:55:29.4	4.350	-0.790	0.010	-1.120
2020/01/31 13:55:29.5	4.340	-0.720	-0.060	-1.120
2020/01/31 13:55:29.6	4.320	-0.650	-0.140	-1.120
2020/01/31 13:55:29.7	4.310	-0.570	-0.220	-1.110
2020/01/31 13:55:29.8	4.300	-0.490	-0.290	-1.100
2020/01/31 13:55:29.9	4.290	-0.410	-0.370	-1.090
2020/01/31 13:55:30.0	4.270	-0.330	-0.440	-1.080
2020/01/31 13:55:30.1	4.260	-0.250	-0.510	-1.060
2020/01/31 13:55:30.2	4.250	-0.160	-0.570	-1.040
2020/01/31 13:55:30.3	4.240	-0.080	-0.630	-1.020
2020/01/31 13:55:30.4	4.230	0.010	-0.690	-1.000
2020/01/31 13:55:30.5	4.220	0.090	-0.740	-0.970
2020/01/31 13:55:30.6	4.210	0.170	-0.780	-0.940
2020/01/31 13:55:30.7	4.200	0.250	-0.830	-0.910
2020/01/31 13:55:30.8	4.190	0.330	-0.860	-0.880
2020/01/31 13:55:30.9	4.190	0.410	-0.890	-0.840
2020/01/31 13:55:31.0	4.180	0.480	-0.920	-0.810
2020/01/31 13:55:31.1	4.180	0.550	-0.940	-0.770
2020/01/31 13:55:31.2	4.170	0.610	-0.960	-0.730
2020/01/31 13:55:31.3	4.160	0.670	-0.960	-0.690
2020/01/31 13:55:31.4	4.160	0.730	-0.970	-0.640
2020/01/31 13:55:31.5	4.150	0.780	-0.970	-0.590
2020/01/31 13:55:31.6	4.150	0.830	-0.960	-0.550
2020/01/31 13:55:31.7	4.140	0.870	-0.950	-0.500
2020/01/31 13:55:31.8	4.140	0.900	-0.930	-0.450
2020/01/31 13:55:31.9	4.130	0.930	-0.910	-0.400
2020/01/31 13:55:32.0	4.130	0.960	-0.890	-0.340
2020/01/31 13:55:32.1	4.120	0.980	-0.860	-0.290
2020/01/31 13:55:32.2	4.120	0.990	-0.830	-0.240
2020/01/31 13:55:32.3	4.120	1.000	-0.790	-0.190
2020/01/31 13:55:32.4	4.110	1.010	-0.760	-0.150
2020/01/31 13:55:32.5	4.110	1.010	-0.720	-0.100
2020/01/31 13:55:32.6	4.100	1.010	-0.680	-0.050
2020/01/31 13:55:32.7	4.100	1.000	-0.640	-0.010
2020/01/31 13:55:32.8	4.090	0.990	-0.600	0.030
2020/01/31 13:55:32.9	4.090	0.970	-0.560	0.070
2020/01/31 13:55:33.0	4.090	0.960	-0.520	0.110
2020/01/31 13:55:33.1	4.090	0.930	-0.480	0.140
2020/01/31 13:55:33.2	4.090	0.910	-0.440	0.170
2020/01/31 13:55:33.3	4.090	0.880	-0.400	0.190
2020/01/31 13:55:33.4	4.090	0.860	-0.370	0.220
2020/01/31 13:55:33.5	4.100	0.820	-0.330	0.230
2020/01/31 13:55:33.6	4.110	0.790	-0.300	0.250
2020/01/31 13:55:33.7	4.120	0.760	-0.270	0.260
2020/01/31 13:55:33.8	4.130	0.720	-0.240	0.270
2020/01/31 13:55:33.9	4.140	0.690	-0.220	0.280
2020/01/31 13:55:34.0	4.150	0.650	-0.190	0.280
2020/01/31 13:55:34.1	4.160	0.610	-0.170	0.280
2020/01/31 13:55:34.2	4.170	0.580	-0.150	0.280
2020/01/31 13:55:34.3	4.180	0.540	-0.130	0.270
2020/01/31 13:55:34.4	4.200	0.500	-0.110	0.260
2020/01/31 13:55:34.5	4.210	0.460	-0.100	0.250
2020/01/31 13:55:34.6	4.220	0.430	-0.080	0.240
2020/01/31 13:55:34.7	4.230	0.390	-0.060	0.230
2020/01/31 13:55:34.8	4.250	0.350	-0.050	0.210
2020/01/31 13:55:34.9	4.260	0.310	-0.030	0.190
2020/01/31 13:55:35.0	4.270	0.270	-0.010	0.180
2020/01/31 13:55:35.1	4.280	0.230	0.000	0.160
2020/01/31 13:55:35.2	4.290	0.190	0.020	0.140
2020/01/31 13:55:35.3	4.300	0.150	0.040	0.120
2020/01/31 13:55:35.4	4.310	0.110	0.060	0.090
2020/01/31 13:55:35.5	4.310	0.070	0.080	0.070
2020/01/31 13:55:35.6	4.320	0.030	0.100	0.050
2020/01/31 13:55:35.7	4.320	-0.010	0.120	0.020
2020/01/31 13:55:35.8	4.320	-0.050	0.140	-0.000
2020/01/31 13:55:35.9	4.320	-0.090	0.160	-0.020
2020/01/31 13:55:36.0	4.320	-0.130	0.180	-0.050
2020/01/31 13:55:36.1	4.320	-0.170	0.210	-0.080
2020/01/31 13:55:36.2	4.320	-0.210	0.230	-0.100
2020/01/31 13:55:36.3	4.320	-0.250	0.250	-0.130
2020/01/31 13:55:36.4	4.310	-0.290	0.260	-0.160
2020/01/31 13:55:36.5	4.310	-0.330	0.280	-0.180
2020/01/31 13:55:36.6	4.310	-0.370	0.300	-0.210
2020/01/31 13:55:36.7	4.300	-0.410	0.310	-0.240
2020/01/31 13:55:36.8	4.300	-0.450	0.320	-0.270
2020/01/31 13:55:36.9	4.290	-0.480	0.330	-0.300
2020/01/31 13:55:37.0	4.290	-0.520	0.330	-0.330
2020/01/31 13:55:37.1	4.290	-0.550	0.340	-0.360
2020/01/31 13:55:37.2	4.280	-0.590	0.340	-0.390
2020/01/31 13:55:37.3	4.270	-0.620	0.340	-0.420
2020/01/31 13:55:37.4	4.270	-0.650	0.340	-0.450
2020/01/31 13:55:37.5	4.260	-0.670	0.330	-0.490
2020/01/31 13:55:37.6	4.260	-0.700	0.320	-0.520
2020/01/31 13:55:37.7	4.250	-0.720	0.310	-0.550
2020/01/31 13:55:37.8	4.240	-0.740	0.300	-0.570
2020/01/31 13:55:37.9	4.230	-0.760	0.290	-0.600
2020/01/31 13:55:38.0	4.220	-0.780	0.270	-0.630
2020/01/31 13:55:38.1	4.210	-0.790	0.260	-0.660
2020/01/31 13:55:38.2	4.190	-0.800	0.240	-0.680
2020/01/31 13:55:38.3	4.180	-0.810	0.220	-0.710
2020/01/31 13:55:38.4	4.170	-0.820	0.200	-0.740
2020/01/31 13:55:38.5	4.150	-0.820	0.180	-0.760
2020/01/31 13:55:38.6	4.140	-0.820	0.150	-0.790
2020/01/31 13:55:38.7	4.130	-0.810	0.130	-0.810
2020/01/31 13:55:38.8	4.110	-0.810	0.100	-0.840
2020/01/31 13:55:38.9	4.100	-0.800	0.070	-0.860
2020/01/31 13:55:39.0	4.090	-0.780	0.040	-0.880
2020/01/31 13:55:39.1	4.080	-0.770	0.000	-0.910
2020/01/31 13:55:39.2	4.080	-0.750	-0.040	-0.930
2020/01/31 13:55:39.3	4.070	-0.720	-0.080	-0.950
2020/01/31 13:55:39.4	4.070	-0.700	-0.120	-0.970
2020/01/31 13:55:39.5	4.070	-0.670	-0.160	-0.990
2020/01/31 13:55:39.6	4.080	-0.630	-0.210	-1.000
2020/01/31 13:55:39.7	4.080	-0.600	-0.260	-1.020
2020/01/31 13:55:39.8	4.080	-0.560	-0.310	-1.040
2020/01/31 13:55:39.9	4.090	-0.520	-0.360	-1.050
2020/01/31 13:55:40.0	4.100	-0.480	-0.410	-1.060
2020/01/31 13:55:40.1	4.110	-0.430	-0.460	-1.070
2020/01/31 13:55:40.2	4.120	-0.380	-0.510	-1.080
2020/01/31 13:55:40.3	4.130	-0.330	-0.570	-1.080
2020/01/31 13:55:40.4	4.140	-0.280	-0.620	-1.080
2020/01/31 13:55:40.5	4.150	-0.230	-0.660	-1.080
2020/01/31 13:55:40.6	4.170	-0.180	-0.710	-1.080
2020/01/31 13:55:40.7	4.190	-0.130	-0.760	-1.080
2020/01/31 13:55:40.8	4.200	-0.080	-0.800	-1.070
2020/01/31 13:55:40.9	4.210	-0.030	-0.830	-1.060
2020/01/31 13:55:41.0	4.220	0.020	-0.860	-1.050
2020/01/31 13:55:41.1	4.230	0.070	-0.890	-1.030
2020/01/31 13:55:41.2	4.240	0.110	-0.910	-1.020
2020/01/31 13:55:41.3	4.250	0.160	-0.920	-1.000
2020/01/31 13:55:41.4	4.250	0.200	-0.930	-0.970
2020/01/31 13:55:41.5	4.260	0.240	-0.930	-0.940
2020/01/31 13:55:41.6	4.260	0.280	-0.930	-0.910
2020/01/31 13:55:41.7	4.260	0.310	-0.920	-0.880
2020/01/31 13:55:41.8	4.260	0.340	-0.910	-0.840
2020/01/31 13:55:41.9	4.250	0.370	-0.880	-0.800
2020/01/31 13:55:42.0	4.250	0.400	-0.860	-0.750
2020/01/31 13:55:42.1	4.240	0.420	-0.820	-0.700
2020/01/31 13:55:42.2	4.230	0.440	-0.790	-0.650
2020/01/31 13:55:42.3	4.220	0.450	-0.750	-0.600
2020/01/31 13:55:42.4	4.200	0.460	-0.700	-0.540
2020/01/31 13:55:42.5	4.190	0.470	-0.650	-0.470
2020/01/31 13:55:42.6	4.180	0.470	-0.610	-0.400
2020/01/31 13:55:42.7	4.160	0.470	-0.550	-0.340
2020/01/31 13:55:42.8	4.140	0.470	-0.500	-0.270
2020/01/31 13:55:42.9	4.110	0.470	-0.450	-0.200
2020/01/31 13:55:43.0	4.090	0.460	-0.390	-0.130
2020/01/31 13:55:43.1	4.070	0.450	-0.340	-0.060
2020/01/31 13:55:43.2	4.040	0.430	-0.290	0.010
2020/01/31 13:55:43.3	4.020	0.420	-0.240	0.070
2020/01/31 13:55:43.4	3.990	0.400	-0.200	0.140
2020/01/31 13:55:43.5	3.960	0.380	-0.150	0.200
2020/01/31 13:55:43.6	3.940	0.360	-0.120	0.260
2020/01/31 13:55:43.7	3.920	0.350	-0.090	0.310
2020/01/31 13:55:43.8	3.890	0.330	-0.060	0.360
2020/01/31 13:55:43.9	3.870	0.310	-0.030	0.400
2020/01/31 13:55:44.0	3.850	0.290	-0.010	0.440
2020/01/31 13:55:44.1	3.830	0.270	0.000	0.470
2020/01/31 13:55:44.2	3.820	0.260	0.010	0.500
2020/01/31 13:55:44.3	3.800	0.250	0.020	0.520
2020/01/31 13:55:44.4	3.790	0.240	0.020	0.530
2020/01/31 13:55:44.5	3.780	0.230	0.020	0.540
2020/01/31 13:55:44.6	3.770	0.220	0.010	0.550
2020/01/31 13:55:44.7	3.760	0.220	0.000	0.550
2020/01/31 13:55:44.8	3.750	0.220	-0.010	0.550
2020/01/31 13:55:44.9	3.750	0.230	-0.030	0.550
2020/01/31 13:55:45.0	3.740	0.240	-0.050	0.550
2020/01/31 13:55:45.1	3.740	0.250	-0.070	0.540
2020/01/31 13:55:45.2	3.740	0.260	-0.090	0.530
2020/01/31 13:55:45.3	3.740	0.280	-0.110	0.520
2020/01/31 13:55:45.4	3.750	0.300	-0.130	0.510
2020/01/31 13:55:45.5	3.750	0.320	-0.150	0.500
2020/01/31 13:55:45.6	3.750	0.350	-0.170	0.480
2020/01/31 13:55:45.7	3.760	0.370	-0.190	0.470
2020/01/31 13:55:45.8	3.770	0.400	-0.210	0.450
2020/01/31 13:55:45.9	3.780	0.420	-0.230	0.430
2020/01/31 13:55:46.0	3.800	0.450	-0.240	0.410
2020/01/31 13:55:46.1	3.810	0.470	-0.250	0.390
2020/01/31 13:55:46.2	3.830	0.500	-0.270	0.370
2020/01/31 13:55:46.3	3.850	0.520	-0.280	0.350
2020/01/31 13:55:46.4	3.870	0.530	-0.280	0.320
2020/01/31 13:55:46.5	3.880	0.550	-0.290	0.300
2020/01/31 13:55:46.6	3.890	0.560	-0.290	0.270
2020/01/31 13:55:46.7	3.910	0.570	-0.290	0.250
2020/01/31 13:55:46.8	3.920	0.570	-0.290	0.220
2020/01/31 13:55:46.9	3.930	0.570	-0.290	0.190
2020/01/31 13:55:47.0	3.940	0.560	-0.290	0.160
2020/01/31 13:55:47.1	3.950	0.550	-0.280	0.130
2020/01/31 13:55:47.2	3.960	0.540	-0.280	0.100
2020/01/31 13:55:47.3	3.960	0.510	-0.270	0.070
2020/01/31 13:55:47.4	3.960	0.490	-0.260	0.040
2020/01/31 13:55:47.5	3.960	0.460	-0.250	0.010
2020/01/31 13:55:47.6	3.960	0.420	-0.240	-0.030
2020/01/31 13:55:47.7	3.960	0.380	-0.230	-0.060
2020/01/31 13:55:47.8	3.960	0.330	-0.210	-0.100
2020/01/31 13:55:47.9	3.960	0.280	-0.200	-0.130
2020/01/31 13:55:48.0	3.950	0.230	-0.190	-0.170
2020/01/31 13:55:48.1	3.950	0.170	-0.180	-0.210
2020/01/31 13:55:48.2	3.950	0.110	-0.170	-0.250
2020/01/31 13:55:48.3	3.950	0.050	-0.160	-0.290
2020/01/31 13:55:48.4	3.940	-0.020	-0.150	-0.330
2020/01/31 13:55:48.5	3.940	-0.090	-0.140	-0.380
2020/01/31 13:55:48.6	3.940	-0.150	-0.130	-0.430
2020/01/31 13:55:48.7	3.940	-0.220	-0.120	-0.470
2020/01/31 13:55:48.8	3.940	-0.290	-0.110	-0.520
2020/01/31 13:55:48.9	3.940	-0.350	-0.100	-0.570
2020/01/31 13:55:49.0	3.940	-0.420	-0.090	-0.620
2020/01/31 13:55:49.1	3.940	-0.480	-0.090	-0.670
2020/01/31 13:55:49.2	3.940	-0.540	-0.080	-0.720
2020/01/31 13:55:49.3	3.940	-0.600	-0.070	-0.770
2020/01/31 13:55:49.4	3.940	-0.660	-0.070	-0.820
2020/01/31 13:55:49.5	3.940	-0.710	-0.060	-0.860
2020/01/31 13:55:49.6	3.940	-0.750	-0.050	-0.910
2020/01/31 13:55:49.7	3.930	-0.790	-0.050	-0.950
2020/01/31 13:55:49.8	3.930	-0.830	-0.040	-0.980
2020/01/31 13:55:49.9	3.920	-0.860	-0.030	-1.020
2020/01/31 13:55:50.0	3.910	-0.880	-0.020	-1.040
2020/01/31 13:55:50.1	3.890	-0.900	-0.010	-1.070
2020/01/31 13:55:50.2	3.880	-0.920	-0.000	-1.090
2020/01/31 13:55:50.3	3.860	-0.930	0.010	-1.110
2020/01/31 13:55:50.4	3.850	-0.930	0.010	-1.120
2020/01/31 13:55:50.5	3.830	-0.930	0.020	-1.130
2020/01/31 13:55:50.6	3.810	-0.920	0.030	-1.130
2020/01/31 13:55:50.7	3.780	-0.910	0.040	-1.130
2020/01/31 13:55:50.8	3.760	-0.890	0.050	-1.130
2020/01/31 13:55:50.9	3.740	-0.870	0.050	-1.120
2020/01/31 13:55:51.0	3.710	-0.840	0.060	-1.110
2020/01/31 13:55:51.1	3.690	-0.810	0.060	-1.110
2020/01/31 13:55:51.2	3.670	-0.780	0.060	-1.090
2020/01/31 13:55:51.3	3.640	-0.740	0.050	-1.080
2020/01/31 13:55:51.4	3.620	-0.700	0.050	-1.070
2020/01/31 13:55:51.5	3.600	-0.660	0.040	-1.060
2020/01/31 13:55:51.6	3.590	-0.610	0.030	-1.040
2020/01/31 13:55:51.7	3.570	-0.560	0.010	-1.020
2020/01/31 13:55:51.8	3.550	-0.510	-0.000	-1.010
2020/01/31 13:55:51.9	3.530	-0.460	-0.020	-1.000
2020/01/31 13:55:52.0	3.520	-0.410	-0.040	-0.980
2020/01/31 13:55:52.1	3.510	-0.350	-0.070	-0.970
2020/01/31 13:55:52.2	3.490	-0.300	-0.100	-0.950
2020/01/31 13:55:52.3	3.480	-0.250	-0.120	-0.940
2020/01/31 13:55:52.4	3.470	-0.190	-0.150	-0.920
2020/01/31 13:55:52.5	3.460	-0.140	-0.180	-0.910
2020/01/31 13:55:52.6	3.460	-0.090	-0.210	-0.880
2020/01/31 13:55:52.7	3.450	-0.040	-0.250	-0.870
2020/01/31 13:55:52.8	3.450	0.010	-0.280	-0.850
2020/01/31 13:55:52.9	3.440	0.050	-0.310	-0.830
2020/01/31 13:55:53.0	3.430	0.100	-0.340	-0.820
2020/01/31 13:55:53.1	3.430	0.140	-0.370	-0.800
2020/01/31 13:55:53.2	3.430	0.180	-0.400	-0.780
2020/01/31 13:55:53.3	3.420	0.210	-0.430	-0.760
2020/01/31 13:55:53.4	3.420	0.250	-0.460	-0.740
2020/01/31 13:55:53.5	3.420	0.280	-0.480	-0.720
2020/01/31 13:55:53.6	3.420	0.300	-0.500	-0.700
2020/01/31 13:55:53.7	3.420	0.330	-0.520	-0.680
2020/01/31 13:55:53.8	3.420	0.350	-0.540	-0.660
2020/01/31 13:55:53.9	3.410	0.360	-0.550	-0.640
2020/01/31 13:55:54.0	3.410	0.380	-0.560	-0.620
2020/01/31 13:55:54.1	3.410	0.390	-0.560	-0.600
2020/01/31 13:55:54.2	3.410	0.390	-0.560	-0.580
2020/01/31 13:55:54.3	3.400	0.400	-0.560	-0.560
2020/01/31 13:55:54.4	3.400	0.400	-0.560	-0.550
2020/01/31 13:55:54.5	3.400	0.390	-0.550	-0.530
2020/01/31 13:55:54.6	3.410	0.390	-0.540	-0.510
2020/01/31 13:55:54.7	3.400	0.380	-0.530	-0.500
2020/01/31 13:55:54.8	3.400	0.360	-0.520	-0.480
2020/01/31 13:55:54.9	3.390	0.350	-0.500	-0.470
2020/01/31 13:55:55.0	3.390	0.330	-0.480	-0.450
2020/01/31 13:55:55.1	3.380	0.310	-0.460	-0.440
2020/01/31 13:55:55.2	3.370	0.290	-0.430	-0.420
2020/01/31 13:55:55.3	3.360	0.270	-0.410	-0.410
2020/01/31 13:55:55.4	3.350	0.250	-0.380	-0.390
2020/01/31 13:55:55.5	3.340	0.220	-0.350	-0.370
2020/01/31 13:55:55.6	3.330	0.200	-0.330	-0.350
2020/01/31 13:55:55.7	3.310	0.170	-0.300	-0.330
2020/01/31 13:55:55.8	3.300	0.140	-0.270	-0.320
2020/01/31 13:55:55.9	3.290	0.120	-0.240	-0.300
2020/01/31 13:55:56.0	3.270	0.090	-0.210	-0.270
2020/01/31 13:55:56.1	3.250	0.070	-0.180	-0.250
2020/01/31 13:55:56.2	3.240	0.040	-0.150	-0.230
2020/01/31 13:55:56.3	3.220	0.020	-0.120	-0.200
2020/01/31 13:55:56.4	3.200	-0.010	-0.100	-0.180
2020/01/31 13:55:56.5	3.170	-0.030	-0.080	-0.150
2020/01/31 13:55:56.6	3.160	-0.050	-0.060	-0.120
2020/01/31 13:55:56.7	3.140	-0.070	-0.040	-0.100
2020/01/31 13:55:56.8	3.110	-0.090	-0.020	-0.070
2020/01/31 13:55:56.9	3.090	-0.100	-0.010	-0.040
2020/01/31 13:55:57.0	3.060	-0.110	0.000	-0.010
2020/01/31 13:55:57.1	3.040	-0.120	0.010	0.010
2020/01/31 13:55:57.2	3.020	-0.130	0.010	0.040
2020/01/31 13:55:57.3	2.990	-0.130	0.000	0.070
2020/01/31 13:55:57.4	2.970	-0.130	-0.010	0.090
2020/01/31 13:55:57.5	2.950	-0.130	-0.020	0.120
2020/01/31 13:55:57.6	2.940	-0.120	-0.040	0.140
2020/01/31 13:55:57.7	2.920	-0.110	-0.060	0.160
2020/01/31 13:55:57.8	2.900	-0.090	-0.080	0.180
2020/01/31 13:55:57.9	2.890	-0.080	-0.110	0.200
2020/01/31 13:55:58.0	2.870	-0.060	-0.150	0.220
2020/01/31 13:55:58.1	2.860	-0.030	-0.180	0.230
2020/01/31 13:55:58.2	2.850	-0.000	-0.220	0.250
2020/01/31 13:55:58.3	2.850	0.030	-0.270	0.260
2020/01/31 13:55:58.4	2.840	0.060	-0.310	0.270
2020/01/31 13:55:58.5	2.840	0.090	-0.360	0.280
2020/01/31 13:55:58.6	2.850	0.130	-0.410	0.290
2020/01/31 13:55:58.7	2.850	0.170	-0.460	0.300
2020/01/31 13:55:58.8	2.850	0.210	-0.510	0.300
2020/01/31 13:55:58.9	2.850	0.250	-0.550	0.310
2020/01/31 13:55:59.0	2.860	0.290	-0.600	0.310
2020/01/31 13:55:59.1	2.860	0.330	-0.640	0.310
2020/01/31 13:55:59.2	2.870	0.370	-0.680	0.320
2020/01/31 13:55:59.3	2.880	0.410	-0.710	0.320
2020/01/31 13:55:59.4	2.890	0.450	-0.740	0.330
2020/01/31 13:55:59.5	2.900	0.480	-0.770	0.330
2020/01/31 13:55:59.6	2.920	0.510	-0.790	0.330
2020/01/31 13:55:59.7	2.930	0.540	-0.800	0.340
2020/01/31 13:55:59.8	2.940	0.570	-0.810	0.340
2020/01/31 13:55:59.9	2.940	0.590	-0.810	0.350
2020/01/31 13:56:00.0	2.950	0.600	-0.810	0.350
2020/01/31 13:56:00.1	2.960	0.620	-0.790	0.360
2020/01/31 13:56:00.2	2.970	0.620	-0.770	0.360
2020/01/31 13:56:00.3	2.980	0.630	-0.750	0.370
2020/01/31 13:56:00.4	2.990	0.630	-0.720	0.380
2020/01/31 13:56:00.5	2.990	0.620	-0.680	0.390
2020/01/31 13:56:00.6	3.000	0.610	-0.640	0.400
2020/01/31 13:56:00.7	3.010	0.590	-0.590	0.410
2020/01/31 13:56:00.8	3.010	0.570	-0.540	0.410
2020/01/31 13:56:00.9	3.010	0.540	-0.480	0.420
2020/01/31 13:56:01.0	3.010	0.510	-0.420	0.430
2020/01/31 13:56:01.1	3.010	0.470	-0.360	0.440
2020/01/31 13:56:01.2	3.010	0.440	-0.300	0.450
2020/01/31 13:56:01.3	3.000	0.390	-0.230	0.460
2020/01/31 13:56:01.4	2.990	0.350	-0.160	0.470
2020/01/31 13:56:01.5	2.980	0.300	-0.100	0.470
2020/01/31 13:56:01.6	2.960	0.240	-0.040	0.480
2020/01/31 13:56:01.7	2.940	0.190	0.030	0.490
2020/01/31 13:56:01.8	2.920	0.130	0.090	0.490
2020/01/31 13:56:01.9	2.900	0.070	0.150	0.490
2020/01/31 13:56:02.0	2.870	0.010	0.210	0.490
2020/01/31 13:56:02.1	2.850	-0.050	0.260	0.490
2020/01/31 13:56:02.2	2.820	-0.110	0.310	0.490
2020/01/31 13:56:02.3	2.790	-0.170	0.360	0.480
2020/01/31 13:56:02.4	2.760	-0.220	0.400	0.470
2020/01/31 13:56:02.5	2.730	-0.280	0.440	0.460
2020/01/31 13:56:02.6	2.700	-0.330	0.480	0.450
2020/01/31 13:56:02.7	2.670	-0.390	0.510	0.430
2020/01/31 13:56:02.8	2.640	-0.440	0.530	0.410
2020/01/31 13:56:02.9	2.600	-0.480	0.550	0.390
2020/01/31 13:56:03.0	2.570	-0.530	0.570	0.370
2020/01/31 13:56:03.1	2.540	-0.570	0.580	0.340
2020/01/31 13:56:03.2	2.500	-0.600	0.580	0.310
2020/01/31 13:56:03.3	2.470	-0.640	0.580	0.280
2020/01/31 13:56:03.4	2.440	-0.660	0.570	0.250
2020/01/31 13:56:03.5	2.410	-0.690	0.560	0.210
2020/01/31 13:56:03.6	2.370	-0.710	0.550	0.180
2020/01/31 13:56:03.7	2.330	-0.720	0.530	0.140
2020/01/31 13:56:03.8	2.300	-0.740	0.510	0.100
2020/01/31 13:56:03.9	2.270	-0.740	0.480	0.050
2020/01/31 13:56:04.0	2.240	-0.750	0.450	0.010
2020/01/31 13:56:04.1	2.200	-0.740	0.420	-0.040
2020/01/31 13:56:04.2	2.170	-0.740	0.380	-0.080
2020/01/31 13:56:04.3	2.140	-0.730	0.350	-0.130
2020/01/31 13:56:04.4	2.120	-0.720	0.310	-0.180
2020/01/31 13:56:04.5	2.090	-0.700	0.260	-0.230
2020/01/31 13:56:04.6	2.070	-0.680	0.210	-0.290
2020/01/31 13:56:04.7	2.040	-0.660	0.170	-0.340
2020/01/31 13:56:04.8	2.020	-0.630	0.120	-0.390
2020/01/31 13:56:04.9	1.990	-0.600	0.070	-0.450
2020/01/31 13:56:05.0	1.970	-0.570	0.020	-0.500
2020/01/31 13:56:05.1	1.950	-0.540	-0.030	-0.550
2020/01/31 13:56:05.2	1.930	-0.500	-0.080	-0.600
2020/01/31 13:56:05.3	1.910	-0.470	-0.130	-0.650
2020/01/31 13:56:05.4	1.890	-0.430	-0.180	-0.700
2020/01/31 13:56:05.5	1.870	-0.390	-0.220	-0.740
2020/01/31 13:56:05.6	1.850	-0.350	-0.270	-0.780
2020/01/31 13:56:05.7	1.840	-0.310	-0.310	-0.820
2020/01/31 13:56:05.8	1.820	-0.270	-0.360	-0.850
2020/01/31 13:56:05.9	1.800	-0.230	-0.400	-0.880
2020/01/31 13:56:06.0	1.790	-0.190	-0.430	-0.920
2020/01/31 13:56:06.1	1.770	-0.150	-0.470	-0.950
2020/01/31 13:56:06.2	1.760	-0.110	-0.510	-0.980
2020/01/31 13:56:06.3	1.750	-0.080	-0.540	-1.000
2020/01/31 13:56:06.4	1.750	-0.040	-0.570	-1.030
2020/01/31 13:56:06.5	1.740	-0.010	-0.600	-1.050
2020/01/31 13:56:06.6	1.750	0.020	-0.630	-1.080
2020/01/31 13:56:06.7	1.750	0.050	-0.660	-1.100
2020/01/31 13:56:06.8	1.750	0.070	-0.680	-1.130
2020/01/31 13:56:06.9	1.760	0.100	-0.700	-1.150
2020/01/31 13:56:07.0	1.770	0.120	-0.730	-1.180
2020/01/31 13:56:07.1	1.790	0.140	-0.750	-1.200
2020/01/31 13:56:07.2	1.800	0.160	-0.770	-1.230
2020/01/31 13:56:07.3	1.830	0.170	-0.790	-1.250
2020/01/31 13:56:07.4	1.850	0.180	-0.810	-1.270
2020/01/31 13:56:07.5	1.870	0.190	-0.820	-1.290
2020/01/31 13:56:07.6	1.900	0.200	-0.840	-1.310
2020/01/31 13:56:07.7	1.920	0.200	-0.850	-1.330
2020/01/31 13:56:07.8	1.950	0.210	-0.860	-1.350
2020/01/31 13:56:07.9	1.980	0.210	-0.870	-1.360
2020/01/31 13:56:08.0	2.000	0.200	-0.870	-1.370
2020/01/31 13:56:08.1	2.030	0.200	-0.880	-1.380
2020/01/31 13:56:08.2	2.060	0.200	-0.880	-1.380
2020/01/31 13:56:08.3	2.080	0.190	-0.870	-1.380
2020/01/31 13:56:08.4	2.100	0.180	-0.870	-1.370
2020/01/31 13:56:08.5	2.120	0.170	-0.850	-1.360
2020/01/31 13:56:08.6	2.130	0.160	-0.840	-1.340
2020/01/31 13:56:08.7	2.140	0.150	-0.820	-1.320
2020/01/31 13:56:08.8	2.140	0.140	-0.800	-1.290
2020/01/31 13:56:08.9	2.140	0.130	-0.770	-1.250
2020/01/31 13:56:09.0	2.140	0.120	-0.740	-1.210
2020/01/31 13:56:09.1	2.130	0.100	-0.700	-1.170
2020/01/31 13:56:09.2	2.110	0.090	-0.660	-1.120
2020/01/31 13:56:09.3	2.090	0.080	-0.610	-1.060
2020/01/31 13:56:09.4	2.060	0.070	-0.560	-1.000
2020/01/31 13:56:09.5	2.030	0.060	-0.510	-0.930
2020/01/31 13:56:09.6	2.000	0.050	-0.450	-0.850
2020/01/31 13:56:09.7	1.960	0.040	-0.390	-0.780
2020/01/31 13:56:09.8	1.920	0.030	-0.330	-0.700
2020/01/31 13:56:09.9	1.870	0.030	-0.260	-0.610
2020/01/31 13:56:10.0	1.820	0.030	-0.190	-0.520
2020/01/31 13:56:10.1	1.770	0.030	-0.130	-0.430
2020/01/31 13:56:10.2	1.710	0.030	-0.060	-0.340
2020/01/31 13:56:10.3	1.660	0.030	0.000	-0.240
2020/01/31 13:56:10.4	1.600	0.040	0.070	-0.140
2020/01/31 13:56:10.5	1.540	0.050	0.130	-0.050
2020/01/31 13:56:10.6	1.470	0.060	0.180	0.060
2020/01/31 13:56:10.7	1.410	0.080	0.230	0.150
2020/01/31 13:56:10.8	1.360	0.090	0.280	0.250
2020/01/31 13:56:10.9	1.300	0.110	0.320	0.350
2020/01/31 13:56:11.0	1.240	0.140	0.350	0.440
2020/01/31 13:56:11.1	1.190	0.160	0.370	0.530
2020/01/31 13:56:11.2	1.140	0.190	0.380	0.620
2020/01/31 13:56:11.3	1.080	0.230	0.390	0.700
2020/01/31 13:56:11.4	1.040	0.260	0.390	0.780
2020/01/31 13:56:11.5	0.990	0.300	0.380	0.860
2020/01/31 13:56:11.6	0.960	0.330	0.350	0.940
2020/01/31 13:56:11.7	0.920	0.370	0.320	1.010
2020/01/31 13:56:11.8	0.880	0.410	0.290	1.070
2020/01/31 13:56:11.9	0.850	0.450	0.240	1.120
2020/01/31 13:56:12.0	0.820	0.490	0.190	1.170
2020/01/31 13:56:12.1	0.800	0.530	0.130	1.210
2020/01/31 13:56:12.2	0.770	0.560	0.060	1.240
2020/01/31 13:56:12.3	0.760	0.600	-0.010	1.260
2020/01/31 13:56:12.4	0.740	0.630	-0.080	1.280
2020/01/31 13:56:12.5	0.730	0.660	-0.160	1.290
2020/01/31 13:56:12.6	0.740	0.680	-0.240	1.300
2020/01/31 13:56:12.7	0.740	0.710	-0.320	1.290
2020/01/31 13:56:12.8	0.740	0.720	-0.400	1.280
2020/01/31 13:56:12.9	0.740	0.730	-0.470	1.260
2020/01/31 13:56:13.0	0.750	0.740	-0.550	1.240
2020/01/31 13:56:13.1	0.760	0.740	-0.620	1.210
2020/01/31 13:56:13.2	0.770	0.740	-0.680	1.170
2020/01/31 13:56:13.3	0.790	0.730	-0.740	1.130
2020/01/31 13:56:13.4	0.810	0.710	-0.800	1.090
2020/01/31 13:56:13.5	0.820	0.690	-0.840	1.050
2020/01/31 13:56:13.6	0.850	0.660	-0.880	0.990
2020/01/31 13:56:13.7	0.870	0.630	-0.910	0.940
2020/01/31 13:56:13.8	0.890	0.590	-0.930	0.890
2020/01/31 13:56:13.9	0.920	0.540	-0.940	0.830
2020/01/31 13:56:14.0	0.940	0.490	-0.940	0.770
2020/01/31 13:56:14.1	0.970	0.430	-0.930	0.720
2020/01/31 13:56:14.2	1.000	0.370	-0.910	0.660
2020/01/31 13:56:14.3	1.020	0.310	-0.890	0.590
2020/01/31 13:56:14.4	1.050	0.240	-0.850	0.530
2020/01/31 13:56:14.5	1.080	0.170	-0.810	0.470
2020/01/31 13:56:14.6	1.110	0.090	-0.760	0.410
2020/01/31 13:56:14.7	1.130	0.020	-0.710	0.340
2020/01/31 13:56:14.8	1.160	-0.060	-0.650	0.280
2020/01/31 13:56:14.9	1.190	-0.140	-0.580	0.220
2020/01/31 13:56:15.0	1.210	-0.220	-0.510	0.150
2020/01/31 13:56:15.1	1.230	-0.300	-0.440	0.090
2020/01/31 13:56:15.2	1.250	-0.370	-0.360	0.030
2020/01/31 13:56:15.3	1.270	-0.450	-0.280	-0.030
2020/01/31 13:56:15.4	1.280	-0.530	-0.200	-0.080
2020/01/31 13:56:15.5	1.290	-0.600	-0.120	-0.140
2020/01/31 13:56:15.6	1.300	-0.670	-0.040	-0.190
2020/01/31 13:56:15.7	1.310	-0.740	0.040	-0.240
2020/01/31 13:56:15.8	1.300	-0.800	0.130	-0.280
2020/01/31 13:56:15.9	1.300	-0.860	0.210	-0.330
2020/01/31 13:56:16.0	1.280	-0.920	0.290	-0.360
2020/01/31 13:56:16.1	1.270	-0.970	0.370	-0.400
2020/01/31 13:56:16.2	1.250	-1.010	0.440	-0.430
2020/01/31 13:56:16.3	1.220	-1.050	0.510	-0.460
2020/01/31 13:56:16.4	1.190	-1.090	0.570	-0.490
2020/01/31 13:56:16.5	1.160	-1.120	0.630	-0.510
2020/01/31 13:56:16.6	1.120	-1.140	0.690	-0.540
2020/01/31 13:56:16.7	1.090	-1.160	0.730	-0.560
2020/01/31 13:56:16.8	1.050	-1.170	0.770	-0.580
2020/01/31 13:56:16.9	1.010	-1.170	0.810	-0.600
2020/01/31 13:56:17.0	0.970	-1.170	0.830	-0.620
2020/01/31 13:56:17.1	0.930	-1.160	0.850	-0.630
2020/01/31 13:56:17.2	0.890	-1.150	0.860	-0.650
2020/01/31 13:56:17.3	0.840	-1.130	0.860	-0.660
2020/01/31 13:56:17.4	0.800	-1.100	0.860	-0.680
2020/01/31 13:56:17.5	0.760	-1.060	0.840	-0.690
2020/01/31 13:56:17.6	0.720	-1.020	0.820	-0.700
2020/01/31 13:56:17.7	0.680	-0.980	0.790	-0.710
2020/01/31 13:56:17.8	0.640	-0.930	0.760	-0.710
2020/01/31 13:56:17.9	0.610	-0.870	0.710	-0.720
2020/01/31 13:56:18.0	0.570	-0.810	0.660	-0.720
2020/01/31 13:56:18.1	0.530	-0.740	0.610	-0.720
2020/01/31 13:56:18.2	0.500	-0.670	0.540	-0.720
2020/01/31 13:56:18.3	0.470	-0.600	0.480	-0.710
2020/01/31 13:56:18.4	0.430	-0.520	0.410	-0.700
2020/01/31 13:56:18.5	0.400	-0.440	0.330	-0.690
2020/01/31 13:56:18.6	0.370	-0.360	0.250	-0.680
2020/01/31 13:56:18.7	0.340	-0.280	0.180	-0.660
2020/01/31 13:56:18.8	0.320	-0.200	0.100	-0.640
2020/01/31 13:56:18.9	0.290	-0.120	0.020	-0.620
2020/01/31 13:56:19.0	0.270	-0.030	-0.070	-0.600
2020/01/31 13:56:19.1	0.240	0.050	-0.140	-0.580
2020/01/31 13:56:19.2	0.220	0.130	-0.220	-0.550
2020/01/31 13:56:19.3	0.200	0.200	-0.300	-0.520
2020/01/31 13:56:19.4	0.180	0.280	-0.370	-0.490
2020/01/31 13:56:19.5	0.160	0.350	-0.440	-0.450
2020/01/31 13:56:19.6	0.150	0.420	-0.500	-0.410
2020/01/31 13:56:19.7	0.130	0.480	-0.560	-0.380
2020/01/31 13:56:19.8	0.110	0.540	-0.620	-0.330
2020/01/31 13:56:19.9	0.100	0.600	-0.670	-0.290
2020/01/31 13:56:20.0	0.080	0.650	-0.720	-0.250
2020/01/31 13:56:20.1	0.070	0.690	-0.760	-0.200
2020/01/31 13:56:20.2	0.060	0.740	-0.800	-0.150
2020/01/31 13:56:20.3	0.050	0.770	-0.830	-0.100
2020/01/31 13:56:20.4	0.040	0.800	-0.850	-0.050
2020/01/31 13:56:20.5	0.030	0.830	-0.880	-0.000
2020/01/31 13:56:20.6	0.020	0.850	-0.890	0.050
2020/01/31 13:56:20.7	0.010	0.870	-0.910	0.100
2020/01/31 13:56:20.8	0.000	0.880	-0.920	0.150
2020/01/31 13:56:20.9	0.000	0.880	-0.920	0.200
2020/01/31 13:56:21.0	359.990	0.890	-0.930	0.250
2020/01/31 13:56:21.1	359.990	0.880	-0.930	0.300
2020/01/31 13:56:21.2	359.980	0.880	-0.930	0.340
2020/01/31 13:56:21.3	359.980	0.870	-0.930	0.380
2020/01/31 13:56:21.4	359.970	0.850	-0.930	0.420
2020/01/31 13:56:21.5	359.970	0.830	-0.920	0.450
2020/01/31 13:56:21.6	359.970	0.810	-0.920	0.490
2020/01/31 13:56:21.7	359.960	0.780	-0.910	0.510
2020/01/31 13:56:21.8	359.960	0.760	-0.910	0.530
2020/01/31 13:56:21.9	359.960	0.730	-0.900	0.550
2020/01/31 13:56:22.0	359.970	0.690	-0.890	0.560
2020/01/31 13:56:22.1	359.970	0.660	-0.890	0.570
2020/01/31 13:56:22.2	359.970	0.620	-0.880	0.570
2020/01/31 13:56:22.3	359.980	0.580	-0.880	0.570
2020/01/31 13:56:22.4	359.990	0.540	-0.880	0.550
2020/01/31 13:56:22.5	0.000	0.500	-0.870	0.540
2020/01/31 13:56:22.6	0.020	0.460	-0.870	0.520
2020/01/31 13:56:22.7	0.030	0.410	-0.870	0.490
2020/01/31 13:56:22.8	0.050	0.370	-0.870	0.450
2020/01/31 13:56:22.9	0.070	0.330	-0.880	0.410
2020/01/31 13:56:23.0	0.090	0.280	-0.880	0.360
2020/01/31 13:56:23.1	0.110	0.240	-0.880	0.310
2020/01/31 13:56:23.2	0.130	0.190	-0.880	0.250
2020/01/31 13:56:23.3	0.160	0.150	-0.880	0.190
2020/01/31 13:56:23.4	0.190	0.100	-0.880	0.120
2020/01/31 13:56:23.5	0.220	0.060	-0.870	0.050
2020/01/31 13:56:23.6	0.240	0.020	-0.870	-0.030
2020/01/31 13:56:23.7	0.280	-0.020	-0.860	-0.110
2020/01/31 13:56:23.8	0.310	-0.070	-0.840	-0.190
2020/01/31 13:56:23.9	0.340	-0.110	-0.830	-0.260
2020/01/31 13:56:24.0	0.380	-0.140	-0.810	-0.340
2020/01/31 13:56:24.1	0.410	-0.180	-0.780	-0.420
2020/01/31 13:56:24.2	0.450	-0.220	-0.750	-0.500
2020/01/31 13:56:24.3	0.480	-0.250	-0.710	-0.580
2020/01/31 13:56:24.4	0.510	-0.290	-0.670	-0.650
2020/01/31 13:56:24.5	0.540	-0.320	-0.630	-0.720
2020/01/31 13:56:24.6	0.570	-0.350	-0.570	-0.780
2020/01/31 13:56:24.7	0.600	-0.380	-0.520	-0.840
2020/01/31 13:56:24.8	0.620	-0.400	-0.450	-0.900
2020/01/31 13:56:24.9	0.640	-0.430	-0.380	-0.950
2020/01/31 13:56:25.0	0.660	-0.450	-0.310	-0.990
2020/01/31 13:56:25.1	0.670	-0.470	-0.230	-1.030
2020/01/31 13:56:25.2	0.690	-0.490	-0.150	-1.060
2020/01/31 13:56:25.3	0.690	-0.500	-0.060	-1.090
2020/01/31 13:56:25.4	0.700	-0.510	0.030	-1.100
2020/01/31 13:56:25.5	0.700	-0.530	0.120	-1.120
2020/01/31 13:56:25.6	0.700	-0.530	0.210	-1.120
2020/01/31 13:56:25.7	0.700	-0.540	0.300	-1.120
2020/01/31 13:56:25.8	0.690	-0.540	0.390	-1.110
2020/01/31 13:56:25.9	0.670	-0.540	0.470	-1.090
2020/01/31 13:56:26.0	0.650	-0.540	0.560	-1.060
2020/01/31 13:56:26.1	0.630	-0.530	0.640	-1.030
2020/01/31 13:56:26.2	0.610	-0.520	0.720	-0.990
2020/01/31 13:56:26.3	0.580	-0.510	0.790	-0.940
2020/01/31 13:56:26.4	0.540	-0.490	0.850	-0.890
2020/01/31 13:56:26.5	0.510	-0.470	0.910	-0.830
2020/01/31 13:56:26.6	0.480	-0.450	0.950	-0.770
2020/01/31 13:56:26.7	0.440	-0.430	0.990	-0.710
2020/01/31 13:56:26.8	0.400	-0.400	1.030	-0.640
2020/01/31 13:56:26.9	0.360	-0.370	1.050	-0.570
2020/01/31 13:56:27.0	0.320	-0.340	1.070	-0.500
2020/01/31 13:56:27.1	0.280	-0.310	1.070	-0.430
2020/01/31 13:56:27.2	0.240	-0.270	1.070	-0.350
2020/01/31 13:56:27.3	0.190	-0.230	1.060	-0.270
2020/01/31 13:56:27.4	0.150	-0.190	1.040	-0.200
2020/01/31 13:56:27.5	0.110	-0.150	1.010	-0.120
2020/01/31 13:56:27.6	0.070	-0.110	0.970	-0.030
2020/01/31 13:56:27.7	0.030	-0.070	0.930	0.040
2020/01/31 13:56:27.8	0.000	-0.020	0.880	0.120
2020/01/31 13:56:27.9	359.960	0.020	0.820	0.190
2020/01/31 13:56:28.0	359.930	0.070	0.760	0.270
2020/01/31 13:56:28.1	359.890	0.110	0.690	0.340
2020/01/31 13:56:28.2	359.860	0.150	0.610	0.410
2020/01/31 13:56:28.3	359.830	0.190	0.540	0.480
2020/01/31 13:56:28.4	359.810	0.230	0.450	0.550
2020/01/31 13:56:28.5	359.780	0.270	0.370	0.610
2020/01/31 13:56:28.6	359.770	0.310	0.280	0.680
2020/01/31 13:56:28.7	359.740	0.340	0.200	0.740
2020/01/31 13:56:28.8	359.720	0.370	0.110	0.790
2020/01/31 13:56:28.9	359.700	0.400	0.020	0.850
2020/01/31 13:56:29.0	359.670	0.420	-0.070	0.900
2020/01/31 13:56:29.1	359.650	0.440	-0.150	0.940
2020/01/31 13:56:29.2	359.640	0.460	-0.230	0.980
2020/01/31 13:56:29.3	359.620	0.470	-0.320	1.020
2020/01/31 13:56:29.4	359.600	0.480	-0.390	1.050
2020/01/31 13:56:29.5	359.580	0.480	-0.470	1.070
2020/01/31 13:56:29.6	359.570	0.470	-0.540	1.090
2020/01/31 13:56:29.7	359.560	0.470	-0.610	1.110
2020/01/31 13:56:29.8	359.540	0.460	-0.670	1.120
2020/01/31 13:56:29.9	359.530	0.440	-0.720	1.120
2020/01/31 13:56:30.0	359.510	0.420	-0.780	1.120
2020/01/31 13:56:30.1	359.490	0.390	-0.820	1.120
2020/01/31 13:56:30.2	359.480	0.360	-0.860	1.110
2020/01/31 13:56:30.3	359.460	0.330	-0.900	1.090
2020/01/31 13:56:30.4	359.440	0.290	-0.930	1.070
2020/01/31 13:56:30.5	359.420	0.260	-0.950	1.040
2020/01/31 13:56:30.6	359.410	0.210	-0.970	1.010
2020/01/31 13:56:30.7	359.390	0.170	-0.990	0.980
2020/01/31 13:56:30.8	359.370	0.120	-0.990	0.930
2020/01/31 13:56:30.9	359.360	0.080	-1.000	0.890
2020/01/31 13:56:31.0	359.340	0.030	-1.000	0.840
2020/01/31 13:56:31.1	359.330	-0.020	-0.990	0.780
2020/01/31 13:56:31.2	359.310	-0.070	-0.980	0.720
2020/01/31 13:56:31.3	359.300	-0.120	-0.970	0.650
2020/01/31 13:56:31.4	359.290	-0.170	-0.960	0.580
2020/01/31 13:56:31.5	359.280	-0.210	-0.940	0.500
2020/01/31 13:56:31.6	359.280	-0.250	-0.920	0.420
2020/01/31 13:56:31.7	359.270	-0.290	-0.900	0.330
2020/01/31 13:56:31.8	359.270	-0.330	-0.880	0.250
2020/01/31 13:56:31.9	359.280	-0.360	-0.860	0.160
2020/01/31 13:56:32.0	359.280	-0.390	-0.840	0.070
2020/01/31 13:56:32.1	359.300	-0.410	-0.820	-0.020
2020/01/31 13:56:32.2	359.310	-0.430	-0.800	-0.120
2020/01/31 13:56:32.3	359.330	-0.450	-0.780	-0.210
2020/01/31 13:56:32.4	359.350	-0.450	-0.770	-0.300
2020/01/31 13:56:32.5	359.370	-0.460	-0.760	-0.400
2020/01/31 13:56:32.6	359.400	-0.450	-0.750	-0.490
2020/01/31 13:56:32.7	359.430	-0.440	-0.740	-0.580
2020/01/31 13:56:32.8	359.460	-0.430	-0.730	-0.670
2020/01/31 13:56:32.9	359.500	-0.410	-0.730	-0.760
2020/01/31 13:56:33.0	359.540	-0.380	-0.720	-0.840
2020/01/31 13:56:33.1	359.580	-0.350	-0.720	-0.930
2020/01/31 13:56:33.2	359.620	-0.320	-0.720	-1.000
2020/01/31 13:56:33.3	359.660	-0.280	-0.710	-1.080
2020/01/31 13:56:33.4	359.710	-0.240	-0.710	-1.150
2020/01/31 13:56:33.5	359.750	-0.190	-0.710	-1.210
2020/01/31 13:56:33.6	359.800	-0.140	-0.710	-1.280
2020/01/31 13:56:33.7	359.840	-0.090	-0.700	-1.330
2020/01/31 13:56:33.8	359.880	-0.040	-0.690	-1.380
2020/01/31 13:56:33.9	359.920	0.010	-0.680	-1.420
2020/01/31 13:56:34.0	359.960	0.060	-0.670	-1.450
2020/01/31 13:56:34.1	0.000	0.100	-0.650	-1.480
2020/01/31 13:56:34.2	0.040	0.150	-0.630	-1.500
2020/01/31 13:56:34.3	0.070	0.200	-0.610	-1.510
2020/01/31 13:56:34.4	0.100	0.240	-0.570	-1.520
2020/01/31 13:56:34.5	0.120	0.280	-0.540	-1.520
2020/01/31 13:56:34.6	0.130	0.310	-0.500	-1.500
2020/01/31 13:56:34.7	0.150	0.340	-0.460	-1.490
2020/01/31 13:56:34.8	0.160	0.370	-0.410	-1.460
2020/01/31 13:56:34.9	0.170	0.390	-0.360	-1.430
2020/01/31 13:56:35.0	0.170	0.410	-0.300	-1.390
2020/01/31 13:56:35.1	0.170	0.420	-0.240	-1.340
2020/01/31 13:56:35.2	0.160	0.420	-0.180	-1.290
2020/01/31 13:56:35.3	0.150	0.420	-0.120	-1.230
2020/01/31 13:56:35.4	0.140	0.410	-0.060	-1.160
2020/01/31 13:56:35.5	0.120	0.400	0.010	-1.090
2020/01/31 13:56:35.6	0.100	0.380	0.070	-1.010
2020/01/31 13:56:35.7	0.070	0.360	0.130	-0.930
2020/01/31 13:56:35.8	0.040	0.340	0.190	-0.840
2020/01/31 13:56:35.9	0.010	0.300	0.240	-0.750
2020/01/31 13:56:36.0	359.970	0.270	0.300	-0.660
2020/01/31 13:56:36.1	359.930	0.230	0.350	-0.570
2020/01/31 13:56:36.2	359.890	0.190	0.390	-0.470
2020/01/31 13:56:36.3	359.850	0.140	0.430	-0.380
2020/01/31 13:56:36.4	359.800	0.090	0.470	-0.290
2020/01/31 13:56:36.5	359.750	0.040	0.500	-0.190
2020/01/31 13:56:36.6	359.700	-0.010	0.520	-0.100
2020/01/31 13:56:36.7	359.660	-0.060	0.530	-0.010
2020/01/31 13:56:36.8	359.610	-0.110	0.540	0.080
2020/01/31 13:56:36.9	359.560	-0.160	0.550	0.160
2020/01/31 13:56:37.0	359.510	-0.200	0.540	0.230
2020/01/31 13:56:37.1	359.470	-0.250	0.530	0.300
2020/01/31 13:56:37.2	359.420	-0.290	0.520	0.360
2020/01/31 13:56:37.3	359.380	-0.330	0.490	0.420
2020/01/31 13:56:37.4	359.340	-0.370	0.460	0.470
2020/01/31 13:56:37.5	359.310	-0.400	0.430	0.520
2020/01/31 13:56:37.6	359.280	-0.420	0.390	0.550
2020/01/31 13:56:37.7	359.250	-0.440	0.350	0.580
2020/01/31 13:56:37.8	359.230	-0.460	0.300	0.610
2020/01/31 13:56:37.9	359.200	-0.470	0.250	0.630
2020/01/31 13:56:38.0	359.180	-0.470	0.200	0.640
2020/01/31 13:56:38.1	359.160	-0.470	0.150	0.650
2020/01/31 13:56:38.2	359.140	-0.460	0.100	0.660
2020/01/31 13:56:38.3	359.120	-0.450	0.040	0.660
2020/01/31 13:56:38.4	359.100	-0.440	-0.010	0.660
2020/01/31 13:56:38.5	359.080	-0.410	-0.050	0.670
2020/01/31 13:56:38.6	359.070	-0.390	-0.100	0.670
2020/01/31 13:56:38.7	359.050	-0.360	-0.140	0.670
2020/01/31 13:56:38.8	359.030	-0.320	-0.180	0.670
2020/01/31 13:56:38.9	359.010	-0.290	-0.210	0.680
2020/01/31 13:56:39.0	358.990	-0.250	-0.240	0.680
2020/01/31 13:56:39.1	358.970	-0.200	-0.270	0.680
2020/01/31 13:56:39.2	358.950	-0.160	-0.290	0.680
2020/01/31 13:56:39.3	358.930	-0.120	-0.300	0.690
2020/01/31 13:56:39.4	358.910	-0.070	-0.310	0.690
2020/01/31 13:56:39.5	358.880	-0.030	-0.320	0.690
2020/01/31 13:56:39.6	358.870	0.020	-0.320	0.690
2020/01/31 13:56:39.7	358.850	0.060	-0.320	0.700
2020/01/31 13:56:39.8	358.830	0.100	-0.320	0.700
2020/01/31 13:56:39.9	358.820	0.140	-0.310	0.700
2020/01/31 13:56:40.0	358.800	0.180	-0.300	0.700
2020/01/31 13:56:40.1	358.780	0.220	-0.290	0.700
2020/01/31 13:56:40.2	358.770	0.250	-0.280	0.710
2020/01/31 13:56:40.3	358.760	0.280	-0.270	0.710
2020/01/31 13:56:40.4	358.750	0.310	-0.250	0.700
2020/01/31 13:56:40.5	358.740	0.330	-0.240	0.700
2020/01/31 13:56:40.6	358.740	0.360	-0.230	0.700
2020/01/31 13:56:40.7	358.730	0.370	-0.220	0.700
2020/01/31 13:56:40.8	358.730	0.390	-0.210	0.700
2020/01/31 13:56:40.9	358.730	0.400	-0.200	0.690
2020/01/31 13:56:41.0	358.730	0.410	-0.190	0.690
2020/01/31 13:56:41.1	358.730	0.420	-0.180	0.680
2020/01/31 13:56:41.2	358.740	0.420	-0.180	0.670
2020/01/31 13:56:41.3	358.740	0.420	-0.180	0.670
2020/01/31 13:56:41.4	358.750	0.420	-0.180	0.650
2020/01/31 13:56:41.5	358.760	0.420	-0.190	0.640
2020/01/31 13:56:41.6	358.780	0.410	-0.200	0.630
2020/01/31 13:56:41.7	358.790	0.410	-0.200	0.610
2020/01/31 13:56:41.8	358.800	0.400	-0.220	0.600
2020/01/31 13:56:41.9	358.820	0.390	-0.230	0.580
2020/01/31 13:56:42.0	358.830	0.380	-0.240	0.560
2020/01/31 13:56:42.1	358.850	0.360	-0.260	0.540
2020/01/31 13:56:42.2	358.860	0.350	-0.270	0.520
2020/01/31 13:56:42.3	358.870	0.340	-0.290	0.500
2020/01/31 13:56:42.4	358.890	0.320	-0.300	0.480
2020/01/31 13:56:42.5	358.900	0.300	-0.320	0.470
2020/01/31 13:56:42.6	358.910	0.290	-0.330	0.450
2020/01/31 13:56:42.7	358.920	0.270	-0.340	0.430
2020/01/31 13:56:42.8	358.920	0.250	-0.350	0.420
2020/01/31 13:56:42.9	358.930	0.230	-0.360	0.410
2020/01/31 13:56:43.0	358.930	0.220	-0.370	0.390
2020/01/31 13:56:43.1	358.930	0.200	-0.370	0.380
2020/01/31 13:56:43.2	358.940	0.180	-0.370	0.370
2020/01/31 13:56:43.3	358.940	0.160	-0.380	0.360
2020/01/31 13:56:43.4	358.930	0.140	-0.380	0.350
2020/01/31 13:56:43.5	358.930	0.120	-0.380	0.340
2020/01/31 13:56:43.6	358.930	0.110	-0.380	0.320
2020/01/31 13:56:43.7	358.930	0.090	-0.380	0.310
2020/01/31 13:56:43.8	358.930	0.070	-0.380	0.300
2020/01/31 13:56:43.9	358.920	0.050	-0.380	0.280
2020/01/31 13:56:44.0	358.920	0.040	-0.380	0.260
2020/01/31 13:56:44.1	358.920	0.020	-0.390	0.250
2020/01/31 13:56:44.2	358.920	0.010	-0.390	0.220
2020/01/31 13:56:44.3	358.920	-0.010	-0.400	0.200
2020/01/31 13:56:44.4	358.920	-0.030	-0.410	0.170
2020/01/31 13:56:44.5	358.920	-0.040	-0.420	0.150
2020/01/31 13:56:44.6	358.920	-0.060	-0.430	0.120
2020/01/31 13:56:44.7	358.930	-0.070	-0.440	0.080
2020/01/31 13:56:44.8	358.930	-0.090	-0.450	0.040
2020/01/31 13:56:44.9	358.930	-0.100	-0.470	0.000
2020/01/31 13:56:45.0	358.940	-0.120	-0.480	-0.040
2020/01/31 13:56:45.1	358.940	-0.130	-0.500	-0.090
2020/01/31 13:56:45.2	358.950	-0.150	-0.520	-0.140
2020/01/31 13:56:45.3	358.960	-0.160	-0.530	-0.190
2020/01/31 13:56:45.4	358.960	-0.180	-0.550	-0.250
2020/01/31 13:56:45.5	358.970	-0.190	-0.570	-0.310
2020/01/31 13:56:45.6	358.980	-0.200	-0.580	-0.370
2020/01/31 13:56:45.7	358.990	-0.220	-0.590	-0.430
2020/01/31 13:56:45.8	359.000	-0.230	-0.610	-0.490
2020/01/31 13:56:45.9	359.010	-0.240	-0.620	-0.550
2020/01/31 13:56:46.0	359.020	-0.260	-0.630	-0.610
2020/01/31 13:56:46.1	359.030	-0.270	-0.630	-0.670
2020/01/31 13:56:46.2	359.040	-0.280	-0.630	-0.730
2020/01/31 13:56:46.3	359.060	-0.290	-0.630	-0.790
2020/01/31 13:56:46.4	359.070	-0.310	-0.630	-0.850
2020/01/31 13:56:46.5	359.080	-0.320	-0.620	-0.900
2020/01/31 13:56:46.6	359.090	-0.330	-0.610	-0.950
2020/01/31 13:56:46.7	359.100	-0.340	-0.600	-1.000
2020/01/31 13:56:46.8	359.120	-0.350	-0.590	-1.050
2020/01/31 13:56:46.9	359.130	-0.350	-0.570	-1.100
2020/01/31 13:56:47.0	359.150	-0.360	-0.550	-1.140
2020/01/31 13:56:47.1	359.170	-0.360	-0.520	-1.180
2020/01/31 13:56:47.2	359.190	-0.370	-0.500	-1.210
2020/01/31 13:56:47.3	359.200	-0.370	-0.470	-1.240
2020/01/31 13:56:47.4	359.220	-0.370	-0.440	-1.270
2020/01/31 13:56:47.5	359.240	-0.370	-0.400	-1.290
2020/01/31 13:56:47.6	359.250	-0.370	-0.370	-1.310
2020/01/31 13:56:47.7	359.260	-0.370	-0.340	-1.330
2020/01/31 13:56:47.8	359.280	-0.360	-0.300	-1.340
2020/01/31 13:56:47.9	359.290	-0.350	-0.270	-1.340
2020/01/31 13:56:48.0	359.310	-0.350	-0.230	-1.340
2020/01/31 13:56:48.1	359.320	-0.340	-0.200	-1.340
2020/01/31 13:56:48.2	359.330	-0.330	-0.160	-1.330
2020/01/31 13:56:48.3	359.330	-0.310	-0.120	-1.320
2020/01/31 13:56:48.4	359.340	-0.300	-0.090	-1.300
2020/01/31 13:56:48.5	359.340	-0.290	-0.060	-1.270
2020/01/31 13:56:48.6	359.320	-0.270	-0.020	-1.240
2020/01/31 13:56:48.7	359.320	-0.250	0.010	-1.200
2020/01/31 13:56:48.8	359.300	-0.230	0.040	-1.160
2020/01/31 13:56:48.9	359.290	-0.220	0.060	-1.110
2020/01/31 13:56:49.0	359.270	-0.200	0.090	-1.060
2020/01/31 13:56:49.1	359.250	-0.180	0.110	-1.010
2020/01/31 13:56:49.2	359.230	-0.160	0.130	-0.960
2020/01/31 13:56:49.3	359.210	-0.130	0.150	-0.900
2020/01/31 13:56:49.4	359.180	-0.110	0.170	-0.840
2020/01/31 13:56:49.5	359.160	-0.090	0.180	-0.780
2020/01/31 13:56:49.6	359.140	-0.070	0.190	-0.710
2020/01/31 13:56:49.7	359.120	-0.050	0.200	-0.650
2020/01/31 13:56:49.8	359.090	-0.030	0.210	-0.580
2020/01/31 13:56:49.9	359.060	-0.010	0.210	-0.520
2020/01/31 13:56:50.0	359.040	0.010	0.210	-0.450
2020/01/31 13:56:50.1	359.010	0.030	0.210	-0.390
2020/01/31 13:56:50.2	358.990	0.050	0.210	-0.330
2020/01/31 13:56:50.3	358.970	0.070	0.200	-0.270
2020/01/31 13:56:50.4	358.950	0.090	0.200	-0.210
2020/01/31 13:56:50.5	358.940	0.100	0.190	-0.150
2020/01/31 13:56:50.6	358.920	0.120	0.170	-0.080
2020/01/31 13:56:50.7	358.910	0.140	0.160	-0.030
2020/01/31 13:56:50.8	358.900	0.150	0.150	0.030
2020/01/31 13:56:50.9	358.890	0.170	0.130	0.080
2020/01/31 13:56:51.0	358.890	0.180	0.110	0.130
2020/01/31 13:56:51.1	358.880	0.190	0.090	0.180
2020/01/31 13:56:51.2	358.870	0.200	0.070	0.230
2020/01/31 13:56:51.3	358.870	0.210	0.060	0.280
2020/01/31 13:56:51.4	358.870	0.220	0.040	0.330
2020/01/31 13:56:51.5	358.860	0.220	0.020	0.380
2020/01/31 13:56:51.6	358.860	0.230	0.010	0.440
2020/01/31 13:56:51.7	358.850	0.240	-0.010	0.490
2020/01/31 13:56:51.8	358.850	0.240	-0.020	0.540
2020/01/31 13:56:51.9	358.840	0.240	-0.030	0.590
2020/01/31 13:56:52.0	358.840	0.240	-0.040	0.640
2020/01/31 13:56:52.1	358.830	0.240	-0.050	0.680
2020/01/31 13:56:52.2	358.820	0.240	-0.060	0.730
2020/01/31 13:56:52.3	358.810	0.240	-0.060	0.770
2020/01/31 13:56:52.4	358.810	0.240	-0.060	0.820
2020/01/31 13:56:52.5	358.800	0.240	-0.060	0.860
2020/01/31 13:56:52.6	358.790	0.230	-0.070	0.890
2020/01/31 13:56:52.7	358.780	0.230	-0.070	0.930
2020/01/31 13:56:52.8	358.780	0.230	-0.070	0.960
2020/01/31 13:56:52.9	358.770	0.220	-0.070	0.980
2020/01/31 13:56:53.0	358.760	0.220	-0.070	1.000
2020/01/31 13:56:53.1	358.750	0.210	-0.070	1.020
2020/01/31 13:56:53.2	358.750	0.210	-0.080	1.030
2020/01/31 13:56:53.3	358.750	0.210	-0.080	1.030
2020/01/31 13:56:53.4	358.740	0.200	-0.090	1.030
2020/01/31 13:56:53.5	358.740	0.200	-0.100	1.030
2020/01/31 13:56:53.6	358.740	0.190	-0.100	1.020
2020/01/31 13:56:53.7	358.750	0.190	-0.120	1.000
2020/01/31 13:56:53.8	358.750	0.190	-0.130	0.980
2020/01/31 13:56:53.9	358.750	0.190	-0.150	0.950
2020/01/31 13:56:54.0	358.750	0.180	-0.170	0.920
2020/01/31 13:56:54.1	358.760	0.180	-0.190	0.880
2020/01/31 13:56:54.2	358.770	0.180	-0.220	0.840
2020/01/31 13:56:54.3	358.770	0.180	-0.240	0.800
2020/01/31 13:56:54.4	358.780	0.180	-0.270	0.750
2020/01/31 13:56:54.5	358.790	0.180	-0.300	0.700
2020/01/31 13:56:54.6	358.790	0.170	-0.330	0.650
2020/01/31 13:56:54.7	358.800	0.170	-0.360	0.590
2020/01/31 13:56:54.8	358.800	0.170	-0.400	0.530
2020/01/31 13:56:54.9	358.810	0.170	-0.430	0.480
2020/01/31 13:56:55.0	358.820	0.170	-0.470	0.420
2020/01/31 13:56:55.1	358.820	0.170	-0.500	0.360
2020/01/31 13:56:55.2	358.830	0.160	-0.530	0.300
2020/01/31 13:56:55.3	358.830	0.160	-0.570	0.240
2020/01/31 13:56:55.4	358.830	0.160	-0.600	0.190
2020/01/31 13:56:55.5	358.840	0.150	-0.630	0.130
2020/01/31 13:56:55.6	358.840	0.150	-0.660	0.070
2020/01/31 13:56:55.7	358.840	0.140	-0.690	0.010
2020/01/31 13:56:55.8	358.840	0.140	-0.720	-0.050
2020/01/31 13:56:55.9	358.850	0.130	-0.740	-0.110
2020/01/31 13:56:56.0	358.850	0.120	-0.760	-0.170
2020/01/31 13:56:56.1	358.850	0.110	-0.790	-0.230
2020/01/31 13:56:56.2	358.860	0.110	-0.800	-0.280
2020/01/31 13:56:56.3	358.860	0.100	-0.820	-0.340
2020/01/31 13:56:56.4	358.870	0.090	-0.830	-0.400
2020/01/31 13:56:56.5	358.880	0.080	-0.840	-0.450
2020/01/31 13:56:56.6	358.880	0.070	-0.850	-0.500
2020/01/31 13:56:56.7	358.890	0.060	-0.860	-0.550
2020/01/31 13:56:56.8	358.900	0.050	-0.850	-0.590
2020/01/31 13:56:56.9	358.910	0.040	-0.850	-0.630
2020/01/31 13:56:57.0	358.920	0.020	-0.840	-0.670
2020/01/31 13:56:57.1	358.930	0.010	-0.830	-0.710
2020/01/31 13:56:57.2	358.940	0.000	-0.820	-0.740
2020/01/31 13:56:57.3	358.950	-0.010	-0.800	-0.770
2020/01/31 13:56:57.4	358.970	-0.020	-0.790	-0.800
2020/01/31 13:56:57.5	358.980	-0.040	-0.760	-0.830
2020/01/31 13:56:57.6	358.990	-0.050	-0.740	-0.850
2020/01/31 13:56:57.7	359.010	-0.060	-0.710	-0.870
2020/01/31 13:56:57.8	359.030	-0.070	-0.680	-0.890
2020/01/31 13:56:57.9	359.050	-0.080	-0.650	-0.910
2020/01/31 13:56:58.0	359.070	-0.100	-0.620	-0.920
2020/01/31 13:56:58.1	359.090	-0.110	-0.580	-0.940
2020/01/31 13:56:58.2	359.110	-0.120	-0.540	-0.950
2020/01/31 13:56:58.3	359.130	-0.130	-0.500	-0.960
2020/01/31 13:56:58.4	359.150	-0.150	-0.460	-0.970
2020/01/31 13:56:58.5	359.170	-0.160	-0.420	-0.980
2020/01/31 13:56:58.6	359.190	-0.170	-0.380	-0.980
2020/01/31 13:56:58.7	359.210	-0.180	-0.330	-0.990
2020/01/31 13:56:58.8	359.230	-0.200	-0.290	-0.990
2020/01/31 13:56:58.9	359.250	-0.210	-0.240	-0.990
2020/01/31 13:56:59.0	359.270	-0.220	-0.190	-0.990
2020/01/31 13:56:59.1	359.280	-0.230	-0.150	-0.980
2020/01/31 13:56:59.2	359.300	-0.240	-0.100	-0.970
2020/01/31 13:56:59.3	359.310	-0.250	-0.050	-0.960
2020/01/31 13:56:59.4	359.330	-0.260	-0.000	-0.950
2020/01/31 13:56:59.5	359.340	-0.280	0.050	-0.940
2020/01/31 13:56:59.6	359.350	-0.290	0.090	-0.910
2020/01/31 13:56:59.7	359.360	-0.300	0.140	-0.890
2020/01/31 13:56:59.8	359.360	-0.310	0.180	-0.870
2020/01/31 13:56:59.9	359.370	-0.320	0.230	-0.850
2020/01/31 13:57:00.0	359.370	-0.330	0.270	-0.830
2020/01/31 13:57:00.1	359.370	-0.340	0.310	-0.800
2020/01/31 13:57:00.2	359.370	-0.350	0.350	-0.780
2020/01/31 13:57:00.3	359.370	-0.360	0.380	-0.750
2020/01/31 13:57:00.4	359.370	-0.370	0.410	-0.730
2020/01/31 13:57:00.5	359.360	-0.380	0.440	-0.700
2020/01/31 13:57:00.6	359.370	-0.390	0.470	-0.670
2020/01/31 13:57:00.7	359.360	-0.400	0.490	-0.650
2020/01/31 13:57:00.8	359.350	-0.410	0.500	-0.620
2020/01/31 13:57:00.9	359.350	-0.410	0.520	-0.600
2020/01/31 13:57:01.0	359.340	-0.420	0.530	-0.580
2020/01/31 13:57:01.1	359.330	-0.420	0.530	-0.550
2020/01/31 13:57:01.2	359.310	-0.420	0.530	-0.530
2020/01/31 13:57:01.3	359.300	-0.420	0.520	-0.500
2020/01/31 13:57:01.4	359.280	-0.420	0.520	-0.470
2020/01/31 13:57:01.5	359.260	-0.420	0.500	-0.440
2020/01/31 13:57:01.6	359.240	-0.410	0.490	-0.410
2020/01/31 13:57:01.7	359.220	-0.400	0.470	-0.370
2020/01/31 13:57:01.8	359.190	-0.400	0.450	-0.330
2020/01/31 13:57:01.9	359.150	-0.390	0.430	-0.290
2020/01/31 13:57:02.0	359.120	-0.370	0.400	-0.250
2020/01/31 13:57:02.1	359.080	-0.360	0.380	-0.210
2020/01/31 13:57:02.2	359.040	-0.340	0.350	-0.170
2020/01/31 13:57:02.3	358.990	-0.330	0.320	-0.120
2020/01/31 13:57:02.4	358.950	-0.310	0.290	-0.070
2020/01/31 13:57:02.5	358.900	-0.280	0.260	-0.030
2020/01/31 13:57:02.6	358.850	-0.260	0.230	0.020
2020/01/31 13:57:02.7	358.800	-0.240	0.200	0.060
2020/01/31 13:57:02.8	358.760	-0.210	0.170	0.100
2020/01/31 13:57:02.9	358.710	-0.180	0.130	0.140
2020/01/31 13:57:03.0	358.660	-0.150	0.100	0.180
2020/01/31 13:57:03.1	358.610	-0.120	0.060	0.220
2020/01/31 13:57:03.2	358.570	-0.090	0.030	0.250
2020/01/31 13:57:03.3	358.520	-0.060	-0.010	0.290
2020/01/31 13:57:03.4	358.480	-0.020	-0.050	0.310
2020/01/31 13:57:03.5	358.450	0.010	-0.080	0.340
2020/01/31 13:57:03.6	358.410	0.050	-0.130	0.360
2020/01/31 13:57:03.7	358.380	0.080	-0.170	0.380
2020/01/31 13:57:03.8	358.350	0.120	-0.210	0.400
2020/01/31 13:57:03.9	358.330	0.160	-0.260	0.410
2020/01/31 13:57:04.0	358.310	0.190	-0.300	0.420
2020/01/31 13:57:04.1	358.300	0.230	-0.340	0.420
2020/01/31 13:57:04.2	358.290	0.270	-0.390	0.420
2020/01/31 13:57:04.3	358.280	0.300	-0.430	0.420
2020/01/31 13:57:04.4	358.280	0.340	-0.480	0.420
2020/01/31 13:57:04.5	358.280	0.370	-0.520	0.420
2020/01/31 13:57:04.6	358.290	0.400	-0.570	0.410
2020/01/31 13:57:04.7	358.290	0.430	-0.610	0.400
2020/01/31 13:57:04.8	358.310	0.460	-0.650	0.390
2020/01/31 13:57:04.9	358.320	0.490	-0.690	0.380
2020/01/31 13:57:05.0	358.340	0.510	-0.730	0.370
2020/01/31 13:57:05.1	358.360	0.530	-0.760	0.350
2020/01/31 13:57:05.2	358.380	0.550	-0.800	0.340
2020/01/31 13:57:05.3	358.410	0.570	-0.820	0.320
2020/01/31 13:57:05.4	358.430	0.580	-0.850	0.300
2020/01/31 13:57:05.5	358.460	0.590	-0.870	0.280
2020/01/31 13:57:05.6	358.480	0.590	-0.890	0.260
2020/01/31 13:57:05.7	358.510	0.600	-0.910	0.240
2020/01/31 13:57:05.8	358.540	0.590	-0.920	0.210
2020/01/31 13:57:05.9	358.570	0.590	-0.930	0.190
2020/01/31 13:57:06.0	358.600	0.580	-0.940	0.170
2020/01/31 13:57:06.1	358.630	0.570	-0.950	0.150
2020/01/31 13:57:06.2	358.670	0.560	-0.950	0.130
2020/01/31 13:57:06.3	358.700	0.540	-0.950	0.110
2020/01/31 13:57:06.4	358.730	0.530	-0.950	0.090
2020/01/31 13:57:06.5	358.770	0.510	-0.940	0.070
2020/01/31 13:57:06.6	358.800	0.480	-0.940	0.050
2020/01/31 13:57:06.7	358.830	0.460	-0.930	0.040
2020/01/31 13:57:06.8	358.870	0.430	-0.920	0.020
2020/01/31 13:57:06.9	358.910	0.410	-0.910	-0.000
2020/01/31 13:57:07.0	358.950	0.380	-0.900	-0.020
2020/01/31 13:57:07.1	358.990	0.350	-0.890	-0.040
2020/01/31 13:57:07.2	359.030	0.330	-0.880	-0.060
2020/01/31 13:57:07.3	359.070	0.300	-0.870	-0.070
2020/01/31 13:57:07.4	359.110	0.270	-0.860	-0.090
2020/01/31 13:57:07.5	359.160	0.240	-0.840	-0.110
2020/01/31 13:57:07.6	359.200	0.210	-0.820	-0.120
2020/01/31 13:57:07.7	359.240	0.180	-0.810	-0.140
2020/01/31 13:57:07.8	359.280	0.150	-0.790	-0.150
2020/01/31 13:57:07.9	359.310	0.120	-0.770	-0.170
2020/01/31 13:57:08.0	359.350	0.090	-0.740	-0.180
2020/01/31 13:57:08.1	359.380	0.060	-0.710	-0.190
2020/01/31 13:57:08.2	359.410	0.020	-0.680	-0.200
2020/01/31 13:57:08.3	359.430	-0.010	-0.640	-0.200
2020/01/31 13:57:08.4	359.450	-0.050	-0.600	-0.210
2020/01/31 13:57:08.5	359.470	-0.080	-0.560	-0.220
2020/01/31 13:57:08.6	359.480	-0.120	-0.520	-0.220
2020/01/31 13:57:08.7	359.490	-0.160	-0.470	-0.220
2020/01/31 13:57:08.8	359.500	-0.190	-0.410	-0.220
2020/01/31 13:57:08.9	359.500	-0.230	-0.360	-0.230
2020/01/31 13:57:09.0	359.500	-0.270	-0.300	-0.230
2020/01/31 13:57:09.1	359.500	-0.310	-0.240	-0.230
2020/01/31 13:57:09.2	359.500	-0.350	-0.180	-0.230
2020/01/31 13:57:09.3	359.490	-0.390	-0.110	-0.230
2020/01/31 13:57:09.4	359.490	-0.420	-0.050	-0.240
2020/01/31 13:57:09.5	359.480	-0.460	0.020	-0.240
2020/01/31 13:57:09.6	359.470	-0.500	0.080	-0.240
2020/01/31 13:57:09.7	359.460	-0.530	0.150	-0.240
2020/01/31 13:57:09.8	359.450	-0.560	0.210	-0.250
2020/01/31 13:57:09.9	359.440	-0.590	0.280	-0.250
2020/01/31 13:57:10.0	359.440	-0.620	0.340	-0.260
2020/01/31 13:57:10.1	359.430	-0.640	0.400	-0.270
2020/01/31 13:57:10.2	359.420	-0.670	0.450	-0.270
2020/01/31 13:57:10.3	359.410	-0.680	0.500	-0.280
2020/01/31 13:57:10.4	359.400	-0.700	0.550	-0.290
2020/01/31 13:57:10.5	359.390	-0.710	0.600	-0.300
2020/01/31 13:57:10.6	359.390	-0.720	0.630	-0.320
2020/01/31 13:57:10.7	359.380	-0.720	0.670	-0.330
2020/01/31 13:57:10.8	359.380	-0.720	0.700	-0.340
2020/01/31 13:57:10.9	359.370	-0.720	0.730	-0.350
2020/01/31 13:57:11.0	359.370	-0.710	0.750	-0.360
2020/01/31 13:57:11.1	359.360	-0.700	0.760	-0.370
2020/01/31 13:57:11.2	359.350	-0.680	0.770	-0.380
2020/01/31 13:57:11.3	359.340	-0.660	0.780	-0.390
2020/01/31 13:57:11.4	359.340	-0.640	0.780	-0.400
2020/01/31 13:57:11.5	359.330	-0.610	0.780	-0.400
2020/01/31 13:57:11.6	359.320	-0.580	0.770	-0.400
2020/01/31 13:57:11.7	359.300	-0.550	0.750	-0.410
2020/01/31 13:57:11.8	359.290	-0.510	0.730	-0.410
2020/01/31 13:57:11.9	359.270	-0.470	0.710	-0.420
2020/01/31 13:57:12.0	359.250	-0.430	0.680	-0.420
2020/01/31 13:57:12.1	359.230	-0.390	0.650	-0.420
2020/01/31 13:57:12.2	359.210	-0.350	0.610	-0.420
2020/01/31 13:57:12.3	359.180	-0.310	0.560	-0.420
2020/01/31 13:57:12.4	359.160	-0.260	0.520	-0.420
2020/01/31 13:57:12.5	359.130	-0.220	0.460	-0.420
2020/01/31 13:57:12.6	359.100	-0.170	0.410	-0.420
2020/01/31 13:57:12.7	359.070	-0.130	0.350	-0.420
2020/01/31 13:57:12.8	359.040	-0.080	0.280	-0.410
2020/01/31 13:57:12.9	359.010	-0.040	0.220	-0.410
2020/01/31 13:57:13.0	358.970	-0.000	0.150	-0.400
2020/01/31 13:57:13.1	358.940	0.040	0.080	-0.390
2020/01/31 13:57:13.2	358.910	0.080	0.010	-0.390
2020/01/31 13:57:13.3	358.880	0.120	-0.060	-0.380
2020/01/31 13:57:13.4	358.850	0.160	-0.130	-0.370
2020/01/31 13:57:13.5	358.820	0.190	-0.210	-0.370
2020/01/31 13:57:13.6	358.800	0.230	-0.280	-0.360
2020/01/31 13:57:13.7	358.770	0.260	-0.350	-0.350
2020/01/31 13:57:13.8	358.750	0.290	-0.430	-0.340
2020/01/31 13:57:13.9	358.730	0.320	-0.500	-0.340
2020/01/31 13:57:14.0	358.720	0.350	-0.560	-0.330
2020/01/31 13:57:14.1	358.710	0.370	-0.630	-0.320
2020/01/31 13:57:14.2	358.700	0.400	-0.690	-0.320
2020/01/31 13:57:14.3	358.690	0.420	-0.750	-0.310
2020/01/31 13:57:14.4	358.690	0.440	-0.800	-0.310
2020/01/31 13:57:14.5	358.690	0.460	-0.850	-0.310
2020/01/31 13:57:14.6	358.680	0.470	-0.900	-0.300
2020/01/31 13:57:14.7	358.680	0.490	-0.940	-0.300
2020/01/31 13:57:14.8	358.690	0.500	-0.970	-0.300
2020/01/31 13:57:14.9	358.710	0.510	-1.000	-0.300
2020/01/31 13:57:15.0	358.720	0.520	-1.030	-0.290
2020/01/31 13:57:15.1	358.740	0.530	-1.040	-0.290
2020/01/31 13:57:15.2	358.760	0.540	-1.060	-0.290
2020/01/31 13:57:15.3	358.790	0.540	-1.060	-0.290
2020/01/31 13:57:15.4	358.810	0.540	-1.060	-0.280
2020/01/31 13:57:15.5	358.840	0.540	-1.060	-0.280
2020/01/31 13:57:15.6	358.870	0.540	-1.050	-0.270
2020/01/31 13:57:15.7	358.910	0.540	-1.030	-0.260
2020/01/31 13:57:15.8	358.940	0.530	-1.010	-0.260
2020/01/31 13:57:15.9	358.970	0.520	-0.990	-0.250
2020/01/31 13:57:16.0	359.010	0.510	-0.960	-0.250
2020/01/31 13:57:16.1	359.040	0.490	-0.920	-0.250
2020/01/31 13:57:16.2	359.080	0.470	-0.890	-0.250
2020/01/31 13:57:16.3	359.120	0.450	-0.850	-0.250
2020/01/31 13:57:16.4	359.160	0.430	-0.810	-0.250
2020/01/31 13:57:16.5	359.200	0.410	-0.770	-0.250
2020/01/31 13:57:16.6	359.240	0.380	-0.720	-0.250
2020/01/31 13:57:16.7	359.280	0.350	-0.680	-0.260
2020/01/31 13:57:16.8	359.330	0.320	-0.630	-0.270
2020/01/31 13:57:16.9	359.370	0.290	-0.580	-0.270
2020/01/31 13:57:17.0	359.410	0.250	-0.540	-0.280
2020/01/31 13:57:17.1	359.450	0.220	-0.490	-0.290
2020/01/31 13:57:17.2	359.500	0.180	-0.450	-0.300
2020/01/31 13:57:17.3	359.540	0.140	-0.400	-0.310
2020/01/31 13:57:17.4	359.580	0.100	-0.360	-0.320
2020/01/31 13:57:17.5	359.620	0.060	-0.320	-0.330
2020/01/31 13:57:17.6	359.660	0.010	-0.270	-0.330
2020/01/31 13:57:17.7	359.690	-0.030	-0.230	-0.340
2020/01/31 13:57:17.8	359.730	-0.070	-0.190	-0.340
2020/01/31 13:57:17.9	359.760	-0.120	-0.150	-0.350
2020/01/31 13:57:18.0	359.790	-0.160	-0.120	-0.350
2020/01/31 13:57:18.1	359.820	-0.200	-0.080	-0.350
2020/01/31 13:57:18.2	359.840	-0.240	-0.040	-0.350
2020/01/31 13:57:18.3	359.870	-0.280	-0.010	-0.340
2020/01/31 13:57:18.4	359.890	-0.320	0.020	-0.340
2020/01/31 13:57:18.5	359.910	-0.360	0.050	-0.330
2020/01/31 13:57:18.6	359.930	-0.400	0.080	-0.320
2020/01/31 13:57:18.7	359.940	-0.430	0.110	-0.300
2020/01/31 13:57:18.8	359.950	-0.460	0.130	-0.290
2020/01/31 13:57:18.9	359.960	-0.490	0.150	-0.270
2020/01/31 13:57:19.0	359.970	-0.520	0.170	-0.250
2020/01/31 13:57:19.1	359.970	-0.550	0.190	-0.240
2020/01/31 13:57:19.2	359.980	-0.570	0.200	-0.220
2020/01/31 13:57:19.3	359.980	-0.580	0.210	-0.200
2020/01/31 13:57:19.4	359.980	-0.600	0.220	-0.180
2020/01/31 13:57:19.5	359.980	-0.610	0.220	-0.160
2020/01/31 13:57:19.6	359.980	-0.610	0.230	-0.140
2020/01/31 13:57:19.7	359.980	-0.620	0.220	-0.120
2020/01/31 13:57:19.8	359.970	-0.620	0.220	-0.100
2020/01/31 13:57:19.9	359.970	-0.610	0.210	-0.080
2020/01/31 13:57:20.0	359.960	-0.600	0.200	-0.060
2020/01/31 13:57:20.1	359.960	-0.590	0.180	-0.050
2020/01/31 13:57:20.2	359.960	-0.580	0.160	-0.030
2020/01/31 13:57:20.3	359.950	-0.560	0.140	-0.020
2020/01/31 13:57:20.4	359.950	-0.530	0.110	-0.010
2020/01/31 13:57:20.5	359.950	-0.510	0.090	0.000
2020/01/31 13:57:20.6	359.960	-0.480	0.060	0.010
2020/01/31 13:57:20.7	359.960	-0.450	0.030	0.020
2020/01/31 13:57:20.8	359.960	-0.410	-0.010	0.030
2020/01/31 13:57:20.9	359.970	-0.370	-0.040	0.030
2020/01/31 13:57:21.0	359.970	-0.330	-0.070	0.030
2020/01/31 13:57:21.1	359.980	-0.290	-0.110	0.030
2020/01/31 13:57:21.2	359.980	-0.250	-0.140	0.030
2020/01/31 13:57:21.3	359.990	-0.200	-0.170	0.030
2020/01/31 13:57:21.4	359.990	-0.160	-0.200	0.040
2020/01/31 13:57:21.5	359.990	-0.110	-0.230	0.040
2020/01/31 13:57:21.6	0.000	-0.070	-0.260	0.040
2020/01/31 13:57:21.7	0.000	-0.020	-0.290	0.040
2020/01/31 13:57:21.8	0.000	0.020	-0.310	0.050
2020/01/31 13:57:21.9	0.000	0.070	-0.330	0.050
2020/01/31 13:57:22.0	0.000	0.110	-0.340	0.060
2020/01/31 13:57:22.1	359.990	0.150	-0.350	0.060
2020/01/31 13:57:22.2	359.980	0.180	-0.360	0.070
2020/01/31 13:57:22.3	359.980	0.220	-0.370	0.070
2020/01/31 13:57:22.4	359.970	0.250	-0.370	0.080
2020/01/31 13:57:22.5	359.960	0.280	-0.380	0.080
2020/01/31 13:57:22.6	359.950	0.300	-0.370	0.080
2020/01/31 13:57:22.7	359.940	0.320	-0.370	0.090
2020/01/31 13:57:22.8	359.930	0.340	-0.360	0.080
2020/01/31 13:57:22.9	359.920	0.350	-0.360	0.080
2020/01/31 13:57:23.0	359.910	0.360	-0.350	0.080
2020/01/31 13:57:23.1	359.900	0.370	-0.340	0.070
2020/01/31 13:57:23.2	359.900	0.370	-0.340	0.060
2020/01/31 13:57:23.3	359.890	0.370	-0.330	0.040
2020/01/31 13:57:23.4	359.890	0.360	-0.320	0.020
2020/01/31 13:57:23.5	359.890	0.350	-0.310	0.000
2020/01/31 13:57:23.6	359.890	0.340	-0.300	-0.020
2020/01/31 13:57:23.7	359.890	0.320	-0.300	-0.050
2020/01/31 13:57:23.8	359.890	0.300	-0.290	-0.080
2020/01/31 13:57:23.9	359.890	0.280	-0.280	-0.110
2020/01/31 13:57:24.0	359.890	0.260	-0.270	-0.150
2020/01/31 13:57:24.1	359.900	0.230	-0.270	-0.190
2020/01/31 13:57:24.2	359.900	0.210	-0.260	-0.230
2020/01/31 13:57:24.3	359.900	0.180	-0.260	-0.270
2020/01/31 13:57:24.4	359.910	0.150	-0.250	-0.320
2020/01/31 13:57:24.5	359.920	0.120	-0.250	-0.360
2020/01/31 13:57:24.6	359.930	0.090	-0.250	-0.410
2020/01/31 13:57:24.7	359.930	0.060	-0.240	-0.460
2020/01/31 13:57:24.8	359.940	0.040	-0.240	-0.500
2020/01/31 13:57:24.9	359.950	0.010	-0.240	-0.550
2020/01/31 13:57:25.0	359.970	-0.010	-0.240	-0.590
2020/01/31 13:57:25.1	359.980	-0.030	-0.240	-0.640
2020/01/31 13:57:25.2	0.000	-0.050	-0.240	-0.680
2020/01/31 13:57:25.3	0.020	-0.070	-0.240	-0.720
2020/01/31 13:57:25.4	0.040	-0.080	-0.250	-0.760
2020/01/31 13:57:25.5	0.060	-0.090	-0.250	-0.800
2020/01/31 13:57:25.6	0.080	-0.100	-0.250	-0.830
2020/01/31 13:57:25.7	0.110	-0.110	-0.260	-0.870
2020/01/31 13:57:25.8	0.140	-0.110	-0.260	-0.900
2020/01/31 13:57:25.9	0.170	-0.110	-0.270	-0.940
2020/01/31 13:57:26.0	0.190	-0.100	-0.270	-0.970
2020/01/31 13:57:26.1	0.220	-0.090	-0.280	-0.990
2020/01/31 13:57:26.2	0.250	-0.080	-0.290	-1.020
2020/01/31 13:57:26.3	0.280	-0.070	-0.290	-1.040
2020/01/31 13:57:26.4	0.310	-0.060	-0.300	-1.050
2020/01/31 13:57:26.5	0.330	-0.040	-0.310	-1.070
2020/01/31 13:57:26.6	0.360	-0.020	-0.310	-1.080
2020/01/31 13:57:26.7	0.380	-0.000	-0.310	-1.080
2020/01/31 13:57:26.8	0.400	0.020	-0.320	-1.090
2020/01/31 13:57:26.9	0.420	0.030	-0.320	-1.080
2020/01/31 13:57:27.0	0.430	0.050	-0.310	-1.080
2020/01/31 13:57:27.1	0.450	0.070	-0.310	-1.070
2020/01/31 13:57:27.2	0.460	0.090	-0.310	-1.050
2020/01/31 13:57:27.3	0.470	0.110	-0.300	-1.030
2020/01/31 13:57:27.4	0.480	0.120	-0.300	-1.010
2020/01/31 13:57:27.5	0.490	0.140	-0.290	-0.980
2020/01/31 13:57:27.6	0.490	0.150	-0.280	-0.950
2020/01/31 13:57:27.7	0.500	0.160	-0.270	-0.920
2020/01/31 13:57:27.8	0.510	0.170	-0.260	-0.880
2020/01/31 13:57:27.9	0.510	0.170	-0.250	-0.850
2020/01/31 13:57:28.0	0.510	0.170	-0.240	-0.810
2020/01/31 13:57:28.1	0.520	0.170	-0.230	-0.770
2020/01/31 13:57:28.2	0.520	0.170	-0.220	-0.740
2020/01/31 13:57:28.3	0.530	0.170	-0.210	-0.700
2020/01/31 13:57:28.4	0.540	0.160	-0.200	-0.660
2020/01/31 13:57:28.5	0.540	0.150	-0.190	-0.620
2020/01/31 13:57:28.6	0.550	0.140	-0.190	-0.590
2020/01/31 13:57:28.7	0.560	0.130	-0.190	-0.550
2020/01/31 13:57:28.8	0.570	0.110	-0.180	-0.520
2020/01/31 13:57:28.9	0.580	0.090	-0.180	-0.490
2020/01/31 13:57:29.0	0.600	0.080	-0.180	-0.460
2020/01/31 13:57:29.1	0.610	0.060	-0.180	-0.440
2020/01/31 13:57:29.2	0.620	0.040	-0.180	-0.420
2020/01/31 13:57:29.3	0.640	0.010	-0.180	-0.400
2020/01/31 13:57:29.4	0.660	-0.010	-0.190	-0.380
2020/01/31 13:57:29.5	0.670	-0.030	-0.190	-0.360
2020/01/31 13:57:29.6	0.690	-0.050	-0.200	-0.350
2020/01/31 13:57:29.7	0.700	-0.070	-0.200	-0.330
2020/01/31 13:57:29.8	0.720	-0.090	-0.200	-0.320
2020/01/31 13:57:29.9	0.740	-0.110	-0.210	-0.300
2020/01/31 13:57:30.0	0.750	-0.130	-0.210	-0.290
2020/01/31 13:57:30.1	0.770	-0.150	-0.210	-0.280
2020/01/31 13:57:30.2	0.780	-0.170	-0.210	-0.270
2020/01/31 13:57:30.3	0.800	-0.180	-0.210	-0.260
2020/01/31 13:57:30.4	0.810	-0.200	-0.210	-0.250
2020/01/31 13:57:30.5	0.820	-0.210	-0.210	-0.240
2020/01/31 13:57:30.6	0.820	-0.220	-0.210	-0.230
2020/01/31 13:57:30.7	0.840	-0.240	-0.200	-0.220
2020/01/31 13:57:30.8	0.850	-0.240	-0.200	-0.210
2020/01/31 13:57:30.9	0.850	-0.250	-0.190	-0.210
2020/01/31 13:57:31.0	0.860	-0.260	-0.180	-0.200
2020/01/31 13:57:31.1	0.870	-0.260	-0.170	-0.190
2020/01/31 13:57:31.2	0.880	-0.260	-0.160	-0.190
2020/01/31 13:57:31.3	0.890	-0.260	-0.150	-0.180
2020/01/31 13:57:31.4	0.890	-0.260	-0.140	-0.170
2020/01/31 13:57:31.5	0.900	-0.260	-0.120	-0.170
2020/01/31 13:57:31.6	0.890	-0.250	-0.110	-0.160
2020/01/31 13:57:31.7	0.900	-0.240	-0.100	-0.160
2020/01/31 13:57:31.8	0.900	-0.240	-0.090	-0.150
2020/01/31 13:57:31.9	0.900	-0.230	-0.070	-0.140
2020/01/31 13:57:32.0	0.890	-0.210	-0.050	-0.130
2020/01/31 13:57:32.1	0.890	-0.200	-0.040	-0.120
2020/01/31 13:57:32.2	0.890	-0.190	-0.020	-0.110
2020/01/31 13:57:32.3	0.880	-0.170	-0.010	-0.100
2020/01/31 13:57:32.4	0.870	-0.160	0.010	-0.080
2020/01/31 13:57:32.5	0.860	-0.140	0.020	-0.070
2020/01/31 13:57:32.6	0.850	-0.130	0.030	-0.050
2020/01/31 13:57:32.7	0.840	-0.110	0.040	-0.030
2020/01/31 13:57:32.8	0.830	-0.090	0.050	-0.010
2020/01/31 13:57:32.9	0.820	-0.070	0.060	0.010
2020/01/31 13:57:33.0	0.810	-0.050	0.070	0.040
2020/01/31 13:57:33.1	0.790	-0.030	0.070	0.060
2020/01/31 13:57:33.2	0.780	-0.010	0.070	0.090
2020/01/31 13:57:33.3	0.770	0.010	0.060	0.110
2020/01/31 13:57:33.4	0.760	0.030	0.060	0.140
2020/01/31 13:57:33.5	0.750	0.060	0.050	0.170
2020/01/31 13:57:33.6	0.740	0.080	0.030	0.190
2020/01/31 13:57:33.7	0.740	0.100	0.020	0.220
2020/01/31 13:57:33.8	0.730	0.120	-0.000	0.240
2020/01/31 13:57:33.9	0.730	0.140	-0.030	0.260
2020/01/31 13:57:34.0	0.720	0.170	-0.060	0.280
2020/01/31 13:57:34.1	0.720	0.190	-0.090	0.300
2020/01/31 13:57:34.2	0.720	0.210	-0.130	0.310
2020/01/31 13:57:34.3	0.730	0.230	-0.170	0.330
2020/01/31 13:57:34.4	0.730	0.250	-0.210	0.340
2020/01/31 13:57:34.5	0.740	0.280	-0.260	0.340
2020/01/31 13:57:34.6	0.750	0.300	-0.310	0.350
2020/01/31 13:57:34.7	0.760	0.320	-0.360	0.350
2020/01/31 13:57:34.8	0.780	0.340	-0.410	0.350
2020/01/31 13:57:34.9	0.790	0.350	-0.470	0.350
2020/01/31 13:57:35.0	0.810	0.370	-0.520	0.340
2020/01/31 13:57:35.1	0.820	0.390	-0.580	0.340
2020/01/31 13:57:35.2	0.840	0.400	-0.630	0.330
2020/01/31 13:57:35.3	0.860	0.420	-0.680	0.330
2020/01/31 13:57:35.4	0.880	0.430	-0.730	0.320
2020/01/31 13:57:35.5	0.890	0.430	-0.770	0.310
2020/01/31 13:57:35.6	0.910	0.440	-0.810	0.300
2020/01/31 13:57:35.7	0.930	0.440	-0.850	0.290
2020/01/31 13:57:35.8	0.940	0.450	-0.880	0.280
2020/01/31 13:57:35.9	0.960	0.440	-0.900	0.270
2020/01/31 13:57:36.0	0.970	0.440	-0.920	0.250
2020/01/31 13:57:36.1	0.990	0.430	-0.940	0.240
2020/01/31 13:57:36.2	1.000	0.420	-0.940	0.220
2020/01/31 13:57:36.3	1.010	0.410	-0.950	0.200
2020/01/31 13:57:36.4	1.030	0.390	-0.940	0.180
2020/01/31 13:57:36.5	1.040	0.370	-0.930	0.160
2020/01/31 13:57:36.6	1.060	0.350	-0.920	0.140
2020/01/31 13:57:36.7	1.070	0.320	-0.900	0.110
2020/01/31 13:57:36.8	1.090	0.300	-0.870	0.090
2020/01/31 13:57:36.9	1.100	0.270	-0.840	0.060
2020/01/31 13:57:37.0	1.120	0.240	-0.810	0.030
2020/01/31 13:57:37.1	1.140	0.200	-0.770	0.010
2020/01/31 13:57:37.2	1.150	0.170	-0.730	-0.030
2020/01/31 13:57:37.3	1.170	0.130	-0.680	-0.060
2020/01/31 13:57:37.4	1.190	0.090	-0.640	-0.090
2020/01/31 13:57:37.5	1.220	0.060	-0.590	-0.120
2020/01/31 13:57:37.6	1.240	0.020	-0.540	-0.160
2020/01/31 13:57:37.7	1.270	-0.020	-0.490	-0.190
2020/01/31 13:57:37.8	1.290	-0.060	-0.430	-0.230
2020/01/31 13:57:37.9	1.310	-0.100	-0.380	-0.270
2020/01/31 13:57:38.0	1.340	-0.130	-0.330	-0.310
2020/01/31 13:57:38.1	1.370	-0.170	-0.270	-0.350
2020/01/31 13:57:38.2	1.390	-0.210	-0.220	-0.390
2020/01/31 13:57:38.3	1.420	-0.240	-0.160	-0.430
2020/01/31 13:57:38.4	1.440	-0.270	-0.110	-0.470
2020/01/31 13:57:38.5	1.460	-0.300	-0.060	-0.520
2020/01/31 13:57:38.6	1.480	-0.330	-0.010	-0.560
2020/01/31 13:57:38.7	1.500	-0.350	0.040	-0.600
2020/01/31 13:57:38.8	1.520	-0.370	0.080	-0.640
2020/01/31 13:57:38.9	1.540	-0.390	0.120	-0.690
2020/01/31 13:57:39.0	1.550	-0.410	0.160	-0.720
2020/01/31 13:57:39.1	1.570	-0.420	0.200	-0.760
2020/01/31 13:57:39.2	1.580	-0.430	0.240	-0.800
2020/01/31 13:57:39.3	1.590	-0.440	0.270	-0.830
2020/01/31 13:57:39.4	1.600	-0.440	0.300	-0.860
2020/01/31 13:57:39.5	1.610	-0.440	0.320	-0.890
2020/01/31 13:57:39.6	1.610	-0.440	0.340	-0.910
2020/01/31 13:57:39.7	1.610	-0.430	0.360	-0.930
2020/01/31 13:57:39.8	1.620	-0.420	0.380	-0.950
2020/01/31 13:57:39.9	1.620	-0.410	0.390	-0.960
2020/01/31 13:57:40.0	1.610	-0.390	0.400	-0.970
2020/01/31 13:57:40.1	1.610	-0.370	0.410	-0.980
2020/01/31 13:57:40.2	1.610	-0.350	0.410	-0.990
2020/01/31 13:57:40.3	1.600	-0.330	0.420	-0.990
2020/01/31 13:57:40.4	1.590	-0.310	0.420	-0.990
2020/01/31 13:57:40.5	1.590	-0.290	0.410	-0.980
2020/01/31 13:57:40.6	1.570	-0.260	0.400	-0.970
2020/01/31 13:57:40.7	1.560	-0.230	0.400	-0.960
2020/01/31 13:57:40.8	1.550	-0.210	0.390	-0.940
2020/01/31 13:57:40.9	1.540	-0.180	0.380	-0.930
2020/01/31 13:57:41.0	1.530	-0.150	0.360	-0.910
2020/01/31 13:57:41.1	1.520	-0.120	0.350	-0.890
2020/01/31 13:57:41.2	1.510	-0.100	0.330	-0.860
2020/01/31 13:57:41.3	1.500	-0.070	0.320	-0.840
2020/01/31 13:57:41.4	1.490	-0.040	0.300	-0.810
2020/01/31 13:57:41.5	1.480	-0.020	0.280	-0.780
2020/01/31 13:57:41.6	1.470	0.000	0.260	-0.750
2020/01/31 13:57:41.7	1.460	0.020	0.240	-0.720
2020/01/31 13:57:41.8	1.450	0.050	0.220	-0.690
2020/01/31 13:57:41.9	1.440	0.060	0.190	-0.650
2020/01/31 13:57:42.0	1.430	0.080	0.170	-0.610
2020/01/31 13:57:42.1	1.430	0.100	0.150	-0.570
2020/01/31 13:57:42.2	1.420	0.110	0.120	-0.530
2020/01/31 13:57:42.3	1.410	0.120	0.090	-0.480
2020/01/31 13:57:42.4	1.400	0.130	0.070	-0.440
2020/01/31 13:57:42.5	1.390	0.140	0.040	-0.390
2020/01/31 13:57:42.6	1.370	0.150	0.010	-0.340
2020/01/31 13:57:42.7	1.370	0.150	-0.020	-0.290
2020/01/31 13:57:42.8	1.360	0.150	-0.050	-0.250
2020/01/31 13:57:42.9	1.350	0.150	-0.080	-0.200
2020/01/31 13:57:43.0	1.340	0.150	-0.120	-0.160
2020/01/31 13:57:43.1	1.330	0.150	-0.150	-0.120
2020/01/31 13:57:43.2	1.320	0.140	-0.190	-0.080
2020/01/31 13:57:43.3	1.320	0.140	-0.220	-0.050
2020/01/31 13:57:43.4	1.310	0.130	-0.260	-0.020
2020/01/31 13:57:43.5	1.300	0.120	-0.300	0.010
2020/01/31 13:57:43.6	1.290	0.110	-0.340	0.040
2020/01/31 13:57:43.7	1.290	0.100	-0.380	0.050
2020/01/31 13:57:43.8	1.280	0.090	-0.420	0.070
2020/01/31 13:57:43.9	1.280	0.080	-0.460	0.080
2020/01/31 13:57:44.0	1.280	0.070	-0.500	0.090
2020/01/31 13:57:44.1	1.280	0.060	-0.540	0.090
2020/01/31 13:57:44.2	1.280	0.050	-0.590	0.090
2020/01/31 13:57:44.3	1.280	0.040	-0.630	0.080
2020/01/31 13:57:44.4	1.280	0.030	-0.670	0.070
2020/01/31 13:57:44.5	1.290	0.020	-0.710	0.060
2020/01/31 13:57:44.6	1.290	0.020	-0.750	0.040
2020/01/31 13:57:44.7	1.310	0.010	-0.790	0.020
2020/01/31 13:57:44.8	1.320	0.010	-0.830	-0.000
2020/01/31 13:57:44.9	1.330	0.010	-0.870	-0.030
2020/01/31 13:57:45.0	1.350	0.010	-0.900	-0.060
2020/01/31 13:57:45.1	1.370	0.010	-0.940	-0.090
2020/01/31 13:57:45.2	1.400	0.020	-0.970	-0.120
2020/01/31 13:57:45.3	1.420	0.020	-0.990	-0.150
2020/01/31 13:57:45.4	1.440	0.030	-1.010	-0.190
2020/01/31 13:57:45.5	1.470	0.040	-1.030	-0.220
2020/01/31 13:57:45.6	1.490	0.050	-1.050	-0.260
2020/01/31 13:57:45.7	1.520	0.070	-1.060	-0.290
2020/01/31 13:57:45.8	1.550	0.080	-1.060	-0.320
2020/01/31 13:57:45.9	1.570	0.090	-1.070	-0.360
2020/01/31 13:57:46.0	1.600	0.110	-1.060	-0.390
2020/01/31 13:57:46.1	1.630	0.120	-1.050	-0.430
2020/01/31 13:57:46.2	1.660	0.140	-1.040	-0.460
2020/01/31 13:57:46.3	1.690	0.150	-1.030	-0.490
2020/01/31 13:57:46.4	1.720	0.170	-1.010	-0.530
2020/01/31 13:57:46.5	1.750	0.180	-0.990	-0.560
2020/01/31 13:57:46.6	1.790	0.190	-0.960	-0.590
2020/01/31 13:57:46.7	1.820	0.210	-0.930	-0.620
2020/01/31 13:57:46.8	1.850	0.220	-0.900	-0.650
2020/01/31 13:57:46.9	1.880	0.230	-0.860	-0.680
2020/01/31 13:57:47.0	1.910	0.240	-0.830	-0.700
2020/01/31 13:57:47.1	1.940	0.250	-0.790	-0.730
2020/01/31 13:57:47.2	1.980	0.260	-0.750	-0.750
2020/01/31 13:57:47.3	2.010	0.270	-0.700	-0.770
2020/01/31 13:57:47.4	2.040	0.270	-0.660	-0.790
2020/01/31 13:57:47.5	2.060	0.280	-0.610	-0.800
2020/01/31 13:57:47.6	2.090	0.280	-0.570	-0.810
2020/01/31 13:57:47.7	2.110	0.280	-0.520	-0.820
2020/01/31 13:57:47.8	2.140	0.280	-0.470	-0.830
2020/01/31 13:57:47.9	2.160	0.280	-0.410	-0.830
2020/01/31 13:57:48.0	2.180	0.280	-0.360	-0.830
2020/01/31 13:57:48.1	2.190	0.270	-0.300	-0.830
2020/01/31 13:57:48.2	2.210	0.270	-0.250	-0.820
2020/01/31 13:57:48.3	2.220	0.260	-0.190	-0.810
2020/01/31 13:57:48.4	2.220	0.250	-0.130	-0.800
2020/01/31 13:57:48.5	2.230	0.230	-0.070	-0.790
2020/01/31 13:57:48.6	2.210	0.220	-0.010	-0.770
2020/01/31 13:57:48.7	2.210	0.200	0.050	-0.750
2020/01/31 13:57:48.8	2.210	0.180	0.110	-0.730
2020/01/31 13:57:48.9	2.200	0.160	0.170	-0.700
2020/01/31 13:57:49.0	2.180	0.140	0.230	-0.680
2020/01/31 13:57:49.1	2.170	0.120	0.290	-0.650
2020/01/31 13:57:49.2	2.150	0.090	0.350	-0.610
2020/01/31 13:57:49.3	2.130	0.070	0.410	-0.580
2020/01/31 13:57:49.4	2.100	0.040	0.470	-0.540
2020/01/31 13:57:49.5	2.070	0.010	0.520	-0.500
2020/01/31 13:57:49.6	2.040	-0.020	0.570	-0.450
2020/01/31 13:57:49.7	2.010	-0.050	0.620	-0.410
2020/01/31 13:57:49.8	1.980	-0.080	0.670	-0.360
2020/01/31 13:57:49.9	1.940	-0.110	0.710	-0.320
2020/01/31 13:57:50.0	1.900	-0.150	0.740	-0.270
2020/01/31 13:57:50.1	1.860	-0.180	0.770	-0.220
2020/01/31 13:57:50.2	1.820	-0.210	0.800	-0.180
2020/01/31 13:57:50.3	1.780	-0.250	0.820	-0.130
2020/01/31 13:57:50.4	1.740	-0.280	0.830	-0.080
2020/01/31 13:57:50.5	1.710	-0.310	0.840	-0.040
2020/01/31 13:57:50.6	1.670	-0.340	0.840	0.010
2020/01/31 13:57:50.7	1.640	-0.370	0.840	0.050
2020/01/31 13:57:50.8	1.600	-0.390	0.820	0.090
2020/01/31 13:57:50.9	1.570	-0.420	0.800	0.130
2020/01/31 13:57:51.0	1.540	-0.440	0.780	0.170
2020/01/31 13:57:51.1	1.510	-0.460	0.740	0.200
2020/01/31 13:57:51.2	1.480	-0.480	0.700	0.230
2020/01/31 13:57:51.3	1.460	-0.490	0.650	0.260
2020/01/31 13:57:51.4	1.440	-0.500	0.600	0.290
2020/01/31 13:57:51.5	1.420	-0.510	0.540	0.310
2020/01/31 13:57:51.6	1.400	-0.510	0.470	0.330
2020/01/31 13:57:51.7	1.390	-0.510	0.400	0.340
2020/01/31 13:57:51.8	1.380	-0.500	0.330	0.350
2020/01/31 13:57:51.9	1.370	-0.500	0.250	0.360
2020/01/31 13:57:52.0	1.360	-0.480	0.170	0.370
2020/01/31 13:57:52.1	1.360	-0.470	0.080	0.370
2020/01/31 13:57:52.2	1.360	-0.450	-0.000	0.370
2020/01/31 13:57:52.3	1.360	-0.420	-0.090	0.370
2020/01/31 13:57:52.4	1.360	-0.390	-0.180	0.360
2020/01/31 13:57:52.5	1.370	-0.360	-0.270	0.360
2020/01/31 13:57:52.6	1.370	-0.330	-0.350	0.340
2020/01/31 13:57:52.7	1.380	-0.290	-0.430	0.340
2020/01/31 13:57:52.8	1.390	-0.250	-0.520	0.330
2020/01/31 13:57:52.9	1.400	-0.210	-0.590	0.320
2020/01/31 13:57:53.0	1.410	-0.160	-0.670	0.300
2020/01/31 13:57:53.1	1.430	-0.120	-0.740	0.290
2020/01/31 13:57:53.2	1.440	-0.070	-0.810	0.280
2020/01/31 13:57:53.3	1.450	-0.020	-0.870	0.270
2020/01/31 13:57:53.4	1.470	0.030	-0.930	0.260
2020/01/31 13:57:53.5	1.480	0.070	-0.980	0.250
2020/01/31 13:57:53.6	1.490	0.120	-1.030	0.240
2020/01/31 13:57:53.7	1.500	0.160	-1.060	0.230
2020/01/31 13:57:53.8	1.510	0.210	-1.100	0.220
2020/01/31 13:57:53.9	1.520	0.250	-1.120	0.210
2020/01/31 13:57:54.0	1.530	0.290	-1.140	0.200
2020/01/31 13:57:54.1	1.540	0.320	-1.160	0.190
2020/01/31 13:57:54.2	1.550	0.350	-1.170	0.180
2020/01/31 13:57:54.3	1.550	0.380	-1.170	0.170
2020/01/31 13:57:54.4	1.560	0.410	-1.170	0.160
2020/01/31 13:57:54.5	1.570	0.430	-1.160	0.150
2020/01/31 13:57:54.6	1.580	0.450	-1.150	0.140
2020/01/31 13:57:54.7	1.580	0.460	-1.140	0.130
2020/01/31 13:57:54.8	1.590	0.470	-1.110	0.110
2020/01/31 13:57:54.9	1.600	0.480	-1.090	0.100
2020/01/31 13:57:55.0	1.600	0.480	-1.060	0.080
2020/01/31 13:57:55.1	1.610	0.480	-1.030	0.060
2020/01/31 13:57:55.2	1.620	0.480	-0.990	0.040
2020/01/31 13:57:55.3	1.620	0.470	-0.960	0.020
2020/01/31 13:57:55.4	1.630	0.460	-0.920	-0.000
2020/01/31 13:57:55.5	1.640	0.450	-0.870	-0.030
2020/01/31 13:57:55.6	1.660	0.430	-0.830	-0.060
2020/01/31 13:57:55.7	1.670	0.420	-0.780	-0.080
2020/01/31 13:57:55.8	1.690	0.400	-0.730	-0.110
2020/01/31 13:57:55.9	1.700	0.380	-0.680	-0.140
2020/01/31 13:57:56.0	1.720	0.360	-0.630	-0.170
2020/01/31 13:57:56.1	1.740	0.340	-0.580	-0.200
2020/01/31 13:57:56.2	1.760	0.320	-0.530	-0.230
2020/01/31 13:57:56.3	1.780	0.290	-0.470	-0.270
2020/01/31 13:57:56.4	1.810	0.270	-0.420	-0.300
2020/01/31 13:57:56.5	1.830	0.250	-0.360	-0.330
2020/01/31 13:57:56.6	1.850	0.230	-0.310	-0.360
2020/01/31 13:57:56.7	1.870	0.210	-0.250	-0.390
2020/01/31 13:57:56.8	1.890	0.190	-0.190	-0.420
2020/01/31 13:57:56.9	1.920	0.170	-0.130	-0.440
2020/01/31 13:57:57.0	1.930	0.150	-0.070	-0.460
2020/01/31 13:57:57.1	1.950	0.130	-0.010	-0.480
2020/01/31 13:57:57.2	1.960	0.110	0.060	-0.500
2020/01/31 13:57:57.3	1.970	0.090	0.120	-0.510
2020/01/31 13:57:57.4	1.970	0.060	0.190	-0.520
2020/01/31 13:57:57.5	1.970	0.040	0.260	-0.530
2020/01/31 13:57:57.6	1.960	0.020	0.320	-0.530
2020/01/31 13:57:57.7	1.950	-0.010	0.390	-0.530
2020/01/31 13:57:57.8	1.940	-0.030	0.450	-0.530
2020/01/31 13:57:57.9	1.930	-0.060	0.510	-0.530
2020/01/31 13:57:58.0	1.910	-0.090	0.570	-0.520
2020/01/31 13:57:58.1	1.880	-0.120	0.620	-0.510
2020/01/31 13:57:58.2	1.860	-0.150	0.670	-0.510
2020/01/31 13:57:58.3	1.830	-0.180	0.720	-0.490
2020/01/31 13:57:58.4	1.800	-0.210	0.760	-0.480
2020/01/31 13:57:58.5	1.770	-0.240	0.790	-0.470
2020/01/31 13:57:58.6	1.750	-0.280	0.820	-0.460
2020/01/31 13:57:58.7	1.710	-0.310	0.830	-0.450
2020/01/31 13:57:58.8	1.680	-0.340	0.840	-0.440
2020/01/31 13:57:58.9	1.650	-0.370	0.850	-0.430
2020/01/31 13:57:59.0	1.620	-0.400	0.840	-0.420
2020/01/31 13:57:59.1	1.580	-0.430	0.820	-0.420
2020/01/31 13:57:59.2	1.560	-0.460	0.790	-0.420
2020/01/31 13:57:59.3	1.530	-0.490	0.760	-0.410
2020/01/31 13:57:59.4	1.510	-0.510	0.720	-0.420
2020/01/31 13:57:59.5	1.490	-0.530	0.660	-0.420
2020/01/31 13:57:59.6	1.480	-0.550	0.600	-0.430
2020/01/31 13:57:59.7	1.460	-0.570	0.530	-0.430
2020/01/31 13:57:59.8	1.450	-0.580	0.450	-0.450
2020/01/31 13:57:59.9	1.440	-0.590	0.370	-0.460
2020/01/31 13:58:00.0	1.440	-0.590	0.280	-0.480
2020/01/31 13:58:00.1	1.430	-0.590	0.180	-0.500
2020/01/31 13:58:00.2	1.430	-0.580	0.080	-0.520
2020/01/31 13:58:00.3	1.440	-0.580	-0.020	-0.540
2020/01/31 13:58:00.4	1.440	-0.560	-0.130	-0.560
2020/01/31 13:58:00.5	1.450	-0.550	-0.240	-0.580
2020/01/31 13:58:00.6	1.450	-0.520	-0.350	-0.610
2020/01/31 13:58:00.7	1.460	-0.500	-0.450	-0.630
2020/01/31 13:58:00.8	1.470	-0.470	-0.560	-0.650
2020/01/31 13:58:00.9	1.480	-0.430	-0.670	-0.680
2020/01/31 13:58:01.0	1.490	-0.390	-0.770	-0.700
2020/01/31 13:58:01.1	1.500	-0.350	-0.860	-0.710
2020/01/31 13:58:01.2	1.510	-0.310	-0.950	-0.730
2020/01/31 13:58:01.3	1.520	-0.260	-1.030	-0.740
2020/01/31 13:58:01.4	1.530	-0.210	-1.110	-0.750
2020/01/31 13:58:01.5	1.540	-0.150	-1.170	-0.750
2020/01/31 13:58:01.6	1.550	-0.100	-1.230	-0.750
2020/01/31 13:58:01.7	1.560	-0.040	-1.270	-0.750
2020/01/31 13:58:01.8	1.560	0.020	-1.310	-0.740
2020/01/31 13:58:01.9	1.570	0.080	-1.330	-0.730
2020/01/31 13:58:02.0	1.580	0.140	-1.350	-0.710
2020/01/31 13:58:02.1	1.580	0.200	-1.350	-0.680
2020/01/31 13:58:02.2	1.580	0.250	-1.340	-0.650
2020/01/31 13:58:02.3	1.580	0.310	-1.330	-0.620
2020/01/31 13:58:02.4	1.580	0.370	-1.300	-0.580
2020/01/31 13:58:02.5	1.580	0.420	-1.260	-0.530
2020/01/31 13:58:02.6	1.580	0.470	-1.220	-0.480
2020/01/31 13:58:02.7	1.580	0.520	-1.170	-0.430
2020/01/31 13:58:02.8	1.570	0.560	-1.120	-0.370
2020/01/31 13:58:02.9	1.570	0.600	-1.060	-0.310
2020/01/31 13:58:03.0	1.570	0.640	-0.990	-0.240
2020/01/31 13:58:03.1	1.560	0.680	-0.930	-0.180
2020/01/31 13:58:03.2	1.560	0.700	-0.860	-0.120
2020/01/31 13:58:03.3	1.560	0.730	-0.790	-0.050
2020/01/31 13:58:03.4	1.560	0.750	-0.720	0.010
2020/01/31 13:58:03.5	1.570	0.770	-0.650	0.070
2020/01/31 13:58:03.6	1.580	0.780	-0.590	0.140
2020/01/31 13:58:03.7	1.590	0.790	-0.520	0.200
2020/01/31 13:58:03.8	1.600	0.790	-0.460	0.250
2020/01/31 13:58:03.9	1.610	0.790	-0.410	0.300
2020/01/31 13:58:04.0	1.630	0.790	-0.350	0.350
2020/01/31 13:58:04.1	1.650	0.780	-0.310	0.390
2020/01/31 13:58:04.2	1.670	0.770	-0.260	0.430
2020/01/31 13:58:04.3	1.690	0.760	-0.220	0.470
2020/01/31 13:58:04.4	1.710	0.740	-0.180	0.500
2020/01/31 13:58:04.5	1.740	0.720	-0.150	0.530
2020/01/31 13:58:04.6	1.770	0.690	-0.120	0.550
2020/01/31 13:58:04.7	1.790	0.660	-0.090	0.570
2020/01/31 13:58:04.8	1.820	0.630	-0.060	0.590
2020/01/31 13:58:04.9	1.840	0.590	-0.040	0.600
2020/01/31 13:58:05.0	1.860	0.550	-0.020	0.610
2020/01/31 13:58:05.1	1.890	0.510	0.010	0.620
2020/01/31 13:58:05.2	1.900	0.460	0.030	0.620
2020/01/31 13:58:05.3	1.920	0.410	0.050	0.630
2020/01/31 13:58:05.4	1.930	0.360	0.070	0.630
2020/01/31 13:58:05.5	1.930	0.310	0.100	0.630
2020/01/31 13:58:05.6	1.940	0.250	0.120	0.630
2020/01/31 13:58:05.7	1.940	0.190	0.150	0.620
2020/01/31 13:58:05.8	1.930	0.130	0.170	0.620
2020/01/31 13:58:05.9	1.920	0.070	0.200	0.610
2020/01/31 13:58:06.0	1.900	0.000	0.230	0.600
2020/01/31 13:58:06.1	1.880	-0.060	0.260	0.580
2020/01/31 13:58:06.2	1.860	-0.120	0.290	0.570
2020/01/31 13:58:06.3	1.830	-0.190	0.320	0.550
2020/01/31 13:58:06.4	1.800	-0.250	0.350	0.530
2020/01/31 13:58:06.5	1.770	-0.310	0.380	0.510
2020/01/31 13:58:06.6	1.720	-0.370	0.400	0.490
2020/01/31 13:58:06.7	1.690	-0.430	0.430	0.460
2020/01/31 13:58:06.8	1.650	-0.490	0.460	0.430
2020/01/31 13:58:06.9	1.620	-0.540	0.480	0.400
2020/01/31 13:58:07.0	1.580	-0.600	0.500	0.360
2020/01/31 13:58:07.1	1.550	-0.650	0.520	0.320
2020/01/31 13:58:07.2	1.510	-0.690	0.540	0.280
2020/01/31 13:58:07.3	1.480	-0.730	0.550	0.230
2020/01/31 13:58:07.4	1.460	-0.770	0.560	0.180
2020/01/31 13:58:07.5	1.430	-0.800	0.560	0.130
2020/01/31 13:58:07.6	1.410	-0.820	0.560	0.070
2020/01/31 13:58:07.7	1.390	-0.840	0.550	0.000
2020/01/31 13:58:07.8	1.380	-0.860	0.530	-0.060
2020/01/31 13:58:07.9	1.370	-0.870	0.510	-0.130
2020/01/31 13:58:08.0	1.360	-0.870	0.480	-0.210
2020/01/31 13:58:08.1	1.360	-0.860	0.450	-0.280
2020/01/31 13:58:08.2	1.360	-0.850	0.410	-0.360
2020/01/31 13:58:08.3	1.360	-0.840	0.360	-0.430
2020/01/31 13:58:08.4	1.370	-0.820	0.310	-0.510
2020/01/31 13:58:08.5	1.380	-0.790	0.250	-0.580
2020/01/31 13:58:08.6	1.390	-0.760	0.190	-0.660
2020/01/31 13:58:08.7	1.400	-0.720	0.130	-0.730
2020/01/31 13:58:08.8	1.410	-0.680	0.060	-0.810
2020/01/31 13:58:08.9	1.420	-0.640	-0.010	-0.880
2020/01/31 13:58:09.0	1.440	-0.590	-0.080	-0.950
2020/01/31 13:58:09.1	1.460	-0.540	-0.160	-1.020
2020/01/31 13:58:09.2	1.470	-0.480	-0.230	-1.090
2020/01/31 13:58:09.3	1.490	-0.430	-0.310	-1.160
2020/01/31 13:58:09.4	1.510	-0.370	-0.380	-1.230
2020/01/31 13:58:09.5	1.530	-0.310	-0.450	-1.290
2020/01/31 13:58:09.6	1.560	-0.260	-0.520	-1.350
2020/01/31 13:58:09.7	1.580	-0.200	-0.590	-1.410
2020/01/31 13:58:09.8	1.600	-0.140	-0.650	-1.470
2020/01/31 13:58:09.9	1.620	-0.090	-0.710	-1.530
2020/01/31 13:58:10.0	1.650	-0.030	-0.760	-1.570
2020/01/31 13:58:10.1	1.670	0.020	-0.810	-1.620
2020/01/31 13:58:10.2	1.690	0.070	-0.850	-1.660
2020/01/31 13:58:10.3	1.710	0.120	-0.890	-1.690
2020/01/31 13:58:10.4	1.740	0.170	-0.920	-1.720
2020/01/31 13:58:10.5	1.760	0.210	-0.940	-1.740
2020/01/31 13:58:10.6	1.780	0.260	-0.960	-1.750
2020/01/31 13:58:10.7	1.800	0.290	-0.970	-1.750
2020/01/31 13:58:10.8	1.810	0.330	-0.970	-1.740
2020/01/31 13:58:10.9	1.830	0.360	-0.960	-1.730
2020/01/31 13:58:11.0	1.840	0.390	-0.950	-1.700
2020/01/31 13:58:11.1	1.850	0.420	-0.930	-1.670
2020/01/31 13:58:11.2	1.850	0.440	-0.900	-1.630
2020/01/31 13:58:11.3	1.850	0.460	-0.870	-1.580
2020/01/31 13:58:11.4	1.850	0.480	-0.830	-1.510
2020/01/31 13:58:11.5	1.840	0.490	-0.790	-1.450
2020/01/31 13:58:11.6	1.830	0.500	-0.740	-1.360
2020/01/31 13:58:11.7	1.820	0.500	-0.690	-1.280
2020/01/31 13:58:11.8	1.800	0.500	-0.640	-1.190
2020/01/31 13:58:11.9	1.780	0.500	-0.580	-1.100
2020/01/31 13:58:12.0	1.760	0.490	-0.520	-1.000
2020/01/31 13:58:12.1	1.740	0.490	-0.450	-0.900
2020/01/31 13:58:12.2	1.720	0.470	-0.390	-0.800
2020/01/31 13:58:12.3	1.690	0.460	-0.330	-0.690
2020/01/31 13:58:12.4	1.660	0.440	-0.270	-0.590
2020/01/31 13:58:12.5	1.630	0.420	-0.210	-0.480
2020/01/31 13:58:12.6	1.590	0.400	-0.150	-0.370
2020/01/31 13:58:12.7	1.560	0.380	-0.100	-0.270
2020/01/31 13:58:12.8	1.520	0.350	-0.050	-0.170
2020/01/31 13:58:12.9	1.490	0.330	0.000	-0.070
2020/01/31 13:58:13.0	1.460	0.300	0.040	0.030
2020/01/31 13:58:13.1	1.430	0.270	0.080	0.120
2020/01/31 13:58:13.2	1.400	0.250	0.110	0.210
2020/01/31 13:58:13.3	1.370	0.220	0.140	0.290
2020/01/31 13:58:13.4	1.350	0.200	0.160	0.370
2020/01/31 13:58:13.5	1.320	0.170	0.170	0.450
2020/01/31 13:58:13.6	1.320	0.150	0.180	0.520
2020/01/31 13:58:13.7	1.300	0.120	0.180	0.580
2020/01/31 13:58:13.8	1.280	0.100	0.170	0.640
2020/01/31 13:58:13.9	1.270	0.080	0.160	0.690
2020/01/31 13:58:14.0	1.260	0.060	0.140	0.730
2020/01/31 13:58:14.1	1.260	0.050	0.110	0.770
2020/01/31 13:58:14.2	1.260	0.030	0.080	0.810
2020/01/31 13:58:14.3	1.260	0.020	0.040	0.830
2020/01/31 13:58:14.4	1.260	0.010	0.000	0.850
2020/01/31 13:58:14.5	1.270	0.000	-0.050	0.860
2020/01/31 13:58:14.6	1.290	-0.000	-0.100	0.880
2020/01/31 13:58:14.7	1.300	-0.010	-0.150	0.880
2020/01/31 13:58:14.8	1.320	-0.010	-0.210	0.870
2020/01/31 13:58:14.9	1.340	-0.010	-0.260	0.860
2020/01/31 13:58:15.0	1.360	-0.010	-0.320	0.840
2020/01/31 13:58:15.1	1.390	-0.000	-0.380	0.820
2020/01/31 13:58:15.2	1.410	-0.000	-0.440	0.790
2020/01/31 13:58:15.3	1.440	0.000	-0.490	0.750
2020/01/31 13:58:15.4	1.470	0.010	-0.550	0.710
2020/01/31 13:58:15.5	1.500	0.020	-0.600	0.670
2020/01/31 13:58:15.6	1.530	0.020	-0.640	0.620
2020/01/31 13:58:15.7	1.560	0.030	-0.690	0.570
2020/01/31 13:58:15.8	1.590	0.040	-0.720	0.510
2020/01/31 13:58:15.9	1.620	0.040	-0.750	0.460
2020/01/31 13:58:16.0	1.650	0.050	-0.780	0.400
2020/01/31 13:58:16.1	1.680	0.060	-0.790	0.340
2020/01/31 13:58:16.2	1.700	0.070	-0.800	0.280
2020/01/31 13:58:16.3	1.730	0.070	-0.810	0.220
2020/01/31 13:58:16.4	1.750	0.080	-0.800	0.170
2020/01/31 13:58:16.5	1.770	0.080	-0.790	0.110
2020/01/31 13:58:16.6	1.790	0.090	-0.780	0.060
2020/01/31 13:58:16.7	1.800	0.090	-0.750	0.010
2020/01/31 13:58:16.8	1.820	0.090	-0.720	-0.040
2020/01/31 13:58:16.9	1.830	0.090	-0.680	-0.090
2020/01/31 13:58:17.0	1.840	0.090	-0.640	-0.140
2020/01/31 13:58:17.1	1.840	0.090	-0.600	-0.180
2020/01/31 13:58:17.2	1.850	0.090	-0.550	-0.230
2020/01/31 13:58:17.3	1.850	0.080	-0.490	-0.270
2020/01/31 13:58:17.4	1.850	0.080	-0.440	-0.310
2020/01/31 13:58:17.5	1.850	0.070	-0.380	-0.350
2020/01/31 13:58:17.6	1.840	0.060	-0.330	-0.390
2020/01/31 13:58:17.7	1.840	0.050	-0.270	-0.420
2020/01/31 13:58:17.8	1.840	0.040	-0.220	-0.460
2020/01/31 13:58:17.9	1.840	0.030	-0.170	-0.490
2020/01/31 13:58:18.0	1.830	0.020	-0.120	-0.530
2020/01/31 13:58:18.1	1.830	0.010	-0.080	-0.560
2020/01/31 13:58:18.2	1.830	-0.000	-0.030	-0.590
2020/01/31 13:58:18.3	1.830	-0.020	0.000	-0.630
2020/01/31 13:58:18.4	1.830	-0.030	0.030	-0.660
2020/01/31 13:58:18.5	1.830	-0.040	0.060	-0.690
2020/01/31 13:58:18.6	1.830	-0.050	0.070	-0.720
2020/01/31 13:58:18.7	1.830	-0.060	0.090	-0.750
2020/01/31 13:58:18.8	1.840	-0.080	0.100	-0.780
2020/01/31 13:58:18.9	1.840	-0.090	0.110	-0.800
2020/01/31 13:58:19.0	1.840	-0.100	0.110	-0.830
2020/01/31 13:58:19.1	1.850	-0.100	0.100	-0.850
2020/01/31 13:58:19.2	1.850	-0.110	0.090	-0.870
2020/01/31 13:58:19.3	1.850	-0.120	0.080	-0.890
2020/01/31 13:58:19.4	1.850	-0.130	0.070	-0.900
2020/01/31 13:58:19.5	1.850	-0.130	0.050	-0.920
2020/01/31 13:58:19.6	1.860	-0.140	0.040	-0.930
2020/01/31 13:58:19.7	1.860	-0.140	0.020	-0.930
2020/01/31 13:58:19.8	1.860	-0.140	-0.000	-0.940
2020/01/31 13:58:19.9	1.860	-0.140	-0.020	-0.940
2020/01/31 13:58:20.0	1.850	-0.140	-0.040	-0.940
2020/01/31 13:58:20.1	1.850	-0.150	-0.050	-0.930
2020/01/31 13:58:20.2	1.840	-0.140	-0.070	-0.920
2020/01/31 13:58:20.3	1.830	-0.140	-0.080	-0.910
2020/01/31 13:58:20.4	1.830	-0.140	-0.080	-0.900
2020/01/31 13:58:20.5	1.820	-0.140	-0.090	-0.880
2020/01/31 13:58:20.6	1.800	-0.140	-0.090	-0.860
2020/01/31 13:58:20.7	1.790	-0.130	-0.080	-0.830
2020/01/31 13:58:20.8	1.780	-0.130	-0.070	-0.800
2020/01/31 13:58:20.9	1.760	-0.130	-0.050	-0.770
2020/01/31 13:58:21.0	1.740	-0.120	-0.030	-0.730
2020/01/31 13:58:21.1	1.720	-0.120	-0.010	-0.690
2020/01/31 13:58:21.2	1.700	-0.110	0.020	-0.640
2020/01/31 13:58:21.3	1.680	-0.100	0.050	-0.590
2020/01/31 13:58:21.4	1.660	-0.100	0.080	-0.530
2020/01/31 13:58:21.5	1.630	-0.090	0.120	-0.480
2020/01/31 13:58:21.6	1.610	-0.090	0.150	-0.410
2020/01/31 13:58:21.7	1.590	-0.080	0.190	-0.340
2020/01/31 13:58:21.8	1.560	-0.070	0.230	-0.280
2020/01/31 13:58:21.9	1.540	-0.070	0.270	-0.210
2020/01/31 13:58:22.0	1.520	-0.060	0.310	-0.140
2020/01/31 13:58:22.1	1.500	-0.060	0.340	-0.070
2020/01/31 13:58:22.2	1.480	-0.050	0.370	0.010
2020/01/31 13:58:22.3	1.460	-0.050	0.400	0.080
2020/01/31 13:58:22.4	1.440	-0.050	0.420	0.150
2020/01/31 13:58:22.5	1.420	-0.040	0.440	0.220
2020/01/31 13:58:22.6	1.410	-0.040	0.450	0.290
2020/01/31 13:58:22.7	1.400	-0.040	0.450	0.360
2020/01/31 13:58:22.8	1.390	-0.040	0.450	0.420
2020/01/31 13:58:22.9	1.370	-0.040	0.450	0.490
2020/01/31 13:58:23.0	1.360	-0.040	0.430	0.540
2020/01/31 13:58:23.1	1.360	-0.040	0.420	0.590
2020/01/31 13:58:23.2	1.350	-0.040	0.390	0.640
2020/01/31 13:58:23.3	1.350	-0.040	0.360	0.690
2020/01/31 13:58:23.4	1.340	-0.040	0.320	0.720
2020/01/31 13:58:23.5	1.340	-0.050	0.270	0.750
2020/01/31 13:58:23.6	1.360	-0.050	0.220	0.780
2020/01/31 13:58:23.7	1.360	-0.050	0.160	0.800
2020/01/31 13:58:23.8	1.370	-0.050	0.100	0.810
2020/01/31 13:58:23.9	1.380	-0.060	0.030	0.820
2020/01/31 13:58:24.0	1.390	-0.060	-0.040	0.810
2020/01/31 13:58:24.1	1.400	-0.060	-0.120	0.810
2020/01/31 13:58:24.2	1.420	-0.060	-0.200	0.790
2020/01/31 13:58:24.3	1.440	-0.060	-0.280	0.770
2020/01/31 13:58:24.4	1.460	-0.060	-0.360	0.740
2020/01/31 13:58:24.5	1.480	-0.060	-0.450	0.710
2020/01/31 13:58:24.6	1.510	-0.050	-0.540	0.660
2020/01/31 13:58:24.7	1.530	-0.050	-0.620	0.620
2020/01/31 13:58:24.8	1.560	-0.040	-0.710	0.570
2020/01/31 13:58:24.9	1.590	-0.030	-0.790	0.520
2020/01/31 13:58:25.0	1.620	-0.020	-0.870	0.460
2020/01/31 13:58:25.1	1.660	-0.010	-0.950	0.400
2020/01/31 13:58:25.2	1.700	-0.000	-1.030	0.340
2020/01/31 13:58:25.3	1.730	0.010	-1.100	0.270
2020/01/31 13:58:25.4	1.770	0.030	-1.160	0.200
2020/01/31 13:58:25.5	1.820	0.040	-1.220	0.120
2020/01/31 13:58:25.6	1.850	0.060	-1.280	0.050
2020/01/31 13:58:25.7	1.890	0.070	-1.330	-0.030
2020/01/31 13:58:25.8	1.940	0.090	-1.370	-0.110
2020/01/31 13:58:25.9	1.980	0.100	-1.410	-0.190
2020/01/31 13:58:26.0	2.030	0.120	-1.440	-0.270
2020/01/31 13:58:26.1	2.070	0.130	-1.460	-0.350
2020/01/31 13:58:26.2	2.120	0.150	-1.470	-0.430
2020/01/31 13:58:26.3	2.170	0.160	-1.480	-0.510
2020/01/31 13:58:26.4	2.210	0.170	-1.480	-0.590
2020/01/31 13:58:26.5	2.260	0.190	-1.470	-0.670
2020/01/31 13:58:26.6	2.310	0.190	-1.450	-0.750
2020/01/31 13:58:26.7	2.350	0.200	-1.430	-0.830
2020/01/31 13:58:26.8	2.400	0.210	-1.390	-0.900
2020/01/31 13:58:26.9	2.440	0.210	-1.350	-0.970
2020/01/31 13:58:27.0	2.480	0.220	-1.310	-1.040
2020/01/31 13:58:27.1	2.510	0.220	-1.250	-1.100
2020/01/31 13:58:27.2	2.550	0.210	-1.190	-1.160
2020/01/31 13:58:27.3	2.580	0.210	-1.130	-1.220
2020/01/31 13:58:27.4	2.610	0.210	-1.060	-1.270
2020/01/31 13:58:27.5	2.640	0.200	-0.980	-1.310
2020/01/31 13:58:27.6	2.660	0.190	-0.910	-1.350
2020/01/31 13:58:27.7	2.680	0.180	-0.830	-1.390
2020/01/31 13:58:27.8	2.700	0.170	-0.740	-1.420
2020/01/31 13:58:27.9	2.720	0.150	-0.660	-1.450
2020/01/31 13:58:28.0	2.740	0.140	-0.570	-1.470
2020/01/31 13:58:28.1	2.750	0.120	-0.480	-1.490
2020/01/31 13:58:28.2	2.770	0.100	-0.400	-1.510
2020/01/31 13:58:28.3	2.770	0.080	-0.310	-1.520
2020/01/31 13:58:28.4	2.780	0.060	-0.220	-1.520
2020/01/31 13:58:28.5	2.780	0.040	-0.140	-1.530
2020/01/31 13:58:28.6	2.790	0.020	-0.050	-1.520
2020/01/31 13:58:28.7	2.790	0.000	0.030	-1.520
2020/01/31 13:58:28.8	2.780	-0.020	0.110	-1.510
2020/01/31 13:58:28.9	2.780	-0.040	0.180	-1.500
2020/01/31 13:58:29.0	2.770	-0.060	0.260	-1.480
2020/01/31 13:58:29.1	2.750	-0.070	0.330	-1.460
2020/01/31 13:58:29.2	2.740	-0.090	0.400	-1.440
2020/01/31 13:58:29.3	2.720	-0.110	0.460	-1.420
2020/01/31 13:58:29.4	2.700	-0.120	0.530	-1.390
2020/01/31 13:58:29.5	2.680	-0.130	0.580	-1.360
2020/01/31 13:58:29.6	2.660	-0.140	0.630	-1.320
2020/01/31 13:58:29.7	2.640	-0.150	0.680	-1.280
2020/01/31 13:58:29.8	2.610	-0.150	0.730	-1.230
2020/01/31 13:58:29.9	2.570	-0.160	0.770	-1.180
2020/01/31 13:58:30.0	2.540	-0.160	0.810	-1.120
2020/01/31 13:58:30.1	2.500	-0.160	0.840	-1.060
2020/01/31 13:58:30.2	2.460	-0.150	0.870	-0.990
2020/01/31 13:58:30.3	2.410	-0.150	0.890	-0.920
2020/01/31 13:58:30.4	2.360	-0.140	0.910	-0.840
2020/01/31 13:58:30.5	2.320	-0.130	0.920	-0.760
2020/01/31 13:58:30.6	2.270	-0.120	0.930	-0.680
2020/01/31 13:58:30.7	2.210	-0.100	0.940	-0.590
2020/01/31 13:58:30.8	2.160	-0.090	0.930	-0.500
2020/01/31 13:58:30.9	2.110	-0.080	0.930	-0.420
2020/01/31 13:58:31.0	2.060	-0.060	0.910	-0.330
2020/01/31 13:58:31.1	2.010	-0.050	0.900	-0.250
2020/01/31 13:58:31.2	1.950	-0.030	0.870	-0.160
2020/01/31 13:58:31.3	1.900	-0.020	0.840	-0.080
2020/01/31 13:58:31.4	1.850	-0.000	0.810	-0.000
2020/01/31 13:58:31.5	1.800	0.010	0.770	0.070
2020/01/31 13:58:31.6	1.760	0.020	0.720	0.150
2020/01/31 13:58:31.7	1.710	0.030	0.670	0.220
2020/01/31 13:58:31.8	1.670	0.040	0.620	0.280
2020/01/31 13:58:31.9	1.630	0.050	0.560	0.340
2020/01/31 13:58:32.0	1.590	0.060	0.500	0.390
2020/01/31 13:58:32.1	1.560	0.070	0.430	0.430
2020/01/31 13:58:32.2	1.530	0.070	0.360	0.470
2020/01/31 13:58:32.3	1.500	0.070	0.290	0.510
2020/01/31 13:58:32.4	1.480	0.070	0.210	0.540
2020/01/31 13:58:32.5	1.460	0.080	0.130	0.560
2020/01/31 13:58:32.6	1.440	0.070	0.040	0.570
2020/01/31 13:58:32.7	1.430	0.070	-0.050	0.580
2020/01/31 13:58:32.8	1.420	0.070	-0.140	0.590
2020/01/31 13:58:32.9	1.420	0.070	-0.230	0.590
2020/01/31 13:58:33.0	1.420	0.070	-0.320	0.580
2020/01/31 13:58:33.1	1.430	0.060	-0.410	0.570
2020/01/31 13:58:33.2	1.440	0.060	-0.510	0.560
2020/01/31 13:58:33.3	1.450	0.050	-0.600	0.540
2020/01/31 13:58:33.4	1.460	0.050	-0.680	0.520
2020/01/31 13:58:33.5	1.470	0.040	-0.770	0.500
2020/01/31 13:58:33.6	1.490	0.040	-0.850	0.480
2020/01/31 13:58:33.7	1.510	0.030	-0.930	0.450
2020/01/31 13:58:33.8	1.530	0.030	-1.010	0.420
2020/01/31 13:58:33.9	1.550	0.030	-1.080	0.380
2020/01/31 13:58:34.0	1.570	0.020	-1.150	0.340
2020/01/31 13:58:34.1	1.600	0.020	-1.210	0.300
2020/01/31 13:58:34.2	1.620	0.020	-1.260	0.260
2020/01/31 13:58:34.3	1.650	0.010	-1.310	0.210
2020/01/31 13:58:34.4	1.680	0.010	-1.350	0.170
2020/01/31 13:58:34.5	1.710	0.010	-1.390	0.120
2020/01/31 13:58:34.6	1.740	0.020	-1.410	0.060
2020/01/31 13:58:34.7	1.780	0.020	-1.430	0.010
2020/01/31 13:58:34.8	1.810	0.020	-1.450	-0.050
2020/01/31 13:58:34.9	1.850	0.020	-1.460	-0.110
2020/01/31 13:58:35.0	1.890	0.030	-1.460	-0.170
2020/01/31 13:58:35.1	1.930	0.040	-1.460	-0.230
2020/01/31 13:58:35.2	1.980	0.040	-1.440	-0.290
2020/01/31 13:58:35.3	2.020	0.050	-1.430	-0.350
2020/01/31 13:58:35.4	2.060	0.060	-1.400	-0.410
2020/01/31 13:58:35.5	2.100	0.070	-1.370	-0.470
2020/01/31 13:58:35.6	2.140	0.080	-1.340	-0.530
2020/01/31 13:58:35.7	2.190	0.090	-1.290	-0.580
2020/01/31 13:58:35.8	2.230	0.100	-1.240	-0.630
2020/01/31 13:58:35.9	2.270	0.110	-1.180	-0.680
2020/01/31 13:58:36.0	2.300	0.120	-1.120	-0.730
2020/01/31 13:58:36.1	2.340	0.130	-1.050	-0.770
2020/01/31 13:58:36.2	2.370	0.140	-0.980	-0.810
2020/01/31 13:58:36.3	2.410	0.150	-0.900	-0.850
2020/01/31 13:58:36.4	2.440	0.150	-0.810	-0.880
2020/01/31 13:58:36.5	2.460	0.160	-0.730	-0.910
2020/01/31 13:58:36.6	2.490	0.170	-0.640	-0.930
2020/01/31 13:58:36.7	2.510	0.170	-0.550	-0.950
2020/01/31 13:58:36.8	2.530	0.170	-0.450	-0.960
2020/01/31 13:58:36.9	2.540	0.170	-0.360	-0.970
2020/01/31 13:58:37.0	2.550	0.170	-0.260	-0.980
2020/01/31 13:58:37.1	2.550	0.160	-0.170	-0.980
2020/01/31 13:58:37.2	2.550	0.150	-0.070	-0.980
2020/01/31 13:58:37.3	2.540	0.140	0.030	-0.970
2020/01/31 13:58:37.4	2.530	0.130	0.120	-0.960
2020/01/31 13:58:37.5	2.510	0.110	0.210	-0.950
2020/01/31 13:58:37.6	2.490	0.090	0.300	-0.920
2020/01/31 13:58:37.7	2.470	0.070	0.390	-0.900
2020/01/31 13:58:37.8	2.430	0.040	0.470	-0.870
2020/01/31 13:58:37.9	2.390	0.020	0.550	-0.840
2020/01/31 13:58:38.0	2.350	-0.010	0.630	-0.810
2020/01/31 13:58:38.1	2.300	-0.050	0.700	-0.780
2020/01/31 13:58:38.2	2.250	-0.080	0.770	-0.740
2020/01/31 13:58:38.3	2.190	-0.120	0.830	-0.710
2020/01/31 13:58:38.4	2.130	-0.150	0.880	-0.670
2020/01/31 13:58:38.5	2.070	-0.190	0.930	-0.630
2020/01/31 13:58:38.6	2.000	-0.230	0.960	-0.590
2020/01/31 13:58:38.7	1.940	-0.270	1.000	-0.550
2020/01/31 13:58:38.8	1.860	-0.310	1.020	-0.520
2020/01/31 13:58:38.9	1.790	-0.350	1.040	-0.480
2020/01/31 13:58:39.0	1.720	-0.390	1.050	-0.450
2020/01/31 13:58:39.1	1.650	-0.430	1.050	-0.420
2020/01/31 13:58:39.2	1.570	-0.470	1.040	-0.390
2020/01/31 13:58:39.3	1.500	-0.500	1.020	-0.360
2020/01/31 13:58:39.4	1.430	-0.530	1.000	-0.330
2020/01/31 13:58:39.5	1.360	-0.560	0.970	-0.310
2020/01/31 13:58:39.6	1.300	-0.590	0.930	-0.290
2020/01/31 13:58:39.7	1.240	-0.610	0.880	-0.270
2020/01/31 13:58:39.8	1.180	-0.640	0.820	-0.260
2020/01/31 13:58:39.9	1.120	-0.650	0.760	-0.250
2020/01/31 13:58:40.0	1.070	-0.660	0.690	-0.240
2020/01/31 13:58:40.1	1.010	-0.670	0.610	-0.230
2020/01/31 13:58:40.2	0.970	-0.680	0.530	-0.230
2020/01/31 13:58:40.3	0.920	-0.680	0.440	-0.230
2020/01/31 13:58:40.4	0.880	-0.670	0.340	-0.240
2020/01/31 13:58:40.5	0.850	-0.660	0.250	-0.240
2020/01/31 13:58:40.6	0.820	-0.650	0.140	-0.250
2020/01/31 13:58:40.7	0.790	-0.630	0.040	-0.260
2020/01/31 13:58:40.8	0.770	-0.600	-0.070	-0.280
2020/01/31 13:58:40.9	0.750	-0.570	-0.180	-0.290
2020/01/31 13:58:41.0	0.740	-0.540	-0.290	-0.310
2020/01/31 13:58:41.1	0.730	-0.500	-0.400	-0.330
2020/01/31 13:58:41.2	0.730	-0.460	-0.500	-0.350
2020/01/31 13:58:41.3	0.720	-0.410	-0.610	-0.370
2020/01/31 13:58:41.4	0.730	-0.370	-0.710	-0.390
2020/01/31 13:58:41.5	0.740	-0.310	-0.810	-0.410
2020/01/31 13:58:41.6	0.760	-0.260	-0.910	-0.430
2020/01/31 13:58:41.7	0.770	-0.200	-1.000	-0.450
2020/01/31 13:58:41.8	0.790	-0.140	-1.080	-0.470
2020/01/31 13:58:41.9	0.810	-0.080	-1.160	-0.490
2020/01/31 13:58:42.0	0.840	-0.020	-1.240	-0.510
2020/01/31 13:58:42.1	0.870	0.040	-1.300	-0.530
2020/01/31 13:58:42.2	0.900	0.110	-1.360	-0.550
2020/01/31 13:58:42.3	0.930	0.170	-1.410	-0.560
2020/01/31 13:58:42.4	0.970	0.230	-1.460	-0.580
2020/01/31 13:58:42.5	1.010	0.300	-1.490	-0.590
2020/01/31 13:58:42.6	1.050	0.360	-1.520	-0.590
2020/01/31 13:58:42.7	1.090	0.420	-1.530	-0.600
2020/01/31 13:58:42.8	1.130	0.470	-1.540	-0.600
2020/01/31 13:58:42.9	1.170	0.530	-1.540	-0.600
2020/01/31 13:58:43.0	1.200	0.580	-1.530	-0.590
2020/01/31 13:58:43.1	1.240	0.630	-1.510	-0.580
2020/01/31 13:58:43.2	1.270	0.670	-1.480	-0.570
2020/01/31 13:58:43.3	1.300	0.720	-1.440	-0.550
2020/01/31 13:58:43.4	1.340	0.750	-1.390	-0.520
2020/01/31 13:58:43.5	1.360	0.790	-1.340	-0.490
2020/01/31 13:58:43.6	1.390	0.820	-1.280	-0.460
2020/01/31 13:58:43.7	1.410	0.840	-1.220	-0.420
2020/01/31 13:58:43.8	1.440	0.870	-1.140	-0.380
2020/01/31 13:58:43.9	1.460	0.880	-1.070	-0.340
2020/01/31 13:58:44.0	1.480	0.890	-0.990	-0.290
2020/01/31 13:58:44.1	1.490	0.900	-0.900	-0.240
2020/01/31 13:58:44.2	1.510	0.900	-0.820	-0.190
2020/01/31 13:58:44.3	1.520	0.900	-0.730	-0.130
2020/01/31 13:58:44.4	1.540	0.900	-0.640	-0.080
2020/01/31 13:58:44.5	1.550	0.880	-0.550	-0.020
2020/01/31 13:58:44.6	1.550	0.870	-0.470	0.040
2020/01/31 13:58:44.7	1.560	0.850	-0.380	0.100
2020/01/31 13:58:44.8	1.570	0.820	-0.300	0.160
2020/01/31 13:58:44.9	1.570	0.800	-0.220	0.220
2020/01/31 13:58:45.0	1.570	0.760	-0.140	0.280
2020/01/31 13:58:45.1	1.570	0.730	-0.070	0.340
2020/01/31 13:58:45.2	1.570	0.690	0.000	0.390
2020/01/31 13:58:45.3	1.560	0.640	0.070	0.450
2020/01/31 13:58:45.4	1.560	0.600	0.130	0.500
2020/01/31 13:58:45.5	1.550	0.550	0.190	0.550
2020/01/31 13:58:45.6	1.550	0.500	0.230	0.610
2020/01/31 13:58:45.7	1.540	0.440	0.280	0.650
2020/01/31 13:58:45.8	1.530	0.390	0.320	0.690
2020/01/31 13:58:45.9	1.520	0.330	0.360	0.730
2020/01/31 13:58:46.0	1.510	0.270	0.390	0.760
2020/01/31 13:58:46.1	1.490	0.210	0.420	0.800
2020/01/31 13:58:46.2	1.480	0.150	0.450	0.820
2020/01/31 13:58:46.3	1.460	0.080	0.470	0.850
2020/01/31 13:58:46.4	1.450	0.020	0.490	0.870
2020/01/31 13:58:46.5	1.430	-0.040	0.500	0.880
2020/01/31 13:58:46.6	1.410	-0.100	0.510	0.890
2020/01/31 13:58:46.7	1.390	-0.160	0.520	0.900
2020/01/31 13:58:46.8	1.370	-0.220	0.530	0.900
2020/01/31 13:58:46.9	1.340	-0.280	0.530	0.900
2020/01/31 13:58:47.0	1.320	-0.340	0.530	0.890
2020/01/31 13:58:47.1	1.300	-0.390	0.530	0.870
2020/01/31 13:58:47.2	1.270	-0.440	0.530	0.850
2020/01/31 13:58:47.3	1.250	-0.490	0.530	0.830
2020/01/31 13:58:47.4	1.230	-0.540	0.520	0.800
2020/01/31 13:58:47.5	1.200	-0.580	0.510	0.760
2020/01/31 13:58:47.6	1.190	-0.620	0.510	0.720
2020/01/31 13:58:47.7	1.170	-0.660	0.500	0.680
2020/01/31 13:58:47.8	1.150	-0.690	0.490	0.630
2020/01/31 13:58:47.9	1.120	-0.720	0.470	0.570
2020/01/31 13:58:48.0	1.100	-0.750	0.460	0.520
2020/01/31 13:58:48.1	1.080	-0.770	0.450	0.460
2020/01/31 13:58:48.2	1.060	-0.780	0.430	0.400
2020/01/31 13:58:48.3	1.040	-0.800	0.420	0.330
2020/01/31 13:58:48.4	1.020	-0.800	0.400	0.270
2020/01/31 13:58:48.5	0.990	-0.810	0.380	0.200
2020/01/31 13:58:48.6	0.970	-0.810	0.370	0.140
2020/01/31 13:58:48.7	0.950	-0.800	0.350	0.080
2020/01/31 13:58:48.8	0.920	-0.790	0.330	0.020
2020/01/31 13:58:48.9	0.900	-0.780	0.310	-0.040
2020/01/31 13:58:49.0	0.870	-0.760	0.300	-0.090
2020/01/31 13:58:49.1	0.840	-0.740	0.280	-0.140
2020/01/31 13:58:49.2	0.800	-0.720	0.260	-0.190
2020/01/31 13:58:49.3	0.770	-0.690	0.240	-0.240
2020/01/31 13:58:49.4	0.740	-0.660	0.220	-0.280
2020/01/31 13:58:49.5	0.700	-0.630	0.200	-0.320
2020/01/31 13:58:49.6	0.670	-0.590	0.180	-0.360
2020/01/31 13:58:49.7	0.640	-0.560	0.160	-0.390
2020/01/31 13:58:49.8	0.600	-0.520	0.130	-0.420
2020/01/31 13:58:49.9	0.570	-0.480	0.110	-0.450
2020/01/31 13:58:50.0	0.530	-0.430	0.080	-0.480
2020/01/31 13:58:50.1	0.500	-0.390	0.050	-0.500
2020/01/31 13:58:50.2	0.460	-0.350	0.020	-0.520
2020/01/31 13:58:50.3	0.430	-0.300	-0.020	-0.540
2020/01/31 13:58:50.4	0.400	-0.260	-0.060	-0.560
2020/01/31 13:58:50.5	0.370	-0.210	-0.090	-0.580
2020/01/31 13:58:50.6	0.350	-0.170	-0.140	-0.590
2020/01/31 13:58:50.7	0.320	-0.120	-0.180	-0.600
2020/01/31 13:58:50.8	0.300	-0.070	-0.230	-0.620
2020/01/31 13:58:50.9	0.290	-0.030	-0.270	-0.630
2020/01/31 13:58:51.0	0.280	0.010	-0.320	-0.640
2020/01/31 13:58:51.1	0.270	0.060	-0.380	-0.650
2020/01/31 13:58:51.2	0.270	0.100	-0.430	-0.660
2020/01/31 13:58:51.3	0.270	0.140	-0.490	-0.670
2020/01/31 13:58:51.4	0.280	0.180	-0.550	-0.680
2020/01/31 13:58:51.5	0.290	0.220	-0.610	-0.700
2020/01/31 13:58:51.6	0.300	0.250	-0.670	-0.710
2020/01/31 13:58:51.7	0.320	0.290	-0.730	-0.730
2020/01/31 13:58:51.8	0.340	0.320	-0.800	-0.740
2020/01/31 13:58:51.9	0.370	0.350	-0.860	-0.760
2020/01/31 13:58:52.0	0.410	0.380	-0.920	-0.770
2020/01/31 13:58:52.1	0.450	0.410	-0.980	-0.790
2020/01/31 13:58:52.2	0.490	0.430	-1.030	-0.810
2020/01/31 13:58:52.3	0.540	0.450	-1.090	-0.830
2020/01/31 13:58:52.4	0.580	0.470	-1.140	-0.840
2020/01/31 13:58:52.5	0.630	0.490	-1.180	-0.860
2020/01/31 13:58:52.6	0.670	0.500	-1.220	-0.860
2020/01/31 13:58:52.7	0.710	0.510	-1.260	-0.870
2020/01/31 13:58:52.8	0.760	0.510	-1.280	-0.880
2020/01/31 13:58:52.9	0.800	0.520	-1.300	-0.880
2020/01/31 13:58:53.0	0.840	0.520	-1.310	-0.880
2020/01/31 13:58:53.1	0.880	0.510	-1.310	-0.870
2020/01/31 13:58:53.2	0.910	0.510	-1.310	-0.860
2020/01/31 13:58:53.3	0.940	0.500	-1.300	-0.850
2020/01/31 13:58:53.4	0.970	0.480	-1.270	-0.830
2020/01/31 13:58:53.5	0.990	0.470	-1.240	-0.810
2020/01/31 13:58:53.6	1.000	0.450	-1.210	-0.790
2020/01/31 13:58:53.7	1.020	0.430	-1.160	-0.760
2020/01/31 13:58:53.8	1.030	0.400	-1.110	-0.730
2020/01/31 13:58:53.9	1.040	0.380	-1.050	-0.700
2020/01/31 13:58:54.0	1.040	0.350	-0.990	-0.660
2020/01/31 13:58:54.1	1.040	0.320	-0.920	-0.620
2020/01/31 13:58:54.2	1.040	0.290	-0.850	-0.580
2020/01/31 13:58:54.3	1.030	0.250	-0.770	-0.540
2020/01/31 13:58:54.4	1.030	0.220	-0.690	-0.500
2020/01/31 13:58:54.5	1.020	0.190	-0.610	-0.460
2020/01/31 13:58:54.6	1.010	0.150	-0.530	-0.420
2020/01/31 13:58:54.7	1.000	0.120	-0.450	-0.380
2020/01/31 13:58:54.8	0.990	0.090	-0.370	-0.340
2020/01/31 13:58:54.9	0.980	0.050	-0.300	-0.300
2020/01/31 13:58:55.0	0.970	0.020	-0.220	-0.260
2020/01/31 13:58:55.1	0.960	-0.010	-0.150	-0.230
2020/01/31 13:58:55.2	0.950	-0.030	-0.090	-0.200
2020/01/31 13:58:55.3	0.950	-0.060	-0.030	-0.170
2020/01/31 13:58:55.4	0.950	-0.080	0.030	-0.150
2020/01/31 13:58:55.5	0.950	-0.100	0.080	-0.130
2020/01/31 13:58:55.6	0.950	-0.120	0.120	-0.100
2020/01/31 13:58:55.7	0.960	-0.140	0.160	-0.090
2020/01/31 13:58:55.8	0.970	-0.150	0.180	-0.080
2020/01/31 13:58:55.9	0.980	-0.160	0.210	-0.080
2020/01/31 13:58:56.0	0.990	-0.160	0.220	-0.080
2020/01/31 13:58:56.1	1.010	-0.170	0.230	-0.080
2020/01/31 13:58:56.2	1.030	-0.170	0.230	-0.090
2020/01/31 13:58:56.3	1.050	-0.170	0.230	-0.100
2020/01/31 13:58:56.4	1.080	-0.160	0.230	-0.110
2020/01/31 13:58:56.5	1.100	-0.160	0.220	-0.120
2020/01/31 13:58:56.6	1.120	-0.150	0.200	-0.130
2020/01/31 13:58:56.7	1.130	-0.140	0.190	-0.140
2020/01/31 13:58:56.8	1.140	-0.140	0.180	-0.150
2020/01/31 13:58:56.9	1.150	-0.130	0.170	-0.160
2020/01/31 13:58:57.0	1.150	-0.130	0.160	-0.160
2020/01/31 13:58:57.1	1.150	-0.120	0.150	-0.170
2020/01/31 13:58:57.2	1.150	-0.110	0.150	-0.180
2020/01/31 13:58:57.3	1.130	-0.110	0.140	-0.180
2020/01/31 13:58:57.4	1.120	-0.110	0.140	-0.190
2020/01/31 13:58:57.5	1.100	-0.100	0.140	-0.200
2020/01/31 13:58:57.6	1.090	-0.100	0.140	-0.200
2020/01/31 13:58:57.7	1.060	-0.100	0.140	-0.200
2020/01/31 13:58:57.8	1.030	-0.100	0.150	-0.210
2020/01/31 13:58:57.9	1.000	-0.100	0.150	-0.220
2020/01/31 13:58:58.0	0.970	-0.110	0.160	-0.230
2020/01/31 13:58:58.1	0.930	-0.110	0.170	-0.240
2020/01/31 13:58:58.2	0.890	-0.120	0.180	-0.240
2020/01/31 13:58:58.3	0.850	-0.130	0.200	-0.250
2020/01/31 13:58:58.4	0.800	-0.130	0.210	-0.250
2020/01/31 13:58:58.5	0.760	-0.140	0.230	-0.260
2020/01/31 13:58:58.6	0.710	-0.150	0.240	-0.260
2020/01/31 13:58:58.7	0.660	-0.160	0.260	-0.270
2020/01/31 13:58:58.8	0.620	-0.170	0.280	-0.270
2020/01/31 13:58:58.9	0.570	-0.180	0.290	-0.270
2020/01/31 13:58:59.0	0.520	-0.190	0.310	-0.270
2020/01/31 13:58:59.1	0.470	-0.200	0.320	-0.270
2020/01/31 13:58:59.2	0.420	-0.210	0.330	-0.270
2020/01/31 13:58:59.3	0.380	-0.220	0.330	-0.270
2020/01/31 13:58:59.4	0.340	-0.220	0.340	-0.270
2020/01/31 13:58:59.5	0.290	-0.220	0.340	-0.270
2020/01/31 13:58:59.6	0.260	-0.220	0.330	-0.270
2020/01/31 13:58:59.7	0.220	-0.220	0.320	-0.270
2020/01/31 13:58:59.8	0.190	-0.210	0.310	-0.260
2020/01/31 13:58:59.9	0.160	-0.210	0.290	-0.260
2020/01/31 13:59:00.0	0.130	-0.200	0.270	-0.260
2020/01/31 13:59:00.1	0.100	-0.180	0.250	-0.260
2020/01/31 13:59:00.2	0.070	-0.170	0.220	-0.260
2020/01/31 13:59:00.3	0.050	-0.150	0.190	-0.260
2020/01/31 13:59:00.4	0.030	-0.130	0.160	-0.260
2020/01/31 13:59:00.5	0.020	-0.100	0.120	-0.260
2020/01/31 13:59:00.6	0.010	-0.080	0.080	-0.260
2020/01/31 13:59:00.7	0.000	-0.050	0.040	-0.260
2020/01/31 13:59:00.8	0.000	-0.020	-0.010	-0.270
2020/01/31 13:59:00.9	359.990	0.010	-0.050	-0.280
2020/01/31 13:59:01.0	0.000	0.050	-0.100	-0.280
2020/01/31 13:59:01.1	0.000	0.080	-0.150	-0.290
2020/01/31 13:59:01.2	0.010	0.120	-0.210	-0.300
2020/01/31 13:59:01.3	0.020	0.150	-0.260	-0.310
2020/01/31 13:59:01.4	0.040	0.190	-0.320	-0.330
2020/01/31 13:59:01.5	0.050	0.230	-0.370	-0.340
2020/01/31 13:59:01.6	0.070	0.270	-0.430	-0.350
2020/01/31 13:59:01.7	0.100	0.310	-0.480	-0.360
2020/01/31 13:59:01.8	0.120	0.340	-0.530	-0.370
2020/01/31 13:59:01.9	0.150	0.380	-0.580	-0.380
2020/01/31 13:59:02.0	0.180	0.420	-0.630	-0.390
2020/01/31 13:59:02.1	0.210	0.450	-0.680	-0.400
2020/01/31 13:59:02.2	0.240	0.480	-0.720	-0.400
2020/01/31 13:59:02.3	0.270	0.510	-0.760	-0.400
2020/01/31 13:59:02.4	0.300	0.540	-0.790	-0.400
2020/01/31 13:59:02.5	0.330	0.560	-0.820	-0.390
2020/01/31 13:59:02.6	0.350	0.580	-0.840	-0.380
2020/01/31 13:59:02.7	0.380	0.590	-0.860	-0.360
2020/01/31 13:59:02.8	0.400	0.610	-0.870	-0.350
2020/01/31 13:59:02.9	0.420	0.610	-0.880	-0.330
2020/01/31 13:59:03.0	0.440	0.620	-0.880	-0.310
2020/01/31 13:59:03.1	0.460	0.620	-0.870	-0.280
2020/01/31 13:59:03.2	0.480	0.610	-0.870	-0.260
2020/01/31 13:59:03.3	0.500	0.600	-0.850	-0.240
2020/01/31 13:59:03.4	0.510	0.580	-0.830	-0.210
2020/01/31 13:59:03.5	0.520	0.560	-0.810	-0.190
2020/01/31 13:59:03.6	0.530	0.530	-0.780	-0.150
2020/01/31 13:59:03.7	0.540	0.500	-0.760	-0.130
2020/01/31 13:59:03.8	0.550	0.470	-0.730	-0.110
2020/01/31 13:59:03.9	0.560	0.430	-0.690	-0.080
2020/01/31 13:59:04.0	0.560	0.380	-0.660	-0.060
2020/01/31 13:59:04.1	0.570	0.340	-0.620	-0.050
2020/01/31 13:59:04.2	0.570	0.290	-0.590	-0.030
2020/01/31 13:59:04.3	0.570	0.230	-0.560	-0.020
2020/01/31 13:59:04.4	0.580	0.180	-0.530	-0.010
2020/01/31 13:59:04.5	0.580	0.120	-0.490	-0.000
2020/01/31 13:59:04.6	0.590	0.060	-0.470	0.000
2020/01/31 13:59:04.7	0.600	0.000	-0.440	0.010
2020/01/31 13:59:04.8	0.600	-0.060	-0.420	0.000
2020/01/31 13:59:04.9	0.610	-0.120	-0.390	-0.010
2020/01/31 13:59:05.0	0.620	-0.180	-0.370	-0.020
2020/01/31 13:59:05.1	0.620	-0.240	-0.360	-0.030
2020/01/31 13:59:05.2	0.640	-0.300	-0.340	-0.050
2020/01/31 13:59:05.3	0.650	-0.350	-0.330	-0.070
2020/01/31 13:59:05.4	0.660	-0.410	-0.320	-0.100
2020/01/31 13:59:05.5	0.670	-0.460	-0.320	-0.130
2020/01/31 13:59:05.6	0.690	-0.500	-0.310	-0.160
2020/01/31 13:59:05.7	0.710	-0.550	-0.310	-0.200
2020/01/31 13:59:05.8	0.730	-0.590	-0.310	-0.240
2020/01/31 13:59:05.9	0.750	-0.620	-0.320	-0.290
2020/01/31 13:59:06.0	0.770	-0.660	-0.320	-0.330
2020/01/31 13:59:06.1	0.790	-0.680	-0.320	-0.380
2020/01/31 13:59:06.2	0.820	-0.710	-0.330	-0.430
2020/01/31 13:59:06.3	0.840	-0.730	-0.330	-0.480
2020/01/31 13:59:06.4	0.870	-0.740	-0.330	-0.540
2020/01/31 13:59:06.5	0.890	-0.750	-0.330	-0.590
2020/01/31 13:59:06.6	0.910	-0.760	-0.330	-0.640
2020/01/31 13:59:06.7	0.930	-0.760	-0.330	-0.680
2020/01/31 13:59:06.8	0.940	-0.760	-0.320	-0.730
2020/01/31 13:59:06.9	0.960	-0.750	-0.300	-0.770
2020/01/31 13:59:07.0	0.970	-0.740	-0.290	-0.810
2020/01/31 13:59:07.1	0.980	-0.730	-0.260	-0.840
2020/01/31 13:59:07.2	0.980	-0.720	-0.240	-0.870
2020/01/31 13:59:07.3	0.980	-0.700	-0.210	-0.900
2020/01/31 13:59:07.4	0.980	-0.680	-0.170	-0.920
2020/01/31 13:59:07.5	0.970	-0.660	-0.130	-0.940
2020/01/31 13:59:07.6	0.970	-0.640	-0.090	-0.950
2020/01/31 13:59:07.7	0.960	-0.620	-0.050	-0.960
2020/01/31 13:59:07.8	0.940	-0.590	-0.000	-0.970
2020/01/31 13:59:07.9	0.930	-0.570	0.050	-0.970
2020/01/31 13:59:08.0	0.910	-0.540	0.100	-0.970
2020/01/31 13:59:08.1	0.890	-0.510	0.150	-0.970
2020/01/31 13:59:08.2	0.870	-0.480	0.200	-0.960
2020/01/31 13:59:08.3	0.850	-0.450	0.250	-0.950
2020/01/31 13:59:08.4	0.830	-0.420	0.300	-0.940
2020/01/31 13:59:08.5	0.810	-0.390	0.340	-0.920
2020/01/31 13:59:08.6	0.780	-0.360	0.390	-0.890
2020/01/31 13:59:08.7	0.760	-0.330	0.430	-0.870
2020/01/31 13:59:08.8	0.740	-0.290	0.460	-0.850
2020/01/31 13:59:08.9	0.720	-0.260	0.490	-0.820
2020/01/31 13:59:09.0	0.700	-0.220	0.510	-0.780
2020/01/31 13:59:09.1	0.680	-0.190	0.530	-0.750
2020/01/31 13:59:09.2	0.660	-0.150	0.540	-0.710
2020/01/31 13:59:09.3	0.640	-0.110	0.550	-0.670
2020/01/31 13:59:09.4	0.620	-0.080	0.550	-0.630
2020/01/31 13:59:09.5	0.600	-0.040	0.540	-0.590
2020/01/31 13:59:09.6	0.590	0.000	0.530	-0.550
2020/01/31 13:59:09.7	0.570	0.040	0.510	-0.500
2020/01/31 13:59:09.8	0.560	0.090	0.480	-0.460
2020/01/31 13:59:09.9	0.540	0.130	0.450	-0.410
2020/01/31 13:59:10.0	0.530	0.170	0.410	-0.360
2020/01/31 13:59:10.1	0.520	0.210	0.370	-0.320
2020/01/31 13:59:10.2	0.510	0.260	0.320	-0.270
2020/01/31 13:59:10.3	0.500	0.300	0.260	-0.220
2020/01/31 13:59:10.4	0.500	0.350	0.210	-0.170
2020/01/31 13:59:10.5	0.490	0.390	0.150	-0.130
2020/01/31 13:59:10.6	0.480	0.430	0.080	-0.070
2020/01/31 13:59:10.7	0.470	0.480	0.020	-0.020
2020/01/31 13:59:10.8	0.460	0.520	-0.050	0.020
2020/01/31 13:59:10.9	0.460	0.560	-0.120	0.070
2020/01/31 13:59:11.0	0.450	0.600	-0.180	0.120
2020/01/31 13:59:11.1	0.450	0.640	-0.250	0.170
2020/01/31 13:59:11.2	0.440	0.680	-0.310	0.210
2020/01/31 13:59:11.3	0.440	0.710	-0.380	0.260
2020/01/31 13:59:11.4	0.430	0.750	-0.440	0.300
2020/01/31 13:59:11.5	0.430	0.780	-0.500	0.350
2020/01/31 13:59:11.6	0.420	0.800	-0.560	0.390
2020/01/31 13:59:11.7	0.410	0.830	-0.610	0.430
2020/01/31 13:59:11.8	0.410	0.850	-0.660	0.470
2020/01/31 13:59:11.9	0.400	0.870	-0.700	0.510
2020/01/31 13:59:12.0	0.400	0.880	-0.740	0.550
2020/01/31 13:59:12.1	0.400	0.900	-0.770	0.590
2020/01/31 13:59:12.2	0.390	0.900	-0.800	0.620
2020/01/31 13:59:12.3	0.390	0.910	-0.820	0.650
2020/01/31 13:59:12.4	0.390	0.910	-0.840	0.680
2020/01/31 13:59:12.5	0.390	0.900	-0.850	0.700
2020/01/31 13:59:12.6	0.400	0.890	-0.860	0.730
2020/01/31 13:59:12.7	0.400	0.880	-0.870	0.750
2020/01/31 13:59:12.8	0.400	0.860	-0.870	0.770
2020/01/31 13:59:12.9	0.410	0.840	-0.870	0.780
2020/01/31 13:59:13.0	0.420	0.820	-0.860	0.780
2020/01/31 13:59:13.1	0.430	0.790	-0.860	0.780
2020/01/31 13:59:13.2	0.440	0.760	-0.850	0.780
2020/01/31 13:59:13.3	0.460	0.720	-0.840	0.770
2020/01/31 13:59:13.4	0.470	0.680	-0.830	0.750
2020/01/31 13:59:13.5	0.500	0.640	-0.820	0.730
2020/01/31 13:59:13.6	0.520	0.600	-0.810	0.700
2020/01/31 13:59:13.7	0.550	0.560	-0.800	0.670
2020/01/31 13:59:13.8	0.580	0.510	-0.780	0.630
2020/01/31 13:59:13.9	0.610	0.460	-0.770	0.580
2020/01/31 13:59:14.0	0.650	0.410	-0.760	0.530
2020/01/31 13:59:14.1	0.690	0.360	-0.740	0.480
2020/01/31 13:59:14.2	0.730	0.310	-0.730	0.420
2020/01/31 13:59:14.3	0.780	0.260	-0.720	0.360
2020/01/31 13:59:14.4	0.830	0.210	-0.710	0.290
2020/01/31 13:59:14.5	0.870	0.160	-0.700	0.220
2020/01/31 13:59:14.6	0.920	0.110	-0.690	0.150
2020/01/31 13:59:14.7	0.970	0.060	-0.680	0.070
2020/01/31 13:59:14.8	1.020	0.010	-0.660	-0.000
2020/01/31 13:59:14.9	1.070	-0.040	-0.650	-0.080
2020/01/31 13:59:15.0	1.110	-0.080	-0.630	-0.150
2020/01/31 13:59:15.1	1.150	-0.130	-0.620	-0.220
2020/01/31 13:59:15.2	1.190	-0.170	-0.600	-0.300
2020/01/31 13:59:15.3	1.230	-0.220	-0.570	-0.360
2020/01/31 13:59:15.4	1.270	-0.260	-0.550	-0.430
2020/01/31 13:59:15.5	1.300	-0.300	-0.520	-0.490
2020/01/31 13:59:15.6	1.330	-0.340	-0.490	-0.560
2020/01/31 13:59:15.7	1.350	-0.380	-0.450	-0.610
2020/01/31 13:59:15.8	1.370	-0.410	-0.420	-0.670
2020/01/31 13:59:15.9	1.390	-0.450	-0.380	-0.720
2020/01/31 13:59:16.0	1.410	-0.480	-0.340	-0.760
2020/01/31 13:59:16.1	1.420	-0.510	-0.290	-0.810
2020/01/31 13:59:16.2	1.430	-0.540	-0.250	-0.850
2020/01/31 13:59:16.3	1.440	-0.570	-0.200	-0.880
2020/01/31 13:59:16.4	1.440	-0.590	-0.150	-0.920
2020/01/31 13:59:16.5	1.440	-0.620	-0.100	-0.940
2020/01/31 13:59:16.6	1.440	-0.640	-0.050	-0.970
2020/01/31 13:59:16.7	1.430	-0.660	-0.000	-0.990
2020/01/31 13:59:16.8	1.430	-0.680	0.040	-1.010
2020/01/31 13:59:16.9	1.420	-0.700	0.090	-1.030
2020/01/31 13:59:17.0	1.410	-0.710	0.140	-1.050
2020/01/31 13:59:17.1	1.400	-0.730	0.180	-1.060
2020/01/31 13:59:17.2	1.390	-0.740	0.230	-1.080
2020/01/31 13:59:17.3	1.380	-0.750	0.270	-1.090
2020/01/31 13:59:17.4	1.370	-0.760	0.300	-1.100
2020/01/31 13:59:17.5	1.360	-0.760	0.340	-1.110
2020/01/31 13:59:17.6	1.350	-0.770	0.370	-1.130
2020/01/31 13:59:17.7	1.340	-0.770	0.400	-1.140
2020/01/31 13:59:17.8	1.330	-0.770	0.420	-1.150
2020/01/31 13:59:17.9	1.320	-0.770	0.440	-1.160
2020/01/31 13:59:18.0	1.320	-0.760	0.450	-1.170
2020/01/31 13:59:18.1	1.310	-0.760	0.470	-1.170
2020/01/31 13:59:18.2	1.310	-0.750	0.480	-1.180
2020/01/31 13:59:18.3	1.310	-0.740	0.480	-1.190
2020/01/31 13:59:18.4	1.310	-0.720	0.480	-1.200
2020/01/31 13:59:18.5	1.300	-0.710	0.480	-1.200
2020/01/31 13:59:18.6	1.300	-0.690	0.480	-1.210
2020/01/31 13:59:18.7	1.300	-0.670	0.470	-1.210
2020/01/31 13:59:18.8	1.300	-0.650	0.460	-1.210
2020/01/31 13:59:18.9	1.290	-0.630	0.460	-1.200
2020/01/31 13:59:19.0	1.280	-0.610	0.450	-1.200
2020/01/31 13:59:19.1	1.270	-0.580	0.440	-1.180
2020/01/31 13:59:19.2	1.260	-0.560	0.430	-1.170
2020/01/31 13:59:19.3	1.240	-0.530	0.430	-1.150
2020/01/31 13:59:19.4	1.220	-0.500	0.420	-1.120
2020/01/31 13:59:19.5	1.200	-0.480	0.420	-1.090
2020/01/31 13:59:19.6	1.170	-0.450	0.410	-1.060
2020/01/31 13:59:19.7	1.150	-0.410	0.410	-1.020
2020/01/31 13:59:19.8	1.120	-0.380	0.400	-0.980
2020/01/31 13:59:19.9	1.090	-0.350	0.390	-0.940
2020/01/31 13:59:20.0	1.050	-0.320	0.390	-0.900
2020/01/31 13:59:20.1	1.020	-0.280	0.380	-0.850
2020/01/31 13:59:20.2	0.990	-0.250	0.370	-0.800
2020/01/31 13:59:20.3	0.960	-0.210	0.350	-0.750
2020/01/31 13:59:20.4	0.920	-0.180	0.340	-0.700
2020/01/31 13:59:20.5	0.890	-0.140	0.310	-0.650
2020/01/31 13:59:20.6	0.860	-0.110	0.280	-0.590
2020/01/31 13:59:20.7	0.830	-0.070	0.250	-0.540
2020/01/31 13:59:20.8	0.810	-0.030	0.210	-0.490
2020/01/31 13:59:20.9	0.780	0.010	0.170	-0.440
2020/01/31 13:59:21.0	0.760	0.040	0.110	-0.390
2020/01/31 13:59:21.1	0.740	0.080	0.060	-0.350
2020/01/31 13:59:21.2	0.720	0.120	-0.010	-0.310
2020/01/31 13:59:21.3	0.710	0.160	-0.080	-0.270
2020/01/31 13:59:21.4	0.700	0.200	-0.150	-0.240
2020/01/31 13:59:21.5	0.690	0.240	-0.230	-0.220
2020/01/31 13:59:21.6	0.690	0.280	-0.320	-0.190
2020/01/31 13:59:21.7	0.690	0.320	-0.400	-0.170
2020/01/31 13:59:21.8	0.690	0.360	-0.490	-0.160
2020/01/31 13:59:21.9	0.700	0.400	-0.580	-0.150
2020/01/31 13:59:22.0	0.710	0.440	-0.670	-0.140
2020/01/31 13:59:22.1	0.720	0.480	-0.760	-0.140
2020/01/31 13:59:22.2	0.730	0.510	-0.840	-0.140
2020/01/31 13:59:22.3	0.750	0.550	-0.930	-0.140
2020/01/31 13:59:22.4	0.770	0.580	-1.010	-0.140
2020/01/31 13:59:22.5	0.790	0.610	-1.080	-0.150
2020/01/31 13:59:22.6	0.810	0.640	-1.160	-0.140
2020/01/31 13:59:22.7	0.840	0.660	-1.220	-0.150
2020/01/31 13:59:22.8	0.870	0.690	-1.280	-0.150
2020/01/31 13:59:22.9	0.900	0.710	-1.330	-0.160
2020/01/31 13:59:23.0	0.920	0.730	-1.370	-0.150
2020/01/31 13:59:23.1	0.950	0.740	-1.400	-0.150
2020/01/31 13:59:23.2	0.980	0.750	-1.420	-0.150
2020/01/31 13:59:23.3	1.010	0.760	-1.430	-0.140
2020/01/31 13:59:23.4	1.040	0.770	-1.430	-0.120
2020/01/31 13:59:23.5	1.060	0.770	-1.420	-0.110
2020/01/31 13:59:23.6	1.090	0.770	-1.400	-0.080
2020/01/31 13:59:23.7	1.110	0.770	-1.370	-0.060
2020/01/31 13:59:23.8	1.120	0.760	-1.330	-0.030
2020/01/31 13:59:23.9	1.140	0.750	-1.290	-0.000
2020/01/31 13:59:24.0	1.150	0.740	-1.230	0.030
2020/01/31 13:59:24.1	1.150	0.720	-1.160	0.060
2020/01/31 13:59:24.2	1.160	0.700	-1.090	0.100
2020/01/31 13:59:24.3	1.160	0.670	-1.010	0.140
2020/01/31 13:59:24.4	1.160	0.650	-0.920	0.170
2020/01/31 13:59:24.5	1.160	0.620	-0.840	0.210
2020/01/31 13:59:24.6	1.150	0.580	-0.750	0.250
2020/01/31 13:59:24.7	1.140	0.550	-0.660	0.280
2020/01/31 13:59:24.8	1.140	0.510	-0.560	0.310
2020/01/31 13:59:24.9	1.130	0.470	-0.470	0.340
2020/01/31 13:59:25.0	1.120	0.430	-0.380	0.370
2020/01/31 13:59:25.1	1.120	0.390	-0.300	0.380
2020/01/31 13:59:25.2	1.120	0.350	-0.220	0.400
2020/01/31 13:59:25.3	1.110	0.310	-0.140	0.400
2020/01/31 13:59:25.4	1.110	0.270	-0.070	0.400
2020/01/31 13:59:25.5	1.120	0.230	-0.010	0.400
2020/01/31 13:59:25.6	1.120	0.190	0.050	0.390
2020/01/31 13:59:25.7	1.130	0.150	0.100	0.370
2020/01/31 13:59:25.8	1.140	0.110	0.140	0.340
2020/01/31 13:59:25.9	1.150	0.080	0.170	0.310
2020/01/31 13:59:26.0	1.170	0.040	0.190	0.270
2020/01/31 13:59:26.1	1.180	0.010	0.210	0.230
2020/01/31 13:59:26.2	1.200	-0.020	0.220	0.180
2020/01/31 13:59:26.3	1.220	-0.050	0.220	0.130
2020/01/31 13:59:26.4	1.240	-0.070	0.210	0.080
2020/01/31 13:59:26.5	1.260	-0.090	0.200	0.020
2020/01/31 13:59:26.6	1.290	-0.120	0.180	-0.030
2020/01/31 13:59:26.7	1.320	-0.140	0.160	-0.090
2020/01/31 13:59:26.8	1.340	-0.150	0.140	-0.160
2020/01/31 13:59:26.9	1.370	-0.170	0.110	-0.220
2020/01/31 13:59:27.0	1.390	-0.180	0.080	-0.280
2020/01/31 13:59:27.1	1.420	-0.200	0.050	-0.350
2020/01/31 13:59:27.2	1.440	-0.210	0.010	-0.410
2020/01/31 13:59:27.3	1.470	-0.220	-0.020	-0.470
2020/01/31 13:59:27.4	1.490	-0.230	-0.050	-0.530
2020/01/31 13:59:27.5	1.510	-0.240	-0.080	-0.590
2020/01/31 13:59:27.6	1.530	-0.250	-0.100	-0.660
2020/01/31 13:59:27.7	1.550	-0.250	-0.130	-0.710
2020/01/31 13:59:27.8	1.560	-0.260	-0.150	-0.760
2020/01/31 13:59:27.9	1.570	-0.270	-0.160	-0.810
2020/01/31 13:59:28.0	1.580	-0.280	-0.170	-0.850
2020/01/31 13:59:28.1	1.580	-0.290	-0.180	-0.890
2020/01/31 13:59:28.2	1.580	-0.300	-0.180	-0.930
2020/01/31 13:59:28.3	1.580	-0.310	-0.180	-0.950
2020/01/31 13:59:28.4	1.570	-0.320	-0.170	-0.980
2020/01/31 13:59:28.5	1.560	-0.330	-0.150	-0.990
2020/01/31 13:59:28.6	1.530	-0.340	-0.130	-1.000
2020/01/31 13:59:28.7	1.510	-0.350	-0.100	-1.010
2020/01/31 13:59:28.8	1.480	-0.360	-0.070	-1.010
2020/01/31 13:59:28.9	1.460	-0.370	-0.030	-1.000
2020/01/31 13:59:29.0	1.420	-0.390	0.010	-0.990
2020/01/31 13:59:29.1	1.390	-0.400	0.050	-0.980
2020/01/31 13:59:29.2	1.350	-0.410	0.100	-0.960
2020/01/31 13:59:29.3	1.310	-0.420	0.140	-0.940
2020/01/31 13:59:29.4	1.260	-0.430	0.190	-0.910
2020/01/31 13:59:29.5	1.220	-0.440	0.240	-0.880
2020/01/31 13:59:29.6	1.170	-0.450	0.290	-0.840
2020/01/31 13:59:29.7	1.120	-0.460	0.340	-0.800
2020/01/31 13:59:29.8	1.070	-0.470	0.380	-0.760
2020/01/31 13:59:29.9	1.020	-0.470	0.430	-0.720
2020/01/31 13:59:30.0	0.970	-0.480	0.470	-0.680
2020/01/31 13:59:30.1	0.920	-0.480	0.500	-0.640
2020/01/31 13:59:30.2	0.870	-0.480	0.530	-0.590
2020/01/31 13:59:30.3	0.820	-0.480	0.550	-0.550
2020/01/31 13:59:30.4	0.770	-0.470	0.570	-0.500
2020/01/31 13:59:30.5	0.730	-0.460	0.580	-0.460
2020/01/31 13:59:30.6	0.690	-0.450	0.580	-0.410
2020/01/31 13:59:30.7	0.650	-0.430	0.570	-0.370
2020/01/31 13:59:30.8	0.610	-0.420	0.560	-0.340
2020/01/31 13:59:30.9	0.580	-0.400	0.530	-0.300
2020/01/31 13:59:31.0	0.550	-0.380	0.500	-0.270
2020/01/31 13:59:31.1	0.520	-0.350	0.470	-0.240
2020/01/31 13:59:31.2	0.490	-0.320	0.420	-0.210
2020/01/31 13:59:31.3	0.470	-0.290	0.370	-0.190
2020/01/31 13:59:31.4	0.460	-0.260	0.310	-0.170
2020/01/31 13:59:31.5	0.450	-0.230	0.250	-0.150
2020/01/31 13:59:31.6	0.440	-0.190	0.180	-0.140
2020/01/31 13:59:31.7	0.440	-0.160	0.100	-0.130
2020/01/31 13:59:31.8	0.440	-0.120	0.020	-0.130
2020/01/31 13:59:31.9	0.450	-0.080	-0.060	-0.130
2020/01/31 13:59:32.0	0.460	-0.040	-0.140	-0.130
2020/01/31 13:59:32.1	0.470	-0.000	-0.220	-0.140
2020/01/31 13:59:32.2	0.490	0.040	-0.310	-0.150
2020/01/31 13:59:32.3	0.500	0.080	-0.390	-0.170
2020/01/31 13:59:32.4	0.530	0.110	-0.480	-0.180
2020/01/31 13:59:32.5	0.550	0.150	-0.560	-0.200
2020/01/31 13:59:32.6	0.580	0.190	-0.640	-0.220
2020/01/31 13:59:32.7	0.610	0.220	-0.710	-0.240
2020/01/31 13:59:32.8	0.640	0.250	-0.790	-0.270
2020/01/31 13:59:32.9	0.670	0.280	-0.850	-0.290
2020/01/31 13:59:33.0	0.700	0.310	-0.910	-0.320
2020/01/31 13:59:33.1	0.740	0.340	-0.970	-0.350
2020/01/31 13:59:33.2	0.770	0.370	-1.020	-0.370
2020/01/31 13:59:33.3	0.810	0.390	-1.070	-0.400
2020/01/31 13:59:33.4	0.840	0.410	-1.100	-0.430
2020/01/31 13:59:33.5	0.880	0.430	-1.140	-0.460
2020/01/31 13:59:33.6	0.920	0.450	-1.170	-0.480
2020/01/31 13:59:33.7	0.960	0.460	-1.180	-0.500
2020/01/31 13:59:33.8	0.990	0.470	-1.190	-0.520
2020/01/31 13:59:33.9	1.030	0.480	-1.200	-0.540
2020/01/31 13:59:34.0	1.070	0.490	-1.200	-0.550
2020/01/31 13:59:34.1	1.100	0.490	-1.190	-0.560
2020/01/31 13:59:34.2	1.130	0.500	-1.180	-0.570
2020/01/31 13:59:34.3	1.160	0.490	-1.160	-0.570
2020/01/31 13:59:34.4	1.190	0.490	-1.130	-0.570
2020/01/31 13:59:34.5	1.220	0.480	-1.100	-0.570
2020/01/31 13:59:34.6	1.240	0.480	-1.060	-0.560
2020/01/31 13:59:34.7	1.260	0.460	-1.010	-0.540
2020/01/31 13:59:34.8	1.280	0.450	-0.960	-0.530
2020/01/31 13:59:34.9	1.290	0.430	-0.900	-0.510
2020/01/31 13:59:35.0	1.300	0.410	-0.840	-0.480
2020/01/31 13:59:35.1	1.310	0.390	-0.770	-0.460
2020/01/31 13:59:35.2	1.310	0.360	-0.700	-0.430
2020/01/31 13:59:35.3	1.310	0.340	-0.630	-0.400
2020/01/31 13:59:35.4	1.310	0.310	-0.550	-0.360
2020/01/31 13:59:35.5	1.300	0.280	-0.470	-0.320
2020/01/31 13:59:35.6	1.300	0.240	-0.400	-0.280
2020/01/31 13:59:35.7	1.290	0.210	-0.310	-0.240
2020/01/31 13:59:35.8	1.270	0.170	-0.230	-0.200
2020/01/31 13:59:35.9	1.260	0.140	-0.150	-0.150
2020/01/31 13:59:36.0	1.240	0.100	-0.070	-0.100
2020/01/31 13:59:36.1	1.210	0.070	0.000	-0.060
2020/01/31 13:59:36.2	1.190	0.030	0.080	-0.010
2020/01/31 13:59:36.3	1.160	-0.010	0.150	0.040
2020/01/31 13:59:36.4	1.130	-0.040	0.220	0.090
2020/01/31 13:59:36.5	1.100	-0.070	0.280	0.140
2020/01/31 13:59:36.6	1.070	-0.110	0.340	0.190
2020/01/31 13:59:36.7	1.040	-0.140	0.390	0.240
2020/01/31 13:59:36.8	1.000	-0.170	0.430	0.280
2020/01/31 13:59:36.9	0.970	-0.190	0.470	0.330
2020/01/31 13:59:37.0	0.930	-0.220	0.500	0.370
2020/01/31 13:59:37.1	0.900	-0.240	0.520	0.400
2020/01/31 13:59:37.2	0.870	-0.260	0.540	0.440
2020/01/31 13:59:37.3	0.840	-0.270	0.540	0.460
2020/01/31 13:59:37.4	0.810	-0.290	0.540	0.480
2020/01/31 13:59:37.5	0.780	-0.300	0.520	0.500
2020/01/31 13:59:37.6	0.770	-0.300	0.500	0.510
2020/01/31 13:59:37.7	0.740	-0.310	0.470	0.510
2020/01/31 13:59:37.8	0.720	-0.310	0.430	0.510
2020/01/31 13:59:37.9	0.710	-0.300	0.380	0.500
2020/01/31 13:59:38.0	0.690	-0.300	0.330	0.490
2020/01/31 13:59:38.1	0.680	-0.290	0.270	0.470
2020/01/31 13:59:38.2	0.670	-0.270	0.200	0.450
2020/01/31 13:59:38.3	0.660	-0.260	0.130	0.420
2020/01/31 13:59:38.4	0.650	-0.240	0.060	0.390
2020/01/31 13:59:38.5	0.640	-0.220	-0.020	0.350
2020/01/31 13:59:38.6	0.640	-0.200	-0.100	0.310
2020/01/31 13:59:38.7	0.640	-0.180	-0.180	0.270
2020/01/31 13:59:38.8	0.640	-0.150	-0.250	0.210
2020/01/31 13:59:38.9	0.640	-0.130	-0.330	0.160
2020/01/31 13:59:39.0	0.650	-0.100	-0.410	0.100
2020/01/31 13:59:39.1	0.660	-0.070	-0.480	0.040
2020/01/31 13:59:39.2	0.670	-0.040	-0.550	-0.020
2020/01/31 13:59:39.3	0.680	-0.020	-0.620	-0.090
2020/01/31 13:59:39.4	0.700	0.010	-0.680	-0.150
2020/01/31 13:59:39.5	0.710	0.040	-0.730	-0.220
2020/01/31 13:59:39.6	0.730	0.070	-0.780	-0.290
2020/01/31 13:59:39.7	0.750	0.090	-0.820	-0.350
2020/01/31 13:59:39.8	0.770	0.120	-0.850	-0.410
2020/01/31 13:59:39.9	0.790	0.140	-0.870	-0.470
2020/01/31 13:59:40.0	0.820	0.160	-0.890	-0.530
2020/01/31 13:59:40.1	0.840	0.180	-0.890	-0.580
2020/01/31 13:59:40.2	0.870	0.200	-0.890	-0.620
2020/01/31 13:59:40.3	0.890	0.210	-0.870	-0.670
2020/01/31 13:59:40.4	0.910	0.230	-0.850	-0.700
2020/01/31 13:59:40.5	0.940	0.240	-0.810	-0.730
2020/01/31 13:59:40.6	0.950	0.240	-0.770	-0.750
2020/01/31 13:59:40.7	0.960	0.250	-0.720	-0.770
2020/01/31 13:59:40.8	0.980	0.250	-0.660	-0.790
2020/01/31 13:59:40.9	0.990	0.250	-0.590	-0.800
2020/01/31 13:59:41.0	1.010	0.240	-0.520	-0.800
2020/01/31 13:59:41.1	1.010	0.230	-0.440	-0.800
2020/01/31 13:59:41.2	1.020	0.220	-0.350	-0.790
2020/01/31 13:59:41.3	1.030	0.210	-0.270	-0.780
2020/01/31 13:59:41.4	1.030	0.190	-0.170	-0.760
2020/01/31 13:59:41.5	1.030	0.170	-0.080	-0.740
2020/01/31 13:59:41.6	1.030	0.150	0.010	-0.710
2020/01/31 13:59:41.7	1.030	0.130	0.100	-0.690
2020/01/31 13:59:41.8	1.030	0.100	0.180	-0.660
2020/01/31 13:59:41.9	1.030	0.080	0.270	-0.620
2020/01/31 13:59:42.0	1.020	0.050	0.350	-0.590
2020/01/31 13:59:42.1	1.020	0.020	0.420	-0.560
2020/01/31 13:59:42.2	1.020	-0.010	0.490	-0.520
2020/01/31 13:59:42.3	1.020	-0.050	0.550	-0.490
2020/01/31 13:59:42.4	1.010	-0.080	0.600	-0.450
2020/01/31 13:59:42.5	1.010	-0.110	0.640	-0.420
2020/01/31 13:59:42.6	1.010	-0.140	0.680	-0.380
2020/01/31 13:59:42.7	1.010	-0.170	0.700	-0.340
2020/01/31 13:59:42.8	1.000	-0.200	0.720	-0.310
2020/01/31 13:59:42.9	0.990	-0.230	0.730	-0.280
2020/01/31 13:59:43.0	0.990	-0.260	0.740	-0.240
2020/01/31 13:59:43.1	0.980	-0.290	0.730	-0.210
2020/01/31 13:59:43.2	0.970	-0.310	0.710	-0.180
2020/01/31 13:59:43.3	0.960	-0.330	0.690	-0.150
2020/01/31 13:59:43.4	0.950	-0.350	0.650	-0.120
2020/01/31 13:59:43.5	0.930	-0.370	0.610	-0.100
2020/01/31 13:59:43.6	0.930	-0.380	0.560	-0.070
2020/01/31 13:59:43.7	0.920	-0.400	0.500	-0.040
2020/01/31 13:59:43.8	0.900	-0.400	0.440	-0.020
2020/01/31 13:59:43.9	0.890	-0.410	0.360	-0.000
2020/01/31 13:59:44.0	0.880	-0.410	0.290	0.010
2020/01/31 13:59:44.1	0.870	-0.410	0.200	0.030
2020/01/31 13:59:44.2	0.860	-0.400	0.110	0.040
2020/01/31 13:59:44.3	0.860	-0.390	0.010	0.040
2020/01/31 13:59:44.4	0.850	-0.380	-0.080	0.040
2020/01/31 13:59:44.5	0.850	-0.370	-0.190	0.040
2020/01/31 13:59:44.6	0.850	-0.350	-0.290	0.040
2020/01/31 13:59:44.7	0.860	-0.330	-0.400	0.030
2020/01/31 13:59:44.8	0.870	-0.300	-0.500	0.010
2020/01/31 13:59:44.9	0.880	-0.270	-0.610	-0.000
2020/01/31 13:59:45.0	0.890	-0.240	-0.720	-0.030
2020/01/31 13:59:45.1	0.900	-0.210	-0.820	-0.050
2020/01/31 13:59:45.2	0.920	-0.170	-0.920	-0.080
2020/01/31 13:59:45.3	0.940	-0.140	-1.020	-0.110
2020/01/31 13:59:45.4	0.960	-0.100	-1.110	-0.140
2020/01/31 13:59:45.5	0.980	-0.060	-1.200	-0.170
2020/01/31 13:59:45.6	1.010	-0.020	-1.280	-0.200
2020/01/31 13:59:45.7	1.030	0.030	-1.350	-0.230
2020/01/31 13:59:45.8	1.050	0.070	-1.410	-0.270
2020/01/31 13:59:45.9	1.080	0.110	-1.470	-0.300
2020/01/31 13:59:46.0	1.100	0.150	-1.510	-0.330
2020/01/31 13:59:46.1	1.130	0.190	-1.550	-0.360
2020/01/31 13:59:46.2	1.150	0.230	-1.570	-0.390
2020/01/31 13:59:46.3	1.180	0.270	-1.590	-0.420
2020/01/31 13:59:46.4	1.200	0.300	-1.590	-0.450
2020/01/31 13:59:46.5	1.220	0.330	-1.590	-0.470
2020/01/31 13:59:46.6	1.240	0.360	-1.570	-0.500
2020/01/31 13:59:46.7	1.260	0.390	-1.540	-0.520
2020/01/31 13:59:46.8	1.270	0.410	-1.500	-0.540
2020/01/31 13:59:46.9	1.290	0.420	-1.450	-0.560
2020/01/31 13:59:47.0	1.300	0.440	-1.400	-0.580
2020/01/31 13:59:47.1	1.310	0.440	-1.330	-0.590
2020/01/31 13:59:47.2	1.320	0.450	-1.250	-0.600
2020/01/31 13:59:47.3	1.330	0.450	-1.170	-0.610
2020/01/31 13:59:47.4	1.340	0.440	-1.080	-0.620
2020/01/31 13:59:47.5	1.340	0.440	-0.990	-0.620
2020/01/31 13:59:47.6	1.340	0.420	-0.890	-0.620
2020/01/31 13:59:47.7	1.340	0.410	-0.790	-0.620
2020/01/31 13:59:47.8	1.350	0.390	-0.690	-0.610
2020/01/31 13:59:47.9	1.350	0.360	-0.580	-0.610
2020/01/31 13:59:48.0	1.340	0.340	-0.470	-0.600
2020/01/31 13:59:48.1	1.340	0.310	-0.360	-0.580
2020/01/31 13:59:48.2	1.340	0.280	-0.250	-0.570
2020/01/31 13:59:48.3	1.330	0.250	-0.140	-0.550
2020/01/31 13:59:48.4	1.330	0.210	-0.030	-0.520
2020/01/31 13:59:48.5	1.320	0.180	0.070	-0.500
2020/01/31 13:59:48.6	1.320	0.150	0.170	-0.470
2020/01/31 13:59:48.7	1.310	0.110	0.270	-0.440
2020/01/31 13:59:48.8	1.300	0.080	0.370	-0.400
2020/01/31 13:59:48.9	1.290	0.040	0.460	-0.370
2020/01/31 13:59:49.0	1.280	0.010	0.540	-0.330
2020/01/31 13:59:49.1	1.270	-0.020	0.620	-0.300
2020/01/31 13:59:49.2	1.260	-0.050	0.690	-0.260
2020/01/31 13:59:49.3	1.240	-0.080	0.750	-0.220
2020/01/31 13:59:49.4	1.230	-0.100	0.810	-0.180
2020/01/31 13:59:49.5	1.220	-0.120	0.860	-0.130
2020/01/31 13:59:49.6	1.210	-0.140	0.900	-0.090
2020/01/31 13:59:49.7	1.200	-0.160	0.940	-0.050
2020/01/31 13:59:49.8	1.180	-0.170	0.970	-0.000
2020/01/31 13:59:49.9	1.170	-0.180	0.990	0.050
2020/01/31 13:59:50.0	1.150	-0.190	1.010	0.090
2020/01/31 13:59:50.1	1.140	-0.190	1.020	0.140
2020/01/31 13:59:50.2	1.120	-0.190	1.020	0.180
2020/01/31 13:59:50.3	1.110	-0.190	1.020	0.230
2020/01/31 13:59:50.4	1.090	-0.180	1.010	0.270
2020/01/31 13:59:50.5	1.070	-0.180	0.990	0.320
2020/01/31 13:59:50.6	1.070	-0.170	0.960	0.370
2020/01/31 13:59:50.7	1.050	-0.150	0.930	0.420
2020/01/31 13:59:50.8	1.030	-0.140	0.900	0.470
2020/01/31 13:59:50.9	1.020	-0.130	0.860	0.510
2020/01/31 13:59:51.0	1.000	-0.110	0.820	0.550
2020/01/31 13:59:51.1	0.980	-0.100	0.770	0.590
2020/01/31 13:59:51.2	0.960	-0.080	0.710	0.630
2020/01/31 13:59:51.3	0.940	-0.070	0.650	0.670
2020/01/31 13:59:51.4	0.920	-0.050	0.590	0.700
2020/01/31 13:59:51.5	0.900	-0.040	0.530	0.730
2020/01/31 13:59:51.6	0.890	-0.030	0.460	0.760
2020/01/31 13:59:51.7	0.870	-0.020	0.390	0.790
2020/01/31 13:59:51.8	0.850	-0.010	0.320	0.810
2020/01/31 13:59:51.9	0.830	-0.000	0.250	0.820
2020/01/31 13:59:52.0	0.820	0.000	0.170	0.830
2020/01/31 13:59:52.1	0.810	0.000	0.100	0.840
2020/01/31 13:59:52.2	0.800	0.000	0.020	0.840
2020/01/31 13:59:52.3	0.790	0.000	-0.050	0.830
2020/01/31 13:59:52.4	0.780	-0.000	-0.130	0.830
2020/01/31 13:59:52.5	0.770	-0.010	-0.200	0.810
2020/01/31 13:59:52.6	0.770	-0.020	-0.280	0.790
2020/01/31 13:59:52.7	0.760	-0.030	-0.350	0.770
2020/01/31 13:59:52.8	0.770	-0.050	-0.430	0.740
2020/01/31 13:59:52.9	0.770	-0.060	-0.500	0.710
2020/01/31 13:59:53.0	0.780	-0.080	-0.570	0.670
2020/01/31 13:59:53.1	0.790	-0.100	-0.630	0.630
2020/01/31 13:59:53.2	0.800	-0.110	-0.700	0.590
2020/01/31 13:59:53.3	0.810	-0.130	-0.760	0.530
2020/01/31 13:59:53.4	0.830	-0.150	-0.820	0.480
2020/01/31 13:59:53.5	0.850	-0.170	-0.880	0.420
2020/01/31 13:59:53.6	0.870	-0.190	-0.930	0.350
2020/01/31 13:59:53.7	0.900	-0.210	-0.990	0.290
2020/01/31 13:59:53.8	0.930	-0.230	-1.040	0.220
2020/01/31 13:59:53.9	0.960	-0.240	-1.080	0.140
2020/01/31 13:59:54.0	0.990	-0.260	-1.120	0.070
2020/01/31 13:59:54.1	1.020	-0.270	-1.160	-0.010
2020/01/31 13:59:54.2	1.060	-0.280	-1.200	-0.090
2020/01/31 13:59:54.3	1.090	-0.290	-1.230	-0.160
2020/01/31 13:59:54.4	1.120	-0.290	-1.260	-0.240
2020/01/31 13:59:54.5	1.150	-0.300	-1.280	-0.320
2020/01/31 13:59:54.6	1.180	-0.300	-1.300	-0.400
2020/01/31 13:59:54.7	1.200	-0.300	-1.310	-0.470
2020/01/31 13:59:54.8	1.230	-0.290	-1.320	-0.550
2020/01/31 13:59:54.9	1.250	-0.290	-1.330	-0.620
2020/01/31 13:59:55.0	1.270	-0.280	-1.330	-0.690
2020/01/31 13:59:55.1	1.290	-0.270	-1.320	-0.760
2020/01/31 13:59:55.2	1.310	-0.260	-1.310	-0.820
2020/01/31 13:59:55.3	1.320	-0.240	-1.300	-0.890
2020/01/31 13:59:55.4	1.330	-0.220	-1.280	-0.950
2020/01/31 13:59:55.5	1.340	-0.200	-1.250	-1.000
2020/01/31 13:59:55.6	1.340	-0.180	-1.230	-1.050
2020/01/31 13:59:55.7	1.340	-0.160	-1.200	-1.100
2020/01/31 13:59:55.8	1.350	-0.130	-1.160	-1.150
2020/01/31 13:59:55.9	1.350	-0.110	-1.120	-1.190
2020/01/31 13:59:56.0	1.350	-0.080	-1.080	-1.220
2020/01/31 13:59:56.1	1.350	-0.050	-1.030	-1.260
2020/01/31 13:59:56.2	1.350	-0.020	-0.980	-1.280
2020/01/31 13:59:56.3	1.340	0.010	-0.930	-1.300
2020/01/31 13:59:56.4	1.340	0.040	-0.870	-1.320
2020/01/31 13:59:56.5	1.340	0.070	-0.820	-1.330
2020/01/31 13:59:56.6	1.330	0.110	-0.760	-1.330
2020/01/31 13:59:56.7	1.330	0.140	-0.700	-1.330
2020/01/31 13:59:56.8	1.330	0.170	-0.640	-1.330
2020/01/31 13:59:56.9	1.330	0.200	-0.570	-1.310
2020/01/31 13:59:57.0	1.330	0.240	-0.510	-1.300
2020/01/31 13:59:57.1	1.330	0.270	-0.440	-1.280
2020/01/31 13:59:57.2	1.330	0.300	-0.380	-1.250
2020/01/31 13:59:57.3	1.330	0.330	-0.320	-1.220
2020/01/31 13:59:57.4	1.330	0.360	-0.260	-1.180
2020/01/31 13:59:57.5	1.330	0.380	-0.190	-1.150
2020/01/31 13:59:57.6	1.340	0.410	-0.130	-1.100
2020/01/31 13:59:57.7	1.340	0.430	-0.070	-1.050
2020/01/31 13:59:57.8	1.350	0.460	-0.020	-1.000
2020/01/31 13:59:57.9	1.350	0.480	0.040	-0.950
2020/01/31 13:59:58.0	1.360	0.500	0.100	-0.900
2020/01/31 13:59:58.1	1.360	0.510	0.150	-0.840
2020/01/31 13:59:58.2	1.360	0.530	0.210	-0.780
2020/01/31 13:59:58.3	1.360	0.540	0.260	-0.720
2020/01/31 13:59:58.4	1.360	0.550	0.310	-0.660
2020/01/31 13:59:58.5	1.360	0.550	0.360	-0.590
2020/01/31 13:59:58.6	1.350	0.550	0.410	-0.520
2020/01/31 13:59:58.7	1.340	0.550	0.450	-0.450
2020/01/31 13:59:58.8	1.330	0.550	0.490	-0.380
2020/01/31 13:59:58.9	1.320	0.540	0.540	-0.310
2020/01/31 13:59:59.0	1.300	0.530	0.580	-0.240
2020/01/31 13:59:59.1	1.290	0.520	0.610	-0.170
2020/01/31 13:59:59.2	1.270	0.500	0.650	-0.100
2020/01/31 13:59:59.3	1.240	0.490	0.680	-0.030
2020/01/31 13:59:59.4	1.220	0.460	0.700	0.030
2020/01/31 13:59:59.5	1.200	0.440	0.730	0.100
2020/01/31 13:59:59.6	1.180	0.410	0.750	0.170
2020/01/31 13:59:59.7	1.160	0.380	0.760	0.240
2020/01/31 13:59:59.8	1.130	0.350	0.780	0.300
2020/01/31 13:59:59.9	1.100	0.310	0.790	0.360
2020/01/31 14:00:00.0	1.070	0.280	0.790	0.410
2020/01/31 14:00:00.1	1.030	0.240	0.790	0.470
2020/01/31 14:00:00.2	1.000	0.200	0.780	0.520
2020/01/31 14:00:00.3	0.970	0.150	0.770	0.570
2020/01/31 14:00:00.4	0.930	0.110	0.760	0.620
2020/01/31 14:00:00.5	0.890	0.060	0.740	0.670
2020/01/31 14:00:00.6	0.860	0.020	0.710	0.710
2020/01/31 14:00:00.7	0.820	-0.030	0.680	0.750
2020/01/31 14:00:00.8	0.780	-0.080	0.650	0.780
2020/01/31 14:00:00.9	0.740	-0.120	0.610	0.810
2020/01/31 14:00:01.0	0.700	-0.170	0.570	0.840
2020/01/31 14:00:01.1	0.660	-0.220	0.520	0.860
2020/01/31 14:00:01.2	0.620	-0.260	0.470	0.870
2020/01/31 14:00:01.3	0.580	-0.310	0.420	0.880
2020/01/31 14:00:01.4	0.540	-0.350	0.360	0.890
2020/01/31 14:00:01.5	0.510	-0.390	0.300	0.890
2020/01/31 14:00:01.6	0.480	-0.430	0.240	0.890
2020/01/31 14:00:01.7	0.440	-0.460	0.180	0.890
2020/01/31 14:00:01.8	0.410	-0.490	0.110	0.880
2020/01/31 14:00:01.9	0.380	-0.520	0.040	0.860
2020/01/31 14:00:02.0	0.350	-0.550	-0.020	0.840
2020/01/31 14:00:02.1	0.320	-0.570	-0.090	0.820
2020/01/31 14:00:02.2	0.300	-0.590	-0.160	0.800
2020/01/31 14:00:02.3	0.280	-0.610	-0.220	0.770
2020/01/31 14:00:02.4	0.260	-0.620	-0.290	0.750
2020/01/31 14:00:02.5	0.250	-0.620	-0.360	0.710
2020/01/31 14:00:02.6	0.240	-0.620	-0.420	0.680
2020/01/31 14:00:02.7	0.230	-0.620	-0.490	0.640
2020/01/31 14:00:02.8	0.230	-0.610	-0.550	0.610
2020/01/31 14:00:02.9	0.230	-0.600	-0.610	0.570
2020/01/31 14:00:03.0	0.230	-0.580	-0.670	0.530
2020/01/31 14:00:03.1	0.240	-0.560	-0.730	0.490
2020/01/31 14:00:03.2	0.250	-0.530	-0.790	0.440
2020/01/31 14:00:03.3	0.270	-0.510	-0.840	0.400
2020/01/31 14:00:03.4	0.290	-0.480	-0.890	0.350
2020/01/31 14:00:03.5	0.310	-0.440	-0.940	0.300
2020/01/31 14:00:03.6	0.330	-0.410	-0.990	0.250
2020/01/31 14:00:03.7	0.360	-0.370	-1.030	0.200
2020/01/31 14:00:03.8	0.390	-0.340	-1.070	0.140
2020/01/31 14:00:03.9	0.420	-0.300	-1.100	0.090
2020/01/31 14:00:04.0	0.450	-0.260	-1.130	0.030
2020/01/31 14:00:04.1	0.490	-0.230	-1.160	-0.030
2020/01/31 14:00:04.2	0.520	-0.190	-1.180	-0.080
2020/01/31 14:00:04.3	0.560	-0.150	-1.190	-0.140
2020/01/31 14:00:04.4	0.600	-0.120	-1.210	-0.200
2020/01/31 14:00:04.5	0.650	-0.080	-1.220	-0.260
2020/01/31 14:00:04.6	0.690	-0.050	-1.220	-0.330
2020/01/31 14:00:04.7	0.730	-0.020	-1.220	-0.390
2020/01/31 14:00:04.8	0.780	0.010	-1.220	-0.450
2020/01/31 14:00:04.9	0.820	0.030	-1.210	-0.510
2020/01/31 14:00:05.0	0.860	0.060	-1.200	-0.570
2020/01/31 14:00:05.1	0.900	0.080	-1.180	-0.630
2020/01/31 14:00:05.2	0.940	0.100	-1.160	-0.690
2020/01/31 14:00:05.3	0.970	0.120	-1.140	-0.740
2020/01/31 14:00:05.4	1.000	0.130	-1.110	-0.790
2020/01/31 14:00:05.5	1.030	0.150	-1.080	-0.840
2020/01/31 14:00:05.6	1.060	0.160	-1.050	-0.880
2020/01/31 14:00:05.7	1.080	0.170	-1.020	-0.930
2020/01/31 14:00:05.8	1.100	0.170	-0.980	-0.960
2020/01/31 14:00:05.9	1.120	0.180	-0.930	-1.000
2020/01/31 14:00:06.0	1.140	0.180	-0.890	-1.030
2020/01/31 14:00:06.1	1.150	0.180	-0.840	-1.060
2020/01/31 14:00:06.2	1.170	0.180	-0.790	-1.090
2020/01/31 14:00:06.3	1.170	0.180	-0.730	-1.110
2020/01/31 14:00:06.4	1.180	0.180	-0.680	-1.130
2020/01/31 14:00:06.5	1.190	0.180	-0.620	-1.150
2020/01/31 14:00:06.6	1.190	0.170	-0.560	-1.160
2020/01/31 14:00:06.7	1.190	0.170	-0.500	-1.170
2020/01/31 14:00:06.8	1.190	0.170	-0.440	-1.180
2020/01/31 14:00:06.9	1.180	0.160	-0.380	-1.180
2020/01/31 14:00:07.0	1.180	0.160	-0.320	-1.180
2020/01/31 14:00:07.1	1.170	0.160	-0.270	-1.180
2020/01/31 14:00:07.2	1.170	0.150	-0.210	-1.180
2020/01/31 14:00:07.3	1.160	0.150	-0.160	-1.170
2020/01/31 14:00:07.4	1.150	0.150	-0.110	-1.160
2020/01/31 14:00:07.5	1.140	0.150	-0.060	-1.150
2020/01/31 14:00:07.6	1.130	0.140	-0.010	-1.130
2020/01/31 14:00:07.7	1.120	0.140	0.030	-1.120
2020/01/31 14:00:07.8	1.110	0.140	0.080	-1.100
2020/01/31 14:00:07.9	1.090	0.140	0.120	-1.080
2020/01/31 14:00:08.0	1.080	0.140	0.160	-1.050
2020/01/31 14:00:08.1	1.060	0.140	0.190	-1.030
2020/01/31 14:00:08.2	1.040	0.140	0.220	-1.000
2020/01/31 14:00:08.3	1.030	0.140	0.260	-0.970
2020/01/31 14:00:08.4	1.000	0.140	0.290	-0.940
2020/01/31 14:00:08.5	0.980	0.140	0.310	-0.900
2020/01/31 14:00:08.6	0.970	0.140	0.340	-0.860
2020/01/31 14:00:08.7	0.940	0.130	0.370	-0.820
2020/01/31 14:00:08.8	0.920	0.130	0.390	-0.780
2020/01/31 14:00:08.9	0.890	0.130	0.420	-0.740
2020/01/31 14:00:09.0	0.860	0.130	0.440	-0.690
2020/01/31 14:00:09.1	0.830	0.120	0.470	-0.650
2020/01/31 14:00:09.2	0.800	0.120	0.490	-0.600
2020/01/31 14:00:09.3	0.770	0.120	0.510	-0.540
2020/01/31 14:00:09.4	0.730	0.110	0.530	-0.490
2020/01/31 14:00:09.5	0.700	0.100	0.560	-0.430
2020/01/31 14:00:09.6	0.670	0.100	0.580	-0.370
2020/01/31 14:00:09.7	0.630	0.090	0.600	-0.310
2020/01/31 14:00:09.8	0.600	0.080	0.620	-0.250
2020/01/31 14:00:09.9	0.560	0.080	0.640	-0.180
2020/01/31 14:00:10.0	0.520	0.070	0.660	-0.110
2020/01/31 14:00:10.1	0.490	0.060	0.670	-0.040
2020/01/31 14:00:10.2	0.450	0.050	0.690	0.030
2020/01/31 14:00:10.3	0.410	0.040	0.700	0.110
2020/01/31 14:00:10.4	0.380	0.030	0.710	0.180
2020/01/31 14:00:10.5	0.340	0.020	0.710	0.250
2020/01/31 14:00:10.6	0.310	0.010	0.710	0.340
2020/01/31 14:00:10.7	0.270	0.010	0.710	0.410
2020/01/31 14:00:10.8	0.230	-0.000	0.700	0.480
2020/01/31 14:00:10.9	0.200	-0.010	0.690	0.550
2020/01/31 14:00:11.0	0.170	-0.020	0.670	0.620
2020/01/31 14:00:11.1	0.130	-0.020	0.650	0.690
2020/01/31 14:00:11.2	0.100	-0.030	0.620	0.750
2020/01/31 14:00:11.3	0.070	-0.030	0.580	0.810
2020/01/31 14:00:11.4	0.030	-0.040	0.540	0.870
2020/01/31 14:00:11.5	0.000	-0.040	0.500	0.930
2020/01/31 14:00:11.6	359.970	-0.040	0.440	0.980
2020/01/31 14:00:11.7	359.940	-0.040	0.380	1.030
2020/01/31 14:00:11.8	359.910	-0.040	0.320	1.070
2020/01/31 14:00:11.9	359.890	-0.040	0.250	1.110
2020/01/31 14:00:12.0	359.860	-0.030	0.180	1.140
2020/01/31 14:00:12.1	359.840	-0.030	0.100	1.160
2020/01/31 14:00:12.2	359.820	-0.020	0.020	1.180
2020/01/31 14:00:12.3	359.800	-0.010	-0.070	1.190
2020/01/31 14:00:12.4	359.790	-0.000	-0.160	1.200
2020/01/31 14:00:12.5	359.780	0.010	-0.260	1.200
2020/01/31 14:00:12.6	359.760	0.020	-0.360	1.190
2020/01/31 14:00:12.7	359.760	0.040	-0.460	1.180
2020/01/31 14:00:12.8	359.760	0.050	-0.560	1.150
2020/01/31 14:00:12.9	359.770	0.070	-0.660	1.130
2020/01/31 14:00:13.0	359.780	0.090	-0.770	1.090
2020/01/31 14:00:13.1	359.790	0.110	-0.870	1.050
2020/01/31 14:00:13.2	359.810	0.130	-0.970	1.000
2020/01/31 14:00:13.3	359.840	0.150	-1.070	0.950
2020/01/31 14:00:13.4	359.860	0.170	-1.170	0.890
2020/01/31 14:00:13.5	359.890	0.190	-1.270	0.830
2020/01/31 14:00:13.6	359.930	0.210	-1.360	0.760
2020/01/31 14:00:13.7	359.970	0.230	-1.440	0.690
2020/01/31 14:00:13.8	0.010	0.250	-1.520	0.620
2020/01/31 14:00:13.9	0.060	0.270	-1.590	0.540
2020/01/31 14:00:14.0	0.100	0.280	-1.660	0.470
2020/01/31 14:00:14.1	0.150	0.300	-1.710	0.390
2020/01/31 14:00:14.2	0.200	0.310	-1.760	0.320
2020/01/31 14:00:14.3	0.250	0.330	-1.800	0.240
2020/01/31 14:00:14.4	0.300	0.340	-1.820	0.160
2020/01/31 14:00:14.5	0.350	0.340	-1.840	0.090
2020/01/31 14:00:14.6	0.400	0.350	-1.850	0.010
2020/01/31 14:00:14.7	0.450	0.350	-1.840	-0.070
2020/01/31 14:00:14.8	0.510	0.350	-1.830	-0.140
2020/01/31 14:00:14.9	0.560	0.340	-1.800	-0.210
2020/01/31 14:00:15.0	0.620	0.340	-1.760	-0.280
2020/01/31 14:00:15.1	0.670	0.330	-1.710	-0.360
2020/01/31 14:00:15.2	0.720	0.310	-1.660	-0.420
2020/01/31 14:00:15.3	0.770	0.290	-1.590	-0.490
2020/01/31 14:00:15.4	0.820	0.270	-1.520	-0.560
2020/01/31 14:00:15.5	0.870	0.250	-1.430	-0.620
2020/01/31 14:00:15.6	0.910	0.220	-1.340	-0.680
2020/01/31 14:00:15.7	0.960	0.190	-1.240	-0.740
2020/01/31 14:00:15.8	1.010	0.160	-1.140	-0.800
2020/01/31 14:00:15.9	1.050	0.120	-1.030	-0.850
2020/01/31 14:00:16.0	1.090	0.080	-0.920	-0.900
2020/01/31 14:00:16.1	1.120	0.040	-0.800	-0.940
2020/01/31 14:00:16.2	1.150	-0.000	-0.680	-0.980
2020/01/31 14:00:16.3	1.180	-0.050	-0.550	-1.010
2020/01/31 14:00:16.4	1.200	-0.090	-0.420	-1.040
2020/01/31 14:00:16.5	1.220	-0.140	-0.300	-1.060
2020/01/31 14:00:16.6	1.230	-0.190	-0.170	-1.070
2020/01/31 14:00:16.7	1.230	-0.240	-0.040	-1.080
2020/01/31 14:00:16.8	1.240	-0.290	0.090	-1.080
2020/01/31 14:00:16.9	1.230	-0.340	0.210	-1.080
2020/01/31 14:00:17.0	1.220	-0.390	0.330	-1.070
2020/01/31 14:00:17.1	1.210	-0.430	0.450	-1.060
2020/01/31 14:00:17.2	1.190	-0.480	0.560	-1.040
2020/01/31 14:00:17.3	1.170	-0.530	0.670	-1.020
2020/01/31 14:00:17.4	1.150	-0.570	0.770	-1.000
2020/01/31 14:00:17.5	1.120	-0.610	0.860	-0.970
2020/01/31 14:00:17.6	1.090	-0.650	0.950	-0.940
2020/01/31 14:00:17.7	1.060	-0.680	1.030	-0.910
2020/01/31 14:00:17.8	1.020	-0.720	1.090	-0.870
2020/01/31 14:00:17.9	0.990	-0.740	1.150	-0.840
2020/01/31 14:00:18.0	0.950	-0.770	1.200	-0.810
2020/01/31 14:00:18.1	0.920	-0.790	1.230	-0.780
2020/01/31 14:00:18.2	0.880	-0.800	1.260	-0.750
2020/01/31 14:00:18.3	0.840	-0.810	1.270	-0.720
2020/01/31 14:00:18.4	0.810	-0.820	1.280	-0.690
2020/01/31 14:00:18.5	0.770	-0.820	1.270	-0.660
2020/01/31 14:00:18.6	0.740	-0.810	1.250	-0.630
2020/01/31 14:00:18.7	0.710	-0.800	1.230	-0.610
2020/01/31 14:00:18.8	0.680	-0.790	1.190	-0.580
2020/01/31 14:00:18.9	0.650	-0.770	1.150	-0.560
2020/01/31 14:00:19.0	0.620	-0.740	1.090	-0.530
2020/01/31 14:00:19.1	0.590	-0.710	1.040	-0.510
2020/01/31 14:00:19.2	0.560	-0.670	0.970	-0.480
2020/01/31 14:00:19.3	0.530	-0.630	0.900	-0.460
2020/01/31 14:00:19.4	0.500	-0.580	0.820	-0.440
2020/01/31 14:00:19.5	0.470	-0.540	0.740	-0.410
2020/01/31 14:00:19.6	0.450	-0.480	0.650	-0.380
2020/01/31 14:00:19.7	0.420	-0.430	0.570	-0.360
2020/01/31 14:00:19.8	0.390	-0.370	0.480	-0.340
2020/01/31 14:00:19.9	0.370	-0.320	0.390	-0.310
2020/01/31 14:00:20.0	0.340	-0.260	0.290	-0.290
2020/01/31 14:00:20.1	0.320	-0.200	0.200	-0.270
2020/01/31 14:00:20.2	0.290	-0.140	0.110	-0.240
2020/01/31 14:00:20.3	0.260	-0.080	0.020	-0.220
2020/01/31 14:00:20.4	0.240	-0.020	-0.070	-0.190
2020/01/31 14:00:20.5	0.210	0.040	-0.150	-0.170
2020/01/31 14:00:20.6	0.190	0.090	-0.230	-0.130
2020/01/31 14:00:20.7	0.170	0.140	-0.310	-0.100
2020/01/31 14:00:20.8	0.150	0.190	-0.380	-0.070
2020/01/31 14:00:20.9	0.120	0.240	-0.450	-0.040
2020/01/31 14:00:21.0	0.100	0.290	-0.520	-0.000
2020/01/31 14:00:21.1	0.080	0.330	-0.570	0.030
2020/01/31 14:00:21.2	0.060	0.360	-0.630	0.070
2020/01/31 14:00:21.3	0.030	0.400	-0.670	0.110
2020/01/31 14:00:21.4	0.010	0.430	-0.710	0.150
2020/01/31 14:00:21.5	359.990	0.450	-0.740	0.200
2020/01/31 14:00:21.6	359.970	0.480	-0.780	0.240
2020/01/31 14:00:21.7	359.950	0.490	-0.800	0.280
2020/01/31 14:00:21.8	359.930	0.510	-0.810	0.320
2020/01/31 14:00:21.9	359.920	0.520	-0.820	0.360
2020/01/31 14:00:22.0	359.900	0.520	-0.830	0.400
2020/01/31 14:00:22.1	359.890	0.530	-0.830	0.440
2020/01/31 14:00:22.2	359.870	0.520	-0.830	0.470
2020/01/31 14:00:22.3	359.860	0.520	-0.820	0.510
2020/01/31 14:00:22.4	359.850	0.510	-0.810	0.530
2020/01/31 14:00:22.5	359.840	0.510	-0.800	0.560
2020/01/31 14:00:22.6	359.830	0.490	-0.780	0.590
2020/01/31 14:00:22.7	359.820	0.480	-0.760	0.610
2020/01/31 14:00:22.8	359.820	0.470	-0.750	0.630
2020/01/31 14:00:22.9	359.810	0.450	-0.720	0.640
2020/01/31 14:00:23.0	359.800	0.440	-0.700	0.660
2020/01/31 14:00:23.1	359.800	0.420	-0.680	0.670
2020/01/31 14:00:23.2	359.790	0.410	-0.660	0.680
2020/01/31 14:00:23.3	359.790	0.390	-0.630	0.690
2020/01/31 14:00:23.4	359.790	0.380	-0.610	0.690
2020/01/31 14:00:23.5	359.790	0.370	-0.590	0.700
2020/01/31 14:00:23.6	359.800	0.360	-0.580	0.700
2020/01/31 14:00:23.7	359.810	0.350	-0.560	0.700
2020/01/31 14:00:23.8	359.810	0.340	-0.540	0.700
2020/01/31 14:00:23.9	359.820	0.340	-0.520	0.690
2020/01/31 14:00:24.0	359.840	0.340	-0.510	0.690
2020/01/31 14:00:24.1	359.850	0.340	-0.500	0.680
2020/01/31 14:00:24.2	359.870	0.340	-0.490	0.670
2020/01/31 14:00:24.3	359.890	0.340	-0.480	0.660
2020/01/31 14:00:24.4	359.910	0.340	-0.480	0.650
2020/01/31 14:00:24.5	359.930	0.350	-0.470	0.630
2020/01/31 14:00:24.6	359.950	0.360	-0.470	0.610
2020/01/31 14:00:24.7	359.980	0.370	-0.470	0.590
2020/01/31 14:00:24.8	0.010	0.370	-0.470	0.570
2020/01/31 14:00:24.9	0.040	0.380	-0.470	0.550
2020/01/31 14:00:25.0	0.070	0.390	-0.470	0.520
2020/01/31 14:00:25.1	0.090	0.390	-0.470	0.490
2020/01/31 14:00:25.2	0.120	0.400	-0.470	0.460
2020/01/31 14:00:25.3	0.140	0.400	-0.470	0.430
2020/01/31 14:00:25.4	0.170	0.400	-0.470	0.400
2020/01/31 14:00:25.5	0.190	0.400	-0.470	0.370
2020/01/31 14:00:25.6	0.210	0.390	-0.460	0.330
2020/01/31 14:00:25.7	0.230	0.380	-0.460	0.290
2020/01/31 14:00:25.8	0.250	0.370	-0.450	0.250
2020/01/31 14:00:25.9	0.270	0.360	-0.450	0.210
2020/01/31 14:00:26.0	0.290	0.340	-0.440	0.160
2020/01/31 14:00:26.1	0.310	0.320	-0.430	0.120
2020/01/31 14:00:26.2	0.320	0.290	-0.420	0.070
2020/01/31 14:00:26.3	0.340	0.270	-0.410	0.020
2020/01/31 14:00:26.4	0.360	0.230	-0.400	-0.030
2020/01/31 14:00:26.5	0.380	0.200	-0.400	-0.090
2020/01/31 14:00:26.6	0.390	0.160	-0.390	-0.150
2020/01/31 14:00:26.7	0.410	0.120	-0.380	-0.200
2020/01/31 14:00:26.8	0.440	0.080	-0.370	-0.260
2020/01/31 14:00:26.9	0.460	0.040	-0.350	-0.320
2020/01/31 14:00:27.0	0.480	-0.010	-0.340	-0.380
2020/01/31 14:00:27.1	0.510	-0.060	-0.340	-0.440
2020/01/31 14:00:27.2	0.540	-0.100	-0.330	-0.510
2020/01/31 14:00:27.3	0.570	-0.150	-0.320	-0.570
2020/01/31 14:00:27.4	0.600	-0.200	-0.310	-0.640
2020/01/31 14:00:27.5	0.630	-0.250	-0.300	-0.700
2020/01/31 14:00:27.6	0.660	-0.300	-0.300	-0.770
2020/01/31 14:00:27.7	0.690	-0.350	-0.290	-0.830
2020/01/31 14:00:27.8	0.720	-0.400	-0.280	-0.900
2020/01/31 14:00:27.9	0.750	-0.440	-0.270	-0.960
2020/01/31 14:00:28.0	0.780	-0.490	-0.270	-1.030
2020/01/31 14:00:28.1	0.800	-0.530	-0.260	-1.090
2020/01/31 14:00:28.2	0.820	-0.580	-0.250	-1.160
2020/01/31 14:00:28.3	0.850	-0.620	-0.240	-1.220
2020/01/31 14:00:28.4	0.870	-0.650	-0.220	-1.280
2020/01/31 14:00:28.5	0.880	-0.690	-0.210	-1.330
2020/01/31 14:00:28.6	0.900	-0.720	-0.190	-1.390
2020/01/31 14:00:28.7	0.910	-0.750	-0.170	-1.440
2020/01/31 14:00:28.8	0.920	-0.770	-0.150	-1.480
2020/01/31 14:00:28.9	0.920	-0.790	-0.130	-1.530
2020/01/31 14:00:29.0	0.920	-0.800	-0.110	-1.560
2020/01/31 14:00:29.1	0.920	-0.820	-0.080	-1.600
2020/01/31 14:00:29.2	0.910	-0.820	-0.060	-1.620
2020/01/31 14:00:29.3	0.900	-0.820	-0.030	-1.650
2020/01/31 14:00:29.4	0.890	-0.820	-0.000	-1.660
2020/01/31 14:00:29.5	0.880	-0.810	0.030	-1.670
2020/01/31 14:00:29.6	0.860	-0.800	0.060	-1.680
2020/01/31 14:00:29.7	0.840	-0.790	0.090	-1.680
2020/01/31 14:00:29.8	0.820	-0.760	0.120	-1.670
2020/01/31 14:00:29.9	0.790	-0.740	0.150	-1.650
2020/01/31 14:00:30.0	0.770	-0.710	0.180	-1.630
2020/01/31 14:00:30.1	0.740	-0.680	0.210	-1.610
2020/01/31 14:00:30.2	0.710	-0.640	0.240	-1.570
2020/01/31 14:00:30.3	0.680	-0.600	0.260	-1.540
2020/01/31 14:00:30.4	0.650	-0.550	0.290	-1.490
2020/01/31 14:00:30.5	0.620	-0.510	0.310	-1.440
2020/01/31 14:00:30.6	0.580	-0.460	0.330	-1.380
2020/01/31 14:00:30.7	0.550	-0.410	0.340	-1.320
2020/01/31 14:00:30.8	0.520	-0.350	0.360	-1.260
2020/01/31 14:00:30.9	0.480	-0.300	0.360	-1.190
2020/01/31 14:00:31.0	0.450	-0.240	0.370	-1.120
2020/01/31 14:00:31.1	0.420	-0.180	0.370	-1.040
2020/01/31 14:00:31.2	0.380	-0.130	0.370	-0.970
2020/01/31 14:00:31.3	0.350	-0.070	0.360	-0.890
2020/01/31 14:00:31.4	0.310	-0.010	0.350	-0.800
2020/01/31 14:00:31.5	0.280	0.040	0.340	-0.710
2020/01/31 14:00:31.6	0.240	0.090	0.320	-0.620
2020/01/31 14:00:31.7	0.210	0.150	0.300	-0.520
2020/01/31 14:00:31.8	0.170	0.200	0.270	-0.430
2020/01/31 14:00:31.9	0.130	0.240	0.250	-0.330
2020/01/31 14:00:32.0	0.090	0.290	0.220	-0.230
2020/01/31 14:00:32.1	0.050	0.330	0.190	-0.140
2020/01/31 14:00:32.2	0.000	0.370	0.160	-0.030
2020/01/31 14:00:32.3	359.960	0.400	0.130	0.070
2020/01/31 14:00:32.4	359.910	0.430	0.100	0.170
2020/01/31 14:00:32.5	359.870	0.450	0.060	0.270
2020/01/31 14:00:32.6	359.820	0.480	0.030	0.370
2020/01/31 14:00:32.7	359.770	0.490	-0.000	0.470
2020/01/31 14:00:32.8	359.730	0.510	-0.030	0.560
2020/01/31 14:00:32.9	359.680	0.520	-0.070	0.650
2020/01/31 14:00:33.0	359.640	0.520	-0.100	0.740
2020/01/31 14:00:33.1	359.600	0.530	-0.130	0.820
2020/01/31 14:00:33.2	359.560	0.520	-0.160	0.900
2020/01/31 14:00:33.3	359.530	0.520	-0.200	0.970
2020/01/31 14:00:33.4	359.490	0.510	-0.230	1.040
2020/01/31 14:00:33.5	359.470	0.500	-0.260	1.100
2020/01/31 14:00:33.6	359.450	0.490	-0.290	1.150
2020/01/31 14:00:33.7	359.430	0.480	-0.320	1.200
2020/01/31 14:00:33.8	359.420	0.460	-0.350	1.240
2020/01/31 14:00:33.9	359.410	0.440	-0.390	1.270
2020/01/31 14:00:34.0	359.410	0.430	-0.420	1.300
2020/01/31 14:00:34.1	359.410	0.410	-0.450	1.320
2020/01/31 14:00:34.2	359.420	0.390	-0.480	1.330
2020/01/31 14:00:34.3	359.440	0.380	-0.520	1.330
2020/01/31 14:00:34.4	359.460	0.360	-0.550	1.330
2020/01/31 14:00:34.5	359.480	0.350	-0.590	1.320
2020/01/31 14:00:34.6	359.520	0.330	-0.620	1.300
2020/01/31 14:00:34.7	359.550	0.320	-0.650	1.280
2020/01/31 14:00:34.8	359.600	0.310	-0.680	1.260
2020/01/31 14:00:34.9	359.640	0.300	-0.710	1.230
2020/01/31 14:00:35.0	359.690	0.290	-0.740	1.190
2020/01/31 14:00:35.1	359.740	0.290	-0.770	1.150
2020/01/31 14:00:35.2	359.790	0.280	-0.790	1.110
2020/01/31 14:00:35.3	359.840	0.270	-0.810	1.070
2020/01/31 14:00:35.4	359.900	0.270	-0.830	1.020
2020/01/31 14:00:35.5	359.950	0.260	-0.840	0.970
2020/01/31 14:00:35.6	0.010	0.260	-0.850	0.930
2020/01/31 14:00:35.7	0.060	0.250	-0.860	0.880
2020/01/31 14:00:35.8	0.110	0.250	-0.860	0.820
2020/01/31 14:00:35.9	0.160	0.240	-0.860	0.770
2020/01/31 14:00:36.0	0.210	0.230	-0.850	0.720
2020/01/31 14:00:36.1	0.250	0.220	-0.840	0.670
2020/01/31 14:00:36.2	0.290	0.210	-0.820	0.620
2020/01/31 14:00:36.3	0.330	0.200	-0.800	0.580
2020/01/31 14:00:36.4	0.360	0.190	-0.780	0.530
2020/01/31 14:00:36.5	0.390	0.180	-0.750	0.480
2020/01/31 14:00:36.6	0.420	0.160	-0.720	0.440
2020/01/31 14:00:36.7	0.440	0.150	-0.690	0.390
2020/01/31 14:00:36.8	0.460	0.130	-0.650	0.350
2020/01/31 14:00:36.9	0.480	0.110	-0.610	0.310
2020/01/31 14:00:37.0	0.490	0.080	-0.580	0.270
2020/01/31 14:00:37.1	0.500	0.060	-0.540	0.230
2020/01/31 14:00:37.2	0.510	0.030	-0.490	0.190
2020/01/31 14:00:37.3	0.510	0.010	-0.450	0.140
2020/01/31 14:00:37.4	0.520	-0.020	-0.410	0.100
2020/01/31 14:00:37.5	0.520	-0.050	-0.370	0.060
2020/01/31 14:00:37.6	0.520	-0.080	-0.330	0.020
2020/01/31 14:00:37.7	0.520	-0.110	-0.290	-0.020
2020/01/31 14:00:37.8	0.520	-0.150	-0.250	-0.070
2020/01/31 14:00:37.9	0.510	-0.180	-0.220	-0.120
2020/01/31 14:00:38.0	0.510	-0.210	-0.190	-0.170
2020/01/31 14:00:38.1	0.510	-0.240	-0.150	-0.220
2020/01/31 14:00:38.2	0.500	-0.280	-0.130	-0.270
2020/01/31 14:00:38.3	0.500	-0.310	-0.100	-0.320
2020/01/31 14:00:38.4	0.500	-0.340	-0.080	-0.380
2020/01/31 14:00:38.5	0.490	-0.360	-0.060	-0.430
2020/01/31 14:00:38.6	0.490	-0.390	-0.040	-0.490
2020/01/31 14:00:38.7	0.480	-0.410	-0.030	-0.550
2020/01/31 14:00:38.8	0.480	-0.440	-0.020	-0.610
2020/01/31 14:00:38.9	0.480	-0.450	-0.010	-0.660
2020/01/31 14:00:39.0	0.470	-0.470	-0.000	-0.720
2020/01/31 14:00:39.1	0.470	-0.480	0.000	-0.770
2020/01/31 14:00:39.2	0.460	-0.490	0.010	-0.820
2020/01/31 14:00:39.3	0.450	-0.500	0.010	-0.870
2020/01/31 14:00:39.4	0.440	-0.500	0.010	-0.910
2020/01/31 14:00:39.5	0.430	-0.500	0.010	-0.950
2020/01/31 14:00:39.6	0.420	-0.490	0.010	-0.990
2020/01/31 14:00:39.7	0.410	-0.490	0.000	-1.030
2020/01/31 14:00:39.8	0.400	-0.470	-0.000	-1.060
2020/01/31 14:00:39.9	0.390	-0.460	-0.000	-1.090
2020/01/31 14:00:40.0	0.370	-0.440	-0.010	-1.120
2020/01/31 14:00:40.1	0.360	-0.410	-0.010	-1.140
2020/01/31 14:00:40.2	0.350	-0.380	-0.010	-1.160
2020/01/31 14:00:40.3	0.340	-0.350	-0.010	-1.170
2020/01/31 14:00:40.4	0.330	-0.320	-0.020	-1.190
2020/01/31 14:00:40.5	0.310	-0.280	-0.020	-1.190
2020/01/31 14:00:40.6	0.300	-0.240	-0.020	-1.190
2020/01/31 14:00:40.7	0.290	-0.200	-0.010	-1.190
2020/01/31 14:00:40.8	0.280	-0.160	-0.010	-1.190
2020/01/31 14:00:40.9	0.270	-0.110	-0.010	-1.180
2020/01/31 14:00:41.0	0.260	-0.070	-0.010	-1.170
2020/01/31 14:00:41.1	0.260	-0.020	-0.010	-1.150
2020/01/31 14:00:41.2	0.250	0.030	-0.010	-1.130
2020/01/31 14:00:41.3	0.250	0.070	-0.010	-1.110
2020/01/31 14:00:41.4	0.240	0.120	-0.010	-1.080
2020/01/31 14:00:41.5	0.230	0.160	-0.010	-1.050
2020/01/31 14:00:41.6	0.230	0.210	-0.010	-1.010
2020/01/31 14:00:41.7	0.220	0.250	-0.010	-0.970
2020/01/31 14:00:41.8	0.220	0.290	-0.010	-0.930
2020/01/31 14:00:41.9	0.210	0.320	-0.010	-0.890
2020/01/31 14:00:42.0	0.200	0.350	-0.010	-0.840
2020/01/31 14:00:42.1	0.190	0.380	-0.010	-0.790
2020/01/31 14:00:42.2	0.190	0.400	-0.020	-0.740
2020/01/31 14:00:42.3	0.180	0.420	-0.020	-0.680
2020/01/31 14:00:42.4	0.170	0.440	-0.030	-0.630
2020/01/31 14:00:42.5	0.160	0.450	-0.040	-0.570
2020/01/31 14:00:42.6	0.150	0.450	-0.050	-0.510
2020/01/31 14:00:42.7	0.140	0.450	-0.060	-0.450
2020/01/31 14:00:42.8	0.130	0.450	-0.070	-0.390
2020/01/31 14:00:42.9	0.120	0.440	-0.080	-0.340
2020/01/31 14:00:43.0	0.110	0.430	-0.090	-0.290
2020/01/31 14:00:43.1	0.100	0.410	-0.110	-0.230
2020/01/31 14:00:43.2	0.090	0.380	-0.120	-0.190
2020/01/31 14:00:43.3	0.080	0.360	-0.140	-0.140
2020/01/31 14:00:43.4	0.070	0.320	-0.160	-0.100
2020/01/31 14:00:43.5	0.060	0.290	-0.180	-0.060
2020/01/31 14:00:43.6	0.050	0.250	-0.190	-0.030
2020/01/31 14:00:43.7	0.040	0.210	-0.210	0.000
2020/01/31 14:00:43.8	0.040	0.170	-0.230	0.030
2020/01/31 14:00:43.9	0.030	0.120	-0.250	0.050
2020/01/31 14:00:44.0	0.020	0.080	-0.270	0.070
2020/01/31 14:00:44.1	0.020	0.030	-0.290	0.080
2020/01/31 14:00:44.2	0.020	-0.010	-0.310	0.090
2020/01/31 14:00:44.3	0.010	-0.060	-0.330	0.100
2020/01/31 14:00:44.4	0.010	-0.110	-0.350	0.100
2020/01/31 14:00:44.5	0.010	-0.150	-0.370	0.100
2020/01/31 14:00:44.6	0.010	-0.190	-0.380	0.100
2020/01/31 14:00:44.7	0.010	-0.230	-0.400	0.100
2020/01/31 14:00:44.8	0.010	-0.270	-0.410	0.090
2020/01/31 14:00:44.9	0.010	-0.300	-0.430	0.090
2020/01/31 14:00:45.0	0.010	-0.330	-0.440	0.080
2020/01/31 14:00:45.1	0.020	-0.360	-0.450	0.070
2020/01/31 14:00:45.2	0.030	-0.380	-0.450	0.050
2020/01/31 14:00:45.3	0.030	-0.400	-0.460	0.040
2020/01/31 14:00:45.4	0.040	-0.410	-0.460	0.030
2020/01/31 14:00:45.5	0.060	-0.420	-0.460	0.010
2020/01/31 14:00:45.6	0.070	-0.420	-0.460	-0.010
2020/01/31 14:00:45.7	0.080	-0.420	-0.460	-0.030
2020/01/31 14:00:45.8	0.090	-0.420	-0.450	-0.040
2020/01/31 14:00:45.9	0.110	-0.410	-0.440	-0.060
2020/01/31 14:00:46.0	0.130	-0.390	-0.430	-0.070
2020/01/31 14:00:46.1	0.140	-0.370	-0.420	-0.090
2020/01/31 14:00:46.2	0.160	-0.350	-0.410	-0.100
2020/01/31 14:00:46.3	0.180	-0.320	-0.390	-0.120
2020/01/31 14:00:46.4	0.190	-0.290	-0.370	-0.130
2020/01/31 14:00:46.5	0.210	-0.260	-0.350	-0.140
2020/01/31 14:00:46.6	0.230	-0.220	-0.340	-0.140
2020/01/31 14:00:46.7	0.240	-0.180	-0.320	-0.140
2020/01/31 14:00:46.8	0.260	-0.140	-0.300	-0.150
2020/01/31 14:00:46.9	0.270	-0.100	-0.280	-0.150
2020/01/31 14:00:47.0	0.290	-0.060	-0.270	-0.150
2020/01/31 14:00:47.1	0.300	-0.020	-0.250	-0.150
2020/01/31 14:00:47.2	0.320	0.030	-0.230	-0.140
2020/01/31 14:00:47.3	0.340	0.070	-0.220	-0.140
2020/01/31 14:00:47.4	0.350	0.120	-0.210	-0.130
2020/01/31 14:00:47.5	0.370	0.160	-0.200	-0.120
2020/01/31 14:00:47.6	0.390	0.200	-0.200	-0.110
2020/01/31 14:00:47.7	0.410	0.240	-0.190	-0.100
2020/01/31 14:00:47.8	0.430	0.280	-0.190	-0.090
2020/01/31 14:00:47.9	0.450	0.320	-0.190	-0.080
2020/01/31 14:00:48.0	0.470	0.350	-0.190	-0.070
2020/01/31 14:00:48.1	0.500	0.380	-0.200	-0.060
2020/01/31 14:00:48.2	0.520	0.410	-0.200	-0.050
2020/01/31 14:00:48.3	0.550	0.440	-0.210	-0.040
2020/01/31 14:00:48.4	0.570	0.460	-0.220	-0.030
2020/01/31 14:00:48.5	0.600	0.480	-0.240	-0.010
2020/01/31 14:00:48.6	0.630	0.490	-0.250	0.000
2020/01/31 14:00:48.7	0.660	0.500	-0.260	0.020
2020/01/31 14:00:48.8	0.680	0.510	-0.270	0.030
2020/01/31 14:00:48.9	0.700	0.510	-0.280	0.040
2020/01/31 14:00:49.0	0.720	0.510	-0.290	0.050
2020/01/31 14:00:49.1	0.740	0.500	-0.300	0.060
2020/01/31 14:00:49.2	0.750	0.490	-0.310	0.070
2020/01/31 14:00:49.3	0.770	0.470	-0.310	0.080
2020/01/31 14:00:49.4	0.780	0.450	-0.310	0.090
2020/01/31 14:00:49.5	0.780	0.420	-0.310	0.100
2020/01/31 14:00:49.6	0.800	0.390	-0.300	0.100
2020/01/31 14:00:49.7	0.800	0.360	-0.300	0.110
2020/01/31 14:00:49.8	0.800	0.320	-0.280	0.120
2020/01/31 14:00:49.9	0.790	0.280	-0.270	0.120
2020/01/31 14:00:50.0	0.790	0.240	-0.250	0.130
2020/01/31 14:00:50.1	0.780	0.190	-0.230	0.130
2020/01/31 14:00:50.2	0.770	0.150	-0.210	0.140
2020/01/31 14:00:50.3	0.750	0.100	-0.180	0.140
2020/01/31 14:00:50.4	0.740	0.050	-0.160	0.140
2020/01/31 14:00:50.5	0.720	0.000	-0.130	0.150
2020/01/31 14:00:50.6	0.710	-0.050	-0.100	0.150
2020/01/31 14:00:50.7	0.690	-0.100	-0.070	0.150
2020/01/31 14:00:50.8	0.670	-0.150	-0.040	0.150
2020/01/31 14:00:50.9	0.650	-0.200	-0.010	0.150
2020/01/31 14:00:51.0	0.630	-0.240	0.010	0.140
2020/01/31 14:00:51.1	0.610	-0.290	0.040	0.130
2020/01/31 14:00:51.2	0.590	-0.330	0.060	0.120
2020/01/31 14:00:51.3	0.580	-0.370	0.070	0.110
2020/01/31 14:00:51.4	0.560	-0.400	0.090	0.090
2020/01/31 14:00:51.5	0.540	-0.430	0.100	0.060
2020/01/31 14:00:51.6	0.530	-0.460	0.100	0.030
2020/01/31 14:00:51.7	0.520	-0.480	0.100	0.000
2020/01/31 14:00:51.8	0.500	-0.500	0.090	-0.030
2020/01/31 14:00:51.9	0.490	-0.510	0.080	-0.060
2020/01/31 14:00:52.0	0.490	-0.510	0.060	-0.100
2020/01/31 14:00:52.1	0.480	-0.510	0.040	-0.140
2020/01/31 14:00:52.2	0.480	-0.510	0.010	-0.190
2020/01/31 14:00:52.3	0.470	-0.500	-0.020	-0.230
2020/01/31 14:00:52.4	0.470	-0.480	-0.050	-0.280
2020/01/31 14:00:52.5	0.480	-0.460	-0.090	-0.330
2020/01/31 14:00:52.6	0.480	-0.440	-0.140	-0.380
2020/01/31 14:00:52.7	0.480	-0.410	-0.180	-0.430
2020/01/31 14:00:52.8	0.490	-0.370	-0.230	-0.480
2020/01/31 14:00:52.9	0.500	-0.330	-0.280	-0.530
2020/01/31 14:00:53.0	0.510	-0.290	-0.330	-0.580
2020/01/31 14:00:53.1	0.530	-0.240	-0.380	-0.630
2020/01/31 14:00:53.2	0.540	-0.190	-0.430	-0.670
2020/01/31 14:00:53.3	0.550	-0.140	-0.480	-0.720
2020/01/31 14:00:53.4	0.560	-0.090	-0.530	-0.750
2020/01/31 14:00:53.5	0.570	-0.040	-0.570	-0.790
2020/01/31 14:00:53.6	0.580	0.020	-0.610	-0.820
2020/01/31 14:00:53.7	0.590	0.070	-0.640	-0.840
2020/01/31 14:00:53.8	0.590	0.120	-0.670	-0.860
2020/01/31 14:00:53.9	0.590	0.170	-0.690	-0.870
2020/01/31 14:00:54.0	0.590	0.220	-0.710	-0.880
2020/01/31 14:00:54.1	0.580	0.270	-0.720	-0.890
2020/01/31 14:00:54.2	0.580	0.310	-0.720	-0.890
2020/01/31 14:00:54.3	0.570	0.350	-0.720	-0.880
2020/01/31 14:00:54.4	0.560	0.390	-0.710	-0.870
2020/01/31 14:00:54.5	0.550	0.420	-0.690	-0.860
2020/01/31 14:00:54.6	0.530	0.450	-0.670	-0.830
2020/01/31 14:00:54.7	0.510	0.470	-0.640	-0.810
2020/01/31 14:00:54.8	0.490	0.490	-0.610	-0.780
2020/01/31 14:00:54.9	0.480	0.500	-0.570	-0.750
2020/01/31 14:00:55.0	0.460	0.510	-0.520	-0.720
2020/01/31 14:00:55.1	0.440	0.510	-0.470	-0.680
2020/01/31 14:00:55.2	0.420	0.500	-0.410	-0.640
2020/01/31 14:00:55.3	0.390	0.490	-0.360	-0.600
2020/01/31 14:00:55.4	0.370	0.480	-0.300	-0.560
2020/01/31 14:00:55.5	0.350	0.460	-0.230	-0.520
2020/01/31 14:00:55.6	0.340	0.440	-0.170	-0.460
2020/01/31 14:00:55.7	0.330	0.410	-0.110	-0.420
2020/01/31 14:00:55.8	0.310	0.380	-0.050	-0.380
2020/01/31 14:00:55.9	0.290	0.350	0.010	-0.340
2020/01/31 14:00:56.0	0.280	0.310	0.070	-0.300
2020/01/31 14:00:56.1	0.270	0.270	0.120	-0.260
2020/01/31 14:00:56.2	0.260	0.220	0.160	-0.230
2020/01/31 14:00:56.3	0.250	0.180	0.210	-0.190
2020/01/31 14:00:56.4	0.250	0.130	0.240	-0.160
2020/01/31 14:00:56.5	0.240	0.080	0.270	-0.140
2020/01/31 14:00:56.6	0.260	0.030	0.290	-0.110
2020/01/31 14:00:56.7	0.260	-0.020	0.300	-0.090
2020/01/31 14:00:56.8	0.270	-0.070	0.310	-0.080
2020/01/31 14:00:56.9	0.280	-0.130	0.310	-0.070
2020/01/31 14:00:57.0	0.290	-0.180	0.300	-0.070
2020/01/31 14:00:57.1	0.310	-0.220	0.280	-0.070
2020/01/31 14:00:57.2	0.330	-0.270	0.250	-0.070
2020/01/31 14:00:57.3	0.360	-0.310	0.220	-0.080
2020/01/31 14:00:57.4	0.390	-0.360	0.180	-0.100
2020/01/31 14:00:57.5	0.420	-0.390	0.130	-0.120
2020/01/31 14:00:57.6	0.460	-0.430	0.080	-0.140
2020/01/31 14:00:57.7	0.500	-0.460	0.030	-0.170
2020/01/31 14:00:57.8	0.540	-0.490	-0.040	-0.200
2020/01/31 14:00:57.9	0.590	-0.510	-0.100	-0.230
2020/01/31 14:00:58.0	0.630	-0.530	-0.160	-0.260
2020/01/31 14:00:58.1	0.680	-0.540	-0.230	-0.300
2020/01/31 14:00:58.2	0.730	-0.550	-0.300	-0.330
2020/01/31 14:00:58.3	0.780	-0.550	-0.360	-0.370
2020/01/31 14:00:58.4	0.830	-0.550	-0.420	-0.400
2020/01/31 14:00:58.5	0.880	-0.550	-0.480	-0.430
2020/01/31 14:00:58.6	0.930	-0.540	-0.540	-0.460
2020/01/31 14:00:58.7	0.980	-0.520	-0.580	-0.490
2020/01/31 14:00:58.8	1.020	-0.500	-0.620	-0.510
2020/01/31 14:00:58.9	1.070	-0.480	-0.660	-0.530
2020/01/31 14:00:59.0	1.110	-0.460	-0.680	-0.540
2020/01/31 14:00:59.1	1.150	-0.430	-0.700	-0.550
2020/01/31 14:00:59.2	1.180	-0.400	-0.710	-0.550
2020/01/31 14:00:59.3	1.210	-0.360	-0.700	-0.550
2020/01/31 14:00:59.4	1.240	-0.330	-0.690	-0.540
2020/01/31 14:00:59.5	1.260	-0.290	-0.670	-0.520
2020/01/31 14:00:59.6	1.280	-0.250	-0.650	-0.490
2020/01/31 14:00:59.7	1.290	-0.210	-0.610	-0.450
2020/01/31 14:00:59.8	1.290	-0.170	-0.570	-0.410
2020/01/31 14:00:59.9	1.290	-0.130	-0.510	-0.360
2020/01/31 14:01:00.0	1.280	-0.090	-0.460	-0.310
2020/01/31 14:01:00.1	1.270	-0.050	-0.390	-0.250
2020/01/31 14:01:00.2	1.250	-0.010	-0.320	-0.180
2020/01/31 14:01:00.3	1.220	0.030	-0.250	-0.110
2020/01/31 14:01:00.4	1.200	0.060	-0.180	-0.030
2020/01/31 14:01:00.5	1.160	0.090	-0.110	0.040
2020/01/31 14:01:00.6	1.130	0.120	-0.040	0.130
2020/01/31 14:01:00.7	1.090	0.150	0.040	0.210
2020/01/31 14:01:00.8	1.050	0.170	0.110	0.290
2020/01/31 14:01:00.9	1.010	0.190	0.170	0.360
2020/01/31 14:01:01.0	0.970	0.200	0.230	0.440
2020/01/31 14:01:01.1	0.930	0.220	0.290	0.510
2020/01/31 14:01:01.2	0.880	0.230	0.340	0.580
2020/01/31 14:01:01.3	0.840	0.230	0.380	0.650
2020/01/31 14:01:01.4	0.800	0.240	0.420	0.700
2020/01/31 14:01:01.5	0.770	0.240	0.450	0.760
2020/01/31 14:01:01.6	0.740	0.240	0.460	0.810
2020/01/31 14:01:01.7	0.710	0.230	0.470	0.850
2020/01/31 14:01:01.8	0.680	0.220	0.470	0.880
2020/01/31 14:01:01.9	0.660	0.220	0.460	0.910
2020/01/31 14:01:02.0	0.640	0.210	0.440	0.930
2020/01/31 14:01:02.1	0.620	0.190	0.410	0.930
2020/01/31 14:01:02.2	0.610	0.180	0.370	0.940
2020/01/31 14:01:02.3	0.600	0.170	0.320	0.930
2020/01/31 14:01:02.4	0.590	0.160	0.270	0.910
2020/01/31 14:01:02.5	0.590	0.140	0.200	0.890
2020/01/31 14:01:02.6	0.600	0.130	0.130	0.860
2020/01/31 14:01:02.7	0.600	0.110	0.050	0.820
2020/01/31 14:01:02.8	0.610	0.100	-0.030	0.780
2020/01/31 14:01:02.9	0.620	0.090	-0.120	0.720
2020/01/31 14:01:03.0	0.630	0.080	-0.210	0.660
2020/01/31 14:01:03.1	0.640	0.070	-0.310	0.600
2020/01/31 14:01:03.2	0.660	0.060	-0.400	0.530
2020/01/31 14:01:03.3	0.680	0.050	-0.500	0.450
2020/01/31 14:01:03.4	0.710	0.050	-0.600	0.370
2020/01/31 14:01:03.5	0.730	0.050	-0.690	0.290
2020/01/31 14:01:03.6	0.760	0.050	-0.780	0.200
2020/01/31 14:01:03.7	0.790	0.050	-0.870	0.110
2020/01/31 14:01:03.8	0.830	0.050	-0.950	0.020
2020/01/31 14:01:03.9	0.860	0.060	-1.030	-0.070
2020/01/31 14:01:04.0	0.900	0.060	-1.100	-0.160
2020/01/31 14:01:04.1	0.940	0.070	-1.170	-0.260
2020/01/31 14:01:04.2	0.990	0.080	-1.220	-0.350
2020/01/31 14:01:04.3	1.040	0.090	-1.270	-0.450
2020/01/31 14:01:04.4	1.080	0.100	-1.310	-0.540
2020/01/31 14:01:04.5	1.130	0.120	-1.340	-0.630
2020/01/31 14:01:04.6	1.180	0.130	-1.360	-0.720
2020/01/31 14:01:04.7	1.240	0.150	-1.380	-0.810
2020/01/31 14:01:04.8	1.290	0.160	-1.380	-0.890
2020/01/31 14:01:04.9	1.340	0.170	-1.370	-0.970
2020/01/31 14:01:05.0	1.400	0.190	-1.350	-1.050
2020/01/31 14:01:05.1	1.450	0.200	-1.320	-1.120
2020/01/31 14:01:05.2	1.500	0.210	-1.290	-1.190
2020/01/31 14:01:05.3	1.550	0.220	-1.240	-1.250
2020/01/31 14:01:05.4	1.600	0.230	-1.190	-1.310
2020/01/31 14:01:05.5	1.650	0.240	-1.130	-1.360
2020/01/31 14:01:05.6	1.690	0.250	-1.060	-1.410
2020/01/31 14:01:05.7	1.730	0.250	-0.990	-1.440
2020/01/31 14:01:05.8	1.780	0.260	-0.900	-1.480
2020/01/31 14:01:05.9	1.820	0.260	-0.820	-1.500
2020/01/31 14:01:06.0	1.860	0.260	-0.730	-1.520
2020/01/31 14:01:06.1	1.890	0.250	-0.630	-1.540
2020/01/31 14:01:06.2	1.930	0.250	-0.540	-1.540
2020/01/31 14:01:06.3	1.960	0.240	-0.440	-1.540
2020/01/31 14:01:06.4	1.990	0.240	-0.340	-1.540
2020/01/31 14:01:06.5	2.010	0.230	-0.240	-1.530
2020/01/31 14:01:06.6	2.040	0.220	-0.140	-1.510
2020/01/31 14:01:06.7	2.060	0.210	-0.050	-1.490
2020/01/31 14:01:06.8	2.080	0.190	0.040	-1.460
2020/01/31 14:01:06.9	2.100	0.180	0.130	-1.440
2020/01/31 14:01:07.0	2.110	0.170	0.210	-1.410
2020/01/31 14:01:07.1	2.130	0.150	0.290	-1.370
2020/01/31 14:01:07.2	2.140	0.140	0.360	-1.340
2020/01/31 14:01:07.3	2.150	0.120	0.430	-1.300
2020/01/31 14:01:07.4	2.160	0.110	0.480	-1.260
2020/01/31 14:01:07.5	2.170	0.090	0.530	-1.220
2020/01/31 14:01:07.6	2.180	0.080	0.570	-1.170
2020/01/31 14:01:07.7	2.190	0.070	0.610	-1.130
2020/01/31 14:01:07.8	2.190	0.050	0.630	-1.090
2020/01/31 14:01:07.9	2.190	0.040	0.650	-1.050
2020/01/31 14:01:08.0	2.190	0.030	0.660	-1.000
2020/01/31 14:01:08.1	2.190	0.010	0.670	-0.960
2020/01/31 14:01:08.2	2.190	0.000	0.660	-0.920
2020/01/31 14:01:08.3	2.180	-0.010	0.650	-0.880
2020/01/31 14:01:08.4	2.180	-0.020	0.640	-0.850
2020/01/31 14:01:08.5	2.180	-0.030	0.620	-0.820
2020/01/31 14:01:08.6	2.180	-0.040	0.590	-0.780
2020/01/31 14:01:08.7	2.170	-0.040	0.560	-0.750
2020/01/31 14:01:08.8	2.170	-0.050	0.530	-0.720
2020/01/31 14:01:08.9	2.160	-0.060	0.500	-0.700
2020/01/31 14:01:09.0	2.160	-0.070	0.460	-0.680
2020/01/31 14:01:09.1	2.150	-0.080	0.420	-0.660
2020/01/31 14:01:09.2	2.140	-0.090	0.390	-0.640
2020/01/31 14:01:09.3	2.130	-0.100	0.350	-0.630
2020/01/31 14:01:09.4	2.120	-0.110	0.310	-0.610
2020/01/31 14:01:09.5	2.110	-0.120	0.280	-0.590
2020/01/31 14:01:09.6	2.100	-0.130	0.250	-0.570
2020/01/31 14:01:09.7	2.080	-0.140	0.220	-0.560
2020/01/31 14:01:09.8	2.050	-0.150	0.190	-0.540
2020/01/31 14:01:09.9	2.030	-0.170	0.170	-0.520
2020/01/31 14:01:10.0	2.000	-0.180	0.150	-0.510
2020/01/31 14:01:10.1	1.970	-0.200	0.130	-0.490
2020/01/31 14:01:10.2	1.940	-0.220	0.120	-0.480
2020/01/31 14:01:10.3	1.910	-0.240	0.110	-0.460
2020/01/31 14:01:10.4	1.880	-0.260	0.100	-0.450
2020/01/31 14:01:10.5	1.850	-0.280	0.090	-0.430
2020/01/31 14:01:10.6	1.810	-0.300	0.090	-0.410
2020/01/31 14:01:10.7	1.780	-0.330	0.090	-0.400
2020/01/31 14:01:10.8	1.750	-0.350	0.090	-0.390
2020/01/31 14:01:10.9	1.720	-0.370	0.090	-0.380
2020/01/31 14:01:11.0	1.680	-0.390	0.090	-0.370
2020/01/31 14:01:11.1	1.660	-0.420	0.100	-0.350
2020/01/31 14:01:11.2	1.630	-0.440	0.100	-0.350
2020/01/31 14:01:11.3	1.600	-0.460	0.100	-0.340
2020/01/31 14:01:11.4	1.580	-0.480	0.100	-0.330
2020/01/31 14:01:11.5	1.560	-0.490	0.100	-0.320
2020/01/31 14:01:11.6	1.560	-0.510	0.090	-0.320
2020/01/31 14:01:11.7	1.540	-0.520	0.080	-0.320
2020/01/31 14:01:11.8	1.530	-0.530	0.070	-0.320
2020/01/31 14:01:11.9	1.530	-0.540	0.050	-0.310
2020/01/31 14:01:12.0	1.530	-0.540	0.030	-0.320
2020/01/31 14:01:12.1	1.530	-0.540	0.000	-0.320
2020/01/31 14:01:12.2	1.530	-0.540	-0.030	-0.320
2020/01/31 14:01:12.3	1.540	-0.530	-0.070	-0.330
2020/01/31 14:01:12.4	1.550	-0.520	-0.110	-0.340
2020/01/31 14:01:12.5	1.560	-0.510	-0.160	-0.340
2020/01/31 14:01:12.6	1.570	-0.490	-0.210	-0.350
2020/01/31 14:01:12.7	1.590	-0.460	-0.260	-0.360
2020/01/31 14:01:12.8	1.600	-0.440	-0.320	-0.370
2020/01/31 14:01:12.9	1.620	-0.410	-0.390	-0.380
2020/01/31 14:01:13.0	1.640	-0.380	-0.450	-0.390
2020/01/31 14:01:13.1	1.660	-0.340	-0.520	-0.390
2020/01/31 14:01:13.2	1.680	-0.310	-0.590	-0.400
2020/01/31 14:01:13.3	1.700	-0.270	-0.660	-0.410
2020/01/31 14:01:13.4	1.720	-0.220	-0.730	-0.410
2020/01/31 14:01:13.5	1.740	-0.180	-0.800	-0.420
2020/01/31 14:01:13.6	1.770	-0.140	-0.870	-0.420
2020/01/31 14:01:13.7	1.790	-0.090	-0.940	-0.430
2020/01/31 14:01:13.8	1.810	-0.050	-1.000	-0.440
2020/01/31 14:01:13.9	1.840	-0.000	-1.070	-0.440
2020/01/31 14:01:14.0	1.860	0.040	-1.130	-0.450
2020/01/31 14:01:14.1	1.890	0.090	-1.180	-0.460
2020/01/31 14:01:14.2	1.920	0.130	-1.240	-0.470
2020/01/31 14:01:14.3	1.950	0.180	-1.290	-0.480
2020/01/31 14:01:14.4	1.990	0.220	-1.330	-0.490
2020/01/31 14:01:14.5	2.020	0.260	-1.370	-0.500
2020/01/31 14:01:14.6	2.060	0.300	-1.410	-0.510
2020/01/31 14:01:14.7	2.090	0.330	-1.440	-0.520
2020/01/31 14:01:14.8	2.130	0.370	-1.460	-0.530
2020/01/31 14:01:14.9	2.170	0.400	-1.480	-0.540
2020/01/31 14:01:15.0	2.210	0.420	-1.490	-0.550
2020/01/31 14:01:15.1	2.260	0.450	-1.500	-0.560
2020/01/31 14:01:15.2	2.300	0.470	-1.490	-0.570
2020/01/31 14:01:15.3	2.340	0.490	-1.490	-0.580
2020/01/31 14:01:15.4	2.390	0.500	-1.470	-0.590
2020/01/31 14:01:15.5	2.430	0.520	-1.450	-0.590
2020/01/31 14:01:15.6	2.470	0.520	-1.420	-0.590
2020/01/31 14:01:15.7	2.500	0.530	-1.380	-0.590
2020/01/31 14:01:15.8	2.540	0.530	-1.340	-0.590
2020/01/31 14:01:15.9	2.570	0.530	-1.290	-0.590
2020/01/31 14:01:16.0	2.600	0.520	-1.230	-0.580
2020/01/31 14:01:16.1	2.630	0.510	-1.170	-0.580
2020/01/31 14:01:16.2	2.650	0.500	-1.100	-0.570
2020/01/31 14:01:16.3	2.660	0.490	-1.020	-0.560
2020/01/31 14:01:16.4	2.670	0.470	-0.940	-0.540
2020/01/31 14:01:16.5	2.680	0.450	-0.850	-0.530
2020/01/31 14:01:16.6	2.690	0.420	-0.760	-0.510
2020/01/31 14:01:16.7	2.690	0.400	-0.660	-0.490
2020/01/31 14:01:16.8	2.680	0.370	-0.570	-0.470
2020/01/31 14:01:16.9	2.680	0.340	-0.470	-0.450
2020/01/31 14:01:17.0	2.670	0.310	-0.370	-0.430
2020/01/31 14:01:17.1	2.650	0.280	-0.260	-0.410
2020/01/31 14:01:17.2	2.640	0.250	-0.160	-0.390
2020/01/31 14:01:17.3	2.620	0.220	-0.060	-0.360
2020/01/31 14:01:17.4	2.600	0.180	0.040	-0.340
2020/01/31 14:01:17.5	2.580	0.150	0.140	-0.310
2020/01/31 14:01:17.6	2.570	0.120	0.230	-0.290
2020/01/31 14:01:17.7	2.550	0.090	0.330	-0.260
2020/01/31 14:01:17.8	2.530	0.060	0.410	-0.240
2020/01/31 14:01:17.9	2.510	0.030	0.500	-0.220
2020/01/31 14:01:18.0	2.490	0.000	0.570	-0.200
2020/01/31 14:01:18.1	2.470	-0.020	0.640	-0.180
2020/01/31 14:01:18.2	2.450	-0.050	0.710	-0.160
2020/01/31 14:01:18.3	2.430	-0.070	0.770	-0.150
2020/01/31 14:01:18.4	2.420	-0.090	0.820	-0.140
2020/01/31 14:01:18.5	2.400	-0.110	0.860	-0.120
2020/01/31 14:01:18.6	2.390	-0.130	0.900	-0.110
2020/01/31 14:01:18.7	2.380	-0.150	0.930	-0.100
2020/01/31 14:01:18.8	2.370	-0.160	0.950	-0.090
2020/01/31 14:01:18.9	2.360	-0.180	0.970	-0.090
2020/01/31 14:01:19.0	2.340	-0.190	0.980	-0.080
2020/01/31 14:01:19.1	2.330	-0.200	0.980	-0.080
2020/01/31 14:01:19.2	2.320	-0.210	0.980	-0.070
2020/01/31 14:01:19.3	2.310	-0.210	0.970	-0.070
2020/01/31 14:01:19.4	2.290	-0.220	0.960	-0.070
2020/01/31 14:01:19.5	2.280	-0.220	0.940	-0.070
2020/01/31 14:01:19.6	2.270	-0.230	0.920	-0.060
2020/01/31 14:01:19.7	2.250	-0.230	0.890	-0.060
2020/01/31 14:01:19.8	2.230	-0.230	0.860	-0.050
2020/01/31 14:01:19.9	2.210	-0.230	0.830	-0.050
2020/01/31 14:01:20.0	2.190	-0.220	0.800	-0.040
2020/01/31 14:01:20.1	2.170	-0.220	0.760	-0.030
2020/01/31 14:01:20.2	2.140	-0.220	0.730	-0.020
2020/01/31 14:01:20.3	2.110	-0.210	0.690	-0.000
2020/01/31 14:01:20.4	2.070	-0.200	0.660	0.010
2020/01/31 14:01:20.5	2.040	-0.200	0.620	0.030
2020/01/31 14:01:20.6	2.000	-0.190	0.580	0.060
2020/01/31 14:01:20.7	1.960	-0.180	0.550	0.080
2020/01/31 14:01:20.8	1.920	-0.170	0.510	0.100
2020/01/31 14:01:20.9	1.870	-0.160	0.470	0.130
2020/01/31 14:01:21.0	1.830	-0.150	0.440	0.150
2020/01/31 14:01:21.1	1.790	-0.130	0.400	0.180
2020/01/31 14:01:21.2	1.740	-0.120	0.370	0.210
2020/01/31 14:01:21.3	1.690	-0.110	0.330	0.240
2020/01/31 14:01:21.4	1.650	-0.090	0.290	0.260
2020/01/31 14:01:21.5	1.610	-0.080	0.260	0.290
2020/01/31 14:01:21.6	1.560	-0.060	0.220	0.320
2020/01/31 14:01:21.7	1.520	-0.040	0.180	0.340
2020/01/31 14:01:21.8	1.490	-0.030	0.130	0.360
2020/01/31 14:01:21.9	1.450	-0.010	0.090	0.380
2020/01/31 14:01:22.0	1.420	0.010	0.040	0.400
2020/01/31 14:01:22.1	1.390	0.030	-0.010	0.410
2020/01/31 14:01:22.2	1.370	0.060	-0.070	0.420
2020/01/31 14:01:22.3	1.350	0.080	-0.120	0.430
2020/01/31 14:01:22.4	1.330	0.100	-0.180	0.440
2020/01/31 14:01:22.5	1.310	0.130	-0.250	0.440
2020/01/31 14:01:22.6	1.300	0.150	-0.310	0.440
2020/01/31 14:01:22.7	1.300	0.170	-0.380	0.430
2020/01/31 14:01:22.8	1.290	0.200	-0.450	0.420
2020/01/31 14:01:22.9	1.290	0.220	-0.520	0.410
2020/01/31 14:01:23.0	1.280	0.250	-0.600	0.400
2020/01/31 14:01:23.1	1.290	0.270	-0.670	0.380
2020/01/31 14:01:23.2	1.290	0.290	-0.740	0.350
2020/01/31 14:01:23.3	1.300	0.310	-0.820	0.330
2020/01/31 14:01:23.4	1.310	0.330	-0.890	0.300
2020/01/31 14:01:23.5	1.320	0.340	-0.960	0.260
2020/01/31 14:01:23.6	1.340	0.360	-1.030	0.230
2020/01/31 14:01:23.7	1.350	0.370	-1.090	0.190
2020/01/31 14:01:23.8	1.370	0.380	-1.150	0.140
2020/01/31 14:01:23.9	1.400	0.390	-1.200	0.100
2020/01/31 14:01:24.0	1.420	0.390	-1.250	0.050
2020/01/31 14:01:24.1	1.450	0.400	-1.300	-0.000
2020/01/31 14:01:24.2	1.480	0.400	-1.330	-0.060
2020/01/31 14:01:24.3	1.510	0.390	-1.370	-0.110
2020/01/31 14:01:24.4	1.550	0.390	-1.390	-0.170
2020/01/31 14:01:24.5	1.580	0.380	-1.410	-0.220
2020/01/31 14:01:24.6	1.630	0.370	-1.420	-0.280
2020/01/31 14:01:24.7	1.670	0.350	-1.430	-0.340
2020/01/31 14:01:24.8	1.710	0.330	-1.430	-0.400
2020/01/31 14:01:24.9	1.760	0.310	-1.420	-0.460
2020/01/31 14:01:25.0	1.810	0.290	-1.410	-0.520
2020/01/31 14:01:25.1	1.860	0.270	-1.390	-0.580
2020/01/31 14:01:25.2	1.910	0.240	-1.370	-0.640
2020/01/31 14:01:25.3	1.960	0.210	-1.340	-0.700
2020/01/31 14:01:25.4	2.020	0.170	-1.310	-0.760
2020/01/31 14:01:25.5	2.070	0.140	-1.270	-0.810
2020/01/31 14:01:25.6	2.110	0.100	-1.220	-0.870
2020/01/31 14:01:25.7	2.160	0.060	-1.170	-0.920
2020/01/31 14:01:25.8	2.210	0.020	-1.110	-0.970
2020/01/31 14:01:25.9	2.250	-0.030	-1.050	-1.020
2020/01/31 14:01:26.0	2.290	-0.080	-0.980	-1.070
2020/01/31 14:01:26.1	2.330	-0.120	-0.910	-1.120
2020/01/31 14:01:26.2	2.360	-0.170	-0.840	-1.160
2020/01/31 14:01:26.3	2.390	-0.220	-0.770	-1.210
2020/01/31 14:01:26.4	2.410	-0.270	-0.690	-1.250
2020/01/31 14:01:26.5	2.440	-0.320	-0.620	-1.290
2020/01/31 14:01:26.6	2.450	-0.370	-0.540	-1.330
2020/01/31 14:01:26.7	2.470	-0.420	-0.460	-1.370
2020/01/31 14:01:26.8	2.480	-0.470	-0.380	-1.400
2020/01/31 14:01:26.9	2.480	-0.520	-0.310	-1.440
2020/01/31 14:01:27.0	2.480	-0.560	-0.230	-1.470
2020/01/31 14:01:27.1	2.480	-0.610	-0.150	-1.490
2020/01/31 14:01:27.2	2.470	-0.650	-0.080	-1.510
2020/01/31 14:01:27.3	2.460	-0.680	-0.010	-1.530
2020/01/31 14:01:27.4	2.450	-0.720	0.060	-1.540
2020/01/31 14:01:27.5	2.430	-0.750	0.130	-1.550
2020/01/31 14:01:27.6	2.410	-0.780	0.200	-1.550
2020/01/31 14:01:27.7	2.390	-0.800	0.260	-1.550
2020/01/31 14:01:27.8	2.360	-0.820	0.320	-1.540
2020/01/31 14:01:27.9	2.340	-0.830	0.380	-1.530
2020/01/31 14:01:28.0	2.310	-0.840	0.430	-1.510
2020/01/31 14:01:28.1	2.280	-0.850	0.480	-1.490
2020/01/31 14:01:28.2	2.240	-0.850	0.520	-1.470
2020/01/31 14:01:28.3	2.210	-0.840	0.560	-1.430
2020/01/31 14:01:28.4	2.180	-0.830	0.600	-1.400
2020/01/31 14:01:28.5	2.150	-0.820	0.630	-1.350
2020/01/31 14:01:28.6	2.120	-0.800	0.650	-1.300
2020/01/31 14:01:28.7	2.090	-0.770	0.670	-1.250
2020/01/31 14:01:28.8	2.060	-0.750	0.690	-1.200
2020/01/31 14:01:28.9	2.030	-0.710	0.700	-1.140
2020/01/31 14:01:29.0	1.990	-0.680	0.710	-1.080
2020/01/31 14:01:29.1	1.960	-0.630	0.710	-1.020
2020/01/31 14:01:29.2	1.930	-0.590	0.700	-0.950
2020/01/31 14:01:29.3	1.890	-0.540	0.700	-0.880
2020/01/31 14:01:29.4	1.860	-0.490	0.680	-0.800
2020/01/31 14:01:29.5	1.830	-0.440	0.670	-0.730
2020/01/31 14:01:29.6	1.810	-0.380	0.650	-0.650
2020/01/31 14:01:29.7	1.780	-0.320	0.620	-0.570
2020/01/31 14:01:29.8	1.750	-0.260	0.590	-0.490
2020/01/31 14:01:29.9	1.720	-0.190	0.560	-0.410
2020/01/31 14:01:30.0	1.690	-0.130	0.520	-0.320
2020/01/31 14:01:30.1	1.660	-0.070	0.480	-0.240
2020/01/31 14:01:30.2	1.630	0.000	0.440	-0.150
2020/01/31 14:01:30.3	1.600	0.070	0.390	-0.060
2020/01/31 14:01:30.4	1.570	0.130	0.340	0.030
2020/01/31 14:01:30.5	1.540	0.190	0.300	0.120
2020/01/31 14:01:30.6	1.510	0.250	0.240	0.220
2020/01/31 14:01:30.7	1.480	0.320	0.190	0.310
2020/01/31 14:01:30.8	1.440	0.370	0.140	0.410
2020/01/31 14:01:30.9	1.400	0.430	0.090	0.500
2020/01/31 14:01:31.0	1.370	0.480	0.040	0.600
2020/01/31 14:01:31.1	1.330	0.530	-0.000	0.690
2020/01/31 14:01:31.2	1.290	0.580	-0.050	0.780
2020/01/31 14:01:31.3	1.260	0.620	-0.100	0.870
2020/01/31 14:01:31.4	1.220	0.670	-0.150	0.960
2020/01/31 14:01:31.5	1.190	0.700	-0.190	1.040
2020/01/31 14:01:31.6	1.160	0.740	-0.240	1.130
2020/01/31 14:01:31.7	1.130	0.770	-0.280	1.210
2020/01/31 14:01:31.8	1.100	0.790	-0.330	1.280
2020/01/31 14:01:31.9	1.070	0.820	-0.370	1.350
2020/01/31 14:01:32.0	1.050	0.840	-0.420	1.420
2020/01/31 14:01:32.1	1.030	0.850	-0.460	1.470
2020/01/31 14:01:32.2	1.020	0.870	-0.500	1.530
2020/01/31 14:01:32.3	1.000	0.880	-0.540	1.570
2020/01/31 14:01:32.4	1.000	0.890	-0.580	1.610
2020/01/31 14:01:32.5	0.990	0.890	-0.630	1.640
2020/01/31 14:01:32.6	0.990	0.890	-0.670	1.670
2020/01/31 14:01:32.7	0.990	0.890	-0.710	1.690
2020/01/31 14:01:32.8	1.000	0.880	-0.750	1.700
2020/01/31 14:01:32.9	1.010	0.870	-0.790	1.700
2020/01/31 14:01:33.0	1.020	0.860	-0.830	1.700
2020/01/31 14:01:33.1	1.040	0.850	-0.860	1.680
2020/01/31 14:01:33.2	1.060	0.830	-0.900	1.660
2020/01/31 14:01:33.3	1.080	0.820	-0.940	1.630
2020/01/31 14:01:33.4	1.110	0.800	-0.970	1.590
2020/01/31 14:01:33.5	1.140	0.770	-1.000	1.550
2020/01/31 14:01:33.6	1.190	0.750	-1.030	1.490
2020/01/31 14:01:33.7	1.230	0.720	-1.050	1.430
2020/01/31 14:01:33.8	1.270	0.690	-1.080	1.360
2020/01/31 14:01:33.9	1.310	0.650	-1.090	1.280
2020/01/31 14:01:34.0	1.360	0.620	-1.100	1.200
2020/01/31 14:01:34.1	1.400	0.580	-1.110	1.100
2020/01/31 14:01:34.2	1.450	0.530	-1.110	1.010
2020/01/31 14:01:34.3	1.500	0.490	-1.110	0.910
2020/01/31 14:01:34.4	1.550	0.440	-1.100	0.800
2020/01/31 14:01:34.5	1.590	0.390	-1.090	0.690
2020/01/31 14:01:34.6	1.640	0.340	-1.070	0.580
2020/01/31 14:01:34.7	1.690	0.280	-1.040	0.470
2020/01/31 14:01:34.8	1.730	0.230	-1.000	0.360
2020/01/31 14:01:34.9	1.780	0.170	-0.960	0.240
2020/01/31 14:01:35.0	1.820	0.110	-0.910	0.130
2020/01/31 14:01:35.1	1.850	0.050	-0.860	0.030
2020/01/31 14:01:35.2	1.890	-0.010	-0.800	-0.080
2020/01/31 14:01:35.3	1.920	-0.070	-0.730	-0.180
2020/01/31 14:01:35.4	1.950	-0.140	-0.660	-0.290
2020/01/31 14:01:35.5	1.980	-0.200	-0.580	-0.380
2020/01/31 14:01:35.6	2.000	-0.260	-0.510	-0.480
2020/01/31 14:01:35.7	2.020	-0.320	-0.420	-0.570
2020/01/31 14:01:35.8	2.040	-0.390	-0.340	-0.660
2020/01/31 14:01:35.9	2.050	-0.450	-0.250	-0.750
2020/01/31 14:01:36.0	2.060	-0.510	-0.160	-0.830
2020/01/31 14:01:36.1	2.070	-0.560	-0.070	-0.900
2020/01/31 14:01:36.2	2.070	-0.620	0.020	-0.980
2020/01/31 14:01:36.3	2.070	-0.670	0.110	-1.050
2020/01/31 14:01:36.4	2.070	-0.720	0.200	-1.110
2020/01/31 14:01:36.5	2.060	-0.770	0.290	-1.170
2020/01/31 14:01:36.6	2.050	-0.810	0.360	-1.230
2020/01/31 14:01:36.7	2.040	-0.850	0.450	-1.280
2020/01/31 14:01:36.8	2.020	-0.880	0.520	-1.330
2020/01/31 14:01:36.9	2.000	-0.910	0.590	-1.380
2020/01/31 14:01:37.0	1.980	-0.940	0.660	-1.410
2020/01/31 14:01:37.1	1.950	-0.950	0.720	-1.440
2020/01/31 14:01:37.2	1.920	-0.960	0.780	-1.470
2020/01/31 14:01:37.3	1.880	-0.970	0.830	-1.480
2020/01/31 14:01:37.4	1.840	-0.970	0.880	-1.490
2020/01/31 14:01:37.5	1.800	-0.960	0.920	-1.480
2020/01/31 14:01:37.6	1.750	-0.950	0.950	-1.470
2020/01/31 14:01:37.7	1.700	-0.930	0.980	-1.460
2020/01/31 14:01:37.8	1.650	-0.910	1.000	-1.430
2020/01/31 14:01:37.9	1.590	-0.880	1.010	-1.400
2020/01/31 14:01:38.0	1.530	-0.840	1.010	-1.360
2020/01/31 14:01:38.1	1.480	-0.800	1.000	-1.320
2020/01/31 14:01:38.2	1.420	-0.750	0.990	-1.270
2020/01/31 14:01:38.3	1.360	-0.700	0.970	-1.220
2020/01/31 14:01:38.4	1.300	-0.650	0.940	-1.160
2020/01/31 14:01:38.5	1.240	-0.590	0.900	-1.110
2020/01/31 14:01:38.6	1.190	-0.530	0.860	-1.030
2020/01/31 14:01:38.7	1.130	-0.470	0.800	-0.970
2020/01/31 14:01:38.8	1.080	-0.410	0.750	-0.910
2020/01/31 14:01:38.9	1.020	-0.340	0.680	-0.840
2020/01/31 14:01:39.0	0.970	-0.280	0.610	-0.780
2020/01/31 14:01:39.1	0.930	-0.210	0.530	-0.720
2020/01/31 14:01:39.2	0.880	-0.150	0.450	-0.650
2020/01/31 14:01:39.3	0.840	-0.080	0.360	-0.590
2020/01/31 14:01:39.4	0.810	-0.020	0.270	-0.540
2020/01/31 14:01:39.5	0.780	0.040	0.170	-0.480
2020/01/31 14:01:39.6	0.740	0.100	0.070	-0.420
2020/01/31 14:01:39.7	0.720	0.160	-0.030	-0.370
2020/01/31 14:01:39.8	0.700	0.220	-0.130	-0.310
2020/01/31 14:01:39.9	0.690	0.270	-0.240	-0.260
2020/01/31 14:01:40.0	0.680	0.320	-0.340	-0.210
2020/01/31 14:01:40.1	0.680	0.370	-0.440	-0.170
2020/01/31 14:01:40.2	0.680	0.410	-0.540	-0.120
2020/01/31 14:01:40.3	0.680	0.450	-0.640	-0.070
2020/01/31 14:01:40.4	0.690	0.490	-0.740	-0.030
2020/01/31 14:01:40.5	0.700	0.520	-0.830	0.020
2020/01/31 14:01:40.6	0.710	0.550	-0.910	0.070
2020/01/31 14:01:40.7	0.730	0.570	-1.000	0.110
2020/01/31 14:01:40.8	0.750	0.590	-1.070	0.150
2020/01/31 14:01:40.9	0.770	0.600	-1.140	0.190
2020/01/31 14:01:41.0	0.800	0.620	-1.210	0.230
2020/01/31 14:01:41.1	0.830	0.620	-1.260	0.270
2020/01/31 14:01:41.2	0.860	0.620	-1.310	0.300
2020/01/31 14:01:41.3	0.890	0.620	-1.350	0.340
2020/01/31 14:01:41.4	0.930	0.620	-1.390	0.370
2020/01/31 14:01:41.5	0.960	0.610	-1.410	0.390
2020/01/31 14:01:41.6	1.000	0.590	-1.430	0.420
2020/01/31 14:01:41.7	1.040	0.580	-1.440	0.450
2020/01/31 14:01:41.8	1.080	0.560	-1.440	0.470
2020/01/31 14:01:41.9	1.120	0.530	-1.430	0.480
2020/01/31 14:01:42.0	1.160	0.510	-1.410	0.500
2020/01/31 14:01:42.1	1.200	0.480	-1.390	0.510
2020/01/31 14:01:42.2	1.240	0.450	-1.360	0.520
2020/01/31 14:01:42.3	1.280	0.410	-1.320	0.530
2020/01/31 14:01:42.4	1.320	0.380	-1.280	0.540
2020/01/31 14:01:42.5	1.360	0.340	-1.230	0.550
2020/01/31 14:01:42.6	1.400	0.310	-1.170	0.550
2020/01/31 14:01:42.7	1.430	0.270	-1.110	0.560
2020/01/31 14:01:42.8	1.470	0.230	-1.040	0.560
2020/01/31 14:01:42.9	1.500	0.190	-0.970	0.570
2020/01/31 14:01:43.0	1.530	0.150	-0.890	0.570
2020/01/31 14:01:43.1	1.560	0.120	-0.810	0.570
2020/01/31 14:01:43.2	1.590	0.080	-0.730	0.570
2020/01/31 14:01:43.3	1.620	0.040	-0.650	0.570
2020/01/31 14:01:43.4	1.640	0.000	-0.560	0.570
2020/01/31 14:01:43.5	1.660	-0.030	-0.480	0.570
2020/01/31 14:01:43.6	1.680	-0.070	-0.400	0.570
2020/01/31 14:01:43.7	1.690	-0.100	-0.320	0.570
2020/01/31 14:01:43.8	1.710	-0.130	-0.240	0.560
2020/01/31 14:01:43.9	1.720	-0.160	-0.160	0.560
2020/01/31 14:01:44.0	1.730	-0.190	-0.080	0.550
2020/01/31 14:01:44.1	1.740	-0.220	-0.020	0.540
2020/01/31 14:01:44.2	1.740	-0.240	0.050	0.530
2020/01/31 14:01:44.3	1.750	-0.260	0.110	0.520
2020/01/31 14:01:44.4	1.750	-0.280	0.170	0.500
2020/01/31 14:01:44.5	1.750	-0.300	0.210	0.480
2020/01/31 14:01:44.6	1.750	-0.320	0.260	0.460
2020/01/31 14:01:44.7	1.740	-0.330	0.290	0.440
2020/01/31 14:01:44.8	1.740	-0.340	0.320	0.410
2020/01/31 14:01:44.9	1.730	-0.350	0.350	0.380
2020/01/31 14:01:45.0	1.720	-0.350	0.370	0.340
2020/01/31 14:01:45.1	1.710	-0.350	0.380	0.310
2020/01/31 14:01:45.2	1.700	-0.350	0.380	0.270
2020/01/31 14:01:45.3	1.690	-0.350	0.380	0.230
2020/01/31 14:01:45.4	1.670	-0.340	0.380	0.180
2020/01/31 14:01:45.5	1.660	-0.340	0.370	0.130
2020/01/31 14:01:45.6	1.660	-0.320	0.350	0.090
2020/01/31 14:01:45.7	1.640	-0.310	0.330	0.040
2020/01/31 14:01:45.8	1.620	-0.300	0.310	-0.010
2020/01/31 14:01:45.9	1.610	-0.280	0.290	-0.060
2020/01/31 14:01:46.0	1.590	-0.260	0.260	-0.100
2020/01/31 14:01:46.1	1.570	-0.240	0.230	-0.150
2020/01/31 14:01:46.2	1.550	-0.210	0.200	-0.200
2020/01/31 14:01:46.3	1.530	-0.190	0.170	-0.240
2020/01/31 14:01:46.4	1.510	-0.160	0.140	-0.290
2020/01/31 14:01:46.5	1.490	-0.140	0.110	-0.330
2020/01/31 14:01:46.6	1.470	-0.110	0.070	-0.370
2020/01/31 14:01:46.7	1.440	-0.080	0.040	-0.410
2020/01/31 14:01:46.8	1.420	-0.050	0.010	-0.450
2020/01/31 14:01:46.9	1.400	-0.020	-0.010	-0.480
2020/01/31 14:01:47.0	1.370	0.020	-0.040	-0.510
2020/01/31 14:01:47.1	1.340	0.050	-0.060	-0.540
2020/01/31 14:01:47.2	1.320	0.080	-0.080	-0.570
2020/01/31 14:01:47.3	1.290	0.110	-0.100	-0.590
2020/01/31 14:01:47.4	1.260	0.140	-0.120	-0.600
2020/01/31 14:01:47.5	1.230	0.170	-0.130	-0.620
2020/01/31 14:01:47.6	1.200	0.200	-0.140	-0.630
2020/01/31 14:01:47.7	1.170	0.230	-0.140	-0.640
2020/01/31 14:01:47.8	1.140	0.260	-0.150	-0.650
2020/01/31 14:01:47.9	1.110	0.290	-0.150	-0.650
2020/01/31 14:01:48.0	1.080	0.310	-0.150	-0.650
2020/01/31 14:01:48.1	1.050	0.330	-0.150	-0.650
2020/01/31 14:01:48.2	1.020	0.350	-0.140	-0.650
2020/01/31 14:01:48.3	0.990	0.370	-0.130	-0.640
2020/01/31 14:01:48.4	0.960	0.380	-0.120	-0.640
2020/01/31 14:01:48.5	0.940	0.390	-0.110	-0.630
2020/01/31 14:01:48.6	0.910	0.400	-0.110	-0.620
2020/01/31 14:01:48.7	0.880	0.410	-0.090	-0.610
2020/01/31 14:01:48.8	0.860	0.410	-0.080	-0.600
2020/01/31 14:01:48.9	0.840	0.410	-0.070	-0.590
2020/01/31 14:01:49.0	0.830	0.410	-0.050	-0.580
2020/01/31 14:01:49.1	0.810	0.400	-0.040	-0.570
2020/01/31 14:01:49.2	0.800	0.390	-0.030	-0.560
2020/01/31 14:01:49.3	0.790	0.380	-0.010	-0.550
2020/01/31 14:01:49.4	0.790	0.370	-0.000	-0.540
2020/01/31 14:01:49.5	0.780	0.350	0.010	-0.530
2020/01/31 14:01:49.6	0.780	0.340	0.010	-0.520
2020/01/31 14:01:49.7	0.780	0.320	0.020	-0.510
2020/01/31 14:01:49.8	0.790	0.290	0.030	-0.500
2020/01/31 14:01:49.9	0.790	0.270	0.030	-0.490
2020/01/31 14:01:50.0	0.810	0.250	0.030	-0.480
2020/01/31 14:01:50.1	0.820	0.220	0.030	-0.470
2020/01/31 14:01:50.2	0.840	0.200	0.030	-0.460
2020/01/31 14:01:50.3	0.860	0.170	0.020	-0.450
2020/01/31 14:01:50.4	0.880	0.140	0.020	-0.440
2020/01/31 14:01:50.5	0.900	0.120	0.010	-0.430
2020/01/31 14:01:50.6	0.930	0.090	-0.000	-0.420
2020/01/31 14:01:50.7	0.950	0.060	-0.010	-0.400
2020/01/31 14:01:50.8	0.980	0.030	-0.030	-0.390
2020/01/31 14:01:50.9	1.010	0.000	-0.040	-0.380
2020/01/31 14:01:51.0	1.030	-0.020	-0.050	-0.360
2020/01/31 14:01:51.1	1.050	-0.050	-0.070	-0.340
2020/01/31 14:01:51.2	1.080	-0.080	-0.090	-0.330
2020/01/31 14:01:51.3	1.100	-0.100	-0.110	-0.320
2020/01/31 14:01:51.4	1.130	-0.130	-0.120	-0.310
2020/01/31 14:01:51.5	1.150	-0.150	-0.150	-0.300
2020/01/31 14:01:51.6	1.180	-0.180	-0.170	-0.290
2020/01/31 14:01:51.7	1.200	-0.200	-0.190	-0.280
2020/01/31 14:01:51.8	1.220	-0.230	-0.210	-0.280
2020/01/31 14:01:51.9	1.240	-0.250	-0.240	-0.280
2020/01/31 14:01:52.0	1.270	-0.270	-0.260	-0.290
2020/01/31 14:01:52.1	1.290	-0.290	-0.290	-0.300
2020/01/31 14:01:52.2	1.310	-0.300	-0.320	-0.310
2020/01/31 14:01:52.3	1.340	-0.320	-0.350	-0.320
2020/01/31 14:01:52.4	1.360	-0.340	-0.370	-0.340
2020/01/31 14:01:52.5	1.380	-0.350	-0.400	-0.350
2020/01/31 14:01:52.6	1.410	-0.360	-0.430	-0.370
2020/01/31 14:01:52.7	1.430	-0.370	-0.460	-0.390
2020/01/31 14:01:52.8	1.460	-0.380	-0.490	-0.420
2020/01/31 14:01:52.9	1.480	-0.390	-0.520	-0.440
2020/01/31 14:01:53.0	1.500	-0.400	-0.540	-0.460
2020/01/31 14:01:53.1	1.520	-0.400	-0.570	-0.490
2020/01/31 14:01:53.2	1.540	-0.400	-0.590	-0.510
2020/01/31 14:01:53.3	1.560	-0.410	-0.620	-0.530
2020/01/31 14:01:53.4	1.580	-0.410	-0.640	-0.550
2020/01/31 14:01:53.5	1.600	-0.400	-0.660	-0.580
2020/01/31 14:01:53.6	1.610	-0.400	-0.680	-0.590
2020/01/31 14:01:53.7	1.630	-0.400	-0.700	-0.610
2020/01/31 14:01:53.8	1.640	-0.390	-0.710	-0.630
2020/01/31 14:01:53.9	1.660	-0.380	-0.720	-0.640
2020/01/31 14:01:54.0	1.670	-0.370	-0.730	-0.660
2020/01/31 14:01:54.1	1.680	-0.360	-0.740	-0.670
2020/01/31 14:01:54.2	1.690	-0.350	-0.750	-0.690
2020/01/31 14:01:54.3	1.700	-0.330	-0.750	-0.700
2020/01/31 14:01:54.4	1.710	-0.320	-0.750	-0.710
2020/01/31 14:01:54.5	1.720	-0.300	-0.750	-0.730
2020/01/31 14:01:54.6	1.730	-0.280	-0.750	-0.740
2020/01/31 14:01:54.7	1.740	-0.260	-0.750	-0.750
2020/01/31 14:01:54.8	1.740	-0.230	-0.750	-0.770
2020/01/31 14:01:54.9	1.750	-0.210	-0.740	-0.780
2020/01/31 14:01:55.0	1.760	-0.180	-0.740	-0.790
2020/01/31 14:01:55.1	1.770	-0.150	-0.730	-0.800
2020/01/31 14:01:55.2	1.780	-0.120	-0.720	-0.810
2020/01/31 14:01:55.3	1.780	-0.090	-0.710	-0.820
2020/01/31 14:01:55.4	1.790	-0.060	-0.700	-0.820
2020/01/31 14:01:55.5	1.790	-0.030	-0.680	-0.830
2020/01/31 14:01:55.6	1.790	0.000	-0.670	-0.830
2020/01/31 14:01:55.7	1.790	0.040	-0.660	-0.830
2020/01/31 14:01:55.8	1.790	0.070	-0.640	-0.830
2020/01/31 14:01:55.9	1.790	0.100	-0.620	-0.830
2020/01/31 14:01:56.0	1.790	0.130	-0.600	-0.820
2020/01/31 14:01:56.1	1.780	0.170	-0.580	-0.810
2020/01/31 14:01:56.2	1.780	0.200	-0.550	-0.800
2020/01/31 14:01:56.3	1.770	0.220	-0.520	-0.780
2020/01/31 14:01:56.4	1.760	0.250	-0.490	-0.760
2020/01/31 14:01:56.5	1.750	0.270	-0.460	-0.740
2020/01/31 14:01:56.6	1.750	0.300	-0.420	-0.710
2020/01/31 14:01:56.7	1.730	0.310	-0.390	-0.680
2020/01/31 14:01:56.8	1.720	0.330	-0.350	-0.650
2020/01/31 14:01:56.9	1.710	0.340	-0.310	-0.620
2020/01/31 14:01:57.0	1.700	0.360	-0.260	-0.580
2020/01/31 14:01:57.1	1.690	0.360	-0.220	-0.540
2020/01/31 14:01:57.2	1.670	0.370	-0.180	-0.500
2020/01/31 14:01:57.3	1.660	0.370	-0.130	-0.460
2020/01/31 14:01:57.4	1.650	0.360	-0.090	-0.420
2020/01/31 14:01:57.5	1.640	0.360	-0.040	-0.380
2020/01/31 14:01:57.6	1.620	0.350	-0.000	-0.330
2020/01/31 14:01:57.7	1.610	0.340	0.040	-0.290
2020/01/31 14:01:57.8	1.600	0.320	0.080	-0.240
2020/01/31 14:01:57.9	1.590	0.310	0.120	-0.200
2020/01/31 14:01:58.0	1.580	0.290	0.150	-0.150
2020/01/31 14:01:58.1	1.570	0.270	0.190	-0.110
2020/01/31 14:01:58.2	1.560	0.240	0.220	-0.070
2020/01/31 14:01:58.3	1.550	0.220	0.250	-0.020
2020/01/31 14:01:58.4	1.540	0.190	0.270	0.020
2020/01/31 14:01:58.5	1.530	0.160	0.290	0.060
2020/01/31 14:01:58.6	1.530	0.130	0.310	0.110
2020/01/31 14:01:58.7	1.520	0.100	0.330	0.140
2020/01/31 14:01:58.8	1.510	0.070	0.350	0.180
2020/01/31 14:01:58.9	1.500	0.040	0.360	0.220
2020/01/31 14:01:59.0	1.490	0.010	0.370	0.250
2020/01/31 14:01:59.1	1.490	-0.020	0.380	0.290
2020/01/31 14:01:59.2	1.480	-0.050	0.380	0.320
2020/01/31 14:01:59.3	1.470	-0.080	0.380	0.340
2020/01/31 14:01:59.4	1.460	-0.110	0.380	0.370
2020/01/31 14:01:59.5	1.460	-0.140	0.380	0.390
2020/01/31 14:01:59.6	1.460	-0.160	0.380	0.410
2020/01/31 14:01:59.7	1.460	-0.180	0.370	0.420
2020/01/31 14:01:59.8	1.450	-0.200	0.360	0.440
2020/01/31 14:01:59.9	1.450	-0.220	0.350	0.450
2020/01/31 14:02:00.0	1.440	-0.240	0.340	0.460
2020/01/31 14:02:00.1	1.440	-0.250	0.330	0.460
2020/01/31 14:02:00.2	1.430	-0.260	0.320	0.470
2020/01/31 14:02:00.3	1.420	-0.270	0.300	0.470
2020/01/31 14:02:00.4	1.420	-0.270	0.290	0.470
2020/01/31 14:02:00.5	1.410	-0.270	0.270	0.470
2020/01/31 14:02:00.6	1.400	-0.270	0.250	0.470
2020/01/31 14:02:00.7	1.400	-0.260	0.230	0.460
2020/01/31 14:02:00.8	1.390	-0.250	0.210	0.460
2020/01/31 14:02:00.9	1.380	-0.240	0.190	0.450
2020/01/31 14:02:01.0	1.370	-0.220	0.160	0.440
2020/01/31 14:02:01.1	1.360	-0.200	0.140	0.430
2020/01/31 14:02:01.2	1.350	-0.170	0.110	0.420
2020/01/31 14:02:01.3	1.340	-0.150	0.080	0.410
2020/01/31 14:02:01.4	1.330	-0.120	0.050	0.400
2020/01/31 14:02:01.5	1.320	-0.080	0.020	0.390
2020/01/31 14:02:01.6	1.320	-0.050	-0.020	0.370
2020/01/31 14:02:01.7	1.310	-0.010	-0.050	0.360
2020/01/31 14:02:01.8	1.310	0.030	-0.090	0.350
2020/01/31 14:02:01.9	1.300	0.070	-0.130	0.330
2020/01/31 14:02:02.0	1.300	0.110	-0.170	0.320
2020/01/31 14:02:02.1	1.300	0.150	-0.220	0.300
2020/01/31 14:02:02.2	1.300	0.190	-0.260	0.280
2020/01/31 14:02:02.3	1.300	0.230	-0.310	0.270
2020/01/31 14:02:02.4	1.300	0.260	-0.350	0.250
2020/01/31 14:02:02.5	1.300	0.300	-0.400	0.240
2020/01/31 14:02:02.6	1.300	0.340	-0.450	0.220
2020/01/31 14:02:02.7	1.310	0.370	-0.500	0.200
2020/01/31 14:02:02.8	1.320	0.400	-0.540	0.180
2020/01/31 14:02:02.9	1.330	0.430	-0.590	0.150
2020/01/31 14:02:03.0	1.340	0.460	-0.640	0.130
2020/01/31 14:02:03.1	1.350	0.480	-0.680	0.100
2020/01/31 14:02:03.2	1.370	0.500	-0.720	0.060
2020/01/31 14:02:03.3	1.380	0.520	-0.770	0.030
2020/01/31 14:02:03.4	1.400	0.540	-0.810	-0.010
2020/01/31 14:02:03.5	1.420	0.550	-0.850	-0.050
2020/01/31 14:02:03.6	1.450	0.550	-0.880	-0.100
2020/01/31 14:02:03.7	1.470	0.550	-0.910	-0.150
2020/01/31 14:02:03.8	1.500	0.550	-0.940	-0.200
2020/01/31 14:02:03.9	1.530	0.550	-0.970	-0.250
2020/01/31 14:02:04.0	1.560	0.540	-0.990	-0.310
2020/01/31 14:02:04.1	1.590	0.530	-1.010	-0.370
2020/01/31 14:02:04.2	1.620	0.510	-1.020	-0.420
2020/01/31 14:02:04.3	1.650	0.500	-1.030	-0.480
2020/01/31 14:02:04.4	1.680	0.470	-1.030	-0.540
2020/01/31 14:02:04.5	1.710	0.450	-1.020	-0.590
2020/01/31 14:02:04.6	1.730	0.420	-1.010	-0.640
2020/01/31 14:02:04.7	1.760	0.390	-0.990	-0.690
2020/01/31 14:02:04.8	1.790	0.360	-0.960	-0.740
2020/01/31 14:02:04.9	1.810	0.330	-0.930	-0.780
2020/01/31 14:02:05.0	1.830	0.290	-0.890	-0.820
2020/01/31 14:02:05.1	1.850	0.250	-0.840	-0.850
2020/01/31 14:02:05.2	1.870	0.210	-0.780	-0.880
2020/01/31 14:02:05.3	1.880	0.160	-0.730	-0.910
2020/01/31 14:02:05.4	1.900	0.120	-0.660	-0.930
2020/01/31 14:02:05.5	1.910	0.070	-0.590	-0.950
2020/01/31 14:02:05.6	1.930	0.020	-0.520	-0.970
2020/01/31 14:02:05.7	1.940	-0.030	-0.440	-0.980
2020/01/31 14:02:05.8	1.950	-0.080	-0.360	-1.000
2020/01/31 14:02:05.9	1.950	-0.130	-0.280	-1.010
2020/01/31 14:02:06.0	1.960	-0.180	-0.200	-1.020
2020/01/31 14:02:06.1	1.970	-0.240	-0.120	-1.030
2020/01/31 14:02:06.2	1.980	-0.290	-0.040	-1.040
2020/01/31 14:02:06.3	1.990	-0.340	0.030	-1.040
2020/01/31 14:02:06.4	1.990	-0.390	0.100	-1.050
2020/01/31 14:02:06.5	2.000	-0.440	0.170	-1.060
2020/01/31 14:02:06.6	2.020	-0.490	0.230	-1.060
2020/01/31 14:02:06.7	2.020	-0.540	0.290	-1.070
2020/01/31 14:02:06.8	2.030	-0.590	0.340	-1.080
2020/01/31 14:02:06.9	2.040	-0.630	0.390	-1.090
2020/01/31 14:02:07.0	2.050	-0.670	0.430	-1.090
2020/01/31 14:02:07.1	2.050	-0.710	0.460	-1.100
2020/01/31 14:02:07.2	2.060	-0.750	0.490	-1.100
2020/01/31 14:02:07.3	2.070	-0.780	0.510	-1.110
2020/01/31 14:02:07.4	2.070	-0.810	0.520	-1.110
2020/01/31 14:02:07.5	2.080	-0.840	0.530	-1.120
2020/01/31 14:02:07.6	2.090	-0.860	0.530	-1.120
2020/01/31 14:02:07.7	2.090	-0.880	0.530	-1.120
2020/01/31 14:02:07.8	2.090	-0.890	0.520	-1.110
2020/01/31 14:02:07.9	2.090	-0.910	0.510	-1.110
2020/01/31 14:02:08.0	2.090	-0.910	0.490	-1.110
2020/01/31 14:02:08.1	2.090	-0.920	0.470	-1.100
2020/01/31 14:02:08.2	2.090	-0.920	0.450	-1.090
2020/01/31 14:02:08.3	2.080	-0.910	0.420	-1.080
2020/01/31 14:02:08.4	2.080	-0.900	0.390	-1.070
2020/01/31 14:02:08.5	2.070	-0.890	0.360	-1.060
2020/01/31 14:02:08.6	2.060	-0.870	0.320	-1.040
2020/01/31 14:02:08.7	2.050	-0.850	0.290	-1.020
2020/01/31 14:02:08.8	2.040	-0.830	0.250	-1.000
2020/01/31 14:02:08.9	2.030	-0.800	0.210	-0.980
2020/01/31 14:02:09.0	2.010	-0.760	0.170	-0.950
2020/01/31 14:02:09.1	2.000	-0.720	0.130	-0.930
2020/01/31 14:02:09.2	1.980	-0.680	0.090	-0.900
2020/01/31 14:02:09.3	1.960	-0.630	0.050	-0.870
2020/01/31 14:02:09.4	1.940	-0.580	0.010	-0.830
2020/01/31 14:02:09.5	1.930	-0.530	-0.020	-0.800
2020/01/31 14:02:09.6	1.900	-0.470	-0.070	-0.760
2020/01/31 14:02:09.7	1.880	-0.410	-0.110	-0.720
2020/01/31 14:02:09.8	1.860	-0.350	-0.140	-0.680
2020/01/31 14:02:09.9	1.840	-0.280	-0.180	-0.630
2020/01/31 14:02:10.0	1.820	-0.210	-0.220	-0.590
2020/01/31 14:02:10.1	1.800	-0.140	-0.260	-0.540
2020/01/31 14:02:10.2	1.780	-0.070	-0.290	-0.490
2020/01/31 14:02:10.3	1.760	0.000	-0.330	-0.440
2020/01/31 14:02:10.4	1.740	0.080	-0.370	-0.380
2020/01/31 14:02:10.5	1.720	0.150	-0.400	-0.330
2020/01/31 14:02:10.6	1.690	0.220	-0.430	-0.270
2020/01/31 14:02:10.7	1.670	0.300	-0.470	-0.220
2020/01/31 14:02:10.8	1.650	0.370	-0.500	-0.170
2020/01/31 14:02:10.9	1.630	0.440	-0.530	-0.110
2020/01/31 14:02:11.0	1.610	0.510	-0.560	-0.060
2020/01/31 14:02:11.1	1.590	0.580	-0.590	-0.000
2020/01/31 14:02:11.2	1.570	0.640	-0.620	0.050
2020/01/31 14:02:11.3	1.540	0.700	-0.640	0.100
2020/01/31 14:02:11.4	1.520	0.760	-0.670	0.150
2020/01/31 14:02:11.5	1.500	0.820	-0.690	0.200
2020/01/31 14:02:11.6	1.470	0.870	-0.710	0.250
2020/01/31 14:02:11.7	1.450	0.910	-0.730	0.290
2020/01/31 14:02:11.8	1.420	0.950	-0.750	0.330
2020/01/31 14:02:11.9	1.400	0.990	-0.770	0.370
2020/01/31 14:02:12.0	1.380	1.020	-0.780	0.400
2020/01/31 14:02:12.1	1.350	1.040	-0.790	0.430
2020/01/31 14:02:12.2	1.330	1.060	-0.800	0.460
2020/01/31 14:02:12.3	1.310	1.070	-0.810	0.480
2020/01/31 14:02:12.4	1.290	1.080	-0.820	0.500
2020/01/31 14:02:12.5	1.270	1.080	-0.820	0.510
2020/01/31 14:02:12.6	1.260	1.080	-0.820	0.520
2020/01/31 14:02:12.7	1.240	1.070	-0.820	0.530
2020/01/31 14:02:12.8	1.230	1.050	-0.820	0.530
2020/01/31 14:02:12.9	1.220	1.030	-0.820	0.520
2020/01/31 14:02:13.0	1.220	1.010	-0.820	0.510
2020/01/31 14:02:13.1	1.220	0.980	-0.810	0.500
2020/01/31 14:02:13.2	1.220	0.950	-0.810	0.480
2020/01/31 14:02:13.3	1.230	0.910	-0.800	0.450
2020/01/31 14:02:13.4	1.240	0.870	-0.800	0.420
2020/01/31 14:02:13.5	1.260	0.830	-0.790	0.390
2020/01/31 14:02:13.6	1.290	0.780	-0.790	0.350
2020/01/31 14:02:13.7	1.320	0.730	-0.780	0.300
2020/01/31 14:02:13.8	1.350	0.680	-0.770	0.250
2020/01/31 14:02:13.9	1.390	0.630	-0.760	0.200
2020/01/31 14:02:14.0	1.430	0.580	-0.750	0.140
2020/01/31 14:02:14.1	1.470	0.530	-0.740	0.080
2020/01/31 14:02:14.2	1.510	0.470	-0.730	0.020
2020/01/31 14:02:14.3	1.560	0.420	-0.710	-0.040
2020/01/31 14:02:14.4	1.610	0.360	-0.700	-0.110
2020/01/31 14:02:14.5	1.660	0.310	-0.670	-0.170
2020/01/31 14:02:14.6	1.700	0.250	-0.650	-0.240
2020/01/31 14:02:14.7	1.750	0.200	-0.620	-0.300
2020/01/31 14:02:14.8	1.790	0.150	-0.580	-0.360
2020/01/31 14:02:14.9	1.830	0.090	-0.540	-0.420
2020/01/31 14:02:15.0	1.870	0.040	-0.500	-0.480
2020/01/31 14:02:15.1	1.910	-0.010	-0.450	-0.530
2020/01/31 14:02:15.2	1.940	-0.070	-0.400	-0.590
2020/01/31 14:02:15.3	1.970	-0.120	-0.340	-0.640
2020/01/31 14:02:15.4	2.000	-0.160	-0.280	-0.690
2020/01/31 14:02:15.5	2.030	-0.210	-0.210	-0.730
2020/01/31 14:02:15.6	2.050	-0.260	-0.150	-0.770
2020/01/31 14:02:15.7	2.070	-0.300	-0.080	-0.810
2020/01/31 14:02:15.8	2.080	-0.340	-0.010	-0.840
2020/01/31 14:02:15.9	2.100	-0.380	0.060	-0.880
2020/01/31 14:02:16.0	2.110	-0.420	0.130	-0.900
2020/01/31 14:02:16.1	2.120	-0.460	0.200	-0.930
2020/01/31 14:02:16.2	2.120	-0.490	0.270	-0.950
2020/01/31 14:02:16.3	2.130	-0.520	0.330	-0.970
2020/01/31 14:02:16.4	2.130	-0.550	0.400	-0.990
2020/01/31 14:02:16.5	2.130	-0.580	0.460	-1.000
2020/01/31 14:02:16.6	2.140	-0.600	0.510	-1.010
2020/01/31 14:02:16.7	2.140	-0.620	0.560	-1.020
2020/01/31 14:02:16.8	2.140	-0.640	0.610	-1.020
2020/01/31 14:02:16.9	2.130	-0.650	0.650	-1.030
2020/01/31 14:02:17.0	2.130	-0.670	0.680	-1.030
2020/01/31 14:02:17.1	2.130	-0.680	0.710	-1.030
2020/01/31 14:02:17.2	2.120	-0.690	0.730	-1.030
2020/01/31 14:02:17.3	2.110	-0.690	0.750	-1.020
2020/01/31 14:02:17.4	2.110	-0.700	0.760	-1.020
2020/01/31 14:02:17.5	2.100	-0.700	0.770	-1.010
2020/01/31 14:02:17.6	2.100	-0.700	0.770	-1.000
2020/01/31 14:02:17.7	2.090	-0.700	0.770	-0.980
2020/01/31 14:02:17.8	2.070	-0.690	0.760	-0.970
2020/01/31 14:02:17.9	2.060	-0.690	0.750	-0.950
2020/01/31 14:02:18.0	2.040	-0.680	0.740	-0.930
2020/01/31 14:02:18.1	2.020	-0.680	0.720	-0.910
2020/01/31 14:02:18.2	1.990	-0.670	0.700	-0.890
2020/01/31 14:02:18.3	1.960	-0.660	0.680	-0.860
2020/01/31 14:02:18.4	1.930	-0.650	0.650	-0.830
2020/01/31 14:02:18.5	1.900	-0.640	0.630	-0.800
2020/01/31 14:02:18.6	1.860	-0.620	0.600	-0.770
2020/01/31 14:02:18.7	1.820	-0.610	0.570	-0.740
2020/01/31 14:02:18.8	1.780	-0.590	0.540	-0.700
2020/01/31 14:02:18.9	1.740	-0.580	0.510	-0.660
2020/01/31 14:02:19.0	1.700	-0.560	0.470	-0.620
2020/01/31 14:02:19.1	1.650	-0.550	0.440	-0.580
2020/01/31 14:02:19.2	1.600	-0.530	0.400	-0.540
2020/01/31 14:02:19.3	1.560	-0.510	0.370	-0.490
2020/01/31 14:02:19.4	1.510	-0.490	0.330	-0.450
2020/01/31 14:02:19.5	1.470	-0.470	0.290	-0.400
2020/01/31 14:02:19.6	1.420	-0.440	0.250	-0.350
2020/01/31 14:02:19.7	1.380	-0.420	0.200	-0.310
2020/01/31 14:02:19.8	1.340	-0.400	0.150	-0.270
2020/01/31 14:02:19.9	1.300	-0.370	0.110	-0.230
2020/01/31 14:02:20.0	1.260	-0.340	0.060	-0.200
2020/01/31 14:02:20.1	1.230	-0.320	0.000	-0.160
2020/01/31 14:02:20.2	1.200	-0.290	-0.050	-0.130
2020/01/31 14:02:20.3	1.170	-0.260	-0.110	-0.100
2020/01/31 14:02:20.4	1.140	-0.230	-0.170	-0.070
2020/01/31 14:02:20.5	1.110	-0.190	-0.230	-0.050
2020/01/31 14:02:20.6	1.090	-0.160	-0.290	-0.030
2020/01/31 14:02:20.7	1.070	-0.130	-0.350	-0.010
2020/01/31 14:02:20.8	1.050	-0.090	-0.410	0.010
2020/01/31 14:02:20.9	1.030	-0.050	-0.480	0.020
2020/01/31 14:02:21.0	1.020	-0.020	-0.540	0.030
2020/01/31 14:02:21.1	1.000	0.020	-0.600	0.040
2020/01/31 14:02:21.2	0.990	0.060	-0.670	0.040
2020/01/31 14:02:21.3	0.970	0.100	-0.730	0.050
2020/01/31 14:02:21.4	0.960	0.130	-0.790	0.050
2020/01/31 14:02:21.5	0.940	0.170	-0.850	0.050
2020/01/31 14:02:21.6	0.920	0.210	-0.910	0.060
2020/01/31 14:02:21.7	0.910	0.240	-0.960	0.060
2020/01/31 14:02:21.8	0.900	0.280	-1.010	0.060
2020/01/31 14:02:21.9	0.880	0.310	-1.050	0.060
2020/01/31 14:02:22.0	0.870	0.340	-1.100	0.060
2020/01/31 14:02:22.1	0.850	0.370	-1.130	0.060
2020/01/31 14:02:22.2	0.840	0.400	-1.170	0.060
2020/01/31 14:02:22.3	0.830	0.420	-1.200	0.050
2020/01/31 14:02:22.4	0.820	0.450	-1.220	0.050
2020/01/31 14:02:22.5	0.810	0.470	-1.240	0.050
2020/01/31 14:02:22.6	0.800	0.490	-1.260	0.050
2020/01/31 14:02:22.7	0.790	0.500	-1.270	0.040
2020/01/31 14:02:22.8	0.790	0.520	-1.270	0.040
2020/01/31 14:02:22.9	0.780	0.530	-1.280	0.040
2020/01/31 14:02:23.0	0.780	0.540	-1.270	0.040
2020/01/31 14:02:23.1	0.780	0.550	-1.270	0.030
2020/01/31 14:02:23.2	0.780	0.560	-1.260	0.030
2020/01/31 14:02:23.3	0.790	0.560	-1.240	0.020
2020/01/31 14:02:23.4	0.790	0.560	-1.220	0.020
2020/01/31 14:02:23.5	0.800	0.570	-1.200	0.010
2020/01/31 14:02:23.6	0.810	0.570	-1.180	0.010
2020/01/31 14:02:23.7	0.830	0.570	-1.160	-0.000
2020/01/31 14:02:23.8	0.850	0.560	-1.130	-0.010
2020/01/31 14:02:23.9	0.870	0.560	-1.100	-0.020
2020/01/31 14:02:24.0	0.900	0.560	-1.070	-0.030
2020/01/31 14:02:24.1	0.930	0.550	-1.040	-0.050
2020/01/31 14:02:24.2	0.960	0.550	-1.010	-0.060
2020/01/31 14:02:24.3	0.990	0.550	-0.970	-0.080
2020/01/31 14:02:24.4	1.030	0.540	-0.930	-0.090
2020/01/31 14:02:24.5	1.070	0.540	-0.900	-0.110
2020/01/31 14:02:24.6	1.110	0.530	-0.860	-0.120
2020/01/31 14:02:24.7	1.160	0.530	-0.820	-0.140
2020/01/31 14:02:24.8	1.200	0.520	-0.780	-0.160
2020/01/31 14:02:24.9	1.250	0.510	-0.730	-0.180
2020/01/31 14:02:25.0	1.290	0.510	-0.690	-0.190
2020/01/31 14:02:25.1	1.340	0.500	-0.640	-0.210
2020/01/31 14:02:25.2	1.380	0.490	-0.590	-0.220
2020/01/31 14:02:25.3	1.420	0.480	-0.540	-0.230
2020/01/31 14:02:25.4	1.460	0.460	-0.490	-0.240
2020/01/31 14:02:25.5	1.500	0.450	-0.430	-0.240
2020/01/31 14:02:25.6	1.530	0.430	-0.380	-0.240
2020/01/31 14:02:25.7	1.560	0.410	-0.320	-0.240
2020/01/31 14:02:25.8	1.590	0.390	-0.260	-0.240
2020/01/31 14:02:25.9	1.610	0.360	-0.190	-0.230
2020/01/31 14:02:26.0	1.630	0.340	-0.130	-0.230
2020/01/31 14:02:26.1	1.650	0.310	-0.060	-0.210
2020/01/31 14:02:26.2	1.660	0.280	0.010	-0.200
2020/01/31 14:02:26.3	1.660	0.240	0.070	-0.180
2020/01/31 14:02:26.4	1.670	0.210	0.140	-0.160
2020/01/31 14:02:26.5	1.660	0.170	0.210	-0.140
2020/01/31 14:02:26.6	1.660	0.130	0.280	-0.120
2020/01/31 14:02:26.7	1.650	0.090	0.350	-0.090
2020/01/31 14:02:26.8	1.640	0.050	0.410	-0.070
2020/01/31 14:02:26.9	1.620	0.010	0.480	-0.040
2020/01/31 14:02:27.0	1.610	-0.040	0.540	-0.020
2020/01/31 14:02:27.1	1.580	-0.080	0.590	0.010
2020/01/31 14:02:27.2	1.560	-0.120	0.650	0.040
2020/01/31 14:02:27.3	1.530	-0.160	0.700	0.060
2020/01/31 14:02:27.4	1.510	-0.200	0.740	0.090
2020/01/31 14:02:27.5	1.480	-0.240	0.780	0.120
2020/01/31 14:02:27.6	1.460	-0.280	0.810	0.140
2020/01/31 14:02:27.7	1.430	-0.320	0.840	0.170
2020/01/31 14:02:27.8	1.400	-0.350	0.870	0.190
2020/01/31 14:02:27.9	1.370	-0.380	0.880	0.210
2020/01/31 14:02:28.0	1.340	-0.410	0.890	0.230
2020/01/31 14:02:28.1	1.310	-0.430	0.890	0.240
2020/01/31 14:02:28.2	1.290	-0.450	0.880	0.250
2020/01/31 14:02:28.3	1.260	-0.470	0.870	0.260
2020/01/31 14:02:28.4	1.240	-0.480	0.850	0.270
2020/01/31 14:02:28.5	1.220	-0.480	0.820	0.280
2020/01/31 14:02:28.6	1.200	-0.480	0.790	0.280
2020/01/31 14:02:28.7	1.180	-0.480	0.750	0.280
2020/01/31 14:02:28.8	1.160	-0.470	0.700	0.280
2020/01/31 14:02:28.9	1.140	-0.460	0.650	0.280
2020/01/31 14:02:29.0	1.120	-0.450	0.600	0.280
2020/01/31 14:02:29.1	1.100	-0.430	0.540	0.270
2020/01/31 14:02:29.2	1.080	-0.410	0.480	0.260
2020/01/31 14:02:29.3	1.060	-0.380	0.420	0.250
2020/01/31 14:02:29.4	1.040	-0.360	0.360	0.240
2020/01/31 14:02:29.5	1.010	-0.330	0.300	0.220
2020/01/31 14:02:29.6	0.990	-0.310	0.230	0.210
2020/01/31 14:02:29.7	0.970	-0.280	0.170	0.190
2020/01/31 14:02:29.8	0.950	-0.250	0.110	0.170
2020/01/31 14:02:29.9	0.920	-0.220	0.050	0.150
2020/01/31 14:02:30.0	0.900	-0.200	-0.010	0.130
2020/01/31 14:02:30.1	0.880	-0.170	-0.060	0.100
2020/01/31 14:02:30.2	0.850	-0.150	-0.110	0.080
2020/01/31 14:02:30.3	0.830	-0.130	-0.160	0.050
2020/01/31 14:02:30.4	0.810	-0.110	-0.210	0.030
2020/01/31 14:02:30.5	0.790	-0.090	-0.250	0.000
2020/01/31 14:02:30.6	0.780	-0.080	-0.290	-0.020
2020/01/31 14:02:30.7	0.760	-0.070	-0.320	-0.050
2020/01/31 14:02:30.8	0.740	-0.060	-0.360	-0.070
2020/01/31 14:02:30.9	0.730	-0.050	-0.380	-0.100
2020/01/31 14:02:31.0	0.720	-0.050	-0.410	-0.130
2020/01/31 14:02:31.1	0.710	-0.050	-0.430	-0.150
2020/01/31 14:02:31.2	0.700	-0.060	-0.450	-0.180
2020/01/31 14:02:31.3	0.690	-0.060	-0.470	-0.210
2020/01/31 14:02:31.4	0.690	-0.070	-0.480	-0.230
2020/01/31 14:02:31.5	0.690	-0.080	-0.490	-0.260
2020/01/31 14:02:31.6	0.680	-0.090	-0.510	-0.290
2020/01/31 14:02:31.7	0.680	-0.110	-0.520	-0.320
2020/01/31 14:02:31.8	0.680	-0.120	-0.520	-0.340
2020/01/31 14:02:31.9	0.680	-0.140	-0.530	-0.370
2020/01/31 14:02:32.0	0.680	-0.160	-0.530	-0.400
2020/01/31 14:02:32.1	0.680	-0.180	-0.540	-0.430
2020/01/31 14:02:32.2	0.680	-0.200	-0.540	-0.460
2020/01/31 14:02:32.3	0.680	-0.220	-0.540	-0.490
2020/01/31 14:02:32.4	0.680	-0.240	-0.550	-0.510
2020/01/31 14:02:32.5	0.680	-0.250	-0.550	-0.540
2020/01/31 14:02:32.6	0.680	-0.270	-0.560	-0.570
2020/01/31 14:02:32.7	0.680	-0.280	-0.560	-0.590
2020/01/31 14:02:32.8	0.690	-0.290	-0.560	-0.620
2020/01/31 14:02:32.9	0.690	-0.300	-0.570	-0.650
2020/01/31 14:02:33.0	0.700	-0.310	-0.570	-0.670
2020/01/31 14:02:33.1	0.700	-0.320	-0.580	-0.700
2020/01/31 14:02:33.2	0.710	-0.320	-0.590	-0.720
2020/01/31 14:02:33.3	0.720	-0.320	-0.600	-0.750
2020/01/31 14:02:33.4	0.730	-0.310	-0.610	-0.770
2020/01/31 14:02:33.5	0.740	-0.300	-0.620	-0.790
2020/01/31 14:02:33.6	0.740	-0.290	-0.630	-0.820
2020/01/31 14:02:33.7	0.760	-0.280	-0.640	-0.840
2020/01/31 14:02:33.8	0.780	-0.260	-0.650	-0.860
2020/01/31 14:02:33.9	0.800	-0.240	-0.660	-0.880
2020/01/31 14:02:34.0	0.820	-0.220	-0.680	-0.900
2020/01/31 14:02:34.1	0.840	-0.190	-0.690	-0.920
2020/01/31 14:02:34.2	0.860	-0.160	-0.700	-0.940
2020/01/31 14:02:34.3	0.890	-0.130	-0.710	-0.950
2020/01/31 14:02:34.4	0.910	-0.100	-0.720	-0.970
2020/01/31 14:02:34.5	0.940	-0.060	-0.730	-0.980
2020/01/31 14:02:34.6	0.970	-0.020	-0.740	-0.990
2020/01/31 14:02:34.7	1.000	0.010	-0.740	-1.000
2020/01/31 14:02:34.8	1.030	0.050	-0.750	-1.010
2020/01/31 14:02:34.9	1.060	0.090	-0.750	-1.020
2020/01/31 14:02:35.0	1.090	0.130	-0.750	-1.020
2020/01/31 14:02:35.1	1.120	0.170	-0.750	-1.020
2020/01/31 14:02:35.2	1.150	0.210	-0.740	-1.010
2020/01/31 14:02:35.3	1.170	0.240	-0.730	-1.010
2020/01/31 14:02:35.4	1.200	0.280	-0.720	-0.990
2020/01/31 14:02:35.5	1.230	0.310	-0.700	-0.980
2020/01/31 14:02:35.6	1.240	0.340	-0.690	-0.950
2020/01/31 14:02:35.7	1.260	0.370	-0.670	-0.920
2020/01/31 14:02:35.8	1.270	0.400	-0.640	-0.900
2020/01/31 14:02:35.9	1.290	0.420	-0.610	-0.860
2020/01/31 14:02:36.0	1.300	0.440	-0.580	-0.830
2020/01/31 14:02:36.1	1.310	0.460	-0.550	-0.780
2020/01/31 14:02:36.2	1.310	0.470	-0.510	-0.740
2020/01/31 14:02:36.3	1.310	0.480	-0.470	-0.690
2020/01/31 14:02:36.4	1.310	0.490	-0.430	-0.640
2020/01/31 14:02:36.5	1.300	0.490	-0.380	-0.590
2020/01/31 14:02:36.6	1.300	0.490	-0.340	-0.530
2020/01/31 14:02:36.7	1.280	0.480	-0.290	-0.470
2020/01/31 14:02:36.8	1.270	0.480	-0.250	-0.410
2020/01/31 14:02:36.9	1.250	0.470	-0.200	-0.350
2020/01/31 14:02:37.0	1.220	0.450	-0.150	-0.290
2020/01/31 14:02:37.1	1.200	0.440	-0.100	-0.230
2020/01/31 14:02:37.2	1.170	0.420	-0.060	-0.170
2020/01/31 14:02:37.3	1.140	0.400	-0.010	-0.110
2020/01/31 14:02:37.4	1.110	0.380	0.030	-0.040
2020/01/31 14:02:37.5	1.070	0.350	0.080	0.020
2020/01/31 14:02:37.6	1.040	0.330	0.120	0.080
2020/01/31 14:02:37.7	1.010	0.300	0.150	0.150
2020/01/31 14:02:37.8	0.970	0.270	0.190	0.210
2020/01/31 14:02:37.9	0.940	0.250	0.220	0.260
2020/01/31 14:02:38.0	0.910	0.220	0.250	0.320
2020/01/31 14:02:38.1	0.880	0.190	0.270	0.370
2020/01/31 14:02:38.2	0.850	0.160	0.280	0.420
2020/01/31 14:02:38.3	0.830	0.140	0.300	0.460
2020/01/31 14:02:38.4	0.810	0.110	0.300	0.500
2020/01/31 14:02:38.5	0.790	0.090	0.300	0.530
2020/01/31 14:02:38.6	0.780	0.070	0.290	0.560
2020/01/31 14:02:38.7	0.770	0.050	0.280	0.580
2020/01/31 14:02:38.8	0.770	0.030	0.260	0.600
2020/01/31 14:02:38.9	0.770	0.020	0.230	0.600
2020/01/31 14:02:39.0	0.770	0.000	0.200	0.600
2020/01/31 14:02:39.1	0.780	-0.010	0.170	0.600
2020/01/31 14:02:39.2	0.800	-0.020	0.130	0.580
2020/01/31 14:02:39.3	0.810	-0.030	0.090	0.560
2020/01/31 14:02:39.4	0.830	-0.030	0.040	0.540
2020/01/31 14:02:39.5	0.860	-0.040	-0.010	0.510
2020/01/31 14:02:39.6	0.880	-0.040	-0.060	0.480
2020/01/31 14:02:39.7	0.910	-0.040	-0.110	0.440
2020/01/31 14:02:39.8	0.940	-0.050	-0.160	0.400
2020/01/31 14:02:39.9	0.960	-0.050	-0.210	0.350
2020/01/31 14:02:40.0	0.990	-0.050	-0.260	0.310
2020/01/31 14:02:40.1	1.020	-0.050	-0.310	0.260
2020/01/31 14:02:40.2	1.040	-0.050	-0.350	0.220
2020/01/31 14:02:40.3	1.070	-0.050	-0.380	0.170
2020/01/31 14:02:40.4	1.090	-0.050	-0.420	0.130
2020/01/31 14:02:40.5	1.110	-0.050	-0.440	0.090
2020/01/31 14:02:40.6	1.130	-0.050	-0.460	0.050
2020/01/31 14:02:40.7	1.140	-0.050	-0.480	0.020
2020/01/31 14:02:40.8	1.150	-0.060	-0.480	-0.020
2020/01/31 14:02:40.9	1.150	-0.060	-0.480	-0.050
2020/01/31 14:02:41.0	1.150	-0.070	-0.470	-0.080
2020/01/31 14:02:41.1	1.150	-0.080	-0.460	-0.100
2020/01/31 14:02:41.2	1.150	-0.080	-0.440	-0.130
2020/01/31 14:02:41.3	1.140	-0.100	-0.410	-0.150
2020/01/31 14:02:41.4	1.120	-0.110	-0.380	-0.160
2020/01/31 14:02:41.5	1.110	-0.120	-0.350	-0.180
2020/01/31 14:02:41.6	1.090	-0.130	-0.310	-0.190
2020/01/31 14:02:41.7	1.070	-0.150	-0.270	-0.210
2020/01/31 14:02:41.8	1.050	-0.170	-0.220	-0.220
2020/01/31 14:02:41.9	1.020	-0.180	-0.170	-0.230
2020/01/31 14:02:42.0	1.000	-0.200	-0.130	-0.240
2020/01/31 14:02:42.1	0.980	-0.220	-0.080	-0.250
2020/01/31 14:02:42.2	0.950	-0.240	-0.030	-0.250
2020/01/31 14:02:42.3	0.930	-0.260	0.010	-0.260
2020/01/31 14:02:42.4	0.910	-0.280	0.060	-0.270
2020/01/31 14:02:42.5	0.880	-0.300	0.100	-0.280
2020/01/31 14:02:42.6	0.860	-0.310	0.140	-0.280
2020/01/31 14:02:42.7	0.840	-0.330	0.170	-0.290
2020/01/31 14:02:42.8	0.830	-0.340	0.200	-0.300
2020/01/31 14:02:42.9	0.810	-0.350	0.220	-0.310
2020/01/31 14:02:43.0	0.790	-0.360	0.240	-0.320
2020/01/31 14:02:43.1	0.780	-0.370	0.260	-0.330
2020/01/31 14:02:43.2	0.760	-0.380	0.270	-0.340
2020/01/31 14:02:43.3	0.750	-0.380	0.280	-0.350
2020/01/31 14:02:43.4	0.740	-0.380	0.280	-0.360
2020/01/31 14:02:43.5	0.730	-0.380	0.280	-0.370
2020/01/31 14:02:43.6	0.710	-0.380	0.270	-0.380
2020/01/31 14:02:43.7	0.690	-0.380	0.260	-0.390
2020/01/31 14:02:43.8	0.680	-0.380	0.250	-0.390
2020/01/31 14:02:43.9	0.670	-0.370	0.230	-0.400
2020/01/31 14:02:44.0	0.650	-0.360	0.210	-0.410
2020/01/31 14:02:44.1	0.640	-0.360	0.190	-0.410
2020/01/31 14:02:44.2	0.620	-0.350	0.170	-0.420
2020/01/31 14:02:44.3	0.600	-0.340	0.150	-0.420
2020/01/31 14:02:44.4	0.580	-0.330	0.120	-0.430
2020/01/31 14:02:44.5	0.570	-0.320	0.090	-0.430
2020/01/31 14:02:44.6	0.550	-0.300	0.060	-0.430
2020/01/31 14:02:44.7	0.530	-0.290	0.030	-0.430
2020/01/31 14:02:44.8	0.520	-0.270	-0.010	-0.430
2020/01/31 14:02:44.9	0.500	-0.260	-0.050	-0.440
2020/01/31 14:02:45.0	0.490	-0.240	-0.090	-0.440
2020/01/31 14:02:45.1	0.480	-0.220	-0.130	-0.440
2020/01/31 14:02:45.2	0.470	-0.200	-0.180	-0.440
2020/01/31 14:02:45.3	0.460	-0.180	-0.230	-0.440
2020/01/31 14:02:45.4	0.450	-0.160	-0.270	-0.440
2020/01/31 14:02:45.5	0.450	-0.130	-0.330	-0.440
2020/01/31 14:02:45.6	0.450	-0.110	-0.380	-0.440
2020/01/31 14:02:45.7	0.460	-0.080	-0.430	-0.440
2020/01/31 14:02:45.8	0.470	-0.060	-0.490	-0.440
2020/01/31 14:02:45.9	0.480	-0.030	-0.540	-0.450
2020/01/31 14:02:46.0	0.500	-0.000	-0.590	-0.460
2020/01/31 14:02:46.1	0.510	0.030	-0.640	-0.460
2020/01/31 14:02:46.2	0.530	0.060	-0.690	-0.470
2020/01/31 14:02:46.3	0.560	0.090	-0.740	-0.480
2020/01/31 14:02:46.4	0.580	0.120	-0.780	-0.490
2020/01/31 14:02:46.5	0.600	0.150	-0.820	-0.490
2020/01/31 14:02:46.6	0.620	0.180	-0.860	-0.500
2020/01/31 14:02:46.7	0.640	0.200	-0.890	-0.500
2020/01/31 14:02:46.8	0.650	0.230	-0.920	-0.500
2020/01/31 14:02:46.9	0.670	0.260	-0.940	-0.500
2020/01/31 14:02:47.0	0.690	0.280	-0.950	-0.500
2020/01/31 14:02:47.1	0.700	0.310	-0.960	-0.500
2020/01/31 14:02:47.2	0.710	0.330	-0.960	-0.490
2020/01/31 14:02:47.3	0.710	0.350	-0.960	-0.480
2020/01/31 14:02:47.4	0.720	0.370	-0.940	-0.470
2020/01/31 14:02:47.5	0.720	0.380	-0.930	-0.450
2020/01/31 14:02:47.6	0.710	0.390	-0.900	-0.430
2020/01/31 14:02:47.7	0.710	0.400	-0.870	-0.410
2020/01/31 14:02:47.8	0.700	0.410	-0.840	-0.390
2020/01/31 14:02:47.9	0.700	0.410	-0.800	-0.360
2020/01/31 14:02:48.0	0.690	0.410	-0.750	-0.330
2020/01/31 14:02:48.1	0.670	0.400	-0.710	-0.310
2020/01/31 14:02:48.2	0.660	0.390	-0.660	-0.280
2020/01/31 14:02:48.3	0.650	0.380	-0.610	-0.250
2020/01/31 14:02:48.4	0.630	0.370	-0.560	-0.220
2020/01/31 14:02:48.5	0.620	0.350	-0.510	-0.190
2020/01/31 14:02:48.6	0.610	0.330	-0.460	-0.170
2020/01/31 14:02:48.7	0.590	0.310	-0.410	-0.140
2020/01/31 14:02:48.8	0.580	0.290	-0.360	-0.120
2020/01/31 14:02:48.9	0.570	0.260	-0.320	-0.110
2020/01/31 14:02:49.0	0.560	0.240	-0.280	-0.090
2020/01/31 14:02:49.1	0.550	0.210	-0.240	-0.080
2020/01/31 14:02:49.2	0.550	0.180	-0.200	-0.080
2020/01/31 14:02:49.3	0.540	0.160	-0.170	-0.070
2020/01/31 14:02:49.4	0.540	0.130	-0.150	-0.070
2020/01/31 14:02:49.5	0.540	0.100	-0.120	-0.070
2020/01/31 14:02:49.6	0.550	0.080	-0.110	-0.080
2020/01/31 14:02:49.7	0.560	0.050	-0.090	-0.090
2020/01/31 14:02:49.8	0.570	0.030	-0.090	-0.100
2020/01/31 14:02:49.9	0.580	0.010	-0.080	-0.110
2020/01/31 14:02:50.0	0.590	-0.010	-0.080	-0.130
2020/01/31 14:02:50.1	0.600	-0.020	-0.080	-0.140
2020/01/31 14:02:50.2	0.620	-0.040	-0.080	-0.160
2020/01/31 14:02:50.3	0.630	-0.050	-0.080	-0.170
2020/01/31 14:02:50.4	0.640	-0.060	-0.090	-0.180
2020/01/31 14:02:50.5	0.650	-0.060	-0.090	-0.190
2020/01/31 14:02:50.6	0.660	-0.060	-0.090	-0.200
2020/01/31 14:02:50.7	0.670	-0.070	-0.100	-0.200
2020/01/31 14:02:50.8	0.670	-0.060	-0.100	-0.210
2020/01/31 14:02:50.9	0.670	-0.060	-0.100	-0.210
2020/01/31 14:02:51.0	0.670	-0.060	-0.090	-0.210
2020/01/31 14:02:51.1	0.670	-0.050	-0.080	-0.200
2020/01/31 14:02:51.2	0.670	-0.040	-0.080	-0.190
2020/01/31 14:02:51.3	0.660	-0.030	-0.060	-0.180
2020/01/31 14:02:51.4	0.650	-0.020	-0.050	-0.160
2020/01/31 14:02:51.5	0.640	-0.010	-0.030	-0.140
2020/01/31 14:02:51.6	0.630	0.000	-0.020	-0.120
2020/01/31 14:02:51.7	0.610	0.020	0.000	-0.100
2020/01/31 14:02:51.8	0.600	0.030	0.020	-0.080
2020/01/31 14:02:51.9	0.580	0.040	0.050	-0.050
2020/01/31 14:02:52.0	0.570	0.050	0.070	-0.020
2020/01/31 14:02:52.1	0.550	0.060	0.090	0.000
2020/01/31 14:02:52.2	0.540	0.070	0.110	0.030
2020/01/31 14:02:52.3	0.530	0.080	0.130	0.060
2020/01/31 14:02:52.4	0.510	0.090	0.150	0.080
2020/01/31 14:02:52.5	0.500	0.090	0.170	0.110
2020/01/31 14:02:52.6	0.490	0.090	0.180	0.140
2020/01/31 14:02:52.7	0.490	0.090	0.190	0.160
2020/01/31 14:02:52.8	0.480	0.090	0.200	0.170
2020/01/31 14:02:52.9	0.480	0.090	0.200	0.190
2020/01/31 14:02:53.0	0.480	0.080	0.200	0.200
2020/01/31 14:02:53.1	0.480	0.080	0.200	0.200
2020/01/31 14:02:53.2	0.480	0.070	0.190	0.210
2020/01/31 14:02:53.3	0.490	0.060	0.180	0.200
2020/01/31 14:02:53.4	0.500	0.040	0.160	0.200
2020/01/31 14:02:53.5	0.510	0.030	0.150	0.190
2020/01/31 14:02:53.6	0.520	0.010	0.120	0.170
2020/01/31 14:02:53.7	0.530	-0.010	0.100	0.150
2020/01/31 14:02:53.8	0.540	-0.030	0.070	0.130
2020/01/31 14:02:53.9	0.560	-0.050	0.050	0.100
2020/01/31 14:02:54.0	0.570	-0.070	0.020	0.070
2020/01/31 14:02:54.1	0.580	-0.090	-0.010	0.040
2020/01/31 14:02:54.2	0.590	-0.110	-0.040	0.010
2020/01/31 14:02:54.3	0.600	-0.140	-0.060	-0.030
2020/01/31 14:02:54.4	0.610	-0.160	-0.090	-0.060
2020/01/31 14:02:54.5	0.620	-0.180	-0.120	-0.090
2020/01/31 14:02:54.6	0.630	-0.210	-0.140	-0.130
2020/01/31 14:02:54.7	0.630	-0.230	-0.160	-0.160
2020/01/31 14:02:54.8	0.630	-0.250	-0.180	-0.190
2020/01/31 14:02:54.9	0.630	-0.270	-0.200	-0.210
2020/01/31 14:02:55.0	0.620	-0.290	-0.210	-0.240
2020/01/31 14:02:55.1	0.620	-0.310	-0.230	-0.260
2020/01/31 14:02:55.2	0.610	-0.320	-0.240	-0.280
2020/01/31 14:02:55.3	0.600	-0.330	-0.240	-0.290
2020/01/31 14:02:55.4	0.590	-0.340	-0.250	-0.300
2020/01/31 14:02:55.5	0.580	-0.350	-0.260	-0.310
2020/01/31 14:02:55.6	0.570	-0.350	-0.260	-0.320
2020/01/31 14:02:55.7	0.560	-0.350	-0.270	-0.330
2020/01/31 14:02:55.8	0.550	-0.350	-0.270	-0.330
2020/01/31 14:02:55.9	0.540	-0.350	-0.280	-0.330
2020/01/31 14:02:56.0	0.530	-0.340	-0.280	-0.340
2020/01/31 14:02:56.1	0.530	-0.330	-0.290	-0.340
2020/01/31 14:02:56.2	0.520	-0.320	-0.300	-0.340
2020/01/31 14:02:56.3	0.520	-0.310	-0.310	-0.350
2020/01/31 14:02:56.4	0.520	-0.290	-0.320	-0.350
2020/01/31 14:02:56.5	0.520	-0.270	-0.340	-0.350
2020/01/31 14:02:56.6	0.530	-0.250	-0.350	-0.360
2020/01/31 14:02:56.7	0.530	-0.220	-0.370	-0.360
2020/01/31 14:02:56.8	0.540	-0.200	-0.400	-0.370
2020/01/31 14:02:56.9	0.550	-0.170	-0.420	-0.370
2020/01/31 14:02:57.0	0.560	-0.140	-0.450	-0.380
2020/01/31 14:02:57.1	0.570	-0.110	-0.480	-0.390
2020/01/31 14:02:57.2	0.580	-0.080	-0.520	-0.400
2020/01/31 14:02:57.3	0.590	-0.050	-0.550	-0.410
2020/01/31 14:02:57.4	0.610	-0.020	-0.580	-0.420
2020/01/31 14:02:57.5	0.620	0.010	-0.620	-0.420
2020/01/31 14:02:57.6	0.640	0.040	-0.660	-0.430
2020/01/31 14:02:57.7	0.650	0.070	-0.690	-0.440
2020/01/31 14:02:57.8	0.670	0.100	-0.720	-0.450
2020/01/31 14:02:57.9	0.680	0.120	-0.750	-0.450
2020/01/31 14:02:58.0	0.690	0.150	-0.770	-0.460
2020/01/31 14:02:58.1	0.710	0.170	-0.790	-0.460
2020/01/31 14:02:58.2	0.720	0.190	-0.810	-0.460
2020/01/31 14:02:58.3	0.730	0.210	-0.820	-0.460
2020/01/31 14:02:58.4	0.740	0.220	-0.830	-0.460
2020/01/31 14:02:58.5	0.750	0.230	-0.840	-0.460
2020/01/31 14:02:58.6	0.760	0.240	-0.830	-0.460
2020/01/31 14:02:58.7	0.770	0.250	-0.830	-0.450
2020/01/31 14:02:58.8	0.780	0.250	-0.820	-0.450
2020/01/31 14:02:58.9	0.790	0.250	-0.800	-0.450
2020/01/31 14:02:59.0	0.800	0.250	-0.780	-0.450
2020/01/31 14:02:59.1	0.810	0.240	-0.750	-0.450
2020/01/31 14:02:59.2	0.820	0.240	-0.720	-0.450
2020/01/31 14:02:59.3	0.830	0.230	-0.680	-0.450
2020/01/31 14:02:59.4	0.840	0.210	-0.640	-0.450
2020/01/31 14:02:59.5	0.850	0.200	-0.600	-0.450
2020/01/31 14:02:59.6	0.870	0.180	-0.560	-0.450
2020/01/31 14:02:59.7	0.880	0.160	-0.510	-0.450
2020/01/31 14:02:59.8	0.890	0.140	-0.460	-0.460
2020/01/31 14:02:59.9	0.910	0.120	-0.400	-0.460
2020/01/31 14:03:00.0	0.920	0.100	-0.340	-0.460
2020/01/31 14:03:00.1	0.930	0.080	-0.290	-0.470
2020/01/31 14:03:00.2	0.940	0.060	-0.230	-0.470
2020/01/31 14:03:00.3	0.950	0.030	-0.170	-0.480
2020/01/31 14:03:00.4	0.960	0.010	-0.110	-0.480
2020/01/31 14:03:00.5	0.980	-0.010	-0.060	-0.480
2020/01/31 14:03:00.6	0.990	-0.030	-0.010	-0.480
2020/01/31 14:03:00.7	1.000	-0.060	0.050	-0.480
2020/01/31 14:03:00.8	1.010	-0.080	0.100	-0.480
2020/01/31 14:03:00.9	1.020	-0.090	0.150	-0.480
2020/01/31 14:03:01.0	1.030	-0.110	0.190	-0.470
2020/01/31 14:03:01.1	1.040	-0.130	0.240	-0.470
2020/01/31 14:03:01.2	1.050	-0.140	0.270	-0.460
2020/01/31 14:03:01.3	1.050	-0.160	0.310	-0.460
2020/01/31 14:03:01.4	1.060	-0.170	0.340	-0.450
2020/01/31 14:03:01.5	1.060	-0.180	0.360	-0.440
2020/01/31 14:03:01.6	1.070	-0.180	0.390	-0.420
2020/01/31 14:03:01.7	1.070	-0.190	0.400	-0.410
2020/01/31 14:03:01.8	1.070	-0.190	0.410	-0.400
2020/01/31 14:03:01.9	1.060	-0.190	0.420	-0.380
2020/01/31 14:03:02.0	1.060	-0.190	0.420	-0.360
2020/01/31 14:03:02.1	1.050	-0.190	0.420	-0.340
2020/01/31 14:03:02.2	1.040	-0.190	0.410	-0.320
2020/01/31 14:03:02.3	1.030	-0.180	0.400	-0.300
2020/01/31 14:03:02.4	1.020	-0.170	0.380	-0.280
2020/01/31 14:03:02.5	1.010	-0.160	0.360	-0.250
2020/01/31 14:03:02.6	0.990	-0.150	0.340	-0.230
2020/01/31 14:03:02.7	0.980	-0.140	0.310	-0.210
2020/01/31 14:03:02.8	0.960	-0.120	0.280	-0.180
2020/01/31 14:03:02.9	0.940	-0.100	0.250	-0.150
2020/01/31 14:03:03.0	0.910	-0.090	0.220	-0.120
2020/01/31 14:03:03.1	0.890	-0.070	0.190	-0.090
2020/01/31 14:03:03.2	0.860	-0.050	0.160	-0.060
2020/01/31 14:03:03.3	0.840	-0.020	0.130	-0.030
2020/01/31 14:03:03.4	0.810	-0.000	0.090	0.010
2020/01/31 14:03:03.5	0.780	0.020	0.060	0.050
2020/01/31 14:03:03.6	0.750	0.040	0.040	0.090
2020/01/31 14:03:03.7	0.730	0.070	0.010	0.130
2020/01/31 14:03:03.8	0.700	0.090	-0.020	0.170
2020/01/31 14:03:03.9	0.670	0.120	-0.040	0.210
2020/01/31 14:03:04.0	0.640	0.140	-0.060	0.250
2020/01/31 14:03:04.1	0.610	0.160	-0.080	0.290
2020/01/31 14:03:04.2	0.590	0.180	-0.100	0.340
2020/01/31 14:03:04.3	0.560	0.200	-0.120	0.380
2020/01/31 14:03:04.4	0.540	0.220	-0.130	0.420
2020/01/31 14:03:04.5	0.510	0.240	-0.150	0.460
2020/01/31 14:03:04.6	0.500	0.250	-0.160	0.500
2020/01/31 14:03:04.7	0.480	0.270	-0.170	0.540
2020/01/31 14:03:04.8	0.460	0.280	-0.190	0.570
2020/01/31 14:03:04.9	0.450	0.290	-0.200	0.590
2020/01/31 14:03:05.0	0.440	0.290	-0.220	0.620
2020/01/31 14:03:05.1	0.430	0.300	-0.240	0.640
2020/01/31 14:03:05.2	0.430	0.300	-0.250	0.650
2020/01/31 14:03:05.3	0.430	0.290	-0.270	0.660
2020/01/31 14:03:05.4	0.430	0.290	-0.300	0.660
2020/01/31 14:03:05.5	0.440	0.280	-0.320	0.660
2020/01/31 14:03:05.6	0.450	0.270	-0.340	0.650
2020/01/31 14:03:05.7	0.460	0.260	-0.370	0.640
2020/01/31 14:03:05.8	0.470	0.240	-0.400	0.620
2020/01/31 14:03:05.9	0.490	0.230	-0.430	0.600
2020/01/31 14:03:06.0	0.500	0.210	-0.460	0.570
2020/01/31 14:03:06.1	0.520	0.180	-0.490	0.530
2020/01/31 14:03:06.2	0.540	0.160	-0.520	0.490
2020/01/31 14:03:06.3	0.560	0.130	-0.550	0.450
2020/01/31 14:03:06.4	0.580	0.100	-0.590	0.400
2020/01/31 14:03:06.5	0.600	0.070	-0.620	0.350
2020/01/31 14:03:06.6	0.630	0.040	-0.650	0.290
2020/01/31 14:03:06.7	0.650	0.010	-0.690	0.230
2020/01/31 14:03:06.8	0.680	-0.030	-0.720	0.170
2020/01/31 14:03:06.9	0.710	-0.060	-0.750	0.100
2020/01/31 14:03:07.0	0.730	-0.090	-0.780	0.030
2020/01/31 14:03:07.1	0.760	-0.130	-0.810	-0.050
2020/01/31 14:03:07.2	0.790	-0.160	-0.840	-0.120
2020/01/31 14:03:07.3	0.820	-0.190	-0.860	-0.210
2020/01/31 14:03:07.4	0.850	-0.230	-0.890	-0.290
2020/01/31 14:03:07.5	0.880	-0.260	-0.910	-0.370
2020/01/31 14:03:07.6	0.900	-0.290	-0.930	-0.460
2020/01/31 14:03:07.7	0.930	-0.310	-0.940	-0.550
2020/01/31 14:03:07.8	0.960	-0.340	-0.950	-0.640
2020/01/31 14:03:07.9	0.990	-0.360	-0.960	-0.730
2020/01/31 14:03:08.0	1.020	-0.380	-0.970	-0.820
2020/01/31 14:03:08.1	1.050	-0.400	-0.980	-0.910
2020/01/31 14:03:08.2	1.070	-0.420	-0.980	-1.000
2020/01/31 14:03:08.3	1.100	-0.430	-0.970	-1.080
2020/01/31 14:03:08.4	1.130	-0.440	-0.970	-1.170
2020/01/31 14:03:08.5	1.150	-0.450	-0.960	-1.250
2020/01/31 14:03:08.6	1.180	-0.450	-0.950	-1.330
2020/01/31 14:03:08.7	1.200	-0.450	-0.930	-1.410
2020/01/31 14:03:08.8	1.230	-0.450	-0.910	-1.480
2020/01/31 14:03:08.9	1.250	-0.440	-0.880	-1.550
2020/01/31 14:03:09.0	1.270	-0.430	-0.860	-1.610
2020/01/31 14:03:09.1	1.300	-0.420	-0.830	-1.670
2020/01/31 14:03:09.2	1.320	-0.410	-0.790	-1.730
2020/01/31 14:03:09.3	1.350	-0.390	-0.760	-1.780
2020/01/31 14:03:09.4	1.370	-0.370	-0.720	-1.830
2020/01/31 14:03:09.5	1.400	-0.350	-0.680	-1.870
2020/01/31 14:03:09.6	1.420	-0.320	-0.640	-1.910
2020/01/31 14:03:09.7	1.440	-0.290	-0.590	-1.940
2020/01/31 14:03:09.8	1.470	-0.270	-0.540	-1.960
2020/01/31 14:03:09.9	1.490	-0.230	-0.490	-1.980
2020/01/31 14:03:10.0	1.520	-0.200	-0.440	-1.990
2020/01/31 14:03:10.1	1.550	-0.170	-0.390	-2.000
2020/01/31 14:03:10.2	1.570	-0.130	-0.340	-2.000
2020/01/31 14:03:10.3	1.600	-0.090	-0.280	-2.000
2020/01/31 14:03:10.4	1.620	-0.060	-0.220	-1.980
2020/01/31 14:03:10.5	1.640	-0.020	-0.160	-1.960
2020/01/31 14:03:10.6	1.660	0.010	-0.110	-1.920
2020/01/31 14:03:10.7	1.670	0.050	-0.040	-1.880
2020/01/31 14:03:10.8	1.680	0.080	0.020	-1.830
2020/01/31 14:03:10.9	1.690	0.110	0.090	-1.770
2020/01/31 14:03:11.0	1.690	0.140	0.150	-1.710
2020/01/31 14:03:11.1	1.680	0.170	0.220	-1.630
2020/01/31 14:03:11.2	1.670	0.200	0.290	-1.550
2020/01/31 14:03:11.3	1.650	0.220	0.360	-1.460
2020/01/31 14:03:11.4	1.630	0.240	0.430	-1.360
2020/01/31 14:03:11.5	1.610	0.250	0.500	-1.260
2020/01/31 14:03:11.6	1.580	0.270	0.570	-1.140
2020/01/31 14:03:11.7	1.550	0.280	0.640	-1.030
2020/01/31 14:03:11.8	1.510	0.290	0.700	-0.910
2020/01/31 14:03:11.9	1.460	0.290	0.770	-0.790
2020/01/31 14:03:12.0	1.420	0.290	0.830	-0.670
2020/01/31 14:03:12.1	1.370	0.290	0.880	-0.550
2020/01/31 14:03:12.2	1.320	0.290	0.940	-0.420
2020/01/31 14:03:12.3	1.260	0.280	0.980	-0.290
2020/01/31 14:03:12.4	1.210	0.270	1.020	-0.170
2020/01/31 14:03:12.5	1.150	0.260	1.050	-0.040
2020/01/31 14:03:12.6	1.100	0.250	1.080	0.080
2020/01/31 14:03:12.7	1.040	0.240	1.090	0.200
2020/01/31 14:03:12.8	0.980	0.230	1.100	0.310
2020/01/31 14:03:12.9	0.930	0.210	1.100	0.430
2020/01/31 14:03:13.0	0.880	0.200	1.090	0.540
2020/01/31 14:03:13.1	0.830	0.190	1.070	0.640
2020/01/31 14:03:13.2	0.780	0.170	1.040	0.730
2020/01/31 14:03:13.3	0.730	0.160	0.990	0.820
2020/01/31 14:03:13.4	0.690	0.150	0.940	0.910
2020/01/31 14:03:13.5	0.640	0.140	0.880	0.980
2020/01/31 14:03:13.6	0.600	0.130	0.810	1.060
2020/01/31 14:03:13.7	0.570	0.120	0.730	1.120
2020/01/31 14:03:13.8	0.530	0.120	0.650	1.170
2020/01/31 14:03:13.9	0.500	0.110	0.550	1.210
2020/01/31 14:03:14.0	0.480	0.110	0.450	1.250
2020/01/31 14:03:14.1	0.450	0.110	0.340	1.280
2020/01/31 14:03:14.2	0.430	0.110	0.220	1.300
2020/01/31 14:03:14.3	0.410	0.120	0.100	1.300
2020/01/31 14:03:14.4	0.400	0.130	-0.030	1.310
2020/01/31 14:03:14.5	0.380	0.130	-0.160	1.300
2020/01/31 14:03:14.6	0.380	0.140	-0.290	1.280
2020/01/31 14:03:14.7	0.370	0.150	-0.420	1.260
2020/01/31 14:03:14.8	0.360	0.170	-0.560	1.230
2020/01/31 14:03:14.9	0.360	0.180	-0.690	1.190
2020/01/31 14:03:15.0	0.360	0.190	-0.820	1.140
2020/01/31 14:03:15.1	0.370	0.210	-0.950	1.090
2020/01/31 14:03:15.2	0.370	0.220	-1.070	1.040
2020/01/31 14:03:15.3	0.380	0.230	-1.190	0.970
2020/01/31 14:03:15.4	0.390	0.250	-1.300	0.900
2020/01/31 14:03:15.5	0.400	0.260	-1.410	0.830
2020/01/31 14:03:15.6	0.430	0.270	-1.520	0.740
2020/01/31 14:03:15.7	0.440	0.280	-1.610	0.660
2020/01/31 14:03:15.8	0.470	0.280	-1.690	0.570
2020/01/31 14:03:15.9	0.490	0.280	-1.770	0.480
2020/01/31 14:03:16.0	0.520	0.280	-1.840	0.380
2020/01/31 14:03:16.1	0.550	0.280	-1.890	0.280
2020/01/31 14:03:16.2	0.580	0.280	-1.940	0.170
2020/01/31 14:03:16.3	0.620	0.270	-1.970	0.070
2020/01/31 14:03:16.4	0.650	0.250	-2.000	-0.040
2020/01/31 14:03:16.5	0.690	0.240	-2.010	-0.150
2020/01/31 14:03:16.6	0.730	0.220	-2.010	-0.250
2020/01/31 14:03:16.7	0.780	0.190	-2.000	-0.360
2020/01/31 14:03:16.8	0.820	0.170	-1.980	-0.460
2020/01/31 14:03:16.9	0.870	0.140	-1.940	-0.570
2020/01/31 14:03:17.0	0.910	0.110	-1.900	-0.670
2020/01/31 14:03:17.1	0.960	0.070	-1.850	-0.770
2020/01/31 14:03:17.2	1.010	0.030	-1.780	-0.870
2020/01/31 14:03:17.3	1.060	-0.010	-1.710	-0.970
2020/01/31 14:03:17.4	1.100	-0.050	-1.630	-1.060
2020/01/31 14:03:17.5	1.150	-0.090	-1.540	-1.150
2020/01/31 14:03:17.6	1.200	-0.140	-1.440	-1.240
2020/01/31 14:03:17.7	1.250	-0.180	-1.330	-1.320
2020/01/31 14:03:17.8	1.290	-0.230	-1.220	-1.390
2020/01/31 14:03:17.9	1.340	-0.280	-1.090	-1.470
2020/01/31 14:03:18.0	1.380	-0.330	-0.970	-1.530
2020/01/31 14:03:18.1	1.420	-0.370	-0.840	-1.590
2020/01/31 14:03:18.2	1.450	-0.420	-0.710	-1.650
2020/01/31 14:03:18.3	1.480	-0.470	-0.570	-1.700
2020/01/31 14:03:18.4	1.510	-0.510	-0.430	-1.740
2020/01/31 14:03:18.5	1.530	-0.550	-0.290	-1.770
2020/01/31 14:03:18.6	1.550	-0.590	-0.150	-1.800
2020/01/31 14:03:18.7	1.570	-0.630	-0.010	-1.810
2020/01/31 14:03:18.8	1.580	-0.670	0.140	-1.820
2020/01/31 14:03:18.9	1.580	-0.700	0.280	-1.830
2020/01/31 14:03:19.0	1.580	-0.730	0.420	-1.820
2020/01/31 14:03:19.1	1.570	-0.750	0.550	-1.800
2020/01/31 14:03:19.2	1.560	-0.780	0.680	-1.780
2020/01/31 14:03:19.3	1.540	-0.800	0.810	-1.750
2020/01/31 14:03:19.4	1.520	-0.810	0.930	-1.710
2020/01/31 14:03:19.5	1.490	-0.820	1.040	-1.660
2020/01/31 14:03:19.6	1.460	-0.830	1.150	-1.610
2020/01/31 14:03:19.7	1.430	-0.830	1.240	-1.550
2020/01/31 14:03:19.8	1.390	-0.830	1.330	-1.490
2020/01/31 14:03:19.9	1.350	-0.830	1.410	-1.430
2020/01/31 14:03:20.0	1.300	-0.820	1.470	-1.360
2020/01/31 14:03:20.1	1.260	-0.800	1.520	-1.290
2020/01/31 14:03:20.2	1.210	-0.780	1.560	-1.210
2020/01/31 14:03:20.3	1.160	-0.760	1.590	-1.140
2020/01/31 14:03:20.4	1.110	-0.730	1.600	-1.060
2020/01/31 14:03:20.5	1.060	-0.700	1.600	-0.980
2020/01/31 14:03:20.6	1.010	-0.660	1.570	-0.900
2020/01/31 14:03:20.7	0.970	-0.620	1.540	-0.820
2020/01/31 14:03:20.8	0.920	-0.570	1.490	-0.750
2020/01/31 14:03:20.9	0.880	-0.520	1.430	-0.670
2020/01/31 14:03:21.0	0.830	-0.470	1.360	-0.600
2020/01/31 14:03:21.1	0.800	-0.410	1.270	-0.530
2020/01/31 14:03:21.2	0.760	-0.340	1.160	-0.460
2020/01/31 14:03:21.3	0.720	-0.280	1.050	-0.400
2020/01/31 14:03:21.4	0.690	-0.210	0.920	-0.330
2020/01/31 14:03:21.5	0.670	-0.140	0.790	-0.280
2020/01/31 14:03:21.6	0.640	-0.070	0.650	-0.220
2020/01/31 14:03:21.7	0.620	0.010	0.500	-0.170
2020/01/31 14:03:21.8	0.600	0.080	0.350	-0.120
2020/01/31 14:03:21.9	0.580	0.160	0.190	-0.070
2020/01/31 14:03:22.0	0.560	0.240	0.030	-0.020
2020/01/31 14:03:22.1	0.550	0.310	-0.130	0.020
2020/01/31 14:03:22.2	0.540	0.390	-0.290	0.060
2020/01/31 14:03:22.3	0.530	0.460	-0.450	0.100
2020/01/31 14:03:22.4	0.520	0.530	-0.600	0.140
2020/01/31 14:03:22.5	0.510	0.600	-0.750	0.170
2020/01/31 14:03:22.6	0.510	0.670	-0.890	0.210
2020/01/31 14:03:22.7	0.500	0.730	-1.020	0.240
2020/01/31 14:03:22.8	0.500	0.790	-1.140	0.270
2020/01/31 14:03:22.9	0.500	0.850	-1.240	0.300
2020/01/31 14:03:23.0	0.500	0.900	-1.340	0.330
2020/01/31 14:03:23.1	0.500	0.940	-1.420	0.360
2020/01/31 14:03:23.2	0.490	0.980	-1.490	0.380
2020/01/31 14:03:23.3	0.490	1.010	-1.540	0.410
2020/01/31 14:03:23.4	0.490	1.040	-1.580	0.430
2020/01/31 14:03:23.5	0.490	1.060	-1.600	0.460
2020/01/31 14:03:23.6	0.490	1.070	-1.610	0.480
2020/01/31 14:03:23.7	0.490	1.080	-1.600	0.500
2020/01/31 14:03:23.8	0.480	1.080	-1.590	0.530
2020/01/31 14:03:23.9	0.470	1.070	-1.560	0.550
2020/01/31 14:03:24.0	0.470	1.060	-1.520	0.570
2020/01/31 14:03:24.1	0.460	1.030	-1.460	0.580
2020/01/31 14:03:24.2	0.450	1.000	-1.400	0.600
2020/01/31 14:03:24.3	0.450	0.970	-1.330	0.610
2020/01/31 14:03:24.4	0.440	0.920	-1.250	0.620
2020/01/31 14:03:24.5	0.430	0.880	-1.170	0.630
2020/01/31 14:03:24.6	0.430	0.820	-1.080	0.640
2020/01/31 14:03:24.7	0.420	0.760	-0.980	0.640
2020/01/31 14:03:24.8	0.410	0.690	-0.880	0.640
2020/01/31 14:03:24.9	0.410	0.620	-0.780	0.630
2020/01/31 14:03:25.0	0.400	0.550	-0.670	0.620
2020/01/31 14:03:25.1	0.390	0.470	-0.570	0.600
2020/01/31 14:03:25.2	0.380	0.390	-0.460	0.580
2020/01/31 14:03:25.3	0.380	0.310	-0.360	0.560
2020/01/31 14:03:25.4	0.370	0.220	-0.260	0.530
2020/01/31 14:03:25.5	0.370	0.140	-0.160	0.500
2020/01/31 14:03:25.6	0.370	0.060	-0.080	0.460
2020/01/31 14:03:25.7	0.360	-0.030	0.010	0.410
2020/01/31 14:03:25.8	0.360	-0.110	0.100	0.370
2020/01/31 14:03:25.9	0.360	-0.190	0.170	0.310
2020/01/31 14:03:26.0	0.360	-0.270	0.250	0.260
2020/01/31 14:03:26.1	0.360	-0.350	0.310	0.200
2020/01/31 14:03:26.2	0.360	-0.420	0.370	0.140
2020/01/31 14:03:26.3	0.360	-0.490	0.420	0.080
2020/01/31 14:03:26.4	0.360	-0.550	0.470	0.020
2020/01/31 14:03:26.5	0.360	-0.610	0.500	-0.050
2020/01/31 14:03:26.6	0.350	-0.660	0.540	-0.110
2020/01/31 14:03:26.7	0.350	-0.710	0.560	-0.170
2020/01/31 14:03:26.8	0.340	-0.750	0.580	-0.230
2020/01/31 14:03:26.9	0.340	-0.780	0.590	-0.290
2020/01/31 14:03:27.0	0.340	-0.810	0.600	-0.350
2020/01/31 14:03:27.1	0.330	-0.830	0.600	-0.400
2020/01/31 14:03:27.2	0.330	-0.840	0.590	-0.450
2020/01/31 14:03:27.3	0.330	-0.850	0.580	-0.490
2020/01/31 14:03:27.4	0.330	-0.840	0.560	-0.530
2020/01/31 14:03:27.5	0.320	-0.830	0.530	-0.570
2020/01/31 14:03:27.6	0.320	-0.820	0.500	-0.620
2020/01/31 14:03:27.7	0.320	-0.800	0.460	-0.650
2020/01/31 14:03:27.8	0.320	-0.770	0.410	-0.680
2020/01/31 14:03:27.9	0.320	-0.730	0.360	-0.720
2020/01/31 14:03:28.0	0.330	-0.690	0.310	-0.750
2020/01/31 14:03:28.1	0.330	-0.640	0.250	-0.770
2020/01/31 14:03:28.2	0.340	-0.590	0.180	-0.800
2020/01/31 14:03:28.3	0.340	-0.540	0.110	-0.830
2020/01/31 14:03:28.4	0.350	-0.480	0.040	-0.850
2020/01/31 14:03:28.5	0.360	-0.420	-0.040	-0.880
2020/01/31 14:03:28.6	0.360	-0.350	-0.120	-0.900
2020/01/31 14:03:28.7	0.370	-0.290	-0.200	-0.920
2020/01/31 14:03:28.8	0.380	-0.220	-0.290	-0.940
2020/01/31 14:03:28.9	0.390	-0.150	-0.370	-0.960
2020/01/31 14:03:29.0	0.390	-0.090	-0.450	-0.970
2020/01/31 14:03:29.1	0.400	-0.020	-0.530	-0.990
2020/01/31 14:03:29.2	0.400	0.040	-0.600	-1.000
2020/01/31 14:03:29.3	0.400	0.100	-0.680	-1.010
2020/01/31 14:03:29.4	0.400	0.160	-0.740	-1.020
2020/01/31 14:03:29.5	0.410	0.220	-0.810	-1.020
2020/01/31 14:03:29.6	0.410	0.270	-0.860	-1.030
2020/01/31 14:03:29.7	0.400	0.320	-0.910	-1.030
2020/01/31 14:03:29.8	0.400	0.370	-0.960	-1.030
2020/01/31 14:03:29.9	0.400	0.410	-0.990	-1.030
2020/01/31 14:03:30.0	0.390	0.440	-1.020	-1.020
2020/01/31 14:03:30.1	0.390	0.470	-1.040	-1.010
2020/01/31 14:03:30.2	0.380	0.500	-1.050	-1.000
2020/01/31 14:03:30.3	0.380	0.520	-1.050	-0.990
2020/01/31 14:03:30.4	0.370	0.530	-1.050	-0.970
2020/01/31 14:03:30.5	0.360	0.540	-1.040	-0.960
2020/01/31 14:03:30.6	0.360	0.540	-1.020	-0.930
2020/01/31 14:03:30.7	0.350	0.540	-0.990	-0.910
2020/01/31 14:03:30.8	0.350	0.530	-0.950	-0.890
2020/01/31 14:03:30.9	0.340	0.520	-0.910	-0.860
2020/01/31 14:03:31.0	0.340	0.510	-0.860	-0.840
2020/01/31 14:03:31.1	0.340	0.490	-0.800	-0.810
2020/01/31 14:03:31.2	0.340	0.470	-0.740	-0.780
2020/01/31 14:03:31.3	0.340	0.440	-0.680	-0.750
2020/01/31 14:03:31.4	0.340	0.410	-0.610	-0.720
2020/01/31 14:03:31.5	0.340	0.380	-0.540	-0.680
2020/01/31 14:03:31.6	0.340	0.350	-0.460	-0.650
2020/01/31 14:03:31.7	0.340	0.310	-0.390	-0.610
2020/01/31 14:03:31.8	0.340	0.280	-0.310	-0.580
2020/01/31 14:03:31.9	0.330	0.240	-0.230	-0.540
2020/01/31 14:03:32.0	0.330	0.200	-0.150	-0.500
2020/01/31 14:03:32.1	0.330	0.160	-0.080	-0.460
2020/01/31 14:03:32.2	0.320	0.120	0.000	-0.420
2020/01/31 14:03:32.3	0.310	0.080	0.080	-0.390
2020/01/31 14:03:32.4	0.300	0.050	0.150	-0.350
2020/01/31 14:03:32.5	0.290	0.010	0.220	-0.320
2020/01/31 14:03:32.6	0.280	-0.030	0.280	-0.280
2020/01/31 14:03:32.7	0.270	-0.060	0.340	-0.250
2020/01/31 14:03:32.8	0.260	-0.100	0.390	-0.220
2020/01/31 14:03:32.9	0.240	-0.130	0.440	-0.190
2020/01/31 14:03:33.0	0.230	-0.160	0.480	-0.170
2020/01/31 14:03:33.1	0.220	-0.190	0.510	-0.150
2020/01/31 14:03:33.2	0.200	-0.210	0.540	-0.130
2020/01/31 14:03:33.3	0.190	-0.240	0.560	-0.120
2020/01/31 14:03:33.4	0.180	-0.260	0.570	-0.110
2020/01/31 14:03:33.5	0.160	-0.280	0.570	-0.100
2020/01/31 14:03:33.6	0.150	-0.300	0.570	-0.090
2020/01/31 14:03:33.7	0.140	-0.310	0.550	-0.090
2020/01/31 14:03:33.8	0.140	-0.320	0.530	-0.090
2020/01/31 14:03:33.9	0.130	-0.330	0.500	-0.090
2020/01/31 14:03:34.0	0.130	-0.340	0.470	-0.100
2020/01/31 14:03:34.1	0.130	-0.350	0.430	-0.110
2020/01/31 14:03:34.2	0.140	-0.350	0.380	-0.120
2020/01/31 14:03:34.3	0.140	-0.350	0.320	-0.130
2020/01/31 14:03:34.4	0.150	-0.350	0.260	-0.140
2020/01/31 14:03:34.5	0.160	-0.350	0.200	-0.150
2020/01/31 14:03:34.6	0.180	-0.340	0.130	-0.170
2020/01/31 14:03:34.7	0.200	-0.330	0.060	-0.180
2020/01/31 14:03:34.8	0.210	-0.320	-0.000	-0.190
2020/01/31 14:03:34.9	0.230	-0.310	-0.070	-0.200
2020/01/31 14:03:35.0	0.250	-0.300	-0.140	-0.210
2020/01/31 14:03:35.1	0.270	-0.290	-0.210	-0.210
2020/01/31 14:03:35.2	0.290	-0.280	-0.270	-0.220
2020/01/31 14:03:35.3	0.310	-0.270	-0.340	-0.230
2020/01/31 14:03:35.4	0.340	-0.250	-0.400	-0.240
2020/01/31 14:03:35.5	0.360	-0.240	-0.450	-0.250
2020/01/31 14:03:35.6	0.380	-0.230	-0.500	-0.250
2020/01/31 14:03:35.7	0.410	-0.210	-0.550	-0.260
2020/01/31 14:03:35.8	0.430	-0.200	-0.590	-0.270
2020/01/31 14:03:35.9	0.450	-0.180	-0.630	-0.270
2020/01/31 14:03:36.0	0.470	-0.170	-0.660	-0.280
2020/01/31 14:03:36.1	0.490	-0.160	-0.680	-0.280
2020/01/31 14:03:36.2	0.520	-0.140	-0.700	-0.290
2020/01/31 14:03:36.3	0.540	-0.130	-0.710	-0.290
2020/01/31 14:03:36.4	0.560	-0.120	-0.720	-0.290
2020/01/31 14:03:36.5	0.580	-0.100	-0.710	-0.290
2020/01/31 14:03:36.6	0.600	-0.090	-0.710	-0.290
2020/01/31 14:03:36.7	0.610	-0.080	-0.700	-0.290
2020/01/31 14:03:36.8	0.630	-0.060	-0.680	-0.280
2020/01/31 14:03:36.9	0.640	-0.050	-0.660	-0.280
2020/01/31 14:03:37.0	0.650	-0.040	-0.630	-0.270
2020/01/31 14:03:37.1	0.660	-0.030	-0.590	-0.250
2020/01/31 14:03:37.2	0.670	-0.020	-0.550	-0.230
2020/01/31 14:03:37.3	0.670	-0.010	-0.510	-0.210
2020/01/31 14:03:37.4	0.670	-0.010	-0.460	-0.180
2020/01/31 14:03:37.5	0.660	0.000	-0.410	-0.150
2020/01/31 14:03:37.6	0.660	0.010	-0.360	-0.110
2020/01/31 14:03:37.7	0.640	0.010	-0.310	-0.080
2020/01/31 14:03:37.8	0.620	0.020	-0.250	-0.040
2020/01/31 14:03:37.9	0.600	0.020	-0.190	-0.000
2020/01/31 14:03:38.0	0.570	0.020	-0.140	0.040
2020/01/31 14:03:38.1	0.550	0.020	-0.080	0.080
2020/01/31 14:03:38.2	0.520	0.020	-0.030	0.120
2020/01/31 14:03:38.3	0.480	0.020	0.020	0.160
2020/01/31 14:03:38.4	0.450	0.020	0.070	0.200
2020/01/31 14:03:38.5	0.420	0.020	0.110	0.230
2020/01/31 14:03:38.6	0.390	0.020	0.150	0.270
2020/01/31 14:03:38.7	0.360	0.020	0.180	0.300
2020/01/31 14:03:38.8	0.330	0.020	0.210	0.330
2020/01/31 14:03:38.9	0.300	0.030	0.230	0.350
2020/01/31 14:03:39.0	0.270	0.030	0.250	0.370
2020/01/31 14:03:39.1	0.240	0.030	0.250	0.390
2020/01/31 14:03:39.2	0.210	0.040	0.260	0.400
2020/01/31 14:03:39.3	0.190	0.040	0.250	0.410
2020/01/31 14:03:39.4	0.170	0.050	0.240	0.410
2020/01/31 14:03:39.5	0.150	0.060	0.220	0.420
2020/01/31 14:03:39.6	0.140	0.070	0.190	0.410
2020/01/31 14:03:39.7	0.140	0.090	0.150	0.400
2020/01/31 14:03:39.8	0.130	0.100	0.110	0.390
2020/01/31 14:03:39.9	0.130	0.120	0.060	0.380
2020/01/31 14:03:40.0	0.130	0.150	0.010	0.360
2020/01/31 14:03:40.1	0.130	0.170	-0.040	0.340
2020/01/31 14:03:40.2	0.140	0.190	-0.100	0.310
2020/01/31 14:03:40.3	0.150	0.220	-0.170	0.290
2020/01/31 14:03:40.4	0.160	0.250	-0.230	0.260
2020/01/31 14:03:40.5	0.180	0.280	-0.300	0.230
2020/01/31 14:03:40.6	0.190	0.300	-0.360	0.210
2020/01/31 14:03:40.7	0.200	0.330	-0.420	0.180
2020/01/31 14:03:40.8	0.220	0.360	-0.490	0.150
2020/01/31 14:03:40.9	0.230	0.390	-0.540	0.120
2020/01/31 14:03:41.0	0.240	0.420	-0.600	0.090
2020/01/31 14:03:41.1	0.260	0.450	-0.650	0.060
2020/01/31 14:03:41.2	0.270	0.480	-0.700	0.030
2020/01/31 14:03:41.3	0.280	0.500	-0.740	-0.000
2020/01/31 14:03:41.4	0.290	0.530	-0.780	-0.030
2020/01/31 14:03:41.5	0.310	0.550	-0.810	-0.060
2020/01/31 14:03:41.6	0.310	0.570	-0.830	-0.090
2020/01/31 14:03:41.7	0.320	0.590	-0.850	-0.120
2020/01/31 14:03:41.8	0.330	0.600	-0.870	-0.150
2020/01/31 14:03:41.9	0.340	0.620	-0.880	-0.180
2020/01/31 14:03:42.0	0.350	0.630	-0.880	-0.210
2020/01/31 14:03:42.1	0.360	0.630	-0.880	-0.240
2020/01/31 14:03:42.2	0.370	0.640	-0.870	-0.260
2020/01/31 14:03:42.3	0.370	0.640	-0.860	-0.290
2020/01/31 14:03:42.4	0.380	0.640	-0.850	-0.310
2020/01/31 14:03:42.5	0.390	0.630	-0.830	-0.340
2020/01/31 14:03:42.6	0.400	0.630	-0.810	-0.360
2020/01/31 14:03:42.7	0.410	0.620	-0.790	-0.390
2020/01/31 14:03:42.8	0.420	0.610	-0.760	-0.410
2020/01/31 14:03:42.9	0.440	0.590	-0.730	-0.440
2020/01/31 14:03:43.0	0.450	0.570	-0.700	-0.460
2020/01/31 14:03:43.1	0.470	0.550	-0.670	-0.480
2020/01/31 14:03:43.2	0.480	0.530	-0.630	-0.500
2020/01/31 14:03:43.3	0.500	0.510	-0.600	-0.520
2020/01/31 14:03:43.4	0.510	0.480	-0.560	-0.540
2020/01/31 14:03:43.5	0.530	0.450	-0.530	-0.560
2020/01/31 14:03:43.6	0.550	0.420	-0.490	-0.570
2020/01/31 14:03:43.7	0.560	0.390	-0.460	-0.590
2020/01/31 14:03:43.8	0.580	0.350	-0.420	-0.610
2020/01/31 14:03:43.9	0.590	0.310	-0.380	-0.630
2020/01/31 14:03:44.0	0.610	0.270	-0.340	-0.650
2020/01/31 14:03:44.1	0.620	0.230	-0.310	-0.660
2020/01/31 14:03:44.2	0.630	0.180	-0.270	-0.680
2020/01/31 14:03:44.3	0.640	0.140	-0.230	-0.700
2020/01/31 14:03:44.4	0.650	0.090	-0.190	-0.710
2020/01/31 14:03:44.5	0.660	0.040	-0.150	-0.730
2020/01/31 14:03:44.6	0.670	-0.010	-0.120	-0.740
2020/01/31 14:03:44.7	0.670	-0.070	-0.080	-0.760
2020/01/31 14:03:44.8	0.680	-0.120	-0.040	-0.780
2020/01/31 14:03:44.9	0.690	-0.170	-0.000	-0.790
2020/01/31 14:03:45.0	0.690	-0.230	0.030	-0.810
2020/01/31 14:03:45.1	0.690	-0.290	0.070	-0.830
2020/01/31 14:03:45.2	0.690	-0.340	0.110	-0.850
2020/01/31 14:03:45.3	0.700	-0.400	0.140	-0.870
2020/01/31 14:03:45.4	0.700	-0.460	0.180	-0.890
2020/01/31 14:03:45.5	0.690	-0.510	0.210	-0.910
2020/01/31 14:03:45.6	0.690	-0.570	0.250	-0.920
2020/01/31 14:03:45.7	0.690	-0.630	0.280	-0.940
2020/01/31 14:03:45.8	0.680	-0.680	0.310	-0.950
2020/01/31 14:03:45.9	0.670	-0.730	0.350	-0.970
2020/01/31 14:03:46.0	0.660	-0.780	0.380	-0.980
2020/01/31 14:03:46.1	0.650	-0.830	0.400	-0.990
2020/01/31 14:03:46.2	0.640	-0.870	0.430	-1.000
2020/01/31 14:03:46.3	0.630	-0.910	0.450	-1.010
2020/01/31 14:03:46.4	0.620	-0.950	0.470	-1.010
2020/01/31 14:03:46.5	0.600	-0.980	0.490	-1.010
2020/01/31 14:03:46.6	0.590	-1.010	0.500	-1.010
2020/01/31 14:03:46.7	0.570	-1.040	0.500	-1.010
2020/01/31 14:03:46.8	0.560	-1.060	0.510	-1.010
2020/01/31 14:03:46.9	0.550	-1.070	0.500	-1.010
2020/01/31 14:03:47.0	0.540	-1.080	0.490	-1.010
2020/01/31 14:03:47.1	0.540	-1.090	0.480	-1.000
2020/01/31 14:03:47.2	0.530	-1.080	0.460	-1.000
2020/01/31 14:03:47.3	0.530	-1.070	0.430	-1.000
2020/01/31 14:03:47.4	0.530	-1.060	0.400	-1.000
2020/01/31 14:03:47.5	0.530	-1.040	0.360	-1.000
2020/01/31 14:03:47.6	0.530	-1.010	0.320	-0.990
2020/01/31 14:03:47.7	0.540	-0.970	0.270	-0.990
2020/01/31 14:03:47.8	0.550	-0.930	0.210	-0.990
2020/01/31 14:03:47.9	0.560	-0.880	0.150	-0.990
2020/01/31 14:03:48.0	0.580	-0.820	0.080	-1.000
2020/01/31 14:03:48.1	0.600	-0.760	0.010	-0.990
2020/01/31 14:03:48.2	0.620	-0.700	-0.060	-0.990
2020/01/31 14:03:48.3	0.640	-0.630	-0.140	-0.990
2020/01/31 14:03:48.4	0.650	-0.550	-0.210	-0.980
2020/01/31 14:03:48.5	0.670	-0.470	-0.290	-0.970
2020/01/31 14:03:48.6	0.700	-0.380	-0.360	-0.960
2020/01/31 14:03:48.7	0.710	-0.300	-0.430	-0.940
2020/01/31 14:03:48.8	0.730	-0.210	-0.500	-0.910
2020/01/31 14:03:48.9	0.740	-0.120	-0.560	-0.880
2020/01/31 14:03:49.0	0.760	-0.030	-0.620	-0.850
2020/01/31 14:03:49.1	0.760	0.060	-0.670	-0.810
2020/01/31 14:03:49.2	0.770	0.150	-0.710	-0.760
2020/01/31 14:03:49.3	0.770	0.240	-0.750	-0.710
2020/01/31 14:03:49.4	0.770	0.320	-0.780	-0.660
2020/01/31 14:03:49.5	0.770	0.400	-0.800	-0.590
2020/01/31 14:03:49.6	0.760	0.480	-0.820	-0.520
2020/01/31 14:03:49.7	0.750	0.560	-0.820	-0.440
2020/01/31 14:03:49.8	0.730	0.620	-0.820	-0.360
2020/01/31 14:03:49.9	0.720	0.690	-0.810	-0.280
2020/01/31 14:03:50.0	0.700	0.740	-0.790	-0.190
2020/01/31 14:03:50.1	0.670	0.790	-0.760	-0.100
2020/01/31 14:03:50.2	0.650	0.840	-0.730	0.000
2020/01/31 14:03:50.3	0.620	0.880	-0.690	0.100
2020/01/31 14:03:50.4	0.590	0.910	-0.650	0.200
2020/01/31 14:03:50.5	0.550	0.930	-0.610	0.300
2020/01/31 14:03:50.6	0.520	0.940	-0.560	0.410
2020/01/31 14:03:50.7	0.490	0.950	-0.500	0.510
2020/01/31 14:03:50.8	0.450	0.950	-0.450	0.600
2020/01/31 14:03:50.9	0.420	0.950	-0.390	0.700
2020/01/31 14:03:51.0	0.380	0.940	-0.330	0.790
2020/01/31 14:03:51.1	0.340	0.920	-0.280	0.880
2020/01/31 14:03:51.2	0.310	0.900	-0.220	0.960
2020/01/31 14:03:51.3	0.270	0.870	-0.170	1.040
2020/01/31 14:03:51.4	0.240	0.830	-0.110	1.110
2020/01/31 14:03:51.5	0.210	0.790	-0.060	1.180
2020/01/31 14:03:51.6	0.180	0.750	-0.020	1.240
2020/01/31 14:03:51.7	0.150	0.700	0.020	1.290
2020/01/31 14:03:51.8	0.120	0.660	0.060	1.330
2020/01/31 14:03:51.9	0.090	0.600	0.090	1.360
2020/01/31 14:03:52.0	0.070	0.550	0.120	1.390
2020/01/31 14:03:52.1	0.050	0.500	0.140	1.400
2020/01/31 14:03:52.2	0.030	0.450	0.160	1.410
2020/01/31 14:03:52.3	0.020	0.390	0.170	1.400
2020/01/31 14:03:52.4	0.010	0.340	0.180	1.390
2020/01/31 14:03:52.5	0.000	0.290	0.180	1.380
2020/01/31 14:03:52.6	0.000	0.240	0.180	1.350
2020/01/31 14:03:52.7	359.990	0.190	0.180	1.320
2020/01/31 14:03:52.8	359.990	0.140	0.170	1.280
2020/01/31 14:03:52.9	359.990	0.100	0.150	1.240
2020/01/31 14:03:53.0	359.990	0.060	0.130	1.190
2020/01/31 14:03:53.1	359.990	0.020	0.100	1.140
2020/01/31 14:03:53.2	0.000	-0.010	0.080	1.080
2020/01/31 14:03:53.3	0.010	-0.040	0.050	1.020
2020/01/31 14:03:53.4	0.010	-0.070	0.010	0.950
2020/01/31 14:03:53.5	0.030	-0.100	-0.030	0.880
2020/01/31 14:03:53.6	0.040	-0.120	-0.070	0.810
2020/01/31 14:03:53.7	0.060	-0.140	-0.110	0.730
2020/01/31 14:03:53.8	0.080	-0.160	-0.160	0.640
2020/01/31 14:03:53.9	0.100	-0.180	-0.210	0.550
2020/01/31 14:03:54.0	0.120	-0.190	-0.260	0.450
2020/01/31 14:03:54.1	0.140	-0.200	-0.310	0.360
2020/01/31 14:03:54.2	0.170	-0.210	-0.360	0.250
2020/01/31 14:03:54.3	0.200	-0.210	-0.410	0.140
2020/01/31 14:03:54.4	0.230	-0.220	-0.470	0.030
2020/01/31 14:03:54.5	0.260	-0.220	-0.520	-0.080
2020/01/31 14:03:54.6	0.300	-0.220	-0.570	-0.200
2020/01/31 14:03:54.7	0.340	-0.220	-0.620	-0.320
2020/01/31 14:03:54.8	0.380	-0.220	-0.670	-0.440
2020/01/31 14:03:54.9	0.420	-0.220	-0.720	-0.570
2020/01/31 14:03:55.0	0.460	-0.220	-0.760	-0.690
2020/01/31 14:03:55.1	0.500	-0.220	-0.800	-0.810
2020/01/31 14:03:55.2	0.540	-0.210	-0.840	-0.930
2020/01/31 14:03:55.3	0.570	-0.210	-0.870	-1.040
2020/01/31 14:03:55.4	0.610	-0.210	-0.900	-1.150
2020/01/31 14:03:55.5	0.650	-0.210	-0.920	-1.260
2020/01/31 14:03:55.6	0.670	-0.200	-0.940	-1.360
2020/01/31 14:03:55.7	0.710	-0.200	-0.950	-1.450
2020/01/31 14:03:55.8	0.740	-0.200	-0.960	-1.530
2020/01/31 14:03:55.9	0.760	-0.200	-0.960	-1.610
2020/01/31 14:03:56.0	0.790	-0.190	-0.950	-1.680
2020/01/31 14:03:56.1	0.810	-0.190	-0.940	-1.740
2020/01/31 14:03:56.2	0.830	-0.190	-0.930	-1.790
2020/01/31 14:03:56.3	0.840	-0.190	-0.900	-1.840
2020/01/31 14:03:56.4	0.860	-0.190	-0.880	-1.880
2020/01/31 14:03:56.5	0.870	-0.190	-0.840	-1.910
2020/01/31 14:03:56.6	0.880	-0.190	-0.810	-1.930
2020/01/31 14:03:56.7	0.890	-0.190	-0.770	-1.940
2020/01/31 14:03:56.8	0.900	-0.190	-0.730	-1.960
2020/01/31 14:03:56.9	0.900	-0.190	-0.680	-1.960
2020/01/31 14:03:57.0	0.900	-0.190	-0.630	-1.970
2020/01/31 14:03:57.1	0.910	-0.190	-0.580	-1.960
2020/01/31 14:03:57.2	0.910	-0.190	-0.530	-1.960
2020/01/31 14:03:57.3	0.910	-0.190	-0.480	-1.950
2020/01/31 14:03:57.4	0.910	-0.180	-0.430	-1.930
2020/01/31 14:03:57.5	0.910	-0.180	-0.370	-1.910
2020/01/31 14:03:57.6	0.900	-0.170	-0.320	-1.880
2020/01/31 14:03:57.7	0.900	-0.170	-0.270	-1.850
2020/01/31 14:03:57.8	0.900	-0.160	-0.220	-1.820
2020/01/31 14:03:57.9	0.900	-0.150	-0.170	-1.780
2020/01/31 14:03:58.0	0.890	-0.140	-0.120	-1.730
2020/01/31 14:03:58.1	0.890	-0.130	-0.080	-1.680
2020/01/31 14:03:58.2	0.890	-0.110	-0.030	-1.630
2020/01/31 14:03:58.3	0.880	-0.100	0.010	-1.570
2020/01/31 14:03:58.4	0.880	-0.080	0.050	-1.510
2020/01/31 14:03:58.5	0.880	-0.070	0.080	-1.440
2020/01/31 14:03:58.6	0.870	-0.050	0.110	-1.360
2020/01/31 14:03:58.7	0.870	-0.030	0.140	-1.280
2020/01/31 14:03:58.8	0.870	-0.010	0.170	-1.200
2020/01/31 14:03:58.9	0.870	0.000	0.200	-1.120
2020/01/31 14:03:59.0	0.870	0.020	0.220	-1.040
2020/01/31 14:03:59.1	0.870	0.040	0.240	-0.950
2020/01/31 14:03:59.2	0.870	0.060	0.260	-0.860
2020/01/31 14:03:59.3	0.870	0.080	0.270	-0.770
2020/01/31 14:03:59.4	0.870	0.090	0.280	-0.680
2020/01/31 14:03:59.5	0.870	0.110	0.290	-0.590
2020/01/31 14:03:59.6	0.870	0.120	0.300	-0.490
2020/01/31 14:03:59.7	0.870	0.130	0.300	-0.390
2020/01/31 14:03:59.8	0.870	0.140	0.310	-0.300
2020/01/31 14:03:59.9	0.870	0.150	0.310	-0.210
2020/01/31 14:04:00.0	0.870	0.160	0.310	-0.120
2020/01/31 14:04:00.1	0.870	0.160	0.300	-0.030
2020/01/31 14:04:00.2	0.860	0.160	0.300	0.050
2020/01/31 14:04:00.3	0.860	0.160	0.290	0.140
2020/01/31 14:04:00.4	0.860	0.160	0.290	0.220
2020/01/31 14:04:00.5	0.860	0.160	0.280	0.300
2020/01/31 14:04:00.6	0.860	0.150	0.270	0.380
2020/01/31 14:04:00.7	0.860	0.140	0.250	0.450
2020/01/31 14:04:00.8	0.850	0.140	0.240	0.520
2020/01/31 14:04:00.9	0.850	0.120	0.230	0.590
2020/01/31 14:04:01.0	0.840	0.110	0.210	0.650
2020/01/31 14:04:01.1	0.840	0.100	0.200	0.710
2020/01/31 14:04:01.2	0.830	0.080	0.180	0.760
2020/01/31 14:04:01.3	0.830	0.070	0.160	0.810
2020/01/31 14:04:01.4	0.820	0.050	0.150	0.860
2020/01/31 14:04:01.5	0.810	0.030	0.130	0.900
2020/01/31 14:04:01.6	0.810	0.020	0.110	0.940
2020/01/31 14:04:01.7	0.800	-0.000	0.090	0.970
2020/01/31 14:04:01.8	0.790	-0.020	0.070	1.000
2020/01/31 14:04:01.9	0.780	-0.040	0.050	1.030
2020/01/31 14:04:02.0	0.770	-0.050	0.030	1.050
2020/01/31 14:04:02.1	0.760	-0.070	0.010	1.070
2020/01/31 14:04:02.2	0.750	-0.090	-0.000	1.080
2020/01/31 14:04:02.3	0.740	-0.100	-0.020	1.090
2020/01/31 14:04:02.4	0.720	-0.110	-0.040	1.100
2020/01/31 14:04:02.5	0.710	-0.120	-0.060	1.100
2020/01/31 14:04:02.6	0.690	-0.130	-0.080	1.100
2020/01/31 14:04:02.7	0.670	-0.140	-0.090	1.100
2020/01/31 14:04:02.8	0.650	-0.150	-0.110	1.090
2020/01/31 14:04:02.9	0.630	-0.150	-0.130	1.080
2020/01/31 14:04:03.0	0.610	-0.150	-0.150	1.070
2020/01/31 14:04:03.1	0.590	-0.150	-0.160	1.050
2020/01/31 14:04:03.2	0.560	-0.150	-0.180	1.030
2020/01/31 14:04:03.3	0.540	-0.150	-0.200	1.010
2020/01/31 14:04:03.4	0.520	-0.140	-0.210	0.980
2020/01/31 14:04:03.5	0.500	-0.130	-0.230	0.950
2020/01/31 14:04:03.6	0.500	-0.120	-0.250	0.910
2020/01/31 14:04:03.7	0.480	-0.110	-0.270	0.870
2020/01/31 14:04:03.8	0.460	-0.100	-0.280	0.830
2020/01/31 14:04:03.9	0.440	-0.080	-0.300	0.790
2020/01/31 14:04:04.0	0.430	-0.070	-0.320	0.750
2020/01/31 14:04:04.1	0.410	-0.050	-0.340	0.700
2020/01/31 14:04:04.2	0.400	-0.030	-0.360	0.650
2020/01/31 14:04:04.3	0.390	-0.010	-0.370	0.600
2020/01/31 14:04:04.4	0.380	0.010	-0.400	0.550
2020/01/31 14:04:04.5	0.380	0.040	-0.420	0.490
2020/01/31 14:04:04.6	0.380	0.060	-0.440	0.430
2020/01/31 14:04:04.7	0.370	0.080	-0.460	0.380
2020/01/31 14:04:04.8	0.370	0.100	-0.490	0.320
2020/01/31 14:04:04.9	0.370	0.120	-0.510	0.260
2020/01/31 14:04:05.0	0.380	0.140	-0.530	0.200
2020/01/31 14:04:05.1	0.380	0.160	-0.560	0.130
2020/01/31 14:04:05.2	0.390	0.180	-0.580	0.070
2020/01/31 14:04:05.3	0.400	0.200	-0.600	0.010
2020/01/31 14:04:05.4	0.410	0.210	-0.630	-0.050
2020/01/31 14:04:05.5	0.420	0.230	-0.650	-0.110
2020/01/31 14:04:05.6	0.440	0.240	-0.680	-0.180
2020/01/31 14:04:05.7	0.460	0.250	-0.700	-0.240
2020/01/31 14:04:05.8	0.480	0.260	-0.720	-0.300
2020/01/31 14:04:05.9	0.500	0.270	-0.740	-0.360
2020/01/31 14:04:06.0	0.530	0.280	-0.760	-0.410
2020/01/31 14:04:06.1	0.550	0.280	-0.780	-0.470
2020/01/31 14:04:06.2	0.580	0.280	-0.800	-0.530
2020/01/31 14:04:06.3	0.610	0.280	-0.810	-0.580
2020/01/31 14:04:06.4	0.640	0.280	-0.820	-0.640
2020/01/31 14:04:06.5	0.670	0.280	-0.830	-0.690
2020/01/31 14:04:06.6	0.710	0.270	-0.830	-0.740
2020/01/31 14:04:06.7	0.740	0.270	-0.830	-0.780
2020/01/31 14:04:06.8	0.770	0.260	-0.830	-0.830
2020/01/31 14:04:06.9	0.800	0.250	-0.820	-0.870
2020/01/31 14:04:07.0	0.830	0.230	-0.810	-0.900
2020/01/31 14:04:07.1	0.860	0.220	-0.800	-0.940
2020/01/31 14:04:07.2	0.880	0.200	-0.780	-0.970
2020/01/31 14:04:07.3	0.910	0.180	-0.750	-0.990
2020/01/31 14:04:07.4	0.930	0.170	-0.720	-1.010
2020/01/31 14:04:07.5	0.940	0.140	-0.690	-1.030
2020/01/31 14:04:07.6	0.960	0.120	-0.650	-1.040
2020/01/31 14:04:07.7	0.970	0.100	-0.610	-1.040
2020/01/31 14:04:07.8	0.980	0.080	-0.560	-1.050
2020/01/31 14:04:07.9	0.990	0.060	-0.510	-1.040
2020/01/31 14:04:08.0	0.990	0.030	-0.460	-1.040
2020/01/31 14:04:08.1	1.000	0.010	-0.410	-1.030
2020/01/31 14:04:08.2	1.000	-0.010	-0.360	-1.020
2020/01/31 14:04:08.3	1.000	-0.030	-0.300	-1.000
2020/01/31 14:04:08.4	1.000	-0.060	-0.250	-0.980
2020/01/31 14:04:08.5	1.000	-0.080	-0.200	-0.970
2020/01/31 14:04:08.6	0.990	-0.100	-0.150	-0.940
2020/01/31 14:04:08.7	1.000	-0.120	-0.100	-0.920
2020/01/31 14:04:08.8	1.000	-0.140	-0.060	-0.900
2020/01/31 14:04:08.9	1.000	-0.150	-0.020	-0.890
2020/01/31 14:04:09.0	1.010	-0.170	0.020	-0.870
2020/01/31 14:04:09.1	1.020	-0.180	0.050	-0.850
2020/01/31 14:04:09.2	1.030	-0.190	0.080	-0.840
2020/01/31 14:04:09.3	1.040	-0.200	0.100	-0.830
2020/01/31 14:04:09.4	1.050	-0.210	0.120	-0.810
2020/01/31 14:04:09.5	1.060	-0.210	0.130	-0.800
2020/01/31 14:04:09.6	1.080	-0.210	0.150	-0.790
2020/01/31 14:04:09.7	1.090	-0.220	0.150	-0.780
2020/01/31 14:04:09.8	1.110	-0.210	0.150	-0.770
2020/01/31 14:04:09.9	1.120	-0.210	0.150	-0.750
2020/01/31 14:04:10.0	1.140	-0.210	0.140	-0.740
2020/01/31 14:04:10.1	1.150	-0.200	0.130	-0.730
2020/01/31 14:04:10.2	1.170	-0.190	0.120	-0.720
2020/01/31 14:04:10.3	1.180	-0.190	0.110	-0.710
2020/01/31 14:04:10.4	1.200	-0.180	0.090	-0.700
2020/01/31 14:04:10.5	1.210	-0.170	0.070	-0.690
2020/01/31 14:04:10.6	1.210	-0.160	0.050	-0.670
2020/01/31 14:04:10.7	1.220	-0.150	0.030	-0.660
2020/01/31 14:04:10.8	1.230	-0.130	0.010	-0.650
2020/01/31 14:04:10.9	1.230	-0.120	-0.010	-0.630
2020/01/31 14:04:11.0	1.230	-0.110	-0.030	-0.620
2020/01/31 14:04:11.1	1.230	-0.100	-0.040	-0.600
2020/01/31 14:04:11.2	1.220	-0.090	-0.060	-0.580
2020/01/31 14:04:11.3	1.210	-0.080	-0.070	-0.560
2020/01/31 14:04:11.4	1.200	-0.070	-0.080	-0.530
2020/01/31 14:04:11.5	1.180	-0.060	-0.090	-0.510
2020/01/31 14:04:11.6	1.160	-0.050	-0.090	-0.480
2020/01/31 14:04:11.7	1.140	-0.040	-0.100	-0.450
2020/01/31 14:04:11.8	1.120	-0.040	-0.090	-0.410
2020/01/31 14:04:11.9	1.090	-0.030	-0.090	-0.380
2020/01/31 14:04:12.0	1.070	-0.030	-0.080	-0.340
2020/01/31 14:04:12.1	1.040	-0.030	-0.070	-0.300
2020/01/31 14:04:12.2	1.010	-0.020	-0.060	-0.260
2020/01/31 14:04:12.3	0.980	-0.020	-0.050	-0.220
2020/01/31 14:04:12.4	0.960	-0.020	-0.040	-0.180
2020/01/31 14:04:12.5	0.930	-0.020	-0.030	-0.140
2020/01/31 14:04:12.6	0.910	-0.020	-0.020	-0.100
2020/01/31 14:04:12.7	0.880	-0.020	-0.010	-0.060
2020/01/31 14:04:12.8	0.860	-0.020	0.000	-0.020
2020/01/31 14:04:12.9	0.840	-0.030	0.010	0.010
2020/01/31 14:04:13.0	0.820	-0.030	0.010	0.040
2020/01/31 14:04:13.1	0.800	-0.030	0.020	0.070
2020/01/31 14:04:13.2	0.780	-0.030	0.010	0.090
2020/01/31 14:04:13.3	0.760	-0.030	0.010	0.120
2020/01/31 14:04:13.4	0.740	-0.030	0.000	0.130
2020/01/31 14:04:13.5	0.730	-0.030	-0.010	0.150
2020/01/31 14:04:13.6	0.720	-0.030	-0.020	0.170
2020/01/31 14:04:13.7	0.710	-0.030	-0.040	0.180
2020/01/31 14:04:13.8	0.690	-0.030	-0.060	0.190
2020/01/31 14:04:13.9	0.680	-0.030	-0.080	0.200
2020/01/31 14:04:14.0	0.660	-0.030	-0.100	0.200
2020/01/31 14:04:14.1	0.650	-0.030	-0.120	0.200
2020/01/31 14:04:14.2	0.630	-0.020	-0.150	0.200
2020/01/31 14:04:14.3	0.620	-0.020	-0.180	0.200
2020/01/31 14:04:14.4	0.600	-0.020	-0.210	0.200
2020/01/31 14:04:14.5	0.590	-0.010	-0.240	0.190
2020/01/31 14:04:14.6	0.590	-0.010	-0.270	0.190
2020/01/31 14:04:14.7	0.570	-0.000	-0.300	0.180
2020/01/31 14:04:14.8	0.560	0.010	-0.320	0.180
2020/01/31 14:04:14.9	0.550	0.010	-0.350	0.170
2020/01/31 14:04:15.0	0.540	0.020	-0.380	0.160
2020/01/31 14:04:15.1	0.540	0.020	-0.400	0.150
2020/01/31 14:04:15.2	0.530	0.030	-0.420	0.140
2020/01/31 14:04:15.3	0.530	0.040	-0.440	0.130
2020/01/31 14:04:15.4	0.530	0.040	-0.460	0.120
2020/01/31 14:04:15.5	0.530	0.050	-0.470	0.100
2020/01/31 14:04:15.6	0.540	0.060	-0.490	0.090
2020/01/31 14:04:15.7	0.550	0.060	-0.500	0.080
2020/01/31 14:04:15.8	0.560	0.070	-0.500	0.070
2020/01/31 14:04:15.9	0.570	0.070	-0.510	0.050
2020/01/31 14:04:16.0	0.590	0.080	-0.510	0.040
2020/01/31 14:04:16.1	0.600	0.080	-0.510	0.020
2020/01/31 14:04:16.2	0.620	0.090	-0.500	0.010
2020/01/31 14:04:16.3	0.640	0.090	-0.500	-0.010
2020/01/31 14:04:16.4	0.660	0.090	-0.490	-0.020
2020/01/31 14:04:16.5	0.690	0.090	-0.480	-0.030
2020/01/31 14:04:16.6	0.710	0.090	-0.470	-0.050
2020/01/31 14:04:16.7	0.730	0.090	-0.450	-0.060
2020/01/31 14:04:16.8	0.760	0.090	-0.430	-0.070
2020/01/31 14:04:16.9	0.780	0.090	-0.410	-0.070
2020/01/31 14:04:17.0	0.800	0.080	-0.390	-0.080
2020/01/31 14:04:17.1	0.830	0.080	-0.370	-0.080
2020/01/31 14:04:17.2	0.850	0.070	-0.340	-0.090
2020/01/31 14:04:17.3	0.870	0.060	-0.310	-0.090
2020/01/31 14:04:17.4	0.890	0.050	-0.290	-0.090
2020/01/31 14:04:17.5	0.910	0.040	-0.260	-0.090
2020/01/31 14:04:17.6	0.930	0.030	-0.240	-0.090
2020/01/31 14:04:17.7	0.950	0.010	-0.210	-0.090
2020/01/31 14:04:17.8	0.960	-0.000	-0.190	-0.090
2020/01/31 14:04:17.9	0.980	-0.020	-0.160	-0.090
2020/01/31 14:04:18.0	0.990	-0.030	-0.140	-0.080
2020/01/31 14:04:18.1	1.010	-0.050	-0.120	-0.080
2020/01/31 14:04:18.2	1.020	-0.060	-0.100	-0.080
2020/01/31 14:04:18.3	1.030	-0.080	-0.090	-0.080
2020/01/31 14:04:18.4	1.040	-0.090	-0.080	-0.080
2020/01/31 14:04:18.5	1.040	-0.110	-0.070	-0.080
2020/01/31 14:04:18.6	1.050	-0.120	-0.060	-0.080
2020/01/31 14:04:18.7	1.050	-0.140	-0.060	-0.080
2020/01/31 14:04:18.8	1.050	-0.150	-0.050	-0.080
2020/01/31 14:04:18.9	1.050	-0.160	-0.050	-0.070
2020/01/31 14:04:19.0	1.040	-0.180	-0.050	-0.070
2020/01/31 14:04:19.1	1.030	-0.190	-0.050	-0.070
2020/01/31 14:04:19.2	1.010	-0.200	-0.060	-0.060
2020/01/31 14:04:19.3	1.000	-0.210	-0.060	-0.060
2020/01/31 14:04:19.4	0.980	-0.220	-0.070	-0.050
2020/01/31 14:04:19.5	0.960	-0.230	-0.080	-0.050
2020/01/31 14:04:19.6	0.940	-0.240	-0.090	-0.050
2020/01/31 14:04:19.7	0.910	-0.250	-0.100	-0.050
2020/01/31 14:04:19.8	0.890	-0.250	-0.110	-0.050
2020/01/31 14:04:19.9	0.860	-0.260	-0.130	-0.050
2020/01/31 14:04:20.0	0.840	-0.260	-0.150	-0.060
2020/01/31 14:04:20.1	0.810	-0.260	-0.160	-0.070
2020/01/31 14:04:20.2	0.790	-0.260	-0.180	-0.080
2020/01/31 14:04:20.3	0.770	-0.260	-0.200	-0.090
2020/01/31 14:04:20.4	0.750	-0.260	-0.230	-0.100
2020/01/31 14:04:20.5	0.730	-0.250	-0.250	-0.120
2020/01/31 14:04:20.6	0.700	-0.240	-0.270	-0.130
2020/01/31 14:04:20.7	0.680	-0.230	-0.300	-0.150
2020/01/31 14:04:20.8	0.670	-0.220	-0.320	-0.170
2020/01/31 14:04:20.9	0.650	-0.210	-0.350	-0.200
2020/01/31 14:04:21.0	0.640	-0.200	-0.370	-0.220
2020/01/31 14:04:21.1	0.640	-0.180	-0.400	-0.250
2020/01/31 14:04:21.2	0.630	-0.160	-0.420	-0.280
2020/01/31 14:04:21.3	0.630	-0.140	-0.450	-0.310
2020/01/31 14:04:21.4	0.630	-0.120	-0.470	-0.340
2020/01/31 14:04:21.5	0.630	-0.090	-0.500	-0.370
2020/01/31 14:04:21.6	0.640	-0.070	-0.520	-0.410
2020/01/31 14:04:21.7	0.650	-0.040	-0.540	-0.440
2020/01/31 14:04:21.8	0.660	-0.020	-0.560	-0.480
2020/01/31 14:04:21.9	0.680	0.010	-0.580	-0.520
2020/01/31 14:04:22.0	0.690	0.040	-0.600	-0.550
2020/01/31 14:04:22.1	0.710	0.070	-0.610	-0.590
2020/01/31 14:04:22.2	0.720	0.090	-0.620	-0.620
2020/01/31 14:04:22.3	0.740	0.120	-0.630	-0.660
2020/01/31 14:04:22.4	0.760	0.150	-0.630	-0.690
2020/01/31 14:04:22.5	0.780	0.170	-0.630	-0.720
2020/01/31 14:04:22.6	0.790	0.200	-0.630	-0.740
2020/01/31 14:04:22.7	0.800	0.220	-0.620	-0.770
2020/01/31 14:04:22.8	0.820	0.240	-0.610	-0.780
2020/01/31 14:04:22.9	0.830	0.260	-0.590	-0.800
2020/01/31 14:04:23.0	0.850	0.280	-0.570	-0.810
2020/01/31 14:04:23.1	0.860	0.300	-0.540	-0.820
2020/01/31 14:04:23.2	0.870	0.310	-0.510	-0.820
2020/01/31 14:04:23.3	0.880	0.320	-0.470	-0.820
2020/01/31 14:04:23.4	0.880	0.320	-0.430	-0.820
2020/01/31 14:04:23.5	0.890	0.330	-0.390	-0.820
2020/01/31 14:04:23.6	0.890	0.330	-0.350	-0.800
2020/01/31 14:04:23.7	0.890	0.330	-0.310	-0.790
2020/01/31 14:04:23.8	0.890	0.320	-0.260	-0.770
2020/01/31 14:04:23.9	0.890	0.310	-0.210	-0.750
2020/01/31 14:04:24.0	0.880	0.300	-0.170	-0.730
2020/01/31 14:04:24.1	0.880	0.290	-0.120	-0.710
2020/01/31 14:04:24.2	0.870	0.270	-0.070	-0.680
2020/01/31 14:04:24.3	0.860	0.250	-0.030	-0.650
2020/01/31 14:04:24.4	0.850	0.230	0.010	-0.610
2020/01/31 14:04:24.5	0.840	0.210	0.050	-0.580
2020/01/31 14:04:24.6	0.830	0.180	0.090	-0.530
2020/01/31 14:04:24.7	0.810	0.160	0.120	-0.490
2020/01/31 14:04:24.8	0.800	0.130	0.150	-0.450
2020/01/31 14:04:24.9	0.780	0.100	0.170	-0.410
2020/01/31 14:04:25.0	0.770	0.080	0.200	-0.360
2020/01/31 14:04:25.1	0.750	0.050	0.210	-0.310
2020/01/31 14:04:25.2	0.730	0.020	0.230	-0.270
2020/01/31 14:04:25.3	0.710	-0.010	0.240	-0.220
2020/01/31 14:04:25.4	0.700	-0.030	0.240	-0.170
2020/01/31 14:04:25.5	0.680	-0.060	0.250	-0.120
2020/01/31 14:04:25.6	0.670	-0.080	0.240	-0.060
2020/01/31 14:04:25.7	0.650	-0.110	0.240	-0.010
2020/01/31 14:04:25.8	0.640	-0.130	0.230	0.040
2020/01/31 14:04:25.9	0.620	-0.150	0.220	0.090
2020/01/31 14:04:26.0	0.610	-0.160	0.210	0.140
2020/01/31 14:04:26.1	0.600	-0.180	0.190	0.180
2020/01/31 14:04:26.2	0.590	-0.190	0.180	0.220
2020/01/31 14:04:26.3	0.580	-0.200	0.150	0.260
2020/01/31 14:04:26.4	0.580	-0.210	0.130	0.290
2020/01/31 14:04:26.5	0.580	-0.220	0.100	0.330
2020/01/31 14:04:26.6	0.590	-0.220	0.070	0.350
2020/01/31 14:04:26.7	0.590	-0.220	0.040	0.380
2020/01/31 14:04:26.8	0.600	-0.220	0.010	0.400
2020/01/31 14:04:26.9	0.600	-0.220	-0.030	0.420
2020/01/31 14:04:27.0	0.610	-0.220	-0.060	0.430
2020/01/31 14:04:27.1	0.630	-0.210	-0.100	0.450
2020/01/31 14:04:27.2	0.640	-0.200	-0.130	0.460
2020/01/31 14:04:27.3	0.650	-0.190	-0.170	0.460
2020/01/31 14:04:27.4	0.670	-0.180	-0.200	0.470
2020/01/31 14:04:27.5	0.680	-0.170	-0.230	0.470
2020/01/31 14:04:27.6	0.710	-0.160	-0.270	0.470
2020/01/31 14:04:27.7	0.720	-0.150	-0.300	0.470
2020/01/31 14:04:27.8	0.730	-0.140	-0.320	0.470
2020/01/31 14:04:27.9	0.750	-0.130	-0.350	0.460
2020/01/31 14:04:28.0	0.760	-0.120	-0.370	0.450
2020/01/31 14:04:28.1	0.780	-0.120	-0.390	0.440
2020/01/31 14:04:28.2	0.790	-0.110	-0.400	0.430
2020/01/31 14:04:28.3	0.800	-0.100	-0.420	0.420
2020/01/31 14:04:28.4	0.810	-0.100	-0.420	0.410
2020/01/31 14:04:28.5	0.810	-0.090	-0.430	0.390
2020/01/31 14:04:28.6	0.830	-0.090	-0.430	0.380
2020/01/31 14:04:28.7	0.830	-0.090	-0.430	0.370
2020/01/31 14:04:28.8	0.830	-0.080	-0.430	0.360
2020/01/31 14:04:28.9	0.840	-0.080	-0.420	0.340
2020/01/31 14:04:29.0	0.830	-0.090	-0.410	0.330
2020/01/31 14:04:29.1	0.830	-0.090	-0.400	0.320
2020/01/31 14:04:29.2	0.830	-0.090	-0.380	0.310
2020/01/31 14:04:29.3	0.820	-0.090	-0.370	0.300
2020/01/31 14:04:29.4	0.810	-0.100	-0.350	0.280
2020/01/31 14:04:29.5	0.800	-0.100	-0.330	0.280
2020/01/31 14:04:29.6	0.790	-0.110	-0.320	0.270
2020/01/31 14:04:29.7	0.780	-0.110	-0.300	0.260
2020/01/31 14:04:29.8	0.760	-0.120	-0.270	0.250
2020/01/31 14:04:29.9	0.740	-0.120	-0.250	0.240
2020/01/31 14:04:30.0	0.730	-0.130	-0.230	0.230
2020/01/31 14:04:30.1	0.710	-0.130	-0.210	0.220
2020/01/31 14:04:30.2	0.690	-0.140	-0.190	0.210
2020/01/31 14:04:30.3	0.670	-0.140	-0.180	0.200
2020/01/31 14:04:30.4	0.650	-0.140	-0.160	0.190
2020/01/31 14:04:30.5	0.630	-0.140	-0.150	0.180
2020/01/31 14:04:30.6	0.600	-0.130	-0.130	0.170
2020/01/31 14:04:30.7	0.580	-0.130	-0.120	0.170
2020/01/31 14:04:30.8	0.560	-0.120	-0.120	0.160
2020/01/31 14:04:30.9	0.540	-0.110	-0.120	0.150
2020/01/31 14:04:31.0	0.530	-0.100	-0.120	0.140
2020/01/31 14:04:31.1	0.510	-0.090	-0.120	0.140
2020/01/31 14:04:31.2	0.490	-0.080	-0.130	0.130
2020/01/31 14:04:31.3	0.470	-0.060	-0.140	0.120
2020/01/31 14:04:31.4	0.450	-0.040	-0.150	0.110
2020/01/31 14:04:31.5	0.440	-0.020	-0.170	0.100
2020/01/31 14:04:31.6	0.420	-0.010	-0.190	0.090
2020/01/31 14:04:31.7	0.400	0.020	-0.220	0.080
2020/01/31 14:04:31.8	0.390	0.040	-0.240	0.060
2020/01/31 14:04:31.9	0.380	0.060	-0.270	0.040
2020/01/31 14:04:32.0	0.370	0.080	-0.310	0.020
2020/01/31 14:04:32.1	0.360	0.100	-0.340	-0.000
2020/01/31 14:04:32.2	0.350	0.120	-0.380	-0.030
2020/01/31 14:04:32.3	0.350	0.140	-0.420	-0.060
2020/01/31 14:04:32.4	0.340	0.160	-0.460	-0.090
2020/01/31 14:04:32.5	0.340	0.180	-0.490	-0.120
2020/01/31 14:04:32.6	0.340	0.200	-0.530	-0.150
2020/01/31 14:04:32.7	0.340	0.220	-0.570	-0.180
2020/01/31 14:04:32.8	0.350	0.230	-0.610	-0.220
2020/01/31 14:04:32.9	0.350	0.250	-0.650	-0.250
2020/01/31 14:04:33.0	0.360	0.260	-0.680	-0.290
2020/01/31 14:04:33.1	0.370	0.270	-0.710	-0.320
2020/01/31 14:04:33.2	0.370	0.280	-0.740	-0.360
2020/01/31 14:04:33.3	0.380	0.280	-0.760	-0.400
2020/01/31 14:04:33.4	0.400	0.280	-0.780	-0.440
2020/01/31 14:04:33.5	0.410	0.280	-0.800	-0.470
2020/01/31 14:04:33.6	0.430	0.280	-0.820	-0.510
2020/01/31 14:04:33.7	0.440	0.270	-0.820	-0.540
2020/01/31 14:04:33.8	0.460	0.270	-0.830	-0.580
2020/01/31 14:04:33.9	0.480	0.250	-0.820	-0.620
2020/01/31 14:04:34.0	0.500	0.240	-0.820	-0.650
2020/01/31 14:04:34.1	0.520	0.230	-0.800	-0.690
2020/01/31 14:04:34.2	0.540	0.210	-0.780	-0.720
2020/01/31 14:04:34.3	0.560	0.190	-0.760	-0.750
2020/01/31 14:04:34.4	0.590	0.170	-0.730	-0.780
2020/01/31 14:04:34.5	0.610	0.140	-0.700	-0.810
2020/01/31 14:04:34.6	0.640	0.120	-0.660	-0.830
2020/01/31 14:04:34.7	0.660	0.090	-0.620	-0.860
2020/01/31 14:04:34.8	0.690	0.060	-0.570	-0.880
2020/01/31 14:04:34.9	0.720	0.030	-0.520	-0.900
2020/01/31 14:04:35.0	0.750	0.010	-0.470	-0.920
2020/01/31 14:04:35.1	0.790	-0.020	-0.420	-0.940
2020/01/31 14:04:35.2	0.820	-0.050	-0.360	-0.960
2020/01/31 14:04:35.3	0.850	-0.080	-0.300	-0.970
2020/01/31 14:04:35.4	0.890	-0.110	-0.240	-0.990
2020/01/31 14:04:35.5	0.920	-0.130	-0.180	-1.000
2020/01/31 14:04:35.6	0.950	-0.160	-0.130	-1.000
2020/01/31 14:04:35.7	0.990	-0.180	-0.070	-1.010
2020/01/31 14:04:35.8	1.020	-0.210	-0.010	-1.010
2020/01/31 14:04:35.9	1.050	-0.230	0.040	-1.010
2020/01/31 14:04:36.0	1.080	-0.250	0.100	-1.010
2020/01/31 14:04:36.1	1.110	-0.270	0.150	-1.010
2020/01/31 14:04:36.2	1.140	-0.280	0.190	-1.000
2020/01/31 14:04:36.3	1.170	-0.300	0.240	-1.000
2020/01/31 14:04:36.4	1.190	-0.310	0.280	-0.980
2020/01/31 14:04:36.5	1.210	-0.320	0.320	-0.970
2020/01/31 14:04:36.6	1.220	-0.330	0.350	-0.950
2020/01/31 14:04:36.7	1.230	-0.340	0.380	-0.930
2020/01/31 14:04:36.8	1.240	-0.350	0.410	-0.910
2020/01/31 14:04:36.9	1.240	-0.350	0.440	-0.880
2020/01/31 14:04:37.0	1.240	-0.360	0.460	-0.850
2020/01/31 14:04:37.1	1.230	-0.360	0.480	-0.820
2020/01/31 14:04:37.2	1.210	-0.370	0.490	-0.780
2020/01/31 14:04:37.3	1.190	-0.370	0.510	-0.740
2020/01/31 14:04:37.4	1.160	-0.370	0.520	-0.700
2020/01/31 14:04:37.5	1.130	-0.370	0.520	-0.660
2020/01/31 14:04:37.6	1.100	-0.370	0.530	-0.610
2020/01/31 14:04:37.7	1.050	-0.370	0.530	-0.560
2020/01/31 14:04:37.8	1.000	-0.370	0.530	-0.510
2020/01/31 14:04:37.9	0.950	-0.370	0.520	-0.460
2020/01/31 14:04:38.0	0.890	-0.360	0.510	-0.410
2020/01/31 14:04:38.1	0.830	-0.360	0.500	-0.350
2020/01/31 14:04:38.2	0.760	-0.350	0.490	-0.300
2020/01/31 14:04:38.3	0.690	-0.340	0.480	-0.240
2020/01/31 14:04:38.4	0.620	-0.330	0.460	-0.180
2020/01/31 14:04:38.5	0.550	-0.320	0.440	-0.120
2020/01/31 14:04:38.6	0.470	-0.310	0.420	-0.060
2020/01/31 14:04:38.7	0.390	-0.300	0.400	-0.000
2020/01/31 14:04:38.8	0.310	-0.290	0.380	0.050
2020/01/31 14:04:38.9	0.230	-0.280	0.350	0.110
2020/01/31 14:04:39.0	0.150	-0.260	0.320	0.160
2020/01/31 14:04:39.1	0.080	-0.240	0.290	0.210
2020/01/31 14:04:39.2	0.000	-0.220	0.260	0.260
2020/01/31 14:04:39.3	359.930	-0.200	0.220	0.310
2020/01/31 14:04:39.4	359.860	-0.180	0.180	0.350
2020/01/31 14:04:39.5	359.800	-0.160	0.140	0.390
2020/01/31 14:04:39.6	359.740	-0.130	0.090	0.430
2020/01/31 14:04:39.7	359.680	-0.100	0.040	0.460
2020/01/31 14:04:39.8	359.640	-0.070	-0.010	0.490
2020/01/31 14:04:39.9	359.590	-0.040	-0.070	0.520
2020/01/31 14:04:40.0	359.560	-0.000	-0.120	0.540
2020/01/31 14:04:40.1	359.520	0.030	-0.180	0.560
2020/01/31 14:04:40.2	359.500	0.070	-0.250	0.570
2020/01/31 14:04:40.3	359.480	0.110	-0.310	0.570
2020/01/31 14:04:40.4	359.470	0.150	-0.380	0.570
2020/01/31 14:04:40.5	359.460	0.190	-0.450	0.570
2020/01/31 14:04:40.6	359.460	0.230	-0.520	0.560
2020/01/31 14:04:40.7	359.470	0.280	-0.590	0.540
2020/01/31 14:04:40.8	359.480	0.320	-0.660	0.520
2020/01/31 14:04:40.9	359.490	0.360	-0.730	0.490
2020/01/31 14:04:41.0	359.520	0.400	-0.800	0.460
2020/01/31 14:04:41.1	359.540	0.440	-0.860	0.420
2020/01/31 14:04:41.2	359.570	0.480	-0.930	0.380
2020/01/31 14:04:41.3	359.610	0.510	-0.990	0.340
2020/01/31 14:04:41.4	359.650	0.540	-1.040	0.290
2020/01/31 14:04:41.5	359.690	0.570	-1.100	0.240
2020/01/31 14:04:41.6	359.740	0.600	-1.140	0.190
2020/01/31 14:04:41.7	359.790	0.620	-1.180	0.140
2020/01/31 14:04:41.8	359.840	0.630	-1.220	0.090
2020/01/31 14:04:41.9	359.890	0.650	-1.250	0.040
2020/01/31 14:04:42.0	359.940	0.650	-1.270	-0.010
2020/01/31 14:04:42.1	359.990	0.660	-1.280	-0.060
2020/01/31 14:04:42.2	0.040	0.660	-1.280	-0.100
2020/01/31 14:04:42.3	0.090	0.650	-1.280	-0.140
2020/01/31 14:04:42.4	0.150	0.640	-1.260	-0.180
2020/01/31 14:04:42.5	0.200	0.620	-1.240	-0.220
2020/01/31 14:04:42.6	0.260	0.600	-1.210	-0.260
2020/01/31 14:04:42.7	0.310	0.570	-1.180	-0.290
2020/01/31 14:04:42.8	0.350	0.540	-1.130	-0.320
2020/01/31 14:04:42.9	0.400	0.500	-1.080	-0.340
2020/01/31 14:04:43.0	0.440	0.450	-1.020	-0.370
2020/01/31 14:04:43.1	0.480	0.410	-0.960	-0.390
2020/01/31 14:04:43.2	0.510	0.350	-0.890	-0.410
2020/01/31 14:04:43.3	0.550	0.300	-0.820	-0.420
2020/01/31 14:04:43.4	0.570	0.240	-0.740	-0.430
2020/01/31 14:04:43.5	0.600	0.170	-0.670	-0.440
2020/01/31 14:04:43.6	0.620	0.110	-0.590	-0.450
2020/01/31 14:04:43.7	0.630	0.040	-0.510	-0.450
2020/01/31 14:04:43.8	0.650	-0.040	-0.420	-0.460
2020/01/31 14:04:43.9	0.650	-0.110	-0.340	-0.470
2020/01/31 14:04:44.0	0.650	-0.180	-0.260	-0.470
2020/01/31 14:04:44.1	0.650	-0.260	-0.190	-0.480
2020/01/31 14:04:44.2	0.650	-0.330	-0.110	-0.480
2020/01/31 14:04:44.3	0.640	-0.400	-0.040	-0.490
2020/01/31 14:04:44.4	0.630	-0.470	0.020	-0.490
2020/01/31 14:04:44.5	0.620	-0.540	0.080	-0.500
2020/01/31 14:04:44.6	0.610	-0.610	0.140	-0.510
2020/01/31 14:04:44.7	0.590	-0.670	0.200	-0.510
2020/01/31 14:04:44.8	0.570	-0.720	0.240	-0.520
2020/01/31 14:04:44.9	0.550	-0.780	0.280	-0.530
2020/01/31 14:04:45.0	0.530	-0.820	0.310	-0.540
2020/01/31 14:04:45.1	0.510	-0.870	0.340	-0.550
2020/01/31 14:04:45.2	0.490	-0.900	0.360	-0.560
2020/01/31 14:04:45.3	0.470	-0.930	0.380	-0.580
2020/01/31 14:04:45.4	0.450	-0.950	0.390	-0.590
2020/01/31 14:04:45.5	0.430	-0.960	0.400	-0.600
2020/01/31 14:04:45.6	0.400	-0.970	0.390	-0.610
2020/01/31 14:04:45.7	0.370	-0.970	0.380	-0.620
2020/01/31 14:04:45.8	0.350	-0.960	0.370	-0.630
2020/01/31 14:04:45.9	0.330	-0.940	0.360	-0.630
2020/01/31 14:04:46.0	0.300	-0.920	0.340	-0.630
2020/01/31 14:04:46.1	0.280	-0.890	0.320	-0.640
2020/01/31 14:04:46.2	0.250	-0.850	0.300	-0.630
2020/01/31 14:04:46.3	0.230	-0.800	0.270	-0.630
2020/01/31 14:04:46.4	0.210	-0.750	0.240	-0.630
2020/01/31 14:04:46.5	0.180	-0.690	0.210	-0.620
2020/01/31 14:04:46.6	0.160	-0.620	0.170	-0.600
2020/01/31 14:04:46.7	0.140	-0.550	0.140	-0.590
2020/01/31 14:04:46.8	0.120	-0.470	0.100	-0.570
2020/01/31 14:04:46.9	0.100	-0.390	0.070	-0.550
2020/01/31 14:04:47.0	0.080	-0.300	0.030	-0.520
2020/01/31 14:04:47.1	0.060	-0.220	-0.000	-0.500
2020/01/31 14:04:47.2	0.040	-0.130	-0.040	-0.460
2020/01/31 14:04:47.3	0.030	-0.030	-0.070	-0.430
2020/01/31 14:04:47.4	0.010	0.060	-0.100	-0.390
2020/01/31 14:04:47.5	0.000	0.150	-0.130	-0.350
2020/01/31 14:04:47.6	359.990	0.240	-0.160	-0.300
2020/01/31 14:04:47.7	359.980	0.330	-0.180	-0.260
2020/01/31 14:04:47.8	359.970	0.420	-0.210	-0.210
2020/01/31 14:04:47.9	359.960	0.500	-0.220	-0.160
2020/01/31 14:04:48.0	359.960	0.580	-0.240	-0.100
2020/01/31 14:04:48.1	359.950	0.650	-0.250	-0.040
2020/01/31 14:04:48.2	359.950	0.720	-0.260	0.010
2020/01/31 14:04:48.3	359.940	0.780	-0.270	0.070
2020/01/31 14:04:48.4	359.940	0.830	-0.270	0.130
2020/01/31 14:04:48.5	359.930	0.880	-0.270	0.190
2020/01/31 14:04:48.6	359.930	0.920	-0.260	0.260
2020/01/31 14:04:48.7	359.930	0.940	-0.250	0.320
2020/01/31 14:04:48.8	359.920	0.970	-0.240	0.380
2020/01/31 14:04:48.9	359.920	0.980	-0.220	0.440
2020/01/31 14:04:49.0	359.910	0.980	-0.200	0.500
2020/01/31 14:04:49.1	359.900	0.970	-0.180	0.550
2020/01/31 14:04:49.2	359.900	0.960	-0.160	0.600
2020/01/31 14:04:49.3	359.890	0.930	-0.140	0.640
2020/01/31 14:04:49.4	359.880	0.900	-0.110	0.680
2020/01/31 14:04:49.5	359.880	0.860	-0.090	0.720
2020/01/31 14:04:49.6	359.890	0.810	-0.070	0.750
2020/01/31 14:04:49.7	359.880	0.760	-0.050	0.780
2020/01/31 14:04:49.8	359.880	0.700	-0.030	0.790
2020/01/31 14:04:49.9	359.880	0.630	-0.020	0.800
2020/01/31 14:04:50.0	359.890	0.560	-0.010	0.810
2020/01/31 14:04:50.1	359.890	0.480	0.000	0.800
2020/01/31 14:04:50.2	359.900	0.400	0.010	0.790
2020/01/31 14:04:50.3	359.910	0.320	0.010	0.770
2020/01/31 14:04:50.4	359.920	0.230	0.010	0.740
2020/01/31 14:04:50.5	359.940	0.150	0.000	0.700
2020/01/31 14:04:50.6	359.960	0.060	-0.010	0.660
2020/01/31 14:04:50.7	359.980	-0.020	-0.030	0.610
2020/01/31 14:04:50.8	0.010	-0.110	-0.040	0.550
2020/01/31 14:04:50.9	0.040	-0.190	-0.070	0.490
2020/01/31 14:04:51.0	0.070	-0.260	-0.090	0.420
2020/01/31 14:04:51.1	0.100	-0.340	-0.120	0.340
2020/01/31 14:04:51.2	0.130	-0.410	-0.150	0.260
2020/01/31 14:04:51.3	0.170	-0.470	-0.180	0.180
2020/01/31 14:04:51.4	0.210	-0.530	-0.210	0.090
2020/01/31 14:04:51.5	0.240	-0.590	-0.240	0.010
2020/01/31 14:04:51.6	0.280	-0.630	-0.270	-0.080
2020/01/31 14:04:51.7	0.320	-0.670	-0.300	-0.170
2020/01/31 14:04:51.8	0.350	-0.710	-0.320	-0.250
2020/01/31 14:04:51.9	0.390	-0.730	-0.350	-0.330
2020/01/31 14:04:52.0	0.420	-0.750	-0.370	-0.410
2020/01/31 14:04:52.1	0.440	-0.760	-0.390	-0.490
2020/01/31 14:04:52.2	0.470	-0.770	-0.410	-0.560
2020/01/31 14:04:52.3	0.500	-0.770	-0.420	-0.630
2020/01/31 14:04:52.4	0.520	-0.760	-0.430	-0.690
2020/01/31 14:04:52.5	0.540	-0.750	-0.440	-0.750
2020/01/31 14:04:52.6	0.560	-0.730	-0.450	-0.800
2020/01/31 14:04:52.7	0.570	-0.700	-0.450	-0.860
2020/01/31 14:04:52.8	0.590	-0.680	-0.450	-0.910
2020/01/31 14:04:52.9	0.600	-0.640	-0.450	-0.950
2020/01/31 14:04:53.0	0.610	-0.610	-0.450	-0.990
2020/01/31 14:04:53.1	0.620	-0.570	-0.450	-1.030
2020/01/31 14:04:53.2	0.630	-0.520	-0.440	-1.060
2020/01/31 14:04:53.3	0.640	-0.480	-0.440	-1.090
2020/01/31 14:04:53.4	0.640	-0.430	-0.430	-1.110
2020/01/31 14:04:53.5	0.640	-0.380	-0.430	-1.130
2020/01/31 14:04:53.6	0.650	-0.340	-0.430	-1.140
2020/01/31 14:04:53.7	0.650	-0.290	-0.420	-1.150
2020/01/31 14:04:53.8	0.650	-0.240	-0.420	-1.150
2020/01/31 14:04:53.9	0.650	-0.190	-0.420	-1.160
2020/01/31 14:04:54.0	0.640	-0.150	-0.420	-1.150
2020/01/31 14:04:54.1	0.640	-0.100	-0.420	-1.150
2020/01/31 14:04:54.2	0.640	-0.060	-0.430	-1.140
2020/01/31 14:04:54.3	0.640	-0.020	-0.430	-1.130
2020/01/31 14:04:54.4	0.630	0.020	-0.440	-1.120
2020/01/31 14:04:54.5	0.630	0.050	-0.440	-1.110
2020/01/31 14:04:54.6	0.630	0.080	-0.450	-1.090
2020/01/31 14:04:54.7	0.630	0.110	-0.460	-1.070
2020/01/31 14:04:54.8	0.630	0.140	-0.470	-1.050
2020/01/31 14:04:54.9	0.630	0.160	-0.480	-1.030
2020/01/31 14:04:55.0	0.630	0.180	-0.490	-1.010
2020/01/31 14:04:55.1	0.630	0.200	-0.510	-0.980
2020/01/31 14:04:55.2	0.630	0.220	-0.520	-0.960
2020/01/31 14:04:55.3	0.640	0.230	-0.540	-0.940
2020/01/31 14:04:55.4	0.650	0.240	-0.550	-0.910
2020/01/31 14:04:55.5	0.650	0.250	-0.560	-0.880
2020/01/31 14:04:55.6	0.660	0.260	-0.580	-0.860
2020/01/31 14:04:55.7	0.670	0.270	-0.590	-0.830
2020/01/31 14:04:55.8	0.690	0.270	-0.600	-0.810
2020/01/31 14:04:55.9	0.710	0.280	-0.610	-0.780
2020/01/31 14:04:56.0	0.720	0.280	-0.620	-0.750
2020/01/31 14:04:56.1	0.750	0.280	-0.630	-0.730
2020/01/31 14:04:56.2	0.770	0.290	-0.640	-0.700
2020/01/31 14:04:56.3	0.790	0.290	-0.640	-0.680
2020/01/31 14:04:56.4	0.820	0.300	-0.640	-0.650
2020/01/31 14:04:56.5	0.840	0.300	-0.630	-0.620
2020/01/31 14:04:56.6	0.860	0.310	-0.630	-0.590
2020/01/31 14:04:56.7	0.890	0.310	-0.610	-0.560
2020/01/31 14:04:56.8	0.910	0.320	-0.600	-0.530
2020/01/31 14:04:56.9	0.930	0.330	-0.580	-0.490
2020/01/31 14:04:57.0	0.950	0.330	-0.550	-0.460
2020/01/31 14:04:57.1	0.970	0.340	-0.520	-0.420
2020/01/31 14:04:57.2	0.990	0.350	-0.490	-0.380
2020/01/31 14:04:57.3	1.010	0.360	-0.450	-0.340
2020/01/31 14:04:57.4	1.020	0.370	-0.410	-0.290
2020/01/31 14:04:57.5	1.030	0.380	-0.370	-0.240
2020/01/31 14:04:57.6	1.040	0.390	-0.320	-0.180
2020/01/31 14:04:57.7	1.050	0.390	-0.270	-0.130
2020/01/31 14:04:57.8	1.050	0.400	-0.220	-0.080
2020/01/31 14:04:57.9	1.060	0.410	-0.170	-0.020
2020/01/31 14:04:58.0	1.060	0.420	-0.110	0.030
2020/01/31 14:04:58.1	1.050	0.420	-0.060	0.090
2020/01/31 14:04:58.2	1.050	0.420	-0.000	0.140
2020/01/31 14:04:58.3	1.050	0.430	0.050	0.200
2020/01/31 14:04:58.4	1.040	0.430	0.100	0.250
2020/01/31 14:04:58.5	1.040	0.430	0.150	0.300
2020/01/31 14:04:58.6	1.040	0.420	0.190	0.360
2020/01/31 14:04:58.7	1.030	0.420	0.230	0.410
2020/01/31 14:04:58.8	1.030	0.410	0.270	0.460
2020/01/31 14:04:58.9	1.020	0.410	0.300	0.500
2020/01/31 14:04:59.0	1.020	0.390	0.330	0.540
2020/01/31 14:04:59.1	1.020	0.380	0.360	0.580
2020/01/31 14:04:59.2	1.020	0.370	0.370	0.620
2020/01/31 14:04:59.3	1.020	0.350	0.390	0.650
2020/01/31 14:04:59.4	1.030	0.330	0.400	0.670
2020/01/31 14:04:59.5	1.030	0.310	0.400	0.700
2020/01/31 14:04:59.6	1.050	0.290	0.390	0.720
2020/01/31 14:04:59.7	1.060	0.260	0.390	0.730
2020/01/31 14:04:59.8	1.070	0.240	0.380	0.740
2020/01/31 14:04:59.9	1.080	0.210	0.360	0.750
2020/01/31 14:05:00.0	1.090	0.180	0.340	0.750
2020/01/31 14:05:00.1	1.100	0.140	0.320	0.740
2020/01/31 14:05:00.2	1.120	0.110	0.290	0.730
2020/01/31 14:05:00.3	1.130	0.070	0.260	0.710
2020/01/31 14:05:00.4	1.150	0.030	0.230	0.690
2020/01/31 14:05:00.5	1.160	-0.000	0.200	0.670
2020/01/31 14:05:00.6	1.180	-0.040	0.170	0.640
2020/01/31 14:05:00.7	1.190	-0.080	0.130	0.600
2020/01/31 14:05:00.8	1.210	-0.130	0.100	0.560
2020/01/31 14:05:00.9	1.220	-0.170	0.060	0.520
2020/01/31 14:05:01.0	1.230	-0.210	0.020	0.480
2020/01/31 14:05:01.1	1.240	-0.250	-0.010	0.430
2020/01/31 14:05:01.2	1.250	-0.290	-0.040	0.380
2020/01/31 14:05:01.3	1.260	-0.330	-0.070	0.320
2020/01/31 14:05:01.4	1.270	-0.360	-0.100	0.270
2020/01/31 14:05:01.5	1.270	-0.400	-0.130	0.220
2020/01/31 14:05:01.6	1.280	-0.430	-0.150	0.160
2020/01/31 14:05:01.7	1.280	-0.460	-0.170	0.110
2020/01/31 14:05:01.8	1.280	-0.490	-0.190	0.060
2020/01/31 14:05:01.9	1.290	-0.510	-0.200	0.010
2020/01/31 14:05:02.0	1.290	-0.530	-0.210	-0.050
2020/01/31 14:05:02.1	1.290	-0.550	-0.220	-0.100
2020/01/31 14:05:02.2	1.290	-0.560	-0.230	-0.150
2020/01/31 14:05:02.3	1.300	-0.570	-0.240	-0.200
2020/01/31 14:05:02.4	1.300	-0.580	-0.240	-0.250
2020/01/31 14:05:02.5	1.300	-0.580	-0.250	-0.290
2020/01/31 14:05:02.6	1.310	-0.580	-0.250	-0.350
2020/01/31 14:05:02.7	1.320	-0.570	-0.260	-0.390
2020/01/31 14:05:02.8	1.330	-0.560	-0.260	-0.440
2020/01/31 14:05:02.9	1.340	-0.550	-0.260	-0.490
2020/01/31 14:05:03.0	1.350	-0.540	-0.270	-0.530
2020/01/31 14:05:03.1	1.370	-0.520	-0.270	-0.580
2020/01/31 14:05:03.2	1.380	-0.490	-0.280	-0.620
2020/01/31 14:05:03.3	1.400	-0.470	-0.280	-0.670
2020/01/31 14:05:03.4	1.420	-0.440	-0.290	-0.710
2020/01/31 14:05:03.5	1.440	-0.410	-0.300	-0.750
2020/01/31 14:05:03.6	1.450	-0.380	-0.310	-0.790
2020/01/31 14:05:03.7	1.470	-0.350	-0.310	-0.830
2020/01/31 14:05:03.8	1.490	-0.320	-0.320	-0.860
2020/01/31 14:05:03.9	1.510	-0.290	-0.330	-0.890
2020/01/31 14:05:04.0	1.530	-0.260	-0.340	-0.930
2020/01/31 14:05:04.1	1.540	-0.220	-0.350	-0.950
2020/01/31 14:05:04.2	1.560	-0.190	-0.360	-0.980
2020/01/31 14:05:04.3	1.580	-0.160	-0.360	-1.000
2020/01/31 14:05:04.4	1.600	-0.130	-0.370	-1.020
2020/01/31 14:05:04.5	1.610	-0.100	-0.380	-1.040
2020/01/31 14:05:04.6	1.630	-0.080	-0.390	-1.040
2020/01/31 14:05:04.7	1.650	-0.050	-0.400	-1.050
2020/01/31 14:05:04.8	1.660	-0.020	-0.410	-1.060
2020/01/31 14:05:04.9	1.680	-0.000	-0.420	-1.070
2020/01/31 14:05:05.0	1.700	0.020	-0.430	-1.070
2020/01/31 14:05:05.1	1.710	0.040	-0.430	-1.070
2020/01/31 14:05:05.2	1.730	0.050	-0.440	-1.060
2020/01/31 14:05:05.3	1.740	0.070	-0.450	-1.060
2020/01/31 14:05:05.4	1.760	0.080	-0.460	-1.050
2020/01/31 14:05:05.5	1.770	0.090	-0.460	-1.030
2020/01/31 14:05:05.6	1.790	0.100	-0.470	-1.020
2020/01/31 14:05:05.7	1.800	0.110	-0.480	-1.000
2020/01/31 14:05:05.8	1.820	0.120	-0.480	-0.990
2020/01/31 14:05:05.9	1.830	0.130	-0.490	-0.970
2020/01/31 14:05:06.0	1.840	0.130	-0.490	-0.950
2020/01/31 14:05:06.1	1.850	0.130	-0.500	-0.930
2020/01/31 14:05:06.2	1.860	0.140	-0.510	-0.910
2020/01/31 14:05:06.3	1.870	0.140	-0.510	-0.880
2020/01/31 14:05:06.4	1.880	0.140	-0.520	-0.860
2020/01/31 14:05:06.5	1.880	0.150	-0.530	-0.840
2020/01/31 14:05:06.6	1.890	0.150	-0.530	-0.810
2020/01/31 14:05:06.7	1.900	0.150	-0.540	-0.790
2020/01/31 14:05:06.8	1.910	0.160	-0.540	-0.770
2020/01/31 14:05:06.9	1.910	0.170	-0.550	-0.740
2020/01/31 14:05:07.0	1.920	0.170	-0.550	-0.720
2020/01/31 14:05:07.1	1.920	0.180	-0.560	-0.690
2020/01/31 14:05:07.2	1.930	0.190	-0.560	-0.670
2020/01/31 14:05:07.3	1.930	0.200	-0.560	-0.640
2020/01/31 14:05:07.4	1.930	0.220	-0.560	-0.610
2020/01/31 14:05:07.5	1.940	0.230	-0.550	-0.580
2020/01/31 14:05:07.6	1.950	0.250	-0.550	-0.550
2020/01/31 14:05:07.7	1.950	0.260	-0.550	-0.510
2020/01/31 14:05:07.8	1.950	0.280	-0.540	-0.480
2020/01/31 14:05:07.9	1.950	0.300	-0.530	-0.450
2020/01/31 14:05:08.0	1.950	0.320	-0.520	-0.410
2020/01/31 14:05:08.1	1.960	0.340	-0.510	-0.380
2020/01/31 14:05:08.2	1.960	0.370	-0.500	-0.340
2020/01/31 14:05:08.3	1.960	0.390	-0.480	-0.310
2020/01/31 14:05:08.4	1.960	0.410	-0.470	-0.270
2020/01/31 14:05:08.5	1.970	0.430	-0.460	-0.240
2020/01/31 14:05:08.6	1.980	0.450	-0.440	-0.200
2020/01/31 14:05:08.7	1.980	0.470	-0.430	-0.170
2020/01/31 14:05:08.8	1.980	0.480	-0.420	-0.140
2020/01/31 14:05:08.9	1.990	0.500	-0.400	-0.120
2020/01/31 14:05:09.0	1.990	0.510	-0.390	-0.090
2020/01/31 14:05:09.1	2.000	0.520	-0.380	-0.070
2020/01/31 14:05:09.2	2.010	0.530	-0.360	-0.050
2020/01/31 14:05:09.3	2.010	0.530	-0.350	-0.040
2020/01/31 14:05:09.4	2.020	0.530	-0.340	-0.030
2020/01/31 14:05:09.5	2.030	0.530	-0.320	-0.020
2020/01/31 14:05:09.6	2.030	0.520	-0.310	-0.010
2020/01/31 14:05:09.7	2.040	0.510	-0.290	-0.010
2020/01/31 14:05:09.8	2.040	0.500	-0.270	-0.010
2020/01/31 14:05:09.9	2.050	0.480	-0.250	-0.020
2020/01/31 14:05:10.0	2.050	0.450	-0.230	-0.030
2020/01/31 14:05:10.1	2.060	0.430	-0.210	-0.040
2020/01/31 14:05:10.2	2.060	0.390	-0.180	-0.060
2020/01/31 14:05:10.3	2.060	0.360	-0.150	-0.080
2020/01/31 14:05:10.4	2.060	0.320	-0.120	-0.100
2020/01/31 14:05:10.5	2.060	0.270	-0.090	-0.120
2020/01/31 14:05:10.6	2.060	0.230	-0.050	-0.150
2020/01/31 14:05:10.7	2.060	0.180	-0.020	-0.180
2020/01/31 14:05:10.8	2.050	0.120	0.020	-0.210
2020/01/31 14:05:10.9	2.050	0.070	0.060	-0.240
2020/01/31 14:05:11.0	2.050	0.010	0.100	-0.270
2020/01/31 14:05:11.1	2.040	-0.050	0.130	-0.300
2020/01/31 14:05:11.2	2.030	-0.110	0.170	-0.340
2020/01/31 14:05:11.3	2.030	-0.170	0.210	-0.370
2020/01/31 14:05:11.4	2.020	-0.230	0.250	-0.400
2020/01/31 14:05:11.5	2.010	-0.290	0.280	-0.440
2020/01/31 14:05:11.6	2.010	-0.350	0.310	-0.470
2020/01/31 14:05:11.7	2.010	-0.410	0.340	-0.500
2020/01/31 14:05:11.8	2.000	-0.460	0.360	-0.540
2020/01/31 14:05:11.9	2.000	-0.510	0.380	-0.570
2020/01/31 14:05:12.0	2.000	-0.560	0.400	-0.600
2020/01/31 14:05:12.1	1.990	-0.610	0.420	-0.630
2020/01/31 14:05:12.2	1.990	-0.650	0.420	-0.670
2020/01/31 14:05:12.3	1.990	-0.680	0.430	-0.700
2020/01/31 14:05:12.4	1.980	-0.720	0.430	-0.730
2020/01/31 14:05:12.5	1.980	-0.740	0.420	-0.750
2020/01/31 14:05:12.6	1.970	-0.770	0.420	-0.780
2020/01/31 14:05:12.7	1.960	-0.780	0.400	-0.810
2020/01/31 14:05:12.8	1.950	-0.790	0.390	-0.830
2020/01/31 14:05:12.9	1.950	-0.800	0.360	-0.850
2020/01/31 14:05:13.0	1.940	-0.800	0.340	-0.880
2020/01/31 14:05:13.1	1.930	-0.790	0.310	-0.900
2020/01/31 14:05:13.2	1.920	-0.780	0.270	-0.920
2020/01/31 14:05:13.3	1.910	-0.760	0.230	-0.940
2020/01/31 14:05:13.4	1.900	-0.740	0.190	-0.960
2020/01/31 14:05:13.5	1.890	-0.710	0.150	-0.980
2020/01/31 14:05:13.6	1.870	-0.670	0.100	-1.000
2020/01/31 14:05:13.7	1.860	-0.630	0.050	-1.010
2020/01/31 14:05:13.8	1.860	-0.590	-0.010	-1.030
2020/01/31 14:05:13.9	1.850	-0.540	-0.060	-1.040
2020/01/31 14:05:14.0	1.840	-0.490	-0.110	-1.040
2020/01/31 14:05:14.1	1.840	-0.430	-0.170	-1.050
2020/01/31 14:05:14.2	1.830	-0.370	-0.230	-1.050
2020/01/31 14:05:14.3	1.830	-0.310	-0.280	-1.050
2020/01/31 14:05:14.4	1.830	-0.240	-0.340	-1.050
2020/01/31 14:05:14.5	1.830	-0.180	-0.390	-1.040
2020/01/31 14:05:14.6	1.840	-0.110	-0.440	-1.030
2020/01/31 14:05:14.7	1.840	-0.040	-0.490	-1.020
2020/01/31 14:05:14.8	1.840	0.030	-0.530	-1.000
2020/01/31 14:05:14.9	1.850	0.090	-0.580	-0.980
2020/01/31 14:05:15.0	1.850	0.160	-0.610	-0.960
2020/01/31 14:05:15.1	1.850	0.220	-0.640	-0.930
2020/01/31 14:05:15.2	1.850	0.280	-0.670	-0.900
2020/01/31 14:05:15.3	1.850	0.330	-0.690	-0.860
2020/01/31 14:05:15.4	1.850	0.380	-0.710	-0.820
2020/01/31 14:05:15.5	1.850	0.430	-0.720	-0.770
2020/01/31 14:05:15.6	1.850	0.470	-0.720	-0.720
2020/01/31 14:05:15.7	1.850	0.500	-0.720	-0.670
2020/01/31 14:05:15.8	1.840	0.530	-0.720	-0.620
2020/01/31 14:05:15.9	1.830	0.560	-0.700	-0.570
2020/01/31 14:05:16.0	1.830	0.580	-0.690	-0.510
2020/01/31 14:05:16.1	1.820	0.590	-0.670	-0.460
2020/01/31 14:05:16.2	1.810	0.600	-0.640	-0.400
2020/01/31 14:05:16.3	1.810	0.600	-0.610	-0.350
2020/01/31 14:05:16.4	1.800	0.600	-0.580	-0.290
2020/01/31 14:05:16.5	1.790	0.590	-0.550	-0.240
2020/01/31 14:05:16.6	1.790	0.570	-0.510	-0.180
2020/01/31 14:05:16.7	1.780	0.560	-0.480	-0.130
2020/01/31 14:05:16.8	1.770	0.530	-0.440	-0.070
2020/01/31 14:05:16.9	1.760	0.510	-0.400	-0.020
2020/01/31 14:05:17.0	1.750	0.470	-0.360	0.020
2020/01/31 14:05:17.1	1.740	0.440	-0.320	0.070
2020/01/31 14:05:17.2	1.740	0.410	-0.280	0.120
2020/01/31 14:05:17.3	1.730	0.370	-0.240	0.160
2020/01/31 14:05:17.4	1.720	0.330	-0.210	0.200
2020/01/31 14:05:17.5	1.710	0.290	-0.170	0.230
2020/01/31 14:05:17.6	1.710	0.250	-0.140	0.270
2020/01/31 14:05:17.7	1.700	0.210	-0.110	0.300
2020/01/31 14:05:17.8	1.700	0.160	-0.090	0.330
2020/01/31 14:05:17.9	1.690	0.120	-0.060	0.350
2020/01/31 14:05:18.0	1.690	0.090	-0.040	0.370
2020/01/31 14:05:18.1	1.680	0.050	-0.030	0.390
2020/01/31 14:05:18.2	1.680	0.010	-0.020	0.400
2020/01/31 14:05:18.3	1.680	-0.020	-0.010	0.420
2020/01/31 14:05:18.4	1.670	-0.050	-0.000	0.420
2020/01/31 14:05:18.5	1.670	-0.080	-0.000	0.430
2020/01/31 14:05:18.6	1.670	-0.100	-0.010	0.430
2020/01/31 14:05:18.7	1.670	-0.130	-0.010	0.430
2020/01/31 14:05:18.8	1.670	-0.140	-0.030	0.430
2020/01/31 14:05:18.9	1.670	-0.160	-0.040	0.420
2020/01/31 14:05:19.0	1.670	-0.170	-0.060	0.410
2020/01/31 14:05:19.1	1.680	-0.170	-0.090	0.400
2020/01/31 14:05:19.2	1.680	-0.180	-0.110	0.380
2020/01/31 14:05:19.3	1.690	-0.180	-0.140	0.360
2020/01/31 14:05:19.4	1.700	-0.170	-0.170	0.340
2020/01/31 14:05:19.5	1.710	-0.170	-0.210	0.320
2020/01/31 14:05:19.6	1.720	-0.160	-0.250	0.300
2020/01/31 14:05:19.7	1.730	-0.140	-0.280	0.280
2020/01/31 14:05:19.8	1.740	-0.130	-0.320	0.250
2020/01/31 14:05:19.9	1.750	-0.110	-0.360	0.230
2020/01/31 14:05:20.0	1.760	-0.090	-0.390	0.210
2020/01/31 14:05:20.1	1.770	-0.070	-0.430	0.180
2020/01/31 14:05:20.2	1.780	-0.040	-0.460	0.160
2020/01/31 14:05:20.3	1.790	-0.020	-0.490	0.140
2020/01/31 14:05:20.4	1.800	0.000	-0.520	0.120
2020/01/31 14:05:20.5	1.800	0.030	-0.550	0.110
2020/01/31 14:05:20.6	1.810	0.050	-0.570	0.090
2020/01/31 14:05:20.7	1.820	0.080	-0.590	0.080
2020/01/31 14:05:20.8	1.820	0.100	-0.600	0.070
2020/01/31 14:05:20.9	1.820	0.130	-0.610	0.060
2020/01/31 14:05:21.0	1.810	0.150	-0.620	0.050
2020/01/31 14:05:21.1	1.810	0.170	-0.620	0.040
2020/01/31 14:05:21.2	1.810	0.190	-0.620	0.040
2020/01/31 14:05:21.3	1.800	0.210	-0.620	0.030
2020/01/31 14:05:21.4	1.790	0.220	-0.610	0.030
2020/01/31 14:05:21.5	1.780	0.230	-0.600	0.030
2020/01/31 14:05:21.6	1.780	0.250	-0.580	0.020
2020/01/31 14:05:21.7	1.770	0.260	-0.570	0.020
2020/01/31 14:05:21.8	1.760	0.260	-0.550	0.020
2020/01/31 14:05:21.9	1.750	0.270	-0.530	0.020
2020/01/31 14:05:22.0	1.740	0.270	-0.500	0.020
2020/01/31 14:05:22.1	1.740	0.270	-0.480	0.010
2020/01/31 14:05:22.2	1.730	0.280	-0.460	0.010
2020/01/31 14:05:22.3	1.730	0.270	-0.440	0.010
2020/01/31 14:05:22.4	1.730	0.270	-0.410	0.010
2020/01/31 14:05:22.5	1.720	0.270	-0.390	0.000
2020/01/31 14:05:22.6	1.730	0.260	-0.370	0.000
2020/01/31 14:05:22.7	1.730	0.260	-0.350	-0.000
2020/01/31 14:05:22.8	1.730	0.250	-0.330	-0.010
2020/01/31 14:05:22.9	1.740	0.250	-0.310	-0.010
2020/01/31 14:05:23.0	1.740	0.240	-0.290	-0.020
2020/01/31 14:05:23.1	1.750	0.230	-0.270	-0.030
2020/01/31 14:05:23.2	1.760	0.220	-0.250	-0.030
2020/01/31 14:05:23.3	1.770	0.210	-0.230	-0.040
2020/01/31 14:05:23.4	1.770	0.200	-0.210	-0.050
2020/01/31 14:05:23.5	1.780	0.190	-0.190	-0.060
2020/01/31 14:05:23.6	1.790	0.170	-0.180	-0.080
2020/01/31 14:05:23.7	1.800	0.160	-0.160	-0.090
2020/01/31 14:05:23.8	1.810	0.150	-0.140	-0.110
2020/01/31 14:05:23.9	1.820	0.130	-0.120	-0.130
2020/01/31 14:05:24.0	1.830	0.110	-0.100	-0.140
2020/01/31 14:05:24.1	1.840	0.090	-0.080	-0.160
2020/01/31 14:05:24.2	1.850	0.070	-0.060	-0.180
2020/01/31 14:05:24.3	1.860	0.050	-0.040	-0.200
2020/01/31 14:05:24.4	1.870	0.030	-0.010	-0.220
2020/01/31 14:05:24.5	1.870	0.000	0.010	-0.240
2020/01/31 14:05:24.6	1.880	-0.020	0.030	-0.260
2020/01/31 14:05:24.7	1.890	-0.050	0.050	-0.270
2020/01/31 14:05:24.8	1.890	-0.070	0.080	-0.280
2020/01/31 14:05:24.9	1.890	-0.100	0.100	-0.290
2020/01/31 14:05:25.0	1.900	-0.130	0.120	-0.300
2020/01/31 14:05:25.1	1.900	-0.160	0.140	-0.310
2020/01/31 14:05:25.2	1.900	-0.190	0.170	-0.310
2020/01/31 14:05:25.3	1.900	-0.220	0.190	-0.310
2020/01/31 14:05:25.4	1.890	-0.250	0.210	-0.310
2020/01/31 14:05:25.5	1.890	-0.280	0.230	-0.310
2020/01/31 14:05:25.6	1.880	-0.320	0.250	-0.310
2020/01/31 14:05:25.7	1.880	-0.350	0.260	-0.310
2020/01/31 14:05:25.8	1.870	-0.380	0.280	-0.300
2020/01/31 14:05:25.9	1.860	-0.410	0.300	-0.300
2020/01/31 14:05:26.0	1.860	-0.440	0.320	-0.290
2020/01/31 14:05:26.1	1.850	-0.470	0.330	-0.290
2020/01/31 14:05:26.2	1.840	-0.490	0.340	-0.290
2020/01/31 14:05:26.3	1.820	-0.520	0.350	-0.290
2020/01/31 14:05:26.4	1.810	-0.540	0.360	-0.290
2020/01/31 14:05:26.5	1.800	-0.560	0.360	-0.290
2020/01/31 14:05:26.6	1.790	-0.580	0.360	-0.290
2020/01/31 14:05:26.7	1.770	-0.590	0.360	-0.290
2020/01/31 14:05:26.8	1.760	-0.600	0.350	-0.290
2020/01/31 14:05:26.9	1.750	-0.610	0.340	-0.300
2020/01/31 14:05:27.0	1.730	-0.610	0.330	-0.300
2020/01/31 14:05:27.1	1.720	-0.610	0.310	-0.300
2020/01/31 14:05:27.2	1.700	-0.610	0.290	-0.300
2020/01/31 14:05:27.3	1.680	-0.600	0.270	-0.300
2020/01/31 14:05:27.4	1.670	-0.580	0.240	-0.300
2020/01/31 14:05:27.5	1.650	-0.560	0.210	-0.300
2020/01/31 14:05:27.6	1.620	-0.530	0.170	-0.290
2020/01/31 14:05:27.7	1.610	-0.500	0.130	-0.290
2020/01/31 14:05:27.8	1.590	-0.470	0.090	-0.280
2020/01/31 14:05:27.9	1.570	-0.430	0.050	-0.270
2020/01/31 14:05:28.0	1.550	-0.390	-0.000	-0.260
2020/01/31 14:05:28.1	1.540	-0.340	-0.050	-0.250
2020/01/31 14:05:28.2	1.520	-0.290	-0.100	-0.240
2020/01/31 14:05:28.3	1.510	-0.230	-0.150	-0.230
2020/01/31 14:05:28.4	1.500	-0.180	-0.210	-0.220
2020/01/31 14:05:28.5	1.490	-0.120	-0.260	-0.200
2020/01/31 14:05:28.6	1.480	-0.050	-0.320	-0.190
2020/01/31 14:05:28.7	1.470	0.010	-0.370	-0.170
2020/01/31 14:05:28.8	1.460	0.080	-0.420	-0.160
2020/01/31 14:05:28.9	1.450	0.140	-0.470	-0.150
2020/01/31 14:05:29.0	1.450	0.210	-0.520	-0.140
2020/01/31 14:05:29.1	1.440	0.280	-0.570	-0.120
2020/01/31 14:05:29.2	1.440	0.340	-0.620	-0.110
2020/01/31 14:05:29.3	1.440	0.400	-0.660	-0.100
2020/01/31 14:05:29.4	1.430	0.460	-0.700	-0.080
2020/01/31 14:05:29.5	1.430	0.520	-0.740	-0.070
2020/01/31 14:05:29.6	1.430	0.580	-0.780	-0.060
2020/01/31 14:05:29.7	1.430	0.630	-0.810	-0.050
2020/01/31 14:05:29.8	1.420	0.680	-0.840	-0.030
2020/01/31 14:05:29.9	1.420	0.720	-0.870	-0.020
2020/01/31 14:05:30.0	1.420	0.760	-0.890	-0.010
2020/01/31 14:05:30.1	1.420	0.790	-0.910	0.000
2020/01/31 14:05:30.2	1.420	0.820	-0.930	0.010
2020/01/31 14:05:30.3	1.420	0.850	-0.940	0.020
2020/01/31 14:05:30.4	1.420	0.870	-0.950	0.040
2020/01/31 14:05:30.5	1.420	0.880	-0.960	0.050
2020/01/31 14:05:30.6	1.410	0.890	-0.960	0.060
2020/01/31 14:05:30.7	1.410	0.890	-0.960	0.070
2020/01/31 14:05:30.8	1.420	0.890	-0.960	0.080
2020/01/31 14:05:30.9	1.420	0.890	-0.960	0.090
2020/01/31 14:05:31.0	1.420	0.880	-0.950	0.100
2020/01/31 14:05:31.1	1.430	0.860	-0.940	0.110
2020/01/31 14:05:31.2	1.440	0.840	-0.930	0.120
2020/01/31 14:05:31.3	1.450	0.820	-0.920	0.120
2020/01/31 14:05:31.4	1.460	0.790	-0.910	0.120
2020/01/31 14:05:31.5	1.480	0.760	-0.890	0.120
2020/01/31 14:05:31.6	1.500	0.730	-0.870	0.130
2020/01/31 14:05:31.7	1.520	0.690	-0.850	0.120
2020/01/31 14:05:31.8	1.540	0.650	-0.830	0.110
2020/01/31 14:05:31.9	1.560	0.610	-0.810	0.090
2020/01/31 14:05:32.0	1.590	0.560	-0.790	0.070
2020/01/31 14:05:32.1	1.610	0.510	-0.760	0.050
2020/01/31 14:05:32.2	1.640	0.470	-0.740	0.020
2020/01/31 14:05:32.3	1.660	0.410	-0.710	-0.010
2020/01/31 14:05:32.4	1.690	0.360	-0.670	-0.040
2020/01/31 14:05:32.5	1.710	0.310	-0.640	-0.070
2020/01/31 14:05:32.6	1.740	0.260	-0.600	-0.110
2020/01/31 14:05:32.7	1.760	0.200	-0.560	-0.150
2020/01/31 14:05:32.8	1.780	0.150	-0.520	-0.180
2020/01/31 14:05:32.9	1.790	0.090	-0.470	-0.220
2020/01/31 14:05:33.0	1.810	0.030	-0.420	-0.250
2020/01/31 14:05:33.1	1.820	-0.020	-0.360	-0.290
2020/01/31 14:05:33.2	1.830	-0.080	-0.300	-0.320
2020/01/31 14:05:33.3	1.830	-0.130	-0.240	-0.350
2020/01/31 14:05:33.4	1.830	-0.190	-0.180	-0.380
2020/01/31 14:05:33.5	1.840	-0.240	-0.110	-0.410
2020/01/31 14:05:33.6	1.840	-0.300	-0.040	-0.430
2020/01/31 14:05:33.7	1.840	-0.350	0.030	-0.450
2020/01/31 14:05:33.8	1.830	-0.400	0.100	-0.480
2020/01/31 14:05:33.9	1.820	-0.450	0.170	-0.500
2020/01/31 14:05:34.0	1.820	-0.500	0.240	-0.530
2020/01/31 14:05:34.1	1.810	-0.540	0.300	-0.550
2020/01/31 14:05:34.2	1.800	-0.590	0.370	-0.580
2020/01/31 14:05:34.3	1.790	-0.630	0.430	-0.600
2020/01/31 14:05:34.4	1.780	-0.670	0.490	-0.620
2020/01/31 14:05:34.5	1.770	-0.710	0.540	-0.640
2020/01/31 14:05:34.6	1.760	-0.740	0.590	-0.660
2020/01/31 14:05:34.7	1.750	-0.780	0.630	-0.680
2020/01/31 14:05:34.8	1.740	-0.810	0.670	-0.700
2020/01/31 14:05:34.9	1.730	-0.830	0.710	-0.720
2020/01/31 14:05:35.0	1.720	-0.850	0.740	-0.730
2020/01/31 14:05:35.1	1.710	-0.870	0.760	-0.750
2020/01/31 14:05:35.2	1.700	-0.890	0.770	-0.760
2020/01/31 14:05:35.3	1.690	-0.900	0.780	-0.780
2020/01/31 14:05:35.4	1.680	-0.910	0.790	-0.790
2020/01/31 14:05:35.5	1.670	-0.910	0.790	-0.800
2020/01/31 14:05:35.6	1.650	-0.910	0.780	-0.810
2020/01/31 14:05:35.7	1.640	-0.910	0.760	-0.820
2020/01/31 14:05:35.8	1.630	-0.900	0.740	-0.820
2020/01/31 14:05:35.9	1.620	-0.890	0.720	-0.830
2020/01/31 14:05:36.0	1.600	-0.880	0.690	-0.830
2020/01/31 14:05:36.1	1.590	-0.860	0.650	-0.820
2020/01/31 14:05:36.2	1.570	-0.840	0.610	-0.820
2020/01/31 14:05:36.3	1.550	-0.810	0.570	-0.810
2020/01/31 14:05:36.4	1.530	-0.780	0.520	-0.790
2020/01/31 14:05:36.5	1.510	-0.750	0.470	-0.780
2020/01/31 14:05:36.6	1.480	-0.710	0.410	-0.760
2020/01/31 14:05:36.7	1.460	-0.670	0.360	-0.730
2020/01/31 14:05:36.8	1.440	-0.630	0.300	-0.700
2020/01/31 14:05:36.9	1.410	-0.580	0.230	-0.670
2020/01/31 14:05:37.0	1.380	-0.530	0.170	-0.630
2020/01/31 14:05:37.1	1.360	-0.480	0.110	-0.600
2020/01/31 14:05:37.2	1.330	-0.420	0.040	-0.560
2020/01/31 14:05:37.3	1.300	-0.370	-0.030	-0.510
2020/01/31 14:05:37.4	1.280	-0.310	-0.100	-0.470
2020/01/31 14:05:37.5	1.250	-0.240	-0.170	-0.420
2020/01/31 14:05:37.6	1.220	-0.180	-0.240	-0.370
2020/01/31 14:05:37.7	1.200	-0.120	-0.310	-0.320
2020/01/31 14:05:37.8	1.180	-0.050	-0.370	-0.280
2020/01/31 14:05:37.9	1.150	0.020	-0.440	-0.230
2020/01/31 14:05:38.0	1.130	0.080	-0.500	-0.180
2020/01/31 14:05:38.1	1.110	0.150	-0.560	-0.140
2020/01/31 14:05:38.2	1.100	0.220	-0.620	-0.090
2020/01/31 14:05:38.3	1.080	0.280	-0.680	-0.040
2020/01/31 14:05:38.4	1.060	0.350	-0.730	-0.000
2020/01/31 14:05:38.5	1.050	0.410	-0.780	0.040
2020/01/31 14:05:38.6	1.030	0.470	-0.820	0.080
2020/01/31 14:05:38.7	1.010	0.530	-0.860	0.120
2020/01/31 14:05:38.8	1.000	0.590	-0.890	0.160
2020/01/31 14:05:38.9	0.980	0.640	-0.920	0.200
2020/01/31 14:05:39.0	0.970	0.690	-0.940	0.240
2020/01/31 14:05:39.1	0.950	0.730	-0.950	0.280
2020/01/31 14:05:39.2	0.940	0.770	-0.960	0.320
2020/01/31 14:05:39.3	0.920	0.800	-0.970	0.360
2020/01/31 14:05:39.4	0.900	0.830	-0.960	0.400
2020/01/31 14:05:39.5	0.890	0.860	-0.960	0.430
2020/01/31 14:05:39.6	0.870	0.880	-0.940	0.480
2020/01/31 14:05:39.7	0.860	0.890	-0.920	0.510
2020/01/31 14:05:39.8	0.840	0.900	-0.900	0.550
2020/01/31 14:05:39.9	0.820	0.900	-0.870	0.580
2020/01/31 14:05:40.0	0.810	0.900	-0.840	0.610
2020/01/31 14:05:40.1	0.790	0.890	-0.800	0.640
2020/01/31 14:05:40.2	0.770	0.870	-0.760	0.670
2020/01/31 14:05:40.3	0.760	0.850	-0.720	0.690
2020/01/31 14:05:40.4	0.740	0.830	-0.670	0.720
2020/01/31 14:05:40.5	0.720	0.800	-0.630	0.740
2020/01/31 14:05:40.6	0.700	0.770	-0.580	0.750
2020/01/31 14:05:40.7	0.690	0.730	-0.530	0.760
2020/01/31 14:05:40.8	0.680	0.690	-0.480	0.770
2020/01/31 14:05:40.9	0.670	0.650	-0.440	0.770
2020/01/31 14:05:41.0	0.660	0.610	-0.400	0.770
2020/01/31 14:05:41.1	0.650	0.560	-0.350	0.770
2020/01/31 14:05:41.2	0.640	0.510	-0.320	0.760
2020/01/31 14:05:41.3	0.630	0.460	-0.280	0.740
2020/01/31 14:05:41.4	0.630	0.410	-0.260	0.720
2020/01/31 14:05:41.5	0.630	0.370	-0.230	0.700
2020/01/31 14:05:41.6	0.640	0.320	-0.220	0.670
2020/01/31 14:05:41.7	0.650	0.270	-0.210	0.630
2020/01/31 14:05:41.8	0.660	0.230	-0.200	0.590
2020/01/31 14:05:41.9	0.670	0.180	-0.200	0.540
2020/01/31 14:05:42.0	0.690	0.140	-0.200	0.490
2020/01/31 14:05:42.1	0.710	0.100	-0.210	0.430
2020/01/31 14:05:42.2	0.730	0.070	-0.220	0.370
2020/01/31 14:05:42.3	0.750	0.030	-0.240	0.310
2020/01/31 14:05:42.4	0.780	0.000	-0.260	0.240
2020/01/31 14:05:42.5	0.810	-0.020	-0.290	0.170
2020/01/31 14:05:42.6	0.850	-0.050	-0.310	0.090
2020/01/31 14:05:42.7	0.880	-0.070	-0.340	0.020
2020/01/31 14:05:42.8	0.920	-0.090	-0.370	-0.060
2020/01/31 14:05:42.9	0.950	-0.100	-0.410	-0.140
2020/01/31 14:05:43.0	0.990	-0.110	-0.440	-0.210
2020/01/31 14:05:43.1	1.040	-0.120	-0.470	-0.290
2020/01/31 14:05:43.2	1.080	-0.130	-0.490	-0.360
2020/01/31 14:05:43.3	1.120	-0.140	-0.520	-0.430
2020/01/31 14:05:43.4	1.160	-0.140	-0.540	-0.500
2020/01/31 14:05:43.5	1.200	-0.140	-0.550	-0.570
2020/01/31 14:05:43.6	1.230	-0.140	-0.570	-0.630
2020/01/31 14:05:43.7	1.270	-0.140	-0.570	-0.690
2020/01/31 14:05:43.8	1.300	-0.140	-0.580	-0.750
2020/01/31 14:05:43.9	1.340	-0.140	-0.570	-0.800
2020/01/31 14:05:44.0	1.370	-0.140	-0.560	-0.850
2020/01/31 14:05:44.1	1.400	-0.140	-0.550	-0.890
2020/01/31 14:05:44.2	1.420	-0.140	-0.530	-0.930
2020/01/31 14:05:44.3	1.440	-0.140	-0.500	-0.960
2020/01/31 14:05:44.4	1.460	-0.140	-0.470	-0.990
2020/01/31 14:05:44.5	1.470	-0.150	-0.430	-1.000
2020/01/31 14:05:44.6	1.480	-0.150	-0.390	-1.020
2020/01/31 14:05:44.7	1.480	-0.160	-0.340	-1.020
2020/01/31 14:05:44.8	1.480	-0.170	-0.290	-1.030
2020/01/31 14:05:44.9	1.470	-0.180	-0.230	-1.030
2020/01/31 14:05:45.0	1.460	-0.190	-0.180	-1.020
2020/01/31 14:05:45.1	1.440	-0.200	-0.120	-1.010
2020/01/31 14:05:45.2	1.420	-0.220	-0.060	-0.990
2020/01/31 14:05:45.3	1.400	-0.230	-0.000	-0.970
2020/01/31 14:05:45.4	1.370	-0.250	0.060	-0.950
2020/01/31 14:05:45.5	1.340	-0.270	0.120	-0.920
2020/01/31 14:05:45.6	1.310	-0.290	0.170	-0.890
2020/01/31 14:05:45.7	1.270	-0.310	0.230	-0.860
2020/01/31 14:05:45.8	1.240	-0.340	0.280	-0.830
2020/01/31 14:05:45.9	1.200	-0.360	0.330	-0.790
2020/01/31 14:05:46.0	1.150	-0.380	0.380	-0.760
2020/01/31 14:05:46.1	1.110	-0.400	0.420	-0.720
2020/01/31 14:05:46.2	1.070	-0.420	0.460	-0.680
2020/01/31 14:05:46.3	1.020	-0.450	0.500	-0.650
2020/01/31 14:05:46.4	0.970	-0.470	0.530	-0.610
2020/01/31 14:05:46.5	0.920	-0.490	0.550	-0.570
2020/01/31 14:05:46.6	0.880	-0.500	0.570	-0.530
2020/01/31 14:05:46.7	0.830	-0.520	0.580	-0.490
2020/01/31 14:05:46.8	0.780	-0.530	0.590	-0.450
2020/01/31 14:05:46.9	0.730	-0.540	0.590	-0.410
2020/01/31 14:05:47.0	0.680	-0.550	0.590	-0.370
2020/01/31 14:05:47.1	0.630	-0.550	0.580	-0.330
2020/01/31 14:05:47.2	0.590	-0.550	0.560	-0.290
2020/01/31 14:05:47.3	0.540	-0.550	0.540	-0.250
2020/01/31 14:05:47.4	0.500	-0.540	0.510	-0.220
2020/01/31 14:05:47.5	0.460	-0.530	0.480	-0.180
2020/01/31 14:05:47.6	0.420	-0.520	0.440	-0.150
2020/01/31 14:05:47.7	0.390	-0.500	0.400	-0.120
2020/01/31 14:05:47.8	0.350	-0.470	0.350	-0.090
2020/01/31 14:05:47.9	0.320	-0.450	0.300	-0.060
2020/01/31 14:05:48.0	0.290	-0.420	0.250	-0.030
2020/01/31 14:05:48.1	0.270	-0.380	0.200	-0.010
2020/01/31 14:05:48.2	0.250	-0.340	0.140	0.020
2020/01/31 14:05:48.3	0.230	-0.300	0.080	0.040
2020/01/31 14:05:48.4	0.210	-0.260	0.020	0.060
2020/01/31 14:05:48.5	0.200	-0.210	-0.050	0.080
2020/01/31 14:05:48.6	0.180	-0.160	-0.110	0.100
2020/01/31 14:05:48.7	0.170	-0.110	-0.170	0.110
2020/01/31 14:05:48.8	0.160	-0.060	-0.230	0.130
2020/01/31 14:05:48.9	0.160	-0.000	-0.290	0.140
2020/01/31 14:05:49.0	0.160	0.050	-0.340	0.160
2020/01/31 14:05:49.1	0.160	0.110	-0.390	0.170
2020/01/31 14:05:49.2	0.160	0.160	-0.450	0.180
2020/01/31 14:05:49.3	0.170	0.210	-0.490	0.200
2020/01/31 14:05:49.4	0.170	0.270	-0.540	0.210
2020/01/31 14:05:49.5	0.180	0.310	-0.580	0.220
2020/01/31 14:05:49.6	0.190	0.360	-0.620	0.230
2020/01/31 14:05:49.7	0.200	0.400	-0.650	0.240
2020/01/31 14:05:49.8	0.210	0.440	-0.680	0.240
2020/01/31 14:05:49.9	0.220	0.480	-0.700	0.250
2020/01/31 14:05:50.0	0.230	0.510	-0.720	0.260
2020/01/31 14:05:50.1	0.240	0.540	-0.740	0.260
2020/01/31 14:05:50.2	0.250	0.560	-0.750	0.270
2020/01/31 14:05:50.3	0.270	0.570	-0.750	0.270
2020/01/31 14:05:50.4	0.280	0.580	-0.760	0.270
2020/01/31 14:05:50.5	0.300	0.590	-0.750	0.270
2020/01/31 14:05:50.6	0.310	0.590	-0.750	0.280
2020/01/31 14:05:50.7	0.330	0.580	-0.740	0.280
2020/01/31 14:05:50.8	0.350	0.570	-0.730	0.280
2020/01/31 14:05:50.9	0.360	0.560	-0.720	0.280
2020/01/31 14:05:51.0	0.380	0.530	-0.700	0.280
2020/01/31 14:05:51.1	0.390	0.510	-0.680	0.280
2020/01/31 14:05:51.2	0.410	0.480	-0.650	0.270
2020/01/31 14:05:51.3	0.420	0.450	-0.630	0.270
2020/01/31 14:05:51.4	0.440	0.410	-0.600	0.270
2020/01/31 14:05:51.5	0.450	0.370	-0.580	0.260
2020/01/31 14:05:51.6	0.480	0.330	-0.550	0.260
2020/01/31 14:05:51.7	0.490	0.280	-0.520	0.250
2020/01/31 14:05:51.8	0.500	0.240	-0.490	0.250
2020/01/31 14:05:51.9	0.510	0.190	-0.460	0.240
2020/01/31 14:05:52.0	0.520	0.150	-0.430	0.240
2020/01/31 14:05:52.1	0.530	0.100	-0.400	0.230
2020/01/31 14:05:52.2	0.530	0.050	-0.370	0.230
2020/01/31 14:05:52.3	0.540	0.010	-0.350	0.220
2020/01/31 14:05:52.4	0.550	-0.030	-0.320	0.220
2020/01/31 14:05:52.5	0.550	-0.070	-0.300	0.220
2020/01/31 14:05:52.6	0.570	-0.100	-0.280	0.210
2020/01/31 14:05:52.7	0.580	-0.130	-0.260	0.210
2020/01/31 14:05:52.8	0.580	-0.160	-0.240	0.210
2020/01/31 14:05:52.9	0.590	-0.180	-0.220	0.200
2020/01/31 14:05:53.0	0.600	-0.200	-0.210	0.200
2020/01/31 14:05:53.1	0.610	-0.210	-0.210	0.190
2020/01/31 14:05:53.2	0.620	-0.220	-0.200	0.190
2020/01/31 14:05:53.3	0.630	-0.220	-0.200	0.180
2020/01/31 14:05:53.4	0.650	-0.210	-0.200	0.180
2020/01/31 14:05:53.5	0.660	-0.200	-0.210	0.170
2020/01/31 14:05:53.6	0.670	-0.190	-0.220	0.160
2020/01/31 14:05:53.7	0.690	-0.170	-0.230	0.150
2020/01/31 14:05:53.8	0.700	-0.150	-0.240	0.140
2020/01/31 14:05:53.9	0.710	-0.120	-0.260	0.130
2020/01/31 14:05:54.0	0.720	-0.090	-0.280	0.130
2020/01/31 14:05:54.1	0.730	-0.060	-0.290	0.120
2020/01/31 14:05:54.2	0.740	-0.020	-0.310	0.110
2020/01/31 14:05:54.3	0.740	0.020	-0.330	0.100
2020/01/31 14:05:54.4	0.740	0.060	-0.350	0.100
2020/01/31 14:05:54.5	0.750	0.100	-0.360	0.090
2020/01/31 14:05:54.6	0.740	0.150	-0.380	0.090
2020/01/31 14:05:54.7	0.740	0.190	-0.390	0.080
2020/01/31 14:05:54.8	0.740	0.230	-0.400	0.080
2020/01/31 14:05:54.9	0.730	0.270	-0.410	0.070
2020/01/31 14:05:55.0	0.720	0.310	-0.410	0.070
2020/01/31 14:05:55.1	0.710	0.350	-0.410	0.070
2020/01/31 14:05:55.2	0.700	0.380	-0.410	0.070
2020/01/31 14:05:55.3	0.690	0.410	-0.400	0.080
2020/01/31 14:05:55.4	0.670	0.430	-0.390	0.080
2020/01/31 14:05:55.5	0.660	0.460	-0.370	0.090
2020/01/31 14:05:55.6	0.640	0.470	-0.360	0.100
2020/01/31 14:05:55.7	0.620	0.480	-0.340	0.110
2020/01/31 14:05:55.8	0.600	0.490	-0.310	0.120
2020/01/31 14:05:55.9	0.580	0.490	-0.280	0.130
2020/01/31 14:05:56.0	0.560	0.480	-0.250	0.140
2020/01/31 14:05:56.1	0.540	0.470	-0.220	0.150
2020/01/31 14:05:56.2	0.520	0.450	-0.180	0.160
2020/01/31 14:05:56.3	0.500	0.430	-0.150	0.160
2020/01/31 14:05:56.4	0.480	0.400	-0.110	0.160
2020/01/31 14:05:56.5	0.460	0.370	-0.070	0.160
2020/01/31 14:05:56.6	0.450	0.330	-0.040	0.160
2020/01/31 14:05:56.7	0.430	0.280	-0.000	0.150
2020/01/31 14:05:56.8	0.420	0.230	0.030	0.140
2020/01/31 14:05:56.9	0.410	0.180	0.070	0.120
2020/01/31 14:05:57.0	0.400	0.130	0.100	0.090
2020/01/31 14:05:57.1	0.390	0.070	0.130	0.060
2020/01/31 14:05:57.2	0.380	0.010	0.160	0.030
2020/01/31 14:05:57.3	0.380	-0.060	0.180	-0.010
2020/01/31 14:05:57.4	0.380	-0.120	0.210	-0.050
2020/01/31 14:05:57.5	0.370	-0.190	0.230	-0.100
2020/01/31 14:05:57.6	0.370	-0.250	0.240	-0.150
2020/01/31 14:05:57.7	0.370	-0.310	0.260	-0.200
2020/01/31 14:05:57.8	0.370	-0.380	0.270	-0.240
2020/01/31 14:05:57.9	0.370	-0.430	0.280	-0.290
2020/01/31 14:05:58.0	0.370	-0.490	0.290	-0.340
2020/01/31 14:05:58.1	0.370	-0.550	0.300	-0.380
2020/01/31 14:05:58.2	0.370	-0.600	0.300	-0.430
2020/01/31 14:05:58.3	0.370	-0.650	0.300	-0.470
2020/01/31 14:05:58.4	0.360	-0.690	0.300	-0.510
2020/01/31 14:05:58.5	0.360	-0.730	0.300	-0.550
2020/01/31 14:05:58.6	0.360	-0.760	0.300	-0.580
2020/01/31 14:05:58.7	0.350	-0.800	0.300	-0.620
2020/01/31 14:05:58.8	0.350	-0.820	0.290	-0.650
2020/01/31 14:05:58.9	0.340	-0.840	0.280	-0.680
2020/01/31 14:05:59.0	0.330	-0.850	0.270	-0.710
2020/01/31 14:05:59.1	0.320	-0.860	0.260	-0.740
2020/01/31 14:05:59.2	0.310	-0.870	0.240	-0.770
2020/01/31 14:05:59.3	0.300	-0.860	0.220	-0.800
2020/01/31 14:05:59.4	0.290	-0.850	0.200	-0.820
2020/01/31 14:05:59.5	0.280	-0.840	0.170	-0.850
2020/01/31 14:05:59.6	0.270	-0.820	0.140	-0.870
2020/01/31 14:05:59.7	0.270	-0.790	0.100	-0.890
2020/01/31 14:05:59.8	0.260	-0.760	0.070	-0.910
2020/01/31 14:05:59.9	0.250	-0.720	0.030	-0.930
2020/01/31 14:06:00.0	0.250	-0.680	-0.020	-0.950
2020/01/31 14:06:00.1	0.240	-0.630	-0.070	-0.970
2020/01/31 14:06:00.2	0.240	-0.580	-0.120	-0.990
2020/01/31 14:06:00.3	0.240	-0.520	-0.180	-1.010
2020/01/31 14:06:00.4	0.240	-0.460	-0.240	-1.020
2020/01/31 14:06:00.5	0.240	-0.400	-0.300	-1.030
2020/01/31 14:06:00.6	0.240	-0.330	-0.370	-1.040
2020/01/31 14:06:00.7	0.240	-0.260	-0.440	-1.050
2020/01/31 14:06:00.8	0.250	-0.190	-0.500	-1.050
2020/01/31 14:06:00.9	0.260	-0.120	-0.570	-1.050
2020/01/31 14:06:01.0	0.260	-0.040	-0.640	-1.050
2020/01/31 14:06:01.1	0.270	0.030	-0.710	-1.040
2020/01/31 14:06:01.2	0.280	0.110	-0.770	-1.040
2020/01/31 14:06:01.3	0.290	0.180	-0.830	-1.020
2020/01/31 14:06:01.4	0.300	0.250	-0.890	-1.010
2020/01/31 14:06:01.5	0.310	0.320	-0.940	-0.990
2020/01/31 14:06:01.6	0.310	0.390	-1.000	-0.970
2020/01/31 14:06:01.7	0.320	0.460	-1.040	-0.940
2020/01/31 14:06:01.8	0.330	0.520	-1.080	-0.910
2020/01/31 14:06:01.9	0.340	0.580	-1.110	-0.880
2020/01/31 14:06:02.0	0.350	0.630	-1.130	-0.850
2020/01/31 14:06:02.1	0.360	0.680	-1.150	-0.820
2020/01/31 14:06:02.2	0.370	0.720	-1.160	-0.780
2020/01/31 14:06:02.3	0.380	0.750	-1.160	-0.740
2020/01/31 14:06:02.4	0.390	0.780	-1.150	-0.710
2020/01/31 14:06:02.5	0.400	0.810	-1.140	-0.670
2020/01/31 14:06:02.6	0.410	0.820	-1.120	-0.620
2020/01/31 14:06:02.7	0.420	0.830	-1.100	-0.580
2020/01/31 14:06:02.8	0.430	0.840	-1.060	-0.530
2020/01/31 14:06:02.9	0.440	0.830	-1.020	-0.490
2020/01/31 14:06:03.0	0.450	0.820	-0.980	-0.450
2020/01/31 14:06:03.1	0.460	0.810	-0.930	-0.410
2020/01/31 14:06:03.2	0.470	0.780	-0.870	-0.370
2020/01/31 14:06:03.3	0.480	0.760	-0.820	-0.330
2020/01/31 14:06:03.4	0.490	0.720	-0.750	-0.290
2020/01/31 14:06:03.5	0.500	0.680	-0.690	-0.250
2020/01/31 14:06:03.6	0.510	0.640	-0.620	-0.210
2020/01/31 14:06:03.7	0.520	0.590	-0.540	-0.170
2020/01/31 14:06:03.8	0.530	0.540	-0.470	-0.140
2020/01/31 14:06:03.9	0.530	0.480	-0.390	-0.100
2020/01/31 14:06:04.0	0.540	0.420	-0.320	-0.060
2020/01/31 14:06:04.1	0.540	0.360	-0.240	-0.030
2020/01/31 14:06:04.2	0.550	0.290	-0.160	0.000
2020/01/31 14:06:04.3	0.550	0.230	-0.080	0.040
2020/01/31 14:06:04.4	0.550	0.160	-0.010	0.060
2020/01/31 14:06:04.5	0.550	0.090	0.070	0.090
2020/01/31 14:06:04.6	0.570	0.020	0.140	0.120
2020/01/31 14:06:04.7	0.570	-0.050	0.210	0.140
2020/01/31 14:06:04.8	0.560	-0.110	0.280	0.160
2020/01/31 14:06:04.9	0.560	-0.180	0.340	0.180
2020/01/31 14:06:05.0	0.560	-0.240	0.390	0.200
2020/01/31 14:06:05.1	0.560	-0.300	0.450	0.210
2020/01/31 14:06:05.2	0.550	-0.360	0.490	0.220
2020/01/31 14:06:05.3	0.550	-0.410	0.530	0.230
2020/01/31 14:06:05.4	0.540	-0.460	0.560	0.240
2020/01/31 14:06:05.5	0.540	-0.500	0.590	0.240
2020/01/31 14:06:05.6	0.530	-0.540	0.610	0.240
2020/01/31 14:06:05.7	0.520	-0.570	0.620	0.250
2020/01/31 14:06:05.8	0.510	-0.600	0.630	0.250
2020/01/31 14:06:05.9	0.500	-0.620	0.630	0.250
2020/01/31 14:06:06.0	0.500	-0.630	0.620	0.250
2020/01/31 14:06:06.1	0.490	-0.640	0.600	0.250
2020/01/31 14:06:06.2	0.480	-0.640	0.580	0.250
2020/01/31 14:06:06.3	0.470	-0.630	0.550	0.250
2020/01/31 14:06:06.4	0.470	-0.620	0.520	0.250
2020/01/31 14:06:06.5	0.460	-0.600	0.480	0.240
2020/01/31 14:06:06.6	0.450	-0.580	0.440	0.240
2020/01/31 14:06:06.7	0.450	-0.550	0.380	0.240
2020/01/31 14:06:06.8	0.440	-0.510	0.330	0.230
2020/01/31 14:06:06.9	0.440	-0.470	0.270	0.230
2020/01/31 14:06:07.0	0.430	-0.430	0.210	0.220
2020/01/31 14:06:07.1	0.430	-0.380	0.150	0.220
2020/01/31 14:06:07.2	0.430	-0.330	0.090	0.220
2020/01/31 14:06:07.3	0.420	-0.270	0.020	0.220
2020/01/31 14:06:07.4	0.420	-0.220	-0.040	0.220
2020/01/31 14:06:07.5	0.420	-0.160	-0.110	0.220
2020/01/31 14:06:07.6	0.410	-0.100	-0.170	0.220
2020/01/31 14:06:07.7	0.410	-0.040	-0.230	0.220
2020/01/31 14:06:07.8	0.400	0.020	-0.290	0.220
2020/01/31 14:06:07.9	0.400	0.080	-0.340	0.230
2020/01/31 14:06:08.0	0.390	0.140	-0.380	0.240
2020/01/31 14:06:08.1	0.380	0.200	-0.420	0.250
2020/01/31 14:06:08.2	0.370	0.250	-0.450	0.260
2020/01/31 14:06:08.3	0.350	0.300	-0.480	0.270
2020/01/31 14:06:08.4	0.340	0.350	-0.500	0.290
2020/01/31 14:06:08.5	0.320	0.390	-0.510	0.310
2020/01/31 14:06:08.6	0.310	0.420	-0.510	0.340
2020/01/31 14:06:08.7	0.280	0.460	-0.510	0.360
2020/01/31 14:06:08.8	0.260	0.480	-0.500	0.390
2020/01/31 14:06:08.9	0.230	0.500	-0.490	0.420
2020/01/31 14:06:09.0	0.200	0.510	-0.460	0.460
2020/01/31 14:06:09.1	0.160	0.520	-0.440	0.490
2020/01/31 14:06:09.2	0.130	0.520	-0.400	0.530
2020/01/31 14:06:09.3	0.090	0.520	-0.370	0.570
2020/01/31 14:06:09.4	0.050	0.510	-0.330	0.600
2020/01/31 14:06:09.5	0.010	0.490	-0.290	0.640
2020/01/31 14:06:09.6	359.970	0.470	-0.250	0.680
2020/01/31 14:06:09.7	359.930	0.440	-0.200	0.710
2020/01/31 14:06:09.8	359.900	0.410	-0.160	0.740
2020/01/31 14:06:09.9	359.860	0.370	-0.120	0.770
2020/01/31 14:06:10.0	359.820	0.330	-0.080	0.790
2020/01/31 14:06:10.1	359.790	0.280	-0.050	0.810
2020/01/31 14:06:10.2	359.760	0.230	-0.010	0.820
2020/01/31 14:06:10.3	359.730	0.180	0.010	0.820
2020/01/31 14:06:10.4	359.710	0.130	0.030	0.820
2020/01/31 14:06:10.5	359.690	0.070	0.050	0.810
2020/01/31 14:06:10.6	359.660	0.020	0.060	0.790
2020/01/31 14:06:10.7	359.640	-0.040	0.060	0.760
2020/01/31 14:06:10.8	359.630	-0.090	0.050	0.730
2020/01/31 14:06:10.9	359.620	-0.150	0.040	0.690
2020/01/31 14:06:11.0	359.620	-0.200	0.030	0.640
2020/01/31 14:06:11.1	359.610	-0.250	0.000	0.590
2020/01/31 14:06:11.2	359.610	-0.290	-0.030	0.520
2020/01/31 14:06:11.3	359.620	-0.330	-0.060	0.460
2020/01/31 14:06:11.4	359.620	-0.370	-0.100	0.390
2020/01/31 14:06:11.5	359.630	-0.400	-0.150	0.310
2020/01/31 14:06:11.6	359.630	-0.430	-0.200	0.230
2020/01/31 14:06:11.7	359.640	-0.450	-0.260	0.150
2020/01/31 14:06:11.8	359.660	-0.470	-0.310	0.070
2020/01/31 14:06:11.9	359.670	-0.470	-0.370	-0.000
2020/01/31 14:06:12.0	359.690	-0.480	-0.440	-0.080
2020/01/31 14:06:12.1	359.710	-0.480	-0.500	-0.160
2020/01/31 14:06:12.2	359.730	-0.470	-0.560	-0.240
2020/01/31 14:06:12.3	359.750	-0.460	-0.630	-0.320
2020/01/31 14:06:12.4	359.780	-0.440	-0.690	-0.390
2020/01/31 14:06:12.5	359.810	-0.410	-0.760	-0.470
2020/01/31 14:06:12.6	359.840	-0.380	-0.820	-0.540
2020/01/31 14:06:12.7	359.870	-0.350	-0.890	-0.620
2020/01/31 14:06:12.8	359.900	-0.310	-0.950	-0.690
2020/01/31 14:06:12.9	359.930	-0.270	-1.010	-0.770
2020/01/31 14:06:13.0	359.970	-0.230	-1.060	-0.840
2020/01/31 14:06:13.1	0.010	-0.180	-1.110	-0.920
2020/01/31 14:06:13.2	0.040	-0.130	-1.160	-0.990
2020/01/31 14:06:13.3	0.080	-0.080	-1.200	-1.060
2020/01/31 14:06:13.4	0.120	-0.030	-1.240	-1.130
2020/01/31 14:06:13.5	0.170	0.020	-1.270	-1.200
2020/01/31 14:06:13.6	0.200	0.070	-1.300	-1.270
2020/01/31 14:06:13.7	0.240	0.120	-1.320	-1.330
2020/01/31 14:06:13.8	0.290	0.170	-1.330	-1.390
2020/01/31 14:06:13.9	0.330	0.220	-1.330	-1.450
2020/01/31 14:06:14.0	0.380	0.270	-1.330	-1.500
2020/01/31 14:06:14.1	0.420	0.310	-1.310	-1.540
2020/01/31 14:06:14.2	0.470	0.350	-1.290	-1.580
2020/01/31 14:06:14.3	0.510	0.390	-1.260	-1.620
2020/01/31 14:06:14.4	0.560	0.420	-1.220	-1.640
2020/01/31 14:06:14.5	0.600	0.450	-1.170	-1.660
2020/01/31 14:06:14.6	0.630	0.480	-1.120	-1.670
2020/01/31 14:06:14.7	0.670	0.500	-1.050	-1.670
2020/01/31 14:06:14.8	0.710	0.510	-0.980	-1.670
2020/01/31 14:06:14.9	0.740	0.520	-0.890	-1.650
2020/01/31 14:06:15.0	0.760	0.520	-0.800	-1.630
2020/01/31 14:06:15.1	0.790	0.520	-0.700	-1.600
2020/01/31 14:06:15.2	0.800	0.510	-0.590	-1.570
2020/01/31 14:06:15.3	0.820	0.490	-0.480	-1.520
2020/01/31 14:06:15.4	0.830	0.480	-0.360	-1.470
2020/01/31 14:06:15.5	0.830	0.450	-0.230	-1.410
2020/01/31 14:06:15.6	0.830	0.420	-0.110	-1.340
2020/01/31 14:06:15.7	0.830	0.390	0.030	-1.280
2020/01/31 14:06:15.8	0.820	0.350	0.160	-1.200
2020/01/31 14:06:15.9	0.800	0.300	0.290	-1.120
2020/01/31 14:06:16.0	0.780	0.260	0.420	-1.040
2020/01/31 14:06:16.1	0.760	0.210	0.550	-0.960
2020/01/31 14:06:16.2	0.730	0.150	0.680	-0.870
2020/01/31 14:06:16.3	0.700	0.100	0.800	-0.780
2020/01/31 14:06:16.4	0.660	0.040	0.910	-0.700
2020/01/31 14:06:16.5	0.620	-0.020	1.020	-0.610
2020/01/31 14:06:16.6	0.570	-0.080	1.110	-0.510
2020/01/31 14:06:16.7	0.530	-0.130	1.200	-0.420
2020/01/31 14:06:16.8	0.480	-0.190	1.280	-0.330
2020/01/31 14:06:16.9	0.420	-0.250	1.350	-0.250
2020/01/31 14:06:17.0	0.360	-0.300	1.410	-0.160
2020/01/31 14:06:17.1	0.300	-0.360	1.450	-0.070
2020/01/31 14:06:17.2	0.240	-0.410	1.490	0.020
2020/01/31 14:06:17.3	0.170	-0.450	1.510	0.110
2020/01/31 14:06:17.4	0.100	-0.500	1.520	0.190
2020/01/31 14:06:17.5	0.020	-0.530	1.510	0.280
2020/01/31 14:06:17.6	359.940	-0.570	1.490	0.370
2020/01/31 14:06:17.7	359.870	-0.600	1.460	0.450
2020/01/31 14:06:17.8	359.800	-0.620	1.420	0.530
2020/01/31 14:06:17.9	359.720	-0.640	1.360	0.600
2020/01/31 14:06:18.0	359.650	-0.650	1.300	0.670
2020/01/31 14:06:18.1	359.590	-0.650	1.210	0.730
2020/01/31 14:06:18.2	359.530	-0.650	1.120	0.790
2020/01/31 14:06:18.3	359.470	-0.640	1.020	0.850
2020/01/31 14:06:18.4	359.410	-0.620	0.900	0.900
2020/01/31 14:06:18.5	359.370	-0.600	0.780	0.940
2020/01/31 14:06:18.6	359.320	-0.570	0.650	0.970
2020/01/31 14:06:18.7	359.280	-0.540	0.510	1.000
2020/01/31 14:06:18.8	359.250	-0.500	0.360	1.020
2020/01/31 14:06:18.9	359.230	-0.450	0.210	1.040
2020/01/31 14:06:19.0	359.220	-0.400	0.050	1.040
2020/01/31 14:06:19.1	359.210	-0.340	-0.120	1.040
2020/01/31 14:06:19.2	359.210	-0.280	-0.280	1.040
2020/01/31 14:06:19.3	359.210	-0.210	-0.440	1.020
2020/01/31 14:06:19.4	359.220	-0.140	-0.610	1.010
2020/01/31 14:06:19.5	359.230	-0.070	-0.770	0.980
2020/01/31 14:06:19.6	359.240	0.000	-0.920	0.950
2020/01/31 14:06:19.7	359.260	0.070	-1.070	0.920
2020/01/31 14:06:19.8	359.290	0.150	-1.210	0.890
2020/01/31 14:06:19.9	359.320	0.220	-1.350	0.850
2020/01/31 14:06:20.0	359.350	0.290	-1.470	0.820
2020/01/31 14:06:20.1	359.380	0.360	-1.580	0.780
2020/01/31 14:06:20.2	359.420	0.430	-1.670	0.750
2020/01/31 14:06:20.3	359.450	0.490	-1.750	0.720
2020/01/31 14:06:20.4	359.490	0.550	-1.820	0.690
2020/01/31 14:06:20.5	359.520	0.610	-1.870	0.660
2020/01/31 14:06:20.6	359.570	0.660	-1.900	0.640
2020/01/31 14:06:20.7	359.600	0.710	-1.920	0.620
2020/01/31 14:06:20.8	359.640	0.750	-1.920	0.610
2020/01/31 14:06:20.9	359.670	0.780	-1.900	0.600
2020/01/31 14:06:21.0	359.710	0.810	-1.870	0.600
2020/01/31 14:06:21.1	359.740	0.830	-1.820	0.590
2020/01/31 14:06:21.2	359.770	0.840	-1.750	0.600
2020/01/31 14:06:21.3	359.800	0.850	-1.680	0.610
2020/01/31 14:06:21.4	359.830	0.850	-1.590	0.620
2020/01/31 14:06:21.5	359.860	0.850	-1.490	0.630
2020/01/31 14:06:21.6	359.910	0.830	-1.380	0.650
2020/01/31 14:06:21.7	359.940	0.810	-1.260	0.660
2020/01/31 14:06:21.8	359.960	0.790	-1.140	0.680
2020/01/31 14:06:21.9	359.990	0.760	-1.010	0.690
2020/01/31 14:06:22.0	0.010	0.720	-0.880	0.710
2020/01/31 14:06:22.1	0.040	0.680	-0.750	0.720
2020/01/31 14:06:22.2	0.060	0.630	-0.610	0.730
2020/01/31 14:06:22.3	0.080	0.580	-0.480	0.730
2020/01/31 14:06:22.4	0.100	0.520	-0.350	0.740
2020/01/31 14:06:22.5	0.120	0.460	-0.220	0.740
2020/01/31 14:06:22.6	0.150	0.400	-0.100	0.740
2020/01/31 14:06:22.7	0.170	0.330	0.020	0.730
2020/01/31 14:06:22.8	0.190	0.270	0.130	0.720
2020/01/31 14:06:22.9	0.200	0.200	0.230	0.700
2020/01/31 14:06:23.0	0.220	0.130	0.320	0.680
2020/01/31 14:06:23.1	0.240	0.060	0.410	0.650
2020/01/31 14:06:23.2	0.250	-0.010	0.490	0.620
2020/01/31 14:06:23.3	0.270	-0.070	0.560	0.590
2020/01/31 14:06:23.4	0.280	-0.140	0.620	0.550
2020/01/31 14:06:23.5	0.290	-0.210	0.670	0.510
2020/01/31 14:06:23.6	0.300	-0.270	0.710	0.460
2020/01/31 14:06:23.7	0.300	-0.340	0.740	0.410
2020/01/31 14:06:23.8	0.300	-0.400	0.760	0.360
2020/01/31 14:06:23.9	0.310	-0.450	0.780	0.300
2020/01/31 14:06:24.0	0.300	-0.510	0.780	0.240
2020/01/31 14:06:24.1	0.300	-0.560	0.780	0.170
2020/01/31 14:06:24.2	0.290	-0.600	0.760	0.100
2020/01/31 14:06:24.3	0.290	-0.640	0.740	0.030
2020/01/31 14:06:24.4	0.280	-0.680	0.720	-0.040
2020/01/31 14:06:24.5	0.270	-0.710	0.680	-0.110
2020/01/31 14:06:24.6	0.240	-0.740	0.640	-0.190
2020/01/31 14:06:24.7	0.230	-0.760	0.590	-0.260
2020/01/31 14:06:24.8	0.210	-0.780	0.540	-0.330
2020/01/31 14:06:24.9	0.180	-0.790	0.490	-0.400
2020/01/31 14:06:25.0	0.160	-0.800	0.430	-0.470
2020/01/31 14:06:25.1	0.130	-0.800	0.370	-0.530
2020/01/31 14:06:25.2	0.100	-0.790	0.300	-0.600
2020/01/31 14:06:25.3	0.070	-0.780	0.240	-0.660
2020/01/31 14:06:25.4	0.040	-0.770	0.170	-0.710
2020/01/31 14:06:25.5	0.000	-0.750	0.100	-0.770
2020/01/31 14:06:25.6	359.970	-0.720	0.030	-0.820
2020/01/31 14:06:25.7	359.930	-0.690	-0.040	-0.870
2020/01/31 14:06:25.8	359.890	-0.660	-0.110	-0.920
2020/01/31 14:06:25.9	359.860	-0.620	-0.180	-0.960
2020/01/31 14:06:26.0	359.820	-0.580	-0.250	-1.000
2020/01/31 14:06:26.1	359.790	-0.530	-0.320	-1.040
2020/01/31 14:06:26.2	359.750	-0.480	-0.380	-1.080
2020/01/31 14:06:26.3	359.720	-0.430	-0.450	-1.110
2020/01/31 14:06:26.4	359.690	-0.370	-0.510	-1.140
2020/01/31 14:06:26.5	359.660	-0.320	-0.580	-1.170
2020/01/31 14:06:26.6	359.630	-0.260	-0.640	-1.190
2020/01/31 14:06:26.7	359.610	-0.200	-0.700	-1.220
2020/01/31 14:06:26.8	359.590	-0.140	-0.750	-1.240
2020/01/31 14:06:26.9	359.570	-0.080	-0.810	-1.260
2020/01/31 14:06:27.0	359.550	-0.010	-0.860	-1.280
2020/01/31 14:06:27.1	359.540	0.050	-0.910	-1.290
2020/01/31 14:06:27.2	359.540	0.110	-0.950	-1.310
2020/01/31 14:06:27.3	359.530	0.170	-0.990	-1.320
2020/01/31 14:06:27.4	359.530	0.220	-1.030	-1.330
2020/01/31 14:06:27.5	359.530	0.280	-1.060	-1.340
2020/01/31 14:06:27.6	359.530	0.330	-1.080	-1.350
2020/01/31 14:06:27.7	359.530	0.380	-1.100	-1.350
2020/01/31 14:06:27.8	359.540	0.430	-1.110	-1.350
2020/01/31 14:06:27.9	359.560	0.470	-1.120	-1.340
2020/01/31 14:06:28.0	359.570	0.510	-1.120	-1.340
2020/01/31 14:06:28.1	359.590	0.540	-1.110	-1.320
2020/01/31 14:06:28.2	359.610	0.570	-1.090	-1.310
2020/01/31 14:06:28.3	359.630	0.590	-1.070	-1.290
2020/01/31 14:06:28.4	359.650	0.610	-1.040	-1.270
2020/01/31 14:06:28.5	359.670	0.620	-1.000	-1.240
2020/01/31 14:06:28.6	359.690	0.630	-0.960	-1.200
2020/01/31 14:06:28.7	359.710	0.630	-0.910	-1.160
2020/01/31 14:06:28.8	359.730	0.630	-0.840	-1.120
2020/01/31 14:06:28.9	359.750	0.620	-0.770	-1.070
2020/01/31 14:06:29.0	359.770	0.610	-0.700	-1.020
2020/01/31 14:06:29.1	359.780	0.590	-0.620	-0.970
2020/01/31 14:06:29.2	359.800	0.570	-0.530	-0.910
2020/01/31 14:06:29.3	359.820	0.550	-0.440	-0.840
2020/01/31 14:06:29.4	359.830	0.520	-0.340	-0.780
2020/01/31 14:06:29.5	359.840	0.490	-0.240	-0.700
2020/01/31 14:06:29.6	359.850	0.450	-0.140	-0.630
2020/01/31 14:06:29.7	359.860	0.410	-0.040	-0.550
2020/01/31 14:06:29.8	359.860	0.370	0.070	-0.470
2020/01/31 14:06:29.9	359.860	0.330	0.170	-0.390
2020/01/31 14:06:30.0	359.860	0.290	0.280	-0.300
2020/01/31 14:06:30.1	359.860	0.240	0.380	-0.210
2020/01/31 14:06:30.2	359.850	0.200	0.470	-0.130
2020/01/31 14:06:30.3	359.850	0.160	0.570	-0.040
2020/01/31 14:06:30.4	359.840	0.120	0.650	0.050
2020/01/31 14:06:30.5	359.820	0.080	0.740	0.140
2020/01/31 14:06:30.6	359.810	0.040	0.800	0.240
2020/01/31 14:06:30.7	359.800	-0.000	0.870	0.330
2020/01/31 14:06:30.8	359.780	-0.040	0.930	0.410
2020/01/31 14:06:30.9	359.760	-0.070	0.970	0.500
2020/01/31 14:06:31.0	359.750	-0.100	1.010	0.580
2020/01/31 14:06:31.1	359.730	-0.130	1.040	0.660
2020/01/31 14:06:31.2	359.720	-0.150	1.050	0.730
2020/01/31 14:06:31.3	359.700	-0.170	1.050	0.800
2020/01/31 14:06:31.4	359.690	-0.190	1.050	0.860
2020/01/31 14:06:31.5	359.680	-0.200	1.030	0.920
2020/01/31 14:06:31.6	359.670	-0.210	1.000	0.970
2020/01/31 14:06:31.7	359.660	-0.220	0.960	1.010
2020/01/31 14:06:31.8	359.660	-0.230	0.910	1.050
2020/01/31 14:06:31.9	359.650	-0.230	0.840	1.080
2020/01/31 14:06:32.0	359.660	-0.220	0.770	1.100
2020/01/31 14:06:32.1	359.660	-0.220	0.690	1.120
2020/01/31 14:06:32.2	359.670	-0.210	0.590	1.130
2020/01/31 14:06:32.3	359.680	-0.200	0.490	1.130
2020/01/31 14:06:32.4	359.700	-0.190	0.390	1.120
2020/01/31 14:06:32.5	359.720	-0.170	0.270	1.110
2020/01/31 14:06:32.6	359.730	-0.150	0.150	1.090
2020/01/31 14:06:32.7	359.760	-0.140	0.030	1.070
2020/01/31 14:06:32.8	359.780	-0.120	-0.090	1.040
2020/01/31 14:06:32.9	359.810	-0.100	-0.210	1.010
2020/01/31 14:06:33.0	359.830	-0.080	-0.330	0.970
2020/01/31 14:06:33.1	359.860	-0.060	-0.450	0.930
2020/01/31 14:06:33.2	359.880	-0.040	-0.560	0.890
2020/01/31 14:06:33.3	359.910	-0.020	-0.670	0.840
2020/01/31 14:06:33.4	359.930	-0.010	-0.770	0.790
2020/01/31 14:06:33.5	359.950	0.010	-0.870	0.740
2020/01/31 14:06:33.6	359.980	0.020	-0.950	0.680
2020/01/31 14:06:33.7	359.990	0.030	-1.030	0.620
2020/01/31 14:06:33.8	0.010	0.030	-1.100	0.560
2020/01/31 14:06:33.9	0.030	0.040	-1.160	0.500
2020/01/31 14:06:34.0	0.040	0.040	-1.210	0.440
2020/01/31 14:06:34.1	0.060	0.030	-1.240	0.370
2020/01/31 14:06:34.2	0.070	0.030	-1.270	0.310
2020/01/31 14:06:34.3	0.080	0.020	-1.290	0.240
2020/01/31 14:06:34.4	0.090	0.010	-1.290	0.170
2020/01/31 14:06:34.5	0.090	-0.010	-1.290	0.100
2020/01/31 14:06:34.6	0.110	-0.030	-1.270	0.040
2020/01/31 14:06:34.7	0.110	-0.050	-1.250	-0.030
2020/01/31 14:06:34.8	0.120	-0.070	-1.220	-0.100
2020/01/31 14:06:34.9	0.120	-0.100	-1.170	-0.170
2020/01/31 14:06:35.0	0.110	-0.130	-1.120	-0.230
2020/01/31 14:06:35.1	0.110	-0.160	-1.070	-0.300
2020/01/31 14:06:35.2	0.110	-0.190	-1.000	-0.360
2020/01/31 14:06:35.3	0.100	-0.220	-0.940	-0.420
2020/01/31 14:06:35.4	0.100	-0.250	-0.870	-0.480
2020/01/31 14:06:35.5	0.090	-0.280	-0.790	-0.540
2020/01/31 14:06:35.6	0.070	-0.310	-0.710	-0.600
2020/01/31 14:06:35.7	0.060	-0.340	-0.640	-0.660
2020/01/31 14:06:35.8	0.050	-0.370	-0.560	-0.720
2020/01/31 14:06:35.9	0.040	-0.400	-0.480	-0.770
2020/01/31 14:06:36.0	0.030	-0.420	-0.400	-0.820
2020/01/31 14:06:36.1	0.020	-0.440	-0.320	-0.870
2020/01/31 14:06:36.2	0.010	-0.460	-0.250	-0.910
2020/01/31 14:06:36.3	359.990	-0.480	-0.180	-0.960
2020/01/31 14:06:36.4	359.980	-0.500	-0.120	-1.000
2020/01/31 14:06:36.5	359.970	-0.510	-0.060	-1.050
2020/01/31 14:06:36.6	359.960	-0.510	-0.010	-1.080
2020/01/31 14:06:36.7	359.950	-0.520	0.040	-1.120
2020/01/31 14:06:36.8	359.940	-0.510	0.070	-1.160
2020/01/31 14:06:36.9	359.930	-0.510	0.100	-1.200
2020/01/31 14:06:37.0	359.920	-0.500	0.120	-1.240
2020/01/31 14:06:37.1	359.920	-0.480	0.140	-1.280
2020/01/31 14:06:37.2	359.920	-0.460	0.140	-1.310
2020/01/31 14:06:37.3	359.920	-0.440	0.140	-1.350
2020/01/31 14:06:37.4	359.920	-0.410	0.130	-1.380
2020/01/31 14:06:37.5	359.930	-0.380	0.110	-1.410
2020/01/31 14:06:37.6	359.950	-0.340	0.090	-1.440
2020/01/31 14:06:37.7	359.960	-0.300	0.050	-1.470
2020/01/31 14:06:37.8	359.970	-0.260	0.020	-1.500
2020/01/31 14:06:37.9	359.990	-0.210	-0.030	-1.520
2020/01/31 14:06:38.0	0.010	-0.160	-0.070	-1.540
2020/01/31 14:06:38.1	0.040	-0.110	-0.120	-1.560
2020/01/31 14:06:38.2	0.060	-0.060	-0.170	-1.580
2020/01/31 14:06:38.3	0.080	-0.000	-0.230	-1.580
2020/01/31 14:06:38.4	0.110	0.050	-0.280	-1.590
2020/01/31 14:06:38.5	0.130	0.110	-0.330	-1.590
2020/01/31 14:06:38.6	0.170	0.170	-0.380	-1.570
2020/01/31 14:06:38.7	0.190	0.220	-0.420	-1.560
2020/01/31 14:06:38.8	0.210	0.280	-0.460	-1.540
2020/01/31 14:06:38.9	0.230	0.330	-0.490	-1.510
2020/01/31 14:06:39.0	0.250	0.380	-0.520	-1.470
2020/01/31 14:06:39.1	0.260	0.430	-0.530	-1.430
2020/01/31 14:06:39.2	0.270	0.480	-0.540	-1.380
2020/01/31 14:06:39.3	0.280	0.520	-0.550	-1.320
2020/01/31 14:06:39.4	0.290	0.560	-0.540	-1.260
2020/01/31 14:06:39.5	0.290	0.590	-0.520	-1.190
2020/01/31 14:06:39.6	0.280	0.620	-0.500	-1.110
2020/01/31 14:06:39.7	0.280	0.640	-0.470	-1.020
2020/01/31 14:06:39.8	0.270	0.660	-0.430	-0.930
2020/01/31 14:06:39.9	0.250	0.680	-0.390	-0.840
2020/01/31 14:06:40.0	0.240	0.690	-0.340	-0.740
2020/01/31 14:06:40.1	0.220	0.690	-0.290	-0.630
2020/01/31 14:06:40.2	0.200	0.690	-0.230	-0.530
2020/01/31 14:06:40.3	0.180	0.680	-0.170	-0.420
2020/01/31 14:06:40.4	0.160	0.670	-0.110	-0.310
2020/01/31 14:06:40.5	0.130	0.660	-0.050	-0.190
2020/01/31 14:06:40.6	0.120	0.640	0.010	-0.070
2020/01/31 14:06:40.7	0.100	0.620	0.070	0.040
2020/01/31 14:06:40.8	0.070	0.590	0.120	0.150
2020/01/31 14:06:40.9	0.040	0.560	0.180	0.260
2020/01/31 14:06:41.0	0.020	0.530	0.230	0.360
2020/01/31 14:06:41.1	359.990	0.500	0.270	0.460
2020/01/31 14:06:41.2	359.970	0.460	0.310	0.560
2020/01/31 14:06:41.3	359.950	0.420	0.340	0.640
2020/01/31 14:06:41.4	359.930	0.380	0.370	0.730
2020/01/31 14:06:41.5	359.910	0.340	0.390	0.800
2020/01/31 14:06:41.6	359.900	0.300	0.400	0.870
2020/01/31 14:06:41.7	359.890	0.260	0.400	0.930
2020/01/31 14:06:41.8	359.880	0.230	0.400	0.970
2020/01/31 14:06:41.9	359.870	0.190	0.380	1.010
2020/01/31 14:06:42.0	359.870	0.150	0.370	1.030
2020/01/31 14:06:42.1	359.870	0.120	0.340	1.050
2020/01/31 14:06:42.2	359.870	0.090	0.310	1.050
2020/01/31 14:06:42.3	359.880	0.060	0.270	1.050
2020/01/31 14:06:42.4	359.890	0.030	0.220	1.040
2020/01/31 14:06:42.5	359.910	0.010	0.170	1.020
2020/01/31 14:06:42.6	359.910	-0.010	0.110	0.980
2020/01/31 14:06:42.7	359.930	-0.030	0.060	0.950
2020/01/31 14:06:42.8	359.950	-0.050	-0.010	0.900
2020/01/31 14:06:42.9	359.980	-0.060	-0.070	0.850
2020/01/31 14:06:43.0	0.000	-0.080	-0.130	0.790
2020/01/31 14:06:43.1	0.030	-0.090	-0.200	0.730
2020/01/31 14:06:43.2	0.060	-0.100	-0.260	0.660
2020/01/31 14:06:43.3	0.090	-0.110	-0.320	0.590
2020/01/31 14:06:43.4	0.120	-0.120	-0.390	0.510
2020/01/31 14:06:43.5	0.160	-0.120	-0.440	0.430
2020/01/31 14:06:43.6	0.200	-0.130	-0.500	0.340
2020/01/31 14:06:43.7	0.230	-0.140	-0.550	0.250
2020/01/31 14:06:43.8	0.270	-0.150	-0.590	0.160
2020/01/31 14:06:43.9	0.300	-0.150	-0.630	0.070
2020/01/31 14:06:44.0	0.340	-0.160	-0.670	-0.020
2020/01/31 14:06:44.1	0.380	-0.170	-0.700	-0.110
2020/01/31 14:06:44.2	0.410	-0.180	-0.720	-0.200
2020/01/31 14:06:44.3	0.450	-0.200	-0.740	-0.290
2020/01/31 14:06:44.4	0.480	-0.210	-0.760	-0.380
2020/01/31 14:06:44.5	0.510	-0.220	-0.760	-0.470
2020/01/31 14:06:44.6	0.550	-0.240	-0.760	-0.550
2020/01/31 14:06:44.7	0.580	-0.250	-0.760	-0.640
2020/01/31 14:06:44.8	0.610	-0.270	-0.750	-0.720
2020/01/31 14:06:44.9	0.630	-0.290	-0.730	-0.800
2020/01/31 14:06:45.0	0.660	-0.310	-0.710	-0.880
2020/01/31 14:06:45.1	0.680	-0.330	-0.690	-0.950
2020/01/31 14:06:45.2	0.700	-0.350	-0.660	-1.020
2020/01/31 14:06:45.3	0.720	-0.370	-0.630	-1.090
2020/01/31 14:06:45.4	0.740	-0.390	-0.590	-1.160
2020/01/31 14:06:45.5	0.750	-0.410	-0.560	-1.220
2020/01/31 14:06:45.6	0.760	-0.430	-0.520	-1.280
2020/01/31 14:06:45.7	0.770	-0.450	-0.480	-1.330
2020/01/31 14:06:45.8	0.770	-0.470	-0.440	-1.380
2020/01/31 14:06:45.9	0.780	-0.490	-0.400	-1.430
2020/01/31 14:06:46.0	0.790	-0.510	-0.360	-1.470
2020/01/31 14:06:46.1	0.790	-0.520	-0.320	-1.510
2020/01/31 14:06:46.2	0.800	-0.530	-0.280	-1.540
2020/01/31 14:06:46.3	0.800	-0.540	-0.240	-1.570
2020/01/31 14:06:46.4	0.800	-0.540	-0.200	-1.590
2020/01/31 14:06:46.5	0.810	-0.550	-0.160	-1.600
2020/01/31 14:06:46.6	0.800	-0.550	-0.130	-1.620
2020/01/31 14:06:46.7	0.810	-0.540	-0.090	-1.620
2020/01/31 14:06:46.8	0.810	-0.540	-0.070	-1.630
2020/01/31 14:06:46.9	0.810	-0.520	-0.040	-1.630
2020/01/31 14:06:47.0	0.810	-0.510	-0.020	-1.620
2020/01/31 14:06:47.1	0.820	-0.490	0.000	-1.620
2020/01/31 14:06:47.2	0.820	-0.470	0.020	-1.600
2020/01/31 14:06:47.3	0.820	-0.450	0.040	-1.590
2020/01/31 14:06:47.4	0.830	-0.420	0.050	-1.570
2020/01/31 14:06:47.5	0.830	-0.390	0.060	-1.550
2020/01/31 14:06:47.6	0.830	-0.360	0.060	-1.530
2020/01/31 14:06:47.7	0.830	-0.320	0.060	-1.500
2020/01/31 14:06:47.8	0.830	-0.290	0.070	-1.460
2020/01/31 14:06:47.9	0.820	-0.250	0.070	-1.430
2020/01/31 14:06:48.0	0.820	-0.210	0.060	-1.390
2020/01/31 14:06:48.1	0.810	-0.160	0.060	-1.340
2020/01/31 14:06:48.2	0.800	-0.120	0.050	-1.290
2020/01/31 14:06:48.3	0.790	-0.080	0.050	-1.240
2020/01/31 14:06:48.4	0.770	-0.040	0.040	-1.180
2020/01/31 14:06:48.5	0.760	0.010	0.030	-1.120
2020/01/31 14:06:48.6	0.740	0.050	0.020	-1.050
2020/01/31 14:06:48.7	0.710	0.090	0.010	-0.980
2020/01/31 14:06:48.8	0.690	0.130	-0.000	-0.910
2020/01/31 14:06:48.9	0.660	0.170	-0.010	-0.840
2020/01/31 14:06:49.0	0.630	0.210	-0.030	-0.760
2020/01/31 14:06:49.1	0.600	0.240	-0.040	-0.690
2020/01/31 14:06:49.2	0.570	0.280	-0.050	-0.610
2020/01/31 14:06:49.3	0.540	0.310	-0.070	-0.530
2020/01/31 14:06:49.4	0.510	0.340	-0.080	-0.450
2020/01/31 14:06:49.5	0.480	0.370	-0.100	-0.370
2020/01/31 14:06:49.6	0.450	0.390	-0.110	-0.290
2020/01/31 14:06:49.7	0.420	0.410	-0.130	-0.210
2020/01/31 14:06:49.8	0.390	0.430	-0.150	-0.130
2020/01/31 14:06:49.9	0.370	0.450	-0.160	-0.050
2020/01/31 14:06:50.0	0.340	0.460	-0.180	0.020
2020/01/31 14:06:50.1	0.320	0.470	-0.200	0.100
2020/01/31 14:06:50.2	0.300	0.480	-0.230	0.170
2020/01/31 14:06:50.3	0.280	0.490	-0.250	0.240
2020/01/31 14:06:50.4	0.260	0.490	-0.270	0.300
2020/01/31 14:06:50.5	0.250	0.490	-0.300	0.360
2020/01/31 14:06:50.6	0.240	0.490	-0.320	0.420
2020/01/31 14:06:50.7	0.230	0.480	-0.350	0.470
2020/01/31 14:06:50.8	0.230	0.480	-0.370	0.510
2020/01/31 14:06:50.9	0.230	0.470	-0.400	0.550
2020/01/31 14:06:51.0	0.230	0.460	-0.430	0.580
2020/01/31 14:06:51.1	0.240	0.440	-0.450	0.610
2020/01/31 14:06:51.2	0.250	0.430	-0.480	0.630
2020/01/31 14:06:51.3	0.260	0.410	-0.510	0.650
2020/01/31 14:06:51.4	0.270	0.400	-0.530	0.660
2020/01/31 14:06:51.5	0.290	0.380	-0.550	0.670
2020/01/31 14:06:51.6	0.320	0.360	-0.570	0.670
2020/01/31 14:06:51.7	0.340	0.340	-0.590	0.660
2020/01/31 14:06:51.8	0.360	0.320	-0.610	0.660
2020/01/31 14:06:51.9	0.390	0.300	-0.630	0.650
2020/01/31 14:06:52.0	0.420	0.280	-0.640	0.630
2020/01/31 14:06:52.1	0.450	0.250	-0.660	0.620
2020/01/31 14:06:52.2	0.480	0.230	-0.660	0.600
2020/01/31 14:06:52.3	0.510	0.210	-0.670	0.580
2020/01/31 14:06:52.4	0.550	0.190	-0.670	0.560
2020/01/31 14:06:52.5	0.580	0.170	-0.670	0.530
2020/01/31 14:06:52.6	0.620	0.150	-0.670	0.500
2020/01/31 14:06:52.7	0.660	0.130	-0.670	0.470
2020/01/31 14:06:52.8	0.690	0.110	-0.660	0.440
2020/01/31 14:06:52.9	0.730	0.090	-0.650	0.410
2020/01/31 14:06:53.0	0.760	0.070	-0.630	0.380
2020/01/31 14:06:53.1	0.800	0.050	-0.620	0.340
2020/01/31 14:06:53.2	0.840	0.030	-0.600	0.300
2020/01/31 14:06:53.3	0.870	0.020	-0.580	0.260
2020/01/31 14:06:53.4	0.910	-0.000	-0.560	0.210
2020/01/31 14:06:53.5	0.950	-0.020	-0.540	0.170
2020/01/31 14:06:53.6	1.000	-0.030	-0.520	0.110
2020/01/31 14:06:53.7	1.040	-0.050	-0.500	0.060
2020/01/31 14:06:53.8	1.080	-0.060	-0.470	0.010
2020/01/31 14:06:53.9	1.120	-0.080	-0.450	-0.050
2020/01/31 14:06:54.0	1.160	-0.090	-0.430	-0.110
2020/01/31 14:06:54.1	1.200	-0.100	-0.400	-0.170
2020/01/31 14:06:54.2	1.230	-0.110	-0.380	-0.230
2020/01/31 14:06:54.3	1.270	-0.120	-0.360	-0.290
2020/01/31 14:06:54.4	1.300	-0.130	-0.330	-0.350
2020/01/31 14:06:54.5	1.340	-0.140	-0.310	-0.400
2020/01/31 14:06:54.6	1.370	-0.150	-0.290	-0.460
2020/01/31 14:06:54.7	1.390	-0.160	-0.270	-0.510
2020/01/31 14:06:54.8	1.420	-0.170	-0.240	-0.560
2020/01/31 14:06:54.9	1.440	-0.180	-0.220	-0.610
2020/01/31 14:06:55.0	1.460	-0.190	-0.190	-0.660
2020/01/31 14:06:55.1	1.470	-0.200	-0.170	-0.710
2020/01/31 14:06:55.2	1.490	-0.210	-0.140	-0.750
2020/01/31 14:06:55.3	1.500	-0.220	-0.120	-0.790
2020/01/31 14:06:55.4	1.500	-0.230	-0.090	-0.830
2020/01/31 14:06:55.5	1.510	-0.240	-0.060	-0.870
2020/01/31 14:06:55.6	1.500	-0.250	-0.030	-0.900
2020/01/31 14:06:55.7	1.490	-0.260	-0.000	-0.930
2020/01/31 14:06:55.8	1.490	-0.270	0.030	-0.960
2020/01/31 14:06:55.9	1.480	-0.280	0.060	-0.980
2020/01/31 14:06:56.0	1.470	-0.290	0.090	-1.000
2020/01/31 14:06:56.1	1.450	-0.300	0.120	-1.020
2020/01/31 14:06:56.2	1.440	-0.310	0.150	-1.030
2020/01/31 14:06:56.3	1.420	-0.310	0.190	-1.030
2020/01/31 14:06:56.4	1.390	-0.320	0.220	-1.030
2020/01/31 14:06:56.5	1.370	-0.330	0.250	-1.030
2020/01/31 14:06:56.6	1.350	-0.330	0.280	-1.020
2020/01/31 14:06:56.7	1.320	-0.340	0.310	-1.010
2020/01/31 14:06:56.8	1.290	-0.340	0.350	-0.990
2020/01/31 14:06:56.9	1.250	-0.340	0.380	-0.970
2020/01/31 14:06:57.0	1.220	-0.350	0.410	-0.940
2020/01/31 14:06:57.1	1.180	-0.340	0.440	-0.910
2020/01/31 14:06:57.2	1.140	-0.340	0.460	-0.870
2020/01/31 14:06:57.3	1.100	-0.340	0.490	-0.830
2020/01/31 14:06:57.4	1.060	-0.330	0.510	-0.790
2020/01/31 14:06:57.5	1.020	-0.320	0.530	-0.740
2020/01/31 14:06:57.6	0.970	-0.310	0.550	-0.690
2020/01/31 14:06:57.7	0.930	-0.300	0.560	-0.640
2020/01/31 14:06:57.8	0.880	-0.290	0.570	-0.580
2020/01/31 14:06:57.9	0.840	-0.270	0.570	-0.520
2020/01/31 14:06:58.0	0.790	-0.250	0.570	-0.460
2020/01/31 14:06:58.1	0.740	-0.230	0.560	-0.400
2020/01/31 14:06:58.2	0.700	-0.210	0.550	-0.340
2020/01/31 14:06:58.3	0.650	-0.190	0.540	-0.280
2020/01/31 14:06:58.4	0.610	-0.170	0.510	-0.220
2020/01/31 14:06:58.5	0.560	-0.140	0.480	-0.160
2020/01/31 14:06:58.6	0.520	-0.120	0.450	-0.110
2020/01/31 14:06:58.7	0.480	-0.090	0.410	-0.060
2020/01/31 14:06:58.8	0.440	-0.070	0.360	-0.010
2020/01/31 14:06:58.9	0.400	-0.040	0.310	0.030
2020/01/31 14:06:59.0	0.370	-0.010	0.260	0.070
2020/01/31 14:06:59.1	0.340	0.010	0.200	0.110
2020/01/31 14:06:59.2	0.320	0.040	0.140	0.140
2020/01/31 14:06:59.3	0.290	0.060	0.070	0.160
2020/01/31 14:06:59.4	0.270	0.080	-0.000	0.180
2020/01/31 14:06:59.5	0.260	0.100	-0.080	0.200
2020/01/31 14:06:59.6	0.240	0.130	-0.160	0.210
2020/01/31 14:06:59.7	0.230	0.150	-0.240	0.210
2020/01/31 14:06:59.8	0.230	0.170	-0.320	0.210
2020/01/31 14:06:59.9	0.230	0.180	-0.400	0.210
2020/01/31 14:07:00.0	0.230	0.200	-0.480	0.210
2020/01/31 14:07:00.1	0.230	0.210	-0.560	0.200
2020/01/31 14:07:00.2	0.240	0.230	-0.640	0.190
2020/01/31 14:07:00.3	0.260	0.240	-0.710	0.170
2020/01/31 14:07:00.4	0.270	0.250	-0.790	0.160
2020/01/31 14:07:00.5	0.290	0.260	-0.860	0.140
2020/01/31 14:07:00.6	0.320	0.270	-0.930	0.120
2020/01/31 14:07:00.7	0.340	0.280	-1.000	0.100
2020/01/31 14:07:00.8	0.370	0.290	-1.060	0.070
2020/01/31 14:07:00.9	0.410	0.300	-1.120	0.050
2020/01/31 14:07:01.0	0.450	0.310	-1.180	0.020
2020/01/31 14:07:01.1	0.490	0.310	-1.220	-0.010
2020/01/31 14:07:01.2	0.530	0.320	-1.270	-0.040
2020/01/31 14:07:01.3	0.580	0.320	-1.300	-0.070
2020/01/31 14:07:01.4	0.630	0.330	-1.340	-0.100
2020/01/31 14:07:01.5	0.680	0.330	-1.360	-0.140
2020/01/31 14:07:01.6	0.740	0.340	-1.380	-0.180
2020/01/31 14:07:01.7	0.800	0.340	-1.400	-0.210
2020/01/31 14:07:01.8	0.860	0.350	-1.400	-0.260
2020/01/31 14:07:01.9	0.920	0.350	-1.400	-0.300
2020/01/31 14:07:02.0	0.980	0.360	-1.400	-0.340
2020/01/31 14:07:02.1	1.050	0.360	-1.380	-0.380
2020/01/31 14:07:02.2	1.110	0.370	-1.360	-0.420
2020/01/31 14:07:02.3	1.170	0.370	-1.340	-0.460
2020/01/31 14:07:02.4	1.230	0.370	-1.300	-0.490
2020/01/31 14:07:02.5	1.280	0.380	-1.260	-0.520
2020/01/31 14:07:02.6	1.340	0.380	-1.210	-0.550
2020/01/31 14:07:02.7	1.390	0.380	-1.160	-0.580
2020/01/31 14:07:02.8	1.440	0.370	-1.100	-0.600
2020/01/31 14:07:02.9	1.480	0.370	-1.030	-0.610
2020/01/31 14:07:03.0	1.510	0.360	-0.960	-0.610
2020/01/31 14:07:03.1	1.540	0.350	-0.880	-0.610
2020/01/31 14:07:03.2	1.570	0.340	-0.790	-0.610
2020/01/31 14:07:03.3	1.590	0.330	-0.700	-0.600
2020/01/31 14:07:03.4	1.600	0.310	-0.610	-0.580
2020/01/31 14:07:03.5	1.610	0.290	-0.520	-0.560
2020/01/31 14:07:03.6	1.620	0.270	-0.420	-0.530
2020/01/31 14:07:03.7	1.620	0.250	-0.320	-0.500
2020/01/31 14:07:03.8	1.620	0.220	-0.230	-0.460
2020/01/31 14:07:03.9	1.610	0.190	-0.130	-0.430
2020/01/31 14:07:04.0	1.600	0.160	-0.030	-0.390
2020/01/31 14:07:04.1	1.590	0.120	0.060	-0.350
2020/01/31 14:07:04.2	1.580	0.090	0.160	-0.300
2020/01/31 14:07:04.3	1.560	0.050	0.240	-0.260
2020/01/31 14:07:04.4	1.540	0.010	0.320	-0.210
2020/01/31 14:07:04.5	1.520	-0.030	0.400	-0.170
2020/01/31 14:07:04.6	1.500	-0.070	0.470	-0.120
2020/01/31 14:07:04.7	1.480	-0.110	0.530	-0.080
2020/01/31 14:07:04.8	1.460	-0.150	0.590	-0.040
2020/01/31 14:07:04.9	1.440	-0.190	0.630	-0.000
2020/01/31 14:07:05.0	1.410	-0.230	0.670	0.030
2020/01/31 14:07:05.1	1.390	-0.270	0.710	0.070
2020/01/31 14:07:05.2	1.370	-0.310	0.730	0.100
2020/01/31 14:07:05.3	1.350	-0.350	0.740	0.130
2020/01/31 14:07:05.4	1.320	-0.380	0.750	0.150
2020/01/31 14:07:05.5	1.300	-0.410	0.750	0.170
2020/01/31 14:07:05.6	1.260	-0.440	0.740	0.180
2020/01/31 14:07:05.7	1.240	-0.470	0.730	0.190
2020/01/31 14:07:05.8	1.220	-0.500	0.710	0.200
2020/01/31 14:07:05.9	1.200	-0.520	0.680	0.210
2020/01/31 14:07:06.0	1.180	-0.540	0.650	0.210
2020/01/31 14:07:06.1	1.160	-0.550	0.620	0.220
2020/01/31 14:07:06.2	1.140	-0.560	0.580	0.210
2020/01/31 14:07:06.3	1.120	-0.570	0.540	0.210
2020/01/31 14:07:06.4	1.100	-0.580	0.500	0.200
2020/01/31 14:07:06.5	1.080	-0.580	0.460	0.190
2020/01/31 14:07:06.6	1.070	-0.580	0.410	0.180
2020/01/31 14:07:06.7	1.050	-0.580	0.370	0.170
2020/01/31 14:07:06.8	1.040	-0.570	0.320	0.150
2020/01/31 14:07:06.9	1.020	-0.560	0.280	0.130
2020/01/31 14:07:07.0	1.010	-0.550	0.240	0.110
2020/01/31 14:07:07.1	0.990	-0.540	0.200	0.090
2020/01/31 14:07:07.2	0.980	-0.520	0.160	0.070
2020/01/31 14:07:07.3	0.970	-0.510	0.120	0.050
2020/01/31 14:07:07.4	0.960	-0.490	0.090	0.030
2020/01/31 14:07:07.5	0.950	-0.470	0.050	0.010
2020/01/31 14:07:07.6	0.940	-0.450	0.020	-0.010
2020/01/31 14:07:07.7	0.930	-0.420	-0.010	-0.030
2020/01/31 14:07:07.8	0.930	-0.400	-0.040	-0.050
2020/01/31 14:07:07.9	0.930	-0.370	-0.070	-0.070
2020/01/31 14:07:08.0	0.930	-0.350	-0.100	-0.090
2020/01/31 14:07:08.1	0.930	-0.320	-0.130	-0.110
2020/01/31 14:07:08.2	0.940	-0.290	-0.160	-0.130
2020/01/31 14:07:08.3	0.950	-0.260	-0.190	-0.150
2020/01/31 14:07:08.4	0.960	-0.230	-0.220	-0.170
2020/01/31 14:07:08.5	0.980	-0.190	-0.250	-0.190
2020/01/31 14:07:08.6	1.000	-0.160	-0.290	-0.210
2020/01/31 14:07:08.7	1.020	-0.130	-0.330	-0.240
2020/01/31 14:07:08.8	1.050	-0.090	-0.370	-0.260
2020/01/31 14:07:08.9	1.080	-0.060	-0.410	-0.280
2020/01/31 14:07:09.0	1.110	-0.020	-0.450	-0.310
2020/01/31 14:07:09.1	1.140	0.020	-0.490	-0.330
2020/01/31 14:07:09.2	1.180	0.050	-0.530	-0.350
2020/01/31 14:07:09.3	1.220	0.090	-0.580	-0.370
2020/01/31 14:07:09.4	1.250	0.130	-0.620	-0.390
2020/01/31 14:07:09.5	1.290	0.160	-0.670	-0.410
2020/01/31 14:07:09.6	1.330	0.200	-0.710	-0.430
2020/01/31 14:07:09.7	1.370	0.240	-0.750	-0.440
2020/01/31 14:07:09.8	1.400	0.270	-0.790	-0.460
2020/01/31 14:07:09.9	1.440	0.310	-0.820	-0.460
2020/01/31 14:07:10.0	1.470	0.340	-0.850	-0.470
2020/01/31 14:07:10.1	1.490	0.370	-0.880	-0.480
2020/01/31 14:07:10.2	1.520	0.400	-0.900	-0.480
2020/01/31 14:07:10.3	1.550	0.420	-0.910	-0.470
2020/01/31 14:07:10.4	1.570	0.440	-0.920	-0.470
2020/01/31 14:07:10.5	1.590	0.460	-0.930	-0.460
2020/01/31 14:07:10.6	1.610	0.480	-0.930	-0.450
2020/01/31 14:07:10.7	1.630	0.490	-0.920	-0.440
2020/01/31 14:07:10.8	1.640	0.500	-0.910	-0.430
2020/01/31 14:07:10.9	1.650	0.510	-0.890	-0.420
2020/01/31 14:07:11.0	1.660	0.510	-0.870	-0.400
2020/01/31 14:07:11.1	1.670	0.500	-0.840	-0.390
2020/01/31 14:07:11.2	1.680	0.500	-0.800	-0.380
2020/01/31 14:07:11.3	1.680	0.490	-0.770	-0.360
2020/01/31 14:07:11.4	1.690	0.470	-0.720	-0.350
2020/01/31 14:07:11.5	1.690	0.450	-0.680	-0.340
2020/01/31 14:07:11.6	1.690	0.430	-0.630	-0.330
2020/01/31 14:07:11.7	1.700	0.400	-0.580	-0.320
2020/01/31 14:07:11.8	1.700	0.370	-0.530	-0.320
2020/01/31 14:07:11.9	1.700	0.340	-0.480	-0.310
2020/01/31 14:07:12.0	1.700	0.300	-0.430	-0.310
2020/01/31 14:07:12.1	1.710	0.270	-0.370	-0.310
2020/01/31 14:07:12.2	1.710	0.230	-0.320	-0.310
2020/01/31 14:07:12.3	1.710	0.190	-0.270	-0.300
2020/01/31 14:07:12.4	1.710	0.140	-0.210	-0.300
2020/01/31 14:07:12.5	1.700	0.100	-0.160	-0.300
2020/01/31 14:07:12.6	1.700	0.050	-0.120	-0.300
2020/01/31 14:07:12.7	1.690	0.010	-0.070	-0.300
2020/01/31 14:07:12.8	1.690	-0.040	-0.020	-0.300
2020/01/31 14:07:12.9	1.680	-0.080	0.020	-0.310
2020/01/31 14:07:13.0	1.670	-0.120	0.060	-0.310
2020/01/31 14:07:13.1	1.660	-0.160	0.100	-0.310
2020/01/31 14:07:13.2	1.650	-0.200	0.140	-0.320
2020/01/31 14:07:13.3	1.640	-0.240	0.170	-0.320
2020/01/31 14:07:13.4	1.630	-0.270	0.200	-0.330
2020/01/31 14:07:13.5	1.620	-0.300	0.220	-0.330
2020/01/31 14:07:13.6	1.590	-0.330	0.240	-0.340
2020/01/31 14:07:13.7	1.570	-0.350	0.260	-0.350
2020/01/31 14:07:13.8	1.550	-0.370	0.280	-0.350
2020/01/31 14:07:13.9	1.540	-0.390	0.290	-0.360
2020/01/31 14:07:14.0	1.520	-0.400	0.300	-0.360
2020/01/31 14:07:14.1	1.500	-0.410	0.300	-0.370
2020/01/31 14:07:14.2	1.480	-0.410	0.310	-0.370
2020/01/31 14:07:14.3	1.460	-0.410	0.310	-0.370
2020/01/31 14:07:14.4	1.440	-0.400	0.300	-0.370
2020/01/31 14:07:14.5	1.420	-0.390	0.300	-0.370
2020/01/31 14:07:14.6	1.400	-0.380	0.290	-0.370
2020/01/31 14:07:14.7	1.380	-0.360	0.280	-0.370
2020/01/31 14:07:14.8	1.370	-0.340	0.260	-0.360
2020/01/31 14:07:14.9	1.350	-0.310	0.240	-0.360
2020/01/31 14:07:15.0	1.330	-0.280	0.210	-0.350
2020/01/31 14:07:15.1	1.320	-0.250	0.180	-0.340
2020/01/31 14:07:15.2	1.310	-0.210	0.150	-0.340
2020/01/31 14:07:15.3	1.300	-0.180	0.120	-0.330
2020/01/31 14:07:15.4	1.290	-0.140	0.080	-0.330
2020/01/31 14:07:15.5	1.280	-0.090	0.040	-0.320
2020/01/31 14:07:15.6	1.290	-0.050	-0.010	-0.310
2020/01/31 14:07:15.7	1.290	-0.010	-0.060	-0.310
2020/01/31 14:07:15.8	1.290	0.030	-0.110	-0.310
2020/01/31 14:07:15.9	1.290	0.080	-0.160	-0.300
2020/01/31 14:07:16.0	1.290	0.120	-0.210	-0.310
2020/01/31 14:07:16.1	1.300	0.160	-0.260	-0.310
2020/01/31 14:07:16.2	1.310	0.200	-0.320	-0.310
2020/01/31 14:07:16.3	1.320	0.240	-0.370	-0.320
2020/01/31 14:07:16.4	1.340	0.280	-0.430	-0.320
2020/01/31 14:07:16.5	1.350	0.310	-0.480	-0.330
2020/01/31 14:07:16.6	1.370	0.350	-0.540	-0.340
2020/01/31 14:07:16.7	1.390	0.380	-0.590	-0.360
2020/01/31 14:07:16.8	1.410	0.410	-0.640	-0.370
2020/01/31 14:07:16.9	1.430	0.430	-0.690	-0.380
2020/01/31 14:07:17.0	1.450	0.450	-0.730	-0.390
2020/01/31 14:07:17.1	1.470	0.470	-0.770	-0.410
2020/01/31 14:07:17.2	1.490	0.490	-0.810	-0.420
2020/01/31 14:07:17.3	1.520	0.500	-0.840	-0.430
2020/01/31 14:07:17.4	1.540	0.510	-0.870	-0.440
2020/01/31 14:07:17.5	1.560	0.510	-0.890	-0.450
2020/01/31 14:07:17.6	1.580	0.520	-0.900	-0.450
2020/01/31 14:07:17.7	1.600	0.510	-0.910	-0.460
2020/01/31 14:07:17.8	1.610	0.510	-0.910	-0.470
2020/01/31 14:07:17.9	1.630	0.500	-0.910	-0.480
2020/01/31 14:07:18.0	1.640	0.490	-0.900	-0.480
2020/01/31 14:07:18.1	1.660	0.470	-0.880	-0.490
2020/01/31 14:07:18.2	1.670	0.460	-0.860	-0.490
2020/01/31 14:07:18.3	1.680	0.440	-0.840	-0.500
2020/01/31 14:07:18.4	1.690	0.410	-0.810	-0.510
2020/01/31 14:07:18.5	1.700	0.390	-0.780	-0.520
2020/01/31 14:07:18.6	1.720	0.360	-0.740	-0.530
2020/01/31 14:07:18.7	1.730	0.330	-0.700	-0.540
2020/01/31 14:07:18.8	1.740	0.300	-0.660	-0.550
2020/01/31 14:07:18.9	1.750	0.260	-0.610	-0.560
2020/01/31 14:07:19.0	1.760	0.220	-0.570	-0.570
2020/01/31 14:07:19.1	1.760	0.190	-0.520	-0.590
2020/01/31 14:07:19.2	1.770	0.150	-0.460	-0.600
2020/01/31 14:07:19.3	1.770	0.100	-0.410	-0.610
2020/01/31 14:07:19.4	1.780	0.060	-0.360	-0.630
2020/01/31 14:07:19.5	1.780	0.020	-0.300	-0.640
2020/01/31 14:07:19.6	1.780	-0.030	-0.250	-0.650
2020/01/31 14:07:19.7	1.780	-0.080	-0.190	-0.660
2020/01/31 14:07:19.8	1.770	-0.120	-0.140	-0.670
2020/01/31 14:07:19.9	1.770	-0.170	-0.080	-0.680
2020/01/31 14:07:20.0	1.760	-0.220	-0.030	-0.690
2020/01/31 14:07:20.1	1.750	-0.260	0.020	-0.700
2020/01/31 14:07:20.2	1.730	-0.310	0.070	-0.700
2020/01/31 14:07:20.3	1.720	-0.360	0.120	-0.700
2020/01/31 14:07:20.4	1.700	-0.400	0.170	-0.700
2020/01/31 14:07:20.5	1.680	-0.450	0.210	-0.700
2020/01/31 14:07:20.6	1.650	-0.490	0.260	-0.700
2020/01/31 14:07:20.7	1.630	-0.530	0.300	-0.700
2020/01/31 14:07:20.8	1.610	-0.570	0.340	-0.690
2020/01/31 14:07:20.9	1.580	-0.610	0.370	-0.680
2020/01/31 14:07:21.0	1.560	-0.650	0.400	-0.680
2020/01/31 14:07:21.1	1.530	-0.680	0.430	-0.660
2020/01/31 14:07:21.2	1.500	-0.710	0.450	-0.650
2020/01/31 14:07:21.3	1.480	-0.740	0.470	-0.640
2020/01/31 14:07:21.4	1.450	-0.760	0.490	-0.630
2020/01/31 14:07:21.5	1.430	-0.780	0.500	-0.610
2020/01/31 14:07:21.6	1.400	-0.800	0.500	-0.600
2020/01/31 14:07:21.7	1.370	-0.820	0.510	-0.590
2020/01/31 14:07:21.8	1.350	-0.830	0.510	-0.570
2020/01/31 14:07:21.9	1.330	-0.830	0.500	-0.560
2020/01/31 14:07:22.0	1.310	-0.830	0.490	-0.540
2020/01/31 14:07:22.1	1.300	-0.830	0.470	-0.530
2020/01/31 14:07:22.2	1.290	-0.820	0.450	-0.510
2020/01/31 14:07:22.3	1.270	-0.810	0.430	-0.500
2020/01/31 14:07:22.4	1.270	-0.790	0.400	-0.480
2020/01/31 14:07:22.5	1.260	-0.770	0.370	-0.470
2020/01/31 14:07:22.6	1.270	-0.740	0.340	-0.450
2020/01/31 14:07:22.7	1.260	-0.710	0.300	-0.430
2020/01/31 14:07:22.8	1.270	-0.680	0.260	-0.410
2020/01/31 14:07:22.9	1.270	-0.640	0.220	-0.390
2020/01/31 14:07:23.0	1.280	-0.600	0.180	-0.370
2020/01/31 14:07:23.1	1.280	-0.550	0.130	-0.340
2020/01/31 14:07:23.2	1.290	-0.500	0.090	-0.320
2020/01/31 14:07:23.3	1.300	-0.450	0.040	-0.290
2020/01/31 14:07:23.4	1.320	-0.400	-0.000	-0.260
2020/01/31 14:07:23.5	1.330	-0.340	-0.050	-0.230
2020/01/31 14:07:23.6	1.350	-0.280	-0.090	-0.190
2020/01/31 14:07:23.7	1.370	-0.230	-0.140	-0.160
2020/01/31 14:07:23.8	1.380	-0.170	-0.180	-0.120
2020/01/31 14:07:23.9	1.400	-0.110	-0.220	-0.090
2020/01/31 14:07:24.0	1.410	-0.050	-0.250	-0.050
2020/01/31 14:07:24.1	1.420	0.000	-0.290	-0.010
2020/01/31 14:07:24.2	1.430	0.060	-0.320	0.030
2020/01/31 14:07:24.3	1.440	0.110	-0.350	0.070
2020/01/31 14:07:24.4	1.450	0.160	-0.380	0.110
2020/01/31 14:07:24.5	1.460	0.210	-0.410	0.150
2020/01/31 14:07:24.6	1.470	0.260	-0.440	0.190
2020/01/31 14:07:24.7	1.470	0.300	-0.460	0.230
2020/01/31 14:07:24.8	1.470	0.350	-0.480	0.270
2020/01/31 14:07:24.9	1.470	0.390	-0.500	0.300
2020/01/31 14:07:25.0	1.460	0.420	-0.520	0.340
2020/01/31 14:07:25.1	1.460	0.450	-0.540	0.370
2020/01/31 14:07:25.2	1.460	0.480	-0.550	0.400
2020/01/31 14:07:25.3	1.450	0.510	-0.570	0.420
2020/01/31 14:07:25.4	1.440	0.530	-0.580	0.450
2020/01/31 14:07:25.5	1.440	0.550	-0.590	0.470
2020/01/31 14:07:25.6	1.430	0.560	-0.600	0.490
2020/01/31 14:07:25.7	1.420	0.580	-0.610	0.500
2020/01/31 14:07:25.8	1.420	0.580	-0.620	0.510
2020/01/31 14:07:25.9	1.410	0.590	-0.620	0.530
2020/01/31 14:07:26.0	1.410	0.590	-0.630	0.530
2020/01/31 14:07:26.1	1.400	0.590	-0.640	0.540
2020/01/31 14:07:26.2	1.390	0.590	-0.640	0.550
2020/01/31 14:07:26.3	1.390	0.590	-0.650	0.550
2020/01/31 14:07:26.4	1.380	0.580	-0.650	0.550
2020/01/31 14:07:26.5	1.370	0.570	-0.660	0.550
2020/01/31 14:07:26.6	1.370	0.560	-0.660	0.550
2020/01/31 14:07:26.7	1.360	0.550	-0.670	0.540
2020/01/31 14:07:26.8	1.340	0.540	-0.670	0.540
2020/01/31 14:07:26.9	1.330	0.520	-0.670	0.520
2020/01/31 14:07:27.0	1.330	0.500	-0.670	0.510
2020/01/31 14:07:27.1	1.320	0.480	-0.670	0.490
2020/01/31 14:07:27.2	1.310	0.460	-0.670	0.460
2020/01/31 14:07:27.3	1.300	0.440	-0.670	0.440
2020/01/31 14:07:27.4	1.290	0.420	-0.670	0.410
2020/01/31 14:07:27.5	1.280	0.400	-0.670	0.370
2020/01/31 14:07:27.6	1.290	0.380	-0.670	0.330
2020/01/31 14:07:27.7	1.290	0.360	-0.670	0.290
2020/01/31 14:07:27.8	1.280	0.330	-0.660	0.240
2020/01/31 14:07:27.9	1.280	0.310	-0.660	0.190
2020/01/31 14:07:28.0	1.290	0.290	-0.650	0.140
2020/01/31 14:07:28.1	1.290	0.270	-0.650	0.080
2020/01/31 14:07:28.2	1.300	0.250	-0.640	0.020
2020/01/31 14:07:28.3	1.310	0.230	-0.630	-0.040
2020/01/31 14:07:28.4	1.330	0.210	-0.630	-0.110
2020/01/31 14:07:28.5	1.350	0.190	-0.620	-0.180
2020/01/31 14:07:28.6	1.370	0.170	-0.610	-0.250
2020/01/31 14:07:28.7	1.390	0.160	-0.610	-0.320
2020/01/31 14:07:28.8	1.420	0.140	-0.600	-0.390
2020/01/31 14:07:28.9	1.440	0.120	-0.590	-0.460
2020/01/31 14:07:29.0	1.460	0.110	-0.570	-0.530
2020/01/31 14:07:29.1	1.480	0.090	-0.560	-0.600
2020/01/31 14:07:29.2	1.500	0.080	-0.540	-0.670
2020/01/31 14:07:29.3	1.520	0.060	-0.520	-0.740
2020/01/31 14:07:29.4	1.540	0.050	-0.500	-0.800
2020/01/31 14:07:29.5	1.550	0.040	-0.470	-0.860
2020/01/31 14:07:29.6	1.560	0.020	-0.450	-0.920
2020/01/31 14:07:29.7	1.570	0.010	-0.420	-0.980
2020/01/31 14:07:29.8	1.580	-0.010	-0.390	-1.030
2020/01/31 14:07:29.9	1.590	-0.020	-0.350	-1.090
2020/01/31 14:07:30.0	1.600	-0.040	-0.310	-1.140
2020/01/31 14:07:30.1	1.610	-0.050	-0.270	-1.180
2020/01/31 14:07:30.2	1.610	-0.070	-0.230	-1.220
2020/01/31 14:07:30.3	1.610	-0.080	-0.190	-1.260
2020/01/31 14:07:30.4	1.620	-0.100	-0.140	-1.300
2020/01/31 14:07:30.5	1.620	-0.110	-0.100	-1.330
2020/01/31 14:07:30.6	1.620	-0.130	-0.050	-1.360
2020/01/31 14:07:30.7	1.620	-0.140	-0.010	-1.390
2020/01/31 14:07:30.8	1.620	-0.160	0.040	-1.410
2020/01/31 14:07:30.9	1.620	-0.170	0.080	-1.420
2020/01/31 14:07:31.0	1.620	-0.190	0.120	-1.430
2020/01/31 14:07:31.1	1.610	-0.200	0.160	-1.440
2020/01/31 14:07:31.2	1.610	-0.210	0.200	-1.440
2020/01/31 14:07:31.3	1.610	-0.220	0.230	-1.440
2020/01/31 14:07:31.4	1.610	-0.230	0.260	-1.430
2020/01/31 14:07:31.5	1.610	-0.240	0.290	-1.410
2020/01/31 14:07:31.6	1.590	-0.240	0.310	-1.390
2020/01/31 14:07:31.7	1.590	-0.250	0.330	-1.370
2020/01/31 14:07:31.8	1.590	-0.250	0.350	-1.340
2020/01/31 14:07:31.9	1.590	-0.250	0.360	-1.300
2020/01/31 14:07:32.0	1.590	-0.250	0.370	-1.270
2020/01/31 14:07:32.1	1.580	-0.250	0.380	-1.220
2020/01/31 14:07:32.2	1.580	-0.250	0.380	-1.180
2020/01/31 14:07:32.3	1.580	-0.250	0.380	-1.130
2020/01/31 14:07:32.4	1.570	-0.240	0.370	-1.080
2020/01/31 14:07:32.5	1.570	-0.240	0.360	-1.020
2020/01/31 14:07:32.6	1.560	-0.230	0.350	-0.970
2020/01/31 14:07:32.7	1.550	-0.230	0.340	-0.910
2020/01/31 14:07:32.8	1.540	-0.220	0.320	-0.850
2020/01/31 14:07:32.9	1.540	-0.220	0.300	-0.790
2020/01/31 14:07:33.0	1.520	-0.210	0.280	-0.730
2020/01/31 14:07:33.1	1.510	-0.210	0.260	-0.670
2020/01/31 14:07:33.2	1.500	-0.200	0.240	-0.610
2020/01/31 14:07:33.3	1.480	-0.200	0.220	-0.550
2020/01/31 14:07:33.4	1.460	-0.200	0.190	-0.490
2020/01/31 14:07:33.5	1.440	-0.190	0.170	-0.430
2020/01/31 14:07:33.6	1.420	-0.190	0.140	-0.370
2020/01/31 14:07:33.7	1.400	-0.190	0.120	-0.310
2020/01/31 14:07:33.8	1.380	-0.190	0.090	-0.260
2020/01/31 14:07:33.9	1.360	-0.190	0.070	-0.200
2020/01/31 14:07:34.0	1.330	-0.190	0.050	-0.150
2020/01/31 14:07:34.1	1.310	-0.190	0.020	-0.110
2020/01/31 14:07:34.2	1.290	-0.190	0.000	-0.060
2020/01/31 14:07:34.3	1.270	-0.190	-0.020	-0.010
2020/01/31 14:07:34.4	1.250	-0.190	-0.040	0.030
2020/01/31 14:07:34.5	1.240	-0.190	-0.060	0.070
2020/01/31 14:07:34.6	1.230	-0.200	-0.080	0.110
2020/01/31 14:07:34.7	1.220	-0.200	-0.100	0.150
2020/01/31 14:07:34.8	1.210	-0.200	-0.120	0.180
2020/01/31 14:07:34.9	1.200	-0.200	-0.130	0.220
2020/01/31 14:07:35.0	1.190	-0.190	-0.150	0.250
2020/01/31 14:07:35.1	1.190	-0.190	-0.170	0.280
2020/01/31 14:07:35.2	1.180	-0.190	-0.190	0.310
2020/01/31 14:07:35.3	1.180	-0.190	-0.200	0.330
2020/01/31 14:07:35.4	1.180	-0.180	-0.220	0.360
2020/01/31 14:07:35.5	1.180	-0.180	-0.230	0.380
2020/01/31 14:07:35.6	1.180	-0.170	-0.250	0.410
2020/01/31 14:07:35.7	1.180	-0.170	-0.260	0.430
2020/01/31 14:07:35.8	1.180	-0.160	-0.280	0.450
2020/01/31 14:07:35.9	1.180	-0.150	-0.290	0.470
2020/01/31 14:07:36.0	1.180	-0.150	-0.310	0.480
2020/01/31 14:07:36.1	1.180	-0.140	-0.320	0.490
2020/01/31 14:07:36.2	1.180	-0.130	-0.340	0.500
2020/01/31 14:07:36.3	1.180	-0.120	-0.350	0.500
2020/01/31 14:07:36.4	1.190	-0.110	-0.370	0.500
2020/01/31 14:07:36.5	1.190	-0.100	-0.390	0.490
2020/01/31 14:07:36.6	1.210	-0.090	-0.410	0.490
2020/01/31 14:07:36.7	1.210	-0.080	-0.430	0.480
2020/01/31 14:07:36.8	1.210	-0.070	-0.450	0.460
2020/01/31 14:07:36.9	1.210	-0.060	-0.470	0.450
2020/01/31 14:07:37.0	1.220	-0.050	-0.500	0.430
2020/01/31 14:07:37.1	1.220	-0.040	-0.520	0.410
2020/01/31 14:07:37.2	1.220	-0.020	-0.550	0.380
2020/01/31 14:07:37.3	1.230	-0.010	-0.580	0.360
2020/01/31 14:07:37.4	1.230	0.010	-0.600	0.330
2020/01/31 14:07:37.5	1.240	0.020	-0.630	0.300
2020/01/31 14:07:37.6	1.250	0.040	-0.660	0.270
2020/01/31 14:07:37.7	1.250	0.060	-0.680	0.240
2020/01/31 14:07:37.8	1.260	0.070	-0.710	0.210
2020/01/31 14:07:37.9	1.260	0.090	-0.730	0.180
2020/01/31 14:07:38.0	1.260	0.110	-0.740	0.150
2020/01/31 14:07:38.1	1.270	0.130	-0.760	0.120
2020/01/31 14:07:38.2	1.270	0.140	-0.770	0.090
2020/01/31 14:07:38.3	1.270	0.160	-0.780	0.060
2020/01/31 14:07:38.4	1.280	0.180	-0.790	0.030
2020/01/31 14:07:38.5	1.280	0.190	-0.790	-0.000
2020/01/31 14:07:38.6	1.270	0.210	-0.790	-0.030
2020/01/31 14:07:38.7	1.270	0.230	-0.780	-0.050
2020/01/31 14:07:38.8	1.270	0.240	-0.780	-0.070
2020/01/31 14:07:38.9	1.260	0.250	-0.760	-0.090
2020/01/31 14:07:39.0	1.260	0.270	-0.750	-0.110
2020/01/31 14:07:39.1	1.250	0.280	-0.730	-0.130
2020/01/31 14:07:39.2	1.250	0.290	-0.710	-0.150
2020/01/31 14:07:39.3	1.240	0.300	-0.690	-0.170
2020/01/31 14:07:39.4	1.230	0.310	-0.660	-0.180
2020/01/31 14:07:39.5	1.230	0.310	-0.630	-0.200
2020/01/31 14:07:39.6	1.230	0.320	-0.600	-0.210
2020/01/31 14:07:39.7	1.220	0.320	-0.570	-0.220
2020/01/31 14:07:39.8	1.220	0.320	-0.540	-0.240
2020/01/31 14:07:39.9	1.210	0.320	-0.510	-0.250
2020/01/31 14:07:40.0	1.210	0.320	-0.470	-0.270
2020/01/31 14:07:40.1	1.210	0.320	-0.440	-0.290
2020/01/31 14:07:40.2	1.210	0.310	-0.410	-0.300
2020/01/31 14:07:40.3	1.220	0.310	-0.370	-0.320
2020/01/31 14:07:40.4	1.220	0.300	-0.340	-0.340
2020/01/31 14:07:40.5	1.230	0.290	-0.310	-0.360
2020/01/31 14:07:40.6	1.230	0.270	-0.290	-0.380
2020/01/31 14:07:40.7	1.240	0.260	-0.260	-0.400
2020/01/31 14:07:40.8	1.250	0.250	-0.240	-0.420
2020/01/31 14:07:40.9	1.260	0.230	-0.220	-0.440
2020/01/31 14:07:41.0	1.270	0.220	-0.200	-0.460
2020/01/31 14:07:41.1	1.280	0.200	-0.180	-0.490
2020/01/31 14:07:41.2	1.300	0.180	-0.170	-0.510
2020/01/31 14:07:41.3	1.310	0.160	-0.150	-0.520
2020/01/31 14:07:41.4	1.320	0.140	-0.140	-0.540
2020/01/31 14:07:41.5	1.330	0.120	-0.120	-0.560
2020/01/31 14:07:41.6	1.350	0.100	-0.110	-0.570
2020/01/31 14:07:41.7	1.360	0.080	-0.100	-0.580
2020/01/31 14:07:41.8	1.370	0.060	-0.090	-0.590
2020/01/31 14:07:41.9	1.380	0.040	-0.080	-0.600
2020/01/31 14:07:42.0	1.380	0.020	-0.070	-0.610
2020/01/31 14:07:42.1	1.380	-0.000	-0.060	-0.610
2020/01/31 14:07:42.2	1.380	-0.020	-0.040	-0.610
2020/01/31 14:07:42.3	1.380	-0.040	-0.030	-0.610
2020/01/31 14:07:42.4	1.380	-0.060	-0.020	-0.610
2020/01/31 14:07:42.5	1.370	-0.080	-0.000	-0.600
2020/01/31 14:07:42.6	1.360	-0.100	0.010	-0.590
2020/01/31 14:07:42.7	1.350	-0.120	0.020	-0.590
2020/01/31 14:07:42.8	1.340	-0.140	0.040	-0.580
2020/01/31 14:07:42.9	1.330	-0.150	0.050	-0.570
2020/01/31 14:07:43.0	1.320	-0.170	0.070	-0.560
2020/01/31 14:07:43.1	1.310	-0.190	0.080	-0.560
2020/01/31 14:07:43.2	1.290	-0.200	0.090	-0.550
2020/01/31 14:07:43.3	1.270	-0.220	0.110	-0.540
2020/01/31 14:07:43.4	1.260	-0.230	0.120	-0.530
2020/01/31 14:07:43.5	1.240	-0.240	0.130	-0.520
2020/01/31 14:07:43.6	1.220	-0.250	0.140	-0.520
2020/01/31 14:07:43.7	1.210	-0.260	0.150	-0.510
2020/01/31 14:07:43.8	1.190	-0.270	0.160	-0.500
2020/01/31 14:07:43.9	1.170	-0.270	0.160	-0.500
2020/01/31 14:07:44.0	1.150	-0.280	0.170	-0.490
2020/01/31 14:07:44.1	1.130	-0.280	0.180	-0.480
2020/01/31 14:07:44.2	1.110	-0.280	0.180	-0.480
2020/01/31 14:07:44.3	1.090	-0.280	0.180	-0.470
2020/01/31 14:07:44.4	1.060	-0.270	0.190	-0.470
2020/01/31 14:07:44.5	1.040	-0.270	0.190	-0.460
2020/01/31 14:07:44.6	1.020	-0.260	0.190	-0.450
2020/01/31 14:07:44.7	1.000	-0.260	0.190	-0.440
2020/01/31 14:07:44.8	0.970	-0.250	0.180	-0.430
2020/01/31 14:07:44.9	0.950	-0.240	0.180	-0.420
2020/01/31 14:07:45.0	0.930	-0.220	0.180	-0.410
2020/01/31 14:07:45.1	0.900	-0.210	0.170	-0.390
2020/01/31 14:07:45.2	0.880	-0.200	0.170	-0.380
2020/01/31 14:07:45.3	0.860	-0.180	0.160	-0.360
2020/01/31 14:07:45.4	0.830	-0.170	0.150	-0.350
2020/01/31 14:07:45.5	0.810	-0.150	0.140	-0.330
2020/01/31 14:07:45.6	0.790	-0.130	0.120	-0.320
2020/01/31 14:07:45.7	0.770	-0.110	0.110	-0.300
2020/01/31 14:07:45.8	0.750	-0.090	0.090	-0.280
2020/01/31 14:07:45.9	0.730	-0.070	0.080	-0.260
2020/01/31 14:07:46.0	0.710	-0.050	0.060	-0.240
2020/01/31 14:07:46.1	0.690	-0.040	0.040	-0.220
2020/01/31 14:07:46.2	0.670	-0.020	0.020	-0.200
2020/01/31 14:07:46.3	0.650	0.000	-0.000	-0.180
2020/01/31 14:07:46.4	0.630	0.020	-0.030	-0.160
2020/01/31 14:07:46.5	0.620	0.040	-0.050	-0.150
2020/01/31 14:07:46.6	0.610	0.050	-0.080	-0.120
2020/01/31 14:07:46.7	0.600	0.070	-0.100	-0.110
2020/01/31 14:07:46.8	0.580	0.080	-0.130	-0.090
2020/01/31 14:07:46.9	0.570	0.100	-0.160	-0.070
2020/01/31 14:07:47.0	0.560	0.110	-0.190	-0.050
2020/01/31 14:07:47.1	0.550	0.120	-0.220	-0.030
2020/01/31 14:07:47.2	0.530	0.130	-0.240	-0.010
2020/01/31 14:07:47.3	0.520	0.140	-0.270	0.010
2020/01/31 14:07:47.4	0.510	0.150	-0.300	0.030
2020/01/31 14:07:47.5	0.490	0.160	-0.320	0.050
2020/01/31 14:07:47.6	0.480	0.160	-0.350	0.080
2020/01/31 14:07:47.7	0.460	0.170	-0.370	0.110
2020/01/31 14:07:47.8	0.440	0.170	-0.390	0.140
2020/01/31 14:07:47.9	0.420	0.180	-0.410	0.170
2020/01/31 14:07:48.0	0.410	0.180	-0.430	0.200
2020/01/31 14:07:48.1	0.390	0.180	-0.450	0.230
2020/01/31 14:07:48.2	0.370	0.180	-0.460	0.260
2020/01/31 14:07:48.3	0.350	0.190	-0.480	0.290
2020/01/31 14:07:48.4	0.330	0.190	-0.500	0.320
2020/01/31 14:07:48.5	0.320	0.190	-0.510	0.350
2020/01/31 14:07:48.6	0.300	0.190	-0.520	0.370
2020/01/31 14:07:48.7	0.290	0.190	-0.540	0.400
2020/01/31 14:07:48.8	0.280	0.190	-0.550	0.420
2020/01/31 14:07:48.9	0.280	0.200	-0.570	0.430
2020/01/31 14:07:49.0	0.270	0.200	-0.590	0.450
2020/01/31 14:07:49.1	0.270	0.200	-0.600	0.460
2020/01/31 14:07:49.2	0.270	0.210	-0.620	0.470
2020/01/31 14:07:49.3	0.280	0.210	-0.630	0.470
2020/01/31 14:07:49.4	0.280	0.220	-0.650	0.470
2020/01/31 14:07:49.5	0.290	0.220	-0.670	0.470
2020/01/31 14:07:49.6	0.310	0.230	-0.680	0.470
2020/01/31 14:07:49.7	0.320	0.240	-0.690	0.460
2020/01/31 14:07:49.8	0.340	0.240	-0.710	0.450
2020/01/31 14:07:49.9	0.350	0.250	-0.720	0.450
2020/01/31 14:07:50.0	0.360	0.250	-0.720	0.440
2020/01/31 14:07:50.1	0.380	0.260	-0.730	0.430
2020/01/31 14:07:50.2	0.390	0.260	-0.730	0.420
2020/01/31 14:07:50.3	0.400	0.270	-0.730	0.410
2020/01/31 14:07:50.4	0.410	0.270	-0.730	0.410
2020/01/31 14:07:50.5	0.420	0.260	-0.720	0.400
2020/01/31 14:07:50.6	0.410	0.260	-0.710	0.400
2020/01/31 14:07:50.7	0.420	0.260	-0.700	0.390
2020/01/31 14:07:50.8	0.420	0.250	-0.680	0.380
2020/01/31 14:07:50.9	0.420	0.240	-0.660	0.370
2020/01/31 14:07:51.0	0.430	0.220	-0.640	0.360
2020/01/31 14:07:51.1	0.430	0.210	-0.620	0.350
2020/01/31 14:07:51.2	0.430	0.190	-0.600	0.330
2020/01/31 14:07:51.3	0.430	0.170	-0.570	0.310
2020/01/31 14:07:51.4	0.440	0.140	-0.550	0.290
2020/01/31 14:07:51.5	0.440	0.110	-0.520	0.270
2020/01/31 14:07:51.6	0.440	0.080	-0.500	0.240
2020/01/31 14:07:51.7	0.450	0.050	-0.470	0.220
2020/01/31 14:07:51.8	0.460	0.020	-0.450	0.180
2020/01/31 14:07:51.9	0.470	-0.020	-0.430	0.150
2020/01/31 14:07:52.0	0.490	-0.060	-0.410	0.110
2020/01/31 14:07:52.1	0.510	-0.090	-0.390	0.070
2020/01/31 14:07:52.2	0.530	-0.130	-0.370	0.030
2020/01/31 14:07:52.3	0.560	-0.170	-0.360	-0.020
2020/01/31 14:07:52.4	0.580	-0.220	-0.340	-0.070
2020/01/31 14:07:52.5	0.610	-0.260	-0.330	-0.120
2020/01/31 14:07:52.6	0.660	-0.300	-0.320	-0.170
2020/01/31 14:07:52.7	0.690	-0.340	-0.310	-0.220
2020/01/31 14:07:52.8	0.720	-0.380	-0.300	-0.280
2020/01/31 14:07:52.9	0.760	-0.410	-0.290	-0.330
2020/01/31 14:07:53.0	0.790	-0.450	-0.280	-0.390
2020/01/31 14:07:53.1	0.820	-0.480	-0.260	-0.450
2020/01/31 14:07:53.2	0.860	-0.520	-0.250	-0.500
2020/01/31 14:07:53.3	0.890	-0.550	-0.240	-0.560
2020/01/31 14:07:53.4	0.920	-0.570	-0.220	-0.610
2020/01/31 14:07:53.5	0.950	-0.600	-0.200	-0.660
2020/01/31 14:07:53.6	0.980	-0.620	-0.180	-0.710
2020/01/31 14:07:53.7	1.000	-0.640	-0.160	-0.760
2020/01/31 14:07:53.8	1.030	-0.650	-0.140	-0.800
2020/01/31 14:07:53.9	1.050	-0.660	-0.110	-0.840
2020/01/31 14:07:54.0	1.070	-0.670	-0.080	-0.880
2020/01/31 14:07:54.1	1.080	-0.670	-0.050	-0.900
2020/01/31 14:07:54.2	1.090	-0.670	-0.020	-0.930
2020/01/31 14:07:54.3	1.090	-0.660	0.020	-0.950
2020/01/31 14:07:54.4	1.090	-0.660	0.050	-0.960
2020/01/31 14:07:54.5	1.090	-0.640	0.090	-0.960
2020/01/31 14:07:54.6	1.080	-0.630	0.120	-0.960
2020/01/31 14:07:54.7	1.070	-0.610	0.160	-0.950
2020/01/31 14:07:54.8	1.050	-0.590	0.200	-0.940
2020/01/31 14:07:54.9	1.030	-0.560	0.240	-0.910
2020/01/31 14:07:55.0	1.000	-0.530	0.280	-0.880
2020/01/31 14:07:55.1	0.970	-0.500	0.310	-0.850
2020/01/31 14:07:55.2	0.930	-0.470	0.340	-0.810
2020/01/31 14:07:55.3	0.900	-0.440	0.370	-0.760
2020/01/31 14:07:55.4	0.850	-0.400	0.400	-0.710
2020/01/31 14:07:55.5	0.810	-0.360	0.420	-0.660
2020/01/31 14:07:55.6	0.760	-0.320	0.440	-0.600
2020/01/31 14:07:55.7	0.710	-0.280	0.460	-0.540
2020/01/31 14:07:55.8	0.660	-0.240	0.470	-0.480
2020/01/31 14:07:55.9	0.610	-0.190	0.470	-0.420
2020/01/31 14:07:56.0	0.560	-0.150	0.470	-0.360
2020/01/31 14:07:56.1	0.510	-0.110	0.470	-0.290
2020/01/31 14:07:56.2	0.460	-0.060	0.460	-0.230
2020/01/31 14:07:56.3	0.410	-0.020	0.440	-0.170
2020/01/31 14:07:56.4	0.360	0.030	0.420	-0.100
2020/01/31 14:07:56.5	0.320	0.080	0.390	-0.040
2020/01/31 14:07:56.6	0.280	0.120	0.360	0.020
2020/01/31 14:07:56.7	0.240	0.170	0.320	0.080
2020/01/31 14:07:56.8	0.210	0.210	0.280	0.130
2020/01/31 14:07:56.9	0.170	0.260	0.230	0.180
2020/01/31 14:07:57.0	0.140	0.300	0.180	0.230
2020/01/31 14:07:57.1	0.120	0.350	0.120	0.280
2020/01/31 14:07:57.2	0.090	0.390	0.060	0.320
2020/01/31 14:07:57.3	0.070	0.440	0.000	0.370
2020/01/31 14:07:57.4	0.060	0.480	-0.060	0.400
2020/01/31 14:07:57.5	0.050	0.520	-0.120	0.440
2020/01/31 14:07:57.6	0.030	0.560	-0.190	0.480
2020/01/31 14:07:57.7	0.020	0.600	-0.260	0.510
2020/01/31 14:07:57.8	0.020	0.630	-0.320	0.550
2020/01/31 14:07:57.9	0.010	0.670	-0.380	0.570
2020/01/31 14:07:58.0	0.010	0.700	-0.430	0.600
2020/01/31 14:07:58.1	0.010	0.730	-0.490	0.630
2020/01/31 14:07:58.2	0.010	0.750	-0.530	0.660
2020/01/31 14:07:58.3	0.000	0.770	-0.570	0.680
2020/01/31 14:07:58.4	0.000	0.790	-0.610	0.710
2020/01/31 14:07:58.5	359.990	0.810	-0.640	0.730
2020/01/31 14:07:58.6	0.000	0.810	-0.660	0.750
2020/01/31 14:07:58.7	359.990	0.820	-0.680	0.760
2020/01/31 14:07:58.8	359.990	0.820	-0.690	0.770
2020/01/31 14:07:58.9	359.980	0.810	-0.690	0.780
2020/01/31 14:07:59.0	359.980	0.800	-0.690	0.790
2020/01/31 14:07:59.1	359.970	0.790	-0.680	0.790
2020/01/31 14:07:59.2	359.960	0.770	-0.670	0.780
2020/01/31 14:07:59.3	359.960	0.750	-0.650	0.780
2020/01/31 14:07:59.4	359.950	0.720	-0.620	0.760
2020/01/31 14:07:59.5	359.950	0.680	-0.600	0.750
2020/01/31 14:07:59.6	359.940	0.640	-0.570	0.730
2020/01/31 14:07:59.7	359.940	0.600	-0.530	0.700
2020/01/31 14:07:59.8	359.940	0.550	-0.500	0.670
2020/01/31 14:07:59.9	359.940	0.500	-0.460	0.630
2020/01/31 14:08:00.0	359.950	0.450	-0.420	0.590
2020/01/31 14:08:00.1	359.950	0.390	-0.380	0.550
2020/01/31 14:08:00.2	359.960	0.340	-0.340	0.500
2020/01/31 14:08:00.3	359.970	0.280	-0.310	0.450
2020/01/31 14:08:00.4	359.980	0.210	-0.270	0.390
2020/01/31 14:08:00.5	359.990	0.150	-0.240	0.330
2020/01/31 14:08:00.6	0.000	0.090	-0.210	0.270
2020/01/31 14:08:00.7	0.020	0.020	-0.180	0.200
2020/01/31 14:08:00.8	0.040	-0.040	-0.160	0.140
2020/01/31 14:08:00.9	0.060	-0.110	-0.140	0.070
2020/01/31 14:08:01.0	0.090	-0.170	-0.130	-0.000
2020/01/31 14:08:01.1	0.110	-0.230	-0.120	-0.070
2020/01/31 14:08:01.2	0.140	-0.290	-0.110	-0.150
2020/01/31 14:08:01.3	0.170	-0.340	-0.110	-0.220
2020/01/31 14:08:01.4	0.200	-0.400	-0.110	-0.290
2020/01/31 14:08:01.5	0.230	-0.450	-0.120	-0.370
2020/01/31 14:08:01.6	0.280	-0.490	-0.130	-0.440
2020/01/31 14:08:01.7	0.310	-0.530	-0.150	-0.520
2020/01/31 14:08:01.8	0.350	-0.570	-0.170	-0.600
2020/01/31 14:08:01.9	0.390	-0.610	-0.190	-0.680
2020/01/31 14:08:02.0	0.420	-0.640	-0.220	-0.760
2020/01/31 14:08:02.1	0.460	-0.660	-0.240	-0.840
2020/01/31 14:08:02.2	0.500	-0.690	-0.280	-0.920
2020/01/31 14:08:02.3	0.540	-0.700	-0.310	-1.000
2020/01/31 14:08:02.4	0.580	-0.720	-0.340	-1.080
2020/01/31 14:08:02.5	0.610	-0.730	-0.380	-1.160
2020/01/31 14:08:02.6	0.650	-0.730	-0.410	-1.240
2020/01/31 14:08:02.7	0.680	-0.730	-0.450	-1.310
2020/01/31 14:08:02.8	0.720	-0.720	-0.490	-1.390
2020/01/31 14:08:02.9	0.750	-0.720	-0.520	-1.460
2020/01/31 14:08:03.0	0.790	-0.700	-0.560	-1.530
2020/01/31 14:08:03.1	0.820	-0.690	-0.590	-1.590
2020/01/31 14:08:03.2	0.850	-0.670	-0.610	-1.640
2020/01/31 14:08:03.3	0.870	-0.650	-0.640	-1.690
2020/01/31 14:08:03.4	0.900	-0.620	-0.660	-1.740
2020/01/31 14:08:03.5	0.920	-0.600	-0.670	-1.770
2020/01/31 14:08:03.6	0.940	-0.570	-0.690	-1.800
2020/01/31 14:08:03.7	0.950	-0.530	-0.690	-1.820
2020/01/31 14:08:03.8	0.960	-0.500	-0.690	-1.830
2020/01/31 14:08:03.9	0.970	-0.470	-0.690	-1.830
2020/01/31 14:08:04.0	0.970	-0.430	-0.680	-1.830
2020/01/31 14:08:04.1	0.970	-0.390	-0.660	-1.810
2020/01/31 14:08:04.2	0.970	-0.360	-0.640	-1.790
2020/01/31 14:08:04.3	0.960	-0.320	-0.620	-1.760
2020/01/31 14:08:04.4	0.950	-0.280	-0.590	-1.730
2020/01/31 14:08:04.5	0.940	-0.250	-0.560	-1.690
2020/01/31 14:08:04.6	0.930	-0.210	-0.520	-1.630
2020/01/31 14:08:04.7	0.920	-0.170	-0.480	-1.580
2020/01/31 14:08:04.8	0.900	-0.140	-0.440	-1.520
2020/01/31 14:08:04.9	0.880	-0.110	-0.400	-1.460
2020/01/31 14:08:05.0	0.870	-0.070	-0.360	-1.390
2020/01/31 14:08:05.1	0.850	-0.040	-0.310	-1.330
2020/01/31 14:08:05.2	0.830	-0.010	-0.270	-1.260
2020/01/31 14:08:05.3	0.810	0.010	-0.230	-1.180
2020/01/31 14:08:05.4	0.800	0.040	-0.180	-1.110
2020/01/31 14:08:05.5	0.780	0.070	-0.140	-1.030
2020/01/31 14:08:05.6	0.780	0.090	-0.110	-0.950
2020/01/31 14:08:05.7	0.770	0.120	-0.070	-0.870
2020/01/31 14:08:05.8	0.760	0.140	-0.030	-0.790
2020/01/31 14:08:05.9	0.740	0.160	-0.000	-0.710
2020/01/31 14:08:06.0	0.730	0.180	0.030	-0.640
2020/01/31 14:08:06.1	0.720	0.200	0.060	-0.560
2020/01/31 14:08:06.2	0.710	0.220	0.080	-0.480
2020/01/31 14:08:06.3	0.700	0.240	0.110	-0.400
2020/01/31 14:08:06.4	0.690	0.250	0.130	-0.320
2020/01/31 14:08:06.5	0.680	0.270	0.140	-0.250
2020/01/31 14:08:06.6	0.670	0.280	0.160	-0.170
2020/01/31 14:08:06.7	0.660	0.290	0.170	-0.090
2020/01/31 14:08:06.8	0.640	0.300	0.180	-0.020
2020/01/31 14:08:06.9	0.630	0.310	0.190	0.060
2020/01/31 14:08:07.0	0.620	0.310	0.200	0.130
2020/01/31 14:08:07.1	0.600	0.320	0.200	0.200
2020/01/31 14:08:07.2	0.590	0.320	0.200	0.260
2020/01/31 14:08:07.3	0.580	0.320	0.200	0.330
2020/01/31 14:08:07.4	0.560	0.320	0.190	0.390
2020/01/31 14:08:07.5	0.550	0.320	0.190	0.440
2020/01/31 14:08:07.6	0.530	0.310	0.170	0.490
2020/01/31 14:08:07.7	0.520	0.310	0.160	0.540
2020/01/31 14:08:07.8	0.510	0.300	0.150	0.580
2020/01/31 14:08:07.9	0.490	0.290	0.130	0.610
2020/01/31 14:08:08.0	0.480	0.290	0.120	0.640
2020/01/31 14:08:08.1	0.470	0.280	0.100	0.670
2020/01/31 14:08:08.2	0.460	0.270	0.080	0.680
2020/01/31 14:08:08.3	0.450	0.250	0.060	0.700
2020/01/31 14:08:08.4	0.440	0.240	0.030	0.710
2020/01/31 14:08:08.5	0.430	0.230	0.010	0.710
2020/01/31 14:08:08.6	0.400	0.220	-0.020	0.710
2020/01/31 14:08:08.7	0.390	0.200	-0.040	0.710
2020/01/31 14:08:08.8	0.390	0.190	-0.070	0.700
2020/01/31 14:08:08.9	0.380	0.180	-0.100	0.690
2020/01/31 14:08:09.0	0.380	0.170	-0.130	0.680
2020/01/31 14:08:09.1	0.380	0.150	-0.150	0.660
2020/01/31 14:08:09.2	0.380	0.140	-0.180	0.640
2020/01/31 14:08:09.3	0.380	0.130	-0.210	0.620
2020/01/31 14:08:09.4	0.380	0.120	-0.240	0.600
2020/01/31 14:08:09.5	0.390	0.110	-0.260	0.580
2020/01/31 14:08:09.6	0.390	0.090	-0.290	0.550
2020/01/31 14:08:09.7	0.400	0.080	-0.310	0.520
2020/01/31 14:08:09.8	0.410	0.070	-0.330	0.490
2020/01/31 14:08:09.9	0.410	0.060	-0.350	0.470
2020/01/31 14:08:10.0	0.420	0.060	-0.370	0.440
2020/01/31 14:08:10.1	0.430	0.050	-0.390	0.410
2020/01/31 14:08:10.2	0.440	0.040	-0.400	0.380
2020/01/31 14:08:10.3	0.450	0.030	-0.420	0.360
2020/01/31 14:08:10.4	0.460	0.020	-0.430	0.330
2020/01/31 14:08:10.5	0.470	0.010	-0.430	0.300
2020/01/31 14:08:10.6	0.480	0.000	-0.440	0.280
2020/01/31 14:08:10.7	0.480	-0.010	-0.440	0.250
2020/01/31 14:08:10.8	0.490	-0.020	-0.440	0.230
2020/01/31 14:08:10.9	0.490	-0.030	-0.440	0.200
2020/01/31 14:08:11.0	0.490	-0.040	-0.440	0.180
2020/01/31 14:08:11.1	0.490	-0.050	-0.440	0.160
2020/01/31 14:08:11.2	0.490	-0.070	-0.430	0.130
2020/01/31 14:08:11.3	0.490	-0.080	-0.420	0.110
2020/01/31 14:08:11.4	0.480	-0.100	-0.410	0.090
2020/01/31 14:08:11.5	0.470	-0.110	-0.400	0.070
2020/01/31 14:08:11.6	0.470	-0.130	-0.390	0.040
2020/01/31 14:08:11.7	0.460	-0.140	-0.380	0.020
2020/01/31 14:08:11.8	0.450	-0.160	-0.370	0.000
2020/01/31 14:08:11.9	0.440	-0.170	-0.350	-0.020
2020/01/31 14:08:12.0	0.430	-0.190	-0.340	-0.040
2020/01/31 14:08:12.1	0.410	-0.200	-0.330	-0.060
2020/01/31 14:08:12.2	0.400	-0.210	-0.320	-0.080
2020/01/31 14:08:12.3	0.390	-0.230	-0.320	-0.100
2020/01/31 14:08:12.4	0.370	-0.240	-0.310	-0.120
2020/01/31 14:08:12.5	0.360	-0.250	-0.300	-0.140
2020/01/31 14:08:12.6	0.350	-0.260	-0.300	-0.150
2020/01/31 14:08:12.7	0.340	-0.260	-0.300	-0.170
2020/01/31 14:08:12.8	0.330	-0.270	-0.300	-0.190
2020/01/31 14:08:12.9	0.330	-0.270	-0.300	-0.210
2020/01/31 14:08:13.0	0.320	-0.270	-0.300	-0.230
2020/01/31 14:08:13.1	0.320	-0.270	-0.310	-0.250
2020/01/31 14:08:13.2	0.310	-0.270	-0.310	-0.270
2020/01/31 14:08:13.3	0.310	-0.260	-0.320	-0.290
2020/01/31 14:08:13.4	0.310	-0.250	-0.320	-0.310
2020/01/31 14:08:13.5	0.310	-0.240	-0.330	-0.330
2020/01/31 14:08:13.6	0.310	-0.220	-0.340	-0.350
2020/01/31 14:08:13.7	0.310	-0.210	-0.340	-0.370
2020/01/31 14:08:13.8	0.320	-0.190	-0.350	-0.390
2020/01/31 14:08:13.9	0.320	-0.160	-0.360	-0.410
2020/01/31 14:08:14.0	0.330	-0.140	-0.360	-0.430
2020/01/31 14:08:14.1	0.340	-0.110	-0.370	-0.440
2020/01/31 14:08:14.2	0.350	-0.090	-0.370	-0.460
2020/01/31 14:08:14.3	0.370	-0.060	-0.370	-0.470
2020/01/31 14:08:14.4	0.380	-0.020	-0.380	-0.490
2020/01/31 14:08:14.5	0.390	0.010	-0.370	-0.500
2020/01/31 14:08:14.6	0.400	0.040	-0.370	-0.510
2020/01/31 14:08:14.7	0.410	0.070	-0.370	-0.520
2020/01/31 14:08:14.8	0.430	0.100	-0.360	-0.530
2020/01/31 14:08:14.9	0.440	0.140	-0.350	-0.530
2020/01/31 14:08:15.0	0.460	0.170	-0.330	-0.530
2020/01/31 14:08:15.1	0.470	0.190	-0.320	-0.530
2020/01/31 14:08:15.2	0.480	0.220	-0.300	-0.520
2020/01/31 14:08:15.3	0.490	0.240	-0.280	-0.510
2020/01/31 14:08:15.4	0.510	0.260	-0.260	-0.500
2020/01/31 14:08:15.5	0.520	0.280	-0.230	-0.490
2020/01/31 14:08:15.6	0.530	0.300	-0.210	-0.480
2020/01/31 14:08:15.7	0.530	0.310	-0.190	-0.460
2020/01/31 14:08:15.8	0.540	0.310	-0.160	-0.450
2020/01/31 14:08:15.9	0.550	0.310	-0.130	-0.440
2020/01/31 14:08:16.0	0.560	0.310	-0.110	-0.430
2020/01/31 14:08:16.1	0.570	0.300	-0.080	-0.410
2020/01/31 14:08:16.2	0.570	0.290	-0.050	-0.410
2020/01/31 14:08:16.3	0.580	0.270	-0.030	-0.400
2020/01/31 14:08:16.4	0.580	0.250	-0.010	-0.390
2020/01/31 14:08:16.5	0.580	0.230	0.020	-0.390
2020/01/31 14:08:16.6	0.580	0.200	0.030	-0.390
2020/01/31 14:08:16.7	0.580	0.170	0.050	-0.390
2020/01/31 14:08:16.8	0.580	0.130	0.070	-0.390
2020/01/31 14:08:16.9	0.580	0.100	0.080	-0.390
2020/01/31 14:08:17.0	0.580	0.050	0.090	-0.400
2020/01/31 14:08:17.1	0.570	0.010	0.100	-0.410
2020/01/31 14:08:17.2	0.560	-0.030	0.100	-0.420
2020/01/31 14:08:17.3	0.560	-0.080	0.110	-0.430
2020/01/31 14:08:17.4	0.550	-0.130	0.110	-0.450
2020/01/31 14:08:17.5	0.540	-0.170	0.100	-0.470
2020/01/31 14:08:17.6	0.550	-0.220	0.090	-0.480
2020/01/31 14:08:17.7	0.530	-0.270	0.080	-0.500
2020/01/31 14:08:17.8	0.520	-0.310	0.070	-0.520
2020/01/31 14:08:17.9	0.510	-0.350	0.060	-0.530
2020/01/31 14:08:18.0	0.490	-0.390	0.040	-0.550
2020/01/31 14:08:18.1	0.480	-0.430	0.020	-0.570
2020/01/31 14:08:18.2	0.460	-0.460	-0.000	-0.590
2020/01/31 14:08:18.3	0.450	-0.490	-0.030	-0.610
2020/01/31 14:08:18.4	0.430	-0.520	-0.050	-0.620
2020/01/31 14:08:18.5	0.420	-0.540	-0.080	-0.640
2020/01/31 14:08:18.6	0.400	-0.560	-0.110	-0.650
2020/01/31 14:08:18.7	0.390	-0.570	-0.140	-0.660
2020/01/31 14:08:18.8	0.370	-0.580	-0.160	-0.680
2020/01/31 14:08:18.9	0.360	-0.580	-0.190	-0.690
2020/01/31 14:08:19.0	0.350	-0.580	-0.220	-0.700
2020/01/31 14:08:19.1	0.330	-0.570	-0.250	-0.710
2020/01/31 14:08:19.2	0.320	-0.560	-0.280	-0.720
2020/01/31 14:08:19.3	0.310	-0.540	-0.310	-0.730
2020/01/31 14:08:19.4	0.300	-0.520	-0.340	-0.730
2020/01/31 14:08:19.5	0.290	-0.500	-0.370	-0.740
2020/01/31 14:08:19.6	0.260	-0.470	-0.400	-0.740
2020/01/31 14:08:19.7	0.250	-0.430	-0.420	-0.740
2020/01/31 14:08:19.8	0.240	-0.400	-0.450	-0.730
2020/01/31 14:08:19.9	0.230	-0.350	-0.470	-0.720
2020/01/31 14:08:20.0	0.220	-0.310	-0.490	-0.710
2020/01/31 14:08:20.1	0.210	-0.260	-0.510	-0.700
2020/01/31 14:08:20.2	0.200	-0.220	-0.530	-0.680
2020/01/31 14:08:20.3	0.180	-0.170	-0.540	-0.660
2020/01/31 14:08:20.4	0.170	-0.110	-0.550	-0.630
2020/01/31 14:08:20.5	0.160	-0.060	-0.560	-0.610
2020/01/31 14:08:20.6	0.130	-0.010	-0.570	-0.580
2020/01/31 14:08:20.7	0.120	0.050	-0.580	-0.540
2020/01/31 14:08:20.8	0.110	0.100	-0.580	-0.510
2020/01/31 14:08:20.9	0.090	0.150	-0.570	-0.470
2020/01/31 14:08:21.0	0.080	0.200	-0.570	-0.440
2020/01/31 14:08:21.1	0.070	0.250	-0.560	-0.400
2020/01/31 14:08:21.2	0.060	0.300	-0.550	-0.360
2020/01/31 14:08:21.3	0.060	0.350	-0.530	-0.320
2020/01/31 14:08:21.4	0.050	0.390	-0.520	-0.270
2020/01/31 14:08:21.5	0.040	0.440	-0.500	-0.230
2020/01/31 14:08:21.6	0.040	0.470	-0.480	-0.190
2020/01/31 14:08:21.7	0.040	0.510	-0.450	-0.140
2020/01/31 14:08:21.8	0.040	0.540	-0.430	-0.100
2020/01/31 14:08:21.9	0.040	0.570	-0.400	-0.050
2020/01/31 14:08:22.0	0.050	0.600	-0.380	-0.010
2020/01/31 14:08:22.1	0.050	0.620	-0.350	0.040
2020/01/31 14:08:22.2	0.060	0.640	-0.330	0.080
2020/01/31 14:08:22.3	0.070	0.650	-0.300	0.130
2020/01/31 14:08:22.4	0.080	0.660	-0.280	0.170
2020/01/31 14:08:22.5	0.100	0.670	-0.250	0.210
2020/01/31 14:08:22.6	0.110	0.670	-0.230	0.260
2020/01/31 14:08:22.7	0.130	0.670	-0.210	0.300
2020/01/31 14:08:22.8	0.150	0.670	-0.200	0.330
2020/01/31 14:08:22.9	0.180	0.660	-0.180	0.370
2020/01/31 14:08:23.0	0.210	0.650	-0.170	0.400
2020/01/31 14:08:23.1	0.240	0.640	-0.160	0.440
2020/01/31 14:08:23.2	0.270	0.620	-0.160	0.460
2020/01/31 14:08:23.3	0.310	0.600	-0.150	0.490
2020/01/31 14:08:23.4	0.350	0.580	-0.150	0.510
2020/01/31 14:08:23.5	0.380	0.550	-0.150	0.530
2020/01/31 14:08:23.6	0.420	0.520	-0.160	0.550
2020/01/31 14:08:23.7	0.450	0.490	-0.170	0.570
2020/01/31 14:08:23.8	0.490	0.460	-0.170	0.580
2020/01/31 14:08:23.9	0.530	0.430	-0.180	0.590
2020/01/31 14:08:24.0	0.560	0.390	-0.190	0.590
2020/01/31 14:08:24.1	0.600	0.350	-0.200	0.600
2020/01/31 14:08:24.2	0.630	0.310	-0.210	0.600
2020/01/31 14:08:24.3	0.650	0.270	-0.210	0.600
2020/01/31 14:08:24.4	0.680	0.220	-0.220	0.590
2020/01/31 14:08:24.5	0.700	0.180	-0.220	0.590
2020/01/31 14:08:24.6	0.730	0.130	-0.220	0.580
2020/01/31 14:08:24.7	0.740	0.080	-0.220	0.570
2020/01/31 14:08:24.8	0.750	0.030	-0.210	0.560
2020/01/31 14:08:24.9	0.760	-0.020	-0.200	0.550
2020/01/31 14:08:25.0	0.760	-0.070	-0.190	0.540
2020/01/31 14:08:25.1	0.750	-0.120	-0.180	0.530
2020/01/31 14:08:25.2	0.740	-0.170	-0.160	0.510
2020/01/31 14:08:25.3	0.730	-0.220	-0.140	0.500
2020/01/31 14:08:25.4	0.710	-0.280	-0.120	0.490
2020/01/31 14:08:25.5	0.690	-0.330	-0.100	0.480
2020/01/31 14:08:25.6	0.670	-0.380	-0.080	0.460
2020/01/31 14:08:25.7	0.640	-0.420	-0.050	0.450
2020/01/31 14:08:25.8	0.610	-0.470	-0.020	0.440
2020/01/31 14:08:25.9	0.570	-0.520	0.010	0.420
2020/01/31 14:08:26.0	0.540	-0.560	0.030	0.400
2020/01/31 14:08:26.1	0.500	-0.610	0.060	0.380
2020/01/31 14:08:26.2	0.460	-0.650	0.080	0.360
2020/01/31 14:08:26.3	0.420	-0.680	0.110	0.340
2020/01/31 14:08:26.4	0.380	-0.720	0.130	0.310
2020/01/31 14:08:26.5	0.340	-0.750	0.140	0.290
2020/01/31 14:08:26.6	0.300	-0.770	0.160	0.250
2020/01/31 14:08:26.7	0.270	-0.790	0.160	0.220
2020/01/31 14:08:26.8	0.230	-0.810	0.170	0.180
2020/01/31 14:08:26.9	0.200	-0.820	0.170	0.130
2020/01/31 14:08:27.0	0.170	-0.830	0.160	0.090
2020/01/31 14:08:27.1	0.140	-0.830	0.150	0.040
2020/01/31 14:08:27.2	0.110	-0.830	0.130	-0.020
2020/01/31 14:08:27.3	0.090	-0.820	0.100	-0.080
2020/01/31 14:08:27.4	0.070	-0.800	0.070	-0.140
2020/01/31 14:08:27.5	0.050	-0.780	0.040	-0.200
2020/01/31 14:08:27.6	0.020	-0.750	-0.000	-0.270
2020/01/31 14:08:27.7	0.010	-0.720	-0.050	-0.340
2020/01/31 14:08:27.8	0.000	-0.680	-0.090	-0.410
2020/01/31 14:08:27.9	359.990	-0.640	-0.150	-0.480
2020/01/31 14:08:28.0	359.990	-0.590	-0.200	-0.550
2020/01/31 14:08:28.1	359.990	-0.530	-0.250	-0.610
2020/01/31 14:08:28.2	359.990	-0.480	-0.310	-0.680
2020/01/31 14:08:28.3	359.990	-0.410	-0.360	-0.740
2020/01/31 14:08:28.4	359.990	-0.350	-0.420	-0.800
2020/01/31 14:08:28.5	0.000	-0.280	-0.470	-0.860
2020/01/31 14:08:28.6	0.000	-0.210	-0.510	-0.910
2020/01/31 14:08:28.7	0.010	-0.130	-0.560	-0.950
2020/01/31 14:08:28.8	0.030	-0.060	-0.600	-1.000
2020/01/31 14:08:28.9	0.050	0.020	-0.630	-1.030
2020/01/31 14:08:29.0	0.060	0.100	-0.670	-1.060
2020/01/31 14:08:29.1	0.080	0.170	-0.690	-1.080
2020/01/31 14:08:29.2	0.100	0.250	-0.710	-1.100
2020/01/31 14:08:29.3	0.120	0.320	-0.730	-1.120
2020/01/31 14:08:29.4	0.150	0.390	-0.730	-1.120
2020/01/31 14:08:29.5	0.170	0.460	-0.740	-1.120
2020/01/31 14:08:29.6	0.190	0.530	-0.740	-1.120
2020/01/31 14:08:29.7	0.220	0.590	-0.730	-1.110
2020/01/31 14:08:29.8	0.240	0.650	-0.720	-1.100
2020/01/31 14:08:29.9	0.270	0.700	-0.700	-1.090
2020/01/31 14:08:30.0	0.290	0.740	-0.680	-1.070
2020/01/31 14:08:30.1	0.310	0.790	-0.660	-1.040
2020/01/31 14:08:30.2	0.340	0.820	-0.630	-1.020
2020/01/31 14:08:30.3	0.360	0.850	-0.600	-0.990
2020/01/31 14:08:30.4	0.380	0.870	-0.560	-0.960
2020/01/31 14:08:30.5	0.400	0.890	-0.520	-0.920
2020/01/31 14:08:30.6	0.440	0.900	-0.480	-0.880
2020/01/31 14:08:30.7	0.450	0.900	-0.440	-0.840
2020/01/31 14:08:30.8	0.470	0.900	-0.400	-0.800
2020/01/31 14:08:30.9	0.480	0.890	-0.350	-0.750
2020/01/31 14:08:31.0	0.490	0.870	-0.310	-0.710
2020/01/31 14:08:31.1	0.500	0.840	-0.260	-0.660
2020/01/31 14:08:31.2	0.500	0.810	-0.210	-0.610
2020/01/31 14:08:31.3	0.510	0.780	-0.170	-0.560
2020/01/31 14:08:31.4	0.510	0.740	-0.120	-0.510
2020/01/31 14:08:31.5	0.500	0.690	-0.080	-0.460
2020/01/31 14:08:31.6	0.520	0.640	-0.040	-0.400
2020/01/31 14:08:31.7	0.510	0.580	0.000	-0.340
2020/01/31 14:08:31.8	0.500	0.520	0.040	-0.290
2020/01/31 14:08:31.9	0.480	0.450	0.080	-0.240
2020/01/31 14:08:32.0	0.460	0.390	0.110	-0.200
2020/01/31 14:08:32.1	0.450	0.320	0.150	-0.150
2020/01/31 14:08:32.2	0.430	0.240	0.170	-0.110
2020/01/31 14:08:32.3	0.410	0.170	0.200	-0.080
2020/01/31 14:08:32.4	0.390	0.100	0.220	-0.050
2020/01/31 14:08:32.5	0.370	0.020	0.240	-0.020
2020/01/31 14:08:32.6	0.330	-0.050	0.250	0.000
2020/01/31 14:08:32.7	0.310	-0.120	0.260	0.020
2020/01/31 14:08:32.8	0.290	-0.190	0.260	0.030
2020/01/31 14:08:32.9	0.280	-0.260	0.260	0.040
2020/01/31 14:08:33.0	0.260	-0.320	0.250	0.040
2020/01/31 14:08:33.1	0.250	-0.380	0.250	0.030
2020/01/31 14:08:33.2	0.240	-0.440	0.230	0.020
2020/01/31 14:08:33.3	0.230	-0.490	0.210	0.000
2020/01/31 14:08:33.4	0.230	-0.540	0.190	-0.020
2020/01/31 14:08:33.5	0.220	-0.580	0.170	-0.040
2020/01/31 14:08:33.6	0.230	-0.620	0.140	-0.070
2020/01/31 14:08:33.7	0.240	-0.650	0.110	-0.100
2020/01/31 14:08:33.8	0.240	-0.680	0.080	-0.130
2020/01/31 14:08:33.9	0.250	-0.690	0.050	-0.160
2020/01/31 14:08:34.0	0.260	-0.710	0.010	-0.200
2020/01/31 14:08:34.1	0.270	-0.710	-0.030	-0.230
2020/01/31 14:08:34.2	0.290	-0.710	-0.070	-0.260
2020/01/31 14:08:34.3	0.300	-0.710	-0.100	-0.300
2020/01/31 14:08:34.4	0.310	-0.690	-0.140	-0.320
2020/01/31 14:08:34.5	0.330	-0.680	-0.180	-0.350
2020/01/31 14:08:34.6	0.340	-0.650	-0.220	-0.380
2020/01/31 14:08:34.7	0.360	-0.620	-0.250	-0.400
2020/01/31 14:08:34.8	0.370	-0.590	-0.280	-0.410
2020/01/31 14:08:34.9	0.380	-0.560	-0.310	-0.430
2020/01/31 14:08:35.0	0.390	-0.520	-0.340	-0.440
2020/01/31 14:08:35.1	0.400	-0.480	-0.360	-0.440
2020/01/31 14:08:35.2	0.410	-0.430	-0.380	-0.450
2020/01/31 14:08:35.3	0.410	-0.390	-0.400	-0.450
2020/01/31 14:08:35.4	0.420	-0.340	-0.420	-0.450
2020/01/31 14:08:35.5	0.420	-0.290	-0.440	-0.440
2020/01/31 14:08:35.6	0.420	-0.250	-0.450	-0.430
2020/01/31 14:08:35.7	0.430	-0.200	-0.470	-0.420
2020/01/31 14:08:35.8	0.430	-0.150	-0.480	-0.410
2020/01/31 14:08:35.9	0.430	-0.110	-0.490	-0.400
2020/01/31 14:08:36.0	0.430	-0.060	-0.500	-0.390
2020/01/31 14:08:36.1	0.440	-0.020	-0.510	-0.380
2020/01/31 14:08:36.2	0.440	0.020	-0.520	-0.370
2020/01/31 14:08:36.3	0.440	0.050	-0.530	-0.360
2020/01/31 14:08:36.4	0.440	0.090	-0.540	-0.350
2020/01/31 14:08:36.5	0.450	0.120	-0.550	-0.330
2020/01/31 14:08:36.6	0.450	0.150	-0.560	-0.320
2020/01/31 14:08:36.7	0.450	0.170	-0.570	-0.310
2020/01/31 14:08:36.8	0.460	0.200	-0.580	-0.300
2020/01/31 14:08:36.9	0.470	0.220	-0.590	-0.290
2020/01/31 14:08:37.0	0.480	0.230	-0.600	-0.280
2020/01/31 14:08:37.1	0.480	0.250	-0.610	-0.260
2020/01/31 14:08:37.2	0.490	0.260	-0.620	-0.250
2020/01/31 14:08:37.3	0.500	0.270	-0.620	-0.240
2020/01/31 14:08:37.4	0.510	0.270	-0.630	-0.230
2020/01/31 14:08:37.5	0.520	0.270	-0.630	-0.220
2020/01/31 14:08:37.6	0.520	0.270	-0.640	-0.210
2020/01/31 14:08:37.7	0.530	0.270	-0.640	-0.200
2020/01/31 14:08:37.8	0.540	0.260	-0.630	-0.190
2020/01/31 14:08:37.9	0.550	0.260	-0.630	-0.170
2020/01/31 14:08:38.0	0.560	0.250	-0.620	-0.160
2020/01/31 14:08:38.1	0.560	0.230	-0.600	-0.150
2020/01/31 14:08:38.2	0.570	0.220	-0.590	-0.140
2020/01/31 14:08:38.3	0.570	0.200	-0.570	-0.140
2020/01/31 14:08:38.4	0.570	0.190	-0.550	-0.130
2020/01/31 14:08:38.5	0.580	0.170	-0.520	-0.120
2020/01/31 14:08:38.6	0.580	0.150	-0.490	-0.110
2020/01/31 14:08:38.7	0.580	0.130	-0.470	-0.110
2020/01/31 14:08:38.8	0.580	0.110	-0.430	-0.110
2020/01/31 14:08:38.9	0.580	0.090	-0.400	-0.100
2020/01/31 14:08:39.0	0.580	0.070	-0.370	-0.100
2020/01/31 14:08:39.1	0.580	0.060	-0.330	-0.090
2020/01/31 14:08:39.2	0.580	0.040	-0.290	-0.090
2020/01/31 14:08:39.3	0.570	0.020	-0.250	-0.090
2020/01/31 14:08:39.4	0.570	0.010	-0.210	-0.080
2020/01/31 14:08:39.5	0.560	-0.010	-0.170	-0.080
2020/01/31 14:08:39.6	0.560	-0.020	-0.130	-0.070
2020/01/31 14:08:39.7	0.550	-0.030	-0.090	-0.060
2020/01/31 14:08:39.8	0.540	-0.040	-0.050	-0.050
2020/01/31 14:08:39.9	0.540	-0.050	-0.010	-0.040
2020/01/31 14:08:40.0	0.530	-0.050	0.030	-0.030
2020/01/31 14:08:40.1	0.520	-0.060	0.070	-0.020
2020/01/31 14:08:40.2	0.510	-0.060	0.110	-0.000
2020/01/31 14:08:40.3	0.500	-0.060	0.150	0.010
2020/01/31 14:08:40.4	0.490	-0.050	0.180	0.030
2020/01/31 14:08:40.5	0.480	-0.050	0.210	0.040
2020/01/31 14:08:40.6	0.490	-0.040	0.230	0.070
2020/01/31 14:08:40.7	0.480	-0.030	0.250	0.080
2020/01/31 14:08:40.8	0.470	-0.020	0.260	0.100
2020/01/31 14:08:40.9	0.470	-0.010	0.270	0.110
2020/01/31 14:08:41.0	0.460	0.010	0.280	0.120
2020/01/31 14:08:41.1	0.460	0.020	0.280	0.130
2020/01/31 14:08:41.2	0.460	0.040	0.280	0.140
2020/01/31 14:08:41.3	0.450	0.050	0.270	0.150
2020/01/31 14:08:41.4	0.450	0.070	0.250	0.160
2020/01/31 14:08:41.5	0.450	0.090	0.240	0.170
2020/01/31 14:08:41.6	0.460	0.110	0.220	0.170
2020/01/31 14:08:41.7	0.450	0.120	0.190	0.170
2020/01/31 14:08:41.8	0.450	0.140	0.170	0.170
2020/01/31 14:08:41.9	0.450	0.150	0.140	0.170
2020/01/31 14:08:42.0	0.440	0.170	0.110	0.170
2020/01/31 14:08:42.1	0.440	0.180	0.080	0.170
2020/01/31 14:08:42.2	0.440	0.190	0.040	0.160
2020/01/31 14:08:42.3	0.430	0.200	0.010	0.160
2020/01/31 14:08:42.4	0.420	0.210	-0.020	0.160
2020/01/31 14:08:42.5	0.420	0.220	-0.050	0.160
2020/01/31 14:08:42.6	0.420	0.230	-0.090	0.160
2020/01/31 14:08:42.7	0.410	0.230	-0.120	0.160
2020/01/31 14:08:42.8	0.400	0.230	-0.150	0.160
2020/01/31 14:08:42.9	0.390	0.230	-0.180	0.160
2020/01/31 14:08:43.0	0.380	0.230	-0.200	0.150
2020/01/31 14:08:43.1	0.380	0.230	-0.230	0.150
2020/01/31 14:08:43.2	0.370	0.230	-0.260	0.150
2020/01/31 14:08:43.3	0.360	0.220	-0.280	0.150
2020/01/31 14:08:43.4	0.360	0.220	-0.310	0.150
2020/01/31 14:08:43.5	0.360	0.210	-0.330	0.140
2020/01/31 14:08:43.6	0.340	0.200	-0.360	0.140
2020/01/31 14:08:43.7	0.340	0.190	-0.380	0.130
2020/01/31 14:08:43.8	0.350	0.180	-0.400	0.120
2020/01/31 14:08:43.9	0.350	0.170	-0.420	0.110
2020/01/31 14:08:44.0	0.360	0.150	-0.450	0.090
2020/01/31 14:08:44.1	0.370	0.140	-0.470	0.070
2020/01/31 14:08:44.2	0.390	0.130	-0.490	0.050
2020/01/31 14:08:44.3	0.400	0.110	-0.510	0.030
2020/01/31 14:08:44.4	0.410	0.100	-0.530	0.000
2020/01/31 14:08:44.5	0.430	0.080	-0.540	-0.030
2020/01/31 14:08:44.6	0.440	0.070	-0.560	-0.060
2020/01/31 14:08:44.7	0.450	0.050	-0.570	-0.090
2020/01/31 14:08:44.8	0.470	0.040	-0.590	-0.120
2020/01/31 14:08:44.9	0.480	0.020	-0.590	-0.160
2020/01/31 14:08:45.0	0.490	0.010	-0.600	-0.190
2020/01/31 14:08:45.1	0.500	-0.010	-0.600	-0.220
2020/01/31 14:08:45.2	0.510	-0.020	-0.600	-0.250
2020/01/31 14:08:45.3	0.510	-0.040	-0.600	-0.290
2020/01/31 14:08:45.4	0.520	-0.060	-0.590	-0.320
2020/01/31 14:08:45.5	0.520	-0.070	-0.580	-0.350
2020/01/31 14:08:45.6	0.520	-0.090	-0.560	-0.380
2020/01/31 14:08:45.7	0.520	-0.100	-0.550	-0.410
2020/01/31 14:08:45.8	0.510	-0.120	-0.530	-0.440
2020/01/31 14:08:45.9	0.510	-0.130	-0.500	-0.460
2020/01/31 14:08:46.0	0.500	-0.150	-0.480	-0.490
2020/01/31 14:08:46.1	0.500	-0.160	-0.450	-0.520
2020/01/31 14:08:46.2	0.490	-0.170	-0.420	-0.540
2020/01/31 14:08:46.3	0.480	-0.190	-0.390	-0.570
2020/01/31 14:08:46.4	0.480	-0.200	-0.360	-0.590
2020/01/31 14:08:46.5	0.470	-0.210	-0.330	-0.620
2020/01/31 14:08:46.6	0.460	-0.220	-0.300	-0.640
2020/01/31 14:08:46.7	0.450	-0.230	-0.270	-0.660
2020/01/31 14:08:46.8	0.450	-0.240	-0.240	-0.690
2020/01/31 14:08:46.9	0.440	-0.250	-0.210	-0.710
2020/01/31 14:08:47.0	0.440	-0.260	-0.180	-0.730
2020/01/31 14:08:47.1	0.440	-0.270	-0.150	-0.750
2020/01/31 14:08:47.2	0.430	-0.270	-0.120	-0.780
2020/01/31 14:08:47.3	0.430	-0.270	-0.100	-0.800
2020/01/31 14:08:47.4	0.430	-0.280	-0.080	-0.820
2020/01/31 14:08:47.5	0.430	-0.280	-0.060	-0.830
2020/01/31 14:08:47.6	0.450	-0.280	-0.040	-0.850
2020/01/31 14:08:47.7	0.450	-0.270	-0.030	-0.870
2020/01/31 14:08:47.8	0.450	-0.270	-0.010	-0.880
2020/01/31 14:08:47.9	0.450	-0.270	-0.000	-0.900
2020/01/31 14:08:48.0	0.460	-0.260	0.010	-0.910
2020/01/31 14:08:48.1	0.460	-0.250	0.020	-0.920
2020/01/31 14:08:48.2	0.460	-0.240	0.020	-0.930
2020/01/31 14:08:48.3	0.470	-0.230	0.020	-0.940
2020/01/31 14:08:48.4	0.470	-0.220	0.020	-0.940
2020/01/31 14:08:48.5	0.480	-0.200	0.020	-0.940
2020/01/31 14:08:48.6	0.480	-0.190	0.020	-0.930
2020/01/31 14:08:48.7	0.480	-0.170	0.010	-0.920
2020/01/31 14:08:48.8	0.490	-0.150	0.010	-0.910
2020/01/31 14:08:48.9	0.500	-0.130	-0.000	-0.890
2020/01/31 14:08:49.0	0.500	-0.110	-0.010	-0.870
2020/01/31 14:08:49.1	0.510	-0.090	-0.020	-0.840
2020/01/31 14:08:49.2	0.520	-0.070	-0.030	-0.810
2020/01/31 14:08:49.3	0.520	-0.050	-0.040	-0.780
2020/01/31 14:08:49.4	0.530	-0.030	-0.060	-0.740
2020/01/31 14:08:49.5	0.530	-0.000	-0.070	-0.700
2020/01/31 14:08:49.6	0.540	0.020	-0.080	-0.650
2020/01/31 14:08:49.7	0.540	0.040	-0.100	-0.610
2020/01/31 14:08:49.8	0.550	0.070	-0.110	-0.560
2020/01/31 14:08:49.9	0.550	0.090	-0.120	-0.510
2020/01/31 14:08:50.0	0.550	0.110	-0.140	-0.450
2020/01/31 14:08:50.1	0.550	0.130	-0.150	-0.400
2020/01/31 14:08:50.2	0.550	0.150	-0.160	-0.340
2020/01/31 14:08:50.3	0.550	0.170	-0.180	-0.290
2020/01/31 14:08:50.4	0.550	0.190	-0.190	-0.230
2020/01/31 14:08:50.5	0.540	0.200	-0.200	-0.170
2020/01/31 14:08:50.6	0.550	0.220	-0.220	-0.100
2020/01/31 14:08:50.7	0.550	0.230	-0.230	-0.040
2020/01/31 14:08:50.8	0.540	0.250	-0.240	0.030
2020/01/31 14:08:50.9	0.530	0.260	-0.250	0.090
2020/01/31 14:08:51.0	0.520	0.270	-0.260	0.160
2020/01/31 14:08:51.1	0.500	0.280	-0.270	0.220
2020/01/31 14:08:51.2	0.490	0.290	-0.280	0.290
2020/01/31 14:08:51.3	0.470	0.290	-0.290	0.350
2020/01/31 14:08:51.4	0.460	0.300	-0.300	0.420
2020/01/31 14:08:51.5	0.440	0.300	-0.310	0.480
2020/01/31 14:08:51.6	0.430	0.300	-0.320	0.540
2020/01/31 14:08:51.7	0.410	0.300	-0.330	0.590
2020/01/31 14:08:51.8	0.390	0.290	-0.340	0.640
2020/01/31 14:08:51.9	0.380	0.290	-0.350	0.680
2020/01/31 14:08:52.0	0.370	0.280	-0.370	0.720
2020/01/31 14:08:52.1	0.360	0.270	-0.380	0.760
2020/01/31 14:08:52.2	0.350	0.260	-0.400	0.790
2020/01/31 14:08:52.3	0.340	0.250	-0.410	0.810
2020/01/31 14:08:52.4	0.330	0.240	-0.430	0.830
2020/01/31 14:08:52.5	0.330	0.220	-0.450	0.840
2020/01/31 14:08:52.6	0.320	0.210	-0.470	0.850
2020/01/31 14:08:52.7	0.320	0.190	-0.490	0.850
2020/01/31 14:08:52.8	0.320	0.170	-0.510	0.850
2020/01/31 14:08:52.9	0.320	0.160	-0.530	0.840
2020/01/31 14:08:53.0	0.330	0.140	-0.550	0.820
2020/01/31 14:08:53.1	0.330	0.120	-0.560	0.810
2020/01/31 14:08:53.2	0.340	0.100	-0.580	0.780
2020/01/31 14:08:53.3	0.350	0.080	-0.590	0.760
2020/01/31 14:08:53.4	0.360	0.060	-0.610	0.730
2020/01/31 14:08:53.5	0.370	0.040	-0.620	0.690
2020/01/31 14:08:53.6	0.380	0.020	-0.630	0.650
2020/01/31 14:08:53.7	0.390	-0.000	-0.630	0.610
2020/01/31 14:08:53.8	0.400	-0.020	-0.630	0.570
2020/01/31 14:08:53.9	0.410	-0.040	-0.630	0.530
2020/01/31 14:08:54.0	0.420	-0.060	-0.620	0.490
2020/01/31 14:08:54.1	0.430	-0.080	-0.600	0.450
2020/01/31 14:08:54.2	0.430	-0.100	-0.590	0.410
2020/01/31 14:08:54.3	0.440	-0.120	-0.560	0.360
2020/01/31 14:08:54.4	0.440	-0.130	-0.540	0.320
2020/01/31 14:08:54.5	0.440	-0.150	-0.500	0.270
2020/01/31 14:08:54.6	0.450	-0.170	-0.470	0.230
2020/01/31 14:08:54.7	0.450	-0.180	-0.430	0.190
2020/01/31 14:08:54.8	0.440	-0.200	-0.380	0.150
2020/01/31 14:08:54.9	0.440	-0.210	-0.340	0.100
2020/01/31 14:08:55.0	0.430	-0.220	-0.290	0.060
2020/01/31 14:08:55.1	0.430	-0.230	-0.240	0.020
2020/01/31 14:08:55.2	0.420	-0.240	-0.190	-0.020
2020/01/31 14:08:55.3	0.410	-0.250	-0.140	-0.060
2020/01/31 14:08:55.4	0.400	-0.260	-0.090	-0.100
2020/01/31 14:08:55.5	0.390	-0.260	-0.040	-0.140
2020/01/31 14:08:55.6	0.390	-0.270	0.010	-0.180
2020/01/31 14:08:55.7	0.380	-0.270	0.050	-0.220
2020/01/31 14:08:55.8	0.370	-0.270	0.100	-0.260
2020/01/31 14:08:55.9	0.370	-0.270	0.140	-0.300
2020/01/31 14:08:56.0	0.360	-0.270	0.170	-0.340
2020/01/31 14:08:56.1	0.360	-0.260	0.210	-0.380
2020/01/31 14:08:56.2	0.350	-0.260	0.230	-0.410
2020/01/31 14:08:56.3	0.350	-0.250	0.260	-0.450
2020/01/31 14:08:56.4	0.350	-0.230	0.270	-0.490
2020/01/31 14:08:56.5	0.360	-0.220	0.290	-0.530
2020/01/31 14:08:56.6	0.360	-0.210	0.290	-0.570
2020/01/31 14:08:56.7	0.370	-0.190	0.290	-0.600
2020/01/31 14:08:56.8	0.370	-0.170	0.290	-0.640
2020/01/31 14:08:56.9	0.380	-0.150	0.280	-0.670
2020/01/31 14:08:57.0	0.390	-0.130	0.270	-0.710
2020/01/31 14:08:57.1	0.400	-0.100	0.260	-0.740
2020/01/31 14:08:57.2	0.410	-0.080	0.240	-0.780
2020/01/31 14:08:57.3	0.420	-0.060	0.220	-0.810
2020/01/31 14:08:57.4	0.430	-0.030	0.200	-0.830
2020/01/31 14:08:57.5	0.440	-0.010	0.170	-0.860
2020/01/31 14:08:57.6	0.430	0.010	0.140	-0.880
2020/01/31 14:08:57.7	0.440	0.030	0.120	-0.890
2020/01/31 14:08:57.8	0.440	0.050	0.090	-0.910
2020/01/31 14:08:57.9	0.430	0.070	0.070	-0.920
2020/01/31 14:08:58.0	0.430	0.090	0.040	-0.930
2020/01/31 14:08:58.1	0.420	0.110	0.020	-0.930
2020/01/31 14:08:58.2	0.410	0.120	-0.000	-0.940
2020/01/31 14:08:58.3	0.390	0.130	-0.020	-0.930
2020/01/31 14:08:58.4	0.380	0.140	-0.040	-0.930
2020/01/31 14:08:58.5	0.360	0.150	-0.060	-0.920
2020/01/31 14:08:58.6	0.340	0.160	-0.080	-0.900
2020/01/31 14:08:58.7	0.320	0.160	-0.090	-0.890
2020/01/31 14:08:58.8	0.300	0.160	-0.110	-0.870
2020/01/31 14:08:58.9	0.280	0.160	-0.120	-0.840
2020/01/31 14:08:59.0	0.250	0.160	-0.130	-0.820
2020/01/31 14:08:59.1	0.230	0.160	-0.150	-0.790
2020/01/31 14:08:59.2	0.210	0.160	-0.160	-0.760
2020/01/31 14:08:59.3	0.190	0.160	-0.170	-0.730
2020/01/31 14:08:59.4	0.170	0.150	-0.190	-0.700
2020/01/31 14:08:59.5	0.160	0.150	-0.210	-0.670
2020/01/31 14:08:59.6	0.130	0.140	-0.230	-0.630
2020/01/31 14:08:59.7	0.120	0.140	-0.250	-0.600
2020/01/31 14:08:59.8	0.120	0.140	-0.270	-0.570
2020/01/31 14:08:59.9	0.120	0.130	-0.300	-0.540
2020/01/31 14:09:00.0	0.120	0.130	-0.330	-0.520
2020/01/31 14:09:00.1	0.130	0.130	-0.360	-0.490
2020/01/31 14:09:00.2	0.140	0.130	-0.400	-0.470
2020/01/31 14:09:00.3	0.150	0.130	-0.430	-0.450
2020/01/31 14:09:00.4	0.170	0.130	-0.470	-0.440
2020/01/31 14:09:00.5	0.190	0.140	-0.510	-0.430
2020/01/31 14:09:00.6	0.220	0.140	-0.550	-0.420
2020/01/31 14:09:00.7	0.240	0.150	-0.590	-0.410
2020/01/31 14:09:00.8	0.270	0.160	-0.630	-0.400
2020/01/31 14:09:00.9	0.290	0.160	-0.670	-0.390
2020/01/31 14:09:01.0	0.310	0.170	-0.700	-0.390
2020/01/31 14:09:01.1	0.330	0.180	-0.740	-0.380
2020/01/31 14:09:01.2	0.350	0.180	-0.760	-0.370
2020/01/31 14:09:01.3	0.370	0.190	-0.790	-0.370
2020/01/31 14:09:01.4	0.380	0.200	-0.800	-0.360
2020/01/31 14:09:01.5	0.400	0.200	-0.820	-0.350
2020/01/31 14:09:01.6	0.440	0.200	-0.830	-0.340
2020/01/31 14:09:01.7	0.440	0.210	-0.830	-0.330
2020/01/31 14:09:01.8	0.450	0.210	-0.820	-0.320
2020/01/31 14:09:01.9	0.450	0.200	-0.810	-0.300
2020/01/31 14:09:02.0	0.440	0.200	-0.800	-0.290
2020/01/31 14:09:02.1	0.440	0.190	-0.770	-0.270
2020/01/31 14:09:02.2	0.430	0.180	-0.740	-0.250
2020/01/31 14:09:02.3	0.410	0.170	-0.710	-0.230
2020/01/31 14:09:02.4	0.400	0.150	-0.670	-0.210
2020/01/31 14:09:02.5	0.380	0.140	-0.630	-0.180
2020/01/31 14:09:02.6	0.350	0.120	-0.580	-0.150
2020/01/31 14:09:02.7	0.320	0.090	-0.530	-0.120
2020/01/31 14:09:02.8	0.300	0.070	-0.470	-0.090
2020/01/31 14:09:02.9	0.270	0.040	-0.410	-0.060
2020/01/31 14:09:03.0	0.230	0.020	-0.350	-0.030
2020/01/31 14:09:03.1	0.200	-0.010	-0.290	0.000
2020/01/31 14:09:03.2	0.160	-0.040	-0.230	0.040
2020/01/31 14:09:03.3	0.120	-0.070	-0.170	0.080
2020/01/31 14:09:03.4	0.080	-0.100	-0.100	0.110
2020/01/31 14:09:03.5	0.040	-0.140	-0.040	0.150
2020/01/31 14:09:03.6	0.010	-0.170	0.010	0.180
2020/01/31 14:09:03.7	359.960	-0.200	0.070	0.220
2020/01/31 14:09:03.8	359.920	-0.230	0.120	0.250
2020/01/31 14:09:03.9	359.880	-0.250	0.170	0.280
2020/01/31 14:09:04.0	359.840	-0.280	0.210	0.310
2020/01/31 14:09:04.1	359.800	-0.300	0.250	0.340
2020/01/31 14:09:04.2	359.770	-0.320	0.280	0.360
2020/01/31 14:09:04.3	359.740	-0.330	0.300	0.380
2020/01/31 14:09:04.4	359.710	-0.350	0.310	0.400
2020/01/31 14:09:04.5	359.680	-0.350	0.320	0.410
2020/01/31 14:09:04.6	359.640	-0.360	0.320	0.420
2020/01/31 14:09:04.7	359.630	-0.360	0.310	0.420
2020/01/31 14:09:04.8	359.620	-0.350	0.300	0.420
2020/01/31 14:09:04.9	359.610	-0.340	0.270	0.410
2020/01/31 14:09:05.0	359.610	-0.330	0.240	0.400
2020/01/31 14:09:05.1	359.620	-0.310	0.210	0.390
2020/01/31 14:09:05.2	359.630	-0.290	0.160	0.360
2020/01/31 14:09:05.3	359.650	-0.260	0.110	0.330
2020/01/31 14:09:05.4	359.680	-0.230	0.050	0.300
2020/01/31 14:09:05.5	359.700	-0.200	-0.010	0.260
2020/01/31 14:09:05.6	359.720	-0.160	-0.070	0.220
2020/01/31 14:09:05.7	359.750	-0.120	-0.140	0.170
2020/01/31 14:09:05.8	359.790	-0.080	-0.210	0.120
2020/01/31 14:09:05.9	359.830	-0.040	-0.280	0.060
2020/01/31 14:09:06.0	359.870	-0.000	-0.340	0.000
2020/01/31 14:09:06.1	359.910	0.040	-0.410	-0.050
2020/01/31 14:09:06.2	359.950	0.080	-0.480	-0.110
2020/01/31 14:09:06.3	359.990	0.110	-0.540	-0.170
2020/01/31 14:09:06.4	0.030	0.150	-0.590	-0.230
2020/01/31 14:09:06.5	0.070	0.180	-0.640	-0.290
2020/01/31 14:09:06.6	0.090	0.210	-0.690	-0.340
2020/01/31 14:09:06.7	0.120	0.230	-0.730	-0.400
2020/01/31 14:09:06.8	0.140	0.250	-0.760	-0.450
2020/01/31 14:09:06.9	0.170	0.270	-0.780	-0.490
2020/01/31 14:09:07.0	0.180	0.280	-0.800	-0.540
2020/01/31 14:09:07.1	0.200	0.290	-0.800	-0.580
2020/01/31 14:09:07.2	0.210	0.290	-0.800	-0.620
2020/01/31 14:09:07.3	0.210	0.290	-0.790	-0.650
2020/01/31 14:09:07.4	0.220	0.280	-0.780	-0.690
2020/01/31 14:09:07.5	0.220	0.260	-0.750	-0.720
2020/01/31 14:09:07.6	0.210	0.240	-0.720	-0.740
2020/01/31 14:09:07.7	0.210	0.220	-0.690	-0.770
2020/01/31 14:09:07.8	0.200	0.180	-0.640	-0.790
2020/01/31 14:09:07.9	0.190	0.150	-0.590	-0.810
2020/01/31 14:09:08.0	0.170	0.110	-0.540	-0.820
2020/01/31 14:09:08.1	0.160	0.070	-0.480	-0.840
2020/01/31 14:09:08.2	0.140	0.020	-0.420	-0.850
2020/01/31 14:09:08.3	0.130	-0.030	-0.350	-0.860
2020/01/31 14:09:08.4	0.110	-0.080	-0.290	-0.860
2020/01/31 14:09:08.5	0.090	-0.130	-0.220	-0.870
2020/01/31 14:09:08.6	0.070	-0.180	-0.150	-0.870
2020/01/31 14:09:08.7	0.050	-0.240	-0.090	-0.870
2020/01/31 14:09:08.8	0.030	-0.290	-0.020	-0.880
2020/01/31 14:09:08.9	0.010	-0.340	0.040	-0.880
2020/01/31 14:09:09.0	359.980	-0.390	0.100	-0.880
2020/01/31 14:09:09.1	359.960	-0.440	0.150	-0.880
2020/01/31 14:09:09.2	359.940	-0.490	0.210	-0.880
2020/01/31 14:09:09.3	359.920	-0.530	0.260	-0.880
2020/01/31 14:09:09.4	359.900	-0.570	0.300	-0.870
2020/01/31 14:09:09.5	359.870	-0.600	0.350	-0.870
2020/01/31 14:09:09.6	359.850	-0.630	0.380	-0.860
2020/01/31 14:09:09.7	359.830	-0.650	0.410	-0.860
2020/01/31 14:09:09.8	359.800	-0.670	0.440	-0.850
2020/01/31 14:09:09.9	359.770	-0.690	0.460	-0.830
2020/01/31 14:09:10.0	359.750	-0.690	0.480	-0.820
2020/01/31 14:09:10.1	359.720	-0.690	0.500	-0.800
2020/01/31 14:09:10.2	359.690	-0.690	0.510	-0.780
2020/01/31 14:09:10.3	359.660	-0.670	0.520	-0.760
2020/01/31 14:09:10.4	359.630	-0.660	0.520	-0.730
2020/01/31 14:09:10.5	359.600	-0.630	0.520	-0.700
2020/01/31 14:09:10.6	359.550	-0.600	0.520	-0.660
2020/01/31 14:09:10.7	359.520	-0.560	0.510	-0.620
2020/01/31 14:09:10.8	359.480	-0.520	0.490	-0.580
2020/01/31 14:09:10.9	359.450	-0.470	0.480	-0.530
2020/01/31 14:09:11.0	359.410	-0.420	0.450	-0.490
2020/01/31 14:09:11.1	359.380	-0.360	0.430	-0.440
2020/01/31 14:09:11.2	359.340	-0.300	0.390	-0.390
2020/01/31 14:09:11.3	359.310	-0.230	0.360	-0.330
2020/01/31 14:09:11.4	359.280	-0.160	0.320	-0.280
2020/01/31 14:09:11.5	359.250	-0.090	0.280	-0.230
2020/01/31 14:09:11.6	359.240	-0.010	0.220	-0.170
2020/01/31 14:09:11.7	359.210	0.060	0.170	-0.110
2020/01/31 14:09:11.8	359.180	0.140	0.120	-0.060
2020/01/31 14:09:11.9	359.160	0.220	0.060	-0.010
2020/01/31 14:09:12.0	359.140	0.300	-0.000	0.040
2020/01/31 14:09:12.1	359.120	0.370	-0.070	0.090
2020/01/31 14:09:12.2	359.100	0.450	-0.130	0.140
2020/01/31 14:09:12.3	359.090	0.520	-0.200	0.180
2020/01/31 14:09:12.4	359.070	0.600	-0.270	0.230
2020/01/31 14:09:12.5	359.060	0.660	-0.340	0.270
2020/01/31 14:09:12.6	359.050	0.730	-0.420	0.310
2020/01/31 14:09:12.7	359.050	0.790	-0.490	0.350
2020/01/31 14:09:12.8	359.040	0.840	-0.550	0.380
2020/01/31 14:09:12.9	359.040	0.890	-0.620	0.410
2020/01/31 14:09:13.0	359.030	0.940	-0.690	0.440
2020/01/31 14:09:13.1	359.030	0.980	-0.750	0.470
2020/01/31 14:09:13.2	359.030	1.010	-0.810	0.500
2020/01/31 14:09:13.3	359.030	1.030	-0.860	0.520
2020/01/31 14:09:13.4	359.040	1.050	-0.910	0.540
2020/01/31 14:09:13.5	359.040	1.060	-0.960	0.550
2020/01/31 14:09:13.6	359.060	1.060	-1.000	0.560
2020/01/31 14:09:13.7	359.070	1.060	-1.040	0.570
2020/01/31 14:09:13.8	359.080	1.050	-1.060	0.580
2020/01/31 14:09:13.9	359.090	1.030	-1.090	0.590
2020/01/31 14:09:14.0	359.110	1.010	-1.100	0.590
2020/01/31 14:09:14.1	359.130	0.970	-1.110	0.590
2020/01/31 14:09:14.2	359.150	0.940	-1.110	0.580
2020/01/31 14:09:14.3	359.170	0.890	-1.110	0.580
2020/01/31 14:09:14.4	359.200	0.840	-1.090	0.570
2020/01/31 14:09:14.5	359.230	0.790	-1.080	0.570
2020/01/31 14:09:14.6	359.270	0.730	-1.050	0.560
2020/01/31 14:09:14.7	359.300	0.670	-1.020	0.550
2020/01/31 14:09:14.8	359.330	0.600	-0.990	0.530
2020/01/31 14:09:14.9	359.370	0.540	-0.950	0.520
2020/01/31 14:09:15.0	359.400	0.460	-0.900	0.500
2020/01/31 14:09:15.1	359.440	0.390	-0.850	0.480
2020/01/31 14:09:15.2	359.480	0.320	-0.800	0.460
2020/01/31 14:09:15.3	359.520	0.240	-0.740	0.440
2020/01/31 14:09:15.4	359.560	0.160	-0.680	0.410
2020/01/31 14:09:15.5	359.600	0.090	-0.620	0.390
2020/01/31 14:09:15.6	359.650	0.010	-0.560	0.360
2020/01/31 14:09:15.7	359.690	-0.060	-0.490	0.330
2020/01/31 14:09:15.8	359.730	-0.130	-0.430	0.300
2020/01/31 14:09:15.9	359.770	-0.210	-0.360	0.260
2020/01/31 14:09:16.0	359.820	-0.270	-0.290	0.230
2020/01/31 14:09:16.1	359.860	-0.340	-0.230	0.190
2020/01/31 14:09:16.2	359.890	-0.400	-0.170	0.150
2020/01/31 14:09:16.3	359.930	-0.460	-0.110	0.100
2020/01/31 14:09:16.4	359.970	-0.520	-0.050	0.060
2020/01/31 14:09:16.5	0.010	-0.570	0.000	0.010
2020/01/31 14:09:16.6	0.030	-0.620	0.050	-0.040
2020/01/31 14:09:16.7	0.070	-0.670	0.100	-0.090
2020/01/31 14:09:16.8	0.100	-0.710	0.140	-0.140
2020/01/31 14:09:16.9	0.130	-0.740	0.180	-0.200
2020/01/31 14:09:17.0	0.160	-0.780	0.210	-0.250
2020/01/31 14:09:17.1	0.190	-0.800	0.240	-0.300
2020/01/31 14:09:17.2	0.210	-0.830	0.270	-0.360
2020/01/31 14:09:17.3	0.230	-0.850	0.290	-0.410
2020/01/31 14:09:17.4	0.240	-0.870	0.310	-0.450
2020/01/31 14:09:17.5	0.260	-0.880	0.330	-0.500
2020/01/31 14:09:17.6	0.280	-0.890	0.340	-0.540
2020/01/31 14:09:17.7	0.290	-0.890	0.350	-0.580
2020/01/31 14:09:17.8	0.290	-0.900	0.350	-0.620
2020/01/31 14:09:17.9	0.290	-0.900	0.350	-0.650
2020/01/31 14:09:18.0	0.280	-0.890	0.350	-0.680
2020/01/31 14:09:18.1	0.280	-0.890	0.350	-0.710
2020/01/31 14:09:18.2	0.260	-0.880	0.340	-0.740
2020/01/31 14:09:18.3	0.250	-0.870	0.330	-0.760
2020/01/31 14:09:18.4	0.240	-0.850	0.320	-0.780
2020/01/31 14:09:18.5	0.220	-0.840	0.310	-0.800
2020/01/31 14:09:18.6	0.190	-0.820	0.280	-0.820
2020/01/31 14:09:18.7	0.180	-0.800	0.270	-0.840
2020/01/31 14:09:18.8	0.160	-0.780	0.250	-0.850
2020/01/31 14:09:18.9	0.140	-0.750	0.230	-0.860
2020/01/31 14:09:19.0	0.120	-0.720	0.200	-0.880
2020/01/31 14:09:19.1	0.090	-0.700	0.180	-0.890
2020/01/31 14:09:19.2	0.080	-0.660	0.150	-0.900
2020/01/31 14:09:19.3	0.060	-0.630	0.130	-0.910
2020/01/31 14:09:19.4	0.040	-0.590	0.100	-0.920
2020/01/31 14:09:19.5	0.020	-0.560	0.070	-0.930
2020/01/31 14:09:19.6	0.000	-0.520	0.050	-0.930
2020/01/31 14:09:19.7	359.990	-0.480	0.020	-0.940
2020/01/31 14:09:19.8	359.970	-0.430	-0.020	-0.940
2020/01/31 14:09:19.9	359.960	-0.390	-0.050	-0.950
2020/01/31 14:09:20.0	359.940	-0.340	-0.080	-0.950
2020/01/31 14:09:20.1	359.930	-0.290	-0.110	-0.950
2020/01/31 14:09:20.2	359.920	-0.240	-0.140	-0.940
2020/01/31 14:09:20.3	359.900	-0.190	-0.170	-0.930
2020/01/31 14:09:20.4	359.890	-0.140	-0.200	-0.920
2020/01/31 14:09:20.5	359.870	-0.090	-0.230	-0.910
2020/01/31 14:09:20.6	359.870	-0.030	-0.260	-0.890
2020/01/31 14:09:20.7	359.860	0.020	-0.290	-0.870
2020/01/31 14:09:20.8	359.840	0.080	-0.310	-0.840
2020/01/31 14:09:20.9	359.830	0.140	-0.340	-0.810
2020/01/31 14:09:21.0	359.810	0.190	-0.360	-0.780
2020/01/31 14:09:21.1	359.800	0.250	-0.380	-0.740
2020/01/31 14:09:21.2	359.780	0.310	-0.400	-0.700
2020/01/31 14:09:21.3	359.770	0.360	-0.420	-0.660
2020/01/31 14:09:21.4	359.750	0.420	-0.440	-0.610
2020/01/31 14:09:21.5	359.740	0.470	-0.460	-0.570
2020/01/31 14:09:21.6	359.730	0.520	-0.480	-0.510
2020/01/31 14:09:21.7	359.720	0.570	-0.490	-0.470
2020/01/31 14:09:21.8	359.710	0.620	-0.510	-0.420
2020/01/31 14:09:21.9	359.690	0.670	-0.520	-0.370
2020/01/31 14:09:22.0	359.680	0.710	-0.530	-0.320
2020/01/31 14:09:22.1	359.670	0.750	-0.550	-0.280
2020/01/31 14:09:22.2	359.660	0.780	-0.560	-0.230
2020/01/31 14:09:22.3	359.650	0.820	-0.560	-0.190
2020/01/31 14:09:22.4	359.640	0.840	-0.570	-0.150
2020/01/31 14:09:22.5	359.630	0.870	-0.580	-0.110
2020/01/31 14:09:22.6	359.640	0.890	-0.580	-0.080
2020/01/31 14:09:22.7	359.630	0.900	-0.580	-0.040
2020/01/31 14:09:22.8	359.630	0.910	-0.580	-0.010
2020/01/31 14:09:22.9	359.630	0.920	-0.580	0.020
2020/01/31 14:09:23.0	359.630	0.920	-0.580	0.050
2020/01/31 14:09:23.1	359.630	0.910	-0.570	0.070
2020/01/31 14:09:23.2	359.640	0.900	-0.560	0.100
2020/01/31 14:09:23.3	359.650	0.890	-0.550	0.120
2020/01/31 14:09:23.4	359.650	0.870	-0.530	0.140
2020/01/31 14:09:23.5	359.660	0.840	-0.520	0.160
2020/01/31 14:09:23.6	359.670	0.820	-0.500	0.180
2020/01/31 14:09:23.7	359.690	0.780	-0.480	0.200
2020/01/31 14:09:23.8	359.700	0.750	-0.450	0.210
2020/01/31 14:09:23.9	359.720	0.710	-0.420	0.220
2020/01/31 14:09:24.0	359.740	0.660	-0.390	0.230
2020/01/31 14:09:24.1	359.760	0.620	-0.360	0.240
2020/01/31 14:09:24.2	359.780	0.570	-0.330	0.250
2020/01/31 14:09:24.3	359.800	0.520	-0.300	0.250
2020/01/31 14:09:24.4	359.820	0.460	-0.260	0.260
2020/01/31 14:09:24.5	359.850	0.410	-0.230	0.260
2020/01/31 14:09:24.6	359.870	0.350	-0.200	0.260
2020/01/31 14:09:24.7	359.900	0.290	-0.160	0.260
2020/01/31 14:09:24.8	359.930	0.240	-0.130	0.250
2020/01/31 14:09:24.9	359.950	0.180	-0.100	0.250
2020/01/31 14:09:25.0	359.980	0.120	-0.080	0.240
2020/01/31 14:09:25.1	0.010	0.070	-0.060	0.230
2020/01/31 14:09:25.2	0.040	0.010	-0.040	0.210
2020/01/31 14:09:25.3	0.070	-0.040	-0.020	0.200
2020/01/31 14:09:25.4	0.100	-0.090	-0.010	0.180
2020/01/31 14:09:25.5	0.140	-0.140	-0.000	0.160
2020/01/31 14:09:25.6	0.160	-0.190	-0.010	0.130
2020/01/31 14:09:25.7	0.200	-0.230	-0.010	0.100
2020/01/31 14:09:25.8	0.230	-0.270	-0.010	0.070
2020/01/31 14:09:25.9	0.270	-0.310	-0.020	0.030
2020/01/31 14:09:26.0	0.310	-0.350	-0.040	-0.010
2020/01/31 14:09:26.1	0.350	-0.380	-0.060	-0.050
2020/01/31 14:09:26.2	0.380	-0.400	-0.080	-0.100
2020/01/31 14:09:26.3	0.420	-0.430	-0.100	-0.140
2020/01/31 14:09:26.4	0.460	-0.450	-0.130	-0.190
2020/01/31 14:09:26.5	0.500	-0.460	-0.150	-0.240
2020/01/31 14:09:26.6	0.520	-0.470	-0.180	-0.290
2020/01/31 14:09:26.7	0.560	-0.480	-0.200	-0.330
2020/01/31 14:09:26.8	0.600	-0.490	-0.230	-0.380
2020/01/31 14:09:26.9	0.630	-0.490	-0.250	-0.430
2020/01/31 14:09:27.0	0.660	-0.490	-0.270	-0.470
2020/01/31 14:09:27.1	0.690	-0.490	-0.290	-0.510
2020/01/31 14:09:27.2	0.710	-0.480	-0.300	-0.550
2020/01/31 14:09:27.3	0.740	-0.470	-0.310	-0.590
2020/01/31 14:09:27.4	0.760	-0.460	-0.320	-0.620
2020/01/31 14:09:27.5	0.780	-0.450	-0.320	-0.640
2020/01/31 14:09:27.6	0.800	-0.430	-0.320	-0.670
2020/01/31 14:09:27.7	0.800	-0.420	-0.310	-0.680
2020/01/31 14:09:27.8	0.810	-0.400	-0.300	-0.690
2020/01/31 14:09:27.9	0.810	-0.390	-0.280	-0.690
2020/01/31 14:09:28.0	0.800	-0.370	-0.250	-0.690
2020/01/31 14:09:28.1	0.790	-0.360	-0.230	-0.680
2020/01/31 14:09:28.2	0.780	-0.340	-0.200	-0.670
2020/01/31 14:09:28.3	0.760	-0.330	-0.160	-0.650
2020/01/31 14:09:28.4	0.740	-0.320	-0.130	-0.630
2020/01/31 14:09:28.5	0.710	-0.310	-0.090	-0.600
2020/01/31 14:09:28.6	0.670	-0.310	-0.060	-0.570
2020/01/31 14:09:28.7	0.640	-0.300	-0.020	-0.540
2020/01/31 14:09:28.8	0.610	-0.300	0.020	-0.510
2020/01/31 14:09:28.9	0.570	-0.290	0.060	-0.480
2020/01/31 14:09:29.0	0.540	-0.290	0.090	-0.450
2020/01/31 14:09:29.1	0.500	-0.290	0.130	-0.420
2020/01/31 14:09:29.2	0.460	-0.300	0.160	-0.390
2020/01/31 14:09:29.3	0.420	-0.300	0.180	-0.370
2020/01/31 14:09:29.4	0.390	-0.310	0.210	-0.340
2020/01/31 14:09:29.5	0.350	-0.310	0.230	-0.320
2020/01/31 14:09:29.6	0.310	-0.320	0.240	-0.300
2020/01/31 14:09:29.7	0.270	-0.320	0.250	-0.280
2020/01/31 14:09:29.8	0.230	-0.330	0.250	-0.270
2020/01/31 14:09:29.9	0.200	-0.340	0.250	-0.250
2020/01/31 14:09:30.0	0.160	-0.340	0.240	-0.250
2020/01/31 14:09:30.1	0.130	-0.350	0.230	-0.240
2020/01/31 14:09:30.2	0.100	-0.350	0.210	-0.240
2020/01/31 14:09:30.3	0.080	-0.350	0.190	-0.240
2020/01/31 14:09:30.4	0.050	-0.350	0.160	-0.250
2020/01/31 14:09:30.5	0.030	-0.350	0.130	-0.260
2020/01/31 14:09:30.6	0.020	-0.340	0.090	-0.260
2020/01/31 14:09:30.7	0.000	-0.330	0.050	-0.280
2020/01/31 14:09:30.8	359.990	-0.320	0.010	-0.300
2020/01/31 14:09:30.9	359.980	-0.310	-0.040	-0.310
2020/01/31 14:09:31.0	359.970	-0.290	-0.090	-0.330
2020/01/31 14:09:31.1	359.960	-0.270	-0.150	-0.360
2020/01/31 14:09:31.2	359.960	-0.250	-0.200	-0.380
2020/01/31 14:09:31.3	359.960	-0.220	-0.260	-0.410
2020/01/31 14:09:31.4	359.960	-0.190	-0.310	-0.430
2020/01/31 14:09:31.5	359.970	-0.150	-0.370	-0.460
2020/01/31 14:09:31.6	359.990	-0.120	-0.430	-0.490
2020/01/31 14:09:31.7	0.000	-0.080	-0.480	-0.510
2020/01/31 14:09:31.8	0.020	-0.030	-0.540	-0.540
2020/01/31 14:09:31.9	0.030	0.010	-0.590	-0.570
2020/01/31 14:09:32.0	0.050	0.060	-0.640	-0.590
2020/01/31 14:09:32.1	0.070	0.100	-0.690	-0.610
2020/01/31 14:09:32.2	0.090	0.150	-0.730	-0.630
2020/01/31 14:09:32.3	0.110	0.200	-0.770	-0.650
2020/01/31 14:09:32.4	0.140	0.250	-0.810	-0.670
2020/01/31 14:09:32.5	0.170	0.300	-0.840	-0.690
2020/01/31 14:09:32.6	0.200	0.350	-0.870	-0.690
2020/01/31 14:09:32.7	0.230	0.400	-0.890	-0.710
2020/01/31 14:09:32.8	0.260	0.440	-0.910	-0.710
2020/01/31 14:09:32.9	0.290	0.490	-0.920	-0.720
2020/01/31 14:09:33.0	0.320	0.530	-0.930	-0.730
2020/01/31 14:09:33.1	0.360	0.560	-0.940	-0.730
2020/01/31 14:09:33.2	0.390	0.600	-0.940	-0.740
2020/01/31 14:09:33.3	0.430	0.630	-0.930	-0.740
2020/01/31 14:09:33.4	0.460	0.650	-0.920	-0.740
2020/01/31 14:09:33.5	0.500	0.670	-0.910	-0.740
2020/01/31 14:09:33.6	0.530	0.690	-0.890	-0.740
2020/01/31 14:09:33.7	0.570	0.700	-0.870	-0.740
2020/01/31 14:09:33.8	0.600	0.710	-0.840	-0.730
2020/01/31 14:09:33.9	0.640	0.710	-0.810	-0.730
2020/01/31 14:09:34.0	0.670	0.700	-0.770	-0.730
2020/01/31 14:09:34.1	0.700	0.690	-0.740	-0.720
2020/01/31 14:09:34.2	0.730	0.680	-0.690	-0.720
2020/01/31 14:09:34.3	0.760	0.660	-0.650	-0.710
2020/01/31 14:09:34.4	0.780	0.630	-0.600	-0.700
2020/01/31 14:09:34.5	0.810	0.600	-0.550	-0.700
2020/01/31 14:09:34.6	0.830	0.570	-0.500	-0.680
2020/01/31 14:09:34.7	0.850	0.530	-0.440	-0.670
2020/01/31 14:09:34.8	0.870	0.490	-0.390	-0.660
2020/01/31 14:09:34.9	0.890	0.440	-0.330	-0.640
2020/01/31 14:09:35.0	0.900	0.390	-0.280	-0.630
2020/01/31 14:09:35.1	0.910	0.340	-0.220	-0.610
2020/01/31 14:09:35.2	0.920	0.280	-0.160	-0.590
2020/01/31 14:09:35.3	0.930	0.230	-0.100	-0.570
2020/01/31 14:09:35.4	0.940	0.170	-0.050	-0.550
2020/01/31 14:09:35.5	0.940	0.110	0.000	-0.530
2020/01/31 14:09:35.6	0.960	0.050	0.050	-0.500
2020/01/31 14:09:35.7	0.960	-0.010	0.100	-0.480
2020/01/31 14:09:35.8	0.960	-0.070	0.150	-0.460
2020/01/31 14:09:35.9	0.950	-0.130	0.190	-0.440
2020/01/31 14:09:36.0	0.950	-0.190	0.240	-0.410
2020/01/31 14:09:36.1	0.940	-0.240	0.270	-0.390
2020/01/31 14:09:36.2	0.930	-0.290	0.310	-0.370
2020/01/31 14:09:36.3	0.920	-0.340	0.340	-0.350
2020/01/31 14:09:36.4	0.910	-0.390	0.370	-0.320
2020/01/31 14:09:36.5	0.900	-0.430	0.390	-0.300
2020/01/31 14:09:36.6	0.880	-0.470	0.410	-0.280
2020/01/31 14:09:36.7	0.870	-0.500	0.430	-0.260
2020/01/31 14:09:36.8	0.850	-0.530	0.440	-0.240
2020/01/31 14:09:36.9	0.830	-0.550	0.450	-0.220
2020/01/31 14:09:37.0	0.810	-0.570	0.450	-0.200
2020/01/31 14:09:37.1	0.790	-0.590	0.450	-0.180
2020/01/31 14:09:37.2	0.760	-0.590	0.450	-0.160
2020/01/31 14:09:37.3	0.740	-0.600	0.450	-0.140
2020/01/31 14:09:37.4	0.720	-0.590	0.440	-0.110
2020/01/31 14:09:37.5	0.690	-0.580	0.430	-0.090
2020/01/31 14:09:37.6	0.650	-0.570	0.410	-0.070
2020/01/31 14:09:37.7	0.620	-0.550	0.390	-0.050
2020/01/31 14:09:37.8	0.590	-0.530	0.370	-0.020
2020/01/31 14:09:37.9	0.560	-0.500	0.350	0.000
2020/01/31 14:09:38.0	0.530	-0.470	0.330	0.030
2020/01/31 14:09:38.1	0.510	-0.430	0.300	0.060
2020/01/31 14:09:38.2	0.480	-0.390	0.280	0.090
2020/01/31 14:09:38.3	0.450	-0.350	0.250	0.120
2020/01/31 14:09:38.4	0.420	-0.310	0.220	0.150
2020/01/31 14:09:38.5	0.400	-0.260	0.190	0.180
2020/01/31 14:09:38.6	0.370	-0.210	0.160	0.210
2020/01/31 14:09:38.7	0.350	-0.170	0.120	0.240
2020/01/31 14:09:38.8	0.330	-0.120	0.090	0.270
2020/01/31 14:09:38.9	0.310	-0.070	0.050	0.300
2020/01/31 14:09:39.0	0.290	-0.020	0.010	0.330
2020/01/31 14:09:39.1	0.280	0.020	-0.030	0.350
2020/01/31 14:09:39.2	0.260	0.070	-0.070	0.380
2020/01/31 14:09:39.3	0.260	0.110	-0.110	0.400
2020/01/31 14:09:39.4	0.250	0.150	-0.150	0.410
2020/01/31 14:09:39.5	0.250	0.190	-0.190	0.420
2020/01/31 14:09:39.6	0.250	0.230	-0.240	0.430
2020/01/31 14:09:39.7	0.250	0.260	-0.290	0.430
2020/01/31 14:09:39.8	0.260	0.290	-0.330	0.430
2020/01/31 14:09:39.9	0.280	0.320	-0.370	0.420
2020/01/31 14:09:40.0	0.290	0.350	-0.420	0.400
2020/01/31 14:09:40.1	0.320	0.370	-0.460	0.390
2020/01/31 14:09:40.2	0.340	0.390	-0.510	0.360
2020/01/31 14:09:40.3	0.370	0.400	-0.550	0.330
2020/01/31 14:09:40.4	0.400	0.410	-0.590	0.300
2020/01/31 14:09:40.5	0.430	0.420	-0.620	0.270
2020/01/31 14:09:40.6	0.480	0.420	-0.660	0.230
2020/01/31 14:09:40.7	0.520	0.420	-0.690	0.190
2020/01/31 14:09:40.8	0.550	0.420	-0.720	0.150
2020/01/31 14:09:40.9	0.590	0.410	-0.740	0.100
2020/01/31 14:09:41.0	0.630	0.400	-0.760	0.060
2020/01/31 14:09:41.1	0.670	0.390	-0.770	0.020
2020/01/31 14:09:41.2	0.700	0.380	-0.780	-0.030
2020/01/31 14:09:41.3	0.740	0.360	-0.780	-0.070
2020/01/31 14:09:41.4	0.770	0.340	-0.780	-0.110
2020/01/31 14:09:41.5	0.800	0.320	-0.770	-0.140
2020/01/31 14:09:41.6	0.830	0.290	-0.760	-0.180
2020/01/31 14:09:41.7	0.850	0.260	-0.740	-0.220
2020/01/31 14:09:41.8	0.880	0.240	-0.720	-0.250
2020/01/31 14:09:41.9	0.900	0.210	-0.700	-0.290
2020/01/31 14:09:42.0	0.920	0.180	-0.670	-0.320
2020/01/31 14:09:42.1	0.940	0.140	-0.640	-0.350
2020/01/31 14:09:42.2	0.960	0.110	-0.610	-0.380
2020/01/31 14:09:42.3	0.970	0.080	-0.580	-0.420
2020/01/31 14:09:42.4	0.990	0.050	-0.550	-0.450
2020/01/31 14:09:42.5	1.010	0.010	-0.510	-0.480
2020/01/31 14:09:42.6	1.010	-0.020	-0.480	-0.510
2020/01/31 14:09:42.7	1.030	-0.050	-0.450	-0.540
2020/01/31 14:09:42.8	1.050	-0.080	-0.430	-0.570
2020/01/31 14:09:42.9	1.060	-0.100	-0.400	-0.600
2020/01/31 14:09:43.0	1.080	-0.130	-0.380	-0.640
2020/01/31 14:09:43.1	1.100	-0.160	-0.360	-0.670
2020/01/31 14:09:43.2	1.120	-0.180	-0.350	-0.700
2020/01/31 14:09:43.3	1.140	-0.200	-0.340	-0.740
2020/01/31 14:09:43.4	1.170	-0.210	-0.340	-0.770
2020/01/31 14:09:43.5	1.190	-0.230	-0.340	-0.800
2020/01/31 14:09:43.6	1.220	-0.240	-0.350	-0.840
2020/01/31 14:09:43.7	1.260	-0.250	-0.360	-0.880
2020/01/31 14:09:43.8	1.290	-0.250	-0.380	-0.910
2020/01/31 14:09:43.9	1.320	-0.260	-0.390	-0.950
2020/01/31 14:09:44.0	1.360	-0.260	-0.420	-0.980
2020/01/31 14:09:44.1	1.400	-0.250	-0.440	-1.020
2020/01/31 14:09:44.2	1.430	-0.250	-0.470	-1.050
2020/01/31 14:09:44.3	1.470	-0.240	-0.500	-1.080
2020/01/31 14:09:44.4	1.510	-0.240	-0.530	-1.110
2020/01/31 14:09:44.5	1.540	-0.230	-0.550	-1.130
2020/01/31 14:09:44.6	1.570	-0.220	-0.580	-1.150
2020/01/31 14:09:44.7	1.600	-0.210	-0.600	-1.160
2020/01/31 14:09:44.8	1.620	-0.190	-0.620	-1.180
2020/01/31 14:09:44.9	1.640	-0.180	-0.640	-1.180
2020/01/31 14:09:45.0	1.660	-0.170	-0.650	-1.180
2020/01/31 14:09:45.1	1.670	-0.150	-0.650	-1.180
2020/01/31 14:09:45.2	1.680	-0.140	-0.650	-1.180
2020/01/31 14:09:45.3	1.690	-0.120	-0.640	-1.170
2020/01/31 14:09:45.4	1.690	-0.110	-0.630	-1.160
2020/01/31 14:09:45.5	1.690	-0.090	-0.610	-1.150
2020/01/31 14:09:45.6	1.680	-0.080	-0.580	-1.130
2020/01/31 14:09:45.7	1.680	-0.060	-0.550	-1.110
2020/01/31 14:09:45.8	1.670	-0.050	-0.510	-1.090
2020/01/31 14:09:45.9	1.660	-0.040	-0.460	-1.060
2020/01/31 14:09:46.0	1.660	-0.030	-0.410	-1.030
2020/01/31 14:09:46.1	1.650	-0.020	-0.350	-1.000
2020/01/31 14:09:46.2	1.640	-0.010	-0.290	-0.960
2020/01/31 14:09:46.3	1.630	0.000	-0.220	-0.930
2020/01/31 14:09:46.4	1.620	0.010	-0.150	-0.890
2020/01/31 14:09:46.5	1.610	0.020	-0.080	-0.850
2020/01/31 14:09:46.6	1.600	0.030	-0.010	-0.810
2020/01/31 14:09:46.7	1.590	0.030	0.070	-0.770
2020/01/31 14:09:46.8	1.590	0.040	0.140	-0.730
2020/01/31 14:09:46.9	1.590	0.050	0.210	-0.690
2020/01/31 14:09:47.0	1.590	0.050	0.280	-0.650
2020/01/31 14:09:47.1	1.590	0.060	0.350	-0.610
2020/01/31 14:09:47.2	1.590	0.060	0.420	-0.570
2020/01/31 14:09:47.3	1.590	0.060	0.480	-0.540
2020/01/31 14:09:47.4	1.600	0.060	0.540	-0.500
2020/01/31 14:09:47.5	1.600	0.060	0.600	-0.460
2020/01/31 14:09:47.6	1.600	0.060	0.640	-0.410
2020/01/31 14:09:47.7	1.600	0.060	0.690	-0.370
2020/01/31 14:09:47.8	1.600	0.060	0.740	-0.330
2020/01/31 14:09:47.9	1.590	0.050	0.780	-0.290
2020/01/31 14:09:48.0	1.590	0.050	0.810	-0.250
2020/01/31 14:09:48.1	1.580	0.040	0.840	-0.210
2020/01/31 14:09:48.2	1.570	0.030	0.860	-0.170
2020/01/31 14:09:48.3	1.560	0.020	0.880	-0.130
2020/01/31 14:09:48.4	1.540	0.010	0.900	-0.090
2020/01/31 14:09:48.5	1.530	0.000	0.900	-0.050
2020/01/31 14:09:48.6	1.530	-0.010	0.900	-0.020
2020/01/31 14:09:48.7	1.510	-0.020	0.900	0.020
2020/01/31 14:09:48.8	1.490	-0.030	0.890	0.050
2020/01/31 14:09:48.9	1.470	-0.040	0.870	0.090
2020/01/31 14:09:49.0	1.450	-0.050	0.850	0.120
2020/01/31 14:09:49.1	1.440	-0.050	0.820	0.140
2020/01/31 14:09:49.2	1.420	-0.060	0.780	0.170
2020/01/31 14:09:49.3	1.400	-0.070	0.740	0.190
2020/01/31 14:09:49.4	1.380	-0.070	0.690	0.220
2020/01/31 14:09:49.5	1.360	-0.080	0.630	0.230
2020/01/31 14:09:49.6	1.350	-0.080	0.570	0.250
2020/01/31 14:09:49.7	1.330	-0.080	0.510	0.270
2020/01/31 14:09:49.8	1.320	-0.080	0.440	0.280
2020/01/31 14:09:49.9	1.300	-0.080	0.360	0.290
2020/01/31 14:09:50.0	1.290	-0.070	0.280	0.290
2020/01/31 14:09:50.1	1.280	-0.070	0.190	0.300
2020/01/31 14:09:50.2	1.270	-0.060	0.100	0.300
2020/01/31 14:09:50.3	1.260	-0.050	0.010	0.290
2020/01/31 14:09:50.4	1.260	-0.040	-0.090	0.290
2020/01/31 14:09:50.5	1.260	-0.020	-0.190	0.270
2020/01/31 14:09:50.6	1.270	-0.010	-0.290	0.260
2020/01/31 14:09:50.7	1.260	0.000	-0.390	0.240
2020/01/31 14:09:50.8	1.270	0.020	-0.500	0.210
2020/01/31 14:09:50.9	1.270	0.030	-0.600	0.180
2020/01/31 14:09:51.0	1.280	0.050	-0.700	0.150
2020/01/31 14:09:51.1	1.280	0.070	-0.810	0.110
2020/01/31 14:09:51.2	1.290	0.080	-0.910	0.060
2020/01/31 14:09:51.3	1.310	0.100	-1.010	0.010
2020/01/31 14:09:51.4	1.320	0.110	-1.100	-0.040
2020/01/31 14:09:51.5	1.330	0.130	-1.200	-0.090
2020/01/31 14:09:51.6	1.360	0.140	-1.290	-0.150
2020/01/31 14:09:51.7	1.370	0.160	-1.370	-0.220
2020/01/31 14:09:51.8	1.400	0.170	-1.450	-0.280
2020/01/31 14:09:51.9	1.420	0.180	-1.520	-0.350
2020/01/31 14:09:52.0	1.440	0.190	-1.580	-0.410
2020/01/31 14:09:52.1	1.470	0.200	-1.640	-0.480
2020/01/31 14:09:52.2	1.500	0.210	-1.690	-0.550
2020/01/31 14:09:52.3	1.530	0.220	-1.730	-0.620
2020/01/31 14:09:52.4	1.560	0.230	-1.760	-0.690
2020/01/31 14:09:52.5	1.600	0.230	-1.780	-0.760
2020/01/31 14:09:52.6	1.640	0.230	-1.800	-0.820
2020/01/31 14:09:52.7	1.670	0.240	-1.800	-0.880
2020/01/31 14:09:52.8	1.710	0.240	-1.800	-0.950
2020/01/31 14:09:52.9	1.750	0.240	-1.790	-1.000
2020/01/31 14:09:53.0	1.790	0.240	-1.760	-1.060
2020/01/31 14:09:53.1	1.830	0.240	-1.730	-1.110
2020/01/31 14:09:53.2	1.880	0.230	-1.690	-1.160
2020/01/31 14:09:53.3	1.920	0.230	-1.640	-1.210
2020/01/31 14:09:53.4	1.960	0.220	-1.580	-1.250
2020/01/31 14:09:53.5	2.000	0.220	-1.510	-1.290
2020/01/31 14:09:53.6	2.040	0.210	-1.430	-1.330
2020/01/31 14:09:53.7	2.080	0.200	-1.350	-1.360
2020/01/31 14:09:53.8	2.120	0.180	-1.260	-1.380
2020/01/31 14:09:53.9	2.150	0.170	-1.160	-1.410
2020/01/31 14:09:54.0	2.180	0.160	-1.050	-1.430
2020/01/31 14:09:54.1	2.210	0.140	-0.940	-1.440
2020/01/31 14:09:54.2	2.230	0.120	-0.830	-1.450
2020/01/31 14:09:54.3	2.250	0.100	-0.710	-1.460
2020/01/31 14:09:54.4	2.270	0.090	-0.600	-1.460
2020/01/31 14:09:54.5	2.290	0.070	-0.480	-1.460
2020/01/31 14:09:54.6	2.290	0.040	-0.360	-1.450
2020/01/31 14:09:54.7	2.300	0.020	-0.240	-1.440
2020/01/31 14:09:54.8	2.300	0.000	-0.120	-1.420
2020/01/31 14:09:54.9	2.310	-0.020	-0.000	-1.400
2020/01/31 14:09:55.0	2.310	-0.040	0.110	-1.380
2020/01/31 14:09:55.1	2.310	-0.060	0.220	-1.350
2020/01/31 14:09:55.2	2.300	-0.080	0.330	-1.320
2020/01/31 14:09:55.3	2.300	-0.110	0.430	-1.290
2020/01/31 14:09:55.4	2.290	-0.130	0.520	-1.250
2020/01/31 14:09:55.5	2.280	-0.150	0.610	-1.210
2020/01/31 14:09:55.6	2.280	-0.170	0.690	-1.160
2020/01/31 14:09:55.7	2.260	-0.180	0.770	-1.110
2020/01/31 14:09:55.8	2.250	-0.200	0.830	-1.060
2020/01/31 14:09:55.9	2.230	-0.220	0.890	-1.010
2020/01/31 14:09:56.0	2.220	-0.230	0.940	-0.960
2020/01/31 14:09:56.1	2.200	-0.240	0.980	-0.900
2020/01/31 14:09:56.2	2.190	-0.260	1.010	-0.840
2020/01/31 14:09:56.3	2.170	-0.260	1.030	-0.790
2020/01/31 14:09:56.4	2.160	-0.270	1.040	-0.730
2020/01/31 14:09:56.5	2.140	-0.280	1.040	-0.670
2020/01/31 14:09:56.6	2.110	-0.280	1.030	-0.610
2020/01/31 14:09:56.7	2.100	-0.280	1.010	-0.560
2020/01/31 14:09:56.8	2.090	-0.280	0.980	-0.500
2020/01/31 14:09:56.9	2.090	-0.280	0.950	-0.450
2020/01/31 14:09:57.0	2.080	-0.280	0.900	-0.400
2020/01/31 14:09:57.1	2.080	-0.270	0.850	-0.360
2020/01/31 14:09:57.2	2.080	-0.260	0.780	-0.310
2020/01/31 14:09:57.3	2.080	-0.250	0.720	-0.270
2020/01/31 14:09:57.4	2.090	-0.230	0.640	-0.240
2020/01/31 14:09:57.5	2.090	-0.220	0.560	-0.210
2020/01/31 14:09:57.6	2.090	-0.200	0.480	-0.180
2020/01/31 14:09:57.7	2.100	-0.180	0.390	-0.160
2020/01/31 14:09:57.8	2.110	-0.150	0.300	-0.140
2020/01/31 14:09:57.9	2.130	-0.130	0.210	-0.120
2020/01/31 14:09:58.0	2.140	-0.100	0.110	-0.110
2020/01/31 14:09:58.1	2.160	-0.080	0.020	-0.090
2020/01/31 14:09:58.2	2.170	-0.050	-0.060	-0.080
2020/01/31 14:09:58.3	2.180	-0.020	-0.150	-0.070
2020/01/31 14:09:58.4	2.190	0.010	-0.230	-0.060
2020/01/31 14:09:58.5	2.200	0.040	-0.300	-0.040
2020/01/31 14:09:58.6	2.210	0.060	-0.380	-0.030
2020/01/31 14:09:58.7	2.220	0.090	-0.440	-0.010
2020/01/31 14:09:58.8	2.220	0.120	-0.490	0.010
2020/01/31 14:09:58.9	2.210	0.140	-0.530	0.030
2020/01/31 14:09:59.0	2.210	0.170	-0.570	0.060
2020/01/31 14:09:59.1	2.200	0.190	-0.590	0.090
2020/01/31 14:09:59.2	2.180	0.210	-0.610	0.110
2020/01/31 14:09:59.3	2.160	0.230	-0.610	0.150
2020/01/31 14:09:59.4	2.140	0.250	-0.600	0.180
2020/01/31 14:09:59.5	2.110	0.260	-0.590	0.220
2020/01/31 14:09:59.6	2.090	0.270	-0.570	0.250
2020/01/31 14:09:59.7	2.060	0.280	-0.540	0.290
2020/01/31 14:09:59.8	2.020	0.280	-0.500	0.330
2020/01/31 14:09:59.9	1.980	0.280	-0.460	0.370
2020/01/31 14:10:00.0	1.940	0.280	-0.410	0.410
2020/01/31 14:10:00.1	1.900	0.270	-0.360	0.440
2020/01/31 14:10:00.2	1.850	0.270	-0.300	0.480
2020/01/31 14:10:00.3	1.810	0.260	-0.250	0.510
2020/01/31 14:10:00.4	1.760	0.240	-0.200	0.550
2020/01/31 14:10:00.5	1.720	0.230	-0.140	0.580
2020/01/31 14:10:00.6	1.690	0.210	-0.090	0.610
2020/01/31 14:10:00.7	1.650	0.190	-0.050	0.630
2020/01/31 14:10:00.8	1.600	0.170	-0.010	0.650
2020/01/31 14:10:00.9	1.560	0.150	0.030	0.670
2020/01/31 14:10:01.0	1.520	0.130	0.060	0.680
2020/01/31 14:10:01.1	1.490	0.110	0.080	0.680
2020/01/31 14:10:01.2	1.450	0.090	0.090	0.680
2020/01/31 14:10:01.3	1.420	0.060	0.090	0.670
2020/01/31 14:10:01.4	1.400	0.040	0.090	0.660
2020/01/31 14:10:01.5	1.370	0.030	0.080	0.640
2020/01/31 14:10:01.6	1.350	0.010	0.050	0.610
2020/01/31 14:10:01.7	1.340	-0.010	0.020	0.570
2020/01/31 14:10:01.8	1.330	-0.020	-0.020	0.530
2020/01/31 14:10:01.9	1.320	-0.030	-0.070	0.480
2020/01/31 14:10:02.0	1.320	-0.040	-0.120	0.420
2020/01/31 14:10:02.1	1.320	-0.050	-0.180	0.360
2020/01/31 14:10:02.2	1.320	-0.060	-0.250	0.290
2020/01/31 14:10:02.3	1.330	-0.060	-0.310	0.220
2020/01/31 14:10:02.4	1.350	-0.070	-0.390	0.140
2020/01/31 14:10:02.5	1.370	-0.070	-0.460	0.050
2020/01/31 14:10:02.6	1.390	-0.070	-0.540	-0.050
2020/01/31 14:10:02.7	1.420	-0.070	-0.620	-0.140
2020/01/31 14:10:02.8	1.440	-0.060	-0.690	-0.240
2020/01/31 14:10:02.9	1.470	-0.060	-0.760	-0.330
2020/01/31 14:10:03.0	1.500	-0.050	-0.830	-0.430
2020/01/31 14:10:03.1	1.540	-0.040	-0.890	-0.530
2020/01/31 14:10:03.2	1.570	-0.040	-0.950	-0.630
2020/01/31 14:10:03.3	1.610	-0.030	-1.000	-0.720
2020/01/31 14:10:03.4	1.640	-0.020	-1.040	-0.810
2020/01/31 14:10:03.5	1.680	-0.010	-1.070	-0.890
2020/01/31 14:10:03.6	1.700	-0.000	-1.100	-0.980
2020/01/31 14:10:03.7	1.730	0.000	-1.110	-1.050
2020/01/31 14:10:03.8	1.770	0.010	-1.120	-1.120
2020/01/31 14:10:03.9	1.790	0.020	-1.120	-1.180
2020/01/31 14:10:04.0	1.820	0.020	-1.110	-1.240
2020/01/31 14:10:04.1	1.850	0.020	-1.090	-1.290
2020/01/31 14:10:04.2	1.870	0.030	-1.060	-1.340
2020/01/31 14:10:04.3	1.890	0.030	-1.020	-1.380
2020/01/31 14:10:04.4	1.910	0.020	-0.980	-1.410
2020/01/31 14:10:04.5	1.930	0.020	-0.930	-1.440
2020/01/31 14:10:04.6	1.940	0.010	-0.880	-1.470
2020/01/31 14:10:04.7	1.960	0.010	-0.820	-1.490
2020/01/31 14:10:04.8	1.980	-0.000	-0.760	-1.510
2020/01/31 14:10:04.9	1.990	-0.010	-0.700	-1.530
2020/01/31 14:10:05.0	2.000	-0.030	-0.640	-1.540
2020/01/31 14:10:05.1	2.020	-0.040	-0.580	-1.550
2020/01/31 14:10:05.2	2.030	-0.050	-0.520	-1.560
2020/01/31 14:10:05.3	2.040	-0.070	-0.460	-1.570
2020/01/31 14:10:05.4	2.060	-0.080	-0.400	-1.580
2020/01/31 14:10:05.5	2.070	-0.100	-0.340	-1.590
2020/01/31 14:10:05.6	2.080	-0.120	-0.290	-1.600
2020/01/31 14:10:05.7	2.100	-0.130	-0.240	-1.600
2020/01/31 14:10:05.8	2.120	-0.140	-0.200	-1.610
2020/01/31 14:10:05.9	2.140	-0.160	-0.160	-1.620
2020/01/31 14:10:06.0	2.160	-0.170	-0.120	-1.620
2020/01/31 14:10:06.1	2.180	-0.180	-0.090	-1.630
2020/01/31 14:10:06.2	2.200	-0.190	-0.070	-1.630
2020/01/31 14:10:06.3	2.220	-0.190	-0.050	-1.630
2020/01/31 14:10:06.4	2.230	-0.200	-0.030	-1.620
2020/01/31 14:10:06.5	2.250	-0.200	-0.020	-1.620
2020/01/31 14:10:06.6	2.280	-0.200	-0.010	-1.600
2020/01/31 14:10:06.7	2.300	-0.190	-0.000	-1.590
2020/01/31 14:10:06.8	2.310	-0.190	0.000	-1.570
2020/01/31 14:10:06.9	2.320	-0.180	0.010	-1.540
2020/01/31 14:10:07.0	2.330	-0.170	0.010	-1.510
2020/01/31 14:10:07.1	2.340	-0.160	0.020	-1.480
2020/01/31 14:10:07.2	2.350	-0.140	0.020	-1.440
2020/01/31 14:10:07.3	2.350	-0.130	0.020	-1.390
2020/01/31 14:10:07.4	2.350	-0.110	0.030	-1.340
2020/01/31 14:10:07.5	2.350	-0.090	0.040	-1.290
2020/01/31 14:10:07.6	2.350	-0.070	0.040	-1.230
2020/01/31 14:10:07.7	2.340	-0.050	0.050	-1.170
2020/01/31 14:10:07.8	2.330	-0.020	0.060	-1.100
2020/01/31 14:10:07.9	2.320	0.000	0.060	-1.030
2020/01/31 14:10:08.0	2.310	0.030	0.070	-0.960
2020/01/31 14:10:08.1	2.300	0.050	0.080	-0.890
2020/01/31 14:10:08.2	2.280	0.080	0.090	-0.810
2020/01/31 14:10:08.3	2.270	0.100	0.100	-0.730
2020/01/31 14:10:08.4	2.250	0.120	0.110	-0.650
2020/01/31 14:10:08.5	2.240	0.150	0.120	-0.580
2020/01/31 14:10:08.6	2.210	0.170	0.120	-0.500
2020/01/31 14:10:08.7	2.190	0.190	0.130	-0.420
2020/01/31 14:10:08.8	2.170	0.220	0.130	-0.350
2020/01/31 14:10:08.9	2.160	0.240	0.130	-0.280
2020/01/31 14:10:09.0	2.140	0.260	0.140	-0.200
2020/01/31 14:10:09.1	2.130	0.270	0.140	-0.140
2020/01/31 14:10:09.2	2.110	0.290	0.140	-0.070
2020/01/31 14:10:09.3	2.090	0.300	0.140	-0.010
2020/01/31 14:10:09.4	2.070	0.320	0.130	0.050
2020/01/31 14:10:09.5	2.050	0.330	0.130	0.110
2020/01/31 14:10:09.6	2.030	0.340	0.120	0.160
2020/01/31 14:10:09.7	2.010	0.350	0.120	0.210
2020/01/31 14:10:09.8	1.990	0.350	0.120	0.260
2020/01/31 14:10:09.9	1.960	0.350	0.120	0.310
2020/01/31 14:10:10.0	1.940	0.360	0.120	0.350
2020/01/31 14:10:10.1	1.910	0.350	0.120	0.390
2020/01/31 14:10:10.2	1.880	0.350	0.120	0.430
2020/01/31 14:10:10.3	1.850	0.340	0.120	0.470
2020/01/31 14:10:10.4	1.820	0.340	0.120	0.500
2020/01/31 14:10:10.5	1.790	0.320	0.120	0.530
2020/01/31 14:10:10.6	1.760	0.310	0.130	0.550
2020/01/31 14:10:10.7	1.720	0.300	0.130	0.580
2020/01/31 14:10:10.8	1.690	0.280	0.140	0.600
2020/01/31 14:10:10.9	1.650	0.260	0.140	0.620
2020/01/31 14:10:11.0	1.610	0.240	0.140	0.630
2020/01/31 14:10:11.1	1.570	0.210	0.150	0.650
2020/01/31 14:10:11.2	1.530	0.190	0.150	0.660
2020/01/31 14:10:11.3	1.490	0.160	0.150	0.670
2020/01/31 14:10:11.4	1.460	0.130	0.150	0.670
2020/01/31 14:10:11.5	1.420	0.100	0.140	0.670
2020/01/31 14:10:11.6	1.400	0.070	0.130	0.670
2020/01/31 14:10:11.7	1.370	0.040	0.120	0.660
2020/01/31 14:10:11.8	1.330	0.010	0.110	0.650
2020/01/31 14:10:11.9	1.300	-0.030	0.090	0.630
2020/01/31 14:10:12.0	1.270	-0.060	0.070	0.610
2020/01/31 14:10:12.1	1.240	-0.090	0.040	0.590
2020/01/31 14:10:12.2	1.220	-0.120	0.010	0.560
2020/01/31 14:10:12.3	1.190	-0.150	-0.020	0.530
2020/01/31 14:10:12.4	1.170	-0.180	-0.060	0.490
2020/01/31 14:10:12.5	1.150	-0.200	-0.100	0.450
2020/01/31 14:10:12.6	1.150	-0.230	-0.160	0.400
2020/01/31 14:10:12.7	1.140	-0.250	-0.210	0.350
2020/01/31 14:10:12.8	1.130	-0.270	-0.260	0.290
2020/01/31 14:10:12.9	1.130	-0.290	-0.320	0.230
2020/01/31 14:10:13.0	1.130	-0.300	-0.390	0.170
2020/01/31 14:10:13.1	1.130	-0.310	-0.450	0.100
2020/01/31 14:10:13.2	1.130	-0.320	-0.520	0.040
2020/01/31 14:10:13.3	1.140	-0.330	-0.590	-0.040
2020/01/31 14:10:13.4	1.150	-0.330	-0.660	-0.110
2020/01/31 14:10:13.5	1.170	-0.330	-0.720	-0.190
2020/01/31 14:10:13.6	1.180	-0.330	-0.790	-0.270
2020/01/31 14:10:13.7	1.200	-0.320	-0.860	-0.350
2020/01/31 14:10:13.8	1.220	-0.310	-0.920	-0.420
2020/01/31 14:10:13.9	1.250	-0.300	-0.980	-0.500
2020/01/31 14:10:14.0	1.280	-0.290	-1.040	-0.580
2020/01/31 14:10:14.1	1.310	-0.270	-1.090	-0.660
2020/01/31 14:10:14.2	1.350	-0.260	-1.140	-0.740
2020/01/31 14:10:14.3	1.380	-0.240	-1.180	-0.810
2020/01/31 14:10:14.4	1.420	-0.210	-1.210	-0.890
2020/01/31 14:10:14.5	1.460	-0.190	-1.240	-0.960
2020/01/31 14:10:14.6	1.490	-0.170	-1.270	-1.030
2020/01/31 14:10:14.7	1.530	-0.150	-1.280	-1.100
2020/01/31 14:10:14.8	1.570	-0.120	-1.290	-1.160
2020/01/31 14:10:14.9	1.620	-0.100	-1.290	-1.220
2020/01/31 14:10:15.0	1.660	-0.070	-1.280	-1.280
2020/01/31 14:10:15.1	1.700	-0.050	-1.260	-1.330
2020/01/31 14:10:15.2	1.730	-0.030	-1.240	-1.380
2020/01/31 14:10:15.3	1.770	-0.010	-1.210	-1.430
2020/01/31 14:10:15.4	1.810	0.010	-1.170	-1.470
2020/01/31 14:10:15.5	1.840	0.020	-1.120	-1.510
2020/01/31 14:10:15.6	1.880	0.030	-1.070	-1.530
2020/01/31 14:10:15.7	1.910	0.040	-1.010	-1.560
2020/01/31 14:10:15.8	1.940	0.050	-0.940	-1.580
2020/01/31 14:10:15.9	1.970	0.060	-0.870	-1.600
2020/01/31 14:10:16.0	1.990	0.060	-0.790	-1.620
2020/01/31 14:10:16.1	2.020	0.060	-0.720	-1.630
2020/01/31 14:10:16.2	2.040	0.050	-0.640	-1.640
2020/01/31 14:10:16.3	2.050	0.040	-0.550	-1.640
2020/01/31 14:10:16.4	2.070	0.030	-0.470	-1.640
2020/01/31 14:10:16.5	2.080	0.020	-0.380	-1.630
2020/01/31 14:10:16.6	2.100	0.010	-0.300	-1.610
2020/01/31 14:10:16.7	2.110	-0.010	-0.220	-1.600
2020/01/31 14:10:16.8	2.110	-0.030	-0.140	-1.570
2020/01/31 14:10:16.9	2.110	-0.050	-0.060	-1.540
2020/01/31 14:10:17.0	2.100	-0.070	0.020	-1.510
2020/01/31 14:10:17.1	2.100	-0.100	0.090	-1.470
2020/01/31 14:10:17.2	2.090	-0.120	0.170	-1.430
2020/01/31 14:10:17.3	2.070	-0.140	0.230	-1.380
2020/01/31 14:10:17.4	2.050	-0.170	0.300	-1.320
2020/01/31 14:10:17.5	2.030	-0.190	0.360	-1.270
2020/01/31 14:10:17.6	2.020	-0.220	0.410	-1.200
2020/01/31 14:10:17.7	2.000	-0.240	0.470	-1.140
2020/01/31 14:10:17.8	1.970	-0.260	0.510	-1.080
2020/01/31 14:10:17.9	1.950	-0.280	0.560	-1.010
2020/01/31 14:10:18.0	1.920	-0.300	0.590	-0.950
2020/01/31 14:10:18.1	1.890	-0.310	0.620	-0.880
2020/01/31 14:10:18.2	1.860	-0.320	0.650	-0.810
2020/01/31 14:10:18.3	1.830	-0.330	0.670	-0.750
2020/01/31 14:10:18.4	1.790	-0.340	0.680	-0.680
2020/01/31 14:10:18.5	1.760	-0.340	0.690	-0.620
2020/01/31 14:10:18.6	1.720	-0.340	0.690	-0.550
2020/01/31 14:10:18.7	1.690	-0.330	0.690	-0.490
2020/01/31 14:10:18.8	1.660	-0.320	0.680	-0.430
2020/01/31 14:10:18.9	1.630	-0.310	0.670	-0.370
2020/01/31 14:10:19.0	1.600	-0.290	0.650	-0.310
2020/01/31 14:10:19.1	1.570	-0.260	0.620	-0.250
2020/01/31 14:10:19.2	1.530	-0.230	0.600	-0.180
2020/01/31 14:10:19.3	1.500	-0.200	0.560	-0.120
2020/01/31 14:10:19.4	1.470	-0.160	0.530	-0.060
2020/01/31 14:10:19.5	1.430	-0.120	0.480	0.010
2020/01/31 14:10:19.6	1.380	-0.070	0.440	0.070
2020/01/31 14:10:19.7	1.340	-0.030	0.390	0.140
2020/01/31 14:10:19.8	1.300	0.020	0.340	0.200
2020/01/31 14:10:19.9	1.260	0.070	0.290	0.270
2020/01/31 14:10:20.0	1.220	0.130	0.240	0.340
2020/01/31 14:10:20.1	1.170	0.180	0.180	0.400
2020/01/31 14:10:20.2	1.130	0.230	0.130	0.460
2020/01/31 14:10:20.3	1.080	0.290	0.070	0.530
2020/01/31 14:10:20.4	1.040	0.340	0.010	0.590
2020/01/31 14:10:20.5	1.000	0.400	-0.050	0.650
2020/01/31 14:10:20.6	0.950	0.450	-0.110	0.710
2020/01/31 14:10:20.7	0.910	0.500	-0.170	0.760
2020/01/31 14:10:20.8	0.870	0.540	-0.230	0.810
2020/01/31 14:10:20.9	0.830	0.590	-0.290	0.860
2020/01/31 14:10:21.0	0.800	0.630	-0.350	0.900
2020/01/31 14:10:21.1	0.770	0.670	-0.400	0.940
2020/01/31 14:10:21.2	0.750	0.700	-0.460	0.970
2020/01/31 14:10:21.3	0.730	0.730	-0.520	1.000
2020/01/31 14:10:21.4	0.710	0.760	-0.580	1.030
2020/01/31 14:10:21.5	0.700	0.780	-0.630	1.050
2020/01/31 14:10:21.6	0.690	0.800	-0.680	1.060
2020/01/31 14:10:21.7	0.680	0.810	-0.730	1.070
2020/01/31 14:10:21.8	0.680	0.820	-0.780	1.070
2020/01/31 14:10:21.9	0.690	0.820	-0.830	1.060
2020/01/31 14:10:22.0	0.690	0.820	-0.880	1.050
2020/01/31 14:10:22.1	0.710	0.810	-0.920	1.030
2020/01/31 14:10:22.2	0.720	0.800	-0.960	1.010
2020/01/31 14:10:22.3	0.730	0.780	-0.990	0.990
2020/01/31 14:10:22.4	0.750	0.760	-1.020	0.960
2020/01/31 14:10:22.5	0.770	0.730	-1.040	0.920
2020/01/31 14:10:22.6	0.800	0.700	-1.060	0.880
2020/01/31 14:10:22.7	0.820	0.660	-1.070	0.830
2020/01/31 14:10:22.8	0.840	0.610	-1.080	0.780
2020/01/31 14:10:22.9	0.860	0.560	-1.080	0.730
2020/01/31 14:10:23.0	0.880	0.510	-1.070	0.670
2020/01/31 14:10:23.1	0.900	0.450	-1.060	0.600
2020/01/31 14:10:23.2	0.920	0.390	-1.040	0.540
2020/01/31 14:10:23.3	0.940	0.320	-1.010	0.470
2020/01/31 14:10:23.4	0.960	0.250	-0.980	0.400
2020/01/31 14:10:23.5	0.980	0.180	-0.940	0.320
2020/01/31 14:10:23.6	1.000	0.100	-0.900	0.240
2020/01/31 14:10:23.7	1.030	0.020	-0.850	0.160
2020/01/31 14:10:23.8	1.050	-0.050	-0.800	0.090
2020/01/31 14:10:23.9	1.070	-0.140	-0.740	0.010
2020/01/31 14:10:24.0	1.090	-0.220	-0.670	-0.070
2020/01/31 14:10:24.1	1.120	-0.300	-0.600	-0.150
2020/01/31 14:10:24.2	1.140	-0.370	-0.530	-0.230
2020/01/31 14:10:24.3	1.160	-0.450	-0.460	-0.310
2020/01/31 14:10:24.4	1.180	-0.530	-0.390	-0.390
2020/01/31 14:10:24.5	1.200	-0.600	-0.310	-0.460
2020/01/31 14:10:24.6	1.230	-0.670	-0.230	-0.540
2020/01/31 14:10:24.7	1.250	-0.730	-0.150	-0.610
2020/01/31 14:10:24.8	1.270	-0.790	-0.080	-0.680
2020/01/31 14:10:24.9	1.290	-0.850	0.000	-0.750
2020/01/31 14:10:25.0	1.300	-0.900	0.080	-0.820
2020/01/31 14:10:25.1	1.320	-0.950	0.150	-0.880
2020/01/31 14:10:25.2	1.330	-0.990	0.220	-0.940
2020/01/31 14:10:25.3	1.340	-1.020	0.290	-1.000
2020/01/31 14:10:25.4	1.350	-1.050	0.350	-1.050
2020/01/31 14:10:25.5	1.360	-1.070	0.410	-1.100
2020/01/31 14:10:25.6	1.370	-1.080	0.460	-1.150
2020/01/31 14:10:25.7	1.370	-1.080	0.510	-1.190
2020/01/31 14:10:25.8	1.370	-1.080	0.550	-1.230
2020/01/31 14:10:25.9	1.370	-1.070	0.590	-1.270
2020/01/31 14:10:26.0	1.370	-1.060	0.620	-1.300
2020/01/31 14:10:26.1	1.360	-1.030	0.640	-1.320
2020/01/31 14:10:26.2	1.360	-1.000	0.660	-1.350
2020/01/31 14:10:26.3	1.350	-0.970	0.670	-1.360
2020/01/31 14:10:26.4	1.340	-0.930	0.670	-1.380
2020/01/31 14:10:26.5	1.320	-0.880	0.660	-1.390
2020/01/31 14:10:26.6	1.310	-0.830	0.650	-1.400
2020/01/31 14:10:26.7	1.290	-0.770	0.630	-1.400
2020/01/31 14:10:26.8	1.280	-0.710	0.600	-1.400
2020/01/31 14:10:26.9	1.260	-0.640	0.560	-1.400
2020/01/31 14:10:27.0	1.240	-0.570	0.510	-1.400
2020/01/31 14:10:27.1	1.220	-0.500	0.460	-1.400
2020/01/31 14:10:27.2	1.210	-0.430	0.410	-1.390
2020/01/31 14:10:27.3	1.190	-0.350	0.340	-1.390
2020/01/31 14:10:27.4	1.170	-0.270	0.280	-1.380
2020/01/31 14:10:27.5	1.160	-0.190	0.200	-1.370
2020/01/31 14:10:27.6	1.150	-0.110	0.120	-1.360
2020/01/31 14:10:27.7	1.130	-0.030	0.040	-1.340
2020/01/31 14:10:27.8	1.120	0.050	-0.040	-1.330
2020/01/31 14:10:27.9	1.110	0.120	-0.120	-1.310
2020/01/31 14:10:28.0	1.090	0.200	-0.200	-1.300
2020/01/31 14:10:28.1	1.080	0.280	-0.290	-1.280
2020/01/31 14:10:28.2	1.070	0.350	-0.370	-1.260
2020/01/31 14:10:28.3	1.060	0.410	-0.450	-1.230
2020/01/31 14:10:28.4	1.050	0.480	-0.530	-1.210
2020/01/31 14:10:28.5	1.030	0.540	-0.600	-1.180
2020/01/31 14:10:28.6	1.020	0.600	-0.680	-1.140
2020/01/31 14:10:28.7	1.010	0.650	-0.750	-1.110
2020/01/31 14:10:28.8	1.000	0.690	-0.810	-1.080
2020/01/31 14:10:28.9	0.990	0.740	-0.860	-1.040
2020/01/31 14:10:29.0	0.980	0.770	-0.910	-1.000
2020/01/31 14:10:29.1	0.970	0.800	-0.950	-0.960
2020/01/31 14:10:29.2	0.950	0.820	-0.980	-0.910
2020/01/31 14:10:29.3	0.940	0.840	-1.010	-0.870
2020/01/31 14:10:29.4	0.930	0.850	-1.030	-0.830
2020/01/31 14:10:29.5	0.920	0.860	-1.040	-0.780
2020/01/31 14:10:29.6	0.920	0.860	-1.040	-0.730
2020/01/31 14:10:29.7	0.910	0.850	-1.040	-0.690
2020/01/31 14:10:29.8	0.890	0.830	-1.020	-0.650
2020/01/31 14:10:29.9	0.880	0.810	-1.000	-0.610
2020/01/31 14:10:30.0	0.860	0.790	-0.970	-0.570
2020/01/31 14:10:30.1	0.840	0.750	-0.930	-0.530
2020/01/31 14:10:30.2	0.830	0.720	-0.880	-0.500
2020/01/31 14:10:30.3	0.810	0.670	-0.830	-0.460
2020/01/31 14:10:30.4	0.790	0.620	-0.780	-0.430
2020/01/31 14:10:30.5	0.770	0.570	-0.720	-0.400
2020/01/31 14:10:30.6	0.750	0.520	-0.650	-0.370
2020/01/31 14:10:30.7	0.730	0.460	-0.580	-0.340
2020/01/31 14:10:30.8	0.710	0.400	-0.510	-0.320
2020/01/31 14:10:30.9	0.690	0.330	-0.430	-0.300
2020/01/31 14:10:31.0	0.660	0.270	-0.360	-0.270
2020/01/31 14:10:31.1	0.640	0.200	-0.280	-0.250
2020/01/31 14:10:31.2	0.620	0.130	-0.210	-0.230
2020/01/31 14:10:31.3	0.590	0.060	-0.130	-0.210
2020/01/31 14:10:31.4	0.570	-0.000	-0.060	-0.190
2020/01/31 14:10:31.5	0.550	-0.070	0.010	-0.160
2020/01/31 14:10:31.6	0.540	-0.130	0.080	-0.140
2020/01/31 14:10:31.7	0.520	-0.190	0.140	-0.120
2020/01/31 14:10:31.8	0.500	-0.250	0.200	-0.110
2020/01/31 14:10:31.9	0.480	-0.300	0.250	-0.090
2020/01/31 14:10:32.0	0.470	-0.350	0.300	-0.070
2020/01/31 14:10:32.1	0.460	-0.400	0.340	-0.060
2020/01/31 14:10:32.2	0.450	-0.440	0.380	-0.050
2020/01/31 14:10:32.3	0.450	-0.480	0.400	-0.040
2020/01/31 14:10:32.4	0.440	-0.510	0.420	-0.030
2020/01/31 14:10:32.5	0.440	-0.540	0.430	-0.030
2020/01/31 14:10:32.6	0.420	-0.560	0.430	-0.040
2020/01/31 14:10:32.7	0.430	-0.570	0.420	-0.040
2020/01/31 14:10:32.8	0.440	-0.580	0.410	-0.050
2020/01/31 14:10:32.9	0.460	-0.580	0.390	-0.060
2020/01/31 14:10:33.0	0.470	-0.580	0.360	-0.080
2020/01/31 14:10:33.1	0.490	-0.570	0.320	-0.100
2020/01/31 14:10:33.2	0.510	-0.560	0.280	-0.120
2020/01/31 14:10:33.3	0.540	-0.550	0.240	-0.140
2020/01/31 14:10:33.4	0.560	-0.530	0.190	-0.170
2020/01/31 14:10:33.5	0.590	-0.500	0.130	-0.190
2020/01/31 14:10:33.6	0.610	-0.470	0.080	-0.230
2020/01/31 14:10:33.7	0.640	-0.440	0.020	-0.260
2020/01/31 14:10:33.8	0.670	-0.410	-0.040	-0.290
2020/01/31 14:10:33.9	0.690	-0.370	-0.100	-0.320
2020/01/31 14:10:34.0	0.720	-0.330	-0.150	-0.350
2020/01/31 14:10:34.1	0.750	-0.300	-0.210	-0.370
2020/01/31 14:10:34.2	0.770	-0.260	-0.260	-0.400
2020/01/31 14:10:34.3	0.800	-0.220	-0.320	-0.420
2020/01/31 14:10:34.4	0.820	-0.180	-0.360	-0.440
2020/01/31 14:10:34.5	0.840	-0.140	-0.410	-0.450
2020/01/31 14:10:34.6	0.860	-0.100	-0.450	-0.450
2020/01/31 14:10:34.7	0.870	-0.070	-0.480	-0.450
2020/01/31 14:10:34.8	0.880	-0.030	-0.510	-0.450
2020/01/31 14:10:34.9	0.880	-0.000	-0.530	-0.440
2020/01/31 14:10:35.0	0.880	0.030	-0.550	-0.430
2020/01/31 14:10:35.1	0.880	0.050	-0.560	-0.420
2020/01/31 14:10:35.2	0.870	0.070	-0.560	-0.390
2020/01/31 14:10:35.3	0.860	0.090	-0.560	-0.370
2020/01/31 14:10:35.4	0.850	0.110	-0.550	-0.340
2020/01/31 14:10:35.5	0.840	0.130	-0.540	-0.310
2020/01/31 14:10:35.6	0.820	0.140	-0.530	-0.280
2020/01/31 14:10:35.7	0.810	0.140	-0.510	-0.250
2020/01/31 14:10:35.8	0.790	0.150	-0.490	-0.210
2020/01/31 14:10:35.9	0.770	0.150	-0.470	-0.180
2020/01/31 14:10:36.0	0.740	0.150	-0.440	-0.150
2020/01/31 14:10:36.1	0.720	0.140	-0.410	-0.110
2020/01/31 14:10:36.2	0.700	0.140	-0.380	-0.080
2020/01/31 14:10:36.3	0.680	0.130	-0.350	-0.050
2020/01/31 14:10:36.4	0.670	0.120	-0.320	-0.020
2020/01/31 14:10:36.5	0.650	0.110	-0.290	0.010
2020/01/31 14:10:36.6	0.640	0.100	-0.270	0.030
2020/01/31 14:10:36.7	0.630	0.090	-0.240	0.060
2020/01/31 14:10:36.8	0.620	0.080	-0.220	0.080
2020/01/31 14:10:36.9	0.610	0.070	-0.200	0.100
2020/01/31 14:10:37.0	0.610	0.070	-0.180	0.120
2020/01/31 14:10:37.1	0.600	0.060	-0.160	0.130
2020/01/31 14:10:37.2	0.600	0.050	-0.150	0.150
2020/01/31 14:10:37.3	0.600	0.050	-0.140	0.160
2020/01/31 14:10:37.4	0.600	0.050	-0.130	0.170
2020/01/31 14:10:37.5	0.600	0.040	-0.130	0.180
2020/01/31 14:10:37.6	0.600	0.040	-0.130	0.190
2020/01/31 14:10:37.7	0.600	0.050	-0.130	0.200
2020/01/31 14:10:37.8	0.600	0.050	-0.130	0.200
2020/01/31 14:10:37.9	0.600	0.060	-0.130	0.210
2020/01/31 14:10:38.0	0.600	0.060	-0.130	0.220
2020/01/31 14:10:38.1	0.600	0.070	-0.140	0.220
2020/01/31 14:10:38.2	0.600	0.080	-0.150	0.230
2020/01/31 14:10:38.3	0.590	0.090	-0.150	0.230
2020/01/31 14:10:38.4	0.590	0.100	-0.160	0.240
2020/01/31 14:10:38.5	0.580	0.110	-0.170	0.250
2020/01/31 14:10:38.6	0.580	0.130	-0.180	0.260
2020/01/31 14:10:38.7	0.570	0.140	-0.200	0.260
2020/01/31 14:10:38.8	0.560	0.160	-0.210	0.270
2020/01/31 14:10:38.9	0.550	0.170	-0.220	0.280
2020/01/31 14:10:39.0	0.540	0.190	-0.240	0.290
2020/01/31 14:10:39.1	0.530	0.200	-0.250	0.300
2020/01/31 14:10:39.2	0.520	0.220	-0.270	0.300
2020/01/31 14:10:39.3	0.510	0.230	-0.280	0.310
2020/01/31 14:10:39.4	0.500	0.250	-0.300	0.310
2020/01/31 14:10:39.5	0.490	0.260	-0.320	0.310
2020/01/31 14:10:39.6	0.490	0.280	-0.340	0.310
2020/01/31 14:10:39.7	0.490	0.290	-0.360	0.310
2020/01/31 14:10:39.8	0.480	0.300	-0.380	0.300
2020/01/31 14:10:39.9	0.480	0.310	-0.390	0.300
2020/01/31 14:10:40.0	0.480	0.320	-0.410	0.290
2020/01/31 14:10:40.1	0.480	0.330	-0.430	0.270
2020/01/31 14:10:40.2	0.490	0.340	-0.450	0.260
2020/01/31 14:10:40.3	0.490	0.350	-0.470	0.240
2020/01/31 14:10:40.4	0.500	0.360	-0.480	0.220
2020/01/31 14:10:40.5	0.510	0.360	-0.500	0.200
2020/01/31 14:10:40.6	0.510	0.370	-0.520	0.180
2020/01/31 14:10:40.7	0.520	0.370	-0.530	0.150
2020/01/31 14:10:40.8	0.530	0.370	-0.540	0.130
2020/01/31 14:10:40.9	0.540	0.370	-0.550	0.100
2020/01/31 14:10:41.0	0.550	0.370	-0.560	0.080
2020/01/31 14:10:41.1	0.560	0.370	-0.560	0.050
2020/01/31 14:10:41.2	0.570	0.360	-0.560	0.030
2020/01/31 14:10:41.3	0.580	0.350	-0.560	0.000
2020/01/31 14:10:41.4	0.590	0.350	-0.550	-0.020
2020/01/31 14:10:41.5	0.610	0.340	-0.540	-0.040
2020/01/31 14:10:41.6	0.620	0.330	-0.520	-0.070
2020/01/31 14:10:41.7	0.640	0.310	-0.500	-0.090
2020/01/31 14:10:41.8	0.650	0.300	-0.480	-0.110
2020/01/31 14:10:41.9	0.670	0.280	-0.460	-0.130
2020/01/31 14:10:42.0	0.680	0.260	-0.430	-0.160
2020/01/31 14:10:42.1	0.700	0.240	-0.400	-0.180
2020/01/31 14:10:42.2	0.720	0.210	-0.360	-0.200
2020/01/31 14:10:42.3	0.730	0.190	-0.320	-0.220
2020/01/31 14:10:42.4	0.750	0.160	-0.280	-0.250
2020/01/31 14:10:42.5	0.770	0.130	-0.240	-0.270
2020/01/31 14:10:42.6	0.790	0.100	-0.200	-0.290
2020/01/31 14:10:42.7	0.810	0.070	-0.160	-0.310
2020/01/31 14:10:42.8	0.830	0.040	-0.120	-0.330
2020/01/31 14:10:42.9	0.850	-0.000	-0.070	-0.360
2020/01/31 14:10:43.0	0.860	-0.040	-0.030	-0.380
2020/01/31 14:10:43.1	0.880	-0.070	0.020	-0.400
2020/01/31 14:10:43.2	0.890	-0.110	0.060	-0.430
2020/01/31 14:10:43.3	0.900	-0.150	0.100	-0.450
2020/01/31 14:10:43.4	0.910	-0.190	0.140	-0.470
2020/01/31 14:10:43.5	0.910	-0.230	0.180	-0.490
2020/01/31 14:10:43.6	0.910	-0.270	0.210	-0.520
2020/01/31 14:10:43.7	0.910	-0.310	0.250	-0.540
2020/01/31 14:10:43.8	0.910	-0.350	0.280	-0.560
2020/01/31 14:10:43.9	0.910	-0.390	0.310	-0.570
2020/01/31 14:10:44.0	0.900	-0.430	0.340	-0.590
2020/01/31 14:10:44.1	0.890	-0.460	0.360	-0.600
2020/01/31 14:10:44.2	0.880	-0.500	0.380	-0.610
2020/01/31 14:10:44.3	0.870	-0.530	0.400	-0.620
2020/01/31 14:10:44.4	0.850	-0.560	0.420	-0.620
2020/01/31 14:10:44.5	0.840	-0.590	0.430	-0.630
2020/01/31 14:10:44.6	0.830	-0.610	0.450	-0.620
2020/01/31 14:10:44.7	0.810	-0.630	0.460	-0.620
2020/01/31 14:10:44.8	0.780	-0.650	0.460	-0.610
2020/01/31 14:10:44.9	0.760	-0.670	0.460	-0.600
2020/01/31 14:10:45.0	0.730	-0.680	0.460	-0.590
2020/01/31 14:10:45.1	0.700	-0.690	0.450	-0.570
2020/01/31 14:10:45.2	0.670	-0.700	0.440	-0.560
2020/01/31 14:10:45.3	0.640	-0.700	0.430	-0.540
2020/01/31 14:10:45.4	0.610	-0.710	0.410	-0.520
2020/01/31 14:10:45.5	0.570	-0.700	0.390	-0.510
2020/01/31 14:10:45.6	0.540	-0.700	0.360	-0.490
2020/01/31 14:10:45.7	0.510	-0.690	0.330	-0.470
2020/01/31 14:10:45.8	0.470	-0.680	0.290	-0.450
2020/01/31 14:10:45.9	0.440	-0.670	0.250	-0.440
2020/01/31 14:10:46.0	0.410	-0.650	0.210	-0.420
2020/01/31 14:10:46.1	0.380	-0.630	0.150	-0.410
2020/01/31 14:10:46.2	0.360	-0.600	0.100	-0.390
2020/01/31 14:10:46.3	0.330	-0.580	0.040	-0.390
2020/01/31 14:10:46.4	0.310	-0.550	-0.030	-0.380
2020/01/31 14:10:46.5	0.300	-0.510	-0.100	-0.370
2020/01/31 14:10:46.6	0.290	-0.470	-0.170	-0.370
2020/01/31 14:10:46.7	0.280	-0.430	-0.240	-0.370
2020/01/31 14:10:46.8	0.280	-0.390	-0.320	-0.380
2020/01/31 14:10:46.9	0.280	-0.350	-0.400	-0.380
2020/01/31 14:10:47.0	0.280	-0.300	-0.480	-0.390
2020/01/31 14:10:47.1	0.280	-0.250	-0.560	-0.410
2020/01/31 14:10:47.2	0.290	-0.200	-0.640	-0.420
2020/01/31 14:10:47.3	0.300	-0.140	-0.720	-0.440
2020/01/31 14:10:47.4	0.320	-0.090	-0.800	-0.460
2020/01/31 14:10:47.5	0.340	-0.030	-0.870	-0.480
2020/01/31 14:10:47.6	0.360	0.030	-0.940	-0.500
2020/01/31 14:10:47.7	0.390	0.090	-1.010	-0.520
2020/01/31 14:10:47.8	0.410	0.150	-1.070	-0.540
2020/01/31 14:10:47.9	0.450	0.200	-1.120	-0.560
2020/01/31 14:10:48.0	0.480	0.260	-1.170	-0.580
2020/01/31 14:10:48.1	0.510	0.320	-1.210	-0.600
2020/01/31 14:10:48.2	0.550	0.380	-1.240	-0.610
2020/01/31 14:10:48.3	0.580	0.430	-1.270	-0.620
2020/01/31 14:10:48.4	0.620	0.480	-1.280	-0.630
2020/01/31 14:10:48.5	0.650	0.530	-1.280	-0.640
2020/01/31 14:10:48.6	0.670	0.570	-1.280	-0.640
2020/01/31 14:10:48.7	0.710	0.620	-1.260	-0.640
2020/01/31 14:10:48.8	0.740	0.650	-1.240	-0.630
2020/01/31 14:10:48.9	0.770	0.680	-1.210	-0.620
2020/01/31 14:10:49.0	0.790	0.710	-1.170	-0.610
2020/01/31 14:10:49.1	0.820	0.730	-1.120	-0.590
2020/01/31 14:10:49.2	0.840	0.750	-1.060	-0.570
2020/01/31 14:10:49.3	0.860	0.760	-1.000	-0.550
2020/01/31 14:10:49.4	0.870	0.760	-0.930	-0.510
2020/01/31 14:10:49.5	0.880	0.760	-0.850	-0.480
2020/01/31 14:10:49.6	0.900	0.760	-0.780	-0.440
2020/01/31 14:10:49.7	0.900	0.740	-0.700	-0.390
2020/01/31 14:10:49.8	0.910	0.730	-0.610	-0.340
2020/01/31 14:10:49.9	0.900	0.700	-0.520	-0.290
2020/01/31 14:10:50.0	0.900	0.680	-0.440	-0.240
2020/01/31 14:10:50.1	0.890	0.640	-0.350	-0.180
2020/01/31 14:10:50.2	0.880	0.610	-0.260	-0.130
2020/01/31 14:10:50.3	0.870	0.570	-0.180	-0.070
2020/01/31 14:10:50.4	0.860	0.520	-0.100	-0.010
2020/01/31 14:10:50.5	0.840	0.480	-0.020	0.050
2020/01/31 14:10:50.6	0.820	0.430	0.050	0.110
2020/01/31 14:10:50.7	0.810	0.370	0.110	0.160
2020/01/31 14:10:50.8	0.790	0.320	0.180	0.210
2020/01/31 14:10:50.9	0.770	0.270	0.230	0.260
2020/01/31 14:10:51.0	0.750	0.210	0.280	0.310
2020/01/31 14:10:51.1	0.740	0.160	0.320	0.350
2020/01/31 14:10:51.2	0.720	0.100	0.360	0.380
2020/01/31 14:10:51.3	0.710	0.050	0.380	0.410
2020/01/31 14:10:51.4	0.690	-0.000	0.400	0.440
2020/01/31 14:10:51.5	0.680	-0.050	0.420	0.460
2020/01/31 14:10:51.6	0.660	-0.100	0.420	0.470
2020/01/31 14:10:51.7	0.650	-0.140	0.420	0.470
2020/01/31 14:10:51.8	0.640	-0.180	0.410	0.470
2020/01/31 14:10:51.9	0.630	-0.210	0.400	0.470
2020/01/31 14:10:52.0	0.620	-0.250	0.380	0.460
2020/01/31 14:10:52.1	0.610	-0.270	0.360	0.450
2020/01/31 14:10:52.2	0.610	-0.290	0.330	0.440
2020/01/31 14:10:52.3	0.600	-0.310	0.300	0.420
2020/01/31 14:10:52.4	0.590	-0.330	0.270	0.400
2020/01/31 14:10:52.5	0.580	-0.330	0.230	0.380
2020/01/31 14:10:52.6	0.580	-0.340	0.190	0.360
2020/01/31 14:10:52.7	0.570	-0.340	0.150	0.340
2020/01/31 14:10:52.8	0.560	-0.340	0.110	0.310
2020/01/31 14:10:52.9	0.550	-0.330	0.080	0.290
2020/01/31 14:10:53.0	0.540	-0.320	0.040	0.270
2020/01/31 14:10:53.1	0.530	-0.300	0.000	0.250
2020/01/31 14:10:53.2	0.520	-0.290	-0.030	0.230
2020/01/31 14:10:53.3	0.510	-0.270	-0.060	0.210
2020/01/31 14:10:53.4	0.500	-0.240	-0.090	0.180
2020/01/31 14:10:53.5	0.490	-0.220	-0.120	0.160
2020/01/31 14:10:53.6	0.490	-0.200	-0.150	0.140
2020/01/31 14:10:53.7	0.480	-0.170	-0.170	0.120
2020/01/31 14:10:53.8	0.480	-0.150	-0.190	0.100
2020/01/31 14:10:53.9	0.480	-0.120	-0.200	0.070
2020/01/31 14:10:54.0	0.480	-0.090	-0.220	0.050
2020/01/31 14:10:54.1	0.480	-0.070	-0.230	0.030
2020/01/31 14:10:54.2	0.480	-0.040	-0.240	0.000
2020/01/31 14:10:54.3	0.490	-0.020	-0.250	-0.030
2020/01/31 14:10:54.4	0.500	0.010	-0.250	-0.050
2020/01/31 14:10:54.5	0.510	0.030	-0.250	-0.080
2020/01/31 14:10:54.6	0.530	0.050	-0.260	-0.110
2020/01/31 14:10:54.7	0.540	0.060	-0.260	-0.140
2020/01/31 14:10:54.8	0.560	0.080	-0.260	-0.170
2020/01/31 14:10:54.9	0.580	0.090	-0.260	-0.200
2020/01/31 14:10:55.0	0.600	0.100	-0.250	-0.230
2020/01/31 14:10:55.1	0.620	0.110	-0.250	-0.260
2020/01/31 14:10:55.2	0.640	0.110	-0.250	-0.280
2020/01/31 14:10:55.3	0.660	0.110	-0.240	-0.310
2020/01/31 14:10:55.4	0.680	0.110	-0.240	-0.340
2020/01/31 14:10:55.5	0.700	0.110	-0.230	-0.370
2020/01/31 14:10:55.6	0.720	0.100	-0.230	-0.390
2020/01/31 14:10:55.7	0.740	0.090	-0.220	-0.420
2020/01/31 14:10:55.8	0.760	0.080	-0.210	-0.440
2020/01/31 14:10:55.9	0.780	0.070	-0.200	-0.460
2020/01/31 14:10:56.0	0.800	0.050	-0.190	-0.480
2020/01/31 14:10:56.1	0.810	0.030	-0.180	-0.490
2020/01/31 14:10:56.2	0.820	0.010	-0.170	-0.500
2020/01/31 14:10:56.3	0.830	-0.020	-0.160	-0.510
2020/01/31 14:10:56.4	0.830	-0.050	-0.140	-0.510
2020/01/31 14:10:56.5	0.830	-0.070	-0.130	-0.510
2020/01/31 14:10:56.6	0.820	-0.110	-0.120	-0.510
2020/01/31 14:10:56.7	0.810	-0.140	-0.110	-0.500
2020/01/31 14:10:56.8	0.800	-0.170	-0.100	-0.490
2020/01/31 14:10:56.9	0.780	-0.200	-0.090	-0.490
2020/01/31 14:10:57.0	0.760	-0.240	-0.080	-0.480
2020/01/31 14:10:57.1	0.740	-0.270	-0.080	-0.470
2020/01/31 14:10:57.2	0.720	-0.310	-0.080	-0.470
2020/01/31 14:10:57.3	0.700	-0.340	-0.080	-0.460
2020/01/31 14:10:57.4	0.670	-0.370	-0.080	-0.460
2020/01/31 14:10:57.5	0.650	-0.410	-0.090	-0.460
2020/01/31 14:10:57.6	0.630	-0.430	-0.110	-0.460
2020/01/31 14:10:57.7	0.610	-0.460	-0.130	-0.460
2020/01/31 14:10:57.8	0.580	-0.480	-0.150	-0.470
2020/01/31 14:10:57.9	0.560	-0.510	-0.170	-0.470
2020/01/31 14:10:58.0	0.540	-0.520	-0.200	-0.480
2020/01/31 14:10:58.1	0.510	-0.540	-0.230	-0.500
2020/01/31 14:10:58.2	0.500	-0.550	-0.270	-0.510
2020/01/31 14:10:58.3	0.480	-0.550	-0.300	-0.530
2020/01/31 14:10:58.4	0.470	-0.550	-0.340	-0.550
2020/01/31 14:10:58.5	0.460	-0.540	-0.390	-0.570
2020/01/31 14:10:58.6	0.450	-0.530	-0.430	-0.590
2020/01/31 14:10:58.7	0.450	-0.520	-0.470	-0.620
2020/01/31 14:10:58.8	0.450	-0.500	-0.520	-0.640
2020/01/31 14:10:58.9	0.440	-0.470	-0.570	-0.670
2020/01/31 14:10:59.0	0.450	-0.440	-0.610	-0.690
2020/01/31 14:10:59.1	0.450	-0.410	-0.650	-0.710
2020/01/31 14:10:59.2	0.450	-0.370	-0.680	-0.730
2020/01/31 14:10:59.3	0.450	-0.330	-0.720	-0.750
2020/01/31 14:10:59.4	0.460	-0.290	-0.750	-0.770
2020/01/31 14:10:59.5	0.460	-0.240	-0.770	-0.780
2020/01/31 14:10:59.6	0.450	-0.190	-0.790	-0.790
2020/01/31 14:10:59.7	0.450	-0.140	-0.810	-0.800
2020/01/31 14:10:59.8	0.460	-0.090	-0.820	-0.800
2020/01/31 14:10:59.9	0.460	-0.040	-0.820	-0.800
2020/01/31 14:11:00.0	0.460	0.020	-0.820	-0.800
2020/01/31 14:11:00.1	0.460	0.070	-0.810	-0.790
2020/01/31 14:11:00.2	0.460	0.120	-0.800	-0.770
2020/01/31 14:11:00.3	0.460	0.180	-0.780	-0.760
2020/01/31 14:11:00.4	0.460	0.230	-0.760	-0.730
2020/01/31 14:11:00.5	0.460	0.280	-0.730	-0.710
2020/01/31 14:11:00.6	0.480	0.330	-0.700	-0.680
2020/01/31 14:11:00.7	0.470	0.370	-0.670	-0.650
2020/01/31 14:11:00.8	0.470	0.410	-0.630	-0.620
2020/01/31 14:11:00.9	0.460	0.450	-0.590	-0.580
2020/01/31 14:11:01.0	0.460	0.490	-0.550	-0.550
2020/01/31 14:11:01.1	0.450	0.520	-0.510	-0.510
2020/01/31 14:11:01.2	0.450	0.560	-0.460	-0.470
2020/01/31 14:11:01.3	0.440	0.580	-0.420	-0.430
2020/01/31 14:11:01.4	0.440	0.610	-0.370	-0.390
2020/01/31 14:11:01.5	0.430	0.630	-0.330	-0.350
2020/01/31 14:11:01.6	0.440	0.640	-0.290	-0.300
2020/01/31 14:11:01.7	0.430	0.650	-0.240	-0.260
2020/01/31 14:11:01.8	0.430	0.660	-0.200	-0.230
2020/01/31 14:11:01.9	0.430	0.670	-0.160	-0.190
2020/01/31 14:11:02.0	0.430	0.670	-0.120	-0.160
2020/01/31 14:11:02.1	0.440	0.670	-0.090	-0.130
2020/01/31 14:11:02.2	0.440	0.660	-0.050	-0.100
2020/01/31 14:11:02.3	0.440	0.650	-0.020	-0.070
2020/01/31 14:11:02.4	0.450	0.640	0.000	-0.050
2020/01/31 14:11:02.5	0.460	0.620	0.030	-0.020
2020/01/31 14:11:02.6	0.460	0.600	0.050	-0.000
2020/01/31 14:11:02.7	0.470	0.580	0.060	0.020
2020/01/31 14:11:02.8	0.480	0.560	0.070	0.030
2020/01/31 14:11:02.9	0.490	0.530	0.080	0.050
2020/01/31 14:11:03.0	0.500	0.500	0.090	0.070
2020/01/31 14:11:03.1	0.520	0.470	0.100	0.080
2020/01/31 14:11:03.2	0.530	0.430	0.100	0.100
2020/01/31 14:11:03.3	0.550	0.400	0.100	0.120
2020/01/31 14:11:03.4	0.560	0.360	0.100	0.130
2020/01/31 14:11:03.5	0.580	0.320	0.100	0.150
2020/01/31 14:11:03.6	0.570	0.280	0.090	0.160
2020/01/31 14:11:03.7	0.580	0.240	0.090	0.180
2020/01/31 14:11:03.8	0.590	0.200	0.080	0.200
2020/01/31 14:11:03.9	0.600	0.150	0.080	0.210
2020/01/31 14:11:04.0	0.610	0.110	0.080	0.230
2020/01/31 14:11:04.1	0.610	0.070	0.080	0.250
2020/01/31 14:11:04.2	0.610	0.020	0.080	0.270
2020/01/31 14:11:04.3	0.600	-0.020	0.080	0.290
2020/01/31 14:11:04.4	0.590	-0.060	0.080	0.320
2020/01/31 14:11:04.5	0.580	-0.100	0.090	0.340
2020/01/31 14:11:04.6	0.560	-0.150	0.100	0.370
2020/01/31 14:11:04.7	0.530	-0.180	0.110	0.390
2020/01/31 14:11:04.8	0.510	-0.220	0.120	0.420
2020/01/31 14:11:04.9	0.480	-0.260	0.130	0.450
2020/01/31 14:11:05.0	0.450	-0.290	0.140	0.480
2020/01/31 14:11:05.1	0.410	-0.320	0.160	0.510
2020/01/31 14:11:05.2	0.370	-0.350	0.170	0.540
2020/01/31 14:11:05.3	0.330	-0.380	0.190	0.570
2020/01/31 14:11:05.4	0.280	-0.400	0.210	0.600
2020/01/31 14:11:05.5	0.240	-0.420	0.220	0.630
2020/01/31 14:11:05.6	0.180	-0.440	0.240	0.670
2020/01/31 14:11:05.7	0.130	-0.450	0.250	0.700
2020/01/31 14:11:05.8	0.080	-0.460	0.260	0.720
2020/01/31 14:11:05.9	0.040	-0.470	0.270	0.750
2020/01/31 14:11:06.0	359.990	-0.470	0.280	0.770
2020/01/31 14:11:06.1	359.950	-0.460	0.280	0.790
2020/01/31 14:11:06.2	359.910	-0.460	0.270	0.810
2020/01/31 14:11:06.3	359.870	-0.450	0.260	0.820
2020/01/31 14:11:06.4	359.830	-0.430	0.250	0.830
2020/01/31 14:11:06.5	359.800	-0.420	0.230	0.840
2020/01/31 14:11:06.6	359.760	-0.400	0.200	0.830
2020/01/31 14:11:06.7	359.730	-0.370	0.170	0.830
2020/01/31 14:11:06.8	359.710	-0.340	0.130	0.820
2020/01/31 14:11:06.9	359.690	-0.310	0.090	0.800
2020/01/31 14:11:07.0	359.680	-0.280	0.040	0.780
2020/01/31 14:11:07.1	359.670	-0.240	-0.010	0.760
2020/01/31 14:11:07.2	359.670	-0.200	-0.070	0.730
2020/01/31 14:11:07.3	359.660	-0.160	-0.130	0.700
2020/01/31 14:11:07.4	359.670	-0.120	-0.190	0.660
2020/01/31 14:11:07.5	359.670	-0.080	-0.250	0.610
2020/01/31 14:11:07.6	359.670	-0.040	-0.320	0.560
2020/01/31 14:11:07.7	359.680	-0.000	-0.390	0.510
2020/01/31 14:11:07.8	359.700	0.040	-0.460	0.450
2020/01/31 14:11:07.9	359.720	0.070	-0.520	0.390
2020/01/31 14:11:08.0	359.750	0.110	-0.590	0.330
2020/01/31 14:11:08.1	359.770	0.140	-0.650	0.260
2020/01/31 14:11:08.2	359.800	0.180	-0.710	0.190
2020/01/31 14:11:08.3	359.840	0.210	-0.760	0.120
2020/01/31 14:11:08.4	359.870	0.230	-0.810	0.050
2020/01/31 14:11:08.5	359.900	0.250	-0.860	-0.020
2020/01/31 14:11:08.6	359.960	0.270	-0.900	-0.100
2020/01/31 14:11:08.7	359.990	0.290	-0.930	-0.170
2020/01/31 14:11:08.8	0.030	0.300	-0.960	-0.230
2020/01/31 14:11:08.9	0.070	0.300	-0.980	-0.300
2020/01/31 14:11:09.0	0.100	0.310	-0.990	-0.360
2020/01/31 14:11:09.1	0.140	0.300	-1.000	-0.430
2020/01/31 14:11:09.2	0.170	0.300	-1.000	-0.480
2020/01/31 14:11:09.3	0.210	0.280	-1.000	-0.540
2020/01/31 14:11:09.4	0.240	0.270	-0.980	-0.600
2020/01/31 14:11:09.5	0.270	0.250	-0.970	-0.650
2020/01/31 14:11:09.6	0.310	0.220	-0.950	-0.690
2020/01/31 14:11:09.7	0.340	0.200	-0.920	-0.740
2020/01/31 14:11:09.8	0.360	0.160	-0.890	-0.780
2020/01/31 14:11:09.9	0.380	0.130	-0.850	-0.820
2020/01/31 14:11:10.0	0.400	0.090	-0.810	-0.860
2020/01/31 14:11:10.1	0.420	0.050	-0.770	-0.900
2020/01/31 14:11:10.2	0.430	0.010	-0.730	-0.940
2020/01/31 14:11:10.3	0.450	-0.030	-0.680	-0.970
2020/01/31 14:11:10.4	0.460	-0.080	-0.640	-1.010
2020/01/31 14:11:10.5	0.470	-0.120	-0.590	-1.040
2020/01/31 14:11:10.6	0.500	-0.170	-0.550	-1.080
2020/01/31 14:11:10.7	0.510	-0.210	-0.510	-1.110
2020/01/31 14:11:10.8	0.510	-0.250	-0.470	-1.140
2020/01/31 14:11:10.9	0.520	-0.300	-0.430	-1.170
2020/01/31 14:11:11.0	0.520	-0.340	-0.390	-1.200
2020/01/31 14:11:11.1	0.520	-0.370	-0.350	-1.230
2020/01/31 14:11:11.2	0.520	-0.410	-0.320	-1.260
2020/01/31 14:11:11.3	0.520	-0.440	-0.290	-1.280
2020/01/31 14:11:11.4	0.520	-0.460	-0.270	-1.310
2020/01/31 14:11:11.5	0.510	-0.490	-0.250	-1.330
2020/01/31 14:11:11.6	0.520	-0.500	-0.220	-1.350
2020/01/31 14:11:11.7	0.520	-0.520	-0.210	-1.370
2020/01/31 14:11:11.8	0.520	-0.520	-0.190	-1.380
2020/01/31 14:11:11.9	0.510	-0.530	-0.180	-1.390
2020/01/31 14:11:12.0	0.510	-0.530	-0.170	-1.400
2020/01/31 14:11:12.1	0.500	-0.520	-0.160	-1.400
2020/01/31 14:11:12.2	0.490	-0.510	-0.160	-1.400
2020/01/31 14:11:12.3	0.490	-0.490	-0.150	-1.400
2020/01/31 14:11:12.4	0.480	-0.470	-0.150	-1.390
2020/01/31 14:11:12.5	0.470	-0.440	-0.140	-1.380
2020/01/31 14:11:12.6	0.470	-0.410	-0.140	-1.370
2020/01/31 14:11:12.7	0.460	-0.380	-0.140	-1.350
2020/01/31 14:11:12.8	0.450	-0.340	-0.140	-1.320
2020/01/31 14:11:12.9	0.440	-0.300	-0.130	-1.290
2020/01/31 14:11:13.0	0.430	-0.260	-0.130	-1.260
2020/01/31 14:11:13.1	0.410	-0.210	-0.120	-1.220
2020/01/31 14:11:13.2	0.400	-0.160	-0.120	-1.180
2020/01/31 14:11:13.3	0.380	-0.120	-0.110	-1.130
2020/01/31 14:11:13.4	0.360	-0.070	-0.100	-1.080
2020/01/31 14:11:13.5	0.340	-0.020	-0.090	-1.030
2020/01/31 14:11:13.6	0.320	0.030	-0.070	-0.960
2020/01/31 14:11:13.7	0.290	0.080	-0.060	-0.900
2020/01/31 14:11:13.8	0.270	0.130	-0.050	-0.830
2020/01/31 14:11:13.9	0.240	0.180	-0.030	-0.760
2020/01/31 14:11:14.0	0.220	0.220	-0.010	-0.690
2020/01/31 14:11:14.1	0.190	0.270	0.010	-0.620
2020/01/31 14:11:14.2	0.170	0.310	0.030	-0.540
2020/01/31 14:11:14.3	0.150	0.350	0.050	-0.470
2020/01/31 14:11:14.4	0.120	0.380	0.070	-0.390
2020/01/31 14:11:14.5	0.100	0.420	0.090	-0.310
2020/01/31 14:11:14.6	0.060	0.450	0.110	-0.240
2020/01/31 14:11:14.7	0.040	0.470	0.130	-0.160
2020/01/31 14:11:14.8	0.030	0.490	0.140	-0.090
2020/01/31 14:11:14.9	0.010	0.510	0.160	-0.020
2020/01/31 14:11:15.0	0.000	0.530	0.180	0.050
2020/01/31 14:11:15.1	359.990	0.540	0.190	0.120
2020/01/31 14:11:15.2	359.970	0.550	0.200	0.180
2020/01/31 14:11:15.3	359.970	0.550	0.210	0.250
2020/01/31 14:11:15.4	359.960	0.560	0.220	0.310
2020/01/31 14:11:15.5	359.950	0.550	0.220	0.370
2020/01/31 14:11:15.6	359.920	0.550	0.230	0.430
2020/01/31 14:11:15.7	359.910	0.540	0.230	0.480
2020/01/31 14:11:15.8	359.910	0.530	0.230	0.540
2020/01/31 14:11:15.9	359.900	0.510	0.230	0.590
2020/01/31 14:11:16.0	359.900	0.490	0.220	0.640
2020/01/31 14:11:16.1	359.900	0.470	0.220	0.690
2020/01/31 14:11:16.2	359.890	0.450	0.210	0.730
2020/01/31 14:11:16.3	359.880	0.420	0.200	0.780
2020/01/31 14:11:16.4	359.880	0.390	0.200	0.820
2020/01/31 14:11:16.5	359.870	0.360	0.190	0.850
2020/01/31 14:11:16.6	359.850	0.320	0.170	0.880
2020/01/31 14:11:16.7	359.840	0.290	0.160	0.910
2020/01/31 14:11:16.8	359.830	0.250	0.150	0.940
2020/01/31 14:11:16.9	359.820	0.210	0.140	0.970
2020/01/31 14:11:17.0	359.810	0.170	0.120	0.990
2020/01/31 14:11:17.1	359.800	0.120	0.110	1.000
2020/01/31 14:11:17.2	359.790	0.080	0.090	1.020
2020/01/31 14:11:17.3	359.770	0.040	0.080	1.030
2020/01/31 14:11:17.4	359.760	-0.010	0.060	1.040
2020/01/31 14:11:17.5	359.740	-0.050	0.050	1.040
2020/01/31 14:11:17.6	359.720	-0.090	0.030	1.050
2020/01/31 14:11:17.7	359.710	-0.130	0.020	1.050
2020/01/31 14:11:17.8	359.690	-0.180	-0.000	1.050
2020/01/31 14:11:17.9	359.680	-0.210	-0.020	1.040
2020/01/31 14:11:18.0	359.670	-0.250	-0.040	1.030
2020/01/31 14:11:18.1	359.660	-0.280	-0.060	1.020
2020/01/31 14:11:18.2	359.650	-0.310	-0.080	1.000
2020/01/31 14:11:18.3	359.640	-0.340	-0.110	0.980
2020/01/31 14:11:18.4	359.640	-0.370	-0.130	0.950
2020/01/31 14:11:18.5	359.640	-0.390	-0.160	0.920
2020/01/31 14:11:18.6	359.650	-0.400	-0.200	0.880
2020/01/31 14:11:18.7	359.660	-0.410	-0.230	0.840
2020/01/31 14:11:18.8	359.670	-0.420	-0.270	0.800
2020/01/31 14:11:18.9	359.690	-0.420	-0.310	0.750
2020/01/31 14:11:19.0	359.700	-0.420	-0.350	0.700
2020/01/31 14:11:19.1	359.720	-0.410	-0.390	0.650
2020/01/31 14:11:19.2	359.750	-0.400	-0.440	0.590
2020/01/31 14:11:19.3	359.770	-0.390	-0.480	0.530
2020/01/31 14:11:19.4	359.800	-0.370	-0.530	0.470
2020/01/31 14:11:19.5	359.830	-0.340	-0.580	0.410
2020/01/31 14:11:19.6	359.870	-0.310	-0.630	0.350
2020/01/31 14:11:19.7	359.900	-0.280	-0.680	0.290
2020/01/31 14:11:19.8	359.930	-0.240	-0.730	0.230
2020/01/31 14:11:19.9	359.960	-0.200	-0.780	0.170
2020/01/31 14:11:20.0	359.990	-0.150	-0.820	0.120
2020/01/31 14:11:20.1	0.020	-0.110	-0.870	0.060
2020/01/31 14:11:20.2	0.050	-0.060	-0.910	0.000
2020/01/31 14:11:20.3	0.080	-0.010	-0.950	-0.050
2020/01/31 14:11:20.4	0.110	0.040	-0.990	-0.100
2020/01/31 14:11:20.5	0.140	0.090	-1.030	-0.150
2020/01/31 14:11:20.6	0.180	0.140	-1.060	-0.210
2020/01/31 14:11:20.7	0.210	0.190	-1.090	-0.260
2020/01/31 14:11:20.8	0.240	0.240	-1.120	-0.310
2020/01/31 14:11:20.9	0.270	0.290	-1.140	-0.360
2020/01/31 14:11:21.0	0.300	0.330	-1.160	-0.400
2020/01/31 14:11:21.1	0.330	0.370	-1.170	-0.450
2020/01/31 14:11:21.2	0.360	0.410	-1.180	-0.500
2020/01/31 14:11:21.3	0.380	0.440	-1.190	-0.550
2020/01/31 14:11:21.4	0.410	0.470	-1.190	-0.590
2020/01/31 14:11:21.5	0.430	0.490	-1.190	-0.630
2020/01/31 14:11:21.6	0.460	0.510	-1.180	-0.670
2020/01/31 14:11:21.7	0.480	0.520	-1.170	-0.700
2020/01/31 14:11:21.8	0.500	0.530	-1.150	-0.740
2020/01/31 14:11:21.9	0.510	0.540	-1.120	-0.770
2020/01/31 14:11:22.0	0.530	0.530	-1.100	-0.790
2020/01/31 14:11:22.1	0.540	0.520	-1.060	-0.820
2020/01/31 14:11:22.2	0.550	0.510	-1.020	-0.840
2020/01/31 14:11:22.3	0.550	0.490	-0.980	-0.860
2020/01/31 14:11:22.4	0.560	0.460	-0.930	-0.870
2020/01/31 14:11:22.5	0.560	0.430	-0.870	-0.890
2020/01/31 14:11:22.6	0.550	0.400	-0.810	-0.900
2020/01/31 14:11:22.7	0.550	0.360	-0.740	-0.900
2020/01/31 14:11:22.8	0.550	0.310	-0.680	-0.910
2020/01/31 14:11:22.9	0.540	0.260	-0.600	-0.910
2020/01/31 14:11:23.0	0.540	0.210	-0.530	-0.910
2020/01/31 14:11:23.1	0.530	0.160	-0.450	-0.900
2020/01/31 14:11:23.2	0.520	0.100	-0.370	-0.900
2020/01/31 14:11:23.3	0.500	0.040	-0.290	-0.890
2020/01/31 14:11:23.4	0.490	-0.020	-0.200	-0.880
2020/01/31 14:11:23.5	0.470	-0.090	-0.120	-0.870
2020/01/31 14:11:23.6	0.470	-0.150	-0.040	-0.860
2020/01/31 14:11:23.7	0.450	-0.220	0.050	-0.850
2020/01/31 14:11:23.8	0.430	-0.280	0.140	-0.830
2020/01/31 14:11:23.9	0.400	-0.340	0.220	-0.820
2020/01/31 14:11:24.0	0.380	-0.400	0.300	-0.800
2020/01/31 14:11:24.1	0.350	-0.460	0.390	-0.790
2020/01/31 14:11:24.2	0.320	-0.510	0.460	-0.770
2020/01/31 14:11:24.3	0.290	-0.570	0.540	-0.760
2020/01/31 14:11:24.4	0.260	-0.610	0.610	-0.740
2020/01/31 14:11:24.5	0.240	-0.660	0.680	-0.730
2020/01/31 14:11:24.6	0.220	-0.700	0.740	-0.710
2020/01/31 14:11:24.7	0.190	-0.730	0.800	-0.700
2020/01/31 14:11:24.8	0.160	-0.760	0.850	-0.690
2020/01/31 14:11:24.9	0.130	-0.780	0.890	-0.680
2020/01/31 14:11:25.0	0.110	-0.800	0.930	-0.660
2020/01/31 14:11:25.1	0.080	-0.810	0.960	-0.650
2020/01/31 14:11:25.2	0.060	-0.820	0.980	-0.640
2020/01/31 14:11:25.3	0.030	-0.810	0.990	-0.630
2020/01/31 14:11:25.4	0.010	-0.810	1.000	-0.630
2020/01/31 14:11:25.5	359.990	-0.790	1.000	-0.620
2020/01/31 14:11:25.6	359.970	-0.770	0.990	-0.610
2020/01/31 14:11:25.7	359.950	-0.750	0.970	-0.600
2020/01/31 14:11:25.8	359.940	-0.710	0.950	-0.590
2020/01/31 14:11:25.9	359.920	-0.680	0.910	-0.580
2020/01/31 14:11:26.0	359.910	-0.640	0.880	-0.570
2020/01/31 14:11:26.1	359.890	-0.590	0.830	-0.560
2020/01/31 14:11:26.2	359.880	-0.540	0.780	-0.540
2020/01/31 14:11:26.3	359.870	-0.480	0.720	-0.530
2020/01/31 14:11:26.4	359.850	-0.430	0.660	-0.510
2020/01/31 14:11:26.5	359.840	-0.370	0.590	-0.490
2020/01/31 14:11:26.6	359.830	-0.310	0.520	-0.470
2020/01/31 14:11:26.7	359.820	-0.240	0.450	-0.450
2020/01/31 14:11:26.8	359.810	-0.180	0.370	-0.420
2020/01/31 14:11:26.9	359.790	-0.110	0.290	-0.400
2020/01/31 14:11:27.0	359.780	-0.050	0.210	-0.370
2020/01/31 14:11:27.1	359.770	0.010	0.130	-0.340
2020/01/31 14:11:27.2	359.760	0.070	0.050	-0.310
2020/01/31 14:11:27.3	359.750	0.130	-0.030	-0.270
2020/01/31 14:11:27.4	359.730	0.190	-0.110	-0.240
2020/01/31 14:11:27.5	359.720	0.240	-0.190	-0.200
2020/01/31 14:11:27.6	359.700	0.290	-0.270	-0.160
2020/01/31 14:11:27.7	359.680	0.340	-0.340	-0.120
2020/01/31 14:11:27.8	359.670	0.380	-0.410	-0.080
2020/01/31 14:11:27.9	359.650	0.420	-0.470	-0.040
2020/01/31 14:11:28.0	359.630	0.450	-0.530	0.000
2020/01/31 14:11:28.1	359.620	0.480	-0.590	0.050
2020/01/31 14:11:28.2	359.600	0.500	-0.640	0.090
2020/01/31 14:11:28.3	359.580	0.510	-0.690	0.140
2020/01/31 14:11:28.4	359.570	0.530	-0.730	0.180
2020/01/31 14:11:28.5	359.550	0.530	-0.770	0.230
2020/01/31 14:11:28.6	359.530	0.540	-0.800	0.270
2020/01/31 14:11:28.7	359.510	0.540	-0.830	0.310
2020/01/31 14:11:28.8	359.500	0.530	-0.850	0.350
2020/01/31 14:11:28.9	359.490	0.520	-0.870	0.390
2020/01/31 14:11:29.0	359.470	0.510	-0.890	0.420
2020/01/31 14:11:29.1	359.460	0.490	-0.900	0.450
2020/01/31 14:11:29.2	359.460	0.470	-0.910	0.480
2020/01/31 14:11:29.3	359.450	0.450	-0.910	0.510
2020/01/31 14:11:29.4	359.440	0.430	-0.910	0.530
2020/01/31 14:11:29.5	359.440	0.410	-0.900	0.550
2020/01/31 14:11:29.6	359.430	0.380	-0.890	0.570
2020/01/31 14:11:29.7	359.430	0.360	-0.880	0.590
2020/01/31 14:11:29.8	359.440	0.330	-0.860	0.600
2020/01/31 14:11:29.9	359.440	0.310	-0.840	0.600
2020/01/31 14:11:30.0	359.450	0.290	-0.820	0.610
2020/01/31 14:11:30.1	359.460	0.270	-0.800	0.610
2020/01/31 14:11:30.2	359.480	0.250	-0.770	0.610
2020/01/31 14:11:30.3	359.490	0.230	-0.750	0.610
2020/01/31 14:11:30.4	359.500	0.220	-0.720	0.610
2020/01/31 14:11:30.5	359.520	0.210	-0.690	0.600
2020/01/31 14:11:30.6	359.530	0.200	-0.660	0.590
2020/01/31 14:11:30.7	359.540	0.190	-0.630	0.590
2020/01/31 14:11:30.8	359.560	0.190	-0.600	0.580
2020/01/31 14:11:30.9	359.580	0.180	-0.560	0.570
2020/01/31 14:11:31.0	359.600	0.180	-0.530	0.560
2020/01/31 14:11:31.1	359.610	0.180	-0.500	0.550
2020/01/31 14:11:31.2	359.630	0.180	-0.460	0.540
2020/01/31 14:11:31.3	359.650	0.180	-0.430	0.530
2020/01/31 14:11:31.4	359.660	0.180	-0.400	0.520
2020/01/31 14:11:31.5	359.670	0.190	-0.360	0.510
2020/01/31 14:11:31.6	359.660	0.190	-0.330	0.500
2020/01/31 14:11:31.7	359.680	0.190	-0.300	0.480
2020/01/31 14:11:31.8	359.690	0.190	-0.280	0.470
2020/01/31 14:11:31.9	359.700	0.180	-0.250	0.450
2020/01/31 14:11:32.0	359.710	0.180	-0.220	0.430
2020/01/31 14:11:32.1	359.720	0.180	-0.200	0.410
2020/01/31 14:11:32.2	359.720	0.170	-0.180	0.390
2020/01/31 14:11:32.3	359.730	0.160	-0.160	0.370
2020/01/31 14:11:32.4	359.740	0.150	-0.150	0.350
2020/01/31 14:11:32.5	359.740	0.140	-0.130	0.320
2020/01/31 14:11:32.6	359.750	0.120	-0.120	0.300
2020/01/31 14:11:32.7	359.750	0.110	-0.120	0.270
2020/01/31 14:11:32.8	359.750	0.090	-0.110	0.240
2020/01/31 14:11:32.9	359.750	0.070	-0.110	0.210
2020/01/31 14:11:33.0	359.760	0.040	-0.110	0.180
2020/01/31 14:11:33.1	359.760	0.020	-0.110	0.140
2020/01/31 14:11:33.2	359.760	-0.010	-0.120	0.110
2020/01/31 14:11:33.3	359.760	-0.040	-0.130	0.070
2020/01/31 14:11:33.4	359.760	-0.070	-0.140	0.030
2020/01/31 14:11:33.5	359.770	-0.100	-0.150	-0.020
2020/01/31 14:11:33.6	359.750	-0.130	-0.170	-0.060
2020/01/31 14:11:33.7	359.760	-0.160	-0.180	-0.110
2020/01/31 14:11:33.8	359.760	-0.190	-0.200	-0.160
2020/01/31 14:11:33.9	359.770	-0.220	-0.230	-0.210
2020/01/31 14:11:34.0	359.770	-0.250	-0.250	-0.260
2020/01/31 14:11:34.1	359.780	-0.280	-0.280	-0.320
2020/01/31 14:11:34.2	359.790	-0.300	-0.300	-0.370
2020/01/31 14:11:34.3	359.800	-0.330	-0.330	-0.430
2020/01/31 14:11:34.4	359.820	-0.350	-0.360	-0.490
2020/01/31 14:11:34.5	359.830	-0.370	-0.380	-0.550
2020/01/31 14:11:34.6	359.860	-0.390	-0.410	-0.620
2020/01/31 14:11:34.7	359.880	-0.410	-0.440	-0.680
2020/01/31 14:11:34.8	359.890	-0.430	-0.470	-0.750
2020/01/31 14:11:34.9	359.910	-0.440	-0.490	-0.810
2020/01/31 14:11:35.0	359.930	-0.450	-0.510	-0.880
2020/01/31 14:11:35.1	359.950	-0.460	-0.530	-0.940
2020/01/31 14:11:35.2	359.970	-0.460	-0.550	-1.010
2020/01/31 14:11:35.3	359.980	-0.460	-0.560	-1.070
2020/01/31 14:11:35.4	0.000	-0.460	-0.570	-1.120
2020/01/31 14:11:35.5	0.010	-0.460	-0.570	-1.180
2020/01/31 14:11:35.6	0.040	-0.460	-0.570	-1.230
2020/01/31 14:11:35.7	0.050	-0.450	-0.570	-1.270
2020/01/31 14:11:35.8	0.060	-0.450	-0.560	-1.320
2020/01/31 14:11:35.9	0.070	-0.440	-0.550	-1.360
2020/01/31 14:11:36.0	0.070	-0.430	-0.530	-1.390
2020/01/31 14:11:36.1	0.070	-0.420	-0.510	-1.420
2020/01/31 14:11:36.2	0.070	-0.400	-0.490	-1.440
2020/01/31 14:11:36.3	0.070	-0.390	-0.460	-1.460
2020/01/31 14:11:36.4	0.070	-0.370	-0.420	-1.470
2020/01/31 14:11:36.5	0.060	-0.360	-0.380	-1.480
2020/01/31 14:11:36.6	0.060	-0.340	-0.350	-1.480
2020/01/31 14:11:36.7	0.050	-0.320	-0.300	-1.480
2020/01/31 14:11:36.8	0.040	-0.310	-0.260	-1.470
2020/01/31 14:11:36.9	0.030	-0.290	-0.210	-1.450
2020/01/31 14:11:37.0	0.020	-0.270	-0.160	-1.430
2020/01/31 14:11:37.1	0.000	-0.250	-0.110	-1.410
2020/01/31 14:11:37.2	359.990	-0.230	-0.060	-1.380
2020/01/31 14:11:37.3	359.970	-0.210	-0.010	-1.350
2020/01/31 14:11:37.4	359.950	-0.190	0.040	-1.320
2020/01/31 14:11:37.5	359.940	-0.170	0.090	-1.280
2020/01/31 14:11:37.6	359.930	-0.150	0.140	-1.230
2020/01/31 14:11:37.7	359.910	-0.130	0.180	-1.190
2020/01/31 14:11:37.8	359.890	-0.110	0.230	-1.140
2020/01/31 14:11:37.9	359.870	-0.090	0.270	-1.090
2020/01/31 14:11:38.0	359.850	-0.070	0.310	-1.040
2020/01/31 14:11:38.1	359.830	-0.050	0.340	-0.980
2020/01/31 14:11:38.2	359.810	-0.020	0.370	-0.920
2020/01/31 14:11:38.3	359.790	0.000	0.400	-0.860
2020/01/31 14:11:38.4	359.760	0.020	0.430	-0.800
2020/01/31 14:11:38.5	359.740	0.050	0.450	-0.730
2020/01/31 14:11:38.6	359.710	0.070	0.470	-0.660
2020/01/31 14:11:38.7	359.690	0.100	0.480	-0.590
2020/01/31 14:11:38.8	359.660	0.130	0.490	-0.520
2020/01/31 14:11:38.9	359.640	0.160	0.490	-0.440
2020/01/31 14:11:39.0	359.620	0.180	0.490	-0.370
2020/01/31 14:11:39.1	359.600	0.210	0.480	-0.290
2020/01/31 14:11:39.2	359.580	0.240	0.470	-0.210
2020/01/31 14:11:39.3	359.560	0.270	0.460	-0.140
2020/01/31 14:11:39.4	359.540	0.300	0.430	-0.060
2020/01/31 14:11:39.5	359.530	0.330	0.410	0.010
2020/01/31 14:11:39.6	359.510	0.360	0.380	0.090
2020/01/31 14:11:39.7	359.510	0.390	0.340	0.160
2020/01/31 14:11:39.8	359.500	0.420	0.300	0.230
2020/01/31 14:11:39.9	359.490	0.450	0.260	0.290
2020/01/31 14:11:40.0	359.490	0.480	0.210	0.360
2020/01/31 14:11:40.1	359.490	0.510	0.160	0.420
2020/01/31 14:11:40.2	359.490	0.540	0.110	0.480
2020/01/31 14:11:40.3	359.490	0.560	0.060	0.540
2020/01/31 14:11:40.4	359.500	0.580	0.010	0.600
2020/01/31 14:11:40.5	359.500	0.610	-0.050	0.650
2020/01/31 14:11:40.6	359.500	0.620	-0.100	0.700
2020/01/31 14:11:40.7	359.500	0.640	-0.160	0.750
2020/01/31 14:11:40.8	359.510	0.650	-0.210	0.790
2020/01/31 14:11:40.9	359.520	0.660	-0.260	0.830
2020/01/31 14:11:41.0	359.520	0.670	-0.310	0.870
2020/01/31 14:11:41.1	359.530	0.670	-0.360	0.900
2020/01/31 14:11:41.2	359.530	0.670	-0.400	0.930
2020/01/31 14:11:41.3	359.530	0.670	-0.440	0.960
2020/01/31 14:11:41.4	359.540	0.660	-0.480	0.990
2020/01/31 14:11:41.5	359.540	0.640	-0.510	1.010
2020/01/31 14:11:41.6	359.530	0.630	-0.550	1.020
2020/01/31 14:11:41.7	359.530	0.600	-0.570	1.040
2020/01/31 14:11:41.8	359.520	0.580	-0.590	1.050
2020/01/31 14:11:41.9	359.520	0.550	-0.610	1.050
2020/01/31 14:11:42.0	359.520	0.520	-0.620	1.060
2020/01/31 14:11:42.1	359.510	0.480	-0.630	1.060
2020/01/31 14:11:42.2	359.510	0.440	-0.640	1.050
2020/01/31 14:11:42.3	359.500	0.390	-0.640	1.040
2020/01/31 14:11:42.4	359.500	0.350	-0.640	1.030
2020/01/31 14:11:42.5	359.490	0.300	-0.640	1.020
2020/01/31 14:11:42.6	359.490	0.240	-0.630	1.000
2020/01/31 14:11:42.7	359.480	0.190	-0.620	0.970
2020/01/31 14:11:42.8	359.480	0.130	-0.620	0.940
2020/01/31 14:11:42.9	359.470	0.070	-0.610	0.910
2020/01/31 14:11:43.0	359.470	0.010	-0.600	0.870
2020/01/31 14:11:43.1	359.470	-0.050	-0.590	0.820
2020/01/31 14:11:43.2	359.470	-0.100	-0.580	0.770
2020/01/31 14:11:43.3	359.470	-0.160	-0.580	0.720
2020/01/31 14:11:43.4	359.480	-0.220	-0.570	0.660
2020/01/31 14:11:43.5	359.480	-0.280	-0.570	0.590
2020/01/31 14:11:43.6	359.510	-0.340	-0.560	0.520
2020/01/31 14:11:43.7	359.520	-0.390	-0.560	0.450
2020/01/31 14:11:43.8	359.540	-0.440	-0.570	0.360
2020/01/31 14:11:43.9	359.550	-0.490	-0.570	0.280
2020/01/31 14:11:44.0	359.570	-0.530	-0.580	0.190
2020/01/31 14:11:44.1	359.600	-0.570	-0.580	0.100
2020/01/31 14:11:44.2	359.620	-0.610	-0.590	0.010
2020/01/31 14:11:44.3	359.650	-0.640	-0.610	-0.090
2020/01/31 14:11:44.4	359.670	-0.670	-0.620	-0.190
2020/01/31 14:11:44.5	359.700	-0.700	-0.630	-0.280
2020/01/31 14:11:44.6	359.730	-0.720	-0.650	-0.390
2020/01/31 14:11:44.7	359.760	-0.730	-0.670	-0.480
2020/01/31 14:11:44.8	359.790	-0.740	-0.680	-0.580
2020/01/31 14:11:44.9	359.830	-0.740	-0.700	-0.680
2020/01/31 14:11:45.0	359.860	-0.740	-0.710	-0.770
2020/01/31 14:11:45.1	359.890	-0.740	-0.720	-0.860
2020/01/31 14:11:45.2	359.920	-0.730	-0.730	-0.950
2020/01/31 14:11:45.3	359.950	-0.710	-0.740	-1.030
2020/01/31 14:11:45.4	359.980	-0.690	-0.750	-1.110
2020/01/31 14:11:45.5	0.010	-0.670	-0.750	-1.180
2020/01/31 14:11:45.6	0.040	-0.640	-0.750	-1.250
2020/01/31 14:11:45.7	0.070	-0.610	-0.750	-1.320
2020/01/31 14:11:45.8	0.090	-0.580	-0.740	-1.370
2020/01/31 14:11:45.9	0.110	-0.540	-0.730	-1.430
2020/01/31 14:11:46.0	0.130	-0.500	-0.710	-1.480
2020/01/31 14:11:46.1	0.140	-0.460	-0.690	-1.520
2020/01/31 14:11:46.2	0.160	-0.410	-0.670	-1.560
2020/01/31 14:11:46.3	0.170	-0.370	-0.650	-1.590
2020/01/31 14:11:46.4	0.190	-0.320	-0.620	-1.610
2020/01/31 14:11:46.5	0.200	-0.280	-0.580	-1.630
2020/01/31 14:11:46.6	0.190	-0.230	-0.550	-1.650
2020/01/31 14:11:46.7	0.200	-0.180	-0.510	-1.660
2020/01/31 14:11:46.8	0.210	-0.130	-0.470	-1.660
2020/01/31 14:11:46.9	0.220	-0.090	-0.430	-1.660
2020/01/31 14:11:47.0	0.220	-0.040	-0.380	-1.660
2020/01/31 14:11:47.1	0.230	0.000	-0.340	-1.650
2020/01/31 14:11:47.2	0.240	0.040	-0.290	-1.640
2020/01/31 14:11:47.3	0.240	0.080	-0.240	-1.620
2020/01/31 14:11:47.4	0.250	0.120	-0.190	-1.600
2020/01/31 14:11:47.5	0.250	0.150	-0.150	-1.570
2020/01/31 14:11:47.6	0.270	0.180	-0.100	-1.540
2020/01/31 14:11:47.7	0.270	0.210	-0.050	-1.510
2020/01/31 14:11:47.8	0.280	0.240	-0.000	-1.480
2020/01/31 14:11:47.9	0.280	0.260	0.040	-1.440
2020/01/31 14:11:48.0	0.290	0.280	0.090	-1.390
2020/01/31 14:11:48.1	0.290	0.300	0.130	-1.350
2020/01/31 14:11:48.2	0.300	0.310	0.170	-1.300
2020/01/31 14:11:48.3	0.300	0.320	0.210	-1.250
2020/01/31 14:11:48.4	0.300	0.330	0.240	-1.190
2020/01/31 14:11:48.5	0.310	0.330	0.280	-1.130
2020/01/31 14:11:48.6	0.310	0.330	0.310	-1.070
2020/01/31 14:11:48.7	0.310	0.330	0.340	-1.000
2020/01/31 14:11:48.8	0.310	0.320	0.370	-0.940
2020/01/31 14:11:48.9	0.310	0.310	0.390	-0.870
2020/01/31 14:11:49.0	0.300	0.300	0.420	-0.800
2020/01/31 14:11:49.1	0.300	0.280	0.440	-0.720
2020/01/31 14:11:49.2	0.290	0.260	0.460	-0.650
2020/01/31 14:11:49.3	0.290	0.240	0.480	-0.570
2020/01/31 14:11:49.4	0.280	0.220	0.490	-0.500
2020/01/31 14:11:49.5	0.260	0.190	0.510	-0.420
2020/01/31 14:11:49.6	0.230	0.160	0.520	-0.340
2020/01/31 14:11:49.7	0.210	0.130	0.530	-0.260
2020/01/31 14:11:49.8	0.190	0.100	0.540	-0.180
2020/01/31 14:11:49.9	0.170	0.070	0.550	-0.110
2020/01/31 14:11:50.0	0.140	0.040	0.560	-0.030
2020/01/31 14:11:50.1	0.110	0.000	0.570	0.050
2020/01/31 14:11:50.2	0.080	-0.030	0.570	0.120
2020/01/31 14:11:50.3	0.050	-0.060	0.570	0.200
2020/01/31 14:11:50.4	0.020	-0.100	0.570	0.270
2020/01/31 14:11:50.5	359.980	-0.130	0.570	0.340
2020/01/31 14:11:50.6	359.940	-0.160	0.570	0.410
2020/01/31 14:11:50.7	359.900	-0.180	0.560	0.480
2020/01/31 14:11:50.8	359.860	-0.210	0.550	0.550
2020/01/31 14:11:50.9	359.820	-0.230	0.540	0.620
2020/01/31 14:11:51.0	359.780	-0.260	0.520	0.680
2020/01/31 14:11:51.1	359.740	-0.270	0.490	0.740
2020/01/31 14:11:51.2	359.700	-0.290	0.470	0.800
2020/01/31 14:11:51.3	359.660	-0.300	0.430	0.850
2020/01/31 14:11:51.4	359.620	-0.300	0.390	0.900
2020/01/31 14:11:51.5	359.590	-0.310	0.350	0.940
2020/01/31 14:11:51.6	359.560	-0.310	0.290	0.980
2020/01/31 14:11:51.7	359.530	-0.300	0.240	1.010
2020/01/31 14:11:51.8	359.510	-0.290	0.170	1.030
2020/01/31 14:11:51.9	359.490	-0.280	0.100	1.050
2020/01/31 14:11:52.0	359.470	-0.260	0.030	1.060
2020/01/31 14:11:52.1	359.460	-0.240	-0.050	1.070
2020/01/31 14:11:52.2	359.450	-0.210	-0.140	1.060
2020/01/31 14:11:52.3	359.450	-0.180	-0.230	1.050
2020/01/31 14:11:52.4	359.440	-0.150	-0.320	1.040
2020/01/31 14:11:52.5	359.450	-0.110	-0.410	1.020
2020/01/31 14:11:52.6	359.440	-0.070	-0.510	0.990
2020/01/31 14:11:52.7	359.450	-0.030	-0.610	0.950
2020/01/31 14:11:52.8	359.450	0.010	-0.700	0.910
2020/01/31 14:11:52.9	359.470	0.050	-0.800	0.870
2020/01/31 14:11:53.0	359.480	0.100	-0.890	0.820
2020/01/31 14:11:53.1	359.500	0.140	-0.980	0.760
2020/01/31 14:11:53.2	359.520	0.180	-1.070	0.710
2020/01/31 14:11:53.3	359.540	0.230	-1.150	0.640
2020/01/31 14:11:53.4	359.560	0.270	-1.230	0.580
2020/01/31 14:11:53.5	359.580	0.310	-1.300	0.510
2020/01/31 14:11:53.6	359.600	0.340	-1.370	0.440
2020/01/31 14:11:53.7	359.620	0.380	-1.420	0.370
2020/01/31 14:11:53.8	359.650	0.410	-1.470	0.300
2020/01/31 14:11:53.9	359.680	0.440	-1.510	0.230
2020/01/31 14:11:54.0	359.700	0.460	-1.540	0.160
2020/01/31 14:11:54.1	359.730	0.480	-1.570	0.090
2020/01/31 14:11:54.2	359.760	0.500	-1.580	0.030
2020/01/31 14:11:54.3	359.790	0.510	-1.580	-0.040
2020/01/31 14:11:54.4	359.820	0.520	-1.580	-0.110
2020/01/31 14:11:54.5	359.850	0.520	-1.560	-0.170
2020/01/31 14:11:54.6	359.880	0.520	-1.540	-0.230
2020/01/31 14:11:54.7	359.910	0.520	-1.510	-0.290
2020/01/31 14:11:54.8	359.940	0.510	-1.470	-0.340
2020/01/31 14:11:54.9	359.960	0.500	-1.420	-0.390
2020/01/31 14:11:55.0	359.990	0.480	-1.370	-0.440
2020/01/31 14:11:55.1	0.010	0.460	-1.310	-0.490
2020/01/31 14:11:55.2	0.030	0.440	-1.240	-0.530
2020/01/31 14:11:55.3	0.050	0.410	-1.160	-0.570
2020/01/31 14:11:55.4	0.070	0.380	-1.080	-0.610
2020/01/31 14:11:55.5	0.080	0.350	-1.000	-0.640
2020/01/31 14:11:55.6	0.110	0.320	-0.920	-0.670
2020/01/31 14:11:55.7	0.120	0.280	-0.820	-0.700
2020/01/31 14:11:55.8	0.130	0.250	-0.730	-0.720
2020/01/31 14:11:55.9	0.140	0.210	-0.630	-0.740
2020/01/31 14:11:56.0	0.140	0.170	-0.540	-0.760
2020/01/31 14:11:56.1	0.150	0.130	-0.440	-0.780
2020/01/31 14:11:56.2	0.150	0.090	-0.340	-0.790
2020/01/31 14:11:56.3	0.150	0.050	-0.240	-0.800
2020/01/31 14:11:56.4	0.160	0.010	-0.150	-0.810
2020/01/31 14:11:56.5	0.160	-0.030	-0.050	-0.820
2020/01/31 14:11:56.6	0.160	-0.060	0.040	-0.820
2020/01/31 14:11:56.7	0.160	-0.100	0.120	-0.830
2020/01/31 14:11:56.8	0.160	-0.130	0.200	-0.840
2020/01/31 14:11:56.9	0.160	-0.160	0.270	-0.840
2020/01/31 14:11:57.0	0.160	-0.190	0.340	-0.850
2020/01/31 14:11:57.1	0.170	-0.210	0.390	-0.860
2020/01/31 14:11:57.2	0.170	-0.230	0.440	-0.860
2020/01/31 14:11:57.3	0.170	-0.250	0.480	-0.870
2020/01/31 14:11:57.4	0.170	-0.270	0.520	-0.880
2020/01/31 14:11:57.5	0.180	-0.280	0.540	-0.900
2020/01/31 14:11:57.6	0.180	-0.290	0.550	-0.910
2020/01/31 14:11:57.7	0.190	-0.290	0.560	-0.920
2020/01/31 14:11:57.8	0.200	-0.290	0.560	-0.940
2020/01/31 14:11:57.9	0.210	-0.290	0.550	-0.950
2020/01/31 14:11:58.0	0.220	-0.280	0.530	-0.970
2020/01/31 14:11:58.1	0.230	-0.280	0.510	-0.980
2020/01/31 14:11:58.2	0.240	-0.270	0.480	-0.990
2020/01/31 14:11:58.3	0.250	-0.250	0.450	-1.010
2020/01/31 14:11:58.4	0.250	-0.240	0.410	-1.020
2020/01/31 14:11:58.5	0.260	-0.220	0.370	-1.030
2020/01/31 14:11:58.6	0.270	-0.200	0.320	-1.040
2020/01/31 14:11:58.7	0.270	-0.180	0.280	-1.040
2020/01/31 14:11:58.8	0.270	-0.160	0.230	-1.050
2020/01/31 14:11:58.9	0.270	-0.140	0.190	-1.050
2020/01/31 14:11:59.0	0.270	-0.120	0.140	-1.050
2020/01/31 14:11:59.1	0.260	-0.100	0.100	-1.050
2020/01/31 14:11:59.2	0.250	-0.080	0.070	-1.040
2020/01/31 14:11:59.3	0.240	-0.070	0.030	-1.040
2020/01/31 14:11:59.4	0.220	-0.050	0.000	-1.030
2020/01/31 14:11:59.5	0.210	-0.030	-0.020	-1.020
2020/01/31 14:11:59.6	0.200	-0.020	-0.050	-1.000
2020/01/31 14:11:59.7	0.180	-0.010	-0.060	-0.990
2020/01/31 14:11:59.8	0.160	0.000	-0.070	-0.970
2020/01/31 14:11:59.9	0.130	0.010	-0.070	-0.940
2020/01/31 14:12:00.0	0.110	0.020	-0.070	-0.920
2020/01/31 14:12:00.1	0.080	0.020	-0.060	-0.890
2020/01/31 14:12:00.2	0.060	0.020	-0.040	-0.860
2020/01/31 14:12:00.3	0.030	0.020	-0.020	-0.820
2020/01/31 14:12:00.4	0.000	0.010	-0.000	-0.780
2020/01/31 14:12:00.5	359.970	0.010	0.030	-0.740
2020/01/31 14:12:00.6	359.950	-0.000	0.060	-0.690
2020/01/31 14:12:00.7	359.920	-0.020	0.090	-0.640
2020/01/31 14:12:00.8	359.890	-0.030	0.130	-0.590
2020/01/31 14:12:00.9	359.860	-0.040	0.170	-0.540
2020/01/31 14:12:01.0	359.830	-0.060	0.210	-0.490
2020/01/31 14:12:01.1	359.800	-0.080	0.240	-0.430
2020/01/31 14:12:01.2	359.770	-0.100	0.280	-0.380
2020/01/31 14:12:01.3	359.740	-0.120	0.310	-0.330
2020/01/31 14:12:01.4	359.720	-0.140	0.350	-0.270
2020/01/31 14:12:01.5	359.690	-0.160	0.370	-0.220
2020/01/31 14:12:01.6	359.650	-0.180	0.400	-0.170
2020/01/31 14:12:01.7	359.630	-0.200	0.410	-0.120
2020/01/31 14:12:01.8	359.610	-0.220	0.430	-0.070
2020/01/31 14:12:01.9	359.590	-0.240	0.430	-0.030
2020/01/31 14:12:02.0	359.570	-0.260	0.430	0.010
2020/01/31 14:12:02.1	359.550	-0.280	0.420	0.040
2020/01/31 14:12:02.2	359.540	-0.290	0.410	0.080
2020/01/31 14:12:02.3	359.530	-0.310	0.380	0.110
2020/01/31 14:12:02.4	359.520	-0.320	0.350	0.130
2020/01/31 14:12:02.5	359.510	-0.320	0.310	0.150
2020/01/31 14:12:02.6	359.500	-0.330	0.260	0.170
2020/01/31 14:12:02.7	359.490	-0.330	0.200	0.180
2020/01/31 14:12:02.8	359.490	-0.330	0.130	0.190
2020/01/31 14:12:02.9	359.490	-0.330	0.060	0.200
2020/01/31 14:12:03.0	359.500	-0.320	-0.020	0.200
2020/01/31 14:12:03.1	359.500	-0.320	-0.100	0.200
2020/01/31 14:12:03.2	359.500	-0.300	-0.190	0.200
2020/01/31 14:12:03.3	359.510	-0.290	-0.280	0.200
2020/01/31 14:12:03.4	359.520	-0.270	-0.380	0.190
2020/01/31 14:12:03.5	359.530	-0.250	-0.470	0.180
2020/01/31 14:12:03.6	359.540	-0.230	-0.570	0.170
2020/01/31 14:12:03.7	359.560	-0.200	-0.660	0.150
2020/01/31 14:12:03.8	359.570	-0.180	-0.760	0.140
2020/01/31 14:12:03.9	359.580	-0.150	-0.840	0.130
2020/01/31 14:12:04.0	359.590	-0.120	-0.930	0.110
2020/01/31 14:12:04.1	359.610	-0.080	-1.010	0.100
2020/01/31 14:12:04.2	359.620	-0.050	-1.090	0.080
2020/01/31 14:12:04.3	359.630	-0.010	-1.150	0.070
2020/01/31 14:12:04.4	359.640	0.020	-1.210	0.060
2020/01/31 14:12:04.5	359.650	0.060	-1.260	0.050
2020/01/31 14:12:04.6	359.670	0.100	-1.300	0.040
2020/01/31 14:12:04.7	359.680	0.130	-1.340	0.040
2020/01/31 14:12:04.8	359.690	0.170	-1.360	0.040
2020/01/31 14:12:04.9	359.700	0.200	-1.380	0.040
2020/01/31 14:12:05.0	359.700	0.240	-1.380	0.040
2020/01/31 14:12:05.1	359.710	0.270	-1.380	0.040
2020/01/31 14:12:05.2	359.720	0.310	-1.370	0.050
2020/01/31 14:12:05.3	359.730	0.340	-1.340	0.060
2020/01/31 14:12:05.4	359.740	0.360	-1.320	0.070
2020/01/31 14:12:05.5	359.750	0.390	-1.280	0.080
2020/01/31 14:12:05.6	359.740	0.410	-1.240	0.090
2020/01/31 14:12:05.7	359.750	0.430	-1.190	0.100
2020/01/31 14:12:05.8	359.760	0.450	-1.140	0.120
2020/01/31 14:12:05.9	359.770	0.460	-1.080	0.130
2020/01/31 14:12:06.0	359.780	0.480	-1.020	0.150
2020/01/31 14:12:06.1	359.800	0.480	-0.950	0.160
2020/01/31 14:12:06.2	359.810	0.490	-0.880	0.180
2020/01/31 14:12:06.3	359.820	0.490	-0.810	0.190
2020/01/31 14:12:06.4	359.830	0.480	-0.740	0.210
2020/01/31 14:12:06.5	359.850	0.480	-0.670	0.220
2020/01/31 14:12:06.6	359.870	0.460	-0.600	0.230
2020/01/31 14:12:06.7	359.880	0.450	-0.530	0.240
2020/01/31 14:12:06.8	359.900	0.430	-0.460	0.250
2020/01/31 14:12:06.9	359.910	0.410	-0.390	0.260
2020/01/31 14:12:07.0	359.920	0.390	-0.330	0.270
2020/01/31 14:12:07.1	359.940	0.360	-0.260	0.270
2020/01/31 14:12:07.2	359.950	0.330	-0.200	0.270
2020/01/31 14:12:07.3	359.960	0.300	-0.140	0.270
2020/01/31 14:12:07.4	359.980	0.260	-0.090	0.270
2020/01/31 14:12:07.5	359.990	0.230	-0.040	0.260
2020/01/31 14:12:07.6	359.990	0.190	0.010	0.260
2020/01/31 14:12:07.7	0.000	0.150	0.050	0.250
2020/01/31 14:12:07.8	0.020	0.110	0.090	0.230
2020/01/31 14:12:07.9	0.040	0.070	0.120	0.220
2020/01/31 14:12:08.0	0.050	0.030	0.150	0.200
2020/01/31 14:12:08.1	0.070	-0.010	0.170	0.180
2020/01/31 14:12:08.2	0.090	-0.040	0.190	0.160
2020/01/31 14:12:08.3	0.110	-0.080	0.210	0.130
2020/01/31 14:12:08.4	0.130	-0.120	0.220	0.110
2020/01/31 14:12:08.5	0.150	-0.150	0.230	0.080
2020/01/31 14:12:08.6	0.180	-0.180	0.230	0.050
2020/01/31 14:12:08.7	0.200	-0.220	0.230	0.020
2020/01/31 14:12:08.8	0.220	-0.240	0.230	-0.020
2020/01/31 14:12:08.9	0.240	-0.270	0.220	-0.050
2020/01/31 14:12:09.0	0.260	-0.300	0.210	-0.080
2020/01/31 14:12:09.1	0.280	-0.320	0.200	-0.110
2020/01/31 14:12:09.2	0.300	-0.340	0.190	-0.140
2020/01/31 14:12:09.3	0.320	-0.360	0.180	-0.180
2020/01/31 14:12:09.4	0.340	-0.370	0.170	-0.210
2020/01/31 14:12:09.5	0.350	-0.380	0.150	-0.240
2020/01/31 14:12:09.6	0.360	-0.390	0.140	-0.270
2020/01/31 14:12:09.7	0.380	-0.400	0.120	-0.300
2020/01/31 14:12:09.8	0.390	-0.410	0.110	-0.330
2020/01/31 14:12:09.9	0.390	-0.410	0.090	-0.360
2020/01/31 14:12:10.0	0.400	-0.410	0.080	-0.390
2020/01/31 14:12:10.1	0.400	-0.410	0.060	-0.420
2020/01/31 14:12:10.2	0.400	-0.400	0.050	-0.440
2020/01/31 14:12:10.3	0.390	-0.390	0.040	-0.470
2020/01/31 14:12:10.4	0.390	-0.380	0.030	-0.490
2020/01/31 14:12:10.5	0.380	-0.370	0.020	-0.510
2020/01/31 14:12:10.6	0.380	-0.360	0.010	-0.530
2020/01/31 14:12:10.7	0.360	-0.340	0.010	-0.550
2020/01/31 14:12:10.8	0.350	-0.330	0.000	-0.560
2020/01/31 14:12:10.9	0.340	-0.310	0.000	-0.580
2020/01/31 14:12:11.0	0.320	-0.290	0.000	-0.590
2020/01/31 14:12:11.1	0.300	-0.260	0.000	-0.600
2020/01/31 14:12:11.2	0.290	-0.240	0.000	-0.610
2020/01/31 14:12:11.3	0.270	-0.220	0.010	-0.610
2020/01/31 14:12:11.4	0.250	-0.190	0.010	-0.620
2020/01/31 14:12:11.5	0.230	-0.170	0.020	-0.620
2020/01/31 14:12:11.6	0.210	-0.140	0.030	-0.620
2020/01/31 14:12:11.7	0.190	-0.110	0.030	-0.620
2020/01/31 14:12:11.8	0.180	-0.080	0.040	-0.620
2020/01/31 14:12:11.9	0.160	-0.050	0.050	-0.610
2020/01/31 14:12:12.0	0.140	-0.030	0.060	-0.610
2020/01/31 14:12:12.1	0.130	0.000	0.070	-0.600
2020/01/31 14:12:12.2	0.110	0.030	0.090	-0.590
2020/01/31 14:12:12.3	0.090	0.060	0.100	-0.570
2020/01/31 14:12:12.4	0.070	0.080	0.110	-0.560
2020/01/31 14:12:12.5	0.060	0.110	0.120	-0.540
2020/01/31 14:12:12.6	0.030	0.140	0.130	-0.510
2020/01/31 14:12:12.7	0.010	0.160	0.140	-0.490
2020/01/31 14:12:12.8	359.990	0.190	0.150	-0.460
2020/01/31 14:12:12.9	359.970	0.210	0.160	-0.420
2020/01/31 14:12:13.0	359.950	0.240	0.170	-0.390
2020/01/31 14:12:13.1	359.920	0.260	0.170	-0.350
2020/01/31 14:12:13.2	359.900	0.280	0.180	-0.310
2020/01/31 14:12:13.3	359.880	0.300	0.180	-0.270
2020/01/31 14:12:13.4	359.860	0.320	0.180	-0.220
2020/01/31 14:12:13.5	359.830	0.340	0.180	-0.180
2020/01/31 14:12:13.6	359.830	0.350	0.170	-0.130
2020/01/31 14:12:13.7	359.800	0.370	0.160	-0.080
2020/01/31 14:12:13.8	359.780	0.380	0.150	-0.040
2020/01/31 14:12:13.9	359.760	0.390	0.130	0.010
2020/01/31 14:12:14.0	359.740	0.410	0.110	0.050
2020/01/31 14:12:14.1	359.730	0.420	0.090	0.090
2020/01/31 14:12:14.2	359.710	0.420	0.060	0.130
2020/01/31 14:12:14.3	359.690	0.430	0.020	0.160
2020/01/31 14:12:14.4	359.680	0.430	-0.010	0.200
2020/01/31 14:12:14.5	359.670	0.430	-0.060	0.220
2020/01/31 14:12:14.6	359.650	0.430	-0.110	0.250
2020/01/31 14:12:14.7	359.640	0.430	-0.160	0.260
2020/01/31 14:12:14.8	359.630	0.430	-0.210	0.270
2020/01/31 14:12:14.9	359.630	0.420	-0.270	0.270
2020/01/31 14:12:15.0	359.620	0.410	-0.330	0.270
2020/01/31 14:12:15.1	359.620	0.390	-0.400	0.250
2020/01/31 14:12:15.2	359.630	0.380	-0.470	0.230
2020/01/31 14:12:15.3	359.630	0.360	-0.540	0.200
2020/01/31 14:12:15.4	359.640	0.330	-0.610	0.160
2020/01/31 14:12:15.5	359.650	0.310	-0.680	0.110
2020/01/31 14:12:15.6	359.660	0.280	-0.750	0.060
2020/01/31 14:12:15.7	359.680	0.250	-0.820	-0.000
2020/01/31 14:12:15.8	359.700	0.220	-0.890	-0.070
2020/01/31 14:12:15.9	359.720	0.190	-0.960	-0.150
2020/01/31 14:12:16.0	359.750	0.150	-1.030	-0.230
2020/01/31 14:12:16.1	359.780	0.110	-1.100	-0.310
2020/01/31 14:12:16.2	359.810	0.070	-1.160	-0.400
2020/01/31 14:12:16.3	359.840	0.040	-1.220	-0.500
2020/01/31 14:12:16.4	359.880	-0.000	-1.280	-0.590
2020/01/31 14:12:16.5	359.920	-0.050	-1.330	-0.690
2020/01/31 14:12:16.6	359.980	-0.090	-1.370	-0.790
2020/01/31 14:12:16.7	0.030	-0.130	-1.410	-0.890
2020/01/31 14:12:16.8	0.080	-0.160	-1.450	-0.980
2020/01/31 14:12:16.9	0.130	-0.200	-1.470	-1.080
2020/01/31 14:12:17.0	0.180	-0.240	-1.490	-1.180
2020/01/31 14:12:17.1	0.230	-0.270	-1.510	-1.270
2020/01/31 14:12:17.2	0.290	-0.300	-1.510	-1.360
2020/01/31 14:12:17.3	0.350	-0.330	-1.510	-1.450
2020/01/31 14:12:17.4	0.400	-0.360	-1.500	-1.530
2020/01/31 14:12:17.5	0.460	-0.380	-1.490	-1.610
2020/01/31 14:12:17.6	0.510	-0.400	-1.460	-1.690
2020/01/31 14:12:17.7	0.570	-0.420	-1.430	-1.760
2020/01/31 14:12:17.8	0.630	-0.430	-1.390	-1.830
2020/01/31 14:12:17.9	0.690	-0.440	-1.340	-1.890
2020/01/31 14:12:18.0	0.750	-0.450	-1.290	-1.950
2020/01/31 14:12:18.1	0.810	-0.450	-1.220	-2.000
2020/01/31 14:12:18.2	0.860	-0.460	-1.150	-2.050
2020/01/31 14:12:18.3	0.920	-0.460	-1.080	-2.090
2020/01/31 14:12:18.4	0.980	-0.460	-0.990	-2.130
2020/01/31 14:12:18.5	1.030	-0.450	-0.910	-2.160
2020/01/31 14:12:18.6	1.100	-0.450	-0.820	-2.190
2020/01/31 14:12:18.7	1.140	-0.440	-0.720	-2.210
2020/01/31 14:12:18.8	1.190	-0.440	-0.620	-2.220
2020/01/31 14:12:18.9	1.230	-0.430	-0.520	-2.220
2020/01/31 14:12:19.0	1.270	-0.420	-0.410	-2.220
2020/01/31 14:12:19.1	1.310	-0.410	-0.310	-2.220
2020/01/31 14:12:19.2	1.350	-0.400	-0.200	-2.200
2020/01/31 14:12:19.3	1.380	-0.390	-0.090	-2.180
2020/01/31 14:12:19.4	1.400	-0.380	0.010	-2.150
2020/01/31 14:12:19.5	1.420	-0.360	0.110	-2.110
2020/01/31 14:12:19.6	1.430	-0.350	0.210	-2.060
2020/01/31 14:12:19.7	1.440	-0.340	0.310	-2.010
2020/01/31 14:12:19.8	1.450	-0.330	0.400	-1.940
2020/01/31 14:12:19.9	1.450	-0.310	0.490	-1.870
2020/01/31 14:12:20.0	1.450	-0.300	0.580	-1.790
2020/01/31 14:12:20.1	1.440	-0.290	0.650	-1.710
2020/01/31 14:12:20.2	1.430	-0.280	0.730	-1.620
2020/01/31 14:12:20.3	1.410	-0.260	0.790	-1.520
2020/01/31 14:12:20.4	1.390	-0.250	0.850	-1.420
2020/01/31 14:12:20.5	1.370	-0.240	0.910	-1.320
2020/01/31 14:12:20.6	1.340	-0.220	0.950	-1.210
2020/01/31 14:12:20.7	1.320	-0.210	0.990	-1.100
2020/01/31 14:12:20.8	1.280	-0.200	1.020	-0.990
2020/01/31 14:12:20.9	1.250	-0.180	1.040	-0.880
2020/01/31 14:12:21.0	1.220	-0.160	1.050	-0.770
2020/01/31 14:12:21.1	1.180	-0.150	1.060	-0.650
2020/01/31 14:12:21.2	1.140	-0.130	1.050	-0.540
2020/01/31 14:12:21.3	1.100	-0.110	1.040	-0.430
2020/01/31 14:12:21.4	1.060	-0.090	1.030	-0.320
2020/01/31 14:12:21.5	1.010	-0.070	1.000	-0.220
2020/01/31 14:12:21.6	0.960	-0.040	0.970	-0.110
2020/01/31 14:12:21.7	0.920	-0.020	0.930	-0.010
2020/01/31 14:12:21.8	0.870	0.010	0.880	0.090
2020/01/31 14:12:21.9	0.830	0.040	0.830	0.190
2020/01/31 14:12:22.0	0.780	0.070	0.780	0.280
2020/01/31 14:12:22.1	0.730	0.100	0.720	0.380
2020/01/31 14:12:22.2	0.680	0.130	0.650	0.470
2020/01/31 14:12:22.3	0.630	0.170	0.590	0.550
2020/01/31 14:12:22.4	0.580	0.200	0.520	0.640
2020/01/31 14:12:22.5	0.540	0.230	0.440	0.720
2020/01/31 14:12:22.6	0.490	0.270	0.370	0.800
2020/01/31 14:12:22.7	0.440	0.300	0.300	0.870
2020/01/31 14:12:22.8	0.390	0.330	0.220	0.940
2020/01/31 14:12:22.9	0.340	0.360	0.150	1.010
2020/01/31 14:12:23.0	0.290	0.390	0.070	1.070
2020/01/31 14:12:23.1	0.240	0.410	-0.000	1.120
2020/01/31 14:12:23.2	0.200	0.440	-0.070	1.170
2020/01/31 14:12:23.3	0.150	0.460	-0.140	1.220
2020/01/31 14:12:23.4	0.110	0.480	-0.210	1.260
2020/01/31 14:12:23.5	0.070	0.500	-0.280	1.290
2020/01/31 14:12:23.6	0.020	0.510	-0.340	1.320
2020/01/31 14:12:23.7	359.990	0.520	-0.400	1.330
2020/01/31 14:12:23.8	359.960	0.520	-0.450	1.340
2020/01/31 14:12:23.9	359.940	0.530	-0.510	1.350
2020/01/31 14:12:24.0	359.920	0.520	-0.560	1.340
2020/01/31 14:12:24.1	359.900	0.520	-0.600	1.330
2020/01/31 14:12:24.2	359.890	0.510	-0.640	1.320
2020/01/31 14:12:24.3	359.880	0.500	-0.680	1.290
2020/01/31 14:12:24.4	359.880	0.480	-0.720	1.260
2020/01/31 14:12:24.5	359.880	0.460	-0.750	1.220
2020/01/31 14:12:24.6	359.890	0.440	-0.780	1.170
2020/01/31 14:12:24.7	359.900	0.410	-0.810	1.110
2020/01/31 14:12:24.8	359.920	0.380	-0.830	1.050
2020/01/31 14:12:24.9	359.940	0.350	-0.860	0.990
2020/01/31 14:12:25.0	359.970	0.320	-0.880	0.920
2020/01/31 14:12:25.1	0.010	0.290	-0.890	0.840
2020/01/31 14:12:25.2	0.040	0.250	-0.910	0.760
2020/01/31 14:12:25.3	0.090	0.220	-0.920	0.670
2020/01/31 14:12:25.4	0.130	0.180	-0.930	0.580
2020/01/31 14:12:25.5	0.180	0.140	-0.940	0.490
2020/01/31 14:12:25.6	0.230	0.110	-0.950	0.390
2020/01/31 14:12:25.7	0.290	0.070	-0.950	0.290
2020/01/31 14:12:25.8	0.340	0.030	-0.950	0.190
2020/01/31 14:12:25.9	0.400	-0.010	-0.960	0.090
2020/01/31 14:12:26.0	0.470	-0.040	-0.950	-0.020
2020/01/31 14:12:26.1	0.530	-0.080	-0.950	-0.120
2020/01/31 14:12:26.2	0.590	-0.110	-0.950	-0.230
2020/01/31 14:12:26.3	0.660	-0.150	-0.940	-0.340
2020/01/31 14:12:26.4	0.720	-0.180	-0.940	-0.440
2020/01/31 14:12:26.5	0.790	-0.210	-0.930	-0.550
2020/01/31 14:12:26.6	0.870	-0.240	-0.920	-0.660
2020/01/31 14:12:26.7	0.940	-0.270	-0.910	-0.760
2020/01/31 14:12:26.8	1.000	-0.300	-0.900	-0.870
2020/01/31 14:12:26.9	1.060	-0.320	-0.890	-0.970
2020/01/31 14:12:27.0	1.110	-0.350	-0.870	-1.070
2020/01/31 14:12:27.1	1.170	-0.370	-0.860	-1.160
2020/01/31 14:12:27.2	1.220	-0.390	-0.840	-1.250
2020/01/31 14:12:27.3	1.260	-0.410	-0.820	-1.340
2020/01/31 14:12:27.4	1.310	-0.420	-0.800	-1.420
2020/01/31 14:12:27.5	1.340	-0.440	-0.780	-1.490
2020/01/31 14:12:27.6	1.390	-0.450	-0.750	-1.560
2020/01/31 14:12:27.7	1.420	-0.460	-0.720	-1.620
2020/01/31 14:12:27.8	1.440	-0.460	-0.690	-1.680
2020/01/31 14:12:27.9	1.460	-0.470	-0.660	-1.730
2020/01/31 14:12:28.0	1.480	-0.470	-0.630	-1.770
2020/01/31 14:12:28.1	1.490	-0.470	-0.590	-1.800
2020/01/31 14:12:28.2	1.490	-0.460	-0.550	-1.830
2020/01/31 14:12:28.3	1.500	-0.460	-0.510	-1.850
2020/01/31 14:12:28.4	1.500	-0.450	-0.460	-1.870
2020/01/31 14:12:28.5	1.490	-0.440	-0.420	-1.870
2020/01/31 14:12:28.6	1.460	-0.420	-0.370	-1.880
2020/01/31 14:12:28.7	1.450	-0.410	-0.320	-1.870
2020/01/31 14:12:28.8	1.440	-0.390	-0.270	-1.850
2020/01/31 14:12:28.9	1.420	-0.370	-0.220	-1.830
2020/01/31 14:12:29.0	1.410	-0.340	-0.160	-1.810
2020/01/31 14:12:29.1	1.390	-0.320	-0.110	-1.780
2020/01/31 14:12:29.2	1.370	-0.290	-0.060	-1.740
2020/01/31 14:12:29.3	1.340	-0.260	-0.010	-1.700
2020/01/31 14:12:29.4	1.320	-0.230	0.040	-1.650
2020/01/31 14:12:29.5	1.300	-0.190	0.090	-1.600
2020/01/31 14:12:29.6	1.270	-0.160	0.130	-1.540
2020/01/31 14:12:29.7	1.250	-0.120	0.170	-1.480
2020/01/31 14:12:29.8	1.220	-0.080	0.210	-1.420
2020/01/31 14:12:29.9	1.200	-0.050	0.240	-1.360
2020/01/31 14:12:30.0	1.180	-0.010	0.270	-1.290
2020/01/31 14:12:30.1	1.160	0.040	0.290	-1.220
2020/01/31 14:12:30.2	1.140	0.080	0.310	-1.160
2020/01/31 14:12:30.3	1.120	0.120	0.320	-1.090
2020/01/31 14:12:30.4	1.100	0.160	0.320	-1.020
2020/01/31 14:12:30.5	1.080	0.200	0.320	-0.950
2020/01/31 14:12:30.6	1.080	0.240	0.310	-0.880
2020/01/31 14:12:30.7	1.070	0.280	0.300	-0.820
2020/01/31 14:12:30.8	1.060	0.320	0.280	-0.760
2020/01/31 14:12:30.9	1.060	0.360	0.260	-0.700
2020/01/31 14:12:31.0	1.050	0.390	0.230	-0.640
2020/01/31 14:12:31.1	1.050	0.430	0.200	-0.580
2020/01/31 14:12:31.2	1.050	0.460	0.170	-0.530
2020/01/31 14:12:31.3	1.050	0.490	0.130	-0.480
2020/01/31 14:12:31.4	1.050	0.510	0.090	-0.430
2020/01/31 14:12:31.5	1.060	0.530	0.050	-0.380
2020/01/31 14:12:31.6	1.050	0.550	0.010	-0.340
2020/01/31 14:12:31.7	1.050	0.560	-0.020	-0.300
2020/01/31 14:12:31.8	1.050	0.570	-0.060	-0.260
2020/01/31 14:12:31.9	1.050	0.580	-0.090	-0.220
2020/01/31 14:12:32.0	1.050	0.580	-0.130	-0.180
2020/01/31 14:12:32.1	1.060	0.570	-0.150	-0.140
2020/01/31 14:12:32.2	1.060	0.570	-0.180	-0.110
2020/01/31 14:12:32.3	1.060	0.550	-0.200	-0.070
2020/01/31 14:12:32.4	1.060	0.530	-0.220	-0.040
2020/01/31 14:12:32.5	1.060	0.510	-0.230	-0.010
2020/01/31 14:12:32.6	1.050	0.490	-0.240	0.030
2020/01/31 14:12:32.7	1.050	0.460	-0.240	0.060
2020/01/31 14:12:32.8	1.050	0.420	-0.240	0.090
2020/01/31 14:12:32.9	1.050	0.380	-0.230	0.120
2020/01/31 14:12:33.0	1.050	0.340	-0.220	0.150
2020/01/31 14:12:33.1	1.050	0.300	-0.210	0.170
2020/01/31 14:12:33.2	1.050	0.250	-0.190	0.200
2020/01/31 14:12:33.3	1.050	0.200	-0.170	0.230
2020/01/31 14:12:33.4	1.050	0.150	-0.150	0.250
2020/01/31 14:12:33.5	1.050	0.100	-0.120	0.280
2020/01/31 14:12:33.6	1.050	0.040	-0.100	0.300
2020/01/31 14:12:33.7	1.050	-0.010	-0.070	0.320
2020/01/31 14:12:33.8	1.060	-0.070	-0.040	0.340
2020/01/31 14:12:33.9	1.060	-0.120	-0.010	0.360
2020/01/31 14:12:34.0	1.060	-0.170	0.020	0.370
2020/01/31 14:12:34.1	1.070	-0.230	0.040	0.380
2020/01/31 14:12:34.2	1.070	-0.280	0.070	0.390
2020/01/31 14:12:34.3	1.080	-0.330	0.090	0.390
2020/01/31 14:12:34.4	1.080	-0.370	0.110	0.400
2020/01/31 14:12:34.5	1.090	-0.420	0.130	0.390
2020/01/31 14:12:34.6	1.110	-0.460	0.140	0.390
2020/01/31 14:12:34.7	1.120	-0.500	0.150	0.380
2020/01/31 14:12:34.8	1.120	-0.540	0.150	0.370
2020/01/31 14:12:34.9	1.130	-0.570	0.160	0.360
2020/01/31 14:12:35.0	1.140	-0.600	0.150	0.340
2020/01/31 14:12:35.1	1.140	-0.620	0.150	0.320
2020/01/31 14:12:35.2	1.150	-0.640	0.140	0.300
2020/01/31 14:12:35.3	1.150	-0.660	0.120	0.280
2020/01/31 14:12:35.4	1.160	-0.680	0.100	0.250
2020/01/31 14:12:35.5	1.160	-0.690	0.080	0.230
2020/01/31 14:12:35.6	1.170	-0.690	0.060	0.200
2020/01/31 14:12:35.7	1.170	-0.690	0.030	0.170
2020/01/31 14:12:35.8	1.180	-0.690	0.000	0.140
2020/01/31 14:12:35.9	1.180	-0.680	-0.030	0.100
2020/01/31 14:12:36.0	1.180	-0.670	-0.060	0.070
2020/01/31 14:12:36.1	1.190	-0.660	-0.100	0.040
2020/01/31 14:12:36.2	1.190	-0.640	-0.140	0.010
2020/01/31 14:12:36.3	1.190	-0.620	-0.170	-0.030
2020/01/31 14:12:36.4	1.200	-0.590	-0.210	-0.060
2020/01/31 14:12:36.5	1.200	-0.560	-0.250	-0.090
2020/01/31 14:12:36.6	1.190	-0.530	-0.290	-0.120
2020/01/31 14:12:36.7	1.190	-0.490	-0.320	-0.150
2020/01/31 14:12:36.8	1.190	-0.450	-0.360	-0.170
2020/01/31 14:12:36.9	1.190	-0.410	-0.390	-0.200
2020/01/31 14:12:37.0	1.180	-0.370	-0.420	-0.220
2020/01/31 14:12:37.1	1.180	-0.320	-0.450	-0.240
2020/01/31 14:12:37.2	1.170	-0.280	-0.470	-0.250
2020/01/31 14:12:37.3	1.160	-0.230	-0.490	-0.260
2020/01/31 14:12:37.4	1.150	-0.180	-0.510	-0.270
2020/01/31 14:12:37.5	1.130	-0.120	-0.530	-0.270
2020/01/31 14:12:37.6	1.110	-0.070	-0.540	-0.270
2020/01/31 14:12:37.7	1.090	-0.020	-0.550	-0.260
2020/01/31 14:12:37.8	1.080	0.030	-0.560	-0.250
2020/01/31 14:12:37.9	1.050	0.090	-0.570	-0.240
2020/01/31 14:12:38.0	1.030	0.140	-0.580	-0.220
2020/01/31 14:12:38.1	1.010	0.190	-0.580	-0.200
2020/01/31 14:12:38.2	0.990	0.240	-0.580	-0.180
2020/01/31 14:12:38.3	0.960	0.290	-0.580	-0.160
2020/01/31 14:12:38.4	0.940	0.340	-0.590	-0.130
2020/01/31 14:12:38.5	0.920	0.390	-0.590	-0.110
2020/01/31 14:12:38.6	0.900	0.430	-0.590	-0.080
2020/01/31 14:12:38.7	0.880	0.480	-0.590	-0.050
2020/01/31 14:12:38.8	0.860	0.520	-0.590	-0.030
2020/01/31 14:12:38.9	0.840	0.560	-0.600	-0.000
2020/01/31 14:12:39.0	0.830	0.590	-0.600	0.020
2020/01/31 14:12:39.1	0.820	0.630	-0.610	0.040
2020/01/31 14:12:39.2	0.810	0.660	-0.620	0.060
2020/01/31 14:12:39.3	0.810	0.680	-0.640	0.070
2020/01/31 14:12:39.4	0.810	0.710	-0.650	0.080
2020/01/31 14:12:39.5	0.820	0.730	-0.660	0.090
2020/01/31 14:12:39.6	0.820	0.750	-0.680	0.100
2020/01/31 14:12:39.7	0.830	0.770	-0.700	0.100
2020/01/31 14:12:39.8	0.850	0.780	-0.720	0.100
2020/01/31 14:12:39.9	0.860	0.790	-0.740	0.090
2020/01/31 14:12:40.0	0.890	0.800	-0.760	0.080
2020/01/31 14:12:40.1	0.910	0.800	-0.780	0.070
2020/01/31 14:12:40.2	0.940	0.800	-0.810	0.060
2020/01/31 14:12:40.3	0.960	0.790	-0.830	0.040
2020/01/31 14:12:40.4	1.000	0.790	-0.840	0.010
2020/01/31 14:12:40.5	1.030	0.780	-0.860	-0.010
2020/01/31 14:12:40.6	1.060	0.760	-0.870	-0.040
2020/01/31 14:12:40.7	1.090	0.750	-0.890	-0.070
2020/01/31 14:12:40.8	1.130	0.720	-0.900	-0.110
2020/01/31 14:12:40.9	1.170	0.700	-0.900	-0.140
2020/01/31 14:12:41.0	1.210	0.670	-0.900	-0.180
2020/01/31 14:12:41.1	1.250	0.640	-0.900	-0.230
2020/01/31 14:12:41.2	1.290	0.600	-0.890	-0.270
2020/01/31 14:12:41.3	1.330	0.560	-0.870	-0.310
2020/01/31 14:12:41.4	1.370	0.520	-0.850	-0.360
2020/01/31 14:12:41.5	1.410	0.480	-0.820	-0.410
2020/01/31 14:12:41.6	1.450	0.430	-0.780	-0.450
2020/01/31 14:12:41.7	1.480	0.370	-0.740	-0.500
2020/01/31 14:12:41.8	1.520	0.320	-0.690	-0.550
2020/01/31 14:12:41.9	1.550	0.260	-0.630	-0.590
2020/01/31 14:12:42.0	1.570	0.200	-0.570	-0.640
2020/01/31 14:12:42.1	1.600	0.140	-0.500	-0.680
2020/01/31 14:12:42.2	1.620	0.070	-0.420	-0.720
2020/01/31 14:12:42.3	1.640	0.010	-0.340	-0.770
2020/01/31 14:12:42.4	1.660	-0.060	-0.260	-0.800
2020/01/31 14:12:42.5	1.670	-0.130	-0.170	-0.840
2020/01/31 14:12:42.6	1.690	-0.200	-0.080	-0.880
2020/01/31 14:12:42.7	1.700	-0.270	0.010	-0.910
2020/01/31 14:12:42.8	1.710	-0.340	0.100	-0.940
2020/01/31 14:12:42.9	1.720	-0.410	0.190	-0.970
2020/01/31 14:12:43.0	1.720	-0.470	0.290	-1.000
2020/01/31 14:12:43.1	1.730	-0.540	0.380	-1.020
2020/01/31 14:12:43.2	1.730	-0.600	0.470	-1.040
2020/01/31 14:12:43.3	1.730	-0.660	0.550	-1.060
2020/01/31 14:12:43.4	1.730	-0.720	0.630	-1.070
2020/01/31 14:12:43.5	1.720	-0.770	0.710	-1.080
2020/01/31 14:12:43.6	1.720	-0.820	0.780	-1.090
2020/01/31 14:12:43.7	1.710	-0.870	0.840	-1.090
2020/01/31 14:12:43.8	1.700	-0.910	0.900	-1.090
2020/01/31 14:12:43.9	1.690	-0.940	0.950	-1.090
2020/01/31 14:12:44.0	1.670	-0.970	0.990	-1.080
2020/01/31 14:12:44.1	1.650	-1.000	1.020	-1.060
2020/01/31 14:12:44.2	1.620	-1.020	1.050	-1.040
2020/01/31 14:12:44.3	1.600	-1.030	1.070	-1.020
2020/01/31 14:12:44.4	1.570	-1.030	1.080	-0.990
2020/01/31 14:12:44.5	1.540	-1.030	1.080	-0.960
2020/01/31 14:12:44.6	1.490	-1.030	1.070	-0.920
2020/01/31 14:12:44.7	1.460	-1.010	1.060	-0.880
2020/01/31 14:12:44.8	1.420	-0.990	1.030	-0.830
2020/01/31 14:12:44.9	1.380	-0.970	1.000	-0.780
2020/01/31 14:12:45.0	1.340	-0.940	0.960	-0.730
2020/01/31 14:12:45.1	1.300	-0.900	0.920	-0.680
2020/01/31 14:12:45.2	1.250	-0.850	0.870	-0.620
2020/01/31 14:12:45.3	1.210	-0.810	0.810	-0.560
2020/01/31 14:12:45.4	1.170	-0.750	0.740	-0.500
2020/01/31 14:12:45.5	1.120	-0.700	0.670	-0.440
2020/01/31 14:12:45.6	1.080	-0.630	0.600	-0.370
2020/01/31 14:12:45.7	1.030	-0.570	0.510	-0.310
2020/01/31 14:12:45.8	0.990	-0.500	0.430	-0.250
2020/01/31 14:12:45.9	0.950	-0.430	0.340	-0.180
2020/01/31 14:12:46.0	0.910	-0.360	0.250	-0.120
2020/01/31 14:12:46.1	0.870	-0.280	0.150	-0.050
2020/01/31 14:12:46.2	0.840	-0.200	0.050	0.010
2020/01/31 14:12:46.3	0.800	-0.130	-0.040	0.070
2020/01/31 14:12:46.4	0.770	-0.050	-0.140	0.140
2020/01/31 14:12:46.5	0.730	0.030	-0.240	0.200
2020/01/31 14:12:46.6	0.710	0.110	-0.330	0.260
2020/01/31 14:12:46.7	0.680	0.180	-0.430	0.330
2020/01/31 14:12:46.8	0.660	0.250	-0.520	0.390
2020/01/31 14:12:46.9	0.630	0.320	-0.610	0.440
2020/01/31 14:12:47.0	0.610	0.390	-0.690	0.500
2020/01/31 14:12:47.1	0.590	0.460	-0.770	0.550
2020/01/31 14:12:47.2	0.570	0.520	-0.840	0.610
2020/01/31 14:12:47.3	0.560	0.580	-0.910	0.650
2020/01/31 14:12:47.4	0.550	0.630	-0.970	0.700
2020/01/31 14:12:47.5	0.540	0.680	-1.030	0.740
2020/01/31 14:12:47.6	0.550	0.720	-1.080	0.780
2020/01/31 14:12:47.7	0.550	0.760	-1.120	0.810
2020/01/31 14:12:47.8	0.550	0.790	-1.160	0.840
2020/01/31 14:12:47.9	0.550	0.820	-1.190	0.870
2020/01/31 14:12:48.0	0.560	0.840	-1.210	0.890
2020/01/31 14:12:48.1	0.560	0.860	-1.230	0.910
2020/01/31 14:12:48.2	0.570	0.870	-1.240	0.920
2020/01/31 14:12:48.3	0.580	0.880	-1.240	0.930
2020/01/31 14:12:48.4	0.600	0.880	-1.240	0.940
2020/01/31 14:12:48.5	0.610	0.880	-1.230	0.940
2020/01/31 14:12:48.6	0.630	0.870	-1.210	0.950
2020/01/31 14:12:48.7	0.650	0.860	-1.190	0.940
2020/01/31 14:12:48.8	0.670	0.840	-1.160	0.940
2020/01/31 14:12:48.9	0.690	0.820	-1.130	0.930
2020/01/31 14:12:49.0	0.710	0.790	-1.090	0.920
2020/01/31 14:12:49.1	0.740	0.760	-1.050	0.910
2020/01/31 14:12:49.2	0.760	0.730	-1.000	0.890
2020/01/31 14:12:49.3	0.790	0.690	-0.960	0.870
2020/01/31 14:12:49.4	0.820	0.650	-0.910	0.850
2020/01/31 14:12:49.5	0.850	0.600	-0.860	0.820
2020/01/31 14:12:49.6	0.880	0.560	-0.810	0.780
2020/01/31 14:12:49.7	0.920	0.510	-0.750	0.740
2020/01/31 14:12:49.8	0.950	0.450	-0.700	0.700
2020/01/31 14:12:49.9	0.980	0.400	-0.650	0.650
2020/01/31 14:12:50.0	1.020	0.340	-0.590	0.600
2020/01/31 14:12:50.1	1.060	0.290	-0.540	0.540
2020/01/31 14:12:50.2	1.090	0.230	-0.490	0.480
2020/01/31 14:12:50.3	1.130	0.170	-0.450	0.420
2020/01/31 14:12:50.4	1.160	0.110	-0.400	0.350
2020/01/31 14:12:50.5	1.200	0.050	-0.360	0.280
2020/01/31 14:12:50.6	1.240	-0.010	-0.310	0.210
2020/01/31 14:12:50.7	1.270	-0.070	-0.270	0.140
2020/01/31 14:12:50.8	1.290	-0.130	-0.240	0.060
2020/01/31 14:12:50.9	1.320	-0.190	-0.200	-0.010
2020/01/31 14:12:51.0	1.340	-0.250	-0.160	-0.080
2020/01/31 14:12:51.1	1.350	-0.300	-0.130	-0.150
2020/01/31 14:12:51.2	1.370	-0.360	-0.100	-0.220
2020/01/31 14:12:51.3	1.380	-0.410	-0.070	-0.280
2020/01/31 14:12:51.4	1.380	-0.460	-0.040	-0.340
2020/01/31 14:12:51.5	1.390	-0.500	-0.010	-0.400
2020/01/31 14:12:51.6	1.400	-0.550	0.010	-0.460
2020/01/31 14:12:51.7	1.400	-0.590	0.040	-0.520
2020/01/31 14:12:51.8	1.400	-0.630	0.060	-0.570
2020/01/31 14:12:51.9	1.400	-0.660	0.080	-0.620
2020/01/31 14:12:52.0	1.400	-0.690	0.090	-0.670
2020/01/31 14:12:52.1	1.400	-0.710	0.110	-0.720
2020/01/31 14:12:52.2	1.400	-0.730	0.120	-0.760
2020/01/31 14:12:52.3	1.400	-0.750	0.120	-0.810
2020/01/31 14:12:52.4	1.400	-0.760	0.130	-0.850
2020/01/31 14:12:52.5	1.400	-0.760	0.130	-0.890
2020/01/31 14:12:52.6	1.390	-0.760	0.130	-0.940
2020/01/31 14:12:52.7	1.400	-0.760	0.120	-0.980
2020/01/31 14:12:52.8	1.410	-0.750	0.110	-1.020
2020/01/31 14:12:52.9	1.410	-0.730	0.090	-1.060
2020/01/31 14:12:53.0	1.430	-0.700	0.070	-1.110
2020/01/31 14:12:53.1	1.440	-0.680	0.050	-1.150
2020/01/31 14:12:53.2	1.450	-0.640	0.020	-1.190
2020/01/31 14:12:53.3	1.470	-0.600	-0.010	-1.220
2020/01/31 14:12:53.4	1.490	-0.560	-0.040	-1.260
2020/01/31 14:12:53.5	1.500	-0.510	-0.070	-1.280
2020/01/31 14:12:53.6	1.530	-0.450	-0.110	-1.310
2020/01/31 14:12:53.7	1.550	-0.400	-0.140	-1.330
2020/01/31 14:12:53.8	1.560	-0.340	-0.170	-1.340
2020/01/31 14:12:53.9	1.570	-0.280	-0.210	-1.350
2020/01/31 14:12:54.0	1.570	-0.210	-0.230	-1.350
2020/01/31 14:12:54.1	1.570	-0.150	-0.260	-1.340
2020/01/31 14:12:54.2	1.570	-0.090	-0.280	-1.330
2020/01/31 14:12:54.3	1.570	-0.020	-0.300	-1.310
2020/01/31 14:12:54.4	1.560	0.040	-0.310	-1.280
2020/01/31 14:12:54.5	1.540	0.100	-0.320	-1.240
2020/01/31 14:12:54.6	1.520	0.160	-0.320	-1.200
2020/01/31 14:12:54.7	1.500	0.210	-0.320	-1.160
2020/01/31 14:12:54.8	1.470	0.270	-0.310	-1.110
2020/01/31 14:12:54.9	1.440	0.320	-0.290	-1.050
2020/01/31 14:12:55.0	1.410	0.360	-0.280	-0.990
2020/01/31 14:12:55.1	1.380	0.400	-0.260	-0.930
2020/01/31 14:12:55.2	1.340	0.440	-0.230	-0.870
2020/01/31 14:12:55.3	1.310	0.470	-0.210	-0.810
2020/01/31 14:12:55.4	1.270	0.490	-0.180	-0.740
2020/01/31 14:12:55.5	1.230	0.510	-0.140	-0.670
2020/01/31 14:12:55.6	1.200	0.530	-0.110	-0.600
2020/01/31 14:12:55.7	1.160	0.540	-0.070	-0.530
2020/01/31 14:12:55.8	1.120	0.540	-0.040	-0.470
2020/01/31 14:12:55.9	1.090	0.540	-0.000	-0.400
2020/01/31 14:12:56.0	1.050	0.540	0.030	-0.340
2020/01/31 14:12:56.1	1.020	0.530	0.060	-0.280
2020/01/31 14:12:56.2	1.000	0.520	0.090	-0.220
2020/01/31 14:12:56.3	0.970	0.500	0.120	-0.160
2020/01/31 14:12:56.4	0.950	0.480	0.150	-0.110
2020/01/31 14:12:56.5	0.930	0.460	0.170	-0.060
2020/01/31 14:12:56.6	0.930	0.430	0.180	-0.010
2020/01/31 14:12:56.7	0.920	0.410	0.190	0.030
2020/01/31 14:12:56.8	0.910	0.380	0.200	0.070
2020/01/31 14:12:56.9	0.900	0.350	0.210	0.110
2020/01/31 14:12:57.0	0.900	0.320	0.210	0.150
2020/01/31 14:12:57.1	0.890	0.290	0.200	0.190
2020/01/31 14:12:57.2	0.880	0.260	0.200	0.220
2020/01/31 14:12:57.3	0.880	0.230	0.190	0.250
2020/01/31 14:12:57.4	0.880	0.200	0.180	0.280
2020/01/31 14:12:57.5	0.870	0.170	0.160	0.310
2020/01/31 14:12:57.6	0.880	0.140	0.140	0.340
2020/01/31 14:12:57.7	0.870	0.120	0.120	0.360
2020/01/31 14:12:57.8	0.870	0.090	0.100	0.390
2020/01/31 14:12:57.9	0.860	0.070	0.080	0.410
2020/01/31 14:12:58.0	0.850	0.040	0.050	0.430
2020/01/31 14:12:58.1	0.840	0.020	0.030	0.440
2020/01/31 14:12:58.2	0.840	0.000	-0.000	0.460
2020/01/31 14:12:58.3	0.830	-0.010	-0.030	0.470
2020/01/31 14:12:58.4	0.820	-0.030	-0.060	0.480
2020/01/31 14:12:58.5	0.810	-0.040	-0.090	0.490
2020/01/31 14:12:58.6	0.800	-0.050	-0.120	0.500
2020/01/31 14:12:58.7	0.800	-0.060	-0.160	0.500
2020/01/31 14:12:58.8	0.790	-0.070	-0.190	0.500
2020/01/31 14:12:58.9	0.780	-0.070	-0.220	0.500
2020/01/31 14:12:59.0	0.780	-0.080	-0.260	0.500
2020/01/31 14:12:59.1	0.770	-0.080	-0.290	0.500
2020/01/31 14:12:59.2	0.770	-0.080	-0.320	0.490
2020/01/31 14:12:59.3	0.770	-0.080	-0.360	0.480
2020/01/31 14:12:59.4	0.770	-0.080	-0.390	0.470
2020/01/31 14:12:59.5	0.770	-0.080	-0.430	0.460
2020/01/31 14:12:59.6	0.770	-0.070	-0.460	0.440
2020/01/31 14:12:59.7	0.780	-0.070	-0.500	0.430
2020/01/31 14:12:59.8	0.790	-0.070	-0.530	0.410
2020/01/31 14:12:59.9	0.800	-0.060	-0.560	0.390
2020/01/31 14:13:00.0	0.810	-0.060	-0.600	0.370
2020/01/31 14:13:00.1	0.820	-0.050	-0.630	0.340
2020/01/31 14:13:00.2	0.840	-0.050	-0.660	0.310
2020/01/31 14:13:00.3	0.850	-0.050	-0.680	0.280
2020/01/31 14:13:00.4	0.870	-0.050	-0.710	0.250
2020/01/31 14:13:00.5	0.890	-0.050	-0.730	0.220
2020/01/31 14:13:00.6	0.910	-0.050	-0.750	0.180
2020/01/31 14:13:00.7	0.940	-0.050	-0.770	0.130
2020/01/31 14:13:00.8	0.960	-0.050	-0.790	0.090
2020/01/31 14:13:00.9	0.990	-0.050	-0.810	0.040
2020/01/31 14:13:01.0	1.020	-0.050	-0.820	-0.010
2020/01/31 14:13:01.1	1.050	-0.060	-0.840	-0.060
2020/01/31 14:13:01.2	1.080	-0.060	-0.850	-0.120
2020/01/31 14:13:01.3	1.120	-0.070	-0.860	-0.170
2020/01/31 14:13:01.4	1.150	-0.080	-0.870	-0.230
2020/01/31 14:13:01.5	1.180	-0.090	-0.870	-0.290
2020/01/31 14:13:01.6	1.220	-0.090	-0.870	-0.350
2020/01/31 14:13:01.7	1.250	-0.100	-0.870	-0.410
2020/01/31 14:13:01.8	1.280	-0.110	-0.860	-0.470
2020/01/31 14:13:01.9	1.310	-0.120	-0.850	-0.520
2020/01/31 14:13:02.0	1.340	-0.130	-0.840	-0.570
2020/01/31 14:13:02.1	1.370	-0.150	-0.820	-0.620
2020/01/31 14:13:02.2	1.390	-0.160	-0.800	-0.670
2020/01/31 14:13:02.3	1.420	-0.170	-0.770	-0.710
2020/01/31 14:13:02.4	1.440	-0.180	-0.740	-0.760
2020/01/31 14:13:02.5	1.450	-0.200	-0.710	-0.790
2020/01/31 14:13:02.6	1.460	-0.210	-0.670	-0.830
2020/01/31 14:13:02.7	1.480	-0.220	-0.630	-0.870
2020/01/31 14:13:02.8	1.490	-0.240	-0.590	-0.900
2020/01/31 14:13:02.9	1.500	-0.250	-0.540	-0.930
2020/01/31 14:13:03.0	1.510	-0.260	-0.480	-0.950
2020/01/31 14:13:03.1	1.520	-0.270	-0.430	-0.980
2020/01/31 14:13:03.2	1.530	-0.290	-0.370	-1.000
2020/01/31 14:13:03.3	1.540	-0.300	-0.320	-1.010
2020/01/31 14:13:03.4	1.540	-0.310	-0.260	-1.030
2020/01/31 14:13:03.5	1.540	-0.320	-0.200	-1.040
2020/01/31 14:13:03.6	1.540	-0.330	-0.150	-1.040
2020/01/31 14:13:03.7	1.540	-0.330	-0.100	-1.040
2020/01/31 14:13:03.8	1.550	-0.340	-0.050	-1.040
2020/01/31 14:13:03.9	1.550	-0.340	0.000	-1.030
2020/01/31 14:13:04.0	1.550	-0.340	0.050	-1.020
2020/01/31 14:13:04.1	1.550	-0.340	0.090	-1.010
2020/01/31 14:13:04.2	1.550	-0.330	0.130	-0.990
2020/01/31 14:13:04.3	1.550	-0.320	0.160	-0.960
2020/01/31 14:13:04.4	1.540	-0.310	0.190	-0.930
2020/01/31 14:13:04.5	1.540	-0.300	0.220	-0.900
2020/01/31 14:13:04.6	1.550	-0.290	0.240	-0.870
2020/01/31 14:13:04.7	1.540	-0.270	0.260	-0.830
2020/01/31 14:13:04.8	1.530	-0.250	0.270	-0.780
2020/01/31 14:13:04.9	1.520	-0.230	0.280	-0.730
2020/01/31 14:13:05.0	1.510	-0.210	0.290	-0.680
2020/01/31 14:13:05.1	1.490	-0.180	0.290	-0.620
2020/01/31 14:13:05.2	1.470	-0.160	0.300	-0.560
2020/01/31 14:13:05.3	1.450	-0.130	0.300	-0.500
2020/01/31 14:13:05.4	1.430	-0.100	0.300	-0.440
2020/01/31 14:13:05.5	1.400	-0.070	0.290	-0.370
2020/01/31 14:13:05.6	1.370	-0.040	0.290	-0.280
2020/01/31 14:13:05.7	1.330	-0.010	0.280	-0.210
2020/01/31 14:13:05.8	1.290	0.020	0.270	-0.130
2020/01/31 14:13:05.9	1.250	0.050	0.270	-0.050
2020/01/31 14:13:06.0	1.210	0.080	0.260	0.030
2020/01/31 14:13:06.1	1.170	0.110	0.250	0.110
2020/01/31 14:13:06.2	1.130	0.150	0.240	0.190
2020/01/31 14:13:06.3	1.080	0.180	0.230	0.270
2020/01/31 14:13:06.4	1.040	0.210	0.220	0.340
2020/01/31 14:13:06.5	0.990	0.240	0.210	0.420
2020/01/31 14:13:06.6	0.950	0.270	0.200	0.490
2020/01/31 14:13:06.7	0.910	0.300	0.190	0.570
2020/01/31 14:13:06.8	0.870	0.330	0.180	0.640
2020/01/31 14:13:06.9	0.830	0.350	0.160	0.700
2020/01/31 14:13:07.0	0.790	0.380	0.140	0.770
2020/01/31 14:13:07.1	0.760	0.400	0.130	0.820
2020/01/31 14:13:07.2	0.730	0.430	0.110	0.870
2020/01/31 14:13:07.3	0.700	0.450	0.080	0.920
2020/01/31 14:13:07.4	0.680	0.470	0.060	0.960
2020/01/31 14:13:07.5	0.660	0.490	0.030	1.000
2020/01/31 14:13:07.6	0.630	0.510	0.000	1.030
2020/01/31 14:13:07.7	0.620	0.520	-0.030	1.060
2020/01/31 14:13:07.8	0.610	0.540	-0.060	1.080
2020/01/31 14:13:07.9	0.600	0.550	-0.100	1.090
2020/01/31 14:13:08.0	0.600	0.560	-0.140	1.100
2020/01/31 14:13:08.1	0.600	0.570	-0.180	1.110
2020/01/31 14:13:08.2	0.600	0.580	-0.220	1.110
2020/01/31 14:13:08.3	0.600	0.580	-0.260	1.110
2020/01/31 14:13:08.4	0.600	0.580	-0.310	1.100
2020/01/31 14:13:08.5	0.610	0.580	-0.350	1.080
2020/01/31 14:13:08.6	0.610	0.580	-0.390	1.070
2020/01/31 14:13:08.7	0.610	0.570	-0.430	1.040
2020/01/31 14:13:08.8	0.620	0.560	-0.480	1.020
2020/01/31 14:13:08.9	0.630	0.550	-0.510	0.980
2020/01/31 14:13:09.0	0.640	0.530	-0.550	0.950
2020/01/31 14:13:09.1	0.650	0.510	-0.580	0.910
2020/01/31 14:13:09.2	0.660	0.490	-0.620	0.870
2020/01/31 14:13:09.3	0.670	0.460	-0.640	0.820
2020/01/31 14:13:09.4	0.680	0.430	-0.670	0.770
2020/01/31 14:13:09.5	0.690	0.400	-0.690	0.720
2020/01/31 14:13:09.6	0.700	0.370	-0.710	0.660
2020/01/31 14:13:09.7	0.710	0.330	-0.720	0.600
2020/01/31 14:13:09.8	0.720	0.290	-0.730	0.540
2020/01/31 14:13:09.9	0.740	0.250	-0.740	0.470
2020/01/31 14:13:10.0	0.750	0.200	-0.750	0.410
2020/01/31 14:13:10.1	0.770	0.160	-0.750	0.340
2020/01/31 14:13:10.2	0.780	0.110	-0.750	0.270
2020/01/31 14:13:10.3	0.800	0.060	-0.740	0.200
2020/01/31 14:13:10.4	0.820	0.010	-0.730	0.130
2020/01/31 14:13:10.5	0.840	-0.030	-0.720	0.060
2020/01/31 14:13:10.6	0.860	-0.080	-0.710	-0.010
2020/01/31 14:13:10.7	0.880	-0.130	-0.690	-0.080
2020/01/31 14:13:10.8	0.900	-0.180	-0.670	-0.150
2020/01/31 14:13:10.9	0.910	-0.220	-0.650	-0.220
2020/01/31 14:13:11.0	0.930	-0.270	-0.630	-0.290
2020/01/31 14:13:11.1	0.950	-0.310	-0.610	-0.360
2020/01/31 14:13:11.2	0.970	-0.350	-0.580	-0.430
2020/01/31 14:13:11.3	0.990	-0.380	-0.550	-0.500
2020/01/31 14:13:11.4	1.010	-0.420	-0.530	-0.560
2020/01/31 14:13:11.5	1.030	-0.450	-0.500	-0.630
2020/01/31 14:13:11.6	1.070	-0.480	-0.470	-0.690
2020/01/31 14:13:11.7	1.080	-0.500	-0.450	-0.760
2020/01/31 14:13:11.8	1.100	-0.520	-0.420	-0.820
2020/01/31 14:13:11.9	1.120	-0.530	-0.390	-0.880
2020/01/31 14:13:12.0	1.140	-0.550	-0.370	-0.940
2020/01/31 14:13:12.1	1.160	-0.550	-0.340	-1.000
2020/01/31 14:13:12.2	1.170	-0.560	-0.320	-1.050
2020/01/31 14:13:12.3	1.190	-0.550	-0.300	-1.100
2020/01/31 14:13:12.4	1.200	-0.550	-0.270	-1.150
2020/01/31 14:13:12.5	1.220	-0.540	-0.250	-1.200
2020/01/31 14:13:12.6	1.230	-0.520	-0.240	-1.240
2020/01/31 14:13:12.7	1.240	-0.510	-0.220	-1.280
2020/01/31 14:13:12.8	1.250	-0.480	-0.200	-1.310
2020/01/31 14:13:12.9	1.250	-0.460	-0.190	-1.340
2020/01/31 14:13:13.0	1.260	-0.430	-0.180	-1.370
2020/01/31 14:13:13.1	1.260	-0.400	-0.170	-1.380
2020/01/31 14:13:13.2	1.250	-0.360	-0.160	-1.400
2020/01/31 14:13:13.3	1.250	-0.330	-0.150	-1.400
2020/01/31 14:13:13.4	1.240	-0.290	-0.140	-1.400
2020/01/31 14:13:13.5	1.220	-0.250	-0.130	-1.400
2020/01/31 14:13:13.6	1.200	-0.210	-0.130	-1.390
2020/01/31 14:13:13.7	1.180	-0.170	-0.120	-1.370
2020/01/31 14:13:13.8	1.160	-0.130	-0.110	-1.350
2020/01/31 14:13:13.9	1.140	-0.090	-0.110	-1.320
2020/01/31 14:13:14.0	1.110	-0.040	-0.100	-1.290
2020/01/31 14:13:14.1	1.080	-0.010	-0.090	-1.260
2020/01/31 14:13:14.2	1.050	0.030	-0.090	-1.220
2020/01/31 14:13:14.3	1.030	0.070	-0.080	-1.170
2020/01/31 14:13:14.4	1.000	0.100	-0.070	-1.130
2020/01/31 14:13:14.5	0.970	0.140	-0.070	-1.080
2020/01/31 14:13:14.6	0.930	0.170	-0.060	-1.030
2020/01/31 14:13:14.7	0.900	0.190	-0.050	-0.980
2020/01/31 14:13:14.8	0.870	0.210	-0.040	-0.920
2020/01/31 14:13:14.9	0.840	0.230	-0.040	-0.860
2020/01/31 14:13:15.0	0.820	0.250	-0.030	-0.800
2020/01/31 14:13:15.1	0.790	0.260	-0.020	-0.740
2020/01/31 14:13:15.2	0.770	0.270	-0.010	-0.680
2020/01/31 14:13:15.3	0.740	0.280	-0.010	-0.610
2020/01/31 14:13:15.4	0.720	0.280	-0.000	-0.550
2020/01/31 14:13:15.5	0.700	0.280	0.010	-0.490
2020/01/31 14:13:15.6	0.670	0.280	0.010	-0.420
2020/01/31 14:13:15.7	0.660	0.270	0.010	-0.350
2020/01/31 14:13:15.8	0.650	0.260	0.010	-0.290
2020/01/31 14:13:15.9	0.640	0.250	0.020	-0.220
2020/01/31 14:13:16.0	0.640	0.230	0.020	-0.160
2020/01/31 14:13:16.1	0.640	0.210	0.020	-0.100
2020/01/31 14:13:16.2	0.640	0.190	0.020	-0.040
2020/01/31 14:13:16.3	0.640	0.170	0.020	0.020
2020/01/31 14:13:16.4	0.650	0.150	0.020	0.080
2020/01/31 14:13:16.5	0.660	0.130	0.010	0.140
2020/01/31 14:13:16.6	0.670	0.100	0.010	0.180
2020/01/31 14:13:16.7	0.680	0.080	0.010	0.230
2020/01/31 14:13:16.8	0.700	0.050	0.010	0.280
2020/01/31 14:13:16.9	0.710	0.020	0.010	0.330
2020/01/31 14:13:17.0	0.730	-0.000	0.010	0.370
2020/01/31 14:13:17.1	0.740	-0.030	0.010	0.410
2020/01/31 14:13:17.2	0.760	-0.050	0.010	0.450
2020/01/31 14:13:17.3	0.770	-0.080	0.010	0.490
2020/01/31 14:13:17.4	0.780	-0.100	0.020	0.530
2020/01/31 14:13:17.5	0.780	-0.130	0.030	0.570
2020/01/31 14:13:17.6	0.800	-0.150	0.030	0.610
2020/01/31 14:13:17.7	0.800	-0.170	0.040	0.650
2020/01/31 14:13:17.8	0.800	-0.190	0.060	0.680
2020/01/31 14:13:17.9	0.790	-0.200	0.070	0.720
2020/01/31 14:13:18.0	0.780	-0.220	0.080	0.760
2020/01/31 14:13:18.1	0.770	-0.230	0.090	0.800
2020/01/31 14:13:18.2	0.750	-0.240	0.100	0.830
2020/01/31 14:13:18.3	0.730	-0.250	0.110	0.870
2020/01/31 14:13:18.4	0.710	-0.250	0.110	0.910
2020/01/31 14:13:18.5	0.680	-0.260	0.110	0.940
2020/01/31 14:13:18.6	0.660	-0.260	0.110	0.980
2020/01/31 14:13:18.7	0.630	-0.260	0.110	1.010
2020/01/31 14:13:18.8	0.600	-0.250	0.100	1.030
2020/01/31 14:13:18.9	0.570	-0.250	0.080	1.060
2020/01/31 14:13:19.0	0.540	-0.240	0.060	1.080
2020/01/31 14:13:19.1	0.520	-0.220	0.040	1.100
2020/01/31 14:13:19.2	0.490	-0.210	0.000	1.110
2020/01/31 14:13:19.3	0.460	-0.190	-0.040	1.120
2020/01/31 14:13:19.4	0.440	-0.170	-0.080	1.130
2020/01/31 14:13:19.5	0.420	-0.150	-0.130	1.130
2020/01/31 14:13:19.6	0.420	-0.130	-0.190	1.120
2020/01/31 14:13:19.7	0.400	-0.100	-0.260	1.110
2020/01/31 14:13:19.8	0.390	-0.080	-0.320	1.100
2020/01/31 14:13:19.9	0.390	-0.050	-0.390	1.080
2020/01/31 14:13:20.0	0.380	-0.020	-0.470	1.050
2020/01/31 14:13:20.1	0.380	0.020	-0.550	1.020
2020/01/31 14:13:20.2	0.380	0.050	-0.630	0.980
2020/01/31 14:13:20.3	0.390	0.090	-0.710	0.940
2020/01/31 14:13:20.4	0.400	0.120	-0.790	0.890
2020/01/31 14:13:20.5	0.410	0.160	-0.870	0.830
2020/01/31 14:13:20.6	0.420	0.190	-0.950	0.770
2020/01/31 14:13:20.7	0.440	0.230	-1.020	0.710
2020/01/31 14:13:20.8	0.460	0.260	-1.090	0.650
2020/01/31 14:13:20.9	0.480	0.290	-1.160	0.580
2020/01/31 14:13:21.0	0.500	0.330	-1.220	0.510
2020/01/31 14:13:21.1	0.520	0.360	-1.270	0.440
2020/01/31 14:13:21.2	0.540	0.380	-1.310	0.370
2020/01/31 14:13:21.3	0.550	0.410	-1.340	0.300
2020/01/31 14:13:21.4	0.570	0.430	-1.370	0.230
2020/01/31 14:13:21.5	0.580	0.450	-1.380	0.160
2020/01/31 14:13:21.6	0.600	0.470	-1.380	0.090
2020/01/31 14:13:21.7	0.610	0.480	-1.360	0.030
2020/01/31 14:13:21.8	0.620	0.490	-1.340	-0.030
2020/01/31 14:13:21.9	0.630	0.490	-1.300	-0.090
2020/01/31 14:13:22.0	0.630	0.490	-1.250	-0.140
2020/01/31 14:13:22.1	0.630	0.490	-1.190	-0.190
2020/01/31 14:13:22.2	0.640	0.480	-1.110	-0.230
2020/01/31 14:13:22.3	0.630	0.470	-1.030	-0.270
2020/01/31 14:13:22.4	0.630	0.450	-0.940	-0.310
2020/01/31 14:13:22.5	0.630	0.430	-0.840	-0.340
2020/01/31 14:13:22.6	0.620	0.410	-0.730	-0.360
2020/01/31 14:13:22.7	0.620	0.380	-0.620	-0.380
2020/01/31 14:13:22.8	0.610	0.340	-0.500	-0.400
2020/01/31 14:13:22.9	0.610	0.310	-0.380	-0.420
2020/01/31 14:13:23.0	0.600	0.270	-0.270	-0.440
2020/01/31 14:13:23.1	0.600	0.230	-0.150	-0.450
2020/01/31 14:13:23.2	0.590	0.190	-0.030	-0.460
2020/01/31 14:13:23.3	0.590	0.140	0.090	-0.470
2020/01/31 14:13:23.4	0.580	0.090	0.200	-0.470
2020/01/31 14:13:23.5	0.580	0.040	0.310	-0.480
2020/01/31 14:13:23.6	0.580	-0.010	0.410	-0.480
2020/01/31 14:13:23.7	0.570	-0.060	0.500	-0.480
2020/01/31 14:13:23.8	0.560	-0.110	0.580	-0.490
2020/01/31 14:13:23.9	0.550	-0.160	0.660	-0.490
2020/01/31 14:13:24.0	0.540	-0.210	0.730	-0.490
2020/01/31 14:13:24.1	0.530	-0.260	0.790	-0.490
2020/01/31 14:13:24.2	0.520	-0.300	0.840	-0.500
2020/01/31 14:13:24.3	0.510	-0.350	0.870	-0.500
2020/01/31 14:13:24.4	0.500	-0.390	0.900	-0.510
2020/01/31 14:13:24.5	0.490	-0.430	0.910	-0.520
2020/01/31 14:13:24.6	0.480	-0.470	0.910	-0.520
2020/01/31 14:13:24.7	0.470	-0.500	0.900	-0.540
2020/01/31 14:13:24.8	0.460	-0.530	0.880	-0.550
2020/01/31 14:13:24.9	0.450	-0.550	0.850	-0.570
2020/01/31 14:13:25.0	0.440	-0.570	0.810	-0.580
2020/01/31 14:13:25.1	0.440	-0.580	0.750	-0.600
2020/01/31 14:13:25.2	0.430	-0.590	0.690	-0.620
2020/01/31 14:13:25.3	0.430	-0.590	0.610	-0.650
2020/01/31 14:13:25.4	0.430	-0.580	0.530	-0.670
2020/01/31 14:13:25.5	0.430	-0.570	0.440	-0.700
2020/01/31 14:13:25.6	0.430	-0.560	0.340	-0.730
2020/01/31 14:13:25.7	0.430	-0.540	0.240	-0.760
2020/01/31 14:13:25.8	0.440	-0.510	0.130	-0.790
2020/01/31 14:13:25.9	0.460	-0.480	0.020	-0.820
2020/01/31 14:13:26.0	0.470	-0.450	-0.090	-0.850
2020/01/31 14:13:26.1	0.490	-0.410	-0.200	-0.890
2020/01/31 14:13:26.2	0.520	-0.360	-0.320	-0.920
2020/01/31 14:13:26.3	0.540	-0.320	-0.430	-0.960
2020/01/31 14:13:26.4	0.570	-0.270	-0.540	-1.000
2020/01/31 14:13:26.5	0.600	-0.210	-0.640	-1.040
2020/01/31 14:13:26.6	0.640	-0.160	-0.740	-1.080
2020/01/31 14:13:26.7	0.680	-0.110	-0.830	-1.120
2020/01/31 14:13:26.8	0.720	-0.050	-0.920	-1.160
2020/01/31 14:13:26.9	0.760	0.000	-0.990	-1.200
2020/01/31 14:13:27.0	0.800	0.060	-1.060	-1.240
2020/01/31 14:13:27.1	0.840	0.110	-1.120	-1.270
2020/01/31 14:13:27.2	0.880	0.160	-1.160	-1.300
2020/01/31 14:13:27.3	0.920	0.210	-1.200	-1.330
2020/01/31 14:13:27.4	0.950	0.260	-1.220	-1.350
2020/01/31 14:13:27.5	0.990	0.300	-1.230	-1.360
2020/01/31 14:13:27.6	1.030	0.340	-1.220	-1.370
2020/01/31 14:13:27.7	1.050	0.370	-1.200	-1.360
2020/01/31 14:13:27.8	1.070	0.400	-1.170	-1.360
2020/01/31 14:13:27.9	1.080	0.420	-1.120	-1.340
2020/01/31 14:13:28.0	1.080	0.430	-1.060	-1.310
2020/01/31 14:13:28.1	1.080	0.440	-0.990	-1.280
2020/01/31 14:13:28.2	1.080	0.440	-0.900	-1.240
2020/01/31 14:13:28.3	1.070	0.440	-0.800	-1.190
2020/01/31 14:13:28.4	1.050	0.430	-0.700	-1.140
2020/01/31 14:13:28.5	1.020	0.410	-0.580	-1.070
2020/01/31 14:13:28.6	0.980	0.390	-0.450	-1.000
2020/01/31 14:13:28.7	0.950	0.360	-0.320	-0.920
2020/01/31 14:13:28.8	0.910	0.320	-0.190	-0.840
2020/01/31 14:13:28.9	0.870	0.280	-0.050	-0.750
2020/01/31 14:13:29.0	0.820	0.240	0.090	-0.660
2020/01/31 14:13:29.1	0.770	0.190	0.230	-0.570
2020/01/31 14:13:29.2	0.710	0.130	0.360	-0.470
2020/01/31 14:13:29.3	0.660	0.080	0.500	-0.370
2020/01/31 14:13:29.4	0.600	0.020	0.620	-0.270
2020/01/31 14:13:29.5	0.540	-0.050	0.740	-0.180
2020/01/31 14:13:29.6	0.480	-0.110	0.840	-0.080
2020/01/31 14:13:29.7	0.420	-0.170	0.940	0.010
2020/01/31 14:13:29.8	0.370	-0.240	1.030	0.100
2020/01/31 14:13:29.9	0.310	-0.300	1.100	0.180
2020/01/31 14:13:30.0	0.260	-0.360	1.160	0.260
2020/01/31 14:13:30.1	0.210	-0.410	1.200	0.330
2020/01/31 14:13:30.2	0.160	-0.460	1.230	0.390
2020/01/31 14:13:30.3	0.110	-0.510	1.240	0.440
2020/01/31 14:13:30.4	0.070	-0.550	1.240	0.490
2020/01/31 14:13:30.5	0.040	-0.590	1.220	0.530
2020/01/31 14:13:30.6	0.000	-0.620	1.180	0.560
2020/01/31 14:13:30.7	359.970	-0.640	1.130	0.580
2020/01/31 14:13:30.8	359.940	-0.660	1.060	0.590
2020/01/31 14:13:30.9	359.920	-0.670	0.980	0.600
2020/01/31 14:13:31.0	359.900	-0.670	0.880	0.600
2020/01/31 14:13:31.1	359.890	-0.660	0.770	0.600
2020/01/31 14:13:31.2	359.870	-0.650	0.650	0.590
2020/01/31 14:13:31.3	359.860	-0.630	0.520	0.580
2020/01/31 14:13:31.4	359.850	-0.600	0.380	0.560
2020/01/31 14:13:31.5	359.850	-0.560	0.230	0.540
2020/01/31 14:13:31.6	359.840	-0.520	0.080	0.510
2020/01/31 14:13:31.7	359.840	-0.470	-0.080	0.480
2020/01/31 14:13:31.8	359.840	-0.410	-0.240	0.450
2020/01/31 14:13:31.9	359.850	-0.350	-0.400	0.420
2020/01/31 14:13:32.0	359.860	-0.290	-0.560	0.390
2020/01/31 14:13:32.1	359.860	-0.220	-0.720	0.350
2020/01/31 14:13:32.2	359.880	-0.150	-0.870	0.310
2020/01/31 14:13:32.3	359.890	-0.070	-1.020	0.270
2020/01/31 14:13:32.4	359.920	0.010	-1.170	0.220
2020/01/31 14:13:32.5	359.940	0.080	-1.310	0.170
2020/01/31 14:13:32.6	359.970	0.160	-1.440	0.130
2020/01/31 14:13:32.7	0.000	0.240	-1.560	0.080
2020/01/31 14:13:32.8	0.030	0.310	-1.670	0.020
2020/01/31 14:13:32.9	0.070	0.380	-1.780	-0.030
2020/01/31 14:13:33.0	0.110	0.450	-1.870	-0.090
2020/01/31 14:13:33.1	0.150	0.520	-1.950	-0.150
2020/01/31 14:13:33.2	0.190	0.580	-2.020	-0.200
2020/01/31 14:13:33.3	0.240	0.640	-2.070	-0.260
2020/01/31 14:13:33.4	0.290	0.690	-2.120	-0.320
2020/01/31 14:13:33.5	0.340	0.740	-2.140	-0.370
2020/01/31 14:13:33.6	0.370	0.780	-2.160	-0.430
2020/01/31 14:13:33.7	0.420	0.810	-2.160	-0.490
2020/01/31 14:13:33.8	0.470	0.840	-2.150	-0.540
2020/01/31 14:13:33.9	0.520	0.850	-2.120	-0.580
2020/01/31 14:13:34.0	0.570	0.870	-2.080	-0.630
2020/01/31 14:13:34.1	0.620	0.870	-2.020	-0.670
2020/01/31 14:13:34.2	0.660	0.870	-1.950	-0.710
2020/01/31 14:13:34.3	0.700	0.850	-1.860	-0.740
2020/01/31 14:13:34.4	0.740	0.840	-1.760	-0.760
2020/01/31 14:13:34.5	0.770	0.810	-1.650	-0.790
2020/01/31 14:13:34.6	0.800	0.770	-1.530	-0.800
2020/01/31 14:13:34.7	0.820	0.730	-1.400	-0.810
2020/01/31 14:13:34.8	0.840	0.690	-1.260	-0.820
2020/01/31 14:13:34.9	0.860	0.630	-1.110	-0.820
2020/01/31 14:13:35.0	0.870	0.570	-0.950	-0.820
2020/01/31 14:13:35.1	0.880	0.510	-0.790	-0.810
2020/01/31 14:13:35.2	0.890	0.440	-0.630	-0.800
2020/01/31 14:13:35.3	0.890	0.370	-0.460	-0.790
2020/01/31 14:13:35.4	0.880	0.300	-0.290	-0.770
2020/01/31 14:13:35.5	0.870	0.220	-0.120	-0.750
2020/01/31 14:13:35.6	0.870	0.140	0.040	-0.720
2020/01/31 14:13:35.7	0.860	0.060	0.210	-0.700
2020/01/31 14:13:35.8	0.840	-0.030	0.370	-0.670
2020/01/31 14:13:35.9	0.810	-0.110	0.520	-0.630
2020/01/31 14:13:36.0	0.790	-0.190	0.670	-0.600
2020/01/31 14:13:36.1	0.760	-0.270	0.810	-0.560
2020/01/31 14:13:36.2	0.720	-0.340	0.940	-0.530
2020/01/31 14:13:36.3	0.690	-0.420	1.060	-0.490
2020/01/31 14:13:36.4	0.650	-0.490	1.170	-0.450
2020/01/31 14:13:36.5	0.610	-0.560	1.270	-0.420
2020/01/31 14:13:36.6	0.590	-0.620	1.350	-0.380
2020/01/31 14:13:36.7	0.550	-0.680	1.420	-0.340
2020/01/31 14:13:36.8	0.500	-0.730	1.480	-0.310
2020/01/31 14:13:36.9	0.460	-0.780	1.530	-0.280
2020/01/31 14:13:37.0	0.420	-0.820	1.560	-0.250
2020/01/31 14:13:37.1	0.370	-0.860	1.580	-0.230
2020/01/31 14:13:37.2	0.330	-0.890	1.590	-0.200
2020/01/31 14:13:37.3	0.290	-0.910	1.580	-0.180
2020/01/31 14:13:37.4	0.250	-0.920	1.550	-0.160
2020/01/31 14:13:37.5	0.200	-0.930	1.520	-0.140
2020/01/31 14:13:37.6	0.170	-0.930	1.480	-0.130
2020/01/31 14:13:37.7	0.120	-0.930	1.420	-0.110
2020/01/31 14:13:37.8	0.080	-0.920	1.350	-0.100
2020/01/31 14:13:37.9	0.040	-0.900	1.270	-0.080
2020/01/31 14:13:38.0	0.010	-0.880	1.190	-0.070
2020/01/31 14:13:38.1	359.970	-0.840	1.090	-0.060
2020/01/31 14:13:38.2	359.930	-0.810	0.990	-0.040
2020/01/31 14:13:38.3	359.890	-0.770	0.890	-0.030
2020/01/31 14:13:38.4	359.860	-0.720	0.780	-0.020
2020/01/31 14:13:38.5	359.830	-0.670	0.670	-0.000
2020/01/31 14:13:38.6	359.780	-0.610	0.550	0.010
2020/01/31 14:13:38.7	359.750	-0.550	0.430	0.030
2020/01/31 14:13:38.8	359.720	-0.490	0.320	0.050
2020/01/31 14:13:38.9	359.690	-0.420	0.210	0.070
2020/01/31 14:13:39.0	359.660	-0.350	0.090	0.090
2020/01/31 14:13:39.1	359.630	-0.290	-0.010	0.110
2020/01/31 14:13:39.2	359.610	-0.220	-0.120	0.140
2020/01/31 14:13:39.3	359.580	-0.150	-0.220	0.170
2020/01/31 14:13:39.4	359.560	-0.080	-0.310	0.200
2020/01/31 14:13:39.5	359.530	-0.010	-0.400	0.230
2020/01/31 14:13:39.6	359.500	0.060	-0.480	0.260
2020/01/31 14:13:39.7	359.480	0.130	-0.550	0.290
2020/01/31 14:13:39.8	359.460	0.190	-0.620	0.320
2020/01/31 14:13:39.9	359.450	0.250	-0.680	0.360
2020/01/31 14:13:40.0	359.430	0.310	-0.740	0.390
2020/01/31 14:13:40.1	359.420	0.360	-0.790	0.420
2020/01/31 14:13:40.2	359.410	0.410	-0.830	0.440
2020/01/31 14:13:40.3	359.410	0.460	-0.860	0.470
2020/01/31 14:13:40.4	359.400	0.500	-0.900	0.500
2020/01/31 14:13:40.5	359.400	0.540	-0.920	0.520
2020/01/31 14:13:40.6	359.410	0.570	-0.940	0.540
2020/01/31 14:13:40.7	359.410	0.600	-0.950	0.560
2020/01/31 14:13:40.8	359.420	0.620	-0.960	0.580
2020/01/31 14:13:40.9	359.430	0.640	-0.970	0.590
2020/01/31 14:13:41.0	359.440	0.650	-0.970	0.600
2020/01/31 14:13:41.1	359.460	0.660	-0.970	0.610
2020/01/31 14:13:41.2	359.480	0.660	-0.970	0.620
2020/01/31 14:13:41.3	359.500	0.660	-0.960	0.620
2020/01/31 14:13:41.4	359.520	0.650	-0.950	0.620
2020/01/31 14:13:41.5	359.540	0.640	-0.940	0.620
2020/01/31 14:13:41.6	359.570	0.620	-0.930	0.610
2020/01/31 14:13:41.7	359.590	0.600	-0.910	0.610
2020/01/31 14:13:41.8	359.610	0.580	-0.890	0.590
2020/01/31 14:13:41.9	359.640	0.560	-0.870	0.580
2020/01/31 14:13:42.0	359.660	0.530	-0.850	0.560
2020/01/31 14:13:42.1	359.680	0.500	-0.830	0.540
2020/01/31 14:13:42.2	359.710	0.460	-0.800	0.520
2020/01/31 14:13:42.3	359.730	0.430	-0.780	0.500
2020/01/31 14:13:42.4	359.750	0.390	-0.750	0.480
2020/01/31 14:13:42.5	359.760	0.360	-0.730	0.450
2020/01/31 14:13:42.6	359.760	0.320	-0.700	0.420
2020/01/31 14:13:42.7	359.770	0.280	-0.670	0.390
2020/01/31 14:13:42.8	359.780	0.240	-0.640	0.360
2020/01/31 14:13:42.9	359.790	0.210	-0.610	0.340
2020/01/31 14:13:43.0	359.790	0.170	-0.580	0.310
2020/01/31 14:13:43.1	359.800	0.140	-0.550	0.280
2020/01/31 14:13:43.2	359.800	0.100	-0.520	0.260
2020/01/31 14:13:43.3	359.800	0.070	-0.490	0.230
2020/01/31 14:13:43.4	359.790	0.040	-0.460	0.210
2020/01/31 14:13:43.5	359.790	0.020	-0.430	0.190
2020/01/31 14:13:43.6	359.770	-0.010	-0.400	0.160
2020/01/31 14:13:43.7	359.760	-0.030	-0.380	0.140
2020/01/31 14:13:43.8	359.750	-0.050	-0.350	0.120
2020/01/31 14:13:43.9	359.730	-0.070	-0.330	0.100
2020/01/31 14:13:44.0	359.720	-0.090	-0.300	0.080
2020/01/31 14:13:44.1	359.710	-0.100	-0.280	0.050
2020/01/31 14:13:44.2	359.690	-0.110	-0.260	0.030
2020/01/31 14:13:44.3	359.680	-0.120	-0.240	0.010
2020/01/31 14:13:44.4	359.660	-0.130	-0.230	-0.020
2020/01/31 14:13:44.5	359.650	-0.130	-0.210	-0.040
2020/01/31 14:13:44.6	359.650	-0.130	-0.200	-0.070
2020/01/31 14:13:44.7	359.640	-0.130	-0.190	-0.100
2020/01/31 14:13:44.8	359.630	-0.130	-0.180	-0.130
2020/01/31 14:13:44.9	359.630	-0.130	-0.180	-0.160
2020/01/31 14:13:45.0	359.630	-0.120	-0.170	-0.190
2020/01/31 14:13:45.1	359.620	-0.110	-0.170	-0.220
2020/01/31 14:13:45.2	359.630	-0.110	-0.170	-0.250
2020/01/31 14:13:45.3	359.630	-0.090	-0.170	-0.280
2020/01/31 14:13:45.4	359.640	-0.080	-0.170	-0.310
2020/01/31 14:13:45.5	359.650	-0.070	-0.180	-0.340
2020/01/31 14:13:45.6	359.650	-0.050	-0.180	-0.360
2020/01/31 14:13:45.7	359.670	-0.040	-0.190	-0.390
2020/01/31 14:13:45.8	359.680	-0.020	-0.190	-0.410
2020/01/31 14:13:45.9	359.700	-0.010	-0.200	-0.430
2020/01/31 14:13:46.0	359.710	0.010	-0.200	-0.450
2020/01/31 14:13:46.1	359.730	0.020	-0.210	-0.470
2020/01/31 14:13:46.2	359.750	0.040	-0.210	-0.490
2020/01/31 14:13:46.3	359.770	0.050	-0.210	-0.500
2020/01/31 14:13:46.4	359.790	0.060	-0.220	-0.510
2020/01/31 14:13:46.5	359.810	0.080	-0.220	-0.520
2020/01/31 14:13:46.6	359.830	0.090	-0.220	-0.520
2020/01/31 14:13:46.7	359.850	0.100	-0.220	-0.520
2020/01/31 14:13:46.8	359.870	0.110	-0.220	-0.520
2020/01/31 14:13:46.9	359.890	0.110	-0.220	-0.520
2020/01/31 14:13:47.0	359.920	0.120	-0.220	-0.510
2020/01/31 14:13:47.1	359.940	0.120	-0.210	-0.510
2020/01/31 14:13:47.2	359.960	0.120	-0.210	-0.500
2020/01/31 14:13:47.3	359.980	0.120	-0.200	-0.490
2020/01/31 14:13:47.4	0.010	0.120	-0.200	-0.470
2020/01/31 14:13:47.5	0.030	0.120	-0.190	-0.460
2020/01/31 14:13:47.6	0.050	0.110	-0.180	-0.440
2020/01/31 14:13:47.7	0.080	0.110	-0.170	-0.420
2020/01/31 14:13:47.8	0.100	0.100	-0.170	-0.410
2020/01/31 14:13:47.9	0.120	0.090	-0.160	-0.390
2020/01/31 14:13:48.0	0.150	0.080	-0.150	-0.370
2020/01/31 14:13:48.1	0.170	0.070	-0.140	-0.350
2020/01/31 14:13:48.2	0.190	0.060	-0.140	-0.330
2020/01/31 14:13:48.3	0.220	0.040	-0.130	-0.310
2020/01/31 14:13:48.4	0.240	0.030	-0.120	-0.290
2020/01/31 14:13:48.5	0.260	0.020	-0.110	-0.270
2020/01/31 14:13:48.6	0.280	0.000	-0.100	-0.250
2020/01/31 14:13:48.7	0.300	-0.010	-0.090	-0.230
2020/01/31 14:13:48.8	0.310	-0.030	-0.080	-0.200
2020/01/31 14:13:48.9	0.330	-0.050	-0.070	-0.180
2020/01/31 14:13:49.0	0.340	-0.060	-0.060	-0.160
2020/01/31 14:13:49.1	0.350	-0.080	-0.040	-0.140
2020/01/31 14:13:49.2	0.350	-0.090	-0.030	-0.110
2020/01/31 14:13:49.3	0.360	-0.110	-0.010	-0.090
2020/01/31 14:13:49.4	0.360	-0.130	0.010	-0.070
2020/01/31 14:13:49.5	0.360	-0.150	0.020	-0.040
2020/01/31 14:13:49.6	0.360	-0.160	0.040	-0.020
2020/01/31 14:13:49.7	0.360	-0.180	0.050	0.010
2020/01/31 14:13:49.8	0.350	-0.200	0.070	0.030
2020/01/31 14:13:49.9	0.350	-0.220	0.090	0.050
2020/01/31 14:13:50.0	0.340	-0.230	0.100	0.070
2020/01/31 14:13:50.1	0.340	-0.250	0.120	0.090
2020/01/31 14:13:50.2	0.330	-0.270	0.130	0.110
2020/01/31 14:13:50.3	0.320	-0.280	0.140	0.130
2020/01/31 14:13:50.4	0.320	-0.300	0.150	0.140
2020/01/31 14:13:50.5	0.310	-0.320	0.160	0.160
2020/01/31 14:13:50.6	0.320	-0.330	0.170	0.170
2020/01/31 14:13:50.7	0.310	-0.340	0.180	0.180
2020/01/31 14:13:50.8	0.300	-0.350	0.180	0.190
2020/01/31 14:13:50.9	0.290	-0.370	0.190	0.200
2020/01/31 14:13:51.0	0.280	-0.370	0.190	0.210
2020/01/31 14:13:51.1	0.270	-0.380	0.190	0.210
2020/01/31 14:13:51.2	0.260	-0.390	0.190	0.220
2020/01/31 14:13:51.3	0.250	-0.390	0.190	0.220
2020/01/31 14:13:51.4	0.240	-0.390	0.180	0.210
2020/01/31 14:13:51.5	0.230	-0.390	0.180	0.210
2020/01/31 14:13:51.6	0.230	-0.390	0.170	0.210
2020/01/31 14:13:51.7	0.220	-0.390	0.170	0.210
2020/01/31 14:13:51.8	0.200	-0.380	0.160	0.200
2020/01/31 14:13:51.9	0.190	-0.370	0.150	0.190
2020/01/31 14:13:52.0	0.170	-0.360	0.150	0.190
2020/01/31 14:13:52.1	0.150	-0.340	0.140	0.180
2020/01/31 14:13:52.2	0.130	-0.330	0.140	0.180
2020/01/31 14:13:52.3	0.110	-0.310	0.130	0.180
2020/01/31 14:13:52.4	0.080	-0.280	0.120	0.180
2020/01/31 14:13:52.5	0.060	-0.260	0.120	0.180
2020/01/31 14:13:52.6	0.030	-0.230	0.110	0.180
2020/01/31 14:13:52.7	0.000	-0.200	0.100	0.180
2020/01/31 14:13:52.8	359.970	-0.170	0.090	0.180
2020/01/31 14:13:52.9	359.940	-0.140	0.080	0.190
2020/01/31 14:13:53.0	359.910	-0.100	0.070	0.190
2020/01/31 14:13:53.1	359.880	-0.070	0.060	0.200
2020/01/31 14:13:53.2	359.840	-0.030	0.040	0.210
2020/01/31 14:13:53.3	359.810	0.010	0.020	0.210
2020/01/31 14:13:53.4	359.780	0.050	-0.000	0.220
2020/01/31 14:13:53.5	359.760	0.080	-0.030	0.230
2020/01/31 14:13:53.6	359.720	0.120	-0.060	0.230
2020/01/31 14:13:53.7	359.700	0.160	-0.100	0.240
2020/01/31 14:13:53.8	359.670	0.200	-0.140	0.240
2020/01/31 14:13:53.9	359.650	0.240	-0.180	0.240
2020/01/31 14:13:54.0	359.640	0.280	-0.230	0.240
2020/01/31 14:13:54.1	359.620	0.320	-0.280	0.240
2020/01/31 14:13:54.2	359.620	0.350	-0.340	0.230
2020/01/31 14:13:54.3	359.610	0.390	-0.400	0.220
2020/01/31 14:13:54.4	359.610	0.420	-0.460	0.200
2020/01/31 14:13:54.5	359.620	0.460	-0.530	0.190
2020/01/31 14:13:54.6	359.620	0.490	-0.610	0.160
2020/01/31 14:13:54.7	359.640	0.530	-0.680	0.130
2020/01/31 14:13:54.8	359.670	0.560	-0.760	0.100
2020/01/31 14:13:54.9	359.700	0.590	-0.840	0.060
2020/01/31 14:13:55.0	359.730	0.610	-0.930	0.020
2020/01/31 14:13:55.1	359.770	0.640	-1.010	-0.020
2020/01/31 14:13:55.2	359.820	0.670	-1.090	-0.070
2020/01/31 14:13:55.3	359.870	0.690	-1.170	-0.120
2020/01/31 14:13:55.4	359.920	0.710	-1.250	-0.180
2020/01/31 14:13:55.5	359.980	0.720	-1.330	-0.230
2020/01/31 14:13:55.6	0.060	0.740	-1.390	-0.290
2020/01/31 14:13:55.7	0.130	0.750	-1.460	-0.340
2020/01/31 14:13:55.8	0.190	0.750	-1.510	-0.400
2020/01/31 14:13:55.9	0.260	0.760	-1.560	-0.450
2020/01/31 14:13:56.0	0.320	0.750	-1.590	-0.500
2020/01/31 14:13:56.1	0.390	0.750	-1.620	-0.550
2020/01/31 14:13:56.2	0.450	0.740	-1.630	-0.600
2020/01/31 14:13:56.3	0.510	0.720	-1.640	-0.640
2020/01/31 14:13:56.4	0.580	0.700	-1.630	-0.680
2020/01/31 14:13:56.5	0.630	0.670	-1.600	-0.710
2020/01/31 14:13:56.6	0.690	0.640	-1.570	-0.740
2020/01/31 14:13:56.7	0.740	0.600	-1.530	-0.780
2020/01/31 14:13:56.8	0.790	0.560	-1.470	-0.800
2020/01/31 14:13:56.9	0.840	0.520	-1.400	-0.830
2020/01/31 14:13:57.0	0.880	0.470	-1.320	-0.860
2020/01/31 14:13:57.1	0.930	0.410	-1.230	-0.880
2020/01/31 14:13:57.2	0.960	0.350	-1.130	-0.900
2020/01/31 14:13:57.3	1.000	0.290	-1.030	-0.920
2020/01/31 14:13:57.4	1.030	0.230	-0.910	-0.940
2020/01/31 14:13:57.5	1.050	0.160	-0.790	-0.960
2020/01/31 14:13:57.6	1.080	0.090	-0.670	-0.980
2020/01/31 14:13:57.7	1.100	0.020	-0.550	-0.990
2020/01/31 14:13:57.8	1.120	-0.060	-0.420	-1.010
2020/01/31 14:13:57.9	1.130	-0.130	-0.290	-1.030
2020/01/31 14:13:58.0	1.140	-0.200	-0.160	-1.040
2020/01/31 14:13:58.1	1.140	-0.280	-0.040	-1.050
2020/01/31 14:13:58.2	1.150	-0.350	0.090	-1.070
2020/01/31 14:13:58.3	1.140	-0.420	0.210	-1.080
2020/01/31 14:13:58.4	1.140	-0.490	0.330	-1.080
2020/01/31 14:13:58.5	1.130	-0.550	0.440	-1.090
2020/01/31 14:13:58.6	1.100	-0.620	0.540	-1.090
2020/01/31 14:13:58.7	1.080	-0.670	0.640	-1.090
2020/01/31 14:13:58.8	1.060	-0.730	0.730	-1.090
2020/01/31 14:13:58.9	1.030	-0.780	0.820	-1.080
2020/01/31 14:13:59.0	1.010	-0.830	0.890	-1.070
2020/01/31 14:13:59.1	0.970	-0.870	0.960	-1.070
2020/01/31 14:13:59.2	0.940	-0.900	1.010	-1.060
2020/01/31 14:13:59.3	0.910	-0.930	1.060	-1.050
2020/01/31 14:13:59.4	0.870	-0.950	1.090	-1.030
2020/01/31 14:13:59.5	0.840	-0.970	1.120	-1.020
2020/01/31 14:13:59.6	0.800	-0.980	1.130	-1.010
2020/01/31 14:13:59.7	0.770	-0.980	1.140	-1.000
2020/01/31 14:13:59.8	0.730	-0.970	1.130	-0.980
2020/01/31 14:13:59.9	0.700	-0.960	1.110	-0.970
2020/01/31 14:14:00.0	0.670	-0.950	1.090	-0.950
2020/01/31 14:14:00.1	0.640	-0.920	1.050	-0.930
2020/01/31 14:14:00.2	0.610	-0.890	1.010	-0.910
2020/01/31 14:14:00.3	0.580	-0.860	0.960	-0.890
2020/01/31 14:14:00.4	0.560	-0.810	0.900	-0.870
2020/01/31 14:14:00.5	0.530	-0.760	0.830	-0.850
2020/01/31 14:14:00.6	0.510	-0.710	0.760	-0.830
2020/01/31 14:14:00.7	0.490	-0.650	0.690	-0.810
2020/01/31 14:14:00.8	0.480	-0.590	0.610	-0.780
2020/01/31 14:14:00.9	0.460	-0.520	0.520	-0.750
2020/01/31 14:14:01.0	0.450	-0.450	0.440	-0.720
2020/01/31 14:14:01.1	0.440	-0.380	0.350	-0.680
2020/01/31 14:14:01.2	0.430	-0.310	0.270	-0.650
2020/01/31 14:14:01.3	0.420	-0.230	0.180	-0.600
2020/01/31 14:14:01.4	0.420	-0.160	0.100	-0.560
2020/01/31 14:14:01.5	0.410	-0.080	0.020	-0.510
2020/01/31 14:14:01.6	0.400	-0.010	-0.050	-0.460
2020/01/31 14:14:01.7	0.390	0.060	-0.120	-0.410
2020/01/31 14:14:01.8	0.380	0.130	-0.190	-0.350
2020/01/31 14:14:01.9	0.370	0.200	-0.250	-0.290
2020/01/31 14:14:02.0	0.360	0.260	-0.310	-0.230
2020/01/31 14:14:02.1	0.350	0.320	-0.360	-0.170
2020/01/31 14:14:02.2	0.340	0.370	-0.400	-0.100
2020/01/31 14:14:02.3	0.320	0.420	-0.440	-0.040
2020/01/31 14:14:02.4	0.310	0.470	-0.470	0.020
2020/01/31 14:14:02.5	0.290	0.500	-0.490	0.090
2020/01/31 14:14:02.6	0.260	0.540	-0.510	0.150
2020/01/31 14:14:02.7	0.240	0.560	-0.520	0.210
2020/01/31 14:14:02.8	0.220	0.580	-0.530	0.270
2020/01/31 14:14:02.9	0.200	0.590	-0.530	0.320
2020/01/31 14:14:03.0	0.170	0.600	-0.530	0.380
2020/01/31 14:14:03.1	0.150	0.600	-0.520	0.420
2020/01/31 14:14:03.2	0.130	0.600	-0.510	0.470
2020/01/31 14:14:03.3	0.100	0.590	-0.490	0.510
2020/01/31 14:14:03.4	0.080	0.580	-0.480	0.540
2020/01/31 14:14:03.5	0.060	0.560	-0.460	0.570
2020/01/31 14:14:03.6	0.030	0.540	-0.440	0.600
2020/01/31 14:14:03.7	0.010	0.510	-0.420	0.620
2020/01/31 14:14:03.8	359.990	0.480	-0.400	0.640
2020/01/31 14:14:03.9	359.970	0.450	-0.380	0.650
2020/01/31 14:14:04.0	359.960	0.410	-0.360	0.660
2020/01/31 14:14:04.1	359.940	0.370	-0.340	0.670
2020/01/31 14:14:04.2	359.930	0.330	-0.320	0.670
2020/01/31 14:14:04.3	359.930	0.290	-0.310	0.670
2020/01/31 14:14:04.4	359.920	0.250	-0.290	0.660
2020/01/31 14:14:04.5	359.910	0.210	-0.280	0.650
2020/01/31 14:14:04.6	359.900	0.170	-0.270	0.640
2020/01/31 14:14:04.7	359.900	0.130	-0.270	0.630
2020/01/31 14:14:04.8	359.900	0.100	-0.270	0.610
2020/01/31 14:14:04.9	359.900	0.060	-0.270	0.600
2020/01/31 14:14:05.0	359.900	0.030	-0.280	0.580
2020/01/31 14:14:05.1	359.910	-0.010	-0.280	0.550
2020/01/31 14:14:05.2	359.920	-0.040	-0.290	0.530
2020/01/31 14:14:05.3	359.930	-0.070	-0.310	0.500
2020/01/31 14:14:05.4	359.940	-0.090	-0.320	0.470
2020/01/31 14:14:05.5	359.950	-0.120	-0.340	0.440
2020/01/31 14:14:05.6	359.960	-0.140	-0.360	0.410
2020/01/31 14:14:05.7	359.970	-0.160	-0.380	0.380
2020/01/31 14:14:05.8	359.990	-0.170	-0.410	0.340
2020/01/31 14:14:05.9	0.010	-0.180	-0.430	0.300
2020/01/31 14:14:06.0	0.030	-0.190	-0.460	0.250
2020/01/31 14:14:06.1	0.050	-0.200	-0.490	0.210
2020/01/31 14:14:06.2	0.070	-0.210	-0.520	0.160
2020/01/31 14:14:06.3	0.100	-0.210	-0.550	0.120
2020/01/31 14:14:06.4	0.120	-0.200	-0.580	0.070
2020/01/31 14:14:06.5	0.150	-0.200	-0.610	0.020
2020/01/31 14:14:06.6	0.180	-0.190	-0.640	-0.040
2020/01/31 14:14:06.7	0.210	-0.180	-0.670	-0.090
2020/01/31 14:14:06.8	0.240	-0.170	-0.700	-0.140
2020/01/31 14:14:06.9	0.270	-0.160	-0.720	-0.180
2020/01/31 14:14:07.0	0.300	-0.140	-0.750	-0.230
2020/01/31 14:14:07.1	0.320	-0.130	-0.770	-0.280
2020/01/31 14:14:07.2	0.350	-0.110	-0.790	-0.320
2020/01/31 14:14:07.3	0.380	-0.090	-0.810	-0.370
2020/01/31 14:14:07.4	0.410	-0.070	-0.830	-0.410
2020/01/31 14:14:07.5	0.430	-0.050	-0.840	-0.450
2020/01/31 14:14:07.6	0.470	-0.030	-0.860	-0.490
2020/01/31 14:14:07.7	0.500	-0.010	-0.870	-0.530
2020/01/31 14:14:07.8	0.520	0.000	-0.870	-0.570
2020/01/31 14:14:07.9	0.550	0.020	-0.880	-0.620
2020/01/31 14:14:08.0	0.580	0.040	-0.880	-0.660
2020/01/31 14:14:08.1	0.610	0.060	-0.880	-0.700
2020/01/31 14:14:08.2	0.640	0.070	-0.870	-0.750
2020/01/31 14:14:08.3	0.680	0.090	-0.870	-0.800
2020/01/31 14:14:08.4	0.710	0.100	-0.860	-0.840
2020/01/31 14:14:08.5	0.740	0.110	-0.840	-0.890
2020/01/31 14:14:08.6	0.780	0.120	-0.830	-0.940
2020/01/31 14:14:08.7	0.810	0.130	-0.810	-0.990
2020/01/31 14:14:08.8	0.840	0.140	-0.790	-1.030
2020/01/31 14:14:08.9	0.870	0.150	-0.760	-1.080
2020/01/31 14:14:09.0	0.890	0.160	-0.740	-1.120
2020/01/31 14:14:09.1	0.920	0.160	-0.700	-1.160
2020/01/31 14:14:09.2	0.950	0.160	-0.670	-1.190
2020/01/31 14:14:09.3	0.970	0.170	-0.630	-1.220
2020/01/31 14:14:09.4	0.990	0.170	-0.590	-1.250
2020/01/31 14:14:09.5	1.010	0.160	-0.550	-1.280
2020/01/31 14:14:09.6	1.040	0.160	-0.510	-1.290
2020/01/31 14:14:09.7	1.060	0.160	-0.460	-1.310
2020/01/31 14:14:09.8	1.070	0.150	-0.410	-1.320
2020/01/31 14:14:09.9	1.080	0.150	-0.350	-1.320
2020/01/31 14:14:10.0	1.090	0.140	-0.290	-1.320
2020/01/31 14:14:10.1	1.090	0.130	-0.230	-1.310
2020/01/31 14:14:10.2	1.100	0.120	-0.170	-1.290
2020/01/31 14:14:10.3	1.090	0.110	-0.100	-1.270
2020/01/31 14:14:10.4	1.090	0.100	-0.030	-1.250
2020/01/31 14:14:10.5	1.090	0.090	0.030	-1.220
2020/01/31 14:14:10.6	1.080	0.080	0.100	-1.190
2020/01/31 14:14:10.7	1.060	0.070	0.170	-1.150
2020/01/31 14:14:10.8	1.050	0.050	0.240	-1.110
2020/01/31 14:14:10.9	1.030	0.040	0.300	-1.070
2020/01/31 14:14:11.0	1.010	0.020	0.370	-1.020
2020/01/31 14:14:11.1	0.990	0.010	0.420	-0.970
2020/01/31 14:14:11.2	0.970	-0.000	0.480	-0.910
2020/01/31 14:14:11.3	0.940	-0.020	0.530	-0.860
2020/01/31 14:14:11.4	0.920	-0.030	0.580	-0.800
2020/01/31 14:14:11.5	0.890	-0.050	0.620	-0.740
2020/01/31 14:14:11.6	0.850	-0.060	0.660	-0.670
2020/01/31 14:14:11.7	0.820	-0.080	0.690	-0.610
2020/01/31 14:14:11.8	0.790	-0.090	0.720	-0.550
2020/01/31 14:14:11.9	0.760	-0.110	0.740	-0.490
2020/01/31 14:14:12.0	0.720	-0.120	0.750	-0.430
2020/01/31 14:14:12.1	0.690	-0.130	0.760	-0.370
2020/01/31 14:14:12.2	0.660	-0.150	0.770	-0.320
2020/01/31 14:14:12.3	0.630	-0.160	0.770	-0.260
2020/01/31 14:14:12.4	0.590	-0.170	0.760	-0.210
2020/01/31 14:14:12.5	0.560	-0.180	0.750	-0.160
2020/01/31 14:14:12.6	0.540	-0.190	0.740	-0.110
2020/01/31 14:14:12.7	0.510	-0.200	0.720	-0.060
2020/01/31 14:14:12.8	0.480	-0.210	0.700	-0.020
2020/01/31 14:14:12.9	0.450	-0.220	0.670	0.020
2020/01/31 14:14:13.0	0.420	-0.230	0.640	0.060
2020/01/31 14:14:13.1	0.400	-0.230	0.600	0.090
2020/01/31 14:14:13.2	0.380	-0.240	0.560	0.120
2020/01/31 14:14:13.3	0.360	-0.240	0.520	0.150
2020/01/31 14:14:13.4	0.340	-0.240	0.470	0.180
2020/01/31 14:14:13.5	0.320	-0.250	0.430	0.200
2020/01/31 14:14:13.6	0.290	-0.250	0.370	0.220
2020/01/31 14:14:13.7	0.280	-0.240	0.320	0.240
2020/01/31 14:14:13.8	0.280	-0.240	0.260	0.250
2020/01/31 14:14:13.9	0.270	-0.240	0.210	0.260
2020/01/31 14:14:14.0	0.270	-0.230	0.140	0.270
2020/01/31 14:14:14.1	0.280	-0.220	0.080	0.270
2020/01/31 14:14:14.2	0.290	-0.210	0.020	0.270
2020/01/31 14:14:14.3	0.300	-0.200	-0.050	0.260
2020/01/31 14:14:14.4	0.320	-0.180	-0.120	0.260
2020/01/31 14:14:14.5	0.340	-0.170	-0.190	0.240
2020/01/31 14:14:14.6	0.370	-0.150	-0.260	0.220
2020/01/31 14:14:14.7	0.400	-0.130	-0.330	0.200
2020/01/31 14:14:14.8	0.440	-0.110	-0.400	0.170
2020/01/31 14:14:14.9	0.480	-0.090	-0.470	0.140
2020/01/31 14:14:15.0	0.520	-0.060	-0.540	0.100
2020/01/31 14:14:15.1	0.570	-0.040	-0.610	0.060
2020/01/31 14:14:15.2	0.620	-0.020	-0.680	0.020
2020/01/31 14:14:15.3	0.670	0.010	-0.750	-0.030
2020/01/31 14:14:15.4	0.720	0.030	-0.810	-0.070
2020/01/31 14:14:15.5	0.770	0.050	-0.870	-0.120
2020/01/31 14:14:15.6	0.820	0.080	-0.920	-0.170
2020/01/31 14:14:15.7	0.870	0.100	-0.970	-0.210
2020/01/31 14:14:15.8	0.920	0.120	-1.020	-0.260
2020/01/31 14:14:15.9	0.960	0.140	-1.060	-0.300
2020/01/31 14:14:16.0	1.010	0.160	-1.090	-0.340
2020/01/31 14:14:16.1	1.050	0.170	-1.120	-0.380
2020/01/31 14:14:16.2	1.090	0.190	-1.140	-0.420
2020/01/31 14:14:16.3	1.120	0.200	-1.160	-0.450
2020/01/31 14:14:16.4	1.150	0.210	-1.170	-0.470
2020/01/31 14:14:16.5	1.180	0.220	-1.170	-0.500
2020/01/31 14:14:16.6	1.210	0.230	-1.170	-0.510
2020/01/31 14:14:16.7	1.230	0.230	-1.160	-0.530
2020/01/31 14:14:16.8	1.250	0.230	-1.140	-0.540
2020/01/31 14:14:16.9	1.270	0.230	-1.120	-0.540
2020/01/31 14:14:17.0	1.280	0.220	-1.090	-0.550
2020/01/31 14:14:17.1	1.290	0.220	-1.050	-0.540
2020/01/31 14:14:17.2	1.290	0.210	-1.010	-0.530
2020/01/31 14:14:17.3	1.290	0.200	-0.960	-0.520
2020/01/31 14:14:17.4	1.290	0.180	-0.910	-0.510
2020/01/31 14:14:17.5	1.290	0.170	-0.860	-0.500
2020/01/31 14:14:17.6	1.280	0.150	-0.800	-0.480
2020/01/31 14:14:17.7	1.270	0.130	-0.730	-0.460
2020/01/31 14:14:17.8	1.260	0.110	-0.670	-0.440
2020/01/31 14:14:17.9	1.250	0.090	-0.600	-0.420
2020/01/31 14:14:18.0	1.240	0.060	-0.540	-0.400
2020/01/31 14:14:18.1	1.230	0.040	-0.470	-0.380
2020/01/31 14:14:18.2	1.220	0.010	-0.410	-0.360
2020/01/31 14:14:18.3	1.200	-0.010	-0.340	-0.340
2020/01/31 14:14:18.4	1.190	-0.040	-0.280	-0.320
2020/01/31 14:14:18.5	1.180	-0.060	-0.220	-0.300
2020/01/31 14:14:18.6	1.160	-0.080	-0.160	-0.290
2020/01/31 14:14:18.7	1.150	-0.110	-0.110	-0.270
2020/01/31 14:14:18.8	1.140	-0.130	-0.060	-0.260
2020/01/31 14:14:18.9	1.130	-0.140	-0.010	-0.250
2020/01/31 14:14:19.0	1.130	-0.160	0.030	-0.240
2020/01/31 14:14:19.1	1.120	-0.170	0.070	-0.230
2020/01/31 14:14:19.2	1.120	-0.180	0.100	-0.220
2020/01/31 14:14:19.3	1.120	-0.190	0.130	-0.210
2020/01/31 14:14:19.4	1.120	-0.190	0.150	-0.210
2020/01/31 14:14:19.5	1.120	-0.200	0.170	-0.200
2020/01/31 14:14:19.6	1.130	-0.190	0.180	-0.200
2020/01/31 14:14:19.7	1.130	-0.190	0.190	-0.200
2020/01/31 14:14:19.8	1.140	-0.180	0.190	-0.200
2020/01/31 14:14:19.9	1.150	-0.170	0.190	-0.200
2020/01/31 14:14:20.0	1.160	-0.160	0.180	-0.200
2020/01/31 14:14:20.1	1.170	-0.140	0.170	-0.200
2020/01/31 14:14:20.2	1.170	-0.130	0.160	-0.200
2020/01/31 14:14:20.3	1.180	-0.110	0.140	-0.200
2020/01/31 14:14:20.4	1.190	-0.090	0.120	-0.210
2020/01/31 14:14:20.5	1.200	-0.070	0.100	-0.210
2020/01/31 14:14:20.6	1.210	-0.050	0.080	-0.220
2020/01/31 14:14:20.7	1.210	-0.030	0.050	-0.220
2020/01/31 14:14:20.8	1.220	-0.010	0.020	-0.230
2020/01/31 14:14:20.9	1.220	0.020	-0.000	-0.230
2020/01/31 14:14:21.0	1.230	0.040	-0.030	-0.240
2020/01/31 14:14:21.1	1.230	0.050	-0.060	-0.250
2020/01/31 14:14:21.2	1.230	0.070	-0.080	-0.250
2020/01/31 14:14:21.3	1.230	0.090	-0.110	-0.260
2020/01/31 14:14:21.4	1.220	0.110	-0.140	-0.260
2020/01/31 14:14:21.5	1.220	0.120	-0.160	-0.270
2020/01/31 14:14:21.6	1.210	0.130	-0.180	-0.270
2020/01/31 14:14:21.7	1.210	0.150	-0.210	-0.280
2020/01/31 14:14:21.8	1.210	0.150	-0.230	-0.280
2020/01/31 14:14:21.9	1.200	0.160	-0.250	-0.290
2020/01/31 14:14:22.0	1.200	0.170	-0.270	-0.300
2020/01/31 14:14:22.1	1.190	0.170	-0.290	-0.300
2020/01/31 14:14:22.2	1.190	0.180	-0.310	-0.310
2020/01/31 14:14:22.3	1.190	0.180	-0.320	-0.320
2020/01/31 14:14:22.4	1.180	0.180	-0.340	-0.330
2020/01/31 14:14:22.5	1.180	0.170	-0.350	-0.340
2020/01/31 14:14:22.6	1.180	0.170	-0.360	-0.350
2020/01/31 14:14:22.7	1.180	0.170	-0.360	-0.360
2020/01/31 14:14:22.8	1.190	0.160	-0.370	-0.370
2020/01/31 14:14:22.9	1.190	0.160	-0.370	-0.390
2020/01/31 14:14:23.0	1.190	0.150	-0.380	-0.400
2020/01/31 14:14:23.1	1.200	0.150	-0.380	-0.410
2020/01/31 14:14:23.2	1.210	0.140	-0.380	-0.430
2020/01/31 14:14:23.3	1.220	0.140	-0.370	-0.440
2020/01/31 14:14:23.4	1.220	0.130	-0.370	-0.460
2020/01/31 14:14:23.5	1.230	0.130	-0.360	-0.470
2020/01/31 14:14:23.6	1.240	0.120	-0.350	-0.480
2020/01/31 14:14:23.7	1.250	0.120	-0.340	-0.490
2020/01/31 14:14:23.8	1.260	0.110	-0.330	-0.500
2020/01/31 14:14:23.9	1.270	0.110	-0.310	-0.510
2020/01/31 14:14:24.0	1.270	0.110	-0.300	-0.510
2020/01/31 14:14:24.1	1.280	0.100	-0.280	-0.520
2020/01/31 14:14:24.2	1.280	0.100	-0.250	-0.520
2020/01/31 14:14:24.3	1.290	0.090	-0.230	-0.520
2020/01/31 14:14:24.4	1.290	0.090	-0.210	-0.520
2020/01/31 14:14:24.5	1.300	0.080	-0.180	-0.520
2020/01/31 14:14:24.6	1.290	0.070	-0.160	-0.520
2020/01/31 14:14:24.7	1.290	0.070	-0.130	-0.520
2020/01/31 14:14:24.8	1.290	0.060	-0.110	-0.520
2020/01/31 14:14:24.9	1.300	0.050	-0.080	-0.520
2020/01/31 14:14:25.0	1.300	0.040	-0.060	-0.510
2020/01/31 14:14:25.1	1.300	0.030	-0.040	-0.510
2020/01/31 14:14:25.2	1.310	0.010	-0.010	-0.510
2020/01/31 14:14:25.3	1.310	-0.000	0.000	-0.510
2020/01/31 14:14:25.4	1.320	-0.010	0.020	-0.510
2020/01/31 14:14:25.5	1.320	-0.030	0.040	-0.510
2020/01/31 14:14:25.6	1.310	-0.040	0.040	-0.510
2020/01/31 14:14:25.7	1.320	-0.060	0.050	-0.510
2020/01/31 14:14:25.8	1.330	-0.080	0.060	-0.510
2020/01/31 14:14:25.9	1.340	-0.090	0.060	-0.510
2020/01/31 14:14:26.0	1.350	-0.110	0.060	-0.510
2020/01/31 14:14:26.1	1.370	-0.130	0.050	-0.510
2020/01/31 14:14:26.2	1.380	-0.140	0.040	-0.510
2020/01/31 14:14:26.3	1.390	-0.160	0.030	-0.520
2020/01/31 14:14:26.4	1.410	-0.170	0.020	-0.520
2020/01/31 14:14:26.5	1.420	-0.180	0.000	-0.520
2020/01/31 14:14:26.6	1.450	-0.200	-0.010	-0.510
2020/01/31 14:14:26.7	1.460	-0.210	-0.030	-0.510
2020/01/31 14:14:26.8	1.480	-0.220	-0.050	-0.510
2020/01/31 14:14:26.9	1.490	-0.230	-0.070	-0.510
2020/01/31 14:14:27.0	1.510	-0.240	-0.100	-0.500
2020/01/31 14:14:27.1	1.520	-0.240	-0.120	-0.500
2020/01/31 14:14:27.2	1.530	-0.250	-0.140	-0.490
2020/01/31 14:14:27.3	1.550	-0.250	-0.160	-0.480
2020/01/31 14:14:27.4	1.560	-0.250	-0.180	-0.460
2020/01/31 14:14:27.5	1.570	-0.250	-0.200	-0.450
2020/01/31 14:14:27.6	1.580	-0.240	-0.220	-0.430
2020/01/31 14:14:27.7	1.590	-0.240	-0.240	-0.410
2020/01/31 14:14:27.8	1.600	-0.230	-0.260	-0.380
2020/01/31 14:14:27.9	1.610	-0.220	-0.270	-0.350
2020/01/31 14:14:28.0	1.620	-0.210	-0.280	-0.320
2020/01/31 14:14:28.1	1.630	-0.190	-0.300	-0.290
2020/01/31 14:14:28.2	1.640	-0.180	-0.310	-0.260
2020/01/31 14:14:28.3	1.650	-0.160	-0.320	-0.220
2020/01/31 14:14:28.4	1.650	-0.140	-0.330	-0.180
2020/01/31 14:14:28.5	1.660	-0.120	-0.340	-0.140
2020/01/31 14:14:28.6	1.670	-0.100	-0.350	-0.100
2020/01/31 14:14:28.7	1.680	-0.080	-0.360	-0.060
2020/01/31 14:14:28.8	1.690	-0.060	-0.370	-0.020
2020/01/31 14:14:28.9	1.690	-0.040	-0.380	0.010
2020/01/31 14:14:29.0	1.700	-0.020	-0.390	0.050
2020/01/31 14:14:29.1	1.710	0.000	-0.400	0.080
2020/01/31 14:14:29.2	1.720	0.030	-0.410	0.110
2020/01/31 14:14:29.3	1.730	0.050	-0.420	0.140
2020/01/31 14:14:29.4	1.750	0.070	-0.420	0.170
2020/01/31 14:14:29.5	1.760	0.090	-0.430	0.190
2020/01/31 14:14:29.6	1.750	0.100	-0.440	0.210
2020/01/31 14:14:29.7	1.760	0.120	-0.440	0.230
2020/01/31 14:14:29.8	1.770	0.140	-0.450	0.240
2020/01/31 14:14:29.9	1.790	0.150	-0.450	0.250
2020/01/31 14:14:30.0	1.800	0.160	-0.450	0.250
2020/01/31 14:14:30.1	1.800	0.170	-0.450	0.260
2020/01/31 14:14:30.2	1.810	0.180	-0.450	0.260
2020/01/31 14:14:30.3	1.820	0.190	-0.450	0.250
2020/01/31 14:14:30.4	1.830	0.190	-0.450	0.250
2020/01/31 14:14:30.5	1.830	0.190	-0.440	0.240
2020/01/31 14:14:30.6	1.830	0.190	-0.430	0.240
2020/01/31 14:14:30.7	1.830	0.190	-0.420	0.230
2020/01/31 14:14:30.8	1.830	0.190	-0.400	0.220
2020/01/31 14:14:30.9	1.830	0.180	-0.390	0.210
2020/01/31 14:14:31.0	1.820	0.170	-0.370	0.200
2020/01/31 14:14:31.1	1.810	0.160	-0.350	0.190
2020/01/31 14:14:31.2	1.800	0.140	-0.330	0.180
2020/01/31 14:14:31.3	1.790	0.130	-0.300	0.170
2020/01/31 14:14:31.4	1.770	0.110	-0.280	0.160
2020/01/31 14:14:31.5	1.750	0.090	-0.250	0.150
2020/01/31 14:14:31.6	1.730	0.070	-0.230	0.150
2020/01/31 14:14:31.7	1.710	0.050	-0.200	0.140
2020/01/31 14:14:31.8	1.690	0.030	-0.180	0.130
2020/01/31 14:14:31.9	1.660	0.010	-0.150	0.120
2020/01/31 14:14:32.0	1.630	-0.010	-0.120	0.110
2020/01/31 14:14:32.1	1.610	-0.040	-0.100	0.090
2020/01/31 14:14:32.2	1.580	-0.060	-0.080	0.080
2020/01/31 14:14:32.3	1.550	-0.080	-0.060	0.060
2020/01/31 14:14:32.4	1.520	-0.110	-0.050	0.040
2020/01/31 14:14:32.5	1.500	-0.130	-0.030	0.020
2020/01/31 14:14:32.6	1.470	-0.150	-0.020	-0.010
2020/01/31 14:14:32.7	1.440	-0.170	-0.020	-0.040
2020/01/31 14:14:32.8	1.420	-0.180	-0.020	-0.070
2020/01/31 14:14:32.9	1.400	-0.200	-0.020	-0.100
2020/01/31 14:14:33.0	1.380	-0.210	-0.030	-0.140
2020/01/31 14:14:33.1	1.370	-0.230	-0.040	-0.180
2020/01/31 14:14:33.2	1.360	-0.230	-0.050	-0.220
2020/01/31 14:14:33.3	1.350	-0.240	-0.070	-0.270
2020/01/31 14:14:33.4	1.340	-0.250	-0.090	-0.320
2020/01/31 14:14:33.5	1.340	-0.250	-0.120	-0.370
2020/01/31 14:14:33.6	1.350	-0.250	-0.140	-0.430
2020/01/31 14:14:33.7	1.360	-0.250	-0.180	-0.480
2020/01/31 14:14:33.8	1.370	-0.240	-0.210	-0.540
2020/01/31 14:14:33.9	1.380	-0.230	-0.240	-0.600
2020/01/31 14:14:34.0	1.390	-0.220	-0.270	-0.660
2020/01/31 14:14:34.1	1.410	-0.210	-0.310	-0.720
2020/01/31 14:14:34.2	1.420	-0.190	-0.340	-0.780
2020/01/31 14:14:34.3	1.450	-0.180	-0.380	-0.840
2020/01/31 14:14:34.4	1.470	-0.160	-0.410	-0.900
2020/01/31 14:14:34.5	1.490	-0.140	-0.440	-0.960
2020/01/31 14:14:34.6	1.510	-0.110	-0.470	-1.020
2020/01/31 14:14:34.7	1.540	-0.090	-0.500	-1.080
2020/01/31 14:14:34.8	1.570	-0.070	-0.530	-1.130
2020/01/31 14:14:34.9	1.600	-0.040	-0.550	-1.180
2020/01/31 14:14:35.0	1.630	-0.010	-0.570	-1.230
2020/01/31 14:14:35.1	1.660	0.020	-0.590	-1.280
2020/01/31 14:14:35.2	1.700	0.050	-0.600	-1.320
2020/01/31 14:14:35.3	1.730	0.070	-0.620	-1.360
2020/01/31 14:14:35.4	1.760	0.100	-0.620	-1.390
2020/01/31 14:14:35.5	1.790	0.130	-0.630	-1.420
2020/01/31 14:14:35.6	1.820	0.160	-0.630	-1.440
2020/01/31 14:14:35.7	1.850	0.190	-0.630	-1.460
2020/01/31 14:14:35.8	1.880	0.210	-0.620	-1.480
2020/01/31 14:14:35.9	1.910	0.240	-0.620	-1.490
2020/01/31 14:14:36.0	1.940	0.260	-0.600	-1.500
2020/01/31 14:14:36.1	1.970	0.290	-0.590	-1.500
2020/01/31 14:14:36.2	1.990	0.310	-0.570	-1.500
2020/01/31 14:14:36.3	2.020	0.330	-0.550	-1.490
2020/01/31 14:14:36.4	2.040	0.340	-0.530	-1.480
2020/01/31 14:14:36.5	2.060	0.360	-0.510	-1.470
2020/01/31 14:14:36.6	2.070	0.370	-0.490	-1.450
2020/01/31 14:14:36.7	2.090	0.380	-0.460	-1.430
2020/01/31 14:14:36.8	2.110	0.390	-0.430	-1.400
2020/01/31 14:14:36.9	2.130	0.390	-0.400	-1.380
2020/01/31 14:14:37.0	2.150	0.390	-0.360	-1.350
2020/01/31 14:14:37.1	2.160	0.390	-0.330	-1.310
2020/01/31 14:14:37.2	2.170	0.390	-0.300	-1.280
2020/01/31 14:14:37.3	2.180	0.380	-0.260	-1.230
2020/01/31 14:14:37.4	2.190	0.370	-0.220	-1.190
2020/01/31 14:14:37.5	2.200	0.360	-0.180	-1.140
2020/01/31 14:14:37.6	2.190	0.350	-0.150	-1.080
2020/01/31 14:14:37.7	2.190	0.330	-0.100	-1.030
2020/01/31 14:14:37.8	2.180	0.310	-0.060	-0.970
2020/01/31 14:14:37.9	2.170	0.290	-0.020	-0.900
2020/01/31 14:14:38.0	2.160	0.260	0.020	-0.840
2020/01/31 14:14:38.1	2.140	0.240	0.070	-0.770
2020/01/31 14:14:38.2	2.120	0.210	0.110	-0.700
2020/01/31 14:14:38.3	2.100	0.180	0.150	-0.630
2020/01/31 14:14:38.4	2.070	0.150	0.200	-0.550
2020/01/31 14:14:38.5	2.040	0.110	0.240	-0.480
2020/01/31 14:14:38.6	2.000	0.080	0.280	-0.400
2020/01/31 14:14:38.7	1.970	0.040	0.320	-0.330
2020/01/31 14:14:38.8	1.930	0.000	0.360	-0.250
2020/01/31 14:14:38.9	1.890	-0.040	0.400	-0.180
2020/01/31 14:14:39.0	1.850	-0.070	0.440	-0.110
2020/01/31 14:14:39.1	1.810	-0.110	0.470	-0.040
2020/01/31 14:14:39.2	1.770	-0.150	0.490	0.020
2020/01/31 14:14:39.3	1.730	-0.190	0.520	0.080
2020/01/31 14:14:39.4	1.680	-0.230	0.540	0.140
2020/01/31 14:14:39.5	1.650	-0.260	0.550	0.190
2020/01/31 14:14:39.6	1.610	-0.300	0.560	0.240
2020/01/31 14:14:39.7	1.580	-0.330	0.560	0.280
2020/01/31 14:14:39.8	1.540	-0.360	0.550	0.320
2020/01/31 14:14:39.9	1.510	-0.390	0.540	0.350
2020/01/31 14:14:40.0	1.480	-0.420	0.530	0.380
2020/01/31 14:14:40.1	1.450	-0.440	0.500	0.400
2020/01/31 14:14:40.2	1.430	-0.460	0.470	0.420
2020/01/31 14:14:40.3	1.410	-0.480	0.430	0.440
2020/01/31 14:14:40.4	1.390	-0.500	0.390	0.450
2020/01/31 14:14:40.5	1.380	-0.510	0.340	0.450
2020/01/31 14:14:40.6	1.380	-0.520	0.280	0.450
2020/01/31 14:14:40.7	1.370	-0.520	0.220	0.450
2020/01/31 14:14:40.8	1.370	-0.530	0.160	0.450
2020/01/31 14:14:40.9	1.370	-0.520	0.090	0.440
2020/01/31 14:14:41.0	1.370	-0.520	0.010	0.430
2020/01/31 14:14:41.1	1.370	-0.510	-0.060	0.420
2020/01/31 14:14:41.2	1.380	-0.500	-0.140	0.400
2020/01/31 14:14:41.3	1.380	-0.480	-0.220	0.390
2020/01/31 14:14:41.4	1.390	-0.470	-0.300	0.370
2020/01/31 14:14:41.5	1.400	-0.450	-0.380	0.350
2020/01/31 14:14:41.6	1.430	-0.420	-0.460	0.330
2020/01/31 14:14:41.7	1.440	-0.400	-0.530	0.310
2020/01/31 14:14:41.8	1.460	-0.370	-0.610	0.290
2020/01/31 14:14:41.9	1.470	-0.340	-0.680	0.260
2020/01/31 14:14:42.0	1.490	-0.310	-0.750	0.240
2020/01/31 14:14:42.1	1.500	-0.280	-0.810	0.220
2020/01/31 14:14:42.2	1.520	-0.250	-0.870	0.190
2020/01/31 14:14:42.3	1.530	-0.210	-0.930	0.170
2020/01/31 14:14:42.4	1.550	-0.180	-0.970	0.160
2020/01/31 14:14:42.5	1.560	-0.140	-1.010	0.140
2020/01/31 14:14:42.6	1.570	-0.110	-1.050	0.120
2020/01/31 14:14:42.7	1.580	-0.070	-1.070	0.110
2020/01/31 14:14:42.8	1.600	-0.030	-1.090	0.090
2020/01/31 14:14:42.9	1.610	0.000	-1.100	0.090
2020/01/31 14:14:43.0	1.620	0.040	-1.100	0.080
2020/01/31 14:14:43.1	1.640	0.070	-1.100	0.070
2020/01/31 14:14:43.2	1.650	0.100	-1.080	0.070
2020/01/31 14:14:43.3	1.660	0.140	-1.060	0.070
2020/01/31 14:14:43.4	1.680	0.170	-1.030	0.070
2020/01/31 14:14:43.5	1.690	0.200	-1.000	0.070
2020/01/31 14:14:43.6	1.710	0.220	-0.960	0.070
2020/01/31 14:14:43.7	1.730	0.250	-0.910	0.070
2020/01/31 14:14:43.8	1.740	0.270	-0.870	0.080
2020/01/31 14:14:43.9	1.760	0.300	-0.810	0.080
2020/01/31 14:14:44.0	1.770	0.320	-0.760	0.090
2020/01/31 14:14:44.1	1.790	0.340	-0.700	0.100
2020/01/31 14:14:44.2	1.800	0.350	-0.650	0.110
2020/01/31 14:14:44.3	1.820	0.370	-0.590	0.120
2020/01/31 14:14:44.4	1.840	0.380	-0.530	0.130
2020/01/31 14:14:44.5	1.850	0.390	-0.470	0.140
2020/01/31 14:14:44.6	1.860	0.400	-0.420	0.150
2020/01/31 14:14:44.7	1.880	0.410	-0.370	0.170
2020/01/31 14:14:44.8	1.890	0.410	-0.320	0.180
2020/01/31 14:14:44.9	1.900	0.410	-0.270	0.200
2020/01/31 14:14:45.0	1.910	0.410	-0.220	0.210
2020/01/31 14:14:45.1	1.920	0.410	-0.180	0.230
2020/01/31 14:14:45.2	1.930	0.410	-0.140	0.250
2020/01/31 14:14:45.3	1.930	0.400	-0.100	0.270
2020/01/31 14:14:45.4	1.930	0.390	-0.070	0.290
2020/01/31 14:14:45.5	1.930	0.380	-0.040	0.310
2020/01/31 14:14:45.6	1.930	0.370	-0.020	0.330
2020/01/31 14:14:45.7	1.920	0.350	-0.000	0.350
2020/01/31 14:14:45.8	1.910	0.330	0.020	0.370
2020/01/31 14:14:45.9	1.900	0.310	0.030	0.390
2020/01/31 14:14:46.0	1.890	0.290	0.030	0.400
2020/01/31 14:14:46.1	1.870	0.270	0.040	0.410
2020/01/31 14:14:46.2	1.860	0.250	0.040	0.410
2020/01/31 14:14:46.3	1.840	0.220	0.030	0.420
2020/01/31 14:14:46.4	1.830	0.200	0.030	0.410
2020/01/31 14:14:46.5	1.810	0.170	0.010	0.410
2020/01/31 14:14:46.6	1.800	0.140	0.000	0.400
2020/01/31 14:14:46.7	1.780	0.120	-0.020	0.390
2020/01/31 14:14:46.8	1.770	0.090	-0.040	0.370
2020/01/31 14:14:46.9	1.760	0.060	-0.060	0.350
2020/01/31 14:14:47.0	1.740	0.030	-0.090	0.320
2020/01/31 14:14:47.1	1.740	0.010	-0.110	0.290
2020/01/31 14:14:47.2	1.730	-0.020	-0.140	0.250
2020/01/31 14:14:47.3	1.720	-0.040	-0.170	0.210
2020/01/31 14:14:47.4	1.720	-0.070	-0.210	0.170
2020/01/31 14:14:47.5	1.720	-0.090	-0.240	0.120
2020/01/31 14:14:47.6	1.730	-0.110	-0.270	0.060
2020/01/31 14:14:47.7	1.740	-0.140	-0.300	0.010
2020/01/31 14:14:47.8	1.740	-0.150	-0.330	-0.050
2020/01/31 14:14:47.9	1.750	-0.170	-0.360	-0.120
2020/01/31 14:14:48.0	1.760	-0.190	-0.390	-0.190
2020/01/31 14:14:48.1	1.780	-0.200	-0.420	-0.260
2020/01/31 14:14:48.2	1.790	-0.220	-0.440	-0.340
2020/01/31 14:14:48.3	1.810	-0.230	-0.470	-0.420
2020/01/31 14:14:48.4	1.830	-0.240	-0.490	-0.500
2020/01/31 14:14:48.5	1.850	-0.240	-0.500	-0.580
2020/01/31 14:14:48.6	1.870	-0.250	-0.520	-0.660
2020/01/31 14:14:48.7	1.890	-0.250	-0.530	-0.740
2020/01/31 14:14:48.8	1.920	-0.250	-0.540	-0.830
2020/01/31 14:14:48.9	1.940	-0.250	-0.540	-0.910
2020/01/31 14:14:49.0	1.970	-0.250	-0.540	-0.990
2020/01/31 14:14:49.1	1.990	-0.250	-0.530	-1.070
2020/01/31 14:14:49.2	2.020	-0.240	-0.520	-1.150
2020/01/31 14:14:49.3	2.040	-0.240	-0.500	-1.220
2020/01/31 14:14:49.4	2.060	-0.230	-0.480	-1.280
2020/01/31 14:14:49.5	2.080	-0.220	-0.450	-1.340
2020/01/31 14:14:49.6	2.090	-0.210	-0.420	-1.400
2020/01/31 14:14:49.7	2.100	-0.200	-0.380	-1.450
2020/01/31 14:14:49.8	2.110	-0.190	-0.340	-1.490
2020/01/31 14:14:49.9	2.120	-0.180	-0.290	-1.510
2020/01/31 14:14:50.0	2.120	-0.160	-0.240	-1.530
2020/01/31 14:14:50.1	2.110	-0.150	-0.180	-1.550
2020/01/31 14:14:50.2	2.100	-0.140	-0.110	-1.550
2020/01/31 14:14:50.3	2.080	-0.130	-0.050	-1.540
2020/01/31 14:14:50.4	2.060	-0.120	0.030	-1.520
2020/01/31 14:14:50.5	2.030	-0.110	0.100	-1.500
2020/01/31 14:14:50.6	2.000	-0.100	0.170	-1.460
2020/01/31 14:14:50.7	1.960	-0.100	0.250	-1.410
2020/01/31 14:14:50.8	1.920	-0.090	0.320	-1.360
2020/01/31 14:14:50.9	1.880	-0.080	0.400	-1.310
2020/01/31 14:14:51.0	1.830	-0.080	0.470	-1.240
2020/01/31 14:14:51.1	1.780	-0.070	0.540	-1.170
2020/01/31 14:14:51.2	1.720	-0.070	0.610	-1.100
2020/01/31 14:14:51.3	1.670	-0.060	0.670	-1.010
2020/01/31 14:14:51.4	1.610	-0.060	0.720	-0.930
2020/01/31 14:14:51.5	1.560	-0.060	0.770	-0.840
2020/01/31 14:14:51.6	1.500	-0.050	0.810	-0.740
2020/01/31 14:14:51.7	1.450	-0.050	0.840	-0.650
2020/01/31 14:14:51.8	1.400	-0.040	0.860	-0.550
2020/01/31 14:14:51.9	1.340	-0.040	0.880	-0.460
2020/01/31 14:14:52.0	1.290	-0.030	0.880	-0.360
2020/01/31 14:14:52.1	1.250	-0.030	0.870	-0.270
2020/01/31 14:14:52.2	1.200	-0.020	0.860	-0.170
2020/01/31 14:14:52.3	1.160	-0.010	0.830	-0.080
2020/01/31 14:14:52.4	1.120	-0.000	0.790	0.010
2020/01/31 14:14:52.5	1.090	0.010	0.750	0.090
2020/01/31 14:14:52.6	1.060	0.020	0.690	0.170
2020/01/31 14:14:52.7	1.030	0.030	0.620	0.250
2020/01/31 14:14:52.8	1.010	0.050	0.550	0.320
2020/01/31 14:14:52.9	0.990	0.060	0.470	0.390
2020/01/31 14:14:53.0	0.980	0.080	0.380	0.450
2020/01/31 14:14:53.1	0.970	0.090	0.280	0.510
2020/01/31 14:14:53.2	0.960	0.110	0.180	0.560
2020/01/31 14:14:53.3	0.960	0.130	0.080	0.600
2020/01/31 14:14:53.4	0.960	0.140	-0.020	0.640
2020/01/31 14:14:53.5	0.960	0.160	-0.130	0.680
2020/01/31 14:14:53.6	0.970	0.170	-0.240	0.710
2020/01/31 14:14:53.7	0.970	0.180	-0.340	0.730
2020/01/31 14:14:53.8	0.980	0.190	-0.450	0.750
2020/01/31 14:14:53.9	0.990	0.200	-0.550	0.770
2020/01/31 14:14:54.0	1.010	0.210	-0.650	0.770
2020/01/31 14:14:54.1	1.020	0.220	-0.750	0.780
2020/01/31 14:14:54.2	1.030	0.220	-0.840	0.770
2020/01/31 14:14:54.3	1.050	0.230	-0.930	0.770
2020/01/31 14:14:54.4	1.060	0.230	-1.010	0.760
2020/01/31 14:14:54.5	1.070	0.220	-1.080	0.740
2020/01/31 14:14:54.6	1.100	0.220	-1.150	0.720
2020/01/31 14:14:54.7	1.110	0.210	-1.210	0.700
2020/01/31 14:14:54.8	1.130	0.200	-1.260	0.670
2020/01/31 14:14:54.9	1.140	0.180	-1.310	0.630
2020/01/31 14:14:55.0	1.160	0.170	-1.350	0.590
2020/01/31 14:14:55.1	1.170	0.150	-1.380	0.550
2020/01/31 14:14:55.2	1.190	0.130	-1.400	0.500
2020/01/31 14:14:55.3	1.200	0.110	-1.420	0.450
2020/01/31 14:14:55.4	1.220	0.080	-1.420	0.400
2020/01/31 14:14:55.5	1.230	0.060	-1.430	0.350
2020/01/31 14:14:55.6	1.240	0.030	-1.420	0.280
2020/01/31 14:14:55.7	1.260	-0.000	-1.410	0.220
2020/01/31 14:14:55.8	1.280	-0.030	-1.390	0.160
2020/01/31 14:14:55.9	1.290	-0.060	-1.370	0.100
2020/01/31 14:14:56.0	1.310	-0.100	-1.350	0.030
2020/01/31 14:14:56.1	1.330	-0.130	-1.320	-0.040
2020/01/31 14:14:56.2	1.350	-0.160	-1.280	-0.110
2020/01/31 14:14:56.3	1.370	-0.190	-1.250	-0.180
2020/01/31 14:14:56.4	1.400	-0.220	-1.210	-0.260
2020/01/31 14:14:56.5	1.430	-0.250	-1.170	-0.340
2020/01/31 14:14:56.6	1.460	-0.270	-1.130	-0.420
2020/01/31 14:14:56.7	1.490	-0.300	-1.090	-0.490
2020/01/31 14:14:56.8	1.520	-0.320	-1.040	-0.570
2020/01/31 14:14:56.9	1.560	-0.340	-1.000	-0.660
2020/01/31 14:14:57.0	1.600	-0.360	-0.960	-0.740
2020/01/31 14:14:57.1	1.630	-0.370	-0.920	-0.810
2020/01/31 14:14:57.2	1.670	-0.380	-0.870	-0.890
2020/01/31 14:14:57.3	1.710	-0.390	-0.830	-0.970
2020/01/31 14:14:57.4	1.760	-0.400	-0.790	-1.040
2020/01/31 14:14:57.5	1.800	-0.400	-0.750	-1.110
2020/01/31 14:14:57.6	1.850	-0.390	-0.710	-1.180
2020/01/31 14:14:57.7	1.890	-0.390	-0.670	-1.250
2020/01/31 14:14:57.8	1.930	-0.380	-0.630	-1.310
2020/01/31 14:14:57.9	1.960	-0.360	-0.590	-1.360
2020/01/31 14:14:58.0	2.000	-0.350	-0.560	-1.400
2020/01/31 14:14:58.1	2.030	-0.330	-0.510	-1.440
2020/01/31 14:14:58.2	2.050	-0.310	-0.470	-1.470
2020/01/31 14:14:58.3	2.070	-0.280	-0.430	-1.500
2020/01/31 14:14:58.4	2.080	-0.260	-0.380	-1.510
2020/01/31 14:14:58.5	2.090	-0.230	-0.330	-1.520
2020/01/31 14:14:58.6	2.100	-0.200	-0.280	-1.510
2020/01/31 14:14:58.7	2.100	-0.170	-0.230	-1.500
2020/01/31 14:14:58.8	2.100	-0.140	-0.170	-1.480
2020/01/31 14:14:58.9	2.090	-0.110	-0.120	-1.460
2020/01/31 14:14:59.0	2.070	-0.080	-0.060	-1.420
2020/01/31 14:14:59.1	2.050	-0.040	0.010	-1.380
2020/01/31 14:14:59.2	2.020	-0.010	0.070	-1.330
2020/01/31 14:14:59.3	1.990	0.020	0.140	-1.270
2020/01/31 14:14:59.4	1.950	0.050	0.200	-1.210
2020/01/31 14:14:59.5	1.910	0.070	0.270	-1.140
2020/01/31 14:14:59.6	1.850	0.100	0.330	-1.060
2020/01/31 14:14:59.7	1.810	0.120	0.400	-0.980
2020/01/31 14:14:59.8	1.760	0.150	0.460	-0.890
2020/01/31 14:14:59.9	1.710	0.170	0.520	-0.800
2020/01/31 14:15:00.0	1.670	0.190	0.580	-0.710
2020/01/31 14:15:00.1	1.620	0.200	0.630	-0.620
2020/01/31 14:15:00.2	1.570	0.220	0.680	-0.520
2020/01/31 14:15:00.3	1.520	0.230	0.720	-0.430
2020/01/31 14:15:00.4	1.470	0.240	0.760	-0.330
2020/01/31 14:15:00.5	1.430	0.250	0.790	-0.240
2020/01/31 14:15:00.6	1.390	0.260	0.820	-0.150
2020/01/31 14:15:00.7	1.350	0.260	0.840	-0.060
2020/01/31 14:15:00.8	1.300	0.260	0.860	0.030
2020/01/31 14:15:00.9	1.260	0.260	0.870	0.120
2020/01/31 14:15:01.0	1.220	0.260	0.870	0.210
2020/01/31 14:15:01.1	1.180	0.250	0.870	0.290
2020/01/31 14:15:01.2	1.140	0.240	0.860	0.370
2020/01/31 14:15:01.3	1.100	0.230	0.850	0.440
2020/01/31 14:15:01.4	1.060	0.220	0.830	0.510
2020/01/31 14:15:01.5	1.030	0.210	0.800	0.580
2020/01/31 14:15:01.6	0.980	0.190	0.780	0.640
2020/01/31 14:15:01.7	0.940	0.180	0.740	0.700
2020/01/31 14:15:01.8	0.900	0.160	0.710	0.750
2020/01/31 14:15:01.9	0.870	0.150	0.670	0.800
2020/01/31 14:15:02.0	0.830	0.130	0.620	0.850
2020/01/31 14:15:02.1	0.790	0.110	0.580	0.890
2020/01/31 14:15:02.2	0.750	0.090	0.530	0.930
2020/01/31 14:15:02.3	0.710	0.070	0.480	0.960
2020/01/31 14:15:02.4	0.670	0.050	0.430	0.990
2020/01/31 14:15:02.5	0.640	0.040	0.380	1.020
2020/01/31 14:15:02.6	0.580	0.020	0.320	1.030
2020/01/31 14:15:02.7	0.550	0.000	0.270	1.040
2020/01/31 14:15:02.8	0.510	-0.010	0.210	1.050
2020/01/31 14:15:02.9	0.470	-0.030	0.160	1.050
2020/01/31 14:15:03.0	0.440	-0.040	0.100	1.050
2020/01/31 14:15:03.1	0.400	-0.050	0.040	1.040
2020/01/31 14:15:03.2	0.370	-0.060	-0.010	1.020
2020/01/31 14:15:03.3	0.340	-0.070	-0.070	1.000
2020/01/31 14:15:03.4	0.310	-0.080	-0.130	0.970
2020/01/31 14:15:03.5	0.280	-0.090	-0.180	0.940
2020/01/31 14:15:03.6	0.250	-0.090	-0.230	0.900
2020/01/31 14:15:03.7	0.230	-0.090	-0.290	0.860
2020/01/31 14:15:03.8	0.210	-0.090	-0.340	0.810
2020/01/31 14:15:03.9	0.190	-0.090	-0.400	0.760
2020/01/31 14:15:04.0	0.180	-0.080	-0.450	0.700
2020/01/31 14:15:04.1	0.170	-0.080	-0.500	0.640
2020/01/31 14:15:04.2	0.160	-0.070	-0.560	0.580
2020/01/31 14:15:04.3	0.160	-0.060	-0.610	0.510
2020/01/31 14:15:04.4	0.150	-0.050	-0.660	0.440
2020/01/31 14:15:04.5	0.150	-0.040	-0.710	0.370
2020/01/31 14:15:04.6	0.160	-0.030	-0.750	0.290
2020/01/31 14:15:04.7	0.160	-0.010	-0.800	0.210
2020/01/31 14:15:04.8	0.170	0.000	-0.840	0.130
2020/01/31 14:15:04.9	0.180	0.020	-0.880	0.050
2020/01/31 14:15:05.0	0.200	0.040	-0.920	-0.030
2020/01/31 14:15:05.1	0.210	0.050	-0.960	-0.110
2020/01/31 14:15:05.2	0.230	0.070	-1.000	-0.190
2020/01/31 14:15:05.3	0.250	0.090	-1.030	-0.270
2020/01/31 14:15:05.4	0.270	0.110	-1.070	-0.360
2020/01/31 14:15:05.5	0.300	0.130	-1.100	-0.440
2020/01/31 14:15:05.6	0.320	0.150	-1.130	-0.520
2020/01/31 14:15:05.7	0.350	0.170	-1.160	-0.590
2020/01/31 14:15:05.8	0.390	0.190	-1.180	-0.670
2020/01/31 14:15:05.9	0.420	0.200	-1.200	-0.740
2020/01/31 14:15:06.0	0.450	0.220	-1.220	-0.810
2020/01/31 14:15:06.1	0.490	0.240	-1.240	-0.880
2020/01/31 14:15:06.2	0.530	0.250	-1.250	-0.940
2020/01/31 14:15:06.3	0.570	0.270	-1.260	-1.000
2020/01/31 14:15:06.4	0.610	0.280	-1.260	-1.060
2020/01/31 14:15:06.5	0.650	0.290	-1.260	-1.110
2020/01/31 14:15:06.6	0.690	0.300	-1.260	-1.150
2020/01/31 14:15:06.7	0.730	0.310	-1.260	-1.190
2020/01/31 14:15:06.8	0.780	0.310	-1.240	-1.230
2020/01/31 14:15:06.9	0.810	0.320	-1.230	-1.270
2020/01/31 14:15:07.0	0.850	0.320	-1.200	-1.290
2020/01/31 14:15:07.1	0.890	0.310	-1.180	-1.320
2020/01/31 14:15:07.2	0.930	0.310	-1.140	-1.340
2020/01/31 14:15:07.3	0.960	0.300	-1.110	-1.360
2020/01/31 14:15:07.4	0.990	0.290	-1.060	-1.370
2020/01/31 14:15:07.5	1.020	0.270	-1.010	-1.380
2020/01/31 14:15:07.6	1.040	0.250	-0.960	-1.380
2020/01/31 14:15:07.7	1.060	0.230	-0.900	-1.380
2020/01/31 14:15:07.8	1.080	0.200	-0.840	-1.380
2020/01/31 14:15:07.9	1.100	0.170	-0.770	-1.370
2020/01/31 14:15:08.0	1.120	0.140	-0.700	-1.360
2020/01/31 14:15:08.1	1.140	0.110	-0.630	-1.350
2020/01/31 14:15:08.2	1.150	0.070	-0.550	-1.330
2020/01/31 14:15:08.3	1.150	0.040	-0.480	-1.310
2020/01/31 14:15:08.4	1.160	-0.000	-0.400	-1.280
2020/01/31 14:15:08.5	1.160	-0.040	-0.320	-1.250
2020/01/31 14:15:08.6	1.180	-0.090	-0.230	-1.210
2020/01/31 14:15:08.7	1.170	-0.130	-0.150	-1.180
2020/01/31 14:15:08.8	1.160	-0.170	-0.070	-1.140
2020/01/31 14:15:08.9	1.150	-0.210	0.010	-1.090
2020/01/31 14:15:09.0	1.140	-0.260	0.090	-1.040
2020/01/31 14:15:09.1	1.120	-0.300	0.170	-0.990
2020/01/31 14:15:09.2	1.100	-0.340	0.240	-0.930
2020/01/31 14:15:09.3	1.070	-0.380	0.310	-0.880
2020/01/31 14:15:09.4	1.040	-0.420	0.380	-0.820
2020/01/31 14:15:09.5	1.010	-0.450	0.450	-0.750
2020/01/31 14:15:09.6	0.980	-0.480	0.500	-0.690
2020/01/31 14:15:09.7	0.950	-0.520	0.560	-0.620
2020/01/31 14:15:09.8	0.910	-0.540	0.610	-0.550
2020/01/31 14:15:09.9	0.870	-0.570	0.660	-0.490
2020/01/31 14:15:10.0	0.830	-0.590	0.700	-0.420
2020/01/31 14:15:10.1	0.790	-0.610	0.730	-0.350
2020/01/31 14:15:10.2	0.750	-0.630	0.760	-0.280
2020/01/31 14:15:10.3	0.700	-0.640	0.780	-0.200
2020/01/31 14:15:10.4	0.660	-0.640	0.800	-0.130
2020/01/31 14:15:10.5	0.610	-0.650	0.810	-0.060
2020/01/31 14:15:10.6	0.560	-0.650	0.810	0.010
2020/01/31 14:15:10.7	0.510	-0.640	0.810	0.090
2020/01/31 14:15:10.8	0.460	-0.640	0.800	0.160
2020/01/31 14:15:10.9	0.410	-0.630	0.790	0.230
2020/01/31 14:15:11.0	0.350	-0.610	0.770	0.300
2020/01/31 14:15:11.1	0.300	-0.590	0.740	0.370
2020/01/31 14:15:11.2	0.240	-0.570	0.710	0.440
2020/01/31 14:15:11.3	0.190	-0.550	0.680	0.510
2020/01/31 14:15:11.4	0.140	-0.520	0.640	0.570
2020/01/31 14:15:11.5	0.090	-0.490	0.600	0.630
2020/01/31 14:15:11.6	0.040	-0.460	0.560	0.690
2020/01/31 14:15:11.7	359.990	-0.420	0.510	0.740
2020/01/31 14:15:11.8	359.950	-0.380	0.460	0.790
2020/01/31 14:15:11.9	359.900	-0.340	0.400	0.840
2020/01/31 14:15:12.0	359.860	-0.300	0.350	0.880
2020/01/31 14:15:12.1	359.820	-0.260	0.290	0.920
2020/01/31 14:15:12.2	359.790	-0.220	0.230	0.950
2020/01/31 14:15:12.3	359.760	-0.170	0.170	0.990
2020/01/31 14:15:12.4	359.730	-0.120	0.110	1.010
2020/01/31 14:15:12.5	359.710	-0.080	0.040	1.030
2020/01/31 14:15:12.6	359.680	-0.030	-0.020	1.050
2020/01/31 14:15:12.7	359.660	0.020	-0.080	1.060
2020/01/31 14:15:12.8	359.650	0.070	-0.140	1.080
2020/01/31 14:15:12.9	359.640	0.120	-0.200	1.090
2020/01/31 14:15:13.0	359.630	0.160	-0.250	1.100
2020/01/31 14:15:13.1	359.620	0.210	-0.310	1.110
2020/01/31 14:15:13.2	359.620	0.260	-0.360	1.110
2020/01/31 14:15:13.3	359.620	0.300	-0.400	1.120
2020/01/31 14:15:13.4	359.610	0.340	-0.450	1.120
2020/01/31 14:15:13.5	359.620	0.380	-0.490	1.130
2020/01/31 14:15:13.6	359.620	0.420	-0.520	1.130
2020/01/31 14:15:13.7	359.620	0.450	-0.550	1.130
2020/01/31 14:15:13.8	359.620	0.480	-0.580	1.140
2020/01/31 14:15:13.9	359.620	0.510	-0.600	1.140
2020/01/31 14:15:14.0	359.620	0.530	-0.610	1.140
2020/01/31 14:15:14.1	359.620	0.550	-0.620	1.130
2020/01/31 14:15:14.2	359.620	0.570	-0.630	1.130
2020/01/31 14:15:14.3	359.610	0.580	-0.630	1.130
2020/01/31 14:15:14.4	359.610	0.590	-0.630	1.120
2020/01/31 14:15:14.5	359.610	0.590	-0.630	1.120
2020/01/31 14:15:14.6	359.590	0.590	-0.620	1.100
2020/01/31 14:15:14.7	359.590	0.580	-0.610	1.090
2020/01/31 14:15:14.8	359.580	0.570	-0.600	1.080
2020/01/31 14:15:14.9	359.580	0.560	-0.580	1.060
2020/01/31 14:15:15.0	359.570	0.540	-0.570	1.040
2020/01/31 14:15:15.1	359.560	0.520	-0.550	1.020
2020/01/31 14:15:15.2	359.560	0.500	-0.540	1.000
2020/01/31 14:15:15.3	359.550	0.480	-0.520	0.980
2020/01/31 14:15:15.4	359.540	0.450	-0.510	0.950
2020/01/31 14:15:15.5	359.530	0.420	-0.490	0.930
2020/01/31 14:15:15.6	359.530	0.390	-0.480	0.890
2020/01/31 14:15:15.7	359.520	0.350	-0.470	0.860
2020/01/31 14:15:15.8	359.510	0.320	-0.470	0.830
2020/01/31 14:15:15.9	359.510	0.280	-0.460	0.790
2020/01/31 14:15:16.0	359.500	0.250	-0.460	0.750
2020/01/31 14:15:16.1	359.500	0.210	-0.460	0.700
2020/01/31 14:15:16.2	359.500	0.180	-0.470	0.660
2020/01/31 14:15:16.3	359.500	0.140	-0.470	0.610
2020/01/31 14:15:16.4	359.500	0.110	-0.480	0.560
2020/01/31 14:15:16.5	359.510	0.080	-0.500	0.500
2020/01/31 14:15:16.6	359.530	0.050	-0.520	0.440
2020/01/31 14:15:16.7	359.540	0.030	-0.540	0.380
2020/01/31 14:15:16.8	359.550	0.010	-0.560	0.320
2020/01/31 14:15:16.9	359.570	-0.010	-0.590	0.260
2020/01/31 14:15:17.0	359.580	-0.030	-0.610	0.190
2020/01/31 14:15:17.1	359.600	-0.040	-0.640	0.120
2020/01/31 14:15:17.2	359.630	-0.050	-0.670	0.050
2020/01/31 14:15:17.3	359.650	-0.050	-0.700	-0.020
2020/01/31 14:15:17.4	359.680	-0.060	-0.740	-0.090
2020/01/31 14:15:17.5	359.710	-0.050	-0.770	-0.170
2020/01/31 14:15:17.6	359.750	-0.050	-0.800	-0.250
2020/01/31 14:15:17.7	359.790	-0.030	-0.830	-0.330
2020/01/31 14:15:17.8	359.830	-0.020	-0.860	-0.410
2020/01/31 14:15:17.9	359.870	-0.000	-0.880	-0.490
2020/01/31 14:15:18.0	359.920	0.020	-0.910	-0.570
2020/01/31 14:15:18.1	359.960	0.040	-0.930	-0.640
2020/01/31 14:15:18.2	0.010	0.070	-0.940	-0.720
2020/01/31 14:15:18.3	0.060	0.100	-0.950	-0.790
2020/01/31 14:15:18.4	0.110	0.130	-0.960	-0.860
2020/01/31 14:15:18.5	0.160	0.160	-0.950	-0.930
2020/01/31 14:15:18.6	0.200	0.180	-0.950	-0.990
2020/01/31 14:15:18.7	0.250	0.210	-0.930	-1.050
2020/01/31 14:15:18.8	0.290	0.240	-0.910	-1.100
2020/01/31 14:15:18.9	0.330	0.270	-0.880	-1.140
2020/01/31 14:15:19.0	0.360	0.290	-0.840	-1.170
2020/01/31 14:15:19.1	0.390	0.310	-0.800	-1.200
2020/01/31 14:15:19.2	0.420	0.330	-0.740	-1.220
2020/01/31 14:15:19.3	0.440	0.340	-0.680	-1.240
2020/01/31 14:15:19.4	0.450	0.350	-0.610	-1.250
2020/01/31 14:15:19.5	0.460	0.350	-0.540	-1.250
2020/01/31 14:15:19.6	0.470	0.350	-0.450	-1.240
2020/01/31 14:15:19.7	0.470	0.340	-0.370	-1.230
2020/01/31 14:15:19.8	0.470	0.330	-0.280	-1.210
2020/01/31 14:15:19.9	0.460	0.310	-0.180	-1.190
2020/01/31 14:15:20.0	0.440	0.280	-0.090	-1.160
2020/01/31 14:15:20.1	0.420	0.250	0.010	-1.130
2020/01/31 14:15:20.2	0.390	0.220	0.110	-1.100
2020/01/31 14:15:20.3	0.360	0.180	0.210	-1.060
2020/01/31 14:15:20.4	0.330	0.130	0.300	-1.020
2020/01/31 14:15:20.5	0.290	0.080	0.400	-0.970
2020/01/31 14:15:20.6	0.260	0.020	0.480	-0.920
2020/01/31 14:15:20.7	0.220	-0.030	0.570	-0.870
2020/01/31 14:15:20.8	0.170	-0.090	0.650	-0.820
2020/01/31 14:15:20.9	0.130	-0.160	0.720	-0.780
2020/01/31 14:15:21.0	0.080	-0.220	0.790	-0.730
2020/01/31 14:15:21.1	0.030	-0.290	0.850	-0.680
2020/01/31 14:15:21.2	359.990	-0.350	0.900	-0.640
2020/01/31 14:15:21.3	359.940	-0.420	0.940	-0.590
2020/01/31 14:15:21.4	359.890	-0.480	0.980	-0.550
2020/01/31 14:15:21.5	359.840	-0.550	1.000	-0.510
2020/01/31 14:15:21.6	359.800	-0.600	1.020	-0.480
2020/01/31 14:15:21.7	359.760	-0.660	1.030	-0.450
2020/01/31 14:15:21.8	359.720	-0.710	1.020	-0.420
2020/01/31 14:15:21.9	359.670	-0.760	1.010	-0.390
2020/01/31 14:15:22.0	359.630	-0.800	0.980	-0.370
2020/01/31 14:15:22.1	359.600	-0.830	0.950	-0.350
2020/01/31 14:15:22.2	359.560	-0.860	0.910	-0.330
2020/01/31 14:15:22.3	359.530	-0.880	0.860	-0.320
2020/01/31 14:15:22.4	359.500	-0.900	0.800	-0.310
2020/01/31 14:15:22.5	359.480	-0.900	0.740	-0.300
2020/01/31 14:15:22.6	359.450	-0.900	0.660	-0.300
2020/01/31 14:15:22.7	359.430	-0.890	0.580	-0.290
2020/01/31 14:15:22.8	359.410	-0.870	0.490	-0.300
2020/01/31 14:15:22.9	359.400	-0.850	0.400	-0.300
2020/01/31 14:15:23.0	359.390	-0.820	0.310	-0.300
2020/01/31 14:15:23.1	359.390	-0.780	0.210	-0.310
2020/01/31 14:15:23.2	359.380	-0.730	0.110	-0.320
2020/01/31 14:15:23.3	359.390	-0.680	0.000	-0.330
2020/01/31 14:15:23.4	359.390	-0.620	-0.100	-0.340
2020/01/31 14:15:23.5	359.400	-0.560	-0.210	-0.350
2020/01/31 14:15:23.6	359.430	-0.490	-0.310	-0.360
2020/01/31 14:15:23.7	359.450	-0.420	-0.410	-0.380
2020/01/31 14:15:23.8	359.470	-0.350	-0.520	-0.390
2020/01/31 14:15:23.9	359.490	-0.270	-0.610	-0.400
2020/01/31 14:15:24.0	359.520	-0.190	-0.710	-0.420
2020/01/31 14:15:24.1	359.550	-0.110	-0.800	-0.430
2020/01/31 14:15:24.2	359.580	-0.040	-0.880	-0.440
2020/01/31 14:15:24.3	359.620	0.040	-0.950	-0.450
2020/01/31 14:15:24.4	359.650	0.120	-1.020	-0.450
2020/01/31 14:15:24.5	359.690	0.190	-1.080	-0.460
2020/01/31 14:15:24.6	359.720	0.260	-1.130	-0.460
2020/01/31 14:15:24.7	359.760	0.330	-1.170	-0.450
2020/01/31 14:15:24.8	359.790	0.390	-1.190	-0.440
2020/01/31 14:15:24.9	359.820	0.450	-1.210	-0.430
2020/01/31 14:15:25.0	359.850	0.500	-1.210	-0.410
2020/01/31 14:15:25.1	359.880	0.540	-1.200	-0.390
2020/01/31 14:15:25.2	359.900	0.580	-1.180	-0.360
2020/01/31 14:15:25.3	359.910	0.610	-1.150	-0.330
2020/01/31 14:15:25.4	359.930	0.640	-1.110	-0.300
2020/01/31 14:15:25.5	359.940	0.650	-1.060	-0.250
2020/01/31 14:15:25.6	359.940	0.660	-1.000	-0.200
2020/01/31 14:15:25.7	359.940	0.670	-0.930	-0.160
2020/01/31 14:15:25.8	359.940	0.660	-0.850	-0.100
2020/01/31 14:15:25.9	359.940	0.650	-0.770	-0.050
2020/01/31 14:15:26.0	359.930	0.630	-0.680	0.010
2020/01/31 14:15:26.1	359.930	0.610	-0.590	0.070
2020/01/31 14:15:26.2	359.920	0.580	-0.500	0.130
2020/01/31 14:15:26.3	359.900	0.550	-0.410	0.190
2020/01/31 14:15:26.4	359.890	0.510	-0.310	0.250
2020/01/31 14:15:26.5	359.870	0.460	-0.220	0.310
2020/01/31 14:15:26.6	359.840	0.420	-0.130	0.370
2020/01/31 14:15:26.7	359.820	0.370	-0.040	0.420
2020/01/31 14:15:26.8	359.810	0.320	0.040	0.480
2020/01/31 14:15:26.9	359.790	0.260	0.110	0.530
2020/01/31 14:15:27.0	359.770	0.210	0.180	0.580
2020/01/31 14:15:27.1	359.760	0.160	0.240	0.630
2020/01/31 14:15:27.2	359.740	0.100	0.300	0.670
2020/01/31 14:15:27.3	359.720	0.050	0.340	0.710
2020/01/31 14:15:27.4	359.710	0.010	0.370	0.740
2020/01/31 14:15:27.5	359.690	-0.040	0.400	0.780
2020/01/31 14:15:27.6	359.680	-0.080	0.410	0.800
2020/01/31 14:15:27.7	359.670	-0.120	0.420	0.830
2020/01/31 14:15:27.8	359.660	-0.150	0.410	0.850
2020/01/31 14:15:27.9	359.650	-0.180	0.400	0.860
2020/01/31 14:15:28.0	359.630	-0.200	0.370	0.880
2020/01/31 14:15:28.1	359.620	-0.220	0.340	0.890
2020/01/31 14:15:28.2	359.610	-0.230	0.300	0.890
2020/01/31 14:15:28.3	359.600	-0.240	0.250	0.900
2020/01/31 14:15:28.4	359.600	-0.240	0.200	0.900
2020/01/31 14:15:28.5	359.590	-0.240	0.140	0.890
2020/01/31 14:15:28.6	359.570	-0.240	0.070	0.880
2020/01/31 14:15:28.7	359.560	-0.230	0.000	0.870
2020/01/31 14:15:28.8	359.560	-0.210	-0.070	0.850
2020/01/31 14:15:28.9	359.560	-0.190	-0.150	0.830
2020/01/31 14:15:29.0	359.550	-0.170	-0.220	0.810
2020/01/31 14:15:29.1	359.550	-0.150	-0.300	0.780
2020/01/31 14:15:29.2	359.560	-0.130	-0.380	0.750
2020/01/31 14:15:29.3	359.560	-0.100	-0.460	0.720
2020/01/31 14:15:29.4	359.570	-0.070	-0.540	0.680
2020/01/31 14:15:29.5	359.570	-0.050	-0.610	0.640
2020/01/31 14:15:29.6	359.580	-0.020	-0.690	0.600
2020/01/31 14:15:29.7	359.590	0.010	-0.750	0.550
2020/01/31 14:15:29.8	359.610	0.030	-0.820	0.500
2020/01/31 14:15:29.9	359.620	0.060	-0.880	0.450
2020/01/31 14:15:30.0	359.640	0.080	-0.940	0.390
2020/01/31 14:15:30.1	359.660	0.100	-0.990	0.340
2020/01/31 14:15:30.2	359.680	0.120	-1.030	0.280
2020/01/31 14:15:30.3	359.700	0.140	-1.070	0.220
2020/01/31 14:15:30.4	359.720	0.150	-1.100	0.160
2020/01/31 14:15:30.5	359.750	0.160	-1.130	0.100
2020/01/31 14:15:30.6	359.770	0.170	-1.150	0.040
2020/01/31 14:15:30.7	359.800	0.180	-1.160	-0.020
2020/01/31 14:15:30.8	359.820	0.180	-1.160	-0.080
2020/01/31 14:15:30.9	359.850	0.170	-1.160	-0.150
2020/01/31 14:15:31.0	359.880	0.170	-1.150	-0.210
2020/01/31 14:15:31.1	359.900	0.160	-1.130	-0.270
2020/01/31 14:15:31.2	359.930	0.150	-1.100	-0.320
2020/01/31 14:15:31.3	359.950	0.140	-1.070	-0.380
2020/01/31 14:15:31.4	359.970	0.120	-1.030	-0.440
2020/01/31 14:15:31.5	0.000	0.110	-0.980	-0.500
2020/01/31 14:15:31.6	0.020	0.090	-0.930	-0.550
2020/01/31 14:15:31.7	0.040	0.070	-0.870	-0.600
2020/01/31 14:15:31.8	0.060	0.050	-0.810	-0.650
2020/01/31 14:15:31.9	0.080	0.030	-0.740	-0.700
2020/01/31 14:15:32.0	0.100	0.010	-0.670	-0.750
2020/01/31 14:15:32.1	0.110	-0.010	-0.590	-0.790
2020/01/31 14:15:32.2	0.130	-0.030	-0.510	-0.820
2020/01/31 14:15:32.3	0.140	-0.050	-0.430	-0.860
2020/01/31 14:15:32.4	0.150	-0.070	-0.350	-0.890
2020/01/31 14:15:32.5	0.160	-0.080	-0.260	-0.910
2020/01/31 14:15:32.6	0.170	-0.100	-0.170	-0.940
2020/01/31 14:15:32.7	0.170	-0.110	-0.090	-0.950
2020/01/31 14:15:32.8	0.180	-0.120	-0.000	-0.960
2020/01/31 14:15:32.9	0.180	-0.120	0.080	-0.970
2020/01/31 14:15:33.0	0.180	-0.130	0.160	-0.970
2020/01/31 14:15:33.1	0.180	-0.130	0.240	-0.960
2020/01/31 14:15:33.2	0.170	-0.120	0.310	-0.950
2020/01/31 14:15:33.3	0.170	-0.120	0.380	-0.930
2020/01/31 14:15:33.4	0.160	-0.110	0.450	-0.910
2020/01/31 14:15:33.5	0.150	-0.100	0.510	-0.890
2020/01/31 14:15:33.6	0.160	-0.090	0.560	-0.860
2020/01/31 14:15:33.7	0.150	-0.070	0.610	-0.820
2020/01/31 14:15:33.8	0.140	-0.050	0.650	-0.790
2020/01/31 14:15:33.9	0.130	-0.030	0.680	-0.750
2020/01/31 14:15:34.0	0.120	-0.010	0.710	-0.710
2020/01/31 14:15:34.1	0.100	0.010	0.730	-0.670
2020/01/31 14:15:34.2	0.090	0.030	0.740	-0.630
2020/01/31 14:15:34.3	0.070	0.060	0.740	-0.590
2020/01/31 14:15:34.4	0.060	0.080	0.730	-0.550
2020/01/31 14:15:34.5	0.040	0.100	0.720	-0.510
2020/01/31 14:15:34.6	0.020	0.130	0.690	-0.460
2020/01/31 14:15:34.7	0.000	0.150	0.670	-0.420
2020/01/31 14:15:34.8	359.990	0.170	0.630	-0.380
2020/01/31 14:15:34.9	359.970	0.190	0.590	-0.350
2020/01/31 14:15:35.0	359.960	0.210	0.540	-0.310
2020/01/31 14:15:35.1	359.950	0.230	0.490	-0.270
2020/01/31 14:15:35.2	359.930	0.240	0.430	-0.240
2020/01/31 14:15:35.3	359.920	0.250	0.370	-0.210
2020/01/31 14:15:35.4	359.910	0.260	0.310	-0.170
2020/01/31 14:15:35.5	359.890	0.270	0.240	-0.140
2020/01/31 14:15:35.6	359.880	0.270	0.180	-0.110
2020/01/31 14:15:35.7	359.870	0.270	0.110	-0.080
2020/01/31 14:15:35.8	359.850	0.260	0.050	-0.050
2020/01/31 14:15:35.9	359.840	0.250	-0.020	-0.020
2020/01/31 14:15:36.0	359.820	0.240	-0.080	0.000
2020/01/31 14:15:36.1	359.800	0.220	-0.140	0.030
2020/01/31 14:15:36.2	359.790	0.210	-0.200	0.050
2020/01/31 14:15:36.3	359.770	0.180	-0.250	0.070
2020/01/31 14:15:36.4	359.760	0.160	-0.300	0.090
2020/01/31 14:15:36.5	359.740	0.130	-0.350	0.110
2020/01/31 14:15:36.6	359.740	0.090	-0.380	0.130
2020/01/31 14:15:36.7	359.720	0.060	-0.410	0.140
2020/01/31 14:15:36.8	359.710	0.020	-0.440	0.150
2020/01/31 14:15:36.9	359.700	-0.020	-0.470	0.150
2020/01/31 14:15:37.0	359.680	-0.060	-0.480	0.150
2020/01/31 14:15:37.1	359.670	-0.100	-0.500	0.150
2020/01/31 14:15:37.2	359.660	-0.140	-0.510	0.150
2020/01/31 14:15:37.3	359.650	-0.190	-0.510	0.140
2020/01/31 14:15:37.4	359.650	-0.230	-0.510	0.130
2020/01/31 14:15:37.5	359.640	-0.270	-0.500	0.120
2020/01/31 14:15:37.6	359.640	-0.310	-0.500	0.100
2020/01/31 14:15:37.7	359.640	-0.350	-0.480	0.080
2020/01/31 14:15:37.8	359.640	-0.390	-0.470	0.060
2020/01/31 14:15:37.9	359.640	-0.430	-0.450	0.050
2020/01/31 14:15:38.0	359.640	-0.460	-0.430	0.030
2020/01/31 14:15:38.1	359.650	-0.490	-0.410	0.010
2020/01/31 14:15:38.2	359.650	-0.520	-0.390	-0.010
2020/01/31 14:15:38.3	359.660	-0.540	-0.370	-0.030
2020/01/31 14:15:38.4	359.660	-0.560	-0.350	-0.050
2020/01/31 14:15:38.5	359.670	-0.570	-0.330	-0.070
2020/01/31 14:15:38.6	359.680	-0.580	-0.310	-0.080
2020/01/31 14:15:38.7	359.690	-0.590	-0.290	-0.100
2020/01/31 14:15:38.8	359.700	-0.580	-0.280	-0.110
2020/01/31 14:15:38.9	359.710	-0.580	-0.270	-0.130
2020/01/31 14:15:39.0	359.730	-0.570	-0.250	-0.140
2020/01/31 14:15:39.1	359.740	-0.550	-0.250	-0.150
2020/01/31 14:15:39.2	359.750	-0.530	-0.240	-0.160
2020/01/31 14:15:39.3	359.770	-0.500	-0.240	-0.160
2020/01/31 14:15:39.4	359.780	-0.470	-0.240	-0.170
2020/01/31 14:15:39.5	359.800	-0.430	-0.250	-0.170
2020/01/31 14:15:39.6	359.820	-0.390	-0.260	-0.180
2020/01/31 14:15:39.7	359.840	-0.340	-0.280	-0.180
2020/01/31 14:15:39.8	359.860	-0.290	-0.300	-0.180
2020/01/31 14:15:39.9	359.870	-0.240	-0.320	-0.170
2020/01/31 14:15:40.0	359.890	-0.190	-0.340	-0.170
2020/01/31 14:15:40.1	359.900	-0.130	-0.370	-0.160
2020/01/31 14:15:40.2	359.920	-0.070	-0.400	-0.150
2020/01/31 14:15:40.3	359.940	-0.010	-0.430	-0.140
2020/01/31 14:15:40.4	359.950	0.050	-0.470	-0.120
2020/01/31 14:15:40.5	359.970	0.110	-0.500	-0.110
2020/01/31 14:15:40.6	359.970	0.170	-0.540	-0.090
2020/01/31 14:15:40.7	359.990	0.230	-0.580	-0.070
2020/01/31 14:15:40.8	0.000	0.290	-0.610	-0.050
2020/01/31 14:15:40.9	0.020	0.340	-0.650	-0.030
2020/01/31 14:15:41.0	0.030	0.390	-0.690	-0.000
2020/01/31 14:15:41.1	0.040	0.450	-0.720	0.020
2020/01/31 14:15:41.2	0.060	0.490	-0.750	0.040
2020/01/31 14:15:41.3	0.070	0.540	-0.780	0.070
2020/01/31 14:15:41.4	0.080	0.580	-0.810	0.100
2020/01/31 14:15:41.5	0.100	0.610	-0.830	0.120
2020/01/31 14:15:41.6	0.110	0.640	-0.850	0.140
2020/01/31 14:15:41.7	0.130	0.670	-0.870	0.170
2020/01/31 14:15:41.8	0.140	0.690	-0.880	0.200
2020/01/31 14:15:41.9	0.160	0.700	-0.890	0.220
2020/01/31 14:15:42.0	0.170	0.710	-0.890	0.240
2020/01/31 14:15:42.1	0.190	0.720	-0.880	0.270
2020/01/31 14:15:42.2	0.200	0.710	-0.870	0.290
2020/01/31 14:15:42.3	0.220	0.710	-0.860	0.310
2020/01/31 14:15:42.4	0.230	0.690	-0.840	0.330
2020/01/31 14:15:42.5	0.240	0.670	-0.820	0.350
2020/01/31 14:15:42.6	0.240	0.650	-0.790	0.370
2020/01/31 14:15:42.7	0.250	0.620	-0.750	0.380
2020/01/31 14:15:42.8	0.260	0.590	-0.720	0.400
2020/01/31 14:15:42.9	0.270	0.550	-0.670	0.410
2020/01/31 14:15:43.0	0.270	0.510	-0.630	0.420
2020/01/31 14:15:43.1	0.280	0.460	-0.570	0.420
2020/01/31 14:15:43.2	0.280	0.410	-0.520	0.430
2020/01/31 14:15:43.3	0.280	0.360	-0.460	0.430
2020/01/31 14:15:43.4	0.280	0.300	-0.400	0.430
2020/01/31 14:15:43.5	0.280	0.240	-0.340	0.430
2020/01/31 14:15:43.6	0.260	0.180	-0.280	0.420
2020/01/31 14:15:43.7	0.260	0.120	-0.220	0.410
2020/01/31 14:15:43.8	0.250	0.060	-0.160	0.400
2020/01/31 14:15:43.9	0.250	-0.000	-0.090	0.380
2020/01/31 14:15:44.0	0.250	-0.070	-0.030	0.360
2020/01/31 14:15:44.1	0.240	-0.130	0.030	0.330
2020/01/31 14:15:44.2	0.240	-0.190	0.090	0.300
2020/01/31 14:15:44.3	0.240	-0.250	0.140	0.260
2020/01/31 14:15:44.4	0.240	-0.300	0.200	0.220
2020/01/31 14:15:44.5	0.230	-0.360	0.250	0.180
2020/01/31 14:15:44.6	0.230	-0.410	0.300	0.130
2020/01/31 14:15:44.7	0.230	-0.460	0.340	0.080
2020/01/31 14:15:44.8	0.230	-0.500	0.380	0.030
2020/01/31 14:15:44.9	0.230	-0.540	0.410	-0.020
2020/01/31 14:15:45.0	0.220	-0.570	0.450	-0.070
2020/01/31 14:15:45.1	0.220	-0.600	0.470	-0.120
2020/01/31 14:15:45.2	0.220	-0.630	0.500	-0.170
2020/01/31 14:15:45.3	0.220	-0.650	0.520	-0.210
2020/01/31 14:15:45.4	0.210	-0.660	0.530	-0.260
2020/01/31 14:15:45.5	0.200	-0.670	0.540	-0.300
2020/01/31 14:15:45.6	0.190	-0.670	0.550	-0.330
2020/01/31 14:15:45.7	0.180	-0.670	0.550	-0.370
2020/01/31 14:15:45.8	0.170	-0.660	0.560	-0.400
2020/01/31 14:15:45.9	0.160	-0.650	0.560	-0.420
2020/01/31 14:15:46.0	0.140	-0.630	0.550	-0.440
2020/01/31 14:15:46.1	0.120	-0.610	0.540	-0.450
2020/01/31 14:15:46.2	0.110	-0.580	0.540	-0.470
2020/01/31 14:15:46.3	0.090	-0.550	0.520	-0.470
2020/01/31 14:15:46.4	0.070	-0.520	0.510	-0.480
2020/01/31 14:15:46.5	0.050	-0.480	0.490	-0.480
2020/01/31 14:15:46.6	0.010	-0.440	0.470	-0.480
2020/01/31 14:15:46.7	359.980	-0.400	0.450	-0.470
2020/01/31 14:15:46.8	359.960	-0.350	0.420	-0.460
2020/01/31 14:15:46.9	359.930	-0.300	0.390	-0.450
2020/01/31 14:15:47.0	359.910	-0.250	0.360	-0.440
2020/01/31 14:15:47.1	359.880	-0.200	0.330	-0.430
2020/01/31 14:15:47.2	359.860	-0.150	0.290	-0.410
2020/01/31 14:15:47.3	359.830	-0.100	0.250	-0.400
2020/01/31 14:15:47.4	359.800	-0.040	0.200	-0.380
2020/01/31 14:15:47.5	359.780	0.010	0.150	-0.360
2020/01/31 14:15:47.6	359.770	0.060	0.100	-0.340
2020/01/31 14:15:47.7	359.740	0.110	0.050	-0.330
2020/01/31 14:15:47.8	359.720	0.160	-0.010	-0.310
2020/01/31 14:15:47.9	359.700	0.210	-0.070	-0.290
2020/01/31 14:15:48.0	359.690	0.260	-0.130	-0.270
2020/01/31 14:15:48.1	359.670	0.300	-0.190	-0.260
2020/01/31 14:15:48.2	359.660	0.350	-0.250	-0.240
2020/01/31 14:15:48.3	359.650	0.390	-0.320	-0.220
2020/01/31 14:15:48.4	359.640	0.420	-0.380	-0.210
2020/01/31 14:15:48.5	359.630	0.460	-0.450	-0.190
2020/01/31 14:15:48.6	359.630	0.490	-0.520	-0.170
2020/01/31 14:15:48.7	359.630	0.520	-0.580	-0.150
2020/01/31 14:15:48.8	359.630	0.540	-0.640	-0.130
2020/01/31 14:15:48.9	359.630	0.560	-0.700	-0.120
2020/01/31 14:15:49.0	359.640	0.580	-0.760	-0.100
2020/01/31 14:15:49.1	359.640	0.590	-0.820	-0.090
2020/01/31 14:15:49.2	359.650	0.600	-0.870	-0.070
2020/01/31 14:15:49.3	359.660	0.610	-0.920	-0.060
2020/01/31 14:15:49.4	359.680	0.610	-0.960	-0.050
2020/01/31 14:15:49.5	359.690	0.610	-1.000	-0.040
2020/01/31 14:15:49.6	359.710	0.610	-1.030	-0.030
2020/01/31 14:15:49.7	359.730	0.600	-1.060	-0.020
2020/01/31 14:15:49.8	359.750	0.590	-1.080	-0.020
2020/01/31 14:15:49.9	359.770	0.570	-1.100	-0.020
2020/01/31 14:15:50.0	359.790	0.550	-1.110	-0.020
2020/01/31 14:15:50.1	359.810	0.530	-1.120	-0.020
2020/01/31 14:15:50.2	359.840	0.500	-1.120	-0.020
2020/01/31 14:15:50.3	359.860	0.480	-1.120	-0.030
2020/01/31 14:15:50.4	359.890	0.450	-1.110	-0.040
2020/01/31 14:15:50.5	359.910	0.420	-1.090	-0.040
2020/01/31 14:15:50.6	359.940	0.380	-1.080	-0.050
2020/01/31 14:15:50.7	359.960	0.350	-1.050	-0.070
2020/01/31 14:15:50.8	359.990	0.310	-1.020	-0.080
2020/01/31 14:15:50.9	0.010	0.270	-0.990	-0.090
2020/01/31 14:15:51.0	0.030	0.230	-0.950	-0.100
2020/01/31 14:15:51.1	0.050	0.190	-0.900	-0.120
2020/01/31 14:15:51.2	0.070	0.150	-0.860	-0.130
2020/01/31 14:15:51.3	0.090	0.110	-0.810	-0.140
2020/01/31 14:15:51.4	0.110	0.070	-0.750	-0.150
2020/01/31 14:15:51.5	0.130	0.030	-0.700	-0.160
2020/01/31 14:15:51.6	0.150	-0.010	-0.630	-0.180
2020/01/31 14:15:51.7	0.170	-0.050	-0.570	-0.190
2020/01/31 14:15:51.8	0.180	-0.090	-0.510	-0.200
2020/01/31 14:15:51.9	0.200	-0.130	-0.450	-0.210
2020/01/31 14:15:52.0	0.210	-0.160	-0.380	-0.220
2020/01/31 14:15:52.1	0.230	-0.200	-0.320	-0.230
2020/01/31 14:15:52.2	0.240	-0.230	-0.260	-0.240
2020/01/31 14:15:52.3	0.250	-0.260	-0.200	-0.250
2020/01/31 14:15:52.4	0.270	-0.290	-0.140	-0.260
2020/01/31 14:15:52.5	0.280	-0.320	-0.080	-0.270
2020/01/31 14:15:52.6	0.280	-0.350	-0.030	-0.290
2020/01/31 14:15:52.7	0.290	-0.370	0.030	-0.300
2020/01/31 14:15:52.8	0.310	-0.390	0.080	-0.310
2020/01/31 14:15:52.9	0.320	-0.410	0.130	-0.320
2020/01/31 14:15:53.0	0.330	-0.430	0.180	-0.330
2020/01/31 14:15:53.1	0.340	-0.450	0.220	-0.340
2020/01/31 14:15:53.2	0.350	-0.460	0.260	-0.350
2020/01/31 14:15:53.3	0.360	-0.470	0.300	-0.360
2020/01/31 14:15:53.4	0.370	-0.490	0.330	-0.360
2020/01/31 14:15:53.5	0.370	-0.490	0.370	-0.370
2020/01/31 14:15:53.6	0.400	-0.500	0.400	-0.370
2020/01/31 14:15:53.7	0.400	-0.510	0.420	-0.370
2020/01/31 14:15:53.8	0.400	-0.510	0.440	-0.370
2020/01/31 14:15:53.9	0.400	-0.510	0.460	-0.370
2020/01/31 14:15:54.0	0.390	-0.510	0.480	-0.370
2020/01/31 14:15:54.1	0.380	-0.510	0.490	-0.360
2020/01/31 14:15:54.2	0.380	-0.510	0.500	-0.350
2020/01/31 14:15:54.3	0.360	-0.500	0.510	-0.330
2020/01/31 14:15:54.4	0.350	-0.500	0.520	-0.310
2020/01/31 14:15:54.5	0.330	-0.490	0.520	-0.290
2020/01/31 14:15:54.6	0.310	-0.480	0.520	-0.260
2020/01/31 14:15:54.7	0.290	-0.460	0.520	-0.230
2020/01/31 14:15:54.8	0.270	-0.450	0.510	-0.200
2020/01/31 14:15:54.9	0.250	-0.430	0.500	-0.170
2020/01/31 14:15:55.0	0.220	-0.410	0.480	-0.130
2020/01/31 14:15:55.1	0.200	-0.390	0.470	-0.090
2020/01/31 14:15:55.2	0.170	-0.370	0.440	-0.050
2020/01/31 14:15:55.3	0.150	-0.340	0.420	-0.010
2020/01/31 14:15:55.4	0.120	-0.320	0.390	0.030
2020/01/31 14:15:55.5	0.100	-0.290	0.350	0.070
2020/01/31 14:15:55.6	0.060	-0.260	0.310	0.120
2020/01/31 14:15:55.7	0.040	-0.230	0.270	0.160
2020/01/31 14:15:55.8	0.020	-0.190	0.220	0.190
2020/01/31 14:15:55.9	359.990	-0.160	0.170	0.230
2020/01/31 14:15:56.0	359.970	-0.120	0.110	0.260
2020/01/31 14:15:56.1	359.950	-0.080	0.050	0.290
2020/01/31 14:15:56.2	359.940	-0.040	-0.010	0.320
2020/01/31 14:15:56.3	359.920	-0.000	-0.070	0.340
2020/01/31 14:15:56.4	359.900	0.040	-0.140	0.370
2020/01/31 14:15:56.5	359.890	0.090	-0.210	0.390
2020/01/31 14:15:56.6	359.890	0.130	-0.280	0.400
2020/01/31 14:15:56.7	359.880	0.180	-0.340	0.410
2020/01/31 14:15:56.8	359.870	0.230	-0.410	0.430
2020/01/31 14:15:56.9	359.860	0.270	-0.480	0.440
2020/01/31 14:15:57.0	359.850	0.320	-0.550	0.440
2020/01/31 14:15:57.1	359.840	0.370	-0.610	0.450
2020/01/31 14:15:57.2	359.840	0.410	-0.670	0.450
2020/01/31 14:15:57.3	359.840	0.460	-0.720	0.460
2020/01/31 14:15:57.4	359.840	0.500	-0.770	0.460
2020/01/31 14:15:57.5	359.830	0.540	-0.820	0.460
2020/01/31 14:15:57.6	359.830	0.580	-0.860	0.460
2020/01/31 14:15:57.7	359.830	0.610	-0.900	0.460
2020/01/31 14:15:57.8	359.830	0.640	-0.930	0.450
2020/01/31 14:15:57.9	359.830	0.670	-0.950	0.450
2020/01/31 14:15:58.0	359.830	0.690	-0.970	0.450
2020/01/31 14:15:58.1	359.820	0.700	-0.980	0.440
2020/01/31 14:15:58.2	359.820	0.710	-0.980	0.430
2020/01/31 14:15:58.3	359.820	0.720	-0.980	0.430
2020/01/31 14:15:58.4	359.810	0.720	-0.970	0.420
2020/01/31 14:15:58.5	359.800	0.710	-0.950	0.400
2020/01/31 14:15:58.6	359.790	0.700	-0.930	0.390
2020/01/31 14:15:58.7	359.790	0.680	-0.910	0.370
2020/01/31 14:15:58.8	359.780	0.660	-0.870	0.360
2020/01/31 14:15:58.9	359.770	0.630	-0.840	0.330
2020/01/31 14:15:59.0	359.760	0.600	-0.800	0.310
2020/01/31 14:15:59.1	359.760	0.560	-0.750	0.280
2020/01/31 14:15:59.2	359.750	0.520	-0.710	0.240
2020/01/31 14:15:59.3	359.750	0.470	-0.660	0.210
2020/01/31 14:15:59.4	359.740	0.420	-0.610	0.170
2020/01/31 14:15:59.5	359.740	0.370	-0.560	0.120
2020/01/31 14:15:59.6	359.750	0.310	-0.510	0.070
2020/01/31 14:15:59.7	359.760	0.260	-0.470	0.020
2020/01/31 14:15:59.8	359.760	0.200	-0.420	-0.030
2020/01/31 14:15:59.9	359.770	0.140	-0.380	-0.090
2020/01/31 14:16:00.0	359.780	0.080	-0.340	-0.150
2020/01/31 14:16:00.1	359.790	0.020	-0.300	-0.220
2020/01/31 14:16:00.2	359.810	-0.040	-0.260	-0.290
2020/01/31 14:16:00.3	359.820	-0.090	-0.240	-0.360
2020/01/31 14:16:00.4	359.840	-0.150	-0.210	-0.430
2020/01/31 14:16:00.5	359.870	-0.200	-0.190	-0.500
2020/01/31 14:16:00.6	359.890	-0.250	-0.180	-0.570
2020/01/31 14:16:00.7	359.920	-0.290	-0.160	-0.640
2020/01/31 14:16:00.8	359.940	-0.340	-0.150	-0.700
2020/01/31 14:16:00.9	359.970	-0.370	-0.140	-0.770
2020/01/31 14:16:01.0	359.990	-0.410	-0.140	-0.830
2020/01/31 14:16:01.1	0.010	-0.440	-0.140	-0.890
2020/01/31 14:16:01.2	0.040	-0.470	-0.140	-0.940
2020/01/31 14:16:01.3	0.060	-0.490	-0.140	-0.990
2020/01/31 14:16:01.4	0.070	-0.510	-0.140	-1.040
2020/01/31 14:16:01.5	0.090	-0.530	-0.140	-1.080
2020/01/31 14:16:01.6	0.110	-0.540	-0.140	-1.120
2020/01/31 14:16:01.7	0.130	-0.550	-0.150	-1.160
2020/01/31 14:16:01.8	0.140	-0.560	-0.150	-1.190
2020/01/31 14:16:01.9	0.160	-0.560	-0.150	-1.220
2020/01/31 14:16:02.0	0.170	-0.560	-0.160	-1.250
2020/01/31 14:16:02.1	0.180	-0.550	-0.160	-1.270
2020/01/31 14:16:02.2	0.200	-0.540	-0.160	-1.300
2020/01/31 14:16:02.3	0.210	-0.530	-0.160	-1.310
2020/01/31 14:16:02.4	0.220	-0.510	-0.160	-1.330
2020/01/31 14:16:02.5	0.240	-0.500	-0.160	-1.340
2020/01/31 14:16:02.6	0.250	-0.470	-0.160	-1.350
2020/01/31 14:16:02.7	0.260	-0.450	-0.160	-1.350
2020/01/31 14:16:02.8	0.280	-0.420	-0.150	-1.350
2020/01/31 14:16:02.9	0.290	-0.390	-0.140	-1.340
2020/01/31 14:16:03.0	0.310	-0.350	-0.140	-1.330
2020/01/31 14:16:03.1	0.320	-0.320	-0.130	-1.310
2020/01/31 14:16:03.2	0.340	-0.280	-0.120	-1.280
2020/01/31 14:16:03.3	0.350	-0.240	-0.100	-1.260
2020/01/31 14:16:03.4	0.360	-0.190	-0.090	-1.220
2020/01/31 14:16:03.5	0.380	-0.150	-0.070	-1.180
2020/01/31 14:16:03.6	0.390	-0.110	-0.060	-1.130
2020/01/31 14:16:03.7	0.410	-0.060	-0.040	-1.080
2020/01/31 14:16:03.8	0.410	-0.020	-0.020	-1.030
2020/01/31 14:16:03.9	0.420	0.030	0.000	-0.960
2020/01/31 14:16:04.0	0.430	0.070	0.030	-0.900
2020/01/31 14:16:04.1	0.440	0.110	0.060	-0.830
2020/01/31 14:16:04.2	0.440	0.150	0.080	-0.760
2020/01/31 14:16:04.3	0.440	0.190	0.110	-0.680
2020/01/31 14:16:04.4	0.440	0.230	0.140	-0.600
2020/01/31 14:16:04.5	0.440	0.260	0.170	-0.520
2020/01/31 14:16:04.6	0.450	0.300	0.200	-0.430
2020/01/31 14:16:04.7	0.440	0.330	0.230	-0.350
2020/01/31 14:16:04.8	0.440	0.350	0.250	-0.260
2020/01/31 14:16:04.9	0.430	0.370	0.280	-0.170
2020/01/31 14:16:05.0	0.420	0.390	0.300	-0.090
2020/01/31 14:16:05.1	0.410	0.410	0.320	-0.000
2020/01/31 14:16:05.2	0.400	0.420	0.340	0.090
2020/01/31 14:16:05.3	0.390	0.430	0.350	0.170
2020/01/31 14:16:05.4	0.370	0.430	0.370	0.250
2020/01/31 14:16:05.5	0.350	0.430	0.370	0.340
2020/01/31 14:16:05.6	0.320	0.430	0.370	0.420
2020/01/31 14:16:05.7	0.290	0.420	0.370	0.500
2020/01/31 14:16:05.8	0.270	0.410	0.370	0.570
2020/01/31 14:16:05.9	0.240	0.390	0.360	0.640
2020/01/31 14:16:06.0	0.210	0.370	0.350	0.700
2020/01/31 14:16:06.1	0.180	0.350	0.330	0.760
2020/01/31 14:16:06.2	0.150	0.320	0.310	0.820
2020/01/31 14:16:06.3	0.120	0.290	0.280	0.860
2020/01/31 14:16:06.4	0.080	0.260	0.250	0.900
2020/01/31 14:16:06.5	0.050	0.220	0.210	0.930
2020/01/31 14:16:06.6	0.020	0.190	0.170	0.960
2020/01/31 14:16:06.7	359.990	0.140	0.120	0.970
2020/01/31 14:16:06.8	359.960	0.100	0.060	0.970
2020/01/31 14:16:06.9	359.940	0.060	0.010	0.970
2020/01/31 14:16:07.0	359.920	0.020	-0.060	0.950
2020/01/31 14:16:07.1	359.900	-0.030	-0.130	0.930
2020/01/31 14:16:07.2	359.890	-0.070	-0.200	0.890
2020/01/31 14:16:07.3	359.880	-0.110	-0.270	0.850
2020/01/31 14:16:07.4	359.870	-0.160	-0.350	0.800
2020/01/31 14:16:07.5	359.870	-0.200	-0.430	0.740
2020/01/31 14:16:07.6	359.880	-0.240	-0.500	0.670
2020/01/31 14:16:07.7	359.880	-0.270	-0.590	0.600
2020/01/31 14:16:07.8	359.880	-0.310	-0.670	0.520
2020/01/31 14:16:07.9	359.890	-0.340	-0.750	0.430
2020/01/31 14:16:08.0	359.910	-0.360	-0.840	0.340
2020/01/31 14:16:08.1	359.920	-0.390	-0.920	0.240
2020/01/31 14:16:08.2	359.930	-0.410	-1.000	0.140
2020/01/31 14:16:08.3	359.950	-0.420	-1.070	0.030
2020/01/31 14:16:08.4	359.970	-0.440	-1.140	-0.070
2020/01/31 14:16:08.5	0.000	-0.440	-1.210	-0.180
2020/01/31 14:16:08.6	0.030	-0.450	-1.270	-0.300
2020/01/31 14:16:08.7	0.060	-0.450	-1.320	-0.410
2020/01/31 14:16:08.8	0.090	-0.440	-1.370	-0.520
2020/01/31 14:16:08.9	0.120	-0.430	-1.410	-0.630
2020/01/31 14:16:09.0	0.150	-0.420	-1.440	-0.740
2020/01/31 14:16:09.1	0.190	-0.400	-1.470	-0.850
2020/01/31 14:16:09.2	0.220	-0.380	-1.480	-0.950
2020/01/31 14:16:09.3	0.250	-0.360	-1.490	-1.050
2020/01/31 14:16:09.4	0.290	-0.330	-1.490	-1.150
2020/01/31 14:16:09.5	0.320	-0.300	-1.480	-1.240
2020/01/31 14:16:09.6	0.360	-0.270	-1.450	-1.320
2020/01/31 14:16:09.7	0.390	-0.230	-1.420	-1.410
2020/01/31 14:16:09.8	0.430	-0.190	-1.380	-1.480
2020/01/31 14:16:09.9	0.460	-0.160	-1.340	-1.550
2020/01/31 14:16:10.0	0.500	-0.120	-1.280	-1.620
2020/01/31 14:16:10.1	0.530	-0.080	-1.220	-1.680
2020/01/31 14:16:10.2	0.560	-0.040	-1.150	-1.730
2020/01/31 14:16:10.3	0.590	-0.000	-1.080	-1.770
2020/01/31 14:16:10.4	0.620	0.040	-1.000	-1.810
2020/01/31 14:16:10.5	0.650	0.070	-0.910	-1.840
2020/01/31 14:16:10.6	0.670	0.110	-0.830	-1.860
2020/01/31 14:16:10.7	0.690	0.140	-0.730	-1.870
2020/01/31 14:16:10.8	0.710	0.160	-0.640	-1.880
2020/01/31 14:16:10.9	0.720	0.190	-0.540	-1.880
2020/01/31 14:16:11.0	0.740	0.210	-0.440	-1.870
2020/01/31 14:16:11.1	0.750	0.230	-0.340	-1.860
2020/01/31 14:16:11.2	0.750	0.250	-0.240	-1.830
2020/01/31 14:16:11.3	0.760	0.260	-0.150	-1.810
2020/01/31 14:16:11.4	0.760	0.270	-0.050	-1.770
2020/01/31 14:16:11.5	0.760	0.280	0.040	-1.730
2020/01/31 14:16:11.6	0.740	0.280	0.130	-1.680
2020/01/31 14:16:11.7	0.740	0.280	0.210	-1.630
2020/01/31 14:16:11.8	0.730	0.270	0.280	-1.580
2020/01/31 14:16:11.9	0.720	0.270	0.350	-1.520
2020/01/31 14:16:12.0	0.710	0.260	0.420	-1.460
2020/01/31 14:16:12.1	0.700	0.250	0.480	-1.400
2020/01/31 14:16:12.2	0.690	0.230	0.530	-1.330
2020/01/31 14:16:12.3	0.670	0.220	0.570	-1.260
2020/01/31 14:16:12.4	0.660	0.200	0.610	-1.190
2020/01/31 14:16:12.5	0.640	0.190	0.640	-1.120
2020/01/31 14:16:12.6	0.640	0.170	0.660	-1.040
2020/01/31 14:16:12.7	0.620	0.150	0.680	-0.960
2020/01/31 14:16:12.8	0.610	0.140	0.690	-0.880
2020/01/31 14:16:12.9	0.590	0.120	0.690	-0.800
2020/01/31 14:16:13.0	0.580	0.110	0.690	-0.720
2020/01/31 14:16:13.1	0.570	0.100	0.680	-0.640
2020/01/31 14:16:13.2	0.560	0.090	0.660	-0.560
2020/01/31 14:16:13.3	0.550	0.080	0.640	-0.480
2020/01/31 14:16:13.4	0.550	0.070	0.610	-0.400
2020/01/31 14:16:13.5	0.540	0.070	0.570	-0.320
2020/01/31 14:16:13.6	0.530	0.070	0.540	-0.230
2020/01/31 14:16:13.7	0.520	0.070	0.490	-0.150
2020/01/31 14:16:13.8	0.530	0.070	0.440	-0.080
2020/01/31 14:16:13.9	0.530	0.080	0.380	-0.000
2020/01/31 14:16:14.0	0.530	0.090	0.320	0.070
2020/01/31 14:16:14.1	0.540	0.100	0.260	0.140
2020/01/31 14:16:14.2	0.550	0.120	0.190	0.210
2020/01/31 14:16:14.3	0.560	0.140	0.130	0.280
2020/01/31 14:16:14.4	0.570	0.150	0.060	0.340
2020/01/31 14:16:14.5	0.580	0.170	-0.010	0.400
2020/01/31 14:16:14.6	0.590	0.190	-0.080	0.460
2020/01/31 14:16:14.7	0.600	0.220	-0.150	0.510
2020/01/31 14:16:14.8	0.620	0.240	-0.210	0.560
2020/01/31 14:16:14.9	0.630	0.260	-0.280	0.610
2020/01/31 14:16:15.0	0.650	0.280	-0.340	0.650
2020/01/31 14:16:15.1	0.660	0.300	-0.390	0.700
2020/01/31 14:16:15.2	0.680	0.320	-0.450	0.730
2020/01/31 14:16:15.3	0.690	0.330	-0.490	0.770
2020/01/31 14:16:15.4	0.710	0.350	-0.530	0.800
2020/01/31 14:16:15.5	0.720	0.360	-0.570	0.830
2020/01/31 14:16:15.6	0.720	0.370	-0.600	0.860
2020/01/31 14:16:15.7	0.730	0.370	-0.620	0.880
2020/01/31 14:16:15.8	0.740	0.370	-0.640	0.900
2020/01/31 14:16:15.9	0.740	0.370	-0.650	0.920
2020/01/31 14:16:16.0	0.740	0.360	-0.650	0.940
2020/01/31 14:16:16.1	0.740	0.340	-0.650	0.950
2020/01/31 14:16:16.2	0.740	0.330	-0.640	0.970
2020/01/31 14:16:16.3	0.730	0.310	-0.620	0.980
2020/01/31 14:16:16.4	0.720	0.280	-0.600	0.980
2020/01/31 14:16:16.5	0.710	0.250	-0.570	0.980
2020/01/31 14:16:16.6	0.700	0.220	-0.540	0.990
2020/01/31 14:16:16.7	0.680	0.180	-0.500	0.990
2020/01/31 14:16:16.8	0.670	0.130	-0.460	0.980
2020/01/31 14:16:16.9	0.650	0.090	-0.420	0.970
2020/01/31 14:16:17.0	0.630	0.040	-0.370	0.960
2020/01/31 14:16:17.1	0.610	-0.010	-0.320	0.950
2020/01/31 14:16:17.2	0.590	-0.070	-0.270	0.930
2020/01/31 14:16:17.3	0.570	-0.120	-0.220	0.910
2020/01/31 14:16:17.4	0.540	-0.180	-0.170	0.880
2020/01/31 14:16:17.5	0.520	-0.240	-0.120	0.850
2020/01/31 14:16:17.6	0.500	-0.300	-0.080	0.810
2020/01/31 14:16:17.7	0.480	-0.350	-0.040	0.770
2020/01/31 14:16:17.8	0.460	-0.410	0.000	0.730
2020/01/31 14:16:17.9	0.440	-0.460	0.040	0.680
2020/01/31 14:16:18.0	0.420	-0.520	0.070	0.630
2020/01/31 14:16:18.1	0.400	-0.570	0.100	0.580
2020/01/31 14:16:18.2	0.380	-0.610	0.120	0.520
2020/01/31 14:16:18.3	0.360	-0.660	0.140	0.450
2020/01/31 14:16:18.4	0.350	-0.690	0.150	0.390
2020/01/31 14:16:18.5	0.330	-0.730	0.160	0.320
2020/01/31 14:16:18.6	0.330	-0.760	0.170	0.240
2020/01/31 14:16:18.7	0.320	-0.780	0.160	0.160
2020/01/31 14:16:18.8	0.310	-0.800	0.150	0.080
2020/01/31 14:16:18.9	0.300	-0.810	0.130	0.000
2020/01/31 14:16:19.0	0.290	-0.810	0.110	-0.080
2020/01/31 14:16:19.1	0.290	-0.810	0.080	-0.170
2020/01/31 14:16:19.2	0.280	-0.800	0.040	-0.250
2020/01/31 14:16:19.3	0.280	-0.790	0.010	-0.340
2020/01/31 14:16:19.4	0.280	-0.770	-0.040	-0.430
2020/01/31 14:16:19.5	0.280	-0.740	-0.080	-0.510
2020/01/31 14:16:19.6	0.310	-0.710	-0.130	-0.610
2020/01/31 14:16:19.7	0.310	-0.670	-0.180	-0.690
2020/01/31 14:16:19.8	0.320	-0.620	-0.240	-0.770
2020/01/31 14:16:19.9	0.330	-0.570	-0.290	-0.850
2020/01/31 14:16:20.0	0.350	-0.520	-0.340	-0.930
2020/01/31 14:16:20.1	0.360	-0.460	-0.400	-1.010
2020/01/31 14:16:20.2	0.380	-0.400	-0.450	-1.080
2020/01/31 14:16:20.3	0.400	-0.340	-0.500	-1.150
2020/01/31 14:16:20.4	0.420	-0.270	-0.550	-1.210
2020/01/31 14:16:20.5	0.440	-0.200	-0.600	-1.270
2020/01/31 14:16:20.6	0.470	-0.140	-0.640	-1.330
2020/01/31 14:16:20.7	0.490	-0.070	-0.680	-1.380
2020/01/31 14:16:20.8	0.510	-0.010	-0.710	-1.420
2020/01/31 14:16:20.9	0.530	0.060	-0.740	-1.460
2020/01/31 14:16:21.0	0.550	0.120	-0.770	-1.490
2020/01/31 14:16:21.1	0.570	0.180	-0.790	-1.520
2020/01/31 14:16:21.2	0.580	0.240	-0.810	-1.540
2020/01/31 14:16:21.3	0.600	0.290	-0.810	-1.560
2020/01/31 14:16:21.4	0.610	0.340	-0.820	-1.560
2020/01/31 14:16:21.5	0.620	0.380	-0.820	-1.570
2020/01/31 14:16:21.6	0.650	0.420	-0.810	-1.570
2020/01/31 14:16:21.7	0.650	0.450	-0.790	-1.560
2020/01/31 14:16:21.8	0.660	0.480	-0.770	-1.540
2020/01/31 14:16:21.9	0.660	0.510	-0.750	-1.520
2020/01/31 14:16:22.0	0.660	0.530	-0.720	-1.500
2020/01/31 14:16:22.1	0.670	0.540	-0.680	-1.470
2020/01/31 14:16:22.2	0.660	0.550	-0.640	-1.430
2020/01/31 14:16:22.3	0.660	0.550	-0.600	-1.390
2020/01/31 14:16:22.4	0.650	0.550	-0.550	-1.340
2020/01/31 14:16:22.5	0.650	0.540	-0.500	-1.290
2020/01/31 14:16:22.6	0.650	0.530	-0.460	-1.220
2020/01/31 14:16:22.7	0.640	0.520	-0.410	-1.160
2020/01/31 14:16:22.8	0.630	0.500	-0.350	-1.100
2020/01/31 14:16:22.9	0.620	0.480	-0.300	-1.030
2020/01/31 14:16:23.0	0.610	0.460	-0.240	-0.960
2020/01/31 14:16:23.1	0.590	0.430	-0.190	-0.890
2020/01/31 14:16:23.2	0.580	0.400	-0.140	-0.810
2020/01/31 14:16:23.3	0.570	0.370	-0.090	-0.740
2020/01/31 14:16:23.4	0.560	0.340	-0.050	-0.660
2020/01/31 14:16:23.5	0.540	0.310	-0.000	-0.590
2020/01/31 14:16:23.6	0.520	0.280	0.030	-0.520
2020/01/31 14:16:23.7	0.510	0.240	0.070	-0.440
2020/01/31 14:16:23.8	0.500	0.210	0.090	-0.370
2020/01/31 14:16:23.9	0.490	0.180	0.110	-0.300
2020/01/31 14:16:24.0	0.480	0.150	0.130	-0.240
2020/01/31 14:16:24.1	0.470	0.120	0.140	-0.180
2020/01/31 14:16:24.2	0.470	0.090	0.140	-0.120
2020/01/31 14:16:24.3	0.470	0.060	0.140	-0.060
2020/01/31 14:16:24.4	0.470	0.030	0.120	-0.010
2020/01/31 14:16:24.5	0.470	0.010	0.110	0.030
2020/01/31 14:16:24.6	0.460	-0.010	0.080	0.080
2020/01/31 14:16:24.7	0.460	-0.030	0.050	0.120
2020/01/31 14:16:24.8	0.460	-0.050	0.020	0.150
2020/01/31 14:16:24.9	0.470	-0.060	-0.020	0.180
2020/01/31 14:16:25.0	0.480	-0.080	-0.070	0.200
2020/01/31 14:16:25.1	0.480	-0.090	-0.110	0.220
2020/01/31 14:16:25.2	0.490	-0.090	-0.170	0.230
2020/01/31 14:16:25.3	0.500	-0.100	-0.220	0.240
2020/01/31 14:16:25.4	0.510	-0.100	-0.280	0.240
2020/01/31 14:16:25.5	0.520	-0.110	-0.340	0.240
2020/01/31 14:16:25.6	0.530	-0.110	-0.390	0.230
2020/01/31 14:16:25.7	0.550	-0.100	-0.450	0.230
2020/01/31 14:16:25.8	0.560	-0.100	-0.510	0.210
2020/01/31 14:16:25.9	0.570	-0.100	-0.560	0.200
2020/01/31 14:16:26.0	0.580	-0.090	-0.610	0.180
2020/01/31 14:16:26.1	0.590	-0.080	-0.660	0.160
2020/01/31 14:16:26.2	0.610	-0.070	-0.700	0.130
2020/01/31 14:16:26.3	0.620	-0.060	-0.740	0.110
2020/01/31 14:16:26.4	0.630	-0.050	-0.780	0.080
2020/01/31 14:16:26.5	0.640	-0.040	-0.800	0.050
2020/01/31 14:16:26.6	0.650	-0.030	-0.820	0.020
2020/01/31 14:16:26.7	0.670	-0.020	-0.830	-0.010
2020/01/31 14:16:26.8	0.680	-0.000	-0.840	-0.040
2020/01/31 14:16:26.9	0.690	0.010	-0.840	-0.060
2020/01/31 14:16:27.0	0.710	0.020	-0.830	-0.090
2020/01/31 14:16:27.1	0.720	0.040	-0.810	-0.110
2020/01/31 14:16:27.2	0.730	0.050	-0.780	-0.130
2020/01/31 14:16:27.3	0.740	0.060	-0.750	-0.150
2020/01/31 14:16:27.4	0.750	0.070	-0.710	-0.160
2020/01/31 14:16:27.5	0.770	0.090	-0.660	-0.180
2020/01/31 14:16:27.6	0.760	0.100	-0.610	-0.190
2020/01/31 14:16:27.7	0.770	0.110	-0.550	-0.190
2020/01/31 14:16:27.8	0.780	0.120	-0.480	-0.190
2020/01/31 14:16:27.9	0.790	0.130	-0.410	-0.190
2020/01/31 14:16:28.0	0.790	0.140	-0.340	-0.190
2020/01/31 14:16:28.1	0.790	0.140	-0.260	-0.180
2020/01/31 14:16:28.2	0.800	0.150	-0.180	-0.160
2020/01/31 14:16:28.3	0.800	0.150	-0.100	-0.140
2020/01/31 14:16:28.4	0.790	0.150	-0.020	-0.120
2020/01/31 14:16:28.5	0.790	0.160	0.070	-0.100
2020/01/31 14:16:28.6	0.770	0.160	0.150	-0.070
2020/01/31 14:16:28.7	0.770	0.150	0.230	-0.040
2020/01/31 14:16:28.8	0.750	0.150	0.310	-0.010
2020/01/31 14:16:28.9	0.740	0.140	0.390	0.020
2020/01/31 14:16:29.0	0.730	0.140	0.460	0.060
2020/01/31 14:16:29.1	0.710	0.130	0.530	0.100
2020/01/31 14:16:29.2	0.690	0.120	0.600	0.140
2020/01/31 14:16:29.3	0.670	0.110	0.660	0.180
2020/01/31 14:16:29.4	0.660	0.090	0.710	0.220
2020/01/31 14:16:29.5	0.640	0.080	0.760	0.260
2020/01/31 14:16:29.6	0.610	0.070	0.800	0.300
2020/01/31 14:16:29.7	0.590	0.050	0.840	0.340
2020/01/31 14:16:29.8	0.570	0.030	0.860	0.380
2020/01/31 14:16:29.9	0.560	0.020	0.880	0.410
2020/01/31 14:16:30.0	0.540	-0.000	0.900	0.440
2020/01/31 14:16:30.1	0.530	-0.020	0.900	0.470
2020/01/31 14:16:30.2	0.520	-0.040	0.900	0.500
2020/01/31 14:16:30.3	0.510	-0.060	0.880	0.520
2020/01/31 14:16:30.4	0.500	-0.080	0.860	0.540
2020/01/31 14:16:30.5	0.500	-0.090	0.830	0.550
2020/01/31 14:16:30.6	0.500	-0.110	0.790	0.550
2020/01/31 14:16:30.7	0.500	-0.130	0.750	0.560
2020/01/31 14:16:30.8	0.490	-0.150	0.690	0.560
2020/01/31 14:16:30.9	0.490	-0.160	0.630	0.550
2020/01/31 14:16:31.0	0.490	-0.180	0.560	0.540
2020/01/31 14:16:31.1	0.490	-0.190	0.490	0.530
2020/01/31 14:16:31.2	0.490	-0.210	0.410	0.520
2020/01/31 14:16:31.3	0.490	-0.220	0.320	0.500
2020/01/31 14:16:31.4	0.490	-0.230	0.240	0.470
2020/01/31 14:16:31.5	0.490	-0.240	0.150	0.450
2020/01/31 14:16:31.6	0.490	-0.250	0.050	0.420
2020/01/31 14:16:31.7	0.490	-0.260	-0.040	0.390
2020/01/31 14:16:31.8	0.480	-0.270	-0.140	0.360
2020/01/31 14:16:31.9	0.480	-0.280	-0.230	0.330
2020/01/31 14:16:32.0	0.470	-0.280	-0.330	0.290
2020/01/31 14:16:32.1	0.470	-0.290	-0.430	0.250
2020/01/31 14:16:32.2	0.460	-0.290	-0.520	0.220
2020/01/31 14:16:32.3	0.460	-0.290	-0.610	0.180
2020/01/31 14:16:32.4	0.450	-0.290	-0.700	0.130
2020/01/31 14:16:32.5	0.440	-0.290	-0.780	0.090
2020/01/31 14:16:32.6	0.440	-0.290	-0.870	0.040
2020/01/31 14:16:32.7	0.440	-0.280	-0.940	-0.000
2020/01/31 14:16:32.8	0.430	-0.280	-1.020	-0.050
2020/01/31 14:16:32.9	0.420	-0.270	-1.080	-0.100
2020/01/31 14:16:33.0	0.420	-0.260	-1.150	-0.150
2020/01/31 14:16:33.1	0.410	-0.250	-1.200	-0.200
2020/01/31 14:16:33.2	0.410	-0.240	-1.260	-0.260
2020/01/31 14:16:33.3	0.410	-0.230	-1.300	-0.310
2020/01/31 14:16:33.4	0.410	-0.210	-1.340	-0.370
2020/01/31 14:16:33.5	0.410	-0.200	-1.380	-0.420
2020/01/31 14:16:33.6	0.420	-0.180	-1.410	-0.480
2020/01/31 14:16:33.7	0.420	-0.160	-1.430	-0.540
2020/01/31 14:16:33.8	0.430	-0.140	-1.450	-0.600
2020/01/31 14:16:33.9	0.440	-0.110	-1.460	-0.660
2020/01/31 14:16:34.0	0.460	-0.090	-1.470	-0.720
2020/01/31 14:16:34.1	0.480	-0.060	-1.470	-0.780
2020/01/31 14:16:34.2	0.500	-0.040	-1.470	-0.830
2020/01/31 14:16:34.3	0.520	-0.010	-1.470	-0.890
2020/01/31 14:16:34.4	0.550	0.020	-1.460	-0.950
2020/01/31 14:16:34.5	0.580	0.050	-1.440	-1.000
2020/01/31 14:16:34.6	0.620	0.090	-1.420	-1.060
2020/01/31 14:16:34.7	0.650	0.120	-1.400	-1.110
2020/01/31 14:16:34.8	0.690	0.150	-1.370	-1.170
2020/01/31 14:16:34.9	0.730	0.190	-1.340	-1.220
2020/01/31 14:16:35.0	0.770	0.220	-1.300	-1.260
2020/01/31 14:16:35.1	0.820	0.250	-1.260	-1.310
2020/01/31 14:16:35.2	0.860	0.280	-1.210	-1.350
2020/01/31 14:16:35.3	0.910	0.310	-1.170	-1.390
2020/01/31 14:16:35.4	0.950	0.340	-1.110	-1.420
2020/01/31 14:16:35.5	1.000	0.370	-1.050	-1.450
2020/01/31 14:16:35.6	1.050	0.390	-0.990	-1.470
2020/01/31 14:16:35.7	1.100	0.410	-0.930	-1.490
2020/01/31 14:16:35.8	1.140	0.430	-0.860	-1.510
2020/01/31 14:16:35.9	1.180	0.450	-0.790	-1.510
2020/01/31 14:16:36.0	1.210	0.460	-0.710	-1.510
2020/01/31 14:16:36.1	1.240	0.470	-0.630	-1.510
2020/01/31 14:16:36.2	1.270	0.470	-0.550	-1.490
2020/01/31 14:16:36.3	1.290	0.470	-0.470	-1.470
2020/01/31 14:16:36.4	1.310	0.460	-0.380	-1.440
2020/01/31 14:16:36.5	1.330	0.460	-0.290	-1.400
2020/01/31 14:16:36.6	1.340	0.440	-0.200	-1.360
2020/01/31 14:16:36.7	1.340	0.430	-0.110	-1.310
2020/01/31 14:16:36.8	1.340	0.410	-0.020	-1.250
2020/01/31 14:16:36.9	1.340	0.380	0.070	-1.190
2020/01/31 14:16:37.0	1.330	0.350	0.160	-1.130
2020/01/31 14:16:37.1	1.320	0.320	0.250	-1.060
2020/01/31 14:16:37.2	1.300	0.290	0.340	-1.000
2020/01/31 14:16:37.3	1.290	0.250	0.420	-0.920
2020/01/31 14:16:37.4	1.270	0.210	0.500	-0.850
2020/01/31 14:16:37.5	1.250	0.160	0.580	-0.780
2020/01/31 14:16:37.6	1.210	0.120	0.650	-0.710
2020/01/31 14:16:37.7	1.190	0.080	0.720	-0.630
2020/01/31 14:16:37.8	1.160	0.030	0.790	-0.560
2020/01/31 14:16:37.9	1.140	-0.020	0.850	-0.490
2020/01/31 14:16:38.0	1.110	-0.060	0.910	-0.430
2020/01/31 14:16:38.1	1.080	-0.110	0.950	-0.360
2020/01/31 14:16:38.2	1.050	-0.150	1.000	-0.300
2020/01/31 14:16:38.3	1.020	-0.190	1.030	-0.240
2020/01/31 14:16:38.4	1.000	-0.230	1.060	-0.180
2020/01/31 14:16:38.5	0.970	-0.270	1.080	-0.130
2020/01/31 14:16:38.6	0.930	-0.300	1.100	-0.080
2020/01/31 14:16:38.7	0.900	-0.330	1.100	-0.030
2020/01/31 14:16:38.8	0.880	-0.360	1.100	0.010
2020/01/31 14:16:38.9	0.850	-0.380	1.100	0.060
2020/01/31 14:16:39.0	0.830	-0.400	1.080	0.100
2020/01/31 14:16:39.1	0.800	-0.420	1.060	0.140
2020/01/31 14:16:39.2	0.780	-0.430	1.030	0.180
2020/01/31 14:16:39.3	0.760	-0.430	1.000	0.220
2020/01/31 14:16:39.4	0.740	-0.430	0.960	0.260
2020/01/31 14:16:39.5	0.720	-0.430	0.910	0.290
2020/01/31 14:16:39.6	0.700	-0.420	0.860	0.330
2020/01/31 14:16:39.7	0.680	-0.410	0.810	0.360
2020/01/31 14:16:39.8	0.660	-0.390	0.750	0.390
2020/01/31 14:16:39.9	0.640	-0.380	0.690	0.430
2020/01/31 14:16:40.0	0.620	-0.360	0.620	0.460
2020/01/31 14:16:40.1	0.600	-0.330	0.550	0.490
2020/01/31 14:16:40.2	0.580	-0.310	0.480	0.530
2020/01/31 14:16:40.3	0.560	-0.280	0.400	0.560
2020/01/31 14:16:40.4	0.540	-0.250	0.330	0.590
2020/01/31 14:16:40.5	0.510	-0.220	0.250	0.620
2020/01/31 14:16:40.6	0.500	-0.190	0.170	0.650
2020/01/31 14:16:40.7	0.480	-0.160	0.090	0.680
2020/01/31 14:16:40.8	0.450	-0.130	0.010	0.700
2020/01/31 14:16:40.9	0.430	-0.110	-0.070	0.730
2020/01/31 14:16:41.0	0.410	-0.080	-0.150	0.740
2020/01/31 14:16:41.1	0.400	-0.050	-0.230	0.760
2020/01/31 14:16:41.2	0.380	-0.030	-0.310	0.770
2020/01/31 14:16:41.3	0.370	-0.010	-0.390	0.770
2020/01/31 14:16:41.4	0.360	0.020	-0.480	0.770
2020/01/31 14:16:41.5	0.350	0.040	-0.560	0.770
2020/01/31 14:16:41.6	0.350	0.050	-0.640	0.750
2020/01/31 14:16:41.7	0.350	0.070	-0.720	0.730
2020/01/31 14:16:41.8	0.350	0.080	-0.800	0.710
2020/01/31 14:16:41.9	0.360	0.090	-0.880	0.680
2020/01/31 14:16:42.0	0.370	0.100	-0.950	0.640
2020/01/31 14:16:42.1	0.380	0.110	-1.030	0.600
2020/01/31 14:16:42.2	0.400	0.110	-1.100	0.560
2020/01/31 14:16:42.3	0.420	0.120	-1.170	0.500
2020/01/31 14:16:42.4	0.440	0.120	-1.230	0.450
2020/01/31 14:16:42.5	0.470	0.120	-1.290	0.390
2020/01/31 14:16:42.6	0.490	0.120	-1.350	0.320
2020/01/31 14:16:42.7	0.520	0.120	-1.400	0.260
2020/01/31 14:16:42.8	0.550	0.120	-1.440	0.190
2020/01/31 14:16:42.9	0.580	0.110	-1.480	0.130
2020/01/31 14:16:43.0	0.610	0.110	-1.500	0.060
2020/01/31 14:16:43.1	0.640	0.110	-1.520	0.000
2020/01/31 14:16:43.2	0.670	0.100	-1.530	-0.060
2020/01/31 14:16:43.3	0.690	0.100	-1.530	-0.120
2020/01/31 14:16:43.4	0.720	0.090	-1.530	-0.180
2020/01/31 14:16:43.5	0.740	0.090	-1.510	-0.240
2020/01/31 14:16:43.6	0.760	0.090	-1.490	-0.290
2020/01/31 14:16:43.7	0.780	0.080	-1.450	-0.340
2020/01/31 14:16:43.8	0.800	0.080	-1.410	-0.390
2020/01/31 14:16:43.9	0.820	0.070	-1.360	-0.440
2020/01/31 14:16:44.0	0.840	0.070	-1.310	-0.480
2020/01/31 14:16:44.1	0.850	0.070	-1.250	-0.530
2020/01/31 14:16:44.2	0.860	0.070	-1.180	-0.570
2020/01/31 14:16:44.3	0.880	0.070	-1.110	-0.610
2020/01/31 14:16:44.4	0.890	0.070	-1.030	-0.650
2020/01/31 14:16:44.5	0.900	0.060	-0.960	-0.690
2020/01/31 14:16:44.6	0.910	0.060	-0.870	-0.730
2020/01/31 14:16:44.7	0.920	0.060	-0.790	-0.760
2020/01/31 14:16:44.8	0.930	0.060	-0.710	-0.800
2020/01/31 14:16:44.9	0.950	0.060	-0.630	-0.840
2020/01/31 14:16:45.0	0.960	0.060	-0.550	-0.870
2020/01/31 14:16:45.1	0.970	0.070	-0.470	-0.900
2020/01/31 14:16:45.2	0.990	0.070	-0.390	-0.930
2020/01/31 14:16:45.3	1.000	0.070	-0.320	-0.970
2020/01/31 14:16:45.4	1.020	0.070	-0.250	-0.990
2020/01/31 14:16:45.5	1.040	0.070	-0.180	-1.020
2020/01/31 14:16:45.6	1.050	0.070	-0.120	-1.040
2020/01/31 14:16:45.7	1.070	0.080	-0.070	-1.070
2020/01/31 14:16:45.8	1.090	0.080	-0.020	-1.090
2020/01/31 14:16:45.9	1.110	0.080	0.030	-1.100
2020/01/31 14:16:46.0	1.130	0.080	0.070	-1.120
2020/01/31 14:16:46.1	1.150	0.080	0.100	-1.130
2020/01/31 14:16:46.2	1.170	0.090	0.140	-1.140
2020/01/31 14:16:46.3	1.190	0.090	0.160	-1.140
2020/01/31 14:16:46.4	1.210	0.090	0.180	-1.150
2020/01/31 14:16:46.5	1.230	0.090	0.200	-1.150
2020/01/31 14:16:46.6	1.260	0.090	0.210	-1.150
2020/01/31 14:16:46.7	1.280	0.090	0.220	-1.150
2020/01/31 14:16:46.8	1.300	0.090	0.220	-1.150
2020/01/31 14:16:46.9	1.330	0.080	0.230	-1.140
2020/01/31 14:16:47.0	1.350	0.080	0.230	-1.130
2020/01/31 14:16:47.1	1.360	0.080	0.230	-1.120
2020/01/31 14:16:47.2	1.380	0.070	0.220	-1.100
2020/01/31 14:16:47.3	1.400	0.070	0.220	-1.090
2020/01/31 14:16:47.4	1.410	0.060	0.220	-1.070
2020/01/31 14:16:47.5	1.420	0.060	0.210	-1.050
2020/01/31 14:16:47.6	1.410	0.050	0.210	-1.020
2020/01/31 14:16:47.7	1.420	0.040	0.200	-0.990
2020/01/31 14:16:47.8	1.420	0.030	0.200	-0.960
2020/01/31 14:16:47.9	1.430	0.020	0.200	-0.930
2020/01/31 14:16:48.0	1.430	0.010	0.200	-0.900
2020/01/31 14:16:48.1	1.420	0.000	0.200	-0.860
2020/01/31 14:16:48.2	1.420	-0.010	0.200	-0.820
2020/01/31 14:16:48.3	1.410	-0.020	0.210	-0.780
2020/01/31 14:16:48.4	1.400	-0.030	0.220	-0.740
2020/01/31 14:16:48.5	1.390	-0.040	0.220	-0.690
2020/01/31 14:16:48.6	1.380	-0.050	0.230	-0.650
2020/01/31 14:16:48.7	1.360	-0.060	0.240	-0.600
2020/01/31 14:16:48.8	1.340	-0.070	0.250	-0.550
2020/01/31 14:16:48.9	1.330	-0.070	0.260	-0.500
2020/01/31 14:16:49.0	1.310	-0.080	0.270	-0.450
2020/01/31 14:16:49.1	1.290	-0.090	0.280	-0.390
2020/01/31 14:16:49.2	1.270	-0.100	0.290	-0.340
2020/01/31 14:16:49.3	1.240	-0.100	0.300	-0.290
2020/01/31 14:16:49.4	1.220	-0.110	0.300	-0.230
2020/01/31 14:16:49.5	1.200	-0.110	0.310	-0.180
2020/01/31 14:16:49.6	1.170	-0.120	0.310	-0.120
2020/01/31 14:16:49.7	1.150	-0.120	0.310	-0.070
2020/01/31 14:16:49.8	1.130	-0.120	0.310	-0.020
2020/01/31 14:16:49.9	1.100	-0.120	0.300	0.030
2020/01/31 14:16:50.0	1.080	-0.120	0.290	0.080
2020/01/31 14:16:50.1	1.050	-0.120	0.280	0.120
2020/01/31 14:16:50.2	1.030	-0.120	0.260	0.160
2020/01/31 14:16:50.3	1.010	-0.120	0.240	0.200
2020/01/31 14:16:50.4	0.990	-0.120	0.220	0.240
2020/01/31 14:16:50.5	0.960	-0.120	0.190	0.270
2020/01/31 14:16:50.6	0.950	-0.110	0.160	0.290
2020/01/31 14:16:50.7	0.930	-0.110	0.130	0.320
2020/01/31 14:16:50.8	0.910	-0.100	0.090	0.340
2020/01/31 14:16:50.9	0.890	-0.100	0.050	0.360
2020/01/31 14:16:51.0	0.870	-0.100	0.020	0.380
2020/01/31 14:16:51.1	0.860	-0.100	-0.020	0.390
2020/01/31 14:16:51.2	0.840	-0.090	-0.060	0.400
2020/01/31 14:16:51.3	0.820	-0.090	-0.110	0.400
2020/01/31 14:16:51.4	0.800	-0.090	-0.150	0.400
2020/01/31 14:16:51.5	0.790	-0.090	-0.190	0.400
2020/01/31 14:16:51.6	0.770	-0.100	-0.220	0.400
2020/01/31 14:16:51.7	0.750	-0.100	-0.260	0.390
2020/01/31 14:16:51.8	0.730	-0.100	-0.300	0.380
2020/01/31 14:16:51.9	0.710	-0.110	-0.330	0.370
2020/01/31 14:16:52.0	0.690	-0.120	-0.360	0.360
2020/01/31 14:16:52.1	0.660	-0.120	-0.390	0.340
2020/01/31 14:16:52.2	0.640	-0.130	-0.420	0.320
2020/01/31 14:16:52.3	0.620	-0.140	-0.440	0.300
2020/01/31 14:16:52.4	0.600	-0.150	-0.470	0.270
2020/01/31 14:16:52.5	0.570	-0.160	-0.490	0.240
2020/01/31 14:16:52.6	0.540	-0.180	-0.510	0.210
2020/01/31 14:16:52.7	0.530	-0.190	-0.530	0.180
2020/01/31 14:16:52.8	0.510	-0.200	-0.550	0.140
2020/01/31 14:16:52.9	0.490	-0.210	-0.560	0.100
2020/01/31 14:16:53.0	0.480	-0.220	-0.580	0.070
2020/01/31 14:16:53.1	0.470	-0.230	-0.590	0.020
2020/01/31 14:16:53.2	0.470	-0.240	-0.600	-0.020
2020/01/31 14:16:53.3	0.460	-0.250	-0.620	-0.060
2020/01/31 14:16:53.4	0.460	-0.260	-0.630	-0.110
2020/01/31 14:16:53.5	0.470	-0.260	-0.640	-0.160
2020/01/31 14:16:53.6	0.470	-0.260	-0.650	-0.210
2020/01/31 14:16:53.7	0.480	-0.260	-0.660	-0.260
2020/01/31 14:16:53.8	0.500	-0.260	-0.680	-0.320
2020/01/31 14:16:53.9	0.510	-0.250	-0.690	-0.370
2020/01/31 14:16:54.0	0.530	-0.240	-0.700	-0.420
2020/01/31 14:16:54.1	0.550	-0.230	-0.720	-0.470
2020/01/31 14:16:54.2	0.580	-0.220	-0.730	-0.530
2020/01/31 14:16:54.3	0.600	-0.200	-0.740	-0.580
2020/01/31 14:16:54.4	0.630	-0.190	-0.760	-0.630
2020/01/31 14:16:54.5	0.660	-0.170	-0.770	-0.680
2020/01/31 14:16:54.6	0.700	-0.150	-0.780	-0.740
2020/01/31 14:16:54.7	0.730	-0.130	-0.790	-0.790
2020/01/31 14:16:54.8	0.760	-0.100	-0.800	-0.840
2020/01/31 14:16:54.9	0.800	-0.080	-0.810	-0.890
2020/01/31 14:16:55.0	0.840	-0.050	-0.810	-0.930
2020/01/31 14:16:55.1	0.880	-0.020	-0.820	-0.980
2020/01/31 14:16:55.2	0.920	0.000	-0.820	-1.030
2020/01/31 14:16:55.3	0.960	0.030	-0.820	-1.070
2020/01/31 14:16:55.4	1.000	0.060	-0.820	-1.110
2020/01/31 14:16:55.5	1.040	0.080	-0.810	-1.150
2020/01/31 14:16:55.6	1.100	0.110	-0.820	-1.190
2020/01/31 14:16:55.7	1.140	0.140	-0.810	-1.220
2020/01/31 14:16:55.8	1.190	0.170	-0.800	-1.250
2020/01/31 14:16:55.9	1.230	0.190	-0.790	-1.280
2020/01/31 14:16:56.0	1.280	0.220	-0.780	-1.300
2020/01/31 14:16:56.1	1.330	0.240	-0.760	-1.320
2020/01/31 14:16:56.2	1.380	0.270	-0.750	-1.330
2020/01/31 14:16:56.3	1.420	0.290	-0.730	-1.340
2020/01/31 14:16:56.4	1.470	0.310	-0.710	-1.350
2020/01/31 14:16:56.5	1.520	0.330	-0.690	-1.350
2020/01/31 14:16:56.6	1.580	0.350	-0.670	-1.340
2020/01/31 14:16:56.7	1.620	0.360	-0.650	-1.340
2020/01/31 14:16:56.8	1.670	0.380	-0.620	-1.330
2020/01/31 14:16:56.9	1.720	0.390	-0.600	-1.310
2020/01/31 14:16:57.0	1.760	0.400	-0.570	-1.300
2020/01/31 14:16:57.1	1.800	0.410	-0.540	-1.270
2020/01/31 14:16:57.2	1.840	0.410	-0.510	-1.250
2020/01/31 14:16:57.3	1.880	0.410	-0.470	-1.220
2020/01/31 14:16:57.4	1.910	0.410	-0.440	-1.190
2020/01/31 14:16:57.5	1.950	0.400	-0.400	-1.160
2020/01/31 14:16:57.6	1.960	0.390	-0.360	-1.120
2020/01/31 14:16:57.7	1.980	0.380	-0.310	-1.080
2020/01/31 14:16:57.8	2.000	0.360	-0.260	-1.040
2020/01/31 14:16:57.9	2.010	0.340	-0.210	-0.990
2020/01/31 14:16:58.0	2.010	0.320	-0.160	-0.940
2020/01/31 14:16:58.1	2.010	0.300	-0.100	-0.890
2020/01/31 14:16:58.2	2.010	0.270	-0.040	-0.830
2020/01/31 14:16:58.3	1.990	0.240	0.030	-0.770
2020/01/31 14:16:58.4	1.980	0.200	0.100	-0.710
2020/01/31 14:16:58.5	1.950	0.170	0.160	-0.650
2020/01/31 14:16:58.6	1.920	0.130	0.240	-0.580
2020/01/31 14:16:58.7	1.880	0.090	0.310	-0.510
2020/01/31 14:16:58.8	1.840	0.050	0.390	-0.440
2020/01/31 14:16:58.9	1.800	0.000	0.460	-0.370
2020/01/31 14:16:59.0	1.750	-0.040	0.540	-0.290
2020/01/31 14:16:59.1	1.690	-0.080	0.610	-0.210
2020/01/31 14:16:59.2	1.630	-0.130	0.680	-0.140
2020/01/31 14:16:59.3	1.570	-0.170	0.750	-0.060
2020/01/31 14:16:59.4	1.500	-0.210	0.820	0.020
2020/01/31 14:16:59.5	1.430	-0.250	0.880	0.090
2020/01/31 14:16:59.6	1.360	-0.290	0.930	0.170
2020/01/31 14:16:59.7	1.290	-0.330	0.980	0.240
2020/01/31 14:16:59.8	1.220	-0.370	1.010	0.300
2020/01/31 14:16:59.9	1.150	-0.400	1.050	0.360
2020/01/31 14:17:00.0	1.070	-0.430	1.070	0.420
2020/01/31 14:17:00.1	1.000	-0.460	1.080	0.470
2020/01/31 14:17:00.2	0.930	-0.480	1.080	0.520
2020/01/31 14:17:00.3	0.860	-0.500	1.080	0.560
2020/01/31 14:17:00.4	0.790	-0.520	1.060	0.590
2020/01/31 14:17:00.5	0.730	-0.530	1.030	0.620
2020/01/31 14:17:00.6	0.660	-0.530	0.990	0.630
2020/01/31 14:17:00.7	0.610	-0.530	0.940	0.640
2020/01/31 14:17:00.8	0.560	-0.530	0.870	0.640
2020/01/31 14:17:00.9	0.510	-0.520	0.800	0.630
2020/01/31 14:17:01.0	0.460	-0.500	0.710	0.620
2020/01/31 14:17:01.1	0.430	-0.480	0.620	0.590
2020/01/31 14:17:01.2	0.390	-0.460	0.520	0.560
2020/01/31 14:17:01.3	0.360	-0.430	0.410	0.530
2020/01/31 14:17:01.4	0.340	-0.390	0.290	0.480
2020/01/31 14:17:01.5	0.320	-0.360	0.170	0.430
2020/01/31 14:17:01.6	0.290	-0.310	0.050	0.370
2020/01/31 14:17:01.7	0.280	-0.270	-0.080	0.310
2020/01/31 14:17:01.8	0.280	-0.220	-0.210	0.250
2020/01/31 14:17:01.9	0.280	-0.170	-0.350	0.180
2020/01/31 14:17:02.0	0.280	-0.120	-0.480	0.110
2020/01/31 14:17:02.1	0.290	-0.070	-0.610	0.040
2020/01/31 14:17:02.2	0.300	-0.010	-0.730	-0.030
2020/01/31 14:17:02.3	0.300	0.040	-0.850	-0.100
2020/01/31 14:17:02.4	0.320	0.090	-0.970	-0.170
2020/01/31 14:17:02.5	0.330	0.140	-1.080	-0.240
2020/01/31 14:17:02.6	0.330	0.190	-1.180	-0.310
2020/01/31 14:17:02.7	0.350	0.240	-1.270	-0.380
2020/01/31 14:17:02.8	0.360	0.290	-1.350	-0.440
2020/01/31 14:17:02.9	0.380	0.330	-1.420	-0.510
2020/01/31 14:17:03.0	0.400	0.370	-1.480	-0.570
2020/01/31 14:17:03.1	0.420	0.410	-1.530	-0.630
2020/01/31 14:17:03.2	0.440	0.440	-1.570	-0.690
2020/01/31 14:17:03.3	0.460	0.460	-1.590	-0.750
2020/01/31 14:17:03.4	0.480	0.490	-1.600	-0.800
2020/01/31 14:17:03.5	0.510	0.500	-1.610	-0.850
2020/01/31 14:17:03.6	0.530	0.520	-1.600	-0.900
2020/01/31 14:17:03.7	0.550	0.530	-1.570	-0.940
2020/01/31 14:17:03.8	0.580	0.530	-1.540	-0.980
2020/01/31 14:17:03.9	0.600	0.530	-1.500	-1.020
2020/01/31 14:17:04.0	0.630	0.520	-1.450	-1.050
2020/01/31 14:17:04.1	0.650	0.510	-1.390	-1.070
2020/01/31 14:17:04.2	0.680	0.500	-1.320	-1.100
2020/01/31 14:17:04.3	0.710	0.480	-1.240	-1.120
2020/01/31 14:17:04.4	0.740	0.450	-1.170	-1.130
2020/01/31 14:17:04.5	0.770	0.430	-1.080	-1.150
2020/01/31 14:17:04.6	0.820	0.400	-1.000	-1.160
2020/01/31 14:17:04.7	0.850	0.370	-0.910	-1.170
2020/01/31 14:17:04.8	0.880	0.330	-0.820	-1.170
2020/01/31 14:17:04.9	0.920	0.300	-0.730	-1.180
2020/01/31 14:17:05.0	0.950	0.260	-0.640	-1.180
2020/01/31 14:17:05.1	0.990	0.220	-0.550	-1.180
2020/01/31 14:17:05.2	1.030	0.180	-0.470	-1.180
2020/01/31 14:17:05.3	1.060	0.130	-0.390	-1.180
2020/01/31 14:17:05.4	1.100	0.090	-0.310	-1.180
2020/01/31 14:17:05.5	1.130	0.050	-0.240	-1.170
2020/01/31 14:17:05.6	1.170	0.010	-0.170	-1.160
2020/01/31 14:17:05.7	1.200	-0.030	-0.110	-1.160
2020/01/31 14:17:05.8	1.240	-0.070	-0.060	-1.150
2020/01/31 14:17:05.9	1.280	-0.110	-0.010	-1.150
2020/01/31 14:17:06.0	1.310	-0.150	0.040	-1.140
2020/01/31 14:17:06.1	1.340	-0.180	0.080	-1.130
2020/01/31 14:17:06.2	1.380	-0.210	0.110	-1.120
2020/01/31 14:17:06.3	1.410	-0.250	0.130	-1.110
2020/01/31 14:17:06.4	1.430	-0.270	0.150	-1.100
2020/01/31 14:17:06.5	1.460	-0.300	0.170	-1.080
2020/01/31 14:17:06.6	1.480	-0.320	0.180	-1.060
2020/01/31 14:17:06.7	1.500	-0.340	0.190	-1.040
2020/01/31 14:17:06.8	1.520	-0.360	0.190	-1.010
2020/01/31 14:17:06.9	1.530	-0.380	0.200	-0.990
2020/01/31 14:17:07.0	1.550	-0.390	0.190	-0.960
2020/01/31 14:17:07.1	1.560	-0.400	0.190	-0.930
2020/01/31 14:17:07.2	1.570	-0.410	0.190	-0.890
2020/01/31 14:17:07.3	1.570	-0.420	0.180	-0.860
2020/01/31 14:17:07.4	1.570	-0.420	0.170	-0.820
2020/01/31 14:17:07.5	1.580	-0.430	0.170	-0.790
2020/01/31 14:17:07.6	1.570	-0.430	0.160	-0.750
2020/01/31 14:17:07.7	1.570	-0.430	0.150	-0.710
2020/01/31 14:17:07.8	1.570	-0.420	0.140	-0.670
2020/01/31 14:17:07.9	1.560	-0.420	0.130	-0.630
2020/01/31 14:17:08.0	1.550	-0.410	0.120	-0.590
2020/01/31 14:17:08.1	1.540	-0.410	0.120	-0.550
2020/01/31 14:17:08.2	1.540	-0.400	0.110	-0.520
2020/01/31 14:17:08.3	1.530	-0.390	0.100	-0.480
2020/01/31 14:17:08.4	1.520	-0.380	0.090	-0.440
2020/01/31 14:17:08.5	1.510	-0.360	0.090	-0.400
2020/01/31 14:17:08.6	1.510	-0.350	0.080	-0.360
2020/01/31 14:17:08.7	1.500	-0.330	0.080	-0.330
2020/01/31 14:17:08.8	1.490	-0.320	0.070	-0.290
2020/01/31 14:17:08.9	1.470	-0.300	0.070	-0.260
2020/01/31 14:17:09.0	1.460	-0.280	0.070	-0.230
2020/01/31 14:17:09.1	1.450	-0.270	0.070	-0.190
2020/01/31 14:17:09.2	1.430	-0.250	0.070	-0.160
2020/01/31 14:17:09.3	1.410	-0.230	0.070	-0.120
2020/01/31 14:17:09.4	1.400	-0.210	0.070	-0.090
2020/01/31 14:17:09.5	1.370	-0.190	0.080	-0.050
2020/01/31 14:17:09.6	1.350	-0.170	0.090	-0.010
2020/01/31 14:17:09.7	1.320	-0.150	0.090	0.030
2020/01/31 14:17:09.8	1.290	-0.130	0.110	0.070
2020/01/31 14:17:09.9	1.260	-0.110	0.120	0.120
2020/01/31 14:17:10.0	1.230	-0.100	0.130	0.170
2020/01/31 14:17:10.1	1.190	-0.080	0.150	0.220
2020/01/31 14:17:10.2	1.150	-0.060	0.170	0.270
2020/01/31 14:17:10.3	1.110	-0.050	0.190	0.320
2020/01/31 14:17:10.4	1.070	-0.040	0.210	0.370
2020/01/31 14:17:10.5	1.020	-0.030	0.230	0.420
2020/01/31 14:17:10.6	0.980	-0.020	0.250	0.480
2020/01/31 14:17:10.7	0.930	-0.010	0.270	0.530
2020/01/31 14:17:10.8	0.870	0.000	0.290	0.580
2020/01/31 14:17:10.9	0.820	0.010	0.310	0.630
2020/01/31 14:17:11.0	0.760	0.010	0.330	0.670
2020/01/31 14:17:11.1	0.700	0.010	0.340	0.720
2020/01/31 14:17:11.2	0.640	0.020	0.360	0.760
2020/01/31 14:17:11.3	0.580	0.020	0.370	0.800
2020/01/31 14:17:11.4	0.520	0.010	0.380	0.830
2020/01/31 14:17:11.5	0.460	0.010	0.380	0.870
2020/01/31 14:17:11.6	0.400	0.010	0.380	0.890
2020/01/31 14:17:11.7	0.340	0.010	0.380	0.920
2020/01/31 14:17:11.8	0.280	0.010	0.370	0.940
2020/01/31 14:17:11.9	0.230	0.000	0.360	0.960
2020/01/31 14:17:12.0	0.180	-0.000	0.350	0.970
2020/01/31 14:17:12.1	0.130	-0.000	0.330	0.980
2020/01/31 14:17:12.2	0.090	-0.000	0.300	0.980
2020/01/31 14:17:12.3	0.050	-0.000	0.270	0.980
2020/01/31 14:17:12.4	0.020	-0.000	0.230	0.980
2020/01/31 14:17:12.5	359.990	0.000	0.190	0.960
2020/01/31 14:17:12.6	359.970	0.010	0.140	0.940
2020/01/31 14:17:12.7	359.950	0.020	0.080	0.910
2020/01/31 14:17:12.8	359.940	0.030	0.020	0.880
2020/01/31 14:17:12.9	359.940	0.040	-0.050	0.840
2020/01/31 14:17:13.0	359.950	0.060	-0.130	0.790
2020/01/31 14:17:13.1	359.960	0.080	-0.220	0.730
2020/01/31 14:17:13.2	359.980	0.100	-0.300	0.670
2020/01/31 14:17:13.3	0.010	0.120	-0.400	0.600
2020/01/31 14:17:13.4	0.040	0.150	-0.490	0.520
2020/01/31 14:17:13.5	0.080	0.180	-0.590	0.440
2020/01/31 14:17:13.6	0.120	0.210	-0.690	0.340
2020/01/31 14:17:13.7	0.160	0.250	-0.800	0.250
2020/01/31 14:17:13.8	0.210	0.290	-0.900	0.160
2020/01/31 14:17:13.9	0.260	0.320	-1.000	0.060
2020/01/31 14:17:14.0	0.310	0.360	-1.090	-0.040
2020/01/31 14:17:14.1	0.360	0.400	-1.180	-0.140
2020/01/31 14:17:14.2	0.410	0.440	-1.270	-0.240
2020/01/31 14:17:14.3	0.460	0.480	-1.350	-0.330
2020/01/31 14:17:14.4	0.510	0.520	-1.430	-0.430
2020/01/31 14:17:14.5	0.560	0.560	-1.500	-0.530
2020/01/31 14:17:14.6	0.610	0.590	-1.560	-0.620
2020/01/31 14:17:14.7	0.660	0.630	-1.610	-0.720
2020/01/31 14:17:14.8	0.700	0.660	-1.650	-0.810
2020/01/31 14:17:14.9	0.740	0.680	-1.680	-0.890
2020/01/31 14:17:15.0	0.770	0.710	-1.710	-0.980
2020/01/31 14:17:15.1	0.810	0.730	-1.720	-1.060
2020/01/31 14:17:15.2	0.840	0.740	-1.730	-1.140
2020/01/31 14:17:15.3	0.870	0.760	-1.730	-1.220
2020/01/31 14:17:15.4	0.890	0.760	-1.710	-1.300
2020/01/31 14:17:15.5	0.920	0.760	-1.690	-1.370
2020/01/31 14:17:15.6	0.930	0.760	-1.660	-1.440
2020/01/31 14:17:15.7	0.950	0.750	-1.620	-1.510
2020/01/31 14:17:15.8	0.970	0.740	-1.570	-1.570
2020/01/31 14:17:15.9	0.990	0.720	-1.520	-1.630
2020/01/31 14:17:16.0	1.000	0.690	-1.450	-1.680
2020/01/31 14:17:16.1	1.010	0.660	-1.380	-1.730
2020/01/31 14:17:16.2	1.030	0.630	-1.300	-1.780
2020/01/31 14:17:16.3	1.040	0.590	-1.220	-1.820
2020/01/31 14:17:16.4	1.040	0.540	-1.130	-1.860
2020/01/31 14:17:16.5	1.050	0.500	-1.030	-1.890
2020/01/31 14:17:16.6	1.060	0.440	-0.930	-1.910
2020/01/31 14:17:16.7	1.070	0.390	-0.830	-1.930
2020/01/31 14:17:16.8	1.070	0.330	-0.720	-1.950
2020/01/31 14:17:16.9	1.070	0.270	-0.610	-1.950
2020/01/31 14:17:17.0	1.080	0.200	-0.500	-1.960
2020/01/31 14:17:17.1	1.080	0.140	-0.390	-1.950
2020/01/31 14:17:17.2	1.080	0.070	-0.280	-1.940
2020/01/31 14:17:17.3	1.080	0.010	-0.170	-1.930
2020/01/31 14:17:17.4	1.080	-0.060	-0.050	-1.910
2020/01/31 14:17:17.5	1.080	-0.130	0.060	-1.890
2020/01/31 14:17:17.6	1.080	-0.190	0.160	-1.860
2020/01/31 14:17:17.7	1.080	-0.260	0.260	-1.830
2020/01/31 14:17:17.8	1.080	-0.320	0.360	-1.800
2020/01/31 14:17:17.9	1.070	-0.380	0.450	-1.760
2020/01/31 14:17:18.0	1.070	-0.440	0.540	-1.720
2020/01/31 14:17:18.1	1.070	-0.500	0.620	-1.680
2020/01/31 14:17:18.2	1.070	-0.550	0.700	-1.630
2020/01/31 14:17:18.3	1.060	-0.600	0.770	-1.580
2020/01/31 14:17:18.4	1.060	-0.640	0.830	-1.540
2020/01/31 14:17:18.5	1.050	-0.680	0.880	-1.480
2020/01/31 14:17:18.6	1.040	-0.710	0.930	-1.430
2020/01/31 14:17:18.7	1.030	-0.740	0.970	-1.380
2020/01/31 14:17:18.8	1.020	-0.770	1.000	-1.320
2020/01/31 14:17:18.9	1.010	-0.790	1.020	-1.260
2020/01/31 14:17:19.0	1.000	-0.800	1.040	-1.200
2020/01/31 14:17:19.1	0.990	-0.810	1.050	-1.140
2020/01/31 14:17:19.2	0.970	-0.810	1.050	-1.080
2020/01/31 14:17:19.3	0.960	-0.810	1.050	-1.010
2020/01/31 14:17:19.4	0.950	-0.800	1.040	-0.950
2020/01/31 14:17:19.5	0.930	-0.790	1.020	-0.880
2020/01/31 14:17:19.6	0.920	-0.770	1.000	-0.820
2020/01/31 14:17:19.7	0.910	-0.750	0.970	-0.750
2020/01/31 14:17:19.8	0.900	-0.730	0.940	-0.680
2020/01/31 14:17:19.9	0.880	-0.700	0.900	-0.620
2020/01/31 14:17:20.0	0.870	-0.670	0.850	-0.550
2020/01/31 14:17:20.1	0.860	-0.630	0.810	-0.480
2020/01/31 14:17:20.2	0.840	-0.590	0.750	-0.420
2020/01/31 14:17:20.3	0.830	-0.550	0.700	-0.350
2020/01/31 14:17:20.4	0.820	-0.510	0.640	-0.280
2020/01/31 14:17:20.5	0.810	-0.460	0.580	-0.220
2020/01/31 14:17:20.6	0.790	-0.420	0.510	-0.140
2020/01/31 14:17:20.7	0.780	-0.370	0.450	-0.070
2020/01/31 14:17:20.8	0.770	-0.320	0.380	-0.010
2020/01/31 14:17:20.9	0.760	-0.270	0.310	0.060
2020/01/31 14:17:21.0	0.740	-0.230	0.240	0.130
2020/01/31 14:17:21.1	0.730	-0.180	0.180	0.200
2020/01/31 14:17:21.2	0.720	-0.130	0.110	0.270
2020/01/31 14:17:21.3	0.700	-0.090	0.050	0.340
2020/01/31 14:17:21.4	0.690	-0.040	-0.020	0.410
2020/01/31 14:17:21.5	0.680	-0.000	-0.080	0.480
2020/01/31 14:17:21.6	0.670	0.040	-0.140	0.540
2020/01/31 14:17:21.7	0.660	0.080	-0.190	0.600
2020/01/31 14:17:21.8	0.640	0.110	-0.240	0.670
2020/01/31 14:17:21.9	0.630	0.140	-0.290	0.730
2020/01/31 14:17:22.0	0.610	0.180	-0.330	0.790
2020/01/31 14:17:22.1	0.590	0.200	-0.370	0.850
2020/01/31 14:17:22.2	0.580	0.230	-0.400	0.910
2020/01/31 14:17:22.3	0.560	0.250	-0.430	0.960
2020/01/31 14:17:22.4	0.540	0.270	-0.460	1.010
2020/01/31 14:17:22.5	0.520	0.290	-0.480	1.060
2020/01/31 14:17:22.6	0.500	0.310	-0.500	1.110
2020/01/31 14:17:22.7	0.480	0.320	-0.520	1.150
2020/01/31 14:17:22.8	0.470	0.330	-0.530	1.190
2020/01/31 14:17:22.9	0.450	0.340	-0.540	1.230
2020/01/31 14:17:23.0	0.440	0.350	-0.550	1.260
2020/01/31 14:17:23.1	0.420	0.350	-0.550	1.290
2020/01/31 14:17:23.2	0.410	0.350	-0.550	1.310
2020/01/31 14:17:23.3	0.390	0.350	-0.550	1.330
2020/01/31 14:17:23.4	0.380	0.350	-0.550	1.340
2020/01/31 14:17:23.5	0.370	0.340	-0.550	1.350
2020/01/31 14:17:23.6	0.360	0.330	-0.540	1.350
2020/01/31 14:17:23.7	0.350	0.320	-0.540	1.350
2020/01/31 14:17:23.8	0.340	0.310	-0.530	1.340
2020/01/31 14:17:23.9	0.340	0.300	-0.530	1.330
2020/01/31 14:17:24.0	0.330	0.280	-0.520	1.310
2020/01/31 14:17:24.1	0.330	0.260	-0.520	1.280
2020/01/31 14:17:24.2	0.330	0.250	-0.520	1.250
2020/01/31 14:17:24.3	0.330	0.230	-0.520	1.210
2020/01/31 14:17:24.4	0.330	0.210	-0.520	1.160
2020/01/31 14:17:24.5	0.340	0.190	-0.530	1.110
2020/01/31 14:17:24.6	0.340	0.170	-0.540	1.060
2020/01/31 14:17:24.7	0.350	0.150	-0.550	1.000
2020/01/31 14:17:24.8	0.350	0.130	-0.560	0.930
2020/01/31 14:17:24.9	0.370	0.110	-0.570	0.870
2020/01/31 14:17:25.0	0.380	0.090	-0.580	0.790
2020/01/31 14:17:25.1	0.400	0.070	-0.600	0.710
2020/01/31 14:17:25.2	0.410	0.060	-0.620	0.630
2020/01/31 14:17:25.3	0.430	0.040	-0.630	0.550
2020/01/31 14:17:25.4	0.460	0.030	-0.650	0.460
2020/01/31 14:17:25.5	0.480	0.020	-0.670	0.370
2020/01/31 14:17:25.6	0.510	0.010	-0.690	0.260
2020/01/31 14:17:25.7	0.540	-0.000	-0.710	0.170
2020/01/31 14:17:25.8	0.570	-0.010	-0.730	0.070
2020/01/31 14:17:25.9	0.600	-0.010	-0.750	-0.040
2020/01/31 14:17:26.0	0.640	-0.010	-0.760	-0.140
2020/01/31 14:17:26.1	0.680	-0.010	-0.780	-0.240
2020/01/31 14:17:26.2	0.710	-0.010	-0.790	-0.350
2020/01/31 14:17:26.3	0.750	-0.010	-0.790	-0.450
2020/01/31 14:17:26.4	0.790	-0.010	-0.800	-0.550
2020/01/31 14:17:26.5	0.830	0.000	-0.800	-0.640
2020/01/31 14:17:26.6	0.880	0.010	-0.790	-0.740
2020/01/31 14:17:26.7	0.920	0.020	-0.780	-0.830
2020/01/31 14:17:26.8	0.950	0.030	-0.770	-0.910
2020/01/31 14:17:26.9	0.980	0.040	-0.750	-0.980
2020/01/31 14:17:27.0	1.000	0.050	-0.720	-1.050
2020/01/31 14:17:27.1	1.030	0.060	-0.690	-1.110
2020/01/31 14:17:27.2	1.050	0.080	-0.660	-1.160
2020/01/31 14:17:27.3	1.060	0.090	-0.620	-1.200
2020/01/31 14:17:27.4	1.080	0.100	-0.580	-1.240
2020/01/31 14:17:27.5	1.090	0.120	-0.530	-1.260
2020/01/31 14:17:27.6	1.100	0.130	-0.480	-1.290
2020/01/31 14:17:27.7	1.110	0.140	-0.430	-1.300
2020/01/31 14:17:27.8	1.110	0.150	-0.380	-1.300
2020/01/31 14:17:27.9	1.120	0.160	-0.320	-1.300
2020/01/31 14:17:28.0	1.120	0.170	-0.270	-1.300
2020/01/31 14:17:28.1	1.120	0.170	-0.210	-1.290
2020/01/31 14:17:28.2	1.120	0.180	-0.160	-1.280
2020/01/31 14:17:28.3	1.120	0.180	-0.110	-1.260
2020/01/31 14:17:28.4	1.120	0.180	-0.070	-1.250
2020/01/31 14:17:28.5	1.120	0.180	-0.030	-1.230
2020/01/31 14:17:28.6	1.100	0.180	0.010	-1.210
2020/01/31 14:17:28.7	1.100	0.180	0.040	-1.190
2020/01/31 14:17:28.8	1.100	0.170	0.070	-1.170
2020/01/31 14:17:28.9	1.100	0.160	0.100	-1.150
2020/01/31 14:17:29.0	1.110	0.160	0.110	-1.130
2020/01/31 14:17:29.1	1.110	0.150	0.120	-1.120
2020/01/31 14:17:29.2	1.120	0.140	0.130	-1.100
2020/01/31 14:17:29.3	1.130	0.130	0.130	-1.090
2020/01/31 14:17:29.4	1.140	0.120	0.120	-1.070
2020/01/31 14:17:29.5	1.150	0.110	0.110	-1.060
2020/01/31 14:17:29.6	1.160	0.090	0.100	-1.050
2020/01/31 14:17:29.7	1.170	0.080	0.070	-1.040
2020/01/31 14:17:29.8	1.180	0.070	0.050	-1.030
2020/01/31 14:17:29.9	1.200	0.060	0.020	-1.020
2020/01/31 14:17:30.0	1.210	0.050	-0.010	-1.000
2020/01/31 14:17:30.1	1.230	0.040	-0.050	-0.990
2020/01/31 14:17:30.2	1.240	0.030	-0.090	-0.980
2020/01/31 14:17:30.3	1.260	0.020	-0.120	-0.970
2020/01/31 14:17:30.4	1.270	0.010	-0.160	-0.960
2020/01/31 14:17:30.5	1.280	0.010	-0.200	-0.950
2020/01/31 14:17:30.6	1.320	0.000	-0.240	-0.940
2020/01/31 14:17:30.7	1.330	-0.000	-0.270	-0.930
2020/01/31 14:17:30.8	1.340	-0.010	-0.310	-0.910
2020/01/31 14:17:30.9	1.350	-0.010	-0.340	-0.900
2020/01/31 14:17:31.0	1.360	-0.010	-0.370	-0.890
2020/01/31 14:17:31.1	1.370	-0.010	-0.390	-0.880
2020/01/31 14:17:31.2	1.380	-0.010	-0.410	-0.870
2020/01/31 14:17:31.3	1.390	-0.010	-0.430	-0.870
2020/01/31 14:17:31.4	1.400	-0.010	-0.440	-0.860
2020/01/31 14:17:31.5	1.400	-0.010	-0.450	-0.840
2020/01/31 14:17:31.6	1.400	-0.000	-0.450	-0.830
2020/01/31 14:17:31.7	1.400	0.000	-0.450	-0.820
2020/01/31 14:17:31.8	1.400	0.010	-0.450	-0.800
2020/01/31 14:17:31.9	1.400	0.010	-0.440	-0.780
2020/01/31 14:17:32.0	1.400	0.010	-0.420	-0.760
2020/01/31 14:17:32.1	1.400	0.020	-0.410	-0.750
2020/01/31 14:17:32.2	1.400	0.020	-0.390	-0.730
2020/01/31 14:17:32.3	1.390	0.020	-0.360	-0.700
2020/01/31 14:17:32.4	1.390	0.030	-0.340	-0.680
2020/01/31 14:17:32.5	1.380	0.030	-0.310	-0.660
2020/01/31 14:17:32.6	1.370	0.030	-0.280	-0.640
2020/01/31 14:17:32.7	1.360	0.030	-0.250	-0.620
2020/01/31 14:17:32.8	1.350	0.020	-0.210	-0.600
2020/01/31 14:17:32.9	1.350	0.020	-0.180	-0.580
2020/01/31 14:17:33.0	1.340	0.010	-0.140	-0.560
2020/01/31 14:17:33.1	1.340	0.010	-0.110	-0.540
2020/01/31 14:17:33.2	1.330	-0.000	-0.070	-0.520
2020/01/31 14:17:33.3	1.320	-0.010	-0.040	-0.510
2020/01/31 14:17:33.4	1.320	-0.030	-0.010	-0.490
2020/01/31 14:17:33.5	1.310	-0.040	0.030	-0.470
2020/01/31 14:17:33.6	1.310	-0.060	0.050	-0.460
2020/01/31 14:17:33.7	1.300	-0.080	0.080	-0.440
2020/01/31 14:17:33.8	1.300	-0.090	0.110	-0.430
2020/01/31 14:17:33.9	1.300	-0.110	0.140	-0.410
2020/01/31 14:17:34.0	1.290	-0.140	0.160	-0.390
2020/01/31 14:17:34.1	1.290	-0.160	0.190	-0.380
2020/01/31 14:17:34.2	1.280	-0.180	0.210	-0.360
2020/01/31 14:17:34.3	1.280	-0.200	0.230	-0.350
2020/01/31 14:17:34.4	1.270	-0.230	0.240	-0.330
2020/01/31 14:17:34.5	1.270	-0.250	0.260	-0.310
2020/01/31 14:17:34.6	1.270	-0.270	0.270	-0.300
2020/01/31 14:17:34.7	1.260	-0.300	0.280	-0.280
2020/01/31 14:17:34.8	1.260	-0.320	0.290	-0.260
2020/01/31 14:17:34.9	1.250	-0.340	0.300	-0.240
2020/01/31 14:17:35.0	1.240	-0.360	0.300	-0.220
2020/01/31 14:17:35.1	1.240	-0.370	0.310	-0.200
2020/01/31 14:17:35.2	1.230	-0.390	0.310	-0.180
2020/01/31 14:17:35.3	1.220	-0.400	0.310	-0.160
2020/01/31 14:17:35.4	1.220	-0.420	0.310	-0.140
2020/01/31 14:17:35.5	1.210	-0.430	0.310	-0.120
2020/01/31 14:17:35.6	1.210	-0.430	0.300	-0.100
2020/01/31 14:17:35.7	1.210	-0.440	0.300	-0.080
2020/01/31 14:17:35.8	1.210	-0.440	0.290	-0.070
2020/01/31 14:17:35.9	1.200	-0.440	0.270	-0.050
2020/01/31 14:17:36.0	1.200	-0.440	0.260	-0.030
2020/01/31 14:17:36.1	1.200	-0.440	0.240	-0.010
2020/01/31 14:17:36.2	1.200	-0.430	0.220	0.000
2020/01/31 14:17:36.3	1.210	-0.420	0.200	0.020
2020/01/31 14:17:36.4	1.210	-0.410	0.170	0.030
2020/01/31 14:17:36.5	1.210	-0.390	0.140	0.040
2020/01/31 14:17:36.6	1.220	-0.370	0.110	0.050
2020/01/31 14:17:36.7	1.230	-0.350	0.080	0.060
2020/01/31 14:17:36.8	1.230	-0.330	0.040	0.070
2020/01/31 14:17:36.9	1.240	-0.310	-0.000	0.080
2020/01/31 14:17:37.0	1.250	-0.280	-0.040	0.090
2020/01/31 14:17:37.1	1.260	-0.250	-0.090	0.100
2020/01/31 14:17:37.2	1.270	-0.220	-0.140	0.100
2020/01/31 14:17:37.3	1.280	-0.180	-0.180	0.110
2020/01/31 14:17:37.4	1.290	-0.150	-0.230	0.120
2020/01/31 14:17:37.5	1.300	-0.110	-0.280	0.130
2020/01/31 14:17:37.6	1.300	-0.070	-0.340	0.130
2020/01/31 14:17:37.7	1.320	-0.040	-0.390	0.140
2020/01/31 14:17:37.8	1.330	0.000	-0.440	0.150
2020/01/31 14:17:37.9	1.340	0.050	-0.490	0.160
2020/01/31 14:17:38.0	1.360	0.090	-0.540	0.170
2020/01/31 14:17:38.1	1.370	0.130	-0.580	0.170
2020/01/31 14:17:38.2	1.380	0.170	-0.630	0.180
2020/01/31 14:17:38.3	1.400	0.210	-0.670	0.190
2020/01/31 14:17:38.4	1.410	0.250	-0.710	0.200
2020/01/31 14:17:38.5	1.430	0.290	-0.750	0.210
2020/01/31 14:17:38.6	1.440	0.330	-0.780	0.220
2020/01/31 14:17:38.7	1.450	0.370	-0.820	0.220
2020/01/31 14:17:38.8	1.460	0.410	-0.850	0.240
2020/01/31 14:17:38.9	1.460	0.440	-0.870	0.250
2020/01/31 14:17:39.0	1.470	0.470	-0.900	0.260
2020/01/31 14:17:39.1	1.470	0.500	-0.910	0.270
2020/01/31 14:17:39.2	1.470	0.530	-0.930	0.290
2020/01/31 14:17:39.3	1.460	0.550	-0.940	0.300
2020/01/31 14:17:39.4	1.450	0.570	-0.940	0.320
2020/01/31 14:17:39.5	1.440	0.590	-0.940	0.330
2020/01/31 14:17:39.6	1.430	0.600	-0.940	0.340
2020/01/31 14:17:39.7	1.410	0.610	-0.940	0.350
2020/01/31 14:17:39.8	1.400	0.620	-0.930	0.350
2020/01/31 14:17:39.9	1.390	0.620	-0.920	0.350
2020/01/31 14:17:40.0	1.370	0.620	-0.910	0.350
2020/01/31 14:17:40.1	1.350	0.620	-0.890	0.350
2020/01/31 14:17:40.2	1.340	0.610	-0.870	0.340
2020/01/31 14:17:40.3	1.320	0.600	-0.850	0.330
2020/01/31 14:17:40.4	1.310	0.590	-0.830	0.320
2020/01/31 14:17:40.5	1.290	0.570	-0.800	0.300
2020/01/31 14:17:40.6	1.280	0.550	-0.780	0.280
2020/01/31 14:17:40.7	1.260	0.530	-0.750	0.260
2020/01/31 14:17:40.8	1.250	0.510	-0.730	0.240
2020/01/31 14:17:40.9	1.250	0.490	-0.700	0.210
2020/01/31 14:17:41.0	1.240	0.470	-0.670	0.180
2020/01/31 14:17:41.1	1.240	0.440	-0.630	0.150
2020/01/31 14:17:41.2	1.240	0.410	-0.600	0.110
2020/01/31 14:17:41.3	1.240	0.390	-0.570	0.080
2020/01/31 14:17:41.4	1.240	0.360	-0.540	0.030
2020/01/31 14:17:41.5	1.250	0.330	-0.510	-0.010
2020/01/31 14:17:41.6	1.260	0.310	-0.470	-0.050
2020/01/31 14:17:41.7	1.270	0.280	-0.440	-0.100
2020/01/31 14:17:41.8	1.280	0.250	-0.410	-0.160
2020/01/31 14:17:41.9	1.300	0.220	-0.380	-0.210
2020/01/31 14:17:42.0	1.320	0.190	-0.350	-0.270
2020/01/31 14:17:42.1	1.340	0.170	-0.320	-0.330
2020/01/31 14:17:42.2	1.360	0.140	-0.290	-0.390
2020/01/31 14:17:42.3	1.390	0.110	-0.260	-0.460
2020/01/31 14:17:42.4	1.420	0.080	-0.230	-0.530
2020/01/31 14:17:42.5	1.450	0.050	-0.200	-0.600
2020/01/31 14:17:42.6	1.480	0.030	-0.180	-0.680
2020/01/31 14:17:42.7	1.520	-0.000	-0.150	-0.760
2020/01/31 14:17:42.8	1.550	-0.030	-0.130	-0.830
2020/01/31 14:17:42.9	1.590	-0.060	-0.110	-0.910
2020/01/31 14:17:43.0	1.620	-0.090	-0.090	-0.990
2020/01/31 14:17:43.1	1.660	-0.120	-0.070	-1.070
2020/01/31 14:17:43.2	1.690	-0.150	-0.060	-1.150
2020/01/31 14:17:43.3	1.730	-0.180	-0.040	-1.230
2020/01/31 14:17:43.4	1.760	-0.210	-0.030	-1.310
2020/01/31 14:17:43.5	1.800	-0.240	-0.020	-1.380
2020/01/31 14:17:43.6	1.830	-0.270	-0.010	-1.450
2020/01/31 14:17:43.7	1.860	-0.300	-0.000	-1.520
2020/01/31 14:17:43.8	1.890	-0.330	0.010	-1.580
2020/01/31 14:17:43.9	1.920	-0.360	0.010	-1.640
2020/01/31 14:17:44.0	1.940	-0.380	0.020	-1.690
2020/01/31 14:17:44.1	1.960	-0.410	0.030	-1.740
2020/01/31 14:17:44.2	1.980	-0.430	0.030	-1.780
2020/01/31 14:17:44.3	2.000	-0.450	0.040	-1.810
2020/01/31 14:17:44.4	2.010	-0.480	0.040	-1.850
2020/01/31 14:17:44.5	2.020	-0.490	0.040	-1.870
2020/01/31 14:17:44.6	2.020	-0.510	0.050	-1.890
2020/01/31 14:17:44.7	2.030	-0.530	0.060	-1.900
2020/01/31 14:17:44.8	2.020	-0.540	0.060	-1.910
2020/01/31 14:17:44.9	2.020	-0.550	0.070	-1.910
2020/01/31 14:17:45.0	2.020	-0.560	0.080	-1.900
2020/01/31 14:17:45.1	2.010	-0.560	0.080	-1.890
2020/01/31 14:17:45.2	2.000	-0.560	0.090	-1.870
2020/01/31 14:17:45.3	1.980	-0.560	0.100	-1.850
2020/01/31 14:17:45.4	1.960	-0.560	0.110	-1.820
2020/01/31 14:17:45.5	1.950	-0.550	0.120	-1.790
2020/01/31 14:17:45.6	1.920	-0.540	0.130	-1.750
2020/01/31 14:17:45.7	1.900	-0.530	0.140	-1.710
2020/01/31 14:17:45.8	1.880	-0.510	0.150	-1.660
2020/01/31 14:17:45.9	1.850	-0.490	0.150	-1.610
2020/01/31 14:17:46.0	1.830	-0.460	0.160	-1.550
2020/01/31 14:17:46.1	1.800	-0.440	0.170	-1.490
2020/01/31 14:17:46.2	1.770	-0.400	0.180	-1.420
2020/01/31 14:17:46.3	1.750	-0.370	0.180	-1.350
2020/01/31 14:17:46.4	1.720	-0.330	0.190	-1.280
2020/01/31 14:17:46.5	1.690	-0.290	0.190	-1.200
2020/01/31 14:17:46.6	1.650	-0.250	0.190	-1.110
2020/01/31 14:17:46.7	1.620	-0.200	0.190	-1.030
2020/01/31 14:17:46.8	1.590	-0.160	0.200	-0.940
2020/01/31 14:17:46.9	1.560	-0.110	0.200	-0.840
2020/01/31 14:17:47.0	1.530	-0.060	0.200	-0.750
2020/01/31 14:17:47.1	1.490	-0.020	0.200	-0.650
2020/01/31 14:17:47.2	1.460	0.030	0.190	-0.560
2020/01/31 14:17:47.3	1.430	0.080	0.190	-0.460
2020/01/31 14:17:47.4	1.400	0.120	0.190	-0.360
2020/01/31 14:17:47.5	1.370	0.160	0.180	-0.270
2020/01/31 14:17:47.6	1.340	0.200	0.170	-0.170
2020/01/31 14:17:47.7	1.310	0.240	0.160	-0.080
2020/01/31 14:17:47.8	1.280	0.270	0.150	0.010
2020/01/31 14:17:47.9	1.250	0.300	0.140	0.090
2020/01/31 14:17:48.0	1.220	0.330	0.130	0.180
2020/01/31 14:17:48.1	1.190	0.350	0.110	0.250
2020/01/31 14:17:48.2	1.170	0.360	0.090	0.330
2020/01/31 14:17:48.3	1.140	0.370	0.080	0.400
2020/01/31 14:17:48.4	1.110	0.370	0.060	0.460
2020/01/31 14:17:48.5	1.090	0.370	0.040	0.520
2020/01/31 14:17:48.6	1.060	0.360	0.020	0.570
2020/01/31 14:17:48.7	1.040	0.350	-0.000	0.620
2020/01/31 14:17:48.8	1.020	0.330	-0.030	0.660
2020/01/31 14:17:48.9	1.000	0.310	-0.050	0.700
2020/01/31 14:17:49.0	0.980	0.280	-0.070	0.730
2020/01/31 14:17:49.1	0.970	0.240	-0.100	0.750
2020/01/31 14:17:49.2	0.950	0.210	-0.120	0.770
2020/01/31 14:17:49.3	0.940	0.160	-0.150	0.770
2020/01/31 14:17:49.4	0.940	0.120	-0.180	0.770
2020/01/31 14:17:49.5	0.930	0.070	-0.210	0.760
2020/01/31 14:17:49.6	0.920	0.020	-0.240	0.740
2020/01/31 14:17:49.7	0.920	-0.030	-0.270	0.720
2020/01/31 14:17:49.8	0.930	-0.080	-0.300	0.680
2020/01/31 14:17:49.9	0.940	-0.130	-0.340	0.640
2020/01/31 14:17:50.0	0.960	-0.180	-0.380	0.590
2020/01/31 14:17:50.1	0.980	-0.230	-0.410	0.540
2020/01/31 14:17:50.2	1.000	-0.270	-0.460	0.470
2020/01/31 14:17:50.3	1.030	-0.310	-0.500	0.410
2020/01/31 14:17:50.4	1.050	-0.350	-0.540	0.330
2020/01/31 14:17:50.5	1.090	-0.390	-0.580	0.260
2020/01/31 14:17:50.6	1.130	-0.420	-0.630	0.170
2020/01/31 14:17:50.7	1.170	-0.440	-0.670	0.090
2020/01/31 14:17:50.8	1.200	-0.460	-0.710	0.010
2020/01/31 14:17:50.9	1.240	-0.480	-0.750	-0.070
2020/01/31 14:17:51.0	1.280	-0.480	-0.780	-0.150
2020/01/31 14:17:51.1	1.320	-0.480	-0.820	-0.220
2020/01/31 14:17:51.2	1.350	-0.480	-0.850	-0.290
2020/01/31 14:17:51.3	1.390	-0.470	-0.870	-0.360
2020/01/31 14:17:51.4	1.430	-0.450	-0.900	-0.430
2020/01/31 14:17:51.5	1.460	-0.420	-0.920	-0.490
2020/01/31 14:17:51.6	1.500	-0.390	-0.930	-0.550
2020/01/31 14:17:51.7	1.530	-0.360	-0.940	-0.610
2020/01/31 14:17:51.8	1.560	-0.320	-0.940	-0.660
2020/01/31 14:17:51.9	1.580	-0.280	-0.940	-0.700
2020/01/31 14:17:52.0	1.610	-0.230	-0.940	-0.740
2020/01/31 14:17:52.1	1.630	-0.180	-0.930	-0.780
2020/01/31 14:17:52.2	1.650	-0.120	-0.920	-0.810
2020/01/31 14:17:52.3	1.660	-0.070	-0.910	-0.840
2020/01/31 14:17:52.4	1.680	-0.010	-0.890	-0.860
2020/01/31 14:17:52.5	1.690	0.040	-0.870	-0.870
2020/01/31 14:17:52.6	1.700	0.100	-0.850	-0.890
2020/01/31 14:17:52.7	1.710	0.160	-0.820	-0.890
2020/01/31 14:17:52.8	1.710	0.210	-0.800	-0.890
2020/01/31 14:17:52.9	1.710	0.270	-0.770	-0.890
2020/01/31 14:17:53.0	1.710	0.320	-0.740	-0.880
2020/01/31 14:17:53.1	1.710	0.370	-0.710	-0.870
2020/01/31 14:17:53.2	1.710	0.410	-0.680	-0.860
2020/01/31 14:17:53.3	1.700	0.450	-0.650	-0.840
2020/01/31 14:17:53.4	1.690	0.490	-0.620	-0.820
2020/01/31 14:17:53.5	1.690	0.520	-0.590	-0.800
2020/01/31 14:17:53.6	1.680	0.550	-0.570	-0.770
2020/01/31 14:17:53.7	1.670	0.580	-0.540	-0.750
2020/01/31 14:17:53.8	1.670	0.600	-0.520	-0.720
2020/01/31 14:17:53.9	1.660	0.610	-0.500	-0.700
2020/01/31 14:17:54.0	1.660	0.620	-0.480	-0.670
2020/01/31 14:17:54.1	1.660	0.630	-0.460	-0.650
2020/01/31 14:17:54.2	1.650	0.630	-0.450	-0.620
2020/01/31 14:17:54.3	1.650	0.630	-0.430	-0.600
2020/01/31 14:17:54.4	1.660	0.620	-0.420	-0.580
2020/01/31 14:17:54.5	1.660	0.610	-0.410	-0.560
2020/01/31 14:17:54.6	1.680	0.600	-0.400	-0.540
2020/01/31 14:17:54.7	1.680	0.580	-0.400	-0.520
2020/01/31 14:17:54.8	1.690	0.550	-0.390	-0.510
2020/01/31 14:17:54.9	1.700	0.530	-0.380	-0.500
2020/01/31 14:17:55.0	1.710	0.500	-0.370	-0.490
2020/01/31 14:17:55.1	1.730	0.470	-0.370	-0.480
2020/01/31 14:17:55.2	1.740	0.430	-0.360	-0.470
2020/01/31 14:17:55.3	1.750	0.400	-0.350	-0.460
2020/01/31 14:17:55.4	1.760	0.360	-0.340	-0.450
2020/01/31 14:17:55.5	1.770	0.320	-0.320	-0.440
2020/01/31 14:17:55.6	1.760	0.290	-0.310	-0.440
2020/01/31 14:17:55.7	1.770	0.250	-0.290	-0.430
2020/01/31 14:17:55.8	1.780	0.210	-0.260	-0.420
2020/01/31 14:17:55.9	1.790	0.170	-0.240	-0.410
2020/01/31 14:17:56.0	1.790	0.130	-0.210	-0.400
2020/01/31 14:17:56.1	1.800	0.100	-0.180	-0.380
2020/01/31 14:17:56.2	1.800	0.060	-0.140	-0.370
2020/01/31 14:17:56.3	1.800	0.030	-0.100	-0.360
2020/01/31 14:17:56.4	1.800	-0.000	-0.060	-0.340
2020/01/31 14:17:56.5	1.800	-0.030	-0.010	-0.330
2020/01/31 14:17:56.6	1.810	-0.060	0.040	-0.310
2020/01/31 14:17:56.7	1.800	-0.090	0.090	-0.290
2020/01/31 14:17:56.8	1.790	-0.120	0.140	-0.280
2020/01/31 14:17:56.9	1.780	-0.140	0.200	-0.260
2020/01/31 14:17:57.0	1.770	-0.160	0.250	-0.240
2020/01/31 14:17:57.1	1.760	-0.180	0.310	-0.220
2020/01/31 14:17:57.2	1.740	-0.190	0.370	-0.200
2020/01/31 14:17:57.3	1.730	-0.210	0.420	-0.180
2020/01/31 14:17:57.4	1.710	-0.220	0.470	-0.150
2020/01/31 14:17:57.5	1.690	-0.230	0.520	-0.130
2020/01/31 14:17:57.6	1.680	-0.240	0.570	-0.110
2020/01/31 14:17:57.7	1.660	-0.250	0.610	-0.090
2020/01/31 14:17:57.8	1.630	-0.250	0.650	-0.060
2020/01/31 14:17:57.9	1.610	-0.250	0.690	-0.040
2020/01/31 14:17:58.0	1.580	-0.260	0.720	-0.020
2020/01/31 14:17:58.1	1.550	-0.260	0.740	0.000
2020/01/31 14:17:58.2	1.530	-0.260	0.760	0.020
2020/01/31 14:17:58.3	1.500	-0.260	0.770	0.040
2020/01/31 14:17:58.4	1.470	-0.250	0.770	0.060
2020/01/31 14:17:58.5	1.440	-0.250	0.770	0.080
2020/01/31 14:17:58.6	1.410	-0.250	0.750	0.090
2020/01/31 14:17:58.7	1.380	-0.240	0.740	0.100
2020/01/31 14:17:58.8	1.360	-0.230	0.710	0.110
2020/01/31 14:17:58.9	1.340	-0.230	0.680	0.120
2020/01/31 14:17:59.0	1.320	-0.220	0.650	0.130
2020/01/31 14:17:59.1	1.300	-0.210	0.600	0.130
2020/01/31 14:17:59.2	1.280	-0.210	0.550	0.130
2020/01/31 14:17:59.3	1.270	-0.200	0.490	0.120
2020/01/31 14:17:59.4	1.250	-0.190	0.430	0.120
2020/01/31 14:17:59.5	1.240	-0.180	0.360	0.110
2020/01/31 14:17:59.6	1.230	-0.170	0.300	0.090
2020/01/31 14:17:59.7	1.220	-0.170	0.220	0.080
2020/01/31 14:17:59.8	1.220	-0.160	0.140	0.060
2020/01/31 14:17:59.9	1.210	-0.150	0.050	0.040
2020/01/31 14:18:00.0	1.210	-0.140	-0.030	0.020
2020/01/31 14:18:00.1	1.200	-0.130	-0.120	-0.010
2020/01/31 14:18:00.2	1.200	-0.120	-0.210	-0.030
2020/01/31 14:18:00.3	1.200	-0.110	-0.300	-0.060
2020/01/31 14:18:00.4	1.200	-0.100	-0.380	-0.090
2020/01/31 14:18:00.5	1.200	-0.090	-0.470	-0.120
2020/01/31 14:18:00.6	1.190	-0.090	-0.540	-0.160
2020/01/31 14:18:00.7	1.190	-0.080	-0.620	-0.190
2020/01/31 14:18:00.8	1.190	-0.070	-0.700	-0.220
2020/01/31 14:18:00.9	1.190	-0.060	-0.770	-0.250
2020/01/31 14:18:01.0	1.190	-0.050	-0.830	-0.280
2020/01/31 14:18:01.1	1.190	-0.040	-0.890	-0.310
2020/01/31 14:18:01.2	1.190	-0.030	-0.940	-0.330
2020/01/31 14:18:01.3	1.200	-0.020	-0.990	-0.360
2020/01/31 14:18:01.4	1.190	-0.010	-1.030	-0.380
2020/01/31 14:18:01.5	1.190	0.010	-1.060	-0.400
2020/01/31 14:18:01.6	1.200	0.020	-1.080	-0.420
2020/01/31 14:18:01.7	1.200	0.030	-1.100	-0.440
2020/01/31 14:18:01.8	1.200	0.040	-1.120	-0.450
2020/01/31 14:18:01.9	1.200	0.050	-1.120	-0.470
2020/01/31 14:18:02.0	1.200	0.060	-1.120	-0.480
2020/01/31 14:18:02.1	1.200	0.070	-1.120	-0.480
2020/01/31 14:18:02.2	1.200	0.080	-1.110	-0.490
2020/01/31 14:18:02.3	1.200	0.090	-1.100	-0.500
2020/01/31 14:18:02.4	1.200	0.100	-1.080	-0.500
2020/01/31 14:18:02.5	1.210	0.110	-1.060	-0.500
2020/01/31 14:18:02.6	1.210	0.120	-1.030	-0.510
2020/01/31 14:18:02.7	1.220	0.130	-1.010	-0.510
2020/01/31 14:18:02.8	1.220	0.130	-0.980	-0.510
2020/01/31 14:18:02.9	1.230	0.140	-0.950	-0.510
2020/01/31 14:18:03.0	1.240	0.150	-0.930	-0.510
2020/01/31 14:18:03.1	1.250	0.150	-0.900	-0.510
2020/01/31 14:18:03.2	1.270	0.150	-0.870	-0.520
2020/01/31 14:18:03.3	1.280	0.160	-0.840	-0.520
2020/01/31 14:18:03.4	1.300	0.160	-0.810	-0.530
2020/01/31 14:18:03.5	1.320	0.160	-0.780	-0.530
2020/01/31 14:18:03.6	1.340	0.150	-0.750	-0.540
2020/01/31 14:18:03.7	1.370	0.150	-0.720	-0.550
2020/01/31 14:18:03.8	1.390	0.150	-0.700	-0.560
2020/01/31 14:18:03.9	1.430	0.140	-0.670	-0.570
2020/01/31 14:18:04.0	1.460	0.130	-0.650	-0.590
2020/01/31 14:18:04.1	1.500	0.130	-0.620	-0.610
2020/01/31 14:18:04.2	1.540	0.120	-0.600	-0.630
2020/01/31 14:18:04.3	1.580	0.110	-0.570	-0.650
2020/01/31 14:18:04.4	1.620	0.100	-0.550	-0.670
2020/01/31 14:18:04.5	1.660	0.090	-0.530	-0.690
2020/01/31 14:18:04.6	1.700	0.070	-0.500	-0.720
2020/01/31 14:18:04.7	1.750	0.060	-0.470	-0.740
2020/01/31 14:18:04.8	1.790	0.050	-0.440	-0.760
2020/01/31 14:18:04.9	1.830	0.030	-0.420	-0.780
2020/01/31 14:18:05.0	1.880	0.020	-0.380	-0.790
2020/01/31 14:18:05.1	1.910	-0.000	-0.350	-0.800
2020/01/31 14:18:05.2	1.950	-0.020	-0.310	-0.810
2020/01/31 14:18:05.3	1.980	-0.040	-0.270	-0.810
2020/01/31 14:18:05.4	2.010	-0.060	-0.220	-0.810
2020/01/31 14:18:05.5	2.030	-0.080	-0.170	-0.800
2020/01/31 14:18:05.6	2.030	-0.100	-0.120	-0.780
2020/01/31 14:18:05.7	2.040	-0.120	-0.060	-0.760
2020/01/31 14:18:05.8	2.050	-0.140	-0.000	-0.740
2020/01/31 14:18:05.9	2.050	-0.170	0.060	-0.710
2020/01/31 14:18:06.0	2.040	-0.190	0.130	-0.670
2020/01/31 14:18:06.1	2.030	-0.220	0.200	-0.640
2020/01/31 14:18:06.2	2.010	-0.240	0.260	-0.600
2020/01/31 14:18:06.3	1.990	-0.270	0.330	-0.550
2020/01/31 14:18:06.4	1.960	-0.300	0.400	-0.510
2020/01/31 14:18:06.5	1.930	-0.320	0.460	-0.470
2020/01/31 14:18:06.6	1.900	-0.350	0.520	-0.420
2020/01/31 14:18:06.7	1.870	-0.380	0.580	-0.380
2020/01/31 14:18:06.8	1.830	-0.400	0.640	-0.330
2020/01/31 14:18:06.9	1.780	-0.430	0.690	-0.290
2020/01/31 14:18:07.0	1.740	-0.450	0.740	-0.250
2020/01/31 14:18:07.1	1.690	-0.470	0.780	-0.200
2020/01/31 14:18:07.2	1.640	-0.490	0.810	-0.160
2020/01/31 14:18:07.3	1.590	-0.510	0.840	-0.120
2020/01/31 14:18:07.4	1.540	-0.530	0.860	-0.090
2020/01/31 14:18:07.5	1.500	-0.540	0.880	-0.050
2020/01/31 14:18:07.6	1.440	-0.550	0.880	-0.020
2020/01/31 14:18:07.7	1.400	-0.550	0.880	0.020
2020/01/31 14:18:07.8	1.350	-0.550	0.870	0.050
2020/01/31 14:18:07.9	1.300	-0.550	0.850	0.080
2020/01/31 14:18:08.0	1.260	-0.540	0.820	0.110
2020/01/31 14:18:08.1	1.210	-0.530	0.790	0.140
2020/01/31 14:18:08.2	1.170	-0.510	0.740	0.170
2020/01/31 14:18:08.3	1.130	-0.490	0.690	0.190
2020/01/31 14:18:08.4	1.090	-0.460	0.630	0.220
2020/01/31 14:18:08.5	1.050	-0.430	0.570	0.240
2020/01/31 14:18:08.6	1.020	-0.390	0.500	0.260
2020/01/31 14:18:08.7	0.980	-0.350	0.420	0.280
2020/01/31 14:18:08.8	0.950	-0.300	0.340	0.300
2020/01/31 14:18:08.9	0.920	-0.250	0.260	0.310
2020/01/31 14:18:09.0	0.890	-0.190	0.170	0.330
2020/01/31 14:18:09.1	0.860	-0.130	0.080	0.340
2020/01/31 14:18:09.2	0.830	-0.070	-0.010	0.360
2020/01/31 14:18:09.3	0.800	-0.010	-0.110	0.370
2020/01/31 14:18:09.4	0.780	0.060	-0.200	0.380
2020/01/31 14:18:09.5	0.760	0.120	-0.290	0.380
2020/01/31 14:18:09.6	0.730	0.190	-0.380	0.380
2020/01/31 14:18:09.7	0.720	0.260	-0.470	0.390
2020/01/31 14:18:09.8	0.700	0.330	-0.560	0.390
2020/01/31 14:18:09.9	0.690	0.400	-0.650	0.390
2020/01/31 14:18:10.0	0.670	0.460	-0.730	0.390
2020/01/31 14:18:10.1	0.660	0.530	-0.810	0.390
2020/01/31 14:18:10.2	0.660	0.590	-0.880	0.390
2020/01/31 14:18:10.3	0.650	0.650	-0.950	0.380
2020/01/31 14:18:10.4	0.650	0.700	-1.020	0.370
2020/01/31 14:18:10.5	0.650	0.750	-1.080	0.360
2020/01/31 14:18:10.6	0.650	0.800	-1.130	0.350
2020/01/31 14:18:10.7	0.650	0.850	-1.180	0.340
2020/01/31 14:18:10.8	0.660	0.880	-1.220	0.330
2020/01/31 14:18:10.9	0.670	0.920	-1.250	0.310
2020/01/31 14:18:11.0	0.670	0.940	-1.280	0.300
2020/01/31 14:18:11.1	0.680	0.960	-1.300	0.280
2020/01/31 14:18:11.2	0.700	0.980	-1.310	0.260
2020/01/31 14:18:11.3	0.710	0.990	-1.320	0.240
2020/01/31 14:18:11.4	0.720	0.990	-1.320	0.210
2020/01/31 14:18:11.5	0.740	0.990	-1.310	0.190
2020/01/31 14:18:11.6	0.760	0.980	-1.300	0.170
2020/01/31 14:18:11.7	0.780	0.960	-1.280	0.140
2020/01/31 14:18:11.8	0.790	0.940	-1.250	0.120
2020/01/31 14:18:11.9	0.810	0.920	-1.220	0.090
2020/01/31 14:18:12.0	0.830	0.890	-1.180	0.070
2020/01/31 14:18:12.1	0.850	0.850	-1.130	0.040
2020/01/31 14:18:12.2	0.860	0.810	-1.080	0.020
2020/01/31 14:18:12.3	0.880	0.770	-1.030	-0.010
2020/01/31 14:18:12.4	0.900	0.720	-0.970	-0.030
2020/01/31 14:18:12.5	0.920	0.670	-0.900	-0.060
2020/01/31 14:18:12.6	0.930	0.610	-0.840	-0.090
2020/01/31 14:18:12.7	0.950	0.550	-0.780	-0.120
2020/01/31 14:18:12.8	0.970	0.490	-0.710	-0.150
2020/01/31 14:18:12.9	0.990	0.430	-0.640	-0.180
2020/01/31 14:18:13.0	1.010	0.360	-0.570	-0.210
2020/01/31 14:18:13.1	1.020	0.300	-0.500	-0.240
2020/01/31 14:18:13.2	1.040	0.230	-0.430	-0.270
2020/01/31 14:18:13.3	1.060	0.160	-0.360	-0.300
2020/01/31 14:18:13.4	1.070	0.100	-0.290	-0.330
2020/01/31 14:18:13.5	1.090	0.030	-0.220	-0.360
2020/01/31 14:18:13.6	1.110	-0.040	-0.160	-0.400
2020/01/31 14:18:13.7	1.120	-0.100	-0.100	-0.430
2020/01/31 14:18:13.8	1.130	-0.170	-0.040	-0.460
2020/01/31 14:18:13.9	1.150	-0.230	0.010	-0.490
2020/01/31 14:18:14.0	1.150	-0.290	0.070	-0.510
2020/01/31 14:18:14.1	1.160	-0.350	0.120	-0.540
2020/01/31 14:18:14.2	1.170	-0.400	0.160	-0.560
2020/01/31 14:18:14.3	1.180	-0.450	0.200	-0.590
2020/01/31 14:18:14.4	1.180	-0.500	0.240	-0.610
2020/01/31 14:18:14.5	1.180	-0.540	0.270	-0.630
2020/01/31 14:18:14.6	1.170	-0.580	0.300	-0.650
2020/01/31 14:18:14.7	1.180	-0.620	0.330	-0.660
2020/01/31 14:18:14.8	1.180	-0.650	0.350	-0.680
2020/01/31 14:18:14.9	1.180	-0.680	0.360	-0.690
2020/01/31 14:18:15.0	1.180	-0.700	0.380	-0.710
2020/01/31 14:18:15.1	1.180	-0.720	0.380	-0.720
2020/01/31 14:18:15.2	1.180	-0.730	0.380	-0.730
2020/01/31 14:18:15.3	1.190	-0.740	0.380	-0.740
2020/01/31 14:18:15.4	1.190	-0.750	0.380	-0.750
2020/01/31 14:18:15.5	1.190	-0.740	0.360	-0.750
2020/01/31 14:18:15.6	1.210	-0.740	0.350	-0.770
2020/01/31 14:18:15.7	1.210	-0.730	0.330	-0.780
2020/01/31 14:18:15.8	1.220	-0.720	0.310	-0.780
2020/01/31 14:18:15.9	1.220	-0.700	0.280	-0.790
2020/01/31 14:18:16.0	1.230	-0.680	0.260	-0.790
2020/01/31 14:18:16.1	1.230	-0.660	0.230	-0.790
2020/01/31 14:18:16.2	1.240	-0.630	0.200	-0.790
2020/01/31 14:18:16.3	1.240	-0.600	0.170	-0.790
2020/01/31 14:18:16.4	1.240	-0.570	0.140	-0.780
2020/01/31 14:18:16.5	1.240	-0.540	0.110	-0.780
2020/01/31 14:18:16.6	1.230	-0.500	0.080	-0.760
2020/01/31 14:18:16.7	1.230	-0.470	0.050	-0.740
2020/01/31 14:18:16.8	1.220	-0.430	0.030	-0.720
2020/01/31 14:18:16.9	1.210	-0.400	0.010	-0.700
2020/01/31 14:18:17.0	1.200	-0.370	-0.010	-0.670
2020/01/31 14:18:17.1	1.180	-0.330	-0.030	-0.640
2020/01/31 14:18:17.2	1.160	-0.300	-0.040	-0.600
2020/01/31 14:18:17.3	1.140	-0.270	-0.050	-0.560
2020/01/31 14:18:17.4	1.110	-0.240	-0.050	-0.520
2020/01/31 14:18:17.5	1.080	-0.220	-0.060	-0.470
2020/01/31 14:18:17.6	1.050	-0.200	-0.060	-0.420
2020/01/31 14:18:17.7	1.010	-0.180	-0.060	-0.380
2020/01/31 14:18:17.8	0.980	-0.160	-0.050	-0.330
2020/01/31 14:18:17.9	0.940	-0.140	-0.050	-0.280
2020/01/31 14:18:18.0	0.900	-0.130	-0.050	-0.240
2020/01/31 14:18:18.1	0.860	-0.120	-0.040	-0.190
2020/01/31 14:18:18.2	0.820	-0.120	-0.040	-0.150
2020/01/31 14:18:18.3	0.790	-0.110	-0.030	-0.110
2020/01/31 14:18:18.4	0.750	-0.110	-0.030	-0.070
2020/01/31 14:18:18.5	0.710	-0.110	-0.030	-0.040
2020/01/31 14:18:18.6	0.680	-0.110	-0.030	-0.000
2020/01/31 14:18:18.7	0.650	-0.120	-0.030	0.030
2020/01/31 14:18:18.8	0.620	-0.120	-0.030	0.050
2020/01/31 14:18:18.9	0.600	-0.120	-0.040	0.070
2020/01/31 14:18:19.0	0.580	-0.130	-0.050	0.090
2020/01/31 14:18:19.1	0.560	-0.130	-0.070	0.100
2020/01/31 14:18:19.2	0.540	-0.140	-0.080	0.120
2020/01/31 14:18:19.3	0.530	-0.140	-0.100	0.120
2020/01/31 14:18:19.4	0.530	-0.140	-0.130	0.130
2020/01/31 14:18:19.5	0.520	-0.140	-0.150	0.130
2020/01/31 14:18:19.6	0.530	-0.130	-0.180	0.130
2020/01/31 14:18:19.7	0.530	-0.130	-0.210	0.120
2020/01/31 14:18:19.8	0.530	-0.120	-0.240	0.120
2020/01/31 14:18:19.9	0.530	-0.110	-0.270	0.120
2020/01/31 14:18:20.0	0.540	-0.090	-0.300	0.110
2020/01/31 14:18:20.1	0.550	-0.070	-0.330	0.110
2020/01/31 14:18:20.2	0.560	-0.050	-0.370	0.110
2020/01/31 14:18:20.3	0.570	-0.030	-0.400	0.100
2020/01/31 14:18:20.4	0.580	0.000	-0.430	0.100
2020/01/31 14:18:20.5	0.590	0.030	-0.450	0.100
2020/01/31 14:18:20.6	0.600	0.060	-0.480	0.090
2020/01/31 14:18:20.7	0.610	0.100	-0.500	0.090
2020/01/31 14:18:20.8	0.620	0.130	-0.530	0.090
2020/01/31 14:18:20.9	0.640	0.170	-0.540	0.090
2020/01/31 14:18:21.0	0.650	0.200	-0.560	0.100
2020/01/31 14:18:21.1	0.660	0.240	-0.580	0.100
2020/01/31 14:18:21.2	0.670	0.280	-0.590	0.100
2020/01/31 14:18:21.3	0.680	0.320	-0.600	0.110
2020/01/31 14:18:21.4	0.690	0.350	-0.600	0.110
2020/01/31 14:18:21.5	0.700	0.390	-0.610	0.120
2020/01/31 14:18:21.6	0.710	0.420	-0.610	0.120
2020/01/31 14:18:21.7	0.710	0.450	-0.610	0.130
2020/01/31 14:18:21.8	0.720	0.480	-0.610	0.140
2020/01/31 14:18:21.9	0.720	0.510	-0.600	0.150
2020/01/31 14:18:22.0	0.720	0.530	-0.590	0.160
2020/01/31 14:18:22.1	0.720	0.550	-0.580	0.170
2020/01/31 14:18:22.2	0.720	0.560	-0.570	0.180
2020/01/31 14:18:22.3	0.720	0.580	-0.550	0.190
2020/01/31 14:18:22.4	0.710	0.590	-0.540	0.190
2020/01/31 14:18:22.5	0.710	0.590	-0.520	0.200
2020/01/31 14:18:22.6	0.710	0.590	-0.500	0.210
2020/01/31 14:18:22.7	0.700	0.590	-0.480	0.220
2020/01/31 14:18:22.8	0.690	0.580	-0.450	0.230
2020/01/31 14:18:22.9	0.680	0.570	-0.430	0.240
2020/01/31 14:18:23.0	0.670	0.550	-0.410	0.240
2020/01/31 14:18:23.1	0.660	0.530	-0.380	0.250
2020/01/31 14:18:23.2	0.650	0.510	-0.360	0.250
2020/01/31 14:18:23.3	0.630	0.490	-0.330	0.250
2020/01/31 14:18:23.4	0.620	0.460	-0.310	0.250
2020/01/31 14:18:23.5	0.610	0.430	-0.280	0.260
2020/01/31 14:18:23.6	0.590	0.400	-0.260	0.250
2020/01/31 14:18:23.7	0.580	0.360	-0.240	0.250
2020/01/31 14:18:23.8	0.570	0.320	-0.220	0.250
2020/01/31 14:18:23.9	0.560	0.290	-0.200	0.240
2020/01/31 14:18:24.0	0.550	0.250	-0.190	0.230
2020/01/31 14:18:24.1	0.540	0.210	-0.170	0.220
2020/01/31 14:18:24.2	0.530	0.170	-0.160	0.210
2020/01/31 14:18:24.3	0.530	0.130	-0.160	0.200
2020/01/31 14:18:24.4	0.520	0.090	-0.150	0.180
2020/01/31 14:18:24.5	0.520	0.050	-0.150	0.160
2020/01/31 14:18:24.6	0.520	0.010	-0.150	0.130
2020/01/31 14:18:24.7	0.530	-0.030	-0.160	0.110
2020/01/31 14:18:24.8	0.530	-0.060	-0.170	0.080
2020/01/31 14:18:24.9	0.540	-0.100	-0.180	0.040
2020/01/31 14:18:25.0	0.550	-0.130	-0.190	0.010
2020/01/31 14:18:25.1	0.560	-0.150	-0.210	-0.030
2020/01/31 14:18:25.2	0.580	-0.180	-0.230	-0.080
2020/01/31 14:18:25.3	0.600	-0.200	-0.250	-0.120
2020/01/31 14:18:25.4	0.620	-0.220	-0.280	-0.170
2020/01/31 14:18:25.5	0.650	-0.230	-0.310	-0.230
2020/01/31 14:18:25.6	0.680	-0.240	-0.330	-0.290
2020/01/31 14:18:25.7	0.710	-0.250	-0.360	-0.340
2020/01/31 14:18:25.8	0.740	-0.250	-0.390	-0.400
2020/01/31 14:18:25.9	0.780	-0.250	-0.420	-0.450
2020/01/31 14:18:26.0	0.810	-0.250	-0.450	-0.510
2020/01/31 14:18:26.1	0.850	-0.240	-0.480	-0.560
2020/01/31 14:18:26.2	0.880	-0.230	-0.500	-0.610
2020/01/31 14:18:26.3	0.910	-0.220	-0.520	-0.650
2020/01/31 14:18:26.4	0.950	-0.210	-0.540	-0.700
2020/01/31 14:18:26.5	0.980	-0.190	-0.550	-0.730
2020/01/31 14:18:26.6	1.010	-0.170	-0.560	-0.760
2020/01/31 14:18:26.7	1.040	-0.160	-0.570	-0.790
2020/01/31 14:18:26.8	1.060	-0.140	-0.570	-0.810
2020/01/31 14:18:26.9	1.080	-0.120	-0.560	-0.830
2020/01/31 14:18:27.0	1.090	-0.110	-0.550	-0.840
2020/01/31 14:18:27.1	1.100	-0.090	-0.530	-0.840
2020/01/31 14:18:27.2	1.110	-0.080	-0.500	-0.840
2020/01/31 14:18:27.3	1.100	-0.060	-0.470	-0.830
2020/01/31 14:18:27.4	1.100	-0.050	-0.440	-0.820
2020/01/31 14:18:27.5	1.090	-0.050	-0.400	-0.800
2020/01/31 14:18:27.6	1.070	-0.040	-0.350	-0.780
2020/01/31 14:18:27.7	1.050	-0.040	-0.300	-0.750
2020/01/31 14:18:27.8	1.030	-0.030	-0.250	-0.720
2020/01/31 14:18:27.9	1.000	-0.040	-0.200	-0.690
2020/01/31 14:18:28.0	0.970	-0.040	-0.140	-0.650
2020/01/31 14:18:28.1	0.940	-0.050	-0.080	-0.610
2020/01/31 14:18:28.2	0.900	-0.050	-0.020	-0.570
2020/01/31 14:18:28.3	0.870	-0.070	0.030	-0.530
2020/01/31 14:18:28.4	0.830	-0.080	0.090	-0.490
2020/01/31 14:18:28.5	0.790	-0.090	0.150	-0.440
2020/01/31 14:18:28.6	0.740	-0.110	0.200	-0.400
2020/01/31 14:18:28.7	0.700	-0.130	0.250	-0.350
2020/01/31 14:18:28.8	0.660	-0.150	0.300	-0.310
2020/01/31 14:18:28.9	0.620	-0.160	0.340	-0.270
2020/01/31 14:18:29.0	0.580	-0.180	0.380	-0.220
2020/01/31 14:18:29.1	0.550	-0.200	0.410	-0.190
2020/01/31 14:18:29.2	0.510	-0.220	0.440	-0.150
2020/01/31 14:18:29.3	0.480	-0.230	0.460	-0.120
2020/01/31 14:18:29.4	0.450	-0.250	0.470	-0.090
2020/01/31 14:18:29.5	0.430	-0.260	0.470	-0.060
2020/01/31 14:18:29.6	0.410	-0.270	0.460	-0.040
2020/01/31 14:18:29.7	0.390	-0.280	0.450	-0.010
2020/01/31 14:18:29.8	0.380	-0.280	0.430	0.000
2020/01/31 14:18:29.9	0.370	-0.280	0.400	0.020
2020/01/31 14:18:30.0	0.360	-0.280	0.370	0.030
2020/01/31 14:18:30.1	0.360	-0.280	0.320	0.030
2020/01/31 14:18:30.2	0.360	-0.270	0.280	0.040
2020/01/31 14:18:30.3	0.360	-0.260	0.220	0.030
2020/01/31 14:18:30.4	0.360	-0.250	0.160	0.030
2020/01/31 14:18:30.5	0.370	-0.240	0.100	0.030
2020/01/31 14:18:30.6	0.380	-0.220	0.040	0.020
2020/01/31 14:18:30.7	0.390	-0.200	-0.030	0.010
2020/01/31 14:18:30.8	0.400	-0.180	-0.090	-0.010
2020/01/31 14:18:30.9	0.410	-0.160	-0.160	-0.020
2020/01/31 14:18:31.0	0.420	-0.140	-0.230	-0.040
2020/01/31 14:18:31.1	0.430	-0.120	-0.290	-0.050
2020/01/31 14:18:31.2	0.440	-0.090	-0.360	-0.070
2020/01/31 14:18:31.3	0.450	-0.070	-0.420	-0.090
2020/01/31 14:18:31.4	0.460	-0.040	-0.480	-0.110
2020/01/31 14:18:31.5	0.470	-0.020	-0.530	-0.130
2020/01/31 14:18:31.6	0.490	0.000	-0.580	-0.150
2020/01/31 14:18:31.7	0.500	0.030	-0.620	-0.170
2020/01/31 14:18:31.8	0.510	0.050	-0.660	-0.180
2020/01/31 14:18:31.9	0.520	0.070	-0.700	-0.200
2020/01/31 14:18:32.0	0.530	0.090	-0.730	-0.210
2020/01/31 14:18:32.1	0.540	0.110	-0.750	-0.220
2020/01/31 14:18:32.2	0.550	0.120	-0.770	-0.230
2020/01/31 14:18:32.3	0.560	0.130	-0.780	-0.240
2020/01/31 14:18:32.4	0.570	0.150	-0.780	-0.250
2020/01/31 14:18:32.5	0.580	0.160	-0.780	-0.250
2020/01/31 14:18:32.6	0.570	0.160	-0.770	-0.250
2020/01/31 14:18:32.7	0.580	0.170	-0.760	-0.250
2020/01/31 14:18:32.8	0.580	0.170	-0.740	-0.250
2020/01/31 14:18:32.9	0.580	0.170	-0.710	-0.240
2020/01/31 14:18:33.0	0.580	0.170	-0.680	-0.240
2020/01/31 14:18:33.1	0.580	0.170	-0.640	-0.230
2020/01/31 14:18:33.2	0.570	0.160	-0.600	-0.220
2020/01/31 14:18:33.3	0.570	0.150	-0.550	-0.210
2020/01/31 14:18:33.4	0.560	0.150	-0.500	-0.200
2020/01/31 14:18:33.5	0.550	0.140	-0.450	-0.190
2020/01/31 14:18:33.6	0.520	0.120	-0.400	-0.180
2020/01/31 14:18:33.7	0.510	0.110	-0.350	-0.160
2020/01/31 14:18:33.8	0.500	0.100	-0.300	-0.150
2020/01/31 14:18:33.9	0.490	0.080	-0.240	-0.140
2020/01/31 14:18:34.0	0.470	0.070	-0.190	-0.120
2020/01/31 14:18:34.1	0.460	0.060	-0.140	-0.110
2020/01/31 14:18:34.2	0.440	0.040	-0.100	-0.090
2020/01/31 14:18:34.3	0.420	0.030	-0.050	-0.080
2020/01/31 14:18:34.4	0.410	0.020	-0.010	-0.060
2020/01/31 14:18:34.5	0.390	0.000	0.020	-0.050
2020/01/31 14:18:34.6	0.380	-0.010	0.050	-0.040
2020/01/31 14:18:34.7	0.360	-0.010	0.070	-0.020
2020/01/31 14:18:34.8	0.350	-0.020	0.090	-0.010
2020/01/31 14:18:34.9	0.340	-0.020	0.100	0.000
2020/01/31 14:18:35.0	0.320	-0.030	0.110	0.020
2020/01/31 14:18:35.1	0.310	-0.030	0.100	0.030
2020/01/31 14:18:35.2	0.310	-0.020	0.100	0.040
2020/01/31 14:18:35.3	0.300	-0.020	0.080	0.050
2020/01/31 14:18:35.4	0.290	-0.010	0.060	0.060
2020/01/31 14:18:35.5	0.290	-0.000	0.030	0.060
2020/01/31 14:18:35.6	0.300	0.010	-0.000	0.070
2020/01/31 14:18:35.7	0.300	0.020	-0.040	0.080
2020/01/31 14:18:35.8	0.300	0.040	-0.080	0.080
2020/01/31 14:18:35.9	0.300	0.050	-0.120	0.090
2020/01/31 14:18:36.0	0.300	0.070	-0.170	0.090
2020/01/31 14:18:36.1	0.300	0.090	-0.210	0.090
2020/01/31 14:18:36.2	0.300	0.110	-0.260	0.100
2020/01/31 14:18:36.3	0.300	0.130	-0.310	0.100
2020/01/31 14:18:36.4	0.300	0.150	-0.360	0.090
2020/01/31 14:18:36.5	0.300	0.170	-0.400	0.090
2020/01/31 14:18:36.6	0.310	0.190	-0.450	0.090
2020/01/31 14:18:36.7	0.310	0.200	-0.490	0.080
2020/01/31 14:18:36.8	0.310	0.220	-0.530	0.080
2020/01/31 14:18:36.9	0.310	0.240	-0.570	0.080
2020/01/31 14:18:37.0	0.320	0.260	-0.600	0.070
2020/01/31 14:18:37.1	0.320	0.270	-0.620	0.070
2020/01/31 14:18:37.2	0.320	0.290	-0.640	0.070
2020/01/31 14:18:37.3	0.320	0.300	-0.660	0.070
2020/01/31 14:18:37.4	0.330	0.310	-0.660	0.070
2020/01/31 14:18:37.5	0.330	0.320	-0.660	0.070
2020/01/31 14:18:37.6	0.320	0.320	-0.660	0.070
2020/01/31 14:18:37.7	0.320	0.330	-0.650	0.080
2020/01/31 14:18:37.8	0.320	0.330	-0.630	0.090
2020/01/31 14:18:37.9	0.310	0.330	-0.600	0.110
2020/01/31 14:18:38.0	0.310	0.320	-0.570	0.130
2020/01/31 14:18:38.1	0.300	0.320	-0.540	0.140
2020/01/31 14:18:38.2	0.300	0.310	-0.500	0.160
2020/01/31 14:18:38.3	0.290	0.300	-0.460	0.190
2020/01/31 14:18:38.4	0.290	0.290	-0.410	0.210
2020/01/31 14:18:38.5	0.280	0.280	-0.360	0.230
2020/01/31 14:18:38.6	0.250	0.260	-0.320	0.260
2020/01/31 14:18:38.7	0.250	0.250	-0.270	0.280
2020/01/31 14:18:38.8	0.240	0.230	-0.220	0.300
2020/01/31 14:18:38.9	0.230	0.210	-0.170	0.320
2020/01/31 14:18:39.0	0.220	0.190	-0.130	0.340
2020/01/31 14:18:39.1	0.220	0.160	-0.080	0.350
2020/01/31 14:18:39.2	0.210	0.140	-0.050	0.360
2020/01/31 14:18:39.3	0.210	0.120	-0.010	0.370
2020/01/31 14:18:39.4	0.210	0.090	0.020	0.380
2020/01/31 14:18:39.5	0.210	0.070	0.040	0.370
2020/01/31 14:18:39.6	0.210	0.050	0.060	0.360
2020/01/31 14:18:39.7	0.210	0.020	0.070	0.350
2020/01/31 14:18:39.8	0.220	-0.000	0.080	0.340
2020/01/31 14:18:39.9	0.230	-0.020	0.090	0.320
2020/01/31 14:18:40.0	0.240	-0.040	0.080	0.290
2020/01/31 14:18:40.1	0.250	-0.060	0.080	0.260
2020/01/31 14:18:40.2	0.270	-0.080	0.060	0.230
2020/01/31 14:18:40.3	0.280	-0.100	0.050	0.190
2020/01/31 14:18:40.4	0.300	-0.120	0.020	0.150
2020/01/31 14:18:40.5	0.320	-0.130	-0.000	0.110
2020/01/31 14:18:40.6	0.350	-0.140	-0.030	0.070
2020/01/31 14:18:40.7	0.370	-0.160	-0.060	0.030
2020/01/31 14:18:40.8	0.390	-0.160	-0.090	-0.020
2020/01/31 14:18:40.9	0.410	-0.170	-0.120	-0.060
2020/01/31 14:18:41.0	0.430	-0.180	-0.160	-0.100
2020/01/31 14:18:41.1	0.450	-0.190	-0.190	-0.140
2020/01/31 14:18:41.2	0.460	-0.190	-0.220	-0.180
2020/01/31 14:18:41.3	0.480	-0.190	-0.250	-0.210
2020/01/31 14:18:41.4	0.490	-0.200	-0.280	-0.250
2020/01/31 14:18:41.5	0.510	-0.200	-0.300	-0.280
2020/01/31 14:18:41.6	0.520	-0.200	-0.330	-0.310
2020/01/31 14:18:41.7	0.530	-0.200	-0.340	-0.330
2020/01/31 14:18:41.8	0.540	-0.200	-0.350	-0.350
2020/01/31 14:18:41.9	0.540	-0.200	-0.360	-0.370
2020/01/31 14:18:42.0	0.550	-0.200	-0.360	-0.380
2020/01/31 14:18:42.1	0.550	-0.200	-0.360	-0.400
2020/01/31 14:18:42.2	0.550	-0.210	-0.360	-0.400
2020/01/31 14:18:42.3	0.540	-0.210	-0.350	-0.410
2020/01/31 14:18:42.4	0.540	-0.210	-0.330	-0.410
2020/01/31 14:18:42.5	0.530	-0.210	-0.310	-0.410
2020/01/31 14:18:42.6	0.520	-0.210	-0.300	-0.410
2020/01/31 14:18:42.7	0.510	-0.220	-0.270	-0.410
2020/01/31 14:18:42.8	0.500	-0.220	-0.250	-0.400
2020/01/31 14:18:42.9	0.490	-0.220	-0.220	-0.400
2020/01/31 14:18:43.0	0.470	-0.230	-0.190	-0.390
2020/01/31 14:18:43.1	0.460	-0.230	-0.160	-0.380
2020/01/31 14:18:43.2	0.440	-0.240	-0.130	-0.370
2020/01/31 14:18:43.3	0.420	-0.250	-0.100	-0.360
2020/01/31 14:18:43.4	0.410	-0.250	-0.070	-0.350
2020/01/31 14:18:43.5	0.390	-0.260	-0.040	-0.340
2020/01/31 14:18:43.6	0.380	-0.260	-0.020	-0.330
2020/01/31 14:18:43.7	0.360	-0.270	0.010	-0.320
2020/01/31 14:18:43.8	0.350	-0.270	0.030	-0.310
2020/01/31 14:18:43.9	0.340	-0.280	0.050	-0.310
2020/01/31 14:18:44.0	0.320	-0.280	0.060	-0.300
2020/01/31 14:18:44.1	0.310	-0.290	0.070	-0.290
2020/01/31 14:18:44.2	0.300	-0.290	0.080	-0.290
2020/01/31 14:18:44.3	0.290	-0.290	0.080	-0.290
2020/01/31 14:18:44.4	0.280	-0.300	0.080	-0.280
2020/01/31 14:18:44.5	0.270	-0.300	0.080	-0.280
2020/01/31 14:18:44.6	0.250	-0.300	0.070	-0.280
2020/01/31 14:18:44.7	0.240	-0.300	0.060	-0.280
2020/01/31 14:18:44.8	0.230	-0.300	0.050	-0.280
2020/01/31 14:18:44.9	0.220	-0.300	0.030	-0.280
2020/01/31 14:18:45.0	0.210	-0.290	0.020	-0.290
2020/01/31 14:18:45.1	0.200	-0.290	-0.010	-0.290
2020/01/31 14:18:45.2	0.200	-0.290	-0.030	-0.300
2020/01/31 14:18:45.3	0.190	-0.280	-0.060	-0.310
2020/01/31 14:18:45.4	0.180	-0.280	-0.090	-0.320
2020/01/31 14:18:45.5	0.170	-0.270	-0.120	-0.330
2020/01/31 14:18:45.6	0.170	-0.260	-0.150	-0.350
2020/01/31 14:18:45.7	0.160	-0.250	-0.180	-0.370
2020/01/31 14:18:45.8	0.160	-0.240	-0.220	-0.390
2020/01/31 14:18:45.9	0.150	-0.230	-0.250	-0.410
2020/01/31 14:18:46.0	0.150	-0.220	-0.290	-0.430
2020/01/31 14:18:46.1	0.150	-0.210	-0.320	-0.450
2020/01/31 14:18:46.2	0.150	-0.190	-0.350	-0.480
2020/01/31 14:18:46.3	0.150	-0.180	-0.380	-0.490
2020/01/31 14:18:46.4	0.160	-0.160	-0.410	-0.510
2020/01/31 14:18:46.5	0.160	-0.140	-0.430	-0.530
2020/01/31 14:18:46.6	0.150	-0.120	-0.450	-0.540
2020/01/31 14:18:46.7	0.160	-0.110	-0.470	-0.550
2020/01/31 14:18:46.8	0.160	-0.080	-0.490	-0.560
2020/01/31 14:18:46.9	0.160	-0.060	-0.500	-0.560
2020/01/31 14:18:47.0	0.170	-0.040	-0.510	-0.550
2020/01/31 14:18:47.1	0.170	-0.020	-0.520	-0.540
2020/01/31 14:18:47.2	0.170	0.000	-0.520	-0.530
2020/01/31 14:18:47.3	0.180	0.030	-0.520	-0.510
2020/01/31 14:18:47.4	0.180	0.050	-0.510	-0.490
2020/01/31 14:18:47.5	0.180	0.070	-0.510	-0.470
2020/01/31 14:18:47.6	0.190	0.100	-0.500	-0.440
2020/01/31 14:18:47.7	0.190	0.120	-0.490	-0.410
2020/01/31 14:18:47.8	0.190	0.150	-0.470	-0.380
2020/01/31 14:18:47.9	0.190	0.170	-0.460	-0.340
2020/01/31 14:18:48.0	0.190	0.190	-0.440	-0.300
2020/01/31 14:18:48.1	0.190	0.210	-0.420	-0.260
2020/01/31 14:18:48.2	0.190	0.230	-0.400	-0.210
2020/01/31 14:18:48.3	0.190	0.250	-0.380	-0.170
2020/01/31 14:18:48.4	0.190	0.270	-0.360	-0.120
2020/01/31 14:18:48.5	0.190	0.290	-0.340	-0.070
2020/01/31 14:18:48.6	0.180	0.300	-0.320	-0.020
2020/01/31 14:18:48.7	0.180	0.320	-0.290	0.030
2020/01/31 14:18:48.8	0.170	0.330	-0.270	0.080
2020/01/31 14:18:48.9	0.170	0.350	-0.250	0.140
2020/01/31 14:18:49.0	0.170	0.360	-0.230	0.190
2020/01/31 14:18:49.1	0.160	0.370	-0.220	0.240
2020/01/31 14:18:49.2	0.160	0.380	-0.200	0.300
2020/01/31 14:18:49.3	0.150	0.380	-0.190	0.350
2020/01/31 14:18:49.4	0.150	0.390	-0.180	0.400
2020/01/31 14:18:49.5	0.150	0.400	-0.170	0.450
2020/01/31 14:18:49.6	0.140	0.400	-0.170	0.500
2020/01/31 14:18:49.7	0.140	0.410	-0.170	0.550
2020/01/31 14:18:49.8	0.140	0.410	-0.170	0.590
2020/01/31 14:18:49.9	0.140	0.410	-0.180	0.640
2020/01/31 14:18:50.0	0.140	0.410	-0.190	0.670
2020/01/31 14:18:50.1	0.150	0.420	-0.200	0.700
2020/01/31 14:18:50.2	0.150	0.420	-0.220	0.730
2020/01/31 14:18:50.3	0.160	0.420	-0.240	0.760
2020/01/31 14:18:50.4	0.170	0.420	-0.260	0.780
2020/01/31 14:18:50.5	0.180	0.420	-0.290	0.790
2020/01/31 14:18:50.6	0.210	0.420	-0.310	0.790
2020/01/31 14:18:50.7	0.220	0.420	-0.340	0.800
2020/01/31 14:18:50.8	0.240	0.420	-0.380	0.790
2020/01/31 14:18:50.9	0.260	0.420	-0.410	0.790
2020/01/31 14:18:51.0	0.280	0.410	-0.440	0.780
2020/01/31 14:18:51.1	0.300	0.410	-0.480	0.760
2020/01/31 14:18:51.2	0.320	0.410	-0.510	0.740
2020/01/31 14:18:51.3	0.350	0.410	-0.550	0.710
2020/01/31 14:18:51.4	0.370	0.400	-0.580	0.680
2020/01/31 14:18:51.5	0.390	0.400	-0.610	0.650
2020/01/31 14:18:51.6	0.410	0.390	-0.640	0.610
2020/01/31 14:18:51.7	0.430	0.380	-0.660	0.580
2020/01/31 14:18:51.8	0.450	0.370	-0.690	0.540
2020/01/31 14:18:51.9	0.470	0.360	-0.700	0.500
2020/01/31 14:18:52.0	0.480	0.340	-0.720	0.460
2020/01/31 14:18:52.1	0.500	0.330	-0.720	0.420
2020/01/31 14:18:52.2	0.510	0.310	-0.730	0.380
2020/01/31 14:18:52.3	0.510	0.290	-0.720	0.330
2020/01/31 14:18:52.4	0.520	0.260	-0.720	0.290
2020/01/31 14:18:52.5	0.530	0.240	-0.700	0.250
2020/01/31 14:18:52.6	0.520	0.210	-0.690	0.210
2020/01/31 14:18:52.7	0.520	0.180	-0.660	0.180
2020/01/31 14:18:52.8	0.520	0.150	-0.640	0.140
2020/01/31 14:18:52.9	0.520	0.110	-0.600	0.100
2020/01/31 14:18:53.0	0.510	0.080	-0.570	0.070
2020/01/31 14:18:53.1	0.510	0.040	-0.530	0.030
2020/01/31 14:18:53.2	0.500	-0.000	-0.490	0.000
2020/01/31 14:18:53.3	0.500	-0.040	-0.440	-0.030
2020/01/31 14:18:53.4	0.490	-0.080	-0.390	-0.060
2020/01/31 14:18:53.5	0.480	-0.130	-0.340	-0.090
2020/01/31 14:18:53.6	0.480	-0.170	-0.300	-0.120
2020/01/31 14:18:53.7	0.470	-0.210	-0.250	-0.150
2020/01/31 14:18:53.8	0.470	-0.250	-0.200	-0.180
2020/01/31 14:18:53.9	0.460	-0.300	-0.150	-0.210
2020/01/31 14:18:54.0	0.450	-0.340	-0.100	-0.240
2020/01/31 14:18:54.1	0.450	-0.380	-0.050	-0.270
2020/01/31 14:18:54.2	0.440	-0.420	-0.000	-0.300
2020/01/31 14:18:54.3	0.440	-0.450	0.040	-0.330
2020/01/31 14:18:54.4	0.430	-0.480	0.080	-0.370
2020/01/31 14:18:54.5	0.430	-0.510	0.110	-0.400
2020/01/31 14:18:54.6	0.420	-0.540	0.150	-0.440
2020/01/31 14:18:54.7	0.430	-0.560	0.180	-0.470
2020/01/31 14:18:54.8	0.430	-0.580	0.200	-0.510
2020/01/31 14:18:54.9	0.430	-0.600	0.230	-0.540
2020/01/31 14:18:55.0	0.430	-0.610	0.250	-0.580
2020/01/31 14:18:55.1	0.440	-0.620	0.270	-0.610
2020/01/31 14:18:55.2	0.450	-0.620	0.290	-0.650
2020/01/31 14:18:55.3	0.450	-0.620	0.300	-0.680
2020/01/31 14:18:55.4	0.460	-0.620	0.310	-0.710
2020/01/31 14:18:55.5	0.470	-0.610	0.320	-0.740
2020/01/31 14:18:55.6	0.490	-0.600	0.330	-0.760
2020/01/31 14:18:55.7	0.490	-0.580	0.340	-0.780
2020/01/31 14:18:55.8	0.500	-0.560	0.350	-0.800
2020/01/31 14:18:55.9	0.500	-0.540	0.350	-0.810
2020/01/31 14:18:56.0	0.500	-0.520	0.360	-0.810
2020/01/31 14:18:56.1	0.500	-0.490	0.360	-0.810
2020/01/31 14:18:56.2	0.500	-0.470	0.370	-0.810
2020/01/31 14:18:56.3	0.500	-0.440	0.370	-0.800
2020/01/31 14:18:56.4	0.500	-0.410	0.370	-0.790
2020/01/31 14:18:56.5	0.490	-0.380	0.380	-0.780
2020/01/31 14:18:56.6	0.480	-0.350	0.380	-0.750
2020/01/31 14:18:56.7	0.470	-0.320	0.380	-0.730
2020/01/31 14:18:56.8	0.460	-0.290	0.380	-0.710
2020/01/31 14:18:56.9	0.450	-0.260	0.380	-0.680
2020/01/31 14:18:57.0	0.440	-0.230	0.370	-0.640
2020/01/31 14:18:57.1	0.420	-0.200	0.370	-0.610
2020/01/31 14:18:57.2	0.410	-0.170	0.360	-0.570
2020/01/31 14:18:57.3	0.390	-0.150	0.350	-0.530
2020/01/31 14:18:57.4	0.370	-0.120	0.340	-0.490
2020/01/31 14:18:57.5	0.350	-0.100	0.330	-0.440
2020/01/31 14:18:57.6	0.340	-0.080	0.310	-0.400
2020/01/31 14:18:57.7	0.320	-0.060	0.300	-0.350
2020/01/31 14:18:57.8	0.290	-0.040	0.280	-0.300
2020/01/31 14:18:57.9	0.270	-0.030	0.260	-0.260
2020/01/31 14:18:58.0	0.240	-0.010	0.230	-0.210
2020/01/31 14:18:58.1	0.210	-0.000	0.210	-0.160
2020/01/31 14:18:58.2	0.180	0.010	0.180	-0.110
2020/01/31 14:18:58.3	0.140	0.010	0.150	-0.070
2020/01/31 14:18:58.4	0.110	0.020	0.120	-0.020
2020/01/31 14:18:58.5	0.070	0.020	0.080	0.030
2020/01/31 14:18:58.6	0.030	0.030	0.050	0.070
2020/01/31 14:18:58.7	359.990	0.030	0.010	0.110
2020/01/31 14:18:58.8	359.950	0.030	-0.030	0.150
2020/01/31 14:18:58.9	359.920	0.030	-0.070	0.190
2020/01/31 14:18:59.0	359.880	0.030	-0.110	0.230
2020/01/31 14:18:59.1	359.840	0.030	-0.150	0.260
2020/01/31 14:18:59.2	359.810	0.030	-0.190	0.300
2020/01/31 14:18:59.3	359.780	0.030	-0.240	0.330
2020/01/31 14:18:59.4	359.750	0.030	-0.280	0.360
2020/01/31 14:18:59.5	359.720	0.030	-0.330	0.390
2020/01/31 14:18:59.6	359.690	0.040	-0.370	0.410
2020/01/31 14:18:59.7	359.670	0.040	-0.420	0.430
2020/01/31 14:18:59.8	359.650	0.040	-0.480	0.450
2020/01/31 14:18:59.9	359.630	0.050	-0.530	0.460
2020/01/31 14:19:00.0	359.620	0.060	-0.580	0.480
2020/01/31 14:19:00.1	359.610	0.060	-0.640	0.490
2020/01/31 14:19:00.2	359.600	0.070	-0.700	0.490
2020/01/31 14:19:00.3	359.590	0.090	-0.750	0.490
2020/01/31 14:19:00.4	359.590	0.100	-0.810	0.490
2020/01/31 14:19:00.5	359.590	0.110	-0.870	0.490
2020/01/31 14:19:00.6	359.580	0.130	-0.930	0.470
2020/01/31 14:19:00.7	359.580	0.140	-0.980	0.460
2020/01/31 14:19:00.8	359.590	0.160	-1.040	0.440
2020/01/31 14:19:00.9	359.600	0.180	-1.090	0.420
2020/01/31 14:19:01.0	359.620	0.200	-1.150	0.390
2020/01/31 14:19:01.1	359.630	0.220	-1.200	0.360
2020/01/31 14:19:01.2	359.650	0.240	-1.250	0.330
2020/01/31 14:19:01.3	359.680	0.270	-1.290	0.290
2020/01/31 14:19:01.4	359.700	0.290	-1.330	0.250
2020/01/31 14:19:01.5	359.730	0.310	-1.370	0.210
2020/01/31 14:19:01.6	359.770	0.330	-1.400	0.170
2020/01/31 14:19:01.7	359.810	0.350	-1.430	0.120
2020/01/31 14:19:01.8	359.840	0.370	-1.450	0.070
2020/01/31 14:19:01.9	359.880	0.390	-1.460	0.020
2020/01/31 14:19:02.0	359.930	0.410	-1.470	-0.030
2020/01/31 14:19:02.1	359.970	0.430	-1.480	-0.090
2020/01/31 14:19:02.2	0.010	0.450	-1.470	-0.140
2020/01/31 14:19:02.3	0.060	0.460	-1.460	-0.190
2020/01/31 14:19:02.4	0.110	0.470	-1.440	-0.240
2020/01/31 14:19:02.5	0.150	0.480	-1.420	-0.300
2020/01/31 14:19:02.6	0.190	0.490	-1.390	-0.340
2020/01/31 14:19:02.7	0.230	0.490	-1.350	-0.390
2020/01/31 14:19:02.8	0.280	0.490	-1.300	-0.430
2020/01/31 14:19:02.9	0.320	0.480	-1.250	-0.470
2020/01/31 14:19:03.0	0.360	0.480	-1.190	-0.500
2020/01/31 14:19:03.1	0.400	0.460	-1.130	-0.540
2020/01/31 14:19:03.2	0.430	0.450	-1.060	-0.570
2020/01/31 14:19:03.3	0.470	0.430	-0.980	-0.590
2020/01/31 14:19:03.4	0.500	0.400	-0.900	-0.610
2020/01/31 14:19:03.5	0.530	0.380	-0.810	-0.630
2020/01/31 14:19:03.6	0.550	0.350	-0.730	-0.650
2020/01/31 14:19:03.7	0.580	0.310	-0.630	-0.660
2020/01/31 14:19:03.8	0.600	0.270	-0.540	-0.670
2020/01/31 14:19:03.9	0.620	0.230	-0.440	-0.680
2020/01/31 14:19:04.0	0.630	0.190	-0.340	-0.680
2020/01/31 14:19:04.1	0.640	0.140	-0.240	-0.690
2020/01/31 14:19:04.2	0.650	0.090	-0.130	-0.690
2020/01/31 14:19:04.3	0.650	0.040	-0.030	-0.690
2020/01/31 14:19:04.4	0.660	-0.010	0.070	-0.680
2020/01/31 14:19:04.5	0.650	-0.070	0.170	-0.670
2020/01/31 14:19:04.6	0.660	-0.120	0.270	-0.660
2020/01/31 14:19:04.7	0.650	-0.170	0.360	-0.650
2020/01/31 14:19:04.8	0.630	-0.230	0.460	-0.640
2020/01/31 14:19:04.9	0.620	-0.280	0.550	-0.620
2020/01/31 14:19:05.0	0.590	-0.340	0.640	-0.600
2020/01/31 14:19:05.1	0.570	-0.390	0.730	-0.570
2020/01/31 14:19:05.2	0.540	-0.440	0.810	-0.550
2020/01/31 14:19:05.3	0.510	-0.490	0.890	-0.520
2020/01/31 14:19:05.4	0.470	-0.530	0.960	-0.480
2020/01/31 14:19:05.5	0.430	-0.570	1.030	-0.450
2020/01/31 14:19:05.6	0.410	-0.610	1.090	-0.420
2020/01/31 14:19:05.7	0.370	-0.650	1.140	-0.380
2020/01/31 14:19:05.8	0.320	-0.680	1.190	-0.340
2020/01/31 14:19:05.9	0.270	-0.710	1.230	-0.290
2020/01/31 14:19:06.0	0.220	-0.730	1.270	-0.250
2020/01/31 14:19:06.1	0.170	-0.750	1.300	-0.200
2020/01/31 14:19:06.2	0.120	-0.760	1.320	-0.160
2020/01/31 14:19:06.3	0.070	-0.770	1.330	-0.120
2020/01/31 14:19:06.4	0.020	-0.770	1.330	-0.070
2020/01/31 14:19:06.5	359.970	-0.770	1.330	-0.030
2020/01/31 14:19:06.6	359.920	-0.770	1.310	0.020
2020/01/31 14:19:06.7	359.870	-0.760	1.290	0.060
2020/01/31 14:19:06.8	359.820	-0.740	1.260	0.100
2020/01/31 14:19:06.9	359.780	-0.720	1.220	0.140
2020/01/31 14:19:07.0	359.730	-0.700	1.170	0.180
2020/01/31 14:19:07.1	359.690	-0.670	1.110	0.210
2020/01/31 14:19:07.2	359.640	-0.640	1.050	0.250
2020/01/31 14:19:07.3	359.600	-0.600	0.980	0.280
2020/01/31 14:19:07.4	359.570	-0.560	0.900	0.300
2020/01/31 14:19:07.5	359.530	-0.520	0.820	0.330
2020/01/31 14:19:07.6	359.500	-0.470	0.720	0.350
2020/01/31 14:19:07.7	359.470	-0.420	0.630	0.370
2020/01/31 14:19:07.8	359.440	-0.370	0.520	0.380
2020/01/31 14:19:07.9	359.420	-0.320	0.420	0.390
2020/01/31 14:19:08.0	359.400	-0.270	0.310	0.400
2020/01/31 14:19:08.1	359.380	-0.210	0.200	0.400
2020/01/31 14:19:08.2	359.370	-0.150	0.080	0.400
2020/01/31 14:19:08.3	359.360	-0.100	-0.040	0.400
2020/01/31 14:19:08.4	359.350	-0.040	-0.150	0.390
2020/01/31 14:19:08.5	359.350	0.020	-0.270	0.390
2020/01/31 14:19:08.6	359.340	0.080	-0.390	0.370
2020/01/31 14:19:08.7	359.350	0.130	-0.500	0.360
2020/01/31 14:19:08.8	359.350	0.190	-0.610	0.350
2020/01/31 14:19:08.9	359.360	0.240	-0.720	0.330
2020/01/31 14:19:09.0	359.370	0.300	-0.830	0.320
2020/01/31 14:19:09.1	359.380	0.350	-0.930	0.300
2020/01/31 14:19:09.2	359.390	0.400	-1.020	0.290
2020/01/31 14:19:09.3	359.400	0.440	-1.110	0.270
2020/01/31 14:19:09.4	359.420	0.490	-1.190	0.260
2020/01/31 14:19:09.5	359.430	0.530	-1.260	0.250
2020/01/31 14:19:09.6	359.440	0.560	-1.330	0.240
2020/01/31 14:19:09.7	359.460	0.590	-1.380	0.230
2020/01/31 14:19:09.8	359.480	0.620	-1.430	0.220
2020/01/31 14:19:09.9	359.490	0.650	-1.460	0.220
2020/01/31 14:19:10.0	359.510	0.670	-1.490	0.220
2020/01/31 14:19:10.1	359.530	0.680	-1.510	0.220
2020/01/31 14:19:10.2	359.540	0.690	-1.520	0.220
2020/01/31 14:19:10.3	359.560	0.700	-1.530	0.220
2020/01/31 14:19:10.4	359.570	0.700	-1.520	0.220
2020/01/31 14:19:10.5	359.590	0.700	-1.510	0.220
2020/01/31 14:19:10.6	359.590	0.690	-1.490	0.220
2020/01/31 14:19:10.7	359.610	0.680	-1.460	0.220
2020/01/31 14:19:10.8	359.620	0.670	-1.430	0.220
2020/01/31 14:19:10.9	359.630	0.650	-1.390	0.220
2020/01/31 14:19:11.0	359.640	0.620	-1.340	0.210
2020/01/31 14:19:11.1	359.650	0.600	-1.290	0.210
2020/01/31 14:19:11.2	359.650	0.570	-1.240	0.200
2020/01/31 14:19:11.3	359.660	0.530	-1.180	0.190
2020/01/31 14:19:11.4	359.670	0.490	-1.120	0.180
2020/01/31 14:19:11.5	359.670	0.460	-1.050	0.170
2020/01/31 14:19:11.6	359.680	0.410	-0.990	0.150
2020/01/31 14:19:11.7	359.680	0.370	-0.920	0.130
2020/01/31 14:19:11.8	359.690	0.320	-0.850	0.110
2020/01/31 14:19:11.9	359.690	0.280	-0.780	0.090
2020/01/31 14:19:12.0	359.690	0.230	-0.710	0.070
2020/01/31 14:19:12.1	359.690	0.180	-0.640	0.040
2020/01/31 14:19:12.2	359.690	0.130	-0.570	0.020
2020/01/31 14:19:12.3	359.690	0.080	-0.500	-0.010
2020/01/31 14:19:12.4	359.690	0.030	-0.440	-0.040
2020/01/31 14:19:12.5	359.690	-0.020	-0.380	-0.070
2020/01/31 14:19:12.6	359.690	-0.060	-0.320	-0.100
2020/01/31 14:19:12.7	359.690	-0.110	-0.260	-0.130
2020/01/31 14:19:12.8	359.690	-0.150	-0.210	-0.160
2020/01/31 14:19:12.9	359.690	-0.190	-0.150	-0.180
2020/01/31 14:19:13.0	359.700	-0.230	-0.110	-0.210
2020/01/31 14:19:13.1	359.700	-0.270	-0.060	-0.240
2020/01/31 14:19:13.2	359.700	-0.300	-0.020	-0.260
2020/01/31 14:19:13.3	359.710	-0.330	0.020	-0.290
2020/01/31 14:19:13.4	359.710	-0.360	0.060	-0.310
2020/01/31 14:19:13.5	359.720	-0.380	0.100	-0.340
2020/01/31 14:19:13.6	359.730	-0.400	0.130	-0.370
2020/01/31 14:19:13.7	359.740	-0.420	0.150	-0.390
2020/01/31 14:19:13.8	359.750	-0.440	0.180	-0.410
2020/01/31 14:19:13.9	359.760	-0.450	0.200	-0.440
2020/01/31 14:19:14.0	359.770	-0.450	0.220	-0.460
2020/01/31 14:19:14.1	359.780	-0.460	0.240	-0.490
2020/01/31 14:19:14.2	359.790	-0.460	0.260	-0.510
2020/01/31 14:19:14.3	359.810	-0.450	0.270	-0.540
2020/01/31 14:19:14.4	359.820	-0.450	0.280	-0.560
2020/01/31 14:19:14.5	359.840	-0.440	0.280	-0.580
2020/01/31 14:19:14.6	359.870	-0.430	0.290	-0.600
2020/01/31 14:19:14.7	359.880	-0.420	0.290	-0.620
2020/01/31 14:19:14.8	359.890	-0.400	0.300	-0.640
2020/01/31 14:19:14.9	359.900	-0.380	0.300	-0.650
2020/01/31 14:19:15.0	359.910	-0.360	0.300	-0.660
2020/01/31 14:19:15.1	359.910	-0.340	0.290	-0.660
2020/01/31 14:19:15.2	359.920	-0.320	0.290	-0.660
2020/01/31 14:19:15.3	359.920	-0.300	0.290	-0.660
2020/01/31 14:19:15.4	359.920	-0.270	0.290	-0.660
2020/01/31 14:19:15.5	359.910	-0.250	0.280	-0.650
2020/01/31 14:19:15.6	359.900	-0.230	0.270	-0.630
2020/01/31 14:19:15.7	359.890	-0.200	0.270	-0.620
2020/01/31 14:19:15.8	359.880	-0.180	0.260	-0.600
2020/01/31 14:19:15.9	359.870	-0.150	0.250	-0.580
2020/01/31 14:19:16.0	359.870	-0.130	0.240	-0.550
2020/01/31 14:19:16.1	359.850	-0.110	0.230	-0.530
2020/01/31 14:19:16.2	359.840	-0.090	0.220	-0.500
2020/01/31 14:19:16.3	359.830	-0.070	0.200	-0.480
2020/01/31 14:19:16.4	359.820	-0.050	0.190	-0.450
2020/01/31 14:19:16.5	359.810	-0.030	0.170	-0.420
2020/01/31 14:19:16.6	359.800	-0.020	0.150	-0.390
2020/01/31 14:19:16.7	359.780	-0.000	0.120	-0.370
2020/01/31 14:19:16.8	359.770	0.010	0.100	-0.350
2020/01/31 14:19:16.9	359.760	0.020	0.080	-0.330
2020/01/31 14:19:17.0	359.740	0.030	0.050	-0.300
2020/01/31 14:19:17.1	359.730	0.040	0.030	-0.290
2020/01/31 14:19:17.2	359.710	0.050	0.000	-0.270
2020/01/31 14:19:17.3	359.700	0.060	-0.030	-0.260
2020/01/31 14:19:17.4	359.680	0.060	-0.060	-0.240
2020/01/31 14:19:17.5	359.670	0.060	-0.080	-0.230
2020/01/31 14:19:17.6	359.640	0.070	-0.110	-0.230
2020/01/31 14:19:17.7	359.620	0.070	-0.140	-0.210
2020/01/31 14:19:17.8	359.610	0.070	-0.160	-0.200
2020/01/31 14:19:17.9	359.590	0.070	-0.190	-0.190
2020/01/31 14:19:18.0	359.570	0.070	-0.210	-0.170
2020/01/31 14:19:18.1	359.550	0.060	-0.230	-0.160
2020/01/31 14:19:18.2	359.520	0.060	-0.250	-0.140
2020/01/31 14:19:18.3	359.500	0.060	-0.260	-0.130
2020/01/31 14:19:18.4	359.480	0.050	-0.280	-0.110
2020/01/31 14:19:18.5	359.450	0.050	-0.290	-0.090
2020/01/31 14:19:18.6	359.420	0.040	-0.310	-0.070
2020/01/31 14:19:18.7	359.400	0.040	-0.320	-0.050
2020/01/31 14:19:18.8	359.380	0.030	-0.320	-0.030
2020/01/31 14:19:18.9	359.350	0.030	-0.330	-0.010
2020/01/31 14:19:19.0	359.330	0.020	-0.330	0.010
2020/01/31 14:19:19.1	359.310	0.020	-0.340	0.030
2020/01/31 14:19:19.2	359.290	0.010	-0.340	0.050
2020/01/31 14:19:19.3	359.270	0.010	-0.340	0.070
2020/01/31 14:19:19.4	359.260	0.010	-0.340	0.090
2020/01/31 14:19:19.5	359.240	0.010	-0.340	0.110
2020/01/31 14:19:19.6	359.220	0.010	-0.340	0.130
2020/01/31 14:19:19.7	359.210	0.010	-0.350	0.140
2020/01/31 14:19:19.8	359.210	0.010	-0.350	0.160
2020/01/31 14:19:19.9	359.200	0.010	-0.350	0.170
2020/01/31 14:19:20.0	359.200	0.020	-0.360	0.190
2020/01/31 14:19:20.1	359.200	0.020	-0.370	0.200
2020/01/31 14:19:20.2	359.200	0.030	-0.380	0.210
2020/01/31 14:19:20.3	359.210	0.040	-0.390	0.210
2020/01/31 14:19:20.4	359.220	0.050	-0.400	0.220
2020/01/31 14:19:20.5	359.230	0.060	-0.420	0.220
2020/01/31 14:19:20.6	359.250	0.070	-0.440	0.220
2020/01/31 14:19:20.7	359.270	0.080	-0.460	0.220
2020/01/31 14:19:20.8	359.300	0.100	-0.490	0.210
2020/01/31 14:19:20.9	359.320	0.110	-0.510	0.200
2020/01/31 14:19:21.0	359.350	0.120	-0.540	0.180
2020/01/31 14:19:21.1	359.380	0.140	-0.570	0.170
2020/01/31 14:19:21.2	359.420	0.150	-0.590	0.150
2020/01/31 14:19:21.3	359.450	0.170	-0.620	0.120
2020/01/31 14:19:21.4	359.490	0.180	-0.650	0.100
2020/01/31 14:19:21.5	359.530	0.190	-0.680	0.070
2020/01/31 14:19:21.6	359.580	0.200	-0.700	0.040
2020/01/31 14:19:21.7	359.630	0.210	-0.730	0.010
2020/01/31 14:19:21.8	359.670	0.210	-0.740	-0.030
2020/01/31 14:19:21.9	359.700	0.220	-0.760	-0.060
2020/01/31 14:19:22.0	359.740	0.220	-0.770	-0.090
2020/01/31 14:19:22.1	359.770	0.220	-0.780	-0.120
2020/01/31 14:19:22.2	359.800	0.210	-0.780	-0.150
2020/01/31 14:19:22.3	359.830	0.210	-0.770	-0.180
2020/01/31 14:19:22.4	359.860	0.200	-0.760	-0.210
2020/01/31 14:19:22.5	359.880	0.190	-0.750	-0.230
2020/01/31 14:19:22.6	359.890	0.170	-0.730	-0.260
2020/01/31 14:19:22.7	359.900	0.150	-0.700	-0.280
2020/01/31 14:19:22.8	359.910	0.130	-0.670	-0.290
2020/01/31 14:19:22.9	359.920	0.110	-0.630	-0.310
2020/01/31 14:19:23.0	359.920	0.080	-0.580	-0.320
2020/01/31 14:19:23.1	359.920	0.060	-0.530	-0.320
2020/01/31 14:19:23.2	359.910	0.030	-0.480	-0.330
2020/01/31 14:19:23.3	359.900	-0.010	-0.420	-0.330
2020/01/31 14:19:23.4	359.890	-0.040	-0.350	-0.330
2020/01/31 14:19:23.5	359.870	-0.070	-0.290	-0.320
2020/01/31 14:19:23.6	359.870	-0.110	-0.220	-0.310
2020/01/31 14:19:23.7	359.850	-0.140	-0.150	-0.300
2020/01/31 14:19:23.8	359.820	-0.170	-0.080	-0.280
2020/01/31 14:19:23.9	359.800	-0.210	-0.010	-0.260
2020/01/31 14:19:24.0	359.770	-0.240	0.060	-0.240
2020/01/31 14:19:24.1	359.740	-0.270	0.130	-0.210
2020/01/31 14:19:24.2	359.710	-0.300	0.200	-0.180
2020/01/31 14:19:24.3	359.680	-0.330	0.260	-0.160
2020/01/31 14:19:24.4	359.650	-0.350	0.320	-0.130
2020/01/31 14:19:24.5	359.620	-0.370	0.370	-0.100
2020/01/31 14:19:24.6	359.570	-0.390	0.410	-0.070
2020/01/31 14:19:24.7	359.540	-0.410	0.460	-0.040
2020/01/31 14:19:24.8	359.510	-0.420	0.490	-0.010
2020/01/31 14:19:24.9	359.480	-0.420	0.520	0.010
2020/01/31 14:19:25.0	359.450	-0.430	0.540	0.040
2020/01/31 14:19:25.1	359.420	-0.420	0.550	0.060
2020/01/31 14:19:25.2	359.390	-0.420	0.550	0.080
2020/01/31 14:19:25.3	359.370	-0.410	0.550	0.100
2020/01/31 14:19:25.4	359.340	-0.390	0.540	0.120
2020/01/31 14:19:25.5	359.320	-0.370	0.520	0.140
2020/01/31 14:19:25.6	359.290	-0.350	0.490	0.150
2020/01/31 14:19:25.7	359.270	-0.320	0.460	0.160
2020/01/31 14:19:25.8	359.260	-0.290	0.420	0.160
2020/01/31 14:19:25.9	359.240	-0.260	0.380	0.170
2020/01/31 14:19:26.0	359.230	-0.220	0.320	0.170
2020/01/31 14:19:26.1	359.220	-0.180	0.270	0.170
2020/01/31 14:19:26.2	359.210	-0.140	0.200	0.160
2020/01/31 14:19:26.3	359.210	-0.100	0.140	0.160
2020/01/31 14:19:26.4	359.200	-0.050	0.070	0.150
2020/01/31 14:19:26.5	359.200	-0.000	0.000	0.140
2020/01/31 14:19:26.6	359.190	0.050	-0.070	0.130
2020/01/31 14:19:26.7	359.190	0.100	-0.140	0.120
2020/01/31 14:19:26.8	359.200	0.150	-0.220	0.100
2020/01/31 14:19:26.9	359.200	0.200	-0.290	0.090
2020/01/31 14:19:27.0	359.210	0.250	-0.360	0.080
2020/01/31 14:19:27.1	359.210	0.290	-0.430	0.070
2020/01/31 14:19:27.2	359.220	0.340	-0.490	0.070
2020/01/31 14:19:27.3	359.220	0.380	-0.550	0.060
2020/01/31 14:19:27.4	359.230	0.420	-0.610	0.050
2020/01/31 14:19:27.5	359.230	0.460	-0.660	0.050
2020/01/31 14:19:27.6	359.230	0.500	-0.700	0.040
2020/01/31 14:19:27.7	359.230	0.530	-0.740	0.040
2020/01/31 14:19:27.8	359.240	0.550	-0.780	0.040
2020/01/31 14:19:27.9				
2020/01/31 14:19:28.0	359.240	0.580	-0.810	0.030
2020/01/31 14:19:28.1	359.250	0.610	-0.850	0.030
2020/01/31 14:19:28.2	359.250	0.610	-0.860	0.020
2020/01/31 14:19:28.3	359.260	0.610	-0.860	0.020
2020/01/31 14:19:28.4	359.260	0.610	-0.860	0.020
2020/01/31 14:19:28.5	359.260	0.600	-0.860	0.010
2020/01/31 14:19:28.6	359.250	0.590	-0.850	0.000
2020/01/31 14:19:28.7	359.260	0.570	-0.840	-0.010
2020/01/31 14:19:28.8	359.260	0.550	-0.820	-0.020
2020/01/31 14:19:28.9	359.260	0.530	-0.790	-0.030
2020/01/31 14:19:29.0	359.270	0.500	-0.770	-0.040
2020/01/31 14:19:29.1	359.270	0.460	-0.740	-0.050
2020/01/31 14:19:29.2	359.270	0.430	-0.710	-0.060
2020/01/31 14:19:29.3	359.270	0.380	-0.670	-0.070
2020/01/31 14:19:29.4	359.270	0.340	-0.630	-0.090
2020/01/31 14:19:29.5	359.280	0.300	-0.590	-0.100
2020/01/31 14:19:29.6	359.290	0.250	-0.550	-0.120
2020/01/31 14:19:29.7	359.290	0.200	-0.510	-0.130
2020/01/31 14:19:29.8	359.290	0.150	-0.470	-0.150
2020/01/31 14:19:29.9	359.290	0.100	-0.420	-0.160
2020/01/31 14:19:30.0	359.290	0.050	-0.380	-0.180
2020/01/31 14:19:30.1	359.290	0.000	-0.340	-0.200
2020/01/31 14:19:30.2	359.300	-0.040	-0.300	-0.210
2020/01/31 14:19:30.3	359.300	-0.090	-0.250	-0.230
2020/01/31 14:19:30.4	359.300	-0.140	-0.210	-0.250
2020/01/31 14:19:30.5	359.310	-0.180	-0.170	-0.260
2020/01/31 14:19:30.6	359.330	-0.220	-0.140	-0.280
2020/01/31 14:19:30.7	359.340	-0.260	-0.110	-0.300
2020/01/31 14:19:30.8	359.350	-0.290	-0.070	-0.320
2020/01/31 14:19:30.9	359.350	-0.330	-0.040	-0.340
2020/01/31 14:19:31.0	359.360	-0.350	-0.020	-0.360
2020/01/31 14:19:31.1	359.370	-0.380	0.010	-0.380
2020/01/31 14:19:31.2	359.380	-0.400	0.030	-0.400
2020/01/31 14:19:31.3	359.400	-0.420	0.040	-0.420
2020/01/31 14:19:31.4	359.410	-0.430	0.050	-0.440
2020/01/31 14:19:31.5	359.420	-0.440	0.060	-0.470
2020/01/31 14:19:31.6	359.440	-0.450	0.070	-0.490
2020/01/31 14:19:31.7	359.460	-0.450	0.070	-0.510
2020/01/31 14:19:31.8	359.470	-0.450	0.060	-0.530
2020/01/31 14:19:31.9	359.490	-0.440	0.050	-0.560
2020/01/31 14:19:32.0	359.510	-0.430	0.040	-0.580
2020/01/31 14:19:32.1	359.530	-0.420	0.030	-0.600
2020/01/31 14:19:32.2	359.550	-0.410	0.010	-0.620
2020/01/31 14:19:32.3	359.570	-0.390	-0.010	-0.640
2020/01/31 14:19:32.4	359.590	-0.370	-0.030	-0.670
2020/01/31 14:19:32.5	359.610	-0.350	-0.050	-0.680
2020/01/31 14:19:32.6	359.620	-0.330	-0.080	-0.710
2020/01/31 14:19:32.7	359.640	-0.300	-0.100	-0.720
2020/01/31 14:19:32.8	359.660	-0.280	-0.130	-0.740
2020/01/31 14:19:32.9	359.670	-0.250	-0.150	-0.750
2020/01/31 14:19:33.0	359.680	-0.230	-0.180	-0.760
2020/01/31 14:19:33.1	359.700	-0.200	-0.200	-0.770
2020/01/31 14:19:33.2	359.710	-0.180	-0.230	-0.780
2020/01/31 14:19:33.3	359.710	-0.150	-0.250	-0.780
2020/01/31 14:19:33.4	359.720	-0.130	-0.270	-0.780
2020/01/31 14:19:33.5	359.720	-0.110	-0.290	-0.790
2020/01/31 14:19:33.6	359.710	-0.080	-0.310	-0.780
2020/01/31 14:19:33.7	359.710	-0.060	-0.320	-0.780
2020/01/31 14:19:33.8	359.710	-0.040	-0.340	-0.770
2020/01/31 14:19:33.9	359.710	-0.020	-0.350	-0.770
2020/01/31 14:19:34.0	359.700	-0.010	-0.360	-0.750
2020/01/31 14:19:34.1	359.700	0.010	-0.370	-0.740
2020/01/31 14:19:34.2				
2020/01/31 14:19:34.3	359.690	0.020	-0.380	-0.720
2020/01/31 14:19:34.4	359.670	0.050	-0.380	-0.680
2020/01/31 14:19:34.5	359.650	0.060	-0.370	-0.660
2020/01/31 14:19:34.6	359.630	0.070	-0.370	-0.630
2020/01/31 14:19:34.7	359.620	0.080	-0.360	-0.600
2020/01/31 14:19:34.8	359.600	0.090	-0.340	-0.570
2020/01/31 14:19:34.9	359.580	0.090	-0.320	-0.530
2020/01/31 14:19:35.0	359.560	0.100	-0.300	-0.500
2020/01/31 14:19:35.1	359.540	0.100	-0.280	-0.450
2020/01/31 14:19:35.2	359.520	0.110	-0.250	-0.410
2020/01/31 14:19:35.3	359.500	0.110	-0.220	-0.360
2020/01/31 14:19:35.4	359.470	0.120	-0.190	-0.310
2020/01/31 14:19:35.5	359.450	0.120	-0.160	-0.260
2020/01/31 14:19:35.6	359.420	0.130	-0.120	-0.210
2020/01/31 14:19:35.7	359.390	0.130	-0.090	-0.150
2020/01/31 14:19:35.8	359.360	0.140	-0.050	-0.090
2020/01/31 14:19:35.9	359.330	0.140	-0.020	-0.030
2020/01/31 14:19:36.0	359.300	0.150	0.020	0.030
2020/01/31 14:19:36.1	359.270	0.150	0.060	0.090
2020/01/31 14:19:36.2	359.230	0.150	0.090	0.150
2020/01/31 14:19:36.3				
2020/01/31 14:19:36.4	359.200	0.160	0.120	0.210
2020/01/31 14:19:36.5	359.130	0.160	0.190	0.330
2020/01/31 14:19:36.6	359.100	0.160	0.210	0.390
2020/01/31 14:19:36.7	359.070	0.160	0.240	0.440
2020/01/31 14:19:36.8	359.040	0.160	0.270	0.490
2020/01/31 14:19:36.9	359.010	0.150	0.290	0.530
2020/01/31 14:19:37.0	358.980	0.150	0.310	0.570
2020/01/31 14:19:37.1	358.950	0.140	0.320	0.610
2020/01/31 14:19:37.2	358.930	0.130	0.340	0.640
2020/01/31 14:19:37.3	358.910	0.120	0.340	0.670
2020/01/31 14:19:37.4	358.890	0.110	0.350	0.690
2020/01/31 14:19:37.5	358.870	0.100	0.340	0.710
2020/01/31 14:19:37.6	358.860	0.080	0.340	0.720
2020/01/31 14:19:37.7	358.860	0.070	0.330	0.730
2020/01/31 14:19:37.8	358.860	0.060	0.310	0.730
2020/01/31 14:19:37.9	358.860	0.040	0.290	0.730
2020/01/31 14:19:38.0	358.870	0.030	0.260	0.720
2020/01/31 14:19:38.1	358.880	0.010	0.220	0.710
2020/01/31 14:19:38.2	358.890	-0.000	0.180	0.690
2020/01/31 14:19:38.3	358.910	-0.020	0.140	0.670
2020/01/31 14:19:38.4				
2020/01/31 14:19:38.5	358.930	-0.030	0.090	0.650
2020/01/31 14:19:38.6	359.000	-0.060	-0.030	0.590
2020/01/31 14:19:38.7	359.030	-0.070	-0.090	0.560
2020/01/31 14:19:38.8	359.070	-0.080	-0.160	0.520
2020/01/31 14:19:38.9	359.100	-0.090	-0.230	0.480
2020/01/31 14:19:39.0	359.140	-0.100	-0.300	0.430
2020/01/31 14:19:39.1	359.180	-0.100	-0.380	0.380
2020/01/31 14:19:39.2	359.230	-0.110	-0.450	0.330
2020/01/31 14:19:39.3	359.270	-0.110	-0.520	0.280
2020/01/31 14:19:39.4	359.310	-0.110	-0.600	0.220
2020/01/31 14:19:39.5	359.360	-0.110	-0.670	0.170
2020/01/31 14:19:39.6	359.400	-0.110	-0.740	0.100
2020/01/31 14:19:39.7	359.440	-0.100	-0.810	0.050
2020/01/31 14:19:39.8	359.490	-0.090	-0.880	-0.010
2020/01/31 14:19:39.9	359.520	-0.080	-0.940	-0.070
2020/01/31 14:19:40.0	359.560	-0.070	-1.000	-0.120
2020/01/31 14:19:40.1	359.600	-0.050	-1.050	-0.170
2020/01/31 14:19:40.2	359.630	-0.040	-1.090	-0.220
2020/01/31 14:19:40.3	359.660	-0.020	-1.130	-0.270
2020/01/31 14:19:40.4	359.690	0.000	-1.160	-0.310
2020/01/31 14:19:40.5	359.710	0.020	-1.180	-0.350
2020/01/31 14:19:40.6	359.730	0.050	-1.200	-0.390
2020/01/31 14:19:40.7	359.740	0.070	-1.200	-0.420
2020/01/31 14:19:40.8	359.750	0.100	-1.200	-0.440
2020/01/31 14:19:40.9	359.760	0.120	-1.190	-0.460
2020/01/31 14:19:41.0	359.760	0.150	-1.170	-0.480
2020/01/31 14:19:41.1	359.770	0.170	-1.150	-0.490
2020/01/31 14:19:41.2	359.760	0.190	-1.110	-0.500
2020/01/31 14:19:41.3	359.760	0.220	-1.080	-0.500
2020/01/31 14:19:41.4	359.760	0.240	-1.030	-0.510
2020/01/31 14:19:41.5	359.750	0.250	-0.980	-0.510
2020/01/31 14:19:41.6	359.740	0.270	-0.930	-0.510
2020/01/31 14:19:41.7	359.730	0.280	-0.880	-0.500
2020/01/31 14:19:41.8	359.720	0.300	-0.820	-0.500
2020/01/31 14:19:41.9	359.720	0.300	-0.760	-0.490
2020/01/31 14:19:42.0	359.710	0.310	-0.690	-0.490
2020/01/31 14:19:42.1	359.700	0.310	-0.630	-0.480
2020/01/31 14:19:42.2	359.700	0.310	-0.570	-0.480
2020/01/31 14:19:42.3	359.690	0.310	-0.510	-0.470
2020/01/31 14:19:42.4	359.690	0.300	-0.450	-0.460
2020/01/31 14:19:42.5	359.690	0.290	-0.390	-0.460
2020/01/31 14:19:42.6				
2020/01/31 14:19:42.7	359.700	0.280	-0.340	-0.460
2020/01/31 14:19:42.8	359.710	0.240	-0.240	-0.450
2020/01/31 14:19:42.9	359.720	0.220	-0.190	-0.450
2020/01/31 14:19:43.0	359.730	0.200	-0.150	-0.450
2020/01/31 14:19:43.1	359.740	0.170	-0.110	-0.450
2020/01/31 14:19:43.2	359.760	0.140	-0.070	-0.450
2020/01/31 14:19:43.3	359.770	0.110	-0.030	-0.450
2020/01/31 14:19:43.4	359.790	0.080	0.000	-0.460
2020/01/31 14:19:43.5	359.800	0.050	0.030	-0.460
2020/01/31 14:19:43.6	359.820	0.010	0.060	-0.470
2020/01/31 14:19:43.7	359.840	-0.020	0.090	-0.480
2020/01/31 14:19:43.8	359.850	-0.060	0.120	-0.490
2020/01/31 14:19:43.9	359.860	-0.100	0.140	-0.500
2020/01/31 14:19:44.0	359.880	-0.130	0.170	-0.520
2020/01/31 14:19:44.1	359.890	-0.170	0.190	-0.530
2020/01/31 14:19:44.2	359.900	-0.210	0.210	-0.540
2020/01/31 14:19:44.3	359.910	-0.240	0.240	-0.550
2020/01/31 14:19:44.4	359.910	-0.280	0.260	-0.560
2020/01/31 14:19:44.5	359.920	-0.310	0.280	-0.570
2020/01/31 14:19:44.6	359.920	-0.340	0.300	-0.590
2020/01/31 14:19:44.7				
2020/01/31 14:19:44.8	359.920	-0.370	0.330	-0.590
2020/01/31 14:19:44.9	359.910	-0.410	0.370	-0.590
2020/01/31 14:19:45.0	359.900	-0.430	0.390	-0.580
2020/01/31 14:19:45.1	359.890	-0.440	0.410	-0.570
2020/01/31 14:19:45.2	359.880	-0.450	0.430	-0.560
2020/01/31 14:19:45.3	359.860	-0.460	0.440	-0.540
2020/01/31 14:19:45.4	359.840	-0.460	0.460	-0.520
2020/01/31 14:19:45.5	359.820	-0.460	0.470	-0.490
2020/01/31 14:19:45.6	359.820	-0.450	0.480	-0.460
2020/01/31 14:19:45.7	359.800	-0.440	0.480	-0.430
2020/01/31 14:19:45.8	359.780	-0.420	0.480	-0.400
2020/01/31 14:19:45.9	359.760	-0.400	0.470	-0.370
2020/01/31 14:19:46.0	359.740	-0.370	0.460	-0.330
2020/01/31 14:19:46.1	359.730	-0.340	0.440	-0.300
2020/01/31 14:19:46.2	359.710	-0.310	0.420	-0.260
2020/01/31 14:19:46.3	359.700	-0.270	0.380	-0.230
2020/01/31 14:19:46.4	359.690	-0.230	0.350	-0.190
2020/01/31 14:19:46.5	359.680	-0.180	0.300	-0.160
2020/01/31 14:19:46.6	359.660	-0.140	0.250	-0.130
2020/01/31 14:19:46.7	359.650	-0.090	0.200	-0.100
2020/01/31 14:19:46.8				
2020/01/31 14:19:46.9	359.650	-0.030	0.130	-0.070
2020/01/31 14:19:47.0	359.640	0.070	0.000	-0.020
2020/01/31 14:19:47.1	359.640	0.130	-0.070	-0.000
2020/01/31 14:19:47.2	359.640	0.180	-0.140	0.020
2020/01/31 14:19:47.3	359.640	0.230	-0.220	0.030
2020/01/31 14:19:47.4	359.640	0.280	-0.290	0.050
2020/01/31 14:19:47.5	359.640	0.330	-0.370	0.060
2020/01/31 14:19:47.6	359.640	0.370	-0.440	0.070
2020/01/31 14:19:47.7	359.640	0.420	-0.510	0.070
2020/01/31 14:19:47.8	359.640	0.450	-0.570	0.070
2020/01/31 14:19:47.9	359.650	0.490	-0.640	0.070
2020/01/31 14:19:48.0	359.660	0.510	-0.690	0.060
2020/01/31 14:19:48.1	359.660	0.540	-0.750	0.050
2020/01/31 14:19:48.2	359.670	0.550	-0.790	0.040
2020/01/31 14:19:48.3	359.680	0.570	-0.830	0.020
2020/01/31 14:19:48.4	359.690	0.570	-0.860	0.010
2020/01/31 14:19:48.5	359.700	0.570	-0.890	-0.010
2020/01/31 14:19:48.6	359.700	0.570	-0.910	-0.040
2020/01/31 14:19:48.7	359.720	0.550	-0.920	-0.060
2020/01/31 14:19:48.8	359.730	0.530	-0.920	-0.080
2020/01/31 14:19:48.9				
2020/01/31 14:19:49.0	359.740	0.510	-0.910	-0.110
2020/01/31 14:19:49.1	359.770	0.450	-0.880	-0.160
2020/01/31 14:19:49.2	359.780	0.410	-0.850	-0.180
2020/01/31 14:19:49.3	359.800	0.360	-0.810	-0.210
2020/01/31 14:19:49.4	359.810	0.320	-0.770	-0.230
2020/01/31 14:19:49.5	359.830	0.270	-0.720	-0.260
2020/01/31 14:19:49.6	359.840	0.210	-0.660	-0.290
2020/01/31 14:19:49.7	359.860	0.150	-0.600	-0.320
2020/01/31 14:19:49.8	359.880	0.100	-0.540	-0.340
2020/01/31 14:19:49.9	359.890	0.040	-0.470	-0.370
2020/01/31 14:19:50.0	359.910	-0.020	-0.400	-0.390
2020/01/31 14:19:50.1	359.930	-0.080	-0.330	-0.420
2020/01/31 14:19:50.2	359.950	-0.140	-0.260	-0.450
2020/01/31 14:19:50.3	359.960	-0.200	-0.190	-0.470
2020/01/31 14:19:50.4	359.980	-0.260	-0.130	-0.500
2020/01/31 14:19:50.5	0.000	-0.310	-0.060	-0.520
2020/01/31 14:19:50.6	0.010	-0.370	-0.000	-0.550
2020/01/31 14:19:50.7	0.030	-0.410	0.060	-0.570
2020/01/31 14:19:50.8	0.050	-0.460	0.110	-0.590
2020/01/31 14:19:50.9	0.070	-0.500	0.160	-0.620
2020/01/31 14:19:51.0				
2020/01/31 14:19:51.1	0.090	-0.540	0.210	-0.640
2020/01/31 14:19:51.2	0.130	-0.590	0.280	-0.680
2020/01/31 14:19:51.3	0.150	-0.620	0.300	-0.690
2020/01/31 14:19:51.4	0.170	-0.630	0.320	-0.710
2020/01/31 14:19:51.5	0.180	-0.640	0.330	-0.730
2020/01/31 14:19:51.6	0.210	-0.650	0.340	-0.750
2020/01/31 14:19:51.7	0.220	-0.650	0.340	-0.760
2020/01/31 14:19:51.8	0.230	-0.640	0.330	-0.770
2020/01/31 14:19:51.9	0.240	-0.630	0.320	-0.780
2020/01/31 14:19:52.0	0.250	-0.610	0.300	-0.780
2020/01/31 14:19:52.1	0.260	-0.590	0.270	-0.790
2020/01/31 14:19:52.2	0.260	-0.560	0.240	-0.790
2020/01/31 14:19:52.3	0.260	-0.530	0.210	-0.780
2020/01/31 14:19:52.4	0.270	-0.490	0.170	-0.780
2020/01/31 14:19:52.5	0.270	-0.450	0.130	-0.770
2020/01/31 14:19:52.6	0.270	-0.400	0.080	-0.760
2020/01/31 14:19:52.7	0.270	-0.350	0.030	-0.740
2020/01/31 14:19:52.8	0.270	-0.300	-0.020	-0.730
2020/01/31 14:19:52.9	0.260	-0.240	-0.080	-0.700
2020/01/31 14:19:53.0	0.260	-0.180	-0.130	-0.680
2020/01/31 14:19:53.1				
2020/01/31 14:19:53.2	0.250	-0.120	-0.180	-0.650
2020/01/31 14:19:53.3	0.230	0.000	-0.290	-0.580
2020/01/31 14:19:53.4	0.230	0.060	-0.340	-0.540
2020/01/31 14:19:53.5	0.220	0.130	-0.400	-0.500
2020/01/31 14:19:53.6	0.220	0.190	-0.440	-0.450
2020/01/31 14:19:53.7	0.210	0.250	-0.490	-0.410
2020/01/31 14:19:53.8	0.200	0.310	-0.540	-0.350
2020/01/31 14:19:53.9	0.190	0.370	-0.580	-0.300
2020/01/31 14:19:54.0	0.180	0.420	-0.620	-0.240
2020/01/31 14:19:54.1	0.170	0.470	-0.650	-0.190
2020/01/31 14:19:54.2	0.160	0.520	-0.680	-0.130
2020/01/31 14:19:54.3	0.150	0.560	-0.710	-0.070
2020/01/31 14:19:54.4	0.130	0.600	-0.730	-0.010
2020/01/31 14:19:54.5	0.120	0.630	-0.750	0.050
2020/01/31 14:19:54.6	0.100	0.660	-0.770	0.100
2020/01/31 14:19:54.7	0.090	0.690	-0.780	0.160
2020/01/31 14:19:54.8	0.080	0.700	-0.780	0.210
2020/01/31 14:19:54.9	0.070	0.720	-0.790	0.260
2020/01/31 14:19:55.0	0.070	0.720	-0.780	0.300
2020/01/31 14:19:55.1	0.070	0.730	-0.780	0.340
2020/01/31 14:19:55.2				
2020/01/31 14:19:55.3	0.060	0.720	-0.770	0.380
2020/01/31 14:19:55.4	0.070	0.700	-0.750	0.440
2020/01/31 14:19:55.5	0.080	0.680	-0.730	0.460
2020/01/31 14:19:55.6	0.090	0.660	-0.710	0.480
2020/01/31 14:19:55.7	0.100	0.630	-0.690	0.490
2020/01/31 14:19:55.8	0.120	0.590	-0.670	0.500
2020/01/31 14:19:55.9	0.140	0.560	-0.640	0.510
2020/01/31 14:19:56.0	0.160	0.510	-0.620	0.510
2020/01/31 14:19:56.1	0.190	0.470	-0.600	0.500
2020/01/31 14:19:56.2	0.220	0.420	-0.570	0.490
2020/01/31 14:19:56.3	0.250	0.370	-0.540	0.470
2020/01/31 14:19:56.4	0.280	0.320	-0.520	0.450
2020/01/31 14:19:56.5	0.320	0.260	-0.490	0.430
2020/01/31 14:19:56.6	0.350	0.200	-0.460	0.390
2020/01/31 14:19:56.7	0.390	0.140	-0.430	0.360
2020/01/31 14:19:56.8	0.420	0.080	-0.400	0.320
2020/01/31 14:19:56.9	0.450	0.020	-0.360	0.280
2020/01/31 14:19:57.0	0.490	-0.040	-0.330	0.240
2020/01/31 14:19:57.1	0.520	-0.100	-0.300	0.190
2020/01/31 14:19:57.2	0.550	-0.170	-0.260	0.130
2020/01/31 14:19:57.3				
2020/01/31 14:19:57.4	0.580	-0.230	-0.230	0.080
2020/01/31 14:19:57.5	0.640	-0.350	-0.170	-0.040
2020/01/31 14:19:57.6	0.680	-0.400	-0.130	-0.110
2020/01/31 14:19:57.7	0.710	-0.460	-0.100	-0.170
2020/01/31 14:19:57.8	0.730	-0.510	-0.070	-0.240
2020/01/31 14:19:57.9	0.760	-0.560	-0.040	-0.300
2020/01/31 14:19:58.0	0.780	-0.600	-0.020	-0.370
2020/01/31 14:19:58.1	0.810	-0.640	0.010	-0.430
2020/01/31 14:19:58.2	0.830	-0.680	0.040	-0.500
2020/01/31 14:19:58.3	0.850	-0.710	0.060	-0.560
2020/01/31 14:19:58.4	0.870	-0.740	0.080	-0.620
2020/01/31 14:19:58.5	0.890	-0.760	0.110	-0.680
2020/01/31 14:19:58.6	0.930	-0.780	0.130	-0.740
2020/01/31 14:19:58.7	0.950	-0.790	0.150	-0.800
2020/01/31 14:19:58.8	0.970	-0.800	0.160	-0.850
2020/01/31 14:19:58.9	0.980	-0.810	0.180	-0.910
2020/01/31 14:19:59.0	1.000	-0.800	0.200	-0.950
2020/01/31 14:19:59.1	1.020	-0.800	0.210	-1.000
2020/01/31 14:19:59.2	1.030	-0.790	0.220	-1.040
2020/01/31 14:19:59.3	1.040	-0.770	0.240	-1.070
2020/01/31 14:19:59.4				
2020/01/31 14:19:59.5	1.050	-0.750	0.250	-1.110
2020/01/31 14:19:59.6	1.070	-0.700	0.260	-1.160
2020/01/31 14:19:59.7	1.070	-0.670	0.270	-1.180
2020/01/31 14:19:59.8	1.080	-0.630	0.280	-1.190
2020/01/31 14:19:59.9	1.080	-0.590	0.290	-1.200
2020/01/31 14:20:00.0	1.090	-0.550	0.290	-1.210
2020/01/31 14:20:00.1	1.090	-0.510	0.300	-1.210
2020/01/31 14:20:00.2	1.090	-0.460	0.300	-1.210
2020/01/31 14:20:00.3	1.080	-0.410	0.300	-1.200
2020/01/31 14:20:00.4	1.080	-0.360	0.300	-1.190
2020/01/31 14:20:00.5	1.080	-0.310	0.300	-1.170
2020/01/31 14:20:00.6	1.080	-0.250	0.300	-1.150
2020/01/31 14:20:00.7	1.070	-0.200	0.290	-1.120
2020/01/31 14:20:00.8	1.060	-0.140	0.280	-1.090
2020/01/31 14:20:00.9	1.050	-0.090	0.270	-1.050
2020/01/31 14:20:01.0	1.040	-0.030	0.260	-1.010
2020/01/31 14:20:01.1	1.020	0.020	0.250	-0.970
2020/01/31 14:20:01.2	1.000	0.070	0.230	-0.920
2020/01/31 14:20:01.3	0.980	0.130	0.210	-0.860
2020/01/31 14:20:01.4	0.960	0.180	0.180	-0.810
2020/01/31 14:20:01.5				
2020/01/31 14:20:01.6	0.940	0.230	0.160	-0.740
2020/01/31 14:20:01.7	0.900	0.320	0.100	-0.610
2020/01/31 14:20:01.8	0.870	0.370	0.060	-0.540
2020/01/31 14:20:01.9	0.850	0.410	0.030	-0.470
2020/01/31 14:20:02.0	0.820	0.450	-0.010	-0.400
2020/01/31 14:20:02.1	0.800	0.490	-0.050	-0.340
2020/01/31 14:20:02.2	0.780	0.520	-0.090	-0.270
2020/01/31 14:20:02.3	0.760	0.560	-0.140	-0.200
2020/01/31 14:20:02.4	0.740	0.590	-0.190	-0.130
2020/01/31 14:20:02.5	0.720	0.610	-0.230	-0.070
2020/01/31 14:20:02.6	0.700	0.630	-0.280	-0.010
2020/01/31 14:20:02.7	0.690	0.650	-0.330	0.040
2020/01/31 14:20:02.8	0.680	0.670	-0.380	0.090
2020/01/31 14:20:02.9	0.670	0.680	-0.430	0.140
2020/01/31 14:20:03.0	0.670	0.690	-0.490	0.180
2020/01/31 14:20:03.1	0.670	0.700	-0.540	0.220
2020/01/31 14:20:03.2	0.670	0.700	-0.580	0.260
2020/01/31 14:20:03.3	0.670	0.700	-0.630	0.290
2020/01/31 14:20:03.4	0.670	0.700	-0.680	0.310
2020/01/31 14:20:03.5	0.680	0.690	-0.720	0.330
2020/01/31 14:20:03.6				
2020/01/31 14:20:03.7	0.690	0.680	-0.770	0.340
2020/01/31 14:20:03.8	0.700	0.640	-0.840	0.360
2020/01/31 14:20:03.9	0.710	0.620	-0.870	0.360
2020/01/31 14:20:04.0	0.730	0.590	-0.900	0.360
2020/01/31 14:20:04.1	0.740	0.560	-0.930	0.350
2020/01/31 14:20:04.2	0.760	0.530	-0.950	0.330
2020/01/31 14:20:04.3	0.770	0.490	-0.960	0.310
2020/01/31 14:20:04.4	0.790	0.450	-0.970	0.280
2020/01/31 14:20:04.5	0.810	0.400	-0.980	0.250
2020/01/31 14:20:04.6	0.820	0.360	-0.980	0.210
2020/01/31 14:20:04.7	0.850	0.310	-0.980	0.170
2020/01/31 14:20:04.8	0.880	0.260	-0.970	0.130
2020/01/31 14:20:04.9	0.910	0.210	-0.960	0.080
2020/01/31 14:20:05.0	0.940	0.150	-0.950	0.020
2020/01/31 14:20:05.1	0.980	0.100	-0.940	-0.030
2020/01/31 14:20:05.2	1.010	0.040	-0.920	-0.090
2020/01/31 14:20:05.3	1.050	-0.010	-0.890	-0.150
2020/01/31 14:20:05.4	1.090	-0.070	-0.870	-0.220
2020/01/31 14:20:05.5	1.130	-0.120	-0.840	-0.280
2020/01/31 14:20:05.6	1.180	-0.180	-0.820	-0.350
2020/01/31 14:20:05.7				
2020/01/31 14:20:05.8	1.220	-0.230	-0.780	-0.420
2020/01/31 14:20:05.9	1.310	-0.330	-0.710	-0.540
2020/01/31 14:20:06.0	1.350	-0.370	-0.660	-0.600
2020/01/31 14:20:06.1	1.390	-0.410	-0.620	-0.660
2020/01/31 14:20:06.2	1.430	-0.450	-0.580	-0.720
2020/01/31 14:20:06.3	1.470	-0.490	-0.530	-0.780
2020/01/31 14:20:06.4	1.510	-0.520	-0.480	-0.830
2020/01/31 14:20:06.5	1.550	-0.550	-0.440	-0.880
2020/01/31 14:20:06.6	1.580	-0.580	-0.390	-0.930
2020/01/31 14:20:06.7	1.620	-0.600	-0.340	-0.970
2020/01/31 14:20:06.8	1.650	-0.610	-0.290	-1.010
2020/01/31 14:20:06.9	1.680	-0.620	-0.240	-1.050
2020/01/31 14:20:07.0	1.710	-0.630	-0.190	-1.090
2020/01/31 14:20:07.1	1.740	-0.630	-0.150	-1.120
2020/01/31 14:20:07.2	1.760	-0.620	-0.100	-1.140
2020/01/31 14:20:07.3	1.790	-0.610	-0.060	-1.160
2020/01/31 14:20:07.4	1.810	-0.590	-0.020	-1.180
2020/01/31 14:20:07.5	1.830	-0.570	0.010	-1.190
2020/01/31 14:20:07.6	1.840	-0.550	0.050	-1.200
2020/01/31 14:20:07.7	1.860	-0.510	0.080	-1.210
2020/01/31 14:20:07.8				
2020/01/31 14:20:07.9	1.870	-0.480	0.100	-1.200
2020/01/31 14:20:08.0	1.880	-0.390	0.140	-1.180
2020/01/31 14:20:08.1	1.890	-0.350	0.150	-1.160
2020/01/31 14:20:08.2	1.890	-0.300	0.160	-1.140
2020/01/31 14:20:08.3	1.890	-0.240	0.160	-1.120
2020/01/31 14:20:08.4	1.880	-0.190	0.160	-1.090
2020/01/31 14:20:08.5	1.880	-0.130	0.160	-1.060
2020/01/31 14:20:08.6	1.870	-0.070	0.150	-1.030
2020/01/31 14:20:08.7	1.870	-0.010	0.130	-1.000
2020/01/31 14:20:08.8	1.860	0.060	0.120	-0.960
2020/01/31 14:20:08.9	1.850	0.120	0.090	-0.930
2020/01/31 14:20:09.0	1.840	0.180	0.070	-0.900
2020/01/31 14:20:09.1	1.830	0.240	0.040	-0.860
2020/01/31 14:20:09.2	1.830	0.300	0.010	-0.830
2020/01/31 14:20:09.3	1.820	0.360	-0.020	-0.800
2020/01/31 14:20:09.4	1.810	0.420	-0.060	-0.770
2020/01/31 14:20:09.5	1.800	0.470	-0.090	-0.730
2020/01/31 14:20:09.6	1.790	0.520	-0.130	-0.700
2020/01/31 14:20:09.7	1.780	0.570	-0.160	-0.660
2020/01/31 14:20:09.8	1.760	0.610	-0.190	-0.630
2020/01/31 14:20:09.9				
2020/01/31 14:20:10.0	1.750	0.640	-0.220	-0.590
2020/01/31 14:20:10.1	1.710	0.700	-0.260	-0.510
2020/01/31 14:20:10.2	1.680	0.720	-0.280	-0.470
2020/01/31 14:20:10.3	1.650	0.730	-0.290	-0.430
2020/01/31 14:20:10.4	1.620	0.740	-0.290	-0.380
2020/01/31 14:20:10.5	1.590	0.740	-0.290	-0.340
2020/01/31 14:20:10.6	1.560	0.730	-0.280	-0.300
2020/01/31 14:20:10.7	1.520	0.720	-0.270	-0.260
2020/01/31 14:20:10.8	1.480	0.700	-0.250	-0.220
2020/01/31 14:20:10.9	1.440	0.670	-0.230	-0.180
2020/01/31 14:20:11.0	1.390	0.640	-0.200	-0.150
2020/01/31 14:20:11.1	1.350	0.600	-0.160	-0.110
2020/01/31 14:20:11.2	1.300	0.550	-0.120	-0.080
2020/01/31 14:20:11.3	1.250	0.500	-0.080	-0.060
2020/01/31 14:20:11.4	1.200	0.440	-0.030	-0.030
2020/01/31 14:20:11.5	1.150	0.380	0.020	-0.010
2020/01/31 14:20:11.6	1.100	0.320	0.060	0.000
2020/01/31 14:20:11.7	1.050	0.250	0.120	0.020
2020/01/31 14:20:11.8				
2020/01/31 14:20:11.9	1.000	0.180	0.170	0.030
2020/01/31 14:20:12.0				
2020/01/31 14:20:12.1	0.910	0.030	0.280	0.050
2020/01/31 14:20:12.2	0.830	-0.120	0.370	0.060
2020/01/31 14:20:12.3	0.790	-0.190	0.420	0.060
2020/01/31 14:20:12.4	0.760	-0.260	0.450	0.050
2020/01/31 14:20:12.5	0.730	-0.330	0.480	0.040
2020/01/31 14:20:12.6	0.710	-0.400	0.510	0.030
2020/01/31 14:20:12.7	0.690	-0.460	0.530	0.010
2020/01/31 14:20:12.8	0.670	-0.520	0.540	-0.010
2020/01/31 14:20:12.9	0.660	-0.570	0.540	-0.030
2020/01/31 14:20:13.0	0.660	-0.620	0.540	-0.060
2020/01/31 14:20:13.1	0.660	-0.660	0.520	-0.090
2020/01/31 14:20:13.2	0.660	-0.690	0.500	-0.130
2020/01/31 14:20:13.3	0.670	-0.720	0.470	-0.170
2020/01/31 14:20:13.4	0.690	-0.740	0.430	-0.210
2020/01/31 14:20:13.5	0.710	-0.760	0.380	-0.260
2020/01/31 14:20:13.6				
2020/01/31 14:20:13.7	0.730	-0.760	0.320	-0.320
2020/01/31 14:20:13.8	0.760	-0.760	0.260	-0.370
2020/01/31 14:20:13.9	0.780	-0.760	0.190	-0.420
2020/01/31 14:20:14.0	0.820	-0.740	0.120	-0.480
2020/01/31 14:20:14.1				
2020/01/31 14:20:14.2	0.880	-0.690	-0.040	-0.590
2020/01/31 14:20:14.3	0.950	-0.620	-0.210	-0.700
2020/01/31 14:20:14.4	0.990	-0.580	-0.290	-0.760
2020/01/31 14:20:14.5	1.020	-0.540	-0.370	-0.810
2020/01/31 14:20:14.6	1.050	-0.490	-0.450	-0.860
2020/01/31 14:20:14.7				
2020/01/31 14:20:14.8	1.080	-0.440	-0.530	-0.900
2020/01/31 14:20:14.9	1.100	-0.390	-0.600	-0.950
2020/01/31 14:20:15.0				
2020/01/31 14:20:15.1	1.150	-0.280	-0.750	-1.030
2020/01/31 14:20:15.2	1.170	-0.230	-0.810	-1.070
2020/01/31 14:20:15.3	1.190	-0.180	-0.870	-1.100
2020/01/31 14:20:15.4	1.230	-0.070	-0.980	-1.160
2020/01/31 14:20:15.5	1.240	-0.030	-1.020	-1.190
2020/01/31 14:20:15.6	1.240	0.020	-1.070	-1.210
2020/01/31 14:20:15.7				
2020/01/31 14:20:15.8	1.250	0.060	-1.100	-1.230
2020/01/31 14:20:15.9	1.260	0.100	-1.130	-1.240
2020/01/31 14:20:16.0	1.260	0.170	-1.160	-1.260
2020/01/31 14:20:16.1	1.270	0.200	-1.170	-1.270
2020/01/31 14:20:16.2				
2020/01/31 14:20:16.3	1.260	0.220	-1.170	-1.270
2020/01/31 14:20:16.4	1.260	0.260	-1.150	-1.270
2020/01/31 14:20:16.5	1.250	0.270	-1.140	-1.260
2020/01/31 14:20:16.6	1.230	0.280	-1.120	-1.250
2020/01/31 14:20:16.7	1.220	0.290	-1.090	-1.240
2020/01/31 14:20:16.8	1.210	0.290	-1.060	-1.220
2020/01/31 14:20:16.9	1.190	0.280	-1.020	-1.200
2020/01/31 14:20:17.0	1.180	0.280	-0.980	-1.170
2020/01/31 14:20:17.1				
2020/01/31 14:20:17.2	1.170	0.270	-0.940	-1.150
2020/01/31 14:20:17.3	1.150	0.260	-0.890	-1.120
2020/01/31 14:20:17.4	1.140	0.250	-0.840	-1.080
2020/01/31 14:20:17.5	1.110	0.220	-0.730	-1.010
2020/01/31 14:20:17.6	1.080	0.200	-0.670	-0.970
2020/01/31 14:20:17.7				
2020/01/31 14:20:17.8	1.070	0.190	-0.610	-0.930
2020/01/31 14:20:17.9	1.060	0.170	-0.550	-0.890
2020/01/31 14:20:18.0	1.040	0.130	-0.440	-0.810
2020/01/31 14:20:18.1	1.030	0.120	-0.380	-0.770
2020/01/31 14:20:18.2	1.030	0.100	-0.330	-0.720
2020/01/31 14:20:18.3				
2020/01/31 14:20:18.4	1.020	0.090	-0.280	-0.680
2020/01/31 14:20:18.5	1.020	0.060	-0.180	-0.600
2020/01/31 14:20:18.6	1.040	0.050	-0.150	-0.570
2020/01/31 14:20:18.7				
2020/01/31 14:20:18.8	1.040	0.040	-0.110	-0.530
2020/01/31 14:20:18.9	1.050	0.030	-0.070	-0.500
2020/01/31 14:20:19.0	1.060	0.020	-0.010	-0.430
2020/01/31 14:20:19.1	1.070	0.020	0.010	-0.400
2020/01/31 14:20:19.2	1.080	0.020	0.040	-0.360
2020/01/31 14:20:19.3	1.090	0.020	0.060	-0.330
2020/01/31 14:20:19.4	1.090	0.030	0.070	-0.300
2020/01/31 14:20:19.5	1.100	0.030	0.080	-0.270
2020/01/31 14:20:19.6				
2020/01/31 14:20:19.7	1.110	0.030	0.090	-0.240
2020/01/31 14:20:19.8	1.120	0.050	0.110	-0.180
2020/01/31 14:20:19.9	1.130	0.050	0.110	-0.150
2020/01/31 14:20:20.0	1.140	0.060	0.120	-0.120
2020/01/31 14:20:20.1	1.140	0.070	0.120	-0.090
2020/01/31 14:20:20.2				
2020/01/31 14:20:20.3	1.140	0.080	0.120	-0.060
2020/01/31 14:20:20.4	1.150	0.090	0.120	-0.020
2020/01/31 14:20:20.5	1.150	0.100	0.110	0.010
2020/01/31 14:20:20.6				
2020/01/31 14:20:20.7	1.160	0.120	0.100	0.070
2020/01/31 14:20:20.8	1.170	0.130	0.100	0.100
2020/01/31 14:20:20.9	1.170	0.140	0.090	0.140
2020/01/31 14:20:21.0	1.170	0.160	0.070	0.200
2020/01/31 14:20:21.1	1.170	0.170	0.060	0.240
2020/01/31 14:20:21.2	1.170	0.180	0.040	0.270
2020/01/31 14:20:21.3	1.160	0.180	0.030	0.300
2020/01/31 14:20:21.4	1.160	0.190	0.020	0.340
2020/01/31 14:20:21.5	1.160	0.200	0.000	0.370
2020/01/31 14:20:21.6	1.170	0.200	-0.010	0.400
2020/01/31 14:20:21.7	1.160	0.210	-0.030	0.430
2020/01/31 14:20:21.8	1.160	0.210	-0.050	0.470
2020/01/31 14:20:21.9	1.150	0.210	-0.070	0.500
2020/01/31 14:20:22.0				
2020/01/31 14:20:22.1	1.140	0.220	-0.080	0.530
2020/01/31 14:20:22.2	1.130	0.220	-0.100	0.560
2020/01/31 14:20:22.3	1.120	0.210	-0.120	0.580
2020/01/31 14:20:22.4	1.100	0.210	-0.140	0.610
2020/01/31 14:20:22.5				
2020/01/31 14:20:22.6	1.070	0.200	-0.170	0.650
2020/01/31 14:20:22.7	1.060	0.200	-0.180	0.670
2020/01/31 14:20:22.8	1.050	0.190	-0.190	0.680
2020/01/31 14:20:22.9	1.030	0.180	-0.200	0.690
2020/01/31 14:20:23.0	1.010	0.170	-0.210	0.700
2020/01/31 14:20:23.1	0.990	0.160	-0.220	0.700
2020/01/31 14:20:23.2	0.960	0.140	-0.220	0.700
2020/01/31 14:20:23.3				
2020/01/31 14:20:23.4	0.940	0.130	-0.220	0.700
2020/01/31 14:20:23.5	0.910	0.100	-0.210	0.680
2020/01/31 14:20:23.6				
2020/01/31 14:20:23.7	0.900	0.090	-0.200	0.660
2020/01/31 14:20:23.8	0.890	0.070	-0.190	0.650
2020/01/31 14:20:23.9				
2020/01/31 14:20:24.0	0.860	0.050	-0.150	0.620
2020/01/31 14:20:24.1	0.840	0.020	-0.110	0.590
2020/01/31 14:20:24.2	0.830	0.010	-0.090	0.570
2020/01/31 14:20:24.3				
2020/01/31 14:20:24.4	0.820	0.000	-0.070	0.550
2020/01/31 14:20:24.5	0.810	-0.010	-0.020	0.510
2020/01/31 14:20:24.6				
2020/01/31 14:20:24.7	0.810	-0.020	-0.000	0.490
2020/01/31 14:20:24.8	0.800	-0.030	0.020	0.470
2020/01/31 14:20:24.9	0.800	-0.030	0.040	0.440
2020/01/31 14:20:25.0	0.800	-0.040	0.070	0.390
2020/01/31 14:20:25.1	0.810	-0.040	0.090	0.360
2020/01/31 14:20:25.2	0.810	-0.040	0.090	0.330
2020/01/31 14:20:25.3	0.820	-0.040	0.100	0.300
2020/01/31 14:20:25.4	0.830	-0.030	0.100	0.270
2020/01/31 14:20:25.5	0.840	-0.030	0.100	0.230
2020/01/31 14:20:25.6	0.840	-0.020	0.090	0.190
2020/01/31 14:20:25.7				
2020/01/31 14:20:25.8	0.850	-0.020	0.080	0.150
2020/01/31 14:20:25.9	0.860	-0.010	0.070	0.110
2020/01/31 14:20:26.0	0.890	0.000	0.030	0.030
2020/01/31 14:20:26.1	0.910	0.010	0.010	-0.010
2020/01/31 14:20:26.2	0.930	0.020	-0.020	-0.060
2020/01/31 14:20:26.3	0.940	0.020	-0.050	-0.100
2020/01/31 14:20:26.4	0.960	0.030	-0.080	-0.140
2020/01/31 14:20:26.5	0.970	0.040	-0.110	-0.180
2020/01/31 14:20:26.6				
2020/01/31 14:20:26.7	0.990	0.050	-0.140	-0.220
2020/01/31 14:20:26.8	1.000	0.060	-0.180	-0.250
2020/01/31 14:20:26.9	1.030	0.070	-0.250	-0.310
2020/01/31 14:20:27.0	1.030	0.080	-0.280	-0.340
2020/01/31 14:20:27.1	1.040	0.080	-0.320	-0.370
2020/01/31 14:20:27.2				
2020/01/31 14:20:27.3	1.050	0.080	-0.350	-0.390
2020/01/31 14:20:27.4	1.050	0.090	-0.380	-0.410
2020/01/31 14:20:27.5	1.060	0.090	-0.440	-0.440
2020/01/31 14:20:27.6				
2020/01/31 14:20:27.7	1.060	0.090	-0.460	-0.460
2020/01/31 14:20:27.8	1.060	0.080	-0.490	-0.470
2020/01/31 14:20:27.9	1.060	0.080	-0.510	-0.480
2020/01/31 14:20:28.0	1.060	0.070	-0.540	-0.510
2020/01/31 14:20:28.1	1.060	0.060	-0.550	-0.520
2020/01/31 14:20:28.2	1.060	0.050	-0.560	-0.530
2020/01/31 14:20:28.3				
2020/01/31 14:20:28.4	1.060	0.030	-0.560	-0.540
2020/01/31 14:20:28.5	1.070	0.010	-0.570	-0.570
2020/01/31 14:20:28.6				
2020/01/31 14:20:28.7	1.080	-0.010	-0.570	-0.580
2020/01/31 14:20:28.8	1.080	-0.030	-0.570	-0.590
2020/01/31 14:20:28.9	1.090	-0.040	-0.560	-0.610
2020/01/31 14:20:29.0	1.110	-0.080	-0.560	-0.640
2020/01/31 14:20:29.1	1.120	-0.100	-0.550	-0.660
2020/01/31 14:20:29.2	1.140	-0.120	-0.550	-0.680
2020/01/31 14:20:29.3				
2020/01/31 14:20:29.4	1.150	-0.130	-0.550	-0.700
2020/01/31 14:20:29.5				
2020/01/31 14:20:29.6	1.200	-0.170	-0.550	-0.750
2020/01/31 14:20:29.7	1.230	-0.200	-0.550	-0.800
2020/01/31 14:20:29.8	1.260	-0.220	-0.560	-0.840
2020/01/31 14:20:29.9				
2020/01/31 14:20:30.0	1.290	-0.230	-0.560	-0.870
2020/01/31 14:20:30.1	1.330	-0.240	-0.570	-0.910
2020/01/31 14:20:30.2	1.360	-0.250	-0.580	-0.950
2020/01/31 14:20:30.3	1.400	-0.260	-0.590	-0.990
2020/01/31 14:20:30.4	1.430	-0.270	-0.600	-1.020
2020/01/31 14:20:30.5	1.470	-0.280	-0.600	-1.060
2020/01/31 14:20:30.6	1.500	-0.280	-0.610	-1.100
2020/01/31 14:20:30.7	1.560	-0.290	-0.630	-1.190
2020/01/31 14:20:30.8				
2020/01/31 14:20:30.9	1.590	-0.290	-0.630	-1.230
2020/01/31 14:20:31.0	1.620	-0.290	-0.640	-1.260
2020/01/31 14:20:31.1	1.660	-0.290	-0.640	-1.300
2020/01/31 14:20:31.2	1.680	-0.290	-0.640	-1.340
2020/01/31 14:20:31.3	1.710	-0.280	-0.630	-1.370
2020/01/31 14:20:31.4	1.740	-0.280	-0.630	-1.400
2020/01/31 14:20:31.5	1.760	-0.270	-0.610	-1.430
2020/01/31 14:20:31.6	1.780	-0.270	-0.600	-1.450
2020/01/31 14:20:31.7	1.800	-0.260	-0.590	-1.470
2020/01/31 14:20:31.8	1.830	-0.240	-0.540	-1.490
2020/01/31 14:20:31.9				
2020/01/31 14:20:32.0	1.840	-0.230	-0.510	-1.500
2020/01/31 14:20:32.1	1.850	-0.220	-0.480	-1.490
2020/01/31 14:20:32.2	1.860	-0.200	-0.420	-1.470
2020/01/31 14:20:32.3	1.860	-0.190	-0.380	-1.440
2020/01/31 14:20:32.4	1.860	-0.170	-0.340	-1.420
2020/01/31 14:20:32.5	1.860	-0.160	-0.300	-1.380
2020/01/31 14:20:32.6	1.840	-0.150	-0.260	-1.340
2020/01/31 14:20:32.7	1.830	-0.130	-0.230	-1.290
2020/01/31 14:20:32.8	1.830	-0.110	-0.190	-1.240
2020/01/31 14:20:32.9				
2020/01/31 14:20:33.0	1.820	-0.100	-0.150	-1.180
2020/01/31 14:20:33.1	1.810	-0.080	-0.110	-1.120
2020/01/31 14:20:33.2	1.800	-0.060	-0.080	-1.050
2020/01/31 14:20:33.3				
2020/01/31 14:20:33.4	1.780	-0.030	-0.020	-0.910
2020/01/31 14:20:33.5	1.760	0.010	0.040	-0.760
2020/01/31 14:20:33.6				
2020/01/31 14:20:33.7	1.750	0.030	0.060	-0.680
2020/01/31 14:20:33.8	1.740	0.050	0.080	-0.600
2020/01/31 14:20:33.9	1.720	0.070	0.100	-0.530
2020/01/31 14:20:34.0	1.690	0.100	0.130	-0.370
2020/01/31 14:20:34.1				
2020/01/31 14:20:34.2	1.680	0.120	0.140	-0.290
2020/01/31 14:20:34.3	1.660	0.140	0.150	-0.210
2020/01/31 14:20:34.4	1.640	0.150	0.160	-0.130
2020/01/31 14:20:34.5	1.620	0.170	0.170	-0.060
2020/01/31 14:20:34.6	1.590	0.180	0.180	0.020
2020/01/31 14:20:34.7	1.560	0.210	0.200	0.170
2020/01/31 14:20:34.8				
2020/01/31 14:20:34.9	1.540	0.230	0.210	0.250
2020/01/31 14:20:35.0	1.480	0.250	0.230	0.390
2020/01/31 14:20:35.1				
2020/01/31 14:20:35.2	1.460	0.270	0.230	0.460
2020/01/31 14:20:35.3	1.430	0.280	0.240	0.530
2020/01/31 14:20:35.4	1.410	0.290	0.250	0.600
2020/01/31 14:20:35.5	1.380	0.300	0.260	0.660
2020/01/31 14:20:35.6				
2020/01/31 14:20:35.7	1.350	0.320	0.280	0.780
2020/01/31 14:20:35.8	1.330	0.330	0.290	0.830
2020/01/31 14:20:35.9	1.320	0.340	0.300	0.880
2020/01/31 14:20:36.0	1.300	0.360	0.300	0.970
2020/01/31 14:20:36.1	1.290	0.370	0.300	1.010
2020/01/31 14:20:36.2	1.290	0.380	0.300	1.040
2020/01/31 14:20:36.3	1.290	0.390	0.300	1.070
2020/01/31 14:20:36.4	1.290	0.400	0.290	1.090
2020/01/31 14:20:36.5				
2020/01/31 14:20:36.6	1.300	0.410	0.280	1.120
2020/01/31 14:20:36.7	1.320	0.420	0.250	1.140
2020/01/31 14:20:36.8	1.330	0.420	0.230	1.150
2020/01/31 14:20:36.9				
2020/01/31 14:20:37.0	1.340	0.430	0.210	1.160
2020/01/31 14:20:37.1	1.360	0.430	0.150	1.160
2020/01/31 14:20:37.2				
2020/01/31 14:20:37.3	1.370	0.430	0.120	1.150
2020/01/31 14:20:37.4	1.390	0.430	0.040	1.120
2020/01/31 14:20:37.5	1.400	0.420	0.000	1.100
2020/01/31 14:20:37.6	1.420	0.420	-0.040	1.080
2020/01/31 14:20:37.7	1.430	0.410	-0.080	1.050
2020/01/31 14:20:37.8	1.440	0.400	-0.130	1.020
2020/01/31 14:20:37.9				
2020/01/31 14:20:38.0	1.450	0.390	-0.180	0.980
2020/01/31 14:20:38.1	1.470	0.380	-0.230	0.940
2020/01/31 14:20:38.2	1.480	0.360	-0.290	0.890
2020/01/31 14:20:38.3	1.500	0.350	-0.340	0.840
2020/01/31 14:20:38.4	1.520	0.330	-0.400	0.780
2020/01/31 14:20:38.5	1.540	0.310	-0.450	0.720
2020/01/31 14:20:38.6				
2020/01/31 14:20:38.7	1.580	0.270	-0.570	0.580
2020/01/31 14:20:38.8	1.600	0.250	-0.630	0.510
2020/01/31 14:20:38.9	1.630	0.220	-0.680	0.430
2020/01/31 14:20:39.0	1.680	0.170	-0.800	0.270
2020/01/31 14:20:39.1	1.710	0.140	-0.850	0.190
2020/01/31 14:20:39.2	1.740	0.110	-0.900	0.100
2020/01/31 14:20:39.3				
2020/01/31 14:20:39.4	1.780	0.080	-0.950	0.020
2020/01/31 14:20:39.5	1.840	0.020	-1.040	-0.160
2020/01/31 14:20:39.6				
2020/01/31 14:20:39.7	1.880	-0.010	-1.080	-0.260
2020/01/31 14:20:39.8	1.910	-0.040	-1.110	-0.360
2020/01/31 14:20:39.9	1.940	-0.080	-1.130	-0.450
2020/01/31 14:20:40.0	1.980	-0.110	-1.150	-0.550
2020/01/31 14:20:40.1	2.010	-0.150	-1.160	-0.640
2020/01/31 14:20:40.2	2.040	-0.180	-1.160	-0.730
2020/01/31 14:20:40.3	2.070	-0.220	-1.160	-0.830
2020/01/31 14:20:40.4	2.100	-0.260	-1.150	-0.920
2020/01/31 14:20:40.5	2.120	-0.290	-1.130	-1.010
2020/01/31 14:20:40.6	2.150	-0.330	-1.100	-1.100
2020/01/31 14:20:40.7	2.150	-0.370	-1.070	-1.190
2020/01/31 14:20:40.8	2.170	-0.410	-1.020	-1.280
2020/01/31 14:20:40.9	2.190	-0.450	-0.970	-1.360
2020/01/31 14:20:41.0	2.200	-0.480	-0.920	-1.440
2020/01/31 14:20:41.1	2.210	-0.520	-0.850	-1.520
2020/01/31 14:20:41.2	2.220	-0.560	-0.780	-1.590
2020/01/31 14:20:41.3	2.240	-0.640	-0.630	-1.730
2020/01/31 14:20:41.4				
2020/01/31 14:20:41.5	2.240	-0.670	-0.550	-1.790
2020/01/31 14:20:41.6	2.240	-0.740	-0.380	-1.900
2020/01/31 14:20:41.7	2.230	-0.780	-0.300	-1.950
2020/01/31 14:20:41.8				
2020/01/31 14:20:41.9	2.230	-0.810	-0.210	-1.990
2020/01/31 14:20:42.0	2.220	-0.840	-0.130	-2.030
2020/01/31 14:20:42.1	2.210	-0.860	-0.040	-2.060
2020/01/31 14:20:42.2	2.200	-0.890	0.040	-2.090
2020/01/31 14:20:42.3	2.190	-0.910	0.110	-2.110
2020/01/31 14:20:42.4	2.180	-0.930	0.180	-2.130
2020/01/31 14:20:42.5	2.170	-0.940	0.250	-2.150
2020/01/31 14:20:42.6	2.160	-0.950	0.310	-2.160
2020/01/31 14:20:42.7	2.150	-0.960	0.360	-2.170
2020/01/31 14:20:42.8	2.120	-0.960	0.450	-2.190
2020/01/31 14:20:42.9				
2020/01/31 14:20:43.0	2.110	-0.950	0.480	-2.190
2020/01/31 14:20:43.1	2.100	-0.940	0.510	-2.190
2020/01/31 14:20:43.2	2.090	-0.920	0.520	-2.180
2020/01/31 14:20:43.3	2.080	-0.890	0.530	-2.180
2020/01/31 14:20:43.4	2.070	-0.860	0.530	-2.160
2020/01/31 14:20:43.5	2.060	-0.830	0.520	-2.150
2020/01/31 14:20:43.6	2.050	-0.780	0.500	-2.130
2020/01/31 14:20:43.7				
2020/01/31 14:20:43.8	2.020	-0.680	0.450	-2.070
2020/01/31 14:20:43.9	2.010	-0.620	0.420	-2.020
2020/01/31 14:20:44.0	2.000	-0.550	0.380	-1.980
2020/01/31 14:20:44.1	1.980	-0.480	0.340	-1.920
2020/01/31 14:20:44.2	1.970	-0.400	0.290	-1.860
2020/01/31 14:20:44.3	1.950	-0.320	0.240	-1.790
2020/01/31 14:20:44.4	1.930	-0.230	0.190	-1.710
2020/01/31 14:20:44.5	1.910	-0.150	0.140	-1.630
2020/01/31 14:20:44.6	1.890	-0.060	0.090	-1.540
2020/01/31 14:20:44.7	1.850	0.030	0.040	-1.450
2020/01/31 14:20:44.8	1.830	0.120	-0.010	-1.350
2020/01/31 14:20:44.9	1.800	0.210	-0.060	-1.250
2020/01/31 14:20:45.0	1.750	0.390	-0.160	-1.030
2020/01/31 14:20:45.1	1.720	0.470	-0.200	-0.910
2020/01/31 14:20:45.2				
2020/01/31 14:20:45.3	1.700	0.560	-0.240	-0.790
2020/01/31 14:20:45.4	1.670	0.640	-0.290	-0.670
2020/01/31 14:20:45.5	1.640	0.710	-0.320	-0.550
2020/01/31 14:20:45.6				
2020/01/31 14:20:45.7	1.600	0.840	-0.400	-0.290
2020/01/31 14:20:45.8	1.570	0.900	-0.430	-0.160
2020/01/31 14:20:45.9	1.550	0.950	-0.460	-0.040
2020/01/31 14:20:46.0	1.500	1.040	-0.520	0.210
2020/01/31 14:20:46.1				
2020/01/31 14:20:46.2	1.480	1.070	-0.550	0.320
2020/01/31 14:20:46.3	1.460	1.100	-0.570	0.440
2020/01/31 14:20:46.4	1.450	1.110	-0.600	0.550
2020/01/31 14:20:46.5	1.430	1.130	-0.640	0.750
2020/01/31 14:20:46.6				
2020/01/31 14:20:46.7	1.420	1.130	-0.660	0.850
2020/01/31 14:20:46.8	1.410	1.120	-0.670	0.940
2020/01/31 14:20:46.9	1.410	1.100	-0.680	1.020
2020/01/31 14:20:47.0	1.410	1.080	-0.690	1.090
2020/01/31 14:20:47.1	1.410	1.050	-0.700	1.160
2020/01/31 14:20:47.2	1.420	1.020	-0.710	1.210
2020/01/31 14:20:47.3	1.430	0.980	-0.710	1.260
2020/01/31 14:20:47.4	1.440	0.890	-0.710	1.340
2020/01/31 14:20:47.5				
2020/01/31 14:20:47.6	1.460	0.840	-0.710	1.370
2020/01/31 14:20:47.7	1.460	0.780	-0.700	1.380
2020/01/31 14:20:47.8	1.470	0.730	-0.680	1.390
2020/01/31 14:20:47.9				
2020/01/31 14:20:48.0	1.500	0.610	-0.640	1.400
2020/01/31 14:20:48.1	1.510	0.540	-0.620	1.400
2020/01/31 14:20:48.2	1.520	0.480	-0.590	1.390
2020/01/31 14:20:48.3				
2020/01/31 14:20:48.4	1.540	0.350	-0.510	1.370
2020/01/31 14:20:48.5	1.550	0.220	-0.430	1.330
2020/01/31 14:20:48.6				
2020/01/31 14:20:48.7	1.550	0.160	-0.380	1.300
2020/01/31 14:20:48.8	1.550	0.100	-0.330	1.270
2020/01/31 14:20:48.9	1.560	0.040	-0.270	1.240
2020/01/31 14:20:49.0	1.560	-0.020	-0.220	1.210
2020/01/31 14:20:49.1				
2020/01/31 14:20:49.2	1.560	-0.120	-0.110	1.140
2020/01/31 14:20:49.3	1.560	-0.170	-0.060	1.100
2020/01/31 14:20:49.4	1.560	-0.220	-0.000	1.060
2020/01/31 14:20:49.5	1.570	-0.310	0.090	0.960
2020/01/31 14:20:49.6				
2020/01/31 14:20:49.7	1.570	-0.340	0.130	0.900
2020/01/31 14:20:49.8	1.580	-0.380	0.170	0.840
2020/01/31 14:20:49.9	1.580	-0.410	0.210	0.780
2020/01/31 14:20:50.0	1.590	-0.440	0.230	0.720
2020/01/31 14:20:50.1				
2020/01/31 14:20:50.2	1.610	-0.480	0.270	0.580
2020/01/31 14:20:50.3				
2020/01/31 14:20:50.4	1.640	-0.500	0.280	0.420
2020/01/31 14:20:50.5	1.660	-0.510	0.270	0.340
2020/01/31 14:20:50.6	1.680	-0.520	0.260	0.260
2020/01/31 14:20:50.7	1.710	-0.520	0.240	0.160
2020/01/31 14:20:50.8	1.740	-0.510	0.220	0.070
2020/01/31 14:20:50.9	1.760	-0.510	0.190	-0.020
2020/01/31 14:20:51.0				
2020/01/31 14:20:51.1	1.820	-0.490	0.110	-0.200
2020/01/31 14:20:51.2	1.850	-0.480	0.070	-0.300
2020/01/31 14:20:51.3	1.870	-0.460	0.020	-0.390
2020/01/31 14:20:51.4	1.900	-0.450	-0.020	-0.480
2020/01/31 14:20:51.5	1.930	-0.430	-0.070	-0.570
2020/01/31 14:20:51.6	1.960	-0.410	-0.120	-0.660
2020/01/31 14:20:51.7	1.980	-0.400	-0.170	-0.750
2020/01/31 14:20:51.8	2.010	-0.380	-0.220	-0.840
2020/01/31 14:20:51.9	2.030	-0.360	-0.260	-0.920
2020/01/31 14:20:52.0	2.050	-0.340	-0.300	-0.990
2020/01/31 14:20:52.1				
2020/01/31 14:20:52.2	2.090	-0.310	-0.370	-1.130
2020/01/31 14:20:52.3	2.100	-0.290	-0.400	-1.190
2020/01/31 14:20:52.4	2.110	-0.280	-0.420	-1.250
2020/01/31 14:20:52.5	2.120	-0.270	-0.440	-1.300
2020/01/31 14:20:52.6	2.130	-0.250	-0.450	-1.350
2020/01/31 14:20:52.7	2.140	-0.240	-0.450	-1.390
2020/01/31 14:20:52.8	2.140	-0.240	-0.450	-1.430
2020/01/31 14:20:52.9	2.140	-0.230	-0.440	-1.460
2020/01/31 14:20:53.0	2.140	-0.230	-0.430	-1.490
2020/01/31 14:20:53.1	2.140	-0.220	-0.410	-1.510
2020/01/31 14:20:53.2	2.130	-0.220	-0.390	-1.520
2020/01/31 14:20:53.3	2.120	-0.230	-0.360	-1.530
2020/01/31 14:20:53.4	2.110	-0.230	-0.330	-1.530
2020/01/31 14:20:53.5	2.090	-0.230	-0.300	-1.530
2020/01/31 14:20:53.6	2.080	-0.240	-0.260	-1.520
2020/01/31 14:20:53.7	2.050	-0.250	-0.220	-1.510
2020/01/31 14:20:53.8	2.030	-0.260	-0.190	-1.490
2020/01/31 14:20:53.9	2.010	-0.270	-0.150	-1.470
2020/01/31 14:20:54.0	1.980	-0.280	-0.110	-1.450
2020/01/31 14:20:54.1	1.950	-0.290	-0.070	-1.420
2020/01/31 14:20:54.2	1.920	-0.300	-0.030	-1.400
2020/01/31 14:20:54.3	1.890	-0.310	0.000	-1.370
2020/01/31 14:20:54.4	1.860	-0.320	0.030	-1.330
2020/01/31 14:20:54.5	1.830	-0.330	0.060	-1.300
2020/01/31 14:20:54.6	1.790	-0.340	0.090	-1.260
2020/01/31 14:20:54.7	1.760	-0.340	0.110	-1.220
2020/01/31 14:20:54.8	1.720	-0.350	0.130	-1.180
2020/01/31 14:20:54.9	1.690	-0.350	0.150	-1.140
2020/01/31 14:20:55.0	1.650	-0.360	0.160	-1.100
2020/01/31 14:20:55.1	1.620	-0.360	0.170	-1.060
2020/01/31 14:20:55.2	1.590	-0.360	0.170	-1.020
2020/01/31 14:20:55.3	1.550	-0.350	0.170	-0.980
2020/01/31 14:20:55.4	1.520	-0.350	0.160	-0.930
2020/01/31 14:20:55.5	1.490	-0.340	0.150	-0.890
2020/01/31 14:20:55.6	1.460	-0.330	0.140	-0.840
2020/01/31 14:20:55.7	1.430	-0.310	0.130	-0.800
2020/01/31 14:20:55.8	1.400	-0.300	0.110	-0.750
2020/01/31 14:20:55.9	1.370	-0.280	0.080	-0.700
2020/01/31 14:20:56.0	1.340	-0.260	0.060	-0.650
2020/01/31 14:20:56.1	1.310	-0.240	0.030	-0.600
2020/01/31 14:20:56.2	1.280	-0.220	-0.000	-0.550
2020/01/31 14:20:56.3	1.250	-0.190	-0.040	-0.500
2020/01/31 14:20:56.4	1.220	-0.170	-0.070	-0.450
2020/01/31 14:20:56.5	1.200	-0.140	-0.110	-0.400
2020/01/31 14:20:56.6	1.170	-0.110	-0.150	-0.350
2020/01/31 14:20:56.7	1.150	-0.080	-0.190	-0.310
2020/01/31 14:20:56.8	1.140	-0.050	-0.240	-0.260
2020/01/31 14:20:56.9	1.120	-0.030	-0.280	-0.220
2020/01/31 14:20:57.0	1.110	0.000	-0.330	-0.190
2020/01/31 14:20:57.1	1.100	0.030	-0.370	-0.150
2020/01/31 14:20:57.2	1.090	0.060	-0.420	-0.120
2020/01/31 14:20:57.3	1.090	0.090	-0.470	-0.090
2020/01/31 14:20:57.4	1.090	0.120	-0.520	-0.070
2020/01/31 14:20:57.5	1.090	0.150	-0.570	-0.050
2020/01/31 14:20:57.6	1.100	0.180	-0.620	-0.030
2020/01/31 14:20:57.7	1.110	0.210	-0.670	-0.020
2020/01/31 14:20:57.8	1.130	0.240	-0.720	-0.010
2020/01/31 14:20:57.9	1.150	0.270	-0.770	-0.000
2020/01/31 14:20:58.0	1.180	0.300	-0.820	-0.000
2020/01/31 14:20:58.1	1.210	0.320	-0.870	0.000
2020/01/31 14:20:58.2	1.250	0.350	-0.920	-0.000
2020/01/31 14:20:58.3	1.290	0.380	-0.960	-0.010
2020/01/31 14:20:58.4	1.330	0.400	-1.000	-0.010
2020/01/31 14:20:58.5	1.370	0.420	-1.040	-0.020
2020/01/31 14:20:58.6	1.420	0.440	-1.080	-0.030
2020/01/31 14:20:58.7	1.450	0.460	-1.110	-0.040
2020/01/31 14:20:58.8	1.500	0.480	-1.130	-0.060
2020/01/31 14:20:58.9	1.550	0.500	-1.160	-0.070
2020/01/31 14:20:59.0	1.600	0.510	-1.170	-0.080
2020/01/31 14:20:59.1	1.650	0.520	-1.180	-0.100
2020/01/31 14:20:59.2	1.700	0.530	-1.190	-0.110
2020/01/31 14:20:59.3	1.750	0.540	-1.190	-0.120
2020/01/31 14:20:59.4	1.790	0.540	-1.180	-0.130
2020/01/31 14:20:59.5	1.830	0.550	-1.170	-0.140
2020/01/31 14:20:59.6	1.870	0.540	-1.140	-0.140
2020/01/31 14:20:59.7	1.900	0.540	-1.120	-0.150
2020/01/31 14:20:59.8	1.940	0.540	-1.090	-0.150
2020/01/31 14:20:59.9	1.960	0.530	-1.040	-0.150
2020/01/31 14:21:00.0	1.990	0.520	-1.000	-0.140
2020/01/31 14:21:00.1	2.010	0.510	-0.940	-0.130
2020/01/31 14:21:00.2	2.020	0.490	-0.880	-0.110
2020/01/31 14:21:00.3	2.040	0.480	-0.820	-0.090
2020/01/31 14:21:00.4	2.040	0.460	-0.750	-0.070
2020/01/31 14:21:00.5	2.040	0.440	-0.670	-0.040
2020/01/31 14:21:00.6	2.040	0.420	-0.590	-0.010
2020/01/31 14:21:00.7	2.040	0.400	-0.510	0.020
2020/01/31 14:21:00.8	2.030	0.380	-0.430	0.050
2020/01/31 14:21:00.9	2.010	0.350	-0.340	0.090
2020/01/31 14:21:01.0	2.000	0.330	-0.250	0.120
2020/01/31 14:21:01.1	1.980	0.300	-0.160	0.160
2020/01/31 14:21:01.2	1.950	0.280	-0.070	0.200
2020/01/31 14:21:01.3	1.930	0.250	0.010	0.230
2020/01/31 14:21:01.4	1.900	0.230	0.100	0.270
2020/01/31 14:21:01.5	1.870	0.200	0.180	0.300
2020/01/31 14:21:01.6	1.840	0.180	0.260	0.330
2020/01/31 14:21:01.7	1.800	0.150	0.330	0.350
2020/01/31 14:21:01.8	1.770	0.130	0.400	0.380
2020/01/31 14:21:01.9	1.740	0.110	0.460	0.400
2020/01/31 14:21:02.0	1.700	0.090	0.520	0.420
2020/01/31 14:21:02.1	1.670	0.070	0.570	0.430
2020/01/31 14:21:02.2	1.640	0.050	0.620	0.450
2020/01/31 14:21:02.3	1.610	0.040	0.650	0.450
2020/01/31 14:21:02.4	1.580	0.020	0.690	0.460
2020/01/31 14:21:02.5	1.550	0.010	0.710	0.460
2020/01/31 14:21:02.6	1.530	0.000	0.730	0.460
2020/01/31 14:21:02.7	1.520	-0.010	0.750	0.450
2020/01/31 14:21:02.8	1.500	-0.010	0.750	0.440
2020/01/31 14:21:02.9	1.480	-0.020	0.750	0.430
2020/01/31 14:21:03.0	1.460	-0.020	0.750	0.420
2020/01/31 14:21:03.1	1.440	-0.020	0.730	0.410
2020/01/31 14:21:03.2	1.420	-0.020	0.720	0.390
2020/01/31 14:21:03.3	1.400	-0.030	0.700	0.380
2020/01/31 14:21:03.4	1.390	-0.030	0.670	0.360
2020/01/31 14:21:03.5	1.380	-0.030	0.640	0.340
2020/01/31 14:21:03.6	1.360	-0.030	0.610	0.320
2020/01/31 14:21:03.7	1.360	-0.030	0.570	0.310
2020/01/31 14:21:03.8	1.350	-0.030	0.530	0.290
2020/01/31 14:21:03.9	1.330	-0.030	0.490	0.270
2020/01/31 14:21:04.0	1.320	-0.040	0.450	0.250
2020/01/31 14:21:04.1	1.310	-0.050	0.410	0.230
2020/01/31 14:21:04.2	1.300	-0.050	0.360	0.210
2020/01/31 14:21:04.3	1.280	-0.070	0.310	0.190
2020/01/31 14:21:04.4	1.270	-0.080	0.270	0.170
2020/01/31 14:21:04.5	1.260	-0.100	0.220	0.140
2020/01/31 14:21:04.6	1.240	-0.120	0.180	0.120
2020/01/31 14:21:04.7	1.220	-0.140	0.130	0.080
2020/01/31 14:21:04.8	1.210	-0.170	0.090	0.050
2020/01/31 14:21:04.9	1.200	-0.200	0.040	0.010
2020/01/31 14:21:05.0	1.180	-0.230	0.000	-0.030
2020/01/31 14:21:05.1	1.170	-0.260	-0.040	-0.070
2020/01/31 14:21:05.2	1.160	-0.300	-0.080	-0.120
2020/01/31 14:21:05.3	1.150	-0.340	-0.120	-0.160
2020/01/31 14:21:05.4	1.150	-0.380	-0.160	-0.220
2020/01/31 14:21:05.5	1.140	-0.420	-0.200	-0.270
2020/01/31 14:21:05.6	1.140	-0.460	-0.230	-0.340
2020/01/31 14:21:05.7	1.140	-0.500	-0.270	-0.400
2020/01/31 14:21:05.8	1.140	-0.550	-0.300	-0.470
2020/01/31 14:21:05.9	1.150	-0.590	-0.340	-0.540
2020/01/31 14:21:06.0	1.150	-0.630	-0.370	-0.610
2020/01/31 14:21:06.1	1.160	-0.670	-0.400	-0.690
2020/01/31 14:21:06.2	1.160	-0.710	-0.430	-0.760
2020/01/31 14:21:06.3	1.180	-0.740	-0.460	-0.840
2020/01/31 14:21:06.4	1.190	-0.770	-0.490	-0.910
2020/01/31 14:21:06.5	1.200	-0.800	-0.510	-0.990
2020/01/31 14:21:06.6	1.210	-0.820	-0.540	-1.070
2020/01/31 14:21:06.7	1.220	-0.840	-0.560	-1.140
2020/01/31 14:21:06.8	1.240	-0.850	-0.590	-1.220
2020/01/31 14:21:06.9	1.260	-0.860	-0.610	-1.290
2020/01/31 14:21:07.0	1.290	-0.860	-0.630	-1.360
2020/01/31 14:21:07.1	1.310	-0.850	-0.650	-1.420
2020/01/31 14:21:07.2	1.340	-0.840	-0.670	-1.480
2020/01/31 14:21:07.3	1.360	-0.820	-0.700	-1.540
2020/01/31 14:21:07.4	1.390	-0.790	-0.720	-1.600
2020/01/31 14:21:07.5	1.420	-0.760	-0.730	-1.650
2020/01/31 14:21:07.6	1.450	-0.720	-0.750	-1.690
2020/01/31 14:21:07.7	1.480	-0.670	-0.770	-1.750
2020/01/31 14:21:07.8	1.520	-0.610	-0.790	-1.780
2020/01/31 14:21:07.9	1.550	-0.550	-0.810	-1.820
2020/01/31 14:21:08.0	1.580	-0.490	-0.820	-1.850
2020/01/31 14:21:08.1	1.610	-0.420	-0.830	-1.870
2020/01/31 14:21:08.2	1.640	-0.340	-0.840	-1.890
2020/01/31 14:21:08.3	1.670	-0.270	-0.840	-1.900
2020/01/31 14:21:08.4	1.700	-0.190	-0.840	-1.910
2020/01/31 14:21:08.5	1.720	-0.110	-0.840	-1.910
2020/01/31 14:21:08.6	1.750	-0.020	-0.830	-1.900
2020/01/31 14:21:08.7	1.750	0.060	-0.820	-1.880
2020/01/31 14:21:08.8	1.760	0.140	-0.800	-1.870
2020/01/31 14:21:08.9	1.780	0.220	-0.790	-1.840
2020/01/31 14:21:09.0	1.790	0.300	-0.760	-1.810
2020/01/31 14:21:09.1	1.800	0.380	-0.740	-1.770
2020/01/31 14:21:09.2	1.800	0.450	-0.710	-1.720
2020/01/31 14:21:09.3	1.800	0.520	-0.670	-1.670
2020/01/31 14:21:09.4	1.800	0.580	-0.640	-1.610
2020/01/31 14:21:09.5	1.790	0.640	-0.600	-1.550
2020/01/31 14:21:09.6	1.780	0.700	-0.560	-1.480
2020/01/31 14:21:09.7	1.770	0.740	-0.520	-1.400
2020/01/31 14:21:09.8	1.760	0.790	-0.480	-1.320
2020/01/31 14:21:09.9	1.740	0.820	-0.430	-1.240
2020/01/31 14:21:10.0	1.720	0.850	-0.390	-1.150
2020/01/31 14:21:10.1	1.700	0.870	-0.350	-1.060
2020/01/31 14:21:10.2	1.680	0.880	-0.310	-0.960
2020/01/31 14:21:10.3	1.650	0.890	-0.270	-0.870
2020/01/31 14:21:10.4	1.630	0.890	-0.240	-0.780
2020/01/31 14:21:10.5	1.600	0.880	-0.200	-0.680
2020/01/31 14:21:10.6	1.580	0.860	-0.170	-0.590
2020/01/31 14:21:10.7	1.560	0.840	-0.150	-0.500
2020/01/31 14:21:10.8	1.530	0.810	-0.120	-0.410
2020/01/31 14:21:10.9	1.510	0.780	-0.100	-0.340
2020/01/31 14:21:11.0	1.490	0.740	-0.090	-0.260
2020/01/31 14:21:11.1	1.470	0.690	-0.070	-0.190
2020/01/31 14:21:11.2	1.450	0.640	-0.060	-0.130
2020/01/31 14:21:11.3	1.430	0.590	-0.060	-0.080
2020/01/31 14:21:11.4	1.420	0.530	-0.060	-0.030
2020/01/31 14:21:11.5	1.400	0.470	-0.060	0.010
2020/01/31 14:21:11.6	1.390	0.400	-0.070	0.040
2020/01/31 14:21:11.7	1.380	0.340	-0.080	0.070
2020/01/31 14:21:11.8	1.380	0.280	-0.090	0.090
2020/01/31 14:21:11.9	1.370	0.210	-0.100	0.100
2020/01/31 14:21:12.0	1.370	0.140	-0.120	0.100
2020/01/31 14:21:12.1	1.370	0.080	-0.140	0.100
2020/01/31 14:21:12.2	1.370	0.020	-0.150	0.100
2020/01/31 14:21:12.3	1.370	-0.040	-0.170	0.090
2020/01/31 14:21:12.4	1.370	-0.100	-0.190	0.070
2020/01/31 14:21:12.5	1.380	-0.160	-0.210	0.050
2020/01/31 14:21:12.6	1.380	-0.210	-0.230	0.030
2020/01/31 14:21:12.7	1.390	-0.260	-0.240	-0.000
2020/01/31 14:21:12.8	1.400	-0.310	-0.250	-0.030
2020/01/31 14:21:12.9	1.400	-0.350	-0.260	-0.060
2020/01/31 14:21:13.0	1.410	-0.390	-0.270	-0.090
2020/01/31 14:21:13.1	1.420	-0.430	-0.280	-0.120
2020/01/31 14:21:13.2	1.420	-0.460	-0.280	-0.150
2020/01/31 14:21:13.3	1.430	-0.480	-0.290	-0.190
2020/01/31 14:21:13.4	1.440	-0.510	-0.290	-0.220
2020/01/31 14:21:13.5	1.450	-0.520	-0.280	-0.250
2020/01/31 14:21:13.6	1.450	-0.530	-0.280	-0.280
2020/01/31 14:21:13.7	1.440	-0.540	-0.270	-0.310
2020/01/31 14:21:13.8	1.450	-0.540	-0.260	-0.340
2020/01/31 14:21:13.9	1.460	-0.540	-0.250	-0.360
2020/01/31 14:21:14.0	1.470	-0.540	-0.230	-0.390
2020/01/31 14:21:14.1	1.470	-0.530	-0.220	-0.410
2020/01/31 14:21:14.2	1.480	-0.510	-0.200	-0.420
2020/01/31 14:21:14.3	1.490	-0.500	-0.190	-0.440
2020/01/31 14:21:14.4	1.500	-0.470	-0.170	-0.450
2020/01/31 14:21:14.5	1.520	-0.450	-0.160	-0.470
2020/01/31 14:21:14.6	1.530	-0.420	-0.140	-0.480
2020/01/31 14:21:14.7	1.550	-0.380	-0.130	-0.490
2020/01/31 14:21:14.8	1.560	-0.350	-0.110	-0.490
2020/01/31 14:21:14.9	1.580	-0.310	-0.110	-0.500
2020/01/31 14:21:15.0	1.600	-0.270	-0.100	-0.500
2020/01/31 14:21:15.1	1.620	-0.220	-0.100	-0.510
2020/01/31 14:21:15.2	1.640	-0.180	-0.100	-0.510
2020/01/31 14:21:15.3	1.670	-0.130	-0.100	-0.510
2020/01/31 14:21:15.4	1.690	-0.080	-0.110	-0.510
2020/01/31 14:21:15.5	1.720	-0.030	-0.120	-0.510
2020/01/31 14:21:15.6	1.740	0.020	-0.140	-0.500
2020/01/31 14:21:15.7	1.770	0.070	-0.160	-0.500
2020/01/31 14:21:15.8	1.790	0.120	-0.180	-0.490
2020/01/31 14:21:15.9	1.820	0.170	-0.210	-0.490
2020/01/31 14:21:16.0	1.850	0.220	-0.230	-0.480
2020/01/31 14:21:16.1	1.880	0.260	-0.260	-0.480
2020/01/31 14:21:16.2	1.900	0.310	-0.290	-0.470
2020/01/31 14:21:16.3	1.930	0.350	-0.320	-0.460
2020/01/31 14:21:16.4	1.960	0.380	-0.350	-0.460
2020/01/31 14:21:16.5	1.980	0.420	-0.380	-0.450
2020/01/31 14:21:16.6	2.010	0.440	-0.410	-0.440
2020/01/31 14:21:16.7	2.040	0.470	-0.440	-0.430
2020/01/31 14:21:16.8	2.060	0.490	-0.460	-0.430
2020/01/31 14:21:16.9	2.080	0.510	-0.490	-0.420
2020/01/31 14:21:17.0	2.090	0.520	-0.510	-0.410
2020/01/31 14:21:17.1	2.110	0.520	-0.530	-0.400
2020/01/31 14:21:17.2	2.120	0.520	-0.540	-0.380
2020/01/31 14:21:17.3	2.130	0.520	-0.550	-0.370
2020/01/31 14:21:17.4	2.140	0.510	-0.550	-0.360
2020/01/31 14:21:17.5	2.140	0.490	-0.540	-0.340
2020/01/31 14:21:17.6	2.140	0.470	-0.530	-0.320
2020/01/31 14:21:17.7	2.140	0.450	-0.520	-0.310
2020/01/31 14:21:17.8	2.140	0.420	-0.500	-0.290
2020/01/31 14:21:17.9	2.130	0.390	-0.480	-0.270
2020/01/31 14:21:18.0	2.120	0.350	-0.440	-0.250
2020/01/31 14:21:18.1	2.110	0.310	-0.400	-0.230
2020/01/31 14:21:18.2	2.090	0.260	-0.360	-0.210
2020/01/31 14:21:18.3	2.070	0.210	-0.310	-0.190
2020/01/31 14:21:18.4	2.050	0.160	-0.260	-0.170
2020/01/31 14:21:18.5	2.030	0.110	-0.200	-0.150
2020/01/31 14:21:18.6	2.010	0.060	-0.140	-0.130
2020/01/31 14:21:18.7	1.980	0.010	-0.070	-0.110
2020/01/31 14:21:18.8	1.960	-0.050	-0.000	-0.090
2020/01/31 14:21:18.9	1.930	-0.100	0.060	-0.070
2020/01/31 14:21:19.0	1.890	-0.160	0.140	-0.050
2020/01/31 14:21:19.1	1.860	-0.210	0.210	-0.030
2020/01/31 14:21:19.2	1.820	-0.260	0.280	-0.010
2020/01/31 14:21:19.3	1.790	-0.310	0.350	0.010
2020/01/31 14:21:19.4	1.750	-0.360	0.420	0.030
2020/01/31 14:21:19.5	1.710	-0.400	0.490	0.050
2020/01/31 14:21:19.6	1.680	-0.440	0.550	0.070
2020/01/31 14:21:19.7	1.640	-0.480	0.610	0.090
2020/01/31 14:21:19.8	1.600	-0.510	0.670	0.110
2020/01/31 14:21:19.9	1.560	-0.540	0.710	0.130
2020/01/31 14:21:20.0	1.520	-0.570	0.760	0.140
2020/01/31 14:21:20.1	1.480	-0.590	0.800	0.160
2020/01/31 14:21:20.2	1.440	-0.610	0.830	0.170
2020/01/31 14:21:20.3	1.400	-0.620	0.850	0.190
2020/01/31 14:21:20.4	1.360	-0.630	0.860	0.200
2020/01/31 14:21:20.5	1.320	-0.630	0.870	0.200
2020/01/31 14:21:20.6	1.280	-0.630	0.860	0.210
2020/01/31 14:21:20.7	1.250	-0.630	0.850	0.210
2020/01/31 14:21:20.8	1.220	-0.620	0.830	0.200
2020/01/31 14:21:20.9	1.180	-0.600	0.790	0.190
2020/01/31 14:21:21.0	1.150	-0.580	0.750	0.180
2020/01/31 14:21:21.1	1.120	-0.560	0.700	0.160
2020/01/31 14:21:21.2	1.090	-0.540	0.640	0.140
2020/01/31 14:21:21.3	1.070	-0.510	0.570	0.110
2020/01/31 14:21:21.4	1.040	-0.480	0.490	0.070
2020/01/31 14:21:21.5	1.020	-0.440	0.400	0.040
2020/01/31 14:21:21.6	1.000	-0.400	0.310	-0.010
2020/01/31 14:21:21.7	0.980	-0.360	0.210	-0.060
2020/01/31 14:21:21.8	0.960	-0.310	0.110	-0.110
2020/01/31 14:21:21.9	0.950	-0.270	-0.000	-0.160
2020/01/31 14:21:22.0	0.930	-0.220	-0.120	-0.220
2020/01/31 14:21:22.1	0.920	-0.170	-0.240	-0.280
2020/01/31 14:21:22.2	0.910	-0.120	-0.360	-0.340
2020/01/31 14:21:22.3	0.900	-0.070	-0.480	-0.400
2020/01/31 14:21:22.4	0.890	-0.010	-0.600	-0.460
2020/01/31 14:21:22.5	0.890	0.040	-0.710	-0.530
2020/01/31 14:21:22.6	0.880	0.090	-0.830	-0.590
2020/01/31 14:21:22.7	0.850	0.150	-0.950	-0.660
2020/01/31 14:21:22.8	0.850	0.200	-1.050	-0.720
2020/01/31 14:21:22.9	0.850	0.250	-1.160	-0.780
2020/01/31 14:21:23.0	0.850	0.300	-1.260	-0.830
2020/01/31 14:21:23.1	0.840	0.340	-1.350	-0.890
2020/01/31 14:21:23.2	0.840	0.390	-1.430	-0.940
2020/01/31 14:21:23.3	0.840	0.430	-1.510	-0.990
2020/01/31 14:21:23.4	0.840	0.470	-1.570	-1.040
2020/01/31 14:21:23.5	0.850	0.510	-1.630	-1.080
2020/01/31 14:21:23.6	0.850	0.550	-1.670	-1.130
2020/01/31 14:21:23.7	0.850	0.580	-1.710	-1.170
2020/01/31 14:21:23.8	0.860	0.610	-1.730	-1.210
2020/01/31 14:21:23.9	0.860	0.630	-1.740	-1.240
2020/01/31 14:21:24.0	0.860	0.650	-1.750	-1.270
2020/01/31 14:21:24.1	0.870	0.670	-1.740	-1.290
2020/01/31 14:21:24.2	0.870	0.680	-1.720	-1.310
2020/01/31 14:21:24.3	0.880	0.690	-1.690	-1.330
2020/01/31 14:21:24.4	0.890	0.690	-1.660	-1.340
2020/01/31 14:21:24.5	0.890	0.690	-1.610	-1.350
2020/01/31 14:21:24.6	0.900	0.680	-1.560	-1.360
2020/01/31 14:21:24.7	0.900	0.670	-1.500	-1.360
2020/01/31 14:21:24.8	0.910	0.660	-1.430	-1.360
2020/01/31 14:21:24.9	0.920	0.650	-1.360	-1.360
2020/01/31 14:21:25.0	0.930	0.620	-1.280	-1.360
2020/01/31 14:21:25.1	0.950	0.600	-1.200	-1.350
2020/01/31 14:21:25.2	0.960	0.570	-1.110	-1.350
2020/01/31 14:21:25.3	0.980	0.540	-1.020	-1.340
2020/01/31 14:21:25.4	1.000	0.510	-0.940	-1.330
2020/01/31 14:21:25.5	1.020	0.470	-0.850	-1.320
2020/01/31 14:21:25.6	1.040	0.440	-0.760	-1.300
2020/01/31 14:21:25.7	1.060	0.390	-0.660	-1.290
2020/01/31 14:21:25.8	1.080	0.350	-0.570	-1.280
2020/01/31 14:21:25.9	1.110	0.310	-0.480	-1.260
2020/01/31 14:21:26.0	1.130	0.260	-0.400	-1.240
2020/01/31 14:21:26.1	1.160	0.210	-0.310	-1.220
2020/01/31 14:21:26.2	1.180	0.160	-0.230	-1.200
2020/01/31 14:21:26.3	1.210	0.110	-0.150	-1.180
2020/01/31 14:21:26.4	1.230	0.060	-0.070	-1.150
2020/01/31 14:21:26.5	1.260	0.010	0.000	-1.130
2020/01/31 14:21:26.6	1.280	-0.040	0.070	-1.100
2020/01/31 14:21:26.7	1.290	-0.100	0.130	-1.070
2020/01/31 14:21:26.8	1.310	-0.150	0.190	-1.040
2020/01/31 14:21:26.9	1.330	-0.200	0.250	-1.010
2020/01/31 14:21:27.0	1.350	-0.240	0.300	-0.980
2020/01/31 14:21:27.1	1.360	-0.290	0.350	-0.950
2020/01/31 14:21:27.2	1.380	-0.340	0.390	-0.910
2020/01/31 14:21:27.3	1.390	-0.380	0.430	-0.880
2020/01/31 14:21:27.4	1.390	-0.420	0.460	-0.840
2020/01/31 14:21:27.5	1.400	-0.460	0.490	-0.800
2020/01/31 14:21:27.6	1.390	-0.500	0.510	-0.760
2020/01/31 14:21:27.7	1.390	-0.530	0.540	-0.720
2020/01/31 14:21:27.8	1.380	-0.560	0.560	-0.670
2020/01/31 14:21:27.9	1.370	-0.590	0.570	-0.620
2020/01/31 14:21:28.0	1.350	-0.610	0.580	-0.570
2020/01/31 14:21:28.1	1.330	-0.630	0.590	-0.520
2020/01/31 14:21:28.2	1.310	-0.650	0.600	-0.460
2020/01/31 14:21:28.3	1.280	-0.660	0.600	-0.410
2020/01/31 14:21:28.4	1.260	-0.670	0.600	-0.350
2020/01/31 14:21:28.5	1.230	-0.670	0.600	-0.290
2020/01/31 14:21:28.6	1.200	-0.670	0.600	-0.240
2020/01/31 14:21:28.7	1.170	-0.670	0.590	-0.180
2020/01/31 14:21:28.8	1.140	-0.660	0.590	-0.130
2020/01/31 14:21:28.9	1.110	-0.650	0.570	-0.070
2020/01/31 14:21:29.0	1.070	-0.640	0.560	-0.020
2020/01/31 14:21:29.1	1.040	-0.620	0.550	0.040
2020/01/31 14:21:29.2	1.010	-0.590	0.530	0.090
2020/01/31 14:21:29.3	0.980	-0.570	0.510	0.140
2020/01/31 14:21:29.4	0.950	-0.540	0.490	0.190
2020/01/31 14:21:29.5	0.920	-0.500	0.470	0.240
2020/01/31 14:21:29.6	0.900	-0.460	0.440	0.280
2020/01/31 14:21:29.7	0.890	-0.420	0.410	0.320
2020/01/31 14:21:29.8	0.870	-0.380	0.380	0.370
2020/01/31 14:21:29.9	0.850	-0.330	0.350	0.410
2020/01/31 14:21:30.0	0.830	-0.280	0.320	0.460
2020/01/31 14:21:30.1	0.810	-0.220	0.290	0.500
2020/01/31 14:21:30.2	0.800	-0.170	0.250	0.540
2020/01/31 14:21:30.3	0.780	-0.110	0.220	0.590
2020/01/31 14:21:30.4	0.770	-0.050	0.190	0.630
2020/01/31 14:21:30.5	0.750	0.010	0.160	0.680
2020/01/31 14:21:30.6	0.740	0.070	0.130	0.720
2020/01/31 14:21:30.7	0.720	0.130	0.100	0.770
2020/01/31 14:21:30.8	0.700	0.180	0.070	0.820
2020/01/31 14:21:30.9	0.680	0.240	0.050	0.870
2020/01/31 14:21:31.0	0.660	0.290	0.030	0.920
2020/01/31 14:21:31.1	0.630	0.350	0.020	0.970
2020/01/31 14:21:31.2	0.600	0.390	0.000	1.030
2020/01/31 14:21:31.3	0.570	0.440	-0.000	1.080
2020/01/31 14:21:31.4	0.540	0.480	-0.010	1.130
2020/01/31 14:21:31.5	0.510	0.520	-0.010	1.180
2020/01/31 14:21:31.6	0.470	0.550	-0.010	1.230
2020/01/31 14:21:31.7	0.430	0.580	-0.010	1.280
2020/01/31 14:21:31.8	0.390	0.600	-0.010	1.330
2020/01/31 14:21:31.9	0.350	0.620	0.000	1.370
2020/01/31 14:21:32.0	0.310	0.630	0.010	1.410
2020/01/31 14:21:32.1	0.270	0.630	0.020	1.450
2020/01/31 14:21:32.2	0.220	0.630	0.030	1.480
2020/01/31 14:21:32.3	0.180	0.630	0.030	1.510
2020/01/31 14:21:32.4	0.130	0.620	0.040	1.530
2020/01/31 14:21:32.5	0.090	0.600	0.050	1.540
2020/01/31 14:21:32.6	0.050	0.580	0.050	1.550
2020/01/31 14:21:32.7	0.000	0.550	0.050	1.550
2020/01/31 14:21:32.8	359.960	0.520	0.050	1.550
2020/01/31 14:21:32.9	359.930	0.480	0.040	1.540
2020/01/31 14:21:33.0	359.900	0.440	0.020	1.520
2020/01/31 14:21:33.1	359.870	0.400	0.010	1.490
2020/01/31 14:21:33.2	359.840	0.350	-0.020	1.460
2020/01/31 14:21:33.3	359.820	0.300	-0.050	1.410
2020/01/31 14:21:33.4	359.810	0.250	-0.090	1.360
2020/01/31 14:21:33.5	359.790	0.190	-0.130	1.300
2020/01/31 14:21:33.6	359.790	0.140	-0.180	1.230
2020/01/31 14:21:33.7	359.770	0.090	-0.230	1.150
2020/01/31 14:21:33.8	359.780	0.030	-0.290	1.070
2020/01/31 14:21:33.9	359.780	-0.020	-0.350	0.980
2020/01/31 14:21:34.0	359.790	-0.070	-0.420	0.880
2020/01/31 14:21:34.1	359.800	-0.130	-0.500	0.770
2020/01/31 14:21:34.2	359.820	-0.170	-0.580	0.650
2020/01/31 14:21:34.3	359.840	-0.220	-0.660	0.530
2020/01/31 14:21:34.4	359.870	-0.270	-0.740	0.400
2020/01/31 14:21:34.5	359.900	-0.310	-0.820	0.270
2020/01/31 14:21:34.6	359.930	-0.350	-0.900	0.130
2020/01/31 14:21:34.7	359.940	-0.390	-0.990	-0.020
2020/01/31 14:21:34.8	359.980	-0.420	-1.070	-0.170
2020/01/31 14:21:34.9	0.020	-0.450	-1.150	-0.320
2020/01/31 14:21:35.0	0.060	-0.470	-1.220	-0.470
2020/01/31 14:21:35.1	0.100	-0.490	-1.300	-0.620
2020/01/31 14:21:35.2	0.150	-0.510	-1.360	-0.770
2020/01/31 14:21:35.3	0.200	-0.520	-1.430	-0.930
2020/01/31 14:21:35.4	0.250	-0.530	-1.480	-1.080
2020/01/31 14:21:35.5	0.300	-0.530	-1.540	-1.230
2020/01/31 14:21:35.6	0.350	-0.530	-1.580	-1.380
2020/01/31 14:21:35.7	0.410	-0.520	-1.620	-1.530
2020/01/31 14:21:35.8	0.460	-0.510	-1.650	-1.670
2020/01/31 14:21:35.9	0.520	-0.500	-1.680	-1.800
2020/01/31 14:21:36.0	0.570	-0.480	-1.690	-1.930
2020/01/31 14:21:36.1	0.620	-0.450	-1.710	-2.060
2020/01/31 14:21:36.2	0.670	-0.430	-1.710	-2.180
2020/01/31 14:21:36.3	0.720	-0.390	-1.700	-2.290
2020/01/31 14:21:36.4	0.770	-0.360	-1.690	-2.400
2020/01/31 14:21:36.5	0.820	-0.320	-1.670	-2.500
2020/01/31 14:21:36.6	0.870	-0.280	-1.640	-2.590
2020/01/31 14:21:36.7	0.910	-0.240	-1.610	-2.680
2020/01/31 14:21:36.8	0.950	-0.190	-1.560	-2.760
2020/01/31 14:21:36.9	1.000	-0.150	-1.510	-2.830
2020/01/31 14:21:37.0	1.040	-0.100	-1.450	-2.890
2020/01/31 14:21:37.1	1.080	-0.050	-1.390	-2.950
2020/01/31 14:21:37.2	1.120	0.000	-1.320	-3.000
2020/01/31 14:21:37.3	1.150	0.050	-1.250	-3.030
2020/01/31 14:21:37.4	1.190	0.100	-1.160	-3.060
2020/01/31 14:21:37.5	1.220	0.150	-1.080	-3.090
2020/01/31 14:21:37.6	1.250	0.200	-0.990	-3.100
2020/01/31 14:21:37.7	1.270	0.250	-0.900	-3.100
2020/01/31 14:21:37.8	1.290	0.300	-0.810	-3.100
2020/01/31 14:21:37.9	1.320	0.350	-0.710	-3.090
2020/01/31 14:21:38.0	1.350	0.390	-0.610	-3.070
2020/01/31 14:21:38.1	1.370	0.430	-0.510	-3.040
2020/01/31 14:21:38.2	1.390	0.470	-0.410	-3.010
2020/01/31 14:21:38.3	1.410	0.500	-0.320	-2.970
2020/01/31 14:21:38.4	1.430	0.540	-0.220	-2.910
2020/01/31 14:21:38.5	1.440	0.560	-0.130	-2.850
2020/01/31 14:21:38.6	1.460	0.590	-0.040	-2.780
2020/01/31 14:21:38.7	1.460	0.610	0.050	-2.710
2020/01/31 14:21:38.8	1.470	0.620	0.140	-2.620
2020/01/31 14:21:38.9	1.470	0.640	0.220	-2.530
2020/01/31 14:21:39.0	1.470	0.640	0.300	-2.430
2020/01/31 14:21:39.1	1.460	0.640	0.380	-2.320
2020/01/31 14:21:39.2	1.460	0.640	0.450	-2.200
2020/01/31 14:21:39.3	1.440	0.630	0.520	-2.080
2020/01/31 14:21:39.4	1.430	0.620	0.590	-1.960
2020/01/31 14:21:39.5	1.410	0.600	0.650	-1.830
2020/01/31 14:21:39.6	1.380	0.580	0.710	-1.690
2020/01/31 14:21:39.7	1.370	0.550	0.760	-1.550
2020/01/31 14:21:39.8	1.340	0.520	0.810	-1.410
2020/01/31 14:21:39.9	1.310	0.490	0.860	-1.260
2020/01/31 14:21:40.0	1.280	0.450	0.900	-1.120
2020/01/31 14:21:40.1	1.240	0.410	0.940	-0.980
2020/01/31 14:21:40.2	1.210	0.360	0.970	-0.840
2020/01/31 14:21:40.3	1.170	0.320	1.000	-0.690
2020/01/31 14:21:40.4	1.130	0.270	1.030	-0.550
2020/01/31 14:21:40.5	1.090	0.220	1.050	-0.410
2020/01/31 14:21:40.6	1.050	0.160	1.060	-0.280
2020/01/31 14:21:40.7	1.030	0.110	1.070	-0.140
2020/01/31 14:21:40.8	0.990	0.060	1.080	-0.010
2020/01/31 14:21:40.9	0.950	0.000	1.080	0.120
2020/01/31 14:21:41.0	0.910	-0.050	1.070	0.240
2020/01/31 14:21:41.1	0.870	-0.100	1.060	0.370
2020/01/31 14:21:41.2	0.840	-0.160	1.050	0.480
2020/01/31 14:21:41.3	0.800	-0.200	1.020	0.590
2020/01/31 14:21:41.4	0.760	-0.250	1.000	0.700
2020/01/31 14:21:41.5	0.730	-0.300	0.970	0.810
2020/01/31 14:21:41.6	0.690	-0.340	0.930	0.900
2020/01/31 14:21:41.7	0.670	-0.380	0.890	1.000
2020/01/31 14:21:41.8	0.640	-0.410	0.850	1.090
2020/01/31 14:21:41.9	0.610	-0.440	0.800	1.170
2020/01/31 14:21:42.0	0.570	-0.470	0.750	1.250
2020/01/31 14:21:42.1	0.540	-0.490	0.690	1.330
2020/01/31 14:21:42.2	0.510	-0.510	0.630	1.400
2020/01/31 14:21:42.3	0.490	-0.530	0.570	1.460
2020/01/31 14:21:42.4	0.460	-0.540	0.500	1.520
2020/01/31 14:21:42.5	0.430	-0.550	0.430	1.580
2020/01/31 14:21:42.6	0.410	-0.550	0.360	1.630
2020/01/31 14:21:42.7	0.390	-0.550	0.290	1.670
2020/01/31 14:21:42.8	0.370	-0.540	0.210	1.710
2020/01/31 14:21:42.9	0.350	-0.530	0.130	1.740
2020/01/31 14:21:43.0	0.320	-0.520	0.050	1.770
2020/01/31 14:21:43.1	0.300	-0.500	-0.030	1.790
2020/01/31 14:21:43.2	0.280	-0.480	-0.110	1.810
2020/01/31 14:21:43.3	0.270	-0.450	-0.190	1.820
2020/01/31 14:21:43.4	0.250	-0.420	-0.270	1.830
2020/01/31 14:21:43.5	0.230	-0.390	-0.350	1.830
2020/01/31 14:21:43.6	0.220	-0.360	-0.430	1.820
2020/01/31 14:21:43.7	0.210	-0.320	-0.510	1.800
2020/01/31 14:21:43.8	0.200	-0.280	-0.580	1.790
2020/01/31 14:21:43.9	0.190	-0.240	-0.660	1.770
2020/01/31 14:21:44.0	0.180	-0.200	-0.730	1.750
2020/01/31 14:21:44.1	0.170	-0.150	-0.800	1.720
2020/01/31 14:21:44.2	0.170	-0.110	-0.860	1.690
2020/01/31 14:21:44.3	0.170	-0.070	-0.930	1.650
2020/01/31 14:21:44.4	0.170	-0.020	-0.990	1.620
2020/01/31 14:21:44.5	0.170	0.020	-1.040	1.580
2020/01/31 14:21:44.6	0.180	0.060	-1.090	1.530
2020/01/31 14:21:44.7	0.170	0.110	-1.140	1.480
2020/01/31 14:21:44.8	0.180	0.150	-1.180	1.430
2020/01/31 14:21:44.9	0.190	0.180	-1.210	1.380
2020/01/31 14:21:45.0	0.210	0.220	-1.240	1.330
2020/01/31 14:21:45.1	0.220	0.260	-1.270	1.270
2020/01/31 14:21:45.2	0.240	0.290	-1.290	1.210
2020/01/31 14:21:45.3	0.260	0.320	-1.300	1.150
2020/01/31 14:21:45.4	0.280	0.340	-1.310	1.080
2020/01/31 14:21:45.5	0.300	0.370	-1.310	1.020
2020/01/31 14:21:45.6	0.330	0.390	-1.310	0.950
2020/01/31 14:21:45.7	0.350	0.410	-1.300	0.870
2020/01/31 14:21:45.8	0.380	0.420	-1.290	0.800
2020/01/31 14:21:45.9	0.410	0.430	-1.270	0.730
2020/01/31 14:21:46.0	0.440	0.440	-1.250	0.650
2020/01/31 14:21:46.1	0.470	0.440	-1.220	0.580
2020/01/31 14:21:46.2	0.500	0.440	-1.190	0.500
2020/01/31 14:21:46.3	0.530	0.440	-1.160	0.420
2020/01/31 14:21:46.4	0.560	0.430	-1.120	0.340
2020/01/31 14:21:46.5	0.590	0.420	-1.080	0.270
2020/01/31 14:21:46.6	0.620	0.400	-1.030	0.190
2020/01/31 14:21:46.7	0.660	0.380	-0.980	0.110
2020/01/31 14:21:46.8	0.690	0.360	-0.920	0.040
2020/01/31 14:21:46.9	0.720	0.340	-0.870	-0.040
2020/01/31 14:21:47.0	0.750	0.310	-0.810	-0.110
2020/01/31 14:21:47.1	0.780	0.280	-0.750	-0.180
2020/01/31 14:21:47.2	0.800	0.250	-0.680	-0.250
2020/01/31 14:21:47.3	0.830	0.220	-0.620	-0.310
2020/01/31 14:21:47.4	0.850	0.190	-0.550	-0.380
2020/01/31 14:21:47.5	0.880	0.150	-0.490	-0.440
2020/01/31 14:21:47.6	0.900	0.110	-0.420	-0.500
2020/01/31 14:21:47.7	0.910	0.070	-0.350	-0.550
2020/01/31 14:21:47.8	0.930	0.040	-0.290	-0.600
2020/01/31 14:21:47.9	0.940	-0.000	-0.220	-0.650
2020/01/31 14:21:48.0	0.950	-0.040	-0.160	-0.700
2020/01/31 14:21:48.1	0.970	-0.080	-0.100	-0.750
2020/01/31 14:21:48.2	0.970	-0.120	-0.050	-0.790
2020/01/31 14:21:48.3	0.980	-0.160	0.010	-0.840
2020/01/31 14:21:48.4	0.990	-0.200	0.060	-0.880
2020/01/31 14:21:48.5	0.990	-0.240	0.100	-0.920
2020/01/31 14:21:48.6	0.990	-0.270	0.150	-0.960
2020/01/31 14:21:48.7	0.980	-0.310	0.180	-1.000
2020/01/31 14:21:48.8	0.980	-0.340	0.220	-1.040
2020/01/31 14:21:48.9	0.980	-0.370	0.240	-1.080
2020/01/31 14:21:49.0	0.970	-0.390	0.270	-1.110
2020/01/31 14:21:49.1	0.970	-0.420	0.280	-1.150
2020/01/31 14:21:49.2	0.960	-0.440	0.300	-1.180
2020/01/31 14:21:49.3	0.960	-0.450	0.300	-1.220
2020/01/31 14:21:49.4	0.950	-0.470	0.310	-1.250
2020/01/31 14:21:49.5	0.940	-0.480	0.300	-1.280
2020/01/31 14:21:49.6	0.930	-0.480	0.300	-1.310
2020/01/31 14:21:49.7	0.910	-0.490	0.290	-1.340
2020/01/31 14:21:49.8	0.900	-0.480	0.270	-1.370
2020/01/31 14:21:49.9	0.880	-0.480	0.250	-1.390
2020/01/31 14:21:50.0	0.870	-0.470	0.230	-1.410
2020/01/31 14:21:50.1	0.860	-0.450	0.210	-1.430
2020/01/31 14:21:50.2	0.840	-0.440	0.180	-1.440
2020/01/31 14:21:50.3	0.830	-0.410	0.150	-1.450
2020/01/31 14:21:50.4	0.820	-0.390	0.120	-1.450
2020/01/31 14:21:50.5	0.800	-0.360	0.090	-1.460
2020/01/31 14:21:50.6	0.790	-0.320	0.050	-1.450
2020/01/31 14:21:50.7	0.790	-0.290	0.020	-1.450
2020/01/31 14:21:50.8	0.770	-0.250	-0.020	-1.440
2020/01/31 14:21:50.9	0.760	-0.210	-0.050	-1.420
2020/01/31 14:21:51.0	0.750	-0.160	-0.080	-1.410
2020/01/31 14:21:51.1	0.730	-0.120	-0.110	-1.390
2020/01/31 14:21:51.2	0.720	-0.070	-0.140	-1.360
2020/01/31 14:21:51.3	0.700	-0.020	-0.170	-1.330
2020/01/31 14:21:51.4	0.690	0.030	-0.190	-1.300
2020/01/31 14:21:51.5	0.680	0.080	-0.210	-1.270
2020/01/31 14:21:51.6	0.660	0.130	-0.230	-1.230
2020/01/31 14:21:51.7	0.650	0.180	-0.250	-1.180
2020/01/31 14:21:51.8	0.630	0.230	-0.270	-1.140
2020/01/31 14:21:51.9	0.620	0.280	-0.280	-1.090
2020/01/31 14:21:52.0	0.600	0.330	-0.290	-1.040
2020/01/31 14:21:52.1	0.590	0.370	-0.290	-0.980
2020/01/31 14:21:52.2	0.570	0.420	-0.300	-0.920
2020/01/31 14:21:52.3	0.550	0.460	-0.300	-0.860
2020/01/31 14:21:52.4	0.530	0.500	-0.290	-0.800
2020/01/31 14:21:52.5	0.510	0.540	-0.290	-0.730
2020/01/31 14:21:52.6	0.490	0.570	-0.280	-0.660
2020/01/31 14:21:52.7	0.440	0.600	-0.270	-0.590
2020/01/31 14:21:52.8	0.420	0.630	-0.260	-0.520
2020/01/31 14:21:52.9	0.390	0.650	-0.250	-0.450
2020/01/31 14:21:53.0	0.360	0.670	-0.230	-0.370
2020/01/31 14:21:53.1	0.330	0.690	-0.210	-0.300
2020/01/31 14:21:53.2	0.290	0.700	-0.190	-0.220
2020/01/31 14:21:53.3	0.260	0.710	-0.170	-0.150
2020/01/31 14:21:53.4	0.220	0.710	-0.160	-0.080
2020/01/31 14:21:53.5	0.190	0.710	-0.140	-0.010
2020/01/31 14:21:53.6	0.150	0.700	-0.120	0.060
2020/01/31 14:21:53.7	0.100	0.690	-0.100	0.120
2020/01/31 14:21:53.8	0.060	0.680	-0.080	0.190
2020/01/31 14:21:53.9	0.030	0.660	-0.070	0.240
2020/01/31 14:21:54.0	359.990	0.640	-0.050	0.300
2020/01/31 14:21:54.1	359.960	0.610	-0.040	0.350
2020/01/31 14:21:54.2	359.930	0.580	-0.030	0.400
2020/01/31 14:21:54.3	359.900	0.550	-0.030	0.440
2020/01/31 14:21:54.4	359.880	0.520	-0.020	0.480
2020/01/31 14:21:54.5	359.850	0.480	-0.020	0.510
2020/01/31 14:21:54.6	359.840	0.440	-0.030	0.530
2020/01/31 14:21:54.7	359.840	0.410	-0.030	0.560
2020/01/31 14:21:54.8	359.830	0.370	-0.040	0.570
2020/01/31 14:21:54.9	359.830	0.330	-0.050	0.590
2020/01/31 14:21:55.0	359.830	0.290	-0.070	0.590
2020/01/31 14:21:55.1	359.830	0.240	-0.090	0.600
2020/01/31 14:21:55.2	359.830	0.200	-0.110	0.600
2020/01/31 14:21:55.3	359.840	0.160	-0.140	0.590
2020/01/31 14:21:55.4	359.850	0.120	-0.160	0.590
2020/01/31 14:21:55.5	359.870	0.090	-0.190	0.570
2020/01/31 14:21:55.6	359.880	0.050	-0.220	0.560
2020/01/31 14:21:55.7	359.900	0.010	-0.250	0.540
2020/01/31 14:21:55.8	359.920	-0.020	-0.280	0.520
2020/01/31 14:21:55.9	359.940	-0.060	-0.310	0.500
2020/01/31 14:21:56.0	359.960	-0.090	-0.340	0.470
2020/01/31 14:21:56.1	359.990	-0.120	-0.370	0.440
2020/01/31 14:21:56.2	0.010	-0.150	-0.400	0.410
2020/01/31 14:21:56.3	0.040	-0.180	-0.420	0.370
2020/01/31 14:21:56.4	0.070	-0.210	-0.440	0.330
2020/01/31 14:21:56.5	0.090	-0.240	-0.470	0.290
2020/01/31 14:21:56.6	0.120	-0.260	-0.490	0.240
2020/01/31 14:21:56.7	0.140	-0.290	-0.500	0.190
2020/01/31 14:21:56.8	0.170	-0.310	-0.510	0.140
2020/01/31 14:21:56.9	0.200	-0.330	-0.530	0.090
2020/01/31 14:21:57.0	0.240	-0.350	-0.540	0.040
2020/01/31 14:21:57.1	0.270	-0.370	-0.550	-0.020
2020/01/31 14:21:57.2	0.300	-0.390	-0.550	-0.070
2020/01/31 14:21:57.3	0.340	-0.400	-0.560	-0.130
2020/01/31 14:21:57.4	0.370	-0.420	-0.560	-0.190
2020/01/31 14:21:57.5	0.400	-0.430	-0.560	-0.240
2020/01/31 14:21:57.6	0.430	-0.450	-0.550	-0.290
2020/01/31 14:21:57.7	0.450	-0.460	-0.550	-0.350
2020/01/31 14:21:57.8	0.480	-0.470	-0.540	-0.390
2020/01/31 14:21:57.9	0.510	-0.480	-0.540	-0.440
2020/01/31 14:21:58.0	0.540	-0.490	-0.530	-0.480
2020/01/31 14:21:58.1	0.560	-0.500	-0.510	-0.520
2020/01/31 14:21:58.2	0.580	-0.510	-0.500	-0.550
2020/01/31 14:21:58.3	0.600	-0.520	-0.480	-0.580
2020/01/31 14:21:58.4	0.620	-0.530	-0.470	-0.610
2020/01/31 14:21:58.5	0.630	-0.530	-0.450	-0.640
2020/01/31 14:21:58.6	0.640	-0.540	-0.430	-0.660
2020/01/31 14:21:58.7	0.660	-0.540	-0.410	-0.680
2020/01/31 14:21:58.8	0.670	-0.540	-0.390	-0.700
2020/01/31 14:21:58.9	0.680	-0.550	-0.370	-0.710
2020/01/31 14:21:59.0	0.690	-0.550	-0.350	-0.720
2020/01/31 14:21:59.1	0.700	-0.550	-0.330	-0.730
2020/01/31 14:21:59.2	0.700	-0.540	-0.310	-0.730
2020/01/31 14:21:59.3	0.710	-0.540	-0.290	-0.730
2020/01/31 14:21:59.4	0.710	-0.530	-0.270	-0.730
2020/01/31 14:21:59.5	0.710	-0.530	-0.250	-0.720
2020/01/31 14:21:59.6	0.710	-0.520	-0.230	-0.720
2020/01/31 14:21:59.7	0.720	-0.510	-0.220	-0.710
2020/01/31 14:21:59.8	0.720	-0.500	-0.200	-0.690
2020/01/31 14:21:59.9	0.720	-0.480	-0.170	-0.670
2020/01/31 14:22:00.0	0.710	-0.460	-0.150	-0.650
2020/01/31 14:22:00.1	0.700	-0.440	-0.130	-0.630
2020/01/31 14:22:00.2	0.690	-0.420	-0.100	-0.600
2020/01/31 14:22:00.3	0.680	-0.400	-0.080	-0.560
2020/01/31 14:22:00.4	0.660	-0.380	-0.050	-0.520
2020/01/31 14:22:00.5	0.640	-0.350	-0.020	-0.480
2020/01/31 14:22:00.6	0.620	-0.320	0.000	-0.440
2020/01/31 14:22:00.7	0.610	-0.290	0.030	-0.390
2020/01/31 14:22:00.8	0.580	-0.260	0.060	-0.340
2020/01/31 14:22:00.9	0.560	-0.220	0.090	-0.280
2020/01/31 14:22:01.0	0.530	-0.190	0.120	-0.230
2020/01/31 14:22:01.1	0.500	-0.150	0.150	-0.170
2020/01/31 14:22:01.2	0.470	-0.110	0.180	-0.110
2020/01/31 14:22:01.3	0.440	-0.070	0.200	-0.050
2020/01/31 14:22:01.4	0.400	-0.030	0.220	0.020
2020/01/31 14:22:01.5	0.370	0.010	0.240	0.080
2020/01/31 14:22:01.6	0.340	0.050	0.260	0.140
2020/01/31 14:22:01.7	0.270	0.090	0.270	0.200
2020/01/31 14:22:01.8	0.240	0.130	0.280	0.260
2020/01/31 14:22:01.9	0.210	0.170	0.280	0.320
2020/01/31 14:22:02.0	0.180	0.210	0.280	0.370
2020/01/31 14:22:02.1	0.150	0.250	0.280	0.420
2020/01/31 14:22:02.2	0.120	0.290	0.270	0.470
2020/01/31 14:22:02.3	0.090	0.330	0.250	0.510
2020/01/31 14:22:02.4	0.060	0.360	0.230	0.540
2020/01/31 14:22:02.5	0.040	0.390	0.210	0.580
2020/01/31 14:22:02.6	0.010	0.430	0.180	0.600
2020/01/31 14:22:02.7	0.000	0.460	0.150	0.620
2020/01/31 14:22:02.8	359.980	0.480	0.110	0.640
2020/01/31 14:22:02.9	359.960	0.510	0.070	0.650
2020/01/31 14:22:03.0	359.930	0.530	0.020	0.660
2020/01/31 14:22:03.1	359.910	0.550	-0.030	0.660
2020/01/31 14:22:03.2	359.890	0.570	-0.080	0.660
2020/01/31 14:22:03.3	359.860	0.590	-0.140	0.650
2020/01/31 14:22:03.4	359.840	0.600	-0.190	0.640
2020/01/31 14:22:03.5	359.820	0.610	-0.250	0.620
2020/01/31 14:22:03.6	359.800	0.620	-0.310	0.600
2020/01/31 14:22:03.7	359.770	0.630	-0.370	0.570
2020/01/31 14:22:03.8	359.750	0.640	-0.430	0.540
2020/01/31 14:22:03.9	359.740	0.640	-0.490	0.510
2020/01/31 14:22:04.0	359.720	0.640	-0.540	0.470
2020/01/31 14:22:04.1	359.710	0.640	-0.600	0.430
2020/01/31 14:22:04.2	359.700	0.640	-0.650	0.380
2020/01/31 14:22:04.3	359.690	0.630	-0.700	0.340
2020/01/31 14:22:04.4	359.680	0.630	-0.750	0.290
2020/01/31 14:22:04.5	359.680	0.620	-0.790	0.240
2020/01/31 14:22:04.6	359.680	0.620	-0.830	0.180
2020/01/31 14:22:04.7	359.690	0.610	-0.870	0.120
2020/01/31 14:22:04.8	359.690	0.600	-0.900	0.070
2020/01/31 14:22:04.9	359.700	0.590	-0.930	0.010
2020/01/31 14:22:05.0	359.710	0.580	-0.950	-0.050
2020/01/31 14:22:05.1	359.720	0.570	-0.970	-0.110
2020/01/31 14:22:05.2	359.740	0.560	-0.980	-0.170
2020/01/31 14:22:05.3	359.760	0.550	-0.990	-0.230
2020/01/31 14:22:05.4	359.780	0.540	-0.990	-0.290
2020/01/31 14:22:05.5	359.810	0.530	-0.990	-0.360
2020/01/31 14:22:05.6	359.830	0.520	-0.980	-0.410
2020/01/31 14:22:05.7	359.860	0.510	-0.970	-0.480
2020/01/31 14:22:05.8	359.890	0.500	-0.960	-0.540
2020/01/31 14:22:05.9	359.920	0.490	-0.930	-0.590
2020/01/31 14:22:06.0	359.940	0.470	-0.910	-0.650
2020/01/31 14:22:06.1	359.970	0.460	-0.870	-0.700
2020/01/31 14:22:06.2	0.000	0.440	-0.840	-0.750
2020/01/31 14:22:06.3	0.020	0.420	-0.800	-0.800
2020/01/31 14:22:06.4	0.050	0.400	-0.750	-0.850
2020/01/31 14:22:06.5	0.070	0.380	-0.710	-0.890
2020/01/31 14:22:06.6	0.100	0.350	-0.660	-0.940
2020/01/31 14:22:06.7	0.110	0.330	-0.600	-0.980
2020/01/31 14:22:06.8	0.140	0.290	-0.550	-1.020
2020/01/31 14:22:06.9	0.160	0.260	-0.490	-1.060
2020/01/31 14:22:07.0	0.180	0.230	-0.430	-1.090
2020/01/31 14:22:07.1	0.200	0.190	-0.380	-1.130
2020/01/31 14:22:07.2	0.220	0.150	-0.320	-1.160
2020/01/31 14:22:07.3	0.250	0.110	-0.270	-1.190
2020/01/31 14:22:07.4	0.270	0.060	-0.210	-1.220
2020/01/31 14:22:07.5	0.290	0.020	-0.160	-1.250
2020/01/31 14:22:07.6	0.310	-0.030	-0.110	-1.270
2020/01/31 14:22:07.7	0.320	-0.080	-0.060	-1.300
2020/01/31 14:22:07.8	0.340	-0.130	-0.010	-1.320
2020/01/31 14:22:07.9	0.360	-0.190	0.030	-1.340
2020/01/31 14:22:08.0	0.380	-0.240	0.070	-1.350
2020/01/31 14:22:08.1	0.390	-0.290	0.110	-1.360
2020/01/31 14:22:08.2	0.410	-0.350	0.150	-1.370
2020/01/31 14:22:08.3	0.420	-0.400	0.180	-1.370
2020/01/31 14:22:08.4	0.430	-0.450	0.210	-1.370
2020/01/31 14:22:08.5	0.430	-0.510	0.240	-1.360
2020/01/31 14:22:08.6	0.440	-0.560	0.270	-1.350
2020/01/31 14:22:08.7	0.440	-0.610	0.290	-1.330
2020/01/31 14:22:08.8	0.440	-0.660	0.310	-1.310
2020/01/31 14:22:08.9	0.430	-0.710	0.320	-1.290
2020/01/31 14:22:09.0	0.430	-0.750	0.340	-1.260
2020/01/31 14:22:09.1	0.420	-0.790	0.340	-1.230
2020/01/31 14:22:09.2	0.410	-0.830	0.350	-1.200
2020/01/31 14:22:09.3	0.390	-0.870	0.350	-1.170
2020/01/31 14:22:09.4	0.380	-0.900	0.350	-1.130
2020/01/31 14:22:09.5	0.360	-0.930	0.350	-1.090
2020/01/31 14:22:09.6	0.340	-0.960	0.350	-1.040
2020/01/31 14:22:09.7	0.330	-0.980	0.340	-1.000
2020/01/31 14:22:09.8	0.310	-1.000	0.330	-0.950
2020/01/31 14:22:09.9	0.290	-1.010	0.310	-0.900
2020/01/31 14:22:10.0	0.270	-1.020	0.300	-0.850
2020/01/31 14:22:10.1	0.250	-1.020	0.280	-0.800
2020/01/31 14:22:10.2	0.230	-1.020	0.260	-0.750
2020/01/31 14:22:10.3	0.210	-1.010	0.240	-0.700
2020/01/31 14:22:10.4	0.190	-1.000	0.210	-0.650
2020/01/31 14:22:10.5	0.180	-0.980	0.190	-0.600
2020/01/31 14:22:10.6	0.160	-0.960	0.160	-0.550
2020/01/31 14:22:10.7	0.140	-0.940	0.130	-0.510
2020/01/31 14:22:10.8	0.130	-0.910	0.100	-0.460
2020/01/31 14:22:10.9	0.120	-0.870	0.060	-0.420
2020/01/31 14:22:11.0	0.110	-0.830	0.030	-0.370
2020/01/31 14:22:11.1	0.100	-0.790	-0.010	-0.330
2020/01/31 14:22:11.2	0.090	-0.740	-0.050	-0.290
2020/01/31 14:22:11.3	0.090	-0.690	-0.080	-0.250
2020/01/31 14:22:11.4	0.080	-0.640	-0.120	-0.210
2020/01/31 14:22:11.5	0.080	-0.580	-0.160	-0.170
2020/01/31 14:22:11.6	0.080	-0.530	-0.200	-0.130
2020/01/31 14:22:11.7	0.090	-0.470	-0.230	-0.100
2020/01/31 14:22:11.8	0.090	-0.400	-0.270	-0.060
2020/01/31 14:22:11.9	0.100	-0.340	-0.300	-0.020
2020/01/31 14:22:12.0	0.100	-0.280	-0.340	0.010
2020/01/31 14:22:12.1	0.110	-0.220	-0.370	0.050
2020/01/31 14:22:12.2	0.110	-0.150	-0.400	0.090
2020/01/31 14:22:12.3	0.120	-0.090	-0.430	0.120
2020/01/31 14:22:12.4	0.130	-0.030	-0.450	0.160
2020/01/31 14:22:12.5	0.130	0.030	-0.470	0.200
2020/01/31 14:22:12.6	0.140	0.090	-0.490	0.230
2020/01/31 14:22:12.7	0.140	0.140	-0.500	0.270
2020/01/31 14:22:12.8	0.140	0.190	-0.520	0.310
2020/01/31 14:22:12.9	0.150	0.240	-0.520	0.340
2020/01/31 14:22:13.0	0.150	0.280	-0.530	0.380
2020/01/31 14:22:13.1	0.150	0.330	-0.530	0.410
2020/01/31 14:22:13.2	0.150	0.360	-0.530	0.440
2020/01/31 14:22:13.3	0.150	0.400	-0.520	0.480
2020/01/31 14:22:13.4	0.150	0.430	-0.510	0.510
2020/01/31 14:22:13.5	0.140	0.460	-0.500	0.540
2020/01/31 14:22:13.6	0.140	0.480	-0.480	0.570
2020/01/31 14:22:13.7	0.140	0.500	-0.460	0.590
2020/01/31 14:22:13.8	0.130	0.510	-0.440	0.620
2020/01/31 14:22:13.9	0.120	0.530	-0.420	0.640
2020/01/31 14:22:14.0	0.120	0.540	-0.390	0.670
2020/01/31 14:22:14.1	0.110	0.540	-0.360	0.690
2020/01/31 14:22:14.2	0.100	0.550	-0.330	0.720
2020/01/31 14:22:14.3	0.090	0.550	-0.300	0.740
2020/01/31 14:22:14.4	0.080	0.550	-0.270	0.760
2020/01/31 14:22:14.5	0.070	0.540	-0.240	0.780
2020/01/31 14:22:14.6	0.060	0.540	-0.210	0.800
2020/01/31 14:22:14.7	0.060	0.530	-0.190	0.810
2020/01/31 14:22:14.8	0.050	0.530	-0.160	0.830
2020/01/31 14:22:14.9	0.040	0.520	-0.130	0.840
2020/01/31 14:22:15.0	0.030	0.510	-0.110	0.860
2020/01/31 14:22:15.1	0.020	0.500	-0.080	0.870
2020/01/31 14:22:15.2	0.010	0.500	-0.060	0.880
2020/01/31 14:22:15.3	0.000	0.490	-0.040	0.900
2020/01/31 14:22:15.4	359.980	0.480	-0.030	0.910
2020/01/31 14:22:15.5	359.970	0.470	-0.010	0.920
2020/01/31 14:22:15.6	359.950	0.460	0.000	0.940
2020/01/31 14:22:15.7	359.940	0.450	0.010	0.950
2020/01/31 14:22:15.8	359.920	0.450	0.020	0.960
2020/01/31 14:22:15.9	359.890	0.440	0.020	0.980
2020/01/31 14:22:16.0	359.870	0.430	0.020	0.990
2020/01/31 14:22:16.1	359.840	0.430	0.020	1.000
2020/01/31 14:22:16.2	359.810	0.420	0.020	1.010
2020/01/31 14:22:16.3	359.780	0.410	0.010	1.020
2020/01/31 14:22:16.4	359.750	0.410	0.000	1.020
2020/01/31 14:22:16.5	359.720	0.400	-0.010	1.030
2020/01/31 14:22:16.6	359.690	0.400	-0.030	1.020
2020/01/31 14:22:16.7	359.670	0.390	-0.050	1.020
2020/01/31 14:22:16.8	359.650	0.390	-0.070	1.010
2020/01/31 14:22:16.9	359.620	0.380	-0.100	0.990
2020/01/31 14:22:17.0	359.600	0.380	-0.130	0.970
2020/01/31 14:22:17.1	359.580	0.370	-0.160	0.950
2020/01/31 14:22:17.2	359.570	0.370	-0.200	0.920
2020/01/31 14:22:17.3	359.550	0.360	-0.240	0.880
2020/01/31 14:22:17.4	359.550	0.360	-0.280	0.830
2020/01/31 14:22:17.5	359.540	0.350	-0.330	0.790
2020/01/31 14:22:17.6	359.540	0.340	-0.370	0.730
2020/01/31 14:22:17.7	359.560	0.330	-0.420	0.660
2020/01/31 14:22:17.8	359.570	0.320	-0.470	0.590
2020/01/31 14:22:17.9	359.580	0.320	-0.520	0.520
2020/01/31 14:22:18.0	359.600	0.310	-0.570	0.440
2020/01/31 14:22:18.1	359.620	0.290	-0.620	0.350
2020/01/31 14:22:18.2	359.640	0.280	-0.670	0.270
2020/01/31 14:22:18.3	359.670	0.270	-0.720	0.180
2020/01/31 14:22:18.4	359.700	0.250	-0.770	0.080
2020/01/31 14:22:18.5	359.730	0.240	-0.810	-0.010
2020/01/31 14:22:18.6	359.770	0.220	-0.850	-0.110
2020/01/31 14:22:18.7	359.810	0.200	-0.890	-0.220
2020/01/31 14:22:18.8	359.850	0.180	-0.920	-0.320
2020/01/31 14:22:18.9	359.890	0.160	-0.950	-0.420
2020/01/31 14:22:19.0	359.930	0.130	-0.970	-0.520
2020/01/31 14:22:19.1	359.970	0.100	-0.990	-0.620
2020/01/31 14:22:19.2	0.020	0.080	-1.000	-0.720
2020/01/31 14:22:19.3	0.060	0.050	-1.000	-0.820
2020/01/31 14:22:19.4	0.100	0.010	-1.000	-0.920
2020/01/31 14:22:19.5	0.130	-0.020	-0.990	-1.010
2020/01/31 14:22:19.6	0.170	-0.060	-0.980	-1.100
2020/01/31 14:22:19.7	0.210	-0.090	-0.960	-1.190
2020/01/31 14:22:19.8	0.240	-0.130	-0.940	-1.280
2020/01/31 14:22:19.9	0.270	-0.170	-0.910	-1.360
2020/01/31 14:22:20.0	0.290	-0.210	-0.870	-1.440
2020/01/31 14:22:20.1	0.310	-0.250	-0.830	-1.510
2020/01/31 14:22:20.2	0.330	-0.290	-0.780	-1.580
2020/01/31 14:22:20.3	0.350	-0.330	-0.730	-1.650
2020/01/31 14:22:20.4	0.360	-0.360	-0.670	-1.710
2020/01/31 14:22:20.5	0.380	-0.400	-0.610	-1.770
2020/01/31 14:22:20.6	0.380	-0.440	-0.550	-1.820
2020/01/31 14:22:20.7	0.380	-0.470	-0.490	-1.880
2020/01/31 14:22:20.8	0.380	-0.510	-0.420	-1.920
2020/01/31 14:22:20.9	0.380	-0.540	-0.360	-1.960
2020/01/31 14:22:21.0	0.380	-0.570	-0.290	-2.000
2020/01/31 14:22:21.1	0.380	-0.590	-0.220	-2.030
2020/01/31 14:22:21.2	0.380	-0.620	-0.150	-2.050
2020/01/31 14:22:21.3	0.370	-0.640	-0.090	-2.070
2020/01/31 14:22:21.4	0.360	-0.650	-0.020	-2.090
2020/01/31 14:22:21.5	0.360	-0.670	0.040	-2.100
2020/01/31 14:22:21.6	0.350	-0.680	0.100	-2.100
2020/01/31 14:22:21.7	0.320	-0.680	0.150	-2.100
2020/01/31 14:22:21.8	0.310	-0.690	0.210	-2.100
2020/01/31 14:22:21.9	0.300	-0.690	0.260	-2.090
2020/01/31 14:22:22.0	0.290	-0.680	0.300	-2.080
2020/01/31 14:22:22.1	0.280	-0.670	0.340	-2.060
2020/01/31 14:22:22.2	0.270	-0.660	0.370	-2.040
2020/01/31 14:22:22.3	0.260	-0.650	0.400	-2.020
2020/01/31 14:22:22.4	0.250	-0.630	0.420	-1.990
2020/01/31 14:22:22.5	0.240	-0.610	0.440	-1.950
2020/01/31 14:22:22.6	0.230	-0.590	0.460	-1.920
2020/01/31 14:22:22.7	0.220	-0.570	0.470	-1.870
2020/01/31 14:22:22.8	0.210	-0.550	0.470	-1.830
2020/01/31 14:22:22.9	0.200	-0.520	0.470	-1.780
2020/01/31 14:22:23.0	0.190	-0.490	0.460	-1.730
2020/01/31 14:22:23.1	0.180	-0.460	0.460	-1.680
2020/01/31 14:22:23.2	0.170	-0.440	0.440	-1.630
2020/01/31 14:22:23.3	0.160	-0.410	0.430	-1.570
2020/01/31 14:22:23.4	0.150	-0.380	0.410	-1.510
2020/01/31 14:22:23.5	0.150	-0.350	0.380	-1.450
2020/01/31 14:22:23.6	0.140	-0.320	0.360	-1.380
2020/01/31 14:22:23.7	0.140	-0.290	0.320	-1.310
2020/01/31 14:22:23.8	0.130	-0.260	0.290	-1.250
2020/01/31 14:22:23.9	0.130	-0.240	0.260	-1.180
2020/01/31 14:22:24.0	0.120	-0.210	0.230	-1.110
2020/01/31 14:22:24.1	0.120	-0.180	0.190	-1.050
2020/01/31 14:22:24.2	0.120	-0.160	0.160	-0.980
2020/01/31 14:22:24.3	0.120	-0.140	0.120	-0.910
2020/01/31 14:22:24.4	0.120	-0.110	0.080	-0.840
2020/01/31 14:22:24.5	0.120	-0.090	0.050	-0.770
2020/01/31 14:22:24.6	0.120	-0.070	0.020	-0.690
2020/01/31 14:22:24.7	0.110	-0.050	-0.010	-0.610
2020/01/31 14:22:24.8	0.100	-0.030	-0.040	-0.540
2020/01/31 14:22:24.9	0.100	-0.010	-0.060	-0.460
2020/01/31 14:22:25.0	0.090	0.010	-0.080	-0.370
2020/01/31 14:22:25.1	0.080	0.020	-0.100	-0.290
2020/01/31 14:22:25.2	0.070	0.040	-0.120	-0.200
2020/01/31 14:22:25.3	0.060	0.050	-0.130	-0.100
2020/01/31 14:22:25.4	0.040	0.070	-0.130	-0.010
2020/01/31 14:22:25.5	0.020	0.080	-0.140	0.090
2020/01/31 14:22:25.6	0.000	0.100	-0.130	0.200
2020/01/31 14:22:25.7	359.960	0.110	-0.130	0.300
2020/01/31 14:22:25.8	359.930	0.120	-0.120	0.410
2020/01/31 14:22:25.9	359.900	0.130	-0.110	0.520
2020/01/31 14:22:26.0	359.860	0.150	-0.100	0.630
2020/01/31 14:22:26.1	359.820	0.160	-0.090	0.740
2020/01/31 14:22:26.2	359.780	0.170	-0.070	0.860
2020/01/31 14:22:26.3	359.740	0.180	-0.060	0.970
2020/01/31 14:22:26.4	359.700	0.190	-0.040	1.080
2020/01/31 14:22:26.5	359.650	0.200	-0.030	1.190
2020/01/31 14:22:26.6	359.600	0.210	-0.020	1.290
2020/01/31 14:22:26.7	359.560	0.210	-0.020	1.400
2020/01/31 14:22:26.8	359.510	0.220	-0.010	1.490
2020/01/31 14:22:26.9	359.470	0.230	-0.010	1.580
2020/01/31 14:22:27.0	359.420	0.240	-0.020	1.670
2020/01/31 14:22:27.1	359.380	0.250	-0.020	1.750
2020/01/31 14:22:27.2	359.330	0.260	-0.040	1.820
2020/01/31 14:22:27.3	359.290	0.280	-0.060	1.890
2020/01/31 14:22:27.4	359.260	0.290	-0.080	1.950
2020/01/31 14:22:27.5	359.220	0.300	-0.110	2.000
2020/01/31 14:22:27.6	359.190	0.310	-0.150	2.040
2020/01/31 14:22:27.7	359.160	0.330	-0.190	2.070
2020/01/31 14:22:27.8	359.140	0.340	-0.230	2.100
2020/01/31 14:22:27.9	359.110	0.360	-0.290	2.120
2020/01/31 14:22:28.0	359.100	0.380	-0.340	2.130
2020/01/31 14:22:28.1	359.080	0.400	-0.400	2.130
2020/01/31 14:22:28.2	359.070	0.420	-0.470	2.130
2020/01/31 14:22:28.3	359.070	0.440	-0.540	2.110
2020/01/31 14:22:28.4	359.070	0.460	-0.610	2.080
2020/01/31 14:22:28.5	359.070	0.480	-0.680	2.050
2020/01/31 14:22:28.6	359.080	0.500	-0.750	2.010
2020/01/31 14:22:28.7	359.090	0.520	-0.830	1.960
2020/01/31 14:22:28.8	359.110	0.550	-0.900	1.900
2020/01/31 14:22:28.9	359.130	0.570	-0.970	1.830
2020/01/31 14:22:29.0	359.150	0.590	-1.050	1.760
2020/01/31 14:22:29.1	359.180	0.610	-1.110	1.680
2020/01/31 14:22:29.2	359.210	0.620	-1.180	1.590
2020/01/31 14:22:29.3	359.250	0.640	-1.240	1.500
2020/01/31 14:22:29.4	359.290	0.650	-1.290	1.400
2020/01/31 14:22:29.5	359.330	0.660	-1.340	1.290
2020/01/31 14:22:29.6	359.380	0.670	-1.380	1.180
2020/01/31 14:22:29.7	359.430	0.670	-1.420	1.060
2020/01/31 14:22:29.8	359.490	0.670	-1.440	0.940
2020/01/31 14:22:29.9	359.540	0.660	-1.460	0.820
2020/01/31 14:22:30.0	359.600	0.650	-1.470	0.690
2020/01/31 14:22:30.1	359.650	0.640	-1.470	0.570
2020/01/31 14:22:30.2	359.710	0.620	-1.460	0.440
2020/01/31 14:22:30.3	359.770	0.600	-1.450	0.310
2020/01/31 14:22:30.4	359.830	0.570	-1.420	0.180
2020/01/31 14:22:30.5	359.890	0.540	-1.380	0.050
2020/01/31 14:22:30.6	359.950	0.500	-1.340	-0.080
2020/01/31 14:22:30.7	0.000	0.450	-1.280	-0.220
2020/01/31 14:22:30.8	0.060	0.400	-1.220	-0.350
2020/01/31 14:22:30.9	0.110	0.350	-1.150	-0.470
2020/01/31 14:22:31.0	0.170	0.290	-1.070	-0.600
2020/01/31 14:22:31.1	0.220	0.230	-0.980	-0.720
2020/01/31 14:22:31.2	0.270	0.160	-0.890	-0.840
2020/01/31 14:22:31.3	0.320	0.090	-0.790	-0.960
2020/01/31 14:22:31.4	0.370	0.010	-0.680	-1.070
2020/01/31 14:22:31.5	0.410	-0.060	-0.570	-1.180
2020/01/31 14:22:31.6	0.450	-0.140	-0.460	-1.290
2020/01/31 14:22:31.7	0.480	-0.230	-0.350	-1.390
2020/01/31 14:22:31.8	0.510	-0.310	-0.230	-1.490
2020/01/31 14:22:31.9	0.540	-0.400	-0.110	-1.590
2020/01/31 14:22:32.0	0.560	-0.480	0.010	-1.670
2020/01/31 14:22:32.1	0.580	-0.570	0.130	-1.750
2020/01/31 14:22:32.2	0.600	-0.650	0.250	-1.830
2020/01/31 14:22:32.3	0.610	-0.730	0.370	-1.900
2020/01/31 14:22:32.4	0.610	-0.810	0.480	-1.970
2020/01/31 14:22:32.5	0.610	-0.890	0.590	-2.030
2020/01/31 14:22:32.6	0.600	-0.970	0.700	-2.080
2020/01/31 14:22:32.7	0.570	-1.040	0.800	-2.130
2020/01/31 14:22:32.8	0.560	-1.100	0.900	-2.170
2020/01/31 14:22:32.9	0.540	-1.160	0.990	-2.210
2020/01/31 14:22:33.0	0.520	-1.220	1.070	-2.230
2020/01/31 14:22:33.1	0.490	-1.260	1.140	-2.260
2020/01/31 14:22:33.2	0.450	-1.300	1.210	-2.270
2020/01/31 14:22:33.3	0.420	-1.340	1.260	-2.280
2020/01/31 14:22:33.4	0.370	-1.360	1.310	-2.280
2020/01/31 14:22:33.5	0.330	-1.380	1.350	-2.270
2020/01/31 14:22:33.6	0.280	-1.390	1.380	-2.260
2020/01/31 14:22:33.7	0.230	-1.390	1.390	-2.240
2020/01/31 14:22:33.8	0.180	-1.390	1.400	-2.210
2020/01/31 14:22:33.9	0.130	-1.370	1.390	-2.180
2020/01/31 14:22:34.0	0.070	-1.350	1.380	-2.150
2020/01/31 14:22:34.1	0.010	-1.310	1.350	-2.100
2020/01/31 14:22:34.2	359.950	-1.270	1.310	-2.060
2020/01/31 14:22:34.3	359.900	-1.220	1.260	-2.000
2020/01/31 14:22:34.4	359.840	-1.160	1.200	-1.950
2020/01/31 14:22:34.5	359.780	-1.100	1.130	-1.890
2020/01/31 14:22:34.6	359.730	-1.030	1.050	-1.830
2020/01/31 14:22:34.7	359.680	-0.950	0.960	-1.760
2020/01/31 14:22:34.8	359.630	-0.860	0.860	-1.690
2020/01/31 14:22:34.9	359.580	-0.770	0.750	-1.620
2020/01/31 14:22:35.0	359.540	-0.680	0.640	-1.550
2020/01/31 14:22:35.1	359.500	-0.580	0.520	-1.470
2020/01/31 14:22:35.2	359.450	-0.470	0.400	-1.400
2020/01/31 14:22:35.3	359.410	-0.370	0.270	-1.320
2020/01/31 14:22:35.4	359.380	-0.260	0.140	-1.240
2020/01/31 14:22:35.5	359.340	-0.150	0.010	-1.160
2020/01/31 14:22:35.6	359.310	-0.040	-0.120	-1.070
2020/01/31 14:22:35.7	359.290	0.070	-0.240	-0.980
2020/01/31 14:22:35.8	359.250	0.180	-0.370	-0.900
2020/01/31 14:22:35.9	359.220	0.290	-0.490	-0.810
2020/01/31 14:22:36.0	359.200	0.400	-0.610	-0.720
2020/01/31 14:22:36.1	359.170	0.500	-0.720	-0.640
2020/01/31 14:22:36.2	359.150	0.600	-0.830	-0.550
2020/01/31 14:22:36.3	359.130	0.700	-0.930	-0.460
2020/01/31 14:22:36.4	359.110	0.790	-1.020	-0.380
2020/01/31 14:22:36.5	359.100	0.870	-1.100	-0.290
2020/01/31 14:22:36.6	359.090	0.950	-1.180	-0.210
2020/01/31 14:22:36.7	359.070	1.020	-1.240	-0.120
2020/01/31 14:22:36.8	359.070	1.090	-1.290	-0.040
2020/01/31 14:22:36.9	359.070	1.150	-1.330	0.050
2020/01/31 14:22:37.0	359.070	1.200	-1.360	0.130
2020/01/31 14:22:37.1	359.070	1.240	-1.380	0.210
2020/01/31 14:22:37.2	359.070	1.280	-1.390	0.300
2020/01/31 14:22:37.3	359.080	1.310	-1.390	0.380
2020/01/31 14:22:37.4	359.090	1.330	-1.380	0.460
2020/01/31 14:22:37.5	359.110	1.340	-1.350	0.540
2020/01/31 14:22:37.6	359.130	1.340	-1.320	0.620
2020/01/31 14:22:37.7	359.140	1.340	-1.290	0.690
2020/01/31 14:22:37.8	359.160	1.330	-1.240	0.770
2020/01/31 14:22:37.9	359.180	1.310	-1.190	0.840
2020/01/31 14:22:38.0	359.200	1.280	-1.130	0.910
2020/01/31 14:22:38.1	359.220	1.250	-1.060	0.980
2020/01/31 14:22:38.2	359.250	1.210	-1.000	1.040
2020/01/31 14:22:38.3	359.270	1.170	-0.920	1.100
2020/01/31 14:22:38.4	359.300	1.120	-0.850	1.160
2020/01/31 14:22:38.5	359.320	1.060	-0.780	1.210
2020/01/31 14:22:38.6	359.340	1.000	-0.700	1.260
2020/01/31 14:22:38.7	359.360	0.930	-0.630	1.300
2020/01/31 14:22:38.8	359.390	0.860	-0.570	1.340
2020/01/31 14:22:38.9	359.410	0.780	-0.500	1.370
2020/01/31 14:22:39.0	359.440	0.710	-0.440	1.390
2020/01/31 14:22:39.1	359.460	0.620	-0.380	1.400
2020/01/31 14:22:39.2	359.490	0.540	-0.320	1.410
2020/01/31 14:22:39.3	359.510	0.460	-0.280	1.410
2020/01/31 14:22:39.4	359.540	0.370	-0.240	1.400
2020/01/31 14:22:39.5	359.570	0.290	-0.200	1.380
2020/01/31 14:22:39.6	359.600	0.200	-0.170	1.360
2020/01/31 14:22:39.7	359.650	0.120	-0.150	1.320
2020/01/31 14:22:39.8	359.680	0.040	-0.130	1.290
2020/01/31 14:22:39.9	359.710	-0.050	-0.120	1.240
2020/01/31 14:22:40.0	359.740	-0.120	-0.110	1.190
2020/01/31 14:22:40.1	359.780	-0.200	-0.110	1.140
2020/01/31 14:22:40.2	359.810	-0.280	-0.120	1.070
2020/01/31 14:22:40.3	359.850	-0.350	-0.130	1.010
2020/01/31 14:22:40.4	359.880	-0.410	-0.140	0.940
2020/01/31 14:22:40.5	359.920	-0.480	-0.150	0.860
2020/01/31 14:22:40.6	359.960	-0.540	-0.170	0.780
2020/01/31 14:22:40.7	0.000	-0.590	-0.190	0.690
2020/01/31 14:22:40.8	0.040	-0.640	-0.210	0.610
2020/01/31 14:22:40.9	0.080	-0.690	-0.230	0.520
2020/01/31 14:22:41.0	0.120	-0.740	-0.250	0.440
2020/01/31 14:22:41.1	0.160	-0.770	-0.260	0.350
2020/01/31 14:22:41.2	0.200	-0.810	-0.280	0.260
2020/01/31 14:22:41.3	0.240	-0.840	-0.290	0.170
2020/01/31 14:22:41.4	0.280	-0.860	-0.310	0.080
2020/01/31 14:22:41.5	0.320	-0.880	-0.320	-0.010
2020/01/31 14:22:41.6	0.370	-0.900	-0.320	-0.100
2020/01/31 14:22:41.7	0.410	-0.910	-0.330	-0.190
2020/01/31 14:22:41.8	0.460	-0.920	-0.330	-0.280
2020/01/31 14:22:41.9	0.500	-0.920	-0.330	-0.370
2020/01/31 14:22:42.0	0.540	-0.920	-0.330	-0.450
2020/01/31 14:22:42.1	0.580	-0.910	-0.320	-0.530
2020/01/31 14:22:42.2	0.620	-0.900	-0.310	-0.610
2020/01/31 14:22:42.3	0.660	-0.880	-0.300	-0.680
2020/01/31 14:22:42.4	0.700	-0.860	-0.290	-0.750
2020/01/31 14:22:42.5	0.730	-0.840	-0.270	-0.810
2020/01/31 14:22:42.6	0.770	-0.820	-0.250	-0.870
2020/01/31 14:22:42.7	0.800	-0.790	-0.230	-0.930
2020/01/31 14:22:42.8	0.830	-0.760	-0.200	-0.970
2020/01/31 14:22:42.9	0.850	-0.720	-0.170	-1.010
2020/01/31 14:22:43.0	0.870	-0.690	-0.140	-1.050
2020/01/31 14:22:43.1	0.880	-0.650	-0.110	-1.070
2020/01/31 14:22:43.2	0.900	-0.610	-0.070	-1.100
2020/01/31 14:22:43.3	0.910	-0.570	-0.040	-1.110
2020/01/31 14:22:43.4	0.910	-0.530	0.000	-1.120
2020/01/31 14:22:43.5	0.910	-0.480	0.040	-1.130
2020/01/31 14:22:43.6	0.910	-0.440	0.080	-1.130
2020/01/31 14:22:43.7	0.910	-0.400	0.120	-1.130
2020/01/31 14:22:43.8	0.900	-0.350	0.160	-1.120
2020/01/31 14:22:43.9	0.890	-0.310	0.200	-1.100
2020/01/31 14:22:44.0	0.870	-0.260	0.240	-1.080
2020/01/31 14:22:44.1	0.860	-0.220	0.280	-1.060
2020/01/31 14:22:44.2	0.840	-0.180	0.310	-1.030
2020/01/31 14:22:44.3	0.820	-0.130	0.350	-1.000
2020/01/31 14:22:44.4	0.790	-0.090	0.390	-0.960
2020/01/31 14:22:44.5	0.760	-0.050	0.420	-0.930
2020/01/31 14:22:44.6	0.740	-0.010	0.450	-0.880
2020/01/31 14:22:44.7	0.710	0.030	0.480	-0.830
2020/01/31 14:22:44.8	0.670	0.070	0.510	-0.780
2020/01/31 14:22:44.9	0.630	0.110	0.530	-0.730
2020/01/31 14:22:45.0	0.590	0.140	0.550	-0.670
2020/01/31 14:22:45.1	0.550	0.170	0.570	-0.610
2020/01/31 14:22:45.2	0.500	0.200	0.580	-0.540
2020/01/31 14:22:45.3	0.460	0.230	0.590	-0.480
2020/01/31 14:22:45.4	0.410	0.260	0.600	-0.410
2020/01/31 14:22:45.5	0.350	0.280	0.600	-0.340
2020/01/31 14:22:45.6	0.300	0.300	0.590	-0.280
2020/01/31 14:22:45.7	0.260	0.320	0.580	-0.210
2020/01/31 14:22:45.8	0.200	0.340	0.570	-0.150
2020/01/31 14:22:45.9	0.150	0.350	0.550	-0.090
2020/01/31 14:22:46.0	0.100	0.360	0.530	-0.030
2020/01/31 14:22:46.1	0.050	0.370	0.500	0.020
2020/01/31 14:22:46.2	0.000	0.380	0.460	0.060
2020/01/31 14:22:46.3	359.960	0.380	0.420	0.100
2020/01/31 14:22:46.4	359.920	0.380	0.380	0.140
2020/01/31 14:22:46.5	359.880	0.380	0.320	0.160
2020/01/31 14:22:46.6	359.850	0.380	0.270	0.180
2020/01/31 14:22:46.7	359.830	0.370	0.210	0.200
2020/01/31 14:22:46.8	359.800	0.370	0.140	0.200
2020/01/31 14:22:46.9	359.780	0.360	0.070	0.200
2020/01/31 14:22:47.0	359.770	0.350	-0.010	0.190
2020/01/31 14:22:47.1	359.760	0.340	-0.090	0.170
2020/01/31 14:22:47.2	359.760	0.330	-0.170	0.150
2020/01/31 14:22:47.3	359.760	0.320	-0.260	0.110
2020/01/31 14:22:47.4	359.770	0.310	-0.350	0.070
2020/01/31 14:22:47.5	359.790	0.300	-0.440	0.020
2020/01/31 14:22:47.6	359.810	0.280	-0.540	-0.040
2020/01/31 14:22:47.7	359.840	0.270	-0.630	-0.100
2020/01/31 14:22:47.8	359.870	0.260	-0.730	-0.170
2020/01/31 14:22:47.9	359.910	0.260	-0.830	-0.250
2020/01/31 14:22:48.0	359.950	0.250	-0.920	-0.330
2020/01/31 14:22:48.1	0.000	0.240	-1.020	-0.410
2020/01/31 14:22:48.2	0.060	0.230	-1.110	-0.490
2020/01/31 14:22:48.3	0.120	0.230	-1.200	-0.580
2020/01/31 14:22:48.4	0.180	0.220	-1.280	-0.670
2020/01/31 14:22:48.5	0.240	0.220	-1.360	-0.750
2020/01/31 14:22:48.6	0.310	0.220	-1.430	-0.840
2020/01/31 14:22:48.7	0.380	0.220	-1.500	-0.940
2020/01/31 14:22:48.8	0.450	0.220	-1.550	-1.020
2020/01/31 14:22:48.9	0.530	0.220	-1.600	-1.110
2020/01/31 14:22:49.0	0.610	0.220	-1.640	-1.190
2020/01/31 14:22:49.1	0.680	0.230	-1.670	-1.270
2020/01/31 14:22:49.2	0.760	0.230	-1.680	-1.340
2020/01/31 14:22:49.3	0.840	0.230	-1.690	-1.420
2020/01/31 14:22:49.4	0.920	0.230	-1.690	-1.480
2020/01/31 14:22:49.5	0.990	0.240	-1.680	-1.550
2020/01/31 14:22:49.6	1.060	0.240	-1.660	-1.610
2020/01/31 14:22:49.7	1.120	0.240	-1.630	-1.670
2020/01/31 14:22:49.8	1.190	0.240	-1.590	-1.710
2020/01/31 14:22:49.9	1.260	0.250	-1.540	-1.760
2020/01/31 14:22:50.0	1.320	0.250	-1.480	-1.790
2020/01/31 14:22:50.1	1.380	0.250	-1.420	-1.820
2020/01/31 14:22:50.2	1.440	0.240	-1.340	-1.850
2020/01/31 14:22:50.3	1.490	0.240	-1.260	-1.860
2020/01/31 14:22:50.4	1.540	0.240	-1.180	-1.870
2020/01/31 14:22:50.5	1.580	0.230	-1.080	-1.880
2020/01/31 14:22:50.6	1.620	0.220	-0.990	-1.870
2020/01/31 14:22:50.7	1.670	0.220	-0.880	-1.860
2020/01/31 14:22:50.8	1.700	0.200	-0.780	-1.840
2020/01/31 14:22:50.9	1.730	0.190	-0.680	-1.820
2020/01/31 14:22:51.0	1.760	0.180	-0.580	-1.800
2020/01/31 14:22:51.1	1.780	0.160	-0.470	-1.760
2020/01/31 14:22:51.2	1.800	0.150	-0.370	-1.720
2020/01/31 14:22:51.3	1.810	0.130	-0.270	-1.680
2020/01/31 14:22:51.4	1.830	0.110	-0.170	-1.640
2020/01/31 14:22:51.5	1.840	0.090	-0.080	-1.590
2020/01/31 14:22:51.6	1.840	0.070	0.010	-1.530
2020/01/31 14:22:51.7	1.850	0.040	0.100	-1.480
2020/01/31 14:22:51.8	1.850	0.020	0.180	-1.420
2020/01/31 14:22:51.9	1.850	-0.010	0.250	-1.360
2020/01/31 14:22:52.0	1.840	-0.030	0.320	-1.300
2020/01/31 14:22:52.1	1.840	-0.060	0.390	-1.240
2020/01/31 14:22:52.2	1.830	-0.090	0.450	-1.170
2020/01/31 14:22:52.3	1.820	-0.120	0.500	-1.110
2020/01/31 14:22:52.4	1.800	-0.150	0.540	-1.050
2020/01/31 14:22:52.5	1.790	-0.170	0.580	-0.990
2020/01/31 14:22:52.6	1.780	-0.200	0.620	-0.930
2020/01/31 14:22:52.7	1.760	-0.230	0.640	-0.860
2020/01/31 14:22:52.8	1.740	-0.260	0.670	-0.800
2020/01/31 14:22:52.9	1.720	-0.280	0.680	-0.740
2020/01/31 14:22:53.0	1.700	-0.310	0.690	-0.680
2020/01/31 14:22:53.1	1.680	-0.330	0.700	-0.620
2020/01/31 14:22:53.2	1.670	-0.350	0.700	-0.560
2020/01/31 14:22:53.3	1.650	-0.370	0.700	-0.510
2020/01/31 14:22:53.4	1.630	-0.390	0.690	-0.450
2020/01/31 14:22:53.5	1.610	-0.400	0.680	-0.400
2020/01/31 14:22:53.6	1.590	-0.410	0.660	-0.340
2020/01/31 14:22:53.7	1.570	-0.430	0.650	-0.290
2020/01/31 14:22:53.8	1.550	-0.430	0.630	-0.240
2020/01/31 14:22:53.9	1.530	-0.440	0.600	-0.190
2020/01/31 14:22:54.0	1.510	-0.440	0.570	-0.140
2020/01/31 14:22:54.1	1.490	-0.450	0.550	-0.090
2020/01/31 14:22:54.2	1.480	-0.450	0.510	-0.040
2020/01/31 14:22:54.3	1.450	-0.440	0.480	0.000
2020/01/31 14:22:54.4	1.430	-0.440	0.450	0.050
2020/01/31 14:22:54.5	1.410	-0.430	0.410	0.090
2020/01/31 14:22:54.6	1.390	-0.420	0.380	0.130
2020/01/31 14:22:54.7	1.360	-0.410	0.340	0.170
2020/01/31 14:22:54.8	1.340	-0.400	0.310	0.210
2020/01/31 14:22:54.9	1.310	-0.380	0.270	0.250
2020/01/31 14:22:55.0	1.290	-0.370	0.230	0.280
2020/01/31 14:22:55.1	1.260	-0.350	0.190	0.310
2020/01/31 14:22:55.2	1.230	-0.330	0.160	0.340
2020/01/31 14:22:55.3	1.210	-0.310	0.120	0.370
2020/01/31 14:22:55.4	1.180	-0.290	0.080	0.390
2020/01/31 14:22:55.5	1.160	-0.270	0.040	0.410
2020/01/31 14:22:55.6	1.130	-0.240	0.010	0.430
2020/01/31 14:22:55.7	1.110	-0.220	-0.030	0.440
2020/01/31 14:22:55.8	1.090	-0.200	-0.060	0.450
2020/01/31 14:22:55.9	1.070	-0.170	-0.100	0.460
2020/01/31 14:22:56.0	1.050	-0.150	-0.130	0.460
2020/01/31 14:22:56.1	1.040	-0.120	-0.170	0.460
2020/01/31 14:22:56.2	1.020	-0.090	-0.200	0.450
2020/01/31 14:22:56.3	1.010	-0.070	-0.240	0.450
2020/01/31 14:22:56.4	1.010	-0.040	-0.270	0.440
2020/01/31 14:22:56.5	1.000	-0.020	-0.300	0.420
2020/01/31 14:22:56.6	1.000	0.010	-0.330	0.400
2020/01/31 14:22:56.7	1.010	0.040	-0.370	0.380
2020/01/31 14:22:56.8	1.020	0.060	-0.400	0.360
2020/01/31 14:22:56.9	1.030	0.090	-0.430	0.330
2020/01/31 14:22:57.0	1.040	0.110	-0.460	0.310
2020/01/31 14:22:57.1	1.050	0.140	-0.490	0.280
2020/01/31 14:22:57.2	1.070	0.160	-0.520	0.250
2020/01/31 14:22:57.3	1.090	0.190	-0.540	0.220
2020/01/31 14:22:57.4	1.120	0.210	-0.570	0.190
2020/01/31 14:22:57.5	1.140	0.240	-0.590	0.170
2020/01/31 14:22:57.6	1.170	0.260	-0.610	0.140
2020/01/31 14:22:57.7	1.200	0.290	-0.630	0.120
2020/01/31 14:22:57.8	1.220	0.310	-0.650	0.090
2020/01/31 14:22:57.9	1.250	0.330	-0.660	0.070
2020/01/31 14:22:58.0	1.270	0.350	-0.670	0.050
2020/01/31 14:22:58.1	1.300	0.370	-0.680	0.040
2020/01/31 14:22:58.2	1.330	0.380	-0.690	0.020
2020/01/31 14:22:58.3	1.350	0.400	-0.690	0.010
2020/01/31 14:22:58.4	1.380	0.410	-0.690	-0.000
2020/01/31 14:22:58.5	1.400	0.420	-0.690	-0.010
2020/01/31 14:22:58.6	1.420	0.420	-0.690	-0.020
2020/01/31 14:22:58.7	1.440	0.430	-0.680	-0.030
2020/01/31 14:22:58.8	1.460	0.430	-0.670	-0.040
2020/01/31 14:22:58.9	1.470	0.430	-0.650	-0.050
2020/01/31 14:22:59.0	1.490	0.420	-0.640	-0.050
2020/01/31 14:22:59.1	1.500	0.420	-0.620	-0.060
2020/01/31 14:22:59.2	1.510	0.410	-0.600	-0.070
2020/01/31 14:22:59.3	1.520	0.390	-0.580	-0.080
2020/01/31 14:22:59.4	1.530	0.380	-0.550	-0.080
2020/01/31 14:22:59.5	1.530	0.360	-0.520	-0.090
2020/01/31 14:22:59.6	1.540	0.340	-0.490	-0.100
2020/01/31 14:22:59.7	1.530	0.310	-0.470	-0.110
2020/01/31 14:22:59.8	1.530	0.280	-0.430	-0.120
2020/01/31 14:22:59.9	1.530	0.250	-0.400	-0.130
2020/01/31 14:23:00.0	1.520	0.220	-0.370	-0.130
2020/01/31 14:23:00.1	1.510	0.190	-0.330	-0.140
2020/01/31 14:23:00.2	1.500	0.150	-0.300	-0.150
2020/01/31 14:23:00.3	1.490	0.120	-0.260	-0.150
2020/01/31 14:23:00.4	1.470	0.080	-0.230	-0.160
2020/01/31 14:23:00.5	1.460	0.040	-0.200	-0.160
2020/01/31 14:23:00.6	1.440	-0.000	-0.160	-0.170
2020/01/31 14:23:00.7	1.420	-0.040	-0.130	-0.180
2020/01/31 14:23:00.8	1.400	-0.080	-0.100	-0.180
2020/01/31 14:23:00.9	1.380	-0.120	-0.080	-0.190
2020/01/31 14:23:01.0	1.360	-0.160	-0.060	-0.200
2020/01/31 14:23:01.1	1.330	-0.200	-0.040	-0.210
2020/01/31 14:23:01.2	1.310	-0.230	-0.030	-0.220
2020/01/31 14:23:01.3	1.290	-0.270	-0.030	-0.240
2020/01/31 14:23:01.4	1.270	-0.300	-0.030	-0.260
2020/01/31 14:23:01.5	1.250	-0.330	-0.030	-0.280
2020/01/31 14:23:01.6	1.240	-0.350	-0.040	-0.310
2020/01/31 14:23:01.7	1.220	-0.370	-0.060	-0.340
2020/01/31 14:23:01.8	1.210	-0.390	-0.080	-0.370
2020/01/31 14:23:01.9	1.200	-0.410	-0.110	-0.410
2020/01/31 14:23:02.0	1.190	-0.420	-0.140	-0.450
2020/01/31 14:23:02.1	1.190	-0.420	-0.180	-0.490
2020/01/31 14:23:02.2	1.190	-0.420	-0.220	-0.540
2020/01/31 14:23:02.3	1.190	-0.420	-0.270	-0.590
2020/01/31 14:23:02.4	1.200	-0.410	-0.320	-0.650
2020/01/31 14:23:02.5	1.210	-0.400	-0.370	-0.700
2020/01/31 14:23:02.6	1.220	-0.380	-0.420	-0.760
2020/01/31 14:23:02.7	1.230	-0.350	-0.470	-0.830
2020/01/31 14:23:02.8	1.250	-0.320	-0.520	-0.890
2020/01/31 14:23:02.9	1.270	-0.290	-0.570	-0.950
2020/01/31 14:23:03.0	1.290	-0.260	-0.620	-1.010
2020/01/31 14:23:03.1	1.310	-0.220	-0.670	-1.060
2020/01/31 14:23:03.2	1.330	-0.170	-0.710	-1.120
2020/01/31 14:23:03.3	1.360	-0.130	-0.750	-1.170
2020/01/31 14:23:03.4	1.380	-0.080	-0.780	-1.220
2020/01/31 14:23:03.5	1.400	-0.030	-0.810	-1.260
2020/01/31 14:23:03.6	1.430	0.030	-0.830	-1.290
2020/01/31 14:23:03.7	1.440	0.080	-0.850	-1.330
2020/01/31 14:23:03.8	1.460	0.130	-0.860	-1.350
2020/01/31 14:23:03.9	1.480	0.190	-0.860	-1.370
2020/01/31 14:23:04.0	1.490	0.240	-0.860	-1.380
2020/01/31 14:23:04.1	1.510	0.290	-0.850	-1.390
2020/01/31 14:23:04.2	1.520	0.340	-0.830	-1.390
2020/01/31 14:23:04.3	1.530	0.390	-0.810	-1.390
2020/01/31 14:23:04.4	1.550	0.430	-0.780	-1.380
2020/01/31 14:23:04.5	1.560	0.480	-0.750	-1.360
2020/01/31 14:23:04.6	1.570	0.510	-0.710	-1.340
2020/01/31 14:23:04.7	1.580	0.550	-0.670	-1.320
2020/01/31 14:23:04.8	1.590	0.580	-0.620	-1.290
2020/01/31 14:23:04.9	1.600	0.610	-0.570	-1.260
2020/01/31 14:23:05.0	1.600	0.630	-0.520	-1.220
2020/01/31 14:23:05.1	1.610	0.650	-0.460	-1.190
2020/01/31 14:23:05.2	1.620	0.660	-0.410	-1.150
2020/01/31 14:23:05.3	1.630	0.670	-0.350	-1.110
2020/01/31 14:23:05.4	1.640	0.670	-0.290	-1.060
2020/01/31 14:23:05.5	1.640	0.670	-0.230	-1.020
2020/01/31 14:23:05.6	1.650	0.670	-0.180	-0.970
2020/01/31 14:23:05.7	1.670	0.660	-0.120	-0.930
2020/01/31 14:23:05.8	1.680	0.640	-0.070	-0.880
2020/01/31 14:23:05.9	1.680	0.620	-0.010	-0.840
2020/01/31 14:23:06.0	1.690	0.600	0.040	-0.790
2020/01/31 14:23:06.1	1.700	0.570	0.090	-0.740
2020/01/31 14:23:06.2	1.700	0.540	0.130	-0.690
2020/01/31 14:23:06.3	1.700	0.500	0.180	-0.650
2020/01/31 14:23:06.4	1.710	0.460	0.230	-0.600
2020/01/31 14:23:06.5	1.710	0.420	0.270	-0.550
2020/01/31 14:23:06.6	1.710	0.370	0.310	-0.500
2020/01/31 14:23:06.7	1.700	0.320	0.360	-0.450
2020/01/31 14:23:06.8	1.700	0.270	0.400	-0.410
2020/01/31 14:23:06.9	1.690	0.210	0.440	-0.360
2020/01/31 14:23:07.0	1.680	0.160	0.470	-0.310
2020/01/31 14:23:07.1	1.670	0.100	0.510	-0.260
2020/01/31 14:23:07.2	1.660	0.040	0.550	-0.220
2020/01/31 14:23:07.3	1.650	-0.020	0.580	-0.170
2020/01/31 14:23:07.4	1.640	-0.080	0.620	-0.120
2020/01/31 14:23:07.5	1.630	-0.140	0.650	-0.080
2020/01/31 14:23:07.6	1.610	-0.200	0.670	-0.030
2020/01/31 14:23:07.7	1.590	-0.270	0.700	0.010
2020/01/31 14:23:07.8	1.580	-0.320	0.720	0.050
2020/01/31 14:23:07.9	1.560	-0.380	0.730	0.090
2020/01/31 14:23:08.0	1.550	-0.440	0.750	0.130
2020/01/31 14:23:08.1	1.540	-0.490	0.750	0.170
2020/01/31 14:23:08.2	1.530	-0.540	0.750	0.200
2020/01/31 14:23:08.3	1.530	-0.590	0.750	0.230
2020/01/31 14:23:08.4	1.520	-0.640	0.740	0.260
2020/01/31 14:23:08.5	1.520	-0.680	0.720	0.280
2020/01/31 14:23:08.6	1.510	-0.710	0.690	0.300
2020/01/31 14:23:08.7	1.520	-0.750	0.660	0.310
2020/01/31 14:23:08.8	1.520	-0.770	0.620	0.330
2020/01/31 14:23:08.9	1.520	-0.800	0.580	0.330
2020/01/31 14:23:09.0	1.520	-0.820	0.520	0.340
2020/01/31 14:23:09.1	1.530	-0.830	0.470	0.340
2020/01/31 14:23:09.2	1.530	-0.840	0.410	0.340
2020/01/31 14:23:09.3	1.540	-0.850	0.340	0.330
2020/01/31 14:23:09.4	1.540	-0.840	0.270	0.320
2020/01/31 14:23:09.5	1.540	-0.840	0.200	0.310
2020/01/31 14:23:09.6	1.550	-0.830	0.120	0.300
2020/01/31 14:23:09.7	1.560	-0.810	0.050	0.290
2020/01/31 14:23:09.8	1.570	-0.790	-0.030	0.270
2020/01/31 14:23:09.9	1.570	-0.760	-0.110	0.260
2020/01/31 14:23:10.0	1.570	-0.730	-0.190	0.250
2020/01/31 14:23:10.1	1.560	-0.700	-0.270	0.250
2020/01/31 14:23:10.2	1.560	-0.660	-0.340	0.240
2020/01/31 14:23:10.3	1.550	-0.620	-0.410	0.240
2020/01/31 14:23:10.4	1.540	-0.570	-0.480	0.230
2020/01/31 14:23:10.5	1.530	-0.520	-0.550	0.240
2020/01/31 14:23:10.6	1.510	-0.470	-0.610	0.240
2020/01/31 14:23:10.7	1.500	-0.410	-0.670	0.240
2020/01/31 14:23:10.8	1.480	-0.360	-0.720	0.250
2020/01/31 14:23:10.9	1.460	-0.300	-0.770	0.260
2020/01/31 14:23:11.0	1.440	-0.240	-0.810	0.270
2020/01/31 14:23:11.1	1.420	-0.180	-0.850	0.280
2020/01/31 14:23:11.2	1.400	-0.120	-0.880	0.300
2020/01/31 14:23:11.3	1.370	-0.050	-0.910	0.310
2020/01/31 14:23:11.4	1.350	0.010	-0.930	0.330
2020/01/31 14:23:11.5	1.330	0.070	-0.950	0.340
2020/01/31 14:23:11.6	1.310	0.120	-0.970	0.350
2020/01/31 14:23:11.7	1.260	0.180	-0.980	0.370
2020/01/31 14:23:11.8	1.240	0.230	-0.980	0.380
2020/01/31 14:23:11.9	1.220	0.290	-0.990	0.390
2020/01/31 14:23:12.0	1.200	0.330	-0.990	0.400
2020/01/31 14:23:12.1	1.190	0.380	-0.990	0.410
2020/01/31 14:23:12.2	1.170	0.420	-0.990	0.410
2020/01/31 14:23:12.3	1.160	0.460	-0.980	0.420
2020/01/31 14:23:12.4	1.150	0.500	-0.980	0.420
2020/01/31 14:23:12.5	1.150	0.530	-0.970	0.410
2020/01/31 14:23:12.6	1.140	0.560	-0.960	0.410
2020/01/31 14:23:12.7	1.140	0.590	-0.950	0.400
2020/01/31 14:23:12.8	1.140	0.610	-0.940	0.390
2020/01/31 14:23:12.9	1.150	0.630	-0.930	0.380
2020/01/31 14:23:13.0	1.160	0.640	-0.930	0.360
2020/01/31 14:23:13.1	1.170	0.650	-0.920	0.340
2020/01/31 14:23:13.2	1.190	0.660	-0.910	0.320
2020/01/31 14:23:13.3	1.210	0.670	-0.900	0.300
2020/01/31 14:23:13.4	1.230	0.670	-0.890	0.270
2020/01/31 14:23:13.5	1.260	0.660	-0.880	0.240
2020/01/31 14:23:13.6	1.290	0.660	-0.870	0.210
2020/01/31 14:23:13.7	1.320	0.650	-0.860	0.180
2020/01/31 14:23:13.8	1.350	0.640	-0.850	0.140
2020/01/31 14:23:13.9	1.390	0.620	-0.840	0.110
2020/01/31 14:23:14.0	1.420	0.600	-0.830	0.070
2020/01/31 14:23:14.1	1.460	0.580	-0.820	0.030
2020/01/31 14:23:14.2	1.500	0.560	-0.800	-0.010
2020/01/31 14:23:14.3	1.540	0.540	-0.780	-0.060
2020/01/31 14:23:14.4	1.580	0.510	-0.760	-0.100
2020/01/31 14:23:14.5	1.620	0.480	-0.730	-0.140
2020/01/31 14:23:14.6	1.660	0.450	-0.700	-0.190
2020/01/31 14:23:14.7	1.710	0.420	-0.670	-0.240
2020/01/31 14:23:14.8	1.750	0.390	-0.640	-0.280
2020/01/31 14:23:14.9	1.790	0.350	-0.600	-0.330
2020/01/31 14:23:15.0	1.830	0.320	-0.560	-0.370
2020/01/31 14:23:15.1	1.860	0.280	-0.510	-0.420
2020/01/31 14:23:15.2	1.900	0.240	-0.460	-0.460
2020/01/31 14:23:15.3	1.930	0.200	-0.410	-0.500
2020/01/31 14:23:15.4	1.960	0.170	-0.360	-0.540
2020/01/31 14:23:15.5	1.990	0.130	-0.300	-0.580
2020/01/31 14:23:15.6	2.020	0.090	-0.240	-0.620
2020/01/31 14:23:15.7	2.050	0.050	-0.180	-0.650
2020/01/31 14:23:15.8	2.070	0.010	-0.120	-0.680
2020/01/31 14:23:15.9	2.100	-0.030	-0.060	-0.720
2020/01/31 14:23:16.0	2.120	-0.060	-0.000	-0.750
2020/01/31 14:23:16.1	2.130	-0.100	0.060	-0.770
2020/01/31 14:23:16.2	2.150	-0.140	0.120	-0.800
2020/01/31 14:23:16.3	2.160	-0.170	0.170	-0.820
2020/01/31 14:23:16.4	2.170	-0.200	0.230	-0.840
2020/01/31 14:23:16.5	2.180	-0.230	0.280	-0.860
2020/01/31 14:23:16.6	2.180	-0.260	0.330	-0.870
2020/01/31 14:23:16.7	2.210	-0.290	0.380	-0.890
2020/01/31 14:23:16.8	2.210	-0.310	0.410	-0.900
2020/01/31 14:23:16.9	2.200	-0.330	0.450	-0.910
2020/01/31 14:23:17.0	2.200	-0.350	0.480	-0.910
2020/01/31 14:23:17.1	2.200	-0.370	0.500	-0.920
2020/01/31 14:23:17.2	2.190	-0.380	0.520	-0.920
2020/01/31 14:23:17.3	2.180	-0.390	0.530	-0.930
2020/01/31 14:23:17.4	2.170	-0.400	0.540	-0.930
2020/01/31 14:23:17.5	2.160	-0.400	0.530	-0.930
2020/01/31 14:23:17.6	2.150	-0.400	0.530	-0.930
2020/01/31 14:23:17.7	2.110	-0.400	0.510	-0.930
2020/01/31 14:23:17.8	2.090	-0.400	0.500	-0.930
2020/01/31 14:23:17.9	2.080	-0.390	0.470	-0.930
2020/01/31 14:23:18.0	2.060	-0.380	0.440	-0.930
2020/01/31 14:23:18.1	2.050	-0.360	0.410	-0.920
2020/01/31 14:23:18.2	2.030	-0.350	0.380	-0.920
2020/01/31 14:23:18.3	2.010	-0.330	0.330	-0.910
2020/01/31 14:23:18.4	1.990	-0.310	0.290	-0.910
2020/01/31 14:23:18.5	1.970	-0.290	0.250	-0.900
2020/01/31 14:23:18.6	1.940	-0.260	0.200	-0.890
2020/01/31 14:23:18.7	1.920	-0.240	0.150	-0.880
2020/01/31 14:23:18.8	1.900	-0.210	0.100	-0.870
2020/01/31 14:23:18.9	1.880	-0.180	0.050	-0.860
2020/01/31 14:23:19.0	1.850	-0.150	0.010	-0.840
2020/01/31 14:23:19.1	1.830	-0.120	-0.040	-0.830
2020/01/31 14:23:19.2	1.800	-0.090	-0.090	-0.810
2020/01/31 14:23:19.3	1.780	-0.060	-0.130	-0.790
2020/01/31 14:23:19.4	1.760	-0.030	-0.170	-0.770
2020/01/31 14:23:19.5	1.740	0.000	-0.210	-0.750
2020/01/31 14:23:19.6	1.720	0.030	-0.240	-0.730
2020/01/31 14:23:19.7	1.700	0.060	-0.270	-0.700
2020/01/31 14:23:19.8	1.680	0.090	-0.300	-0.680
2020/01/31 14:23:19.9	1.660	0.120	-0.320	-0.650
2020/01/31 14:23:20.0	1.650	0.150	-0.340	-0.620
2020/01/31 14:23:20.1	1.640	0.180	-0.360	-0.590
2020/01/31 14:23:20.2	1.620	0.200	-0.370	-0.560
2020/01/31 14:23:20.3	1.610	0.230	-0.380	-0.520
2020/01/31 14:23:20.4	1.600	0.250	-0.390	-0.490
2020/01/31 14:23:20.5	1.590	0.280	-0.390	-0.450
2020/01/31 14:23:20.6	1.590	0.300	-0.390	-0.420
2020/01/31 14:23:20.7	1.580	0.320	-0.380	-0.380
2020/01/31 14:23:20.8	1.580	0.340	-0.370	-0.350
2020/01/31 14:23:20.9	1.570	0.350	-0.360	-0.310
2020/01/31 14:23:21.0	1.570	0.370	-0.350	-0.270
2020/01/31 14:23:21.1	1.560	0.380	-0.330	-0.230
2020/01/31 14:23:21.2	1.560	0.390	-0.320	-0.180
2020/01/31 14:23:21.3	1.550	0.400	-0.300	-0.140
2020/01/31 14:23:21.4	1.540	0.400	-0.270	-0.100
2020/01/31 14:23:21.5	1.530	0.400	-0.250	-0.060
2020/01/31 14:23:21.6	1.520	0.400	-0.220	-0.020
2020/01/31 14:23:21.7	1.510	0.400	-0.200	0.030
2020/01/31 14:23:21.8	1.500	0.400	-0.170	0.070
2020/01/31 14:23:21.9	1.490	0.390	-0.140	0.110
2020/01/31 14:23:22.0	1.470	0.380	-0.120	0.150
2020/01/31 14:23:22.1	1.460	0.360	-0.090	0.190
2020/01/31 14:23:22.2	1.450	0.350	-0.060	0.230
2020/01/31 14:23:22.3	1.430	0.330	-0.040	0.270
2020/01/31 14:23:22.4	1.420	0.310	-0.020	0.310
2020/01/31 14:23:22.5	1.400	0.280	0.000	0.350
2020/01/31 14:23:22.6	1.390	0.260	0.020	0.380
2020/01/31 14:23:22.7	1.380	0.230	0.040	0.410
2020/01/31 14:23:22.8	1.370	0.200	0.050	0.440
2020/01/31 14:23:22.9	1.350	0.180	0.060	0.470
2020/01/31 14:23:23.0	1.340	0.150	0.070	0.500
2020/01/31 14:23:23.1	1.330	0.110	0.070	0.520
2020/01/31 14:23:23.2	1.320	0.080	0.070	0.550
2020/01/31 14:23:23.3	1.320	0.050	0.060	0.570
2020/01/31 14:23:23.4	1.310	0.020	0.050	0.590
2020/01/31 14:23:23.5	1.310	-0.010	0.040	0.600
2020/01/31 14:23:23.6	1.300	-0.040	0.030	0.620
2020/01/31 14:23:23.7	1.300	-0.070	0.010	0.630
2020/01/31 14:23:23.8	1.300	-0.100	-0.020	0.630
2020/01/31 14:23:23.9	1.300	-0.130	-0.040	0.640
2020/01/31 14:23:24.0	1.310	-0.160	-0.070	0.640
2020/01/31 14:23:24.1	1.320	-0.190	-0.100	0.630
2020/01/31 14:23:24.2	1.320	-0.210	-0.140	0.620
2020/01/31 14:23:24.3	1.330	-0.240	-0.170	0.610
2020/01/31 14:23:24.4	1.340	-0.260	-0.210	0.600
2020/01/31 14:23:24.5	1.360	-0.280	-0.250	0.580
2020/01/31 14:23:24.6	1.370	-0.300	-0.280	0.560
2020/01/31 14:23:24.7	1.370	-0.320	-0.320	0.530
2020/01/31 14:23:24.8	1.390	-0.340	-0.360	0.500
2020/01/31 14:23:24.9	1.400	-0.360	-0.390	0.470
2020/01/31 14:23:25.0	1.410	-0.380	-0.430	0.440
2020/01/31 14:23:25.1	1.420	-0.390	-0.470	0.410
2020/01/31 14:23:25.2	1.440	-0.400	-0.500	0.370
2020/01/31 14:23:25.3	1.450	-0.410	-0.540	0.330
2020/01/31 14:23:25.4	1.470	-0.420	-0.580	0.280
2020/01/31 14:23:25.5	1.490	-0.430	-0.610	0.230
2020/01/31 14:23:25.6	1.510	-0.440	-0.650	0.180
2020/01/31 14:23:25.7	1.540	-0.440	-0.680	0.120
2020/01/31 14:23:25.8	1.560	-0.440	-0.720	0.060
2020/01/31 14:23:25.9	1.590	-0.440	-0.750	0.000
2020/01/31 14:23:26.0	1.610	-0.440	-0.780	-0.060
2020/01/31 14:23:26.1	1.640	-0.430	-0.810	-0.120
2020/01/31 14:23:26.2	1.670	-0.420	-0.850	-0.190
2020/01/31 14:23:26.3	1.710	-0.410	-0.880	-0.260
2020/01/31 14:23:26.4	1.740	-0.400	-0.910	-0.320
2020/01/31 14:23:26.5	1.770	-0.380	-0.930	-0.390
2020/01/31 14:23:26.6	1.810	-0.360	-0.960	-0.460
2020/01/31 14:23:26.7	1.850	-0.340	-0.980	-0.530
2020/01/31 14:23:26.8	1.880	-0.320	-1.000	-0.600
2020/01/31 14:23:26.9	1.920	-0.290	-1.020	-0.660
2020/01/31 14:23:27.0	1.960	-0.270	-1.040	-0.720
2020/01/31 14:23:27.1	2.000	-0.240	-1.050	-0.780
2020/01/31 14:23:27.2	2.040	-0.210	-1.060	-0.840
2020/01/31 14:23:27.3	2.070	-0.180	-1.060	-0.890
2020/01/31 14:23:27.4	2.100	-0.150	-1.060	-0.940
2020/01/31 14:23:27.5	2.130	-0.120	-1.060	-0.990
2020/01/31 14:23:27.6	2.160	-0.090	-1.050	-1.040
2020/01/31 14:23:27.7	2.170	-0.060	-1.030	-1.080
2020/01/31 14:23:27.8	2.190	-0.030	-1.010	-1.120
2020/01/31 14:23:27.9	2.210	0.000	-0.980	-1.150
2020/01/31 14:23:28.0	2.230	0.030	-0.950	-1.180
2020/01/31 14:23:28.1	2.240	0.060	-0.910	-1.210
2020/01/31 14:23:28.2	2.250	0.090	-0.870	-1.240
2020/01/31 14:23:28.3	2.260	0.110	-0.820	-1.250
2020/01/31 14:23:28.4	2.270	0.140	-0.770	-1.270
2020/01/31 14:23:28.5	2.270	0.160	-0.720	-1.280
2020/01/31 14:23:28.6	2.280	0.180	-0.660	-1.290
2020/01/31 14:23:28.7	2.270	0.200	-0.590	-1.300
2020/01/31 14:23:28.8	2.260	0.220	-0.530	-1.290
2020/01/31 14:23:28.9	2.260	0.230	-0.460	-1.290
2020/01/31 14:23:29.0	2.250	0.250	-0.380	-1.270
2020/01/31 14:23:29.1	2.230	0.260	-0.310	-1.250
2020/01/31 14:23:29.2	2.220	0.270	-0.230	-1.230
2020/01/31 14:23:29.3	2.200	0.280	-0.150	-1.190
2020/01/31 14:23:29.4	2.180	0.290	-0.070	-1.150
2020/01/31 14:23:29.5	2.150	0.300	0.000	-1.110
2020/01/31 14:23:29.6	2.120	0.300	0.080	-1.060
2020/01/31 14:23:29.7	2.090	0.310	0.160	-1.000
2020/01/31 14:23:29.8	2.060	0.310	0.230	-0.940
2020/01/31 14:23:29.9	2.020	0.310	0.310	-0.870
2020/01/31 14:23:30.0	1.980	0.310	0.370	-0.810
2020/01/31 14:23:30.1	1.930	0.310	0.440	-0.730
2020/01/31 14:23:30.2	1.890	0.310	0.500	-0.660
2020/01/31 14:23:30.3	1.840	0.310	0.560	-0.580
2020/01/31 14:23:30.4	1.790	0.310	0.610	-0.500
2020/01/31 14:23:30.5	1.740	0.310	0.650	-0.420
2020/01/31 14:23:30.6	1.690	0.300	0.690	-0.340
2020/01/31 14:23:30.7	1.640	0.300	0.730	-0.250
2020/01/31 14:23:30.8	1.590	0.290	0.750	-0.170
2020/01/31 14:23:30.9	1.530	0.290	0.770	-0.090
2020/01/31 14:23:31.0	1.480	0.280	0.790	-0.020
2020/01/31 14:23:31.1	1.430	0.280	0.790	0.060
2020/01/31 14:23:31.2	1.380	0.270	0.800	0.130
2020/01/31 14:23:31.3	1.330	0.260	0.790	0.190
2020/01/31 14:23:31.4	1.280	0.260	0.770	0.250
2020/01/31 14:23:31.5	1.240	0.250	0.760	0.310
2020/01/31 14:23:31.6	1.190	0.240	0.730	0.370
2020/01/31 14:23:31.7	1.140	0.240	0.690	0.410
2020/01/31 14:23:31.8	1.100	0.230	0.650	0.460
2020/01/31 14:23:31.9	1.060	0.220	0.610	0.500
2020/01/31 14:23:32.0	1.030	0.220	0.560	0.530
2020/01/31 14:23:32.1	1.000	0.210	0.510	0.560
2020/01/31 14:23:32.2	0.970	0.210	0.450	0.590
2020/01/31 14:23:32.3	0.940	0.200	0.390	0.610
2020/01/31 14:23:32.4	0.920	0.200	0.330	0.620
2020/01/31 14:23:32.5	0.900	0.190	0.260	0.630
2020/01/31 14:23:32.6	0.880	0.190	0.190	0.640
2020/01/31 14:23:32.7	0.870	0.180	0.130	0.640
2020/01/31 14:23:32.8	0.860	0.180	0.050	0.640
2020/01/31 14:23:32.9	0.860	0.170	-0.020	0.640
2020/01/31 14:23:33.0	0.850	0.170	-0.090	0.630
2020/01/31 14:23:33.1	0.850	0.170	-0.160	0.620
2020/01/31 14:23:33.2	0.850	0.160	-0.230	0.610
2020/01/31 14:23:33.3	0.850	0.160	-0.300	0.590
2020/01/31 14:23:33.4	0.860	0.160	-0.370	0.570
2020/01/31 14:23:33.5	0.870	0.150	-0.430	0.550
2020/01/31 14:23:33.6	0.880	0.150	-0.490	0.530
2020/01/31 14:23:33.7	0.880	0.150	-0.560	0.500
2020/01/31 14:23:33.8	0.890	0.140	-0.610	0.470
2020/01/31 14:23:33.9	0.900	0.130	-0.660	0.440
2020/01/31 14:23:34.0	0.920	0.130	-0.710	0.410
2020/01/31 14:23:34.1	0.940	0.120	-0.750	0.380
2020/01/31 14:23:34.2	0.960	0.110	-0.790	0.340
2020/01/31 14:23:34.3	0.980	0.100	-0.820	0.300
2020/01/31 14:23:34.4	1.000	0.090	-0.850	0.260
2020/01/31 14:23:34.5	1.020	0.070	-0.870	0.220
2020/01/31 14:23:34.6	1.040	0.060	-0.890	0.180
2020/01/31 14:23:34.7	1.070	0.040	-0.910	0.130
2020/01/31 14:23:34.8	1.090	0.030	-0.910	0.090
2020/01/31 14:23:34.9	1.120	0.010	-0.920	0.040
2020/01/31 14:23:35.0	1.140	-0.010	-0.920	-0.000
2020/01/31 14:23:35.1	1.170	-0.040	-0.910	-0.050
2020/01/31 14:23:35.2	1.200	-0.060	-0.900	-0.100
2020/01/31 14:23:35.3	1.230	-0.090	-0.890	-0.140
2020/01/31 14:23:35.4	1.250	-0.110	-0.870	-0.190
2020/01/31 14:23:35.5	1.280	-0.140	-0.840	-0.230
2020/01/31 14:23:35.6	1.310	-0.170	-0.810	-0.280
2020/01/31 14:23:35.7	1.330	-0.200	-0.780	-0.320
2020/01/31 14:23:35.8	1.350	-0.230	-0.750	-0.360
2020/01/31 14:23:35.9	1.380	-0.260	-0.710	-0.400
2020/01/31 14:23:36.0	1.400	-0.290	-0.670	-0.440
2020/01/31 14:23:36.1	1.430	-0.320	-0.620	-0.480
2020/01/31 14:23:36.2	1.450	-0.350	-0.580	-0.520
2020/01/31 14:23:36.3	1.470	-0.380	-0.530	-0.560
2020/01/31 14:23:36.4	1.480	-0.400	-0.480	-0.590
2020/01/31 14:23:36.5	1.500	-0.430	-0.430	-0.620
2020/01/31 14:23:36.6	1.510	-0.460	-0.370	-0.650
2020/01/31 14:23:36.7	1.530	-0.480	-0.320	-0.680
2020/01/31 14:23:36.8	1.530	-0.500	-0.270	-0.690
2020/01/31 14:23:36.9	1.540	-0.520	-0.220	-0.710
2020/01/31 14:23:37.0	1.530	-0.540	-0.170	-0.720
2020/01/31 14:23:37.1	1.530	-0.550	-0.120	-0.730
2020/01/31 14:23:37.2	1.530	-0.570	-0.070	-0.740
2020/01/31 14:23:37.3	1.520	-0.570	-0.030	-0.740
2020/01/31 14:23:37.4	1.510	-0.580	0.010	-0.740
2020/01/31 14:23:37.5	1.500	-0.580	0.050	-0.740
2020/01/31 14:23:37.6	1.480	-0.580	0.080	-0.730
2020/01/31 14:23:37.7	1.460	-0.570	0.110	-0.730
2020/01/31 14:23:37.8	1.450	-0.560	0.130	-0.730
2020/01/31 14:23:37.9	1.430	-0.550	0.150	-0.720
2020/01/31 14:23:38.0	1.410	-0.530	0.160	-0.720
2020/01/31 14:23:38.1	1.400	-0.510	0.170	-0.710
2020/01/31 14:23:38.2	1.380	-0.490	0.170	-0.700
2020/01/31 14:23:38.3	1.360	-0.460	0.170	-0.700
2020/01/31 14:23:38.4	1.340	-0.430	0.160	-0.690
2020/01/31 14:23:38.5	1.320	-0.390	0.140	-0.680
2020/01/31 14:23:38.6	1.300	-0.350	0.120	-0.670
2020/01/31 14:23:38.7	1.280	-0.310	0.090	-0.670
2020/01/31 14:23:38.8	1.260	-0.270	0.060	-0.660
2020/01/31 14:23:38.9	1.240	-0.230	0.030	-0.640
2020/01/31 14:23:39.0	1.210	-0.180	-0.010	-0.630
2020/01/31 14:23:39.1	1.190	-0.140	-0.050	-0.610
2020/01/31 14:23:39.2	1.170	-0.090	-0.090	-0.590
2020/01/31 14:23:39.3	1.140	-0.040	-0.140	-0.570
2020/01/31 14:23:39.4	1.120	0.010	-0.180	-0.550
2020/01/31 14:23:39.5	1.100	0.050	-0.230	-0.530
2020/01/31 14:23:39.6	1.080	0.100	-0.280	-0.510
2020/01/31 14:23:39.7	1.040	0.140	-0.320	-0.480
2020/01/31 14:23:39.8	1.020	0.190	-0.370	-0.460
2020/01/31 14:23:39.9	1.000	0.230	-0.410	-0.430
2020/01/31 14:23:40.0	0.980	0.260	-0.460	-0.410
2020/01/31 14:23:40.1	0.970	0.300	-0.500	-0.380
2020/01/31 14:23:40.2	0.960	0.330	-0.530	-0.360
2020/01/31 14:23:40.3	0.940	0.360	-0.570	-0.340
2020/01/31 14:23:40.4	0.930	0.390	-0.600	-0.310
2020/01/31 14:23:40.5	0.930	0.410	-0.620	-0.290
2020/01/31 14:23:40.6	0.920	0.430	-0.640	-0.260
2020/01/31 14:23:40.7	0.920	0.450	-0.660	-0.240
2020/01/31 14:23:40.8	0.920	0.460	-0.670	-0.220
2020/01/31 14:23:40.9	0.920	0.470	-0.680	-0.190
2020/01/31 14:23:41.0	0.920	0.480	-0.680	-0.160
2020/01/31 14:23:41.1	0.930	0.480	-0.680	-0.140
2020/01/31 14:23:41.2	0.930	0.480	-0.670	-0.110
2020/01/31 14:23:41.3	0.930	0.480	-0.660	-0.080
2020/01/31 14:23:41.4	0.940	0.470	-0.650	-0.050
2020/01/31 14:23:41.5	0.940	0.460	-0.630	-0.020
2020/01/31 14:23:41.6	0.940	0.450	-0.600	0.010
2020/01/31 14:23:41.7	0.960	0.440	-0.570	0.050
2020/01/31 14:23:41.8	0.960	0.430	-0.540	0.080
2020/01/31 14:23:41.9	0.960	0.410	-0.500	0.120
2020/01/31 14:23:42.0	0.960	0.390	-0.460	0.150
2020/01/31 14:23:42.1	0.960	0.370	-0.420	0.190
2020/01/31 14:23:42.2	0.960	0.350	-0.380	0.230
2020/01/31 14:23:42.3	0.950	0.330	-0.340	0.270
2020/01/31 14:23:42.4	0.950	0.300	-0.290	0.300
2020/01/31 14:23:42.5	0.940	0.270	-0.250	0.340
2020/01/31 14:23:42.6	0.930	0.250	-0.200	0.380
2020/01/31 14:23:42.7	0.940	0.220	-0.160	0.420
2020/01/31 14:23:42.8	0.930	0.190	-0.120	0.450
2020/01/31 14:23:42.9	0.920	0.160	-0.080	0.480
2020/01/31 14:23:43.0	0.910	0.130	-0.040	0.510
2020/01/31 14:23:43.1	0.890	0.110	-0.000	0.540
2020/01/31 14:23:43.2	0.870	0.080	0.030	0.560
2020/01/31 14:23:43.3	0.860	0.050	0.060	0.580
2020/01/31 14:23:43.4	0.840	0.020	0.090	0.600
2020/01/31 14:23:43.5	0.820	-0.010	0.110	0.610
2020/01/31 14:23:43.6	0.800	-0.040	0.130	0.630
2020/01/31 14:23:43.7	0.760	-0.060	0.150	0.640
2020/01/31 14:23:43.8	0.740	-0.090	0.160	0.640
2020/01/31 14:23:43.9	0.720	-0.110	0.170	0.650
2020/01/31 14:23:44.0	0.690	-0.140	0.180	0.660
2020/01/31 14:23:44.1	0.660	-0.160	0.180	0.660
2020/01/31 14:23:44.2	0.640	-0.180	0.180	0.660
2020/01/31 14:23:44.3	0.610	-0.200	0.180	0.660
2020/01/31 14:23:44.4	0.580	-0.210	0.170	0.660
2020/01/31 14:23:44.5	0.550	-0.230	0.170	0.660
2020/01/31 14:23:44.6	0.520	-0.240	0.160	0.660
2020/01/31 14:23:44.7	0.500	-0.250	0.150	0.650
2020/01/31 14:23:44.8	0.480	-0.260	0.130	0.650
2020/01/31 14:23:44.9	0.450	-0.260	0.120	0.650
2020/01/31 14:23:45.0	0.420	-0.260	0.110	0.650
2020/01/31 14:23:45.1	0.400	-0.270	0.090	0.640
2020/01/31 14:23:45.2	0.370	-0.270	0.080	0.640
2020/01/31 14:23:45.3	0.350	-0.260	0.060	0.630
2020/01/31 14:23:45.4	0.330	-0.260	0.050	0.630
2020/01/31 14:23:45.5	0.310	-0.260	0.040	0.620
2020/01/31 14:23:45.6	0.290	-0.250	0.020	0.610
2020/01/31 14:23:45.7	0.260	-0.240	0.010	0.600
2020/01/31 14:23:45.8	0.250	-0.230	-0.000	0.580
2020/01/31 14:23:45.9	0.240	-0.220	-0.020	0.560
2020/01/31 14:23:46.0	0.230	-0.210	-0.030	0.540
2020/01/31 14:23:46.1	0.230	-0.200	-0.050	0.510
2020/01/31 14:23:46.2	0.230	-0.190	-0.060	0.480
2020/01/31 14:23:46.3	0.240	-0.170	-0.080	0.440
2020/01/31 14:23:46.4	0.250	-0.160	-0.100	0.400
2020/01/31 14:23:46.5	0.260	-0.150	-0.120	0.350
2020/01/31 14:23:46.6	0.280	-0.130	-0.140	0.300
2020/01/31 14:23:46.7	0.300	-0.120	-0.160	0.240
2020/01/31 14:23:46.8	0.320	-0.100	-0.180	0.180
2020/01/31 14:23:46.9	0.340	-0.090	-0.200	0.120
2020/01/31 14:23:47.0	0.370	-0.080	-0.230	0.050
2020/01/31 14:23:47.1	0.400	-0.060	-0.250	-0.010
2020/01/31 14:23:47.2	0.430	-0.050	-0.280	-0.080
2020/01/31 14:23:47.3	0.460	-0.040	-0.310	-0.160
2020/01/31 14:23:47.4	0.500	-0.030	-0.330	-0.230
2020/01/31 14:23:47.5	0.530	-0.010	-0.360	-0.300
2020/01/31 14:23:47.6	0.560	-0.000	-0.380	-0.370
2020/01/31 14:23:47.7	0.590	0.010	-0.400	-0.440
2020/01/31 14:23:47.8	0.620	0.010	-0.430	-0.510
2020/01/31 14:23:47.9	0.650	0.020	-0.450	-0.570
2020/01/31 14:23:48.0	0.680	0.030	-0.470	-0.630
2020/01/31 14:23:48.1	0.710	0.040	-0.480	-0.690
2020/01/31 14:23:48.2	0.730	0.050	-0.500	-0.740
2020/01/31 14:23:48.3	0.750	0.050	-0.510	-0.790
2020/01/31 14:23:48.4	0.770	0.060	-0.520	-0.840
2020/01/31 14:23:48.5	0.780	0.060	-0.530	-0.880
2020/01/31 14:23:48.6	0.800	0.060	-0.540	-0.910
2020/01/31 14:23:48.7	0.800	0.070	-0.540	-0.940
2020/01/31 14:23:48.8	0.800	0.070	-0.540	-0.970
2020/01/31 14:23:48.9	0.810	0.070	-0.540	-0.990
2020/01/31 14:23:49.0	0.810	0.070	-0.540	-1.010
2020/01/31 14:23:49.1	0.800	0.070	-0.540	-1.020
2020/01/31 14:23:49.2	0.800	0.070	-0.530	-1.040
2020/01/31 14:23:49.3	0.790	0.070	-0.530	-1.040
2020/01/31 14:23:49.4	0.770	0.070	-0.520	-1.050
2020/01/31 14:23:49.5	0.760	0.070	-0.510	-1.050
2020/01/31 14:23:49.6	0.740	0.070	-0.510	-1.050
2020/01/31 14:23:49.7	0.720	0.070	-0.500	-1.050
2020/01/31 14:23:49.8	0.700	0.060	-0.500	-1.040
2020/01/31 14:23:49.9	0.680	0.060	-0.490	-1.030
2020/01/31 14:23:50.0	0.650	0.060	-0.480	-1.010
2020/01/31 14:23:50.1	0.630	0.060	-0.480	-1.000
2020/01/31 14:23:50.2	0.600	0.060	-0.470	-0.980
2020/01/31 14:23:50.3	0.570	0.060	-0.470	-0.960
2020/01/31 14:23:50.4	0.550	0.060	-0.460	-0.930
2020/01/31 14:23:50.5	0.520	0.060	-0.460	-0.910
2020/01/31 14:23:50.6	0.490	0.060	-0.460	-0.880
2020/01/31 14:23:50.7	0.460	0.060	-0.460	-0.850
2020/01/31 14:23:50.8	0.430	0.070	-0.460	-0.820
2020/01/31 14:23:50.9	0.400	0.070	-0.450	-0.790
2020/01/31 14:23:51.0	0.370	0.070	-0.450	-0.760
2020/01/31 14:23:51.1	0.340	0.070	-0.450	-0.730
2020/01/31 14:23:51.2	0.310	0.070	-0.450	-0.690
2020/01/31 14:23:51.3	0.280	0.080	-0.440	-0.660
2020/01/31 14:23:51.4	0.250	0.080	-0.440	-0.630
2020/01/31 14:23:51.5	0.220	0.080	-0.430	-0.600
2020/01/31 14:23:51.6	0.190	0.080	-0.430	-0.570
2020/01/31 14:23:51.7	0.160	0.080	-0.410	-0.540
2020/01/31 14:23:51.8	0.130	0.090	-0.400	-0.510
2020/01/31 14:23:51.9	0.100	0.090	-0.390	-0.480
2020/01/31 14:23:52.0	0.070	0.090	-0.370	-0.450
2020/01/31 14:23:52.1	0.040	0.090	-0.350	-0.430
2020/01/31 14:23:52.2	0.020	0.090	-0.330	-0.400
2020/01/31 14:23:52.3	359.990	0.090	-0.300	-0.370
2020/01/31 14:23:52.4	359.970	0.090	-0.280	-0.350
2020/01/31 14:23:52.5	359.950	0.090	-0.250	-0.320
2020/01/31 14:23:52.6	359.930	0.080	-0.220	-0.290
2020/01/31 14:23:52.7	359.910	0.080	-0.180	-0.270
2020/01/31 14:23:52.8	359.890	0.080	-0.150	-0.240
2020/01/31 14:23:52.9	359.880	0.070	-0.110	-0.220
2020/01/31 14:23:53.0	359.870	0.070	-0.080	-0.190
2020/01/31 14:23:53.1	359.850	0.060	-0.040	-0.170
2020/01/31 14:23:53.2	359.850	0.050	-0.000	-0.150
2020/01/31 14:23:53.3	359.840	0.050	0.030	-0.120
2020/01/31 14:23:53.4	359.830	0.040	0.070	-0.100
2020/01/31 14:23:53.5	359.830	0.030	0.100	-0.070
2020/01/31 14:23:53.6	359.820	0.020	0.140	-0.040
2020/01/31 14:23:53.7	359.820	0.010	0.170	-0.010
2020/01/31 14:23:53.8	359.820	-0.000	0.200	0.010
2020/01/31 14:23:53.9	359.820	-0.020	0.220	0.040
2020/01/31 14:23:54.0	359.820	-0.030	0.250	0.070
2020/01/31 14:23:54.1	359.820	-0.050	0.270	0.100
2020/01/31 14:23:54.2	359.830	-0.060	0.290	0.130
2020/01/31 14:23:54.3	359.830	-0.080	0.300	0.160
2020/01/31 14:23:54.4	359.830	-0.090	0.310	0.180
2020/01/31 14:23:54.5	359.840	-0.110	0.320	0.210
2020/01/31 14:23:54.6	359.840	-0.130	0.320	0.230
2020/01/31 14:23:54.7	359.860	-0.140	0.320	0.260
2020/01/31 14:23:54.8	359.860	-0.160	0.310	0.280
2020/01/31 14:23:54.9	359.870	-0.180	0.300	0.300
2020/01/31 14:23:55.0	359.870	-0.200	0.280	0.320
2020/01/31 14:23:55.1	359.880	-0.210	0.270	0.340
2020/01/31 14:23:55.2	359.890	-0.230	0.250	0.350
2020/01/31 14:23:55.3	359.890	-0.240	0.220	0.370
2020/01/31 14:23:55.4	359.890	-0.260	0.200	0.390
2020/01/31 14:23:55.5	359.900	-0.270	0.170	0.400
2020/01/31 14:23:55.6	359.900	-0.280	0.140	0.420
2020/01/31 14:23:55.7	359.910	-0.290	0.100	0.430
2020/01/31 14:23:55.8	359.910	-0.300	0.070	0.450
2020/01/31 14:23:55.9	359.910	-0.310	0.030	0.460
2020/01/31 14:23:56.0	359.910	-0.310	-0.000	0.480
2020/01/31 14:23:56.1	359.900	-0.310	-0.040	0.500
2020/01/31 14:23:56.2	359.900	-0.310	-0.080	0.510
2020/01/31 14:23:56.3	359.900	-0.310	-0.110	0.530
2020/01/31 14:23:56.4	359.890	-0.300	-0.150	0.550
2020/01/31 14:23:56.5	359.890	-0.290	-0.190	0.560
2020/01/31 14:23:56.6	359.880	-0.280	-0.230	0.580
2020/01/31 14:23:56.7	359.880	-0.270	-0.260	0.590
2020/01/31 14:23:56.8	359.870	-0.250	-0.300	0.600
2020/01/31 14:23:56.9	359.870	-0.230	-0.340	0.610
2020/01/31 14:23:57.0	359.860	-0.210	-0.380	0.620
2020/01/31 14:23:57.1	359.860	-0.190	-0.420	0.620
2020/01/31 14:23:57.2	359.860	-0.170	-0.460	0.620
2020/01/31 14:23:57.3	359.860	-0.140	-0.500	0.620
2020/01/31 14:23:57.4	359.850	-0.110	-0.540	0.620
2020/01/31 14:23:57.5	359.850	-0.090	-0.580	0.610
2020/01/31 14:23:57.6	359.850	-0.060	-0.610	0.600
2020/01/31 14:23:57.7	359.850	-0.030	-0.650	0.590
2020/01/31 14:23:57.8	359.850	0.000	-0.680	0.570
2020/01/31 14:23:57.9	359.850	0.040	-0.720	0.550
2020/01/31 14:23:58.0	359.850	0.070	-0.750	0.530
2020/01/31 14:23:58.1	359.850	0.090	-0.780	0.510
2020/01/31 14:23:58.2	359.850	0.120	-0.800	0.490
2020/01/31 14:23:58.3	359.850	0.150	-0.830	0.470
2020/01/31 14:23:58.4	359.850	0.180	-0.850	0.440
2020/01/31 14:23:58.5	359.850	0.200	-0.870	0.410
2020/01/31 14:23:58.6	359.850	0.230	-0.890	0.380
2020/01/31 14:23:58.7	359.850	0.250	-0.900	0.350
2020/01/31 14:23:58.8	359.850	0.270	-0.910	0.310
2020/01/31 14:23:58.9	359.850	0.280	-0.910	0.270
2020/01/31 14:23:59.0	359.850	0.300	-0.920	0.240
2020/01/31 14:23:59.1	359.860	0.310	-0.920	0.200
2020/01/31 14:23:59.2	359.860	0.320	-0.910	0.160
2020/01/31 14:23:59.3	359.870	0.330	-0.900	0.110
2020/01/31 14:23:59.4	359.880	0.330	-0.890	0.070
2020/01/31 14:23:59.5	359.890	0.330	-0.880	0.020
2020/01/31 14:23:59.6	359.900	0.330	-0.860	-0.030
2020/01/31 14:23:59.7	359.920	0.330	-0.830	-0.080
2020/01/31 14:23:59.8	359.930	0.330	-0.810	-0.130
2020/01/31 14:23:59.9	359.940	0.320	-0.780	-0.180
2020/01/31 14:24:00.0	359.960	0.310	-0.750	-0.230
2020/01/31 14:24:00.1	359.980	0.300	-0.720	-0.280
2020/01/31 14:24:00.2	0.000	0.290	-0.680	-0.330
2020/01/31 14:24:00.3	0.010	0.280	-0.640	-0.380
2020/01/31 14:24:00.4	0.030	0.270	-0.600	-0.430
2020/01/31 14:24:00.5	0.050	0.250	-0.560	-0.470
2020/01/31 14:24:00.6	0.070	0.240	-0.510	-0.510
2020/01/31 14:24:00.7	0.080	0.220	-0.460	-0.550
2020/01/31 14:24:00.8	0.100	0.210	-0.410	-0.590
2020/01/31 14:24:00.9	0.110	0.190	-0.360	-0.620
2020/01/31 14:24:01.0	0.120	0.170	-0.310	-0.640
2020/01/31 14:24:01.1	0.130	0.160	-0.250	-0.660
2020/01/31 14:24:01.2	0.130	0.140	-0.200	-0.670
2020/01/31 14:24:01.3	0.130	0.120	-0.140	-0.680
2020/01/31 14:24:01.4	0.120	0.100	-0.080	-0.670
2020/01/31 14:24:01.5	0.110	0.080	-0.020	-0.670
2020/01/31 14:24:01.6	0.100	0.060	0.040	-0.660
2020/01/31 14:24:01.7	0.100	0.040	0.100	-0.640
2020/01/31 14:24:01.8	0.080	0.020	0.160	-0.620
2020/01/31 14:24:01.9	0.060	0.000	0.220	-0.600
2020/01/31 14:24:02.0	0.030	-0.020	0.280	-0.570
2020/01/31 14:24:02.1	0.000	-0.040	0.330	-0.540
2020/01/31 14:24:02.2	359.970	-0.060	0.380	-0.510
2020/01/31 14:24:02.3	359.940	-0.080	0.430	-0.470
2020/01/31 14:24:02.4	359.910	-0.100	0.480	-0.440
2020/01/31 14:24:02.5	359.880	-0.120	0.520	-0.400
2020/01/31 14:24:02.6	359.840	-0.140	0.560	-0.360
2020/01/31 14:24:02.7	359.810	-0.160	0.590	-0.330
2020/01/31 14:24:02.8	359.780	-0.180	0.620	-0.290
2020/01/31 14:24:02.9	359.740	-0.190	0.640	-0.260
2020/01/31 14:24:03.0	359.710	-0.210	0.660	-0.220
2020/01/31 14:24:03.1	359.680	-0.220	0.670	-0.190
2020/01/31 14:24:03.2	359.650	-0.240	0.670	-0.160
2020/01/31 14:24:03.3	359.620	-0.250	0.670	-0.130
2020/01/31 14:24:03.4	359.600	-0.260	0.660	-0.100
2020/01/31 14:24:03.5	359.580	-0.270	0.640	-0.080
2020/01/31 14:24:03.6	359.560	-0.280	0.620	-0.060
2020/01/31 14:24:03.7	359.540	-0.280	0.600	-0.040
2020/01/31 14:24:03.8	359.530	-0.280	0.570	-0.020
2020/01/31 14:24:03.9	359.530	-0.280	0.530	-0.010
2020/01/31 14:24:04.0	359.530	-0.280	0.490	-0.000
2020/01/31 14:24:04.1	359.530	-0.280	0.440	0.010
2020/01/31 14:24:04.2	359.530	-0.270	0.390	0.010
2020/01/31 14:24:04.3	359.540	-0.260	0.340	0.020
2020/01/31 14:24:04.4	359.540	-0.250	0.290	0.020
2020/01/31 14:24:04.5	359.550	-0.240	0.240	0.030
2020/01/31 14:24:04.6	359.560	-0.230	0.190	0.040
2020/01/31 14:24:04.7	359.560	-0.220	0.140	0.040
2020/01/31 14:24:04.8	359.570	-0.200	0.090	0.050
2020/01/31 14:24:04.9	359.570	-0.190	0.050	0.060
2020/01/31 14:24:05.0	359.570	-0.180	0.000	0.070
2020/01/31 14:24:05.1	359.560	-0.160	-0.040	0.080
2020/01/31 14:24:05.2	359.560	-0.150	-0.080	0.090
2020/01/31 14:24:05.3	359.550	-0.130	-0.110	0.110
2020/01/31 14:24:05.4	359.540	-0.120	-0.150	0.120
2020/01/31 14:24:05.5	359.530	-0.110	-0.180	0.140
2020/01/31 14:24:05.6	359.520	-0.100	-0.200	0.150
2020/01/31 14:24:05.7	359.510	-0.080	-0.230	0.170
2020/01/31 14:24:05.8	359.490	-0.070	-0.250	0.180
2020/01/31 14:24:05.9	359.480	-0.060	-0.280	0.200
2020/01/31 14:24:06.0	359.460	-0.050	-0.300	0.210
2020/01/31 14:24:06.1	359.450	-0.040	-0.320	0.220
2020/01/31 14:24:06.2	359.430	-0.030	-0.340	0.230
2020/01/31 14:24:06.3	359.420	-0.020	-0.360	0.240
2020/01/31 14:24:06.4	359.410	-0.010	-0.380	0.250
2020/01/31 14:24:06.5	359.400	0.000	-0.410	0.250
2020/01/31 14:24:06.6	359.390	0.010	-0.430	0.250
2020/01/31 14:24:06.7	359.370	0.020	-0.460	0.250
2020/01/31 14:24:06.8	359.360	0.030	-0.490	0.240
2020/01/31 14:24:06.9	359.360	0.040	-0.520	0.230
2020/01/31 14:24:07.0	359.370	0.050	-0.550	0.220
2020/01/31 14:24:07.1	359.370	0.070	-0.590	0.200
2020/01/31 14:24:07.2	359.380	0.080	-0.620	0.180
2020/01/31 14:24:07.3	359.390	0.090	-0.660	0.150
2020/01/31 14:24:07.4	359.400	0.110	-0.700	0.120
2020/01/31 14:24:07.5	359.420	0.120	-0.750	0.090
2020/01/31 14:24:07.6	359.440	0.140	-0.790	0.060
2020/01/31 14:24:07.7	359.460	0.160	-0.830	0.020
2020/01/31 14:24:07.8	359.480	0.180	-0.880	-0.020
2020/01/31 14:24:07.9	359.500	0.200	-0.920	-0.070
2020/01/31 14:24:08.0	359.530	0.220	-0.970	-0.120
2020/01/31 14:24:08.1	359.560	0.240	-1.020	-0.170
2020/01/31 14:24:08.2	359.590	0.260	-1.060	-0.220
2020/01/31 14:24:08.3	359.620	0.280	-1.110	-0.270
2020/01/31 14:24:08.4	359.650	0.300	-1.150	-0.330
2020/01/31 14:24:08.5	359.690	0.320	-1.190	-0.390
2020/01/31 14:24:08.6	359.720	0.330	-1.220	-0.450
2020/01/31 14:24:08.7	359.760	0.350	-1.260	-0.510
2020/01/31 14:24:08.8	359.790	0.360	-1.290	-0.570
2020/01/31 14:24:08.9	359.830	0.370	-1.310	-0.630
2020/01/31 14:24:09.0	359.870	0.380	-1.330	-0.700
2020/01/31 14:24:09.1	359.910	0.390	-1.340	-0.760
2020/01/31 14:24:09.2	359.940	0.390	-1.350	-0.820
2020/01/31 14:24:09.3	359.980	0.390	-1.350	-0.870
2020/01/31 14:24:09.4	0.010	0.390	-1.340	-0.930
2020/01/31 14:24:09.5	0.050	0.380	-1.330	-0.980
2020/01/31 14:24:09.6	0.080	0.370	-1.310	-1.030
2020/01/31 14:24:09.7	0.110	0.360	-1.280	-1.080
2020/01/31 14:24:09.8	0.130	0.340	-1.240	-1.120
2020/01/31 14:24:09.9	0.160	0.320	-1.200	-1.160
2020/01/31 14:24:10.0	0.180	0.290	-1.150	-1.190
2020/01/31 14:24:10.1	0.200	0.260	-1.090	-1.220
2020/01/31 14:24:10.2	0.220	0.230	-1.030	-1.240
2020/01/31 14:24:10.3	0.230	0.200	-0.960	-1.260
2020/01/31 14:24:10.4	0.250	0.160	-0.880	-1.270
2020/01/31 14:24:10.5	0.260	0.120	-0.800	-1.280
2020/01/31 14:24:10.6	0.270	0.080	-0.710	-1.280
2020/01/31 14:24:10.7	0.280	0.030	-0.620	-1.280
2020/01/31 14:24:10.8	0.290	-0.020	-0.520	-1.270
2020/01/31 14:24:10.9	0.290	-0.060	-0.420	-1.260
2020/01/31 14:24:11.0	0.300	-0.110	-0.320	-1.240
2020/01/31 14:24:11.1	0.300	-0.160	-0.220	-1.220
2020/01/31 14:24:11.2	0.300	-0.210	-0.120	-1.200
2020/01/31 14:24:11.3	0.290	-0.260	-0.010	-1.170
2020/01/31 14:24:11.4	0.290	-0.310	0.090	-1.140
2020/01/31 14:24:11.5	0.280	-0.360	0.190	-1.110
2020/01/31 14:24:11.6	0.280	-0.410	0.290	-1.070
2020/01/31 14:24:11.7	0.270	-0.450	0.390	-1.030
2020/01/31 14:24:11.8	0.260	-0.500	0.490	-0.980
2020/01/31 14:24:11.9	0.240	-0.540	0.580	-0.930
2020/01/31 14:24:12.0	0.220	-0.580	0.670	-0.880
2020/01/31 14:24:12.1	0.200	-0.610	0.750	-0.820
2020/01/31 14:24:12.2	0.180	-0.650	0.830	-0.760
2020/01/31 14:24:12.3	0.150	-0.680	0.910	-0.690
2020/01/31 14:24:12.4	0.120	-0.710	0.980	-0.630
2020/01/31 14:24:12.5	0.080	-0.730	1.040	-0.560
2020/01/31 14:24:12.6	0.050	-0.750	1.090	-0.480
2020/01/31 14:24:12.7	0.010	-0.760	1.140	-0.410
2020/01/31 14:24:12.8	359.970	-0.770	1.180	-0.330
2020/01/31 14:24:12.9	359.930	-0.780	1.210	-0.260
2020/01/31 14:24:13.0	359.890	-0.780	1.230	-0.180
2020/01/31 14:24:13.1	359.850	-0.780	1.240	-0.100
2020/01/31 14:24:13.2	359.800	-0.770	1.240	-0.030
2020/01/31 14:24:13.3	359.760	-0.760	1.240	0.050
2020/01/31 14:24:13.4	359.710	-0.740	1.220	0.130
2020/01/31 14:24:13.5	359.670	-0.720	1.200	0.200
2020/01/31 14:24:13.6	359.630	-0.690	1.160	0.270
2020/01/31 14:24:13.7	359.570	-0.660	1.120	0.340
2020/01/31 14:24:13.8	359.530	-0.630	1.070	0.410
2020/01/31 14:24:13.9	359.490	-0.590	1.010	0.470
2020/01/31 14:24:14.0	359.450	-0.550	0.940	0.530
2020/01/31 14:24:14.1	359.420	-0.500	0.860	0.590
2020/01/31 14:24:14.2	359.390	-0.450	0.780	0.640
2020/01/31 14:24:14.3	359.360	-0.390	0.690	0.680
2020/01/31 14:24:14.4	359.340	-0.340	0.590	0.720
2020/01/31 14:24:14.5	359.320	-0.280	0.490	0.760
2020/01/31 14:24:14.6	359.300	-0.220	0.390	0.790
2020/01/31 14:24:14.7	359.270	-0.150	0.290	0.820
2020/01/31 14:24:14.8	359.260	-0.090	0.180	0.840
2020/01/31 14:24:14.9	359.250	-0.020	0.070	0.860
2020/01/31 14:24:15.0	359.250	0.050	-0.040	0.880
2020/01/31 14:24:15.1	359.240	0.110	-0.140	0.890
2020/01/31 14:24:15.2	359.240	0.180	-0.250	0.900
2020/01/31 14:24:15.3	359.240	0.240	-0.350	0.910
2020/01/31 14:24:15.4	359.250	0.310	-0.450	0.920
2020/01/31 14:24:15.5	359.250	0.370	-0.550	0.920
2020/01/31 14:24:15.6	359.260	0.430	-0.630	0.920
2020/01/31 14:24:15.7	359.240	0.490	-0.720	0.920
2020/01/31 14:24:15.8	359.250	0.540	-0.790	0.930
2020/01/31 14:24:15.9	359.260	0.590	-0.860	0.930
2020/01/31 14:24:16.0	359.270	0.640	-0.920	0.930
2020/01/31 14:24:16.1	359.280	0.680	-0.970	0.930
2020/01/31 14:24:16.2	359.280	0.720	-1.010	0.930
2020/01/31 14:24:16.3	359.290	0.750	-1.050	0.930
2020/01/31 14:24:16.4	359.300	0.780	-1.070	0.940
2020/01/31 14:24:16.5	359.310	0.810	-1.090	0.940
2020/01/31 14:24:16.6	359.320	0.820	-1.100	0.940
2020/01/31 14:24:16.7	359.340	0.840	-1.090	0.940
2020/01/31 14:24:16.8	359.350	0.840	-1.090	0.940
2020/01/31 14:24:16.9	359.360	0.840	-1.070	0.930
2020/01/31 14:24:17.0	359.370	0.840	-1.050	0.930
2020/01/31 14:24:17.1	359.380	0.830	-1.020	0.930
2020/01/31 14:24:17.2	359.390	0.820	-0.990	0.920
2020/01/31 14:24:17.3	359.410	0.800	-0.960	0.910
2020/01/31 14:24:17.4	359.420	0.770	-0.920	0.890
2020/01/31 14:24:17.5	359.440	0.740	-0.880	0.870
2020/01/31 14:24:17.6	359.460	0.710	-0.830	0.850
2020/01/31 14:24:17.7	359.480	0.670	-0.790	0.830
2020/01/31 14:24:17.8	359.500	0.630	-0.740	0.800
2020/01/31 14:24:17.9	359.520	0.590	-0.700	0.760
2020/01/31 14:24:18.0	359.540	0.540	-0.650	0.730
2020/01/31 14:24:18.1	359.560	0.490	-0.610	0.680
2020/01/31 14:24:18.2	359.580	0.440	-0.570	0.640
2020/01/31 14:24:18.3	359.610	0.390	-0.530	0.590
2020/01/31 14:24:18.4	359.630	0.340	-0.490	0.540
2020/01/31 14:24:18.5	359.650	0.280	-0.460	0.480
2020/01/31 14:24:18.6	359.670	0.220	-0.430	0.420
2020/01/31 14:24:18.7	359.700	0.170	-0.400	0.350
2020/01/31 14:24:18.8	359.720	0.110	-0.380	0.290
2020/01/31 14:24:18.9	359.740	0.050	-0.360	0.220
2020/01/31 14:24:19.0	359.760	-0.000	-0.340	0.150
2020/01/31 14:24:19.1	359.780	-0.060	-0.320	0.070
2020/01/31 14:24:19.2	359.800	-0.110	-0.310	-0.000
2020/01/31 14:24:19.3	359.820	-0.160	-0.300	-0.080
2020/01/31 14:24:19.4	359.830	-0.210	-0.300	-0.160
2020/01/31 14:24:19.5	359.850	-0.260	-0.300	-0.240
2020/01/31 14:24:19.6	359.860	-0.300	-0.300	-0.320
2020/01/31 14:24:19.7	359.900	-0.340	-0.300	-0.400
2020/01/31 14:24:19.8	359.910	-0.380	-0.300	-0.490
2020/01/31 14:24:19.9	359.910	-0.420	-0.300	-0.570
2020/01/31 14:24:20.0	359.920	-0.450	-0.310	-0.650
2020/01/31 14:24:20.1	359.920	-0.480	-0.310	-0.730
2020/01/31 14:24:20.2	359.930	-0.510	-0.320	-0.810
2020/01/31 14:24:20.3	359.930	-0.530	-0.320	-0.890
2020/01/31 14:24:20.4	359.930	-0.550	-0.330	-0.970
2020/01/31 14:24:20.5	359.930	-0.570	-0.330	-1.040
2020/01/31 14:24:20.6	359.920	-0.580	-0.330	-1.120
2020/01/31 14:24:20.7	359.920	-0.590	-0.340	-1.190
2020/01/31 14:24:20.8	359.920	-0.600	-0.340	-1.260
2020/01/31 14:24:20.9	359.920	-0.610	-0.340	-1.330
2020/01/31 14:24:21.0	359.910	-0.610	-0.340	-1.400
2020/01/31 14:24:21.1	359.910	-0.610	-0.340	-1.460
2020/01/31 14:24:21.2	359.900	-0.600	-0.340	-1.520
2020/01/31 14:24:21.3	359.900	-0.600	-0.340	-1.580
2020/01/31 14:24:21.4	359.890	-0.590	-0.340	-1.630
2020/01/31 14:24:21.5	359.890	-0.570	-0.330	-1.680
2020/01/31 14:24:21.6	359.890	-0.560	-0.330	-1.730
2020/01/31 14:24:21.7	359.880	-0.540	-0.330	-1.780
2020/01/31 14:24:21.8	359.880	-0.520	-0.320	-1.820
2020/01/31 14:24:21.9	359.880	-0.500	-0.320	-1.850
2020/01/31 14:24:22.0	359.880	-0.480	-0.310	-1.890
2020/01/31 14:24:22.1	359.890	-0.450	-0.310	-1.910
2020/01/31 14:24:22.2	359.890	-0.420	-0.300	-1.940
2020/01/31 14:24:22.3	359.900	-0.400	-0.300	-1.950
2020/01/31 14:24:22.4	359.900	-0.360	-0.290	-1.960
2020/01/31 14:24:22.5	359.910	-0.330	-0.290	-1.970
2020/01/31 14:24:22.6	359.920	-0.300	-0.280	-1.970
2020/01/31 14:24:22.7	359.930	-0.260	-0.280	-1.960
2020/01/31 14:24:22.8	359.930	-0.220	-0.270	-1.950
2020/01/31 14:24:22.9	359.940	-0.190	-0.270	-1.930
2020/01/31 14:24:23.0	359.950	-0.150	-0.260	-1.900
2020/01/31 14:24:23.1	359.960	-0.110	-0.260	-1.870
2020/01/31 14:24:23.2	359.970	-0.070	-0.250	-1.830
2020/01/31 14:24:23.3	359.980	-0.030	-0.240	-1.780
2020/01/31 14:24:23.4	359.990	0.000	-0.240	-1.730
2020/01/31 14:24:23.5	359.990	0.040	-0.230	-1.670
2020/01/31 14:24:23.6	0.000	0.080	-0.220	-1.610
2020/01/31 14:24:23.7	0.000	0.110	-0.210	-1.540
2020/01/31 14:24:23.8	0.000	0.150	-0.190	-1.460
2020/01/31 14:24:23.9	0.000	0.180	-0.180	-1.380
2020/01/31 14:24:24.0	0.000	0.210	-0.160	-1.300
2020/01/31 14:24:24.1	359.990	0.240	-0.140	-1.210
2020/01/31 14:24:24.2	359.990	0.260	-0.120	-1.110
2020/01/31 14:24:24.3	359.980	0.280	-0.100	-1.010
2020/01/31 14:24:24.4	359.970	0.310	-0.080	-0.900
2020/01/31 14:24:24.5	359.960	0.320	-0.050	-0.790
2020/01/31 14:24:24.6	359.940	0.340	-0.030	-0.680
2020/01/31 14:24:24.7	359.940	0.350	-0.010	-0.560
2020/01/31 14:24:24.8	359.930	0.360	0.020	-0.440
2020/01/31 14:24:24.9	359.910	0.370	0.050	-0.330
2020/01/31 14:24:25.0	359.900	0.370	0.070	-0.210
2020/01/31 14:24:25.1	359.880	0.370	0.090	-0.090
2020/01/31 14:24:25.2	359.860	0.370	0.120	0.030
2020/01/31 14:24:25.3	359.840	0.370	0.140	0.150
2020/01/31 14:24:25.4	359.820	0.360	0.160	0.270
2020/01/31 14:24:25.5	359.800	0.350	0.180	0.390
2020/01/31 14:24:25.6	359.780	0.340	0.200	0.500
2020/01/31 14:24:25.7	359.760	0.320	0.210	0.610
2020/01/31 14:24:25.8	359.740	0.310	0.230	0.720
2020/01/31 14:24:25.9	359.720	0.290	0.240	0.820
2020/01/31 14:24:26.0	359.710	0.270	0.250	0.910
2020/01/31 14:24:26.1	359.690	0.240	0.250	1.010
2020/01/31 14:24:26.2	359.680	0.220	0.250	1.090
2020/01/31 14:24:26.3	359.670	0.190	0.250	1.170
2020/01/31 14:24:26.4	359.660	0.170	0.240	1.230
2020/01/31 14:24:26.5	359.650	0.140	0.240	1.290
2020/01/31 14:24:26.6	359.640	0.110	0.220	1.350
2020/01/31 14:24:26.7	359.630	0.080	0.210	1.390
2020/01/31 14:24:26.8	359.620	0.050	0.190	1.420
2020/01/31 14:24:26.9	359.620	0.030	0.160	1.450
2020/01/31 14:24:27.0	359.620	-0.000	0.140	1.470
2020/01/31 14:24:27.1	359.620	-0.030	0.110	1.490
2020/01/31 14:24:27.2	359.630	-0.050	0.070	1.490
2020/01/31 14:24:27.3	359.630	-0.080	0.040	1.490
2020/01/31 14:24:27.4	359.640	-0.100	0.000	1.490
2020/01/31 14:24:27.5	359.640	-0.120	-0.030	1.470
2020/01/31 14:24:27.6	359.650	-0.140	-0.070	1.450
2020/01/31 14:24:27.7	359.640	-0.160	-0.110	1.430
2020/01/31 14:24:27.8	359.650	-0.170	-0.140	1.400
2020/01/31 14:24:27.9	359.660	-0.180	-0.180	1.370
2020/01/31 14:24:28.0	359.660	-0.190	-0.220	1.330
2020/01/31 14:24:28.1	359.670	-0.200	-0.250	1.290
2020/01/31 14:24:28.2	359.680	-0.210	-0.280	1.250
2020/01/31 14:24:28.3	359.690	-0.210	-0.310	1.200
2020/01/31 14:24:28.4	359.700	-0.210	-0.340	1.150
2020/01/31 14:24:28.5	359.710	-0.210	-0.360	1.090
2020/01/31 14:24:28.6	359.720	-0.210	-0.380	1.040
2020/01/31 14:24:28.7	359.740	-0.200	-0.400	0.970
2020/01/31 14:24:28.8	359.750	-0.190	-0.410	0.910
2020/01/31 14:24:28.9	359.760	-0.180	-0.430	0.850
2020/01/31 14:24:29.0	359.770	-0.170	-0.440	0.790
2020/01/31 14:24:29.1	359.780	-0.160	-0.450	0.730
2020/01/31 14:24:29.2	359.790	-0.140	-0.460	0.670
2020/01/31 14:24:29.3	359.800	-0.130	-0.460	0.600
2020/01/31 14:24:29.4	359.810	-0.110	-0.470	0.540
2020/01/31 14:24:29.5	359.820	-0.090	-0.470	0.480
2020/01/31 14:24:29.6	359.830	-0.070	-0.470	0.420
2020/01/31 14:24:29.7	359.840	-0.050	-0.480	0.350
2020/01/31 14:24:29.8	359.850	-0.030	-0.480	0.290
2020/01/31 14:24:29.9	359.850	-0.010	-0.490	0.230
2020/01/31 14:24:30.0	359.860	0.010	-0.490	0.170
2020/01/31 14:24:30.1	359.870	0.030	-0.490	0.110
2020/01/31 14:24:30.2	359.870	0.050	-0.500	0.050
2020/01/31 14:24:30.3	359.880	0.070	-0.500	-0.010
2020/01/31 14:24:30.4	359.880	0.090	-0.510	-0.070
2020/01/31 14:24:30.5	359.890	0.110	-0.510	-0.130
2020/01/31 14:24:30.6	359.890	0.120	-0.520	-0.190
2020/01/31 14:24:30.7	359.900	0.140	-0.530	-0.250
2020/01/31 14:24:30.8	359.910	0.150	-0.540	-0.310
2020/01/31 14:24:30.9	359.920	0.160	-0.550	-0.370
2020/01/31 14:24:31.0	359.920	0.170	-0.560	-0.430
2020/01/31 14:24:31.1	359.930	0.180	-0.570	-0.490
2020/01/31 14:24:31.2	359.940	0.180	-0.590	-0.550
2020/01/31 14:24:31.3	359.950	0.190	-0.600	-0.610
2020/01/31 14:24:31.4	359.960	0.190	-0.620	-0.670
2020/01/31 14:24:31.5	359.980	0.190	-0.630	-0.730
2020/01/31 14:24:31.6	359.990	0.180	-0.650	-0.790
2020/01/31 14:24:31.7	0.010	0.180	-0.660	-0.850
2020/01/31 14:24:31.8	0.030	0.170	-0.670	-0.910
2020/01/31 14:24:31.9	0.040	0.160	-0.680	-0.960
2020/01/31 14:24:32.0	0.060	0.150	-0.690	-1.010
2020/01/31 14:24:32.1	0.070	0.140	-0.690	-1.060
2020/01/31 14:24:32.2	0.080	0.130	-0.700	-1.110
2020/01/31 14:24:32.3	0.100	0.110	-0.700	-1.150
2020/01/31 14:24:32.4	0.110	0.100	-0.690	-1.200
2020/01/31 14:24:32.5	0.120	0.080	-0.690	-1.230
2020/01/31 14:24:32.6	0.140	0.060	-0.680	-1.260
2020/01/31 14:24:32.7	0.160	0.040	-0.670	-1.290
2020/01/31 14:24:32.8	0.170	0.020	-0.650	-1.320
2020/01/31 14:24:32.9	0.180	0.000	-0.630	-1.340
2020/01/31 14:24:33.0	0.190	-0.020	-0.610	-1.350
2020/01/31 14:24:33.1	0.200	-0.040	-0.580	-1.360
2020/01/31 14:24:33.2	0.210	-0.050	-0.550	-1.370
2020/01/31 14:24:33.3	0.220	-0.070	-0.510	-1.370
2020/01/31 14:24:33.4	0.220	-0.090	-0.470	-1.370
2020/01/31 14:24:33.5	0.220	-0.110	-0.430	-1.360
2020/01/31 14:24:33.6	0.230	-0.120	-0.390	-1.340
2020/01/31 14:24:33.7	0.230	-0.130	-0.340	-1.330
2020/01/31 14:24:33.8	0.230	-0.150	-0.290	-1.300
2020/01/31 14:24:33.9	0.220	-0.160	-0.240	-1.280
2020/01/31 14:24:34.0	0.220	-0.160	-0.190	-1.240
2020/01/31 14:24:34.1	0.210	-0.170	-0.140	-1.200
2020/01/31 14:24:34.2	0.200	-0.180	-0.090	-1.160
2020/01/31 14:24:34.3	0.190	-0.180	-0.040	-1.110
2020/01/31 14:24:34.4	0.180	-0.180	0.010	-1.060
2020/01/31 14:24:34.5	0.170	-0.180	0.060	-1.010
2020/01/31 14:24:34.6	0.150	-0.170	0.100	-0.950
2020/01/31 14:24:34.7	0.150	-0.170	0.140	-0.890
2020/01/31 14:24:34.8	0.130	-0.160	0.180	-0.820
2020/01/31 14:24:34.9	0.120	-0.150	0.220	-0.760
2020/01/31 14:24:35.0	0.110	-0.130	0.250	-0.690
2020/01/31 14:24:35.1	0.090	-0.120	0.270	-0.620
2020/01/31 14:24:35.2	0.080	-0.100	0.290	-0.550
2020/01/31 14:24:35.3	0.070	-0.080	0.310	-0.490
2020/01/31 14:24:35.4	0.060	-0.060	0.320	-0.420
2020/01/31 14:24:35.5	0.050	-0.040	0.320	-0.350
2020/01/31 14:24:35.6	0.040	-0.020	0.320	-0.280
2020/01/31 14:24:35.7	0.030	0.010	0.320	-0.210
2020/01/31 14:24:35.8	0.020	0.040	0.310	-0.140
2020/01/31 14:24:35.9	0.010	0.060	0.300	-0.080
2020/01/31 14:24:36.0	0.010	0.090	0.280	-0.020
2020/01/31 14:24:36.1	0.000	0.120	0.250	0.040
2020/01/31 14:24:36.2	0.000	0.140	0.220	0.100
2020/01/31 14:24:36.3	359.990	0.170	0.190	0.160
2020/01/31 14:24:36.4	359.990	0.190	0.160	0.210
2020/01/31 14:24:36.5	359.990	0.220	0.120	0.260
2020/01/31 14:24:36.6	359.990	0.240	0.080	0.300
2020/01/31 14:24:36.7	359.990	0.260	0.040	0.340
2020/01/31 14:24:36.8	359.990	0.280	-0.000	0.380
2020/01/31 14:24:36.9	359.990	0.300	-0.040	0.410
2020/01/31 14:24:37.0	359.990	0.310	-0.080	0.440
2020/01/31 14:24:37.1	0.000	0.320	-0.120	0.470
2020/01/31 14:24:37.2	0.000	0.330	-0.160	0.490
2020/01/31 14:24:37.3	0.010	0.340	-0.200	0.510
2020/01/31 14:24:37.4	0.020	0.340	-0.230	0.530
2020/01/31 14:24:37.5	0.030	0.340	-0.270	0.540
2020/01/31 14:24:37.6	0.050	0.340	-0.300	0.540
2020/01/31 14:24:37.7	0.060	0.330	-0.320	0.550
2020/01/31 14:24:37.8	0.080	0.320	-0.350	0.550
2020/01/31 14:24:37.9	0.100	0.310	-0.370	0.540
2020/01/31 14:24:38.0	0.120	0.300	-0.390	0.530
2020/01/31 14:24:38.1	0.150	0.280	-0.410	0.520
2020/01/31 14:24:38.2	0.180	0.260	-0.420	0.500
2020/01/31 14:24:38.3	0.210	0.240	-0.440	0.490
2020/01/31 14:24:38.4	0.240	0.220	-0.450	0.460
2020/01/31 14:24:38.5	0.270	0.190	-0.450	0.440
2020/01/31 14:24:38.6	0.300	0.160	-0.460	0.410
2020/01/31 14:24:38.7	0.340	0.130	-0.460	0.370
2020/01/31 14:24:38.8	0.370	0.100	-0.460	0.330
2020/01/31 14:24:38.9	0.410	0.070	-0.460	0.300
2020/01/31 14:24:39.0	0.450	0.030	-0.450	0.260
2020/01/31 14:24:39.1	0.490	0.000	-0.440	0.220
2020/01/31 14:24:39.2	0.530	-0.030	-0.430	0.170
2020/01/31 14:24:39.3	0.560	-0.070	-0.420	0.130
2020/01/31 14:24:39.4	0.600	-0.100	-0.410	0.090
2020/01/31 14:24:39.5	0.630	-0.130	-0.390	0.040
2020/01/31 14:24:39.6	0.660	-0.170	-0.380	0.000
2020/01/31 14:24:39.7	0.690	-0.200	-0.360	-0.040
2020/01/31 14:24:39.8	0.720	-0.220	-0.340	-0.080
2020/01/31 14:24:39.9	0.750	-0.250	-0.320	-0.120
2020/01/31 14:24:40.0	0.770	-0.280	-0.290	-0.160
2020/01/31 14:24:40.1	0.790	-0.300	-0.270	-0.200
2020/01/31 14:24:40.2	0.810	-0.320	-0.250	-0.230
2020/01/31 14:24:40.3	0.830	-0.340	-0.220	-0.260
2020/01/31 14:24:40.4	0.850	-0.360	-0.200	-0.290
2020/01/31 14:24:40.5	0.860	-0.370	-0.170	-0.320
2020/01/31 14:24:40.6	0.870	-0.380	-0.150	-0.340
2020/01/31 14:24:40.7	0.870	-0.390	-0.120	-0.370
2020/01/31 14:24:40.8	0.880	-0.390	-0.100	-0.380
2020/01/31 14:24:40.9	0.880	-0.390	-0.080	-0.400
2020/01/31 14:24:41.0	0.880	-0.390	-0.060	-0.410
2020/01/31 14:24:41.1	0.880	-0.380	-0.040	-0.420
2020/01/31 14:24:41.2	0.870	-0.380	-0.030	-0.420
2020/01/31 14:24:41.3	0.870	-0.360	-0.020	-0.430
2020/01/31 14:24:41.4	0.860	-0.350	-0.010	-0.430
2020/01/31 14:24:41.5	0.850	-0.340	-0.000	-0.430
2020/01/31 14:24:41.6	0.840	-0.320	-0.000	-0.430
2020/01/31 14:24:41.7	0.840	-0.300	-0.000	-0.420
2020/01/31 14:24:41.8	0.820	-0.280	-0.010	-0.420
2020/01/31 14:24:41.9	0.810	-0.250	-0.010	-0.410
2020/01/31 14:24:42.0	0.800	-0.230	-0.030	-0.400
2020/01/31 14:24:42.1	0.780	-0.200	-0.040	-0.380
2020/01/31 14:24:42.2	0.770	-0.170	-0.060	-0.370
2020/01/31 14:24:42.3	0.750	-0.140	-0.080	-0.350
2020/01/31 14:24:42.4	0.730	-0.110	-0.100	-0.330
2020/01/31 14:24:42.5	0.710	-0.080	-0.130	-0.320
2020/01/31 14:24:42.6	0.690	-0.050	-0.160	-0.290
2020/01/31 14:24:42.7	0.660	-0.020	-0.190	-0.270
2020/01/31 14:24:42.8	0.640	0.010	-0.220	-0.250
2020/01/31 14:24:42.9	0.620	0.040	-0.260	-0.230
2020/01/31 14:24:43.0	0.600	0.070	-0.290	-0.210
2020/01/31 14:24:43.1	0.580	0.100	-0.330	-0.180
2020/01/31 14:24:43.2	0.560	0.120	-0.360	-0.160
2020/01/31 14:24:43.3	0.540	0.150	-0.400	-0.140
2020/01/31 14:24:43.4	0.530	0.180	-0.430	-0.120
2020/01/31 14:24:43.5	0.510	0.200	-0.470	-0.100
2020/01/31 14:24:43.6	0.500	0.220	-0.500	-0.080
2020/01/31 14:24:43.7	0.480	0.240	-0.530	-0.070
2020/01/31 14:24:43.8	0.470	0.260	-0.560	-0.060
2020/01/31 14:24:43.9	0.460	0.280	-0.590	-0.040
2020/01/31 14:24:44.0	0.450	0.300	-0.610	-0.030
2020/01/31 14:24:44.1	0.450	0.310	-0.640	-0.010
2020/01/31 14:24:44.2	0.450	0.320	-0.650	-0.000
2020/01/31 14:24:44.3	0.450	0.330	-0.670	0.000
2020/01/31 14:24:44.4	0.460	0.340	-0.680	0.010
2020/01/31 14:24:44.5	0.470	0.340	-0.690	0.010
2020/01/31 14:24:44.6	0.480	0.340	-0.700	0.010
2020/01/31 14:24:44.7	0.500	0.340	-0.690	0.010
2020/01/31 14:24:44.8	0.520	0.340	-0.690	0.000
2020/01/31 14:24:44.9	0.540	0.330	-0.690	-0.010
2020/01/31 14:24:45.0	0.560	0.320	-0.680	-0.020
2020/01/31 14:24:45.1	0.590	0.310	-0.660	-0.030
2020/01/31 14:24:45.2	0.620	0.300	-0.640	-0.050
2020/01/31 14:24:45.3	0.650	0.280	-0.620	-0.070
2020/01/31 14:24:45.4	0.680	0.270	-0.600	-0.090
2020/01/31 14:24:45.5	0.710	0.240	-0.570	-0.120
2020/01/31 14:24:45.6	0.740	0.220	-0.540	-0.140
2020/01/31 14:24:45.7	0.760	0.200	-0.500	-0.170
2020/01/31 14:24:45.8	0.790	0.170	-0.470	-0.200
2020/01/31 14:24:45.9	0.820	0.140	-0.430	-0.230
2020/01/31 14:24:46.0	0.850	0.110	-0.390	-0.260
2020/01/31 14:24:46.1	0.880	0.080	-0.350	-0.290
2020/01/31 14:24:46.2	0.910	0.050	-0.310	-0.330
2020/01/31 14:24:46.3	0.940	0.020	-0.260	-0.360
2020/01/31 14:24:46.4	0.970	-0.010	-0.220	-0.390
2020/01/31 14:24:46.5	0.990	-0.040	-0.180	-0.410
2020/01/31 14:24:46.6	1.020	-0.080	-0.140	-0.440
2020/01/31 14:24:46.7	1.040	-0.110	-0.100	-0.470
2020/01/31 14:24:46.8	1.060	-0.130	-0.060	-0.490
2020/01/31 14:24:46.9	1.080	-0.160	-0.030	-0.510
2020/01/31 14:24:47.0	1.090	-0.190	0.010	-0.530
2020/01/31 14:24:47.1	1.110	-0.210	0.030	-0.540
2020/01/31 14:24:47.2	1.120	-0.230	0.060	-0.560
2020/01/31 14:24:47.3	1.130	-0.250	0.080	-0.570
2020/01/31 14:24:47.4	1.130	-0.270	0.100	-0.580
2020/01/31 14:24:47.5	1.140	-0.280	0.110	-0.590
2020/01/31 14:24:47.6	1.140	-0.300	0.120	-0.590
2020/01/31 14:24:47.7	1.150	-0.300	0.130	-0.600
2020/01/31 14:24:47.8	1.150	-0.310	0.130	-0.600
2020/01/31 14:24:47.9	1.150	-0.310	0.120	-0.610
2020/01/31 14:24:48.0	1.150	-0.310	0.120	-0.610
2020/01/31 14:24:48.1	1.140	-0.300	0.110	-0.620
2020/01/31 14:24:48.2	1.140	-0.300	0.090	-0.630
2020/01/31 14:24:48.3	1.130	-0.280	0.070	-0.630
2020/01/31 14:24:48.4	1.130	-0.270	0.050	-0.640
2020/01/31 14:24:48.5	1.120	-0.250	0.020	-0.650
2020/01/31 14:24:48.6	1.110	-0.230	-0.000	-0.660
2020/01/31 14:24:48.7	1.090	-0.210	-0.030	-0.670
2020/01/31 14:24:48.8	1.080	-0.180	-0.050	-0.670
2020/01/31 14:24:48.9	1.070	-0.160	-0.080	-0.680
2020/01/31 14:24:49.0	1.060	-0.130	-0.110	-0.680
2020/01/31 14:24:49.1	1.050	-0.100	-0.140	-0.680
2020/01/31 14:24:49.2	1.040	-0.070	-0.170	-0.680
2020/01/31 14:24:49.3	1.030	-0.030	-0.190	-0.680
2020/01/31 14:24:49.4	1.020	-0.000	-0.220	-0.680
2020/01/31 14:24:49.5	1.010	0.030	-0.230	-0.670
2020/01/31 14:24:49.6	1.000	0.060	-0.250	-0.660
2020/01/31 14:24:49.7	0.990	0.090	-0.270	-0.640
2020/01/31 14:24:49.8	0.980	0.120	-0.280	-0.630
2020/01/31 14:24:49.9	0.970	0.150	-0.280	-0.610
2020/01/31 14:24:50.0	0.960	0.180	-0.290	-0.590
2020/01/31 14:24:50.1	0.950	0.210	-0.290	-0.560
2020/01/31 14:24:50.2	0.950	0.230	-0.280	-0.530
2020/01/31 14:24:50.3	0.940	0.250	-0.280	-0.510
2020/01/31 14:24:50.4	0.940	0.270	-0.270	-0.480
2020/01/31 14:24:50.5	0.930	0.290	-0.260	-0.440
2020/01/31 14:24:50.6	0.930	0.300	-0.240	-0.410
2020/01/31 14:24:50.7	0.920	0.320	-0.220	-0.380
2020/01/31 14:24:50.8	0.920	0.330	-0.200	-0.340
2020/01/31 14:24:50.9	0.920	0.330	-0.180	-0.300
2020/01/31 14:24:51.0	0.920	0.340	-0.160	-0.260
2020/01/31 14:24:51.1	0.920	0.340	-0.140	-0.220
2020/01/31 14:24:51.2	0.920	0.340	-0.120	-0.180
2020/01/31 14:24:51.3	0.920	0.330	-0.100	-0.140
2020/01/31 14:24:51.4	0.920	0.330	-0.080	-0.100
2020/01/31 14:24:51.5	0.920	0.320	-0.060	-0.060
2020/01/31 14:24:51.6	0.920	0.310	-0.040	-0.030
2020/01/31 14:24:51.7	0.920	0.300	-0.030	0.010
2020/01/31 14:24:51.8	0.920	0.280	-0.010	0.040
2020/01/31 14:24:51.9	0.920	0.270	-0.000	0.080
2020/01/31 14:24:52.0	0.930	0.250	0.010	0.100
2020/01/31 14:24:52.1	0.930	0.240	0.020	0.130
2020/01/31 14:24:52.2	0.930	0.220	0.020	0.150
2020/01/31 14:24:52.3	0.940	0.200	0.020	0.180
2020/01/31 14:24:52.4	0.940	0.180	0.020	0.190
2020/01/31 14:24:52.5	0.940	0.160	0.010	0.210
2020/01/31 14:24:52.6	0.950	0.150	0.000	0.220
2020/01/31 14:24:52.7	0.960	0.130	-0.010	0.230
2020/01/31 14:24:52.8	0.970	0.110	-0.020	0.230
2020/01/31 14:24:52.9	0.970	0.090	-0.040	0.240
2020/01/31 14:24:53.0	0.980	0.080	-0.060	0.240
2020/01/31 14:24:53.1	0.980	0.060	-0.080	0.250
2020/01/31 14:24:53.2	0.990	0.050	-0.100	0.250
2020/01/31 14:24:53.3	0.990	0.030	-0.120	0.250
2020/01/31 14:24:53.4	1.000	0.020	-0.150	0.250
2020/01/31 14:24:53.5	1.000	0.010	-0.170	0.250
2020/01/31 14:24:53.6	1.000	-0.010	-0.200	0.250
2020/01/31 14:24:53.7	1.000	-0.020	-0.220	0.250
2020/01/31 14:24:53.8	0.990	-0.030	-0.240	0.250
2020/01/31 14:24:53.9	0.990	-0.040	-0.270	0.250
2020/01/31 14:24:54.0	0.980	-0.060	-0.290	0.240
2020/01/31 14:24:54.1	0.970	-0.070	-0.320	0.240
2020/01/31 14:24:54.2	0.970	-0.080	-0.340	0.240
2020/01/31 14:24:54.3	0.950	-0.090	-0.360	0.240
2020/01/31 14:24:54.4	0.940	-0.100	-0.390	0.230
2020/01/31 14:24:54.5	0.930	-0.120	-0.410	0.230
2020/01/31 14:24:54.6	0.920	-0.130	-0.430	0.220
2020/01/31 14:24:54.7	0.920	-0.140	-0.460	0.200
2020/01/31 14:24:54.8	0.900	-0.160	-0.480	0.190
2020/01/31 14:24:54.9	0.890	-0.170	-0.500	0.180
2020/01/31 14:24:55.0	0.880	-0.180	-0.520	0.160
2020/01/31 14:24:55.1	0.870	-0.200	-0.540	0.140
2020/01/31 14:24:55.2	0.860	-0.210	-0.560	0.120
2020/01/31 14:24:55.3	0.850	-0.220	-0.570	0.090
2020/01/31 14:24:55.4	0.840	-0.240	-0.590	0.070
2020/01/31 14:24:55.5	0.840	-0.250	-0.610	0.030
2020/01/31 14:24:55.6	0.830	-0.270	-0.620	0.000
2020/01/31 14:24:55.7	0.840	-0.280	-0.640	-0.040
2020/01/31 14:24:55.8	0.840	-0.290	-0.650	-0.070
2020/01/31 14:24:55.9	0.840	-0.300	-0.660	-0.120
2020/01/31 14:24:56.0	0.850	-0.310	-0.670	-0.160
2020/01/31 14:24:56.1	0.860	-0.320	-0.690	-0.200
2020/01/31 14:24:56.2	0.870	-0.330	-0.690	-0.250
2020/01/31 14:24:56.3	0.890	-0.340	-0.700	-0.300
2020/01/31 14:24:56.4	0.910	-0.340	-0.710	-0.350
2020/01/31 14:24:56.5	0.930	-0.350	-0.710	-0.400
2020/01/31 14:24:56.6	0.950	-0.350	-0.720	-0.450
2020/01/31 14:24:56.7	0.970	-0.350	-0.720	-0.500
2020/01/31 14:24:56.8	1.000	-0.350	-0.720	-0.550
2020/01/31 14:24:56.9	1.020	-0.350	-0.720	-0.600
2020/01/31 14:24:57.0	1.050	-0.350	-0.720	-0.650
2020/01/31 14:24:57.1	1.080	-0.350	-0.710	-0.700
2020/01/31 14:24:57.2	1.110	-0.340	-0.700	-0.740
2020/01/31 14:24:57.3	1.140	-0.330	-0.690	-0.790
2020/01/31 14:24:57.4	1.170	-0.320	-0.680	-0.830
2020/01/31 14:24:57.5	1.200	-0.310	-0.670	-0.860
2020/01/31 14:24:57.6	1.220	-0.300	-0.650	-0.900
2020/01/31 14:24:57.7	1.240	-0.290	-0.640	-0.940
2020/01/31 14:24:57.8	1.270	-0.270	-0.610	-0.960
2020/01/31 14:24:57.9	1.290	-0.260	-0.590	-0.990
2020/01/31 14:24:58.0	1.310	-0.240	-0.560	-1.010
2020/01/31 14:24:58.1	1.330	-0.220	-0.530	-1.020
2020/01/31 14:24:58.2	1.340	-0.200	-0.500	-1.040
2020/01/31 14:24:58.3	1.360	-0.180	-0.470	-1.050
2020/01/31 14:24:58.4	1.370	-0.160	-0.430	-1.060
2020/01/31 14:24:58.5	1.380	-0.140	-0.390	-1.060
2020/01/31 14:24:58.6	1.390	-0.110	-0.350	-1.060
2020/01/31 14:24:58.7	1.390	-0.090	-0.300	-1.060
2020/01/31 14:24:58.8	1.390	-0.070	-0.250	-1.060
2020/01/31 14:24:58.9	1.400	-0.040	-0.210	-1.050
2020/01/31 14:24:59.0	1.400	-0.020	-0.160	-1.040
2020/01/31 14:24:59.1	1.400	0.010	-0.110	-1.020
2020/01/31 14:24:59.2	1.400	0.030	-0.060	-1.000
2020/01/31 14:24:59.3	1.390	0.050	-0.000	-0.980
2020/01/31 14:24:59.4	1.390	0.080	0.050	-0.950
2020/01/31 14:24:59.5	1.380	0.100	0.100	-0.910
2020/01/31 14:24:59.6	1.360	0.120	0.150	-0.870
2020/01/31 14:24:59.7	1.350	0.140	0.200	-0.830
2020/01/31 14:24:59.8	1.330	0.160	0.250	-0.780
2020/01/31 14:24:59.9	1.310	0.180	0.290	-0.730
2020/01/31 14:25:00.0	1.280	0.190	0.340	-0.670
2020/01/31 14:25:00.1	1.260	0.210	0.380	-0.610
2020/01/31 14:25:00.2	1.220	0.220	0.430	-0.550
2020/01/31 14:25:00.3	1.190	0.230	0.460	-0.490
2020/01/31 14:25:00.4	1.150	0.240	0.500	-0.420
2020/01/31 14:25:00.5	1.110	0.240	0.530	-0.350
2020/01/31 14:25:00.6	1.070	0.240	0.560	-0.280
2020/01/31 14:25:00.7	1.020	0.250	0.580	-0.210
2020/01/31 14:25:00.8	0.980	0.250	0.600	-0.140
2020/01/31 14:25:00.9	0.930	0.250	0.610	-0.070
2020/01/31 14:25:01.0	0.890	0.250	0.620	-0.000
2020/01/31 14:25:01.1	0.850	0.240	0.620	0.070
2020/01/31 14:25:01.2	0.810	0.240	0.610	0.130
2020/01/31 14:25:01.3	0.770	0.240	0.600	0.190
2020/01/31 14:25:01.4	0.730	0.240	0.580	0.250
2020/01/31 14:25:01.5	0.690	0.230	0.560	0.310
2020/01/31 14:25:01.6	0.660	0.230	0.530	0.360
2020/01/31 14:25:01.7	0.650	0.230	0.500	0.400
2020/01/31 14:25:01.8	0.620	0.230	0.460	0.440
2020/01/31 14:25:01.9	0.600	0.230	0.410	0.480
2020/01/31 14:25:02.0	0.580	0.240	0.360	0.510
2020/01/31 14:25:02.1	0.570	0.240	0.300	0.540
2020/01/31 14:25:02.2	0.560	0.250	0.240	0.560
2020/01/31 14:25:02.3	0.550	0.260	0.170	0.570
2020/01/31 14:25:02.4	0.550	0.270	0.100	0.580
2020/01/31 14:25:02.5	0.560	0.280	0.030	0.590
2020/01/31 14:25:02.6	0.560	0.300	-0.050	0.590
2020/01/31 14:25:02.7	0.560	0.310	-0.130	0.590
2020/01/31 14:25:02.8	0.560	0.330	-0.210	0.580
2020/01/31 14:25:02.9	0.570	0.350	-0.290	0.580
2020/01/31 14:25:03.0	0.580	0.370	-0.370	0.570
2020/01/31 14:25:03.1	0.590	0.390	-0.450	0.550
2020/01/31 14:25:03.2	0.590	0.410	-0.530	0.540
2020/01/31 14:25:03.3	0.600	0.430	-0.610	0.530
2020/01/31 14:25:03.4	0.610	0.450	-0.680	0.510
2020/01/31 14:25:03.5	0.610	0.470	-0.750	0.490
2020/01/31 14:25:03.6	0.620	0.490	-0.820	0.470
2020/01/31 14:25:03.7	0.610	0.500	-0.890	0.440
2020/01/31 14:25:03.8	0.610	0.520	-0.940	0.410
2020/01/31 14:25:03.9	0.620	0.530	-1.000	0.380
2020/01/31 14:25:04.0	0.620	0.530	-1.050	0.350
2020/01/31 14:25:04.1	0.630	0.540	-1.090	0.320
2020/01/31 14:25:04.2	0.640	0.540	-1.120	0.280
2020/01/31 14:25:04.3	0.650	0.530	-1.160	0.240
2020/01/31 14:25:04.4	0.660	0.520	-1.180	0.200
2020/01/31 14:25:04.5	0.670	0.510	-1.200	0.150
2020/01/31 14:25:04.6	0.680	0.490	-1.210	0.110
2020/01/31 14:25:04.7	0.680	0.470	-1.210	0.060
2020/01/31 14:25:04.8	0.690	0.450	-1.210	0.010
2020/01/31 14:25:04.9	0.710	0.420	-1.200	-0.040
2020/01/31 14:25:05.0	0.720	0.380	-1.190	-0.090
2020/01/31 14:25:05.1	0.740	0.340	-1.170	-0.140
2020/01/31 14:25:05.2	0.760	0.300	-1.140	-0.200
2020/01/31 14:25:05.3	0.780	0.260	-1.110	-0.250
2020/01/31 14:25:05.4	0.790	0.210	-1.070	-0.310
2020/01/31 14:25:05.5	0.810	0.150	-1.030	-0.360
2020/01/31 14:25:05.6	0.830	0.100	-0.980	-0.420
2020/01/31 14:25:05.7	0.860	0.040	-0.930	-0.470
2020/01/31 14:25:05.8	0.880	-0.020	-0.870	-0.530
2020/01/31 14:25:05.9	0.900	-0.080	-0.810	-0.580
2020/01/31 14:25:06.0	0.920	-0.140	-0.750	-0.630
2020/01/31 14:25:06.1	0.940	-0.210	-0.680	-0.680
2020/01/31 14:25:06.2	0.950	-0.270	-0.610	-0.720
2020/01/31 14:25:06.3	0.970	-0.340	-0.540	-0.770
2020/01/31 14:25:06.4	0.980	-0.400	-0.470	-0.810
2020/01/31 14:25:06.5	1.000	-0.460	-0.390	-0.850
2020/01/31 14:25:06.6	1.010	-0.520	-0.310	-0.880
2020/01/31 14:25:06.7	1.000	-0.580	-0.240	-0.920
2020/01/31 14:25:06.8	1.010	-0.640	-0.160	-0.950
2020/01/31 14:25:06.9	1.010	-0.690	-0.080	-0.980
2020/01/31 14:25:07.0	1.010	-0.740	-0.000	-1.000
2020/01/31 14:25:07.1	1.010	-0.790	0.070	-1.020
2020/01/31 14:25:07.2	1.010	-0.830	0.140	-1.040
2020/01/31 14:25:07.3	1.000	-0.870	0.210	-1.060
2020/01/31 14:25:07.4	1.000	-0.900	0.280	-1.070
2020/01/31 14:25:07.5	0.990	-0.930	0.340	-1.090
2020/01/31 14:25:07.6	0.980	-0.950	0.400	-1.100
2020/01/31 14:25:07.7	0.980	-0.960	0.450	-1.110
2020/01/31 14:25:07.8	0.970	-0.970	0.500	-1.120
2020/01/31 14:25:07.9	0.960	-0.970	0.530	-1.120
2020/01/31 14:25:08.0	0.950	-0.970	0.560	-1.130
2020/01/31 14:25:08.1	0.950	-0.960	0.590	-1.130
2020/01/31 14:25:08.2	0.940	-0.940	0.600	-1.130
2020/01/31 14:25:08.3	0.940	-0.920	0.610	-1.140
2020/01/31 14:25:08.4	0.930	-0.890	0.610	-1.140
2020/01/31 14:25:08.5	0.930	-0.860	0.590	-1.140
2020/01/31 14:25:08.6	0.930	-0.810	0.580	-1.130
2020/01/31 14:25:08.7	0.930	-0.770	0.550	-1.130
2020/01/31 14:25:08.8	0.930	-0.720	0.520	-1.120
2020/01/31 14:25:08.9	0.930	-0.660	0.480	-1.110
2020/01/31 14:25:09.0	0.930	-0.610	0.440	-1.100
2020/01/31 14:25:09.1	0.930	-0.550	0.390	-1.090
2020/01/31 14:25:09.2	0.930	-0.480	0.330	-1.080
2020/01/31 14:25:09.3	0.930	-0.420	0.280	-1.060
2020/01/31 14:25:09.4	0.930	-0.350	0.220	-1.040
2020/01/31 14:25:09.5	0.920	-0.290	0.160	-1.010
2020/01/31 14:25:09.6	0.920	-0.220	0.100	-0.990
2020/01/31 14:25:09.7	0.930	-0.160	0.040	-0.960
2020/01/31 14:25:09.8	0.920	-0.090	-0.020	-0.930
2020/01/31 14:25:09.9	0.910	-0.030	-0.080	-0.890
2020/01/31 14:25:10.0	0.910	0.030	-0.130	-0.860
2020/01/31 14:25:10.1	0.900	0.080	-0.180	-0.820
2020/01/31 14:25:10.2	0.890	0.140	-0.230	-0.780
2020/01/31 14:25:10.3	0.870	0.190	-0.280	-0.740
2020/01/31 14:25:10.4	0.860	0.230	-0.310	-0.690
2020/01/31 14:25:10.5	0.850	0.280	-0.350	-0.650
2020/01/31 14:25:10.6	0.830	0.310	-0.380	-0.600
2020/01/31 14:25:10.7	0.820	0.350	-0.400	-0.540
2020/01/31 14:25:10.8	0.800	0.370	-0.420	-0.490
2020/01/31 14:25:10.9	0.780	0.400	-0.430	-0.440
2020/01/31 14:25:11.0	0.760	0.420	-0.440	-0.380
2020/01/31 14:25:11.1	0.740	0.430	-0.450	-0.330
2020/01/31 14:25:11.2	0.720	0.440	-0.450	-0.270
2020/01/31 14:25:11.3	0.700	0.450	-0.450	-0.220
2020/01/31 14:25:11.4	0.670	0.450	-0.440	-0.160
2020/01/31 14:25:11.5	0.650	0.440	-0.430	-0.110
2020/01/31 14:25:11.6	0.630	0.440	-0.420	-0.060
2020/01/31 14:25:11.7	0.600	0.430	-0.410	-0.010
2020/01/31 14:25:11.8	0.580	0.420	-0.400	0.040
2020/01/31 14:25:11.9	0.560	0.410	-0.380	0.090
2020/01/31 14:25:12.0	0.540	0.390	-0.370	0.140
2020/01/31 14:25:12.1	0.520	0.370	-0.350	0.180
2020/01/31 14:25:12.2	0.510	0.350	-0.340	0.220
2020/01/31 14:25:12.3	0.490	0.330	-0.330	0.260
2020/01/31 14:25:12.4	0.480	0.310	-0.320	0.290
2020/01/31 14:25:12.5	0.460	0.290	-0.310	0.320
2020/01/31 14:25:12.6	0.450	0.270	-0.300	0.350
2020/01/31 14:25:12.7	0.430	0.250	-0.290	0.370
2020/01/31 14:25:12.8	0.420	0.230	-0.290	0.390
2020/01/31 14:25:12.9	0.410	0.220	-0.290	0.400
2020/01/31 14:25:13.0	0.400	0.200	-0.300	0.420
2020/01/31 14:25:13.1	0.400	0.190	-0.300	0.430
2020/01/31 14:25:13.2	0.390	0.170	-0.310	0.430
2020/01/31 14:25:13.3	0.380	0.160	-0.320	0.440
2020/01/31 14:25:13.4	0.370	0.150	-0.340	0.430
2020/01/31 14:25:13.5	0.360	0.140	-0.350	0.430
2020/01/31 14:25:13.6	0.350	0.140	-0.360	0.430
2020/01/31 14:25:13.7	0.360	0.140	-0.380	0.410
2020/01/31 14:25:13.8	0.350	0.140	-0.400	0.410
2020/01/31 14:25:13.9	0.350	0.140	-0.420	0.400
2020/01/31 14:25:14.0	0.340	0.140	-0.430	0.380
2020/01/31 14:25:14.1	0.340	0.150	-0.450	0.370
2020/01/31 14:25:14.2	0.340	0.160	-0.470	0.360
2020/01/31 14:25:14.3	0.340	0.170	-0.490	0.340
2020/01/31 14:25:14.4	0.340	0.180	-0.510	0.330
2020/01/31 14:25:14.5	0.340	0.200	-0.520	0.310
2020/01/31 14:25:14.6	0.350	0.210	-0.540	0.290
2020/01/31 14:25:14.7	0.350	0.230	-0.550	0.270
2020/01/31 14:25:14.8	0.360	0.240	-0.570	0.250
2020/01/31 14:25:14.9	0.370	0.260	-0.580	0.230
2020/01/31 14:25:15.0	0.380	0.280	-0.590	0.210
2020/01/31 14:25:15.1	0.400	0.300	-0.600	0.190
2020/01/31 14:25:15.2	0.420	0.310	-0.600	0.170
2020/01/31 14:25:15.3	0.440	0.330	-0.610	0.140
2020/01/31 14:25:15.4	0.460	0.350	-0.610	0.120
2020/01/31 14:25:15.5	0.490	0.360	-0.610	0.100
2020/01/31 14:25:15.6	0.510	0.370	-0.610	0.080
2020/01/31 14:25:15.7	0.540	0.390	-0.600	0.060
2020/01/31 14:25:15.8	0.560	0.390	-0.590	0.040
2020/01/31 14:25:15.9	0.590	0.400	-0.580	0.020
2020/01/31 14:25:16.0	0.610	0.410	-0.560	0.000
2020/01/31 14:25:16.1	0.640	0.410	-0.540	-0.010
2020/01/31 14:25:16.2	0.660	0.410	-0.520	-0.030
2020/01/31 14:25:16.3	0.680	0.400	-0.500	-0.040
2020/01/31 14:25:16.4	0.700	0.400	-0.470	-0.050
2020/01/31 14:25:16.5	0.720	0.390	-0.440	-0.060
2020/01/31 14:25:16.6	0.740	0.370	-0.410	-0.070
2020/01/31 14:25:16.7	0.750	0.360	-0.370	-0.080
2020/01/31 14:25:16.8	0.760	0.340	-0.340	-0.080
2020/01/31 14:25:16.9	0.770	0.310	-0.300	-0.080
2020/01/31 14:25:17.0	0.780	0.290	-0.260	-0.080
2020/01/31 14:25:17.1	0.780	0.260	-0.220	-0.080
2020/01/31 14:25:17.2	0.790	0.220	-0.180	-0.080
2020/01/31 14:25:17.3	0.790	0.190	-0.150	-0.070
2020/01/31 14:25:17.4	0.790	0.150	-0.110	-0.070
2020/01/31 14:25:17.5	0.790	0.110	-0.080	-0.060
2020/01/31 14:25:17.6	0.780	0.070	-0.050	-0.060
2020/01/31 14:25:17.7	0.800	0.020	-0.020	-0.060
2020/01/31 14:25:17.8	0.790	-0.020	0.010	-0.060
2020/01/31 14:25:17.9	0.780	-0.070	0.030	-0.070
2020/01/31 14:25:18.0	0.780	-0.120	0.050	-0.080
2020/01/31 14:25:18.1	0.770	-0.160	0.060	-0.090
2020/01/31 14:25:18.2	0.760	-0.210	0.070	-0.100
2020/01/31 14:25:18.3	0.760	-0.250	0.080	-0.120
2020/01/31 14:25:18.4	0.750	-0.300	0.080	-0.140
2020/01/31 14:25:18.5	0.750	-0.340	0.080	-0.160
2020/01/31 14:25:18.6	0.740	-0.380	0.070	-0.180
2020/01/31 14:25:18.7	0.740	-0.420	0.060	-0.210
2020/01/31 14:25:18.8	0.730	-0.450	0.050	-0.240
2020/01/31 14:25:18.9	0.730	-0.490	0.040	-0.270
2020/01/31 14:25:19.0	0.730	-0.510	0.020	-0.300
2020/01/31 14:25:19.1	0.730	-0.540	-0.000	-0.330
2020/01/31 14:25:19.2	0.740	-0.560	-0.020	-0.360
2020/01/31 14:25:19.3	0.740	-0.570	-0.040	-0.390
2020/01/31 14:25:19.4	0.740	-0.580	-0.060	-0.420
2020/01/31 14:25:19.5	0.750	-0.590	-0.090	-0.450
2020/01/31 14:25:19.6	0.760	-0.590	-0.110	-0.480
2020/01/31 14:25:19.7	0.760	-0.580	-0.130	-0.520
2020/01/31 14:25:19.8	0.770	-0.570	-0.150	-0.540
2020/01/31 14:25:19.9	0.780	-0.560	-0.160	-0.570
2020/01/31 14:25:20.0	0.790	-0.540	-0.180	-0.590
2020/01/31 14:25:20.1	0.800	-0.520	-0.200	-0.610
2020/01/31 14:25:20.2	0.810	-0.490	-0.210	-0.630
2020/01/31 14:25:20.3	0.820	-0.460	-0.220	-0.650
2020/01/31 14:25:20.4	0.830	-0.430	-0.230	-0.670
2020/01/31 14:25:20.5	0.840	-0.400	-0.240	-0.680
2020/01/31 14:25:20.6	0.850	-0.360	-0.240	-0.690
2020/01/31 14:25:20.7	0.860	-0.320	-0.240	-0.710
2020/01/31 14:25:20.8	0.870	-0.280	-0.250	-0.720
2020/01/31 14:25:20.9	0.880	-0.240	-0.250	-0.720
2020/01/31 14:25:21.0	0.890	-0.190	-0.240	-0.730
2020/01/31 14:25:21.1	0.890	-0.150	-0.240	-0.730
2020/01/31 14:25:21.2	0.900	-0.110	-0.240	-0.730
2020/01/31 14:25:21.3	0.900	-0.070	-0.230	-0.730
2020/01/31 14:25:21.4	0.910	-0.030	-0.220	-0.720
2020/01/31 14:25:21.5	0.910	0.010	-0.210	-0.720
2020/01/31 14:25:21.6	0.910	0.050	-0.210	-0.700
2020/01/31 14:25:21.7	0.910	0.080	-0.200	-0.690
2020/01/31 14:25:21.8	0.900	0.110	-0.190	-0.670
2020/01/31 14:25:21.9	0.900	0.140	-0.170	-0.650
2020/01/31 14:25:22.0	0.890	0.170	-0.160	-0.630
2020/01/31 14:25:22.1	0.880	0.190	-0.150	-0.610
2020/01/31 14:25:22.2	0.870	0.210	-0.140	-0.580
2020/01/31 14:25:22.3	0.860	0.220	-0.120	-0.550
2020/01/31 14:25:22.4	0.840	0.230	-0.110	-0.520
2020/01/31 14:25:22.5	0.830	0.240	-0.090	-0.490
2020/01/31 14:25:22.6	0.810	0.250	-0.080	-0.460
2020/01/31 14:25:22.7	0.800	0.250	-0.060	-0.430
2020/01/31 14:25:22.8	0.780	0.240	-0.050	-0.390
2020/01/31 14:25:22.9	0.760	0.240	-0.030	-0.360
2020/01/31 14:25:23.0	0.740	0.230	-0.010	-0.330
2020/01/31 14:25:23.1	0.710	0.220	0.000	-0.290
2020/01/31 14:25:23.2	0.690	0.200	0.020	-0.260
2020/01/31 14:25:23.3	0.670	0.190	0.030	-0.220
2020/01/31 14:25:23.4	0.650	0.170	0.040	-0.190
2020/01/31 14:25:23.5	0.630	0.150	0.050	-0.150
2020/01/31 14:25:23.6	0.610	0.130	0.060	-0.120
2020/01/31 14:25:23.7	0.580	0.100	0.070	-0.090
2020/01/31 14:25:23.8	0.560	0.080	0.080	-0.050
2020/01/31 14:25:23.9	0.540	0.060	0.080	-0.020
2020/01/31 14:25:24.0	0.520	0.030	0.080	0.010
2020/01/31 14:25:24.1	0.500	0.010	0.080	0.040
2020/01/31 14:25:24.2	0.480	-0.010	0.070	0.070
2020/01/31 14:25:24.3	0.460	-0.040	0.060	0.090
2020/01/31 14:25:24.4	0.440	-0.060	0.050	0.120
2020/01/31 14:25:24.5	0.420	-0.080	0.040	0.140
2020/01/31 14:25:24.6	0.410	-0.100	0.020	0.150
2020/01/31 14:25:24.7	0.380	-0.120	-0.000	0.170
2020/01/31 14:25:24.8	0.370	-0.130	-0.030	0.180
2020/01/31 14:25:24.9	0.360	-0.150	-0.060	0.180
2020/01/31 14:25:25.0	0.350	-0.160	-0.090	0.180
2020/01/31 14:25:25.1	0.340	-0.170	-0.120	0.170
2020/01/31 14:25:25.2	0.340	-0.190	-0.160	0.160
2020/01/31 14:25:25.3	0.340	-0.190	-0.200	0.150
2020/01/31 14:25:25.4	0.340	-0.200	-0.240	0.130
2020/01/31 14:25:25.5	0.350	-0.210	-0.290	0.100
2020/01/31 14:25:25.6	0.360	-0.210	-0.330	0.080
2020/01/31 14:25:25.7	0.380	-0.210	-0.380	0.040
2020/01/31 14:25:25.8	0.390	-0.210	-0.430	0.010
2020/01/31 14:25:25.9	0.410	-0.210	-0.480	-0.030
2020/01/31 14:25:26.0	0.430	-0.210	-0.530	-0.070
2020/01/31 14:25:26.1	0.450	-0.200	-0.580	-0.110
2020/01/31 14:25:26.2	0.470	-0.200	-0.620	-0.150
2020/01/31 14:25:26.3	0.490	-0.190	-0.670	-0.190
2020/01/31 14:25:26.4	0.520	-0.180	-0.710	-0.240
2020/01/31 14:25:26.5	0.540	-0.170	-0.750	-0.280
2020/01/31 14:25:26.6	0.570	-0.160	-0.790	-0.320
2020/01/31 14:25:26.7	0.620	-0.150	-0.830	-0.360
2020/01/31 14:25:26.8	0.650	-0.140	-0.860	-0.400
2020/01/31 14:25:26.9	0.670	-0.130	-0.890	-0.440
2020/01/31 14:25:27.0	0.700	-0.120	-0.910	-0.470
2020/01/31 14:25:27.1	0.730	-0.110	-0.930	-0.510
2020/01/31 14:25:27.2	0.760	-0.100	-0.940	-0.540
2020/01/31 14:25:27.3	0.790	-0.080	-0.950	-0.570
2020/01/31 14:25:27.4	0.820	-0.070	-0.960	-0.600
2020/01/31 14:25:27.5	0.850	-0.060	-0.960	-0.620
2020/01/31 14:25:27.6	0.880	-0.050	-0.950	-0.650
2020/01/31 14:25:27.7	0.890	-0.040	-0.950	-0.670
2020/01/31 14:25:27.8	0.920	-0.030	-0.940	-0.690
2020/01/31 14:25:27.9	0.940	-0.010	-0.920	-0.710
2020/01/31 14:25:28.0	0.970	-0.000	-0.900	-0.730
2020/01/31 14:25:28.1	0.990	0.010	-0.880	-0.750
2020/01/31 14:25:28.2	1.010	0.020	-0.860	-0.770
2020/01/31 14:25:28.3	1.030	0.030	-0.830	-0.780
2020/01/31 14:25:28.4	1.050	0.040	-0.800	-0.790
2020/01/31 14:25:28.5	1.070	0.060	-0.770	-0.800
2020/01/31 14:25:28.6	1.090	0.070	-0.730	-0.810
2020/01/31 14:25:28.7	1.100	0.080	-0.700	-0.820
2020/01/31 14:25:28.8	1.120	0.100	-0.660	-0.830
2020/01/31 14:25:28.9	1.140	0.110	-0.620	-0.830
2020/01/31 14:25:29.0	1.150	0.130	-0.590	-0.830
2020/01/31 14:25:29.1	1.170	0.140	-0.550	-0.830
2020/01/31 14:25:29.2	1.180	0.160	-0.510	-0.830
2020/01/31 14:25:29.3	1.200	0.180	-0.470	-0.830
2020/01/31 14:25:29.4	1.210	0.200	-0.430	-0.820
2020/01/31 14:25:29.5	1.220	0.210	-0.390	-0.800
2020/01/31 14:25:29.6	1.230	0.230	-0.350	-0.790
2020/01/31 14:25:29.7	1.230	0.250	-0.310	-0.770
2020/01/31 14:25:29.8	1.240	0.270	-0.270	-0.750
2020/01/31 14:25:29.9	1.240	0.290	-0.220	-0.720
2020/01/31 14:25:30.0	1.240	0.310	-0.180	-0.690
2020/01/31 14:25:30.1	1.240	0.320	-0.140	-0.650
2020/01/31 14:25:30.2	1.240	0.340	-0.090	-0.610
2020/01/31 14:25:30.3	1.230	0.360	-0.050	-0.560
2020/01/31 14:25:30.4	1.220	0.370	-0.000	-0.510
2020/01/31 14:25:30.5	1.200	0.380	0.040	-0.460
2020/01/31 14:25:30.6	1.180	0.400	0.090	-0.400
2020/01/31 14:25:30.7	1.150	0.410	0.140	-0.340
2020/01/31 14:25:30.8	1.130	0.410	0.180	-0.280
2020/01/31 14:25:30.9	1.100	0.420	0.230	-0.210
2020/01/31 14:25:31.0	1.070	0.420	0.270	-0.140
2020/01/31 14:25:31.1	1.030	0.420	0.310	-0.080
2020/01/31 14:25:31.2	1.000	0.420	0.360	-0.010
2020/01/31 14:25:31.3	0.960	0.420	0.400	0.060
2020/01/31 14:25:31.4	0.920	0.410	0.430	0.130
2020/01/31 14:25:31.5	0.880	0.400	0.470	0.200
2020/01/31 14:25:31.6	0.840	0.390	0.500	0.270
2020/01/31 14:25:31.7	0.800	0.380	0.530	0.340
2020/01/31 14:25:31.8	0.760	0.360	0.550	0.400
2020/01/31 14:25:31.9	0.720	0.340	0.570	0.460
2020/01/31 14:25:32.0	0.680	0.320	0.580	0.520
2020/01/31 14:25:32.1	0.640	0.290	0.590	0.570
2020/01/31 14:25:32.2	0.600	0.270	0.590	0.620
2020/01/31 14:25:32.3	0.570	0.240	0.590	0.660
2020/01/31 14:25:32.4	0.540	0.210	0.580	0.700
2020/01/31 14:25:32.5	0.520	0.180	0.570	0.730
2020/01/31 14:25:32.6	0.490	0.150	0.550	0.750
2020/01/31 14:25:32.7	0.470	0.120	0.520	0.770
2020/01/31 14:25:32.8	0.460	0.080	0.490	0.780
2020/01/31 14:25:32.9	0.440	0.050	0.450	0.780
2020/01/31 14:25:33.0	0.430	0.010	0.410	0.780
2020/01/31 14:25:33.1	0.430	-0.020	0.360	0.760
2020/01/31 14:25:33.2	0.430	-0.050	0.310	0.750
2020/01/31 14:25:33.3	0.430	-0.090	0.250	0.720
2020/01/31 14:25:33.4	0.430	-0.120	0.200	0.690
2020/01/31 14:25:33.5	0.440	-0.150	0.130	0.660
2020/01/31 14:25:33.6	0.450	-0.180	0.070	0.620
2020/01/31 14:25:33.7	0.470	-0.210	0.010	0.570
2020/01/31 14:25:33.8	0.480	-0.230	-0.060	0.520
2020/01/31 14:25:33.9	0.500	-0.260	-0.120	0.460
2020/01/31 14:25:34.0	0.520	-0.280	-0.190	0.400
2020/01/31 14:25:34.1	0.540	-0.300	-0.250	0.340
2020/01/31 14:25:34.2	0.560	-0.320	-0.320	0.280
2020/01/31 14:25:34.3	0.590	-0.330	-0.380	0.220
2020/01/31 14:25:34.4	0.610	-0.350	-0.440	0.160
2020/01/31 14:25:34.5	0.640	-0.360	-0.500	0.090
2020/01/31 14:25:34.6	0.670	-0.360	-0.550	0.030
2020/01/31 14:25:34.7	0.690	-0.370	-0.600	-0.040
2020/01/31 14:25:34.8	0.710	-0.370	-0.650	-0.100
2020/01/31 14:25:34.9	0.740	-0.370	-0.690	-0.160
2020/01/31 14:25:35.0	0.770	-0.370	-0.720	-0.220
2020/01/31 14:25:35.1	0.790	-0.360	-0.750	-0.270
2020/01/31 14:25:35.2	0.820	-0.360	-0.780	-0.320
2020/01/31 14:25:35.3	0.840	-0.350	-0.800	-0.370
2020/01/31 14:25:35.4	0.860	-0.350	-0.810	-0.420
2020/01/31 14:25:35.5	0.880	-0.340	-0.820	-0.460
2020/01/31 14:25:35.6	0.900	-0.330	-0.830	-0.500
2020/01/31 14:25:35.7	0.910	-0.320	-0.830	-0.550
2020/01/31 14:25:35.8	0.920	-0.310	-0.820	-0.580
2020/01/31 14:25:35.9	0.930	-0.300	-0.820	-0.620
2020/01/31 14:25:36.0	0.940	-0.290	-0.810	-0.650
2020/01/31 14:25:36.1	0.950	-0.290	-0.800	-0.680
2020/01/31 14:25:36.2	0.950	-0.280	-0.780	-0.710
2020/01/31 14:25:36.3	0.960	-0.270	-0.770	-0.730
2020/01/31 14:25:36.4	0.960	-0.260	-0.750	-0.760
2020/01/31 14:25:36.5	0.970	-0.260	-0.730	-0.780
2020/01/31 14:25:36.6	0.970	-0.250	-0.710	-0.800
2020/01/31 14:25:36.7	0.960	-0.250	-0.690	-0.830
2020/01/31 14:25:36.8	0.960	-0.240	-0.680	-0.850
2020/01/31 14:25:36.9	0.960	-0.240	-0.660	-0.870
2020/01/31 14:25:37.0	0.960	-0.230	-0.640	-0.890
2020/01/31 14:25:37.1	0.970	-0.230	-0.620	-0.900
2020/01/31 14:25:37.2	0.970	-0.230	-0.610	-0.920
2020/01/31 14:25:37.3	0.970	-0.220	-0.590	-0.930
2020/01/31 14:25:37.4	0.980	-0.220	-0.580	-0.940
2020/01/31 14:25:37.5	0.980	-0.210	-0.560	-0.950
2020/01/31 14:25:37.6	0.980	-0.210	-0.550	-0.950
2020/01/31 14:25:37.7	0.980	-0.200	-0.540	-0.960
2020/01/31 14:25:37.8	0.980	-0.190	-0.520	-0.960
2020/01/31 14:25:37.9	0.990	-0.180	-0.510	-0.960
2020/01/31 14:25:38.0	0.980	-0.180	-0.500	-0.960
2020/01/31 14:25:38.1	0.980	-0.170	-0.480	-0.950
2020/01/31 14:25:38.2	0.980	-0.160	-0.470	-0.950
2020/01/31 14:25:38.3	0.980	-0.150	-0.450	-0.940
2020/01/31 14:25:38.4	0.980	-0.140	-0.440	-0.930
2020/01/31 14:25:38.5	0.970	-0.130	-0.420	-0.920
2020/01/31 14:25:38.6	0.960	-0.110	-0.400	-0.910
2020/01/31 14:25:38.7	0.960	-0.100	-0.370	-0.900
2020/01/31 14:25:38.8	0.950	-0.080	-0.350	-0.880
2020/01/31 14:25:38.9	0.940	-0.070	-0.330	-0.870
2020/01/31 14:25:39.0	0.930	-0.050	-0.310	-0.850
2020/01/31 14:25:39.1	0.910	-0.040	-0.280	-0.830
2020/01/31 14:25:39.2	0.900	-0.020	-0.260	-0.810
2020/01/31 14:25:39.3	0.880	-0.000	-0.230	-0.790
2020/01/31 14:25:39.4	0.870	0.020	-0.200	-0.760
2020/01/31 14:25:39.5	0.850	0.040	-0.170	-0.740
2020/01/31 14:25:39.6	0.840	0.060	-0.150	-0.710
2020/01/31 14:25:39.7	0.810	0.070	-0.120	-0.680
2020/01/31 14:25:39.8	0.800	0.090	-0.090	-0.650
2020/01/31 14:25:39.9	0.790	0.110	-0.070	-0.620
2020/01/31 14:25:40.0	0.780	0.130	-0.040	-0.580
2020/01/31 14:25:40.1	0.770	0.150	-0.010	-0.550
2020/01/31 14:25:40.2	0.760	0.170	0.010	-0.510
2020/01/31 14:25:40.3	0.760	0.190	0.030	-0.470
2020/01/31 14:25:40.4	0.750	0.210	0.050	-0.430
2020/01/31 14:25:40.5	0.750	0.220	0.070	-0.400
2020/01/31 14:25:40.6	0.750	0.240	0.090	-0.360
2020/01/31 14:25:40.7	0.770	0.260	0.100	-0.330
2020/01/31 14:25:40.8	0.770	0.270	0.120	-0.300
2020/01/31 14:25:40.9	0.780	0.290	0.130	-0.270
2020/01/31 14:25:41.0	0.790	0.300	0.130	-0.240
2020/01/31 14:25:41.1	0.800	0.310	0.140	-0.210
2020/01/31 14:25:41.2	0.800	0.320	0.140	-0.180
2020/01/31 14:25:41.3	0.810	0.330	0.140	-0.160
2020/01/31 14:25:41.4	0.820	0.340	0.140	-0.130
2020/01/31 14:25:41.5	0.830	0.340	0.140	-0.110
2020/01/31 14:25:41.6	0.830	0.340	0.140	-0.090
2020/01/31 14:25:41.7	0.850	0.350	0.130	-0.060
2020/01/31 14:25:41.8	0.850	0.350	0.130	-0.040
2020/01/31 14:25:41.9	0.860	0.350	0.120	-0.020
2020/01/31 14:25:42.0	0.860	0.340	0.110	-0.000
2020/01/31 14:25:42.1	0.870	0.340	0.100	0.020
2020/01/31 14:25:42.2	0.870	0.340	0.090	0.050
2020/01/31 14:25:42.3	0.870	0.330	0.080	0.070
2020/01/31 14:25:42.4	0.870	0.320	0.070	0.100
2020/01/31 14:25:42.5	0.870	0.310	0.060	0.130
2020/01/31 14:25:42.6	0.860	0.300	0.060	0.160
2020/01/31 14:25:42.7	0.850	0.290	0.050	0.190
2020/01/31 14:25:42.8	0.850	0.280	0.040	0.230
2020/01/31 14:25:42.9	0.840	0.270	0.040	0.260
2020/01/31 14:25:43.0	0.830	0.260	0.030	0.300
2020/01/31 14:25:43.1	0.820	0.240	0.030	0.350
2020/01/31 14:25:43.2	0.810	0.230	0.020	0.390
2020/01/31 14:25:43.3	0.800	0.220	0.010	0.430
2020/01/31 14:25:43.4	0.790	0.200	0.010	0.470
2020/01/31 14:25:43.5	0.780	0.190	-0.000	0.510
2020/01/31 14:25:43.6	0.770	0.170	-0.010	0.560
2020/01/31 14:25:43.7	0.760	0.160	-0.020	0.600
2020/01/31 14:25:43.8	0.740	0.150	-0.040	0.640
2020/01/31 14:25:43.9	0.720	0.140	-0.050	0.680
2020/01/31 14:25:44.0	0.710	0.130	-0.060	0.720
2020/01/31 14:25:44.1	0.690	0.110	-0.080	0.750
2020/01/31 14:25:44.2	0.680	0.100	-0.100	0.790
2020/01/31 14:25:44.3	0.660	0.100	-0.120	0.820
2020/01/31 14:25:44.4	0.640	0.090	-0.150	0.850
2020/01/31 14:25:44.5	0.630	0.080	-0.170	0.880
2020/01/31 14:25:44.6	0.610	0.070	-0.200	0.900
2020/01/31 14:25:44.7	0.600	0.070	-0.230	0.910
2020/01/31 14:25:44.8	0.590	0.070	-0.260	0.930
2020/01/31 14:25:44.9	0.580	0.060	-0.300	0.930
2020/01/31 14:25:45.0	0.580	0.060	-0.340	0.940
2020/01/31 14:25:45.1	0.570	0.060	-0.380	0.930
2020/01/31 14:25:45.2	0.570	0.060	-0.430	0.930
2020/01/31 14:25:45.3	0.570	0.060	-0.470	0.910
2020/01/31 14:25:45.4	0.580	0.060	-0.520	0.890
2020/01/31 14:25:45.5	0.580	0.060	-0.570	0.860
2020/01/31 14:25:45.6	0.600	0.060	-0.620	0.830
2020/01/31 14:25:45.7	0.610	0.060	-0.670	0.780
2020/01/31 14:25:45.8	0.630	0.060	-0.720	0.740
2020/01/31 14:25:45.9	0.660	0.050	-0.760	0.680
2020/01/31 14:25:46.0	0.690	0.050	-0.810	0.620
2020/01/31 14:25:46.1	0.720	0.050	-0.850	0.550
2020/01/31 14:25:46.2	0.750	0.040	-0.890	0.480
2020/01/31 14:25:46.3	0.780	0.040	-0.930	0.410
2020/01/31 14:25:46.4	0.820	0.030	-0.970	0.330
2020/01/31 14:25:46.5	0.860	0.020	-0.990	0.240
2020/01/31 14:25:46.6	0.890	0.010	-1.020	0.160
2020/01/31 14:25:46.7	0.920	-0.000	-1.030	0.070
2020/01/31 14:25:46.8	0.960	-0.020	-1.040	-0.020
2020/01/31 14:25:46.9	0.990	-0.040	-1.050	-0.110
2020/01/31 14:25:47.0	1.030	-0.060	-1.050	-0.200
2020/01/31 14:25:47.1	1.060	-0.080	-1.030	-0.290
2020/01/31 14:25:47.2	1.080	-0.110	-1.020	-0.380
2020/01/31 14:25:47.3	1.110	-0.140	-0.990	-0.470
2020/01/31 14:25:47.4	1.140	-0.170	-0.960	-0.550
2020/01/31 14:25:47.5	1.160	-0.200	-0.920	-0.640
2020/01/31 14:25:47.6	1.180	-0.230	-0.880	-0.720
2020/01/31 14:25:47.7	1.200	-0.270	-0.820	-0.810
2020/01/31 14:25:47.8	1.220	-0.310	-0.760	-0.890
2020/01/31 14:25:47.9	1.230	-0.340	-0.700	-0.960
2020/01/31 14:25:48.0	1.240	-0.380	-0.640	-1.040
2020/01/31 14:25:48.1	1.250	-0.420	-0.560	-1.100
2020/01/31 14:25:48.2	1.260	-0.460	-0.490	-1.170
2020/01/31 14:25:48.3	1.260	-0.500	-0.420	-1.230
2020/01/31 14:25:48.4	1.260	-0.540	-0.340	-1.290
2020/01/31 14:25:48.5	1.260	-0.580	-0.260	-1.340
2020/01/31 14:25:48.6	1.260	-0.610	-0.180	-1.380
2020/01/31 14:25:48.7	1.250	-0.650	-0.100	-1.430
2020/01/31 14:25:48.8	1.240	-0.680	-0.020	-1.460
2020/01/31 14:25:48.9	1.230	-0.710	0.050	-1.490
2020/01/31 14:25:49.0	1.220	-0.730	0.130	-1.520
2020/01/31 14:25:49.1	1.210	-0.750	0.190	-1.540
2020/01/31 14:25:49.2	1.200	-0.770	0.260	-1.550
2020/01/31 14:25:49.3	1.190	-0.780	0.320	-1.560
2020/01/31 14:25:49.4	1.180	-0.790	0.380	-1.570
2020/01/31 14:25:49.5	1.160	-0.790	0.430	-1.560
2020/01/31 14:25:49.6	1.150	-0.780	0.470	-1.560
2020/01/31 14:25:49.7	1.120	-0.780	0.510	-1.550
2020/01/31 14:25:49.8	1.100	-0.760	0.550	-1.530
2020/01/31 14:25:49.9	1.090	-0.740	0.570	-1.510
2020/01/31 14:25:50.0	1.070	-0.720	0.600	-1.490
2020/01/31 14:25:50.1	1.050	-0.680	0.610	-1.450
2020/01/31 14:25:50.2	1.030	-0.650	0.620	-1.420
2020/01/31 14:25:50.3	1.010	-0.610	0.630	-1.380
2020/01/31 14:25:50.4	0.990	-0.560	0.630	-1.330
2020/01/31 14:25:50.5	0.970	-0.510	0.620	-1.290
2020/01/31 14:25:50.6	0.950	-0.460	0.610	-1.230
2020/01/31 14:25:50.7	0.940	-0.400	0.590	-1.170
2020/01/31 14:25:50.8	0.910	-0.340	0.570	-1.110
2020/01/31 14:25:50.9	0.890	-0.280	0.550	-1.050
2020/01/31 14:25:51.0	0.870	-0.210	0.510	-0.980
2020/01/31 14:25:51.1	0.840	-0.140	0.480	-0.900
2020/01/31 14:25:51.2	0.820	-0.080	0.440	-0.830
2020/01/31 14:25:51.3	0.790	-0.010	0.400	-0.750
2020/01/31 14:25:51.4	0.770	0.060	0.350	-0.670
2020/01/31 14:25:51.5	0.740	0.130	0.300	-0.580
2020/01/31 14:25:51.6	0.720	0.190	0.250	-0.500
2020/01/31 14:25:51.7	0.680	0.260	0.200	-0.410
2020/01/31 14:25:51.8	0.660	0.320	0.140	-0.320
2020/01/31 14:25:51.9	0.640	0.380	0.080	-0.240
2020/01/31 14:25:52.0	0.620	0.440	0.020	-0.150
2020/01/31 14:25:52.1	0.600	0.490	-0.040	-0.070
2020/01/31 14:25:52.2	0.580	0.540	-0.100	0.010
2020/01/31 14:25:52.3	0.570	0.580	-0.160	0.080
2020/01/31 14:25:52.4	0.560	0.620	-0.220	0.150
2020/01/31 14:25:52.5	0.550	0.660	-0.280	0.220
2020/01/31 14:25:52.6	0.540	0.690	-0.340	0.280
2020/01/31 14:25:52.7	0.540	0.710	-0.400	0.340
2020/01/31 14:25:52.8	0.540	0.730	-0.460	0.390
2020/01/31 14:25:52.9	0.540	0.750	-0.520	0.440
2020/01/31 14:25:53.0	0.540	0.760	-0.570	0.480
2020/01/31 14:25:53.1	0.550	0.770	-0.630	0.520
2020/01/31 14:25:53.2	0.560	0.770	-0.680	0.550
2020/01/31 14:25:53.3	0.570	0.760	-0.730	0.580
2020/01/31 14:25:53.4	0.580	0.750	-0.780	0.600
2020/01/31 14:25:53.5	0.590	0.740	-0.820	0.620
2020/01/31 14:25:53.6	0.610	0.720	-0.860	0.640
2020/01/31 14:25:53.7	0.620	0.700	-0.900	0.640
2020/01/31 14:25:53.8	0.630	0.670	-0.930	0.650
2020/01/31 14:25:53.9	0.650	0.640	-0.960	0.660
2020/01/31 14:25:54.0	0.670	0.610	-0.980	0.660
2020/01/31 14:25:54.1	0.680	0.570	-1.000	0.670
2020/01/31 14:25:54.2	0.700	0.540	-1.010	0.670
2020/01/31 14:25:54.3	0.720	0.500	-1.010	0.670
2020/01/31 14:25:54.4	0.730	0.460	-1.010	0.660
2020/01/31 14:25:54.5	0.750	0.410	-1.010	0.660
2020/01/31 14:25:54.6	0.770	0.370	-1.000	0.650
2020/01/31 14:25:54.7	0.790	0.330	-0.980	0.640
2020/01/31 14:25:54.8	0.810	0.280	-0.960	0.630
2020/01/31 14:25:54.9	0.830	0.240	-0.930	0.620
2020/01/31 14:25:55.0	0.840	0.200	-0.900	0.600
2020/01/31 14:25:55.1	0.860	0.160	-0.870	0.590
2020/01/31 14:25:55.2	0.880	0.120	-0.840	0.570
2020/01/31 14:25:55.3	0.900	0.080	-0.800	0.550
2020/01/31 14:25:55.4	0.910	0.050	-0.760	0.530
2020/01/31 14:25:55.5	0.930	0.020	-0.720	0.510
2020/01/31 14:25:55.6	0.950	-0.020	-0.680	0.480
2020/01/31 14:25:55.7	0.960	-0.040	-0.640	0.450
2020/01/31 14:25:55.8	0.970	-0.070	-0.600	0.420
2020/01/31 14:25:55.9	0.990	-0.090	-0.560	0.390
2020/01/31 14:25:56.0	1.010	-0.110	-0.520	0.360
2020/01/31 14:25:56.1	1.020	-0.120	-0.480	0.330
2020/01/31 14:25:56.2	1.040	-0.130	-0.450	0.290
2020/01/31 14:25:56.3	1.060	-0.140	-0.410	0.260
2020/01/31 14:25:56.4	1.070	-0.150	-0.380	0.230
2020/01/31 14:25:56.5	1.090	-0.150	-0.350	0.200
2020/01/31 14:25:56.6	1.100	-0.160	-0.310	0.170
2020/01/31 14:25:56.7	1.110	-0.160	-0.280	0.130
2020/01/31 14:25:56.8	1.120	-0.160	-0.250	0.100
2020/01/31 14:25:56.9	1.130	-0.150	-0.220	0.070
2020/01/31 14:25:57.0	1.140	-0.150	-0.190	0.050
2020/01/31 14:25:57.1	1.150	-0.140	-0.160	0.020
2020/01/31 14:25:57.2	1.160	-0.140	-0.140	-0.010
2020/01/31 14:25:57.3	1.160	-0.130	-0.110	-0.030
2020/01/31 14:25:57.4	1.160	-0.130	-0.080	-0.050
2020/01/31 14:25:57.5	1.160	-0.120	-0.050	-0.070
2020/01/31 14:25:57.6	1.160	-0.120	-0.030	-0.090
2020/01/31 14:25:57.7	1.160	-0.110	0.000	-0.110
2020/01/31 14:25:57.8	1.160	-0.110	0.030	-0.130
2020/01/31 14:25:57.9	1.150	-0.110	0.060	-0.140
2020/01/31 14:25:58.0	1.140	-0.110	0.080	-0.150
2020/01/31 14:25:58.1	1.130	-0.100	0.110	-0.160
2020/01/31 14:25:58.2	1.120	-0.110	0.140	-0.170
2020/01/31 14:25:58.3	1.100	-0.110	0.160	-0.180
2020/01/31 14:25:58.4	1.090	-0.110	0.190	-0.190
2020/01/31 14:25:58.5	1.070	-0.110	0.210	-0.200
2020/01/31 14:25:58.6	1.060	-0.120	0.240	-0.210
2020/01/31 14:25:58.7	1.030	-0.120	0.260	-0.220
2020/01/31 14:25:58.8	1.010	-0.130	0.280	-0.230
2020/01/31 14:25:58.9	1.000	-0.130	0.290	-0.230
2020/01/31 14:25:59.0	0.980	-0.140	0.310	-0.240
2020/01/31 14:25:59.1	0.970	-0.150	0.320	-0.250
2020/01/31 14:25:59.2	0.950	-0.160	0.320	-0.260
2020/01/31 14:25:59.3	0.940	-0.160	0.330	-0.270
2020/01/31 14:25:59.4	0.920	-0.170	0.330	-0.270
2020/01/31 14:25:59.5	0.910	-0.180	0.320	-0.280
2020/01/31 14:25:59.6	0.900	-0.180	0.310	-0.300
2020/01/31 14:25:59.7	0.910	-0.190	0.300	-0.310
2020/01/31 14:25:59.8	0.900	-0.200	0.280	-0.320
2020/01/31 14:25:59.9	0.900	-0.200	0.260	-0.340
2020/01/31 14:26:00.0	0.890	-0.200	0.230	-0.350
2020/01/31 14:26:00.1	0.890	-0.210	0.200	-0.370
2020/01/31 14:26:00.2	0.890	-0.210	0.160	-0.390
2020/01/31 14:26:00.3	0.890	-0.210	0.120	-0.410
2020/01/31 14:26:00.4	0.890	-0.210	0.080	-0.430
2020/01/31 14:26:00.5	0.900	-0.210	0.040	-0.450
2020/01/31 14:26:00.6	0.900	-0.210	-0.010	-0.470
2020/01/31 14:26:00.7	0.910	-0.210	-0.070	-0.490
2020/01/31 14:26:00.8	0.920	-0.200	-0.120	-0.520
2020/01/31 14:26:00.9	0.920	-0.200	-0.170	-0.540
2020/01/31 14:26:01.0	0.930	-0.190	-0.220	-0.560
2020/01/31 14:26:01.1	0.940	-0.190	-0.270	-0.590
2020/01/31 14:26:01.2	0.940	-0.180	-0.320	-0.610
2020/01/31 14:26:01.3	0.950	-0.180	-0.370	-0.630
2020/01/31 14:26:01.4	0.950	-0.170	-0.420	-0.640
2020/01/31 14:26:01.5	0.960	-0.160	-0.460	-0.660
2020/01/31 14:26:01.6	0.960	-0.150	-0.500	-0.670
2020/01/31 14:26:01.7	0.950	-0.150	-0.520	-0.690
2020/01/31 14:26:01.8	0.950	-0.140	-0.550	-0.690
2020/01/31 14:26:01.9	0.950	-0.130	-0.580	-0.700
2020/01/31 14:26:02.0	0.960	-0.120	-0.600	-0.710
2020/01/31 14:26:02.1	0.950	-0.110	-0.610	-0.710
2020/01/31 14:26:02.2	0.950	-0.110	-0.620	-0.710
2020/01/31 14:26:02.3	0.950	-0.100	-0.620	-0.710
2020/01/31 14:26:02.4	0.950	-0.100	-0.610	-0.700
2020/01/31 14:26:02.5	0.940	-0.090	-0.600	-0.700
2020/01/31 14:26:02.6	0.940	-0.090	-0.590	-0.690
2020/01/31 14:26:02.7	0.950	-0.080	-0.570	-0.690
2020/01/31 14:26:02.8	0.940	-0.080	-0.550	-0.680
2020/01/31 14:26:02.9	0.940	-0.070	-0.520	-0.670
2020/01/31 14:26:03.0	0.930	-0.070	-0.490	-0.660
2020/01/31 14:26:03.1	0.920	-0.070	-0.460	-0.640
2020/01/31 14:26:03.2	0.910	-0.060	-0.420	-0.630
2020/01/31 14:26:03.3	0.890	-0.060	-0.380	-0.610
2020/01/31 14:26:03.4	0.880	-0.060	-0.340	-0.590
2020/01/31 14:26:03.5	0.870	-0.060	-0.300	-0.570
2020/01/31 14:26:03.6	0.860	-0.050	-0.270	-0.540
2020/01/31 14:26:03.7	0.840	-0.050	-0.220	-0.520
2020/01/31 14:26:03.8	0.830	-0.050	-0.180	-0.490
2020/01/31 14:26:03.9	0.820	-0.040	-0.150	-0.470
2020/01/31 14:26:04.0	0.800	-0.040	-0.120	-0.440
2020/01/31 14:26:04.1	0.790	-0.030	-0.090	-0.410
2020/01/31 14:26:04.2	0.780	-0.030	-0.060	-0.390
2020/01/31 14:26:04.3	0.770	-0.020	-0.040	-0.360
2020/01/31 14:26:04.4	0.770	-0.020	-0.020	-0.340
2020/01/31 14:26:04.5	0.760	-0.010	-0.010	-0.320
2020/01/31 14:26:04.6	0.760	-0.000	-0.000	-0.300
2020/01/31 14:26:04.7	0.740	0.010	-0.000	-0.280
2020/01/31 14:26:04.8	0.740	0.010	-0.000	-0.260
2020/01/31 14:26:04.9	0.740	0.020	-0.010	-0.250
2020/01/31 14:26:05.0	0.740	0.030	-0.020	-0.230
2020/01/31 14:26:05.1	0.750	0.040	-0.030	-0.220
2020/01/31 14:26:05.2	0.750	0.040	-0.050	-0.210
2020/01/31 14:26:05.3	0.750	0.050	-0.060	-0.200
2020/01/31 14:26:05.4	0.760	0.060	-0.090	-0.190
2020/01/31 14:26:05.5	0.760	0.060	-0.110	-0.180
2020/01/31 14:26:05.6	0.760	0.070	-0.130	-0.180
2020/01/31 14:26:05.7	0.770	0.070	-0.160	-0.180
2020/01/31 14:26:05.8	0.780	0.080	-0.180	-0.180
2020/01/31 14:26:05.9	0.780	0.080	-0.210	-0.190
2020/01/31 14:26:06.0	0.790	0.080	-0.240	-0.190
2020/01/31 14:26:06.1	0.790	0.080	-0.270	-0.200
2020/01/31 14:26:06.2	0.800	0.080	-0.300	-0.210
2020/01/31 14:26:06.3	0.810	0.080	-0.330	-0.220
2020/01/31 14:26:06.4	0.810	0.070	-0.360	-0.230
2020/01/31 14:26:06.5	0.820	0.070	-0.380	-0.240
2020/01/31 14:26:06.6	0.820	0.060	-0.410	-0.240
2020/01/31 14:26:06.7	0.820	0.060	-0.430	-0.260
2020/01/31 14:26:06.8	0.820	0.050	-0.450	-0.260
2020/01/31 14:26:06.9	0.820	0.050	-0.470	-0.270
2020/01/31 14:26:07.0	0.820	0.040	-0.490	-0.270
2020/01/31 14:26:07.1	0.820	0.030	-0.500	-0.260
2020/01/31 14:26:07.2	0.820	0.030	-0.510	-0.260
2020/01/31 14:26:07.3	0.820	0.020	-0.520	-0.250
2020/01/31 14:26:07.4	0.820	0.010	-0.520	-0.250
2020/01/31 14:26:07.5	0.810	0.000	-0.530	-0.230
2020/01/31 14:26:07.6	0.810	-0.000	-0.520	-0.220
2020/01/31 14:26:07.7	0.800	-0.010	-0.520	-0.210
2020/01/31 14:26:07.8	0.800	-0.010	-0.520	-0.190
2020/01/31 14:26:07.9	0.800	-0.020	-0.510	-0.180
2020/01/31 14:26:08.0	0.790	-0.020	-0.500	-0.160
2020/01/31 14:26:08.1	0.790	-0.030	-0.490	-0.150
2020/01/31 14:26:08.2	0.790	-0.030	-0.470	-0.130
2020/01/31 14:26:08.3	0.790	-0.030	-0.460	-0.110
2020/01/31 14:26:08.4	0.780	-0.030	-0.450	-0.100
2020/01/31 14:26:08.5	0.780	-0.030	-0.430	-0.080
2020/01/31 14:26:08.6	0.780	-0.020	-0.420	-0.070
2020/01/31 14:26:08.7	0.760	-0.020	-0.400	-0.060
2020/01/31 14:26:08.8	0.760	-0.010	-0.390	-0.040
2020/01/31 14:26:08.9	0.760	-0.010	-0.380	-0.030
2020/01/31 14:26:09.0	0.750	0.000	-0.370	-0.020
2020/01/31 14:26:09.1	0.750	0.010	-0.360	-0.010
2020/01/31 14:26:09.2	0.750	0.020	-0.340	0.000
2020/01/31 14:26:09.3	0.740	0.030	-0.330	0.010
2020/01/31 14:26:09.4	0.740	0.050	-0.330	0.020
2020/01/31 14:26:09.5	0.730	0.060	-0.320	0.030
2020/01/31 14:26:09.6	0.730	0.080	-0.310	0.040
2020/01/31 14:26:09.7	0.710	0.090	-0.310	0.040
2020/01/31 14:26:09.8	0.710	0.110	-0.300	0.050
2020/01/31 14:26:09.9	0.700	0.130	-0.300	0.060
2020/01/31 14:26:10.0	0.690	0.140	-0.300	0.070
2020/01/31 14:26:10.1	0.680	0.160	-0.290	0.080
2020/01/31 14:26:10.2	0.670	0.180	-0.290	0.090
2020/01/31 14:26:10.3	0.660	0.190	-0.290	0.100
2020/01/31 14:26:10.4	0.640	0.210	-0.280	0.110
2020/01/31 14:26:10.5	0.630	0.220	-0.280	0.120
2020/01/31 14:26:10.6	0.610	0.230	-0.280	0.130
2020/01/31 14:26:10.7	0.580	0.240	-0.270	0.140
2020/01/31 14:26:10.8	0.560	0.250	-0.260	0.150
2020/01/31 14:26:10.9	0.550	0.260	-0.260	0.160
2020/01/31 14:26:11.0	0.530	0.270	-0.250	0.180
2020/01/31 14:26:11.1	0.510	0.270	-0.240	0.190
2020/01/31 14:26:11.2	0.490	0.270	-0.230	0.190
2020/01/31 14:26:11.3	0.470	0.270	-0.220	0.200
2020/01/31 14:26:11.4	0.450	0.270	-0.210	0.210
2020/01/31 14:26:11.5	0.430	0.270	-0.190	0.210
2020/01/31 14:26:11.6	0.410	0.260	-0.180	0.220
2020/01/31 14:26:11.7	0.390	0.250	-0.170	0.210
2020/01/31 14:26:11.8	0.370	0.240	-0.150	0.210
2020/01/31 14:26:11.9	0.350	0.230	-0.140	0.210
2020/01/31 14:26:12.0	0.330	0.210	-0.120	0.200
2020/01/31 14:26:12.1	0.320	0.200	-0.110	0.200
2020/01/31 14:26:12.2	0.300	0.180	-0.090	0.180
2020/01/31 14:26:12.3	0.280	0.160	-0.070	0.170
2020/01/31 14:26:12.4	0.270	0.140	-0.060	0.160
2020/01/31 14:26:12.5	0.250	0.120	-0.050	0.140
2020/01/31 14:26:12.6	0.240	0.100	-0.030	0.120
2020/01/31 14:26:12.7	0.240	0.070	-0.020	0.100
2020/01/31 14:26:12.8	0.230	0.050	-0.010	0.080
2020/01/31 14:26:12.9	0.220	0.030	0.000	0.060
2020/01/31 14:26:13.0	0.220	0.010	0.010	0.030
2020/01/31 14:26:13.1	0.210	-0.020	0.010	0.010
2020/01/31 14:26:13.2	0.210	-0.040	0.020	-0.020
2020/01/31 14:26:13.3	0.210	-0.060	0.020	-0.040
2020/01/31 14:26:13.4	0.210	-0.080	0.010	-0.070
2020/01/31 14:26:13.5	0.210	-0.090	0.010	-0.100
2020/01/31 14:26:13.6	0.220	-0.110	0.000	-0.130
2020/01/31 14:26:13.7	0.220	-0.120	-0.010	-0.170
2020/01/31 14:26:13.8	0.230	-0.140	-0.020	-0.200
2020/01/31 14:26:13.9	0.240	-0.150	-0.040	-0.230
2020/01/31 14:26:14.0	0.260	-0.160	-0.060	-0.260
2020/01/31 14:26:14.1	0.270	-0.170	-0.080	-0.300
2020/01/31 14:26:14.2	0.290	-0.170	-0.100	-0.330
2020/01/31 14:26:14.3	0.310	-0.180	-0.130	-0.360
2020/01/31 14:26:14.4	0.330	-0.180	-0.150	-0.390
2020/01/31 14:26:14.5	0.350	-0.180	-0.180	-0.430
2020/01/31 14:26:14.6	0.370	-0.180	-0.210	-0.460
2020/01/31 14:26:14.7	0.390	-0.180	-0.230	-0.500
2020/01/31 14:26:14.8	0.410	-0.170	-0.260	-0.530
2020/01/31 14:26:14.9	0.430	-0.170	-0.290	-0.560
2020/01/31 14:26:15.0	0.450	-0.160	-0.310	-0.590
2020/01/31 14:26:15.1	0.460	-0.160	-0.330	-0.620
2020/01/31 14:26:15.2	0.480	-0.150	-0.350	-0.640
2020/01/31 14:26:15.3	0.490	-0.150	-0.370	-0.670
2020/01/31 14:26:15.4	0.500	-0.140	-0.390	-0.680
2020/01/31 14:26:15.5	0.510	-0.140	-0.400	-0.700
2020/01/31 14:26:15.6	0.520	-0.130	-0.410	-0.710
2020/01/31 14:26:15.7	0.520	-0.130	-0.410	-0.720
2020/01/31 14:26:15.8	0.520	-0.120	-0.410	-0.720
2020/01/31 14:26:15.9	0.510	-0.120	-0.410	-0.720
2020/01/31 14:26:16.0	0.500	-0.120	-0.400	-0.700
2020/01/31 14:26:16.1	0.490	-0.110	-0.380	-0.690
2020/01/31 14:26:16.2	0.470	-0.110	-0.370	-0.670
2020/01/31 14:26:16.3	0.450	-0.110	-0.350	-0.640
2020/01/31 14:26:16.4	0.430	-0.110	-0.320	-0.610
2020/01/31 14:26:16.5	0.400	-0.110	-0.290	-0.570
2020/01/31 14:26:16.6	0.370	-0.110	-0.260	-0.530
2020/01/31 14:26:16.7	0.340	-0.110	-0.230	-0.490
2020/01/31 14:26:16.8	0.310	-0.110	-0.200	-0.450
2020/01/31 14:26:16.9	0.270	-0.120	-0.170	-0.400
2020/01/31 14:26:17.0	0.240	-0.120	-0.130	-0.350
2020/01/31 14:26:17.1	0.200	-0.120	-0.100	-0.300
2020/01/31 14:26:17.2	0.160	-0.120	-0.060	-0.250
2020/01/31 14:26:17.3	0.120	-0.130	-0.030	-0.200
2020/01/31 14:26:17.4	0.080	-0.130	0.000	-0.150
2020/01/31 14:26:17.5	0.050	-0.130	0.030	-0.090
2020/01/31 14:26:17.6	0.010	-0.120	0.060	-0.040
2020/01/31 14:26:17.7	359.970	-0.120	0.080	0.000
2020/01/31 14:26:17.8	359.930	-0.120	0.100	0.060
2020/01/31 14:26:17.9	359.900	-0.110	0.110	0.100
2020/01/31 14:26:18.0	359.870	-0.100	0.130	0.150
2020/01/31 14:26:18.1	359.840	-0.090	0.130	0.200
2020/01/31 14:26:18.2	359.810	-0.080	0.130	0.240
2020/01/31 14:26:18.3	359.780	-0.060	0.130	0.280
2020/01/31 14:26:18.4	359.760	-0.040	0.120	0.320
2020/01/31 14:26:18.5	359.730	-0.030	0.110	0.360
2020/01/31 14:26:18.6	359.710	-0.000	0.100	0.400
2020/01/31 14:26:18.7	359.680	0.020	0.080	0.420
2020/01/31 14:26:18.8	359.660	0.040	0.060	0.450
2020/01/31 14:26:18.9	359.650	0.070	0.030	0.480
2020/01/31 14:26:19.0	359.640	0.100	-0.000	0.500
2020/01/31 14:26:19.1	359.630	0.120	-0.040	0.520
2020/01/31 14:26:19.2	359.620	0.150	-0.070	0.540
2020/01/31 14:26:19.3	359.620	0.170	-0.110	0.550
2020/01/31 14:26:19.4	359.620	0.200	-0.160	0.560
2020/01/31 14:26:19.5	359.620	0.220	-0.200	0.560
2020/01/31 14:26:19.6	359.620	0.240	-0.240	0.550
2020/01/31 14:26:19.7	359.630	0.260	-0.290	0.540
2020/01/31 14:26:19.8	359.640	0.280	-0.340	0.530
2020/01/31 14:26:19.9	359.660	0.300	-0.390	0.510
2020/01/31 14:26:20.0	359.680	0.310	-0.430	0.480
2020/01/31 14:26:20.1	359.700	0.320	-0.480	0.450
2020/01/31 14:26:20.2	359.720	0.320	-0.530	0.410
2020/01/31 14:26:20.3	359.750	0.330	-0.570	0.360
2020/01/31 14:26:20.4	359.780	0.320	-0.620	0.320
2020/01/31 14:26:20.5	359.820	0.320	-0.660	0.270
2020/01/31 14:26:20.6	359.850	0.310	-0.700	0.210
2020/01/31 14:26:20.7	359.890	0.290	-0.740	0.150
2020/01/31 14:26:20.8	359.930	0.280	-0.770	0.090
2020/01/31 14:26:20.9	359.970	0.250	-0.800	0.020
2020/01/31 14:26:21.0	0.020	0.230	-0.830	-0.040
2020/01/31 14:26:21.1	0.060	0.200	-0.850	-0.100
2020/01/31 14:26:21.2	0.110	0.170	-0.870	-0.170
2020/01/31 14:26:21.3	0.150	0.130	-0.880	-0.230
2020/01/31 14:26:21.4	0.190	0.090	-0.890	-0.290
2020/01/31 14:26:21.5	0.240	0.050	-0.890	-0.360
2020/01/31 14:26:21.6	0.280	0.010	-0.880	-0.410
2020/01/31 14:26:21.7	0.320	-0.040	-0.870	-0.470
2020/01/31 14:26:21.8	0.360	-0.090	-0.850	-0.530
2020/01/31 14:26:21.9	0.390	-0.130	-0.820	-0.570
2020/01/31 14:26:22.0	0.420	-0.180	-0.790	-0.620
2020/01/31 14:26:22.1	0.450	-0.230	-0.750	-0.660
2020/01/31 14:26:22.2	0.470	-0.280	-0.700	-0.690
2020/01/31 14:26:22.3	0.490	-0.330	-0.650	-0.720
2020/01/31 14:26:22.4	0.500	-0.380	-0.600	-0.750
2020/01/31 14:26:22.5	0.510	-0.420	-0.540	-0.770
2020/01/31 14:26:22.6	0.520	-0.470	-0.480	-0.780
2020/01/31 14:26:22.7	0.510	-0.510	-0.420	-0.800
2020/01/31 14:26:22.8	0.510	-0.550	-0.350	-0.800
2020/01/31 14:26:22.9	0.500	-0.580	-0.290	-0.810
2020/01/31 14:26:23.0	0.490	-0.610	-0.220	-0.810
2020/01/31 14:26:23.1	0.470	-0.640	-0.160	-0.810
2020/01/31 14:26:23.2	0.450	-0.660	-0.100	-0.800
2020/01/31 14:26:23.3	0.430	-0.680	-0.040	-0.790
2020/01/31 14:26:23.4	0.410	-0.690	0.020	-0.780
2020/01/31 14:26:23.5	0.380	-0.690	0.070	-0.770
2020/01/31 14:26:23.6	0.360	-0.690	0.120	-0.760
2020/01/31 14:26:23.7	0.340	-0.690	0.160	-0.750
2020/01/31 14:26:23.8	0.310	-0.670	0.200	-0.740
2020/01/31 14:26:23.9	0.290	-0.650	0.230	-0.730
2020/01/31 14:26:24.0	0.260	-0.620	0.250	-0.710
2020/01/31 14:26:24.1	0.240	-0.590	0.260	-0.700
2020/01/31 14:26:24.2	0.220	-0.550	0.270	-0.680
2020/01/31 14:26:24.3	0.200	-0.500	0.270	-0.670
2020/01/31 14:26:24.4	0.180	-0.450	0.260	-0.650
2020/01/31 14:26:24.5	0.160	-0.390	0.250	-0.640
2020/01/31 14:26:24.6	0.150	-0.330	0.230	-0.620
2020/01/31 14:26:24.7	0.140	-0.260	0.200	-0.610
2020/01/31 14:26:24.8	0.130	-0.190	0.160	-0.590
2020/01/31 14:26:24.9	0.120	-0.110	0.120	-0.570
2020/01/31 14:26:25.0	0.120	-0.030	0.080	-0.560
2020/01/31 14:26:25.1	0.110	0.050	0.030	-0.540
2020/01/31 14:26:25.2	0.110	0.140	-0.020	-0.520
2020/01/31 14:26:25.3	0.110	0.220	-0.070	-0.490
2020/01/31 14:26:25.4	0.100	0.300	-0.130	-0.470
2020/01/31 14:26:25.5	0.100	0.380	-0.180	-0.450
2020/01/31 14:26:25.6	0.100	0.460	-0.230	-0.420
2020/01/31 14:26:25.7	0.090	0.540	-0.280	-0.400
2020/01/31 14:26:25.8	0.080	0.610	-0.330	-0.370
2020/01/31 14:26:25.9	0.080	0.680	-0.380	-0.340
2020/01/31 14:26:26.0	0.070	0.740	-0.420	-0.320
2020/01/31 14:26:26.1	0.060	0.790	-0.460	-0.290
2020/01/31 14:26:26.2	0.050	0.840	-0.490	-0.270
2020/01/31 14:26:26.3	0.040	0.880	-0.520	-0.240
2020/01/31 14:26:26.4	0.030	0.920	-0.540	-0.210
2020/01/31 14:26:26.5	0.020	0.940	-0.560	-0.190
2020/01/31 14:26:26.6	0.000	0.960	-0.570	-0.160
2020/01/31 14:26:26.7	359.980	0.970	-0.570	-0.140
2020/01/31 14:26:26.8	359.960	0.970	-0.570	-0.110
2020/01/31 14:26:26.9	359.940	0.960	-0.560	-0.080
2020/01/31 14:26:27.0	359.920	0.940	-0.550	-0.050
2020/01/31 14:26:27.1	359.890	0.920	-0.530	-0.020
2020/01/31 14:26:27.2	359.870	0.890	-0.510	0.000
2020/01/31 14:26:27.3	359.850	0.850	-0.480	0.030
2020/01/31 14:26:27.4	359.820	0.800	-0.450	0.060
2020/01/31 14:26:27.5	359.800	0.750	-0.410	0.090
2020/01/31 14:26:27.6	359.780	0.700	-0.370	0.120
2020/01/31 14:26:27.7	359.760	0.630	-0.330	0.150
2020/01/31 14:26:27.8	359.740	0.570	-0.290	0.170
2020/01/31 14:26:27.9	359.720	0.500	-0.240	0.190
2020/01/31 14:26:28.0	359.710	0.430	-0.200	0.210
2020/01/31 14:26:28.1	359.700	0.350	-0.160	0.230
2020/01/31 14:26:28.2	359.690	0.280	-0.110	0.240
2020/01/31 14:26:28.3	359.680	0.200	-0.070	0.250
2020/01/31 14:26:28.4	359.680	0.130	-0.040	0.260
2020/01/31 14:26:28.5	359.680	0.050	-0.000	0.250
2020/01/31 14:26:28.6	359.680	-0.020	0.030	0.250
2020/01/31 14:26:28.7	359.690	-0.090	0.050	0.230
2020/01/31 14:26:28.8	359.700	-0.160	0.080	0.210
2020/01/31 14:26:28.9	359.710	-0.230	0.100	0.180
2020/01/31 14:26:29.0	359.720	-0.290	0.110	0.160
2020/01/31 14:26:29.1	359.740	-0.340	0.120	0.120
2020/01/31 14:26:29.2	359.760	-0.400	0.130	0.080
2020/01/31 14:26:29.3	359.780	-0.440	0.140	0.040
2020/01/31 14:26:29.4	359.800	-0.490	0.140	-0.000
2020/01/31 14:26:29.5	359.820	-0.520	0.140	-0.050
2020/01/31 14:26:29.6	359.840	-0.550	0.130	-0.100
2020/01/31 14:26:29.7	359.860	-0.580	0.130	-0.150
2020/01/31 14:26:29.8	359.880	-0.600	0.120	-0.200
2020/01/31 14:26:29.9	359.900	-0.610	0.110	-0.260
2020/01/31 14:26:30.0	359.920	-0.620	0.100	-0.310
2020/01/31 14:26:30.1	359.940	-0.620	0.080	-0.360
2020/01/31 14:26:30.2	359.960	-0.620	0.060	-0.410
2020/01/31 14:26:30.3	359.980	-0.620	0.050	-0.460
2020/01/31 14:26:30.4	0.000	-0.610	0.030	-0.510
2020/01/31 14:26:30.5	0.020	-0.590	0.010	-0.560
2020/01/31 14:26:30.6	0.050	-0.570	-0.020	-0.610
2020/01/31 14:26:30.7	0.080	-0.550	-0.040	-0.660
2020/01/31 14:26:30.8	0.100	-0.530	-0.060	-0.710
2020/01/31 14:26:30.9	0.120	-0.500	-0.090	-0.760
2020/01/31 14:26:31.0	0.150	-0.470	-0.120	-0.810
2020/01/31 14:26:31.1	0.170	-0.440	-0.150	-0.850
2020/01/31 14:26:31.2	0.200	-0.400	-0.180	-0.900
2020/01/31 14:26:31.3	0.220	-0.370	-0.210	-0.940
2020/01/31 14:26:31.4	0.240	-0.330	-0.240	-0.990
2020/01/31 14:26:31.5	0.270	-0.300	-0.270	-1.030
2020/01/31 14:26:31.6	0.290	-0.260	-0.300	-1.070
2020/01/31 14:26:31.7	0.320	-0.230	-0.340	-1.110
2020/01/31 14:26:31.8	0.340	-0.190	-0.370	-1.140
2020/01/31 14:26:31.9	0.360	-0.160	-0.400	-1.180
2020/01/31 14:26:32.0	0.380	-0.130	-0.430	-1.210
2020/01/31 14:26:32.1	0.400	-0.100	-0.460	-1.240
2020/01/31 14:26:32.2	0.410	-0.070	-0.490	-1.260
2020/01/31 14:26:32.3	0.430	-0.050	-0.510	-1.280
2020/01/31 14:26:32.4	0.440	-0.020	-0.540	-1.300
2020/01/31 14:26:32.5	0.440	-0.000	-0.560	-1.310
2020/01/31 14:26:32.6	0.450	0.010	-0.570	-1.320
2020/01/31 14:26:32.7	0.440	0.030	-0.590	-1.330
2020/01/31 14:26:32.8	0.440	0.040	-0.600	-1.330
2020/01/31 14:26:32.9	0.440	0.040	-0.610	-1.330
2020/01/31 14:26:33.0	0.430	0.040	-0.610	-1.330
2020/01/31 14:26:33.1	0.420	0.040	-0.610	-1.320
2020/01/31 14:26:33.2	0.400	0.040	-0.600	-1.310
2020/01/31 14:26:33.3	0.390	0.030	-0.590	-1.300
2020/01/31 14:26:33.4	0.370	0.020	-0.580	-1.290
2020/01/31 14:26:33.5	0.350	0.010	-0.570	-1.270
2020/01/31 14:26:33.6	0.320	-0.000	-0.550	-1.250
2020/01/31 14:26:33.7	0.300	-0.020	-0.520	-1.230
2020/01/31 14:26:33.8	0.270	-0.040	-0.500	-1.200
2020/01/31 14:26:33.9	0.250	-0.060	-0.470	-1.170
2020/01/31 14:26:34.0	0.220	-0.070	-0.440	-1.140
2020/01/31 14:26:34.1	0.190	-0.090	-0.410	-1.110
2020/01/31 14:26:34.2	0.160	-0.110	-0.370	-1.080
2020/01/31 14:26:34.3	0.130	-0.130	-0.340	-1.040
2020/01/31 14:26:34.4	0.100	-0.150	-0.310	-1.000
2020/01/31 14:26:34.5	0.070	-0.170	-0.270	-0.960
2020/01/31 14:26:34.6	0.050	-0.180	-0.240	-0.930
2020/01/31 14:26:34.7	0.020	-0.200	-0.210	-0.890
2020/01/31 14:26:34.8	0.000	-0.210	-0.180	-0.850
2020/01/31 14:26:34.9	359.970	-0.220	-0.160	-0.810
2020/01/31 14:26:35.0	359.950	-0.220	-0.140	-0.770
2020/01/31 14:26:35.1	359.930	-0.220	-0.120	-0.720
2020/01/31 14:26:35.2	359.920	-0.220	-0.100	-0.680
2020/01/31 14:26:35.3	359.900	-0.220	-0.080	-0.640
2020/01/31 14:26:35.4	359.880	-0.210	-0.070	-0.600
2020/01/31 14:26:35.5	359.860	-0.200	-0.060	-0.550
2020/01/31 14:26:35.6	359.850	-0.190	-0.060	-0.510
2020/01/31 14:26:35.7	359.840	-0.170	-0.060	-0.470
2020/01/31 14:26:35.8	359.820	-0.150	-0.060	-0.420
2020/01/31 14:26:35.9	359.810	-0.130	-0.060	-0.370
2020/01/31 14:26:36.0	359.800	-0.100	-0.060	-0.330
2020/01/31 14:26:36.1	359.790	-0.070	-0.070	-0.280
2020/01/31 14:26:36.2	359.770	-0.040	-0.080	-0.230
2020/01/31 14:26:36.3	359.770	-0.000	-0.090	-0.180
2020/01/31 14:26:36.4	359.760	0.030	-0.110	-0.120
2020/01/31 14:26:36.5	359.750	0.070	-0.120	-0.070
2020/01/31 14:26:36.6	359.740	0.110	-0.140	-0.020
2020/01/31 14:26:36.7	359.720	0.150	-0.160	0.040
2020/01/31 14:26:36.8	359.720	0.190	-0.180	0.090
2020/01/31 14:26:36.9	359.720	0.240	-0.200	0.150
2020/01/31 14:26:37.0	359.720	0.280	-0.220	0.200
2020/01/31 14:26:37.1	359.720	0.320	-0.240	0.260
2020/01/31 14:26:37.2	359.730	0.360	-0.270	0.310
2020/01/31 14:26:37.3	359.730	0.400	-0.290	0.370
2020/01/31 14:26:37.4	359.740	0.440	-0.310	0.420
2020/01/31 14:26:37.5	359.750	0.470	-0.340	0.480
2020/01/31 14:26:37.6	359.760	0.510	-0.360	0.530
2020/01/31 14:26:37.7	359.760	0.540	-0.380	0.580
2020/01/31 14:26:37.8	359.770	0.570	-0.400	0.630
2020/01/31 14:26:37.9	359.790	0.590	-0.420	0.680
2020/01/31 14:26:38.0	359.800	0.610	-0.440	0.730
2020/01/31 14:26:38.1	359.810	0.630	-0.460	0.770
2020/01/31 14:26:38.2	359.830	0.640	-0.480	0.810
2020/01/31 14:26:38.3	359.850	0.650	-0.490	0.850
2020/01/31 14:26:38.4	359.860	0.650	-0.500	0.890
2020/01/31 14:26:38.5	359.880	0.650	-0.520	0.920
2020/01/31 14:26:38.6	359.900	0.640	-0.530	0.940
2020/01/31 14:26:38.7	359.920	0.630	-0.530	0.970
2020/01/31 14:26:38.8	359.940	0.620	-0.540	0.980
2020/01/31 14:26:38.9	359.960	0.600	-0.540	1.000
2020/01/31 14:26:39.0	359.980	0.580	-0.540	1.000
2020/01/31 14:26:39.1	0.010	0.550	-0.540	1.010
2020/01/31 14:26:39.2	0.030	0.520	-0.540	1.000
2020/01/31 14:26:39.3	0.060	0.480	-0.530	0.990
2020/01/31 14:26:39.4	0.090	0.440	-0.520	0.980
2020/01/31 14:26:39.5	0.110	0.400	-0.510	0.960
2020/01/31 14:26:39.6	0.140	0.360	-0.490	0.930
2020/01/31 14:26:39.7	0.190	0.310	-0.480	0.900
2020/01/31 14:26:39.8	0.220	0.260	-0.460	0.870
2020/01/31 14:26:39.9	0.240	0.210	-0.430	0.830
2020/01/31 14:26:40.0	0.270	0.160	-0.410	0.790
2020/01/31 14:26:40.1	0.300	0.110	-0.380	0.740
2020/01/31 14:26:40.2	0.330	0.050	-0.350	0.700
2020/01/31 14:26:40.3	0.350	-0.000	-0.310	0.650
2020/01/31 14:26:40.4	0.380	-0.060	-0.270	0.600
2020/01/31 14:26:40.5	0.400	-0.110	-0.230	0.540
2020/01/31 14:26:40.6	0.410	-0.170	-0.190	0.490
2020/01/31 14:26:40.7	0.440	-0.220	-0.140	0.430
2020/01/31 14:26:40.8	0.450	-0.270	-0.090	0.370
2020/01/31 14:26:40.9	0.460	-0.330	-0.040	0.320
2020/01/31 14:26:41.0	0.460	-0.380	0.010	0.270
2020/01/31 14:26:41.1	0.460	-0.430	0.060	0.220
2020/01/31 14:26:41.2	0.450	-0.470	0.110	0.170
2020/01/31 14:26:41.3	0.450	-0.520	0.160	0.120
2020/01/31 14:26:41.4	0.430	-0.560	0.210	0.070
2020/01/31 14:26:41.5	0.420	-0.600	0.260	0.030
2020/01/31 14:26:41.6	0.400	-0.630	0.300	-0.020
2020/01/31 14:26:41.7	0.380	-0.660	0.340	-0.070
2020/01/31 14:26:41.8	0.360	-0.690	0.380	-0.110
2020/01/31 14:26:41.9	0.330	-0.720	0.420	-0.160
2020/01/31 14:26:42.0	0.310	-0.730	0.450	-0.200
2020/01/31 14:26:42.1	0.280	-0.750	0.470	-0.240
2020/01/31 14:26:42.2	0.250	-0.760	0.490	-0.280
2020/01/31 14:26:42.3	0.220	-0.760	0.500	-0.320
2020/01/31 14:26:42.4	0.190	-0.760	0.500	-0.360
2020/01/31 14:26:42.5	0.170	-0.760	0.500	-0.400
2020/01/31 14:26:42.6	0.140	-0.750	0.500	-0.440
2020/01/31 14:26:42.7	0.100	-0.730	0.480	-0.480
2020/01/31 14:26:42.8	0.070	-0.710	0.460	-0.520
2020/01/31 14:26:42.9	0.050	-0.680	0.430	-0.550
2020/01/31 14:26:43.0	0.020	-0.650	0.400	-0.580
2020/01/31 14:26:43.1	0.000	-0.620	0.360	-0.610
2020/01/31 14:26:43.2	359.970	-0.570	0.320	-0.640
2020/01/31 14:26:43.3	359.950	-0.530	0.270	-0.660
2020/01/31 14:26:43.4	359.930	-0.480	0.220	-0.690
2020/01/31 14:26:43.5	359.910	-0.420	0.160	-0.700
2020/01/31 14:26:43.6	359.890	-0.360	0.100	-0.720
2020/01/31 14:26:43.7	359.870	-0.300	0.040	-0.740
2020/01/31 14:26:43.8	359.850	-0.240	-0.020	-0.750
2020/01/31 14:26:43.9	359.840	-0.170	-0.090	-0.760
2020/01/31 14:26:44.0	359.820	-0.100	-0.150	-0.770
2020/01/31 14:26:44.1	359.800	-0.030	-0.220	-0.770
2020/01/31 14:26:44.2	359.780	0.040	-0.280	-0.770
2020/01/31 14:26:44.3	359.770	0.110	-0.340	-0.770
2020/01/31 14:26:44.4	359.750	0.180	-0.400	-0.770
2020/01/31 14:26:44.5	359.740	0.250	-0.460	-0.760
2020/01/31 14:26:44.6	359.730	0.310	-0.520	-0.760
2020/01/31 14:26:44.7	359.730	0.380	-0.570	-0.740
2020/01/31 14:26:44.8	359.720	0.440	-0.620	-0.730
2020/01/31 14:26:44.9	359.710	0.490	-0.660	-0.720
2020/01/31 14:26:45.0	359.710	0.550	-0.700	-0.710
2020/01/31 14:26:45.1	359.710	0.600	-0.740	-0.700
2020/01/31 14:26:45.2	359.710	0.640	-0.780	-0.690
2020/01/31 14:26:45.3	359.710	0.680	-0.810	-0.680
2020/01/31 14:26:45.4	359.710	0.710	-0.830	-0.660
2020/01/31 14:26:45.5	359.720	0.740	-0.850	-0.650
2020/01/31 14:26:45.6	359.730	0.770	-0.870	-0.640
2020/01/31 14:26:45.7	359.730	0.780	-0.890	-0.620
2020/01/31 14:26:45.8	359.750	0.790	-0.900	-0.610
2020/01/31 14:26:45.9	359.770	0.800	-0.910	-0.590
2020/01/31 14:26:46.0	359.790	0.800	-0.910	-0.580
2020/01/31 14:26:46.1	359.810	0.790	-0.910	-0.560
2020/01/31 14:26:46.2	359.830	0.780	-0.900	-0.550
2020/01/31 14:26:46.3	359.860	0.770	-0.890	-0.530
2020/01/31 14:26:46.4	359.880	0.740	-0.880	-0.510
2020/01/31 14:26:46.5	359.910	0.720	-0.860	-0.500
2020/01/31 14:26:46.6	359.940	0.690	-0.840	-0.480
2020/01/31 14:26:46.7	359.970	0.650	-0.820	-0.460
2020/01/31 14:26:46.8	0.000	0.610	-0.790	-0.450
2020/01/31 14:26:46.9	0.030	0.560	-0.770	-0.430
2020/01/31 14:26:47.0	0.060	0.520	-0.740	-0.410
2020/01/31 14:26:47.1	0.090	0.470	-0.700	-0.400
2020/01/31 14:26:47.2	0.120	0.410	-0.670	-0.380
2020/01/31 14:26:47.3	0.150	0.360	-0.630	-0.370
2020/01/31 14:26:47.4	0.170	0.300	-0.590	-0.350
2020/01/31 14:26:47.5	0.190	0.240	-0.550	-0.340
2020/01/31 14:26:47.6	0.220	0.180	-0.510	-0.320
2020/01/31 14:26:47.7	0.260	0.110	-0.470	-0.320
2020/01/31 14:26:47.8	0.280	0.050	-0.430	-0.300
2020/01/31 14:26:47.9	0.290	-0.010	-0.380	-0.290
2020/01/31 14:26:48.0	0.310	-0.070	-0.340	-0.280
2020/01/31 14:26:48.1	0.320	-0.130	-0.300	-0.270
2020/01/31 14:26:48.2	0.340	-0.190	-0.250	-0.260
2020/01/31 14:26:48.3	0.350	-0.240	-0.210	-0.260
2020/01/31 14:26:48.4	0.370	-0.290	-0.170	-0.250
2020/01/31 14:26:48.5	0.380	-0.340	-0.130	-0.240
2020/01/31 14:26:48.6	0.390	-0.390	-0.090	-0.240
2020/01/31 14:26:48.7	0.400	-0.430	-0.050	-0.230
2020/01/31 14:26:48.8	0.420	-0.470	-0.020	-0.230
2020/01/31 14:26:48.9	0.430	-0.500	0.010	-0.230
2020/01/31 14:26:49.0	0.450	-0.530	0.030	-0.230
2020/01/31 14:26:49.1	0.470	-0.560	0.050	-0.230
2020/01/31 14:26:49.2	0.490	-0.580	0.070	-0.230
2020/01/31 14:26:49.3	0.510	-0.590	0.080	-0.230
2020/01/31 14:26:49.4	0.530	-0.600	0.090	-0.230
2020/01/31 14:26:49.5	0.550	-0.610	0.100	-0.240
2020/01/31 14:26:49.6	0.560	-0.610	0.100	-0.240
2020/01/31 14:26:49.7	0.580	-0.610	0.100	-0.240
2020/01/31 14:26:49.8	0.600	-0.600	0.100	-0.240
2020/01/31 14:26:49.9	0.610	-0.580	0.090	-0.240
2020/01/31 14:26:50.0	0.620	-0.570	0.090	-0.230
2020/01/31 14:26:50.1	0.630	-0.550	0.080	-0.230
2020/01/31 14:26:50.2	0.640	-0.530	0.070	-0.220
2020/01/31 14:26:50.3	0.650	-0.500	0.060	-0.220
2020/01/31 14:26:50.4	0.650	-0.470	0.050	-0.210
2020/01/31 14:26:50.5	0.660	-0.440	0.040	-0.210
2020/01/31 14:26:50.6	0.660	-0.410	0.030	-0.200
2020/01/31 14:26:50.7	0.650	-0.380	0.020	-0.190
2020/01/31 14:26:50.8	0.650	-0.350	0.020	-0.180
2020/01/31 14:26:50.9	0.640	-0.310	0.010	-0.170
2020/01/31 14:26:51.0	0.640	-0.280	0.000	-0.160
2020/01/31 14:26:51.1	0.630	-0.250	-0.000	-0.150
2020/01/31 14:26:51.2	0.630	-0.210	-0.000	-0.140
2020/01/31 14:26:51.3	0.620	-0.180	-0.010	-0.130
2020/01/31 14:26:51.4	0.610	-0.150	-0.010	-0.120
2020/01/31 14:26:51.5	0.610	-0.120	-0.010	-0.100
2020/01/31 14:26:51.6	0.600	-0.090	-0.010	-0.090
2020/01/31 14:26:51.7	0.600	-0.070	-0.010	-0.080
2020/01/31 14:26:51.8	0.590	-0.040	-0.010	-0.060
2020/01/31 14:26:51.9	0.590	-0.020	-0.010	-0.050
2020/01/31 14:26:52.0	0.580	0.010	-0.010	-0.030
2020/01/31 14:26:52.1	0.580	0.030	-0.010	-0.020
2020/01/31 14:26:52.2	0.570	0.050	-0.010	-0.000
2020/01/31 14:26:52.3	0.570	0.070	-0.010	0.020
2020/01/31 14:26:52.4	0.560	0.080	-0.010	0.030
2020/01/31 14:26:52.5	0.560	0.100	-0.010	0.050
2020/01/31 14:26:52.6	0.550	0.110	-0.020	0.070
2020/01/31 14:26:52.7	0.540	0.130	-0.020	0.090
2020/01/31 14:26:52.8	0.530	0.140	-0.030	0.120
2020/01/31 14:26:52.9	0.520	0.150	-0.040	0.140
2020/01/31 14:26:53.0	0.500	0.160	-0.040	0.160
2020/01/31 14:26:53.1	0.490	0.170	-0.050	0.190
2020/01/31 14:26:53.2	0.470	0.170	-0.060	0.210
2020/01/31 14:26:53.3	0.450	0.180	-0.070	0.240
2020/01/31 14:26:53.4	0.430	0.190	-0.080	0.260
2020/01/31 14:26:53.5	0.410	0.190	-0.090	0.290
2020/01/31 14:26:53.6	0.380	0.200	-0.100	0.310
2020/01/31 14:26:53.7	0.370	0.200	-0.110	0.330
2020/01/31 14:26:53.8	0.340	0.200	-0.120	0.360
2020/01/31 14:26:53.9	0.320	0.210	-0.130	0.380
2020/01/31 14:26:54.0	0.290	0.210	-0.150	0.400
2020/01/31 14:26:54.1	0.260	0.210	-0.160	0.410
2020/01/31 14:26:54.2	0.240	0.220	-0.180	0.430
2020/01/31 14:26:54.3	0.210	0.220	-0.200	0.440
2020/01/31 14:26:54.4	0.190	0.220	-0.220	0.450
2020/01/31 14:26:54.5	0.170	0.230	-0.240	0.450
2020/01/31 14:26:54.6	0.150	0.230	-0.260	0.450
2020/01/31 14:26:54.7	0.140	0.230	-0.280	0.440
2020/01/31 14:26:54.8	0.120	0.240	-0.310	0.430
2020/01/31 14:26:54.9	0.110	0.240	-0.330	0.420
2020/01/31 14:26:55.0	0.100	0.250	-0.360	0.400
2020/01/31 14:26:55.1	0.100	0.250	-0.390	0.380
2020/01/31 14:26:55.2	0.100	0.260	-0.420	0.350
2020/01/31 14:26:55.3	0.100	0.260	-0.450	0.310
2020/01/31 14:26:55.4	0.110	0.270	-0.480	0.280
2020/01/31 14:26:55.5	0.120	0.280	-0.520	0.240
2020/01/31 14:26:55.6	0.130	0.280	-0.550	0.190
2020/01/31 14:26:55.7	0.140	0.290	-0.590	0.150
2020/01/31 14:26:55.8	0.160	0.300	-0.620	0.100
2020/01/31 14:26:55.9	0.180	0.310	-0.660	0.050
2020/01/31 14:26:56.0	0.210	0.320	-0.690	-0.010
2020/01/31 14:26:56.1	0.230	0.330	-0.720	-0.060
2020/01/31 14:26:56.2	0.260	0.340	-0.750	-0.110
2020/01/31 14:26:56.3	0.300	0.350	-0.780	-0.170
2020/01/31 14:26:56.4	0.330	0.360	-0.800	-0.220
2020/01/31 14:26:56.5	0.370	0.370	-0.830	-0.280
2020/01/31 14:26:56.6	0.410	0.380	-0.840	-0.330
2020/01/31 14:26:56.7	0.450	0.390	-0.850	-0.390
2020/01/31 14:26:56.8	0.500	0.400	-0.860	-0.440
2020/01/31 14:26:56.9	0.540	0.410	-0.870	-0.490
2020/01/31 14:26:57.0	0.580	0.420	-0.870	-0.530
2020/01/31 14:26:57.1	0.620	0.420	-0.870	-0.580
2020/01/31 14:26:57.2	0.670	0.430	-0.860	-0.620
2020/01/31 14:26:57.3	0.710	0.430	-0.840	-0.650
2020/01/31 14:26:57.4	0.750	0.430	-0.820	-0.690
2020/01/31 14:26:57.5	0.800	0.430	-0.790	-0.720
2020/01/31 14:26:57.6	0.840	0.430	-0.760	-0.750
2020/01/31 14:26:57.7	0.870	0.420	-0.720	-0.770
2020/01/31 14:26:57.8	0.910	0.410	-0.670	-0.800
2020/01/31 14:26:57.9	0.940	0.400	-0.620	-0.810
2020/01/31 14:26:58.0	0.970	0.380	-0.560	-0.830
2020/01/31 14:26:58.1	1.000	0.360	-0.500	-0.840
2020/01/31 14:26:58.2	1.020	0.340	-0.430	-0.840
2020/01/31 14:26:58.3	1.040	0.320	-0.360	-0.850
2020/01/31 14:26:58.4	1.050	0.290	-0.290	-0.840
2020/01/31 14:26:58.5	1.060	0.260	-0.220	-0.840
2020/01/31 14:26:58.6	1.070	0.230	-0.140	-0.830
2020/01/31 14:26:58.7	1.060	0.190	-0.060	-0.820
2020/01/31 14:26:58.8	1.060	0.150	0.020	-0.800
2020/01/31 14:26:58.9	1.060	0.110	0.090	-0.780
2020/01/31 14:26:59.0	1.050	0.070	0.170	-0.760
2020/01/31 14:26:59.1	1.040	0.030	0.240	-0.740
2020/01/31 14:26:59.2	1.030	-0.020	0.300	-0.710
2020/01/31 14:26:59.3	1.020	-0.060	0.370	-0.680
2020/01/31 14:26:59.4	1.010	-0.110	0.420	-0.660
2020/01/31 14:26:59.5	0.990	-0.160	0.470	-0.630
2020/01/31 14:26:59.6	0.980	-0.210	0.520	-0.600
2020/01/31 14:26:59.7	0.960	-0.250	0.550	-0.570
2020/01/31 14:26:59.8	0.940	-0.300	0.580	-0.540
2020/01/31 14:26:59.9	0.930	-0.350	0.600	-0.510
2020/01/31 14:27:00.0	0.920	-0.390	0.610	-0.480
2020/01/31 14:27:00.1	0.910	-0.430	0.610	-0.460
2020/01/31 14:27:00.2	0.900	-0.470	0.600	-0.440
2020/01/31 14:27:00.3	0.900	-0.510	0.580	-0.420
2020/01/31 14:27:00.4	0.890	-0.540	0.560	-0.400
2020/01/31 14:27:00.5	0.890	-0.580	0.520	-0.390
2020/01/31 14:27:00.6	0.880	-0.610	0.480	-0.370
2020/01/31 14:27:00.7	0.890	-0.630	0.430	-0.370
2020/01/31 14:27:00.8	0.890	-0.650	0.370	-0.360
2020/01/31 14:27:00.9	0.880	-0.670	0.310	-0.350
2020/01/31 14:27:01.0	0.880	-0.680	0.240	-0.350
2020/01/31 14:27:01.1	0.880	-0.690	0.170	-0.340
2020/01/31 14:27:01.2	0.880	-0.700	0.090	-0.340
2020/01/31 14:27:01.3	0.870	-0.700	0.010	-0.330
2020/01/31 14:27:01.4	0.870	-0.690	-0.060	-0.320
2020/01/31 14:27:01.5	0.860	-0.680	-0.140	-0.320
2020/01/31 14:27:01.6	0.850	-0.670	-0.220	-0.310
2020/01/31 14:27:01.7	0.840	-0.660	-0.290	-0.300
2020/01/31 14:27:01.8	0.830	-0.640	-0.360	-0.290
2020/01/31 14:27:01.9	0.810	-0.610	-0.430	-0.280
2020/01/31 14:27:02.0	0.800	-0.580	-0.490	-0.260
2020/01/31 14:27:02.1	0.790	-0.550	-0.550	-0.250
2020/01/31 14:27:02.2	0.770	-0.520	-0.600	-0.230
2020/01/31 14:27:02.3	0.760	-0.480	-0.640	-0.210
2020/01/31 14:27:02.4	0.740	-0.440	-0.680	-0.190
2020/01/31 14:27:02.5	0.730	-0.400	-0.710	-0.170
2020/01/31 14:27:02.6	0.710	-0.360	-0.740	-0.150
2020/01/31 14:27:02.7	0.700	-0.320	-0.750	-0.130
2020/01/31 14:27:02.8	0.690	-0.270	-0.770	-0.110
2020/01/31 14:27:02.9	0.680	-0.220	-0.780	-0.090
2020/01/31 14:27:03.0	0.670	-0.180	-0.780	-0.070
2020/01/31 14:27:03.1	0.660	-0.130	-0.780	-0.050
2020/01/31 14:27:03.2	0.660	-0.090	-0.780	-0.040
2020/01/31 14:27:03.3	0.660	-0.040	-0.770	-0.020
2020/01/31 14:27:03.4	0.660	0.000	-0.770	-0.010
2020/01/31 14:27:03.5	0.660	0.050	-0.760	0.000
2020/01/31 14:27:03.6	0.660	0.090	-0.750	0.010
2020/01/31 14:27:03.7	0.680	0.130	-0.730	0.020
2020/01/31 14:27:03.8	0.690	0.160	-0.720	0.030
2020/01/31 14:27:03.9	0.690	0.200	-0.710	0.040
2020/01/31 14:27:04.0	0.700	0.230	-0.690	0.040
2020/01/31 14:27:04.1	0.710	0.260	-0.670	0.040
2020/01/31 14:27:04.2	0.730	0.280	-0.660	0.040
2020/01/31 14:27:04.3	0.740	0.310	-0.640	0.040
2020/01/31 14:27:04.4	0.750	0.320	-0.620	0.030
2020/01/31 14:27:04.5	0.760	0.340	-0.600	0.020
2020/01/31 14:27:04.6	0.780	0.350	-0.580	0.010
2020/01/31 14:27:04.7	0.800	0.360	-0.570	-0.000
2020/01/31 14:27:04.8	0.810	0.360	-0.540	-0.010
2020/01/31 14:27:04.9	0.820	0.360	-0.520	-0.030
2020/01/31 14:27:05.0	0.830	0.360	-0.500	-0.040
2020/01/31 14:27:05.1	0.840	0.360	-0.470	-0.060
2020/01/31 14:27:05.2	0.850	0.350	-0.450	-0.070
2020/01/31 14:27:05.3	0.860	0.340	-0.420	-0.090
2020/01/31 14:27:05.4	0.870	0.320	-0.390	-0.100
2020/01/31 14:27:05.5	0.880	0.310	-0.360	-0.120
2020/01/31 14:27:05.6	0.890	0.290	-0.330	-0.140
2020/01/31 14:27:05.7	0.890	0.270	-0.290	-0.150
2020/01/31 14:27:05.8	0.900	0.250	-0.260	-0.170
2020/01/31 14:27:05.9	0.900	0.230	-0.220	-0.180
2020/01/31 14:27:06.0	0.910	0.210	-0.180	-0.190
2020/01/31 14:27:06.1	0.910	0.180	-0.140	-0.200
2020/01/31 14:27:06.2	0.910	0.160	-0.100	-0.210
2020/01/31 14:27:06.3	0.920	0.140	-0.060	-0.210
2020/01/31 14:27:06.4	0.920	0.120	-0.020	-0.210
2020/01/31 14:27:06.5	0.920	0.100	0.020	-0.210
2020/01/31 14:27:06.6	0.920	0.080	0.060	-0.210
2020/01/31 14:27:06.7	0.920	0.060	0.100	-0.210
2020/01/31 14:27:06.8	0.920	0.040	0.130	-0.200
2020/01/31 14:27:06.9	0.920	0.030	0.170	-0.190
2020/01/31 14:27:07.0	0.920	0.020	0.200	-0.180
2020/01/31 14:27:07.1	0.920	0.010	0.240	-0.170
2020/01/31 14:27:07.2	0.920	-0.000	0.270	-0.150
2020/01/31 14:27:07.3	0.910	-0.010	0.290	-0.140
2020/01/31 14:27:07.4	0.910	-0.010	0.310	-0.120
2020/01/31 14:27:07.5	0.910	-0.010	0.330	-0.100
2020/01/31 14:27:07.6	0.910	-0.010	0.350	-0.080
2020/01/31 14:27:07.7	0.900	-0.000	0.360	-0.060
2020/01/31 14:27:07.8	0.910	0.000	0.370	-0.040
2020/01/31 14:27:07.9	0.910	0.010	0.370	-0.020
2020/01/31 14:27:08.0	0.910	0.020	0.360	0.000
2020/01/31 14:27:08.1	0.910	0.040	0.350	0.030
2020/01/31 14:27:08.2	0.910	0.050	0.340	0.050
2020/01/31 14:27:08.3	0.910	0.070	0.320	0.070
2020/01/31 14:27:08.4	0.910	0.090	0.290	0.090
2020/01/31 14:27:08.5	0.920	0.110	0.270	0.110
2020/01/31 14:27:08.6	0.920	0.130	0.230	0.140
2020/01/31 14:27:08.7	0.910	0.150	0.200	0.160
2020/01/31 14:27:08.8	0.910	0.170	0.160	0.180
2020/01/31 14:27:08.9	0.910	0.200	0.120	0.200
2020/01/31 14:27:09.0	0.910	0.220	0.070	0.220
2020/01/31 14:27:09.1	0.910	0.240	0.030	0.240
2020/01/31 14:27:09.2	0.900	0.270	-0.020	0.260
2020/01/31 14:27:09.3	0.900	0.290	-0.070	0.280
2020/01/31 14:27:09.4	0.900	0.310	-0.120	0.300
2020/01/31 14:27:09.5	0.900	0.330	-0.160	0.320
2020/01/31 14:27:09.6	0.890	0.350	-0.210	0.340
2020/01/31 14:27:09.7	0.890	0.370	-0.260	0.350
2020/01/31 14:27:09.8	0.890	0.380	-0.310	0.370
2020/01/31 14:27:09.9	0.890	0.400	-0.360	0.380
2020/01/31 14:27:10.0	0.880	0.410	-0.410	0.390
2020/01/31 14:27:10.1	0.880	0.420	-0.450	0.400
2020/01/31 14:27:10.2	0.880	0.420	-0.500	0.400
2020/01/31 14:27:10.3	0.880	0.430	-0.540	0.410
2020/01/31 14:27:10.4	0.890	0.430	-0.580	0.410
2020/01/31 14:27:10.5	0.890	0.430	-0.620	0.400
2020/01/31 14:27:10.6	0.900	0.430	-0.650	0.400
2020/01/31 14:27:10.7	0.920	0.420	-0.690	0.390
2020/01/31 14:27:10.8	0.930	0.410	-0.720	0.370
2020/01/31 14:27:10.9	0.940	0.400	-0.740	0.360
2020/01/31 14:27:11.0	0.950	0.390	-0.770	0.340
2020/01/31 14:27:11.1	0.960	0.370	-0.790	0.310
2020/01/31 14:27:11.2	0.970	0.350	-0.810	0.280
2020/01/31 14:27:11.3	0.990	0.330	-0.820	0.250
2020/01/31 14:27:11.4	1.000	0.310	-0.830	0.220
2020/01/31 14:27:11.5	1.020	0.280	-0.840	0.180
2020/01/31 14:27:11.6	1.030	0.250	-0.840	0.140
2020/01/31 14:27:11.7	1.060	0.220	-0.840	0.090
2020/01/31 14:27:11.8	1.070	0.190	-0.830	0.050
2020/01/31 14:27:11.9	1.090	0.160	-0.820	0.000
2020/01/31 14:27:12.0	1.110	0.120	-0.810	-0.050
2020/01/31 14:27:12.1	1.130	0.090	-0.790	-0.110
2020/01/31 14:27:12.2	1.140	0.050	-0.770	-0.160
2020/01/31 14:27:12.3	1.160	0.010	-0.750	-0.220
2020/01/31 14:27:12.4	1.180	-0.020	-0.720	-0.280
2020/01/31 14:27:12.5	1.200	-0.060	-0.690	-0.340
2020/01/31 14:27:12.6	1.220	-0.100	-0.660	-0.410
2020/01/31 14:27:12.7	1.240	-0.140	-0.630	-0.470
2020/01/31 14:27:12.8	1.260	-0.180	-0.590	-0.540
2020/01/31 14:27:12.9	1.290	-0.220	-0.560	-0.610
2020/01/31 14:27:13.0	1.310	-0.250	-0.520	-0.670
2020/01/31 14:27:13.1	1.330	-0.290	-0.480	-0.740
2020/01/31 14:27:13.2	1.350	-0.320	-0.440	-0.810
2020/01/31 14:27:13.3	1.380	-0.360	-0.390	-0.870
2020/01/31 14:27:13.4	1.400	-0.390	-0.350	-0.940
2020/01/31 14:27:13.5	1.420	-0.420	-0.300	-1.000
2020/01/31 14:27:13.6	1.440	-0.450	-0.260	-1.060
2020/01/31 14:27:13.7	1.460	-0.470	-0.210	-1.120
2020/01/31 14:27:13.8	1.480	-0.500	-0.160	-1.180
2020/01/31 14:27:13.9	1.500	-0.520	-0.120	-1.220
2020/01/31 14:27:14.0	1.510	-0.540	-0.070	-1.270
2020/01/31 14:27:14.1	1.520	-0.560	-0.020	-1.310
2020/01/31 14:27:14.2	1.520	-0.580	0.030	-1.340
2020/01/31 14:27:14.3	1.530	-0.590	0.080	-1.360
2020/01/31 14:27:14.4	1.520	-0.600	0.130	-1.380
2020/01/31 14:27:14.5	1.520	-0.610	0.180	-1.390
2020/01/31 14:27:14.6	1.500	-0.620	0.230	-1.390
2020/01/31 14:27:14.7	1.470	-0.630	0.280	-1.390
2020/01/31 14:27:14.8	1.450	-0.630	0.330	-1.380
2020/01/31 14:27:14.9	1.430	-0.630	0.370	-1.360
2020/01/31 14:27:15.0	1.400	-0.630	0.410	-1.330
2020/01/31 14:27:15.1	1.370	-0.630	0.450	-1.310
2020/01/31 14:27:15.2	1.340	-0.620	0.480	-1.270
2020/01/31 14:27:15.3	1.300	-0.610	0.510	-1.230
2020/01/31 14:27:15.4	1.270	-0.600	0.530	-1.190
2020/01/31 14:27:15.5	1.230	-0.590	0.540	-1.140
2020/01/31 14:27:15.6	1.200	-0.580	0.550	-1.100
2020/01/31 14:27:15.7	1.160	-0.570	0.550	-1.050
2020/01/31 14:27:15.8	1.120	-0.550	0.540	-1.000
2020/01/31 14:27:15.9	1.090	-0.530	0.520	-0.960
2020/01/31 14:27:16.0	1.060	-0.510	0.490	-0.910
2020/01/31 14:27:16.1	1.040	-0.480	0.460	-0.870
2020/01/31 14:27:16.2	1.010	-0.460	0.420	-0.820
2020/01/31 14:27:16.3	0.990	-0.430	0.370	-0.780
2020/01/31 14:27:16.4	0.970	-0.400	0.310	-0.740
2020/01/31 14:27:16.5	0.960	-0.370	0.240	-0.710
2020/01/31 14:27:16.6	0.950	-0.330	0.170	-0.670
2020/01/31 14:27:16.7	0.940	-0.300	0.090	-0.640
2020/01/31 14:27:16.8	0.940	-0.260	0.010	-0.610
2020/01/31 14:27:16.9	0.930	-0.220	-0.080	-0.580
2020/01/31 14:27:17.0	0.940	-0.180	-0.170	-0.560
2020/01/31 14:27:17.1	0.940	-0.140	-0.260	-0.530
2020/01/31 14:27:17.2	0.950	-0.100	-0.350	-0.510
2020/01/31 14:27:17.3	0.950	-0.060	-0.440	-0.480
2020/01/31 14:27:17.4	0.960	-0.020	-0.530	-0.460
2020/01/31 14:27:17.5	0.970	0.020	-0.610	-0.430
2020/01/31 14:27:17.6	0.990	0.070	-0.690	-0.400
2020/01/31 14:27:17.7	0.990	0.110	-0.760	-0.380
2020/01/31 14:27:17.8	1.000	0.150	-0.820	-0.350
2020/01/31 14:27:17.9	1.010	0.190	-0.880	-0.320
2020/01/31 14:27:18.0	1.020	0.220	-0.930	-0.290
2020/01/31 14:27:18.1	1.020	0.260	-0.960	-0.250
2020/01/31 14:27:18.2	1.030	0.300	-0.990	-0.210
2020/01/31 14:27:18.3	1.040	0.330	-1.010	-0.170
2020/01/31 14:27:18.4	1.040	0.360	-1.020	-0.130
2020/01/31 14:27:18.5	1.050	0.390	-1.020	-0.090
2020/01/31 14:27:18.6	1.050	0.420	-1.010	-0.050
2020/01/31 14:27:18.7	1.060	0.440	-0.990	0.000
2020/01/31 14:27:18.8	1.060	0.460	-0.970	0.050
2020/01/31 14:27:18.9	1.060	0.480	-0.930	0.090
2020/01/31 14:27:19.0	1.060	0.500	-0.890	0.140
2020/01/31 14:27:19.1	1.070	0.510	-0.850	0.180
2020/01/31 14:27:19.2	1.070	0.520	-0.800	0.230
2020/01/31 14:27:19.3	1.070	0.520	-0.740	0.270
2020/01/31 14:27:19.4	1.070	0.530	-0.690	0.310
2020/01/31 14:27:19.5	1.070	0.530	-0.630	0.350
2020/01/31 14:27:19.6	1.080	0.530	-0.570	0.390
2020/01/31 14:27:19.7	1.080	0.530	-0.510	0.430
2020/01/31 14:27:19.8	1.090	0.520	-0.460	0.460
2020/01/31 14:27:19.9	1.100	0.510	-0.400	0.490
2020/01/31 14:27:20.0	1.110	0.500	-0.350	0.520
2020/01/31 14:27:20.1	1.130	0.490	-0.300	0.540
2020/01/31 14:27:20.2	1.140	0.480	-0.250	0.560
2020/01/31 14:27:20.3	1.150	0.460	-0.210	0.580
2020/01/31 14:27:20.4	1.170	0.440	-0.170	0.590
2020/01/31 14:27:20.5	1.190	0.430	-0.140	0.610
2020/01/31 14:27:20.6	1.200	0.410	-0.120	0.610
2020/01/31 14:27:20.7	1.220	0.390	-0.100	0.620
2020/01/31 14:27:20.8	1.230	0.370	-0.080	0.620
2020/01/31 14:27:20.9	1.250	0.350	-0.070	0.620
2020/01/31 14:27:21.0	1.260	0.330	-0.070	0.610
2020/01/31 14:27:21.1	1.280	0.310	-0.070	0.600
2020/01/31 14:27:21.2	1.290	0.290	-0.080	0.590
2020/01/31 14:27:21.3	1.300	0.270	-0.090	0.570
2020/01/31 14:27:21.4	1.320	0.250	-0.110	0.550
2020/01/31 14:27:21.5	1.330	0.230	-0.130	0.530
2020/01/31 14:27:21.6	1.340	0.210	-0.160	0.500
2020/01/31 14:27:21.7	1.350	0.200	-0.180	0.470
2020/01/31 14:27:21.8	1.360	0.180	-0.210	0.440
2020/01/31 14:27:21.9	1.370	0.170	-0.240	0.410
2020/01/31 14:27:22.0	1.380	0.150	-0.270	0.370
2020/01/31 14:27:22.1	1.380	0.140	-0.300	0.340
2020/01/31 14:27:22.2	1.390	0.130	-0.330	0.310
2020/01/31 14:27:22.3	1.390	0.120	-0.350	0.270
2020/01/31 14:27:22.4	1.390	0.120	-0.370	0.240
2020/01/31 14:27:22.5	1.390	0.110	-0.390	0.210
2020/01/31 14:27:22.6	1.390	0.100	-0.410	0.180
2020/01/31 14:27:22.7	1.390	0.100	-0.410	0.150
2020/01/31 14:27:22.8	1.390	0.090	-0.420	0.120
2020/01/31 14:27:22.9	1.380	0.080	-0.420	0.090
2020/01/31 14:27:23.0	1.370	0.080	-0.420	0.060
2020/01/31 14:27:23.1	1.360	0.070	-0.410	0.040
2020/01/31 14:27:23.2	1.350	0.060	-0.390	0.010
2020/01/31 14:27:23.3	1.340	0.050	-0.370	-0.010
2020/01/31 14:27:23.4	1.330	0.040	-0.350	-0.030
2020/01/31 14:27:23.5	1.320	0.030	-0.320	-0.050
2020/01/31 14:27:23.6	1.310	0.020	-0.280	-0.070
2020/01/31 14:27:23.7	1.290	0.010	-0.240	-0.090
2020/01/31 14:27:23.8	1.280	-0.010	-0.200	-0.110
2020/01/31 14:27:23.9	1.270	-0.030	-0.160	-0.130
2020/01/31 14:27:24.0	1.260	-0.050	-0.110	-0.150
2020/01/31 14:27:24.1	1.250	-0.070	-0.060	-0.160
2020/01/31 14:27:24.2	1.240	-0.090	-0.010	-0.180
2020/01/31 14:27:24.3	1.230	-0.120	0.040	-0.200
2020/01/31 14:27:24.4	1.220	-0.140	0.090	-0.220
2020/01/31 14:27:24.5	1.220	-0.170	0.140	-0.240
2020/01/31 14:27:24.6	1.220	-0.200	0.180	-0.260
2020/01/31 14:27:24.7	1.200	-0.220	0.230	-0.280
2020/01/31 14:27:24.8	1.200	-0.250	0.270	-0.300
2020/01/31 14:27:24.9	1.200	-0.280	0.310	-0.320
2020/01/31 14:27:25.0	1.210	-0.310	0.350	-0.350
2020/01/31 14:27:25.1	1.210	-0.330	0.380	-0.370
2020/01/31 14:27:25.2	1.220	-0.360	0.400	-0.390
2020/01/31 14:27:25.3	1.220	-0.380	0.430	-0.410
2020/01/31 14:27:25.4	1.230	-0.410	0.450	-0.430
2020/01/31 14:27:25.5	1.240	-0.430	0.460	-0.450
2020/01/31 14:27:25.6	1.240	-0.450	0.470	-0.470
2020/01/31 14:27:25.7	1.250	-0.460	0.480	-0.490
2020/01/31 14:27:25.8	1.250	-0.480	0.480	-0.500
2020/01/31 14:27:25.9	1.250	-0.490	0.480	-0.510
2020/01/31 14:27:26.0	1.240	-0.490	0.470	-0.520
2020/01/31 14:27:26.1	1.240	-0.500	0.470	-0.520
2020/01/31 14:27:26.2	1.230	-0.500	0.460	-0.520
2020/01/31 14:27:26.3	1.220	-0.500	0.440	-0.520
2020/01/31 14:27:26.4	1.200	-0.490	0.430	-0.520
2020/01/31 14:27:26.5	1.190	-0.480	0.410	-0.510
2020/01/31 14:27:26.6	1.170	-0.470	0.390	-0.510
2020/01/31 14:27:26.7	1.160	-0.460	0.360	-0.500
2020/01/31 14:27:26.8	1.140	-0.440	0.330	-0.480
2020/01/31 14:27:26.9	1.110	-0.410	0.300	-0.470
2020/01/31 14:27:27.0	1.090	-0.390	0.260	-0.460
2020/01/31 14:27:27.1	1.070	-0.360	0.220	-0.440
2020/01/31 14:27:27.2	1.040	-0.320	0.180	-0.420
2020/01/31 14:27:27.3	1.020	-0.290	0.130	-0.410
2020/01/31 14:27:27.4	0.990	-0.250	0.080	-0.390
2020/01/31 14:27:27.5	0.970	-0.210	0.020	-0.380
2020/01/31 14:27:27.6	0.940	-0.170	-0.040	-0.370
2020/01/31 14:27:27.7	0.920	-0.130	-0.100	-0.360
2020/01/31 14:27:27.8	0.900	-0.080	-0.170	-0.350
2020/01/31 14:27:27.9	0.880	-0.040	-0.240	-0.350
2020/01/31 14:27:28.0	0.860	0.010	-0.310	-0.350
2020/01/31 14:27:28.1	0.840	0.050	-0.390	-0.350
2020/01/31 14:27:28.2	0.820	0.100	-0.470	-0.350
2020/01/31 14:27:28.3	0.810	0.140	-0.550	-0.360
2020/01/31 14:27:28.4	0.800	0.180	-0.630	-0.370
2020/01/31 14:27:28.5	0.780	0.220	-0.720	-0.390
2020/01/31 14:27:28.6	0.770	0.260	-0.800	-0.410
2020/01/31 14:27:28.7	0.780	0.300	-0.880	-0.440
2020/01/31 14:27:28.8	0.780	0.340	-0.970	-0.460
2020/01/31 14:27:28.9	0.770	0.370	-1.050	-0.490
2020/01/31 14:27:29.0	0.770	0.400	-1.120	-0.520
2020/01/31 14:27:29.1	0.780	0.430	-1.200	-0.560
2020/01/31 14:27:29.2	0.780	0.450	-1.270	-0.600
2020/01/31 14:27:29.3	0.790	0.470	-1.340	-0.640
2020/01/31 14:27:29.4	0.790	0.490	-1.400	-0.680
2020/01/31 14:27:29.5	0.800	0.510	-1.450	-0.720
2020/01/31 14:27:29.6	0.820	0.520	-1.500	-0.760
2020/01/31 14:27:29.7	0.830	0.530	-1.540	-0.810
2020/01/31 14:27:29.8	0.850	0.530	-1.570	-0.850
2020/01/31 14:27:29.9	0.870	0.530	-1.600	-0.890
2020/01/31 14:27:30.0	0.880	0.530	-1.610	-0.930
2020/01/31 14:27:30.1	0.900	0.520	-1.620	-0.970
2020/01/31 14:27:30.2	0.920	0.510	-1.620	-1.010
2020/01/31 14:27:30.3	0.940	0.500	-1.610	-1.050
2020/01/31 14:27:30.4	0.970	0.480	-1.590	-1.080
2020/01/31 14:27:30.5	0.990	0.460	-1.550	-1.110
2020/01/31 14:27:30.6	1.010	0.430	-1.510	-1.140
2020/01/31 14:27:30.7	1.020	0.400	-1.450	-1.170
2020/01/31 14:27:30.8	1.040	0.370	-1.390	-1.190
2020/01/31 14:27:30.9	1.060	0.330	-1.320	-1.210
2020/01/31 14:27:31.0	1.080	0.300	-1.240	-1.220
2020/01/31 14:27:31.1	1.090	0.260	-1.150	-1.230
2020/01/31 14:27:31.2	1.110	0.210	-1.050	-1.240
2020/01/31 14:27:31.3	1.120	0.170	-0.940	-1.240
2020/01/31 14:27:31.4	1.130	0.120	-0.830	-1.240
2020/01/31 14:27:31.5	1.150	0.080	-0.710	-1.230
2020/01/31 14:27:31.6	1.160	0.030	-0.580	-1.210
2020/01/31 14:27:31.7	1.160	-0.020	-0.460	-1.190
2020/01/31 14:27:31.8	1.170	-0.070	-0.320	-1.170
2020/01/31 14:27:31.9	1.170	-0.120	-0.190	-1.140
2020/01/31 14:27:32.0	1.170	-0.170	-0.050	-1.100
2020/01/31 14:27:32.1	1.180	-0.220	0.090	-1.060
2020/01/31 14:27:32.2	1.180	-0.270	0.220	-1.010
2020/01/31 14:27:32.3	1.170	-0.310	0.360	-0.960
2020/01/31 14:27:32.4	1.170	-0.360	0.490	-0.910
2020/01/31 14:27:32.5	1.170	-0.400	0.610	-0.850
2020/01/31 14:27:32.6	1.160	-0.440	0.730	-0.780
2020/01/31 14:27:32.7	1.140	-0.480	0.840	-0.720
2020/01/31 14:27:32.8	1.140	-0.510	0.940	-0.650
2020/01/31 14:27:32.9	1.130	-0.540	1.030	-0.580
2020/01/31 14:27:33.0	1.120	-0.570	1.120	-0.500
2020/01/31 14:27:33.1	1.110	-0.590	1.190	-0.430
2020/01/31 14:27:33.2	1.110	-0.610	1.250	-0.360
2020/01/31 14:27:33.3	1.100	-0.630	1.300	-0.290
2020/01/31 14:27:33.4	1.090	-0.640	1.330	-0.220
2020/01/31 14:27:33.5	1.090	-0.640	1.350	-0.150
2020/01/31 14:27:33.6	1.080	-0.640	1.360	-0.080
2020/01/31 14:27:33.7	1.060	-0.640	1.360	-0.020
2020/01/31 14:27:33.8	1.050	-0.630	1.340	0.050
2020/01/31 14:27:33.9	1.050	-0.620	1.300	0.110
2020/01/31 14:27:34.0	1.040	-0.600	1.260	0.170
2020/01/31 14:27:34.1	1.030	-0.580	1.200	0.230
2020/01/31 14:27:34.2	1.020	-0.560	1.140	0.280
2020/01/31 14:27:34.3	1.010	-0.530	1.060	0.330
2020/01/31 14:27:34.4	1.000	-0.490	0.970	0.380
2020/01/31 14:27:34.5	1.000	-0.460	0.880	0.430
2020/01/31 14:27:34.6	0.990	-0.420	0.780	0.480
2020/01/31 14:27:34.7	0.970	-0.380	0.670	0.510
2020/01/31 14:27:34.8	0.960	-0.330	0.550	0.550
2020/01/31 14:27:34.9	0.960	-0.290	0.430	0.590
2020/01/31 14:27:35.0	0.950	-0.240	0.310	0.620
2020/01/31 14:27:35.1	0.940	-0.190	0.190	0.650
2020/01/31 14:27:35.2	0.940	-0.140	0.070	0.670
2020/01/31 14:27:35.3	0.930	-0.090	-0.050	0.690
2020/01/31 14:27:35.4	0.930	-0.040	-0.180	0.710
2020/01/31 14:27:35.5	0.930	0.000	-0.290	0.730
2020/01/31 14:27:35.6	0.920	0.050	-0.410	0.740
2020/01/31 14:27:35.7	0.920	0.100	-0.520	0.750
2020/01/31 14:27:35.8	0.920	0.140	-0.620	0.760
2020/01/31 14:27:35.9	0.920	0.180	-0.720	0.760
2020/01/31 14:27:36.0	0.920	0.220	-0.810	0.770
2020/01/31 14:27:36.1	0.910	0.260	-0.900	0.770
2020/01/31 14:27:36.2	0.910	0.290	-0.970	0.760
2020/01/31 14:27:36.3	0.910	0.320	-1.040	0.760
2020/01/31 14:27:36.4	0.910	0.340	-1.100	0.750
2020/01/31 14:27:36.5	0.910	0.370	-1.150	0.740
2020/01/31 14:27:36.6	0.900	0.380	-1.200	0.720
2020/01/31 14:27:36.7	0.910	0.400	-1.230	0.700
2020/01/31 14:27:36.8	0.910	0.410	-1.250	0.680
2020/01/31 14:27:36.9	0.910	0.410	-1.270	0.650
2020/01/31 14:27:37.0	0.900	0.410	-1.280	0.630
2020/01/31 14:27:37.1	0.900	0.410	-1.270	0.600
2020/01/31 14:27:37.2	0.900	0.400	-1.270	0.560
2020/01/31 14:27:37.3	0.890	0.390	-1.250	0.530
2020/01/31 14:27:37.4	0.880	0.380	-1.220	0.500
2020/01/31 14:27:37.5	0.870	0.370	-1.190	0.460
2020/01/31 14:27:37.6	0.860	0.350	-1.150	0.430
2020/01/31 14:27:37.7	0.850	0.330	-1.110	0.390
2020/01/31 14:27:37.8	0.840	0.310	-1.060	0.350
2020/01/31 14:27:37.9	0.820	0.280	-1.010	0.320
2020/01/31 14:27:38.0	0.800	0.260	-0.950	0.280
2020/01/31 14:27:38.1	0.780	0.230	-0.890	0.250
2020/01/31 14:27:38.2	0.760	0.210	-0.820	0.210
2020/01/31 14:27:38.3	0.730	0.180	-0.760	0.180
2020/01/31 14:27:38.4	0.710	0.160	-0.690	0.140
2020/01/31 14:27:38.5	0.680	0.140	-0.620	0.110
2020/01/31 14:27:38.6	0.650	0.120	-0.560	0.070
2020/01/31 14:27:38.7	0.620	0.100	-0.490	0.030
2020/01/31 14:27:38.8	0.600	0.080	-0.430	-0.010
2020/01/31 14:27:38.9	0.570	0.070	-0.370	-0.040
2020/01/31 14:27:39.0	0.540	0.060	-0.310	-0.080
2020/01/31 14:27:39.1	0.520	0.050	-0.260	-0.120
2020/01/31 14:27:39.2	0.490	0.040	-0.210	-0.160
2020/01/31 14:27:39.3	0.470	0.050	-0.170	-0.190
2020/01/31 14:27:39.4	0.450	0.050	-0.130	-0.230
2020/01/31 14:27:39.5	0.430	0.060	-0.090	-0.270
2020/01/31 14:27:39.6	0.400	0.070	-0.060	-0.300
2020/01/31 14:27:39.7	0.390	0.090	-0.030	-0.340
2020/01/31 14:27:39.8	0.370	0.100	-0.010	-0.370
2020/01/31 14:27:39.9	0.360	0.130	0.010	-0.390
2020/01/31 14:27:40.0	0.340	0.150	0.030	-0.420
2020/01/31 14:27:40.1	0.320	0.180	0.040	-0.440
2020/01/31 14:27:40.2	0.310	0.200	0.060	-0.460
2020/01/31 14:27:40.3	0.300	0.230	0.070	-0.470
2020/01/31 14:27:40.4	0.280	0.260	0.080	-0.480
2020/01/31 14:27:40.5	0.270	0.290	0.080	-0.490
2020/01/31 14:27:40.6	0.260	0.320	0.090	-0.500
2020/01/31 14:27:40.7	0.250	0.340	0.100	-0.500
2020/01/31 14:27:40.8	0.240	0.360	0.100	-0.510
2020/01/31 14:27:40.9	0.240	0.390	0.110	-0.510
2020/01/31 14:27:41.0	0.230	0.400	0.110	-0.500
2020/01/31 14:27:41.1	0.230	0.420	0.120	-0.500
2020/01/31 14:27:41.2	0.220	0.430	0.120	-0.500
2020/01/31 14:27:41.3	0.220	0.430	0.130	-0.490
2020/01/31 14:27:41.4	0.220	0.430	0.130	-0.490
2020/01/31 14:27:41.5	0.220	0.430	0.140	-0.490
2020/01/31 14:27:41.6	0.220	0.420	0.140	-0.480
2020/01/31 14:27:41.7	0.200	0.400	0.150	-0.480
2020/01/31 14:27:41.8	0.210	0.380	0.150	-0.480
2020/01/31 14:27:41.9	0.210	0.360	0.150	-0.480
2020/01/31 14:27:42.0	0.210	0.330	0.160	-0.480
2020/01/31 14:27:42.1	0.220	0.300	0.160	-0.490
2020/01/31 14:27:42.2	0.230	0.260	0.150	-0.490
2020/01/31 14:27:42.3	0.230	0.220	0.150	-0.500
2020/01/31 14:27:42.4	0.240	0.170	0.150	-0.510
2020/01/31 14:27:42.5	0.250	0.120	0.140	-0.520
2020/01/31 14:27:42.6	0.260	0.070	0.140	-0.530
2020/01/31 14:27:42.7	0.260	0.020	0.120	-0.550
2020/01/31 14:27:42.8	0.270	-0.040	0.110	-0.560
2020/01/31 14:27:42.9	0.280	-0.100	0.100	-0.580
2020/01/31 14:27:43.0	0.290	-0.150	0.080	-0.590
2020/01/31 14:27:43.1	0.310	-0.210	0.070	-0.610
2020/01/31 14:27:43.2	0.320	-0.270	0.040	-0.630
2020/01/31 14:27:43.3	0.330	-0.320	0.020	-0.650
2020/01/31 14:27:43.4	0.340	-0.380	-0.010	-0.660
2020/01/31 14:27:43.5	0.350	-0.430	-0.030	-0.680
2020/01/31 14:27:43.6	0.360	-0.480	-0.070	-0.700
2020/01/31 14:27:43.7	0.380	-0.520	-0.100	-0.720
2020/01/31 14:27:43.8	0.390	-0.570	-0.130	-0.730
2020/01/31 14:27:43.9	0.400	-0.600	-0.170	-0.750
2020/01/31 14:27:44.0	0.410	-0.640	-0.220	-0.770
2020/01/31 14:27:44.1	0.430	-0.660	-0.260	-0.790
2020/01/31 14:27:44.2	0.440	-0.690	-0.310	-0.800
2020/01/31 14:27:44.3	0.450	-0.700	-0.360	-0.820
2020/01/31 14:27:44.4	0.460	-0.710	-0.410	-0.830
2020/01/31 14:27:44.5	0.470	-0.710	-0.460	-0.840
2020/01/31 14:27:44.6	0.490	-0.710	-0.510	-0.860
2020/01/31 14:27:44.7	0.480	-0.700	-0.560	-0.870
2020/01/31 14:27:44.8	0.490	-0.680	-0.620	-0.880
2020/01/31 14:27:44.9	0.500	-0.660	-0.670	-0.880
2020/01/31 14:27:45.0	0.510	-0.630	-0.720	-0.880
2020/01/31 14:27:45.1	0.520	-0.600	-0.760	-0.880
2020/01/31 14:27:45.2	0.530	-0.560	-0.810	-0.870
2020/01/31 14:27:45.3	0.540	-0.510	-0.850	-0.860
2020/01/31 14:27:45.4	0.550	-0.460	-0.890	-0.850
2020/01/31 14:27:45.5	0.560	-0.410	-0.920	-0.830
2020/01/31 14:27:45.6	0.560	-0.350	-0.950	-0.810
2020/01/31 14:27:45.7	0.580	-0.290	-0.970	-0.780
2020/01/31 14:27:45.8	0.580	-0.230	-0.990	-0.750
2020/01/31 14:27:45.9	0.580	-0.160	-1.000	-0.720
2020/01/31 14:27:46.0	0.580	-0.100	-1.010	-0.670
2020/01/31 14:27:46.1	0.580	-0.030	-1.010	-0.630
2020/01/31 14:27:46.2	0.580	0.030	-1.010	-0.580
2020/01/31 14:27:46.3	0.580	0.090	-1.000	-0.530
2020/01/31 14:27:46.4	0.570	0.150	-0.980	-0.470
2020/01/31 14:27:46.5	0.570	0.210	-0.960	-0.410
2020/01/31 14:27:46.6	0.560	0.260	-0.930	-0.350
2020/01/31 14:27:46.7	0.560	0.310	-0.900	-0.290
2020/01/31 14:27:46.8	0.550	0.350	-0.860	-0.220
2020/01/31 14:27:46.9	0.540	0.390	-0.820	-0.160
2020/01/31 14:27:47.0	0.540	0.420	-0.770	-0.090
2020/01/31 14:27:47.1	0.530	0.450	-0.710	-0.020
2020/01/31 14:27:47.2	0.520	0.470	-0.650	0.050
2020/01/31 14:27:47.3	0.510	0.480	-0.590	0.110
2020/01/31 14:27:47.4	0.500	0.490	-0.530	0.180
2020/01/31 14:27:47.5	0.490	0.490	-0.460	0.240
2020/01/31 14:27:47.6	0.490	0.490	-0.390	0.300
2020/01/31 14:27:47.7	0.480	0.470	-0.320	0.360
2020/01/31 14:27:47.8	0.470	0.460	-0.250	0.420
2020/01/31 14:27:47.9	0.460	0.430	-0.170	0.470
2020/01/31 14:27:48.0	0.450	0.400	-0.100	0.520
2020/01/31 14:27:48.1	0.440	0.370	-0.030	0.570
2020/01/31 14:27:48.2	0.430	0.330	0.040	0.620
2020/01/31 14:27:48.3	0.420	0.280	0.110	0.660
2020/01/31 14:27:48.4	0.400	0.230	0.180	0.700
2020/01/31 14:27:48.5	0.390	0.180	0.240	0.740
2020/01/31 14:27:48.6	0.370	0.130	0.300	0.770
2020/01/31 14:27:48.7	0.350	0.070	0.360	0.800
2020/01/31 14:27:48.8	0.330	0.010	0.420	0.830
2020/01/31 14:27:48.9	0.310	-0.050	0.470	0.850
2020/01/31 14:27:49.0	0.280	-0.110	0.520	0.880
2020/01/31 14:27:49.1	0.260	-0.170	0.570	0.890
2020/01/31 14:27:49.2	0.230	-0.220	0.610	0.910
2020/01/31 14:27:49.3	0.200	-0.280	0.640	0.920
2020/01/31 14:27:49.4	0.170	-0.330	0.680	0.930
2020/01/31 14:27:49.5	0.140	-0.380	0.700	0.940
2020/01/31 14:27:49.6	0.120	-0.430	0.720	0.950
2020/01/31 14:27:49.7	0.070	-0.470	0.740	0.940
2020/01/31 14:27:49.8	0.040	-0.510	0.740	0.940
2020/01/31 14:27:49.9	0.020	-0.540	0.750	0.930
2020/01/31 14:27:50.0	359.990	-0.570	0.740	0.920
2020/01/31 14:27:50.1	359.970	-0.580	0.730	0.910
2020/01/31 14:27:50.2	359.950	-0.600	0.710	0.890
2020/01/31 14:27:50.3	359.930	-0.600	0.680	0.870
2020/01/31 14:27:50.4	359.920	-0.600	0.650	0.850
2020/01/31 14:27:50.5	359.910	-0.590	0.610	0.830
2020/01/31 14:27:50.6	359.900	-0.570	0.560	0.790
2020/01/31 14:27:50.7	359.900	-0.550	0.510	0.760
2020/01/31 14:27:50.8	359.900	-0.510	0.440	0.720
2020/01/31 14:27:50.9	359.900	-0.470	0.370	0.680
2020/01/31 14:27:51.0	359.910	-0.430	0.290	0.640
2020/01/31 14:27:51.1	359.920	-0.380	0.210	0.590
2020/01/31 14:27:51.2	359.940	-0.320	0.120	0.550
2020/01/31 14:27:51.3	359.950	-0.250	0.030	0.500
2020/01/31 14:27:51.4	359.970	-0.180	-0.060	0.450
2020/01/31 14:27:51.5	359.990	-0.110	-0.160	0.400
2020/01/31 14:27:51.6	0.010	-0.030	-0.260	0.350
2020/01/31 14:27:51.7	0.030	0.040	-0.360	0.300
2020/01/31 14:27:51.8	0.060	0.130	-0.450	0.250
2020/01/31 14:27:51.9	0.080	0.210	-0.550	0.210
2020/01/31 14:27:52.0	0.110	0.290	-0.640	0.160
2020/01/31 14:27:52.1	0.140	0.370	-0.730	0.120
2020/01/31 14:27:52.2	0.170	0.450	-0.820	0.080
2020/01/31 14:27:52.3	0.190	0.520	-0.900	0.030
2020/01/31 14:27:52.4	0.220	0.590	-0.970	-0.000
2020/01/31 14:27:52.5	0.240	0.660	-1.040	-0.040
2020/01/31 14:27:52.6	0.270	0.730	-1.100	-0.080
2020/01/31 14:27:52.7	0.300	0.780	-1.150	-0.110
2020/01/31 14:27:52.8	0.320	0.830	-1.190	-0.150
2020/01/31 14:27:52.9	0.350	0.880	-1.220	-0.180
2020/01/31 14:27:53.0	0.370	0.910	-1.250	-0.210
2020/01/31 14:27:53.1	0.380	0.940	-1.260	-0.240
2020/01/31 14:27:53.2	0.400	0.960	-1.270	-0.270
2020/01/31 14:27:53.3	0.410	0.980	-1.270	-0.290
2020/01/31 14:27:53.4	0.420	0.980	-1.260	-0.320
2020/01/31 14:27:53.5	0.430	0.980	-1.230	-0.340
2020/01/31 14:27:53.6	0.430	0.960	-1.200	-0.360
2020/01/31 14:27:53.7	0.440	0.940	-1.170	-0.380
2020/01/31 14:27:53.8	0.440	0.910	-1.120	-0.400
2020/01/31 14:27:53.9	0.430	0.870	-1.060	-0.420
2020/01/31 14:27:54.0	0.420	0.830	-1.000	-0.440
2020/01/31 14:27:54.1	0.410	0.770	-0.930	-0.450
2020/01/31 14:27:54.2	0.400	0.710	-0.860	-0.470
2020/01/31 14:27:54.3	0.390	0.650	-0.780	-0.490
2020/01/31 14:27:54.4	0.370	0.580	-0.700	-0.500
2020/01/31 14:27:54.5	0.350	0.500	-0.610	-0.520
2020/01/31 14:27:54.6	0.330	0.420	-0.520	-0.540
2020/01/31 14:27:54.7	0.320	0.340	-0.430	-0.560
2020/01/31 14:27:54.8	0.300	0.250	-0.350	-0.580
2020/01/31 14:27:54.9	0.280	0.160	-0.260	-0.600
2020/01/31 14:27:55.0	0.260	0.070	-0.170	-0.630
2020/01/31 14:27:55.1	0.240	-0.020	-0.090	-0.650
2020/01/31 14:27:55.2	0.220	-0.110	-0.010	-0.670
2020/01/31 14:27:55.3	0.200	-0.190	0.060	-0.700
2020/01/31 14:27:55.4	0.190	-0.280	0.130	-0.730
2020/01/31 14:27:55.5	0.170	-0.360	0.200	-0.760
2020/01/31 14:27:55.6	0.160	-0.440	0.260	-0.790
2020/01/31 14:27:55.7	0.140	-0.510	0.310	-0.830
2020/01/31 14:27:55.8	0.140	-0.580	0.350	-0.860
2020/01/31 14:27:55.9	0.130	-0.650	0.390	-0.910
2020/01/31 14:27:56.0	0.130	-0.710	0.410	-0.950
2020/01/31 14:27:56.1	0.120	-0.760	0.430	-0.990
2020/01/31 14:27:56.2	0.130	-0.800	0.450	-1.030
2020/01/31 14:27:56.3	0.130	-0.840	0.450	-1.080
2020/01/31 14:27:56.4	0.130	-0.870	0.450	-1.120
2020/01/31 14:27:56.5	0.130	-0.890	0.440	-1.160
2020/01/31 14:27:56.6	0.140	-0.910	0.420	-1.200
2020/01/31 14:27:56.7	0.130	-0.920	0.390	-1.240
2020/01/31 14:27:56.8	0.140	-0.920	0.370	-1.280
2020/01/31 14:27:56.9	0.140	-0.920	0.330	-1.310
2020/01/31 14:27:57.0	0.150	-0.910	0.290	-1.340
2020/01/31 14:27:57.1	0.160	-0.890	0.250	-1.370
2020/01/31 14:27:57.2	0.170	-0.860	0.200	-1.400
2020/01/31 14:27:57.3	0.180	-0.830	0.150	-1.420
2020/01/31 14:27:57.4	0.190	-0.800	0.100	-1.440
2020/01/31 14:27:57.5	0.200	-0.760	0.050	-1.460
2020/01/31 14:27:57.6	0.210	-0.710	-0.000	-1.470
2020/01/31 14:27:57.7	0.210	-0.670	-0.050	-1.490
2020/01/31 14:27:57.8	0.220	-0.620	-0.110	-1.500
2020/01/31 14:27:57.9	0.230	-0.560	-0.160	-1.500
2020/01/31 14:27:58.0	0.250	-0.510	-0.210	-1.510
2020/01/31 14:27:58.1	0.260	-0.450	-0.260	-1.510
2020/01/31 14:27:58.2	0.280	-0.390	-0.310	-1.510
2020/01/31 14:27:58.3	0.300	-0.330	-0.350	-1.510
2020/01/31 14:27:58.4	0.310	-0.280	-0.400	-1.500
2020/01/31 14:27:58.5	0.330	-0.220	-0.430	-1.490
2020/01/31 14:27:58.6	0.350	-0.160	-0.470	-1.480
2020/01/31 14:27:58.7	0.350	-0.110	-0.500	-1.460
2020/01/31 14:27:58.8	0.360	-0.060	-0.520	-1.440
2020/01/31 14:27:58.9	0.370	-0.010	-0.540	-1.410
2020/01/31 14:27:59.0	0.380	0.040	-0.550	-1.380
2020/01/31 14:27:59.1	0.390	0.080	-0.560	-1.340
2020/01/31 14:27:59.2	0.400	0.110	-0.560	-1.300
2020/01/31 14:27:59.3	0.400	0.150	-0.560	-1.250
2020/01/31 14:27:59.4	0.400	0.180	-0.550	-1.190
2020/01/31 14:27:59.5	0.400	0.200	-0.540	-1.130
2020/01/31 14:27:59.6	0.400	0.220	-0.520	-1.070
2020/01/31 14:27:59.7	0.390	0.240	-0.500	-0.990
2020/01/31 14:27:59.8	0.380	0.250	-0.470	-0.920
2020/01/31 14:27:59.9	0.370	0.260	-0.440	-0.840
2020/01/31 14:28:00.0	0.360	0.260	-0.400	-0.760
2020/01/31 14:28:00.1	0.340	0.260	-0.370	-0.670
2020/01/31 14:28:00.2	0.330	0.250	-0.330	-0.580
2020/01/31 14:28:00.3	0.310	0.240	-0.290	-0.480
2020/01/31 14:28:00.4	0.290	0.230	-0.250	-0.390
2020/01/31 14:28:00.5	0.270	0.220	-0.210	-0.290
2020/01/31 14:28:00.6	0.250	0.200	-0.170	-0.200
2020/01/31 14:28:00.7	0.250	0.180	-0.140	-0.100
2020/01/31 14:28:00.8	0.220	0.160	-0.100	-0.000
2020/01/31 14:28:00.9	0.200	0.140	-0.070	0.090
2020/01/31 14:28:01.0	0.180	0.120	-0.050	0.180
2020/01/31 14:28:01.1	0.160	0.100	-0.020	0.270
2020/01/31 14:28:01.2	0.140	0.080	-0.000	0.360
2020/01/31 14:28:01.3	0.120	0.060	0.010	0.440
2020/01/31 14:28:01.4	0.100	0.040	0.020	0.520
2020/01/31 14:28:01.5	0.090	0.030	0.030	0.590
2020/01/31 14:28:01.6	0.070	0.010	0.030	0.660
2020/01/31 14:28:01.7	0.050	0.000	0.020	0.720
2020/01/31 14:28:01.8	0.030	-0.000	0.010	0.780
2020/01/31 14:28:01.9	0.020	-0.010	-0.000	0.830
2020/01/31 14:28:02.0	0.010	-0.010	-0.020	0.880
2020/01/31 14:28:02.1	0.000	-0.000	-0.050	0.920
2020/01/31 14:28:02.2	0.000	0.000	-0.070	0.960
2020/01/31 14:28:02.3	359.990	0.010	-0.110	0.990
2020/01/31 14:28:02.4	359.990	0.030	-0.140	1.020
2020/01/31 14:28:02.5	359.980	0.050	-0.180	1.040
2020/01/31 14:28:02.6	359.980	0.070	-0.210	1.060
2020/01/31 14:28:02.7	359.980	0.090	-0.250	1.070
2020/01/31 14:28:02.8	359.970	0.120	-0.290	1.080
2020/01/31 14:28:02.9	359.970	0.140	-0.330	1.100
2020/01/31 14:28:03.0	359.970	0.170	-0.360	1.100
2020/01/31 14:28:03.1	359.970	0.200	-0.400	1.110
2020/01/31 14:28:03.2	359.960	0.230	-0.430	1.110
2020/01/31 14:28:03.3	359.960	0.260	-0.460	1.120
2020/01/31 14:28:03.4	359.960	0.290	-0.480	1.110
2020/01/31 14:28:03.5	359.960	0.320	-0.510	1.110
2020/01/31 14:28:03.6	359.950	0.350	-0.520	1.100
2020/01/31 14:28:03.7	359.960	0.370	-0.540	1.090
2020/01/31 14:28:03.8	359.960	0.400	-0.550	1.080
2020/01/31 14:28:03.9	359.960	0.420	-0.560	1.060
2020/01/31 14:28:04.0	359.960	0.440	-0.560	1.050
2020/01/31 14:28:04.1	359.960	0.450	-0.560	1.030
2020/01/31 14:28:04.2	359.970	0.460	-0.560	1.000
2020/01/31 14:28:04.3	359.970	0.470	-0.550	0.980
2020/01/31 14:28:04.4	359.980	0.470	-0.540	0.950
2020/01/31 14:28:04.5	359.980	0.470	-0.520	0.920
2020/01/31 14:28:04.6	359.990	0.470	-0.510	0.890
2020/01/31 14:28:04.7	0.010	0.460	-0.480	0.860
2020/01/31 14:28:04.8	0.020	0.450	-0.460	0.830
2020/01/31 14:28:04.9	0.030	0.440	-0.440	0.800
2020/01/31 14:28:05.0	0.050	0.420	-0.420	0.760
2020/01/31 14:28:05.1	0.060	0.400	-0.390	0.720
2020/01/31 14:28:05.2	0.080	0.370	-0.370	0.690
2020/01/31 14:28:05.3	0.090	0.350	-0.340	0.650
2020/01/31 14:28:05.4	0.110	0.320	-0.310	0.610
2020/01/31 14:28:05.5	0.120	0.280	-0.280	0.570
2020/01/31 14:28:05.6	0.140	0.250	-0.260	0.540
2020/01/31 14:28:05.7	0.150	0.210	-0.230	0.490
2020/01/31 14:28:05.8	0.160	0.180	-0.210	0.450
2020/01/31 14:28:05.9	0.180	0.140	-0.180	0.410
2020/01/31 14:28:06.0	0.190	0.100	-0.150	0.370
2020/01/31 14:28:06.1	0.200	0.060	-0.130	0.330
2020/01/31 14:28:06.2	0.210	0.020	-0.110	0.290
2020/01/31 14:28:06.3	0.210	-0.020	-0.080	0.240
2020/01/31 14:28:06.4	0.220	-0.060	-0.060	0.200
2020/01/31 14:28:06.5	0.230	-0.090	-0.040	0.150
2020/01/31 14:28:06.6	0.230	-0.130	-0.030	0.110
2020/01/31 14:28:06.7	0.230	-0.160	-0.010	0.060
2020/01/31 14:28:06.8	0.230	-0.190	0.000	0.010
2020/01/31 14:28:06.9	0.230	-0.220	0.010	-0.040
2020/01/31 14:28:07.0	0.230	-0.250	0.020	-0.090
2020/01/31 14:28:07.1	0.230	-0.270	0.030	-0.130
2020/01/31 14:28:07.2	0.230	-0.300	0.030	-0.180
2020/01/31 14:28:07.3	0.230	-0.310	0.040	-0.220
2020/01/31 14:28:07.4	0.220	-0.330	0.040	-0.270
2020/01/31 14:28:07.5	0.210	-0.340	0.040	-0.310
2020/01/31 14:28:07.6	0.200	-0.350	0.040	-0.350
2020/01/31 14:28:07.7	0.180	-0.360	0.030	-0.400
2020/01/31 14:28:07.8	0.160	-0.370	0.030	-0.440
2020/01/31 14:28:07.9	0.150	-0.370	0.020	-0.480
2020/01/31 14:28:08.0	0.130	-0.370	0.010	-0.510
2020/01/31 14:28:08.1	0.120	-0.360	-0.000	-0.550
2020/01/31 14:28:08.2	0.100	-0.360	-0.020	-0.590
2020/01/31 14:28:08.3	0.080	-0.350	-0.030	-0.620
2020/01/31 14:28:08.4	0.070	-0.340	-0.050	-0.650
2020/01/31 14:28:08.5	0.050	-0.320	-0.070	-0.690
2020/01/31 14:28:08.6	0.040	-0.310	-0.100	-0.720
2020/01/31 14:28:08.7	0.020	-0.290	-0.120	-0.750
2020/01/31 14:28:08.8	0.010	-0.270	-0.150	-0.780
2020/01/31 14:28:08.9	0.000	-0.250	-0.170	-0.810
2020/01/31 14:28:09.0	359.990	-0.230	-0.200	-0.840
2020/01/31 14:28:09.1	359.980	-0.210	-0.230	-0.860
2020/01/31 14:28:09.2	359.980	-0.190	-0.260	-0.890
2020/01/31 14:28:09.3	359.980	-0.170	-0.290	-0.920
2020/01/31 14:28:09.4	359.980	-0.140	-0.330	-0.940
2020/01/31 14:28:09.5	359.980	-0.120	-0.360	-0.970
2020/01/31 14:28:09.6	359.990	-0.100	-0.390	-1.000
2020/01/31 14:28:09.7	0.000	-0.070	-0.430	-1.030
2020/01/31 14:28:09.8	0.010	-0.050	-0.460	-1.050
2020/01/31 14:28:09.9	0.030	-0.030	-0.490	-1.080
2020/01/31 14:28:10.0	0.040	-0.010	-0.520	-1.100
2020/01/31 14:28:10.1	0.060	0.010	-0.550	-1.130
2020/01/31 14:28:10.2	0.080	0.020	-0.570	-1.150
2020/01/31 14:28:10.3	0.100	0.030	-0.590	-1.180
2020/01/31 14:28:10.4	0.120	0.050	-0.610	-1.200
2020/01/31 14:28:10.5	0.140	0.050	-0.630	-1.230
2020/01/31 14:28:10.6	0.170	0.060	-0.640	-1.250
2020/01/31 14:28:10.7	0.170	0.060	-0.640	-1.260
2020/01/31 14:28:10.8	0.190	0.060	-0.640	-1.280
2020/01/31 14:28:10.9	0.210	0.060	-0.640	-1.290
2020/01/31 14:28:11.0	0.230	0.060	-0.630	-1.300
2020/01/31 14:28:11.1	0.240	0.050	-0.610	-1.310
2020/01/31 14:28:11.2	0.260	0.040	-0.590	-1.310
2020/01/31 14:28:11.3	0.270	0.030	-0.570	-1.310
2020/01/31 14:28:11.4	0.280	0.010	-0.530	-1.300
2020/01/31 14:28:11.5	0.280	-0.000	-0.500	-1.290
2020/01/31 14:28:11.6	0.290	-0.020	-0.460	-1.280
2020/01/31 14:28:11.7	0.290	-0.040	-0.410	-1.260
2020/01/31 14:28:11.8	0.290	-0.060	-0.360	-1.240
2020/01/31 14:28:11.9	0.290	-0.080	-0.310	-1.210
2020/01/31 14:28:12.0	0.290	-0.100	-0.260	-1.180
2020/01/31 14:28:12.1	0.280	-0.120	-0.200	-1.140
2020/01/31 14:28:12.2	0.270	-0.140	-0.150	-1.100
2020/01/31 14:28:12.3	0.270	-0.160	-0.090	-1.050
2020/01/31 14:28:12.4	0.260	-0.180	-0.040	-1.010
2020/01/31 14:28:12.5	0.250	-0.200	0.010	-0.950
2020/01/31 14:28:12.6	0.240	-0.210	0.060	-0.900
2020/01/31 14:28:12.7	0.220	-0.230	0.110	-0.840
2020/01/31 14:28:12.8	0.210	-0.240	0.150	-0.770
2020/01/31 14:28:12.9	0.200	-0.250	0.190	-0.710
2020/01/31 14:28:13.0	0.180	-0.260	0.220	-0.650
2020/01/31 14:28:13.1	0.170	-0.260	0.250	-0.580
2020/01/31 14:28:13.2	0.150	-0.260	0.270	-0.510
2020/01/31 14:28:13.3	0.140	-0.260	0.290	-0.440
2020/01/31 14:28:13.4	0.130	-0.250	0.300	-0.370
2020/01/31 14:28:13.5	0.110	-0.240	0.300	-0.300
2020/01/31 14:28:13.6	0.100	-0.230	0.300	-0.230
2020/01/31 14:28:13.7	0.090	-0.210	0.290	-0.160
2020/01/31 14:28:13.8	0.070	-0.190	0.270	-0.090
2020/01/31 14:28:13.9	0.060	-0.170	0.250	-0.020
2020/01/31 14:28:14.0	0.040	-0.150	0.220	0.050
2020/01/31 14:28:14.1	0.030	-0.120	0.190	0.110
2020/01/31 14:28:14.2	0.020	-0.090	0.150	0.180
2020/01/31 14:28:14.3	0.010	-0.050	0.110	0.240
2020/01/31 14:28:14.4	0.000	-0.020	0.060	0.300
2020/01/31 14:28:14.5	359.990	0.020	0.000	0.350
2020/01/31 14:28:14.6	359.980	0.060	-0.050	0.410
2020/01/31 14:28:14.7	359.970	0.090	-0.110	0.460
2020/01/31 14:28:14.8	359.960	0.130	-0.170	0.510
2020/01/31 14:28:14.9	359.960	0.170	-0.230	0.560
2020/01/31 14:28:15.0	359.960	0.210	-0.300	0.600
2020/01/31 14:28:15.1	359.950	0.250	-0.360	0.640
2020/01/31 14:28:15.2	359.950	0.290	-0.420	0.680
2020/01/31 14:28:15.3	359.950	0.320	-0.490	0.720
2020/01/31 14:28:15.4	359.950	0.360	-0.550	0.750
2020/01/31 14:28:15.5	359.960	0.390	-0.600	0.770
2020/01/31 14:28:15.6	359.960	0.420	-0.660	0.790
2020/01/31 14:28:15.7	359.960	0.440	-0.710	0.810
2020/01/31 14:28:15.8	359.960	0.470	-0.750	0.820
2020/01/31 14:28:15.9	359.970	0.490	-0.800	0.830
2020/01/31 14:28:16.0	359.980	0.500	-0.830	0.840
2020/01/31 14:28:16.1	359.990	0.510	-0.870	0.830
2020/01/31 14:28:16.2	359.990	0.520	-0.890	0.830
2020/01/31 14:28:16.3	0.000	0.520	-0.920	0.820
2020/01/31 14:28:16.4	0.010	0.520	-0.930	0.810
2020/01/31 14:28:16.5	0.020	0.510	-0.940	0.790
2020/01/31 14:28:16.6	0.030	0.500	-0.940	0.770
2020/01/31 14:28:16.7	0.060	0.490	-0.940	0.740
2020/01/31 14:28:16.8	0.060	0.470	-0.930	0.710
2020/01/31 14:28:16.9	0.070	0.450	-0.910	0.680
2020/01/31 14:28:17.0	0.080	0.420	-0.890	0.650
2020/01/31 14:28:17.1	0.090	0.390	-0.860	0.620
2020/01/31 14:28:17.2	0.090	0.360	-0.820	0.590
2020/01/31 14:28:17.3	0.100	0.330	-0.780	0.550
2020/01/31 14:28:17.4	0.100	0.290	-0.730	0.510
2020/01/31 14:28:17.5	0.110	0.250	-0.680	0.470
2020/01/31 14:28:17.6	0.110	0.210	-0.620	0.430
2020/01/31 14:28:17.7	0.120	0.170	-0.550	0.390
2020/01/31 14:28:17.8	0.130	0.120	-0.490	0.350
2020/01/31 14:28:17.9	0.130	0.080	-0.420	0.300
2020/01/31 14:28:18.0	0.140	0.030	-0.350	0.260
2020/01/31 14:28:18.1	0.140	-0.010	-0.280	0.220
2020/01/31 14:28:18.2	0.150	-0.050	-0.210	0.170
2020/01/31 14:28:18.3	0.160	-0.100	-0.130	0.130
2020/01/31 14:28:18.4	0.160	-0.140	-0.060	0.080
2020/01/31 14:28:18.5	0.170	-0.180	0.010	0.030
2020/01/31 14:28:18.6	0.180	-0.220	0.070	-0.020
2020/01/31 14:28:18.7	0.180	-0.250	0.130	-0.070
2020/01/31 14:28:18.8	0.180	-0.280	0.190	-0.120
2020/01/31 14:28:18.9	0.190	-0.320	0.250	-0.160
2020/01/31 14:28:19.0	0.190	-0.340	0.300	-0.210
2020/01/31 14:28:19.1	0.200	-0.370	0.350	-0.260
2020/01/31 14:28:19.2	0.200	-0.390	0.390	-0.310
2020/01/31 14:28:19.3	0.200	-0.410	0.420	-0.350
2020/01/31 14:28:19.4	0.200	-0.420	0.450	-0.390
2020/01/31 14:28:19.5	0.200	-0.430	0.470	-0.440
2020/01/31 14:28:19.6	0.190	-0.440	0.490	-0.480
2020/01/31 14:28:19.7	0.180	-0.440	0.510	-0.520
2020/01/31 14:28:19.8	0.180	-0.440	0.510	-0.550
2020/01/31 14:28:19.9	0.170	-0.440	0.510	-0.590
2020/01/31 14:28:20.0	0.170	-0.430	0.500	-0.620
2020/01/31 14:28:20.1	0.160	-0.420	0.490	-0.650
2020/01/31 14:28:20.2	0.150	-0.410	0.470	-0.680
2020/01/31 14:28:20.3	0.150	-0.390	0.450	-0.700
2020/01/31 14:28:20.4	0.140	-0.370	0.420	-0.730
2020/01/31 14:28:20.5	0.140	-0.350	0.380	-0.750
2020/01/31 14:28:20.6	0.130	-0.320	0.340	-0.770
2020/01/31 14:28:20.7	0.120	-0.290	0.300	-0.790
2020/01/31 14:28:20.8	0.130	-0.260	0.250	-0.810
2020/01/31 14:28:20.9	0.130	-0.230	0.200	-0.820
2020/01/31 14:28:21.0	0.130	-0.190	0.150	-0.830
2020/01/31 14:28:21.1	0.140	-0.150	0.100	-0.840
2020/01/31 14:28:21.2	0.150	-0.120	0.040	-0.850
2020/01/31 14:28:21.3	0.160	-0.080	-0.010	-0.850
2020/01/31 14:28:21.4	0.170	-0.030	-0.070	-0.850
2020/01/31 14:28:21.5	0.190	0.010	-0.120	-0.850
2020/01/31 14:28:21.6	0.200	0.050	-0.170	-0.840
2020/01/31 14:28:21.7	0.220	0.090	-0.230	-0.830
2020/01/31 14:28:21.8	0.230	0.130	-0.280	-0.810
2020/01/31 14:28:21.9	0.240	0.170	-0.320	-0.790
2020/01/31 14:28:22.0	0.260	0.210	-0.370	-0.770
2020/01/31 14:28:22.1	0.270	0.250	-0.410	-0.740
2020/01/31 14:28:22.2	0.280	0.290	-0.440	-0.710
2020/01/31 14:28:22.3	0.290	0.320	-0.470	-0.670
2020/01/31 14:28:22.4	0.290	0.350	-0.500	-0.630
2020/01/31 14:28:22.5	0.290	0.380	-0.520	-0.580
2020/01/31 14:28:22.6	0.290	0.410	-0.530	-0.530
2020/01/31 14:28:22.7	0.300	0.430	-0.540	-0.470
2020/01/31 14:28:22.8	0.290	0.450	-0.540	-0.420
2020/01/31 14:28:22.9	0.280	0.460	-0.540	-0.350
2020/01/31 14:28:23.0	0.270	0.470	-0.530	-0.290
2020/01/31 14:28:23.1	0.250	0.480	-0.530	-0.220
2020/01/31 14:28:23.2	0.230	0.480	-0.510	-0.160
2020/01/31 14:28:23.3	0.210	0.480	-0.500	-0.090
2020/01/31 14:28:23.4	0.190	0.470	-0.480	-0.020
2020/01/31 14:28:23.5	0.170	0.460	-0.470	0.040
2020/01/31 14:28:23.6	0.140	0.440	-0.450	0.110
2020/01/31 14:28:23.7	0.110	0.420	-0.430	0.170
2020/01/31 14:28:23.8	0.090	0.390	-0.410	0.230
2020/01/31 14:28:23.9	0.070	0.370	-0.400	0.280
2020/01/31 14:28:24.0	0.050	0.340	-0.390	0.320
2020/01/31 14:28:24.1	0.030	0.300	-0.380	0.360
2020/01/31 14:28:24.2	0.020	0.270	-0.370	0.390
2020/01/31 14:28:24.3	0.010	0.230	-0.370	0.420
2020/01/31 14:28:24.4	0.000	0.190	-0.380	0.430
2020/01/31 14:28:24.5	359.990	0.150	-0.380	0.440
2020/01/31 14:28:24.6	359.990	0.110	-0.390	0.440
2020/01/31 14:28:24.7	359.980	0.070	-0.410	0.430
2020/01/31 14:28:24.8	359.990	0.030	-0.420	0.410
2020/01/31 14:28:24.9	359.990	-0.010	-0.450	0.390
2020/01/31 14:28:25.0	0.000	-0.040	-0.470	0.360
2020/01/31 14:28:25.1	0.020	-0.080	-0.500	0.320
2020/01/31 14:28:25.2	0.030	-0.110	-0.530	0.270
2020/01/31 14:28:25.3	0.050	-0.150	-0.570	0.220
2020/01/31 14:28:25.4	0.060	-0.180	-0.600	0.170
2020/01/31 14:28:25.5	0.080	-0.200	-0.640	0.110
2020/01/31 14:28:25.6	0.110	-0.230	-0.670	0.040
2020/01/31 14:28:25.7	0.140	-0.250	-0.700	-0.030
2020/01/31 14:28:25.8	0.160	-0.270	-0.730	-0.100
2020/01/31 14:28:25.9	0.180	-0.280	-0.760	-0.170
2020/01/31 14:28:26.0	0.210	-0.290	-0.780	-0.240
2020/01/31 14:28:26.1	0.230	-0.300	-0.800	-0.310
2020/01/31 14:28:26.2	0.250	-0.300	-0.820	-0.380
2020/01/31 14:28:26.3	0.280	-0.310	-0.820	-0.450
2020/01/31 14:28:26.4	0.300	-0.310	-0.830	-0.520
2020/01/31 14:28:26.5	0.320	-0.300	-0.820	-0.580
2020/01/31 14:28:26.6	0.340	-0.300	-0.810	-0.640
2020/01/31 14:28:26.7	0.380	-0.290	-0.790	-0.710
2020/01/31 14:28:26.8	0.400	-0.280	-0.770	-0.760
2020/01/31 14:28:26.9	0.420	-0.270	-0.740	-0.820
2020/01/31 14:28:27.0	0.440	-0.270	-0.710	-0.870
2020/01/31 14:28:27.1	0.450	-0.260	-0.670	-0.920
2020/01/31 14:28:27.2	0.470	-0.250	-0.630	-0.960
2020/01/31 14:28:27.3	0.480	-0.240	-0.590	-1.000
2020/01/31 14:28:27.4	0.500	-0.230	-0.530	-1.040
2020/01/31 14:28:27.5	0.510	-0.220	-0.480	-1.070
2020/01/31 14:28:27.6	0.520	-0.220	-0.420	-1.100
2020/01/31 14:28:27.7	0.520	-0.210	-0.370	-1.120
2020/01/31 14:28:27.8	0.530	-0.210	-0.300	-1.140
2020/01/31 14:28:27.9	0.530	-0.210	-0.240	-1.150
2020/01/31 14:28:28.0	0.530	-0.210	-0.180	-1.170
2020/01/31 14:28:28.1	0.530	-0.210	-0.110	-1.180
2020/01/31 14:28:28.2	0.530	-0.210	-0.050	-1.180
2020/01/31 14:28:28.3	0.530	-0.220	0.010	-1.180
2020/01/31 14:28:28.4	0.530	-0.220	0.070	-1.180
2020/01/31 14:28:28.5	0.520	-0.230	0.130	-1.170
2020/01/31 14:28:28.6	0.510	-0.240	0.190	-1.150
2020/01/31 14:28:28.7	0.510	-0.250	0.240	-1.140
2020/01/31 14:28:28.8	0.500	-0.260	0.290	-1.120
2020/01/31 14:28:28.9	0.490	-0.270	0.340	-1.100
2020/01/31 14:28:29.0	0.480	-0.280	0.390	-1.070
2020/01/31 14:28:29.1	0.470	-0.290	0.430	-1.040
2020/01/31 14:28:29.2	0.450	-0.300	0.470	-1.000
2020/01/31 14:28:29.3	0.440	-0.310	0.500	-0.960
2020/01/31 14:28:29.4	0.430	-0.310	0.530	-0.920
2020/01/31 14:28:29.5	0.410	-0.320	0.560	-0.880
2020/01/31 14:28:29.6	0.400	-0.330	0.580	-0.830
2020/01/31 14:28:29.7	0.380	-0.330	0.600	-0.780
2020/01/31 14:28:29.8	0.360	-0.330	0.610	-0.730
2020/01/31 14:28:29.9	0.350	-0.330	0.610	-0.680
2020/01/31 14:28:30.0	0.330	-0.330	0.620	-0.630
2020/01/31 14:28:30.1	0.320	-0.320	0.610	-0.580
2020/01/31 14:28:30.2	0.300	-0.310	0.600	-0.520
2020/01/31 14:28:30.3	0.290	-0.300	0.590	-0.470
2020/01/31 14:28:30.4	0.280	-0.280	0.570	-0.410
2020/01/31 14:28:30.5	0.270	-0.260	0.550	-0.350
2020/01/31 14:28:30.6	0.260	-0.240	0.520	-0.300
2020/01/31 14:28:30.7	0.260	-0.220	0.490	-0.240
2020/01/31 14:28:30.8	0.250	-0.190	0.450	-0.180
2020/01/31 14:28:30.9	0.240	-0.160	0.410	-0.120
2020/01/31 14:28:31.0	0.230	-0.130	0.360	-0.060
2020/01/31 14:28:31.1	0.230	-0.090	0.310	-0.010
2020/01/31 14:28:31.2	0.220	-0.060	0.260	0.050
2020/01/31 14:28:31.3	0.220	-0.020	0.200	0.100
2020/01/31 14:28:31.4	0.210	0.020	0.140	0.160
2020/01/31 14:28:31.5	0.210	0.070	0.070	0.210
2020/01/31 14:28:31.6	0.200	0.110	0.010	0.260
2020/01/31 14:28:31.7	0.200	0.150	-0.060	0.310
2020/01/31 14:28:31.8	0.200	0.200	-0.130	0.350
2020/01/31 14:28:31.9	0.200	0.250	-0.200	0.400
2020/01/31 14:28:32.0	0.200	0.290	-0.270	0.440
2020/01/31 14:28:32.1	0.200	0.340	-0.340	0.480
2020/01/31 14:28:32.2	0.200	0.380	-0.410	0.520
2020/01/31 14:28:32.3	0.200	0.420	-0.480	0.550
2020/01/31 14:28:32.4	0.200	0.470	-0.540	0.580
2020/01/31 14:28:32.5	0.200	0.510	-0.600	0.610
2020/01/31 14:28:32.6	0.200	0.550	-0.660	0.640
2020/01/31 14:28:32.7	0.210	0.580	-0.720	0.660
2020/01/31 14:28:32.8	0.210	0.610	-0.770	0.680
2020/01/31 14:28:32.9	0.220	0.640	-0.820	0.690
2020/01/31 14:28:33.0	0.220	0.670	-0.870	0.700
2020/01/31 14:28:33.1	0.220	0.690	-0.900	0.710
2020/01/31 14:28:33.2	0.220	0.710	-0.940	0.710
2020/01/31 14:28:33.3	0.220	0.730	-0.970	0.710
2020/01/31 14:28:33.4	0.220	0.740	-1.000	0.710
2020/01/31 14:28:33.5	0.220	0.750	-1.020	0.700
2020/01/31 14:28:33.6	0.220	0.750	-1.030	0.680
2020/01/31 14:28:33.7	0.220	0.750	-1.040	0.660
2020/01/31 14:28:33.8	0.220	0.740	-1.050	0.640
2020/01/31 14:28:33.9	0.220	0.730	-1.040	0.610
2020/01/31 14:28:34.0	0.210	0.720	-1.040	0.580
2020/01/31 14:28:34.1	0.210	0.700	-1.020	0.550
2020/01/31 14:28:34.2	0.210	0.680	-1.010	0.520
2020/01/31 14:28:34.3	0.210	0.650	-0.990	0.480
2020/01/31 14:28:34.4	0.210	0.620	-0.960	0.440
2020/01/31 14:28:34.5	0.210	0.590	-0.940	0.410
2020/01/31 14:28:34.6	0.210	0.550	-0.910	0.360
2020/01/31 14:28:34.7	0.210	0.510	-0.870	0.320
2020/01/31 14:28:34.8	0.210	0.470	-0.830	0.270
2020/01/31 14:28:34.9	0.210	0.430	-0.790	0.230
2020/01/31 14:28:35.0	0.210	0.390	-0.750	0.180
2020/01/31 14:28:35.1	0.220	0.340	-0.710	0.140
2020/01/31 14:28:35.2	0.220	0.290	-0.670	0.090
2020/01/31 14:28:35.3	0.220	0.250	-0.630	0.050
2020/01/31 14:28:35.4	0.230	0.200	-0.580	-0.000
2020/01/31 14:28:35.5	0.230	0.150	-0.540	-0.050
2020/01/31 14:28:35.6	0.230	0.100	-0.500	-0.100
2020/01/31 14:28:35.7	0.240	0.050	-0.460	-0.140
2020/01/31 14:28:35.8	0.240	0.010	-0.410	-0.190
2020/01/31 14:28:35.9	0.240	-0.040	-0.370	-0.240
2020/01/31 14:28:36.0	0.240	-0.080	-0.330	-0.290
2020/01/31 14:28:36.1	0.240	-0.130	-0.300	-0.340
2020/01/31 14:28:36.2	0.240	-0.170	-0.260	-0.390
2020/01/31 14:28:36.3	0.240	-0.210	-0.230	-0.440
2020/01/31 14:28:36.4	0.250	-0.250	-0.200	-0.490
2020/01/31 14:28:36.5	0.250	-0.280	-0.170	-0.540
2020/01/31 14:28:36.6	0.250	-0.310	-0.140	-0.600
2020/01/31 14:28:36.7	0.240	-0.350	-0.120	-0.660
2020/01/31 14:28:36.8	0.250	-0.370	-0.100	-0.710
2020/01/31 14:28:36.9	0.260	-0.400	-0.090	-0.770
2020/01/31 14:28:37.0	0.270	-0.420	-0.070	-0.830
2020/01/31 14:28:37.1	0.280	-0.440	-0.060	-0.880
2020/01/31 14:28:37.2	0.290	-0.460	-0.050	-0.940
2020/01/31 14:28:37.3	0.310	-0.470	-0.040	-1.000
2020/01/31 14:28:37.4	0.320	-0.480	-0.030	-1.060
2020/01/31 14:28:37.5	0.340	-0.490	-0.030	-1.110
2020/01/31 14:28:37.6	0.360	-0.500	-0.020	-1.160
2020/01/31 14:28:37.7	0.370	-0.510	-0.020	-1.220
2020/01/31 14:28:37.8	0.390	-0.510	-0.010	-1.270
2020/01/31 14:28:37.9	0.400	-0.510	-0.010	-1.320
2020/01/31 14:28:38.0	0.420	-0.520	0.000	-1.360
2020/01/31 14:28:38.1	0.440	-0.520	0.010	-1.400
2020/01/31 14:28:38.2	0.450	-0.510	0.020	-1.440
2020/01/31 14:28:38.3	0.470	-0.510	0.030	-1.470
2020/01/31 14:28:38.4	0.480	-0.510	0.050	-1.500
2020/01/31 14:28:38.5	0.490	-0.500	0.060	-1.530
2020/01/31 14:28:38.6	0.490	-0.500	0.080	-1.540
2020/01/31 14:28:38.7	0.490	-0.500	0.100	-1.560
2020/01/31 14:28:38.8	0.500	-0.490	0.130	-1.570
2020/01/31 14:28:38.9	0.500	-0.480	0.150	-1.570
2020/01/31 14:28:39.0	0.490	-0.480	0.180	-1.570
2020/01/31 14:28:39.1	0.490	-0.470	0.210	-1.560
2020/01/31 14:28:39.2	0.490	-0.470	0.240	-1.550
2020/01/31 14:28:39.3	0.480	-0.460	0.270	-1.530
2020/01/31 14:28:39.4	0.470	-0.450	0.300	-1.510
2020/01/31 14:28:39.5	0.460	-0.440	0.330	-1.480
2020/01/31 14:28:39.6	0.450	-0.430	0.360	-1.450
2020/01/31 14:28:39.7	0.420	-0.430	0.390	-1.410
2020/01/31 14:28:39.8	0.400	-0.420	0.410	-1.370
2020/01/31 14:28:39.9	0.390	-0.410	0.440	-1.320
2020/01/31 14:28:40.0	0.370	-0.400	0.460	-1.280
2020/01/31 14:28:40.1	0.350	-0.390	0.470	-1.220
2020/01/31 14:28:40.2	0.330	-0.380	0.490	-1.170
2020/01/31 14:28:40.3	0.320	-0.370	0.500	-1.120
2020/01/31 14:28:40.4	0.300	-0.350	0.500	-1.060
2020/01/31 14:28:40.5	0.280	-0.340	0.500	-1.000
2020/01/31 14:28:40.6	0.260	-0.330	0.500	-0.940
2020/01/31 14:28:40.7	0.220	-0.310	0.490	-0.880
2020/01/31 14:28:40.8	0.200	-0.300	0.480	-0.820
2020/01/31 14:28:40.9	0.180	-0.280	0.460	-0.760
2020/01/31 14:28:41.0	0.160	-0.260	0.430	-0.690
2020/01/31 14:28:41.1	0.130	-0.250	0.400	-0.630
2020/01/31 14:28:41.2	0.110	-0.230	0.370	-0.570
2020/01/31 14:28:41.3	0.090	-0.210	0.330	-0.510
2020/01/31 14:28:41.4	0.060	-0.180	0.290	-0.450
2020/01/31 14:28:41.5	0.040	-0.160	0.240	-0.380
2020/01/31 14:28:41.6	0.010	-0.140	0.190	-0.330
2020/01/31 14:28:41.7	359.970	-0.120	0.140	-0.270
2020/01/31 14:28:41.8	359.940	-0.090	0.080	-0.210
2020/01/31 14:28:41.9	359.920	-0.070	0.020	-0.160
2020/01/31 14:28:42.0	359.890	-0.050	-0.040	-0.110
2020/01/31 14:28:42.1	359.870	-0.020	-0.100	-0.060
2020/01/31 14:28:42.2	359.840	0.000	-0.170	-0.010
2020/01/31 14:28:42.3	359.820	0.020	-0.240	0.030
2020/01/31 14:28:42.4	359.800	0.050	-0.310	0.070
2020/01/31 14:28:42.5	359.780	0.070	-0.380	0.110
2020/01/31 14:28:42.6	359.760	0.100	-0.450	0.140
2020/01/31 14:28:42.7	359.760	0.120	-0.520	0.180
2020/01/31 14:28:42.8	359.740	0.140	-0.590	0.210
2020/01/31 14:28:42.9	359.720	0.160	-0.660	0.240
2020/01/31 14:28:43.0	359.710	0.190	-0.730	0.270
2020/01/31 14:28:43.1	359.700	0.210	-0.790	0.300
2020/01/31 14:28:43.2	359.690	0.230	-0.860	0.320
2020/01/31 14:28:43.3	359.680	0.250	-0.920	0.340
2020/01/31 14:28:43.4	359.670	0.270	-0.980	0.360
2020/01/31 14:28:43.5	359.670	0.290	-1.030	0.380
2020/01/31 14:28:43.6	359.670	0.310	-1.080	0.390
2020/01/31 14:28:43.7	359.680	0.330	-1.130	0.400
2020/01/31 14:28:43.8	359.690	0.350	-1.180	0.410
2020/01/31 14:28:43.9	359.690	0.360	-1.220	0.420
2020/01/31 14:28:44.0	359.700	0.380	-1.250	0.430
2020/01/31 14:28:44.1	359.720	0.400	-1.280	0.430
2020/01/31 14:28:44.2	359.740	0.420	-1.310	0.430
2020/01/31 14:28:44.3	359.760	0.430	-1.330	0.430
2020/01/31 14:28:44.4	359.780	0.450	-1.350	0.420
2020/01/31 14:28:44.5	359.810	0.470	-1.360	0.410
2020/01/31 14:28:44.6	359.850	0.480	-1.370	0.390
2020/01/31 14:28:44.7	359.890	0.500	-1.370	0.370
2020/01/31 14:28:44.8	359.930	0.510	-1.370	0.350
2020/01/31 14:28:44.9	359.970	0.530	-1.370	0.330
2020/01/31 14:28:45.0	0.020	0.540	-1.360	0.310
2020/01/31 14:28:45.1	0.060	0.560	-1.350	0.280
2020/01/31 14:28:45.2	0.110	0.570	-1.330	0.260
2020/01/31 14:28:45.3	0.160	0.580	-1.310	0.230
2020/01/31 14:28:45.4	0.200	0.580	-1.280	0.210
2020/01/31 14:28:45.5	0.240	0.590	-1.240	0.190
2020/01/31 14:28:45.6	0.280	0.590	-1.200	0.170
2020/01/31 14:28:45.7	0.330	0.590	-1.150	0.150
2020/01/31 14:28:45.8	0.360	0.580	-1.100	0.140
2020/01/31 14:28:45.9	0.390	0.580	-1.040	0.120
2020/01/31 14:28:46.0	0.410	0.560	-0.970	0.110
2020/01/31 14:28:46.1	0.430	0.550	-0.900	0.100
2020/01/31 14:28:46.2	0.450	0.540	-0.820	0.090
2020/01/31 14:28:46.3	0.470	0.520	-0.740	0.080
2020/01/31 14:28:46.4	0.480	0.500	-0.660	0.080
2020/01/31 14:28:46.5	0.490	0.470	-0.570	0.080
2020/01/31 14:28:46.6	0.500	0.450	-0.490	0.070
2020/01/31 14:28:46.7	0.500	0.420	-0.400	0.070
2020/01/31 14:28:46.8	0.500	0.390	-0.310	0.070
2020/01/31 14:28:46.9	0.500	0.360	-0.220	0.070
2020/01/31 14:28:47.0	0.500	0.330	-0.130	0.070
2020/01/31 14:28:47.1	0.500	0.290	-0.040	0.070
2020/01/31 14:28:47.2	0.500	0.260	0.050	0.070
2020/01/31 14:28:47.3	0.500	0.230	0.130	0.070
2020/01/31 14:28:47.4	0.490	0.190	0.210	0.070
2020/01/31 14:28:47.5	0.490	0.160	0.280	0.070
2020/01/31 14:28:47.6	0.490	0.130	0.350	0.060
2020/01/31 14:28:47.7	0.480	0.090	0.410	0.050
2020/01/31 14:28:47.8	0.480	0.060	0.470	0.050
2020/01/31 14:28:47.9	0.480	0.030	0.520	0.040
2020/01/31 14:28:48.0	0.480	0.010	0.560	0.030
2020/01/31 14:28:48.1	0.470	-0.020	0.600	0.020
2020/01/31 14:28:48.2	0.470	-0.040	0.640	0.020
2020/01/31 14:28:48.3	0.470	-0.060	0.670	0.010
2020/01/31 14:28:48.4	0.470	-0.080	0.690	-0.000
2020/01/31 14:28:48.5	0.460	-0.100	0.710	-0.010
2020/01/31 14:28:48.6	0.460	-0.120	0.720	-0.020
2020/01/31 14:28:48.7	0.420	-0.130	0.730	-0.020
2020/01/31 14:28:48.8	0.410	-0.150	0.740	-0.030
2020/01/31 14:28:48.9	0.400	-0.160	0.740	-0.030
2020/01/31 14:28:49.0	0.380	-0.170	0.740	-0.030
2020/01/31 14:28:49.1	0.360	-0.180	0.740	-0.030
2020/01/31 14:28:49.2	0.330	-0.190	0.740	-0.030
2020/01/31 14:28:49.3	0.310	-0.200	0.740	-0.030
2020/01/31 14:28:49.4	0.280	-0.210	0.730	-0.030
2020/01/31 14:28:49.5	0.240	-0.220	0.730	-0.020
2020/01/31 14:28:49.6	0.210	-0.230	0.720	-0.010
2020/01/31 14:28:49.7	0.180	-0.240	0.710	-0.010
2020/01/31 14:28:49.8	0.140	-0.250	0.700	-0.000
2020/01/31 14:28:49.9	0.090	-0.260	0.690	0.010
2020/01/31 14:28:50.0	0.050	-0.270	0.680	0.020
2020/01/31 14:28:50.1	0.000	-0.280	0.660	0.030
2020/01/31 14:28:50.2	359.950	-0.290	0.650	0.040
2020/01/31 14:28:50.3	359.900	-0.300	0.630	0.060
2020/01/31 14:28:50.4	359.850	-0.320	0.610	0.070
2020/01/31 14:28:50.5	359.800	-0.330	0.590	0.080
2020/01/31 14:28:50.6	359.750	-0.350	0.560	0.100
2020/01/31 14:28:50.7	359.690	-0.360	0.530	0.110
2020/01/31 14:28:50.8	359.640	-0.380	0.500	0.120
2020/01/31 14:28:50.9	359.590	-0.390	0.470	0.120
2020/01/31 14:28:51.0	359.550	-0.410	0.430	0.130
2020/01/31 14:28:51.1	359.510	-0.420	0.380	0.120
2020/01/31 14:28:51.2	359.470	-0.440	0.330	0.120
2020/01/31 14:28:51.3	359.440	-0.450	0.280	0.110
2020/01/31 14:28:51.4	359.410	-0.460	0.220	0.100
2020/01/31 14:28:51.5	359.380	-0.470	0.160	0.080
2020/01/31 14:28:51.6	359.360	-0.480	0.100	0.050
2020/01/31 14:28:51.7	359.340	-0.490	0.030	0.020
2020/01/31 14:28:51.8	359.320	-0.500	-0.040	-0.020
2020/01/31 14:28:51.9	359.310	-0.500	-0.110	-0.060
2020/01/31 14:28:52.0	359.300	-0.500	-0.190	-0.100
2020/01/31 14:28:52.1	359.300	-0.500	-0.270	-0.140
2020/01/31 14:28:52.2	359.300	-0.500	-0.350	-0.190
2020/01/31 14:28:52.3	359.300	-0.490	-0.430	-0.250
2020/01/31 14:28:52.4	359.310	-0.480	-0.510	-0.310
2020/01/31 14:28:52.5	359.330	-0.470	-0.590	-0.370
2020/01/31 14:28:52.6	359.350	-0.450	-0.670	-0.430
2020/01/31 14:28:52.7	359.390	-0.430	-0.740	-0.490
2020/01/31 14:28:52.8	359.420	-0.410	-0.820	-0.560
2020/01/31 14:28:52.9	359.450	-0.390	-0.890	-0.620
2020/01/31 14:28:53.0	359.490	-0.360	-0.960	-0.690
2020/01/31 14:28:53.1	359.530	-0.330	-1.030	-0.760
2020/01/31 14:28:53.2	359.570	-0.300	-1.090	-0.830
2020/01/31 14:28:53.3	359.610	-0.260	-1.150	-0.890
2020/01/31 14:28:53.4	359.660	-0.230	-1.200	-0.960
2020/01/31 14:28:53.5	359.710	-0.190	-1.250	-1.020
2020/01/31 14:28:53.6	359.760	-0.160	-1.300	-1.090
2020/01/31 14:28:53.7	359.820	-0.120	-1.340	-1.150
2020/01/31 14:28:53.8	359.870	-0.080	-1.370	-1.210
2020/01/31 14:28:53.9	359.930	-0.050	-1.400	-1.270
2020/01/31 14:28:54.0	359.990	-0.010	-1.420	-1.330
2020/01/31 14:28:54.1	0.050	0.030	-1.430	-1.390
2020/01/31 14:28:54.2	0.110	0.060	-1.440	-1.440
2020/01/31 14:28:54.3	0.180	0.090	-1.440	-1.490
2020/01/31 14:28:54.4	0.240	0.120	-1.440	-1.540
2020/01/31 14:28:54.5	0.300	0.150	-1.430	-1.590
2020/01/31 14:28:54.6	0.370	0.170	-1.420	-1.630
2020/01/31 14:28:54.7	0.430	0.190	-1.390	-1.670
2020/01/31 14:28:54.8	0.490	0.210	-1.370	-1.710
2020/01/31 14:28:54.9	0.550	0.230	-1.330	-1.740
2020/01/31 14:28:55.0	0.600	0.240	-1.290	-1.770
2020/01/31 14:28:55.1	0.660	0.250	-1.250	-1.790
2020/01/31 14:28:55.2	0.710	0.250	-1.200	-1.810
2020/01/31 14:28:55.3	0.750	0.250	-1.140	-1.820
2020/01/31 14:28:55.4	0.790	0.250	-1.080	-1.830
2020/01/31 14:28:55.5	0.810	0.240	-1.010	-1.820
2020/01/31 14:28:55.6	0.840	0.230	-0.940	-1.810
2020/01/31 14:28:55.7	0.860	0.210	-0.870	-1.790
2020/01/31 14:28:55.8	0.870	0.200	-0.790	-1.770
2020/01/31 14:28:55.9	0.870	0.180	-0.700	-1.740
2020/01/31 14:28:56.0	0.860	0.150	-0.610	-1.700
2020/01/31 14:28:56.1	0.850	0.130	-0.520	-1.660
2020/01/31 14:28:56.2	0.820	0.100	-0.430	-1.600
2020/01/31 14:28:56.3	0.790	0.070	-0.330	-1.540
2020/01/31 14:28:56.4	0.760	0.040	-0.240	-1.480
2020/01/31 14:28:56.5	0.710	0.010	-0.140	-1.410
2020/01/31 14:28:56.6	0.670	-0.020	-0.050	-1.330
2020/01/31 14:28:56.7	0.610	-0.050	0.040	-1.260
2020/01/31 14:28:56.8	0.550	-0.080	0.130	-1.170
2020/01/31 14:28:56.9	0.490	-0.110	0.210	-1.090
2020/01/31 14:28:57.0	0.430	-0.140	0.300	-1.000
2020/01/31 14:28:57.1	0.360	-0.170	0.370	-0.910
2020/01/31 14:28:57.2	0.300	-0.190	0.440	-0.820
2020/01/31 14:28:57.3	0.230	-0.220	0.510	-0.720
2020/01/31 14:28:57.4	0.160	-0.230	0.570	-0.630
2020/01/31 14:28:57.5	0.100	-0.250	0.620	-0.540
2020/01/31 14:28:57.6	0.030	-0.260	0.670	-0.450
2020/01/31 14:28:57.7	359.950	-0.270	0.710	-0.360
2020/01/31 14:28:57.8	359.890	-0.270	0.750	-0.270
2020/01/31 14:28:57.9	359.830	-0.270	0.770	-0.180
2020/01/31 14:28:58.0	359.780	-0.260	0.780	-0.100
2020/01/31 14:28:58.1	359.730	-0.240	0.790	-0.020
2020/01/31 14:28:58.2	359.680	-0.230	0.790	0.060
2020/01/31 14:28:58.3	359.630	-0.200	0.780	0.140
2020/01/31 14:28:58.4	359.590	-0.170	0.760	0.210
2020/01/31 14:28:58.5	359.550	-0.130	0.740	0.280
2020/01/31 14:28:58.6	359.520	-0.090	0.710	0.350
2020/01/31 14:28:58.7	359.480	-0.050	0.670	0.410
2020/01/31 14:28:58.8	359.450	0.000	0.630	0.480
2020/01/31 14:28:58.9	359.430	0.050	0.580	0.540
2020/01/31 14:28:59.0	359.400	0.110	0.520	0.600
2020/01/31 14:28:59.1	359.390	0.170	0.460	0.650
2020/01/31 14:28:59.2	359.370	0.230	0.400	0.700
2020/01/31 14:28:59.3	359.350	0.290	0.340	0.750
2020/01/31 14:28:59.4	359.340	0.360	0.270	0.800
2020/01/31 14:28:59.5	359.330	0.420	0.200	0.840
2020/01/31 14:28:59.6	359.320	0.480	0.130	0.880
2020/01/31 14:28:59.7	359.310	0.540	0.070	0.910
2020/01/31 14:28:59.8	359.300	0.600	-0.000	0.940
2020/01/31 14:28:59.9	359.300	0.650	-0.070	0.970
2020/01/31 14:29:00.0	359.290	0.700	-0.140	1.000
2020/01/31 14:29:00.1	359.290	0.750	-0.200	1.020
2020/01/31 14:29:00.2	359.280	0.790	-0.270	1.030
2020/01/31 14:29:00.3	359.280	0.820	-0.320	1.050
2020/01/31 14:29:00.4	359.280	0.850	-0.380	1.060
2020/01/31 14:29:00.5	359.280	0.870	-0.430	1.060
2020/01/31 14:29:00.6	359.280	0.890	-0.480	1.070
2020/01/31 14:29:00.7	359.290	0.900	-0.530	1.060
2020/01/31 14:29:00.8	359.290	0.900	-0.570	1.060
2020/01/31 14:29:00.9	359.300	0.900	-0.610	1.050
2020/01/31 14:29:01.0	359.310	0.890	-0.650	1.040
2020/01/31 14:29:01.1	359.310	0.870	-0.680	1.030
2020/01/31 14:29:01.2	359.330	0.850	-0.710	1.020
2020/01/31 14:29:01.3	359.340	0.820	-0.730	1.000
2020/01/31 14:29:01.4	359.350	0.780	-0.750	0.970
2020/01/31 14:29:01.5	359.370	0.740	-0.760	0.950
2020/01/31 14:29:01.6	359.390	0.690	-0.780	0.920
2020/01/31 14:29:01.7	359.420	0.640	-0.780	0.890
2020/01/31 14:29:01.8	359.450	0.580	-0.790	0.850
2020/01/31 14:29:01.9	359.480	0.520	-0.790	0.810
2020/01/31 14:29:02.0	359.500	0.460	-0.800	0.770
2020/01/31 14:29:02.1	359.540	0.400	-0.800	0.720
2020/01/31 14:29:02.2	359.570	0.330	-0.790	0.660
2020/01/31 14:29:02.3	359.610	0.260	-0.790	0.610
2020/01/31 14:29:02.4	359.640	0.190	-0.780	0.550
2020/01/31 14:29:02.5	359.680	0.120	-0.780	0.480
2020/01/31 14:29:02.6	359.730	0.060	-0.770	0.410
2020/01/31 14:29:02.7	359.780	-0.010	-0.760	0.330
2020/01/31 14:29:02.8	359.820	-0.080	-0.750	0.250
2020/01/31 14:29:02.9	359.870	-0.140	-0.740	0.170
2020/01/31 14:29:03.0	359.910	-0.210	-0.720	0.090
2020/01/31 14:29:03.1	359.950	-0.270	-0.700	0.010
2020/01/31 14:29:03.2	0.000	-0.320	-0.680	-0.080
2020/01/31 14:29:03.3	0.040	-0.380	-0.660	-0.160
2020/01/31 14:29:03.4	0.080	-0.430	-0.640	-0.250
2020/01/31 14:29:03.5	0.120	-0.480	-0.610	-0.340
2020/01/31 14:29:03.6	0.160	-0.520	-0.580	-0.420
2020/01/31 14:29:03.7	0.190	-0.560	-0.550	-0.510
2020/01/31 14:29:03.8	0.230	-0.600	-0.510	-0.590
2020/01/31 14:29:03.9	0.260	-0.630	-0.480	-0.670
2020/01/31 14:29:04.0	0.290	-0.660	-0.440	-0.750
2020/01/31 14:29:04.1	0.320	-0.690	-0.400	-0.830
2020/01/31 14:29:04.2	0.350	-0.710	-0.360	-0.900
2020/01/31 14:29:04.3	0.370	-0.730	-0.310	-0.970
2020/01/31 14:29:04.4	0.400	-0.740	-0.270	-1.040
2020/01/31 14:29:04.5	0.420	-0.750	-0.230	-1.100
2020/01/31 14:29:04.6	0.440	-0.760	-0.180	-1.160
2020/01/31 14:29:04.7	0.450	-0.770	-0.130	-1.220
2020/01/31 14:29:04.8	0.460	-0.770	-0.090	-1.270
2020/01/31 14:29:04.9	0.470	-0.770	-0.040	-1.320
2020/01/31 14:29:05.0	0.480	-0.770	0.000	-1.360
2020/01/31 14:29:05.1	0.480	-0.760	0.050	-1.390
2020/01/31 14:29:05.2	0.490	-0.760	0.090	-1.430
2020/01/31 14:29:05.3	0.490	-0.750	0.140	-1.450
2020/01/31 14:29:05.4	0.490	-0.740	0.180	-1.470
2020/01/31 14:29:05.5	0.480	-0.730	0.220	-1.490
2020/01/31 14:29:05.6	0.470	-0.710	0.250	-1.500
2020/01/31 14:29:05.7	0.450	-0.700	0.290	-1.510
2020/01/31 14:29:05.8	0.440	-0.680	0.320	-1.510
2020/01/31 14:29:05.9	0.420	-0.670	0.350	-1.510
2020/01/31 14:29:06.0	0.410	-0.650	0.380	-1.500
2020/01/31 14:29:06.1	0.390	-0.630	0.400	-1.490
2020/01/31 14:29:06.2	0.370	-0.610	0.420	-1.470
2020/01/31 14:29:06.3	0.350	-0.590	0.440	-1.450
2020/01/31 14:29:06.4	0.320	-0.560	0.450	-1.430
2020/01/31 14:29:06.5	0.300	-0.540	0.460	-1.400
2020/01/31 14:29:06.6	0.270	-0.520	0.460	-1.370
2020/01/31 14:29:06.7	0.240	-0.490	0.460	-1.340
2020/01/31 14:29:06.8	0.210	-0.470	0.450	-1.300
2020/01/31 14:29:06.9	0.170	-0.440	0.450	-1.260
2020/01/31 14:29:07.0	0.140	-0.420	0.430	-1.220
2020/01/31 14:29:07.1	0.100	-0.390	0.420	-1.170
2020/01/31 14:29:07.2	0.060	-0.360	0.400	-1.120
2020/01/31 14:29:07.3	0.020	-0.330	0.380	-1.070
2020/01/31 14:29:07.4	359.980	-0.300	0.350	-1.010
2020/01/31 14:29:07.5	359.950	-0.270	0.320	-0.960
2020/01/31 14:29:07.6	359.910	-0.240	0.290	-0.900
2020/01/31 14:29:07.7	359.860	-0.200	0.250	-0.840
2020/01/31 14:29:07.8	359.820	-0.170	0.210	-0.780
2020/01/31 14:29:07.9	359.780	-0.140	0.170	-0.720
2020/01/31 14:29:08.0	359.750	-0.100	0.130	-0.660
2020/01/31 14:29:08.1	359.710	-0.070	0.080	-0.600
2020/01/31 14:29:08.2	359.680	-0.040	0.030	-0.530
2020/01/31 14:29:08.3	359.650	-0.000	-0.020	-0.470
2020/01/31 14:29:08.4	359.620	0.030	-0.070	-0.410
2020/01/31 14:29:08.5	359.600	0.070	-0.130	-0.360
2020/01/31 14:29:08.6	359.570	0.100	-0.180	-0.300
2020/01/31 14:29:08.7	359.570	0.140	-0.240	-0.250
2020/01/31 14:29:08.8	359.550	0.170	-0.300	-0.190
2020/01/31 14:29:08.9	359.540	0.210	-0.360	-0.140
2020/01/31 14:29:09.0	359.520	0.240	-0.420	-0.090
2020/01/31 14:29:09.1	359.510	0.270	-0.480	-0.050
2020/01/31 14:29:09.2	359.510	0.300	-0.530	-0.000
2020/01/31 14:29:09.3	359.500	0.330	-0.590	0.040
2020/01/31 14:29:09.4	359.500	0.360	-0.650	0.080
2020/01/31 14:29:09.5	359.500	0.380	-0.700	0.110
2020/01/31 14:29:09.6	359.500	0.410	-0.750	0.140
2020/01/31 14:29:09.7	359.500	0.430	-0.790	0.180
2020/01/31 14:29:09.8	359.500	0.450	-0.840	0.200
2020/01/31 14:29:09.9	359.510	0.470	-0.880	0.230
2020/01/31 14:29:10.0	359.510	0.490	-0.920	0.250
2020/01/31 14:29:10.1	359.520	0.510	-0.950	0.270
2020/01/31 14:29:10.2	359.530	0.520	-0.980	0.290
2020/01/31 14:29:10.3	359.530	0.530	-1.000	0.310
2020/01/31 14:29:10.4	359.540	0.540	-1.020	0.320
2020/01/31 14:29:10.5	359.550	0.550	-1.030	0.330
2020/01/31 14:29:10.6	359.560	0.550	-1.040	0.350
2020/01/31 14:29:10.7	359.570	0.550	-1.050	0.350
2020/01/31 14:29:10.8	359.580	0.550	-1.050	0.360
2020/01/31 14:29:10.9	359.590	0.550	-1.040	0.370
2020/01/31 14:29:11.0	359.600	0.550	-1.030	0.380
2020/01/31 14:29:11.1	359.610	0.540	-1.010	0.390
2020/01/31 14:29:11.2	359.620	0.540	-0.990	0.390
2020/01/31 14:29:11.3	359.640	0.530	-0.970	0.390
2020/01/31 14:29:11.4	359.650	0.520	-0.940	0.400
2020/01/31 14:29:11.5	359.670	0.510	-0.910	0.400
2020/01/31 14:29:11.6	359.680	0.500	-0.880	0.400
2020/01/31 14:29:11.7	359.690	0.480	-0.840	0.390
2020/01/31 14:29:11.8	359.700	0.470	-0.800	0.390
2020/01/31 14:29:11.9	359.730	0.460	-0.770	0.390
2020/01/31 14:29:12.0	359.750	0.440	-0.730	0.380
2020/01/31 14:29:12.1	359.770	0.430	-0.690	0.380
2020/01/31 14:29:12.2	359.790	0.410	-0.650	0.370
2020/01/31 14:29:12.3	359.820	0.400	-0.610	0.360
2020/01/31 14:29:12.4	359.840	0.380	-0.580	0.360
2020/01/31 14:29:12.5	359.870	0.370	-0.540	0.350
2020/01/31 14:29:12.6	359.900	0.360	-0.500	0.340
2020/01/31 14:29:12.7	359.920	0.350	-0.460	0.330
2020/01/31 14:29:12.8	359.950	0.330	-0.430	0.320
2020/01/31 14:29:12.9	359.990	0.320	-0.390	0.310
2020/01/31 14:29:13.0	0.020	0.310	-0.360	0.300
2020/01/31 14:29:13.1	0.050	0.300	-0.320	0.290
2020/01/31 14:29:13.2	0.080	0.290	-0.290	0.280
2020/01/31 14:29:13.3	0.120	0.280	-0.260	0.270
2020/01/31 14:29:13.4	0.150	0.270	-0.220	0.260
2020/01/31 14:29:13.5	0.180	0.260	-0.190	0.250
2020/01/31 14:29:13.6	0.220	0.260	-0.160	0.240
2020/01/31 14:29:13.7	0.240	0.250	-0.130	0.230
2020/01/31 14:29:13.8	0.280	0.240	-0.090	0.220
2020/01/31 14:29:13.9	0.310	0.230	-0.060	0.210
2020/01/31 14:29:14.0	0.340	0.220	-0.030	0.200
2020/01/31 14:29:14.1	0.370	0.210	-0.000	0.190
2020/01/31 14:29:14.2	0.400	0.200	0.030	0.190
2020/01/31 14:29:14.3	0.430	0.180	0.060	0.180
2020/01/31 14:29:14.4	0.460	0.170	0.090	0.170
2020/01/31 14:29:14.5	0.480	0.150	0.120	0.170
2020/01/31 14:29:14.6	0.510	0.140	0.140	0.160
2020/01/31 14:29:14.7	0.520	0.120	0.170	0.160
2020/01/31 14:29:14.8	0.540	0.100	0.200	0.150
2020/01/31 14:29:14.9	0.560	0.070	0.230	0.140
2020/01/31 14:29:15.0	0.580	0.050	0.250	0.130
2020/01/31 14:29:15.1	0.590	0.020	0.270	0.120
2020/01/31 14:29:15.2	0.610	-0.010	0.290	0.110
2020/01/31 14:29:15.3	0.620	-0.040	0.310	0.100
2020/01/31 14:29:15.4	0.630	-0.070	0.330	0.080
2020/01/31 14:29:15.5	0.650	-0.100	0.350	0.070
2020/01/31 14:29:15.6	0.650	-0.140	0.360	0.050
2020/01/31 14:29:15.7	0.670	-0.180	0.380	0.030
2020/01/31 14:29:15.8	0.670	-0.210	0.380	0.010
2020/01/31 14:29:15.9	0.680	-0.250	0.390	-0.010
2020/01/31 14:29:16.0	0.680	-0.290	0.390	-0.030
2020/01/31 14:29:16.1	0.680	-0.330	0.390	-0.050
2020/01/31 14:29:16.2	0.680	-0.380	0.390	-0.070
2020/01/31 14:29:16.3	0.680	-0.420	0.390	-0.090
2020/01/31 14:29:16.4	0.670	-0.460	0.380	-0.110
2020/01/31 14:29:16.5	0.660	-0.500	0.370	-0.130
2020/01/31 14:29:16.6	0.650	-0.540	0.360	-0.150
2020/01/31 14:29:16.7	0.630	-0.580	0.350	-0.170
2020/01/31 14:29:16.8	0.610	-0.620	0.340	-0.190
2020/01/31 14:29:16.9	0.590	-0.650	0.320	-0.200
2020/01/31 14:29:17.0	0.570	-0.690	0.300	-0.220
2020/01/31 14:29:17.1	0.550	-0.720	0.280	-0.230
2020/01/31 14:29:17.2	0.530	-0.750	0.260	-0.250
2020/01/31 14:29:17.3	0.500	-0.770	0.240	-0.260
2020/01/31 14:29:17.4	0.480	-0.800	0.220	-0.270
2020/01/31 14:29:17.5	0.450	-0.820	0.200	-0.290
2020/01/31 14:29:17.6	0.420	-0.840	0.170	-0.300
2020/01/31 14:29:17.7	0.400	-0.850	0.150	-0.320
2020/01/31 14:29:17.8	0.370	-0.860	0.130	-0.340
2020/01/31 14:29:17.9	0.340	-0.870	0.100	-0.350
2020/01/31 14:29:18.0	0.320	-0.870	0.080	-0.370
2020/01/31 14:29:18.1	0.290	-0.870	0.050	-0.390
2020/01/31 14:29:18.2	0.260	-0.860	0.020	-0.410
2020/01/31 14:29:18.3	0.240	-0.850	-0.000	-0.420
2020/01/31 14:29:18.4	0.210	-0.830	-0.030	-0.440
2020/01/31 14:29:18.5	0.190	-0.810	-0.060	-0.460
2020/01/31 14:29:18.6	0.170	-0.790	-0.080	-0.480
2020/01/31 14:29:18.7	0.150	-0.760	-0.110	-0.500
2020/01/31 14:29:18.8	0.130	-0.730	-0.140	-0.520
2020/01/31 14:29:18.9	0.120	-0.690	-0.170	-0.540
2020/01/31 14:29:19.0	0.100	-0.650	-0.200	-0.550
2020/01/31 14:29:19.1	0.080	-0.600	-0.220	-0.560
2020/01/31 14:29:19.2	0.070	-0.550	-0.250	-0.580
2020/01/31 14:29:19.3	0.050	-0.500	-0.280	-0.580
2020/01/31 14:29:19.4	0.040	-0.440	-0.310	-0.590
2020/01/31 14:29:19.5	0.030	-0.380	-0.340	-0.600
2020/01/31 14:29:19.6	0.020	-0.320	-0.370	-0.600
2020/01/31 14:29:19.7	0.010	-0.260	-0.400	-0.600
2020/01/31 14:29:19.8	0.010	-0.190	-0.430	-0.600
2020/01/31 14:29:19.9	0.010	-0.130	-0.460	-0.600
2020/01/31 14:29:20.0	0.000	-0.060	-0.490	-0.600
2020/01/31 14:29:20.1	0.000	0.010	-0.520	-0.590
2020/01/31 14:29:20.2	0.010	0.080	-0.560	-0.580
2020/01/31 14:29:20.3	0.010	0.140	-0.590	-0.570
2020/01/31 14:29:20.4	0.020	0.210	-0.620	-0.560
2020/01/31 14:29:20.5	0.030	0.270	-0.650	-0.550
2020/01/31 14:29:20.6	0.040	0.340	-0.680	-0.540
2020/01/31 14:29:20.7	0.040	0.400	-0.720	-0.520
2020/01/31 14:29:20.8	0.060	0.460	-0.750	-0.510
2020/01/31 14:29:20.9	0.070	0.510	-0.780	-0.490
2020/01/31 14:29:21.0	0.090	0.570	-0.810	-0.480
2020/01/31 14:29:21.1	0.100	0.610	-0.830	-0.460
2020/01/31 14:29:21.2	0.120	0.660	-0.860	-0.450
2020/01/31 14:29:21.3	0.140	0.700	-0.880	-0.430
2020/01/31 14:29:21.4	0.150	0.740	-0.900	-0.410
2020/01/31 14:29:21.5	0.170	0.770	-0.920	-0.390
2020/01/31 14:29:21.6	0.190	0.800	-0.940	-0.380
2020/01/31 14:29:21.7	0.200	0.820	-0.960	-0.360
2020/01/31 14:29:21.8	0.220	0.840	-0.970	-0.350
2020/01/31 14:29:21.9	0.230	0.850	-0.980	-0.330
2020/01/31 14:29:22.0	0.250	0.860	-0.980	-0.320
2020/01/31 14:29:22.1	0.270	0.860	-0.990	-0.310
2020/01/31 14:29:22.2	0.290	0.860	-0.990	-0.300
2020/01/31 14:29:22.3	0.310	0.860	-0.980	-0.290
2020/01/31 14:29:22.4	0.330	0.850	-0.980	-0.280
2020/01/31 14:29:22.5	0.350	0.840	-0.970	-0.270
2020/01/31 14:29:22.6	0.380	0.820	-0.960	-0.260
2020/01/31 14:29:22.7	0.420	0.800	-0.950	-0.250
2020/01/31 14:29:22.8	0.450	0.780	-0.930	-0.250
2020/01/31 14:29:22.9	0.480	0.750	-0.920	-0.250
2020/01/31 14:29:23.0	0.520	0.720	-0.900	-0.250
2020/01/31 14:29:23.1	0.550	0.690	-0.880	-0.260
2020/01/31 14:29:23.2	0.590	0.660	-0.850	-0.260
2020/01/31 14:29:23.3	0.630	0.620	-0.830	-0.270
2020/01/31 14:29:23.4	0.670	0.580	-0.800	-0.270
2020/01/31 14:29:23.5	0.710	0.550	-0.770	-0.280
2020/01/31 14:29:23.6	0.750	0.500	-0.740	-0.290
2020/01/31 14:29:23.7	0.780	0.460	-0.700	-0.310
2020/01/31 14:29:23.8	0.820	0.420	-0.660	-0.320
2020/01/31 14:29:23.9	0.860	0.380	-0.620	-0.330
2020/01/31 14:29:24.0	0.900	0.330	-0.570	-0.350
2020/01/31 14:29:24.1	0.940	0.290	-0.530	-0.360
2020/01/31 14:29:24.2	0.970	0.240	-0.480	-0.370
2020/01/31 14:29:24.3	1.000	0.190	-0.430	-0.380
2020/01/31 14:29:24.4	1.030	0.150	-0.370	-0.390
2020/01/31 14:29:24.5	1.050	0.100	-0.320	-0.400
2020/01/31 14:29:24.6	1.080	0.050	-0.260	-0.400
2020/01/31 14:29:24.7	1.090	0.010	-0.200	-0.410
2020/01/31 14:29:24.8	1.110	-0.040	-0.140	-0.410
2020/01/31 14:29:24.9	1.120	-0.080	-0.080	-0.410
2020/01/31 14:29:25.0	1.130	-0.130	-0.020	-0.420
2020/01/31 14:29:25.1	1.140	-0.170	0.040	-0.410
2020/01/31 14:29:25.2	1.150	-0.210	0.090	-0.410
2020/01/31 14:29:25.3	1.150	-0.250	0.150	-0.410
2020/01/31 14:29:25.4	1.150	-0.290	0.200	-0.400
2020/01/31 14:29:25.5	1.150	-0.320	0.260	-0.390
2020/01/31 14:29:25.6	1.150	-0.360	0.310	-0.390
2020/01/31 14:29:25.7	1.150	-0.390	0.350	-0.380
2020/01/31 14:29:25.8	1.150	-0.420	0.400	-0.380
2020/01/31 14:29:25.9	1.150	-0.440	0.440	-0.370
2020/01/31 14:29:26.0	1.140	-0.470	0.480	-0.360
2020/01/31 14:29:26.1	1.130	-0.490	0.520	-0.350
2020/01/31 14:29:26.2	1.130	-0.500	0.550	-0.340
2020/01/31 14:29:26.3	1.120	-0.520	0.580	-0.340
2020/01/31 14:29:26.4	1.110	-0.530	0.600	-0.330
2020/01/31 14:29:26.5	1.100	-0.540	0.630	-0.320
2020/01/31 14:29:26.6	1.090	-0.540	0.640	-0.310
2020/01/31 14:29:26.7	1.080	-0.540	0.660	-0.300
2020/01/31 14:29:26.8	1.070	-0.540	0.670	-0.280
2020/01/31 14:29:26.9	1.060	-0.530	0.670	-0.270
2020/01/31 14:29:27.0	1.040	-0.520	0.670	-0.250
2020/01/31 14:29:27.1	1.030	-0.510	0.670	-0.230
2020/01/31 14:29:27.2	1.010	-0.490	0.660	-0.210
2020/01/31 14:29:27.3	1.000	-0.480	0.650	-0.180
2020/01/31 14:29:27.4	0.980	-0.450	0.630	-0.150
2020/01/31 14:29:27.5	0.960	-0.430	0.610	-0.120
2020/01/31 14:29:27.6	0.940	-0.410	0.590	-0.090
2020/01/31 14:29:27.7	0.920	-0.380	0.560	-0.060
2020/01/31 14:29:27.8	0.890	-0.350	0.530	-0.020
2020/01/31 14:29:27.9	0.870	-0.320	0.500	0.010
2020/01/31 14:29:28.0	0.850	-0.290	0.460	0.040
2020/01/31 14:29:28.1	0.830	-0.260	0.420	0.070
2020/01/31 14:29:28.2	0.810	-0.230	0.380	0.100
2020/01/31 14:29:28.3	0.790	-0.200	0.340	0.130
2020/01/31 14:29:28.4	0.770	-0.170	0.290	0.160
2020/01/31 14:29:28.5	0.750	-0.140	0.240	0.180
2020/01/31 14:29:28.6	0.730	-0.120	0.190	0.200
2020/01/31 14:29:28.7	0.720	-0.090	0.140	0.220
2020/01/31 14:29:28.8	0.710	-0.070	0.090	0.230
2020/01/31 14:29:28.9	0.700	-0.050	0.030	0.240
2020/01/31 14:29:29.0	0.680	-0.030	-0.020	0.250
2020/01/31 14:29:29.1	0.680	-0.020	-0.080	0.260
2020/01/31 14:29:29.2	0.670	-0.010	-0.130	0.260
2020/01/31 14:29:29.3	0.660	0.000	-0.190	0.270
2020/01/31 14:29:29.4	0.660	0.010	-0.240	0.270
2020/01/31 14:29:29.5	0.660	0.020	-0.290	0.270
2020/01/31 14:29:29.6	0.660	0.020	-0.350	0.260
2020/01/31 14:29:29.7	0.660	0.020	-0.390	0.260
2020/01/31 14:29:29.8	0.670	0.020	-0.440	0.260
2020/01/31 14:29:29.9	0.670	0.010	-0.490	0.250
2020/01/31 14:29:30.0	0.680	0.000	-0.530	0.240
2020/01/31 14:29:30.1	0.680	-0.010	-0.570	0.230
2020/01/31 14:29:30.2	0.690	-0.020	-0.610	0.220
2020/01/31 14:29:30.3	0.700	-0.030	-0.640	0.210
2020/01/31 14:29:30.4	0.700	-0.040	-0.670	0.200
2020/01/31 14:29:30.5	0.710	-0.060	-0.700	0.190
2020/01/31 14:29:30.6	0.720	-0.070	-0.720	0.180
2020/01/31 14:29:30.7	0.730	-0.090	-0.740	0.160
2020/01/31 14:29:30.8	0.730	-0.100	-0.760	0.150
2020/01/31 14:29:30.9	0.730	-0.120	-0.770	0.140
2020/01/31 14:29:31.0	0.730	-0.130	-0.780	0.130
2020/01/31 14:29:31.1	0.730	-0.150	-0.780	0.110
2020/01/31 14:29:31.2	0.730	-0.160	-0.780	0.100
2020/01/31 14:29:31.3	0.720	-0.170	-0.780	0.080
2020/01/31 14:29:31.4	0.720	-0.180	-0.770	0.060
2020/01/31 14:29:31.5	0.710	-0.180	-0.760	0.040
2020/01/31 14:29:31.6	0.700	-0.190	-0.750	0.020
2020/01/31 14:29:31.7	0.680	-0.180	-0.730	-0.000
2020/01/31 14:29:31.8	0.670	-0.180	-0.720	-0.020
2020/01/31 14:29:31.9	0.660	-0.170	-0.700	-0.040
2020/01/31 14:29:32.0	0.650	-0.160	-0.680	-0.060
2020/01/31 14:29:32.1	0.640	-0.140	-0.660	-0.080
2020/01/31 14:29:32.2	0.630	-0.120	-0.630	-0.100
2020/01/31 14:29:32.3	0.620	-0.090	-0.610	-0.110
2020/01/31 14:29:32.4	0.620	-0.060	-0.590	-0.130
2020/01/31 14:29:32.5	0.610	-0.020	-0.570	-0.150
2020/01/31 14:29:32.6	0.600	0.010	-0.560	-0.170
2020/01/31 14:29:32.7	0.600	0.050	-0.540	-0.190
2020/01/31 14:29:32.8	0.600	0.100	-0.530	-0.200
2020/01/31 14:29:32.9	0.590	0.150	-0.520	-0.220
2020/01/31 14:29:33.0	0.590	0.200	-0.510	-0.240
2020/01/31 14:29:33.1	0.600	0.250	-0.500	-0.250
2020/01/31 14:29:33.2	0.600	0.300	-0.500	-0.270
2020/01/31 14:29:33.3	0.600	0.350	-0.500	-0.280
2020/01/31 14:29:33.4	0.610	0.400	-0.500	-0.300
2020/01/31 14:29:33.5	0.620	0.450	-0.500	-0.320
2020/01/31 14:29:33.6	0.630	0.500	-0.510	-0.340
2020/01/31 14:29:33.7	0.630	0.550	-0.510	-0.350
2020/01/31 14:29:33.8	0.650	0.600	-0.520	-0.370
2020/01/31 14:29:33.9	0.660	0.640	-0.530	-0.390
2020/01/31 14:29:34.0	0.670	0.680	-0.540	-0.410
2020/01/31 14:29:34.1	0.690	0.720	-0.550	-0.440
2020/01/31 14:29:34.2	0.700	0.750	-0.570	-0.460
2020/01/31 14:29:34.3	0.720	0.780	-0.580	-0.490
2020/01/31 14:29:34.4	0.740	0.800	-0.590	-0.510
2020/01/31 14:29:34.5	0.760	0.810	-0.590	-0.540
2020/01/31 14:29:34.6	0.780	0.820	-0.600	-0.560
2020/01/31 14:29:34.7	0.810	0.830	-0.600	-0.590
2020/01/31 14:29:34.8	0.830	0.830	-0.610	-0.610
2020/01/31 14:29:34.9	0.850	0.820	-0.610	-0.640
2020/01/31 14:29:35.0	0.870	0.800	-0.610	-0.660
2020/01/31 14:29:35.1	0.890	0.780	-0.600	-0.680
2020/01/31 14:29:35.2	0.910	0.760	-0.590	-0.700
2020/01/31 14:29:35.3	0.930	0.730	-0.580	-0.720
2020/01/31 14:29:35.4	0.940	0.690	-0.560	-0.730
2020/01/31 14:29:35.5	0.960	0.650	-0.540	-0.750
2020/01/31 14:29:35.6	0.970	0.600	-0.520	-0.760
2020/01/31 14:29:35.7	0.970	0.550	-0.490	-0.770
2020/01/31 14:29:35.8	0.980	0.500	-0.460	-0.770
2020/01/31 14:29:35.9	0.990	0.440	-0.420	-0.780
2020/01/31 14:29:36.0	0.990	0.370	-0.390	-0.780
2020/01/31 14:29:36.1	0.990	0.310	-0.350	-0.780
2020/01/31 14:29:36.2	0.990	0.240	-0.300	-0.780
2020/01/31 14:29:36.3	0.980	0.170	-0.260	-0.780
2020/01/31 14:29:36.4	0.970	0.100	-0.210	-0.770
2020/01/31 14:29:36.5	0.970	0.030	-0.160	-0.760
2020/01/31 14:29:36.6	0.960	-0.040	-0.120	-0.760
2020/01/31 14:29:36.7	0.950	-0.110	-0.070	-0.750
2020/01/31 14:29:36.8	0.940	-0.170	-0.020	-0.740
2020/01/31 14:29:36.9	0.930	-0.240	0.020	-0.740
2020/01/31 14:29:37.0	0.920	-0.300	0.060	-0.730
2020/01/31 14:29:37.1	0.910	-0.360	0.100	-0.720
2020/01/31 14:29:37.2	0.910	-0.420	0.130	-0.710
2020/01/31 14:29:37.3	0.900	-0.470	0.160	-0.700
2020/01/31 14:29:37.4	0.890	-0.520	0.190	-0.700
2020/01/31 14:29:37.5	0.880	-0.560	0.210	-0.690
2020/01/31 14:29:37.6	0.880	-0.600	0.240	-0.690
2020/01/31 14:29:37.7	0.860	-0.630	0.250	-0.680
2020/01/31 14:29:37.8	0.860	-0.660	0.260	-0.680
2020/01/31 14:29:37.9	0.850	-0.690	0.270	-0.680
2020/01/31 14:29:38.0	0.850	-0.700	0.280	-0.680
2020/01/31 14:29:38.1	0.850	-0.720	0.280	-0.680
2020/01/31 14:29:38.2	0.850	-0.730	0.280	-0.680
2020/01/31 14:29:38.3	0.850	-0.730	0.280	-0.680
2020/01/31 14:29:38.4	0.850	-0.730	0.280	-0.680
2020/01/31 14:29:38.5	0.850	-0.720	0.280	-0.670
2020/01/31 14:29:38.6	0.860	-0.710	0.270	-0.670
2020/01/31 14:29:38.7	0.870	-0.690	0.270	-0.670
2020/01/31 14:29:38.8	0.870	-0.670	0.260	-0.660
2020/01/31 14:29:38.9	0.870	-0.650	0.250	-0.650
2020/01/31 14:29:39.0	0.870	-0.620	0.240	-0.630
2020/01/31 14:29:39.1	0.860	-0.590	0.240	-0.620
2020/01/31 14:29:39.2	0.860	-0.550	0.230	-0.590
2020/01/31 14:29:39.3	0.850	-0.520	0.230	-0.570
2020/01/31 14:29:39.4	0.840	-0.480	0.220	-0.540
2020/01/31 14:29:39.5	0.840	-0.440	0.220	-0.500
2020/01/31 14:29:39.6	0.820	-0.400	0.220	-0.470
2020/01/31 14:29:39.7	0.800	-0.360	0.220	-0.430
2020/01/31 14:29:39.8	0.790	-0.320	0.220	-0.380
2020/01/31 14:29:39.9	0.770	-0.280	0.210	-0.340
2020/01/31 14:29:40.0	0.760	-0.240	0.210	-0.290
2020/01/31 14:29:40.1	0.740	-0.200	0.210	-0.240
2020/01/31 14:29:40.2	0.720	-0.160	0.210	-0.190
2020/01/31 14:29:40.3	0.700	-0.130	0.210	-0.140
2020/01/31 14:29:40.4	0.690	-0.100	0.200	-0.090
2020/01/31 14:29:40.5	0.670	-0.070	0.190	-0.040
2020/01/31 14:29:40.6	0.650	-0.040	0.180	0.010
2020/01/31 14:29:40.7	0.620	-0.020	0.170	0.070
2020/01/31 14:29:40.8	0.600	0.010	0.150	0.110
2020/01/31 14:29:40.9	0.580	0.020	0.130	0.160
2020/01/31 14:29:41.0	0.570	0.040	0.100	0.200
2020/01/31 14:29:41.1	0.560	0.050	0.080	0.240
2020/01/31 14:29:41.2	0.540	0.060	0.040	0.270
2020/01/31 14:29:41.3	0.530	0.060	0.010	0.300
2020/01/31 14:29:41.4	0.520	0.060	-0.030	0.320
2020/01/31 14:29:41.5	0.510	0.060	-0.080	0.340
2020/01/31 14:29:41.6	0.510	0.060	-0.120	0.360
2020/01/31 14:29:41.7	0.510	0.060	-0.170	0.360
2020/01/31 14:29:41.8	0.510	0.050	-0.230	0.360
2020/01/31 14:29:41.9	0.510	0.040	-0.280	0.350
2020/01/31 14:29:42.0	0.520	0.030	-0.340	0.340
2020/01/31 14:29:42.1	0.530	0.020	-0.410	0.320
2020/01/31 14:29:42.2	0.550	0.010	-0.470	0.300
2020/01/31 14:29:42.3	0.560	-0.010	-0.530	0.270
2020/01/31 14:29:42.4	0.590	-0.020	-0.600	0.230
2020/01/31 14:29:42.5	0.610	-0.030	-0.670	0.190
2020/01/31 14:29:42.6	0.640	-0.040	-0.730	0.150
2020/01/31 14:29:42.7	0.680	-0.050	-0.790	0.100
2020/01/31 14:29:42.8	0.720	-0.060	-0.850	0.050
2020/01/31 14:29:42.9	0.750	-0.070	-0.910	-0.010
2020/01/31 14:29:43.0	0.790	-0.070	-0.970	-0.060
2020/01/31 14:29:43.1	0.830	-0.070	-1.020	-0.120
2020/01/31 14:29:43.2	0.870	-0.070	-1.070	-0.180
2020/01/31 14:29:43.3	0.910	-0.070	-1.110	-0.230
2020/01/31 14:29:43.4	0.940	-0.070	-1.140	-0.280
2020/01/31 14:29:43.5	0.980	-0.060	-1.160	-0.330
2020/01/31 14:29:43.6	1.010	-0.050	-1.180	-0.380
2020/01/31 14:29:43.7	1.040	-0.040	-1.190	-0.420
2020/01/31 14:29:43.8	1.070	-0.020	-1.190	-0.460
2020/01/31 14:29:43.9	1.090	-0.010	-1.180	-0.490
2020/01/31 14:29:44.0	1.100	0.010	-1.160	-0.520
2020/01/31 14:29:44.1	1.120	0.030	-1.130	-0.540
2020/01/31 14:29:44.2	1.120	0.050	-1.090	-0.560
2020/01/31 14:29:44.3	1.130	0.070	-1.050	-0.570
2020/01/31 14:29:44.4	1.130	0.090	-0.990	-0.580
2020/01/31 14:29:44.5	1.120	0.120	-0.930	-0.590
2020/01/31 14:29:44.6	1.110	0.140	-0.860	-0.590
2020/01/31 14:29:44.7	1.110	0.160	-0.790	-0.580
2020/01/31 14:29:44.8	1.090	0.190	-0.710	-0.570
2020/01/31 14:29:44.9	1.070	0.210	-0.620	-0.560
2020/01/31 14:29:45.0	1.050	0.230	-0.530	-0.540
2020/01/31 14:29:45.1	1.020	0.260	-0.440	-0.520
2020/01/31 14:29:45.2	0.990	0.280	-0.360	-0.500
2020/01/31 14:29:45.3	0.960	0.300	-0.270	-0.470
2020/01/31 14:29:45.4	0.930	0.310	-0.180	-0.440
2020/01/31 14:29:45.5	0.900	0.330	-0.090	-0.410
2020/01/31 14:29:45.6	0.870	0.350	-0.010	-0.370
2020/01/31 14:29:45.7	0.830	0.360	0.060	-0.340
2020/01/31 14:29:45.8	0.800	0.370	0.140	-0.300
2020/01/31 14:29:45.9	0.760	0.380	0.200	-0.260
2020/01/31 14:29:46.0	0.730	0.390	0.260	-0.220
2020/01/31 14:29:46.1	0.700	0.400	0.310	-0.180
2020/01/31 14:29:46.2	0.670	0.410	0.350	-0.140
2020/01/31 14:29:46.3	0.640	0.410	0.380	-0.100
2020/01/31 14:29:46.4	0.620	0.410	0.400	-0.070
2020/01/31 14:29:46.5	0.590	0.420	0.420	-0.030
2020/01/31 14:29:46.6	0.570	0.420	0.420	0.000
2020/01/31 14:29:46.7	0.550	0.410	0.420	0.030
2020/01/31 14:29:46.8	0.530	0.410	0.400	0.060
2020/01/31 14:29:46.9	0.510	0.410	0.380	0.080
2020/01/31 14:29:47.0	0.500	0.400	0.350	0.100
2020/01/31 14:29:47.1	0.490	0.400	0.310	0.120
2020/01/31 14:29:47.2	0.490	0.390	0.260	0.130
2020/01/31 14:29:47.3	0.480	0.380	0.210	0.140
2020/01/31 14:29:47.4	0.480	0.370	0.150	0.140
2020/01/31 14:29:47.5	0.490	0.360	0.080	0.130
2020/01/31 14:29:47.6	0.490	0.350	0.010	0.120
2020/01/31 14:29:47.7	0.490	0.340	-0.060	0.100
2020/01/31 14:29:47.8	0.510	0.330	-0.130	0.080
2020/01/31 14:29:47.9	0.520	0.320	-0.210	0.050
2020/01/31 14:29:48.0	0.540	0.300	-0.290	0.020
2020/01/31 14:29:48.1	0.570	0.290	-0.370	-0.020
2020/01/31 14:29:48.2	0.600	0.270	-0.450	-0.060
2020/01/31 14:29:48.3	0.620	0.260	-0.520	-0.100
2020/01/31 14:29:48.4	0.660	0.240	-0.600	-0.140
2020/01/31 14:29:48.5	0.690	0.230	-0.660	-0.190
2020/01/31 14:29:48.6	0.730	0.210	-0.730	-0.230
2020/01/31 14:29:48.7	0.760	0.190	-0.780	-0.290
2020/01/31 14:29:48.8	0.800	0.180	-0.820	-0.340
2020/01/31 14:29:48.9	0.830	0.160	-0.860	-0.380
2020/01/31 14:29:49.0	0.870	0.140	-0.900	-0.420
2020/01/31 14:29:49.1	0.910	0.130	-0.920	-0.470
2020/01/31 14:29:49.2	0.940	0.110	-0.930	-0.500
2020/01/31 14:29:49.3	0.980	0.090	-0.930	-0.540
2020/01/31 14:29:49.4	1.010	0.070	-0.920	-0.580
2020/01/31 14:29:49.5	1.040	0.050	-0.910	-0.610
2020/01/31 14:29:49.6	1.070	0.030	-0.880	-0.640
2020/01/31 14:29:49.7	1.120	0.010	-0.850	-0.660
2020/01/31 14:29:49.8	1.140	-0.010	-0.800	-0.690
2020/01/31 14:29:49.9	1.170	-0.030	-0.760	-0.710
2020/01/31 14:29:50.0	1.190	-0.060	-0.700	-0.730
2020/01/31 14:29:50.1	1.210	-0.080	-0.640	-0.740
2020/01/31 14:29:50.2	1.230	-0.100	-0.580	-0.760
2020/01/31 14:29:50.3	1.250	-0.120	-0.510	-0.770
2020/01/31 14:29:50.4	1.270	-0.140	-0.440	-0.780
2020/01/31 14:29:50.5	1.290	-0.160	-0.370	-0.790
2020/01/31 14:29:50.6	1.300	-0.180	-0.300	-0.800
2020/01/31 14:29:50.7	1.310	-0.200	-0.230	-0.800
2020/01/31 14:29:50.8	1.320	-0.220	-0.160	-0.810
2020/01/31 14:29:50.9	1.330	-0.240	-0.090	-0.820
2020/01/31 14:29:51.0	1.340	-0.260	-0.030	-0.820
2020/01/31 14:29:51.1	1.340	-0.280	0.030	-0.830
2020/01/31 14:29:51.2	1.350	-0.290	0.090	-0.830
2020/01/31 14:29:51.3	1.350	-0.310	0.140	-0.830
2020/01/31 14:29:51.4	1.350	-0.320	0.180	-0.840
2020/01/31 14:29:51.5	1.350	-0.330	0.220	-0.840
2020/01/31 14:29:51.6	1.350	-0.340	0.260	-0.840
2020/01/31 14:29:51.7	1.320	-0.350	0.290	-0.840
2020/01/31 14:29:51.8	1.310	-0.350	0.320	-0.830
2020/01/31 14:29:51.9	1.300	-0.360	0.340	-0.830
2020/01/31 14:29:52.0	1.290	-0.360	0.350	-0.820
2020/01/31 14:29:52.1	1.270	-0.360	0.370	-0.810
2020/01/31 14:29:52.2	1.260	-0.360	0.370	-0.800
2020/01/31 14:29:52.3	1.240	-0.360	0.380	-0.780
2020/01/31 14:29:52.4	1.210	-0.360	0.380	-0.770
2020/01/31 14:29:52.5	1.190	-0.350	0.370	-0.750
2020/01/31 14:29:52.6	1.160	-0.350	0.370	-0.720
2020/01/31 14:29:52.7	1.130	-0.340	0.350	-0.700
2020/01/31 14:29:52.8	1.100	-0.330	0.340	-0.670
2020/01/31 14:29:52.9	1.070	-0.330	0.330	-0.640
2020/01/31 14:29:53.0	1.040	-0.320	0.310	-0.620
2020/01/31 14:29:53.1	1.010	-0.310	0.290	-0.590
2020/01/31 14:29:53.2	0.980	-0.300	0.260	-0.560
2020/01/31 14:29:53.3	0.950	-0.290	0.230	-0.530
2020/01/31 14:29:53.4	0.930	-0.290	0.200	-0.510
2020/01/31 14:29:53.5	0.900	-0.280	0.170	-0.490
2020/01/31 14:29:53.6	0.880	-0.270	0.130	-0.470
2020/01/31 14:29:53.7	0.860	-0.270	0.100	-0.450
2020/01/31 14:29:53.8	0.840	-0.260	0.060	-0.430
2020/01/31 14:29:53.9	0.830	-0.260	0.020	-0.420
2020/01/31 14:29:54.0	0.810	-0.260	-0.030	-0.410
2020/01/31 14:29:54.1	0.800	-0.250	-0.070	-0.410
2020/01/31 14:29:54.2	0.790	-0.250	-0.110	-0.410
2020/01/31 14:29:54.3	0.790	-0.250	-0.160	-0.410
2020/01/31 14:29:54.4	0.790	-0.250	-0.200	-0.420
2020/01/31 14:29:54.5	0.790	-0.250	-0.250	-0.420
2020/01/31 14:29:54.6	0.790	-0.250	-0.290	-0.430
2020/01/31 14:29:54.7	0.800	-0.260	-0.330	-0.450
2020/01/31 14:29:54.8	0.810	-0.260	-0.370	-0.460
2020/01/31 14:29:54.9	0.820	-0.260	-0.410	-0.480
2020/01/31 14:29:55.0	0.840	-0.270	-0.440	-0.490
2020/01/31 14:29:55.1	0.850	-0.270	-0.470	-0.500
2020/01/31 14:29:55.2	0.870	-0.270	-0.500	-0.520
2020/01/31 14:29:55.3	0.880	-0.280	-0.520	-0.530
2020/01/31 14:29:55.4	0.900	-0.280	-0.530	-0.540
2020/01/31 14:29:55.5	0.910	-0.280	-0.550	-0.550
2020/01/31 14:29:55.6	0.930	-0.280	-0.550	-0.560
2020/01/31 14:29:55.7	0.930	-0.280	-0.550	-0.570
2020/01/31 14:29:55.8	0.950	-0.280	-0.550	-0.570
2020/01/31 14:29:55.9	0.960	-0.280	-0.540	-0.570
2020/01/31 14:29:56.0	0.970	-0.280	-0.530	-0.570
2020/01/31 14:29:56.1	0.980	-0.280	-0.510	-0.560
2020/01/31 14:29:56.2	0.990	-0.270	-0.490	-0.550
2020/01/31 14:29:56.3	0.990	-0.270	-0.470	-0.540
2020/01/31 14:29:56.4	1.000	-0.260	-0.440	-0.530
2020/01/31 14:29:56.5	1.010	-0.250	-0.410	-0.520
2020/01/31 14:29:56.6	1.010	-0.230	-0.380	-0.500
2020/01/31 14:29:56.7	1.010	-0.220	-0.360	-0.480
2020/01/31 14:29:56.8	1.020	-0.200	-0.320	-0.460
2020/01/31 14:29:56.9	1.030	-0.180	-0.290	-0.430
2020/01/31 14:29:57.0	1.030	-0.160	-0.270	-0.410
2020/01/31 14:29:57.1	1.040	-0.130	-0.240	-0.380
2020/01/31 14:29:57.2	1.050	-0.110	-0.220	-0.350
2020/01/31 14:29:57.3	1.050	-0.080	-0.200	-0.320
2020/01/31 14:29:57.4	1.060	-0.050	-0.180	-0.290
2020/01/31 14:29:57.5	1.070	-0.020	-0.170	-0.260
2020/01/31 14:29:57.6	1.080	0.020	-0.160	-0.230
2020/01/31 14:29:57.7	1.090	0.050	-0.150	-0.190
2020/01/31 14:29:57.8	1.100	0.090	-0.150	-0.160
2020/01/31 14:29:57.9	1.100	0.120	-0.160	-0.120
2020/01/31 14:29:58.0	1.110	0.160	-0.170	-0.090
2020/01/31 14:29:58.1	1.120	0.200	-0.180	-0.050
2020/01/31 14:29:58.2	1.120	0.230	-0.200	-0.020
2020/01/31 14:29:58.3	1.120	0.270	-0.230	0.010
2020/01/31 14:29:58.4	1.130	0.310	-0.260	0.040
2020/01/31 14:29:58.5	1.130	0.340	-0.290	0.070
2020/01/31 14:29:58.6	1.130	0.380	-0.320	0.100
2020/01/31 14:29:58.7	1.130	0.410	-0.350	0.130
2020/01/31 14:29:58.8	1.130	0.440	-0.390	0.150
2020/01/31 14:29:58.9	1.130	0.470	-0.430	0.170
2020/01/31 14:29:59.0	1.130	0.500	-0.470	0.180
2020/01/31 14:29:59.1	1.120	0.530	-0.510	0.200
2020/01/31 14:29:59.2	1.120	0.550	-0.550	0.210
2020/01/31 14:29:59.3	1.120	0.580	-0.590	0.220
2020/01/31 14:29:59.4	1.120	0.600	-0.630	0.230
2020/01/31 14:29:59.5	1.120	0.620	-0.660	0.240
2020/01/31 14:29:59.6	1.120	0.630	-0.690	0.250
2020/01/31 14:29:59.7	1.140	0.650	-0.710	0.250
2020/01/31 14:29:59.8	1.140	0.660	-0.740	0.260
2020/01/31 14:29:59.9	1.140	0.660	-0.760	0.260
2020/01/31 14:30:00.0	1.140	0.670	-0.770	0.260
2020/01/31 14:30:00.1	1.140	0.670	-0.780	0.270
2020/01/31 14:30:00.2	1.150	0.680	-0.790	0.260
2020/01/31 14:30:00.3	1.150	0.670	-0.790	0.260
2020/01/31 14:30:00.4	1.150	0.670	-0.790	0.260
2020/01/31 14:30:00.5	1.160	0.660	-0.780	0.250
2020/01/31 14:30:00.6	1.170	0.660	-0.770	0.250
2020/01/31 14:30:00.7	1.170	0.640	-0.750	0.240
2020/01/31 14:30:00.8	1.170	0.630	-0.730	0.220
2020/01/31 14:30:00.9	1.180	0.620	-0.710	0.210
2020/01/31 14:30:01.0	1.190	0.600	-0.680	0.200
2020/01/31 14:30:01.1	1.200	0.580	-0.660	0.190
2020/01/31 14:30:01.2	1.210	0.560	-0.620	0.170
2020/01/31 14:30:01.3	1.210	0.540	-0.590	0.150
2020/01/31 14:30:01.4	1.220	0.510	-0.550	0.130
2020/01/31 14:30:01.5	1.230	0.480	-0.510	0.120
2020/01/31 14:30:01.6	1.230	0.460	-0.470	0.100
2020/01/31 14:30:01.7	1.230	0.430	-0.430	0.080
2020/01/31 14:30:01.8	1.240	0.400	-0.390	0.060
2020/01/31 14:30:01.9	1.240	0.370	-0.350	0.050
2020/01/31 14:30:02.0	1.230	0.340	-0.300	0.030
2020/01/31 14:30:02.1	1.230	0.300	-0.260	0.020
2020/01/31 14:30:02.2	1.230	0.270	-0.220	0.010
2020/01/31 14:30:02.3	1.220	0.240	-0.170	0.000
2020/01/31 14:30:02.4	1.210	0.200	-0.130	-0.010
2020/01/31 14:30:02.5	1.200	0.170	-0.090	-0.010
2020/01/31 14:30:02.6	1.190	0.130	-0.050	-0.020
2020/01/31 14:30:02.7	1.180	0.100	-0.010	-0.030
2020/01/31 14:30:02.8	1.170	0.060	0.030	-0.040
2020/01/31 14:30:02.9	1.160	0.030	0.060	-0.050
2020/01/31 14:30:03.0	1.150	-0.010	0.100	-0.060
2020/01/31 14:30:03.1	1.140	-0.040	0.120	-0.070
2020/01/31 14:30:03.2	1.130	-0.070	0.150	-0.080
2020/01/31 14:30:03.3	1.120	-0.110	0.170	-0.100
2020/01/31 14:30:03.4	1.110	-0.140	0.190	-0.120
2020/01/31 14:30:03.5	1.110	-0.170	0.200	-0.140
2020/01/31 14:30:03.6	1.100	-0.210	0.210	-0.170
2020/01/31 14:30:03.7	1.090	-0.240	0.220	-0.210
2020/01/31 14:30:03.8	1.090	-0.270	0.220	-0.240
2020/01/31 14:30:03.9	1.090	-0.300	0.210	-0.280
2020/01/31 14:30:04.0	1.090	-0.330	0.210	-0.320
2020/01/31 14:30:04.1	1.100	-0.350	0.200	-0.370
2020/01/31 14:30:04.2	1.100	-0.380	0.180	-0.420
2020/01/31 14:30:04.3	1.110	-0.410	0.170	-0.470
2020/01/31 14:30:04.4	1.120	-0.430	0.150	-0.520
2020/01/31 14:30:04.5	1.130	-0.460	0.130	-0.580
2020/01/31 14:30:04.6	1.140	-0.480	0.110	-0.640
2020/01/31 14:30:04.7	1.170	-0.500	0.090	-0.700
2020/01/31 14:30:04.8	1.170	-0.520	0.070	-0.760
2020/01/31 14:30:04.9	1.180	-0.540	0.060	-0.810
2020/01/31 14:30:05.0	1.190	-0.560	0.040	-0.870
2020/01/31 14:30:05.1	1.200	-0.580	0.020	-0.920
2020/01/31 14:30:05.2	1.210	-0.600	0.010	-0.980
2020/01/31 14:30:05.3	1.220	-0.620	-0.010	-1.030
2020/01/31 14:30:05.4	1.220	-0.630	-0.020	-1.080
2020/01/31 14:30:05.5	1.230	-0.650	-0.020	-1.130
2020/01/31 14:30:05.6	1.240	-0.660	-0.030	-1.180
2020/01/31 14:30:05.7	1.240	-0.670	-0.030	-1.210
2020/01/31 14:30:05.8	1.250	-0.680	-0.030	-1.250
2020/01/31 14:30:05.9	1.250	-0.690	-0.030	-1.290
2020/01/31 14:30:06.0	1.260	-0.700	-0.030	-1.320
2020/01/31 14:30:06.1	1.260	-0.710	-0.020	-1.340
2020/01/31 14:30:06.2	1.270	-0.710	-0.010	-1.370
2020/01/31 14:30:06.3	1.270	-0.710	-0.010	-1.380
2020/01/31 14:30:06.4	1.280	-0.710	0.000	-1.400
2020/01/31 14:30:06.5	1.280	-0.710	0.010	-1.410
2020/01/31 14:30:06.6	1.290	-0.700	0.020	-1.410
2020/01/31 14:30:06.7	1.310	-0.690	0.030	-1.420
2020/01/31 14:30:06.8	1.320	-0.680	0.040	-1.420
2020/01/31 14:30:06.9	1.320	-0.670	0.040	-1.420
2020/01/31 14:30:07.0	1.330	-0.650	0.050	-1.410
2020/01/31 14:30:07.1	1.340	-0.630	0.050	-1.400
2020/01/31 14:30:07.2	1.350	-0.610	0.050	-1.390
2020/01/31 14:30:07.3	1.360	-0.590	0.040	-1.370
2020/01/31 14:30:07.4	1.370	-0.560	0.040	-1.350
2020/01/31 14:30:07.5	1.380	-0.530	0.030	-1.330
2020/01/31 14:30:07.6	1.390	-0.490	0.020	-1.310
2020/01/31 14:30:07.7	1.390	-0.460	0.000	-1.280
2020/01/31 14:30:07.8	1.400	-0.420	-0.020	-1.250
2020/01/31 14:30:07.9	1.410	-0.370	-0.040	-1.220
2020/01/31 14:30:08.0	1.420	-0.330	-0.070	-1.190
2020/01/31 14:30:08.1	1.430	-0.280	-0.090	-1.150
2020/01/31 14:30:08.2	1.440	-0.230	-0.130	-1.110
2020/01/31 14:30:08.3	1.450	-0.180	-0.160	-1.070
2020/01/31 14:30:08.4	1.450	-0.130	-0.190	-1.030
2020/01/31 14:30:08.5	1.460	-0.070	-0.230	-0.980
2020/01/31 14:30:08.6	1.460	-0.020	-0.270	-0.940
2020/01/31 14:30:08.7	1.470	0.040	-0.300	-0.890
2020/01/31 14:30:08.8	1.470	0.100	-0.340	-0.840
2020/01/31 14:30:08.9	1.470	0.160	-0.380	-0.780
2020/01/31 14:30:09.0	1.470	0.210	-0.410	-0.730
2020/01/31 14:30:09.1	1.470	0.270	-0.440	-0.670
2020/01/31 14:30:09.2	1.470	0.330	-0.480	-0.610
2020/01/31 14:30:09.3	1.460	0.380	-0.500	-0.540
2020/01/31 14:30:09.4	1.450	0.440	-0.530	-0.470
2020/01/31 14:30:09.5	1.440	0.490	-0.550	-0.400
2020/01/31 14:30:09.6	1.430	0.540	-0.570	-0.330
2020/01/31 14:30:09.7	1.410	0.580	-0.590	-0.260
2020/01/31 14:30:09.8	1.390	0.620	-0.600	-0.180
2020/01/31 14:30:09.9	1.370	0.660	-0.610	-0.100
2020/01/31 14:30:10.0	1.350	0.700	-0.620	-0.020
2020/01/31 14:30:10.1	1.330	0.720	-0.620	0.050
2020/01/31 14:30:10.2	1.300	0.750	-0.620	0.130
2020/01/31 14:30:10.3	1.270	0.770	-0.610	0.210
2020/01/31 14:30:10.4	1.240	0.780	-0.610	0.280
2020/01/31 14:30:10.5	1.210	0.790	-0.600	0.350
2020/01/31 14:30:10.6	1.180	0.790	-0.590	0.420
2020/01/31 14:30:10.7	1.130	0.780	-0.570	0.490
2020/01/31 14:30:10.8	1.100	0.770	-0.550	0.550
2020/01/31 14:30:10.9	1.060	0.750	-0.530	0.610
2020/01/31 14:30:11.0	1.020	0.730	-0.510	0.660
2020/01/31 14:30:11.1	0.980	0.700	-0.490	0.710
2020/01/31 14:30:11.2	0.940	0.670	-0.470	0.760
2020/01/31 14:30:11.3	0.900	0.630	-0.440	0.790
2020/01/31 14:30:11.4	0.860	0.590	-0.420	0.820
2020/01/31 14:30:11.5	0.820	0.540	-0.400	0.850
2020/01/31 14:30:11.6	0.780	0.490	-0.380	0.870
2020/01/31 14:30:11.7	0.730	0.430	-0.360	0.880
2020/01/31 14:30:11.8	0.690	0.380	-0.340	0.890
2020/01/31 14:30:11.9	0.660	0.320	-0.320	0.890
2020/01/31 14:30:12.0	0.630	0.260	-0.310	0.890
2020/01/31 14:30:12.1	0.600	0.200	-0.300	0.880
2020/01/31 14:30:12.2	0.580	0.140	-0.290	0.860
2020/01/31 14:30:12.3	0.550	0.080	-0.280	0.840
2020/01/31 14:30:12.4	0.540	0.030	-0.280	0.810
2020/01/31 14:30:12.5	0.520	-0.020	-0.280	0.780
2020/01/31 14:30:12.6	0.510	-0.080	-0.290	0.740
2020/01/31 14:30:12.7	0.510	-0.120	-0.290	0.680
2020/01/31 14:30:12.8	0.510	-0.160	-0.300	0.630
2020/01/31 14:30:12.9	0.510	-0.200	-0.320	0.580
2020/01/31 14:30:13.0	0.510	-0.230	-0.330	0.520
2020/01/31 14:30:13.1	0.520	-0.260	-0.350	0.460
2020/01/31 14:30:13.2	0.540	-0.280	-0.370	0.390
2020/01/31 14:30:13.3	0.550	-0.300	-0.400	0.320
2020/01/31 14:30:13.4	0.570	-0.310	-0.420	0.250
2020/01/31 14:30:13.5	0.600	-0.310	-0.450	0.170
2020/01/31 14:30:13.6	0.620	-0.310	-0.480	0.090
2020/01/31 14:30:13.7	0.650	-0.300	-0.500	-0.000
2020/01/31 14:30:13.8	0.680	-0.290	-0.530	-0.090
2020/01/31 14:30:13.9	0.720	-0.270	-0.560	-0.180
2020/01/31 14:30:14.0	0.760	-0.250	-0.590	-0.280
2020/01/31 14:30:14.1	0.800	-0.220	-0.620	-0.370
2020/01/31 14:30:14.2	0.850	-0.190	-0.650	-0.460
2020/01/31 14:30:14.3	0.890	-0.150	-0.670	-0.550
2020/01/31 14:30:14.4	0.930	-0.110	-0.690	-0.640
2020/01/31 14:30:14.5	0.970	-0.070	-0.710	-0.720
2020/01/31 14:30:14.6	1.010	-0.030	-0.730	-0.800
2020/01/31 14:30:14.7	1.040	0.010	-0.740	-0.880
2020/01/31 14:30:14.8	1.080	0.050	-0.740	-0.950
2020/01/31 14:30:14.9	1.110	0.100	-0.740	-1.010
2020/01/31 14:30:15.0	1.130	0.140	-0.740	-1.070
2020/01/31 14:30:15.1	1.150	0.180	-0.720	-1.110
2020/01/31 14:30:15.2	1.170	0.210	-0.710	-1.160
2020/01/31 14:30:15.3	1.180	0.250	-0.680	-1.190
2020/01/31 14:30:15.4	1.190	0.280	-0.650	-1.220
2020/01/31 14:30:15.5	1.200	0.300	-0.620	-1.250
2020/01/31 14:30:15.6	1.200	0.320	-0.580	-1.270
2020/01/31 14:30:15.7	1.190	0.340	-0.530	-1.280
2020/01/31 14:30:15.8	1.180	0.360	-0.490	-1.290
2020/01/31 14:30:15.9	1.170	0.360	-0.440	-1.290
2020/01/31 14:30:16.0	1.160	0.370	-0.380	-1.290
2020/01/31 14:30:16.1	1.140	0.360	-0.330	-1.290
2020/01/31 14:30:16.2	1.120	0.360	-0.280	-1.290
2020/01/31 14:30:16.3	1.100	0.350	-0.220	-1.280
2020/01/31 14:30:16.4	1.080	0.330	-0.170	-1.270
2020/01/31 14:30:16.5	1.060	0.310	-0.120	-1.260
2020/01/31 14:30:16.6	1.030	0.280	-0.070	-1.240
2020/01/31 14:30:16.7	1.010	0.250	-0.020	-1.230
2020/01/31 14:30:16.8	0.990	0.220	0.030	-1.220
2020/01/31 14:30:16.9	0.960	0.180	0.070	-1.200
2020/01/31 14:30:17.0	0.940	0.140	0.110	-1.190
2020/01/31 14:30:17.1	0.920	0.100	0.150	-1.170
2020/01/31 14:30:17.2	0.890	0.050	0.180	-1.160
2020/01/31 14:30:17.3	0.870	0.010	0.210	-1.150
2020/01/31 14:30:17.4	0.850	-0.040	0.240	-1.140
2020/01/31 14:30:17.5	0.830	-0.090	0.260	-1.130
2020/01/31 14:30:17.6	0.820	-0.130	0.280	-1.110
2020/01/31 14:30:17.7	0.780	-0.180	0.300	-1.110
2020/01/31 14:30:17.8	0.770	-0.220	0.310	-1.100
2020/01/31 14:30:17.9	0.750	-0.270	0.320	-1.090
2020/01/31 14:30:18.0	0.740	-0.310	0.320	-1.070
2020/01/31 14:30:18.1	0.720	-0.340	0.330	-1.060
2020/01/31 14:30:18.2	0.710	-0.380	0.330	-1.050
2020/01/31 14:30:18.3	0.690	-0.410	0.330	-1.030
2020/01/31 14:30:18.4	0.680	-0.440	0.330	-1.020
2020/01/31 14:30:18.5	0.660	-0.470	0.330	-1.000
2020/01/31 14:30:18.6	0.650	-0.490	0.330	-0.980
2020/01/31 14:30:18.7	0.630	-0.510	0.330	-0.950
2020/01/31 14:30:18.8	0.620	-0.520	0.330	-0.930
2020/01/31 14:30:18.9	0.600	-0.530	0.330	-0.900
2020/01/31 14:30:19.0	0.580	-0.540	0.330	-0.870
2020/01/31 14:30:19.1	0.560	-0.540	0.340	-0.840
2020/01/31 14:30:19.2	0.540	-0.540	0.340	-0.800
2020/01/31 14:30:19.3	0.510	-0.540	0.340	-0.760
2020/01/31 14:30:19.4	0.490	-0.540	0.350	-0.710
2020/01/31 14:30:19.5	0.460	-0.530	0.350	-0.670
2020/01/31 14:30:19.6	0.430	-0.520	0.360	-0.620
2020/01/31 14:30:19.7	0.400	-0.500	0.360	-0.570
2020/01/31 14:30:19.8	0.360	-0.490	0.370	-0.510
2020/01/31 14:30:19.9	0.330	-0.470	0.370	-0.460
2020/01/31 14:30:20.0	0.290	-0.460	0.370	-0.400
2020/01/31 14:30:20.1	0.260	-0.440	0.370	-0.340
2020/01/31 14:30:20.2	0.220	-0.420	0.370	-0.270
2020/01/31 14:30:20.3	0.180	-0.400	0.360	-0.210
2020/01/31 14:30:20.4	0.150	-0.370	0.350	-0.150
2020/01/31 14:30:20.5	0.110	-0.350	0.340	-0.080
2020/01/31 14:30:20.6	0.080	-0.330	0.320	-0.020
2020/01/31 14:30:20.7	0.030	-0.300	0.300	0.050
2020/01/31 14:30:20.8	0.000	-0.280	0.270	0.110
2020/01/31 14:30:20.9	359.970	-0.250	0.240	0.170
2020/01/31 14:30:21.0	359.940	-0.230	0.210	0.230
2020/01/31 14:30:21.1	359.920	-0.200	0.160	0.290
2020/01/31 14:30:21.2	359.900	-0.180	0.120	0.340
2020/01/31 14:30:21.3	359.890	-0.150	0.070	0.400
2020/01/31 14:30:21.4	359.870	-0.120	0.010	0.450
2020/01/31 14:30:21.5	359.870	-0.100	-0.050	0.500
2020/01/31 14:30:21.6	359.860	-0.070	-0.110	0.540
2020/01/31 14:30:21.7	359.860	-0.040	-0.180	0.580
2020/01/31 14:30:21.8	359.860	-0.010	-0.250	0.620
2020/01/31 14:30:21.9	359.860	0.020	-0.330	0.650
2020/01/31 14:30:22.0	359.860	0.050	-0.400	0.680
2020/01/31 14:30:22.1	359.870	0.080	-0.480	0.710
2020/01/31 14:30:22.2	359.870	0.110	-0.560	0.740
2020/01/31 14:30:22.3	359.880	0.140	-0.640	0.760
2020/01/31 14:30:22.4	359.890	0.170	-0.710	0.790
2020/01/31 14:30:22.5	359.900	0.200	-0.790	0.810
2020/01/31 14:30:22.6	359.900	0.230	-0.860	0.830
2020/01/31 14:30:22.7	359.900	0.250	-0.920	0.840
2020/01/31 14:30:22.8	359.910	0.280	-0.980	0.860
2020/01/31 14:30:22.9	359.910	0.310	-1.030	0.890
2020/01/31 14:30:23.0	359.910	0.330	-1.080	0.910
2020/01/31 14:30:23.1	359.910	0.360	-1.120	0.930
2020/01/31 14:30:23.2	359.910	0.380	-1.150	0.950
2020/01/31 14:30:23.3	359.910	0.400	-1.170	0.970
2020/01/31 14:30:23.4	359.910	0.420	-1.190	0.990
2020/01/31 14:30:23.5	359.910	0.440	-1.200	1.010
2020/01/31 14:30:23.6	359.910	0.450	-1.200	1.030
2020/01/31 14:30:23.7	359.900	0.460	-1.190	1.050
2020/01/31 14:30:23.8	359.900	0.470	-1.180	1.070
2020/01/31 14:30:23.9	359.890	0.480	-1.150	1.090
2020/01/31 14:30:24.0	359.890	0.480	-1.130	1.100
2020/01/31 14:30:24.1	359.880	0.480	-1.100	1.110
2020/01/31 14:30:24.2	359.880	0.470	-1.060	1.120
2020/01/31 14:30:24.3	359.880	0.470	-1.020	1.120
2020/01/31 14:30:24.4	359.880	0.460	-0.980	1.130
2020/01/31 14:30:24.5	359.890	0.450	-0.940	1.120
2020/01/31 14:30:24.6	359.890	0.440	-0.890	1.120
2020/01/31 14:30:24.7	359.920	0.420	-0.850	1.100
2020/01/31 14:30:24.8	359.930	0.400	-0.800	1.090
2020/01/31 14:30:24.9	359.940	0.380	-0.760	1.070
2020/01/31 14:30:25.0	359.960	0.360	-0.720	1.040
2020/01/31 14:30:25.1	359.980	0.340	-0.680	1.010
2020/01/31 14:30:25.2	0.000	0.320	-0.640	0.980
2020/01/31 14:30:25.3	0.030	0.300	-0.600	0.940
2020/01/31 14:30:25.4	0.050	0.270	-0.570	0.890
2020/01/31 14:30:25.5	0.080	0.250	-0.540	0.850
2020/01/31 14:30:25.6	0.120	0.230	-0.510	0.800
2020/01/31 14:30:25.7	0.150	0.200	-0.480	0.730
2020/01/31 14:30:25.8	0.190	0.180	-0.450	0.680
2020/01/31 14:30:25.9	0.220	0.160	-0.430	0.620
2020/01/31 14:30:26.0	0.260	0.140	-0.410	0.550
2020/01/31 14:30:26.1	0.290	0.110	-0.390	0.490
2020/01/31 14:30:26.2	0.320	0.090	-0.370	0.430
2020/01/31 14:30:26.3	0.360	0.070	-0.350	0.360
2020/01/31 14:30:26.4	0.390	0.060	-0.330	0.290
2020/01/31 14:30:26.5	0.420	0.040	-0.310	0.220
2020/01/31 14:30:26.6	0.450	0.020	-0.290	0.160
2020/01/31 14:30:26.7	0.470	0.010	-0.270	0.080
2020/01/31 14:30:26.8	0.490	-0.010	-0.250	0.020
2020/01/31 14:30:26.9	0.520	-0.020	-0.230	-0.050
2020/01/31 14:30:27.0	0.540	-0.030	-0.200	-0.110
2020/01/31 14:30:27.1	0.550	-0.040	-0.180	-0.170
2020/01/31 14:30:27.2	0.570	-0.050	-0.150	-0.230
2020/01/31 14:30:27.3	0.580	-0.060	-0.120	-0.290
2020/01/31 14:30:27.4	0.580	-0.070	-0.090	-0.340
2020/01/31 14:30:27.5	0.590	-0.070	-0.060	-0.400
2020/01/31 14:30:27.6	0.580	-0.080	-0.030	-0.440
2020/01/31 14:30:27.7	0.590	-0.090	0.010	-0.490
2020/01/31 14:30:27.8	0.580	-0.090	0.040	-0.530
2020/01/31 14:30:27.9	0.570	-0.100	0.080	-0.560
2020/01/31 14:30:28.0	0.550	-0.100	0.120	-0.600
2020/01/31 14:30:28.1	0.520	-0.110	0.160	-0.630
2020/01/31 14:30:28.2	0.500	-0.110	0.190	-0.660
2020/01/31 14:30:28.3	0.470	-0.120	0.230	-0.690
2020/01/31 14:30:28.4	0.440	-0.120	0.260	-0.720
2020/01/31 14:30:28.5	0.400	-0.130	0.300	-0.750
2020/01/31 14:30:28.6	0.370	-0.130	0.330	-0.770
2020/01/31 14:30:28.7	0.350	-0.140	0.360	-0.800
2020/01/31 14:30:28.8	0.310	-0.140	0.390	-0.820
2020/01/31 14:30:28.9	0.270	-0.150	0.410	-0.850
2020/01/31 14:30:29.0	0.230	-0.150	0.430	-0.870
2020/01/31 14:30:29.1	0.190	-0.160	0.450	-0.890
2020/01/31 14:30:29.2	0.150	-0.160	0.460	-0.920
2020/01/31 14:30:29.3	0.110	-0.170	0.470	-0.940
2020/01/31 14:30:29.4	0.070	-0.170	0.470	-0.960
2020/01/31 14:30:29.5	0.040	-0.170	0.470	-0.980
2020/01/31 14:30:29.6	0.000	-0.180	0.470	-1.000
2020/01/31 14:30:29.7	359.960	-0.180	0.460	-1.010
2020/01/31 14:30:29.8	359.920	-0.180	0.450	-1.030
2020/01/31 14:30:29.9	359.890	-0.170	0.430	-1.040
2020/01/31 14:30:30.0	359.870	-0.170	0.410	-1.050
2020/01/31 14:30:30.1	359.840	-0.170	0.380	-1.070
2020/01/31 14:30:30.2	359.820	-0.160	0.350	-1.080
2020/01/31 14:30:30.3	359.790	-0.150	0.310	-1.090
2020/01/31 14:30:30.4	359.770	-0.140	0.280	-1.090
2020/01/31 14:30:30.5	359.750	-0.130	0.240	-1.100
2020/01/31 14:30:30.6	359.740	-0.120	0.190	-1.100
2020/01/31 14:30:30.7	359.730	-0.110	0.150	-1.110
2020/01/31 14:30:30.8	359.710	-0.100	0.100	-1.110
2020/01/31 14:30:30.9	359.700	-0.080	0.050	-1.110
2020/01/31 14:30:31.0	359.690	-0.070	0.010	-1.110
2020/01/31 14:30:31.1	359.680	-0.050	-0.040	-1.110
2020/01/31 14:30:31.2	359.670	-0.040	-0.090	-1.100
2020/01/31 14:30:31.3	359.660	-0.020	-0.140	-1.100
2020/01/31 14:30:31.4	359.650	-0.000	-0.180	-1.090
2020/01/31 14:30:31.5	359.650	0.010	-0.220	-1.070
2020/01/31 14:30:31.6	359.640	0.030	-0.270	-1.060
2020/01/31 14:30:31.7	359.640	0.040	-0.310	-1.040
2020/01/31 14:30:31.8	359.640	0.060	-0.340	-1.020
2020/01/31 14:30:31.9	359.630	0.070	-0.370	-0.990
2020/01/31 14:30:32.0	359.630	0.080	-0.400	-0.970
2020/01/31 14:30:32.1	359.630	0.090	-0.430	-0.940
2020/01/31 14:30:32.2	359.620	0.100	-0.450	-0.910
2020/01/31 14:30:32.3	359.620	0.100	-0.470	-0.870
2020/01/31 14:30:32.4	359.620	0.100	-0.480	-0.830
2020/01/31 14:30:32.5	359.620	0.110	-0.490	-0.790
2020/01/31 14:30:32.6	359.610	0.110	-0.500	-0.740
2020/01/31 14:30:32.7	359.620	0.100	-0.500	-0.700
2020/01/31 14:30:32.8	359.620	0.100	-0.500	-0.650
2020/01/31 14:30:32.9	359.620	0.090	-0.500	-0.590
2020/01/31 14:30:33.0	359.610	0.080	-0.500	-0.540
2020/01/31 14:30:33.1	359.610	0.070	-0.490	-0.480
2020/01/31 14:30:33.2	359.610	0.050	-0.480	-0.420
2020/01/31 14:30:33.3	359.600	0.040	-0.470	-0.360
2020/01/31 14:30:33.4	359.600	0.020	-0.460	-0.300
2020/01/31 14:30:33.5	359.590	0.000	-0.440	-0.240
2020/01/31 14:30:33.6	359.580	-0.020	-0.430	-0.170
2020/01/31 14:30:33.7	359.570	-0.040	-0.420	-0.110
2020/01/31 14:30:33.8	359.570	-0.060	-0.410	-0.050
2020/01/31 14:30:33.9	359.560	-0.080	-0.400	0.010
2020/01/31 14:30:34.0	359.560	-0.110	-0.390	0.060
2020/01/31 14:30:34.1	359.560	-0.130	-0.380	0.120
2020/01/31 14:30:34.2	359.560	-0.150	-0.370	0.170
2020/01/31 14:30:34.3	359.560	-0.170	-0.370	0.220
2020/01/31 14:30:34.4	359.560	-0.190	-0.360	0.260
2020/01/31 14:30:34.5	359.570	-0.210	-0.370	0.300
2020/01/31 14:30:34.6	359.580	-0.230	-0.370	0.340
2020/01/31 14:30:34.7	359.580	-0.240	-0.370	0.370
2020/01/31 14:30:34.8	359.590	-0.260	-0.380	0.400
2020/01/31 14:30:34.9	359.610	-0.260	-0.390	0.420
2020/01/31 14:30:35.0	359.630	-0.270	-0.410	0.440
2020/01/31 14:30:35.1	359.650	-0.280	-0.420	0.460
2020/01/31 14:30:35.2	359.680	-0.280	-0.440	0.480
2020/01/31 14:30:35.3	359.700	-0.270	-0.460	0.490
2020/01/31 14:30:35.4	359.730	-0.270	-0.480	0.490
2020/01/31 14:30:35.5	359.760	-0.260	-0.500	0.500
2020/01/31 14:30:35.6	359.800	-0.250	-0.520	0.500
2020/01/31 14:30:35.7	359.820	-0.230	-0.540	0.490
2020/01/31 14:30:35.8	359.860	-0.210	-0.560	0.490
2020/01/31 14:30:35.9	359.890	-0.190	-0.580	0.480
2020/01/31 14:30:36.0	359.930	-0.170	-0.600	0.470
2020/01/31 14:30:36.1	359.970	-0.140	-0.620	0.460
2020/01/31 14:30:36.2	0.000	-0.110	-0.640	0.440
2020/01/31 14:30:36.3	0.040	-0.080	-0.650	0.430
2020/01/31 14:30:36.4	0.080	-0.050	-0.660	0.410
2020/01/31 14:30:36.5	0.110	-0.020	-0.670	0.390
2020/01/31 14:30:36.6	0.150	0.020	-0.680	0.380
2020/01/31 14:30:36.7	0.180	0.050	-0.680	0.360
2020/01/31 14:30:36.8	0.210	0.090	-0.680	0.340
2020/01/31 14:30:36.9	0.240	0.120	-0.680	0.320
2020/01/31 14:30:37.0	0.270	0.160	-0.670	0.300
2020/01/31 14:30:37.1	0.300	0.190	-0.670	0.280
2020/01/31 14:30:37.2	0.320	0.220	-0.660	0.260
2020/01/31 14:30:37.3	0.340	0.250	-0.640	0.250
2020/01/31 14:30:37.4	0.360	0.280	-0.620	0.230
2020/01/31 14:30:37.5	0.380	0.310	-0.610	0.220
2020/01/31 14:30:37.6	0.390	0.330	-0.580	0.200
2020/01/31 14:30:37.7	0.410	0.350	-0.560	0.190
2020/01/31 14:30:37.8	0.420	0.370	-0.530	0.180
2020/01/31 14:30:37.9	0.420	0.380	-0.500	0.170
2020/01/31 14:30:38.0	0.420	0.400	-0.470	0.160
2020/01/31 14:30:38.1	0.410	0.400	-0.430	0.160
2020/01/31 14:30:38.2	0.400	0.410	-0.390	0.150
2020/01/31 14:30:38.3	0.380	0.410	-0.350	0.150
2020/01/31 14:30:38.4	0.360	0.410	-0.310	0.160
2020/01/31 14:30:38.5	0.340	0.400	-0.270	0.160
2020/01/31 14:30:38.6	0.310	0.390	-0.230	0.170
2020/01/31 14:30:38.7	0.270	0.380	-0.190	0.180
2020/01/31 14:30:38.8	0.240	0.360	-0.140	0.190
2020/01/31 14:30:38.9	0.190	0.340	-0.100	0.200
2020/01/31 14:30:39.0	0.150	0.320	-0.060	0.200
2020/01/31 14:30:39.1	0.100	0.290	-0.020	0.210
2020/01/31 14:30:39.2	0.050	0.270	0.020	0.220
2020/01/31 14:30:39.3	0.000	0.240	0.060	0.230
2020/01/31 14:30:39.4	359.940	0.210	0.100	0.230
2020/01/31 14:30:39.5	359.890	0.180	0.130	0.230
2020/01/31 14:30:39.6	359.830	0.140	0.160	0.230
2020/01/31 14:30:39.7	359.760	0.110	0.190	0.220
2020/01/31 14:30:39.8	359.700	0.080	0.220	0.210
2020/01/31 14:30:39.9	359.640	0.050	0.240	0.200
2020/01/31 14:30:40.0	359.570	0.010	0.260	0.190
2020/01/31 14:30:40.1	359.510	-0.020	0.280	0.180
2020/01/31 14:30:40.2	359.450	-0.050	0.290	0.160
2020/01/31 14:30:40.3	359.390	-0.080	0.300	0.140
2020/01/31 14:30:40.4	359.330	-0.110	0.300	0.110
2020/01/31 14:30:40.5	359.270	-0.140	0.300	0.080
2020/01/31 14:30:40.6	359.220	-0.170	0.300	0.050
2020/01/31 14:30:40.7	359.160	-0.190	0.300	0.020
2020/01/31 14:30:40.8	359.120	-0.210	0.290	-0.020
2020/01/31 14:30:40.9	359.070	-0.230	0.270	-0.060
2020/01/31 14:30:41.0	359.040	-0.250	0.250	-0.100
2020/01/31 14:30:41.1	359.010	-0.260	0.230	-0.140
2020/01/31 14:30:41.2	358.980	-0.270	0.200	-0.190
2020/01/31 14:30:41.3	358.960	-0.280	0.170	-0.240
2020/01/31 14:30:41.4	358.940	-0.280	0.130	-0.300
2020/01/31 14:30:41.5	358.930	-0.290	0.100	-0.350
2020/01/31 14:30:41.6	358.930	-0.290	0.060	-0.410
2020/01/31 14:30:41.7	358.930	-0.280	0.020	-0.470
2020/01/31 14:30:41.8	358.940	-0.280	-0.030	-0.530
2020/01/31 14:30:41.9	358.950	-0.270	-0.070	-0.600
2020/01/31 14:30:42.0	358.970	-0.260	-0.120	-0.660
2020/01/31 14:30:42.1	358.990	-0.240	-0.160	-0.730
2020/01/31 14:30:42.2	359.020	-0.230	-0.210	-0.790
2020/01/31 14:30:42.3	359.050	-0.210	-0.250	-0.860
2020/01/31 14:30:42.4	359.080	-0.190	-0.300	-0.920
2020/01/31 14:30:42.5	359.120	-0.180	-0.340	-0.990
2020/01/31 14:30:42.6	359.160	-0.160	-0.380	-1.050
2020/01/31 14:30:42.7	359.200	-0.140	-0.420	-1.120
2020/01/31 14:30:42.8	359.240	-0.120	-0.450	-1.180
2020/01/31 14:30:42.9	359.290	-0.100	-0.480	-1.240
2020/01/31 14:30:43.0	359.330	-0.080	-0.510	-1.300
2020/01/31 14:30:43.1	359.380	-0.060	-0.530	-1.350
2020/01/31 14:30:43.2	359.430	-0.040	-0.540	-1.400
2020/01/31 14:30:43.3	359.480	-0.020	-0.550	-1.450
2020/01/31 14:30:43.4	359.520	-0.000	-0.560	-1.490
2020/01/31 14:30:43.5	359.570	0.010	-0.560	-1.530
2020/01/31 14:30:43.6	359.610	0.020	-0.560	-1.560
2020/01/31 14:30:43.7	359.650	0.040	-0.550	-1.590
2020/01/31 14:30:43.8	359.690	0.050	-0.530	-1.610
2020/01/31 14:30:43.9	359.730	0.050	-0.510	-1.630
2020/01/31 14:30:44.0	359.760	0.060	-0.490	-1.630
2020/01/31 14:30:44.1	359.790	0.070	-0.460	-1.630
2020/01/31 14:30:44.2	359.810	0.070	-0.430	-1.630
2020/01/31 14:30:44.3	359.830	0.070	-0.390	-1.620
2020/01/31 14:30:44.4	359.850	0.070	-0.350	-1.600
2020/01/31 14:30:44.5	359.860	0.070	-0.310	-1.570
2020/01/31 14:30:44.6	359.870	0.070	-0.270	-1.540
2020/01/31 14:30:44.7	359.880	0.070	-0.230	-1.500
2020/01/31 14:30:44.8	359.880	0.060	-0.190	-1.450
2020/01/31 14:30:44.9	359.880	0.050	-0.150	-1.410
2020/01/31 14:30:45.0	359.870	0.040	-0.110	-1.360
2020/01/31 14:30:45.1	359.860	0.030	-0.070	-1.300
2020/01/31 14:30:45.2	359.850	0.020	-0.040	-1.250
2020/01/31 14:30:45.3	359.840	0.010	-0.010	-1.190
2020/01/31 14:30:45.4	359.830	0.000	0.020	-1.140
2020/01/31 14:30:45.5	359.810	-0.010	0.040	-1.080
2020/01/31 14:30:45.6	359.800	-0.020	0.050	-1.030
2020/01/31 14:30:45.7	359.780	-0.030	0.070	-0.970
2020/01/31 14:30:45.8	359.770	-0.040	0.070	-0.920
2020/01/31 14:30:45.9	359.750	-0.050	0.070	-0.870
2020/01/31 14:30:46.0	359.740	-0.060	0.060	-0.820
2020/01/31 14:30:46.1	359.730	-0.060	0.050	-0.780
2020/01/31 14:30:46.2	359.710	-0.070	0.040	-0.740
2020/01/31 14:30:46.3	359.700	-0.070	0.010	-0.700
2020/01/31 14:30:46.4	359.680	-0.080	-0.010	-0.660
2020/01/31 14:30:46.5	359.670	-0.080	-0.040	-0.620
2020/01/31 14:30:46.6	359.650	-0.080	-0.070	-0.580
2020/01/31 14:30:46.7	359.630	-0.080	-0.110	-0.540
2020/01/31 14:30:46.8	359.610	-0.070	-0.140	-0.510
2020/01/31 14:30:46.9	359.590	-0.070	-0.180	-0.460
2020/01/31 14:30:47.0	359.560	-0.060	-0.210	-0.420
2020/01/31 14:30:47.1	359.530	-0.060	-0.250	-0.380
2020/01/31 14:30:47.2	359.500	-0.050	-0.280	-0.340
2020/01/31 14:30:47.3	359.460	-0.040	-0.310	-0.290
2020/01/31 14:30:47.4	359.430	-0.030	-0.340	-0.250
2020/01/31 14:30:47.5	359.390	-0.020	-0.360	-0.200
2020/01/31 14:30:47.6	359.350	-0.010	-0.380	-0.160
2020/01/31 14:30:47.7	359.300	0.010	-0.400	-0.120
2020/01/31 14:30:47.8	359.270	0.020	-0.420	-0.070
2020/01/31 14:30:47.9	359.230	0.030	-0.430	-0.030
2020/01/31 14:30:48.0	359.190	0.040	-0.430	0.020
2020/01/31 14:30:48.1	359.150	0.050	-0.430	0.070
2020/01/31 14:30:48.2	359.120	0.060	-0.430	0.110
2020/01/31 14:30:48.3	359.090	0.070	-0.420	0.160
2020/01/31 14:30:48.4	359.060	0.080	-0.410	0.200
2020/01/31 14:30:48.5	359.030	0.090	-0.400	0.250
2020/01/31 14:30:48.6	359.000	0.100	-0.390	0.290
2020/01/31 14:30:48.7	358.980	0.110	-0.370	0.330
2020/01/31 14:30:48.8	358.970	0.120	-0.360	0.370
2020/01/31 14:30:48.9	358.950	0.120	-0.340	0.410
2020/01/31 14:30:49.0	358.940	0.130	-0.330	0.450
2020/01/31 14:30:49.1	358.940	0.140	-0.310	0.480
2020/01/31 14:30:49.2	358.940	0.140	-0.300	0.510
2020/01/31 14:30:49.3	358.940	0.140	-0.290	0.540
2020/01/31 14:30:49.4	358.950	0.150	-0.280	0.570
2020/01/31 14:30:49.5	358.950	0.150	-0.280	0.590
2020/01/31 14:30:49.6	358.970	0.150	-0.270	0.610
2020/01/31 14:30:49.7	358.980	0.150	-0.280	0.630
2020/01/31 14:30:49.8	359.000	0.150	-0.280	0.640
2020/01/31 14:30:49.9	359.020	0.150	-0.280	0.660
2020/01/31 14:30:50.0	359.040	0.140	-0.280	0.670
2020/01/31 14:30:50.1	359.060	0.140	-0.290	0.670
2020/01/31 14:30:50.2	359.080	0.130	-0.300	0.680
2020/01/31 14:30:50.3	359.110	0.120	-0.310	0.680
2020/01/31 14:30:50.4	359.130	0.110	-0.330	0.680
2020/01/31 14:30:50.5	359.160	0.100	-0.350	0.680
2020/01/31 14:30:50.6	359.190	0.090	-0.370	0.670
2020/01/31 14:30:50.7	359.200	0.080	-0.380	0.660
2020/01/31 14:30:50.8	359.230	0.070	-0.400	0.650
2020/01/31 14:30:50.9	359.260	0.050	-0.420	0.640
2020/01/31 14:30:51.0	359.290	0.040	-0.450	0.630
2020/01/31 14:30:51.1	359.320	0.030	-0.470	0.610
2020/01/31 14:30:51.2	359.360	0.010	-0.500	0.590
2020/01/31 14:30:51.3	359.390	-0.000	-0.520	0.570
2020/01/31 14:30:51.4	359.420	-0.020	-0.550	0.540
2020/01/31 14:30:51.5	359.460	-0.030	-0.570	0.510
2020/01/31 14:30:51.6	359.490	-0.040	-0.590	0.480
2020/01/31 14:30:51.7	359.540	-0.050	-0.620	0.440
2020/01/31 14:30:51.8	359.580	-0.060	-0.630	0.410
2020/01/31 14:30:51.9	359.610	-0.070	-0.650	0.380
2020/01/31 14:30:52.0	359.650	-0.080	-0.660	0.340
2020/01/31 14:30:52.1	359.680	-0.090	-0.670	0.310
2020/01/31 14:30:52.2	359.720	-0.090	-0.670	0.270
2020/01/31 14:30:52.3	359.750	-0.100	-0.680	0.240
2020/01/31 14:30:52.4	359.780	-0.100	-0.670	0.210
2020/01/31 14:30:52.5	359.820	-0.100	-0.660	0.170
2020/01/31 14:30:52.6	359.840	-0.100	-0.650	0.150
2020/01/31 14:30:52.7	359.860	-0.100	-0.630	0.110
2020/01/31 14:30:52.8	359.890	-0.100	-0.610	0.090
2020/01/31 14:30:52.9	359.910	-0.100	-0.590	0.070
2020/01/31 14:30:53.0	359.930	-0.100	-0.560	0.050
2020/01/31 14:30:53.1	359.950	-0.100	-0.530	0.030
2020/01/31 14:30:53.2	359.960	-0.100	-0.490	0.010
2020/01/31 14:30:53.3	359.970	-0.100	-0.460	-0.000
2020/01/31 14:30:53.4	359.980	-0.100	-0.420	-0.010
2020/01/31 14:30:53.5	359.990	-0.100	-0.370	-0.020
2020/01/31 14:30:53.6	359.990	-0.100	-0.330	-0.030
2020/01/31 14:30:53.7	0.000	-0.110	-0.290	-0.040
2020/01/31 14:30:53.8	359.990	-0.110	-0.240	-0.050
2020/01/31 14:30:53.9	359.990	-0.120	-0.190	-0.060
2020/01/31 14:30:54.0	359.980	-0.120	-0.150	-0.070
2020/01/31 14:30:54.1	359.980	-0.130	-0.100	-0.080
2020/01/31 14:30:54.2	359.970	-0.130	-0.060	-0.080
2020/01/31 14:30:54.3	359.960	-0.140	-0.010	-0.100
2020/01/31 14:30:54.4	359.940	-0.150	0.030	-0.110
2020/01/31 14:30:54.5	359.930	-0.160	0.070	-0.120
2020/01/31 14:30:54.6	359.920	-0.170	0.110	-0.130
2020/01/31 14:30:54.7	359.890	-0.180	0.150	-0.150
2020/01/31 14:30:54.8	359.880	-0.190	0.180	-0.170
2020/01/31 14:30:54.9	359.860	-0.200	0.210	-0.180
2020/01/31 14:30:55.0	359.850	-0.200	0.240	-0.200
2020/01/31 14:30:55.1	359.840	-0.210	0.270	-0.220
2020/01/31 14:30:55.2	359.830	-0.220	0.290	-0.240
2020/01/31 14:30:55.3	359.820	-0.220	0.310	-0.270
2020/01/31 14:30:55.4	359.810	-0.230	0.320	-0.290
2020/01/31 14:30:55.5	359.810	-0.230	0.340	-0.310
2020/01/31 14:30:55.6	359.800	-0.230	0.350	-0.340
2020/01/31 14:30:55.7	359.790	-0.230	0.350	-0.370
2020/01/31 14:30:55.8	359.790	-0.230	0.350	-0.390
2020/01/31 14:30:55.9	359.790	-0.220	0.350	-0.420
2020/01/31 14:30:56.0	359.790	-0.220	0.350	-0.450
2020/01/31 14:30:56.1	359.780	-0.210	0.340	-0.480
2020/01/31 14:30:56.2	359.780	-0.200	0.330	-0.500
2020/01/31 14:30:56.3	359.780	-0.190	0.320	-0.530
2020/01/31 14:30:56.4	359.780	-0.170	0.300	-0.560
2020/01/31 14:30:56.5	359.790	-0.160	0.280	-0.580
2020/01/31 14:30:56.6	359.790	-0.140	0.260	-0.610
2020/01/31 14:30:56.7	359.790	-0.120	0.240	-0.630
2020/01/31 14:30:56.8	359.800	-0.100	0.210	-0.650
2020/01/31 14:30:56.9	359.790	-0.080	0.180	-0.670
2020/01/31 14:30:57.0	359.790	-0.050	0.150	-0.680
2020/01/31 14:30:57.1	359.790	-0.030	0.120	-0.700
2020/01/31 14:30:57.2	359.790	-0.000	0.090	-0.710
2020/01/31 14:30:57.3	359.790	0.020	0.050	-0.720
2020/01/31 14:30:57.4	359.780	0.050	0.010	-0.720
2020/01/31 14:30:57.5	359.770	0.070	-0.020	-0.730
2020/01/31 14:30:57.6	359.760	0.100	-0.060	-0.730
2020/01/31 14:30:57.7	359.770	0.120	-0.100	-0.740
2020/01/31 14:30:57.8	359.760	0.150	-0.140	-0.740
2020/01/31 14:30:57.9	359.750	0.170	-0.170	-0.750
2020/01/31 14:30:58.0	359.740	0.190	-0.210	-0.760
2020/01/31 14:30:58.1	359.720	0.210	-0.250	-0.760
2020/01/31 14:30:58.2	359.710	0.230	-0.280	-0.770
2020/01/31 14:30:58.3	359.700	0.250	-0.320	-0.780
2020/01/31 14:30:58.4	359.690	0.260	-0.350	-0.790
2020/01/31 14:30:58.5	359.680	0.280	-0.380	-0.800
2020/01/31 14:30:58.6	359.670	0.290	-0.410	-0.810
2020/01/31 14:30:58.7	359.670	0.300	-0.440	-0.830
2020/01/31 14:30:58.8	359.660	0.310	-0.460	-0.840
2020/01/31 14:30:58.9	359.650	0.320	-0.490	-0.850
2020/01/31 14:30:59.0	359.650	0.320	-0.510	-0.870
2020/01/31 14:30:59.1	359.640	0.330	-0.530	-0.880
2020/01/31 14:30:59.2	359.630	0.330	-0.550	-0.890
2020/01/31 14:30:59.3	359.630	0.330	-0.560	-0.900
2020/01/31 14:30:59.4	359.630	0.340	-0.570	-0.910
2020/01/31 14:30:59.5	359.630	0.340	-0.580	-0.920
2020/01/31 14:30:59.6	359.620	0.340	-0.590	-0.920
2020/01/31 14:30:59.7	359.620	0.340	-0.600	-0.920
2020/01/31 14:30:59.8	359.620	0.330	-0.600	-0.930
2020/01/31 14:30:59.9	359.620	0.330	-0.600	-0.920
2020/01/31 14:31:00.0	359.620	0.330	-0.600	-0.920
2020/01/31 14:31:00.1	359.630	0.330	-0.600	-0.910
2020/01/31 14:31:00.2	359.630	0.320	-0.600	-0.900
2020/01/31 14:31:00.3	359.640	0.320	-0.590	-0.890
2020/01/31 14:31:00.4	359.650	0.320	-0.580	-0.880
2020/01/31 14:31:00.5	359.660	0.310	-0.570	-0.860
2020/01/31 14:31:00.6	359.660	0.310	-0.560	-0.840
2020/01/31 14:31:00.7	359.670	0.300	-0.550	-0.830
2020/01/31 14:31:00.8	359.680	0.290	-0.530	-0.800
2020/01/31 14:31:00.9	359.690	0.280	-0.520	-0.780
2020/01/31 14:31:01.0	359.700	0.270	-0.500	-0.750
2020/01/31 14:31:01.1	359.710	0.260	-0.480	-0.730
2020/01/31 14:31:01.2	359.720	0.250	-0.460	-0.700
2020/01/31 14:31:01.3	359.720	0.240	-0.440	-0.670
2020/01/31 14:31:01.4	359.730	0.220	-0.410	-0.640
2020/01/31 14:31:01.5	359.740	0.210	-0.390	-0.610
2020/01/31 14:31:01.6	359.750	0.190	-0.370	-0.580
2020/01/31 14:31:01.7	359.760	0.170	-0.350	-0.550
2020/01/31 14:31:01.8	359.770	0.150	-0.320	-0.520
2020/01/31 14:31:01.9	359.780	0.130	-0.300	-0.490
2020/01/31 14:31:02.0	359.780	0.110	-0.280	-0.460
2020/01/31 14:31:02.1	359.790	0.090	-0.260	-0.430
2020/01/31 14:31:02.2	359.800	0.060	-0.240	-0.400
2020/01/31 14:31:02.3	359.810	0.040	-0.220	-0.370
2020/01/31 14:31:02.4	359.830	0.010	-0.210	-0.350
2020/01/31 14:31:02.5	359.840	-0.010	-0.190	-0.320
2020/01/31 14:31:02.6	359.850	-0.040	-0.180	-0.300
2020/01/31 14:31:02.7	359.860	-0.070	-0.170	-0.280
2020/01/31 14:31:02.8	359.870	-0.100	-0.160	-0.260
2020/01/31 14:31:02.9	359.890	-0.130	-0.160	-0.240
2020/01/31 14:31:03.0	359.900	-0.150	-0.150	-0.220
2020/01/31 14:31:03.1	359.910	-0.180	-0.150	-0.210
2020/01/31 14:31:03.2	359.930	-0.210	-0.140	-0.190
2020/01/31 14:31:03.3	359.940	-0.240	-0.140	-0.180
2020/01/31 14:31:03.4	359.950	-0.270	-0.140	-0.170
2020/01/31 14:31:03.5	359.970	-0.290	-0.150	-0.150
2020/01/31 14:31:03.6	359.980	-0.320	-0.150	-0.140
2020/01/31 14:31:03.7	359.980	-0.340	-0.150	-0.130
2020/01/31 14:31:03.8	359.990	-0.370	-0.160	-0.120
2020/01/31 14:31:03.9	0.000	-0.390	-0.160	-0.120
2020/01/31 14:31:04.0	0.010	-0.410	-0.170	-0.110
2020/01/31 14:31:04.1	0.020	-0.430	-0.180	-0.110
2020/01/31 14:31:04.2	0.040	-0.450	-0.190	-0.100
2020/01/31 14:31:04.3	0.050	-0.460	-0.200	-0.100
2020/01/31 14:31:04.4	0.060	-0.480	-0.220	-0.100
2020/01/31 14:31:04.5	0.070	-0.490	-0.230	-0.100
2020/01/31 14:31:04.6	0.090	-0.500	-0.250	-0.110
2020/01/31 14:31:04.7	0.100	-0.500	-0.260	-0.120
2020/01/31 14:31:04.8	0.110	-0.510	-0.280	-0.120
2020/01/31 14:31:04.9	0.130	-0.510	-0.300	-0.130
2020/01/31 14:31:05.0	0.140	-0.510	-0.320	-0.140
2020/01/31 14:31:05.1	0.150	-0.510	-0.340	-0.150
2020/01/31 14:31:05.2	0.170	-0.500	-0.360	-0.150
2020/01/31 14:31:05.3	0.180	-0.500	-0.380	-0.160
2020/01/31 14:31:05.4	0.200	-0.490	-0.400	-0.170
2020/01/31 14:31:05.5	0.210	-0.480	-0.420	-0.180
2020/01/31 14:31:05.6	0.220	-0.470	-0.430	-0.180
2020/01/31 14:31:05.7	0.220	-0.450	-0.450	-0.190
2020/01/31 14:31:05.8	0.230	-0.440	-0.460	-0.190
2020/01/31 14:31:05.9	0.240	-0.420	-0.470	-0.190
2020/01/31 14:31:06.0	0.260	-0.400	-0.480	-0.200
2020/01/31 14:31:06.1	0.270	-0.380	-0.490	-0.200
2020/01/31 14:31:06.2	0.270	-0.360	-0.490	-0.200
2020/01/31 14:31:06.3	0.280	-0.340	-0.500	-0.190
2020/01/31 14:31:06.4	0.290	-0.320	-0.490	-0.190
2020/01/31 14:31:06.5	0.300	-0.300	-0.490	-0.190
2020/01/31 14:31:06.6	0.310	-0.270	-0.480	-0.180
2020/01/31 14:31:06.7	0.320	-0.250	-0.470	-0.180
2020/01/31 14:31:06.8	0.330	-0.230	-0.450	-0.180
2020/01/31 14:31:06.9	0.340	-0.210	-0.430	-0.170
2020/01/31 14:31:07.0	0.340	-0.180	-0.410	-0.160
2020/01/31 14:31:07.1	0.350	-0.160	-0.390	-0.150
2020/01/31 14:31:07.2	0.360	-0.140	-0.360	-0.140
2020/01/31 14:31:07.3	0.370	-0.120	-0.330	-0.130
2020/01/31 14:31:07.4	0.370	-0.100	-0.300	-0.120
2020/01/31 14:31:07.5	0.380	-0.080	-0.270	-0.110
2020/01/31 14:31:07.6	0.390	-0.060	-0.230	-0.100
2020/01/31 14:31:07.7	0.390	-0.040	-0.200	-0.090
2020/01/31 14:31:07.8	0.390	-0.020	-0.160	-0.080
2020/01/31 14:31:07.9	0.400	-0.000	-0.130	-0.070
2020/01/31 14:31:08.0	0.400	0.010	-0.090	-0.060
2020/01/31 14:31:08.1	0.410	0.030	-0.050	-0.060
2020/01/31 14:31:08.2	0.410	0.040	-0.010	-0.050
2020/01/31 14:31:08.3	0.410	0.060	0.020	-0.040
2020/01/31 14:31:08.4	0.410	0.070	0.060	-0.030
2020/01/31 14:31:08.5	0.400	0.080	0.090	-0.030
2020/01/31 14:31:08.6	0.400	0.090	0.120	-0.020
2020/01/31 14:31:08.7	0.400	0.100	0.150	-0.020
2020/01/31 14:31:08.8	0.390	0.110	0.170	-0.010
2020/01/31 14:31:08.9	0.380	0.120	0.200	0.000
2020/01/31 14:31:09.0	0.370	0.120	0.220	0.010
2020/01/31 14:31:09.1	0.350	0.130	0.230	0.020
2020/01/31 14:31:09.2	0.330	0.140	0.250	0.030
2020/01/31 14:31:09.3	0.300	0.140	0.250	0.040
2020/01/31 14:31:09.4	0.280	0.150	0.260	0.060
2020/01/31 14:31:09.5	0.250	0.160	0.260	0.070
2020/01/31 14:31:09.6	0.230	0.160	0.260	0.080
2020/01/31 14:31:09.7	0.190	0.170	0.250	0.090
2020/01/31 14:31:09.8	0.160	0.180	0.240	0.090
2020/01/31 14:31:09.9	0.140	0.190	0.230	0.100
2020/01/31 14:31:10.0	0.110	0.190	0.210	0.100
2020/01/31 14:31:10.1	0.080	0.200	0.180	0.110
2020/01/31 14:31:10.2	0.050	0.210	0.160	0.110
2020/01/31 14:31:10.3	0.020	0.220	0.130	0.100
2020/01/31 14:31:10.4	359.990	0.240	0.100	0.100
2020/01/31 14:31:10.5	359.960	0.250	0.060	0.100
2020/01/31 14:31:10.6	359.930	0.270	0.020	0.090
2020/01/31 14:31:10.7	359.910	0.280	-0.010	0.080
2020/01/31 14:31:10.8	359.880	0.300	-0.050	0.070
2020/01/31 14:31:10.9	359.860	0.320	-0.100	0.060
2020/01/31 14:31:11.0	359.840	0.340	-0.140	0.060
2020/01/31 14:31:11.1	359.810	0.360	-0.180	0.050
2020/01/31 14:31:11.2	359.790	0.380	-0.220	0.040
2020/01/31 14:31:11.3	359.770	0.410	-0.260	0.040
2020/01/31 14:31:11.4	359.750	0.430	-0.300	0.030
2020/01/31 14:31:11.5	359.740	0.460	-0.340	0.030
2020/01/31 14:31:11.6	359.720	0.480	-0.380	0.020
2020/01/31 14:31:11.7	359.710	0.500	-0.410	0.020
2020/01/31 14:31:11.8	359.700	0.530	-0.440	0.020
2020/01/31 14:31:11.9	359.680	0.550	-0.460	0.020
2020/01/31 14:31:12.0	359.670	0.570	-0.490	0.020
2020/01/31 14:31:12.1	359.660	0.580	-0.510	0.030
2020/01/31 14:31:12.2	359.650	0.600	-0.520	0.030
2020/01/31 14:31:12.3	359.640	0.610	-0.530	0.040
2020/01/31 14:31:12.4	359.620	0.620	-0.540	0.050
2020/01/31 14:31:12.5	359.610	0.620	-0.540	0.060
2020/01/31 14:31:12.6	359.600	0.620	-0.540	0.060
2020/01/31 14:31:12.7	359.590	0.620	-0.540	0.070
2020/01/31 14:31:12.8	359.580	0.610	-0.530	0.080
2020/01/31 14:31:12.9	359.570	0.600	-0.520	0.090
2020/01/31 14:31:13.0	359.560	0.590	-0.510	0.100
2020/01/31 14:31:13.1	359.550	0.570	-0.490	0.110
2020/01/31 14:31:13.2	359.550	0.550	-0.480	0.120
2020/01/31 14:31:13.3	359.540	0.520	-0.460	0.130
2020/01/31 14:31:13.4	359.540	0.490	-0.440	0.140
2020/01/31 14:31:13.5	359.530	0.460	-0.430	0.140
2020/01/31 14:31:13.6	359.530	0.430	-0.410	0.140
2020/01/31 14:31:13.7	359.540	0.390	-0.390	0.140
2020/01/31 14:31:13.8	359.540	0.350	-0.380	0.140
2020/01/31 14:31:13.9	359.540	0.310	-0.360	0.140
2020/01/31 14:31:14.0	359.540	0.260	-0.350	0.130
2020/01/31 14:31:14.1	359.550	0.220	-0.340	0.120
2020/01/31 14:31:14.2	359.560	0.170	-0.330	0.100
2020/01/31 14:31:14.3	359.570	0.130	-0.320	0.080
2020/01/31 14:31:14.4	359.580	0.080	-0.320	0.060
2020/01/31 14:31:14.5	359.600	0.030	-0.320	0.030
2020/01/31 14:31:14.6	359.610	-0.010	-0.320	-0.000
2020/01/31 14:31:14.7	359.640	-0.050	-0.320	-0.040
2020/01/31 14:31:14.8	359.660	-0.100	-0.330	-0.080
2020/01/31 14:31:14.9	359.680	-0.140	-0.340	-0.130
2020/01/31 14:31:15.0	359.710	-0.180	-0.350	-0.180
2020/01/31 14:31:15.1	359.740	-0.210	-0.370	-0.230
2020/01/31 14:31:15.2	359.770	-0.240	-0.380	-0.280
2020/01/31 14:31:15.3	359.800	-0.280	-0.400	-0.340
2020/01/31 14:31:15.4	359.830	-0.300	-0.420	-0.400
2020/01/31 14:31:15.5	359.870	-0.330	-0.450	-0.460
2020/01/31 14:31:15.6	359.910	-0.350	-0.470	-0.530
2020/01/31 14:31:15.7	359.930	-0.380	-0.490	-0.600
2020/01/31 14:31:15.8	359.970	-0.390	-0.520	-0.670
2020/01/31 14:31:15.9	0.010	-0.410	-0.540	-0.740
2020/01/31 14:31:16.0	0.060	-0.420	-0.570	-0.810
2020/01/31 14:31:16.1	0.100	-0.430	-0.590	-0.880
2020/01/31 14:31:16.2	0.150	-0.440	-0.620	-0.950
2020/01/31 14:31:16.3	0.200	-0.450	-0.640	-1.020
2020/01/31 14:31:16.4	0.250	-0.460	-0.660	-1.090
2020/01/31 14:31:16.5	0.300	-0.460	-0.680	-1.160
2020/01/31 14:31:16.6	0.350	-0.460	-0.700	-1.230
2020/01/31 14:31:16.7	0.410	-0.460	-0.720	-1.310
2020/01/31 14:31:16.8	0.470	-0.460	-0.730	-1.380
2020/01/31 14:31:16.9	0.520	-0.460	-0.750	-1.440
2020/01/31 14:31:17.0	0.580	-0.450	-0.760	-1.510
2020/01/31 14:31:17.1	0.630	-0.450	-0.760	-1.570
2020/01/31 14:31:17.2	0.690	-0.450	-0.760	-1.630
2020/01/31 14:31:17.3	0.740	-0.440	-0.760	-1.680
2020/01/31 14:31:17.4	0.790	-0.440	-0.750	-1.730
2020/01/31 14:31:17.5	0.840	-0.440	-0.740	-1.780
2020/01/31 14:31:17.6	0.880	-0.440	-0.730	-1.820
2020/01/31 14:31:17.7	0.920	-0.430	-0.710	-1.850
2020/01/31 14:31:17.8	0.950	-0.430	-0.690	-1.880
2020/01/31 14:31:17.9	0.980	-0.430	-0.650	-1.900
2020/01/31 14:31:18.0	1.010	-0.440	-0.620	-1.910
2020/01/31 14:31:18.1	1.030	-0.440	-0.570	-1.920
2020/01/31 14:31:18.2	1.040	-0.440	-0.530	-1.930
2020/01/31 14:31:18.3	1.050	-0.450	-0.480	-1.920
2020/01/31 14:31:18.4	1.050	-0.460	-0.420	-1.920
2020/01/31 14:31:18.5	1.050	-0.460	-0.370	-1.900
2020/01/31 14:31:18.6	1.050	-0.470	-0.300	-1.890
2020/01/31 14:31:18.7	1.050	-0.480	-0.230	-1.860
2020/01/31 14:31:18.8	1.030	-0.490	-0.170	-1.840
2020/01/31 14:31:18.9	1.020	-0.500	-0.100	-1.810
2020/01/31 14:31:19.0	0.990	-0.510	-0.030	-1.770
2020/01/31 14:31:19.1	0.970	-0.520	0.040	-1.730
2020/01/31 14:31:19.2	0.940	-0.540	0.110	-1.690
2020/01/31 14:31:19.3	0.910	-0.550	0.180	-1.640
2020/01/31 14:31:19.4	0.880	-0.550	0.250	-1.580
2020/01/31 14:31:19.5	0.840	-0.560	0.320	-1.520
2020/01/31 14:31:19.6	0.800	-0.570	0.390	-1.460
2020/01/31 14:31:19.7	0.770	-0.570	0.450	-1.400
2020/01/31 14:31:19.8	0.730	-0.570	0.510	-1.330
2020/01/31 14:31:19.9	0.690	-0.570	0.570	-1.250
2020/01/31 14:31:20.0	0.650	-0.570	0.630	-1.170
2020/01/31 14:31:20.1	0.610	-0.560	0.680	-1.080
2020/01/31 14:31:20.2	0.570	-0.550	0.730	-1.000
2020/01/31 14:31:20.3	0.530	-0.540	0.780	-0.910
2020/01/31 14:31:20.4	0.490	-0.520	0.820	-0.810
2020/01/31 14:31:20.5	0.450	-0.500	0.850	-0.720
2020/01/31 14:31:20.6	0.410	-0.470	0.880	-0.620
2020/01/31 14:31:20.7	0.380	-0.440	0.900	-0.520
2020/01/31 14:31:20.8	0.340	-0.410	0.920	-0.420
2020/01/31 14:31:20.9	0.310	-0.370	0.930	-0.320
2020/01/31 14:31:21.0	0.270	-0.330	0.930	-0.220
2020/01/31 14:31:21.1	0.230	-0.290	0.930	-0.120
2020/01/31 14:31:21.2	0.200	-0.250	0.920	-0.020
2020/01/31 14:31:21.3	0.160	-0.200	0.900	0.070
2020/01/31 14:31:21.4	0.130	-0.150	0.870	0.170
2020/01/31 14:31:21.5	0.090	-0.100	0.840	0.260
2020/01/31 14:31:21.6	0.060	-0.040	0.800	0.350
2020/01/31 14:31:21.7	0.020	0.010	0.750	0.440
2020/01/31 14:31:21.8	359.990	0.070	0.700	0.530
2020/01/31 14:31:21.9	359.960	0.120	0.640	0.610
2020/01/31 14:31:22.0	359.930	0.180	0.570	0.680
2020/01/31 14:31:22.1	359.900	0.240	0.500	0.750
2020/01/31 14:31:22.2	359.880	0.290	0.420	0.820
2020/01/31 14:31:22.3	359.850	0.340	0.340	0.880
2020/01/31 14:31:22.4	359.830	0.400	0.260	0.940
2020/01/31 14:31:22.5	359.810	0.450	0.170	0.990
2020/01/31 14:31:22.6	359.790	0.500	0.070	1.030
2020/01/31 14:31:22.7	359.770	0.550	-0.020	1.070
2020/01/31 14:31:22.8	359.760	0.590	-0.110	1.100
2020/01/31 14:31:22.9	359.750	0.630	-0.210	1.130
2020/01/31 14:31:23.0	359.740	0.680	-0.310	1.150
2020/01/31 14:31:23.1	359.730	0.710	-0.410	1.170
2020/01/31 14:31:23.2	359.730	0.750	-0.500	1.180
2020/01/31 14:31:23.3	359.730	0.780	-0.600	1.190
2020/01/31 14:31:23.4	359.740	0.810	-0.690	1.190
2020/01/31 14:31:23.5	359.740	0.840	-0.780	1.190
2020/01/31 14:31:23.6	359.750	0.860	-0.870	1.180
2020/01/31 14:31:23.7	359.770	0.880	-0.950	1.170
2020/01/31 14:31:23.8	359.790	0.900	-1.030	1.150
2020/01/31 14:31:23.9	359.810	0.920	-1.110	1.130
2020/01/31 14:31:24.0	359.840	0.930	-1.180	1.100
2020/01/31 14:31:24.1	359.870	0.940	-1.250	1.070
2020/01/31 14:31:24.2	359.900	0.950	-1.310	1.040
2020/01/31 14:31:24.3	359.940	0.960	-1.360	1.000
2020/01/31 14:31:24.4	359.970	0.960	-1.410	0.950
2020/01/31 14:31:24.5	0.010	0.960	-1.450	0.910
2020/01/31 14:31:24.6	0.050	0.960	-1.490	0.860
2020/01/31 14:31:24.7	0.090	0.950	-1.510	0.800
2020/01/31 14:31:24.8	0.130	0.940	-1.530	0.750
2020/01/31 14:31:24.9	0.170	0.930	-1.540	0.700
2020/01/31 14:31:25.0	0.210	0.910	-1.540	0.650
2020/01/31 14:31:25.1	0.240	0.890	-1.530	0.600
2020/01/31 14:31:25.2	0.280	0.870	-1.520	0.560
2020/01/31 14:31:25.3	0.300	0.840	-1.490	0.510
2020/01/31 14:31:25.4	0.330	0.810	-1.460	0.460
2020/01/31 14:31:25.5	0.350	0.780	-1.420	0.410
2020/01/31 14:31:25.6	0.380	0.740	-1.360	0.370
2020/01/31 14:31:25.7	0.390	0.700	-1.310	0.320
2020/01/31 14:31:25.8	0.410	0.660	-1.240	0.270
2020/01/31 14:31:25.9	0.420	0.610	-1.170	0.220
2020/01/31 14:31:26.0	0.440	0.550	-1.100	0.170
2020/01/31 14:31:26.1	0.450	0.500	-1.020	0.120
2020/01/31 14:31:26.2	0.450	0.440	-0.940	0.070
2020/01/31 14:31:26.3	0.460	0.380	-0.860	0.020
2020/01/31 14:31:26.4	0.470	0.320	-0.780	-0.040
2020/01/31 14:31:26.5	0.480	0.250	-0.690	-0.100
2020/01/31 14:31:26.6	0.480	0.180	-0.610	-0.160
2020/01/31 14:31:26.7	0.490	0.110	-0.530	-0.230
2020/01/31 14:31:26.8	0.500	0.040	-0.450	-0.300
2020/01/31 14:31:26.9	0.510	-0.030	-0.370	-0.370
2020/01/31 14:31:27.0	0.520	-0.100	-0.300	-0.450
2020/01/31 14:31:27.1	0.530	-0.170	-0.230	-0.520
2020/01/31 14:31:27.2	0.540	-0.240	-0.160	-0.600
2020/01/31 14:31:27.3	0.550	-0.310	-0.100	-0.680
2020/01/31 14:31:27.4	0.560	-0.380	-0.050	-0.760
2020/01/31 14:31:27.5	0.580	-0.440	0.000	-0.840
2020/01/31 14:31:27.6	0.590	-0.510	0.050	-0.920
2020/01/31 14:31:27.7	0.590	-0.570	0.090	-1.010
2020/01/31 14:31:27.8	0.610	-0.630	0.120	-1.090
2020/01/31 14:31:27.9	0.620	-0.680	0.150	-1.170
2020/01/31 14:31:28.0	0.630	-0.730	0.180	-1.250
2020/01/31 14:31:28.1	0.650	-0.780	0.200	-1.330
2020/01/31 14:31:28.2	0.660	-0.820	0.210	-1.400
2020/01/31 14:31:28.3	0.670	-0.860	0.230	-1.470
2020/01/31 14:31:28.4	0.690	-0.900	0.230	-1.540
2020/01/31 14:31:28.5	0.700	-0.920	0.240	-1.610
2020/01/31 14:31:28.6	0.710	-0.950	0.240	-1.680
2020/01/31 14:31:28.7	0.720	-0.970	0.240	-1.750
2020/01/31 14:31:28.8	0.740	-0.980	0.240	-1.800
2020/01/31 14:31:28.9	0.750	-0.990	0.240	-1.860
2020/01/31 14:31:29.0	0.770	-0.990	0.230	-1.900
2020/01/31 14:31:29.1	0.780	-0.990	0.220	-1.950
2020/01/31 14:31:29.2	0.790	-0.980	0.210	-1.990
2020/01/31 14:31:29.3	0.810	-0.960	0.200	-2.020
2020/01/31 14:31:29.4	0.820	-0.940	0.190	-2.050
2020/01/31 14:31:29.5	0.830	-0.920	0.180	-2.070
2020/01/31 14:31:29.6	0.850	-0.890	0.170	-2.090
2020/01/31 14:31:29.7	0.880	-0.850	0.160	-2.110
2020/01/31 14:31:29.8	0.900	-0.810	0.150	-2.120
2020/01/31 14:31:29.9	0.910	-0.770	0.140	-2.130
2020/01/31 14:31:30.0	0.930	-0.720	0.120	-2.130
2020/01/31 14:31:30.1	0.950	-0.670	0.110	-2.130
2020/01/31 14:31:30.2	0.970	-0.610	0.090	-2.130
2020/01/31 14:31:30.3	0.990	-0.560	0.080	-2.120
2020/01/31 14:31:30.4	1.010	-0.500	0.070	-2.100
2020/01/31 14:31:30.5	1.040	-0.440	0.060	-2.090
2020/01/31 14:31:30.6	1.060	-0.370	0.040	-2.060
2020/01/31 14:31:30.7	1.080	-0.310	0.030	-2.040
2020/01/31 14:31:30.8	1.100	-0.250	0.020	-2.010
2020/01/31 14:31:30.9	1.120	-0.190	0.010	-1.970
2020/01/31 14:31:31.0	1.140	-0.130	0.000	-1.930
2020/01/31 14:31:31.1	1.160	-0.070	-0.000	-1.880
2020/01/31 14:31:31.2	1.170	-0.020	-0.000	-1.830
2020/01/31 14:31:31.3	1.190	0.030	-0.000	-1.770
2020/01/31 14:31:31.4	1.200	0.080	-0.000	-1.710
2020/01/31 14:31:31.5	1.200	0.120	0.000	-1.640
2020/01/31 14:31:31.6	1.210	0.160	0.000	-1.560
2020/01/31 14:31:31.7	1.200	0.200	0.010	-1.490
2020/01/31 14:31:31.8	1.200	0.230	0.020	-1.410
2020/01/31 14:31:31.9	1.200	0.250	0.030	-1.330
2020/01/31 14:31:32.0	1.190	0.270	0.040	-1.240
2020/01/31 14:31:32.1	1.180	0.290	0.050	-1.150
2020/01/31 14:31:32.2	1.170	0.300	0.070	-1.070
2020/01/31 14:31:32.3	1.150	0.300	0.080	-0.980
2020/01/31 14:31:32.4	1.130	0.300	0.100	-0.890
2020/01/31 14:31:32.5	1.100	0.300	0.110	-0.800
2020/01/31 14:31:32.6	1.070	0.290	0.130	-0.710
2020/01/31 14:31:32.7	1.040	0.270	0.140	-0.610
2020/01/31 14:31:32.8	1.000	0.250	0.160	-0.530
2020/01/31 14:31:32.9	0.960	0.230	0.180	-0.440
2020/01/31 14:31:33.0	0.910	0.200	0.190	-0.350
2020/01/31 14:31:33.1	0.860	0.170	0.210	-0.270
2020/01/31 14:31:33.2	0.810	0.130	0.230	-0.200
2020/01/31 14:31:33.3	0.750	0.100	0.240	-0.120
2020/01/31 14:31:33.4	0.690	0.060	0.260	-0.050
2020/01/31 14:31:33.5	0.630	0.020	0.270	0.020
2020/01/31 14:31:33.6	0.560	-0.020	0.280	0.080
2020/01/31 14:31:33.7	0.490	-0.060	0.290	0.140
2020/01/31 14:31:33.8	0.420	-0.100	0.300	0.190
2020/01/31 14:31:33.9	0.350	-0.140	0.300	0.240
2020/01/31 14:31:34.0	0.280	-0.180	0.310	0.280
2020/01/31 14:31:34.1	0.210	-0.220	0.300	0.320
2020/01/31 14:31:34.2	0.140	-0.250	0.300	0.360
2020/01/31 14:31:34.3	0.070	-0.280	0.290	0.390
2020/01/31 14:31:34.4	0.010	-0.310	0.270	0.410
2020/01/31 14:31:34.5	359.950	-0.340	0.250	0.430
2020/01/31 14:31:34.6	359.890	-0.350	0.220	0.450
2020/01/31 14:31:34.7	359.820	-0.370	0.190	0.460
2020/01/31 14:31:34.8	359.770	-0.380	0.150	0.460
2020/01/31 14:31:34.9	359.720	-0.380	0.100	0.460
2020/01/31 14:31:35.0	359.680	-0.380	0.040	0.460
2020/01/31 14:31:35.1	359.640	-0.370	-0.020	0.450
2020/01/31 14:31:35.2	359.610	-0.350	-0.090	0.440
2020/01/31 14:31:35.3	359.580	-0.330	-0.170	0.420
2020/01/31 14:31:35.4	359.560	-0.300	-0.250	0.390
2020/01/31 14:31:35.5	359.550	-0.260	-0.340	0.360
2020/01/31 14:31:35.6	359.540	-0.220	-0.440	0.330
2020/01/31 14:31:35.7	359.530	-0.170	-0.540	0.290
2020/01/31 14:31:35.8	359.530	-0.120	-0.650	0.240
2020/01/31 14:31:35.9	359.540	-0.060	-0.760	0.200
2020/01/31 14:31:36.0	359.560	0.000	-0.870	0.150
2020/01/31 14:31:36.1	359.570	0.070	-0.980	0.090
2020/01/31 14:31:36.2	359.600	0.140	-1.090	0.030
2020/01/31 14:31:36.3	359.620	0.210	-1.200	-0.030
2020/01/31 14:31:36.4	359.650	0.280	-1.310	-0.090
2020/01/31 14:31:36.5	359.690	0.360	-1.410	-0.150
2020/01/31 14:31:36.6	359.730	0.430	-1.510	-0.210
2020/01/31 14:31:36.7	359.780	0.500	-1.590	-0.280
2020/01/31 14:31:36.8	359.830	0.570	-1.670	-0.340
2020/01/31 14:31:36.9	359.870	0.640	-1.750	-0.410
2020/01/31 14:31:37.0	359.920	0.710	-1.800	-0.470
2020/01/31 14:31:37.1	359.970	0.770	-1.850	-0.520
2020/01/31 14:31:37.2	0.030	0.820	-1.890	-0.580
2020/01/31 14:31:37.3	0.080	0.880	-1.910	-0.630
2020/01/31 14:31:37.4	0.130	0.920	-1.910	-0.670
2020/01/31 14:31:37.5	0.190	0.960	-1.910	-0.710
2020/01/31 14:31:37.6	0.240	0.990	-1.890	-0.750
2020/01/31 14:31:37.7	0.310	1.010	-1.850	-0.780
2020/01/31 14:31:37.8	0.360	1.030	-1.800	-0.810
2020/01/31 14:31:37.9	0.410	1.040	-1.740	-0.830
2020/01/31 14:31:38.0	0.460	1.040	-1.670	-0.840
2020/01/31 14:31:38.1	0.510	1.030	-1.580	-0.850
2020/01/31 14:31:38.2	0.550	1.010	-1.480	-0.850
2020/01/31 14:31:38.3	0.600	0.990	-1.380	-0.850
2020/01/31 14:31:38.4	0.640	0.960	-1.260	-0.840
2020/01/31 14:31:38.5	0.680	0.920	-1.140	-0.830
2020/01/31 14:31:38.6	0.720	0.880	-1.010	-0.820
2020/01/31 14:31:38.7	0.750	0.830	-0.880	-0.790
2020/01/31 14:31:38.8	0.780	0.770	-0.750	-0.770
2020/01/31 14:31:38.9	0.820	0.710	-0.610	-0.740
2020/01/31 14:31:39.0	0.850	0.640	-0.480	-0.710
2020/01/31 14:31:39.1	0.880	0.570	-0.340	-0.670
2020/01/31 14:31:39.2	0.900	0.500	-0.210	-0.630
2020/01/31 14:31:39.3	0.930	0.420	-0.080	-0.590
2020/01/31 14:31:39.4	0.950	0.340	0.050	-0.550
2020/01/31 14:31:39.5	0.970	0.260	0.160	-0.510
2020/01/31 14:31:39.6	0.980	0.180	0.280	-0.470
2020/01/31 14:31:39.7	0.980	0.110	0.380	-0.430
2020/01/31 14:31:39.8	1.000	0.030	0.480	-0.390
2020/01/31 14:31:39.9	1.010	-0.050	0.570	-0.350
2020/01/31 14:31:40.0	1.020	-0.120	0.640	-0.310
2020/01/31 14:31:40.1	1.020	-0.190	0.710	-0.270
2020/01/31 14:31:40.2	1.030	-0.250	0.770	-0.230
2020/01/31 14:31:40.3	1.040	-0.310	0.810	-0.190
2020/01/31 14:31:40.4	1.040	-0.370	0.840	-0.160
2020/01/31 14:31:40.5	1.040	-0.420	0.870	-0.130
2020/01/31 14:31:40.6	1.050	-0.460	0.880	-0.110
2020/01/31 14:31:40.7	1.040	-0.500	0.880	-0.090
2020/01/31 14:31:40.8	1.040	-0.530	0.870	-0.070
2020/01/31 14:31:40.9	1.040	-0.560	0.850	-0.050
2020/01/31 14:31:41.0	1.050	-0.580	0.820	-0.040
2020/01/31 14:31:41.1	1.050	-0.590	0.780	-0.040
2020/01/31 14:31:41.2	1.050	-0.600	0.730	-0.030
2020/01/31 14:31:41.3	1.040	-0.600	0.680	-0.030
2020/01/31 14:31:41.4	1.040	-0.600	0.630	-0.030
2020/01/31 14:31:41.5	1.040	-0.600	0.560	-0.040
2020/01/31 14:31:41.6	1.030	-0.590	0.500	-0.040
2020/01/31 14:31:41.7	1.030	-0.580	0.440	-0.050
2020/01/31 14:31:41.8	1.010	-0.560	0.380	-0.050
2020/01/31 14:31:41.9	0.990	-0.540	0.310	-0.060
2020/01/31 14:31:42.0	0.980	-0.520	0.250	-0.060
2020/01/31 14:31:42.1	0.950	-0.500	0.190	-0.070
2020/01/31 14:31:42.2	0.930	-0.480	0.130	-0.080
2020/01/31 14:31:42.3	0.910	-0.450	0.080	-0.090
2020/01/31 14:31:42.4	0.880	-0.430	0.030	-0.100
2020/01/31 14:31:42.5	0.850	-0.400	-0.020	-0.120
2020/01/31 14:31:42.6	0.820	-0.380	-0.060	-0.130
2020/01/31 14:31:42.7	0.790	-0.350	-0.090	-0.140
2020/01/31 14:31:42.8	0.760	-0.330	-0.120	-0.160
2020/01/31 14:31:42.9	0.720	-0.310	-0.140	-0.170
2020/01/31 14:31:43.0	0.690	-0.290	-0.150	-0.190
2020/01/31 14:31:43.1	0.650	-0.280	-0.160	-0.200
2020/01/31 14:31:43.2	0.610	-0.260	-0.160	-0.220
2020/01/31 14:31:43.3	0.560	-0.250	-0.150	-0.230
2020/01/31 14:31:43.4	0.520	-0.240	-0.140	-0.240
2020/01/31 14:31:43.5	0.470	-0.240	-0.120	-0.250
2020/01/31 14:31:43.6	0.430	-0.230	-0.100	-0.270
2020/01/31 14:31:43.7	0.390	-0.230	-0.070	-0.290
2020/01/31 14:31:43.8	0.340	-0.230	-0.040	-0.300
2020/01/31 14:31:43.9	0.300	-0.230	-0.010	-0.300
2020/01/31 14:31:44.0	0.250	-0.230	0.030	-0.310
2020/01/31 14:31:44.1	0.210	-0.230	0.070	-0.320
2020/01/31 14:31:44.2	0.160	-0.230	0.110	-0.330
2020/01/31 14:31:44.3	0.120	-0.240	0.150	-0.330
2020/01/31 14:31:44.4	0.080	-0.250	0.190	-0.340
2020/01/31 14:31:44.5	0.040	-0.250	0.230	-0.340
2020/01/31 14:31:44.6	359.990	-0.260	0.260	-0.350
2020/01/31 14:31:44.7	359.950	-0.270	0.300	-0.350
2020/01/31 14:31:44.8	359.910	-0.280	0.330	-0.360
2020/01/31 14:31:44.9	359.870	-0.280	0.350	-0.360
2020/01/31 14:31:45.0	359.830	-0.290	0.380	-0.370
2020/01/31 14:31:45.1	359.790	-0.290	0.390	-0.380
2020/01/31 14:31:45.2	359.760	-0.300	0.400	-0.390
2020/01/31 14:31:45.3	359.720	-0.300	0.410	-0.390
2020/01/31 14:31:45.4	359.690	-0.300	0.410	-0.400
2020/01/31 14:31:45.5	359.660	-0.290	0.390	-0.420
2020/01/31 14:31:45.6	359.640	-0.290	0.380	-0.430
2020/01/31 14:31:45.7	359.600	-0.280	0.350	-0.450
2020/01/31 14:31:45.8	359.570	-0.260	0.320	-0.460
2020/01/31 14:31:45.9	359.550	-0.250	0.280	-0.470
2020/01/31 14:31:46.0	359.540	-0.230	0.230	-0.480
2020/01/31 14:31:46.1	359.530	-0.210	0.170	-0.490
2020/01/31 14:31:46.2	359.510	-0.180	0.110	-0.510
2020/01/31 14:31:46.3	359.510	-0.160	0.040	-0.520
2020/01/31 14:31:46.4	359.500	-0.120	-0.030	-0.530
2020/01/31 14:31:46.5	359.500	-0.090	-0.110	-0.540
2020/01/31 14:31:46.6	359.500	-0.050	-0.190	-0.540
2020/01/31 14:31:46.7	359.510	-0.010	-0.270	-0.550
2020/01/31 14:31:46.8	359.510	0.030	-0.350	-0.560
2020/01/31 14:31:46.9	359.520	0.080	-0.440	-0.560
2020/01/31 14:31:47.0	359.530	0.120	-0.520	-0.570
2020/01/31 14:31:47.1	359.540	0.170	-0.610	-0.570
2020/01/31 14:31:47.2	359.560	0.220	-0.690	-0.570
2020/01/31 14:31:47.3	359.570	0.270	-0.770	-0.570
2020/01/31 14:31:47.4	359.590	0.320	-0.840	-0.570
2020/01/31 14:31:47.5	359.610	0.370	-0.910	-0.570
2020/01/31 14:31:47.6	359.640	0.410	-0.980	-0.570
2020/01/31 14:31:47.7	359.660	0.460	-1.040	-0.570
2020/01/31 14:31:47.8	359.690	0.500	-1.090	-0.570
2020/01/31 14:31:47.9	359.720	0.550	-1.140	-0.570
2020/01/31 14:31:48.0	359.750	0.590	-1.180	-0.560
2020/01/31 14:31:48.1	359.790	0.630	-1.220	-0.560
2020/01/31 14:31:48.2	359.820	0.660	-1.250	-0.550
2020/01/31 14:31:48.3	359.860	0.690	-1.270	-0.550
2020/01/31 14:31:48.4	359.900	0.720	-1.290	-0.540
2020/01/31 14:31:48.5	359.940	0.750	-1.300	-0.540
2020/01/31 14:31:48.6	359.990	0.770	-1.300	-0.530
2020/01/31 14:31:48.7	0.040	0.780	-1.300	-0.520
2020/01/31 14:31:48.8	0.090	0.790	-1.290	-0.510
2020/01/31 14:31:48.9	0.130	0.800	-1.270	-0.500
2020/01/31 14:31:49.0	0.180	0.800	-1.250	-0.490
2020/01/31 14:31:49.1	0.230	0.800	-1.220	-0.480
2020/01/31 14:31:49.2	0.280	0.790	-1.190	-0.480
2020/01/31 14:31:49.3	0.330	0.770	-1.150	-0.470
2020/01/31 14:31:49.4	0.370	0.750	-1.110	-0.460
2020/01/31 14:31:49.5	0.420	0.730	-1.070	-0.450
2020/01/31 14:31:49.6	0.460	0.700	-1.020	-0.440
2020/01/31 14:31:49.7	0.500	0.660	-0.960	-0.440
2020/01/31 14:31:49.8	0.540	0.620	-0.910	-0.430
2020/01/31 14:31:49.9	0.580	0.580	-0.850	-0.430
2020/01/31 14:31:50.0	0.620	0.530	-0.790	-0.420
2020/01/31 14:31:50.1	0.650	0.480	-0.730	-0.420
2020/01/31 14:31:50.2	0.680	0.430	-0.670	-0.420
2020/01/31 14:31:50.3	0.710	0.370	-0.610	-0.420
2020/01/31 14:31:50.4	0.730	0.310	-0.550	-0.420
2020/01/31 14:31:50.5	0.750	0.250	-0.490	-0.420
2020/01/31 14:31:50.6	0.760	0.180	-0.440	-0.420
2020/01/31 14:31:50.7	0.800	0.120	-0.390	-0.420
2020/01/31 14:31:50.8	0.810	0.050	-0.330	-0.420
2020/01/31 14:31:50.9	0.820	-0.010	-0.290	-0.430
2020/01/31 14:31:51.0	0.830	-0.070	-0.240	-0.440
2020/01/31 14:31:51.1	0.840	-0.140	-0.200	-0.440
2020/01/31 14:31:51.2	0.850	-0.200	-0.170	-0.450
2020/01/31 14:31:51.3	0.850	-0.250	-0.140	-0.460
2020/01/31 14:31:51.4	0.860	-0.310	-0.110	-0.480
2020/01/31 14:31:51.5	0.870	-0.360	-0.090	-0.490
2020/01/31 14:31:51.6	0.880	-0.410	-0.080	-0.510
2020/01/31 14:31:51.7	0.880	-0.450	-0.060	-0.530
2020/01/31 14:31:51.8	0.890	-0.490	-0.050	-0.550
2020/01/31 14:31:51.9	0.900	-0.520	-0.050	-0.580
2020/01/31 14:31:52.0	0.920	-0.550	-0.050	-0.600
2020/01/31 14:31:52.1	0.930	-0.570	-0.060	-0.630
2020/01/31 14:31:52.2	0.950	-0.590	-0.060	-0.660
2020/01/31 14:31:52.3	0.970	-0.600	-0.070	-0.680
2020/01/31 14:31:52.4	0.990	-0.610	-0.090	-0.710
2020/01/31 14:31:52.5	1.010	-0.600	-0.100	-0.740
2020/01/31 14:31:52.6	1.030	-0.600	-0.110	-0.770
2020/01/31 14:31:52.7	1.040	-0.580	-0.130	-0.800
2020/01/31 14:31:52.8	1.060	-0.560	-0.140	-0.820
2020/01/31 14:31:52.9	1.070	-0.540	-0.150	-0.830
2020/01/31 14:31:53.0	1.080	-0.510	-0.150	-0.840
2020/01/31 14:31:53.1	1.090	-0.480	-0.160	-0.850
2020/01/31 14:31:53.2	1.080	-0.440	-0.150	-0.840
2020/01/31 14:31:53.3	1.080	-0.400	-0.140	-0.830
2020/01/31 14:31:53.4	1.060	-0.360	-0.130	-0.810
2020/01/31 14:31:53.5	1.040	-0.320	-0.110	-0.780
2020/01/31 14:31:53.6	1.020	-0.280	-0.090	-0.750
2020/01/31 14:31:53.7	1.000	-0.230	-0.050	-0.710
2020/01/31 14:31:53.8	0.960	-0.190	-0.020	-0.670
2020/01/31 14:31:53.9	0.930	-0.140	0.020	-0.620
2020/01/31 14:31:54.0	0.880	-0.100	0.070	-0.570
2020/01/31 14:31:54.1	0.840	-0.060	0.120	-0.510
2020/01/31 14:31:54.2	0.790	-0.020	0.170	-0.450
2020/01/31 14:31:54.3	0.740	0.020	0.220	-0.380
2020/01/31 14:31:54.4	0.690	0.050	0.280	-0.320
2020/01/31 14:31:54.5	0.640	0.090	0.330	-0.250
2020/01/31 14:31:54.6	0.590	0.110	0.380	-0.180
2020/01/31 14:31:54.7	0.530	0.140	0.430	-0.110
2020/01/31 14:31:54.8	0.480	0.160	0.480	-0.040
2020/01/31 14:31:54.9	0.430	0.180	0.530	0.020
2020/01/31 14:31:55.0	0.380	0.200	0.570	0.090
2020/01/31 14:31:55.1	0.330	0.210	0.600	0.150
2020/01/31 14:31:55.2	0.290	0.220	0.640	0.210
2020/01/31 14:31:55.3	0.250	0.230	0.660	0.270
2020/01/31 14:31:55.4	0.210	0.240	0.670	0.320
2020/01/31 14:31:55.5	0.180	0.240	0.680	0.370
2020/01/31 14:31:55.6	0.160	0.240	0.680	0.410
2020/01/31 14:31:55.7	0.120	0.240	0.680	0.440
2020/01/31 14:31:55.8	0.100	0.240	0.660	0.470
2020/01/31 14:31:55.9	0.090	0.240	0.640	0.500
2020/01/31 14:31:56.0	0.080	0.240	0.600	0.520
2020/01/31 14:31:56.1	0.080	0.240	0.560	0.530
2020/01/31 14:31:56.2	0.080	0.230	0.510	0.540
2020/01/31 14:31:56.3	0.080	0.230	0.460	0.540
2020/01/31 14:31:56.4	0.080	0.230	0.400	0.540
2020/01/31 14:31:56.5	0.090	0.230	0.330	0.540
2020/01/31 14:31:56.6	0.090	0.220	0.260	0.530
2020/01/31 14:31:56.7	0.100	0.220	0.190	0.510
2020/01/31 14:31:56.8	0.110	0.220	0.120	0.500
2020/01/31 14:31:56.9	0.120	0.220	0.040	0.480
2020/01/31 14:31:57.0	0.140	0.220	-0.030	0.460
2020/01/31 14:31:57.1	0.150	0.220	-0.110	0.450
2020/01/31 14:31:57.2	0.160	0.220	-0.180	0.420
2020/01/31 14:31:57.3	0.170	0.220	-0.250	0.400
2020/01/31 14:31:57.4	0.190	0.210	-0.310	0.380
2020/01/31 14:31:57.5	0.200	0.210	-0.370	0.350
2020/01/31 14:31:57.6	0.210	0.210	-0.430	0.320
2020/01/31 14:31:57.7	0.210	0.200	-0.470	0.300
2020/01/31 14:31:57.8	0.220	0.200	-0.510	0.270
2020/01/31 14:31:57.9	0.230	0.190	-0.550	0.230
2020/01/31 14:31:58.0	0.240	0.180	-0.580	0.200
2020/01/31 14:31:58.1	0.250	0.170	-0.610	0.170
2020/01/31 14:31:58.2	0.250	0.160	-0.630	0.130
2020/01/31 14:31:58.3	0.260	0.150	-0.640	0.100
2020/01/31 14:31:58.4	0.260	0.140	-0.640	0.060
2020/01/31 14:31:58.5	0.270	0.120	-0.640	0.030
2020/01/31 14:31:58.6	0.270	0.100	-0.640	-0.010
2020/01/31 14:31:58.7	0.280	0.080	-0.630	-0.050
2020/01/31 14:31:58.8	0.280	0.060	-0.610	-0.090
2020/01/31 14:31:58.9	0.280	0.030	-0.590	-0.120
2020/01/31 14:31:59.0	0.280	0.010	-0.570	-0.160
2020/01/31 14:31:59.1	0.280	-0.020	-0.540	-0.200
2020/01/31 14:31:59.2	0.280	-0.050	-0.510	-0.230
2020/01/31 14:31:59.3	0.280	-0.080	-0.480	-0.270
2020/01/31 14:31:59.4	0.280	-0.110	-0.450	-0.310
2020/01/31 14:31:59.5	0.280	-0.140	-0.410	-0.350
2020/01/31 14:31:59.6	0.280	-0.170	-0.380	-0.380
2020/01/31 14:31:59.7	0.270	-0.210	-0.340	-0.420
2020/01/31 14:31:59.8	0.270	-0.240	-0.310	-0.460
2020/01/31 14:31:59.9	0.270	-0.270	-0.280	-0.500
2020/01/31 14:32:00.0	0.270	-0.300	-0.250	-0.530
2020/01/31 14:32:00.1	0.270	-0.330	-0.230	-0.570
2020/01/31 14:32:00.2	0.280	-0.360	-0.210	-0.610
2020/01/31 14:32:00.3	0.280	-0.390	-0.190	-0.650
2020/01/31 14:32:00.4	0.290	-0.420	-0.180	-0.700
2020/01/31 14:32:00.5	0.300	-0.440	-0.170	-0.740
2020/01/31 14:32:00.6	0.310	-0.460	-0.170	-0.780
2020/01/31 14:32:00.7	0.330	-0.480	-0.170	-0.830
2020/01/31 14:32:00.8	0.340	-0.490	-0.180	-0.880
2020/01/31 14:32:00.9	0.360	-0.500	-0.200	-0.930
2020/01/31 14:32:01.0	0.380	-0.510	-0.220	-0.980
2020/01/31 14:32:01.1	0.400	-0.510	-0.250	-1.030
2020/01/31 14:32:01.2	0.430	-0.510	-0.280	-1.080
2020/01/31 14:32:01.3	0.460	-0.500	-0.320	-1.130
2020/01/31 14:32:01.4	0.490	-0.490	-0.360	-1.180
2020/01/31 14:32:01.5	0.520	-0.480	-0.410	-1.240
2020/01/31 14:32:01.6	0.550	-0.460	-0.460	-1.290
2020/01/31 14:32:01.7	0.590	-0.440	-0.510	-1.340
2020/01/31 14:32:01.8	0.630	-0.420	-0.570	-1.390
2020/01/31 14:32:01.9	0.670	-0.390	-0.630	-1.440
2020/01/31 14:32:02.0	0.710	-0.360	-0.690	-1.490
2020/01/31 14:32:02.1	0.750	-0.320	-0.740	-1.530
2020/01/31 14:32:02.2	0.790	-0.280	-0.800	-1.570
2020/01/31 14:32:02.3	0.830	-0.250	-0.860	-1.610
2020/01/31 14:32:02.4	0.870	-0.200	-0.910	-1.640
2020/01/31 14:32:02.5	0.910	-0.160	-0.960	-1.670
2020/01/31 14:32:02.6	0.950	-0.120	-1.010	-1.700
2020/01/31 14:32:02.7	1.010	-0.070	-1.050	-1.730
2020/01/31 14:32:02.8	1.050	-0.030	-1.080	-1.750
2020/01/31 14:32:02.9	1.090	0.010	-1.120	-1.760
2020/01/31 14:32:03.0	1.130	0.060	-1.140	-1.770
2020/01/31 14:32:03.1	1.170	0.100	-1.160	-1.770
2020/01/31 14:32:03.2	1.210	0.140	-1.170	-1.770
2020/01/31 14:32:03.3	1.240	0.180	-1.180	-1.760
2020/01/31 14:32:03.4	1.280	0.220	-1.170	-1.750
2020/01/31 14:32:03.5	1.320	0.250	-1.160	-1.730
2020/01/31 14:32:03.6	1.350	0.290	-1.150	-1.710
2020/01/31 14:32:03.7	1.400	0.320	-1.120	-1.680
2020/01/31 14:32:03.8	1.430	0.350	-1.090	-1.650
2020/01/31 14:32:03.9	1.460	0.370	-1.060	-1.610
2020/01/31 14:32:04.0	1.480	0.390	-1.010	-1.560
2020/01/31 14:32:04.1	1.510	0.410	-0.960	-1.510
2020/01/31 14:32:04.2	1.530	0.430	-0.900	-1.460
2020/01/31 14:32:04.3	1.550	0.440	-0.840	-1.390
2020/01/31 14:32:04.4	1.570	0.450	-0.770	-1.330
2020/01/31 14:32:04.5	1.580	0.460	-0.700	-1.260
2020/01/31 14:32:04.6	1.590	0.460	-0.620	-1.180
2020/01/31 14:32:04.7	1.600	0.460	-0.540	-1.100
2020/01/31 14:32:04.8	1.600	0.460	-0.460	-1.020
2020/01/31 14:32:04.9	1.590	0.460	-0.370	-0.930
2020/01/31 14:32:05.0	1.580	0.450	-0.280	-0.840
2020/01/31 14:32:05.1	1.570	0.440	-0.190	-0.750
2020/01/31 14:32:05.2	1.560	0.430	-0.090	-0.660
2020/01/31 14:32:05.3	1.540	0.420	-0.000	-0.560
2020/01/31 14:32:05.4	1.520	0.410	0.090	-0.460
2020/01/31 14:32:05.5	1.490	0.400	0.180	-0.370
2020/01/31 14:32:05.6	1.470	0.380	0.270	-0.270
2020/01/31 14:32:05.7	1.440	0.370	0.360	-0.170
2020/01/31 14:32:05.8	1.410	0.350	0.440	-0.070
2020/01/31 14:32:05.9	1.380	0.340	0.510	0.020
2020/01/31 14:32:06.0	1.340	0.320	0.590	0.120
2020/01/31 14:32:06.1	1.310	0.310	0.650	0.220
2020/01/31 14:32:06.2	1.270	0.300	0.710	0.310
2020/01/31 14:32:06.3	1.230	0.290	0.770	0.400
2020/01/31 14:32:06.4	1.200	0.280	0.810	0.490
2020/01/31 14:32:06.5	1.160	0.270	0.850	0.580
2020/01/31 14:32:06.6	1.120	0.260	0.880	0.670
2020/01/31 14:32:06.7	1.070	0.260	0.900	0.750
2020/01/31 14:32:06.8	1.040	0.250	0.910	0.830
2020/01/31 14:32:06.9	1.000	0.250	0.920	0.900
2020/01/31 14:32:07.0	0.960	0.240	0.920	0.970
2020/01/31 14:32:07.1	0.930	0.240	0.910	1.040
2020/01/31 14:32:07.2	0.890	0.240	0.890	1.100
2020/01/31 14:32:07.3	0.860	0.240	0.870	1.150
2020/01/31 14:32:07.4	0.820	0.240	0.840	1.200
2020/01/31 14:32:07.5	0.790	0.240	0.800	1.240
2020/01/31 14:32:07.6	0.760	0.240	0.750	1.270
2020/01/31 14:32:07.7	0.720	0.250	0.710	1.290
2020/01/31 14:32:07.8	0.690	0.250	0.650	1.310
2020/01/31 14:32:07.9	0.660	0.250	0.580	1.320
2020/01/31 14:32:08.0	0.640	0.250	0.520	1.320
2020/01/31 14:32:08.1	0.620	0.240	0.440	1.320
2020/01/31 14:32:08.2	0.610	0.240	0.370	1.300
2020/01/31 14:32:08.3	0.590	0.240	0.290	1.280
2020/01/31 14:32:08.4	0.580	0.240	0.200	1.250
2020/01/31 14:32:08.5	0.580	0.230	0.120	1.220
2020/01/31 14:32:08.6	0.580	0.220	0.030	1.180
2020/01/31 14:32:08.7	0.560	0.220	-0.060	1.120
2020/01/31 14:32:08.8	0.570	0.210	-0.150	1.070
2020/01/31 14:32:08.9	0.580	0.200	-0.240	1.010
2020/01/31 14:32:09.0	0.590	0.190	-0.320	0.940
2020/01/31 14:32:09.1	0.610	0.170	-0.410	0.870
2020/01/31 14:32:09.2	0.630	0.160	-0.490	0.800
2020/01/31 14:32:09.3	0.650	0.140	-0.570	0.720
2020/01/31 14:32:09.4	0.680	0.120	-0.650	0.630
2020/01/31 14:32:09.5	0.710	0.100	-0.720	0.550
2020/01/31 14:32:09.6	0.740	0.080	-0.790	0.460
2020/01/31 14:32:09.7	0.760	0.050	-0.850	0.360
2020/01/31 14:32:09.8	0.800	0.030	-0.910	0.260
2020/01/31 14:32:09.9	0.840	-0.000	-0.960	0.160
2020/01/31 14:32:10.0	0.880	-0.030	-1.010	0.060
2020/01/31 14:32:10.1	0.930	-0.060	-1.040	-0.040
2020/01/31 14:32:10.2	0.970	-0.100	-1.080	-0.140
2020/01/31 14:32:10.3	1.020	-0.130	-1.100	-0.240
2020/01/31 14:32:10.4	1.060	-0.170	-1.120	-0.340
2020/01/31 14:32:10.5	1.110	-0.210	-1.130	-0.450
2020/01/31 14:32:10.6	1.160	-0.240	-1.130	-0.550
2020/01/31 14:32:10.7	1.220	-0.280	-1.120	-0.650
2020/01/31 14:32:10.8	1.260	-0.320	-1.110	-0.750
2020/01/31 14:32:10.9	1.310	-0.360	-1.090	-0.840
2020/01/31 14:32:11.0	1.350	-0.400	-1.060	-0.930
2020/01/31 14:32:11.1	1.390	-0.450	-1.030	-1.020
2020/01/31 14:32:11.2	1.420	-0.490	-0.990	-1.100
2020/01/31 14:32:11.3	1.460	-0.520	-0.950	-1.180
2020/01/31 14:32:11.4	1.490	-0.560	-0.900	-1.260
2020/01/31 14:32:11.5	1.510	-0.600	-0.840	-1.330
2020/01/31 14:32:11.6	1.540	-0.640	-0.780	-1.390
2020/01/31 14:32:11.7	1.560	-0.670	-0.720	-1.450
2020/01/31 14:32:11.8	1.580	-0.700	-0.650	-1.510
2020/01/31 14:32:11.9	1.600	-0.730	-0.580	-1.560
2020/01/31 14:32:12.0	1.610	-0.760	-0.510	-1.610
2020/01/31 14:32:12.1	1.620	-0.780	-0.440	-1.650
2020/01/31 14:32:12.2	1.620	-0.800	-0.370	-1.690
2020/01/31 14:32:12.3	1.630	-0.820	-0.300	-1.720
2020/01/31 14:32:12.4	1.630	-0.830	-0.230	-1.750
2020/01/31 14:32:12.5	1.640	-0.840	-0.160	-1.770
2020/01/31 14:32:12.6	1.640	-0.850	-0.090	-1.790
2020/01/31 14:32:12.7	1.640	-0.850	-0.030	-1.810
2020/01/31 14:32:12.8	1.640	-0.840	0.030	-1.820
2020/01/31 14:32:12.9	1.640	-0.830	0.080	-1.830
2020/01/31 14:32:13.0	1.640	-0.820	0.130	-1.830
2020/01/31 14:32:13.1	1.640	-0.800	0.180	-1.830
2020/01/31 14:32:13.2	1.640	-0.770	0.220	-1.820
2020/01/31 14:32:13.3	1.640	-0.740	0.250	-1.810
2020/01/31 14:32:13.4	1.640	-0.710	0.280	-1.800
2020/01/31 14:32:13.5	1.640	-0.670	0.300	-1.780
2020/01/31 14:32:13.6	1.630	-0.620	0.320	-1.750
2020/01/31 14:32:13.7	1.630	-0.570	0.330	-1.720
2020/01/31 14:32:13.8	1.620	-0.520	0.330	-1.690
2020/01/31 14:32:13.9	1.610	-0.470	0.330	-1.650
2020/01/31 14:32:14.0	1.600	-0.410	0.330	-1.600
2020/01/31 14:32:14.1	1.590	-0.350	0.320	-1.550
2020/01/31 14:32:14.2	1.570	-0.290	0.300	-1.490
2020/01/31 14:32:14.3	1.550	-0.220	0.290	-1.430
2020/01/31 14:32:14.4	1.540	-0.160	0.260	-1.370
2020/01/31 14:32:14.5	1.510	-0.090	0.240	-1.300
2020/01/31 14:32:14.6	1.490	-0.020	0.210	-1.240
2020/01/31 14:32:14.7	1.450	0.040	0.180	-1.170
2020/01/31 14:32:14.8	1.430	0.110	0.150	-1.100
2020/01/31 14:32:14.9	1.400	0.170	0.110	-1.020
2020/01/31 14:32:15.0	1.370	0.230	0.080	-0.950
2020/01/31 14:32:15.1	1.350	0.290	0.040	-0.880
2020/01/31 14:32:15.2	1.320	0.350	0.010	-0.800
2020/01/31 14:32:15.3	1.290	0.400	-0.030	-0.730
2020/01/31 14:32:15.4	1.260	0.450	-0.070	-0.650
2020/01/31 14:32:15.5	1.230	0.500	-0.110	-0.580
2020/01/31 14:32:15.6	1.210	0.540	-0.150	-0.510
2020/01/31 14:32:15.7	1.180	0.580	-0.190	-0.440
2020/01/31 14:32:15.8	1.160	0.610	-0.220	-0.370
2020/01/31 14:32:15.9	1.130	0.640	-0.260	-0.300
2020/01/31 14:32:16.0	1.100	0.660	-0.300	-0.230
2020/01/31 14:32:16.1	1.080	0.680	-0.330	-0.170
2020/01/31 14:32:16.2	1.060	0.700	-0.360	-0.110
2020/01/31 14:32:16.3	1.040	0.710	-0.390	-0.050
2020/01/31 14:32:16.4	1.010	0.710	-0.420	0.010
2020/01/31 14:32:16.5	1.000	0.720	-0.440	0.070
2020/01/31 14:32:16.6	0.980	0.710	-0.470	0.120
2020/01/31 14:32:16.7	0.970	0.710	-0.490	0.160
2020/01/31 14:32:16.8	0.950	0.690	-0.500	0.210
2020/01/31 14:32:16.9	0.930	0.680	-0.520	0.250
2020/01/31 14:32:17.0	0.920	0.660	-0.530	0.290
2020/01/31 14:32:17.1	0.900	0.640	-0.540	0.330
2020/01/31 14:32:17.2	0.890	0.620	-0.550	0.360
2020/01/31 14:32:17.3	0.880	0.590	-0.560	0.390
2020/01/31 14:32:17.4	0.870	0.560	-0.560	0.420
2020/01/31 14:32:17.5	0.870	0.530	-0.560	0.440
2020/01/31 14:32:17.6	0.870	0.500	-0.570	0.460
2020/01/31 14:32:17.7	0.850	0.470	-0.570	0.480
2020/01/31 14:32:17.8	0.850	0.440	-0.570	0.490
2020/01/31 14:32:17.9	0.850	0.410	-0.580	0.500
2020/01/31 14:32:18.0	0.850	0.380	-0.580	0.510
2020/01/31 14:32:18.1	0.860	0.360	-0.580	0.510
2020/01/31 14:32:18.2	0.870	0.330	-0.580	0.510
2020/01/31 14:32:18.3	0.880	0.300	-0.580	0.510
2020/01/31 14:32:18.4	0.900	0.280	-0.590	0.510
2020/01/31 14:32:18.5	0.910	0.260	-0.590	0.500
2020/01/31 14:32:18.6	0.930	0.250	-0.600	0.490
2020/01/31 14:32:18.7	0.940	0.230	-0.600	0.470
2020/01/31 14:32:18.8	0.960	0.220	-0.610	0.460
2020/01/31 14:32:18.9	0.980	0.210	-0.610	0.440
2020/01/31 14:32:19.0	0.990	0.200	-0.620	0.420
2020/01/31 14:32:19.1	1.010	0.200	-0.630	0.400
2020/01/31 14:32:19.2	1.030	0.190	-0.630	0.380
2020/01/31 14:32:19.3	1.050	0.190	-0.640	0.360
2020/01/31 14:32:19.4	1.070	0.190	-0.640	0.340
2020/01/31 14:32:19.5	1.090	0.190	-0.640	0.320
2020/01/31 14:32:19.6	1.100	0.190	-0.640	0.300
2020/01/31 14:32:19.7	1.110	0.200	-0.630	0.280
2020/01/31 14:32:19.8	1.130	0.200	-0.630	0.260
2020/01/31 14:32:19.9	1.140	0.210	-0.620	0.240
2020/01/31 14:32:20.0	1.150	0.210	-0.610	0.220
2020/01/31 14:32:20.1	1.160	0.220	-0.590	0.200
2020/01/31 14:32:20.2	1.170	0.220	-0.580	0.180
2020/01/31 14:32:20.3	1.170	0.230	-0.550	0.160
2020/01/31 14:32:20.4	1.180	0.230	-0.530	0.140
2020/01/31 14:32:20.5	1.190	0.230	-0.510	0.130
2020/01/31 14:32:20.6	1.200	0.230	-0.480	0.110
2020/01/31 14:32:20.7	1.210	0.230	-0.440	0.080
2020/01/31 14:32:20.8	1.220	0.220	-0.410	0.060
2020/01/31 14:32:20.9	1.230	0.220	-0.380	0.040
2020/01/31 14:32:21.0	1.240	0.210	-0.340	0.020
2020/01/31 14:32:21.1	1.250	0.200	-0.300	-0.010
2020/01/31 14:32:21.2	1.260	0.190	-0.270	-0.030
2020/01/31 14:32:21.3	1.270	0.180	-0.230	-0.050
2020/01/31 14:32:21.4	1.280	0.170	-0.190	-0.080
2020/01/31 14:32:21.5	1.300	0.150	-0.150	-0.110
2020/01/31 14:32:21.6	1.310	0.130	-0.110	-0.130
2020/01/31 14:32:21.7	1.330	0.110	-0.080	-0.160
2020/01/31 14:32:21.8	1.340	0.080	-0.040	-0.190
2020/01/31 14:32:21.9	1.360	0.060	-0.000	-0.210
2020/01/31 14:32:22.0	1.370	0.030	0.030	-0.240
2020/01/31 14:32:22.1	1.380	-0.010	0.070	-0.270
2020/01/31 14:32:22.2	1.390	-0.040	0.110	-0.300
2020/01/31 14:32:22.3	1.400	-0.080	0.140	-0.330
2020/01/31 14:32:22.4	1.410	-0.120	0.170	-0.360
2020/01/31 14:32:22.5	1.410	-0.160	0.200	-0.390
2020/01/31 14:32:22.6	1.420	-0.200	0.230	-0.420
2020/01/31 14:32:22.7	1.420	-0.240	0.270	-0.450
2020/01/31 14:32:22.8	1.420	-0.290	0.290	-0.490
2020/01/31 14:32:22.9	1.410	-0.340	0.320	-0.520
2020/01/31 14:32:23.0	1.410	-0.380	0.340	-0.550
2020/01/31 14:32:23.1	1.400	-0.430	0.370	-0.580
2020/01/31 14:32:23.2	1.390	-0.480	0.390	-0.610
2020/01/31 14:32:23.3	1.380	-0.530	0.400	-0.640
2020/01/31 14:32:23.4	1.370	-0.570	0.420	-0.670
2020/01/31 14:32:23.5	1.350	-0.620	0.430	-0.700
2020/01/31 14:32:23.6	1.340	-0.660	0.450	-0.730
2020/01/31 14:32:23.7	1.320	-0.700	0.460	-0.760
2020/01/31 14:32:23.8	1.300	-0.740	0.460	-0.780
2020/01/31 14:32:23.9	1.280	-0.780	0.470	-0.810
2020/01/31 14:32:24.0	1.260	-0.810	0.470	-0.830
2020/01/31 14:32:24.1	1.250	-0.840	0.470	-0.850
2020/01/31 14:32:24.2	1.230	-0.870	0.460	-0.860
2020/01/31 14:32:24.3	1.210	-0.890	0.450	-0.880
2020/01/31 14:32:24.4	1.190	-0.910	0.440	-0.890
2020/01/31 14:32:24.5	1.170	-0.920	0.420	-0.900
2020/01/31 14:32:24.6	1.160	-0.920	0.400	-0.910
2020/01/31 14:32:24.7	1.140	-0.930	0.380	-0.910
2020/01/31 14:32:24.8	1.130	-0.920	0.350	-0.920
2020/01/31 14:32:24.9	1.120	-0.910	0.310	-0.920
2020/01/31 14:32:25.0	1.110	-0.900	0.280	-0.930
2020/01/31 14:32:25.1	1.100	-0.870	0.230	-0.930
2020/01/31 14:32:25.2	1.100	-0.850	0.190	-0.940
2020/01/31 14:32:25.3	1.090	-0.810	0.130	-0.940
2020/01/31 14:32:25.4	1.090	-0.770	0.080	-0.950
2020/01/31 14:32:25.5	1.100	-0.730	0.020	-0.950
2020/01/31 14:32:25.6	1.100	-0.680	-0.040	-0.950
2020/01/31 14:32:25.7	1.110	-0.630	-0.100	-0.960
2020/01/31 14:32:25.8	1.110	-0.570	-0.170	-0.960
2020/01/31 14:32:25.9	1.120	-0.500	-0.240	-0.960
2020/01/31 14:32:26.0	1.130	-0.440	-0.300	-0.960
2020/01/31 14:32:26.1	1.140	-0.360	-0.370	-0.950
2020/01/31 14:32:26.2	1.150	-0.290	-0.440	-0.940
2020/01/31 14:32:26.3	1.170	-0.220	-0.500	-0.930
2020/01/31 14:32:26.4	1.180	-0.140	-0.560	-0.920
2020/01/31 14:32:26.5	1.190	-0.060	-0.620	-0.900
2020/01/31 14:32:26.6	1.190	0.010	-0.670	-0.880
2020/01/31 14:32:26.7	1.190	0.090	-0.720	-0.850
2020/01/31 14:32:26.8	1.190	0.160	-0.770	-0.820
2020/01/31 14:32:26.9	1.190	0.230	-0.800	-0.790
2020/01/31 14:32:27.0	1.190	0.300	-0.830	-0.760
2020/01/31 14:32:27.1	1.190	0.370	-0.860	-0.720
2020/01/31 14:32:27.2	1.180	0.430	-0.880	-0.680
2020/01/31 14:32:27.3	1.170	0.480	-0.890	-0.640
2020/01/31 14:32:27.4	1.150	0.530	-0.900	-0.590
2020/01/31 14:32:27.5	1.140	0.580	-0.890	-0.550
2020/01/31 14:32:27.6	1.120	0.620	-0.890	-0.500
2020/01/31 14:32:27.7	1.090	0.650	-0.870	-0.460
2020/01/31 14:32:27.8	1.070	0.680	-0.850	-0.400
2020/01/31 14:32:27.9	1.040	0.700	-0.820	-0.350
2020/01/31 14:32:28.0	1.010	0.720	-0.790	-0.300
2020/01/31 14:32:28.1	0.970	0.720	-0.750	-0.240
2020/01/31 14:32:28.2	0.940	0.730	-0.710	-0.190
2020/01/31 14:32:28.3	0.900	0.720	-0.670	-0.140
2020/01/31 14:32:28.4	0.860	0.710	-0.620	-0.080
2020/01/31 14:32:28.5	0.830	0.700	-0.570	-0.030
2020/01/31 14:32:28.6	0.790	0.680	-0.520	0.010
2020/01/31 14:32:28.7	0.730	0.650	-0.470	0.060
2020/01/31 14:32:28.8	0.690	0.620	-0.420	0.100
2020/01/31 14:32:28.9	0.650	0.590	-0.370	0.140
2020/01/31 14:32:29.0	0.610	0.550	-0.320	0.180
2020/01/31 14:32:29.1	0.570	0.520	-0.270	0.210
2020/01/31 14:32:29.2	0.540	0.480	-0.230	0.240
2020/01/31 14:32:29.3	0.500	0.430	-0.190	0.260
2020/01/31 14:32:29.4	0.470	0.390	-0.160	0.280
2020/01/31 14:32:29.5	0.440	0.350	-0.120	0.300
2020/01/31 14:32:29.6	0.420	0.310	-0.100	0.320
2020/01/31 14:32:29.7	0.390	0.270	-0.070	0.320
2020/01/31 14:32:29.8	0.370	0.230	-0.060	0.330
2020/01/31 14:32:29.9	0.360	0.200	-0.040	0.330
2020/01/31 14:32:30.0	0.350	0.160	-0.040	0.340
2020/01/31 14:32:30.1	0.340	0.140	-0.040	0.330
2020/01/31 14:32:30.2	0.330	0.110	-0.040	0.330
2020/01/31 14:32:30.3	0.330	0.090	-0.050	0.320
2020/01/31 14:32:30.4	0.340	0.080	-0.060	0.310
2020/01/31 14:32:30.5	0.340	0.070	-0.080	0.290
2020/01/31 14:32:30.6	0.360	0.060	-0.110	0.270
2020/01/31 14:32:30.7	0.370	0.060	-0.140	0.250
2020/01/31 14:32:30.8	0.390	0.070	-0.180	0.220
2020/01/31 14:32:30.9	0.420	0.080	-0.210	0.180
2020/01/31 14:32:31.0	0.450	0.090	-0.260	0.150
2020/01/31 14:32:31.1	0.480	0.110	-0.300	0.100
2020/01/31 14:32:31.2	0.520	0.130	-0.340	0.060
2020/01/31 14:32:31.3	0.560	0.150	-0.390	0.010
2020/01/31 14:32:31.4	0.600	0.180	-0.440	-0.040
2020/01/31 14:32:31.5	0.650	0.210	-0.490	-0.100
2020/01/31 14:32:31.6	0.700	0.240	-0.530	-0.150
2020/01/31 14:32:31.7	0.760	0.270	-0.570	-0.220
2020/01/31 14:32:31.8	0.810	0.300	-0.620	-0.280
2020/01/31 14:32:31.9	0.860	0.330	-0.650	-0.340
2020/01/31 14:32:32.0	0.920	0.360	-0.690	-0.410
2020/01/31 14:32:32.1	0.970	0.390	-0.720	-0.470
2020/01/31 14:32:32.2	1.020	0.410	-0.740	-0.530
2020/01/31 14:32:32.3	1.070	0.430	-0.760	-0.590
2020/01/31 14:32:32.4	1.120	0.450	-0.780	-0.650
2020/01/31 14:32:32.5	1.170	0.470	-0.780	-0.700
2020/01/31 14:32:32.6	1.210	0.480	-0.780	-0.750
2020/01/31 14:32:32.7	1.270	0.490	-0.780	-0.800
2020/01/31 14:32:32.8	1.300	0.490	-0.760	-0.840
2020/01/31 14:32:32.9	1.340	0.490	-0.740	-0.880
2020/01/31 14:32:33.0	1.370	0.480	-0.710	-0.920
2020/01/31 14:32:33.1	1.400	0.460	-0.680	-0.950
2020/01/31 14:32:33.2	1.430	0.440	-0.640	-0.980
2020/01/31 14:32:33.3	1.450	0.410	-0.600	-1.000
2020/01/31 14:32:33.4	1.470	0.380	-0.540	-1.020
2020/01/31 14:32:33.5	1.480	0.340	-0.490	-1.040
2020/01/31 14:32:33.6	1.500	0.290	-0.430	-1.060
2020/01/31 14:32:33.7	1.520	0.240	-0.370	-1.070
2020/01/31 14:32:33.8	1.530	0.180	-0.310	-1.080
2020/01/31 14:32:33.9	1.530	0.120	-0.240	-1.090
2020/01/31 14:32:34.0	1.540	0.060	-0.180	-1.100
2020/01/31 14:32:34.1	1.540	-0.010	-0.110	-1.110
2020/01/31 14:32:34.2	1.540	-0.080	-0.050	-1.120
2020/01/31 14:32:34.3	1.540	-0.150	0.020	-1.140
2020/01/31 14:32:34.4	1.530	-0.230	0.080	-1.150
2020/01/31 14:32:34.5	1.530	-0.310	0.140	-1.160
2020/01/31 14:32:34.6	1.520	-0.390	0.200	-1.170
2020/01/31 14:32:34.7	1.530	-0.460	0.250	-1.180
2020/01/31 14:32:34.8	1.520	-0.540	0.300	-1.190
2020/01/31 14:32:34.9	1.510	-0.620	0.350	-1.200
2020/01/31 14:32:35.0	1.500	-0.690	0.390	-1.210
2020/01/31 14:32:35.1	1.480	-0.760	0.430	-1.220
2020/01/31 14:32:35.2	1.470	-0.830	0.470	-1.230
2020/01/31 14:32:35.3	1.450	-0.890	0.500	-1.230
2020/01/31 14:32:35.4	1.440	-0.950	0.520	-1.240
2020/01/31 14:32:35.5	1.420	-1.000	0.540	-1.240
2020/01/31 14:32:35.6	1.400	-1.050	0.550	-1.240
2020/01/31 14:32:35.7	1.380	-1.090	0.570	-1.230
2020/01/31 14:32:35.8	1.360	-1.120	0.570	-1.230
2020/01/31 14:32:35.9	1.340	-1.150	0.570	-1.220
2020/01/31 14:32:36.0	1.320	-1.170	0.560	-1.210
2020/01/31 14:32:36.1	1.300	-1.180	0.550	-1.190
2020/01/31 14:32:36.2	1.280	-1.180	0.530	-1.180
2020/01/31 14:32:36.3	1.260	-1.170	0.510	-1.160
2020/01/31 14:32:36.4	1.240	-1.160	0.480	-1.140
2020/01/31 14:32:36.5	1.220	-1.140	0.450	-1.120
2020/01/31 14:32:36.6	1.200	-1.110	0.410	-1.090
2020/01/31 14:32:36.7	1.170	-1.080	0.370	-1.070
2020/01/31 14:32:36.8	1.150	-1.040	0.330	-1.040
2020/01/31 14:32:36.9	1.140	-0.990	0.280	-1.010
2020/01/31 14:32:37.0	1.120	-0.930	0.240	-0.980
2020/01/31 14:32:37.1	1.100	-0.870	0.190	-0.940
2020/01/31 14:32:37.2	1.080	-0.800	0.140	-0.900
2020/01/31 14:32:37.3	1.060	-0.730	0.090	-0.860
2020/01/31 14:32:37.4	1.040	-0.660	0.040	-0.820
2020/01/31 14:32:37.5	1.020	-0.580	-0.000	-0.780
2020/01/31 14:32:37.6	1.000	-0.500	-0.050	-0.730
2020/01/31 14:32:37.7	0.960	-0.410	-0.100	-0.680
2020/01/31 14:32:37.8	0.940	-0.330	-0.140	-0.630
2020/01/31 14:32:37.9	0.910	-0.240	-0.190	-0.580
2020/01/31 14:32:38.0	0.890	-0.160	-0.230	-0.530
2020/01/31 14:32:38.1	0.860	-0.070	-0.260	-0.470
2020/01/31 14:32:38.2	0.830	0.010	-0.300	-0.420
2020/01/31 14:32:38.3	0.810	0.090	-0.330	-0.360
2020/01/31 14:32:38.4	0.780	0.170	-0.360	-0.310
2020/01/31 14:32:38.5	0.760	0.250	-0.390	-0.250
2020/01/31 14:32:38.6	0.740	0.320	-0.420	-0.200
2020/01/31 14:32:38.7	0.740	0.390	-0.440	-0.140
2020/01/31 14:32:38.8	0.720	0.460	-0.470	-0.090
2020/01/31 14:32:38.9	0.700	0.520	-0.490	-0.040
2020/01/31 14:32:39.0	0.690	0.580	-0.510	0.010
2020/01/31 14:32:39.1	0.680	0.630	-0.530	0.050
2020/01/31 14:32:39.2	0.680	0.680	-0.550	0.100
2020/01/31 14:32:39.3	0.670	0.720	-0.570	0.140
2020/01/31 14:32:39.4	0.670	0.760	-0.580	0.170
2020/01/31 14:32:39.5	0.670	0.790	-0.600	0.200
2020/01/31 14:32:39.6	0.680	0.820	-0.620	0.230
2020/01/31 14:32:39.7	0.680	0.850	-0.630	0.260
2020/01/31 14:32:39.8	0.690	0.860	-0.650	0.280
2020/01/31 14:32:39.9	0.700	0.880	-0.660	0.300
2020/01/31 14:32:40.0	0.710	0.890	-0.670	0.310
2020/01/31 14:32:40.1	0.730	0.890	-0.680	0.330
2020/01/31 14:32:40.2	0.740	0.890	-0.680	0.330
2020/01/31 14:32:40.3	0.750	0.880	-0.690	0.340
2020/01/31 14:32:40.4	0.770	0.870	-0.690	0.340
2020/01/31 14:32:40.5	0.780	0.850	-0.680	0.340
2020/01/31 14:32:40.6	0.800	0.830	-0.680	0.340
2020/01/31 14:32:40.7	0.810	0.810	-0.670	0.330
2020/01/31 14:32:40.8	0.820	0.780	-0.650	0.320
2020/01/31 14:32:40.9	0.830	0.750	-0.630	0.310
2020/01/31 14:32:41.0	0.840	0.710	-0.610	0.310
2020/01/31 14:32:41.1	0.850	0.680	-0.580	0.300
2020/01/31 14:32:41.2	0.850	0.630	-0.550	0.290
2020/01/31 14:32:41.3	0.860	0.590	-0.510	0.280
2020/01/31 14:32:41.4	0.860	0.540	-0.470	0.260
2020/01/31 14:32:41.5	0.870	0.490	-0.430	0.250
2020/01/31 14:32:41.6	0.870	0.440	-0.380	0.230
2020/01/31 14:32:41.7	0.870	0.390	-0.330	0.210
2020/01/31 14:32:41.8	0.870	0.340	-0.280	0.190
2020/01/31 14:32:41.9	0.870	0.280	-0.230	0.170
2020/01/31 14:32:42.0	0.870	0.230	-0.180	0.150
2020/01/31 14:32:42.1	0.870	0.170	-0.130	0.120
2020/01/31 14:32:42.2	0.880	0.110	-0.080	0.090
2020/01/31 14:32:42.3	0.880	0.060	-0.030	0.060
2020/01/31 14:32:42.4	0.880	0.000	0.020	0.030
2020/01/31 14:32:42.5	0.880	-0.050	0.060	-0.000
2020/01/31 14:32:42.6	0.890	-0.100	0.100	-0.040
2020/01/31 14:32:42.7	0.880	-0.150	0.140	-0.070
2020/01/31 14:32:42.8	0.890	-0.200	0.170	-0.110
2020/01/31 14:32:42.9	0.890	-0.250	0.200	-0.150
2020/01/31 14:32:43.0	0.900	-0.300	0.220	-0.190
2020/01/31 14:32:43.1	0.910	-0.340	0.230	-0.230
2020/01/31 14:32:43.2	0.920	-0.380	0.240	-0.270
2020/01/31 14:32:43.3	0.930	-0.410	0.240	-0.310
2020/01/31 14:32:43.4	0.940	-0.440	0.240	-0.350
2020/01/31 14:32:43.5	0.950	-0.470	0.230	-0.400
2020/01/31 14:32:43.6	0.970	-0.490	0.210	-0.440
2020/01/31 14:32:43.7	0.980	-0.510	0.190	-0.500
2020/01/31 14:32:43.8	1.000	-0.530	0.160	-0.540
2020/01/31 14:32:43.9	1.010	-0.540	0.120	-0.590
2020/01/31 14:32:44.0	1.030	-0.550	0.080	-0.630
2020/01/31 14:32:44.1	1.050	-0.550	0.030	-0.680
2020/01/31 14:32:44.2	1.070	-0.550	-0.020	-0.730
2020/01/31 14:32:44.3	1.090	-0.550	-0.080	-0.780
2020/01/31 14:32:44.4	1.120	-0.540	-0.150	-0.830
2020/01/31 14:32:44.5	1.140	-0.530	-0.210	-0.880
2020/01/31 14:32:44.6	1.170	-0.510	-0.290	-0.930
2020/01/31 14:32:44.7	1.180	-0.490	-0.360	-0.980
2020/01/31 14:32:44.8	1.210	-0.470	-0.440	-1.020
2020/01/31 14:32:44.9	1.240	-0.440	-0.510	-1.070
2020/01/31 14:32:45.0	1.270	-0.410	-0.590	-1.120
2020/01/31 14:32:45.1	1.300	-0.380	-0.670	-1.160
2020/01/31 14:32:45.2	1.330	-0.350	-0.750	-1.200
2020/01/31 14:32:45.3	1.360	-0.310	-0.820	-1.240
2020/01/31 14:32:45.4	1.390	-0.270	-0.890	-1.280
2020/01/31 14:32:45.5	1.430	-0.230	-0.960	-1.310
2020/01/31 14:32:45.6	1.460	-0.190	-1.030	-1.340
2020/01/31 14:32:45.7	1.510	-0.150	-1.080	-1.370
2020/01/31 14:32:45.8	1.540	-0.110	-1.140	-1.390
2020/01/31 14:32:45.9	1.580	-0.060	-1.190	-1.410
2020/01/31 14:32:46.0	1.610	-0.020	-1.230	-1.420
2020/01/31 14:32:46.1	1.640	0.020	-1.260	-1.430
2020/01/31 14:32:46.2	1.670	0.060	-1.290	-1.440
2020/01/31 14:32:46.3	1.700	0.100	-1.310	-1.440
2020/01/31 14:32:46.4	1.730	0.140	-1.320	-1.430
2020/01/31 14:32:46.5	1.760	0.170	-1.320	-1.420
2020/01/31 14:32:46.6	1.780	0.200	-1.310	-1.400
2020/01/31 14:32:46.7	1.820	0.230	-1.300	-1.380
2020/01/31 14:32:46.8	1.830	0.260	-1.280	-1.350
2020/01/31 14:32:46.9	1.850	0.280	-1.250	-1.320
2020/01/31 14:32:47.0	1.870	0.300	-1.210	-1.290
2020/01/31 14:32:47.1	1.880	0.320	-1.160	-1.250
2020/01/31 14:32:47.2	1.890	0.340	-1.110	-1.210
2020/01/31 14:32:47.3	1.900	0.350	-1.040	-1.170
2020/01/31 14:32:47.4	1.900	0.350	-0.980	-1.120
2020/01/31 14:32:47.5	1.900	0.360	-0.900	-1.070
2020/01/31 14:32:47.6	1.900	0.350	-0.820	-1.020
2020/01/31 14:32:47.7	1.900	0.350	-0.740	-0.970
2020/01/31 14:32:47.8	1.900	0.340	-0.650	-0.920
2020/01/31 14:32:47.9	1.890	0.330	-0.550	-0.860
2020/01/31 14:32:48.0	1.880	0.320	-0.450	-0.810
2020/01/31 14:32:48.1	1.860	0.300	-0.360	-0.750
2020/01/31 14:32:48.2	1.850	0.280	-0.250	-0.700
2020/01/31 14:32:48.3	1.830	0.260	-0.150	-0.640
2020/01/31 14:32:48.4	1.810	0.240	-0.050	-0.590
2020/01/31 14:32:48.5	1.790	0.210	0.050	-0.530
2020/01/31 14:32:48.6	1.760	0.180	0.160	-0.480
2020/01/31 14:32:48.7	1.720	0.150	0.250	-0.420
2020/01/31 14:32:48.8	1.700	0.120	0.350	-0.370
2020/01/31 14:32:48.9	1.670	0.090	0.440	-0.320
2020/01/31 14:32:49.0	1.640	0.050	0.540	-0.270
2020/01/31 14:32:49.1	1.610	0.020	0.630	-0.210
2020/01/31 14:32:49.2	1.580	-0.010	0.710	-0.170
2020/01/31 14:32:49.3	1.540	-0.050	0.790	-0.120
2020/01/31 14:32:49.4	1.510	-0.080	0.870	-0.070
2020/01/31 14:32:49.5	1.480	-0.110	0.930	-0.030
2020/01/31 14:32:49.6	1.440	-0.140	1.000	0.010
2020/01/31 14:32:49.7	1.400	-0.170	1.060	0.050
2020/01/31 14:32:49.8	1.370	-0.200	1.110	0.090
2020/01/31 14:32:49.9	1.340	-0.230	1.150	0.120
2020/01/31 14:32:50.0	1.310	-0.250	1.190	0.150
2020/01/31 14:32:50.1	1.280	-0.270	1.210	0.170
2020/01/31 14:32:50.2	1.250	-0.290	1.240	0.190
2020/01/31 14:32:50.3	1.220	-0.300	1.250	0.210
2020/01/31 14:32:50.4	1.190	-0.310	1.250	0.230
2020/01/31 14:32:50.5	1.160	-0.320	1.250	0.240
2020/01/31 14:32:50.6	1.130	-0.330	1.240	0.250
2020/01/31 14:32:50.7	1.100	-0.330	1.220	0.260
2020/01/31 14:32:50.8	1.070	-0.320	1.200	0.260
2020/01/31 14:32:50.9	1.050	-0.320	1.170	0.260
2020/01/31 14:32:51.0	1.020	-0.310	1.130	0.270
2020/01/31 14:32:51.1	1.000	-0.300	1.090	0.270
2020/01/31 14:32:51.2	0.970	-0.280	1.040	0.260
2020/01/31 14:32:51.3	0.950	-0.260	0.980	0.260
2020/01/31 14:32:51.4	0.930	-0.240	0.930	0.260
2020/01/31 14:32:51.5	0.900	-0.220	0.860	0.260
2020/01/31 14:32:51.6	0.880	-0.190	0.800	0.250
2020/01/31 14:32:51.7	0.840	-0.160	0.730	0.240
2020/01/31 14:32:51.8	0.820	-0.130	0.660	0.240
2020/01/31 14:32:51.9	0.800	-0.100	0.580	0.230
2020/01/31 14:32:52.0	0.780	-0.070	0.500	0.230
2020/01/31 14:32:52.1	0.760	-0.040	0.420	0.230
2020/01/31 14:32:52.2	0.740	-0.010	0.340	0.220
2020/01/31 14:32:52.3	0.720	0.030	0.250	0.220
2020/01/31 14:32:52.4	0.700	0.060	0.170	0.210
2020/01/31 14:32:52.5	0.690	0.090	0.080	0.210
2020/01/31 14:32:52.6	0.670	0.120	-0.010	0.200
2020/01/31 14:32:52.7	0.660	0.140	-0.100	0.190
2020/01/31 14:32:52.8	0.650	0.170	-0.190	0.180
2020/01/31 14:32:52.9	0.640	0.190	-0.280	0.170
2020/01/31 14:32:53.0	0.640	0.210	-0.380	0.150
2020/01/31 14:32:53.1	0.640	0.230	-0.470	0.130
2020/01/31 14:32:53.2	0.640	0.240	-0.560	0.110
2020/01/31 14:32:53.3	0.640	0.250	-0.650	0.090
2020/01/31 14:32:53.4	0.650	0.260	-0.740	0.060
2020/01/31 14:32:53.5	0.660	0.270	-0.830	0.030
2020/01/31 14:32:53.6	0.670	0.270	-0.910	-0.010
2020/01/31 14:32:53.7	0.690	0.270	-1.000	-0.050
2020/01/31 14:32:53.8	0.710	0.260	-1.080	-0.090
2020/01/31 14:32:53.9	0.720	0.260	-1.150	-0.140
2020/01/31 14:32:54.0	0.740	0.240	-1.220	-0.190
2020/01/31 14:32:54.1	0.760	0.230	-1.290	-0.240
2020/01/31 14:32:54.2	0.780	0.210	-1.350	-0.300
2020/01/31 14:32:54.3	0.800	0.190	-1.410	-0.360
2020/01/31 14:32:54.4	0.830	0.170	-1.460	-0.420
2020/01/31 14:32:54.5	0.850	0.140	-1.510	-0.480
2020/01/31 14:32:54.6	0.870	0.110	-1.550	-0.550
2020/01/31 14:32:54.7	0.900	0.080	-1.580	-0.620
2020/01/31 14:32:54.8	0.920	0.050	-1.610	-0.680
2020/01/31 14:32:54.9	0.950	0.020	-1.630	-0.750
2020/01/31 14:32:55.0	0.970	-0.020	-1.650	-0.810
2020/01/31 14:32:55.1	1.000	-0.050	-1.650	-0.880
2020/01/31 14:32:55.2	1.020	-0.080	-1.660	-0.940
2020/01/31 14:32:55.3	1.050	-0.120	-1.650	-1.000
2020/01/31 14:32:55.4	1.070	-0.150	-1.640	-1.060
2020/01/31 14:32:55.5	1.100	-0.180	-1.630	-1.120
2020/01/31 14:32:55.6	1.130	-0.210	-1.610	-1.180
2020/01/31 14:32:55.7	1.160	-0.240	-1.580	-1.230
2020/01/31 14:32:55.8	1.190	-0.260	-1.550	-1.290
2020/01/31 14:32:55.9	1.220	-0.290	-1.510	-1.340
2020/01/31 14:32:56.0	1.250	-0.310	-1.480	-1.390
2020/01/31 14:32:56.1	1.290	-0.320	-1.430	-1.440
2020/01/31 14:32:56.2	1.320	-0.340	-1.390	-1.480
2020/01/31 14:32:56.3	1.360	-0.350	-1.340	-1.530
2020/01/31 14:32:56.4	1.390	-0.350	-1.290	-1.570
2020/01/31 14:32:56.5	1.430	-0.360	-1.240	-1.610
2020/01/31 14:32:56.6	1.470	-0.360	-1.190	-1.650
2020/01/31 14:32:56.7	1.520	-0.350	-1.130	-1.700
2020/01/31 14:32:56.8	1.560	-0.340	-1.080	-1.730
2020/01/31 14:32:56.9	1.610	-0.330	-1.020	-1.760
2020/01/31 14:32:57.0	1.650	-0.320	-0.970	-1.780
2020/01/31 14:32:57.1	1.690	-0.300	-0.910	-1.810
2020/01/31 14:32:57.2	1.730	-0.280	-0.850	-1.820
2020/01/31 14:32:57.3	1.770	-0.250	-0.790	-1.830
2020/01/31 14:32:57.4	1.800	-0.230	-0.730	-1.830
2020/01/31 14:32:57.5	1.830	-0.200	-0.670	-1.820
2020/01/31 14:32:57.6	1.860	-0.170	-0.600	-1.800
2020/01/31 14:32:57.7	1.890	-0.140	-0.540	-1.780
2020/01/31 14:32:57.8	1.910	-0.110	-0.470	-1.750
2020/01/31 14:32:57.9	1.930	-0.070	-0.410	-1.710
2020/01/31 14:32:58.0	1.940	-0.040	-0.340	-1.660
2020/01/31 14:32:58.1	1.950	-0.010	-0.270	-1.610
2020/01/31 14:32:58.2	1.950	0.020	-0.200	-1.550
2020/01/31 14:32:58.3	1.950	0.050	-0.130	-1.490
2020/01/31 14:32:58.4	1.950	0.080	-0.060	-1.420
2020/01/31 14:32:58.5	1.940	0.110	0.010	-1.350
2020/01/31 14:32:58.6	1.930	0.130	0.080	-1.270
2020/01/31 14:32:58.7	1.910	0.160	0.140	-1.190
2020/01/31 14:32:58.8	1.890	0.180	0.200	-1.110
2020/01/31 14:32:58.9	1.870	0.200	0.270	-1.040
2020/01/31 14:32:59.0	1.850	0.210	0.330	-0.950
2020/01/31 14:32:59.1	1.830	0.230	0.390	-0.880
2020/01/31 14:32:59.2	1.800	0.240	0.440	-0.800
2020/01/31 14:32:59.3	1.780	0.260	0.490	-0.720
2020/01/31 14:32:59.4	1.750	0.270	0.540	-0.640
2020/01/31 14:32:59.5	1.720	0.270	0.590	-0.570
2020/01/31 14:32:59.6	1.690	0.280	0.630	-0.490
2020/01/31 14:32:59.7	1.660	0.290	0.660	-0.420
2020/01/31 14:32:59.8	1.630	0.290	0.690	-0.340
2020/01/31 14:32:59.9	1.590	0.290	0.720	-0.270
2020/01/31 14:33:00.0	1.550	0.290	0.750	-0.200
2020/01/31 14:33:00.1	1.520	0.290	0.770	-0.130
2020/01/31 14:33:00.2	1.480	0.290	0.790	-0.050
2020/01/31 14:33:00.3	1.440	0.290	0.810	0.020
2020/01/31 14:33:00.4	1.400	0.290	0.820	0.090
2020/01/31 14:33:00.5	1.350	0.290	0.830	0.160
2020/01/31 14:33:00.6	1.310	0.290	0.830	0.230
2020/01/31 14:33:00.7	1.250	0.290	0.830	0.290
2020/01/31 14:33:00.8	1.210	0.290	0.830	0.350
2020/01/31 14:33:00.9	1.170	0.290	0.830	0.410
2020/01/31 14:33:01.0	1.120	0.290	0.820	0.470
2020/01/31 14:33:01.1	1.080	0.290	0.810	0.520
2020/01/31 14:33:01.2	1.040	0.290	0.790	0.570
2020/01/31 14:33:01.3	0.990	0.290	0.770	0.610
2020/01/31 14:33:01.4	0.950	0.290	0.750	0.650
2020/01/31 14:33:01.5	0.910	0.290	0.720	0.680
2020/01/31 14:33:01.6	0.870	0.290	0.700	0.710
2020/01/31 14:33:01.7	0.830	0.290	0.670	0.730
2020/01/31 14:33:01.8	0.790	0.290	0.630	0.740
2020/01/31 14:33:01.9	0.750	0.280	0.590	0.750
2020/01/31 14:33:02.0	0.710	0.280	0.550	0.760
2020/01/31 14:33:02.1	0.670	0.280	0.510	0.760
2020/01/31 14:33:02.2	0.630	0.280	0.460	0.750
2020/01/31 14:33:02.3	0.600	0.270	0.410	0.740
2020/01/31 14:33:02.4	0.560	0.260	0.360	0.720
2020/01/31 14:33:02.5	0.530	0.260	0.310	0.700
2020/01/31 14:33:02.6	0.500	0.250	0.250	0.680
2020/01/31 14:33:02.7	0.470	0.240	0.190	0.640
2020/01/31 14:33:02.8	0.440	0.220	0.130	0.610
2020/01/31 14:33:02.9	0.420	0.210	0.070	0.570
2020/01/31 14:33:03.0	0.400	0.190	0.010	0.530
2020/01/31 14:33:03.1	0.380	0.180	-0.060	0.490
2020/01/31 14:33:03.2	0.370	0.160	-0.130	0.440
2020/01/31 14:33:03.3	0.350	0.130	-0.190	0.380
2020/01/31 14:33:03.4	0.340	0.110	-0.260	0.330
2020/01/31 14:33:03.5	0.340	0.080	-0.330	0.270
2020/01/31 14:33:03.6	0.330	0.060	-0.400	0.200
2020/01/31 14:33:03.7	0.320	0.030	-0.460	0.130
2020/01/31 14:33:03.8	0.320	-0.000	-0.530	0.060
2020/01/31 14:33:03.9	0.330	-0.040	-0.600	-0.010
2020/01/31 14:33:04.0	0.340	-0.070	-0.660	-0.090
2020/01/31 14:33:04.1	0.350	-0.110	-0.730	-0.170
2020/01/31 14:33:04.2	0.370	-0.150	-0.790	-0.260
2020/01/31 14:33:04.3	0.380	-0.190	-0.850	-0.350
2020/01/31 14:33:04.4	0.400	-0.230	-0.900	-0.440
2020/01/31 14:33:04.5	0.430	-0.270	-0.950	-0.530
2020/01/31 14:33:04.6	0.450	-0.310	-1.000	-0.620
2020/01/31 14:33:04.7	0.490	-0.350	-1.040	-0.720
2020/01/31 14:33:04.8	0.520	-0.390	-1.090	-0.810
2020/01/31 14:33:04.9	0.550	-0.420	-1.120	-0.910
2020/01/31 14:33:05.0	0.580	-0.460	-1.160	-1.000
2020/01/31 14:33:05.1	0.610	-0.500	-1.180	-1.090
2020/01/31 14:33:05.2	0.650	-0.530	-1.210	-1.170
2020/01/31 14:33:05.3	0.680	-0.560	-1.220	-1.260
2020/01/31 14:33:05.4	0.720	-0.590	-1.240	-1.340
2020/01/31 14:33:05.5	0.760	-0.620	-1.240	-1.410
2020/01/31 14:33:05.6	0.790	-0.640	-1.240	-1.480
2020/01/31 14:33:05.7	0.850	-0.660	-1.230	-1.550
2020/01/31 14:33:05.8	0.880	-0.680	-1.220	-1.610
2020/01/31 14:33:05.9	0.920	-0.690	-1.200	-1.670
2020/01/31 14:33:06.0	0.950	-0.700	-1.170	-1.710
2020/01/31 14:33:06.1	0.980	-0.700	-1.140	-1.760
2020/01/31 14:33:06.2	1.010	-0.700	-1.100	-1.790
2020/01/31 14:33:06.3	1.030	-0.700	-1.050	-1.820
2020/01/31 14:33:06.4	1.060	-0.690	-1.000	-1.840
2020/01/31 14:33:06.5	1.080	-0.680	-0.950	-1.850
2020/01/31 14:33:06.6	1.100	-0.660	-0.890	-1.850
2020/01/31 14:33:06.7	1.090	-0.640	-0.820	-1.860
2020/01/31 14:33:06.8	1.100	-0.620	-0.750	-1.850
2020/01/31 14:33:06.9	1.120	-0.590	-0.680	-1.840
2020/01/31 14:33:07.0	1.130	-0.560	-0.610	-1.810
2020/01/31 14:33:07.1	1.130	-0.520	-0.540	-1.790
2020/01/31 14:33:07.2	1.130	-0.480	-0.460	-1.750
2020/01/31 14:33:07.3	1.130	-0.440	-0.380	-1.710
2020/01/31 14:33:07.4	1.130	-0.400	-0.310	-1.660
2020/01/31 14:33:07.5	1.120	-0.350	-0.230	-1.610
2020/01/31 14:33:07.6	1.110	-0.300	-0.160	-1.540
2020/01/31 14:33:07.7	1.110	-0.250	-0.100	-1.480
2020/01/31 14:33:07.8	1.090	-0.200	-0.030	-1.400
2020/01/31 14:33:07.9	1.070	-0.150	0.030	-1.320
2020/01/31 14:33:08.0	1.050	-0.090	0.090	-1.240
2020/01/31 14:33:08.1	1.030	-0.040	0.140	-1.150
2020/01/31 14:33:08.2	1.000	0.020	0.180	-1.060
2020/01/31 14:33:08.3	0.970	0.070	0.220	-0.970
2020/01/31 14:33:08.4	0.940	0.130	0.260	-0.870
2020/01/31 14:33:08.5	0.910	0.180	0.280	-0.770
2020/01/31 14:33:08.6	0.880	0.230	0.300	-0.670
2020/01/31 14:33:08.7	0.840	0.280	0.320	-0.570
2020/01/31 14:33:08.8	0.810	0.330	0.320	-0.470
2020/01/31 14:33:08.9	0.780	0.380	0.320	-0.370
2020/01/31 14:33:09.0	0.750	0.420	0.310	-0.280
2020/01/31 14:33:09.1	0.720	0.470	0.290	-0.190
2020/01/31 14:33:09.2	0.700	0.510	0.270	-0.100
2020/01/31 14:33:09.3	0.670	0.540	0.240	-0.020
2020/01/31 14:33:09.4	0.650	0.580	0.200	0.050
2020/01/31 14:33:09.5	0.630	0.610	0.160	0.130
2020/01/31 14:33:09.6	0.600	0.640	0.110	0.190
2020/01/31 14:33:09.7	0.570	0.660	0.060	0.250
2020/01/31 14:33:09.8	0.550	0.680	0.000	0.310
2020/01/31 14:33:09.9	0.530	0.700	-0.060	0.360
2020/01/31 14:33:10.0	0.500	0.720	-0.120	0.400
2020/01/31 14:33:10.1	0.480	0.730	-0.180	0.440
2020/01/31 14:33:10.2	0.460	0.730	-0.240	0.470
2020/01/31 14:33:10.3	0.440	0.740	-0.300	0.490
2020/01/31 14:33:10.4	0.420	0.740	-0.360	0.510
2020/01/31 14:33:10.5	0.400	0.740	-0.420	0.520
2020/01/31 14:33:10.6	0.380	0.730	-0.480	0.530
2020/01/31 14:33:10.7	0.380	0.720	-0.530	0.530
2020/01/31 14:33:10.8	0.370	0.710	-0.580	0.520
2020/01/31 14:33:10.9	0.350	0.690	-0.620	0.510
2020/01/31 14:33:11.0	0.340	0.670	-0.670	0.490
2020/01/31 14:33:11.1	0.320	0.650	-0.700	0.460
2020/01/31 14:33:11.2	0.310	0.620	-0.740	0.430
2020/01/31 14:33:11.3	0.300	0.600	-0.760	0.400
2020/01/31 14:33:11.4	0.290	0.570	-0.780	0.360
2020/01/31 14:33:11.5	0.270	0.540	-0.790	0.330
2020/01/31 14:33:11.6	0.260	0.500	-0.800	0.280
2020/01/31 14:33:11.7	0.270	0.470	-0.790	0.230
2020/01/31 14:33:11.8	0.250	0.430	-0.790	0.190
2020/01/31 14:33:11.9	0.240	0.390	-0.770	0.140
2020/01/31 14:33:12.0	0.230	0.350	-0.750	0.090
2020/01/31 14:33:12.1	0.220	0.300	-0.720	0.040
2020/01/31 14:33:12.2	0.200	0.260	-0.690	-0.010
2020/01/31 14:33:12.3	0.190	0.220	-0.650	-0.060
2020/01/31 14:33:12.4	0.180	0.170	-0.600	-0.110
2020/01/31 14:33:12.5	0.160	0.130	-0.550	-0.160
2020/01/31 14:33:12.6	0.150	0.080	-0.500	-0.200
2020/01/31 14:33:12.7	0.150	0.040	-0.450	-0.250
2020/01/31 14:33:12.8	0.140	-0.010	-0.390	-0.290
2020/01/31 14:33:12.9	0.120	-0.050	-0.320	-0.330
2020/01/31 14:33:13.0	0.110	-0.090	-0.260	-0.370
2020/01/31 14:33:13.1	0.100	-0.140	-0.200	-0.410
2020/01/31 14:33:13.2	0.080	-0.180	-0.130	-0.450
2020/01/31 14:33:13.3	0.070	-0.220	-0.070	-0.480
2020/01/31 14:33:13.4	0.060	-0.250	-0.010	-0.520
2020/01/31 14:33:13.5	0.050	-0.290	0.050	-0.550
2020/01/31 14:33:13.6	0.040	-0.320	0.100	-0.590
2020/01/31 14:33:13.7	0.010	-0.350	0.150	-0.620
2020/01/31 14:33:13.8	0.010	-0.380	0.190	-0.660
2020/01/31 14:33:13.9	0.000	-0.410	0.230	-0.690
2020/01/31 14:33:14.0	359.990	-0.430	0.270	-0.720
2020/01/31 14:33:14.1	359.990	-0.460	0.300	-0.740
2020/01/31 14:33:14.2	359.980	-0.480	0.320	-0.770
2020/01/31 14:33:14.3	359.980	-0.490	0.340	-0.800
2020/01/31 14:33:14.4	359.970	-0.510	0.360	-0.820
2020/01/31 14:33:14.5	359.970	-0.520	0.370	-0.850
2020/01/31 14:33:14.6	359.970	-0.530	0.370	-0.870
2020/01/31 14:33:14.7	359.970	-0.540	0.370	-0.890
2020/01/31 14:33:14.8	359.970	-0.540	0.360	-0.910
2020/01/31 14:33:14.9	359.970	-0.550	0.350	-0.920
2020/01/31 14:33:15.0	359.980	-0.540	0.330	-0.930
2020/01/31 14:33:15.1	359.980	-0.540	0.300	-0.940
2020/01/31 14:33:15.2	359.990	-0.530	0.270	-0.950
2020/01/31 14:33:15.3	0.000	-0.520	0.230	-0.960
2020/01/31 14:33:15.4	0.020	-0.510	0.200	-0.960
2020/01/31 14:33:15.5	0.030	-0.500	0.150	-0.960
2020/01/31 14:33:15.6	0.050	-0.480	0.110	-0.960
2020/01/31 14:33:15.7	0.090	-0.460	0.060	-0.950
2020/01/31 14:33:15.8	0.110	-0.440	0.010	-0.950
2020/01/31 14:33:15.9	0.130	-0.410	-0.040	-0.940
2020/01/31 14:33:16.0	0.150	-0.390	-0.090	-0.920
2020/01/31 14:33:16.1	0.170	-0.360	-0.150	-0.910
2020/01/31 14:33:16.2	0.190	-0.330	-0.200	-0.890
2020/01/31 14:33:16.3	0.210	-0.300	-0.250	-0.870
2020/01/31 14:33:16.4	0.230	-0.260	-0.300	-0.850
2020/01/31 14:33:16.5	0.250	-0.230	-0.340	-0.820
2020/01/31 14:33:16.6	0.260	-0.190	-0.390	-0.790
2020/01/31 14:33:16.7	0.280	-0.160	-0.420	-0.760
2020/01/31 14:33:16.8	0.290	-0.120	-0.460	-0.730
2020/01/31 14:33:16.9	0.300	-0.090	-0.480	-0.690
2020/01/31 14:33:17.0	0.310	-0.050	-0.510	-0.640
2020/01/31 14:33:17.1	0.320	-0.020	-0.520	-0.600
2020/01/31 14:33:17.2	0.320	0.020	-0.530	-0.550
2020/01/31 14:33:17.3	0.320	0.050	-0.540	-0.490
2020/01/31 14:33:17.4	0.320	0.080	-0.530	-0.440
2020/01/31 14:33:17.5	0.320	0.110	-0.530	-0.380
2020/01/31 14:33:17.6	0.320	0.140	-0.510	-0.320
2020/01/31 14:33:17.7	0.300	0.170	-0.500	-0.250
2020/01/31 14:33:17.8	0.290	0.190	-0.480	-0.180
2020/01/31 14:33:17.9	0.280	0.210	-0.450	-0.120
2020/01/31 14:33:18.0	0.270	0.230	-0.420	-0.060
2020/01/31 14:33:18.1	0.260	0.240	-0.390	0.010
2020/01/31 14:33:18.2	0.240	0.260	-0.360	0.070
2020/01/31 14:33:18.3	0.230	0.260	-0.320	0.130
2020/01/31 14:33:18.4	0.210	0.270	-0.290	0.180
2020/01/31 14:33:18.5	0.190	0.270	-0.250	0.230
2020/01/31 14:33:18.6	0.170	0.260	-0.210	0.280
2020/01/31 14:33:18.7	0.140	0.250	-0.180	0.330
2020/01/31 14:33:18.8	0.120	0.240	-0.140	0.360
2020/01/31 14:33:18.9	0.090	0.220	-0.100	0.400
2020/01/31 14:33:19.0	0.070	0.200	-0.070	0.430
2020/01/31 14:33:19.1	0.040	0.180	-0.040	0.450
2020/01/31 14:33:19.2	0.010	0.150	-0.000	0.470
2020/01/31 14:33:19.3	359.980	0.120	0.020	0.480
2020/01/31 14:33:19.4	359.940	0.090	0.050	0.490
2020/01/31 14:33:19.5	359.910	0.060	0.070	0.490
2020/01/31 14:33:19.6	359.880	0.020	0.090	0.480
2020/01/31 14:33:19.7	359.840	-0.020	0.110	0.470
2020/01/31 14:33:19.8	359.810	-0.060	0.120	0.450
2020/01/31 14:33:19.9	359.770	-0.100	0.130	0.430
2020/01/31 14:33:20.0	359.740	-0.140	0.130	0.410
2020/01/31 14:33:20.1	359.700	-0.180	0.130	0.380
2020/01/31 14:33:20.2	359.670	-0.220	0.120	0.350
2020/01/31 14:33:20.3	359.640	-0.260	0.110	0.320
2020/01/31 14:33:20.4	359.610	-0.300	0.100	0.280
2020/01/31 14:33:20.5	359.580	-0.330	0.080	0.240
2020/01/31 14:33:20.6	359.550	-0.360	0.050	0.190
2020/01/31 14:33:20.7	359.520	-0.390	0.030	0.150
2020/01/31 14:33:20.8	359.500	-0.410	-0.010	0.100
2020/01/31 14:33:20.9	359.490	-0.430	-0.040	0.050
2020/01/31 14:33:21.0	359.470	-0.450	-0.080	-0.000
2020/01/31 14:33:21.1	359.460	-0.450	-0.130	-0.060
2020/01/31 14:33:21.2	359.450	-0.450	-0.180	-0.110
2020/01/31 14:33:21.3	359.450	-0.450	-0.230	-0.170
2020/01/31 14:33:21.4	359.450	-0.440	-0.280	-0.220
2020/01/31 14:33:21.5	359.450	-0.420	-0.340	-0.280
2020/01/31 14:33:21.6	359.460	-0.400	-0.390	-0.340
2020/01/31 14:33:21.7	359.470	-0.370	-0.450	-0.400
2020/01/31 14:33:21.8	359.480	-0.340	-0.510	-0.460
2020/01/31 14:33:21.9	359.500	-0.300	-0.570	-0.510
2020/01/31 14:33:22.0	359.520	-0.250	-0.630	-0.570
2020/01/31 14:33:22.1	359.540	-0.200	-0.690	-0.620
2020/01/31 14:33:22.2	359.570	-0.140	-0.740	-0.670
2020/01/31 14:33:22.3	359.600	-0.080	-0.800	-0.710
2020/01/31 14:33:22.4	359.630	-0.020	-0.850	-0.760
2020/01/31 14:33:22.5	359.660	0.050	-0.910	-0.800
2020/01/31 14:33:22.6	359.690	0.120	-0.950	-0.830
2020/01/31 14:33:22.7	359.720	0.190	-1.000	-0.870
2020/01/31 14:33:22.8	359.760	0.270	-1.030	-0.900
2020/01/31 14:33:22.9	359.790	0.340	-1.070	-0.920
2020/01/31 14:33:23.0	359.830	0.410	-1.100	-0.940
2020/01/31 14:33:23.1	359.870	0.490	-1.120	-0.960
2020/01/31 14:33:23.2	359.910	0.560	-1.140	-0.970
2020/01/31 14:33:23.3	359.950	0.620	-1.150	-0.970
2020/01/31 14:33:23.4	359.990	0.690	-1.150	-0.970
2020/01/31 14:33:23.5	0.030	0.750	-1.150	-0.970
2020/01/31 14:33:23.6	0.060	0.810	-1.140	-0.960
2020/01/31 14:33:23.7	0.110	0.860	-1.120	-0.940
2020/01/31 14:33:23.8	0.150	0.900	-1.090	-0.920
2020/01/31 14:33:23.9	0.180	0.940	-1.060	-0.900
2020/01/31 14:33:24.0	0.210	0.980	-1.020	-0.880
2020/01/31 14:33:24.1	0.230	1.000	-0.980	-0.850
2020/01/31 14:33:24.2	0.250	1.020	-0.930	-0.820
2020/01/31 14:33:24.3	0.270	1.030	-0.870	-0.780
2020/01/31 14:33:24.4	0.290	1.040	-0.800	-0.740
2020/01/31 14:33:24.5	0.300	1.040	-0.730	-0.700
2020/01/31 14:33:24.6	0.310	1.030	-0.660	-0.660
2020/01/31 14:33:24.7	0.310	1.010	-0.590	-0.620
2020/01/31 14:33:24.8	0.320	0.990	-0.510	-0.580
2020/01/31 14:33:24.9	0.320	0.960	-0.420	-0.540
2020/01/31 14:33:25.0	0.310	0.920	-0.340	-0.500
2020/01/31 14:33:25.1	0.310	0.870	-0.250	-0.460
2020/01/31 14:33:25.2	0.300	0.830	-0.160	-0.410
2020/01/31 14:33:25.3	0.280	0.770	-0.080	-0.380
2020/01/31 14:33:25.4	0.270	0.710	0.010	-0.340
2020/01/31 14:33:25.5	0.250	0.650	0.090	-0.300
2020/01/31 14:33:25.6	0.230	0.580	0.170	-0.270
2020/01/31 14:33:25.7	0.210	0.510	0.250	-0.240
2020/01/31 14:33:25.8	0.190	0.430	0.320	-0.220
2020/01/31 14:33:25.9	0.170	0.360	0.390	-0.190
2020/01/31 14:33:26.0	0.140	0.280	0.450	-0.170
2020/01/31 14:33:26.1	0.120	0.200	0.510	-0.160
2020/01/31 14:33:26.2	0.090	0.130	0.560	-0.140
2020/01/31 14:33:26.3	0.070	0.050	0.600	-0.130
2020/01/31 14:33:26.4	0.040	-0.030	0.640	-0.130
2020/01/31 14:33:26.5	0.020	-0.110	0.680	-0.120
2020/01/31 14:33:26.6	359.990	-0.180	0.700	-0.120
2020/01/31 14:33:26.7	359.950	-0.250	0.720	-0.120
2020/01/31 14:33:26.8	359.920	-0.320	0.740	-0.120
2020/01/31 14:33:26.9	359.890	-0.390	0.750	-0.110
2020/01/31 14:33:27.0	359.850	-0.460	0.760	-0.110
2020/01/31 14:33:27.1	359.820	-0.520	0.760	-0.110
2020/01/31 14:33:27.2	359.780	-0.570	0.750	-0.120
2020/01/31 14:33:27.3	359.750	-0.630	0.740	-0.120
2020/01/31 14:33:27.4	359.720	-0.680	0.720	-0.120
2020/01/31 14:33:27.5	359.680	-0.720	0.700	-0.130
2020/01/31 14:33:27.6	359.650	-0.760	0.670	-0.140
2020/01/31 14:33:27.7	359.630	-0.790	0.650	-0.150
2020/01/31 14:33:27.8	359.600	-0.820	0.610	-0.170
2020/01/31 14:33:27.9	359.580	-0.850	0.570	-0.190
2020/01/31 14:33:28.0	359.550	-0.870	0.520	-0.210
2020/01/31 14:33:28.1	359.530	-0.880	0.470	-0.230
2020/01/31 14:33:28.2	359.510	-0.890	0.410	-0.260
2020/01/31 14:33:28.3	359.500	-0.890	0.350	-0.280
2020/01/31 14:33:28.4	359.480	-0.890	0.290	-0.310
2020/01/31 14:33:28.5	359.480	-0.880	0.220	-0.350
2020/01/31 14:33:28.6	359.470	-0.870	0.150	-0.380
2020/01/31 14:33:28.7	359.470	-0.860	0.080	-0.420
2020/01/31 14:33:28.8	359.470	-0.830	0.000	-0.460
2020/01/31 14:33:28.9	359.480	-0.810	-0.070	-0.490
2020/01/31 14:33:29.0	359.490	-0.780	-0.150	-0.530
2020/01/31 14:33:29.1	359.500	-0.750	-0.220	-0.560
2020/01/31 14:33:29.2	359.510	-0.710	-0.300	-0.590
2020/01/31 14:33:29.3	359.530	-0.670	-0.370	-0.620
2020/01/31 14:33:29.4	359.540	-0.630	-0.440	-0.640
2020/01/31 14:33:29.5	359.560	-0.590	-0.510	-0.670
2020/01/31 14:33:29.6	359.570	-0.550	-0.580	-0.690
2020/01/31 14:33:29.7	359.580	-0.510	-0.630	-0.710
2020/01/31 14:33:29.8	359.600	-0.470	-0.690	-0.730
2020/01/31 14:33:29.9	359.620	-0.420	-0.740	-0.750
2020/01/31 14:33:30.0	359.640	-0.380	-0.790	-0.770
2020/01/31 14:33:30.1	359.660	-0.340	-0.830	-0.790
2020/01/31 14:33:30.2	359.690	-0.300	-0.870	-0.800
2020/01/31 14:33:30.3	359.710	-0.260	-0.900	-0.820
2020/01/31 14:33:30.4	359.730	-0.230	-0.920	-0.830
2020/01/31 14:33:30.5	359.750	-0.200	-0.940	-0.840
2020/01/31 14:33:30.6	359.780	-0.170	-0.950	-0.850
2020/01/31 14:33:30.7	359.800	-0.140	-0.970	-0.860
2020/01/31 14:33:30.8	359.830	-0.110	-0.970	-0.870
2020/01/31 14:33:30.9	359.850	-0.090	-0.960	-0.870
2020/01/31 14:33:31.0	359.880	-0.070	-0.960	-0.870
2020/01/31 14:33:31.1	359.910	-0.050	-0.940	-0.870
2020/01/31 14:33:31.2	359.930	-0.030	-0.920	-0.870
2020/01/31 14:33:31.3	359.960	-0.020	-0.900	-0.860
2020/01/31 14:33:31.4	359.990	-0.010	-0.880	-0.860
2020/01/31 14:33:31.5	0.010	0.000	-0.850	-0.840
2020/01/31 14:33:31.6	0.030	0.010	-0.820	-0.830
2020/01/31 14:33:31.7	0.060	0.020	-0.780	-0.810
2020/01/31 14:33:31.8	0.070	0.020	-0.740	-0.790
2020/01/31 14:33:31.9	0.090	0.020	-0.700	-0.760
2020/01/31 14:33:32.0	0.100	0.020	-0.660	-0.740
2020/01/31 14:33:32.1	0.110	0.020	-0.610	-0.710
2020/01/31 14:33:32.2	0.110	0.020	-0.570	-0.680
2020/01/31 14:33:32.3	0.110	0.020	-0.520	-0.640
2020/01/31 14:33:32.4	0.120	0.020	-0.480	-0.610
2020/01/31 14:33:32.5	0.110	0.020	-0.440	-0.570
2020/01/31 14:33:32.6	0.110	0.020	-0.390	-0.530
2020/01/31 14:33:32.7	0.090	0.020	-0.350	-0.500
2020/01/31 14:33:32.8	0.080	0.020	-0.310	-0.460
2020/01/31 14:33:32.9	0.080	0.020	-0.280	-0.430
2020/01/31 14:33:33.0	0.070	0.020	-0.240	-0.390
2020/01/31 14:33:33.1	0.060	0.030	-0.210	-0.360
2020/01/31 14:33:33.2	0.040	0.040	-0.180	-0.330
2020/01/31 14:33:33.3	0.030	0.050	-0.160	-0.300
2020/01/31 14:33:33.4	0.020	0.060	-0.130	-0.270
2020/01/31 14:33:33.5	0.010	0.070	-0.120	-0.240
2020/01/31 14:33:33.6	0.000	0.090	-0.100	-0.210
2020/01/31 14:33:33.7	359.980	0.100	-0.080	-0.190
2020/01/31 14:33:33.8	359.970	0.120	-0.070	-0.160
2020/01/31 14:33:33.9	359.950	0.140	-0.060	-0.140
2020/01/31 14:33:34.0	359.930	0.170	-0.050	-0.110
2020/01/31 14:33:34.1	359.920	0.190	-0.040	-0.080
2020/01/31 14:33:34.2	359.890	0.220	-0.040	-0.060
2020/01/31 14:33:34.3	359.870	0.240	-0.030	-0.030
2020/01/31 14:33:34.4	359.850	0.270	-0.030	-0.000
2020/01/31 14:33:34.5	359.820	0.300	-0.020	0.020
2020/01/31 14:33:34.6	359.800	0.330	-0.020	0.050
2020/01/31 14:33:34.7	359.770	0.360	-0.020	0.080
2020/01/31 14:33:34.8	359.740	0.380	-0.010	0.100
2020/01/31 14:33:34.9	359.710	0.410	-0.010	0.130
2020/01/31 14:33:35.0	359.680	0.440	-0.000	0.160
2020/01/31 14:33:35.1	359.650	0.460	0.000	0.190
2020/01/31 14:33:35.2	359.620	0.490	0.010	0.220
2020/01/31 14:33:35.3	359.590	0.510	0.010	0.240
2020/01/31 14:33:35.4	359.560	0.520	0.020	0.270
2020/01/31 14:33:35.5	359.530	0.540	0.030	0.290
2020/01/31 14:33:35.6	359.500	0.560	0.030	0.320
2020/01/31 14:33:35.7	359.450	0.570	0.040	0.340
2020/01/31 14:33:35.8	359.420	0.580	0.050	0.360
2020/01/31 14:33:35.9	359.400	0.580	0.050	0.380
2020/01/31 14:33:36.0	359.370	0.590	0.050	0.390
2020/01/31 14:33:36.1	359.350	0.590	0.050	0.410
2020/01/31 14:33:36.2	359.330	0.580	0.050	0.420
2020/01/31 14:33:36.3	359.320	0.580	0.040	0.420
2020/01/31 14:33:36.4	359.300	0.570	0.040	0.430
2020/01/31 14:33:36.5	359.290	0.560	0.030	0.430
2020/01/31 14:33:36.6	359.280	0.550	0.020	0.430
2020/01/31 14:33:36.7	359.270	0.530	0.010	0.420
2020/01/31 14:33:36.8	359.260	0.510	-0.010	0.410
2020/01/31 14:33:36.9	359.260	0.490	-0.020	0.400
2020/01/31 14:33:37.0	359.250	0.470	-0.040	0.380
2020/01/31 14:33:37.1	359.250	0.440	-0.060	0.360
2020/01/31 14:33:37.2	359.250	0.410	-0.080	0.340
2020/01/31 14:33:37.3	359.250	0.380	-0.100	0.310
2020/01/31 14:33:37.4	359.250	0.350	-0.120	0.290
2020/01/31 14:33:37.5	359.250	0.320	-0.140	0.250
2020/01/31 14:33:37.6	359.250	0.280	-0.160	0.220
2020/01/31 14:33:37.7	359.240	0.240	-0.180	0.180
2020/01/31 14:33:37.8	359.240	0.210	-0.200	0.140
2020/01/31 14:33:37.9	359.240	0.170	-0.230	0.090
2020/01/31 14:33:38.0	359.240	0.130	-0.250	0.040
2020/01/31 14:33:38.1	359.250	0.090	-0.270	-0.010
2020/01/31 14:33:38.2	359.250	0.040	-0.300	-0.070
2020/01/31 14:33:38.3	359.260	0.000	-0.320	-0.120
2020/01/31 14:33:38.4	359.270	-0.040	-0.350	-0.190
2020/01/31 14:33:38.5	359.280	-0.080	-0.380	-0.250
2020/01/31 14:33:38.6	359.290	-0.120	-0.410	-0.320
2020/01/31 14:33:38.7	359.290	-0.170	-0.430	-0.390
2020/01/31 14:33:38.8	359.310	-0.210	-0.460	-0.460
2020/01/31 14:33:38.9	359.330	-0.240	-0.490	-0.520
2020/01/31 14:33:39.0	359.350	-0.280	-0.520	-0.600
2020/01/31 14:33:39.1	359.370	-0.320	-0.550	-0.670
2020/01/31 14:33:39.2	359.400	-0.350	-0.580	-0.740
2020/01/31 14:33:39.3	359.420	-0.390	-0.600	-0.810
2020/01/31 14:33:39.4	359.460	-0.420	-0.630	-0.880
2020/01/31 14:33:39.5	359.490	-0.450	-0.660	-0.950
2020/01/31 14:33:39.6	359.530	-0.470	-0.680	-1.020
2020/01/31 14:33:39.7	359.570	-0.500	-0.700	-1.090
2020/01/31 14:33:39.8	359.610	-0.520	-0.720	-1.160
2020/01/31 14:33:39.9	359.650	-0.540	-0.740	-1.220
2020/01/31 14:33:40.0	359.700	-0.560	-0.760	-1.290
2020/01/31 14:33:40.1	359.750	-0.570	-0.770	-1.350
2020/01/31 14:33:40.2	359.800	-0.580	-0.780	-1.410
2020/01/31 14:33:40.3	359.850	-0.590	-0.780	-1.470
2020/01/31 14:33:40.4	359.900	-0.600	-0.790	-1.520
2020/01/31 14:33:40.5	359.950	-0.600	-0.780	-1.580
2020/01/31 14:33:40.6	0.010	-0.600	-0.780	-1.620
2020/01/31 14:33:40.7	0.070	-0.600	-0.760	-1.670
2020/01/31 14:33:40.8	0.120	-0.590	-0.750	-1.710
2020/01/31 14:33:40.9	0.170	-0.590	-0.730	-1.750
2020/01/31 14:33:41.0	0.220	-0.580	-0.700	-1.780
2020/01/31 14:33:41.1	0.270	-0.570	-0.680	-1.810
2020/01/31 14:33:41.2	0.310	-0.550	-0.650	-1.830
2020/01/31 14:33:41.3	0.350	-0.540	-0.610	-1.840
2020/01/31 14:33:41.4	0.390	-0.520	-0.570	-1.850
2020/01/31 14:33:41.5	0.420	-0.510	-0.530	-1.850
2020/01/31 14:33:41.6	0.450	-0.490	-0.480	-1.840
2020/01/31 14:33:41.7	0.490	-0.470	-0.440	-1.820
2020/01/31 14:33:41.8	0.510	-0.440	-0.390	-1.800
2020/01/31 14:33:41.9	0.520	-0.420	-0.330	-1.770
2020/01/31 14:33:42.0	0.530	-0.400	-0.270	-1.730
2020/01/31 14:33:42.1	0.540	-0.380	-0.210	-1.690
2020/01/31 14:33:42.2	0.540	-0.350	-0.150	-1.640
2020/01/31 14:33:42.3	0.530	-0.330	-0.090	-1.580
2020/01/31 14:33:42.4	0.520	-0.310	-0.030	-1.520
2020/01/31 14:33:42.5	0.510	-0.280	0.030	-1.450
2020/01/31 14:33:42.6	0.480	-0.260	0.080	-1.380
2020/01/31 14:33:42.7	0.460	-0.240	0.140	-1.300
2020/01/31 14:33:42.8	0.430	-0.210	0.190	-1.230
2020/01/31 14:33:42.9	0.400	-0.190	0.240	-1.150
2020/01/31 14:33:43.0	0.360	-0.170	0.290	-1.060
2020/01/31 14:33:43.1	0.320	-0.150	0.330	-0.980
2020/01/31 14:33:43.2	0.270	-0.130	0.370	-0.900
2020/01/31 14:33:43.3	0.220	-0.110	0.400	-0.820
2020/01/31 14:33:43.4	0.170	-0.090	0.420	-0.740
2020/01/31 14:33:43.5	0.120	-0.070	0.440	-0.660
2020/01/31 14:33:43.6	0.060	-0.050	0.460	-0.580
2020/01/31 14:33:43.7	0.010	-0.040	0.460	-0.510
2020/01/31 14:33:43.8	359.960	-0.020	0.460	-0.440
2020/01/31 14:33:43.9	359.900	-0.010	0.460	-0.380
2020/01/31 14:33:44.0	359.840	0.010	0.450	-0.320
2020/01/31 14:33:44.1	359.780	0.020	0.430	-0.260
2020/01/31 14:33:44.2	359.730	0.040	0.400	-0.210
2020/01/31 14:33:44.3	359.670	0.050	0.370	-0.160
2020/01/31 14:33:44.4	359.620	0.070	0.330	-0.110
2020/01/31 14:33:44.5	359.560	0.080	0.290	-0.070
2020/01/31 14:33:44.6	359.510	0.100	0.240	-0.040
2020/01/31 14:33:44.7	359.470	0.110	0.180	-0.010
2020/01/31 14:33:44.8	359.420	0.130	0.120	0.020
2020/01/31 14:33:44.9	359.380	0.140	0.060	0.040
2020/01/31 14:33:45.0	359.340	0.160	-0.000	0.060
2020/01/31 14:33:45.1	359.300	0.180	-0.070	0.080
2020/01/31 14:33:45.2	359.260	0.200	-0.140	0.090
2020/01/31 14:33:45.3	359.230	0.210	-0.210	0.100
2020/01/31 14:33:45.4	359.210	0.230	-0.280	0.100
2020/01/31 14:33:45.5	359.180	0.250	-0.340	0.100
2020/01/31 14:33:45.6	359.160	0.270	-0.410	0.100
2020/01/31 14:33:45.7	359.160	0.290	-0.470	0.090
2020/01/31 14:33:45.8	359.140	0.310	-0.530	0.080
2020/01/31 14:33:45.9	359.140	0.330	-0.580	0.070
2020/01/31 14:33:46.0	359.130	0.350	-0.630	0.050
2020/01/31 14:33:46.1	359.140	0.370	-0.680	0.030
2020/01/31 14:33:46.2	359.140	0.390	-0.720	0.010
2020/01/31 14:33:46.3	359.150	0.410	-0.750	-0.010
2020/01/31 14:33:46.4	359.160	0.430	-0.780	-0.030
2020/01/31 14:33:46.5	359.180	0.450	-0.800	-0.050
2020/01/31 14:33:46.6	359.190	0.470	-0.800	-0.070
2020/01/31 14:33:46.7	359.230	0.480	-0.810	-0.100
2020/01/31 14:33:46.8	359.250	0.500	-0.800	-0.120
2020/01/31 14:33:46.9	359.270	0.510	-0.790	-0.130
2020/01/31 14:33:47.0	359.290	0.520	-0.760	-0.150
2020/01/31 14:33:47.1	359.320	0.530	-0.730	-0.160
2020/01/31 14:33:47.2	359.340	0.530	-0.690	-0.170
2020/01/31 14:33:47.3	359.370	0.540	-0.650	-0.180
2020/01/31 14:33:47.4	359.390	0.540	-0.600	-0.190
2020/01/31 14:33:47.5	359.420	0.530	-0.540	-0.190
2020/01/31 14:33:47.6	359.440	0.530	-0.480	-0.190
2020/01/31 14:33:47.7	359.460	0.520	-0.410	-0.190
2020/01/31 14:33:47.8	359.490	0.510	-0.350	-0.180
2020/01/31 14:33:47.9	359.510	0.490	-0.280	-0.170
2020/01/31 14:33:48.0	359.530	0.470	-0.210	-0.160
2020/01/31 14:33:48.1	359.550	0.450	-0.140	-0.150
2020/01/31 14:33:48.2	359.570	0.430	-0.080	-0.140
2020/01/31 14:33:48.3	359.590	0.400	-0.010	-0.120
2020/01/31 14:33:48.4	359.610	0.370	0.050	-0.100
2020/01/31 14:33:48.5	359.630	0.340	0.100	-0.080
2020/01/31 14:33:48.6	359.640	0.300	0.160	-0.060
2020/01/31 14:33:48.7	359.650	0.270	0.200	-0.050
2020/01/31 14:33:48.8	359.660	0.230	0.240	-0.030
2020/01/31 14:33:48.9	359.670	0.190	0.280	-0.010
2020/01/31 14:33:49.0	359.680	0.150	0.300	0.010
2020/01/31 14:33:49.1	359.700	0.110	0.320	0.020
2020/01/31 14:33:49.2	359.710	0.070	0.330	0.030
2020/01/31 14:33:49.3	359.720	0.030	0.340	0.040
2020/01/31 14:33:49.4	359.730	-0.010	0.330	0.050
2020/01/31 14:33:49.5	359.740	-0.050	0.320	0.050
2020/01/31 14:33:49.6	359.750	-0.080	0.290	0.050
2020/01/31 14:33:49.7	359.750	-0.120	0.270	0.040
2020/01/31 14:33:49.8	359.760	-0.150	0.230	0.030
2020/01/31 14:33:49.9	359.770	-0.180	0.190	0.020
2020/01/31 14:33:50.0	359.780	-0.210	0.140	0.000
2020/01/31 14:33:50.1	359.790	-0.240	0.080	-0.020
2020/01/31 14:33:50.2	359.800	-0.260	0.020	-0.040
2020/01/31 14:33:50.3	359.810	-0.280	-0.040	-0.060
2020/01/31 14:33:50.4	359.820	-0.300	-0.110	-0.080
2020/01/31 14:33:50.5	359.820	-0.310	-0.180	-0.110
2020/01/31 14:33:50.6	359.830	-0.320	-0.250	-0.130
2020/01/31 14:33:50.7	359.840	-0.330	-0.330	-0.150
2020/01/31 14:33:50.8	359.840	-0.340	-0.400	-0.170
2020/01/31 14:33:50.9	359.840	-0.340	-0.470	-0.190
2020/01/31 14:33:51.0	359.840	-0.340	-0.530	-0.210
2020/01/31 14:33:51.1	359.840	-0.330	-0.590	-0.230
2020/01/31 14:33:51.2	359.830	-0.330	-0.650	-0.240
2020/01/31 14:33:51.3	359.830	-0.320	-0.700	-0.260
2020/01/31 14:33:51.4	359.820	-0.310	-0.750	-0.270
2020/01/31 14:33:51.5	359.810	-0.300	-0.790	-0.280
2020/01/31 14:33:51.6	359.800	-0.290	-0.820	-0.290
2020/01/31 14:33:51.7	359.790	-0.270	-0.840	-0.300
2020/01/31 14:33:51.8	359.780	-0.260	-0.860	-0.310
2020/01/31 14:33:51.9	359.760	-0.240	-0.880	-0.320
2020/01/31 14:33:52.0	359.750	-0.220	-0.880	-0.320
2020/01/31 14:33:52.1	359.740	-0.210	-0.880	-0.330
2020/01/31 14:33:52.2	359.730	-0.190	-0.880	-0.340
2020/01/31 14:33:52.3	359.720	-0.180	-0.860	-0.340
2020/01/31 14:33:52.4	359.710	-0.160	-0.850	-0.350
2020/01/31 14:33:52.5	359.710	-0.150	-0.830	-0.360
2020/01/31 14:33:52.6	359.700	-0.140	-0.800	-0.370
2020/01/31 14:33:52.7	359.690	-0.130	-0.770	-0.380
2020/01/31 14:33:52.8	359.690	-0.110	-0.740	-0.390
2020/01/31 14:33:52.9	359.690	-0.100	-0.710	-0.410
2020/01/31 14:33:53.0	359.690	-0.100	-0.670	-0.420
2020/01/31 14:33:53.1	359.690	-0.090	-0.640	-0.440
2020/01/31 14:33:53.2	359.700	-0.080	-0.600	-0.460
2020/01/31 14:33:53.3	359.710	-0.080	-0.560	-0.480
2020/01/31 14:33:53.4	359.720	-0.080	-0.520	-0.500
2020/01/31 14:33:53.5	359.730	-0.080	-0.480	-0.520
2020/01/31 14:33:53.6	359.740	-0.080	-0.430	-0.550
2020/01/31 14:33:53.7	359.750	-0.080	-0.390	-0.580
2020/01/31 14:33:53.8	359.760	-0.090	-0.350	-0.600
2020/01/31 14:33:53.9	359.770	-0.090	-0.310	-0.620
2020/01/31 14:33:54.0	359.790	-0.100	-0.270	-0.640
2020/01/31 14:33:54.1	359.800	-0.110	-0.230	-0.660
2020/01/31 14:33:54.2	359.810	-0.120	-0.190	-0.680
2020/01/31 14:33:54.3	359.810	-0.130	-0.150	-0.700
2020/01/31 14:33:54.4	359.820	-0.140	-0.110	-0.720
2020/01/31 14:33:54.5	359.820	-0.160	-0.080	-0.730
2020/01/31 14:33:54.6	359.820	-0.170	-0.040	-0.740
2020/01/31 14:33:54.7	359.820	-0.190	-0.010	-0.740
2020/01/31 14:33:54.8	359.820	-0.200	0.020	-0.750
2020/01/31 14:33:54.9	359.820	-0.220	0.050	-0.750
2020/01/31 14:33:55.0	359.820	-0.230	0.080	-0.750
2020/01/31 14:33:55.1	359.810	-0.250	0.110	-0.750
2020/01/31 14:33:55.2	359.810	-0.260	0.130	-0.750
2020/01/31 14:33:55.3	359.800	-0.280	0.150	-0.740
2020/01/31 14:33:55.4	359.800	-0.290	0.170	-0.740
2020/01/31 14:33:55.5	359.800	-0.300	0.190	-0.730
2020/01/31 14:33:55.6	359.790	-0.300	0.200	-0.730
2020/01/31 14:33:55.7	359.780	-0.310	0.210	-0.720
2020/01/31 14:33:55.8	359.780	-0.310	0.210	-0.720
2020/01/31 14:33:55.9	359.780	-0.310	0.220	-0.710
2020/01/31 14:33:56.0	359.780	-0.310	0.210	-0.710
2020/01/31 14:33:56.1	359.790	-0.310	0.210	-0.710
2020/01/31 14:33:56.2	359.790	-0.300	0.190	-0.700
2020/01/31 14:33:56.3	359.800	-0.280	0.180	-0.700
2020/01/31 14:33:56.4	359.810	-0.270	0.160	-0.700
2020/01/31 14:33:56.5	359.820	-0.250	0.130	-0.690
2020/01/31 14:33:56.6	359.830	-0.230	0.110	-0.690
2020/01/31 14:33:56.7	359.840	-0.200	0.080	-0.680
2020/01/31 14:33:56.8	359.850	-0.180	0.040	-0.670
2020/01/31 14:33:56.9	359.860	-0.150	0.010	-0.660
2020/01/31 14:33:57.0	359.870	-0.110	-0.020	-0.650
2020/01/31 14:33:57.1	359.880	-0.080	-0.060	-0.630
2020/01/31 14:33:57.2	359.880	-0.040	-0.100	-0.610
2020/01/31 14:33:57.3	359.890	-0.010	-0.130	-0.600
2020/01/31 14:33:57.4	359.900	0.030	-0.170	-0.570
2020/01/31 14:33:57.5	359.900	0.070	-0.200	-0.550
2020/01/31 14:33:57.6	359.910	0.110	-0.230	-0.530
2020/01/31 14:33:57.7	359.920	0.140	-0.260	-0.510
2020/01/31 14:33:57.8	359.920	0.180	-0.280	-0.480
2020/01/31 14:33:57.9	359.920	0.220	-0.310	-0.460
2020/01/31 14:33:58.0	359.920	0.250	-0.330	-0.430
2020/01/31 14:33:58.1	359.920	0.280	-0.350	-0.400
2020/01/31 14:33:58.2	359.920	0.310	-0.370	-0.380
2020/01/31 14:33:58.3	359.920	0.340	-0.380	-0.350
2020/01/31 14:33:58.4	359.910	0.370	-0.390	-0.320
2020/01/31 14:33:58.5	359.910	0.390	-0.390	-0.290
2020/01/31 14:33:58.6	359.900	0.410	-0.390	-0.270
2020/01/31 14:33:58.7	359.890	0.430	-0.400	-0.230
2020/01/31 14:33:58.8	359.890	0.450	-0.390	-0.200
2020/01/31 14:33:58.9	359.880	0.460	-0.380	-0.170
2020/01/31 14:33:59.0	359.870	0.480	-0.370	-0.140
2020/01/31 14:33:59.1	359.860	0.480	-0.360	-0.110
2020/01/31 14:33:59.2	359.850	0.490	-0.340	-0.080
2020/01/31 14:33:59.3	359.830	0.490	-0.320	-0.050
2020/01/31 14:33:59.4	359.820	0.500	-0.290	-0.010
2020/01/31 14:33:59.5	359.800	0.490	-0.270	0.020
2020/01/31 14:33:59.6	359.790	0.490	-0.240	0.060
2020/01/31 14:33:59.7	359.780	0.480	-0.210	0.090
2020/01/31 14:33:59.8	359.760	0.480	-0.180	0.130
2020/01/31 14:33:59.9	359.740	0.470	-0.140	0.160
2020/01/31 14:34:00.0	359.720	0.460	-0.110	0.190
2020/01/31 14:34:00.1	359.700	0.450	-0.080	0.230
2020/01/31 14:34:00.2	359.680	0.430	-0.050	0.260
2020/01/31 14:34:00.3	359.660	0.420	-0.020	0.300
2020/01/31 14:34:00.4	359.640	0.410	0.010	0.330
2020/01/31 14:34:00.5	359.610	0.390	0.040	0.360
2020/01/31 14:34:00.6	359.590	0.380	0.060	0.390
2020/01/31 14:34:00.7	359.560	0.370	0.080	0.420
2020/01/31 14:34:00.8	359.540	0.350	0.100	0.450
2020/01/31 14:34:00.9	359.510	0.340	0.120	0.480
2020/01/31 14:34:01.0	359.480	0.330	0.130	0.500
2020/01/31 14:34:01.1	359.460	0.310	0.140	0.530
2020/01/31 14:34:01.2	359.430	0.300	0.140	0.550
2020/01/31 14:34:01.3	359.400	0.290	0.140	0.570
2020/01/31 14:34:01.4	359.370	0.280	0.140	0.580
2020/01/31 14:34:01.5	359.340	0.270	0.130	0.590
2020/01/31 14:34:01.6	359.310	0.260	0.120	0.600
2020/01/31 14:34:01.7	359.280	0.250	0.110	0.600
2020/01/31 14:34:01.8	359.250	0.250	0.090	0.590
2020/01/31 14:34:01.9	359.230	0.240	0.070	0.590
2020/01/31 14:34:02.0	359.210	0.230	0.040	0.570
2020/01/31 14:34:02.1	359.190	0.220	0.010	0.560
2020/01/31 14:34:02.2	359.170	0.220	-0.020	0.530
2020/01/31 14:34:02.3	359.150	0.210	-0.060	0.510
2020/01/31 14:34:02.4	359.140	0.200	-0.100	0.470
2020/01/31 14:34:02.5	359.130	0.190	-0.140	0.440
2020/01/31 14:34:02.6	359.120	0.180	-0.180	0.400
2020/01/31 14:34:02.7	359.110	0.170	-0.230	0.350
2020/01/31 14:34:02.8	359.110	0.160	-0.280	0.300
2020/01/31 14:34:02.9	359.120	0.150	-0.330	0.250
2020/01/31 14:34:03.0	359.130	0.140	-0.380	0.190
2020/01/31 14:34:03.1	359.150	0.130	-0.430	0.120
2020/01/31 14:34:03.2	359.170	0.110	-0.490	0.060
2020/01/31 14:34:03.3	359.200	0.100	-0.540	-0.020
2020/01/31 14:34:03.4	359.230	0.080	-0.590	-0.090
2020/01/31 14:34:03.5	359.270	0.070	-0.650	-0.170
2020/01/31 14:34:03.6	359.310	0.050	-0.700	-0.260
2020/01/31 14:34:03.7	359.350	0.030	-0.760	-0.350
2020/01/31 14:34:03.8	359.400	0.010	-0.810	-0.440
2020/01/31 14:34:03.9	359.450	-0.020	-0.860	-0.530
2020/01/31 14:34:04.0	359.510	-0.040	-0.910	-0.620
2020/01/31 14:34:04.1	359.570	-0.070	-0.960	-0.720
2020/01/31 14:34:04.2	359.630	-0.090	-1.000	-0.810
2020/01/31 14:34:04.3	359.690	-0.120	-1.040	-0.910
2020/01/31 14:34:04.4	359.760	-0.150	-1.080	-1.010
2020/01/31 14:34:04.5	359.820	-0.180	-1.110	-1.110
2020/01/31 14:34:04.6	359.890	-0.210	-1.140	-1.200
2020/01/31 14:34:04.7	359.970	-0.250	-1.170	-1.300
2020/01/31 14:34:04.8	0.040	-0.280	-1.190	-1.390
2020/01/31 14:34:04.9	0.110	-0.320	-1.200	-1.480
2020/01/31 14:34:05.0	0.180	-0.350	-1.210	-1.570
2020/01/31 14:34:05.1	0.250	-0.390	-1.220	-1.650
2020/01/31 14:34:05.2	0.320	-0.420	-1.210	-1.730
2020/01/31 14:34:05.3	0.380	-0.460	-1.200	-1.800
2020/01/31 14:34:05.4	0.450	-0.500	-1.190	-1.870
2020/01/31 14:34:05.5	0.520	-0.530	-1.160	-1.930
2020/01/31 14:34:05.6	0.580	-0.570	-1.130	-1.990
2020/01/31 14:34:05.7	0.670	-0.600	-1.100	-2.040
2020/01/31 14:34:05.8	0.730	-0.630	-1.050	-2.080
2020/01/31 14:34:05.9	0.790	-0.660	-1.000	-2.120
2020/01/31 14:34:06.0	0.840	-0.690	-0.940	-2.150
2020/01/31 14:34:06.1	0.900	-0.720	-0.870	-2.170
2020/01/31 14:34:06.2	0.950	-0.740	-0.800	-2.180
2020/01/31 14:34:06.3	1.000	-0.760	-0.720	-2.190
2020/01/31 14:34:06.4	1.050	-0.780	-0.640	-2.190
2020/01/31 14:34:06.5	1.090	-0.800	-0.550	-2.180
2020/01/31 14:34:06.6	1.130	-0.810	-0.450	-2.170
2020/01/31 14:34:06.7	1.150	-0.820	-0.360	-2.150
2020/01/31 14:34:06.8	1.180	-0.830	-0.260	-2.120
2020/01/31 14:34:06.9	1.210	-0.840	-0.150	-2.080
2020/01/31 14:34:07.0	1.220	-0.840	-0.050	-2.040
2020/01/31 14:34:07.1	1.240	-0.830	0.060	-1.990
2020/01/31 14:34:07.2	1.240	-0.830	0.170	-1.930
2020/01/31 14:34:07.3	1.240	-0.820	0.270	-1.860
2020/01/31 14:34:07.4	1.240	-0.810	0.370	-1.790
2020/01/31 14:34:07.5	1.230	-0.790	0.470	-1.710
2020/01/31 14:34:07.6	1.210	-0.770	0.560	-1.630
2020/01/31 14:34:07.7	1.190	-0.750	0.640	-1.540
2020/01/31 14:34:07.8	1.170	-0.720	0.720	-1.450
2020/01/31 14:34:07.9	1.140	-0.690	0.800	-1.360
2020/01/31 14:34:08.0	1.100	-0.660	0.860	-1.270
2020/01/31 14:34:08.1	1.060	-0.630	0.910	-1.170
2020/01/31 14:34:08.2	1.020	-0.590	0.960	-1.070
2020/01/31 14:34:08.3	0.980	-0.550	0.990	-0.970
2020/01/31 14:34:08.4	0.930	-0.510	1.020	-0.870
2020/01/31 14:34:08.5	0.870	-0.460	1.030	-0.770
2020/01/31 14:34:08.6	0.820	-0.420	1.040	-0.670
2020/01/31 14:34:08.7	0.740	-0.370	1.030	-0.570
2020/01/31 14:34:08.8	0.680	-0.320	1.020	-0.470
2020/01/31 14:34:08.9	0.610	-0.270	0.990	-0.380
2020/01/31 14:34:09.0	0.540	-0.220	0.960	-0.290
2020/01/31 14:34:09.1	0.470	-0.170	0.920	-0.200
2020/01/31 14:34:09.2	0.400	-0.110	0.860	-0.120
2020/01/31 14:34:09.3	0.330	-0.060	0.810	-0.040
2020/01/31 14:34:09.4	0.250	-0.000	0.740	0.040
2020/01/31 14:34:09.5	0.180	0.050	0.670	0.110
2020/01/31 14:34:09.6	0.100	0.100	0.590	0.170
2020/01/31 14:34:09.7	0.010	0.160	0.510	0.230
2020/01/31 14:34:09.8	359.940	0.210	0.420	0.280
2020/01/31 14:34:09.9	359.860	0.270	0.340	0.330
2020/01/31 14:34:10.0	359.790	0.320	0.250	0.380
2020/01/31 14:34:10.1	359.720	0.370	0.160	0.420
2020/01/31 14:34:10.2	359.650	0.420	0.070	0.460
2020/01/31 14:34:10.3	359.580	0.470	-0.010	0.500
2020/01/31 14:34:10.4	359.520	0.520	-0.100	0.530
2020/01/31 14:34:10.5	359.450	0.570	-0.180	0.560
2020/01/31 14:34:10.6	359.390	0.620	-0.260	0.590
2020/01/31 14:34:10.7	359.320	0.660	-0.340	0.610
2020/01/31 14:34:10.8	359.270	0.710	-0.410	0.630
2020/01/31 14:34:10.9	359.220	0.750	-0.480	0.650
2020/01/31 14:34:11.0	359.170	0.790	-0.550	0.670
2020/01/31 14:34:11.1	359.130	0.830	-0.610	0.680
2020/01/31 14:34:11.2	359.090	0.870	-0.670	0.690
2020/01/31 14:34:11.3	359.060	0.900	-0.720	0.690
2020/01/31 14:34:11.4	359.030	0.930	-0.770	0.690
2020/01/31 14:34:11.5	359.010	0.960	-0.810	0.690
2020/01/31 14:34:11.6	358.990	0.990	-0.850	0.680
2020/01/31 14:34:11.7	358.970	1.010	-0.880	0.670
2020/01/31 14:34:11.8	358.960	1.040	-0.910	0.650
2020/01/31 14:34:11.9	358.960	1.050	-0.940	0.620
2020/01/31 14:34:12.0	358.960	1.070	-0.960	0.600
2020/01/31 14:34:12.1	358.960	1.080	-0.970	0.560
2020/01/31 14:34:12.2	358.970	1.080	-0.980	0.520
2020/01/31 14:34:12.3	358.980	1.090	-0.990	0.480
2020/01/31 14:34:12.4	359.000	1.080	-1.000	0.430
2020/01/31 14:34:12.5	359.020	1.080	-1.000	0.380
2020/01/31 14:34:12.6	359.040	1.070	-1.000	0.320
2020/01/31 14:34:12.7	359.070	1.050	-0.990	0.240
2020/01/31 14:34:12.8	359.110	1.030	-0.990	0.180
2020/01/31 14:34:12.9	359.150	1.010	-0.980	0.100
2020/01/31 14:34:13.0	359.190	0.980	-0.970	0.020
2020/01/31 14:34:13.1	359.240	0.950	-0.960	-0.060
2020/01/31 14:34:13.2	359.290	0.920	-0.950	-0.150
2020/01/31 14:34:13.3	359.350	0.870	-0.940	-0.240
2020/01/31 14:34:13.4	359.410	0.830	-0.930	-0.320
2020/01/31 14:34:13.5	359.470	0.780	-0.910	-0.420
2020/01/31 14:34:13.6	359.530	0.730	-0.900	-0.510
2020/01/31 14:34:13.7	359.600	0.670	-0.880	-0.600
2020/01/31 14:34:13.8	359.660	0.610	-0.870	-0.690
2020/01/31 14:34:13.9	359.730	0.550	-0.850	-0.780
2020/01/31 14:34:14.0	359.800	0.480	-0.830	-0.870
2020/01/31 14:34:14.1	359.860	0.410	-0.810	-0.960
2020/01/31 14:34:14.2	359.930	0.340	-0.790	-1.040
2020/01/31 14:34:14.3	359.990	0.270	-0.770	-1.120
2020/01/31 14:34:14.4	0.050	0.190	-0.750	-1.200
2020/01/31 14:34:14.5	0.110	0.110	-0.720	-1.270
2020/01/31 14:34:14.6	0.170	0.030	-0.690	-1.340
2020/01/31 14:34:14.7	0.210	-0.050	-0.660	-1.410
2020/01/31 14:34:14.8	0.260	-0.130	-0.630	-1.460
2020/01/31 14:34:14.9	0.310	-0.210	-0.600	-1.520
2020/01/31 14:34:15.0	0.360	-0.290	-0.560	-1.560
2020/01/31 14:34:15.1	0.410	-0.370	-0.520	-1.610
2020/01/31 14:34:15.2	0.450	-0.440	-0.480	-1.640
2020/01/31 14:34:15.3	0.490	-0.520	-0.440	-1.680
2020/01/31 14:34:15.4	0.520	-0.590	-0.400	-1.700
2020/01/31 14:34:15.5	0.550	-0.670	-0.350	-1.730
2020/01/31 14:34:15.6	0.590	-0.730	-0.300	-1.750
2020/01/31 14:34:15.7	0.630	-0.800	-0.260	-1.770
2020/01/31 14:34:15.8	0.660	-0.860	-0.210	-1.780
2020/01/31 14:34:15.9	0.680	-0.920	-0.160	-1.790
2020/01/31 14:34:16.0	0.700	-0.970	-0.110	-1.790
2020/01/31 14:34:16.1	0.720	-1.020	-0.060	-1.790
2020/01/31 14:34:16.2	0.730	-1.070	-0.010	-1.790
2020/01/31 14:34:16.3	0.750	-1.110	0.040	-1.780
2020/01/31 14:34:16.4	0.760	-1.140	0.090	-1.770
2020/01/31 14:34:16.5	0.770	-1.170	0.130	-1.750
2020/01/31 14:34:16.6	0.770	-1.190	0.170	-1.730
2020/01/31 14:34:16.7	0.760	-1.210	0.210	-1.700
2020/01/31 14:34:16.8	0.760	-1.220	0.250	-1.670
2020/01/31 14:34:16.9	0.760	-1.220	0.290	-1.630
2020/01/31 14:34:17.0	0.750	-1.220	0.320	-1.590
2020/01/31 14:34:17.1	0.740	-1.210	0.350	-1.550
2020/01/31 14:34:17.2	0.730	-1.200	0.370	-1.500
2020/01/31 14:34:17.3	0.720	-1.180	0.390	-1.450
2020/01/31 14:34:17.4	0.710	-1.150	0.410	-1.400
2020/01/31 14:34:17.5	0.700	-1.120	0.430	-1.350
2020/01/31 14:34:17.6	0.680	-1.080	0.430	-1.290
2020/01/31 14:34:17.7	0.660	-1.040	0.440	-1.230
2020/01/31 14:34:17.8	0.640	-1.000	0.440	-1.170
2020/01/31 14:34:17.9	0.630	-0.940	0.440	-1.110
2020/01/31 14:34:18.0	0.610	-0.890	0.430	-1.050
2020/01/31 14:34:18.1	0.590	-0.830	0.420	-0.980
2020/01/31 14:34:18.2	0.580	-0.770	0.400	-0.920
2020/01/31 14:34:18.3	0.560	-0.700	0.380	-0.850
2020/01/31 14:34:18.4	0.540	-0.640	0.360	-0.780
2020/01/31 14:34:18.5	0.520	-0.570	0.340	-0.720
2020/01/31 14:34:18.6	0.500	-0.500	0.310	-0.650
2020/01/31 14:34:18.7	0.490	-0.430	0.290	-0.580
2020/01/31 14:34:18.8	0.470	-0.360	0.260	-0.510
2020/01/31 14:34:18.9	0.440	-0.290	0.230	-0.440
2020/01/31 14:34:19.0	0.420	-0.220	0.200	-0.380
2020/01/31 14:34:19.1	0.390	-0.150	0.170	-0.310
2020/01/31 14:34:19.2	0.370	-0.080	0.140	-0.240
2020/01/31 14:34:19.3	0.340	-0.020	0.120	-0.180
2020/01/31 14:34:19.4	0.320	0.040	0.090	-0.120
2020/01/31 14:34:19.5	0.290	0.100	0.070	-0.060
2020/01/31 14:34:19.6	0.260	0.160	0.050	0.000
2020/01/31 14:34:19.7	0.240	0.210	0.030	0.060
2020/01/31 14:34:19.8	0.210	0.260	0.010	0.110
2020/01/31 14:34:19.9	0.180	0.300	-0.000	0.160
2020/01/31 14:34:20.0	0.150	0.340	-0.010	0.210
2020/01/31 14:34:20.1	0.110	0.380	-0.020	0.260
2020/01/31 14:34:20.2	0.080	0.410	-0.030	0.300
2020/01/31 14:34:20.3	0.040	0.440	-0.030	0.350
2020/01/31 14:34:20.4	0.010	0.470	-0.030	0.390
2020/01/31 14:34:20.5	359.970	0.490	-0.030	0.430
2020/01/31 14:34:20.6	359.930	0.500	-0.030	0.470
2020/01/31 14:34:20.7	359.890	0.510	-0.030	0.510
2020/01/31 14:34:20.8	359.850	0.520	-0.020	0.540
2020/01/31 14:34:20.9	359.800	0.520	-0.010	0.580
2020/01/31 14:34:21.0	359.760	0.520	-0.000	0.610
2020/01/31 14:34:21.1	359.710	0.520	0.010	0.640
2020/01/31 14:34:21.2	359.660	0.510	0.020	0.670
2020/01/31 14:34:21.3	359.620	0.500	0.030	0.700
2020/01/31 14:34:21.4	359.570	0.490	0.040	0.720
2020/01/31 14:34:21.5	359.520	0.480	0.050	0.740
2020/01/31 14:34:21.6	359.470	0.460	0.050	0.760
2020/01/31 14:34:21.7	359.400	0.440	0.060	0.770
2020/01/31 14:34:21.8	359.360	0.420	0.060	0.770
2020/01/31 14:34:21.9	359.310	0.400	0.060	0.770
2020/01/31 14:34:22.0	359.260	0.380	0.050	0.770
2020/01/31 14:34:22.1	359.220	0.360	0.040	0.760
2020/01/31 14:34:22.2	359.170	0.340	0.020	0.750
2020/01/31 14:34:22.3	359.130	0.320	-0.000	0.730
2020/01/31 14:34:22.4	359.090	0.300	-0.030	0.710
2020/01/31 14:34:22.5	359.060	0.290	-0.060	0.680
2020/01/31 14:34:22.6	359.030	0.270	-0.100	0.640
2020/01/31 14:34:22.7	358.990	0.260	-0.140	0.600
2020/01/31 14:34:22.8	358.960	0.240	-0.200	0.550
2020/01/31 14:34:22.9	358.940	0.230	-0.250	0.500
2020/01/31 14:34:23.0	358.930	0.230	-0.320	0.450
2020/01/31 14:34:23.1	358.920	0.220	-0.390	0.390
2020/01/31 14:34:23.2	358.910	0.220	-0.460	0.320
2020/01/31 14:34:23.3	358.910	0.220	-0.550	0.250
2020/01/31 14:34:23.4	358.920	0.220	-0.630	0.170
2020/01/31 14:34:23.5	358.930	0.220	-0.720	0.090
2020/01/31 14:34:23.6	358.950	0.220	-0.810	0.000
2020/01/31 14:34:23.7	358.950	0.230	-0.910	-0.100
2020/01/31 14:34:23.8	358.980	0.240	-1.010	-0.190
2020/01/31 14:34:23.9	359.010	0.250	-1.110	-0.290
2020/01/31 14:34:24.0	359.050	0.260	-1.210	-0.390
2020/01/31 14:34:24.1	359.090	0.270	-1.300	-0.500
2020/01/31 14:34:24.2	359.140	0.290	-1.390	-0.600
2020/01/31 14:34:24.3	359.200	0.300	-1.480	-0.710
2020/01/31 14:34:24.4	359.260	0.320	-1.570	-0.820
2020/01/31 14:34:24.5	359.320	0.330	-1.650	-0.930
2020/01/31 14:34:24.6	359.390	0.340	-1.720	-1.030
2020/01/31 14:34:24.7	359.470	0.360	-1.780	-1.140
2020/01/31 14:34:24.8	359.550	0.370	-1.840	-1.250
2020/01/31 14:34:24.9	359.630	0.390	-1.890	-1.350
2020/01/31 14:34:25.0	359.710	0.400	-1.920	-1.450
2020/01/31 14:34:25.1	359.800	0.410	-1.950	-1.540
2020/01/31 14:34:25.2	359.890	0.420	-1.970	-1.640
2020/01/31 14:34:25.3	359.980	0.420	-1.970	-1.720
2020/01/31 14:34:25.4	0.070	0.430	-1.960	-1.800
2020/01/31 14:34:25.5	0.150	0.430	-1.940	-1.870
2020/01/31 14:34:25.6	0.240	0.430	-1.900	-1.930
2020/01/31 14:34:25.7	0.360	0.430	-1.860	-1.990
2020/01/31 14:34:25.8	0.440	0.420	-1.790	-2.030
2020/01/31 14:34:25.9	0.520	0.410	-1.720	-2.070
2020/01/31 14:34:26.0	0.590	0.400	-1.630	-2.090
2020/01/31 14:34:26.1	0.660	0.380	-1.530	-2.110
2020/01/31 14:34:26.2	0.730	0.360	-1.420	-2.120
2020/01/31 14:34:26.3	0.790	0.340	-1.300	-2.120
2020/01/31 14:34:26.4	0.840	0.310	-1.170	-2.110
2020/01/31 14:34:26.5	0.890	0.280	-1.030	-2.090
2020/01/31 14:34:26.6	0.940	0.250	-0.880	-2.070
2020/01/31 14:34:26.7	1.000	0.220	-0.730	-2.030
2020/01/31 14:34:26.8	1.030	0.180	-0.570	-1.990
2020/01/31 14:34:26.9	1.060	0.140	-0.400	-1.940
2020/01/31 14:34:27.0	1.080	0.090	-0.240	-1.890
2020/01/31 14:34:27.1	1.090	0.050	-0.070	-1.830
2020/01/31 14:34:27.2	1.100	-0.000	0.090	-1.760
2020/01/31 14:34:27.3	1.110	-0.050	0.260	-1.690
2020/01/31 14:34:27.4	1.110	-0.100	0.420	-1.620
2020/01/31 14:34:27.5	1.100	-0.150	0.580	-1.530
2020/01/31 14:34:27.6	1.090	-0.210	0.730	-1.450
2020/01/31 14:34:27.7	1.060	-0.260	0.870	-1.360
2020/01/31 14:34:27.8	1.030	-0.310	1.010	-1.270
2020/01/31 14:34:27.9	1.010	-0.360	1.140	-1.180
2020/01/31 14:34:28.0	0.980	-0.410	1.260	-1.080
2020/01/31 14:34:28.1	0.950	-0.460	1.370	-0.990
2020/01/31 14:34:28.2	0.920	-0.510	1.470	-0.890
2020/01/31 14:34:28.3	0.880	-0.560	1.560	-0.800
2020/01/31 14:34:28.4	0.840	-0.600	1.630	-0.710
2020/01/31 14:34:28.5	0.800	-0.640	1.690	-0.620
2020/01/31 14:34:28.6	0.760	-0.680	1.740	-0.530
2020/01/31 14:34:28.7	0.700	-0.720	1.780	-0.440
2020/01/31 14:34:28.8	0.660	-0.750	1.810	-0.360
2020/01/31 14:34:28.9	0.610	-0.780	1.820	-0.280
2020/01/31 14:34:29.0	0.570	-0.800	1.820	-0.210
2020/01/31 14:34:29.1	0.520	-0.820	1.800	-0.130
2020/01/31 14:34:29.2	0.470	-0.840	1.780	-0.070
2020/01/31 14:34:29.3	0.420	-0.850	1.740	-0.000
2020/01/31 14:34:29.4	0.370	-0.850	1.700	0.060
2020/01/31 14:34:29.5	0.320	-0.860	1.640	0.110
2020/01/31 14:34:29.6	0.280	-0.850	1.570	0.160
2020/01/31 14:34:29.7	0.220	-0.840	1.500	0.210
2020/01/31 14:34:29.8	0.180	-0.830	1.410	0.250
2020/01/31 14:34:29.9	0.130	-0.810	1.320	0.290
2020/01/31 14:34:30.0	0.080	-0.790	1.220	0.320
2020/01/31 14:34:30.1	0.030	-0.770	1.110	0.350
2020/01/31 14:34:30.2	359.980	-0.730	1.000	0.380
2020/01/31 14:34:30.3	359.940	-0.700	0.890	0.400
2020/01/31 14:34:30.4	359.890	-0.660	0.760	0.420
2020/01/31 14:34:30.5	359.850	-0.610	0.640	0.430
2020/01/31 14:34:30.6	359.800	-0.560	0.510	0.450
2020/01/31 14:34:30.7	359.750	-0.510	0.380	0.450
2020/01/31 14:34:30.8	359.710	-0.460	0.250	0.460
2020/01/31 14:34:30.9	359.680	-0.400	0.120	0.460
2020/01/31 14:34:31.0	359.640	-0.330	-0.010	0.470
2020/01/31 14:34:31.1	359.610	-0.270	-0.140	0.470
2020/01/31 14:34:31.2	359.580	-0.200	-0.270	0.470
2020/01/31 14:34:31.3	359.560	-0.130	-0.400	0.470
2020/01/31 14:34:31.4	359.540	-0.060	-0.520	0.460
2020/01/31 14:34:31.5	359.520	0.010	-0.640	0.450
2020/01/31 14:34:31.6	359.510	0.090	-0.760	0.440
2020/01/31 14:34:31.7	359.490	0.160	-0.870	0.430
2020/01/31 14:34:31.8	359.490	0.230	-0.980	0.410
2020/01/31 14:34:31.9	359.490	0.310	-1.080	0.400
2020/01/31 14:34:32.0	359.500	0.380	-1.180	0.380
2020/01/31 14:34:32.1	359.510	0.440	-1.270	0.350
2020/01/31 14:34:32.2	359.520	0.510	-1.360	0.330
2020/01/31 14:34:32.3	359.540	0.570	-1.430	0.300
2020/01/31 14:34:32.4	359.560	0.630	-1.500	0.270
2020/01/31 14:34:32.5	359.580	0.680	-1.560	0.240
2020/01/31 14:34:32.6	359.610	0.730	-1.610	0.210
2020/01/31 14:34:32.7	359.630	0.770	-1.650	0.170
2020/01/31 14:34:32.8	359.650	0.800	-1.680	0.130
2020/01/31 14:34:32.9	359.690	0.830	-1.700	0.090
2020/01/31 14:34:33.0	359.720	0.850	-1.710	0.050
2020/01/31 14:34:33.1	359.750	0.870	-1.720	0.000
2020/01/31 14:34:33.2	359.780	0.880	-1.710	-0.040
2020/01/31 14:34:33.3	359.820	0.880	-1.690	-0.090
2020/01/31 14:34:33.4	359.850	0.870	-1.670	-0.130
2020/01/31 14:34:33.5	359.880	0.860	-1.630	-0.170
2020/01/31 14:34:33.6	359.910	0.840	-1.590	-0.210
2020/01/31 14:34:33.7	359.950	0.820	-1.540	-0.260
2020/01/31 14:34:33.8	359.980	0.790	-1.480	-0.300
2020/01/31 14:34:33.9	0.010	0.750	-1.420	-0.330
2020/01/31 14:34:34.0	0.040	0.710	-1.350	-0.370
2020/01/31 14:34:34.1	0.060	0.660	-1.270	-0.400
2020/01/31 14:34:34.2	0.080	0.610	-1.190	-0.430
2020/01/31 14:34:34.3	0.110	0.550	-1.110	-0.460
2020/01/31 14:34:34.4	0.130	0.500	-1.020	-0.490
2020/01/31 14:34:34.5	0.150	0.440	-0.930	-0.510
2020/01/31 14:34:34.6	0.160	0.370	-0.830	-0.530
2020/01/31 14:34:34.7	0.180	0.310	-0.740	-0.550
2020/01/31 14:34:34.8	0.200	0.240	-0.640	-0.570
2020/01/31 14:34:34.9	0.210	0.180	-0.550	-0.590
2020/01/31 14:34:35.0	0.220	0.110	-0.460	-0.610
2020/01/31 14:34:35.1	0.240	0.050	-0.370	-0.620
2020/01/31 14:34:35.2	0.250	-0.010	-0.280	-0.640
2020/01/31 14:34:35.3	0.260	-0.070	-0.200	-0.650
2020/01/31 14:34:35.4	0.270	-0.130	-0.120	-0.670
2020/01/31 14:34:35.5	0.280	-0.190	-0.040	-0.690
2020/01/31 14:34:35.6	0.290	-0.240	0.030	-0.700
2020/01/31 14:34:35.7	0.310	-0.280	0.090	-0.720
2020/01/31 14:34:35.8	0.320	-0.330	0.150	-0.730
2020/01/31 14:34:35.9	0.330	-0.370	0.210	-0.750
2020/01/31 14:34:36.0	0.340	-0.400	0.250	-0.760
2020/01/31 14:34:36.1	0.350	-0.430	0.290	-0.770
2020/01/31 14:34:36.2	0.350	-0.450	0.330	-0.780
2020/01/31 14:34:36.3	0.360	-0.470	0.360	-0.780
2020/01/31 14:34:36.4	0.360	-0.480	0.380	-0.790
2020/01/31 14:34:36.5	0.370	-0.490	0.400	-0.790
2020/01/31 14:34:36.6	0.370	-0.500	0.410	-0.790
2020/01/31 14:34:36.7	0.350	-0.490	0.410	-0.790
2020/01/31 14:34:36.8	0.360	-0.490	0.410	-0.790
2020/01/31 14:34:36.9	0.360	-0.470	0.400	-0.780
2020/01/31 14:34:37.0	0.360	-0.460	0.390	-0.770
2020/01/31 14:34:37.1	0.360	-0.440	0.370	-0.770
2020/01/31 14:34:37.2	0.370	-0.410	0.350	-0.760
2020/01/31 14:34:37.3	0.370	-0.380	0.320	-0.750
2020/01/31 14:34:37.4	0.380	-0.350	0.280	-0.730
2020/01/31 14:34:37.5	0.380	-0.310	0.240	-0.720
2020/01/31 14:34:37.6	0.390	-0.270	0.200	-0.710
2020/01/31 14:34:37.7	0.400	-0.230	0.160	-0.700
2020/01/31 14:34:37.8	0.400	-0.190	0.110	-0.680
2020/01/31 14:34:37.9	0.410	-0.140	0.060	-0.670
2020/01/31 14:34:38.0	0.420	-0.100	0.010	-0.650
2020/01/31 14:34:38.1	0.430	-0.050	-0.050	-0.640
2020/01/31 14:34:38.2	0.440	-0.000	-0.100	-0.620
2020/01/31 14:34:38.3	0.450	0.050	-0.150	-0.610
2020/01/31 14:34:38.4	0.460	0.100	-0.200	-0.590
2020/01/31 14:34:38.5	0.470	0.140	-0.240	-0.570
2020/01/31 14:34:38.6	0.480	0.190	-0.290	-0.550
2020/01/31 14:34:38.7	0.480	0.230	-0.330	-0.530
2020/01/31 14:34:38.8	0.490	0.270	-0.360	-0.510
2020/01/31 14:34:38.9	0.490	0.310	-0.390	-0.490
2020/01/31 14:34:39.0	0.500	0.350	-0.420	-0.460
2020/01/31 14:34:39.1	0.500	0.390	-0.440	-0.430
2020/01/31 14:34:39.2	0.500	0.420	-0.450	-0.400
2020/01/31 14:34:39.3	0.500	0.440	-0.460	-0.370
2020/01/31 14:34:39.4	0.500	0.470	-0.460	-0.340
2020/01/31 14:34:39.5	0.490	0.490	-0.450	-0.300
2020/01/31 14:34:39.6	0.490	0.500	-0.440	-0.260
2020/01/31 14:34:39.7	0.500	0.520	-0.420	-0.220
2020/01/31 14:34:39.8	0.480	0.520	-0.390	-0.180
2020/01/31 14:34:39.9	0.470	0.530	-0.360	-0.130
2020/01/31 14:34:40.0	0.450	0.530	-0.330	-0.080
2020/01/31 14:34:40.1	0.430	0.520	-0.280	-0.040
2020/01/31 14:34:40.2	0.410	0.510	-0.240	0.010
2020/01/31 14:34:40.3	0.380	0.500	-0.190	0.060
2020/01/31 14:34:40.4	0.360	0.480	-0.140	0.110
2020/01/31 14:34:40.5	0.330	0.460	-0.090	0.160
2020/01/31 14:34:40.6	0.300	0.440	-0.040	0.200
2020/01/31 14:34:40.7	0.270	0.410	0.010	0.250
2020/01/31 14:34:40.8	0.250	0.380	0.070	0.290
2020/01/31 14:34:40.9	0.220	0.350	0.120	0.330
2020/01/31 14:34:41.0	0.190	0.310	0.160	0.370
2020/01/31 14:34:41.1	0.170	0.270	0.200	0.400
2020/01/31 14:34:41.2	0.140	0.230	0.240	0.420
2020/01/31 14:34:41.3	0.120	0.190	0.280	0.440
2020/01/31 14:34:41.4	0.100	0.150	0.310	0.460
2020/01/31 14:34:41.5	0.080	0.110	0.330	0.460
2020/01/31 14:34:41.6	0.070	0.060	0.340	0.460
2020/01/31 14:34:41.7	0.060	0.020	0.350	0.450
2020/01/31 14:34:41.8	0.060	-0.020	0.360	0.440
2020/01/31 14:34:41.9	0.050	-0.070	0.350	0.410
2020/01/31 14:34:42.0	0.050	-0.110	0.340	0.380
2020/01/31 14:34:42.1	0.060	-0.150	0.320	0.340
2020/01/31 14:34:42.2	0.070	-0.190	0.300	0.300
2020/01/31 14:34:42.3	0.080	-0.230	0.270	0.240
2020/01/31 14:34:42.4	0.090	-0.270	0.230	0.190
2020/01/31 14:34:42.5	0.110	-0.300	0.190	0.130
2020/01/31 14:34:42.6	0.130	-0.340	0.140	0.060
2020/01/31 14:34:42.7	0.140	-0.370	0.090	-0.010
2020/01/31 14:34:42.8	0.160	-0.400	0.040	-0.080
2020/01/31 14:34:42.9	0.180	-0.420	-0.020	-0.150
2020/01/31 14:34:43.0	0.200	-0.450	-0.070	-0.220
2020/01/31 14:34:43.1	0.220	-0.470	-0.130	-0.280
2020/01/31 14:34:43.2	0.230	-0.490	-0.180	-0.350
2020/01/31 14:34:43.3	0.250	-0.510	-0.240	-0.410
2020/01/31 14:34:43.4	0.260	-0.520	-0.290	-0.470
2020/01/31 14:34:43.5	0.280	-0.540	-0.340	-0.530
2020/01/31 14:34:43.6	0.290	-0.550	-0.380	-0.580
2020/01/31 14:34:43.7	0.310	-0.560	-0.420	-0.640
2020/01/31 14:34:43.8	0.310	-0.560	-0.460	-0.690
2020/01/31 14:34:43.9	0.320	-0.570	-0.490	-0.730
2020/01/31 14:34:44.0	0.320	-0.570	-0.520	-0.770
2020/01/31 14:34:44.1	0.330	-0.570	-0.540	-0.810
2020/01/31 14:34:44.2	0.330	-0.560	-0.560	-0.840
2020/01/31 14:34:44.3	0.330	-0.560	-0.580	-0.880
2020/01/31 14:34:44.4	0.330	-0.550	-0.590	-0.910
2020/01/31 14:34:44.5	0.330	-0.540	-0.590	-0.930
2020/01/31 14:34:44.6	0.330	-0.530	-0.590	-0.950
2020/01/31 14:34:44.7	0.320	-0.510	-0.600	-0.980
2020/01/31 14:34:44.8	0.320	-0.490	-0.590	-0.990
2020/01/31 14:34:44.9	0.320	-0.470	-0.590	-1.010
2020/01/31 14:34:45.0	0.320	-0.450	-0.580	-1.020
2020/01/31 14:34:45.1	0.320	-0.420	-0.570	-1.030
2020/01/31 14:34:45.2	0.330	-0.390	-0.560	-1.040
2020/01/31 14:34:45.3	0.340	-0.360	-0.550	-1.050
2020/01/31 14:34:45.4	0.350	-0.330	-0.540	-1.050
2020/01/31 14:34:45.5	0.360	-0.290	-0.530	-1.050
2020/01/31 14:34:45.6	0.370	-0.250	-0.520	-1.050
2020/01/31 14:34:45.7	0.400	-0.210	-0.510	-1.060
2020/01/31 14:34:45.8	0.420	-0.170	-0.500	-1.050
2020/01/31 14:34:45.9	0.440	-0.120	-0.500	-1.040
2020/01/31 14:34:46.0	0.460	-0.070	-0.500	-1.030
2020/01/31 14:34:46.1	0.480	-0.020	-0.490	-1.020
2020/01/31 14:34:46.2	0.500	0.030	-0.490	-1.000
2020/01/31 14:34:46.3	0.520	0.080	-0.490	-0.980
2020/01/31 14:34:46.4	0.540	0.130	-0.490	-0.960
2020/01/31 14:34:46.5	0.570	0.180	-0.490	-0.930
2020/01/31 14:34:46.6	0.590	0.230	-0.490	-0.900
2020/01/31 14:34:46.7	0.590	0.280	-0.500	-0.870
2020/01/31 14:34:46.8	0.610	0.320	-0.500	-0.840
2020/01/31 14:34:46.9	0.630	0.370	-0.490	-0.810
2020/01/31 14:34:47.0	0.640	0.410	-0.490	-0.770
2020/01/31 14:34:47.1	0.660	0.450	-0.490	-0.730
2020/01/31 14:34:47.2	0.670	0.480	-0.480	-0.700
2020/01/31 14:34:47.3	0.690	0.520	-0.480	-0.660
2020/01/31 14:34:47.4	0.700	0.540	-0.470	-0.620
2020/01/31 14:34:47.5	0.700	0.570	-0.460	-0.580
2020/01/31 14:34:47.6	0.710	0.590	-0.450	-0.540
2020/01/31 14:34:47.7	0.710	0.600	-0.440	-0.500
2020/01/31 14:34:47.8	0.710	0.610	-0.430	-0.460
2020/01/31 14:34:47.9	0.710	0.610	-0.410	-0.420
2020/01/31 14:34:48.0	0.710	0.620	-0.400	-0.380
2020/01/31 14:34:48.1	0.710	0.610	-0.380	-0.340
2020/01/31 14:34:48.2	0.700	0.600	-0.360	-0.310
2020/01/31 14:34:48.3	0.690	0.590	-0.340	-0.270
2020/01/31 14:34:48.4	0.680	0.570	-0.320	-0.230
2020/01/31 14:34:48.5	0.670	0.550	-0.300	-0.190
2020/01/31 14:34:48.6	0.660	0.530	-0.270	-0.160
2020/01/31 14:34:48.7	0.630	0.500	-0.250	-0.120
2020/01/31 14:34:48.8	0.620	0.470	-0.220	-0.090
2020/01/31 14:34:48.9	0.600	0.440	-0.200	-0.060
2020/01/31 14:34:49.0	0.580	0.400	-0.170	-0.030
2020/01/31 14:34:49.1	0.560	0.370	-0.150	0.000
2020/01/31 14:34:49.2	0.540	0.330	-0.120	0.030
2020/01/31 14:34:49.3	0.520	0.290	-0.100	0.060
2020/01/31 14:34:49.4	0.500	0.250	-0.070	0.080
2020/01/31 14:34:49.5	0.490	0.210	-0.050	0.100
2020/01/31 14:34:49.6	0.470	0.170	-0.030	0.120
2020/01/31 14:34:49.7	0.440	0.130	-0.000	0.130
2020/01/31 14:34:49.8	0.430	0.090	0.020	0.150
2020/01/31 14:34:49.9	0.410	0.060	0.040	0.160
2020/01/31 14:34:50.0	0.400	0.020	0.050	0.160
2020/01/31 14:34:50.1	0.380	-0.010	0.070	0.160
2020/01/31 14:34:50.2	0.370	-0.050	0.080	0.160
2020/01/31 14:34:50.3	0.360	-0.080	0.090	0.160
2020/01/31 14:34:50.4	0.360	-0.100	0.100	0.150
2020/01/31 14:34:50.5	0.350	-0.130	0.100	0.140
2020/01/31 14:34:50.6	0.340	-0.150	0.100	0.130
2020/01/31 14:34:50.7	0.340	-0.170	0.100	0.110
2020/01/31 14:34:50.8	0.340	-0.180	0.100	0.090
2020/01/31 14:34:50.9	0.340	-0.200	0.090	0.070
2020/01/31 14:34:51.0	0.330	-0.210	0.080	0.050
2020/01/31 14:34:51.1	0.340	-0.210	0.070	0.030
2020/01/31 14:34:51.2	0.340	-0.220	0.050	-0.000
2020/01/31 14:34:51.3	0.340	-0.220	0.040	-0.030
2020/01/31 14:34:51.4	0.350	-0.220	0.010	-0.060
2020/01/31 14:34:51.5	0.360	-0.220	-0.010	-0.100
2020/01/31 14:34:51.6	0.370	-0.210	-0.040	-0.130
2020/01/31 14:34:51.7	0.390	-0.200	-0.060	-0.170
2020/01/31 14:34:51.8	0.400	-0.190	-0.100	-0.210
2020/01/31 14:34:51.9	0.420	-0.180	-0.130	-0.260
2020/01/31 14:34:52.0	0.440	-0.170	-0.170	-0.300
2020/01/31 14:34:52.1	0.470	-0.160	-0.210	-0.350
2020/01/31 14:34:52.2	0.500	-0.140	-0.250	-0.400
2020/01/31 14:34:52.3	0.530	-0.130	-0.290	-0.450
2020/01/31 14:34:52.4	0.560	-0.110	-0.330	-0.500
2020/01/31 14:34:52.5	0.590	-0.090	-0.380	-0.540
2020/01/31 14:34:52.6	0.630	-0.080	-0.420	-0.590
2020/01/31 14:34:52.7	0.680	-0.060	-0.460	-0.650
2020/01/31 14:34:52.8	0.720	-0.040	-0.500	-0.690
2020/01/31 14:34:52.9	0.760	-0.030	-0.540	-0.740
2020/01/31 14:34:53.0	0.800	-0.010	-0.570	-0.790
2020/01/31 14:34:53.1	0.830	0.000	-0.610	-0.830
2020/01/31 14:34:53.2	0.870	0.010	-0.630	-0.870
2020/01/31 14:34:53.3	0.910	0.020	-0.660	-0.910
2020/01/31 14:34:53.4	0.940	0.030	-0.680	-0.940
2020/01/31 14:34:53.5	0.970	0.040	-0.700	-0.980
2020/01/31 14:34:53.6	1.010	0.050	-0.710	-1.010
2020/01/31 14:34:53.7	1.040	0.050	-0.720	-1.030
2020/01/31 14:34:53.8	1.070	0.050	-0.720	-1.060
2020/01/31 14:34:53.9	1.100	0.060	-0.720	-1.080
2020/01/31 14:34:54.0	1.120	0.060	-0.710	-1.100
2020/01/31 14:34:54.1	1.140	0.050	-0.700	-1.110
2020/01/31 14:34:54.2	1.160	0.050	-0.680	-1.130
2020/01/31 14:34:54.3	1.170	0.050	-0.650	-1.130
2020/01/31 14:34:54.4	1.180	0.040	-0.630	-1.140
2020/01/31 14:34:54.5	1.190	0.030	-0.590	-1.130
2020/01/31 14:34:54.6	1.190	0.020	-0.560	-1.130
2020/01/31 14:34:54.7	1.190	0.010	-0.520	-1.130
2020/01/31 14:34:54.8	1.190	0.000	-0.470	-1.110
2020/01/31 14:34:54.9	1.190	-0.010	-0.420	-1.100
2020/01/31 14:34:55.0	1.180	-0.020	-0.370	-1.080
2020/01/31 14:34:55.1	1.170	-0.040	-0.320	-1.060
2020/01/31 14:34:55.2	1.160	-0.050	-0.270	-1.030
2020/01/31 14:34:55.3	1.140	-0.060	-0.210	-1.000
2020/01/31 14:34:55.4	1.130	-0.070	-0.160	-0.970
2020/01/31 14:34:55.5	1.110	-0.090	-0.110	-0.940
2020/01/31 14:34:55.6	1.080	-0.100	-0.050	-0.900
2020/01/31 14:34:55.7	1.070	-0.110	0.000	-0.860
2020/01/31 14:34:55.8	1.040	-0.120	0.050	-0.820
2020/01/31 14:34:55.9	1.020	-0.130	0.100	-0.780
2020/01/31 14:34:56.0	0.990	-0.130	0.150	-0.740
2020/01/31 14:34:56.1	0.960	-0.140	0.190	-0.700
2020/01/31 14:34:56.2	0.930	-0.150	0.230	-0.650
2020/01/31 14:34:56.3	0.910	-0.150	0.260	-0.610
2020/01/31 14:34:56.4	0.880	-0.150	0.300	-0.570
2020/01/31 14:34:56.5	0.850	-0.160	0.320	-0.520
2020/01/31 14:34:56.6	0.820	-0.160	0.350	-0.480
2020/01/31 14:34:56.7	0.790	-0.160	0.370	-0.440
2020/01/31 14:34:56.8	0.760	-0.150	0.380	-0.400
2020/01/31 14:34:56.9	0.730	-0.150	0.390	-0.360
2020/01/31 14:34:57.0	0.700	-0.150	0.400	-0.320
2020/01/31 14:34:57.1	0.670	-0.140	0.400	-0.280
2020/01/31 14:34:57.2	0.650	-0.130	0.400	-0.250
2020/01/31 14:34:57.3	0.620	-0.130	0.390	-0.210
2020/01/31 14:34:57.4	0.600	-0.120	0.380	-0.170
2020/01/31 14:34:57.5	0.570	-0.110	0.370	-0.140
2020/01/31 14:34:57.6	0.540	-0.100	0.350	-0.110
2020/01/31 14:34:57.7	0.500	-0.090	0.330	-0.080
2020/01/31 14:34:57.8	0.480	-0.080	0.300	-0.050
2020/01/31 14:34:57.9	0.450	-0.070	0.280	-0.020
2020/01/31 14:34:58.0	0.430	-0.060	0.250	0.010
2020/01/31 14:34:58.1	0.400	-0.060	0.220	0.040
2020/01/31 14:34:58.2	0.380	-0.050	0.190	0.060
2020/01/31 14:34:58.3	0.350	-0.040	0.160	0.080
2020/01/31 14:34:58.4	0.330	-0.030	0.120	0.100
2020/01/31 14:34:58.5	0.310	-0.020	0.080	0.120
2020/01/31 14:34:58.6	0.290	-0.020	0.050	0.130
2020/01/31 14:34:58.7	0.280	-0.010	0.010	0.130
2020/01/31 14:34:58.8	0.260	-0.000	-0.020	0.140
2020/01/31 14:34:58.9	0.250	-0.000	-0.060	0.140
2020/01/31 14:34:59.0	0.230	0.000	-0.100	0.140
2020/01/31 14:34:59.1	0.220	0.010	-0.130	0.130
2020/01/31 14:34:59.2	0.210	0.010	-0.170	0.120
2020/01/31 14:34:59.3	0.200	0.010	-0.210	0.110
2020/01/31 14:34:59.4	0.190	0.020	-0.250	0.090
2020/01/31 14:34:59.5	0.190	0.020	-0.280	0.070
2020/01/31 14:34:59.6	0.190	0.020	-0.320	0.050
2020/01/31 14:34:59.7	0.200	0.020	-0.350	0.030
2020/01/31 14:34:59.8	0.210	0.020	-0.390	-0.000
2020/01/31 14:34:59.9	0.220	0.020	-0.430	-0.030
2020/01/31 14:35:00.0	0.230	0.020	-0.470	-0.070
2020/01/31 14:35:00.1	0.250	0.030	-0.500	-0.100
2020/01/31 14:35:00.2	0.270	0.030	-0.540	-0.140
2020/01/31 14:35:00.3	0.300	0.030	-0.580	-0.180
2020/01/31 14:35:00.4	0.330	0.030	-0.620	-0.220
2020/01/31 14:35:00.5	0.360	0.030	-0.660	-0.260
2020/01/31 14:35:00.6	0.390	0.030	-0.700	-0.300
2020/01/31 14:35:00.7	0.430	0.040	-0.730	-0.350
2020/01/31 14:35:00.8	0.470	0.040	-0.770	-0.390
2020/01/31 14:35:00.9	0.510	0.040	-0.810	-0.440
2020/01/31 14:35:01.0	0.550	0.040	-0.840	-0.480
2020/01/31 14:35:01.1	0.590	0.050	-0.880	-0.520
2020/01/31 14:35:01.2	0.640	0.050	-0.910	-0.570
2020/01/31 14:35:01.3	0.680	0.050	-0.940	-0.610
2020/01/31 14:35:01.4	0.720	0.050	-0.970	-0.650
2020/01/31 14:35:01.5	0.760	0.050	-0.990	-0.690
2020/01/31 14:35:01.6	0.800	0.060	-1.010	-0.730
2020/01/31 14:35:01.7	0.850	0.060	-1.030	-0.770
2020/01/31 14:35:01.8	0.890	0.060	-1.050	-0.810
2020/01/31 14:35:01.9	0.920	0.060	-1.060	-0.850
2020/01/31 14:35:02.0	0.960	0.060	-1.060	-0.880
2020/01/31 14:35:02.1	1.000	0.050	-1.060	-0.920
2020/01/31 14:35:02.2	1.030	0.050	-1.060	-0.950
2020/01/31 14:35:02.3	1.060	0.050	-1.050	-0.980
2020/01/31 14:35:02.4	1.100	0.050	-1.040	-1.000
2020/01/31 14:35:02.5	1.120	0.050	-1.010	-1.030
2020/01/31 14:35:02.6	1.150	0.050	-0.990	-1.040
2020/01/31 14:35:02.7	1.180	0.040	-0.950	-1.060
2020/01/31 14:35:02.8	1.200	0.040	-0.910	-1.070
2020/01/31 14:35:02.9	1.220	0.040	-0.870	-1.070
2020/01/31 14:35:03.0	1.230	0.040	-0.820	-1.070
2020/01/31 14:35:03.1	1.250	0.040	-0.760	-1.060
2020/01/31 14:35:03.2	1.260	0.040	-0.700	-1.050
2020/01/31 14:35:03.3	1.260	0.040	-0.640	-1.030
2020/01/31 14:35:03.4	1.270	0.030	-0.570	-1.000
2020/01/31 14:35:03.5	1.270	0.030	-0.500	-0.980
2020/01/31 14:35:03.6	1.270	0.030	-0.430	-0.950
2020/01/31 14:35:03.7	1.250	0.030	-0.360	-0.910
2020/01/31 14:35:03.8	1.240	0.030	-0.280	-0.880
2020/01/31 14:35:03.9	1.230	0.030	-0.210	-0.840
2020/01/31 14:35:04.0	1.220	0.030	-0.140	-0.800
2020/01/31 14:35:04.1	1.200	0.030	-0.070	-0.760
2020/01/31 14:35:04.2	1.190	0.030	-0.000	-0.720
2020/01/31 14:35:04.3	1.180	0.040	0.060	-0.680
2020/01/31 14:35:04.4	1.160	0.040	0.110	-0.650
2020/01/31 14:35:04.5	1.150	0.040	0.170	-0.610
2020/01/31 14:35:04.6	1.130	0.040	0.220	-0.570
2020/01/31 14:35:04.7	1.090	0.050	0.260	-0.540
2020/01/31 14:35:04.8	1.080	0.050	0.290	-0.510
2020/01/31 14:35:04.9	1.060	0.060	0.320	-0.470
2020/01/31 14:35:05.0	1.050	0.070	0.350	-0.440
2020/01/31 14:35:05.1	1.040	0.070	0.360	-0.410
2020/01/31 14:35:05.2	1.030	0.080	0.380	-0.380
2020/01/31 14:35:05.3	1.020	0.090	0.390	-0.360
2020/01/31 14:35:05.4	1.010	0.100	0.390	-0.330
2020/01/31 14:35:05.5	1.000	0.110	0.390	-0.300
2020/01/31 14:35:05.6	0.990	0.120	0.380	-0.270
2020/01/31 14:35:05.7	0.970	0.120	0.370	-0.250
2020/01/31 14:35:05.8	0.950	0.130	0.360	-0.220
2020/01/31 14:35:05.9	0.940	0.130	0.350	-0.200
2020/01/31 14:35:06.0	0.920	0.140	0.340	-0.170
2020/01/31 14:35:06.1	0.910	0.140	0.320	-0.150
2020/01/31 14:35:06.2	0.890	0.140	0.300	-0.130
2020/01/31 14:35:06.3	0.870	0.140	0.290	-0.110
2020/01/31 14:35:06.4	0.840	0.130	0.270	-0.090
2020/01/31 14:35:06.5	0.820	0.130	0.250	-0.070
2020/01/31 14:35:06.6	0.790	0.120	0.240	-0.060
2020/01/31 14:35:06.7	0.780	0.110	0.230	-0.040
2020/01/31 14:35:06.8	0.750	0.100	0.210	-0.030
2020/01/31 14:35:06.9	0.720	0.080	0.200	-0.020
2020/01/31 14:35:07.0	0.690	0.060	0.180	-0.010
2020/01/31 14:35:07.1	0.660	0.050	0.170	0.000
2020/01/31 14:35:07.2	0.630	0.030	0.160	0.010
2020/01/31 14:35:07.3	0.600	0.010	0.140	0.010
2020/01/31 14:35:07.4	0.570	-0.020	0.130	0.010
2020/01/31 14:35:07.5	0.550	-0.040	0.120	0.010
2020/01/31 14:35:07.6	0.520	-0.060	0.100	0.010
2020/01/31 14:35:07.7	0.490	-0.090	0.090	0.010
2020/01/31 14:35:07.8	0.470	-0.110	0.070	0.000
2020/01/31 14:35:07.9	0.450	-0.130	0.060	-0.010
2020/01/31 14:35:08.0	0.430	-0.160	0.040	-0.020
2020/01/31 14:35:08.1	0.420	-0.180	0.020	-0.030
2020/01/31 14:35:08.2	0.400	-0.200	0.010	-0.050
2020/01/31 14:35:08.3	0.400	-0.210	-0.010	-0.070
2020/01/31 14:35:08.4	0.390	-0.230	-0.040	-0.090
2020/01/31 14:35:08.5	0.390	-0.240	-0.060	-0.120
2020/01/31 14:35:08.6	0.390	-0.250	-0.090	-0.150
2020/01/31 14:35:08.7	0.390	-0.260	-0.110	-0.180
2020/01/31 14:35:08.8	0.400	-0.260	-0.140	-0.220
2020/01/31 14:35:08.9	0.420	-0.260	-0.170	-0.250
2020/01/31 14:35:09.0	0.430	-0.260	-0.210	-0.290
2020/01/31 14:35:09.1	0.450	-0.250	-0.250	-0.330
2020/01/31 14:35:09.2	0.480	-0.240	-0.280	-0.370
2020/01/31 14:35:09.3	0.510	-0.220	-0.320	-0.420
2020/01/31 14:35:09.4	0.530	-0.210	-0.360	-0.460
2020/01/31 14:35:09.5	0.570	-0.190	-0.400	-0.500
2020/01/31 14:35:09.6	0.600	-0.160	-0.440	-0.540
2020/01/31 14:35:09.7	0.640	-0.140	-0.490	-0.590
2020/01/31 14:35:09.8	0.680	-0.110	-0.530	-0.630
2020/01/31 14:35:09.9	0.710	-0.090	-0.560	-0.670
2020/01/31 14:35:10.0	0.740	-0.060	-0.600	-0.700
2020/01/31 14:35:10.1	0.770	-0.030	-0.630	-0.740
2020/01/31 14:35:10.2	0.800	-0.000	-0.650	-0.770
2020/01/31 14:35:10.3	0.820	0.020	-0.680	-0.790
2020/01/31 14:35:10.4	0.850	0.050	-0.700	-0.810
2020/01/31 14:35:10.5	0.870	0.080	-0.710	-0.830
2020/01/31 14:35:10.6	0.880	0.100	-0.730	-0.850
2020/01/31 14:35:10.7	0.900	0.120	-0.730	-0.860
2020/01/31 14:35:10.8	0.910	0.140	-0.730	-0.870
2020/01/31 14:35:10.9	0.920	0.160	-0.730	-0.870
2020/01/31 14:35:11.0	0.920	0.170	-0.730	-0.870
2020/01/31 14:35:11.1	0.920	0.180	-0.720	-0.870
2020/01/31 14:35:11.2	0.910	0.190	-0.710	-0.870
2020/01/31 14:35:11.3	0.910	0.200	-0.690	-0.860
2020/01/31 14:35:11.4	0.890	0.200	-0.670	-0.850
2020/01/31 14:35:11.5	0.880	0.200	-0.650	-0.830
2020/01/31 14:35:11.6	0.860	0.200	-0.620	-0.820
2020/01/31 14:35:11.7	0.840	0.190	-0.590	-0.800
2020/01/31 14:35:11.8	0.820	0.190	-0.560	-0.780
2020/01/31 14:35:11.9	0.800	0.180	-0.530	-0.760
2020/01/31 14:35:12.0	0.770	0.170	-0.500	-0.740
2020/01/31 14:35:12.1	0.750	0.150	-0.460	-0.720
2020/01/31 14:35:12.2	0.730	0.140	-0.420	-0.700
2020/01/31 14:35:12.3	0.700	0.120	-0.390	-0.680
2020/01/31 14:35:12.4	0.680	0.100	-0.360	-0.650
2020/01/31 14:35:12.5	0.650	0.090	-0.320	-0.630
2020/01/31 14:35:12.6	0.630	0.070	-0.290	-0.610
2020/01/31 14:35:12.7	0.610	0.050	-0.260	-0.590
2020/01/31 14:35:12.8	0.590	0.030	-0.240	-0.570
2020/01/31 14:35:12.9	0.570	0.020	-0.210	-0.550
2020/01/31 14:35:13.0	0.550	0.000	-0.190	-0.520
2020/01/31 14:35:13.1	0.530	-0.010	-0.170	-0.500
2020/01/31 14:35:13.2	0.510	-0.030	-0.150	-0.470
2020/01/31 14:35:13.3	0.500	-0.040	-0.140	-0.450
2020/01/31 14:35:13.4	0.480	-0.040	-0.130	-0.420
2020/01/31 14:35:13.5	0.470	-0.050	-0.120	-0.400
2020/01/31 14:35:13.6	0.450	-0.050	-0.110	-0.370
2020/01/31 14:35:13.7	0.430	-0.050	-0.110	-0.350
2020/01/31 14:35:13.8	0.420	-0.050	-0.100	-0.320
2020/01/31 14:35:13.9	0.410	-0.050	-0.100	-0.300
2020/01/31 14:35:14.0	0.400	-0.040	-0.110	-0.270
2020/01/31 14:35:14.1	0.390	-0.040	-0.110	-0.240
2020/01/31 14:35:14.2	0.380	-0.030	-0.110	-0.220
2020/01/31 14:35:14.3	0.370	-0.010	-0.120	-0.190
2020/01/31 14:35:14.4	0.370	-0.000	-0.130	-0.170
2020/01/31 14:35:14.5	0.360	0.010	-0.130	-0.150
2020/01/31 14:35:14.6	0.360	0.030	-0.140	-0.130
2020/01/31 14:35:14.7	0.350	0.040	-0.150	-0.110
2020/01/31 14:35:14.8	0.350	0.060	-0.160	-0.100
2020/01/31 14:35:14.9	0.350	0.080	-0.170	-0.090
2020/01/31 14:35:15.0	0.350	0.090	-0.180	-0.080
2020/01/31 14:35:15.1	0.350	0.110	-0.190	-0.070
2020/01/31 14:35:15.2	0.360	0.120	-0.200	-0.070
2020/01/31 14:35:15.3	0.370	0.130	-0.220	-0.080
2020/01/31 14:35:15.4	0.390	0.150	-0.230	-0.080
2020/01/31 14:35:15.5	0.400	0.160	-0.240	-0.090
2020/01/31 14:35:15.6	0.420	0.170	-0.260	-0.110
2020/01/31 14:35:15.7	0.440	0.170	-0.270	-0.130
2020/01/31 14:35:15.8	0.470	0.180	-0.290	-0.150
2020/01/31 14:35:15.9	0.490	0.180	-0.300	-0.170
2020/01/31 14:35:16.0	0.520	0.180	-0.320	-0.190
2020/01/31 14:35:16.1	0.560	0.170	-0.330	-0.220
2020/01/31 14:35:16.2	0.590	0.170	-0.350	-0.250
2020/01/31 14:35:16.3	0.620	0.160	-0.360	-0.280
2020/01/31 14:35:16.4	0.660	0.140	-0.370	-0.310
2020/01/31 14:35:16.5	0.700	0.120	-0.380	-0.340
2020/01/31 14:35:16.6	0.740	0.100	-0.390	-0.370
2020/01/31 14:35:16.7	0.770	0.080	-0.390	-0.410
2020/01/31 14:35:16.8	0.810	0.050	-0.390	-0.440
2020/01/31 14:35:16.9	0.840	0.020	-0.390	-0.470
2020/01/31 14:35:17.0	0.880	-0.010	-0.390	-0.510
2020/01/31 14:35:17.1	0.910	-0.040	-0.390	-0.540
2020/01/31 14:35:17.2	0.940	-0.080	-0.380	-0.570
2020/01/31 14:35:17.3	0.970	-0.120	-0.370	-0.600
2020/01/31 14:35:17.4	1.000	-0.160	-0.350	-0.640
2020/01/31 14:35:17.5	1.020	-0.210	-0.340	-0.660
2020/01/31 14:35:17.6	1.040	-0.250	-0.320	-0.690
2020/01/31 14:35:17.7	1.050	-0.290	-0.290	-0.710
2020/01/31 14:35:17.8	1.060	-0.340	-0.260	-0.740
2020/01/31 14:35:17.9	1.070	-0.380	-0.230	-0.750
2020/01/31 14:35:18.0	1.080	-0.430	-0.200	-0.770
2020/01/31 14:35:18.1	1.080	-0.470	-0.170	-0.780
2020/01/31 14:35:18.2	1.080	-0.510	-0.130	-0.790
2020/01/31 14:35:18.3	1.080	-0.550	-0.090	-0.800
2020/01/31 14:35:18.4	1.080	-0.580	-0.050	-0.800
2020/01/31 14:35:18.5	1.080	-0.610	-0.010	-0.800
2020/01/31 14:35:18.6	1.070	-0.640	0.030	-0.800
2020/01/31 14:35:18.7	1.060	-0.670	0.070	-0.800
2020/01/31 14:35:18.8	1.050	-0.690	0.110	-0.790
2020/01/31 14:35:18.9	1.050	-0.700	0.150	-0.780
2020/01/31 14:35:19.0	1.040	-0.710	0.180	-0.760
2020/01/31 14:35:19.1	1.030	-0.720	0.210	-0.750
2020/01/31 14:35:19.2	1.020	-0.720	0.240	-0.730
2020/01/31 14:35:19.3	1.020	-0.720	0.270	-0.700
2020/01/31 14:35:19.4	1.010	-0.710	0.290	-0.680
2020/01/31 14:35:19.5	1.000	-0.690	0.310	-0.650
2020/01/31 14:35:19.6	0.980	-0.670	0.320	-0.610
2020/01/31 14:35:19.7	0.970	-0.650	0.340	-0.580
2020/01/31 14:35:19.8	0.950	-0.620	0.340	-0.540
2020/01/31 14:35:19.9	0.930	-0.580	0.340	-0.490
2020/01/31 14:35:20.0	0.910	-0.540	0.340	-0.440
2020/01/31 14:35:20.1	0.890	-0.500	0.330	-0.390
2020/01/31 14:35:20.2	0.870	-0.460	0.320	-0.340
2020/01/31 14:35:20.3	0.850	-0.410	0.300	-0.290
2020/01/31 14:35:20.4	0.820	-0.360	0.280	-0.240
2020/01/31 14:35:20.5	0.790	-0.300	0.260	-0.190
2020/01/31 14:35:20.6	0.770	-0.240	0.240	-0.130
2020/01/31 14:35:20.7	0.750	-0.190	0.200	-0.080
2020/01/31 14:35:20.8	0.720	-0.130	0.170	-0.030
2020/01/31 14:35:20.9	0.690	-0.070	0.130	0.020
2020/01/31 14:35:21.0	0.650	-0.000	0.090	0.070
2020/01/31 14:35:21.1	0.620	0.060	0.050	0.120
2020/01/31 14:35:21.2	0.590	0.120	0.010	0.170
2020/01/31 14:35:21.3	0.550	0.180	-0.040	0.220
2020/01/31 14:35:21.4	0.520	0.240	-0.080	0.260
2020/01/31 14:35:21.5	0.490	0.300	-0.130	0.310
2020/01/31 14:35:21.6	0.450	0.360	-0.180	0.350
2020/01/31 14:35:21.7	0.430	0.420	-0.230	0.390
2020/01/31 14:35:21.8	0.400	0.480	-0.280	0.430
2020/01/31 14:35:21.9	0.360	0.530	-0.330	0.470
2020/01/31 14:35:22.0	0.330	0.580	-0.380	0.500
2020/01/31 14:35:22.1	0.300	0.630	-0.430	0.530
2020/01/31 14:35:22.2	0.270	0.670	-0.480	0.560
2020/01/31 14:35:22.3	0.250	0.720	-0.530	0.580
2020/01/31 14:35:22.4	0.220	0.760	-0.570	0.600
2020/01/31 14:35:22.5	0.200	0.790	-0.620	0.620
2020/01/31 14:35:22.6	0.170	0.820	-0.660	0.630
2020/01/31 14:35:22.7	0.150	0.850	-0.700	0.640
2020/01/31 14:35:22.8	0.130	0.870	-0.740	0.650
2020/01/31 14:35:22.9	0.110	0.890	-0.770	0.650
2020/01/31 14:35:23.0	0.100	0.910	-0.800	0.650
2020/01/31 14:35:23.1	0.090	0.920	-0.830	0.640
2020/01/31 14:35:23.2	0.080	0.920	-0.850	0.630
2020/01/31 14:35:23.3	0.070	0.930	-0.870	0.610
2020/01/31 14:35:23.4	0.070	0.920	-0.890	0.590
2020/01/31 14:35:23.5	0.080	0.920	-0.910	0.560
2020/01/31 14:35:23.6	0.080	0.900	-0.920	0.520
2020/01/31 14:35:23.7	0.090	0.890	-0.930	0.480
2020/01/31 14:35:23.8	0.110	0.870	-0.940	0.440
2020/01/31 14:35:23.9	0.120	0.840	-0.950	0.390
2020/01/31 14:35:24.0	0.150	0.820	-0.960	0.330
2020/01/31 14:35:24.1	0.170	0.790	-0.960	0.270
2020/01/31 14:35:24.2	0.200	0.750	-0.970	0.200
2020/01/31 14:35:24.3	0.240	0.710	-0.970	0.130
2020/01/31 14:35:24.4	0.280	0.670	-0.970	0.050
2020/01/31 14:35:24.5	0.320	0.630	-0.970	-0.030
2020/01/31 14:35:24.6	0.370	0.580	-0.970	-0.110
2020/01/31 14:35:24.7	0.440	0.540	-0.960	-0.210
2020/01/31 14:35:24.8	0.490	0.490	-0.960	-0.300
2020/01/31 14:35:24.9	0.550	0.440	-0.950	-0.390
2020/01/31 14:35:25.0	0.610	0.380	-0.930	-0.480
2020/01/31 14:35:25.1	0.670	0.330	-0.920	-0.580
2020/01/31 14:35:25.2	0.740	0.280	-0.900	-0.670
2020/01/31 14:35:25.3	0.810	0.220	-0.880	-0.770
2020/01/31 14:35:25.4	0.870	0.170	-0.860	-0.860
2020/01/31 14:35:25.5	0.940	0.110	-0.830	-0.940
2020/01/31 14:35:25.6	1.000	0.050	-0.790	-1.030
2020/01/31 14:35:25.7	1.090	-0.000	-0.760	-1.110
2020/01/31 14:35:25.8	1.150	-0.060	-0.710	-1.190
2020/01/31 14:35:25.9	1.210	-0.110	-0.660	-1.260
2020/01/31 14:35:26.0	1.270	-0.160	-0.610	-1.330
2020/01/31 14:35:26.1	1.330	-0.220	-0.550	-1.390
2020/01/31 14:35:26.2	1.380	-0.270	-0.490	-1.450
2020/01/31 14:35:26.3	1.430	-0.320	-0.430	-1.500
2020/01/31 14:35:26.4	1.480	-0.370	-0.360	-1.550
2020/01/31 14:35:26.5	1.520	-0.420	-0.280	-1.590
2020/01/31 14:35:26.6	1.560	-0.460	-0.210	-1.630
2020/01/31 14:35:26.7	1.600	-0.510	-0.130	-1.670
2020/01/31 14:35:26.8	1.640	-0.550	-0.050	-1.690
2020/01/31 14:35:26.9	1.670	-0.590	0.030	-1.710
2020/01/31 14:35:27.0	1.700	-0.630	0.110	-1.730
2020/01/31 14:35:27.1	1.730	-0.660	0.190	-1.730
2020/01/31 14:35:27.2	1.750	-0.690	0.270	-1.730
2020/01/31 14:35:27.3	1.770	-0.720	0.360	-1.730
2020/01/31 14:35:27.4	1.780	-0.750	0.430	-1.720
2020/01/31 14:35:27.5	1.790	-0.780	0.510	-1.700
2020/01/31 14:35:27.6	1.790	-0.800	0.580	-1.670
2020/01/31 14:35:27.7	1.780	-0.820	0.650	-1.640
2020/01/31 14:35:27.8	1.770	-0.840	0.720	-1.600
2020/01/31 14:35:27.9	1.760	-0.860	0.790	-1.560
2020/01/31 14:35:28.0	1.740	-0.870	0.850	-1.510
2020/01/31 14:35:28.1	1.720	-0.880	0.900	-1.460
2020/01/31 14:35:28.2	1.690	-0.890	0.950	-1.400
2020/01/31 14:35:28.3	1.660	-0.900	0.990	-1.340
2020/01/31 14:35:28.4	1.620	-0.900	1.020	-1.280
2020/01/31 14:35:28.5	1.590	-0.910	1.050	-1.220
2020/01/31 14:35:28.6	1.550	-0.900	1.070	-1.150
2020/01/31 14:35:28.7	1.490	-0.900	1.080	-1.090
2020/01/31 14:35:28.8	1.450	-0.890	1.080	-1.020
2020/01/31 14:35:28.9	1.410	-0.890	1.070	-0.960
2020/01/31 14:35:29.0	1.360	-0.870	1.060	-0.900
2020/01/31 14:35:29.1	1.320	-0.860	1.030	-0.840
2020/01/31 14:35:29.2	1.280	-0.840	1.000	-0.780
2020/01/31 14:35:29.3	1.230	-0.820	0.960	-0.720
2020/01/31 14:35:29.4	1.190	-0.800	0.910	-0.660
2020/01/31 14:35:29.5	1.150	-0.770	0.850	-0.610
2020/01/31 14:35:29.6	1.110	-0.740	0.790	-0.560
2020/01/31 14:35:29.7	1.070	-0.710	0.720	-0.510
2020/01/31 14:35:29.8	1.030	-0.670	0.640	-0.460
2020/01/31 14:35:29.9	1.000	-0.640	0.560	-0.410
2020/01/31 14:35:30.0	0.960	-0.600	0.470	-0.370
2020/01/31 14:35:30.1	0.930	-0.550	0.380	-0.320
2020/01/31 14:35:30.2	0.900	-0.510	0.290	-0.280
2020/01/31 14:35:30.3	0.870	-0.460	0.190	-0.240
2020/01/31 14:35:30.4	0.840	-0.410	0.100	-0.210
2020/01/31 14:35:30.5	0.820	-0.360	-0.000	-0.170
2020/01/31 14:35:30.6	0.790	-0.310	-0.100	-0.140
2020/01/31 14:35:30.7	0.770	-0.260	-0.190	-0.110
2020/01/31 14:35:30.8	0.740	-0.200	-0.290	-0.080
2020/01/31 14:35:30.9	0.720	-0.150	-0.380	-0.060
2020/01/31 14:35:31.0	0.700	-0.100	-0.470	-0.030
2020/01/31 14:35:31.1	0.690	-0.040	-0.560	-0.010
2020/01/31 14:35:31.2	0.670	0.010	-0.640	0.010
2020/01/31 14:35:31.3	0.650	0.060	-0.710	0.020
2020/01/31 14:35:31.4	0.640	0.110	-0.790	0.030
2020/01/31 14:35:31.5	0.620	0.160	-0.850	0.050
2020/01/31 14:35:31.6	0.610	0.200	-0.920	0.050
2020/01/31 14:35:31.7	0.620	0.250	-0.970	0.060
2020/01/31 14:35:31.8	0.600	0.290	-1.020	0.070
2020/01/31 14:35:31.9	0.590	0.330	-1.060	0.080
2020/01/31 14:35:32.0	0.580	0.370	-1.100	0.080
2020/01/31 14:35:32.1	0.570	0.410	-1.140	0.090
2020/01/31 14:35:32.2	0.560	0.440	-1.160	0.100
2020/01/31 14:35:32.3	0.540	0.470	-1.190	0.100
2020/01/31 14:35:32.4	0.530	0.500	-1.200	0.110
2020/01/31 14:35:32.5	0.520	0.530	-1.210	0.120
2020/01/31 14:35:32.6	0.510	0.550	-1.220	0.120
2020/01/31 14:35:32.7	0.500	0.580	-1.230	0.120
2020/01/31 14:35:32.8	0.490	0.600	-1.220	0.130
2020/01/31 14:35:32.9	0.480	0.620	-1.220	0.140
2020/01/31 14:35:33.0	0.480	0.630	-1.210	0.140
2020/01/31 14:35:33.1	0.480	0.650	-1.200	0.140
2020/01/31 14:35:33.2	0.470	0.660	-1.180	0.150
2020/01/31 14:35:33.3	0.480	0.680	-1.170	0.150
2020/01/31 14:35:33.4	0.480	0.690	-1.150	0.150
2020/01/31 14:35:33.5	0.480	0.700	-1.130	0.150
2020/01/31 14:35:33.6	0.490	0.710	-1.100	0.150
2020/01/31 14:35:33.7	0.510	0.720	-1.080	0.140
2020/01/31 14:35:33.8	0.520	0.720	-1.050	0.140
2020/01/31 14:35:33.9	0.530	0.730	-1.020	0.130
2020/01/31 14:35:34.0	0.550	0.730	-0.990	0.120
2020/01/31 14:35:34.1	0.560	0.730	-0.960	0.110
2020/01/31 14:35:34.2	0.580	0.730	-0.930	0.100
2020/01/31 14:35:34.3	0.590	0.730	-0.890	0.080
2020/01/31 14:35:34.4	0.610	0.730	-0.850	0.070
2020/01/31 14:35:34.5	0.620	0.720	-0.810	0.050
2020/01/31 14:35:34.6	0.640	0.710	-0.770	0.030
2020/01/31 14:35:34.7	0.640	0.700	-0.720	0.020
2020/01/31 14:35:34.8	0.660	0.680	-0.670	-0.000
2020/01/31 14:35:34.9	0.670	0.670	-0.620	-0.020
2020/01/31 14:35:35.0	0.690	0.650	-0.560	-0.040
2020/01/31 14:35:35.1	0.700	0.630	-0.510	-0.060
2020/01/31 14:35:35.2	0.710	0.600	-0.450	-0.080
2020/01/31 14:35:35.3	0.730	0.580	-0.390	-0.100
2020/01/31 14:35:35.4	0.740	0.550	-0.330	-0.130
2020/01/31 14:35:35.5	0.760	0.520	-0.270	-0.150
2020/01/31 14:35:35.6	0.780	0.480	-0.210	-0.170
2020/01/31 14:35:35.7	0.790	0.450	-0.150	-0.200
2020/01/31 14:35:35.8	0.810	0.410	-0.090	-0.220
2020/01/31 14:35:35.9	0.830	0.370	-0.040	-0.250
2020/01/31 14:35:36.0	0.860	0.330	0.020	-0.270
2020/01/31 14:35:36.1	0.880	0.290	0.070	-0.300
2020/01/31 14:35:36.2	0.910	0.250	0.110	-0.320
2020/01/31 14:35:36.3	0.940	0.210	0.160	-0.350
2020/01/31 14:35:36.4	0.970	0.170	0.200	-0.380
2020/01/31 14:35:36.5	1.000	0.130	0.230	-0.410
2020/01/31 14:35:36.6	1.030	0.080	0.260	-0.430
2020/01/31 14:35:36.7	1.060	0.040	0.290	-0.460
2020/01/31 14:35:36.8	1.090	0.000	0.310	-0.490
2020/01/31 14:35:36.9	1.120	-0.040	0.320	-0.520
2020/01/31 14:35:37.0	1.150	-0.080	0.330	-0.550
2020/01/31 14:35:37.1	1.180	-0.110	0.330	-0.580
2020/01/31 14:35:37.2	1.210	-0.150	0.340	-0.610
2020/01/31 14:35:37.3	1.240	-0.190	0.330	-0.630
2020/01/31 14:35:37.4	1.260	-0.220	0.330	-0.660
2020/01/31 14:35:37.5	1.280	-0.250	0.320	-0.680
2020/01/31 14:35:37.6	1.300	-0.280	0.310	-0.700
2020/01/31 14:35:37.7	1.310	-0.310	0.290	-0.720
2020/01/31 14:35:37.8	1.320	-0.330	0.280	-0.740
2020/01/31 14:35:37.9	1.330	-0.360	0.260	-0.750
2020/01/31 14:35:38.0	1.340	-0.380	0.240	-0.760
2020/01/31 14:35:38.1	1.340	-0.400	0.220	-0.760
2020/01/31 14:35:38.2	1.340	-0.410	0.210	-0.760
2020/01/31 14:35:38.3	1.340	-0.430	0.190	-0.770
2020/01/31 14:35:38.4	1.330	-0.440	0.170	-0.760
2020/01/31 14:35:38.5	1.320	-0.450	0.150	-0.750
2020/01/31 14:35:38.6	1.310	-0.460	0.140	-0.750
2020/01/31 14:35:38.7	1.290	-0.470	0.120	-0.730
2020/01/31 14:35:38.8	1.280	-0.480	0.110	-0.720
2020/01/31 14:35:38.9	1.260	-0.480	0.090	-0.700
2020/01/31 14:35:39.0	1.240	-0.480	0.080	-0.680
2020/01/31 14:35:39.1	1.220	-0.490	0.060	-0.660
2020/01/31 14:35:39.2	1.200	-0.490	0.050	-0.640
2020/01/31 14:35:39.3	1.180	-0.490	0.030	-0.610
2020/01/31 14:35:39.4	1.150	-0.490	0.020	-0.590
2020/01/31 14:35:39.5	1.130	-0.490	0.000	-0.560
2020/01/31 14:35:39.6	1.110	-0.490	-0.010	-0.540
2020/01/31 14:35:39.7	1.090	-0.480	-0.020	-0.520
2020/01/31 14:35:39.8	1.070	-0.480	-0.040	-0.500
2020/01/31 14:35:39.9	1.050	-0.480	-0.050	-0.480
2020/01/31 14:35:40.0	1.020	-0.480	-0.060	-0.460
2020/01/31 14:35:40.1	1.000	-0.480	-0.070	-0.440
2020/01/31 14:35:40.2	0.980	-0.470	-0.080	-0.430
2020/01/31 14:35:40.3	0.960	-0.470	-0.090	-0.410
2020/01/31 14:35:40.4	0.940	-0.470	-0.100	-0.400
2020/01/31 14:35:40.5	0.910	-0.460	-0.110	-0.380
2020/01/31 14:35:40.6	0.890	-0.460	-0.110	-0.370
2020/01/31 14:35:40.7	0.890	-0.460	-0.110	-0.360
2020/01/31 14:35:40.8	0.860	-0.450	-0.110	-0.350
2020/01/31 14:35:40.9	0.840	-0.450	-0.110	-0.330
2020/01/31 14:35:41.0	0.820	-0.450	-0.110	-0.320
2020/01/31 14:35:41.1	0.790	-0.440	-0.110	-0.310
2020/01/31 14:35:41.2	0.770	-0.440	-0.100	-0.300
2020/01/31 14:35:41.3	0.740	-0.440	-0.100	-0.280
2020/01/31 14:35:41.4	0.710	-0.430	-0.090	-0.270
2020/01/31 14:35:41.5	0.680	-0.430	-0.080	-0.250
2020/01/31 14:35:41.6	0.660	-0.420	-0.070	-0.240
2020/01/31 14:35:41.7	0.620	-0.420	-0.060	-0.220
2020/01/31 14:35:41.8	0.600	-0.410	-0.050	-0.210
2020/01/31 14:35:41.9	0.570	-0.400	-0.040	-0.190
2020/01/31 14:35:42.0	0.540	-0.390	-0.030	-0.170
2020/01/31 14:35:42.1	0.510	-0.380	-0.020	-0.160
2020/01/31 14:35:42.2	0.490	-0.370	-0.010	-0.140
2020/01/31 14:35:42.3	0.460	-0.360	-0.000	-0.130
2020/01/31 14:35:42.4	0.440	-0.350	0.000	-0.110
2020/01/31 14:35:42.5	0.420	-0.330	0.010	-0.100
2020/01/31 14:35:42.6	0.400	-0.320	0.010	-0.090
2020/01/31 14:35:42.7	0.370	-0.300	0.010	-0.080
2020/01/31 14:35:42.8	0.360	-0.280	0.000	-0.070
2020/01/31 14:35:42.9	0.350	-0.250	-0.010	-0.060
2020/01/31 14:35:43.0	0.330	-0.230	-0.020	-0.050
2020/01/31 14:35:43.1	0.330	-0.200	-0.040	-0.050
2020/01/31 14:35:43.2	0.320	-0.170	-0.070	-0.050
2020/01/31 14:35:43.3	0.320	-0.140	-0.100	-0.040
2020/01/31 14:35:43.4	0.320	-0.110	-0.130	-0.040
2020/01/31 14:35:43.5	0.330	-0.070	-0.170	-0.050
2020/01/31 14:35:43.6	0.340	-0.030	-0.210	-0.050
2020/01/31 14:35:43.7	0.360	0.010	-0.260	-0.070
2020/01/31 14:35:43.8	0.370	0.050	-0.310	-0.070
2020/01/31 14:35:43.9	0.390	0.090	-0.360	-0.090
2020/01/31 14:35:44.0	0.410	0.140	-0.420	-0.100
2020/01/31 14:35:44.1	0.430	0.180	-0.480	-0.110
2020/01/31 14:35:44.2	0.460	0.230	-0.540	-0.130
2020/01/31 14:35:44.3	0.480	0.270	-0.600	-0.140
2020/01/31 14:35:44.4	0.510	0.320	-0.660	-0.160
2020/01/31 14:35:44.5	0.540	0.360	-0.720	-0.180
2020/01/31 14:35:44.6	0.570	0.410	-0.780	-0.190
2020/01/31 14:35:44.7	0.600	0.450	-0.830	-0.210
2020/01/31 14:35:44.8	0.630	0.490	-0.880	-0.220
2020/01/31 14:35:44.9	0.660	0.520	-0.930	-0.230
2020/01/31 14:35:45.0	0.690	0.560	-0.970	-0.250
2020/01/31 14:35:45.1	0.720	0.590	-1.010	-0.260
2020/01/31 14:35:45.2	0.740	0.620	-1.030	-0.270
2020/01/31 14:35:45.3	0.770	0.640	-1.060	-0.280
2020/01/31 14:35:45.4	0.790	0.660	-1.070	-0.280
2020/01/31 14:35:45.5	0.810	0.670	-1.080	-0.290
2020/01/31 14:35:45.6	0.840	0.680	-1.080	-0.290
2020/01/31 14:35:45.7	0.850	0.690	-1.070	-0.300
2020/01/31 14:35:45.8	0.870	0.690	-1.060	-0.300
2020/01/31 14:35:45.9	0.890	0.690	-1.040	-0.300
2020/01/31 14:35:46.0	0.900	0.680	-1.010	-0.300
2020/01/31 14:35:46.1	0.920	0.670	-0.970	-0.300
2020/01/31 14:35:46.2	0.930	0.650	-0.930	-0.300
2020/01/31 14:35:46.3	0.940	0.630	-0.890	-0.290
2020/01/31 14:35:46.4	0.950	0.600	-0.840	-0.290
2020/01/31 14:35:46.5	0.960	0.580	-0.780	-0.290
2020/01/31 14:35:46.6	0.970	0.550	-0.730	-0.280
2020/01/31 14:35:46.7	0.980	0.510	-0.660	-0.280
2020/01/31 14:35:46.8	0.990	0.480	-0.600	-0.280
2020/01/31 14:35:46.9	1.000	0.440	-0.530	-0.270
2020/01/31 14:35:47.0	1.010	0.400	-0.470	-0.270
2020/01/31 14:35:47.1	1.010	0.360	-0.400	-0.260
2020/01/31 14:35:47.2	1.010	0.320	-0.340	-0.260
2020/01/31 14:35:47.3	1.020	0.280	-0.270	-0.250
2020/01/31 14:35:47.4	1.020	0.250	-0.210	-0.240
2020/01/31 14:35:47.5	1.020	0.210	-0.150	-0.230
2020/01/31 14:35:47.6	1.020	0.180	-0.090	-0.220
2020/01/31 14:35:47.7	1.020	0.140	-0.030	-0.200
2020/01/31 14:35:47.8	1.010	0.110	0.020	-0.190
2020/01/31 14:35:47.9	1.000	0.080	0.070	-0.170
2020/01/31 14:35:48.0	0.990	0.060	0.110	-0.150
2020/01/31 14:35:48.1	0.980	0.040	0.150	-0.130
2020/01/31 14:35:48.2	0.970	0.020	0.180	-0.110
2020/01/31 14:35:48.3	0.960	0.000	0.210	-0.090
2020/01/31 14:35:48.4	0.940	-0.010	0.230	-0.070
2020/01/31 14:35:48.5	0.920	-0.020	0.250	-0.050
2020/01/31 14:35:48.6	0.900	-0.020	0.260	-0.030
2020/01/31 14:35:48.7	0.880	-0.030	0.270	-0.020
2020/01/31 14:35:48.8	0.860	-0.030	0.270	-0.010
2020/01/31 14:35:48.9	0.840	-0.020	0.260	0.000
2020/01/31 14:35:49.0	0.830	-0.020	0.250	0.010
2020/01/31 14:35:49.1	0.810	-0.010	0.230	0.020
2020/01/31 14:35:49.2	0.790	-0.000	0.210	0.020
2020/01/31 14:35:49.3	0.780	0.010	0.180	0.020
2020/01/31 14:35:49.4	0.760	0.020	0.140	0.010
2020/01/31 14:35:49.5	0.750	0.030	0.110	0.000
2020/01/31 14:35:49.6	0.740	0.050	0.060	-0.010
2020/01/31 14:35:49.7	0.720	0.060	0.020	-0.030
2020/01/31 14:35:49.8	0.720	0.070	-0.030	-0.050
2020/01/31 14:35:49.9	0.710	0.090	-0.080	-0.070
2020/01/31 14:35:50.0	0.710	0.100	-0.130	-0.100
2020/01/31 14:35:50.1	0.720	0.110	-0.180	-0.130
2020/01/31 14:35:50.2	0.720	0.120	-0.230	-0.170
2020/01/31 14:35:50.3	0.730	0.130	-0.280	-0.200
2020/01/31 14:35:50.4	0.740	0.140	-0.320	-0.240
2020/01/31 14:35:50.5	0.750	0.140	-0.370	-0.280
2020/01/31 14:35:50.6	0.760	0.140	-0.410	-0.310
2020/01/31 14:35:50.7	0.770	0.140	-0.450	-0.360
2020/01/31 14:35:50.8	0.780	0.140	-0.480	-0.390
2020/01/31 14:35:50.9	0.800	0.140	-0.510	-0.430
2020/01/31 14:35:51.0	0.810	0.130	-0.530	-0.470
2020/01/31 14:35:51.1	0.830	0.120	-0.540	-0.500
2020/01/31 14:35:51.2	0.840	0.110	-0.550	-0.530
2020/01/31 14:35:51.3	0.860	0.090	-0.560	-0.560
2020/01/31 14:35:51.4	0.870	0.070	-0.550	-0.590
2020/01/31 14:35:51.5	0.890	0.050	-0.540	-0.610
2020/01/31 14:35:51.6	0.900	0.030	-0.520	-0.630
2020/01/31 14:35:51.7	0.920	0.000	-0.490	-0.650
2020/01/31 14:35:51.8	0.930	-0.020	-0.460	-0.660
2020/01/31 14:35:51.9	0.940	-0.050	-0.420	-0.680
2020/01/31 14:35:52.0	0.950	-0.080	-0.380	-0.690
2020/01/31 14:35:52.1	0.960	-0.110	-0.330	-0.690
2020/01/31 14:35:52.2	0.970	-0.150	-0.270	-0.700
2020/01/31 14:35:52.3	0.980	-0.180	-0.220	-0.700
2020/01/31 14:35:52.4	0.990	-0.210	-0.160	-0.690
2020/01/31 14:35:52.5	0.990	-0.250	-0.090	-0.690
2020/01/31 14:35:52.6	0.990	-0.280	-0.030	-0.680
2020/01/31 14:35:52.7	0.980	-0.310	0.030	-0.670
2020/01/31 14:35:52.8	0.980	-0.350	0.100	-0.660
2020/01/31 14:35:52.9	0.980	-0.380	0.170	-0.640
2020/01/31 14:35:53.0	0.970	-0.410	0.230	-0.620
2020/01/31 14:35:53.1	0.960	-0.450	0.290	-0.600
2020/01/31 14:35:53.2	0.950	-0.480	0.350	-0.580
2020/01/31 14:35:53.3	0.940	-0.510	0.410	-0.560
2020/01/31 14:35:53.4	0.920	-0.530	0.460	-0.530
2020/01/31 14:35:53.5	0.910	-0.560	0.510	-0.510
2020/01/31 14:35:53.6	0.890	-0.580	0.550	-0.490
2020/01/31 14:35:53.7	0.860	-0.600	0.590	-0.460
2020/01/31 14:35:53.8	0.840	-0.620	0.620	-0.440
2020/01/31 14:35:53.9	0.820	-0.640	0.640	-0.420
2020/01/31 14:35:54.0	0.800	-0.650	0.660	-0.390
2020/01/31 14:35:54.1	0.770	-0.660	0.670	-0.370
2020/01/31 14:35:54.2	0.750	-0.670	0.680	-0.340
2020/01/31 14:35:54.3	0.730	-0.670	0.680	-0.320
2020/01/31 14:35:54.4	0.710	-0.670	0.660	-0.300
2020/01/31 14:35:54.5	0.690	-0.670	0.650	-0.280
2020/01/31 14:35:54.6	0.670	-0.660	0.620	-0.250
2020/01/31 14:35:54.7	0.650	-0.650	0.590	-0.240
2020/01/31 14:35:54.8	0.630	-0.640	0.550	-0.220
2020/01/31 14:35:54.9	0.620	-0.620	0.500	-0.200
2020/01/31 14:35:55.0	0.610	-0.590	0.440	-0.180
2020/01/31 14:35:55.1	0.610	-0.570	0.380	-0.160
2020/01/31 14:35:55.2	0.600	-0.540	0.320	-0.150
2020/01/31 14:35:55.3	0.600	-0.500	0.240	-0.140
2020/01/31 14:35:55.4	0.610	-0.470	0.170	-0.130
2020/01/31 14:35:55.5	0.610	-0.430	0.090	-0.120
2020/01/31 14:35:55.6	0.620	-0.390	0.000	-0.120
2020/01/31 14:35:55.7	0.640	-0.340	-0.090	-0.120
2020/01/31 14:35:55.8	0.650	-0.290	-0.180	-0.120
2020/01/31 14:35:55.9	0.680	-0.240	-0.270	-0.120
2020/01/31 14:35:56.0	0.700	-0.190	-0.360	-0.130
2020/01/31 14:35:56.1	0.720	-0.140	-0.460	-0.140
2020/01/31 14:35:56.2	0.750	-0.090	-0.550	-0.160
2020/01/31 14:35:56.3	0.780	-0.040	-0.640	-0.170
2020/01/31 14:35:56.4	0.810	0.010	-0.730	-0.190
2020/01/31 14:35:56.5	0.840	0.060	-0.810	-0.210
2020/01/31 14:35:56.6	0.860	0.100	-0.890	-0.230
2020/01/31 14:35:56.7	0.900	0.150	-0.960	-0.250
2020/01/31 14:35:56.8	0.920	0.190	-1.030	-0.270
2020/01/31 14:35:56.9	0.940	0.230	-1.090	-0.280
2020/01/31 14:35:57.0	0.960	0.270	-1.140	-0.300
2020/01/31 14:35:57.1	0.980	0.300	-1.190	-0.320
2020/01/31 14:35:57.2	0.990	0.330	-1.230	-0.340
2020/01/31 14:35:57.3	1.000	0.360	-1.260	-0.360
2020/01/31 14:35:57.4	1.000	0.380	-1.280	-0.380
2020/01/31 14:35:57.5	1.000	0.400	-1.290	-0.390
2020/01/31 14:35:57.6	1.000	0.410	-1.300	-0.410
2020/01/31 14:35:57.7	1.000	0.430	-1.300	-0.420
2020/01/31 14:35:57.8	0.990	0.430	-1.290	-0.430
2020/01/31 14:35:57.9	0.980	0.440	-1.270	-0.440
2020/01/31 14:35:58.0	0.970	0.430	-1.250	-0.450
2020/01/31 14:35:58.1	0.960	0.430	-1.220	-0.460
2020/01/31 14:35:58.2	0.940	0.420	-1.190	-0.470
2020/01/31 14:35:58.3	0.920	0.410	-1.150	-0.470
2020/01/31 14:35:58.4	0.910	0.400	-1.100	-0.470
2020/01/31 14:35:58.5	0.890	0.390	-1.050	-0.480
2020/01/31 14:35:58.6	0.870	0.370	-1.000	-0.480
2020/01/31 14:35:58.7	0.870	0.350	-0.950	-0.480
2020/01/31 14:35:58.8	0.850	0.340	-0.890	-0.480
2020/01/31 14:35:58.9	0.840	0.320	-0.840	-0.490
2020/01/31 14:35:59.0	0.820	0.300	-0.780	-0.490
2020/01/31 14:35:59.1	0.810	0.280	-0.730	-0.490
2020/01/31 14:35:59.2	0.800	0.260	-0.670	-0.500
2020/01/31 14:35:59.3	0.800	0.250	-0.620	-0.510
2020/01/31 14:35:59.4	0.790	0.230	-0.570	-0.510
2020/01/31 14:35:59.5	0.790	0.220	-0.530	-0.520
2020/01/31 14:35:59.6	0.800	0.210	-0.480	-0.530
2020/01/31 14:35:59.7	0.800	0.200	-0.440	-0.550
2020/01/31 14:35:59.8	0.810	0.200	-0.400	-0.570
2020/01/31 14:35:59.9	0.820	0.190	-0.370	-0.580
2020/01/31 14:36:00.0	0.830	0.190	-0.330	-0.590
2020/01/31 14:36:00.1	0.840	0.200	-0.300	-0.610
2020/01/31 14:36:00.2	0.850	0.200	-0.270	-0.620
2020/01/31 14:36:00.3	0.870	0.200	-0.250	-0.630
2020/01/31 14:36:00.4	0.880	0.210	-0.220	-0.640
2020/01/31 14:36:00.5	0.900	0.220	-0.190	-0.650
2020/01/31 14:36:00.6	0.910	0.230	-0.170	-0.660
2020/01/31 14:36:00.7	0.910	0.240	-0.140	-0.660
2020/01/31 14:36:00.8	0.920	0.260	-0.120	-0.660
2020/01/31 14:36:00.9	0.930	0.270	-0.090	-0.660
2020/01/31 14:36:01.0	0.950	0.290	-0.070	-0.650
2020/01/31 14:36:01.1	0.960	0.300	-0.040	-0.650
2020/01/31 14:36:01.2	0.960	0.310	-0.020	-0.630
2020/01/31 14:36:01.3	0.970	0.330	0.010	-0.620
2020/01/31 14:36:01.4	0.980	0.340	0.040	-0.600
2020/01/31 14:36:01.5	0.980	0.350	0.070	-0.570
2020/01/31 14:36:01.6	0.980	0.360	0.100	-0.550
2020/01/31 14:36:01.7	0.970	0.370	0.130	-0.520
2020/01/31 14:36:01.8	0.980	0.380	0.160	-0.490
2020/01/31 14:36:01.9	0.980	0.390	0.190	-0.460
2020/01/31 14:36:02.0	0.980	0.390	0.210	-0.430
2020/01/31 14:36:02.1	0.980	0.390	0.240	-0.400
2020/01/31 14:36:02.2	0.980	0.390	0.260	-0.370
2020/01/31 14:36:02.3	0.980	0.390	0.280	-0.330
2020/01/31 14:36:02.4	0.990	0.390	0.300	-0.300
2020/01/31 14:36:02.5	0.990	0.380	0.320	-0.270
2020/01/31 14:36:02.6	0.990	0.370	0.330	-0.240
2020/01/31 14:36:02.7	0.990	0.360	0.330	-0.210
2020/01/31 14:36:02.8	0.990	0.350	0.340	-0.180
2020/01/31 14:36:02.9	1.000	0.340	0.340	-0.160
2020/01/31 14:36:03.0	1.010	0.330	0.330	-0.130
2020/01/31 14:36:03.1	1.010	0.310	0.320	-0.110
2020/01/31 14:36:03.2	1.020	0.290	0.310	-0.080
2020/01/31 14:36:03.3	1.030	0.280	0.290	-0.060
2020/01/31 14:36:03.4	1.040	0.260	0.270	-0.040
2020/01/31 14:36:03.5	1.050	0.240	0.250	-0.020
2020/01/31 14:36:03.6	1.060	0.210	0.230	-0.000
2020/01/31 14:36:03.7	1.070	0.190	0.200	0.010
2020/01/31 14:36:03.8	1.070	0.170	0.170	0.030
2020/01/31 14:36:03.9	1.080	0.140	0.140	0.050
2020/01/31 14:36:04.0	1.080	0.120	0.110	0.060
2020/01/31 14:36:04.1	1.080	0.090	0.080	0.070
2020/01/31 14:36:04.2	1.080	0.060	0.050	0.080
2020/01/31 14:36:04.3	1.080	0.030	0.020	0.090
2020/01/31 14:36:04.4	1.080	0.000	-0.010	0.090
2020/01/31 14:36:04.5	1.070	-0.030	-0.040	0.100
2020/01/31 14:36:04.6	1.070	-0.060	-0.060	0.100
2020/01/31 14:36:04.7	1.050	-0.090	-0.090	0.090
2020/01/31 14:36:04.8	1.040	-0.130	-0.110	0.090
2020/01/31 14:36:04.9	1.030	-0.160	-0.130	0.080
2020/01/31 14:36:05.0	1.020	-0.190	-0.150	0.080
2020/01/31 14:36:05.1	1.000	-0.230	-0.170	0.070
2020/01/31 14:36:05.2	0.980	-0.260	-0.190	0.050
2020/01/31 14:36:05.3	0.950	-0.300	-0.200	0.040
2020/01/31 14:36:05.4	0.930	-0.340	-0.210	0.030
2020/01/31 14:36:05.5	0.900	-0.370	-0.220	0.010
2020/01/31 14:36:05.6	0.870	-0.410	-0.230	-0.000
2020/01/31 14:36:05.7	0.840	-0.450	-0.230	-0.020
2020/01/31 14:36:05.8	0.800	-0.490	-0.230	-0.040
2020/01/31 14:36:05.9	0.770	-0.520	-0.240	-0.060
2020/01/31 14:36:06.0	0.730	-0.560	-0.240	-0.090
2020/01/31 14:36:06.1	0.690	-0.600	-0.230	-0.110
2020/01/31 14:36:06.2	0.660	-0.630	-0.230	-0.140
2020/01/31 14:36:06.3	0.620	-0.670	-0.230	-0.170
2020/01/31 14:36:06.4	0.580	-0.700	-0.220	-0.200
2020/01/31 14:36:06.5	0.550	-0.730	-0.220	-0.230
2020/01/31 14:36:06.6	0.510	-0.770	-0.220	-0.260
2020/01/31 14:36:06.7	0.480	-0.790	-0.210	-0.300
2020/01/31 14:36:06.8	0.450	-0.820	-0.210	-0.340
2020/01/31 14:36:06.9	0.420	-0.850	-0.200	-0.380
2020/01/31 14:36:07.0	0.390	-0.870	-0.200	-0.420
2020/01/31 14:36:07.1	0.370	-0.890	-0.200	-0.460
2020/01/31 14:36:07.2	0.350	-0.900	-0.200	-0.500
2020/01/31 14:36:07.3	0.330	-0.910	-0.210	-0.540
2020/01/31 14:36:07.4	0.310	-0.920	-0.210	-0.580
2020/01/31 14:36:07.5	0.300	-0.920	-0.220	-0.620
2020/01/31 14:36:07.6	0.300	-0.910	-0.230	-0.660
2020/01/31 14:36:07.7	0.280	-0.900	-0.240	-0.710
2020/01/31 14:36:07.8	0.280	-0.890	-0.250	-0.750
2020/01/31 14:36:07.9	0.280	-0.870	-0.270	-0.790
2020/01/31 14:36:08.0	0.280	-0.840	-0.290	-0.820
2020/01/31 14:36:08.1	0.290	-0.810	-0.310	-0.850
2020/01/31 14:36:08.2	0.300	-0.770	-0.330	-0.890
2020/01/31 14:36:08.3	0.310	-0.730	-0.360	-0.910
2020/01/31 14:36:08.4	0.330	-0.680	-0.380	-0.940
2020/01/31 14:36:08.5	0.340	-0.630	-0.410	-0.960
2020/01/31 14:36:08.6	0.360	-0.570	-0.440	-0.970
2020/01/31 14:36:08.7	0.380	-0.500	-0.470	-0.980
2020/01/31 14:36:08.8	0.400	-0.430	-0.500	-0.990
2020/01/31 14:36:08.9	0.420	-0.350	-0.530	-0.990
2020/01/31 14:36:09.0	0.440	-0.280	-0.560	-0.990
2020/01/31 14:36:09.1	0.470	-0.190	-0.590	-0.980
2020/01/31 14:36:09.2	0.490	-0.110	-0.620	-0.960
2020/01/31 14:36:09.3	0.520	-0.020	-0.640	-0.940
2020/01/31 14:36:09.4	0.540	0.070	-0.670	-0.910
2020/01/31 14:36:09.5	0.570	0.160	-0.690	-0.880
2020/01/31 14:36:09.6	0.590	0.250	-0.710	-0.850
2020/01/31 14:36:09.7	0.610	0.340	-0.730	-0.800
2020/01/31 14:36:09.8	0.640	0.430	-0.740	-0.760
2020/01/31 14:36:09.9	0.660	0.520	-0.750	-0.710
2020/01/31 14:36:10.0	0.690	0.600	-0.760	-0.660
2020/01/31 14:36:10.1	0.710	0.680	-0.760	-0.610
2020/01/31 14:36:10.2	0.730	0.760	-0.750	-0.560
2020/01/31 14:36:10.3	0.750	0.830	-0.750	-0.500
2020/01/31 14:36:10.4	0.770	0.900	-0.740	-0.450
2020/01/31 14:36:10.5	0.790	0.960	-0.720	-0.390
2020/01/31 14:36:10.6	0.800	1.020	-0.700	-0.330
2020/01/31 14:36:10.7	0.820	1.060	-0.670	-0.280
2020/01/31 14:36:10.8	0.830	1.100	-0.640	-0.220
2020/01/31 14:36:10.9	0.840	1.140	-0.610	-0.170
2020/01/31 14:36:11.0	0.850	1.160	-0.570	-0.120
2020/01/31 14:36:11.1	0.850	1.180	-0.530	-0.070
2020/01/31 14:36:11.2	0.850	1.190	-0.490	-0.020
2020/01/31 14:36:11.3	0.850	1.190	-0.440	0.030
2020/01/31 14:36:11.4	0.850	1.180	-0.390	0.070
2020/01/31 14:36:11.5	0.850	1.160	-0.340	0.120
2020/01/31 14:36:11.6	0.850	1.140	-0.290	0.160
2020/01/31 14:36:11.7	0.840	1.100	-0.240	0.200
2020/01/31 14:36:11.8	0.840	1.070	-0.190	0.240
2020/01/31 14:36:11.9	0.830	1.020	-0.140	0.280
2020/01/31 14:36:12.0	0.830	0.970	-0.100	0.310
2020/01/31 14:36:12.1	0.820	0.910	-0.050	0.340
2020/01/31 14:36:12.2	0.820	0.850	-0.010	0.370
2020/01/31 14:36:12.3	0.820	0.780	0.030	0.400
2020/01/31 14:36:12.4	0.820	0.710	0.060	0.420
2020/01/31 14:36:12.5	0.820	0.630	0.090	0.440
2020/01/31 14:36:12.6	0.820	0.550	0.110	0.460
2020/01/31 14:36:12.7	0.820	0.470	0.140	0.470
2020/01/31 14:36:12.8	0.830	0.390	0.150	0.470
2020/01/31 14:36:12.9	0.830	0.310	0.170	0.470
2020/01/31 14:36:13.0	0.840	0.220	0.170	0.460
2020/01/31 14:36:13.1	0.840	0.140	0.180	0.450
2020/01/31 14:36:13.2	0.850	0.050	0.180	0.430
2020/01/31 14:36:13.3	0.850	-0.030	0.170	0.410
2020/01/31 14:36:13.4	0.860	-0.110	0.170	0.380
2020/01/31 14:36:13.5	0.860	-0.190	0.160	0.340
2020/01/31 14:36:13.6	0.860	-0.270	0.140	0.300
2020/01/31 14:36:13.7	0.860	-0.350	0.130	0.260
2020/01/31 14:36:13.8	0.860	-0.420	0.120	0.210
2020/01/31 14:36:13.9	0.860	-0.490	0.100	0.160
2020/01/31 14:36:14.0	0.850	-0.550	0.080	0.110
2020/01/31 14:36:14.1	0.850	-0.610	0.070	0.060
2020/01/31 14:36:14.2	0.830	-0.660	0.050	0.000
2020/01/31 14:36:14.3	0.820	-0.710	0.040	-0.050
2020/01/31 14:36:14.4	0.800	-0.760	0.020	-0.100
2020/01/31 14:36:14.5	0.780	-0.790	0.010	-0.150
2020/01/31 14:36:14.6	0.760	-0.820	0.000	-0.200
2020/01/31 14:36:14.7	0.760	-0.850	0.000	-0.250
2020/01/31 14:36:14.8	0.730	-0.870	-0.000	-0.290
2020/01/31 14:36:14.9	0.700	-0.880	-0.010	-0.330
2020/01/31 14:36:15.0	0.670	-0.890	-0.010	-0.370
2020/01/31 14:36:15.1	0.640	-0.900	-0.020	-0.400
2020/01/31 14:36:15.2	0.610	-0.890	-0.030	-0.430
2020/01/31 14:36:15.3	0.580	-0.880	-0.030	-0.460
2020/01/31 14:36:15.4	0.560	-0.870	-0.040	-0.490
2020/01/31 14:36:15.5	0.530	-0.850	-0.050	-0.510
2020/01/31 14:36:15.6	0.500	-0.830	-0.070	-0.530
2020/01/31 14:36:15.7	0.470	-0.800	-0.080	-0.550
2020/01/31 14:36:15.8	0.450	-0.760	-0.100	-0.570
2020/01/31 14:36:15.9	0.420	-0.720	-0.120	-0.580
2020/01/31 14:36:16.0	0.400	-0.680	-0.140	-0.600
2020/01/31 14:36:16.1	0.380	-0.630	-0.170	-0.610
2020/01/31 14:36:16.2	0.360	-0.580	-0.200	-0.610
2020/01/31 14:36:16.3	0.350	-0.530	-0.230	-0.620
2020/01/31 14:36:16.4	0.340	-0.470	-0.260	-0.620
2020/01/31 14:36:16.5	0.330	-0.410	-0.300	-0.630
2020/01/31 14:36:16.6	0.320	-0.350	-0.330	-0.630
2020/01/31 14:36:16.7	0.310	-0.290	-0.370	-0.630
2020/01/31 14:36:16.8	0.310	-0.220	-0.410	-0.620
2020/01/31 14:36:16.9	0.310	-0.150	-0.450	-0.620
2020/01/31 14:36:17.0	0.310	-0.090	-0.490	-0.610
2020/01/31 14:36:17.1	0.320	-0.020	-0.530	-0.600
2020/01/31 14:36:17.2	0.330	0.050	-0.560	-0.590
2020/01/31 14:36:17.3	0.340	0.110	-0.600	-0.580
2020/01/31 14:36:17.4	0.360	0.180	-0.630	-0.570
2020/01/31 14:36:17.5	0.380	0.250	-0.660	-0.560
2020/01/31 14:36:17.6	0.400	0.310	-0.690	-0.540
2020/01/31 14:36:17.7	0.430	0.370	-0.710	-0.530
2020/01/31 14:36:17.8	0.460	0.430	-0.730	-0.510
2020/01/31 14:36:17.9	0.490	0.480	-0.750	-0.490
2020/01/31 14:36:18.0	0.530	0.530	-0.760	-0.470
2020/01/31 14:36:18.1	0.560	0.580	-0.760	-0.450
2020/01/31 14:36:18.2	0.600	0.620	-0.760	-0.430
2020/01/31 14:36:18.3	0.640	0.660	-0.760	-0.410
2020/01/31 14:36:18.4	0.680	0.690	-0.750	-0.390
2020/01/31 14:36:18.5	0.720	0.720	-0.730	-0.360
2020/01/31 14:36:18.6	0.760	0.750	-0.710	-0.330
2020/01/31 14:36:18.7	0.790	0.760	-0.690	-0.300
2020/01/31 14:36:18.8	0.830	0.780	-0.660	-0.270
2020/01/31 14:36:18.9	0.860	0.780	-0.630	-0.230
2020/01/31 14:36:19.0	0.900	0.780	-0.590	-0.190
2020/01/31 14:36:19.1	0.930	0.780	-0.550	-0.150
2020/01/31 14:36:19.2	0.960	0.770	-0.510	-0.110
2020/01/31 14:36:19.3	0.980	0.750	-0.460	-0.070
2020/01/31 14:36:19.4	1.010	0.730	-0.420	-0.030
2020/01/31 14:36:19.5	1.030	0.710	-0.370	0.010
2020/01/31 14:36:19.6	1.060	0.680	-0.320	0.050
2020/01/31 14:36:19.7	1.070	0.640	-0.280	0.090
2020/01/31 14:36:19.8	1.100	0.610	-0.230	0.130
2020/01/31 14:36:19.9	1.120	0.570	-0.190	0.160
2020/01/31 14:36:20.0	1.140	0.520	-0.140	0.200
2020/01/31 14:36:20.1	1.160	0.480	-0.100	0.230
2020/01/31 14:36:20.2	1.180	0.430	-0.070	0.250
2020/01/31 14:36:20.3	1.190	0.380	-0.040	0.270
2020/01/31 14:36:20.4	1.210	0.330	-0.010	0.290
2020/01/31 14:36:20.5	1.230	0.270	0.020	0.300
2020/01/31 14:36:20.6	1.250	0.220	0.040	0.310
2020/01/31 14:36:20.7	1.270	0.170	0.060	0.310
2020/01/31 14:36:20.8	1.290	0.120	0.070	0.310
2020/01/31 14:36:20.9	1.310	0.070	0.080	0.310
2020/01/31 14:36:21.0	1.320	0.020	0.090	0.300
2020/01/31 14:36:21.1	1.330	-0.030	0.090	0.290
2020/01/31 14:36:21.2	1.340	-0.070	0.090	0.280
2020/01/31 14:36:21.3	1.350	-0.120	0.090	0.260
2020/01/31 14:36:21.4	1.350	-0.160	0.090	0.250
2020/01/31 14:36:21.5	1.360	-0.200	0.080	0.230
2020/01/31 14:36:21.6	1.350	-0.230	0.080	0.210
2020/01/31 14:36:21.7	1.340	-0.270	0.070	0.190
2020/01/31 14:36:21.8	1.330	-0.300	0.060	0.170
2020/01/31 14:36:21.9	1.310	-0.330	0.060	0.150
2020/01/31 14:36:22.0	1.300	-0.350	0.050	0.130
2020/01/31 14:36:22.1	1.280	-0.380	0.050	0.110
2020/01/31 14:36:22.2	1.250	-0.400	0.050	0.090
2020/01/31 14:36:22.3	1.220	-0.420	0.040	0.070
2020/01/31 14:36:22.4	1.190	-0.430	0.040	0.050
2020/01/31 14:36:22.5	1.160	-0.450	0.040	0.040
2020/01/31 14:36:22.6	1.120	-0.460	0.040	0.020
2020/01/31 14:36:22.7	1.080	-0.470	0.050	-0.000
2020/01/31 14:36:22.8	1.040	-0.480	0.050	-0.020
2020/01/31 14:36:22.9	1.000	-0.490	0.050	-0.040
2020/01/31 14:36:23.0	0.960	-0.490	0.050	-0.060
2020/01/31 14:36:23.1	0.920	-0.500	0.050	-0.090
2020/01/31 14:36:23.2	0.880	-0.500	0.050	-0.110
2020/01/31 14:36:23.3	0.840	-0.500	0.040	-0.140
2020/01/31 14:36:23.4	0.800	-0.500	0.040	-0.160
2020/01/31 14:36:23.5	0.760	-0.500	0.030	-0.200
2020/01/31 14:36:23.6	0.730	-0.500	0.020	-0.230
2020/01/31 14:36:23.7	0.700	-0.490	0.010	-0.270
2020/01/31 14:36:23.8	0.670	-0.490	-0.000	-0.310
2020/01/31 14:36:23.9	0.650	-0.480	-0.020	-0.350
2020/01/31 14:36:24.0	0.630	-0.480	-0.040	-0.400
2020/01/31 14:36:24.1	0.620	-0.470	-0.060	-0.440
2020/01/31 14:36:24.2	0.610	-0.460	-0.080	-0.490
2020/01/31 14:36:24.3	0.610	-0.450	-0.110	-0.540
2020/01/31 14:36:24.4	0.610	-0.430	-0.140	-0.590
2020/01/31 14:36:24.5	0.620	-0.420	-0.170	-0.650
2020/01/31 14:36:24.6	0.630	-0.400	-0.200	-0.700
2020/01/31 14:36:24.7	0.620	-0.380	-0.230	-0.760
2020/01/31 14:36:24.8	0.640	-0.360	-0.260	-0.810
2020/01/31 14:36:24.9	0.660	-0.340	-0.300	-0.860
2020/01/31 14:36:25.0	0.680	-0.320	-0.330	-0.910
2020/01/31 14:36:25.1	0.710	-0.290	-0.370	-0.950
2020/01/31 14:36:25.2	0.730	-0.270	-0.400	-0.990
2020/01/31 14:36:25.3	0.760	-0.240	-0.430	-1.030
2020/01/31 14:36:25.4	0.790	-0.210	-0.460	-1.060
2020/01/31 14:36:25.5	0.810	-0.180	-0.480	-1.090
2020/01/31 14:36:25.6	0.840	-0.160	-0.500	-1.110
2020/01/31 14:36:25.7	0.850	-0.130	-0.520	-1.130
2020/01/31 14:36:25.8	0.870	-0.100	-0.530	-1.140
2020/01/31 14:36:25.9	0.890	-0.080	-0.540	-1.140
2020/01/31 14:36:26.0	0.910	-0.050	-0.540	-1.140
2020/01/31 14:36:26.1	0.920	-0.020	-0.530	-1.130
2020/01/31 14:36:26.2	0.940	0.000	-0.530	-1.120
2020/01/31 14:36:26.3	0.950	0.020	-0.510	-1.100
2020/01/31 14:36:26.4	0.950	0.040	-0.500	-1.080
2020/01/31 14:36:26.5	0.960	0.060	-0.480	-1.050
2020/01/31 14:36:26.6	0.960	0.080	-0.450	-1.020
2020/01/31 14:36:26.7	0.960	0.100	-0.420	-0.990
2020/01/31 14:36:26.8	0.960	0.110	-0.390	-0.950
2020/01/31 14:36:26.9	0.950	0.130	-0.360	-0.900
2020/01/31 14:36:27.0	0.950	0.140	-0.320	-0.860
2020/01/31 14:36:27.1	0.940	0.150	-0.280	-0.810
2020/01/31 14:36:27.2	0.940	0.160	-0.250	-0.750
2020/01/31 14:36:27.3	0.930	0.170	-0.210	-0.700
2020/01/31 14:36:27.4	0.920	0.170	-0.170	-0.640
2020/01/31 14:36:27.5	0.920	0.180	-0.140	-0.590
2020/01/31 14:36:27.6	0.910	0.190	-0.110	-0.530
2020/01/31 14:36:27.7	0.890	0.190	-0.080	-0.470
2020/01/31 14:36:27.8	0.890	0.200	-0.050	-0.410
2020/01/31 14:36:27.9	0.880	0.210	-0.030	-0.350
2020/01/31 14:36:28.0	0.880	0.210	-0.010	-0.290
2020/01/31 14:36:28.1	0.880	0.220	0.000	-0.240
2020/01/31 14:36:28.2	0.880	0.230	0.010	-0.190
2020/01/31 14:36:28.3	0.890	0.240	0.010	-0.140
2020/01/31 14:36:28.4	0.890	0.250	0.010	-0.090
2020/01/31 14:36:28.5	0.900	0.260	0.000	-0.050
2020/01/31 14:36:28.6	0.910	0.270	-0.010	-0.010
2020/01/31 14:36:28.7	0.920	0.290	-0.030	0.020
2020/01/31 14:36:28.8	0.940	0.310	-0.050	0.050
2020/01/31 14:36:28.9	0.950	0.320	-0.080	0.070
2020/01/31 14:36:29.0	0.970	0.340	-0.110	0.090
2020/01/31 14:36:29.1	0.990	0.360	-0.150	0.110
2020/01/31 14:36:29.2	1.010	0.390	-0.190	0.120
2020/01/31 14:36:29.3	1.040	0.410	-0.230	0.130
2020/01/31 14:36:29.4	1.060	0.430	-0.280	0.140
2020/01/31 14:36:29.5	1.080	0.450	-0.320	0.140
2020/01/31 14:36:29.6	1.100	0.470	-0.360	0.140
2020/01/31 14:36:29.7	1.140	0.490	-0.400	0.140
2020/01/31 14:36:29.8	1.160	0.510	-0.450	0.140
2020/01/31 14:36:29.9	1.180	0.530	-0.480	0.140
2020/01/31 14:36:30.0	1.200	0.540	-0.520	0.130
2020/01/31 14:36:30.1	1.210	0.560	-0.550	0.130
2020/01/31 14:36:30.2	1.220	0.570	-0.580	0.120
2020/01/31 14:36:30.3	1.230	0.570	-0.600	0.110
2020/01/31 14:36:30.4	1.230	0.570	-0.620	0.110
2020/01/31 14:36:30.5	1.230	0.570	-0.640	0.100
2020/01/31 14:36:30.6	1.230	0.560	-0.650	0.090
2020/01/31 14:36:30.7	1.230	0.550	-0.650	0.080
2020/01/31 14:36:30.8	1.230	0.530	-0.650	0.070
2020/01/31 14:36:30.9	1.220	0.510	-0.650	0.050
2020/01/31 14:36:31.0	1.210	0.490	-0.640	0.040
2020/01/31 14:36:31.1	1.190	0.460	-0.630	0.020
2020/01/31 14:36:31.2	1.180	0.420	-0.610	0.010
2020/01/31 14:36:31.3	1.160	0.380	-0.590	-0.010
2020/01/31 14:36:31.4	1.140	0.340	-0.570	-0.030
2020/01/31 14:36:31.5	1.120	0.290	-0.550	-0.060
2020/01/31 14:36:31.6	1.100	0.240	-0.530	-0.080
2020/01/31 14:36:31.7	1.070	0.180	-0.500	-0.110
2020/01/31 14:36:31.8	1.050	0.120	-0.470	-0.140
2020/01/31 14:36:31.9	1.030	0.060	-0.450	-0.170
2020/01/31 14:36:32.0	1.010	-0.000	-0.420	-0.200
2020/01/31 14:36:32.1	0.980	-0.070	-0.390	-0.240
2020/01/31 14:36:32.2	0.960	-0.130	-0.370	-0.280
2020/01/31 14:36:32.3	0.940	-0.200	-0.340	-0.320
2020/01/31 14:36:32.4	0.920	-0.260	-0.320	-0.360
2020/01/31 14:36:32.5	0.900	-0.320	-0.290	-0.410
2020/01/31 14:36:32.6	0.890	-0.390	-0.270	-0.460
2020/01/31 14:36:32.7	0.870	-0.450	-0.240	-0.520
2020/01/31 14:36:32.8	0.860	-0.500	-0.220	-0.570
2020/01/31 14:36:32.9	0.840	-0.560	-0.200	-0.620
2020/01/31 14:36:33.0	0.830	-0.610	-0.180	-0.670
2020/01/31 14:36:33.1	0.820	-0.650	-0.160	-0.720
2020/01/31 14:36:33.2	0.810	-0.700	-0.140	-0.760
2020/01/31 14:36:33.3	0.800	-0.730	-0.120	-0.810
2020/01/31 14:36:33.4	0.790	-0.760	-0.100	-0.850
2020/01/31 14:36:33.5	0.780	-0.790	-0.080	-0.900
2020/01/31 14:36:33.6	0.770	-0.810	-0.060	-0.940
2020/01/31 14:36:33.7	0.760	-0.820	-0.050	-0.980
2020/01/31 14:36:33.8	0.760	-0.830	-0.040	-1.020
2020/01/31 14:36:33.9	0.760	-0.830	-0.030	-1.050
2020/01/31 14:36:34.0	0.760	-0.820	-0.020	-1.080
2020/01/31 14:36:34.1	0.760	-0.810	-0.010	-1.110
2020/01/31 14:36:34.2	0.760	-0.790	-0.010	-1.130
2020/01/31 14:36:34.3	0.770	-0.760	-0.010	-1.150
2020/01/31 14:36:34.4	0.780	-0.730	-0.020	-1.170
2020/01/31 14:36:34.5	0.790	-0.690	-0.030	-1.190
2020/01/31 14:36:34.6	0.810	-0.640	-0.040	-1.200
2020/01/31 14:36:34.7	0.830	-0.590	-0.050	-1.210
2020/01/31 14:36:34.8	0.840	-0.540	-0.070	-1.220
2020/01/31 14:36:34.9	0.870	-0.480	-0.090	-1.220
2020/01/31 14:36:35.0	0.890	-0.420	-0.110	-1.220
2020/01/31 14:36:35.1	0.920	-0.350	-0.140	-1.220
2020/01/31 14:36:35.2	0.940	-0.280	-0.160	-1.210
2020/01/31 14:36:35.3	0.970	-0.210	-0.190	-1.190
2020/01/31 14:36:35.4	1.000	-0.140	-0.220	-1.180
2020/01/31 14:36:35.5	1.020	-0.070	-0.250	-1.160
2020/01/31 14:36:35.6	1.050	0.000	-0.280	-1.130
2020/01/31 14:36:35.7	1.070	0.070	-0.320	-1.100
2020/01/31 14:36:35.8	1.100	0.140	-0.340	-1.070
2020/01/31 14:36:35.9	1.120	0.210	-0.370	-1.030
2020/01/31 14:36:36.0	1.140	0.270	-0.390	-0.990
2020/01/31 14:36:36.1	1.160	0.330	-0.400	-0.940
2020/01/31 14:36:36.2	1.170	0.390	-0.420	-0.890
2020/01/31 14:36:36.3	1.190	0.440	-0.420	-0.840
2020/01/31 14:36:36.4	1.200	0.480	-0.420	-0.790
2020/01/31 14:36:36.5	1.200	0.520	-0.420	-0.730
2020/01/31 14:36:36.6	1.200	0.550	-0.410	-0.670
2020/01/31 14:36:36.7	1.190	0.570	-0.400	-0.610
2020/01/31 14:36:36.8	1.180	0.590	-0.380	-0.550
2020/01/31 14:36:36.9	1.170	0.600	-0.360	-0.490
2020/01/31 14:36:37.0	1.160	0.610	-0.330	-0.420
2020/01/31 14:36:37.1	1.140	0.600	-0.290	-0.360
2020/01/31 14:36:37.2	1.120	0.590	-0.260	-0.290
2020/01/31 14:36:37.3	1.090	0.580	-0.210	-0.230
2020/01/31 14:36:37.4	1.060	0.550	-0.170	-0.160
2020/01/31 14:36:37.5	1.030	0.520	-0.120	-0.100
2020/01/31 14:36:37.6	1.000	0.490	-0.070	-0.040
2020/01/31 14:36:37.7	0.980	0.450	-0.020	0.030
2020/01/31 14:36:37.8	0.940	0.410	0.030	0.090
2020/01/31 14:36:37.9	0.900	0.360	0.090	0.150
2020/01/31 14:36:38.0	0.870	0.300	0.140	0.200
2020/01/31 14:36:38.1	0.830	0.250	0.190	0.250
2020/01/31 14:36:38.2	0.790	0.190	0.240	0.300
2020/01/31 14:36:38.3	0.750	0.130	0.290	0.350
2020/01/31 14:36:38.4	0.720	0.070	0.330	0.390
2020/01/31 14:36:38.5	0.680	0.010	0.370	0.430
2020/01/31 14:36:38.6	0.650	-0.050	0.410	0.460
2020/01/31 14:36:38.7	0.600	-0.110	0.450	0.490
2020/01/31 14:36:38.8	0.560	-0.170	0.470	0.510
2020/01/31 14:36:38.9	0.530	-0.220	0.500	0.530
2020/01/31 14:36:39.0	0.500	-0.270	0.510	0.530
2020/01/31 14:36:39.1	0.480	-0.320	0.520	0.540
2020/01/31 14:36:39.2	0.450	-0.360	0.530	0.530
2020/01/31 14:36:39.3	0.430	-0.400	0.530	0.520
2020/01/31 14:36:39.4	0.400	-0.430	0.520	0.500
2020/01/31 14:36:39.5	0.380	-0.460	0.500	0.480
2020/01/31 14:36:39.6	0.370	-0.480	0.470	0.450
2020/01/31 14:36:39.7	0.360	-0.500	0.450	0.410
2020/01/31 14:36:39.8	0.350	-0.500	0.410	0.370
2020/01/31 14:36:39.9	0.340	-0.500	0.360	0.320
2020/01/31 14:36:40.0	0.330	-0.500	0.310	0.270
2020/01/31 14:36:40.1	0.330	-0.490	0.250	0.220
2020/01/31 14:36:40.2	0.330	-0.470	0.180	0.170
2020/01/31 14:36:40.3	0.330	-0.440	0.110	0.110
2020/01/31 14:36:40.4	0.330	-0.410	0.040	0.050
2020/01/31 14:36:40.5	0.340	-0.370	-0.040	-0.010
2020/01/31 14:36:40.6	0.350	-0.330	-0.120	-0.070
2020/01/31 14:36:40.7	0.380	-0.290	-0.210	-0.140
2020/01/31 14:36:40.8	0.390	-0.240	-0.290	-0.200
2020/01/31 14:36:40.9	0.400	-0.190	-0.380	-0.270
2020/01/31 14:36:41.0	0.420	-0.130	-0.460	-0.330
2020/01/31 14:36:41.1	0.430	-0.080	-0.550	-0.390
2020/01/31 14:36:41.2	0.450	-0.020	-0.630	-0.440
2020/01/31 14:36:41.3	0.460	0.040	-0.710	-0.490
2020/01/31 14:36:41.4	0.470	0.100	-0.780	-0.540
2020/01/31 14:36:41.5	0.480	0.150	-0.850	-0.570
2020/01/31 14:36:41.6	0.490	0.210	-0.910	-0.610
2020/01/31 14:36:41.7	0.490	0.260	-0.960	-0.630
2020/01/31 14:36:41.8	0.490	0.300	-1.010	-0.660
2020/01/31 14:36:41.9	0.490	0.350	-1.050	-0.670
2020/01/31 14:36:42.0	0.490	0.390	-1.080	-0.680
2020/01/31 14:36:42.1	0.490	0.420	-1.110	-0.690
2020/01/31 14:36:42.2	0.490	0.450	-1.130	-0.700
2020/01/31 14:36:42.3	0.490	0.480	-1.150	-0.700
2020/01/31 14:36:42.4	0.490	0.500	-1.160	-0.700
2020/01/31 14:36:42.5	0.490	0.520	-1.160	-0.690
2020/01/31 14:36:42.6	0.490	0.530	-1.160	-0.690
2020/01/31 14:36:42.7	0.500	0.530	-1.150	-0.680
2020/01/31 14:36:42.8	0.500	0.530	-1.130	-0.680
2020/01/31 14:36:42.9	0.500	0.520	-1.110	-0.670
2020/01/31 14:36:43.0	0.510	0.510	-1.090	-0.660
2020/01/31 14:36:43.1	0.520	0.500	-1.060	-0.650
2020/01/31 14:36:43.2	0.530	0.480	-1.040	-0.650
2020/01/31 14:36:43.3	0.540	0.450	-1.000	-0.640
2020/01/31 14:36:43.4	0.560	0.430	-0.970	-0.630
2020/01/31 14:36:43.5	0.580	0.400	-0.930	-0.630
2020/01/31 14:36:43.6	0.600	0.360	-0.890	-0.630
2020/01/31 14:36:43.7	0.630	0.330	-0.860	-0.630
2020/01/31 14:36:43.8	0.660	0.290	-0.820	-0.630
2020/01/31 14:36:43.9	0.690	0.260	-0.770	-0.630
2020/01/31 14:36:44.0	0.720	0.220	-0.730	-0.630
2020/01/31 14:36:44.1	0.750	0.180	-0.680	-0.630
2020/01/31 14:36:44.2	0.780	0.140	-0.630	-0.630
2020/01/31 14:36:44.3	0.810	0.110	-0.580	-0.630
2020/01/31 14:36:44.4	0.840	0.070	-0.520	-0.630
2020/01/31 14:36:44.5	0.860	0.030	-0.470	-0.630
2020/01/31 14:36:44.6	0.890	-0.000	-0.410	-0.620
2020/01/31 14:36:44.7	0.900	-0.040	-0.360	-0.620
2020/01/31 14:36:44.8	0.930	-0.070	-0.300	-0.610
2020/01/31 14:36:44.9	0.950	-0.100	-0.240	-0.610
2020/01/31 14:36:45.0	0.970	-0.130	-0.180	-0.600
2020/01/31 14:36:45.1	0.990	-0.160	-0.120	-0.590
2020/01/31 14:36:45.2	1.010	-0.190	-0.050	-0.580
2020/01/31 14:36:45.3	1.020	-0.210	0.010	-0.570
2020/01/31 14:36:45.4	1.030	-0.240	0.060	-0.560
2020/01/31 14:36:45.5	1.040	-0.260	0.120	-0.550
2020/01/31 14:36:45.6	1.050	-0.270	0.180	-0.530
2020/01/31 14:36:45.7	1.050	-0.290	0.230	-0.520
2020/01/31 14:36:45.8	1.050	-0.300	0.280	-0.500
2020/01/31 14:36:45.9	1.050	-0.310	0.320	-0.480
2020/01/31 14:36:46.0	1.050	-0.320	0.360	-0.460
2020/01/31 14:36:46.1	1.050	-0.330	0.400	-0.430
2020/01/31 14:36:46.2	1.040	-0.330	0.430	-0.410
2020/01/31 14:36:46.3	1.030	-0.340	0.450	-0.380
2020/01/31 14:36:46.4	1.020	-0.340	0.470	-0.350
2020/01/31 14:36:46.5	1.010	-0.340	0.490	-0.320
2020/01/31 14:36:46.6	1.000	-0.330	0.490	-0.290
2020/01/31 14:36:46.7	0.980	-0.330	0.490	-0.260
2020/01/31 14:36:46.8	0.960	-0.320	0.480	-0.230
2020/01/31 14:36:46.9	0.940	-0.310	0.470	-0.200
2020/01/31 14:36:47.0	0.930	-0.300	0.450	-0.180
2020/01/31 14:36:47.1	0.910	-0.290	0.430	-0.150
2020/01/31 14:36:47.2	0.890	-0.270	0.400	-0.130
2020/01/31 14:36:47.3	0.870	-0.260	0.360	-0.110
2020/01/31 14:36:47.4	0.860	-0.240	0.320	-0.090
2020/01/31 14:36:47.5	0.840	-0.230	0.270	-0.080
2020/01/31 14:36:47.6	0.830	-0.210	0.220	-0.070
2020/01/31 14:36:47.7	0.820	-0.190	0.170	-0.060
2020/01/31 14:36:47.8	0.800	-0.170	0.110	-0.050
2020/01/31 14:36:47.9	0.790	-0.150	0.050	-0.040
2020/01/31 14:36:48.0	0.770	-0.120	-0.010	-0.030
2020/01/31 14:36:48.1	0.760	-0.100	-0.070	-0.030
2020/01/31 14:36:48.2	0.750	-0.080	-0.130	-0.020
2020/01/31 14:36:48.3	0.730	-0.060	-0.190	-0.020
2020/01/31 14:36:48.4	0.720	-0.040	-0.250	-0.020
2020/01/31 14:36:48.5	0.710	-0.020	-0.300	-0.020
2020/01/31 14:36:48.6	0.700	0.000	-0.350	-0.020
2020/01/31 14:36:48.7	0.690	0.020	-0.400	-0.020
2020/01/31 14:36:48.8	0.680	0.040	-0.440	-0.020
2020/01/31 14:36:48.9	0.660	0.060	-0.480	-0.020
2020/01/31 14:36:49.0	0.650	0.070	-0.510	-0.030
2020/01/31 14:36:49.1	0.640	0.090	-0.540	-0.030
2020/01/31 14:36:49.2	0.630	0.100	-0.560	-0.030
2020/01/31 14:36:49.3	0.610	0.110	-0.570	-0.030
2020/01/31 14:36:49.4	0.600	0.120	-0.580	-0.040
2020/01/31 14:36:49.5	0.580	0.120	-0.580	-0.040
2020/01/31 14:36:49.6	0.570	0.130	-0.570	-0.050
2020/01/31 14:36:49.7	0.560	0.130	-0.550	-0.050
2020/01/31 14:36:49.8	0.540	0.130	-0.530	-0.050
2020/01/31 14:36:49.9	0.530	0.130	-0.510	-0.060
2020/01/31 14:36:50.0	0.520	0.120	-0.470	-0.060
2020/01/31 14:36:50.1	0.500	0.120	-0.440	-0.070
2020/01/31 14:36:50.2	0.490	0.110	-0.390	-0.080
2020/01/31 14:36:50.3	0.480	0.100	-0.350	-0.080
2020/01/31 14:36:50.4	0.460	0.090	-0.300	-0.080
2020/01/31 14:36:50.5	0.450	0.090	-0.250	-0.090
2020/01/31 14:36:50.6	0.440	0.080	-0.200	-0.090
2020/01/31 14:36:50.7	0.420	0.070	-0.150	-0.100
2020/01/31 14:36:50.8	0.410	0.060	-0.100	-0.100
2020/01/31 14:36:50.9	0.400	0.050	-0.050	-0.110
2020/01/31 14:36:51.0	0.400	0.040	0.000	-0.110
2020/01/31 14:36:51.1	0.390	0.030	0.050	-0.110
2020/01/31 14:36:51.2	0.380	0.020	0.090	-0.110
2020/01/31 14:36:51.3	0.380	0.020	0.130	-0.110
2020/01/31 14:36:51.4	0.370	0.010	0.160	-0.110
2020/01/31 14:36:51.5	0.370	0.010	0.190	-0.110
2020/01/31 14:36:51.6	0.370	0.010	0.210	-0.110
2020/01/31 14:36:51.7	0.360	0.010	0.230	-0.110
2020/01/31 14:36:51.8	0.360	0.010	0.240	-0.110
2020/01/31 14:36:51.9	0.360	0.020	0.240	-0.110
2020/01/31 14:36:52.0	0.370	0.020	0.240	-0.120
2020/01/31 14:36:52.1	0.370	0.030	0.230	-0.120
2020/01/31 14:36:52.2	0.380	0.040	0.220	-0.130
2020/01/31 14:36:52.3	0.380	0.050	0.200	-0.140
2020/01/31 14:36:52.4	0.390	0.070	0.170	-0.160
2020/01/31 14:36:52.5	0.400	0.080	0.130	-0.170
2020/01/31 14:36:52.6	0.410	0.100	0.090	-0.190
2020/01/31 14:36:52.7	0.410	0.110	0.050	-0.210
2020/01/31 14:36:52.8	0.430	0.130	0.000	-0.240
2020/01/31 14:36:52.9	0.440	0.140	-0.050	-0.270
2020/01/31 14:36:53.0	0.460	0.160	-0.120	-0.300
2020/01/31 14:36:53.1	0.480	0.180	-0.180	-0.330
2020/01/31 14:36:53.2	0.500	0.190	-0.250	-0.360
2020/01/31 14:36:53.3	0.530	0.210	-0.310	-0.400
2020/01/31 14:36:53.4	0.550	0.220	-0.380	-0.440
2020/01/31 14:36:53.5	0.580	0.240	-0.450	-0.480
2020/01/31 14:36:53.6	0.600	0.250	-0.520	-0.520
2020/01/31 14:36:53.7	0.640	0.260	-0.590	-0.560
2020/01/31 14:36:53.8	0.670	0.270	-0.650	-0.590
2020/01/31 14:36:53.9	0.700	0.280	-0.710	-0.630
2020/01/31 14:36:54.0	0.730	0.280	-0.770	-0.670
2020/01/31 14:36:54.1	0.770	0.290	-0.820	-0.700
2020/01/31 14:36:54.2	0.800	0.290	-0.870	-0.730
2020/01/31 14:36:54.3	0.830	0.280	-0.910	-0.760
2020/01/31 14:36:54.4	0.860	0.280	-0.950	-0.790
2020/01/31 14:36:54.5	0.900	0.270	-0.980	-0.820
2020/01/31 14:36:54.6	0.930	0.260	-1.000	-0.840
2020/01/31 14:36:54.7	0.980	0.250	-1.010	-0.860
2020/01/31 14:36:54.8	1.010	0.230	-1.020	-0.880
2020/01/31 14:36:54.9	1.050	0.220	-1.010	-0.890
2020/01/31 14:36:55.0	1.080	0.200	-1.000	-0.900
2020/01/31 14:36:55.1	1.110	0.180	-0.990	-0.910
2020/01/31 14:36:55.2	1.140	0.150	-0.960	-0.910
2020/01/31 14:36:55.3	1.170	0.130	-0.930	-0.910
2020/01/31 14:36:55.4	1.200	0.100	-0.900	-0.910
2020/01/31 14:36:55.5	1.230	0.070	-0.850	-0.900
2020/01/31 14:36:55.6	1.250	0.040	-0.800	-0.890
2020/01/31 14:36:55.7	1.290	0.010	-0.750	-0.880
2020/01/31 14:36:55.8	1.310	-0.020	-0.690	-0.870
2020/01/31 14:36:55.9	1.320	-0.060	-0.630	-0.850
2020/01/31 14:36:56.0	1.340	-0.090	-0.560	-0.830
2020/01/31 14:36:56.1	1.350	-0.120	-0.490	-0.800
2020/01/31 14:36:56.2	1.360	-0.160	-0.420	-0.780
2020/01/31 14:36:56.3	1.370	-0.190	-0.350	-0.750
2020/01/31 14:36:56.4	1.370	-0.220	-0.280	-0.720
2020/01/31 14:36:56.5	1.370	-0.250	-0.220	-0.690
2020/01/31 14:36:56.6	1.370	-0.280	-0.150	-0.660
2020/01/31 14:36:56.7	1.360	-0.310	-0.080	-0.630
2020/01/31 14:36:56.8	1.360	-0.330	-0.020	-0.600
2020/01/31 14:36:56.9	1.350	-0.360	0.040	-0.570
2020/01/31 14:36:57.0	1.340	-0.380	0.090	-0.540
2020/01/31 14:36:57.1	1.330	-0.400	0.140	-0.510
2020/01/31 14:36:57.2	1.320	-0.420	0.180	-0.480
2020/01/31 14:36:57.3	1.300	-0.430	0.220	-0.460
2020/01/31 14:36:57.4	1.290	-0.440	0.250	-0.430
2020/01/31 14:36:57.5	1.270	-0.450	0.280	-0.400
2020/01/31 14:36:57.6	1.250	-0.450	0.290	-0.380
2020/01/31 14:36:57.7	1.230	-0.450	0.300	-0.360
2020/01/31 14:36:57.8	1.210	-0.450	0.310	-0.330
2020/01/31 14:36:57.9	1.190	-0.440	0.310	-0.310
2020/01/31 14:36:58.0	1.170	-0.430	0.300	-0.290
2020/01/31 14:36:58.1	1.150	-0.420	0.290	-0.280
2020/01/31 14:36:58.2	1.130	-0.410	0.270	-0.260
2020/01/31 14:36:58.3	1.110	-0.390	0.250	-0.250
2020/01/31 14:36:58.4	1.080	-0.360	0.220	-0.240
2020/01/31 14:36:58.5	1.060	-0.340	0.190	-0.230
2020/01/31 14:36:58.6	1.040	-0.310	0.160	-0.220
2020/01/31 14:36:58.7	1.010	-0.280	0.130	-0.210
2020/01/31 14:36:58.8	0.990	-0.250	0.090	-0.210
2020/01/31 14:36:58.9	0.970	-0.210	0.050	-0.200
2020/01/31 14:36:59.0	0.940	-0.180	0.010	-0.190
2020/01/31 14:36:59.1	0.920	-0.140	-0.030	-0.180
2020/01/31 14:36:59.2	0.890	-0.100	-0.070	-0.170
2020/01/31 14:36:59.3	0.870	-0.070	-0.110	-0.170
2020/01/31 14:36:59.4	0.840	-0.030	-0.140	-0.160
2020/01/31 14:36:59.5	0.820	0.010	-0.180	-0.150
2020/01/31 14:36:59.6	0.790	0.050	-0.210	-0.130
2020/01/31 14:36:59.7	0.760	0.090	-0.240	-0.120
2020/01/31 14:36:59.8	0.740	0.130	-0.270	-0.110
2020/01/31 14:36:59.9	0.710	0.160	-0.290	-0.100
2020/01/31 14:37:00.0	0.690	0.200	-0.320	-0.090
2020/01/31 14:37:00.1	0.670	0.230	-0.330	-0.070
2020/01/31 14:37:00.2	0.650	0.260	-0.350	-0.060
2020/01/31 14:37:00.3	0.630	0.290	-0.360	-0.050
2020/01/31 14:37:00.4	0.610	0.320	-0.370	-0.040
2020/01/31 14:37:00.5	0.600	0.340	-0.380	-0.040
2020/01/31 14:37:00.6	0.590	0.360	-0.380	-0.030
2020/01/31 14:37:00.7	0.580	0.380	-0.380	-0.030
2020/01/31 14:37:00.8	0.570	0.400	-0.380	-0.020
2020/01/31 14:37:00.9	0.570	0.410	-0.370	-0.020
2020/01/31 14:37:01.0	0.570	0.430	-0.370	-0.020
2020/01/31 14:37:01.1	0.580	0.430	-0.360	-0.020
2020/01/31 14:37:01.2	0.580	0.440	-0.350	-0.030
2020/01/31 14:37:01.3	0.590	0.440	-0.340	-0.030
2020/01/31 14:37:01.4	0.600	0.440	-0.330	-0.040
2020/01/31 14:37:01.5	0.620	0.440	-0.310	-0.050
2020/01/31 14:37:01.6	0.630	0.440	-0.300	-0.060
2020/01/31 14:37:01.7	0.640	0.430	-0.280	-0.070
2020/01/31 14:37:01.8	0.660	0.420	-0.270	-0.080
2020/01/31 14:37:01.9	0.680	0.400	-0.250	-0.090
2020/01/31 14:37:02.0	0.700	0.390	-0.220	-0.100
2020/01/31 14:37:02.1	0.720	0.370	-0.200	-0.120
2020/01/31 14:37:02.2	0.740	0.340	-0.180	-0.130
2020/01/31 14:37:02.3	0.760	0.320	-0.160	-0.140
2020/01/31 14:37:02.4	0.780	0.290	-0.130	-0.150
2020/01/31 14:37:02.5	0.800	0.260	-0.110	-0.160
2020/01/31 14:37:02.6	0.820	0.230	-0.090	-0.170
2020/01/31 14:37:02.7	0.830	0.200	-0.060	-0.180
2020/01/31 14:37:02.8	0.850	0.170	-0.040	-0.190
2020/01/31 14:37:02.9	0.870	0.140	-0.020	-0.200
2020/01/31 14:37:03.0	0.880	0.100	-0.000	-0.210
2020/01/31 14:37:03.1	0.900	0.070	0.010	-0.220
2020/01/31 14:37:03.2	0.910	0.030	0.030	-0.230
2020/01/31 14:37:03.3	0.920	-0.000	0.040	-0.240
2020/01/31 14:37:03.4	0.930	-0.040	0.050	-0.240
2020/01/31 14:37:03.5	0.940	-0.070	0.050	-0.250
2020/01/31 14:37:03.6	0.950	-0.100	0.050	-0.260
2020/01/31 14:37:03.7	0.940	-0.140	0.050	-0.260
2020/01/31 14:37:03.8	0.950	-0.170	0.040	-0.260
2020/01/31 14:37:03.9	0.950	-0.200	0.030	-0.270
2020/01/31 14:37:04.0	0.960	-0.220	0.010	-0.270
2020/01/31 14:37:04.1	0.970	-0.250	-0.010	-0.280
2020/01/31 14:37:04.2	0.970	-0.270	-0.040	-0.290
2020/01/31 14:37:04.3	0.980	-0.290	-0.080	-0.300
2020/01/31 14:37:04.4	0.990	-0.310	-0.120	-0.310
2020/01/31 14:37:04.5	0.990	-0.320	-0.160	-0.320
2020/01/31 14:37:04.6	1.000	-0.330	-0.210	-0.340
2020/01/31 14:37:04.7	1.020	-0.340	-0.260	-0.370
2020/01/31 14:37:04.8	1.030	-0.350	-0.320	-0.390
2020/01/31 14:37:04.9	1.040	-0.350	-0.370	-0.410
2020/01/31 14:37:05.0	1.050	-0.360	-0.430	-0.440
2020/01/31 14:37:05.1	1.070	-0.360	-0.490	-0.460
2020/01/31 14:37:05.2	1.080	-0.350	-0.550	-0.490
2020/01/31 14:37:05.3	1.090	-0.350	-0.600	-0.520
2020/01/31 14:37:05.4	1.100	-0.340	-0.660	-0.560
2020/01/31 14:37:05.5	1.110	-0.340	-0.710	-0.590
2020/01/31 14:37:05.6	1.120	-0.330	-0.750	-0.620
2020/01/31 14:37:05.7	1.130	-0.320	-0.800	-0.650
2020/01/31 14:37:05.8	1.140	-0.310	-0.830	-0.680
2020/01/31 14:37:05.9	1.140	-0.290	-0.870	-0.710
2020/01/31 14:37:06.0	1.150	-0.280	-0.890	-0.740
2020/01/31 14:37:06.1	1.150	-0.270	-0.910	-0.760
2020/01/31 14:37:06.2	1.150	-0.260	-0.920	-0.790
2020/01/31 14:37:06.3	1.150	-0.240	-0.930	-0.810
2020/01/31 14:37:06.4	1.140	-0.230	-0.930	-0.830
2020/01/31 14:37:06.5	1.140	-0.220	-0.920	-0.840
2020/01/31 14:37:06.6	1.130	-0.200	-0.900	-0.860
2020/01/31 14:37:06.7	1.110	-0.190	-0.880	-0.870
2020/01/31 14:37:06.8	1.110	-0.180	-0.850	-0.870
2020/01/31 14:37:06.9	1.100	-0.170	-0.810	-0.880
2020/01/31 14:37:07.0	1.080	-0.160	-0.770	-0.880
2020/01/31 14:37:07.1	1.070	-0.140	-0.730	-0.870
2020/01/31 14:37:07.2	1.060	-0.130	-0.680	-0.860
2020/01/31 14:37:07.3	1.050	-0.120	-0.620	-0.850
2020/01/31 14:37:07.4	1.030	-0.110	-0.560	-0.840
2020/01/31 14:37:07.5	1.020	-0.100	-0.500	-0.820
2020/01/31 14:37:07.6	1.010	-0.090	-0.440	-0.800
2020/01/31 14:37:07.7	0.990	-0.080	-0.380	-0.780
2020/01/31 14:37:07.8	0.970	-0.070	-0.310	-0.750
2020/01/31 14:37:07.9	0.970	-0.050	-0.250	-0.720
2020/01/31 14:37:08.0	0.960	-0.040	-0.180	-0.690
2020/01/31 14:37:08.1	0.950	-0.020	-0.120	-0.650
2020/01/31 14:37:08.2	0.940	-0.010	-0.060	-0.620
2020/01/31 14:37:08.3	0.930	0.010	-0.000	-0.580
2020/01/31 14:37:08.4	0.920	0.020	0.050	-0.540
2020/01/31 14:37:08.5	0.910	0.040	0.100	-0.500
2020/01/31 14:37:08.6	0.910	0.060	0.140	-0.460
2020/01/31 14:37:08.7	0.910	0.080	0.190	-0.420
2020/01/31 14:37:08.8	0.900	0.110	0.220	-0.380
2020/01/31 14:37:08.9	0.900	0.130	0.250	-0.340
2020/01/31 14:37:09.0	0.890	0.150	0.280	-0.300
2020/01/31 14:37:09.1	0.890	0.170	0.300	-0.260
2020/01/31 14:37:09.2	0.880	0.200	0.310	-0.220
2020/01/31 14:37:09.3	0.880	0.220	0.320	-0.180
2020/01/31 14:37:09.4	0.880	0.250	0.320	-0.140
2020/01/31 14:37:09.5	0.870	0.280	0.320	-0.110
2020/01/31 14:37:09.6	0.870	0.300	0.310	-0.080
2020/01/31 14:37:09.7	0.860	0.330	0.300	-0.050
2020/01/31 14:37:09.8	0.850	0.350	0.290	-0.020
2020/01/31 14:37:09.9	0.860	0.380	0.270	0.010
2020/01/31 14:37:10.0	0.850	0.400	0.240	0.030
2020/01/31 14:37:10.1	0.850	0.430	0.220	0.060
2020/01/31 14:37:10.2	0.850	0.450	0.190	0.080
2020/01/31 14:37:10.3	0.850	0.470	0.160	0.110
2020/01/31 14:37:10.4	0.850	0.490	0.130	0.130
2020/01/31 14:37:10.5	0.850	0.510	0.110	0.160
2020/01/31 14:37:10.6	0.850	0.530	0.080	0.190
2020/01/31 14:37:10.7	0.840	0.540	0.050	0.210
2020/01/31 14:37:10.8	0.840	0.550	0.030	0.240
2020/01/31 14:37:10.9	0.830	0.560	0.010	0.270
2020/01/31 14:37:11.0	0.820	0.570	-0.010	0.300
2020/01/31 14:37:11.1	0.810	0.570	-0.030	0.330
2020/01/31 14:37:11.2	0.800	0.570	-0.040	0.360
2020/01/31 14:37:11.3	0.790	0.570	-0.050	0.390
2020/01/31 14:37:11.4	0.780	0.560	-0.060	0.420
2020/01/31 14:37:11.5	0.770	0.550	-0.070	0.450
2020/01/31 14:37:11.6	0.750	0.530	-0.070	0.480
2020/01/31 14:37:11.7	0.740	0.510	-0.070	0.500
2020/01/31 14:37:11.8	0.720	0.490	-0.070	0.520
2020/01/31 14:37:11.9	0.700	0.470	-0.070	0.540
2020/01/31 14:37:12.0	0.690	0.440	-0.070	0.550
2020/01/31 14:37:12.1	0.670	0.410	-0.060	0.550
2020/01/31 14:37:12.2	0.650	0.370	-0.060	0.550
2020/01/31 14:37:12.3	0.630	0.330	-0.060	0.550
2020/01/31 14:37:12.4	0.610	0.290	-0.060	0.540
2020/01/31 14:37:12.5	0.590	0.250	-0.060	0.520
2020/01/31 14:37:12.6	0.570	0.210	-0.060	0.500
2020/01/31 14:37:12.7	0.560	0.160	-0.060	0.460
2020/01/31 14:37:12.8	0.550	0.110	-0.070	0.430
2020/01/31 14:37:12.9	0.530	0.070	-0.080	0.390
2020/01/31 14:37:13.0	0.520	0.020	-0.100	0.340
2020/01/31 14:37:13.1	0.520	-0.030	-0.120	0.290
2020/01/31 14:37:13.2	0.510	-0.070	-0.140	0.230
2020/01/31 14:37:13.3	0.510	-0.120	-0.170	0.180
2020/01/31 14:37:13.4	0.520	-0.160	-0.200	0.110
2020/01/31 14:37:13.5	0.520	-0.200	-0.240	0.050
2020/01/31 14:37:13.6	0.530	-0.240	-0.280	-0.020
2020/01/31 14:37:13.7	0.520	-0.280	-0.320	-0.090
2020/01/31 14:37:13.8	0.540	-0.310	-0.370	-0.170
2020/01/31 14:37:13.9	0.560	-0.340	-0.420	-0.240
2020/01/31 14:37:14.0	0.580	-0.370	-0.470	-0.310
2020/01/31 14:37:14.1	0.600	-0.400	-0.530	-0.390
2020/01/31 14:37:14.2	0.630	-0.420	-0.590	-0.470
2020/01/31 14:37:14.3	0.660	-0.430	-0.650	-0.540
2020/01/31 14:37:14.4	0.690	-0.450	-0.710	-0.620
2020/01/31 14:37:14.5	0.730	-0.460	-0.760	-0.700
2020/01/31 14:37:14.6	0.760	-0.460	-0.820	-0.770
2020/01/31 14:37:14.7	0.800	-0.470	-0.880	-0.860
2020/01/31 14:37:14.8	0.840	-0.460	-0.930	-0.930
2020/01/31 14:37:14.9	0.890	-0.460	-0.980	-1.000
2020/01/31 14:37:15.0	0.930	-0.450	-1.030	-1.080
2020/01/31 14:37:15.1	0.980	-0.440	-1.080	-1.150
2020/01/31 14:37:15.2	1.020	-0.430	-1.120	-1.210
2020/01/31 14:37:15.3	1.070	-0.420	-1.150	-1.280
2020/01/31 14:37:15.4	1.110	-0.400	-1.180	-1.330
2020/01/31 14:37:15.5	1.160	-0.380	-1.200	-1.390
2020/01/31 14:37:15.6	1.200	-0.360	-1.210	-1.440
2020/01/31 14:37:15.7	1.250	-0.340	-1.220	-1.480
2020/01/31 14:37:15.8	1.290	-0.310	-1.220	-1.510
2020/01/31 14:37:15.9	1.330	-0.290	-1.210	-1.540
2020/01/31 14:37:16.0	1.360	-0.270	-1.190	-1.570
2020/01/31 14:37:16.1	1.390	-0.250	-1.170	-1.580
2020/01/31 14:37:16.2	1.420	-0.220	-1.140	-1.590
2020/01/31 14:37:16.3	1.450	-0.200	-1.100	-1.590
2020/01/31 14:37:16.4	1.470	-0.180	-1.050	-1.580
2020/01/31 14:37:16.5	1.490	-0.160	-1.000	-1.570
2020/01/31 14:37:16.6	1.500	-0.150	-0.940	-1.550
2020/01/31 14:37:16.7	1.510	-0.130	-0.870	-1.530
2020/01/31 14:37:16.8	1.510	-0.120	-0.800	-1.500
2020/01/31 14:37:16.9	1.510	-0.110	-0.720	-1.460
2020/01/31 14:37:17.0	1.510	-0.100	-0.640	-1.420
2020/01/31 14:37:17.1	1.500	-0.090	-0.560	-1.380
2020/01/31 14:37:17.2	1.490	-0.090	-0.480	-1.330
2020/01/31 14:37:17.3	1.480	-0.090	-0.390	-1.280
2020/01/31 14:37:17.4	1.460	-0.090	-0.300	-1.220
2020/01/31 14:37:17.5	1.440	-0.090	-0.210	-1.160
2020/01/31 14:37:17.6	1.420	-0.100	-0.130	-1.100
2020/01/31 14:37:17.7	1.400	-0.100	-0.040	-1.040
2020/01/31 14:37:17.8	1.370	-0.110	0.040	-0.980
2020/01/31 14:37:17.9	1.340	-0.120	0.120	-0.910
2020/01/31 14:37:18.0	1.310	-0.130	0.200	-0.850
2020/01/31 14:37:18.1	1.280	-0.150	0.270	-0.780
2020/01/31 14:37:18.2	1.250	-0.160	0.340	-0.720
2020/01/31 14:37:18.3	1.220	-0.170	0.400	-0.660
2020/01/31 14:37:18.4	1.190	-0.180	0.460	-0.600
2020/01/31 14:37:18.5	1.160	-0.200	0.500	-0.540
2020/01/31 14:37:18.6	1.130	-0.210	0.550	-0.480
2020/01/31 14:37:18.7	1.100	-0.220	0.590	-0.430
2020/01/31 14:37:18.8	1.080	-0.220	0.620	-0.380
2020/01/31 14:37:18.9	1.050	-0.230	0.640	-0.330
2020/01/31 14:37:19.0	1.030	-0.230	0.660	-0.280
2020/01/31 14:37:19.1	1.010	-0.240	0.660	-0.240
2020/01/31 14:37:19.2	0.990	-0.230	0.670	-0.200
2020/01/31 14:37:19.3	0.960	-0.230	0.660	-0.160
2020/01/31 14:37:19.4	0.950	-0.220	0.650	-0.120
2020/01/31 14:37:19.5	0.930	-0.210	0.640	-0.080
2020/01/31 14:37:19.6	0.910	-0.190	0.620	-0.040
2020/01/31 14:37:19.7	0.900	-0.180	0.600	-0.010
2020/01/31 14:37:19.8	0.890	-0.150	0.570	0.030
2020/01/31 14:37:19.9	0.870	-0.130	0.540	0.060
2020/01/31 14:37:20.0	0.850	-0.100	0.510	0.100
2020/01/31 14:37:20.1	0.830	-0.070	0.480	0.140
2020/01/31 14:37:20.2	0.820	-0.040	0.450	0.180
2020/01/31 14:37:20.3	0.800	-0.010	0.420	0.210
2020/01/31 14:37:20.4	0.780	0.030	0.390	0.250
2020/01/31 14:37:20.5	0.760	0.060	0.350	0.280
2020/01/31 14:37:20.6	0.740	0.100	0.320	0.310
2020/01/31 14:37:20.7	0.720	0.130	0.300	0.340
2020/01/31 14:37:20.8	0.710	0.170	0.260	0.360
2020/01/31 14:37:20.9	0.690	0.200	0.230	0.390
2020/01/31 14:37:21.0	0.680	0.230	0.200	0.400
2020/01/31 14:37:21.1	0.670	0.270	0.170	0.420
2020/01/31 14:37:21.2	0.660	0.300	0.140	0.430
2020/01/31 14:37:21.3	0.650	0.320	0.110	0.430
2020/01/31 14:37:21.4	0.640	0.350	0.080	0.440
2020/01/31 14:37:21.5	0.640	0.370	0.040	0.430
2020/01/31 14:37:21.6	0.630	0.390	0.010	0.430
2020/01/31 14:37:21.7	0.640	0.410	-0.030	0.420
2020/01/31 14:37:21.8	0.640	0.430	-0.060	0.400
2020/01/31 14:37:21.9	0.640	0.440	-0.100	0.390
2020/01/31 14:37:22.0	0.640	0.450	-0.140	0.370
2020/01/31 14:37:22.1	0.650	0.450	-0.180	0.340
2020/01/31 14:37:22.2	0.660	0.450	-0.210	0.320
2020/01/31 14:37:22.3	0.660	0.450	-0.250	0.290
2020/01/31 14:37:22.4	0.670	0.450	-0.290	0.260
2020/01/31 14:37:22.5	0.680	0.440	-0.330	0.230
2020/01/31 14:37:22.6	0.690	0.430	-0.370	0.200
2020/01/31 14:37:22.7	0.700	0.420	-0.410	0.170
2020/01/31 14:37:22.8	0.710	0.400	-0.440	0.140
2020/01/31 14:37:22.9	0.710	0.380	-0.480	0.100
2020/01/31 14:37:23.0	0.720	0.360	-0.520	0.070
2020/01/31 14:37:23.1	0.730	0.340	-0.550	0.030
2020/01/31 14:37:23.2	0.730	0.320	-0.590	-0.010
2020/01/31 14:37:23.3	0.740	0.290	-0.620	-0.050
2020/01/31 14:37:23.4	0.750	0.260	-0.650	-0.090
2020/01/31 14:37:23.5	0.750	0.230	-0.680	-0.130
2020/01/31 14:37:23.6	0.760	0.210	-0.710	-0.170
2020/01/31 14:37:23.7	0.770	0.180	-0.740	-0.210
2020/01/31 14:37:23.8	0.780	0.150	-0.760	-0.260
2020/01/31 14:37:23.9	0.790	0.120	-0.790	-0.300
2020/01/31 14:37:24.0	0.800	0.100	-0.810	-0.350
2020/01/31 14:37:24.1	0.810	0.080	-0.830	-0.390
2020/01/31 14:37:24.2	0.830	0.050	-0.850	-0.440
2020/01/31 14:37:24.3	0.840	0.030	-0.870	-0.480
2020/01/31 14:37:24.4	0.860	0.020	-0.890	-0.530
2020/01/31 14:37:24.5	0.880	0.000	-0.910	-0.570
2020/01/31 14:37:24.6	0.900	-0.010	-0.920	-0.610
2020/01/31 14:37:24.7	0.930	-0.020	-0.930	-0.660
2020/01/31 14:37:24.8	0.950	-0.030	-0.940	-0.700
2020/01/31 14:37:24.9	0.970	-0.040	-0.940	-0.740
2020/01/31 14:37:25.0	0.980	-0.040	-0.940	-0.770
2020/01/31 14:37:25.1	1.000	-0.040	-0.940	-0.800
2020/01/31 14:37:25.2	1.020	-0.040	-0.940	-0.830
2020/01/31 14:37:25.3	1.030	-0.040	-0.930	-0.860
2020/01/31 14:37:25.4	1.040	-0.040	-0.920	-0.890
2020/01/31 14:37:25.5	1.050	-0.030	-0.900	-0.910
2020/01/31 14:37:25.6	1.060	-0.030	-0.880	-0.930
2020/01/31 14:37:25.7	1.070	-0.020	-0.860	-0.940
2020/01/31 14:37:25.8	1.070	-0.010	-0.840	-0.960
2020/01/31 14:37:25.9	1.070	-0.010	-0.810	-0.970
2020/01/31 14:37:26.0	1.070	-0.000	-0.780	-0.980
2020/01/31 14:37:26.1	1.070	0.000	-0.750	-0.990
2020/01/31 14:37:26.2	1.070	0.010	-0.710	-0.990
2020/01/31 14:37:26.3	1.070	0.010	-0.680	-1.000
2020/01/31 14:37:26.4	1.060	0.020	-0.640	-1.000
2020/01/31 14:37:26.5	1.060	0.020	-0.600	-1.000
2020/01/31 14:37:26.6	1.050	0.020	-0.560	-1.000
2020/01/31 14:37:26.7	1.030	0.020	-0.520	-1.010
2020/01/31 14:37:26.8	1.030	0.020	-0.480	-1.010
2020/01/31 14:37:26.9	1.030	0.010	-0.440	-1.010
2020/01/31 14:37:27.0	1.020	0.010	-0.400	-1.000
2020/01/31 14:37:27.1	1.020	0.000	-0.360	-1.000
2020/01/31 14:37:27.2	1.020	-0.010	-0.320	-1.000
2020/01/31 14:37:27.3	1.020	-0.010	-0.280	-1.000
2020/01/31 14:37:27.4	1.020	-0.030	-0.250	-0.990
2020/01/31 14:37:27.5	1.020	-0.040	-0.220	-0.990
2020/01/31 14:37:27.6	1.030	-0.050	-0.180	-0.980
2020/01/31 14:37:27.7	1.040	-0.060	-0.150	-0.980
2020/01/31 14:37:27.8	1.040	-0.080	-0.130	-0.970
2020/01/31 14:37:27.9	1.050	-0.090	-0.100	-0.960
2020/01/31 14:37:28.0	1.060	-0.110	-0.080	-0.950
2020/01/31 14:37:28.1	1.070	-0.130	-0.060	-0.940
2020/01/31 14:37:28.2	1.080	-0.140	-0.040	-0.920
2020/01/31 14:37:28.3	1.090	-0.160	-0.020	-0.900
2020/01/31 14:37:28.4	1.110	-0.170	-0.000	-0.880
2020/01/31 14:37:28.5	1.120	-0.180	0.010	-0.860
2020/01/31 14:37:28.6	1.130	-0.200	0.030	-0.830
2020/01/31 14:37:28.7	1.140	-0.210	0.040	-0.790
2020/01/31 14:37:28.8	1.150	-0.220	0.050	-0.760
2020/01/31 14:37:28.9	1.160	-0.230	0.060	-0.720
2020/01/31 14:37:29.0	1.170	-0.240	0.070	-0.680
2020/01/31 14:37:29.1	1.180	-0.250	0.080	-0.640
2020/01/31 14:37:29.2	1.180	-0.250	0.090	-0.590
2020/01/31 14:37:29.3	1.190	-0.260	0.090	-0.550
2020/01/31 14:37:29.4	1.200	-0.270	0.100	-0.500
2020/01/31 14:37:29.5	1.200	-0.270	0.110	-0.460
2020/01/31 14:37:29.6	1.210	-0.270	0.110	-0.410
2020/01/31 14:37:29.7	1.210	-0.270	0.120	-0.360
2020/01/31 14:37:29.8	1.210	-0.270	0.130	-0.310
2020/01/31 14:37:29.9	1.220	-0.270	0.130	-0.270
2020/01/31 14:37:30.0	1.220	-0.270	0.140	-0.220
2020/01/31 14:37:30.1	1.220	-0.270	0.140	-0.180
2020/01/31 14:37:30.2	1.220	-0.260	0.140	-0.140
2020/01/31 14:37:30.3	1.220	-0.260	0.140	-0.090
2020/01/31 14:37:30.4	1.220	-0.250	0.150	-0.050
2020/01/31 14:37:30.5	1.210	-0.240	0.150	-0.010
2020/01/31 14:37:30.6	1.210	-0.240	0.150	0.030
2020/01/31 14:37:30.7	1.210	-0.230	0.160	0.060
2020/01/31 14:37:30.8	1.200	-0.220	0.160	0.100
2020/01/31 14:37:30.9	1.190	-0.210	0.160	0.130
2020/01/31 14:37:31.0	1.170	-0.200	0.170	0.170
2020/01/31 14:37:31.1	1.160	-0.190	0.170	0.210
2020/01/31 14:37:31.2	1.140	-0.180	0.170	0.240
2020/01/31 14:37:31.3	1.120	-0.170	0.180	0.280
2020/01/31 14:37:31.4	1.100	-0.160	0.190	0.310
2020/01/31 14:37:31.5	1.070	-0.150	0.190	0.350
2020/01/31 14:37:31.6	1.050	-0.140	0.190	0.380
2020/01/31 14:37:31.7	1.020	-0.130	0.200	0.410
2020/01/31 14:37:31.8	0.990	-0.120	0.200	0.450
2020/01/31 14:37:31.9	0.960	-0.110	0.200	0.480
2020/01/31 14:37:32.0	0.930	-0.090	0.200	0.500
2020/01/31 14:37:32.1	0.900	-0.080	0.200	0.530
2020/01/31 14:37:32.2	0.870	-0.070	0.190	0.550
2020/01/31 14:37:32.3	0.850	-0.050	0.180	0.570
2020/01/31 14:37:32.4	0.820	-0.040	0.160	0.590
2020/01/31 14:37:32.5	0.790	-0.030	0.140	0.610
2020/01/31 14:37:32.6	0.770	-0.010	0.120	0.620
2020/01/31 14:37:32.7	0.740	0.000	0.090	0.620
2020/01/31 14:37:32.8	0.720	0.020	0.060	0.620
2020/01/31 14:37:32.9	0.700	0.040	0.030	0.620
2020/01/31 14:37:33.0	0.680	0.050	-0.010	0.610
2020/01/31 14:37:33.1	0.660	0.070	-0.050	0.600
2020/01/31 14:37:33.2	0.640	0.090	-0.090	0.580
2020/01/31 14:37:33.3	0.630	0.110	-0.140	0.560
2020/01/31 14:37:33.4	0.610	0.120	-0.190	0.530
2020/01/31 14:37:33.5	0.600	0.140	-0.240	0.490
2020/01/31 14:37:33.6	0.590	0.160	-0.290	0.450
2020/01/31 14:37:33.7	0.580	0.180	-0.340	0.410
2020/01/31 14:37:33.8	0.570	0.200	-0.390	0.360
2020/01/31 14:37:33.9	0.560	0.210	-0.440	0.310
2020/01/31 14:37:34.0	0.550	0.230	-0.490	0.260
2020/01/31 14:37:34.1	0.540	0.250	-0.530	0.200
2020/01/31 14:37:34.2	0.530	0.260	-0.580	0.150
2020/01/31 14:37:34.3	0.530	0.280	-0.620	0.090
2020/01/31 14:37:34.4	0.520	0.290	-0.650	0.030
2020/01/31 14:37:34.5	0.510	0.300	-0.690	-0.020
2020/01/31 14:37:34.6	0.500	0.310	-0.710	-0.080
2020/01/31 14:37:34.7	0.500	0.320	-0.730	-0.140
2020/01/31 14:37:34.8	0.490	0.320	-0.750	-0.200
2020/01/31 14:37:34.9	0.490	0.330	-0.760	-0.250
2020/01/31 14:37:35.0	0.480	0.330	-0.760	-0.300
2020/01/31 14:37:35.1	0.480	0.330	-0.760	-0.360
2020/01/31 14:37:35.2	0.480	0.320	-0.750	-0.400
2020/01/31 14:37:35.3	0.470	0.310	-0.740	-0.450
2020/01/31 14:37:35.4	0.470	0.310	-0.720	-0.500
2020/01/31 14:37:35.5	0.470	0.290	-0.700	-0.540
2020/01/31 14:37:35.6	0.470	0.280	-0.670	-0.580
2020/01/31 14:37:35.7	0.480	0.260	-0.640	-0.630
2020/01/31 14:37:35.8	0.480	0.240	-0.600	-0.660
2020/01/31 14:37:35.9	0.490	0.220	-0.570	-0.700
2020/01/31 14:37:36.0	0.500	0.200	-0.530	-0.730
2020/01/31 14:37:36.1	0.500	0.170	-0.490	-0.760
2020/01/31 14:37:36.2	0.510	0.150	-0.450	-0.790
2020/01/31 14:37:36.3	0.520	0.120	-0.410	-0.810
2020/01/31 14:37:36.4	0.530	0.090	-0.380	-0.840
2020/01/31 14:37:36.5	0.540	0.060	-0.340	-0.860
2020/01/31 14:37:36.6	0.550	0.030	-0.300	-0.880
2020/01/31 14:37:36.7	0.560	0.000	-0.270	-0.890
2020/01/31 14:37:36.8	0.570	-0.030	-0.240	-0.910
2020/01/31 14:37:36.9	0.580	-0.060	-0.210	-0.920
2020/01/31 14:37:37.0	0.590	-0.090	-0.180	-0.930
2020/01/31 14:37:37.1	0.600	-0.110	-0.160	-0.940
2020/01/31 14:37:37.2	0.610	-0.140	-0.140	-0.940
2020/01/31 14:37:37.3	0.620	-0.160	-0.130	-0.940
2020/01/31 14:37:37.4	0.630	-0.180	-0.110	-0.940
2020/01/31 14:37:37.5	0.640	-0.200	-0.100	-0.940
2020/01/31 14:37:37.6	0.650	-0.220	-0.100	-0.930
2020/01/31 14:37:37.7	0.650	-0.230	-0.100	-0.930
2020/01/31 14:37:37.8	0.660	-0.240	-0.100	-0.920
2020/01/31 14:37:37.9	0.660	-0.250	-0.100	-0.900
2020/01/31 14:37:38.0	0.670	-0.260	-0.110	-0.880
2020/01/31 14:37:38.1	0.670	-0.260	-0.120	-0.870
2020/01/31 14:37:38.2	0.670	-0.260	-0.140	-0.840
2020/01/31 14:37:38.3	0.680	-0.260	-0.150	-0.820
2020/01/31 14:37:38.4	0.680	-0.250	-0.170	-0.790
2020/01/31 14:37:38.5	0.670	-0.250	-0.190	-0.760
2020/01/31 14:37:38.6	0.670	-0.240	-0.210	-0.740
2020/01/31 14:37:38.7	0.660	-0.220	-0.240	-0.710
2020/01/31 14:37:38.8	0.660	-0.210	-0.260	-0.680
2020/01/31 14:37:38.9	0.660	-0.190	-0.290	-0.650
2020/01/31 14:37:39.0	0.650	-0.180	-0.320	-0.620
2020/01/31 14:37:39.1	0.650	-0.160	-0.350	-0.600
2020/01/31 14:37:39.2	0.650	-0.140	-0.380	-0.570
2020/01/31 14:37:39.3	0.650	-0.120	-0.410	-0.550
2020/01/31 14:37:39.4	0.650	-0.100	-0.450	-0.530
2020/01/31 14:37:39.5	0.650	-0.080	-0.480	-0.510
2020/01/31 14:37:39.6	0.660	-0.060	-0.510	-0.490
2020/01/31 14:37:39.7	0.650	-0.030	-0.540	-0.480
2020/01/31 14:37:39.8	0.660	-0.010	-0.570	-0.460
2020/01/31 14:37:39.9	0.660	0.010	-0.600	-0.450
2020/01/31 14:37:40.0	0.670	0.030	-0.620	-0.430
2020/01/31 14:37:40.1	0.670	0.040	-0.650	-0.420
2020/01/31 14:37:40.2	0.680	0.060	-0.670	-0.410
2020/01/31 14:37:40.3	0.690	0.080	-0.680	-0.400
2020/01/31 14:37:40.4	0.690	0.090	-0.690	-0.380
2020/01/31 14:37:40.5	0.700	0.100	-0.700	-0.370
2020/01/31 14:37:40.6	0.700	0.110	-0.700	-0.350
2020/01/31 14:37:40.7	0.700	0.120	-0.700	-0.340
2020/01/31 14:37:40.8	0.700	0.130	-0.690	-0.320
2020/01/31 14:37:40.9	0.710	0.140	-0.680	-0.300
2020/01/31 14:37:41.0	0.710	0.140	-0.660	-0.280
2020/01/31 14:37:41.1	0.710	0.150	-0.640	-0.250
2020/01/31 14:37:41.2	0.710	0.150	-0.610	-0.230
2020/01/31 14:37:41.3	0.710	0.150	-0.580	-0.200
2020/01/31 14:37:41.4	0.710	0.150	-0.540	-0.170
2020/01/31 14:37:41.5	0.710	0.140	-0.500	-0.130
2020/01/31 14:37:41.6	0.710	0.140	-0.460	-0.100
2020/01/31 14:37:41.7	0.710	0.140	-0.420	-0.060
2020/01/31 14:37:41.8	0.710	0.130	-0.370	-0.020
2020/01/31 14:37:41.9	0.710	0.130	-0.310	0.010
2020/01/31 14:37:42.0	0.700	0.120	-0.260	0.050
2020/01/31 14:37:42.1	0.700	0.120	-0.210	0.080
2020/01/31 14:37:42.2	0.690	0.110	-0.150	0.120
2020/01/31 14:37:42.3	0.690	0.100	-0.100	0.150
2020/01/31 14:37:42.4	0.680	0.100	-0.040	0.190
2020/01/31 14:37:42.5	0.670	0.090	0.010	0.220
2020/01/31 14:37:42.6	0.660	0.090	0.060	0.250
2020/01/31 14:37:42.7	0.650	0.080	0.100	0.270
2020/01/31 14:37:42.8	0.640	0.080	0.140	0.300
2020/01/31 14:37:42.9	0.620	0.080	0.180	0.330
2020/01/31 14:37:43.0	0.610	0.080	0.210	0.350
2020/01/31 14:37:43.1	0.600	0.080	0.240	0.370
2020/01/31 14:37:43.2	0.580	0.080	0.270	0.400
2020/01/31 14:37:43.3	0.570	0.080	0.290	0.410
2020/01/31 14:37:43.4	0.550	0.080	0.300	0.430
2020/01/31 14:37:43.5	0.540	0.080	0.320	0.450
2020/01/31 14:37:43.6	0.520	0.090	0.320	0.460
2020/01/31 14:37:43.7	0.510	0.090	0.330	0.470
2020/01/31 14:37:43.8	0.490	0.090	0.320	0.480
2020/01/31 14:37:43.9	0.470	0.100	0.320	0.480
2020/01/31 14:37:44.0	0.460	0.100	0.310	0.490
2020/01/31 14:37:44.1	0.440	0.100	0.300	0.480
2020/01/31 14:37:44.2	0.420	0.110	0.280	0.480
2020/01/31 14:37:44.3	0.400	0.110	0.260	0.480
2020/01/31 14:37:44.4	0.380	0.110	0.240	0.470
2020/01/31 14:37:44.5	0.360	0.110	0.220	0.460
2020/01/31 14:37:44.6	0.340	0.110	0.200	0.440
2020/01/31 14:37:44.7	0.310	0.110	0.180	0.430
2020/01/31 14:37:44.8	0.290	0.110	0.150	0.410
2020/01/31 14:37:44.9	0.270	0.100	0.130	0.390
2020/01/31 14:37:45.0	0.250	0.090	0.100	0.360
2020/01/31 14:37:45.1	0.230	0.090	0.080	0.340
2020/01/31 14:37:45.2	0.200	0.080	0.050	0.310
2020/01/31 14:37:45.3	0.180	0.060	0.030	0.280
2020/01/31 14:37:45.4	0.160	0.050	0.010	0.250
2020/01/31 14:37:45.5	0.140	0.030	-0.010	0.210
2020/01/31 14:37:45.6	0.110	0.020	-0.030	0.180
2020/01/31 14:37:45.7	0.110	-0.000	-0.040	0.140
2020/01/31 14:37:45.8	0.080	-0.020	-0.060	0.100
2020/01/31 14:37:45.9	0.060	-0.050	-0.070	0.060
2020/01/31 14:37:46.0	0.040	-0.070	-0.080	0.020
2020/01/31 14:37:46.1	0.020	-0.100	-0.090	-0.020
2020/01/31 14:37:46.2	0.000	-0.120	-0.100	-0.070
2020/01/31 14:37:46.3	359.970	-0.150	-0.110	-0.110
2020/01/31 14:37:46.4	359.950	-0.180	-0.110	-0.160
2020/01/31 14:37:46.5	359.930	-0.200	-0.110	-0.200
2020/01/31 14:37:46.6	359.910	-0.230	-0.110	-0.240
2020/01/31 14:37:46.7	359.880	-0.260	-0.110	-0.290
2020/01/31 14:37:46.8	359.860	-0.280	-0.110	-0.320
2020/01/31 14:37:46.9	359.840	-0.310	-0.100	-0.360
2020/01/31 14:37:47.0	359.820	-0.330	-0.100	-0.400
2020/01/31 14:37:47.1	359.810	-0.350	-0.090	-0.430
2020/01/31 14:37:47.2	359.790	-0.370	-0.090	-0.460
2020/01/31 14:37:47.3	359.780	-0.390	-0.080	-0.490
2020/01/31 14:37:47.4	359.760	-0.400	-0.080	-0.520
2020/01/31 14:37:47.5	359.750	-0.410	-0.080	-0.540
2020/01/31 14:37:47.6	359.740	-0.420	-0.090	-0.560
2020/01/31 14:37:47.7	359.730	-0.430	-0.090	-0.580
2020/01/31 14:37:47.8	359.730	-0.430	-0.100	-0.600
2020/01/31 14:37:47.9	359.730	-0.420	-0.110	-0.620
2020/01/31 14:37:48.0	359.730	-0.410	-0.130	-0.630
2020/01/31 14:37:48.1	359.730	-0.400	-0.160	-0.650
2020/01/31 14:37:48.2	359.730	-0.390	-0.180	-0.660
2020/01/31 14:37:48.3	359.740	-0.370	-0.220	-0.670
2020/01/31 14:37:48.4	359.750	-0.340	-0.260	-0.680
2020/01/31 14:37:48.5	359.760	-0.310	-0.300	-0.690
2020/01/31 14:37:48.6	359.770	-0.280	-0.340	-0.700
2020/01/31 14:37:48.7	359.780	-0.250	-0.390	-0.710
2020/01/31 14:37:48.8	359.800	-0.210	-0.440	-0.710
2020/01/31 14:37:48.9	359.820	-0.170	-0.500	-0.720
2020/01/31 14:37:49.0	359.840	-0.120	-0.550	-0.730
2020/01/31 14:37:49.1	359.860	-0.080	-0.610	-0.730
2020/01/31 14:37:49.2	359.880	-0.040	-0.660	-0.730
2020/01/31 14:37:49.3	359.900	0.010	-0.720	-0.730
2020/01/31 14:37:49.4	359.920	0.050	-0.770	-0.730
2020/01/31 14:37:49.5	359.940	0.090	-0.820	-0.720
2020/01/31 14:37:49.6	359.960	0.130	-0.860	-0.720
2020/01/31 14:37:49.7	359.980	0.170	-0.900	-0.710
2020/01/31 14:37:49.8	0.000	0.210	-0.940	-0.700
2020/01/31 14:37:49.9	0.020	0.240	-0.970	-0.690
2020/01/31 14:37:50.0	0.040	0.270	-1.000	-0.680
2020/01/31 14:37:50.1	0.060	0.300	-1.020	-0.670
2020/01/31 14:37:50.2	0.080	0.320	-1.040	-0.650
2020/01/31 14:37:50.3	0.100	0.340	-1.050	-0.630
2020/01/31 14:37:50.4	0.120	0.360	-1.050	-0.620
2020/01/31 14:37:50.5	0.140	0.370	-1.050	-0.600
2020/01/31 14:37:50.6	0.150	0.380	-1.050	-0.580
2020/01/31 14:37:50.7	0.170	0.380	-1.040	-0.550
2020/01/31 14:37:50.8	0.180	0.380	-1.020	-0.530
2020/01/31 14:37:50.9	0.200	0.370	-1.000	-0.510
2020/01/31 14:37:51.0	0.210	0.370	-0.980	-0.480
2020/01/31 14:37:51.1	0.220	0.350	-0.950	-0.450
2020/01/31 14:37:51.2	0.230	0.340	-0.910	-0.420
2020/01/31 14:37:51.3	0.240	0.320	-0.870	-0.390
2020/01/31 14:37:51.4	0.240	0.300	-0.830	-0.360
2020/01/31 14:37:51.5	0.250	0.270	-0.790	-0.330
2020/01/31 14:37:51.6	0.260	0.250	-0.740	-0.290
2020/01/31 14:37:51.7	0.270	0.220	-0.680	-0.260
2020/01/31 14:37:51.8	0.270	0.190	-0.630	-0.220
2020/01/31 14:37:51.9	0.270	0.160	-0.570	-0.180
2020/01/31 14:37:52.0	0.270	0.130	-0.520	-0.140
2020/01/31 14:37:52.1	0.260	0.100	-0.460	-0.110
2020/01/31 14:37:52.2	0.260	0.070	-0.400	-0.070
2020/01/31 14:37:52.3	0.260	0.040	-0.340	-0.030
2020/01/31 14:37:52.4	0.250	0.010	-0.280	0.000
2020/01/31 14:37:52.5	0.250	-0.010	-0.230	0.040
2020/01/31 14:37:52.6	0.240	-0.040	-0.170	0.070
2020/01/31 14:37:52.7	0.230	-0.060	-0.120	0.100
2020/01/31 14:37:52.8	0.220	-0.080	-0.070	0.130
2020/01/31 14:37:52.9	0.210	-0.100	-0.020	0.160
2020/01/31 14:37:53.0	0.210	-0.120	0.030	0.180
2020/01/31 14:37:53.1	0.200	-0.130	0.070	0.200
2020/01/31 14:37:53.2	0.190	-0.140	0.110	0.220
2020/01/31 14:37:53.3	0.180	-0.150	0.150	0.240
2020/01/31 14:37:53.4	0.180	-0.150	0.180	0.250
2020/01/31 14:37:53.5	0.170	-0.150	0.210	0.260
2020/01/31 14:37:53.6	0.160	-0.150	0.230	0.260
2020/01/31 14:37:53.7	0.150	-0.140	0.260	0.260
2020/01/31 14:37:53.8	0.140	-0.140	0.280	0.260
2020/01/31 14:37:53.9	0.130	-0.130	0.300	0.250
2020/01/31 14:37:54.0	0.120	-0.120	0.310	0.250
2020/01/31 14:37:54.1	0.110	-0.110	0.320	0.240
2020/01/31 14:37:54.2	0.110	-0.100	0.330	0.230
2020/01/31 14:37:54.3	0.100	-0.090	0.340	0.210
2020/01/31 14:37:54.4	0.080	-0.070	0.350	0.200
2020/01/31 14:37:54.5	0.070	-0.060	0.350	0.190
2020/01/31 14:37:54.6	0.060	-0.050	0.350	0.180
2020/01/31 14:37:54.7	0.020	-0.040	0.350	0.160
2020/01/31 14:37:54.8	0.000	-0.030	0.350	0.150
2020/01/31 14:37:54.9	359.980	-0.020	0.340	0.150
2020/01/31 14:37:55.0	359.950	-0.010	0.330	0.140
2020/01/31 14:37:55.1	359.930	-0.010	0.320	0.130
2020/01/31 14:37:55.2	359.900	-0.000	0.310	0.130
2020/01/31 14:37:55.3	359.880	0.000	0.300	0.120
2020/01/31 14:37:55.4	359.850	0.000	0.280	0.110
2020/01/31 14:37:55.5	359.820	0.000	0.260	0.110
2020/01/31 14:37:55.6	359.790	0.000	0.240	0.100
2020/01/31 14:37:55.7	359.770	-0.000	0.220	0.090
2020/01/31 14:37:55.8	359.740	-0.010	0.200	0.080
2020/01/31 14:37:55.9	359.710	-0.010	0.170	0.060
2020/01/31 14:37:56.0	359.690	-0.020	0.140	0.050
2020/01/31 14:37:56.1	359.660	-0.030	0.110	0.040
2020/01/31 14:37:56.2	359.640	-0.040	0.080	0.020
2020/01/31 14:37:56.3	359.610	-0.050	0.040	0.000
2020/01/31 14:37:56.4	359.590	-0.060	0.010	-0.020
2020/01/31 14:37:56.5	359.570	-0.070	-0.030	-0.040
2020/01/31 14:37:56.6	359.550	-0.080	-0.070	-0.060
2020/01/31 14:37:56.7	359.540	-0.090	-0.110	-0.090
2020/01/31 14:37:56.8	359.520	-0.100	-0.150	-0.110
2020/01/31 14:37:56.9	359.510	-0.100	-0.190	-0.130
2020/01/31 14:37:57.0	359.490	-0.110	-0.230	-0.150
2020/01/31 14:37:57.1	359.480	-0.120	-0.260	-0.170
2020/01/31 14:37:57.2	359.470	-0.120	-0.300	-0.190
2020/01/31 14:37:57.3	359.460	-0.120	-0.330	-0.210
2020/01/31 14:37:57.4	359.450	-0.120	-0.370	-0.230
2020/01/31 14:37:57.5	359.450	-0.120	-0.400	-0.240
2020/01/31 14:37:57.6	359.440	-0.110	-0.430	-0.260
2020/01/31 14:37:57.7	359.460	-0.100	-0.460	-0.280
2020/01/31 14:37:57.8	359.460	-0.090	-0.480	-0.300
2020/01/31 14:37:57.9	359.460	-0.080	-0.500	-0.310
2020/01/31 14:37:58.0	359.470	-0.060	-0.520	-0.330
2020/01/31 14:37:58.1	359.480	-0.040	-0.540	-0.340
2020/01/31 14:37:58.2	359.480	-0.020	-0.550	-0.350
2020/01/31 14:37:58.3	359.500	-0.000	-0.560	-0.370
2020/01/31 14:37:58.4	359.510	0.020	-0.570	-0.380
2020/01/31 14:37:58.5	359.520	0.050	-0.570	-0.390
2020/01/31 14:37:58.6	359.530	0.070	-0.570	-0.390
2020/01/31 14:37:58.7	359.540	0.100	-0.560	-0.400
2020/01/31 14:37:58.8	359.550	0.130	-0.560	-0.400
2020/01/31 14:37:58.9	359.560	0.160	-0.550	-0.400
2020/01/31 14:37:59.0	359.570	0.180	-0.530	-0.390
2020/01/31 14:37:59.1	359.590	0.210	-0.520	-0.380
2020/01/31 14:37:59.2	359.590	0.240	-0.500	-0.380
2020/01/31 14:37:59.3	359.600	0.260	-0.480	-0.370
2020/01/31 14:37:59.4	359.610	0.280	-0.460	-0.360
2020/01/31 14:37:59.5	359.620	0.300	-0.430	-0.340
2020/01/31 14:37:59.6	359.630	0.310	-0.410	-0.330
2020/01/31 14:37:59.7	359.630	0.320	-0.390	-0.320
2020/01/31 14:37:59.8	359.640	0.330	-0.360	-0.310
2020/01/31 14:37:59.9	359.650	0.340	-0.340	-0.300
2020/01/31 14:38:00.0	359.660	0.340	-0.310	-0.290
2020/01/31 14:38:00.1	359.670	0.340	-0.290	-0.280
2020/01/31 14:38:00.2	359.680	0.330	-0.270	-0.280
2020/01/31 14:38:00.3	359.690	0.330	-0.250	-0.270
2020/01/31 14:38:00.4	359.700	0.310	-0.230	-0.270
2020/01/31 14:38:00.5	359.710	0.300	-0.220	-0.260
2020/01/31 14:38:00.6	359.730	0.280	-0.210	-0.260
2020/01/31 14:38:00.7	359.750	0.250	-0.200	-0.270
2020/01/31 14:38:00.8	359.770	0.230	-0.190	-0.270
2020/01/31 14:38:00.9	359.790	0.200	-0.190	-0.270
2020/01/31 14:38:01.0	359.800	0.170	-0.180	-0.280
2020/01/31 14:38:01.1	359.820	0.140	-0.180	-0.290
2020/01/31 14:38:01.2	359.840	0.100	-0.190	-0.300
2020/01/31 14:38:01.3	359.850	0.070	-0.190	-0.310
2020/01/31 14:38:01.4	359.870	0.030	-0.190	-0.320
2020/01/31 14:38:01.5	359.880	-0.010	-0.200	-0.330
2020/01/31 14:38:01.6	359.900	-0.050	-0.210	-0.340
2020/01/31 14:38:01.7	359.910	-0.090	-0.220	-0.350
2020/01/31 14:38:01.8	359.920	-0.120	-0.220	-0.360
2020/01/31 14:38:01.9	359.940	-0.160	-0.230	-0.370
2020/01/31 14:38:02.0	359.950	-0.200	-0.240	-0.380
2020/01/31 14:38:02.1	359.960	-0.240	-0.250	-0.380
2020/01/31 14:38:02.2	359.980	-0.270	-0.250	-0.390
2020/01/31 14:38:02.3	359.990	-0.300	-0.260	-0.400
2020/01/31 14:38:02.4	0.000	-0.340	-0.270	-0.410
2020/01/31 14:38:02.5	0.020	-0.360	-0.270	-0.420
2020/01/31 14:38:02.6	0.030	-0.390	-0.280	-0.430
2020/01/31 14:38:02.7	0.030	-0.420	-0.280	-0.440
2020/01/31 14:38:02.8	0.040	-0.440	-0.290	-0.450
2020/01/31 14:38:02.9	0.060	-0.460	-0.290	-0.460
2020/01/31 14:38:03.0	0.070	-0.480	-0.300	-0.470
2020/01/31 14:38:03.1	0.090	-0.490	-0.300	-0.480
2020/01/31 14:38:03.2	0.100	-0.510	-0.310	-0.490
2020/01/31 14:38:03.3	0.120	-0.520	-0.310	-0.510
2020/01/31 14:38:03.4	0.130	-0.520	-0.310	-0.520
2020/01/31 14:38:03.5	0.150	-0.530	-0.320	-0.530
2020/01/31 14:38:03.6	0.160	-0.530	-0.320	-0.550
2020/01/31 14:38:03.7	0.190	-0.530	-0.330	-0.560
2020/01/31 14:38:03.8	0.210	-0.530	-0.330	-0.580
2020/01/31 14:38:03.9	0.220	-0.520	-0.340	-0.590
2020/01/31 14:38:04.0	0.240	-0.510	-0.340	-0.600
2020/01/31 14:38:04.1	0.250	-0.500	-0.350	-0.610
2020/01/31 14:38:04.2	0.260	-0.490	-0.350	-0.610
2020/01/31 14:38:04.3	0.270	-0.470	-0.360	-0.620
2020/01/31 14:38:04.4	0.280	-0.460	-0.360	-0.620
2020/01/31 14:38:04.5	0.290	-0.440	-0.360	-0.610
2020/01/31 14:38:04.6	0.290	-0.420	-0.360	-0.600
2020/01/31 14:38:04.7	0.300	-0.390	-0.360	-0.600
2020/01/31 14:38:04.8	0.300	-0.370	-0.360	-0.580
2020/01/31 14:38:04.9	0.290	-0.350	-0.360	-0.560
2020/01/31 14:38:05.0	0.290	-0.320	-0.360	-0.540
2020/01/31 14:38:05.1	0.280	-0.290	-0.360	-0.520
2020/01/31 14:38:05.2	0.270	-0.260	-0.360	-0.490
2020/01/31 14:38:05.3	0.260	-0.240	-0.360	-0.460
2020/01/31 14:38:05.4	0.250	-0.210	-0.350	-0.430
2020/01/31 14:38:05.5	0.230	-0.180	-0.350	-0.400
2020/01/31 14:38:05.6	0.220	-0.150	-0.340	-0.360
2020/01/31 14:38:05.7	0.200	-0.120	-0.340	-0.330
2020/01/31 14:38:05.8	0.180	-0.090	-0.340	-0.290
2020/01/31 14:38:05.9	0.170	-0.060	-0.330	-0.250
2020/01/31 14:38:06.0	0.150	-0.020	-0.320	-0.220
2020/01/31 14:38:06.1	0.130	0.010	-0.320	-0.180
2020/01/31 14:38:06.2	0.110	0.040	-0.310	-0.140
2020/01/31 14:38:06.3	0.090	0.070	-0.300	-0.100
2020/01/31 14:38:06.4	0.080	0.100	-0.300	-0.060
2020/01/31 14:38:06.5	0.060	0.130	-0.290	-0.030
2020/01/31 14:38:06.6	0.040	0.160	-0.280	0.010
2020/01/31 14:38:06.7	0.020	0.190	-0.280	0.040
2020/01/31 14:38:06.8	0.010	0.220	-0.270	0.070
2020/01/31 14:38:06.9	359.990	0.250	-0.260	0.110
2020/01/31 14:38:07.0	359.970	0.280	-0.250	0.140
2020/01/31 14:38:07.1	359.960	0.310	-0.240	0.170
2020/01/31 14:38:07.2	359.940	0.330	-0.230	0.210
2020/01/31 14:38:07.3	359.930	0.360	-0.220	0.240
2020/01/31 14:38:07.4	359.910	0.380	-0.210	0.270
2020/01/31 14:38:07.5	359.890	0.400	-0.190	0.290
2020/01/31 14:38:07.6	359.870	0.420	-0.170	0.320
2020/01/31 14:38:07.7	359.830	0.430	-0.150	0.350
2020/01/31 14:38:07.8	359.810	0.440	-0.130	0.370
2020/01/31 14:38:07.9	359.790	0.450	-0.110	0.390
2020/01/31 14:38:08.0	359.760	0.460	-0.080	0.410
2020/01/31 14:38:08.1	359.740	0.460	-0.060	0.420
2020/01/31 14:38:08.2	359.720	0.460	-0.030	0.440
2020/01/31 14:38:08.3	359.690	0.460	-0.000	0.450
2020/01/31 14:38:08.4	359.670	0.450	0.020	0.450
2020/01/31 14:38:08.5	359.640	0.450	0.050	0.460
2020/01/31 14:38:08.6	359.620	0.430	0.070	0.460
2020/01/31 14:38:08.7	359.610	0.420	0.090	0.450
2020/01/31 14:38:08.8	359.590	0.400	0.110	0.450
2020/01/31 14:38:08.9	359.580	0.390	0.130	0.440
2020/01/31 14:38:09.0	359.560	0.370	0.150	0.430
2020/01/31 14:38:09.1	359.550	0.340	0.160	0.410
2020/01/31 14:38:09.2	359.550	0.320	0.160	0.390
2020/01/31 14:38:09.3	359.540	0.300	0.170	0.370
2020/01/31 14:38:09.4	359.540	0.280	0.170	0.340
2020/01/31 14:38:09.5	359.550	0.250	0.160	0.310
2020/01/31 14:38:09.6	359.550	0.230	0.150	0.280
2020/01/31 14:38:09.7	359.560	0.210	0.140	0.240
2020/01/31 14:38:09.8	359.580	0.180	0.120	0.200
2020/01/31 14:38:09.9	359.600	0.160	0.100	0.150
2020/01/31 14:38:10.0	359.620	0.140	0.070	0.100
2020/01/31 14:38:10.1	359.640	0.130	0.040	0.050
2020/01/31 14:38:10.2	359.670	0.110	0.010	0.000
2020/01/31 14:38:10.3	359.700	0.100	-0.030	-0.050
2020/01/31 14:38:10.4	359.730	0.090	-0.070	-0.110
2020/01/31 14:38:10.5	359.760	0.080	-0.110	-0.160
2020/01/31 14:38:10.6	359.800	0.070	-0.150	-0.220
2020/01/31 14:38:10.7	359.830	0.070	-0.190	-0.280
2020/01/31 14:38:10.8	359.870	0.070	-0.240	-0.330
2020/01/31 14:38:10.9	359.900	0.070	-0.280	-0.380
2020/01/31 14:38:11.0	359.930	0.070	-0.330	-0.430
2020/01/31 14:38:11.1	359.970	0.080	-0.370	-0.470
2020/01/31 14:38:11.2	0.000	0.090	-0.410	-0.510
2020/01/31 14:38:11.3	0.020	0.100	-0.450	-0.540
2020/01/31 14:38:11.4	0.050	0.110	-0.480	-0.570
2020/01/31 14:38:11.5	0.070	0.120	-0.520	-0.600
2020/01/31 14:38:11.6	0.090	0.130	-0.540	-0.620
2020/01/31 14:38:11.7	0.110	0.150	-0.570	-0.630
2020/01/31 14:38:11.8	0.120	0.160	-0.590	-0.640
2020/01/31 14:38:11.9	0.130	0.170	-0.610	-0.650
2020/01/31 14:38:12.0	0.140	0.180	-0.620	-0.650
2020/01/31 14:38:12.1	0.150	0.190	-0.620	-0.650
2020/01/31 14:38:12.2	0.150	0.200	-0.630	-0.640
2020/01/31 14:38:12.3	0.150	0.200	-0.620	-0.640
2020/01/31 14:38:12.4	0.150	0.210	-0.620	-0.630
2020/01/31 14:38:12.5	0.140	0.200	-0.610	-0.620
2020/01/31 14:38:12.6	0.140	0.200	-0.600	-0.600
2020/01/31 14:38:12.7	0.120	0.190	-0.580	-0.590
2020/01/31 14:38:12.8	0.110	0.180	-0.560	-0.570
2020/01/31 14:38:12.9	0.100	0.170	-0.540	-0.560
2020/01/31 14:38:13.0	0.090	0.150	-0.520	-0.550
2020/01/31 14:38:13.1	0.070	0.130	-0.500	-0.530
2020/01/31 14:38:13.2	0.060	0.100	-0.470	-0.520
2020/01/31 14:38:13.3	0.040	0.080	-0.450	-0.510
2020/01/31 14:38:13.4	0.030	0.040	-0.420	-0.500
2020/01/31 14:38:13.5	0.010	0.010	-0.400	-0.500
2020/01/31 14:38:13.6	0.000	-0.030	-0.370	-0.490
2020/01/31 14:38:13.7	359.980	-0.070	-0.350	-0.490
2020/01/31 14:38:13.8	359.960	-0.110	-0.330	-0.490
2020/01/31 14:38:13.9	359.950	-0.150	-0.310	-0.500
2020/01/31 14:38:14.0	359.940	-0.200	-0.290	-0.500
2020/01/31 14:38:14.1	359.920	-0.240	-0.270	-0.510
2020/01/31 14:38:14.2	359.910	-0.290	-0.260	-0.520
2020/01/31 14:38:14.3	359.900	-0.340	-0.250	-0.530
2020/01/31 14:38:14.4	359.900	-0.380	-0.240	-0.540
2020/01/31 14:38:14.5	359.890	-0.430	-0.230	-0.560
2020/01/31 14:38:14.6	359.880	-0.470	-0.220	-0.580
2020/01/31 14:38:14.7	359.890	-0.510	-0.210	-0.600
2020/01/31 14:38:14.8	359.880	-0.550	-0.210	-0.620
2020/01/31 14:38:14.9	359.880	-0.590	-0.210	-0.640
2020/01/31 14:38:15.0	359.880	-0.630	-0.210	-0.670
2020/01/31 14:38:15.1	359.880	-0.660	-0.210	-0.690
2020/01/31 14:38:15.2	359.890	-0.680	-0.210	-0.720
2020/01/31 14:38:15.3	359.890	-0.710	-0.210	-0.750
2020/01/31 14:38:15.4	359.890	-0.720	-0.220	-0.770
2020/01/31 14:38:15.5	359.900	-0.740	-0.220	-0.800
2020/01/31 14:38:15.6	359.900	-0.750	-0.220	-0.820
2020/01/31 14:38:15.7	359.900	-0.750	-0.210	-0.850
2020/01/31 14:38:15.8	359.910	-0.750	-0.210	-0.870
2020/01/31 14:38:15.9	359.920	-0.740	-0.210	-0.880
2020/01/31 14:38:16.0	359.920	-0.730	-0.210	-0.890
2020/01/31 14:38:16.1	359.930	-0.710	-0.200	-0.900
2020/01/31 14:38:16.2	359.940	-0.690	-0.190	-0.900
2020/01/31 14:38:16.3	359.940	-0.660	-0.180	-0.900
2020/01/31 14:38:16.4	359.950	-0.630	-0.170	-0.900
2020/01/31 14:38:16.5	359.950	-0.590	-0.160	-0.890
2020/01/31 14:38:16.6	359.960	-0.550	-0.150	-0.870
2020/01/31 14:38:16.7	359.950	-0.510	-0.140	-0.850
2020/01/31 14:38:16.8	359.950	-0.460	-0.120	-0.820
2020/01/31 14:38:16.9	359.950	-0.410	-0.110	-0.790
2020/01/31 14:38:17.0	359.950	-0.360	-0.100	-0.760
2020/01/31 14:38:17.1	359.950	-0.310	-0.080	-0.720
2020/01/31 14:38:17.2	359.950	-0.250	-0.070	-0.670
2020/01/31 14:38:17.3	359.940	-0.200	-0.060	-0.620
2020/01/31 14:38:17.4	359.940	-0.140	-0.040	-0.570
2020/01/31 14:38:17.5	359.930	-0.090	-0.030	-0.520
2020/01/31 14:38:17.6	359.920	-0.030	-0.020	-0.460
2020/01/31 14:38:17.7	359.920	0.020	-0.010	-0.410
2020/01/31 14:38:17.8	359.910	0.070	-0.000	-0.350
2020/01/31 14:38:17.9	359.900	0.120	0.000	-0.300
2020/01/31 14:38:18.0	359.890	0.170	0.010	-0.240
2020/01/31 14:38:18.1	359.870	0.220	0.010	-0.190
2020/01/31 14:38:18.2	359.860	0.260	0.010	-0.140
2020/01/31 14:38:18.3	359.850	0.300	0.010	-0.090
2020/01/31 14:38:18.4	359.840	0.330	0.010	-0.040
2020/01/31 14:38:18.5	359.820	0.360	0.010	0.000
2020/01/31 14:38:18.6	359.810	0.390	0.000	0.050
2020/01/31 14:38:18.7	359.780	0.420	-0.010	0.090
2020/01/31 14:38:18.8	359.770	0.440	-0.020	0.120
2020/01/31 14:38:18.9	359.770	0.460	-0.030	0.160
2020/01/31 14:38:19.0	359.760	0.480	-0.040	0.190
2020/01/31 14:38:19.1	359.750	0.490	-0.060	0.220
2020/01/31 14:38:19.2	359.750	0.500	-0.070	0.240
2020/01/31 14:38:19.3	359.750	0.510	-0.090	0.270
2020/01/31 14:38:19.4	359.750	0.510	-0.110	0.290
2020/01/31 14:38:19.5	359.740	0.510	-0.130	0.310
2020/01/31 14:38:19.6	359.750	0.510	-0.150	0.330
2020/01/31 14:38:19.7	359.750	0.510	-0.160	0.340
2020/01/31 14:38:19.8	359.750	0.500	-0.190	0.350
2020/01/31 14:38:19.9	359.760	0.490	-0.210	0.360
2020/01/31 14:38:20.0	359.760	0.480	-0.230	0.370
2020/01/31 14:38:20.1	359.760	0.470	-0.250	0.380
2020/01/31 14:38:20.2	359.760	0.450	-0.270	0.380
2020/01/31 14:38:20.3	359.760	0.440	-0.290	0.380
2020/01/31 14:38:20.4	359.750	0.420	-0.310	0.380
2020/01/31 14:38:20.5	359.750	0.400	-0.330	0.380
2020/01/31 14:38:20.6	359.750	0.380	-0.350	0.370
2020/01/31 14:38:20.7	359.750	0.360	-0.370	0.360
2020/01/31 14:38:20.8	359.740	0.330	-0.380	0.350
2020/01/31 14:38:20.9	359.730	0.300	-0.400	0.330
2020/01/31 14:38:21.0	359.730	0.280	-0.410	0.310
2020/01/31 14:38:21.1	359.720	0.250	-0.430	0.290
2020/01/31 14:38:21.2	359.710	0.220	-0.440	0.260
2020/01/31 14:38:21.3	359.700	0.190	-0.450	0.230
2020/01/31 14:38:21.4	359.700	0.150	-0.460	0.200
2020/01/31 14:38:21.5	359.690	0.120	-0.470	0.170
2020/01/31 14:38:21.6	359.680	0.080	-0.480	0.130
2020/01/31 14:38:21.7	359.670	0.050	-0.490	0.080
2020/01/31 14:38:21.8	359.670	0.020	-0.490	0.040
2020/01/31 14:38:21.9	359.670	-0.020	-0.500	0.000
2020/01/31 14:38:22.0	359.670	-0.050	-0.510	-0.040
2020/01/31 14:38:22.1	359.670	-0.090	-0.510	-0.080
2020/01/31 14:38:22.2	359.670	-0.120	-0.520	-0.130
2020/01/31 14:38:22.3	359.670	-0.150	-0.530	-0.170
2020/01/31 14:38:22.4	359.680	-0.180	-0.530	-0.210
2020/01/31 14:38:22.5	359.690	-0.210	-0.540	-0.250
2020/01/31 14:38:22.6	359.700	-0.230	-0.550	-0.290
2020/01/31 14:38:22.7	359.720	-0.250	-0.550	-0.330
2020/01/31 14:38:22.8	359.740	-0.270	-0.550	-0.370
2020/01/31 14:38:22.9	359.750	-0.290	-0.560	-0.400
2020/01/31 14:38:23.0	359.770	-0.310	-0.560	-0.430
2020/01/31 14:38:23.1	359.790	-0.320	-0.570	-0.470
2020/01/31 14:38:23.2	359.810	-0.320	-0.570	-0.490
2020/01/31 14:38:23.3	359.830	-0.330	-0.570	-0.520
2020/01/31 14:38:23.4	359.850	-0.330	-0.580	-0.550
2020/01/31 14:38:23.5	359.880	-0.330	-0.580	-0.570
2020/01/31 14:38:23.6	359.910	-0.320	-0.580	-0.600
2020/01/31 14:38:23.7	359.940	-0.310	-0.580	-0.620
2020/01/31 14:38:23.8	359.970	-0.300	-0.580	-0.650
2020/01/31 14:38:23.9	0.000	-0.280	-0.580	-0.670
2020/01/31 14:38:24.0	0.030	-0.260	-0.570	-0.690
2020/01/31 14:38:24.1	0.060	-0.240	-0.570	-0.710
2020/01/31 14:38:24.2	0.090	-0.210	-0.560	-0.730
2020/01/31 14:38:24.3	0.130	-0.180	-0.550	-0.740
2020/01/31 14:38:24.4	0.160	-0.150	-0.540	-0.760
2020/01/31 14:38:24.5	0.190	-0.120	-0.530	-0.770
2020/01/31 14:38:24.6	0.220	-0.080	-0.510	-0.770
2020/01/31 14:38:24.7	0.240	-0.040	-0.490	-0.780
2020/01/31 14:38:24.8	0.260	0.000	-0.470	-0.780
2020/01/31 14:38:24.9	0.290	0.040	-0.440	-0.770
2020/01/31 14:38:25.0	0.310	0.080	-0.410	-0.760
2020/01/31 14:38:25.1	0.330	0.120	-0.380	-0.750
2020/01/31 14:38:25.2	0.350	0.160	-0.350	-0.730
2020/01/31 14:38:25.3	0.360	0.200	-0.310	-0.710
2020/01/31 14:38:25.4	0.370	0.240	-0.270	-0.680
2020/01/31 14:38:25.5	0.380	0.280	-0.230	-0.650
2020/01/31 14:38:25.6	0.380	0.310	-0.190	-0.620
2020/01/31 14:38:25.7	0.380	0.340	-0.150	-0.580
2020/01/31 14:38:25.8	0.380	0.370	-0.100	-0.540
2020/01/31 14:38:25.9	0.380	0.390	-0.050	-0.500
2020/01/31 14:38:26.0	0.370	0.410	-0.010	-0.460
2020/01/31 14:38:26.1	0.370	0.430	0.040	-0.420
2020/01/31 14:38:26.2	0.360	0.440	0.080	-0.390
2020/01/31 14:38:26.3	0.340	0.440	0.130	-0.350
2020/01/31 14:38:26.4	0.330	0.440	0.170	-0.310
2020/01/31 14:38:26.5	0.320	0.440	0.210	-0.280
2020/01/31 14:38:26.6	0.300	0.430	0.250	-0.250
2020/01/31 14:38:26.7	0.290	0.420	0.280	-0.220
2020/01/31 14:38:26.8	0.270	0.400	0.310	-0.190
2020/01/31 14:38:26.9	0.250	0.370	0.340	-0.170
2020/01/31 14:38:27.0	0.230	0.350	0.360	-0.150
2020/01/31 14:38:27.1	0.220	0.310	0.380	-0.130
2020/01/31 14:38:27.2	0.200	0.280	0.400	-0.120
2020/01/31 14:38:27.3	0.180	0.240	0.410	-0.110
2020/01/31 14:38:27.4	0.160	0.190	0.420	-0.100
2020/01/31 14:38:27.5	0.140	0.150	0.420	-0.100
2020/01/31 14:38:27.6	0.120	0.100	0.420	-0.100
2020/01/31 14:38:27.7	0.110	0.050	0.410	-0.100
2020/01/31 14:38:27.8	0.090	-0.000	0.400	-0.100
2020/01/31 14:38:27.9	0.080	-0.060	0.380	-0.120
2020/01/31 14:38:28.0	0.060	-0.110	0.360	-0.130
2020/01/31 14:38:28.1	0.040	-0.160	0.340	-0.150
2020/01/31 14:38:28.2	0.020	-0.210	0.310	-0.170
2020/01/31 14:38:28.3	0.010	-0.260	0.280	-0.200
2020/01/31 14:38:28.4	359.990	-0.310	0.250	-0.230
2020/01/31 14:38:28.5	359.970	-0.360	0.220	-0.250
2020/01/31 14:38:28.6	359.960	-0.400	0.180	-0.280
2020/01/31 14:38:28.7	359.940	-0.440	0.150	-0.320
2020/01/31 14:38:28.8	359.930	-0.480	0.110	-0.350
2020/01/31 14:38:28.9	359.920	-0.510	0.070	-0.380
2020/01/31 14:38:29.0	359.900	-0.540	0.030	-0.410
2020/01/31 14:38:29.1	359.890	-0.560	-0.010	-0.440
2020/01/31 14:38:29.2	359.880	-0.580	-0.050	-0.470
2020/01/31 14:38:29.3	359.870	-0.590	-0.090	-0.490
2020/01/31 14:38:29.4	359.860	-0.590	-0.130	-0.510
2020/01/31 14:38:29.5	359.860	-0.590	-0.170	-0.540
2020/01/31 14:38:29.6	359.850	-0.590	-0.210	-0.560
2020/01/31 14:38:29.7	359.850	-0.580	-0.250	-0.570
2020/01/31 14:38:29.8	359.840	-0.560	-0.290	-0.590
2020/01/31 14:38:29.9	359.840	-0.540	-0.330	-0.600
2020/01/31 14:38:30.0	359.840	-0.510	-0.370	-0.610
2020/01/31 14:38:30.1	359.830	-0.480	-0.400	-0.610
2020/01/31 14:38:30.2	359.830	-0.450	-0.440	-0.610
2020/01/31 14:38:30.3	359.840	-0.410	-0.480	-0.610
2020/01/31 14:38:30.4	359.840	-0.360	-0.510	-0.610
2020/01/31 14:38:30.5	359.840	-0.320	-0.540	-0.600
2020/01/31 14:38:30.6	359.840	-0.270	-0.580	-0.590
2020/01/31 14:38:30.7	359.840	-0.220	-0.600	-0.580
2020/01/31 14:38:30.8	359.840	-0.170	-0.630	-0.570
2020/01/31 14:38:30.9	359.850	-0.120	-0.660	-0.550
2020/01/31 14:38:31.0	359.850	-0.070	-0.680	-0.530
2020/01/31 14:38:31.1	359.850	-0.020	-0.700	-0.510
2020/01/31 14:38:31.2	359.860	0.030	-0.720	-0.480
2020/01/31 14:38:31.3	359.860	0.080	-0.740	-0.460
2020/01/31 14:38:31.4	359.870	0.130	-0.750	-0.430
2020/01/31 14:38:31.5	359.870	0.170	-0.760	-0.400
2020/01/31 14:38:31.6	359.870	0.210	-0.760	-0.370
2020/01/31 14:38:31.7	359.880	0.250	-0.770	-0.340
2020/01/31 14:38:31.8	359.890	0.290	-0.770	-0.320
2020/01/31 14:38:31.9	359.890	0.330	-0.760	-0.290
2020/01/31 14:38:32.0	359.900	0.360	-0.760	-0.260
2020/01/31 14:38:32.1	359.900	0.380	-0.750	-0.230
2020/01/31 14:38:32.2	359.910	0.410	-0.730	-0.200
2020/01/31 14:38:32.3	359.910	0.430	-0.720	-0.170
2020/01/31 14:38:32.4	359.920	0.450	-0.700	-0.150
2020/01/31 14:38:32.5	359.930	0.460	-0.680	-0.120
2020/01/31 14:38:32.6	359.940	0.470	-0.660	-0.100
2020/01/31 14:38:32.7	359.940	0.470	-0.640	-0.080
2020/01/31 14:38:32.8	359.940	0.470	-0.620	-0.060
2020/01/31 14:38:32.9	359.950	0.470	-0.600	-0.040
2020/01/31 14:38:33.0	359.970	0.470	-0.580	-0.020
2020/01/31 14:38:33.1	359.980	0.460	-0.560	-0.010
2020/01/31 14:38:33.2	359.990	0.450	-0.540	-0.000
2020/01/31 14:38:33.3	0.010	0.440	-0.520	0.000
2020/01/31 14:38:33.4	0.030	0.420	-0.500	0.000
2020/01/31 14:38:33.5	0.040	0.400	-0.480	0.000
2020/01/31 14:38:33.6	0.060	0.390	-0.470	-0.000
2020/01/31 14:38:33.7	0.080	0.360	-0.450	-0.020
2020/01/31 14:38:33.8	0.110	0.340	-0.440	-0.030
2020/01/31 14:38:33.9	0.130	0.320	-0.430	-0.050
2020/01/31 14:38:34.0	0.150	0.290	-0.410	-0.070
2020/01/31 14:38:34.1	0.180	0.260	-0.400	-0.090
2020/01/31 14:38:34.2	0.200	0.230	-0.390	-0.110
2020/01/31 14:38:34.3	0.230	0.200	-0.380	-0.140
2020/01/31 14:38:34.4	0.250	0.170	-0.370	-0.160
2020/01/31 14:38:34.5	0.270	0.140	-0.350	-0.190
2020/01/31 14:38:34.6	0.290	0.110	-0.340	-0.220
2020/01/31 14:38:34.7	0.310	0.080	-0.320	-0.250
2020/01/31 14:38:34.8	0.330	0.050	-0.310	-0.280
2020/01/31 14:38:34.9	0.350	0.020	-0.290	-0.300
2020/01/31 14:38:35.0	0.360	-0.010	-0.270	-0.330
2020/01/31 14:38:35.1	0.370	-0.050	-0.250	-0.350
2020/01/31 14:38:35.2	0.380	-0.080	-0.230	-0.370
2020/01/31 14:38:35.3	0.390	-0.110	-0.200	-0.390
2020/01/31 14:38:35.4	0.400	-0.140	-0.180	-0.400
2020/01/31 14:38:35.5	0.400	-0.170	-0.150	-0.420
2020/01/31 14:38:35.6	0.410	-0.190	-0.120	-0.430
2020/01/31 14:38:35.7	0.400	-0.220	-0.090	-0.450
2020/01/31 14:38:35.8	0.400	-0.250	-0.050	-0.460
2020/01/31 14:38:35.9	0.390	-0.270	-0.020	-0.470
2020/01/31 14:38:36.0	0.390	-0.300	0.010	-0.480
2020/01/31 14:38:36.1	0.390	-0.320	0.040	-0.480
2020/01/31 14:38:36.2	0.380	-0.340	0.070	-0.490
2020/01/31 14:38:36.3	0.380	-0.360	0.100	-0.500
2020/01/31 14:38:36.4	0.370	-0.380	0.130	-0.500
2020/01/31 14:38:36.5	0.370	-0.400	0.160	-0.510
2020/01/31 14:38:36.6	0.360	-0.410	0.180	-0.510
2020/01/31 14:38:36.7	0.340	-0.420	0.200	-0.520
2020/01/31 14:38:36.8	0.340	-0.430	0.220	-0.530
2020/01/31 14:38:36.9	0.330	-0.440	0.240	-0.530
2020/01/31 14:38:37.0	0.330	-0.440	0.260	-0.530
2020/01/31 14:38:37.1	0.320	-0.450	0.270	-0.530
2020/01/31 14:38:37.2	0.320	-0.450	0.280	-0.540
2020/01/31 14:38:37.3	0.310	-0.450	0.290	-0.540
2020/01/31 14:38:37.4	0.300	-0.440	0.290	-0.540
2020/01/31 14:38:37.5	0.300	-0.440	0.300	-0.530
2020/01/31 14:38:37.6	0.290	-0.430	0.300	-0.530
2020/01/31 14:38:37.7	0.270	-0.420	0.290	-0.530
2020/01/31 14:38:37.8	0.260	-0.410	0.290	-0.520
2020/01/31 14:38:37.9	0.260	-0.390	0.280	-0.510
2020/01/31 14:38:38.0	0.250	-0.380	0.270	-0.510
2020/01/31 14:38:38.1	0.240	-0.360	0.250	-0.490
2020/01/31 14:38:38.2	0.220	-0.340	0.240	-0.480
2020/01/31 14:38:38.3	0.210	-0.320	0.220	-0.460
2020/01/31 14:38:38.4	0.190	-0.300	0.200	-0.450
2020/01/31 14:38:38.5	0.180	-0.280	0.180	-0.420
2020/01/31 14:38:38.6	0.160	-0.250	0.150	-0.400
2020/01/31 14:38:38.7	0.150	-0.230	0.130	-0.380
2020/01/31 14:38:38.8	0.130	-0.210	0.100	-0.350
2020/01/31 14:38:38.9	0.110	-0.180	0.070	-0.310
2020/01/31 14:38:39.0	0.080	-0.150	0.040	-0.280
2020/01/31 14:38:39.1	0.050	-0.130	0.020	-0.240
2020/01/31 14:38:39.2	0.030	-0.100	-0.010	-0.210
2020/01/31 14:38:39.3	0.000	-0.070	-0.050	-0.170
2020/01/31 14:38:39.4	359.970	-0.040	-0.080	-0.130
2020/01/31 14:38:39.5	359.940	-0.010	-0.110	-0.090
2020/01/31 14:38:39.6	359.910	0.020	-0.140	-0.050
2020/01/31 14:38:39.7	359.880	0.050	-0.170	-0.010
2020/01/31 14:38:39.8	359.850	0.080	-0.210	0.030
2020/01/31 14:38:39.9	359.810	0.110	-0.240	0.070
2020/01/31 14:38:40.0	359.780	0.140	-0.270	0.110
2020/01/31 14:38:40.1	359.760	0.170	-0.300	0.150
2020/01/31 14:38:40.2	359.730	0.200	-0.340	0.190
2020/01/31 14:38:40.3	359.700	0.230	-0.370	0.230
2020/01/31 14:38:40.4	359.670	0.260	-0.400	0.260
2020/01/31 14:38:40.5	359.650	0.290	-0.430	0.300
2020/01/31 14:38:40.6	359.630	0.320	-0.460	0.330
2020/01/31 14:38:40.7	359.590	0.350	-0.490	0.350
2020/01/31 14:38:40.8	359.570	0.380	-0.520	0.370
2020/01/31 14:38:40.9	359.550	0.410	-0.550	0.390
2020/01/31 14:38:41.0	359.540	0.440	-0.580	0.400
2020/01/31 14:38:41.1	359.540	0.470	-0.610	0.410
2020/01/31 14:38:41.2	359.530	0.500	-0.640	0.420
2020/01/31 14:38:41.3	359.530	0.530	-0.670	0.420
2020/01/31 14:38:41.4	359.540	0.560	-0.700	0.420
2020/01/31 14:38:41.5	359.550	0.580	-0.720	0.410
2020/01/31 14:38:41.6	359.560	0.600	-0.750	0.390
2020/01/31 14:38:41.7	359.580	0.630	-0.780	0.370
2020/01/31 14:38:41.8	359.590	0.650	-0.800	0.350
2020/01/31 14:38:41.9	359.610	0.660	-0.820	0.320
2020/01/31 14:38:42.0	359.640	0.680	-0.840	0.290
2020/01/31 14:38:42.1	359.660	0.690	-0.860	0.260
2020/01/31 14:38:42.2	359.690	0.700	-0.870	0.220
2020/01/31 14:38:42.3	359.720	0.700	-0.880	0.180
2020/01/31 14:38:42.4	359.750	0.710	-0.890	0.130
2020/01/31 14:38:42.5	359.780	0.700	-0.890	0.090
2020/01/31 14:38:42.6	359.810	0.700	-0.890	0.040
2020/01/31 14:38:42.7	359.840	0.690	-0.890	-0.000
2020/01/31 14:38:42.8	359.870	0.680	-0.880	-0.050
2020/01/31 14:38:42.9	359.900	0.660	-0.870	-0.090
2020/01/31 14:38:43.0	359.930	0.640	-0.850	-0.140
2020/01/31 14:38:43.1	359.960	0.620	-0.830	-0.180
2020/01/31 14:38:43.2	359.990	0.590	-0.810	-0.230
2020/01/31 14:38:43.3	0.010	0.560	-0.780	-0.270
2020/01/31 14:38:43.4	0.040	0.520	-0.750	-0.310
2020/01/31 14:38:43.5	0.060	0.490	-0.720	-0.350
2020/01/31 14:38:43.6	0.090	0.450	-0.680	-0.390
2020/01/31 14:38:43.7	0.120	0.400	-0.640	-0.440
2020/01/31 14:38:43.8	0.140	0.360	-0.600	-0.480
2020/01/31 14:38:43.9	0.170	0.310	-0.550	-0.510
2020/01/31 14:38:44.0	0.190	0.260	-0.510	-0.550
2020/01/31 14:38:44.1	0.210	0.210	-0.460	-0.580
2020/01/31 14:38:44.2	0.230	0.160	-0.410	-0.620
2020/01/31 14:38:44.3	0.250	0.100	-0.360	-0.650
2020/01/31 14:38:44.4	0.260	0.050	-0.310	-0.680
2020/01/31 14:38:44.5	0.280	-0.000	-0.260	-0.710
2020/01/31 14:38:44.6	0.300	-0.060	-0.210	-0.730
2020/01/31 14:38:44.7	0.320	-0.110	-0.150	-0.750
2020/01/31 14:38:44.8	0.330	-0.160	-0.100	-0.770
2020/01/31 14:38:44.9	0.340	-0.220	-0.050	-0.790
2020/01/31 14:38:45.0	0.350	-0.270	-0.000	-0.800
2020/01/31 14:38:45.1	0.360	-0.320	0.050	-0.810
2020/01/31 14:38:45.2	0.360	-0.360	0.090	-0.820
2020/01/31 14:38:45.3	0.370	-0.410	0.140	-0.820
2020/01/31 14:38:45.4	0.370	-0.450	0.180	-0.820
2020/01/31 14:38:45.5	0.370	-0.490	0.230	-0.810
2020/01/31 14:38:45.6	0.370	-0.530	0.270	-0.800
2020/01/31 14:38:45.7	0.350	-0.560	0.310	-0.790
2020/01/31 14:38:45.8	0.340	-0.590	0.340	-0.770
2020/01/31 14:38:45.9	0.340	-0.620	0.370	-0.750
2020/01/31 14:38:46.0	0.330	-0.640	0.400	-0.730
2020/01/31 14:38:46.1	0.320	-0.660	0.430	-0.700
2020/01/31 14:38:46.2	0.310	-0.680	0.460	-0.680
2020/01/31 14:38:46.3	0.300	-0.690	0.480	-0.640
2020/01/31 14:38:46.4	0.280	-0.700	0.500	-0.610
2020/01/31 14:38:46.5	0.270	-0.700	0.510	-0.580
2020/01/31 14:38:46.6	0.260	-0.710	0.520	-0.550
2020/01/31 14:38:46.7	0.230	-0.700	0.530	-0.520
2020/01/31 14:38:46.8	0.220	-0.700	0.530	-0.490
2020/01/31 14:38:46.9	0.200	-0.690	0.530	-0.460
2020/01/31 14:38:47.0	0.190	-0.670	0.520	-0.420
2020/01/31 14:38:47.1	0.180	-0.660	0.510	-0.390
2020/01/31 14:38:47.2	0.170	-0.640	0.500	-0.360
2020/01/31 14:38:47.3	0.160	-0.610	0.480	-0.330
2020/01/31 14:38:47.4	0.150	-0.590	0.460	-0.300
2020/01/31 14:38:47.5	0.140	-0.560	0.430	-0.270
2020/01/31 14:38:47.6	0.130	-0.530	0.400	-0.240
2020/01/31 14:38:47.7	0.130	-0.500	0.370	-0.200
2020/01/31 14:38:47.8	0.120	-0.460	0.330	-0.170
2020/01/31 14:38:47.9	0.110	-0.430	0.290	-0.140
2020/01/31 14:38:48.0	0.090	-0.390	0.250	-0.110
2020/01/31 14:38:48.1	0.080	-0.360	0.200	-0.070
2020/01/31 14:38:48.2	0.060	-0.320	0.150	-0.040
2020/01/31 14:38:48.3	0.040	-0.280	0.110	-0.010
2020/01/31 14:38:48.4	0.020	-0.250	0.050	0.020
2020/01/31 14:38:48.5	0.000	-0.210	0.000	0.050
2020/01/31 14:38:48.6	359.980	-0.180	-0.050	0.070
2020/01/31 14:38:48.7	359.960	-0.140	-0.100	0.100
2020/01/31 14:38:48.8	359.950	-0.110	-0.160	0.120
2020/01/31 14:38:48.9	359.930	-0.080	-0.210	0.140
2020/01/31 14:38:49.0	359.910	-0.050	-0.260	0.160
2020/01/31 14:38:49.1	359.900	-0.020	-0.320	0.170
2020/01/31 14:38:49.2	359.880	0.010	-0.370	0.180
2020/01/31 14:38:49.3	359.870	0.040	-0.410	0.190
2020/01/31 14:38:49.4	359.850	0.060	-0.460	0.200
2020/01/31 14:38:49.5	359.840	0.090	-0.500	0.210
2020/01/31 14:38:49.6	359.830	0.110	-0.550	0.210
2020/01/31 14:38:49.7	359.840	0.130	-0.580	0.200
2020/01/31 14:38:49.8	359.840	0.150	-0.620	0.200
2020/01/31 14:38:49.9	359.840	0.170	-0.650	0.190
2020/01/31 14:38:50.0	359.840	0.190	-0.680	0.180
2020/01/31 14:38:50.1	359.850	0.210	-0.710	0.170
2020/01/31 14:38:50.2	359.860	0.230	-0.740	0.150
2020/01/31 14:38:50.3	359.870	0.250	-0.760	0.140
2020/01/31 14:38:50.4	359.880	0.260	-0.780	0.120
2020/01/31 14:38:50.5	359.900	0.280	-0.800	0.100
2020/01/31 14:38:50.6	359.920	0.300	-0.820	0.080
2020/01/31 14:38:50.7	359.930	0.310	-0.830	0.060
2020/01/31 14:38:50.8	359.950	0.320	-0.830	0.040
2020/01/31 14:38:50.9	359.980	0.340	-0.840	0.020
2020/01/31 14:38:51.0	0.000	0.350	-0.840	-0.000
2020/01/31 14:38:51.1	0.030	0.360	-0.830	-0.020
2020/01/31 14:38:51.2	0.060	0.370	-0.830	-0.030
2020/01/31 14:38:51.3	0.090	0.380	-0.820	-0.050
2020/01/31 14:38:51.4	0.120	0.390	-0.800	-0.060
2020/01/31 14:38:51.5	0.150	0.400	-0.790	-0.080
2020/01/31 14:38:51.6	0.180	0.410	-0.770	-0.090
2020/01/31 14:38:51.7	0.200	0.420	-0.740	-0.100
2020/01/31 14:38:51.8	0.230	0.420	-0.720	-0.110
2020/01/31 14:38:51.9	0.260	0.430	-0.690	-0.120
2020/01/31 14:38:52.0	0.290	0.430	-0.670	-0.130
2020/01/31 14:38:52.1	0.320	0.430	-0.640	-0.140
2020/01/31 14:38:52.2	0.340	0.430	-0.610	-0.150
2020/01/31 14:38:52.3	0.370	0.430	-0.570	-0.150
2020/01/31 14:38:52.4	0.390	0.430	-0.540	-0.160
2020/01/31 14:38:52.5	0.420	0.430	-0.510	-0.170
2020/01/31 14:38:52.6	0.440	0.430	-0.470	-0.170
2020/01/31 14:38:52.7	0.460	0.420	-0.440	-0.180
2020/01/31 14:38:52.8	0.480	0.420	-0.410	-0.180
2020/01/31 14:38:52.9	0.500	0.410	-0.380	-0.180
2020/01/31 14:38:53.0	0.520	0.410	-0.340	-0.180
2020/01/31 14:38:53.1	0.530	0.400	-0.310	-0.180
2020/01/31 14:38:53.2	0.550	0.390	-0.280	-0.180
2020/01/31 14:38:53.3	0.560	0.380	-0.260	-0.180
2020/01/31 14:38:53.4	0.570	0.370	-0.230	-0.180
2020/01/31 14:38:53.5	0.580	0.360	-0.210	-0.170
2020/01/31 14:38:53.6	0.590	0.350	-0.190	-0.170
2020/01/31 14:38:53.7	0.600	0.340	-0.160	-0.170
2020/01/31 14:38:53.8	0.600	0.320	-0.150	-0.170
2020/01/31 14:38:53.9	0.610	0.310	-0.130	-0.160
2020/01/31 14:38:54.0	0.620	0.290	-0.120	-0.160
2020/01/31 14:38:54.1	0.620	0.270	-0.120	-0.170
2020/01/31 14:38:54.2	0.630	0.260	-0.110	-0.170
2020/01/31 14:38:54.3	0.640	0.240	-0.110	-0.180
2020/01/31 14:38:54.4	0.640	0.220	-0.110	-0.190
2020/01/31 14:38:54.5	0.650	0.190	-0.120	-0.200
2020/01/31 14:38:54.6	0.660	0.170	-0.120	-0.220
2020/01/31 14:38:54.7	0.660	0.150	-0.130	-0.240
2020/01/31 14:38:54.8	0.670	0.120	-0.140	-0.260
2020/01/31 14:38:54.9	0.680	0.090	-0.150	-0.290
2020/01/31 14:38:55.0	0.690	0.060	-0.160	-0.310
2020/01/31 14:38:55.1	0.700	0.040	-0.180	-0.350
2020/01/31 14:38:55.2	0.710	0.010	-0.190	-0.380
2020/01/31 14:38:55.3	0.720	-0.030	-0.200	-0.420
2020/01/31 14:38:55.4	0.720	-0.060	-0.210	-0.460
2020/01/31 14:38:55.5	0.730	-0.090	-0.220	-0.500
2020/01/31 14:38:55.6	0.730	-0.120	-0.230	-0.540
2020/01/31 14:38:55.7	0.740	-0.160	-0.230	-0.580
2020/01/31 14:38:55.8	0.740	-0.190	-0.230	-0.620
2020/01/31 14:38:55.9	0.730	-0.220	-0.240	-0.660
2020/01/31 14:38:56.0	0.730	-0.260	-0.230	-0.700
2020/01/31 14:38:56.1	0.730	-0.290	-0.230	-0.740
2020/01/31 14:38:56.2	0.720	-0.320	-0.220	-0.770
2020/01/31 14:38:56.3	0.720	-0.350	-0.210	-0.810
2020/01/31 14:38:56.4	0.710	-0.380	-0.200	-0.840
2020/01/31 14:38:56.5	0.710	-0.410	-0.180	-0.870
2020/01/31 14:38:56.6	0.700	-0.430	-0.160	-0.890
2020/01/31 14:38:56.7	0.700	-0.460	-0.140	-0.920
2020/01/31 14:38:56.8	0.690	-0.480	-0.110	-0.940
2020/01/31 14:38:56.9	0.690	-0.500	-0.090	-0.950
2020/01/31 14:38:57.0	0.680	-0.510	-0.060	-0.960
2020/01/31 14:38:57.1	0.680	-0.530	-0.020	-0.970
2020/01/31 14:38:57.2	0.680	-0.540	0.010	-0.970
2020/01/31 14:38:57.3	0.670	-0.540	0.040	-0.970
2020/01/31 14:38:57.4	0.670	-0.540	0.080	-0.960
2020/01/31 14:38:57.5	0.670	-0.540	0.120	-0.950
2020/01/31 14:38:57.6	0.670	-0.540	0.150	-0.930
2020/01/31 14:38:57.7	0.670	-0.530	0.190	-0.910
2020/01/31 14:38:57.8	0.670	-0.520	0.230	-0.890
2020/01/31 14:38:57.9	0.670	-0.510	0.260	-0.870
2020/01/31 14:38:58.0	0.670	-0.490	0.290	-0.840
2020/01/31 14:38:58.1	0.660	-0.470	0.320	-0.810
2020/01/31 14:38:58.2	0.660	-0.450	0.350	-0.770
2020/01/31 14:38:58.3	0.660	-0.420	0.380	-0.740
2020/01/31 14:38:58.4	0.650	-0.390	0.400	-0.700
2020/01/31 14:38:58.5	0.650	-0.360	0.420	-0.660
2020/01/31 14:38:58.6	0.640	-0.330	0.430	-0.630
2020/01/31 14:38:58.7	0.650	-0.300	0.440	-0.590
2020/01/31 14:38:58.8	0.640	-0.260	0.440	-0.550
2020/01/31 14:38:58.9	0.640	-0.230	0.430	-0.520
2020/01/31 14:38:59.0	0.630	-0.190	0.420	-0.480
2020/01/31 14:38:59.1	0.630	-0.150	0.400	-0.450
2020/01/31 14:38:59.2	0.620	-0.110	0.380	-0.420
2020/01/31 14:38:59.3	0.620	-0.070	0.350	-0.390
2020/01/31 14:38:59.4	0.610	-0.040	0.310	-0.360
2020/01/31 14:38:59.5	0.610	0.000	0.260	-0.340
2020/01/31 14:38:59.6	0.600	0.040	0.220	-0.320
2020/01/31 14:38:59.7	0.610	0.070	0.160	-0.290
2020/01/31 14:38:59.8	0.600	0.110	0.100	-0.280
2020/01/31 14:38:59.9	0.600	0.140	0.040	-0.260
2020/01/31 14:39:00.0	0.590	0.170	-0.030	-0.250
2020/01/31 14:39:00.1	0.590	0.200	-0.100	-0.240
2020/01/31 14:39:00.2	0.580	0.230	-0.170	-0.230
2020/01/31 14:39:00.3	0.580	0.250	-0.250	-0.220
2020/01/31 14:39:00.4	0.570	0.270	-0.330	-0.220
2020/01/31 14:39:00.5	0.570	0.290	-0.410	-0.220
2020/01/31 14:39:00.6	0.570	0.310	-0.480	-0.230
2020/01/31 14:39:00.7	0.560	0.330	-0.560	-0.230
2020/01/31 14:39:00.8	0.550	0.340	-0.630	-0.240
2020/01/31 14:39:00.9	0.550	0.350	-0.700	-0.260
2020/01/31 14:39:01.0	0.550	0.360	-0.770	-0.270
2020/01/31 14:39:01.1	0.550	0.360	-0.840	-0.280
2020/01/31 14:39:01.2	0.550	0.370	-0.890	-0.300
2020/01/31 14:39:01.3	0.550	0.370	-0.950	-0.320
2020/01/31 14:39:01.4	0.560	0.360	-0.990	-0.340
2020/01/31 14:39:01.5	0.560	0.360	-1.040	-0.360
2020/01/31 14:39:01.6	0.560	0.350	-1.070	-0.380
2020/01/31 14:39:01.7	0.570	0.340	-1.090	-0.410
2020/01/31 14:39:01.8	0.570	0.330	-1.120	-0.430
2020/01/31 14:39:01.9	0.580	0.320	-1.130	-0.450
2020/01/31 14:39:02.0	0.590	0.310	-1.140	-0.470
2020/01/31 14:39:02.1	0.600	0.290	-1.140	-0.490
2020/01/31 14:39:02.2	0.610	0.280	-1.130	-0.510
2020/01/31 14:39:02.3	0.620	0.260	-1.120	-0.520
2020/01/31 14:39:02.4	0.630	0.240	-1.100	-0.540
2020/01/31 14:39:02.5	0.640	0.230	-1.080	-0.560
2020/01/31 14:39:02.6	0.660	0.210	-1.050	-0.580
2020/01/31 14:39:02.7	0.670	0.190	-1.010	-0.600
2020/01/31 14:39:02.8	0.690	0.170	-0.980	-0.610
2020/01/31 14:39:02.9	0.710	0.150	-0.940	-0.630
2020/01/31 14:39:03.0	0.730	0.130	-0.890	-0.650
2020/01/31 14:39:03.1	0.740	0.120	-0.840	-0.670
2020/01/31 14:39:03.2	0.760	0.100	-0.790	-0.680
2020/01/31 14:39:03.3	0.780	0.080	-0.740	-0.700
2020/01/31 14:39:03.4	0.800	0.060	-0.690	-0.720
2020/01/31 14:39:03.5	0.820	0.050	-0.630	-0.730
2020/01/31 14:39:03.6	0.840	0.030	-0.580	-0.750
2020/01/31 14:39:03.7	0.850	0.010	-0.520	-0.760
2020/01/31 14:39:03.8	0.870	-0.000	-0.470	-0.780
2020/01/31 14:39:03.9	0.890	-0.020	-0.420	-0.790
2020/01/31 14:39:04.0	0.910	-0.030	-0.360	-0.800
2020/01/31 14:39:04.1	0.930	-0.050	-0.310	-0.810
2020/01/31 14:39:04.2	0.940	-0.060	-0.260	-0.810
2020/01/31 14:39:04.3	0.960	-0.080	-0.220	-0.820
2020/01/31 14:39:04.4	0.970	-0.090	-0.170	-0.820
2020/01/31 14:39:04.5	0.990	-0.100	-0.130	-0.820
2020/01/31 14:39:04.6	1.000	-0.110	-0.090	-0.820
2020/01/31 14:39:04.7	1.000	-0.130	-0.050	-0.820
2020/01/31 14:39:04.8	1.010	-0.140	-0.020	-0.810
2020/01/31 14:39:04.9	1.020	-0.150	0.020	-0.800
2020/01/31 14:39:05.0	1.020	-0.160	0.050	-0.790
2020/01/31 14:39:05.1	1.030	-0.170	0.080	-0.780
2020/01/31 14:39:05.2	1.030	-0.170	0.100	-0.760
2020/01/31 14:39:05.3	1.030	-0.180	0.120	-0.740
2020/01/31 14:39:05.4	1.030	-0.190	0.140	-0.720
2020/01/31 14:39:05.5	1.020	-0.190	0.160	-0.700
2020/01/31 14:39:05.6	1.020	-0.200	0.170	-0.680
2020/01/31 14:39:05.7	0.990	-0.200	0.180	-0.650
2020/01/31 14:39:05.8	0.980	-0.200	0.190	-0.620
2020/01/31 14:39:05.9	0.970	-0.200	0.200	-0.590
2020/01/31 14:39:06.0	0.960	-0.200	0.210	-0.560
2020/01/31 14:39:06.1	0.940	-0.200	0.210	-0.520
2020/01/31 14:39:06.2	0.920	-0.200	0.220	-0.490
2020/01/31 14:39:06.3	0.910	-0.190	0.220	-0.450
2020/01/31 14:39:06.4	0.890	-0.190	0.220	-0.420
2020/01/31 14:39:06.5	0.870	-0.180	0.220	-0.380
2020/01/31 14:39:06.6	0.850	-0.170	0.220	-0.340
2020/01/31 14:39:06.7	0.840	-0.160	0.220	-0.310
2020/01/31 14:39:06.8	0.820	-0.150	0.220	-0.270
2020/01/31 14:39:06.9	0.800	-0.140	0.210	-0.240
2020/01/31 14:39:07.0	0.780	-0.120	0.210	-0.200
2020/01/31 14:39:07.1	0.770	-0.110	0.200	-0.170
2020/01/31 14:39:07.2	0.750	-0.100	0.180	-0.140
2020/01/31 14:39:07.3	0.740	-0.080	0.170	-0.120
2020/01/31 14:39:07.4	0.730	-0.060	0.160	-0.090
2020/01/31 14:39:07.5	0.720	-0.040	0.140	-0.070
2020/01/31 14:39:07.6	0.710	-0.030	0.120	-0.050
2020/01/31 14:39:07.7	0.720	-0.010	0.110	-0.030
2020/01/31 14:39:07.8	0.710	0.010	0.090	-0.010
2020/01/31 14:39:07.9	0.700	0.030	0.070	0.000
2020/01/31 14:39:08.0	0.690	0.040	0.050	0.010
2020/01/31 14:39:08.1	0.680	0.060	0.030	0.020
2020/01/31 14:39:08.2	0.670	0.070	0.000	0.030
2020/01/31 14:39:08.3	0.660	0.090	-0.020	0.040
2020/01/31 14:39:08.4	0.650	0.100	-0.040	0.050
2020/01/31 14:39:08.5	0.640	0.110	-0.060	0.050
2020/01/31 14:39:08.6	0.620	0.120	-0.080	0.050
2020/01/31 14:39:08.7	0.620	0.130	-0.090	0.060
2020/01/31 14:39:08.8	0.600	0.140	-0.110	0.060
2020/01/31 14:39:08.9	0.580	0.150	-0.120	0.050
2020/01/31 14:39:09.0	0.560	0.150	-0.140	0.050
2020/01/31 14:39:09.1	0.540	0.150	-0.150	0.050
2020/01/31 14:39:09.2	0.520	0.160	-0.160	0.040
2020/01/31 14:39:09.3	0.490	0.160	-0.170	0.030
2020/01/31 14:39:09.4	0.470	0.160	-0.180	0.030
2020/01/31 14:39:09.5	0.450	0.150	-0.190	0.020
2020/01/31 14:39:09.6	0.420	0.150	-0.200	0.010
2020/01/31 14:39:09.7	0.400	0.140	-0.210	-0.010
2020/01/31 14:39:09.8	0.380	0.140	-0.220	-0.020
2020/01/31 14:39:09.9	0.360	0.130	-0.220	-0.030
2020/01/31 14:39:10.0	0.340	0.130	-0.230	-0.040
2020/01/31 14:39:10.1	0.310	0.120	-0.240	-0.050
2020/01/31 14:39:10.2	0.290	0.110	-0.250	-0.060
2020/01/31 14:39:10.3	0.280	0.100	-0.260	-0.080
2020/01/31 14:39:10.4	0.260	0.090	-0.270	-0.090
2020/01/31 14:39:10.5	0.250	0.080	-0.280	-0.100
2020/01/31 14:39:10.6	0.230	0.080	-0.300	-0.120
2020/01/31 14:39:10.7	0.220	0.070	-0.310	-0.130
2020/01/31 14:39:10.8	0.210	0.060	-0.330	-0.150
2020/01/31 14:39:10.9	0.210	0.060	-0.350	-0.170
2020/01/31 14:39:11.0	0.200	0.050	-0.370	-0.180
2020/01/31 14:39:11.1	0.200	0.050	-0.390	-0.200
2020/01/31 14:39:11.2	0.190	0.040	-0.420	-0.210
2020/01/31 14:39:11.3	0.190	0.040	-0.440	-0.230
2020/01/31 14:39:11.4	0.190	0.040	-0.460	-0.240
2020/01/31 14:39:11.5	0.190	0.040	-0.490	-0.260
2020/01/31 14:39:11.6	0.190	0.040	-0.510	-0.270
2020/01/31 14:39:11.7	0.180	0.040	-0.530	-0.290
2020/01/31 14:39:11.8	0.190	0.040	-0.550	-0.310
2020/01/31 14:39:11.9	0.190	0.050	-0.580	-0.320
2020/01/31 14:39:12.0	0.190	0.050	-0.600	-0.340
2020/01/31 14:39:12.1	0.200	0.060	-0.620	-0.350
2020/01/31 14:39:12.2	0.210	0.060	-0.630	-0.360
2020/01/31 14:39:12.3	0.210	0.070	-0.650	-0.380
2020/01/31 14:39:12.4	0.230	0.070	-0.660	-0.390
2020/01/31 14:39:12.5	0.240	0.080	-0.670	-0.410
2020/01/31 14:39:12.6	0.250	0.090	-0.680	-0.420
2020/01/31 14:39:12.7	0.260	0.090	-0.690	-0.440
2020/01/31 14:39:12.8	0.280	0.100	-0.700	-0.460
2020/01/31 14:39:12.9	0.300	0.110	-0.700	-0.480
2020/01/31 14:39:13.0	0.320	0.110	-0.700	-0.500
2020/01/31 14:39:13.1	0.350	0.120	-0.700	-0.510
2020/01/31 14:39:13.2	0.380	0.120	-0.700	-0.530
2020/01/31 14:39:13.3	0.410	0.120	-0.700	-0.550
2020/01/31 14:39:13.4	0.440	0.120	-0.690	-0.570
2020/01/31 14:39:13.5	0.470	0.120	-0.680	-0.590
2020/01/31 14:39:13.6	0.510	0.110	-0.670	-0.610
2020/01/31 14:39:13.7	0.520	0.110	-0.660	-0.630
2020/01/31 14:39:13.8	0.560	0.100	-0.650	-0.650
2020/01/31 14:39:13.9	0.590	0.090	-0.630	-0.670
2020/01/31 14:39:14.0	0.630	0.070	-0.610	-0.690
2020/01/31 14:39:14.1	0.660	0.060	-0.590	-0.710
2020/01/31 14:39:14.2	0.700	0.040	-0.560	-0.730
2020/01/31 14:39:14.3	0.730	0.020	-0.530	-0.740
2020/01/31 14:39:14.4	0.760	-0.000	-0.500	-0.760
2020/01/31 14:39:14.5	0.790	-0.030	-0.470	-0.770
2020/01/31 14:39:14.6	0.820	-0.050	-0.440	-0.790
2020/01/31 14:39:14.7	0.830	-0.080	-0.400	-0.800
2020/01/31 14:39:14.8	0.850	-0.110	-0.360	-0.810
2020/01/31 14:39:14.9	0.870	-0.140	-0.330	-0.810
2020/01/31 14:39:15.0	0.880	-0.170	-0.290	-0.810
2020/01/31 14:39:15.1	0.890	-0.200	-0.240	-0.810
2020/01/31 14:39:15.2	0.900	-0.230	-0.200	-0.810
2020/01/31 14:39:15.3	0.900	-0.260	-0.160	-0.800
2020/01/31 14:39:15.4	0.900	-0.290	-0.120	-0.780
2020/01/31 14:39:15.5	0.890	-0.310	-0.070	-0.760
2020/01/31 14:39:15.6	0.880	-0.340	-0.030	-0.740
2020/01/31 14:39:15.7	0.860	-0.360	0.010	-0.720
2020/01/31 14:39:15.8	0.840	-0.390	0.050	-0.690
2020/01/31 14:39:15.9	0.820	-0.400	0.100	-0.650
2020/01/31 14:39:16.0	0.800	-0.420	0.140	-0.610
2020/01/31 14:39:16.1	0.770	-0.430	0.180	-0.570
2020/01/31 14:39:16.2	0.740	-0.440	0.220	-0.530
2020/01/31 14:39:16.3	0.710	-0.450	0.250	-0.480
2020/01/31 14:39:16.4	0.680	-0.450	0.280	-0.440
2020/01/31 14:39:16.5	0.640	-0.450	0.310	-0.390
2020/01/31 14:39:16.6	0.610	-0.450	0.340	-0.340
2020/01/31 14:39:16.7	0.570	-0.440	0.360	-0.290
2020/01/31 14:39:16.8	0.540	-0.420	0.380	-0.240
2020/01/31 14:39:16.9	0.500	-0.400	0.390	-0.200
2020/01/31 14:39:17.0	0.470	-0.380	0.400	-0.160
2020/01/31 14:39:17.1	0.430	-0.360	0.400	-0.120
2020/01/31 14:39:17.2	0.400	-0.330	0.400	-0.080
2020/01/31 14:39:17.3	0.370	-0.300	0.390	-0.050
2020/01/31 14:39:17.4	0.340	-0.270	0.370	-0.020
2020/01/31 14:39:17.5	0.320	-0.230	0.350	0.000
2020/01/31 14:39:17.6	0.290	-0.200	0.320	0.020
2020/01/31 14:39:17.7	0.270	-0.160	0.290	0.030
2020/01/31 14:39:17.8	0.250	-0.120	0.250	0.050
2020/01/31 14:39:17.9	0.240	-0.080	0.210	0.050
2020/01/31 14:39:18.0	0.220	-0.030	0.160	0.060
2020/01/31 14:39:18.1	0.210	0.010	0.110	0.060
2020/01/31 14:39:18.2	0.210	0.050	0.050	0.060
2020/01/31 14:39:18.3	0.200	0.090	-0.000	0.050
2020/01/31 14:39:18.4	0.200	0.130	-0.060	0.050
2020/01/31 14:39:18.5	0.200	0.170	-0.120	0.040
2020/01/31 14:39:18.6	0.200	0.210	-0.190	0.040
2020/01/31 14:39:18.7	0.200	0.250	-0.240	0.030
2020/01/31 14:39:18.8	0.210	0.280	-0.310	0.020
2020/01/31 14:39:18.9	0.220	0.320	-0.360	0.020
2020/01/31 14:39:19.0	0.220	0.350	-0.420	0.010
2020/01/31 14:39:19.1	0.230	0.370	-0.470	0.000
2020/01/31 14:39:19.2	0.240	0.390	-0.520	-0.000
2020/01/31 14:39:19.3	0.250	0.410	-0.570	-0.010
2020/01/31 14:39:19.4	0.260	0.430	-0.610	-0.010
2020/01/31 14:39:19.5	0.280	0.440	-0.650	-0.010
2020/01/31 14:39:19.6	0.290	0.450	-0.680	-0.020
2020/01/31 14:39:19.7	0.310	0.450	-0.700	-0.020
2020/01/31 14:39:19.8	0.320	0.450	-0.720	-0.020
2020/01/31 14:39:19.9	0.330	0.450	-0.730	-0.020
2020/01/31 14:39:20.0	0.340	0.440	-0.740	-0.020
2020/01/31 14:39:20.1	0.350	0.430	-0.740	-0.030
2020/01/31 14:39:20.2	0.350	0.410	-0.740	-0.030
2020/01/31 14:39:20.3	0.360	0.390	-0.730	-0.030
2020/01/31 14:39:20.4	0.360	0.370	-0.710	-0.040
2020/01/31 14:39:20.5	0.370	0.340	-0.690	-0.040
2020/01/31 14:39:20.6	0.370	0.310	-0.660	-0.050
2020/01/31 14:39:20.7	0.370	0.280	-0.630	-0.050
2020/01/31 14:39:20.8	0.370	0.250	-0.590	-0.060
2020/01/31 14:39:20.9	0.370	0.210	-0.550	-0.060
2020/01/31 14:39:21.0	0.360	0.180	-0.500	-0.060
2020/01/31 14:39:21.1	0.360	0.140	-0.460	-0.070
2020/01/31 14:39:21.2	0.350	0.100	-0.410	-0.070
2020/01/31 14:39:21.3	0.350	0.060	-0.360	-0.070
2020/01/31 14:39:21.4	0.340	0.030	-0.310	-0.080
2020/01/31 14:39:21.5	0.330	-0.010	-0.260	-0.080
2020/01/31 14:39:21.6	0.320	-0.050	-0.210	-0.080
2020/01/31 14:39:21.7	0.320	-0.080	-0.160	-0.090
2020/01/31 14:39:21.8	0.310	-0.110	-0.110	-0.090
2020/01/31 14:39:21.9	0.300	-0.140	-0.070	-0.090
2020/01/31 14:39:22.0	0.300	-0.170	-0.030	-0.090
2020/01/31 14:39:22.1	0.290	-0.190	0.010	-0.100
2020/01/31 14:39:22.2	0.280	-0.210	0.040	-0.100
2020/01/31 14:39:22.3	0.270	-0.230	0.070	-0.110
2020/01/31 14:39:22.4	0.270	-0.240	0.090	-0.110
2020/01/31 14:39:22.5	0.260	-0.250	0.100	-0.120
2020/01/31 14:39:22.6	0.250	-0.260	0.110	-0.120
2020/01/31 14:39:22.7	0.240	-0.260	0.120	-0.140
2020/01/31 14:39:22.8	0.230	-0.250	0.120	-0.150
2020/01/31 14:39:22.9	0.230	-0.250	0.110	-0.150
2020/01/31 14:39:23.0	0.220	-0.240	0.090	-0.160
2020/01/31 14:39:23.1	0.210	-0.220	0.080	-0.180
2020/01/31 14:39:23.2	0.210	-0.210	0.050	-0.190
2020/01/31 14:39:23.3	0.200	-0.190	0.020	-0.200
2020/01/31 14:39:23.4	0.200	-0.160	-0.010	-0.210
2020/01/31 14:39:23.5	0.200	-0.130	-0.050	-0.230
2020/01/31 14:39:23.6	0.200	-0.100	-0.090	-0.240
2020/01/31 14:39:23.7	0.190	-0.070	-0.140	-0.260
2020/01/31 14:39:23.8	0.190	-0.040	-0.190	-0.270
2020/01/31 14:39:23.9	0.200	-0.000	-0.240	-0.290
2020/01/31 14:39:24.0	0.200	0.030	-0.290	-0.310
2020/01/31 14:39:24.1	0.210	0.070	-0.350	-0.320
2020/01/31 14:39:24.2	0.210	0.110	-0.400	-0.340
2020/01/31 14:39:24.3	0.220	0.150	-0.460	-0.350
2020/01/31 14:39:24.4	0.230	0.190	-0.510	-0.360
2020/01/31 14:39:24.5	0.240	0.220	-0.570	-0.380
2020/01/31 14:39:24.6	0.260	0.260	-0.620	-0.390
2020/01/31 14:39:24.7	0.270	0.290	-0.670	-0.400
2020/01/31 14:39:24.8	0.280	0.330	-0.710	-0.410
2020/01/31 14:39:24.9	0.300	0.360	-0.760	-0.430
2020/01/31 14:39:25.0	0.320	0.380	-0.800	-0.440
2020/01/31 14:39:25.1	0.330	0.410	-0.840	-0.440
2020/01/31 14:39:25.2	0.350	0.430	-0.870	-0.450
2020/01/31 14:39:25.3	0.370	0.440	-0.890	-0.460
2020/01/31 14:39:25.4	0.390	0.450	-0.910	-0.470
2020/01/31 14:39:25.5	0.410	0.460	-0.930	-0.480
2020/01/31 14:39:25.6	0.430	0.460	-0.930	-0.480
2020/01/31 14:39:25.7	0.440	0.460	-0.930	-0.490
2020/01/31 14:39:25.8	0.460	0.450	-0.930	-0.490
2020/01/31 14:39:25.9	0.480	0.440	-0.910	-0.490
2020/01/31 14:39:26.0	0.500	0.420	-0.890	-0.490
2020/01/31 14:39:26.1	0.520	0.400	-0.870	-0.500
2020/01/31 14:39:26.2	0.530	0.370	-0.830	-0.500
2020/01/31 14:39:26.3	0.550	0.340	-0.790	-0.500
2020/01/31 14:39:26.4	0.570	0.310	-0.740	-0.500
2020/01/31 14:39:26.5	0.580	0.270	-0.690	-0.500
2020/01/31 14:39:26.6	0.590	0.230	-0.630	-0.500
2020/01/31 14:39:26.7	0.600	0.180	-0.570	-0.500
2020/01/31 14:39:26.8	0.610	0.130	-0.500	-0.490
2020/01/31 14:39:26.9	0.620	0.070	-0.430	-0.490
2020/01/31 14:39:27.0	0.630	0.020	-0.350	-0.480
2020/01/31 14:39:27.1	0.630	-0.040	-0.270	-0.480
2020/01/31 14:39:27.2	0.640	-0.100	-0.190	-0.470
2020/01/31 14:39:27.3	0.640	-0.160	-0.110	-0.460
2020/01/31 14:39:27.4	0.640	-0.220	-0.030	-0.460
2020/01/31 14:39:27.5	0.640	-0.280	0.050	-0.450
2020/01/31 14:39:27.6	0.640	-0.340	0.130	-0.440
2020/01/31 14:39:27.7	0.650	-0.400	0.210	-0.430
2020/01/31 14:39:27.8	0.640	-0.460	0.280	-0.420
2020/01/31 14:39:27.9	0.640	-0.510	0.350	-0.410
2020/01/31 14:39:28.0	0.640	-0.570	0.420	-0.400
2020/01/31 14:39:28.1	0.640	-0.620	0.490	-0.390
2020/01/31 14:39:28.2	0.640	-0.670	0.550	-0.370
2020/01/31 14:39:28.3	0.630	-0.710	0.600	-0.360
2020/01/31 14:39:28.4	0.630	-0.750	0.650	-0.350
2020/01/31 14:39:28.5	0.630	-0.780	0.700	-0.330
2020/01/31 14:39:28.6	0.620	-0.810	0.740	-0.320
2020/01/31 14:39:28.7	0.640	-0.830	0.770	-0.300
2020/01/31 14:39:28.8	0.630	-0.850	0.800	-0.290
2020/01/31 14:39:28.9	0.620	-0.870	0.820	-0.270
2020/01/31 14:39:29.0	0.610	-0.870	0.840	-0.240
2020/01/31 14:39:29.1	0.600	-0.880	0.850	-0.220
2020/01/31 14:39:29.2	0.580	-0.870	0.850	-0.190
2020/01/31 14:39:29.3	0.560	-0.860	0.850	-0.160
2020/01/31 14:39:29.4	0.540	-0.850	0.850	-0.120
2020/01/31 14:39:29.5	0.520	-0.830	0.830	-0.090
2020/01/31 14:39:29.6	0.500	-0.800	0.820	-0.040
2020/01/31 14:39:29.7	0.480	-0.770	0.790	-0.000
2020/01/31 14:39:29.8	0.460	-0.730	0.760	0.040
2020/01/31 14:39:29.9	0.430	-0.690	0.730	0.090
2020/01/31 14:39:30.0	0.390	-0.650	0.690	0.140
2020/01/31 14:39:30.1	0.360	-0.600	0.640	0.190
2020/01/31 14:39:30.2	0.330	-0.550	0.590	0.240
2020/01/31 14:39:30.3	0.300	-0.500	0.540	0.290
2020/01/31 14:39:30.4	0.270	-0.440	0.480	0.340
2020/01/31 14:39:30.5	0.230	-0.380	0.410	0.390
2020/01/31 14:39:30.6	0.200	-0.320	0.340	0.430
2020/01/31 14:39:30.7	0.170	-0.260	0.270	0.460
2020/01/31 14:39:30.8	0.150	-0.190	0.190	0.500
2020/01/31 14:39:30.9	0.120	-0.130	0.110	0.530
2020/01/31 14:39:31.0	0.100	-0.060	0.030	0.550
2020/01/31 14:39:31.1	0.080	0.000	-0.060	0.570
2020/01/31 14:39:31.2	0.060	0.070	-0.160	0.580
2020/01/31 14:39:31.3	0.050	0.130	-0.250	0.590
2020/01/31 14:39:31.4	0.040	0.190	-0.350	0.590
2020/01/31 14:39:31.5	0.030	0.250	-0.450	0.580
2020/01/31 14:39:31.6	0.030	0.310	-0.540	0.570
2020/01/31 14:39:31.7	0.020	0.370	-0.640	0.550
2020/01/31 14:39:31.8	0.030	0.420	-0.740	0.530
2020/01/31 14:39:31.9	0.030	0.470	-0.830	0.500
2020/01/31 14:39:32.0	0.030	0.520	-0.930	0.470
2020/01/31 14:39:32.1	0.040	0.560	-1.020	0.440
2020/01/31 14:39:32.2	0.050	0.610	-1.100	0.410
2020/01/31 14:39:32.3	0.060	0.640	-1.180	0.370
2020/01/31 14:39:32.4	0.070	0.670	-1.260	0.330
2020/01/31 14:39:32.5	0.080	0.700	-1.330	0.290
2020/01/31 14:39:32.6	0.090	0.730	-1.390	0.240
2020/01/31 14:39:32.7	0.090	0.740	-1.440	0.190
2020/01/31 14:39:32.8	0.110	0.760	-1.480	0.150
2020/01/31 14:39:32.9	0.120	0.760	-1.520	0.090
2020/01/31 14:39:33.0	0.140	0.770	-1.550	0.040
2020/01/31 14:39:33.1	0.160	0.770	-1.570	-0.010
2020/01/31 14:39:33.2	0.170	0.760	-1.580	-0.070
2020/01/31 14:39:33.3	0.190	0.750	-1.590	-0.120
2020/01/31 14:39:33.4	0.210	0.730	-1.580	-0.180
2020/01/31 14:39:33.5	0.230	0.710	-1.570	-0.240
2020/01/31 14:39:33.6	0.250	0.680	-1.550	-0.300
2020/01/31 14:39:33.7	0.290	0.650	-1.510	-0.370
2020/01/31 14:39:33.8	0.310	0.620	-1.480	-0.430
2020/01/31 14:39:33.9	0.330	0.580	-1.430	-0.490
2020/01/31 14:39:34.0	0.350	0.540	-1.380	-0.550
2020/01/31 14:39:34.1	0.370	0.500	-1.330	-0.610
2020/01/31 14:39:34.2	0.400	0.450	-1.270	-0.660
2020/01/31 14:39:34.3	0.420	0.410	-1.200	-0.720
2020/01/31 14:39:34.4	0.440	0.360	-1.130	-0.770
2020/01/31 14:39:34.5	0.460	0.310	-1.060	-0.830
2020/01/31 14:39:34.6	0.480	0.260	-0.980	-0.880
2020/01/31 14:39:34.7	0.500	0.200	-0.900	-0.930
2020/01/31 14:39:34.8	0.520	0.150	-0.820	-0.970
2020/01/31 14:39:34.9	0.540	0.100	-0.730	-1.020
2020/01/31 14:39:35.0	0.560	0.050	-0.650	-1.050
2020/01/31 14:39:35.1	0.580	0.010	-0.570	-1.090
2020/01/31 14:39:35.2	0.600	-0.040	-0.490	-1.120
2020/01/31 14:39:35.3	0.620	-0.080	-0.400	-1.150
2020/01/31 14:39:35.4	0.640	-0.120	-0.330	-1.170
2020/01/31 14:39:35.5	0.660	-0.160	-0.250	-1.190
2020/01/31 14:39:35.6	0.680	-0.190	-0.180	-1.210
2020/01/31 14:39:35.7	0.680	-0.230	-0.100	-1.220
2020/01/31 14:39:35.8	0.700	-0.250	-0.040	-1.230
2020/01/31 14:39:35.9	0.720	-0.280	0.030	-1.240
2020/01/31 14:39:36.0	0.740	-0.300	0.090	-1.240
2020/01/31 14:39:36.1	0.760	-0.310	0.140	-1.230
2020/01/31 14:39:36.2	0.780	-0.320	0.190	-1.230
2020/01/31 14:39:36.3	0.800	-0.330	0.230	-1.220
2020/01/31 14:39:36.4	0.810	-0.340	0.270	-1.200
2020/01/31 14:39:36.5	0.830	-0.340	0.310	-1.180
2020/01/31 14:39:36.6	0.840	-0.340	0.340	-1.160
2020/01/31 14:39:36.7	0.840	-0.330	0.370	-1.140
2020/01/31 14:39:36.8	0.850	-0.330	0.390	-1.110
2020/01/31 14:39:36.9	0.860	-0.320	0.420	-1.070
2020/01/31 14:39:37.0	0.860	-0.310	0.430	-1.040
2020/01/31 14:39:37.1	0.860	-0.290	0.450	-1.000
2020/01/31 14:39:37.2	0.860	-0.280	0.460	-0.950
2020/01/31 14:39:37.3	0.850	-0.260	0.470	-0.910
2020/01/31 14:39:37.4	0.850	-0.240	0.480	-0.860
2020/01/31 14:39:37.5	0.840	-0.230	0.480	-0.800
2020/01/31 14:39:37.6	0.830	-0.210	0.480	-0.750
2020/01/31 14:39:37.7	0.810	-0.190	0.490	-0.690
2020/01/31 14:39:37.8	0.800	-0.170	0.490	-0.630
2020/01/31 14:39:37.9	0.780	-0.150	0.480	-0.570
2020/01/31 14:39:38.0	0.760	-0.120	0.480	-0.510
2020/01/31 14:39:38.1	0.740	-0.100	0.480	-0.450
2020/01/31 14:39:38.2	0.720	-0.090	0.470	-0.380
2020/01/31 14:39:38.3	0.690	-0.070	0.460	-0.320
2020/01/31 14:39:38.4	0.660	-0.050	0.450	-0.250
2020/01/31 14:39:38.5	0.630	-0.030	0.450	-0.190
2020/01/31 14:39:38.6	0.600	-0.020	0.440	-0.120
2020/01/31 14:39:38.7	0.570	0.000	0.430	-0.070
2020/01/31 14:39:38.8	0.540	0.010	0.420	-0.010
2020/01/31 14:39:38.9	0.510	0.030	0.410	0.050
2020/01/31 14:39:39.0	0.470	0.040	0.400	0.110
2020/01/31 14:39:39.1	0.440	0.050	0.390	0.170
2020/01/31 14:39:39.2	0.400	0.060	0.380	0.230
2020/01/31 14:39:39.3	0.370	0.070	0.360	0.280
2020/01/31 14:39:39.4	0.330	0.080	0.350	0.330
2020/01/31 14:39:39.5	0.300	0.090	0.330	0.380
2020/01/31 14:39:39.6	0.260	0.100	0.320	0.430
2020/01/31 14:39:39.7	0.220	0.100	0.300	0.470
2020/01/31 14:39:39.8	0.190	0.110	0.280	0.510
2020/01/31 14:39:39.9	0.150	0.110	0.260	0.540
2020/01/31 14:39:40.0	0.120	0.110	0.230	0.570
2020/01/31 14:39:40.1	0.090	0.120	0.200	0.600
2020/01/31 14:39:40.2	0.060	0.120	0.170	0.620
2020/01/31 14:39:40.3	0.040	0.120	0.140	0.630
2020/01/31 14:39:40.4	0.010	0.120	0.100	0.640
2020/01/31 14:39:40.5	359.990	0.120	0.060	0.640
2020/01/31 14:39:40.6	359.970	0.110	0.020	0.640
2020/01/31 14:39:40.7	359.950	0.110	-0.020	0.630
2020/01/31 14:39:40.8	359.940	0.100	-0.070	0.610
2020/01/31 14:39:40.9	359.920	0.090	-0.120	0.590
2020/01/31 14:39:41.0	359.920	0.090	-0.170	0.560
2020/01/31 14:39:41.1	359.910	0.080	-0.220	0.530
2020/01/31 14:39:41.2	359.900	0.070	-0.270	0.490
2020/01/31 14:39:41.3	359.900	0.050	-0.330	0.450
2020/01/31 14:39:41.4	359.900	0.040	-0.380	0.400
2020/01/31 14:39:41.5	359.910	0.030	-0.440	0.350
2020/01/31 14:39:41.6	359.910	0.010	-0.500	0.290
2020/01/31 14:39:41.7	359.920	-0.000	-0.540	0.240
2020/01/31 14:39:41.8	359.920	-0.020	-0.600	0.180
2020/01/31 14:39:41.9	359.930	-0.040	-0.650	0.120
2020/01/31 14:39:42.0	359.940	-0.060	-0.700	0.050
2020/01/31 14:39:42.1	359.950	-0.080	-0.740	-0.010
2020/01/31 14:39:42.2	359.960	-0.100	-0.780	-0.070
2020/01/31 14:39:42.3	359.970	-0.120	-0.820	-0.140
2020/01/31 14:39:42.4	359.980	-0.140	-0.860	-0.200
2020/01/31 14:39:42.5	0.000	-0.160	-0.880	-0.270
2020/01/31 14:39:42.6	0.010	-0.180	-0.910	-0.330
2020/01/31 14:39:42.7	0.020	-0.200	-0.920	-0.390
2020/01/31 14:39:42.8	0.030	-0.220	-0.930	-0.450
2020/01/31 14:39:42.9	0.040	-0.240	-0.940	-0.510
2020/01/31 14:39:43.0	0.050	-0.260	-0.940	-0.560
2020/01/31 14:39:43.1	0.070	-0.270	-0.930	-0.610
2020/01/31 14:39:43.2	0.080	-0.290	-0.920	-0.660
2020/01/31 14:39:43.3	0.090	-0.310	-0.900	-0.700
2020/01/31 14:39:43.4	0.100	-0.320	-0.870	-0.740
2020/01/31 14:39:43.5	0.120	-0.340	-0.850	-0.780
2020/01/31 14:39:43.6	0.130	-0.350	-0.810	-0.810
2020/01/31 14:39:43.7	0.150	-0.360	-0.780	-0.840
2020/01/31 14:39:43.8	0.160	-0.360	-0.740	-0.860
2020/01/31 14:39:43.9	0.180	-0.370	-0.690	-0.880
2020/01/31 14:39:44.0	0.190	-0.370	-0.650	-0.890
2020/01/31 14:39:44.1	0.200	-0.370	-0.610	-0.890
2020/01/31 14:39:44.2	0.220	-0.370	-0.560	-0.890
2020/01/31 14:39:44.3	0.230	-0.370	-0.510	-0.880
2020/01/31 14:39:44.4	0.240	-0.360	-0.470	-0.860
2020/01/31 14:39:44.5	0.250	-0.350	-0.420	-0.850
2020/01/31 14:39:44.6	0.260	-0.340	-0.380	-0.820
2020/01/31 14:39:44.7	0.270	-0.330	-0.340	-0.790
2020/01/31 14:39:44.8	0.290	-0.320	-0.300	-0.760
2020/01/31 14:39:44.9	0.300	-0.300	-0.260	-0.730
2020/01/31 14:39:45.0	0.310	-0.280	-0.230	-0.700
2020/01/31 14:39:45.1	0.320	-0.260	-0.200	-0.670
2020/01/31 14:39:45.2	0.330	-0.230	-0.180	-0.630
2020/01/31 14:39:45.3	0.340	-0.210	-0.160	-0.590
2020/01/31 14:39:45.4	0.350	-0.180	-0.140	-0.560
2020/01/31 14:39:45.5	0.370	-0.150	-0.130	-0.520
2020/01/31 14:39:45.6	0.380	-0.120	-0.120	-0.490
2020/01/31 14:39:45.7	0.390	-0.090	-0.120	-0.460
2020/01/31 14:39:45.8	0.410	-0.050	-0.120	-0.420
2020/01/31 14:39:45.9	0.420	-0.020	-0.130	-0.390
2020/01/31 14:39:46.0	0.430	0.020	-0.140	-0.360
2020/01/31 14:39:46.1	0.450	0.060	-0.150	-0.330
2020/01/31 14:39:46.2	0.460	0.090	-0.170	-0.300
2020/01/31 14:39:46.3	0.470	0.130	-0.190	-0.270
2020/01/31 14:39:46.4	0.480	0.170	-0.210	-0.240
2020/01/31 14:39:46.5	0.490	0.210	-0.240	-0.220
2020/01/31 14:39:46.6	0.500	0.240	-0.270	-0.190
2020/01/31 14:39:46.7	0.490	0.280	-0.290	-0.170
2020/01/31 14:39:46.8	0.500	0.310	-0.320	-0.150
2020/01/31 14:39:46.9	0.500	0.350	-0.350	-0.120
2020/01/31 14:39:47.0	0.500	0.380	-0.390	-0.100
2020/01/31 14:39:47.1	0.500	0.410	-0.420	-0.080
2020/01/31 14:39:47.2	0.500	0.430	-0.450	-0.060
2020/01/31 14:39:47.3	0.500	0.460	-0.480	-0.040
2020/01/31 14:39:47.4	0.500	0.480	-0.510	-0.020
2020/01/31 14:39:47.5	0.500	0.500	-0.540	0.000
2020/01/31 14:39:47.6	0.500	0.520	-0.570	0.020
2020/01/31 14:39:47.7	0.480	0.530	-0.590	0.030
2020/01/31 14:39:47.8	0.480	0.540	-0.610	0.050
2020/01/31 14:39:47.9	0.470	0.550	-0.630	0.060
2020/01/31 14:39:48.0	0.470	0.560	-0.640	0.080
2020/01/31 14:39:48.1	0.460	0.560	-0.650	0.090
2020/01/31 14:39:48.2	0.450	0.560	-0.660	0.100
2020/01/31 14:39:48.3	0.450	0.550	-0.660	0.110
2020/01/31 14:39:48.4	0.430	0.540	-0.660	0.120
2020/01/31 14:39:48.5	0.420	0.530	-0.660	0.130
2020/01/31 14:39:48.6	0.410	0.510	-0.650	0.140
2020/01/31 14:39:48.7	0.390	0.500	-0.630	0.140
2020/01/31 14:39:48.8	0.370	0.480	-0.610	0.140
2020/01/31 14:39:48.9	0.360	0.450	-0.590	0.140
2020/01/31 14:39:49.0	0.340	0.430	-0.560	0.140
2020/01/31 14:39:49.1	0.320	0.400	-0.530	0.140
2020/01/31 14:39:49.2	0.300	0.370	-0.490	0.140
2020/01/31 14:39:49.3	0.280	0.330	-0.450	0.140
2020/01/31 14:39:49.4	0.260	0.300	-0.410	0.140
2020/01/31 14:39:49.5	0.240	0.270	-0.360	0.130
2020/01/31 14:39:49.6	0.220	0.230	-0.310	0.130
2020/01/31 14:39:49.7	0.200	0.200	-0.250	0.110
2020/01/31 14:39:49.8	0.180	0.160	-0.190	0.110
2020/01/31 14:39:49.9	0.160	0.120	-0.130	0.100
2020/01/31 14:39:50.0	0.130	0.090	-0.070	0.090
2020/01/31 14:39:50.1	0.110	0.050	-0.010	0.080
2020/01/31 14:39:50.2	0.080	0.020	0.050	0.080
2020/01/31 14:39:50.3	0.060	-0.010	0.110	0.070
2020/01/31 14:39:50.4	0.040	-0.050	0.170	0.060
2020/01/31 14:39:50.5	0.010	-0.080	0.230	0.050
2020/01/31 14:39:50.6	359.990	-0.100	0.290	0.050
2020/01/31 14:39:50.7	359.990	-0.130	0.340	0.040
2020/01/31 14:39:50.8	359.970	-0.150	0.390	0.030
2020/01/31 14:39:50.9	359.950	-0.170	0.430	0.020
2020/01/31 14:39:51.0	359.940	-0.190	0.470	0.010
2020/01/31 14:39:51.1	359.930	-0.210	0.500	-0.000
2020/01/31 14:39:51.2	359.920	-0.220	0.530	-0.010
2020/01/31 14:39:51.3	359.910	-0.230	0.550	-0.030
2020/01/31 14:39:51.4	359.910	-0.240	0.560	-0.040
2020/01/31 14:39:51.5	359.900	-0.250	0.570	-0.060
2020/01/31 14:39:51.6	359.910	-0.250	0.570	-0.080
2020/01/31 14:39:51.7	359.920	-0.250	0.570	-0.110
2020/01/31 14:39:51.8	359.930	-0.250	0.560	-0.130
2020/01/31 14:39:51.9	359.940	-0.240	0.540	-0.160
2020/01/31 14:39:52.0	359.950	-0.240	0.520	-0.190
2020/01/31 14:39:52.1	359.960	-0.230	0.490	-0.220
2020/01/31 14:39:52.2	359.980	-0.220	0.460	-0.250
2020/01/31 14:39:52.3	0.000	-0.210	0.420	-0.290
2020/01/31 14:39:52.4	0.020	-0.200	0.380	-0.320
2020/01/31 14:39:52.5	0.040	-0.190	0.340	-0.360
2020/01/31 14:39:52.6	0.060	-0.170	0.290	-0.400
2020/01/31 14:39:52.7	0.080	-0.160	0.240	-0.440
2020/01/31 14:39:52.8	0.100	-0.150	0.190	-0.480
2020/01/31 14:39:52.9	0.120	-0.130	0.140	-0.510
2020/01/31 14:39:53.0	0.140	-0.120	0.090	-0.550
2020/01/31 14:39:53.1	0.160	-0.110	0.040	-0.580
2020/01/31 14:39:53.2	0.180	-0.100	-0.010	-0.600
2020/01/31 14:39:53.3	0.190	-0.080	-0.060	-0.630
2020/01/31 14:39:53.4	0.210	-0.070	-0.110	-0.650
2020/01/31 14:39:53.5	0.220	-0.060	-0.160	-0.660
2020/01/31 14:39:53.6	0.230	-0.060	-0.200	-0.680
2020/01/31 14:39:53.7	0.240	-0.050	-0.240	-0.690
2020/01/31 14:39:53.8	0.240	-0.050	-0.280	-0.690
2020/01/31 14:39:53.9	0.250	-0.040	-0.320	-0.690
2020/01/31 14:39:54.0	0.250	-0.040	-0.350	-0.690
2020/01/31 14:39:54.1	0.250	-0.040	-0.380	-0.680
2020/01/31 14:39:54.2	0.250	-0.040	-0.410	-0.660
2020/01/31 14:39:54.3	0.240	-0.050	-0.430	-0.640
2020/01/31 14:39:54.4	0.240	-0.050	-0.450	-0.620
2020/01/31 14:39:54.5	0.230	-0.060	-0.460	-0.600
2020/01/31 14:39:54.6	0.220	-0.070	-0.480	-0.570
2020/01/31 14:39:54.7	0.210	-0.080	-0.480	-0.550
2020/01/31 14:39:54.8	0.200	-0.090	-0.490	-0.520
2020/01/31 14:39:54.9	0.180	-0.100	-0.490	-0.490
2020/01/31 14:39:55.0	0.170	-0.110	-0.490	-0.450
2020/01/31 14:39:55.1	0.150	-0.120	-0.500	-0.420
2020/01/31 14:39:55.2	0.130	-0.140	-0.490	-0.390
2020/01/31 14:39:55.3	0.110	-0.150	-0.490	-0.360
2020/01/31 14:39:55.4	0.090	-0.170	-0.490	-0.330
2020/01/31 14:39:55.5	0.070	-0.180	-0.480	-0.300
2020/01/31 14:39:55.6	0.040	-0.190	-0.470	-0.280
2020/01/31 14:39:55.7	0.010	-0.200	-0.470	-0.250
2020/01/31 14:39:55.8	359.980	-0.210	-0.460	-0.230
2020/01/31 14:39:55.9	359.950	-0.220	-0.450	-0.210
2020/01/31 14:39:56.0	359.930	-0.230	-0.450	-0.190
2020/01/31 14:39:56.1	359.900	-0.240	-0.440	-0.170
2020/01/31 14:39:56.2	359.870	-0.250	-0.430	-0.150
2020/01/31 14:39:56.3	359.850	-0.250	-0.420	-0.140
2020/01/31 14:39:56.4	359.820	-0.250	-0.410	-0.120
2020/01/31 14:39:56.5	359.800	-0.250	-0.410	-0.110
2020/01/31 14:39:56.6	359.770	-0.250	-0.400	-0.090
2020/01/31 14:39:56.7	359.750	-0.240	-0.390	-0.090
2020/01/31 14:39:56.8	359.730	-0.240	-0.380	-0.070
2020/01/31 14:39:56.9	359.710	-0.230	-0.370	-0.060
2020/01/31 14:39:57.0	359.680	-0.220	-0.370	-0.050
2020/01/31 14:39:57.1	359.660	-0.200	-0.370	-0.040
2020/01/31 14:39:57.2	359.640	-0.190	-0.360	-0.020
2020/01/31 14:39:57.3	359.630	-0.170	-0.370	-0.010
2020/01/31 14:39:57.4	359.610	-0.150	-0.370	-0.000
2020/01/31 14:39:57.5	359.600	-0.130	-0.370	0.010
2020/01/31 14:39:57.6	359.590	-0.110	-0.380	0.020
2020/01/31 14:39:57.7	359.570	-0.080	-0.390	0.030
2020/01/31 14:39:57.8	359.570	-0.060	-0.410	0.030
2020/01/31 14:39:57.9	359.570	-0.030	-0.420	0.040
2020/01/31 14:39:58.0	359.570	-0.010	-0.440	0.030
2020/01/31 14:39:58.1	359.580	0.020	-0.470	0.030
2020/01/31 14:39:58.2	359.590	0.050	-0.490	0.020
2020/01/31 14:39:58.3	359.610	0.070	-0.520	0.010
2020/01/31 14:39:58.4	359.630	0.100	-0.550	-0.010
2020/01/31 14:39:58.5	359.650	0.130	-0.590	-0.030
2020/01/31 14:39:58.6	359.680	0.160	-0.620	-0.060
2020/01/31 14:39:58.7	359.700	0.180	-0.660	-0.100
2020/01/31 14:39:58.8	359.730	0.210	-0.700	-0.130
2020/01/31 14:39:58.9	359.770	0.230	-0.730	-0.170
2020/01/31 14:39:59.0	359.810	0.250	-0.770	-0.210
2020/01/31 14:39:59.1	359.850	0.280	-0.800	-0.240
2020/01/31 14:39:59.2	359.890	0.290	-0.830	-0.280
2020/01/31 14:39:59.3	359.920	0.310	-0.860	-0.320
2020/01/31 14:39:59.4	359.960	0.320	-0.880	-0.350
2020/01/31 14:39:59.5	0.000	0.340	-0.900	-0.390
2020/01/31 14:39:59.6	0.030	0.340	-0.910	-0.420
2020/01/31 14:39:59.7	0.060	0.350	-0.920	-0.450
2020/01/31 14:39:59.8	0.090	0.350	-0.920	-0.480
2020/01/31 14:39:59.9	0.120	0.350	-0.920	-0.510
2020/01/31 14:40:00.0	0.150	0.340	-0.910	-0.540
2020/01/31 14:40:00.1	0.170	0.340	-0.890	-0.560
2020/01/31 14:40:00.2	0.200	0.330	-0.870	-0.580
2020/01/31 14:40:00.3	0.220	0.310	-0.840	-0.600
2020/01/31 14:40:00.4	0.240	0.300	-0.810	-0.610
2020/01/31 14:40:00.5	0.250	0.280	-0.770	-0.620
2020/01/31 14:40:00.6	0.270	0.250	-0.720	-0.630
2020/01/31 14:40:00.7	0.290	0.230	-0.670	-0.640
2020/01/31 14:40:00.8	0.300	0.200	-0.620	-0.640
2020/01/31 14:40:00.9	0.310	0.170	-0.560	-0.640
2020/01/31 14:40:01.0	0.310	0.140	-0.500	-0.630
2020/01/31 14:40:01.1	0.320	0.110	-0.440	-0.630
2020/01/31 14:40:01.2	0.330	0.070	-0.380	-0.620
2020/01/31 14:40:01.3	0.330	0.040	-0.320	-0.610
2020/01/31 14:40:01.4	0.330	0.010	-0.250	-0.590
2020/01/31 14:40:01.5	0.330	-0.030	-0.190	-0.580
2020/01/31 14:40:01.6	0.340	-0.060	-0.120	-0.570
2020/01/31 14:40:01.7	0.340	-0.090	-0.060	-0.550
2020/01/31 14:40:01.8	0.340	-0.120	0.000	-0.540
2020/01/31 14:40:01.9	0.340	-0.150	0.060	-0.520
2020/01/31 14:40:02.0	0.340	-0.180	0.120	-0.500
2020/01/31 14:40:02.1	0.340	-0.210	0.170	-0.480
2020/01/31 14:40:02.2	0.340	-0.230	0.220	-0.460
2020/01/31 14:40:02.3	0.340	-0.250	0.270	-0.440
2020/01/31 14:40:02.4	0.340	-0.270	0.310	-0.420
2020/01/31 14:40:02.5	0.330	-0.280	0.350	-0.400
2020/01/31 14:40:02.6	0.330	-0.290	0.380	-0.370
2020/01/31 14:40:02.7	0.330	-0.300	0.420	-0.350
2020/01/31 14:40:02.8	0.320	-0.300	0.450	-0.320
2020/01/31 14:40:02.9	0.320	-0.300	0.470	-0.290
2020/01/31 14:40:03.0	0.310	-0.300	0.490	-0.260
2020/01/31 14:40:03.1	0.300	-0.290	0.510	-0.220
2020/01/31 14:40:03.2	0.290	-0.280	0.530	-0.180
2020/01/31 14:40:03.3	0.270	-0.270	0.540	-0.150
2020/01/31 14:40:03.4	0.260	-0.250	0.540	-0.110
2020/01/31 14:40:03.5	0.240	-0.230	0.550	-0.070
2020/01/31 14:40:03.6	0.230	-0.210	0.550	-0.030
2020/01/31 14:40:03.7	0.210	-0.180	0.550	0.020
2020/01/31 14:40:03.8	0.190	-0.160	0.550	0.060
2020/01/31 14:40:03.9	0.170	-0.130	0.540	0.100
2020/01/31 14:40:04.0	0.150	-0.100	0.530	0.140
2020/01/31 14:40:04.1	0.130	-0.070	0.510	0.180
2020/01/31 14:40:04.2	0.100	-0.040	0.500	0.220
2020/01/31 14:40:04.3	0.080	-0.010	0.480	0.250
2020/01/31 14:40:04.4	0.050	0.020	0.460	0.290
2020/01/31 14:40:04.5	0.020	0.050	0.430	0.320
2020/01/31 14:40:04.6	0.000	0.080	0.410	0.350
2020/01/31 14:40:04.7	359.970	0.110	0.380	0.380
2020/01/31 14:40:04.8	359.940	0.140	0.350	0.400
2020/01/31 14:40:04.9	359.910	0.170	0.320	0.430
2020/01/31 14:40:05.0	359.880	0.190	0.290	0.450
2020/01/31 14:40:05.1	359.850	0.210	0.250	0.460
2020/01/31 14:40:05.2	359.820	0.230	0.220	0.480
2020/01/31 14:40:05.3	359.790	0.250	0.180	0.490
2020/01/31 14:40:05.4	359.750	0.260	0.140	0.500
2020/01/31 14:40:05.5	359.720	0.280	0.100	0.510
2020/01/31 14:40:05.6	359.690	0.290	0.060	0.510
2020/01/31 14:40:05.7	359.670	0.290	0.030	0.500
2020/01/31 14:40:05.8	359.640	0.300	-0.020	0.500
2020/01/31 14:40:05.9	359.620	0.300	-0.060	0.490
2020/01/31 14:40:06.0	359.590	0.300	-0.100	0.480
2020/01/31 14:40:06.1	359.570	0.300	-0.150	0.460
2020/01/31 14:40:06.2	359.550	0.300	-0.200	0.440
2020/01/31 14:40:06.3	359.530	0.290	-0.240	0.420
2020/01/31 14:40:06.4	359.510	0.280	-0.290	0.400
2020/01/31 14:40:06.5	359.500	0.270	-0.340	0.380
2020/01/31 14:40:06.6	359.490	0.260	-0.380	0.350
2020/01/31 14:40:06.7	359.470	0.250	-0.430	0.320
2020/01/31 14:40:06.8	359.460	0.240	-0.470	0.290
2020/01/31 14:40:06.9	359.460	0.230	-0.510	0.260
2020/01/31 14:40:07.0	359.460	0.210	-0.550	0.220
2020/01/31 14:40:07.1	359.460	0.200	-0.590	0.180
2020/01/31 14:40:07.2	359.470	0.180	-0.630	0.140
2020/01/31 14:40:07.3	359.480	0.160	-0.670	0.100
2020/01/31 14:40:07.4	359.490	0.150	-0.700	0.050
2020/01/31 14:40:07.5	359.500	0.130	-0.730	0.010
2020/01/31 14:40:07.6	359.520	0.120	-0.760	-0.050
2020/01/31 14:40:07.7	359.520	0.100	-0.790	-0.110
2020/01/31 14:40:07.8	359.550	0.080	-0.810	-0.160
2020/01/31 14:40:07.9	359.570	0.070	-0.830	-0.220
2020/01/31 14:40:08.0	359.600	0.050	-0.850	-0.290
2020/01/31 14:40:08.1	359.630	0.040	-0.870	-0.350
2020/01/31 14:40:08.2	359.670	0.020	-0.880	-0.410
2020/01/31 14:40:08.3	359.700	0.010	-0.890	-0.480
2020/01/31 14:40:08.4	359.740	-0.000	-0.890	-0.540
2020/01/31 14:40:08.5	359.780	-0.010	-0.900	-0.600
2020/01/31 14:40:08.6	359.820	-0.030	-0.900	-0.660
2020/01/31 14:40:08.7	359.850	-0.030	-0.900	-0.720
2020/01/31 14:40:08.8	359.890	-0.040	-0.890	-0.770
2020/01/31 14:40:08.9	359.930	-0.050	-0.880	-0.820
2020/01/31 14:40:09.0	359.970	-0.060	-0.870	-0.860
2020/01/31 14:40:09.1	0.010	-0.070	-0.850	-0.900
2020/01/31 14:40:09.2	0.050	-0.080	-0.830	-0.940
2020/01/31 14:40:09.3	0.080	-0.080	-0.810	-0.970
2020/01/31 14:40:09.4	0.110	-0.090	-0.790	-0.990
2020/01/31 14:40:09.5	0.150	-0.100	-0.760	-1.010
2020/01/31 14:40:09.6	0.170	-0.100	-0.730	-1.020
2020/01/31 14:40:09.7	0.200	-0.110	-0.690	-1.020
2020/01/31 14:40:09.8	0.220	-0.120	-0.660	-1.020
2020/01/31 14:40:09.9	0.240	-0.130	-0.620	-1.020
2020/01/31 14:40:10.0	0.250	-0.140	-0.580	-1.010
2020/01/31 14:40:10.1	0.260	-0.150	-0.540	-1.000
2020/01/31 14:40:10.2	0.270	-0.160	-0.500	-0.990
2020/01/31 14:40:10.3	0.270	-0.170	-0.460	-0.970
2020/01/31 14:40:10.4	0.270	-0.180	-0.420	-0.950
2020/01/31 14:40:10.5	0.260	-0.200	-0.380	-0.930
2020/01/31 14:40:10.6	0.260	-0.210	-0.340	-0.910
2020/01/31 14:40:10.7	0.230	-0.220	-0.300	-0.890
2020/01/31 14:40:10.8	0.220	-0.240	-0.260	-0.860
2020/01/31 14:40:10.9	0.200	-0.250	-0.230	-0.840
2020/01/31 14:40:11.0	0.180	-0.260	-0.190	-0.810
2020/01/31 14:40:11.1	0.160	-0.280	-0.160	-0.790
2020/01/31 14:40:11.2	0.140	-0.290	-0.130	-0.760
2020/01/31 14:40:11.3	0.110	-0.300	-0.100	-0.740
2020/01/31 14:40:11.4	0.090	-0.320	-0.070	-0.710
2020/01/31 14:40:11.5	0.060	-0.330	-0.050	-0.680
2020/01/31 14:40:11.6	0.040	-0.340	-0.030	-0.660
2020/01/31 14:40:11.7	0.020	-0.350	-0.000	-0.630
2020/01/31 14:40:11.8	359.990	-0.350	0.010	-0.610
2020/01/31 14:40:11.9	359.970	-0.360	0.020	-0.580
2020/01/31 14:40:12.0	359.950	-0.360	0.030	-0.550
2020/01/31 14:40:12.1	359.940	-0.360	0.040	-0.530
2020/01/31 14:40:12.2	359.920	-0.360	0.040	-0.500
2020/01/31 14:40:12.3	359.910	-0.350	0.040	-0.480
2020/01/31 14:40:12.4	359.900	-0.350	0.040	-0.450
2020/01/31 14:40:12.5	359.900	-0.340	0.030	-0.430
2020/01/31 14:40:12.6	359.900	-0.320	0.020	-0.410
2020/01/31 14:40:12.7	359.900	-0.310	0.010	-0.390
2020/01/31 14:40:12.8	359.900	-0.290	-0.010	-0.360
2020/01/31 14:40:12.9	359.910	-0.270	-0.020	-0.340
2020/01/31 14:40:13.0	359.920	-0.250	-0.040	-0.320
2020/01/31 14:40:13.1	359.930	-0.220	-0.060	-0.310
2020/01/31 14:40:13.2	359.940	-0.190	-0.080	-0.290
2020/01/31 14:40:13.3	359.960	-0.170	-0.100	-0.270
2020/01/31 14:40:13.4	359.970	-0.140	-0.130	-0.250
2020/01/31 14:40:13.5	359.990	-0.110	-0.150	-0.240
2020/01/31 14:40:13.6	0.000	-0.080	-0.170	-0.220
2020/01/31 14:40:13.7	0.010	-0.040	-0.190	-0.210
2020/01/31 14:40:13.8	0.020	-0.010	-0.210	-0.200
2020/01/31 14:40:13.9	0.040	0.020	-0.230	-0.180
2020/01/31 14:40:14.0	0.050	0.050	-0.250	-0.170
2020/01/31 14:40:14.1	0.060	0.080	-0.260	-0.150
2020/01/31 14:40:14.2	0.070	0.110	-0.280	-0.130
2020/01/31 14:40:14.3	0.080	0.130	-0.290	-0.120
2020/01/31 14:40:14.4	0.090	0.160	-0.290	-0.100
2020/01/31 14:40:14.5	0.090	0.190	-0.300	-0.080
2020/01/31 14:40:14.6	0.090	0.210	-0.290	-0.060
2020/01/31 14:40:14.7	0.080	0.230	-0.290	-0.040
2020/01/31 14:40:14.8	0.080	0.250	-0.280	-0.010
2020/01/31 14:40:14.9	0.080	0.270	-0.270	0.010
2020/01/31 14:40:15.0	0.080	0.280	-0.260	0.040
2020/01/31 14:40:15.1	0.070	0.290	-0.240	0.070
2020/01/31 14:40:15.2	0.060	0.300	-0.220	0.100
2020/01/31 14:40:15.3	0.060	0.310	-0.190	0.130
2020/01/31 14:40:15.4	0.050	0.320	-0.170	0.160
2020/01/31 14:40:15.5	0.040	0.320	-0.140	0.190
2020/01/31 14:40:15.6	0.030	0.320	-0.120	0.220
2020/01/31 14:40:15.7	0.020	0.320	-0.090	0.240
2020/01/31 14:40:15.8	0.010	0.310	-0.060	0.270
2020/01/31 14:40:15.9	0.000	0.310	-0.030	0.300
2020/01/31 14:40:16.0	359.990	0.300	-0.010	0.320
2020/01/31 14:40:16.1	359.980	0.290	0.020	0.340
2020/01/31 14:40:16.2	359.970	0.270	0.040	0.360
2020/01/31 14:40:16.3	359.950	0.260	0.060	0.380
2020/01/31 14:40:16.4	359.940	0.250	0.080	0.390
2020/01/31 14:40:16.5	359.930	0.230	0.100	0.410
2020/01/31 14:40:16.6	359.910	0.210	0.110	0.420
2020/01/31 14:40:16.7	359.900	0.190	0.120	0.420
2020/01/31 14:40:16.8	359.880	0.170	0.130	0.430
2020/01/31 14:40:16.9	359.860	0.150	0.140	0.440
2020/01/31 14:40:17.0	359.840	0.130	0.140	0.440
2020/01/31 14:40:17.1	359.820	0.110	0.140	0.440
2020/01/31 14:40:17.2	359.800	0.090	0.130	0.440
2020/01/31 14:40:17.3	359.770	0.070	0.120	0.440
2020/01/31 14:40:17.4	359.750	0.050	0.110	0.430
2020/01/31 14:40:17.5	359.730	0.030	0.100	0.430
2020/01/31 14:40:17.6	359.700	0.010	0.080	0.420
2020/01/31 14:40:17.7	359.680	-0.000	0.060	0.390
2020/01/31 14:40:17.8	359.650	-0.020	0.040	0.370
2020/01/31 14:40:17.9	359.630	-0.040	0.010	0.350
2020/01/31 14:40:18.0	359.620	-0.050	-0.020	0.320
2020/01/31 14:40:18.1	359.600	-0.060	-0.050	0.290
2020/01/31 14:40:18.2	359.580	-0.080	-0.080	0.260
2020/01/31 14:40:18.3	359.570	-0.090	-0.120	0.210
2020/01/31 14:40:18.4	359.560	-0.090	-0.150	0.170
2020/01/31 14:40:18.5	359.560	-0.100	-0.190	0.120
2020/01/31 14:40:18.6	359.550	-0.110	-0.230	0.070
2020/01/31 14:40:18.7	359.570	-0.110	-0.270	0.010
2020/01/31 14:40:18.8	359.570	-0.110	-0.310	-0.050
2020/01/31 14:40:18.9	359.580	-0.110	-0.360	-0.110
2020/01/31 14:40:19.0	359.590	-0.110	-0.400	-0.170
2020/01/31 14:40:19.1	359.600	-0.100	-0.440	-0.230
2020/01/31 14:40:19.2	359.610	-0.090	-0.480	-0.290
2020/01/31 14:40:19.3	359.630	-0.080	-0.520	-0.360
2020/01/31 14:40:19.4	359.650	-0.070	-0.560	-0.420
2020/01/31 14:40:19.5	359.680	-0.060	-0.600	-0.480
2020/01/31 14:40:19.6	359.700	-0.050	-0.630	-0.540
2020/01/31 14:40:19.7	359.710	-0.040	-0.670	-0.600
2020/01/31 14:40:19.8	359.730	-0.020	-0.700	-0.650
2020/01/31 14:40:19.9	359.760	-0.010	-0.720	-0.700
2020/01/31 14:40:20.0	359.790	0.010	-0.750	-0.750
2020/01/31 14:40:20.1	359.820	0.030	-0.770	-0.790
2020/01/31 14:40:20.2	359.850	0.040	-0.780	-0.830
2020/01/31 14:40:20.3	359.870	0.060	-0.790	-0.870
2020/01/31 14:40:20.4	359.900	0.070	-0.800	-0.900
2020/01/31 14:40:20.5	359.920	0.080	-0.800	-0.920
2020/01/31 14:40:20.6	359.940	0.100	-0.800	-0.940
2020/01/31 14:40:20.7	359.970	0.110	-0.790	-0.960
2020/01/31 14:40:20.8	359.980	0.110	-0.780	-0.980
2020/01/31 14:40:20.9	359.990	0.120	-0.760	-0.980
2020/01/31 14:40:21.0	359.990	0.120	-0.730	-0.990
2020/01/31 14:40:21.1	0.000	0.130	-0.710	-0.990
2020/01/31 14:40:21.2	359.990	0.130	-0.670	-0.980
2020/01/31 14:40:21.3	359.980	0.120	-0.640	-0.970
2020/01/31 14:40:21.4	359.970	0.120	-0.600	-0.960
2020/01/31 14:40:21.5	359.960	0.110	-0.560	-0.940
2020/01/31 14:40:21.6	359.940	0.100	-0.510	-0.930
2020/01/31 14:40:21.7	359.930	0.090	-0.470	-0.910
2020/01/31 14:40:21.8	359.910	0.080	-0.420	-0.880
2020/01/31 14:40:21.9	359.880	0.060	-0.370	-0.860
2020/01/31 14:40:22.0	359.860	0.050	-0.320	-0.830
2020/01/31 14:40:22.1	359.830	0.030	-0.270	-0.790
2020/01/31 14:40:22.2	359.810	0.020	-0.220	-0.760
2020/01/31 14:40:22.3	359.780	-0.000	-0.170	-0.730
2020/01/31 14:40:22.4	359.750	-0.020	-0.130	-0.690
2020/01/31 14:40:22.5	359.730	-0.040	-0.090	-0.650
2020/01/31 14:40:22.6	359.710	-0.050	-0.050	-0.610
2020/01/31 14:40:22.7	359.690	-0.070	-0.010	-0.570
2020/01/31 14:40:22.8	359.670	-0.080	0.030	-0.530
2020/01/31 14:40:22.9	359.650	-0.090	0.050	-0.500
2020/01/31 14:40:23.0	359.640	-0.100	0.080	-0.460
2020/01/31 14:40:23.1	359.640	-0.110	0.090	-0.420
2020/01/31 14:40:23.2	359.630	-0.110	0.110	-0.390
2020/01/31 14:40:23.3	359.640	-0.110	0.110	-0.360
2020/01/31 14:40:23.4	359.640	-0.110	0.110	-0.330
2020/01/31 14:40:23.5	359.650	-0.110	0.100	-0.310
2020/01/31 14:40:23.6	359.660	-0.100	0.090	-0.280
2020/01/31 14:40:23.7	359.670	-0.090	0.070	-0.270
2020/01/31 14:40:23.8	359.690	-0.070	0.050	-0.250
2020/01/31 14:40:23.9	359.710	-0.060	0.020	-0.230
2020/01/31 14:40:24.0	359.740	-0.040	-0.010	-0.210
2020/01/31 14:40:24.1	359.760	-0.020	-0.040	-0.200
2020/01/31 14:40:24.2	359.780	-0.000	-0.080	-0.180
2020/01/31 14:40:24.3	359.810	0.020	-0.110	-0.170
2020/01/31 14:40:24.4	359.830	0.040	-0.150	-0.160
2020/01/31 14:40:24.5	359.860	0.060	-0.190	-0.150
2020/01/31 14:40:24.6	359.880	0.090	-0.220	-0.140
2020/01/31 14:40:24.7	359.880	0.110	-0.250	-0.130
2020/01/31 14:40:24.8	359.900	0.130	-0.270	-0.130
2020/01/31 14:40:24.9	359.910	0.140	-0.300	-0.120
2020/01/31 14:40:25.0	359.930	0.160	-0.320	-0.110
2020/01/31 14:40:25.1	359.940	0.170	-0.330	-0.100
2020/01/31 14:40:25.2	359.950	0.180	-0.340	-0.090
2020/01/31 14:40:25.3	359.950	0.190	-0.350	-0.080
2020/01/31 14:40:25.4	359.960	0.190	-0.350	-0.080
2020/01/31 14:40:25.5	359.960	0.190	-0.350	-0.070
2020/01/31 14:40:25.6	359.950	0.190	-0.340	-0.060
2020/01/31 14:40:25.7	359.940	0.180	-0.330	-0.050
2020/01/31 14:40:25.8	359.940	0.170	-0.320	-0.050
2020/01/31 14:40:25.9	359.930	0.150	-0.300	-0.040
2020/01/31 14:40:26.0	359.910	0.140	-0.290	-0.040
2020/01/31 14:40:26.1	359.900	0.110	-0.270	-0.030
2020/01/31 14:40:26.2	359.880	0.090	-0.250	-0.030
2020/01/31 14:40:26.3	359.860	0.060	-0.230	-0.030
2020/01/31 14:40:26.4	359.840	0.040	-0.200	-0.030
2020/01/31 14:40:26.5	359.820	0.000	-0.180	-0.030
2020/01/31 14:40:26.6	359.800	-0.030	-0.160	-0.030
2020/01/31 14:40:26.7	359.790	-0.060	-0.150	-0.050
2020/01/31 14:40:26.8	359.770	-0.100	-0.130	-0.060
2020/01/31 14:40:26.9	359.750	-0.130	-0.110	-0.070
2020/01/31 14:40:27.0	359.740	-0.170	-0.100	-0.080
2020/01/31 14:40:27.1	359.720	-0.200	-0.090	-0.090
2020/01/31 14:40:27.2	359.700	-0.230	-0.090	-0.110
2020/01/31 14:40:27.3	359.690	-0.270	-0.090	-0.120
2020/01/31 14:40:27.4	359.670	-0.290	-0.090	-0.140
2020/01/31 14:40:27.5	359.660	-0.320	-0.090	-0.160
2020/01/31 14:40:27.6	359.650	-0.350	-0.090	-0.180
2020/01/31 14:40:27.7	359.640	-0.370	-0.100	-0.200
2020/01/31 14:40:27.8	359.630	-0.390	-0.110	-0.230
2020/01/31 14:40:27.9	359.620	-0.400	-0.120	-0.250
2020/01/31 14:40:28.0	359.610	-0.410	-0.140	-0.270
2020/01/31 14:40:28.1	359.610	-0.420	-0.160	-0.290
2020/01/31 14:40:28.2	359.600	-0.420	-0.170	-0.320
2020/01/31 14:40:28.3	359.590	-0.420	-0.190	-0.340
2020/01/31 14:40:28.4	359.590	-0.410	-0.220	-0.360
2020/01/31 14:40:28.5	359.590	-0.400	-0.240	-0.390
2020/01/31 14:40:28.6	359.590	-0.380	-0.260	-0.410
2020/01/31 14:40:28.7	359.600	-0.360	-0.280	-0.440
2020/01/31 14:40:28.8	359.600	-0.340	-0.310	-0.470
2020/01/31 14:40:28.9	359.610	-0.310	-0.330	-0.500
2020/01/31 14:40:29.0	359.620	-0.280	-0.360	-0.520
2020/01/31 14:40:29.1	359.630	-0.240	-0.380	-0.550
2020/01/31 14:40:29.2	359.640	-0.200	-0.400	-0.570
2020/01/31 14:40:29.3	359.660	-0.160	-0.430	-0.590
2020/01/31 14:40:29.4	359.670	-0.120	-0.450	-0.620
2020/01/31 14:40:29.5	359.690	-0.070	-0.460	-0.640
2020/01/31 14:40:29.6	359.710	-0.020	-0.480	-0.650
2020/01/31 14:40:29.7	359.730	0.020	-0.490	-0.670
2020/01/31 14:40:29.8	359.750	0.070	-0.500	-0.680
2020/01/31 14:40:29.9	359.760	0.120	-0.510	-0.690
2020/01/31 14:40:30.0	359.770	0.160	-0.510	-0.690
2020/01/31 14:40:30.1	359.780	0.200	-0.510	-0.690
2020/01/31 14:40:30.2	359.780	0.250	-0.510	-0.680
2020/01/31 14:40:30.3	359.780	0.280	-0.500	-0.670
2020/01/31 14:40:30.4	359.780	0.320	-0.480	-0.650
2020/01/31 14:40:30.5	359.780	0.350	-0.460	-0.630
2020/01/31 14:40:30.6	359.770	0.380	-0.440	-0.600
2020/01/31 14:40:30.7	359.760	0.400	-0.410	-0.580
2020/01/31 14:40:30.8	359.740	0.420	-0.380	-0.540
2020/01/31 14:40:30.9	359.720	0.430	-0.340	-0.510
2020/01/31 14:40:31.0	359.700	0.440	-0.300	-0.470
2020/01/31 14:40:31.1	359.680	0.450	-0.250	-0.430
2020/01/31 14:40:31.2	359.650	0.440	-0.210	-0.390
2020/01/31 14:40:31.3	359.630	0.440	-0.150	-0.350
2020/01/31 14:40:31.4	359.600	0.430	-0.100	-0.310
2020/01/31 14:40:31.5	359.580	0.410	-0.050	-0.270
2020/01/31 14:40:31.6	359.550	0.390	-0.000	-0.220
2020/01/31 14:40:31.7	359.520	0.370	0.050	-0.180
2020/01/31 14:40:31.8	359.490	0.340	0.100	-0.150
2020/01/31 14:40:31.9	359.470	0.310	0.150	-0.110
2020/01/31 14:40:32.0	359.440	0.270	0.190	-0.080
2020/01/31 14:40:32.1	359.420	0.240	0.230	-0.040
2020/01/31 14:40:32.2	359.400	0.200	0.260	-0.010
2020/01/31 14:40:32.3	359.390	0.160	0.290	0.010
2020/01/31 14:40:32.4	359.370	0.120	0.310	0.040
2020/01/31 14:40:32.5	359.360	0.080	0.330	0.060
2020/01/31 14:40:32.6	359.350	0.040	0.330	0.080
2020/01/31 14:40:32.7	359.370	0.010	0.330	0.090
2020/01/31 14:40:32.8	359.370	-0.030	0.330	0.100
2020/01/31 14:40:32.9	359.370	-0.060	0.320	0.110
2020/01/31 14:40:33.0	359.370	-0.090	0.300	0.120
2020/01/31 14:40:33.1	359.380	-0.120	0.270	0.120
2020/01/31 14:40:33.2	359.390	-0.140	0.240	0.120
2020/01/31 14:40:33.3	359.400	-0.170	0.210	0.120
2020/01/31 14:40:33.4	359.410	-0.180	0.170	0.120
2020/01/31 14:40:33.5	359.430	-0.200	0.120	0.110
2020/01/31 14:40:33.6	359.440	-0.210	0.070	0.100
2020/01/31 14:40:33.7	359.460	-0.220	0.030	0.100
2020/01/31 14:40:33.8	359.480	-0.220	-0.030	0.090
2020/01/31 14:40:33.9	359.500	-0.220	-0.090	0.080
2020/01/31 14:40:34.0	359.520	-0.220	-0.140	0.070
2020/01/31 14:40:34.1	359.540	-0.210	-0.200	0.060
2020/01/31 14:40:34.2	359.560	-0.210	-0.260	0.040
2020/01/31 14:40:34.3	359.580	-0.200	-0.320	0.030
2020/01/31 14:40:34.4	359.590	-0.190	-0.380	0.020
2020/01/31 14:40:34.5	359.610	-0.170	-0.430	0.010
2020/01/31 14:40:34.6	359.620	-0.160	-0.490	0.000
2020/01/31 14:40:34.7	359.620	-0.140	-0.540	-0.010
2020/01/31 14:40:34.8	359.630	-0.120	-0.590	-0.020
2020/01/31 14:40:34.9	359.640	-0.100	-0.640	-0.030
2020/01/31 14:40:35.0	359.650	-0.090	-0.680	-0.040
2020/01/31 14:40:35.1	359.650	-0.070	-0.720	-0.050
2020/01/31 14:40:35.2	359.660	-0.050	-0.760	-0.060
2020/01/31 14:40:35.3	359.670	-0.030	-0.790	-0.070
2020/01/31 14:40:35.4	359.670	-0.010	-0.820	-0.080
2020/01/31 14:40:35.5	359.670	0.010	-0.850	-0.090
2020/01/31 14:40:35.6	359.680	0.020	-0.870	-0.100
2020/01/31 14:40:35.7	359.680	0.040	-0.880	-0.120
2020/01/31 14:40:35.8	359.690	0.050	-0.890	-0.140
2020/01/31 14:40:35.9	359.690	0.070	-0.900	-0.150
2020/01/31 14:40:36.0	359.700	0.080	-0.900	-0.170
2020/01/31 14:40:36.1	359.710	0.090	-0.900	-0.180
2020/01/31 14:40:36.2	359.720	0.100	-0.890	-0.200
2020/01/31 14:40:36.3	359.730	0.100	-0.880	-0.210
2020/01/31 14:40:36.4	359.740	0.110	-0.870	-0.230
2020/01/31 14:40:36.5	359.750	0.110	-0.850	-0.240
2020/01/31 14:40:36.6	359.760	0.120	-0.830	-0.260
2020/01/31 14:40:36.7	359.770	0.120	-0.800	-0.280
2020/01/31 14:40:36.8	359.790	0.120	-0.770	-0.290
2020/01/31 14:40:36.9	359.800	0.110	-0.740	-0.300
2020/01/31 14:40:37.0	359.820	0.110	-0.710	-0.320
2020/01/31 14:40:37.1	359.840	0.110	-0.670	-0.330
2020/01/31 14:40:37.2	359.850	0.100	-0.630	-0.350
2020/01/31 14:40:37.3	359.870	0.100	-0.590	-0.360
2020/01/31 14:40:37.4	359.890	0.090	-0.550	-0.370
2020/01/31 14:40:37.5	359.900	0.080	-0.500	-0.380
2020/01/31 14:40:37.6	359.920	0.070	-0.460	-0.400
2020/01/31 14:40:37.7	359.940	0.070	-0.410	-0.410
2020/01/31 14:40:37.8	359.960	0.060	-0.370	-0.420
2020/01/31 14:40:37.9	359.970	0.050	-0.320	-0.430
2020/01/31 14:40:38.0	359.980	0.040	-0.280	-0.440
2020/01/31 14:40:38.1	0.000	0.030	-0.230	-0.450
2020/01/31 14:40:38.2	0.010	0.020	-0.190	-0.460
2020/01/31 14:40:38.3	0.020	0.010	-0.140	-0.470
2020/01/31 14:40:38.4	0.030	-0.000	-0.100	-0.480
2020/01/31 14:40:38.5	0.040	-0.010	-0.060	-0.490
2020/01/31 14:40:38.6	0.050	-0.020	-0.020	-0.490
2020/01/31 14:40:38.7	0.060	-0.030	0.010	-0.500
2020/01/31 14:40:38.8	0.070	-0.040	0.050	-0.510
2020/01/31 14:40:38.9	0.080	-0.050	0.080	-0.510
2020/01/31 14:40:39.0	0.080	-0.060	0.100	-0.510
2020/01/31 14:40:39.1	0.090	-0.070	0.130	-0.520
2020/01/31 14:40:39.2	0.100	-0.070	0.150	-0.520
2020/01/31 14:40:39.3	0.110	-0.080	0.160	-0.520
2020/01/31 14:40:39.4	0.110	-0.090	0.170	-0.520
2020/01/31 14:40:39.5	0.120	-0.100	0.180	-0.520
2020/01/31 14:40:39.6	0.120	-0.100	0.180	-0.520
2020/01/31 14:40:39.7	0.130	-0.110	0.180	-0.510
2020/01/31 14:40:39.8	0.130	-0.110	0.180	-0.510
2020/01/31 14:40:39.9	0.130	-0.120	0.170	-0.500
2020/01/31 14:40:40.0	0.140	-0.120	0.160	-0.500
2020/01/31 14:40:40.1	0.140	-0.130	0.140	-0.490
2020/01/31 14:40:40.2	0.140	-0.130	0.120	-0.480
2020/01/31 14:40:40.3	0.140	-0.130	0.100	-0.470
2020/01/31 14:40:40.4	0.140	-0.130	0.070	-0.470
2020/01/31 14:40:40.5	0.150	-0.130	0.050	-0.460
2020/01/31 14:40:40.6	0.150	-0.130	0.020	-0.450
2020/01/31 14:40:40.7	0.130	-0.130	-0.010	-0.450
2020/01/31 14:40:40.8	0.130	-0.130	-0.040	-0.440
2020/01/31 14:40:40.9	0.140	-0.130	-0.070	-0.430
2020/01/31 14:40:41.0	0.140	-0.130	-0.100	-0.430
2020/01/31 14:40:41.1	0.140	-0.130	-0.120	-0.420
2020/01/31 14:40:41.2	0.140	-0.130	-0.150	-0.410
2020/01/31 14:40:41.3	0.150	-0.120	-0.180	-0.410
2020/01/31 14:40:41.4	0.150	-0.120	-0.200	-0.400
2020/01/31 14:40:41.5	0.150	-0.110	-0.220	-0.390
2020/01/31 14:40:41.6	0.160	-0.110	-0.240	-0.380
2020/01/31 14:40:41.7	0.150	-0.100	-0.260	-0.370
2020/01/31 14:40:41.8	0.160	-0.100	-0.270	-0.360
2020/01/31 14:40:41.9	0.160	-0.090	-0.280	-0.350
2020/01/31 14:40:42.0	0.160	-0.080	-0.290	-0.330
2020/01/31 14:40:42.1	0.170	-0.080	-0.290	-0.320
2020/01/31 14:40:42.2	0.170	-0.070	-0.280	-0.300
2020/01/31 14:40:42.3	0.170	-0.060	-0.280	-0.280
2020/01/31 14:40:42.4	0.170	-0.060	-0.270	-0.260
2020/01/31 14:40:42.5	0.170	-0.050	-0.260	-0.230
2020/01/31 14:40:42.6	0.160	-0.040	-0.240	-0.200
2020/01/31 14:40:42.7	0.150	-0.040	-0.220	-0.180
2020/01/31 14:40:42.8	0.140	-0.030	-0.190	-0.150
2020/01/31 14:40:42.9	0.130	-0.020	-0.170	-0.120
2020/01/31 14:40:43.0	0.120	-0.020	-0.150	-0.090
2020/01/31 14:40:43.1	0.110	-0.010	-0.120	-0.060
2020/01/31 14:40:43.2	0.090	-0.010	-0.090	-0.030
2020/01/31 14:40:43.3	0.080	-0.000	-0.060	0.000
2020/01/31 14:40:43.4	0.060	0.000	-0.040	0.030
2020/01/31 14:40:43.5	0.050	0.000	-0.010	0.060
2020/01/31 14:40:43.6	0.030	0.010	0.010	0.090
2020/01/31 14:40:43.7	0.010	0.010	0.040	0.120
2020/01/31 14:40:43.8	359.990	0.020	0.060	0.140
2020/01/31 14:40:43.9	359.970	0.020	0.070	0.160
2020/01/31 14:40:44.0	359.950	0.020	0.090	0.180
2020/01/31 14:40:44.1	359.930	0.030	0.100	0.200
2020/01/31 14:40:44.2	359.920	0.030	0.110	0.220
2020/01/31 14:40:44.3	359.900	0.040	0.110	0.240
2020/01/31 14:40:44.4	359.890	0.050	0.110	0.250
2020/01/31 14:40:44.5	359.880	0.050	0.100	0.270
2020/01/31 14:40:44.6	359.870	0.060	0.090	0.280
2020/01/31 14:40:44.7	359.850	0.070	0.080	0.280
2020/01/31 14:40:44.8	359.840	0.080	0.060	0.290
2020/01/31 14:40:44.9	359.840	0.090	0.040	0.290
2020/01/31 14:40:45.0	359.840	0.110	0.020	0.300
2020/01/31 14:40:45.1	359.840	0.120	-0.010	0.300
2020/01/31 14:40:45.2	359.840	0.130	-0.040	0.300
2020/01/31 14:40:45.3	359.840	0.140	-0.080	0.300
2020/01/31 14:40:45.4	359.850	0.160	-0.110	0.300
2020/01/31 14:40:45.5	359.860	0.170	-0.150	0.290
2020/01/31 14:40:45.6	359.870	0.180	-0.190	0.290
2020/01/31 14:40:45.7	359.880	0.200	-0.230	0.270
2020/01/31 14:40:45.8	359.900	0.210	-0.280	0.260
2020/01/31 14:40:45.9	359.910	0.220	-0.320	0.240
2020/01/31 14:40:46.0	359.930	0.230	-0.370	0.220
2020/01/31 14:40:46.1	359.940	0.240	-0.410	0.190
2020/01/31 14:40:46.2	359.960	0.250	-0.460	0.160
2020/01/31 14:40:46.3	359.980	0.260	-0.500	0.130
2020/01/31 14:40:46.4	0.000	0.260	-0.540	0.100
2020/01/31 14:40:46.5	0.030	0.260	-0.580	0.060
2020/01/31 14:40:46.6	0.050	0.270	-0.620	0.020
2020/01/31 14:40:46.7	0.080	0.270	-0.660	-0.030
2020/01/31 14:40:46.8	0.110	0.260	-0.690	-0.070
2020/01/31 14:40:46.9	0.130	0.260	-0.720	-0.120
2020/01/31 14:40:47.0	0.160	0.250	-0.750	-0.170
2020/01/31 14:40:47.1	0.190	0.250	-0.770	-0.220
2020/01/31 14:40:47.2	0.220	0.230	-0.790	-0.280
2020/01/31 14:40:47.3	0.250	0.220	-0.810	-0.330
2020/01/31 14:40:47.4	0.280	0.210	-0.820	-0.380
2020/01/31 14:40:47.5	0.310	0.190	-0.830	-0.430
2020/01/31 14:40:47.6	0.340	0.170	-0.840	-0.480
2020/01/31 14:40:47.7	0.370	0.150	-0.830	-0.540
2020/01/31 14:40:47.8	0.400	0.130	-0.830	-0.590
2020/01/31 14:40:47.9	0.430	0.100	-0.820	-0.640
2020/01/31 14:40:48.0	0.460	0.080	-0.810	-0.680
2020/01/31 14:40:48.1	0.490	0.050	-0.790	-0.720
2020/01/31 14:40:48.2	0.510	0.020	-0.770	-0.770
2020/01/31 14:40:48.3	0.540	-0.010	-0.750	-0.810
2020/01/31 14:40:48.4	0.560	-0.040	-0.720	-0.840
2020/01/31 14:40:48.5	0.580	-0.070	-0.690	-0.880
2020/01/31 14:40:48.6	0.600	-0.100	-0.660	-0.910
2020/01/31 14:40:48.7	0.610	-0.130	-0.620	-0.940
2020/01/31 14:40:48.8	0.630	-0.160	-0.580	-0.980
2020/01/31 14:40:48.9	0.640	-0.190	-0.550	-1.000
2020/01/31 14:40:49.0	0.660	-0.220	-0.510	-1.030
2020/01/31 14:40:49.1	0.670	-0.250	-0.470	-1.050
2020/01/31 14:40:49.2	0.680	-0.270	-0.430	-1.080
2020/01/31 14:40:49.3	0.690	-0.300	-0.390	-1.090
2020/01/31 14:40:49.4	0.690	-0.320	-0.350	-1.110
2020/01/31 14:40:49.5	0.700	-0.340	-0.310	-1.130
2020/01/31 14:40:49.6	0.710	-0.360	-0.280	-1.140
2020/01/31 14:40:49.7	0.710	-0.380	-0.240	-1.150
2020/01/31 14:40:49.8	0.720	-0.390	-0.210	-1.150
2020/01/31 14:40:49.9	0.720	-0.400	-0.170	-1.150
2020/01/31 14:40:50.0	0.720	-0.410	-0.140	-1.150
2020/01/31 14:40:50.1	0.720	-0.420	-0.120	-1.140
2020/01/31 14:40:50.2	0.720	-0.420	-0.090	-1.130
2020/01/31 14:40:50.3	0.720	-0.430	-0.060	-1.120
2020/01/31 14:40:50.4	0.710	-0.430	-0.040	-1.100
2020/01/31 14:40:50.5	0.710	-0.420	-0.020	-1.080
2020/01/31 14:40:50.6	0.710	-0.420	-0.000	-1.060
2020/01/31 14:40:50.7	0.700	-0.410	0.010	-1.030
2020/01/31 14:40:50.8	0.700	-0.400	0.030	-1.000
2020/01/31 14:40:50.9	0.690	-0.390	0.040	-0.970
2020/01/31 14:40:51.0	0.680	-0.380	0.050	-0.940
2020/01/31 14:40:51.1	0.670	-0.360	0.060	-0.900
2020/01/31 14:40:51.2	0.660	-0.350	0.060	-0.870
2020/01/31 14:40:51.3	0.650	-0.330	0.070	-0.830
2020/01/31 14:40:51.4	0.640	-0.310	0.070	-0.790
2020/01/31 14:40:51.5	0.630	-0.290	0.070	-0.760
2020/01/31 14:40:51.6	0.620	-0.270	0.070	-0.720
2020/01/31 14:40:51.7	0.620	-0.250	0.060	-0.690
2020/01/31 14:40:51.8	0.610	-0.230	0.050	-0.650
2020/01/31 14:40:51.9	0.600	-0.210	0.040	-0.610
2020/01/31 14:40:52.0	0.590	-0.180	0.020	-0.580
2020/01/31 14:40:52.1	0.590	-0.160	0.010	-0.550
2020/01/31 14:40:52.2	0.580	-0.130	-0.010	-0.510
2020/01/31 14:40:52.3	0.580	-0.100	-0.030	-0.480
2020/01/31 14:40:52.4	0.580	-0.080	-0.050	-0.450
2020/01/31 14:40:52.5	0.580	-0.050	-0.080	-0.420
2020/01/31 14:40:52.6	0.580	-0.020	-0.100	-0.390
2020/01/31 14:40:52.7	0.580	0.010	-0.130	-0.370
2020/01/31 14:40:52.8	0.590	0.050	-0.150	-0.340
2020/01/31 14:40:52.9	0.590	0.080	-0.180	-0.320
2020/01/31 14:40:53.0	0.600	0.110	-0.210	-0.290
2020/01/31 14:40:53.1	0.610	0.140	-0.240	-0.270
2020/01/31 14:40:53.2	0.630	0.170	-0.260	-0.240
2020/01/31 14:40:53.3	0.640	0.210	-0.290	-0.220
2020/01/31 14:40:53.4	0.650	0.240	-0.310	-0.190
2020/01/31 14:40:53.5	0.660	0.270	-0.330	-0.170
2020/01/31 14:40:53.6	0.670	0.300	-0.350	-0.140
2020/01/31 14:40:53.7	0.670	0.320	-0.360	-0.110
2020/01/31 14:40:53.8	0.680	0.350	-0.370	-0.080
2020/01/31 14:40:53.9	0.680	0.370	-0.380	-0.050
2020/01/31 14:40:54.0	0.680	0.390	-0.380	-0.020
2020/01/31 14:40:54.1	0.670	0.410	-0.370	0.020
2020/01/31 14:40:54.2	0.660	0.420	-0.360	0.050
2020/01/31 14:40:54.3	0.650	0.440	-0.350	0.090
2020/01/31 14:40:54.4	0.630	0.450	-0.330	0.120
2020/01/31 14:40:54.5	0.610	0.450	-0.310	0.160
2020/01/31 14:40:54.6	0.580	0.450	-0.280	0.190
2020/01/31 14:40:54.7	0.560	0.450	-0.250	0.230
2020/01/31 14:40:54.8	0.530	0.450	-0.220	0.260
2020/01/31 14:40:54.9	0.500	0.440	-0.190	0.300
2020/01/31 14:40:55.0	0.470	0.430	-0.150	0.330
2020/01/31 14:40:55.1	0.430	0.410	-0.110	0.360
2020/01/31 14:40:55.2	0.400	0.400	-0.080	0.380
2020/01/31 14:40:55.3	0.360	0.380	-0.040	0.410
2020/01/31 14:40:55.4	0.330	0.360	-0.010	0.430
2020/01/31 14:40:55.5	0.290	0.330	0.030	0.440
2020/01/31 14:40:55.6	0.260	0.310	0.060	0.460
2020/01/31 14:40:55.7	0.230	0.280	0.080	0.460
2020/01/31 14:40:55.8	0.200	0.250	0.110	0.460
2020/01/31 14:40:55.9	0.180	0.230	0.130	0.460
2020/01/31 14:40:56.0	0.150	0.200	0.140	0.450
2020/01/31 14:40:56.1	0.140	0.170	0.150	0.440
2020/01/31 14:40:56.2	0.120	0.140	0.150	0.420
2020/01/31 14:40:56.3	0.110	0.120	0.150	0.400
2020/01/31 14:40:56.4	0.110	0.090	0.140	0.370
2020/01/31 14:40:56.5	0.100	0.070	0.120	0.340
2020/01/31 14:40:56.6	0.110	0.040	0.110	0.300
2020/01/31 14:40:56.7	0.110	0.020	0.080	0.260
2020/01/31 14:40:56.8	0.120	0.010	0.050	0.220
2020/01/31 14:40:56.9	0.130	-0.010	0.020	0.170
2020/01/31 14:40:57.0	0.150	-0.020	-0.020	0.120
2020/01/31 14:40:57.1	0.170	-0.030	-0.060	0.070
2020/01/31 14:40:57.2	0.190	-0.040	-0.100	0.010
2020/01/31 14:40:57.3	0.220	-0.050	-0.140	-0.040
2020/01/31 14:40:57.4	0.250	-0.050	-0.190	-0.100
2020/01/31 14:40:57.5	0.280	-0.060	-0.230	-0.160
2020/01/31 14:40:57.6	0.310	-0.060	-0.280	-0.220
2020/01/31 14:40:57.7	0.340	-0.060	-0.320	-0.280
2020/01/31 14:40:57.8	0.380	-0.060	-0.370	-0.340
2020/01/31 14:40:57.9	0.410	-0.050	-0.400	-0.400
2020/01/31 14:40:58.0	0.440	-0.050	-0.440	-0.460
2020/01/31 14:40:58.1	0.470	-0.050	-0.470	-0.510
2020/01/31 14:40:58.2	0.490	-0.050	-0.500	-0.570
2020/01/31 14:40:58.3	0.520	-0.040	-0.520	-0.610
2020/01/31 14:40:58.4	0.540	-0.040	-0.540	-0.660
2020/01/31 14:40:58.5	0.560	-0.040	-0.560	-0.700
2020/01/31 14:40:58.6	0.580	-0.040	-0.570	-0.740
2020/01/31 14:40:58.7	0.610	-0.040	-0.570	-0.780
2020/01/31 14:40:58.8	0.620	-0.040	-0.570	-0.810
2020/01/31 14:40:58.9	0.640	-0.040	-0.570	-0.840
2020/01/31 14:40:59.0	0.650	-0.050	-0.560	-0.860
2020/01/31 14:40:59.1	0.660	-0.050	-0.550	-0.880
2020/01/31 14:40:59.2	0.660	-0.060	-0.530	-0.900
2020/01/31 14:40:59.3	0.670	-0.060	-0.520	-0.910
2020/01/31 14:40:59.4	0.670	-0.070	-0.500	-0.930
2020/01/31 14:40:59.5	0.680	-0.080	-0.470	-0.940
2020/01/31 14:40:59.6	0.690	-0.100	-0.450	-0.940
2020/01/31 14:40:59.7	0.690	-0.110	-0.430	-0.950
2020/01/31 14:40:59.8	0.700	-0.120	-0.410	-0.960
2020/01/31 14:40:59.9	0.710	-0.140	-0.390	-0.960
2020/01/31 14:41:00.0	0.720	-0.150	-0.370	-0.970
2020/01/31 14:41:00.1	0.730	-0.170	-0.350	-0.980
2020/01/31 14:41:00.2	0.750	-0.180	-0.330	-0.990
2020/01/31 14:41:00.3	0.760	-0.190	-0.320	-1.000
2020/01/31 14:41:00.4	0.780	-0.210	-0.310	-1.010
2020/01/31 14:41:00.5	0.800	-0.220	-0.300	-1.020
2020/01/31 14:41:00.6	0.830	-0.230	-0.290	-1.030
2020/01/31 14:41:00.7	0.840	-0.240	-0.290	-1.050
2020/01/31 14:41:00.8	0.860	-0.250	-0.290	-1.060
2020/01/31 14:41:00.9	0.890	-0.260	-0.300	-1.070
2020/01/31 14:41:01.0	0.920	-0.270	-0.310	-1.080
2020/01/31 14:41:01.1	0.940	-0.270	-0.320	-1.090
2020/01/31 14:41:01.2	0.970	-0.280	-0.330	-1.090
2020/01/31 14:41:01.3	0.990	-0.280	-0.340	-1.090
2020/01/31 14:41:01.4	1.020	-0.280	-0.350	-1.090
2020/01/31 14:41:01.5	1.040	-0.280	-0.360	-1.090
2020/01/31 14:41:01.6	1.060	-0.280	-0.370	-1.080
2020/01/31 14:41:01.7	1.070	-0.270	-0.380	-1.070
2020/01/31 14:41:01.8	1.080	-0.270	-0.380	-1.060
2020/01/31 14:41:01.9	1.090	-0.260	-0.390	-1.040
2020/01/31 14:41:02.0	1.100	-0.260	-0.390	-1.020
2020/01/31 14:41:02.1	1.100	-0.250	-0.390	-0.990
2020/01/31 14:41:02.2	1.100	-0.240	-0.390	-0.960
2020/01/31 14:41:02.3	1.100	-0.240	-0.380	-0.930
2020/01/31 14:41:02.4	1.090	-0.230	-0.370	-0.900
2020/01/31 14:41:02.5	1.080	-0.220	-0.360	-0.860
2020/01/31 14:41:02.6	1.060	-0.210	-0.340	-0.810
2020/01/31 14:41:02.7	1.040	-0.210	-0.320	-0.770
2020/01/31 14:41:02.8	1.010	-0.200	-0.290	-0.720
2020/01/31 14:41:02.9	0.990	-0.190	-0.270	-0.660
2020/01/31 14:41:03.0	0.950	-0.180	-0.240	-0.610
2020/01/31 14:41:03.1	0.920	-0.180	-0.210	-0.550
2020/01/31 14:41:03.2	0.880	-0.170	-0.180	-0.490
2020/01/31 14:41:03.3	0.840	-0.160	-0.150	-0.430
2020/01/31 14:41:03.4	0.800	-0.150	-0.120	-0.370
2020/01/31 14:41:03.5	0.760	-0.150	-0.090	-0.320
2020/01/31 14:41:03.6	0.720	-0.140	-0.060	-0.260
2020/01/31 14:41:03.7	0.690	-0.130	-0.030	-0.200
2020/01/31 14:41:03.8	0.640	-0.120	-0.010	-0.150
2020/01/31 14:41:03.9	0.610	-0.120	0.010	-0.100
2020/01/31 14:41:04.0	0.570	-0.110	0.030	-0.050
2020/01/31 14:41:04.1	0.530	-0.100	0.040	-0.000
2020/01/31 14:41:04.2	0.500	-0.090	0.050	0.040
2020/01/31 14:41:04.3	0.470	-0.080	0.060	0.080
2020/01/31 14:41:04.4	0.440	-0.060	0.060	0.110
2020/01/31 14:41:04.5	0.410	-0.050	0.050	0.140
2020/01/31 14:41:04.6	0.390	-0.030	0.040	0.170
2020/01/31 14:41:04.7	0.370	-0.020	0.030	0.190
2020/01/31 14:41:04.8	0.360	0.000	0.010	0.220
2020/01/31 14:41:04.9	0.340	0.020	-0.010	0.240
2020/01/31 14:41:05.0	0.320	0.040	-0.030	0.260
2020/01/31 14:41:05.1	0.310	0.060	-0.050	0.270
2020/01/31 14:41:05.2	0.300	0.080	-0.080	0.280
2020/01/31 14:41:05.3	0.290	0.100	-0.100	0.290
2020/01/31 14:41:05.4	0.280	0.120	-0.130	0.300
2020/01/31 14:41:05.5	0.280	0.150	-0.160	0.300
2020/01/31 14:41:05.6	0.270	0.170	-0.190	0.310
2020/01/31 14:41:05.7	0.260	0.190	-0.210	0.300
2020/01/31 14:41:05.8	0.260	0.210	-0.240	0.300
2020/01/31 14:41:05.9	0.260	0.240	-0.270	0.290
2020/01/31 14:41:06.0	0.260	0.260	-0.300	0.280
2020/01/31 14:41:06.1	0.270	0.280	-0.320	0.270
2020/01/31 14:41:06.2	0.280	0.300	-0.350	0.260
2020/01/31 14:41:06.3	0.290	0.320	-0.370	0.240
2020/01/31 14:41:06.4	0.300	0.330	-0.390	0.230
2020/01/31 14:41:06.5	0.320	0.350	-0.410	0.210
2020/01/31 14:41:06.6	0.330	0.360	-0.420	0.190
2020/01/31 14:41:06.7	0.360	0.380	-0.440	0.160
2020/01/31 14:41:06.8	0.380	0.390	-0.450	0.140
2020/01/31 14:41:06.9	0.410	0.400	-0.460	0.110
2020/01/31 14:41:07.0	0.440	0.410	-0.470	0.090
2020/01/31 14:41:07.1	0.470	0.410	-0.480	0.060
2020/01/31 14:41:07.2	0.510	0.420	-0.490	0.030
2020/01/31 14:41:07.3	0.540	0.420	-0.500	-0.000
2020/01/31 14:41:07.4	0.580	0.420	-0.500	-0.030
2020/01/31 14:41:07.5	0.620	0.420	-0.510	-0.060
2020/01/31 14:41:07.6	0.660	0.410	-0.510	-0.090
2020/01/31 14:41:07.7	0.680	0.400	-0.510	-0.120
2020/01/31 14:41:07.8	0.710	0.390	-0.500	-0.150
2020/01/31 14:41:07.9	0.750	0.380	-0.500	-0.180
2020/01/31 14:41:08.0	0.790	0.370	-0.490	-0.200
2020/01/31 14:41:08.1	0.830	0.350	-0.490	-0.230
2020/01/31 14:41:08.2	0.860	0.330	-0.480	-0.260
2020/01/31 14:41:08.3	0.890	0.300	-0.460	-0.280
2020/01/31 14:41:08.4	0.920	0.280	-0.450	-0.310
2020/01/31 14:41:08.5	0.950	0.250	-0.430	-0.340
2020/01/31 14:41:08.6	0.970	0.220	-0.410	-0.360
2020/01/31 14:41:08.7	0.990	0.190	-0.380	-0.390
2020/01/31 14:41:08.8	1.010	0.160	-0.350	-0.420
2020/01/31 14:41:08.9	1.020	0.120	-0.330	-0.440
2020/01/31 14:41:09.0	1.030	0.080	-0.300	-0.470
2020/01/31 14:41:09.1	1.040	0.050	-0.270	-0.490
2020/01/31 14:41:09.2	1.040	0.010	-0.240	-0.520
2020/01/31 14:41:09.3	1.040	-0.030	-0.200	-0.540
2020/01/31 14:41:09.4	1.040	-0.070	-0.170	-0.560
2020/01/31 14:41:09.5	1.030	-0.100	-0.130	-0.580
2020/01/31 14:41:09.6	1.020	-0.140	-0.100	-0.600
2020/01/31 14:41:09.7	1.000	-0.180	-0.060	-0.630
2020/01/31 14:41:09.8	0.980	-0.210	-0.020	-0.640
2020/01/31 14:41:09.9	0.960	-0.240	0.010	-0.650
2020/01/31 14:41:10.0	0.930	-0.270	0.050	-0.660
2020/01/31 14:41:10.1	0.910	-0.300	0.080	-0.670
2020/01/31 14:41:10.2	0.870	-0.330	0.120	-0.670
2020/01/31 14:41:10.3	0.840	-0.350	0.150	-0.670
2020/01/31 14:41:10.4	0.810	-0.370	0.180	-0.660
2020/01/31 14:41:10.5	0.770	-0.380	0.210	-0.660
2020/01/31 14:41:10.6	0.730	-0.400	0.240	-0.650
2020/01/31 14:41:10.7	0.710	-0.400	0.260	-0.640
2020/01/31 14:41:10.8	0.670	-0.410	0.280	-0.630
2020/01/31 14:41:10.9	0.630	-0.410	0.290	-0.610
2020/01/31 14:41:11.0	0.600	-0.400	0.300	-0.590
2020/01/31 14:41:11.1	0.570	-0.400	0.300	-0.570
2020/01/31 14:41:11.2	0.540	-0.380	0.290	-0.550
2020/01/31 14:41:11.3	0.510	-0.370	0.280	-0.540
2020/01/31 14:41:11.4	0.490	-0.350	0.260	-0.520
2020/01/31 14:41:11.5	0.470	-0.320	0.230	-0.500
2020/01/31 14:41:11.6	0.450	-0.290	0.200	-0.490
2020/01/31 14:41:11.7	0.450	-0.260	0.170	-0.470
2020/01/31 14:41:11.8	0.450	-0.230	0.120	-0.460
2020/01/31 14:41:11.9	0.440	-0.190	0.070	-0.450
2020/01/31 14:41:12.0	0.440	-0.160	0.020	-0.450
2020/01/31 14:41:12.1	0.450	-0.120	-0.040	-0.440
2020/01/31 14:41:12.2	0.450	-0.080	-0.100	-0.440
2020/01/31 14:41:12.3	0.460	-0.040	-0.160	-0.440
2020/01/31 14:41:12.4	0.470	0.000	-0.220	-0.440
2020/01/31 14:41:12.5	0.480	0.040	-0.290	-0.440
2020/01/31 14:41:12.6	0.490	0.080	-0.350	-0.450
2020/01/31 14:41:12.7	0.520	0.110	-0.420	-0.460
2020/01/31 14:41:12.8	0.530	0.150	-0.470	-0.460
2020/01/31 14:41:12.9	0.540	0.180	-0.530	-0.460
2020/01/31 14:41:13.0	0.560	0.210	-0.580	-0.470
2020/01/31 14:41:13.1	0.570	0.230	-0.630	-0.470
2020/01/31 14:41:13.2	0.580	0.250	-0.670	-0.470
2020/01/31 14:41:13.3	0.580	0.270	-0.700	-0.470
2020/01/31 14:41:13.4	0.590	0.290	-0.730	-0.470
2020/01/31 14:41:13.5	0.590	0.300	-0.750	-0.460
2020/01/31 14:41:13.6	0.590	0.310	-0.770	-0.450
2020/01/31 14:41:13.7	0.580	0.310	-0.770	-0.440
2020/01/31 14:41:13.8	0.580	0.310	-0.770	-0.430
2020/01/31 14:41:13.9	0.570	0.300	-0.760	-0.420
2020/01/31 14:41:14.0	0.560	0.290	-0.750	-0.400
2020/01/31 14:41:14.1	0.550	0.280	-0.730	-0.380
2020/01/31 14:41:14.2	0.540	0.260	-0.700	-0.360
2020/01/31 14:41:14.3	0.530	0.240	-0.680	-0.340
2020/01/31 14:41:14.4	0.520	0.220	-0.640	-0.330
2020/01/31 14:41:14.5	0.510	0.190	-0.610	-0.310
2020/01/31 14:41:14.6	0.500	0.160	-0.570	-0.300
2020/01/31 14:41:14.7	0.490	0.130	-0.530	-0.280
2020/01/31 14:41:14.8	0.490	0.100	-0.490	-0.270
2020/01/31 14:41:14.9	0.480	0.060	-0.450	-0.270
2020/01/31 14:41:15.0	0.480	0.030	-0.410	-0.260
2020/01/31 14:41:15.1	0.480	-0.010	-0.370	-0.260
2020/01/31 14:41:15.2	0.480	-0.050	-0.330	-0.260
2020/01/31 14:41:15.3	0.490	-0.090	-0.300	-0.270
2020/01/31 14:41:15.4	0.490	-0.120	-0.260	-0.270
2020/01/31 14:41:15.5	0.500	-0.160	-0.230	-0.280
2020/01/31 14:41:15.6	0.510	-0.190	-0.200	-0.300
2020/01/31 14:41:15.7	0.520	-0.220	-0.170	-0.320
2020/01/31 14:41:15.8	0.530	-0.250	-0.150	-0.330
2020/01/31 14:41:15.9	0.540	-0.280	-0.130	-0.350
2020/01/31 14:41:16.0	0.550	-0.310	-0.110	-0.370
2020/01/31 14:41:16.1	0.560	-0.330	-0.090	-0.390
2020/01/31 14:41:16.2	0.580	-0.350	-0.070	-0.410
2020/01/31 14:41:16.3	0.590	-0.360	-0.060	-0.430
2020/01/31 14:41:16.4	0.600	-0.380	-0.050	-0.450
2020/01/31 14:41:16.5	0.610	-0.390	-0.040	-0.470
2020/01/31 14:41:16.6	0.610	-0.390	-0.030	-0.480
2020/01/31 14:41:16.7	0.610	-0.400	-0.020	-0.500
2020/01/31 14:41:16.8	0.620	-0.400	-0.010	-0.510
2020/01/31 14:41:16.9	0.620	-0.400	-0.010	-0.520
2020/01/31 14:41:17.0	0.620	-0.390	0.000	-0.530
2020/01/31 14:41:17.1	0.620	-0.390	0.010	-0.530
2020/01/31 14:41:17.2	0.610	-0.380	0.010	-0.540
2020/01/31 14:41:17.3	0.610	-0.370	0.010	-0.540
2020/01/31 14:41:17.4	0.600	-0.360	0.020	-0.540
2020/01/31 14:41:17.5	0.600	-0.340	0.020	-0.540
2020/01/31 14:41:17.6	0.590	-0.330	0.020	-0.540
2020/01/31 14:41:17.7	0.570	-0.310	0.030	-0.540
2020/01/31 14:41:17.8	0.560	-0.300	0.030	-0.540
2020/01/31 14:41:17.9	0.560	-0.280	0.020	-0.530
2020/01/31 14:41:18.0	0.550	-0.260	0.020	-0.520
2020/01/31 14:41:18.1	0.540	-0.240	0.010	-0.510
2020/01/31 14:41:18.2	0.530	-0.220	0.010	-0.500
2020/01/31 14:41:18.3	0.520	-0.190	-0.000	-0.490
2020/01/31 14:41:18.4	0.520	-0.170	-0.020	-0.480
2020/01/31 14:41:18.5	0.510	-0.150	-0.040	-0.470
2020/01/31 14:41:18.6	0.510	-0.120	-0.050	-0.450
2020/01/31 14:41:18.7	0.510	-0.100	-0.080	-0.450
2020/01/31 14:41:18.8	0.510	-0.070	-0.110	-0.430
2020/01/31 14:41:18.9	0.520	-0.040	-0.140	-0.420
2020/01/31 14:41:19.0	0.520	-0.020	-0.170	-0.410
2020/01/31 14:41:19.1	0.530	0.010	-0.200	-0.400
2020/01/31 14:41:19.2	0.540	0.040	-0.240	-0.380
2020/01/31 14:41:19.3	0.560	0.070	-0.280	-0.370
2020/01/31 14:41:19.4	0.570	0.100	-0.320	-0.360
2020/01/31 14:41:19.5	0.590	0.130	-0.360	-0.350
2020/01/31 14:41:19.6	0.620	0.160	-0.400	-0.340
2020/01/31 14:41:19.7	0.630	0.190	-0.440	-0.330
2020/01/31 14:41:19.8	0.650	0.220	-0.490	-0.320
2020/01/31 14:41:19.9	0.680	0.250	-0.530	-0.300
2020/01/31 14:41:20.0	0.700	0.280	-0.570	-0.290
2020/01/31 14:41:20.1	0.730	0.310	-0.610	-0.280
2020/01/31 14:41:20.2	0.760	0.340	-0.640	-0.270
2020/01/31 14:41:20.3	0.780	0.370	-0.670	-0.250
2020/01/31 14:41:20.4	0.810	0.400	-0.700	-0.230
2020/01/31 14:41:20.5	0.830	0.420	-0.720	-0.220
2020/01/31 14:41:20.6	0.860	0.450	-0.740	-0.200
2020/01/31 14:41:20.7	0.880	0.470	-0.750	-0.180
2020/01/31 14:41:20.8	0.900	0.490	-0.750	-0.160
2020/01/31 14:41:20.9	0.920	0.500	-0.750	-0.140
2020/01/31 14:41:21.0	0.940	0.520	-0.750	-0.120
2020/01/31 14:41:21.1	0.950	0.530	-0.730	-0.100
2020/01/31 14:41:21.2	0.960	0.540	-0.710	-0.070
2020/01/31 14:41:21.3	0.970	0.550	-0.690	-0.050
2020/01/31 14:41:21.4	0.980	0.550	-0.650	-0.020
2020/01/31 14:41:21.5	0.980	0.550	-0.610	0.000
2020/01/31 14:41:21.6	0.980	0.540	-0.570	0.030
2020/01/31 14:41:21.7	0.980	0.540	-0.520	0.050
2020/01/31 14:41:21.8	0.970	0.530	-0.470	0.080
2020/01/31 14:41:21.9	0.960	0.510	-0.410	0.100
2020/01/31 14:41:22.0	0.950	0.490	-0.350	0.130
2020/01/31 14:41:22.1	0.930	0.470	-0.290	0.160
2020/01/31 14:41:22.2	0.920	0.440	-0.220	0.180
2020/01/31 14:41:22.3	0.890	0.410	-0.150	0.200
2020/01/31 14:41:22.4	0.870	0.370	-0.090	0.220
2020/01/31 14:41:22.5	0.850	0.340	-0.020	0.240
2020/01/31 14:41:22.6	0.820	0.290	0.040	0.260
2020/01/31 14:41:22.7	0.790	0.250	0.110	0.270
2020/01/31 14:41:22.8	0.760	0.200	0.170	0.280
2020/01/31 14:41:22.9	0.740	0.150	0.220	0.280
2020/01/31 14:41:23.0	0.710	0.100	0.270	0.270
2020/01/31 14:41:23.1	0.690	0.050	0.320	0.270
2020/01/31 14:41:23.2	0.670	-0.010	0.350	0.250
2020/01/31 14:41:23.3	0.640	-0.060	0.390	0.230
2020/01/31 14:41:23.4	0.630	-0.120	0.410	0.210
2020/01/31 14:41:23.5	0.610	-0.180	0.430	0.180
2020/01/31 14:41:23.6	0.600	-0.230	0.440	0.140
2020/01/31 14:41:23.7	0.590	-0.280	0.450	0.090
2020/01/31 14:41:23.8	0.580	-0.330	0.440	0.040
2020/01/31 14:41:23.9	0.570	-0.380	0.430	-0.010
2020/01/31 14:41:24.0	0.570	-0.430	0.410	-0.070
2020/01/31 14:41:24.1	0.570	-0.470	0.380	-0.130
2020/01/31 14:41:24.2	0.570	-0.510	0.340	-0.190
2020/01/31 14:41:24.3	0.580	-0.550	0.300	-0.260
2020/01/31 14:41:24.4	0.580	-0.580	0.260	-0.330
2020/01/31 14:41:24.5	0.590	-0.610	0.200	-0.400
2020/01/31 14:41:24.6	0.600	-0.630	0.140	-0.470
2020/01/31 14:41:24.7	0.610	-0.650	0.080	-0.550
2020/01/31 14:41:24.8	0.630	-0.660	0.020	-0.620
2020/01/31 14:41:24.9	0.640	-0.670	-0.050	-0.690
2020/01/31 14:41:25.0	0.660	-0.670	-0.120	-0.770
2020/01/31 14:41:25.1	0.680	-0.670	-0.190	-0.840
2020/01/31 14:41:25.2	0.700	-0.660	-0.260	-0.910
2020/01/31 14:41:25.3	0.720	-0.640	-0.330	-0.980
2020/01/31 14:41:25.4	0.740	-0.620	-0.390	-1.040
2020/01/31 14:41:25.5	0.770	-0.600	-0.460	-1.110
2020/01/31 14:41:25.6	0.790	-0.570	-0.520	-1.170
2020/01/31 14:41:25.7	0.820	-0.540	-0.580	-1.230
2020/01/31 14:41:25.8	0.850	-0.500	-0.640	-1.280
2020/01/31 14:41:25.9	0.880	-0.460	-0.690	-1.330
2020/01/31 14:41:26.0	0.900	-0.410	-0.740	-1.380
2020/01/31 14:41:26.1	0.930	-0.370	-0.780	-1.420
2020/01/31 14:41:26.2	0.950	-0.320	-0.820	-1.450
2020/01/31 14:41:26.3	0.980	-0.270	-0.850	-1.480
2020/01/31 14:41:26.4	1.000	-0.210	-0.870	-1.500
2020/01/31 14:41:26.5	1.020	-0.160	-0.890	-1.510
2020/01/31 14:41:26.6	1.040	-0.100	-0.900	-1.520
2020/01/31 14:41:26.7	1.050	-0.050	-0.910	-1.520
2020/01/31 14:41:26.8	1.070	0.010	-0.910	-1.510
2020/01/31 14:41:26.9	1.090	0.060	-0.900	-1.500
2020/01/31 14:41:27.0	1.100	0.110	-0.890	-1.480
2020/01/31 14:41:27.1	1.110	0.160	-0.870	-1.460
2020/01/31 14:41:27.2	1.120	0.210	-0.840	-1.430
2020/01/31 14:41:27.3	1.140	0.260	-0.810	-1.390
2020/01/31 14:41:27.4	1.140	0.310	-0.780	-1.350
2020/01/31 14:41:27.5	1.150	0.350	-0.740	-1.300
2020/01/31 14:41:27.6	1.160	0.390	-0.700	-1.250
2020/01/31 14:41:27.7	1.160	0.420	-0.650	-1.190
2020/01/31 14:41:27.8	1.160	0.450	-0.600	-1.130
2020/01/31 14:41:27.9	1.160	0.480	-0.550	-1.070
2020/01/31 14:41:28.0	1.170	0.510	-0.490	-1.000
2020/01/31 14:41:28.1	1.170	0.530	-0.440	-0.930
2020/01/31 14:41:28.2	1.160	0.540	-0.380	-0.860
2020/01/31 14:41:28.3	1.160	0.550	-0.320	-0.780
2020/01/31 14:41:28.4	1.160	0.560	-0.260	-0.700
2020/01/31 14:41:28.5	1.150	0.560	-0.210	-0.630
2020/01/31 14:41:28.6	1.140	0.560	-0.150	-0.550
2020/01/31 14:41:28.7	1.120	0.560	-0.100	-0.470
2020/01/31 14:41:28.8	1.110	0.550	-0.050	-0.390
2020/01/31 14:41:28.9	1.100	0.540	0.010	-0.320
2020/01/31 14:41:29.0	1.080	0.520	0.050	-0.250
2020/01/31 14:41:29.1	1.060	0.500	0.100	-0.180
2020/01/31 14:41:29.2	1.040	0.470	0.140	-0.110
2020/01/31 14:41:29.3	1.030	0.450	0.180	-0.050
2020/01/31 14:41:29.4	1.010	0.420	0.210	0.010
2020/01/31 14:41:29.5	0.990	0.390	0.240	0.070
2020/01/31 14:41:29.6	0.970	0.350	0.260	0.120
2020/01/31 14:41:29.7	0.940	0.320	0.290	0.160
2020/01/31 14:41:29.8	0.920	0.280	0.300	0.200
2020/01/31 14:41:29.9	0.910	0.240	0.310	0.240
2020/01/31 14:41:30.0	0.890	0.200	0.310	0.270
2020/01/31 14:41:30.1	0.880	0.160	0.310	0.290
2020/01/31 14:41:30.2	0.870	0.130	0.310	0.310
2020/01/31 14:41:30.3	0.860	0.090	0.290	0.320
2020/01/31 14:41:30.4	0.850	0.050	0.280	0.330
2020/01/31 14:41:30.5	0.850	0.010	0.250	0.330
2020/01/31 14:41:30.6	0.850	-0.020	0.230	0.330
2020/01/31 14:41:30.7	0.850	-0.050	0.200	0.320
2020/01/31 14:41:30.8	0.860	-0.080	0.160	0.300
2020/01/31 14:41:30.9	0.870	-0.110	0.120	0.290
2020/01/31 14:41:31.0	0.880	-0.140	0.070	0.260
2020/01/31 14:41:31.1	0.890	-0.160	0.020	0.240
2020/01/31 14:41:31.2	0.910	-0.180	-0.030	0.210
2020/01/31 14:41:31.3	0.930	-0.190	-0.080	0.170
2020/01/31 14:41:31.4	0.960	-0.200	-0.140	0.130
2020/01/31 14:41:31.5	0.980	-0.210	-0.190	0.090
2020/01/31 14:41:31.6	1.010	-0.220	-0.250	0.050
2020/01/31 14:41:31.7	1.040	-0.220	-0.300	0.010
2020/01/31 14:41:31.8	1.070	-0.220	-0.360	-0.040
2020/01/31 14:41:31.9	1.100	-0.220	-0.410	-0.080
2020/01/31 14:41:32.0	1.130	-0.210	-0.470	-0.130
2020/01/31 14:41:32.1	1.160	-0.200	-0.510	-0.170
2020/01/31 14:41:32.2	1.200	-0.190	-0.560	-0.220
2020/01/31 14:41:32.3	1.230	-0.180	-0.600	-0.260
2020/01/31 14:41:32.4	1.260	-0.160	-0.640	-0.300
2020/01/31 14:41:32.5	1.280	-0.150	-0.670	-0.340
2020/01/31 14:41:32.6	1.310	-0.130	-0.690	-0.370
2020/01/31 14:41:32.7	1.340	-0.110	-0.710	-0.410
2020/01/31 14:41:32.8	1.360	-0.090	-0.720	-0.430
2020/01/31 14:41:32.9	1.370	-0.070	-0.730	-0.460
2020/01/31 14:41:33.0	1.390	-0.050	-0.730	-0.480
2020/01/31 14:41:33.1	1.400	-0.030	-0.720	-0.500
2020/01/31 14:41:33.2	1.410	-0.020	-0.710	-0.510
2020/01/31 14:41:33.3	1.420	0.000	-0.690	-0.520
2020/01/31 14:41:33.4	1.420	0.020	-0.670	-0.530
2020/01/31 14:41:33.5	1.420	0.030	-0.640	-0.530
2020/01/31 14:41:33.6	1.420	0.040	-0.610	-0.530
2020/01/31 14:41:33.7	1.420	0.050	-0.570	-0.530
2020/01/31 14:41:33.8	1.410	0.060	-0.530	-0.530
2020/01/31 14:41:33.9	1.400	0.060	-0.490	-0.520
2020/01/31 14:41:34.0	1.390	0.070	-0.440	-0.510
2020/01/31 14:41:34.1	1.380	0.060	-0.390	-0.500
2020/01/31 14:41:34.2	1.370	0.060	-0.340	-0.480
2020/01/31 14:41:34.3	1.350	0.060	-0.290	-0.470
2020/01/31 14:41:34.4	1.340	0.050	-0.240	-0.450
2020/01/31 14:41:34.5	1.320	0.040	-0.190	-0.430
2020/01/31 14:41:34.6	1.300	0.020	-0.140	-0.420
2020/01/31 14:41:34.7	1.280	0.010	-0.090	-0.400
2020/01/31 14:41:34.8	1.260	-0.010	-0.050	-0.390
2020/01/31 14:41:34.9	1.240	-0.030	-0.010	-0.380
2020/01/31 14:41:35.0	1.220	-0.050	0.030	-0.360
2020/01/31 14:41:35.1	1.200	-0.070	0.070	-0.350
2020/01/31 14:41:35.2	1.190	-0.090	0.100	-0.340
2020/01/31 14:41:35.3	1.170	-0.110	0.120	-0.340
2020/01/31 14:41:35.4	1.150	-0.140	0.140	-0.330
2020/01/31 14:41:35.5	1.140	-0.160	0.160	-0.330
2020/01/31 14:41:35.6	1.120	-0.180	0.170	-0.330
2020/01/31 14:41:35.7	1.110	-0.200	0.170	-0.330
2020/01/31 14:41:35.8	1.100	-0.230	0.170	-0.330
2020/01/31 14:41:35.9	1.090	-0.250	0.170	-0.340
2020/01/31 14:41:36.0	1.070	-0.270	0.160	-0.340
2020/01/31 14:41:36.1	1.060	-0.290	0.150	-0.350
2020/01/31 14:41:36.2	1.050	-0.300	0.130	-0.360
2020/01/31 14:41:36.3	1.040	-0.320	0.120	-0.360
2020/01/31 14:41:36.4	1.030	-0.330	0.090	-0.370
2020/01/31 14:41:36.5	1.010	-0.350	0.070	-0.380
2020/01/31 14:41:36.6	1.000	-0.360	0.040	-0.390
2020/01/31 14:41:36.7	0.990	-0.360	0.020	-0.400
2020/01/31 14:41:36.8	0.980	-0.370	-0.020	-0.410
2020/01/31 14:41:36.9	0.970	-0.370	-0.050	-0.420
2020/01/31 14:41:37.0	0.970	-0.370	-0.080	-0.430
2020/01/31 14:41:37.1	0.960	-0.370	-0.110	-0.440
2020/01/31 14:41:37.2	0.950	-0.370	-0.150	-0.450
2020/01/31 14:41:37.3	0.940	-0.360	-0.180	-0.460
2020/01/31 14:41:37.4	0.940	-0.350	-0.210	-0.470
2020/01/31 14:41:37.5	0.940	-0.340	-0.250	-0.480
2020/01/31 14:41:37.6	0.930	-0.330	-0.280	-0.490
2020/01/31 14:41:37.7	0.920	-0.310	-0.310	-0.500
2020/01/31 14:41:37.8	0.920	-0.290	-0.340	-0.510
2020/01/31 14:41:37.9	0.920	-0.270	-0.370	-0.520
2020/01/31 14:41:38.0	0.930	-0.250	-0.400	-0.520
2020/01/31 14:41:38.1	0.930	-0.220	-0.430	-0.530
2020/01/31 14:41:38.2	0.940	-0.190	-0.460	-0.530
2020/01/31 14:41:38.3	0.950	-0.160	-0.490	-0.540
2020/01/31 14:41:38.4	0.960	-0.130	-0.510	-0.540
2020/01/31 14:41:38.5	0.980	-0.100	-0.540	-0.540
2020/01/31 14:41:38.6	1.000	-0.060	-0.560	-0.550
2020/01/31 14:41:38.7	1.020	-0.030	-0.590	-0.560
2020/01/31 14:41:38.8	1.040	0.010	-0.610	-0.560
2020/01/31 14:41:38.9	1.060	0.050	-0.640	-0.560
2020/01/31 14:41:39.0	1.090	0.090	-0.660	-0.570
2020/01/31 14:41:39.1	1.110	0.130	-0.690	-0.570
2020/01/31 14:41:39.2	1.140	0.170	-0.710	-0.580
2020/01/31 14:41:39.3	1.170	0.220	-0.730	-0.580
2020/01/31 14:41:39.4	1.200	0.260	-0.750	-0.590
2020/01/31 14:41:39.5	1.230	0.300	-0.770	-0.590
2020/01/31 14:41:39.6	1.260	0.340	-0.780	-0.600
2020/01/31 14:41:39.7	1.290	0.370	-0.790	-0.610
2020/01/31 14:41:39.8	1.320	0.410	-0.800	-0.610
2020/01/31 14:41:39.9	1.350	0.450	-0.810	-0.620
2020/01/31 14:41:40.0	1.370	0.480	-0.810	-0.630
2020/01/31 14:41:40.1	1.400	0.510	-0.810	-0.630
2020/01/31 14:41:40.2	1.420	0.540	-0.810	-0.640
2020/01/31 14:41:40.3	1.440	0.560	-0.800	-0.640
2020/01/31 14:41:40.4	1.460	0.580	-0.790	-0.640
2020/01/31 14:41:40.5	1.470	0.600	-0.770	-0.650
2020/01/31 14:41:40.6	1.480	0.610	-0.750	-0.650
2020/01/31 14:41:40.7	1.490	0.630	-0.720	-0.650
2020/01/31 14:41:40.8	1.500	0.630	-0.690	-0.650
2020/01/31 14:41:40.9	1.510	0.640	-0.650	-0.640
2020/01/31 14:41:41.0	1.510	0.640	-0.620	-0.640
2020/01/31 14:41:41.1	1.510	0.630	-0.570	-0.630
2020/01/31 14:41:41.2	1.510	0.620	-0.520	-0.620
2020/01/31 14:41:41.3	1.510	0.610	-0.470	-0.610
2020/01/31 14:41:41.4	1.500	0.590	-0.420	-0.600
2020/01/31 14:41:41.5	1.500	0.570	-0.360	-0.590
2020/01/31 14:41:41.6	1.490	0.550	-0.300	-0.570
2020/01/31 14:41:41.7	1.480	0.520	-0.240	-0.560
2020/01/31 14:41:41.8	1.470	0.490	-0.180	-0.540
2020/01/31 14:41:41.9	1.460	0.460	-0.120	-0.520
2020/01/31 14:41:42.0	1.440	0.420	-0.060	-0.500
2020/01/31 14:41:42.1	1.430	0.380	0.000	-0.480
2020/01/31 14:41:42.2	1.410	0.340	0.070	-0.460
2020/01/31 14:41:42.3	1.400	0.290	0.130	-0.440
2020/01/31 14:41:42.4	1.380	0.250	0.190	-0.420
2020/01/31 14:41:42.5	1.360	0.200	0.240	-0.400
2020/01/31 14:41:42.6	1.350	0.150	0.300	-0.380
2020/01/31 14:41:42.7	1.320	0.100	0.350	-0.370
2020/01/31 14:41:42.8	1.300	0.050	0.400	-0.350
2020/01/31 14:41:42.9	1.280	0.000	0.450	-0.340
2020/01/31 14:41:43.0	1.250	-0.050	0.490	-0.320
2020/01/31 14:41:43.1	1.230	-0.090	0.540	-0.310
2020/01/31 14:41:43.2	1.200	-0.140	0.570	-0.290
2020/01/31 14:41:43.3	1.180	-0.180	0.610	-0.280
2020/01/31 14:41:43.4	1.150	-0.230	0.640	-0.270
2020/01/31 14:41:43.5	1.120	-0.270	0.670	-0.250
2020/01/31 14:41:43.6	1.090	-0.310	0.690	-0.240
2020/01/31 14:41:43.7	1.050	-0.340	0.710	-0.220
2020/01/31 14:41:43.8	1.010	-0.370	0.730	-0.210
2020/01/31 14:41:43.9	0.980	-0.400	0.740	-0.190
2020/01/31 14:41:44.0	0.940	-0.420	0.750	-0.170
2020/01/31 14:41:44.1	0.910	-0.450	0.750	-0.150
2020/01/31 14:41:44.2	0.870	-0.460	0.740	-0.120
2020/01/31 14:41:44.3	0.830	-0.470	0.730	-0.100
2020/01/31 14:41:44.4	0.790	-0.480	0.720	-0.080
2020/01/31 14:41:44.5	0.760	-0.490	0.700	-0.050
2020/01/31 14:41:44.6	0.720	-0.490	0.670	-0.030
2020/01/31 14:41:44.7	0.670	-0.480	0.630	-0.010
2020/01/31 14:41:44.8	0.640	-0.480	0.600	0.010
2020/01/31 14:41:44.9	0.600	-0.460	0.550	0.030
2020/01/31 14:41:45.0	0.570	-0.450	0.500	0.050
2020/01/31 14:41:45.1	0.540	-0.430	0.450	0.070
2020/01/31 14:41:45.2	0.510	-0.410	0.380	0.090
2020/01/31 14:41:45.3	0.480	-0.380	0.320	0.100
2020/01/31 14:41:45.4	0.450	-0.360	0.250	0.110
2020/01/31 14:41:45.5	0.430	-0.330	0.170	0.110
2020/01/31 14:41:45.6	0.400	-0.290	0.100	0.110
2020/01/31 14:41:45.7	0.390	-0.260	0.020	0.110
2020/01/31 14:41:45.8	0.370	-0.220	-0.070	0.100
2020/01/31 14:41:45.9	0.360	-0.190	-0.150	0.080
2020/01/31 14:41:46.0	0.350	-0.150	-0.240	0.070
2020/01/31 14:41:46.1	0.340	-0.110	-0.330	0.040
2020/01/31 14:41:46.2	0.340	-0.080	-0.420	0.020
2020/01/31 14:41:46.3	0.340	-0.040	-0.510	-0.010
2020/01/31 14:41:46.4	0.350	-0.000	-0.600	-0.040
2020/01/31 14:41:46.5	0.350	0.030	-0.690	-0.080
2020/01/31 14:41:46.6	0.370	0.070	-0.780	-0.120
2020/01/31 14:41:46.7	0.400	0.100	-0.860	-0.160
2020/01/31 14:41:46.8	0.420	0.130	-0.940	-0.200
2020/01/31 14:41:46.9	0.440	0.160	-1.020	-0.240
2020/01/31 14:41:47.0	0.470	0.190	-1.090	-0.290
2020/01/31 14:41:47.1	0.500	0.210	-1.160	-0.330
2020/01/31 14:41:47.2	0.530	0.240	-1.220	-0.380
2020/01/31 14:41:47.3	0.570	0.260	-1.280	-0.420
2020/01/31 14:41:47.4	0.610	0.270	-1.330	-0.470
2020/01/31 14:41:47.5	0.650	0.280	-1.380	-0.510
2020/01/31 14:41:47.6	0.700	0.290	-1.410	-0.560
2020/01/31 14:41:47.7	0.760	0.300	-1.450	-0.610
2020/01/31 14:41:47.8	0.810	0.300	-1.470	-0.650
2020/01/31 14:41:47.9	0.860	0.300	-1.490	-0.690
2020/01/31 14:41:48.0	0.910	0.300	-1.500	-0.740
2020/01/31 14:41:48.1	0.970	0.290	-1.510	-0.780
2020/01/31 14:41:48.2	1.020	0.280	-1.500	-0.820
2020/01/31 14:41:48.3	1.070	0.270	-1.490	-0.860
2020/01/31 14:41:48.4	1.120	0.260	-1.480	-0.900
2020/01/31 14:41:48.5	1.170	0.240	-1.450	-0.930
2020/01/31 14:41:48.6	1.230	0.220	-1.420	-0.970
2020/01/31 14:41:48.7	1.270	0.190	-1.380	-1.000
2020/01/31 14:41:48.8	1.320	0.170	-1.340	-1.030
2020/01/31 14:41:48.9	1.360	0.150	-1.290	-1.050
2020/01/31 14:41:49.0	1.400	0.120	-1.230	-1.070
2020/01/31 14:41:49.1	1.440	0.090	-1.170	-1.080
2020/01/31 14:41:49.2	1.480	0.070	-1.100	-1.090
2020/01/31 14:41:49.3	1.510	0.040	-1.030	-1.090
2020/01/31 14:41:49.4	1.540	0.010	-0.950	-1.090
2020/01/31 14:41:49.5	1.570	-0.010	-0.870	-1.070
2020/01/31 14:41:49.6	1.590	-0.040	-0.780	-1.060
2020/01/31 14:41:49.7	1.610	-0.070	-0.690	-1.030
2020/01/31 14:41:49.8	1.620	-0.090	-0.600	-1.010
2020/01/31 14:41:49.9	1.630	-0.110	-0.500	-0.980
2020/01/31 14:41:50.0	1.630	-0.130	-0.400	-0.940
2020/01/31 14:41:50.1	1.630	-0.150	-0.300	-0.900
2020/01/31 14:41:50.2	1.620	-0.170	-0.200	-0.850
2020/01/31 14:41:50.3	1.610	-0.180	-0.100	-0.810
2020/01/31 14:41:50.4	1.590	-0.200	0.000	-0.750
2020/01/31 14:41:50.5	1.580	-0.210	0.100	-0.700
2020/01/31 14:41:50.6	1.560	-0.220	0.190	-0.650
2020/01/31 14:41:50.7	1.520	-0.220	0.280	-0.590
2020/01/31 14:41:50.8	1.490	-0.220	0.370	-0.530
2020/01/31 14:41:50.9	1.460	-0.230	0.450	-0.470
2020/01/31 14:41:51.0	1.430	-0.220	0.520	-0.410
2020/01/31 14:41:51.1	1.400	-0.220	0.590	-0.350
2020/01/31 14:41:51.2	1.360	-0.220	0.650	-0.290
2020/01/31 14:41:51.3	1.330	-0.210	0.700	-0.230
2020/01/31 14:41:51.4	1.290	-0.200	0.750	-0.170
2020/01/31 14:41:51.5	1.250	-0.190	0.790	-0.110
2020/01/31 14:41:51.6	1.200	-0.170	0.820	-0.050
2020/01/31 14:41:51.7	1.150	-0.160	0.840	0.000
2020/01/31 14:41:51.8	1.110	-0.140	0.850	0.070
2020/01/31 14:41:51.9	1.060	-0.120	0.860	0.120
2020/01/31 14:41:52.0	1.010	-0.100	0.850	0.180
2020/01/31 14:41:52.1	0.960	-0.080	0.850	0.240
2020/01/31 14:41:52.2	0.910	-0.060	0.830	0.300
2020/01/31 14:41:52.3	0.850	-0.040	0.810	0.350
2020/01/31 14:41:52.4	0.800	-0.020	0.780	0.400
2020/01/31 14:41:52.5	0.740	0.010	0.740	0.450
2020/01/31 14:41:52.6	0.690	0.030	0.700	0.490
2020/01/31 14:41:52.7	0.630	0.050	0.660	0.530
2020/01/31 14:41:52.8	0.580	0.070	0.610	0.560
2020/01/31 14:41:52.9	0.530	0.090	0.550	0.590
2020/01/31 14:41:53.0	0.480	0.110	0.500	0.620
2020/01/31 14:41:53.1	0.430	0.120	0.440	0.640
2020/01/31 14:41:53.2	0.390	0.140	0.370	0.650
2020/01/31 14:41:53.3	0.340	0.160	0.310	0.660
2020/01/31 14:41:53.4	0.300	0.170	0.240	0.660
2020/01/31 14:41:53.5	0.270	0.180	0.180	0.660
2020/01/31 14:41:53.6	0.240	0.190	0.110	0.650
2020/01/31 14:41:53.7	0.210	0.200	0.040	0.640
2020/01/31 14:41:53.8	0.190	0.210	-0.020	0.620
2020/01/31 14:41:53.9	0.170	0.210	-0.080	0.600
2020/01/31 14:41:54.0	0.150	0.220	-0.150	0.580
2020/01/31 14:41:54.1	0.140	0.220	-0.210	0.550
2020/01/31 14:41:54.2	0.130	0.220	-0.270	0.510
2020/01/31 14:41:54.3	0.130	0.220	-0.320	0.470
2020/01/31 14:41:54.4	0.130	0.220	-0.380	0.430
2020/01/31 14:41:54.5	0.140	0.210	-0.430	0.390
2020/01/31 14:41:54.6	0.150	0.210	-0.480	0.340
2020/01/31 14:41:54.7	0.160	0.200	-0.520	0.280
2020/01/31 14:41:54.8	0.180	0.200	-0.560	0.230
2020/01/31 14:41:54.9	0.210	0.190	-0.600	0.180
2020/01/31 14:41:55.0	0.230	0.180	-0.640	0.120
2020/01/31 14:41:55.1	0.260	0.170	-0.670	0.060
2020/01/31 14:41:55.2	0.290	0.160	-0.700	0.010
2020/01/31 14:41:55.3	0.330	0.150	-0.720	-0.050
2020/01/31 14:41:55.4	0.360	0.140	-0.740	-0.100
2020/01/31 14:41:55.5	0.400	0.120	-0.750	-0.150
2020/01/31 14:41:55.6	0.430	0.110	-0.760	-0.200
2020/01/31 14:41:55.7	0.470	0.090	-0.770	-0.250
2020/01/31 14:41:55.8	0.500	0.080	-0.770	-0.300
2020/01/31 14:41:55.9	0.540	0.060	-0.770	-0.350
2020/01/31 14:41:56.0	0.570	0.040	-0.770	-0.390
2020/01/31 14:41:56.1	0.610	0.030	-0.760	-0.440
2020/01/31 14:41:56.2	0.640	0.010	-0.750	-0.480
2020/01/31 14:41:56.3	0.680	-0.010	-0.740	-0.520
2020/01/31 14:41:56.4	0.710	-0.030	-0.720	-0.560
2020/01/31 14:41:56.5	0.740	-0.050	-0.700	-0.590
2020/01/31 14:41:56.6	0.780	-0.070	-0.680	-0.630
2020/01/31 14:41:56.7	0.820	-0.080	-0.660	-0.670
2020/01/31 14:41:56.8	0.850	-0.100	-0.640	-0.700
2020/01/31 14:41:56.9	0.880	-0.120	-0.610	-0.730
2020/01/31 14:41:57.0	0.910	-0.130	-0.580	-0.760
2020/01/31 14:41:57.1	0.940	-0.150	-0.560	-0.790
2020/01/31 14:41:57.2	0.960	-0.160	-0.530	-0.810
2020/01/31 14:41:57.3	0.990	-0.170	-0.500	-0.830
2020/01/31 14:41:57.4	1.010	-0.190	-0.470	-0.850
2020/01/31 14:41:57.5	1.030	-0.200	-0.440	-0.860
2020/01/31 14:41:57.6	1.040	-0.200	-0.410	-0.870
2020/01/31 14:41:57.7	1.060	-0.210	-0.380	-0.870
2020/01/31 14:41:57.8	1.070	-0.220	-0.350	-0.870
2020/01/31 14:41:57.9	1.070	-0.220	-0.320	-0.860
2020/01/31 14:41:58.0	1.070	-0.220	-0.290	-0.850
2020/01/31 14:41:58.1	1.070	-0.220	-0.260	-0.830
2020/01/31 14:41:58.2	1.070	-0.220	-0.230	-0.800
2020/01/31 14:41:58.3	1.060	-0.220	-0.200	-0.770
2020/01/31 14:41:58.4	1.040	-0.220	-0.170	-0.740
2020/01/31 14:41:58.5	1.030	-0.210	-0.140	-0.700
2020/01/31 14:41:58.6	1.010	-0.210	-0.110	-0.670
2020/01/31 14:41:58.7	0.970	-0.200	-0.080	-0.630
2020/01/31 14:41:58.8	0.950	-0.190	-0.060	-0.590
2020/01/31 14:41:58.9	0.920	-0.180	-0.030	-0.550
2020/01/31 14:41:59.0	0.900	-0.170	-0.010	-0.500
2020/01/31 14:41:59.1	0.870	-0.160	0.010	-0.460
2020/01/31 14:41:59.2	0.840	-0.140	0.020	-0.420
2020/01/31 14:41:59.3	0.810	-0.130	0.030	-0.380
2020/01/31 14:41:59.4	0.790	-0.120	0.040	-0.350
2020/01/31 14:41:59.5	0.760	-0.100	0.050	-0.310
2020/01/31 14:41:59.6	0.730	-0.080	0.050	-0.280
2020/01/31 14:41:59.7	0.710	-0.060	0.040	-0.250
2020/01/31 14:41:59.8	0.680	-0.050	0.040	-0.230
2020/01/31 14:41:59.9	0.660	-0.030	0.030	-0.210
2020/01/31 14:42:00.0	0.650	-0.010	0.010	-0.190
2020/01/31 14:42:00.1	0.630	0.020	-0.010	-0.180
2020/01/31 14:42:00.2	0.620	0.040	-0.030	-0.170
2020/01/31 14:42:00.3	0.610	0.060	-0.060	-0.160
2020/01/31 14:42:00.4	0.600	0.080	-0.090	-0.150
2020/01/31 14:42:00.5	0.600	0.110	-0.120	-0.150
2020/01/31 14:42:00.6	0.600	0.130	-0.150	-0.150
2020/01/31 14:42:00.7	0.610	0.150	-0.180	-0.160
2020/01/31 14:42:00.8	0.610	0.180	-0.220	-0.160
2020/01/31 14:42:00.9	0.620	0.200	-0.250	-0.170
2020/01/31 14:42:01.0	0.620	0.220	-0.290	-0.170
2020/01/31 14:42:01.1	0.620	0.250	-0.320	-0.170
2020/01/31 14:42:01.2	0.630	0.270	-0.350	-0.170
2020/01/31 14:42:01.3	0.630	0.290	-0.380	-0.170
2020/01/31 14:42:01.4	0.640	0.310	-0.410	-0.170
2020/01/31 14:42:01.5	0.640	0.320	-0.440	-0.170
2020/01/31 14:42:01.6	0.650	0.340	-0.460	-0.160
2020/01/31 14:42:01.7	0.650	0.350	-0.470	-0.150
2020/01/31 14:42:01.8	0.660	0.360	-0.490	-0.140
2020/01/31 14:42:01.9	0.650	0.370	-0.500	-0.130
2020/01/31 14:42:02.0	0.650	0.380	-0.500	-0.120
2020/01/31 14:42:02.1	0.640	0.390	-0.500	-0.110
2020/01/31 14:42:02.2	0.640	0.390	-0.500	-0.090
2020/01/31 14:42:02.3	0.620	0.390	-0.490	-0.080
2020/01/31 14:42:02.4	0.610	0.390	-0.470	-0.060
2020/01/31 14:42:02.5	0.600	0.380	-0.460	-0.040
2020/01/31 14:42:02.6	0.580	0.380	-0.430	-0.020
2020/01/31 14:42:02.7	0.570	0.370	-0.410	-0.010
2020/01/31 14:42:02.8	0.550	0.360	-0.380	0.010
2020/01/31 14:42:02.9	0.530	0.340	-0.350	0.040
2020/01/31 14:42:03.0	0.500	0.330	-0.320	0.060
2020/01/31 14:42:03.1	0.480	0.310	-0.280	0.080
2020/01/31 14:42:03.2	0.460	0.290	-0.240	0.100
2020/01/31 14:42:03.3	0.440	0.270	-0.210	0.130
2020/01/31 14:42:03.4	0.410	0.250	-0.170	0.150
2020/01/31 14:42:03.5	0.390	0.230	-0.130	0.180
2020/01/31 14:42:03.6	0.360	0.210	-0.100	0.210
2020/01/31 14:42:03.7	0.330	0.190	-0.060	0.230
2020/01/31 14:42:03.8	0.300	0.160	-0.030	0.250
2020/01/31 14:42:03.9	0.280	0.140	-0.000	0.280
2020/01/31 14:42:04.0	0.260	0.120	0.020	0.300
2020/01/31 14:42:04.1	0.230	0.100	0.040	0.330
2020/01/31 14:42:04.2	0.210	0.080	0.060	0.350
2020/01/31 14:42:04.3	0.190	0.060	0.070	0.370
2020/01/31 14:42:04.4	0.180	0.040	0.080	0.390
2020/01/31 14:42:04.5	0.160	0.020	0.080	0.400
2020/01/31 14:42:04.6	0.150	0.010	0.080	0.410
2020/01/31 14:42:04.7	0.130	-0.010	0.070	0.410
2020/01/31 14:42:04.8	0.130	-0.020	0.060	0.410
2020/01/31 14:42:04.9	0.120	-0.030	0.040	0.410
2020/01/31 14:42:05.0	0.120	-0.040	0.010	0.400
2020/01/31 14:42:05.1	0.120	-0.050	-0.020	0.390
2020/01/31 14:42:05.2	0.120	-0.060	-0.060	0.370
2020/01/31 14:42:05.3	0.130	-0.070	-0.100	0.340
2020/01/31 14:42:05.4	0.130	-0.070	-0.140	0.320
2020/01/31 14:42:05.5	0.140	-0.080	-0.180	0.280
2020/01/31 14:42:05.6	0.160	-0.080	-0.230	0.250
2020/01/31 14:42:05.7	0.180	-0.080	-0.280	0.200
2020/01/31 14:42:05.8	0.190	-0.080	-0.330	0.160
2020/01/31 14:42:05.9	0.210	-0.080	-0.380	0.110
2020/01/31 14:42:06.0	0.230	-0.080	-0.430	0.060
2020/01/31 14:42:06.1	0.250	-0.080	-0.480	0.010
2020/01/31 14:42:06.2	0.270	-0.080	-0.530	-0.040
2020/01/31 14:42:06.3	0.290	-0.080	-0.570	-0.090
2020/01/31 14:42:06.4	0.310	-0.080	-0.610	-0.140
2020/01/31 14:42:06.5	0.330	-0.080	-0.640	-0.190
2020/01/31 14:42:06.6	0.350	-0.070	-0.670	-0.240
2020/01/31 14:42:06.7	0.360	-0.070	-0.690	-0.290
2020/01/31 14:42:06.8	0.380	-0.070	-0.710	-0.340
2020/01/31 14:42:06.9	0.400	-0.070	-0.730	-0.380
2020/01/31 14:42:07.0	0.420	-0.070	-0.730	-0.430
2020/01/31 14:42:07.1	0.430	-0.070	-0.730	-0.470
2020/01/31 14:42:07.2	0.440	-0.080	-0.730	-0.500
2020/01/31 14:42:07.3	0.460	-0.080	-0.720	-0.540
2020/01/31 14:42:07.4	0.470	-0.080	-0.700	-0.570
2020/01/31 14:42:07.5	0.480	-0.090	-0.680	-0.600
2020/01/31 14:42:07.6	0.500	-0.090	-0.660	-0.620
2020/01/31 14:42:07.7	0.510	-0.100	-0.630	-0.650
2020/01/31 14:42:07.8	0.520	-0.110	-0.600	-0.670
2020/01/31 14:42:07.9	0.530	-0.110	-0.570	-0.690
2020/01/31 14:42:08.0	0.540	-0.120	-0.530	-0.710
2020/01/31 14:42:08.1	0.560	-0.130	-0.490	-0.720
2020/01/31 14:42:08.2	0.570	-0.140	-0.450	-0.730
2020/01/31 14:42:08.3	0.580	-0.150	-0.410	-0.740
2020/01/31 14:42:08.4	0.600	-0.160	-0.380	-0.750
2020/01/31 14:42:08.5	0.610	-0.170	-0.340	-0.760
2020/01/31 14:42:08.6	0.630	-0.180	-0.300	-0.760
2020/01/31 14:42:08.7	0.650	-0.190	-0.260	-0.770
2020/01/31 14:42:08.8	0.660	-0.190	-0.220	-0.770
2020/01/31 14:42:08.9	0.680	-0.200	-0.190	-0.770
2020/01/31 14:42:09.0	0.700	-0.210	-0.160	-0.770
2020/01/31 14:42:09.1	0.720	-0.220	-0.130	-0.760
2020/01/31 14:42:09.2	0.740	-0.220	-0.110	-0.760
2020/01/31 14:42:09.3	0.760	-0.230	-0.080	-0.760
2020/01/31 14:42:09.4	0.780	-0.230	-0.060	-0.750
2020/01/31 14:42:09.5	0.800	-0.240	-0.040	-0.750
2020/01/31 14:42:09.6	0.810	-0.240	-0.020	-0.740
2020/01/31 14:42:09.7	0.820	-0.240	-0.000	-0.730
2020/01/31 14:42:09.8	0.840	-0.240	0.020	-0.720
2020/01/31 14:42:09.9	0.850	-0.240	0.030	-0.700
2020/01/31 14:42:10.0	0.850	-0.240	0.050	-0.680
2020/01/31 14:42:10.1	0.860	-0.240	0.060	-0.660
2020/01/31 14:42:10.2	0.860	-0.240	0.070	-0.640
2020/01/31 14:42:10.3	0.860	-0.240	0.090	-0.620
2020/01/31 14:42:10.4	0.850	-0.240	0.100	-0.590
2020/01/31 14:42:10.5	0.840	-0.240	0.120	-0.550
2020/01/31 14:42:10.6	0.830	-0.240	0.130	-0.520
2020/01/31 14:42:10.7	0.810	-0.230	0.150	-0.480
2020/01/31 14:42:10.8	0.780	-0.230	0.170	-0.440
2020/01/31 14:42:10.9	0.760	-0.230	0.190	-0.400
2020/01/31 14:42:11.0	0.730	-0.230	0.200	-0.350
2020/01/31 14:42:11.1	0.690	-0.230	0.220	-0.310
2020/01/31 14:42:11.2	0.660	-0.230	0.240	-0.260
2020/01/31 14:42:11.3	0.620	-0.220	0.260	-0.200
2020/01/31 14:42:11.4	0.570	-0.220	0.290	-0.150
2020/01/31 14:42:11.5	0.530	-0.220	0.310	-0.100
2020/01/31 14:42:11.6	0.480	-0.220	0.330	-0.050
2020/01/31 14:42:11.7	0.440	-0.220	0.350	0.000
2020/01/31 14:42:11.8	0.390	-0.210	0.370	0.060
2020/01/31 14:42:11.9	0.340	-0.210	0.390	0.110
2020/01/31 14:42:12.0	0.280	-0.210	0.410	0.160
2020/01/31 14:42:12.1	0.230	-0.200	0.420	0.210
2020/01/31 14:42:12.2	0.170	-0.190	0.440	0.270
2020/01/31 14:42:12.3	0.120	-0.190	0.450	0.320
2020/01/31 14:42:12.4	0.060	-0.180	0.450	0.370
2020/01/31 14:42:12.5	0.010	-0.170	0.460	0.420
2020/01/31 14:42:12.6	359.950	-0.150	0.460	0.470
2020/01/31 14:42:12.7	359.890	-0.140	0.450	0.510
2020/01/31 14:42:12.8	359.840	-0.120	0.450	0.550
2020/01/31 14:42:12.9	359.790	-0.100	0.430	0.590
2020/01/31 14:42:13.0	359.740	-0.080	0.410	0.630
2020/01/31 14:42:13.1	359.690	-0.050	0.390	0.670
2020/01/31 14:42:13.2	359.650	-0.020	0.350	0.700
2020/01/31 14:42:13.3	359.610	0.010	0.320	0.720
2020/01/31 14:42:13.4	359.580	0.040	0.270	0.750
2020/01/31 14:42:13.5	359.550	0.080	0.220	0.760
2020/01/31 14:42:13.6	359.520	0.110	0.160	0.770
2020/01/31 14:42:13.7	359.490	0.150	0.100	0.770
2020/01/31 14:42:13.8	359.470	0.190	0.030	0.770
2020/01/31 14:42:13.9	359.460	0.230	-0.050	0.760
2020/01/31 14:42:14.0	359.450	0.270	-0.130	0.750
2020/01/31 14:42:14.1	359.450	0.310	-0.220	0.730
2020/01/31 14:42:14.2	359.450	0.350	-0.320	0.700
2020/01/31 14:42:14.3	359.460	0.390	-0.410	0.670
2020/01/31 14:42:14.4	359.470	0.430	-0.510	0.630
2020/01/31 14:42:14.5	359.490	0.470	-0.610	0.590
2020/01/31 14:42:14.6	359.510	0.510	-0.710	0.540
2020/01/31 14:42:14.7	359.530	0.540	-0.810	0.490
2020/01/31 14:42:14.8	359.560	0.570	-0.910	0.430
2020/01/31 14:42:14.9	359.590	0.600	-1.010	0.380
2020/01/31 14:42:15.0	359.620	0.620	-1.100	0.320
2020/01/31 14:42:15.1	359.660	0.640	-1.190	0.250
2020/01/31 14:42:15.2	359.690	0.660	-1.270	0.190
2020/01/31 14:42:15.3	359.730	0.670	-1.340	0.130
2020/01/31 14:42:15.4	359.770	0.670	-1.410	0.060
2020/01/31 14:42:15.5	359.800	0.670	-1.470	-0.000
2020/01/31 14:42:15.6	359.840	0.670	-1.520	-0.060
2020/01/31 14:42:15.7	359.870	0.660	-1.560	-0.120
2020/01/31 14:42:15.8	359.900	0.650	-1.590	-0.180
2020/01/31 14:42:15.9	359.930	0.630	-1.610	-0.240
2020/01/31 14:42:16.0	359.970	0.600	-1.620	-0.300
2020/01/31 14:42:16.1	0.000	0.580	-1.630	-0.350
2020/01/31 14:42:16.2	0.030	0.540	-1.620	-0.410
2020/01/31 14:42:16.3	0.060	0.510	-1.600	-0.460
2020/01/31 14:42:16.4	0.090	0.470	-1.580	-0.510
2020/01/31 14:42:16.5	0.120	0.420	-1.540	-0.560
2020/01/31 14:42:16.6	0.150	0.380	-1.500	-0.610
2020/01/31 14:42:16.7	0.180	0.330	-1.460	-0.660
2020/01/31 14:42:16.8	0.210	0.280	-1.400	-0.710
2020/01/31 14:42:16.9	0.240	0.230	-1.340	-0.750
2020/01/31 14:42:17.0	0.270	0.170	-1.280	-0.800
2020/01/31 14:42:17.1	0.310	0.120	-1.210	-0.850
2020/01/31 14:42:17.2	0.340	0.070	-1.140	-0.890
2020/01/31 14:42:17.3	0.370	0.010	-1.070	-0.930
2020/01/31 14:42:17.4	0.410	-0.040	-0.990	-0.970
2020/01/31 14:42:17.5	0.450	-0.090	-0.920	-1.010
2020/01/31 14:42:17.6	0.480	-0.140	-0.840	-1.050
2020/01/31 14:42:17.7	0.520	-0.180	-0.760	-1.090
2020/01/31 14:42:17.8	0.550	-0.230	-0.680	-1.120
2020/01/31 14:42:17.9	0.580	-0.270	-0.600	-1.140
2020/01/31 14:42:18.0	0.620	-0.310	-0.510	-1.160
2020/01/31 14:42:18.1	0.650	-0.340	-0.430	-1.180
2020/01/31 14:42:18.2	0.670	-0.370	-0.350	-1.190
2020/01/31 14:42:18.3	0.700	-0.400	-0.270	-1.190
2020/01/31 14:42:18.4	0.720	-0.420	-0.180	-1.190
2020/01/31 14:42:18.5	0.740	-0.440	-0.100	-1.180
2020/01/31 14:42:18.6	0.750	-0.460	-0.020	-1.170
2020/01/31 14:42:18.7	0.780	-0.470	0.060	-1.150
2020/01/31 14:42:18.8	0.780	-0.480	0.140	-1.120
2020/01/31 14:42:18.9	0.790	-0.490	0.220	-1.090
2020/01/31 14:42:19.0	0.790	-0.490	0.300	-1.060
2020/01/31 14:42:19.1	0.790	-0.490	0.370	-1.020
2020/01/31 14:42:19.2	0.780	-0.490	0.440	-0.980
2020/01/31 14:42:19.3	0.780	-0.480	0.510	-0.930
2020/01/31 14:42:19.4	0.770	-0.470	0.570	-0.890
2020/01/31 14:42:19.5	0.750	-0.460	0.630	-0.840
2020/01/31 14:42:19.6	0.740	-0.450	0.680	-0.780
2020/01/31 14:42:19.7	0.720	-0.430	0.730	-0.730
2020/01/31 14:42:19.8	0.700	-0.410	0.770	-0.670
2020/01/31 14:42:19.9	0.680	-0.390	0.810	-0.610
2020/01/31 14:42:20.0	0.650	-0.370	0.840	-0.550
2020/01/31 14:42:20.1	0.630	-0.340	0.860	-0.500
2020/01/31 14:42:20.2	0.600	-0.320	0.880	-0.440
2020/01/31 14:42:20.3	0.570	-0.290	0.890	-0.380
2020/01/31 14:42:20.4	0.540	-0.270	0.900	-0.320
2020/01/31 14:42:20.5	0.510	-0.240	0.900	-0.260
2020/01/31 14:42:20.6	0.470	-0.210	0.890	-0.190
2020/01/31 14:42:20.7	0.420	-0.190	0.880	-0.140
2020/01/31 14:42:20.8	0.380	-0.160	0.860	-0.070
2020/01/31 14:42:20.9	0.340	-0.130	0.840	-0.020
2020/01/31 14:42:21.0	0.300	-0.110	0.810	0.040
2020/01/31 14:42:21.1	0.260	-0.080	0.780	0.100
2020/01/31 14:42:21.2	0.220	-0.060	0.740	0.150
2020/01/31 14:42:21.3	0.180	-0.040	0.700	0.200
2020/01/31 14:42:21.4	0.140	-0.020	0.660	0.240
2020/01/31 14:42:21.5	0.090	0.000	0.610	0.290
2020/01/31 14:42:21.6	0.050	0.020	0.560	0.320
2020/01/31 14:42:21.7	0.000	0.030	0.510	0.350
2020/01/31 14:42:21.8	359.960	0.050	0.460	0.380
2020/01/31 14:42:21.9	359.930	0.060	0.400	0.400
2020/01/31 14:42:22.0	359.890	0.070	0.340	0.420
2020/01/31 14:42:22.1	359.860	0.070	0.290	0.430
2020/01/31 14:42:22.2	359.830	0.070	0.230	0.440
2020/01/31 14:42:22.3	359.810	0.080	0.180	0.440
2020/01/31 14:42:22.4	359.790	0.080	0.120	0.430
2020/01/31 14:42:22.5	359.770	0.070	0.060	0.420
2020/01/31 14:42:22.6	359.750	0.070	0.010	0.410
2020/01/31 14:42:22.7	359.730	0.060	-0.050	0.390
2020/01/31 14:42:22.8	359.710	0.050	-0.100	0.370
2020/01/31 14:42:22.9	359.700	0.040	-0.150	0.350
2020/01/31 14:42:23.0	359.700	0.030	-0.200	0.330
2020/01/31 14:42:23.1	359.690	0.010	-0.250	0.300
2020/01/31 14:42:23.2	359.690	0.000	-0.300	0.270
2020/01/31 14:42:23.3	359.690	-0.010	-0.350	0.240
2020/01/31 14:42:23.4	359.690	-0.030	-0.390	0.210
2020/01/31 14:42:23.5	359.700	-0.040	-0.440	0.180
2020/01/31 14:42:23.6	359.700	-0.060	-0.480	0.150
2020/01/31 14:42:23.7	359.730	-0.070	-0.510	0.110
2020/01/31 14:42:23.8	359.740	-0.090	-0.550	0.080
2020/01/31 14:42:23.9	359.750	-0.100	-0.590	0.050
2020/01/31 14:42:24.0	359.760	-0.110	-0.620	0.020
2020/01/31 14:42:24.1	359.780	-0.120	-0.650	-0.010
2020/01/31 14:42:24.2	359.790	-0.130	-0.670	-0.040
2020/01/31 14:42:24.3	359.800	-0.140	-0.690	-0.060
2020/01/31 14:42:24.4	359.820	-0.140	-0.710	-0.090
2020/01/31 14:42:24.5	359.830	-0.150	-0.730	-0.110
2020/01/31 14:42:24.6	359.840	-0.150	-0.740	-0.140
2020/01/31 14:42:24.7	359.840	-0.150	-0.760	-0.150
2020/01/31 14:42:24.8	359.850	-0.140	-0.760	-0.170
2020/01/31 14:42:24.9	359.860	-0.140	-0.770	-0.190
2020/01/31 14:42:25.0	359.870	-0.130	-0.770	-0.200
2020/01/31 14:42:25.1	359.870	-0.120	-0.770	-0.210
2020/01/31 14:42:25.2	359.880	-0.110	-0.760	-0.220
2020/01/31 14:42:25.3	359.880	-0.090	-0.760	-0.230
2020/01/31 14:42:25.4	359.880	-0.080	-0.750	-0.230
2020/01/31 14:42:25.5	359.880	-0.060	-0.740	-0.230
2020/01/31 14:42:25.6	359.880	-0.040	-0.730	-0.230
2020/01/31 14:42:25.7	359.890	-0.020	-0.710	-0.230
2020/01/31 14:42:25.8	359.880	0.010	-0.700	-0.230
2020/01/31 14:42:25.9	359.880	0.030	-0.690	-0.220
2020/01/31 14:42:26.0	359.880	0.060	-0.670	-0.210
2020/01/31 14:42:26.1	359.880	0.090	-0.660	-0.200
2020/01/31 14:42:26.2	359.880	0.120	-0.640	-0.190
2020/01/31 14:42:26.3	359.880	0.150	-0.630	-0.180
2020/01/31 14:42:26.4	359.890	0.180	-0.620	-0.180
2020/01/31 14:42:26.5	359.890	0.210	-0.610	-0.170
2020/01/31 14:42:26.6	359.900	0.240	-0.600	-0.160
2020/01/31 14:42:26.7	359.920	0.260	-0.590	-0.150
2020/01/31 14:42:26.8	359.940	0.290	-0.580	-0.140
2020/01/31 14:42:26.9	359.950	0.320	-0.580	-0.130
2020/01/31 14:42:27.0	359.970	0.350	-0.580	-0.130
2020/01/31 14:42:27.1	359.990	0.370	-0.580	-0.120
2020/01/31 14:42:27.2	0.010	0.390	-0.570	-0.120
2020/01/31 14:42:27.3	0.030	0.420	-0.570	-0.110
2020/01/31 14:42:27.4	0.050	0.430	-0.580	-0.110
2020/01/31 14:42:27.5	0.070	0.450	-0.580	-0.110
2020/01/31 14:42:27.6	0.100	0.460	-0.580	-0.110
2020/01/31 14:42:27.7	0.120	0.470	-0.580	-0.110
2020/01/31 14:42:27.8	0.140	0.480	-0.580	-0.110
2020/01/31 14:42:27.9	0.160	0.490	-0.580	-0.110
2020/01/31 14:42:28.0	0.180	0.490	-0.580	-0.110
2020/01/31 14:42:28.1	0.200	0.480	-0.580	-0.110
2020/01/31 14:42:28.2	0.230	0.480	-0.570	-0.120
2020/01/31 14:42:28.3	0.250	0.470	-0.570	-0.120
2020/01/31 14:42:28.4	0.270	0.450	-0.570	-0.130
2020/01/31 14:42:28.5	0.280	0.440	-0.560	-0.140
2020/01/31 14:42:28.6	0.300	0.420	-0.550	-0.150
2020/01/31 14:42:28.7	0.320	0.400	-0.540	-0.170
2020/01/31 14:42:28.8	0.340	0.370	-0.530	-0.180
2020/01/31 14:42:28.9	0.350	0.340	-0.510	-0.190
2020/01/31 14:42:29.0	0.370	0.310	-0.500	-0.210
2020/01/31 14:42:29.1	0.380	0.270	-0.490	-0.230
2020/01/31 14:42:29.2	0.400	0.230	-0.470	-0.250
2020/01/31 14:42:29.3	0.420	0.190	-0.450	-0.280
2020/01/31 14:42:29.4	0.430	0.150	-0.430	-0.300
2020/01/31 14:42:29.5	0.450	0.100	-0.420	-0.330
2020/01/31 14:42:29.6	0.470	0.050	-0.390	-0.360
2020/01/31 14:42:29.7	0.480	0.010	-0.380	-0.390
2020/01/31 14:42:29.8	0.500	-0.040	-0.350	-0.420
2020/01/31 14:42:29.9	0.510	-0.100	-0.330	-0.460
2020/01/31 14:42:30.0	0.530	-0.150	-0.310	-0.500
2020/01/31 14:42:30.1	0.540	-0.200	-0.280	-0.540
2020/01/31 14:42:30.2	0.550	-0.260	-0.260	-0.570
2020/01/31 14:42:30.3	0.560	-0.310	-0.230	-0.610
2020/01/31 14:42:30.4	0.570	-0.370	-0.200	-0.650
2020/01/31 14:42:30.5	0.580	-0.420	-0.170	-0.690
2020/01/31 14:42:30.6	0.590	-0.480	-0.140	-0.730
2020/01/31 14:42:30.7	0.590	-0.530	-0.110	-0.770
2020/01/31 14:42:30.8	0.600	-0.580	-0.080	-0.810
2020/01/31 14:42:30.9	0.600	-0.630	-0.050	-0.850
2020/01/31 14:42:31.0	0.600	-0.670	-0.020	-0.880
2020/01/31 14:42:31.1	0.600	-0.720	0.010	-0.910
2020/01/31 14:42:31.2	0.590	-0.760	0.040	-0.930
2020/01/31 14:42:31.3	0.590	-0.800	0.060	-0.960
2020/01/31 14:42:31.4	0.590	-0.830	0.090	-0.980
2020/01/31 14:42:31.5	0.580	-0.860	0.120	-0.990
2020/01/31 14:42:31.6	0.580	-0.880	0.140	-1.000
2020/01/31 14:42:31.7	0.560	-0.900	0.160	-1.010
2020/01/31 14:42:31.8	0.550	-0.910	0.190	-1.010
2020/01/31 14:42:31.9	0.540	-0.920	0.210	-1.010
2020/01/31 14:42:32.0	0.530	-0.920	0.230	-1.000
2020/01/31 14:42:32.1	0.520	-0.910	0.250	-0.980
2020/01/31 14:42:32.2	0.510	-0.900	0.260	-0.960
2020/01/31 14:42:32.3	0.500	-0.890	0.280	-0.940
2020/01/31 14:42:32.4	0.490	-0.860	0.300	-0.910
2020/01/31 14:42:32.5	0.480	-0.830	0.310	-0.870
2020/01/31 14:42:32.6	0.460	-0.800	0.320	-0.830
2020/01/31 14:42:32.7	0.450	-0.760	0.340	-0.790
2020/01/31 14:42:32.8	0.430	-0.710	0.350	-0.740
2020/01/31 14:42:32.9	0.420	-0.660	0.360	-0.690
2020/01/31 14:42:33.0	0.400	-0.600	0.360	-0.630
2020/01/31 14:42:33.1	0.380	-0.540	0.370	-0.570
2020/01/31 14:42:33.2	0.360	-0.470	0.370	-0.510
2020/01/31 14:42:33.3	0.330	-0.410	0.380	-0.450
2020/01/31 14:42:33.4	0.310	-0.330	0.380	-0.380
2020/01/31 14:42:33.5	0.280	-0.260	0.370	-0.320
2020/01/31 14:42:33.6	0.260	-0.180	0.370	-0.250
2020/01/31 14:42:33.7	0.240	-0.100	0.360	-0.180
2020/01/31 14:42:33.8	0.210	-0.020	0.350	-0.110
2020/01/31 14:42:33.9	0.180	0.060	0.330	-0.040
2020/01/31 14:42:34.0	0.150	0.140	0.310	0.030
2020/01/31 14:42:34.1	0.130	0.220	0.290	0.100
2020/01/31 14:42:34.2	0.100	0.300	0.270	0.160
2020/01/31 14:42:34.3	0.070	0.380	0.240	0.230
2020/01/31 14:42:34.4	0.040	0.450	0.200	0.290
2020/01/31 14:42:34.5	0.010	0.520	0.170	0.350
2020/01/31 14:42:34.6	359.980	0.590	0.130	0.400
2020/01/31 14:42:34.7	359.950	0.650	0.080	0.450
2020/01/31 14:42:34.8	359.920	0.710	0.040	0.500
2020/01/31 14:42:34.9	359.900	0.760	-0.010	0.540
2020/01/31 14:42:35.0	359.870	0.810	-0.070	0.580
2020/01/31 14:42:35.1	359.850	0.850	-0.120	0.610
2020/01/31 14:42:35.2	359.830	0.880	-0.180	0.640
2020/01/31 14:42:35.3	359.810	0.910	-0.240	0.660
2020/01/31 14:42:35.4	359.790	0.930	-0.290	0.680
2020/01/31 14:42:35.5	359.780	0.950	-0.350	0.680
2020/01/31 14:42:35.6	359.760	0.960	-0.410	0.690
2020/01/31 14:42:35.7	359.760	0.960	-0.470	0.680
2020/01/31 14:42:35.8	359.750	0.950	-0.530	0.670
2020/01/31 14:42:35.9	359.740	0.940	-0.580	0.650
2020/01/31 14:42:36.0	359.740	0.920	-0.630	0.620
2020/01/31 14:42:36.1	359.750	0.890	-0.680	0.590
2020/01/31 14:42:36.2	359.750	0.860	-0.730	0.550
2020/01/31 14:42:36.3	359.760	0.820	-0.770	0.500
2020/01/31 14:42:36.4	359.770	0.780	-0.810	0.450
2020/01/31 14:42:36.5	359.790	0.730	-0.850	0.390
2020/01/31 14:42:36.6	359.810	0.680	-0.880	0.320
2020/01/31 14:42:36.7	359.820	0.620	-0.900	0.250
2020/01/31 14:42:36.8	359.850	0.560	-0.920	0.180
2020/01/31 14:42:36.9	359.880	0.500	-0.940	0.100
2020/01/31 14:42:37.0	359.910	0.440	-0.950	0.020
2020/01/31 14:42:37.1	359.940	0.370	-0.950	-0.060
2020/01/31 14:42:37.2	359.980	0.300	-0.950	-0.140
2020/01/31 14:42:37.3	0.020	0.230	-0.950	-0.230
2020/01/31 14:42:37.4	0.070	0.160	-0.940	-0.310
2020/01/31 14:42:37.5	0.110	0.100	-0.920	-0.390
2020/01/31 14:42:37.6	0.160	0.030	-0.900	-0.480
2020/01/31 14:42:37.7	0.210	-0.040	-0.870	-0.560
2020/01/31 14:42:37.8	0.260	-0.100	-0.840	-0.640
2020/01/31 14:42:37.9	0.310	-0.160	-0.810	-0.720
2020/01/31 14:42:38.0	0.360	-0.220	-0.770	-0.790
2020/01/31 14:42:38.1	0.400	-0.280	-0.720	-0.870
2020/01/31 14:42:38.2	0.450	-0.330	-0.670	-0.930
2020/01/31 14:42:38.3	0.490	-0.380	-0.620	-0.990
2020/01/31 14:42:38.4	0.530	-0.420	-0.570	-1.050
2020/01/31 14:42:38.5	0.570	-0.470	-0.510	-1.100
2020/01/31 14:42:38.6	0.610	-0.500	-0.460	-1.150
2020/01/31 14:42:38.7	0.630	-0.540	-0.390	-1.190
2020/01/31 14:42:38.8	0.660	-0.570	-0.340	-1.230
2020/01/31 14:42:38.9	0.690	-0.600	-0.280	-1.260
2020/01/31 14:42:39.0	0.710	-0.620	-0.220	-1.280
2020/01/31 14:42:39.1	0.740	-0.640	-0.170	-1.300
2020/01/31 14:42:39.2	0.760	-0.650	-0.120	-1.320
2020/01/31 14:42:39.3	0.780	-0.660	-0.070	-1.330
2020/01/31 14:42:39.4	0.800	-0.670	-0.030	-1.340
2020/01/31 14:42:39.5	0.810	-0.680	0.020	-1.340
2020/01/31 14:42:39.6	0.820	-0.680	0.050	-1.330
2020/01/31 14:42:39.7	0.840	-0.670	0.080	-1.330
2020/01/31 14:42:39.8	0.850	-0.670	0.110	-1.320
2020/01/31 14:42:39.9	0.860	-0.660	0.130	-1.310
2020/01/31 14:42:40.0	0.870	-0.650	0.150	-1.290
2020/01/31 14:42:40.1	0.880	-0.630	0.160	-1.270
2020/01/31 14:42:40.2	0.880	-0.620	0.170	-1.250
2020/01/31 14:42:40.3	0.890	-0.600	0.170	-1.220
2020/01/31 14:42:40.4	0.900	-0.580	0.170	-1.200
2020/01/31 14:42:40.5	0.900	-0.550	0.160	-1.160
2020/01/31 14:42:40.6	0.900	-0.530	0.150	-1.130
2020/01/31 14:42:40.7	0.910	-0.500	0.140	-1.090
2020/01/31 14:42:40.8	0.910	-0.470	0.130	-1.050
2020/01/31 14:42:40.9	0.910	-0.440	0.110	-1.010
2020/01/31 14:42:41.0	0.900	-0.410	0.080	-0.960
2020/01/31 14:42:41.1	0.890	-0.380	0.060	-0.920
2020/01/31 14:42:41.2	0.890	-0.350	0.030	-0.870
2020/01/31 14:42:41.3	0.880	-0.310	-0.000	-0.820
2020/01/31 14:42:41.4	0.860	-0.280	-0.030	-0.770
2020/01/31 14:42:41.5	0.850	-0.240	-0.060	-0.710
2020/01/31 14:42:41.6	0.840	-0.210	-0.100	-0.660
2020/01/31 14:42:41.7	0.830	-0.170	-0.130	-0.610
2020/01/31 14:42:41.8	0.810	-0.130	-0.160	-0.550
2020/01/31 14:42:41.9	0.790	-0.090	-0.200	-0.500
2020/01/31 14:42:42.0	0.770	-0.060	-0.230	-0.440
2020/01/31 14:42:42.1	0.760	-0.020	-0.260	-0.380
2020/01/31 14:42:42.2	0.740	0.020	-0.290	-0.330
2020/01/31 14:42:42.3	0.720	0.060	-0.320	-0.270
2020/01/31 14:42:42.4	0.700	0.090	-0.350	-0.220
2020/01/31 14:42:42.5	0.690	0.130	-0.380	-0.160
2020/01/31 14:42:42.6	0.680	0.170	-0.410	-0.110
2020/01/31 14:42:42.7	0.660	0.210	-0.430	-0.060
2020/01/31 14:42:42.8	0.650	0.240	-0.460	-0.010
2020/01/31 14:42:42.9	0.640	0.280	-0.490	0.030
2020/01/31 14:42:43.0	0.630	0.310	-0.510	0.070
2020/01/31 14:42:43.1	0.630	0.340	-0.540	0.110
2020/01/31 14:42:43.2	0.620	0.380	-0.560	0.140
2020/01/31 14:42:43.3	0.620	0.410	-0.580	0.170
2020/01/31 14:42:43.4	0.620	0.440	-0.610	0.190
2020/01/31 14:42:43.5	0.620	0.470	-0.630	0.210
2020/01/31 14:42:43.6	0.630	0.490	-0.640	0.230
2020/01/31 14:42:43.7	0.640	0.520	-0.660	0.240
2020/01/31 14:42:43.8	0.650	0.540	-0.680	0.250
2020/01/31 14:42:43.9	0.650	0.560	-0.690	0.250
2020/01/31 14:42:44.0	0.660	0.580	-0.700	0.260
2020/01/31 14:42:44.1	0.660	0.600	-0.710	0.260
2020/01/31 14:42:44.2	0.670	0.610	-0.710	0.260
2020/01/31 14:42:44.3	0.670	0.620	-0.710	0.250
2020/01/31 14:42:44.4	0.680	0.630	-0.710	0.240
2020/01/31 14:42:44.5	0.680	0.640	-0.700	0.230
2020/01/31 14:42:44.6	0.690	0.640	-0.690	0.220
2020/01/31 14:42:44.7	0.690	0.640	-0.670	0.210
2020/01/31 14:42:44.8	0.700	0.640	-0.650	0.190
2020/01/31 14:42:44.9	0.700	0.630	-0.630	0.180
2020/01/31 14:42:45.0	0.700	0.620	-0.610	0.160
2020/01/31 14:42:45.1	0.700	0.610	-0.580	0.150
2020/01/31 14:42:45.2	0.700	0.590	-0.540	0.130
2020/01/31 14:42:45.3	0.700	0.570	-0.510	0.120
2020/01/31 14:42:45.4	0.690	0.550	-0.470	0.100
2020/01/31 14:42:45.5	0.690	0.520	-0.420	0.090
2020/01/31 14:42:45.6	0.680	0.490	-0.380	0.080
2020/01/31 14:42:45.7	0.670	0.460	-0.340	0.060
2020/01/31 14:42:45.8	0.660	0.420	-0.290	0.050
2020/01/31 14:42:45.9	0.650	0.390	-0.240	0.040
2020/01/31 14:42:46.0	0.650	0.350	-0.190	0.030
2020/01/31 14:42:46.1	0.640	0.310	-0.140	0.020
2020/01/31 14:42:46.2	0.630	0.260	-0.090	0.010
2020/01/31 14:42:46.3	0.620	0.220	-0.040	-0.000
2020/01/31 14:42:46.4	0.620	0.170	0.000	-0.010
2020/01/31 14:42:46.5	0.610	0.130	0.050	-0.030
2020/01/31 14:42:46.6	0.600	0.080	0.090	-0.040
2020/01/31 14:42:46.7	0.600	0.040	0.140	-0.060
2020/01/31 14:42:46.8	0.590	-0.010	0.180	-0.080
2020/01/31 14:42:46.9	0.590	-0.050	0.210	-0.100
2020/01/31 14:42:47.0	0.590	-0.100	0.240	-0.120
2020/01/31 14:42:47.1	0.590	-0.140	0.270	-0.140
2020/01/31 14:42:47.2	0.590	-0.180	0.300	-0.170
2020/01/31 14:42:47.3	0.590	-0.220	0.320	-0.200
2020/01/31 14:42:47.4	0.590	-0.260	0.340	-0.220
2020/01/31 14:42:47.5	0.600	-0.300	0.350	-0.260
2020/01/31 14:42:47.6	0.600	-0.330	0.360	-0.290
2020/01/31 14:42:47.7	0.590	-0.360	0.370	-0.330
2020/01/31 14:42:47.8	0.600	-0.380	0.380	-0.360
2020/01/31 14:42:47.9	0.610	-0.410	0.380	-0.400
2020/01/31 14:42:48.0	0.620	-0.430	0.370	-0.430
2020/01/31 14:42:48.1	0.630	-0.440	0.370	-0.470
2020/01/31 14:42:48.2	0.640	-0.460	0.360	-0.510
2020/01/31 14:42:48.3	0.660	-0.470	0.340	-0.540
2020/01/31 14:42:48.4	0.670	-0.470	0.330	-0.580
2020/01/31 14:42:48.5	0.690	-0.480	0.310	-0.610
2020/01/31 14:42:48.6	0.700	-0.480	0.290	-0.640
2020/01/31 14:42:48.7	0.720	-0.480	0.280	-0.680
2020/01/31 14:42:48.8	0.730	-0.470	0.260	-0.700
2020/01/31 14:42:48.9	0.740	-0.470	0.230	-0.730
2020/01/31 14:42:49.0	0.750	-0.460	0.210	-0.750
2020/01/31 14:42:49.1	0.760	-0.450	0.190	-0.760
2020/01/31 14:42:49.2	0.770	-0.440	0.170	-0.770
2020/01/31 14:42:49.3	0.770	-0.430	0.150	-0.780
2020/01/31 14:42:49.4	0.770	-0.420	0.130	-0.780
2020/01/31 14:42:49.5	0.770	-0.410	0.120	-0.780
2020/01/31 14:42:49.6	0.760	-0.410	0.100	-0.770
2020/01/31 14:42:49.7	0.740	-0.400	0.080	-0.760
2020/01/31 14:42:49.8	0.730	-0.390	0.070	-0.750
2020/01/31 14:42:49.9	0.710	-0.380	0.060	-0.740
2020/01/31 14:42:50.0	0.700	-0.370	0.040	-0.720
2020/01/31 14:42:50.1	0.680	-0.360	0.030	-0.710
2020/01/31 14:42:50.2	0.660	-0.360	0.020	-0.680
2020/01/31 14:42:50.3	0.630	-0.350	0.010	-0.660
2020/01/31 14:42:50.4	0.610	-0.350	-0.000	-0.630
2020/01/31 14:42:50.5	0.580	-0.340	-0.010	-0.610
2020/01/31 14:42:50.6	0.550	-0.340	-0.030	-0.580
2020/01/31 14:42:50.7	0.520	-0.330	-0.040	-0.540
2020/01/31 14:42:50.8	0.490	-0.330	-0.050	-0.510
2020/01/31 14:42:50.9	0.460	-0.330	-0.060	-0.470
2020/01/31 14:42:51.0	0.420	-0.320	-0.080	-0.440
2020/01/31 14:42:51.1	0.390	-0.320	-0.090	-0.400
2020/01/31 14:42:51.2	0.360	-0.310	-0.110	-0.360
2020/01/31 14:42:51.3	0.330	-0.310	-0.130	-0.330
2020/01/31 14:42:51.4	0.300	-0.300	-0.150	-0.290
2020/01/31 14:42:51.5	0.270	-0.290	-0.170	-0.250
2020/01/31 14:42:51.6	0.250	-0.280	-0.190	-0.210
2020/01/31 14:42:51.7	0.220	-0.260	-0.220	-0.180
2020/01/31 14:42:51.8	0.200	-0.250	-0.250	-0.140
2020/01/31 14:42:51.9	0.180	-0.230	-0.280	-0.110
2020/01/31 14:42:52.0	0.170	-0.210	-0.310	-0.080
2020/01/31 14:42:52.1	0.150	-0.180	-0.350	-0.040
2020/01/31 14:42:52.2	0.150	-0.160	-0.390	-0.020
2020/01/31 14:42:52.3	0.140	-0.130	-0.430	0.010
2020/01/31 14:42:52.4	0.140	-0.090	-0.480	0.030
2020/01/31 14:42:52.5	0.140	-0.060	-0.520	0.050
2020/01/31 14:42:52.6	0.140	-0.020	-0.570	0.070
2020/01/31 14:42:52.7	0.140	0.020	-0.620	0.070
2020/01/31 14:42:52.8	0.150	0.060	-0.680	0.080
2020/01/31 14:42:52.9	0.170	0.110	-0.730	0.080
2020/01/31 14:42:53.0	0.180	0.160	-0.780	0.080
2020/01/31 14:42:53.1	0.200	0.210	-0.830	0.080
2020/01/31 14:42:53.2	0.220	0.260	-0.880	0.070
2020/01/31 14:42:53.3	0.240	0.310	-0.930	0.050
2020/01/31 14:42:53.4	0.270	0.350	-0.980	0.030
2020/01/31 14:42:53.5	0.290	0.400	-1.030	0.010
2020/01/31 14:42:53.6	0.320	0.450	-1.070	-0.010
2020/01/31 14:42:53.7	0.350	0.500	-1.110	-0.030
2020/01/31 14:42:53.8	0.380	0.540	-1.140	-0.060
2020/01/31 14:42:53.9	0.410	0.580	-1.180	-0.080
2020/01/31 14:42:54.0	0.430	0.620	-1.200	-0.110
2020/01/31 14:42:54.1	0.460	0.660	-1.230	-0.130
2020/01/31 14:42:54.2	0.490	0.690	-1.240	-0.160
2020/01/31 14:42:54.3	0.510	0.710	-1.260	-0.190
2020/01/31 14:42:54.4	0.540	0.730	-1.270	-0.210
2020/01/31 14:42:54.5	0.560	0.750	-1.270	-0.230
2020/01/31 14:42:54.6	0.580	0.760	-1.260	-0.260
2020/01/31 14:42:54.7	0.580	0.770	-1.250	-0.280
2020/01/31 14:42:54.8	0.600	0.770	-1.240	-0.300
2020/01/31 14:42:54.9	0.620	0.760	-1.220	-0.320
2020/01/31 14:42:55.0	0.630	0.750	-1.190	-0.340
2020/01/31 14:42:55.1	0.650	0.740	-1.150	-0.360
2020/01/31 14:42:55.2	0.660	0.710	-1.110	-0.380
2020/01/31 14:42:55.3	0.670	0.690	-1.070	-0.400
2020/01/31 14:42:55.4	0.680	0.660	-1.020	-0.420
2020/01/31 14:42:55.5	0.700	0.620	-0.970	-0.440
2020/01/31 14:42:55.6	0.710	0.580	-0.910	-0.460
2020/01/31 14:42:55.7	0.720	0.540	-0.850	-0.490
2020/01/31 14:42:55.8	0.730	0.490	-0.790	-0.510
2020/01/31 14:42:55.9	0.740	0.440	-0.730	-0.540
2020/01/31 14:42:56.0	0.750	0.390	-0.670	-0.570
2020/01/31 14:42:56.1	0.770	0.330	-0.610	-0.600
2020/01/31 14:42:56.2	0.780	0.280	-0.550	-0.630
2020/01/31 14:42:56.3	0.800	0.220	-0.490	-0.660
2020/01/31 14:42:56.4	0.820	0.160	-0.430	-0.700
2020/01/31 14:42:56.5	0.830	0.110	-0.380	-0.730
2020/01/31 14:42:56.6	0.850	0.050	-0.320	-0.770
2020/01/31 14:42:56.7	0.860	-0.000	-0.270	-0.810
2020/01/31 14:42:56.8	0.880	-0.050	-0.220	-0.850
2020/01/31 14:42:56.9	0.910	-0.100	-0.170	-0.880
2020/01/31 14:42:57.0	0.930	-0.150	-0.130	-0.910
2020/01/31 14:42:57.1	0.950	-0.190	-0.080	-0.940
2020/01/31 14:42:57.2	0.970	-0.230	-0.030	-0.970
2020/01/31 14:42:57.3	0.990	-0.270	0.010	-0.990
2020/01/31 14:42:57.4	1.000	-0.300	0.060	-1.010
2020/01/31 14:42:57.5	1.020	-0.330	0.110	-1.020
2020/01/31 14:42:57.6	1.030	-0.350	0.160	-1.030
2020/01/31 14:42:57.7	1.030	-0.370	0.210	-1.030
2020/01/31 14:42:57.8	1.040	-0.390	0.260	-1.030
2020/01/31 14:42:57.9	1.040	-0.400	0.310	-1.020
2020/01/31 14:42:58.0	1.040	-0.400	0.370	-1.010
2020/01/31 14:42:58.1	1.030	-0.400	0.420	-0.990
2020/01/31 14:42:58.2	1.030	-0.400	0.480	-0.960
2020/01/31 14:42:58.3	1.020	-0.390	0.540	-0.930
2020/01/31 14:42:58.4	1.000	-0.390	0.600	-0.890
2020/01/31 14:42:58.5	0.990	-0.370	0.650	-0.850
2020/01/31 14:42:58.6	0.970	-0.360	0.710	-0.800
2020/01/31 14:42:58.7	0.950	-0.340	0.760	-0.760
2020/01/31 14:42:58.8	0.920	-0.320	0.810	-0.700
2020/01/31 14:42:58.9	0.890	-0.300	0.860	-0.650
2020/01/31 14:42:59.0	0.860	-0.280	0.900	-0.590
2020/01/31 14:42:59.1	0.830	-0.250	0.930	-0.540
2020/01/31 14:42:59.2	0.800	-0.230	0.960	-0.480
2020/01/31 14:42:59.3	0.770	-0.200	0.990	-0.420
2020/01/31 14:42:59.4	0.730	-0.180	1.000	-0.360
2020/01/31 14:42:59.5	0.700	-0.150	1.010	-0.300
2020/01/31 14:42:59.6	0.660	-0.120	1.010	-0.250
2020/01/31 14:42:59.7	0.620	-0.100	1.010	-0.190
2020/01/31 14:42:59.8	0.590	-0.070	1.000	-0.140
2020/01/31 14:42:59.9	0.550	-0.040	0.980	-0.080
2020/01/31 14:43:00.0	0.520	-0.020	0.950	-0.030
2020/01/31 14:43:00.1	0.480	0.000	0.920	0.010
2020/01/31 14:43:00.2	0.440	0.020	0.880	0.060
2020/01/31 14:43:00.3	0.410	0.040	0.830	0.100
2020/01/31 14:43:00.4	0.370	0.060	0.780	0.140
2020/01/31 14:43:00.5	0.340	0.080	0.720	0.170
2020/01/31 14:43:00.6	0.300	0.090	0.650	0.200
2020/01/31 14:43:00.7	0.250	0.100	0.590	0.230
2020/01/31 14:43:00.8	0.210	0.110	0.520	0.250
2020/01/31 14:43:00.9	0.180	0.120	0.450	0.270
2020/01/31 14:43:01.0	0.140	0.120	0.370	0.280
2020/01/31 14:43:01.1	0.110	0.120	0.280	0.280
2020/01/31 14:43:01.2	0.080	0.130	0.200	0.280
2020/01/31 14:43:01.3	0.040	0.120	0.120	0.270
2020/01/31 14:43:01.4	0.020	0.120	0.030	0.260
2020/01/31 14:43:01.5	359.990	0.110	-0.050	0.240
2020/01/31 14:43:01.6	359.960	0.110	-0.140	0.210
2020/01/31 14:43:01.7	359.940	0.100	-0.230	0.180
2020/01/31 14:43:01.8	359.920	0.090	-0.310	0.140
2020/01/31 14:43:01.9	359.910	0.070	-0.390	0.100
2020/01/31 14:43:02.0	359.900	0.060	-0.470	0.050
2020/01/31 14:43:02.1	359.890	0.050	-0.540	-0.000
2020/01/31 14:43:02.2	359.890	0.030	-0.620	-0.060
2020/01/31 14:43:02.3	359.900	0.020	-0.690	-0.120
2020/01/31 14:43:02.4	359.910	0.000	-0.750	-0.180
2020/01/31 14:43:02.5	359.930	-0.010	-0.820	-0.250
2020/01/31 14:43:02.6	359.950	-0.030	-0.880	-0.310
2020/01/31 14:43:02.7	359.990	-0.040	-0.930	-0.390
2020/01/31 14:43:02.8	0.030	-0.060	-0.980	-0.460
2020/01/31 14:43:02.9	0.070	-0.070	-1.030	-0.530
2020/01/31 14:43:03.0	0.110	-0.080	-1.080	-0.600
2020/01/31 14:43:03.1	0.170	-0.090	-1.120	-0.670
2020/01/31 14:43:03.2	0.220	-0.100	-1.160	-0.740
2020/01/31 14:43:03.3	0.280	-0.110	-1.190	-0.810
2020/01/31 14:43:03.4	0.340	-0.120	-1.220	-0.880
2020/01/31 14:43:03.5	0.410	-0.120	-1.250	-0.950
2020/01/31 14:43:03.6	0.470	-0.130	-1.270	-1.010
2020/01/31 14:43:03.7	0.550	-0.130	-1.300	-1.080
2020/01/31 14:43:03.8	0.620	-0.130	-1.310	-1.140
2020/01/31 14:43:03.9	0.690	-0.140	-1.320	-1.200
2020/01/31 14:43:04.0	0.760	-0.140	-1.320	-1.250
2020/01/31 14:43:04.1	0.830	-0.140	-1.320	-1.310
2020/01/31 14:43:04.2	0.900	-0.140	-1.310	-1.350
2020/01/31 14:43:04.3	0.970	-0.140	-1.300	-1.400
2020/01/31 14:43:04.4	1.030	-0.140	-1.290	-1.440
2020/01/31 14:43:04.5	1.100	-0.140	-1.270	-1.480
2020/01/31 14:43:04.6	1.160	-0.140	-1.240	-1.510
2020/01/31 14:43:04.7	1.220	-0.140	-1.210	-1.540
2020/01/31 14:43:04.8	1.280	-0.140	-1.180	-1.560
2020/01/31 14:43:04.9	1.330	-0.130	-1.150	-1.580
2020/01/31 14:43:05.0	1.380	-0.130	-1.110	-1.590
2020/01/31 14:43:05.1	1.430	-0.130	-1.060	-1.590
2020/01/31 14:43:05.2	1.480	-0.130	-1.020	-1.590
2020/01/31 14:43:05.3	1.520	-0.130	-0.970	-1.580
2020/01/31 14:43:05.4	1.550	-0.130	-0.910	-1.560
2020/01/31 14:43:05.5	1.580	-0.130	-0.860	-1.540
2020/01/31 14:43:05.6	1.610	-0.120	-0.800	-1.510
2020/01/31 14:43:05.7	1.630	-0.120	-0.740	-1.470
2020/01/31 14:43:05.8	1.650	-0.120	-0.670	-1.430
2020/01/31 14:43:05.9	1.670	-0.120	-0.610	-1.390
2020/01/31 14:43:06.0	1.680	-0.120	-0.540	-1.330
2020/01/31 14:43:06.1	1.680	-0.120	-0.480	-1.270
2020/01/31 14:43:06.2	1.680	-0.120	-0.410	-1.210
2020/01/31 14:43:06.3	1.680	-0.120	-0.340	-1.140
2020/01/31 14:43:06.4	1.670	-0.120	-0.280	-1.070
2020/01/31 14:43:06.5	1.660	-0.120	-0.210	-1.000
2020/01/31 14:43:06.6	1.640	-0.120	-0.150	-0.920
2020/01/31 14:43:06.7	1.610	-0.120	-0.090	-0.850
2020/01/31 14:43:06.8	1.590	-0.120	-0.030	-0.770
2020/01/31 14:43:06.9	1.560	-0.130	0.020	-0.690
2020/01/31 14:43:07.0	1.540	-0.130	0.070	-0.610
2020/01/31 14:43:07.1	1.510	-0.130	0.120	-0.530
2020/01/31 14:43:07.2	1.480	-0.130	0.170	-0.450
2020/01/31 14:43:07.3	1.450	-0.130	0.210	-0.380
2020/01/31 14:43:07.4	1.420	-0.130	0.240	-0.310
2020/01/31 14:43:07.5	1.390	-0.130	0.280	-0.230
2020/01/31 14:43:07.6	1.360	-0.130	0.310	-0.170
2020/01/31 14:43:07.7	1.320	-0.130	0.330	-0.100
2020/01/31 14:43:07.8	1.290	-0.120	0.350	-0.040
2020/01/31 14:43:07.9	1.260	-0.120	0.370	0.020
2020/01/31 14:43:08.0	1.240	-0.110	0.380	0.070
2020/01/31 14:43:08.1	1.210	-0.110	0.390	0.120
2020/01/31 14:43:08.2	1.180	-0.100	0.400	0.170
2020/01/31 14:43:08.3	1.150	-0.090	0.400	0.210
2020/01/31 14:43:08.4	1.130	-0.080	0.400	0.250
2020/01/31 14:43:08.5	1.100	-0.070	0.390	0.280
2020/01/31 14:43:08.6	1.080	-0.050	0.380	0.310
2020/01/31 14:43:08.7	1.070	-0.040	0.380	0.330
2020/01/31 14:43:08.8	1.040	-0.020	0.360	0.350
2020/01/31 14:43:08.9	1.020	-0.000	0.350	0.370
2020/01/31 14:43:09.0	1.000	0.010	0.330	0.380
2020/01/31 14:43:09.1	0.980	0.030	0.310	0.390
2020/01/31 14:43:09.2	0.960	0.050	0.290	0.400
2020/01/31 14:43:09.3	0.940	0.070	0.270	0.400
2020/01/31 14:43:09.4	0.930	0.100	0.240	0.410
2020/01/31 14:43:09.5	0.910	0.120	0.220	0.400
2020/01/31 14:43:09.6	0.890	0.140	0.190	0.400
2020/01/31 14:43:09.7	0.870	0.160	0.160	0.390
2020/01/31 14:43:09.8	0.850	0.180	0.130	0.370
2020/01/31 14:43:09.9	0.830	0.200	0.100	0.360
2020/01/31 14:43:10.0	0.820	0.220	0.070	0.340
2020/01/31 14:43:10.1	0.810	0.240	0.040	0.320
2020/01/31 14:43:10.2	0.790	0.260	0.000	0.290
2020/01/31 14:43:10.3	0.780	0.270	-0.030	0.270
2020/01/31 14:43:10.4	0.770	0.290	-0.070	0.240
2020/01/31 14:43:10.5	0.750	0.300	-0.100	0.210
2020/01/31 14:43:10.6	0.740	0.320	-0.140	0.170
2020/01/31 14:43:10.7	0.740	0.330	-0.170	0.130
2020/01/31 14:43:10.8	0.730	0.340	-0.200	0.100
2020/01/31 14:43:10.9	0.730	0.340	-0.240	0.060
2020/01/31 14:43:11.0	0.720	0.350	-0.270	0.010
2020/01/31 14:43:11.1	0.710	0.360	-0.310	-0.030
2020/01/31 14:43:11.2	0.710	0.360	-0.340	-0.070
2020/01/31 14:43:11.3	0.710	0.360	-0.370	-0.120
2020/01/31 14:43:11.4	0.710	0.360	-0.400	-0.160
2020/01/31 14:43:11.5	0.710	0.360	-0.430	-0.210
2020/01/31 14:43:11.6	0.710	0.360	-0.460	-0.250
2020/01/31 14:43:11.7	0.710	0.360	-0.490	-0.300
2020/01/31 14:43:11.8	0.720	0.360	-0.520	-0.350
2020/01/31 14:43:11.9	0.730	0.350	-0.550	-0.390
2020/01/31 14:43:12.0	0.750	0.350	-0.580	-0.440
2020/01/31 14:43:12.1	0.760	0.340	-0.600	-0.480
2020/01/31 14:43:12.2	0.780	0.340	-0.630	-0.530
2020/01/31 14:43:12.3	0.800	0.330	-0.650	-0.570
2020/01/31 14:43:12.4	0.820	0.330	-0.670	-0.610
2020/01/31 14:43:12.5	0.850	0.320	-0.690	-0.650
2020/01/31 14:43:12.6	0.870	0.320	-0.710	-0.690
2020/01/31 14:43:12.7	0.900	0.310	-0.730	-0.730
2020/01/31 14:43:12.8	0.930	0.300	-0.740	-0.770
2020/01/31 14:43:12.9	0.960	0.300	-0.750	-0.800
2020/01/31 14:43:13.0	0.990	0.290	-0.760	-0.840
2020/01/31 14:43:13.1	1.030	0.290	-0.760	-0.870
2020/01/31 14:43:13.2	1.060	0.280	-0.760	-0.900
2020/01/31 14:43:13.3	1.090	0.280	-0.760	-0.920
2020/01/31 14:43:13.4	1.130	0.270	-0.740	-0.940
2020/01/31 14:43:13.5	1.160	0.270	-0.730	-0.960
2020/01/31 14:43:13.6	1.190	0.260	-0.710	-0.970
2020/01/31 14:43:13.7	1.230	0.260	-0.680	-0.990
2020/01/31 14:43:13.8	1.260	0.250	-0.650	-0.990
2020/01/31 14:43:13.9	1.290	0.250	-0.610	-0.990
2020/01/31 14:43:14.0	1.320	0.240	-0.560	-0.980
2020/01/31 14:43:14.1	1.340	0.240	-0.510	-0.970
2020/01/31 14:43:14.2	1.370	0.230	-0.450	-0.950
2020/01/31 14:43:14.3	1.390	0.220	-0.380	-0.930
2020/01/31 14:43:14.4	1.400	0.210	-0.320	-0.900
2020/01/31 14:43:14.5	1.420	0.200	-0.250	-0.860
2020/01/31 14:43:14.6	1.430	0.190	-0.170	-0.820
2020/01/31 14:43:14.7	1.430	0.180	-0.090	-0.770
2020/01/31 14:43:14.8	1.440	0.160	-0.020	-0.730
2020/01/31 14:43:14.9	1.440	0.150	0.060	-0.670
2020/01/31 14:43:15.0	1.440	0.130	0.140	-0.620
2020/01/31 14:43:15.1	1.430	0.110	0.210	-0.560
2020/01/31 14:43:15.2	1.430	0.080	0.280	-0.500
2020/01/31 14:43:15.3	1.420	0.050	0.350	-0.450
2020/01/31 14:43:15.4	1.410	0.030	0.410	-0.390
2020/01/31 14:43:15.5	1.400	-0.010	0.460	-0.330
2020/01/31 14:43:15.6	1.380	-0.040	0.510	-0.280
2020/01/31 14:43:15.7	1.370	-0.070	0.550	-0.230
2020/01/31 14:43:15.8	1.350	-0.110	0.590	-0.180
2020/01/31 14:43:15.9	1.330	-0.150	0.610	-0.140
2020/01/31 14:43:16.0	1.320	-0.190	0.630	-0.100
2020/01/31 14:43:16.1	1.300	-0.230	0.640	-0.070
2020/01/31 14:43:16.2	1.280	-0.280	0.640	-0.040
2020/01/31 14:43:16.3	1.270	-0.320	0.630	-0.020
2020/01/31 14:43:16.4	1.250	-0.360	0.610	-0.010
2020/01/31 14:43:16.5	1.240	-0.410	0.590	-0.000
2020/01/31 14:43:16.6	1.230	-0.450	0.550	0.000
2020/01/31 14:43:16.7	1.220	-0.490	0.520	-0.010
2020/01/31 14:43:16.8	1.210	-0.540	0.470	-0.020
2020/01/31 14:43:16.9	1.210	-0.580	0.410	-0.040
2020/01/31 14:43:17.0	1.200	-0.620	0.340	-0.060
2020/01/31 14:43:17.1	1.200	-0.650	0.270	-0.090
2020/01/31 14:43:17.2	1.200	-0.690	0.200	-0.130
2020/01/31 14:43:17.3	1.200	-0.720	0.120	-0.170
2020/01/31 14:43:17.4	1.200	-0.750	0.040	-0.210
2020/01/31 14:43:17.5	1.210	-0.780	-0.050	-0.260
2020/01/31 14:43:17.6	1.210	-0.800	-0.130	-0.310
2020/01/31 14:43:17.7	1.220	-0.820	-0.220	-0.370
2020/01/31 14:43:17.8	1.230	-0.840	-0.300	-0.420
2020/01/31 14:43:17.9	1.240	-0.850	-0.380	-0.470
2020/01/31 14:43:18.0	1.250	-0.860	-0.460	-0.520
2020/01/31 14:43:18.1	1.260	-0.870	-0.540	-0.570
2020/01/31 14:43:18.2	1.270	-0.870	-0.610	-0.620
2020/01/31 14:43:18.3	1.280	-0.870	-0.680	-0.670
2020/01/31 14:43:18.4	1.290	-0.860	-0.740	-0.710
2020/01/31 14:43:18.5	1.290	-0.850	-0.800	-0.750
2020/01/31 14:43:18.6	1.300	-0.830	-0.850	-0.780
2020/01/31 14:43:18.7	1.300	-0.810	-0.890	-0.810
2020/01/31 14:43:18.8	1.300	-0.780	-0.930	-0.840
2020/01/31 14:43:18.9	1.310	-0.750	-0.960	-0.860
2020/01/31 14:43:19.0	1.320	-0.720	-0.990	-0.880
2020/01/31 14:43:19.1	1.320	-0.680	-1.000	-0.890
2020/01/31 14:43:19.2	1.330	-0.640	-1.020	-0.900
2020/01/31 14:43:19.3	1.330	-0.590	-1.030	-0.910
2020/01/31 14:43:19.4	1.330	-0.540	-1.030	-0.910
2020/01/31 14:43:19.5	1.340	-0.490	-1.030	-0.920
2020/01/31 14:43:19.6	1.350	-0.430	-1.020	-0.910
2020/01/31 14:43:19.7	1.340	-0.370	-1.010	-0.910
2020/01/31 14:43:19.8	1.350	-0.300	-1.000	-0.910
2020/01/31 14:43:19.9	1.360	-0.240	-0.990	-0.900
2020/01/31 14:43:20.0	1.370	-0.170	-0.970	-0.900
2020/01/31 14:43:20.1	1.390	-0.090	-0.960	-0.890
2020/01/31 14:43:20.2	1.400	-0.020	-0.940	-0.880
2020/01/31 14:43:20.3	1.420	0.050	-0.930	-0.870
2020/01/31 14:43:20.4	1.440	0.130	-0.910	-0.860
2020/01/31 14:43:20.5	1.450	0.210	-0.890	-0.840
2020/01/31 14:43:20.6	1.480	0.280	-0.870	-0.830
2020/01/31 14:43:20.7	1.490	0.360	-0.860	-0.820
2020/01/31 14:43:20.8	1.510	0.440	-0.840	-0.800
2020/01/31 14:43:20.9	1.540	0.510	-0.830	-0.790
2020/01/31 14:43:21.0	1.560	0.580	-0.810	-0.770
2020/01/31 14:43:21.1	1.580	0.650	-0.790	-0.740
2020/01/31 14:43:21.2	1.600	0.720	-0.770	-0.720
2020/01/31 14:43:21.3	1.620	0.780	-0.740	-0.690
2020/01/31 14:43:21.4	1.640	0.840	-0.720	-0.660
2020/01/31 14:43:21.5	1.660	0.900	-0.690	-0.620
2020/01/31 14:43:21.6	1.670	0.940	-0.660	-0.580
2020/01/31 14:43:21.7	1.680	0.990	-0.630	-0.540
2020/01/31 14:43:21.8	1.690	1.030	-0.600	-0.500
2020/01/31 14:43:21.9	1.700	1.060	-0.560	-0.460
2020/01/31 14:43:22.0	1.700	1.090	-0.520	-0.420
2020/01/31 14:43:22.1	1.700	1.110	-0.470	-0.370
2020/01/31 14:43:22.2	1.700	1.120	-0.420	-0.330
2020/01/31 14:43:22.3	1.700	1.130	-0.370	-0.280
2020/01/31 14:43:22.4	1.700	1.130	-0.320	-0.230
2020/01/31 14:43:22.5	1.690	1.120	-0.270	-0.190
2020/01/31 14:43:22.6	1.690	1.110	-0.210	-0.140
2020/01/31 14:43:22.7	1.680	1.090	-0.150	-0.080
2020/01/31 14:43:22.8	1.670	1.070	-0.090	-0.030
2020/01/31 14:43:22.9	1.660	1.040	-0.030	0.010
2020/01/31 14:43:23.0	1.650	1.010	0.030	0.060
2020/01/31 14:43:23.1	1.640	0.970	0.090	0.110
2020/01/31 14:43:23.2	1.630	0.930	0.140	0.160
2020/01/31 14:43:23.3	1.620	0.880	0.200	0.200
2020/01/31 14:43:23.4	1.610	0.830	0.250	0.240
2020/01/31 14:43:23.5	1.600	0.770	0.300	0.280
2020/01/31 14:43:23.6	1.590	0.720	0.350	0.310
2020/01/31 14:43:23.7	1.590	0.660	0.390	0.340
2020/01/31 14:43:23.8	1.580	0.590	0.430	0.370
2020/01/31 14:43:23.9	1.580	0.530	0.460	0.400
2020/01/31 14:43:24.0	1.570	0.470	0.490	0.420
2020/01/31 14:43:24.1	1.560	0.400	0.520	0.430
2020/01/31 14:43:24.2	1.550	0.330	0.530	0.440
2020/01/31 14:43:24.3	1.550	0.270	0.550	0.450
2020/01/31 14:43:24.4	1.540	0.200	0.560	0.450
2020/01/31 14:43:24.5	1.530	0.130	0.560	0.440
2020/01/31 14:43:24.6	1.520	0.070	0.550	0.430
2020/01/31 14:43:24.7	1.520	0.000	0.550	0.410
2020/01/31 14:43:24.8	1.510	-0.060	0.540	0.390
2020/01/31 14:43:24.9	1.500	-0.120	0.520	0.360
2020/01/31 14:43:25.0	1.490	-0.180	0.500	0.330
2020/01/31 14:43:25.1	1.480	-0.240	0.470	0.290
2020/01/31 14:43:25.2	1.480	-0.290	0.440	0.260
2020/01/31 14:43:25.3	1.470	-0.340	0.410	0.210
2020/01/31 14:43:25.4	1.460	-0.390	0.380	0.170
2020/01/31 14:43:25.5	1.450	-0.430	0.350	0.120
2020/01/31 14:43:25.6	1.440	-0.470	0.310	0.070
2020/01/31 14:43:25.7	1.430	-0.510	0.270	0.020
2020/01/31 14:43:25.8	1.420	-0.540	0.230	-0.030
2020/01/31 14:43:25.9	1.410	-0.570	0.190	-0.080
2020/01/31 14:43:26.0	1.400	-0.590	0.150	-0.130
2020/01/31 14:43:26.1	1.380	-0.620	0.110	-0.180
2020/01/31 14:43:26.2	1.370	-0.630	0.080	-0.230
2020/01/31 14:43:26.3	1.360	-0.650	0.040	-0.280
2020/01/31 14:43:26.4	1.350	-0.660	0.000	-0.320
2020/01/31 14:43:26.5	1.330	-0.670	-0.030	-0.360
2020/01/31 14:43:26.6	1.320	-0.670	-0.060	-0.400
2020/01/31 14:43:26.7	1.310	-0.670	-0.090	-0.440
2020/01/31 14:43:26.8	1.290	-0.670	-0.120	-0.480
2020/01/31 14:43:26.9	1.280	-0.670	-0.150	-0.510
2020/01/31 14:43:27.0	1.260	-0.660	-0.180	-0.540
2020/01/31 14:43:27.1	1.250	-0.660	-0.200	-0.570
2020/01/31 14:43:27.2	1.240	-0.650	-0.230	-0.590
2020/01/31 14:43:27.3	1.230	-0.630	-0.250	-0.620
2020/01/31 14:43:27.4	1.220	-0.620	-0.280	-0.650
2020/01/31 14:43:27.5	1.210	-0.600	-0.300	-0.670
2020/01/31 14:43:27.6	1.200	-0.590	-0.320	-0.700
2020/01/31 14:43:27.7	1.190	-0.570	-0.350	-0.730
2020/01/31 14:43:27.8	1.180	-0.550	-0.370	-0.760
2020/01/31 14:43:27.9	1.180	-0.530	-0.400	-0.790
2020/01/31 14:43:28.0	1.190	-0.510	-0.420	-0.810
2020/01/31 14:43:28.1	1.190	-0.490	-0.450	-0.840
2020/01/31 14:43:28.2	1.200	-0.470	-0.480	-0.870
2020/01/31 14:43:28.3	1.210	-0.450	-0.510	-0.900
2020/01/31 14:43:28.4	1.230	-0.420	-0.530	-0.930
2020/01/31 14:43:28.5	1.240	-0.400	-0.570	-0.950
2020/01/31 14:43:28.6	1.260	-0.380	-0.600	-0.980
2020/01/31 14:43:28.7	1.300	-0.350	-0.630	-1.020
2020/01/31 14:43:28.8	1.320	-0.330	-0.660	-1.050
2020/01/31 14:43:28.9	1.350	-0.300	-0.690	-1.070
2020/01/31 14:43:29.0	1.380	-0.280	-0.730	-1.100
2020/01/31 14:43:29.1	1.420	-0.250	-0.760	-1.130
2020/01/31 14:43:29.2	1.450	-0.230	-0.790	-1.150
2020/01/31 14:43:29.3	1.490	-0.200	-0.820	-1.170
2020/01/31 14:43:29.4	1.530	-0.180	-0.850	-1.190
2020/01/31 14:43:29.5	1.570	-0.150	-0.870	-1.210
2020/01/31 14:43:29.6	1.620	-0.130	-0.890	-1.220
2020/01/31 14:43:29.7	1.650	-0.100	-0.910	-1.230
2020/01/31 14:43:29.8	1.700	-0.080	-0.930	-1.240
2020/01/31 14:43:29.9	1.750	-0.050	-0.940	-1.250
2020/01/31 14:43:30.0	1.790	-0.030	-0.940	-1.250
2020/01/31 14:43:30.1	1.840	-0.000	-0.940	-1.250
2020/01/31 14:43:30.2	1.880	0.020	-0.930	-1.240
2020/01/31 14:43:30.3	1.920	0.040	-0.920	-1.230
2020/01/31 14:43:30.4	1.970	0.060	-0.900	-1.210
2020/01/31 14:43:30.5	2.000	0.080	-0.870	-1.190
2020/01/31 14:43:30.6	2.040	0.100	-0.840	-1.170
2020/01/31 14:43:30.7	2.070	0.120	-0.800	-1.140
2020/01/31 14:43:30.8	2.100	0.130	-0.760	-1.100
2020/01/31 14:43:30.9	2.130	0.150	-0.710	-1.060
2020/01/31 14:43:31.0	2.150	0.160	-0.650	-1.020
2020/01/31 14:43:31.1	2.170	0.170	-0.590	-0.970
2020/01/31 14:43:31.2	2.180	0.180	-0.520	-0.910
2020/01/31 14:43:31.3	2.190	0.190	-0.450	-0.850
2020/01/31 14:43:31.4	2.200	0.200	-0.370	-0.790
2020/01/31 14:43:31.5	2.200	0.200	-0.300	-0.720
2020/01/31 14:43:31.6	2.200	0.210	-0.220	-0.650
2020/01/31 14:43:31.7	2.200	0.210	-0.140	-0.570
2020/01/31 14:43:31.8	2.190	0.210	-0.070	-0.490
2020/01/31 14:43:31.9	2.180	0.210	0.010	-0.410
2020/01/31 14:43:32.0	2.160	0.200	0.080	-0.340
2020/01/31 14:43:32.1	2.140	0.200	0.140	-0.260
2020/01/31 14:43:32.2	2.110	0.190	0.210	-0.180
2020/01/31 14:43:32.3	2.090	0.180	0.270	-0.110
2020/01/31 14:43:32.4	2.060	0.170	0.320	-0.040
2020/01/31 14:43:32.5	2.020	0.160	0.360	0.030
2020/01/31 14:43:32.6	1.990	0.150	0.400	0.090
2020/01/31 14:43:32.7	1.960	0.140	0.430	0.150
2020/01/31 14:43:32.8	1.930	0.120	0.460	0.200
2020/01/31 14:43:32.9	1.890	0.110	0.470	0.250
2020/01/31 14:43:33.0	1.850	0.100	0.480	0.290
2020/01/31 14:43:33.1	1.820	0.090	0.480	0.320
2020/01/31 14:43:33.2	1.780	0.080	0.470	0.350
2020/01/31 14:43:33.3	1.740	0.070	0.460	0.370
2020/01/31 14:43:33.4	1.710	0.060	0.430	0.390
2020/01/31 14:43:33.5	1.680	0.050	0.400	0.390
2020/01/31 14:43:33.6	1.640	0.040	0.360	0.400
2020/01/31 14:43:33.7	1.620	0.040	0.320	0.390
2020/01/31 14:43:33.8	1.590	0.040	0.270	0.380
2020/01/31 14:43:33.9	1.560	0.040	0.220	0.370
2020/01/31 14:43:34.0	1.530	0.040	0.160	0.360
2020/01/31 14:43:34.1	1.510	0.040	0.090	0.340
2020/01/31 14:43:34.2	1.480	0.050	0.030	0.320
2020/01/31 14:43:34.3	1.460	0.050	-0.040	0.290
2020/01/31 14:43:34.4	1.430	0.060	-0.110	0.270
2020/01/31 14:43:34.5	1.410	0.070	-0.180	0.240
2020/01/31 14:43:34.6	1.380	0.090	-0.250	0.210
2020/01/31 14:43:34.7	1.350	0.100	-0.330	0.170
2020/01/31 14:43:34.8	1.320	0.120	-0.400	0.140
2020/01/31 14:43:34.9	1.300	0.130	-0.460	0.100
2020/01/31 14:43:35.0	1.280	0.150	-0.530	0.060
2020/01/31 14:43:35.1	1.260	0.170	-0.600	0.010
2020/01/31 14:43:35.2	1.240	0.190	-0.660	-0.030
2020/01/31 14:43:35.3	1.220	0.210	-0.710	-0.080
2020/01/31 14:43:35.4	1.200	0.220	-0.760	-0.120
2020/01/31 14:43:35.5	1.180	0.240	-0.810	-0.170
2020/01/31 14:43:35.6	1.160	0.260	-0.850	-0.220
2020/01/31 14:43:35.7	1.140	0.280	-0.890	-0.270
2020/01/31 14:43:35.8	1.120	0.290	-0.920	-0.320
2020/01/31 14:43:35.9	1.100	0.310	-0.940	-0.370
2020/01/31 14:43:36.0	1.090	0.330	-0.960	-0.410
2020/01/31 14:43:36.1	1.080	0.340	-0.970	-0.460
2020/01/31 14:43:36.2	1.060	0.350	-0.970	-0.500
2020/01/31 14:43:36.3	1.050	0.360	-0.970	-0.540
2020/01/31 14:43:36.4	1.040	0.370	-0.960	-0.570
2020/01/31 14:43:36.5	1.040	0.380	-0.950	-0.600
2020/01/31 14:43:36.6	1.030	0.380	-0.920	-0.630
2020/01/31 14:43:36.7	1.030	0.390	-0.900	-0.660
2020/01/31 14:43:36.8	1.030	0.390	-0.860	-0.680
2020/01/31 14:43:36.9	1.030	0.390	-0.830	-0.700
2020/01/31 14:43:37.0	1.030	0.390	-0.780	-0.710
2020/01/31 14:43:37.1	1.030	0.380	-0.740	-0.720
2020/01/31 14:43:37.2	1.030	0.380	-0.690	-0.730
2020/01/31 14:43:37.3	1.040	0.370	-0.640	-0.740
2020/01/31 14:43:37.4	1.050	0.360	-0.590	-0.740
2020/01/31 14:43:37.5	1.060	0.340	-0.530	-0.740
2020/01/31 14:43:37.6	1.070	0.330	-0.470	-0.740
2020/01/31 14:43:37.7	1.080	0.310	-0.420	-0.740
2020/01/31 14:43:37.8	1.090	0.290	-0.360	-0.740
2020/01/31 14:43:37.9	1.100	0.270	-0.310	-0.730
2020/01/31 14:43:38.0	1.110	0.250	-0.250	-0.720
2020/01/31 14:43:38.1	1.130	0.220	-0.200	-0.720
2020/01/31 14:43:38.2	1.140	0.190	-0.140	-0.710
2020/01/31 14:43:38.3	1.150	0.160	-0.090	-0.700
2020/01/31 14:43:38.4	1.160	0.130	-0.040	-0.690
2020/01/31 14:43:38.5	1.170	0.100	0.010	-0.670
2020/01/31 14:43:38.6	1.180	0.060	0.050	-0.660
2020/01/31 14:43:38.7	1.190	0.020	0.100	-0.650
2020/01/31 14:43:38.8	1.200	-0.010	0.140	-0.640
2020/01/31 14:43:38.9	1.200	-0.050	0.170	-0.630
2020/01/31 14:43:39.0	1.200	-0.090	0.210	-0.620
2020/01/31 14:43:39.1	1.210	-0.140	0.240	-0.600
2020/01/31 14:43:39.2	1.210	-0.180	0.260	-0.590
2020/01/31 14:43:39.3	1.210	-0.220	0.290	-0.580
2020/01/31 14:43:39.4	1.210	-0.260	0.300	-0.570
2020/01/31 14:43:39.5	1.220	-0.300	0.320	-0.560
2020/01/31 14:43:39.6	1.220	-0.340	0.330	-0.550
2020/01/31 14:43:39.7	1.230	-0.370	0.340	-0.540
2020/01/31 14:43:39.8	1.240	-0.410	0.340	-0.520
2020/01/31 14:43:39.9	1.240	-0.440	0.340	-0.510
2020/01/31 14:43:40.0	1.250	-0.470	0.340	-0.500
2020/01/31 14:43:40.1	1.260	-0.500	0.330	-0.490
2020/01/31 14:43:40.2	1.260	-0.520	0.320	-0.480
2020/01/31 14:43:40.3	1.270	-0.540	0.310	-0.470
2020/01/31 14:43:40.4	1.280	-0.560	0.290	-0.460
2020/01/31 14:43:40.5	1.300	-0.570	0.270	-0.450
2020/01/31 14:43:40.6	1.310	-0.580	0.250	-0.440
2020/01/31 14:43:40.7	1.330	-0.590	0.220	-0.430
2020/01/31 14:43:40.8	1.340	-0.590	0.190	-0.420
2020/01/31 14:43:40.9	1.350	-0.590	0.160	-0.410
2020/01/31 14:43:41.0	1.360	-0.580	0.130	-0.400
2020/01/31 14:43:41.1	1.380	-0.570	0.090	-0.390
2020/01/31 14:43:41.2	1.390	-0.550	0.060	-0.380
2020/01/31 14:43:41.3	1.400	-0.540	0.030	-0.360
2020/01/31 14:43:41.4	1.410	-0.510	-0.010	-0.350
2020/01/31 14:43:41.5	1.410	-0.490	-0.040	-0.330
2020/01/31 14:43:41.6	1.420	-0.460	-0.080	-0.310
2020/01/31 14:43:41.7	1.420	-0.430	-0.110	-0.290
2020/01/31 14:43:41.8	1.420	-0.400	-0.140	-0.270
2020/01/31 14:43:41.9	1.420	-0.370	-0.170	-0.250
2020/01/31 14:43:42.0	1.410	-0.340	-0.200	-0.230
2020/01/31 14:43:42.1	1.410	-0.300	-0.220	-0.210
2020/01/31 14:43:42.2	1.400	-0.270	-0.250	-0.190
2020/01/31 14:43:42.3	1.380	-0.240	-0.270	-0.170
2020/01/31 14:43:42.4	1.370	-0.200	-0.290	-0.150
2020/01/31 14:43:42.5	1.350	-0.170	-0.300	-0.120
2020/01/31 14:43:42.6	1.330	-0.140	-0.320	-0.100
2020/01/31 14:43:42.7	1.300	-0.120	-0.320	-0.080
2020/01/31 14:43:42.8	1.280	-0.090	-0.330	-0.050
2020/01/31 14:43:42.9	1.250	-0.070	-0.340	-0.030
2020/01/31 14:43:43.0	1.220	-0.050	-0.340	-0.000
2020/01/31 14:43:43.1	1.180	-0.030	-0.340	0.020
2020/01/31 14:43:43.2	1.150	-0.020	-0.340	0.050
2020/01/31 14:43:43.3	1.110	-0.010	-0.330	0.080
2020/01/31 14:43:43.4	1.070	0.000	-0.330	0.100
2020/01/31 14:43:43.5	1.030	0.010	-0.320	0.120
2020/01/31 14:43:43.6	0.990	0.010	-0.310	0.150
2020/01/31 14:43:43.7	0.950	0.010	-0.300	0.170
2020/01/31 14:43:43.8	0.910	0.010	-0.290	0.180
2020/01/31 14:43:43.9	0.860	-0.000	-0.280	0.200
2020/01/31 14:43:44.0	0.820	-0.010	-0.270	0.220
2020/01/31 14:43:44.1	0.780	-0.020	-0.260	0.230
2020/01/31 14:43:44.2	0.740	-0.030	-0.250	0.240
2020/01/31 14:43:44.3	0.690	-0.050	-0.240	0.250
2020/01/31 14:43:44.4	0.650	-0.060	-0.230	0.250
2020/01/31 14:43:44.5	0.610	-0.080	-0.220	0.250
2020/01/31 14:43:44.6	0.580	-0.090	-0.210	0.250
2020/01/31 14:43:44.7	0.520	-0.110	-0.200	0.250
2020/01/31 14:43:44.8	0.490	-0.120	-0.200	0.240
2020/01/31 14:43:44.9	0.450	-0.140	-0.200	0.230
2020/01/31 14:43:45.0	0.420	-0.150	-0.200	0.220
2020/01/31 14:43:45.1	0.390	-0.160	-0.200	0.200
2020/01/31 14:43:45.2	0.370	-0.170	-0.210	0.180
2020/01/31 14:43:45.3	0.340	-0.180	-0.220	0.160
2020/01/31 14:43:45.4	0.320	-0.180	-0.230	0.140
2020/01/31 14:43:45.5	0.290	-0.180	-0.240	0.120
2020/01/31 14:43:45.6	0.270	-0.180	-0.260	0.100
2020/01/31 14:43:45.7	0.260	-0.170	-0.270	0.070
2020/01/31 14:43:45.8	0.240	-0.160	-0.290	0.040
2020/01/31 14:43:45.9	0.220	-0.150	-0.310	0.020
2020/01/31 14:43:46.0	0.200	-0.130	-0.330	-0.010
2020/01/31 14:43:46.1	0.190	-0.110	-0.360	-0.030
2020/01/31 14:43:46.2	0.180	-0.090	-0.380	-0.060
2020/01/31 14:43:46.3	0.160	-0.060	-0.410	-0.080
2020/01/31 14:43:46.4	0.150	-0.030	-0.440	-0.100
2020/01/31 14:43:46.5	0.140	0.000	-0.470	-0.120
2020/01/31 14:43:46.6	0.130	0.040	-0.500	-0.140
2020/01/31 14:43:46.7	0.120	0.080	-0.520	-0.170
2020/01/31 14:43:46.8	0.110	0.120	-0.550	-0.190
2020/01/31 14:43:46.9	0.100	0.170	-0.570	-0.200
2020/01/31 14:43:47.0	0.100	0.210	-0.600	-0.220
2020/01/31 14:43:47.1	0.100	0.260	-0.620	-0.240
2020/01/31 14:43:47.2	0.100	0.310	-0.650	-0.250
2020/01/31 14:43:47.3	0.100	0.350	-0.670	-0.270
2020/01/31 14:43:47.4	0.100	0.400	-0.680	-0.280
2020/01/31 14:43:47.5	0.110	0.450	-0.700	-0.290
2020/01/31 14:43:47.6	0.120	0.500	-0.710	-0.300
2020/01/31 14:43:47.7	0.140	0.540	-0.720	-0.310
2020/01/31 14:43:47.8	0.150	0.580	-0.730	-0.320
2020/01/31 14:43:47.9	0.160	0.620	-0.730	-0.330
2020/01/31 14:43:48.0	0.170	0.660	-0.730	-0.330
2020/01/31 14:43:48.1	0.180	0.690	-0.730	-0.330
2020/01/31 14:43:48.2	0.190	0.720	-0.720	-0.330
2020/01/31 14:43:48.3	0.210	0.740	-0.710	-0.330
2020/01/31 14:43:48.4	0.220	0.760	-0.700	-0.330
2020/01/31 14:43:48.5	0.230	0.770	-0.680	-0.320
2020/01/31 14:43:48.6	0.250	0.780	-0.660	-0.320
2020/01/31 14:43:48.7	0.270	0.790	-0.640	-0.310
2020/01/31 14:43:48.8	0.280	0.790	-0.620	-0.300
2020/01/31 14:43:48.9	0.300	0.780	-0.590	-0.290
2020/01/31 14:43:49.0	0.320	0.770	-0.570	-0.280
2020/01/31 14:43:49.1	0.340	0.760	-0.540	-0.270
2020/01/31 14:43:49.2	0.360	0.740	-0.510	-0.260
2020/01/31 14:43:49.3	0.380	0.710	-0.480	-0.250
2020/01/31 14:43:49.4	0.400	0.680	-0.440	-0.240
2020/01/31 14:43:49.5	0.430	0.650	-0.410	-0.230
2020/01/31 14:43:49.6	0.450	0.610	-0.380	-0.210
2020/01/31 14:43:49.7	0.470	0.570	-0.350	-0.200
2020/01/31 14:43:49.8	0.500	0.520	-0.320	-0.190
2020/01/31 14:43:49.9	0.520	0.480	-0.280	-0.170
2020/01/31 14:43:50.0	0.540	0.430	-0.250	-0.160
2020/01/31 14:43:50.1	0.560	0.370	-0.220	-0.140
2020/01/31 14:43:50.2	0.580	0.320	-0.190	-0.120
2020/01/31 14:43:50.3	0.610	0.270	-0.160	-0.110
2020/01/31 14:43:50.4	0.630	0.210	-0.130	-0.090
2020/01/31 14:43:50.5	0.650	0.150	-0.100	-0.080
2020/01/31 14:43:50.6	0.670	0.100	-0.070	-0.060
2020/01/31 14:43:50.7	0.680	0.040	-0.030	-0.050
2020/01/31 14:43:50.8	0.700	-0.010	-0.010	-0.040
2020/01/31 14:43:50.9	0.720	-0.060	0.020	-0.020
2020/01/31 14:43:51.0	0.740	-0.120	0.050	-0.010
2020/01/31 14:43:51.1	0.760	-0.170	0.070	-0.000
2020/01/31 14:43:51.2	0.780	-0.210	0.090	0.010
2020/01/31 14:43:51.3	0.790	-0.260	0.120	0.010
2020/01/31 14:43:51.4	0.810	-0.300	0.140	0.020
2020/01/31 14:43:51.5	0.820	-0.350	0.150	0.030
2020/01/31 14:43:51.6	0.840	-0.380	0.170	0.030
2020/01/31 14:43:51.7	0.850	-0.420	0.180	0.030
2020/01/31 14:43:51.8	0.860	-0.450	0.190	0.040
2020/01/31 14:43:51.9	0.860	-0.480	0.200	0.040
2020/01/31 14:43:52.0	0.870	-0.510	0.200	0.040
2020/01/31 14:43:52.1	0.860	-0.530	0.210	0.040
2020/01/31 14:43:52.2	0.860	-0.550	0.210	0.030
2020/01/31 14:43:52.3	0.860	-0.570	0.200	0.030
2020/01/31 14:43:52.4	0.850	-0.590	0.190	0.030
2020/01/31 14:43:52.5	0.840	-0.600	0.190	0.030
2020/01/31 14:43:52.6	0.820	-0.610	0.170	0.020
2020/01/31 14:43:52.7	0.790	-0.620	0.160	0.020
2020/01/31 14:43:52.8	0.770	-0.620	0.140	0.010
2020/01/31 14:43:52.9	0.750	-0.630	0.120	0.010
2020/01/31 14:43:53.0	0.720	-0.630	0.100	0.010
2020/01/31 14:43:53.1	0.690	-0.630	0.080	0.000
2020/01/31 14:43:53.2	0.660	-0.620	0.060	-0.000
2020/01/31 14:43:53.3	0.630	-0.620	0.030	-0.010
2020/01/31 14:43:53.4	0.600	-0.610	0.010	-0.020
2020/01/31 14:43:53.5	0.570	-0.600	-0.020	-0.020
2020/01/31 14:43:53.6	0.540	-0.580	-0.040	-0.030
2020/01/31 14:43:53.7	0.500	-0.570	-0.070	-0.040
2020/01/31 14:43:53.8	0.470	-0.550	-0.090	-0.050
2020/01/31 14:43:53.9	0.440	-0.540	-0.110	-0.060
2020/01/31 14:43:54.0	0.400	-0.520	-0.140	-0.070
2020/01/31 14:43:54.1	0.370	-0.500	-0.160	-0.070
2020/01/31 14:43:54.2	0.340	-0.470	-0.180	-0.080
2020/01/31 14:43:54.3	0.310	-0.450	-0.190	-0.090
2020/01/31 14:43:54.4	0.280	-0.420	-0.210	-0.090
2020/01/31 14:43:54.5	0.240	-0.390	-0.220	-0.090
2020/01/31 14:43:54.6	0.210	-0.360	-0.230	-0.090
2020/01/31 14:43:54.7	0.180	-0.330	-0.240	-0.100
2020/01/31 14:43:54.8	0.150	-0.300	-0.240	-0.090
2020/01/31 14:43:54.9	0.120	-0.270	-0.250	-0.090
2020/01/31 14:43:55.0	0.090	-0.240	-0.250	-0.080
2020/01/31 14:43:55.1	0.070	-0.200	-0.250	-0.070
2020/01/31 14:43:55.2	0.040	-0.170	-0.250	-0.060
2020/01/31 14:43:55.3	0.020	-0.140	-0.240	-0.050
2020/01/31 14:43:55.4	0.000	-0.100	-0.240	-0.030
2020/01/31 14:43:55.5	359.980	-0.070	-0.240	-0.020
2020/01/31 14:43:55.6	359.960	-0.040	-0.230	-0.000
2020/01/31 14:43:55.7	359.930	-0.000	-0.230	0.020
2020/01/31 14:43:55.8	359.910	0.030	-0.230	0.030
2020/01/31 14:43:55.9	359.900	0.060	-0.220	0.050
2020/01/31 14:43:56.0	359.880	0.080	-0.220	0.070
2020/01/31 14:43:56.1	359.870	0.110	-0.210	0.080
2020/01/31 14:43:56.2	359.860	0.130	-0.210	0.090
2020/01/31 14:43:56.3	359.850	0.160	-0.210	0.110
2020/01/31 14:43:56.4	359.840	0.180	-0.210	0.120
2020/01/31 14:43:56.5	359.830	0.200	-0.210	0.130
2020/01/31 14:43:56.6	359.830	0.210	-0.210	0.130
2020/01/31 14:43:56.7	359.830	0.230	-0.210	0.130
2020/01/31 14:43:56.8	359.830	0.240	-0.220	0.140
2020/01/31 14:43:56.9	359.830	0.250	-0.220	0.140
2020/01/31 14:43:57.0	359.830	0.270	-0.230	0.130
2020/01/31 14:43:57.1	359.840	0.280	-0.240	0.130
2020/01/31 14:43:57.2	359.840	0.280	-0.250	0.120
2020/01/31 14:43:57.3	359.850	0.290	-0.260	0.120
2020/01/31 14:43:57.4	359.850	0.300	-0.270	0.110
2020/01/31 14:43:57.5	359.860	0.300	-0.280	0.100
2020/01/31 14:43:57.6	359.870	0.310	-0.290	0.090
2020/01/31 14:43:57.7	359.880	0.310	-0.300	0.080
2020/01/31 14:43:57.8	359.900	0.320	-0.310	0.070
2020/01/31 14:43:57.9	359.910	0.320	-0.320	0.060
2020/01/31 14:43:58.0	359.920	0.330	-0.330	0.050
2020/01/31 14:43:58.1	359.930	0.330	-0.340	0.050
2020/01/31 14:43:58.2	359.940	0.330	-0.350	0.040
2020/01/31 14:43:58.3	359.950	0.340	-0.350	0.030
2020/01/31 14:43:58.4	359.960	0.340	-0.360	0.030
2020/01/31 14:43:58.5	359.970	0.340	-0.360	0.030
2020/01/31 14:43:58.6	359.980	0.350	-0.370	0.030
2020/01/31 14:43:58.7	359.980	0.350	-0.370	0.020
2020/01/31 14:43:58.8	359.990	0.350	-0.370	0.020
2020/01/31 14:43:58.9	359.990	0.350	-0.370	0.020
2020/01/31 14:43:59.0	0.000	0.360	-0.370	0.020
2020/01/31 14:43:59.1	0.010	0.360	-0.370	0.010
2020/01/31 14:43:59.2	0.020	0.360	-0.360	0.010
2020/01/31 14:43:59.3	0.030	0.350	-0.360	0.000
2020/01/31 14:43:59.4	0.040	0.350	-0.360	-0.000
2020/01/31 14:43:59.5	0.050	0.350	-0.350	-0.010
2020/01/31 14:43:59.6	0.060	0.340	-0.350	-0.020
2020/01/31 14:43:59.7	0.070	0.330	-0.350	-0.040
2020/01/31 14:43:59.8	0.080	0.330	-0.340	-0.050
2020/01/31 14:43:59.9	0.090	0.310	-0.340	-0.060
2020/01/31 14:44:00.0	0.100	0.300	-0.340	-0.080
2020/01/31 14:44:00.1	0.110	0.290	-0.330	-0.090
2020/01/31 14:44:00.2	0.120	0.270	-0.330	-0.110
2020/01/31 14:44:00.3	0.130	0.250	-0.330	-0.130
2020/01/31 14:44:00.4	0.140	0.230	-0.330	-0.140
2020/01/31 14:44:00.5	0.140	0.210	-0.320	-0.160
2020/01/31 14:44:00.6	0.150	0.190	-0.320	-0.180
2020/01/31 14:44:00.7	0.160	0.170	-0.320	-0.190
2020/01/31 14:44:00.8	0.160	0.140	-0.320	-0.210
2020/01/31 14:44:00.9	0.170	0.110	-0.320	-0.230
2020/01/31 14:44:01.0	0.180	0.090	-0.320	-0.260
2020/01/31 14:44:01.1	0.190	0.060	-0.330	-0.280
2020/01/31 14:44:01.2	0.200	0.030	-0.330	-0.300
2020/01/31 14:44:01.3	0.220	-0.000	-0.330	-0.330
2020/01/31 14:44:01.4	0.230	-0.030	-0.340	-0.360
2020/01/31 14:44:01.5	0.240	-0.060	-0.340	-0.390
2020/01/31 14:44:01.6	0.260	-0.090	-0.350	-0.420
2020/01/31 14:44:01.7	0.270	-0.120	-0.360	-0.460
2020/01/31 14:44:01.8	0.280	-0.140	-0.370	-0.500
2020/01/31 14:44:01.9	0.300	-0.170	-0.380	-0.540
2020/01/31 14:44:02.0	0.320	-0.190	-0.390	-0.570
2020/01/31 14:44:02.1	0.340	-0.210	-0.400	-0.610
2020/01/31 14:44:02.2	0.360	-0.230	-0.410	-0.650
2020/01/31 14:44:02.3	0.380	-0.250	-0.420	-0.690
2020/01/31 14:44:02.4	0.400	-0.270	-0.430	-0.730
2020/01/31 14:44:02.5	0.410	-0.280	-0.440	-0.760
2020/01/31 14:44:02.6	0.430	-0.290	-0.450	-0.790
2020/01/31 14:44:02.7	0.460	-0.290	-0.450	-0.820
2020/01/31 14:44:02.8	0.470	-0.290	-0.460	-0.850
2020/01/31 14:44:02.9	0.490	-0.300	-0.460	-0.870
2020/01/31 14:44:03.0	0.500	-0.290	-0.460	-0.880
2020/01/31 14:44:03.1	0.510	-0.290	-0.460	-0.890
2020/01/31 14:44:03.2	0.520	-0.280	-0.460	-0.900
2020/01/31 14:44:03.3	0.530	-0.270	-0.460	-0.910
2020/01/31 14:44:03.4	0.540	-0.260	-0.450	-0.910
2020/01/31 14:44:03.5	0.540	-0.250	-0.440	-0.910
2020/01/31 14:44:03.6	0.540	-0.240	-0.430	-0.910
2020/01/31 14:44:03.7	0.550	-0.230	-0.410	-0.900
2020/01/31 14:44:03.8	0.540	-0.210	-0.400	-0.890
2020/01/31 14:44:03.9	0.540	-0.200	-0.380	-0.880
2020/01/31 14:44:04.0	0.530	-0.190	-0.360	-0.860
2020/01/31 14:44:04.1	0.520	-0.170	-0.340	-0.850
2020/01/31 14:44:04.2	0.500	-0.160	-0.320	-0.830
2020/01/31 14:44:04.3	0.480	-0.150	-0.300	-0.800
2020/01/31 14:44:04.4	0.460	-0.130	-0.280	-0.780
2020/01/31 14:44:04.5	0.440	-0.120	-0.260	-0.760
2020/01/31 14:44:04.6	0.410	-0.110	-0.240	-0.730
2020/01/31 14:44:04.7	0.390	-0.100	-0.220	-0.700
2020/01/31 14:44:04.8	0.360	-0.090	-0.200	-0.680
2020/01/31 14:44:04.9	0.330	-0.090	-0.180	-0.650
2020/01/31 14:44:05.0	0.310	-0.080	-0.160	-0.620
2020/01/31 14:44:05.1	0.280	-0.080	-0.140	-0.590
2020/01/31 14:44:05.2	0.250	-0.070	-0.120	-0.560
2020/01/31 14:44:05.3	0.230	-0.070	-0.110	-0.540
2020/01/31 14:44:05.4	0.200	-0.060	-0.090	-0.510
2020/01/31 14:44:05.5	0.180	-0.060	-0.070	-0.480
2020/01/31 14:44:05.6	0.160	-0.060	-0.060	-0.450
2020/01/31 14:44:05.7	0.130	-0.060	-0.050	-0.420
2020/01/31 14:44:05.8	0.110	-0.060	-0.030	-0.390
2020/01/31 14:44:05.9	0.090	-0.050	-0.020	-0.360
2020/01/31 14:44:06.0	0.070	-0.050	-0.010	-0.330
2020/01/31 14:44:06.1	0.060	-0.050	0.000	-0.300
2020/01/31 14:44:06.2	0.040	-0.050	0.020	-0.280
2020/01/31 14:44:06.3	0.030	-0.050	0.030	-0.250
2020/01/31 14:44:06.4	0.020	-0.050	0.040	-0.230
2020/01/31 14:44:06.5	0.010	-0.050	0.040	-0.210
2020/01/31 14:44:06.6	0.000	-0.050	0.050	-0.180
2020/01/31 14:44:06.7	0.000	-0.040	0.060	-0.160
2020/01/31 14:44:06.8	359.990	-0.040	0.070	-0.140
2020/01/31 14:44:06.9	359.980	-0.040	0.080	-0.130
2020/01/31 14:44:07.0	359.970	-0.040	0.090	-0.110
2020/01/31 14:44:07.1	359.960	-0.040	0.100	-0.100
2020/01/31 14:44:07.2	359.960	-0.040	0.100	-0.090
2020/01/31 14:44:07.3	359.950	-0.040	0.110	-0.080
2020/01/31 14:44:07.4	359.950	-0.040	0.110	-0.070
2020/01/31 14:44:07.5	359.940	-0.040	0.120	-0.060
2020/01/31 14:44:07.6	359.940	-0.040	0.120	-0.060
2020/01/31 14:44:07.7	359.930	-0.050	0.120	-0.060
2020/01/31 14:44:07.8	359.930	-0.050	0.120	-0.060
2020/01/31 14:44:07.9	359.930	-0.050	0.120	-0.060
2020/01/31 14:44:08.0	359.940	-0.050	0.110	-0.060
2020/01/31 14:44:08.1	359.940	-0.050	0.110	-0.070
2020/01/31 14:44:08.2	359.940	-0.060	0.100	-0.070
2020/01/31 14:44:08.3	359.950	-0.060	0.090	-0.080
2020/01/31 14:44:08.4	359.950	-0.060	0.070	-0.090
2020/01/31 14:44:08.5	359.960	-0.070	0.060	-0.100
2020/01/31 14:44:08.6	359.960	-0.070	0.040	-0.110
2020/01/31 14:44:08.7	359.960	-0.080	0.020	-0.120
2020/01/31 14:44:08.8	359.960	-0.080	0.000	-0.130
2020/01/31 14:44:08.9	359.970	-0.090	-0.020	-0.140
2020/01/31 14:44:09.0	359.970	-0.090	-0.040	-0.150
2020/01/31 14:44:09.1	359.970	-0.100	-0.070	-0.160
2020/01/31 14:44:09.2	359.970	-0.110	-0.100	-0.170
2020/01/31 14:44:09.3	359.970	-0.110	-0.120	-0.180
2020/01/31 14:44:09.4	359.960	-0.120	-0.150	-0.190
2020/01/31 14:44:09.5	359.960	-0.130	-0.180	-0.190
2020/01/31 14:44:09.6	359.950	-0.130	-0.210	-0.200
2020/01/31 14:44:09.7	359.950	-0.140	-0.230	-0.210
2020/01/31 14:44:09.8	359.940	-0.140	-0.260	-0.220
2020/01/31 14:44:09.9	359.930	-0.150	-0.290	-0.230
2020/01/31 14:44:10.0	359.920	-0.150	-0.310	-0.240
2020/01/31 14:44:10.1	359.920	-0.150	-0.330	-0.250
2020/01/31 14:44:10.2	359.910	-0.150	-0.360	-0.250
2020/01/31 14:44:10.3	359.900	-0.160	-0.380	-0.260
2020/01/31 14:44:10.4	359.890	-0.150	-0.400	-0.270
2020/01/31 14:44:10.5	359.880	-0.150	-0.410	-0.280
2020/01/31 14:44:10.6	359.870	-0.150	-0.430	-0.280
2020/01/31 14:44:10.7	359.870	-0.140	-0.440	-0.290
2020/01/31 14:44:10.8	359.860	-0.130	-0.450	-0.300
2020/01/31 14:44:10.9	359.850	-0.120	-0.470	-0.300
2020/01/31 14:44:11.0	359.850	-0.110	-0.480	-0.300
2020/01/31 14:44:11.1	359.840	-0.100	-0.480	-0.310
2020/01/31 14:44:11.2	359.840	-0.080	-0.490	-0.300
2020/01/31 14:44:11.3	359.830	-0.060	-0.500	-0.300
2020/01/31 14:44:11.4	359.830	-0.040	-0.510	-0.290
2020/01/31 14:44:11.5	359.820	-0.020	-0.510	-0.280
2020/01/31 14:44:11.6	359.810	0.010	-0.520	-0.270
2020/01/31 14:44:11.7	359.800	0.040	-0.530	-0.260
2020/01/31 14:44:11.8	359.790	0.060	-0.530	-0.230
2020/01/31 14:44:11.9	359.780	0.090	-0.530	-0.210
2020/01/31 14:44:12.0	359.760	0.130	-0.540	-0.180
2020/01/31 14:44:12.1	359.750	0.160	-0.540	-0.140
2020/01/31 14:44:12.2	359.730	0.190	-0.540	-0.110
2020/01/31 14:44:12.3	359.720	0.230	-0.540	-0.070
2020/01/31 14:44:12.4	359.700	0.260	-0.540	-0.040
2020/01/31 14:44:12.5	359.680	0.290	-0.550	0.000
2020/01/31 14:44:12.6	359.670	0.330	-0.550	0.040
2020/01/31 14:44:12.7	359.640	0.360	-0.550	0.080
2020/01/31 14:44:12.8	359.630	0.390	-0.550	0.110
2020/01/31 14:44:12.9	359.620	0.420	-0.550	0.140
2020/01/31 14:44:13.0	359.610	0.450	-0.550	0.170
2020/01/31 14:44:13.1	359.600	0.480	-0.550	0.190
2020/01/31 14:44:13.2	359.590	0.500	-0.560	0.210
2020/01/31 14:44:13.3	359.590	0.530	-0.560	0.220
2020/01/31 14:44:13.4	359.590	0.550	-0.560	0.230
2020/01/31 14:44:13.5	359.590	0.560	-0.570	0.230
2020/01/31 14:44:13.6	359.600	0.580	-0.570	0.230
2020/01/31 14:44:13.7	359.600	0.590	-0.570	0.230
2020/01/31 14:44:13.8	359.610	0.600	-0.580	0.210
2020/01/31 14:44:13.9	359.630	0.610	-0.580	0.200
2020/01/31 14:44:14.0	359.640	0.610	-0.580	0.180
2020/01/31 14:44:14.1	359.660	0.610	-0.590	0.160
2020/01/31 14:44:14.2	359.680	0.610	-0.590	0.130
2020/01/31 14:44:14.3	359.710	0.600	-0.590	0.100
2020/01/31 14:44:14.4	359.730	0.590	-0.580	0.080
2020/01/31 14:44:14.5	359.760	0.580	-0.580	0.050
2020/01/31 14:44:14.6	359.780	0.560	-0.570	0.020
2020/01/31 14:44:14.7	359.820	0.540	-0.560	-0.000
2020/01/31 14:44:14.8	359.850	0.520	-0.550	-0.030
2020/01/31 14:44:14.9	359.870	0.490	-0.530	-0.050
2020/01/31 14:44:15.0	359.890	0.460	-0.510	-0.070
2020/01/31 14:44:15.1	359.920	0.420	-0.480	-0.080
2020/01/31 14:44:15.2	359.940	0.380	-0.450	-0.100
2020/01/31 14:44:15.3	359.950	0.340	-0.420	-0.110
2020/01/31 14:44:15.4	359.970	0.290	-0.380	-0.120
2020/01/31 14:44:15.5	359.980	0.240	-0.340	-0.130
2020/01/31 14:44:15.6	0.000	0.190	-0.290	-0.140
2020/01/31 14:44:15.7	0.000	0.140	-0.240	-0.150
2020/01/31 14:44:15.8	0.010	0.080	-0.190	-0.160
2020/01/31 14:44:15.9	0.020	0.020	-0.140	-0.170
2020/01/31 14:44:16.0	0.020	-0.040	-0.080	-0.180
2020/01/31 14:44:16.1	0.030	-0.100	-0.030	-0.190
2020/01/31 14:44:16.2	0.030	-0.160	0.020	-0.200
2020/01/31 14:44:16.3	0.030	-0.220	0.080	-0.210
2020/01/31 14:44:16.4	0.030	-0.280	0.130	-0.220
2020/01/31 14:44:16.5	0.030	-0.340	0.180	-0.240
2020/01/31 14:44:16.6	0.030	-0.400	0.230	-0.250
2020/01/31 14:44:16.7	0.040	-0.450	0.280	-0.270
2020/01/31 14:44:16.8	0.030	-0.510	0.320	-0.290
2020/01/31 14:44:16.9	0.030	-0.560	0.350	-0.310
2020/01/31 14:44:17.0	0.030	-0.600	0.390	-0.330
2020/01/31 14:44:17.1	0.030	-0.650	0.410	-0.350
2020/01/31 14:44:17.2	0.030	-0.690	0.430	-0.370
2020/01/31 14:44:17.3	0.030	-0.720	0.450	-0.390
2020/01/31 14:44:17.4	0.030	-0.750	0.460	-0.410
2020/01/31 14:44:17.5	0.030	-0.780	0.460	-0.420
2020/01/31 14:44:17.6	0.030	-0.800	0.460	-0.440
2020/01/31 14:44:17.7	0.030	-0.820	0.450	-0.450
2020/01/31 14:44:17.8	0.030	-0.830	0.440	-0.460
2020/01/31 14:44:17.9	0.020	-0.830	0.430	-0.460
2020/01/31 14:44:18.0	0.010	-0.830	0.410	-0.460
2020/01/31 14:44:18.1	0.000	-0.830	0.380	-0.460
2020/01/31 14:44:18.2	359.980	-0.810	0.350	-0.450
2020/01/31 14:44:18.3	359.970	-0.800	0.320	-0.440
2020/01/31 14:44:18.4	359.950	-0.780	0.280	-0.430
2020/01/31 14:44:18.5	359.930	-0.750	0.240	-0.410
2020/01/31 14:44:18.6	359.900	-0.720	0.200	-0.400
2020/01/31 14:44:18.7	359.870	-0.690	0.160	-0.370
2020/01/31 14:44:18.8	359.850	-0.650	0.110	-0.350
2020/01/31 14:44:18.9	359.820	-0.610	0.070	-0.330
2020/01/31 14:44:19.0	359.800	-0.570	0.020	-0.300
2020/01/31 14:44:19.1	359.770	-0.520	-0.020	-0.280
2020/01/31 14:44:19.2	359.740	-0.470	-0.070	-0.250
2020/01/31 14:44:19.3	359.710	-0.420	-0.120	-0.220
2020/01/31 14:44:19.4	359.690	-0.370	-0.160	-0.200
2020/01/31 14:44:19.5	359.660	-0.320	-0.210	-0.170
2020/01/31 14:44:19.6	359.640	-0.260	-0.250	-0.150
2020/01/31 14:44:19.7	359.610	-0.210	-0.290	-0.120
2020/01/31 14:44:19.8	359.590	-0.150	-0.320	-0.090
2020/01/31 14:44:19.9	359.560	-0.100	-0.360	-0.060
2020/01/31 14:44:20.0	359.540	-0.050	-0.400	-0.040
2020/01/31 14:44:20.1	359.510	0.010	-0.430	-0.010
2020/01/31 14:44:20.2	359.490	0.060	-0.450	0.020
2020/01/31 14:44:20.3	359.460	0.110	-0.480	0.040
2020/01/31 14:44:20.4	359.440	0.150	-0.500	0.070
2020/01/31 14:44:20.5	359.420	0.200	-0.520	0.090
2020/01/31 14:44:20.6	359.390	0.240	-0.540	0.120
2020/01/31 14:44:20.7	359.360	0.280	-0.550	0.140
2020/01/31 14:44:20.8	359.340	0.320	-0.560	0.160
2020/01/31 14:44:20.9	359.320	0.350	-0.570	0.180
2020/01/31 14:44:21.0	359.300	0.380	-0.580	0.200
2020/01/31 14:44:21.1	359.280	0.410	-0.580	0.220
2020/01/31 14:44:21.2	359.270	0.430	-0.580	0.230
2020/01/31 14:44:21.3	359.260	0.460	-0.580	0.240
2020/01/31 14:44:21.4	359.250	0.470	-0.580	0.250
2020/01/31 14:44:21.5	359.240	0.490	-0.580	0.250
2020/01/31 14:44:21.6	359.240	0.500	-0.580	0.250
2020/01/31 14:44:21.7	359.240	0.510	-0.570	0.250
2020/01/31 14:44:21.8	359.240	0.510	-0.560	0.250
2020/01/31 14:44:21.9	359.250	0.520	-0.560	0.240
2020/01/31 14:44:22.0	359.260	0.510	-0.550	0.220
2020/01/31 14:44:22.1	359.270	0.510	-0.550	0.210
2020/01/31 14:44:22.2	359.290	0.510	-0.540	0.190
2020/01/31 14:44:22.3	359.300	0.500	-0.530	0.170
2020/01/31 14:44:22.4	359.320	0.490	-0.530	0.140
2020/01/31 14:44:22.5	359.350	0.470	-0.520	0.110
2020/01/31 14:44:22.6	359.370	0.460	-0.510	0.080
2020/01/31 14:44:22.7	359.390	0.440	-0.510	0.050
2020/01/31 14:44:22.8	359.420	0.420	-0.500	0.020
2020/01/31 14:44:22.9	359.440	0.400	-0.490	-0.010
2020/01/31 14:44:23.0	359.470	0.380	-0.490	-0.040
2020/01/31 14:44:23.1	359.500	0.350	-0.480	-0.070
2020/01/31 14:44:23.2	359.520	0.330	-0.460	-0.100
2020/01/31 14:44:23.3	359.540	0.300	-0.450	-0.140
2020/01/31 14:44:23.4	359.570	0.270	-0.440	-0.170
2020/01/31 14:44:23.5	359.590	0.240	-0.420	-0.200
2020/01/31 14:44:23.6	359.610	0.210	-0.410	-0.220
2020/01/31 14:44:23.7	359.630	0.180	-0.390	-0.250
2020/01/31 14:44:23.8	359.650	0.150	-0.370	-0.280
2020/01/31 14:44:23.9	359.660	0.120	-0.350	-0.310
2020/01/31 14:44:24.0	359.680	0.100	-0.330	-0.330
2020/01/31 14:44:24.1	359.700	0.070	-0.310	-0.350
2020/01/31 14:44:24.2	359.710	0.040	-0.290	-0.370
2020/01/31 14:44:24.3	359.720	0.010	-0.260	-0.390
2020/01/31 14:44:24.4	359.730	-0.020	-0.240	-0.410
2020/01/31 14:44:24.5	359.750	-0.040	-0.220	-0.420
2020/01/31 14:44:24.6	359.750	-0.060	-0.190	-0.440
2020/01/31 14:44:24.7	359.760	-0.090	-0.170	-0.450
2020/01/31 14:44:24.8	359.770	-0.110	-0.150	-0.450
2020/01/31 14:44:24.9	359.770	-0.130	-0.130	-0.460
2020/01/31 14:44:25.0	359.780	-0.140	-0.110	-0.460
2020/01/31 14:44:25.1	359.780	-0.160	-0.090	-0.460
2020/01/31 14:44:25.2	359.790	-0.170	-0.070	-0.460
2020/01/31 14:44:25.3	359.790	-0.180	-0.060	-0.450
2020/01/31 14:44:25.4	359.800	-0.180	-0.050	-0.450
2020/01/31 14:44:25.5	359.800	-0.190	-0.040	-0.440
2020/01/31 14:44:25.6	359.800	-0.190	-0.030	-0.430
2020/01/31 14:44:25.7	359.810	-0.190	-0.030	-0.420
2020/01/31 14:44:25.8	359.810	-0.190	-0.030	-0.410
2020/01/31 14:44:25.9	359.810	-0.190	-0.030	-0.400
2020/01/31 14:44:26.0	359.820	-0.180	-0.040	-0.380
2020/01/31 14:44:26.1	359.820	-0.180	-0.050	-0.370
2020/01/31 14:44:26.2	359.820	-0.170	-0.060	-0.350
2020/01/31 14:44:26.3	359.830	-0.170	-0.070	-0.340
2020/01/31 14:44:26.4	359.830	-0.160	-0.090	-0.320
2020/01/31 14:44:26.5	359.830	-0.150	-0.100	-0.310
2020/01/31 14:44:26.6	359.830	-0.140	-0.120	-0.290
2020/01/31 14:44:26.7	359.830	-0.140	-0.140	-0.270
2020/01/31 14:44:26.8	359.830	-0.130	-0.160	-0.260
2020/01/31 14:44:26.9	359.840	-0.120	-0.180	-0.240
2020/01/31 14:44:27.0	359.840	-0.120	-0.190	-0.230
2020/01/31 14:44:27.1	359.840	-0.110	-0.210	-0.210
2020/01/31 14:44:27.2	359.830	-0.110	-0.230	-0.200
2020/01/31 14:44:27.3	359.830	-0.110	-0.250	-0.180
2020/01/31 14:44:27.4	359.830	-0.100	-0.260	-0.160
2020/01/31 14:44:27.5	359.830	-0.100	-0.280	-0.150
2020/01/31 14:44:27.6	359.830	-0.100	-0.290	-0.130
2020/01/31 14:44:27.7	359.830	-0.110	-0.300	-0.120
2020/01/31 14:44:27.8	359.820	-0.110	-0.310	-0.100
2020/01/31 14:44:27.9	359.820	-0.110	-0.320	-0.080
2020/01/31 14:44:28.0	359.810	-0.110	-0.320	-0.070
2020/01/31 14:44:28.1	359.810	-0.120	-0.330	-0.050
2020/01/31 14:44:28.2	359.800	-0.120	-0.330	-0.030
2020/01/31 14:44:28.3	359.800	-0.130	-0.330	-0.010
2020/01/31 14:44:28.4	359.790	-0.130	-0.330	0.010
2020/01/31 14:44:28.5	359.780	-0.140	-0.320	0.020
2020/01/31 14:44:28.6	359.770	-0.140	-0.320	0.040
2020/01/31 14:44:28.7	359.790	-0.150	-0.310	0.060
2020/01/31 14:44:28.8	359.780	-0.150	-0.300	0.070
2020/01/31 14:44:28.9	359.770	-0.160	-0.300	0.080
2020/01/31 14:44:29.0	359.770	-0.160	-0.290	0.090
2020/01/31 14:44:29.1	359.760	-0.160	-0.280	0.100
2020/01/31 14:44:29.2	359.760	-0.160	-0.280	0.110
2020/01/31 14:44:29.3	359.760	-0.150	-0.270	0.110
2020/01/31 14:44:29.4	359.750	-0.150	-0.270	0.110
2020/01/31 14:44:29.5	359.760	-0.140	-0.270	0.110
2020/01/31 14:44:29.6	359.760	-0.140	-0.270	0.110
2020/01/31 14:44:29.7	359.780	-0.130	-0.270	0.100
2020/01/31 14:44:29.8	359.790	-0.110	-0.270	0.090
2020/01/31 14:44:29.9	359.800	-0.100	-0.280	0.070
2020/01/31 14:44:30.0	359.810	-0.080	-0.280	0.060
2020/01/31 14:44:30.1	359.820	-0.070	-0.290	0.040
2020/01/31 14:44:30.2	359.840	-0.050	-0.300	0.020
2020/01/31 14:44:30.3	359.850	-0.030	-0.310	-0.000
2020/01/31 14:44:30.4	359.870	-0.000	-0.320	-0.020
2020/01/31 14:44:30.5	359.890	0.020	-0.320	-0.050
2020/01/31 14:44:30.6	359.900	0.040	-0.330	-0.070
2020/01/31 14:44:30.7	359.910	0.070	-0.340	-0.100
2020/01/31 14:44:30.8	359.920	0.090	-0.350	-0.120
2020/01/31 14:44:30.9	359.940	0.110	-0.350	-0.150
2020/01/31 14:44:31.0	359.950	0.140	-0.360	-0.170
2020/01/31 14:44:31.1	359.960	0.160	-0.360	-0.190
2020/01/31 14:44:31.2	359.960	0.180	-0.360	-0.210
2020/01/31 14:44:31.3	359.970	0.200	-0.360	-0.220
2020/01/31 14:44:31.4	359.960	0.210	-0.350	-0.240
2020/01/31 14:44:31.5	359.960	0.230	-0.340	-0.250
2020/01/31 14:44:31.6	359.950	0.240	-0.330	-0.260
2020/01/31 14:44:31.7	359.940	0.250	-0.320	-0.270
2020/01/31 14:44:31.8	359.920	0.250	-0.300	-0.270
2020/01/31 14:44:31.9	359.910	0.260	-0.280	-0.280
2020/01/31 14:44:32.0	359.880	0.260	-0.260	-0.280
2020/01/31 14:44:32.1	359.860	0.250	-0.230	-0.290
2020/01/31 14:44:32.2	359.840	0.250	-0.210	-0.290
2020/01/31 14:44:32.3	359.810	0.240	-0.180	-0.300
2020/01/31 14:44:32.4	359.780	0.220	-0.160	-0.310
2020/01/31 14:44:32.5	359.750	0.210	-0.130	-0.310
2020/01/31 14:44:32.6	359.730	0.190	-0.100	-0.320
2020/01/31 14:44:32.7	359.680	0.170	-0.080	-0.340
2020/01/31 14:44:32.8	359.650	0.150	-0.050	-0.340
2020/01/31 14:44:32.9	359.620	0.130	-0.020	-0.350
2020/01/31 14:44:33.0	359.600	0.110	0.000	-0.360
2020/01/31 14:44:33.1	359.570	0.080	0.030	-0.370
2020/01/31 14:44:33.2	359.550	0.050	0.050	-0.390
2020/01/31 14:44:33.3	359.520	0.030	0.070	-0.400
2020/01/31 14:44:33.4	359.500	0.000	0.090	-0.400
2020/01/31 14:44:33.5	359.480	-0.020	0.100	-0.410
2020/01/31 14:44:33.6	359.460	-0.050	0.110	-0.420
2020/01/31 14:44:33.7	359.450	-0.070	0.120	-0.430
2020/01/31 14:44:33.8	359.440	-0.090	0.130	-0.440
2020/01/31 14:44:33.9	359.420	-0.110	0.130	-0.450
2020/01/31 14:44:34.0	359.410	-0.130	0.130	-0.450
2020/01/31 14:44:34.1	359.400	-0.140	0.120	-0.460
2020/01/31 14:44:34.2	359.390	-0.150	0.120	-0.460
2020/01/31 14:44:34.3	359.390	-0.160	0.110	-0.460
2020/01/31 14:44:34.4	359.380	-0.170	0.090	-0.460
2020/01/31 14:44:34.5	359.380	-0.180	0.080	-0.460
2020/01/31 14:44:34.6	359.380	-0.180	0.060	-0.460
2020/01/31 14:44:34.7	359.380	-0.180	0.040	-0.460
2020/01/31 14:44:34.8	359.390	-0.180	0.020	-0.460
2020/01/31 14:44:34.9	359.390	-0.170	0.000	-0.450
2020/01/31 14:44:35.0	359.390	-0.170	-0.020	-0.450
2020/01/31 14:44:35.1	359.400	-0.160	-0.050	-0.440
2020/01/31 14:44:35.2	359.410	-0.150	-0.070	-0.440
2020/01/31 14:44:35.3	359.410	-0.140	-0.100	-0.430
2020/01/31 14:44:35.4	359.420	-0.130	-0.130	-0.430
2020/01/31 14:44:35.5	359.430	-0.120	-0.160	-0.430
2020/01/31 14:44:35.6	359.450	-0.110	-0.180	-0.420
2020/01/31 14:44:35.7	359.470	-0.090	-0.210	-0.420
2020/01/31 14:44:35.8	359.490	-0.080	-0.240	-0.420
2020/01/31 14:44:35.9	359.500	-0.070	-0.270	-0.410
2020/01/31 14:44:36.0	359.510	-0.050	-0.300	-0.410
2020/01/31 14:44:36.1	359.520	-0.040	-0.330	-0.410
2020/01/31 14:44:36.2	359.540	-0.020	-0.360	-0.400
2020/01/31 14:44:36.3	359.550	-0.010	-0.390	-0.400
2020/01/31 14:44:36.4	359.560	0.000	-0.410	-0.390
2020/01/31 14:44:36.5	359.570	0.020	-0.440	-0.390
2020/01/31 14:44:36.6	359.580	0.030	-0.470	-0.380
2020/01/31 14:44:36.7	359.600	0.040	-0.500	-0.370
2020/01/31 14:44:36.8	359.610	0.050	-0.530	-0.360
2020/01/31 14:44:36.9	359.620	0.060	-0.550	-0.350
2020/01/31 14:44:37.0	359.630	0.070	-0.580	-0.350
2020/01/31 14:44:37.1	359.640	0.080	-0.610	-0.340
2020/01/31 14:44:37.2	359.650	0.090	-0.630	-0.330
2020/01/31 14:44:37.3	359.670	0.090	-0.660	-0.320
2020/01/31 14:44:37.4	359.680	0.100	-0.690	-0.310
2020/01/31 14:44:37.5	359.700	0.110	-0.710	-0.310
2020/01/31 14:44:37.6	359.720	0.110	-0.740	-0.300
2020/01/31 14:44:37.7	359.730	0.120	-0.760	-0.300
2020/01/31 14:44:37.8	359.760	0.130	-0.780	-0.300
2020/01/31 14:44:37.9	359.780	0.130	-0.800	-0.300
2020/01/31 14:44:38.0	359.800	0.140	-0.820	-0.300
2020/01/31 14:44:38.1	359.830	0.140	-0.830	-0.300
2020/01/31 14:44:38.2	359.860	0.140	-0.840	-0.300
2020/01/31 14:44:38.3	359.890	0.150	-0.850	-0.300
2020/01/31 14:44:38.4	359.920	0.150	-0.860	-0.300
2020/01/31 14:44:38.5	359.950	0.150	-0.860	-0.310
2020/01/31 14:44:38.6	359.970	0.150	-0.860	-0.310
2020/01/31 14:44:38.7	359.990	0.150	-0.850	-0.310
2020/01/31 14:44:38.8	0.020	0.150	-0.830	-0.300
2020/01/31 14:44:38.9	0.040	0.140	-0.810	-0.300
2020/01/31 14:44:39.0	0.060	0.140	-0.790	-0.290
2020/01/31 14:44:39.1	0.070	0.130	-0.750	-0.280
2020/01/31 14:44:39.2	0.080	0.120	-0.710	-0.270
2020/01/31 14:44:39.3	0.080	0.110	-0.670	-0.260
2020/01/31 14:44:39.4	0.090	0.090	-0.620	-0.240
2020/01/31 14:44:39.5	0.080	0.070	-0.560	-0.220
2020/01/31 14:44:39.6	0.070	0.050	-0.500	-0.200
2020/01/31 14:44:39.7	0.060	0.030	-0.430	-0.170
2020/01/31 14:44:39.8	0.050	0.000	-0.360	-0.150
2020/01/31 14:44:39.9	0.030	-0.020	-0.280	-0.120
2020/01/31 14:44:40.0	0.010	-0.050	-0.210	-0.090
2020/01/31 14:44:40.1	359.980	-0.080	-0.130	-0.060
2020/01/31 14:44:40.2	359.960	-0.110	-0.050	-0.030
2020/01/31 14:44:40.3	359.930	-0.150	0.030	-0.010
2020/01/31 14:44:40.4	359.900	-0.180	0.110	0.020
2020/01/31 14:44:40.5	359.870	-0.210	0.190	0.050
2020/01/31 14:44:40.6	359.830	-0.250	0.260	0.080
2020/01/31 14:44:40.7	359.810	-0.280	0.340	0.110
2020/01/31 14:44:40.8	359.770	-0.310	0.410	0.130
2020/01/31 14:44:40.9	359.740	-0.340	0.470	0.160
2020/01/31 14:44:41.0	359.710	-0.370	0.530	0.180
2020/01/31 14:44:41.1	359.680	-0.400	0.580	0.200
2020/01/31 14:44:41.2	359.650	-0.420	0.620	0.210
2020/01/31 14:44:41.3	359.630	-0.440	0.660	0.230
2020/01/31 14:44:41.4	359.600	-0.460	0.680	0.240
2020/01/31 14:44:41.5	359.580	-0.470	0.700	0.250
2020/01/31 14:44:41.6	359.560	-0.480	0.720	0.250
2020/01/31 14:44:41.7	359.540	-0.490	0.720	0.250
2020/01/31 14:44:41.8	359.520	-0.490	0.710	0.250
2020/01/31 14:44:41.9	359.510	-0.490	0.700	0.250
2020/01/31 14:44:42.0	359.490	-0.480	0.680	0.250
2020/01/31 14:44:42.1	359.470	-0.460	0.650	0.250
2020/01/31 14:44:42.2	359.460	-0.440	0.620	0.240
2020/01/31 14:44:42.3	359.440	-0.420	0.570	0.240
2020/01/31 14:44:42.4	359.430	-0.390	0.530	0.240
2020/01/31 14:44:42.5	359.410	-0.360	0.480	0.230
2020/01/31 14:44:42.6	359.400	-0.320	0.420	0.230
2020/01/31 14:44:42.7	359.370	-0.280	0.360	0.230
2020/01/31 14:44:42.8	359.360	-0.240	0.300	0.230
2020/01/31 14:44:42.9	359.340	-0.190	0.240	0.230
2020/01/31 14:44:43.0	359.320	-0.140	0.170	0.230
2020/01/31 14:44:43.1	359.310	-0.090	0.100	0.240
2020/01/31 14:44:43.2	359.290	-0.040	0.040	0.240
2020/01/31 14:44:43.3	359.270	0.020	-0.030	0.240
2020/01/31 14:44:43.4	359.260	0.070	-0.100	0.240
2020/01/31 14:44:43.5	359.240	0.120	-0.160	0.250
2020/01/31 14:44:43.6	359.230	0.180	-0.220	0.250
2020/01/31 14:44:43.7	359.200	0.230	-0.290	0.240
2020/01/31 14:44:43.8	359.190	0.280	-0.350	0.240
2020/01/31 14:44:43.9	359.180	0.330	-0.410	0.240
2020/01/31 14:44:44.0	359.170	0.380	-0.460	0.240
2020/01/31 14:44:44.1	359.160	0.430	-0.520	0.240
2020/01/31 14:44:44.2	359.160	0.470	-0.570	0.240
2020/01/31 14:44:44.3	359.150	0.510	-0.630	0.230
2020/01/31 14:44:44.4	359.150	0.540	-0.680	0.220
2020/01/31 14:44:44.5	359.160	0.570	-0.720	0.210
2020/01/31 14:44:44.6	359.160	0.600	-0.770	0.190
2020/01/31 14:44:44.7	359.170	0.620	-0.810	0.180
2020/01/31 14:44:44.8	359.180	0.640	-0.850	0.160
2020/01/31 14:44:44.9	359.190	0.650	-0.890	0.140
2020/01/31 14:44:45.0	359.210	0.660	-0.930	0.110
2020/01/31 14:44:45.1	359.220	0.660	-0.960	0.080
2020/01/31 14:44:45.2	359.240	0.650	-0.990	0.050
2020/01/31 14:44:45.3	359.260	0.650	-1.020	0.020
2020/01/31 14:44:45.4	359.280	0.630	-1.050	-0.020
2020/01/31 14:44:45.5	359.290	0.610	-1.070	-0.060
2020/01/31 14:44:45.6	359.310	0.590	-1.080	-0.100
2020/01/31 14:44:45.7	359.320	0.560	-1.090	-0.140
2020/01/31 14:44:45.8	359.340	0.520	-1.100	-0.190
2020/01/31 14:44:45.9	359.350	0.480	-1.100	-0.230
2020/01/31 14:44:46.0	359.370	0.440	-1.100	-0.280
2020/01/31 14:44:46.1	359.380	0.400	-1.090	-0.340
2020/01/31 14:44:46.2	359.390	0.350	-1.080	-0.390
2020/01/31 14:44:46.3	359.410	0.300	-1.060	-0.440
2020/01/31 14:44:46.4	359.420	0.240	-1.040	-0.490
2020/01/31 14:44:46.5	359.430	0.190	-1.010	-0.550
2020/01/31 14:44:46.6	359.440	0.140	-0.980	-0.600
2020/01/31 14:44:46.7	359.460	0.080	-0.940	-0.660
2020/01/31 14:44:46.8	359.470	0.030	-0.900	-0.710
2020/01/31 14:44:46.9	359.480	-0.020	-0.860	-0.760
2020/01/31 14:44:47.0	359.490	-0.070	-0.810	-0.800
2020/01/31 14:44:47.1	359.510	-0.120	-0.760	-0.850
2020/01/31 14:44:47.2	359.520	-0.170	-0.710	-0.890
2020/01/31 14:44:47.3	359.540	-0.210	-0.660	-0.930
2020/01/31 14:44:47.4	359.560	-0.240	-0.600	-0.970
2020/01/31 14:44:47.5	359.580	-0.280	-0.550	-1.010
2020/01/31 14:44:47.6	359.600	-0.310	-0.500	-1.040
2020/01/31 14:44:47.7	359.620	-0.330	-0.440	-1.070
2020/01/31 14:44:47.8	359.640	-0.350	-0.390	-1.100
2020/01/31 14:44:47.9	359.670	-0.360	-0.350	-1.130
2020/01/31 14:44:48.0	359.700	-0.370	-0.300	-1.160
2020/01/31 14:44:48.1	359.730	-0.370	-0.260	-1.180
2020/01/31 14:44:48.2	359.760	-0.370	-0.220	-1.200
2020/01/31 14:44:48.3	359.800	-0.360	-0.180	-1.220
2020/01/31 14:44:48.4	359.830	-0.350	-0.150	-1.230
2020/01/31 14:44:48.5	359.860	-0.340	-0.120	-1.240
2020/01/31 14:44:48.6	359.900	-0.320	-0.090	-1.250
2020/01/31 14:44:48.7	359.920	-0.300	-0.070	-1.250
2020/01/31 14:44:48.8	359.950	-0.270	-0.050	-1.250
2020/01/31 14:44:48.9	359.980	-0.240	-0.030	-1.250
2020/01/31 14:44:49.0	0.010	-0.220	-0.010	-1.240
2020/01/31 14:44:49.1	0.040	-0.190	0.010	-1.230
2020/01/31 14:44:49.2	0.070	-0.160	0.030	-1.220
2020/01/31 14:44:49.3	0.090	-0.130	0.040	-1.200
2020/01/31 14:44:49.4	0.110	-0.100	0.060	-1.180
2020/01/31 14:44:49.5	0.130	-0.070	0.070	-1.150
2020/01/31 14:44:49.6	0.140	-0.040	0.080	-1.120
2020/01/31 14:44:49.7	0.150	-0.020	0.100	-1.090
2020/01/31 14:44:49.8	0.160	0.010	0.120	-1.050
2020/01/31 14:44:49.9	0.160	0.030	0.130	-1.010
2020/01/31 14:44:50.0	0.160	0.050	0.150	-0.960
2020/01/31 14:44:50.1	0.160	0.060	0.170	-0.910
2020/01/31 14:44:50.2	0.150	0.080	0.180	-0.860
2020/01/31 14:44:50.3	0.150	0.090	0.200	-0.810
2020/01/31 14:44:50.4	0.140	0.090	0.220	-0.750
2020/01/31 14:44:50.5	0.130	0.100	0.240	-0.690
2020/01/31 14:44:50.6	0.110	0.100	0.270	-0.630
2020/01/31 14:44:50.7	0.100	0.090	0.280	-0.560
2020/01/31 14:44:50.8	0.090	0.090	0.310	-0.500
2020/01/31 14:44:50.9	0.070	0.080	0.330	-0.440
2020/01/31 14:44:51.0	0.050	0.070	0.350	-0.370
2020/01/31 14:44:51.1	0.040	0.050	0.370	-0.310
2020/01/31 14:44:51.2	0.020	0.040	0.380	-0.250
2020/01/31 14:44:51.3	0.000	0.020	0.400	-0.190
2020/01/31 14:44:51.4	359.980	-0.000	0.410	-0.140
2020/01/31 14:44:51.5	359.970	-0.030	0.420	-0.080
2020/01/31 14:44:51.6	359.950	-0.050	0.430	-0.030
2020/01/31 14:44:51.7	359.950	-0.070	0.440	0.010
2020/01/31 14:44:51.8	359.940	-0.100	0.450	0.060
2020/01/31 14:44:51.9	359.920	-0.120	0.450	0.090
2020/01/31 14:44:52.0	359.910	-0.150	0.450	0.130
2020/01/31 14:44:52.1	359.900	-0.170	0.440	0.160
2020/01/31 14:44:52.2	359.900	-0.200	0.430	0.190
2020/01/31 14:44:52.3	359.890	-0.220	0.430	0.210
2020/01/31 14:44:52.4	359.880	-0.240	0.410	0.230
2020/01/31 14:44:52.5	359.870	-0.260	0.400	0.250
2020/01/31 14:44:52.6	359.860	-0.280	0.390	0.270
2020/01/31 14:44:52.7	359.850	-0.300	0.370	0.280
2020/01/31 14:44:52.8	359.840	-0.320	0.350	0.300
2020/01/31 14:44:52.9	359.830	-0.330	0.330	0.310
2020/01/31 14:44:53.0	359.820	-0.340	0.320	0.320
2020/01/31 14:44:53.1	359.810	-0.350	0.300	0.330
2020/01/31 14:44:53.2	359.800	-0.360	0.280	0.340
2020/01/31 14:44:53.3	359.790	-0.360	0.260	0.360
2020/01/31 14:44:53.4	359.770	-0.360	0.230	0.370
2020/01/31 14:44:53.5	359.750	-0.360	0.210	0.380
2020/01/31 14:44:53.6	359.740	-0.360	0.190	0.400
2020/01/31 14:44:53.7	359.720	-0.350	0.170	0.400
2020/01/31 14:44:53.8	359.700	-0.340	0.140	0.420
2020/01/31 14:44:53.9	359.670	-0.330	0.110	0.430
2020/01/31 14:44:54.0	359.650	-0.320	0.090	0.450
2020/01/31 14:44:54.1	359.620	-0.300	0.060	0.460
2020/01/31 14:44:54.2	359.600	-0.280	0.030	0.470
2020/01/31 14:44:54.3	359.570	-0.260	-0.010	0.480
2020/01/31 14:44:54.4	359.550	-0.240	-0.040	0.490
2020/01/31 14:44:54.5	359.520	-0.220	-0.080	0.500
2020/01/31 14:44:54.6	359.490	-0.190	-0.120	0.500
2020/01/31 14:44:54.7	359.470	-0.160	-0.170	0.500
2020/01/31 14:44:54.8	359.450	-0.130	-0.210	0.500
2020/01/31 14:44:54.9	359.420	-0.100	-0.260	0.490
2020/01/31 14:44:55.0	359.400	-0.070	-0.310	0.490
2020/01/31 14:44:55.1	359.390	-0.030	-0.370	0.480
2020/01/31 14:44:55.2	359.370	0.000	-0.420	0.470
2020/01/31 14:44:55.3	359.360	0.040	-0.490	0.450
2020/01/31 14:44:55.4	359.350	0.080	-0.550	0.430
2020/01/31 14:44:55.5	359.350	0.120	-0.610	0.400
2020/01/31 14:44:55.6	359.350	0.160	-0.680	0.370
2020/01/31 14:44:55.7	359.340	0.190	-0.750	0.340
2020/01/31 14:44:55.8	359.350	0.230	-0.820	0.300
2020/01/31 14:44:55.9	359.360	0.270	-0.890	0.260
2020/01/31 14:44:56.0	359.380	0.310	-0.960	0.220
2020/01/31 14:44:56.1	359.400	0.350	-1.040	0.170
2020/01/31 14:44:56.2	359.430	0.380	-1.110	0.120
2020/01/31 14:44:56.3	359.450	0.410	-1.170	0.070
2020/01/31 14:44:56.4	359.490	0.440	-1.240	0.010
2020/01/31 14:44:56.5	359.520	0.470	-1.300	-0.050
2020/01/31 14:44:56.6	359.560	0.500	-1.360	-0.110
2020/01/31 14:44:56.7	359.590	0.520	-1.410	-0.170
2020/01/31 14:44:56.8	359.630	0.540	-1.460	-0.230
2020/01/31 14:44:56.9	359.680	0.550	-1.500	-0.300
2020/01/31 14:44:57.0	359.730	0.560	-1.540	-0.360
2020/01/31 14:44:57.1	359.780	0.570	-1.570	-0.430
2020/01/31 14:44:57.2	359.830	0.580	-1.600	-0.490
2020/01/31 14:44:57.3	359.890	0.580	-1.620	-0.560
2020/01/31 14:44:57.4	359.940	0.570	-1.630	-0.620
2020/01/31 14:44:57.5	0.000	0.570	-1.630	-0.680
2020/01/31 14:44:57.6	0.050	0.560	-1.620	-0.740
2020/01/31 14:44:57.7	0.120	0.540	-1.610	-0.800
2020/01/31 14:44:57.8	0.170	0.530	-1.580	-0.850
2020/01/31 14:44:57.9	0.230	0.500	-1.550	-0.900
2020/01/31 14:44:58.0	0.290	0.480	-1.510	-0.950
2020/01/31 14:44:58.1	0.340	0.450	-1.460	-0.990
2020/01/31 14:44:58.2	0.400	0.430	-1.410	-1.030
2020/01/31 14:44:58.3	0.460	0.390	-1.340	-1.070
2020/01/31 14:44:58.4	0.510	0.360	-1.270	-1.110
2020/01/31 14:44:58.5	0.560	0.320	-1.190	-1.130
2020/01/31 14:44:58.6	0.620	0.290	-1.110	-1.160
2020/01/31 14:44:58.7	0.660	0.250	-1.010	-1.180
2020/01/31 14:44:58.8	0.710	0.210	-0.920	-1.200
2020/01/31 14:44:58.9	0.760	0.170	-0.820	-1.210
2020/01/31 14:44:59.0	0.800	0.130	-0.720	-1.220
2020/01/31 14:44:59.1	0.850	0.080	-0.610	-1.230
2020/01/31 14:44:59.2	0.890	0.040	-0.510	-1.230
2020/01/31 14:44:59.3	0.920	0.000	-0.400	-1.230
2020/01/31 14:44:59.4	0.960	-0.040	-0.290	-1.220
2020/01/31 14:44:59.5	0.990	-0.070	-0.180	-1.210
2020/01/31 14:44:59.6	1.020	-0.110	-0.070	-1.200
2020/01/31 14:44:59.7	1.040	-0.150	0.030	-1.180
2020/01/31 14:44:59.8	1.070	-0.180	0.130	-1.160
2020/01/31 14:44:59.9	1.090	-0.210	0.230	-1.130
2020/01/31 14:45:00.0	1.110	-0.240	0.320	-1.100
2020/01/31 14:45:00.1	1.130	-0.260	0.410	-1.070
2020/01/31 14:45:00.2	1.140	-0.290	0.490	-1.040
2020/01/31 14:45:00.3	1.150	-0.310	0.570	-1.000
2020/01/31 14:45:00.4	1.160	-0.330	0.640	-0.960
2020/01/31 14:45:00.5	1.160	-0.340	0.700	-0.920
2020/01/31 14:45:00.6	1.170	-0.350	0.750	-0.880
2020/01/31 14:45:00.7	1.180	-0.360	0.800	-0.830
2020/01/31 14:45:00.8	1.180	-0.370	0.840	-0.780
2020/01/31 14:45:00.9	1.170	-0.370	0.860	-0.730
2020/01/31 14:45:01.0	1.160	-0.370	0.880	-0.670
2020/01/31 14:45:01.1	1.150	-0.360	0.890	-0.620
2020/01/31 14:45:01.2	1.140	-0.360	0.900	-0.560
2020/01/31 14:45:01.3	1.120	-0.350	0.890	-0.490
2020/01/31 14:45:01.4	1.110	-0.330	0.880	-0.430
2020/01/31 14:45:01.5	1.080	-0.320	0.860	-0.370
2020/01/31 14:45:01.6	1.060	-0.300	0.830	-0.300
2020/01/31 14:45:01.7	1.030	-0.290	0.800	-0.230
2020/01/31 14:45:01.8	1.000	-0.270	0.760	-0.170
2020/01/31 14:45:01.9	0.970	-0.250	0.720	-0.110
2020/01/31 14:45:02.0	0.940	-0.230	0.680	-0.050
2020/01/31 14:45:02.1	0.910	-0.210	0.630	0.010
2020/01/31 14:45:02.2	0.870	-0.180	0.580	0.070
2020/01/31 14:45:02.3	0.840	-0.160	0.520	0.120
2020/01/31 14:45:02.4	0.810	-0.140	0.470	0.170
2020/01/31 14:45:02.5	0.770	-0.120	0.410	0.220
2020/01/31 14:45:02.6	0.740	-0.100	0.360	0.260
2020/01/31 14:45:02.7	0.710	-0.080	0.310	0.290
2020/01/31 14:45:02.8	0.680	-0.060	0.250	0.330
2020/01/31 14:45:02.9	0.650	-0.040	0.200	0.350
2020/01/31 14:45:03.0	0.620	-0.020	0.140	0.380
2020/01/31 14:45:03.1	0.600	-0.010	0.090	0.390
2020/01/31 14:45:03.2	0.580	0.010	0.050	0.410
2020/01/31 14:45:03.3	0.560	0.020	0.000	0.410
2020/01/31 14:45:03.4	0.540	0.030	-0.040	0.420
2020/01/31 14:45:03.5	0.520	0.040	-0.080	0.410
2020/01/31 14:45:03.6	0.510	0.050	-0.110	0.410
2020/01/31 14:45:03.7	0.490	0.050	-0.150	0.400
2020/01/31 14:45:03.8	0.470	0.060	-0.180	0.390
2020/01/31 14:45:03.9	0.460	0.060	-0.200	0.370
2020/01/31 14:45:04.0	0.450	0.060	-0.220	0.360
2020/01/31 14:45:04.1	0.440	0.060	-0.230	0.340
2020/01/31 14:45:04.2	0.440	0.060	-0.240	0.320
2020/01/31 14:45:04.3	0.430	0.050	-0.240	0.310
2020/01/31 14:45:04.4	0.420	0.050	-0.240	0.290
2020/01/31 14:45:04.5	0.410	0.040	-0.240	0.270
2020/01/31 14:45:04.6	0.400	0.040	-0.230	0.240
2020/01/31 14:45:04.7	0.390	0.030	-0.210	0.220
2020/01/31 14:45:04.8	0.390	0.020	-0.190	0.200
2020/01/31 14:45:04.9	0.380	0.010	-0.180	0.180
2020/01/31 14:45:05.0	0.370	0.000	-0.160	0.160
2020/01/31 14:45:05.1	0.370	-0.010	-0.140	0.140
2020/01/31 14:45:05.2	0.360	-0.020	-0.120	0.120
2020/01/31 14:45:05.3	0.360	-0.030	-0.100	0.100
2020/01/31 14:45:05.4	0.350	-0.040	-0.080	0.080
2020/01/31 14:45:05.5	0.350	-0.050	-0.050	0.060
2020/01/31 14:45:05.6	0.340	-0.060	-0.040	0.040
2020/01/31 14:45:05.7	0.330	-0.070	-0.020	0.020
2020/01/31 14:45:05.8	0.330	-0.080	-0.010	0.010
2020/01/31 14:45:05.9	0.320	-0.080	0.000	-0.010
2020/01/31 14:45:06.0	0.320	-0.090	0.010	-0.030
2020/01/31 14:45:06.1	0.310	-0.090	0.020	-0.050
2020/01/31 14:45:06.2	0.310	-0.100	0.020	-0.060
2020/01/31 14:45:06.3	0.310	-0.100	0.020	-0.080
2020/01/31 14:45:06.4	0.310	-0.100	0.010	-0.100
2020/01/31 14:45:06.5	0.310	-0.100	-0.000	-0.120
2020/01/31 14:45:06.6	0.310	-0.100	-0.020	-0.140
2020/01/31 14:45:06.7	0.310	-0.100	-0.040	-0.170
2020/01/31 14:45:06.8	0.310	-0.090	-0.070	-0.190
2020/01/31 14:45:06.9	0.310	-0.090	-0.110	-0.210
2020/01/31 14:45:07.0	0.320	-0.080	-0.150	-0.240
2020/01/31 14:45:07.1	0.330	-0.070	-0.190	-0.260
2020/01/31 14:45:07.2	0.340	-0.060	-0.250	-0.290
2020/01/31 14:45:07.3	0.360	-0.040	-0.300	-0.320
2020/01/31 14:45:07.4	0.370	-0.030	-0.360	-0.340
2020/01/31 14:45:07.5	0.390	-0.010	-0.420	-0.370
2020/01/31 14:45:07.6	0.410	0.000	-0.490	-0.400
2020/01/31 14:45:07.7	0.430	0.020	-0.560	-0.420
2020/01/31 14:45:07.8	0.450	0.040	-0.630	-0.450
2020/01/31 14:45:07.9	0.470	0.060	-0.700	-0.470
2020/01/31 14:45:08.0	0.490	0.080	-0.770	-0.490
2020/01/31 14:45:08.1	0.510	0.100	-0.840	-0.510
2020/01/31 14:45:08.2	0.530	0.130	-0.900	-0.530
2020/01/31 14:45:08.3	0.550	0.150	-0.970	-0.550
2020/01/31 14:45:08.4	0.570	0.170	-1.030	-0.560
2020/01/31 14:45:08.5	0.590	0.190	-1.090	-0.580
2020/01/31 14:45:08.6	0.610	0.200	-1.140	-0.590
2020/01/31 14:45:08.7	0.620	0.220	-1.190	-0.610
2020/01/31 14:45:08.8	0.640	0.240	-1.240	-0.620
2020/01/31 14:45:08.9	0.650	0.250	-1.270	-0.630
2020/01/31 14:45:09.0	0.670	0.270	-1.310	-0.640
2020/01/31 14:45:09.1	0.690	0.280	-1.330	-0.650
2020/01/31 14:45:09.2	0.710	0.290	-1.350	-0.660
2020/01/31 14:45:09.3	0.730	0.300	-1.370	-0.670
2020/01/31 14:45:09.4	0.750	0.310	-1.370	-0.670
2020/01/31 14:45:09.5	0.780	0.310	-1.370	-0.680
2020/01/31 14:45:09.6	0.800	0.310	-1.370	-0.690
2020/01/31 14:45:09.7	0.830	0.320	-1.350	-0.690
2020/01/31 14:45:09.8	0.860	0.310	-1.330	-0.690
2020/01/31 14:45:09.9	0.890	0.310	-1.310	-0.700
2020/01/31 14:45:10.0	0.920	0.310	-1.270	-0.700
2020/01/31 14:45:10.1	0.960	0.300	-1.230	-0.700
2020/01/31 14:45:10.2	1.000	0.290	-1.190	-0.700
2020/01/31 14:45:10.3	1.030	0.280	-1.140	-0.710
2020/01/31 14:45:10.4	1.070	0.270	-1.090	-0.710
2020/01/31 14:45:10.5	1.110	0.260	-1.020	-0.710
2020/01/31 14:45:10.6	1.150	0.240	-0.960	-0.710
2020/01/31 14:45:10.7	1.190	0.230	-0.890	-0.710
2020/01/31 14:45:10.8	1.230	0.210	-0.810	-0.710
2020/01/31 14:45:10.9	1.270	0.190	-0.740	-0.710
2020/01/31 14:45:11.0	1.310	0.160	-0.660	-0.710
2020/01/31 14:45:11.1	1.350	0.140	-0.570	-0.710
2020/01/31 14:45:11.2	1.390	0.110	-0.490	-0.700
2020/01/31 14:45:11.3	1.430	0.090	-0.400	-0.700
2020/01/31 14:45:11.4	1.460	0.060	-0.310	-0.690
2020/01/31 14:45:11.5	1.490	0.030	-0.220	-0.690
2020/01/31 14:45:11.6	1.520	0.000	-0.130	-0.680
2020/01/31 14:45:11.7	1.540	-0.030	-0.040	-0.670
2020/01/31 14:45:11.8	1.560	-0.060	0.050	-0.660
2020/01/31 14:45:11.9	1.590	-0.090	0.140	-0.650
2020/01/31 14:45:12.0	1.600	-0.120	0.230	-0.630
2020/01/31 14:45:12.1	1.620	-0.150	0.320	-0.620
2020/01/31 14:45:12.2	1.630	-0.180	0.400	-0.600
2020/01/31 14:45:12.3	1.630	-0.210	0.480	-0.580
2020/01/31 14:45:12.4	1.640	-0.240	0.550	-0.560
2020/01/31 14:45:12.5	1.640	-0.260	0.620	-0.530
2020/01/31 14:45:12.6	1.630	-0.290	0.680	-0.510
2020/01/31 14:45:12.7	1.640	-0.320	0.740	-0.480
2020/01/31 14:45:12.8	1.620	-0.340	0.800	-0.450
2020/01/31 14:45:12.9	1.600	-0.360	0.840	-0.410
2020/01/31 14:45:13.0	1.580	-0.380	0.890	-0.380
2020/01/31 14:45:13.1	1.550	-0.400	0.920	-0.340
2020/01/31 14:45:13.2	1.520	-0.410	0.950	-0.300
2020/01/31 14:45:13.3	1.480	-0.430	0.960	-0.260
2020/01/31 14:45:13.4	1.450	-0.440	0.980	-0.220
2020/01/31 14:45:13.5	1.400	-0.450	0.980	-0.180
2020/01/31 14:45:13.6	1.360	-0.460	0.970	-0.140
2020/01/31 14:45:13.7	1.320	-0.460	0.960	-0.100
2020/01/31 14:45:13.8	1.270	-0.460	0.940	-0.060
2020/01/31 14:45:13.9	1.210	-0.460	0.910	-0.020
2020/01/31 14:45:14.0	1.160	-0.450	0.880	0.020
2020/01/31 14:45:14.1	1.100	-0.450	0.830	0.050
2020/01/31 14:45:14.2	1.050	-0.440	0.780	0.080
2020/01/31 14:45:14.3	0.990	-0.420	0.720	0.110
2020/01/31 14:45:14.4	0.930	-0.410	0.650	0.140
2020/01/31 14:45:14.5	0.880	-0.390	0.580	0.160
2020/01/31 14:45:14.6	0.820	-0.370	0.510	0.190
2020/01/31 14:45:14.7	0.770	-0.340	0.430	0.200
2020/01/31 14:45:14.8	0.710	-0.310	0.340	0.220
2020/01/31 14:45:14.9	0.660	-0.280	0.250	0.230
2020/01/31 14:45:15.0	0.600	-0.250	0.160	0.250
2020/01/31 14:45:15.1	0.550	-0.210	0.070	0.260
2020/01/31 14:45:15.2	0.500	-0.170	-0.020	0.270
2020/01/31 14:45:15.3	0.450	-0.130	-0.120	0.280
2020/01/31 14:45:15.4	0.400	-0.090	-0.210	0.290
2020/01/31 14:45:15.5	0.360	-0.040	-0.300	0.300
2020/01/31 14:45:15.6	0.310	0.000	-0.390	0.310
2020/01/31 14:45:15.7	0.260	0.050	-0.470	0.310
2020/01/31 14:45:15.8	0.230	0.100	-0.560	0.320
2020/01/31 14:45:15.9	0.190	0.150	-0.630	0.330
2020/01/31 14:45:16.0	0.160	0.200	-0.710	0.330
2020/01/31 14:45:16.1	0.130	0.250	-0.780	0.330
2020/01/31 14:45:16.2	0.100	0.300	-0.840	0.340
2020/01/31 14:45:16.3	0.080	0.340	-0.900	0.340
2020/01/31 14:45:16.4	0.060	0.390	-0.950	0.340
2020/01/31 14:45:16.5	0.050	0.430	-1.000	0.340
2020/01/31 14:45:16.6	0.030	0.480	-1.040	0.340
2020/01/31 14:45:16.7	0.020	0.520	-1.070	0.340
2020/01/31 14:45:16.8	0.010	0.550	-1.090	0.340
2020/01/31 14:45:16.9	0.010	0.580	-1.110	0.330
2020/01/31 14:45:17.0	0.010	0.610	-1.120	0.330
2020/01/31 14:45:17.1	0.010	0.640	-1.130	0.320
2020/01/31 14:45:17.2	0.020	0.660	-1.120	0.310
2020/01/31 14:45:17.3	0.030	0.680	-1.110	0.310
2020/01/31 14:45:17.4	0.040	0.690	-1.100	0.290
2020/01/31 14:45:17.5	0.060	0.700	-1.070	0.280
2020/01/31 14:45:17.6	0.070	0.700	-1.040	0.270
2020/01/31 14:45:17.7	0.100	0.700	-1.010	0.250
2020/01/31 14:45:17.8	0.120	0.690	-0.970	0.230
2020/01/31 14:45:17.9	0.140	0.680	-0.920	0.210
2020/01/31 14:45:18.0	0.170	0.660	-0.870	0.180
2020/01/31 14:45:18.1	0.200	0.640	-0.820	0.160
2020/01/31 14:45:18.2	0.220	0.610	-0.760	0.130
2020/01/31 14:45:18.3	0.250	0.580	-0.700	0.110
2020/01/31 14:45:18.4	0.290	0.550	-0.640	0.080
2020/01/31 14:45:18.5	0.320	0.510	-0.580	0.050
2020/01/31 14:45:18.6	0.350	0.470	-0.510	0.020
2020/01/31 14:45:18.7	0.390	0.420	-0.440	-0.010
2020/01/31 14:45:18.8	0.420	0.380	-0.370	-0.050
2020/01/31 14:45:18.9	0.460	0.330	-0.310	-0.080
2020/01/31 14:45:19.0	0.490	0.280	-0.240	-0.110
2020/01/31 14:45:19.1	0.530	0.220	-0.170	-0.140
2020/01/31 14:45:19.2	0.560	0.170	-0.100	-0.170
2020/01/31 14:45:19.3	0.590	0.110	-0.040	-0.200
2020/01/31 14:45:19.4	0.620	0.060	0.030	-0.230
2020/01/31 14:45:19.5	0.660	0.000	0.090	-0.260
2020/01/31 14:45:19.6	0.690	-0.050	0.150	-0.280
2020/01/31 14:45:19.7	0.720	-0.110	0.200	-0.310
2020/01/31 14:45:19.8	0.750	-0.160	0.250	-0.340
2020/01/31 14:45:19.9	0.770	-0.210	0.300	-0.360
2020/01/31 14:45:20.0	0.800	-0.260	0.350	-0.370
2020/01/31 14:45:20.1	0.820	-0.310	0.390	-0.390
2020/01/31 14:45:20.2	0.840	-0.350	0.420	-0.410
2020/01/31 14:45:20.3	0.860	-0.390	0.460	-0.420
2020/01/31 14:45:20.4	0.880	-0.430	0.480	-0.430
2020/01/31 14:45:20.5	0.890	-0.470	0.500	-0.440
2020/01/31 14:45:20.6	0.900	-0.500	0.520	-0.450
2020/01/31 14:45:20.7	0.920	-0.530	0.530	-0.460
2020/01/31 14:45:20.8	0.920	-0.550	0.530	-0.470
2020/01/31 14:45:20.9	0.930	-0.570	0.530	-0.470
2020/01/31 14:45:21.0	0.940	-0.590	0.520	-0.470
2020/01/31 14:45:21.1	0.940	-0.600	0.500	-0.470
2020/01/31 14:45:21.2	0.940	-0.610	0.480	-0.470
2020/01/31 14:45:21.3	0.940	-0.610	0.450	-0.470
2020/01/31 14:45:21.4	0.940	-0.610	0.420	-0.470
2020/01/31 14:45:21.5	0.940	-0.610	0.380	-0.460
2020/01/31 14:45:21.6	0.930	-0.600	0.330	-0.450
2020/01/31 14:45:21.7	0.920	-0.590	0.280	-0.450
2020/01/31 14:45:21.8	0.910	-0.580	0.230	-0.440
2020/01/31 14:45:21.9	0.900	-0.560	0.180	-0.430
2020/01/31 14:45:22.0	0.890	-0.540	0.120	-0.410
2020/01/31 14:45:22.1	0.880	-0.520	0.060	-0.400
2020/01/31 14:45:22.2	0.870	-0.490	-0.010	-0.390
2020/01/31 14:45:22.3	0.860	-0.470	-0.070	-0.370
2020/01/31 14:45:22.4	0.850	-0.440	-0.140	-0.360
2020/01/31 14:45:22.5	0.830	-0.400	-0.200	-0.340
2020/01/31 14:45:22.6	0.820	-0.370	-0.270	-0.320
2020/01/31 14:45:22.7	0.800	-0.330	-0.330	-0.310
2020/01/31 14:45:22.8	0.780	-0.300	-0.400	-0.290
2020/01/31 14:45:22.9	0.770	-0.260	-0.460	-0.270
2020/01/31 14:45:23.0	0.760	-0.220	-0.520	-0.260
2020/01/31 14:45:23.1	0.740	-0.180	-0.570	-0.240
2020/01/31 14:45:23.2	0.730	-0.140	-0.620	-0.220
2020/01/31 14:45:23.3	0.720	-0.100	-0.670	-0.200
2020/01/31 14:45:23.4	0.700	-0.060	-0.710	-0.180
2020/01/31 14:45:23.5	0.690	-0.020	-0.750	-0.160
2020/01/31 14:45:23.6	0.680	0.020	-0.780	-0.140
2020/01/31 14:45:23.7	0.660	0.060	-0.810	-0.120
2020/01/31 14:45:23.8	0.650	0.100	-0.830	-0.100
2020/01/31 14:45:23.9	0.630	0.130	-0.850	-0.080
2020/01/31 14:45:24.0	0.620	0.170	-0.860	-0.070
2020/01/31 14:45:24.1	0.610	0.200	-0.870	-0.050
2020/01/31 14:45:24.2	0.590	0.240	-0.870	-0.030
2020/01/31 14:45:24.3	0.580	0.270	-0.870	-0.020
2020/01/31 14:45:24.4	0.570	0.300	-0.860	-0.010
2020/01/31 14:45:24.5	0.560	0.320	-0.850	0.000
2020/01/31 14:45:24.6	0.550	0.350	-0.840	0.010
2020/01/31 14:45:24.7	0.520	0.370	-0.820	0.020
2020/01/31 14:45:24.8	0.510	0.390	-0.800	0.030
2020/01/31 14:45:24.9	0.500	0.410	-0.780	0.030
2020/01/31 14:45:25.0	0.500	0.420	-0.750	0.040
2020/01/31 14:45:25.1	0.490	0.430	-0.720	0.040
2020/01/31 14:45:25.2	0.480	0.440	-0.690	0.040
2020/01/31 14:45:25.3	0.480	0.440	-0.660	0.040
2020/01/31 14:45:25.4	0.470	0.440	-0.630	0.040
2020/01/31 14:45:25.5	0.470	0.440	-0.590	0.040
2020/01/31 14:45:25.6	0.460	0.440	-0.550	0.040
2020/01/31 14:45:25.7	0.450	0.430	-0.520	0.040
2020/01/31 14:45:25.8	0.440	0.410	-0.480	0.040
2020/01/31 14:45:25.9	0.440	0.400	-0.440	0.030
2020/01/31 14:45:26.0	0.430	0.380	-0.390	0.030
2020/01/31 14:45:26.1	0.430	0.360	-0.350	0.030
2020/01/31 14:45:26.2	0.420	0.330	-0.310	0.030
2020/01/31 14:45:26.3	0.420	0.300	-0.260	0.030
2020/01/31 14:45:26.4	0.410	0.270	-0.220	0.020
2020/01/31 14:45:26.5	0.410	0.240	-0.180	0.020
2020/01/31 14:45:26.6	0.400	0.200	-0.140	0.010
2020/01/31 14:45:26.7	0.400	0.160	-0.100	0.010
2020/01/31 14:45:26.8	0.390	0.130	-0.060	0.000
2020/01/31 14:45:26.9	0.380	0.090	-0.030	-0.000
2020/01/31 14:45:27.0	0.380	0.040	0.000	-0.010
2020/01/31 14:45:27.1	0.370	0.000	0.030	-0.020
2020/01/31 14:45:27.2	0.360	-0.040	0.060	-0.040
2020/01/31 14:45:27.3	0.360	-0.080	0.090	-0.050
2020/01/31 14:45:27.4	0.350	-0.120	0.110	-0.070
2020/01/31 14:45:27.5	0.340	-0.160	0.120	-0.080
2020/01/31 14:45:27.6	0.340	-0.200	0.140	-0.100
2020/01/31 14:45:27.7	0.330	-0.230	0.150	-0.130
2020/01/31 14:45:27.8	0.330	-0.270	0.160	-0.150
2020/01/31 14:45:27.9	0.330	-0.300	0.160	-0.170
2020/01/31 14:45:28.0	0.340	-0.320	0.160	-0.190
2020/01/31 14:45:28.1	0.340	-0.350	0.150	-0.210
2020/01/31 14:45:28.2	0.350	-0.370	0.140	-0.240
2020/01/31 14:45:28.3	0.360	-0.380	0.130	-0.260
2020/01/31 14:45:28.4	0.370	-0.390	0.110	-0.280
2020/01/31 14:45:28.5	0.380	-0.400	0.080	-0.310
2020/01/31 14:45:28.6	0.400	-0.400	0.060	-0.330
2020/01/31 14:45:28.7	0.420	-0.400	0.030	-0.360
2020/01/31 14:45:28.8	0.430	-0.390	-0.000	-0.380
2020/01/31 14:45:28.9	0.460	-0.370	-0.040	-0.400
2020/01/31 14:45:29.0	0.480	-0.350	-0.080	-0.420
2020/01/31 14:45:29.1	0.510	-0.330	-0.120	-0.450
2020/01/31 14:45:29.2	0.530	-0.300	-0.160	-0.470
2020/01/31 14:45:29.3	0.560	-0.270	-0.210	-0.480
2020/01/31 14:45:29.4	0.600	-0.230	-0.260	-0.500
2020/01/31 14:45:29.5	0.630	-0.190	-0.310	-0.520
2020/01/31 14:45:29.6	0.670	-0.140	-0.360	-0.540
2020/01/31 14:45:29.7	0.700	-0.090	-0.410	-0.560
2020/01/31 14:45:29.8	0.740	-0.040	-0.460	-0.570
2020/01/31 14:45:29.9	0.780	0.010	-0.510	-0.590
2020/01/31 14:45:30.0	0.830	0.070	-0.560	-0.610
2020/01/31 14:45:30.1	0.870	0.120	-0.600	-0.620
2020/01/31 14:45:30.2	0.920	0.170	-0.640	-0.640
2020/01/31 14:45:30.3	0.970	0.230	-0.680	-0.650
2020/01/31 14:45:30.4	1.010	0.280	-0.720	-0.670
2020/01/31 14:45:30.5	1.060	0.330	-0.750	-0.680
2020/01/31 14:45:30.6	1.100	0.380	-0.780	-0.690
2020/01/31 14:45:30.7	1.160	0.420	-0.790	-0.700
2020/01/31 14:45:30.8	1.200	0.460	-0.810	-0.710
2020/01/31 14:45:30.9	1.240	0.500	-0.820	-0.720
2020/01/31 14:45:31.0	1.280	0.530	-0.820	-0.730
2020/01/31 14:45:31.1	1.320	0.560	-0.810	-0.730
2020/01/31 14:45:31.2	1.350	0.580	-0.800	-0.720
2020/01/31 14:45:31.3	1.380	0.590	-0.780	-0.720
2020/01/31 14:45:31.4	1.400	0.600	-0.750	-0.710
2020/01/31 14:45:31.5	1.420	0.610	-0.720	-0.700
2020/01/31 14:45:31.6	1.430	0.610	-0.680	-0.680
2020/01/31 14:45:31.7	1.450	0.600	-0.630	-0.660
2020/01/31 14:45:31.8	1.450	0.590	-0.580	-0.640
2020/01/31 14:45:31.9	1.460	0.570	-0.520	-0.620
2020/01/31 14:45:32.0	1.460	0.540	-0.460	-0.600
2020/01/31 14:45:32.1	1.460	0.510	-0.390	-0.570
2020/01/31 14:45:32.2	1.450	0.480	-0.320	-0.550
2020/01/31 14:45:32.3	1.440	0.440	-0.240	-0.520
2020/01/31 14:45:32.4	1.430	0.400	-0.160	-0.490
2020/01/31 14:45:32.5	1.410	0.350	-0.080	-0.460
2020/01/31 14:45:32.6	1.390	0.300	0.000	-0.430
2020/01/31 14:45:32.7	1.370	0.250	0.090	-0.410
2020/01/31 14:45:32.8	1.350	0.200	0.170	-0.380
2020/01/31 14:45:32.9	1.320	0.140	0.250	-0.350
2020/01/31 14:45:33.0	1.300	0.080	0.330	-0.330
2020/01/31 14:45:33.1	1.280	0.030	0.400	-0.310
2020/01/31 14:45:33.2	1.250	-0.030	0.470	-0.280
2020/01/31 14:45:33.3	1.220	-0.090	0.540	-0.270
2020/01/31 14:45:33.4	1.200	-0.140	0.600	-0.250
2020/01/31 14:45:33.5	1.170	-0.200	0.650	-0.240
2020/01/31 14:45:33.6	1.150	-0.250	0.700	-0.220
2020/01/31 14:45:33.7	1.120	-0.300	0.740	-0.220
2020/01/31 14:45:33.8	1.100	-0.350	0.780	-0.210
2020/01/31 14:45:33.9	1.070	-0.390	0.800	-0.210
2020/01/31 14:45:34.0	1.040	-0.430	0.820	-0.210
2020/01/31 14:45:34.1	1.010	-0.470	0.830	-0.210
2020/01/31 14:45:34.2	0.980	-0.500	0.830	-0.210
2020/01/31 14:45:34.3	0.940	-0.530	0.830	-0.220
2020/01/31 14:45:34.4	0.910	-0.560	0.820	-0.230
2020/01/31 14:45:34.5	0.870	-0.580	0.810	-0.240
2020/01/31 14:45:34.6	0.830	-0.600	0.790	-0.250
2020/01/31 14:45:34.7	0.800	-0.620	0.760	-0.260
2020/01/31 14:45:34.8	0.760	-0.630	0.730	-0.270
2020/01/31 14:45:34.9	0.720	-0.640	0.690	-0.280
2020/01/31 14:45:35.0	0.670	-0.640	0.650	-0.290
2020/01/31 14:45:35.1	0.620	-0.640	0.610	-0.300
2020/01/31 14:45:35.2	0.580	-0.640	0.560	-0.310
2020/01/31 14:45:35.3	0.530	-0.630	0.510	-0.320
2020/01/31 14:45:35.4	0.470	-0.620	0.450	-0.330
2020/01/31 14:45:35.5	0.420	-0.610	0.390	-0.330
2020/01/31 14:45:35.6	0.370	-0.590	0.330	-0.340
2020/01/31 14:45:35.7	0.320	-0.570	0.270	-0.340
2020/01/31 14:45:35.8	0.270	-0.540	0.210	-0.340
2020/01/31 14:45:35.9	0.230	-0.510	0.140	-0.340
2020/01/31 14:45:36.0	0.180	-0.480	0.080	-0.340
2020/01/31 14:45:36.1	0.140	-0.450	0.010	-0.330
2020/01/31 14:45:36.2	0.090	-0.410	-0.060	-0.330
2020/01/31 14:45:36.3	0.060	-0.370	-0.130	-0.320
2020/01/31 14:45:36.4	0.020	-0.330	-0.190	-0.320
2020/01/31 14:45:36.5	359.990	-0.290	-0.260	-0.310
2020/01/31 14:45:36.6	359.960	-0.240	-0.330	-0.300
2020/01/31 14:45:36.7	359.920	-0.190	-0.400	-0.300
2020/01/31 14:45:36.8	359.900	-0.140	-0.470	-0.280
2020/01/31 14:45:36.9	359.880	-0.090	-0.540	-0.270
2020/01/31 14:45:37.0	359.860	-0.040	-0.600	-0.260
2020/01/31 14:45:37.1	359.850	0.020	-0.670	-0.250
2020/01/31 14:45:37.2	359.840	0.070	-0.730	-0.240
2020/01/31 14:45:37.3	359.840	0.130	-0.790	-0.220
2020/01/31 14:45:37.4	359.830	0.180	-0.850	-0.210
2020/01/31 14:45:37.5	359.830	0.230	-0.910	-0.200
2020/01/31 14:45:37.6	359.840	0.290	-0.960	-0.190
2020/01/31 14:45:37.7	359.840	0.340	-1.020	-0.190
2020/01/31 14:45:37.8	359.850	0.380	-1.070	-0.180
2020/01/31 14:45:37.9	359.870	0.430	-1.120	-0.180
2020/01/31 14:45:38.0	359.880	0.470	-1.160	-0.180
2020/01/31 14:45:38.1	359.910	0.520	-1.210	-0.180
2020/01/31 14:45:38.2	359.930	0.550	-1.250	-0.190
2020/01/31 14:45:38.3	359.960	0.590	-1.290	-0.200
2020/01/31 14:45:38.4	359.990	0.620	-1.330	-0.210
2020/01/31 14:45:38.5	0.030	0.650	-1.360	-0.220
2020/01/31 14:45:38.6	0.070	0.670	-1.400	-0.240
2020/01/31 14:45:38.7	0.110	0.690	-1.420	-0.270
2020/01/31 14:45:38.8	0.160	0.700	-1.450	-0.290
2020/01/31 14:45:38.9	0.220	0.720	-1.480	-0.320
2020/01/31 14:45:39.0	0.270	0.720	-1.500	-0.360
2020/01/31 14:45:39.1	0.330	0.720	-1.510	-0.390
2020/01/31 14:45:39.2	0.400	0.720	-1.530	-0.430
2020/01/31 14:45:39.3	0.470	0.710	-1.530	-0.460
2020/01/31 14:45:39.4	0.540	0.700	-1.540	-0.500
2020/01/31 14:45:39.5	0.610	0.680	-1.540	-0.550
2020/01/31 14:45:39.6	0.680	0.660	-1.530	-0.590
2020/01/31 14:45:39.7	0.760	0.630	-1.520	-0.630
2020/01/31 14:45:39.8	0.840	0.600	-1.500	-0.670
2020/01/31 14:45:39.9	0.910	0.570	-1.480	-0.710
2020/01/31 14:45:40.0	0.990	0.530	-1.450	-0.750
2020/01/31 14:45:40.1	1.060	0.490	-1.410	-0.790
2020/01/31 14:45:40.2	1.130	0.440	-1.360	-0.830
2020/01/31 14:45:40.3	1.200	0.390	-1.310	-0.860
2020/01/31 14:45:40.4	1.260	0.340	-1.250	-0.890
2020/01/31 14:45:40.5	1.320	0.280	-1.180	-0.920
2020/01/31 14:45:40.6	1.370	0.220	-1.110	-0.940
2020/01/31 14:45:40.7	1.430	0.160	-1.020	-0.960
2020/01/31 14:45:40.8	1.470	0.100	-0.940	-0.970
2020/01/31 14:45:40.9	1.510	0.040	-0.840	-0.980
2020/01/31 14:45:41.0	1.540	-0.030	-0.740	-0.980
2020/01/31 14:45:41.1	1.560	-0.090	-0.640	-0.980
2020/01/31 14:45:41.2	1.580	-0.150	-0.530	-0.970
2020/01/31 14:45:41.3	1.590	-0.220	-0.420	-0.960
2020/01/31 14:45:41.4	1.600	-0.280	-0.310	-0.950
2020/01/31 14:45:41.5	1.600	-0.340	-0.200	-0.930
2020/01/31 14:45:41.6	1.600	-0.400	-0.080	-0.900
2020/01/31 14:45:41.7	1.600	-0.460	0.030	-0.880
2020/01/31 14:45:41.8	1.590	-0.520	0.140	-0.850
2020/01/31 14:45:41.9	1.580	-0.570	0.250	-0.820
2020/01/31 14:45:42.0	1.560	-0.620	0.360	-0.790
2020/01/31 14:45:42.1	1.550	-0.660	0.460	-0.760
2020/01/31 14:45:42.2	1.530	-0.700	0.550	-0.730
2020/01/31 14:45:42.3	1.510	-0.740	0.640	-0.690
2020/01/31 14:45:42.4	1.490	-0.770	0.730	-0.660
2020/01/31 14:45:42.5	1.470	-0.800	0.800	-0.620
2020/01/31 14:45:42.6	1.450	-0.820	0.870	-0.590
2020/01/31 14:45:42.7	1.420	-0.830	0.930	-0.560
2020/01/31 14:45:42.8	1.400	-0.840	0.980	-0.520
2020/01/31 14:45:42.9	1.370	-0.850	1.030	-0.490
2020/01/31 14:45:43.0	1.340	-0.840	1.060	-0.450
2020/01/31 14:45:43.1	1.320	-0.830	1.090	-0.420
2020/01/31 14:45:43.2	1.290	-0.820	1.110	-0.380
2020/01/31 14:45:43.3	1.260	-0.800	1.120	-0.350
2020/01/31 14:45:43.4	1.230	-0.770	1.120	-0.310
2020/01/31 14:45:43.5	1.200	-0.740	1.120	-0.270
2020/01/31 14:45:43.6	1.170	-0.710	1.110	-0.230
2020/01/31 14:45:43.7	1.150	-0.660	1.100	-0.190
2020/01/31 14:45:43.8	1.120	-0.620	1.070	-0.150
2020/01/31 14:45:43.9	1.090	-0.570	1.050	-0.110
2020/01/31 14:45:44.0	1.060	-0.510	1.020	-0.070
2020/01/31 14:45:44.1	1.020	-0.460	0.980	-0.030
2020/01/31 14:45:44.2	0.990	-0.400	0.940	0.010
2020/01/31 14:45:44.3	0.960	-0.330	0.900	0.060
2020/01/31 14:45:44.4	0.930	-0.270	0.860	0.100
2020/01/31 14:45:44.5	0.890	-0.200	0.810	0.140
2020/01/31 14:45:44.6	0.860	-0.140	0.770	0.180
2020/01/31 14:45:44.7	0.820	-0.070	0.720	0.230
2020/01/31 14:45:44.8	0.780	-0.000	0.670	0.270
2020/01/31 14:45:44.9	0.740	0.060	0.630	0.310
2020/01/31 14:45:45.0	0.710	0.120	0.590	0.350
2020/01/31 14:45:45.1	0.670	0.190	0.550	0.380
2020/01/31 14:45:45.2	0.630	0.240	0.510	0.420
2020/01/31 14:45:45.3	0.590	0.300	0.470	0.450
2020/01/31 14:45:45.4	0.550	0.350	0.430	0.490
2020/01/31 14:45:45.5	0.510	0.400	0.400	0.520
2020/01/31 14:45:45.6	0.470	0.450	0.370	0.550
2020/01/31 14:45:45.7	0.430	0.490	0.340	0.580
2020/01/31 14:45:45.8	0.390	0.520	0.310	0.610
2020/01/31 14:45:45.9	0.350	0.560	0.280	0.640
2020/01/31 14:45:46.0	0.310	0.580	0.250	0.660
2020/01/31 14:45:46.1	0.270	0.610	0.220	0.690
2020/01/31 14:45:46.2	0.230	0.630	0.190	0.710
2020/01/31 14:45:46.3	0.200	0.640	0.160	0.730
2020/01/31 14:45:46.4	0.160	0.650	0.130	0.750
2020/01/31 14:45:46.5	0.120	0.660	0.100	0.760
2020/01/31 14:45:46.6	0.090	0.660	0.060	0.780
2020/01/31 14:45:46.7	0.050	0.660	0.020	0.780
2020/01/31 14:45:46.8	0.030	0.650	-0.030	0.780
2020/01/31 14:45:46.9	0.000	0.640	-0.080	0.780
2020/01/31 14:45:47.0	359.980	0.630	-0.130	0.770
2020/01/31 14:45:47.1	359.970	0.620	-0.190	0.760
2020/01/31 14:45:47.2	359.960	0.600	-0.260	0.740
2020/01/31 14:45:47.3	359.950	0.580	-0.330	0.710
2020/01/31 14:45:47.4	359.950	0.560	-0.400	0.670
2020/01/31 14:45:47.5	359.960	0.540	-0.480	0.630
2020/01/31 14:45:47.6	359.970	0.510	-0.560	0.580
2020/01/31 14:45:47.7	359.960	0.490	-0.640	0.510
2020/01/31 14:45:47.8	359.980	0.470	-0.730	0.450
2020/01/31 14:45:47.9	0.010	0.440	-0.820	0.370
2020/01/31 14:45:48.0	0.040	0.420	-0.910	0.290
2020/01/31 14:45:48.1	0.070	0.390	-1.000	0.210
2020/01/31 14:45:48.2	0.110	0.360	-1.090	0.120
2020/01/31 14:45:48.3	0.150	0.340	-1.180	0.020
2020/01/31 14:45:48.4	0.190	0.310	-1.270	-0.070
2020/01/31 14:45:48.5	0.230	0.290	-1.350	-0.170
2020/01/31 14:45:48.6	0.280	0.260	-1.430	-0.270
2020/01/31 14:45:48.7	0.340	0.240	-1.500	-0.380
2020/01/31 14:45:48.8	0.380	0.210	-1.570	-0.480
2020/01/31 14:45:48.9	0.430	0.190	-1.630	-0.570
2020/01/31 14:45:49.0	0.480	0.170	-1.680	-0.670
2020/01/31 14:45:49.1	0.530	0.140	-1.720	-0.770
2020/01/31 14:45:49.2	0.570	0.120	-1.750	-0.860
2020/01/31 14:45:49.3	0.620	0.100	-1.780	-0.950
2020/01/31 14:45:49.4	0.670	0.080	-1.790	-1.030
2020/01/31 14:45:49.5	0.720	0.050	-1.800	-1.110
2020/01/31 14:45:49.6	0.770	0.030	-1.790	-1.190
2020/01/31 14:45:49.7	0.820	0.010	-1.780	-1.260
2020/01/31 14:45:49.8	0.870	-0.010	-1.750	-1.330
2020/01/31 14:45:49.9	0.920	-0.030	-1.710	-1.390
2020/01/31 14:45:50.0	0.970	-0.050	-1.670	-1.450
2020/01/31 14:45:50.1	1.030	-0.070	-1.620	-1.500
2020/01/31 14:45:50.2	1.080	-0.090	-1.560	-1.540
2020/01/31 14:45:50.3	1.130	-0.110	-1.490	-1.580
2020/01/31 14:45:50.4	1.180	-0.130	-1.410	-1.620
2020/01/31 14:45:50.5	1.230	-0.150	-1.330	-1.640
2020/01/31 14:45:50.6	1.290	-0.170	-1.250	-1.670
2020/01/31 14:45:50.7	1.330	-0.190	-1.150	-1.690
2020/01/31 14:45:50.8	1.380	-0.210	-1.050	-1.700
2020/01/31 14:45:50.9	1.430	-0.220	-0.950	-1.700
2020/01/31 14:45:51.0	1.480	-0.240	-0.850	-1.700
2020/01/31 14:45:51.1	1.520	-0.260	-0.740	-1.690
2020/01/31 14:45:51.2	1.570	-0.270	-0.630	-1.680
2020/01/31 14:45:51.3	1.610	-0.290	-0.530	-1.660
2020/01/31 14:45:51.4	1.650	-0.310	-0.420	-1.640
2020/01/31 14:45:51.5	1.690	-0.320	-0.310	-1.620
2020/01/31 14:45:51.6	1.720	-0.330	-0.210	-1.590
2020/01/31 14:45:51.7	1.750	-0.340	-0.100	-1.550
2020/01/31 14:45:51.8	1.780	-0.350	0.000	-1.520
2020/01/31 14:45:51.9	1.810	-0.360	0.100	-1.480
2020/01/31 14:45:52.0	1.830	-0.370	0.190	-1.430
2020/01/31 14:45:52.1	1.850	-0.380	0.280	-1.380
2020/01/31 14:45:52.2	1.870	-0.380	0.370	-1.320
2020/01/31 14:45:52.3	1.880	-0.390	0.450	-1.270
2020/01/31 14:45:52.4	1.890	-0.390	0.520	-1.200
2020/01/31 14:45:52.5	1.890	-0.390	0.590	-1.140
2020/01/31 14:45:52.6	1.890	-0.390	0.650	-1.070
2020/01/31 14:45:52.7	1.900	-0.380	0.710	-1.000
2020/01/31 14:45:52.8	1.890	-0.380	0.750	-0.920
2020/01/31 14:45:52.9	1.880	-0.370	0.790	-0.840
2020/01/31 14:45:53.0	1.870	-0.360	0.830	-0.760
2020/01/31 14:45:53.1	1.860	-0.350	0.850	-0.680
2020/01/31 14:45:53.2	1.850	-0.340	0.870	-0.600
2020/01/31 14:45:53.3	1.830	-0.330	0.880	-0.520
2020/01/31 14:45:53.4	1.810	-0.310	0.880	-0.440
2020/01/31 14:45:53.5	1.790	-0.300	0.870	-0.360
2020/01/31 14:45:53.6	1.770	-0.280	0.860	-0.290
2020/01/31 14:45:53.7	1.760	-0.260	0.840	-0.210
2020/01/31 14:45:53.8	1.740	-0.240	0.810	-0.140
2020/01/31 14:45:53.9	1.720	-0.220	0.770	-0.070
2020/01/31 14:45:54.0	1.700	-0.200	0.730	-0.010
2020/01/31 14:45:54.1	1.690	-0.180	0.670	0.050
2020/01/31 14:45:54.2	1.670	-0.150	0.620	0.110
2020/01/31 14:45:54.3	1.650	-0.130	0.550	0.160
2020/01/31 14:45:54.4	1.640	-0.110	0.490	0.200
2020/01/31 14:45:54.5	1.620	-0.080	0.420	0.240
2020/01/31 14:45:54.6	1.600	-0.060	0.340	0.280
2020/01/31 14:45:54.7	1.580	-0.040	0.260	0.310
2020/01/31 14:45:54.8	1.570	-0.010	0.180	0.340
2020/01/31 14:45:54.9	1.550	0.010	0.110	0.360
2020/01/31 14:45:55.0	1.530	0.030	0.030	0.380
2020/01/31 14:45:55.1	1.510	0.050	-0.050	0.390
2020/01/31 14:45:55.2	1.490	0.070	-0.120	0.410
2020/01/31 14:45:55.3	1.470	0.090	-0.190	0.420
2020/01/31 14:45:55.4	1.440	0.100	-0.260	0.420
2020/01/31 14:45:55.5	1.420	0.120	-0.320	0.430
2020/01/31 14:45:55.6	1.390	0.130	-0.380	0.430
2020/01/31 14:45:55.7	1.360	0.140	-0.420	0.440
2020/01/31 14:45:55.8	1.330	0.160	-0.470	0.440
2020/01/31 14:45:55.9	1.300	0.170	-0.510	0.440
2020/01/31 14:45:56.0	1.270	0.170	-0.540	0.440
2020/01/31 14:45:56.1	1.240	0.180	-0.570	0.440
2020/01/31 14:45:56.2	1.200	0.190	-0.600	0.430
2020/01/31 14:45:56.3	1.170	0.190	-0.610	0.430
2020/01/31 14:45:56.4	1.140	0.190	-0.630	0.420
2020/01/31 14:45:56.5	1.110	0.190	-0.640	0.410
2020/01/31 14:45:56.6	1.080	0.200	-0.640	0.390
2020/01/31 14:45:56.7	1.050	0.200	-0.650	0.370
2020/01/31 14:45:56.8	1.020	0.200	-0.650	0.350
2020/01/31 14:45:56.9	1.000	0.200	-0.650	0.330
2020/01/31 14:45:57.0	0.980	0.200	-0.640	0.300
2020/01/31 14:45:57.1	0.960	0.200	-0.640	0.270
2020/01/31 14:45:57.2	0.950	0.200	-0.630	0.230
2020/01/31 14:45:57.3	0.940	0.200	-0.630	0.200
2020/01/31 14:45:57.4	0.940	0.210	-0.620	0.150
2020/01/31 14:45:57.5	0.930	0.210	-0.620	0.110
2020/01/31 14:45:57.6	0.940	0.220	-0.620	0.060
2020/01/31 14:45:57.7	0.940	0.230	-0.610	0.010
2020/01/31 14:45:57.8	0.950	0.240	-0.610	-0.040
2020/01/31 14:45:57.9	0.960	0.260	-0.600	-0.090
2020/01/31 14:45:58.0	0.980	0.270	-0.600	-0.140
2020/01/31 14:45:58.1	1.000	0.290	-0.600	-0.190
2020/01/31 14:45:58.2	1.020	0.310	-0.600	-0.240
2020/01/31 14:45:58.3	1.030	0.320	-0.590	-0.280
2020/01/31 14:45:58.4	1.050	0.340	-0.590	-0.320
2020/01/31 14:45:58.5	1.070	0.360	-0.580	-0.350
2020/01/31 14:45:58.6	1.090	0.380	-0.570	-0.380
2020/01/31 14:45:58.7	1.090	0.400	-0.560	-0.410
2020/01/31 14:45:58.8	1.110	0.420	-0.550	-0.440
2020/01/31 14:45:58.9	1.120	0.440	-0.530	-0.460
2020/01/31 14:45:59.0	1.130	0.450	-0.510	-0.480
2020/01/31 14:45:59.1	1.140	0.460	-0.480	-0.490
2020/01/31 14:45:59.2	1.150	0.480	-0.450	-0.500
2020/01/31 14:45:59.3	1.150	0.480	-0.420	-0.510
2020/01/31 14:45:59.4	1.150	0.490	-0.390	-0.520
2020/01/31 14:45:59.5	1.150	0.490	-0.350	-0.520
2020/01/31 14:45:59.6	1.150	0.490	-0.310	-0.520
2020/01/31 14:45:59.7	1.150	0.490	-0.270	-0.520
2020/01/31 14:45:59.8	1.140	0.480	-0.220	-0.520
2020/01/31 14:45:59.9	1.140	0.470	-0.180	-0.510
2020/01/31 14:46:00.0	1.130	0.450	-0.130	-0.510
2020/01/31 14:46:00.1	1.120	0.430	-0.080	-0.500
2020/01/31 14:46:00.2	1.110	0.400	-0.030	-0.490
2020/01/31 14:46:00.3	1.100	0.380	0.020	-0.480
2020/01/31 14:46:00.4	1.090	0.340	0.070	-0.470
2020/01/31 14:46:00.5	1.080	0.310	0.120	-0.460
2020/01/31 14:46:00.6	1.070	0.270	0.170	-0.450
2020/01/31 14:46:00.7	1.070	0.230	0.210	-0.430
2020/01/31 14:46:00.8	1.060	0.180	0.250	-0.420
2020/01/31 14:46:00.9	1.050	0.140	0.290	-0.410
2020/01/31 14:46:01.0	1.040	0.090	0.330	-0.400
2020/01/31 14:46:01.1	1.040	0.040	0.370	-0.380
2020/01/31 14:46:01.2	1.030	-0.010	0.400	-0.370
2020/01/31 14:46:01.3	1.030	-0.070	0.430	-0.360
2020/01/31 14:46:01.4	1.020	-0.120	0.450	-0.360
2020/01/31 14:46:01.5	1.020	-0.170	0.470	-0.350
2020/01/31 14:46:01.6	1.020	-0.230	0.480	-0.340
2020/01/31 14:46:01.7	1.020	-0.280	0.490	-0.330
2020/01/31 14:46:01.8	1.020	-0.330	0.500	-0.330
2020/01/31 14:46:01.9	1.020	-0.380	0.490	-0.320
2020/01/31 14:46:02.0	1.030	-0.430	0.490	-0.320
2020/01/31 14:46:02.1	1.030	-0.470	0.480	-0.310
2020/01/31 14:46:02.2	1.030	-0.510	0.460	-0.310
2020/01/31 14:46:02.3	1.030	-0.550	0.430	-0.310
2020/01/31 14:46:02.4	1.030	-0.580	0.410	-0.300
2020/01/31 14:46:02.5	1.040	-0.610	0.370	-0.300
2020/01/31 14:46:02.6	1.040	-0.640	0.340	-0.300
2020/01/31 14:46:02.7	1.040	-0.660	0.300	-0.290
2020/01/31 14:46:02.8	1.040	-0.680	0.250	-0.290
2020/01/31 14:46:02.9	1.050	-0.690	0.200	-0.290
2020/01/31 14:46:03.0	1.050	-0.690	0.150	-0.290
2020/01/31 14:46:03.1	1.050	-0.690	0.090	-0.280
2020/01/31 14:46:03.2	1.050	-0.690	0.030	-0.280
2020/01/31 14:46:03.3	1.060	-0.680	-0.030	-0.280
2020/01/31 14:46:03.4	1.060	-0.670	-0.100	-0.280
2020/01/31 14:46:03.5	1.060	-0.650	-0.170	-0.280
2020/01/31 14:46:03.6	1.070	-0.630	-0.230	-0.280
2020/01/31 14:46:03.7	1.060	-0.600	-0.300	-0.280
2020/01/31 14:46:03.8	1.070	-0.560	-0.370	-0.270
2020/01/31 14:46:03.9	1.070	-0.530	-0.450	-0.270
2020/01/31 14:46:04.0	1.080	-0.490	-0.520	-0.270
2020/01/31 14:46:04.1	1.090	-0.450	-0.590	-0.260
2020/01/31 14:46:04.2	1.100	-0.400	-0.660	-0.260
2020/01/31 14:46:04.3	1.110	-0.350	-0.730	-0.260
2020/01/31 14:46:04.4	1.110	-0.300	-0.800	-0.250
2020/01/31 14:46:04.5	1.120	-0.250	-0.860	-0.250
2020/01/31 14:46:04.6	1.130	-0.200	-0.930	-0.240
2020/01/31 14:46:04.7	1.140	-0.150	-0.980	-0.240
2020/01/31 14:46:04.8	1.150	-0.100	-1.040	-0.240
2020/01/31 14:46:04.9	1.150	-0.050	-1.080	-0.230
2020/01/31 14:46:05.0	1.160	0.000	-1.120	-0.230
2020/01/31 14:46:05.1	1.170	0.050	-1.160	-0.230
2020/01/31 14:46:05.2	1.170	0.100	-1.190	-0.230
2020/01/31 14:46:05.3	1.180	0.140	-1.210	-0.230
2020/01/31 14:46:05.4	1.180	0.180	-1.230	-0.230
2020/01/31 14:46:05.5	1.190	0.220	-1.230	-0.230
2020/01/31 14:46:05.6	1.190	0.260	-1.230	-0.230
2020/01/31 14:46:05.7	1.190	0.290	-1.220	-0.240
2020/01/31 14:46:05.8	1.180	0.320	-1.210	-0.240
2020/01/31 14:46:05.9	1.180	0.340	-1.190	-0.240
2020/01/31 14:46:06.0	1.180	0.360	-1.160	-0.250
2020/01/31 14:46:06.1	1.170	0.380	-1.130	-0.250
2020/01/31 14:46:06.2	1.170	0.390	-1.090	-0.250
2020/01/31 14:46:06.3	1.160	0.400	-1.040	-0.260
2020/01/31 14:46:06.4	1.150	0.400	-0.990	-0.260
2020/01/31 14:46:06.5	1.140	0.400	-0.930	-0.260
2020/01/31 14:46:06.6	1.130	0.400	-0.870	-0.260
2020/01/31 14:46:06.7	1.110	0.390	-0.800	-0.270
2020/01/31 14:46:06.8	1.100	0.380	-0.740	-0.270
2020/01/31 14:46:06.9	1.090	0.360	-0.660	-0.270
2020/01/31 14:46:07.0	1.080	0.340	-0.590	-0.270
2020/01/31 14:46:07.1	1.070	0.320	-0.520	-0.280
2020/01/31 14:46:07.2	1.060	0.300	-0.450	-0.280
2020/01/31 14:46:07.3	1.050	0.270	-0.380	-0.280
2020/01/31 14:46:07.4	1.040	0.250	-0.310	-0.290
2020/01/31 14:46:07.5	1.030	0.220	-0.240	-0.290
2020/01/31 14:46:07.6	1.030	0.190	-0.180	-0.300
2020/01/31 14:46:07.7	1.020	0.160	-0.120	-0.310
2020/01/31 14:46:07.8	1.020	0.130	-0.060	-0.320
2020/01/31 14:46:07.9	1.020	0.100	-0.010	-0.320
2020/01/31 14:46:08.0	1.020	0.070	0.040	-0.330
2020/01/31 14:46:08.1	1.020	0.040	0.080	-0.350
2020/01/31 14:46:08.2	1.030	0.010	0.120	-0.360
2020/01/31 14:46:08.3	1.040	-0.010	0.150	-0.370
2020/01/31 14:46:08.4	1.050	-0.030	0.170	-0.390
2020/01/31 14:46:08.5	1.060	-0.050	0.190	-0.400
2020/01/31 14:46:08.6	1.070	-0.060	0.210	-0.420
2020/01/31 14:46:08.7	1.080	-0.080	0.210	-0.440
2020/01/31 14:46:08.8	1.090	-0.080	0.220	-0.460
2020/01/31 14:46:08.9	1.120	-0.090	0.220	-0.470
2020/01/31 14:46:09.0	1.140	-0.090	0.210	-0.490
2020/01/31 14:46:09.1	1.160	-0.090	0.200	-0.510
2020/01/31 14:46:09.2	1.180	-0.080	0.190	-0.530
2020/01/31 14:46:09.3	1.210	-0.070	0.180	-0.540
2020/01/31 14:46:09.4	1.240	-0.060	0.160	-0.560
2020/01/31 14:46:09.5	1.260	-0.040	0.150	-0.570
2020/01/31 14:46:09.6	1.280	-0.020	0.130	-0.580
2020/01/31 14:46:09.7	1.320	0.000	0.120	-0.590
2020/01/31 14:46:09.8	1.340	0.030	0.100	-0.590
2020/01/31 14:46:09.9	1.360	0.050	0.090	-0.590
2020/01/31 14:46:10.0	1.370	0.080	0.080	-0.590
2020/01/31 14:46:10.1	1.380	0.110	0.070	-0.580
2020/01/31 14:46:10.2	1.390	0.140	0.070	-0.560
2020/01/31 14:46:10.3	1.390	0.170	0.060	-0.540
2020/01/31 14:46:10.4	1.390	0.200	0.060	-0.510
2020/01/31 14:46:10.5	1.380	0.240	0.070	-0.480
2020/01/31 14:46:10.6	1.370	0.260	0.070	-0.450
2020/01/31 14:46:10.7	1.360	0.290	0.080	-0.410
2020/01/31 14:46:10.8	1.350	0.320	0.090	-0.370
2020/01/31 14:46:10.9	1.330	0.340	0.100	-0.320
2020/01/31 14:46:11.0	1.300	0.360	0.110	-0.270
2020/01/31 14:46:11.1	1.280	0.380	0.120	-0.230
2020/01/31 14:46:11.2	1.250	0.400	0.130	-0.180
2020/01/31 14:46:11.3	1.220	0.410	0.140	-0.130
2020/01/31 14:46:11.4	1.190	0.410	0.150	-0.090
2020/01/31 14:46:11.5	1.160	0.420	0.160	-0.050
2020/01/31 14:46:11.6	1.130	0.420	0.160	-0.010
2020/01/31 14:46:11.7	1.100	0.410	0.170	0.040
2020/01/31 14:46:11.8	1.060	0.400	0.160	0.070
2020/01/31 14:46:11.9	1.030	0.390	0.160	0.100
2020/01/31 14:46:12.0	1.000	0.370	0.150	0.120
2020/01/31 14:46:12.1	0.970	0.350	0.140	0.140
2020/01/31 14:46:12.2	0.950	0.320	0.130	0.160
2020/01/31 14:46:12.3	0.920	0.300	0.110	0.160
2020/01/31 14:46:12.4	0.900	0.260	0.090	0.170
2020/01/31 14:46:12.5	0.870	0.230	0.060	0.160
2020/01/31 14:46:12.6	0.850	0.190	0.030	0.150
2020/01/31 14:46:12.7	0.820	0.150	0.000	0.140
2020/01/31 14:46:12.8	0.800	0.100	-0.030	0.110
2020/01/31 14:46:12.9	0.780	0.060	-0.060	0.090
2020/01/31 14:46:13.0	0.760	0.010	-0.100	0.050
2020/01/31 14:46:13.1	0.740	-0.040	-0.140	0.020
2020/01/31 14:46:13.2	0.730	-0.090	-0.180	-0.030
2020/01/31 14:46:13.3	0.710	-0.140	-0.220	-0.080
2020/01/31 14:46:13.4	0.700	-0.190	-0.260	-0.130
2020/01/31 14:46:13.5	0.690	-0.240	-0.300	-0.190
2020/01/31 14:46:13.6	0.690	-0.290	-0.340	-0.250
2020/01/31 14:46:13.7	0.690	-0.340	-0.380	-0.310
2020/01/31 14:46:13.8	0.690	-0.380	-0.410	-0.380
2020/01/31 14:46:13.9	0.690	-0.430	-0.450	-0.450
2020/01/31 14:46:14.0	0.690	-0.470	-0.480	-0.520
2020/01/31 14:46:14.1	0.690	-0.510	-0.510	-0.590
2020/01/31 14:46:14.2	0.700	-0.540	-0.540	-0.660
2020/01/31 14:46:14.3	0.710	-0.570	-0.560	-0.730
2020/01/31 14:46:14.4	0.730	-0.600	-0.580	-0.790
2020/01/31 14:46:14.5	0.750	-0.620	-0.600	-0.860
2020/01/31 14:46:14.6	0.770	-0.640	-0.610	-0.920
2020/01/31 14:46:14.7	0.790	-0.650	-0.620	-0.990
2020/01/31 14:46:14.8	0.810	-0.660	-0.630	-1.050
2020/01/31 14:46:14.9	0.850	-0.660	-0.630	-1.110
2020/01/31 14:46:15.0	0.880	-0.660	-0.630	-1.170
2020/01/31 14:46:15.1	0.920	-0.650	-0.630	-1.220
2020/01/31 14:46:15.2	0.960	-0.630	-0.620	-1.270
2020/01/31 14:46:15.3	1.000	-0.620	-0.610	-1.320
2020/01/31 14:46:15.4	1.050	-0.590	-0.600	-1.370
2020/01/31 14:46:15.5	1.100	-0.570	-0.590	-1.410
2020/01/31 14:46:15.6	1.150	-0.530	-0.580	-1.460
2020/01/31 14:46:15.7	1.210	-0.500	-0.570	-1.500
2020/01/31 14:46:15.8	1.260	-0.460	-0.560	-1.530
2020/01/31 14:46:15.9	1.310	-0.420	-0.540	-1.560
2020/01/31 14:46:16.0	1.360	-0.370	-0.530	-1.580
2020/01/31 14:46:16.1	1.410	-0.330	-0.520	-1.600
2020/01/31 14:46:16.2	1.460	-0.280	-0.500	-1.610
2020/01/31 14:46:16.3	1.510	-0.230	-0.490	-1.610
2020/01/31 14:46:16.4	1.550	-0.180	-0.480	-1.610
2020/01/31 14:46:16.5	1.590	-0.130	-0.470	-1.600
2020/01/31 14:46:16.6	1.630	-0.080	-0.450	-1.590
2020/01/31 14:46:16.7	1.660	-0.020	-0.450	-1.570
2020/01/31 14:46:16.8	1.700	0.030	-0.430	-1.550
2020/01/31 14:46:16.9	1.730	0.070	-0.420	-1.510
2020/01/31 14:46:17.0	1.750	0.120	-0.420	-1.480
2020/01/31 14:46:17.1	1.780	0.170	-0.410	-1.440
2020/01/31 14:46:17.2	1.800	0.210	-0.400	-1.400
2020/01/31 14:46:17.3	1.810	0.250	-0.390	-1.350
2020/01/31 14:46:17.4	1.820	0.290	-0.380	-1.300
2020/01/31 14:46:17.5	1.830	0.320	-0.370	-1.240
2020/01/31 14:46:17.6	1.840	0.360	-0.360	-1.180
2020/01/31 14:46:17.7	1.850	0.380	-0.350	-1.120
2020/01/31 14:46:17.8	1.840	0.410	-0.340	-1.060
2020/01/31 14:46:17.9	1.840	0.430	-0.330	-0.990
2020/01/31 14:46:18.0	1.830	0.440	-0.320	-0.930
2020/01/31 14:46:18.1	1.820	0.460	-0.300	-0.860
2020/01/31 14:46:18.2	1.800	0.460	-0.290	-0.790
2020/01/31 14:46:18.3	1.780	0.470	-0.280	-0.720
2020/01/31 14:46:18.4	1.760	0.470	-0.270	-0.650
2020/01/31 14:46:18.5	1.730	0.460	-0.250	-0.580
2020/01/31 14:46:18.6	1.700	0.460	-0.240	-0.510
2020/01/31 14:46:18.7	1.680	0.450	-0.220	-0.450
2020/01/31 14:46:18.8	1.650	0.430	-0.210	-0.380
2020/01/31 14:46:18.9	1.610	0.420	-0.200	-0.310
2020/01/31 14:46:19.0	1.580	0.400	-0.190	-0.250
2020/01/31 14:46:19.1	1.540	0.370	-0.180	-0.190
2020/01/31 14:46:19.2	1.500	0.350	-0.170	-0.130
2020/01/31 14:46:19.3	1.470	0.320	-0.160	-0.070
2020/01/31 14:46:19.4	1.430	0.300	-0.150	-0.020
2020/01/31 14:46:19.5	1.390	0.270	-0.150	0.030
2020/01/31 14:46:19.6	1.360	0.240	-0.140	0.070
2020/01/31 14:46:19.7	1.330	0.200	-0.140	0.110
2020/01/31 14:46:19.8	1.290	0.170	-0.140	0.140
2020/01/31 14:46:19.9	1.260	0.140	-0.140	0.170
2020/01/31 14:46:20.0	1.230	0.110	-0.140	0.200
2020/01/31 14:46:20.1	1.200	0.080	-0.140	0.210
2020/01/31 14:46:20.2	1.180	0.050	-0.150	0.230
2020/01/31 14:46:20.3	1.150	0.020	-0.150	0.230
2020/01/31 14:46:20.4	1.130	-0.010	-0.160	0.230
2020/01/31 14:46:20.5	1.110	-0.040	-0.170	0.230
2020/01/31 14:46:20.6	1.100	-0.060	-0.180	0.210
2020/01/31 14:46:20.7	1.080	-0.090	-0.190	0.200
2020/01/31 14:46:20.8	1.070	-0.110	-0.200	0.180
2020/01/31 14:46:20.9	1.060	-0.130	-0.210	0.150
2020/01/31 14:46:21.0	1.050	-0.140	-0.220	0.130
2020/01/31 14:46:21.1	1.040	-0.160	-0.230	0.100
2020/01/31 14:46:21.2	1.040	-0.170	-0.230	0.060
2020/01/31 14:46:21.3	1.030	-0.190	-0.240	0.030
2020/01/31 14:46:21.4	1.030	-0.190	-0.250	-0.010
2020/01/31 14:46:21.5	1.040	-0.200	-0.250	-0.040
2020/01/31 14:46:21.6	1.040	-0.210	-0.250	-0.080
2020/01/31 14:46:21.7	1.030	-0.210	-0.250	-0.130
2020/01/31 14:46:21.8	1.040	-0.220	-0.250	-0.170
2020/01/31 14:46:21.9	1.050	-0.220	-0.250	-0.210
2020/01/31 14:46:22.0	1.050	-0.220	-0.240	-0.250
2020/01/31 14:46:22.1	1.060	-0.220	-0.230	-0.290
2020/01/31 14:46:22.2	1.080	-0.220	-0.230	-0.330
2020/01/31 14:46:22.3	1.090	-0.220	-0.220	-0.360
2020/01/31 14:46:22.4	1.100	-0.220	-0.210	-0.400
2020/01/31 14:46:22.5	1.110	-0.210	-0.190	-0.430
2020/01/31 14:46:22.6	1.130	-0.210	-0.180	-0.460
2020/01/31 14:46:22.7	1.130	-0.210	-0.170	-0.490
2020/01/31 14:46:22.8	1.140	-0.210	-0.150	-0.520
2020/01/31 14:46:22.9	1.160	-0.200	-0.140	-0.550
2020/01/31 14:46:23.0	1.170	-0.200	-0.130	-0.570
2020/01/31 14:46:23.1	1.180	-0.200	-0.110	-0.590
2020/01/31 14:46:23.2	1.200	-0.200	-0.100	-0.610
2020/01/31 14:46:23.3	1.210	-0.200	-0.090	-0.630
2020/01/31 14:46:23.4	1.230	-0.190	-0.080	-0.650
2020/01/31 14:46:23.5	1.240	-0.190	-0.070	-0.670
2020/01/31 14:46:23.6	1.260	-0.190	-0.070	-0.680
2020/01/31 14:46:23.7	1.270	-0.190	-0.060	-0.690
2020/01/31 14:46:23.8	1.290	-0.190	-0.060	-0.700
2020/01/31 14:46:23.9	1.300	-0.180	-0.060	-0.700
2020/01/31 14:46:24.0	1.320	-0.180	-0.070	-0.710
2020/01/31 14:46:24.1	1.330	-0.180	-0.070	-0.710
2020/01/31 14:46:24.2	1.350	-0.170	-0.080	-0.710
2020/01/31 14:46:24.3	1.360	-0.160	-0.090	-0.710
2020/01/31 14:46:24.4	1.380	-0.160	-0.110	-0.700
2020/01/31 14:46:24.5	1.400	-0.150	-0.120	-0.690
2020/01/31 14:46:24.6	1.410	-0.140	-0.140	-0.690
2020/01/31 14:46:24.7	1.420	-0.120	-0.160	-0.680
2020/01/31 14:46:24.8	1.440	-0.110	-0.180	-0.670
2020/01/31 14:46:24.9	1.450	-0.100	-0.200	-0.650
2020/01/31 14:46:25.0	1.470	-0.080	-0.220	-0.640
2020/01/31 14:46:25.1	1.480	-0.060	-0.250	-0.620
2020/01/31 14:46:25.2	1.500	-0.040	-0.270	-0.610
2020/01/31 14:46:25.3	1.510	-0.020	-0.300	-0.590
2020/01/31 14:46:25.4	1.520	0.010	-0.320	-0.570
2020/01/31 14:46:25.5	1.530	0.030	-0.350	-0.550
2020/01/31 14:46:25.6	1.540	0.060	-0.370	-0.530
2020/01/31 14:46:25.7	1.560	0.080	-0.390	-0.500
2020/01/31 14:46:25.8	1.560	0.110	-0.410	-0.480
2020/01/31 14:46:25.9	1.570	0.140	-0.430	-0.460
2020/01/31 14:46:26.0	1.580	0.170	-0.450	-0.430
2020/01/31 14:46:26.1	1.590	0.200	-0.470	-0.400
2020/01/31 14:46:26.2	1.590	0.230	-0.490	-0.380
2020/01/31 14:46:26.3	1.590	0.250	-0.500	-0.350
2020/01/31 14:46:26.4	1.600	0.280	-0.510	-0.320
2020/01/31 14:46:26.5	1.600	0.310	-0.520	-0.300
2020/01/31 14:46:26.6	1.600	0.340	-0.530	-0.270
2020/01/31 14:46:26.7	1.600	0.360	-0.530	-0.250
2020/01/31 14:46:26.8	1.600	0.380	-0.540	-0.220
2020/01/31 14:46:26.9	1.600	0.400	-0.540	-0.200
2020/01/31 14:46:27.0	1.600	0.420	-0.540	-0.170
2020/01/31 14:46:27.1	1.600	0.440	-0.530	-0.150
2020/01/31 14:46:27.2	1.600	0.450	-0.520	-0.120
2020/01/31 14:46:27.3	1.590	0.460	-0.510	-0.100
2020/01/31 14:46:27.4	1.590	0.470	-0.490	-0.080
2020/01/31 14:46:27.5	1.580	0.470	-0.480	-0.060
2020/01/31 14:46:27.6	1.580	0.470	-0.450	-0.030
2020/01/31 14:46:27.7	1.550	0.470	-0.430	-0.020
2020/01/31 14:46:27.8	1.540	0.470	-0.400	0.010
2020/01/31 14:46:27.9	1.530	0.460	-0.370	0.030
2020/01/31 14:46:28.0	1.520	0.450	-0.330	0.050
2020/01/31 14:46:28.1	1.510	0.430	-0.300	0.070
2020/01/31 14:46:28.2	1.490	0.410	-0.250	0.090
2020/01/31 14:46:28.3	1.480	0.390	-0.210	0.110
2020/01/31 14:46:28.4	1.460	0.370	-0.170	0.130
2020/01/31 14:46:28.5	1.440	0.340	-0.120	0.150
2020/01/31 14:46:28.6	1.420	0.310	-0.070	0.170
2020/01/31 14:46:28.7	1.400	0.280	-0.020	0.190
2020/01/31 14:46:28.8	1.370	0.250	0.040	0.210
2020/01/31 14:46:28.9	1.350	0.210	0.090	0.220
2020/01/31 14:46:29.0	1.320	0.180	0.140	0.240
2020/01/31 14:46:29.1	1.290	0.140	0.190	0.250
2020/01/31 14:46:29.2	1.260	0.100	0.240	0.260
2020/01/31 14:46:29.3	1.240	0.060	0.290	0.270
2020/01/31 14:46:29.4	1.210	0.020	0.340	0.280
2020/01/31 14:46:29.5	1.180	-0.020	0.380	0.280
2020/01/31 14:46:29.6	1.150	-0.060	0.420	0.280
2020/01/31 14:46:29.7	1.130	-0.100	0.450	0.280
2020/01/31 14:46:29.8	1.100	-0.140	0.480	0.270
2020/01/31 14:46:29.9	1.080	-0.180	0.510	0.260
2020/01/31 14:46:30.0	1.060	-0.220	0.530	0.240
2020/01/31 14:46:30.1	1.040	-0.260	0.540	0.230
2020/01/31 14:46:30.2	1.020	-0.290	0.540	0.200
2020/01/31 14:46:30.3	1.010	-0.320	0.540	0.180
2020/01/31 14:46:30.4	0.990	-0.350	0.530	0.150
2020/01/31 14:46:30.5	0.980	-0.380	0.510	0.110
2020/01/31 14:46:30.6	0.980	-0.400	0.490	0.070
2020/01/31 14:46:30.7	0.980	-0.430	0.450	0.030
2020/01/31 14:46:30.8	0.980	-0.450	0.410	-0.010
2020/01/31 14:46:30.9	0.980	-0.460	0.360	-0.060
2020/01/31 14:46:31.0	0.980	-0.480	0.310	-0.110
2020/01/31 14:46:31.1	0.990	-0.490	0.240	-0.170
2020/01/31 14:46:31.2	1.000	-0.500	0.180	-0.220
2020/01/31 14:46:31.3	1.010	-0.500	0.100	-0.280
2020/01/31 14:46:31.4	1.020	-0.500	0.020	-0.340
2020/01/31 14:46:31.5	1.040	-0.500	-0.060	-0.400
2020/01/31 14:46:31.6	1.060	-0.500	-0.150	-0.470
2020/01/31 14:46:31.7	1.100	-0.490	-0.240	-0.530
2020/01/31 14:46:31.8	1.120	-0.480	-0.330	-0.590
2020/01/31 14:46:31.9	1.150	-0.470	-0.420	-0.660
2020/01/31 14:46:32.0	1.170	-0.460	-0.510	-0.720
2020/01/31 14:46:32.1	1.200	-0.440	-0.610	-0.790
2020/01/31 14:46:32.2	1.230	-0.420	-0.700	-0.850
2020/01/31 14:46:32.3	1.270	-0.400	-0.790	-0.920
2020/01/31 14:46:32.4	1.300	-0.380	-0.870	-0.980
2020/01/31 14:46:32.5	1.340	-0.360	-0.950	-1.040
2020/01/31 14:46:32.6	1.370	-0.330	-1.030	-1.100
2020/01/31 14:46:32.7	1.410	-0.310	-1.100	-1.150
2020/01/31 14:46:32.8	1.450	-0.280	-1.170	-1.210
2020/01/31 14:46:32.9	1.490	-0.260	-1.230	-1.250
2020/01/31 14:46:33.0	1.520	-0.230	-1.280	-1.300
2020/01/31 14:46:33.1	1.560	-0.200	-1.320	-1.340
2020/01/31 14:46:33.2	1.600	-0.180	-1.360	-1.370
2020/01/31 14:46:33.3	1.630	-0.150	-1.380	-1.400
2020/01/31 14:46:33.4	1.670	-0.120	-1.400	-1.420
2020/01/31 14:46:33.5	1.700	-0.100	-1.410	-1.440
2020/01/31 14:46:33.6	1.730	-0.070	-1.410	-1.450
2020/01/31 14:46:33.7	1.750	-0.050	-1.400	-1.460
2020/01/31 14:46:33.8	1.770	-0.030	-1.370	-1.450
2020/01/31 14:46:33.9	1.800	-0.010	-1.340	-1.440
2020/01/31 14:46:34.0	1.810	0.010	-1.310	-1.420
2020/01/31 14:46:34.1	1.830	0.030	-1.260	-1.400
2020/01/31 14:46:34.2	1.840	0.050	-1.200	-1.360
2020/01/31 14:46:34.3	1.850	0.070	-1.140	-1.330
2020/01/31 14:46:34.4	1.860	0.080	-1.070	-1.290
2020/01/31 14:46:34.5	1.860	0.100	-0.990	-1.240
2020/01/31 14:46:34.6	1.860	0.110	-0.910	-1.190
2020/01/31 14:46:34.7	1.850	0.120	-0.830	-1.130
2020/01/31 14:46:34.8	1.850	0.130	-0.740	-1.080
2020/01/31 14:46:34.9	1.840	0.140	-0.650	-1.010
2020/01/31 14:46:35.0	1.830	0.140	-0.550	-0.950
2020/01/31 14:46:35.1	1.820	0.150	-0.460	-0.880
2020/01/31 14:46:35.2	1.810	0.150	-0.360	-0.810
2020/01/31 14:46:35.3	1.800	0.160	-0.270	-0.740
2020/01/31 14:46:35.4	1.780	0.160	-0.180	-0.670
2020/01/31 14:46:35.5	1.770	0.160	-0.100	-0.610
2020/01/31 14:46:35.6	1.750	0.160	-0.010	-0.540
2020/01/31 14:46:35.7	1.740	0.160	0.070	-0.470
2020/01/31 14:46:35.8	1.720	0.160	0.140	-0.400
2020/01/31 14:46:35.9	1.710	0.160	0.210	-0.340
2020/01/31 14:46:36.0	1.690	0.160	0.270	-0.280
2020/01/31 14:46:36.1	1.680	0.160	0.320	-0.220
2020/01/31 14:46:36.2	1.660	0.160	0.370	-0.160
2020/01/31 14:46:36.3	1.640	0.150	0.410	-0.110
2020/01/31 14:46:36.4	1.630	0.150	0.440	-0.060
2020/01/31 14:46:36.5	1.610	0.150	0.470	-0.010
2020/01/31 14:46:36.6	1.590	0.140	0.490	0.030
2020/01/31 14:46:36.7	1.580	0.140	0.500	0.070
2020/01/31 14:46:36.8	1.570	0.140	0.510	0.110
2020/01/31 14:46:36.9	1.550	0.130	0.510	0.140
2020/01/31 14:46:37.0	1.540	0.130	0.500	0.160
2020/01/31 14:46:37.1	1.520	0.130	0.490	0.190
2020/01/31 14:46:37.2	1.510	0.120	0.470	0.210
2020/01/31 14:46:37.3	1.500	0.120	0.440	0.220
2020/01/31 14:46:37.4	1.490	0.120	0.410	0.230
2020/01/31 14:46:37.5	1.480	0.120	0.380	0.230
2020/01/31 14:46:37.6	1.470	0.120	0.340	0.230
2020/01/31 14:46:37.7	1.470	0.120	0.290	0.230
2020/01/31 14:46:37.8	1.470	0.130	0.250	0.220
2020/01/31 14:46:37.9	1.470	0.130	0.200	0.210
2020/01/31 14:46:38.0	1.470	0.140	0.140	0.190
2020/01/31 14:46:38.1	1.480	0.140	0.090	0.180
2020/01/31 14:46:38.2	1.480	0.150	0.030	0.160
2020/01/31 14:46:38.3	1.490	0.160	-0.020	0.140
2020/01/31 14:46:38.4	1.500	0.170	-0.080	0.110
2020/01/31 14:46:38.5	1.500	0.180	-0.130	0.090
2020/01/31 14:46:38.6	1.510	0.190	-0.180	0.070
2020/01/31 14:46:38.7	1.500	0.200	-0.230	0.040
2020/01/31 14:46:38.8	1.510	0.210	-0.270	0.020
2020/01/31 14:46:38.9	1.520	0.230	-0.310	-0.010
2020/01/31 14:46:39.0	1.520	0.240	-0.350	-0.030
2020/01/31 14:46:39.1	1.530	0.250	-0.380	-0.050
2020/01/31 14:46:39.2	1.530	0.270	-0.400	-0.060
2020/01/31 14:46:39.3	1.540	0.280	-0.420	-0.080
2020/01/31 14:46:39.4	1.540	0.290	-0.430	-0.090
2020/01/31 14:46:39.5	1.540	0.300	-0.440	-0.100
2020/01/31 14:46:39.6	1.540	0.310	-0.440	-0.110
2020/01/31 14:46:39.7	1.550	0.320	-0.430	-0.120
2020/01/31 14:46:39.8	1.550	0.330	-0.420	-0.130
2020/01/31 14:46:39.9	1.550	0.330	-0.410	-0.130
2020/01/31 14:46:40.0	1.540	0.330	-0.390	-0.130
2020/01/31 14:46:40.1	1.540	0.330	-0.360	-0.130
2020/01/31 14:46:40.2	1.530	0.320	-0.330	-0.130
2020/01/31 14:46:40.3	1.530	0.310	-0.300	-0.130
2020/01/31 14:46:40.4	1.520	0.300	-0.270	-0.120
2020/01/31 14:46:40.5	1.510	0.290	-0.230	-0.120
2020/01/31 14:46:40.6	1.500	0.270	-0.190	-0.110
2020/01/31 14:46:40.7	1.500	0.250	-0.150	-0.110
2020/01/31 14:46:40.8	1.490	0.220	-0.110	-0.100
2020/01/31 14:46:40.9	1.480	0.190	-0.070	-0.100
2020/01/31 14:46:41.0	1.470	0.160	-0.040	-0.100
2020/01/31 14:46:41.1	1.460	0.130	-0.000	-0.100
2020/01/31 14:46:41.2	1.450	0.100	0.030	-0.100
2020/01/31 14:46:41.3	1.440	0.060	0.060	-0.100
2020/01/31 14:46:41.4	1.420	0.020	0.080	-0.110
2020/01/31 14:46:41.5	1.410	-0.020	0.110	-0.110
2020/01/31 14:46:41.6	1.400	-0.060	0.130	-0.120
2020/01/31 14:46:41.7	1.390	-0.110	0.140	-0.130
2020/01/31 14:46:41.8	1.380	-0.150	0.150	-0.140
2020/01/31 14:46:41.9	1.370	-0.190	0.160	-0.150
2020/01/31 14:46:42.0	1.360	-0.240	0.160	-0.170
2020/01/31 14:46:42.1	1.350	-0.280	0.160	-0.190
2020/01/31 14:46:42.2	1.340	-0.320	0.150	-0.200
2020/01/31 14:46:42.3	1.330	-0.360	0.140	-0.220
2020/01/31 14:46:42.4	1.330	-0.400	0.130	-0.240
2020/01/31 14:46:42.5	1.320	-0.430	0.110	-0.270
2020/01/31 14:46:42.6	1.320	-0.460	0.090	-0.290
2020/01/31 14:46:42.7	1.310	-0.490	0.060	-0.320
2020/01/31 14:46:42.8	1.310	-0.520	0.030	-0.350
2020/01/31 14:46:42.9	1.310	-0.540	-0.000	-0.380
2020/01/31 14:46:43.0	1.310	-0.560	-0.040	-0.400
2020/01/31 14:46:43.1	1.310	-0.580	-0.080	-0.430
2020/01/31 14:46:43.2	1.310	-0.590	-0.120	-0.460
2020/01/31 14:46:43.3	1.310	-0.600	-0.160	-0.490
2020/01/31 14:46:43.4	1.320	-0.600	-0.210	-0.510
2020/01/31 14:46:43.5	1.320	-0.600	-0.250	-0.540
2020/01/31 14:46:43.6	1.320	-0.600	-0.300	-0.570
2020/01/31 14:46:43.7	1.320	-0.600	-0.350	-0.590
2020/01/31 14:46:43.8	1.320	-0.590	-0.400	-0.620
2020/01/31 14:46:43.9	1.330	-0.570	-0.440	-0.640
2020/01/31 14:46:44.0	1.340	-0.560	-0.490	-0.670
2020/01/31 14:46:44.1	1.350	-0.540	-0.540	-0.690
2020/01/31 14:46:44.2	1.360	-0.520	-0.580	-0.710
2020/01/31 14:46:44.3	1.370	-0.490	-0.620	-0.740
2020/01/31 14:46:44.4	1.380	-0.460	-0.670	-0.760
2020/01/31 14:46:44.5	1.390	-0.440	-0.700	-0.780
2020/01/31 14:46:44.6	1.410	-0.410	-0.740	-0.790
2020/01/31 14:46:44.7	1.420	-0.380	-0.770	-0.810
2020/01/31 14:46:44.8	1.430	-0.340	-0.800	-0.830
2020/01/31 14:46:44.9	1.450	-0.310	-0.830	-0.840
2020/01/31 14:46:45.0	1.470	-0.280	-0.850	-0.860
2020/01/31 14:46:45.1	1.490	-0.240	-0.870	-0.870
2020/01/31 14:46:45.2	1.510	-0.210	-0.880	-0.870
2020/01/31 14:46:45.3	1.540	-0.180	-0.890	-0.880
2020/01/31 14:46:45.4	1.560	-0.140	-0.900	-0.880
2020/01/31 14:46:45.5	1.580	-0.110	-0.900	-0.880
2020/01/31 14:46:45.6	1.600	-0.080	-0.890	-0.870
2020/01/31 14:46:45.7	1.620	-0.050	-0.880	-0.870
2020/01/31 14:46:45.8	1.640	-0.020	-0.860	-0.850
2020/01/31 14:46:45.9	1.660	0.000	-0.840	-0.840
2020/01/31 14:46:46.0	1.670	0.030	-0.810	-0.820
2020/01/31 14:46:46.1	1.680	0.050	-0.780	-0.800
2020/01/31 14:46:46.2	1.690	0.070	-0.740	-0.770
2020/01/31 14:46:46.3	1.700	0.080	-0.710	-0.750
2020/01/31 14:46:46.4	1.710	0.100	-0.660	-0.720
2020/01/31 14:46:46.5	1.720	0.110	-0.620	-0.690
2020/01/31 14:46:46.6	1.720	0.120	-0.570	-0.650
2020/01/31 14:46:46.7	1.730	0.130	-0.510	-0.620
2020/01/31 14:46:46.8	1.730	0.140	-0.460	-0.580
2020/01/31 14:46:46.9	1.730	0.140	-0.410	-0.540
2020/01/31 14:46:47.0	1.730	0.150	-0.360	-0.500
2020/01/31 14:46:47.1	1.730	0.150	-0.300	-0.460
2020/01/31 14:46:47.2	1.720	0.150	-0.250	-0.420
2020/01/31 14:46:47.3	1.710	0.150	-0.200	-0.380
2020/01/31 14:46:47.4	1.700	0.150	-0.150	-0.340
2020/01/31 14:46:47.5	1.690	0.150	-0.100	-0.300
2020/01/31 14:46:47.6	1.680	0.150	-0.050	-0.250
2020/01/31 14:46:47.7	1.650	0.150	-0.000	-0.210
2020/01/31 14:46:47.8	1.630	0.150	0.040	-0.160
2020/01/31 14:46:47.9	1.600	0.140	0.070	-0.110
2020/01/31 14:46:48.0	1.580	0.140	0.100	-0.060
2020/01/31 14:46:48.1	1.550	0.140	0.130	-0.010
2020/01/31 14:46:48.2	1.520	0.140	0.160	0.030
2020/01/31 14:46:48.3	1.490	0.140	0.170	0.080
2020/01/31 14:46:48.4	1.460	0.150	0.180	0.130
2020/01/31 14:46:48.5	1.430	0.150	0.190	0.170
2020/01/31 14:46:48.6	1.390	0.150	0.190	0.210
2020/01/31 14:46:48.7	1.360	0.160	0.180	0.250
2020/01/31 14:46:48.8	1.330	0.170	0.170	0.280
2020/01/31 14:46:48.9	1.300	0.170	0.150	0.310
2020/01/31 14:46:49.0	1.280	0.180	0.120	0.330
2020/01/31 14:46:49.1	1.250	0.200	0.080	0.350
2020/01/31 14:46:49.2	1.230	0.210	0.040	0.360
2020/01/31 14:46:49.3	1.210	0.220	-0.000	0.370
2020/01/31 14:46:49.4	1.200	0.240	-0.050	0.370
2020/01/31 14:46:49.5	1.190	0.260	-0.110	0.370
2020/01/31 14:46:49.6	1.180	0.280	-0.170	0.360
2020/01/31 14:46:49.7	1.160	0.300	-0.230	0.340
2020/01/31 14:46:49.8	1.160	0.320	-0.290	0.320
2020/01/31 14:46:49.9	1.160	0.340	-0.360	0.290
2020/01/31 14:46:50.0	1.170	0.370	-0.420	0.270
2020/01/31 14:46:50.1	1.180	0.390	-0.490	0.240
2020/01/31 14:46:50.2	1.190	0.420	-0.550	0.200
2020/01/31 14:46:50.3	1.210	0.440	-0.600	0.170
2020/01/31 14:46:50.4	1.220	0.470	-0.660	0.140
2020/01/31 14:46:50.5	1.240	0.490	-0.700	0.110
2020/01/31 14:46:50.6	1.250	0.510	-0.740	0.080
2020/01/31 14:46:50.7	1.280	0.530	-0.770	0.040
2020/01/31 14:46:50.8	1.300	0.550	-0.800	0.020
2020/01/31 14:46:50.9	1.310	0.560	-0.810	-0.010
2020/01/31 14:46:51.0	1.320	0.570	-0.810	-0.030
2020/01/31 14:46:51.1	1.320	0.580	-0.810	-0.040
2020/01/31 14:46:51.2	1.320	0.580	-0.790	-0.060
2020/01/31 14:46:51.3	1.320	0.580	-0.760	-0.070
2020/01/31 14:46:51.4	1.320	0.580	-0.730	-0.080
2020/01/31 14:46:51.5	1.310	0.560	-0.680	-0.090
2020/01/31 14:46:51.6	1.300	0.550	-0.630	-0.090
2020/01/31 14:46:51.7	1.280	0.530	-0.560	-0.090
2020/01/31 14:46:51.8	1.260	0.500	-0.490	-0.090
2020/01/31 14:46:51.9	1.240	0.470	-0.420	-0.090
2020/01/31 14:46:52.0	1.220	0.430	-0.340	-0.090
2020/01/31 14:46:52.1	1.200	0.390	-0.250	-0.090
2020/01/31 14:46:52.2	1.170	0.340	-0.170	-0.100
2020/01/31 14:46:52.3	1.140	0.290	-0.080	-0.100
2020/01/31 14:46:52.4	1.110	0.240	0.010	-0.100
2020/01/31 14:46:52.5	1.080	0.180	0.100	-0.100
2020/01/31 14:46:52.6	1.050	0.120	0.180	-0.110
2020/01/31 14:46:52.7	1.010	0.060	0.260	-0.130
2020/01/31 14:46:52.8	0.980	-0.010	0.340	-0.140
2020/01/31 14:46:52.9	0.960	-0.070	0.410	-0.150
2020/01/31 14:46:53.0	0.940	-0.140	0.470	-0.170
2020/01/31 14:46:53.1	0.920	-0.200	0.530	-0.190
2020/01/31 14:46:53.2	0.900	-0.270	0.570	-0.210
2020/01/31 14:46:53.3	0.890	-0.330	0.610	-0.240
2020/01/31 14:46:53.4	0.880	-0.390	0.640	-0.280
2020/01/31 14:46:53.5	0.880	-0.440	0.650	-0.310
2020/01/31 14:46:53.6	0.880	-0.490	0.660	-0.360
2020/01/31 14:46:53.7	0.870	-0.540	0.650	-0.400
2020/01/31 14:46:53.8	0.880	-0.580	0.640	-0.450
2020/01/31 14:46:53.9	0.890	-0.620	0.610	-0.510
2020/01/31 14:46:54.0	0.910	-0.650	0.570	-0.560
2020/01/31 14:46:54.1	0.940	-0.680	0.530	-0.610
2020/01/31 14:46:54.2	0.960	-0.700	0.480	-0.670
2020/01/31 14:46:54.3	0.990	-0.710	0.420	-0.730
2020/01/31 14:46:54.4	1.020	-0.720	0.350	-0.780
2020/01/31 14:46:54.5	1.050	-0.720	0.280	-0.840
2020/01/31 14:46:54.6	1.090	-0.710	0.200	-0.890
2020/01/31 14:46:54.7	1.110	-0.700	0.130	-0.940
2020/01/31 14:46:54.8	1.140	-0.690	0.050	-0.980
2020/01/31 14:46:54.9	1.170	-0.670	-0.030	-1.020
2020/01/31 14:46:55.0	1.190	-0.650	-0.100	-1.050
2020/01/31 14:46:55.1	1.210	-0.620	-0.170	-1.070
2020/01/31 14:46:55.2	1.220	-0.600	-0.240	-1.090
2020/01/31 14:46:55.3	1.240	-0.570	-0.300	-1.110
2020/01/31 14:46:55.4	1.240	-0.530	-0.360	-1.120
2020/01/31 14:46:55.5	1.250	-0.500	-0.410	-1.120
2020/01/31 14:46:55.6	1.250	-0.470	-0.460	-1.110
2020/01/31 14:46:55.7	1.250	-0.430	-0.490	-1.100
2020/01/31 14:46:55.8	1.250	-0.400	-0.520	-1.090
2020/01/31 14:46:55.9	1.240	-0.360	-0.550	-1.070
2020/01/31 14:46:56.0	1.220	-0.330	-0.560	-1.040
2020/01/31 14:46:56.1	1.200	-0.300	-0.580	-1.010
2020/01/31 14:46:56.2	1.180	-0.270	-0.580	-0.980
2020/01/31 14:46:56.3	1.160	-0.240	-0.580	-0.940
2020/01/31 14:46:56.4	1.140	-0.210	-0.580	-0.900
2020/01/31 14:46:56.5	1.110	-0.180	-0.570	-0.860
2020/01/31 14:46:56.6	1.080	-0.160	-0.560	-0.810
2020/01/31 14:46:56.7	1.050	-0.140	-0.540	-0.770
2020/01/31 14:46:56.8	1.020	-0.120	-0.520	-0.710
2020/01/31 14:46:56.9	0.990	-0.100	-0.500	-0.660
2020/01/31 14:46:57.0	0.960	-0.080	-0.480	-0.610
2020/01/31 14:46:57.1	0.930	-0.070	-0.460	-0.550
2020/01/31 14:46:57.2	0.890	-0.050	-0.430	-0.500
2020/01/31 14:46:57.3	0.870	-0.040	-0.410	-0.450
2020/01/31 14:46:57.4	0.840	-0.030	-0.390	-0.400
2020/01/31 14:46:57.5	0.810	-0.020	-0.380	-0.350
2020/01/31 14:46:57.6	0.790	-0.010	-0.360	-0.310
2020/01/31 14:46:57.7	0.760	0.000	-0.350	-0.260
2020/01/31 14:46:57.8	0.740	0.010	-0.340	-0.220
2020/01/31 14:46:57.9	0.720	0.020	-0.340	-0.190
2020/01/31 14:46:58.0	0.710	0.030	-0.340	-0.150
2020/01/31 14:46:58.1	0.690	0.040	-0.340	-0.120
2020/01/31 14:46:58.2	0.680	0.050	-0.350	-0.090
2020/01/31 14:46:58.3	0.670	0.060	-0.350	-0.070
2020/01/31 14:46:58.4	0.670	0.070	-0.360	-0.050
2020/01/31 14:46:58.5	0.660	0.080	-0.370	-0.030
2020/01/31 14:46:58.6	0.650	0.090	-0.390	-0.010
2020/01/31 14:46:58.7	0.640	0.110	-0.400	0.000
2020/01/31 14:46:58.8	0.640	0.120	-0.410	0.020
2020/01/31 14:46:58.9	0.630	0.130	-0.420	0.030
2020/01/31 14:46:59.0	0.630	0.150	-0.430	0.030
2020/01/31 14:46:59.1	0.630	0.160	-0.440	0.040
2020/01/31 14:46:59.2	0.620	0.170	-0.450	0.050
2020/01/31 14:46:59.3	0.620	0.190	-0.460	0.050
2020/01/31 14:46:59.4	0.610	0.200	-0.470	0.060
2020/01/31 14:46:59.5	0.600	0.220	-0.470	0.060
2020/01/31 14:46:59.6	0.600	0.230	-0.470	0.070
2020/01/31 14:46:59.7	0.580	0.240	-0.470	0.070
2020/01/31 14:46:59.8	0.570	0.250	-0.470	0.070
2020/01/31 14:46:59.9	0.560	0.260	-0.460	0.080
2020/01/31 14:47:00.0	0.550	0.270	-0.460	0.080
2020/01/31 14:47:00.1	0.540	0.280	-0.450	0.080
2020/01/31 14:47:00.2	0.520	0.290	-0.440	0.090
2020/01/31 14:47:00.3	0.510	0.300	-0.420	0.090
2020/01/31 14:47:00.4	0.500	0.300	-0.410	0.090
2020/01/31 14:47:00.5	0.490	0.310	-0.390	0.100
2020/01/31 14:47:00.6	0.470	0.310	-0.370	0.090
2020/01/31 14:47:00.7	0.460	0.310	-0.360	0.100
2020/01/31 14:47:00.8	0.450	0.300	-0.340	0.100
2020/01/31 14:47:00.9	0.430	0.300	-0.320	0.100
2020/01/31 14:47:01.0	0.420	0.300	-0.300	0.100
2020/01/31 14:47:01.1	0.410	0.290	-0.290	0.100
2020/01/31 14:47:01.2	0.410	0.280	-0.270	0.090
2020/01/31 14:47:01.3	0.400	0.270	-0.260	0.090
2020/01/31 14:47:01.4	0.390	0.260	-0.250	0.080
2020/01/31 14:47:01.5	0.390	0.250	-0.240	0.070
2020/01/31 14:47:01.6	0.380	0.230	-0.230	0.060
2020/01/31 14:47:01.7	0.380	0.220	-0.230	0.040
2020/01/31 14:47:01.8	0.380	0.200	-0.220	0.020
2020/01/31 14:47:01.9	0.380	0.180	-0.220	-0.000
2020/01/31 14:47:02.0	0.380	0.160	-0.220	-0.030
2020/01/31 14:47:02.1	0.380	0.140	-0.230	-0.050
2020/01/31 14:47:02.2	0.380	0.120	-0.230	-0.080
2020/01/31 14:47:02.3	0.390	0.100	-0.240	-0.120
2020/01/31 14:47:02.4	0.390	0.080	-0.240	-0.150
2020/01/31 14:47:02.5	0.400	0.060	-0.250	-0.190
2020/01/31 14:47:02.6	0.410	0.040	-0.260	-0.230
2020/01/31 14:47:02.7	0.420	0.010	-0.270	-0.280
2020/01/31 14:47:02.8	0.430	-0.010	-0.280	-0.320
2020/01/31 14:47:02.9	0.450	-0.030	-0.300	-0.370
2020/01/31 14:47:03.0	0.460	-0.050	-0.310	-0.410
2020/01/31 14:47:03.1	0.480	-0.060	-0.330	-0.460
2020/01/31 14:47:03.2	0.500	-0.080	-0.350	-0.500
2020/01/31 14:47:03.3	0.520	-0.090	-0.370	-0.550
2020/01/31 14:47:03.4	0.550	-0.110	-0.380	-0.590
2020/01/31 14:47:03.5	0.570	-0.120	-0.400	-0.630
2020/01/31 14:47:03.6	0.590	-0.130	-0.420	-0.670
2020/01/31 14:47:03.7	0.620	-0.130	-0.430	-0.710
2020/01/31 14:47:03.8	0.640	-0.140	-0.450	-0.750
2020/01/31 14:47:03.9	0.670	-0.140	-0.460	-0.780
2020/01/31 14:47:04.0	0.690	-0.140	-0.460	-0.810
2020/01/31 14:47:04.1	0.710	-0.140	-0.470	-0.830
2020/01/31 14:47:04.2	0.740	-0.140	-0.470	-0.850
2020/01/31 14:47:04.3	0.750	-0.140	-0.470	-0.860
2020/01/31 14:47:04.4	0.770	-0.130	-0.460	-0.870
2020/01/31 14:47:04.5	0.780	-0.130	-0.450	-0.870
2020/01/31 14:47:04.6	0.790	-0.120	-0.440	-0.870
2020/01/31 14:47:04.7	0.800	-0.120	-0.420	-0.860
2020/01/31 14:47:04.8	0.800	-0.110	-0.400	-0.850
2020/01/31 14:47:04.9	0.810	-0.100	-0.370	-0.830
2020/01/31 14:47:05.0	0.800	-0.100	-0.340	-0.810
2020/01/31 14:47:05.1	0.800	-0.090	-0.300	-0.780
2020/01/31 14:47:05.2	0.790	-0.090	-0.260	-0.760
2020/01/31 14:47:05.3	0.780	-0.080	-0.220	-0.720
2020/01/31 14:47:05.4	0.770	-0.080	-0.180	-0.690
2020/01/31 14:47:05.5	0.750	-0.070	-0.130	-0.650
2020/01/31 14:47:05.6	0.740	-0.070	-0.080	-0.610
2020/01/31 14:47:05.7	0.720	-0.070	-0.030	-0.570
2020/01/31 14:47:05.8	0.700	-0.070	0.020	-0.520
2020/01/31 14:47:05.9	0.670	-0.070	0.070	-0.480
2020/01/31 14:47:06.0	0.650	-0.070	0.120	-0.430
2020/01/31 14:47:06.1	0.630	-0.070	0.160	-0.390
2020/01/31 14:47:06.2	0.610	-0.070	0.210	-0.340
2020/01/31 14:47:06.3	0.580	-0.070	0.250	-0.290
2020/01/31 14:47:06.4	0.560	-0.080	0.290	-0.250
2020/01/31 14:47:06.5	0.540	-0.080	0.320	-0.200
2020/01/31 14:47:06.6	0.520	-0.080	0.350	-0.160
2020/01/31 14:47:06.7	0.510	-0.090	0.380	-0.120
2020/01/31 14:47:06.8	0.490	-0.090	0.400	-0.080
2020/01/31 14:47:06.9	0.470	-0.090	0.410	-0.040
2020/01/31 14:47:07.0	0.450	-0.100	0.420	-0.010
2020/01/31 14:47:07.1	0.440	-0.100	0.420	0.020
2020/01/31 14:47:07.2	0.420	-0.100	0.420	0.050
2020/01/31 14:47:07.3	0.410	-0.100	0.410	0.080
2020/01/31 14:47:07.4	0.400	-0.100	0.400	0.100
2020/01/31 14:47:07.5	0.400	-0.100	0.370	0.120
2020/01/31 14:47:07.6	0.390	-0.100	0.350	0.130
2020/01/31 14:47:07.7	0.390	-0.090	0.320	0.140
2020/01/31 14:47:07.8	0.390	-0.090	0.280	0.150
2020/01/31 14:47:07.9	0.390	-0.080	0.240	0.160
2020/01/31 14:47:08.0	0.390	-0.070	0.190	0.160
2020/01/31 14:47:08.1	0.390	-0.060	0.140	0.170
2020/01/31 14:47:08.2	0.390	-0.050	0.090	0.160
2020/01/31 14:47:08.3	0.390	-0.040	0.040	0.160
2020/01/31 14:47:08.4	0.400	-0.020	-0.020	0.160
2020/01/31 14:47:08.5	0.400	-0.010	-0.080	0.150
2020/01/31 14:47:08.6	0.410	0.010	-0.140	0.140
2020/01/31 14:47:08.7	0.400	0.030	-0.190	0.130
2020/01/31 14:47:08.8	0.410	0.040	-0.240	0.120
2020/01/31 14:47:08.9	0.410	0.060	-0.300	0.110
2020/01/31 14:47:09.0	0.410	0.080	-0.360	0.110
2020/01/31 14:47:09.1	0.420	0.100	-0.410	0.100
2020/01/31 14:47:09.2	0.420	0.120	-0.460	0.090
2020/01/31 14:47:09.3	0.420	0.140	-0.510	0.080
2020/01/31 14:47:09.4	0.430	0.150	-0.550	0.070
2020/01/31 14:47:09.5	0.430	0.170	-0.600	0.050
2020/01/31 14:47:09.6	0.430	0.180	-0.630	0.040
2020/01/31 14:47:09.7	0.440	0.200	-0.670	0.030
2020/01/31 14:47:09.8	0.440	0.210	-0.700	0.020
2020/01/31 14:47:09.9	0.440	0.210	-0.730	0.000
2020/01/31 14:47:10.0	0.440	0.220	-0.750	-0.020
2020/01/31 14:47:10.1	0.440	0.230	-0.770	-0.030
2020/01/31 14:47:10.2	0.440	0.230	-0.780	-0.050
2020/01/31 14:47:10.3	0.440	0.230	-0.800	-0.070
2020/01/31 14:47:10.4	0.440	0.230	-0.800	-0.090
2020/01/31 14:47:10.5	0.440	0.220	-0.810	-0.110
2020/01/31 14:47:10.6	0.440	0.210	-0.810	-0.130
2020/01/31 14:47:10.7	0.440	0.200	-0.800	-0.160
2020/01/31 14:47:10.8	0.440	0.190	-0.800	-0.180
2020/01/31 14:47:10.9	0.440	0.180	-0.790	-0.200
2020/01/31 14:47:11.0	0.440	0.160	-0.770	-0.220
2020/01/31 14:47:11.1	0.440	0.150	-0.760	-0.240
2020/01/31 14:47:11.2	0.440	0.130	-0.740	-0.260
2020/01/31 14:47:11.3	0.440	0.110	-0.710	-0.280
2020/01/31 14:47:11.4	0.440	0.090	-0.690	-0.300
2020/01/31 14:47:11.5	0.440	0.060	-0.660	-0.320
2020/01/31 14:47:11.6	0.430	0.040	-0.630	-0.340
2020/01/31 14:47:11.7	0.420	0.020	-0.600	-0.360
2020/01/31 14:47:11.8	0.420	-0.000	-0.570	-0.370
2020/01/31 14:47:11.9	0.420	-0.030	-0.540	-0.390
2020/01/31 14:47:12.0	0.420	-0.050	-0.500	-0.400
2020/01/31 14:47:12.1	0.420	-0.070	-0.470	-0.410
2020/01/31 14:47:12.2	0.420	-0.090	-0.430	-0.420
2020/01/31 14:47:12.3	0.420	-0.110	-0.390	-0.430
2020/01/31 14:47:12.4	0.410	-0.130	-0.350	-0.440
2020/01/31 14:47:12.5	0.410	-0.140	-0.320	-0.450
2020/01/31 14:47:12.6	0.410	-0.160	-0.280	-0.450
2020/01/31 14:47:12.7	0.420	-0.170	-0.230	-0.460
2020/01/31 14:47:12.8	0.420	-0.180	-0.200	-0.470
2020/01/31 14:47:12.9	0.420	-0.190	-0.160	-0.470
2020/01/31 14:47:13.0	0.420	-0.190	-0.120	-0.470
2020/01/31 14:47:13.1	0.430	-0.200	-0.090	-0.470
2020/01/31 14:47:13.2	0.430	-0.200	-0.050	-0.470
2020/01/31 14:47:13.3	0.440	-0.200	-0.020	-0.470
2020/01/31 14:47:13.4	0.450	-0.200	0.010	-0.470
2020/01/31 14:47:13.5	0.450	-0.200	0.040	-0.470
2020/01/31 14:47:13.6	0.460	-0.190	0.060	-0.470
2020/01/31 14:47:13.7	0.460	-0.190	0.080	-0.460
2020/01/31 14:47:13.8	0.470	-0.180	0.100	-0.460
2020/01/31 14:47:13.9	0.470	-0.180	0.120	-0.450
2020/01/31 14:47:14.0	0.480	-0.170	0.130	-0.440
2020/01/31 14:47:14.1	0.480	-0.160	0.140	-0.430
2020/01/31 14:47:14.2	0.490	-0.150	0.150	-0.420
2020/01/31 14:47:14.3	0.490	-0.150	0.160	-0.410
2020/01/31 14:47:14.4	0.490	-0.140	0.160	-0.400
2020/01/31 14:47:14.5	0.490	-0.130	0.160	-0.390
2020/01/31 14:47:14.6	0.490	-0.130	0.150	-0.370
2020/01/31 14:47:14.7	0.490	-0.120	0.150	-0.360
2020/01/31 14:47:14.8	0.490	-0.120	0.140	-0.350
2020/01/31 14:47:14.9	0.480	-0.110	0.130	-0.340
2020/01/31 14:47:15.0	0.480	-0.110	0.120	-0.330
2020/01/31 14:47:15.1	0.480	-0.110	0.100	-0.320
2020/01/31 14:47:15.2	0.470	-0.100	0.080	-0.310
2020/01/31 14:47:15.3	0.470	-0.100	0.060	-0.310
2020/01/31 14:47:15.4	0.460	-0.100	0.030	-0.300
2020/01/31 14:47:15.5	0.460	-0.100	0.010	-0.290
2020/01/31 14:47:15.6	0.450	-0.100	-0.020	-0.290
2020/01/31 14:47:15.7	0.450	-0.100	-0.040	-0.290
2020/01/31 14:47:15.8	0.450	-0.110	-0.070	-0.290
2020/01/31 14:47:15.9	0.450	-0.110	-0.100	-0.290
2020/01/31 14:47:16.0	0.450	-0.110	-0.130	-0.290
2020/01/31 14:47:16.1	0.440	-0.110	-0.170	-0.290
2020/01/31 14:47:16.2	0.440	-0.110	-0.200	-0.290
2020/01/31 14:47:16.3	0.450	-0.110	-0.230	-0.290
2020/01/31 14:47:16.4	0.450	-0.110	-0.260	-0.290
2020/01/31 14:47:16.5	0.450	-0.110	-0.300	-0.290
2020/01/31 14:47:16.6	0.450	-0.110	-0.330	-0.290
2020/01/31 14:47:16.7	0.450	-0.100	-0.360	-0.290
2020/01/31 14:47:16.8	0.450	-0.100	-0.390	-0.290
2020/01/31 14:47:16.9	0.460	-0.090	-0.420	-0.290
2020/01/31 14:47:17.0	0.470	-0.080	-0.450	-0.290
2020/01/31 14:47:17.1	0.480	-0.070	-0.480	-0.290
2020/01/31 14:47:17.2	0.490	-0.060	-0.510	-0.290
2020/01/31 14:47:17.3	0.500	-0.050	-0.540	-0.280
2020/01/31 14:47:17.4	0.510	-0.040	-0.560	-0.280
2020/01/31 14:47:17.5	0.520	-0.020	-0.580	-0.270
2020/01/31 14:47:17.6	0.540	-0.000	-0.600	-0.260
2020/01/31 14:47:17.7	0.540	0.020	-0.620	-0.260
2020/01/31 14:47:17.8	0.550	0.030	-0.630	-0.250
2020/01/31 14:47:17.9	0.560	0.050	-0.650	-0.230
2020/01/31 14:47:18.0	0.570	0.080	-0.650	-0.220
2020/01/31 14:47:18.1	0.580	0.100	-0.660	-0.210
2020/01/31 14:47:18.2	0.580	0.120	-0.660	-0.190
2020/01/31 14:47:18.3	0.590	0.140	-0.650	-0.170
2020/01/31 14:47:18.4	0.590	0.160	-0.650	-0.150
2020/01/31 14:47:18.5	0.590	0.190	-0.640	-0.130
2020/01/31 14:47:18.6	0.590	0.210	-0.620	-0.110
2020/01/31 14:47:18.7	0.610	0.230	-0.610	-0.080
2020/01/31 14:47:18.8	0.600	0.250	-0.580	-0.060
2020/01/31 14:47:18.9	0.600	0.270	-0.560	-0.040
2020/01/31 14:47:19.0	0.590	0.280	-0.530	-0.010
2020/01/31 14:47:19.1	0.580	0.300	-0.500	0.010
2020/01/31 14:47:19.2	0.570	0.310	-0.470	0.040
2020/01/31 14:47:19.3	0.560	0.320	-0.440	0.060
2020/01/31 14:47:19.4	0.550	0.330	-0.400	0.090
2020/01/31 14:47:19.5	0.540	0.330	-0.370	0.110
2020/01/31 14:47:19.6	0.520	0.340	-0.330	0.130
2020/01/31 14:47:19.7	0.510	0.340	-0.290	0.150
2020/01/31 14:47:19.8	0.490	0.340	-0.250	0.170
2020/01/31 14:47:19.9	0.480	0.330	-0.220	0.190
2020/01/31 14:47:20.0	0.460	0.330	-0.180	0.200
2020/01/31 14:47:20.1	0.450	0.320	-0.150	0.220
2020/01/31 14:47:20.2	0.430	0.300	-0.120	0.230
2020/01/31 14:47:20.3	0.420	0.290	-0.090	0.240
2020/01/31 14:47:20.4	0.400	0.270	-0.060	0.250
2020/01/31 14:47:20.5	0.390	0.260	-0.040	0.250
2020/01/31 14:47:20.6	0.380	0.240	-0.020	0.260
2020/01/31 14:47:20.7	0.370	0.210	-0.000	0.260
2020/01/31 14:47:20.8	0.350	0.190	0.020	0.260
2020/01/31 14:47:20.9	0.340	0.170	0.030	0.260
2020/01/31 14:47:21.0	0.330	0.140	0.040	0.260
2020/01/31 14:47:21.1	0.320	0.120	0.050	0.260
2020/01/31 14:47:21.2	0.310	0.090	0.050	0.250
2020/01/31 14:47:21.3	0.290	0.060	0.060	0.240
2020/01/31 14:47:21.4	0.280	0.040	0.060	0.240
2020/01/31 14:47:21.5	0.270	0.010	0.060	0.230
2020/01/31 14:47:21.6	0.250	-0.020	0.050	0.220
2020/01/31 14:47:21.7	0.230	-0.040	0.050	0.200
2020/01/31 14:47:21.8	0.220	-0.070	0.040	0.180
2020/01/31 14:47:21.9	0.200	-0.100	0.030	0.160
2020/01/31 14:47:22.0	0.190	-0.120	0.020	0.140
2020/01/31 14:47:22.1	0.180	-0.150	0.010	0.110
2020/01/31 14:47:22.2	0.170	-0.170	-0.000	0.080
2020/01/31 14:47:22.3	0.160	-0.190	-0.020	0.050
2020/01/31 14:47:22.4	0.150	-0.210	-0.040	0.010
2020/01/31 14:47:22.5	0.140	-0.230	-0.060	-0.030
2020/01/31 14:47:22.6	0.140	-0.250	-0.080	-0.070
2020/01/31 14:47:22.7	0.140	-0.260	-0.100	-0.110
2020/01/31 14:47:22.8	0.140	-0.270	-0.120	-0.160
2020/01/31 14:47:22.9	0.140	-0.280	-0.150	-0.200
2020/01/31 14:47:23.0	0.150	-0.290	-0.170	-0.250
2020/01/31 14:47:23.1	0.160	-0.300	-0.200	-0.300
2020/01/31 14:47:23.2	0.170	-0.300	-0.220	-0.340
2020/01/31 14:47:23.3	0.180	-0.310	-0.240	-0.390
2020/01/31 14:47:23.4	0.190	-0.310	-0.270	-0.440
2020/01/31 14:47:23.5	0.210	-0.310	-0.290	-0.480
2020/01/31 14:47:23.6	0.230	-0.300	-0.310	-0.520
2020/01/31 14:47:23.7	0.250	-0.300	-0.330	-0.570
2020/01/31 14:47:23.8	0.270	-0.290	-0.350	-0.610
2020/01/31 14:47:23.9	0.290	-0.290	-0.360	-0.650
2020/01/31 14:47:24.0	0.310	-0.280	-0.380	-0.680
2020/01/31 14:47:24.1	0.330	-0.270	-0.390	-0.710
2020/01/31 14:47:24.2	0.350	-0.260	-0.400	-0.730
2020/01/31 14:47:24.3	0.370	-0.250	-0.400	-0.750
2020/01/31 14:47:24.4	0.380	-0.240	-0.400	-0.770
2020/01/31 14:47:24.5	0.390	-0.230	-0.390	-0.780
2020/01/31 14:47:24.6	0.400	-0.230	-0.380	-0.780
2020/01/31 14:47:24.7	0.410	-0.220	-0.370	-0.780
2020/01/31 14:47:24.8	0.410	-0.210	-0.360	-0.780
2020/01/31 14:47:24.9	0.410	-0.210	-0.330	-0.770
2020/01/31 14:47:25.0	0.410	-0.200	-0.310	-0.760
2020/01/31 14:47:25.1	0.410	-0.200	-0.280	-0.740
2020/01/31 14:47:25.2	0.400	-0.200	-0.250	-0.720
2020/01/31 14:47:25.3	0.390	-0.200	-0.220	-0.700
2020/01/31 14:47:25.4	0.380	-0.200	-0.190	-0.670
2020/01/31 14:47:25.5	0.360	-0.200	-0.150	-0.650
2020/01/31 14:47:25.6	0.340	-0.200	-0.120	-0.620
2020/01/31 14:47:25.7	0.320	-0.200	-0.080	-0.590
2020/01/31 14:47:25.8	0.300	-0.210	-0.040	-0.550
2020/01/31 14:47:25.9	0.280	-0.210	-0.010	-0.520
2020/01/31 14:47:26.0	0.250	-0.210	0.020	-0.480
2020/01/31 14:47:26.1	0.220	-0.220	0.050	-0.450
2020/01/31 14:47:26.2	0.200	-0.220	0.080	-0.410
2020/01/31 14:47:26.3	0.170	-0.220	0.100	-0.370
2020/01/31 14:47:26.4	0.140	-0.220	0.120	-0.340
2020/01/31 14:47:26.5	0.110	-0.220	0.140	-0.300
2020/01/31 14:47:26.6	0.080	-0.220	0.150	-0.260
2020/01/31 14:47:26.7	0.040	-0.220	0.150	-0.230
2020/01/31 14:47:26.8	0.010	-0.210	0.150	-0.200
2020/01/31 14:47:26.9	359.990	-0.200	0.140	-0.170
2020/01/31 14:47:27.0	359.960	-0.200	0.130	-0.140
2020/01/31 14:47:27.1	359.940	-0.180	0.110	-0.110
2020/01/31 14:47:27.2	359.920	-0.170	0.090	-0.080
2020/01/31 14:47:27.3	359.900	-0.150	0.060	-0.050
2020/01/31 14:47:27.4	359.880	-0.130	0.030	-0.030
2020/01/31 14:47:27.5	359.870	-0.110	-0.010	-0.010
2020/01/31 14:47:27.6	359.850	-0.080	-0.060	0.020
2020/01/31 14:47:27.7	359.850	-0.050	-0.100	0.040
2020/01/31 14:47:27.8	359.840	-0.020	-0.150	0.050
2020/01/31 14:47:27.9	359.840	0.010	-0.210	0.070
2020/01/31 14:47:28.0	359.830	0.040	-0.260	0.090
2020/01/31 14:47:28.1	359.830	0.080	-0.320	0.110
2020/01/31 14:47:28.2	359.830	0.120	-0.380	0.120
2020/01/31 14:47:28.3	359.830	0.160	-0.440	0.130
2020/01/31 14:47:28.4	359.830	0.200	-0.500	0.140
2020/01/31 14:47:28.5	359.830	0.240	-0.560	0.150
2020/01/31 14:47:28.6	359.840	0.280	-0.620	0.160
2020/01/31 14:47:28.7	359.850	0.320	-0.670	0.160
2020/01/31 14:47:28.8	359.860	0.360	-0.730	0.170
2020/01/31 14:47:28.9	359.870	0.400	-0.780	0.170
2020/01/31 14:47:29.0	359.880	0.440	-0.830	0.170
2020/01/31 14:47:29.1	359.890	0.470	-0.870	0.170
2020/01/31 14:47:29.2	359.900	0.510	-0.910	0.170
2020/01/31 14:47:29.3	359.920	0.540	-0.950	0.160
2020/01/31 14:47:29.4	359.940	0.570	-0.980	0.160
2020/01/31 14:47:29.5	359.960	0.600	-1.010	0.150
2020/01/31 14:47:29.6	359.980	0.620	-1.030	0.140
2020/01/31 14:47:29.7	0.000	0.650	-1.050	0.120
2020/01/31 14:47:29.8	0.020	0.660	-1.060	0.110
2020/01/31 14:47:29.9	0.050	0.680	-1.070	0.100
2020/01/31 14:47:30.0	0.070	0.690	-1.070	0.080
2020/01/31 14:47:30.1	0.090	0.700	-1.070	0.060
2020/01/31 14:47:30.2	0.120	0.700	-1.060	0.050
2020/01/31 14:47:30.3	0.140	0.700	-1.050	0.030
2020/01/31 14:47:30.4	0.160	0.690	-1.030	0.010
2020/01/31 14:47:30.5	0.180	0.680	-1.010	-0.010
2020/01/31 14:47:30.6	0.200	0.670	-0.980	-0.020
2020/01/31 14:47:30.7	0.220	0.650	-0.940	-0.040
2020/01/31 14:47:30.8	0.230	0.620	-0.900	-0.060
2020/01/31 14:47:30.9	0.250	0.600	-0.850	-0.080
2020/01/31 14:47:31.0	0.260	0.570	-0.800	-0.100
2020/01/31 14:47:31.1	0.260	0.530	-0.750	-0.110
2020/01/31 14:47:31.2	0.270	0.500	-0.690	-0.130
2020/01/31 14:47:31.3	0.270	0.460	-0.620	-0.150
2020/01/31 14:47:31.4	0.270	0.410	-0.560	-0.170
2020/01/31 14:47:31.5	0.270	0.370	-0.490	-0.190
2020/01/31 14:47:31.6	0.260	0.320	-0.410	-0.210
2020/01/31 14:47:31.7	0.250	0.270	-0.340	-0.230
2020/01/31 14:47:31.8	0.240	0.220	-0.270	-0.250
2020/01/31 14:47:31.9	0.230	0.170	-0.190	-0.260
2020/01/31 14:47:32.0	0.220	0.120	-0.110	-0.280
2020/01/31 14:47:32.1	0.200	0.070	-0.040	-0.300
2020/01/31 14:47:32.2	0.180	0.020	0.040	-0.310
2020/01/31 14:47:32.3	0.170	-0.030	0.110	-0.330
2020/01/31 14:47:32.4	0.150	-0.080	0.190	-0.340
2020/01/31 14:47:32.5	0.130	-0.130	0.250	-0.360
2020/01/31 14:47:32.6	0.110	-0.180	0.320	-0.370
2020/01/31 14:47:32.7	0.080	-0.230	0.380	-0.380
2020/01/31 14:47:32.8	0.060	-0.280	0.440	-0.400
2020/01/31 14:47:32.9	0.030	-0.320	0.500	-0.410
2020/01/31 14:47:33.0	0.010	-0.370	0.550	-0.410
2020/01/31 14:47:33.1	359.990	-0.410	0.590	-0.420
2020/01/31 14:47:33.2	359.960	-0.450	0.630	-0.430
2020/01/31 14:47:33.3	359.940	-0.490	0.670	-0.440
2020/01/31 14:47:33.4	359.920	-0.530	0.700	-0.450
2020/01/31 14:47:33.5	359.900	-0.560	0.730	-0.450
2020/01/31 14:47:33.6	359.880	-0.590	0.750	-0.460
2020/01/31 14:47:33.7	359.840	-0.620	0.770	-0.470
2020/01/31 14:47:33.8	359.820	-0.650	0.780	-0.480
2020/01/31 14:47:33.9	359.810	-0.670	0.780	-0.480
2020/01/31 14:47:34.0	359.790	-0.700	0.780	-0.490
2020/01/31 14:47:34.1	359.780	-0.710	0.780	-0.500
2020/01/31 14:47:34.2	359.770	-0.730	0.760	-0.500
2020/01/31 14:47:34.3	359.760	-0.740	0.750	-0.510
2020/01/31 14:47:34.4	359.750	-0.750	0.720	-0.510
2020/01/31 14:47:34.5	359.740	-0.760	0.700	-0.520
2020/01/31 14:47:34.6	359.740	-0.770	0.660	-0.520
2020/01/31 14:47:34.7	359.740	-0.770	0.630	-0.520
2020/01/31 14:47:34.8	359.740	-0.770	0.590	-0.520
2020/01/31 14:47:34.9	359.730	-0.760	0.540	-0.520
2020/01/31 14:47:35.0	359.730	-0.760	0.490	-0.520
2020/01/31 14:47:35.1	359.720	-0.750	0.430	-0.510
2020/01/31 14:47:35.2	359.720	-0.730	0.380	-0.510
2020/01/31 14:47:35.3	359.720	-0.720	0.310	-0.500
2020/01/31 14:47:35.4	359.710	-0.700	0.250	-0.490
2020/01/31 14:47:35.5	359.710	-0.680	0.190	-0.480
2020/01/31 14:47:35.6	359.710	-0.660	0.120	-0.470
2020/01/31 14:47:35.7	359.690	-0.630	0.050	-0.460
2020/01/31 14:47:35.8	359.690	-0.600	-0.020	-0.450
2020/01/31 14:47:35.9	359.690	-0.570	-0.090	-0.430
2020/01/31 14:47:36.0	359.690	-0.540	-0.160	-0.410
2020/01/31 14:47:36.1	359.690	-0.510	-0.220	-0.390
2020/01/31 14:47:36.2	359.690	-0.470	-0.290	-0.370
2020/01/31 14:47:36.3	359.680	-0.430	-0.360	-0.350
2020/01/31 14:47:36.4	359.680	-0.390	-0.420	-0.320
2020/01/31 14:47:36.5	359.680	-0.340	-0.480	-0.290
2020/01/31 14:47:36.6	359.680	-0.300	-0.540	-0.260
2020/01/31 14:47:36.7	359.690	-0.250	-0.590	-0.230
2020/01/31 14:47:36.8	359.690	-0.200	-0.640	-0.190
2020/01/31 14:47:36.9	359.680	-0.160	-0.690	-0.150
2020/01/31 14:47:37.0	359.680	-0.100	-0.730	-0.110
2020/01/31 14:47:37.1	359.680	-0.050	-0.770	-0.060
2020/01/31 14:47:37.2	359.670	-0.000	-0.810	-0.010
2020/01/31 14:47:37.3	359.660	0.050	-0.840	0.040
2020/01/31 14:47:37.4	359.660	0.100	-0.860	0.090
2020/01/31 14:47:37.5	359.650	0.150	-0.880	0.140
2020/01/31 14:47:37.6	359.640	0.200	-0.900	0.200
2020/01/31 14:47:37.7	359.650	0.250	-0.910	0.260
2020/01/31 14:47:37.8	359.640	0.300	-0.920	0.310
2020/01/31 14:47:37.9	359.620	0.350	-0.930	0.370
2020/01/31 14:47:38.0	359.610	0.390	-0.940	0.420
2020/01/31 14:47:38.1	359.600	0.440	-0.940	0.470
2020/01/31 14:47:38.2	359.580	0.480	-0.930	0.530
2020/01/31 14:47:38.3	359.570	0.520	-0.930	0.570
2020/01/31 14:47:38.4	359.560	0.560	-0.930	0.620
2020/01/31 14:47:38.5	359.550	0.600	-0.920	0.660
2020/01/31 14:47:38.6	359.540	0.630	-0.910	0.700
2020/01/31 14:47:38.7	359.540	0.660	-0.900	0.740
2020/01/31 14:47:38.8	359.530	0.690	-0.900	0.770
2020/01/31 14:47:38.9	359.530	0.720	-0.890	0.790
2020/01/31 14:47:39.0	359.530	0.740	-0.880	0.810
2020/01/31 14:47:39.1	359.540	0.760	-0.880	0.820
2020/01/31 14:47:39.2	359.540	0.780	-0.870	0.820
2020/01/31 14:47:39.3	359.550	0.790	-0.860	0.820
2020/01/31 14:47:39.4	359.560	0.810	-0.860	0.820
2020/01/31 14:47:39.5	359.570	0.820	-0.850	0.810
2020/01/31 14:47:39.6	359.580	0.820	-0.850	0.790
2020/01/31 14:47:39.7	359.590	0.830	-0.850	0.760
2020/01/31 14:47:39.8	359.610	0.830	-0.840	0.740
2020/01/31 14:47:39.9	359.630	0.830	-0.840	0.710
2020/01/31 14:47:40.0	359.650	0.820	-0.830	0.680
2020/01/31 14:47:40.1	359.670	0.810	-0.820	0.640
2020/01/31 14:47:40.2	359.690	0.800	-0.810	0.610
2020/01/31 14:47:40.3	359.710	0.790	-0.800	0.560
2020/01/31 14:47:40.4	359.740	0.770	-0.790	0.520
2020/01/31 14:47:40.5	359.760	0.750	-0.770	0.470
2020/01/31 14:47:40.6	359.780	0.730	-0.750	0.420
2020/01/31 14:47:40.7	359.810	0.700	-0.730	0.370
2020/01/31 14:47:40.8	359.840	0.670	-0.700	0.310
2020/01/31 14:47:40.9	359.860	0.640	-0.670	0.250
2020/01/31 14:47:41.0	359.890	0.610	-0.640	0.200
2020/01/31 14:47:41.1	359.920	0.570	-0.610	0.140
2020/01/31 14:47:41.2	359.940	0.530	-0.570	0.080
2020/01/31 14:47:41.3	359.970	0.480	-0.520	0.010
2020/01/31 14:47:41.4	0.000	0.430	-0.480	-0.050
2020/01/31 14:47:41.5	0.020	0.380	-0.430	-0.110
2020/01/31 14:47:41.6	0.050	0.330	-0.380	-0.170
2020/01/31 14:47:41.7	0.070	0.280	-0.320	-0.230
2020/01/31 14:47:41.8	0.100	0.220	-0.260	-0.280
2020/01/31 14:47:41.9	0.120	0.170	-0.200	-0.340
2020/01/31 14:47:42.0	0.150	0.110	-0.140	-0.390
2020/01/31 14:47:42.1	0.170	0.050	-0.080	-0.440
2020/01/31 14:47:42.2	0.190	-0.010	-0.010	-0.480
2020/01/31 14:47:42.3	0.220	-0.070	0.050	-0.530
2020/01/31 14:47:42.4	0.240	-0.140	0.120	-0.560
2020/01/31 14:47:42.5	0.250	-0.200	0.190	-0.600
2020/01/31 14:47:42.6	0.270	-0.260	0.250	-0.630
2020/01/31 14:47:42.7	0.280	-0.320	0.320	-0.660
2020/01/31 14:47:42.8	0.290	-0.370	0.380	-0.690
2020/01/31 14:47:42.9	0.310	-0.430	0.440	-0.710
2020/01/31 14:47:43.0	0.320	-0.480	0.500	-0.720
2020/01/31 14:47:43.1	0.320	-0.540	0.560	-0.730
2020/01/31 14:47:43.2	0.330	-0.590	0.620	-0.740
2020/01/31 14:47:43.3	0.330	-0.630	0.670	-0.740
2020/01/31 14:47:43.4	0.330	-0.680	0.720	-0.730
2020/01/31 14:47:43.5	0.320	-0.720	0.770	-0.720
2020/01/31 14:47:43.6	0.310	-0.750	0.820	-0.700
2020/01/31 14:47:43.7	0.300	-0.790	0.850	-0.680
2020/01/31 14:47:43.8	0.280	-0.810	0.890	-0.660
2020/01/31 14:47:43.9	0.260	-0.840	0.930	-0.630
2020/01/31 14:47:44.0	0.230	-0.860	0.960	-0.590
2020/01/31 14:47:44.1	0.200	-0.870	0.990	-0.550
2020/01/31 14:47:44.2	0.170	-0.890	1.010	-0.500
2020/01/31 14:47:44.3	0.130	-0.890	1.030	-0.450
2020/01/31 14:47:44.4	0.080	-0.890	1.040	-0.400
2020/01/31 14:47:44.5	0.030	-0.890	1.050	-0.340
2020/01/31 14:47:44.6	359.980	-0.890	1.050	-0.280
2020/01/31 14:47:44.7	359.910	-0.870	1.040	-0.220
2020/01/31 14:47:44.8	359.850	-0.860	1.030	-0.160
2020/01/31 14:47:44.9	359.790	-0.840	1.000	-0.100
2020/01/31 14:47:45.0	359.730	-0.820	0.970	-0.040
2020/01/31 14:47:45.1	359.670	-0.790	0.930	0.020
2020/01/31 14:47:45.2	359.600	-0.760	0.880	0.070
2020/01/31 14:47:45.3	359.540	-0.730	0.810	0.120
2020/01/31 14:47:45.4	359.480	-0.690	0.740	0.170
2020/01/31 14:47:45.5	359.430	-0.650	0.660	0.210
2020/01/31 14:47:45.6	359.370	-0.610	0.580	0.240
2020/01/31 14:47:45.7	359.320	-0.560	0.480	0.270
2020/01/31 14:47:45.8	359.270	-0.510	0.380	0.290
2020/01/31 14:47:45.9	359.220	-0.460	0.260	0.310
2020/01/31 14:47:46.0	359.180	-0.400	0.140	0.320
2020/01/31 14:47:46.1	359.140	-0.350	0.020	0.320
2020/01/31 14:47:46.2	359.110	-0.290	-0.110	0.320
2020/01/31 14:47:46.3	359.090	-0.230	-0.240	0.310
2020/01/31 14:47:46.4	359.060	-0.170	-0.380	0.300
2020/01/31 14:47:46.5	359.050	-0.110	-0.520	0.290
2020/01/31 14:47:46.6	359.030	-0.040	-0.650	0.270
2020/01/31 14:47:46.7	359.030	0.020	-0.780	0.240
2020/01/31 14:47:46.8	359.030	0.080	-0.920	0.210
2020/01/31 14:47:46.9	359.030	0.150	-1.050	0.180
2020/01/31 14:47:47.0	359.030	0.210	-1.180	0.150
2020/01/31 14:47:47.1	359.040	0.270	-1.300	0.120
2020/01/31 14:47:47.2	359.050	0.330	-1.410	0.090
2020/01/31 14:47:47.3	359.070	0.390	-1.510	0.050
2020/01/31 14:47:47.4	359.090	0.450	-1.610	0.020
2020/01/31 14:47:47.5	359.120	0.500	-1.700	-0.020
2020/01/31 14:47:47.6	359.150	0.560	-1.770	-0.060
2020/01/31 14:47:47.7	359.210	0.600	-1.840	-0.090
2020/01/31 14:47:47.8	359.260	0.650	-1.890	-0.130
2020/01/31 14:47:47.9	359.300	0.690	-1.930	-0.170
2020/01/31 14:47:48.0	359.350	0.730	-1.970	-0.210
2020/01/31 14:47:48.1	359.410	0.760	-1.990	-0.250
2020/01/31 14:47:48.2	359.460	0.790	-2.000	-0.300
2020/01/31 14:47:48.3	359.530	0.810	-1.990	-0.340
2020/01/31 14:47:48.4	359.590	0.830	-1.980	-0.380
2020/01/31 14:47:48.5	359.660	0.840	-1.950	-0.420
2020/01/31 14:47:48.6	359.730	0.840	-1.920	-0.460
2020/01/31 14:47:48.7	359.810	0.840	-1.870	-0.510
2020/01/31 14:47:48.8	359.880	0.830	-1.810	-0.540
2020/01/31 14:47:48.9	359.950	0.820	-1.740	-0.580
2020/01/31 14:47:49.0	0.010	0.800	-1.660	-0.610
2020/01/31 14:47:49.1	0.070	0.780	-1.570	-0.650
2020/01/31 14:47:49.2	0.130	0.750	-1.480	-0.670
2020/01/31 14:47:49.3	0.190	0.710	-1.370	-0.700
2020/01/31 14:47:49.4	0.240	0.670	-1.260	-0.720
2020/01/31 14:47:49.5	0.290	0.620	-1.140	-0.750
2020/01/31 14:47:49.6	0.340	0.570	-1.010	-0.760
2020/01/31 14:47:49.7	0.380	0.510	-0.880	-0.780
2020/01/31 14:47:49.8	0.410	0.450	-0.750	-0.790
2020/01/31 14:47:49.9	0.450	0.380	-0.620	-0.800
2020/01/31 14:47:50.0	0.470	0.310	-0.480	-0.800
2020/01/31 14:47:50.1	0.490	0.240	-0.340	-0.800
2020/01/31 14:47:50.2	0.510	0.170	-0.200	-0.800
2020/01/31 14:47:50.3	0.520	0.100	-0.060	-0.800
2020/01/31 14:47:50.4	0.530	0.020	0.080	-0.790
2020/01/31 14:47:50.5	0.540	-0.050	0.210	-0.780
2020/01/31 14:47:50.6	0.530	-0.130	0.340	-0.760
2020/01/31 14:47:50.7	0.510	-0.200	0.460	-0.750
2020/01/31 14:47:50.8	0.510	-0.270	0.580	-0.720
2020/01/31 14:47:50.9	0.490	-0.340	0.700	-0.700
2020/01/31 14:47:51.0	0.470	-0.410	0.800	-0.670
2020/01/31 14:47:51.1	0.450	-0.470	0.900	-0.630
2020/01/31 14:47:51.2	0.420	-0.530	0.990	-0.600
2020/01/31 14:47:51.3	0.390	-0.590	1.070	-0.560
2020/01/31 14:47:51.4	0.360	-0.640	1.140	-0.520
2020/01/31 14:47:51.5	0.320	-0.690	1.210	-0.480
2020/01/31 14:47:51.6	0.290	-0.730	1.260	-0.440
2020/01/31 14:47:51.7	0.240	-0.760	1.300	-0.400
2020/01/31 14:47:51.8	0.200	-0.790	1.330	-0.350
2020/01/31 14:47:51.9	0.150	-0.810	1.350	-0.310
2020/01/31 14:47:52.0	0.110	-0.830	1.350	-0.270
2020/01/31 14:47:52.1	0.060	-0.840	1.350	-0.220
2020/01/31 14:47:52.2	0.010	-0.840	1.330	-0.180
2020/01/31 14:47:52.3	359.960	-0.840	1.300	-0.140
2020/01/31 14:47:52.4	359.910	-0.830	1.260	-0.100
2020/01/31 14:47:52.5	359.860	-0.810	1.220	-0.060
2020/01/31 14:47:52.6	359.800	-0.780	1.160	-0.020
2020/01/31 14:47:52.7	359.750	-0.750	1.100	0.020
2020/01/31 14:47:52.8	359.690	-0.720	1.020	0.060
2020/01/31 14:47:52.9	359.640	-0.680	0.940	0.090
2020/01/31 14:47:53.0	359.580	-0.630	0.860	0.130
2020/01/31 14:47:53.1	359.530	-0.580	0.760	0.170
2020/01/31 14:47:53.2	359.470	-0.530	0.670	0.200
2020/01/31 14:47:53.3	359.420	-0.470	0.570	0.230
2020/01/31 14:47:53.4	359.360	-0.410	0.470	0.260
2020/01/31 14:47:53.5	359.310	-0.340	0.360	0.290
2020/01/31 14:47:53.6	359.250	-0.280	0.260	0.320
2020/01/31 14:47:53.7	359.200	-0.210	0.160	0.340
2020/01/31 14:47:53.8	359.150	-0.140	0.050	0.360
2020/01/31 14:47:53.9	359.100	-0.070	-0.050	0.380
2020/01/31 14:47:54.0	359.050	-0.000	-0.150	0.390
2020/01/31 14:47:54.1	359.010	0.060	-0.250	0.410
2020/01/31 14:47:54.2	358.960	0.130	-0.350	0.420
2020/01/31 14:47:54.3	358.920	0.200	-0.440	0.420
2020/01/31 14:47:54.4	358.890	0.260	-0.530	0.430
2020/01/31 14:47:54.5	358.850	0.320	-0.620	0.430
2020/01/31 14:47:54.6	358.820	0.380	-0.700	0.430
2020/01/31 14:47:54.7	358.790	0.430	-0.770	0.420
2020/01/31 14:47:54.8	358.770	0.480	-0.840	0.420
2020/01/31 14:47:54.9	358.750	0.530	-0.910	0.410
2020/01/31 14:47:55.0	358.740	0.580	-0.970	0.400
2020/01/31 14:47:55.1	358.730	0.620	-1.030	0.390
2020/01/31 14:47:55.2	358.720	0.650	-1.080	0.370
2020/01/31 14:47:55.3	358.720	0.680	-1.130	0.360
2020/01/31 14:47:55.4	358.730	0.710	-1.170	0.340
2020/01/31 14:47:55.5	358.740	0.740	-1.210	0.320
2020/01/31 14:47:55.6	358.760	0.760	-1.240	0.290
2020/01/31 14:47:55.7	358.800	0.770	-1.260	0.260
2020/01/31 14:47:55.8	358.820	0.780	-1.280	0.230
2020/01/31 14:47:55.9	358.850	0.790	-1.300	0.200
2020/01/31 14:47:56.0	358.890	0.790	-1.310	0.160
2020/01/31 14:47:56.1	358.930	0.790	-1.310	0.120
2020/01/31 14:47:56.2	358.970	0.790	-1.310	0.080
2020/01/31 14:47:56.3	359.010	0.780	-1.300	0.040
2020/01/31 14:47:56.4	359.060	0.760	-1.290	-0.000
2020/01/31 14:47:56.5	359.110	0.750	-1.270	-0.050
2020/01/31 14:47:56.6	359.160	0.720	-1.250	-0.090
2020/01/31 14:47:56.7	359.210	0.700	-1.220	-0.140
2020/01/31 14:47:56.8	359.270	0.670	-1.190	-0.190
2020/01/31 14:47:56.9	359.320	0.640	-1.150	-0.240
2020/01/31 14:47:57.0	359.370	0.600	-1.100	-0.280
2020/01/31 14:47:57.1	359.430	0.560	-1.050	-0.330
2020/01/31 14:47:57.2	359.480	0.520	-0.990	-0.370
2020/01/31 14:47:57.3	359.530	0.480	-0.930	-0.410
2020/01/31 14:47:57.4	359.580	0.430	-0.860	-0.450
2020/01/31 14:47:57.5	359.630	0.380	-0.790	-0.490
2020/01/31 14:47:57.6	359.680	0.330	-0.720	-0.520
2020/01/31 14:47:57.7	359.720	0.280	-0.640	-0.550
2020/01/31 14:47:57.8	359.760	0.230	-0.550	-0.580
2020/01/31 14:47:57.9	359.800	0.180	-0.470	-0.600
2020/01/31 14:47:58.0	359.830	0.120	-0.380	-0.610
2020/01/31 14:47:58.1	359.850	0.060	-0.280	-0.620
2020/01/31 14:47:58.2	359.870	0.010	-0.190	-0.620
2020/01/31 14:47:58.3	359.890	-0.050	-0.090	-0.610
2020/01/31 14:47:58.4	359.890	-0.100	0.010	-0.600
2020/01/31 14:47:58.5	359.900	-0.160	0.110	-0.580
2020/01/31 14:47:58.6	359.890	-0.220	0.200	-0.560
2020/01/31 14:47:58.7	359.870	-0.270	0.300	-0.530
2020/01/31 14:47:58.8	359.860	-0.320	0.390	-0.500
2020/01/31 14:47:58.9	359.840	-0.380	0.480	-0.470
2020/01/31 14:47:59.0	359.820	-0.430	0.560	-0.430
2020/01/31 14:47:59.1	359.800	-0.480	0.640	-0.390
2020/01/31 14:47:59.2	359.770	-0.520	0.710	-0.350
2020/01/31 14:47:59.3	359.740	-0.570	0.780	-0.300
2020/01/31 14:47:59.4	359.710	-0.610	0.830	-0.260
2020/01/31 14:47:59.5	359.670	-0.650	0.880	-0.220
2020/01/31 14:47:59.6	359.640	-0.680	0.910	-0.180
2020/01/31 14:47:59.7	359.580	-0.720	0.940	-0.150
2020/01/31 14:47:59.8	359.540	-0.740	0.960	-0.110
2020/01/31 14:47:59.9	359.510	-0.770	0.970	-0.080
2020/01/31 14:48:00.0	359.470	-0.790	0.960	-0.050
2020/01/31 14:48:00.1	359.430	-0.800	0.950	-0.020
2020/01/31 14:48:00.2	359.400	-0.810	0.930	0.010
2020/01/31 14:48:00.3	359.360	-0.820	0.890	0.030
2020/01/31 14:48:00.4	359.320	-0.820	0.850	0.050
2020/01/31 14:48:00.5	359.290	-0.820	0.800	0.060
2020/01/31 14:48:00.6	359.260	-0.810	0.740	0.080
2020/01/31 14:48:00.7	359.200	-0.800	0.680	0.080
2020/01/31 14:48:00.8	359.170	-0.780	0.600	0.090
2020/01/31 14:48:00.9	359.140	-0.760	0.520	0.080
2020/01/31 14:48:01.0	359.120	-0.740	0.440	0.080
2020/01/31 14:48:01.1	359.100	-0.710	0.340	0.070
2020/01/31 14:48:01.2	359.080	-0.670	0.250	0.060
2020/01/31 14:48:01.3	359.060	-0.640	0.150	0.050
2020/01/31 14:48:01.4	359.040	-0.600	0.050	0.040
2020/01/31 14:48:01.5	359.030	-0.550	-0.050	0.020
2020/01/31 14:48:01.6	359.020	-0.500	-0.160	-0.000
2020/01/31 14:48:01.7	359.030	-0.450	-0.250	-0.030
2020/01/31 14:48:01.8	359.020	-0.400	-0.350	-0.060
2020/01/31 14:48:01.9	359.020	-0.350	-0.450	-0.080
2020/01/31 14:48:02.0	359.030	-0.290	-0.540	-0.110
2020/01/31 14:48:02.1	359.030	-0.240	-0.630	-0.140
2020/01/31 14:48:02.2	359.040	-0.180	-0.710	-0.160
2020/01/31 14:48:02.3	359.050	-0.130	-0.790	-0.190
2020/01/31 14:48:02.4	359.060	-0.070	-0.870	-0.220
2020/01/31 14:48:02.5	359.070	-0.020	-0.930	-0.240
2020/01/31 14:48:02.6	359.080	0.040	-0.990	-0.270
2020/01/31 14:48:02.7	359.090	0.090	-1.040	-0.290
2020/01/31 14:48:02.8	359.110	0.140	-1.090	-0.310
2020/01/31 14:48:02.9	359.120	0.180	-1.120	-0.330
2020/01/31 14:48:03.0	359.140	0.230	-1.150	-0.350
2020/01/31 14:48:03.1	359.160	0.270	-1.170	-0.370
2020/01/31 14:48:03.2	359.170	0.300	-1.180	-0.380
2020/01/31 14:48:03.3	359.190	0.340	-1.180	-0.390
2020/01/31 14:48:03.4	359.210	0.370	-1.180	-0.400
2020/01/31 14:48:03.5	359.220	0.390	-1.170	-0.410
2020/01/31 14:48:03.6	359.240	0.420	-1.150	-0.410
2020/01/31 14:48:03.7	359.250	0.430	-1.120	-0.410
2020/01/31 14:48:03.8	359.270	0.450	-1.090	-0.410
2020/01/31 14:48:03.9	359.280	0.460	-1.050	-0.410
2020/01/31 14:48:04.0	359.300	0.470	-1.010	-0.400
2020/01/31 14:48:04.1	359.310	0.470	-0.970	-0.390
2020/01/31 14:48:04.2	359.330	0.480	-0.920	-0.370
2020/01/31 14:48:04.3	359.340	0.480	-0.870	-0.350
2020/01/31 14:48:04.4	359.360	0.470	-0.820	-0.330
2020/01/31 14:48:04.5	359.370	0.470	-0.760	-0.310
2020/01/31 14:48:04.6	359.390	0.460	-0.710	-0.280
2020/01/31 14:48:04.7	359.420	0.450	-0.650	-0.260
2020/01/31 14:48:04.8	359.440	0.440	-0.600	-0.230
2020/01/31 14:48:04.9	359.450	0.430	-0.540	-0.200
2020/01/31 14:48:05.0	359.460	0.420	-0.490	-0.160
2020/01/31 14:48:05.1	359.480	0.410	-0.440	-0.130
2020/01/31 14:48:05.2	359.490	0.400	-0.390	-0.090
2020/01/31 14:48:05.3	359.500	0.390	-0.340	-0.060
2020/01/31 14:48:05.4	359.510	0.380	-0.300	-0.020
2020/01/31 14:48:05.5	359.520	0.370	-0.250	0.010
2020/01/31 14:48:05.6	359.520	0.370	-0.210	0.050
2020/01/31 14:48:05.7	359.540	0.360	-0.180	0.080
2020/01/31 14:48:05.8	359.540	0.360	-0.140	0.110
2020/01/31 14:48:05.9	359.550	0.350	-0.110	0.140
2020/01/31 14:48:06.0	359.550	0.350	-0.090	0.180
2020/01/31 14:48:06.1	359.550	0.350	-0.060	0.200
2020/01/31 14:48:06.2	359.550	0.350	-0.040	0.230
2020/01/31 14:48:06.3	359.550	0.360	-0.020	0.260
2020/01/31 14:48:06.4	359.550	0.360	-0.010	0.280
2020/01/31 14:48:06.5	359.550	0.370	0.000	0.300
2020/01/31 14:48:06.6	359.550	0.370	0.010	0.320
2020/01/31 14:48:06.7	359.530	0.380	0.020	0.340
2020/01/31 14:48:06.8	359.530	0.390	0.020	0.350
2020/01/31 14:48:06.9	359.530	0.390	0.020	0.370
2020/01/31 14:48:07.0	359.530	0.400	0.020	0.380
2020/01/31 14:48:07.1	359.530	0.400	0.020	0.380
2020/01/31 14:48:07.2	359.530	0.410	0.010	0.390
2020/01/31 14:48:07.3	359.530	0.410	0.010	0.390
2020/01/31 14:48:07.4	359.530	0.410	-0.000	0.390
2020/01/31 14:48:07.5	359.540	0.410	-0.010	0.380
2020/01/31 14:48:07.6	359.540	0.410	-0.020	0.370
2020/01/31 14:48:07.7	359.540	0.410	-0.020	0.360
2020/01/31 14:48:07.8	359.550	0.400	-0.030	0.340
2020/01/31 14:48:07.9	359.550	0.390	-0.040	0.320
2020/01/31 14:48:08.0	359.560	0.380	-0.050	0.290
2020/01/31 14:48:08.1	359.560	0.360	-0.050	0.260
2020/01/31 14:48:08.2	359.570	0.340	-0.060	0.230
2020/01/31 14:48:08.3	359.580	0.320	-0.070	0.200
2020/01/31 14:48:08.4	359.590	0.300	-0.070	0.170
2020/01/31 14:48:08.5	359.600	0.270	-0.070	0.130
2020/01/31 14:48:08.6	359.610	0.240	-0.070	0.090
2020/01/31 14:48:08.7	359.610	0.210	-0.070	0.050
2020/01/31 14:48:08.8	359.620	0.170	-0.070	0.010
2020/01/31 14:48:08.9	359.620	0.140	-0.060	-0.020
2020/01/31 14:48:09.0	359.630	0.100	-0.050	-0.060
2020/01/31 14:48:09.1	359.640	0.060	-0.040	-0.100
2020/01/31 14:48:09.2	359.640	0.010	-0.020	-0.140
2020/01/31 14:48:09.3	359.650	-0.030	-0.010	-0.170
2020/01/31 14:48:09.4	359.650	-0.080	0.010	-0.210
2020/01/31 14:48:09.5	359.660	-0.120	0.030	-0.250
2020/01/31 14:48:09.6	359.660	-0.170	0.060	-0.290
2020/01/31 14:48:09.7	359.670	-0.220	0.080	-0.320
2020/01/31 14:48:09.8	359.680	-0.260	0.110	-0.360
2020/01/31 14:48:09.9	359.680	-0.310	0.130	-0.400
2020/01/31 14:48:10.0	359.690	-0.350	0.150	-0.440
2020/01/31 14:48:10.1	359.700	-0.390	0.180	-0.480
2020/01/31 14:48:10.2	359.710	-0.430	0.200	-0.510
2020/01/31 14:48:10.3	359.720	-0.470	0.220	-0.550
2020/01/31 14:48:10.4	359.730	-0.510	0.240	-0.590
2020/01/31 14:48:10.5	359.740	-0.540	0.250	-0.630
2020/01/31 14:48:10.6	359.760	-0.570	0.260	-0.670
2020/01/31 14:48:10.7	359.770	-0.590	0.270	-0.710
2020/01/31 14:48:10.8	359.780	-0.610	0.280	-0.740
2020/01/31 14:48:10.9	359.800	-0.630	0.280	-0.780
2020/01/31 14:48:11.0	359.810	-0.640	0.280	-0.810
2020/01/31 14:48:11.1	359.830	-0.650	0.270	-0.830
2020/01/31 14:48:11.2	359.840	-0.650	0.260	-0.850
2020/01/31 14:48:11.3	359.860	-0.650	0.250	-0.870
2020/01/31 14:48:11.4	359.870	-0.640	0.230	-0.890
2020/01/31 14:48:11.5	359.880	-0.630	0.210	-0.900
2020/01/31 14:48:11.6	359.900	-0.620	0.190	-0.910
2020/01/31 14:48:11.7	359.900	-0.600	0.170	-0.910
2020/01/31 14:48:11.8	359.910	-0.580	0.140	-0.900
2020/01/31 14:48:11.9	359.920	-0.550	0.110	-0.890
2020/01/31 14:48:12.0	359.920	-0.520	0.080	-0.870
2020/01/31 14:48:12.1	359.920	-0.500	0.040	-0.850
2020/01/31 14:48:12.2	359.920	-0.460	0.010	-0.830
2020/01/31 14:48:12.3	359.920	-0.430	-0.030	-0.800
2020/01/31 14:48:12.4	359.910	-0.400	-0.060	-0.760
2020/01/31 14:48:12.5	359.900	-0.360	-0.100	-0.730
2020/01/31 14:48:12.6	359.890	-0.330	-0.140	-0.690
2020/01/31 14:48:12.7	359.870	-0.290	-0.170	-0.650
2020/01/31 14:48:12.8	359.860	-0.260	-0.210	-0.610
2020/01/31 14:48:12.9	359.840	-0.220	-0.250	-0.570
2020/01/31 14:48:13.0	359.820	-0.190	-0.290	-0.520
2020/01/31 14:48:13.1	359.800	-0.150	-0.330	-0.480
2020/01/31 14:48:13.2	359.780	-0.120	-0.370	-0.440
2020/01/31 14:48:13.3	359.760	-0.090	-0.410	-0.400
2020/01/31 14:48:13.4	359.740	-0.060	-0.450	-0.370
2020/01/31 14:48:13.5	359.730	-0.030	-0.490	-0.330
2020/01/31 14:48:13.6	359.710	-0.000	-0.530	-0.300
2020/01/31 14:48:13.7	359.710	0.020	-0.570	-0.270
2020/01/31 14:48:13.8	359.690	0.050	-0.610	-0.240
2020/01/31 14:48:13.9	359.680	0.070	-0.650	-0.220
2020/01/31 14:48:14.0	359.670	0.090	-0.690	-0.200
2020/01/31 14:48:14.1	359.660	0.110	-0.730	-0.180
2020/01/31 14:48:14.2	359.650	0.130	-0.770	-0.170
2020/01/31 14:48:14.3	359.650	0.150	-0.800	-0.160
2020/01/31 14:48:14.4	359.650	0.170	-0.840	-0.150
2020/01/31 14:48:14.5	359.660	0.190	-0.870	-0.150
2020/01/31 14:48:14.6	359.670	0.210	-0.910	-0.150
2020/01/31 14:48:14.7	359.690	0.230	-0.930	-0.150
2020/01/31 14:48:14.8	359.700	0.240	-0.960	-0.160
2020/01/31 14:48:14.9	359.710	0.260	-0.990	-0.160
2020/01/31 14:48:15.0	359.730	0.270	-1.010	-0.170
2020/01/31 14:48:15.1	359.740	0.290	-1.030	-0.170
2020/01/31 14:48:15.2	359.760	0.300	-1.040	-0.180
2020/01/31 14:48:15.3	359.770	0.320	-1.050	-0.190
2020/01/31 14:48:15.4	359.790	0.330	-1.060	-0.200
2020/01/31 14:48:15.5	359.810	0.340	-1.060	-0.200
2020/01/31 14:48:15.6	359.820	0.350	-1.060	-0.210
2020/01/31 14:48:15.7	359.840	0.360	-1.050	-0.220
2020/01/31 14:48:15.8	359.850	0.360	-1.030	-0.230
2020/01/31 14:48:15.9	359.870	0.370	-1.020	-0.240
2020/01/31 14:48:16.0	359.880	0.370	-1.000	-0.250
2020/01/31 14:48:16.1	359.900	0.380	-0.970	-0.260
2020/01/31 14:48:16.2	359.910	0.380	-0.940	-0.270
2020/01/31 14:48:16.3	359.930	0.380	-0.910	-0.280
2020/01/31 14:48:16.4	359.950	0.380	-0.880	-0.290
2020/01/31 14:48:16.5	359.960	0.380	-0.850	-0.300
2020/01/31 14:48:16.6	359.980	0.380	-0.810	-0.320
2020/01/31 14:48:16.7	359.990	0.370	-0.770	-0.330
2020/01/31 14:48:16.8	0.010	0.370	-0.730	-0.340
2020/01/31 14:48:16.9	0.030	0.370	-0.690	-0.350
2020/01/31 14:48:17.0	0.050	0.360	-0.650	-0.360
2020/01/31 14:48:17.1	0.080	0.350	-0.610	-0.360
2020/01/31 14:48:17.2	0.100	0.350	-0.570	-0.370
2020/01/31 14:48:17.3	0.120	0.340	-0.530	-0.370
2020/01/31 14:48:17.4	0.140	0.340	-0.490	-0.370
2020/01/31 14:48:17.5	0.160	0.330	-0.450	-0.370
2020/01/31 14:48:17.6	0.180	0.320	-0.410	-0.370
2020/01/31 14:48:17.7	0.200	0.320	-0.380	-0.370
2020/01/31 14:48:17.8	0.220	0.310	-0.340	-0.360
2020/01/31 14:48:17.9	0.240	0.300	-0.300	-0.350
2020/01/31 14:48:18.0	0.260	0.300	-0.260	-0.340
2020/01/31 14:48:18.1	0.270	0.290	-0.230	-0.330
2020/01/31 14:48:18.2	0.280	0.280	-0.190	-0.320
2020/01/31 14:48:18.3	0.300	0.270	-0.160	-0.300
2020/01/31 14:48:18.4	0.310	0.260	-0.120	-0.290
2020/01/31 14:48:18.5	0.320	0.260	-0.090	-0.270
2020/01/31 14:48:18.6	0.330	0.250	-0.050	-0.260
2020/01/31 14:48:18.7	0.320	0.240	-0.020	-0.250
2020/01/31 14:48:18.8	0.330	0.230	0.010	-0.230
2020/01/31 14:48:18.9	0.340	0.220	0.040	-0.220
2020/01/31 14:48:19.0	0.340	0.210	0.070	-0.200
2020/01/31 14:48:19.1	0.350	0.190	0.100	-0.190
2020/01/31 14:48:19.2	0.350	0.180	0.130	-0.170
2020/01/31 14:48:19.3	0.350	0.170	0.160	-0.150
2020/01/31 14:48:19.4	0.360	0.160	0.190	-0.140
2020/01/31 14:48:19.5	0.360	0.140	0.210	-0.120
2020/01/31 14:48:19.6	0.360	0.130	0.240	-0.100
2020/01/31 14:48:19.7	0.350	0.120	0.260	-0.080
2020/01/31 14:48:19.8	0.350	0.100	0.290	-0.070
2020/01/31 14:48:19.9	0.350	0.090	0.310	-0.050
2020/01/31 14:48:20.0	0.350	0.070	0.340	-0.030
2020/01/31 14:48:20.1	0.350	0.050	0.360	-0.010
2020/01/31 14:48:20.2	0.340	0.040	0.390	0.010
2020/01/31 14:48:20.3	0.340	0.020	0.410	0.040
2020/01/31 14:48:20.4	0.330	0.000	0.440	0.060
2020/01/31 14:48:20.5	0.320	-0.020	0.460	0.080
2020/01/31 14:48:20.6	0.310	-0.040	0.480	0.110
2020/01/31 14:48:20.7	0.280	-0.060	0.510	0.130
2020/01/31 14:48:20.8	0.270	-0.080	0.530	0.150
2020/01/31 14:48:20.9	0.250	-0.100	0.550	0.170
2020/01/31 14:48:21.0	0.230	-0.120	0.560	0.200
2020/01/31 14:48:21.1	0.210	-0.140	0.580	0.220
2020/01/31 14:48:21.2	0.190	-0.160	0.590	0.240
2020/01/31 14:48:21.3	0.170	-0.190	0.590	0.250
2020/01/31 14:48:21.4	0.150	-0.210	0.600	0.260
2020/01/31 14:48:21.5	0.130	-0.230	0.600	0.270
2020/01/31 14:48:21.6	0.100	-0.250	0.590	0.280
2020/01/31 14:48:21.7	0.070	-0.270	0.580	0.290
2020/01/31 14:48:21.8	0.050	-0.290	0.560	0.290
2020/01/31 14:48:21.9	0.030	-0.310	0.540	0.280
2020/01/31 14:48:22.0	0.010	-0.320	0.520	0.280
2020/01/31 14:48:22.1	359.990	-0.340	0.490	0.270
2020/01/31 14:48:22.2	359.980	-0.350	0.450	0.250
2020/01/31 14:48:22.3	359.960	-0.360	0.410	0.230
2020/01/31 14:48:22.4	359.950	-0.370	0.360	0.210
2020/01/31 14:48:22.5	359.930	-0.380	0.310	0.190
2020/01/31 14:48:22.6	359.920	-0.380	0.260	0.160
2020/01/31 14:48:22.7	359.900	-0.380	0.210	0.130
2020/01/31 14:48:22.8	359.890	-0.380	0.150	0.100
2020/01/31 14:48:22.9	359.880	-0.380	0.080	0.070
2020/01/31 14:48:23.0	359.870	-0.370	0.020	0.030
2020/01/31 14:48:23.1	359.860	-0.370	-0.050	-0.000
2020/01/31 14:48:23.2	359.850	-0.350	-0.120	-0.040
2020/01/31 14:48:23.3	359.840	-0.340	-0.180	-0.070
2020/01/31 14:48:23.4	359.840	-0.330	-0.250	-0.110
2020/01/31 14:48:23.5	359.830	-0.310	-0.320	-0.140
2020/01/31 14:48:23.6	359.830	-0.290	-0.390	-0.170
2020/01/31 14:48:23.7	359.820	-0.270	-0.450	-0.210
2020/01/31 14:48:23.8	359.820	-0.240	-0.510	-0.240
2020/01/31 14:48:23.9	359.820	-0.220	-0.570	-0.270
2020/01/31 14:48:24.0	359.810	-0.190	-0.630	-0.300
2020/01/31 14:48:24.1	359.810	-0.160	-0.680	-0.320
2020/01/31 14:48:24.2	359.810	-0.140	-0.730	-0.350
2020/01/31 14:48:24.3	359.800	-0.110	-0.770	-0.370
2020/01/31 14:48:24.4	359.800	-0.080	-0.810	-0.390
2020/01/31 14:48:24.5	359.800	-0.050	-0.840	-0.410
2020/01/31 14:48:24.6	359.800	-0.020	-0.870	-0.420
2020/01/31 14:48:24.7	359.810	0.010	-0.890	-0.440
2020/01/31 14:48:24.8	359.810	0.040	-0.910	-0.450
2020/01/31 14:48:24.9	359.810	0.060	-0.920	-0.460
2020/01/31 14:48:25.0	359.810	0.090	-0.930	-0.460
2020/01/31 14:48:25.1	359.810	0.110	-0.930	-0.470
2020/01/31 14:48:25.2	359.810	0.130	-0.930	-0.470
2020/01/31 14:48:25.3	359.810	0.150	-0.930	-0.470
2020/01/31 14:48:25.4	359.810	0.160	-0.920	-0.470
2020/01/31 14:48:25.5	359.810	0.180	-0.910	-0.470
2020/01/31 14:48:25.6	359.810	0.190	-0.890	-0.460
2020/01/31 14:48:25.7	359.810	0.200	-0.870	-0.450
2020/01/31 14:48:25.8	359.810	0.200	-0.850	-0.450
2020/01/31 14:48:25.9	359.810	0.200	-0.840	-0.450
2020/01/31 14:48:26.0	359.810	0.200	-0.820	-0.450
2020/01/31 14:48:26.1	359.820	0.200	-0.800	-0.440
2020/01/31 14:48:26.2	359.820	0.190	-0.780	-0.450
2020/01/31 14:48:26.3	359.830	0.190	-0.750	-0.450
2020/01/31 14:48:26.4	359.840	0.180	-0.740	-0.450
2020/01/31 14:48:26.5	359.850	0.160	-0.720	-0.460
2020/01/31 14:48:26.6	359.860	0.150	-0.700	-0.460
2020/01/31 14:48:26.7	359.880	0.130	-0.680	-0.480
2020/01/31 14:48:26.8	359.890	0.120	-0.670	-0.490
2020/01/31 14:48:26.9	359.920	0.100	-0.660	-0.510
2020/01/31 14:48:27.0	359.940	0.080	-0.640	-0.520
2020/01/31 14:48:27.1	359.970	0.060	-0.640	-0.540
2020/01/31 14:48:27.2	0.000	0.040	-0.630	-0.560
2020/01/31 14:48:27.3	0.030	0.020	-0.620	-0.580
2020/01/31 14:48:27.4	0.070	0.000	-0.620	-0.600
2020/01/31 14:48:27.5	0.100	-0.020	-0.610	-0.620
2020/01/31 14:48:27.6	0.140	-0.030	-0.610	-0.640
2020/01/31 14:48:27.7	0.160	-0.050	-0.600	-0.660
2020/01/31 14:48:27.8	0.200	-0.060	-0.600	-0.670
2020/01/31 14:48:27.9	0.230	-0.080	-0.590	-0.680
2020/01/31 14:48:28.0	0.270	-0.090	-0.580	-0.690
2020/01/31 14:48:28.1	0.300	-0.100	-0.570	-0.690
2020/01/31 14:48:28.2	0.340	-0.110	-0.560	-0.690
2020/01/31 14:48:28.3	0.370	-0.110	-0.550	-0.690
2020/01/31 14:48:28.4	0.410	-0.120	-0.540	-0.680
2020/01/31 14:48:28.5	0.440	-0.120	-0.520	-0.670
2020/01/31 14:48:28.6	0.460	-0.120	-0.500	-0.660
2020/01/31 14:48:28.7	0.500	-0.120	-0.470	-0.630
2020/01/31 14:48:28.8	0.520	-0.110	-0.450	-0.610
2020/01/31 14:48:28.9	0.550	-0.110	-0.420	-0.580
2020/01/31 14:48:29.0	0.570	-0.100	-0.390	-0.550
2020/01/31 14:48:29.1	0.590	-0.090	-0.360	-0.520
2020/01/31 14:48:29.2	0.610	-0.070	-0.320	-0.480
2020/01/31 14:48:29.3	0.620	-0.060	-0.290	-0.440
2020/01/31 14:48:29.4	0.640	-0.050	-0.250	-0.400
2020/01/31 14:48:29.5	0.650	-0.030	-0.210	-0.350
2020/01/31 14:48:29.6	0.660	-0.010	-0.170	-0.310
2020/01/31 14:48:29.7	0.670	0.010	-0.130	-0.260
2020/01/31 14:48:29.8	0.670	0.030	-0.090	-0.210
2020/01/31 14:48:29.9	0.670	0.050	-0.050	-0.160
2020/01/31 14:48:30.0	0.680	0.070	-0.010	-0.110
2020/01/31 14:48:30.1	0.670	0.090	0.030	-0.060
2020/01/31 14:48:30.2	0.670	0.110	0.060	-0.010
2020/01/31 14:48:30.3	0.660	0.130	0.100	0.040
2020/01/31 14:48:30.4	0.660	0.160	0.130	0.090
2020/01/31 14:48:30.5	0.650	0.180	0.160	0.140
2020/01/31 14:48:30.6	0.640	0.200	0.190	0.190
2020/01/31 14:48:30.7	0.620	0.220	0.210	0.240
2020/01/31 14:48:30.8	0.600	0.240	0.230	0.280
2020/01/31 14:48:30.9	0.590	0.250	0.250	0.320
2020/01/31 14:48:31.0	0.570	0.270	0.270	0.360
2020/01/31 14:48:31.1	0.560	0.290	0.280	0.400
2020/01/31 14:48:31.2	0.540	0.300	0.290	0.440
2020/01/31 14:48:31.3	0.530	0.310	0.290	0.470
2020/01/31 14:48:31.4	0.520	0.330	0.300	0.500
2020/01/31 14:48:31.5	0.500	0.340	0.300	0.520
2020/01/31 14:48:31.6	0.490	0.340	0.290	0.550
2020/01/31 14:48:31.7	0.490	0.350	0.290	0.560
2020/01/31 14:48:31.8	0.480	0.360	0.280	0.580
2020/01/31 14:48:31.9	0.470	0.360	0.270	0.590
2020/01/31 14:48:32.0	0.460	0.360	0.260	0.600
2020/01/31 14:48:32.1	0.450	0.360	0.240	0.600
2020/01/31 14:48:32.2	0.450	0.360	0.230	0.600
2020/01/31 14:48:32.3	0.440	0.350	0.210	0.600
2020/01/31 14:48:32.4	0.440	0.340	0.190	0.590
2020/01/31 14:48:32.5	0.440	0.340	0.170	0.580
2020/01/31 14:48:32.6	0.440	0.320	0.160	0.570
2020/01/31 14:48:32.7	0.450	0.310	0.140	0.550
2020/01/31 14:48:32.8	0.440	0.300	0.120	0.530
2020/01/31 14:48:32.9	0.440	0.280	0.110	0.510
2020/01/31 14:48:33.0	0.450	0.260	0.090	0.490
2020/01/31 14:48:33.1	0.440	0.240	0.070	0.460
2020/01/31 14:48:33.2	0.450	0.220	0.060	0.430
2020/01/31 14:48:33.3	0.450	0.200	0.040	0.400
2020/01/31 14:48:33.4	0.450	0.180	0.030	0.370
2020/01/31 14:48:33.5	0.450	0.160	0.010	0.340
2020/01/31 14:48:33.6	0.440	0.130	-0.000	0.300
2020/01/31 14:48:33.7	0.440	0.110	-0.010	0.260
2020/01/31 14:48:33.8	0.440	0.080	-0.030	0.230
2020/01/31 14:48:33.9	0.440	0.060	-0.040	0.190
2020/01/31 14:48:34.0	0.440	0.030	-0.050	0.160
2020/01/31 14:48:34.1	0.440	0.010	-0.060	0.120
2020/01/31 14:48:34.2	0.440	-0.010	-0.080	0.090
2020/01/31 14:48:34.3	0.440	-0.040	-0.090	0.050
2020/01/31 14:48:34.4	0.440	-0.060	-0.100	0.020
2020/01/31 14:48:34.5	0.430	-0.080	-0.120	-0.020
2020/01/31 14:48:34.6	0.430	-0.100	-0.140	-0.060
2020/01/31 14:48:34.7	0.440	-0.120	-0.150	-0.090
2020/01/31 14:48:34.8	0.440	-0.140	-0.170	-0.130
2020/01/31 14:48:34.9	0.440	-0.160	-0.190	-0.170
2020/01/31 14:48:35.0	0.440	-0.170	-0.210	-0.210
2020/01/31 14:48:35.1	0.440	-0.190	-0.240	-0.250
2020/01/31 14:48:35.2	0.440	-0.200	-0.270	-0.290
2020/01/31 14:48:35.3	0.450	-0.210	-0.300	-0.320
2020/01/31 14:48:35.4	0.450	-0.220	-0.330	-0.360
2020/01/31 14:48:35.5	0.450	-0.220	-0.360	-0.400
2020/01/31 14:48:35.6	0.450	-0.230	-0.400	-0.440
2020/01/31 14:48:35.7	0.450	-0.230	-0.440	-0.490
2020/01/31 14:48:35.8	0.450	-0.230	-0.470	-0.530
2020/01/31 14:48:35.9	0.450	-0.240	-0.510	-0.570
2020/01/31 14:48:36.0	0.450	-0.240	-0.550	-0.600
2020/01/31 14:48:36.1	0.450	-0.230	-0.590	-0.640
2020/01/31 14:48:36.2	0.450	-0.230	-0.630	-0.680
2020/01/31 14:48:36.3	0.460	-0.230	-0.670	-0.710
2020/01/31 14:48:36.4	0.460	-0.220	-0.710	-0.750
2020/01/31 14:48:36.5	0.460	-0.220	-0.740	-0.790
2020/01/31 14:48:36.6	0.470	-0.210	-0.780	-0.820
2020/01/31 14:48:36.7	0.480	-0.210	-0.800	-0.860
2020/01/31 14:48:36.8	0.480	-0.200	-0.830	-0.900
2020/01/31 14:48:36.9	0.490	-0.190	-0.860	-0.930
2020/01/31 14:48:37.0	0.500	-0.190	-0.890	-0.960
2020/01/31 14:48:37.1	0.520	-0.180	-0.910	-1.000
2020/01/31 14:48:37.2	0.530	-0.170	-0.930	-1.030
2020/01/31 14:48:37.3	0.550	-0.160	-0.940	-1.060
2020/01/31 14:48:37.4	0.560	-0.160	-0.950	-1.090
2020/01/31 14:48:37.5	0.580	-0.150	-0.960	-1.110
2020/01/31 14:48:37.6	0.610	-0.150	-0.960	-1.140
2020/01/31 14:48:37.7	0.620	-0.140	-0.960	-1.160
2020/01/31 14:48:37.8	0.640	-0.140	-0.950	-1.190
2020/01/31 14:48:37.9	0.670	-0.130	-0.940	-1.200
2020/01/31 14:48:38.0	0.690	-0.130	-0.920	-1.220
2020/01/31 14:48:38.1	0.720	-0.130	-0.900	-1.230
2020/01/31 14:48:38.2	0.750	-0.130	-0.880	-1.240
2020/01/31 14:48:38.3	0.770	-0.130	-0.850	-1.250
2020/01/31 14:48:38.4	0.800	-0.130	-0.810	-1.250
2020/01/31 14:48:38.5	0.830	-0.130	-0.770	-1.250
2020/01/31 14:48:38.6	0.860	-0.130	-0.730	-1.250
2020/01/31 14:48:38.7	0.870	-0.140	-0.680	-1.240
2020/01/31 14:48:38.8	0.900	-0.140	-0.630	-1.230
2020/01/31 14:48:38.9	0.920	-0.150	-0.570	-1.210
2020/01/31 14:48:39.0	0.950	-0.160	-0.520	-1.190
2020/01/31 14:48:39.1	0.970	-0.170	-0.450	-1.170
2020/01/31 14:48:39.2	1.000	-0.180	-0.390	-1.150
2020/01/31 14:48:39.3	1.020	-0.190	-0.330	-1.120
2020/01/31 14:48:39.4	1.040	-0.210	-0.260	-1.100
2020/01/31 14:48:39.5	1.060	-0.230	-0.190	-1.070
2020/01/31 14:48:39.6	1.080	-0.240	-0.130	-1.040
2020/01/31 14:48:39.7	1.090	-0.260	-0.060	-1.010
2020/01/31 14:48:39.8	1.100	-0.280	0.000	-0.970
2020/01/31 14:48:39.9	1.120	-0.290	0.060	-0.940
2020/01/31 14:48:40.0	1.140	-0.310	0.120	-0.910
2020/01/31 14:48:40.1	1.150	-0.330	0.180	-0.870
2020/01/31 14:48:40.2	1.160	-0.350	0.230	-0.840
2020/01/31 14:48:40.3	1.170	-0.360	0.280	-0.800
2020/01/31 14:48:40.4	1.180	-0.380	0.320	-0.760
2020/01/31 14:48:40.5	1.190	-0.390	0.370	-0.720
2020/01/31 14:48:40.6	1.200	-0.400	0.400	-0.690
2020/01/31 14:48:40.7	1.220	-0.410	0.430	-0.640
2020/01/31 14:48:40.8	1.220	-0.420	0.460	-0.600
2020/01/31 14:48:40.9	1.220	-0.420	0.480	-0.560
2020/01/31 14:48:41.0	1.230	-0.420	0.490	-0.510
2020/01/31 14:48:41.1	1.220	-0.420	0.500	-0.460
2020/01/31 14:48:41.2	1.220	-0.410	0.510	-0.410
2020/01/31 14:48:41.3	1.220	-0.400	0.510	-0.360
2020/01/31 14:48:41.4	1.210	-0.390	0.510	-0.310
2020/01/31 14:48:41.5	1.210	-0.370	0.500	-0.260
2020/01/31 14:48:41.6	1.200	-0.350	0.490	-0.200
2020/01/31 14:48:41.7	1.180	-0.330	0.480	-0.150
2020/01/31 14:48:41.8	1.170	-0.300	0.460	-0.090
2020/01/31 14:48:41.9	1.160	-0.270	0.430	-0.030
2020/01/31 14:48:42.0	1.140	-0.240	0.410	0.040
2020/01/31 14:48:42.1	1.130	-0.200	0.380	0.100
2020/01/31 14:48:42.2	1.110	-0.160	0.340	0.160
2020/01/31 14:48:42.3	1.090	-0.110	0.310	0.220
2020/01/31 14:48:42.4	1.060	-0.070	0.270	0.280
2020/01/31 14:48:42.5	1.040	-0.020	0.230	0.340
2020/01/31 14:48:42.6	1.020	0.030	0.180	0.400
2020/01/31 14:48:42.7	0.990	0.090	0.140	0.460
2020/01/31 14:48:42.8	0.960	0.140	0.100	0.520
2020/01/31 14:48:42.9	0.930	0.190	0.050	0.570
2020/01/31 14:48:43.0	0.900	0.250	0.000	0.620
2020/01/31 14:48:43.1	0.870	0.300	-0.040	0.680
2020/01/31 14:48:43.2	0.830	0.350	-0.090	0.720
2020/01/31 14:48:43.3	0.800	0.400	-0.140	0.770
2020/01/31 14:48:43.4	0.760	0.450	-0.180	0.810
2020/01/31 14:48:43.5	0.730	0.500	-0.230	0.850
2020/01/31 14:48:43.6	0.690	0.550	-0.270	0.880
2020/01/31 14:48:43.7	0.650	0.590	-0.310	0.900
2020/01/31 14:48:43.8	0.620	0.630	-0.360	0.920
2020/01/31 14:48:43.9	0.580	0.660	-0.400	0.930
2020/01/31 14:48:44.0	0.550	0.690	-0.440	0.940
2020/01/31 14:48:44.1	0.520	0.720	-0.480	0.940
2020/01/31 14:48:44.2	0.490	0.740	-0.520	0.930
2020/01/31 14:48:44.3	0.460	0.750	-0.560	0.920
2020/01/31 14:48:44.4	0.430	0.770	-0.590	0.900
2020/01/31 14:48:44.5	0.410	0.770	-0.630	0.870
2020/01/31 14:48:44.6	0.390	0.780	-0.660	0.840
2020/01/31 14:48:44.7	0.390	0.770	-0.690	0.800
2020/01/31 14:48:44.8	0.370	0.770	-0.720	0.750
2020/01/31 14:48:44.9	0.360	0.760	-0.750	0.700
2020/01/31 14:48:45.0	0.360	0.740	-0.780	0.650
2020/01/31 14:48:45.1	0.350	0.720	-0.810	0.590
2020/01/31 14:48:45.2	0.350	0.700	-0.830	0.520
2020/01/31 14:48:45.3	0.350	0.670	-0.860	0.450
2020/01/31 14:48:45.4	0.360	0.640	-0.880	0.380
2020/01/31 14:48:45.5	0.370	0.610	-0.900	0.300
2020/01/31 14:48:45.6	0.380	0.570	-0.920	0.220
2020/01/31 14:48:45.7	0.390	0.530	-0.930	0.130
2020/01/31 14:48:45.8	0.400	0.490	-0.940	0.050
2020/01/31 14:48:45.9	0.420	0.450	-0.950	-0.040
2020/01/31 14:48:46.0	0.440	0.400	-0.960	-0.130
2020/01/31 14:48:46.1	0.470	0.360	-0.960	-0.220
2020/01/31 14:48:46.2	0.490	0.310	-0.960	-0.310
2020/01/31 14:48:46.3	0.520	0.260	-0.960	-0.410
2020/01/31 14:48:46.4	0.550	0.210	-0.960	-0.500
2020/01/31 14:48:46.5	0.580	0.170	-0.950	-0.590
2020/01/31 14:48:46.6	0.620	0.120	-0.940	-0.680
2020/01/31 14:48:46.7	0.660	0.070	-0.930	-0.780
2020/01/31 14:48:46.8	0.700	0.030	-0.910	-0.870
2020/01/31 14:48:46.9	0.750	-0.020	-0.900	-0.970
2020/01/31 14:48:47.0	0.790	-0.060	-0.880	-1.060
2020/01/31 14:48:47.1	0.840	-0.100	-0.860	-1.150
2020/01/31 14:48:47.2	0.890	-0.140	-0.840	-1.240
2020/01/31 14:48:47.3	0.940	-0.180	-0.810	-1.320
2020/01/31 14:48:47.4	0.990	-0.220	-0.780	-1.410
2020/01/31 14:48:47.5	1.050	-0.250	-0.750	-1.490
2020/01/31 14:48:47.6	1.100	-0.290	-0.720	-1.570
2020/01/31 14:48:47.7	1.140	-0.320	-0.690	-1.640
2020/01/31 14:48:47.8	1.190	-0.350	-0.650	-1.710
2020/01/31 14:48:47.9	1.250	-0.370	-0.610	-1.770
2020/01/31 14:48:48.0	1.300	-0.400	-0.570	-1.830
2020/01/31 14:48:48.1	1.350	-0.420	-0.530	-1.880
2020/01/31 14:48:48.2	1.400	-0.440	-0.480	-1.920
2020/01/31 14:48:48.3	1.440	-0.460	-0.430	-1.960
2020/01/31 14:48:48.4	1.490	-0.470	-0.370	-1.980
2020/01/31 14:48:48.5	1.520	-0.490	-0.320	-1.990
2020/01/31 14:48:48.6	1.560	-0.500	-0.250	-2.000
2020/01/31 14:48:48.7	1.590	-0.510	-0.190	-2.000
2020/01/31 14:48:48.8	1.620	-0.520	-0.120	-1.980
2020/01/31 14:48:48.9	1.640	-0.520	-0.040	-1.960
2020/01/31 14:48:49.0	1.650	-0.530	0.030	-1.920
2020/01/31 14:48:49.1	1.670	-0.530	0.110	-1.880
2020/01/31 14:48:49.2	1.670	-0.540	0.190	-1.830
2020/01/31 14:48:49.3	1.670	-0.540	0.260	-1.770
2020/01/31 14:48:49.4	1.670	-0.540	0.340	-1.700
2020/01/31 14:48:49.5	1.660	-0.540	0.420	-1.630
2020/01/31 14:48:49.6	1.640	-0.540	0.490	-1.540
2020/01/31 14:48:49.7	1.610	-0.540	0.560	-1.450
2020/01/31 14:48:49.8	1.590	-0.540	0.630	-1.360
2020/01/31 14:48:49.9	1.560	-0.540	0.690	-1.270
2020/01/31 14:48:50.0	1.530	-0.530	0.750	-1.170
2020/01/31 14:48:50.1	1.500	-0.530	0.800	-1.070
2020/01/31 14:48:50.2	1.460	-0.520	0.840	-0.970
2020/01/31 14:48:50.3	1.420	-0.520	0.880	-0.880
2020/01/31 14:48:50.4	1.380	-0.510	0.910	-0.780
2020/01/31 14:48:50.5	1.340	-0.500	0.930	-0.690
2020/01/31 14:48:50.6	1.300	-0.490	0.940	-0.590
2020/01/31 14:48:50.7	1.250	-0.480	0.950	-0.510
2020/01/31 14:48:50.8	1.210	-0.460	0.950	-0.420
2020/01/31 14:48:50.9	1.160	-0.450	0.940	-0.340
2020/01/31 14:48:51.0	1.120	-0.430	0.920	-0.250
2020/01/31 14:48:51.1	1.070	-0.410	0.890	-0.180
2020/01/31 14:48:51.2	1.030	-0.380	0.860	-0.110
2020/01/31 14:48:51.3	0.990	-0.360	0.820	-0.040
2020/01/31 14:48:51.4	0.950	-0.330	0.770	0.030
2020/01/31 14:48:51.5	0.910	-0.300	0.720	0.090
2020/01/31 14:48:51.6	0.870	-0.270	0.660	0.140
2020/01/31 14:48:51.7	0.830	-0.230	0.600	0.190
2020/01/31 14:48:51.8	0.800	-0.190	0.530	0.240
2020/01/31 14:48:51.9	0.770	-0.150	0.450	0.280
2020/01/31 14:48:52.0	0.740	-0.110	0.370	0.320
2020/01/31 14:48:52.1	0.720	-0.070	0.290	0.360
2020/01/31 14:48:52.2	0.700	-0.020	0.210	0.390
2020/01/31 14:48:52.3	0.670	0.020	0.130	0.410
2020/01/31 14:48:52.4	0.660	0.070	0.040	0.440
2020/01/31 14:48:52.5	0.640	0.120	-0.040	0.460
2020/01/31 14:48:52.6	0.630	0.160	-0.120	0.480
2020/01/31 14:48:52.7	0.610	0.210	-0.210	0.490
2020/01/31 14:48:52.8	0.600	0.250	-0.290	0.500
2020/01/31 14:48:52.9	0.590	0.300	-0.360	0.520
2020/01/31 14:48:53.0	0.580	0.340	-0.430	0.520
2020/01/31 14:48:53.1	0.570	0.380	-0.500	0.530
2020/01/31 14:48:53.2	0.560	0.410	-0.570	0.530
2020/01/31 14:48:53.3	0.560	0.440	-0.630	0.540
2020/01/31 14:48:53.4	0.550	0.470	-0.680	0.530
2020/01/31 14:48:53.5	0.540	0.490	-0.730	0.530
2020/01/31 14:48:53.6	0.530	0.510	-0.780	0.520
2020/01/31 14:48:53.7	0.530	0.530	-0.810	0.510
2020/01/31 14:48:53.8	0.520	0.540	-0.850	0.500
2020/01/31 14:48:53.9	0.510	0.540	-0.880	0.480
2020/01/31 14:48:54.0	0.500	0.540	-0.900	0.460
2020/01/31 14:48:54.1	0.490	0.540	-0.920	0.440
2020/01/31 14:48:54.2	0.490	0.530	-0.940	0.410
2020/01/31 14:48:54.3	0.480	0.520	-0.950	0.380
2020/01/31 14:48:54.4	0.470	0.500	-0.960	0.340
2020/01/31 14:48:54.5	0.460	0.470	-0.960	0.300
2020/01/31 14:48:54.6	0.460	0.450	-0.960	0.260
2020/01/31 14:48:54.7	0.450	0.420	-0.960	0.210
2020/01/31 14:48:54.8	0.450	0.380	-0.950	0.160
2020/01/31 14:48:54.9	0.450	0.340	-0.950	0.110
2020/01/31 14:48:55.0	0.440	0.300	-0.940	0.060
2020/01/31 14:48:55.1	0.440	0.260	-0.920	0.000
2020/01/31 14:48:55.2	0.440	0.220	-0.910	-0.050
2020/01/31 14:48:55.3	0.450	0.170	-0.890	-0.110
2020/01/31 14:48:55.4	0.450	0.130	-0.870	-0.180
2020/01/31 14:48:55.5	0.460	0.080	-0.860	-0.240
2020/01/31 14:48:55.6	0.470	0.030	-0.840	-0.300
2020/01/31 14:48:55.7	0.480	-0.010	-0.820	-0.370
2020/01/31 14:48:55.8	0.490	-0.060	-0.810	-0.440
2020/01/31 14:48:55.9	0.510	-0.100	-0.790	-0.510
2020/01/31 14:48:56.0	0.530	-0.140	-0.780	-0.580
2020/01/31 14:48:56.1	0.560	-0.170	-0.760	-0.650
2020/01/31 14:48:56.2	0.590	-0.210	-0.750	-0.720
2020/01/31 14:48:56.3	0.620	-0.240	-0.740	-0.790
2020/01/31 14:48:56.4	0.650	-0.270	-0.740	-0.850
2020/01/31 14:48:56.5	0.680	-0.290	-0.730	-0.920
2020/01/31 14:48:56.6	0.720	-0.310	-0.730	-0.990
2020/01/31 14:48:56.7	0.760	-0.320	-0.720	-1.050
2020/01/31 14:48:56.8	0.800	-0.330	-0.720	-1.110
2020/01/31 14:48:56.9	0.840	-0.340	-0.720	-1.170
2020/01/31 14:48:57.0	0.880	-0.340	-0.720	-1.230
2020/01/31 14:48:57.1	0.930	-0.340	-0.720	-1.280
2020/01/31 14:48:57.2	0.970	-0.330	-0.720	-1.330
2020/01/31 14:48:57.3	1.010	-0.320	-0.720	-1.370
2020/01/31 14:48:57.4	1.060	-0.300	-0.720	-1.410
2020/01/31 14:48:57.5	1.100	-0.290	-0.720	-1.450
2020/01/31 14:48:57.6	1.140	-0.260	-0.720	-1.480
2020/01/31 14:48:57.7	1.180	-0.240	-0.710	-1.500
2020/01/31 14:48:57.8	1.220	-0.210	-0.710	-1.520
2020/01/31 14:48:57.9	1.260	-0.180	-0.700	-1.530
2020/01/31 14:48:58.0	1.300	-0.150	-0.700	-1.540
2020/01/31 14:48:58.1	1.340	-0.110	-0.690	-1.550
2020/01/31 14:48:58.2	1.370	-0.080	-0.690	-1.540
2020/01/31 14:48:58.3	1.410	-0.040	-0.680	-1.530
2020/01/31 14:48:58.4	1.440	-0.000	-0.670	-1.520
2020/01/31 14:48:58.5	1.470	0.040	-0.660	-1.500
2020/01/31 14:48:58.6	1.490	0.080	-0.640	-1.480
2020/01/31 14:48:58.7	1.520	0.110	-0.630	-1.460
2020/01/31 14:48:58.8	1.540	0.150	-0.610	-1.420
2020/01/31 14:48:58.9	1.550	0.190	-0.590	-1.390
2020/01/31 14:48:59.0	1.570	0.230	-0.560	-1.350
2020/01/31 14:48:59.1	1.580	0.260	-0.530	-1.310
2020/01/31 14:48:59.2	1.590	0.290	-0.500	-1.260
2020/01/31 14:48:59.3	1.590	0.320	-0.470	-1.210
2020/01/31 14:48:59.4	1.590	0.350	-0.430	-1.160
2020/01/31 14:48:59.5	1.590	0.370	-0.380	-1.100
2020/01/31 14:48:59.6	1.590	0.390	-0.340	-1.040
2020/01/31 14:48:59.7	1.570	0.410	-0.280	-0.970
2020/01/31 14:48:59.8	1.550	0.430	-0.230	-0.900
2020/01/31 14:48:59.9	1.540	0.440	-0.170	-0.830
2020/01/31 14:49:00.0	1.520	0.450	-0.110	-0.760
2020/01/31 14:49:00.1	1.500	0.450	-0.050	-0.680
2020/01/31 14:49:00.2	1.470	0.450	0.020	-0.600
2020/01/31 14:49:00.3	1.440	0.450	0.090	-0.520
2020/01/31 14:49:00.4	1.410	0.440	0.160	-0.440
2020/01/31 14:49:00.5	1.380	0.430	0.230	-0.350
2020/01/31 14:49:00.6	1.350	0.410	0.300	-0.270
2020/01/31 14:49:00.7	1.320	0.390	0.370	-0.190
2020/01/31 14:49:00.8	1.280	0.370	0.440	-0.110
2020/01/31 14:49:00.9	1.250	0.340	0.510	-0.030
2020/01/31 14:49:01.0	1.210	0.310	0.580	0.040
2020/01/31 14:49:01.1	1.170	0.280	0.650	0.110
2020/01/31 14:49:01.2	1.130	0.240	0.710	0.180
2020/01/31 14:49:01.3	1.090	0.210	0.770	0.240
2020/01/31 14:49:01.4	1.050	0.170	0.830	0.300
2020/01/31 14:49:01.5	1.010	0.120	0.880	0.350
2020/01/31 14:49:01.6	0.970	0.080	0.930	0.390
2020/01/31 14:49:01.7	0.920	0.030	0.980	0.440
2020/01/31 14:49:01.8	0.890	-0.010	1.010	0.470
2020/01/31 14:49:01.9	0.850	-0.060	1.040	0.490
2020/01/31 14:49:02.0	0.810	-0.100	1.060	0.510
2020/01/31 14:49:02.1	0.780	-0.150	1.080	0.530
2020/01/31 14:49:02.2	0.740	-0.190	1.090	0.530
2020/01/31 14:49:02.3	0.710	-0.230	1.090	0.530
2020/01/31 14:49:02.4	0.680	-0.270	1.080	0.530
2020/01/31 14:49:02.5	0.660	-0.310	1.070	0.520
2020/01/31 14:49:02.6	0.640	-0.340	1.050	0.500
2020/01/31 14:49:02.7	0.620	-0.370	1.020	0.480
2020/01/31 14:49:02.8	0.600	-0.400	0.980	0.460
2020/01/31 14:49:02.9	0.580	-0.430	0.940	0.430
2020/01/31 14:49:03.0	0.570	-0.450	0.890	0.400
2020/01/31 14:49:03.1	0.560	-0.470	0.830	0.370
2020/01/31 14:49:03.2	0.540	-0.480	0.770	0.330
2020/01/31 14:49:03.3	0.530	-0.490	0.700	0.300
2020/01/31 14:49:03.4	0.530	-0.500	0.620	0.260
2020/01/31 14:49:03.5	0.520	-0.500	0.540	0.220
2020/01/31 14:49:03.6	0.510	-0.500	0.460	0.170
2020/01/31 14:49:03.7	0.500	-0.500	0.370	0.120
2020/01/31 14:49:03.8	0.490	-0.490	0.280	0.080
2020/01/31 14:49:03.9	0.480	-0.480	0.190	0.040
2020/01/31 14:49:04.0	0.470	-0.470	0.100	-0.000
2020/01/31 14:49:04.1	0.450	-0.450	0.000	-0.040
2020/01/31 14:49:04.2	0.440	-0.440	-0.090	-0.080
2020/01/31 14:49:04.3	0.430	-0.420	-0.190	-0.110
2020/01/31 14:49:04.4	0.410	-0.400	-0.280	-0.150
2020/01/31 14:49:04.5	0.400	-0.370	-0.370	-0.180
2020/01/31 14:49:04.6	0.380	-0.350	-0.460	-0.210
2020/01/31 14:49:04.7	0.350	-0.330	-0.550	-0.240
2020/01/31 14:49:04.8	0.340	-0.300	-0.630	-0.270
2020/01/31 14:49:04.9	0.320	-0.280	-0.720	-0.290
2020/01/31 14:49:05.0	0.300	-0.250	-0.800	-0.310
2020/01/31 14:49:05.1	0.290	-0.220	-0.870	-0.330
2020/01/31 14:49:05.2	0.270	-0.200	-0.940	-0.350
2020/01/31 14:49:05.3	0.250	-0.170	-1.010	-0.370
2020/01/31 14:49:05.4	0.240	-0.150	-1.070	-0.380
2020/01/31 14:49:05.5	0.230	-0.120	-1.130	-0.400
2020/01/31 14:49:05.6	0.220	-0.100	-1.190	-0.410
2020/01/31 14:49:05.7	0.210	-0.070	-1.240	-0.430
2020/01/31 14:49:05.8	0.210	-0.050	-1.280	-0.450
2020/01/31 14:49:05.9	0.200	-0.030	-1.320	-0.460
2020/01/31 14:49:06.0	0.200	-0.000	-1.350	-0.470
2020/01/31 14:49:06.1	0.190	0.020	-1.380	-0.490
2020/01/31 14:49:06.2	0.200	0.040	-1.410	-0.500
2020/01/31 14:49:06.3	0.200	0.060	-1.430	-0.510
2020/01/31 14:49:06.4	0.210	0.090	-1.440	-0.530
2020/01/31 14:49:06.5	0.220	0.110	-1.450	-0.540
2020/01/31 14:49:06.6	0.230	0.130	-1.460	-0.560
2020/01/31 14:49:06.7	0.250	0.150	-1.460	-0.570
2020/01/31 14:49:06.8	0.270	0.170	-1.460	-0.590
2020/01/31 14:49:06.9	0.300	0.190	-1.450	-0.610
2020/01/31 14:49:07.0	0.330	0.210	-1.440	-0.630
2020/01/31 14:49:07.1	0.360	0.230	-1.430	-0.650
2020/01/31 14:49:07.2	0.400	0.250	-1.420	-0.670
2020/01/31 14:49:07.3	0.440	0.270	-1.400	-0.690
2020/01/31 14:49:07.4	0.480	0.290	-1.380	-0.720
2020/01/31 14:49:07.5	0.530	0.310	-1.360	-0.740
2020/01/31 14:49:07.6	0.580	0.330	-1.330	-0.770
2020/01/31 14:49:07.7	0.630	0.350	-1.300	-0.790
2020/01/31 14:49:07.8	0.680	0.370	-1.270	-0.820
2020/01/31 14:49:07.9	0.740	0.390	-1.230	-0.840
2020/01/31 14:49:08.0	0.800	0.410	-1.190	-0.860
2020/01/31 14:49:08.1	0.860	0.430	-1.150	-0.890
2020/01/31 14:49:08.2	0.920	0.440	-1.110	-0.910
2020/01/31 14:49:08.3	0.980	0.460	-1.060	-0.920
2020/01/31 14:49:08.4	1.040	0.470	-1.010	-0.940
2020/01/31 14:49:08.5	1.090	0.480	-0.950	-0.950
2020/01/31 14:49:08.6	1.150	0.490	-0.900	-0.950
2020/01/31 14:49:08.7	1.210	0.500	-0.830	-0.960
2020/01/31 14:49:08.8	1.260	0.500	-0.770	-0.960
2020/01/31 14:49:08.9	1.310	0.510	-0.700	-0.950
2020/01/31 14:49:09.0	1.360	0.510	-0.630	-0.940
2020/01/31 14:49:09.1	1.400	0.500	-0.550	-0.930
2020/01/31 14:49:09.2	1.440	0.500	-0.470	-0.910
2020/01/31 14:49:09.3	1.470	0.490	-0.390	-0.890
2020/01/31 14:49:09.4	1.500	0.470	-0.310	-0.860
2020/01/31 14:49:09.5	1.530	0.460	-0.220	-0.830
2020/01/31 14:49:09.6	1.540	0.440	-0.130	-0.800
2020/01/31 14:49:09.7	1.550	0.420	-0.040	-0.760
2020/01/31 14:49:09.8	1.560	0.400	0.040	-0.720
2020/01/31 14:49:09.9	1.560	0.370	0.130	-0.680
2020/01/31 14:49:10.0	1.560	0.340	0.220	-0.640
2020/01/31 14:49:10.1	1.550	0.310	0.300	-0.590
2020/01/31 14:49:10.2	1.530	0.270	0.390	-0.550
2020/01/31 14:49:10.3	1.510	0.230	0.470	-0.500
2020/01/31 14:49:10.4	1.490	0.190	0.540	-0.450
2020/01/31 14:49:10.5	1.460	0.150	0.620	-0.400
2020/01/31 14:49:10.6	1.420	0.110	0.680	-0.360
2020/01/31 14:49:10.7	1.380	0.070	0.740	-0.310
2020/01/31 14:49:10.8	1.340	0.020	0.800	-0.260
2020/01/31 14:49:10.9	1.300	-0.020	0.850	-0.220
2020/01/31 14:49:11.0	1.260	-0.060	0.890	-0.170
2020/01/31 14:49:11.1	1.210	-0.110	0.930	-0.140
2020/01/31 14:49:11.2	1.160	-0.150	0.960	-0.100
2020/01/31 14:49:11.3	1.110	-0.190	0.980	-0.060
2020/01/31 14:49:11.4	1.070	-0.230	0.990	-0.030
2020/01/31 14:49:11.5	1.020	-0.270	0.990	-0.000
2020/01/31 14:49:11.6	0.970	-0.300	0.990	0.020
2020/01/31 14:49:11.7	0.930	-0.340	0.980	0.040
2020/01/31 14:49:11.8	0.880	-0.370	0.960	0.060
2020/01/31 14:49:11.9	0.830	-0.400	0.930	0.070
2020/01/31 14:49:12.0	0.790	-0.420	0.900	0.090
2020/01/31 14:49:12.1	0.750	-0.450	0.860	0.090
2020/01/31 14:49:12.2	0.700	-0.470	0.810	0.100
2020/01/31 14:49:12.3	0.660	-0.480	0.760	0.100
2020/01/31 14:49:12.4	0.620	-0.500	0.710	0.100
2020/01/31 14:49:12.5	0.590	-0.510	0.650	0.090
2020/01/31 14:49:12.6	0.550	-0.520	0.590	0.090
2020/01/31 14:49:12.7	0.500	-0.520	0.520	0.080
2020/01/31 14:49:12.8	0.470	-0.520	0.460	0.070
2020/01/31 14:49:12.9	0.440	-0.520	0.380	0.060
2020/01/31 14:49:13.0	0.410	-0.520	0.310	0.040
2020/01/31 14:49:13.1	0.380	-0.510	0.240	0.030
2020/01/31 14:49:13.2	0.350	-0.500	0.170	0.010
2020/01/31 14:49:13.3	0.320	-0.490	0.100	-0.010
2020/01/31 14:49:13.4	0.300	-0.470	0.030	-0.030
2020/01/31 14:49:13.5	0.270	-0.450	-0.040	-0.040
2020/01/31 14:49:13.6	0.250	-0.430	-0.110	-0.060
2020/01/31 14:49:13.7	0.220	-0.410	-0.170	-0.090
2020/01/31 14:49:13.8	0.210	-0.390	-0.230	-0.100
2020/01/31 14:49:13.9	0.190	-0.370	-0.290	-0.120
2020/01/31 14:49:14.0	0.170	-0.340	-0.340	-0.140
2020/01/31 14:49:14.1	0.160	-0.310	-0.390	-0.150
2020/01/31 14:49:14.2	0.140	-0.280	-0.440	-0.170
2020/01/31 14:49:14.3	0.130	-0.250	-0.480	-0.180
2020/01/31 14:49:14.4	0.120	-0.220	-0.520	-0.190
2020/01/31 14:49:14.5	0.110	-0.190	-0.560	-0.200
2020/01/31 14:49:14.6	0.100	-0.150	-0.590	-0.210
2020/01/31 14:49:14.7	0.090	-0.120	-0.610	-0.220
2020/01/31 14:49:14.8	0.080	-0.090	-0.640	-0.220
2020/01/31 14:49:14.9	0.080	-0.050	-0.660	-0.230
2020/01/31 14:49:15.0	0.080	-0.010	-0.680	-0.230
2020/01/31 14:49:15.1	0.070	0.020	-0.690	-0.230
2020/01/31 14:49:15.2	0.070	0.060	-0.700	-0.240
2020/01/31 14:49:15.3	0.070	0.090	-0.710	-0.240
2020/01/31 14:49:15.4	0.080	0.130	-0.720	-0.240
2020/01/31 14:49:15.5	0.080	0.160	-0.730	-0.240
2020/01/31 14:49:15.6	0.090	0.200	-0.730	-0.240
2020/01/31 14:49:15.7	0.100	0.240	-0.740	-0.240
2020/01/31 14:49:15.8	0.110	0.270	-0.750	-0.240
2020/01/31 14:49:15.9	0.120	0.300	-0.750	-0.240
2020/01/31 14:49:16.0	0.140	0.340	-0.750	-0.240
2020/01/31 14:49:16.1	0.150	0.370	-0.760	-0.250
2020/01/31 14:49:16.2	0.170	0.400	-0.760	-0.250
2020/01/31 14:49:16.3	0.190	0.430	-0.770	-0.250
2020/01/31 14:49:16.4	0.220	0.450	-0.770	-0.260
2020/01/31 14:49:16.5	0.240	0.480	-0.780	-0.270
2020/01/31 14:49:16.6	0.260	0.500	-0.780	-0.270
2020/01/31 14:49:16.7	0.290	0.520	-0.780	-0.270
2020/01/31 14:49:16.8	0.310	0.530	-0.790	-0.280
2020/01/31 14:49:16.9	0.340	0.540	-0.790	-0.290
2020/01/31 14:49:17.0	0.370	0.550	-0.800	-0.300
2020/01/31 14:49:17.1	0.390	0.560	-0.800	-0.310
2020/01/31 14:49:17.2	0.420	0.560	-0.800	-0.320
2020/01/31 14:49:17.3	0.450	0.560	-0.810	-0.330
2020/01/31 14:49:17.4	0.470	0.560	-0.810	-0.340
2020/01/31 14:49:17.5	0.500	0.550	-0.810	-0.360
2020/01/31 14:49:17.6	0.530	0.540	-0.810	-0.370
2020/01/31 14:49:17.7	0.560	0.530	-0.810	-0.390
2020/01/31 14:49:17.8	0.590	0.510	-0.810	-0.410
2020/01/31 14:49:17.9	0.620	0.490	-0.810	-0.430
2020/01/31 14:49:18.0	0.660	0.470	-0.800	-0.450
2020/01/31 14:49:18.1	0.690	0.450	-0.790	-0.470
2020/01/31 14:49:18.2	0.720	0.420	-0.780	-0.490
2020/01/31 14:49:18.3	0.760	0.390	-0.770	-0.510
2020/01/31 14:49:18.4	0.790	0.360	-0.750	-0.530
2020/01/31 14:49:18.5	0.830	0.330	-0.740	-0.550
2020/01/31 14:49:18.6	0.860	0.290	-0.720	-0.570
2020/01/31 14:49:18.7	0.900	0.250	-0.690	-0.590
2020/01/31 14:49:18.8	0.930	0.210	-0.660	-0.610
2020/01/31 14:49:18.9	0.970	0.170	-0.630	-0.630
2020/01/31 14:49:19.0	1.000	0.130	-0.600	-0.640
2020/01/31 14:49:19.1	1.030	0.090	-0.560	-0.660
2020/01/31 14:49:19.2	1.070	0.050	-0.520	-0.670
2020/01/31 14:49:19.3	1.100	0.010	-0.470	-0.680
2020/01/31 14:49:19.4	1.120	-0.040	-0.420	-0.690
2020/01/31 14:49:19.5	1.150	-0.080	-0.370	-0.700
2020/01/31 14:49:19.6	1.170	-0.120	-0.310	-0.700
2020/01/31 14:49:19.7	1.180	-0.170	-0.260	-0.710
2020/01/31 14:49:19.8	1.190	-0.210	-0.200	-0.710
2020/01/31 14:49:19.9	1.200	-0.250	-0.140	-0.710
2020/01/31 14:49:20.0	1.210	-0.290	-0.070	-0.700
2020/01/31 14:49:20.1	1.220	-0.330	-0.010	-0.700
2020/01/31 14:49:20.2	1.220	-0.370	0.060	-0.690
2020/01/31 14:49:20.3	1.230	-0.400	0.120	-0.680
2020/01/31 14:49:20.4	1.230	-0.440	0.180	-0.670
2020/01/31 14:49:20.5	1.220	-0.470	0.240	-0.660
2020/01/31 14:49:20.6	1.220	-0.500	0.300	-0.640
2020/01/31 14:49:20.7	1.200	-0.520	0.360	-0.630
2020/01/31 14:49:20.8	1.190	-0.550	0.410	-0.610
2020/01/31 14:49:20.9	1.180	-0.570	0.460	-0.590
2020/01/31 14:49:21.0	1.170	-0.580	0.510	-0.570
2020/01/31 14:49:21.1	1.160	-0.600	0.550	-0.550
2020/01/31 14:49:21.2	1.150	-0.610	0.580	-0.530
2020/01/31 14:49:21.3	1.130	-0.610	0.610	-0.500
2020/01/31 14:49:21.4	1.120	-0.610	0.640	-0.470
2020/01/31 14:49:21.5	1.100	-0.610	0.660	-0.430
2020/01/31 14:49:21.6	1.090	-0.600	0.680	-0.390
2020/01/31 14:49:21.7	1.070	-0.590	0.690	-0.360
2020/01/31 14:49:21.8	1.050	-0.580	0.700	-0.320
2020/01/31 14:49:21.9	1.030	-0.560	0.690	-0.270
2020/01/31 14:49:22.0	1.010	-0.540	0.690	-0.220
2020/01/31 14:49:22.1	0.990	-0.510	0.680	-0.170
2020/01/31 14:49:22.2	0.960	-0.480	0.660	-0.120
2020/01/31 14:49:22.3	0.940	-0.450	0.640	-0.070
2020/01/31 14:49:22.4	0.910	-0.410	0.620	-0.010
2020/01/31 14:49:22.5	0.890	-0.370	0.590	0.050
2020/01/31 14:49:22.6	0.860	-0.330	0.560	0.110
2020/01/31 14:49:22.7	0.820	-0.290	0.520	0.170
2020/01/31 14:49:22.8	0.790	-0.250	0.480	0.230
2020/01/31 14:49:22.9	0.760	-0.200	0.440	0.290
2020/01/31 14:49:23.0	0.720	-0.150	0.400	0.350
2020/01/31 14:49:23.1	0.690	-0.100	0.350	0.410
2020/01/31 14:49:23.2	0.650	-0.060	0.300	0.470
2020/01/31 14:49:23.3	0.610	-0.010	0.250	0.530
2020/01/31 14:49:23.4	0.570	0.040	0.200	0.580
2020/01/31 14:49:23.5	0.530	0.080	0.150	0.630
2020/01/31 14:49:23.6	0.490	0.130	0.090	0.680
2020/01/31 14:49:23.7	0.460	0.170	0.040	0.730
2020/01/31 14:49:23.8	0.420	0.210	-0.010	0.760
2020/01/31 14:49:23.9	0.380	0.250	-0.070	0.790
2020/01/31 14:49:24.0	0.340	0.290	-0.130	0.820
2020/01/31 14:49:24.1	0.310	0.320	-0.190	0.840
2020/01/31 14:49:24.2	0.270	0.350	-0.250	0.850
2020/01/31 14:49:24.3	0.240	0.370	-0.310	0.850
2020/01/31 14:49:24.4	0.210	0.400	-0.370	0.850
2020/01/31 14:49:24.5	0.180	0.420	-0.420	0.840
2020/01/31 14:49:24.6	0.150	0.430	-0.480	0.820
2020/01/31 14:49:24.7	0.130	0.440	-0.540	0.790
2020/01/31 14:49:24.8	0.110	0.450	-0.590	0.760
2020/01/31 14:49:24.9	0.090	0.460	-0.640	0.720
2020/01/31 14:49:25.0	0.080	0.460	-0.700	0.680
2020/01/31 14:49:25.1	0.070	0.460	-0.740	0.630
2020/01/31 14:49:25.2	0.060	0.450	-0.790	0.580
2020/01/31 14:49:25.3	0.060	0.440	-0.830	0.520
2020/01/31 14:49:25.4	0.060	0.430	-0.870	0.450
2020/01/31 14:49:25.5	0.060	0.420	-0.910	0.390
2020/01/31 14:49:25.6	0.070	0.410	-0.950	0.310
2020/01/31 14:49:25.7	0.090	0.390	-0.970	0.240
2020/01/31 14:49:25.8	0.110	0.370	-1.000	0.160
2020/01/31 14:49:25.9	0.130	0.350	-1.020	0.080
2020/01/31 14:49:26.0	0.150	0.330	-1.040	-0.000
2020/01/31 14:49:26.1	0.170	0.310	-1.060	-0.080
2020/01/31 14:49:26.2	0.200	0.280	-1.070	-0.170
2020/01/31 14:49:26.3	0.230	0.260	-1.070	-0.250
2020/01/31 14:49:26.4	0.260	0.230	-1.070	-0.330
2020/01/31 14:49:26.5	0.290	0.210	-1.070	-0.420
2020/01/31 14:49:26.6	0.320	0.180	-1.070	-0.500
2020/01/31 14:49:26.7	0.360	0.160	-1.050	-0.590
2020/01/31 14:49:26.8	0.400	0.130	-1.040	-0.670
2020/01/31 14:49:26.9	0.430	0.110	-1.020	-0.760
2020/01/31 14:49:27.0	0.470	0.080	-1.000	-0.840
2020/01/31 14:49:27.1	0.510	0.060	-0.970	-0.910
2020/01/31 14:49:27.2	0.550	0.030	-0.940	-0.990
2020/01/31 14:49:27.3	0.590	0.010	-0.910	-1.060
2020/01/31 14:49:27.4	0.630	-0.010	-0.870	-1.120
2020/01/31 14:49:27.5	0.660	-0.030	-0.830	-1.180
2020/01/31 14:49:27.6	0.700	-0.050	-0.780	-1.240
2020/01/31 14:49:27.7	0.740	-0.070	-0.730	-1.290
2020/01/31 14:49:27.8	0.770	-0.080	-0.680	-1.330
2020/01/31 14:49:27.9	0.800	-0.100	-0.630	-1.370
2020/01/31 14:49:28.0	0.830	-0.110	-0.580	-1.400
2020/01/31 14:49:28.1	0.860	-0.120	-0.520	-1.420
2020/01/31 14:49:28.2	0.880	-0.130	-0.470	-1.440
2020/01/31 14:49:28.3	0.900	-0.140	-0.410	-1.450
2020/01/31 14:49:28.4	0.920	-0.140	-0.350	-1.450
2020/01/31 14:49:28.5	0.940	-0.150	-0.290	-1.440
2020/01/31 14:49:28.6	0.950	-0.150	-0.240	-1.430
2020/01/31 14:49:28.7	0.960	-0.150	-0.180	-1.420
2020/01/31 14:49:28.8	0.970	-0.150	-0.130	-1.400
2020/01/31 14:49:28.9	0.980	-0.150	-0.070	-1.370
2020/01/31 14:49:29.0	0.980	-0.140	-0.020	-1.340
2020/01/31 14:49:29.1	0.980	-0.140	0.020	-1.310
2020/01/31 14:49:29.2	0.980	-0.130	0.070	-1.280
2020/01/31 14:49:29.3	0.980	-0.120	0.110	-1.240
2020/01/31 14:49:29.4	0.970	-0.110	0.140	-1.210
2020/01/31 14:49:29.5	0.960	-0.100	0.180	-1.170
2020/01/31 14:49:29.6	0.960	-0.090	0.200	-1.120
2020/01/31 14:49:29.7	0.950	-0.070	0.230	-1.090
2020/01/31 14:49:29.8	0.940	-0.060	0.250	-1.040
2020/01/31 14:49:29.9	0.930	-0.040	0.260	-0.990
2020/01/31 14:49:30.0	0.920	-0.020	0.280	-0.940
2020/01/31 14:49:30.1	0.910	-0.010	0.280	-0.890
2020/01/31 14:49:30.2	0.900	0.010	0.290	-0.840
2020/01/31 14:49:30.3	0.880	0.030	0.280	-0.780
2020/01/31 14:49:30.4	0.870	0.050	0.280	-0.720
2020/01/31 14:49:30.5	0.860	0.070	0.270	-0.660
2020/01/31 14:49:30.6	0.840	0.090	0.260	-0.600
2020/01/31 14:49:30.7	0.820	0.110	0.240	-0.540
2020/01/31 14:49:30.8	0.800	0.130	0.220	-0.480
2020/01/31 14:49:30.9	0.780	0.140	0.200	-0.410
2020/01/31 14:49:31.0	0.760	0.160	0.180	-0.350
2020/01/31 14:49:31.1	0.740	0.180	0.150	-0.300
2020/01/31 14:49:31.2	0.720	0.190	0.130	-0.240
2020/01/31 14:49:31.3	0.700	0.200	0.100	-0.180
2020/01/31 14:49:31.4	0.680	0.210	0.070	-0.130
2020/01/31 14:49:31.5	0.660	0.220	0.040	-0.080
2020/01/31 14:49:31.6	0.640	0.230	0.010	-0.030
2020/01/31 14:49:31.7	0.610	0.240	-0.010	0.020
2020/01/31 14:49:31.8	0.580	0.240	-0.040	0.060
2020/01/31 14:49:31.9	0.560	0.240	-0.060	0.100
2020/01/31 14:49:32.0	0.530	0.240	-0.090	0.140
2020/01/31 14:49:32.1	0.510	0.230	-0.120	0.180
2020/01/31 14:49:32.2	0.480	0.220	-0.140	0.210
2020/01/31 14:49:32.3	0.460	0.210	-0.170	0.240
2020/01/31 14:49:32.4	0.440	0.200	-0.190	0.260
2020/01/31 14:49:32.5	0.410	0.190	-0.210	0.280
2020/01/31 14:49:32.6	0.390	0.170	-0.230	0.300
2020/01/31 14:49:32.7	0.370	0.150	-0.250	0.310
2020/01/31 14:49:32.8	0.350	0.130	-0.270	0.320
2020/01/31 14:49:32.9	0.340	0.100	-0.280	0.330
2020/01/31 14:49:33.0	0.320	0.080	-0.300	0.330
2020/01/31 14:49:33.1	0.310	0.050	-0.310	0.330
2020/01/31 14:49:33.2	0.300	0.020	-0.330	0.330
2020/01/31 14:49:33.3	0.290	-0.010	-0.340	0.320
2020/01/31 14:49:33.4	0.280	-0.040	-0.350	0.310
2020/01/31 14:49:33.5	0.270	-0.070	-0.360	0.300
2020/01/31 14:49:33.6	0.260	-0.100	-0.360	0.290
2020/01/31 14:49:33.7	0.260	-0.140	-0.360	0.270
2020/01/31 14:49:33.8	0.250	-0.170	-0.370	0.250
2020/01/31 14:49:33.9	0.250	-0.200	-0.370	0.220
2020/01/31 14:49:34.0	0.250	-0.240	-0.380	0.200
2020/01/31 14:49:34.1	0.250	-0.270	-0.380	0.170
2020/01/31 14:49:34.2	0.240	-0.300	-0.380	0.140
2020/01/31 14:49:34.3	0.240	-0.330	-0.380	0.110
2020/01/31 14:49:34.4	0.240	-0.360	-0.380	0.080
2020/01/31 14:49:34.5	0.240	-0.380	-0.380	0.040
2020/01/31 14:49:34.6	0.240	-0.410	-0.380	0.000
2020/01/31 14:49:34.7	0.260	-0.430	-0.380	-0.040
2020/01/31 14:49:34.8	0.260	-0.440	-0.380	-0.080
2020/01/31 14:49:34.9	0.260	-0.460	-0.380	-0.120
2020/01/31 14:49:35.0	0.260	-0.460	-0.370	-0.150
2020/01/31 14:49:35.1	0.260	-0.470	-0.370	-0.190
2020/01/31 14:49:35.2	0.260	-0.470	-0.370	-0.230
2020/01/31 14:49:35.3	0.260	-0.470	-0.360	-0.260
2020/01/31 14:49:35.4	0.260	-0.460	-0.360	-0.300
2020/01/31 14:49:35.5	0.260	-0.450	-0.350	-0.330
2020/01/31 14:49:35.6	0.260	-0.430	-0.340	-0.350
2020/01/31 14:49:35.7	0.260	-0.410	-0.330	-0.380
2020/01/31 14:49:35.8	0.260	-0.390	-0.320	-0.400
2020/01/31 14:49:35.9	0.250	-0.360	-0.310	-0.420
2020/01/31 14:49:36.0	0.250	-0.330	-0.300	-0.430
2020/01/31 14:49:36.1	0.250	-0.290	-0.290	-0.430
2020/01/31 14:49:36.2	0.250	-0.250	-0.270	-0.440
2020/01/31 14:49:36.3	0.240	-0.210	-0.260	-0.440
2020/01/31 14:49:36.4	0.240	-0.170	-0.240	-0.430
2020/01/31 14:49:36.5	0.230	-0.130	-0.220	-0.420
2020/01/31 14:49:36.6	0.230	-0.080	-0.210	-0.410
2020/01/31 14:49:36.7	0.210	-0.030	-0.180	-0.400
2020/01/31 14:49:36.8	0.200	0.010	-0.170	-0.380
2020/01/31 14:49:36.9	0.200	0.060	-0.150	-0.370
2020/01/31 14:49:37.0	0.190	0.100	-0.130	-0.350
2020/01/31 14:49:37.1	0.180	0.150	-0.120	-0.320
2020/01/31 14:49:37.2	0.170	0.190	-0.100	-0.300
2020/01/31 14:49:37.3	0.160	0.230	-0.090	-0.280
2020/01/31 14:49:37.4	0.160	0.270	-0.080	-0.260
2020/01/31 14:49:37.5	0.150	0.310	-0.070	-0.230
2020/01/31 14:49:37.6	0.140	0.340	-0.060	-0.210
2020/01/31 14:49:37.7	0.130	0.370	-0.050	-0.190
2020/01/31 14:49:37.8	0.130	0.400	-0.050	-0.170
2020/01/31 14:49:37.9	0.120	0.420	-0.050	-0.150
2020/01/31 14:49:38.0	0.120	0.440	-0.050	-0.140
2020/01/31 14:49:38.1	0.120	0.460	-0.050	-0.120
2020/01/31 14:49:38.2	0.120	0.470	-0.060	-0.110
2020/01/31 14:49:38.3	0.120	0.470	-0.070	-0.090
2020/01/31 14:49:38.4	0.120	0.480	-0.080	-0.080
2020/01/31 14:49:38.5	0.130	0.480	-0.100	-0.070
2020/01/31 14:49:38.6	0.140	0.470	-0.110	-0.070
2020/01/31 14:49:38.7	0.130	0.470	-0.130	-0.070
2020/01/31 14:49:38.8	0.140	0.450	-0.150	-0.060
2020/01/31 14:49:38.9	0.160	0.440	-0.180	-0.060
2020/01/31 14:49:39.0	0.170	0.420	-0.200	-0.070
2020/01/31 14:49:39.1	0.190	0.400	-0.230	-0.070
2020/01/31 14:49:39.2	0.210	0.380	-0.260	-0.080
2020/01/31 14:49:39.3	0.230	0.350	-0.300	-0.090
2020/01/31 14:49:39.4	0.260	0.320	-0.330	-0.110
2020/01/31 14:49:39.5	0.280	0.300	-0.360	-0.120
2020/01/31 14:49:39.6	0.310	0.260	-0.400	-0.140
2020/01/31 14:49:39.7	0.330	0.230	-0.430	-0.160
2020/01/31 14:49:39.8	0.350	0.200	-0.460	-0.180
2020/01/31 14:49:39.9	0.380	0.170	-0.490	-0.200
2020/01/31 14:49:40.0	0.410	0.130	-0.530	-0.230
2020/01/31 14:49:40.1	0.430	0.100	-0.550	-0.250
2020/01/31 14:49:40.2	0.460	0.070	-0.580	-0.280
2020/01/31 14:49:40.3	0.480	0.040	-0.600	-0.300
2020/01/31 14:49:40.4	0.510	0.010	-0.620	-0.330
2020/01/31 14:49:40.5	0.530	-0.020	-0.630	-0.350
2020/01/31 14:49:40.6	0.550	-0.050	-0.640	-0.380
2020/01/31 14:49:40.7	0.580	-0.080	-0.650	-0.400
2020/01/31 14:49:40.8	0.600	-0.110	-0.640	-0.420
2020/01/31 14:49:40.9	0.610	-0.130	-0.640	-0.440
2020/01/31 14:49:41.0	0.620	-0.160	-0.620	-0.460
2020/01/31 14:49:41.1	0.630	-0.180	-0.610	-0.470
2020/01/31 14:49:41.2	0.630	-0.200	-0.580	-0.480
2020/01/31 14:49:41.3	0.630	-0.220	-0.550	-0.480
2020/01/31 14:49:41.4	0.630	-0.240	-0.520	-0.490
2020/01/31 14:49:41.5	0.620	-0.260	-0.480	-0.490
2020/01/31 14:49:41.6	0.610	-0.270	-0.440	-0.480
2020/01/31 14:49:41.7	0.580	-0.290	-0.390	-0.470
2020/01/31 14:49:41.8	0.560	-0.300	-0.350	-0.460
2020/01/31 14:49:41.9	0.540	-0.310	-0.300	-0.450
2020/01/31 14:49:42.0	0.520	-0.320	-0.250	-0.430
2020/01/31 14:49:42.1	0.490	-0.330	-0.200	-0.410
2020/01/31 14:49:42.2	0.460	-0.340	-0.160	-0.390
2020/01/31 14:49:42.3	0.430	-0.350	-0.110	-0.360
2020/01/31 14:49:42.4	0.400	-0.350	-0.070	-0.340
2020/01/31 14:49:42.5	0.370	-0.350	-0.030	-0.310
2020/01/31 14:49:42.6	0.340	-0.350	0.000	-0.280
2020/01/31 14:49:42.7	0.320	-0.350	0.040	-0.260
2020/01/31 14:49:42.8	0.300	-0.340	0.060	-0.230
2020/01/31 14:49:42.9	0.270	-0.340	0.080	-0.210
2020/01/31 14:49:43.0	0.250	-0.330	0.090	-0.180
2020/01/31 14:49:43.1	0.240	-0.320	0.100	-0.160
2020/01/31 14:49:43.2	0.220	-0.300	0.100	-0.130
2020/01/31 14:49:43.3	0.210	-0.280	0.090	-0.110
2020/01/31 14:49:43.4	0.210	-0.260	0.080	-0.100
2020/01/31 14:49:43.5	0.200	-0.240	0.060	-0.080
2020/01/31 14:49:43.6	0.200	-0.210	0.040	-0.070
2020/01/31 14:49:43.7	0.200	-0.190	0.010	-0.060
2020/01/31 14:49:43.8	0.210	-0.160	-0.020	-0.060
2020/01/31 14:49:43.9	0.210	-0.120	-0.060	-0.050
2020/01/31 14:49:44.0	0.230	-0.090	-0.100	-0.050
2020/01/31 14:49:44.1	0.240	-0.050	-0.140	-0.050
2020/01/31 14:49:44.2	0.250	-0.020	-0.180	-0.050
2020/01/31 14:49:44.3	0.270	0.020	-0.220	-0.060
2020/01/31 14:49:44.4	0.280	0.060	-0.270	-0.060
2020/01/31 14:49:44.5	0.290	0.100	-0.310	-0.070
2020/01/31 14:49:44.6	0.310	0.140	-0.350	-0.070
2020/01/31 14:49:44.7	0.310	0.180	-0.380	-0.080
2020/01/31 14:49:44.8	0.320	0.210	-0.410	-0.080
2020/01/31 14:49:44.9	0.330	0.250	-0.440	-0.090
2020/01/31 14:49:45.0	0.340	0.280	-0.470	-0.090
2020/01/31 14:49:45.1	0.350	0.320	-0.490	-0.100
2020/01/31 14:49:45.2	0.350	0.350	-0.510	-0.100
2020/01/31 14:49:45.3	0.360	0.370	-0.520	-0.100
2020/01/31 14:49:45.4	0.360	0.400	-0.530	-0.110
2020/01/31 14:49:45.5	0.360	0.420	-0.530	-0.100
2020/01/31 14:49:45.6	0.360	0.440	-0.530	-0.100
2020/01/31 14:49:45.7	0.360	0.460	-0.510	-0.100
2020/01/31 14:49:45.8	0.350	0.470	-0.500	-0.090
2020/01/31 14:49:45.9	0.350	0.470	-0.490	-0.090
2020/01/31 14:49:46.0	0.340	0.480	-0.470	-0.080
2020/01/31 14:49:46.1	0.330	0.480	-0.440	-0.070
2020/01/31 14:49:46.2	0.330	0.480	-0.420	-0.060
2020/01/31 14:49:46.3	0.320	0.470	-0.390	-0.040
2020/01/31 14:49:46.4	0.310	0.460	-0.360	-0.030
2020/01/31 14:49:46.5	0.300	0.440	-0.320	-0.020
2020/01/31 14:49:46.6	0.290	0.420	-0.290	-0.010
2020/01/31 14:49:46.7	0.290	0.400	-0.260	0.010
2020/01/31 14:49:46.8	0.280	0.380	-0.220	0.010
2020/01/31 14:49:46.9	0.270	0.350	-0.190	0.020
2020/01/31 14:49:47.0	0.270	0.330	-0.150	0.030
2020/01/31 14:49:47.1	0.260	0.290	-0.120	0.030
2020/01/31 14:49:47.2	0.250	0.260	-0.090	0.030
2020/01/31 14:49:47.3	0.250	0.230	-0.060	0.030
2020/01/31 14:49:47.4	0.250	0.190	-0.030	0.020
2020/01/31 14:49:47.5	0.240	0.160	-0.010	0.020
2020/01/31 14:49:47.6	0.240	0.120	0.010	0.010
2020/01/31 14:49:47.7	0.230	0.080	0.030	-0.010
2020/01/31 14:49:47.8	0.230	0.050	0.050	-0.020
2020/01/31 14:49:47.9	0.230	0.010	0.070	-0.040
2020/01/31 14:49:48.0	0.230	-0.020	0.070	-0.060
2020/01/31 14:49:48.1	0.230	-0.050	0.080	-0.080
2020/01/31 14:49:48.2	0.230	-0.080	0.090	-0.100
2020/01/31 14:49:48.3	0.230	-0.110	0.090	-0.120
2020/01/31 14:49:48.4	0.220	-0.140	0.090	-0.150
2020/01/31 14:49:48.5	0.220	-0.170	0.090	-0.170
2020/01/31 14:49:48.6	0.220	-0.190	0.080	-0.190
2020/01/31 14:49:48.7	0.210	-0.210	0.070	-0.220
2020/01/31 14:49:48.8	0.200	-0.230	0.060	-0.240
2020/01/31 14:49:48.9	0.200	-0.240	0.050	-0.260
2020/01/31 14:49:49.0	0.190	-0.260	0.040	-0.280
2020/01/31 14:49:49.1	0.180	-0.270	0.020	-0.290
2020/01/31 14:49:49.2	0.170	-0.270	0.000	-0.310
2020/01/31 14:49:49.3	0.170	-0.280	-0.020	-0.330
2020/01/31 14:49:49.4	0.160	-0.280	-0.040	-0.350
2020/01/31 14:49:49.5	0.150	-0.280	-0.060	-0.360
2020/01/31 14:49:49.6	0.150	-0.280	-0.090	-0.380
2020/01/31 14:49:49.7	0.140	-0.270	-0.110	-0.400
2020/01/31 14:49:49.8	0.140	-0.270	-0.140	-0.420
2020/01/31 14:49:49.9	0.140	-0.260	-0.170	-0.430
2020/01/31 14:49:50.0	0.140	-0.250	-0.200	-0.450
2020/01/31 14:49:50.1	0.140	-0.240	-0.230	-0.470
2020/01/31 14:49:50.2	0.150	-0.230	-0.260	-0.490
2020/01/31 14:49:50.3	0.150	-0.210	-0.290	-0.500
2020/01/31 14:49:50.4	0.160	-0.200	-0.320	-0.520
2020/01/31 14:49:50.5	0.180	-0.180	-0.350	-0.540
2020/01/31 14:49:50.6	0.190	-0.170	-0.380	-0.560
2020/01/31 14:49:50.7	0.200	-0.160	-0.410	-0.580
2020/01/31 14:49:50.8	0.220	-0.140	-0.440	-0.600
2020/01/31 14:49:50.9	0.240	-0.130	-0.470	-0.620
2020/01/31 14:49:51.0	0.260	-0.120	-0.490	-0.630
2020/01/31 14:49:51.1	0.290	-0.100	-0.510	-0.650
2020/01/31 14:49:51.2	0.310	-0.090	-0.530	-0.660
2020/01/31 14:49:51.3	0.330	-0.090	-0.550	-0.670
2020/01/31 14:49:51.4	0.360	-0.080	-0.560	-0.680
2020/01/31 14:49:51.5	0.380	-0.080	-0.560	-0.680
2020/01/31 14:49:51.6	0.400	-0.080	-0.570	-0.690
2020/01/31 14:49:51.7	0.420	-0.080	-0.560	-0.690
2020/01/31 14:49:51.8	0.440	-0.080	-0.560	-0.690
2020/01/31 14:49:51.9	0.450	-0.090	-0.550	-0.680
2020/01/31 14:49:52.0	0.470	-0.090	-0.530	-0.680
2020/01/31 14:49:52.1	0.480	-0.110	-0.510	-0.670
2020/01/31 14:49:52.2	0.490	-0.120	-0.490	-0.660
2020/01/31 14:49:52.3	0.490	-0.130	-0.460	-0.650
2020/01/31 14:49:52.4	0.490	-0.150	-0.440	-0.630
2020/01/31 14:49:52.5	0.490	-0.170	-0.410	-0.620
2020/01/31 14:49:52.6	0.490	-0.190	-0.370	-0.600
2020/01/31 14:49:52.7	0.490	-0.210	-0.340	-0.580
2020/01/31 14:49:52.8	0.480	-0.230	-0.300	-0.560
2020/01/31 14:49:52.9	0.470	-0.260	-0.270	-0.530
2020/01/31 14:49:53.0	0.460	-0.280	-0.240	-0.510
2020/01/31 14:49:53.1	0.450	-0.300	-0.200	-0.480
2020/01/31 14:49:53.2	0.440	-0.330	-0.170	-0.450
2020/01/31 14:49:53.3	0.430	-0.350	-0.140	-0.430
2020/01/31 14:49:53.4	0.420	-0.370	-0.110	-0.400
2020/01/31 14:49:53.5	0.410	-0.390	-0.090	-0.380
2020/01/31 14:49:53.6	0.400	-0.400	-0.070	-0.350
2020/01/31 14:49:53.7	0.400	-0.420	-0.050	-0.330
2020/01/31 14:49:53.8	0.390	-0.430	-0.030	-0.310
2020/01/31 14:49:53.9	0.390	-0.440	-0.020	-0.290
2020/01/31 14:49:54.0	0.380	-0.440	-0.020	-0.270
2020/01/31 14:49:54.1	0.380	-0.440	-0.010	-0.250
2020/01/31 14:49:54.2	0.380	-0.440	-0.020	-0.230
2020/01/31 14:49:54.3	0.380	-0.430	-0.020	-0.220
2020/01/31 14:49:54.4	0.380	-0.420	-0.030	-0.200
2020/01/31 14:49:54.5	0.390	-0.400	-0.040	-0.190
2020/01/31 14:49:54.6	0.390	-0.380	-0.060	-0.170
2020/01/31 14:49:54.7	0.390	-0.350	-0.080	-0.170
2020/01/31 14:49:54.8	0.390	-0.320	-0.100	-0.150
2020/01/31 14:49:54.9	0.400	-0.280	-0.120	-0.130
2020/01/31 14:49:55.0	0.400	-0.240	-0.150	-0.110
2020/01/31 14:49:55.1	0.410	-0.200	-0.170	-0.090
2020/01/31 14:49:55.2	0.410	-0.150	-0.200	-0.060
2020/01/31 14:49:55.3	0.410	-0.100	-0.220	-0.040
2020/01/31 14:49:55.4	0.410	-0.050	-0.250	-0.010
2020/01/31 14:49:55.5	0.410	0.010	-0.270	0.020
2020/01/31 14:49:55.6	0.410	0.070	-0.300	0.050
2020/01/31 14:49:55.7	0.400	0.130	-0.320	0.090
2020/01/31 14:49:55.8	0.400	0.190	-0.340	0.120
2020/01/31 14:49:55.9	0.400	0.250	-0.360	0.160
2020/01/31 14:49:56.0	0.390	0.310	-0.380	0.200
2020/01/31 14:49:56.1	0.380	0.380	-0.400	0.230
2020/01/31 14:49:56.2	0.380	0.440	-0.410	0.270
2020/01/31 14:49:56.3	0.370	0.500	-0.430	0.310
2020/01/31 14:49:56.4	0.360	0.550	-0.440	0.350
2020/01/31 14:49:56.5	0.350	0.610	-0.450	0.390
2020/01/31 14:49:56.6	0.340	0.660	-0.460	0.430
2020/01/31 14:49:56.7	0.320	0.710	-0.470	0.460
2020/01/31 14:49:56.8	0.310	0.750	-0.470	0.490
2020/01/31 14:49:56.9	0.310	0.790	-0.480	0.530
2020/01/31 14:49:57.0	0.300	0.830	-0.480	0.550
2020/01/31 14:49:57.1	0.290	0.860	-0.480	0.580
2020/01/31 14:49:57.2	0.280	0.890	-0.480	0.600
2020/01/31 14:49:57.3	0.280	0.910	-0.490	0.620
2020/01/31 14:49:57.4	0.270	0.930	-0.490	0.630
2020/01/31 14:49:57.5	0.270	0.930	-0.490	0.640
2020/01/31 14:49:57.6	0.260	0.940	-0.490	0.640
2020/01/31 14:49:57.7	0.260	0.940	-0.490	0.640
2020/01/31 14:49:57.8	0.260	0.930	-0.480	0.630
2020/01/31 14:49:57.9	0.260	0.910	-0.480	0.620
2020/01/31 14:49:58.0	0.250	0.890	-0.480	0.600
2020/01/31 14:49:58.1	0.250	0.860	-0.470	0.570
2020/01/31 14:49:58.2	0.250	0.830	-0.470	0.550
2020/01/31 14:49:58.3	0.250	0.790	-0.460	0.510
2020/01/31 14:49:58.4	0.240	0.750	-0.450	0.480
2020/01/31 14:49:58.5	0.240	0.700	-0.430	0.440
2020/01/31 14:49:58.6	0.240	0.640	-0.420	0.390
2020/01/31 14:49:58.7	0.230	0.580	-0.400	0.350
2020/01/31 14:49:58.8	0.220	0.520	-0.380	0.300
2020/01/31 14:49:58.9	0.220	0.450	-0.360	0.250
2020/01/31 14:49:59.0	0.210	0.380	-0.330	0.190
2020/01/31 14:49:59.1	0.210	0.300	-0.300	0.140
2020/01/31 14:49:59.2	0.200	0.230	-0.270	0.090
2020/01/31 14:49:59.3	0.190	0.150	-0.240	0.030
2020/01/31 14:49:59.4	0.190	0.070	-0.210	-0.030
2020/01/31 14:49:59.5	0.180	-0.010	-0.170	-0.080
2020/01/31 14:49:59.6	0.170	-0.090	-0.130	-0.140
2020/01/31 14:49:59.7	0.160	-0.170	-0.090	-0.210
2020/01/31 14:49:59.8	0.150	-0.250	-0.050	-0.270
2020/01/31 14:49:59.9	0.150	-0.320	-0.010	-0.330
2020/01/31 14:50:00.0	0.150	-0.390	0.020	-0.390
2020/01/31 14:50:00.1	0.150	-0.460	0.060	-0.450
2020/01/31 14:50:00.2	0.160	-0.530	0.090	-0.520
2020/01/31 14:50:00.3	0.160	-0.590	0.120	-0.580
2020/01/31 14:50:00.4	0.170	-0.650	0.150	-0.640
2020/01/31 14:50:00.5	0.170	-0.700	0.180	-0.710
2020/01/31 14:50:00.6	0.180	-0.750	0.200	-0.770
2020/01/31 14:50:00.7	0.200	-0.790	0.210	-0.840
2020/01/31 14:50:00.8	0.210	-0.820	0.230	-0.900
2020/01/31 14:50:00.9	0.220	-0.840	0.230	-0.960
2020/01/31 14:50:01.0	0.240	-0.860	0.240	-1.020
2020/01/31 14:50:01.1	0.250	-0.880	0.230	-1.080
2020/01/31 14:50:01.2	0.270	-0.880	0.230	-1.130
2020/01/31 14:50:01.3	0.280	-0.880	0.210	-1.180
2020/01/31 14:50:01.4	0.300	-0.880	0.200	-1.220
2020/01/31 14:50:01.5	0.320	-0.860	0.180	-1.260
2020/01/31 14:50:01.6	0.330	-0.840	0.150	-1.300
2020/01/31 14:50:01.7	0.340	-0.820	0.130	-1.330
2020/01/31 14:50:01.8	0.350	-0.790	0.090	-1.360
2020/01/31 14:50:01.9	0.360	-0.750	0.060	-1.380
2020/01/31 14:50:02.0	0.380	-0.720	0.020	-1.400
2020/01/31 14:50:02.1	0.390	-0.670	-0.020	-1.410
2020/01/31 14:50:02.2	0.400	-0.630	-0.060	-1.420
2020/01/31 14:50:02.3	0.410	-0.580	-0.100	-1.420
2020/01/31 14:50:02.4	0.410	-0.530	-0.140	-1.410
2020/01/31 14:50:02.5	0.420	-0.470	-0.180	-1.400
2020/01/31 14:50:02.6	0.420	-0.420	-0.220	-1.390
2020/01/31 14:50:02.7	0.420	-0.370	-0.260	-1.370
2020/01/31 14:50:02.8	0.420	-0.310	-0.300	-1.340
2020/01/31 14:50:02.9	0.420	-0.260	-0.340	-1.310
2020/01/31 14:50:03.0	0.420	-0.200	-0.370	-1.280
2020/01/31 14:50:03.1	0.420	-0.150	-0.410	-1.240
2020/01/31 14:50:03.2	0.420	-0.100	-0.440	-1.200
2020/01/31 14:50:03.3	0.420	-0.050	-0.470	-1.150
2020/01/31 14:50:03.4	0.410	-0.010	-0.490	-1.100
2020/01/31 14:50:03.5	0.410	0.030	-0.520	-1.040
2020/01/31 14:50:03.6	0.400	0.070	-0.540	-0.990
2020/01/31 14:50:03.7	0.400	0.110	-0.550	-0.920
2020/01/31 14:50:03.8	0.390	0.140	-0.570	-0.860
2020/01/31 14:50:03.9	0.380	0.170	-0.580	-0.800
2020/01/31 14:50:04.0	0.370	0.200	-0.590	-0.730
2020/01/31 14:50:04.1	0.360	0.220	-0.590	-0.670
2020/01/31 14:50:04.2	0.350	0.240	-0.590	-0.600
2020/01/31 14:50:04.3	0.350	0.250	-0.590	-0.530
2020/01/31 14:50:04.4	0.340	0.260	-0.590	-0.470
2020/01/31 14:50:04.5	0.330	0.270	-0.580	-0.400
2020/01/31 14:50:04.6	0.320	0.270	-0.570	-0.330
2020/01/31 14:50:04.7	0.310	0.270	-0.560	-0.260
2020/01/31 14:50:04.8	0.310	0.270	-0.540	-0.200
2020/01/31 14:50:04.9	0.300	0.270	-0.520	-0.130
2020/01/31 14:50:05.0	0.300	0.260	-0.500	-0.070
2020/01/31 14:50:05.1	0.300	0.260	-0.470	-0.010
2020/01/31 14:50:05.2	0.300	0.250	-0.450	0.050
2020/01/31 14:50:05.3	0.300	0.240	-0.420	0.100
2020/01/31 14:50:05.4	0.300	0.220	-0.400	0.160
2020/01/31 14:50:05.5	0.300	0.210	-0.370	0.210
2020/01/31 14:50:05.6	0.300	0.200	-0.340	0.250
2020/01/31 14:50:05.7	0.290	0.190	-0.300	0.290
2020/01/31 14:50:05.8	0.290	0.170	-0.270	0.330
2020/01/31 14:50:05.9	0.290	0.160	-0.240	0.370
2020/01/31 14:50:06.0	0.290	0.140	-0.220	0.400
2020/01/31 14:50:06.1	0.290	0.130	-0.190	0.430
2020/01/31 14:50:06.2	0.290	0.120	-0.160	0.450
2020/01/31 14:50:06.3	0.290	0.100	-0.130	0.480
2020/01/31 14:50:06.4	0.290	0.090	-0.100	0.490
2020/01/31 14:50:06.5	0.290	0.080	-0.080	0.510
2020/01/31 14:50:06.6	0.280	0.070	-0.060	0.520
2020/01/31 14:50:06.7	0.270	0.060	-0.040	0.520
2020/01/31 14:50:06.8	0.270	0.050	-0.020	0.530
2020/01/31 14:50:06.9	0.260	0.040	-0.000	0.530
2020/01/31 14:50:07.0	0.260	0.030	0.010	0.530
2020/01/31 14:50:07.1	0.250	0.030	0.020	0.520
2020/01/31 14:50:07.2	0.240	0.020	0.030	0.520
2020/01/31 14:50:07.3	0.230	0.010	0.040	0.510
2020/01/31 14:50:07.4	0.230	0.010	0.040	0.500
2020/01/31 14:50:07.5	0.220	0.010	0.040	0.480
2020/01/31 14:50:07.6	0.210	0.000	0.040	0.470
2020/01/31 14:50:07.7	0.200	0.000	0.040	0.450
2020/01/31 14:50:07.8	0.190	-0.000	0.030	0.430
2020/01/31 14:50:07.9	0.170	-0.000	0.020	0.410
2020/01/31 14:50:08.0	0.160	-0.000	0.010	0.390
2020/01/31 14:50:08.1	0.150	0.000	-0.010	0.370
2020/01/31 14:50:08.2	0.140	0.000	-0.030	0.350
2020/01/31 14:50:08.3	0.130	0.000	-0.040	0.330
2020/01/31 14:50:08.4	0.120	0.010	-0.060	0.310
2020/01/31 14:50:08.5	0.110	0.010	-0.090	0.280
2020/01/31 14:50:08.6	0.100	0.010	-0.110	0.250
2020/01/31 14:50:08.7	0.100	0.010	-0.140	0.220
2020/01/31 14:50:08.8	0.090	0.020	-0.160	0.190
2020/01/31 14:50:08.9	0.090	0.020	-0.190	0.160
2020/01/31 14:50:09.0	0.080	0.020	-0.210	0.120
2020/01/31 14:50:09.1	0.080	0.030	-0.240	0.090
2020/01/31 14:50:09.2	0.070	0.030	-0.260	0.050
2020/01/31 14:50:09.3	0.070	0.040	-0.290	0.010
2020/01/31 14:50:09.4	0.070	0.040	-0.310	-0.030
2020/01/31 14:50:09.5	0.070	0.040	-0.340	-0.070
2020/01/31 14:50:09.6	0.070	0.050	-0.360	-0.110
2020/01/31 14:50:09.7	0.080	0.050	-0.370	-0.160
2020/01/31 14:50:09.8	0.080	0.060	-0.390	-0.200
2020/01/31 14:50:09.9	0.080	0.060	-0.410	-0.230
2020/01/31 14:50:10.0	0.080	0.060	-0.420	-0.270
2020/01/31 14:50:10.1	0.080	0.070	-0.440	-0.310
2020/01/31 14:50:10.2	0.090	0.070	-0.450	-0.340
2020/01/31 14:50:10.3	0.090	0.080	-0.460	-0.370
2020/01/31 14:50:10.4	0.090	0.080	-0.460	-0.400
2020/01/31 14:50:10.5	0.090	0.090	-0.470	-0.430
2020/01/31 14:50:10.6	0.090	0.090	-0.470	-0.460
2020/01/31 14:50:10.7	0.090	0.090	-0.470	-0.480
2020/01/31 14:50:10.8	0.090	0.100	-0.470	-0.500
2020/01/31 14:50:10.9	0.090	0.100	-0.470	-0.520
2020/01/31 14:50:11.0	0.090	0.100	-0.460	-0.540
2020/01/31 14:50:11.1	0.090	0.100	-0.460	-0.550
2020/01/31 14:50:11.2	0.090	0.100	-0.460	-0.570
2020/01/31 14:50:11.3	0.090	0.100	-0.450	-0.580
2020/01/31 14:50:11.4	0.090	0.100	-0.450	-0.600
2020/01/31 14:50:11.5	0.100	0.100	-0.440	-0.610
2020/01/31 14:50:11.6	0.100	0.090	-0.440	-0.630
2020/01/31 14:50:11.7	0.100	0.090	-0.430	-0.650
2020/01/31 14:50:11.8	0.100	0.080	-0.430	-0.670
2020/01/31 14:50:11.9	0.110	0.080	-0.430	-0.680
2020/01/31 14:50:12.0	0.130	0.070	-0.430	-0.700
2020/01/31 14:50:12.1	0.140	0.070	-0.430	-0.720
2020/01/31 14:50:12.2	0.160	0.060	-0.440	-0.740
2020/01/31 14:50:12.3	0.180	0.050	-0.440	-0.770
2020/01/31 14:50:12.4	0.200	0.040	-0.450	-0.790
2020/01/31 14:50:12.5	0.230	0.040	-0.450	-0.810
2020/01/31 14:50:12.6	0.250	0.030	-0.460	-0.830
2020/01/31 14:50:12.7	0.290	0.020	-0.470	-0.860
2020/01/31 14:50:12.8	0.330	0.010	-0.470	-0.880
2020/01/31 14:50:12.9	0.360	0.010	-0.480	-0.910
2020/01/31 14:50:13.0	0.390	-0.000	-0.490	-0.930
2020/01/31 14:50:13.1	0.430	-0.010	-0.490	-0.950
2020/01/31 14:50:13.2	0.460	-0.020	-0.500	-0.960
2020/01/31 14:50:13.3	0.500	-0.020	-0.500	-0.980
2020/01/31 14:50:13.4	0.530	-0.030	-0.500	-0.990
2020/01/31 14:50:13.5	0.570	-0.030	-0.500	-0.990
2020/01/31 14:50:13.6	0.600	-0.040	-0.490	-1.000
2020/01/31 14:50:13.7	0.620	-0.040	-0.480	-1.000
2020/01/31 14:50:13.8	0.650	-0.040	-0.460	-0.980
2020/01/31 14:50:13.9	0.670	-0.050	-0.440	-0.970
2020/01/31 14:50:14.0	0.680	-0.050	-0.420	-0.940
2020/01/31 14:50:14.1	0.690	-0.060	-0.390	-0.910
2020/01/31 14:50:14.2	0.690	-0.060	-0.350	-0.870
2020/01/31 14:50:14.3	0.690	-0.060	-0.310	-0.820
2020/01/31 14:50:14.4	0.680	-0.070	-0.260	-0.770
2020/01/31 14:50:14.5	0.670	-0.070	-0.210	-0.720
2020/01/31 14:50:14.6	0.660	-0.080	-0.150	-0.660
2020/01/31 14:50:14.7	0.640	-0.090	-0.100	-0.590
2020/01/31 14:50:14.8	0.620	-0.090	-0.040	-0.520
2020/01/31 14:50:14.9	0.590	-0.100	0.020	-0.460
2020/01/31 14:50:15.0	0.560	-0.110	0.080	-0.390
2020/01/31 14:50:15.1	0.530	-0.120	0.150	-0.310
2020/01/31 14:50:15.2	0.490	-0.130	0.210	-0.240
2020/01/31 14:50:15.3	0.460	-0.130	0.270	-0.180
2020/01/31 14:50:15.4	0.420	-0.140	0.320	-0.110
2020/01/31 14:50:15.5	0.390	-0.150	0.370	-0.040
2020/01/31 14:50:15.6	0.350	-0.160	0.420	0.020
2020/01/31 14:50:15.7	0.310	-0.170	0.460	0.070
2020/01/31 14:50:15.8	0.270	-0.180	0.500	0.130
2020/01/31 14:50:15.9	0.230	-0.190	0.530	0.180
2020/01/31 14:50:16.0	0.200	-0.200	0.550	0.220
2020/01/31 14:50:16.1	0.160	-0.200	0.570	0.260
2020/01/31 14:50:16.2	0.130	-0.210	0.580	0.300
2020/01/31 14:50:16.3	0.100	-0.210	0.580	0.320
2020/01/31 14:50:16.4	0.070	-0.210	0.570	0.350
2020/01/31 14:50:16.5	0.040	-0.210	0.550	0.360
2020/01/31 14:50:16.6	0.010	-0.210	0.530	0.380
2020/01/31 14:50:16.7	359.990	-0.210	0.510	0.380
2020/01/31 14:50:16.8	359.970	-0.200	0.470	0.380
2020/01/31 14:50:16.9	359.950	-0.190	0.420	0.380
2020/01/31 14:50:17.0	359.930	-0.180	0.370	0.380
2020/01/31 14:50:17.1	359.920	-0.160	0.310	0.370
2020/01/31 14:50:17.2	359.910	-0.150	0.250	0.360
2020/01/31 14:50:17.3	359.900	-0.130	0.180	0.340
2020/01/31 14:50:17.4	359.890	-0.110	0.110	0.320
2020/01/31 14:50:17.5	359.890	-0.080	0.040	0.300
2020/01/31 14:50:17.6	359.890	-0.060	-0.040	0.270
2020/01/31 14:50:17.7	359.890	-0.030	-0.130	0.240
2020/01/31 14:50:17.8	359.900	0.000	-0.210	0.210
2020/01/31 14:50:17.9	359.900	0.030	-0.290	0.170
2020/01/31 14:50:18.0	359.920	0.060	-0.370	0.130
2020/01/31 14:50:18.1	359.930	0.090	-0.450	0.090
2020/01/31 14:50:18.2	359.940	0.120	-0.530	0.050
2020/01/31 14:50:18.3	359.960	0.150	-0.610	-0.000
2020/01/31 14:50:18.4	359.980	0.180	-0.680	-0.050
2020/01/31 14:50:18.5	0.000	0.200	-0.750	-0.100
2020/01/31 14:50:18.6	0.020	0.230	-0.820	-0.150
2020/01/31 14:50:18.7	0.050	0.250	-0.870	-0.210
2020/01/31 14:50:18.8	0.070	0.270	-0.930	-0.260
2020/01/31 14:50:18.9	0.090	0.290	-0.970	-0.310
2020/01/31 14:50:19.0	0.120	0.300	-1.020	-0.360
2020/01/31 14:50:19.1	0.140	0.310	-1.050	-0.410
2020/01/31 14:50:19.2	0.150	0.320	-1.080	-0.450
2020/01/31 14:50:19.3	0.170	0.320	-1.100	-0.490
2020/01/31 14:50:19.4	0.190	0.320	-1.120	-0.530
2020/01/31 14:50:19.5	0.200	0.320	-1.120	-0.570
2020/01/31 14:50:19.6	0.210	0.310	-1.120	-0.600
2020/01/31 14:50:19.7	0.220	0.300	-1.110	-0.630
2020/01/31 14:50:19.8	0.220	0.290	-1.100	-0.660
2020/01/31 14:50:19.9	0.230	0.270	-1.070	-0.680
2020/01/31 14:50:20.0	0.230	0.250	-1.040	-0.700
2020/01/31 14:50:20.1	0.230	0.230	-1.000	-0.720
2020/01/31 14:50:20.2	0.230	0.200	-0.960	-0.730
2020/01/31 14:50:20.3	0.220	0.170	-0.910	-0.740
2020/01/31 14:50:20.4	0.220	0.140	-0.860	-0.750
2020/01/31 14:50:20.5	0.210	0.110	-0.800	-0.750
2020/01/31 14:50:20.6	0.200	0.080	-0.740	-0.750
2020/01/31 14:50:20.7	0.190	0.040	-0.680	-0.760
2020/01/31 14:50:20.8	0.180	0.010	-0.610	-0.760
2020/01/31 14:50:20.9	0.170	-0.030	-0.550	-0.760
2020/01/31 14:50:21.0	0.160	-0.070	-0.480	-0.760
2020/01/31 14:50:21.1	0.150	-0.100	-0.410	-0.750
2020/01/31 14:50:21.2	0.140	-0.130	-0.350	-0.750
2020/01/31 14:50:21.3	0.130	-0.170	-0.290	-0.750
2020/01/31 14:50:21.4	0.120	-0.200	-0.230	-0.740
2020/01/31 14:50:21.5	0.110	-0.230	-0.170	-0.740
2020/01/31 14:50:21.6	0.110	-0.260	-0.110	-0.740
2020/01/31 14:50:21.7	0.090	-0.280	-0.060	-0.740
2020/01/31 14:50:21.8	0.090	-0.300	-0.010	-0.730
2020/01/31 14:50:21.9	0.090	-0.320	0.030	-0.730
2020/01/31 14:50:22.0	0.080	-0.340	0.070	-0.720
2020/01/31 14:50:22.1	0.080	-0.350	0.100	-0.720
2020/01/31 14:50:22.2	0.080	-0.360	0.140	-0.710
2020/01/31 14:50:22.3	0.080	-0.370	0.160	-0.710
2020/01/31 14:50:22.4	0.080	-0.370	0.190	-0.700
2020/01/31 14:50:22.5	0.080	-0.380	0.210	-0.690
2020/01/31 14:50:22.6	0.080	-0.370	0.220	-0.680
2020/01/31 14:50:22.7	0.090	-0.370	0.240	-0.670
2020/01/31 14:50:22.8	0.090	-0.360	0.240	-0.650
2020/01/31 14:50:22.9	0.090	-0.350	0.250	-0.640
2020/01/31 14:50:23.0	0.100	-0.340	0.250	-0.630
2020/01/31 14:50:23.1	0.100	-0.330	0.250	-0.610
2020/01/31 14:50:23.2	0.100	-0.310	0.250	-0.590
2020/01/31 14:50:23.3	0.110	-0.290	0.240	-0.580
2020/01/31 14:50:23.4	0.110	-0.270	0.230	-0.560
2020/01/31 14:50:23.5	0.120	-0.250	0.220	-0.540
2020/01/31 14:50:23.6	0.120	-0.230	0.210	-0.520
2020/01/31 14:50:23.7	0.120	-0.200	0.200	-0.490
2020/01/31 14:50:23.8	0.130	-0.180	0.190	-0.470
2020/01/31 14:50:23.9	0.130	-0.150	0.170	-0.450
2020/01/31 14:50:24.0	0.130	-0.130	0.160	-0.430
2020/01/31 14:50:24.1	0.140	-0.100	0.140	-0.400
2020/01/31 14:50:24.2	0.140	-0.080	0.130	-0.380
2020/01/31 14:50:24.3	0.140	-0.050	0.110	-0.350
2020/01/31 14:50:24.4	0.140	-0.030	0.090	-0.320
2020/01/31 14:50:24.5	0.150	-0.010	0.080	-0.300
2020/01/31 14:50:24.6	0.150	0.020	0.060	-0.270
2020/01/31 14:50:24.7	0.150	0.040	0.040	-0.250
2020/01/31 14:50:24.8	0.150	0.060	0.020	-0.220
2020/01/31 14:50:24.9	0.150	0.080	0.000	-0.190
2020/01/31 14:50:25.0	0.140	0.100	-0.020	-0.160
2020/01/31 14:50:25.1	0.140	0.120	-0.040	-0.120
2020/01/31 14:50:25.2	0.140	0.130	-0.060	-0.090
2020/01/31 14:50:25.3	0.130	0.150	-0.080	-0.060
2020/01/31 14:50:25.4	0.120	0.160	-0.110	-0.020
2020/01/31 14:50:25.5	0.120	0.180	-0.130	0.010
2020/01/31 14:50:25.6	0.110	0.190	-0.160	0.040
2020/01/31 14:50:25.7	0.100	0.200	-0.180	0.070
2020/01/31 14:50:25.8	0.090	0.210	-0.210	0.100
2020/01/31 14:50:25.9	0.080	0.220	-0.230	0.130
2020/01/31 14:50:26.0	0.070	0.230	-0.260	0.160
2020/01/31 14:50:26.1	0.060	0.240	-0.290	0.180
2020/01/31 14:50:26.2	0.060	0.250	-0.320	0.210
2020/01/31 14:50:26.3	0.050	0.250	-0.350	0.220
2020/01/31 14:50:26.4	0.040	0.260	-0.390	0.240
2020/01/31 14:50:26.5	0.040	0.260	-0.420	0.250
2020/01/31 14:50:26.6	0.030	0.270	-0.450	0.260
2020/01/31 14:50:26.7	0.030	0.270	-0.490	0.270
2020/01/31 14:50:26.8	0.030	0.280	-0.520	0.270
2020/01/31 14:50:26.9	0.030	0.280	-0.550	0.270
2020/01/31 14:50:27.0	0.030	0.290	-0.580	0.270
2020/01/31 14:50:27.1	0.030	0.290	-0.610	0.260
2020/01/31 14:50:27.2	0.030	0.290	-0.640	0.260
2020/01/31 14:50:27.3	0.030	0.300	-0.670	0.250
2020/01/31 14:50:27.4	0.030	0.300	-0.690	0.230
2020/01/31 14:50:27.5	0.030	0.310	-0.720	0.220
2020/01/31 14:50:27.6	0.030	0.310	-0.740	0.200
2020/01/31 14:50:27.7	0.040	0.310	-0.750	0.180
2020/01/31 14:50:27.8	0.040	0.320	-0.770	0.160
2020/01/31 14:50:27.9	0.050	0.320	-0.780	0.140
2020/01/31 14:50:28.0	0.050	0.320	-0.780	0.120
2020/01/31 14:50:28.1	0.050	0.320	-0.780	0.100
2020/01/31 14:50:28.2	0.050	0.320	-0.780	0.080
2020/01/31 14:50:28.3	0.050	0.320	-0.770	0.060
2020/01/31 14:50:28.4	0.050	0.310	-0.760	0.040
2020/01/31 14:50:28.5	0.050	0.300	-0.740	0.020
2020/01/31 14:50:28.6	0.050	0.290	-0.710	-0.000
2020/01/31 14:50:28.7	0.050	0.280	-0.680	-0.030
2020/01/31 14:50:28.8	0.050	0.270	-0.640	-0.050
2020/01/31 14:50:28.9	0.040	0.250	-0.600	-0.070
2020/01/31 14:50:29.0	0.030	0.230	-0.550	-0.090
2020/01/31 14:50:29.1	0.020	0.200	-0.500	-0.110
2020/01/31 14:50:29.2	0.010	0.180	-0.440	-0.130
2020/01/31 14:50:29.3	0.000	0.150	-0.380	-0.150
2020/01/31 14:50:29.4	359.980	0.110	-0.320	-0.160
2020/01/31 14:50:29.5	359.970	0.070	-0.250	-0.180
2020/01/31 14:50:29.6	359.950	0.030	-0.180	-0.200
2020/01/31 14:50:29.7	359.920	-0.010	-0.100	-0.230
2020/01/31 14:50:29.8	359.900	-0.060	-0.030	-0.250
2020/01/31 14:50:29.9	359.890	-0.100	0.040	-0.270
2020/01/31 14:50:30.0	359.870	-0.150	0.110	-0.290
2020/01/31 14:50:30.1	359.850	-0.210	0.180	-0.310
2020/01/31 14:50:30.2	359.830	-0.260	0.250	-0.340
2020/01/31 14:50:30.3	359.820	-0.310	0.310	-0.360
2020/01/31 14:50:30.4	359.810	-0.360	0.360	-0.380
2020/01/31 14:50:30.5	359.790	-0.410	0.410	-0.410
2020/01/31 14:50:30.6	359.780	-0.460	0.460	-0.430
2020/01/31 14:50:30.7	359.780	-0.510	0.490	-0.460
2020/01/31 14:50:30.8	359.770	-0.550	0.520	-0.490
2020/01/31 14:50:30.9	359.770	-0.600	0.540	-0.510
2020/01/31 14:50:31.0	359.770	-0.630	0.550	-0.540
2020/01/31 14:50:31.1	359.770	-0.670	0.550	-0.560
2020/01/31 14:50:31.2	359.770	-0.700	0.540	-0.590
2020/01/31 14:50:31.3	359.780	-0.720	0.530	-0.610
2020/01/31 14:50:31.4	359.790	-0.740	0.510	-0.630
2020/01/31 14:50:31.5	359.790	-0.760	0.470	-0.650
2020/01/31 14:50:31.6	359.800	-0.770	0.430	-0.670
2020/01/31 14:50:31.7	359.820	-0.770	0.390	-0.700
2020/01/31 14:50:31.8	359.830	-0.760	0.340	-0.710
2020/01/31 14:50:31.9	359.840	-0.750	0.280	-0.730
2020/01/31 14:50:32.0	359.850	-0.730	0.210	-0.740
2020/01/31 14:50:32.1	359.870	-0.710	0.140	-0.750
2020/01/31 14:50:32.2	359.880	-0.670	0.060	-0.750
2020/01/31 14:50:32.3	359.900	-0.640	-0.020	-0.760
2020/01/31 14:50:32.4	359.920	-0.590	-0.100	-0.760
2020/01/31 14:50:32.5	359.930	-0.540	-0.180	-0.760
2020/01/31 14:50:32.6	359.960	-0.480	-0.270	-0.760
2020/01/31 14:50:32.7	359.980	-0.420	-0.350	-0.750
2020/01/31 14:50:32.8	0.010	-0.350	-0.440	-0.750
2020/01/31 14:50:32.9	0.030	-0.280	-0.520	-0.740
2020/01/31 14:50:33.0	0.050	-0.210	-0.610	-0.730
2020/01/31 14:50:33.1	0.080	-0.130	-0.690	-0.720
2020/01/31 14:50:33.2	0.110	-0.050	-0.760	-0.710
2020/01/31 14:50:33.3	0.130	0.030	-0.840	-0.700
2020/01/31 14:50:33.4	0.160	0.110	-0.900	-0.680
2020/01/31 14:50:33.5	0.190	0.200	-0.960	-0.670
2020/01/31 14:50:33.6	0.210	0.280	-1.020	-0.650
2020/01/31 14:50:33.7	0.240	0.360	-1.070	-0.630
2020/01/31 14:50:33.8	0.260	0.430	-1.100	-0.600
2020/01/31 14:50:33.9	0.280	0.510	-1.140	-0.580
2020/01/31 14:50:34.0	0.300	0.580	-1.160	-0.550
2020/01/31 14:50:34.1	0.320	0.640	-1.170	-0.520
2020/01/31 14:50:34.2	0.330	0.700	-1.180	-0.490
2020/01/31 14:50:34.3	0.340	0.750	-1.170	-0.450
2020/01/31 14:50:34.4	0.350	0.790	-1.150	-0.420
2020/01/31 14:50:34.5	0.350	0.830	-1.130	-0.380
2020/01/31 14:50:34.6	0.350	0.850	-1.090	-0.340
2020/01/31 14:50:34.7	0.340	0.870	-1.050	-0.300
2020/01/31 14:50:34.8	0.330	0.880	-1.000	-0.270
2020/01/31 14:50:34.9	0.310	0.880	-0.940	-0.230
2020/01/31 14:50:35.0	0.300	0.870	-0.870	-0.190
2020/01/31 14:50:35.1	0.280	0.860	-0.790	-0.150
2020/01/31 14:50:35.2	0.250	0.830	-0.710	-0.120
2020/01/31 14:50:35.3	0.230	0.800	-0.620	-0.090
2020/01/31 14:50:35.4	0.200	0.760	-0.530	-0.050
2020/01/31 14:50:35.5	0.170	0.710	-0.440	-0.030
2020/01/31 14:50:35.6	0.140	0.650	-0.340	-0.000
2020/01/31 14:50:35.7	0.100	0.580	-0.250	0.030
2020/01/31 14:50:35.8	0.060	0.510	-0.150	0.050
2020/01/31 14:50:35.9	0.030	0.440	-0.050	0.060
2020/01/31 14:50:36.0	359.990	0.360	0.040	0.070
2020/01/31 14:50:36.1	359.950	0.280	0.130	0.080
2020/01/31 14:50:36.2	359.920	0.190	0.220	0.080
2020/01/31 14:50:36.3	359.890	0.110	0.300	0.080
2020/01/31 14:50:36.4	359.850	0.020	0.380	0.070
2020/01/31 14:50:36.5	359.820	-0.070	0.440	0.060
2020/01/31 14:50:36.6	359.790	-0.150	0.500	0.040
2020/01/31 14:50:36.7	359.760	-0.240	0.560	0.010
2020/01/31 14:50:36.8	359.740	-0.320	0.600	-0.020
2020/01/31 14:50:36.9	359.720	-0.390	0.630	-0.060
2020/01/31 14:50:37.0	359.700	-0.470	0.660	-0.100
2020/01/31 14:50:37.1	359.680	-0.530	0.670	-0.150
2020/01/31 14:50:37.2	359.660	-0.590	0.670	-0.190
2020/01/31 14:50:37.3	359.650	-0.650	0.660	-0.240
2020/01/31 14:50:37.4	359.640	-0.700	0.650	-0.300
2020/01/31 14:50:37.5	359.630	-0.740	0.620	-0.350
2020/01/31 14:50:37.6	359.620	-0.770	0.590	-0.410
2020/01/31 14:50:37.7	359.620	-0.790	0.550	-0.480
2020/01/31 14:50:37.8	359.610	-0.810	0.500	-0.540
2020/01/31 14:50:37.9	359.610	-0.820	0.450	-0.590
2020/01/31 14:50:38.0	359.610	-0.820	0.380	-0.650
2020/01/31 14:50:38.1	359.610	-0.810	0.320	-0.710
2020/01/31 14:50:38.2	359.620	-0.790	0.240	-0.760
2020/01/31 14:50:38.3	359.620	-0.770	0.170	-0.820
2020/01/31 14:50:38.4	359.630	-0.740	0.090	-0.870
2020/01/31 14:50:38.5	359.640	-0.700	0.010	-0.920
2020/01/31 14:50:38.6	359.650	-0.660	-0.080	-0.970
2020/01/31 14:50:38.7	359.660	-0.610	-0.160	-1.020
2020/01/31 14:50:38.8	359.670	-0.550	-0.250	-1.070
2020/01/31 14:50:38.9	359.690	-0.500	-0.330	-1.110
2020/01/31 14:50:39.0	359.710	-0.430	-0.420	-1.150
2020/01/31 14:50:39.1	359.730	-0.370	-0.500	-1.190
2020/01/31 14:50:39.2	359.750	-0.300	-0.580	-1.220
2020/01/31 14:50:39.3	359.780	-0.230	-0.650	-1.250
2020/01/31 14:50:39.4	359.800	-0.160	-0.730	-1.270
2020/01/31 14:50:39.5	359.830	-0.090	-0.790	-1.290
2020/01/31 14:50:39.6	359.860	-0.020	-0.850	-1.310
2020/01/31 14:50:39.7	359.880	0.050	-0.900	-1.320
2020/01/31 14:50:39.8	359.910	0.120	-0.950	-1.320
2020/01/31 14:50:39.9	359.950	0.190	-1.000	-1.320
2020/01/31 14:50:40.0	359.980	0.250	-1.030	-1.320
2020/01/31 14:50:40.1	0.010	0.310	-1.060	-1.310
2020/01/31 14:50:40.2	0.050	0.360	-1.070	-1.290
2020/01/31 14:50:40.3	0.080	0.420	-1.080	-1.270
2020/01/31 14:50:40.4	0.110	0.460	-1.090	-1.240
2020/01/31 14:50:40.5	0.130	0.500	-1.080	-1.210
2020/01/31 14:50:40.6	0.160	0.540	-1.060	-1.170
2020/01/31 14:50:40.7	0.170	0.570	-1.040	-1.140
2020/01/31 14:50:40.8	0.200	0.590	-1.010	-1.090
2020/01/31 14:50:40.9	0.210	0.610	-0.970	-1.040
2020/01/31 14:50:41.0	0.230	0.620	-0.920	-0.990
2020/01/31 14:50:41.1	0.240	0.630	-0.870	-0.930
2020/01/31 14:50:41.2	0.260	0.630	-0.810	-0.860
2020/01/31 14:50:41.3	0.260	0.620	-0.740	-0.800
2020/01/31 14:50:41.4	0.270	0.610	-0.670	-0.730
2020/01/31 14:50:41.5	0.270	0.590	-0.600	-0.660
2020/01/31 14:50:41.6	0.270	0.570	-0.520	-0.590
2020/01/31 14:50:41.7	0.260	0.550	-0.440	-0.520
2020/01/31 14:50:41.8	0.260	0.520	-0.350	-0.440
2020/01/31 14:50:41.9	0.250	0.490	-0.270	-0.370
2020/01/31 14:50:42.0	0.240	0.450	-0.180	-0.290
2020/01/31 14:50:42.1	0.230	0.410	-0.090	-0.220
2020/01/31 14:50:42.2	0.210	0.380	-0.010	-0.150
2020/01/31 14:50:42.3	0.200	0.330	0.070	-0.080
2020/01/31 14:50:42.4	0.180	0.290	0.150	-0.010
2020/01/31 14:50:42.5	0.170	0.250	0.230	0.050
2020/01/31 14:50:42.6	0.150	0.210	0.300	0.120
2020/01/31 14:50:42.7	0.130	0.170	0.370	0.170
2020/01/31 14:50:42.8	0.110	0.130	0.430	0.230
2020/01/31 14:50:42.9	0.090	0.090	0.490	0.280
2020/01/31 14:50:43.0	0.080	0.050	0.540	0.330
2020/01/31 14:50:43.1	0.060	0.010	0.580	0.370
2020/01/31 14:50:43.2	0.040	-0.020	0.610	0.410
2020/01/31 14:50:43.3	0.020	-0.060	0.640	0.440
2020/01/31 14:50:43.4	0.010	-0.090	0.660	0.470
2020/01/31 14:50:43.5	359.990	-0.110	0.680	0.490
2020/01/31 14:50:43.6	359.970	-0.140	0.680	0.510
2020/01/31 14:50:43.7	359.960	-0.160	0.680	0.530
2020/01/31 14:50:43.8	359.940	-0.180	0.670	0.540
2020/01/31 14:50:43.9	359.920	-0.200	0.660	0.550
2020/01/31 14:50:44.0	359.900	-0.210	0.640	0.550
2020/01/31 14:50:44.1	359.890	-0.230	0.610	0.540
2020/01/31 14:50:44.2	359.870	-0.240	0.570	0.540
2020/01/31 14:50:44.3	359.850	-0.240	0.530	0.520
2020/01/31 14:50:44.4	359.830	-0.250	0.490	0.510
2020/01/31 14:50:44.5	359.810	-0.250	0.440	0.490
2020/01/31 14:50:44.6	359.800	-0.260	0.380	0.470
2020/01/31 14:50:44.7	359.780	-0.260	0.330	0.440
2020/01/31 14:50:44.8	359.770	-0.260	0.260	0.400
2020/01/31 14:50:44.9	359.750	-0.260	0.200	0.370
2020/01/31 14:50:45.0	359.740	-0.250	0.130	0.330
2020/01/31 14:50:45.1	359.730	-0.250	0.060	0.280
2020/01/31 14:50:45.2	359.720	-0.250	-0.010	0.240
2020/01/31 14:50:45.3	359.710	-0.240	-0.080	0.190
2020/01/31 14:50:45.4	359.710	-0.240	-0.150	0.130
2020/01/31 14:50:45.5	359.700	-0.230	-0.220	0.080
2020/01/31 14:50:45.6	359.700	-0.230	-0.290	0.020
2020/01/31 14:50:45.7	359.700	-0.230	-0.360	-0.040
2020/01/31 14:50:45.8	359.700	-0.220	-0.430	-0.100
2020/01/31 14:50:45.9	359.710	-0.220	-0.490	-0.160
2020/01/31 14:50:46.0	359.710	-0.220	-0.550	-0.220
2020/01/31 14:50:46.1	359.720	-0.210	-0.610	-0.290
2020/01/31 14:50:46.2	359.730	-0.210	-0.670	-0.350
2020/01/31 14:50:46.3	359.750	-0.210	-0.720	-0.410
2020/01/31 14:50:46.4	359.760	-0.210	-0.770	-0.470
2020/01/31 14:50:46.5	359.770	-0.210	-0.810	-0.530
2020/01/31 14:50:46.6	359.790	-0.210	-0.850	-0.590
2020/01/31 14:50:46.7	359.790	-0.210	-0.890	-0.650
2020/01/31 14:50:46.8	359.810	-0.210	-0.920	-0.710
2020/01/31 14:50:46.9	359.830	-0.210	-0.950	-0.770
2020/01/31 14:50:47.0	359.850	-0.210	-0.970	-0.820
2020/01/31 14:50:47.1	359.870	-0.210	-0.990	-0.870
2020/01/31 14:50:47.2	359.890	-0.210	-1.000	-0.920
2020/01/31 14:50:47.3	359.910	-0.200	-1.010	-0.970
2020/01/31 14:50:47.4	359.940	-0.200	-1.020	-1.020
2020/01/31 14:50:47.5	359.960	-0.200	-1.020	-1.060
2020/01/31 14:50:47.6	359.980	-0.200	-1.020	-1.100
2020/01/31 14:50:47.7	0.000	-0.200	-1.020	-1.140
2020/01/31 14:50:47.8	0.020	-0.190	-1.010	-1.170
2020/01/31 14:50:47.9	0.040	-0.190	-0.990	-1.200
2020/01/31 14:50:48.0	0.070	-0.180	-0.980	-1.220
2020/01/31 14:50:48.1	0.090	-0.170	-0.960	-1.230
2020/01/31 14:50:48.2	0.110	-0.160	-0.930	-1.250
2020/01/31 14:50:48.3	0.130	-0.150	-0.910	-1.250
2020/01/31 14:50:48.4	0.150	-0.140	-0.880	-1.250
2020/01/31 14:50:48.5	0.170	-0.130	-0.840	-1.250
2020/01/31 14:50:48.6	0.190	-0.120	-0.810	-1.240
2020/01/31 14:50:48.7	0.210	-0.100	-0.770	-1.220
2020/01/31 14:50:48.8	0.220	-0.080	-0.730	-1.200
2020/01/31 14:50:48.9	0.240	-0.070	-0.680	-1.180
2020/01/31 14:50:49.0	0.250	-0.050	-0.640	-1.140
2020/01/31 14:50:49.1	0.270	-0.030	-0.590	-1.110
2020/01/31 14:50:49.2	0.280	-0.010	-0.550	-1.070
2020/01/31 14:50:49.3	0.290	0.010	-0.500	-1.020
2020/01/31 14:50:49.4	0.300	0.030	-0.450	-0.980
2020/01/31 14:50:49.5	0.310	0.050	-0.400	-0.920
2020/01/31 14:50:49.6	0.310	0.080	-0.360	-0.870
2020/01/31 14:50:49.7	0.320	0.100	-0.310	-0.800
2020/01/31 14:50:49.8	0.330	0.120	-0.270	-0.750
2020/01/31 14:50:49.9	0.330	0.140	-0.230	-0.680
2020/01/31 14:50:50.0	0.340	0.160	-0.190	-0.620
2020/01/31 14:50:50.1	0.340	0.180	-0.150	-0.560
2020/01/31 14:50:50.2	0.350	0.200	-0.110	-0.500
2020/01/31 14:50:50.3	0.350	0.220	-0.080	-0.430
2020/01/31 14:50:50.4	0.350	0.240	-0.050	-0.370
2020/01/31 14:50:50.5	0.360	0.260	-0.020	-0.310
2020/01/31 14:50:50.6	0.360	0.270	0.010	-0.260
2020/01/31 14:50:50.7	0.360	0.290	0.030	-0.200
2020/01/31 14:50:50.8	0.370	0.300	0.050	-0.150
2020/01/31 14:50:50.9	0.370	0.310	0.070	-0.100
2020/01/31 14:50:51.0	0.380	0.320	0.080	-0.050
2020/01/31 14:50:51.1	0.380	0.320	0.090	-0.010
2020/01/31 14:50:51.2	0.380	0.330	0.100	0.030
2020/01/31 14:50:51.3	0.380	0.330	0.110	0.070
2020/01/31 14:50:51.4	0.390	0.330	0.110	0.110
2020/01/31 14:50:51.5	0.390	0.330	0.110	0.140
2020/01/31 14:50:51.6	0.390	0.330	0.110	0.170
2020/01/31 14:50:51.7	0.400	0.320	0.110	0.190
2020/01/31 14:50:51.8	0.400	0.320	0.110	0.220
2020/01/31 14:50:51.9	0.400	0.310	0.110	0.240
2020/01/31 14:50:52.0	0.400	0.300	0.100	0.260
2020/01/31 14:50:52.1	0.390	0.290	0.100	0.270
2020/01/31 14:50:52.2	0.390	0.270	0.090	0.280
2020/01/31 14:50:52.3	0.380	0.260	0.090	0.290
2020/01/31 14:50:52.4	0.380	0.240	0.080	0.300
2020/01/31 14:50:52.5	0.370	0.230	0.070	0.310
2020/01/31 14:50:52.6	0.370	0.210	0.060	0.310
2020/01/31 14:50:52.7	0.370	0.190	0.060	0.300
2020/01/31 14:50:52.8	0.360	0.170	0.050	0.300
2020/01/31 14:50:52.9	0.360	0.150	0.040	0.290
2020/01/31 14:50:53.0	0.350	0.130	0.030	0.280
2020/01/31 14:50:53.1	0.350	0.110	0.010	0.270
2020/01/31 14:50:53.2	0.340	0.090	-0.000	0.250
2020/01/31 14:50:53.3	0.340	0.070	-0.020	0.230
2020/01/31 14:50:53.4	0.340	0.050	-0.030	0.200
2020/01/31 14:50:53.5	0.340	0.040	-0.050	0.180
2020/01/31 14:50:53.6	0.330	0.020	-0.070	0.150
2020/01/31 14:50:53.7	0.330	0.000	-0.080	0.110
2020/01/31 14:50:53.8	0.330	-0.010	-0.100	0.080
2020/01/31 14:50:53.9	0.340	-0.020	-0.120	0.040
2020/01/31 14:50:54.0	0.340	-0.030	-0.150	0.000
2020/01/31 14:50:54.1	0.350	-0.040	-0.170	-0.040
2020/01/31 14:50:54.2	0.360	-0.050	-0.190	-0.080
2020/01/31 14:50:54.3	0.370	-0.050	-0.210	-0.130
2020/01/31 14:50:54.4	0.380	-0.060	-0.240	-0.170
2020/01/31 14:50:54.5	0.400	-0.060	-0.260	-0.220
2020/01/31 14:50:54.6	0.410	-0.060	-0.280	-0.260
2020/01/31 14:50:54.7	0.430	-0.060	-0.300	-0.310
2020/01/31 14:50:54.8	0.450	-0.050	-0.320	-0.350
2020/01/31 14:50:54.9	0.470	-0.050	-0.330	-0.390
2020/01/31 14:50:55.0	0.490	-0.040	-0.340	-0.420
2020/01/31 14:50:55.1	0.500	-0.030	-0.350	-0.450
2020/01/31 14:50:55.2	0.520	-0.020	-0.360	-0.480
2020/01/31 14:50:55.3	0.530	-0.010	-0.360	-0.500
2020/01/31 14:50:55.4	0.540	-0.000	-0.360	-0.520
2020/01/31 14:50:55.5	0.550	0.010	-0.360	-0.540
2020/01/31 14:50:55.6	0.560	0.020	-0.350	-0.550
2020/01/31 14:50:55.7	0.570	0.030	-0.340	-0.550
2020/01/31 14:50:55.8	0.580	0.040	-0.330	-0.550
2020/01/31 14:50:55.9	0.580	0.050	-0.310	-0.550
2020/01/31 14:50:56.0	0.590	0.060	-0.290	-0.550
2020/01/31 14:50:56.1	0.590	0.070	-0.270	-0.540
2020/01/31 14:50:56.2	0.590	0.070	-0.250	-0.520
2020/01/31 14:50:56.3	0.590	0.080	-0.220	-0.510
2020/01/31 14:50:56.4	0.580	0.090	-0.200	-0.490
2020/01/31 14:50:56.5	0.580	0.090	-0.170	-0.470
2020/01/31 14:50:56.6	0.570	0.090	-0.140	-0.450
2020/01/31 14:50:56.7	0.580	0.090	-0.110	-0.420
2020/01/31 14:50:56.8	0.570	0.090	-0.090	-0.400
2020/01/31 14:50:56.9	0.560	0.090	-0.060	-0.380
2020/01/31 14:50:57.0	0.550	0.090	-0.030	-0.350
2020/01/31 14:50:57.1	0.530	0.080	-0.010	-0.330
2020/01/31 14:50:57.2	0.520	0.070	0.020	-0.300
2020/01/31 14:50:57.3	0.510	0.070	0.040	-0.280
2020/01/31 14:50:57.4	0.490	0.060	0.060	-0.260
2020/01/31 14:50:57.5	0.480	0.040	0.080	-0.240
2020/01/31 14:50:57.6	0.470	0.030	0.100	-0.210
2020/01/31 14:50:57.7	0.440	0.020	0.110	-0.200
2020/01/31 14:50:57.8	0.430	0.000	0.120	-0.180
2020/01/31 14:50:57.9	0.420	-0.020	0.130	-0.160
2020/01/31 14:50:58.0	0.400	-0.030	0.140	-0.140
2020/01/31 14:50:58.1	0.390	-0.050	0.150	-0.130
2020/01/31 14:50:58.2	0.370	-0.070	0.150	-0.110
2020/01/31 14:50:58.3	0.360	-0.090	0.150	-0.100
2020/01/31 14:50:58.4	0.340	-0.110	0.150	-0.090
2020/01/31 14:50:58.5	0.330	-0.130	0.140	-0.080
2020/01/31 14:50:58.6	0.310	-0.160	0.130	-0.080
2020/01/31 14:50:58.7	0.290	-0.180	0.120	-0.070
2020/01/31 14:50:58.8	0.270	-0.200	0.110	-0.070
2020/01/31 14:50:58.9	0.260	-0.220	0.090	-0.070
2020/01/31 14:50:59.0	0.240	-0.240	0.070	-0.070
2020/01/31 14:50:59.1	0.220	-0.270	0.040	-0.070
2020/01/31 14:50:59.2	0.210	-0.290	0.010	-0.080
2020/01/31 14:50:59.3	0.200	-0.310	-0.030	-0.090
2020/01/31 14:50:59.4	0.190	-0.320	-0.070	-0.110
2020/01/31 14:50:59.5	0.180	-0.340	-0.110	-0.130
2020/01/31 14:50:59.6	0.170	-0.360	-0.160	-0.150
2020/01/31 14:50:59.7	0.170	-0.370	-0.210	-0.190
2020/01/31 14:50:59.8	0.160	-0.380	-0.260	-0.220
2020/01/31 14:50:59.9	0.170	-0.390	-0.320	-0.260
2020/01/31 14:51:00.0	0.170	-0.400	-0.380	-0.300
2020/01/31 14:51:00.1	0.180	-0.400	-0.440	-0.340
2020/01/31 14:51:00.2	0.190	-0.400	-0.500	-0.390
2020/01/31 14:51:00.3	0.210	-0.400	-0.560	-0.440
2020/01/31 14:51:00.4	0.220	-0.390	-0.630	-0.490
2020/01/31 14:51:00.5	0.240	-0.390	-0.690	-0.550
2020/01/31 14:51:00.6	0.270	-0.370	-0.760	-0.600
2020/01/31 14:51:00.7	0.300	-0.360	-0.810	-0.660
2020/01/31 14:51:00.8	0.320	-0.330	-0.880	-0.720
2020/01/31 14:51:00.9	0.350	-0.310	-0.940	-0.770
2020/01/31 14:51:01.0	0.390	-0.280	-0.990	-0.830
2020/01/31 14:51:01.1	0.420	-0.250	-1.050	-0.880
2020/01/31 14:51:01.2	0.450	-0.220	-1.090	-0.930
2020/01/31 14:51:01.3	0.490	-0.190	-1.140	-0.970
2020/01/31 14:51:01.4	0.530	-0.150	-1.180	-1.010
2020/01/31 14:51:01.5	0.560	-0.110	-1.210	-1.050
2020/01/31 14:51:01.6	0.600	-0.070	-1.230	-1.090
2020/01/31 14:51:01.7	0.630	-0.030	-1.250	-1.120
2020/01/31 14:51:01.8	0.670	0.010	-1.260	-1.140
2020/01/31 14:51:01.9	0.700	0.050	-1.270	-1.160
2020/01/31 14:51:02.0	0.730	0.100	-1.270	-1.180
2020/01/31 14:51:02.1	0.770	0.140	-1.250	-1.190
2020/01/31 14:51:02.2	0.800	0.170	-1.230	-1.200
2020/01/31 14:51:02.3	0.830	0.210	-1.210	-1.200
2020/01/31 14:51:02.4	0.860	0.250	-1.170	-1.190
2020/01/31 14:51:02.5	0.890	0.280	-1.130	-1.180
2020/01/31 14:51:02.6	0.920	0.310	-1.090	-1.170
2020/01/31 14:51:02.7	0.940	0.340	-1.030	-1.150
2020/01/31 14:51:02.8	0.970	0.360	-0.970	-1.120
2020/01/31 14:51:02.9	0.990	0.380	-0.900	-1.090
2020/01/31 14:51:03.0	1.010	0.390	-0.830	-1.060
2020/01/31 14:51:03.1	1.030	0.410	-0.760	-1.020
2020/01/31 14:51:03.2	1.040	0.410	-0.680	-0.980
2020/01/31 14:51:03.3	1.060	0.420	-0.600	-0.930
2020/01/31 14:51:03.4	1.070	0.420	-0.520	-0.880
2020/01/31 14:51:03.5	1.080	0.410	-0.440	-0.830
2020/01/31 14:51:03.6	1.080	0.400	-0.350	-0.780
2020/01/31 14:51:03.7	1.080	0.390	-0.270	-0.720
2020/01/31 14:51:03.8	1.080	0.380	-0.190	-0.660
2020/01/31 14:51:03.9	1.080	0.360	-0.110	-0.600
2020/01/31 14:51:04.0	1.080	0.330	-0.030	-0.550
2020/01/31 14:51:04.1	1.080	0.310	0.050	-0.490
2020/01/31 14:51:04.2	1.080	0.280	0.120	-0.440
2020/01/31 14:51:04.3	1.070	0.250	0.190	-0.380
2020/01/31 14:51:04.4	1.060	0.220	0.260	-0.330
2020/01/31 14:51:04.5	1.060	0.190	0.320	-0.270
2020/01/31 14:51:04.6	1.050	0.160	0.380	-0.220
2020/01/31 14:51:04.7	1.040	0.120	0.430	-0.180
2020/01/31 14:51:04.8	1.030	0.090	0.480	-0.130
2020/01/31 14:51:04.9	1.020	0.060	0.520	-0.090
2020/01/31 14:51:05.0	1.010	0.020	0.550	-0.050
2020/01/31 14:51:05.1	1.000	-0.010	0.580	-0.010
2020/01/31 14:51:05.2	0.990	-0.040	0.600	0.020
2020/01/31 14:51:05.3	0.980	-0.070	0.620	0.050
2020/01/31 14:51:05.4	0.970	-0.100	0.630	0.080
2020/01/31 14:51:05.5	0.960	-0.120	0.630	0.110
2020/01/31 14:51:05.6	0.950	-0.150	0.630	0.130
2020/01/31 14:51:05.7	0.930	-0.170	0.630	0.150
2020/01/31 14:51:05.8	0.920	-0.190	0.620	0.170
2020/01/31 14:51:05.9	0.900	-0.200	0.600	0.180
2020/01/31 14:51:06.0	0.890	-0.210	0.580	0.200
2020/01/31 14:51:06.1	0.880	-0.220	0.550	0.210
2020/01/31 14:51:06.2	0.860	-0.230	0.530	0.220
2020/01/31 14:51:06.3	0.850	-0.240	0.490	0.230
2020/01/31 14:51:06.4	0.830	-0.240	0.460	0.230
2020/01/31 14:51:06.5	0.810	-0.240	0.430	0.240
2020/01/31 14:51:06.6	0.800	-0.230	0.390	0.240
2020/01/31 14:51:06.7	0.790	-0.230	0.350	0.240
2020/01/31 14:51:06.8	0.770	-0.220	0.320	0.250
2020/01/31 14:51:06.9	0.750	-0.210	0.280	0.250
2020/01/31 14:51:07.0	0.730	-0.200	0.240	0.260
2020/01/31 14:51:07.1	0.700	-0.190	0.210	0.260
2020/01/31 14:51:07.2	0.680	-0.170	0.180	0.260
2020/01/31 14:51:07.3	0.660	-0.160	0.140	0.270
2020/01/31 14:51:07.4	0.630	-0.140	0.110	0.270
2020/01/31 14:51:07.5	0.610	-0.120	0.080	0.280
2020/01/31 14:51:07.6	0.580	-0.100	0.050	0.280
2020/01/31 14:51:07.7	0.550	-0.090	0.030	0.290
2020/01/31 14:51:07.8	0.530	-0.070	-0.000	0.290
2020/01/31 14:51:07.9	0.500	-0.050	-0.030	0.300
2020/01/31 14:51:08.0	0.470	-0.030	-0.050	0.300
2020/01/31 14:51:08.1	0.440	-0.020	-0.080	0.310
2020/01/31 14:51:08.2	0.420	0.000	-0.100	0.310
2020/01/31 14:51:08.3	0.390	0.020	-0.130	0.310
2020/01/31 14:51:08.4	0.370	0.030	-0.150	0.300
2020/01/31 14:51:08.5	0.350	0.050	-0.180	0.300
2020/01/31 14:51:08.6	0.330	0.060	-0.210	0.290
2020/01/31 14:51:08.7	0.310	0.070	-0.240	0.280
2020/01/31 14:51:08.8	0.300	0.080	-0.270	0.260
2020/01/31 14:51:08.9	0.290	0.090	-0.300	0.240
2020/01/31 14:51:09.0	0.270	0.100	-0.330	0.220
2020/01/31 14:51:09.1	0.270	0.110	-0.370	0.190
2020/01/31 14:51:09.2	0.260	0.110	-0.400	0.160
2020/01/31 14:51:09.3	0.260	0.120	-0.440	0.120
2020/01/31 14:51:09.4	0.260	0.120	-0.480	0.080
2020/01/31 14:51:09.5	0.270	0.130	-0.520	0.040
2020/01/31 14:51:09.6	0.280	0.130	-0.560	-0.010
2020/01/31 14:51:09.7	0.290	0.130	-0.600	-0.070
2020/01/31 14:51:09.8	0.300	0.130	-0.640	-0.120
2020/01/31 14:51:09.9	0.320	0.140	-0.680	-0.180
2020/01/31 14:51:10.0	0.340	0.140	-0.720	-0.240
2020/01/31 14:51:10.1	0.370	0.140	-0.760	-0.300
2020/01/31 14:51:10.2	0.400	0.140	-0.800	-0.370
2020/01/31 14:51:10.3	0.420	0.140	-0.840	-0.430
2020/01/31 14:51:10.4	0.450	0.140	-0.880	-0.500
2020/01/31 14:51:10.5	0.480	0.140	-0.910	-0.560
2020/01/31 14:51:10.6	0.520	0.140	-0.940	-0.620
2020/01/31 14:51:10.7	0.540	0.140	-0.960	-0.680
2020/01/31 14:51:10.8	0.570	0.130	-0.980	-0.730
2020/01/31 14:51:10.9	0.600	0.130	-0.990	-0.780
2020/01/31 14:51:11.0	0.630	0.130	-0.990	-0.830
2020/01/31 14:51:11.1	0.660	0.120	-0.990	-0.880
2020/01/31 14:51:11.2	0.680	0.120	-0.990	-0.920
2020/01/31 14:51:11.3	0.700	0.110	-0.970	-0.950
2020/01/31 14:51:11.4	0.720	0.100	-0.950	-0.980
2020/01/31 14:51:11.5	0.740	0.090	-0.930	-1.010
2020/01/31 14:51:11.6	0.750	0.080	-0.890	-1.030
2020/01/31 14:51:11.7	0.760	0.070	-0.860	-1.060
2020/01/31 14:51:11.8	0.770	0.060	-0.810	-1.070
2020/01/31 14:51:11.9	0.780	0.050	-0.770	-1.080
2020/01/31 14:51:12.0	0.780	0.030	-0.720	-1.080
2020/01/31 14:51:12.1	0.780	0.020	-0.660	-1.080
2020/01/31 14:51:12.2	0.780	0.010	-0.610	-1.080
2020/01/31 14:51:12.3	0.780	-0.010	-0.550	-1.070
2020/01/31 14:51:12.4	0.770	-0.030	-0.490	-1.060
2020/01/31 14:51:12.5	0.760	-0.040	-0.430	-1.050
2020/01/31 14:51:12.6	0.760	-0.060	-0.370	-1.040
2020/01/31 14:51:12.7	0.750	-0.070	-0.310	-1.010
2020/01/31 14:51:12.8	0.740	-0.090	-0.260	-0.990
2020/01/31 14:51:12.9	0.730	-0.100	-0.200	-0.970
2020/01/31 14:51:13.0	0.720	-0.120	-0.160	-0.950
2020/01/31 14:51:13.1	0.710	-0.130	-0.110	-0.930
2020/01/31 14:51:13.2	0.700	-0.140	-0.070	-0.900
2020/01/31 14:51:13.3	0.700	-0.160	-0.030	-0.880
2020/01/31 14:51:13.4	0.690	-0.160	-0.000	-0.860
2020/01/31 14:51:13.5	0.690	-0.170	0.020	-0.830
2020/01/31 14:51:13.6	0.690	-0.180	0.040	-0.810
2020/01/31 14:51:13.7	0.690	-0.180	0.060	-0.790
2020/01/31 14:51:13.8	0.690	-0.180	0.070	-0.770
2020/01/31 14:51:13.9	0.700	-0.180	0.070	-0.750
2020/01/31 14:51:14.0	0.710	-0.180	0.070	-0.740
2020/01/31 14:51:14.1	0.720	-0.180	0.060	-0.720
2020/01/31 14:51:14.2	0.730	-0.170	0.050	-0.710
2020/01/31 14:51:14.3	0.750	-0.160	0.040	-0.700
2020/01/31 14:51:14.4	0.770	-0.150	0.020	-0.690
2020/01/31 14:51:14.5	0.780	-0.140	-0.000	-0.680
2020/01/31 14:51:14.6	0.800	-0.130	-0.020	-0.670
2020/01/31 14:51:14.7	0.820	-0.110	-0.050	-0.660
2020/01/31 14:51:14.8	0.840	-0.100	-0.070	-0.650
2020/01/31 14:51:14.9	0.860	-0.080	-0.090	-0.640
2020/01/31 14:51:15.0	0.880	-0.070	-0.110	-0.630
2020/01/31 14:51:15.1	0.900	-0.050	-0.140	-0.620
2020/01/31 14:51:15.2	0.920	-0.030	-0.150	-0.600
2020/01/31 14:51:15.3	0.940	-0.020	-0.170	-0.590
2020/01/31 14:51:15.4	0.950	-0.010	-0.180	-0.570
2020/01/31 14:51:15.5	0.960	0.010	-0.190	-0.550
2020/01/31 14:51:15.6	0.970	0.020	-0.200	-0.520
2020/01/31 14:51:15.7	0.970	0.030	-0.200	-0.490
2020/01/31 14:51:15.8	0.970	0.040	-0.200	-0.450
2020/01/31 14:51:15.9	0.960	0.050	-0.200	-0.420
2020/01/31 14:51:16.0	0.950	0.060	-0.190	-0.380
2020/01/31 14:51:16.1	0.940	0.070	-0.170	-0.330
2020/01/31 14:51:16.2	0.920	0.070	-0.150	-0.290
2020/01/31 14:51:16.3	0.910	0.070	-0.130	-0.240
2020/01/31 14:51:16.4	0.880	0.080	-0.110	-0.180
2020/01/31 14:51:16.5	0.860	0.080	-0.090	-0.130
2020/01/31 14:51:16.6	0.830	0.070	-0.060	-0.070
2020/01/31 14:51:16.7	0.790	0.070	-0.030	-0.010
2020/01/31 14:51:16.8	0.750	0.070	0.000	0.040
2020/01/31 14:51:16.9	0.720	0.060	0.030	0.100
2020/01/31 14:51:17.0	0.680	0.060	0.060	0.160
2020/01/31 14:51:17.1	0.650	0.050	0.090	0.220
2020/01/31 14:51:17.2	0.610	0.040	0.110	0.280
2020/01/31 14:51:17.3	0.570	0.040	0.140	0.330
2020/01/31 14:51:17.4	0.530	0.030	0.160	0.380
2020/01/31 14:51:17.5	0.500	0.030	0.170	0.430
2020/01/31 14:51:17.6	0.470	0.020	0.180	0.470
2020/01/31 14:51:17.7	0.430	0.020	0.190	0.510
2020/01/31 14:51:17.8	0.400	0.010	0.190	0.550
2020/01/31 14:51:17.9	0.370	0.010	0.190	0.580
2020/01/31 14:51:18.0	0.340	0.010	0.180	0.610
2020/01/31 14:51:18.1	0.320	0.010	0.170	0.630
2020/01/31 14:51:18.2	0.300	0.010	0.160	0.650
2020/01/31 14:51:18.3	0.270	0.010	0.140	0.670
2020/01/31 14:51:18.4	0.250	0.020	0.110	0.680
2020/01/31 14:51:18.5	0.230	0.020	0.090	0.680
2020/01/31 14:51:18.6	0.220	0.030	0.060	0.690
2020/01/31 14:51:18.7	0.210	0.040	0.020	0.680
2020/01/31 14:51:18.8	0.190	0.050	-0.010	0.680
2020/01/31 14:51:18.9	0.180	0.060	-0.050	0.670
2020/01/31 14:51:19.0	0.170	0.070	-0.100	0.660
2020/01/31 14:51:19.1	0.160	0.080	-0.140	0.650
2020/01/31 14:51:19.2	0.150	0.090	-0.180	0.630
2020/01/31 14:51:19.3	0.150	0.100	-0.230	0.610
2020/01/31 14:51:19.4	0.140	0.120	-0.280	0.590
2020/01/31 14:51:19.5	0.140	0.130	-0.320	0.560
2020/01/31 14:51:19.6	0.140	0.140	-0.370	0.530
2020/01/31 14:51:19.7	0.140	0.150	-0.410	0.490
2020/01/31 14:51:19.8	0.140	0.160	-0.460	0.450
2020/01/31 14:51:19.9	0.140	0.170	-0.500	0.410
2020/01/31 14:51:20.0	0.150	0.180	-0.540	0.360
2020/01/31 14:51:20.1	0.150	0.190	-0.580	0.310
2020/01/31 14:51:20.2	0.160	0.190	-0.620	0.250
2020/01/31 14:51:20.3	0.170	0.190	-0.650	0.200
2020/01/31 14:51:20.4	0.180	0.190	-0.680	0.140
2020/01/31 14:51:20.5	0.190	0.190	-0.710	0.070
2020/01/31 14:51:20.6	0.200	0.190	-0.740	0.010
2020/01/31 14:51:20.7	0.210	0.180	-0.760	-0.060
2020/01/31 14:51:20.8	0.230	0.170	-0.770	-0.120
2020/01/31 14:51:20.9	0.240	0.160	-0.790	-0.190
2020/01/31 14:51:21.0	0.260	0.150	-0.800	-0.260
2020/01/31 14:51:21.1	0.280	0.130	-0.800	-0.330
2020/01/31 14:51:21.2	0.290	0.110	-0.800	-0.400
2020/01/31 14:51:21.3	0.310	0.090	-0.800	-0.460
2020/01/31 14:51:21.4	0.330	0.070	-0.790	-0.530
2020/01/31 14:51:21.5	0.350	0.040	-0.780	-0.600
2020/01/31 14:51:21.6	0.370	0.020	-0.760	-0.660
2020/01/31 14:51:21.7	0.390	-0.010	-0.740	-0.730
2020/01/31 14:51:21.8	0.420	-0.040	-0.720	-0.790
2020/01/31 14:51:21.9	0.440	-0.070	-0.700	-0.850
2020/01/31 14:51:22.0	0.460	-0.100	-0.670	-0.910
2020/01/31 14:51:22.1	0.480	-0.130	-0.640	-0.970
2020/01/31 14:51:22.2	0.500	-0.160	-0.610	-1.020
2020/01/31 14:51:22.3	0.520	-0.190	-0.580	-1.080
2020/01/31 14:51:22.4	0.540	-0.220	-0.540	-1.120
2020/01/31 14:51:22.5	0.560	-0.250	-0.510	-1.170
2020/01/31 14:51:22.6	0.580	-0.280	-0.480	-1.210
2020/01/31 14:51:22.7	0.590	-0.300	-0.440	-1.250
2020/01/31 14:51:22.8	0.610	-0.330	-0.410	-1.280
2020/01/31 14:51:22.9	0.620	-0.360	-0.370	-1.310
2020/01/31 14:51:23.0	0.630	-0.380	-0.330	-1.330
2020/01/31 14:51:23.1	0.640	-0.400	-0.290	-1.350
2020/01/31 14:51:23.2	0.650	-0.420	-0.260	-1.350
2020/01/31 14:51:23.3	0.660	-0.430	-0.220	-1.350
2020/01/31 14:51:23.4	0.660	-0.450	-0.180	-1.350
2020/01/31 14:51:23.5	0.660	-0.460	-0.140	-1.340
2020/01/31 14:51:23.6	0.660	-0.470	-0.110	-1.320
2020/01/31 14:51:23.7	0.650	-0.470	-0.070	-1.300
2020/01/31 14:51:23.8	0.650	-0.470	-0.030	-1.270
2020/01/31 14:51:23.9	0.640	-0.470	-0.000	-1.240
2020/01/31 14:51:24.0	0.640	-0.470	0.030	-1.200
2020/01/31 14:51:24.1	0.630	-0.460	0.060	-1.160
2020/01/31 14:51:24.2	0.630	-0.450	0.090	-1.120
2020/01/31 14:51:24.3	0.620	-0.440	0.120	-1.070
2020/01/31 14:51:24.4	0.610	-0.420	0.150	-1.030
2020/01/31 14:51:24.5	0.600	-0.400	0.170	-0.980
2020/01/31 14:51:24.6	0.600	-0.380	0.190	-0.920
2020/01/31 14:51:24.7	0.590	-0.350	0.200	-0.870
2020/01/31 14:51:24.8	0.590	-0.330	0.210	-0.820
2020/01/31 14:51:24.9	0.580	-0.300	0.220	-0.760
2020/01/31 14:51:25.0	0.580	-0.260	0.230	-0.710
2020/01/31 14:51:25.1	0.570	-0.230	0.230	-0.660
2020/01/31 14:51:25.2	0.570	-0.190	0.230	-0.600
2020/01/31 14:51:25.3	0.570	-0.150	0.230	-0.540
2020/01/31 14:51:25.4	0.560	-0.120	0.220	-0.490
2020/01/31 14:51:25.5	0.560	-0.070	0.210	-0.430
2020/01/31 14:51:25.6	0.550	-0.030	0.190	-0.370
2020/01/31 14:51:25.7	0.540	0.010	0.180	-0.300
2020/01/31 14:51:25.8	0.530	0.050	0.160	-0.240
2020/01/31 14:51:25.9	0.530	0.090	0.140	-0.170
2020/01/31 14:51:26.0	0.520	0.130	0.120	-0.110
2020/01/31 14:51:26.1	0.500	0.180	0.100	-0.040
2020/01/31 14:51:26.2	0.490	0.210	0.070	0.030
2020/01/31 14:51:26.3	0.480	0.250	0.050	0.090
2020/01/31 14:51:26.4	0.470	0.290	0.020	0.160
2020/01/31 14:51:26.5	0.450	0.320	-0.000	0.230
2020/01/31 14:51:26.6	0.440	0.360	-0.030	0.290
2020/01/31 14:51:26.7	0.430	0.390	-0.060	0.360
2020/01/31 14:51:26.8	0.420	0.420	-0.090	0.420
2020/01/31 14:51:26.9	0.410	0.440	-0.120	0.470
2020/01/31 14:51:27.0	0.400	0.460	-0.160	0.530
2020/01/31 14:51:27.1	0.390	0.480	-0.190	0.580
2020/01/31 14:51:27.2	0.380	0.500	-0.220	0.620
2020/01/31 14:51:27.3	0.370	0.520	-0.260	0.660
2020/01/31 14:51:27.4	0.360	0.530	-0.290	0.700
2020/01/31 14:51:27.5	0.360	0.540	-0.330	0.730
2020/01/31 14:51:27.6	0.360	0.550	-0.360	0.750
2020/01/31 14:51:27.7	0.350	0.550	-0.400	0.780
2020/01/31 14:51:27.8	0.350	0.550	-0.430	0.790
2020/01/31 14:51:27.9	0.350	0.550	-0.470	0.800
2020/01/31 14:51:28.0	0.350	0.550	-0.500	0.800
2020/01/31 14:51:28.1	0.350	0.550	-0.540	0.800
2020/01/31 14:51:28.2	0.350	0.540	-0.570	0.800
2020/01/31 14:51:28.3	0.350	0.530	-0.610	0.790
2020/01/31 14:51:28.4	0.360	0.520	-0.640	0.780
2020/01/31 14:51:28.5	0.360	0.510	-0.660	0.760
2020/01/31 14:51:28.6	0.360	0.500	-0.690	0.740
2020/01/31 14:51:28.7	0.350	0.490	-0.710	0.710
2020/01/31 14:51:28.8	0.350	0.470	-0.730	0.690
2020/01/31 14:51:28.9	0.360	0.450	-0.750	0.660
2020/01/31 14:51:29.0	0.360	0.440	-0.760	0.630
2020/01/31 14:51:29.1	0.360	0.420	-0.770	0.590
2020/01/31 14:51:29.2	0.360	0.400	-0.770	0.560
2020/01/31 14:51:29.3	0.360	0.370	-0.770	0.520
2020/01/31 14:51:29.4	0.360	0.350	-0.770	0.480
2020/01/31 14:51:29.5	0.360	0.330	-0.760	0.440
2020/01/31 14:51:29.6	0.360	0.300	-0.750	0.400
2020/01/31 14:51:29.7	0.350	0.280	-0.730	0.360
2020/01/31 14:51:29.8	0.350	0.250	-0.710	0.310
2020/01/31 14:51:29.9	0.350	0.230	-0.680	0.270
2020/01/31 14:51:30.0	0.340	0.200	-0.650	0.220
2020/01/31 14:51:30.1	0.340	0.170	-0.620	0.170
2020/01/31 14:51:30.2	0.330	0.140	-0.590	0.120
2020/01/31 14:51:30.3	0.330	0.120	-0.560	0.070
2020/01/31 14:51:30.4	0.320	0.090	-0.520	0.020
2020/01/31 14:51:30.5	0.310	0.060	-0.480	-0.030
2020/01/31 14:51:30.6	0.310	0.030	-0.440	-0.080
2020/01/31 14:51:30.7	0.300	0.000	-0.400	-0.140
2020/01/31 14:51:30.8	0.290	-0.030	-0.360	-0.200
2020/01/31 14:51:30.9	0.280	-0.050	-0.320	-0.250
2020/01/31 14:51:31.0	0.280	-0.080	-0.280	-0.300
2020/01/31 14:51:31.1	0.270	-0.110	-0.240	-0.360
2020/01/31 14:51:31.2	0.260	-0.140	-0.200	-0.410
2020/01/31 14:51:31.3	0.260	-0.160	-0.160	-0.460
2020/01/31 14:51:31.4	0.260	-0.190	-0.120	-0.510
2020/01/31 14:51:31.5	0.260	-0.210	-0.080	-0.550
2020/01/31 14:51:31.6	0.260	-0.240	-0.050	-0.600
2020/01/31 14:51:31.7	0.260	-0.260	-0.020	-0.640
2020/01/31 14:51:31.8	0.260	-0.280	0.010	-0.680
2020/01/31 14:51:31.9	0.260	-0.300	0.040	-0.720
2020/01/31 14:51:32.0	0.270	-0.310	0.070	-0.760
2020/01/31 14:51:32.1	0.280	-0.330	0.090	-0.790
2020/01/31 14:51:32.2	0.280	-0.340	0.110	-0.820
2020/01/31 14:51:32.3	0.290	-0.360	0.120	-0.850
2020/01/31 14:51:32.4	0.300	-0.370	0.140	-0.880
2020/01/31 14:51:32.5	0.320	-0.380	0.150	-0.900
2020/01/31 14:51:32.6	0.330	-0.380	0.150	-0.930
2020/01/31 14:51:32.7	0.340	-0.390	0.160	-0.950
2020/01/31 14:51:32.8	0.350	-0.390	0.160	-0.970
2020/01/31 14:51:32.9	0.370	-0.390	0.160	-0.980
2020/01/31 14:51:33.0	0.380	-0.390	0.150	-0.990
2020/01/31 14:51:33.1	0.400	-0.390	0.140	-1.000
2020/01/31 14:51:33.2	0.420	-0.390	0.130	-1.010
2020/01/31 14:51:33.3	0.430	-0.390	0.120	-1.010
2020/01/31 14:51:33.4	0.450	-0.380	0.110	-1.010
2020/01/31 14:51:33.5	0.470	-0.380	0.090	-1.010
2020/01/31 14:51:33.6	0.480	-0.370	0.080	-1.000
2020/01/31 14:51:33.7	0.500	-0.360	0.060	-1.000
2020/01/31 14:51:33.8	0.520	-0.350	0.040	-0.990
2020/01/31 14:51:33.9	0.530	-0.350	0.030	-0.980
2020/01/31 14:51:34.0	0.550	-0.340	0.010	-0.960
2020/01/31 14:51:34.1	0.560	-0.330	-0.010	-0.950
2020/01/31 14:51:34.2	0.580	-0.320	-0.030	-0.930
2020/01/31 14:51:34.3	0.590	-0.310	-0.050	-0.910
2020/01/31 14:51:34.4	0.600	-0.300	-0.070	-0.890
2020/01/31 14:51:34.5	0.600	-0.280	-0.080	-0.860
2020/01/31 14:51:34.6	0.610	-0.270	-0.100	-0.830
2020/01/31 14:51:34.7	0.610	-0.260	-0.110	-0.800
2020/01/31 14:51:34.8	0.610	-0.250	-0.120	-0.760
2020/01/31 14:51:34.9	0.610	-0.240	-0.140	-0.720
2020/01/31 14:51:35.0	0.610	-0.230	-0.140	-0.670
2020/01/31 14:51:35.1	0.600	-0.220	-0.150	-0.620
2020/01/31 14:51:35.2	0.590	-0.210	-0.160	-0.570
2020/01/31 14:51:35.3	0.580	-0.200	-0.160	-0.510
2020/01/31 14:51:35.4	0.570	-0.190	-0.160	-0.450
2020/01/31 14:51:35.5	0.550	-0.190	-0.170	-0.390
2020/01/31 14:51:35.6	0.530	-0.180	-0.170	-0.330
2020/01/31 14:51:35.7	0.520	-0.170	-0.160	-0.270
2020/01/31 14:51:35.8	0.500	-0.160	-0.160	-0.210
2020/01/31 14:51:35.9	0.480	-0.150	-0.160	-0.140
2020/01/31 14:51:36.0	0.460	-0.140	-0.160	-0.080
2020/01/31 14:51:36.1	0.440	-0.130	-0.160	-0.020
2020/01/31 14:51:36.2	0.420	-0.120	-0.160	0.030
2020/01/31 14:51:36.3	0.400	-0.110	-0.170	0.090
2020/01/31 14:51:36.4	0.380	-0.100	-0.170	0.140
2020/01/31 14:51:36.5	0.360	-0.090	-0.180	0.180
2020/01/31 14:51:36.6	0.350	-0.080	-0.190	0.220
2020/01/31 14:51:36.7	0.330	-0.060	-0.200	0.260
2020/01/31 14:51:36.8	0.320	-0.050	-0.210	0.290
2020/01/31 14:51:36.9	0.310	-0.040	-0.230	0.320
2020/01/31 14:51:37.0	0.300	-0.020	-0.250	0.340
2020/01/31 14:51:37.1	0.300	-0.000	-0.270	0.360
2020/01/31 14:51:37.2	0.290	0.010	-0.290	0.370
2020/01/31 14:51:37.3	0.290	0.030	-0.320	0.370
2020/01/31 14:51:37.4	0.300	0.050	-0.350	0.370
2020/01/31 14:51:37.5	0.300	0.070	-0.380	0.370
2020/01/31 14:51:37.6	0.310	0.100	-0.410	0.370
2020/01/31 14:51:37.7	0.310	0.120	-0.440	0.350
2020/01/31 14:51:37.8	0.320	0.150	-0.470	0.350
2020/01/31 14:51:37.9	0.330	0.170	-0.500	0.330
2020/01/31 14:51:38.0	0.340	0.200	-0.540	0.320
2020/01/31 14:51:38.1	0.350	0.220	-0.570	0.310
2020/01/31 14:51:38.2	0.360	0.250	-0.600	0.300
2020/01/31 14:51:38.3	0.370	0.270	-0.630	0.280
2020/01/31 14:51:38.4	0.380	0.290	-0.660	0.260
2020/01/31 14:51:38.5	0.390	0.320	-0.690	0.250
2020/01/31 14:51:38.6	0.400	0.340	-0.710	0.230
2020/01/31 14:51:38.7	0.410	0.360	-0.740	0.210
2020/01/31 14:51:38.8	0.420	0.370	-0.760	0.190
2020/01/31 14:51:38.9	0.420	0.390	-0.770	0.170
2020/01/31 14:51:39.0	0.420	0.400	-0.780	0.150
2020/01/31 14:51:39.1	0.420	0.400	-0.790	0.130
2020/01/31 14:51:39.2	0.420	0.410	-0.800	0.100
2020/01/31 14:51:39.3	0.420	0.410	-0.790	0.070
2020/01/31 14:51:39.4	0.420	0.410	-0.790	0.040
2020/01/31 14:51:39.5	0.410	0.400	-0.780	0.010
2020/01/31 14:51:39.6	0.400	0.390	-0.770	-0.020
2020/01/31 14:51:39.7	0.400	0.380	-0.750	-0.060
2020/01/31 14:51:39.8	0.390	0.370	-0.730	-0.100
2020/01/31 14:51:39.9	0.380	0.350	-0.710	-0.130
2020/01/31 14:51:40.0	0.370	0.330	-0.680	-0.170
2020/01/31 14:51:40.1	0.360	0.310	-0.650	-0.210
2020/01/31 14:51:40.2	0.350	0.280	-0.620	-0.250
2020/01/31 14:51:40.3	0.330	0.250	-0.580	-0.280
2020/01/31 14:51:40.4	0.320	0.220	-0.540	-0.320
2020/01/31 14:51:40.5	0.310	0.190	-0.500	-0.360
2020/01/31 14:51:40.6	0.290	0.160	-0.460	-0.390
2020/01/31 14:51:40.7	0.280	0.120	-0.410	-0.430
2020/01/31 14:51:40.8	0.270	0.090	-0.370	-0.460
2020/01/31 14:51:40.9	0.260	0.060	-0.330	-0.490
2020/01/31 14:51:41.0	0.240	0.020	-0.280	-0.520
2020/01/31 14:51:41.1	0.230	-0.010	-0.240	-0.550
2020/01/31 14:51:41.2	0.220	-0.040	-0.200	-0.570
2020/01/31 14:51:41.3	0.210	-0.070	-0.150	-0.600
2020/01/31 14:51:41.4	0.200	-0.090	-0.110	-0.620
2020/01/31 14:51:41.5	0.190	-0.120	-0.070	-0.630
2020/01/31 14:51:41.6	0.180	-0.140	-0.030	-0.650
2020/01/31 14:51:41.7	0.180	-0.160	0.010	-0.660
2020/01/31 14:51:41.8	0.170	-0.180	0.040	-0.670
2020/01/31 14:51:41.9	0.160	-0.200	0.080	-0.670
2020/01/31 14:51:42.0	0.150	-0.210	0.110	-0.680
2020/01/31 14:51:42.1	0.130	-0.220	0.150	-0.680
2020/01/31 14:51:42.2	0.120	-0.230	0.170	-0.670
2020/01/31 14:51:42.3	0.110	-0.240	0.200	-0.670
2020/01/31 14:51:42.4	0.100	-0.240	0.230	-0.660
2020/01/31 14:51:42.5	0.090	-0.240	0.250	-0.650
2020/01/31 14:51:42.6	0.080	-0.240	0.270	-0.640
2020/01/31 14:51:42.7	0.070	-0.230	0.280	-0.640
2020/01/31 14:51:42.8	0.060	-0.230	0.290	-0.620
2020/01/31 14:51:42.9	0.050	-0.220	0.300	-0.610
2020/01/31 14:51:43.0	0.040	-0.200	0.300	-0.600
2020/01/31 14:51:43.1	0.030	-0.190	0.310	-0.590
2020/01/31 14:51:43.2	0.020	-0.180	0.310	-0.580
2020/01/31 14:51:43.3	0.020	-0.160	0.300	-0.570
2020/01/31 14:51:43.4	0.010	-0.140	0.300	-0.560
2020/01/31 14:51:43.5	0.010	-0.120	0.290	-0.550
2020/01/31 14:51:43.6	0.010	-0.100	0.280	-0.530
2020/01/31 14:51:43.7	0.010	-0.080	0.270	-0.520
2020/01/31 14:51:43.8	0.010	-0.060	0.250	-0.510
2020/01/31 14:51:43.9	0.010	-0.040	0.230	-0.490
2020/01/31 14:51:44.0	0.010	-0.020	0.220	-0.480
2020/01/31 14:51:44.1	0.010	0.000	0.190	-0.460
2020/01/31 14:51:44.2	0.020	0.020	0.170	-0.430
2020/01/31 14:51:44.3	0.020	0.050	0.150	-0.410
2020/01/31 14:51:44.4	0.020	0.070	0.130	-0.380
2020/01/31 14:51:44.5	0.010	0.080	0.110	-0.350
2020/01/31 14:51:44.6	0.010	0.100	0.090	-0.310
2020/01/31 14:51:44.7	0.000	0.120	0.060	-0.280
2020/01/31 14:51:44.8	359.990	0.130	0.040	-0.240
2020/01/31 14:51:44.9	359.990	0.140	0.020	-0.200
2020/01/31 14:51:45.0	359.980	0.150	-0.000	-0.160
2020/01/31 14:51:45.1	359.970	0.160	-0.030	-0.120
2020/01/31 14:51:45.2	359.950	0.170	-0.050	-0.080
2020/01/31 14:51:45.3	359.940	0.170	-0.080	-0.040
2020/01/31 14:51:45.4	359.930	0.180	-0.100	0.000
2020/01/31 14:51:45.5	359.920	0.180	-0.130	0.040
2020/01/31 14:51:45.6	359.910	0.170	-0.160	0.070
2020/01/31 14:51:45.7	359.900	0.170	-0.180	0.110
2020/01/31 14:51:45.8	359.900	0.170	-0.210	0.140
2020/01/31 14:51:45.9	359.890	0.160	-0.250	0.170
2020/01/31 14:51:46.0	359.880	0.150	-0.280	0.190
2020/01/31 14:51:46.1	359.880	0.140	-0.320	0.210
2020/01/31 14:51:46.2	359.880	0.130	-0.360	0.230
2020/01/31 14:51:46.3	359.880	0.120	-0.400	0.240
2020/01/31 14:51:46.4	359.890	0.110	-0.440	0.250
2020/01/31 14:51:46.5	359.890	0.100	-0.480	0.260
2020/01/31 14:51:46.6	359.900	0.090	-0.520	0.260
2020/01/31 14:51:46.7	359.920	0.080	-0.570	0.250
2020/01/31 14:51:46.8	359.930	0.070	-0.610	0.240
2020/01/31 14:51:46.9	359.950	0.060	-0.650	0.230
2020/01/31 14:51:47.0	359.970	0.050	-0.690	0.220
2020/01/31 14:51:47.1	359.990	0.040	-0.730	0.210
2020/01/31 14:51:47.2	0.010	0.030	-0.770	0.190
2020/01/31 14:51:47.3	0.030	0.020	-0.800	0.170
2020/01/31 14:51:47.4	0.050	0.010	-0.840	0.150
2020/01/31 14:51:47.5	0.070	0.010	-0.870	0.130
2020/01/31 14:51:47.6	0.090	0.000	-0.890	0.110
2020/01/31 14:51:47.7	0.100	-0.010	-0.910	0.090
2020/01/31 14:51:47.8	0.120	-0.010	-0.930	0.060
2020/01/31 14:51:47.9	0.140	-0.020	-0.940	0.040
2020/01/31 14:51:48.0	0.150	-0.020	-0.950	0.010
2020/01/31 14:51:48.1	0.170	-0.030	-0.950	-0.020
2020/01/31 14:51:48.2	0.180	-0.040	-0.950	-0.040
2020/01/31 14:51:48.3	0.190	-0.050	-0.940	-0.070
2020/01/31 14:51:48.4	0.210	-0.050	-0.930	-0.100
2020/01/31 14:51:48.5	0.220	-0.060	-0.910	-0.130
2020/01/31 14:51:48.6	0.230	-0.070	-0.890	-0.160
2020/01/31 14:51:48.7	0.230	-0.080	-0.850	-0.200
2020/01/31 14:51:48.8	0.240	-0.090	-0.820	-0.230
2020/01/31 14:51:48.9	0.250	-0.110	-0.790	-0.260
2020/01/31 14:51:49.0	0.250	-0.120	-0.750	-0.300
2020/01/31 14:51:49.1	0.260	-0.130	-0.700	-0.330
2020/01/31 14:51:49.2	0.260	-0.140	-0.660	-0.360
2020/01/31 14:51:49.3	0.260	-0.150	-0.610	-0.390
2020/01/31 14:51:49.4	0.260	-0.170	-0.560	-0.410
2020/01/31 14:51:49.5	0.260	-0.180	-0.510	-0.440
2020/01/31 14:51:49.6	0.260	-0.190	-0.450	-0.460
2020/01/31 14:51:49.7	0.260	-0.200	-0.400	-0.480
2020/01/31 14:51:49.8	0.260	-0.210	-0.340	-0.500
2020/01/31 14:51:49.9	0.260	-0.220	-0.290	-0.520
2020/01/31 14:51:50.0	0.250	-0.230	-0.230	-0.530
2020/01/31 14:51:50.1	0.250	-0.240	-0.180	-0.550
2020/01/31 14:51:50.2	0.240	-0.250	-0.130	-0.550
2020/01/31 14:51:50.3	0.240	-0.250	-0.080	-0.560
2020/01/31 14:51:50.4	0.240	-0.250	-0.030	-0.570
2020/01/31 14:51:50.5	0.230	-0.250	0.020	-0.570
2020/01/31 14:51:50.6	0.230	-0.250	0.060	-0.570
2020/01/31 14:51:50.7	0.220	-0.250	0.100	-0.570
2020/01/31 14:51:50.8	0.220	-0.240	0.140	-0.570
2020/01/31 14:51:50.9	0.220	-0.230	0.170	-0.560
2020/01/31 14:51:51.0	0.210	-0.220	0.200	-0.560
2020/01/31 14:51:51.1	0.210	-0.200	0.220	-0.550
2020/01/31 14:51:51.2	0.210	-0.190	0.240	-0.540
2020/01/31 14:51:51.3	0.200	-0.170	0.250	-0.520
2020/01/31 14:51:51.4	0.190	-0.140	0.260	-0.510
2020/01/31 14:51:51.5	0.180	-0.120	0.270	-0.490
2020/01/31 14:51:51.6	0.170	-0.100	0.270	-0.460
2020/01/31 14:51:51.7	0.160	-0.070	0.270	-0.440
2020/01/31 14:51:51.8	0.140	-0.040	0.270	-0.420
2020/01/31 14:51:51.9	0.130	-0.010	0.260	-0.390
2020/01/31 14:51:52.0	0.110	0.020	0.260	-0.350
2020/01/31 14:51:52.1	0.090	0.050	0.250	-0.320
2020/01/31 14:51:52.2	0.070	0.080	0.240	-0.280
2020/01/31 14:51:52.3	0.050	0.110	0.220	-0.250
2020/01/31 14:51:52.4	0.020	0.140	0.210	-0.210
2020/01/31 14:51:52.5	0.000	0.170	0.190	-0.170
2020/01/31 14:51:52.6	359.970	0.200	0.180	-0.130
2020/01/31 14:51:52.7	359.950	0.230	0.160	-0.090
2020/01/31 14:51:52.8	359.920	0.260	0.140	-0.050
2020/01/31 14:51:52.9	359.900	0.280	0.120	-0.020
2020/01/31 14:51:53.0	359.880	0.310	0.100	0.020
2020/01/31 14:51:53.1	359.860	0.330	0.080	0.050
2020/01/31 14:51:53.2	359.830	0.350	0.060	0.080
2020/01/31 14:51:53.3	359.820	0.370	0.030	0.110
2020/01/31 14:51:53.4	359.800	0.390	0.010	0.140
2020/01/31 14:51:53.5	359.780	0.400	-0.020	0.170
2020/01/31 14:51:53.6	359.770	0.410	-0.040	0.190
2020/01/31 14:51:53.7	359.760	0.420	-0.070	0.210
2020/01/31 14:51:53.8	359.750	0.430	-0.100	0.230
2020/01/31 14:51:53.9	359.750	0.440	-0.130	0.240
2020/01/31 14:51:54.0	359.750	0.440	-0.160	0.250
2020/01/31 14:51:54.1	359.750	0.440	-0.190	0.260
2020/01/31 14:51:54.2	359.750	0.440	-0.220	0.270
2020/01/31 14:51:54.3	359.750	0.440	-0.250	0.270
2020/01/31 14:51:54.4	359.760	0.430	-0.280	0.260
2020/01/31 14:51:54.5	359.770	0.420	-0.310	0.260
2020/01/31 14:51:54.6	359.780	0.410	-0.340	0.250
2020/01/31 14:51:54.7	359.790	0.400	-0.360	0.240
2020/01/31 14:51:54.8	359.800	0.380	-0.390	0.230
2020/01/31 14:51:54.9	359.810	0.360	-0.410	0.220
2020/01/31 14:51:55.0	359.820	0.340	-0.430	0.210
2020/01/31 14:51:55.1	359.830	0.320	-0.450	0.190
2020/01/31 14:51:55.2	359.840	0.300	-0.460	0.180
2020/01/31 14:51:55.3	359.850	0.270	-0.470	0.160
2020/01/31 14:51:55.4	359.860	0.240	-0.480	0.140
2020/01/31 14:51:55.5	359.870	0.220	-0.490	0.120
2020/01/31 14:51:55.6	359.870	0.190	-0.490	0.100
2020/01/31 14:51:55.7	359.880	0.160	-0.490	0.080
2020/01/31 14:51:55.8	359.880	0.120	-0.490	0.060
2020/01/31 14:51:55.9	359.880	0.090	-0.480	0.030
2020/01/31 14:51:56.0	359.890	0.060	-0.470	0.010
2020/01/31 14:51:56.1	359.890	0.030	-0.470	-0.010
2020/01/31 14:51:56.2	359.880	-0.010	-0.460	-0.040
2020/01/31 14:51:56.3	359.880	-0.040	-0.440	-0.070
2020/01/31 14:51:56.4	359.880	-0.070	-0.430	-0.090
2020/01/31 14:51:56.5	359.870	-0.100	-0.420	-0.120
2020/01/31 14:51:56.6	359.860	-0.130	-0.400	-0.150
2020/01/31 14:51:56.7	359.850	-0.160	-0.390	-0.190
2020/01/31 14:51:56.8	359.850	-0.190	-0.370	-0.220
2020/01/31 14:51:56.9	359.840	-0.220	-0.360	-0.250
2020/01/31 14:51:57.0	359.830	-0.250	-0.340	-0.280
2020/01/31 14:51:57.1	359.810	-0.270	-0.330	-0.310
2020/01/31 14:51:57.2	359.800	-0.290	-0.310	-0.340
2020/01/31 14:51:57.3	359.790	-0.320	-0.300	-0.370
2020/01/31 14:51:57.4	359.790	-0.340	-0.290	-0.400
2020/01/31 14:51:57.5	359.780	-0.350	-0.280	-0.440
2020/01/31 14:51:57.6	359.770	-0.370	-0.280	-0.470
2020/01/31 14:51:57.7	359.770	-0.380	-0.270	-0.500
2020/01/31 14:51:57.8	359.760	-0.390	-0.270	-0.540
2020/01/31 14:51:57.9	359.770	-0.400	-0.270	-0.570
2020/01/31 14:51:58.0	359.770	-0.410	-0.270	-0.610
2020/01/31 14:51:58.1	359.780	-0.410	-0.280	-0.650
2020/01/31 14:51:58.2	359.790	-0.410	-0.280	-0.680
2020/01/31 14:51:58.3	359.800	-0.410	-0.290	-0.720
2020/01/31 14:51:58.4	359.820	-0.410	-0.310	-0.760
2020/01/31 14:51:58.5	359.840	-0.400	-0.320	-0.790
2020/01/31 14:51:58.6	359.860	-0.400	-0.340	-0.830
2020/01/31 14:51:58.7	359.890	-0.390	-0.350	-0.870
2020/01/31 14:51:58.8	359.920	-0.370	-0.370	-0.910
2020/01/31 14:51:58.9	359.950	-0.360	-0.390	-0.940
2020/01/31 14:51:59.0	359.980	-0.340	-0.410	-0.970
2020/01/31 14:51:59.1	0.010	-0.330	-0.430	-1.000
2020/01/31 14:51:59.2	0.040	-0.310	-0.440	-1.020
2020/01/31 14:51:59.3	0.070	-0.290	-0.460	-1.030
2020/01/31 14:51:59.4	0.100	-0.270	-0.470	-1.040
2020/01/31 14:51:59.5	0.120	-0.250	-0.480	-1.050
2020/01/31 14:51:59.6	0.140	-0.230	-0.490	-1.050
2020/01/31 14:51:59.7	0.150	-0.210	-0.490	-1.040
2020/01/31 14:51:59.8	0.170	-0.190	-0.490	-1.030
2020/01/31 14:51:59.9	0.180	-0.170	-0.480	-1.010
2020/01/31 14:52:00.0	0.190	-0.150	-0.470	-0.990
2020/01/31 14:52:00.1	0.200	-0.130	-0.460	-0.960
2020/01/31 14:52:00.2	0.190	-0.110	-0.440	-0.930
2020/01/31 14:52:00.3	0.190	-0.100	-0.420	-0.890
2020/01/31 14:52:00.4	0.180	-0.090	-0.390	-0.850
2020/01/31 14:52:00.5	0.170	-0.070	-0.360	-0.800
2020/01/31 14:52:00.6	0.160	-0.060	-0.330	-0.750
2020/01/31 14:52:00.7	0.130	-0.060	-0.300	-0.710
2020/01/31 14:52:00.8	0.110	-0.050	-0.270	-0.660
2020/01/31 14:52:00.9	0.090	-0.050	-0.230	-0.600
2020/01/31 14:52:01.0	0.060	-0.040	-0.200	-0.550
2020/01/31 14:52:01.1	0.030	-0.040	-0.160	-0.490
2020/01/31 14:52:01.2	359.990	-0.040	-0.120	-0.440
2020/01/31 14:52:01.3	359.960	-0.040	-0.090	-0.380
2020/01/31 14:52:01.4	359.920	-0.040	-0.060	-0.330
2020/01/31 14:52:01.5	359.890	-0.040	-0.030	-0.270
2020/01/31 14:52:01.6	359.850	-0.040	-0.000	-0.220
2020/01/31 14:52:01.7	359.820	-0.050	0.020	-0.160
2020/01/31 14:52:01.8	359.780	-0.050	0.040	-0.110
2020/01/31 14:52:01.9	359.750	-0.050	0.050	-0.070
2020/01/31 14:52:02.0	359.720	-0.050	0.060	-0.030
2020/01/31 14:52:02.1	359.700	-0.050	0.070	0.010
2020/01/31 14:52:02.2	359.670	-0.050	0.060	0.050
2020/01/31 14:52:02.3	359.650	-0.040	0.060	0.080
2020/01/31 14:52:02.4	359.640	-0.030	0.040	0.110
2020/01/31 14:52:02.5	359.620	-0.020	0.030	0.130
2020/01/31 14:52:02.6	359.620	-0.010	0.000	0.150
2020/01/31 14:52:02.7	359.600	0.000	-0.030	0.160
2020/01/31 14:52:02.8	359.600	0.020	-0.060	0.170
2020/01/31 14:52:02.9	359.600	0.040	-0.090	0.180
2020/01/31 14:52:03.0	359.610	0.060	-0.130	0.190
2020/01/31 14:52:03.1	359.620	0.090	-0.170	0.190
2020/01/31 14:52:03.2	359.630	0.110	-0.220	0.180
2020/01/31 14:52:03.3	359.640	0.140	-0.260	0.180
2020/01/31 14:52:03.4	359.660	0.170	-0.300	0.180
2020/01/31 14:52:03.5	359.670	0.200	-0.340	0.170
2020/01/31 14:52:03.6	359.690	0.230	-0.380	0.160
2020/01/31 14:52:03.7	359.700	0.270	-0.410	0.160
2020/01/31 14:52:03.8	359.710	0.300	-0.440	0.150
2020/01/31 14:52:03.9	359.720	0.330	-0.460	0.140
2020/01/31 14:52:04.0	359.740	0.360	-0.480	0.140
2020/01/31 14:52:04.1	359.750	0.390	-0.490	0.130
2020/01/31 14:52:04.2	359.760	0.410	-0.500	0.130
2020/01/31 14:52:04.3	359.760	0.430	-0.500	0.120
2020/01/31 14:52:04.4	359.770	0.450	-0.490	0.110
2020/01/31 14:52:04.5	359.780	0.470	-0.480	0.110
2020/01/31 14:52:04.6	359.780	0.480	-0.470	0.100
2020/01/31 14:52:04.7	359.780	0.490	-0.450	0.090
2020/01/31 14:52:04.8	359.780	0.500	-0.420	0.090
2020/01/31 14:52:04.9	359.780	0.500	-0.400	0.080
2020/01/31 14:52:05.0	359.780	0.490	-0.370	0.070
2020/01/31 14:52:05.1	359.780	0.490	-0.330	0.060
2020/01/31 14:52:05.2	359.780	0.470	-0.300	0.050
2020/01/31 14:52:05.3	359.780	0.460	-0.260	0.040
2020/01/31 14:52:05.4	359.770	0.440	-0.230	0.030
2020/01/31 14:52:05.5	359.770	0.410	-0.190	0.020
2020/01/31 14:52:05.6	359.760	0.380	-0.150	0.010
2020/01/31 14:52:05.7	359.750	0.350	-0.120	-0.010
2020/01/31 14:52:05.8	359.740	0.310	-0.080	-0.020
2020/01/31 14:52:05.9	359.730	0.280	-0.050	-0.030
2020/01/31 14:52:06.0	359.720	0.230	-0.030	-0.050
2020/01/31 14:52:06.1	359.710	0.190	-0.000	-0.070
2020/01/31 14:52:06.2	359.690	0.150	0.020	-0.080
2020/01/31 14:52:06.3	359.680	0.100	0.030	-0.100
2020/01/31 14:52:06.4	359.660	0.050	0.040	-0.120
2020/01/31 14:52:06.5	359.650	0.000	0.050	-0.150
2020/01/31 14:52:06.6	359.630	-0.040	0.050	-0.170
2020/01/31 14:52:06.7	359.610	-0.090	0.050	-0.200
2020/01/31 14:52:06.8	359.600	-0.140	0.050	-0.230
2020/01/31 14:52:06.9	359.580	-0.180	0.040	-0.260
2020/01/31 14:52:07.0	359.570	-0.220	0.020	-0.290
2020/01/31 14:52:07.1	359.560	-0.260	0.000	-0.320
2020/01/31 14:52:07.2	359.540	-0.290	-0.020	-0.350
2020/01/31 14:52:07.3	359.530	-0.330	-0.040	-0.380
2020/01/31 14:52:07.4	359.520	-0.360	-0.070	-0.410
2020/01/31 14:52:07.5	359.510	-0.380	-0.100	-0.440
2020/01/31 14:52:07.6	359.500	-0.400	-0.130	-0.470
2020/01/31 14:52:07.7	359.490	-0.410	-0.170	-0.500
2020/01/31 14:52:07.8	359.480	-0.420	-0.200	-0.530
2020/01/31 14:52:07.9	359.470	-0.430	-0.230	-0.550
2020/01/31 14:52:08.0	359.460	-0.430	-0.270	-0.570
2020/01/31 14:52:08.1	359.450	-0.420	-0.300	-0.590
2020/01/31 14:52:08.2	359.440	-0.420	-0.330	-0.600
2020/01/31 14:52:08.3	359.440	-0.400	-0.360	-0.620
2020/01/31 14:52:08.4	359.430	-0.390	-0.380	-0.620
2020/01/31 14:52:08.5	359.420	-0.370	-0.410	-0.630
2020/01/31 14:52:08.6	359.410	-0.350	-0.430	-0.630
2020/01/31 14:52:08.7	359.390	-0.320	-0.440	-0.640
2020/01/31 14:52:08.8	359.380	-0.300	-0.450	-0.630
2020/01/31 14:52:08.9	359.370	-0.270	-0.460	-0.630
2020/01/31 14:52:09.0	359.360	-0.240	-0.470	-0.620
2020/01/31 14:52:09.1	359.350	-0.210	-0.480	-0.610
2020/01/31 14:52:09.2	359.340	-0.180	-0.480	-0.600
2020/01/31 14:52:09.3	359.330	-0.150	-0.480	-0.580
2020/01/31 14:52:09.4	359.330	-0.120	-0.480	-0.570
2020/01/31 14:52:09.5	359.320	-0.090	-0.480	-0.560
2020/01/31 14:52:09.6	359.320	-0.060	-0.480	-0.550
2020/01/31 14:52:09.7	359.310	-0.030	-0.470	-0.540
2020/01/31 14:52:09.8	359.310	-0.000	-0.470	-0.530
2020/01/31 14:52:09.9	359.310	0.020	-0.460	-0.520
2020/01/31 14:52:10.0	359.320	0.050	-0.460	-0.510
2020/01/31 14:52:10.1	359.320	0.070	-0.460	-0.510
2020/01/31 14:52:10.2	359.340	0.090	-0.450	-0.510
2020/01/31 14:52:10.3	359.350	0.110	-0.450	-0.500
2020/01/31 14:52:10.4	359.370	0.130	-0.450	-0.500
2020/01/31 14:52:10.5	359.390	0.140	-0.450	-0.510
2020/01/31 14:52:10.6	359.410	0.160	-0.450	-0.510
2020/01/31 14:52:10.7	359.430	0.170	-0.460	-0.510
2020/01/31 14:52:10.8	359.460	0.180	-0.460	-0.520
2020/01/31 14:52:10.9	359.490	0.190	-0.460	-0.520
2020/01/31 14:52:11.0	359.520	0.200	-0.470	-0.530
2020/01/31 14:52:11.1	359.550	0.200	-0.480	-0.530
2020/01/31 14:52:11.2	359.590	0.210	-0.480	-0.540
2020/01/31 14:52:11.3	359.620	0.210	-0.490	-0.540
2020/01/31 14:52:11.4	359.660	0.210	-0.490	-0.540
2020/01/31 14:52:11.5	359.690	0.210	-0.500	-0.540
2020/01/31 14:52:11.6	359.730	0.210	-0.500	-0.540
2020/01/31 14:52:11.7	359.780	0.210	-0.490	-0.540
2020/01/31 14:52:11.8	359.810	0.210	-0.490	-0.530
2020/01/31 14:52:11.9	359.840	0.210	-0.480	-0.520
2020/01/31 14:52:12.0	359.870	0.200	-0.460	-0.510
2020/01/31 14:52:12.1	359.890	0.190	-0.440	-0.500
2020/01/31 14:52:12.2	359.920	0.190	-0.420	-0.480
2020/01/31 14:52:12.3	359.930	0.180	-0.390	-0.450
2020/01/31 14:52:12.4	359.950	0.170	-0.350	-0.430
2020/01/31 14:52:12.5	359.960	0.150	-0.310	-0.400
2020/01/31 14:52:12.6	359.970	0.140	-0.270	-0.370
2020/01/31 14:52:12.7	359.970	0.130	-0.220	-0.320
2020/01/31 14:52:12.8	359.970	0.110	-0.170	-0.280
2020/01/31 14:52:12.9	359.960	0.100	-0.110	-0.240
2020/01/31 14:52:13.0	359.950	0.080	-0.050	-0.190
2020/01/31 14:52:13.1	359.940	0.060	0.010	-0.140
2020/01/31 14:52:13.2	359.920	0.040	0.080	-0.080
2020/01/31 14:52:13.3	359.900	0.020	0.140	-0.030
2020/01/31 14:52:13.4	359.880	0.000	0.210	0.030
2020/01/31 14:52:13.5	359.850	-0.020	0.270	0.080
2020/01/31 14:52:13.6	359.820	-0.040	0.330	0.140
2020/01/31 14:52:13.7	359.780	-0.060	0.390	0.190
2020/01/31 14:52:13.8	359.750	-0.080	0.440	0.240
2020/01/31 14:52:13.9	359.720	-0.100	0.490	0.290
2020/01/31 14:52:14.0	359.680	-0.130	0.540	0.330
2020/01/31 14:52:14.1	359.650	-0.150	0.580	0.380
2020/01/31 14:52:14.2	359.610	-0.170	0.610	0.410
2020/01/31 14:52:14.3	359.570	-0.180	0.640	0.440
2020/01/31 14:52:14.4	359.540	-0.200	0.660	0.470
2020/01/31 14:52:14.5	359.500	-0.220	0.670	0.490
2020/01/31 14:52:14.6	359.460	-0.230	0.670	0.510
2020/01/31 14:52:14.7	359.430	-0.250	0.660	0.520
2020/01/31 14:52:14.8	359.390	-0.260	0.650	0.520
2020/01/31 14:52:14.9	359.360	-0.270	0.630	0.520
2020/01/31 14:52:15.0	359.330	-0.270	0.600	0.510
2020/01/31 14:52:15.1	359.300	-0.280	0.560	0.500
2020/01/31 14:52:15.2	359.270	-0.280	0.520	0.480
2020/01/31 14:52:15.3	359.240	-0.280	0.470	0.460
2020/01/31 14:52:15.4	359.210	-0.280	0.410	0.430
2020/01/31 14:52:15.5	359.190	-0.280	0.340	0.400
2020/01/31 14:52:15.6	359.170	-0.270	0.270	0.370
2020/01/31 14:52:15.7	359.140	-0.270	0.200	0.320
2020/01/31 14:52:15.8	359.130	-0.260	0.120	0.280
2020/01/31 14:52:15.9	359.110	-0.250	0.030	0.240
2020/01/31 14:52:16.0	359.100	-0.230	-0.050	0.190
2020/01/31 14:52:16.1	359.090	-0.220	-0.140	0.140
2020/01/31 14:52:16.2	359.080	-0.200	-0.240	0.090
2020/01/31 14:52:16.3	359.070	-0.190	-0.330	0.040
2020/01/31 14:52:16.4	359.070	-0.170	-0.420	-0.010
2020/01/31 14:52:16.5	359.070	-0.150	-0.510	-0.060
2020/01/31 14:52:16.6	359.070	-0.130	-0.600	-0.110
2020/01/31 14:52:16.7	359.080	-0.110	-0.680	-0.160
2020/01/31 14:52:16.8	359.080	-0.090	-0.770	-0.220
2020/01/31 14:52:16.9	359.090	-0.080	-0.850	-0.270
2020/01/31 14:52:17.0	359.110	-0.060	-0.930	-0.320
2020/01/31 14:52:17.1	359.120	-0.040	-1.000	-0.370
2020/01/31 14:52:17.2	359.140	-0.020	-1.070	-0.420
2020/01/31 14:52:17.3	359.160	-0.000	-1.130	-0.470
2020/01/31 14:52:17.4	359.180	0.020	-1.190	-0.520
2020/01/31 14:52:17.5	359.210	0.030	-1.240	-0.570
2020/01/31 14:52:17.6	359.240	0.050	-1.280	-0.620
2020/01/31 14:52:17.7	359.270	0.060	-1.320	-0.670
2020/01/31 14:52:17.8	359.300	0.070	-1.350	-0.720
2020/01/31 14:52:17.9	359.340	0.080	-1.370	-0.760
2020/01/31 14:52:18.0	359.370	0.100	-1.390	-0.810
2020/01/31 14:52:18.1	359.410	0.100	-1.400	-0.850
2020/01/31 14:52:18.2	359.450	0.110	-1.400	-0.880
2020/01/31 14:52:18.3	359.490	0.120	-1.400	-0.920
2020/01/31 14:52:18.4	359.530	0.120	-1.390	-0.950
2020/01/31 14:52:18.5	359.570	0.130	-1.370	-0.980
2020/01/31 14:52:18.6	359.610	0.130	-1.350	-1.010
2020/01/31 14:52:18.7	359.650	0.130	-1.320	-1.030
2020/01/31 14:52:18.8	359.690	0.130	-1.280	-1.040
2020/01/31 14:52:18.9	359.730	0.130	-1.240	-1.060
2020/01/31 14:52:19.0	359.760	0.130	-1.190	-1.060
2020/01/31 14:52:19.1	359.800	0.130	-1.130	-1.060
2020/01/31 14:52:19.2	359.840	0.130	-1.060	-1.060
2020/01/31 14:52:19.3	359.870	0.120	-1.000	-1.050
2020/01/31 14:52:19.4	359.900	0.120	-0.920	-1.030
2020/01/31 14:52:19.5	359.930	0.110	-0.850	-1.010
2020/01/31 14:52:19.6	359.960	0.100	-0.770	-0.990
2020/01/31 14:52:19.7	0.000	0.100	-0.680	-0.960
2020/01/31 14:52:19.8	0.020	0.090	-0.600	-0.930
2020/01/31 14:52:19.9	0.050	0.080	-0.510	-0.900
2020/01/31 14:52:20.0	0.080	0.080	-0.430	-0.860
2020/01/31 14:52:20.1	0.100	0.070	-0.350	-0.830
2020/01/31 14:52:20.2	0.120	0.060	-0.270	-0.790
2020/01/31 14:52:20.3	0.140	0.060	-0.190	-0.750
2020/01/31 14:52:20.4	0.160	0.050	-0.120	-0.710
2020/01/31 14:52:20.5	0.180	0.050	-0.050	-0.660
2020/01/31 14:52:20.6	0.200	0.050	0.020	-0.620
2020/01/31 14:52:20.7	0.220	0.040	0.080	-0.580
2020/01/31 14:52:20.8	0.240	0.040	0.130	-0.540
2020/01/31 14:52:20.9	0.250	0.040	0.180	-0.500
2020/01/31 14:52:21.0	0.250	0.040	0.230	-0.450
2020/01/31 14:52:21.1	0.260	0.040	0.270	-0.410
2020/01/31 14:52:21.2	0.260	0.040	0.310	-0.370
2020/01/31 14:52:21.3	0.270	0.050	0.340	-0.330
2020/01/31 14:52:21.4	0.260	0.050	0.360	-0.300
2020/01/31 14:52:21.5	0.260	0.050	0.380	-0.260
2020/01/31 14:52:21.6	0.250	0.060	0.400	-0.220
2020/01/31 14:52:21.7	0.240	0.060	0.410	-0.180
2020/01/31 14:52:21.8	0.230	0.070	0.420	-0.150
2020/01/31 14:52:21.9	0.220	0.070	0.420	-0.120
2020/01/31 14:52:22.0	0.200	0.080	0.420	-0.080
2020/01/31 14:52:22.1	0.180	0.080	0.420	-0.050
2020/01/31 14:52:22.2	0.160	0.080	0.410	-0.020
2020/01/31 14:52:22.3	0.140	0.090	0.400	0.010
2020/01/31 14:52:22.4	0.110	0.090	0.380	0.030
2020/01/31 14:52:22.5	0.090	0.090	0.370	0.060
2020/01/31 14:52:22.6	0.060	0.090	0.350	0.080
2020/01/31 14:52:22.7	0.030	0.090	0.330	0.090
2020/01/31 14:52:22.8	0.000	0.090	0.310	0.110
2020/01/31 14:52:22.9	359.970	0.090	0.290	0.120
2020/01/31 14:52:23.0	359.940	0.090	0.270	0.130
2020/01/31 14:52:23.1	359.910	0.090	0.250	0.130
2020/01/31 14:52:23.2	359.880	0.080	0.220	0.130
2020/01/31 14:52:23.3	359.850	0.080	0.200	0.130
2020/01/31 14:52:23.4	359.820	0.070	0.180	0.130
2020/01/31 14:52:23.5	359.790	0.060	0.150	0.120
2020/01/31 14:52:23.6	359.770	0.060	0.130	0.110
2020/01/31 14:52:23.7	359.750	0.050	0.110	0.090
2020/01/31 14:52:23.8	359.720	0.040	0.090	0.080
2020/01/31 14:52:23.9	359.700	0.040	0.060	0.060
2020/01/31 14:52:24.0	359.670	0.030	0.040	0.050
2020/01/31 14:52:24.1	359.650	0.020	0.030	0.030
2020/01/31 14:52:24.2	359.630	0.010	0.010	0.020
2020/01/31 14:52:24.3	359.600	0.000	-0.000	0.000
2020/01/31 14:52:24.4	359.580	-0.000	-0.020	-0.010
2020/01/31 14:52:24.5	359.560	-0.010	-0.030	-0.030
2020/01/31 14:52:24.6	359.540	-0.020	-0.040	-0.040
2020/01/31 14:52:24.7	359.510	-0.030	-0.040	-0.060
2020/01/31 14:52:24.8	359.500	-0.030	-0.040	-0.070
2020/01/31 14:52:24.9	359.480	-0.040	-0.050	-0.080
2020/01/31 14:52:25.0	359.460	-0.040	-0.050	-0.090
2020/01/31 14:52:25.1	359.440	-0.050	-0.050	-0.110
2020/01/31 14:52:25.2	359.430	-0.050	-0.040	-0.120
2020/01/31 14:52:25.3	359.410	-0.060	-0.040	-0.130
2020/01/31 14:52:25.4	359.400	-0.060	-0.040	-0.140
2020/01/31 14:52:25.5	359.390	-0.060	-0.040	-0.150
2020/01/31 14:52:25.6	359.380	-0.060	-0.040	-0.160
2020/01/31 14:52:25.7	359.370	-0.070	-0.030	-0.170
2020/01/31 14:52:25.8	359.370	-0.060	-0.040	-0.180
2020/01/31 14:52:25.9	359.360	-0.060	-0.040	-0.190
2020/01/31 14:52:26.0	359.360	-0.060	-0.050	-0.200
2020/01/31 14:52:26.1	359.360	-0.050	-0.060	-0.210
2020/01/31 14:52:26.2	359.360	-0.050	-0.070	-0.220
2020/01/31 14:52:26.3	359.370	-0.040	-0.090	-0.230
2020/01/31 14:52:26.4	359.370	-0.030	-0.110	-0.230
2020/01/31 14:52:26.5	359.380	-0.030	-0.130	-0.240
2020/01/31 14:52:26.6	359.390	-0.020	-0.150	-0.250
2020/01/31 14:52:26.7	359.400	-0.010	-0.190	-0.260
2020/01/31 14:52:26.8	359.420	0.010	-0.220	-0.280
2020/01/31 14:52:26.9	359.440	0.020	-0.260	-0.290
2020/01/31 14:52:27.0	359.460	0.030	-0.300	-0.300
2020/01/31 14:52:27.1	359.490	0.040	-0.340	-0.320
2020/01/31 14:52:27.2	359.520	0.050	-0.380	-0.330
2020/01/31 14:52:27.3	359.550	0.060	-0.420	-0.350
2020/01/31 14:52:27.4	359.580	0.070	-0.470	-0.380
2020/01/31 14:52:27.5	359.610	0.080	-0.510	-0.400
2020/01/31 14:52:27.6	359.640	0.090	-0.560	-0.430
2020/01/31 14:52:27.7	359.670	0.100	-0.590	-0.450
2020/01/31 14:52:27.8	359.700	0.100	-0.630	-0.480
2020/01/31 14:52:27.9	359.740	0.110	-0.670	-0.510
2020/01/31 14:52:28.0	359.770	0.110	-0.710	-0.530
2020/01/31 14:52:28.1	359.800	0.110	-0.740	-0.560
2020/01/31 14:52:28.2	359.830	0.100	-0.760	-0.590
2020/01/31 14:52:28.3	359.850	0.100	-0.780	-0.610
2020/01/31 14:52:28.4	359.870	0.090	-0.800	-0.630
2020/01/31 14:52:28.5	359.890	0.080	-0.810	-0.650
2020/01/31 14:52:28.6	359.910	0.070	-0.810	-0.670
2020/01/31 14:52:28.7	359.920	0.060	-0.810	-0.680
2020/01/31 14:52:28.8	359.930	0.040	-0.800	-0.700
2020/01/31 14:52:28.9	359.940	0.020	-0.790	-0.700
2020/01/31 14:52:29.0	359.950	0.000	-0.780	-0.710
2020/01/31 14:52:29.1	359.960	-0.020	-0.760	-0.710
2020/01/31 14:52:29.2	359.960	-0.040	-0.730	-0.710
2020/01/31 14:52:29.3	359.970	-0.070	-0.710	-0.710
2020/01/31 14:52:29.4	359.970	-0.090	-0.680	-0.710
2020/01/31 14:52:29.5	359.970	-0.120	-0.650	-0.700
2020/01/31 14:52:29.6	359.970	-0.150	-0.610	-0.690
2020/01/31 14:52:29.7	359.950	-0.170	-0.580	-0.690
2020/01/31 14:52:29.8	359.950	-0.200	-0.550	-0.680
2020/01/31 14:52:29.9	359.950	-0.220	-0.520	-0.670
2020/01/31 14:52:30.0	359.950	-0.250	-0.490	-0.660
2020/01/31 14:52:30.1	359.950	-0.270	-0.460	-0.650
2020/01/31 14:52:30.2	359.960	-0.290	-0.440	-0.640
2020/01/31 14:52:30.3	359.960	-0.310	-0.420	-0.630
2020/01/31 14:52:30.4	359.960	-0.320	-0.400	-0.620
2020/01/31 14:52:30.5	359.960	-0.340	-0.390	-0.610
2020/01/31 14:52:30.6	359.970	-0.350	-0.380	-0.600
2020/01/31 14:52:30.7	359.970	-0.350	-0.370	-0.600
2020/01/31 14:52:30.8	359.980	-0.360	-0.370	-0.600
2020/01/31 14:52:30.9	359.980	-0.360	-0.370	-0.590
2020/01/31 14:52:31.0	359.990	-0.360	-0.370	-0.590
2020/01/31 14:52:31.1	0.000	-0.350	-0.370	-0.590
2020/01/31 14:52:31.2	0.010	-0.350	-0.380	-0.590
2020/01/31 14:52:31.3	0.020	-0.340	-0.390	-0.590
2020/01/31 14:52:31.4	0.030	-0.320	-0.400	-0.590
2020/01/31 14:52:31.5	0.040	-0.300	-0.400	-0.590
2020/01/31 14:52:31.6	0.050	-0.290	-0.410	-0.590
2020/01/31 14:52:31.7	0.050	-0.260	-0.410	-0.580
2020/01/31 14:52:31.8	0.060	-0.240	-0.420	-0.580
2020/01/31 14:52:31.9	0.060	-0.210	-0.420	-0.570
2020/01/31 14:52:32.0	0.060	-0.190	-0.410	-0.560
2020/01/31 14:52:32.1	0.060	-0.160	-0.410	-0.540
2020/01/31 14:52:32.2	0.060	-0.130	-0.400	-0.520
2020/01/31 14:52:32.3	0.060	-0.100	-0.380	-0.500
2020/01/31 14:52:32.4	0.060	-0.070	-0.360	-0.470
2020/01/31 14:52:32.5	0.050	-0.040	-0.330	-0.440
2020/01/31 14:52:32.6	0.050	-0.000	-0.300	-0.410
2020/01/31 14:52:32.7	0.050	0.030	-0.270	-0.380
2020/01/31 14:52:32.8	0.040	0.060	-0.240	-0.340
2020/01/31 14:52:32.9	0.030	0.090	-0.200	-0.290
2020/01/31 14:52:33.0	0.020	0.110	-0.150	-0.250
2020/01/31 14:52:33.1	0.010	0.140	-0.110	-0.200
2020/01/31 14:52:33.2	0.000	0.170	-0.060	-0.150
2020/01/31 14:52:33.3	359.980	0.190	-0.010	-0.100
2020/01/31 14:52:33.4	359.970	0.210	0.040	-0.050
2020/01/31 14:52:33.5	359.950	0.230	0.090	0.000
2020/01/31 14:52:33.6	359.940	0.250	0.130	0.050
2020/01/31 14:52:33.7	359.930	0.270	0.180	0.110
2020/01/31 14:52:33.8	359.910	0.290	0.230	0.170
2020/01/31 14:52:33.9	359.900	0.300	0.270	0.220
2020/01/31 14:52:34.0	359.880	0.310	0.310	0.270
2020/01/31 14:52:34.1	359.850	0.320	0.340	0.320
2020/01/31 14:52:34.2	359.830	0.320	0.370	0.380
2020/01/31 14:52:34.3	359.810	0.330	0.400	0.420
2020/01/31 14:52:34.4	359.780	0.330	0.420	0.470
2020/01/31 14:52:34.5	359.760	0.330	0.430	0.510
2020/01/31 14:52:34.6	359.740	0.330	0.440	0.550
2020/01/31 14:52:34.7	359.710	0.330	0.440	0.590
2020/01/31 14:52:34.8	359.690	0.320	0.440	0.620
2020/01/31 14:52:34.9	359.660	0.320	0.430	0.640
2020/01/31 14:52:35.0	359.640	0.310	0.420	0.660
2020/01/31 14:52:35.1	359.610	0.300	0.400	0.670
2020/01/31 14:52:35.2	359.590	0.300	0.370	0.680
2020/01/31 14:52:35.3	359.570	0.290	0.340	0.680
2020/01/31 14:52:35.4	359.550	0.280	0.300	0.670
2020/01/31 14:52:35.5	359.530	0.270	0.260	0.660
2020/01/31 14:52:35.6	359.520	0.260	0.210	0.650
2020/01/31 14:52:35.7	359.500	0.250	0.160	0.620
2020/01/31 14:52:35.8	359.490	0.240	0.110	0.590
2020/01/31 14:52:35.9	359.480	0.230	0.050	0.560
2020/01/31 14:52:36.0	359.470	0.220	-0.010	0.530
2020/01/31 14:52:36.1	359.450	0.210	-0.080	0.490
2020/01/31 14:52:36.2	359.440	0.200	-0.150	0.450
2020/01/31 14:52:36.3	359.440	0.190	-0.210	0.400
2020/01/31 14:52:36.4	359.430	0.180	-0.280	0.350
2020/01/31 14:52:36.5	359.420	0.170	-0.350	0.300
2020/01/31 14:52:36.6	359.420	0.160	-0.410	0.250
2020/01/31 14:52:36.7	359.410	0.150	-0.480	0.180
2020/01/31 14:52:36.8	359.410	0.140	-0.540	0.130
2020/01/31 14:52:36.9	359.410	0.130	-0.600	0.060
2020/01/31 14:52:37.0	359.410	0.110	-0.660	0.000
2020/01/31 14:52:37.1	359.410	0.100	-0.720	-0.070
2020/01/31 14:52:37.2	359.420	0.090	-0.780	-0.130
2020/01/31 14:52:37.3	359.430	0.070	-0.830	-0.200
2020/01/31 14:52:37.4	359.440	0.060	-0.870	-0.270
2020/01/31 14:52:37.5	359.460	0.040	-0.920	-0.350
2020/01/31 14:52:37.6	359.480	0.030	-0.960	-0.420
2020/01/31 14:52:37.7	359.490	0.010	-0.990	-0.500
2020/01/31 14:52:37.8	359.510	-0.000	-1.020	-0.570
2020/01/31 14:52:37.9	359.540	-0.020	-1.050	-0.640
2020/01/31 14:52:38.0	359.570	-0.040	-1.070	-0.710
2020/01/31 14:52:38.1	359.590	-0.050	-1.090	-0.780
2020/01/31 14:52:38.2	359.620	-0.070	-1.100	-0.850
2020/01/31 14:52:38.3	359.660	-0.090	-1.100	-0.910
2020/01/31 14:52:38.4	359.690	-0.100	-1.100	-0.970
2020/01/31 14:52:38.5	359.720	-0.120	-1.100	-1.030
2020/01/31 14:52:38.6	359.750	-0.140	-1.080	-1.090
2020/01/31 14:52:38.7	359.790	-0.150	-1.060	-1.140
2020/01/31 14:52:38.8	359.820	-0.170	-1.040	-1.190
2020/01/31 14:52:38.9	359.860	-0.180	-1.010	-1.230
2020/01/31 14:52:39.0	359.890	-0.200	-0.980	-1.260
2020/01/31 14:52:39.1	359.920	-0.210	-0.940	-1.290
2020/01/31 14:52:39.2	359.960	-0.220	-0.900	-1.320
2020/01/31 14:52:39.3	359.990	-0.240	-0.860	-1.340
2020/01/31 14:52:39.4	0.020	-0.250	-0.800	-1.360
2020/01/31 14:52:39.5	0.050	-0.250	-0.750	-1.370
2020/01/31 14:52:39.6	0.090	-0.260	-0.690	-1.380
2020/01/31 14:52:39.7	0.120	-0.270	-0.630	-1.380
2020/01/31 14:52:39.8	0.150	-0.270	-0.560	-1.370
2020/01/31 14:52:39.9	0.180	-0.270	-0.490	-1.360
2020/01/31 14:52:40.0	0.200	-0.270	-0.420	-1.350
2020/01/31 14:52:40.1	0.230	-0.270	-0.350	-1.330
2020/01/31 14:52:40.2	0.250	-0.270	-0.270	-1.300
2020/01/31 14:52:40.3	0.270	-0.270	-0.200	-1.270
2020/01/31 14:52:40.4	0.290	-0.260	-0.120	-1.230
2020/01/31 14:52:40.5	0.310	-0.250	-0.040	-1.190
2020/01/31 14:52:40.6	0.320	-0.250	0.030	-1.150
2020/01/31 14:52:40.7	0.330	-0.240	0.110	-1.090
2020/01/31 14:52:40.8	0.340	-0.220	0.180	-1.040
2020/01/31 14:52:40.9	0.350	-0.210	0.250	-0.980
2020/01/31 14:52:41.0	0.350	-0.200	0.320	-0.920
2020/01/31 14:52:41.1	0.350	-0.190	0.380	-0.850
2020/01/31 14:52:41.2	0.350	-0.170	0.440	-0.790
2020/01/31 14:52:41.3	0.340	-0.160	0.500	-0.710
2020/01/31 14:52:41.4	0.340	-0.140	0.550	-0.640
2020/01/31 14:52:41.5	0.320	-0.130	0.600	-0.570
2020/01/31 14:52:41.6	0.310	-0.120	0.640	-0.490
2020/01/31 14:52:41.7	0.300	-0.100	0.680	-0.420
2020/01/31 14:52:41.8	0.280	-0.090	0.710	-0.340
2020/01/31 14:52:41.9	0.260	-0.080	0.740	-0.270
2020/01/31 14:52:42.0	0.230	-0.070	0.760	-0.200
2020/01/31 14:52:42.1	0.200	-0.060	0.770	-0.130
2020/01/31 14:52:42.2	0.170	-0.060	0.770	-0.060
2020/01/31 14:52:42.3	0.140	-0.050	0.770	0.000
2020/01/31 14:52:42.4	0.110	-0.050	0.760	0.060
2020/01/31 14:52:42.5	0.070	-0.050	0.750	0.120
2020/01/31 14:52:42.6	0.040	-0.050	0.720	0.180
2020/01/31 14:52:42.7	0.000	-0.050	0.700	0.230
2020/01/31 14:52:42.8	359.970	-0.050	0.660	0.270
2020/01/31 14:52:42.9	359.930	-0.050	0.620	0.310
2020/01/31 14:52:43.0	359.900	-0.060	0.570	0.350
2020/01/31 14:52:43.1	359.860	-0.060	0.520	0.380
2020/01/31 14:52:43.2	359.830	-0.070	0.460	0.400
2020/01/31 14:52:43.3	359.800	-0.070	0.400	0.420
2020/01/31 14:52:43.4	359.770	-0.080	0.340	0.430
2020/01/31 14:52:43.5	359.740	-0.080	0.260	0.430
2020/01/31 14:52:43.6	359.720	-0.090	0.190	0.430
2020/01/31 14:52:43.7	359.690	-0.090	0.120	0.420
2020/01/31 14:52:43.8	359.670	-0.100	0.040	0.410
2020/01/31 14:52:43.9	359.650	-0.100	-0.040	0.400
2020/01/31 14:52:44.0	359.640	-0.100	-0.130	0.380
2020/01/31 14:52:44.1	359.620	-0.100	-0.210	0.360
2020/01/31 14:52:44.2	359.610	-0.090	-0.300	0.340
2020/01/31 14:52:44.3	359.600	-0.090	-0.380	0.320
2020/01/31 14:52:44.4	359.600	-0.080	-0.460	0.290
2020/01/31 14:52:44.5	359.590	-0.070	-0.540	0.260
2020/01/31 14:52:44.6	359.590	-0.060	-0.620	0.230
2020/01/31 14:52:44.7	359.590	-0.050	-0.690	0.200
2020/01/31 14:52:44.8	359.590	-0.030	-0.760	0.170
2020/01/31 14:52:44.9	359.590	-0.010	-0.830	0.150
2020/01/31 14:52:45.0	359.590	0.010	-0.890	0.120
2020/01/31 14:52:45.1	359.600	0.030	-0.950	0.090
2020/01/31 14:52:45.2	359.610	0.060	-1.010	0.070
2020/01/31 14:52:45.3	359.620	0.090	-1.060	0.040
2020/01/31 14:52:45.4	359.630	0.120	-1.100	0.010
2020/01/31 14:52:45.5	359.650	0.150	-1.140	-0.010
2020/01/31 14:52:45.6	359.670	0.180	-1.170	-0.030
2020/01/31 14:52:45.7	359.680	0.210	-1.190	-0.060
2020/01/31 14:52:45.8	359.700	0.250	-1.210	-0.080
2020/01/31 14:52:45.9	359.720	0.280	-1.220	-0.100
2020/01/31 14:52:46.0	359.750	0.320	-1.230	-0.130
2020/01/31 14:52:46.1	359.770	0.350	-1.230	-0.150
2020/01/31 14:52:46.2	359.800	0.380	-1.220	-0.170
2020/01/31 14:52:46.3	359.830	0.410	-1.210	-0.190
2020/01/31 14:52:46.4	359.860	0.440	-1.190	-0.210
2020/01/31 14:52:46.5	359.880	0.470	-1.160	-0.230
2020/01/31 14:52:46.6	359.910	0.500	-1.130	-0.250
2020/01/31 14:52:46.7	359.940	0.520	-1.090	-0.270
2020/01/31 14:52:46.8	359.960	0.540	-1.050	-0.280
2020/01/31 14:52:46.9	359.980	0.550	-1.000	-0.290
2020/01/31 14:52:47.0	0.010	0.570	-0.950	-0.290
2020/01/31 14:52:47.1	0.020	0.570	-0.890	-0.300
2020/01/31 14:52:47.2	0.040	0.580	-0.830	-0.300
2020/01/31 14:52:47.3	0.050	0.580	-0.760	-0.300
2020/01/31 14:52:47.4	0.060	0.570	-0.700	-0.300
2020/01/31 14:52:47.5	0.070	0.560	-0.630	-0.290
2020/01/31 14:52:47.6	0.080	0.550	-0.560	-0.280
2020/01/31 14:52:47.7	0.080	0.530	-0.500	-0.260
2020/01/31 14:52:47.8	0.080	0.510	-0.430	-0.250
2020/01/31 14:52:47.9	0.080	0.480	-0.360	-0.230
2020/01/31 14:52:48.0	0.070	0.450	-0.300	-0.220
2020/01/31 14:52:48.1	0.070	0.410	-0.230	-0.200
2020/01/31 14:52:48.2	0.060	0.370	-0.170	-0.180
2020/01/31 14:52:48.3	0.050	0.330	-0.120	-0.170
2020/01/31 14:52:48.4	0.030	0.280	-0.070	-0.150
2020/01/31 14:52:48.5	0.020	0.230	-0.020	-0.140
2020/01/31 14:52:48.6	0.010	0.180	0.020	-0.130
2020/01/31 14:52:48.7	0.010	0.130	0.070	-0.120
2020/01/31 14:52:48.8	0.000	0.080	0.100	-0.110
2020/01/31 14:52:48.9	359.990	0.030	0.120	-0.110
2020/01/31 14:52:49.0	359.970	-0.030	0.140	-0.110
2020/01/31 14:52:49.1	359.960	-0.080	0.160	-0.110
2020/01/31 14:52:49.2	359.950	-0.130	0.160	-0.120
2020/01/31 14:52:49.3	359.940	-0.180	0.170	-0.130
2020/01/31 14:52:49.4	359.930	-0.230	0.160	-0.150
2020/01/31 14:52:49.5	359.930	-0.270	0.150	-0.170
2020/01/31 14:52:49.6	359.920	-0.320	0.140	-0.190
2020/01/31 14:52:49.7	359.910	-0.350	0.120	-0.210
2020/01/31 14:52:49.8	359.910	-0.390	0.100	-0.240
2020/01/31 14:52:49.9	359.910	-0.420	0.070	-0.270
2020/01/31 14:52:50.0	359.910	-0.440	0.040	-0.300
2020/01/31 14:52:50.1	359.910	-0.470	0.010	-0.330
2020/01/31 14:52:50.2	359.910	-0.480	-0.020	-0.360
2020/01/31 14:52:50.3	359.920	-0.500	-0.050	-0.390
2020/01/31 14:52:50.4	359.920	-0.500	-0.090	-0.420
2020/01/31 14:52:50.5	359.930	-0.510	-0.120	-0.450
2020/01/31 14:52:50.6	359.930	-0.500	-0.150	-0.480
2020/01/31 14:52:50.7	359.940	-0.500	-0.180	-0.510
2020/01/31 14:52:50.8	359.940	-0.490	-0.200	-0.540
2020/01/31 14:52:50.9	359.940	-0.470	-0.230	-0.560
2020/01/31 14:52:51.0	359.950	-0.460	-0.250	-0.580
2020/01/31 14:52:51.1	359.950	-0.430	-0.270	-0.600
2020/01/31 14:52:51.2	359.950	-0.410	-0.290	-0.610
2020/01/31 14:52:51.3	359.950	-0.380	-0.300	-0.630
2020/01/31 14:52:51.4	359.950	-0.350	-0.310	-0.630
2020/01/31 14:52:51.5	359.950	-0.320	-0.310	-0.640
2020/01/31 14:52:51.6	359.950	-0.290	-0.320	-0.640
2020/01/31 14:52:51.7	359.940	-0.250	-0.310	-0.640
2020/01/31 14:52:51.8	359.940	-0.220	-0.310	-0.630
2020/01/31 14:52:51.9	359.940	-0.180	-0.300	-0.620
2020/01/31 14:52:52.0	359.940	-0.140	-0.280	-0.610
2020/01/31 14:52:52.1	359.940	-0.100	-0.260	-0.590
2020/01/31 14:52:52.2	359.940	-0.070	-0.240	-0.570
2020/01/31 14:52:52.3	359.940	-0.030	-0.220	-0.550
2020/01/31 14:52:52.4	359.940	0.000	-0.190	-0.520
2020/01/31 14:52:52.5	359.940	0.040	-0.170	-0.500
2020/01/31 14:52:52.6	359.940	0.070	-0.140	-0.470
2020/01/31 14:52:52.7	359.940	0.100	-0.110	-0.440
2020/01/31 14:52:52.8	359.950	0.130	-0.080	-0.420
2020/01/31 14:52:52.9	359.950	0.150	-0.050	-0.390
2020/01/31 14:52:53.0	359.960	0.170	-0.020	-0.360
2020/01/31 14:52:53.1	359.970	0.190	0.010	-0.340
2020/01/31 14:52:53.2	359.980	0.210	0.040	-0.310
2020/01/31 14:52:53.3	359.990	0.220	0.070	-0.290
2020/01/31 14:52:53.4	0.000	0.230	0.090	-0.270
2020/01/31 14:52:53.5	0.020	0.240	0.110	-0.250
2020/01/31 14:52:53.6	0.030	0.240	0.140	-0.220
2020/01/31 14:52:53.7	0.050	0.240	0.160	-0.200
2020/01/31 14:52:53.8	0.060	0.240	0.180	-0.180
2020/01/31 14:52:53.9	0.080	0.240	0.200	-0.160
2020/01/31 14:52:54.0	0.090	0.230	0.220	-0.130
2020/01/31 14:52:54.1	0.100	0.220	0.240	-0.110
2020/01/31 14:52:54.2	0.110	0.200	0.250	-0.090
2020/01/31 14:52:54.3	0.120	0.180	0.270	-0.060
2020/01/31 14:52:54.4	0.130	0.160	0.280	-0.040
2020/01/31 14:52:54.5	0.140	0.140	0.290	-0.010
2020/01/31 14:52:54.6	0.140	0.110	0.300	0.010
2020/01/31 14:52:54.7	0.130	0.080	0.310	0.040
2020/01/31 14:52:54.8	0.130	0.050	0.310	0.060
2020/01/31 14:52:54.9	0.130	0.020	0.320	0.080
2020/01/31 14:52:55.0	0.130	-0.010	0.320	0.110
2020/01/31 14:52:55.1	0.130	-0.050	0.310	0.130
2020/01/31 14:52:55.2	0.120	-0.080	0.310	0.150
2020/01/31 14:52:55.3	0.120	-0.120	0.300	0.170
2020/01/31 14:52:55.4	0.110	-0.150	0.280	0.180
2020/01/31 14:52:55.5	0.110	-0.190	0.260	0.190
2020/01/31 14:52:55.6	0.100	-0.230	0.240	0.190
2020/01/31 14:52:55.7	0.100	-0.260	0.210	0.200
2020/01/31 14:52:55.8	0.090	-0.290	0.180	0.190
2020/01/31 14:52:55.9	0.090	-0.330	0.140	0.190
2020/01/31 14:52:56.0	0.080	-0.360	0.100	0.180
2020/01/31 14:52:56.1	0.080	-0.380	0.050	0.160
2020/01/31 14:52:56.2	0.070	-0.410	0.000	0.140
2020/01/31 14:52:56.3	0.070	-0.430	-0.050	0.120
2020/01/31 14:52:56.4	0.060	-0.450	-0.110	0.090
2020/01/31 14:52:56.5	0.060	-0.470	-0.170	0.060
2020/01/31 14:52:56.6	0.060	-0.480	-0.240	0.030
2020/01/31 14:52:56.7	0.060	-0.490	-0.310	-0.010
2020/01/31 14:52:56.8	0.060	-0.490	-0.380	-0.050
2020/01/31 14:52:56.9	0.060	-0.490	-0.450	-0.090
2020/01/31 14:52:57.0	0.060	-0.490	-0.520	-0.130
2020/01/31 14:52:57.1	0.070	-0.480	-0.600	-0.170
2020/01/31 14:52:57.2	0.070	-0.470	-0.670	-0.210
2020/01/31 14:52:57.3	0.070	-0.460	-0.740	-0.250
2020/01/31 14:52:57.4	0.080	-0.440	-0.810	-0.290
2020/01/31 14:52:57.5	0.080	-0.420	-0.870	-0.330
2020/01/31 14:52:57.6	0.080	-0.390	-0.930	-0.370
2020/01/31 14:52:57.7	0.090	-0.360	-0.990	-0.410
2020/01/31 14:52:57.8	0.090	-0.330	-1.040	-0.450
2020/01/31 14:52:57.9	0.090	-0.300	-1.090	-0.480
2020/01/31 14:52:58.0	0.090	-0.260	-1.130	-0.510
2020/01/31 14:52:58.1	0.080	-0.220	-1.170	-0.540
2020/01/31 14:52:58.2	0.080	-0.180	-1.200	-0.560
2020/01/31 14:52:58.3	0.070	-0.130	-1.220	-0.580
2020/01/31 14:52:58.4	0.070	-0.090	-1.240	-0.600
2020/01/31 14:52:58.5	0.060	-0.040	-1.250	-0.610
2020/01/31 14:52:58.6	0.050	0.010	-1.250	-0.620
2020/01/31 14:52:58.7	0.040	0.060	-1.250	-0.630
2020/01/31 14:52:58.8	0.030	0.110	-1.250	-0.630
2020/01/31 14:52:58.9	0.020	0.160	-1.230	-0.630
2020/01/31 14:52:59.0	0.010	0.200	-1.220	-0.630
2020/01/31 14:52:59.1	0.000	0.250	-1.200	-0.620
2020/01/31 14:52:59.2	0.000	0.300	-1.170	-0.610
2020/01/31 14:52:59.3	359.990	0.340	-1.140	-0.600
2020/01/31 14:52:59.4	359.990	0.390	-1.100	-0.580
2020/01/31 14:52:59.5	359.980	0.430	-1.060	-0.560
2020/01/31 14:52:59.6	359.980	0.470	-1.020	-0.540
2020/01/31 14:52:59.7	359.970	0.510	-0.980	-0.520
2020/01/31 14:52:59.8	359.970	0.550	-0.930	-0.500
2020/01/31 14:52:59.9	359.980	0.580	-0.880	-0.470
2020/01/31 14:53:00.0	359.990	0.610	-0.840	-0.450
2020/01/31 14:53:00.1	359.990	0.640	-0.790	-0.430
2020/01/31 14:53:00.2	0.010	0.670	-0.730	-0.400
2020/01/31 14:53:00.3	0.020	0.690	-0.680	-0.380
2020/01/31 14:53:00.4	0.030	0.710	-0.630	-0.350
2020/01/31 14:53:00.5	0.050	0.720	-0.580	-0.330
2020/01/31 14:53:00.6	0.070	0.730	-0.530	-0.310
2020/01/31 14:53:00.7	0.090	0.740	-0.470	-0.290
2020/01/31 14:53:00.8	0.110	0.750	-0.420	-0.270
2020/01/31 14:53:00.9	0.130	0.750	-0.370	-0.250
2020/01/31 14:53:01.0	0.150	0.740	-0.330	-0.230
2020/01/31 14:53:01.1	0.180	0.740	-0.280	-0.210
2020/01/31 14:53:01.2	0.200	0.730	-0.230	-0.190
2020/01/31 14:53:01.3	0.230	0.720	-0.180	-0.170
2020/01/31 14:53:01.4	0.250	0.700	-0.140	-0.150
2020/01/31 14:53:01.5	0.280	0.680	-0.090	-0.130
2020/01/31 14:53:01.6	0.300	0.660	-0.050	-0.110
2020/01/31 14:53:01.7	0.320	0.630	0.000	-0.090
2020/01/31 14:53:01.8	0.340	0.610	0.050	-0.070
2020/01/31 14:53:01.9	0.360	0.580	0.090	-0.040
2020/01/31 14:53:02.0	0.380	0.550	0.140	-0.020
2020/01/31 14:53:02.1	0.390	0.510	0.180	0.010
2020/01/31 14:53:02.2	0.400	0.470	0.230	0.030
2020/01/31 14:53:02.3	0.410	0.440	0.280	0.060
2020/01/31 14:53:02.4	0.420	0.400	0.320	0.080
2020/01/31 14:53:02.5	0.430	0.350	0.360	0.110
2020/01/31 14:53:02.6	0.430	0.310	0.400	0.140
2020/01/31 14:53:02.7	0.440	0.270	0.450	0.160
2020/01/31 14:53:02.8	0.440	0.220	0.480	0.180
2020/01/31 14:53:02.9	0.440	0.180	0.520	0.210
2020/01/31 14:53:03.0	0.440	0.130	0.550	0.230
2020/01/31 14:53:03.1	0.440	0.080	0.580	0.240
2020/01/31 14:53:03.2	0.440	0.040	0.600	0.260
2020/01/31 14:53:03.3	0.430	-0.010	0.620	0.270
2020/01/31 14:53:03.4	0.430	-0.050	0.630	0.280
2020/01/31 14:53:03.5	0.430	-0.100	0.640	0.290
2020/01/31 14:53:03.6	0.430	-0.140	0.640	0.290
2020/01/31 14:53:03.7	0.430	-0.180	0.640	0.290
2020/01/31 14:53:03.8	0.430	-0.230	0.630	0.290
2020/01/31 14:53:03.9	0.430	-0.270	0.620	0.290
2020/01/31 14:53:04.0	0.430	-0.310	0.600	0.280
2020/01/31 14:53:04.1	0.430	-0.340	0.580	0.260
2020/01/31 14:53:04.2	0.420	-0.380	0.550	0.250
2020/01/31 14:53:04.3	0.420	-0.410	0.520	0.230
2020/01/31 14:53:04.4	0.420	-0.450	0.480	0.200
2020/01/31 14:53:04.5	0.420	-0.480	0.440	0.180
2020/01/31 14:53:04.6	0.410	-0.500	0.390	0.150
2020/01/31 14:53:04.7	0.400	-0.530	0.350	0.110
2020/01/31 14:53:04.8	0.400	-0.550	0.300	0.080
2020/01/31 14:53:04.9	0.400	-0.570	0.240	0.040
2020/01/31 14:53:05.0	0.390	-0.590	0.180	0.000
2020/01/31 14:53:05.1	0.390	-0.610	0.130	-0.030
2020/01/31 14:53:05.2	0.390	-0.620	0.070	-0.070
2020/01/31 14:53:05.3	0.380	-0.630	0.010	-0.110
2020/01/31 14:53:05.4	0.380	-0.640	-0.050	-0.150
2020/01/31 14:53:05.5	0.380	-0.650	-0.110	-0.190
2020/01/31 14:53:05.6	0.370	-0.650	-0.170	-0.220
2020/01/31 14:53:05.7	0.370	-0.650	-0.230	-0.270
2020/01/31 14:53:05.8	0.370	-0.650	-0.290	-0.300
2020/01/31 14:53:05.9	0.360	-0.650	-0.340	-0.340
2020/01/31 14:53:06.0	0.360	-0.650	-0.400	-0.380
2020/01/31 14:53:06.1	0.350	-0.640	-0.450	-0.410
2020/01/31 14:53:06.2	0.350	-0.630	-0.500	-0.450
2020/01/31 14:53:06.3	0.340	-0.620	-0.550	-0.480
2020/01/31 14:53:06.4	0.340	-0.610	-0.600	-0.510
2020/01/31 14:53:06.5	0.330	-0.590	-0.640	-0.540
2020/01/31 14:53:06.6	0.320	-0.580	-0.680	-0.570
2020/01/31 14:53:06.7	0.320	-0.560	-0.710	-0.600
2020/01/31 14:53:06.8	0.310	-0.540	-0.740	-0.620
2020/01/31 14:53:06.9	0.300	-0.520	-0.770	-0.650
2020/01/31 14:53:07.0	0.290	-0.500	-0.790	-0.670
2020/01/31 14:53:07.1	0.280	-0.480	-0.810	-0.690
2020/01/31 14:53:07.2	0.280	-0.460	-0.820	-0.710
2020/01/31 14:53:07.3	0.270	-0.430	-0.830	-0.720
2020/01/31 14:53:07.4	0.260	-0.410	-0.840	-0.740
2020/01/31 14:53:07.5	0.250	-0.380	-0.840	-0.750
2020/01/31 14:53:07.6	0.250	-0.360	-0.840	-0.760
2020/01/31 14:53:07.7	0.250	-0.330	-0.830	-0.770
2020/01/31 14:53:07.8	0.240	-0.300	-0.810	-0.780
2020/01/31 14:53:07.9	0.230	-0.280	-0.800	-0.780
2020/01/31 14:53:08.0	0.230	-0.250	-0.780	-0.780
2020/01/31 14:53:08.1	0.220	-0.220	-0.760	-0.780
2020/01/31 14:53:08.2	0.220	-0.200	-0.730	-0.770
2020/01/31 14:53:08.3	0.220	-0.170	-0.700	-0.760
2020/01/31 14:53:08.4	0.220	-0.140	-0.670	-0.750
2020/01/31 14:53:08.5	0.220	-0.110	-0.640	-0.740
2020/01/31 14:53:08.6	0.220	-0.090	-0.600	-0.720
2020/01/31 14:53:08.7	0.210	-0.060	-0.560	-0.710
2020/01/31 14:53:08.8	0.220	-0.030	-0.530	-0.690
2020/01/31 14:53:08.9	0.220	-0.000	-0.490	-0.660
2020/01/31 14:53:09.0	0.220	0.020	-0.450	-0.630
2020/01/31 14:53:09.1	0.220	0.050	-0.420	-0.600
2020/01/31 14:53:09.2	0.220	0.080	-0.380	-0.560
2020/01/31 14:53:09.3	0.220	0.100	-0.340	-0.530
2020/01/31 14:53:09.4	0.220	0.130	-0.300	-0.490
2020/01/31 14:53:09.5	0.220	0.150	-0.270	-0.440
2020/01/31 14:53:09.6	0.220	0.180	-0.230	-0.400
2020/01/31 14:53:09.7	0.220	0.200	-0.200	-0.350
2020/01/31 14:53:09.8	0.220	0.230	-0.170	-0.300
2020/01/31 14:53:09.9	0.210	0.250	-0.140	-0.250
2020/01/31 14:53:10.0	0.200	0.270	-0.110	-0.200
2020/01/31 14:53:10.1	0.190	0.290	-0.080	-0.140
2020/01/31 14:53:10.2	0.180	0.310	-0.050	-0.090
2020/01/31 14:53:10.3	0.160	0.330	-0.030	-0.040
2020/01/31 14:53:10.4	0.150	0.340	-0.000	0.020
2020/01/31 14:53:10.5	0.130	0.360	0.020	0.070
2020/01/31 14:53:10.6	0.110	0.370	0.030	0.120
2020/01/31 14:53:10.7	0.090	0.390	0.050	0.170
2020/01/31 14:53:10.8	0.060	0.400	0.060	0.210
2020/01/31 14:53:10.9	0.040	0.410	0.070	0.260
2020/01/31 14:53:11.0	0.010	0.420	0.080	0.300
2020/01/31 14:53:11.1	359.990	0.430	0.080	0.340
2020/01/31 14:53:11.2	359.960	0.430	0.080	0.380
2020/01/31 14:53:11.3	359.940	0.440	0.070	0.410
2020/01/31 14:53:11.4	359.910	0.440	0.060	0.440
2020/01/31 14:53:11.5	359.890	0.440	0.050	0.460
2020/01/31 14:53:11.6	359.870	0.440	0.040	0.480
2020/01/31 14:53:11.7	359.850	0.440	0.010	0.490
2020/01/31 14:53:11.8	359.830	0.440	-0.010	0.500
2020/01/31 14:53:11.9	359.820	0.440	-0.040	0.510
2020/01/31 14:53:12.0	359.810	0.430	-0.070	0.510
2020/01/31 14:53:12.1	359.800	0.420	-0.110	0.500
2020/01/31 14:53:12.2	359.790	0.420	-0.140	0.490
2020/01/31 14:53:12.3	359.790	0.410	-0.190	0.480
2020/01/31 14:53:12.4	359.790	0.400	-0.230	0.460
2020/01/31 14:53:12.5	359.790	0.390	-0.270	0.440
2020/01/31 14:53:12.6	359.790	0.370	-0.320	0.420
2020/01/31 14:53:12.7	359.790	0.360	-0.360	0.390
2020/01/31 14:53:12.8	359.800	0.340	-0.410	0.350
2020/01/31 14:53:12.9	359.810	0.330	-0.460	0.320
2020/01/31 14:53:13.0	359.830	0.310	-0.500	0.290
2020/01/31 14:53:13.1	359.850	0.290	-0.550	0.250
2020/01/31 14:53:13.2	359.870	0.270	-0.590	0.210
2020/01/31 14:53:13.3	359.890	0.250	-0.630	0.170
2020/01/31 14:53:13.4	359.910	0.230	-0.660	0.130
2020/01/31 14:53:13.5	359.930	0.200	-0.690	0.090
2020/01/31 14:53:13.6	359.960	0.180	-0.720	0.050
2020/01/31 14:53:13.7	359.990	0.160	-0.740	-0.000
2020/01/31 14:53:13.8	0.010	0.130	-0.760	-0.040
2020/01/31 14:53:13.9	0.040	0.110	-0.770	-0.090
2020/01/31 14:53:14.0	0.070	0.080	-0.780	-0.130
2020/01/31 14:53:14.1	0.090	0.050	-0.790	-0.170
2020/01/31 14:53:14.2	0.120	0.030	-0.790	-0.210
2020/01/31 14:53:14.3	0.150	0.000	-0.780	-0.250
2020/01/31 14:53:14.4	0.170	-0.020	-0.770	-0.290
2020/01/31 14:53:14.5	0.200	-0.050	-0.750	-0.330
2020/01/31 14:53:14.6	0.220	-0.070	-0.730	-0.360
2020/01/31 14:53:14.7	0.250	-0.090	-0.700	-0.400
2020/01/31 14:53:14.8	0.280	-0.120	-0.670	-0.430
2020/01/31 14:53:14.9	0.300	-0.140	-0.630	-0.450
2020/01/31 14:53:15.0	0.320	-0.160	-0.590	-0.480
2020/01/31 14:53:15.1	0.340	-0.170	-0.550	-0.500
2020/01/31 14:53:15.2	0.360	-0.190	-0.510	-0.520
2020/01/31 14:53:15.3	0.380	-0.200	-0.460	-0.540
2020/01/31 14:53:15.4	0.400	-0.220	-0.410	-0.550
2020/01/31 14:53:15.5	0.410	-0.230	-0.350	-0.560
2020/01/31 14:53:15.6	0.430	-0.240	-0.300	-0.560
2020/01/31 14:53:15.7	0.450	-0.240	-0.240	-0.570
2020/01/31 14:53:15.8	0.460	-0.250	-0.180	-0.570
2020/01/31 14:53:15.9	0.470	-0.250	-0.130	-0.560
2020/01/31 14:53:16.0	0.480	-0.250	-0.070	-0.550
2020/01/31 14:53:16.1	0.490	-0.250	-0.020	-0.540
2020/01/31 14:53:16.2	0.490	-0.250	0.030	-0.530
2020/01/31 14:53:16.3	0.500	-0.250	0.090	-0.510
2020/01/31 14:53:16.4	0.500	-0.240	0.140	-0.480
2020/01/31 14:53:16.5	0.490	-0.240	0.180	-0.460
2020/01/31 14:53:16.6	0.490	-0.230	0.230	-0.430
2020/01/31 14:53:16.7	0.480	-0.230	0.270	-0.400
2020/01/31 14:53:16.8	0.460	-0.220	0.300	-0.370
2020/01/31 14:53:16.9	0.450	-0.210	0.340	-0.340
2020/01/31 14:53:17.0	0.430	-0.200	0.370	-0.300
2020/01/31 14:53:17.1	0.400	-0.190	0.390	-0.270
2020/01/31 14:53:17.2	0.380	-0.190	0.410	-0.230
2020/01/31 14:53:17.3	0.350	-0.180	0.420	-0.200
2020/01/31 14:53:17.4	0.320	-0.170	0.430	-0.170
2020/01/31 14:53:17.5	0.290	-0.160	0.430	-0.130
2020/01/31 14:53:17.6	0.260	-0.150	0.430	-0.100
2020/01/31 14:53:17.7	0.220	-0.140	0.420	-0.070
2020/01/31 14:53:17.8	0.180	-0.130	0.410	-0.040
2020/01/31 14:53:17.9	0.140	-0.120	0.390	-0.010
2020/01/31 14:53:18.0	0.110	-0.110	0.360	0.020
2020/01/31 14:53:18.1	0.070	-0.110	0.330	0.050
2020/01/31 14:53:18.2	0.030	-0.100	0.300	0.080
2020/01/31 14:53:18.3	0.000	-0.090	0.260	0.100
2020/01/31 14:53:18.4	359.960	-0.080	0.210	0.130
2020/01/31 14:53:18.5	359.920	-0.070	0.160	0.150
2020/01/31 14:53:18.6	359.890	-0.060	0.110	0.170
2020/01/31 14:53:18.7	359.840	-0.050	0.060	0.180
2020/01/31 14:53:18.8	359.800	-0.040	-0.000	0.200
2020/01/31 14:53:18.9	359.770	-0.030	-0.060	0.210
2020/01/31 14:53:19.0	359.740	-0.020	-0.120	0.220
2020/01/31 14:53:19.1	359.700	-0.010	-0.180	0.240
2020/01/31 14:53:19.2	359.670	-0.000	-0.250	0.240
2020/01/31 14:53:19.3	359.640	0.010	-0.310	0.250
2020/01/31 14:53:19.4	359.620	0.020	-0.370	0.250
2020/01/31 14:53:19.5	359.590	0.030	-0.430	0.250
2020/01/31 14:53:19.6	359.570	0.040	-0.490	0.250
2020/01/31 14:53:19.7	359.540	0.060	-0.540	0.240
2020/01/31 14:53:19.8	359.520	0.070	-0.590	0.240
2020/01/31 14:53:19.9	359.500	0.080	-0.640	0.230
2020/01/31 14:53:20.0	359.490	0.100	-0.690	0.220
2020/01/31 14:53:20.1	359.470	0.110	-0.740	0.200
2020/01/31 14:53:20.2	359.460	0.130	-0.770	0.190
2020/01/31 14:53:20.3	359.450	0.140	-0.810	0.170
2020/01/31 14:53:20.4	359.450	0.160	-0.840	0.150
2020/01/31 14:53:20.5	359.440	0.170	-0.860	0.130
2020/01/31 14:53:20.6	359.440	0.190	-0.880	0.120
2020/01/31 14:53:20.7	359.450	0.200	-0.900	0.090
2020/01/31 14:53:20.8	359.450	0.220	-0.910	0.080
2020/01/31 14:53:20.9	359.460	0.230	-0.910	0.060
2020/01/31 14:53:21.0	359.460	0.250	-0.910	0.040
2020/01/31 14:53:21.1	359.470	0.270	-0.900	0.020
2020/01/31 14:53:21.2	359.480	0.280	-0.890	-0.000
2020/01/31 14:53:21.3	359.500	0.290	-0.870	-0.020
2020/01/31 14:53:21.4	359.510	0.300	-0.850	-0.040
2020/01/31 14:53:21.5	359.520	0.320	-0.820	-0.050
2020/01/31 14:53:21.6	359.540	0.320	-0.800	-0.070
2020/01/31 14:53:21.7	359.550	0.330	-0.760	-0.090
2020/01/31 14:53:21.8	359.570	0.340	-0.730	-0.100
2020/01/31 14:53:21.9	359.590	0.340	-0.690	-0.110
2020/01/31 14:53:22.0	359.610	0.340	-0.640	-0.130
2020/01/31 14:53:22.1	359.630	0.340	-0.600	-0.140
2020/01/31 14:53:22.2	359.640	0.340	-0.550	-0.150
2020/01/31 14:53:22.3	359.660	0.330	-0.500	-0.160
2020/01/31 14:53:22.4	359.680	0.320	-0.450	-0.160
2020/01/31 14:53:22.5	359.690	0.310	-0.400	-0.170
2020/01/31 14:53:22.6	359.710	0.300	-0.350	-0.170
2020/01/31 14:53:22.7	359.730	0.280	-0.300	-0.180
2020/01/31 14:53:22.8	359.740	0.270	-0.250	-0.180
2020/01/31 14:53:22.9	359.750	0.250	-0.200	-0.190
2020/01/31 14:53:23.0	359.760	0.220	-0.150	-0.190
2020/01/31 14:53:23.1	359.770	0.200	-0.110	-0.190
2020/01/31 14:53:23.2	359.780	0.170	-0.060	-0.180
2020/01/31 14:53:23.3	359.790	0.140	-0.020	-0.180
2020/01/31 14:53:23.4	359.790	0.110	0.020	-0.180
2020/01/31 14:53:23.5	359.800	0.080	0.060	-0.170
2020/01/31 14:53:23.6	359.800	0.040	0.100	-0.160
2020/01/31 14:53:23.7	359.800	0.010	0.130	-0.150
2020/01/31 14:53:23.8	359.800	-0.030	0.160	-0.140
2020/01/31 14:53:23.9	359.790	-0.060	0.180	-0.130
2020/01/31 14:53:24.0	359.790	-0.100	0.210	-0.110
2020/01/31 14:53:24.1	359.780	-0.140	0.230	-0.100
2020/01/31 14:53:24.2	359.770	-0.170	0.250	-0.080
2020/01/31 14:53:24.3	359.750	-0.210	0.260	-0.070
2020/01/31 14:53:24.4	359.740	-0.250	0.270	-0.060
2020/01/31 14:53:24.5	359.730	-0.280	0.280	-0.050
2020/01/31 14:53:24.6	359.710	-0.310	0.290	-0.040
2020/01/31 14:53:24.7	359.700	-0.340	0.290	-0.030
2020/01/31 14:53:24.8	359.680	-0.370	0.290	-0.030
2020/01/31 14:53:24.9	359.660	-0.400	0.280	-0.020
2020/01/31 14:53:25.0	359.650	-0.420	0.270	-0.020
2020/01/31 14:53:25.1	359.630	-0.440	0.260	-0.020
2020/01/31 14:53:25.2	359.620	-0.460	0.250	-0.020
2020/01/31 14:53:25.3	359.600	-0.480	0.230	-0.010
2020/01/31 14:53:25.4	359.590	-0.490	0.210	-0.010
2020/01/31 14:53:25.5	359.580	-0.490	0.190	-0.010
2020/01/31 14:53:25.6	359.560	-0.500	0.170	-0.010
2020/01/31 14:53:25.7	359.540	-0.490	0.150	-0.010
2020/01/31 14:53:25.8	359.530	-0.490	0.120	-0.010
2020/01/31 14:53:25.9	359.520	-0.480	0.090	-0.010
2020/01/31 14:53:26.0	359.510	-0.470	0.070	-0.010
2020/01/31 14:53:26.1	359.500	-0.450	0.040	-0.010
2020/01/31 14:53:26.2	359.500	-0.430	0.010	-0.010
2020/01/31 14:53:26.3	359.490	-0.410	-0.020	-0.010
2020/01/31 14:53:26.4	359.490	-0.390	-0.050	-0.000
2020/01/31 14:53:26.5	359.490	-0.360	-0.080	0.000
2020/01/31 14:53:26.6	359.490	-0.330	-0.110	0.010
2020/01/31 14:53:26.7	359.480	-0.300	-0.140	0.010
2020/01/31 14:53:26.8	359.480	-0.270	-0.170	0.020
2020/01/31 14:53:26.9	359.480	-0.230	-0.200	0.030
2020/01/31 14:53:27.0	359.470	-0.200	-0.220	0.040
2020/01/31 14:53:27.1	359.470	-0.160	-0.250	0.060
2020/01/31 14:53:27.2	359.470	-0.130	-0.270	0.070
2020/01/31 14:53:27.3	359.460	-0.100	-0.290	0.080
2020/01/31 14:53:27.4	359.460	-0.060	-0.310	0.100
2020/01/31 14:53:27.5	359.460	-0.030	-0.330	0.110
2020/01/31 14:53:27.6	359.450	-0.000	-0.350	0.130
2020/01/31 14:53:27.7	359.440	0.030	-0.370	0.150
2020/01/31 14:53:27.8	359.440	0.050	-0.380	0.160
2020/01/31 14:53:27.9	359.430	0.080	-0.400	0.170
2020/01/31 14:53:28.0	359.430	0.100	-0.410	0.180
2020/01/31 14:53:28.1	359.430	0.120	-0.420	0.190
2020/01/31 14:53:28.2	359.430	0.140	-0.430	0.200
2020/01/31 14:53:28.3	359.430	0.160	-0.440	0.210
2020/01/31 14:53:28.4	359.420	0.170	-0.440	0.220
2020/01/31 14:53:28.5	359.420	0.180	-0.450	0.220
2020/01/31 14:53:28.6	359.430	0.190	-0.450	0.220
2020/01/31 14:53:28.7	359.430	0.200	-0.450	0.220
2020/01/31 14:53:28.8	359.430	0.200	-0.450	0.220
2020/01/31 14:53:28.9	359.430	0.210	-0.450	0.220
2020/01/31 14:53:29.0	359.430	0.210	-0.450	0.220
2020/01/31 14:53:29.1	359.430	0.210	-0.450	0.220
2020/01/31 14:53:29.2	359.430	0.210	-0.450	0.220
2020/01/31 14:53:29.3	359.430	0.200	-0.440	0.220
2020/01/31 14:53:29.4	359.440	0.200	-0.440	0.210
2020/01/31 14:53:29.5	359.440	0.190	-0.430	0.210
2020/01/31 14:53:29.6	359.440	0.180	-0.420	0.210
2020/01/31 14:53:29.7	359.440	0.180	-0.420	0.210
2020/01/31 14:53:29.8	359.440	0.170	-0.410	0.210
2020/01/31 14:53:29.9	359.430	0.160	-0.400	0.200
2020/01/31 14:53:30.0	359.430	0.150	-0.400	0.200
2020/01/31 14:53:30.1	359.430	0.140	-0.390	0.190
2020/01/31 14:53:30.2	359.420	0.130	-0.390	0.190
2020/01/31 14:53:30.3	359.420	0.120	-0.380	0.180
2020/01/31 14:53:30.4	359.410	0.110	-0.380	0.180
2020/01/31 14:53:30.5	359.400	0.100	-0.380	0.170
2020/01/31 14:53:30.6	359.390	0.090	-0.370	0.160
2020/01/31 14:53:30.7	359.390	0.080	-0.380	0.150
2020/01/31 14:53:30.8	359.380	0.070	-0.380	0.140
2020/01/31 14:53:30.9	359.370	0.070	-0.380	0.130
2020/01/31 14:53:31.0	359.360	0.070	-0.390	0.120
2020/01/31 14:53:31.1	359.350	0.070	-0.400	0.110
2020/01/31 14:53:31.2	359.350	0.060	-0.410	0.100
2020/01/31 14:53:31.3	359.340	0.070	-0.420	0.090
2020/01/31 14:53:31.4	359.330	0.070	-0.430	0.080
2020/01/31 14:53:31.5	359.330	0.080	-0.440	0.070
2020/01/31 14:53:31.6	359.320	0.080	-0.460	0.060
2020/01/31 14:53:31.7	359.310	0.090	-0.470	0.050
2020/01/31 14:53:31.8	359.310	0.100	-0.490	0.050
2020/01/31 14:53:31.9	359.300	0.110	-0.500	0.040
2020/01/31 14:53:32.0	359.290	0.130	-0.520	0.030
2020/01/31 14:53:32.1	359.290	0.140	-0.540	0.020
2020/01/31 14:53:32.2	359.280	0.160	-0.560	0.020
2020/01/31 14:53:32.3	359.280	0.170	-0.580	0.010
2020/01/31 14:53:32.4	359.270	0.190	-0.590	0.000
2020/01/31 14:53:32.5	359.270	0.210	-0.610	-0.010
2020/01/31 14:53:32.6	359.270	0.220	-0.630	-0.020
2020/01/31 14:53:32.7	359.270	0.240	-0.640	-0.030
2020/01/31 14:53:32.8	359.270	0.260	-0.660	-0.040
2020/01/31 14:53:32.9	359.270	0.280	-0.670	-0.050
2020/01/31 14:53:33.0	359.280	0.290	-0.680	-0.070
2020/01/31 14:53:33.1	359.280	0.310	-0.690	-0.080
2020/01/31 14:53:33.2	359.290	0.320	-0.700	-0.090
2020/01/31 14:53:33.3	359.300	0.330	-0.700	-0.110
2020/01/31 14:53:33.4	359.310	0.340	-0.700	-0.120
2020/01/31 14:53:33.5	359.310	0.340	-0.690	-0.140
2020/01/31 14:53:33.6	359.320	0.350	-0.690	-0.150
2020/01/31 14:53:33.7	359.320	0.350	-0.670	-0.170
2020/01/31 14:53:33.8	359.330	0.340	-0.650	-0.190
2020/01/31 14:53:33.9	359.330	0.340	-0.630	-0.200
2020/01/31 14:53:34.0	359.330	0.330	-0.610	-0.220
2020/01/31 14:53:34.1	359.340	0.320	-0.580	-0.230
2020/01/31 14:53:34.2	359.340	0.300	-0.540	-0.250
2020/01/31 14:53:34.3	359.340	0.280	-0.500	-0.260
2020/01/31 14:53:34.4	359.340	0.260	-0.460	-0.280
2020/01/31 14:53:34.5	359.340	0.230	-0.410	-0.300
2020/01/31 14:53:34.6	359.330	0.210	-0.360	-0.310
2020/01/31 14:53:34.7	359.340	0.180	-0.310	-0.330
2020/01/31 14:53:34.8	359.330	0.140	-0.250	-0.340
2020/01/31 14:53:34.9	359.330	0.110	-0.190	-0.360
2020/01/31 14:53:35.0	359.330	0.070	-0.130	-0.370
2020/01/31 14:53:35.1	359.320	0.040	-0.060	-0.380
2020/01/31 14:53:35.2	359.320	-0.000	0.000	-0.390
2020/01/31 14:53:35.3	359.320	-0.040	0.070	-0.400
2020/01/31 14:53:35.4	359.320	-0.080	0.130	-0.410
2020/01/31 14:53:35.5	359.320	-0.110	0.200	-0.420
2020/01/31 14:53:35.6	359.320	-0.150	0.260	-0.430
2020/01/31 14:53:35.7	359.310	-0.190	0.330	-0.450
2020/01/31 14:53:35.8	359.310	-0.220	0.380	-0.460
2020/01/31 14:53:35.9	359.320	-0.250	0.440	-0.470
2020/01/31 14:53:36.0	359.330	-0.280	0.480	-0.480
2020/01/31 14:53:36.1	359.340	-0.310	0.530	-0.490
2020/01/31 14:53:36.2	359.350	-0.340	0.560	-0.500
2020/01/31 14:53:36.3	359.360	-0.360	0.590	-0.510
2020/01/31 14:53:36.4	359.370	-0.380	0.620	-0.520
2020/01/31 14:53:36.5	359.380	-0.400	0.630	-0.540
2020/01/31 14:53:36.6	359.400	-0.410	0.650	-0.550
2020/01/31 14:53:36.7	359.420	-0.420	0.650	-0.560
2020/01/31 14:53:36.8	359.430	-0.430	0.650	-0.570
2020/01/31 14:53:36.9	359.440	-0.430	0.640	-0.580
2020/01/31 14:53:37.0	359.450	-0.440	0.630	-0.590
2020/01/31 14:53:37.1	359.460	-0.440	0.610	-0.600
2020/01/31 14:53:37.2	359.470	-0.440	0.580	-0.610
2020/01/31 14:53:37.3	359.470	-0.430	0.550	-0.620
2020/01/31 14:53:37.4	359.480	-0.430	0.510	-0.630
2020/01/31 14:53:37.5	359.480	-0.420	0.470	-0.640
2020/01/31 14:53:37.6	359.480	-0.410	0.430	-0.650
2020/01/31 14:53:37.7	359.480	-0.400	0.380	-0.660
2020/01/31 14:53:37.8	359.480	-0.390	0.330	-0.670
2020/01/31 14:53:37.9	359.480	-0.380	0.270	-0.680
2020/01/31 14:53:38.0	359.470	-0.370	0.210	-0.690
2020/01/31 14:53:38.1	359.460	-0.350	0.150	-0.690
2020/01/31 14:53:38.2	359.460	-0.340	0.090	-0.700
2020/01/31 14:53:38.3	359.450	-0.330	0.030	-0.700
2020/01/31 14:53:38.4	359.430	-0.310	-0.030	-0.700
2020/01/31 14:53:38.5	359.420	-0.300	-0.090	-0.710
2020/01/31 14:53:38.6	359.400	-0.290	-0.150	-0.710
2020/01/31 14:53:38.7	359.400	-0.280	-0.200	-0.710
2020/01/31 14:53:38.8	359.380	-0.270	-0.260	-0.710
2020/01/31 14:53:38.9	359.360	-0.260	-0.310	-0.710
2020/01/31 14:53:39.0	359.340	-0.250	-0.360	-0.710
2020/01/31 14:53:39.1	359.320	-0.240	-0.410	-0.720
2020/01/31 14:53:39.2	359.300	-0.230	-0.460	-0.720
2020/01/31 14:53:39.3	359.290	-0.230	-0.500	-0.720
2020/01/31 14:53:39.4	359.270	-0.220	-0.540	-0.720
2020/01/31 14:53:39.5	359.250	-0.220	-0.570	-0.730
2020/01/31 14:53:39.6	359.240	-0.220	-0.600	-0.730
2020/01/31 14:53:39.7	359.220	-0.220	-0.630	-0.730
2020/01/31 14:53:39.8	359.200	-0.210	-0.660	-0.740
2020/01/31 14:53:39.9	359.190	-0.210	-0.680	-0.740
2020/01/31 14:53:40.0	359.180	-0.210	-0.690	-0.740
2020/01/31 14:53:40.1	359.170	-0.210	-0.700	-0.740
2020/01/31 14:53:40.2	359.160	-0.210	-0.710	-0.740
2020/01/31 14:53:40.3	359.150	-0.200	-0.710	-0.740
2020/01/31 14:53:40.4	359.140	-0.200	-0.710	-0.740
2020/01/31 14:53:40.5	359.130	-0.200	-0.700	-0.740
2020/01/31 14:53:40.6	359.120	-0.190	-0.690	-0.730
2020/01/31 14:53:40.7	359.120	-0.190	-0.680	-0.730
2020/01/31 14:53:40.8	359.120	-0.180	-0.660	-0.720
2020/01/31 14:53:40.9	359.110	-0.170	-0.650	-0.700
2020/01/31 14:53:41.0	359.110	-0.160	-0.620	-0.690
2020/01/31 14:53:41.1	359.100	-0.150	-0.600	-0.670
2020/01/31 14:53:41.2	359.100	-0.140	-0.580	-0.650
2020/01/31 14:53:41.3	359.090	-0.130	-0.550	-0.620
2020/01/31 14:53:41.4	359.090	-0.110	-0.520	-0.590
2020/01/31 14:53:41.5	359.080	-0.090	-0.500	-0.560
2020/01/31 14:53:41.6	359.080	-0.080	-0.470	-0.520
2020/01/31 14:53:41.7	359.070	-0.050	-0.430	-0.470
2020/01/31 14:53:41.8	359.070	-0.030	-0.410	-0.430
2020/01/31 14:53:41.9	359.060	-0.010	-0.380	-0.380
2020/01/31 14:53:42.0	359.060	0.020	-0.350	-0.330
2020/01/31 14:53:42.1	359.050	0.040	-0.330	-0.280
2020/01/31 14:53:42.2	359.050	0.070	-0.300	-0.230
2020/01/31 14:53:42.3	359.040	0.090	-0.280	-0.180
2020/01/31 14:53:42.4	359.030	0.120	-0.260	-0.130
2020/01/31 14:53:42.5	359.030	0.150	-0.240	-0.070
2020/01/31 14:53:42.6	359.020	0.180	-0.230	-0.020
2020/01/31 14:53:42.7	359.010	0.210	-0.220	0.030
2020/01/31 14:53:42.8	359.010	0.240	-0.210	0.080
2020/01/31 14:53:42.9	359.000	0.260	-0.200	0.120
2020/01/31 14:53:43.0	359.000	0.290	-0.200	0.160
2020/01/31 14:53:43.1	358.990	0.320	-0.200	0.200
2020/01/31 14:53:43.2	358.990	0.340	-0.200	0.240
2020/01/31 14:53:43.3	358.980	0.370	-0.200	0.280
2020/01/31 14:53:43.4	358.980	0.390	-0.210	0.310
2020/01/31 14:53:43.5	358.980	0.420	-0.220	0.340
2020/01/31 14:53:43.6	358.980	0.440	-0.230	0.370
2020/01/31 14:53:43.7	358.970	0.460	-0.240	0.390
2020/01/31 14:53:43.8	358.970	0.470	-0.250	0.410
2020/01/31 14:53:43.9	358.970	0.490	-0.270	0.430
2020/01/31 14:53:44.0	358.980	0.500	-0.290	0.440
2020/01/31 14:53:44.1	358.980	0.510	-0.310	0.450
2020/01/31 14:53:44.2	358.990	0.520	-0.330	0.460
2020/01/31 14:53:44.3	359.000	0.530	-0.360	0.460
2020/01/31 14:53:44.4	359.010	0.540	-0.380	0.460
2020/01/31 14:53:44.5	359.020	0.540	-0.410	0.460
2020/01/31 14:53:44.6	359.030	0.540	-0.440	0.450
2020/01/31 14:53:44.7	359.040	0.530	-0.460	0.440
2020/01/31 14:53:44.8	359.060	0.530	-0.490	0.430
2020/01/31 14:53:44.9	359.080	0.520	-0.520	0.410
2020/01/31 14:53:45.0	359.100	0.510	-0.540	0.390
2020/01/31 14:53:45.1	359.120	0.490	-0.570	0.370
2020/01/31 14:53:45.2	359.140	0.480	-0.590	0.350
2020/01/31 14:53:45.3	359.160	0.460	-0.610	0.320
2020/01/31 14:53:45.4	359.180	0.440	-0.640	0.290
2020/01/31 14:53:45.5	359.200	0.410	-0.650	0.260
2020/01/31 14:53:45.6	359.220	0.380	-0.670	0.230
2020/01/31 14:53:45.7	359.230	0.350	-0.670	0.190
2020/01/31 14:53:45.8	359.250	0.320	-0.680	0.150
2020/01/31 14:53:45.9	359.260	0.290	-0.690	0.120
2020/01/31 14:53:46.0	359.280	0.250	-0.690	0.080
2020/01/31 14:53:46.1	359.290	0.220	-0.680	0.040
2020/01/31 14:53:46.2	359.310	0.180	-0.670	0.000
2020/01/31 14:53:46.3	359.320	0.140	-0.660	-0.040
2020/01/31 14:53:46.4	359.330	0.100	-0.640	-0.080
2020/01/31 14:53:46.5	359.340	0.060	-0.620	-0.120
2020/01/31 14:53:46.6	359.340	0.010	-0.590	-0.150
2020/01/31 14:53:46.7	359.350	-0.030	-0.560	-0.190
2020/01/31 14:53:46.8	359.350	-0.070	-0.520	-0.230
2020/01/31 14:53:46.9	359.360	-0.110	-0.480	-0.260
2020/01/31 14:53:47.0	359.360	-0.150	-0.440	-0.290
2020/01/31 14:53:47.1	359.360	-0.190	-0.390	-0.320
2020/01/31 14:53:47.2	359.360	-0.230	-0.340	-0.350
2020/01/31 14:53:47.3	359.370	-0.270	-0.290	-0.380
2020/01/31 14:53:47.4	359.370	-0.310	-0.240	-0.400
2020/01/31 14:53:47.5	359.370	-0.340	-0.190	-0.420
2020/01/31 14:53:47.6	359.370	-0.370	-0.140	-0.440
2020/01/31 14:53:47.7	359.380	-0.400	-0.080	-0.460
2020/01/31 14:53:47.8	359.380	-0.430	-0.030	-0.480
2020/01/31 14:53:47.9	359.380	-0.460	0.020	-0.490
2020/01/31 14:53:48.0	359.380	-0.480	0.070	-0.500
2020/01/31 14:53:48.1	359.380	-0.490	0.110	-0.510
2020/01/31 14:53:48.2	359.380	-0.510	0.150	-0.510
2020/01/31 14:53:48.3	359.380	-0.520	0.190	-0.520
2020/01/31 14:53:48.4	359.380	-0.530	0.230	-0.520
2020/01/31 14:53:48.5	359.380	-0.530	0.260	-0.510
2020/01/31 14:53:48.6	359.380	-0.530	0.280	-0.510
2020/01/31 14:53:48.7	359.370	-0.530	0.300	-0.500
2020/01/31 14:53:48.8	359.370	-0.520	0.320	-0.490
2020/01/31 14:53:48.9	359.360	-0.510	0.330	-0.480
2020/01/31 14:53:49.0	359.360	-0.490	0.330	-0.470
2020/01/31 14:53:49.1	359.360	-0.470	0.340	-0.450
2020/01/31 14:53:49.2	359.350	-0.450	0.340	-0.430
2020/01/31 14:53:49.3	359.340	-0.430	0.330	-0.410
2020/01/31 14:53:49.4	359.340	-0.400	0.320	-0.390
2020/01/31 14:53:49.5	359.330	-0.370	0.310	-0.360
2020/01/31 14:53:49.6	359.320	-0.330	0.290	-0.340
2020/01/31 14:53:49.7	359.310	-0.300	0.280	-0.310
2020/01/31 14:53:49.8	359.300	-0.260	0.250	-0.280
2020/01/31 14:53:49.9	359.290	-0.220	0.230	-0.250
2020/01/31 14:53:50.0	359.280	-0.180	0.200	-0.220
2020/01/31 14:53:50.1	359.270	-0.140	0.180	-0.190
2020/01/31 14:53:50.2	359.250	-0.100	0.150	-0.160
2020/01/31 14:53:50.3	359.240	-0.060	0.120	-0.130
2020/01/31 14:53:50.4	359.220	-0.020	0.090	-0.100
2020/01/31 14:53:50.5	359.210	0.020	0.060	-0.070
2020/01/31 14:53:50.6	359.190	0.050	0.030	-0.040
2020/01/31 14:53:50.7	359.180	0.090	0.010	-0.010
2020/01/31 14:53:50.8	359.160	0.120	-0.020	0.020
2020/01/31 14:53:50.9	359.140	0.150	-0.040	0.050
2020/01/31 14:53:51.0	359.120	0.180	-0.070	0.080
2020/01/31 14:53:51.1	359.100	0.210	-0.090	0.110
2020/01/31 14:53:51.2	359.080	0.230	-0.110	0.130
2020/01/31 14:53:51.3	359.050	0.250	-0.130	0.160
2020/01/31 14:53:51.4	359.030	0.270	-0.150	0.180
2020/01/31 14:53:51.5	359.010	0.280	-0.170	0.200
2020/01/31 14:53:51.6	358.990	0.290	-0.180	0.220
2020/01/31 14:53:51.7	358.960	0.300	-0.200	0.230
2020/01/31 14:53:51.8	358.940	0.300	-0.210	0.240
2020/01/31 14:53:51.9	358.920	0.300	-0.220	0.250
2020/01/31 14:53:52.0	358.900	0.300	-0.230	0.260
2020/01/31 14:53:52.1	358.880	0.290	-0.240	0.270
2020/01/31 14:53:52.2	358.870	0.290	-0.250	0.270
2020/01/31 14:53:52.3	358.850	0.270	-0.250	0.280
2020/01/31 14:53:52.4	358.830	0.260	-0.260	0.280
2020/01/31 14:53:52.5	358.820	0.250	-0.270	0.270
2020/01/31 14:53:52.6	358.810	0.230	-0.280	0.270
2020/01/31 14:53:52.7	358.800	0.220	-0.290	0.260
2020/01/31 14:53:52.8	358.790	0.200	-0.290	0.260
2020/01/31 14:53:52.9	358.780	0.180	-0.300	0.250
2020/01/31 14:53:53.0	358.780	0.170	-0.310	0.240
2020/01/31 14:53:53.1	358.780	0.150	-0.320	0.220
2020/01/31 14:53:53.2	358.770	0.130	-0.330	0.210
2020/01/31 14:53:53.3	358.770	0.120	-0.330	0.200
2020/01/31 14:53:53.4	358.780	0.100	-0.340	0.180
2020/01/31 14:53:53.5	358.780	0.090	-0.350	0.170
2020/01/31 14:53:53.6	358.780	0.080	-0.350	0.150
2020/01/31 14:53:53.7	358.780	0.070	-0.360	0.130
2020/01/31 14:53:53.8	358.780	0.060	-0.360	0.110
2020/01/31 14:53:53.9	358.780	0.050	-0.370	0.090
2020/01/31 14:53:54.0	358.790	0.050	-0.370	0.070
2020/01/31 14:53:54.1	358.790	0.040	-0.370	0.060
2020/01/31 14:53:54.2	358.800	0.040	-0.380	0.040
2020/01/31 14:53:54.3	358.800	0.040	-0.380	0.020
2020/01/31 14:53:54.4	358.810	0.040	-0.380	0.000
2020/01/31 14:53:54.5	358.810	0.040	-0.390	-0.020
2020/01/31 14:53:54.6	358.820	0.040	-0.390	-0.040
2020/01/31 14:53:54.7	358.820	0.050	-0.390	-0.060
2020/01/31 14:53:54.8	358.830	0.050	-0.390	-0.080
2020/01/31 14:53:54.9	358.830	0.060	-0.400	-0.100
2020/01/31 14:53:55.0	358.840	0.060	-0.400	-0.110
2020/01/31 14:53:55.1	358.850	0.070	-0.400	-0.130
2020/01/31 14:53:55.2	358.860	0.070	-0.410	-0.150
2020/01/31 14:53:55.3	358.880	0.080	-0.410	-0.160
2020/01/31 14:53:55.4	358.890	0.090	-0.410	-0.180
2020/01/31 14:53:55.5	358.910	0.090	-0.420	-0.190
2020/01/31 14:53:55.6	358.920	0.100	-0.430	-0.210
2020/01/31 14:53:55.7	358.930	0.100	-0.430	-0.220
2020/01/31 14:53:55.8	358.950	0.100	-0.430	-0.240
2020/01/31 14:53:55.9	358.970	0.110	-0.440	-0.250
2020/01/31 14:53:56.0	358.990	0.110	-0.440	-0.270
2020/01/31 14:53:56.1	359.010	0.110	-0.450	-0.280
2020/01/31 14:53:56.2	359.030	0.100	-0.460	-0.290
2020/01/31 14:53:56.3	359.050	0.100	-0.460	-0.310
2020/01/31 14:53:56.4	359.070	0.100	-0.470	-0.320
2020/01/31 14:53:56.5	359.090	0.090	-0.480	-0.340
2020/01/31 14:53:56.6	359.110	0.080	-0.490	-0.360
2020/01/31 14:53:56.7	359.120	0.070	-0.490	-0.380
2020/01/31 14:53:56.8	359.140	0.060	-0.500	-0.390
2020/01/31 14:53:56.9	359.160	0.050	-0.510	-0.410
2020/01/31 14:53:57.0	359.180	0.040	-0.510	-0.430
2020/01/31 14:53:57.1	359.200	0.030	-0.510	-0.440
2020/01/31 14:53:57.2	359.220	0.020	-0.520	-0.460
2020/01/31 14:53:57.3	359.230	0.000	-0.520	-0.480
2020/01/31 14:53:57.4	359.250	-0.020	-0.520	-0.490
2020/01/31 14:53:57.5	359.260	-0.030	-0.520	-0.500
2020/01/31 14:53:57.6	359.270	-0.050	-0.520	-0.520
2020/01/31 14:53:57.7	359.300	-0.060	-0.510	-0.530
2020/01/31 14:53:57.8	359.310	-0.080	-0.510	-0.540
2020/01/31 14:53:57.9	359.310	-0.100	-0.500	-0.550
2020/01/31 14:53:58.0	359.320	-0.120	-0.490	-0.550
2020/01/31 14:53:58.1	359.330	-0.140	-0.480	-0.560
2020/01/31 14:53:58.2	359.330	-0.150	-0.460	-0.560
2020/01/31 14:53:58.3	359.330	-0.170	-0.450	-0.570
2020/01/31 14:53:58.4	359.340	-0.190	-0.430	-0.570
2020/01/31 14:53:58.5	359.340	-0.200	-0.410	-0.570
2020/01/31 14:53:58.6	359.340	-0.220	-0.390	-0.570
2020/01/31 14:53:58.7	359.330	-0.240	-0.370	-0.570
2020/01/31 14:53:58.8	359.320	-0.250	-0.350	-0.560
2020/01/31 14:53:58.9	359.320	-0.260	-0.320	-0.560
2020/01/31 14:53:59.0	359.310	-0.280	-0.300	-0.550
2020/01/31 14:53:59.1	359.310	-0.290	-0.280	-0.540
2020/01/31 14:53:59.2	359.300	-0.300	-0.250	-0.530
2020/01/31 14:53:59.3	359.290	-0.300	-0.230	-0.520
2020/01/31 14:53:59.4	359.290	-0.310	-0.210	-0.510
2020/01/31 14:53:59.5	359.280	-0.310	-0.180	-0.490
2020/01/31 14:53:59.6	359.270	-0.310	-0.160	-0.480
2020/01/31 14:53:59.7	359.260	-0.310	-0.140	-0.470
2020/01/31 14:53:59.8	359.250	-0.310	-0.120	-0.450
2020/01/31 14:53:59.9	359.240	-0.300	-0.110	-0.430
2020/01/31 14:54:00.0	359.230	-0.290	-0.090	-0.410
2020/01/31 14:54:00.1	359.220	-0.280	-0.080	-0.390
2020/01/31 14:54:00.2	359.210	-0.260	-0.070	-0.370
2020/01/31 14:54:00.3	359.200	-0.250	-0.060	-0.350
2020/01/31 14:54:00.4	359.190	-0.220	-0.050	-0.330
2020/01/31 14:54:00.5	359.180	-0.200	-0.050	-0.310
2020/01/31 14:54:00.6	359.170	-0.180	-0.050	-0.280
2020/01/31 14:54:00.7	359.160	-0.150	-0.050	-0.250
2020/01/31 14:54:00.8	359.150	-0.120	-0.050	-0.220
2020/01/31 14:54:00.9	359.140	-0.090	-0.050	-0.190
2020/01/31 14:54:01.0	359.120	-0.050	-0.050	-0.160
2020/01/31 14:54:01.1	359.110	-0.020	-0.060	-0.120
2020/01/31 14:54:01.2	359.090	0.020	-0.070	-0.090
2020/01/31 14:54:01.3	359.080	0.050	-0.070	-0.060
2020/01/31 14:54:01.4	359.060	0.090	-0.080	-0.020
2020/01/31 14:54:01.5	359.050	0.120	-0.090	0.010
2020/01/31 14:54:01.6	359.040	0.160	-0.110	0.040
2020/01/31 14:54:01.7	359.010	0.190	-0.120	0.070
2020/01/31 14:54:01.8	359.000	0.230	-0.130	0.100
2020/01/31 14:54:01.9	358.990	0.260	-0.140	0.120
2020/01/31 14:54:02.0	358.980	0.290	-0.160	0.140
2020/01/31 14:54:02.1	358.970	0.310	-0.180	0.160
2020/01/31 14:54:02.2	358.960	0.340	-0.190	0.170
2020/01/31 14:54:02.3	358.950	0.360	-0.210	0.190
2020/01/31 14:54:02.4	358.950	0.380	-0.230	0.190
2020/01/31 14:54:02.5	358.950	0.400	-0.240	0.200
2020/01/31 14:54:02.6	358.940	0.410	-0.260	0.190
2020/01/31 14:54:02.7	358.950	0.420	-0.280	0.190
2020/01/31 14:54:02.8	358.940	0.430	-0.290	0.180
2020/01/31 14:54:02.9	358.940	0.430	-0.300	0.170
2020/01/31 14:54:03.0	358.940	0.430	-0.320	0.160
2020/01/31 14:54:03.1	358.940	0.430	-0.330	0.150
2020/01/31 14:54:03.2	358.950	0.420	-0.340	0.130
2020/01/31 14:54:03.3	358.950	0.410	-0.350	0.110
2020/01/31 14:54:03.4	358.950	0.400	-0.350	0.090
2020/01/31 14:54:03.5	358.950	0.380	-0.360	0.070
2020/01/31 14:54:03.6	358.960	0.370	-0.360	0.050
2020/01/31 14:54:03.7	358.980	0.350	-0.350	0.030
2020/01/31 14:54:03.8	358.980	0.320	-0.350	0.010
2020/01/31 14:54:03.9	358.990	0.300	-0.340	-0.010
2020/01/31 14:54:04.0	359.000	0.280	-0.330	-0.030
2020/01/31 14:54:04.1	359.010	0.250	-0.320	-0.050
2020/01/31 14:54:04.2	359.020	0.220	-0.310	-0.070
2020/01/31 14:54:04.3	359.030	0.190	-0.290	-0.090
2020/01/31 14:54:04.4	359.040	0.170	-0.280	-0.110
2020/01/31 14:54:04.5	359.050	0.140	-0.260	-0.120
2020/01/31 14:54:04.6	359.070	0.110	-0.240	-0.140
2020/01/31 14:54:04.7	359.080	0.080	-0.220	-0.160
2020/01/31 14:54:04.8	359.100	0.050	-0.190	-0.170
2020/01/31 14:54:04.9	359.110	0.020	-0.170	-0.190
2020/01/31 14:54:05.0	359.130	-0.000	-0.140	-0.200
2020/01/31 14:54:05.1	359.150	-0.030	-0.120	-0.210
2020/01/31 14:54:05.2	359.160	-0.060	-0.090	-0.230
2020/01/31 14:54:05.3	359.180	-0.080	-0.060	-0.240
2020/01/31 14:54:05.4	359.200	-0.100	-0.040	-0.250
2020/01/31 14:54:05.5	359.220	-0.130	-0.010	-0.270
2020/01/31 14:54:05.6	359.230	-0.150	0.010	-0.280
2020/01/31 14:54:05.7	359.260	-0.170	0.040	-0.290
2020/01/31 14:54:05.8	359.270	-0.180	0.060	-0.310
2020/01/31 14:54:05.9	359.290	-0.200	0.080	-0.320
2020/01/31 14:54:06.0	359.300	-0.210	0.090	-0.330
2020/01/31 14:54:06.1	359.310	-0.230	0.110	-0.340
2020/01/31 14:54:06.2	359.320	-0.240	0.130	-0.350
2020/01/31 14:54:06.3	359.320	-0.250	0.140	-0.360
2020/01/31 14:54:06.4	359.330	-0.260	0.150	-0.370
2020/01/31 14:54:06.5	359.330	-0.270	0.150	-0.370
2020/01/31 14:54:06.6	359.330	-0.270	0.160	-0.380
2020/01/31 14:54:06.7	359.340	-0.280	0.160	-0.380
2020/01/31 14:54:06.8	359.330	-0.280	0.160	-0.380
2020/01/31 14:54:06.9	359.330	-0.280	0.160	-0.370
2020/01/31 14:54:07.0	359.320	-0.280	0.160	-0.370
2020/01/31 14:54:07.1	359.300	-0.280	0.150	-0.360
2020/01/31 14:54:07.2	359.290	-0.280	0.140	-0.360
2020/01/31 14:54:07.3	359.280	-0.280	0.130	-0.350
2020/01/31 14:54:07.4	359.260	-0.280	0.120	-0.340
2020/01/31 14:54:07.5	359.240	-0.280	0.110	-0.330
2020/01/31 14:54:07.6	359.230	-0.280	0.090	-0.310
2020/01/31 14:54:07.7	359.200	-0.270	0.070	-0.300
2020/01/31 14:54:07.8	359.190	-0.270	0.050	-0.290
2020/01/31 14:54:07.9	359.170	-0.260	0.030	-0.280
2020/01/31 14:54:08.0	359.160	-0.260	0.010	-0.270
2020/01/31 14:54:08.1	359.140	-0.250	-0.020	-0.260
2020/01/31 14:54:08.2	359.130	-0.240	-0.050	-0.250
2020/01/31 14:54:08.3	359.120	-0.230	-0.080	-0.240
2020/01/31 14:54:08.4	359.100	-0.220	-0.110	-0.240
2020/01/31 14:54:08.5	359.090	-0.210	-0.140	-0.230
2020/01/31 14:54:08.6	359.080	-0.200	-0.170	-0.230
2020/01/31 14:54:08.7	359.080	-0.190	-0.210	-0.230
2020/01/31 14:54:08.8	359.070	-0.180	-0.240	-0.230
2020/01/31 14:54:08.9	359.060	-0.170	-0.280	-0.230
2020/01/31 14:54:09.0	359.060	-0.150	-0.310	-0.230
2020/01/31 14:54:09.1	359.050	-0.140	-0.350	-0.230
2020/01/31 14:54:09.2	359.050	-0.120	-0.380	-0.230
2020/01/31 14:54:09.3	359.040	-0.110	-0.410	-0.230
2020/01/31 14:54:09.4	359.040	-0.090	-0.440	-0.230
2020/01/31 14:54:09.5	359.030	-0.080	-0.470	-0.230
2020/01/31 14:54:09.6	359.030	-0.060	-0.500	-0.240
2020/01/31 14:54:09.7	359.010	-0.040	-0.530	-0.240
2020/01/31 14:54:09.8	359.010	-0.020	-0.550	-0.240
2020/01/31 14:54:09.9	359.010	-0.000	-0.570	-0.240
2020/01/31 14:54:10.0	359.000	0.010	-0.590	-0.240
2020/01/31 14:54:10.1	359.000	0.030	-0.610	-0.230
2020/01/31 14:54:10.2	358.990	0.050	-0.620	-0.230
2020/01/31 14:54:10.3	358.980	0.070	-0.640	-0.220
2020/01/31 14:54:10.4	358.980	0.080	-0.650	-0.220
2020/01/31 14:54:10.5	358.970	0.100	-0.650	-0.210
2020/01/31 14:54:10.6	358.960	0.120	-0.660	-0.190
2020/01/31 14:54:10.7	358.960	0.130	-0.660	-0.180
2020/01/31 14:54:10.8	358.950	0.150	-0.670	-0.170
2020/01/31 14:54:10.9	358.940	0.160	-0.670	-0.160
2020/01/31 14:54:11.0	358.930	0.170	-0.670	-0.140
2020/01/31 14:54:11.1	358.930	0.190	-0.670	-0.130
2020/01/31 14:54:11.2	358.930	0.200	-0.670	-0.110
2020/01/31 14:54:11.3	358.920	0.210	-0.670	-0.100
2020/01/31 14:54:11.4	358.920	0.220	-0.670	-0.090
2020/01/31 14:54:11.5	358.920	0.230	-0.660	-0.080
2020/01/31 14:54:11.6	358.930	0.240	-0.660	-0.070
2020/01/31 14:54:11.7	358.930	0.250	-0.660	-0.070
2020/01/31 14:54:11.8	358.930	0.250	-0.660	-0.060
2020/01/31 14:54:11.9	358.940	0.260	-0.670	-0.060
2020/01/31 14:54:12.0	358.950	0.260	-0.670	-0.060
2020/01/31 14:54:12.1	358.970	0.270	-0.670	-0.070
2020/01/31 14:54:12.2	358.980	0.270	-0.670	-0.070
2020/01/31 14:54:12.3	358.990	0.270	-0.670	-0.080
2020/01/31 14:54:12.4	359.010	0.270	-0.670	-0.090
2020/01/31 14:54:12.5	359.030	0.270	-0.670	-0.100
2020/01/31 14:54:12.6	359.050	0.270	-0.670	-0.110
2020/01/31 14:54:12.7	359.070	0.270	-0.670	-0.130
2020/01/31 14:54:12.8	359.080	0.260	-0.670	-0.140
2020/01/31 14:54:12.9	359.100	0.260	-0.670	-0.150
2020/01/31 14:54:13.0	359.120	0.250	-0.660	-0.170
2020/01/31 14:54:13.1	359.140	0.240	-0.650	-0.180
2020/01/31 14:54:13.2	359.160	0.230	-0.650	-0.200
2020/01/31 14:54:13.3	359.180	0.220	-0.640	-0.210
2020/01/31 14:54:13.4	359.210	0.210	-0.630	-0.230
2020/01/31 14:54:13.5	359.230	0.200	-0.610	-0.240
2020/01/31 14:54:13.6	359.250	0.180	-0.600	-0.260
2020/01/31 14:54:13.7	359.270	0.170	-0.580	-0.270
2020/01/31 14:54:13.8	359.290	0.150	-0.560	-0.290
2020/01/31 14:54:13.9	359.320	0.130	-0.540	-0.300
2020/01/31 14:54:14.0	359.340	0.110	-0.520	-0.320
2020/01/31 14:54:14.1	359.370	0.090	-0.500	-0.330
2020/01/31 14:54:14.2	359.390	0.070	-0.470	-0.350
2020/01/31 14:54:14.3	359.420	0.050	-0.450	-0.360
2020/01/31 14:54:14.4	359.440	0.030	-0.420	-0.380
2020/01/31 14:54:14.5	359.470	0.010	-0.400	-0.390
2020/01/31 14:54:14.6	359.500	-0.010	-0.370	-0.410
2020/01/31 14:54:14.7	359.530	-0.030	-0.340	-0.420
2020/01/31 14:54:14.8	359.550	-0.050	-0.310	-0.430
2020/01/31 14:54:14.9	359.570	-0.070	-0.280	-0.440
2020/01/31 14:54:15.0	359.590	-0.090	-0.250	-0.450
2020/01/31 14:54:15.1	359.610	-0.110	-0.210	-0.450
2020/01/31 14:54:15.2	359.620	-0.120	-0.180	-0.460
2020/01/31 14:54:15.3	359.630	-0.140	-0.140	-0.460
2020/01/31 14:54:15.4	359.640	-0.160	-0.100	-0.460
2020/01/31 14:54:15.5	359.650	-0.170	-0.060	-0.450
2020/01/31 14:54:15.6	359.650	-0.190	-0.020	-0.440
2020/01/31 14:54:15.7	359.640	-0.200	0.020	-0.430
2020/01/31 14:54:15.8	359.640	-0.210	0.070	-0.420
2020/01/31 14:54:15.9	359.630	-0.220	0.110	-0.400
2020/01/31 14:54:16.0	359.620	-0.220	0.160	-0.370
2020/01/31 14:54:16.1	359.600	-0.220	0.210	-0.340
2020/01/31 14:54:16.2	359.580	-0.230	0.260	-0.310
2020/01/31 14:54:16.3	359.560	-0.220	0.310	-0.270
2020/01/31 14:54:16.4	359.540	-0.220	0.360	-0.230
2020/01/31 14:54:16.5	359.510	-0.210	0.400	-0.180
2020/01/31 14:54:16.6	359.480	-0.210	0.450	-0.140
2020/01/31 14:54:16.7	359.450	-0.190	0.500	-0.090
2020/01/31 14:54:16.8	359.420	-0.180	0.540	-0.040
2020/01/31 14:54:16.9	359.390	-0.160	0.580	0.000
2020/01/31 14:54:17.0	359.360	-0.140	0.610	0.050
2020/01/31 14:54:17.1	359.330	-0.120	0.640	0.090
2020/01/31 14:54:17.2	359.310	-0.100	0.660	0.130
2020/01/31 14:54:17.3	359.290	-0.080	0.680	0.170
2020/01/31 14:54:17.4	359.260	-0.050	0.690	0.210
2020/01/31 14:54:17.5	359.250	-0.020	0.690	0.240
2020/01/31 14:54:17.6	359.230	0.010	0.680	0.260
2020/01/31 14:54:17.7	359.200	0.040	0.670	0.280
2020/01/31 14:54:17.8	359.190	0.070	0.650	0.300
2020/01/31 14:54:17.9	359.190	0.100	0.620	0.310
2020/01/31 14:54:18.0	359.180	0.130	0.580	0.320
2020/01/31 14:54:18.1	359.180	0.160	0.530	0.320
2020/01/31 14:54:18.2	359.180	0.180	0.480	0.320
2020/01/31 14:54:18.3	359.180	0.210	0.430	0.310
2020/01/31 14:54:18.4	359.170	0.230	0.370	0.300
2020/01/31 14:54:18.5	359.170	0.250	0.300	0.290
2020/01/31 14:54:18.6	359.170	0.270	0.240	0.270
2020/01/31 14:54:18.7	359.150	0.280	0.170	0.250
2020/01/31 14:54:18.8	359.140	0.290	0.100	0.220
2020/01/31 14:54:18.9	359.130	0.300	0.030	0.190
2020/01/31 14:54:19.0	359.130	0.300	-0.040	0.160
2020/01/31 14:54:19.1	359.110	0.290	-0.110	0.120
2020/01/31 14:54:19.2	359.100	0.290	-0.180	0.080
2020/01/31 14:54:19.3	359.090	0.280	-0.250	0.040
2020/01/31 14:54:19.4	359.080	0.260	-0.310	-0.010
2020/01/31 14:54:19.5	359.060	0.240	-0.380	-0.060
2020/01/31 14:54:19.6	359.050	0.220	-0.440	-0.110
2020/01/31 14:54:19.7	359.030	0.200	-0.490	-0.170
2020/01/31 14:54:19.8	359.010	0.170	-0.540	-0.220
2020/01/31 14:54:19.9	359.000	0.130	-0.590	-0.280
2020/01/31 14:54:20.0	358.980	0.100	-0.630	-0.330
2020/01/31 14:54:20.1	358.970	0.060	-0.670	-0.390
2020/01/31 14:54:20.2	358.950	0.020	-0.700	-0.450
2020/01/31 14:54:20.3	358.940	-0.020	-0.720	-0.500
2020/01/31 14:54:20.4	358.930	-0.060	-0.750	-0.560
2020/01/31 14:54:20.5	358.920	-0.110	-0.760	-0.620
2020/01/31 14:54:20.6	358.910	-0.150	-0.770	-0.680
2020/01/31 14:54:20.7	358.910	-0.190	-0.780	-0.730
2020/01/31 14:54:20.8	358.900	-0.230	-0.790	-0.790
2020/01/31 14:54:20.9	358.900	-0.280	-0.790	-0.840
2020/01/31 14:54:21.0	358.900	-0.310	-0.790	-0.890
2020/01/31 14:54:21.1	358.900	-0.350	-0.790	-0.940
2020/01/31 14:54:21.2	358.910	-0.380	-0.780	-0.990
2020/01/31 14:54:21.3	358.910	-0.420	-0.770	-1.040
2020/01/31 14:54:21.4	358.920	-0.440	-0.760	-1.090
2020/01/31 14:54:21.5	358.930	-0.470	-0.750	-1.130
2020/01/31 14:54:21.6	358.940	-0.490	-0.730	-1.180
2020/01/31 14:54:21.7	358.950	-0.510	-0.710	-1.220
2020/01/31 14:54:21.8	358.970	-0.520	-0.690	-1.250
2020/01/31 14:54:21.9	358.980	-0.530	-0.670	-1.290
2020/01/31 14:54:22.0	359.000	-0.540	-0.640	-1.320
2020/01/31 14:54:22.1	359.020	-0.540	-0.620	-1.350
2020/01/31 14:54:22.2	359.040	-0.540	-0.590	-1.380
2020/01/31 14:54:22.3	359.050	-0.530	-0.560	-1.410
2020/01/31 14:54:22.4	359.070	-0.520	-0.530	-1.430
2020/01/31 14:54:22.5	359.090	-0.510	-0.510	-1.440
2020/01/31 14:54:22.6	359.110	-0.490	-0.480	-1.460
2020/01/31 14:54:22.7	359.150	-0.470	-0.450	-1.470
2020/01/31 14:54:22.8	359.170	-0.450	-0.420	-1.470
2020/01/31 14:54:22.9	359.190	-0.420	-0.400	-1.470
2020/01/31 14:54:23.0	359.210	-0.390	-0.370	-1.460
2020/01/31 14:54:23.1	359.230	-0.360	-0.350	-1.450
2020/01/31 14:54:23.2	359.240	-0.330	-0.320	-1.430
2020/01/31 14:54:23.3	359.260	-0.290	-0.300	-1.410
2020/01/31 14:54:23.4	359.270	-0.250	-0.280	-1.380
2020/01/31 14:54:23.5	359.290	-0.220	-0.270	-1.350
2020/01/31 14:54:23.6	359.300	-0.180	-0.250	-1.310
2020/01/31 14:54:23.7	359.300	-0.140	-0.240	-1.270
2020/01/31 14:54:23.8	359.310	-0.090	-0.230	-1.230
2020/01/31 14:54:23.9	359.320	-0.050	-0.220	-1.190
2020/01/31 14:54:24.0	359.330	-0.010	-0.220	-1.150
2020/01/31 14:54:24.1	359.340	0.030	-0.220	-1.100
2020/01/31 14:54:24.2	359.350	0.070	-0.220	-1.060
2020/01/31 14:54:24.3	359.350	0.110	-0.230	-1.010
2020/01/31 14:54:24.4	359.360	0.150	-0.240	-0.970
2020/01/31 14:54:24.5	359.370	0.180	-0.250	-0.920
2020/01/31 14:54:24.6	359.380	0.220	-0.270	-0.880
2020/01/31 14:54:24.7	359.400	0.260	-0.290	-0.840
2020/01/31 14:54:24.8	359.410	0.290	-0.310	-0.800
2020/01/31 14:54:24.9	359.420	0.330	-0.330	-0.760
2020/01/31 14:54:25.0	359.430	0.360	-0.360	-0.720
2020/01/31 14:54:25.1	359.440	0.390	-0.390	-0.680
2020/01/31 14:54:25.2	359.450	0.420	-0.420	-0.640
2020/01/31 14:54:25.3	359.460	0.450	-0.450	-0.600
2020/01/31 14:54:25.4	359.470	0.470	-0.470	-0.570
2020/01/31 14:54:25.5	359.480	0.500	-0.500	-0.530
2020/01/31 14:54:25.6	359.490	0.520	-0.530	-0.490
2020/01/31 14:54:25.7	359.500	0.540	-0.550	-0.450
2020/01/31 14:54:25.8	359.510	0.560	-0.570	-0.410
2020/01/31 14:54:25.9	359.520	0.570	-0.590	-0.370
2020/01/31 14:54:26.0	359.520	0.580	-0.610	-0.330
2020/01/31 14:54:26.1	359.520	0.590	-0.620	-0.290
2020/01/31 14:54:26.2	359.520	0.600	-0.630	-0.250
2020/01/31 14:54:26.3	359.520	0.600	-0.640	-0.210
2020/01/31 14:54:26.4	359.520	0.600	-0.640	-0.170
2020/01/31 14:54:26.5	359.510	0.600	-0.640	-0.130
2020/01/31 14:54:26.6	359.500	0.590	-0.630	-0.080
2020/01/31 14:54:26.7	359.490	0.580	-0.620	-0.040
2020/01/31 14:54:26.8	359.480	0.570	-0.600	-0.000
2020/01/31 14:54:26.9	359.460	0.560	-0.580	0.040
2020/01/31 14:54:27.0	359.440	0.540	-0.550	0.070
2020/01/31 14:54:27.1	359.420	0.520	-0.520	0.110
2020/01/31 14:54:27.2	359.400	0.500	-0.490	0.140
2020/01/31 14:54:27.3	359.380	0.470	-0.450	0.180
2020/01/31 14:54:27.4	359.360	0.440	-0.410	0.210
2020/01/31 14:54:27.5	359.330	0.410	-0.360	0.230
2020/01/31 14:54:27.6	359.310	0.380	-0.320	0.250
2020/01/31 14:54:27.7	359.280	0.350	-0.260	0.270
2020/01/31 14:54:27.8	359.250	0.310	-0.210	0.290
2020/01/31 14:54:27.9	359.230	0.280	-0.160	0.300
2020/01/31 14:54:28.0	359.200	0.240	-0.100	0.310
2020/01/31 14:54:28.1	359.180	0.210	-0.050	0.310
2020/01/31 14:54:28.2	359.160	0.170	0.000	0.310
2020/01/31 14:54:28.3	359.130	0.130	0.060	0.300
2020/01/31 14:54:28.4	359.110	0.100	0.110	0.290
2020/01/31 14:54:28.5	359.090	0.060	0.160	0.280
2020/01/31 14:54:28.6	359.080	0.020	0.200	0.260
2020/01/31 14:54:28.7	359.060	-0.010	0.240	0.240
2020/01/31 14:54:28.8	359.050	-0.040	0.280	0.210
2020/01/31 14:54:28.9	359.040	-0.070	0.320	0.180
2020/01/31 14:54:29.0	359.030	-0.100	0.350	0.150
2020/01/31 14:54:29.1	359.030	-0.130	0.380	0.120
2020/01/31 14:54:29.2	359.030	-0.150	0.400	0.080
2020/01/31 14:54:29.3	359.030	-0.180	0.410	0.040
2020/01/31 14:54:29.4	359.040	-0.200	0.430	-0.000
2020/01/31 14:54:29.5	359.050	-0.220	0.440	-0.040
2020/01/31 14:54:29.6	359.060	-0.230	0.440	-0.090
2020/01/31 14:54:29.7	359.070	-0.250	0.440	-0.140
2020/01/31 14:54:29.8	359.080	-0.260	0.440	-0.180
2020/01/31 14:54:29.9	359.100	-0.270	0.430	-0.220
2020/01/31 14:54:30.0	359.110	-0.280	0.420	-0.260
2020/01/31 14:54:30.1	359.130	-0.290	0.410	-0.300
2020/01/31 14:54:30.2	359.150	-0.300	0.390	-0.330
2020/01/31 14:54:30.3	359.170	-0.300	0.370	-0.370
2020/01/31 14:54:30.4	359.190	-0.310	0.360	-0.400
2020/01/31 14:54:30.5	359.200	-0.310	0.340	-0.430
2020/01/31 14:54:30.6	359.210	-0.320	0.320	-0.450
2020/01/31 14:54:30.7	359.220	-0.320	0.300	-0.480
2020/01/31 14:54:30.8	359.240	-0.320	0.270	-0.500
2020/01/31 14:54:30.9	359.250	-0.330	0.250	-0.510
2020/01/31 14:54:31.0	359.250	-0.330	0.230	-0.520
2020/01/31 14:54:31.1	359.260	-0.340	0.210	-0.530
2020/01/31 14:54:31.2	359.260	-0.340	0.190	-0.540
2020/01/31 14:54:31.3	359.260	-0.350	0.170	-0.540
2020/01/31 14:54:31.4	359.260	-0.350	0.150	-0.540
2020/01/31 14:54:31.5	359.250	-0.360	0.140	-0.530
2020/01/31 14:54:31.6	359.240	-0.360	0.120	-0.520
2020/01/31 14:54:31.7	359.250	-0.370	0.100	-0.510
2020/01/31 14:54:31.8	359.230	-0.380	0.080	-0.490
2020/01/31 14:54:31.9	359.210	-0.380	0.060	-0.470
2020/01/31 14:54:32.0	359.190	-0.390	0.040	-0.450
2020/01/31 14:54:32.1	359.170	-0.400	0.020	-0.430
2020/01/31 14:54:32.2	359.150	-0.400	0.000	-0.400
2020/01/31 14:54:32.3	359.120	-0.410	-0.020	-0.380
2020/01/31 14:54:32.4	359.100	-0.410	-0.050	-0.350
2020/01/31 14:54:32.5	359.070	-0.410	-0.070	-0.330
2020/01/31 14:54:32.6	359.050	-0.410	-0.100	-0.300
2020/01/31 14:54:32.7	359.020	-0.410	-0.130	-0.280
2020/01/31 14:54:32.8	358.990	-0.410	-0.170	-0.260
2020/01/31 14:54:32.9	358.970	-0.400	-0.210	-0.240
2020/01/31 14:54:33.0	358.950	-0.400	-0.250	-0.220
2020/01/31 14:54:33.1	358.930	-0.380	-0.290	-0.210
2020/01/31 14:54:33.2	358.920	-0.370	-0.340	-0.200
2020/01/31 14:54:33.3	358.910	-0.350	-0.400	-0.190
2020/01/31 14:54:33.4	358.910	-0.330	-0.450	-0.200
2020/01/31 14:54:33.5	358.910	-0.310	-0.510	-0.200
2020/01/31 14:54:33.6	358.910	-0.280	-0.580	-0.210
2020/01/31 14:54:33.7	358.920	-0.250	-0.640	-0.230
2020/01/31 14:54:33.8	358.930	-0.220	-0.710	-0.250
2020/01/31 14:54:33.9	358.950	-0.190	-0.780	-0.270
2020/01/31 14:54:34.0	358.970	-0.150	-0.850	-0.300
2020/01/31 14:54:34.1	358.990	-0.110	-0.920	-0.330
2020/01/31 14:54:34.2	359.020	-0.060	-0.990	-0.370
2020/01/31 14:54:34.3	359.050	-0.020	-1.060	-0.400
2020/01/31 14:54:34.4	359.080	0.030	-1.130	-0.440
2020/01/31 14:54:34.5	359.110	0.080	-1.190	-0.470
2020/01/31 14:54:34.6	359.150	0.130	-1.240	-0.510
2020/01/31 14:54:34.7	359.200	0.180	-1.290	-0.550
2020/01/31 14:54:34.8	359.240	0.220	-1.340	-0.580
2020/01/31 14:54:34.9	359.270	0.270	-1.370	-0.610
2020/01/31 14:54:35.0	359.310	0.320	-1.400	-0.640
2020/01/31 14:54:35.1	359.350	0.360	-1.420	-0.670
2020/01/31 14:54:35.2	359.390	0.400	-1.430	-0.690
2020/01/31 14:54:35.3	359.420	0.440	-1.430	-0.710
2020/01/31 14:54:35.4	359.460	0.480	-1.420	-0.720
2020/01/31 14:54:35.5	359.490	0.510	-1.400	-0.730
2020/01/31 14:54:35.6	359.520	0.540	-1.370	-0.730
2020/01/31 14:54:35.7	359.550	0.560	-1.320	-0.740
2020/01/31 14:54:35.8	359.570	0.580	-1.270	-0.730
2020/01/31 14:54:35.9	359.600	0.600	-1.210	-0.720
2020/01/31 14:54:36.0	359.620	0.610	-1.140	-0.700
2020/01/31 14:54:36.1	359.640	0.610	-1.070	-0.680
2020/01/31 14:54:36.2	359.650	0.610	-0.980	-0.660
2020/01/31 14:54:36.3	359.670	0.600	-0.890	-0.630
2020/01/31 14:54:36.4	359.680	0.590	-0.800	-0.600
2020/01/31 14:54:36.5	359.690	0.570	-0.700	-0.560
2020/01/31 14:54:36.6	359.690	0.550	-0.600	-0.530
2020/01/31 14:54:36.7	359.700	0.520	-0.490	-0.480
2020/01/31 14:54:36.8	359.700	0.490	-0.390	-0.440
2020/01/31 14:54:36.9	359.700	0.450	-0.280	-0.400
2020/01/31 14:54:37.0	359.700	0.410	-0.170	-0.360
2020/01/31 14:54:37.1	359.700	0.370	-0.070	-0.320
2020/01/31 14:54:37.2	359.700	0.320	0.030	-0.280
2020/01/31 14:54:37.3	359.690	0.270	0.130	-0.240
2020/01/31 14:54:37.4	359.690	0.220	0.220	-0.200
2020/01/31 14:54:37.5	359.680	0.170	0.310	-0.170
2020/01/31 14:54:37.6	359.680	0.110	0.390	-0.130
2020/01/31 14:54:37.7	359.670	0.060	0.470	-0.100
2020/01/31 14:54:37.8	359.670	0.000	0.530	-0.080
2020/01/31 14:54:37.9	359.660	-0.050	0.590	-0.050
2020/01/31 14:54:38.0	359.660	-0.100	0.650	-0.030
2020/01/31 14:54:38.1	359.660	-0.150	0.690	-0.010
2020/01/31 14:54:38.2	359.650	-0.200	0.720	0.010
2020/01/31 14:54:38.3	359.650	-0.250	0.750	0.020
2020/01/31 14:54:38.4	359.640	-0.290	0.770	0.040
2020/01/31 14:54:38.5	359.640	-0.330	0.780	0.050
2020/01/31 14:54:38.6	359.630	-0.360	0.780	0.050
2020/01/31 14:54:38.7	359.630	-0.390	0.780	0.060
2020/01/31 14:54:38.8	359.620	-0.420	0.770	0.060
2020/01/31 14:54:38.9	359.620	-0.430	0.750	0.070
2020/01/31 14:54:39.0	359.610	-0.450	0.720	0.070
2020/01/31 14:54:39.1	359.610	-0.460	0.690	0.060
2020/01/31 14:54:39.2	359.610	-0.460	0.640	0.060
2020/01/31 14:54:39.3	359.610	-0.460	0.600	0.050
2020/01/31 14:54:39.4	359.610	-0.450	0.540	0.050
2020/01/31 14:54:39.5	359.610	-0.440	0.490	0.040
2020/01/31 14:54:39.6	359.610	-0.430	0.420	0.020
2020/01/31 14:54:39.7	359.610	-0.400	0.360	0.000
2020/01/31 14:54:39.8	359.610	-0.380	0.290	-0.010
2020/01/31 14:54:39.9	359.620	-0.350	0.210	-0.030
2020/01/31 14:54:40.0	359.620	-0.310	0.130	-0.050
2020/01/31 14:54:40.1	359.630	-0.280	0.050	-0.070
2020/01/31 14:54:40.2	359.640	-0.240	-0.030	-0.090
2020/01/31 14:54:40.3	359.640	-0.190	-0.110	-0.110
2020/01/31 14:54:40.4	359.650	-0.150	-0.200	-0.140
2020/01/31 14:54:40.5	359.660	-0.100	-0.280	-0.160
2020/01/31 14:54:40.6	359.670	-0.050	-0.360	-0.190
2020/01/31 14:54:40.7	359.700	-0.010	-0.430	-0.220
2020/01/31 14:54:40.8	359.710	0.040	-0.500	-0.250
2020/01/31 14:54:40.9	359.720	0.090	-0.570	-0.270
2020/01/31 14:54:41.0	359.730	0.140	-0.630	-0.300
2020/01/31 14:54:41.1	359.740	0.180	-0.690	-0.330
2020/01/31 14:54:41.2	359.760	0.220	-0.740	-0.350
2020/01/31 14:54:41.3	359.770	0.260	-0.780	-0.380
2020/01/31 14:54:41.4	359.780	0.300	-0.820	-0.400
2020/01/31 14:54:41.5	359.790	0.330	-0.850	-0.430
2020/01/31 14:54:41.6	359.810	0.370	-0.870	-0.450
2020/01/31 14:54:41.7	359.830	0.390	-0.890	-0.470
2020/01/31 14:54:41.8	359.840	0.420	-0.890	-0.490
2020/01/31 14:54:41.9	359.850	0.440	-0.890	-0.500
2020/01/31 14:54:42.0	359.860	0.450	-0.890	-0.510
2020/01/31 14:54:42.1	359.870	0.460	-0.870	-0.520
2020/01/31 14:54:42.2	359.880	0.470	-0.850	-0.520
2020/01/31 14:54:42.3	359.890	0.470	-0.830	-0.520
2020/01/31 14:54:42.4	359.890	0.470	-0.790	-0.520
2020/01/31 14:54:42.5	359.890	0.460	-0.760	-0.520
2020/01/31 14:54:42.6	359.900	0.450	-0.710	-0.510
2020/01/31 14:54:42.7	359.890	0.440	-0.670	-0.510
2020/01/31 14:54:42.8	359.890	0.420	-0.620	-0.500
2020/01/31 14:54:42.9	359.890	0.400	-0.560	-0.490
2020/01/31 14:54:43.0	359.890	0.370	-0.510	-0.480
2020/01/31 14:54:43.1	359.890	0.340	-0.450	-0.460
2020/01/31 14:54:43.2	359.890	0.320	-0.390	-0.450
2020/01/31 14:54:43.3	359.890	0.280	-0.340	-0.440
2020/01/31 14:54:43.4	359.890	0.250	-0.280	-0.430
2020/01/31 14:54:43.5	359.890	0.220	-0.220	-0.420
2020/01/31 14:54:43.6	359.890	0.180	-0.160	-0.410
2020/01/31 14:54:43.7	359.880	0.150	-0.110	-0.400
2020/01/31 14:54:43.8	359.890	0.110	-0.060	-0.390
2020/01/31 14:54:43.9	359.890	0.080	-0.010	-0.380
2020/01/31 14:54:44.0	359.890	0.040	0.040	-0.370
2020/01/31 14:54:44.1	359.890	0.010	0.090	-0.360
2020/01/31 14:54:44.2	359.890	-0.020	0.130	-0.350
2020/01/31 14:54:44.3	359.900	-0.050	0.160	-0.330
2020/01/31 14:54:44.4	359.900	-0.070	0.200	-0.320
2020/01/31 14:54:44.5	359.900	-0.100	0.230	-0.300
2020/01/31 14:54:44.6	359.890	-0.120	0.260	-0.290
2020/01/31 14:54:44.7	359.900	-0.140	0.280	-0.270
2020/01/31 14:54:44.8	359.900	-0.160	0.300	-0.250
2020/01/31 14:54:44.9	359.900	-0.170	0.310	-0.220
2020/01/31 14:54:45.0	359.900	-0.180	0.320	-0.200
2020/01/31 14:54:45.1	359.900	-0.190	0.330	-0.180
2020/01/31 14:54:45.2	359.900	-0.200	0.330	-0.150
2020/01/31 14:54:45.3	359.900	-0.200	0.330	-0.130
2020/01/31 14:54:45.4	359.900	-0.200	0.320	-0.110
2020/01/31 14:54:45.5	359.900	-0.210	0.310	-0.090
2020/01/31 14:54:45.6	359.900	-0.210	0.300	-0.070
2020/01/31 14:54:45.7	359.880	-0.200	0.280	-0.060
2020/01/31 14:54:45.8	359.880	-0.200	0.250	-0.040
2020/01/31 14:54:45.9	359.890	-0.190	0.230	-0.030
2020/01/31 14:54:46.0	359.890	-0.190	0.200	-0.030
2020/01/31 14:54:46.1	359.890	-0.180	0.160	-0.020
2020/01/31 14:54:46.2	359.890	-0.170	0.120	-0.020
2020/01/31 14:54:46.3	359.890	-0.170	0.080	-0.030
2020/01/31 14:54:46.4	359.890	-0.160	0.040	-0.030
2020/01/31 14:54:46.5	359.900	-0.150	-0.000	-0.040
2020/01/31 14:54:46.6	359.900	-0.140	-0.050	-0.050
2020/01/31 14:54:46.7	359.900	-0.130	-0.100	-0.070
2020/01/31 14:54:46.8	359.910	-0.130	-0.150	-0.080
2020/01/31 14:54:46.9	359.910	-0.120	-0.200	-0.100
2020/01/31 14:54:47.0	359.910	-0.110	-0.250	-0.120
2020/01/31 14:54:47.1	359.920	-0.100	-0.300	-0.140
2020/01/31 14:54:47.2	359.920	-0.100	-0.350	-0.170
2020/01/31 14:54:47.3	359.930	-0.090	-0.410	-0.190
2020/01/31 14:54:47.4	359.940	-0.090	-0.460	-0.220
2020/01/31 14:54:47.5	359.950	-0.080	-0.510	-0.240
2020/01/31 14:54:47.6	359.960	-0.080	-0.550	-0.270
2020/01/31 14:54:47.7	359.980	-0.080	-0.600	-0.300
2020/01/31 14:54:47.8	359.990	-0.070	-0.650	-0.330
2020/01/31 14:54:47.9	0.010	-0.070	-0.690	-0.360
2020/01/31 14:54:48.0	0.030	-0.070	-0.730	-0.390
2020/01/31 14:54:48.1	0.050	-0.060	-0.770	-0.420
2020/01/31 14:54:48.2	0.070	-0.060	-0.800	-0.440
2020/01/31 14:54:48.3	0.090	-0.060	-0.830	-0.470
2020/01/31 14:54:48.4	0.110	-0.060	-0.860	-0.500
2020/01/31 14:54:48.5	0.140	-0.060	-0.890	-0.530
2020/01/31 14:54:48.6	0.160	-0.050	-0.910	-0.560
2020/01/31 14:54:48.7	0.210	-0.050	-0.920	-0.590
2020/01/31 14:54:48.8	0.230	-0.050	-0.940	-0.620
2020/01/31 14:54:48.9	0.260	-0.050	-0.950	-0.640
2020/01/31 14:54:49.0	0.290	-0.040	-0.950	-0.670
2020/01/31 14:54:49.1	0.320	-0.040	-0.960	-0.690
2020/01/31 14:54:49.2	0.340	-0.030	-0.960	-0.710
2020/01/31 14:54:49.3	0.370	-0.030	-0.950	-0.740
2020/01/31 14:54:49.4	0.400	-0.020	-0.950	-0.760
2020/01/31 14:54:49.5	0.430	-0.010	-0.940	-0.780
2020/01/31 14:54:49.6	0.460	-0.000	-0.920	-0.800
2020/01/31 14:54:49.7	0.500	0.010	-0.910	-0.820
2020/01/31 14:54:49.8	0.530	0.020	-0.890	-0.840
2020/01/31 14:54:49.9	0.560	0.030	-0.870	-0.860
2020/01/31 14:54:50.0	0.600	0.040	-0.850	-0.880
2020/01/31 14:54:50.1	0.630	0.050	-0.820	-0.900
2020/01/31 14:54:50.2	0.660	0.070	-0.800	-0.910
2020/01/31 14:54:50.3	0.700	0.080	-0.770	-0.930
2020/01/31 14:54:50.4	0.730	0.100	-0.740	-0.940
2020/01/31 14:54:50.5	0.770	0.110	-0.710	-0.950
2020/01/31 14:54:50.6	0.800	0.130	-0.680	-0.960
2020/01/31 14:54:50.7	0.830	0.140	-0.640	-0.980
2020/01/31 14:54:50.8	0.860	0.150	-0.600	-0.980
2020/01/31 14:54:50.9	0.890	0.170	-0.560	-0.980
2020/01/31 14:54:51.0	0.920	0.180	-0.520	-0.980
2020/01/31 14:54:51.1	0.940	0.190	-0.470	-0.970
2020/01/31 14:54:51.2	0.970	0.200	-0.430	-0.960
2020/01/31 14:54:51.3	0.990	0.210	-0.380	-0.940
2020/01/31 14:54:51.4	1.010	0.220	-0.330	-0.920
2020/01/31 14:54:51.5	1.020	0.230	-0.270	-0.900
2020/01/31 14:54:51.6	1.040	0.230	-0.220	-0.870
2020/01/31 14:54:51.7	1.050	0.230	-0.160	-0.830
2020/01/31 14:54:51.8	1.060	0.230	-0.110	-0.800
2020/01/31 14:54:51.9	1.060	0.230	-0.050	-0.760
2020/01/31 14:54:52.0	1.060	0.230	0.000	-0.710
2020/01/31 14:54:52.1	1.060	0.220	0.060	-0.670
2020/01/31 14:54:52.2	1.060	0.210	0.120	-0.620
2020/01/31 14:54:52.3	1.050	0.200	0.170	-0.580
2020/01/31 14:54:52.4	1.040	0.190	0.220	-0.530
2020/01/31 14:54:52.5	1.030	0.170	0.270	-0.480
2020/01/31 14:54:52.6	1.020	0.150	0.320	-0.440
2020/01/31 14:54:52.7	0.990	0.130	0.360	-0.390
2020/01/31 14:54:52.8	0.970	0.110	0.410	-0.340
2020/01/31 14:54:52.9	0.950	0.080	0.440	-0.300
2020/01/31 14:54:53.0	0.930	0.060	0.480	-0.260
2020/01/31 14:54:53.1	0.900	0.030	0.510	-0.230
2020/01/31 14:54:53.2	0.870	0.010	0.540	-0.190
2020/01/31 14:54:53.3	0.850	-0.020	0.560	-0.160
2020/01/31 14:54:53.4	0.820	-0.050	0.580	-0.130
2020/01/31 14:54:53.5	0.780	-0.080	0.600	-0.110
2020/01/31 14:54:53.6	0.750	-0.110	0.610	-0.090
2020/01/31 14:54:53.7	0.720	-0.130	0.620	-0.080
2020/01/31 14:54:53.8	0.680	-0.160	0.620	-0.060
2020/01/31 14:54:53.9	0.650	-0.190	0.620	-0.050
2020/01/31 14:54:54.0	0.610	-0.210	0.620	-0.040
2020/01/31 14:54:54.1	0.580	-0.240	0.610	-0.040
2020/01/31 14:54:54.2	0.540	-0.260	0.590	-0.030
2020/01/31 14:54:54.3	0.500	-0.280	0.580	-0.030
2020/01/31 14:54:54.4	0.470	-0.300	0.560	-0.030
2020/01/31 14:54:54.5	0.430	-0.310	0.530	-0.030
2020/01/31 14:54:54.6	0.390	-0.330	0.510	-0.040
2020/01/31 14:54:54.7	0.350	-0.340	0.470	-0.050
2020/01/31 14:54:54.8	0.320	-0.350	0.440	-0.060
2020/01/31 14:54:54.9	0.290	-0.350	0.400	-0.070
2020/01/31 14:54:55.0	0.250	-0.360	0.360	-0.080
2020/01/31 14:54:55.1	0.230	-0.360	0.320	-0.100
2020/01/31 14:54:55.2	0.200	-0.360	0.280	-0.110
2020/01/31 14:54:55.3	0.170	-0.350	0.230	-0.130
2020/01/31 14:54:55.4	0.150	-0.340	0.180	-0.150
2020/01/31 14:54:55.5	0.130	-0.330	0.130	-0.180
2020/01/31 14:54:55.6	0.110	-0.320	0.070	-0.200
2020/01/31 14:54:55.7	0.110	-0.310	0.020	-0.230
2020/01/31 14:54:55.8	0.100	-0.290	-0.040	-0.260
2020/01/31 14:54:55.9	0.090	-0.270	-0.100	-0.290
2020/01/31 14:54:56.0	0.080	-0.240	-0.160	-0.320
2020/01/31 14:54:56.1	0.070	-0.220	-0.220	-0.350
2020/01/31 14:54:56.2	0.070	-0.190	-0.280	-0.370
2020/01/31 14:54:56.3	0.060	-0.160	-0.340	-0.400
2020/01/31 14:54:56.4	0.060	-0.130	-0.390	-0.430
2020/01/31 14:54:56.5	0.060	-0.100	-0.450	-0.460
2020/01/31 14:54:56.6	0.060	-0.060	-0.510	-0.480
2020/01/31 14:54:56.7	0.070	-0.030	-0.560	-0.510
2020/01/31 14:54:56.8	0.080	0.010	-0.620	-0.540
2020/01/31 14:54:56.9	0.080	0.040	-0.670	-0.560
2020/01/31 14:54:57.0	0.090	0.080	-0.710	-0.580
2020/01/31 14:54:57.1	0.100	0.120	-0.760	-0.600
2020/01/31 14:54:57.2	0.110	0.150	-0.800	-0.620
2020/01/31 14:54:57.3	0.120	0.190	-0.840	-0.630
2020/01/31 14:54:57.4	0.130	0.220	-0.870	-0.640
2020/01/31 14:54:57.5	0.150	0.250	-0.900	-0.650
2020/01/31 14:54:57.6	0.160	0.290	-0.920	-0.660
2020/01/31 14:54:57.7	0.170	0.320	-0.940	-0.670
2020/01/31 14:54:57.8	0.190	0.350	-0.960	-0.670
2020/01/31 14:54:57.9	0.200	0.370	-0.970	-0.670
2020/01/31 14:54:58.0	0.220	0.400	-0.980	-0.670
2020/01/31 14:54:58.1	0.240	0.420	-0.980	-0.660
2020/01/31 14:54:58.2	0.250	0.450	-0.980	-0.650
2020/01/31 14:54:58.3	0.270	0.470	-0.970	-0.640
2020/01/31 14:54:58.4	0.290	0.480	-0.960	-0.630
2020/01/31 14:54:58.5	0.310	0.500	-0.940	-0.610
2020/01/31 14:54:58.6	0.330	0.510	-0.930	-0.590
2020/01/31 14:54:58.7	0.350	0.520	-0.900	-0.570
2020/01/31 14:54:58.8	0.370	0.530	-0.880	-0.550
2020/01/31 14:54:58.9	0.390	0.540	-0.860	-0.520
2020/01/31 14:54:59.0	0.420	0.540	-0.830	-0.500
2020/01/31 14:54:59.1	0.450	0.540	-0.800	-0.470
2020/01/31 14:54:59.2	0.480	0.540	-0.780	-0.450
2020/01/31 14:54:59.3	0.510	0.530	-0.750	-0.430
2020/01/31 14:54:59.4	0.540	0.520	-0.720	-0.400
2020/01/31 14:54:59.5	0.580	0.510	-0.700	-0.380
2020/01/31 14:54:59.6	0.620	0.500	-0.670	-0.370
2020/01/31 14:54:59.7	0.660	0.490	-0.650	-0.350
2020/01/31 14:54:59.8	0.700	0.470	-0.630	-0.340
2020/01/31 14:54:59.9	0.740	0.450	-0.610	-0.340
2020/01/31 14:55:00.0	0.790	0.430	-0.600	-0.330
2020/01/31 14:55:00.1	0.830	0.410	-0.580	-0.330
2020/01/31 14:55:00.2	0.880	0.390	-0.570	-0.340
2020/01/31 14:55:00.3	0.920	0.360	-0.550	-0.340
2020/01/31 14:55:00.4	0.960	0.330	-0.540	-0.350
2020/01/31 14:55:00.5	1.000	0.310	-0.530	-0.360
2020/01/31 14:55:00.6	1.040	0.280	-0.520	-0.370
2020/01/31 14:55:00.7	1.080	0.240	-0.510	-0.380
2020/01/31 14:55:00.8	1.110	0.210	-0.490	-0.390
2020/01/31 14:55:00.9	1.140	0.180	-0.480	-0.400
2020/01/31 14:55:01.0	1.170	0.140	-0.460	-0.410
2020/01/31 14:55:01.1	1.200	0.110	-0.440	-0.420
2020/01/31 14:55:01.2	1.220	0.070	-0.420	-0.430
2020/01/31 14:55:01.3	1.230	0.040	-0.400	-0.440
2020/01/31 14:55:01.4	1.250	0.000	-0.370	-0.460
2020/01/31 14:55:01.5	1.260	-0.040	-0.340	-0.470
2020/01/31 14:55:01.6	1.260	-0.070	-0.310	-0.480
2020/01/31 14:55:01.7	1.260	-0.110	-0.270	-0.500
2020/01/31 14:55:01.8	1.270	-0.150	-0.240	-0.510
2020/01/31 14:55:01.9	1.260	-0.180	-0.200	-0.530
2020/01/31 14:55:02.0	1.260	-0.220	-0.160	-0.540
2020/01/31 14:55:02.1	1.250	-0.250	-0.120	-0.560
2020/01/31 14:55:02.2	1.240	-0.290	-0.080	-0.570
2020/01/31 14:55:02.3	1.230	-0.320	-0.030	-0.590
2020/01/31 14:55:02.4	1.220	-0.350	0.010	-0.600
2020/01/31 14:55:02.5	1.210	-0.380	0.050	-0.620
2020/01/31 14:55:02.6	1.190	-0.410	0.100	-0.630
2020/01/31 14:55:02.7	1.170	-0.440	0.140	-0.650
2020/01/31 14:55:02.8	1.150	-0.470	0.190	-0.660
2020/01/31 14:55:02.9	1.130	-0.490	0.230	-0.670
2020/01/31 14:55:03.0	1.100	-0.510	0.270	-0.680
2020/01/31 14:55:03.1	1.080	-0.530	0.300	-0.680
2020/01/31 14:55:03.2	1.050	-0.550	0.340	-0.690
2020/01/31 14:55:03.3	1.020	-0.570	0.370	-0.700
2020/01/31 14:55:03.4	0.990	-0.580	0.400	-0.700
2020/01/31 14:55:03.5	0.960	-0.600	0.420	-0.710
2020/01/31 14:55:03.6	0.920	-0.600	0.440	-0.710
2020/01/31 14:55:03.7	0.880	-0.610	0.460	-0.720
2020/01/31 14:55:03.8	0.840	-0.620	0.480	-0.730
2020/01/31 14:55:03.9	0.810	-0.620	0.490	-0.730
2020/01/31 14:55:04.0	0.770	-0.620	0.490	-0.740
2020/01/31 14:55:04.1	0.740	-0.620	0.490	-0.750
2020/01/31 14:55:04.2	0.700	-0.620	0.490	-0.750
2020/01/31 14:55:04.3	0.670	-0.620	0.490	-0.760
2020/01/31 14:55:04.4	0.630	-0.610	0.480	-0.770
2020/01/31 14:55:04.5	0.600	-0.600	0.460	-0.790
2020/01/31 14:55:04.6	0.570	-0.590	0.440	-0.800
2020/01/31 14:55:04.7	0.540	-0.580	0.420	-0.810
2020/01/31 14:55:04.8	0.510	-0.570	0.400	-0.820
2020/01/31 14:55:04.9	0.480	-0.560	0.370	-0.840
2020/01/31 14:55:05.0	0.460	-0.540	0.340	-0.850
2020/01/31 14:55:05.1	0.440	-0.520	0.310	-0.860
2020/01/31 14:55:05.2	0.420	-0.500	0.270	-0.880
2020/01/31 14:55:05.3	0.400	-0.480	0.230	-0.890
2020/01/31 14:55:05.4	0.380	-0.460	0.190	-0.900
2020/01/31 14:55:05.5	0.370	-0.440	0.150	-0.910
2020/01/31 14:55:05.6	0.360	-0.410	0.110	-0.920
2020/01/31 14:55:05.7	0.350	-0.380	0.070	-0.930
2020/01/31 14:55:05.8	0.340	-0.350	0.020	-0.930
2020/01/31 14:55:05.9	0.330	-0.320	-0.030	-0.930
2020/01/31 14:55:06.0	0.330	-0.290	-0.070	-0.930
2020/01/31 14:55:06.1	0.330	-0.250	-0.120	-0.930
2020/01/31 14:55:06.2	0.330	-0.220	-0.170	-0.920
2020/01/31 14:55:06.3	0.330	-0.180	-0.220	-0.920
2020/01/31 14:55:06.4	0.330	-0.140	-0.260	-0.910
2020/01/31 14:55:06.5	0.340	-0.100	-0.310	-0.890
2020/01/31 14:55:06.6	0.340	-0.060	-0.350	-0.880
2020/01/31 14:55:06.7	0.350	-0.020	-0.400	-0.860
2020/01/31 14:55:06.8	0.350	0.030	-0.440	-0.840
2020/01/31 14:55:06.9	0.360	0.070	-0.480	-0.820
2020/01/31 14:55:07.0	0.360	0.120	-0.510	-0.790
2020/01/31 14:55:07.1	0.370	0.160	-0.550	-0.760
2020/01/31 14:55:07.2	0.370	0.200	-0.580	-0.720
2020/01/31 14:55:07.3	0.380	0.250	-0.610	-0.690
2020/01/31 14:55:07.4	0.380	0.290	-0.630	-0.650
2020/01/31 14:55:07.5	0.380	0.340	-0.650	-0.610
2020/01/31 14:55:07.6	0.380	0.380	-0.670	-0.560
2020/01/31 14:55:07.7	0.390	0.420	-0.680	-0.520
2020/01/31 14:55:07.8	0.390	0.460	-0.690	-0.470
2020/01/31 14:55:07.9	0.390	0.490	-0.700	-0.420
2020/01/31 14:55:08.0	0.390	0.530	-0.700	-0.370
2020/01/31 14:55:08.1	0.380	0.560	-0.700	-0.320
2020/01/31 14:55:08.2	0.380	0.580	-0.690	-0.270
2020/01/31 14:55:08.3	0.370	0.610	-0.690	-0.220
2020/01/31 14:55:08.4	0.370	0.630	-0.680	-0.170
2020/01/31 14:55:08.5	0.360	0.650	-0.670	-0.120
2020/01/31 14:55:08.6	0.360	0.670	-0.650	-0.070
2020/01/31 14:55:08.7	0.350	0.680	-0.640	-0.020
2020/01/31 14:55:08.8	0.340	0.690	-0.630	0.020
2020/01/31 14:55:08.9	0.340	0.700	-0.610	0.070
2020/01/31 14:55:09.0	0.330	0.700	-0.600	0.110
2020/01/31 14:55:09.1	0.330	0.700	-0.580	0.140
2020/01/31 14:55:09.2	0.330	0.700	-0.570	0.180
2020/01/31 14:55:09.3	0.330	0.700	-0.550	0.210
2020/01/31 14:55:09.4	0.330	0.690	-0.540	0.240
2020/01/31 14:55:09.5	0.340	0.680	-0.530	0.260
2020/01/31 14:55:09.6	0.340	0.670	-0.520	0.280
2020/01/31 14:55:09.7	0.340	0.650	-0.500	0.300
2020/01/31 14:55:09.8	0.350	0.640	-0.490	0.310
2020/01/31 14:55:09.9	0.370	0.620	-0.490	0.320
2020/01/31 14:55:10.0	0.380	0.600	-0.480	0.320
2020/01/31 14:55:10.1	0.400	0.580	-0.480	0.320
2020/01/31 14:55:10.2	0.420	0.560	-0.480	0.320
2020/01/31 14:55:10.3	0.440	0.530	-0.470	0.310
2020/01/31 14:55:10.4	0.470	0.510	-0.470	0.300
2020/01/31 14:55:10.5	0.490	0.480	-0.470	0.290
2020/01/31 14:55:10.6	0.520	0.460	-0.470	0.270
2020/01/31 14:55:10.7	0.550	0.440	-0.470	0.240
2020/01/31 14:55:10.8	0.580	0.410	-0.470	0.220
2020/01/31 14:55:10.9	0.600	0.380	-0.470	0.200
2020/01/31 14:55:11.0	0.630	0.360	-0.460	0.180
2020/01/31 14:55:11.1	0.660	0.330	-0.460	0.160
2020/01/31 14:55:11.2	0.680	0.310	-0.450	0.130
2020/01/31 14:55:11.3	0.710	0.280	-0.450	0.110
2020/01/31 14:55:11.4	0.730	0.260	-0.440	0.080
2020/01/31 14:55:11.5	0.750	0.230	-0.430	0.050
2020/01/31 14:55:11.6	0.770	0.210	-0.420	0.020
2020/01/31 14:55:11.7	0.790	0.180	-0.400	-0.010
2020/01/31 14:55:11.8	0.810	0.150	-0.390	-0.040
2020/01/31 14:55:11.9	0.830	0.130	-0.370	-0.070
2020/01/31 14:55:12.0	0.840	0.100	-0.350	-0.110
2020/01/31 14:55:12.1	0.860	0.070	-0.340	-0.150
2020/01/31 14:55:12.2	0.870	0.030	-0.320	-0.190
2020/01/31 14:55:12.3	0.890	0.000	-0.300	-0.230
2020/01/31 14:55:12.4	0.900	-0.030	-0.280	-0.270
2020/01/31 14:55:12.5	0.910	-0.070	-0.270	-0.320
2020/01/31 14:55:12.6	0.920	-0.100	-0.250	-0.370
2020/01/31 14:55:12.7	0.920	-0.140	-0.230	-0.420
2020/01/31 14:55:12.8	0.930	-0.180	-0.210	-0.470
2020/01/31 14:55:12.9	0.940	-0.220	-0.190	-0.520
2020/01/31 14:55:13.0	0.940	-0.260	-0.180	-0.570
2020/01/31 14:55:13.1	0.950	-0.300	-0.160	-0.620
2020/01/31 14:55:13.2	0.950	-0.350	-0.140	-0.670
2020/01/31 14:55:13.3	0.950	-0.390	-0.130	-0.720
2020/01/31 14:55:13.4	0.950	-0.430	-0.120	-0.770
2020/01/31 14:55:13.5	0.950	-0.480	-0.110	-0.820
2020/01/31 14:55:13.6	0.950	-0.520	-0.100	-0.870
2020/01/31 14:55:13.7	0.960	-0.560	-0.090	-0.920
2020/01/31 14:55:13.8	0.960	-0.600	-0.080	-0.960
2020/01/31 14:55:13.9	0.960	-0.640	-0.070	-1.010
2020/01/31 14:55:14.0	0.960	-0.680	-0.070	-1.050
2020/01/31 14:55:14.1	0.960	-0.710	-0.060	-1.090
2020/01/31 14:55:14.2	0.960	-0.750	-0.060	-1.130
2020/01/31 14:55:14.3	0.970	-0.780	-0.060	-1.160
2020/01/31 14:55:14.4	0.980	-0.800	-0.060	-1.200
2020/01/31 14:55:14.5	0.980	-0.830	-0.060	-1.230
2020/01/31 14:55:14.6	0.990	-0.850	-0.070	-1.270
2020/01/31 14:55:14.7	1.000	-0.860	-0.070	-1.300
2020/01/31 14:55:14.8	1.020	-0.870	-0.080	-1.330
2020/01/31 14:55:14.9	1.030	-0.880	-0.080	-1.360
2020/01/31 14:55:15.0	1.050	-0.890	-0.090	-1.390
2020/01/31 14:55:15.1	1.060	-0.890	-0.090	-1.410
2020/01/31 14:55:15.2	1.080	-0.880	-0.100	-1.440
2020/01/31 14:55:15.3	1.100	-0.870	-0.100	-1.460
2020/01/31 14:55:15.4	1.120	-0.860	-0.110	-1.470
2020/01/31 14:55:15.5	1.140	-0.840	-0.110	-1.490
2020/01/31 14:55:15.6	1.160	-0.820	-0.110	-1.500
2020/01/31 14:55:15.7	1.160	-0.800	-0.110	-1.510
2020/01/31 14:55:15.8	1.180	-0.770	-0.110	-1.510
2020/01/31 14:55:15.9	1.200	-0.740	-0.100	-1.510
2020/01/31 14:55:16.0	1.210	-0.700	-0.090	-1.490
2020/01/31 14:55:16.1	1.220	-0.670	-0.080	-1.480
2020/01/31 14:55:16.2	1.230	-0.620	-0.060	-1.450
2020/01/31 14:55:16.3	1.240	-0.580	-0.050	-1.420
2020/01/31 14:55:16.4	1.240	-0.530	-0.030	-1.390
2020/01/31 14:55:16.5	1.250	-0.480	-0.010	-1.340
2020/01/31 14:55:16.6	1.240	-0.430	0.010	-1.290
2020/01/31 14:55:16.7	1.230	-0.380	0.040	-1.230
2020/01/31 14:55:16.8	1.220	-0.330	0.060	-1.170
2020/01/31 14:55:16.9	1.210	-0.270	0.090	-1.100
2020/01/31 14:55:17.0	1.190	-0.220	0.110	-1.030
2020/01/31 14:55:17.1	1.170	-0.160	0.140	-0.950
2020/01/31 14:55:17.2	1.150	-0.110	0.160	-0.870
2020/01/31 14:55:17.3	1.130	-0.050	0.180	-0.780
2020/01/31 14:55:17.4	1.110	0.010	0.200	-0.690
2020/01/31 14:55:17.5	1.080	0.070	0.210	-0.610
2020/01/31 14:55:17.6	1.050	0.120	0.220	-0.520
2020/01/31 14:55:17.7	1.020	0.180	0.230	-0.420
2020/01/31 14:55:17.8	0.990	0.240	0.230	-0.330
2020/01/31 14:55:17.9	0.960	0.290	0.230	-0.230
2020/01/31 14:55:18.0	0.920	0.350	0.230	-0.140
2020/01/31 14:55:18.1	0.890	0.400	0.220	-0.050
2020/01/31 14:55:18.2	0.860	0.450	0.200	0.030
2020/01/31 14:55:18.3	0.820	0.500	0.180	0.120
2020/01/31 14:55:18.4	0.790	0.550	0.160	0.200
2020/01/31 14:55:18.5	0.760	0.600	0.140	0.280
2020/01/31 14:55:18.6	0.720	0.650	0.100	0.360
2020/01/31 14:55:18.7	0.700	0.690	0.070	0.440
2020/01/31 14:55:18.8	0.670	0.730	0.030	0.510
2020/01/31 14:55:18.9	0.640	0.770	-0.000	0.570
2020/01/31 14:55:19.0	0.610	0.810	-0.050	0.630
2020/01/31 14:55:19.1	0.590	0.840	-0.090	0.690
2020/01/31 14:55:19.2	0.560	0.870	-0.140	0.730
2020/01/31 14:55:19.3	0.540	0.900	-0.180	0.780
2020/01/31 14:55:19.4	0.520	0.920	-0.230	0.810
2020/01/31 14:55:19.5	0.500	0.940	-0.280	0.840
2020/01/31 14:55:19.6	0.480	0.960	-0.330	0.860
2020/01/31 14:55:19.7	0.470	0.970	-0.370	0.880
2020/01/31 14:55:19.8	0.460	0.980	-0.420	0.890
2020/01/31 14:55:19.9	0.450	0.980	-0.470	0.890
2020/01/31 14:55:20.0	0.440	0.980	-0.510	0.880
2020/01/31 14:55:20.1	0.430	0.970	-0.560	0.860
2020/01/31 14:55:20.2	0.430	0.960	-0.600	0.840
2020/01/31 14:55:20.3	0.420	0.940	-0.640	0.810
2020/01/31 14:55:20.4	0.420	0.920	-0.680	0.780
2020/01/31 14:55:20.5	0.420	0.900	-0.710	0.730
2020/01/31 14:55:20.6	0.430	0.870	-0.750	0.680
2020/01/31 14:55:20.7	0.440	0.830	-0.780	0.620
2020/01/31 14:55:20.8	0.450	0.790	-0.810	0.560
2020/01/31 14:55:20.9	0.460	0.750	-0.830	0.490
2020/01/31 14:55:21.0	0.480	0.710	-0.860	0.410
2020/01/31 14:55:21.1	0.490	0.660	-0.880	0.330
2020/01/31 14:55:21.2	0.520	0.610	-0.900	0.250
2020/01/31 14:55:21.3	0.540	0.550	-0.910	0.160
2020/01/31 14:55:21.4	0.570	0.500	-0.930	0.060
2020/01/31 14:55:21.5	0.600	0.440	-0.940	-0.040
2020/01/31 14:55:21.6	0.640	0.380	-0.950	-0.140
2020/01/31 14:55:21.7	0.680	0.320	-0.950	-0.250
2020/01/31 14:55:21.8	0.720	0.260	-0.950	-0.350
2020/01/31 14:55:21.9	0.760	0.200	-0.950	-0.460
2020/01/31 14:55:22.0	0.810	0.130	-0.950	-0.570
2020/01/31 14:55:22.1	0.850	0.070	-0.940	-0.670
2020/01/31 14:55:22.2	0.900	0.010	-0.940	-0.780
2020/01/31 14:55:22.3	0.950	-0.040	-0.930	-0.890
2020/01/31 14:55:22.4	1.000	-0.100	-0.920	-1.000
2020/01/31 14:55:22.5	1.060	-0.160	-0.910	-1.100
2020/01/31 14:55:22.6	1.110	-0.210	-0.890	-1.200
2020/01/31 14:55:22.7	1.170	-0.260	-0.880	-1.300
2020/01/31 14:55:22.8	1.220	-0.310	-0.860	-1.400
2020/01/31 14:55:22.9	1.270	-0.350	-0.840	-1.490
2020/01/31 14:55:23.0	1.330	-0.390	-0.820	-1.580
2020/01/31 14:55:23.1	1.380	-0.430	-0.790	-1.650
2020/01/31 14:55:23.2	1.430	-0.470	-0.770	-1.730
2020/01/31 14:55:23.3	1.480	-0.500	-0.740	-1.800
2020/01/31 14:55:23.4	1.530	-0.520	-0.710	-1.860
2020/01/31 14:55:23.5	1.570	-0.550	-0.680	-1.910
2020/01/31 14:55:23.6	1.610	-0.570	-0.640	-1.960
2020/01/31 14:55:23.7	1.640	-0.590	-0.610	-2.000
2020/01/31 14:55:23.8	1.670	-0.600	-0.570	-2.030
2020/01/31 14:55:23.9	1.710	-0.610	-0.530	-2.060
2020/01/31 14:55:24.0	1.740	-0.620	-0.490	-2.080
2020/01/31 14:55:24.1	1.760	-0.620	-0.440	-2.090
2020/01/31 14:55:24.2	1.790	-0.620	-0.400	-2.090
2020/01/31 14:55:24.3	1.810	-0.620	-0.350	-2.090
2020/01/31 14:55:24.4	1.820	-0.620	-0.310	-2.080
2020/01/31 14:55:24.5	1.830	-0.610	-0.260	-2.060
2020/01/31 14:55:24.6	1.840	-0.600	-0.220	-2.040
2020/01/31 14:55:24.7	1.840	-0.590	-0.170	-2.010
2020/01/31 14:55:24.8	1.850	-0.570	-0.130	-1.980
2020/01/31 14:55:24.9	1.850	-0.560	-0.090	-1.940
2020/01/31 14:55:25.0	1.840	-0.540	-0.050	-1.890
2020/01/31 14:55:25.1	1.840	-0.520	-0.010	-1.850
2020/01/31 14:55:25.2	1.830	-0.500	0.030	-1.790
2020/01/31 14:55:25.3	1.820	-0.480	0.060	-1.730
2020/01/31 14:55:25.4	1.810	-0.460	0.100	-1.670
2020/01/31 14:55:25.5	1.790	-0.440	0.130	-1.600
2020/01/31 14:55:25.6	1.780	-0.420	0.160	-1.540
2020/01/31 14:55:25.7	1.740	-0.390	0.190	-1.460
2020/01/31 14:55:25.8	1.720	-0.370	0.210	-1.380
2020/01/31 14:55:25.9	1.700	-0.350	0.240	-1.310
2020/01/31 14:55:26.0	1.680	-0.330	0.260	-1.230
2020/01/31 14:55:26.1	1.660	-0.300	0.280	-1.150
2020/01/31 14:55:26.2	1.630	-0.280	0.300	-1.070
2020/01/31 14:55:26.3	1.600	-0.260	0.320	-0.980
2020/01/31 14:55:26.4	1.580	-0.240	0.330	-0.900
2020/01/31 14:55:26.5	1.550	-0.220	0.340	-0.820
2020/01/31 14:55:26.6	1.520	-0.200	0.360	-0.740
2020/01/31 14:55:26.7	1.480	-0.180	0.370	-0.660
2020/01/31 14:55:26.8	1.450	-0.160	0.380	-0.580
2020/01/31 14:55:26.9	1.420	-0.150	0.390	-0.500
2020/01/31 14:55:27.0	1.390	-0.130	0.390	-0.420
2020/01/31 14:55:27.1	1.360	-0.110	0.400	-0.340
2020/01/31 14:55:27.2	1.330	-0.100	0.410	-0.260
2020/01/31 14:55:27.3	1.300	-0.080	0.420	-0.180
2020/01/31 14:55:27.4	1.260	-0.070	0.420	-0.110
2020/01/31 14:55:27.5	1.230	-0.050	0.430	-0.030
2020/01/31 14:55:27.6	1.200	-0.040	0.430	0.040
2020/01/31 14:55:27.7	1.170	-0.020	0.440	0.110
2020/01/31 14:55:27.8	1.140	-0.010	0.440	0.180
2020/01/31 14:55:27.9	1.110	0.000	0.450	0.250
2020/01/31 14:55:28.0	1.080	0.020	0.450	0.310
2020/01/31 14:55:28.1	1.050	0.030	0.450	0.380
2020/01/31 14:55:28.2	1.020	0.040	0.450	0.440
2020/01/31 14:55:28.3	1.000	0.060	0.450	0.490
2020/01/31 14:55:28.4	0.970	0.070	0.450	0.550
2020/01/31 14:55:28.5	0.950	0.080	0.440	0.590
2020/01/31 14:55:28.6	0.920	0.090	0.440	0.640
2020/01/31 14:55:28.7	0.910	0.100	0.430	0.680
2020/01/31 14:55:28.8	0.880	0.110	0.420	0.710
2020/01/31 14:55:28.9	0.860	0.120	0.400	0.740
2020/01/31 14:55:29.0	0.840	0.130	0.380	0.770
2020/01/31 14:55:29.1	0.820	0.140	0.360	0.790
2020/01/31 14:55:29.2	0.800	0.150	0.340	0.800
2020/01/31 14:55:29.3	0.780	0.150	0.310	0.810
2020/01/31 14:55:29.4	0.770	0.160	0.270	0.810
2020/01/31 14:55:29.5	0.750	0.160	0.240	0.810
2020/01/31 14:55:29.6	0.740	0.170	0.190	0.800
2020/01/31 14:55:29.7	0.730	0.170	0.150	0.780
2020/01/31 14:55:29.8	0.720	0.170	0.100	0.760
2020/01/31 14:55:29.9	0.710	0.170	0.040	0.740
2020/01/31 14:55:30.0	0.700	0.170	-0.020	0.710
2020/01/31 14:55:30.1	0.700	0.170	-0.080	0.680
2020/01/31 14:55:30.2	0.690	0.170	-0.150	0.640
2020/01/31 14:55:30.3	0.690	0.160	-0.220	0.600
2020/01/31 14:55:30.4	0.690	0.160	-0.290	0.550
2020/01/31 14:55:30.5	0.690	0.160	-0.360	0.500
2020/01/31 14:55:30.6	0.700	0.150	-0.440	0.450
2020/01/31 14:55:30.7	0.700	0.140	-0.510	0.390
2020/01/31 14:55:30.8	0.700	0.140	-0.580	0.340
2020/01/31 14:55:30.9	0.710	0.130	-0.660	0.280
2020/01/31 14:55:31.0	0.720	0.120	-0.730	0.220
2020/01/31 14:55:31.1	0.720	0.110	-0.800	0.160
2020/01/31 14:55:31.2	0.720	0.100	-0.870	0.100
2020/01/31 14:55:31.3	0.730	0.090	-0.930	0.030
2020/01/31 14:55:31.4	0.730	0.080	-0.990	-0.030
2020/01/31 14:55:31.5	0.740	0.070	-1.050	-0.090
2020/01/31 14:55:31.6	0.740	0.050	-1.100	-0.160
2020/01/31 14:55:31.7	0.750	0.040	-1.150	-0.220
2020/01/31 14:55:31.8	0.760	0.030	-1.200	-0.290
2020/01/31 14:55:31.9	0.760	0.020	-1.230	-0.350
2020/01/31 14:55:32.0	0.760	0.010	-1.270	-0.410
2020/01/31 14:55:32.1	0.760	-0.000	-1.290	-0.480
2020/01/31 14:55:32.2	0.770	-0.010	-1.320	-0.540
2020/01/31 14:55:32.3	0.770	-0.020	-1.340	-0.600
2020/01/31 14:55:32.4	0.780	-0.030	-1.350	-0.660
2020/01/31 14:55:32.5	0.780	-0.030	-1.360	-0.720
2020/01/31 14:55:32.6	0.790	-0.040	-1.360	-0.780
2020/01/31 14:55:32.7	0.810	-0.040	-1.360	-0.840
2020/01/31 14:55:32.8	0.830	-0.040	-1.360	-0.900
2020/01/31 14:55:32.9	0.840	-0.040	-1.350	-0.950
2020/01/31 14:55:33.0	0.860	-0.030	-1.340	-1.010
2020/01/31 14:55:33.1	0.880	-0.030	-1.330	-1.060
2020/01/31 14:55:33.2	0.910	-0.020	-1.320	-1.120
2020/01/31 14:55:33.3	0.940	-0.000	-1.300	-1.170
2020/01/31 14:55:33.4	0.970	0.010	-1.280	-1.220
2020/01/31 14:55:33.5	1.000	0.030	-1.260	-1.260
2020/01/31 14:55:33.6	1.030	0.050	-1.230	-1.310
2020/01/31 14:55:33.7	1.070	0.070	-1.210	-1.350
2020/01/31 14:55:33.8	1.100	0.090	-1.180	-1.380
2020/01/31 14:55:33.9	1.140	0.120	-1.150	-1.410
2020/01/31 14:55:34.0	1.170	0.140	-1.110	-1.440
2020/01/31 14:55:34.1	1.210	0.170	-1.080	-1.460
2020/01/31 14:55:34.2	1.250	0.200	-1.030	-1.470
2020/01/31 14:55:34.3	1.280	0.230	-0.990	-1.480
2020/01/31 14:55:34.4	1.320	0.260	-0.940	-1.490
2020/01/31 14:55:34.5	1.350	0.290	-0.890	-1.490
2020/01/31 14:55:34.6	1.380	0.320	-0.840	-1.480
2020/01/31 14:55:34.7	1.410	0.350	-0.780	-1.470
2020/01/31 14:55:34.8	1.430	0.380	-0.720	-1.450
2020/01/31 14:55:34.9	1.460	0.410	-0.650	-1.420
2020/01/31 14:55:35.0	1.480	0.430	-0.580	-1.380
2020/01/31 14:55:35.1	1.500	0.460	-0.510	-1.340
2020/01/31 14:55:35.2	1.520	0.480	-0.430	-1.300
2020/01/31 14:55:35.3	1.540	0.500	-0.350	-1.250
2020/01/31 14:55:35.4	1.550	0.520	-0.270	-1.190
2020/01/31 14:55:35.5	1.560	0.530	-0.180	-1.120
2020/01/31 14:55:35.6	1.560	0.540	-0.090	-1.060
2020/01/31 14:55:35.7	1.560	0.550	0.000	-0.980
2020/01/31 14:55:35.8	1.560	0.560	0.090	-0.900
2020/01/31 14:55:35.9	1.560	0.560	0.180	-0.820
2020/01/31 14:55:36.0	1.550	0.560	0.270	-0.730
2020/01/31 14:55:36.1	1.550	0.560	0.360	-0.650
2020/01/31 14:55:36.2	1.540	0.550	0.450	-0.560
2020/01/31 14:55:36.3	1.530	0.540	0.530	-0.470
2020/01/31 14:55:36.4	1.510	0.520	0.610	-0.380
2020/01/31 14:55:36.5	1.500	0.510	0.690	-0.290
2020/01/31 14:55:36.6	1.490	0.490	0.750	-0.200
2020/01/31 14:55:36.7	1.470	0.460	0.810	-0.120
2020/01/31 14:55:36.8	1.460	0.430	0.870	-0.040
2020/01/31 14:55:36.9	1.440	0.400	0.910	0.040
2020/01/31 14:55:37.0	1.420	0.370	0.950	0.110
2020/01/31 14:55:37.1	1.410	0.330	0.980	0.180
2020/01/31 14:55:37.2	1.390	0.290	1.010	0.240
2020/01/31 14:55:37.3	1.370	0.250	1.020	0.290
2020/01/31 14:55:37.4	1.350	0.210	1.030	0.340
2020/01/31 14:55:37.5	1.330	0.160	1.030	0.380
2020/01/31 14:55:37.6	1.310	0.110	1.020	0.420
2020/01/31 14:55:37.7	1.290	0.060	1.010	0.440
2020/01/31 14:55:37.8	1.270	0.010	0.980	0.460
2020/01/31 14:55:37.9	1.250	-0.040	0.950	0.470
2020/01/31 14:55:38.0	1.230	-0.090	0.920	0.480
2020/01/31 14:55:38.1	1.210	-0.140	0.880	0.480
2020/01/31 14:55:38.2	1.180	-0.190	0.830	0.480
2020/01/31 14:55:38.3	1.160	-0.250	0.780	0.470
2020/01/31 14:55:38.4	1.130	-0.300	0.720	0.460
2020/01/31 14:55:38.5	1.110	-0.350	0.660	0.440
2020/01/31 14:55:38.6	1.080	-0.390	0.600	0.410
2020/01/31 14:55:38.7	1.050	-0.440	0.540	0.390
2020/01/31 14:55:38.8	1.020	-0.490	0.470	0.360
2020/01/31 14:55:38.9	0.980	-0.530	0.410	0.320
2020/01/31 14:55:39.0	0.950	-0.570	0.340	0.280
2020/01/31 14:55:39.1	0.920	-0.610	0.270	0.240
2020/01/31 14:55:39.2	0.890	-0.650	0.200	0.200
2020/01/31 14:55:39.3	0.860	-0.680	0.130	0.150
2020/01/31 14:55:39.4	0.830	-0.710	0.060	0.100
2020/01/31 14:55:39.5	0.800	-0.730	-0.010	0.040
2020/01/31 14:55:39.6	0.770	-0.760	-0.080	-0.010
2020/01/31 14:55:39.7	0.750	-0.770	-0.140	-0.070
2020/01/31 14:55:39.8	0.720	-0.790	-0.210	-0.120
2020/01/31 14:55:39.9	0.690	-0.800	-0.270	-0.170
2020/01/31 14:55:40.0	0.670	-0.800	-0.330	-0.220
2020/01/31 14:55:40.1	0.640	-0.810	-0.380	-0.270
2020/01/31 14:55:40.2	0.610	-0.800	-0.440	-0.320
2020/01/31 14:55:40.3	0.590	-0.800	-0.490	-0.360
2020/01/31 14:55:40.4	0.570	-0.790	-0.530	-0.400
2020/01/31 14:55:40.5	0.540	-0.770	-0.570	-0.440
2020/01/31 14:55:40.6	0.520	-0.750	-0.610	-0.470
2020/01/31 14:55:40.7	0.500	-0.730	-0.650	-0.510
2020/01/31 14:55:40.8	0.480	-0.710	-0.680	-0.540
2020/01/31 14:55:40.9	0.470	-0.680	-0.700	-0.570
2020/01/31 14:55:41.0	0.450	-0.650	-0.730	-0.590
2020/01/31 14:55:41.1	0.440	-0.620	-0.750	-0.610
2020/01/31 14:55:41.2	0.420	-0.590	-0.760	-0.630
2020/01/31 14:55:41.3	0.410	-0.550	-0.770	-0.640
2020/01/31 14:55:41.4	0.400	-0.520	-0.780	-0.650
2020/01/31 14:55:41.5	0.390	-0.480	-0.790	-0.660
2020/01/31 14:55:41.6	0.380	-0.440	-0.790	-0.670
2020/01/31 14:55:41.7	0.370	-0.410	-0.790	-0.670
2020/01/31 14:55:41.8	0.370	-0.370	-0.790	-0.680
2020/01/31 14:55:41.9	0.360	-0.330	-0.780	-0.690
2020/01/31 14:55:42.0	0.360	-0.300	-0.780	-0.690
2020/01/31 14:55:42.1	0.360	-0.260	-0.770	-0.700
2020/01/31 14:55:42.2	0.370	-0.220	-0.770	-0.700
2020/01/31 14:55:42.3	0.370	-0.190	-0.760	-0.710
2020/01/31 14:55:42.4	0.380	-0.150	-0.760	-0.710
2020/01/31 14:55:42.5	0.390	-0.120	-0.750	-0.720
2020/01/31 14:55:42.6	0.400	-0.080	-0.750	-0.720
2020/01/31 14:55:42.7	0.420	-0.050	-0.740	-0.730
2020/01/31 14:55:42.8	0.440	-0.020	-0.740	-0.730
2020/01/31 14:55:42.9	0.460	0.010	-0.740	-0.740
2020/01/31 14:55:43.0	0.490	0.050	-0.740	-0.740
2020/01/31 14:55:43.1	0.510	0.080	-0.740	-0.740
2020/01/31 14:55:43.2	0.540	0.110	-0.740	-0.740
2020/01/31 14:55:43.3	0.570	0.140	-0.740	-0.740
2020/01/31 14:55:43.4	0.600	0.170	-0.740	-0.740
2020/01/31 14:55:43.5	0.640	0.200	-0.740	-0.740
2020/01/31 14:55:43.6	0.670	0.230	-0.740	-0.730
2020/01/31 14:55:43.7	0.710	0.260	-0.740	-0.720
2020/01/31 14:55:43.8	0.740	0.280	-0.740	-0.720
2020/01/31 14:55:43.9	0.780	0.310	-0.750	-0.710
2020/01/31 14:55:44.0	0.810	0.340	-0.750	-0.700
2020/01/31 14:55:44.1	0.840	0.360	-0.740	-0.680
2020/01/31 14:55:44.2	0.870	0.390	-0.740	-0.670
2020/01/31 14:55:44.3	0.900	0.410	-0.740	-0.650
2020/01/31 14:55:44.4	0.930	0.440	-0.730	-0.630
2020/01/31 14:55:44.5	0.950	0.460	-0.720	-0.610
2020/01/31 14:55:44.6	0.970	0.480	-0.710	-0.580
2020/01/31 14:55:44.7	0.990	0.500	-0.700	-0.560
2020/01/31 14:55:44.8	1.000	0.520	-0.680	-0.530
2020/01/31 14:55:44.9	1.010	0.540	-0.660	-0.500
2020/01/31 14:55:45.0	1.020	0.560	-0.640	-0.460
2020/01/31 14:55:45.1	1.020	0.570	-0.610	-0.430
2020/01/31 14:55:45.2	1.020	0.590	-0.580	-0.390
2020/01/31 14:55:45.3	1.010	0.600	-0.550	-0.350
2020/01/31 14:55:45.4	1.010	0.620	-0.520	-0.310
2020/01/31 14:55:45.5	1.000	0.630	-0.480	-0.260
2020/01/31 14:55:45.6	0.990	0.640	-0.440	-0.220
2020/01/31 14:55:45.7	0.970	0.650	-0.400	-0.170
2020/01/31 14:55:45.8	0.960	0.660	-0.360	-0.130
2020/01/31 14:55:45.9	0.940	0.660	-0.320	-0.080
2020/01/31 14:55:46.0	0.930	0.670	-0.280	-0.040
2020/01/31 14:55:46.1	0.910	0.670	-0.230	0.000
2020/01/31 14:55:46.2	0.900	0.670	-0.190	0.040
2020/01/31 14:55:46.3	0.880	0.670	-0.150	0.080
2020/01/31 14:55:46.4	0.860	0.670	-0.110	0.120
2020/01/31 14:55:46.5	0.850	0.670	-0.080	0.160
2020/01/31 14:55:46.6	0.830	0.660	-0.040	0.190
2020/01/31 14:55:46.7	0.810	0.660	-0.010	0.220
2020/01/31 14:55:46.8	0.790	0.650	0.020	0.250
2020/01/31 14:55:46.9	0.770	0.630	0.050	0.280
2020/01/31 14:55:47.0	0.750	0.620	0.080	0.300
2020/01/31 14:55:47.1	0.720	0.600	0.110	0.310
2020/01/31 14:55:47.2	0.700	0.580	0.130	0.320
2020/01/31 14:55:47.3	0.670	0.560	0.150	0.330
2020/01/31 14:55:47.4	0.650	0.530	0.160	0.330
2020/01/31 14:55:47.5	0.620	0.500	0.180	0.320
2020/01/31 14:55:47.6	0.600	0.470	0.190	0.310
2020/01/31 14:55:47.7	0.570	0.430	0.200	0.300
2020/01/31 14:55:47.8	0.550	0.390	0.210	0.270
2020/01/31 14:55:47.9	0.520	0.350	0.220	0.250
2020/01/31 14:55:48.0	0.500	0.310	0.230	0.220
2020/01/31 14:55:48.1	0.470	0.260	0.230	0.180
2020/01/31 14:55:48.2	0.450	0.210	0.230	0.140
2020/01/31 14:55:48.3	0.430	0.160	0.230	0.100
2020/01/31 14:55:48.4	0.410	0.110	0.230	0.060
2020/01/31 14:55:48.5	0.400	0.050	0.220	0.010
2020/01/31 14:55:48.6	0.380	-0.000	0.210	-0.040
2020/01/31 14:55:48.7	0.360	-0.060	0.200	-0.100
2020/01/31 14:55:48.8	0.350	-0.120	0.190	-0.150
2020/01/31 14:55:48.9	0.350	-0.170	0.180	-0.210
2020/01/31 14:55:49.0	0.340	-0.230	0.160	-0.270
2020/01/31 14:55:49.1	0.340	-0.280	0.140	-0.330
2020/01/31 14:55:49.2	0.340	-0.340	0.120	-0.380
2020/01/31 14:55:49.3	0.350	-0.390	0.100	-0.440
2020/01/31 14:55:49.4	0.350	-0.430	0.080	-0.500
2020/01/31 14:55:49.5	0.360	-0.480	0.050	-0.560
2020/01/31 14:55:49.6	0.370	-0.520	0.020	-0.620
2020/01/31 14:55:49.7	0.380	-0.560	0.000	-0.680
2020/01/31 14:55:49.8	0.390	-0.600	-0.030	-0.740
2020/01/31 14:55:49.9	0.410	-0.630	-0.050	-0.790
2020/01/31 14:55:50.0	0.420	-0.660	-0.080	-0.840
2020/01/31 14:55:50.1	0.430	-0.690	-0.110	-0.890
2020/01/31 14:55:50.2	0.440	-0.710	-0.130	-0.930
2020/01/31 14:55:50.3	0.450	-0.730	-0.150	-0.970
2020/01/31 14:55:50.4	0.460	-0.740	-0.180	-1.010
2020/01/31 14:55:50.5	0.470	-0.750	-0.190	-1.050
2020/01/31 14:55:50.6	0.470	-0.760	-0.210	-1.080
2020/01/31 14:55:50.7	0.480	-0.760	-0.220	-1.100
2020/01/31 14:55:50.8	0.480	-0.760	-0.240	-1.120
2020/01/31 14:55:50.9	0.480	-0.750	-0.250	-1.140
2020/01/31 14:55:51.0	0.470	-0.740	-0.250	-1.160
2020/01/31 14:55:51.1	0.470	-0.730	-0.260	-1.170
2020/01/31 14:55:51.2	0.460	-0.710	-0.260	-1.180
2020/01/31 14:55:51.3	0.450	-0.690	-0.260	-1.180
2020/01/31 14:55:51.4	0.440	-0.660	-0.260	-1.180
2020/01/31 14:55:51.5	0.430	-0.630	-0.250	-1.180
2020/01/31 14:55:51.6	0.420	-0.600	-0.250	-1.170
2020/01/31 14:55:51.7	0.400	-0.570	-0.240	-1.170
2020/01/31 14:55:51.8	0.380	-0.540	-0.240	-1.150
2020/01/31 14:55:51.9	0.370	-0.500	-0.230	-1.140
2020/01/31 14:55:52.0	0.350	-0.470	-0.230	-1.120
2020/01/31 14:55:52.1	0.330	-0.430	-0.220	-1.090
2020/01/31 14:55:52.2	0.310	-0.390	-0.210	-1.070
2020/01/31 14:55:52.3	0.290	-0.350	-0.210	-1.040
2020/01/31 14:55:52.4	0.280	-0.310	-0.200	-1.020
2020/01/31 14:55:52.5	0.260	-0.270	-0.200	-0.990
2020/01/31 14:55:52.6	0.250	-0.230	-0.200	-0.960
2020/01/31 14:55:52.7	0.240	-0.190	-0.200	-0.920
2020/01/31 14:55:52.8	0.230	-0.150	-0.210	-0.890
2020/01/31 14:55:52.9	0.220	-0.110	-0.210	-0.860
2020/01/31 14:55:53.0	0.210	-0.070	-0.220	-0.830
2020/01/31 14:55:53.1	0.210	-0.030	-0.230	-0.810
2020/01/31 14:55:53.2	0.210	0.000	-0.240	-0.780
2020/01/31 14:55:53.3	0.200	0.040	-0.250	-0.750
2020/01/31 14:55:53.4	0.210	0.070	-0.260	-0.730
2020/01/31 14:55:53.5	0.210	0.100	-0.280	-0.710
2020/01/31 14:55:53.6	0.210	0.120	-0.290	-0.690
2020/01/31 14:55:53.7	0.210	0.150	-0.310	-0.670
2020/01/31 14:55:53.8	0.220	0.170	-0.320	-0.650
2020/01/31 14:55:53.9	0.220	0.190	-0.340	-0.640
2020/01/31 14:55:54.0	0.230	0.210	-0.350	-0.630
2020/01/31 14:55:54.1	0.230	0.230	-0.370	-0.620
2020/01/31 14:55:54.2	0.240	0.240	-0.390	-0.610
2020/01/31 14:55:54.3	0.240	0.250	-0.400	-0.600
2020/01/31 14:55:54.4	0.250	0.260	-0.410	-0.600
2020/01/31 14:55:54.5	0.250	0.270	-0.420	-0.590
2020/01/31 14:55:54.6	0.250	0.270	-0.430	-0.590
2020/01/31 14:55:54.7	0.260	0.270	-0.440	-0.580
2020/01/31 14:55:54.8	0.260	0.270	-0.440	-0.580
2020/01/31 14:55:54.9	0.270	0.270	-0.440	-0.570
2020/01/31 14:55:55.0	0.270	0.260	-0.440	-0.560
2020/01/31 14:55:55.1	0.270	0.250	-0.440	-0.550
2020/01/31 14:55:55.2	0.260	0.250	-0.430	-0.540
2020/01/31 14:55:55.3	0.260	0.240	-0.420	-0.530
2020/01/31 14:55:55.4	0.260	0.220	-0.410	-0.510
2020/01/31 14:55:55.5	0.250	0.210	-0.390	-0.500
2020/01/31 14:55:55.6	0.240	0.200	-0.370	-0.480
2020/01/31 14:55:55.7	0.240	0.190	-0.350	-0.460
2020/01/31 14:55:55.8	0.230	0.170	-0.340	-0.440
2020/01/31 14:55:55.9	0.220	0.160	-0.320	-0.420
2020/01/31 14:55:56.0	0.210	0.140	-0.300	-0.400
2020/01/31 14:55:56.1	0.200	0.130	-0.280	-0.380
2020/01/31 14:55:56.2	0.190	0.120	-0.260	-0.360
2020/01/31 14:55:56.3	0.180	0.110	-0.250	-0.330
2020/01/31 14:55:56.4	0.170	0.100	-0.240	-0.310
2020/01/31 14:55:56.5	0.170	0.090	-0.230	-0.290
2020/01/31 14:55:56.6	0.160	0.080	-0.230	-0.270
2020/01/31 14:55:56.7	0.150	0.080	-0.220	-0.250
2020/01/31 14:55:56.8	0.150	0.080	-0.220	-0.230
2020/01/31 14:55:56.9	0.150	0.080	-0.230	-0.220
2020/01/31 14:55:57.0	0.150	0.080	-0.240	-0.200
2020/01/31 14:55:57.1	0.150	0.090	-0.260	-0.190
2020/01/31 14:55:57.2	0.160	0.090	-0.280	-0.180
2020/01/31 14:55:57.3	0.160	0.110	-0.300	-0.170
2020/01/31 14:55:57.4	0.170	0.120	-0.330	-0.160
2020/01/31 14:55:57.5	0.170	0.140	-0.350	-0.160
2020/01/31 14:55:57.6	0.180	0.150	-0.390	-0.160
2020/01/31 14:55:57.7	0.190	0.170	-0.420	-0.160
2020/01/31 14:55:57.8	0.200	0.190	-0.450	-0.160
2020/01/31 14:55:57.9	0.210	0.220	-0.490	-0.160
2020/01/31 14:55:58.0	0.210	0.240	-0.520	-0.160
2020/01/31 14:55:58.1	0.220	0.260	-0.550	-0.160
2020/01/31 14:55:58.2	0.230	0.290	-0.580	-0.160
2020/01/31 14:55:58.3	0.230	0.310	-0.610	-0.160
2020/01/31 14:55:58.4	0.230	0.340	-0.640	-0.160
2020/01/31 14:55:58.5	0.230	0.360	-0.660	-0.160
2020/01/31 14:55:58.6	0.230	0.380	-0.670	-0.160
2020/01/31 14:55:58.7	0.230	0.400	-0.680	-0.160
2020/01/31 14:55:58.8	0.230	0.420	-0.690	-0.160
2020/01/31 14:55:58.9	0.230	0.430	-0.700	-0.150
2020/01/31 14:55:59.0	0.220	0.450	-0.700	-0.140
2020/01/31 14:55:59.1	0.220	0.460	-0.690	-0.140
2020/01/31 14:55:59.2	0.210	0.460	-0.690	-0.130
2020/01/31 14:55:59.3	0.210	0.470	-0.670	-0.120
2020/01/31 14:55:59.4	0.200	0.470	-0.650	-0.110
2020/01/31 14:55:59.5	0.200	0.460	-0.630	-0.100
2020/01/31 14:55:59.6	0.200	0.450	-0.610	-0.090
2020/01/31 14:55:59.7	0.190	0.440	-0.580	-0.090
2020/01/31 14:55:59.8	0.190	0.420	-0.540	-0.080
2020/01/31 14:55:59.9	0.180	0.400	-0.510	-0.070
2020/01/31 14:56:00.0	0.180	0.380	-0.470	-0.070
2020/01/31 14:56:00.1	0.180	0.350	-0.420	-0.070
2020/01/31 14:56:00.2	0.180	0.320	-0.380	-0.070
2020/01/31 14:56:00.3	0.180	0.280	-0.340	-0.080
2020/01/31 14:56:00.4	0.190	0.240	-0.290	-0.090
2020/01/31 14:56:00.5	0.190	0.190	-0.250	-0.100
2020/01/31 14:56:00.6	0.200	0.150	-0.200	-0.120
2020/01/31 14:56:00.7	0.210	0.100	-0.160	-0.150
2020/01/31 14:56:00.8	0.210	0.040	-0.110	-0.180
2020/01/31 14:56:00.9	0.220	-0.010	-0.070	-0.210
2020/01/31 14:56:01.0	0.230	-0.070	-0.030	-0.250
2020/01/31 14:56:01.1	0.230	-0.130	0.010	-0.290
2020/01/31 14:56:01.2	0.240	-0.180	0.050	-0.330
2020/01/31 14:56:01.3	0.250	-0.240	0.090	-0.370
2020/01/31 14:56:01.4	0.250	-0.300	0.120	-0.420
2020/01/31 14:56:01.5	0.260	-0.360	0.160	-0.460
2020/01/31 14:56:01.6	0.260	-0.420	0.190	-0.510
2020/01/31 14:56:01.7	0.250	-0.470	0.220	-0.560
2020/01/31 14:56:01.8	0.250	-0.520	0.250	-0.600
2020/01/31 14:56:01.9	0.250	-0.570	0.280	-0.640
2020/01/31 14:56:02.0	0.250	-0.620	0.300	-0.680
2020/01/31 14:56:02.1	0.240	-0.670	0.330	-0.710
2020/01/31 14:56:02.2	0.240	-0.710	0.350	-0.750
2020/01/31 14:56:02.3	0.230	-0.740	0.370	-0.770
2020/01/31 14:56:02.4	0.220	-0.770	0.390	-0.800
2020/01/31 14:56:02.5	0.220	-0.800	0.410	-0.820
2020/01/31 14:56:02.6	0.210	-0.820	0.420	-0.840
2020/01/31 14:56:02.7	0.190	-0.840	0.430	-0.850
2020/01/31 14:56:02.8	0.180	-0.850	0.440	-0.860
2020/01/31 14:56:02.9	0.170	-0.850	0.450	-0.860
2020/01/31 14:56:03.0	0.150	-0.850	0.450	-0.860
2020/01/31 14:56:03.1	0.140	-0.840	0.450	-0.860
2020/01/31 14:56:03.2	0.120	-0.830	0.450	-0.850
2020/01/31 14:56:03.3	0.100	-0.810	0.440	-0.830
2020/01/31 14:56:03.4	0.090	-0.790	0.420	-0.820
2020/01/31 14:56:03.5	0.070	-0.760	0.400	-0.800
2020/01/31 14:56:03.6	0.050	-0.720	0.380	-0.780
2020/01/31 14:56:03.7	0.030	-0.680	0.360	-0.760
2020/01/31 14:56:03.8	0.020	-0.630	0.320	-0.730
2020/01/31 14:56:03.9	0.010	-0.580	0.280	-0.710
2020/01/31 14:56:04.0	0.000	-0.530	0.240	-0.680
2020/01/31 14:56:04.1	359.990	-0.470	0.190	-0.660
2020/01/31 14:56:04.2	359.980	-0.400	0.140	-0.630
2020/01/31 14:56:04.3	359.980	-0.340	0.080	-0.600
2020/01/31 14:56:04.4	359.980	-0.270	0.020	-0.570
2020/01/31 14:56:04.5	359.970	-0.200	-0.040	-0.550
2020/01/31 14:56:04.6	359.970	-0.120	-0.100	-0.520
2020/01/31 14:56:04.7	359.980	-0.050	-0.170	-0.490
2020/01/31 14:56:04.8	359.980	0.020	-0.240	-0.460
2020/01/31 14:56:04.9	359.990	0.100	-0.300	-0.430
2020/01/31 14:56:05.0	359.990	0.170	-0.370	-0.400
2020/01/31 14:56:05.1	0.000	0.240	-0.430	-0.370
2020/01/31 14:56:05.2	0.000	0.310	-0.490	-0.330
2020/01/31 14:56:05.3	0.010	0.370	-0.550	-0.300
2020/01/31 14:56:05.4	0.010	0.440	-0.600	-0.260
2020/01/31 14:56:05.5	0.020	0.490	-0.650	-0.230
2020/01/31 14:56:05.6	0.020	0.550	-0.690	-0.190
2020/01/31 14:56:05.7	0.020	0.600	-0.730	-0.160
2020/01/31 14:56:05.8	0.020	0.640	-0.760	-0.130
2020/01/31 14:56:05.9	0.020	0.680	-0.780	-0.090
2020/01/31 14:56:06.0	0.020	0.710	-0.800	-0.060
2020/01/31 14:56:06.1	0.020	0.730	-0.810	-0.030
2020/01/31 14:56:06.2	0.010	0.750	-0.810	0.010
2020/01/31 14:56:06.3	0.010	0.760	-0.800	0.040
2020/01/31 14:56:06.4	0.000	0.770	-0.790	0.060
2020/01/31 14:56:06.5	0.000	0.760	-0.770	0.090
2020/01/31 14:56:06.6	359.990	0.760	-0.750	0.110
2020/01/31 14:56:06.7	359.980	0.740	-0.720	0.140
2020/01/31 14:56:06.8	359.980	0.720	-0.680	0.160
2020/01/31 14:56:06.9	359.970	0.690	-0.640	0.170
2020/01/31 14:56:07.0	359.960	0.660	-0.600	0.180
2020/01/31 14:56:07.1	359.960	0.620	-0.560	0.190
2020/01/31 14:56:07.2	359.950	0.580	-0.520	0.200
2020/01/31 14:56:07.3	359.950	0.540	-0.470	0.200
2020/01/31 14:56:07.4	359.950	0.480	-0.430	0.200
2020/01/31 14:56:07.5	359.940	0.430	-0.390	0.190
2020/01/31 14:56:07.6	359.940	0.370	-0.350	0.180
2020/01/31 14:56:07.7	359.940	0.320	-0.310	0.160
2020/01/31 14:56:07.8	359.940	0.260	-0.270	0.140
2020/01/31 14:56:07.9	359.940	0.190	-0.240	0.120
2020/01/31 14:56:08.0	359.950	0.130	-0.210	0.090
2020/01/31 14:56:08.1	359.950	0.070	-0.180	0.070
2020/01/31 14:56:08.2	359.960	0.010	-0.160	0.030
2020/01/31 14:56:08.3	359.960	-0.050	-0.140	0.000
2020/01/31 14:56:08.4	359.970	-0.100	-0.130	-0.040
2020/01/31 14:56:08.5	359.980	-0.160	-0.120	-0.070
2020/01/31 14:56:08.6	359.980	-0.210	-0.120	-0.110
2020/01/31 14:56:08.7	359.980	-0.260	-0.120	-0.160
2020/01/31 14:56:08.8	0.000	-0.300	-0.120	-0.200
2020/01/31 14:56:08.9	0.010	-0.340	-0.140	-0.240
2020/01/31 14:56:09.0	0.020	-0.380	-0.150	-0.290
2020/01/31 14:56:09.1	0.030	-0.410	-0.170	-0.330
2020/01/31 14:56:09.2	0.050	-0.430	-0.200	-0.380
2020/01/31 14:56:09.3	0.060	-0.450	-0.220	-0.420
2020/01/31 14:56:09.4	0.080	-0.470	-0.250	-0.460
2020/01/31 14:56:09.5	0.090	-0.480	-0.280	-0.510
2020/01/31 14:56:09.6	0.110	-0.480	-0.310	-0.550
2020/01/31 14:56:09.7	0.120	-0.480	-0.340	-0.600
2020/01/31 14:56:09.8	0.140	-0.480	-0.370	-0.640
2020/01/31 14:56:09.9	0.150	-0.470	-0.400	-0.680
2020/01/31 14:56:10.0	0.160	-0.460	-0.430	-0.720
2020/01/31 14:56:10.1	0.170	-0.450	-0.460	-0.750
2020/01/31 14:56:10.2	0.180	-0.430	-0.490	-0.790
2020/01/31 14:56:10.3	0.190	-0.400	-0.510	-0.820
2020/01/31 14:56:10.4	0.200	-0.380	-0.530	-0.840
2020/01/31 14:56:10.5	0.200	-0.350	-0.540	-0.860
2020/01/31 14:56:10.6	0.210	-0.320	-0.550	-0.880
2020/01/31 14:56:10.7	0.210	-0.290	-0.560	-0.900
2020/01/31 14:56:10.8	0.220	-0.250	-0.560	-0.910
2020/01/31 14:56:10.9	0.220	-0.220	-0.570	-0.920
2020/01/31 14:56:11.0	0.220	-0.190	-0.570	-0.930
2020/01/31 14:56:11.1	0.220	-0.150	-0.560	-0.930
2020/01/31 14:56:11.2	0.220	-0.120	-0.550	-0.930
2020/01/31 14:56:11.3	0.220	-0.090	-0.550	-0.930
2020/01/31 14:56:11.4	0.220	-0.050	-0.530	-0.920
2020/01/31 14:56:11.5	0.220	-0.020	-0.520	-0.920
2020/01/31 14:56:11.6	0.220	0.010	-0.510	-0.900
2020/01/31 14:56:11.7	0.220	0.040	-0.490	-0.890
2020/01/31 14:56:11.8	0.230	0.060	-0.470	-0.870
2020/01/31 14:56:11.9	0.230	0.090	-0.450	-0.850
2020/01/31 14:56:12.0	0.230	0.110	-0.430	-0.830
2020/01/31 14:56:12.1	0.240	0.130	-0.410	-0.810
2020/01/31 14:56:12.2	0.240	0.150	-0.390	-0.780
2020/01/31 14:56:12.3	0.240	0.160	-0.370	-0.750
2020/01/31 14:56:12.4	0.250	0.180	-0.350	-0.720
2020/01/31 14:56:12.5	0.250	0.190	-0.320	-0.690
2020/01/31 14:56:12.6	0.260	0.190	-0.300	-0.660
2020/01/31 14:56:12.7	0.260	0.200	-0.280	-0.630
2020/01/31 14:56:12.8	0.270	0.200	-0.250	-0.600
2020/01/31 14:56:12.9	0.270	0.200	-0.230	-0.570
2020/01/31 14:56:13.0	0.280	0.200	-0.200	-0.540
2020/01/31 14:56:13.1	0.280	0.190	-0.180	-0.510
2020/01/31 14:56:13.2	0.290	0.180	-0.150	-0.480
2020/01/31 14:56:13.3	0.290	0.170	-0.120	-0.450
2020/01/31 14:56:13.4	0.290	0.160	-0.100	-0.420
2020/01/31 14:56:13.5	0.290	0.150	-0.070	-0.390
2020/01/31 14:56:13.6	0.290	0.130	-0.040	-0.360
2020/01/31 14:56:13.7	0.280	0.120	-0.010	-0.340
2020/01/31 14:56:13.8	0.280	0.100	0.010	-0.320
2020/01/31 14:56:13.9	0.270	0.080	0.040	-0.290
2020/01/31 14:56:14.0	0.270	0.060	0.060	-0.270
2020/01/31 14:56:14.1	0.260	0.050	0.090	-0.240
2020/01/31 14:56:14.2	0.250	0.030	0.110	-0.220
2020/01/31 14:56:14.3	0.240	0.010	0.130	-0.190
2020/01/31 14:56:14.4	0.220	-0.000	0.150	-0.160
2020/01/31 14:56:14.5	0.210	-0.020	0.170	-0.140
2020/01/31 14:56:14.6	0.190	-0.030	0.190	-0.110
2020/01/31 14:56:14.7	0.180	-0.040	0.200	-0.080
2020/01/31 14:56:14.8	0.160	-0.050	0.210	-0.060
2020/01/31 14:56:14.9	0.150	-0.060	0.220	-0.030
2020/01/31 14:56:15.0	0.130	-0.070	0.220	0.000
2020/01/31 14:56:15.1	0.110	-0.070	0.220	0.030
2020/01/31 14:56:15.2	0.100	-0.070	0.220	0.050
2020/01/31 14:56:15.3	0.080	-0.070	0.210	0.080
2020/01/31 14:56:15.4	0.070	-0.070	0.200	0.100
2020/01/31 14:56:15.5	0.060	-0.060	0.190	0.120
2020/01/31 14:56:15.6	0.050	-0.050	0.170	0.140
2020/01/31 14:56:15.7	0.030	-0.040	0.150	0.160
2020/01/31 14:56:15.8	0.030	-0.030	0.130	0.170
2020/01/31 14:56:15.9	0.020	-0.010	0.100	0.190
2020/01/31 14:56:16.0	0.020	0.000	0.070	0.200
2020/01/31 14:56:16.1	0.020	0.020	0.040	0.200
2020/01/31 14:56:16.2	0.020	0.040	0.010	0.210
2020/01/31 14:56:16.3	0.020	0.070	-0.030	0.210
2020/01/31 14:56:16.4	0.020	0.090	-0.070	0.210
2020/01/31 14:56:16.5	0.030	0.110	-0.110	0.200
2020/01/31 14:56:16.6	0.030	0.140	-0.140	0.190
2020/01/31 14:56:16.7	0.030	0.160	-0.180	0.180
2020/01/31 14:56:16.8	0.040	0.190	-0.210	0.170
2020/01/31 14:56:16.9	0.050	0.210	-0.250	0.160
2020/01/31 14:56:17.0	0.050	0.240	-0.280	0.150
2020/01/31 14:56:17.1	0.060	0.260	-0.310	0.140
2020/01/31 14:56:17.2	0.060	0.280	-0.340	0.120
2020/01/31 14:56:17.3	0.070	0.300	-0.360	0.110
2020/01/31 14:56:17.4	0.070	0.320	-0.380	0.100
2020/01/31 14:56:17.5	0.070	0.330	-0.400	0.090
2020/01/31 14:56:17.6	0.080	0.350	-0.410	0.080
2020/01/31 14:56:17.7	0.080	0.360	-0.420	0.070
2020/01/31 14:56:17.8	0.080	0.360	-0.430	0.060
2020/01/31 14:56:17.9	0.080	0.370	-0.430	0.050
2020/01/31 14:56:18.0	0.070	0.370	-0.420	0.040
2020/01/31 14:56:18.1	0.070	0.360	-0.420	0.040
2020/01/31 14:56:18.2	0.070	0.360	-0.400	0.030
2020/01/31 14:56:18.3	0.060	0.350	-0.390	0.030
2020/01/31 14:56:18.4	0.060	0.330	-0.370	0.020
2020/01/31 14:56:18.5	0.050	0.320	-0.350	0.020
2020/01/31 14:56:18.6	0.040	0.300	-0.330	0.010
2020/01/31 14:56:18.7	0.030	0.270	-0.300	0.000
2020/01/31 14:56:18.8	0.020	0.250	-0.280	-0.010
2020/01/31 14:56:18.9	0.010	0.220	-0.260	-0.020
2020/01/31 14:56:19.0	0.000	0.190	-0.230	-0.030
2020/01/31 14:56:19.1	359.990	0.150	-0.210	-0.040
2020/01/31 14:56:19.2	359.970	0.120	-0.180	-0.050
2020/01/31 14:56:19.3	359.960	0.080	-0.160	-0.060
2020/01/31 14:56:19.4	359.950	0.040	-0.140	-0.080
2020/01/31 14:56:19.5	359.930	0.010	-0.120	-0.090
2020/01/31 14:56:19.6	359.920	-0.030	-0.100	-0.110
2020/01/31 14:56:19.7	359.890	-0.070	-0.090	-0.140
2020/01/31 14:56:19.8	359.880	-0.110	-0.070	-0.160
2020/01/31 14:56:19.9	359.860	-0.150	-0.060	-0.180
2020/01/31 14:56:20.0	359.850	-0.180	-0.060	-0.210
2020/01/31 14:56:20.1	359.830	-0.220	-0.050	-0.240
2020/01/31 14:56:20.2	359.820	-0.250	-0.050	-0.270
2020/01/31 14:56:20.3	359.810	-0.280	-0.060	-0.300
2020/01/31 14:56:20.4	359.800	-0.300	-0.070	-0.330
2020/01/31 14:56:20.5	359.790	-0.330	-0.080	-0.360
2020/01/31 14:56:20.6	359.780	-0.350	-0.090	-0.400
2020/01/31 14:56:20.7	359.770	-0.370	-0.110	-0.430
2020/01/31 14:56:20.8	359.770	-0.380	-0.130	-0.470
2020/01/31 14:56:20.9	359.770	-0.390	-0.150	-0.510
2020/01/31 14:56:21.0	359.780	-0.400	-0.180	-0.550
2020/01/31 14:56:21.1	359.780	-0.410	-0.210	-0.590
2020/01/31 14:56:21.2	359.790	-0.410	-0.240	-0.630
2020/01/31 14:56:21.3	359.810	-0.410	-0.280	-0.680
2020/01/31 14:56:21.4	359.820	-0.400	-0.310	-0.720
2020/01/31 14:56:21.5	359.840	-0.390	-0.350	-0.770
2020/01/31 14:56:21.6	359.860	-0.380	-0.390	-0.820
2020/01/31 14:56:21.7	359.890	-0.370	-0.430	-0.860
2020/01/31 14:56:21.8	359.910	-0.350	-0.470	-0.900
2020/01/31 14:56:21.9	359.930	-0.340	-0.500	-0.950
2020/01/31 14:56:22.0	359.960	-0.320	-0.540	-0.990
2020/01/31 14:56:22.1	359.980	-0.300	-0.580	-1.030
2020/01/31 14:56:22.2	0.010	-0.270	-0.610	-1.060
2020/01/31 14:56:22.3	0.030	-0.250	-0.650	-1.100
2020/01/31 14:56:22.4	0.060	-0.230	-0.680	-1.130
2020/01/31 14:56:22.5	0.080	-0.210	-0.710	-1.160
2020/01/31 14:56:22.6	0.110	-0.180	-0.740	-1.180
2020/01/31 14:56:22.7	0.140	-0.160	-0.760	-1.200
2020/01/31 14:56:22.8	0.160	-0.140	-0.780	-1.220
2020/01/31 14:56:22.9	0.180	-0.120	-0.800	-1.240
2020/01/31 14:56:23.0	0.200	-0.100	-0.810	-1.250
2020/01/31 14:56:23.1	0.220	-0.080	-0.820	-1.250
2020/01/31 14:56:23.2	0.240	-0.070	-0.830	-1.260
2020/01/31 14:56:23.3	0.260	-0.050	-0.840	-1.260
2020/01/31 14:56:23.4	0.280	-0.040	-0.840	-1.260
2020/01/31 14:56:23.5	0.300	-0.030	-0.840	-1.250
2020/01/31 14:56:23.6	0.310	-0.020	-0.830	-1.240
2020/01/31 14:56:23.7	0.330	-0.010	-0.820	-1.230
2020/01/31 14:56:23.8	0.340	-0.000	-0.810	-1.220
2020/01/31 14:56:23.9	0.350	0.000	-0.800	-1.200
2020/01/31 14:56:24.0	0.360	0.000	-0.780	-1.190
2020/01/31 14:56:24.1	0.360	0.000	-0.760	-1.170
2020/01/31 14:56:24.2	0.370	0.000	-0.740	-1.140
2020/01/31 14:56:24.3	0.370	0.000	-0.710	-1.120
2020/01/31 14:56:24.4	0.360	-0.000	-0.680	-1.090
2020/01/31 14:56:24.5	0.360	-0.010	-0.650	-1.070
2020/01/31 14:56:24.6	0.350	-0.010	-0.620	-1.040
2020/01/31 14:56:24.7	0.340	-0.020	-0.580	-1.000
2020/01/31 14:56:24.8	0.330	-0.020	-0.540	-0.960
2020/01/31 14:56:24.9	0.320	-0.030	-0.500	-0.920
2020/01/31 14:56:25.0	0.300	-0.030	-0.460	-0.880
2020/01/31 14:56:25.1	0.280	-0.040	-0.410	-0.830
2020/01/31 14:56:25.2	0.260	-0.040	-0.360	-0.780
2020/01/31 14:56:25.3	0.240	-0.050	-0.320	-0.730
2020/01/31 14:56:25.4	0.220	-0.050	-0.270	-0.670
2020/01/31 14:56:25.5	0.190	-0.050	-0.220	-0.620
2020/01/31 14:56:25.6	0.170	-0.050	-0.170	-0.550
2020/01/31 14:56:25.7	0.140	-0.040	-0.130	-0.490
2020/01/31 14:56:25.8	0.110	-0.040	-0.080	-0.430
2020/01/31 14:56:25.9	0.090	-0.030	-0.040	-0.360
2020/01/31 14:56:26.0	0.060	-0.020	0.000	-0.300
2020/01/31 14:56:26.1	0.040	-0.010	0.040	-0.230
2020/01/31 14:56:26.2	0.010	0.000	0.070	-0.170
2020/01/31 14:56:26.3	359.980	0.020	0.110	-0.100
2020/01/31 14:56:26.4	359.960	0.040	0.140	-0.040
2020/01/31 14:56:26.5	359.930	0.060	0.170	0.030
2020/01/31 14:56:26.6	359.910	0.080	0.190	0.090
2020/01/31 14:56:26.7	359.890	0.110	0.210	0.140
2020/01/31 14:56:26.8	359.860	0.140	0.230	0.200
2020/01/31 14:56:26.9	359.840	0.170	0.250	0.260
2020/01/31 14:56:27.0	359.820	0.200	0.260	0.310
2020/01/31 14:56:27.1	359.810	0.230	0.270	0.350
2020/01/31 14:56:27.2	359.790	0.260	0.280	0.400
2020/01/31 14:56:27.3	359.780	0.290	0.290	0.440
2020/01/31 14:56:27.4	359.770	0.320	0.290	0.480
2020/01/31 14:56:27.5	359.760	0.360	0.290	0.510
2020/01/31 14:56:27.6	359.750	0.390	0.290	0.530
2020/01/31 14:56:27.7	359.740	0.420	0.290	0.560
2020/01/31 14:56:27.8	359.730	0.450	0.280	0.580
2020/01/31 14:56:27.9	359.730	0.480	0.270	0.600
2020/01/31 14:56:28.0	359.720	0.510	0.260	0.620
2020/01/31 14:56:28.1	359.720	0.530	0.250	0.630
2020/01/31 14:56:28.2	359.710	0.560	0.240	0.650
2020/01/31 14:56:28.3	359.700	0.580	0.230	0.670
2020/01/31 14:56:28.4	359.690	0.590	0.220	0.680
2020/01/31 14:56:28.5	359.690	0.610	0.200	0.700
2020/01/31 14:56:28.6	359.660	0.620	0.190	0.710
2020/01/31 14:56:28.7	359.650	0.630	0.170	0.720
2020/01/31 14:56:28.8	359.640	0.630	0.150	0.730
2020/01/31 14:56:28.9	359.620	0.630	0.140	0.740
2020/01/31 14:56:29.0	359.610	0.630	0.120	0.750
2020/01/31 14:56:29.1	359.600	0.620	0.100	0.760
2020/01/31 14:56:29.2	359.580	0.610	0.080	0.760
2020/01/31 14:56:29.3	359.570	0.600	0.050	0.760
2020/01/31 14:56:29.4	359.550	0.580	0.030	0.750
2020/01/31 14:56:29.5	359.540	0.550	0.010	0.750
2020/01/31 14:56:29.6	359.520	0.530	-0.010	0.730
2020/01/31 14:56:29.7	359.510	0.500	-0.040	0.710
2020/01/31 14:56:29.8	359.500	0.460	-0.060	0.690
2020/01/31 14:56:29.9	359.490	0.430	-0.080	0.670
2020/01/31 14:56:30.0	359.470	0.390	-0.100	0.640
2020/01/31 14:56:30.1	359.460	0.350	-0.120	0.600
2020/01/31 14:56:30.2	359.450	0.300	-0.140	0.570
2020/01/31 14:56:30.3	359.440	0.260	-0.160	0.530
2020/01/31 14:56:30.4	359.430	0.210	-0.180	0.480
2020/01/31 14:56:30.5	359.420	0.160	-0.190	0.440
2020/01/31 14:56:30.6	359.410	0.100	-0.200	0.390
2020/01/31 14:56:30.7	359.400	0.050	-0.210	0.340
2020/01/31 14:56:30.8	359.390	-0.000	-0.220	0.280
2020/01/31 14:56:30.9	359.380	-0.060	-0.230	0.220
2020/01/31 14:56:31.0	359.370	-0.110	-0.230	0.160
2020/01/31 14:56:31.1	359.370	-0.170	-0.240	0.100
2020/01/31 14:56:31.2	359.360	-0.220	-0.240	0.040
2020/01/31 14:56:31.3	359.350	-0.280	-0.250	-0.030
2020/01/31 14:56:31.4	359.350	-0.330	-0.250	-0.100
2020/01/31 14:56:31.5	359.350	-0.380	-0.260	-0.170
2020/01/31 14:56:31.6	359.340	-0.430	-0.270	-0.240
2020/01/31 14:56:31.7	359.350	-0.480	-0.270	-0.320
2020/01/31 14:56:31.8	359.350	-0.530	-0.280	-0.390
2020/01/31 14:56:31.9	359.360	-0.580	-0.300	-0.470
2020/01/31 14:56:32.0	359.370	-0.620	-0.310	-0.550
2020/01/31 14:56:32.1	359.380	-0.660	-0.330	-0.630
2020/01/31 14:56:32.2	359.400	-0.700	-0.350	-0.710
2020/01/31 14:56:32.3	359.410	-0.730	-0.370	-0.790
2020/01/31 14:56:32.4	359.430	-0.760	-0.390	-0.870
2020/01/31 14:56:32.5	359.460	-0.790	-0.420	-0.950
2020/01/31 14:56:32.6	359.480	-0.820	-0.440	-1.030
2020/01/31 14:56:32.7	359.500	-0.840	-0.470	-1.110
2020/01/31 14:56:32.8	359.530	-0.850	-0.500	-1.190
2020/01/31 14:56:32.9	359.560	-0.860	-0.540	-1.270
2020/01/31 14:56:33.0	359.590	-0.870	-0.570	-1.340
2020/01/31 14:56:33.1	359.620	-0.880	-0.600	-1.420
2020/01/31 14:56:33.2	359.650	-0.880	-0.640	-1.490
2020/01/31 14:56:33.3	359.680	-0.870	-0.670	-1.550
2020/01/31 14:56:33.4	359.720	-0.860	-0.710	-1.620
2020/01/31 14:56:33.5	359.750	-0.850	-0.740	-1.680
2020/01/31 14:56:33.6	359.790	-0.830	-0.780	-1.740
2020/01/31 14:56:33.7	359.830	-0.810	-0.810	-1.790
2020/01/31 14:56:33.8	359.860	-0.780	-0.840	-1.830
2020/01/31 14:56:33.9	359.900	-0.750	-0.860	-1.870
2020/01/31 14:56:34.0	359.940	-0.720	-0.890	-1.900
2020/01/31 14:56:34.1	359.980	-0.680	-0.910	-1.920
2020/01/31 14:56:34.2	0.010	-0.640	-0.920	-1.940
2020/01/31 14:56:34.3	0.050	-0.590	-0.930	-1.940
2020/01/31 14:56:34.4	0.080	-0.550	-0.940	-1.940
2020/01/31 14:56:34.5	0.110	-0.500	-0.940	-1.920
2020/01/31 14:56:34.6	0.140	-0.440	-0.930	-1.900
2020/01/31 14:56:34.7	0.170	-0.390	-0.920	-1.870
2020/01/31 14:56:34.8	0.190	-0.330	-0.900	-1.830
2020/01/31 14:56:34.9	0.200	-0.270	-0.880	-1.770
2020/01/31 14:56:35.0	0.210	-0.210	-0.850	-1.710
2020/01/31 14:56:35.1	0.220	-0.150	-0.820	-1.640
2020/01/31 14:56:35.2	0.220	-0.090	-0.780	-1.560
2020/01/31 14:56:35.3	0.210	-0.030	-0.730	-1.480
2020/01/31 14:56:35.4	0.200	0.030	-0.680	-1.380
2020/01/31 14:56:35.5	0.190	0.080	-0.630	-1.290
2020/01/31 14:56:35.6	0.170	0.140	-0.580	-1.180
2020/01/31 14:56:35.7	0.150	0.200	-0.520	-1.070
2020/01/31 14:56:35.8	0.120	0.250	-0.460	-0.960
2020/01/31 14:56:35.9	0.090	0.300	-0.400	-0.850
2020/01/31 14:56:36.0	0.050	0.340	-0.330	-0.730
2020/01/31 14:56:36.1	0.010	0.390	-0.270	-0.620
2020/01/31 14:56:36.2	359.970	0.430	-0.210	-0.510
2020/01/31 14:56:36.3	359.930	0.470	-0.160	-0.400
2020/01/31 14:56:36.4	359.890	0.500	-0.100	-0.290
2020/01/31 14:56:36.5	359.840	0.530	-0.050	-0.190
2020/01/31 14:56:36.6	359.800	0.560	-0.000	-0.090
2020/01/31 14:56:36.7	359.750	0.580	0.040	0.010
2020/01/31 14:56:36.8	359.710	0.600	0.080	0.100
2020/01/31 14:56:36.9	359.670	0.620	0.120	0.190
2020/01/31 14:56:37.0	359.640	0.640	0.150	0.270
2020/01/31 14:56:37.1	359.600	0.650	0.170	0.340
2020/01/31 14:56:37.2	359.570	0.650	0.190	0.410
2020/01/31 14:56:37.3	359.540	0.660	0.200	0.470
2020/01/31 14:56:37.4	359.520	0.660	0.200	0.520
2020/01/31 14:56:37.5	359.500	0.660	0.200	0.570
2020/01/31 14:56:37.6	359.470	0.650	0.190	0.600
2020/01/31 14:56:37.7	359.460	0.650	0.180	0.630
2020/01/31 14:56:37.8	359.450	0.640	0.160	0.650
2020/01/31 14:56:37.9	359.450	0.630	0.140	0.660
2020/01/31 14:56:38.0	359.450	0.620	0.110	0.670
2020/01/31 14:56:38.1	359.450	0.600	0.080	0.670
2020/01/31 14:56:38.2	359.460	0.590	0.050	0.660
2020/01/31 14:56:38.3	359.470	0.570	0.010	0.650
2020/01/31 14:56:38.4	359.490	0.560	-0.030	0.630
2020/01/31 14:56:38.5	359.510	0.540	-0.070	0.600
2020/01/31 14:56:38.6	359.530	0.520	-0.100	0.570
2020/01/31 14:56:38.7	359.550	0.500	-0.140	0.540
2020/01/31 14:56:38.8	359.570	0.470	-0.180	0.500
2020/01/31 14:56:38.9	359.600	0.450	-0.220	0.460
2020/01/31 14:56:39.0	359.620	0.430	-0.260	0.420
2020/01/31 14:56:39.1	359.650	0.400	-0.290	0.380
2020/01/31 14:56:39.2	359.670	0.380	-0.320	0.330
2020/01/31 14:56:39.3	359.700	0.350	-0.350	0.290
2020/01/31 14:56:39.4	359.720	0.330	-0.380	0.250
2020/01/31 14:56:39.5	359.740	0.300	-0.400	0.200
2020/01/31 14:56:39.6	359.770	0.280	-0.410	0.160
2020/01/31 14:56:39.7	359.790	0.250	-0.420	0.120
2020/01/31 14:56:39.8	359.810	0.220	-0.430	0.080
2020/01/31 14:56:39.9	359.830	0.200	-0.430	0.040
2020/01/31 14:56:40.0	359.840	0.170	-0.430	0.010
2020/01/31 14:56:40.1	359.860	0.140	-0.420	-0.030
2020/01/31 14:56:40.2	359.870	0.110	-0.420	-0.060
2020/01/31 14:56:40.3	359.880	0.080	-0.400	-0.090
2020/01/31 14:56:40.4	359.890	0.050	-0.390	-0.130
2020/01/31 14:56:40.5	359.900	0.020	-0.370	-0.160
2020/01/31 14:56:40.6	359.900	-0.010	-0.350	-0.190
2020/01/31 14:56:40.7	359.910	-0.040	-0.330	-0.220
2020/01/31 14:56:40.8	359.920	-0.060	-0.300	-0.250
2020/01/31 14:56:40.9	359.920	-0.090	-0.280	-0.290
2020/01/31 14:56:41.0	359.920	-0.120	-0.250	-0.320
2020/01/31 14:56:41.1	359.920	-0.150	-0.230	-0.350
2020/01/31 14:56:41.2	359.930	-0.180	-0.200	-0.370
2020/01/31 14:56:41.3	359.930	-0.200	-0.170	-0.400
2020/01/31 14:56:41.4	359.930	-0.220	-0.140	-0.430
2020/01/31 14:56:41.5	359.930	-0.250	-0.120	-0.450
2020/01/31 14:56:41.6	359.930	-0.270	-0.100	-0.480
2020/01/31 14:56:41.7	359.920	-0.290	-0.070	-0.510
2020/01/31 14:56:41.8	359.920	-0.310	-0.050	-0.530
2020/01/31 14:56:41.9	359.920	-0.320	-0.020	-0.540
2020/01/31 14:56:42.0	359.910	-0.340	0.000	-0.560
2020/01/31 14:56:42.1	359.910	-0.350	0.020	-0.570
2020/01/31 14:56:42.2	359.900	-0.360	0.050	-0.570
2020/01/31 14:56:42.3	359.890	-0.370	0.070	-0.580
2020/01/31 14:56:42.4	359.880	-0.380	0.090	-0.580
2020/01/31 14:56:42.5	359.860	-0.380	0.110	-0.570
2020/01/31 14:56:42.6	359.850	-0.390	0.130	-0.560
2020/01/31 14:56:42.7	359.820	-0.390	0.160	-0.550
2020/01/31 14:56:42.8	359.800	-0.390	0.180	-0.530
2020/01/31 14:56:42.9	359.780	-0.390	0.190	-0.510
2020/01/31 14:56:43.0	359.760	-0.390	0.210	-0.490
2020/01/31 14:56:43.1	359.740	-0.380	0.220	-0.470
2020/01/31 14:56:43.2	359.720	-0.380	0.240	-0.440
2020/01/31 14:56:43.3	359.700	-0.370	0.250	-0.410
2020/01/31 14:56:43.4	359.670	-0.360	0.250	-0.390
2020/01/31 14:56:43.5	359.650	-0.350	0.260	-0.360
2020/01/31 14:56:43.6	359.630	-0.340	0.260	-0.330
2020/01/31 14:56:43.7	359.600	-0.330	0.250	-0.290
2020/01/31 14:56:43.8	359.580	-0.320	0.250	-0.260
2020/01/31 14:56:43.9	359.560	-0.300	0.240	-0.230
2020/01/31 14:56:44.0	359.540	-0.290	0.220	-0.200
2020/01/31 14:56:44.1	359.520	-0.270	0.200	-0.180
2020/01/31 14:56:44.2	359.500	-0.250	0.180	-0.150
2020/01/31 14:56:44.3	359.490	-0.230	0.150	-0.130
2020/01/31 14:56:44.4	359.470	-0.210	0.120	-0.100
2020/01/31 14:56:44.5	359.460	-0.190	0.080	-0.080
2020/01/31 14:56:44.6	359.440	-0.170	0.040	-0.070
2020/01/31 14:56:44.7	359.430	-0.140	-0.010	-0.050
2020/01/31 14:56:44.8	359.430	-0.120	-0.060	-0.040
2020/01/31 14:56:44.9	359.420	-0.090	-0.110	-0.030
2020/01/31 14:56:45.0	359.420	-0.070	-0.170	-0.020
2020/01/31 14:56:45.1	359.420	-0.040	-0.230	-0.010
2020/01/31 14:56:45.2	359.420	-0.010	-0.290	-0.000
2020/01/31 14:56:45.3	359.430	0.020	-0.350	-0.000
2020/01/31 14:56:45.4	359.430	0.050	-0.410	0.000
2020/01/31 14:56:45.5	359.440	0.080	-0.470	0.000
2020/01/31 14:56:45.6	359.450	0.110	-0.530	0.000
2020/01/31 14:56:45.7	359.460	0.140	-0.590	0.000
2020/01/31 14:56:45.8	359.470	0.170	-0.640	0.000
2020/01/31 14:56:45.9	359.480	0.200	-0.690	0.000
2020/01/31 14:56:46.0	359.490	0.220	-0.740	0.000
2020/01/31 14:56:46.1	359.510	0.250	-0.780	0.000
2020/01/31 14:56:46.2	359.520	0.270	-0.820	-0.000
2020/01/31 14:56:46.3	359.530	0.290	-0.850	-0.000
2020/01/31 14:56:46.4	359.550	0.310	-0.880	-0.000
2020/01/31 14:56:46.5	359.560	0.330	-0.900	-0.000
2020/01/31 14:56:46.6	359.580	0.340	-0.910	-0.000
2020/01/31 14:56:46.7	359.600	0.350	-0.920	-0.000
2020/01/31 14:56:46.8	359.610	0.360	-0.930	-0.000
2020/01/31 14:56:46.9	359.620	0.360	-0.930	-0.010
2020/01/31 14:56:47.0	359.630	0.360	-0.930	-0.010
2020/01/31 14:56:47.1	359.630	0.360	-0.920	-0.010
2020/01/31 14:56:47.2	359.640	0.350	-0.910	-0.010
2020/01/31 14:56:47.3	359.650	0.340	-0.890	-0.020
2020/01/31 14:56:47.4	359.650	0.320	-0.870	-0.020
2020/01/31 14:56:47.5	359.660	0.300	-0.850	-0.030
2020/01/31 14:56:47.6	359.660	0.280	-0.820	-0.040
2020/01/31 14:56:47.7	359.660	0.250	-0.800	-0.050
2020/01/31 14:56:47.8	359.670	0.220	-0.770	-0.070
2020/01/31 14:56:47.9	359.670	0.190	-0.730	-0.080
2020/01/31 14:56:48.0	359.670	0.150	-0.700	-0.100
2020/01/31 14:56:48.1	359.680	0.110	-0.670	-0.130
2020/01/31 14:56:48.2	359.680	0.070	-0.630	-0.150
2020/01/31 14:56:48.3	359.680	0.020	-0.600	-0.180
2020/01/31 14:56:48.4	359.680	-0.020	-0.560	-0.210
2020/01/31 14:56:48.5	359.690	-0.070	-0.530	-0.250
2020/01/31 14:56:48.6	359.690	-0.120	-0.490	-0.280
2020/01/31 14:56:48.7	359.700	-0.170	-0.460	-0.320
2020/01/31 14:56:48.8	359.700	-0.220	-0.420	-0.360
2020/01/31 14:56:48.9	359.700	-0.260	-0.390	-0.410
2020/01/31 14:56:49.0	359.700	-0.310	-0.360	-0.450
2020/01/31 14:56:49.1	359.700	-0.360	-0.330	-0.490
2020/01/31 14:56:49.2	359.700	-0.400	-0.300	-0.540
2020/01/31 14:56:49.3	359.700	-0.440	-0.270	-0.580
2020/01/31 14:56:49.4	359.700	-0.480	-0.240	-0.620
2020/01/31 14:56:49.5	359.700	-0.510	-0.220	-0.660
2020/01/31 14:56:49.6	359.700	-0.540	-0.190	-0.690
2020/01/31 14:56:49.7	359.700	-0.570	-0.160	-0.730
2020/01/31 14:56:49.8	359.700	-0.590	-0.140	-0.760
2020/01/31 14:56:49.9	359.700	-0.600	-0.110	-0.790
2020/01/31 14:56:50.0	359.700	-0.610	-0.090	-0.810
2020/01/31 14:56:50.1	359.700	-0.610	-0.060	-0.830
2020/01/31 14:56:50.2	359.690	-0.610	-0.040	-0.850
2020/01/31 14:56:50.3	359.690	-0.600	-0.010	-0.860
2020/01/31 14:56:50.4	359.690	-0.590	0.010	-0.860
2020/01/31 14:56:50.5	359.690	-0.570	0.030	-0.860
2020/01/31 14:56:50.6	359.690	-0.540	0.050	-0.850
2020/01/31 14:56:50.7	359.680	-0.510	0.080	-0.840
2020/01/31 14:56:50.8	359.670	-0.470	0.090	-0.830
2020/01/31 14:56:50.9	359.670	-0.430	0.110	-0.810
2020/01/31 14:56:51.0	359.670	-0.380	0.130	-0.780
2020/01/31 14:56:51.1	359.670	-0.320	0.140	-0.760
2020/01/31 14:56:51.2	359.670	-0.260	0.160	-0.720
2020/01/31 14:56:51.3	359.670	-0.190	0.170	-0.690
2020/01/31 14:56:51.4	359.670	-0.130	0.180	-0.650
2020/01/31 14:56:51.5	359.670	-0.060	0.180	-0.610
2020/01/31 14:56:51.6	359.670	0.020	0.190	-0.570
2020/01/31 14:56:51.7	359.670	0.090	0.190	-0.530
2020/01/31 14:56:51.8	359.670	0.160	0.190	-0.480
2020/01/31 14:56:51.9	359.660	0.240	0.190	-0.430
2020/01/31 14:56:52.0	359.660	0.310	0.190	-0.380
2020/01/31 14:56:52.1	359.650	0.380	0.180	-0.330
2020/01/31 14:56:52.2	359.650	0.450	0.170	-0.280
2020/01/31 14:56:52.3	359.640	0.520	0.160	-0.230
2020/01/31 14:56:52.4	359.630	0.580	0.150	-0.180
2020/01/31 14:56:52.5	359.620	0.640	0.130	-0.130
2020/01/31 14:56:52.6	359.610	0.690	0.110	-0.080
2020/01/31 14:56:52.7	359.600	0.740	0.090	-0.020
2020/01/31 14:56:52.8	359.580	0.780	0.070	0.030
2020/01/31 14:56:52.9	359.570	0.810	0.040	0.070
2020/01/31 14:56:53.0	359.550	0.840	0.020	0.120
2020/01/31 14:56:53.1	359.540	0.860	-0.010	0.160
2020/01/31 14:56:53.2	359.520	0.880	-0.050	0.200
2020/01/31 14:56:53.3	359.510	0.890	-0.080	0.230
2020/01/31 14:56:53.4	359.490	0.890	-0.120	0.260
2020/01/31 14:56:53.5	359.480	0.880	-0.150	0.280
2020/01/31 14:56:53.6	359.470	0.870	-0.190	0.300
2020/01/31 14:56:53.7	359.450	0.850	-0.230	0.320
2020/01/31 14:56:53.8	359.440	0.820	-0.270	0.320
2020/01/31 14:56:53.9	359.440	0.790	-0.310	0.320
2020/01/31 14:56:54.0	359.430	0.750	-0.350	0.320
2020/01/31 14:56:54.1	359.420	0.710	-0.390	0.310
2020/01/31 14:56:54.2	359.420	0.660	-0.430	0.290
2020/01/31 14:56:54.3	359.420	0.600	-0.470	0.270
2020/01/31 14:56:54.4	359.420	0.540	-0.510	0.240
2020/01/31 14:56:54.5	359.420	0.480	-0.540	0.210
2020/01/31 14:56:54.6	359.420	0.420	-0.570	0.170
2020/01/31 14:56:54.7	359.430	0.350	-0.590	0.130
2020/01/31 14:56:54.8	359.440	0.280	-0.620	0.090
2020/01/31 14:56:54.9	359.440	0.210	-0.630	0.050
2020/01/31 14:56:55.0	359.450	0.140	-0.640	0.000
2020/01/31 14:56:55.1	359.450	0.070	-0.650	-0.040
2020/01/31 14:56:55.2	359.460	-0.000	-0.650	-0.090
2020/01/31 14:56:55.3	359.460	-0.070	-0.640	-0.130
2020/01/31 14:56:55.4	359.470	-0.140	-0.630	-0.180
2020/01/31 14:56:55.5	359.480	-0.210	-0.610	-0.220
2020/01/31 14:56:55.6	359.480	-0.270	-0.590	-0.270
2020/01/31 14:56:55.7	359.480	-0.330	-0.560	-0.310
2020/01/31 14:56:55.8	359.480	-0.390	-0.530	-0.350
2020/01/31 14:56:55.9	359.480	-0.450	-0.490	-0.380
2020/01/31 14:56:56.0	359.490	-0.500	-0.450	-0.420
2020/01/31 14:56:56.1	359.490	-0.550	-0.410	-0.460
2020/01/31 14:56:56.2	359.490	-0.590	-0.370	-0.490
2020/01/31 14:56:56.3	359.490	-0.630	-0.330	-0.520
2020/01/31 14:56:56.4	359.490	-0.660	-0.280	-0.550
2020/01/31 14:56:56.5	359.490	-0.690	-0.240	-0.580
2020/01/31 14:56:56.6	359.490	-0.710	-0.190	-0.610
2020/01/31 14:56:56.7	359.490	-0.730	-0.150	-0.640
2020/01/31 14:56:56.8	359.490	-0.740	-0.110	-0.660
2020/01/31 14:56:56.9	359.490	-0.750	-0.080	-0.680
2020/01/31 14:56:57.0	359.490	-0.750	-0.040	-0.710
2020/01/31 14:56:57.1	359.490	-0.740	-0.010	-0.720
2020/01/31 14:56:57.2	359.500	-0.730	0.010	-0.740
2020/01/31 14:56:57.3	359.500	-0.710	0.030	-0.750
2020/01/31 14:56:57.4	359.500	-0.690	0.050	-0.760
2020/01/31 14:56:57.5	359.500	-0.670	0.060	-0.770
2020/01/31 14:56:57.6	359.510	-0.630	0.060	-0.770
2020/01/31 14:56:57.7	359.500	-0.600	0.060	-0.780
2020/01/31 14:56:57.8	359.500	-0.560	0.060	-0.770
2020/01/31 14:56:57.9	359.500	-0.520	0.050	-0.760
2020/01/31 14:56:58.0	359.500	-0.470	0.030	-0.750
2020/01/31 14:56:58.1	359.500	-0.420	0.020	-0.730
2020/01/31 14:56:58.2	359.500	-0.370	-0.000	-0.720
2020/01/31 14:56:58.3	359.500	-0.320	-0.030	-0.690
2020/01/31 14:56:58.4	359.500	-0.270	-0.060	-0.670
2020/01/31 14:56:58.5	359.500	-0.210	-0.090	-0.650
2020/01/31 14:56:58.6	359.500	-0.160	-0.120	-0.620
2020/01/31 14:56:58.7	359.500	-0.110	-0.160	-0.600
2020/01/31 14:56:58.8	359.500	-0.060	-0.190	-0.580
2020/01/31 14:56:58.9	359.510	-0.010	-0.230	-0.550
2020/01/31 14:56:59.0	359.510	0.040	-0.270	-0.530
2020/01/31 14:56:59.1	359.510	0.090	-0.310	-0.520
2020/01/31 14:56:59.2	359.520	0.130	-0.350	-0.500
2020/01/31 14:56:59.3	359.530	0.170	-0.390	-0.480
2020/01/31 14:56:59.4	359.540	0.210	-0.420	-0.470
2020/01/31 14:56:59.5	359.550	0.250	-0.460	-0.460
2020/01/31 14:56:59.6	359.570	0.280	-0.490	-0.450
2020/01/31 14:56:59.7	359.590	0.300	-0.520	-0.440
2020/01/31 14:56:59.8	359.610	0.330	-0.550	-0.430
2020/01/31 14:56:59.9	359.630	0.350	-0.570	-0.420
2020/01/31 14:57:00.0	359.650	0.360	-0.600	-0.420
2020/01/31 14:57:00.1	359.670	0.370	-0.620	-0.410
2020/01/31 14:57:00.2	359.700	0.380	-0.630	-0.400
2020/01/31 14:57:00.3	359.720	0.380	-0.640	-0.380
2020/01/31 14:57:00.4	359.740	0.380	-0.640	-0.370
2020/01/31 14:57:00.5	359.760	0.380	-0.640	-0.350
2020/01/31 14:57:00.6	359.780	0.370	-0.640	-0.330
2020/01/31 14:57:00.7	359.800	0.360	-0.630	-0.320
2020/01/31 14:57:00.8	359.820	0.340	-0.610	-0.290
2020/01/31 14:57:00.9	359.830	0.320	-0.590	-0.270
2020/01/31 14:57:01.0	359.840	0.300	-0.550	-0.240
2020/01/31 14:57:01.1	359.850	0.280	-0.520	-0.220
2020/01/31 14:57:01.2	359.860	0.250	-0.480	-0.190
2020/01/31 14:57:01.3	359.860	0.220	-0.430	-0.170
2020/01/31 14:57:01.4	359.860	0.190	-0.390	-0.140
2020/01/31 14:57:01.5	359.860	0.160	-0.340	-0.120
2020/01/31 14:57:01.6	359.860	0.120	-0.290	-0.100
2020/01/31 14:57:01.7	359.860	0.090	-0.230	-0.080
2020/01/31 14:57:01.8	359.860	0.060	-0.170	-0.060
2020/01/31 14:57:01.9	359.850	0.020	-0.120	-0.040
2020/01/31 14:57:02.0	359.840	-0.010	-0.070	-0.030
2020/01/31 14:57:02.1	359.830	-0.040	-0.020	-0.020
2020/01/31 14:57:02.2	359.820	-0.070	0.030	-0.010
2020/01/31 14:57:02.3	359.810	-0.100	0.080	-0.010
2020/01/31 14:57:02.4	359.800	-0.120	0.120	-0.000
2020/01/31 14:57:02.5	359.790	-0.140	0.160	-0.000
2020/01/31 14:57:02.6	359.770	-0.160	0.190	-0.000
2020/01/31 14:57:02.7	359.760	-0.180	0.220	-0.000
2020/01/31 14:57:02.8	359.740	-0.190	0.250	-0.010
2020/01/31 14:57:02.9	359.720	-0.200	0.270	-0.010
2020/01/31 14:57:03.0	359.700	-0.210	0.280	-0.010
2020/01/31 14:57:03.1	359.680	-0.210	0.290	-0.010
2020/01/31 14:57:03.2	359.660	-0.210	0.290	-0.020
2020/01/31 14:57:03.3	359.640	-0.210	0.290	-0.020
2020/01/31 14:57:03.4	359.610	-0.200	0.280	-0.030
2020/01/31 14:57:03.5	359.590	-0.190	0.270	-0.030
2020/01/31 14:57:03.6	359.560	-0.180	0.260	-0.040
2020/01/31 14:57:03.7	359.530	-0.170	0.240	-0.050
2020/01/31 14:57:03.8	359.500	-0.150	0.220	-0.050
2020/01/31 14:57:03.9	359.480	-0.140	0.190	-0.060
2020/01/31 14:57:04.0	359.450	-0.120	0.160	-0.080
2020/01/31 14:57:04.1	359.420	-0.100	0.120	-0.090
2020/01/31 14:57:04.2	359.390	-0.080	0.080	-0.100
2020/01/31 14:57:04.3	359.360	-0.060	0.040	-0.110
2020/01/31 14:57:04.4	359.330	-0.040	-0.000	-0.130
2020/01/31 14:57:04.5	359.310	-0.020	-0.040	-0.150
2020/01/31 14:57:04.6	359.280	-0.000	-0.090	-0.160
2020/01/31 14:57:04.7	359.250	0.020	-0.140	-0.180
2020/01/31 14:57:04.8	359.220	0.040	-0.190	-0.200
2020/01/31 14:57:04.9	359.200	0.060	-0.240	-0.220
2020/01/31 14:57:05.0	359.180	0.070	-0.290	-0.240
2020/01/31 14:57:05.1	359.160	0.090	-0.350	-0.260
2020/01/31 14:57:05.2	359.140	0.100	-0.400	-0.280
2020/01/31 14:57:05.3	359.120	0.110	-0.450	-0.300
2020/01/31 14:57:05.4	359.110	0.120	-0.500	-0.320
2020/01/31 14:57:05.5	359.090	0.130	-0.550	-0.330
2020/01/31 14:57:05.6	359.080	0.140	-0.600	-0.350
2020/01/31 14:57:05.7	359.070	0.140	-0.650	-0.370
2020/01/31 14:57:05.8	359.060	0.150	-0.690	-0.390
2020/01/31 14:57:05.9	359.050	0.150	-0.740	-0.420
2020/01/31 14:57:06.0	359.050	0.150	-0.770	-0.440
2020/01/31 14:57:06.1	359.050	0.150	-0.810	-0.470
2020/01/31 14:57:06.2	359.050	0.140	-0.840	-0.490
2020/01/31 14:57:06.3	359.060	0.140	-0.870	-0.520
2020/01/31 14:57:06.4	359.060	0.130	-0.900	-0.550
2020/01/31 14:57:06.5	359.070	0.130	-0.920	-0.580
2020/01/31 14:57:06.6	359.090	0.120	-0.940	-0.620
2020/01/31 14:57:06.7	359.100	0.110	-0.960	-0.650
2020/01/31 14:57:06.8	359.130	0.110	-0.970	-0.690
2020/01/31 14:57:06.9	359.150	0.100	-0.980	-0.730
2020/01/31 14:57:07.0	359.180	0.090	-0.980	-0.760
2020/01/31 14:57:07.1	359.210	0.080	-0.980	-0.800
2020/01/31 14:57:07.2	359.240	0.080	-0.980	-0.840
2020/01/31 14:57:07.3	359.270	0.070	-0.970	-0.870
2020/01/31 14:57:07.4	359.310	0.070	-0.960	-0.910
2020/01/31 14:57:07.5	359.350	0.070	-0.950	-0.940
2020/01/31 14:57:07.6	359.390	0.070	-0.930	-0.970
2020/01/31 14:57:07.7	359.440	0.070	-0.910	-1.000
2020/01/31 14:57:07.8	359.480	0.070	-0.880	-1.020
2020/01/31 14:57:07.9	359.520	0.070	-0.850	-1.040
2020/01/31 14:57:08.0	359.570	0.070	-0.810	-1.050
2020/01/31 14:57:08.1	359.610	0.080	-0.780	-1.060
2020/01/31 14:57:08.2	359.650	0.090	-0.740	-1.060
2020/01/31 14:57:08.3	359.700	0.090	-0.690	-1.070
2020/01/31 14:57:08.4	359.740	0.100	-0.640	-1.060
2020/01/31 14:57:08.5	359.780	0.110	-0.590	-1.050
2020/01/31 14:57:08.6	359.820	0.120	-0.540	-1.040
2020/01/31 14:57:08.7	359.860	0.130	-0.480	-1.020
2020/01/31 14:57:08.8	359.890	0.140	-0.420	-1.000
2020/01/31 14:57:08.9	359.930	0.150	-0.360	-0.980
2020/01/31 14:57:09.0	359.960	0.160	-0.300	-0.950
2020/01/31 14:57:09.1	359.980	0.170	-0.230	-0.910
2020/01/31 14:57:09.2	0.010	0.180	-0.170	-0.870
2020/01/31 14:57:09.3	0.030	0.180	-0.100	-0.830
2020/01/31 14:57:09.4	0.050	0.190	-0.030	-0.780
2020/01/31 14:57:09.5	0.060	0.190	0.040	-0.730
2020/01/31 14:57:09.6	0.070	0.200	0.110	-0.680
2020/01/31 14:57:09.7	0.080	0.200	0.180	-0.630
2020/01/31 14:57:09.8	0.080	0.190	0.250	-0.570
2020/01/31 14:57:09.9	0.080	0.190	0.320	-0.510
2020/01/31 14:57:10.0	0.080	0.180	0.380	-0.450
2020/01/31 14:57:10.1	0.070	0.170	0.440	-0.380
2020/01/31 14:57:10.2	0.050	0.160	0.500	-0.320
2020/01/31 14:57:10.3	0.040	0.150	0.560	-0.260
2020/01/31 14:57:10.4	0.010	0.130	0.610	-0.200
2020/01/31 14:57:10.5	359.990	0.110	0.660	-0.140
2020/01/31 14:57:10.6	359.960	0.090	0.700	-0.080
2020/01/31 14:57:10.7	359.930	0.060	0.740	-0.020
2020/01/31 14:57:10.8	359.890	0.040	0.770	0.040
2020/01/31 14:57:10.9	359.860	0.010	0.800	0.090
2020/01/31 14:57:11.0	359.820	-0.020	0.810	0.140
2020/01/31 14:57:11.1	359.780	-0.050	0.830	0.190
2020/01/31 14:57:11.2	359.750	-0.080	0.830	0.230
2020/01/31 14:57:11.3	359.710	-0.110	0.830	0.260
2020/01/31 14:57:11.4	359.670	-0.140	0.820	0.300
2020/01/31 14:57:11.5	359.630	-0.170	0.800	0.320
2020/01/31 14:57:11.6	359.590	-0.210	0.780	0.340
2020/01/31 14:57:11.7	359.550	-0.240	0.750	0.350
2020/01/31 14:57:11.8	359.510	-0.270	0.710	0.360
2020/01/31 14:57:11.9	359.480	-0.290	0.670	0.370
2020/01/31 14:57:12.0	359.450	-0.320	0.610	0.360
2020/01/31 14:57:12.1	359.420	-0.340	0.560	0.350
2020/01/31 14:57:12.2	359.390	-0.370	0.490	0.340
2020/01/31 14:57:12.3	359.360	-0.380	0.430	0.310
2020/01/31 14:57:12.4	359.340	-0.400	0.350	0.280
2020/01/31 14:57:12.5	359.320	-0.410	0.280	0.250
2020/01/31 14:57:12.6	359.300	-0.420	0.190	0.210
2020/01/31 14:57:12.7	359.280	-0.430	0.110	0.170
2020/01/31 14:57:12.8	359.270	-0.440	0.030	0.120
2020/01/31 14:57:12.9	359.260	-0.440	-0.060	0.070
2020/01/31 14:57:13.0	359.240	-0.430	-0.150	0.020
2020/01/31 14:57:13.1	359.240	-0.430	-0.240	-0.040
2020/01/31 14:57:13.2	359.230	-0.420	-0.330	-0.100
2020/01/31 14:57:13.3	359.220	-0.410	-0.420	-0.150
2020/01/31 14:57:13.4	359.220	-0.390	-0.500	-0.210
2020/01/31 14:57:13.5	359.210	-0.380	-0.580	-0.260
2020/01/31 14:57:13.6	359.200	-0.360	-0.660	-0.310
2020/01/31 14:57:13.7	359.200	-0.330	-0.730	-0.370
2020/01/31 14:57:13.8	359.200	-0.310	-0.800	-0.410
2020/01/31 14:57:13.9	359.190	-0.280	-0.860	-0.450
2020/01/31 14:57:14.0	359.190	-0.250	-0.920	-0.490
2020/01/31 14:57:14.1	359.190	-0.220	-0.970	-0.520
2020/01/31 14:57:14.2	359.180	-0.190	-1.020	-0.550
2020/01/31 14:57:14.3	359.180	-0.160	-1.050	-0.570
2020/01/31 14:57:14.4	359.180	-0.130	-1.080	-0.590
2020/01/31 14:57:14.5	359.180	-0.090	-1.110	-0.610
2020/01/31 14:57:14.6	359.180	-0.060	-1.130	-0.620
2020/01/31 14:57:14.7	359.180	-0.030	-1.140	-0.630
2020/01/31 14:57:14.8	359.190	0.000	-1.150	-0.640
2020/01/31 14:57:14.9	359.200	0.040	-1.150	-0.640
2020/01/31 14:57:15.0	359.210	0.070	-1.140	-0.650
2020/01/31 14:57:15.1	359.220	0.100	-1.130	-0.650
2020/01/31 14:57:15.2	359.230	0.130	-1.120	-0.640
2020/01/31 14:57:15.3	359.250	0.150	-1.100	-0.640
2020/01/31 14:57:15.4	359.260	0.180	-1.080	-0.640
2020/01/31 14:57:15.5	359.280	0.200	-1.060	-0.630
2020/01/31 14:57:15.6	359.300	0.220	-1.030	-0.620
2020/01/31 14:57:15.7	359.310	0.240	-0.990	-0.610
2020/01/31 14:57:15.8	359.330	0.260	-0.960	-0.600
2020/01/31 14:57:15.9	359.350	0.280	-0.920	-0.590
2020/01/31 14:57:16.0	359.370	0.290	-0.880	-0.570
2020/01/31 14:57:16.1	359.380	0.300	-0.840	-0.550
2020/01/31 14:57:16.2	359.400	0.310	-0.800	-0.530
2020/01/31 14:57:16.3	359.410	0.310	-0.750	-0.510
2020/01/31 14:57:16.4	359.420	0.320	-0.700	-0.480
2020/01/31 14:57:16.5	359.440	0.320	-0.660	-0.460
2020/01/31 14:57:16.6	359.450	0.320	-0.610	-0.430
2020/01/31 14:57:16.7	359.450	0.320	-0.560	-0.400
2020/01/31 14:57:16.8	359.460	0.310	-0.510	-0.370
2020/01/31 14:57:16.9	359.460	0.310	-0.460	-0.340
2020/01/31 14:57:17.0	359.470	0.300	-0.410	-0.310
2020/01/31 14:57:17.1	359.480	0.290	-0.360	-0.270
2020/01/31 14:57:17.2	359.480	0.290	-0.320	-0.240
2020/01/31 14:57:17.3	359.490	0.280	-0.270	-0.210
2020/01/31 14:57:17.4	359.490	0.270	-0.220	-0.180
2020/01/31 14:57:17.5	359.500	0.260	-0.180	-0.150
2020/01/31 14:57:17.6	359.510	0.250	-0.140	-0.120
2020/01/31 14:57:17.7	359.510	0.240	-0.100	-0.090
2020/01/31 14:57:17.8	359.520	0.230	-0.060	-0.060
2020/01/31 14:57:17.9	359.530	0.220	-0.020	-0.030
2020/01/31 14:57:18.0	359.530	0.210	0.010	-0.000
2020/01/31 14:57:18.1	359.540	0.200	0.040	0.020
2020/01/31 14:57:18.2	359.550	0.200	0.070	0.050
2020/01/31 14:57:18.3	359.560	0.190	0.090	0.070
2020/01/31 14:57:18.4	359.570	0.190	0.110	0.090
2020/01/31 14:57:18.5	359.580	0.180	0.130	0.120
2020/01/31 14:57:18.6	359.590	0.180	0.140	0.140
2020/01/31 14:57:18.7	359.600	0.180	0.150	0.150
2020/01/31 14:57:18.8	359.610	0.180	0.160	0.170
2020/01/31 14:57:18.9	359.630	0.180	0.160	0.180
2020/01/31 14:57:19.0	359.640	0.180	0.170	0.190
2020/01/31 14:57:19.1	359.660	0.180	0.170	0.200
2020/01/31 14:57:19.2	359.670	0.170	0.160	0.210
2020/01/31 14:57:19.3	359.680	0.170	0.160	0.220
2020/01/31 14:57:19.4	359.700	0.170	0.160	0.220
2020/01/31 14:57:19.5	359.710	0.170	0.150	0.220
2020/01/31 14:57:19.6	359.720	0.170	0.140	0.220
2020/01/31 14:57:19.7	359.730	0.160	0.140	0.220
2020/01/31 14:57:19.8	359.740	0.160	0.130	0.220
2020/01/31 14:57:19.9	359.740	0.150	0.120	0.210
2020/01/31 14:57:20.0	359.740	0.140	0.100	0.210
2020/01/31 14:57:20.1	359.740	0.130	0.090	0.200
2020/01/31 14:57:20.2	359.730	0.120	0.080	0.190
2020/01/31 14:57:20.3	359.730	0.100	0.060	0.170
2020/01/31 14:57:20.4	359.720	0.090	0.050	0.160
2020/01/31 14:57:20.5	359.710	0.070	0.030	0.140
2020/01/31 14:57:20.6	359.700	0.050	0.020	0.120
2020/01/31 14:57:20.7	359.690	0.030	-0.010	0.090
2020/01/31 14:57:20.8	359.680	0.010	-0.030	0.070
2020/01/31 14:57:20.9	359.670	-0.020	-0.050	0.040
2020/01/31 14:57:21.0	359.660	-0.040	-0.070	0.020
2020/01/31 14:57:21.1	359.650	-0.070	-0.090	-0.020
2020/01/31 14:57:21.2	359.640	-0.090	-0.110	-0.050
2020/01/31 14:57:21.3	359.640	-0.120	-0.140	-0.080
2020/01/31 14:57:21.4	359.630	-0.140	-0.170	-0.120
2020/01/31 14:57:21.5	359.630	-0.160	-0.190	-0.160
2020/01/31 14:57:21.6	359.630	-0.190	-0.220	-0.200
2020/01/31 14:57:21.7	359.640	-0.210	-0.250	-0.240
2020/01/31 14:57:21.8	359.650	-0.230	-0.280	-0.280
2020/01/31 14:57:21.9	359.660	-0.250	-0.310	-0.320
2020/01/31 14:57:22.0	359.660	-0.260	-0.340	-0.370
2020/01/31 14:57:22.1	359.670	-0.280	-0.380	-0.410
2020/01/31 14:57:22.2	359.680	-0.290	-0.410	-0.450
2020/01/31 14:57:22.3	359.690	-0.300	-0.440	-0.490
2020/01/31 14:57:22.4	359.700	-0.310	-0.470	-0.530
2020/01/31 14:57:22.5	359.710	-0.320	-0.490	-0.570
2020/01/31 14:57:22.6	359.720	-0.330	-0.520	-0.610
2020/01/31 14:57:22.7	359.720	-0.330	-0.540	-0.640
2020/01/31 14:57:22.8	359.730	-0.330	-0.550	-0.670
2020/01/31 14:57:22.9	359.730	-0.330	-0.570	-0.700
2020/01/31 14:57:23.0	359.730	-0.330	-0.580	-0.730
2020/01/31 14:57:23.1	359.730	-0.330	-0.580	-0.750
2020/01/31 14:57:23.2	359.730	-0.320	-0.580	-0.770
2020/01/31 14:57:23.3	359.730	-0.310	-0.580	-0.780
2020/01/31 14:57:23.4	359.720	-0.300	-0.570	-0.790
2020/01/31 14:57:23.5	359.720	-0.290	-0.560	-0.790
2020/01/31 14:57:23.6	359.710	-0.270	-0.540	-0.780
2020/01/31 14:57:23.7	359.700	-0.250	-0.510	-0.780
2020/01/31 14:57:23.8	359.690	-0.230	-0.490	-0.760
2020/01/31 14:57:23.9	359.670	-0.210	-0.460	-0.740
2020/01/31 14:57:24.0	359.660	-0.190	-0.420	-0.710
2020/01/31 14:57:24.1	359.640	-0.160	-0.390	-0.680
2020/01/31 14:57:24.2	359.620	-0.140	-0.350	-0.650
2020/01/31 14:57:24.3	359.600	-0.110	-0.310	-0.610
2020/01/31 14:57:24.4	359.580	-0.080	-0.270	-0.560
2020/01/31 14:57:24.5	359.560	-0.050	-0.230	-0.520
2020/01/31 14:57:24.6	359.540	-0.020	-0.180	-0.470
2020/01/31 14:57:24.7	359.520	0.010	-0.140	-0.410
2020/01/31 14:57:24.8	359.500	0.050	-0.100	-0.360
2020/01/31 14:57:24.9	359.480	0.080	-0.060	-0.300
2020/01/31 14:57:25.0	359.460	0.110	-0.020	-0.250
2020/01/31 14:57:25.1	359.440	0.140	0.010	-0.190
2020/01/31 14:57:25.2	359.420	0.180	0.050	-0.130
2020/01/31 14:57:25.3	359.400	0.210	0.080	-0.080
2020/01/31 14:57:25.4	359.380	0.240	0.110	-0.020
2020/01/31 14:57:25.5	359.370	0.270	0.130	0.030
2020/01/31 14:57:25.6	359.350	0.290	0.150	0.080
2020/01/31 14:57:25.7	359.330	0.320	0.160	0.130
2020/01/31 14:57:25.8	359.320	0.340	0.170	0.180
2020/01/31 14:57:25.9	359.300	0.360	0.180	0.220
2020/01/31 14:57:26.0	359.280	0.380	0.190	0.270
2020/01/31 14:57:26.1	359.270	0.400	0.190	0.300
2020/01/31 14:57:26.2	359.250	0.410	0.190	0.340
2020/01/31 14:57:26.3	359.240	0.420	0.180	0.370
2020/01/31 14:57:26.4	359.220	0.420	0.170	0.390
2020/01/31 14:57:26.5	359.210	0.420	0.150	0.420
2020/01/31 14:57:26.6	359.200	0.420	0.140	0.430
2020/01/31 14:57:26.7	359.180	0.410	0.120	0.450
2020/01/31 14:57:26.8	359.170	0.400	0.100	0.450
2020/01/31 14:57:26.9	359.170	0.390	0.070	0.450
2020/01/31 14:57:27.0	359.160	0.370	0.040	0.450
2020/01/31 14:57:27.1	359.160	0.350	0.010	0.440
2020/01/31 14:57:27.2	359.160	0.330	-0.020	0.430
2020/01/31 14:57:27.3	359.160	0.300	-0.060	0.410
2020/01/31 14:57:27.4	359.160	0.270	-0.090	0.380
2020/01/31 14:57:27.5	359.160	0.240	-0.130	0.350
2020/01/31 14:57:27.6	359.170	0.210	-0.170	0.320
2020/01/31 14:57:27.7	359.170	0.170	-0.210	0.280
2020/01/31 14:57:27.8	359.180	0.130	-0.240	0.240
2020/01/31 14:57:27.9	359.200	0.090	-0.280	0.200
2020/01/31 14:57:28.0	359.220	0.050	-0.320	0.150
2020/01/31 14:57:28.1	359.240	0.010	-0.350	0.110
2020/01/31 14:57:28.2	359.260	-0.030	-0.390	0.060
2020/01/31 14:57:28.3	359.280	-0.070	-0.430	0.010
2020/01/31 14:57:28.4	359.310	-0.110	-0.460	-0.050
2020/01/31 14:57:28.5	359.340	-0.150	-0.490	-0.100
2020/01/31 14:57:28.6	359.380	-0.180	-0.520	-0.150
2020/01/31 14:57:28.7	359.410	-0.220	-0.550	-0.210
2020/01/31 14:57:28.8	359.450	-0.250	-0.580	-0.260
2020/01/31 14:57:28.9	359.490	-0.280	-0.600	-0.320
2020/01/31 14:57:29.0	359.530	-0.310	-0.630	-0.370
2020/01/31 14:57:29.1	359.580	-0.330	-0.650	-0.420
2020/01/31 14:57:29.2	359.620	-0.350	-0.670	-0.470
2020/01/31 14:57:29.3	359.670	-0.370	-0.680	-0.510
2020/01/31 14:57:29.4	359.710	-0.380	-0.700	-0.560
2020/01/31 14:57:29.5	359.760	-0.390	-0.710	-0.600
2020/01/31 14:57:29.6	359.800	-0.400	-0.720	-0.640
2020/01/31 14:57:29.7	359.850	-0.400	-0.730	-0.690
2020/01/31 14:57:29.8	359.890	-0.400	-0.730	-0.720
2020/01/31 14:57:29.9	359.930	-0.390	-0.740	-0.750
2020/01/31 14:57:30.0	359.970	-0.390	-0.740	-0.780
2020/01/31 14:57:30.1	0.000	-0.380	-0.730	-0.800
2020/01/31 14:57:30.2	0.030	-0.360	-0.730	-0.820
2020/01/31 14:57:30.3	0.060	-0.350	-0.720	-0.830
2020/01/31 14:57:30.4	0.090	-0.330	-0.710	-0.840
2020/01/31 14:57:30.5	0.110	-0.310	-0.700	-0.850
2020/01/31 14:57:30.6	0.130	-0.290	-0.680	-0.850
2020/01/31 14:57:30.7	0.140	-0.260	-0.660	-0.840
2020/01/31 14:57:30.8	0.160	-0.240	-0.640	-0.830
2020/01/31 14:57:30.9	0.160	-0.210	-0.610	-0.820
2020/01/31 14:57:31.0	0.170	-0.190	-0.590	-0.800
2020/01/31 14:57:31.1	0.170	-0.160	-0.560	-0.780
2020/01/31 14:57:31.2	0.170	-0.130	-0.530	-0.760
2020/01/31 14:57:31.3	0.160	-0.110	-0.490	-0.730
2020/01/31 14:57:31.4	0.150	-0.080	-0.460	-0.700
2020/01/31 14:57:31.5	0.140	-0.050	-0.420	-0.670
2020/01/31 14:57:31.6	0.120	-0.030	-0.390	-0.630
2020/01/31 14:57:31.7	0.100	-0.010	-0.350	-0.590
2020/01/31 14:57:31.8	0.080	0.010	-0.310	-0.550
2020/01/31 14:57:31.9	0.060	0.030	-0.270	-0.500
2020/01/31 14:57:32.0	0.030	0.050	-0.240	-0.460
2020/01/31 14:57:32.1	0.000	0.070	-0.200	-0.410
2020/01/31 14:57:32.2	359.970	0.080	-0.160	-0.360
2020/01/31 14:57:32.3	359.940	0.090	-0.120	-0.320
2020/01/31 14:57:32.4	359.910	0.100	-0.090	-0.270
2020/01/31 14:57:32.5	359.880	0.110	-0.050	-0.220
2020/01/31 14:57:32.6	359.840	0.120	-0.020	-0.170
2020/01/31 14:57:32.7	359.810	0.120	0.010	-0.130
2020/01/31 14:57:32.8	359.770	0.130	0.040	-0.080
2020/01/31 14:57:32.9	359.740	0.130	0.060	-0.040
2020/01/31 14:57:33.0	359.700	0.130	0.090	0.000
2020/01/31 14:57:33.1	359.670	0.120	0.110	0.050
2020/01/31 14:57:33.2	359.630	0.120	0.130	0.090
2020/01/31 14:57:33.3	359.600	0.110	0.150	0.120
2020/01/31 14:57:33.4	359.570	0.110	0.160	0.160
2020/01/31 14:57:33.5	359.530	0.100	0.170	0.200
2020/01/31 14:57:33.6	359.500	0.100	0.180	0.230
2020/01/31 14:57:33.7	359.470	0.090	0.190	0.260
2020/01/31 14:57:33.8	359.440	0.080	0.190	0.290
2020/01/31 14:57:33.9	359.410	0.080	0.190	0.310
2020/01/31 14:57:34.0	359.390	0.070	0.190	0.340
2020/01/31 14:57:34.1	359.370	0.060	0.190	0.350
2020/01/31 14:57:34.2	359.340	0.050	0.180	0.370
2020/01/31 14:57:34.3	359.320	0.050	0.170	0.390
2020/01/31 14:57:34.4	359.310	0.040	0.160	0.400
2020/01/31 14:57:34.5	359.290	0.040	0.150	0.400
2020/01/31 14:57:34.6	359.280	0.030	0.130	0.400
2020/01/31 14:57:34.7	359.270	0.030	0.120	0.400
2020/01/31 14:57:34.8	359.260	0.030	0.100	0.390
2020/01/31 14:57:34.9	359.260	0.030	0.070	0.380
2020/01/31 14:57:35.0	359.260	0.030	0.050	0.360
2020/01/31 14:57:35.1	359.270	0.030	0.020	0.340
2020/01/31 14:57:35.2	359.280	0.030	-0.020	0.320
2020/01/31 14:57:35.3	359.290	0.030	-0.050	0.290
2020/01/31 14:57:35.4	359.310	0.040	-0.090	0.250
2020/01/31 14:57:35.5	359.330	0.040	-0.130	0.210
2020/01/31 14:57:35.6	359.360	0.050	-0.170	0.170
2020/01/31 14:57:35.7	359.380	0.060	-0.220	0.130
2020/01/31 14:57:35.8	359.410	0.060	-0.260	0.080
2020/01/31 14:57:35.9	359.450	0.070	-0.310	0.030
2020/01/31 14:57:36.0	359.480	0.080	-0.350	-0.020
2020/01/31 14:57:36.1	359.520	0.090	-0.400	-0.080
2020/01/31 14:57:36.2	359.550	0.100	-0.450	-0.130
2020/01/31 14:57:36.3	359.590	0.120	-0.490	-0.190
2020/01/31 14:57:36.4	359.630	0.130	-0.540	-0.240
2020/01/31 14:57:36.5	359.670	0.140	-0.580	-0.300
2020/01/31 14:57:36.6	359.710	0.150	-0.620	-0.360
2020/01/31 14:57:36.7	359.760	0.150	-0.660	-0.410
2020/01/31 14:57:36.8	359.800	0.160	-0.690	-0.470
2020/01/31 14:57:36.9	359.840	0.170	-0.730	-0.520
2020/01/31 14:57:37.0	359.880	0.180	-0.760	-0.570
2020/01/31 14:57:37.1	359.920	0.180	-0.780	-0.620
2020/01/31 14:57:37.2	359.950	0.190	-0.800	-0.670
2020/01/31 14:57:37.3	359.990	0.190	-0.820	-0.710
2020/01/31 14:57:37.4	0.020	0.190	-0.840	-0.750
2020/01/31 14:57:37.5	0.050	0.190	-0.840	-0.780
2020/01/31 14:57:37.6	0.080	0.190	-0.850	-0.820
2020/01/31 14:57:37.7	0.100	0.180	-0.840	-0.840
2020/01/31 14:57:37.8	0.120	0.180	-0.830	-0.870
2020/01/31 14:57:37.9	0.140	0.170	-0.820	-0.890
2020/01/31 14:57:38.0	0.150	0.160	-0.800	-0.900
2020/01/31 14:57:38.1	0.160	0.150	-0.780	-0.920
2020/01/31 14:57:38.2	0.170	0.140	-0.750	-0.930
2020/01/31 14:57:38.3	0.170	0.120	-0.720	-0.930
2020/01/31 14:57:38.4	0.160	0.110	-0.680	-0.940
2020/01/31 14:57:38.5	0.160	0.090	-0.640	-0.940
2020/01/31 14:57:38.6	0.150	0.070	-0.590	-0.930
2020/01/31 14:57:38.7	0.140	0.060	-0.540	-0.920
2020/01/31 14:57:38.8	0.120	0.040	-0.480	-0.910
2020/01/31 14:57:38.9	0.100	0.020	-0.430	-0.900
2020/01/31 14:57:39.0	0.070	0.000	-0.370	-0.880
2020/01/31 14:57:39.1	0.040	-0.020	-0.310	-0.850
2020/01/31 14:57:39.2	0.010	-0.040	-0.250	-0.830
2020/01/31 14:57:39.3	359.980	-0.050	-0.190	-0.800
2020/01/31 14:57:39.4	359.940	-0.070	-0.130	-0.770
2020/01/31 14:57:39.5	359.910	-0.090	-0.070	-0.730
2020/01/31 14:57:39.6	359.870	-0.100	-0.010	-0.700
2020/01/31 14:57:39.7	359.830	-0.110	0.050	-0.660
2020/01/31 14:57:39.8	359.800	-0.130	0.100	-0.620
2020/01/31 14:57:39.9	359.760	-0.140	0.150	-0.580
2020/01/31 14:57:40.0	359.730	-0.140	0.200	-0.540
2020/01/31 14:57:40.1	359.700	-0.150	0.250	-0.500
2020/01/31 14:57:40.2	359.670	-0.150	0.290	-0.460
2020/01/31 14:57:40.3	359.640	-0.160	0.330	-0.420
2020/01/31 14:57:40.4	359.620	-0.160	0.360	-0.390
2020/01/31 14:57:40.5	359.590	-0.150	0.390	-0.350
2020/01/31 14:57:40.6	359.570	-0.150	0.410	-0.310
2020/01/31 14:57:40.7	359.550	-0.150	0.430	-0.280
2020/01/31 14:57:40.8	359.530	-0.140	0.440	-0.250
2020/01/31 14:57:40.9	359.520	-0.130	0.450	-0.220
2020/01/31 14:57:41.0	359.510	-0.120	0.460	-0.190
2020/01/31 14:57:41.1	359.490	-0.110	0.460	-0.170
2020/01/31 14:57:41.2	359.480	-0.100	0.460	-0.140
2020/01/31 14:57:41.3	359.480	-0.090	0.450	-0.120
2020/01/31 14:57:41.4	359.470	-0.080	0.450	-0.100
2020/01/31 14:57:41.5	359.460	-0.070	0.430	-0.080
2020/01/31 14:57:41.6	359.460	-0.060	0.420	-0.070
2020/01/31 14:57:41.7	359.460	-0.050	0.410	-0.060
2020/01/31 14:57:41.8	359.450	-0.050	0.390	-0.040
2020/01/31 14:57:41.9	359.450	-0.040	0.370	-0.030
2020/01/31 14:57:42.0	359.450	-0.030	0.350	-0.010
2020/01/31 14:57:42.1	359.440	-0.030	0.330	0.000
2020/01/31 14:57:42.2	359.440	-0.020	0.310	0.020
2020/01/31 14:57:42.3	359.430	-0.020	0.290	0.030
2020/01/31 14:57:42.4	359.430	-0.020	0.270	0.040
2020/01/31 14:57:42.5	359.420	-0.020	0.250	0.060
2020/01/31 14:57:42.6	359.420	-0.020	0.220	0.080
2020/01/31 14:57:42.7	359.410	-0.030	0.200	0.090
2020/01/31 14:57:42.8	359.410	-0.030	0.170	0.110
2020/01/31 14:57:42.9	359.400	-0.040	0.140	0.120
2020/01/31 14:57:43.0	359.390	-0.040	0.110	0.140
2020/01/31 14:57:43.1	359.380	-0.050	0.080	0.150
2020/01/31 14:57:43.2	359.370	-0.060	0.040	0.170
2020/01/31 14:57:43.3	359.360	-0.060	0.010	0.180
2020/01/31 14:57:43.4	359.350	-0.070	-0.030	0.190
2020/01/31 14:57:43.5	359.340	-0.080	-0.070	0.200
2020/01/31 14:57:43.6	359.330	-0.090	-0.120	0.200
2020/01/31 14:57:43.7	359.320	-0.090	-0.160	0.210
2020/01/31 14:57:43.8	359.310	-0.100	-0.210	0.210
2020/01/31 14:57:43.9	359.300	-0.110	-0.260	0.200
2020/01/31 14:57:44.0	359.290	-0.110	-0.320	0.190
2020/01/31 14:57:44.1	359.280	-0.110	-0.370	0.180
2020/01/31 14:57:44.2	359.280	-0.120	-0.430	0.170
2020/01/31 14:57:44.3	359.270	-0.120	-0.490	0.150
2020/01/31 14:57:44.4	359.260	-0.120	-0.550	0.130
2020/01/31 14:57:44.5	359.260	-0.110	-0.610	0.100
2020/01/31 14:57:44.6	359.260	-0.110	-0.670	0.080
2020/01/31 14:57:44.7	359.260	-0.110	-0.730	0.040
2020/01/31 14:57:44.8	359.260	-0.100	-0.790	0.010
2020/01/31 14:57:44.9	359.260	-0.090	-0.850	-0.030
2020/01/31 14:57:45.0	359.270	-0.080	-0.910	-0.060
2020/01/31 14:57:45.1	359.270	-0.070	-0.970	-0.100
2020/01/31 14:57:45.2	359.280	-0.060	-1.020	-0.140
2020/01/31 14:57:45.3	359.280	-0.050	-1.070	-0.190
2020/01/31 14:57:45.4	359.290	-0.040	-1.120	-0.230
2020/01/31 14:57:45.5	359.300	-0.030	-1.170	-0.270
2020/01/31 14:57:45.6	359.310	-0.020	-1.210	-0.320
2020/01/31 14:57:45.7	359.320	-0.000	-1.240	-0.360
2020/01/31 14:57:45.8	359.340	0.010	-1.270	-0.410
2020/01/31 14:57:45.9	359.350	0.020	-1.290	-0.460
2020/01/31 14:57:46.0	359.360	0.030	-1.310	-0.500
2020/01/31 14:57:46.1	359.380	0.040	-1.320	-0.550
2020/01/31 14:57:46.2	359.400	0.050	-1.330	-0.590
2020/01/31 14:57:46.3	359.420	0.050	-1.330	-0.630
2020/01/31 14:57:46.4	359.430	0.060	-1.330	-0.680
2020/01/31 14:57:46.5	359.460	0.060	-1.320	-0.720
2020/01/31 14:57:46.6	359.480	0.060	-1.310	-0.760
2020/01/31 14:57:46.7	359.500	0.060	-1.290	-0.800
2020/01/31 14:57:46.8	359.530	0.060	-1.260	-0.840
2020/01/31 14:57:46.9	359.550	0.060	-1.230	-0.870
2020/01/31 14:57:47.0	359.580	0.050	-1.190	-0.900
2020/01/31 14:57:47.1	359.610	0.040	-1.150	-0.940
2020/01/31 14:57:47.2	359.640	0.030	-1.110	-0.960
2020/01/31 14:57:47.3	359.670	0.020	-1.060	-0.990
2020/01/31 14:57:47.4	359.700	0.010	-1.010	-1.010
2020/01/31 14:57:47.5	359.730	-0.010	-0.950	-1.030
2020/01/31 14:57:47.6	359.770	-0.020	-0.890	-1.050
2020/01/31 14:57:47.7	359.800	-0.040	-0.830	-1.070
2020/01/31 14:57:47.8	359.830	-0.050	-0.770	-1.080
2020/01/31 14:57:47.9	359.870	-0.070	-0.700	-1.090
2020/01/31 14:57:48.0	359.900	-0.090	-0.630	-1.100
2020/01/31 14:57:48.1	359.930	-0.110	-0.570	-1.100
2020/01/31 14:57:48.2	359.970	-0.120	-0.500	-1.100
2020/01/31 14:57:48.3	0.000	-0.140	-0.430	-1.100
2020/01/31 14:57:48.4	0.030	-0.150	-0.360	-1.090
2020/01/31 14:57:48.5	0.060	-0.170	-0.290	-1.070
2020/01/31 14:57:48.6	0.090	-0.180	-0.220	-1.060
2020/01/31 14:57:48.7	0.100	-0.190	-0.150	-1.040
2020/01/31 14:57:48.8	0.130	-0.200	-0.080	-1.010
2020/01/31 14:57:48.9	0.150	-0.200	-0.010	-0.980
2020/01/31 14:57:49.0	0.170	-0.210	0.060	-0.940
2020/01/31 14:57:49.1	0.180	-0.210	0.130	-0.890
2020/01/31 14:57:49.2	0.200	-0.200	0.190	-0.850
2020/01/31 14:57:49.3	0.210	-0.200	0.260	-0.790
2020/01/31 14:57:49.4	0.210	-0.190	0.330	-0.730
2020/01/31 14:57:49.5	0.210	-0.180	0.390	-0.670
2020/01/31 14:57:49.6	0.210	-0.160	0.450	-0.600
2020/01/31 14:57:49.7	0.210	-0.150	0.510	-0.520
2020/01/31 14:57:49.8	0.200	-0.130	0.570	-0.440
2020/01/31 14:57:49.9	0.180	-0.110	0.620	-0.360
2020/01/31 14:57:50.0	0.160	-0.080	0.670	-0.270
2020/01/31 14:57:50.1	0.140	-0.060	0.720	-0.190
2020/01/31 14:57:50.2	0.120	-0.030	0.760	-0.090
2020/01/31 14:57:50.3	0.090	0.000	0.800	-0.000
2020/01/31 14:57:50.4	0.060	0.030	0.830	0.090
2020/01/31 14:57:50.5	0.030	0.060	0.860	0.190
2020/01/31 14:57:50.6	0.000	0.100	0.880	0.280
2020/01/31 14:57:50.7	359.960	0.130	0.890	0.370
2020/01/31 14:57:50.8	359.920	0.160	0.900	0.460
2020/01/31 14:57:50.9	359.890	0.200	0.910	0.540
2020/01/31 14:57:51.0	359.860	0.230	0.900	0.630
2020/01/31 14:57:51.1	359.820	0.260	0.890	0.700
2020/01/31 14:57:51.2	359.790	0.290	0.870	0.770
2020/01/31 14:57:51.3	359.760	0.320	0.850	0.840
2020/01/31 14:57:51.4	359.730	0.350	0.820	0.900
2020/01/31 14:57:51.5	359.700	0.370	0.780	0.950
2020/01/31 14:57:51.6	359.670	0.400	0.730	1.000
2020/01/31 14:57:51.7	359.640	0.420	0.690	1.040
2020/01/31 14:57:51.8	359.620	0.440	0.630	1.080
2020/01/31 14:57:51.9	359.590	0.450	0.570	1.100
2020/01/31 14:57:52.0	359.560	0.460	0.510	1.120
2020/01/31 14:57:52.1	359.530	0.470	0.440	1.140
2020/01/31 14:57:52.2	359.500	0.470	0.380	1.140
2020/01/31 14:57:52.3	359.470	0.470	0.310	1.140
2020/01/31 14:57:52.4	359.430	0.460	0.240	1.130
2020/01/31 14:57:52.5	359.400	0.450	0.170	1.120
2020/01/31 14:57:52.6	359.370	0.440	0.100	1.100
2020/01/31 14:57:52.7	359.340	0.420	0.030	1.080
2020/01/31 14:57:52.8	359.300	0.400	-0.030	1.050
2020/01/31 14:57:52.9	359.270	0.380	-0.090	1.020
2020/01/31 14:57:53.0	359.240	0.350	-0.150	0.980
2020/01/31 14:57:53.1	359.210	0.320	-0.210	0.940
2020/01/31 14:57:53.2	359.170	0.290	-0.260	0.900
2020/01/31 14:57:53.3	359.140	0.250	-0.310	0.850
2020/01/31 14:57:53.4	359.120	0.210	-0.350	0.800
2020/01/31 14:57:53.5	359.090	0.170	-0.390	0.740
2020/01/31 14:57:53.6	359.070	0.130	-0.430	0.690
2020/01/31 14:57:53.7	359.050	0.090	-0.460	0.620
2020/01/31 14:57:53.8	359.030	0.050	-0.490	0.560
2020/01/31 14:57:53.9	359.020	0.010	-0.520	0.490
2020/01/31 14:57:54.0	359.010	-0.030	-0.550	0.420
2020/01/31 14:57:54.1	359.000	-0.070	-0.570	0.340
2020/01/31 14:57:54.2	359.000	-0.110	-0.600	0.260
2020/01/31 14:57:54.3	359.000	-0.150	-0.630	0.180
2020/01/31 14:57:54.4	359.010	-0.190	-0.650	0.100
2020/01/31 14:57:54.5	359.020	-0.220	-0.680	0.010
2020/01/31 14:57:54.6	359.040	-0.250	-0.700	-0.080
2020/01/31 14:57:54.7	359.060	-0.270	-0.730	-0.170
2020/01/31 14:57:54.8	359.080	-0.300	-0.760	-0.260
2020/01/31 14:57:54.9	359.100	-0.320	-0.780	-0.350
2020/01/31 14:57:55.0	359.130	-0.330	-0.810	-0.440
2020/01/31 14:57:55.1	359.160	-0.340	-0.830	-0.530
2020/01/31 14:57:55.2	359.190	-0.350	-0.860	-0.620
2020/01/31 14:57:55.3	359.220	-0.350	-0.890	-0.700
2020/01/31 14:57:55.4	359.250	-0.350	-0.910	-0.780
2020/01/31 14:57:55.5	359.290	-0.340	-0.940	-0.860
2020/01/31 14:57:55.6	359.320	-0.330	-0.960	-0.930
2020/01/31 14:57:55.7	359.360	-0.320	-0.980	-1.000
2020/01/31 14:57:55.8	359.400	-0.300	-1.000	-1.070
2020/01/31 14:57:55.9	359.440	-0.280	-1.020	-1.130
2020/01/31 14:57:56.0	359.470	-0.260	-1.040	-1.180
2020/01/31 14:57:56.1	359.510	-0.240	-1.060	-1.240
2020/01/31 14:57:56.2	359.550	-0.210	-1.070	-1.290
2020/01/31 14:57:56.3	359.590	-0.180	-1.080	-1.330
2020/01/31 14:57:56.4	359.640	-0.150	-1.090	-1.370
2020/01/31 14:57:56.5	359.680	-0.110	-1.100	-1.410
2020/01/31 14:57:56.6	359.720	-0.080	-1.100	-1.440
2020/01/31 14:57:56.7	359.770	-0.050	-1.100	-1.460
2020/01/31 14:57:56.8	359.810	-0.020	-1.100	-1.490
2020/01/31 14:57:56.9	359.860	0.020	-1.090	-1.500
2020/01/31 14:57:57.0	359.900	0.050	-1.080	-1.510
2020/01/31 14:57:57.1	359.940	0.080	-1.060	-1.510
2020/01/31 14:57:57.2	359.990	0.110	-1.050	-1.510
2020/01/31 14:57:57.3	0.030	0.130	-1.020	-1.500
2020/01/31 14:57:57.4	0.060	0.150	-0.990	-1.490
2020/01/31 14:57:57.5	0.100	0.170	-0.960	-1.470
2020/01/31 14:57:57.6	0.140	0.190	-0.920	-1.440
2020/01/31 14:57:57.7	0.170	0.210	-0.880	-1.410
2020/01/31 14:57:57.8	0.200	0.220	-0.830	-1.380
2020/01/31 14:57:57.9	0.220	0.220	-0.790	-1.330
2020/01/31 14:57:58.0	0.240	0.230	-0.730	-1.290
2020/01/31 14:57:58.1	0.260	0.230	-0.680	-1.240
2020/01/31 14:57:58.2	0.280	0.220	-0.620	-1.180
2020/01/31 14:57:58.3	0.290	0.220	-0.560	-1.120
2020/01/31 14:57:58.4	0.290	0.200	-0.490	-1.060
2020/01/31 14:57:58.5	0.300	0.190	-0.430	-0.990
2020/01/31 14:57:58.6	0.300	0.170	-0.360	-0.920
2020/01/31 14:57:58.7	0.290	0.150	-0.290	-0.850
2020/01/31 14:57:58.8	0.290	0.120	-0.220	-0.780
2020/01/31 14:57:58.9	0.280	0.100	-0.150	-0.700
2020/01/31 14:57:59.0	0.260	0.070	-0.080	-0.630
2020/01/31 14:57:59.1	0.250	0.030	-0.010	-0.550
2020/01/31 14:57:59.2	0.230	-0.000	0.050	-0.480
2020/01/31 14:57:59.3	0.210	-0.040	0.120	-0.410
2020/01/31 14:57:59.4	0.190	-0.070	0.190	-0.340
2020/01/31 14:57:59.5	0.160	-0.110	0.250	-0.270
2020/01/31 14:57:59.6	0.140	-0.150	0.310	-0.200
2020/01/31 14:57:59.7	0.110	-0.190	0.370	-0.140
2020/01/31 14:57:59.8	0.080	-0.230	0.420	-0.080
2020/01/31 14:57:59.9	0.050	-0.260	0.480	-0.010
2020/01/31 14:58:00.0	0.020	-0.300	0.520	0.040
2020/01/31 14:58:00.1	359.990	-0.340	0.570	0.100
2020/01/31 14:58:00.2	359.960	-0.370	0.600	0.150
2020/01/31 14:58:00.3	359.930	-0.400	0.640	0.200
2020/01/31 14:58:00.4	359.900	-0.430	0.670	0.250
2020/01/31 14:58:00.5	359.870	-0.450	0.690	0.290
2020/01/31 14:58:00.6	359.840	-0.470	0.710	0.330
2020/01/31 14:58:00.7	359.800	-0.490	0.720	0.370
2020/01/31 14:58:00.8	359.780	-0.500	0.730	0.400
2020/01/31 14:58:00.9	359.750	-0.510	0.730	0.430
2020/01/31 14:58:01.0	359.730	-0.520	0.730	0.450
2020/01/31 14:58:01.1	359.710	-0.520	0.720	0.480
2020/01/31 14:58:01.2	359.680	-0.510	0.710	0.500
2020/01/31 14:58:01.3	359.670	-0.500	0.690	0.510
2020/01/31 14:58:01.4	359.650	-0.490	0.660	0.520
2020/01/31 14:58:01.5	359.630	-0.470	0.630	0.530
2020/01/31 14:58:01.6	359.620	-0.450	0.590	0.540
2020/01/31 14:58:01.7	359.610	-0.420	0.550	0.530
2020/01/31 14:58:01.8	359.600	-0.390	0.500	0.530
2020/01/31 14:58:01.9	359.590	-0.360	0.440	0.530
2020/01/31 14:58:02.0	359.590	-0.320	0.380	0.530
2020/01/31 14:58:02.1	359.590	-0.280	0.320	0.520
2020/01/31 14:58:02.2	359.590	-0.230	0.250	0.510
2020/01/31 14:58:02.3	359.600	-0.190	0.180	0.500
2020/01/31 14:58:02.4	359.600	-0.140	0.100	0.480
2020/01/31 14:58:02.5	359.610	-0.090	0.030	0.470
2020/01/31 14:58:02.6	359.610	-0.030	-0.050	0.460
2020/01/31 14:58:02.7	359.610	0.020	-0.120	0.440
2020/01/31 14:58:02.8	359.620	0.070	-0.200	0.420
2020/01/31 14:58:02.9	359.630	0.120	-0.280	0.410
2020/01/31 14:58:03.0	359.640	0.170	-0.350	0.390
2020/01/31 14:58:03.1	359.650	0.220	-0.420	0.370
2020/01/31 14:58:03.2	359.660	0.270	-0.490	0.340
2020/01/31 14:58:03.3	359.670	0.310	-0.550	0.320
2020/01/31 14:58:03.4	359.680	0.360	-0.610	0.300
2020/01/31 14:58:03.5	359.690	0.400	-0.660	0.270
2020/01/31 14:58:03.6	359.710	0.430	-0.710	0.240
2020/01/31 14:58:03.7	359.720	0.460	-0.750	0.210
2020/01/31 14:58:03.8	359.730	0.490	-0.790	0.180
2020/01/31 14:58:03.9	359.740	0.510	-0.820	0.160
2020/01/31 14:58:04.0	359.750	0.530	-0.840	0.130
2020/01/31 14:58:04.1	359.760	0.550	-0.860	0.100
2020/01/31 14:58:04.2	359.760	0.560	-0.870	0.070
2020/01/31 14:58:04.3	359.770	0.570	-0.880	0.040
2020/01/31 14:58:04.4	359.780	0.570	-0.880	0.020
2020/01/31 14:58:04.5	359.780	0.560	-0.870	-0.010
2020/01/31 14:58:04.6	359.780	0.560	-0.860	-0.030
2020/01/31 14:58:04.7	359.780	0.550	-0.840	-0.060
2020/01/31 14:58:04.8	359.780	0.530	-0.820	-0.080
2020/01/31 14:58:04.9	359.780	0.520	-0.800	-0.100
2020/01/31 14:58:05.0	359.770	0.500	-0.770	-0.120
2020/01/31 14:58:05.1	359.770	0.470	-0.730	-0.140
2020/01/31 14:58:05.2	359.760	0.450	-0.700	-0.150
2020/01/31 14:58:05.3	359.750	0.420	-0.660	-0.170
2020/01/31 14:58:05.4	359.740	0.390	-0.620	-0.180
2020/01/31 14:58:05.5	359.730	0.360	-0.570	-0.200
2020/01/31 14:58:05.6	359.720	0.330	-0.530	-0.210
2020/01/31 14:58:05.7	359.710	0.300	-0.490	-0.220
2020/01/31 14:58:05.8	359.700	0.270	-0.440	-0.230
2020/01/31 14:58:05.9	359.680	0.240	-0.400	-0.240
2020/01/31 14:58:06.0	359.670	0.210	-0.360	-0.250
2020/01/31 14:58:06.1	359.660	0.180	-0.310	-0.250
2020/01/31 14:58:06.2	359.650	0.150	-0.280	-0.260
2020/01/31 14:58:06.3	359.640	0.130	-0.240	-0.270
2020/01/31 14:58:06.4	359.630	0.100	-0.210	-0.280
2020/01/31 14:58:06.5	359.620	0.080	-0.180	-0.290
2020/01/31 14:58:06.6	359.610	0.060	-0.150	-0.300
2020/01/31 14:58:06.7	359.600	0.040	-0.130	-0.320
2020/01/31 14:58:06.8	359.590	0.020	-0.110	-0.330
2020/01/31 14:58:06.9	359.590	0.010	-0.090	-0.340
2020/01/31 14:58:07.0	359.590	-0.000	-0.080	-0.360
2020/01/31 14:58:07.1	359.590	-0.010	-0.070	-0.370
2020/01/31 14:58:07.2	359.580	-0.020	-0.060	-0.390
2020/01/31 14:58:07.3	359.580	-0.030	-0.060	-0.410
2020/01/31 14:58:07.4	359.590	-0.040	-0.060	-0.430
2020/01/31 14:58:07.5	359.590	-0.040	-0.070	-0.440
2020/01/31 14:58:07.6	359.590	-0.050	-0.070	-0.460
2020/01/31 14:58:07.7	359.590	-0.050	-0.080	-0.480
2020/01/31 14:58:07.8	359.590	-0.050	-0.090	-0.500
2020/01/31 14:58:07.9	359.600	-0.060	-0.110	-0.520
2020/01/31 14:58:08.0	359.600	-0.060	-0.120	-0.530
2020/01/31 14:58:08.1	359.610	-0.060	-0.130	-0.550
2020/01/31 14:58:08.2	359.610	-0.070	-0.150	-0.560
2020/01/31 14:58:08.3	359.610	-0.070	-0.160	-0.580
2020/01/31 14:58:08.4	359.620	-0.070	-0.180	-0.590
2020/01/31 14:58:08.5	359.620	-0.080	-0.190	-0.600
2020/01/31 14:58:08.6	359.620	-0.080	-0.210	-0.610
2020/01/31 14:58:08.7	359.620	-0.090	-0.230	-0.610
2020/01/31 14:58:08.8	359.620	-0.100	-0.250	-0.620
2020/01/31 14:58:08.9	359.630	-0.100	-0.260	-0.620
2020/01/31 14:58:09.0	359.630	-0.110	-0.270	-0.620
2020/01/31 14:58:09.1	359.630	-0.120	-0.290	-0.620
2020/01/31 14:58:09.2	359.640	-0.130	-0.300	-0.620
2020/01/31 14:58:09.3	359.640	-0.140	-0.310	-0.620
2020/01/31 14:58:09.4	359.650	-0.150	-0.320	-0.610
2020/01/31 14:58:09.5	359.650	-0.160	-0.330	-0.600
2020/01/31 14:58:09.6	359.660	-0.170	-0.330	-0.590
2020/01/31 14:58:09.7	359.660	-0.180	-0.330	-0.580
2020/01/31 14:58:09.8	359.670	-0.190	-0.340	-0.570
2020/01/31 14:58:09.9	359.680	-0.200	-0.340	-0.560
2020/01/31 14:58:10.0	359.690	-0.210	-0.340	-0.550
2020/01/31 14:58:10.1	359.700	-0.220	-0.340	-0.530
2020/01/31 14:58:10.2	359.710	-0.220	-0.340	-0.510
2020/01/31 14:58:10.3	359.720	-0.230	-0.340	-0.500
2020/01/31 14:58:10.4	359.730	-0.240	-0.340	-0.480
2020/01/31 14:58:10.5	359.740	-0.240	-0.330	-0.460
2020/01/31 14:58:10.6	359.750	-0.250	-0.320	-0.440
2020/01/31 14:58:10.7	359.760	-0.250	-0.320	-0.420
2020/01/31 14:58:10.8	359.770	-0.250	-0.310	-0.400
2020/01/31 14:58:10.9	359.780	-0.250	-0.300	-0.380
2020/01/31 14:58:11.0	359.790	-0.250	-0.290	-0.350
2020/01/31 14:58:11.1	359.800	-0.240	-0.280	-0.330
2020/01/31 14:58:11.2	359.810	-0.240	-0.270	-0.310
2020/01/31 14:58:11.3	359.820	-0.240	-0.260	-0.280
2020/01/31 14:58:11.4	359.830	-0.230	-0.240	-0.260
2020/01/31 14:58:11.5	359.840	-0.230	-0.230	-0.230
2020/01/31 14:58:11.6	359.850	-0.220	-0.210	-0.210
2020/01/31 14:58:11.7	359.860	-0.210	-0.200	-0.180
2020/01/31 14:58:11.8	359.860	-0.210	-0.180	-0.150
2020/01/31 14:58:11.9	359.860	-0.200	-0.170	-0.120
2020/01/31 14:58:12.0	359.860	-0.190	-0.150	-0.100
2020/01/31 14:58:12.1	359.860	-0.190	-0.140	-0.070
2020/01/31 14:58:12.2	359.860	-0.180	-0.130	-0.040
2020/01/31 14:58:12.3	359.860	-0.180	-0.110	-0.010
2020/01/31 14:58:12.4	359.860	-0.170	-0.100	0.020
2020/01/31 14:58:12.5	359.850	-0.170	-0.090	0.040
2020/01/31 14:58:12.6	359.850	-0.170	-0.080	0.070
2020/01/31 14:58:12.7	359.850	-0.160	-0.070	0.090
2020/01/31 14:58:12.8	359.850	-0.160	-0.060	0.120
2020/01/31 14:58:12.9	359.840	-0.160	-0.050	0.140
2020/01/31 14:58:13.0	359.840	-0.160	-0.050	0.160
2020/01/31 14:58:13.1	359.830	-0.160	-0.040	0.180
2020/01/31 14:58:13.2	359.830	-0.160	-0.040	0.200
2020/01/31 14:58:13.3	359.820	-0.160	-0.040	0.220
2020/01/31 14:58:13.4	359.820	-0.160	-0.040	0.240
2020/01/31 14:58:13.5	359.810	-0.150	-0.040	0.260
2020/01/31 14:58:13.6	359.810	-0.150	-0.040	0.270
2020/01/31 14:58:13.7	359.800	-0.150	-0.050	0.280
2020/01/31 14:58:13.8	359.800	-0.150	-0.060	0.290
2020/01/31 14:58:13.9	359.800	-0.140	-0.060	0.310
2020/01/31 14:58:14.0	359.800	-0.140	-0.070	0.320
2020/01/31 14:58:14.1	359.800	-0.130	-0.070	0.330
2020/01/31 14:58:14.2	359.810	-0.120	-0.080	0.340
2020/01/31 14:58:14.3	359.810	-0.110	-0.090	0.340
2020/01/31 14:58:14.4	359.810	-0.100	-0.090	0.350
2020/01/31 14:58:14.5	359.810	-0.090	-0.100	0.360
2020/01/31 14:58:14.6	359.820	-0.070	-0.110	0.360
2020/01/31 14:58:14.7	359.820	-0.060	-0.120	0.360
2020/01/31 14:58:14.8	359.830	-0.040	-0.120	0.370
2020/01/31 14:58:14.9	359.830	-0.030	-0.130	0.370
2020/01/31 14:58:15.0	359.830	-0.010	-0.130	0.370
2020/01/31 14:58:15.1	359.830	0.010	-0.140	0.370
2020/01/31 14:58:15.2	359.840	0.030	-0.150	0.360
2020/01/31 14:58:15.3	359.840	0.060	-0.150	0.360
2020/01/31 14:58:15.4	359.840	0.080	-0.160	0.350
2020/01/31 14:58:15.5	359.840	0.100	-0.170	0.340
2020/01/31 14:58:15.6	359.840	0.130	-0.180	0.330
2020/01/31 14:58:15.7	359.840	0.150	-0.180	0.310
2020/01/31 14:58:15.8	359.840	0.170	-0.190	0.290
2020/01/31 14:58:15.9	359.840	0.200	-0.200	0.270
2020/01/31 14:58:16.0	359.840	0.220	-0.220	0.250
2020/01/31 14:58:16.1	359.840	0.250	-0.230	0.230
2020/01/31 14:58:16.2	359.840	0.270	-0.250	0.200
2020/01/31 14:58:16.3	359.840	0.300	-0.270	0.170
2020/01/31 14:58:16.4	359.840	0.320	-0.280	0.140
2020/01/31 14:58:16.5	359.840	0.340	-0.300	0.110
2020/01/31 14:58:16.6	359.840	0.360	-0.330	0.080
2020/01/31 14:58:16.7	359.840	0.380	-0.350	0.050
2020/01/31 14:58:16.8	359.840	0.400	-0.370	0.020
2020/01/31 14:58:16.9	359.850	0.420	-0.390	-0.010
2020/01/31 14:58:17.0	359.850	0.440	-0.420	-0.040
2020/01/31 14:58:17.1	359.850	0.450	-0.440	-0.070
2020/01/31 14:58:17.2	359.850	0.470	-0.470	-0.100
2020/01/31 14:58:17.3	359.860	0.480	-0.490	-0.130
2020/01/31 14:58:17.4	359.860	0.490	-0.510	-0.150
2020/01/31 14:58:17.5	359.860	0.500	-0.530	-0.180
2020/01/31 14:58:17.6	359.870	0.510	-0.560	-0.200
2020/01/31 14:58:17.7	359.870	0.510	-0.580	-0.230
2020/01/31 14:58:17.8	359.870	0.520	-0.590	-0.250
2020/01/31 14:58:17.9	359.870	0.520	-0.610	-0.270
2020/01/31 14:58:18.0	359.870	0.520	-0.620	-0.290
2020/01/31 14:58:18.1	359.870	0.510	-0.640	-0.310
2020/01/31 14:58:18.2	359.870	0.510	-0.650	-0.330
2020/01/31 14:58:18.3	359.870	0.500	-0.650	-0.350
2020/01/31 14:58:18.4	359.870	0.490	-0.660	-0.370
2020/01/31 14:58:18.5	359.870	0.480	-0.660	-0.390
2020/01/31 14:58:18.6	359.860	0.460	-0.650	-0.400
2020/01/31 14:58:18.7	359.860	0.450	-0.640	-0.420
2020/01/31 14:58:18.8	359.860	0.430	-0.630	-0.430
2020/01/31 14:58:18.9	359.850	0.410	-0.610	-0.440
2020/01/31 14:58:19.0	359.850	0.390	-0.600	-0.450
2020/01/31 14:58:19.1	359.840	0.370	-0.570	-0.450
2020/01/31 14:58:19.2	359.830	0.340	-0.550	-0.460
2020/01/31 14:58:19.3	359.830	0.320	-0.520	-0.460
2020/01/31 14:58:19.4	359.820	0.290	-0.480	-0.460
2020/01/31 14:58:19.5	359.810	0.270	-0.450	-0.450
2020/01/31 14:58:19.6	359.800	0.240	-0.410	-0.450
2020/01/31 14:58:19.7	359.790	0.210	-0.370	-0.440
2020/01/31 14:58:19.8	359.780	0.180	-0.320	-0.430
2020/01/31 14:58:19.9	359.770	0.150	-0.280	-0.420
2020/01/31 14:58:20.0	359.760	0.120	-0.230	-0.410
2020/01/31 14:58:20.1	359.750	0.090	-0.180	-0.390
2020/01/31 14:58:20.2	359.740	0.060	-0.130	-0.380
2020/01/31 14:58:20.3	359.720	0.030	-0.080	-0.360
2020/01/31 14:58:20.4	359.710	0.000	-0.030	-0.350
2020/01/31 14:58:20.5	359.700	-0.030	0.010	-0.330
2020/01/31 14:58:20.6	359.690	-0.060	0.060	-0.310
2020/01/31 14:58:20.7	359.680	-0.090	0.100	-0.300
2020/01/31 14:58:20.8	359.680	-0.120	0.140	-0.290
2020/01/31 14:58:20.9	359.670	-0.140	0.180	-0.270
2020/01/31 14:58:21.0	359.660	-0.170	0.210	-0.260
2020/01/31 14:58:21.1	359.660	-0.200	0.240	-0.260
2020/01/31 14:58:21.2	359.660	-0.220	0.260	-0.250
2020/01/31 14:58:21.3	359.660	-0.240	0.280	-0.250
2020/01/31 14:58:21.4	359.660	-0.270	0.290	-0.250
2020/01/31 14:58:21.5	359.660	-0.290	0.300	-0.250
2020/01/31 14:58:21.6	359.660	-0.300	0.300	-0.250
2020/01/31 14:58:21.7	359.670	-0.320	0.300	-0.250
2020/01/31 14:58:21.8	359.670	-0.340	0.290	-0.260
2020/01/31 14:58:21.9	359.680	-0.350	0.270	-0.260
2020/01/31 14:58:22.0	359.690	-0.360	0.250	-0.260
2020/01/31 14:58:22.1	359.700	-0.370	0.230	-0.270
2020/01/31 14:58:22.2	359.710	-0.380	0.200	-0.270
2020/01/31 14:58:22.3	359.730	-0.380	0.160	-0.280
2020/01/31 14:58:22.4	359.740	-0.380	0.120	-0.290
2020/01/31 14:58:22.5	359.760	-0.390	0.070	-0.290
2020/01/31 14:58:22.6	359.780	-0.380	0.020	-0.300
2020/01/31 14:58:22.7	359.790	-0.380	-0.040	-0.310
2020/01/31 14:58:22.8	359.820	-0.370	-0.100	-0.320
2020/01/31 14:58:22.9	359.840	-0.370	-0.160	-0.340
2020/01/31 14:58:23.0	359.870	-0.360	-0.230	-0.350
2020/01/31 14:58:23.1	359.900	-0.350	-0.300	-0.370
2020/01/31 14:58:23.2	359.940	-0.330	-0.370	-0.390
2020/01/31 14:58:23.3	359.970	-0.320	-0.450	-0.410
2020/01/31 14:58:23.4	0.010	-0.300	-0.520	-0.430
2020/01/31 14:58:23.5	0.060	-0.280	-0.600	-0.460
2020/01/31 14:58:23.6	0.100	-0.260	-0.670	-0.490
2020/01/31 14:58:23.7	0.150	-0.240	-0.740	-0.520
2020/01/31 14:58:23.8	0.200	-0.220	-0.820	-0.560
2020/01/31 14:58:23.9	0.250	-0.200	-0.880	-0.590
2020/01/31 14:58:24.0	0.300	-0.180	-0.950	-0.630
2020/01/31 14:58:24.1	0.360	-0.160	-1.010	-0.660
2020/01/31 14:58:24.2	0.410	-0.140	-1.060	-0.690
2020/01/31 14:58:24.3	0.460	-0.120	-1.100	-0.730
2020/01/31 14:58:24.4	0.500	-0.100	-1.140	-0.750
2020/01/31 14:58:24.5	0.550	-0.090	-1.170	-0.780
2020/01/31 14:58:24.6	0.590	-0.070	-1.180	-0.800
2020/01/31 14:58:24.7	0.630	-0.060	-1.190	-0.810
2020/01/31 14:58:24.8	0.660	-0.050	-1.180	-0.830
2020/01/31 14:58:24.9	0.690	-0.040	-1.170	-0.830
2020/01/31 14:58:25.0	0.720	-0.030	-1.140	-0.840
2020/01/31 14:58:25.1	0.730	-0.030	-1.100	-0.830
2020/01/31 14:58:25.2	0.750	-0.030	-1.050	-0.830
2020/01/31 14:58:25.3	0.760	-0.030	-0.990	-0.820
2020/01/31 14:58:25.4	0.760	-0.030	-0.920	-0.800
2020/01/31 14:58:25.5	0.760	-0.040	-0.840	-0.780
2020/01/31 14:58:25.6	0.750	-0.050	-0.750	-0.750
2020/01/31 14:58:25.7	0.750	-0.060	-0.650	-0.720
2020/01/31 14:58:25.8	0.730	-0.080	-0.550	-0.690
2020/01/31 14:58:25.9	0.720	-0.100	-0.440	-0.660
2020/01/31 14:58:26.0	0.690	-0.120	-0.320	-0.620
2020/01/31 14:58:26.1	0.670	-0.140	-0.200	-0.580
2020/01/31 14:58:26.2	0.640	-0.160	-0.080	-0.540
2020/01/31 14:58:26.3	0.610	-0.190	0.040	-0.500
2020/01/31 14:58:26.4	0.580	-0.210	0.160	-0.450
2020/01/31 14:58:26.5	0.540	-0.240	0.280	-0.410
2020/01/31 14:58:26.6	0.500	-0.270	0.400	-0.370
2020/01/31 14:58:26.7	0.470	-0.290	0.510	-0.320
2020/01/31 14:58:26.8	0.430	-0.320	0.620	-0.280
2020/01/31 14:58:26.9	0.390	-0.340	0.720	-0.240
2020/01/31 14:58:27.0	0.350	-0.360	0.810	-0.200
2020/01/31 14:58:27.1	0.300	-0.390	0.900	-0.160
2020/01/31 14:58:27.2	0.260	-0.410	0.970	-0.130
2020/01/31 14:58:27.3	0.210	-0.420	1.040	-0.100
2020/01/31 14:58:27.4	0.170	-0.440	1.100	-0.070
2020/01/31 14:58:27.5	0.120	-0.450	1.140	-0.040
2020/01/31 14:58:27.6	0.080	-0.450	1.180	-0.010
2020/01/31 14:58:27.7	0.030	-0.460	1.200	0.010
2020/01/31 14:58:27.8	359.980	-0.460	1.220	0.040
2020/01/31 14:58:27.9	359.930	-0.450	1.220	0.060
2020/01/31 14:58:28.0	359.880	-0.440	1.210	0.080
2020/01/31 14:58:28.1	359.830	-0.430	1.190	0.100
2020/01/31 14:58:28.2	359.780	-0.410	1.160	0.120
2020/01/31 14:58:28.3	359.730	-0.390	1.120	0.130
2020/01/31 14:58:28.4	359.690	-0.370	1.070	0.150
2020/01/31 14:58:28.5	359.640	-0.340	1.010	0.160
2020/01/31 14:58:28.6	359.580	-0.300	0.940	0.170
2020/01/31 14:58:28.7	359.530	-0.270	0.860	0.170
2020/01/31 14:58:28.8	359.480	-0.230	0.770	0.180
2020/01/31 14:58:28.9	359.440	-0.190	0.680	0.180
2020/01/31 14:58:29.0	359.400	-0.140	0.580	0.180
2020/01/31 14:58:29.1	359.360	-0.090	0.480	0.180
2020/01/31 14:58:29.2	359.320	-0.040	0.370	0.170
2020/01/31 14:58:29.3	359.280	0.010	0.260	0.160
2020/01/31 14:58:29.4	359.250	0.060	0.140	0.150
2020/01/31 14:58:29.5	359.220	0.120	0.020	0.130
2020/01/31 14:58:29.6	359.190	0.180	-0.100	0.110
2020/01/31 14:58:29.7	359.150	0.230	-0.220	0.090
2020/01/31 14:58:29.8	359.130	0.290	-0.340	0.070
2020/01/31 14:58:29.9	359.110	0.350	-0.450	0.050
2020/01/31 14:58:30.0	359.100	0.410	-0.570	0.020
2020/01/31 14:58:30.1	359.090	0.460	-0.680	-0.000
2020/01/31 14:58:30.2	359.080	0.520	-0.800	-0.030
2020/01/31 14:58:30.3	359.080	0.570	-0.900	-0.050
2020/01/31 14:58:30.4	359.080	0.630	-1.000	-0.080
2020/01/31 14:58:30.5	359.080	0.680	-1.100	-0.100
2020/01/31 14:58:30.6	359.080	0.730	-1.190	-0.130
2020/01/31 14:58:30.7	359.090	0.770	-1.270	-0.160
2020/01/31 14:58:30.8	359.100	0.810	-1.340	-0.180
2020/01/31 14:58:30.9	359.110	0.850	-1.410	-0.210
2020/01/31 14:58:31.0	359.130	0.890	-1.480	-0.230
2020/01/31 14:58:31.1	359.140	0.920	-1.530	-0.250
2020/01/31 14:58:31.2	359.160	0.940	-1.580	-0.270
2020/01/31 14:58:31.3	359.180	0.970	-1.620	-0.300
2020/01/31 14:58:31.4	359.210	0.980	-1.650	-0.320
2020/01/31 14:58:31.5	359.230	0.990	-1.670	-0.340
2020/01/31 14:58:31.6	359.260	1.000	-1.690	-0.360
2020/01/31 14:58:31.7	359.300	0.990	-1.700	-0.380
2020/01/31 14:58:31.8	359.330	0.990	-1.700	-0.400
2020/01/31 14:58:31.9	359.360	0.980	-1.690	-0.430
2020/01/31 14:58:32.0	359.400	0.960	-1.670	-0.450
2020/01/31 14:58:32.1	359.430	0.930	-1.650	-0.470
2020/01/31 14:58:32.2	359.470	0.900	-1.620	-0.490
2020/01/31 14:58:32.3	359.500	0.870	-1.590	-0.510
2020/01/31 14:58:32.4	359.540	0.820	-1.550	-0.540
2020/01/31 14:58:32.5	359.570	0.780	-1.500	-0.560
2020/01/31 14:58:32.6	359.610	0.730	-1.450	-0.580
2020/01/31 14:58:32.7	359.640	0.670	-1.390	-0.610
2020/01/31 14:58:32.8	359.670	0.610	-1.330	-0.630
2020/01/31 14:58:32.9	359.700	0.550	-1.260	-0.650
2020/01/31 14:58:33.0	359.720	0.480	-1.190	-0.680
2020/01/31 14:58:33.1	359.750	0.410	-1.110	-0.700
2020/01/31 14:58:33.2	359.780	0.340	-1.040	-0.720
2020/01/31 14:58:33.3	359.800	0.260	-0.960	-0.740
2020/01/31 14:58:33.4	359.820	0.190	-0.870	-0.760
2020/01/31 14:58:33.5	359.840	0.110	-0.790	-0.780
2020/01/31 14:58:33.6	359.860	0.030	-0.710	-0.800
2020/01/31 14:58:33.7	359.870	-0.040	-0.620	-0.820
2020/01/31 14:58:33.8	359.880	-0.120	-0.540	-0.840
2020/01/31 14:58:33.9	359.900	-0.190	-0.450	-0.850
2020/01/31 14:58:34.0	359.910	-0.270	-0.370	-0.860
2020/01/31 14:58:34.1	359.930	-0.340	-0.290	-0.870
2020/01/31 14:58:34.2	359.940	-0.410	-0.210	-0.880
2020/01/31 14:58:34.3	359.950	-0.470	-0.130	-0.880
2020/01/31 14:58:34.4	359.960	-0.530	-0.060	-0.880
2020/01/31 14:58:34.5	359.970	-0.590	0.010	-0.880
2020/01/31 14:58:34.6	359.970	-0.650	0.070	-0.880
2020/01/31 14:58:34.7	359.980	-0.700	0.130	-0.880
2020/01/31 14:58:34.8	359.980	-0.740	0.190	-0.870
2020/01/31 14:58:34.9	359.990	-0.780	0.240	-0.860
2020/01/31 14:58:35.0	359.990	-0.820	0.290	-0.850
2020/01/31 14:58:35.1	0.000	-0.850	0.340	-0.830
2020/01/31 14:58:35.2	0.000	-0.870	0.380	-0.810
2020/01/31 14:58:35.3	0.000	-0.890	0.410	-0.790
2020/01/31 14:58:35.4	0.000	-0.910	0.440	-0.770
2020/01/31 14:58:35.5	0.000	-0.920	0.470	-0.740
2020/01/31 14:58:35.6	0.000	-0.920	0.500	-0.710
2020/01/31 14:58:35.7	0.000	-0.920	0.520	-0.680
2020/01/31 14:58:35.8	0.000	-0.910	0.530	-0.650
2020/01/31 14:58:35.9	359.990	-0.900	0.550	-0.610
2020/01/31 14:58:36.0	359.990	-0.890	0.560	-0.570
2020/01/31 14:58:36.1	359.980	-0.870	0.570	-0.520
2020/01/31 14:58:36.2	359.970	-0.840	0.570	-0.480
2020/01/31 14:58:36.3	359.960	-0.810	0.580	-0.430
2020/01/31 14:58:36.4	359.940	-0.780	0.580	-0.380
2020/01/31 14:58:36.5	359.920	-0.750	0.590	-0.320
2020/01/31 14:58:36.6	359.910	-0.710	0.590	-0.270
2020/01/31 14:58:36.7	359.880	-0.670	0.590	-0.210
2020/01/31 14:58:36.8	359.860	-0.620	0.590	-0.150
2020/01/31 14:58:36.9	359.840	-0.570	0.590	-0.090
2020/01/31 14:58:37.0	359.810	-0.530	0.590	-0.020
2020/01/31 14:58:37.1	359.780	-0.480	0.590	0.040
2020/01/31 14:58:37.2	359.740	-0.420	0.590	0.110
2020/01/31 14:58:37.3	359.710	-0.370	0.590	0.170
2020/01/31 14:58:37.4	359.670	-0.320	0.590	0.240
2020/01/31 14:58:37.5	359.630	-0.260	0.590	0.310
2020/01/31 14:58:37.6	359.590	-0.210	0.580	0.380
2020/01/31 14:58:37.7	359.560	-0.160	0.580	0.450
2020/01/31 14:58:37.8	359.520	-0.100	0.580	0.520
2020/01/31 14:58:37.9	359.470	-0.050	0.570	0.590
2020/01/31 14:58:38.0	359.430	-0.000	0.570	0.650
2020/01/31 14:58:38.1	359.390	0.050	0.560	0.720
2020/01/31 14:58:38.2	359.340	0.090	0.550	0.780
2020/01/31 14:58:38.3	359.290	0.140	0.540	0.840
2020/01/31 14:58:38.4	359.250	0.180	0.530	0.890
2020/01/31 14:58:38.5	359.200	0.220	0.520	0.950
2020/01/31 14:58:38.6	359.150	0.250	0.500	1.000
2020/01/31 14:58:38.7	359.110	0.280	0.490	1.050
2020/01/31 14:58:38.8	359.060	0.310	0.470	1.090
2020/01/31 14:58:38.9	359.010	0.340	0.450	1.130
2020/01/31 14:58:39.0	358.970	0.360	0.430	1.160
2020/01/31 14:58:39.1	358.920	0.380	0.400	1.190
2020/01/31 14:58:39.2	358.870	0.390	0.380	1.220
2020/01/31 14:58:39.3	358.830	0.400	0.350	1.240
2020/01/31 14:58:39.4	358.780	0.410	0.320	1.250
2020/01/31 14:58:39.5	358.740	0.410	0.280	1.260
2020/01/31 14:58:39.6	358.700	0.410	0.250	1.260
2020/01/31 14:58:39.7	358.660	0.400	0.210	1.260
2020/01/31 14:58:39.8	358.620	0.390	0.160	1.250
2020/01/31 14:58:39.9	358.590	0.380	0.120	1.230
2020/01/31 14:58:40.0	358.560	0.370	0.070	1.210
2020/01/31 14:58:40.1	358.530	0.350	0.010	1.180
2020/01/31 14:58:40.2	358.510	0.330	-0.040	1.150
2020/01/31 14:58:40.3	358.500	0.310	-0.100	1.110
2020/01/31 14:58:40.4	358.480	0.290	-0.170	1.060
2020/01/31 14:58:40.5	358.480	0.270	-0.240	1.010
2020/01/31 14:58:40.6	358.470	0.250	-0.310	0.950
2020/01/31 14:58:40.7	358.480	0.220	-0.380	0.880
2020/01/31 14:58:40.8	358.490	0.200	-0.460	0.810
2020/01/31 14:58:40.9	358.500	0.180	-0.540	0.730
2020/01/31 14:58:41.0	358.520	0.150	-0.630	0.640
2020/01/31 14:58:41.1	358.540	0.130	-0.720	0.550
2020/01/31 14:58:41.2	358.570	0.110	-0.810	0.460
2020/01/31 14:58:41.3	358.600	0.100	-0.890	0.360
2020/01/31 14:58:41.4	358.640	0.080	-0.980	0.260
2020/01/31 14:58:41.5	358.680	0.070	-1.070	0.160
2020/01/31 14:58:41.6	358.720	0.060	-1.160	0.050
2020/01/31 14:58:41.7	358.770	0.050	-1.240	-0.060
2020/01/31 14:58:41.8	358.820	0.050	-1.320	-0.170
2020/01/31 14:58:41.9	358.870	0.050	-1.400	-0.270
2020/01/31 14:58:42.0	358.920	0.050	-1.470	-0.370
2020/01/31 14:58:42.1	358.980	0.050	-1.530	-0.470
2020/01/31 14:58:42.2	359.040	0.060	-1.580	-0.570
2020/01/31 14:58:42.3	359.100	0.060	-1.630	-0.670
2020/01/31 14:58:42.4	359.160	0.070	-1.670	-0.760
2020/01/31 14:58:42.5	359.220	0.090	-1.700	-0.840
2020/01/31 14:58:42.6	359.280	0.100	-1.710	-0.920
2020/01/31 14:58:42.7	359.340	0.110	-1.720	-1.000
2020/01/31 14:58:42.8	359.400	0.130	-1.720	-1.070
2020/01/31 14:58:42.9	359.470	0.140	-1.710	-1.140
2020/01/31 14:58:43.0	359.520	0.160	-1.690	-1.200
2020/01/31 14:58:43.1	359.580	0.170	-1.660	-1.250
2020/01/31 14:58:43.2	359.640	0.180	-1.620	-1.300
2020/01/31 14:58:43.3	359.690	0.190	-1.570	-1.340
2020/01/31 14:58:43.4	359.740	0.200	-1.510	-1.380
2020/01/31 14:58:43.5	359.790	0.210	-1.450	-1.400
2020/01/31 14:58:43.6	359.830	0.210	-1.370	-1.420
2020/01/31 14:58:43.7	359.880	0.220	-1.290	-1.440
2020/01/31 14:58:43.8	359.920	0.210	-1.200	-1.450
2020/01/31 14:58:43.9	359.960	0.210	-1.110	-1.450
2020/01/31 14:58:44.0	359.990	0.200	-1.010	-1.450
2020/01/31 14:58:44.1	0.020	0.190	-0.910	-1.440
2020/01/31 14:58:44.2	0.050	0.180	-0.800	-1.420
2020/01/31 14:58:44.3	0.070	0.170	-0.690	-1.400
2020/01/31 14:58:44.4	0.100	0.150	-0.580	-1.380
2020/01/31 14:58:44.5	0.110	0.130	-0.470	-1.350
2020/01/31 14:58:44.6	0.130	0.100	-0.360	-1.310
2020/01/31 14:58:44.7	0.150	0.070	-0.260	-1.270
2020/01/31 14:58:44.8	0.160	0.050	-0.150	-1.230
2020/01/31 14:58:44.9	0.170	0.020	-0.050	-1.180
2020/01/31 14:58:45.0	0.180	-0.020	0.050	-1.130
2020/01/31 14:58:45.1	0.180	-0.050	0.140	-1.080
2020/01/31 14:58:45.2	0.190	-0.080	0.230	-1.030
2020/01/31 14:58:45.3	0.190	-0.120	0.310	-0.980
2020/01/31 14:58:45.4	0.190	-0.150	0.380	-0.920
2020/01/31 14:58:45.5	0.190	-0.180	0.450	-0.860
2020/01/31 14:58:45.6	0.190	-0.220	0.510	-0.810
2020/01/31 14:58:45.7	0.180	-0.250	0.560	-0.750
2020/01/31 14:58:45.8	0.180	-0.280	0.600	-0.700
2020/01/31 14:58:45.9	0.180	-0.310	0.640	-0.650
2020/01/31 14:58:46.0	0.180	-0.330	0.670	-0.600
2020/01/31 14:58:46.1	0.180	-0.350	0.690	-0.550
2020/01/31 14:58:46.2	0.180	-0.370	0.700	-0.500
2020/01/31 14:58:46.3	0.180	-0.390	0.700	-0.450
2020/01/31 14:58:46.4	0.170	-0.410	0.700	-0.410
2020/01/31 14:58:46.5	0.170	-0.420	0.690	-0.370
2020/01/31 14:58:46.6	0.160	-0.420	0.670	-0.320
2020/01/31 14:58:46.7	0.140	-0.420	0.650	-0.280
2020/01/31 14:58:46.8	0.130	-0.420	0.620	-0.250
2020/01/31 14:58:46.9	0.120	-0.420	0.590	-0.210
2020/01/31 14:58:47.0	0.110	-0.410	0.560	-0.170
2020/01/31 14:58:47.1	0.090	-0.400	0.520	-0.130
2020/01/31 14:58:47.2	0.080	-0.380	0.480	-0.100
2020/01/31 14:58:47.3	0.060	-0.360	0.430	-0.070
2020/01/31 14:58:47.4	0.040	-0.340	0.390	-0.040
2020/01/31 14:58:47.5	0.020	-0.310	0.340	-0.010
2020/01/31 14:58:47.6	0.000	-0.280	0.290	0.020
2020/01/31 14:58:47.7	359.980	-0.250	0.240	0.040
2020/01/31 14:58:47.8	359.960	-0.210	0.190	0.070
2020/01/31 14:58:47.9	359.940	-0.170	0.140	0.090
2020/01/31 14:58:48.0	359.920	-0.140	0.080	0.100
2020/01/31 14:58:48.1	359.900	-0.100	0.030	0.120
2020/01/31 14:58:48.2	359.890	-0.050	-0.020	0.130
2020/01/31 14:58:48.3	359.870	-0.010	-0.080	0.140
2020/01/31 14:58:48.4	359.860	0.030	-0.130	0.150
2020/01/31 14:58:48.5	359.840	0.070	-0.180	0.160
2020/01/31 14:58:48.6	359.830	0.110	-0.230	0.160
2020/01/31 14:58:48.7	359.830	0.150	-0.280	0.170
2020/01/31 14:58:48.8	359.820	0.190	-0.330	0.170
2020/01/31 14:58:48.9	359.820	0.230	-0.370	0.170
2020/01/31 14:58:49.0	359.810	0.260	-0.420	0.160
2020/01/31 14:58:49.1	359.810	0.300	-0.460	0.150
2020/01/31 14:58:49.2	359.810	0.330	-0.500	0.150
2020/01/31 14:58:49.3	359.820	0.360	-0.530	0.130
2020/01/31 14:58:49.4	359.830	0.380	-0.570	0.120
2020/01/31 14:58:49.5	359.830	0.410	-0.590	0.110
2020/01/31 14:58:49.6	359.850	0.420	-0.620	0.090
2020/01/31 14:58:49.7	359.860	0.440	-0.640	0.070
2020/01/31 14:58:49.8	359.870	0.450	-0.660	0.050
2020/01/31 14:58:49.9	359.890	0.460	-0.670	0.030
2020/01/31 14:58:50.0	359.910	0.470	-0.680	0.010
2020/01/31 14:58:50.1	359.930	0.470	-0.690	-0.020
2020/01/31 14:58:50.2	359.960	0.480	-0.690	-0.040
2020/01/31 14:58:50.3	359.980	0.470	-0.690	-0.070
2020/01/31 14:58:50.4	0.010	0.470	-0.680	-0.090
2020/01/31 14:58:50.5	0.030	0.460	-0.670	-0.110
2020/01/31 14:58:50.6	0.050	0.450	-0.650	-0.130
2020/01/31 14:58:50.7	0.070	0.440	-0.630	-0.150
2020/01/31 14:58:50.8	0.090	0.420	-0.600	-0.170
2020/01/31 14:58:50.9	0.110	0.400	-0.560	-0.180
2020/01/31 14:58:51.0	0.130	0.380	-0.520	-0.190
2020/01/31 14:58:51.1	0.150	0.360	-0.480	-0.200
2020/01/31 14:58:51.2	0.160	0.340	-0.430	-0.200
2020/01/31 14:58:51.3	0.170	0.310	-0.370	-0.200
2020/01/31 14:58:51.4	0.180	0.280	-0.310	-0.200
2020/01/31 14:58:51.5	0.190	0.260	-0.250	-0.190
2020/01/31 14:58:51.6	0.200	0.220	-0.190	-0.190
2020/01/31 14:58:51.7	0.200	0.190	-0.120	-0.170
2020/01/31 14:58:51.8	0.200	0.160	-0.060	-0.170
2020/01/31 14:58:51.9	0.200	0.120	0.010	-0.160
2020/01/31 14:58:52.0	0.200	0.090	0.080	-0.150
2020/01/31 14:58:52.1	0.190	0.050	0.140	-0.130
2020/01/31 14:58:52.2	0.190	0.020	0.200	-0.130
2020/01/31 14:58:52.3	0.180	-0.020	0.260	-0.120
2020/01/31 14:58:52.4	0.170	-0.060	0.310	-0.110
2020/01/31 14:58:52.5	0.160	-0.090	0.360	-0.100
2020/01/31 14:58:52.6	0.140	-0.130	0.400	-0.100
2020/01/31 14:58:52.7	0.130	-0.170	0.430	-0.090
2020/01/31 14:58:52.8	0.120	-0.200	0.460	-0.090
2020/01/31 14:58:52.9	0.100	-0.230	0.480	-0.090
2020/01/31 14:58:53.0	0.090	-0.260	0.490	-0.090
2020/01/31 14:58:53.1	0.080	-0.290	0.500	-0.090
2020/01/31 14:58:53.2	0.060	-0.320	0.500	-0.100
2020/01/31 14:58:53.3	0.050	-0.350	0.490	-0.100
2020/01/31 14:58:53.4	0.040	-0.370	0.470	-0.110
2020/01/31 14:58:53.5	0.030	-0.390	0.440	-0.130
2020/01/31 14:58:53.6	0.010	-0.410	0.410	-0.150
2020/01/31 14:58:53.7	0.000	-0.420	0.360	-0.170
2020/01/31 14:58:53.8	359.990	-0.430	0.310	-0.190
2020/01/31 14:58:53.9	359.990	-0.440	0.250	-0.210
2020/01/31 14:58:54.0	359.980	-0.450	0.190	-0.240
2020/01/31 14:58:54.1	359.980	-0.450	0.120	-0.280
2020/01/31 14:58:54.2	359.980	-0.440	0.050	-0.310
2020/01/31 14:58:54.3	359.990	-0.440	-0.030	-0.350
2020/01/31 14:58:54.4	359.990	-0.420	-0.120	-0.400
2020/01/31 14:58:54.5	0.000	-0.410	-0.200	-0.440
2020/01/31 14:58:54.6	0.010	-0.390	-0.290	-0.480
2020/01/31 14:58:54.7	0.020	-0.370	-0.370	-0.540
2020/01/31 14:58:54.8	0.040	-0.350	-0.460	-0.580
2020/01/31 14:58:54.9	0.050	-0.320	-0.550	-0.630
2020/01/31 14:58:55.0	0.070	-0.290	-0.630	-0.670
2020/01/31 14:58:55.1	0.090	-0.260	-0.710	-0.710
2020/01/31 14:58:55.2	0.110	-0.220	-0.790	-0.750
2020/01/31 14:58:55.3	0.120	-0.190	-0.860	-0.790
2020/01/31 14:58:55.4	0.140	-0.150	-0.930	-0.820
2020/01/31 14:58:55.5	0.160	-0.110	-0.980	-0.850
2020/01/31 14:58:55.6	0.170	-0.070	-1.030	-0.870
2020/01/31 14:58:55.7	0.190	-0.040	-1.070	-0.890
2020/01/31 14:58:55.8	0.200	0.000	-1.110	-0.900
2020/01/31 14:58:55.9	0.210	0.040	-1.130	-0.910
2020/01/31 14:58:56.0	0.220	0.070	-1.140	-0.910
2020/01/31 14:58:56.1	0.230	0.110	-1.140	-0.910
2020/01/31 14:58:56.2	0.240	0.140	-1.140	-0.900
2020/01/31 14:58:56.3	0.240	0.170	-1.120	-0.890
2020/01/31 14:58:56.4	0.250	0.190	-1.100	-0.860
2020/01/31 14:58:56.5	0.250	0.220	-1.060	-0.840
2020/01/31 14:58:56.6	0.250	0.240	-1.020	-0.810
2020/01/31 14:58:56.7	0.250	0.250	-0.970	-0.770
2020/01/31 14:58:56.8	0.250	0.260	-0.910	-0.740
2020/01/31 14:58:56.9	0.240	0.270	-0.850	-0.690
2020/01/31 14:58:57.0	0.240	0.280	-0.790	-0.650
2020/01/31 14:58:57.1	0.230	0.280	-0.720	-0.610
2020/01/31 14:58:57.2	0.230	0.280	-0.650	-0.560
2020/01/31 14:58:57.3	0.220	0.270	-0.570	-0.510
2020/01/31 14:58:57.4	0.220	0.270	-0.500	-0.470
2020/01/31 14:58:57.5	0.210	0.250	-0.430	-0.420
2020/01/31 14:58:57.6	0.210	0.240	-0.350	-0.380
2020/01/31 14:58:57.7	0.200	0.220	-0.290	-0.330
2020/01/31 14:58:57.8	0.200	0.200	-0.220	-0.290
2020/01/31 14:58:57.9	0.200	0.180	-0.160	-0.250
2020/01/31 14:58:58.0	0.200	0.160	-0.100	-0.210
2020/01/31 14:58:58.1	0.190	0.140	-0.040	-0.180
2020/01/31 14:58:58.2	0.190	0.110	0.010	-0.150
2020/01/31 14:58:58.3	0.190	0.090	0.050	-0.120
2020/01/31 14:58:58.4	0.190	0.060	0.090	-0.090
2020/01/31 14:58:58.5	0.190	0.030	0.120	-0.070
2020/01/31 14:58:58.6	0.200	0.010	0.140	-0.060
2020/01/31 14:58:58.7	0.200	-0.010	0.160	-0.040
2020/01/31 14:58:58.8	0.210	-0.040	0.180	-0.040
2020/01/31 14:58:58.9	0.220	-0.060	0.180	-0.030
2020/01/31 14:58:59.0	0.230	-0.080	0.180	-0.030
2020/01/31 14:58:59.1	0.240	-0.090	0.170	-0.030
2020/01/31 14:58:59.2	0.250	-0.110	0.160	-0.040
2020/01/31 14:58:59.3	0.270	-0.120	0.140	-0.050
2020/01/31 14:58:59.4	0.280	-0.130	0.120	-0.060
2020/01/31 14:58:59.5	0.300	-0.140	0.090	-0.080
2020/01/31 14:58:59.6	0.310	-0.140	0.050	-0.100
2020/01/31 14:58:59.7	0.330	-0.140	0.020	-0.120
2020/01/31 14:58:59.8	0.350	-0.140	-0.020	-0.150
2020/01/31 14:58:59.9	0.370	-0.140	-0.060	-0.170
2020/01/31 14:59:00.0	0.390	-0.130	-0.110	-0.200
2020/01/31 14:59:00.1	0.410	-0.120	-0.150	-0.220
2020/01/31 14:59:00.2	0.430	-0.110	-0.190	-0.250
2020/01/31 14:59:00.3	0.450	-0.100	-0.240	-0.270
2020/01/31 14:59:00.4	0.470	-0.080	-0.280	-0.300
2020/01/31 14:59:00.5	0.490	-0.070	-0.320	-0.320
2020/01/31 14:59:00.6	0.500	-0.050	-0.360	-0.340
2020/01/31 14:59:00.7	0.520	-0.030	-0.390	-0.350
2020/01/31 14:59:00.8	0.540	-0.010	-0.420	-0.370
2020/01/31 14:59:00.9	0.550	0.010	-0.440	-0.380
2020/01/31 14:59:01.0	0.560	0.020	-0.470	-0.390
2020/01/31 14:59:01.1	0.560	0.040	-0.480	-0.400
2020/01/31 14:59:01.2	0.570	0.060	-0.500	-0.400
2020/01/31 14:59:01.3	0.570	0.080	-0.510	-0.410
2020/01/31 14:59:01.4	0.570	0.090	-0.510	-0.410
2020/01/31 14:59:01.5	0.570	0.110	-0.510	-0.400
2020/01/31 14:59:01.6	0.570	0.120	-0.500	-0.400
2020/01/31 14:59:01.7	0.570	0.130	-0.490	-0.390
2020/01/31 14:59:01.8	0.570	0.140	-0.480	-0.380
2020/01/31 14:59:01.9	0.570	0.150	-0.460	-0.370
2020/01/31 14:59:02.0	0.560	0.150	-0.430	-0.360
2020/01/31 14:59:02.1	0.560	0.150	-0.400	-0.350
2020/01/31 14:59:02.2	0.550	0.150	-0.370	-0.340
2020/01/31 14:59:02.3	0.550	0.150	-0.340	-0.320
2020/01/31 14:59:02.4	0.540	0.150	-0.300	-0.310
2020/01/31 14:59:02.5	0.540	0.150	-0.270	-0.300
2020/01/31 14:59:02.6	0.530	0.140	-0.230	-0.280
2020/01/31 14:59:02.7	0.520	0.130	-0.190	-0.270
2020/01/31 14:59:02.8	0.520	0.120	-0.150	-0.260
2020/01/31 14:59:02.9	0.510	0.110	-0.110	-0.250
2020/01/31 14:59:03.0	0.500	0.100	-0.070	-0.240
2020/01/31 14:59:03.1	0.490	0.090	-0.030	-0.220
2020/01/31 14:59:03.2	0.470	0.080	0.000	-0.210
2020/01/31 14:59:03.3	0.460	0.070	0.040	-0.190
2020/01/31 14:59:03.4	0.440	0.050	0.070	-0.180
2020/01/31 14:59:03.5	0.420	0.040	0.100	-0.160
2020/01/31 14:59:03.6	0.400	0.030	0.130	-0.150
2020/01/31 14:59:03.7	0.380	0.010	0.160	-0.130
2020/01/31 14:59:03.8	0.350	0.000	0.180	-0.110
2020/01/31 14:59:03.9	0.330	-0.010	0.200	-0.090
2020/01/31 14:59:04.0	0.300	-0.020	0.220	-0.070
2020/01/31 14:59:04.1	0.270	-0.030	0.230	-0.050
2020/01/31 14:59:04.2	0.240	-0.040	0.240	-0.030
2020/01/31 14:59:04.3	0.210	-0.050	0.250	-0.010
2020/01/31 14:59:04.4	0.180	-0.050	0.250	0.010
2020/01/31 14:59:04.5	0.140	-0.060	0.260	0.020
2020/01/31 14:59:04.6	0.110	-0.060	0.250	0.040
2020/01/31 14:59:04.7	0.070	-0.060	0.250	0.060
2020/01/31 14:59:04.8	0.030	-0.060	0.250	0.070
2020/01/31 14:59:04.9	0.000	-0.060	0.240	0.090
2020/01/31 14:59:05.0	359.960	-0.060	0.230	0.100
2020/01/31 14:59:05.1	359.930	-0.060	0.210	0.120
2020/01/31 14:59:05.2	359.900	-0.050	0.200	0.130
2020/01/31 14:59:05.3	359.860	-0.050	0.180	0.140
2020/01/31 14:59:05.4	359.830	-0.040	0.160	0.150
2020/01/31 14:59:05.5	359.800	-0.030	0.130	0.160
2020/01/31 14:59:05.6	359.780	-0.020	0.110	0.170
2020/01/31 14:59:05.7	359.740	-0.010	0.080	0.170
2020/01/31 14:59:05.8	359.720	-0.000	0.040	0.170
2020/01/31 14:59:05.9	359.700	0.010	0.010	0.170
2020/01/31 14:59:06.0	359.690	0.020	-0.030	0.170
2020/01/31 14:59:06.1	359.670	0.040	-0.070	0.160
2020/01/31 14:59:06.2	359.660	0.050	-0.110	0.150
2020/01/31 14:59:06.3	359.650	0.060	-0.150	0.140
2020/01/31 14:59:06.4	359.650	0.080	-0.200	0.130
2020/01/31 14:59:06.5	359.650	0.090	-0.240	0.110
2020/01/31 14:59:06.6	359.650	0.100	-0.290	0.090
2020/01/31 14:59:06.7	359.660	0.120	-0.330	0.070
2020/01/31 14:59:06.8	359.670	0.130	-0.380	0.040
2020/01/31 14:59:06.9	359.680	0.140	-0.430	0.020
2020/01/31 14:59:07.0	359.690	0.150	-0.480	-0.010
2020/01/31 14:59:07.1	359.710	0.160	-0.520	-0.040
2020/01/31 14:59:07.2	359.740	0.170	-0.570	-0.080
2020/01/31 14:59:07.3	359.760	0.180	-0.610	-0.110
2020/01/31 14:59:07.4	359.790	0.190	-0.650	-0.140
2020/01/31 14:59:07.5	359.820	0.190	-0.690	-0.180
2020/01/31 14:59:07.6	359.850	0.200	-0.730	-0.210
2020/01/31 14:59:07.7	359.890	0.200	-0.760	-0.250
2020/01/31 14:59:07.8	359.930	0.200	-0.790	-0.290
2020/01/31 14:59:07.9	359.970	0.200	-0.820	-0.320
2020/01/31 14:59:08.0	0.010	0.200	-0.840	-0.360
2020/01/31 14:59:08.1	0.050	0.190	-0.860	-0.400
2020/01/31 14:59:08.2	0.100	0.190	-0.880	-0.440
2020/01/31 14:59:08.3	0.150	0.180	-0.900	-0.470
2020/01/31 14:59:08.4	0.200	0.180	-0.910	-0.510
2020/01/31 14:59:08.5	0.240	0.170	-0.910	-0.540
2020/01/31 14:59:08.6	0.290	0.160	-0.910	-0.580
2020/01/31 14:59:08.7	0.350	0.150	-0.910	-0.610
2020/01/31 14:59:08.8	0.400	0.130	-0.900	-0.640
2020/01/31 14:59:08.9	0.440	0.120	-0.890	-0.670
2020/01/31 14:59:09.0	0.490	0.110	-0.880	-0.690
2020/01/31 14:59:09.1	0.540	0.090	-0.860	-0.710
2020/01/31 14:59:09.2	0.580	0.080	-0.830	-0.730
2020/01/31 14:59:09.3	0.620	0.060	-0.800	-0.750
2020/01/31 14:59:09.4	0.660	0.050	-0.770	-0.760
2020/01/31 14:59:09.5	0.700	0.030	-0.740	-0.760
2020/01/31 14:59:09.6	0.730	0.020	-0.700	-0.760
2020/01/31 14:59:09.7	0.760	0.000	-0.650	-0.760
2020/01/31 14:59:09.8	0.790	-0.020	-0.610	-0.750
2020/01/31 14:59:09.9	0.810	-0.030	-0.560	-0.730
2020/01/31 14:59:10.0	0.820	-0.050	-0.500	-0.710
2020/01/31 14:59:10.1	0.830	-0.060	-0.450	-0.680
2020/01/31 14:59:10.2	0.840	-0.080	-0.390	-0.650
2020/01/31 14:59:10.3	0.840	-0.090	-0.330	-0.610
2020/01/31 14:59:10.4	0.840	-0.110	-0.260	-0.570
2020/01/31 14:59:10.5	0.830	-0.120	-0.200	-0.530
2020/01/31 14:59:10.6	0.820	-0.140	-0.140	-0.480
2020/01/31 14:59:10.7	0.800	-0.150	-0.080	-0.430
2020/01/31 14:59:10.8	0.780	-0.160	-0.010	-0.380
2020/01/31 14:59:10.9	0.750	-0.180	0.050	-0.330
2020/01/31 14:59:11.0	0.720	-0.190	0.100	-0.280
2020/01/31 14:59:11.1	0.690	-0.200	0.160	-0.240
2020/01/31 14:59:11.2	0.650	-0.210	0.210	-0.190
2020/01/31 14:59:11.3	0.620	-0.230	0.250	-0.150
2020/01/31 14:59:11.4	0.580	-0.240	0.290	-0.110
2020/01/31 14:59:11.5	0.540	-0.250	0.330	-0.080
2020/01/31 14:59:11.6	0.500	-0.260	0.360	-0.040
2020/01/31 14:59:11.7	0.470	-0.260	0.380	-0.020
2020/01/31 14:59:11.8	0.430	-0.270	0.390	-0.000
2020/01/31 14:59:11.9	0.400	-0.280	0.400	0.010
2020/01/31 14:59:12.0	0.360	-0.280	0.400	0.020
2020/01/31 14:59:12.1	0.330	-0.280	0.400	0.030
2020/01/31 14:59:12.2	0.300	-0.280	0.380	0.030
2020/01/31 14:59:12.3	0.280	-0.280	0.360	0.020
2020/01/31 14:59:12.4	0.260	-0.280	0.330	0.010
2020/01/31 14:59:12.5	0.240	-0.270	0.300	-0.010
2020/01/31 14:59:12.6	0.220	-0.270	0.260	-0.030
2020/01/31 14:59:12.7	0.210	-0.260	0.220	-0.050
2020/01/31 14:59:12.8	0.200	-0.250	0.160	-0.080
2020/01/31 14:59:12.9	0.190	-0.240	0.110	-0.110
2020/01/31 14:59:13.0	0.190	-0.220	0.050	-0.140
2020/01/31 14:59:13.1	0.190	-0.210	-0.010	-0.170
2020/01/31 14:59:13.2	0.190	-0.190	-0.070	-0.200
2020/01/31 14:59:13.3	0.180	-0.170	-0.130	-0.230
2020/01/31 14:59:13.4	0.180	-0.150	-0.200	-0.260
2020/01/31 14:59:13.5	0.180	-0.130	-0.260	-0.280
2020/01/31 14:59:13.6	0.180	-0.110	-0.310	-0.300
2020/01/31 14:59:13.7	0.180	-0.090	-0.360	-0.330
2020/01/31 14:59:13.8	0.180	-0.070	-0.410	-0.350
2020/01/31 14:59:13.9	0.170	-0.040	-0.460	-0.360
2020/01/31 14:59:14.0	0.160	-0.020	-0.500	-0.380
2020/01/31 14:59:14.1	0.160	-0.000	-0.530	-0.390
2020/01/31 14:59:14.2	0.150	0.020	-0.560	-0.400
2020/01/31 14:59:14.3	0.140	0.040	-0.590	-0.410
2020/01/31 14:59:14.4	0.130	0.060	-0.600	-0.410
2020/01/31 14:59:14.5	0.120	0.080	-0.610	-0.410
2020/01/31 14:59:14.6	0.110	0.100	-0.620	-0.410
2020/01/31 14:59:14.7	0.090	0.110	-0.620	-0.420
2020/01/31 14:59:14.8	0.080	0.130	-0.620	-0.410
2020/01/31 14:59:14.9	0.060	0.150	-0.600	-0.400
2020/01/31 14:59:15.0	0.050	0.160	-0.590	-0.390
2020/01/31 14:59:15.1	0.040	0.180	-0.570	-0.380
2020/01/31 14:59:15.2	0.020	0.190	-0.550	-0.360
2020/01/31 14:59:15.3	0.010	0.200	-0.520	-0.340
2020/01/31 14:59:15.4	0.000	0.210	-0.490	-0.320
2020/01/31 14:59:15.5	359.990	0.230	-0.460	-0.300
2020/01/31 14:59:15.6	359.980	0.240	-0.430	-0.280
2020/01/31 14:59:15.7	359.970	0.250	-0.400	-0.250
2020/01/31 14:59:15.8	359.970	0.260	-0.370	-0.220
2020/01/31 14:59:15.9	359.970	0.270	-0.340	-0.200
2020/01/31 14:59:16.0	359.970	0.280	-0.320	-0.170
2020/01/31 14:59:16.1	359.970	0.290	-0.290	-0.140
2020/01/31 14:59:16.2	359.970	0.300	-0.270	-0.120
2020/01/31 14:59:16.3	359.980	0.310	-0.250	-0.090
2020/01/31 14:59:16.4	359.990	0.320	-0.230	-0.070
2020/01/31 14:59:16.5	0.000	0.330	-0.220	-0.050
2020/01/31 14:59:16.6	0.010	0.340	-0.210	-0.030
2020/01/31 14:59:16.7	0.020	0.340	-0.200	-0.020
2020/01/31 14:59:16.8	0.040	0.350	-0.190	-0.000
2020/01/31 14:59:16.9	0.060	0.350	-0.190	0.010
2020/01/31 14:59:17.0	0.080	0.350	-0.190	0.010
2020/01/31 14:59:17.1	0.100	0.350	-0.190	0.020
2020/01/31 14:59:17.2	0.120	0.350	-0.190	0.020
2020/01/31 14:59:17.3	0.140	0.350	-0.200	0.010
2020/01/31 14:59:17.4	0.160	0.340	-0.200	0.010
2020/01/31 14:59:17.5	0.190	0.330	-0.210	-0.000
2020/01/31 14:59:17.6	0.210	0.320	-0.210	-0.010
2020/01/31 14:59:17.7	0.240	0.310	-0.220	-0.020
2020/01/31 14:59:17.8	0.260	0.290	-0.230	-0.040
2020/01/31 14:59:17.9	0.280	0.280	-0.230	-0.060
2020/01/31 14:59:18.0	0.310	0.260	-0.240	-0.070
2020/01/31 14:59:18.1	0.330	0.230	-0.240	-0.090
2020/01/31 14:59:18.2	0.350	0.210	-0.250	-0.110
2020/01/31 14:59:18.3	0.370	0.180	-0.250	-0.130
2020/01/31 14:59:18.4	0.380	0.160	-0.250	-0.150
2020/01/31 14:59:18.5	0.400	0.130	-0.240	-0.170
2020/01/31 14:59:18.6	0.410	0.090	-0.240	-0.190
2020/01/31 14:59:18.7	0.430	0.060	-0.230	-0.210
2020/01/31 14:59:18.8	0.440	0.030	-0.220	-0.220
2020/01/31 14:59:18.9	0.440	-0.010	-0.210	-0.240
2020/01/31 14:59:19.0	0.450	-0.050	-0.200	-0.250
2020/01/31 14:59:19.1	0.450	-0.080	-0.180	-0.270
2020/01/31 14:59:19.2	0.460	-0.120	-0.160	-0.280
2020/01/31 14:59:19.3	0.460	-0.160	-0.140	-0.290
2020/01/31 14:59:19.4	0.460	-0.200	-0.120	-0.300
2020/01/31 14:59:19.5	0.460	-0.230	-0.100	-0.310
2020/01/31 14:59:19.6	0.460	-0.270	-0.080	-0.320
2020/01/31 14:59:19.7	0.460	-0.300	-0.050	-0.330
2020/01/31 14:59:19.8	0.460	-0.330	-0.030	-0.340
2020/01/31 14:59:19.9	0.450	-0.360	-0.000	-0.350
2020/01/31 14:59:20.0	0.450	-0.390	0.020	-0.360
2020/01/31 14:59:20.1	0.450	-0.410	0.040	-0.370
2020/01/31 14:59:20.2	0.440	-0.430	0.060	-0.370
2020/01/31 14:59:20.3	0.440	-0.450	0.080	-0.380
2020/01/31 14:59:20.4	0.430	-0.460	0.100	-0.380
2020/01/31 14:59:20.5	0.430	-0.470	0.110	-0.390
2020/01/31 14:59:20.6	0.430	-0.480	0.120	-0.390
2020/01/31 14:59:20.7	0.420	-0.480	0.130	-0.400
2020/01/31 14:59:20.8	0.420	-0.470	0.130	-0.390
2020/01/31 14:59:20.9	0.410	-0.470	0.130	-0.390
2020/01/31 14:59:21.0	0.410	-0.450	0.130	-0.390
2020/01/31 14:59:21.1	0.400	-0.440	0.130	-0.380
2020/01/31 14:59:21.2	0.390	-0.420	0.120	-0.370
2020/01/31 14:59:21.3	0.380	-0.390	0.110	-0.360
2020/01/31 14:59:21.4	0.370	-0.370	0.100	-0.350
2020/01/31 14:59:21.5	0.360	-0.340	0.080	-0.340
2020/01/31 14:59:21.6	0.340	-0.310	0.070	-0.320
2020/01/31 14:59:21.7	0.320	-0.280	0.050	-0.310
2020/01/31 14:59:21.8	0.300	-0.250	0.030	-0.290
2020/01/31 14:59:21.9	0.280	-0.210	0.010	-0.280
2020/01/31 14:59:22.0	0.260	-0.180	-0.020	-0.260
2020/01/31 14:59:22.1	0.240	-0.140	-0.040	-0.250
2020/01/31 14:59:22.2	0.210	-0.110	-0.060	-0.230
2020/01/31 14:59:22.3	0.190	-0.080	-0.090	-0.210
2020/01/31 14:59:22.4	0.160	-0.050	-0.110	-0.190
2020/01/31 14:59:22.5	0.130	-0.020	-0.140	-0.170
2020/01/31 14:59:22.6	0.100	0.010	-0.160	-0.150
2020/01/31 14:59:22.7	0.060	0.040	-0.190	-0.130
2020/01/31 14:59:22.8	0.030	0.060	-0.210	-0.110
2020/01/31 14:59:22.9	0.000	0.080	-0.240	-0.090
2020/01/31 14:59:23.0	359.970	0.100	-0.260	-0.070
2020/01/31 14:59:23.1	359.940	0.110	-0.280	-0.050
2020/01/31 14:59:23.2	359.910	0.120	-0.310	-0.030
2020/01/31 14:59:23.3	359.880	0.130	-0.330	-0.020
2020/01/31 14:59:23.4	359.850	0.140	-0.350	-0.000
2020/01/31 14:59:23.5	359.820	0.150	-0.370	0.010
2020/01/31 14:59:23.6	359.790	0.150	-0.390	0.020
2020/01/31 14:59:23.7	359.770	0.150	-0.410	0.030
2020/01/31 14:59:23.8	359.750	0.140	-0.440	0.040
2020/01/31 14:59:23.9	359.730	0.140	-0.460	0.040
2020/01/31 14:59:24.0	359.720	0.140	-0.490	0.040
2020/01/31 14:59:24.1	359.710	0.130	-0.510	0.040
2020/01/31 14:59:24.2	359.700	0.120	-0.540	0.040
2020/01/31 14:59:24.3	359.700	0.110	-0.570	0.030
2020/01/31 14:59:24.4	359.700	0.110	-0.590	0.020
2020/01/31 14:59:24.5	359.710	0.100	-0.620	0.000
2020/01/31 14:59:24.6	359.720	0.090	-0.650	-0.010
2020/01/31 14:59:24.7	359.720	0.090	-0.680	-0.040
2020/01/31 14:59:24.8	359.740	0.080	-0.710	-0.060
2020/01/31 14:59:24.9	359.770	0.080	-0.740	-0.080
2020/01/31 14:59:25.0	359.790	0.070	-0.770	-0.110
2020/01/31 14:59:25.1	359.820	0.070	-0.790	-0.140
2020/01/31 14:59:25.2	359.860	0.070	-0.810	-0.170
2020/01/31 14:59:25.3	359.890	0.070	-0.830	-0.210
2020/01/31 14:59:25.4	359.930	0.070	-0.850	-0.240
2020/01/31 14:59:25.5	359.970	0.070	-0.860	-0.270
2020/01/31 14:59:25.6	0.010	0.070	-0.880	-0.310
2020/01/31 14:59:25.7	0.060	0.070	-0.880	-0.350
2020/01/31 14:59:25.8	0.100	0.080	-0.880	-0.380
2020/01/31 14:59:25.9	0.150	0.080	-0.880	-0.420
2020/01/31 14:59:26.0	0.190	0.080	-0.870	-0.450
2020/01/31 14:59:26.1	0.230	0.090	-0.860	-0.490
2020/01/31 14:59:26.2	0.270	0.090	-0.840	-0.520
2020/01/31 14:59:26.3	0.310	0.090	-0.820	-0.550
2020/01/31 14:59:26.4	0.350	0.090	-0.800	-0.580
2020/01/31 14:59:26.5	0.390	0.100	-0.770	-0.600
2020/01/31 14:59:26.6	0.420	0.100	-0.740	-0.620
2020/01/31 14:59:26.7	0.460	0.100	-0.720	-0.640
2020/01/31 14:59:26.8	0.490	0.090	-0.680	-0.650
2020/01/31 14:59:26.9	0.520	0.090	-0.640	-0.660
2020/01/31 14:59:27.0	0.540	0.090	-0.590	-0.670
2020/01/31 14:59:27.1	0.560	0.080	-0.540	-0.670
2020/01/31 14:59:27.2	0.580	0.080	-0.490	-0.670
2020/01/31 14:59:27.3	0.590	0.070	-0.440	-0.660
2020/01/31 14:59:27.4	0.600	0.060	-0.390	-0.650
2020/01/31 14:59:27.5	0.600	0.050	-0.330	-0.640
2020/01/31 14:59:27.6	0.610	0.040	-0.270	-0.620
2020/01/31 14:59:27.7	0.600	0.030	-0.220	-0.600
2020/01/31 14:59:27.8	0.600	0.010	-0.170	-0.580
2020/01/31 14:59:27.9	0.590	-0.000	-0.110	-0.550
2020/01/31 14:59:28.0	0.580	-0.020	-0.060	-0.530
2020/01/31 14:59:28.1	0.570	-0.030	-0.010	-0.510
2020/01/31 14:59:28.2	0.550	-0.050	0.040	-0.480
2020/01/31 14:59:28.3	0.540	-0.060	0.080	-0.460
2020/01/31 14:59:28.4	0.520	-0.080	0.130	-0.430
2020/01/31 14:59:28.5	0.500	-0.090	0.170	-0.410
2020/01/31 14:59:28.6	0.470	-0.100	0.200	-0.390
2020/01/31 14:59:28.7	0.450	-0.120	0.240	-0.370
2020/01/31 14:59:28.8	0.430	-0.130	0.270	-0.340
2020/01/31 14:59:28.9	0.400	-0.140	0.300	-0.320
2020/01/31 14:59:29.0	0.380	-0.140	0.320	-0.300
2020/01/31 14:59:29.1	0.350	-0.150	0.340	-0.280
2020/01/31 14:59:29.2	0.320	-0.150	0.350	-0.260
2020/01/31 14:59:29.3	0.290	-0.150	0.360	-0.250
2020/01/31 14:59:29.4	0.270	-0.150	0.370	-0.230
2020/01/31 14:59:29.5	0.240	-0.150	0.370	-0.210
2020/01/31 14:59:29.6	0.220	-0.140	0.360	-0.200
2020/01/31 14:59:29.7	0.180	-0.130	0.350	-0.190
2020/01/31 14:59:29.8	0.160	-0.120	0.340	-0.170
2020/01/31 14:59:29.9	0.140	-0.110	0.330	-0.160
2020/01/31 14:59:30.0	0.110	-0.090	0.310	-0.150
2020/01/31 14:59:30.1	0.090	-0.080	0.280	-0.140
2020/01/31 14:59:30.2	0.070	-0.060	0.260	-0.130
2020/01/31 14:59:30.3	0.050	-0.040	0.230	-0.120
2020/01/31 14:59:30.4	0.030	-0.020	0.200	-0.110
2020/01/31 14:59:30.5	0.010	0.000	0.170	-0.100
2020/01/31 14:59:30.6	359.990	0.020	0.140	-0.090
2020/01/31 14:59:30.7	359.970	0.050	0.100	-0.090
2020/01/31 14:59:30.8	359.950	0.070	0.070	-0.080
2020/01/31 14:59:30.9	359.930	0.090	0.030	-0.080
2020/01/31 14:59:31.0	359.910	0.110	-0.000	-0.080
2020/01/31 14:59:31.1	359.890	0.130	-0.040	-0.080
2020/01/31 14:59:31.2	359.870	0.150	-0.070	-0.080
2020/01/31 14:59:31.3	359.860	0.170	-0.110	-0.080
2020/01/31 14:59:31.4	359.840	0.190	-0.140	-0.080
2020/01/31 14:59:31.5	359.820	0.210	-0.170	-0.080
2020/01/31 14:59:31.6	359.810	0.220	-0.200	-0.080
2020/01/31 14:59:31.7	359.790	0.240	-0.230	-0.090
2020/01/31 14:59:31.8	359.770	0.250	-0.250	-0.090
2020/01/31 14:59:31.9	359.760	0.260	-0.270	-0.100
2020/01/31 14:59:32.0	359.750	0.270	-0.300	-0.110
2020/01/31 14:59:32.1	359.730	0.280	-0.310	-0.110
2020/01/31 14:59:32.2	359.720	0.280	-0.330	-0.120
2020/01/31 14:59:32.3	359.710	0.280	-0.350	-0.130
2020/01/31 14:59:32.4	359.700	0.280	-0.360	-0.140
2020/01/31 14:59:32.5	359.690	0.280	-0.370	-0.150
2020/01/31 14:59:32.6	359.690	0.280	-0.370	-0.160
2020/01/31 14:59:32.7	359.680	0.280	-0.380	-0.180
2020/01/31 14:59:32.8	359.670	0.270	-0.380	-0.190
2020/01/31 14:59:32.9	359.670	0.260	-0.380	-0.200
2020/01/31 14:59:33.0	359.660	0.250	-0.380	-0.210
2020/01/31 14:59:33.1	359.660	0.240	-0.370	-0.230
2020/01/31 14:59:33.2	359.660	0.230	-0.370	-0.240
2020/01/31 14:59:33.3	359.670	0.220	-0.360	-0.250
2020/01/31 14:59:33.4	359.670	0.210	-0.350	-0.260
2020/01/31 14:59:33.5	359.670	0.190	-0.340	-0.280
2020/01/31 14:59:33.6	359.680	0.170	-0.320	-0.290
2020/01/31 14:59:33.7	359.690	0.160	-0.310	-0.300
2020/01/31 14:59:33.8	359.690	0.140	-0.300	-0.320
2020/01/31 14:59:33.9	359.700	0.120	-0.280	-0.330
2020/01/31 14:59:34.0	359.710	0.100	-0.270	-0.340
2020/01/31 14:59:34.1	359.720	0.090	-0.250	-0.350
2020/01/31 14:59:34.2	359.720	0.070	-0.230	-0.360
2020/01/31 14:59:34.3	359.730	0.050	-0.220	-0.370
2020/01/31 14:59:34.4	359.740	0.030	-0.200	-0.380
2020/01/31 14:59:34.5	359.740	0.010	-0.190	-0.390
2020/01/31 14:59:34.6	359.750	-0.010	-0.180	-0.400
2020/01/31 14:59:34.7	359.750	-0.020	-0.170	-0.400
2020/01/31 14:59:34.8	359.760	-0.040	-0.160	-0.410
2020/01/31 14:59:34.9	359.760	-0.060	-0.150	-0.420
2020/01/31 14:59:35.0	359.770	-0.080	-0.150	-0.420
2020/01/31 14:59:35.1	359.770	-0.090	-0.150	-0.430
2020/01/31 14:59:35.2	359.780	-0.110	-0.150	-0.430
2020/01/31 14:59:35.3	359.780	-0.120	-0.150	-0.430
2020/01/31 14:59:35.4	359.790	-0.140	-0.150	-0.440
2020/01/31 14:59:35.5	359.790	-0.150	-0.160	-0.440
2020/01/31 14:59:35.6	359.790	-0.170	-0.170	-0.440
2020/01/31 14:59:35.7	359.790	-0.180	-0.190	-0.450
2020/01/31 14:59:35.8	359.790	-0.190	-0.200	-0.450
2020/01/31 14:59:35.9	359.800	-0.210	-0.220	-0.450
2020/01/31 14:59:36.0	359.800	-0.220	-0.240	-0.460
2020/01/31 14:59:36.1	359.810	-0.230	-0.260	-0.470
2020/01/31 14:59:36.2	359.820	-0.240	-0.280	-0.470
2020/01/31 14:59:36.3	359.820	-0.250	-0.300	-0.480
2020/01/31 14:59:36.4	359.830	-0.270	-0.330	-0.490
2020/01/31 14:59:36.5	359.840	-0.280	-0.360	-0.510
2020/01/31 14:59:36.6	359.850	-0.290	-0.380	-0.520
2020/01/31 14:59:36.7	359.860	-0.300	-0.410	-0.540
2020/01/31 14:59:36.8	359.870	-0.310	-0.440	-0.560
2020/01/31 14:59:36.9	359.880	-0.330	-0.460	-0.580
2020/01/31 14:59:37.0	359.890	-0.340	-0.490	-0.600
2020/01/31 14:59:37.1	359.900	-0.350	-0.510	-0.620
2020/01/31 14:59:37.2	359.910	-0.360	-0.530	-0.640
2020/01/31 14:59:37.3	359.920	-0.370	-0.550	-0.660
2020/01/31 14:59:37.4	359.930	-0.380	-0.570	-0.680
2020/01/31 14:59:37.5	359.950	-0.390	-0.580	-0.700
2020/01/31 14:59:37.6	359.950	-0.400	-0.590	-0.720
2020/01/31 14:59:37.7	359.970	-0.400	-0.600	-0.740
2020/01/31 14:59:37.8	359.980	-0.410	-0.600	-0.760
2020/01/31 14:59:37.9	359.990	-0.420	-0.610	-0.780
2020/01/31 14:59:38.0	0.010	-0.420	-0.610	-0.800
2020/01/31 14:59:38.1	0.020	-0.430	-0.610	-0.810
2020/01/31 14:59:38.2	0.030	-0.430	-0.600	-0.830
2020/01/31 14:59:38.3	0.050	-0.440	-0.600	-0.840
2020/01/31 14:59:38.4	0.060	-0.440	-0.590	-0.850
2020/01/31 14:59:38.5	0.080	-0.440	-0.570	-0.860
2020/01/31 14:59:38.6	0.090	-0.440	-0.560	-0.870
2020/01/31 14:59:38.7	0.100	-0.430	-0.540	-0.870
2020/01/31 14:59:38.8	0.110	-0.430	-0.520	-0.870
2020/01/31 14:59:38.9	0.130	-0.420	-0.500	-0.870
2020/01/31 14:59:39.0	0.140	-0.410	-0.470	-0.870
2020/01/31 14:59:39.1	0.150	-0.400	-0.450	-0.860
2020/01/31 14:59:39.2	0.160	-0.390	-0.420	-0.850
2020/01/31 14:59:39.3	0.170	-0.380	-0.390	-0.840
2020/01/31 14:59:39.4	0.170	-0.360	-0.360	-0.820
2020/01/31 14:59:39.5	0.180	-0.340	-0.330	-0.800
2020/01/31 14:59:39.6	0.180	-0.330	-0.290	-0.780
2020/01/31 14:59:39.7	0.180	-0.300	-0.260	-0.750
2020/01/31 14:59:39.8	0.180	-0.280	-0.230	-0.720
2020/01/31 14:59:39.9	0.180	-0.260	-0.200	-0.680
2020/01/31 14:59:40.0	0.180	-0.230	-0.170	-0.640
2020/01/31 14:59:40.1	0.180	-0.200	-0.140	-0.590
2020/01/31 14:59:40.2	0.170	-0.170	-0.110	-0.540
2020/01/31 14:59:40.3	0.160	-0.140	-0.080	-0.490
2020/01/31 14:59:40.4	0.150	-0.110	-0.050	-0.430
2020/01/31 14:59:40.5	0.130	-0.080	-0.020	-0.370
2020/01/31 14:59:40.6	0.130	-0.040	0.000	-0.310
2020/01/31 14:59:40.7	0.110	-0.010	0.020	-0.250
2020/01/31 14:59:40.8	0.090	0.030	0.040	-0.180
2020/01/31 14:59:40.9	0.070	0.060	0.060	-0.120
2020/01/31 14:59:41.0	0.050	0.100	0.080	-0.050
2020/01/31 14:59:41.1	0.020	0.140	0.090	0.010
2020/01/31 14:59:41.2	359.990	0.170	0.100	0.080
2020/01/31 14:59:41.3	359.960	0.210	0.100	0.150
2020/01/31 14:59:41.4	359.930	0.240	0.110	0.210
2020/01/31 14:59:41.5	359.900	0.270	0.110	0.270
2020/01/31 14:59:41.6	359.870	0.310	0.100	0.330
2020/01/31 14:59:41.7	359.830	0.340	0.090	0.390
2020/01/31 14:59:41.8	359.800	0.370	0.080	0.440
2020/01/31 14:59:41.9	359.770	0.400	0.060	0.490
2020/01/31 14:59:42.0	359.750	0.430	0.040	0.540
2020/01/31 14:59:42.1	359.720	0.450	0.020	0.580
2020/01/31 14:59:42.2	359.690	0.480	-0.010	0.610
2020/01/31 14:59:42.3	359.670	0.500	-0.040	0.640
2020/01/31 14:59:42.4	359.640	0.530	-0.070	0.670
2020/01/31 14:59:42.5	359.620	0.550	-0.110	0.680
2020/01/31 14:59:42.6	359.610	0.570	-0.150	0.700
2020/01/31 14:59:42.7	359.590	0.590	-0.180	0.700
2020/01/31 14:59:42.8	359.570	0.600	-0.230	0.700
2020/01/31 14:59:42.9	359.560	0.620	-0.270	0.700
2020/01/31 14:59:43.0	359.550	0.630	-0.310	0.690
2020/01/31 14:59:43.1	359.540	0.640	-0.360	0.670
2020/01/31 14:59:43.2	359.540	0.640	-0.400	0.660
2020/01/31 14:59:43.3	359.530	0.650	-0.440	0.630
2020/01/31 14:59:43.4	359.530	0.650	-0.470	0.610
2020/01/31 14:59:43.5	359.520	0.650	-0.510	0.580
2020/01/31 14:59:43.6	359.520	0.650	-0.540	0.540
2020/01/31 14:59:43.7	359.520	0.640	-0.570	0.500
2020/01/31 14:59:43.8	359.520	0.640	-0.590	0.470
2020/01/31 14:59:43.9	359.520	0.620	-0.610	0.420
2020/01/31 14:59:44.0	359.520	0.610	-0.620	0.380
2020/01/31 14:59:44.1	359.520	0.600	-0.620	0.340
2020/01/31 14:59:44.2	359.520	0.580	-0.620	0.290
2020/01/31 14:59:44.3	359.530	0.560	-0.610	0.250
2020/01/31 14:59:44.4	359.530	0.530	-0.600	0.200
2020/01/31 14:59:44.5	359.540	0.510	-0.580	0.160
2020/01/31 14:59:44.6	359.550	0.480	-0.550	0.110
2020/01/31 14:59:44.7	359.560	0.450	-0.520	0.060
2020/01/31 14:59:44.8	359.570	0.420	-0.490	0.020
2020/01/31 14:59:44.9	359.590	0.390	-0.450	-0.020
2020/01/31 14:59:45.0	359.610	0.360	-0.410	-0.060
2020/01/31 14:59:45.1	359.620	0.320	-0.370	-0.100
2020/01/31 14:59:45.2	359.640	0.290	-0.320	-0.140
2020/01/31 14:59:45.3	359.660	0.250	-0.270	-0.170
2020/01/31 14:59:45.4	359.680	0.220	-0.220	-0.200
2020/01/31 14:59:45.5	359.710	0.180	-0.170	-0.230
2020/01/31 14:59:45.6	359.730	0.150	-0.120	-0.260
2020/01/31 14:59:45.7	359.740	0.110	-0.080	-0.290
2020/01/31 14:59:45.8	359.770	0.080	-0.030	-0.310
2020/01/31 14:59:45.9	359.790	0.040	0.020	-0.330
2020/01/31 14:59:46.0	359.810	0.010	0.060	-0.350
2020/01/31 14:59:46.1	359.830	-0.020	0.100	-0.370
2020/01/31 14:59:46.2	359.850	-0.050	0.140	-0.380
2020/01/31 14:59:46.3	359.870	-0.080	0.180	-0.390
2020/01/31 14:59:46.4	359.890	-0.110	0.210	-0.390
2020/01/31 14:59:46.5	359.910	-0.140	0.230	-0.400
2020/01/31 14:59:46.6	359.930	-0.160	0.260	-0.400
2020/01/31 14:59:46.7	359.940	-0.190	0.270	-0.400
2020/01/31 14:59:46.8	359.960	-0.210	0.290	-0.400
2020/01/31 14:59:46.9	359.970	-0.230	0.300	-0.400
2020/01/31 14:59:47.0	359.980	-0.240	0.310	-0.400
2020/01/31 14:59:47.1	359.990	-0.260	0.310	-0.390
2020/01/31 14:59:47.2	0.000	-0.270	0.300	-0.380
2020/01/31 14:59:47.3	0.010	-0.280	0.300	-0.370
2020/01/31 14:59:47.4	0.020	-0.300	0.290	-0.360
2020/01/31 14:59:47.5	0.020	-0.300	0.270	-0.350
2020/01/31 14:59:47.6	0.020	-0.310	0.260	-0.340
2020/01/31 14:59:47.7	0.020	-0.320	0.230	-0.330
2020/01/31 14:59:47.8	0.020	-0.320	0.210	-0.320
2020/01/31 14:59:47.9	0.020	-0.330	0.180	-0.300
2020/01/31 14:59:48.0	0.020	-0.330	0.150	-0.290
2020/01/31 14:59:48.1	0.020	-0.330	0.110	-0.280
2020/01/31 14:59:48.2	0.010	-0.340	0.070	-0.270
2020/01/31 14:59:48.3	0.010	-0.340	0.030	-0.260
2020/01/31 14:59:48.4	0.000	-0.340	-0.010	-0.260
2020/01/31 14:59:48.5	0.000	-0.340	-0.050	-0.250
2020/01/31 14:59:48.6	0.000	-0.340	-0.100	-0.240
2020/01/31 14:59:48.7	359.990	-0.350	-0.150	-0.240
2020/01/31 14:59:48.8	359.990	-0.350	-0.200	-0.240
2020/01/31 14:59:48.9	359.980	-0.350	-0.250	-0.240
2020/01/31 14:59:49.0	359.980	-0.350	-0.310	-0.240
2020/01/31 14:59:49.1	359.980	-0.350	-0.360	-0.250
2020/01/31 14:59:49.2	359.990	-0.360	-0.420	-0.260
2020/01/31 14:59:49.3	359.990	-0.360	-0.470	-0.270
2020/01/31 14:59:49.4	359.990	-0.360	-0.530	-0.280
2020/01/31 14:59:49.5	0.000	-0.360	-0.580	-0.290
2020/01/31 14:59:49.6	0.010	-0.360	-0.630	-0.310
2020/01/31 14:59:49.7	0.020	-0.370	-0.680	-0.330
2020/01/31 14:59:49.8	0.030	-0.370	-0.730	-0.350
2020/01/31 14:59:49.9	0.040	-0.370	-0.780	-0.370
2020/01/31 14:59:50.0	0.050	-0.370	-0.820	-0.390
2020/01/31 14:59:50.1	0.070	-0.370	-0.870	-0.420
2020/01/31 14:59:50.2	0.080	-0.370	-0.900	-0.440
2020/01/31 14:59:50.3	0.100	-0.370	-0.940	-0.460
2020/01/31 14:59:50.4	0.110	-0.360	-0.960	-0.490
2020/01/31 14:59:50.5	0.130	-0.360	-0.990	-0.510
2020/01/31 14:59:50.6	0.140	-0.360	-1.000	-0.530
2020/01/31 14:59:50.7	0.160	-0.350	-1.010	-0.550
2020/01/31 14:59:50.8	0.180	-0.340	-1.020	-0.570
2020/01/31 14:59:50.9	0.190	-0.340	-1.010	-0.580
2020/01/31 14:59:51.0	0.200	-0.330	-1.000	-0.590
2020/01/31 14:59:51.1	0.220	-0.320	-0.980	-0.610
2020/01/31 14:59:51.2	0.230	-0.310	-0.960	-0.620
2020/01/31 14:59:51.3	0.240	-0.300	-0.930	-0.620
2020/01/31 14:59:51.4	0.250	-0.290	-0.890	-0.630
2020/01/31 14:59:51.5	0.250	-0.280	-0.850	-0.630
2020/01/31 14:59:51.6	0.260	-0.270	-0.800	-0.630
2020/01/31 14:59:51.7	0.250	-0.250	-0.750	-0.630
2020/01/31 14:59:51.8	0.250	-0.240	-0.690	-0.620
2020/01/31 14:59:51.9	0.250	-0.230	-0.630	-0.620
2020/01/31 14:59:52.0	0.250	-0.220	-0.560	-0.610
2020/01/31 14:59:52.1	0.250	-0.200	-0.500	-0.600
2020/01/31 14:59:52.2	0.240	-0.190	-0.430	-0.580
2020/01/31 14:59:52.3	0.240	-0.180	-0.370	-0.560
2020/01/31 14:59:52.4	0.230	-0.160	-0.300	-0.550
2020/01/31 14:59:52.5	0.220	-0.150	-0.230	-0.520
2020/01/31 14:59:52.6	0.210	-0.140	-0.170	-0.500
2020/01/31 14:59:52.7	0.200	-0.130	-0.100	-0.480
2020/01/31 14:59:52.8	0.190	-0.110	-0.040	-0.450
2020/01/31 14:59:52.9	0.180	-0.100	0.020	-0.420
2020/01/31 14:59:53.0	0.160	-0.090	0.070	-0.390
2020/01/31 14:59:53.1	0.150	-0.070	0.120	-0.360
2020/01/31 14:59:53.2	0.130	-0.060	0.170	-0.330
2020/01/31 14:59:53.3	0.120	-0.050	0.210	-0.300
2020/01/31 14:59:53.4	0.100	-0.030	0.250	-0.260
2020/01/31 14:59:53.5	0.080	-0.020	0.290	-0.230
2020/01/31 14:59:53.6	0.060	-0.010	0.320	-0.190
2020/01/31 14:59:53.7	0.040	0.000	0.340	-0.160
2020/01/31 14:59:53.8	0.020	0.020	0.370	-0.120
2020/01/31 14:59:53.9	0.000	0.030	0.380	-0.090
2020/01/31 14:59:54.0	359.980	0.040	0.390	-0.060
2020/01/31 14:59:54.1	359.960	0.050	0.400	-0.040
2020/01/31 14:59:54.2	359.940	0.060	0.400	-0.010
2020/01/31 14:59:54.3	359.920	0.080	0.400	0.020
2020/01/31 14:59:54.4	359.900	0.090	0.390	0.040
2020/01/31 14:59:54.5	359.880	0.100	0.380	0.060
2020/01/31 14:59:54.6	359.850	0.110	0.370	0.070
2020/01/31 14:59:54.7	359.840	0.120	0.350	0.090
2020/01/31 14:59:54.8	359.820	0.140	0.320	0.110
2020/01/31 14:59:54.9	359.810	0.150	0.300	0.120
2020/01/31 14:59:55.0	359.800	0.160	0.270	0.130
2020/01/31 14:59:55.1	359.780	0.170	0.240	0.140
2020/01/31 14:59:55.2	359.780	0.180	0.200	0.140
2020/01/31 14:59:55.3	359.770	0.200	0.170	0.150
2020/01/31 14:59:55.4	359.770	0.210	0.130	0.150
2020/01/31 14:59:55.5	359.770	0.220	0.090	0.150
2020/01/31 14:59:55.6	359.750	0.230	0.050	0.140
2020/01/31 14:59:55.7	359.760	0.250	0.000	0.140
2020/01/31 14:59:55.8	359.760	0.260	-0.040	0.130
2020/01/31 14:59:55.9	359.770	0.270	-0.090	0.120
2020/01/31 14:59:56.0	359.780	0.290	-0.140	0.110
2020/01/31 14:59:56.1	359.800	0.300	-0.180	0.100
2020/01/31 14:59:56.2	359.810	0.310	-0.230	0.080
2020/01/31 14:59:56.3	359.830	0.320	-0.280	0.070
2020/01/31 14:59:56.4	359.850	0.340	-0.330	0.050
2020/01/31 14:59:56.5	359.870	0.350	-0.370	0.030
2020/01/31 14:59:56.6	359.900	0.360	-0.420	0.020
2020/01/31 14:59:56.7	359.910	0.370	-0.460	-0.000
2020/01/31 14:59:56.8	359.940	0.380	-0.500	-0.030
2020/01/31 14:59:56.9	359.970	0.390	-0.540	-0.050
2020/01/31 14:59:57.0	359.990	0.400	-0.580	-0.070
2020/01/31 14:59:57.1	0.020	0.410	-0.620	-0.090
2020/01/31 14:59:57.2	0.040	0.410	-0.650	-0.110
2020/01/31 14:59:57.3	0.060	0.420	-0.680	-0.140
2020/01/31 14:59:57.4	0.090	0.420	-0.700	-0.160
2020/01/31 14:59:57.5	0.110	0.420	-0.730	-0.180
2020/01/31 14:59:57.6	0.120	0.420	-0.740	-0.200
2020/01/31 14:59:57.7	0.140	0.420	-0.760	-0.210
2020/01/31 14:59:57.8	0.150	0.420	-0.770	-0.230
2020/01/31 14:59:57.9	0.150	0.410	-0.770	-0.240
2020/01/31 14:59:58.0	0.160	0.410	-0.770	-0.250
2020/01/31 14:59:58.1	0.160	0.400	-0.770	-0.250
2020/01/31 14:59:58.2	0.160	0.390	-0.760	-0.260
2020/01/31 14:59:58.3	0.150	0.380	-0.750	-0.260
2020/01/31 14:59:58.4	0.150	0.370	-0.730	-0.260
2020/01/31 14:59:58.5	0.130	0.350	-0.710	-0.260
2020/01/31 14:59:58.6	0.120	0.340	-0.680	-0.260
2020/01/31 14:59:58.7	0.100	0.320	-0.660	-0.260
2020/01/31 14:59:58.8	0.090	0.310	-0.630	-0.260
2020/01/31 14:59:58.9	0.070	0.290	-0.600	-0.260
2020/01/31 14:59:59.0	0.060	0.270	-0.570	-0.250
2020/01/31 14:59:59.1	0.040	0.250	-0.530	-0.250
2020/01/31 14:59:59.2	0.030	0.230	-0.500	-0.250
2020/01/31 14:59:59.3	0.020	0.210	-0.470	-0.250
2020/01/31 14:59:59.4	0.010	0.180	-0.430	-0.250
2020/01/31 14:59:59.5	0.000	0.160	-0.400	-0.250
2020/01/31 14:59:59.6	359.990	0.140	-0.370	-0.260
2020/01/31 14:59:59.7	359.990	0.120	-0.340	-0.270
2020/01/31 14:59:59.8	359.990	0.100	-0.320	-0.280
2020/01/31 14:59:59.9	359.990	0.070	-0.290	-0.290
2020/01/31 15:00:00.0	359.990	0.050	-0.270	-0.310
2020/01/31 15:00:00.1	0.000	0.030	-0.250	-0.330
2020/01/31 15:00:00.2	0.010	0.010	-0.240	-0.350
2020/01/31 15:00:00.3	0.020	-0.010	-0.220	-0.380
2020/01/31 15:00:00.4	0.030	-0.020	-0.210	-0.400
2020/01/31 15:00:00.5	0.050	-0.040	-0.210	-0.430
2020/01/31 15:00:00.6	0.060	-0.060	-0.200	-0.460
2020/01/31 15:00:00.7	0.080	-0.080	-0.200	-0.490
2020/01/31 15:00:00.8	0.100	-0.090	-0.190	-0.520
2020/01/31 15:00:00.9	0.110	-0.110	-0.190	-0.550
2020/01/31 15:00:01.0	0.130	-0.130	-0.190	-0.580
2020/01/31 15:00:01.1	0.140	-0.150	-0.190	-0.600
2020/01/31 15:00:01.2	0.160	-0.160	-0.190	-0.630
2020/01/31 15:00:01.3	0.170	-0.180	-0.190	-0.650
2020/01/31 15:00:01.4	0.170	-0.200	-0.190	-0.670
2020/01/31 15:00:01.5	0.180	-0.210	-0.190	-0.690
2020/01/31 15:00:01.6	0.190	-0.230	-0.180	-0.710
2020/01/31 15:00:01.7	0.190	-0.250	-0.180	-0.720
2020/01/31 15:00:01.8	0.190	-0.270	-0.170	-0.740
2020/01/31 15:00:01.9	0.190	-0.290	-0.160	-0.750
2020/01/31 15:00:02.0	0.190	-0.310	-0.150	-0.750
2020/01/31 15:00:02.1	0.180	-0.320	-0.130	-0.760
2020/01/31 15:00:02.2	0.180	-0.340	-0.120	-0.760
2020/01/31 15:00:02.3	0.170	-0.360	-0.100	-0.760
2020/01/31 15:00:02.4	0.170	-0.380	-0.080	-0.760
2020/01/31 15:00:02.5	0.160	-0.400	-0.060	-0.760
2020/01/31 15:00:02.6	0.160	-0.420	-0.040	-0.750
2020/01/31 15:00:02.7	0.150	-0.430	-0.020	-0.740
2020/01/31 15:00:02.8	0.150	-0.450	0.010	-0.730
2020/01/31 15:00:02.9	0.140	-0.470	0.030	-0.720
2020/01/31 15:00:03.0	0.140	-0.480	0.050	-0.710
2020/01/31 15:00:03.1	0.140	-0.500	0.080	-0.690
2020/01/31 15:00:03.2	0.130	-0.510	0.100	-0.670
2020/01/31 15:00:03.3	0.130	-0.520	0.130	-0.650
2020/01/31 15:00:03.4	0.130	-0.530	0.150	-0.630
2020/01/31 15:00:03.5	0.120	-0.540	0.170	-0.610
2020/01/31 15:00:03.6	0.120	-0.540	0.190	-0.580
2020/01/31 15:00:03.7	0.120	-0.550	0.210	-0.550
2020/01/31 15:00:03.8	0.110	-0.550	0.230	-0.520
2020/01/31 15:00:03.9	0.100	-0.550	0.250	-0.490
2020/01/31 15:00:04.0	0.100	-0.550	0.270	-0.450
2020/01/31 15:00:04.1	0.090	-0.540	0.280	-0.410
2020/01/31 15:00:04.2	0.070	-0.540	0.300	-0.370
2020/01/31 15:00:04.3	0.060	-0.530	0.310	-0.330
2020/01/31 15:00:04.4	0.050	-0.520	0.320	-0.280
2020/01/31 15:00:04.5	0.030	-0.510	0.330	-0.240
2020/01/31 15:00:04.6	0.010	-0.500	0.340	-0.190
2020/01/31 15:00:04.7	359.990	-0.480	0.340	-0.140
2020/01/31 15:00:04.8	359.970	-0.470	0.340	-0.090
2020/01/31 15:00:04.9	359.940	-0.450	0.340	-0.040
2020/01/31 15:00:05.0	359.920	-0.430	0.330	0.010
2020/01/31 15:00:05.1	359.890	-0.410	0.330	0.060
2020/01/31 15:00:05.2	359.870	-0.390	0.310	0.110
2020/01/31 15:00:05.3	359.840	-0.370	0.290	0.160
2020/01/31 15:00:05.4	359.820	-0.350	0.270	0.210
2020/01/31 15:00:05.5	359.790	-0.330	0.250	0.250
2020/01/31 15:00:05.6	359.760	-0.310	0.210	0.300
2020/01/31 15:00:05.7	359.730	-0.290	0.180	0.340
2020/01/31 15:00:05.8	359.710	-0.270	0.140	0.370
2020/01/31 15:00:05.9	359.690	-0.250	0.090	0.400
2020/01/31 15:00:06.0	359.670	-0.230	0.040	0.430
2020/01/31 15:00:06.1	359.650	-0.200	-0.010	0.460
2020/01/31 15:00:06.2	359.630	-0.180	-0.070	0.480
2020/01/31 15:00:06.3	359.610	-0.160	-0.140	0.490
2020/01/31 15:00:06.4	359.600	-0.140	-0.200	0.500
2020/01/31 15:00:06.5	359.590	-0.110	-0.280	0.510
2020/01/31 15:00:06.6	359.590	-0.090	-0.350	0.500
2020/01/31 15:00:06.7	359.570	-0.070	-0.430	0.490
2020/01/31 15:00:06.8	359.570	-0.050	-0.500	0.480
2020/01/31 15:00:06.9	359.580	-0.020	-0.580	0.470
2020/01/31 15:00:07.0	359.580	0.000	-0.660	0.440
2020/01/31 15:00:07.1	359.590	0.030	-0.740	0.420
2020/01/31 15:00:07.2	359.610	0.050	-0.820	0.390
2020/01/31 15:00:07.3	359.620	0.080	-0.890	0.350
2020/01/31 15:00:07.4	359.640	0.100	-0.970	0.320
2020/01/31 15:00:07.5	359.660	0.130	-1.040	0.280
2020/01/31 15:00:07.6	359.680	0.150	-1.100	0.230
2020/01/31 15:00:07.7	359.710	0.180	-1.150	0.180
2020/01/31 15:00:07.8	359.730	0.200	-1.210	0.140
2020/01/31 15:00:07.9	359.760	0.230	-1.250	0.090
2020/01/31 15:00:08.0	359.790	0.260	-1.290	0.050
2020/01/31 15:00:08.1	359.820	0.280	-1.320	0.000
2020/01/31 15:00:08.2	359.850	0.310	-1.340	-0.040
2020/01/31 15:00:08.3	359.870	0.340	-1.350	-0.080
2020/01/31 15:00:08.4	359.900	0.360	-1.360	-0.120
2020/01/31 15:00:08.5	359.930	0.390	-1.350	-0.150
2020/01/31 15:00:08.6	359.950	0.410	-1.340	-0.180
2020/01/31 15:00:08.7	359.990	0.440	-1.320	-0.220
2020/01/31 15:00:08.8	0.010	0.460	-1.280	-0.240
2020/01/31 15:00:08.9	0.030	0.480	-1.250	-0.260
2020/01/31 15:00:09.0	0.050	0.500	-1.200	-0.280
2020/01/31 15:00:09.1	0.060	0.520	-1.150	-0.290
2020/01/31 15:00:09.2	0.080	0.540	-1.090	-0.300
2020/01/31 15:00:09.3	0.090	0.550	-1.030	-0.310
2020/01/31 15:00:09.4	0.100	0.560	-0.960	-0.310
2020/01/31 15:00:09.5	0.110	0.570	-0.890	-0.320
2020/01/31 15:00:09.6	0.120	0.580	-0.820	-0.310
2020/01/31 15:00:09.7	0.120	0.590	-0.740	-0.310
2020/01/31 15:00:09.8	0.120	0.600	-0.660	-0.300
2020/01/31 15:00:09.9	0.120	0.600	-0.590	-0.290
2020/01/31 15:00:10.0	0.120	0.600	-0.510	-0.280
2020/01/31 15:00:10.1	0.120	0.590	-0.430	-0.270
2020/01/31 15:00:10.2	0.120	0.590	-0.360	-0.260
2020/01/31 15:00:10.3	0.110	0.580	-0.290	-0.250
2020/01/31 15:00:10.4	0.100	0.570	-0.220	-0.230
2020/01/31 15:00:10.5	0.090	0.560	-0.150	-0.220
2020/01/31 15:00:10.6	0.080	0.540	-0.090	-0.200
2020/01/31 15:00:10.7	0.070	0.530	-0.030	-0.190
2020/01/31 15:00:10.8	0.050	0.510	0.030	-0.170
2020/01/31 15:00:10.9	0.040	0.490	0.080	-0.160
2020/01/31 15:00:11.0	0.030	0.470	0.120	-0.150
2020/01/31 15:00:11.1	0.010	0.440	0.160	-0.140
2020/01/31 15:00:11.2	0.000	0.420	0.200	-0.130
2020/01/31 15:00:11.3	359.980	0.390	0.240	-0.120
2020/01/31 15:00:11.4	359.970	0.360	0.260	-0.120
2020/01/31 15:00:11.5	359.950	0.330	0.290	-0.110
2020/01/31 15:00:11.6	359.940	0.300	0.310	-0.110
2020/01/31 15:00:11.7	359.930	0.260	0.320	-0.110
2020/01/31 15:00:11.8	359.920	0.230	0.340	-0.110
2020/01/31 15:00:11.9	359.910	0.190	0.350	-0.120
2020/01/31 15:00:12.0	359.890	0.160	0.350	-0.120
2020/01/31 15:00:12.1	359.880	0.120	0.360	-0.130
2020/01/31 15:00:12.2	359.870	0.080	0.360	-0.140
2020/01/31 15:00:12.3	359.860	0.040	0.360	-0.160
2020/01/31 15:00:12.4	359.850	0.010	0.360	-0.170
2020/01/31 15:00:12.5	359.840	-0.030	0.360	-0.180
2020/01/31 15:00:12.6	359.830	-0.070	0.360	-0.200
2020/01/31 15:00:12.7	359.830	-0.110	0.350	-0.220
2020/01/31 15:00:12.8	359.820	-0.150	0.350	-0.230
2020/01/31 15:00:12.9	359.810	-0.180	0.350	-0.240
2020/01/31 15:00:13.0	359.800	-0.220	0.350	-0.250
2020/01/31 15:00:13.1	359.800	-0.250	0.340	-0.260
2020/01/31 15:00:13.2	359.790	-0.290	0.340	-0.270
2020/01/31 15:00:13.3	359.790	-0.320	0.340	-0.280
2020/01/31 15:00:13.4	359.780	-0.350	0.330	-0.290
2020/01/31 15:00:13.5	359.780	-0.390	0.330	-0.300
2020/01/31 15:00:13.6	359.770	-0.410	0.330	-0.310
2020/01/31 15:00:13.7	359.770	-0.440	0.330	-0.310
2020/01/31 15:00:13.8	359.770	-0.470	0.320	-0.320
2020/01/31 15:00:13.9	359.770	-0.490	0.320	-0.330
2020/01/31 15:00:14.0	359.760	-0.510	0.310	-0.340
2020/01/31 15:00:14.1	359.760	-0.530	0.300	-0.350
2020/01/31 15:00:14.2	359.760	-0.550	0.290	-0.350
2020/01/31 15:00:14.3	359.760	-0.560	0.280	-0.360
2020/01/31 15:00:14.4	359.760	-0.570	0.260	-0.370
2020/01/31 15:00:14.5	359.760	-0.580	0.250	-0.380
2020/01/31 15:00:14.6	359.770	-0.580	0.220	-0.400
2020/01/31 15:00:14.7	359.770	-0.590	0.200	-0.410
2020/01/31 15:00:14.8	359.770	-0.580	0.170	-0.420
2020/01/31 15:00:14.9	359.770	-0.580	0.140	-0.440
2020/01/31 15:00:15.0	359.770	-0.570	0.110	-0.450
2020/01/31 15:00:15.1	359.780	-0.560	0.070	-0.470
2020/01/31 15:00:15.2	359.780	-0.540	0.030	-0.480
2020/01/31 15:00:15.3	359.780	-0.520	-0.010	-0.500
2020/01/31 15:00:15.4	359.790	-0.500	-0.050	-0.510
2020/01/31 15:00:15.5	359.790	-0.480	-0.100	-0.530
2020/01/31 15:00:15.6	359.800	-0.450	-0.150	-0.540
2020/01/31 15:00:15.7	359.800	-0.420	-0.190	-0.560
2020/01/31 15:00:15.8	359.810	-0.380	-0.240	-0.570
2020/01/31 15:00:15.9	359.810	-0.350	-0.290	-0.580
2020/01/31 15:00:16.0	359.820	-0.310	-0.340	-0.590
2020/01/31 15:00:16.1	359.820	-0.270	-0.390	-0.600
2020/01/31 15:00:16.2	359.830	-0.230	-0.440	-0.600
2020/01/31 15:00:16.3	359.830	-0.190	-0.490	-0.610
2020/01/31 15:00:16.4	359.840	-0.150	-0.540	-0.610
2020/01/31 15:00:16.5	359.840	-0.100	-0.580	-0.610
2020/01/31 15:00:16.6	359.850	-0.060	-0.620	-0.610
2020/01/31 15:00:16.7	359.850	-0.020	-0.660	-0.610
2020/01/31 15:00:16.8	359.850	0.020	-0.700	-0.600
2020/01/31 15:00:16.9	359.860	0.060	-0.730	-0.600
2020/01/31 15:00:17.0	359.850	0.100	-0.760	-0.590
2020/01/31 15:00:17.1	359.850	0.130	-0.780	-0.580
2020/01/31 15:00:17.2	359.850	0.170	-0.810	-0.580
2020/01/31 15:00:17.3	359.850	0.190	-0.830	-0.570
2020/01/31 15:00:17.4	359.850	0.220	-0.840	-0.560
2020/01/31 15:00:17.5	359.850	0.240	-0.850	-0.550
2020/01/31 15:00:17.6	359.850	0.260	-0.860	-0.540
2020/01/31 15:00:17.7	359.840	0.280	-0.870	-0.540
2020/01/31 15:00:17.8	359.840	0.290	-0.870	-0.530
2020/01/31 15:00:17.9	359.840	0.300	-0.860	-0.520
2020/01/31 15:00:18.0	359.840	0.310	-0.860	-0.510
2020/01/31 15:00:18.1	359.840	0.310	-0.850	-0.510
2020/01/31 15:00:18.2	359.840	0.310	-0.840	-0.500
2020/01/31 15:00:18.3	359.840	0.300	-0.820	-0.500
2020/01/31 15:00:18.4	359.840	0.290	-0.810	-0.500
2020/01/31 15:00:18.5	359.840	0.280	-0.790	-0.490
2020/01/31 15:00:18.6	359.850	0.260	-0.760	-0.490
2020/01/31 15:00:18.7	359.850	0.250	-0.740	-0.490
2020/01/31 15:00:18.8	359.860	0.230	-0.710	-0.490
2020/01/31 15:00:18.9	359.870	0.200	-0.680	-0.480
2020/01/31 15:00:19.0	359.880	0.180	-0.650	-0.480
2020/01/31 15:00:19.1	359.890	0.160	-0.620	-0.480
2020/01/31 15:00:19.2	359.900	0.130	-0.590	-0.480
2020/01/31 15:00:19.3	359.910	0.100	-0.560	-0.480
2020/01/31 15:00:19.4	359.920	0.080	-0.530	-0.480
2020/01/31 15:00:19.5	359.940	0.050	-0.500	-0.470
2020/01/31 15:00:19.6	359.950	0.020	-0.470	-0.470
2020/01/31 15:00:19.7	359.960	-0.000	-0.440	-0.470
2020/01/31 15:00:19.8	359.970	-0.030	-0.400	-0.460
2020/01/31 15:00:19.9	359.980	-0.050	-0.370	-0.460
2020/01/31 15:00:20.0	0.000	-0.080	-0.340	-0.450
2020/01/31 15:00:20.1	0.010	-0.100	-0.310	-0.440
2020/01/31 15:00:20.2	0.020	-0.120	-0.280	-0.430
2020/01/31 15:00:20.3	0.030	-0.140	-0.240	-0.420
2020/01/31 15:00:20.4	0.030	-0.160	-0.210	-0.400
2020/01/31 15:00:20.5	0.040	-0.180	-0.180	-0.380
2020/01/31 15:00:20.6	0.040	-0.190	-0.150	-0.360
2020/01/31 15:00:20.7	0.040	-0.210	-0.120	-0.340
2020/01/31 15:00:20.8	0.040	-0.220	-0.090	-0.320
2020/01/31 15:00:20.9	0.030	-0.230	-0.060	-0.300
2020/01/31 15:00:21.0	0.020	-0.240	-0.030	-0.270
2020/01/31 15:00:21.1	0.010	-0.250	0.000	-0.250
2020/01/31 15:00:21.2	0.000	-0.260	0.030	-0.220
2020/01/31 15:00:21.3	359.980	-0.260	0.060	-0.190
2020/01/31 15:00:21.4	359.960	-0.270	0.080	-0.160
2020/01/31 15:00:21.5	359.940	-0.270	0.110	-0.130
2020/01/31 15:00:21.6	359.930	-0.280	0.130	-0.100
2020/01/31 15:00:21.7	359.900	-0.280	0.150	-0.070
2020/01/31 15:00:21.8	359.880	-0.280	0.160	-0.040
2020/01/31 15:00:21.9	359.850	-0.280	0.180	-0.010
2020/01/31 15:00:22.0	359.820	-0.280	0.190	0.010
2020/01/31 15:00:22.1	359.800	-0.270	0.200	0.040
2020/01/31 15:00:22.2	359.770	-0.270	0.200	0.060
2020/01/31 15:00:22.3	359.740	-0.260	0.200	0.080
2020/01/31 15:00:22.4	359.720	-0.250	0.190	0.100
2020/01/31 15:00:22.5	359.700	-0.240	0.190	0.110
2020/01/31 15:00:22.6	359.680	-0.230	0.170	0.120
2020/01/31 15:00:22.7	359.660	-0.220	0.160	0.130
2020/01/31 15:00:22.8	359.640	-0.200	0.130	0.130
2020/01/31 15:00:22.9	359.630	-0.180	0.110	0.130
2020/01/31 15:00:23.0	359.620	-0.160	0.080	0.130
2020/01/31 15:00:23.1	359.610	-0.140	0.040	0.120
2020/01/31 15:00:23.2	359.610	-0.110	0.000	0.110
2020/01/31 15:00:23.3	359.610	-0.080	-0.040	0.100
2020/01/31 15:00:23.4	359.620	-0.050	-0.090	0.090
2020/01/31 15:00:23.5	359.630	-0.020	-0.140	0.070
2020/01/31 15:00:23.6	359.640	0.020	-0.190	0.050
2020/01/31 15:00:23.7	359.660	0.060	-0.240	0.030
2020/01/31 15:00:23.8	359.680	0.100	-0.290	0.010
2020/01/31 15:00:23.9	359.700	0.140	-0.340	-0.010
2020/01/31 15:00:24.0	359.720	0.180	-0.390	-0.020
2020/01/31 15:00:24.1	359.740	0.230	-0.440	-0.040
2020/01/31 15:00:24.2	359.770	0.270	-0.490	-0.050
2020/01/31 15:00:24.3	359.790	0.320	-0.530	-0.070
2020/01/31 15:00:24.4	359.810	0.370	-0.560	-0.080
2020/01/31 15:00:24.5	359.840	0.410	-0.590	-0.090
2020/01/31 15:00:24.6	359.860	0.450	-0.620	-0.090
2020/01/31 15:00:24.7	359.880	0.490	-0.640	-0.100
2020/01/31 15:00:24.8	359.900	0.530	-0.650	-0.100
2020/01/31 15:00:24.9	359.910	0.570	-0.650	-0.100
2020/01/31 15:00:25.0	359.930	0.600	-0.650	-0.100
2020/01/31 15:00:25.1	359.940	0.630	-0.640	-0.090
2020/01/31 15:00:25.2	359.950	0.650	-0.630	-0.090
2020/01/31 15:00:25.3	359.960	0.670	-0.610	-0.080
2020/01/31 15:00:25.4	359.960	0.690	-0.580	-0.080
2020/01/31 15:00:25.5	359.960	0.700	-0.550	-0.070
2020/01/31 15:00:25.6	359.960	0.700	-0.510	-0.050
2020/01/31 15:00:25.7	359.960	0.710	-0.470	-0.040
2020/01/31 15:00:25.8	359.950	0.700	-0.430	-0.030
2020/01/31 15:00:25.9	359.940	0.690	-0.380	-0.010
2020/01/31 15:00:26.0	359.930	0.680	-0.320	0.010
2020/01/31 15:00:26.1	359.910	0.660	-0.270	0.030
2020/01/31 15:00:26.2	359.890	0.640	-0.220	0.050
2020/01/31 15:00:26.3	359.870	0.610	-0.170	0.080
2020/01/31 15:00:26.4	359.840	0.570	-0.110	0.100
2020/01/31 15:00:26.5	359.810	0.540	-0.060	0.120
2020/01/31 15:00:26.6	359.790	0.500	-0.010	0.150
2020/01/31 15:00:26.7	359.750	0.450	0.030	0.170
2020/01/31 15:00:26.8	359.730	0.400	0.070	0.190
2020/01/31 15:00:26.9	359.700	0.350	0.110	0.210
2020/01/31 15:00:27.0	359.670	0.300	0.140	0.220
2020/01/31 15:00:27.1	359.640	0.240	0.170	0.230
2020/01/31 15:00:27.2	359.610	0.180	0.190	0.230
2020/01/31 15:00:27.3	359.580	0.120	0.200	0.240
2020/01/31 15:00:27.4	359.560	0.070	0.210	0.230
2020/01/31 15:00:27.5	359.540	0.010	0.210	0.220
2020/01/31 15:00:27.6	359.520	-0.050	0.210	0.200
2020/01/31 15:00:27.7	359.500	-0.110	0.200	0.180
2020/01/31 15:00:27.8	359.490	-0.170	0.180	0.150
2020/01/31 15:00:27.9	359.470	-0.230	0.160	0.110
2020/01/31 15:00:28.0	359.470	-0.280	0.130	0.070
2020/01/31 15:00:28.1	359.460	-0.340	0.090	0.020
2020/01/31 15:00:28.2	359.460	-0.390	0.060	-0.030
2020/01/31 15:00:28.3	359.460	-0.430	0.010	-0.080
2020/01/31 15:00:28.4	359.460	-0.480	-0.030	-0.140
2020/01/31 15:00:28.5	359.470	-0.520	-0.080	-0.200
2020/01/31 15:00:28.6	359.470	-0.550	-0.130	-0.270
2020/01/31 15:00:28.7	359.480	-0.590	-0.180	-0.340
2020/01/31 15:00:28.8	359.490	-0.610	-0.230	-0.400
2020/01/31 15:00:28.9	359.510	-0.640	-0.280	-0.470
2020/01/31 15:00:29.0	359.520	-0.660	-0.330	-0.530
2020/01/31 15:00:29.1	359.540	-0.670	-0.380	-0.590
2020/01/31 15:00:29.2	359.560	-0.680	-0.420	-0.650
2020/01/31 15:00:29.3	359.570	-0.690	-0.460	-0.700
2020/01/31 15:00:29.4	359.590	-0.690	-0.490	-0.750
2020/01/31 15:00:29.5	359.610	-0.690	-0.530	-0.800
2020/01/31 15:00:29.6	359.620	-0.680	-0.550	-0.840
2020/01/31 15:00:29.7	359.640	-0.670	-0.570	-0.880
2020/01/31 15:00:29.8	359.660	-0.660	-0.590	-0.910
2020/01/31 15:00:29.9	359.670	-0.640	-0.600	-0.940
2020/01/31 15:00:30.0	359.690	-0.620	-0.610	-0.960
2020/01/31 15:00:30.1	359.700	-0.600	-0.610	-0.980
2020/01/31 15:00:30.2	359.710	-0.570	-0.610	-0.990
2020/01/31 15:00:30.3	359.730	-0.540	-0.600	-1.000
2020/01/31 15:00:30.4	359.740	-0.510	-0.600	-1.000
2020/01/31 15:00:30.5	359.750	-0.480	-0.590	-1.000
2020/01/31 15:00:30.6	359.770	-0.450	-0.570	-1.000
2020/01/31 15:00:30.7	359.770	-0.410	-0.560	-0.990
2020/01/31 15:00:30.8	359.780	-0.370	-0.550	-0.980
2020/01/31 15:00:30.9	359.800	-0.340	-0.530	-0.970
2020/01/31 15:00:31.0	359.810	-0.300	-0.520	-0.970
2020/01/31 15:00:31.1	359.830	-0.260	-0.500	-0.960
2020/01/31 15:00:31.2	359.850	-0.220	-0.480	-0.940
2020/01/31 15:00:31.3	359.860	-0.190	-0.470	-0.930
2020/01/31 15:00:31.4	359.880	-0.150	-0.450	-0.920
2020/01/31 15:00:31.5	359.900	-0.110	-0.440	-0.910
2020/01/31 15:00:31.6	359.910	-0.080	-0.420	-0.890
2020/01/31 15:00:31.7	359.930	-0.040	-0.410	-0.880
2020/01/31 15:00:31.8	359.950	-0.010	-0.400	-0.860
2020/01/31 15:00:31.9	359.960	0.020	-0.380	-0.850
2020/01/31 15:00:32.0	359.980	0.050	-0.370	-0.830
2020/01/31 15:00:32.1	359.990	0.080	-0.360	-0.810
2020/01/31 15:00:32.2	0.000	0.100	-0.350	-0.800
2020/01/31 15:00:32.3	0.010	0.120	-0.340	-0.780
2020/01/31 15:00:32.4	0.020	0.150	-0.320	-0.760
2020/01/31 15:00:32.5	0.030	0.170	-0.310	-0.730
2020/01/31 15:00:32.6	0.030	0.180	-0.300	-0.710
2020/01/31 15:00:32.7	0.020	0.200	-0.290	-0.680
2020/01/31 15:00:32.8	0.020	0.210	-0.270	-0.650
2020/01/31 15:00:32.9	0.020	0.220	-0.250	-0.620
2020/01/31 15:00:33.0	0.010	0.230	-0.240	-0.580
2020/01/31 15:00:33.1	0.000	0.240	-0.220	-0.550
2020/01/31 15:00:33.2	359.980	0.250	-0.190	-0.500
2020/01/31 15:00:33.3	359.970	0.250	-0.170	-0.460
2020/01/31 15:00:33.4	359.950	0.260	-0.150	-0.410
2020/01/31 15:00:33.5	359.930	0.260	-0.120	-0.370
2020/01/31 15:00:33.6	359.910	0.260	-0.090	-0.310
2020/01/31 15:00:33.7	359.880	0.270	-0.060	-0.260
2020/01/31 15:00:33.8	359.850	0.270	-0.030	-0.210
2020/01/31 15:00:33.9	359.820	0.270	0.000	-0.160
2020/01/31 15:00:34.0	359.790	0.270	0.030	-0.100
2020/01/31 15:00:34.1	359.770	0.260	0.060	-0.040
2020/01/31 15:00:34.2	359.740	0.260	0.090	0.010
2020/01/31 15:00:34.3	359.700	0.260	0.120	0.060
2020/01/31 15:00:34.4	359.670	0.260	0.150	0.120
2020/01/31 15:00:34.5	359.640	0.260	0.180	0.170
2020/01/31 15:00:34.6	359.610	0.260	0.200	0.220
2020/01/31 15:00:34.7	359.590	0.260	0.220	0.270
2020/01/31 15:00:34.8	359.560	0.250	0.240	0.310
2020/01/31 15:00:34.9	359.530	0.250	0.250	0.350
2020/01/31 15:00:35.0	359.500	0.250	0.270	0.390
2020/01/31 15:00:35.1	359.470	0.250	0.280	0.430
2020/01/31 15:00:35.2	359.440	0.250	0.280	0.460
2020/01/31 15:00:35.3	359.420	0.250	0.280	0.490
2020/01/31 15:00:35.4	359.390	0.250	0.280	0.520
2020/01/31 15:00:35.5	359.360	0.250	0.280	0.540
2020/01/31 15:00:35.6	359.330	0.250	0.270	0.560
2020/01/31 15:00:35.7	359.310	0.250	0.260	0.580
2020/01/31 15:00:35.8	359.290	0.250	0.240	0.600
2020/01/31 15:00:35.9	359.260	0.250	0.220	0.610
2020/01/31 15:00:36.0	359.240	0.250	0.200	0.610
2020/01/31 15:00:36.1	359.220	0.250	0.170	0.610
2020/01/31 15:00:36.2	359.200	0.250	0.140	0.610
2020/01/31 15:00:36.3	359.190	0.250	0.100	0.610
2020/01/31 15:00:36.4	359.170	0.250	0.060	0.600
2020/01/31 15:00:36.5	359.160	0.250	0.020	0.590
2020/01/31 15:00:36.6	359.150	0.250	-0.020	0.570
2020/01/31 15:00:36.7	359.150	0.250	-0.070	0.550
2020/01/31 15:00:36.8	359.140	0.250	-0.120	0.530
2020/01/31 15:00:36.9	359.140	0.250	-0.180	0.500
2020/01/31 15:00:37.0	359.140	0.250	-0.240	0.470
2020/01/31 15:00:37.1	359.150	0.250	-0.300	0.440
2020/01/31 15:00:37.2	359.150	0.250	-0.360	0.400
2020/01/31 15:00:37.3	359.160	0.240	-0.420	0.360
2020/01/31 15:00:37.4	359.170	0.240	-0.490	0.310
2020/01/31 15:00:37.5	359.190	0.240	-0.550	0.260
2020/01/31 15:00:37.6	359.200	0.230	-0.620	0.200
2020/01/31 15:00:37.7	359.220	0.230	-0.680	0.140
2020/01/31 15:00:37.8	359.240	0.220	-0.750	0.080
2020/01/31 15:00:37.9	359.260	0.210	-0.810	0.010
2020/01/31 15:00:38.0	359.280	0.200	-0.870	-0.060
2020/01/31 15:00:38.1	359.310	0.190	-0.930	-0.130
2020/01/31 15:00:38.2	359.330	0.170	-0.980	-0.200
2020/01/31 15:00:38.3	359.360	0.160	-1.040	-0.280
2020/01/31 15:00:38.4	359.380	0.140	-1.080	-0.350
2020/01/31 15:00:38.5	359.410	0.120	-1.130	-0.430
2020/01/31 15:00:38.6	359.440	0.100	-1.170	-0.500
2020/01/31 15:00:38.7	359.460	0.080	-1.200	-0.580
2020/01/31 15:00:38.8	359.490	0.060	-1.230	-0.650
2020/01/31 15:00:38.9	359.520	0.040	-1.250	-0.720
2020/01/31 15:00:39.0	359.540	0.010	-1.260	-0.790
2020/01/31 15:00:39.1	359.570	-0.020	-1.270	-0.860
2020/01/31 15:00:39.2	359.600	-0.040	-1.270	-0.920
2020/01/31 15:00:39.3	359.630	-0.070	-1.270	-0.980
2020/01/31 15:00:39.4	359.660	-0.100	-1.260	-1.050
2020/01/31 15:00:39.5	359.690	-0.130	-1.240	-1.100
2020/01/31 15:00:39.6	359.720	-0.160	-1.220	-1.160
2020/01/31 15:00:39.7	359.750	-0.190	-1.190	-1.210
2020/01/31 15:00:39.8	359.780	-0.220	-1.150	-1.260
2020/01/31 15:00:39.9	359.810	-0.250	-1.110	-1.310
2020/01/31 15:00:40.0	359.840	-0.280	-1.070	-1.350
2020/01/31 15:00:40.1	359.870	-0.310	-1.020	-1.390
2020/01/31 15:00:40.2	359.900	-0.340	-0.970	-1.430
2020/01/31 15:00:40.3	359.920	-0.370	-0.910	-1.460
2020/01/31 15:00:40.4	359.950	-0.390	-0.850	-1.480
2020/01/31 15:00:40.5	359.970	-0.420	-0.780	-1.500
2020/01/31 15:00:40.6	359.990	-0.440	-0.710	-1.520
2020/01/31 15:00:40.7	0.010	-0.460	-0.640	-1.530
2020/01/31 15:00:40.8	0.020	-0.480	-0.570	-1.540
2020/01/31 15:00:40.9	0.040	-0.500	-0.500	-1.540
2020/01/31 15:00:41.0	0.050	-0.510	-0.420	-1.540
2020/01/31 15:00:41.1	0.070	-0.530	-0.350	-1.530
2020/01/31 15:00:41.2	0.080	-0.540	-0.270	-1.520
2020/01/31 15:00:41.3	0.090	-0.540	-0.190	-1.500
2020/01/31 15:00:41.4	0.090	-0.550	-0.120	-1.480
2020/01/31 15:00:41.5	0.100	-0.550	-0.040	-1.450
2020/01/31 15:00:41.6	0.110	-0.550	0.030	-1.420
2020/01/31 15:00:41.7	0.110	-0.550	0.110	-1.390
2020/01/31 15:00:41.8	0.110	-0.540	0.180	-1.350
2020/01/31 15:00:41.9	0.120	-0.530	0.240	-1.310
2020/01/31 15:00:42.0	0.120	-0.520	0.310	-1.270
2020/01/31 15:00:42.1	0.120	-0.500	0.370	-1.220
2020/01/31 15:00:42.2	0.110	-0.480	0.430	-1.170
2020/01/31 15:00:42.3	0.110	-0.460	0.480	-1.110
2020/01/31 15:00:42.4	0.110	-0.440	0.540	-1.060
2020/01/31 15:00:42.5	0.100	-0.410	0.580	-1.000
2020/01/31 15:00:42.6	0.090	-0.380	0.620	-0.940
2020/01/31 15:00:42.7	0.090	-0.350	0.660	-0.880
2020/01/31 15:00:42.8	0.080	-0.320	0.700	-0.810
2020/01/31 15:00:42.9	0.060	-0.280	0.730	-0.740
2020/01/31 15:00:43.0	0.050	-0.250	0.760	-0.670
2020/01/31 15:00:43.1	0.030	-0.210	0.790	-0.600
2020/01/31 15:00:43.2	0.010	-0.170	0.810	-0.530
2020/01/31 15:00:43.3	359.990	-0.130	0.820	-0.450
2020/01/31 15:00:43.4	359.960	-0.100	0.840	-0.380
2020/01/31 15:00:43.5	359.940	-0.060	0.850	-0.300
2020/01/31 15:00:43.6	359.910	-0.020	0.850	-0.220
2020/01/31 15:00:43.7	359.880	0.010	0.860	-0.140
2020/01/31 15:00:43.8	359.840	0.050	0.850	-0.070
2020/01/31 15:00:43.9	359.810	0.080	0.850	0.010
2020/01/31 15:00:44.0	359.770	0.110	0.830	0.080
2020/01/31 15:00:44.1	359.730	0.140	0.820	0.150
2020/01/31 15:00:44.2	359.690	0.170	0.800	0.220
2020/01/31 15:00:44.3	359.650	0.190	0.770	0.280
2020/01/31 15:00:44.4	359.610	0.210	0.740	0.340
2020/01/31 15:00:44.5	359.570	0.230	0.710	0.390
2020/01/31 15:00:44.6	359.530	0.250	0.670	0.450
2020/01/31 15:00:44.7	359.500	0.260	0.630	0.490
2020/01/31 15:00:44.8	359.460	0.270	0.580	0.530
2020/01/31 15:00:44.9	359.420	0.280	0.520	0.570
2020/01/31 15:00:45.0	359.390	0.290	0.460	0.600
2020/01/31 15:00:45.1	359.350	0.290	0.400	0.630
2020/01/31 15:00:45.2	359.320	0.300	0.330	0.650
2020/01/31 15:00:45.3	359.290	0.300	0.260	0.670
2020/01/31 15:00:45.4	359.250	0.300	0.190	0.680
2020/01/31 15:00:45.5	359.230	0.300	0.110	0.680
2020/01/31 15:00:45.6	359.200	0.300	0.030	0.680
2020/01/31 15:00:45.7	359.170	0.300	-0.050	0.680
2020/01/31 15:00:45.8	359.150	0.300	-0.140	0.670
2020/01/31 15:00:45.9	359.130	0.300	-0.230	0.660
2020/01/31 15:00:46.0	359.110	0.300	-0.320	0.640
2020/01/31 15:00:46.1	359.090	0.300	-0.410	0.620
2020/01/31 15:00:46.2	359.080	0.300	-0.500	0.590
2020/01/31 15:00:46.3	359.060	0.300	-0.580	0.560
2020/01/31 15:00:46.4	359.050	0.310	-0.670	0.530
2020/01/31 15:00:46.5	359.040	0.320	-0.760	0.500
2020/01/31 15:00:46.6	359.040	0.330	-0.840	0.460
2020/01/31 15:00:46.7	359.040	0.340	-0.920	0.420
2020/01/31 15:00:46.8	359.040	0.350	-0.990	0.380
2020/01/31 15:00:46.9	359.030	0.370	-1.060	0.350
2020/01/31 15:00:47.0	359.030	0.390	-1.120	0.310
2020/01/31 15:00:47.1	359.040	0.410	-1.180	0.270
2020/01/31 15:00:47.2	359.040	0.430	-1.240	0.230
2020/01/31 15:00:47.3	359.040	0.450	-1.280	0.200
2020/01/31 15:00:47.4	359.050	0.470	-1.320	0.160
2020/01/31 15:00:47.5	359.050	0.500	-1.360	0.130
2020/01/31 15:00:47.6	359.060	0.520	-1.380	0.100
2020/01/31 15:00:47.7	359.060	0.550	-1.400	0.060
2020/01/31 15:00:47.8	359.060	0.570	-1.420	0.030
2020/01/31 15:00:47.9	359.070	0.590	-1.420	0.000
2020/01/31 15:00:48.0	359.080	0.610	-1.420	-0.030
2020/01/31 15:00:48.1	359.090	0.630	-1.410	-0.050
2020/01/31 15:00:48.2	359.100	0.640	-1.400	-0.080
2020/01/31 15:00:48.3	359.110	0.650	-1.370	-0.110
2020/01/31 15:00:48.4	359.120	0.650	-1.350	-0.130
2020/01/31 15:00:48.5	359.130	0.660	-1.310	-0.160
2020/01/31 15:00:48.6	359.140	0.650	-1.270	-0.190
2020/01/31 15:00:48.7	359.150	0.640	-1.230	-0.220
2020/01/31 15:00:48.8	359.160	0.630	-1.180	-0.250
2020/01/31 15:00:48.9	359.170	0.610	-1.130	-0.270
2020/01/31 15:00:49.0	359.180	0.580	-1.070	-0.310
2020/01/31 15:00:49.1	359.190	0.550	-1.020	-0.340
2020/01/31 15:00:49.2	359.200	0.510	-0.950	-0.370
2020/01/31 15:00:49.3	359.210	0.470	-0.890	-0.410
2020/01/31 15:00:49.4	359.220	0.420	-0.820	-0.450
2020/01/31 15:00:49.5	359.240	0.370	-0.760	-0.490
2020/01/31 15:00:49.6	359.240	0.310	-0.690	-0.530
2020/01/31 15:00:49.7	359.260	0.250	-0.620	-0.580
2020/01/31 15:00:49.8	359.270	0.190	-0.560	-0.620
2020/01/31 15:00:49.9	359.280	0.120	-0.490	-0.660
2020/01/31 15:00:50.0	359.300	0.050	-0.420	-0.710
2020/01/31 15:00:50.1	359.310	-0.030	-0.350	-0.750
2020/01/31 15:00:50.2	359.330	-0.100	-0.290	-0.790
2020/01/31 15:00:50.3	359.350	-0.180	-0.230	-0.840
2020/01/31 15:00:50.4	359.370	-0.260	-0.170	-0.880
2020/01/31 15:00:50.5	359.390	-0.340	-0.110	-0.920
2020/01/31 15:00:50.6	359.410	-0.410	-0.050	-0.970
2020/01/31 15:00:50.7	359.430	-0.490	0.000	-1.010
2020/01/31 15:00:50.8	359.460	-0.560	0.050	-1.060
2020/01/31 15:00:50.9	359.480	-0.630	0.100	-1.100
2020/01/31 15:00:51.0	359.510	-0.690	0.130	-1.140
2020/01/31 15:00:51.1	359.550	-0.750	0.170	-1.180
2020/01/31 15:00:51.2	359.580	-0.810	0.200	-1.220
2020/01/31 15:00:51.3	359.610	-0.860	0.220	-1.250
2020/01/31 15:00:51.4	359.650	-0.900	0.240	-1.290
2020/01/31 15:00:51.5	359.690	-0.940	0.260	-1.320
2020/01/31 15:00:51.6	359.720	-0.970	0.270	-1.350
2020/01/31 15:00:51.7	359.760	-1.000	0.270	-1.380
2020/01/31 15:00:51.8	359.790	-1.020	0.280	-1.400
2020/01/31 15:00:51.9	359.830	-1.030	0.280	-1.420
2020/01/31 15:00:52.0	359.860	-1.040	0.280	-1.430
2020/01/31 15:00:52.1	359.890	-1.040	0.270	-1.430
2020/01/31 15:00:52.2	359.910	-1.030	0.260	-1.430
2020/01/31 15:00:52.3	359.940	-1.020	0.260	-1.430
2020/01/31 15:00:52.4	359.960	-1.000	0.250	-1.410
2020/01/31 15:00:52.5	359.970	-0.980	0.230	-1.400
2020/01/31 15:00:52.6	359.990	-0.950	0.230	-1.370
2020/01/31 15:00:52.7	0.000	-0.920	0.210	-1.340
2020/01/31 15:00:52.8	0.010	-0.880	0.200	-1.300
2020/01/31 15:00:52.9	0.010	-0.840	0.190	-1.270
2020/01/31 15:00:53.0	0.010	-0.800	0.170	-1.230
2020/01/31 15:00:53.1	0.010	-0.750	0.160	-1.180
2020/01/31 15:00:53.2	0.010	-0.700	0.150	-1.140
2020/01/31 15:00:53.3	0.000	-0.650	0.140	-1.090
2020/01/31 15:00:53.4	359.990	-0.600	0.120	-1.040
2020/01/31 15:00:53.5	359.980	-0.540	0.110	-0.990
2020/01/31 15:00:53.6	359.970	-0.490	0.100	-0.940
2020/01/31 15:00:53.7	359.960	-0.430	0.090	-0.880
2020/01/31 15:00:53.8	359.950	-0.380	0.070	-0.830
2020/01/31 15:00:53.9	359.930	-0.320	0.060	-0.770
2020/01/31 15:00:54.0	359.910	-0.270	0.050	-0.720
2020/01/31 15:00:54.1	359.890	-0.210	0.040	-0.660
2020/01/31 15:00:54.2	359.870	-0.160	0.030	-0.600
2020/01/31 15:00:54.3	359.840	-0.110	0.020	-0.540
2020/01/31 15:00:54.4	359.820	-0.070	0.010	-0.470
2020/01/31 15:00:54.5	359.790	-0.020	0.000	-0.410
2020/01/31 15:00:54.6	359.770	0.020	-0.000	-0.350
2020/01/31 15:00:54.7	359.730	0.060	-0.010	-0.280
2020/01/31 15:00:54.8	359.700	0.100	-0.010	-0.220
2020/01/31 15:00:54.9	359.670	0.130	-0.020	-0.150
2020/01/31 15:00:55.0	359.640	0.170	-0.020	-0.090
2020/01/31 15:00:55.1	359.610	0.200	-0.030	-0.030
2020/01/31 15:00:55.2	359.580	0.220	-0.030	0.030
2020/01/31 15:00:55.3	359.550	0.250	-0.030	0.080
2020/01/31 15:00:55.4	359.520	0.270	-0.040	0.140
2020/01/31 15:00:55.5	359.500	0.290	-0.040	0.190
2020/01/31 15:00:55.6	359.470	0.310	-0.040	0.240
2020/01/31 15:00:55.7	359.440	0.330	-0.050	0.280
2020/01/31 15:00:55.8	359.420	0.350	-0.050	0.320
2020/01/31 15:00:55.9	359.390	0.370	-0.050	0.360
2020/01/31 15:00:56.0	359.370	0.380	-0.060	0.400
2020/01/31 15:00:56.1	359.340	0.400	-0.060	0.430
2020/01/31 15:00:56.2	359.320	0.410	-0.070	0.460
2020/01/31 15:00:56.3	359.290	0.430	-0.070	0.480
2020/01/31 15:00:56.4	359.270	0.440	-0.080	0.510
2020/01/31 15:00:56.5	359.250	0.460	-0.090	0.530
2020/01/31 15:00:56.6	359.220	0.470	-0.090	0.550
2020/01/31 15:00:56.7	359.190	0.490	-0.100	0.570
2020/01/31 15:00:56.8	359.160	0.510	-0.110	0.590
2020/01/31 15:00:56.9	359.140	0.530	-0.120	0.600
2020/01/31 15:00:57.0	359.110	0.550	-0.130	0.620
2020/01/31 15:00:57.1	359.080	0.570	-0.140	0.630
2020/01/31 15:00:57.2	359.050	0.590	-0.150	0.640
2020/01/31 15:00:57.3	359.020	0.610	-0.170	0.650
2020/01/31 15:00:57.4	358.990	0.630	-0.180	0.650
2020/01/31 15:00:57.5	358.960	0.650	-0.200	0.660
2020/01/31 15:00:57.6	358.930	0.670	-0.210	0.650
2020/01/31 15:00:57.7	358.890	0.690	-0.230	0.650
2020/01/31 15:00:57.8	358.860	0.710	-0.250	0.640
2020/01/31 15:00:57.9	358.840	0.730	-0.280	0.630
2020/01/31 15:00:58.0	358.810	0.750	-0.300	0.610
2020/01/31 15:00:58.1	358.790	0.760	-0.330	0.590
2020/01/31 15:00:58.2	358.780	0.780	-0.360	0.560
2020/01/31 15:00:58.3	358.760	0.790	-0.390	0.530
2020/01/31 15:00:58.4	358.750	0.800	-0.420	0.490
2020/01/31 15:00:58.5	358.740	0.810	-0.450	0.450
2020/01/31 15:00:58.6	358.740	0.810	-0.490	0.400
2020/01/31 15:00:58.7	358.730	0.820	-0.530	0.350
2020/01/31 15:00:58.8	358.740	0.820	-0.570	0.290
2020/01/31 15:00:58.9	358.740	0.810	-0.610	0.230
2020/01/31 15:00:59.0	358.760	0.810	-0.650	0.170
2020/01/31 15:00:59.1	358.770	0.800	-0.690	0.110
2020/01/31 15:00:59.2	358.790	0.780	-0.730	0.040
2020/01/31 15:00:59.3	358.810	0.770	-0.770	-0.020
2020/01/31 15:00:59.4	358.840	0.750	-0.810	-0.090
2020/01/31 15:00:59.5	358.870	0.730	-0.850	-0.160
2020/01/31 15:00:59.6	358.900	0.700	-0.880	-0.240
2020/01/31 15:00:59.7	358.940	0.670	-0.910	-0.310
2020/01/31 15:00:59.8	358.980	0.640	-0.940	-0.380
2020/01/31 15:00:59.9	359.020	0.600	-0.960	-0.450
2020/01/31 15:01:00.0	359.070	0.560	-0.980	-0.520
2020/01/31 15:01:00.1	359.120	0.520	-1.000	-0.590
2020/01/31 15:01:00.2	359.170	0.480	-1.010	-0.660
2020/01/31 15:01:00.3	359.220	0.430	-1.010	-0.730
2020/01/31 15:01:00.4	359.280	0.380	-1.010	-0.800
2020/01/31 15:01:00.5	359.340	0.330	-1.000	-0.870
2020/01/31 15:01:00.6	359.400	0.270	-0.990	-0.930
2020/01/31 15:01:00.7	359.450	0.210	-0.960	-0.990
2020/01/31 15:01:00.8	359.510	0.150	-0.940	-1.060
2020/01/31 15:01:00.9	359.570	0.090	-0.910	-1.110
2020/01/31 15:01:01.0	359.620	0.030	-0.870	-1.170
2020/01/31 15:01:01.1	359.680	-0.040	-0.820	-1.220
2020/01/31 15:01:01.2	359.730	-0.100	-0.780	-1.270
2020/01/31 15:01:01.3	359.780	-0.170	-0.720	-1.320
2020/01/31 15:01:01.4	359.830	-0.230	-0.660	-1.360
2020/01/31 15:01:01.5	359.880	-0.300	-0.600	-1.400
2020/01/31 15:01:01.6	359.930	-0.360	-0.540	-1.440
2020/01/31 15:01:01.7	359.970	-0.420	-0.470	-1.470
2020/01/31 15:01:01.8	0.020	-0.490	-0.400	-1.500
2020/01/31 15:01:01.9	0.050	-0.550	-0.330	-1.520
2020/01/31 15:01:02.0	0.090	-0.600	-0.260	-1.540
2020/01/31 15:01:02.1	0.130	-0.660	-0.190	-1.550
2020/01/31 15:01:02.2	0.160	-0.710	-0.120	-1.560
2020/01/31 15:01:02.3	0.190	-0.760	-0.050	-1.570
2020/01/31 15:01:02.4	0.220	-0.810	0.010	-1.570
2020/01/31 15:01:02.5	0.250	-0.850	0.080	-1.570
2020/01/31 15:01:02.6	0.270	-0.890	0.140	-1.560
2020/01/31 15:01:02.7	0.300	-0.920	0.190	-1.550
2020/01/31 15:01:02.8	0.320	-0.960	0.240	-1.540
2020/01/31 15:01:02.9	0.330	-0.980	0.290	-1.530
2020/01/31 15:01:03.0	0.350	-1.010	0.330	-1.510
2020/01/31 15:01:03.1	0.360	-1.020	0.370	-1.490
2020/01/31 15:01:03.2	0.370	-1.040	0.400	-1.470
2020/01/31 15:01:03.3	0.370	-1.050	0.420	-1.450
2020/01/31 15:01:03.4	0.380	-1.050	0.440	-1.420
2020/01/31 15:01:03.5	0.380	-1.060	0.460	-1.390
2020/01/31 15:01:03.6	0.380	-1.050	0.460	-1.370
2020/01/31 15:01:03.7	0.380	-1.040	0.470	-1.330
2020/01/31 15:01:03.8	0.370	-1.030	0.460	-1.300
2020/01/31 15:01:03.9	0.360	-1.020	0.450	-1.270
2020/01/31 15:01:04.0	0.350	-1.000	0.440	-1.240
2020/01/31 15:01:04.1	0.340	-0.970	0.420	-1.210
2020/01/31 15:01:04.2	0.330	-0.940	0.390	-1.170
2020/01/31 15:01:04.3	0.320	-0.910	0.360	-1.140
2020/01/31 15:01:04.4	0.300	-0.870	0.330	-1.100
2020/01/31 15:01:04.5	0.280	-0.830	0.290	-1.060
2020/01/31 15:01:04.6	0.260	-0.790	0.240	-1.020
2020/01/31 15:01:04.7	0.240	-0.740	0.200	-0.980
2020/01/31 15:01:04.8	0.220	-0.690	0.150	-0.940
2020/01/31 15:01:04.9	0.190	-0.640	0.100	-0.890
2020/01/31 15:01:05.0	0.160	-0.580	0.050	-0.850
2020/01/31 15:01:05.1	0.130	-0.520	-0.000	-0.800
2020/01/31 15:01:05.2	0.100	-0.460	-0.060	-0.750
2020/01/31 15:01:05.3	0.060	-0.400	-0.110	-0.690
2020/01/31 15:01:05.4	0.030	-0.330	-0.160	-0.640
2020/01/31 15:01:05.5	359.990	-0.270	-0.210	-0.580
2020/01/31 15:01:05.6	359.950	-0.200	-0.260	-0.530
2020/01/31 15:01:05.7	359.920	-0.140	-0.320	-0.470
2020/01/31 15:01:05.8	359.870	-0.070	-0.360	-0.410
2020/01/31 15:01:05.9	359.830	-0.000	-0.400	-0.350
2020/01/31 15:01:06.0	359.790	0.070	-0.440	-0.300
2020/01/31 15:01:06.1	359.750	0.130	-0.470	-0.240
2020/01/31 15:01:06.2	359.710	0.200	-0.500	-0.180
2020/01/31 15:01:06.3	359.660	0.260	-0.530	-0.130
2020/01/31 15:01:06.4	359.620	0.320	-0.550	-0.080
2020/01/31 15:01:06.5	359.590	0.380	-0.570	-0.030
2020/01/31 15:01:06.6	359.540	0.440	-0.580	0.020
2020/01/31 15:01:06.7	359.510	0.500	-0.590	0.060
2020/01/31 15:01:06.8	359.480	0.550	-0.590	0.100
2020/01/31 15:01:06.9	359.450	0.600	-0.590	0.140
2020/01/31 15:01:07.0	359.430	0.640	-0.590	0.170
2020/01/31 15:01:07.1	359.410	0.680	-0.590	0.200
2020/01/31 15:01:07.2	359.390	0.720	-0.580	0.230
2020/01/31 15:01:07.3	359.380	0.750	-0.570	0.250
2020/01/31 15:01:07.4	359.370	0.780	-0.560	0.270
2020/01/31 15:01:07.5	359.360	0.800	-0.540	0.280
2020/01/31 15:01:07.6	359.360	0.810	-0.520	0.290
2020/01/31 15:01:07.7	359.350	0.830	-0.500	0.300
2020/01/31 15:01:07.8	359.350	0.830	-0.470	0.300
2020/01/31 15:01:07.9	359.350	0.830	-0.440	0.300
2020/01/31 15:01:08.0	359.360	0.830	-0.410	0.300
2020/01/31 15:01:08.1	359.370	0.820	-0.370	0.290
2020/01/31 15:01:08.2	359.380	0.800	-0.340	0.280
2020/01/31 15:01:08.3	359.390	0.790	-0.300	0.270
2020/01/31 15:01:08.4	359.400	0.760	-0.260	0.260
2020/01/31 15:01:08.5	359.410	0.730	-0.210	0.240
2020/01/31 15:01:08.6	359.430	0.700	-0.170	0.230
2020/01/31 15:01:08.7	359.450	0.670	-0.130	0.210
2020/01/31 15:01:08.8	359.470	0.630	-0.080	0.190
2020/01/31 15:01:08.9	359.490	0.590	-0.040	0.170
2020/01/31 15:01:09.0	359.510	0.540	0.010	0.150
2020/01/31 15:01:09.1	359.530	0.500	0.050	0.140
2020/01/31 15:01:09.2	359.550	0.450	0.090	0.120
2020/01/31 15:01:09.3	359.570	0.400	0.130	0.100
2020/01/31 15:01:09.4	359.590	0.360	0.170	0.090
2020/01/31 15:01:09.5	359.600	0.310	0.210	0.080
2020/01/31 15:01:09.6	359.630	0.260	0.250	0.060
2020/01/31 15:01:09.7	359.640	0.220	0.280	0.050
2020/01/31 15:01:09.8	359.660	0.170	0.300	0.050
2020/01/31 15:01:09.9	359.680	0.130	0.330	0.040
2020/01/31 15:01:10.0	359.690	0.090	0.350	0.030
2020/01/31 15:01:10.1	359.700	0.050	0.360	0.030
2020/01/31 15:01:10.2	359.720	0.020	0.370	0.030
2020/01/31 15:01:10.3	359.730	-0.010	0.370	0.020
2020/01/31 15:01:10.4	359.740	-0.040	0.370	0.020
2020/01/31 15:01:10.5	359.750	-0.070	0.360	0.020
2020/01/31 15:01:10.6	359.760	-0.090	0.340	0.010
2020/01/31 15:01:10.7	359.780	-0.110	0.320	0.000
2020/01/31 15:01:10.8	359.790	-0.130	0.290	-0.000
2020/01/31 15:01:10.9	359.800	-0.140	0.260	-0.020
2020/01/31 15:01:11.0	359.800	-0.150	0.220	-0.030
2020/01/31 15:01:11.1	359.810	-0.160	0.170	-0.050
2020/01/31 15:01:11.2	359.820	-0.160	0.120	-0.070
2020/01/31 15:01:11.3	359.820	-0.160	0.060	-0.090
2020/01/31 15:01:11.4	359.830	-0.150	-0.000	-0.120
2020/01/31 15:01:11.5	359.840	-0.150	-0.070	-0.150
2020/01/31 15:01:11.6	359.840	-0.140	-0.140	-0.190
2020/01/31 15:01:11.7	359.850	-0.120	-0.210	-0.230
2020/01/31 15:01:11.8	359.860	-0.110	-0.290	-0.280
2020/01/31 15:01:11.9	359.870	-0.090	-0.370	-0.320
2020/01/31 15:01:12.0	359.870	-0.080	-0.450	-0.370
2020/01/31 15:01:12.1	359.880	-0.060	-0.530	-0.420
2020/01/31 15:01:12.2	359.880	-0.040	-0.610	-0.470
2020/01/31 15:01:12.3	359.890	-0.020	-0.690	-0.530
2020/01/31 15:01:12.4	359.900	0.000	-0.770	-0.580
2020/01/31 15:01:12.5	359.900	0.020	-0.850	-0.640
2020/01/31 15:01:12.6	359.910	0.040	-0.920	-0.700
2020/01/31 15:01:12.7	359.920	0.060	-0.990	-0.760
2020/01/31 15:01:12.8	359.930	0.070	-1.060	-0.820
2020/01/31 15:01:12.9	359.940	0.090	-1.120	-0.880
2020/01/31 15:01:13.0	359.950	0.100	-1.180	-0.940
2020/01/31 15:01:13.1	359.960	0.110	-1.230	-1.010
2020/01/31 15:01:13.2	359.970	0.120	-1.270	-1.070
2020/01/31 15:01:13.3	359.990	0.130	-1.310	-1.130
2020/01/31 15:01:13.4	0.000	0.130	-1.340	-1.190
2020/01/31 15:01:13.5	0.020	0.130	-1.360	-1.250
2020/01/31 15:01:13.6	0.040	0.130	-1.370	-1.300
2020/01/31 15:01:13.7	0.060	0.130	-1.370	-1.360
2020/01/31 15:01:13.8	0.080	0.130	-1.370	-1.410
2020/01/31 15:01:13.9	0.110	0.120	-1.360	-1.460
2020/01/31 15:01:14.0	0.130	0.110	-1.330	-1.510
2020/01/31 15:01:14.1	0.160	0.090	-1.300	-1.560
2020/01/31 15:01:14.2	0.180	0.080	-1.270	-1.610
2020/01/31 15:01:14.3	0.210	0.060	-1.220	-1.650
2020/01/31 15:01:14.4	0.240	0.040	-1.160	-1.680
2020/01/31 15:01:14.5	0.270	0.020	-1.100	-1.720
2020/01/31 15:01:14.6	0.300	-0.000	-1.030	-1.750
2020/01/31 15:01:14.7	0.330	-0.030	-0.960	-1.780
2020/01/31 15:01:14.8	0.350	-0.050	-0.880	-1.800
2020/01/31 15:01:14.9	0.380	-0.080	-0.790	-1.810
2020/01/31 15:01:15.0	0.410	-0.110	-0.700	-1.820
2020/01/31 15:01:15.1	0.440	-0.140	-0.600	-1.830
2020/01/31 15:01:15.2	0.460	-0.170	-0.510	-1.820
2020/01/31 15:01:15.3	0.480	-0.200	-0.400	-1.810
2020/01/31 15:01:15.4	0.500	-0.240	-0.300	-1.800
2020/01/31 15:01:15.5	0.520	-0.270	-0.190	-1.770
2020/01/31 15:01:15.6	0.540	-0.300	-0.080	-1.740
2020/01/31 15:01:15.7	0.550	-0.330	0.030	-1.710
2020/01/31 15:01:15.8	0.560	-0.370	0.130	-1.670
2020/01/31 15:01:15.9	0.570	-0.400	0.240	-1.630
2020/01/31 15:01:16.0	0.570	-0.430	0.340	-1.580
2020/01/31 15:01:16.1	0.570	-0.460	0.440	-1.520
2020/01/31 15:01:16.2	0.570	-0.480	0.540	-1.460
2020/01/31 15:01:16.3	0.560	-0.510	0.630	-1.400
2020/01/31 15:01:16.4	0.560	-0.530	0.720	-1.340
2020/01/31 15:01:16.5	0.550	-0.550	0.790	-1.270
2020/01/31 15:01:16.6	0.540	-0.570	0.860	-1.200
2020/01/31 15:01:16.7	0.530	-0.580	0.930	-1.130
2020/01/31 15:01:16.8	0.510	-0.590	0.980	-1.060
2020/01/31 15:01:16.9	0.500	-0.600	1.020	-0.990
2020/01/31 15:01:17.0	0.480	-0.600	1.050	-0.920
2020/01/31 15:01:17.1	0.460	-0.600	1.080	-0.840
2020/01/31 15:01:17.2	0.450	-0.590	1.090	-0.770
2020/01/31 15:01:17.3	0.430	-0.580	1.090	-0.700
2020/01/31 15:01:17.4	0.410	-0.560	1.080	-0.630
2020/01/31 15:01:17.5	0.390	-0.540	1.060	-0.560
2020/01/31 15:01:17.6	0.380	-0.520	1.030	-0.490
2020/01/31 15:01:17.7	0.370	-0.490	0.990	-0.430
2020/01/31 15:01:17.8	0.350	-0.450	0.940	-0.360
2020/01/31 15:01:17.9	0.340	-0.410	0.880	-0.300
2020/01/31 15:01:18.0	0.320	-0.370	0.820	-0.250
2020/01/31 15:01:18.1	0.310	-0.320	0.740	-0.190
2020/01/31 15:01:18.2	0.300	-0.270	0.660	-0.140
2020/01/31 15:01:18.3	0.290	-0.210	0.580	-0.090
2020/01/31 15:01:18.4	0.280	-0.150	0.490	-0.050
2020/01/31 15:01:18.5	0.270	-0.090	0.390	-0.000
2020/01/31 15:01:18.6	0.260	-0.030	0.290	0.040
2020/01/31 15:01:18.7	0.260	0.040	0.190	0.080
2020/01/31 15:01:18.8	0.250	0.100	0.090	0.110
2020/01/31 15:01:18.9	0.240	0.170	-0.010	0.150
2020/01/31 15:01:19.0	0.240	0.240	-0.110	0.180
2020/01/31 15:01:19.1	0.230	0.310	-0.210	0.210
2020/01/31 15:01:19.2	0.230	0.370	-0.300	0.240
2020/01/31 15:01:19.3	0.220	0.440	-0.390	0.260
2020/01/31 15:01:19.4	0.220	0.500	-0.480	0.280
2020/01/31 15:01:19.5	0.210	0.560	-0.560	0.300
2020/01/31 15:01:19.6	0.210	0.620	-0.630	0.320
2020/01/31 15:01:19.7	0.210	0.670	-0.700	0.340
2020/01/31 15:01:19.8	0.200	0.710	-0.760	0.350
2020/01/31 15:01:19.9	0.200	0.760	-0.810	0.360
2020/01/31 15:01:20.0	0.190	0.790	-0.860	0.370
2020/01/31 15:01:20.1	0.180	0.820	-0.890	0.370
2020/01/31 15:01:20.2	0.170	0.850	-0.920	0.380
2020/01/31 15:01:20.3	0.170	0.870	-0.940	0.380
2020/01/31 15:01:20.4	0.160	0.880	-0.960	0.380
2020/01/31 15:01:20.5	0.150	0.880	-0.960	0.370
2020/01/31 15:01:20.6	0.150	0.880	-0.970	0.360
2020/01/31 15:01:20.7	0.150	0.870	-0.960	0.350
2020/01/31 15:01:20.8	0.140	0.860	-0.940	0.340
2020/01/31 15:01:20.9	0.140	0.840	-0.920	0.330
2020/01/31 15:01:21.0	0.140	0.810	-0.900	0.310
2020/01/31 15:01:21.1	0.130	0.780	-0.870	0.280
2020/01/31 15:01:21.2	0.140	0.740	-0.830	0.260
2020/01/31 15:01:21.3	0.140	0.690	-0.800	0.220
2020/01/31 15:01:21.4	0.140	0.650	-0.760	0.190
2020/01/31 15:01:21.5	0.140	0.590	-0.710	0.150
2020/01/31 15:01:21.6	0.150	0.540	-0.670	0.100
2020/01/31 15:01:21.7	0.150	0.480	-0.620	0.050
2020/01/31 15:01:21.8	0.160	0.420	-0.580	0.000
2020/01/31 15:01:21.9	0.180	0.360	-0.530	-0.050
2020/01/31 15:01:22.0	0.190	0.290	-0.490	-0.110
2020/01/31 15:01:22.1	0.210	0.230	-0.450	-0.180
2020/01/31 15:01:22.2	0.220	0.160	-0.410	-0.240
2020/01/31 15:01:22.3	0.240	0.100	-0.370	-0.300
2020/01/31 15:01:22.4	0.270	0.040	-0.330	-0.370
2020/01/31 15:01:22.5	0.290	-0.020	-0.300	-0.440
2020/01/31 15:01:22.6	0.310	-0.080	-0.270	-0.500
2020/01/31 15:01:22.7	0.340	-0.140	-0.240	-0.570
2020/01/31 15:01:22.8	0.360	-0.190	-0.220	-0.630
2020/01/31 15:01:22.9	0.390	-0.240	-0.190	-0.700
2020/01/31 15:01:23.0	0.410	-0.280	-0.180	-0.760
2020/01/31 15:01:23.1	0.440	-0.320	-0.160	-0.820
2020/01/31 15:01:23.2	0.470	-0.360	-0.150	-0.870
2020/01/31 15:01:23.3	0.500	-0.390	-0.150	-0.920
2020/01/31 15:01:23.4	0.530	-0.410	-0.140	-0.980
2020/01/31 15:01:23.5	0.550	-0.440	-0.150	-1.030
2020/01/31 15:01:23.6	0.590	-0.450	-0.150	-1.080
2020/01/31 15:01:23.7	0.620	-0.470	-0.160	-1.130
2020/01/31 15:01:23.8	0.650	-0.480	-0.180	-1.170
2020/01/31 15:01:23.9	0.680	-0.480	-0.200	-1.210
2020/01/31 15:01:24.0	0.720	-0.480	-0.220	-1.260
2020/01/31 15:01:24.1	0.750	-0.480	-0.240	-1.300
2020/01/31 15:01:24.2	0.790	-0.470	-0.270	-1.340
2020/01/31 15:01:24.3	0.830	-0.470	-0.300	-1.380
2020/01/31 15:01:24.4	0.860	-0.450	-0.330	-1.420
2020/01/31 15:01:24.5	0.900	-0.440	-0.360	-1.460
2020/01/31 15:01:24.6	0.950	-0.420	-0.400	-1.500
2020/01/31 15:01:24.7	0.980	-0.410	-0.430	-1.540
2020/01/31 15:01:24.8	1.020	-0.380	-0.470	-1.570
2020/01/31 15:01:24.9	1.070	-0.360	-0.510	-1.600
2020/01/31 15:01:25.0	1.120	-0.340	-0.540	-1.640
2020/01/31 15:01:25.1	1.160	-0.320	-0.580	-1.660
2020/01/31 15:01:25.2	1.210	-0.290	-0.610	-1.690
2020/01/31 15:01:25.3	1.260	-0.270	-0.640	-1.710
2020/01/31 15:01:25.4	1.310	-0.240	-0.670	-1.730
2020/01/31 15:01:25.5	1.360	-0.220	-0.690	-1.740
2020/01/31 15:01:25.6	1.400	-0.190	-0.710	-1.750
2020/01/31 15:01:25.7	1.460	-0.170	-0.730	-1.750
2020/01/31 15:01:25.8	1.500	-0.150	-0.740	-1.750
2020/01/31 15:01:25.9	1.540	-0.130	-0.740	-1.740
2020/01/31 15:01:26.0	1.580	-0.110	-0.740	-1.720
2020/01/31 15:01:26.1	1.610	-0.090	-0.730	-1.700
2020/01/31 15:01:26.2	1.630	-0.070	-0.720	-1.680
2020/01/31 15:01:26.3	1.650	-0.060	-0.690	-1.640
2020/01/31 15:01:26.4	1.670	-0.050	-0.660	-1.610
2020/01/31 15:01:26.5	1.680	-0.040	-0.630	-1.560
2020/01/31 15:01:26.6	1.690	-0.030	-0.590	-1.510
2020/01/31 15:01:26.7	1.690	-0.020	-0.540	-1.460
2020/01/31 15:01:26.8	1.690	-0.020	-0.490	-1.410
2020/01/31 15:01:26.9	1.690	-0.010	-0.430	-1.360
2020/01/31 15:01:27.0	1.680	-0.010	-0.370	-1.300
2020/01/31 15:01:27.1	1.670	-0.010	-0.300	-1.240
2020/01/31 15:01:27.2	1.650	-0.010	-0.230	-1.180
2020/01/31 15:01:27.3	1.630	-0.020	-0.160	-1.120
2020/01/31 15:01:27.4	1.610	-0.020	-0.080	-1.050
2020/01/31 15:01:27.5	1.580	-0.020	-0.010	-0.990
2020/01/31 15:01:27.6	1.550	-0.020	0.070	-0.920
2020/01/31 15:01:27.7	1.530	-0.030	0.140	-0.850
2020/01/31 15:01:27.8	1.490	-0.030	0.220	-0.780
2020/01/31 15:01:27.9	1.460	-0.030	0.290	-0.710
2020/01/31 15:01:28.0	1.420	-0.030	0.360	-0.640
2020/01/31 15:01:28.1	1.390	-0.030	0.420	-0.570
2020/01/31 15:01:28.2	1.350	-0.030	0.490	-0.500
2020/01/31 15:01:28.3	1.320	-0.020	0.540	-0.430
2020/01/31 15:01:28.4	1.280	-0.020	0.590	-0.360
2020/01/31 15:01:28.5	1.250	-0.010	0.640	-0.290
2020/01/31 15:01:28.6	1.210	0.000	0.670	-0.230
2020/01/31 15:01:28.7	1.180	0.010	0.700	-0.170
2020/01/31 15:01:28.8	1.150	0.030	0.730	-0.110
2020/01/31 15:01:28.9	1.120	0.040	0.740	-0.060
2020/01/31 15:01:29.0	1.090	0.060	0.750	-0.000
2020/01/31 15:01:29.1	1.060	0.080	0.750	0.040
2020/01/31 15:01:29.2	1.030	0.100	0.750	0.080
2020/01/31 15:01:29.3	1.010	0.110	0.730	0.120
2020/01/31 15:01:29.4	0.990	0.130	0.710	0.140
2020/01/31 15:01:29.5	0.970	0.150	0.690	0.170
2020/01/31 15:01:29.6	0.940	0.170	0.650	0.190
2020/01/31 15:01:29.7	0.920	0.190	0.610	0.200
2020/01/31 15:01:29.8	0.910	0.210	0.570	0.200
2020/01/31 15:01:29.9	0.900	0.230	0.520	0.190
2020/01/31 15:01:30.0	0.880	0.250	0.460	0.180
2020/01/31 15:01:30.1	0.870	0.260	0.400	0.170
2020/01/31 15:01:30.2	0.870	0.270	0.340	0.140
2020/01/31 15:01:30.3	0.860	0.280	0.270	0.120
2020/01/31 15:01:30.4	0.850	0.290	0.200	0.080
2020/01/31 15:01:30.5	0.850	0.300	0.130	0.050
2020/01/31 15:01:30.6	0.850	0.310	0.070	0.000
2020/01/31 15:01:30.7	0.840	0.310	-0.010	-0.040
2020/01/31 15:01:30.8	0.840	0.310	-0.080	-0.090
2020/01/31 15:01:30.9	0.840	0.310	-0.150	-0.140
2020/01/31 15:01:31.0	0.840	0.310	-0.220	-0.190
2020/01/31 15:01:31.1	0.830	0.300	-0.290	-0.240
2020/01/31 15:01:31.2	0.830	0.290	-0.360	-0.290
2020/01/31 15:01:31.3	0.830	0.280	-0.430	-0.350
2020/01/31 15:01:31.4	0.830	0.270	-0.490	-0.400
2020/01/31 15:01:31.5	0.830	0.260	-0.550	-0.450
2020/01/31 15:01:31.6	0.830	0.240	-0.610	-0.500
2020/01/31 15:01:31.7	0.830	0.230	-0.660	-0.550
2020/01/31 15:01:31.8	0.840	0.210	-0.700	-0.600
2020/01/31 15:01:31.9	0.840	0.190	-0.750	-0.650
2020/01/31 15:01:32.0	0.840	0.170	-0.790	-0.690
2020/01/31 15:01:32.1	0.850	0.150	-0.820	-0.740
2020/01/31 15:01:32.2	0.850	0.130	-0.850	-0.780
2020/01/31 15:01:32.3	0.860	0.110	-0.880	-0.820
2020/01/31 15:01:32.4	0.860	0.090	-0.910	-0.870
2020/01/31 15:01:32.5	0.870	0.080	-0.930	-0.910
2020/01/31 15:01:32.6	0.880	0.060	-0.940	-0.940
2020/01/31 15:01:32.7	0.890	0.040	-0.960	-0.980
2020/01/31 15:01:32.8	0.910	0.030	-0.970	-1.020
2020/01/31 15:01:32.9	0.920	0.020	-0.980	-1.050
2020/01/31 15:01:33.0	0.940	0.000	-0.990	-1.080
2020/01/31 15:01:33.1	0.950	-0.000	-0.990	-1.100
2020/01/31 15:01:33.2	0.970	-0.010	-0.990	-1.130
2020/01/31 15:01:33.3	0.990	-0.010	-0.990	-1.150
2020/01/31 15:01:33.4	1.020	-0.010	-0.990	-1.170
2020/01/31 15:01:33.5	1.040	-0.010	-0.980	-1.180
2020/01/31 15:01:33.6	1.060	-0.010	-0.970	-1.190
2020/01/31 15:01:33.7	1.090	-0.000	-0.950	-1.200
2020/01/31 15:01:33.8	1.110	0.010	-0.940	-1.210
2020/01/31 15:01:33.9	1.140	0.020	-0.930	-1.210
2020/01/31 15:01:34.0	1.170	0.030	-0.910	-1.210
2020/01/31 15:01:34.1	1.200	0.040	-0.890	-1.200
2020/01/31 15:01:34.2	1.220	0.060	-0.870	-1.190
2020/01/31 15:01:34.3	1.250	0.070	-0.840	-1.170
2020/01/31 15:01:34.4	1.280	0.090	-0.820	-1.160
2020/01/31 15:01:34.5	1.300	0.100	-0.790	-1.140
2020/01/31 15:01:34.6	1.320	0.120	-0.760	-1.110
2020/01/31 15:01:34.7	1.350	0.130	-0.730	-1.090
2020/01/31 15:01:34.8	1.370	0.150	-0.690	-1.060
2020/01/31 15:01:34.9	1.390	0.160	-0.650	-1.030
2020/01/31 15:01:35.0	1.400	0.170	-0.620	-1.000
2020/01/31 15:01:35.1	1.420	0.180	-0.580	-0.980
2020/01/31 15:01:35.2	1.440	0.190	-0.540	-0.950
2020/01/31 15:01:35.3	1.460	0.190	-0.500	-0.920
2020/01/31 15:01:35.4	1.480	0.190	-0.460	-0.890
2020/01/31 15:01:35.5	1.490	0.200	-0.430	-0.860
2020/01/31 15:01:35.6	1.510	0.190	-0.390	-0.840
2020/01/31 15:01:35.7	1.530	0.190	-0.350	-0.810
2020/01/31 15:01:35.8	1.550	0.180	-0.310	-0.790
2020/01/31 15:01:35.9	1.570	0.170	-0.280	-0.760
2020/01/31 15:01:36.0	1.590	0.160	-0.250	-0.740
2020/01/31 15:01:36.1	1.610	0.150	-0.210	-0.730
2020/01/31 15:01:36.2	1.630	0.130	-0.180	-0.710
2020/01/31 15:01:36.3	1.640	0.110	-0.150	-0.700
2020/01/31 15:01:36.4	1.660	0.090	-0.130	-0.690
2020/01/31 15:01:36.5	1.680	0.070	-0.100	-0.680
2020/01/31 15:01:36.6	1.700	0.040	-0.080	-0.670
2020/01/31 15:01:36.7	1.710	0.020	-0.060	-0.670
2020/01/31 15:01:36.8	1.730	-0.010	-0.040	-0.670
2020/01/31 15:01:36.9	1.740	-0.040	-0.020	-0.670
2020/01/31 15:01:37.0	1.760	-0.080	0.000	-0.670
2020/01/31 15:01:37.1	1.770	-0.110	0.020	-0.670
2020/01/31 15:01:37.2	1.790	-0.150	0.030	-0.680
2020/01/31 15:01:37.3	1.800	-0.180	0.050	-0.680
2020/01/31 15:01:37.4	1.810	-0.220	0.060	-0.690
2020/01/31 15:01:37.5	1.810	-0.250	0.080	-0.690
2020/01/31 15:01:37.6	1.820	-0.290	0.100	-0.700
2020/01/31 15:01:37.7	1.820	-0.330	0.120	-0.710
2020/01/31 15:01:37.8	1.820	-0.360	0.130	-0.720
2020/01/31 15:01:37.9	1.810	-0.400	0.150	-0.720
2020/01/31 15:01:38.0	1.810	-0.430	0.170	-0.730
2020/01/31 15:01:38.1	1.800	-0.470	0.190	-0.730
2020/01/31 15:01:38.2	1.780	-0.500	0.210	-0.730
2020/01/31 15:01:38.3	1.770	-0.520	0.230	-0.730
2020/01/31 15:01:38.4	1.750	-0.550	0.250	-0.730
2020/01/31 15:01:38.5	1.730	-0.580	0.270	-0.720
2020/01/31 15:01:38.6	1.700	-0.600	0.290	-0.710
2020/01/31 15:01:38.7	1.680	-0.610	0.310	-0.710
2020/01/31 15:01:38.8	1.650	-0.630	0.330	-0.690
2020/01/31 15:01:38.9	1.620	-0.640	0.350	-0.670
2020/01/31 15:01:39.0	1.580	-0.640	0.370	-0.650
2020/01/31 15:01:39.1	1.550	-0.650	0.380	-0.630
2020/01/31 15:01:39.2	1.520	-0.650	0.390	-0.600
2020/01/31 15:01:39.3	1.480	-0.640	0.400	-0.570
2020/01/31 15:01:39.4	1.440	-0.630	0.410	-0.540
2020/01/31 15:01:39.5	1.410	-0.610	0.410	-0.500
2020/01/31 15:01:39.6	1.370	-0.590	0.410	-0.470
2020/01/31 15:01:39.7	1.340	-0.560	0.410	-0.430
2020/01/31 15:01:39.8	1.300	-0.530	0.400	-0.390
2020/01/31 15:01:39.9	1.260	-0.500	0.390	-0.350
2020/01/31 15:01:40.0	1.220	-0.460	0.370	-0.310
2020/01/31 15:01:40.1	1.180	-0.420	0.350	-0.270
2020/01/31 15:01:40.2	1.150	-0.370	0.320	-0.230
2020/01/31 15:01:40.3	1.110	-0.320	0.290	-0.190
2020/01/31 15:01:40.4	1.080	-0.270	0.250	-0.150
2020/01/31 15:01:40.5	1.050	-0.210	0.210	-0.120
2020/01/31 15:01:40.6	1.010	-0.150	0.170	-0.080
2020/01/31 15:01:40.7	0.980	-0.090	0.120	-0.050
2020/01/31 15:01:40.8	0.950	-0.030	0.070	-0.020
2020/01/31 15:01:40.9	0.930	0.040	0.020	0.010
2020/01/31 15:01:41.0	0.900	0.100	-0.030	0.040
2020/01/31 15:01:41.1	0.870	0.170	-0.080	0.060
2020/01/31 15:01:41.2	0.850	0.230	-0.140	0.090
2020/01/31 15:01:41.3	0.820	0.300	-0.190	0.110
2020/01/31 15:01:41.4	0.800	0.360	-0.250	0.130
2020/01/31 15:01:41.5	0.770	0.420	-0.300	0.140
2020/01/31 15:01:41.6	0.750	0.480	-0.350	0.160
2020/01/31 15:01:41.7	0.730	0.540	-0.400	0.170
2020/01/31 15:01:41.8	0.710	0.590	-0.450	0.180
2020/01/31 15:01:41.9	0.700	0.640	-0.500	0.190
2020/01/31 15:01:42.0	0.680	0.690	-0.550	0.200
2020/01/31 15:01:42.1	0.670	0.730	-0.590	0.200
2020/01/31 15:01:42.2	0.660	0.770	-0.630	0.200
2020/01/31 15:01:42.3	0.660	0.800	-0.670	0.200
2020/01/31 15:01:42.4	0.660	0.830	-0.710	0.190
2020/01/31 15:01:42.5	0.650	0.860	-0.740	0.180
2020/01/31 15:01:42.6	0.660	0.880	-0.770	0.170
2020/01/31 15:01:42.7	0.660	0.900	-0.800	0.150
2020/01/31 15:01:42.8	0.670	0.910	-0.830	0.130
2020/01/31 15:01:42.9	0.680	0.910	-0.850	0.110
2020/01/31 15:01:43.0	0.690	0.910	-0.860	0.090
2020/01/31 15:01:43.1	0.710	0.910	-0.870	0.060
2020/01/31 15:01:43.2	0.730	0.900	-0.880	0.030
2020/01/31 15:01:43.3	0.740	0.890	-0.890	-0.000
2020/01/31 15:01:43.4	0.760	0.870	-0.890	-0.040
2020/01/31 15:01:43.5	0.780	0.850	-0.880	-0.080
2020/01/31 15:01:43.6	0.810	0.820	-0.880	-0.120
2020/01/31 15:01:43.7	0.830	0.780	-0.870	-0.160
2020/01/31 15:01:43.8	0.850	0.750	-0.850	-0.210
2020/01/31 15:01:43.9	0.880	0.710	-0.840	-0.260
2020/01/31 15:01:44.0	0.900	0.660	-0.820	-0.310
2020/01/31 15:01:44.1	0.930	0.610	-0.800	-0.360
2020/01/31 15:01:44.2	0.950	0.560	-0.780	-0.410
2020/01/31 15:01:44.3	0.980	0.510	-0.750	-0.470
2020/01/31 15:01:44.4	1.010	0.450	-0.720	-0.530
2020/01/31 15:01:44.5	1.040	0.390	-0.690	-0.590
2020/01/31 15:01:44.6	1.070	0.330	-0.670	-0.650
2020/01/31 15:01:44.7	1.090	0.260	-0.630	-0.710
2020/01/31 15:01:44.8	1.120	0.200	-0.600	-0.780
2020/01/31 15:01:44.9	1.150	0.130	-0.570	-0.840
2020/01/31 15:01:45.0	1.190	0.060	-0.540	-0.910
2020/01/31 15:01:45.1	1.220	-0.010	-0.510	-0.980
2020/01/31 15:01:45.2	1.260	-0.070	-0.480	-1.040
2020/01/31 15:01:45.3	1.290	-0.140	-0.450	-1.110
2020/01/31 15:01:45.4	1.330	-0.200	-0.420	-1.170
2020/01/31 15:01:45.5	1.370	-0.270	-0.390	-1.240
2020/01/31 15:01:45.6	1.410	-0.330	-0.360	-1.300
2020/01/31 15:01:45.7	1.440	-0.390	-0.340	-1.360
2020/01/31 15:01:45.8	1.480	-0.450	-0.310	-1.410
2020/01/31 15:01:45.9	1.510	-0.500	-0.290	-1.460
2020/01/31 15:01:46.0	1.550	-0.550	-0.260	-1.510
2020/01/31 15:01:46.1	1.580	-0.600	-0.230	-1.550
2020/01/31 15:01:46.2	1.620	-0.650	-0.200	-1.590
2020/01/31 15:01:46.3	1.650	-0.690	-0.170	-1.620
2020/01/31 15:01:46.4	1.680	-0.730	-0.140	-1.650
2020/01/31 15:01:46.5	1.710	-0.760	-0.120	-1.670
2020/01/31 15:01:46.6	1.730	-0.790	-0.080	-1.690
2020/01/31 15:01:46.7	1.760	-0.810	-0.050	-1.700
2020/01/31 15:01:46.8	1.780	-0.830	-0.010	-1.700
2020/01/31 15:01:46.9	1.800	-0.840	0.020	-1.690
2020/01/31 15:01:47.0	1.820	-0.850	0.050	-1.690
2020/01/31 15:01:47.1	1.830	-0.860	0.080	-1.670
2020/01/31 15:01:47.2	1.840	-0.860	0.120	-1.660
2020/01/31 15:01:47.3	1.850	-0.850	0.150	-1.630
2020/01/31 15:01:47.4	1.860	-0.840	0.180	-1.610
2020/01/31 15:01:47.5	1.870	-0.830	0.210	-1.570
2020/01/31 15:01:47.6	1.860	-0.810	0.240	-1.530
2020/01/31 15:01:47.7	1.860	-0.790	0.260	-1.490
2020/01/31 15:01:47.8	1.860	-0.760	0.290	-1.450
2020/01/31 15:01:47.9	1.860	-0.730	0.310	-1.400
2020/01/31 15:01:48.0	1.850	-0.690	0.330	-1.340
2020/01/31 15:01:48.1	1.840	-0.650	0.340	-1.280
2020/01/31 15:01:48.2	1.830	-0.610	0.350	-1.220
2020/01/31 15:01:48.3	1.810	-0.560	0.360	-1.150
2020/01/31 15:01:48.4	1.800	-0.510	0.360	-1.090
2020/01/31 15:01:48.5	1.780	-0.460	0.360	-1.010
2020/01/31 15:01:48.6	1.760	-0.410	0.350	-0.940
2020/01/31 15:01:48.7	1.730	-0.350	0.340	-0.870
2020/01/31 15:01:48.8	1.710	-0.300	0.330	-0.790
2020/01/31 15:01:48.9	1.690	-0.240	0.310	-0.720
2020/01/31 15:01:49.0	1.670	-0.180	0.290	-0.640
2020/01/31 15:01:49.1	1.650	-0.120	0.270	-0.570
2020/01/31 15:01:49.2	1.620	-0.060	0.240	-0.490
2020/01/31 15:01:49.3	1.600	-0.000	0.210	-0.420
2020/01/31 15:01:49.4	1.580	0.060	0.180	-0.350
2020/01/31 15:01:49.5	1.560	0.120	0.140	-0.290
2020/01/31 15:01:49.6	1.530	0.170	0.100	-0.220
2020/01/31 15:01:49.7	1.500	0.230	0.060	-0.150
2020/01/31 15:01:49.8	1.480	0.280	0.030	-0.090
2020/01/31 15:01:49.9	1.450	0.330	-0.010	-0.030
2020/01/31 15:01:50.0	1.430	0.380	-0.050	0.030
2020/01/31 15:01:50.1	1.400	0.420	-0.090	0.090
2020/01/31 15:01:50.2	1.380	0.470	-0.130	0.140
2020/01/31 15:01:50.3	1.350	0.510	-0.160	0.190
2020/01/31 15:01:50.4	1.320	0.540	-0.200	0.240
2020/01/31 15:01:50.5	1.290	0.580	-0.230	0.280
2020/01/31 15:01:50.6	1.260	0.610	-0.250	0.330
2020/01/31 15:01:50.7	1.230	0.630	-0.280	0.370
2020/01/31 15:01:50.8	1.200	0.660	-0.300	0.400
2020/01/31 15:01:50.9	1.160	0.670	-0.320	0.430
2020/01/31 15:01:51.0	1.130	0.690	-0.340	0.450
2020/01/31 15:01:51.1	1.090	0.700	-0.360	0.470
2020/01/31 15:01:51.2	1.060	0.700	-0.370	0.480
2020/01/31 15:01:51.3	1.020	0.700	-0.390	0.490
2020/01/31 15:01:51.4	0.980	0.700	-0.400	0.490
2020/01/31 15:01:51.5	0.950	0.690	-0.410	0.480
2020/01/31 15:01:51.6	0.920	0.680	-0.430	0.460
2020/01/31 15:01:51.7	0.890	0.670	-0.440	0.450
2020/01/31 15:01:51.8	0.860	0.650	-0.450	0.420
2020/01/31 15:01:51.9	0.830	0.620	-0.460	0.400
2020/01/31 15:01:52.0	0.810	0.600	-0.480	0.360
2020/01/31 15:01:52.1	0.790	0.570	-0.490	0.320
2020/01/31 15:01:52.2	0.770	0.540	-0.500	0.270
2020/01/31 15:01:52.3	0.760	0.510	-0.520	0.220
2020/01/31 15:01:52.4	0.750	0.470	-0.540	0.160
2020/01/31 15:01:52.5	0.750	0.440	-0.560	0.100
2020/01/31 15:01:52.6	0.750	0.400	-0.590	0.030
2020/01/31 15:01:52.7	0.760	0.370	-0.600	-0.040
2020/01/31 15:01:52.8	0.770	0.330	-0.630	-0.120
2020/01/31 15:01:52.9	0.780	0.290	-0.660	-0.200
2020/01/31 15:01:53.0	0.800	0.260	-0.690	-0.280
2020/01/31 15:01:53.1	0.830	0.220	-0.720	-0.370
2020/01/31 15:01:53.2	0.850	0.190	-0.750	-0.450
2020/01/31 15:01:53.3	0.890	0.150	-0.780	-0.540
2020/01/31 15:01:53.4	0.920	0.120	-0.800	-0.630
2020/01/31 15:01:53.5	0.950	0.080	-0.830	-0.720
2020/01/31 15:01:53.6	0.990	0.050	-0.860	-0.820
2020/01/31 15:01:53.7	1.030	0.020	-0.880	-0.910
2020/01/31 15:01:53.8	1.070	-0.010	-0.900	-0.990
2020/01/31 15:01:53.9	1.110	-0.040	-0.920	-1.080
2020/01/31 15:01:54.0	1.160	-0.070	-0.930	-1.170
2020/01/31 15:01:54.1	1.200	-0.090	-0.940	-1.250
2020/01/31 15:01:54.2	1.250	-0.120	-0.950	-1.330
2020/01/31 15:01:54.3	1.290	-0.140	-0.960	-1.410
2020/01/31 15:01:54.4	1.340	-0.160	-0.960	-1.490
2020/01/31 15:01:54.5	1.380	-0.190	-0.950	-1.550
2020/01/31 15:01:54.6	1.420	-0.200	-0.940	-1.620
2020/01/31 15:01:54.7	1.460	-0.220	-0.930	-1.680
2020/01/31 15:01:54.8	1.510	-0.240	-0.910	-1.740
2020/01/31 15:01:54.9	1.550	-0.260	-0.890	-1.790
2020/01/31 15:01:55.0	1.600	-0.270	-0.870	-1.830
2020/01/31 15:01:55.1	1.640	-0.280	-0.830	-1.870
2020/01/31 15:01:55.2	1.680	-0.290	-0.800	-1.900
2020/01/31 15:01:55.3	1.720	-0.310	-0.760	-1.920
2020/01/31 15:01:55.4	1.750	-0.320	-0.710	-1.930
2020/01/31 15:01:55.5	1.790	-0.330	-0.670	-1.940
2020/01/31 15:01:55.6	1.820	-0.340	-0.610	-1.950
2020/01/31 15:01:55.7	1.840	-0.340	-0.560	-1.950
2020/01/31 15:01:55.8	1.860	-0.350	-0.500	-1.940
2020/01/31 15:01:55.9	1.880	-0.360	-0.440	-1.930
2020/01/31 15:01:56.0	1.910	-0.370	-0.370	-1.920
2020/01/31 15:01:56.1	1.920	-0.370	-0.310	-1.900
2020/01/31 15:01:56.2	1.940	-0.380	-0.240	-1.870
2020/01/31 15:01:56.3	1.960	-0.380	-0.180	-1.850
2020/01/31 15:01:56.4	1.970	-0.390	-0.110	-1.820
2020/01/31 15:01:56.5	1.980	-0.390	-0.040	-1.790
2020/01/31 15:01:56.6	1.990	-0.400	0.020	-1.750
2020/01/31 15:01:56.7	2.000	-0.400	0.090	-1.720
2020/01/31 15:01:56.8	2.000	-0.400	0.150	-1.680
2020/01/31 15:01:56.9	2.010	-0.400	0.210	-1.630
2020/01/31 15:01:57.0	2.010	-0.400	0.270	-1.590
2020/01/31 15:01:57.1	2.010	-0.400	0.320	-1.540
2020/01/31 15:01:57.2	2.010	-0.400	0.370	-1.490
2020/01/31 15:01:57.3	2.010	-0.390	0.420	-1.430
2020/01/31 15:01:57.4	2.010	-0.390	0.470	-1.380
2020/01/31 15:01:57.5	2.000	-0.380	0.510	-1.320
2020/01/31 15:01:57.6	2.010	-0.370	0.540	-1.260
2020/01/31 15:01:57.7	2.000	-0.360	0.570	-1.190
2020/01/31 15:01:57.8	1.990	-0.350	0.600	-1.130
2020/01/31 15:01:57.9	1.980	-0.340	0.620	-1.070
2020/01/31 15:01:58.0	1.970	-0.330	0.640	-1.000
2020/01/31 15:01:58.1	1.960	-0.310	0.650	-0.930
2020/01/31 15:01:58.2	1.950	-0.290	0.660	-0.870
2020/01/31 15:01:58.3	1.930	-0.280	0.660	-0.800
2020/01/31 15:01:58.4	1.920	-0.260	0.660	-0.730
2020/01/31 15:01:58.5	1.900	-0.230	0.660	-0.660
2020/01/31 15:01:58.6	1.880	-0.210	0.660	-0.590
2020/01/31 15:01:58.7	1.860	-0.190	0.650	-0.520
2020/01/31 15:01:58.8	1.840	-0.170	0.640	-0.450
2020/01/31 15:01:58.9	1.820	-0.140	0.620	-0.380
2020/01/31 15:01:59.0	1.790	-0.120	0.600	-0.310
2020/01/31 15:01:59.1	1.770	-0.090	0.580	-0.250
2020/01/31 15:01:59.2	1.740	-0.070	0.560	-0.180
2020/01/31 15:01:59.3	1.710	-0.040	0.540	-0.120
2020/01/31 15:01:59.4	1.680	-0.010	0.510	-0.060
2020/01/31 15:01:59.5	1.650	0.010	0.480	0.000
2020/01/31 15:01:59.6	1.620	0.040	0.450	0.060
2020/01/31 15:01:59.7	1.580	0.060	0.420	0.110
2020/01/31 15:01:59.8	1.550	0.090	0.380	0.160
2020/01/31 15:01:59.9	1.510	0.120	0.350	0.210
2020/01/31 15:02:00.0	1.480	0.140	0.310	0.250
2020/01/31 15:02:00.1	1.440	0.160	0.270	0.290
2020/01/31 15:02:00.2	1.400	0.180	0.230	0.330
2020/01/31 15:02:00.3	1.370	0.210	0.190	0.360
2020/01/31 15:02:00.4	1.330	0.220	0.140	0.390
2020/01/31 15:02:00.5	1.290	0.240	0.100	0.420
2020/01/31 15:02:00.6	1.260	0.260	0.050	0.440
2020/01/31 15:02:00.7	1.230	0.270	0.000	0.460
2020/01/31 15:02:00.8	1.190	0.290	-0.040	0.470
2020/01/31 15:02:00.9	1.160	0.300	-0.090	0.480
2020/01/31 15:02:01.0	1.120	0.310	-0.150	0.480
2020/01/31 15:02:01.1	1.090	0.320	-0.200	0.480
2020/01/31 15:02:01.2	1.050	0.320	-0.250	0.470
2020/01/31 15:02:01.3	1.020	0.330	-0.310	0.460
2020/01/31 15:02:01.4	0.990	0.330	-0.360	0.440
2020/01/31 15:02:01.5	0.970	0.330	-0.420	0.420
2020/01/31 15:02:01.6	0.940	0.330	-0.470	0.380
2020/01/31 15:02:01.7	0.920	0.330	-0.530	0.350
2020/01/31 15:02:01.8	0.900	0.320	-0.580	0.300
2020/01/31 15:02:01.9	0.880	0.320	-0.640	0.260
2020/01/31 15:02:02.0	0.860	0.310	-0.700	0.200
2020/01/31 15:02:02.1	0.850	0.300	-0.760	0.150
2020/01/31 15:02:02.2	0.840	0.290	-0.820	0.080
2020/01/31 15:02:02.3	0.830	0.280	-0.880	0.010
2020/01/31 15:02:02.4	0.830	0.270	-0.940	-0.060
2020/01/31 15:02:02.5	0.830	0.260	-1.000	-0.130
2020/01/31 15:02:02.6	0.840	0.250	-1.050	-0.210
2020/01/31 15:02:02.7	0.850	0.240	-1.110	-0.300
2020/01/31 15:02:02.8	0.860	0.230	-1.160	-0.380
2020/01/31 15:02:02.9	0.880	0.220	-1.220	-0.460
2020/01/31 15:02:03.0	0.900	0.210	-1.270	-0.540
2020/01/31 15:02:03.1	0.920	0.200	-1.320	-0.630
2020/01/31 15:02:03.2	0.940	0.190	-1.360	-0.710
2020/01/31 15:02:03.3	0.970	0.190	-1.400	-0.780
2020/01/31 15:02:03.4	1.000	0.180	-1.440	-0.860
2020/01/31 15:02:03.5	1.030	0.180	-1.470	-0.930
2020/01/31 15:02:03.6	1.060	0.180	-1.500	-0.990
2020/01/31 15:02:03.7	1.090	0.180	-1.520	-1.060
2020/01/31 15:02:03.8	1.130	0.180	-1.540	-1.120
2020/01/31 15:02:03.9	1.160	0.180	-1.550	-1.170
2020/01/31 15:02:04.0	1.190	0.180	-1.550	-1.220
2020/01/31 15:02:04.1	1.230	0.190	-1.550	-1.260
2020/01/31 15:02:04.2	1.260	0.190	-1.530	-1.300
2020/01/31 15:02:04.3	1.290	0.200	-1.510	-1.330
2020/01/31 15:02:04.4	1.320	0.210	-1.490	-1.360
2020/01/31 15:02:04.5	1.350	0.210	-1.450	-1.380
2020/01/31 15:02:04.6	1.370	0.220	-1.410	-1.390
2020/01/31 15:02:04.7	1.400	0.220	-1.360	-1.400
2020/01/31 15:02:04.8	1.420	0.230	-1.300	-1.410
2020/01/31 15:02:04.9	1.440	0.230	-1.240	-1.410
2020/01/31 15:02:05.0	1.460	0.230	-1.170	-1.410
2020/01/31 15:02:05.1	1.470	0.230	-1.090	-1.400
2020/01/31 15:02:05.2	1.490	0.230	-1.010	-1.390
2020/01/31 15:02:05.3	1.500	0.230	-0.920	-1.370
2020/01/31 15:02:05.4	1.510	0.220	-0.830	-1.360
2020/01/31 15:02:05.5	1.520	0.220	-0.730	-1.330
2020/01/31 15:02:05.6	1.530	0.210	-0.640	-1.310
2020/01/31 15:02:05.7	1.540	0.200	-0.540	-1.280
2020/01/31 15:02:05.8	1.550	0.190	-0.440	-1.250
2020/01/31 15:02:05.9	1.560	0.170	-0.340	-1.220
2020/01/31 15:02:06.0	1.570	0.160	-0.250	-1.200
2020/01/31 15:02:06.1	1.580	0.140	-0.150	-1.170
2020/01/31 15:02:06.2	1.590	0.120	-0.060	-1.140
2020/01/31 15:02:06.3	1.610	0.100	0.030	-1.110
2020/01/31 15:02:06.4	1.620	0.070	0.110	-1.080
2020/01/31 15:02:06.5	1.640	0.050	0.190	-1.060
2020/01/31 15:02:06.6	1.660	0.030	0.270	-1.030
2020/01/31 15:02:06.7	1.680	-0.000	0.340	-1.010
2020/01/31 15:02:06.8	1.710	-0.030	0.400	-0.990
2020/01/31 15:02:06.9	1.730	-0.050	0.460	-0.980
2020/01/31 15:02:07.0	1.760	-0.080	0.510	-0.960
2020/01/31 15:02:07.1	1.790	-0.110	0.560	-0.940
2020/01/31 15:02:07.2	1.810	-0.140	0.600	-0.930
2020/01/31 15:02:07.3	1.840	-0.160	0.640	-0.910
2020/01/31 15:02:07.4	1.860	-0.190	0.680	-0.900
2020/01/31 15:02:07.5	1.880	-0.220	0.710	-0.880
2020/01/31 15:02:07.6	1.910	-0.250	0.730	-0.860
2020/01/31 15:02:07.7	1.930	-0.270	0.760	-0.840
2020/01/31 15:02:07.8	1.940	-0.300	0.780	-0.820
2020/01/31 15:02:07.9	1.940	-0.320	0.800	-0.800
2020/01/31 15:02:08.0	1.950	-0.350	0.820	-0.780
2020/01/31 15:02:08.1	1.940	-0.370	0.840	-0.750
2020/01/31 15:02:08.2	1.940	-0.390	0.860	-0.730
2020/01/31 15:02:08.3	1.930	-0.410	0.870	-0.700
2020/01/31 15:02:08.4	1.910	-0.430	0.880	-0.670
2020/01/31 15:02:08.5	1.900	-0.440	0.890	-0.650
2020/01/31 15:02:08.6	1.880	-0.460	0.900	-0.620
2020/01/31 15:02:08.7	1.850	-0.470	0.900	-0.590
2020/01/31 15:02:08.8	1.820	-0.480	0.910	-0.560
2020/01/31 15:02:08.9	1.790	-0.490	0.910	-0.530
2020/01/31 15:02:09.0	1.760	-0.500	0.900	-0.490
2020/01/31 15:02:09.1	1.720	-0.500	0.900	-0.460
2020/01/31 15:02:09.2	1.680	-0.500	0.890	-0.430
2020/01/31 15:02:09.3	1.630	-0.500	0.880	-0.390
2020/01/31 15:02:09.4	1.590	-0.500	0.860	-0.360
2020/01/31 15:02:09.5	1.540	-0.500	0.840	-0.320
2020/01/31 15:02:09.6	1.490	-0.490	0.820	-0.290
2020/01/31 15:02:09.7	1.430	-0.480	0.790	-0.250
2020/01/31 15:02:09.8	1.370	-0.470	0.760	-0.210
2020/01/31 15:02:09.9	1.320	-0.460	0.720	-0.170
2020/01/31 15:02:10.0	1.260	-0.450	0.680	-0.130
2020/01/31 15:02:10.1	1.200	-0.430	0.640	-0.090
2020/01/31 15:02:10.2	1.140	-0.410	0.590	-0.050
2020/01/31 15:02:10.3	1.080	-0.390	0.530	-0.010
2020/01/31 15:02:10.4	1.010	-0.370	0.470	0.030
2020/01/31 15:02:10.5	0.950	-0.340	0.410	0.070
2020/01/31 15:02:10.6	0.890	-0.320	0.340	0.100
2020/01/31 15:02:10.7	0.830	-0.290	0.270	0.140
2020/01/31 15:02:10.8	0.760	-0.260	0.200	0.170
2020/01/31 15:02:10.9	0.700	-0.230	0.120	0.200
2020/01/31 15:02:11.0	0.640	-0.200	0.040	0.230
2020/01/31 15:02:11.1	0.580	-0.170	-0.040	0.250
2020/01/31 15:02:11.2	0.530	-0.130	-0.130	0.270
2020/01/31 15:02:11.3	0.470	-0.100	-0.220	0.280
2020/01/31 15:02:11.4	0.420	-0.060	-0.300	0.300
2020/01/31 15:02:11.5	0.370	-0.030	-0.390	0.300
2020/01/31 15:02:11.6	0.320	0.000	-0.480	0.310
2020/01/31 15:02:11.7	0.270	0.040	-0.570	0.300
2020/01/31 15:02:11.8	0.220	0.070	-0.650	0.300
2020/01/31 15:02:11.9	0.180	0.110	-0.740	0.290
2020/01/31 15:02:12.0	0.150	0.140	-0.820	0.270
2020/01/31 15:02:12.1	0.110	0.180	-0.900	0.250
2020/01/31 15:02:12.2	0.080	0.210	-0.970	0.230
2020/01/31 15:02:12.3	0.050	0.240	-1.050	0.200
2020/01/31 15:02:12.4	0.030	0.270	-1.120	0.170
2020/01/31 15:02:12.5	0.010	0.300	-1.180	0.140
2020/01/31 15:02:12.6	359.990	0.330	-1.240	0.100
2020/01/31 15:02:12.7	359.980	0.360	-1.290	0.060
2020/01/31 15:02:12.8	359.980	0.390	-1.340	0.020
2020/01/31 15:02:12.9	359.980	0.410	-1.380	-0.020
2020/01/31 15:02:13.0	359.980	0.430	-1.420	-0.060
2020/01/31 15:02:13.1	359.990	0.460	-1.450	-0.110
2020/01/31 15:02:13.2	0.010	0.480	-1.480	-0.160
2020/01/31 15:02:13.3	0.030	0.490	-1.500	-0.210
2020/01/31 15:02:13.4	0.050	0.510	-1.520	-0.260
2020/01/31 15:02:13.5	0.080	0.520	-1.530	-0.320
2020/01/31 15:02:13.6	0.120	0.530	-1.530	-0.370
2020/01/31 15:02:13.7	0.150	0.540	-1.530	-0.430
2020/01/31 15:02:13.8	0.190	0.550	-1.520	-0.490
2020/01/31 15:02:13.9	0.240	0.550	-1.510	-0.550
2020/01/31 15:02:14.0	0.280	0.550	-1.490	-0.610
2020/01/31 15:02:14.1	0.330	0.550	-1.460	-0.670
2020/01/31 15:02:14.2	0.380	0.540	-1.430	-0.730
2020/01/31 15:02:14.3	0.440	0.540	-1.390	-0.790
2020/01/31 15:02:14.4	0.490	0.520	-1.350	-0.850
2020/01/31 15:02:14.5	0.540	0.510	-1.300	-0.910
2020/01/31 15:02:14.6	0.600	0.490	-1.250	-0.970
2020/01/31 15:02:14.7	0.650	0.470	-1.190	-1.020
2020/01/31 15:02:14.8	0.700	0.440	-1.120	-1.080
2020/01/31 15:02:14.9	0.750	0.420	-1.060	-1.130
2020/01/31 15:02:15.0	0.800	0.380	-0.990	-1.170
2020/01/31 15:02:15.1	0.850	0.350	-0.920	-1.220
2020/01/31 15:02:15.2	0.900	0.310	-0.840	-1.260
2020/01/31 15:02:15.3	0.940	0.270	-0.760	-1.290
2020/01/31 15:02:15.4	0.980	0.230	-0.690	-1.320
2020/01/31 15:02:15.5	1.020	0.190	-0.610	-1.350
2020/01/31 15:02:15.6	1.050	0.140	-0.530	-1.370
2020/01/31 15:02:15.7	1.090	0.100	-0.450	-1.380
2020/01/31 15:02:15.8	1.120	0.050	-0.370	-1.390
2020/01/31 15:02:15.9	1.150	0.000	-0.300	-1.400
2020/01/31 15:02:16.0	1.170	-0.050	-0.220	-1.400
2020/01/31 15:02:16.1	1.200	-0.100	-0.150	-1.390
2020/01/31 15:02:16.2	1.220	-0.140	-0.080	-1.390
2020/01/31 15:02:16.3	1.230	-0.190	-0.020	-1.380
2020/01/31 15:02:16.4	1.250	-0.240	0.040	-1.360
2020/01/31 15:02:16.5	1.260	-0.280	0.100	-1.350
2020/01/31 15:02:16.6	1.270	-0.320	0.150	-1.330
2020/01/31 15:02:16.7	1.280	-0.360	0.200	-1.300
2020/01/31 15:02:16.8	1.290	-0.400	0.240	-1.280
2020/01/31 15:02:16.9	1.290	-0.430	0.280	-1.250
2020/01/31 15:02:17.0	1.290	-0.460	0.310	-1.220
2020/01/31 15:02:17.1	1.290	-0.490	0.340	-1.190
2020/01/31 15:02:17.2	1.290	-0.520	0.370	-1.160
2020/01/31 15:02:17.3	1.280	-0.540	0.390	-1.120
2020/01/31 15:02:17.4	1.270	-0.550	0.410	-1.080
2020/01/31 15:02:17.5	1.260	-0.570	0.430	-1.040
2020/01/31 15:02:17.6	1.240	-0.580	0.440	-1.000
2020/01/31 15:02:17.7	1.220	-0.580	0.450	-0.950
2020/01/31 15:02:17.8	1.200	-0.580	0.460	-0.910
2020/01/31 15:02:17.9	1.170	-0.580	0.470	-0.850
2020/01/31 15:02:18.0	1.130	-0.570	0.480	-0.800
2020/01/31 15:02:18.1	1.100	-0.560	0.480	-0.740
2020/01/31 15:02:18.2	1.050	-0.540	0.490	-0.680
2020/01/31 15:02:18.3	1.010	-0.520	0.490	-0.620
2020/01/31 15:02:18.4	0.950	-0.500	0.500	-0.550
2020/01/31 15:02:18.5	0.900	-0.470	0.500	-0.480
2020/01/31 15:02:18.6	0.840	-0.440	0.500	-0.410
2020/01/31 15:02:18.7	0.780	-0.410	0.510	-0.340
2020/01/31 15:02:18.8	0.710	-0.380	0.510	-0.260
2020/01/31 15:02:18.9	0.640	-0.340	0.510	-0.190
2020/01/31 15:02:19.0	0.580	-0.300	0.510	-0.120
2020/01/31 15:02:19.1	0.500	-0.260	0.510	-0.050
2020/01/31 15:02:19.2	0.430	-0.220	0.500	0.020
2020/01/31 15:02:19.3	0.360	-0.180	0.500	0.080
2020/01/31 15:02:19.4	0.290	-0.140	0.490	0.150
2020/01/31 15:02:19.5	0.230	-0.100	0.490	0.210
2020/01/31 15:02:19.6	0.160	-0.060	0.480	0.260
2020/01/31 15:02:19.7	0.090	-0.020	0.460	0.310
2020/01/31 15:02:19.8	0.030	0.020	0.450	0.360
2020/01/31 15:02:19.9	359.970	0.060	0.430	0.400
2020/01/31 15:02:20.0	359.910	0.100	0.400	0.440
2020/01/31 15:02:20.1	359.860	0.130	0.380	0.470
2020/01/31 15:02:20.2	359.810	0.170	0.350	0.490
2020/01/31 15:02:20.3	359.770	0.200	0.310	0.510
2020/01/31 15:02:20.4	359.730	0.240	0.280	0.520
2020/01/31 15:02:20.5	359.690	0.270	0.230	0.530
2020/01/31 15:02:20.6	359.660	0.300	0.190	0.540
2020/01/31 15:02:20.7	359.640	0.330	0.140	0.530
2020/01/31 15:02:20.8	359.620	0.360	0.080	0.530
2020/01/31 15:02:20.9	359.610	0.390	0.030	0.520
2020/01/31 15:02:21.0	359.600	0.420	-0.030	0.500
2020/01/31 15:02:21.1	359.590	0.440	-0.100	0.490
2020/01/31 15:02:21.2	359.590	0.470	-0.160	0.470
2020/01/31 15:02:21.3	359.590	0.490	-0.230	0.450
2020/01/31 15:02:21.4	359.600	0.510	-0.300	0.420
2020/01/31 15:02:21.5	359.610	0.530	-0.360	0.390
2020/01/31 15:02:21.6	359.610	0.550	-0.430	0.360
2020/01/31 15:02:21.7	359.620	0.570	-0.490	0.330
2020/01/31 15:02:21.8	359.640	0.580	-0.560	0.300
2020/01/31 15:02:21.9	359.660	0.590	-0.620	0.260
2020/01/31 15:02:22.0	359.680	0.600	-0.670	0.230
2020/01/31 15:02:22.1	359.700	0.610	-0.720	0.190
2020/01/31 15:02:22.2	359.720	0.610	-0.770	0.150
2020/01/31 15:02:22.3	359.740	0.620	-0.810	0.120
2020/01/31 15:02:22.4	359.770	0.610	-0.840	0.080
2020/01/31 15:02:22.5	359.790	0.610	-0.870	0.040
2020/01/31 15:02:22.6	359.800	0.600	-0.900	0.000
2020/01/31 15:02:22.7	359.820	0.590	-0.910	-0.030
2020/01/31 15:02:22.8	359.840	0.570	-0.910	-0.070
2020/01/31 15:02:22.9	359.850	0.550	-0.910	-0.110
2020/01/31 15:02:23.0	359.870	0.530	-0.910	-0.140
2020/01/31 15:02:23.1	359.880	0.500	-0.890	-0.170
2020/01/31 15:02:23.2	359.890	0.470	-0.870	-0.200
2020/01/31 15:02:23.3	359.900	0.440	-0.840	-0.230
2020/01/31 15:02:23.4	359.910	0.410	-0.800	-0.260
2020/01/31 15:02:23.5	359.910	0.370	-0.760	-0.290
2020/01/31 15:02:23.6	359.910	0.330	-0.720	-0.320
2020/01/31 15:02:23.7	359.920	0.280	-0.660	-0.340
2020/01/31 15:02:23.8	359.910	0.240	-0.610	-0.360
2020/01/31 15:02:23.9	359.910	0.190	-0.550	-0.390
2020/01/31 15:02:24.0	359.910	0.140	-0.500	-0.410
2020/01/31 15:02:24.1	359.900	0.090	-0.440	-0.430
2020/01/31 15:02:24.2	359.900	0.040	-0.380	-0.450
2020/01/31 15:02:24.3	359.900	-0.010	-0.330	-0.470
2020/01/31 15:02:24.4	359.890	-0.060	-0.270	-0.490
2020/01/31 15:02:24.5	359.890	-0.120	-0.220	-0.510
2020/01/31 15:02:24.6	359.890	-0.170	-0.180	-0.540
2020/01/31 15:02:24.7	359.890	-0.220	-0.140	-0.560
2020/01/31 15:02:24.8	359.900	-0.270	-0.100	-0.590
2020/01/31 15:02:24.9	359.910	-0.310	-0.070	-0.620
2020/01/31 15:02:25.0	359.920	-0.360	-0.050	-0.650
2020/01/31 15:02:25.1	359.940	-0.400	-0.030	-0.690
2020/01/31 15:02:25.2	359.960	-0.440	-0.020	-0.730
2020/01/31 15:02:25.3	359.990	-0.470	-0.010	-0.770
2020/01/31 15:02:25.4	0.010	-0.510	-0.020	-0.810
2020/01/31 15:02:25.5	0.040	-0.540	-0.030	-0.860
2020/01/31 15:02:25.6	0.070	-0.560	-0.030	-0.910
2020/01/31 15:02:25.7	0.110	-0.580	-0.060	-0.960
2020/01/31 15:02:25.8	0.150	-0.600	-0.080	-1.010
2020/01/31 15:02:25.9	0.190	-0.620	-0.120	-1.070
2020/01/31 15:02:26.0	0.230	-0.630	-0.150	-1.120
2020/01/31 15:02:26.1	0.270	-0.640	-0.190	-1.180
2020/01/31 15:02:26.2	0.320	-0.640	-0.230	-1.230
2020/01/31 15:02:26.3	0.360	-0.640	-0.280	-1.280
2020/01/31 15:02:26.4	0.400	-0.640	-0.320	-1.330
2020/01/31 15:02:26.5	0.440	-0.630	-0.360	-1.370
2020/01/31 15:02:26.6	0.490	-0.620	-0.410	-1.410
2020/01/31 15:02:26.7	0.530	-0.610	-0.450	-1.450
2020/01/31 15:02:26.8	0.570	-0.600	-0.480	-1.470
2020/01/31 15:02:26.9	0.600	-0.580	-0.520	-1.500
2020/01/31 15:02:27.0	0.630	-0.560	-0.550	-1.520
2020/01/31 15:02:27.1	0.660	-0.540	-0.570	-1.530
2020/01/31 15:02:27.2	0.690	-0.520	-0.590	-1.530
2020/01/31 15:02:27.3	0.720	-0.500	-0.610	-1.530
2020/01/31 15:02:27.4	0.730	-0.470	-0.610	-1.520
2020/01/31 15:02:27.5	0.750	-0.450	-0.620	-1.500
2020/01/31 15:02:27.6	0.760	-0.420	-0.620	-1.480
2020/01/31 15:02:27.7	0.780	-0.400	-0.610	-1.440
2020/01/31 15:02:27.8	0.780	-0.370	-0.590	-1.410
2020/01/31 15:02:27.9	0.780	-0.350	-0.570	-1.360
2020/01/31 15:02:28.0	0.770	-0.320	-0.550	-1.310
2020/01/31 15:02:28.1	0.760	-0.300	-0.520	-1.260
2020/01/31 15:02:28.2	0.750	-0.270	-0.490	-1.200
2020/01/31 15:02:28.3	0.730	-0.250	-0.450	-1.130
2020/01/31 15:02:28.4	0.710	-0.230	-0.410	-1.070
2020/01/31 15:02:28.5	0.680	-0.210	-0.370	-0.990
2020/01/31 15:02:28.6	0.650	-0.180	-0.320	-0.920
2020/01/31 15:02:28.7	0.620	-0.160	-0.280	-0.850
2020/01/31 15:02:28.8	0.580	-0.150	-0.230	-0.770
2020/01/31 15:02:28.9	0.550	-0.130	-0.180	-0.690
2020/01/31 15:02:29.0	0.510	-0.110	-0.140	-0.610
2020/01/31 15:02:29.1	0.470	-0.090	-0.090	-0.540
2020/01/31 15:02:29.2	0.430	-0.080	-0.050	-0.460
2020/01/31 15:02:29.3	0.390	-0.060	-0.000	-0.380
2020/01/31 15:02:29.4	0.350	-0.040	0.030	-0.300
2020/01/31 15:02:29.5	0.310	-0.030	0.070	-0.230
2020/01/31 15:02:29.6	0.260	-0.010	0.100	-0.160
2020/01/31 15:02:29.7	0.220	0.000	0.130	-0.080
2020/01/31 15:02:29.8	0.180	0.020	0.160	-0.020
2020/01/31 15:02:29.9	0.140	0.040	0.180	0.050
2020/01/31 15:02:30.0	0.100	0.050	0.200	0.110
2020/01/31 15:02:30.1	0.060	0.070	0.220	0.170
2020/01/31 15:02:30.2	0.020	0.090	0.230	0.230
2020/01/31 15:02:30.3	359.980	0.110	0.230	0.280
2020/01/31 15:02:30.4	359.940	0.120	0.240	0.330
2020/01/31 15:02:30.5	359.910	0.140	0.230	0.370
2020/01/31 15:02:30.6	359.870	0.160	0.230	0.410
2020/01/31 15:02:30.7	359.830	0.180	0.220	0.440
2020/01/31 15:02:30.8	359.800	0.190	0.210	0.470
2020/01/31 15:02:30.9	359.770	0.210	0.190	0.500
2020/01/31 15:02:31.0	359.740	0.230	0.170	0.520
2020/01/31 15:02:31.1	359.710	0.250	0.150	0.530
2020/01/31 15:02:31.2	359.680	0.260	0.130	0.540
2020/01/31 15:02:31.3	359.660	0.280	0.100	0.550
2020/01/31 15:02:31.4	359.640	0.290	0.070	0.550
2020/01/31 15:02:31.5	359.620	0.310	0.040	0.540
2020/01/31 15:02:31.6	359.600	0.320	0.000	0.530
2020/01/31 15:02:31.7	359.590	0.330	-0.030	0.510
2020/01/31 15:02:31.8	359.580	0.340	-0.070	0.490
2020/01/31 15:02:31.9	359.570	0.360	-0.110	0.470
2020/01/31 15:02:32.0	359.570	0.360	-0.150	0.440
2020/01/31 15:02:32.1	359.570	0.370	-0.190	0.400
2020/01/31 15:02:32.2	359.570	0.380	-0.240	0.360
2020/01/31 15:02:32.3	359.570	0.390	-0.280	0.320
2020/01/31 15:02:32.4	359.580	0.390	-0.320	0.280
2020/01/31 15:02:32.5	359.590	0.400	-0.360	0.230
2020/01/31 15:02:32.6	359.600	0.400	-0.390	0.180
2020/01/31 15:02:32.7	359.610	0.400	-0.430	0.130
2020/01/31 15:02:32.8	359.630	0.400	-0.470	0.070
2020/01/31 15:02:32.9	359.650	0.400	-0.500	0.020
2020/01/31 15:02:33.0	359.670	0.400	-0.540	-0.030
2020/01/31 15:02:33.1	359.690	0.400	-0.560	-0.080
2020/01/31 15:02:33.2	359.710	0.390	-0.590	-0.140
2020/01/31 15:02:33.3	359.730	0.390	-0.610	-0.190
2020/01/31 15:02:33.4	359.760	0.380	-0.630	-0.240
2020/01/31 15:02:33.5	359.780	0.380	-0.640	-0.280
2020/01/31 15:02:33.6	359.810	0.370	-0.650	-0.330
2020/01/31 15:02:33.7	359.840	0.360	-0.660	-0.380
2020/01/31 15:02:33.8	359.870	0.350	-0.660	-0.420
2020/01/31 15:02:33.9	359.890	0.340	-0.650	-0.460
2020/01/31 15:02:34.0	359.920	0.330	-0.640	-0.500
2020/01/31 15:02:34.1	359.940	0.320	-0.630	-0.540
2020/01/31 15:02:34.2	359.970	0.310	-0.610	-0.570
2020/01/31 15:02:34.3	0.000	0.300	-0.590	-0.600
2020/01/31 15:02:34.4	0.020	0.290	-0.570	-0.620
2020/01/31 15:02:34.5	0.050	0.280	-0.540	-0.650
2020/01/31 15:02:34.6	0.070	0.270	-0.500	-0.670
2020/01/31 15:02:34.7	0.090	0.250	-0.470	-0.680
2020/01/31 15:02:34.8	0.120	0.240	-0.430	-0.700
2020/01/31 15:02:34.9	0.140	0.220	-0.390	-0.710
2020/01/31 15:02:35.0	0.160	0.210	-0.350	-0.710
2020/01/31 15:02:35.1	0.170	0.190	-0.310	-0.710
2020/01/31 15:02:35.2	0.190	0.180	-0.270	-0.710
2020/01/31 15:02:35.3	0.200	0.160	-0.230	-0.710
2020/01/31 15:02:35.4	0.220	0.150	-0.190	-0.700
2020/01/31 15:02:35.5	0.230	0.130	-0.150	-0.690
2020/01/31 15:02:35.6	0.230	0.110	-0.110	-0.670
2020/01/31 15:02:35.7	0.240	0.090	-0.080	-0.650
2020/01/31 15:02:35.8	0.250	0.080	-0.050	-0.640
2020/01/31 15:02:35.9	0.250	0.060	-0.020	-0.620
2020/01/31 15:02:36.0	0.260	0.040	0.000	-0.600
2020/01/31 15:02:36.1	0.260	0.020	0.020	-0.580
2020/01/31 15:02:36.2	0.260	0.000	0.040	-0.570
2020/01/31 15:02:36.3	0.270	-0.010	0.050	-0.550
2020/01/31 15:02:36.4	0.270	-0.030	0.050	-0.540
2020/01/31 15:02:36.5	0.280	-0.050	0.050	-0.530
2020/01/31 15:02:36.6	0.280	-0.070	0.050	-0.520
2020/01/31 15:02:36.7	0.290	-0.080	0.030	-0.520
2020/01/31 15:02:36.8	0.300	-0.100	0.020	-0.510
2020/01/31 15:02:36.9	0.310	-0.110	0.000	-0.520
2020/01/31 15:02:37.0	0.320	-0.120	-0.020	-0.520
2020/01/31 15:02:37.1	0.330	-0.140	-0.050	-0.530
2020/01/31 15:02:37.2	0.340	-0.150	-0.080	-0.540
2020/01/31 15:02:37.3	0.360	-0.160	-0.120	-0.550
2020/01/31 15:02:37.4	0.380	-0.160	-0.160	-0.560
2020/01/31 15:02:37.5	0.400	-0.170	-0.200	-0.580
2020/01/31 15:02:37.6	0.420	-0.180	-0.240	-0.600
2020/01/31 15:02:37.7	0.430	-0.180	-0.280	-0.620
2020/01/31 15:02:37.8	0.460	-0.190	-0.320	-0.640
2020/01/31 15:02:37.9	0.480	-0.190	-0.360	-0.660
2020/01/31 15:02:38.0	0.500	-0.190	-0.400	-0.680
2020/01/31 15:02:38.1	0.520	-0.190	-0.440	-0.700
2020/01/31 15:02:38.2	0.540	-0.190	-0.470	-0.720
2020/01/31 15:02:38.3	0.560	-0.200	-0.500	-0.740
2020/01/31 15:02:38.4	0.570	-0.200	-0.530	-0.760
2020/01/31 15:02:38.5	0.590	-0.200	-0.550	-0.770
2020/01/31 15:02:38.6	0.600	-0.200	-0.570	-0.780
2020/01/31 15:02:38.7	0.610	-0.210	-0.590	-0.790
2020/01/31 15:02:38.8	0.620	-0.210	-0.600	-0.800
2020/01/31 15:02:38.9	0.620	-0.220	-0.600	-0.800
2020/01/31 15:02:39.0	0.620	-0.230	-0.600	-0.800
2020/01/31 15:02:39.1	0.620	-0.230	-0.590	-0.800
2020/01/31 15:02:39.2	0.610	-0.240	-0.580	-0.800
2020/01/31 15:02:39.3	0.610	-0.260	-0.570	-0.800
2020/01/31 15:02:39.4	0.590	-0.270	-0.550	-0.790
2020/01/31 15:02:39.5	0.580	-0.280	-0.530	-0.790
2020/01/31 15:02:39.6	0.570	-0.300	-0.500	-0.780
2020/01/31 15:02:39.7	0.560	-0.310	-0.470	-0.770
2020/01/31 15:02:39.8	0.540	-0.330	-0.430	-0.760
2020/01/31 15:02:39.9	0.520	-0.350	-0.400	-0.750
2020/01/31 15:02:40.0	0.490	-0.370	-0.360	-0.740
2020/01/31 15:02:40.1	0.470	-0.390	-0.320	-0.720
2020/01/31 15:02:40.2	0.440	-0.410	-0.280	-0.700
2020/01/31 15:02:40.3	0.410	-0.430	-0.230	-0.690
2020/01/31 15:02:40.4	0.380	-0.450	-0.190	-0.670
2020/01/31 15:02:40.5	0.340	-0.470	-0.140	-0.650
2020/01/31 15:02:40.6	0.310	-0.490	-0.090	-0.630
2020/01/31 15:02:40.7	0.270	-0.500	-0.050	-0.610
2020/01/31 15:02:40.8	0.230	-0.520	-0.000	-0.580
2020/01/31 15:02:40.9	0.190	-0.540	0.040	-0.560
2020/01/31 15:02:41.0	0.150	-0.550	0.090	-0.530
2020/01/31 15:02:41.1	0.110	-0.560	0.130	-0.510
2020/01/31 15:02:41.2	0.060	-0.570	0.170	-0.480
2020/01/31 15:02:41.3	0.020	-0.580	0.210	-0.450
2020/01/31 15:02:41.4	359.970	-0.590	0.250	-0.430
2020/01/31 15:02:41.5	359.930	-0.590	0.290	-0.400
2020/01/31 15:02:41.6	359.880	-0.590	0.320	-0.370
2020/01/31 15:02:41.7	359.830	-0.580	0.350	-0.350
2020/01/31 15:02:41.8	359.780	-0.570	0.370	-0.320
2020/01/31 15:02:41.9	359.740	-0.560	0.390	-0.290
2020/01/31 15:02:42.0	359.690	-0.550	0.410	-0.270
2020/01/31 15:02:42.1	359.650	-0.530	0.420	-0.250
2020/01/31 15:02:42.2	359.610	-0.510	0.430	-0.220
2020/01/31 15:02:42.3	359.570	-0.480	0.430	-0.200
2020/01/31 15:02:42.4	359.530	-0.450	0.430	-0.180
2020/01/31 15:02:42.5	359.500	-0.420	0.420	-0.160
2020/01/31 15:02:42.6	359.460	-0.380	0.410	-0.140
2020/01/31 15:02:42.7	359.430	-0.340	0.390	-0.130
2020/01/31 15:02:42.8	359.410	-0.300	0.360	-0.110
2020/01/31 15:02:42.9	359.390	-0.250	0.340	-0.090
2020/01/31 15:02:43.0	359.370	-0.200	0.300	-0.080
2020/01/31 15:02:43.1	359.350	-0.150	0.270	-0.060
2020/01/31 15:02:43.2	359.340	-0.100	0.230	-0.050
2020/01/31 15:02:43.3	359.330	-0.040	0.180	-0.040
2020/01/31 15:02:43.4	359.320	0.010	0.140	-0.030
2020/01/31 15:02:43.5	359.310	0.070	0.090	-0.010
2020/01/31 15:02:43.6	359.310	0.130	0.040	-0.000
2020/01/31 15:02:43.7	359.310	0.180	-0.020	0.010
2020/01/31 15:02:43.8	359.310	0.240	-0.070	0.030
2020/01/31 15:02:43.9	359.310	0.300	-0.130	0.040
2020/01/31 15:02:44.0	359.310	0.350	-0.190	0.050
2020/01/31 15:02:44.1	359.320	0.400	-0.240	0.060
2020/01/31 15:02:44.2	359.330	0.450	-0.300	0.070
2020/01/31 15:02:44.3	359.340	0.500	-0.360	0.080
2020/01/31 15:02:44.4	359.350	0.550	-0.420	0.090
2020/01/31 15:02:44.5	359.360	0.600	-0.470	0.100
2020/01/31 15:02:44.6	359.370	0.640	-0.530	0.100
2020/01/31 15:02:44.7	359.390	0.680	-0.580	0.110
2020/01/31 15:02:44.8	359.410	0.710	-0.630	0.110
2020/01/31 15:02:44.9	359.420	0.740	-0.680	0.110
2020/01/31 15:02:45.0	359.440	0.770	-0.730	0.110
2020/01/31 15:02:45.1	359.460	0.800	-0.770	0.110
2020/01/31 15:02:45.2	359.480	0.820	-0.810	0.110
2020/01/31 15:02:45.3	359.500	0.840	-0.850	0.100
2020/01/31 15:02:45.4	359.520	0.850	-0.890	0.100
2020/01/31 15:02:45.5	359.540	0.860	-0.920	0.090
2020/01/31 15:02:45.6	359.550	0.870	-0.940	0.080
2020/01/31 15:02:45.7	359.570	0.870	-0.960	0.060
2020/01/31 15:02:45.8	359.590	0.870	-0.980	0.050
2020/01/31 15:02:45.9	359.600	0.870	-0.990	0.040
2020/01/31 15:02:46.0	359.620	0.860	-1.000	0.020
2020/01/31 15:02:46.1	359.630	0.850	-1.000	0.000
2020/01/31 15:02:46.2	359.640	0.830	-1.000	-0.010
2020/01/31 15:02:46.3	359.650	0.810	-1.000	-0.030
2020/01/31 15:02:46.4	359.660	0.790	-0.990	-0.050
2020/01/31 15:02:46.5	359.660	0.770	-0.970	-0.070
2020/01/31 15:02:46.6	359.670	0.740	-0.950	-0.090
2020/01/31 15:02:46.7	359.670	0.710	-0.930	-0.110
2020/01/31 15:02:46.8	359.670	0.670	-0.910	-0.130
2020/01/31 15:02:46.9	359.680	0.630	-0.880	-0.150
2020/01/31 15:02:47.0	359.680	0.590	-0.860	-0.170
2020/01/31 15:02:47.1	359.690	0.550	-0.830	-0.200
2020/01/31 15:02:47.2	359.690	0.510	-0.800	-0.220
2020/01/31 15:02:47.3	359.700	0.460	-0.760	-0.250
2020/01/31 15:02:47.4	359.710	0.410	-0.730	-0.280
2020/01/31 15:02:47.5	359.710	0.360	-0.700	-0.320
2020/01/31 15:02:47.6	359.720	0.310	-0.670	-0.350
2020/01/31 15:02:47.7	359.740	0.250	-0.630	-0.390
2020/01/31 15:02:47.8	359.750	0.200	-0.600	-0.430
2020/01/31 15:02:47.9	359.770	0.140	-0.560	-0.480
2020/01/31 15:02:48.0	359.780	0.080	-0.530	-0.530
2020/01/31 15:02:48.1	359.790	0.030	-0.500	-0.580
2020/01/31 15:02:48.2	359.810	-0.030	-0.470	-0.630
2020/01/31 15:02:48.3	359.830	-0.090	-0.430	-0.680
2020/01/31 15:02:48.4	359.840	-0.140	-0.400	-0.740
2020/01/31 15:02:48.5	359.860	-0.200	-0.370	-0.790
2020/01/31 15:02:48.6	359.880	-0.260	-0.340	-0.850
2020/01/31 15:02:48.7	359.900	-0.310	-0.300	-0.900
2020/01/31 15:02:48.8	359.910	-0.360	-0.270	-0.950
2020/01/31 15:02:48.9	359.930	-0.410	-0.240	-1.000
2020/01/31 15:02:49.0	359.940	-0.460	-0.200	-1.040
2020/01/31 15:02:49.1	359.940	-0.510	-0.160	-1.080
2020/01/31 15:02:49.2	359.950	-0.560	-0.120	-1.120
2020/01/31 15:02:49.3	359.950	-0.600	-0.080	-1.150
2020/01/31 15:02:49.4	359.950	-0.640	-0.040	-1.170
2020/01/31 15:02:49.5	359.950	-0.680	0.000	-1.190
2020/01/31 15:02:49.6	359.950	-0.720	0.050	-1.200
2020/01/31 15:02:49.7	359.940	-0.750	0.100	-1.210
2020/01/31 15:02:49.8	359.930	-0.780	0.150	-1.210
2020/01/31 15:02:49.9	359.920	-0.810	0.200	-1.200
2020/01/31 15:02:50.0	359.910	-0.840	0.250	-1.190
2020/01/31 15:02:50.1	359.890	-0.860	0.300	-1.170
2020/01/31 15:02:50.2	359.870	-0.880	0.350	-1.150
2020/01/31 15:02:50.3	359.860	-0.900	0.400	-1.130
2020/01/31 15:02:50.4	359.840	-0.910	0.450	-1.110
2020/01/31 15:02:50.5	359.820	-0.920	0.490	-1.080
2020/01/31 15:02:50.6	359.790	-0.920	0.530	-1.040
2020/01/31 15:02:50.7	359.770	-0.920	0.570	-1.010
2020/01/31 15:02:50.8	359.750	-0.920	0.610	-0.970
2020/01/31 15:02:50.9	359.720	-0.920	0.640	-0.930
2020/01/31 15:02:51.0	359.700	-0.910	0.670	-0.890
2020/01/31 15:02:51.1	359.670	-0.900	0.690	-0.850
2020/01/31 15:02:51.2	359.650	-0.880	0.710	-0.800
2020/01/31 15:02:51.3	359.620	-0.860	0.720	-0.760
2020/01/31 15:02:51.4	359.600	-0.830	0.730	-0.710
2020/01/31 15:02:51.5	359.570	-0.800	0.730	-0.670
2020/01/31 15:02:51.6	359.550	-0.770	0.730	-0.620
2020/01/31 15:02:51.7	359.530	-0.730	0.720	-0.580
2020/01/31 15:02:51.8	359.500	-0.690	0.710	-0.530
2020/01/31 15:02:51.9	359.480	-0.650	0.690	-0.480
2020/01/31 15:02:52.0	359.450	-0.600	0.670	-0.420
2020/01/31 15:02:52.1	359.430	-0.550	0.640	-0.370
2020/01/31 15:02:52.2	359.400	-0.500	0.610	-0.320
2020/01/31 15:02:52.3	359.370	-0.450	0.570	-0.260
2020/01/31 15:02:52.4	359.350	-0.390	0.530	-0.210
2020/01/31 15:02:52.5	359.320	-0.330	0.490	-0.150
2020/01/31 15:02:52.6	359.290	-0.270	0.450	-0.090
2020/01/31 15:02:52.7	359.260	-0.210	0.400	-0.030
2020/01/31 15:02:52.8	359.230	-0.150	0.360	0.030
2020/01/31 15:02:52.9	359.200	-0.090	0.310	0.090
2020/01/31 15:02:53.0	359.170	-0.030	0.260	0.150
2020/01/31 15:02:53.1	359.140	0.030	0.210	0.200
2020/01/31 15:02:53.2	359.110	0.090	0.150	0.260
2020/01/31 15:02:53.3	359.070	0.140	0.100	0.320
2020/01/31 15:02:53.4	359.040	0.200	0.040	0.370
2020/01/31 15:02:53.5	359.010	0.250	-0.010	0.420
2020/01/31 15:02:53.6	358.990	0.300	-0.070	0.470
2020/01/31 15:02:53.7	358.950	0.340	-0.130	0.520
2020/01/31 15:02:53.8	358.920	0.390	-0.200	0.560
2020/01/31 15:02:53.9	358.900	0.430	-0.260	0.600
2020/01/31 15:02:54.0	358.880	0.460	-0.320	0.630
2020/01/31 15:02:54.1	358.860	0.490	-0.390	0.660
2020/01/31 15:02:54.2	358.850	0.520	-0.450	0.680
2020/01/31 15:02:54.3	358.830	0.550	-0.520	0.700
2020/01/31 15:02:54.4	358.820	0.570	-0.590	0.710
2020/01/31 15:02:54.5	358.820	0.590	-0.660	0.720
2020/01/31 15:02:54.6	358.810	0.610	-0.730	0.720
2020/01/31 15:02:54.7	358.810	0.620	-0.800	0.720
2020/01/31 15:02:54.8	358.810	0.630	-0.870	0.710
2020/01/31 15:02:54.9	358.820	0.630	-0.930	0.700
2020/01/31 15:02:55.0	358.830	0.630	-1.000	0.690
2020/01/31 15:02:55.1	358.840	0.630	-1.070	0.660
2020/01/31 15:02:55.2	358.850	0.630	-1.130	0.640
2020/01/31 15:02:55.3	358.870	0.630	-1.190	0.610
2020/01/31 15:02:55.4	358.890	0.620	-1.250	0.580
2020/01/31 15:02:55.5	358.910	0.610	-1.300	0.540
2020/01/31 15:02:55.6	358.920	0.600	-1.340	0.500
2020/01/31 15:02:55.7	358.950	0.590	-1.380	0.450
2020/01/31 15:02:55.8	358.980	0.570	-1.420	0.410
2020/01/31 15:02:55.9	359.010	0.560	-1.450	0.360
2020/01/31 15:02:56.0	359.040	0.540	-1.480	0.310
2020/01/31 15:02:56.1	359.070	0.530	-1.490	0.260
2020/01/31 15:02:56.2	359.100	0.510	-1.500	0.210
2020/01/31 15:02:56.3	359.140	0.500	-1.510	0.160
2020/01/31 15:02:56.4	359.180	0.480	-1.500	0.100
2020/01/31 15:02:56.5	359.210	0.460	-1.490	0.050
2020/01/31 15:02:56.6	359.240	0.450	-1.470	-0.010
2020/01/31 15:02:56.7	359.280	0.430	-1.440	-0.060
2020/01/31 15:02:56.8	359.320	0.420	-1.410	-0.110
2020/01/31 15:02:56.9	359.360	0.400	-1.360	-0.160
2020/01/31 15:02:57.0	359.390	0.390	-1.310	-0.210
2020/01/31 15:02:57.1	359.420	0.370	-1.260	-0.250
2020/01/31 15:02:57.2	359.460	0.350	-1.190	-0.290
2020/01/31 15:02:57.3	359.490	0.340	-1.120	-0.330
2020/01/31 15:02:57.4	359.520	0.320	-1.050	-0.360
2020/01/31 15:02:57.5	359.540	0.300	-0.970	-0.390
2020/01/31 15:02:57.6	359.570	0.280	-0.880	-0.420
2020/01/31 15:02:57.7	359.590	0.260	-0.790	-0.450
2020/01/31 15:02:57.8	359.610	0.240	-0.700	-0.470
2020/01/31 15:02:57.9	359.620	0.220	-0.610	-0.490
2020/01/31 15:02:58.0	359.640	0.190	-0.510	-0.500
2020/01/31 15:02:58.1	359.640	0.160	-0.420	-0.520
2020/01/31 15:02:58.2	359.650	0.140	-0.320	-0.530
2020/01/31 15:02:58.3	359.650	0.110	-0.220	-0.540
2020/01/31 15:02:58.4	359.660	0.070	-0.130	-0.550
2020/01/31 15:02:58.5	359.660	0.040	-0.040	-0.560
2020/01/31 15:02:58.6	359.660	0.000	0.050	-0.560
2020/01/31 15:02:58.7	359.660	-0.030	0.140	-0.570
2020/01/31 15:02:58.8	359.660	-0.070	0.220	-0.580
2020/01/31 15:02:58.9	359.660	-0.110	0.300	-0.590
2020/01/31 15:02:59.0	359.650	-0.150	0.370	-0.590
2020/01/31 15:02:59.1	359.650	-0.190	0.430	-0.600
2020/01/31 15:02:59.2	359.650	-0.240	0.490	-0.610
2020/01/31 15:02:59.3	359.650	-0.280	0.550	-0.620
2020/01/31 15:02:59.4	359.650	-0.320	0.590	-0.630
2020/01/31 15:02:59.5	359.650	-0.360	0.630	-0.640
2020/01/31 15:02:59.6	359.650	-0.400	0.660	-0.650
2020/01/31 15:02:59.7	359.650	-0.430	0.690	-0.660
2020/01/31 15:02:59.8	359.660	-0.470	0.710	-0.670
2020/01/31 15:02:59.9	359.660	-0.500	0.720	-0.680
2020/01/31 15:03:00.0	359.660	-0.530	0.720	-0.680
2020/01/31 15:03:00.1	359.660	-0.560	0.720	-0.680
2020/01/31 15:03:00.2	359.650	-0.580	0.720	-0.680
2020/01/31 15:03:00.3	359.650	-0.600	0.710	-0.680
2020/01/31 15:03:00.4	359.640	-0.620	0.700	-0.670
2020/01/31 15:03:00.5	359.630	-0.630	0.680	-0.650
2020/01/31 15:03:00.6	359.620	-0.650	0.670	-0.630
2020/01/31 15:03:00.7	359.620	-0.650	0.650	-0.620
2020/01/31 15:03:00.8	359.600	-0.650	0.620	-0.590
2020/01/31 15:03:00.9	359.580	-0.650	0.600	-0.570
2020/01/31 15:03:01.0	359.560	-0.650	0.570	-0.540
2020/01/31 15:03:01.1	359.540	-0.640	0.540	-0.510
2020/01/31 15:03:01.2	359.520	-0.620	0.510	-0.470
2020/01/31 15:03:01.3	359.490	-0.600	0.480	-0.440
2020/01/31 15:03:01.4	359.470	-0.580	0.450	-0.400
2020/01/31 15:03:01.5	359.440	-0.560	0.420	-0.360
2020/01/31 15:03:01.6	359.410	-0.530	0.390	-0.320
2020/01/31 15:03:01.7	359.380	-0.490	0.360	-0.270
2020/01/31 15:03:01.8	359.350	-0.460	0.330	-0.230
2020/01/31 15:03:01.9	359.320	-0.420	0.300	-0.190
2020/01/31 15:03:02.0	359.300	-0.370	0.260	-0.150
2020/01/31 15:03:02.1	359.270	-0.330	0.230	-0.110
2020/01/31 15:03:02.2	359.240	-0.280	0.190	-0.070
2020/01/31 15:03:02.3	359.220	-0.240	0.150	-0.030
2020/01/31 15:03:02.4	359.190	-0.190	0.110	0.010
2020/01/31 15:03:02.5	359.170	-0.140	0.080	0.040
2020/01/31 15:03:02.6	359.140	-0.090	0.040	0.080
2020/01/31 15:03:02.7	359.120	-0.040	-0.000	0.110
2020/01/31 15:03:02.8	359.100	0.010	-0.050	0.150
2020/01/31 15:03:02.9	359.080	0.050	-0.090	0.180
2020/01/31 15:03:03.0	359.070	0.100	-0.130	0.200
2020/01/31 15:03:03.1	359.050	0.140	-0.180	0.230
2020/01/31 15:03:03.2	359.040	0.190	-0.230	0.250
2020/01/31 15:03:03.3	359.020	0.230	-0.270	0.280
2020/01/31 15:03:03.4	359.010	0.260	-0.320	0.300
2020/01/31 15:03:03.5	359.000	0.300	-0.370	0.310
2020/01/31 15:03:03.6	359.000	0.330	-0.410	0.330
2020/01/31 15:03:03.7	358.990	0.360	-0.460	0.340
2020/01/31 15:03:03.8	358.990	0.380	-0.500	0.350
2020/01/31 15:03:03.9	358.980	0.400	-0.540	0.360
2020/01/31 15:03:04.0	358.980	0.420	-0.580	0.360
2020/01/31 15:03:04.1	358.970	0.430	-0.620	0.360
2020/01/31 15:03:04.2	358.970	0.440	-0.650	0.350
2020/01/31 15:03:04.3	358.970	0.440	-0.680	0.340
2020/01/31 15:03:04.4	358.970	0.440	-0.710	0.330
2020/01/31 15:03:04.5	358.970	0.440	-0.730	0.320
2020/01/31 15:03:04.6	358.970	0.430	-0.750	0.300
2020/01/31 15:03:04.7	358.970	0.410	-0.760	0.280
2020/01/31 15:03:04.8	358.970	0.400	-0.770	0.250
2020/01/31 15:03:04.9	358.970	0.380	-0.780	0.220
2020/01/31 15:03:05.0	358.970	0.360	-0.780	0.200
2020/01/31 15:03:05.1	358.980	0.330	-0.780	0.170
2020/01/31 15:03:05.2	358.980	0.300	-0.770	0.140
2020/01/31 15:03:05.3	358.990	0.270	-0.750	0.100
2020/01/31 15:03:05.4	358.990	0.240	-0.740	0.070
2020/01/31 15:03:05.5	359.000	0.210	-0.720	0.040
2020/01/31 15:03:05.6	359.010	0.170	-0.690	-0.000
2020/01/31 15:03:05.7	359.020	0.140	-0.670	-0.040
2020/01/31 15:03:05.8	359.030	0.100	-0.640	-0.080
2020/01/31 15:03:05.9	359.040	0.060	-0.610	-0.110
2020/01/31 15:03:06.0	359.060	0.030	-0.580	-0.150
2020/01/31 15:03:06.1	359.080	-0.010	-0.550	-0.190
2020/01/31 15:03:06.2	359.090	-0.040	-0.520	-0.230
2020/01/31 15:03:06.3	359.110	-0.080	-0.490	-0.270
2020/01/31 15:03:06.4	359.130	-0.110	-0.460	-0.320
2020/01/31 15:03:06.5	359.150	-0.140	-0.430	-0.360
2020/01/31 15:03:06.6	359.170	-0.170	-0.400	-0.400
2020/01/31 15:03:06.7	359.190	-0.200	-0.370	-0.440
2020/01/31 15:03:06.8	359.210	-0.220	-0.350	-0.480
2020/01/31 15:03:06.9	359.230	-0.250	-0.330	-0.530
2020/01/31 15:03:07.0	359.250	-0.270	-0.310	-0.570
2020/01/31 15:03:07.1	359.270	-0.290	-0.290	-0.610
2020/01/31 15:03:07.2	359.290	-0.300	-0.280	-0.660
2020/01/31 15:03:07.3	359.310	-0.310	-0.270	-0.700
2020/01/31 15:03:07.4	359.330	-0.320	-0.270	-0.740
2020/01/31 15:03:07.5	359.340	-0.330	-0.260	-0.780
2020/01/31 15:03:07.6	359.360	-0.330	-0.260	-0.820
2020/01/31 15:03:07.7	359.380	-0.330	-0.270	-0.860
2020/01/31 15:03:07.8	359.390	-0.320	-0.280	-0.890
2020/01/31 15:03:07.9	359.410	-0.320	-0.290	-0.920
2020/01/31 15:03:08.0	359.420	-0.300	-0.300	-0.960
2020/01/31 15:03:08.1	359.430	-0.290	-0.320	-0.980
2020/01/31 15:03:08.2	359.450	-0.270	-0.340	-1.010
2020/01/31 15:03:08.3	359.460	-0.250	-0.360	-1.030
2020/01/31 15:03:08.4	359.470	-0.230	-0.380	-1.050
2020/01/31 15:03:08.5	359.490	-0.200	-0.400	-1.070
2020/01/31 15:03:08.6	359.490	-0.170	-0.420	-1.090
2020/01/31 15:03:08.7	359.510	-0.140	-0.450	-1.100
2020/01/31 15:03:08.8	359.520	-0.100	-0.470	-1.100
2020/01/31 15:03:08.9	359.530	-0.060	-0.500	-1.100
2020/01/31 15:03:09.0	359.540	-0.030	-0.520	-1.100
2020/01/31 15:03:09.1	359.550	0.010	-0.540	-1.090
2020/01/31 15:03:09.2	359.560	0.050	-0.560	-1.070
2020/01/31 15:03:09.3	359.560	0.090	-0.580	-1.060
2020/01/31 15:03:09.4	359.570	0.130	-0.600	-1.040
2020/01/31 15:03:09.5	359.570	0.180	-0.610	-1.010
2020/01/31 15:03:09.6	359.580	0.220	-0.620	-0.980
2020/01/31 15:03:09.7	359.590	0.260	-0.630	-0.950
2020/01/31 15:03:09.8	359.590	0.290	-0.630	-0.920
2020/01/31 15:03:09.9	359.580	0.330	-0.630	-0.890
2020/01/31 15:03:10.0	359.580	0.370	-0.620	-0.860
2020/01/31 15:03:10.1	359.580	0.400	-0.620	-0.820
2020/01/31 15:03:10.2	359.570	0.430	-0.600	-0.790
2020/01/31 15:03:10.3	359.570	0.450	-0.590	-0.750
2020/01/31 15:03:10.4	359.560	0.480	-0.570	-0.720
2020/01/31 15:03:10.5	359.560	0.500	-0.540	-0.680
2020/01/31 15:03:10.6	359.550	0.510	-0.520	-0.650
2020/01/31 15:03:10.7	359.540	0.530	-0.480	-0.610
2020/01/31 15:03:10.8	359.540	0.540	-0.450	-0.580
2020/01/31 15:03:10.9	359.530	0.540	-0.420	-0.560
2020/01/31 15:03:11.0	359.530	0.540	-0.380	-0.530
2020/01/31 15:03:11.1	359.520	0.540	-0.340	-0.500
2020/01/31 15:03:11.2	359.520	0.530	-0.300	-0.480
2020/01/31 15:03:11.3	359.520	0.520	-0.260	-0.450
2020/01/31 15:03:11.4	359.520	0.500	-0.210	-0.430
2020/01/31 15:03:11.5	359.520	0.480	-0.170	-0.400
2020/01/31 15:03:11.6	359.520	0.460	-0.120	-0.380
2020/01/31 15:03:11.7	359.520	0.430	-0.080	-0.360
2020/01/31 15:03:11.8	359.520	0.400	-0.040	-0.340
2020/01/31 15:03:11.9	359.520	0.370	0.010	-0.310
2020/01/31 15:03:12.0	359.520	0.330	0.060	-0.290
2020/01/31 15:03:12.1	359.520	0.300	0.100	-0.270
2020/01/31 15:03:12.2	359.520	0.250	0.150	-0.240
2020/01/31 15:03:12.3	359.520	0.210	0.190	-0.210
2020/01/31 15:03:12.4	359.520	0.170	0.240	-0.190
2020/01/31 15:03:12.5	359.520	0.120	0.280	-0.160
2020/01/31 15:03:12.6	359.510	0.080	0.330	-0.130
2020/01/31 15:03:12.7	359.500	0.030	0.370	-0.100
2020/01/31 15:03:12.8	359.490	-0.020	0.410	-0.060
2020/01/31 15:03:12.9	359.480	-0.070	0.450	-0.030
2020/01/31 15:03:13.0	359.460	-0.120	0.500	0.000
2020/01/31 15:03:13.1	359.440	-0.160	0.540	0.040
2020/01/31 15:03:13.2	359.410	-0.210	0.570	0.080
2020/01/31 15:03:13.3	359.390	-0.260	0.610	0.110
2020/01/31 15:03:13.4	359.350	-0.300	0.650	0.150
2020/01/31 15:03:13.5	359.320	-0.350	0.680	0.190
2020/01/31 15:03:13.6	359.290	-0.390	0.710	0.230
2020/01/31 15:03:13.7	359.250	-0.430	0.740	0.260
2020/01/31 15:03:13.8	359.210	-0.470	0.760	0.290
2020/01/31 15:03:13.9	359.170	-0.500	0.780	0.330
2020/01/31 15:03:14.0	359.130	-0.530	0.790	0.360
2020/01/31 15:03:14.1	359.090	-0.560	0.800	0.390
2020/01/31 15:03:14.2	359.050	-0.580	0.800	0.410
2020/01/31 15:03:14.3	359.000	-0.600	0.800	0.430
2020/01/31 15:03:14.4	358.960	-0.620	0.790	0.450
2020/01/31 15:03:14.5	358.930	-0.630	0.770	0.460
2020/01/31 15:03:14.6	358.890	-0.640	0.740	0.470
2020/01/31 15:03:14.7	358.860	-0.640	0.710	0.480
2020/01/31 15:03:14.8	358.830	-0.640	0.670	0.480
2020/01/31 15:03:14.9	358.800	-0.640	0.620	0.480
2020/01/31 15:03:15.0	358.780	-0.630	0.560	0.470
2020/01/31 15:03:15.1	358.760	-0.610	0.490	0.460
2020/01/31 15:03:15.2	358.740	-0.590	0.420	0.450
2020/01/31 15:03:15.3	358.730	-0.570	0.340	0.430
2020/01/31 15:03:15.4	358.720	-0.540	0.260	0.400
2020/01/31 15:03:15.5	358.720	-0.510	0.170	0.380
2020/01/31 15:03:15.6	358.710	-0.480	0.080	0.340
2020/01/31 15:03:15.7	358.710	-0.440	-0.020	0.310
2020/01/31 15:03:15.8	358.720	-0.400	-0.120	0.270
2020/01/31 15:03:15.9	358.730	-0.360	-0.230	0.230
2020/01/31 15:03:16.0	358.740	-0.310	-0.330	0.190
2020/01/31 15:03:16.1	358.750	-0.270	-0.440	0.140
2020/01/31 15:03:16.2	358.760	-0.220	-0.540	0.100
2020/01/31 15:03:16.3	358.780	-0.180	-0.650	0.050
2020/01/31 15:03:16.4	358.800	-0.130	-0.750	-0.010
2020/01/31 15:03:16.5	358.820	-0.080	-0.850	-0.060
2020/01/31 15:03:16.6	358.840	-0.040	-0.940	-0.120
2020/01/31 15:03:16.7	358.860	0.010	-1.030	-0.180
2020/01/31 15:03:16.8	358.880	0.050	-1.120	-0.240
2020/01/31 15:03:16.9	358.910	0.090	-1.190	-0.300
2020/01/31 15:03:17.0	358.930	0.130	-1.270	-0.360
2020/01/31 15:03:17.1	358.950	0.160	-1.330	-0.430
2020/01/31 15:03:17.2	358.980	0.190	-1.390	-0.490
2020/01/31 15:03:17.3	359.000	0.220	-1.440	-0.550
2020/01/31 15:03:17.4	359.020	0.250	-1.480	-0.620
2020/01/31 15:03:17.5	359.050	0.270	-1.510	-0.680
2020/01/31 15:03:17.6	359.070	0.280	-1.530	-0.740
2020/01/31 15:03:17.7	359.080	0.290	-1.550	-0.800
2020/01/31 15:03:17.8	359.110	0.300	-1.550	-0.860
2020/01/31 15:03:17.9	359.130	0.310	-1.550	-0.910
2020/01/31 15:03:18.0	359.160	0.310	-1.550	-0.960
2020/01/31 15:03:18.1	359.180	0.300	-1.530	-1.010
2020/01/31 15:03:18.2	359.200	0.300	-1.510	-1.050
2020/01/31 15:03:18.3	359.230	0.290	-1.480	-1.090
2020/01/31 15:03:18.4	359.250	0.270	-1.440	-1.130
2020/01/31 15:03:18.5	359.280	0.260	-1.400	-1.160
2020/01/31 15:03:18.6	359.310	0.240	-1.350	-1.190
2020/01/31 15:03:18.7	359.330	0.220	-1.290	-1.210
2020/01/31 15:03:18.8	359.360	0.200	-1.230	-1.230
2020/01/31 15:03:18.9	359.390	0.180	-1.170	-1.240
2020/01/31 15:03:19.0	359.420	0.160	-1.100	-1.250
2020/01/31 15:03:19.1	359.450	0.140	-1.030	-1.260
2020/01/31 15:03:19.2	359.480	0.120	-0.960	-1.260
2020/01/31 15:03:19.3	359.510	0.100	-0.890	-1.250
2020/01/31 15:03:19.4	359.540	0.080	-0.810	-1.240
2020/01/31 15:03:19.5	359.570	0.060	-0.730	-1.230
2020/01/31 15:03:19.6	359.600	0.040	-0.650	-1.220
2020/01/31 15:03:19.7	359.630	0.030	-0.570	-1.200
2020/01/31 15:03:19.8	359.660	0.020	-0.490	-1.170
2020/01/31 15:03:19.9	359.690	0.010	-0.410	-1.150
2020/01/31 15:03:20.0	359.710	0.000	-0.330	-1.110
2020/01/31 15:03:20.1	359.730	-0.000	-0.250	-1.070
2020/01/31 15:03:20.2	359.750	-0.000	-0.170	-1.030
2020/01/31 15:03:20.3	359.770	-0.000	-0.100	-0.980
2020/01/31 15:03:20.4	359.780	0.000	-0.020	-0.930
2020/01/31 15:03:20.5	359.780	0.010	0.060	-0.870
2020/01/31 15:03:20.6	359.780	0.020	0.130	-0.810
2020/01/31 15:03:20.7	359.780	0.030	0.200	-0.730
2020/01/31 15:03:20.8	359.770	0.040	0.270	-0.660
2020/01/31 15:03:20.9	359.760	0.060	0.340	-0.580
2020/01/31 15:03:21.0	359.740	0.070	0.410	-0.510
2020/01/31 15:03:21.1	359.720	0.090	0.470	-0.420
2020/01/31 15:03:21.2	359.690	0.100	0.530	-0.340
2020/01/31 15:03:21.3	359.660	0.120	0.590	-0.260
2020/01/31 15:03:21.4	359.630	0.130	0.640	-0.190
2020/01/31 15:03:21.5	359.590	0.150	0.680	-0.110
2020/01/31 15:03:21.6	359.550	0.160	0.720	-0.030
2020/01/31 15:03:21.7	359.520	0.170	0.760	0.040
2020/01/31 15:03:21.8	359.470	0.190	0.780	0.110
2020/01/31 15:03:21.9	359.430	0.200	0.800	0.170
2020/01/31 15:03:22.0	359.390	0.200	0.810	0.230
2020/01/31 15:03:22.1	359.340	0.210	0.820	0.290
2020/01/31 15:03:22.2	359.300	0.220	0.810	0.340
2020/01/31 15:03:22.3	359.260	0.220	0.800	0.390
2020/01/31 15:03:22.4	359.220	0.220	0.780	0.430
2020/01/31 15:03:22.5	359.190	0.220	0.750	0.460
2020/01/31 15:03:22.6	359.160	0.220	0.710	0.490
2020/01/31 15:03:22.7	359.130	0.220	0.670	0.510
2020/01/31 15:03:22.8	359.110	0.220	0.610	0.520
2020/01/31 15:03:22.9	359.090	0.210	0.560	0.530
2020/01/31 15:03:23.0	359.070	0.210	0.490	0.530
2020/01/31 15:03:23.1	359.060	0.200	0.420	0.530
2020/01/31 15:03:23.2	359.050	0.190	0.340	0.520
2020/01/31 15:03:23.3	359.040	0.180	0.260	0.510
2020/01/31 15:03:23.4	359.040	0.180	0.170	0.490
2020/01/31 15:03:23.5	359.040	0.170	0.090	0.460
2020/01/31 15:03:23.6	359.050	0.160	0.000	0.430
2020/01/31 15:03:23.7	359.050	0.150	-0.090	0.400
2020/01/31 15:03:23.8	359.060	0.140	-0.180	0.360
2020/01/31 15:03:23.9	359.070	0.140	-0.270	0.320
2020/01/31 15:03:24.0	359.080	0.130	-0.360	0.270
2020/01/31 15:03:24.1	359.090	0.120	-0.450	0.230
2020/01/31 15:03:24.2	359.110	0.120	-0.530	0.180
2020/01/31 15:03:24.3	359.120	0.110	-0.600	0.130
2020/01/31 15:03:24.4	359.140	0.100	-0.680	0.080
2020/01/31 15:03:24.5	359.150	0.100	-0.740	0.020
2020/01/31 15:03:24.6	359.170	0.090	-0.800	-0.030
2020/01/31 15:03:24.7	359.180	0.090	-0.850	-0.090
2020/01/31 15:03:24.8	359.200	0.080	-0.900	-0.150
2020/01/31 15:03:24.9	359.230	0.080	-0.940	-0.200
2020/01/31 15:03:25.0	359.250	0.070	-0.970	-0.260
2020/01/31 15:03:25.1	359.270	0.070	-0.990	-0.310
2020/01/31 15:03:25.2	359.300	0.060	-1.000	-0.360
2020/01/31 15:03:25.3	359.320	0.060	-1.010	-0.410
2020/01/31 15:03:25.4	359.350	0.050	-1.010	-0.460
2020/01/31 15:03:25.5	359.370	0.040	-1.000	-0.510
2020/01/31 15:03:25.6	359.400	0.030	-0.980	-0.550
2020/01/31 15:03:25.7	359.420	0.020	-0.950	-0.580
2020/01/31 15:03:25.8	359.440	0.010	-0.920	-0.620
2020/01/31 15:03:25.9	359.460	0.000	-0.880	-0.640
2020/01/31 15:03:26.0	359.470	-0.010	-0.830	-0.670
2020/01/31 15:03:26.1	359.490	-0.020	-0.780	-0.690
2020/01/31 15:03:26.2	359.500	-0.030	-0.720	-0.700
2020/01/31 15:03:26.3	359.510	-0.050	-0.660	-0.710
2020/01/31 15:03:26.4	359.520	-0.060	-0.600	-0.720
2020/01/31 15:03:26.5	359.520	-0.080	-0.530	-0.720
2020/01/31 15:03:26.6	359.530	-0.090	-0.460	-0.720
2020/01/31 15:03:26.7	359.540	-0.110	-0.390	-0.720
2020/01/31 15:03:26.8	359.540	-0.130	-0.320	-0.710
2020/01/31 15:03:26.9	359.530	-0.140	-0.250	-0.700
2020/01/31 15:03:27.0	359.530	-0.160	-0.180	-0.690
2020/01/31 15:03:27.1	359.530	-0.180	-0.110	-0.680
2020/01/31 15:03:27.2	359.530	-0.190	-0.050	-0.670
2020/01/31 15:03:27.3	359.530	-0.210	0.010	-0.650
2020/01/31 15:03:27.4	359.530	-0.220	0.070	-0.640
2020/01/31 15:03:27.5	359.530	-0.230	0.120	-0.630
2020/01/31 15:03:27.6	359.530	-0.250	0.160	-0.620
2020/01/31 15:03:27.7	359.530	-0.260	0.200	-0.610
2020/01/31 15:03:27.8	359.530	-0.270	0.230	-0.600
2020/01/31 15:03:27.9	359.540	-0.270	0.260	-0.600
2020/01/31 15:03:28.0	359.540	-0.280	0.270	-0.590
2020/01/31 15:03:28.1	359.550	-0.290	0.290	-0.590
2020/01/31 15:03:28.2	359.550	-0.290	0.290	-0.590
2020/01/31 15:03:28.3	359.560	-0.290	0.290	-0.590
2020/01/31 15:03:28.4	359.570	-0.290	0.280	-0.590
2020/01/31 15:03:28.5	359.580	-0.290	0.270	-0.600
2020/01/31 15:03:28.6	359.590	-0.290	0.250	-0.600
2020/01/31 15:03:28.7	359.610	-0.290	0.230	-0.610
2020/01/31 15:03:28.8	359.610	-0.280	0.200	-0.610
2020/01/31 15:03:28.9	359.620	-0.280	0.170	-0.620
2020/01/31 15:03:29.0	359.630	-0.270	0.140	-0.630
2020/01/31 15:03:29.1	359.640	-0.260	0.100	-0.640
2020/01/31 15:03:29.2	359.650	-0.250	0.060	-0.650
2020/01/31 15:03:29.3	359.670	-0.250	0.020	-0.660
2020/01/31 15:03:29.4	359.680	-0.240	-0.020	-0.670
2020/01/31 15:03:29.5	359.690	-0.230	-0.060	-0.680
2020/01/31 15:03:29.6	359.710	-0.220	-0.100	-0.700
2020/01/31 15:03:29.7	359.720	-0.200	-0.140	-0.710
2020/01/31 15:03:29.8	359.740	-0.190	-0.180	-0.720
2020/01/31 15:03:29.9	359.760	-0.180	-0.220	-0.730
2020/01/31 15:03:30.0	359.780	-0.170	-0.260	-0.740
2020/01/31 15:03:30.1	359.800	-0.160	-0.290	-0.750
2020/01/31 15:03:30.2	359.830	-0.140	-0.330	-0.760
2020/01/31 15:03:30.3	359.850	-0.130	-0.360	-0.770
2020/01/31 15:03:30.4	359.880	-0.120	-0.390	-0.780
2020/01/31 15:03:30.5	359.900	-0.110	-0.420	-0.780
2020/01/31 15:03:30.6	359.930	-0.100	-0.450	-0.790
2020/01/31 15:03:30.7	359.950	-0.090	-0.470	-0.790
2020/01/31 15:03:30.8	359.980	-0.080	-0.480	-0.780
2020/01/31 15:03:30.9	0.000	-0.070	-0.500	-0.780
2020/01/31 15:03:31.0	0.010	-0.060	-0.510	-0.770
2020/01/31 15:03:31.1	0.030	-0.060	-0.520	-0.760
2020/01/31 15:03:31.2	0.040	-0.050	-0.520	-0.750
2020/01/31 15:03:31.3	0.050	-0.050	-0.520	-0.730
2020/01/31 15:03:31.4	0.050	-0.040	-0.510	-0.710
2020/01/31 15:03:31.5	0.050	-0.040	-0.500	-0.680
2020/01/31 15:03:31.6	0.050	-0.040	-0.480	-0.660
2020/01/31 15:03:31.7	0.040	-0.030	-0.460	-0.620
2020/01/31 15:03:31.8	0.030	-0.030	-0.440	-0.590
2020/01/31 15:03:31.9	0.020	-0.030	-0.410	-0.550
2020/01/31 15:03:32.0	0.000	-0.030	-0.370	-0.510
2020/01/31 15:03:32.1	359.970	-0.030	-0.340	-0.470
2020/01/31 15:03:32.2	359.950	-0.030	-0.300	-0.430
2020/01/31 15:03:32.3	359.920	-0.030	-0.250	-0.380
2020/01/31 15:03:32.4	359.890	-0.040	-0.210	-0.330
2020/01/31 15:03:32.5	359.850	-0.040	-0.170	-0.290
2020/01/31 15:03:32.6	359.810	-0.040	-0.120	-0.240
2020/01/31 15:03:32.7	359.780	-0.040	-0.070	-0.190
2020/01/31 15:03:32.8	359.740	-0.040	-0.030	-0.140
2020/01/31 15:03:32.9	359.700	-0.040	0.010	-0.090
2020/01/31 15:03:33.0	359.660	-0.040	0.050	-0.040
2020/01/31 15:03:33.1	359.620	-0.040	0.080	-0.000
2020/01/31 15:03:33.2	359.580	-0.040	0.110	0.040
2020/01/31 15:03:33.3	359.540	-0.030	0.130	0.080
2020/01/31 15:03:33.4	359.510	-0.030	0.140	0.110
2020/01/31 15:03:33.5	359.480	-0.020	0.150	0.130
2020/01/31 15:03:33.6	359.440	-0.020	0.150	0.160
2020/01/31 15:03:33.7	359.420	-0.010	0.140	0.170
2020/01/31 15:03:33.8	359.400	-0.000	0.130	0.180
2020/01/31 15:03:33.9	359.380	0.010	0.110	0.180
2020/01/31 15:03:34.0	359.370	0.020	0.070	0.180
2020/01/31 15:03:34.1	359.360	0.040	0.040	0.170
2020/01/31 15:03:34.2	359.350	0.050	-0.010	0.160
2020/01/31 15:03:34.3	359.350	0.070	-0.060	0.140
2020/01/31 15:03:34.4	359.350	0.090	-0.120	0.110
2020/01/31 15:03:34.5	359.350	0.100	-0.190	0.080
2020/01/31 15:03:34.6	359.360	0.130	-0.260	0.050
2020/01/31 15:03:34.7	359.360	0.150	-0.330	0.020
2020/01/31 15:03:34.8	359.370	0.170	-0.400	-0.020
2020/01/31 15:03:34.9	359.380	0.190	-0.480	-0.060
2020/01/31 15:03:35.0	359.390	0.210	-0.560	-0.100
2020/01/31 15:03:35.1	359.410	0.240	-0.640	-0.140
2020/01/31 15:03:35.2	359.420	0.260	-0.720	-0.180
2020/01/31 15:03:35.3	359.440	0.290	-0.800	-0.230
2020/01/31 15:03:35.4	359.460	0.310	-0.880	-0.270
2020/01/31 15:03:35.5	359.480	0.330	-0.950	-0.320
2020/01/31 15:03:35.6	359.510	0.350	-1.020	-0.370
2020/01/31 15:03:35.7	359.540	0.380	-1.090	-0.420
2020/01/31 15:03:35.8	359.570	0.400	-1.150	-0.470
2020/01/31 15:03:35.9	359.600	0.420	-1.200	-0.510
2020/01/31 15:03:36.0	359.630	0.440	-1.240	-0.560
2020/01/31 15:03:36.1	359.670	0.450	-1.280	-0.610
2020/01/31 15:03:36.2	359.710	0.470	-1.310	-0.660
2020/01/31 15:03:36.3	359.740	0.480	-1.340	-0.700
2020/01/31 15:03:36.4	359.780	0.490	-1.350	-0.750
2020/01/31 15:03:36.5	359.820	0.510	-1.350	-0.790
2020/01/31 15:03:36.6	359.860	0.510	-1.340	-0.830
2020/01/31 15:03:36.7	359.900	0.520	-1.330	-0.870
2020/01/31 15:03:36.8	359.940	0.530	-1.300	-0.900
2020/01/31 15:03:36.9	359.980	0.530	-1.270	-0.930
2020/01/31 15:03:37.0	0.020	0.530	-1.230	-0.950
2020/01/31 15:03:37.1	0.060	0.520	-1.180	-0.970
2020/01/31 15:03:37.2	0.100	0.520	-1.120	-0.980
2020/01/31 15:03:37.3	0.130	0.510	-1.050	-0.990
2020/01/31 15:03:37.4	0.160	0.500	-0.980	-0.990
2020/01/31 15:03:37.5	0.190	0.490	-0.890	-0.990
2020/01/31 15:03:37.6	0.220	0.470	-0.800	-0.980
2020/01/31 15:03:37.7	0.240	0.460	-0.710	-0.960
2020/01/31 15:03:37.8	0.260	0.430	-0.610	-0.940
2020/01/31 15:03:37.9	0.280	0.410	-0.500	-0.910
2020/01/31 15:03:38.0	0.290	0.380	-0.390	-0.880
2020/01/31 15:03:38.1	0.300	0.350	-0.280	-0.850
2020/01/31 15:03:38.2	0.310	0.320	-0.160	-0.810
2020/01/31 15:03:38.3	0.320	0.290	-0.050	-0.770
2020/01/31 15:03:38.4	0.320	0.250	0.070	-0.730
2020/01/31 15:03:38.5	0.320	0.210	0.190	-0.680
2020/01/31 15:03:38.6	0.310	0.160	0.300	-0.640
2020/01/31 15:03:38.7	0.310	0.120	0.410	-0.590
2020/01/31 15:03:38.8	0.300	0.070	0.520	-0.550
2020/01/31 15:03:38.9	0.280	0.020	0.630	-0.500
2020/01/31 15:03:39.0	0.270	-0.030	0.730	-0.460
2020/01/31 15:03:39.1	0.250	-0.080	0.820	-0.420
2020/01/31 15:03:39.2	0.230	-0.130	0.910	-0.380
2020/01/31 15:03:39.3	0.210	-0.180	0.990	-0.340
2020/01/31 15:03:39.4	0.180	-0.230	1.060	-0.310
2020/01/31 15:03:39.5	0.160	-0.290	1.120	-0.270
2020/01/31 15:03:39.6	0.140	-0.340	1.170	-0.240
2020/01/31 15:03:39.7	0.110	-0.390	1.220	-0.210
2020/01/31 15:03:39.8	0.080	-0.430	1.250	-0.190
2020/01/31 15:03:39.9	0.060	-0.480	1.270	-0.170
2020/01/31 15:03:40.0	0.030	-0.520	1.290	-0.150
2020/01/31 15:03:40.1	0.000	-0.560	1.290	-0.140
2020/01/31 15:03:40.2	359.980	-0.600	1.280	-0.130
2020/01/31 15:03:40.3	359.960	-0.630	1.260	-0.120
2020/01/31 15:03:40.4	359.940	-0.660	1.220	-0.120
2020/01/31 15:03:40.5	359.920	-0.680	1.180	-0.130
2020/01/31 15:03:40.6	359.910	-0.700	1.130	-0.130
2020/01/31 15:03:40.7	359.890	-0.720	1.070	-0.150
2020/01/31 15:03:40.8	359.880	-0.730	1.000	-0.170
2020/01/31 15:03:40.9	359.870	-0.730	0.910	-0.190
2020/01/31 15:03:41.0	359.870	-0.730	0.820	-0.210
2020/01/31 15:03:41.1	359.870	-0.730	0.720	-0.230
2020/01/31 15:03:41.2	359.870	-0.720	0.620	-0.250
2020/01/31 15:03:41.3	359.870	-0.700	0.510	-0.280
2020/01/31 15:03:41.4	359.880	-0.680	0.390	-0.310
2020/01/31 15:03:41.5	359.880	-0.660	0.270	-0.340
2020/01/31 15:03:41.6	359.890	-0.630	0.150	-0.360
2020/01/31 15:03:41.7	359.890	-0.600	0.030	-0.390
2020/01/31 15:03:41.8	359.900	-0.560	-0.090	-0.420
2020/01/31 15:03:41.9	359.910	-0.530	-0.210	-0.440
2020/01/31 15:03:42.0	359.920	-0.490	-0.330	-0.470
2020/01/31 15:03:42.1	359.920	-0.450	-0.440	-0.490
2020/01/31 15:03:42.2	359.930	-0.400	-0.550	-0.520
2020/01/31 15:03:42.3	359.940	-0.360	-0.660	-0.540
2020/01/31 15:03:42.4	359.940	-0.320	-0.750	-0.560
2020/01/31 15:03:42.5	359.950	-0.270	-0.850	-0.570
2020/01/31 15:03:42.6	359.950	-0.230	-0.930	-0.590
2020/01/31 15:03:42.7	359.950	-0.190	-1.000	-0.600
2020/01/31 15:03:42.8	359.950	-0.150	-1.070	-0.610
2020/01/31 15:03:42.9	359.960	-0.110	-1.120	-0.620
2020/01/31 15:03:43.0	359.960	-0.080	-1.170	-0.620
2020/01/31 15:03:43.1	359.960	-0.040	-1.210	-0.620
2020/01/31 15:03:43.2	359.950	-0.010	-1.240	-0.620
2020/01/31 15:03:43.3	359.950	0.010	-1.260	-0.620
2020/01/31 15:03:43.4	359.950	0.040	-1.270	-0.610
2020/01/31 15:03:43.5	359.950	0.060	-1.280	-0.600
2020/01/31 15:03:43.6	359.950	0.080	-1.270	-0.590
2020/01/31 15:03:43.7	359.940	0.090	-1.260	-0.580
2020/01/31 15:03:43.8	359.940	0.100	-1.240	-0.560
2020/01/31 15:03:43.9	359.930	0.110	-1.210	-0.550
2020/01/31 15:03:44.0	359.920	0.120	-1.170	-0.530
2020/01/31 15:03:44.1	359.920	0.120	-1.140	-0.510
2020/01/31 15:03:44.2	359.910	0.120	-1.090	-0.490
2020/01/31 15:03:44.3	359.900	0.120	-1.040	-0.470
2020/01/31 15:03:44.4	359.900	0.110	-0.990	-0.450
2020/01/31 15:03:44.5	359.890	0.110	-0.940	-0.430
2020/01/31 15:03:44.6	359.880	0.100	-0.880	-0.410
2020/01/31 15:03:44.7	359.870	0.100	-0.820	-0.390
2020/01/31 15:03:44.8	359.870	0.090	-0.760	-0.370
2020/01/31 15:03:44.9	359.860	0.080	-0.700	-0.350
2020/01/31 15:03:45.0	359.860	0.070	-0.640	-0.330
2020/01/31 15:03:45.1	359.860	0.060	-0.590	-0.310
2020/01/31 15:03:45.2	359.860	0.060	-0.530	-0.300
2020/01/31 15:03:45.3	359.860	0.050	-0.480	-0.280
2020/01/31 15:03:45.4	359.860	0.050	-0.430	-0.270
2020/01/31 15:03:45.5	359.860	0.050	-0.380	-0.250
2020/01/31 15:03:45.6	359.860	0.050	-0.340	-0.240
2020/01/31 15:03:45.7	359.860	0.050	-0.300	-0.220
2020/01/31 15:03:45.8	359.860	0.060	-0.260	-0.210
2020/01/31 15:03:45.9	359.860	0.070	-0.220	-0.200
2020/01/31 15:03:46.0	359.870	0.080	-0.190	-0.180
2020/01/31 15:03:46.1	359.880	0.090	-0.160	-0.170
2020/01/31 15:03:46.2	359.890	0.110	-0.140	-0.160
2020/01/31 15:03:46.3	359.890	0.120	-0.110	-0.150
2020/01/31 15:03:46.4	359.900	0.150	-0.090	-0.130
2020/01/31 15:03:46.5	359.910	0.170	-0.080	-0.120
2020/01/31 15:03:46.6	359.930	0.190	-0.060	-0.110
2020/01/31 15:03:46.7	359.950	0.220	-0.050	-0.100
2020/01/31 15:03:46.8	359.960	0.250	-0.040	-0.090
2020/01/31 15:03:46.9	359.970	0.280	-0.030	-0.080
2020/01/31 15:03:47.0	359.990	0.310	-0.020	-0.070
2020/01/31 15:03:47.1	0.000	0.340	-0.020	-0.060
2020/01/31 15:03:47.2	0.010	0.370	-0.010	-0.050
2020/01/31 15:03:47.3	0.020	0.390	-0.010	-0.040
2020/01/31 15:03:47.4	0.030	0.420	-0.000	-0.020
2020/01/31 15:03:47.5	0.040	0.440	-0.000	-0.010
2020/01/31 15:03:47.6	0.040	0.470	0.000	-0.000
2020/01/31 15:03:47.7	0.050	0.480	0.010	0.010
2020/01/31 15:03:47.8	0.050	0.500	0.010	0.020
2020/01/31 15:03:47.9	0.050	0.510	0.010	0.030
2020/01/31 15:03:48.0	0.050	0.520	0.020	0.030
2020/01/31 15:03:48.1	0.050	0.520	0.020	0.040
2020/01/31 15:03:48.2	0.050	0.510	0.030	0.050
2020/01/31 15:03:48.3	0.040	0.510	0.030	0.050
2020/01/31 15:03:48.4	0.030	0.490	0.040	0.050
2020/01/31 15:03:48.5	0.020	0.480	0.040	0.040
2020/01/31 15:03:48.6	0.010	0.450	0.040	0.040
2020/01/31 15:03:48.7	359.990	0.430	0.050	0.030
2020/01/31 15:03:48.8	359.980	0.390	0.050	0.010
2020/01/31 15:03:48.9	359.970	0.360	0.050	-0.000
2020/01/31 15:03:49.0	359.960	0.320	0.050	-0.020
2020/01/31 15:03:49.1	359.950	0.280	0.040	-0.040
2020/01/31 15:03:49.2	359.940	0.230	0.040	-0.070
2020/01/31 15:03:49.3	359.930	0.180	0.030	-0.090
2020/01/31 15:03:49.4	359.920	0.130	0.020	-0.120
2020/01/31 15:03:49.5	359.920	0.080	0.010	-0.160
2020/01/31 15:03:49.6	359.910	0.020	-0.000	-0.190
2020/01/31 15:03:49.7	359.910	-0.030	-0.020	-0.230
2020/01/31 15:03:49.8	359.900	-0.080	-0.040	-0.270
2020/01/31 15:03:49.9	359.900	-0.130	-0.060	-0.320
2020/01/31 15:03:50.0	359.900	-0.190	-0.090	-0.360
2020/01/31 15:03:50.1	359.900	-0.230	-0.110	-0.410
2020/01/31 15:03:50.2	359.910	-0.280	-0.150	-0.450
2020/01/31 15:03:50.3	359.910	-0.320	-0.180	-0.500
2020/01/31 15:03:50.4	359.920	-0.360	-0.220	-0.550
2020/01/31 15:03:50.5	359.930	-0.400	-0.260	-0.600
2020/01/31 15:03:50.6	359.940	-0.430	-0.300	-0.660
2020/01/31 15:03:50.7	359.950	-0.450	-0.350	-0.710
2020/01/31 15:03:50.8	359.970	-0.470	-0.390	-0.770
2020/01/31 15:03:50.9	359.990	-0.490	-0.440	-0.820
2020/01/31 15:03:51.0	0.010	-0.500	-0.490	-0.880
2020/01/31 15:03:51.1	0.030	-0.500	-0.550	-0.930
2020/01/31 15:03:51.2	0.060	-0.500	-0.600	-0.980
2020/01/31 15:03:51.3	0.080	-0.500	-0.650	-1.030
2020/01/31 15:03:51.4	0.110	-0.490	-0.710	-1.080
2020/01/31 15:03:51.5	0.130	-0.470	-0.760	-1.130
2020/01/31 15:03:51.6	0.160	-0.450	-0.810	-1.170
2020/01/31 15:03:51.7	0.170	-0.430	-0.850	-1.210
2020/01/31 15:03:51.8	0.200	-0.400	-0.900	-1.250
2020/01/31 15:03:51.9	0.220	-0.370	-0.940	-1.280
2020/01/31 15:03:52.0	0.240	-0.330	-0.970	-1.310
2020/01/31 15:03:52.1	0.260	-0.300	-1.000	-1.330
2020/01/31 15:03:52.2	0.270	-0.260	-1.020	-1.350
2020/01/31 15:03:52.3	0.280	-0.220	-1.040	-1.360
2020/01/31 15:03:52.4	0.300	-0.180	-1.040	-1.370
2020/01/31 15:03:52.5	0.300	-0.140	-1.040	-1.370
2020/01/31 15:03:52.6	0.310	-0.090	-1.040	-1.360
2020/01/31 15:03:52.7	0.310	-0.050	-1.020	-1.350
2020/01/31 15:03:52.8	0.310	-0.010	-1.000	-1.330
2020/01/31 15:03:52.9	0.310	0.030	-0.970	-1.310
2020/01/31 15:03:53.0	0.300	0.070	-0.930	-1.280
2020/01/31 15:03:53.1	0.300	0.110	-0.890	-1.240
2020/01/31 15:03:53.2	0.290	0.140	-0.840	-1.200
2020/01/31 15:03:53.3	0.280	0.170	-0.780	-1.160
2020/01/31 15:03:53.4	0.270	0.210	-0.720	-1.110
2020/01/31 15:03:53.5	0.260	0.230	-0.650	-1.070
2020/01/31 15:03:53.6	0.250	0.260	-0.570	-1.010
2020/01/31 15:03:53.7	0.240	0.280	-0.500	-0.950
2020/01/31 15:03:53.8	0.220	0.300	-0.420	-0.890
2020/01/31 15:03:53.9	0.210	0.320	-0.340	-0.830
2020/01/31 15:03:54.0	0.200	0.340	-0.250	-0.770
2020/01/31 15:03:54.1	0.190	0.350	-0.170	-0.710
2020/01/31 15:03:54.2	0.180	0.360	-0.090	-0.650
2020/01/31 15:03:54.3	0.180	0.370	-0.010	-0.590
2020/01/31 15:03:54.4	0.170	0.370	0.070	-0.520
2020/01/31 15:03:54.5	0.170	0.370	0.140	-0.460
2020/01/31 15:03:54.6	0.160	0.370	0.210	-0.400
2020/01/31 15:03:54.7	0.160	0.370	0.280	-0.340
2020/01/31 15:03:54.8	0.160	0.370	0.340	-0.280
2020/01/31 15:03:54.9	0.160	0.370	0.390	-0.220
2020/01/31 15:03:55.0	0.160	0.360	0.450	-0.160
2020/01/31 15:03:55.1	0.160	0.350	0.490	-0.110
2020/01/31 15:03:55.2	0.160	0.340	0.540	-0.050
2020/01/31 15:03:55.3	0.150	0.330	0.570	0.000
2020/01/31 15:03:55.4	0.150	0.320	0.600	0.050
2020/01/31 15:03:55.5	0.150	0.300	0.630	0.110
2020/01/31 15:03:55.6	0.140	0.290	0.650	0.160
2020/01/31 15:03:55.7	0.140	0.270	0.670	0.210
2020/01/31 15:03:55.8	0.130	0.250	0.690	0.260
2020/01/31 15:03:55.9	0.120	0.230	0.700	0.310
2020/01/31 15:03:56.0	0.100	0.210	0.700	0.360
2020/01/31 15:03:56.1	0.080	0.190	0.700	0.400
2020/01/31 15:03:56.2	0.070	0.170	0.700	0.450
2020/01/31 15:03:56.3	0.040	0.140	0.700	0.490
2020/01/31 15:03:56.4	0.020	0.120	0.690	0.530
2020/01/31 15:03:56.5	0.000	0.090	0.680	0.570
2020/01/31 15:03:56.6	359.970	0.060	0.670	0.600
2020/01/31 15:03:56.7	359.940	0.030	0.650	0.630
2020/01/31 15:03:56.8	359.910	0.000	0.630	0.660
2020/01/31 15:03:56.9	359.890	-0.020	0.610	0.680
2020/01/31 15:03:57.0	359.860	-0.050	0.580	0.700
2020/01/31 15:03:57.1	359.830	-0.080	0.550	0.710
2020/01/31 15:03:57.2	359.810	-0.110	0.510	0.720
2020/01/31 15:03:57.3	359.780	-0.140	0.480	0.720
2020/01/31 15:03:57.4	359.760	-0.170	0.430	0.720
2020/01/31 15:03:57.5	359.740	-0.200	0.390	0.710
2020/01/31 15:03:57.6	359.720	-0.230	0.350	0.690
2020/01/31 15:03:57.7	359.700	-0.260	0.290	0.670
2020/01/31 15:03:57.8	359.690	-0.280	0.240	0.630
2020/01/31 15:03:57.9	359.690	-0.310	0.180	0.600
2020/01/31 15:03:58.0	359.680	-0.330	0.120	0.550
2020/01/31 15:03:58.1	359.680	-0.360	0.050	0.500
2020/01/31 15:03:58.2	359.680	-0.380	-0.020	0.440
2020/01/31 15:03:58.3	359.690	-0.390	-0.090	0.380
2020/01/31 15:03:58.4	359.700	-0.410	-0.160	0.310
2020/01/31 15:03:58.5	359.710	-0.420	-0.240	0.230
2020/01/31 15:03:58.6	359.730	-0.440	-0.320	0.160
2020/01/31 15:03:58.7	359.760	-0.450	-0.390	0.070
2020/01/31 15:03:58.8	359.780	-0.450	-0.470	-0.020
2020/01/31 15:03:58.9	359.810	-0.460	-0.550	-0.110
2020/01/31 15:03:59.0	359.840	-0.460	-0.620	-0.200
2020/01/31 15:03:59.1	359.870	-0.460	-0.700	-0.290
2020/01/31 15:03:59.2	359.900	-0.460	-0.770	-0.380
2020/01/31 15:03:59.3	359.930	-0.460	-0.840	-0.470
2020/01/31 15:03:59.4	359.960	-0.450	-0.910	-0.560
2020/01/31 15:03:59.5	359.990	-0.440	-0.970	-0.650
2020/01/31 15:03:59.6	0.020	-0.430	-1.020	-0.730
2020/01/31 15:03:59.7	0.060	-0.420	-1.070	-0.820
2020/01/31 15:03:59.8	0.090	-0.410	-1.120	-0.890
2020/01/31 15:03:59.9	0.120	-0.390	-1.160	-0.970
2020/01/31 15:04:00.0	0.150	-0.380	-1.190	-1.030
2020/01/31 15:04:00.1	0.180	-0.360	-1.220	-1.100
2020/01/31 15:04:00.2	0.210	-0.340	-1.230	-1.150
2020/01/31 15:04:00.3	0.230	-0.320	-1.250	-1.210
2020/01/31 15:04:00.4	0.260	-0.300	-1.250	-1.250
2020/01/31 15:04:00.5	0.280	-0.270	-1.250	-1.290
2020/01/31 15:04:00.6	0.300	-0.250	-1.240	-1.320
2020/01/31 15:04:00.7	0.320	-0.220	-1.230	-1.350
2020/01/31 15:04:00.8	0.330	-0.200	-1.210	-1.370
2020/01/31 15:04:00.9	0.350	-0.170	-1.180	-1.380
2020/01/31 15:04:01.0	0.360	-0.150	-1.150	-1.390
2020/01/31 15:04:01.1	0.370	-0.120	-1.110	-1.390
2020/01/31 15:04:01.2	0.380	-0.090	-1.070	-1.380
2020/01/31 15:04:01.3	0.380	-0.060	-1.030	-1.360
2020/01/31 15:04:01.4	0.380	-0.040	-0.980	-1.340
2020/01/31 15:04:01.5	0.390	-0.010	-0.930	-1.310
2020/01/31 15:04:01.6	0.380	0.020	-0.870	-1.270
2020/01/31 15:04:01.7	0.370	0.040	-0.820	-1.230
2020/01/31 15:04:01.8	0.370	0.070	-0.760	-1.190
2020/01/31 15:04:01.9	0.360	0.100	-0.700	-1.140
2020/01/31 15:04:02.0	0.340	0.120	-0.640	-1.080
2020/01/31 15:04:02.1	0.330	0.150	-0.580	-1.020
2020/01/31 15:04:02.2	0.320	0.170	-0.520	-0.960
2020/01/31 15:04:02.3	0.300	0.200	-0.460	-0.890
2020/01/31 15:04:02.4	0.280	0.220	-0.400	-0.820
2020/01/31 15:04:02.5	0.260	0.240	-0.350	-0.750
2020/01/31 15:04:02.6	0.240	0.260	-0.300	-0.680
2020/01/31 15:04:02.7	0.230	0.290	-0.240	-0.610
2020/01/31 15:04:02.8	0.210	0.310	-0.200	-0.530
2020/01/31 15:04:02.9	0.190	0.330	-0.150	-0.460
2020/01/31 15:04:03.0	0.170	0.350	-0.110	-0.380
2020/01/31 15:04:03.1	0.150	0.370	-0.080	-0.310
2020/01/31 15:04:03.2	0.140	0.390	-0.050	-0.240
2020/01/31 15:04:03.3	0.120	0.410	-0.020	-0.160
2020/01/31 15:04:03.4	0.100	0.430	-0.000	-0.090
2020/01/31 15:04:03.5	0.080	0.450	0.020	-0.020
2020/01/31 15:04:03.6	0.060	0.470	0.030	0.050
2020/01/31 15:04:03.7	0.050	0.480	0.030	0.110
2020/01/31 15:04:03.8	0.040	0.500	0.040	0.170
2020/01/31 15:04:03.9	0.020	0.520	0.030	0.230
2020/01/31 15:04:04.0	0.010	0.530	0.030	0.280
2020/01/31 15:04:04.1	0.000	0.550	0.020	0.330
2020/01/31 15:04:04.2	359.990	0.560	0.010	0.370
2020/01/31 15:04:04.3	359.990	0.570	-0.010	0.400
2020/01/31 15:04:04.4	359.980	0.580	-0.030	0.430
2020/01/31 15:04:04.5	359.980	0.590	-0.050	0.460
2020/01/31 15:04:04.6	359.980	0.600	-0.070	0.470
2020/01/31 15:04:04.7	359.980	0.600	-0.100	0.480
2020/01/31 15:04:04.8	359.990	0.600	-0.130	0.490
2020/01/31 15:04:04.9	0.000	0.600	-0.160	0.480
2020/01/31 15:04:05.0	0.010	0.600	-0.190	0.470
2020/01/31 15:04:05.1	0.020	0.600	-0.220	0.450
2020/01/31 15:04:05.2	0.040	0.590	-0.250	0.430
2020/01/31 15:04:05.3	0.060	0.580	-0.280	0.400
2020/01/31 15:04:05.4	0.080	0.560	-0.310	0.370
2020/01/31 15:04:05.5	0.100	0.550	-0.340	0.330
2020/01/31 15:04:05.6	0.120	0.530	-0.360	0.290
2020/01/31 15:04:05.7	0.140	0.500	-0.380	0.250
2020/01/31 15:04:05.8	0.170	0.480	-0.400	0.200
2020/01/31 15:04:05.9	0.190	0.450	-0.410	0.160
2020/01/31 15:04:06.0	0.210	0.410	-0.420	0.110
2020/01/31 15:04:06.1	0.240	0.380	-0.430	0.060
2020/01/31 15:04:06.2	0.260	0.340	-0.430	0.010
2020/01/31 15:04:06.3	0.280	0.290	-0.420	-0.040
2020/01/31 15:04:06.4	0.300	0.250	-0.410	-0.090
2020/01/31 15:04:06.5	0.320	0.200	-0.390	-0.140
2020/01/31 15:04:06.6	0.340	0.150	-0.370	-0.190
2020/01/31 15:04:06.7	0.350	0.100	-0.340	-0.240
2020/01/31 15:04:06.8	0.370	0.040	-0.310	-0.290
2020/01/31 15:04:06.9	0.380	-0.010	-0.270	-0.340
2020/01/31 15:04:07.0	0.390	-0.070	-0.230	-0.380
2020/01/31 15:04:07.1	0.400	-0.130	-0.190	-0.420
2020/01/31 15:04:07.2	0.410	-0.180	-0.140	-0.460
2020/01/31 15:04:07.3	0.410	-0.240	-0.100	-0.500
2020/01/31 15:04:07.4	0.410	-0.290	-0.040	-0.540
2020/01/31 15:04:07.5	0.410	-0.350	0.010	-0.570
2020/01/31 15:04:07.6	0.420	-0.400	0.060	-0.600
2020/01/31 15:04:07.7	0.410	-0.450	0.120	-0.630
2020/01/31 15:04:07.8	0.400	-0.500	0.170	-0.650
2020/01/31 15:04:07.9	0.390	-0.540	0.230	-0.670
2020/01/31 15:04:08.0	0.380	-0.580	0.280	-0.680
2020/01/31 15:04:08.1	0.370	-0.620	0.330	-0.690
2020/01/31 15:04:08.2	0.350	-0.660	0.380	-0.700
2020/01/31 15:04:08.3	0.330	-0.690	0.420	-0.700
2020/01/31 15:04:08.4	0.310	-0.710	0.470	-0.710
2020/01/31 15:04:08.5	0.290	-0.730	0.500	-0.700
2020/01/31 15:04:08.6	0.270	-0.750	0.530	-0.700
2020/01/31 15:04:08.7	0.240	-0.750	0.560	-0.690
2020/01/31 15:04:08.8	0.220	-0.760	0.580	-0.680
2020/01/31 15:04:08.9	0.200	-0.760	0.590	-0.660
2020/01/31 15:04:09.0	0.170	-0.750	0.600	-0.650
2020/01/31 15:04:09.1	0.140	-0.740	0.600	-0.630
2020/01/31 15:04:09.2	0.120	-0.730	0.590	-0.610
2020/01/31 15:04:09.3	0.090	-0.710	0.580	-0.590
2020/01/31 15:04:09.4	0.070	-0.680	0.560	-0.570
2020/01/31 15:04:09.5	0.040	-0.650	0.530	-0.540
2020/01/31 15:04:09.6	0.020	-0.620	0.500	-0.520
2020/01/31 15:04:09.7	359.990	-0.580	0.470	-0.500
2020/01/31 15:04:09.8	359.970	-0.540	0.430	-0.470
2020/01/31 15:04:09.9	359.950	-0.500	0.380	-0.440
2020/01/31 15:04:10.0	359.930	-0.460	0.330	-0.420
2020/01/31 15:04:10.1	359.910	-0.410	0.270	-0.390
2020/01/31 15:04:10.2	359.900	-0.360	0.200	-0.360
2020/01/31 15:04:10.3	359.890	-0.310	0.140	-0.340
2020/01/31 15:04:10.4	359.870	-0.260	0.070	-0.310
2020/01/31 15:04:10.5	359.860	-0.210	-0.000	-0.280
2020/01/31 15:04:10.6	359.860	-0.150	-0.080	-0.240
2020/01/31 15:04:10.7	359.850	-0.100	-0.160	-0.210
2020/01/31 15:04:10.8	359.850	-0.050	-0.230	-0.180
2020/01/31 15:04:10.9	359.840	-0.000	-0.310	-0.150
2020/01/31 15:04:11.0	359.830	0.040	-0.380	-0.110
2020/01/31 15:04:11.1	359.820	0.090	-0.450	-0.080
2020/01/31 15:04:11.2	359.820	0.130	-0.520	-0.050
2020/01/31 15:04:11.3	359.810	0.170	-0.590	-0.020
2020/01/31 15:04:11.4	359.810	0.210	-0.650	0.010
2020/01/31 15:04:11.5	359.800	0.240	-0.710	0.040
2020/01/31 15:04:11.6	359.800	0.270	-0.770	0.070
2020/01/31 15:04:11.7	359.800	0.300	-0.820	0.090
2020/01/31 15:04:11.8	359.800	0.320	-0.860	0.110
2020/01/31 15:04:11.9	359.790	0.340	-0.900	0.130
2020/01/31 15:04:12.0	359.790	0.350	-0.930	0.150
2020/01/31 15:04:12.1	359.790	0.360	-0.960	0.170
2020/01/31 15:04:12.2	359.790	0.370	-0.980	0.180
2020/01/31 15:04:12.3	359.780	0.380	-1.000	0.190
2020/01/31 15:04:12.4	359.780	0.380	-1.000	0.190
2020/01/31 15:04:12.5	359.780	0.380	-1.010	0.200
2020/01/31 15:04:12.6	359.790	0.370	-1.010	0.200
2020/01/31 15:04:12.7	359.790	0.360	-1.000	0.200
2020/01/31 15:04:12.8	359.790	0.350	-0.980	0.190
2020/01/31 15:04:12.9	359.790	0.340	-0.970	0.190
2020/01/31 15:04:13.0	359.790	0.320	-0.940	0.180
2020/01/31 15:04:13.1	359.790	0.310	-0.910	0.170
2020/01/31 15:04:13.2	359.800	0.290	-0.880	0.150
2020/01/31 15:04:13.3	359.800	0.260	-0.840	0.140
2020/01/31 15:04:13.4	359.800	0.240	-0.800	0.120
2020/01/31 15:04:13.5	359.800	0.220	-0.760	0.110
2020/01/31 15:04:13.6	359.800	0.190	-0.710	0.090
2020/01/31 15:04:13.7	359.810	0.170	-0.660	0.070
2020/01/31 15:04:13.8	359.810	0.140	-0.610	0.050
2020/01/31 15:04:13.9	359.810	0.120	-0.560	0.040
2020/01/31 15:04:14.0	359.810	0.090	-0.510	0.020
2020/01/31 15:04:14.1	359.810	0.070	-0.460	0.010
2020/01/31 15:04:14.2	359.810	0.050	-0.410	-0.010
2020/01/31 15:04:14.3	359.810	0.020	-0.360	-0.020
2020/01/31 15:04:14.4	359.810	0.000	-0.320	-0.040
2020/01/31 15:04:14.5	359.800	-0.020	-0.270	-0.060
2020/01/31 15:04:14.6	359.810	-0.040	-0.230	-0.070
2020/01/31 15:04:14.7	359.810	-0.050	-0.190	-0.090
2020/01/31 15:04:14.8	359.810	-0.070	-0.150	-0.110
2020/01/31 15:04:14.9	359.810	-0.080	-0.120	-0.130
2020/01/31 15:04:15.0	359.820	-0.090	-0.090	-0.150
2020/01/31 15:04:15.1	359.820	-0.100	-0.070	-0.180
2020/01/31 15:04:15.2	359.830	-0.110	-0.050	-0.210
2020/01/31 15:04:15.3	359.840	-0.120	-0.040	-0.230
2020/01/31 15:04:15.4	359.850	-0.120	-0.030	-0.270
2020/01/31 15:04:15.5	359.860	-0.120	-0.030	-0.300
2020/01/31 15:04:15.6	359.860	-0.120	-0.030	-0.340
2020/01/31 15:04:15.7	359.870	-0.110	-0.030	-0.370
2020/01/31 15:04:15.8	359.880	-0.110	-0.040	-0.410
2020/01/31 15:04:15.9	359.890	-0.100	-0.060	-0.440
2020/01/31 15:04:16.0	359.910	-0.090	-0.080	-0.480
2020/01/31 15:04:16.1	359.920	-0.080	-0.100	-0.510
2020/01/31 15:04:16.2	359.930	-0.070	-0.120	-0.550
2020/01/31 15:04:16.3	359.940	-0.050	-0.150	-0.580
2020/01/31 15:04:16.4	359.960	-0.040	-0.170	-0.610
2020/01/31 15:04:16.5	359.970	-0.020	-0.200	-0.630
2020/01/31 15:04:16.6	359.980	-0.000	-0.230	-0.660
2020/01/31 15:04:16.7	0.000	0.020	-0.250	-0.680
2020/01/31 15:04:16.8	0.010	0.030	-0.280	-0.690
2020/01/31 15:04:16.9	0.010	0.050	-0.310	-0.710
2020/01/31 15:04:17.0	0.020	0.070	-0.340	-0.720
2020/01/31 15:04:17.1	0.030	0.090	-0.370	-0.740
2020/01/31 15:04:17.2	0.040	0.110	-0.390	-0.750
2020/01/31 15:04:17.3	0.050	0.120	-0.420	-0.750
2020/01/31 15:04:17.4	0.060	0.140	-0.440	-0.760
2020/01/31 15:04:17.5	0.070	0.150	-0.460	-0.770
2020/01/31 15:04:17.6	0.080	0.160	-0.480	-0.770
2020/01/31 15:04:17.7	0.090	0.180	-0.500	-0.770
2020/01/31 15:04:17.8	0.110	0.190	-0.510	-0.770
2020/01/31 15:04:17.9	0.120	0.190	-0.520	-0.770
2020/01/31 15:04:18.0	0.130	0.200	-0.530	-0.770
2020/01/31 15:04:18.1	0.140	0.210	-0.540	-0.760
2020/01/31 15:04:18.2	0.160	0.210	-0.540	-0.750
2020/01/31 15:04:18.3	0.170	0.210	-0.540	-0.750
2020/01/31 15:04:18.4	0.180	0.220	-0.530	-0.740
2020/01/31 15:04:18.5	0.190	0.210	-0.520	-0.720
2020/01/31 15:04:18.6	0.200	0.210	-0.510	-0.710
2020/01/31 15:04:18.7	0.210	0.210	-0.490	-0.690
2020/01/31 15:04:18.8	0.210	0.200	-0.470	-0.670
2020/01/31 15:04:18.9	0.220	0.190	-0.440	-0.650
2020/01/31 15:04:19.0	0.220	0.190	-0.410	-0.620
2020/01/31 15:04:19.1	0.220	0.180	-0.370	-0.590
2020/01/31 15:04:19.2	0.220	0.160	-0.330	-0.550
2020/01/31 15:04:19.3	0.210	0.150	-0.290	-0.510
2020/01/31 15:04:19.4	0.200	0.140	-0.240	-0.470
2020/01/31 15:04:19.5	0.190	0.120	-0.180	-0.430
2020/01/31 15:04:19.6	0.180	0.100	-0.120	-0.380
2020/01/31 15:04:19.7	0.150	0.080	-0.060	-0.330
2020/01/31 15:04:19.8	0.140	0.070	0.000	-0.270
2020/01/31 15:04:19.9	0.110	0.050	0.070	-0.220
2020/01/31 15:04:20.0	0.090	0.030	0.130	-0.170
2020/01/31 15:04:20.1	0.060	0.010	0.190	-0.120
2020/01/31 15:04:20.2	0.040	-0.010	0.250	-0.060
2020/01/31 15:04:20.3	0.010	-0.030	0.310	-0.010
2020/01/31 15:04:20.4	359.980	-0.050	0.360	0.040
2020/01/31 15:04:20.5	359.950	-0.070	0.410	0.090
2020/01/31 15:04:20.6	359.910	-0.090	0.460	0.140
2020/01/31 15:04:20.7	359.880	-0.100	0.500	0.190
2020/01/31 15:04:20.8	359.850	-0.120	0.530	0.240
2020/01/31 15:04:20.9	359.810	-0.130	0.560	0.280
2020/01/31 15:04:21.0	359.780	-0.140	0.580	0.320
2020/01/31 15:04:21.1	359.740	-0.150	0.600	0.360
2020/01/31 15:04:21.2	359.710	-0.150	0.600	0.400
2020/01/31 15:04:21.3	359.670	-0.160	0.600	0.430
2020/01/31 15:04:21.4	359.640	-0.160	0.590	0.460
2020/01/31 15:04:21.5	359.610	-0.160	0.580	0.490
2020/01/31 15:04:21.6	359.560	-0.160	0.560	0.510
2020/01/31 15:04:21.7	359.530	-0.150	0.530	0.530
2020/01/31 15:04:21.8	359.500	-0.140	0.500	0.550
2020/01/31 15:04:21.9	359.460	-0.130	0.460	0.560
2020/01/31 15:04:22.0	359.430	-0.120	0.410	0.570
2020/01/31 15:04:22.1	359.400	-0.100	0.360	0.580
2020/01/31 15:04:22.2	359.370	-0.090	0.300	0.590
2020/01/31 15:04:22.3	359.340	-0.070	0.240	0.590
2020/01/31 15:04:22.4	359.310	-0.050	0.180	0.580
2020/01/31 15:04:22.5	359.280	-0.030	0.120	0.580
2020/01/31 15:04:22.6	359.250	-0.010	0.050	0.570
2020/01/31 15:04:22.7	359.220	0.020	-0.010	0.550
2020/01/31 15:04:22.8	359.200	0.040	-0.080	0.540
2020/01/31 15:04:22.9	359.170	0.060	-0.150	0.510
2020/01/31 15:04:23.0	359.150	0.080	-0.220	0.490
2020/01/31 15:04:23.1	359.130	0.100	-0.280	0.460
2020/01/31 15:04:23.2	359.110	0.120	-0.350	0.430
2020/01/31 15:04:23.3	359.090	0.140	-0.410	0.390
2020/01/31 15:04:23.4	359.070	0.150	-0.470	0.360
2020/01/31 15:04:23.5	359.060	0.160	-0.530	0.320
2020/01/31 15:04:23.6	359.040	0.170	-0.580	0.280
2020/01/31 15:04:23.7	359.020	0.180	-0.630	0.230
2020/01/31 15:04:23.8	359.010	0.190	-0.670	0.180
2020/01/31 15:04:23.9	359.000	0.190	-0.720	0.140
2020/01/31 15:04:24.0	359.000	0.190	-0.760	0.090
2020/01/31 15:04:24.1	358.990	0.180	-0.790	0.040
2020/01/31 15:04:24.2	358.990	0.180	-0.820	-0.000
2020/01/31 15:04:24.3	358.990	0.170	-0.850	-0.050
2020/01/31 15:04:24.4	359.000	0.160	-0.870	-0.100
2020/01/31 15:04:24.5	359.010	0.140	-0.890	-0.150
2020/01/31 15:04:24.6	359.020	0.120	-0.900	-0.190
2020/01/31 15:04:24.7	359.040	0.110	-0.910	-0.240
2020/01/31 15:04:24.8	359.060	0.080	-0.920	-0.290
2020/01/31 15:04:24.9	359.080	0.060	-0.920	-0.340
2020/01/31 15:04:25.0	359.110	0.040	-0.920	-0.380
2020/01/31 15:04:25.1	359.140	0.010	-0.920	-0.430
2020/01/31 15:04:25.2	359.180	-0.020	-0.920	-0.480
2020/01/31 15:04:25.3	359.210	-0.040	-0.910	-0.530
2020/01/31 15:04:25.4	359.250	-0.070	-0.900	-0.580
2020/01/31 15:04:25.5	359.300	-0.100	-0.880	-0.630
2020/01/31 15:04:25.6	359.340	-0.130	-0.870	-0.680
2020/01/31 15:04:25.7	359.390	-0.160	-0.850	-0.730
2020/01/31 15:04:25.8	359.430	-0.190	-0.840	-0.780
2020/01/31 15:04:25.9	359.480	-0.220	-0.820	-0.830
2020/01/31 15:04:26.0	359.530	-0.250	-0.800	-0.870
2020/01/31 15:04:26.1	359.580	-0.270	-0.780	-0.920
2020/01/31 15:04:26.2	359.630	-0.300	-0.750	-0.970
2020/01/31 15:04:26.3	359.680	-0.320	-0.730	-1.020
2020/01/31 15:04:26.4	359.730	-0.340	-0.710	-1.060
2020/01/31 15:04:26.5	359.780	-0.360	-0.690	-1.100
2020/01/31 15:04:26.6	359.840	-0.370	-0.670	-1.150
2020/01/31 15:04:26.7	359.900	-0.390	-0.640	-1.190
2020/01/31 15:04:26.8	359.950	-0.400	-0.620	-1.220
2020/01/31 15:04:26.9	0.000	-0.400	-0.600	-1.260
2020/01/31 15:04:27.0	0.050	-0.410	-0.580	-1.290
2020/01/31 15:04:27.1	0.090	-0.410	-0.560	-1.320
2020/01/31 15:04:27.2	0.140	-0.410	-0.540	-1.350
2020/01/31 15:04:27.3	0.180	-0.400	-0.520	-1.370
2020/01/31 15:04:27.4	0.230	-0.400	-0.490	-1.380
2020/01/31 15:04:27.5	0.270	-0.390	-0.470	-1.400
2020/01/31 15:04:27.6	0.310	-0.370	-0.450	-1.400
2020/01/31 15:04:27.7	0.340	-0.360	-0.430	-1.410
2020/01/31 15:04:27.8	0.370	-0.340	-0.400	-1.410
2020/01/31 15:04:27.9	0.400	-0.320	-0.380	-1.400
2020/01/31 15:04:28.0	0.430	-0.300	-0.350	-1.390
2020/01/31 15:04:28.1	0.450	-0.280	-0.330	-1.380
2020/01/31 15:04:28.2	0.470	-0.250	-0.300	-1.360
2020/01/31 15:04:28.3	0.490	-0.230	-0.270	-1.350
2020/01/31 15:04:28.4	0.500	-0.200	-0.240	-1.320
2020/01/31 15:04:28.5	0.510	-0.180	-0.210	-1.300
2020/01/31 15:04:28.6	0.510	-0.150	-0.180	-1.260
2020/01/31 15:04:28.7	0.510	-0.130	-0.150	-1.230
2020/01/31 15:04:28.8	0.510	-0.100	-0.120	-1.190
2020/01/31 15:04:28.9	0.500	-0.080	-0.090	-1.150
2020/01/31 15:04:29.0	0.480	-0.050	-0.060	-1.100
2020/01/31 15:04:29.1	0.460	-0.030	-0.020	-1.050
2020/01/31 15:04:29.2	0.440	-0.010	0.010	-0.990
2020/01/31 15:04:29.3	0.410	0.010	0.050	-0.920
2020/01/31 15:04:29.4	0.370	0.030	0.090	-0.860
2020/01/31 15:04:29.5	0.330	0.050	0.130	-0.790
2020/01/31 15:04:29.6	0.280	0.060	0.170	-0.710
2020/01/31 15:04:29.7	0.240	0.080	0.210	-0.630
2020/01/31 15:04:29.8	0.180	0.090	0.250	-0.550
2020/01/31 15:04:29.9	0.120	0.100	0.290	-0.470
2020/01/31 15:04:30.0	0.050	0.110	0.330	-0.390
2020/01/31 15:04:30.1	359.980	0.120	0.380	-0.300
2020/01/31 15:04:30.2	359.910	0.130	0.420	-0.220
2020/01/31 15:04:30.3	359.830	0.130	0.460	-0.130
2020/01/31 15:04:30.4	359.750	0.140	0.500	-0.040
2020/01/31 15:04:30.5	359.670	0.140	0.540	0.040
2020/01/31 15:04:30.6	359.570	0.140	0.580	0.120
2020/01/31 15:04:30.7	359.490	0.150	0.610	0.200
2020/01/31 15:04:30.8	359.400	0.150	0.640	0.280
2020/01/31 15:04:30.9	359.310	0.150	0.670	0.360
2020/01/31 15:04:31.0	359.220	0.160	0.700	0.440
2020/01/31 15:04:31.1	359.130	0.160	0.720	0.510
2020/01/31 15:04:31.2	359.050	0.170	0.730	0.580
2020/01/31 15:04:31.3	358.960	0.180	0.740	0.640
2020/01/31 15:04:31.4	358.880	0.190	0.750	0.700
2020/01/31 15:04:31.5	358.810	0.200	0.740	0.760
2020/01/31 15:04:31.6	358.740	0.220	0.730	0.800
2020/01/31 15:04:31.7	358.670	0.240	0.700	0.840
2020/01/31 15:04:31.8	358.610	0.260	0.680	0.880
2020/01/31 15:04:31.9	358.550	0.280	0.640	0.910
2020/01/31 15:04:32.0	358.500	0.300	0.590	0.930
2020/01/31 15:04:32.1	358.450	0.330	0.530	0.940
2020/01/31 15:04:32.2	358.410	0.360	0.470	0.950
2020/01/31 15:04:32.3	358.370	0.390	0.400	0.950
2020/01/31 15:04:32.4	358.340	0.420	0.320	0.940
2020/01/31 15:04:32.5	358.310	0.450	0.230	0.920
2020/01/31 15:04:32.6	358.300	0.480	0.140	0.900
2020/01/31 15:04:32.7	358.290	0.510	0.050	0.870
2020/01/31 15:04:32.8	358.280	0.550	-0.060	0.830
2020/01/31 15:04:32.9	358.270	0.580	-0.160	0.790
2020/01/31 15:04:33.0	358.270	0.610	-0.270	0.730
2020/01/31 15:04:33.1	358.280	0.630	-0.380	0.670
2020/01/31 15:04:33.2	358.290	0.660	-0.490	0.610
2020/01/31 15:04:33.3	358.300	0.680	-0.600	0.540
2020/01/31 15:04:33.4	358.320	0.700	-0.710	0.460
2020/01/31 15:04:33.5	358.350	0.710	-0.820	0.380
2020/01/31 15:04:33.6	358.380	0.720	-0.920	0.290
2020/01/31 15:04:33.7	358.400	0.730	-1.020	0.190
2020/01/31 15:04:33.8	358.430	0.730	-1.110	0.100
2020/01/31 15:04:33.9	358.480	0.730	-1.200	0.000
2020/01/31 15:04:34.0	358.520	0.720	-1.280	-0.100
2020/01/31 15:04:34.1	358.570	0.710	-1.350	-0.200
2020/01/31 15:04:34.2	358.620	0.690	-1.410	-0.300
2020/01/31 15:04:34.3	358.680	0.660	-1.470	-0.400
2020/01/31 15:04:34.4	358.730	0.630	-1.520	-0.500
2020/01/31 15:04:34.5	358.790	0.600	-1.550	-0.610
2020/01/31 15:04:34.6	358.850	0.560	-1.580	-0.710
2020/01/31 15:04:34.7	358.900	0.510	-1.590	-0.820
2020/01/31 15:04:34.8	358.960	0.470	-1.600	-0.910
2020/01/31 15:04:34.9	359.020	0.410	-1.590	-1.010
2020/01/31 15:04:35.0	359.080	0.350	-1.580	-1.100
2020/01/31 15:04:35.1	359.140	0.290	-1.550	-1.190
2020/01/31 15:04:35.2	359.200	0.230	-1.520	-1.270
2020/01/31 15:04:35.3	359.250	0.160	-1.470	-1.350
2020/01/31 15:04:35.4	359.310	0.090	-1.420	-1.420
2020/01/31 15:04:35.5	359.360	0.020	-1.360	-1.490
2020/01/31 15:04:35.6	359.420	-0.050	-1.280	-1.560
2020/01/31 15:04:35.7	359.470	-0.120	-1.210	-1.610
2020/01/31 15:04:35.8	359.520	-0.190	-1.130	-1.660
2020/01/31 15:04:35.9	359.570	-0.270	-1.040	-1.710
2020/01/31 15:04:36.0	359.610	-0.340	-0.950	-1.750
2020/01/31 15:04:36.1	359.650	-0.410	-0.860	-1.780
2020/01/31 15:04:36.2	359.690	-0.480	-0.770	-1.810
2020/01/31 15:04:36.3	359.730	-0.540	-0.680	-1.830
2020/01/31 15:04:36.4	359.770	-0.610	-0.590	-1.840
2020/01/31 15:04:36.5	359.800	-0.670	-0.500	-1.850
2020/01/31 15:04:36.6	359.830	-0.730	-0.410	-1.860
2020/01/31 15:04:36.7	359.860	-0.780	-0.320	-1.860
2020/01/31 15:04:36.8	359.880	-0.830	-0.240	-1.860
2020/01/31 15:04:36.9	359.900	-0.880	-0.160	-1.860
2020/01/31 15:04:37.0	359.920	-0.920	-0.090	-1.850
2020/01/31 15:04:37.1	359.940	-0.960	-0.020	-1.840
2020/01/31 15:04:37.2	359.960	-0.990	0.050	-1.830
2020/01/31 15:04:37.3	359.970	-1.020	0.110	-1.810
2020/01/31 15:04:37.4	359.980	-1.040	0.160	-1.790
2020/01/31 15:04:37.5	359.990	-1.050	0.210	-1.770
2020/01/31 15:04:37.6	0.000	-1.060	0.250	-1.740
2020/01/31 15:04:37.7	0.000	-1.070	0.280	-1.720
2020/01/31 15:04:37.8	0.010	-1.060	0.320	-1.680
2020/01/31 15:04:37.9	0.010	-1.060	0.340	-1.650
2020/01/31 15:04:38.0	0.000	-1.050	0.360	-1.610
2020/01/31 15:04:38.1	0.000	-1.030	0.380	-1.570
2020/01/31 15:04:38.2	359.990	-1.010	0.390	-1.520
2020/01/31 15:04:38.3	359.980	-0.980	0.400	-1.470
2020/01/31 15:04:38.4	359.970	-0.950	0.410	-1.410
2020/01/31 15:04:38.5	359.950	-0.910	0.410	-1.350
2020/01/31 15:04:38.6	359.920	-0.880	0.410	-1.290
2020/01/31 15:04:38.7	359.900	-0.830	0.410	-1.220
2020/01/31 15:04:38.8	359.870	-0.790	0.400	-1.150
2020/01/31 15:04:38.9	359.850	-0.740	0.400	-1.070
2020/01/31 15:04:39.0	359.820	-0.690	0.390	-0.990
2020/01/31 15:04:39.1	359.790	-0.640	0.380	-0.910
2020/01/31 15:04:39.2	359.760	-0.590	0.380	-0.830
2020/01/31 15:04:39.3	359.720	-0.540	0.370	-0.740
2020/01/31 15:04:39.4	359.680	-0.480	0.360	-0.650
2020/01/31 15:04:39.5	359.640	-0.430	0.360	-0.560
2020/01/31 15:04:39.6	359.600	-0.380	0.350	-0.470
2020/01/31 15:04:39.7	359.560	-0.320	0.350	-0.380
2020/01/31 15:04:39.8	359.520	-0.270	0.340	-0.290
2020/01/31 15:04:39.9	359.480	-0.220	0.340	-0.200
2020/01/31 15:04:40.0	359.430	-0.170	0.330	-0.110
2020/01/31 15:04:40.1	359.390	-0.130	0.330	-0.020
2020/01/31 15:04:40.2	359.350	-0.080	0.330	0.060
2020/01/31 15:04:40.3	359.300	-0.040	0.320	0.140
2020/01/31 15:04:40.4	359.260	0.000	0.320	0.220
2020/01/31 15:04:40.5	359.220	0.040	0.320	0.300
2020/01/31 15:04:40.6	359.170	0.080	0.320	0.380
2020/01/31 15:04:40.7	359.130	0.110	0.320	0.450
2020/01/31 15:04:40.8	359.080	0.150	0.310	0.520
2020/01/31 15:04:40.9	359.040	0.180	0.310	0.590
2020/01/31 15:04:41.0	359.000	0.200	0.310	0.650
2020/01/31 15:04:41.1	358.960	0.230	0.300	0.710
2020/01/31 15:04:41.2	358.920	0.250	0.300	0.770
2020/01/31 15:04:41.3	358.880	0.280	0.290	0.820
2020/01/31 15:04:41.4	358.840	0.300	0.280	0.870
2020/01/31 15:04:41.5	358.800	0.310	0.270	0.910
2020/01/31 15:04:41.6	358.770	0.330	0.260	0.950
2020/01/31 15:04:41.7	358.730	0.350	0.250	0.980
2020/01/31 15:04:41.8	358.700	0.360	0.230	1.000
2020/01/31 15:04:41.9	358.670	0.370	0.200	1.020
2020/01/31 15:04:42.0	358.640	0.390	0.180	1.030
2020/01/31 15:04:42.1	358.610	0.400	0.150	1.030
2020/01/31 15:04:42.2	358.580	0.410	0.120	1.030
2020/01/31 15:04:42.3	358.560	0.420	0.080	1.020
2020/01/31 15:04:42.4	358.540	0.430	0.040	1.010
2020/01/31 15:04:42.5	358.520	0.440	-0.000	0.990
2020/01/31 15:04:42.6	358.510	0.440	-0.050	0.960
2020/01/31 15:04:42.7	358.500	0.450	-0.100	0.930
2020/01/31 15:04:42.8	358.490	0.460	-0.150	0.890
2020/01/31 15:04:42.9	358.490	0.470	-0.210	0.850
2020/01/31 15:04:43.0	358.490	0.480	-0.270	0.810
2020/01/31 15:04:43.1	358.490	0.490	-0.330	0.760
2020/01/31 15:04:43.2	358.500	0.500	-0.400	0.700
2020/01/31 15:04:43.3	358.510	0.510	-0.460	0.640
2020/01/31 15:04:43.4	358.530	0.510	-0.530	0.580
2020/01/31 15:04:43.5	358.540	0.520	-0.600	0.510
2020/01/31 15:04:43.6	358.570	0.530	-0.670	0.440
2020/01/31 15:04:43.7	358.590	0.540	-0.740	0.370
2020/01/31 15:04:43.8	358.620	0.550	-0.810	0.300
2020/01/31 15:04:43.9	358.650	0.560	-0.880	0.220
2020/01/31 15:04:44.0	358.690	0.570	-0.940	0.150
2020/01/31 15:04:44.1	358.720	0.580	-1.000	0.080
2020/01/31 15:04:44.2	358.760	0.590	-1.060	0.010
2020/01/31 15:04:44.3	358.810	0.590	-1.120	-0.070
2020/01/31 15:04:44.4	358.850	0.600	-1.170	-0.140
2020/01/31 15:04:44.5	358.890	0.610	-1.220	-0.210
2020/01/31 15:04:44.6	358.940	0.610	-1.250	-0.280
2020/01/31 15:04:44.7	358.990	0.610	-1.290	-0.340
2020/01/31 15:04:44.8	359.040	0.620	-1.320	-0.410
2020/01/31 15:04:44.9	359.090	0.620	-1.340	-0.470
2020/01/31 15:04:45.0	359.140	0.610	-1.360	-0.530
2020/01/31 15:04:45.1	359.190	0.610	-1.360	-0.590
2020/01/31 15:04:45.2	359.240	0.600	-1.360	-0.650
2020/01/31 15:04:45.3	359.290	0.590	-1.360	-0.700
2020/01/31 15:04:45.4	359.340	0.580	-1.340	-0.740
2020/01/31 15:04:45.5	359.390	0.570	-1.320	-0.790
2020/01/31 15:04:45.6	359.430	0.550	-1.290	-0.830
2020/01/31 15:04:45.7	359.470	0.530	-1.250	-0.870
2020/01/31 15:04:45.8	359.520	0.510	-1.200	-0.900
2020/01/31 15:04:45.9	359.560	0.480	-1.150	-0.930
2020/01/31 15:04:46.0	359.600	0.450	-1.090	-0.950
2020/01/31 15:04:46.1	359.640	0.420	-1.030	-0.970
2020/01/31 15:04:46.2	359.670	0.380	-0.960	-0.990
2020/01/31 15:04:46.3	359.710	0.340	-0.890	-1.000
2020/01/31 15:04:46.4	359.740	0.300	-0.810	-1.010
2020/01/31 15:04:46.5	359.770	0.260	-0.730	-1.020
2020/01/31 15:04:46.6	359.800	0.210	-0.640	-1.020
2020/01/31 15:04:46.7	359.830	0.160	-0.550	-1.020
2020/01/31 15:04:46.8	359.850	0.110	-0.470	-1.020
2020/01/31 15:04:46.9	359.870	0.060	-0.380	-1.020
2020/01/31 15:04:47.0	359.890	0.000	-0.290	-1.010
2020/01/31 15:04:47.1	359.910	-0.050	-0.210	-1.010
2020/01/31 15:04:47.2	359.920	-0.110	-0.120	-1.000
2020/01/31 15:04:47.3	359.940	-0.160	-0.040	-0.990
2020/01/31 15:04:47.4	359.950	-0.220	0.040	-0.980
2020/01/31 15:04:47.5	359.960	-0.280	0.120	-0.960
2020/01/31 15:04:47.6	359.960	-0.330	0.190	-0.950
2020/01/31 15:04:47.7	359.970	-0.380	0.250	-0.930
2020/01/31 15:04:47.8	359.970	-0.440	0.310	-0.910
2020/01/31 15:04:47.9	359.970	-0.490	0.370	-0.890
2020/01/31 15:04:48.0	359.970	-0.530	0.420	-0.860
2020/01/31 15:04:48.1	359.970	-0.580	0.460	-0.840
2020/01/31 15:04:48.2	359.970	-0.620	0.500	-0.810
2020/01/31 15:04:48.3	359.960	-0.660	0.530	-0.780
2020/01/31 15:04:48.4	359.950	-0.690	0.550	-0.740
2020/01/31 15:04:48.5	359.940	-0.730	0.570	-0.710
2020/01/31 15:04:48.6	359.930	-0.750	0.590	-0.680
2020/01/31 15:04:48.7	359.910	-0.780	0.600	-0.640
2020/01/31 15:04:48.8	359.890	-0.800	0.590	-0.610
2020/01/31 15:04:48.9	359.870	-0.810	0.590	-0.570
2020/01/31 15:04:49.0	359.850	-0.820	0.580	-0.540
2020/01/31 15:04:49.1	359.830	-0.820	0.560	-0.500
2020/01/31 15:04:49.2	359.810	-0.820	0.530	-0.470
2020/01/31 15:04:49.3	359.790	-0.810	0.500	-0.440
2020/01/31 15:04:49.4	359.760	-0.800	0.470	-0.410
2020/01/31 15:04:49.5	359.740	-0.780	0.430	-0.380
2020/01/31 15:04:49.6	359.710	-0.760	0.390	-0.360
2020/01/31 15:04:49.7	359.680	-0.730	0.340	-0.330
2020/01/31 15:04:49.8	359.660	-0.700	0.290	-0.300
2020/01/31 15:04:49.9	359.640	-0.660	0.230	-0.280
2020/01/31 15:04:50.0	359.630	-0.620	0.170	-0.260
2020/01/31 15:04:50.1	359.610	-0.570	0.110	-0.230
2020/01/31 15:04:50.2	359.600	-0.520	0.050	-0.210
2020/01/31 15:04:50.3	359.580	-0.470	-0.010	-0.190
2020/01/31 15:04:50.4	359.580	-0.410	-0.070	-0.180
2020/01/31 15:04:50.5	359.570	-0.350	-0.130	-0.160
2020/01/31 15:04:50.6	359.570	-0.290	-0.200	-0.140
2020/01/31 15:04:50.7	359.570	-0.220	-0.250	-0.130
2020/01/31 15:04:50.8	359.570	-0.150	-0.310	-0.110
2020/01/31 15:04:50.9	359.580	-0.090	-0.370	-0.100
2020/01/31 15:04:51.0	359.590	-0.020	-0.420	-0.090
2020/01/31 15:04:51.1	359.600	0.050	-0.480	-0.070
2020/01/31 15:04:51.2	359.620	0.110	-0.520	-0.060
2020/01/31 15:04:51.3	359.640	0.180	-0.570	-0.050
2020/01/31 15:04:51.4	359.660	0.240	-0.610	-0.040
2020/01/31 15:04:51.5	359.690	0.300	-0.640	-0.030
2020/01/31 15:04:51.6	359.710	0.350	-0.670	-0.020
2020/01/31 15:04:51.7	359.740	0.410	-0.690	-0.010
2020/01/31 15:04:51.8	359.770	0.450	-0.710	-0.010
2020/01/31 15:04:51.9	359.800	0.500	-0.720	-0.000
2020/01/31 15:04:52.0	359.830	0.530	-0.730	0.000
2020/01/31 15:04:52.1	359.860	0.560	-0.720	0.000
2020/01/31 15:04:52.2	359.880	0.590	-0.720	0.000
2020/01/31 15:04:52.3	359.910	0.610	-0.700	0.000
2020/01/31 15:04:52.4	359.940	0.620	-0.680	-0.000
2020/01/31 15:04:52.5	359.960	0.630	-0.660	-0.010
2020/01/31 15:04:52.6	359.970	0.630	-0.620	-0.020
2020/01/31 15:04:52.7	359.990	0.620	-0.580	-0.030
2020/01/31 15:04:52.8	0.000	0.610	-0.540	-0.040
2020/01/31 15:04:52.9	0.010	0.590	-0.490	-0.050
2020/01/31 15:04:53.0	0.020	0.560	-0.440	-0.070
2020/01/31 15:04:53.1	0.020	0.530	-0.380	-0.090
2020/01/31 15:04:53.2	0.020	0.490	-0.320	-0.100
2020/01/31 15:04:53.3	0.020	0.450	-0.250	-0.120
2020/01/31 15:04:53.4	0.020	0.400	-0.190	-0.140
2020/01/31 15:04:53.5	0.010	0.350	-0.120	-0.160
2020/01/31 15:04:53.6	359.980	0.290	-0.060	-0.180
2020/01/31 15:04:53.7	359.970	0.230	0.010	-0.200
2020/01/31 15:04:53.8	359.950	0.170	0.080	-0.220
2020/01/31 15:04:53.9	359.930	0.100	0.150	-0.240
2020/01/31 15:04:54.0	359.910	0.040	0.210	-0.260
2020/01/31 15:04:54.1	359.890	-0.030	0.270	-0.280
2020/01/31 15:04:54.2	359.860	-0.100	0.330	-0.300
2020/01/31 15:04:54.3	359.840	-0.160	0.380	-0.310
2020/01/31 15:04:54.4	359.810	-0.230	0.430	-0.330
2020/01/31 15:04:54.5	359.790	-0.290	0.470	-0.350
2020/01/31 15:04:54.6	359.760	-0.350	0.510	-0.370
2020/01/31 15:04:54.7	359.740	-0.410	0.540	-0.380
2020/01/31 15:04:54.8	359.710	-0.460	0.560	-0.400
2020/01/31 15:04:54.9	359.690	-0.510	0.570	-0.420
2020/01/31 15:04:55.0	359.670	-0.560	0.580	-0.440
2020/01/31 15:04:55.1	359.650	-0.590	0.580	-0.460
2020/01/31 15:04:55.2	359.630	-0.630	0.570	-0.490
2020/01/31 15:04:55.3	359.610	-0.650	0.550	-0.510
2020/01/31 15:04:55.4	359.590	-0.680	0.520	-0.530
2020/01/31 15:04:55.5	359.580	-0.690	0.490	-0.550
2020/01/31 15:04:55.6	359.560	-0.700	0.450	-0.570
2020/01/31 15:04:55.7	359.550	-0.700	0.400	-0.600
2020/01/31 15:04:55.8	359.540	-0.690	0.350	-0.620
2020/01/31 15:04:55.9	359.530	-0.680	0.290	-0.640
2020/01/31 15:04:56.0	359.530	-0.650	0.220	-0.660
2020/01/31 15:04:56.1	359.520	-0.630	0.160	-0.680
2020/01/31 15:04:56.2	359.520	-0.590	0.080	-0.700
2020/01/31 15:04:56.3	359.520	-0.550	0.010	-0.710
2020/01/31 15:04:56.4	359.520	-0.500	-0.070	-0.730
2020/01/31 15:04:56.5	359.520	-0.450	-0.150	-0.750
2020/01/31 15:04:56.6	359.530	-0.400	-0.230	-0.760
2020/01/31 15:04:56.7	359.530	-0.330	-0.310	-0.770
2020/01/31 15:04:56.8	359.540	-0.270	-0.390	-0.780
2020/01/31 15:04:56.9	359.540	-0.200	-0.460	-0.790
2020/01/31 15:04:57.0	359.550	-0.130	-0.540	-0.790
2020/01/31 15:04:57.1	359.560	-0.050	-0.610	-0.790
2020/01/31 15:04:57.2	359.570	0.030	-0.670	-0.790
2020/01/31 15:04:57.3	359.590	0.100	-0.730	-0.780
2020/01/31 15:04:57.4	359.600	0.180	-0.790	-0.780
2020/01/31 15:04:57.5	359.620	0.260	-0.840	-0.760
2020/01/31 15:04:57.6	359.640	0.330	-0.890	-0.750
2020/01/31 15:04:57.7	359.650	0.400	-0.930	-0.730
2020/01/31 15:04:57.8	359.670	0.480	-0.960	-0.710
2020/01/31 15:04:57.9	359.690	0.540	-0.990	-0.680
2020/01/31 15:04:58.0	359.710	0.610	-1.010	-0.650
2020/01/31 15:04:58.1	359.730	0.670	-1.030	-0.620
2020/01/31 15:04:58.2	359.750	0.720	-1.040	-0.580
2020/01/31 15:04:58.3	359.770	0.770	-1.040	-0.540
2020/01/31 15:04:58.4	359.790	0.820	-1.040	-0.500
2020/01/31 15:04:58.5	359.810	0.850	-1.040	-0.460
2020/01/31 15:04:58.6	359.830	0.890	-1.030	-0.410
2020/01/31 15:04:58.7	359.860	0.910	-1.010	-0.370
2020/01/31 15:04:58.8	359.880	0.930	-0.990	-0.320
2020/01/31 15:04:58.9	359.900	0.940	-0.960	-0.270
2020/01/31 15:04:59.0	359.920	0.950	-0.940	-0.230
2020/01/31 15:04:59.1	359.940	0.950	-0.900	-0.180
2020/01/31 15:04:59.2	359.970	0.940	-0.870	-0.130
2020/01/31 15:04:59.3	359.990	0.920	-0.830	-0.090
2020/01/31 15:04:59.4	0.010	0.900	-0.790	-0.050
2020/01/31 15:04:59.5	0.040	0.880	-0.750	-0.010
2020/01/31 15:04:59.6	0.060	0.850	-0.710	0.020
2020/01/31 15:04:59.7	0.090	0.810	-0.670	0.050
2020/01/31 15:04:59.8	0.110	0.770	-0.630	0.080
2020/01/31 15:04:59.9	0.140	0.730	-0.590	0.100
2020/01/31 15:05:00.0	0.170	0.680	-0.550	0.120
2020/01/31 15:05:00.1	0.190	0.630	-0.510	0.140
2020/01/31 15:05:00.2	0.220	0.570	-0.470	0.150
2020/01/31 15:05:00.3	0.250	0.520	-0.440	0.150
2020/01/31 15:05:00.4	0.280	0.460	-0.410	0.150
2020/01/31 15:05:00.5	0.320	0.400	-0.380	0.150
2020/01/31 15:05:00.6	0.350	0.340	-0.350	0.140
2020/01/31 15:05:00.7	0.380	0.280	-0.330	0.120
2020/01/31 15:05:00.8	0.410	0.230	-0.300	0.100
2020/01/31 15:05:00.9	0.440	0.170	-0.280	0.080
2020/01/31 15:05:01.0	0.480	0.110	-0.270	0.060
2020/01/31 15:05:01.1	0.510	0.060	-0.250	0.030
2020/01/31 15:05:01.2	0.540	0.000	-0.240	0.000
2020/01/31 15:05:01.3	0.560	-0.050	-0.220	-0.030
2020/01/31 15:05:01.4	0.590	-0.100	-0.210	-0.060
2020/01/31 15:05:01.5	0.610	-0.150	-0.200	-0.090
2020/01/31 15:05:01.6	0.630	-0.190	-0.190	-0.120
2020/01/31 15:05:01.7	0.640	-0.240	-0.180	-0.150
2020/01/31 15:05:01.8	0.660	-0.280	-0.170	-0.190
2020/01/31 15:05:01.9	0.680	-0.320	-0.160	-0.230
2020/01/31 15:05:02.0	0.690	-0.350	-0.160	-0.260
2020/01/31 15:05:02.1	0.700	-0.390	-0.150	-0.300
2020/01/31 15:05:02.2	0.710	-0.420	-0.140	-0.340
2020/01/31 15:05:02.3	0.720	-0.450	-0.130	-0.380
2020/01/31 15:05:02.4	0.730	-0.470	-0.120	-0.420
2020/01/31 15:05:02.5	0.740	-0.500	-0.110	-0.470
2020/01/31 15:05:02.6	0.730	-0.520	-0.100	-0.510
2020/01/31 15:05:02.7	0.740	-0.540	-0.090	-0.550
2020/01/31 15:05:02.8	0.740	-0.550	-0.080	-0.590
2020/01/31 15:05:02.9	0.740	-0.570	-0.080	-0.640
2020/01/31 15:05:03.0	0.740	-0.580	-0.070	-0.680
2020/01/31 15:05:03.1	0.740	-0.590	-0.060	-0.710
2020/01/31 15:05:03.2	0.740	-0.600	-0.060	-0.750
2020/01/31 15:05:03.3	0.740	-0.600	-0.050	-0.780
2020/01/31 15:05:03.4	0.740	-0.600	-0.050	-0.820
2020/01/31 15:05:03.5	0.740	-0.600	-0.050	-0.850
2020/01/31 15:05:03.6	0.740	-0.600	-0.040	-0.880
2020/01/31 15:05:03.7	0.730	-0.600	-0.040	-0.900
2020/01/31 15:05:03.8	0.730	-0.590	-0.040	-0.920
2020/01/31 15:05:03.9	0.730	-0.580	-0.030	-0.940
2020/01/31 15:05:04.0	0.730	-0.570	-0.030	-0.950
2020/01/31 15:05:04.1	0.720	-0.560	-0.030	-0.960
2020/01/31 15:05:04.2	0.720	-0.540	-0.030	-0.970
2020/01/31 15:05:04.3	0.710	-0.530	-0.030	-0.970
2020/01/31 15:05:04.4	0.710	-0.510	-0.030	-0.970
2020/01/31 15:05:04.5	0.700	-0.490	-0.020	-0.960
2020/01/31 15:05:04.6	0.690	-0.470	-0.020	-0.940
2020/01/31 15:05:04.7	0.680	-0.450	-0.010	-0.930
2020/01/31 15:05:04.8	0.670	-0.430	-0.010	-0.910
2020/01/31 15:05:04.9	0.650	-0.410	0.000	-0.880
2020/01/31 15:05:05.0	0.640	-0.380	0.010	-0.850
2020/01/31 15:05:05.1	0.620	-0.360	0.020	-0.820
2020/01/31 15:05:05.2	0.600	-0.340	0.030	-0.780
2020/01/31 15:05:05.3	0.570	-0.310	0.040	-0.740
2020/01/31 15:05:05.4	0.550	-0.290	0.060	-0.700
2020/01/31 15:05:05.5	0.520	-0.260	0.070	-0.650
2020/01/31 15:05:05.6	0.490	-0.240	0.080	-0.600
2020/01/31 15:05:05.7	0.460	-0.210	0.100	-0.550
2020/01/31 15:05:05.8	0.420	-0.190	0.120	-0.500
2020/01/31 15:05:05.9	0.390	-0.160	0.130	-0.440
2020/01/31 15:05:06.0	0.350	-0.140	0.150	-0.380
2020/01/31 15:05:06.1	0.320	-0.120	0.170	-0.330
2020/01/31 15:05:06.2	0.280	-0.090	0.180	-0.270
2020/01/31 15:05:06.3	0.250	-0.070	0.200	-0.210
2020/01/31 15:05:06.4	0.210	-0.040	0.210	-0.160
2020/01/31 15:05:06.5	0.180	-0.020	0.230	-0.100
2020/01/31 15:05:06.6	0.150	0.010	0.240	-0.050
2020/01/31 15:05:06.7	0.120	0.030	0.250	0.000
2020/01/31 15:05:06.8	0.090	0.060	0.260	0.050
2020/01/31 15:05:06.9	0.070	0.080	0.270	0.100
2020/01/31 15:05:07.0	0.050	0.110	0.270	0.140
2020/01/31 15:05:07.1	0.030	0.140	0.270	0.180
2020/01/31 15:05:07.2	0.020	0.160	0.260	0.220
2020/01/31 15:05:07.3	0.010	0.190	0.260	0.250
2020/01/31 15:05:07.4	0.010	0.220	0.240	0.270
2020/01/31 15:05:07.5	0.000	0.240	0.230	0.290
2020/01/31 15:05:07.6	0.010	0.270	0.210	0.310
2020/01/31 15:05:07.7	0.000	0.300	0.190	0.320
2020/01/31 15:05:07.8	0.010	0.330	0.170	0.330
2020/01/31 15:05:07.9	0.020	0.360	0.140	0.330
2020/01/31 15:05:08.0	0.030	0.380	0.110	0.330
2020/01/31 15:05:08.1	0.040	0.410	0.080	0.330
2020/01/31 15:05:08.2	0.060	0.430	0.050	0.330
2020/01/31 15:05:08.3	0.070	0.450	0.010	0.330
2020/01/31 15:05:08.4	0.080	0.470	-0.020	0.320
2020/01/31 15:05:08.5	0.100	0.490	-0.060	0.320
2020/01/31 15:05:08.6	0.110	0.510	-0.090	0.310
2020/01/31 15:05:08.7	0.120	0.520	-0.130	0.300
2020/01/31 15:05:08.8	0.130	0.530	-0.160	0.290
2020/01/31 15:05:08.9	0.130	0.540	-0.190	0.280
2020/01/31 15:05:09.0	0.140	0.540	-0.220	0.270
2020/01/31 15:05:09.1	0.140	0.540	-0.250	0.260
2020/01/31 15:05:09.2	0.130	0.540	-0.280	0.240
2020/01/31 15:05:09.3	0.130	0.540	-0.300	0.230
2020/01/31 15:05:09.4	0.120	0.530	-0.320	0.220
2020/01/31 15:05:09.5	0.100	0.520	-0.340	0.200
2020/01/31 15:05:09.6	0.090	0.500	-0.350	0.190
2020/01/31 15:05:09.7	0.070	0.480	-0.370	0.170
2020/01/31 15:05:09.8	0.050	0.460	-0.380	0.160
2020/01/31 15:05:09.9	0.020	0.440	-0.400	0.140
2020/01/31 15:05:10.0	359.990	0.410	-0.410	0.120
2020/01/31 15:05:10.1	359.960	0.380	-0.420	0.110
2020/01/31 15:05:10.2	359.930	0.350	-0.430	0.090
2020/01/31 15:05:10.3	359.900	0.320	-0.440	0.070
2020/01/31 15:05:10.4	359.860	0.280	-0.450	0.050
2020/01/31 15:05:10.5	359.830	0.250	-0.460	0.020
2020/01/31 15:05:10.6	359.790	0.210	-0.480	-0.000
2020/01/31 15:05:10.7	359.750	0.170	-0.490	-0.030
2020/01/31 15:05:10.8	359.720	0.140	-0.500	-0.060
2020/01/31 15:05:10.9	359.690	0.100	-0.520	-0.090
2020/01/31 15:05:11.0	359.660	0.060	-0.540	-0.120
2020/01/31 15:05:11.1	359.630	0.030	-0.570	-0.160
2020/01/31 15:05:11.2	359.610	-0.000	-0.590	-0.200
2020/01/31 15:05:11.3	359.590	-0.040	-0.620	-0.240
2020/01/31 15:05:11.4	359.580	-0.060	-0.660	-0.290
2020/01/31 15:05:11.5	359.570	-0.090	-0.700	-0.340
2020/01/31 15:05:11.6	359.570	-0.110	-0.740	-0.390
2020/01/31 15:05:11.7	359.580	-0.130	-0.780	-0.450
2020/01/31 15:05:11.8	359.590	-0.150	-0.830	-0.510
2020/01/31 15:05:11.9	359.600	-0.160	-0.880	-0.580
2020/01/31 15:05:12.0	359.620	-0.170	-0.940	-0.640
2020/01/31 15:05:12.1	359.650	-0.180	-1.000	-0.720
2020/01/31 15:05:12.2	359.680	-0.180	-1.060	-0.790
2020/01/31 15:05:12.3	359.710	-0.180	-1.120	-0.870
2020/01/31 15:05:12.4	359.750	-0.180	-1.180	-0.950
2020/01/31 15:05:12.5	359.800	-0.170	-1.240	-1.030
2020/01/31 15:05:12.6	359.840	-0.160	-1.300	-1.120
2020/01/31 15:05:12.7	359.900	-0.140	-1.360	-1.200
2020/01/31 15:05:12.8	359.950	-0.130	-1.410	-1.280
2020/01/31 15:05:12.9	0.010	-0.110	-1.460	-1.360
2020/01/31 15:05:13.0	0.070	-0.090	-1.500	-1.440
2020/01/31 15:05:13.1	0.130	-0.060	-1.540	-1.510
2020/01/31 15:05:13.2	0.190	-0.040	-1.570	-1.580
2020/01/31 15:05:13.3	0.260	-0.020	-1.600	-1.650
2020/01/31 15:05:13.4	0.320	0.010	-1.610	-1.710
2020/01/31 15:05:13.5	0.380	0.030	-1.620	-1.760
2020/01/31 15:05:13.6	0.440	0.060	-1.610	-1.810
2020/01/31 15:05:13.7	0.500	0.080	-1.600	-1.850
2020/01/31 15:05:13.8	0.560	0.100	-1.570	-1.890
2020/01/31 15:05:13.9	0.620	0.120	-1.540	-1.920
2020/01/31 15:05:14.0	0.680	0.130	-1.490	-1.940
2020/01/31 15:05:14.1	0.730	0.140	-1.430	-1.950
2020/01/31 15:05:14.2	0.780	0.150	-1.370	-1.960
2020/01/31 15:05:14.3	0.830	0.160	-1.290	-1.950
2020/01/31 15:05:14.4	0.870	0.160	-1.200	-1.940
2020/01/31 15:05:14.5	0.910	0.160	-1.100	-1.930
2020/01/31 15:05:14.6	0.950	0.160	-1.000	-1.900
2020/01/31 15:05:14.7	0.990	0.150	-0.880	-1.870
2020/01/31 15:05:14.8	1.020	0.140	-0.760	-1.830
2020/01/31 15:05:14.9	1.040	0.120	-0.630	-1.780
2020/01/31 15:05:15.0	1.070	0.100	-0.500	-1.730
2020/01/31 15:05:15.1	1.090	0.080	-0.360	-1.680
2020/01/31 15:05:15.2	1.100	0.050	-0.220	-1.610
2020/01/31 15:05:15.3	1.110	0.030	-0.080	-1.540
2020/01/31 15:05:15.4	1.120	-0.010	0.070	-1.470
2020/01/31 15:05:15.5	1.120	-0.040	0.210	-1.390
2020/01/31 15:05:15.6	1.130	-0.080	0.350	-1.310
2020/01/31 15:05:15.7	1.120	-0.110	0.490	-1.220
2020/01/31 15:05:15.8	1.120	-0.160	0.630	-1.130
2020/01/31 15:05:15.9	1.100	-0.200	0.760	-1.040
2020/01/31 15:05:16.0	1.090	-0.240	0.890	-0.940
2020/01/31 15:05:16.1	1.070	-0.280	1.020	-0.840
2020/01/31 15:05:16.2	1.040	-0.320	1.140	-0.740
2020/01/31 15:05:16.3	1.010	-0.370	1.250	-0.640
2020/01/31 15:05:16.4	0.980	-0.410	1.350	-0.530
2020/01/31 15:05:16.5	0.940	-0.450	1.440	-0.420
2020/01/31 15:05:16.6	0.900	-0.490	1.530	-0.310
2020/01/31 15:05:16.7	0.860	-0.520	1.610	-0.210
2020/01/31 15:05:16.8	0.810	-0.560	1.670	-0.100
2020/01/31 15:05:16.9	0.750	-0.590	1.730	0.010
2020/01/31 15:05:17.0	0.700	-0.620	1.770	0.110
2020/01/31 15:05:17.1	0.630	-0.640	1.810	0.220
2020/01/31 15:05:17.2	0.570	-0.660	1.830	0.320
2020/01/31 15:05:17.3	0.500	-0.680	1.850	0.420
2020/01/31 15:05:17.4	0.430	-0.690	1.850	0.520
2020/01/31 15:05:17.5	0.350	-0.700	1.850	0.610
2020/01/31 15:05:17.6	0.280	-0.700	1.830	0.700
2020/01/31 15:05:17.7	0.200	-0.700	1.800	0.780
2020/01/31 15:05:17.8	0.120	-0.690	1.760	0.860
2020/01/31 15:05:17.9	0.040	-0.680	1.720	0.940
2020/01/31 15:05:18.0	359.960	-0.660	1.660	1.000
2020/01/31 15:05:18.1	359.880	-0.640	1.590	1.060
2020/01/31 15:05:18.2	359.800	-0.610	1.510	1.120
2020/01/31 15:05:18.3	359.720	-0.580	1.420	1.160
2020/01/31 15:05:18.4	359.640	-0.550	1.320	1.200
2020/01/31 15:05:18.5	359.560	-0.510	1.220	1.240
2020/01/31 15:05:18.6	359.480	-0.470	1.110	1.260
2020/01/31 15:05:18.7	359.410	-0.420	0.990	1.280
2020/01/31 15:05:18.8	359.350	-0.370	0.860	1.290
2020/01/31 15:05:18.9	359.280	-0.320	0.730	1.300
2020/01/31 15:05:19.0	359.220	-0.260	0.590	1.300
2020/01/31 15:05:19.1	359.170	-0.200	0.450	1.290
2020/01/31 15:05:19.2	359.120	-0.140	0.300	1.270
2020/01/31 15:05:19.3	359.070	-0.080	0.150	1.250
2020/01/31 15:05:19.4	359.040	-0.010	-0.010	1.230
2020/01/31 15:05:19.5	359.000	0.050	-0.170	1.190
2020/01/31 15:05:19.6	358.980	0.120	-0.320	1.150
2020/01/31 15:05:19.7	358.960	0.180	-0.480	1.100
2020/01/31 15:05:19.8	358.950	0.250	-0.640	1.050
2020/01/31 15:05:19.9	358.950	0.320	-0.800	0.990
2020/01/31 15:05:20.0	358.950	0.380	-0.950	0.920
2020/01/31 15:05:20.1	358.960	0.440	-1.100	0.850
2020/01/31 15:05:20.2	358.970	0.500	-1.240	0.770
2020/01/31 15:05:20.3	358.990	0.560	-1.380	0.690
2020/01/31 15:05:20.4	359.020	0.620	-1.510	0.610
2020/01/31 15:05:20.5	359.050	0.670	-1.630	0.520
2020/01/31 15:05:20.6	359.090	0.720	-1.740	0.420
2020/01/31 15:05:20.7	359.130	0.760	-1.840	0.320
2020/01/31 15:05:20.8	359.180	0.800	-1.940	0.220
2020/01/31 15:05:20.9	359.230	0.840	-2.020	0.120
2020/01/31 15:05:21.0	359.290	0.870	-2.080	0.020
2020/01/31 15:05:21.1	359.350	0.890	-2.140	-0.080
2020/01/31 15:05:21.2	359.410	0.910	-2.180	-0.180
2020/01/31 15:05:21.3	359.470	0.930	-2.210	-0.280
2020/01/31 15:05:21.4	359.540	0.940	-2.230	-0.380
2020/01/31 15:05:21.5	359.610	0.940	-2.230	-0.470
2020/01/31 15:05:21.6	359.670	0.940	-2.220	-0.570
2020/01/31 15:05:21.7	359.740	0.930	-2.200	-0.650
2020/01/31 15:05:21.8	359.800	0.920	-2.170	-0.730
2020/01/31 15:05:21.9	359.870	0.900	-2.120	-0.810
2020/01/31 15:05:22.0	359.930	0.880	-2.070	-0.870
2020/01/31 15:05:22.1	359.990	0.850	-2.000	-0.940
2020/01/31 15:05:22.2	0.050	0.820	-1.930	-0.990
2020/01/31 15:05:22.3	0.110	0.780	-1.840	-1.040
2020/01/31 15:05:22.4	0.160	0.740	-1.750	-1.080
2020/01/31 15:05:22.5	0.220	0.690	-1.660	-1.110
2020/01/31 15:05:22.6	0.260	0.640	-1.550	-1.140
2020/01/31 15:05:22.7	0.310	0.590	-1.450	-1.170
2020/01/31 15:05:22.8	0.360	0.530	-1.340	-1.190
2020/01/31 15:05:22.9	0.400	0.470	-1.230	-1.210
2020/01/31 15:05:23.0	0.440	0.400	-1.120	-1.220
2020/01/31 15:05:23.1	0.480	0.340	-1.000	-1.240
2020/01/31 15:05:23.2	0.520	0.270	-0.890	-1.250
2020/01/31 15:05:23.3	0.560	0.200	-0.780	-1.260
2020/01/31 15:05:23.4	0.600	0.130	-0.680	-1.270
2020/01/31 15:05:23.5	0.630	0.060	-0.570	-1.280
2020/01/31 15:05:23.6	0.690	-0.020	-0.480	-1.280
2020/01/31 15:05:23.7	0.720	-0.090	-0.380	-1.290
2020/01/31 15:05:23.8	0.750	-0.160	-0.290	-1.290
2020/01/31 15:05:23.9	0.780	-0.230	-0.200	-1.300
2020/01/31 15:05:24.0	0.810	-0.300	-0.110	-1.300
2020/01/31 15:05:24.1	0.830	-0.360	-0.040	-1.310
2020/01/31 15:05:24.2	0.860	-0.430	0.040	-1.310
2020/01/31 15:05:24.3	0.880	-0.490	0.110	-1.310
2020/01/31 15:05:24.4	0.910	-0.550	0.170	-1.310
2020/01/31 15:05:24.5	0.930	-0.600	0.230	-1.310
2020/01/31 15:05:24.6	0.940	-0.650	0.280	-1.300
2020/01/31 15:05:24.7	0.970	-0.690	0.340	-1.280
2020/01/31 15:05:24.8	0.980	-0.730	0.390	-1.260
2020/01/31 15:05:24.9	0.980	-0.770	0.440	-1.240
2020/01/31 15:05:25.0	0.990	-0.800	0.480	-1.210
2020/01/31 15:05:25.1	0.990	-0.830	0.520	-1.180
2020/01/31 15:05:25.2	0.980	-0.850	0.560	-1.140
2020/01/31 15:05:25.3	0.980	-0.860	0.590	-1.090
2020/01/31 15:05:25.4	0.970	-0.870	0.630	-1.040
2020/01/31 15:05:25.5	0.950	-0.880	0.660	-0.990
2020/01/31 15:05:25.6	0.940	-0.880	0.680	-0.930
2020/01/31 15:05:25.7	0.920	-0.870	0.710	-0.870
2020/01/31 15:05:25.8	0.890	-0.860	0.730	-0.810
2020/01/31 15:05:25.9	0.870	-0.850	0.760	-0.740
2020/01/31 15:05:26.0	0.840	-0.830	0.770	-0.670
2020/01/31 15:05:26.1	0.820	-0.800	0.790	-0.600
2020/01/31 15:05:26.2	0.790	-0.770	0.800	-0.530
2020/01/31 15:05:26.3	0.760	-0.740	0.810	-0.460
2020/01/31 15:05:26.4	0.720	-0.700	0.810	-0.390
2020/01/31 15:05:26.5	0.690	-0.660	0.820	-0.320
2020/01/31 15:05:26.6	0.650	-0.610	0.810	-0.240
2020/01/31 15:05:26.7	0.620	-0.560	0.810	-0.170
2020/01/31 15:05:26.8	0.590	-0.510	0.790	-0.110
2020/01/31 15:05:26.9	0.550	-0.460	0.770	-0.040
2020/01/31 15:05:27.0	0.520	-0.400	0.750	0.020
2020/01/31 15:05:27.1	0.490	-0.340	0.720	0.080
2020/01/31 15:05:27.2	0.460	-0.280	0.690	0.140
2020/01/31 15:05:27.3	0.430	-0.210	0.650	0.190
2020/01/31 15:05:27.4	0.410	-0.150	0.600	0.240
2020/01/31 15:05:27.5	0.380	-0.090	0.550	0.280
2020/01/31 15:05:27.6	0.360	-0.020	0.500	0.320
2020/01/31 15:05:27.7	0.330	0.040	0.450	0.360
2020/01/31 15:05:27.8	0.310	0.100	0.390	0.390
2020/01/31 15:05:27.9	0.290	0.160	0.320	0.420
2020/01/31 15:05:28.0	0.270	0.220	0.260	0.450
2020/01/31 15:05:28.1	0.250	0.280	0.190	0.470
2020/01/31 15:05:28.2	0.240	0.330	0.130	0.490
2020/01/31 15:05:28.3	0.220	0.390	0.060	0.500
2020/01/31 15:05:28.4	0.200	0.430	-0.010	0.520
2020/01/31 15:05:28.5	0.180	0.480	-0.070	0.530
2020/01/31 15:05:28.6	0.160	0.520	-0.140	0.540
2020/01/31 15:05:28.7	0.150	0.550	-0.200	0.550
2020/01/31 15:05:28.8	0.130	0.580	-0.260	0.550
2020/01/31 15:05:28.9	0.120	0.610	-0.320	0.550
2020/01/31 15:05:29.0	0.110	0.630	-0.370	0.550
2020/01/31 15:05:29.1	0.100	0.650	-0.420	0.550
2020/01/31 15:05:29.2	0.090	0.660	-0.470	0.540
2020/01/31 15:05:29.3	0.080	0.670	-0.510	0.530
2020/01/31 15:05:29.4	0.070	0.670	-0.550	0.510
2020/01/31 15:05:29.5	0.060	0.670	-0.590	0.490
2020/01/31 15:05:29.6	0.060	0.660	-0.620	0.470
2020/01/31 15:05:29.7	0.060	0.650	-0.650	0.440
2020/01/31 15:05:29.8	0.060	0.630	-0.670	0.410
2020/01/31 15:05:29.9	0.060	0.610	-0.690	0.380
2020/01/31 15:05:30.0	0.070	0.590	-0.710	0.340
2020/01/31 15:05:30.1	0.070	0.560	-0.730	0.300
2020/01/31 15:05:30.2	0.080	0.530	-0.740	0.260
2020/01/31 15:05:30.3	0.090	0.490	-0.750	0.210
2020/01/31 15:05:30.4	0.110	0.460	-0.750	0.160
2020/01/31 15:05:30.5	0.130	0.420	-0.760	0.110
2020/01/31 15:05:30.6	0.140	0.380	-0.760	0.050
2020/01/31 15:05:30.7	0.160	0.340	-0.760	-0.000
2020/01/31 15:05:30.8	0.180	0.300	-0.750	-0.060
2020/01/31 15:05:30.9	0.210	0.250	-0.740	-0.120
2020/01/31 15:05:31.0	0.230	0.210	-0.740	-0.170
2020/01/31 15:05:31.1	0.250	0.160	-0.720	-0.230
2020/01/31 15:05:31.2	0.280	0.120	-0.710	-0.290
2020/01/31 15:05:31.3	0.300	0.080	-0.700	-0.340
2020/01/31 15:05:31.4	0.330	0.040	-0.680	-0.400
2020/01/31 15:05:31.5	0.350	-0.000	-0.660	-0.450
2020/01/31 15:05:31.6	0.380	-0.040	-0.640	-0.500
2020/01/31 15:05:31.7	0.410	-0.080	-0.620	-0.550
2020/01/31 15:05:31.8	0.430	-0.120	-0.600	-0.600
2020/01/31 15:05:31.9	0.460	-0.150	-0.570	-0.640
2020/01/31 15:05:32.0	0.480	-0.180	-0.550	-0.690
2020/01/31 15:05:32.1	0.500	-0.210	-0.520	-0.730
2020/01/31 15:05:32.2	0.530	-0.240	-0.500	-0.770
2020/01/31 15:05:32.3	0.550	-0.260	-0.480	-0.810
2020/01/31 15:05:32.4	0.570	-0.280	-0.450	-0.840
2020/01/31 15:05:32.5	0.590	-0.300	-0.430	-0.870
2020/01/31 15:05:32.6	0.620	-0.310	-0.410	-0.910
2020/01/31 15:05:32.7	0.650	-0.320	-0.390	-0.930
2020/01/31 15:05:32.8	0.670	-0.330	-0.370	-0.960
2020/01/31 15:05:32.9	0.690	-0.340	-0.350	-0.990
2020/01/31 15:05:33.0	0.710	-0.350	-0.330	-1.010
2020/01/31 15:05:33.1	0.730	-0.350	-0.310	-1.030
2020/01/31 15:05:33.2	0.750	-0.350	-0.300	-1.050
2020/01/31 15:05:33.3	0.780	-0.340	-0.290	-1.070
2020/01/31 15:05:33.4	0.800	-0.340	-0.280	-1.080
2020/01/31 15:05:33.5	0.820	-0.330	-0.270	-1.090
2020/01/31 15:05:33.6	0.850	-0.330	-0.260	-1.100
2020/01/31 15:05:33.7	0.870	-0.320	-0.250	-1.110
2020/01/31 15:05:33.8	0.900	-0.310	-0.250	-1.120
2020/01/31 15:05:33.9	0.920	-0.300	-0.240	-1.120
2020/01/31 15:05:34.0	0.940	-0.290	-0.240	-1.120
2020/01/31 15:05:34.1	0.950	-0.270	-0.240	-1.120
2020/01/31 15:05:34.2	0.970	-0.260	-0.240	-1.110
2020/01/31 15:05:34.3	0.990	-0.250	-0.240	-1.110
2020/01/31 15:05:34.4	1.000	-0.240	-0.240	-1.100
2020/01/31 15:05:34.5	1.020	-0.220	-0.240	-1.080
2020/01/31 15:05:34.6	1.030	-0.210	-0.240	-1.070
2020/01/31 15:05:34.7	1.050	-0.200	-0.240	-1.050
2020/01/31 15:05:34.8	1.060	-0.190	-0.240	-1.030
2020/01/31 15:05:34.9	1.070	-0.180	-0.240	-1.010
2020/01/31 15:05:35.0	1.080	-0.170	-0.240	-0.990
2020/01/31 15:05:35.1	1.090	-0.160	-0.240	-0.970
2020/01/31 15:05:35.2	1.100	-0.150	-0.230	-0.940
2020/01/31 15:05:35.3	1.100	-0.140	-0.230	-0.920
2020/01/31 15:05:35.4	1.110	-0.130	-0.230	-0.890
2020/01/31 15:05:35.5	1.120	-0.120	-0.220	-0.860
2020/01/31 15:05:35.6	1.120	-0.110	-0.220	-0.830
2020/01/31 15:05:35.7	1.120	-0.110	-0.210	-0.790
2020/01/31 15:05:35.8	1.120	-0.100	-0.210	-0.750
2020/01/31 15:05:35.9	1.120	-0.090	-0.200	-0.710
2020/01/31 15:05:36.0	1.120	-0.080	-0.190	-0.670
2020/01/31 15:05:36.1	1.120	-0.070	-0.180	-0.630
2020/01/31 15:05:36.2	1.120	-0.060	-0.170	-0.580
2020/01/31 15:05:36.3	1.110	-0.050	-0.160	-0.530
2020/01/31 15:05:36.4	1.100	-0.040	-0.150	-0.480
2020/01/31 15:05:36.5	1.090	-0.030	-0.140	-0.420
2020/01/31 15:05:36.6	1.080	-0.020	-0.120	-0.360
2020/01/31 15:05:36.7	1.070	-0.010	-0.100	-0.310
2020/01/31 15:05:36.8	1.050	0.000	-0.090	-0.250
2020/01/31 15:05:36.9	1.030	0.010	-0.070	-0.190
2020/01/31 15:05:37.0	1.000	0.030	-0.050	-0.130
2020/01/31 15:05:37.1	0.980	0.040	-0.040	-0.070
2020/01/31 15:05:37.2	0.960	0.060	-0.020	-0.010
2020/01/31 15:05:37.3	0.930	0.070	-0.000	0.050
2020/01/31 15:05:37.4	0.900	0.090	0.010	0.100
2020/01/31 15:05:37.5	0.870	0.110	0.020	0.160
2020/01/31 15:05:37.6	0.850	0.120	0.040	0.210
2020/01/31 15:05:37.7	0.810	0.140	0.050	0.260
2020/01/31 15:05:37.8	0.790	0.160	0.060	0.300
2020/01/31 15:05:37.9	0.760	0.180	0.060	0.340
2020/01/31 15:05:38.0	0.740	0.200	0.060	0.380
2020/01/31 15:05:38.1	0.710	0.220	0.060	0.410
2020/01/31 15:05:38.2	0.690	0.240	0.060	0.430
2020/01/31 15:05:38.3	0.670	0.260	0.050	0.450
2020/01/31 15:05:38.4	0.650	0.280	0.030	0.470
2020/01/31 15:05:38.5	0.640	0.300	0.020	0.480
2020/01/31 15:05:38.6	0.630	0.310	-0.000	0.480
2020/01/31 15:05:38.7	0.610	0.330	-0.030	0.470
2020/01/31 15:05:38.8	0.600	0.350	-0.060	0.470
2020/01/31 15:05:38.9	0.590	0.370	-0.090	0.450
2020/01/31 15:05:39.0	0.580	0.380	-0.120	0.430
2020/01/31 15:05:39.1	0.580	0.390	-0.150	0.410
2020/01/31 15:05:39.2	0.570	0.400	-0.190	0.390
2020/01/31 15:05:39.3	0.570	0.410	-0.230	0.360
2020/01/31 15:05:39.4	0.560	0.420	-0.270	0.330
2020/01/31 15:05:39.5	0.560	0.430	-0.310	0.290
2020/01/31 15:05:39.6	0.550	0.430	-0.340	0.250
2020/01/31 15:05:39.7	0.550	0.430	-0.380	0.220
2020/01/31 15:05:39.8	0.540	0.420	-0.420	0.180
2020/01/31 15:05:39.9	0.530	0.420	-0.450	0.130
2020/01/31 15:05:40.0	0.530	0.410	-0.480	0.090
2020/01/31 15:05:40.1	0.520	0.400	-0.510	0.040
2020/01/31 15:05:40.2	0.520	0.390	-0.540	-0.000
2020/01/31 15:05:40.3	0.510	0.370	-0.570	-0.050
2020/01/31 15:05:40.4	0.500	0.350	-0.590	-0.100
2020/01/31 15:05:40.5	0.490	0.330	-0.610	-0.150
2020/01/31 15:05:40.6	0.490	0.310	-0.620	-0.200
2020/01/31 15:05:40.7	0.480	0.280	-0.640	-0.260
2020/01/31 15:05:40.8	0.470	0.250	-0.650	-0.310
2020/01/31 15:05:40.9	0.470	0.230	-0.650	-0.370
2020/01/31 15:05:41.0	0.460	0.200	-0.660	-0.430
2020/01/31 15:05:41.1	0.460	0.160	-0.660	-0.490
2020/01/31 15:05:41.2	0.450	0.130	-0.660	-0.540
2020/01/31 15:05:41.3	0.450	0.100	-0.660	-0.600
2020/01/31 15:05:41.4	0.450	0.070	-0.650	-0.660
2020/01/31 15:05:41.5	0.450	0.040	-0.640	-0.720
2020/01/31 15:05:41.6	0.440	0.000	-0.630	-0.770
2020/01/31 15:05:41.7	0.440	-0.030	-0.610	-0.830
2020/01/31 15:05:41.8	0.440	-0.060	-0.590	-0.880
2020/01/31 15:05:41.9	0.450	-0.090	-0.580	-0.930
2020/01/31 15:05:42.0	0.450	-0.120	-0.560	-0.980
2020/01/31 15:05:42.1	0.450	-0.140	-0.530	-1.020
2020/01/31 15:05:42.2	0.460	-0.170	-0.510	-1.060
2020/01/31 15:05:42.3	0.460	-0.190	-0.480	-1.090
2020/01/31 15:05:42.4	0.460	-0.210	-0.450	-1.120
2020/01/31 15:05:42.5	0.460	-0.230	-0.420	-1.150
2020/01/31 15:05:42.6	0.460	-0.240	-0.390	-1.170
2020/01/31 15:05:42.7	0.460	-0.260	-0.360	-1.190
2020/01/31 15:05:42.8	0.460	-0.270	-0.320	-1.200
2020/01/31 15:05:42.9	0.460	-0.280	-0.290	-1.210
2020/01/31 15:05:43.0	0.460	-0.290	-0.250	-1.220
2020/01/31 15:05:43.1	0.450	-0.290	-0.220	-1.220
2020/01/31 15:05:43.2	0.450	-0.300	-0.180	-1.210
2020/01/31 15:05:43.3	0.440	-0.300	-0.150	-1.200
2020/01/31 15:05:43.4	0.430	-0.300	-0.110	-1.190
2020/01/31 15:05:43.5	0.420	-0.300	-0.070	-1.170
2020/01/31 15:05:43.6	0.410	-0.290	-0.040	-1.150
2020/01/31 15:05:43.7	0.400	-0.290	-0.000	-1.120
2020/01/31 15:05:43.8	0.390	-0.280	0.040	-1.100
2020/01/31 15:05:43.9	0.370	-0.270	0.070	-1.060
2020/01/31 15:05:44.0	0.360	-0.260	0.100	-1.030
2020/01/31 15:05:44.1	0.340	-0.250	0.130	-0.990
2020/01/31 15:05:44.2	0.320	-0.240	0.160	-0.940
2020/01/31 15:05:44.3	0.300	-0.230	0.190	-0.900
2020/01/31 15:05:44.4	0.280	-0.220	0.210	-0.850
2020/01/31 15:05:44.5	0.260	-0.210	0.230	-0.800
2020/01/31 15:05:44.6	0.240	-0.200	0.250	-0.750
2020/01/31 15:05:44.7	0.220	-0.190	0.260	-0.700
2020/01/31 15:05:44.8	0.200	-0.180	0.270	-0.650
2020/01/31 15:05:44.9	0.180	-0.170	0.270	-0.600
2020/01/31 15:05:45.0	0.160	-0.150	0.270	-0.560
2020/01/31 15:05:45.1	0.150	-0.140	0.270	-0.510
2020/01/31 15:05:45.2	0.130	-0.130	0.250	-0.470
2020/01/31 15:05:45.3	0.120	-0.120	0.240	-0.430
2020/01/31 15:05:45.4	0.110	-0.110	0.210	-0.400
2020/01/31 15:05:45.5	0.100	-0.100	0.190	-0.360
2020/01/31 15:05:45.6	0.090	-0.090	0.150	-0.340
2020/01/31 15:05:45.7	0.090	-0.080	0.120	-0.310
2020/01/31 15:05:45.8	0.080	-0.070	0.080	-0.290
2020/01/31 15:05:45.9	0.080	-0.050	0.040	-0.270
2020/01/31 15:05:46.0	0.080	-0.040	-0.010	-0.250
2020/01/31 15:05:46.1	0.080	-0.030	-0.060	-0.230
2020/01/31 15:05:46.2	0.080	-0.020	-0.110	-0.220
2020/01/31 15:05:46.3	0.080	-0.010	-0.160	-0.210
2020/01/31 15:05:46.4	0.080	-0.000	-0.210	-0.200
2020/01/31 15:05:46.5	0.080	0.000	-0.250	-0.190
2020/01/31 15:05:46.6	0.090	0.010	-0.300	-0.180
2020/01/31 15:05:46.7	0.090	0.020	-0.350	-0.170
2020/01/31 15:05:46.8	0.100	0.030	-0.390	-0.170
2020/01/31 15:05:46.9	0.100	0.030	-0.430	-0.160
2020/01/31 15:05:47.0	0.100	0.040	-0.460	-0.150
2020/01/31 15:05:47.1	0.100	0.040	-0.490	-0.140
2020/01/31 15:05:47.2	0.100	0.050	-0.520	-0.140
2020/01/31 15:05:47.3	0.100	0.050	-0.540	-0.130
2020/01/31 15:05:47.4	0.100	0.050	-0.560	-0.120
2020/01/31 15:05:47.5	0.100	0.060	-0.580	-0.100
2020/01/31 15:05:47.6	0.100	0.060	-0.590	-0.090
2020/01/31 15:05:47.7	0.100	0.060	-0.590	-0.080
2020/01/31 15:05:47.8	0.090	0.060	-0.590	-0.060
2020/01/31 15:05:47.9	0.090	0.060	-0.590	-0.050
2020/01/31 15:05:48.0	0.080	0.060	-0.590	-0.030
2020/01/31 15:05:48.1	0.070	0.060	-0.580	-0.010
2020/01/31 15:05:48.2	0.060	0.060	-0.560	0.020
2020/01/31 15:05:48.3	0.050	0.060	-0.550	0.040
2020/01/31 15:05:48.4	0.040	0.060	-0.530	0.070
2020/01/31 15:05:48.5	0.020	0.060	-0.510	0.090
2020/01/31 15:05:48.6	0.000	0.060	-0.490	0.120
2020/01/31 15:05:48.7	359.990	0.060	-0.470	0.150
2020/01/31 15:05:48.8	359.960	0.060	-0.440	0.180
2020/01/31 15:05:48.9	359.940	0.060	-0.420	0.210
2020/01/31 15:05:49.0	359.920	0.060	-0.390	0.240
2020/01/31 15:05:49.1	359.890	0.060	-0.350	0.270
2020/01/31 15:05:49.2	359.860	0.060	-0.320	0.300
2020/01/31 15:05:49.3	359.840	0.060	-0.290	0.330
2020/01/31 15:05:49.4	359.810	0.060	-0.260	0.360
2020/01/31 15:05:49.5	359.780	0.060	-0.230	0.380
2020/01/31 15:05:49.6	359.750	0.070	-0.190	0.410
2020/01/31 15:05:49.7	359.730	0.070	-0.170	0.430
2020/01/31 15:05:49.8	359.700	0.070	-0.140	0.450
2020/01/31 15:05:49.9	359.670	0.080	-0.110	0.470
2020/01/31 15:05:50.0	359.650	0.080	-0.090	0.480
2020/01/31 15:05:50.1	359.630	0.080	-0.080	0.490
2020/01/31 15:05:50.2	359.600	0.080	-0.060	0.500
2020/01/31 15:05:50.3	359.580	0.090	-0.050	0.500
2020/01/31 15:05:50.4	359.560	0.090	-0.040	0.490
2020/01/31 15:05:50.5	359.550	0.090	-0.040	0.490
2020/01/31 15:05:50.6	359.530	0.090	-0.040	0.480
2020/01/31 15:05:50.7	359.520	0.090	-0.040	0.460
2020/01/31 15:05:50.8	359.510	0.090	-0.050	0.450
2020/01/31 15:05:50.9	359.500	0.090	-0.070	0.430
2020/01/31 15:05:51.0	359.490	0.090	-0.080	0.400
2020/01/31 15:05:51.1	359.490	0.090	-0.100	0.370
2020/01/31 15:05:51.2	359.490	0.090	-0.130	0.340
2020/01/31 15:05:51.3	359.500	0.090	-0.150	0.310
2020/01/31 15:05:51.4	359.510	0.080	-0.190	0.270
2020/01/31 15:05:51.5	359.520	0.080	-0.220	0.220
2020/01/31 15:05:51.6	359.530	0.070	-0.260	0.180
2020/01/31 15:05:51.7	359.550	0.070	-0.300	0.130
2020/01/31 15:05:51.8	359.570	0.060	-0.340	0.080
2020/01/31 15:05:51.9	359.590	0.060	-0.380	0.030
2020/01/31 15:05:52.0	359.620	0.050	-0.420	-0.020
2020/01/31 15:05:52.1	359.650	0.040	-0.470	-0.080
2020/01/31 15:05:52.2	359.680	0.040	-0.510	-0.130
2020/01/31 15:05:52.3	359.710	0.030	-0.560	-0.190
2020/01/31 15:05:52.4	359.750	0.020	-0.600	-0.240
2020/01/31 15:05:52.5	359.780	0.020	-0.640	-0.300
2020/01/31 15:05:52.6	359.810	0.010	-0.670	-0.360
2020/01/31 15:05:52.7	359.850	0.010	-0.700	-0.410
2020/01/31 15:05:52.8	359.880	0.000	-0.730	-0.460
2020/01/31 15:05:52.9	359.910	-0.000	-0.750	-0.500
2020/01/31 15:05:53.0	359.940	-0.010	-0.770	-0.540
2020/01/31 15:05:53.1	359.970	-0.010	-0.780	-0.580
2020/01/31 15:05:53.2	0.000	-0.020	-0.780	-0.610
2020/01/31 15:05:53.3	0.020	-0.020	-0.780	-0.640
2020/01/31 15:05:53.4	0.040	-0.020	-0.760	-0.650
2020/01/31 15:05:53.5	0.060	-0.020	-0.740	-0.670
2020/01/31 15:05:53.6	0.070	-0.020	-0.710	-0.670
2020/01/31 15:05:53.7	0.080	-0.020	-0.680	-0.670
2020/01/31 15:05:53.8	0.090	-0.020	-0.640	-0.670
2020/01/31 15:05:53.9	0.090	-0.020	-0.590	-0.650
2020/01/31 15:05:54.0	0.090	-0.010	-0.530	-0.630
2020/01/31 15:05:54.1	0.080	-0.010	-0.470	-0.610
2020/01/31 15:05:54.2	0.080	-0.010	-0.410	-0.580
2020/01/31 15:05:54.3	0.070	-0.000	-0.340	-0.550
2020/01/31 15:05:54.4	0.060	0.000	-0.270	-0.510
2020/01/31 15:05:54.5	0.040	0.010	-0.190	-0.470
2020/01/31 15:05:54.6	0.030	0.010	-0.120	-0.430
2020/01/31 15:05:54.7	0.010	0.020	-0.050	-0.390
2020/01/31 15:05:54.8	359.990	0.020	0.020	-0.340
2020/01/31 15:05:54.9	359.970	0.030	0.090	-0.300
2020/01/31 15:05:55.0	359.950	0.030	0.160	-0.250
2020/01/31 15:05:55.1	359.920	0.040	0.220	-0.200
2020/01/31 15:05:55.2	359.900	0.040	0.280	-0.160
2020/01/31 15:05:55.3	359.880	0.040	0.340	-0.110
2020/01/31 15:05:55.4	359.860	0.050	0.390	-0.070
2020/01/31 15:05:55.5	359.830	0.050	0.430	-0.020
2020/01/31 15:05:55.6	359.810	0.050	0.460	0.020
2020/01/31 15:05:55.7	359.790	0.050	0.490	0.060
2020/01/31 15:05:55.8	359.770	0.050	0.510	0.100
2020/01/31 15:05:55.9	359.750	0.050	0.530	0.130
2020/01/31 15:05:56.0	359.730	0.050	0.530	0.160
2020/01/31 15:05:56.1	359.720	0.040	0.530	0.190
2020/01/31 15:05:56.2	359.700	0.040	0.520	0.210
2020/01/31 15:05:56.3	359.680	0.030	0.510	0.230
2020/01/31 15:05:56.4	359.670	0.030	0.480	0.250
2020/01/31 15:05:56.5	359.650	0.020	0.450	0.260
2020/01/31 15:05:56.6	359.640	0.010	0.420	0.270
2020/01/31 15:05:56.7	359.620	0.010	0.380	0.270
2020/01/31 15:05:56.8	359.620	-0.000	0.330	0.270
2020/01/31 15:05:56.9	359.610	-0.010	0.280	0.260
2020/01/31 15:05:57.0	359.600	-0.020	0.220	0.250
2020/01/31 15:05:57.1	359.600	-0.030	0.160	0.230
2020/01/31 15:05:57.2	359.600	-0.040	0.090	0.210
2020/01/31 15:05:57.3	359.600	-0.060	0.030	0.180
2020/01/31 15:05:57.4	359.610	-0.070	-0.040	0.150
2020/01/31 15:05:57.5	359.620	-0.080	-0.110	0.120
2020/01/31 15:05:57.6	359.620	-0.090	-0.190	0.080
2020/01/31 15:05:57.7	359.640	-0.100	-0.260	0.040
2020/01/31 15:05:57.8	359.650	-0.110	-0.330	-0.010
2020/01/31 15:05:57.9	359.670	-0.110	-0.400	-0.050
2020/01/31 15:05:58.0	359.680	-0.120	-0.480	-0.100
2020/01/31 15:05:58.1	359.700	-0.130	-0.550	-0.140
2020/01/31 15:05:58.2	359.720	-0.130	-0.610	-0.190
2020/01/31 15:05:58.3	359.740	-0.140	-0.680	-0.230
2020/01/31 15:05:58.4	359.770	-0.140	-0.740	-0.280
2020/01/31 15:05:58.5	359.790	-0.140	-0.800	-0.320
2020/01/31 15:05:58.6	359.810	-0.150	-0.850	-0.360
2020/01/31 15:05:58.7	359.820	-0.150	-0.890	-0.400
2020/01/31 15:05:58.8	359.840	-0.150	-0.930	-0.440
2020/01/31 15:05:58.9	359.860	-0.150	-0.970	-0.470
2020/01/31 15:05:59.0	359.880	-0.150	-1.000	-0.500
2020/01/31 15:05:59.1	359.900	-0.140	-1.020	-0.530
2020/01/31 15:05:59.2	359.920	-0.140	-1.030	-0.560
2020/01/31 15:05:59.3	359.930	-0.140	-1.040	-0.580
2020/01/31 15:05:59.4	359.940	-0.130	-1.040	-0.600
2020/01/31 15:05:59.5	359.960	-0.130	-1.030	-0.620
2020/01/31 15:05:59.6	359.980	-0.120	-1.020	-0.640
2020/01/31 15:05:59.7	359.990	-0.120	-1.010	-0.660
2020/01/31 15:05:59.8	0.000	-0.110	-0.980	-0.670
2020/01/31 15:05:59.9	0.010	-0.110	-0.950	-0.690
2020/01/31 15:06:00.0	0.020	-0.100	-0.920	-0.700
2020/01/31 15:06:00.1	0.030	-0.090	-0.880	-0.710
2020/01/31 15:06:00.2	0.040	-0.090	-0.840	-0.710
2020/01/31 15:06:00.3	0.040	-0.080	-0.790	-0.710
2020/01/31 15:06:00.4	0.050	-0.070	-0.740	-0.720
2020/01/31 15:06:00.5	0.060	-0.060	-0.680	-0.710
2020/01/31 15:06:00.6	0.070	-0.050	-0.630	-0.710
2020/01/31 15:06:00.7	0.070	-0.050	-0.570	-0.700
2020/01/31 15:06:00.8	0.080	-0.040	-0.510	-0.690
2020/01/31 15:06:00.9	0.080	-0.030	-0.450	-0.680
2020/01/31 15:06:01.0	0.080	-0.030	-0.380	-0.660
2020/01/31 15:06:01.1	0.090	-0.020	-0.320	-0.640
2020/01/31 15:06:01.2	0.090	-0.020	-0.250	-0.620
2020/01/31 15:06:01.3	0.090	-0.010	-0.190	-0.600
2020/01/31 15:06:01.4	0.090	-0.010	-0.130	-0.570
2020/01/31 15:06:01.5	0.080	-0.000	-0.060	-0.550
2020/01/31 15:06:01.6	0.080	-0.000	-0.000	-0.520
2020/01/31 15:06:01.7	0.070	0.000	0.060	-0.480
2020/01/31 15:06:01.8	0.070	0.000	0.110	-0.450
2020/01/31 15:06:01.9	0.060	0.000	0.170	-0.420
2020/01/31 15:06:02.0	0.050	0.000	0.220	-0.380
2020/01/31 15:06:02.1	0.040	0.000	0.270	-0.350
2020/01/31 15:06:02.2	0.030	0.000	0.310	-0.310
2020/01/31 15:06:02.3	0.010	-0.000	0.350	-0.280
2020/01/31 15:06:02.4	0.000	-0.000	0.380	-0.240
2020/01/31 15:06:02.5	359.980	-0.010	0.410	-0.210
2020/01/31 15:06:02.6	359.970	-0.010	0.440	-0.180
2020/01/31 15:06:02.7	359.950	-0.010	0.460	-0.150
2020/01/31 15:06:02.8	359.940	-0.020	0.470	-0.120
2020/01/31 15:06:02.9	359.920	-0.020	0.480	-0.090
2020/01/31 15:06:03.0	359.910	-0.020	0.490	-0.060
2020/01/31 15:06:03.1	359.890	-0.030	0.490	-0.040
2020/01/31 15:06:03.2	359.880	-0.030	0.480	-0.010
2020/01/31 15:06:03.3	359.860	-0.030	0.470	0.010
2020/01/31 15:06:03.4	359.850	-0.040	0.460	0.030
2020/01/31 15:06:03.5	359.830	-0.040	0.440	0.040
2020/01/31 15:06:03.6	359.820	-0.040	0.410	0.060
2020/01/31 15:06:03.7	359.810	-0.050	0.380	0.070
2020/01/31 15:06:03.8	359.790	-0.050	0.350	0.080
2020/01/31 15:06:03.9	359.780	-0.050	0.310	0.090
2020/01/31 15:06:04.0	359.770	-0.050	0.270	0.100
2020/01/31 15:06:04.1	359.760	-0.050	0.230	0.100
2020/01/31 15:06:04.2	359.750	-0.050	0.180	0.100
2020/01/31 15:06:04.3	359.740	-0.050	0.130	0.100
2020/01/31 15:06:04.4	359.740	-0.050	0.080	0.100
2020/01/31 15:06:04.5	359.730	-0.050	0.020	0.090
2020/01/31 15:06:04.6	359.720	-0.050	-0.030	0.080
2020/01/31 15:06:04.7	359.710	-0.050	-0.090	0.070
2020/01/31 15:06:04.8	359.710	-0.050	-0.150	0.050
2020/01/31 15:06:04.9	359.700	-0.050	-0.210	0.040
2020/01/31 15:06:05.0	359.690	-0.040	-0.270	0.020
2020/01/31 15:06:05.1	359.690	-0.040	-0.330	-0.000
2020/01/31 15:06:05.2	359.690	-0.030	-0.390	-0.020
2020/01/31 15:06:05.3	359.680	-0.030	-0.450	-0.050
2020/01/31 15:06:05.4	359.680	-0.020	-0.510	-0.080
2020/01/31 15:06:05.5	359.680	-0.020	-0.560	-0.110
2020/01/31 15:06:05.6	359.690	-0.010	-0.620	-0.140
2020/01/31 15:06:05.7	359.690	-0.010	-0.670	-0.170
2020/01/31 15:06:05.8	359.690	-0.000	-0.720	-0.210
2020/01/31 15:06:05.9	359.700	0.010	-0.770	-0.250
2020/01/31 15:06:06.0	359.710	0.010	-0.810	-0.290
2020/01/31 15:06:06.1	359.720	0.020	-0.850	-0.330
2020/01/31 15:06:06.2	359.730	0.020	-0.890	-0.370
2020/01/31 15:06:06.3	359.740	0.030	-0.920	-0.410
2020/01/31 15:06:06.4	359.760	0.030	-0.950	-0.450
2020/01/31 15:06:06.5	359.770	0.030	-0.980	-0.490
2020/01/31 15:06:06.6	359.790	0.040	-1.000	-0.540
2020/01/31 15:06:06.7	359.810	0.040	-1.010	-0.580
2020/01/31 15:06:06.8	359.820	0.040	-1.020	-0.610
2020/01/31 15:06:06.9	359.840	0.040	-1.030	-0.650
2020/01/31 15:06:07.0	359.860	0.030	-1.030	-0.680
2020/01/31 15:06:07.1	359.870	0.030	-1.030	-0.710
2020/01/31 15:06:07.2	359.880	0.030	-1.020	-0.740
2020/01/31 15:06:07.3	359.900	0.020	-1.010	-0.760
2020/01/31 15:06:07.4	359.910	0.010	-0.990	-0.780
2020/01/31 15:06:07.5	359.920	0.010	-0.960	-0.800
2020/01/31 15:06:07.6	359.920	-0.000	-0.940	-0.810
2020/01/31 15:06:07.7	359.930	-0.010	-0.900	-0.820
2020/01/31 15:06:07.8	359.940	-0.020	-0.860	-0.820
2020/01/31 15:06:07.9	359.950	-0.040	-0.820	-0.830
2020/01/31 15:06:08.0	359.950	-0.050	-0.770	-0.830
2020/01/31 15:06:08.1	359.950	-0.060	-0.720	-0.820
2020/01/31 15:06:08.2	359.960	-0.070	-0.670	-0.810
2020/01/31 15:06:08.3	359.960	-0.090	-0.610	-0.800
2020/01/31 15:06:08.4	359.950	-0.100	-0.550	-0.780
2020/01/31 15:06:08.5	359.950	-0.110	-0.490	-0.760
2020/01/31 15:06:08.6	359.950	-0.120	-0.420	-0.740
2020/01/31 15:06:08.7	359.940	-0.130	-0.350	-0.710
2020/01/31 15:06:08.8	359.930	-0.130	-0.290	-0.670
2020/01/31 15:06:08.9	359.920	-0.140	-0.220	-0.640
2020/01/31 15:06:09.0	359.910	-0.140	-0.150	-0.600
2020/01/31 15:06:09.1	359.900	-0.140	-0.080	-0.550
2020/01/31 15:06:09.2	359.890	-0.140	-0.020	-0.510
2020/01/31 15:06:09.3	359.880	-0.140	0.050	-0.460
2020/01/31 15:06:09.4	359.860	-0.130	0.110	-0.410
2020/01/31 15:06:09.5	359.850	-0.120	0.160	-0.360
2020/01/31 15:06:09.6	359.830	-0.110	0.210	-0.310
2020/01/31 15:06:09.7	359.820	-0.100	0.260	-0.260
2020/01/31 15:06:09.8	359.800	-0.080	0.310	-0.210
2020/01/31 15:06:09.9	359.790	-0.060	0.350	-0.160
2020/01/31 15:06:10.0	359.780	-0.040	0.390	-0.110
2020/01/31 15:06:10.1	359.770	-0.010	0.420	-0.050
2020/01/31 15:06:10.2	359.760	0.010	0.450	-0.000
2020/01/31 15:06:10.3	359.750	0.040	0.470	0.050
2020/01/31 15:06:10.4	359.730	0.070	0.490	0.100
2020/01/31 15:06:10.5	359.720	0.100	0.500	0.150
2020/01/31 15:06:10.6	359.700	0.130	0.520	0.200
2020/01/31 15:06:10.7	359.680	0.160	0.520	0.250
2020/01/31 15:06:10.8	359.670	0.190	0.520	0.300
2020/01/31 15:06:10.9	359.650	0.220	0.520	0.350
2020/01/31 15:06:11.0	359.630	0.250	0.510	0.400
2020/01/31 15:06:11.1	359.610	0.280	0.500	0.440
2020/01/31 15:06:11.2	359.580	0.300	0.490	0.490
2020/01/31 15:06:11.3	359.560	0.330	0.480	0.540
2020/01/31 15:06:11.4	359.530	0.350	0.460	0.580
2020/01/31 15:06:11.5	359.500	0.360	0.440	0.620
2020/01/31 15:06:11.6	359.470	0.380	0.410	0.660
2020/01/31 15:06:11.7	359.440	0.390	0.380	0.690
2020/01/31 15:06:11.8	359.400	0.390	0.360	0.720
2020/01/31 15:06:11.9	359.370	0.400	0.330	0.740
2020/01/31 15:06:12.0	359.340	0.390	0.290	0.750
2020/01/31 15:06:12.1	359.310	0.390	0.260	0.770
2020/01/31 15:06:12.2	359.270	0.380	0.220	0.770
2020/01/31 15:06:12.3	359.240	0.360	0.180	0.770
2020/01/31 15:06:12.4	359.210	0.350	0.140	0.770
2020/01/31 15:06:12.5	359.180	0.320	0.100	0.760
2020/01/31 15:06:12.6	359.160	0.300	0.050	0.750
2020/01/31 15:06:12.7	359.130	0.270	0.010	0.730
2020/01/31 15:06:12.8	359.100	0.240	-0.040	0.710
2020/01/31 15:06:12.9	359.080	0.200	-0.090	0.690
2020/01/31 15:06:13.0	359.060	0.170	-0.140	0.660
2020/01/31 15:06:13.1	359.050	0.130	-0.200	0.630
2020/01/31 15:06:13.2	359.030	0.090	-0.260	0.590
2020/01/31 15:06:13.3	359.020	0.050	-0.310	0.550
2020/01/31 15:06:13.4	359.010	0.010	-0.370	0.510
2020/01/31 15:06:13.5	359.010	-0.030	-0.430	0.460
2020/01/31 15:06:13.6	359.000	-0.080	-0.490	0.410
2020/01/31 15:06:13.7	359.010	-0.120	-0.550	0.350
2020/01/31 15:06:13.8	359.010	-0.160	-0.610	0.290
2020/01/31 15:06:13.9	359.010	-0.200	-0.670	0.230
2020/01/31 15:06:14.0	359.020	-0.240	-0.730	0.170
2020/01/31 15:06:14.1	359.040	-0.280	-0.790	0.100
2020/01/31 15:06:14.2	359.050	-0.310	-0.850	0.030
2020/01/31 15:06:14.3	359.070	-0.340	-0.900	-0.040
2020/01/31 15:06:14.4	359.090	-0.370	-0.950	-0.110
2020/01/31 15:06:14.5	359.110	-0.400	-1.000	-0.190
2020/01/31 15:06:14.6	359.140	-0.420	-1.040	-0.270
2020/01/31 15:06:14.7	359.170	-0.440	-1.080	-0.350
2020/01/31 15:06:14.8	359.200	-0.460	-1.120	-0.420
2020/01/31 15:06:14.9	359.230	-0.470	-1.150	-0.500
2020/01/31 15:06:15.0	359.260	-0.480	-1.180	-0.580
2020/01/31 15:06:15.1	359.290	-0.490	-1.200	-0.660
2020/01/31 15:06:15.2	359.330	-0.490	-1.220	-0.730
2020/01/31 15:06:15.3	359.360	-0.480	-1.230	-0.800
2020/01/31 15:06:15.4	359.400	-0.480	-1.240	-0.870
2020/01/31 15:06:15.5	359.440	-0.470	-1.230	-0.940
2020/01/31 15:06:15.6	359.470	-0.450	-1.230	-1.000
2020/01/31 15:06:15.7	359.510	-0.440	-1.220	-1.070
2020/01/31 15:06:15.8	359.540	-0.420	-1.200	-1.120
2020/01/31 15:06:15.9	359.580	-0.390	-1.170	-1.170
2020/01/31 15:06:16.0	359.610	-0.370	-1.140	-1.210
2020/01/31 15:06:16.1	359.640	-0.340	-1.100	-1.240
2020/01/31 15:06:16.2	359.660	-0.310	-1.060	-1.270
2020/01/31 15:06:16.3	359.690	-0.280	-1.010	-1.290
2020/01/31 15:06:16.4	359.710	-0.250	-0.960	-1.300
2020/01/31 15:06:16.5	359.730	-0.210	-0.900	-1.310
2020/01/31 15:06:16.6	359.750	-0.180	-0.830	-1.300
2020/01/31 15:06:16.7	359.760	-0.150	-0.770	-1.290
2020/01/31 15:06:16.8	359.770	-0.110	-0.700	-1.280
2020/01/31 15:06:16.9	359.780	-0.080	-0.630	-1.250
2020/01/31 15:06:17.0	359.790	-0.040	-0.550	-1.220
2020/01/31 15:06:17.1	359.790	-0.010	-0.480	-1.190
2020/01/31 15:06:17.2	359.790	0.020	-0.400	-1.150
2020/01/31 15:06:17.3	359.800	0.050	-0.330	-1.100
2020/01/31 15:06:17.4	359.790	0.080	-0.250	-1.050
2020/01/31 15:06:17.5	359.790	0.110	-0.180	-1.000
2020/01/31 15:06:17.6	359.780	0.130	-0.100	-0.940
2020/01/31 15:06:17.7	359.780	0.150	-0.030	-0.880
2020/01/31 15:06:17.8	359.770	0.170	0.030	-0.820
2020/01/31 15:06:17.9	359.770	0.190	0.100	-0.760
2020/01/31 15:06:18.0	359.760	0.200	0.160	-0.690
2020/01/31 15:06:18.1	359.750	0.210	0.220	-0.630
2020/01/31 15:06:18.2	359.740	0.220	0.270	-0.560
2020/01/31 15:06:18.3	359.720	0.230	0.320	-0.490
2020/01/31 15:06:18.4	359.710	0.230	0.360	-0.430
2020/01/31 15:06:18.5	359.700	0.230	0.400	-0.360
2020/01/31 15:06:18.6	359.680	0.220	0.440	-0.300
2020/01/31 15:06:18.7	359.660	0.220	0.470	-0.220
2020/01/31 15:06:18.8	359.640	0.210	0.490	-0.160
2020/01/31 15:06:18.9	359.620	0.200	0.500	-0.100
2020/01/31 15:06:19.0	359.600	0.180	0.520	-0.040
2020/01/31 15:06:19.1	359.580	0.170	0.520	0.020
2020/01/31 15:06:19.2	359.560	0.150	0.520	0.080
2020/01/31 15:06:19.3	359.530	0.130	0.520	0.130
2020/01/31 15:06:19.4	359.500	0.110	0.510	0.180
2020/01/31 15:06:19.5	359.480	0.090	0.500	0.230
2020/01/31 15:06:19.6	359.450	0.060	0.490	0.270
2020/01/31 15:06:19.7	359.420	0.040	0.470	0.310
2020/01/31 15:06:19.8	359.390	0.010	0.450	0.350
2020/01/31 15:06:19.9	359.360	-0.010	0.430	0.390
2020/01/31 15:06:20.0	359.330	-0.030	0.400	0.420
2020/01/31 15:06:20.1	359.300	-0.060	0.370	0.450
2020/01/31 15:06:20.2	359.270	-0.080	0.340	0.470
2020/01/31 15:06:20.3	359.240	-0.100	0.310	0.490
2020/01/31 15:06:20.4	359.210	-0.120	0.280	0.510
2020/01/31 15:06:20.5	359.180	-0.130	0.250	0.530
2020/01/31 15:06:20.6	359.150	-0.150	0.220	0.540
2020/01/31 15:06:20.7	359.120	-0.160	0.180	0.550
2020/01/31 15:06:20.8	359.090	-0.170	0.150	0.550
2020/01/31 15:06:20.9	359.060	-0.180	0.110	0.560
2020/01/31 15:06:21.0	359.040	-0.180	0.080	0.560
2020/01/31 15:06:21.1	359.010	-0.180	0.050	0.560
2020/01/31 15:06:21.2	358.980	-0.180	0.020	0.560
2020/01/31 15:06:21.3	358.960	-0.180	-0.020	0.560
2020/01/31 15:06:21.4	358.930	-0.170	-0.050	0.560
2020/01/31 15:06:21.5	358.910	-0.160	-0.080	0.550
2020/01/31 15:06:21.6	358.880	-0.150	-0.110	0.540
2020/01/31 15:06:21.7	358.870	-0.140	-0.130	0.540
2020/01/31 15:06:21.8	358.850	-0.120	-0.160	0.520
2020/01/31 15:06:21.9	358.830	-0.110	-0.190	0.510
2020/01/31 15:06:22.0	358.810	-0.090	-0.220	0.490
2020/01/31 15:06:22.1	358.790	-0.070	-0.250	0.470
2020/01/31 15:06:22.2	358.780	-0.050	-0.270	0.450
2020/01/31 15:06:22.3	358.760	-0.030	-0.300	0.430
2020/01/31 15:06:22.4	358.750	-0.010	-0.330	0.410
2020/01/31 15:06:22.5	358.750	0.010	-0.360	0.380
2020/01/31 15:06:22.6	358.740	0.040	-0.390	0.350
2020/01/31 15:06:22.7	358.730	0.060	-0.410	0.320
2020/01/31 15:06:22.8	358.730	0.080	-0.440	0.290
2020/01/31 15:06:22.9	358.730	0.100	-0.470	0.260
2020/01/31 15:06:23.0	358.730	0.110	-0.500	0.230
2020/01/31 15:06:23.1	358.730	0.130	-0.520	0.200
2020/01/31 15:06:23.2	358.740	0.150	-0.550	0.170
2020/01/31 15:06:23.3	358.750	0.160	-0.570	0.130
2020/01/31 15:06:23.4	358.760	0.180	-0.590	0.100
2020/01/31 15:06:23.5	358.770	0.190	-0.610	0.060
2020/01/31 15:06:23.6	358.780	0.200	-0.630	0.030
2020/01/31 15:06:23.7	358.790	0.200	-0.650	-0.010
2020/01/31 15:06:23.8	358.800	0.210	-0.670	-0.040
2020/01/31 15:06:23.9	358.820	0.210	-0.690	-0.080
2020/01/31 15:06:24.0	358.840	0.220	-0.700	-0.120
2020/01/31 15:06:24.1	358.860	0.220	-0.710	-0.150
2020/01/31 15:06:24.2	358.880	0.220	-0.720	-0.190
2020/01/31 15:06:24.3	358.900	0.220	-0.730	-0.220
2020/01/31 15:06:24.4	358.930	0.210	-0.740	-0.260
2020/01/31 15:06:24.5	358.950	0.210	-0.740	-0.290
2020/01/31 15:06:24.6	358.980	0.210	-0.740	-0.330
2020/01/31 15:06:24.7	359.000	0.200	-0.740	-0.360
2020/01/31 15:06:24.8	359.030	0.200	-0.740	-0.390
2020/01/31 15:06:24.9	359.060	0.200	-0.740	-0.420
2020/01/31 15:06:25.0	359.090	0.190	-0.730	-0.440
2020/01/31 15:06:25.1	359.120	0.190	-0.720	-0.460
2020/01/31 15:06:25.2	359.150	0.180	-0.700	-0.480
2020/01/31 15:06:25.3	359.170	0.180	-0.690	-0.500
2020/01/31 15:06:25.4	359.200	0.170	-0.670	-0.510
2020/01/31 15:06:25.5	359.230	0.170	-0.640	-0.520
2020/01/31 15:06:25.6	359.250	0.160	-0.620	-0.520
2020/01/31 15:06:25.7	359.270	0.160	-0.590	-0.520
2020/01/31 15:06:25.8	359.290	0.150	-0.560	-0.520
2020/01/31 15:06:25.9	359.310	0.150	-0.520	-0.520
2020/01/31 15:06:26.0	359.330	0.140	-0.490	-0.510
2020/01/31 15:06:26.1	359.340	0.140	-0.450	-0.490
2020/01/31 15:06:26.2	359.360	0.130	-0.410	-0.480
2020/01/31 15:06:26.3	359.360	0.120	-0.370	-0.460
2020/01/31 15:06:26.4	359.370	0.100	-0.330	-0.450
2020/01/31 15:06:26.5	359.380	0.090	-0.290	-0.430
2020/01/31 15:06:26.6	359.370	0.080	-0.250	-0.410
2020/01/31 15:06:26.7	359.370	0.060	-0.210	-0.390
2020/01/31 15:06:26.8	359.370	0.040	-0.170	-0.370
2020/01/31 15:06:26.9	359.370	0.020	-0.130	-0.350
2020/01/31 15:06:27.0	359.370	-0.000	-0.090	-0.330
2020/01/31 15:06:27.1	359.360	-0.020	-0.060	-0.320
2020/01/31 15:06:27.2	359.360	-0.050	-0.030	-0.310
2020/01/31 15:06:27.3	359.350	-0.080	-0.000	-0.290
2020/01/31 15:06:27.4	359.350	-0.100	0.020	-0.280
2020/01/31 15:06:27.5	359.340	-0.130	0.040	-0.270
2020/01/31 15:06:27.6	359.340	-0.160	0.050	-0.260
2020/01/31 15:06:27.7	359.340	-0.190	0.070	-0.260
2020/01/31 15:06:27.8	359.330	-0.220	0.070	-0.260
2020/01/31 15:06:27.9	359.320	-0.250	0.080	-0.250
2020/01/31 15:06:28.0	359.320	-0.270	0.080	-0.250
2020/01/31 15:06:28.1	359.310	-0.300	0.070	-0.250
2020/01/31 15:06:28.2	359.310	-0.330	0.060	-0.260
2020/01/31 15:06:28.3	359.300	-0.350	0.050	-0.260
2020/01/31 15:06:28.4	359.300	-0.380	0.040	-0.260
2020/01/31 15:06:28.5	359.290	-0.400	0.020	-0.270
2020/01/31 15:06:28.6	359.290	-0.420	-0.000	-0.280
2020/01/31 15:06:28.7	359.280	-0.430	-0.020	-0.290
2020/01/31 15:06:28.8	359.280	-0.450	-0.050	-0.300
2020/01/31 15:06:28.9	359.280	-0.460	-0.080	-0.310
2020/01/31 15:06:29.0	359.280	-0.460	-0.100	-0.320
2020/01/31 15:06:29.1	359.280	-0.470	-0.130	-0.330
2020/01/31 15:06:29.2	359.280	-0.470	-0.160	-0.340
2020/01/31 15:06:29.3	359.280	-0.470	-0.190	-0.350
2020/01/31 15:06:29.4	359.270	-0.460	-0.210	-0.360
2020/01/31 15:06:29.5	359.270	-0.450	-0.240	-0.370
2020/01/31 15:06:29.6	359.270	-0.430	-0.260	-0.380
2020/01/31 15:06:29.7	359.270	-0.410	-0.280	-0.390
2020/01/31 15:06:29.8	359.270	-0.390	-0.290	-0.400
2020/01/31 15:06:29.9	359.270	-0.360	-0.310	-0.400
2020/01/31 15:06:30.0	359.260	-0.340	-0.320	-0.400
2020/01/31 15:06:30.1	359.260	-0.300	-0.320	-0.400
2020/01/31 15:06:30.2	359.250	-0.270	-0.330	-0.400
2020/01/31 15:06:30.3	359.250	-0.230	-0.330	-0.390
2020/01/31 15:06:30.4	359.240	-0.190	-0.330	-0.380
2020/01/31 15:06:30.5	359.230	-0.150	-0.320	-0.370
2020/01/31 15:06:30.6	359.220	-0.110	-0.310	-0.350
2020/01/31 15:06:30.7	359.210	-0.070	-0.300	-0.330
2020/01/31 15:06:30.8	359.200	-0.020	-0.290	-0.310
2020/01/31 15:06:30.9	359.180	0.020	-0.280	-0.280
2020/01/31 15:06:31.0	359.170	0.060	-0.270	-0.260
2020/01/31 15:06:31.1	359.160	0.110	-0.250	-0.230
2020/01/31 15:06:31.2	359.140	0.150	-0.240	-0.200
2020/01/31 15:06:31.3	359.130	0.190	-0.220	-0.170
2020/01/31 15:06:31.4	359.120	0.230	-0.210	-0.140
2020/01/31 15:06:31.5	359.110	0.260	-0.200	-0.110
2020/01/31 15:06:31.6	359.100	0.300	-0.190	-0.080
2020/01/31 15:06:31.7	359.080	0.330	-0.180	-0.050
2020/01/31 15:06:31.8	359.070	0.350	-0.170	-0.020
2020/01/31 15:06:31.9	359.070	0.380	-0.160	0.010
2020/01/31 15:06:32.0	359.060	0.400	-0.160	0.040
2020/01/31 15:06:32.1	359.060	0.420	-0.150	0.070
2020/01/31 15:06:32.2	359.060	0.430	-0.150	0.090
2020/01/31 15:06:32.3	359.050	0.440	-0.150	0.110
2020/01/31 15:06:32.4	359.050	0.450	-0.150	0.130
2020/01/31 15:06:32.5	359.050	0.450	-0.150	0.150
2020/01/31 15:06:32.6	359.050	0.440	-0.150	0.170
2020/01/31 15:06:32.7	359.060	0.440	-0.160	0.180
2020/01/31 15:06:32.8	359.050	0.430	-0.160	0.190
2020/01/31 15:06:32.9	359.050	0.410	-0.160	0.200
2020/01/31 15:06:33.0	359.050	0.390	-0.160	0.210
2020/01/31 15:06:33.1	359.040	0.370	-0.160	0.210
2020/01/31 15:06:33.2	359.030	0.350	-0.160	0.210
2020/01/31 15:06:33.3	359.030	0.320	-0.160	0.210
2020/01/31 15:06:33.4	359.020	0.290	-0.160	0.210
2020/01/31 15:06:33.5	359.010	0.250	-0.160	0.200
2020/01/31 15:06:33.6	359.000	0.210	-0.150	0.200
2020/01/31 15:06:33.7	358.990	0.180	-0.150	0.190
2020/01/31 15:06:33.8	358.970	0.140	-0.140	0.170
2020/01/31 15:06:33.9	358.960	0.090	-0.130	0.160
2020/01/31 15:06:34.0	358.940	0.050	-0.120	0.140
2020/01/31 15:06:34.1	358.930	0.010	-0.110	0.120
2020/01/31 15:06:34.2	358.910	-0.030	-0.110	0.100
2020/01/31 15:06:34.3	358.900	-0.070	-0.100	0.070
2020/01/31 15:06:34.4	358.890	-0.120	-0.090	0.040
2020/01/31 15:06:34.5	358.880	-0.150	-0.080	0.020
2020/01/31 15:06:34.6	358.870	-0.190	-0.080	-0.020
2020/01/31 15:06:34.7	358.860	-0.230	-0.080	-0.050
2020/01/31 15:06:34.8	358.860	-0.260	-0.080	-0.090
2020/01/31 15:06:34.9	358.850	-0.290	-0.080	-0.120
2020/01/31 15:06:35.0	358.850	-0.320	-0.090	-0.160
2020/01/31 15:06:35.1	358.850	-0.340	-0.100	-0.200
2020/01/31 15:06:35.2	358.850	-0.370	-0.120	-0.240
2020/01/31 15:06:35.3	358.850	-0.380	-0.140	-0.280
2020/01/31 15:06:35.4	358.860	-0.400	-0.160	-0.320
2020/01/31 15:06:35.5	358.860	-0.410	-0.190	-0.360
2020/01/31 15:06:35.6	358.870	-0.410	-0.220	-0.400
2020/01/31 15:06:35.7	358.890	-0.420	-0.250	-0.440
2020/01/31 15:06:35.8	358.900	-0.420	-0.280	-0.480
2020/01/31 15:06:35.9	358.920	-0.410	-0.320	-0.520
2020/01/31 15:06:36.0	358.940	-0.400	-0.360	-0.560
2020/01/31 15:06:36.1	358.960	-0.390	-0.400	-0.600
2020/01/31 15:06:36.2	358.980	-0.370	-0.440	-0.640
2020/01/31 15:06:36.3	359.000	-0.360	-0.480	-0.680
2020/01/31 15:06:36.4	359.030	-0.330	-0.520	-0.710
2020/01/31 15:06:36.5	359.060	-0.310	-0.560	-0.750
2020/01/31 15:06:36.6	359.080	-0.280	-0.600	-0.790
2020/01/31 15:06:36.7	359.110	-0.260	-0.630	-0.830
2020/01/31 15:06:36.8	359.150	-0.230	-0.660	-0.860
2020/01/31 15:06:36.9	359.180	-0.190	-0.690	-0.890
2020/01/31 15:06:37.0	359.210	-0.160	-0.720	-0.920
2020/01/31 15:06:37.1	359.250	-0.130	-0.740	-0.940
2020/01/31 15:06:37.2	359.280	-0.090	-0.760	-0.960
2020/01/31 15:06:37.3	359.320	-0.060	-0.770	-0.980
2020/01/31 15:06:37.4	359.350	-0.020	-0.780	-0.990
2020/01/31 15:06:37.5	359.390	0.010	-0.780	-1.000
2020/01/31 15:06:37.6	359.420	0.050	-0.780	-1.000
2020/01/31 15:06:37.7	359.450	0.080	-0.770	-1.000
2020/01/31 15:06:37.8	359.480	0.110	-0.750	-0.990
2020/01/31 15:06:37.9	359.510	0.140	-0.730	-0.980
2020/01/31 15:06:38.0	359.540	0.170	-0.700	-0.950
2020/01/31 15:06:38.1	359.560	0.200	-0.660	-0.930
2020/01/31 15:06:38.2	359.580	0.230	-0.630	-0.900
2020/01/31 15:06:38.3	359.600	0.250	-0.580	-0.860
2020/01/31 15:06:38.4	359.610	0.270	-0.530	-0.820
2020/01/31 15:06:38.5	359.620	0.280	-0.480	-0.770
2020/01/31 15:06:38.6	359.630	0.300	-0.430	-0.710
2020/01/31 15:06:38.7	359.630	0.310	-0.370	-0.660
2020/01/31 15:06:38.8	359.630	0.320	-0.310	-0.600
2020/01/31 15:06:38.9	359.630	0.320	-0.250	-0.540
2020/01/31 15:06:39.0	359.620	0.320	-0.190	-0.480
2020/01/31 15:06:39.1	359.620	0.320	-0.130	-0.420
2020/01/31 15:06:39.2	359.610	0.320	-0.070	-0.360
2020/01/31 15:06:39.3	359.600	0.310	-0.010	-0.300
2020/01/31 15:06:39.4	359.580	0.300	0.040	-0.240
2020/01/31 15:06:39.5	359.570	0.290	0.090	-0.180
2020/01/31 15:06:39.6	359.570	0.270	0.140	-0.120
2020/01/31 15:06:39.7	359.550	0.260	0.180	-0.070
2020/01/31 15:06:39.8	359.540	0.240	0.220	-0.020
2020/01/31 15:06:39.9	359.530	0.220	0.250	0.020
2020/01/31 15:06:40.0	359.520	0.200	0.270	0.060
2020/01/31 15:06:40.1	359.510	0.180	0.290	0.100
2020/01/31 15:06:40.2	359.500	0.160	0.300	0.130
2020/01/31 15:06:40.3	359.490	0.140	0.310	0.160
2020/01/31 15:06:40.4	359.480	0.120	0.310	0.190
2020/01/31 15:06:40.5	359.470	0.100	0.300	0.210
2020/01/31 15:06:40.6	359.460	0.090	0.290	0.220
2020/01/31 15:06:40.7	359.450	0.070	0.280	0.240
2020/01/31 15:06:40.8	359.440	0.050	0.250	0.250
2020/01/31 15:06:40.9	359.430	0.030	0.230	0.260
2020/01/31 15:06:41.0	359.420	0.020	0.200	0.270
2020/01/31 15:06:41.1	359.410	0.000	0.170	0.270
2020/01/31 15:06:41.2	359.390	-0.010	0.130	0.270
2020/01/31 15:06:41.3	359.370	-0.030	0.100	0.270
2020/01/31 15:06:41.4	359.360	-0.040	0.060	0.270
2020/01/31 15:06:41.5	359.340	-0.050	0.020	0.270
2020/01/31 15:06:41.6	359.310	-0.070	-0.010	0.260
2020/01/31 15:06:41.7	359.290	-0.080	-0.050	0.260
2020/01/31 15:06:41.8	359.270	-0.090	-0.080	0.250
2020/01/31 15:06:41.9	359.240	-0.100	-0.120	0.240
2020/01/31 15:06:42.0	359.220	-0.110	-0.150	0.220
2020/01/31 15:06:42.1	359.190	-0.120	-0.180	0.210
2020/01/31 15:06:42.2	359.170	-0.130	-0.200	0.190
2020/01/31 15:06:42.3	359.140	-0.140	-0.230	0.170
2020/01/31 15:06:42.4	359.120	-0.150	-0.250	0.150
2020/01/31 15:06:42.5	359.100	-0.160	-0.270	0.130
2020/01/31 15:06:42.6	359.070	-0.170	-0.290	0.110
2020/01/31 15:06:42.7	359.050	-0.180	-0.300	0.090
2020/01/31 15:06:42.8	359.030	-0.190	-0.310	0.060
2020/01/31 15:06:42.9	359.010	-0.200	-0.320	0.030
2020/01/31 15:06:43.0	358.990	-0.210	-0.330	0.000
2020/01/31 15:06:43.1	358.980	-0.220	-0.340	-0.030
2020/01/31 15:06:43.2	358.970	-0.230	-0.340	-0.060
2020/01/31 15:06:43.3	358.960	-0.240	-0.350	-0.100
2020/01/31 15:06:43.4	358.950	-0.240	-0.350	-0.130
2020/01/31 15:06:43.5	358.950	-0.250	-0.350	-0.170
2020/01/31 15:06:43.6	358.940	-0.250	-0.360	-0.210
2020/01/31 15:06:43.7	358.940	-0.250	-0.360	-0.250
2020/01/31 15:06:43.8	358.940	-0.260	-0.360	-0.290
2020/01/31 15:06:43.9	358.940	-0.260	-0.370	-0.320
2020/01/31 15:06:44.0	358.950	-0.250	-0.370	-0.360
2020/01/31 15:06:44.1	358.960	-0.250	-0.380	-0.400
2020/01/31 15:06:44.2	358.970	-0.250	-0.380	-0.440
2020/01/31 15:06:44.3	358.990	-0.240	-0.390	-0.470
2020/01/31 15:06:44.4	359.000	-0.230	-0.400	-0.510
2020/01/31 15:06:44.5	359.020	-0.220	-0.410	-0.540
2020/01/31 15:06:44.6	359.030	-0.200	-0.420	-0.570
2020/01/31 15:06:44.7	359.040	-0.190	-0.440	-0.590
2020/01/31 15:06:44.8	359.060	-0.170	-0.450	-0.620
2020/01/31 15:06:44.9	359.080	-0.150	-0.470	-0.640
2020/01/31 15:06:45.0	359.090	-0.120	-0.480	-0.650
2020/01/31 15:06:45.1	359.110	-0.100	-0.500	-0.660
2020/01/31 15:06:45.2	359.120	-0.070	-0.510	-0.670
2020/01/31 15:06:45.3	359.140	-0.050	-0.530	-0.670
2020/01/31 15:06:45.4	359.150	-0.020	-0.540	-0.670
2020/01/31 15:06:45.5	359.160	0.010	-0.560	-0.660
2020/01/31 15:06:45.6	359.180	0.040	-0.570	-0.650
2020/01/31 15:06:45.7	359.180	0.070	-0.580	-0.640
2020/01/31 15:06:45.8	359.190	0.100	-0.600	-0.620
2020/01/31 15:06:45.9	359.200	0.130	-0.610	-0.610
2020/01/31 15:06:46.0	359.200	0.160	-0.620	-0.580
2020/01/31 15:06:46.1	359.210	0.190	-0.630	-0.560
2020/01/31 15:06:46.2	359.210	0.220	-0.630	-0.530
2020/01/31 15:06:46.3	359.210	0.250	-0.640	-0.500
2020/01/31 15:06:46.4	359.210	0.270	-0.640	-0.470
2020/01/31 15:06:46.5	359.210	0.300	-0.640	-0.440
2020/01/31 15:06:46.6	359.210	0.320	-0.640	-0.410
2020/01/31 15:06:46.7	359.210	0.340	-0.640	-0.370
2020/01/31 15:06:46.8	359.210	0.360	-0.630	-0.340
2020/01/31 15:06:46.9	359.210	0.370	-0.620	-0.310
2020/01/31 15:06:47.0	359.200	0.380	-0.610	-0.280
2020/01/31 15:06:47.1	359.200	0.390	-0.590	-0.250
2020/01/31 15:06:47.2	359.190	0.390	-0.580	-0.220
2020/01/31 15:06:47.3	359.190	0.400	-0.560	-0.190
2020/01/31 15:06:47.4	359.180	0.400	-0.540	-0.160
2020/01/31 15:06:47.5	359.180	0.390	-0.520	-0.130
2020/01/31 15:06:47.6	359.170	0.390	-0.500	-0.100
2020/01/31 15:06:47.7	359.170	0.380	-0.470	-0.080
2020/01/31 15:06:47.8	359.170	0.370	-0.450	-0.050
2020/01/31 15:06:47.9	359.170	0.350	-0.420	-0.030
2020/01/31 15:06:48.0	359.170	0.340	-0.390	-0.000
2020/01/31 15:06:48.1	359.170	0.320	-0.360	0.020
2020/01/31 15:06:48.2	359.180	0.290	-0.340	0.040
2020/01/31 15:06:48.3	359.180	0.270	-0.310	0.060
2020/01/31 15:06:48.4	359.180	0.240	-0.280	0.080
2020/01/31 15:06:48.5	359.190	0.220	-0.250	0.100
2020/01/31 15:06:48.6	359.190	0.190	-0.220	0.120
2020/01/31 15:06:48.7	359.190	0.150	-0.190	0.130
2020/01/31 15:06:48.8	359.190	0.120	-0.160	0.150
2020/01/31 15:06:48.9	359.200	0.090	-0.130	0.160
2020/01/31 15:06:49.0	359.200	0.060	-0.100	0.170
2020/01/31 15:06:49.1	359.210	0.020	-0.080	0.170
2020/01/31 15:06:49.2	359.210	-0.010	-0.050	0.180
2020/01/31 15:06:49.3	359.220	-0.050	-0.020	0.180
2020/01/31 15:06:49.4	359.220	-0.080	0.010	0.170
2020/01/31 15:06:49.5	359.230	-0.110	0.030	0.170
2020/01/31 15:06:49.6	359.240	-0.140	0.060	0.160
2020/01/31 15:06:49.7	359.250	-0.170	0.090	0.150
2020/01/31 15:06:49.8	359.260	-0.200	0.120	0.140
2020/01/31 15:06:49.9	359.260	-0.230	0.140	0.120
2020/01/31 15:06:50.0	359.270	-0.260	0.170	0.110
2020/01/31 15:06:50.1	359.280	-0.280	0.190	0.100
2020/01/31 15:06:50.2	359.290	-0.300	0.220	0.080
2020/01/31 15:06:50.3	359.300	-0.320	0.240	0.060
2020/01/31 15:06:50.4	359.310	-0.330	0.260	0.050
2020/01/31 15:06:50.5	359.310	-0.340	0.280	0.040
2020/01/31 15:06:50.6	359.320	-0.350	0.310	0.030
2020/01/31 15:06:50.7	359.320	-0.360	0.330	0.020
2020/01/31 15:06:50.8	359.330	-0.360	0.350	0.010
2020/01/31 15:06:50.9	359.330	-0.360	0.360	0.010
2020/01/31 15:06:51.0	359.330	-0.360	0.380	0.010
2020/01/31 15:06:51.1	359.330	-0.360	0.390	0.010
2020/01/31 15:06:51.2	359.330	-0.350	0.410	0.020
2020/01/31 15:06:51.3	359.320	-0.340	0.410	0.030
2020/01/31 15:06:51.4	359.310	-0.330	0.420	0.040
2020/01/31 15:06:51.5	359.310	-0.310	0.420	0.050
2020/01/31 15:06:51.6	359.290	-0.300	0.420	0.060
2020/01/31 15:06:51.7	359.280	-0.280	0.410	0.070
2020/01/31 15:06:51.8	359.270	-0.260	0.400	0.090
2020/01/31 15:06:51.9	359.250	-0.240	0.390	0.110
2020/01/31 15:06:52.0	359.240	-0.220	0.370	0.120
2020/01/31 15:06:52.1	359.220	-0.200	0.350	0.130
2020/01/31 15:06:52.2	359.200	-0.170	0.320	0.140
2020/01/31 15:06:52.3	359.190	-0.150	0.280	0.150
2020/01/31 15:06:52.4	359.170	-0.120	0.240	0.150
2020/01/31 15:06:52.5	359.160	-0.100	0.200	0.160
2020/01/31 15:06:52.6	359.140	-0.080	0.150	0.150
2020/01/31 15:06:52.7	359.120	-0.050	0.100	0.150
2020/01/31 15:06:52.8	359.100	-0.030	0.040	0.140
2020/01/31 15:06:52.9	359.090	-0.000	-0.020	0.130
2020/01/31 15:06:53.0	359.070	0.020	-0.080	0.110
2020/01/31 15:06:53.1	359.060	0.040	-0.140	0.090
2020/01/31 15:06:53.2	359.050	0.060	-0.210	0.060
2020/01/31 15:06:53.3	359.040	0.080	-0.270	0.030
2020/01/31 15:06:53.4	359.030	0.100	-0.340	0.000
2020/01/31 15:06:53.5	359.020	0.120	-0.400	-0.030
2020/01/31 15:06:53.6	359.010	0.130	-0.460	-0.070
2020/01/31 15:06:53.7	359.000	0.150	-0.520	-0.100
2020/01/31 15:06:53.8	358.990	0.160	-0.580	-0.130
2020/01/31 15:06:53.9	358.990	0.170	-0.630	-0.160
2020/01/31 15:06:54.0	358.980	0.180	-0.680	-0.190
2020/01/31 15:06:54.1	358.970	0.190	-0.720	-0.220
2020/01/31 15:06:54.2	358.960	0.190	-0.760	-0.240
2020/01/31 15:06:54.3	358.960	0.190	-0.790	-0.260
2020/01/31 15:06:54.4	358.950	0.190	-0.810	-0.280
2020/01/31 15:06:54.5	358.950	0.190	-0.830	-0.300
2020/01/31 15:06:54.6	358.950	0.190	-0.850	-0.310
2020/01/31 15:06:54.7	358.940	0.180	-0.860	-0.320
2020/01/31 15:06:54.8	358.940	0.180	-0.870	-0.330
2020/01/31 15:06:54.9	358.940	0.170	-0.870	-0.340
2020/01/31 15:06:55.0	358.950	0.160	-0.860	-0.350
2020/01/31 15:06:55.1	358.950	0.140	-0.850	-0.360
2020/01/31 15:06:55.2	358.960	0.130	-0.840	-0.370
2020/01/31 15:06:55.3	358.970	0.120	-0.830	-0.380
2020/01/31 15:06:55.4	358.980	0.100	-0.810	-0.390
2020/01/31 15:06:55.5	358.990	0.080	-0.790	-0.400
2020/01/31 15:06:55.6	359.000	0.070	-0.770	-0.410
2020/01/31 15:06:55.7	359.020	0.050	-0.740	-0.420
2020/01/31 15:06:55.8	359.030	0.030	-0.720	-0.430
2020/01/31 15:06:55.9	359.050	0.020	-0.700	-0.440
2020/01/31 15:06:56.0	359.070	-0.000	-0.670	-0.460
2020/01/31 15:06:56.1	359.090	-0.020	-0.650	-0.470
2020/01/31 15:06:56.2	359.110	-0.030	-0.620	-0.480
2020/01/31 15:06:56.3	359.120	-0.050	-0.600	-0.490
2020/01/31 15:06:56.4	359.140	-0.060	-0.570	-0.500
2020/01/31 15:06:56.5	359.160	-0.070	-0.550	-0.500
2020/01/31 15:06:56.6	359.170	-0.080	-0.520	-0.510
2020/01/31 15:06:56.7	359.180	-0.090	-0.490	-0.510
2020/01/31 15:06:56.8	359.190	-0.100	-0.470	-0.500
2020/01/31 15:06:56.9	359.200	-0.110	-0.440	-0.500
2020/01/31 15:06:57.0	359.210	-0.110	-0.410	-0.490
2020/01/31 15:06:57.1	359.210	-0.120	-0.390	-0.480
2020/01/31 15:06:57.2	359.220	-0.120	-0.360	-0.470
2020/01/31 15:06:57.3	359.220	-0.120	-0.330	-0.460
2020/01/31 15:06:57.4	359.220	-0.120	-0.310	-0.440
2020/01/31 15:06:57.5	359.220	-0.120	-0.280	-0.420
2020/01/31 15:06:57.6	359.220	-0.120	-0.250	-0.400
2020/01/31 15:06:57.7	359.220	-0.120	-0.230	-0.380
2020/01/31 15:06:57.8	359.220	-0.110	-0.200	-0.360
2020/01/31 15:06:57.9	359.210	-0.110	-0.180	-0.340
2020/01/31 15:06:58.0	359.210	-0.100	-0.160	-0.310
2020/01/31 15:06:58.1	359.210	-0.090	-0.140	-0.290
2020/01/31 15:06:58.2	359.210	-0.090	-0.120	-0.270
2020/01/31 15:06:58.3	359.200	-0.080	-0.110	-0.240
2020/01/31 15:06:58.4	359.200	-0.070	-0.090	-0.220
2020/01/31 15:06:58.5	359.200	-0.050	-0.080	-0.190
2020/01/31 15:06:58.6	359.200	-0.040	-0.070	-0.170
2020/01/31 15:06:58.7	359.200	-0.030	-0.070	-0.150
2020/01/31 15:06:58.8	359.210	-0.010	-0.070	-0.120
2020/01/31 15:06:58.9	359.210	0.000	-0.070	-0.100
2020/01/31 15:06:59.0	359.210	0.020	-0.070	-0.080
2020/01/31 15:06:59.1	359.220	0.040	-0.080	-0.050
2020/01/31 15:06:59.2	359.220	0.060	-0.090	-0.030
2020/01/31 15:06:59.3	359.220	0.070	-0.100	-0.010
2020/01/31 15:06:59.4	359.230	0.090	-0.110	0.010
2020/01/31 15:06:59.5	359.230	0.110	-0.130	0.030
2020/01/31 15:06:59.6	359.240	0.130	-0.150	0.050
2020/01/31 15:06:59.7	359.250	0.140	-0.170	0.070
2020/01/31 15:06:59.8	359.260	0.160	-0.200	0.080
2020/01/31 15:06:59.9	359.270	0.180	-0.220	0.090
2020/01/31 15:07:00.0	359.280	0.190	-0.250	0.100
2020/01/31 15:07:00.1	359.290	0.210	-0.280	0.100
2020/01/31 15:07:00.2	359.310	0.220	-0.310	0.100
2020/01/31 15:07:00.3	359.320	0.230	-0.340	0.090
2020/01/31 15:07:00.4	359.340	0.240	-0.370	0.090
2020/01/31 15:07:00.5	359.350	0.240	-0.400	0.070
2020/01/31 15:07:00.6	359.370	0.250	-0.430	0.060
2020/01/31 15:07:00.7	359.390	0.250	-0.450	0.040
2020/01/31 15:07:00.8	359.410	0.250	-0.480	0.020
2020/01/31 15:07:00.9	359.430	0.250	-0.500	-0.010
2020/01/31 15:07:01.0	359.450	0.240	-0.510	-0.030
2020/01/31 15:07:01.1	359.470	0.240	-0.530	-0.050
2020/01/31 15:07:01.2	359.490	0.230	-0.540	-0.080
2020/01/31 15:07:01.3	359.500	0.220	-0.540	-0.100
2020/01/31 15:07:01.4	359.520	0.200	-0.540	-0.130
2020/01/31 15:07:01.5	359.530	0.190	-0.530	-0.150
2020/01/31 15:07:01.6	359.540	0.170	-0.520	-0.170
2020/01/31 15:07:01.7	359.550	0.150	-0.500	-0.190
2020/01/31 15:07:01.8	359.550	0.130	-0.470	-0.210
2020/01/31 15:07:01.9	359.560	0.100	-0.440	-0.220
2020/01/31 15:07:02.0	359.560	0.080	-0.400	-0.230
2020/01/31 15:07:02.1	359.560	0.050	-0.360	-0.240
2020/01/31 15:07:02.2	359.560	0.020	-0.310	-0.250
2020/01/31 15:07:02.3	359.560	-0.000	-0.250	-0.250
2020/01/31 15:07:02.4	359.550	-0.030	-0.190	-0.250
2020/01/31 15:07:02.5	359.540	-0.060	-0.130	-0.240
2020/01/31 15:07:02.6	359.530	-0.090	-0.060	-0.230
2020/01/31 15:07:02.7	359.510	-0.120	0.010	-0.220
2020/01/31 15:07:02.8	359.490	-0.140	0.090	-0.210
2020/01/31 15:07:02.9	359.470	-0.170	0.160	-0.190
2020/01/31 15:07:03.0	359.450	-0.190	0.240	-0.170
2020/01/31 15:07:03.1	359.430	-0.210	0.310	-0.140
2020/01/31 15:07:03.2	359.400	-0.230	0.380	-0.110
2020/01/31 15:07:03.3	359.380	-0.250	0.450	-0.080
2020/01/31 15:07:03.4	359.350	-0.260	0.520	-0.050
2020/01/31 15:07:03.5	359.320	-0.280	0.580	-0.010
2020/01/31 15:07:03.6	359.290	-0.290	0.640	0.020
2020/01/31 15:07:03.7	359.260	-0.290	0.680	0.060
2020/01/31 15:07:03.8	359.220	-0.300	0.720	0.090
2020/01/31 15:07:03.9	359.190	-0.300	0.750	0.130
2020/01/31 15:07:04.0	359.160	-0.300	0.780	0.160
2020/01/31 15:07:04.1	359.130	-0.300	0.790	0.190
2020/01/31 15:07:04.2	359.090	-0.290	0.790	0.210
2020/01/31 15:07:04.3	359.060	-0.290	0.780	0.230
2020/01/31 15:07:04.4	359.030	-0.280	0.770	0.250
2020/01/31 15:07:04.5	359.000	-0.270	0.740	0.270
2020/01/31 15:07:04.6	358.960	-0.260	0.700	0.280
2020/01/31 15:07:04.7	358.930	-0.240	0.650	0.280
2020/01/31 15:07:04.8	358.900	-0.230	0.590	0.280
2020/01/31 15:07:04.9	358.870	-0.210	0.530	0.270
2020/01/31 15:07:05.0	358.850	-0.190	0.450	0.260
2020/01/31 15:07:05.1	358.830	-0.170	0.360	0.240
2020/01/31 15:07:05.2	358.810	-0.150	0.270	0.220
2020/01/31 15:07:05.3	358.790	-0.130	0.170	0.190
2020/01/31 15:07:05.4	358.780	-0.110	0.070	0.150
2020/01/31 15:07:05.5	358.770	-0.090	-0.040	0.110
2020/01/31 15:07:05.6	358.770	-0.070	-0.150	0.070
2020/01/31 15:07:05.7	358.770	-0.040	-0.270	0.020
2020/01/31 15:07:05.8	358.770	-0.020	-0.390	-0.030
2020/01/31 15:07:05.9	358.780	0.000	-0.510	-0.080
2020/01/31 15:07:06.0	358.790	0.030	-0.620	-0.130
2020/01/31 15:07:06.1	358.800	0.050	-0.740	-0.190
2020/01/31 15:07:06.2	358.820	0.080	-0.850	-0.240
2020/01/31 15:07:06.3	358.840	0.100	-0.960	-0.300
2020/01/31 15:07:06.4	358.870	0.120	-1.070	-0.350
2020/01/31 15:07:06.5	358.900	0.150	-1.170	-0.410
2020/01/31 15:07:06.6	358.930	0.170	-1.260	-0.460
2020/01/31 15:07:06.7	358.980	0.190	-1.340	-0.510
2020/01/31 15:07:06.8	359.020	0.210	-1.410	-0.560
2020/01/31 15:07:06.9	359.060	0.240	-1.480	-0.600
2020/01/31 15:07:07.0	359.100	0.250	-1.530	-0.640
2020/01/31 15:07:07.1	359.150	0.270	-1.580	-0.680
2020/01/31 15:07:07.2	359.190	0.290	-1.610	-0.720
2020/01/31 15:07:07.3	359.240	0.300	-1.630	-0.750
2020/01/31 15:07:07.4	359.280	0.320	-1.640	-0.780
2020/01/31 15:07:07.5	359.330	0.330	-1.630	-0.810
2020/01/31 15:07:07.6	359.380	0.340	-1.620	-0.830
2020/01/31 15:07:07.7	359.420	0.340	-1.590	-0.840
2020/01/31 15:07:07.8	359.460	0.350	-1.550	-0.860
2020/01/31 15:07:07.9	359.490	0.350	-1.500	-0.860
2020/01/31 15:07:08.0	359.530	0.350	-1.440	-0.860
2020/01/31 15:07:08.1	359.560	0.340	-1.360	-0.850
2020/01/31 15:07:08.2	359.580	0.340	-1.280	-0.840
2020/01/31 15:07:08.3	359.610	0.330	-1.190	-0.820
2020/01/31 15:07:08.4	359.630	0.320	-1.090	-0.800
2020/01/31 15:07:08.5	359.640	0.300	-0.980	-0.770
2020/01/31 15:07:08.6	359.650	0.290	-0.870	-0.730
2020/01/31 15:07:08.7	359.660	0.270	-0.750	-0.690
2020/01/31 15:07:08.8	359.660	0.250	-0.630	-0.650
2020/01/31 15:07:08.9	359.650	0.230	-0.500	-0.600
2020/01/31 15:07:09.0	359.650	0.200	-0.370	-0.550
2020/01/31 15:07:09.1	359.640	0.180	-0.250	-0.490
2020/01/31 15:07:09.2	359.630	0.150	-0.120	-0.440
2020/01/31 15:07:09.3	359.610	0.120	0.000	-0.380
2020/01/31 15:07:09.4	359.600	0.090	0.130	-0.320
2020/01/31 15:07:09.5	359.580	0.060	0.240	-0.260
2020/01/31 15:07:09.6	359.560	0.030	0.350	-0.200
2020/01/31 15:07:09.7	359.550	-0.000	0.450	-0.140
2020/01/31 15:07:09.8	359.520	-0.040	0.540	-0.090
2020/01/31 15:07:09.9	359.500	-0.070	0.630	-0.040
2020/01/31 15:07:10.0	359.490	-0.100	0.700	0.010
2020/01/31 15:07:10.1	359.470	-0.130	0.760	0.050
2020/01/31 15:07:10.2	359.450	-0.170	0.810	0.090
2020/01/31 15:07:10.3	359.430	-0.200	0.850	0.120
2020/01/31 15:07:10.4	359.420	-0.230	0.880	0.150
2020/01/31 15:07:10.5	359.410	-0.250	0.890	0.170
2020/01/31 15:07:10.6	359.390	-0.280	0.900	0.190
2020/01/31 15:07:10.7	359.380	-0.300	0.890	0.200
2020/01/31 15:07:10.8	359.370	-0.330	0.880	0.200
2020/01/31 15:07:10.9	359.360	-0.350	0.850	0.200
2020/01/31 15:07:11.0	359.350	-0.370	0.810	0.200
2020/01/31 15:07:11.1	359.350	-0.380	0.760	0.190
2020/01/31 15:07:11.2	359.340	-0.400	0.700	0.170
2020/01/31 15:07:11.3	359.340	-0.410	0.640	0.150
2020/01/31 15:07:11.4	359.340	-0.420	0.570	0.130
2020/01/31 15:07:11.5	359.340	-0.430	0.490	0.100
2020/01/31 15:07:11.6	359.330	-0.430	0.410	0.070
2020/01/31 15:07:11.7	359.330	-0.440	0.330	0.030
2020/01/31 15:07:11.8	359.340	-0.440	0.250	-0.000
2020/01/31 15:07:11.9	359.340	-0.430	0.160	-0.040
2020/01/31 15:07:12.0	359.350	-0.430	0.070	-0.080
2020/01/31 15:07:12.1	359.350	-0.420	-0.010	-0.110
2020/01/31 15:07:12.2	359.360	-0.410	-0.100	-0.150
2020/01/31 15:07:12.3	359.370	-0.400	-0.180	-0.190
2020/01/31 15:07:12.4	359.380	-0.390	-0.250	-0.230
2020/01/31 15:07:12.5	359.380	-0.370	-0.330	-0.270
2020/01/31 15:07:12.6	359.390	-0.350	-0.400	-0.300
2020/01/31 15:07:12.7	359.400	-0.330	-0.460	-0.340
2020/01/31 15:07:12.8	359.410	-0.310	-0.520	-0.370
2020/01/31 15:07:12.9	359.420	-0.280	-0.580	-0.400
2020/01/31 15:07:13.0	359.430	-0.260	-0.630	-0.440
2020/01/31 15:07:13.1	359.440	-0.230	-0.680	-0.460
2020/01/31 15:07:13.2	359.450	-0.200	-0.720	-0.490
2020/01/31 15:07:13.3	359.460	-0.170	-0.760	-0.520
2020/01/31 15:07:13.4	359.480	-0.140	-0.790	-0.540
2020/01/31 15:07:13.5	359.490	-0.110	-0.820	-0.560
2020/01/31 15:07:13.6	359.510	-0.070	-0.840	-0.580
2020/01/31 15:07:13.7	359.520	-0.040	-0.860	-0.590
2020/01/31 15:07:13.8	359.530	-0.010	-0.870	-0.600
2020/01/31 15:07:13.9	359.530	0.020	-0.880	-0.610
2020/01/31 15:07:14.0	359.540	0.060	-0.890	-0.620
2020/01/31 15:07:14.1	359.550	0.090	-0.890	-0.630
2020/01/31 15:07:14.2	359.550	0.120	-0.890	-0.630
2020/01/31 15:07:14.3	359.560	0.150	-0.890	-0.630
2020/01/31 15:07:14.4	359.560	0.180	-0.880	-0.630
2020/01/31 15:07:14.5	359.560	0.200	-0.870	-0.630
2020/01/31 15:07:14.6	359.560	0.230	-0.850	-0.620
2020/01/31 15:07:14.7	359.560	0.260	-0.830	-0.610
2020/01/31 15:07:14.8	359.550	0.280	-0.810	-0.590
2020/01/31 15:07:14.9	359.540	0.300	-0.790	-0.580
2020/01/31 15:07:15.0	359.530	0.320	-0.760	-0.560
2020/01/31 15:07:15.1	359.520	0.330	-0.720	-0.540
2020/01/31 15:07:15.2	359.510	0.340	-0.690	-0.510
2020/01/31 15:07:15.3	359.490	0.350	-0.650	-0.490
2020/01/31 15:07:15.4	359.470	0.360	-0.610	-0.460
2020/01/31 15:07:15.5	359.450	0.360	-0.560	-0.420
2020/01/31 15:07:15.6	359.410	0.360	-0.520	-0.390
2020/01/31 15:07:15.7	359.390	0.360	-0.470	-0.360
2020/01/31 15:07:15.8	359.360	0.360	-0.420	-0.320
2020/01/31 15:07:15.9	359.330	0.350	-0.360	-0.280
2020/01/31 15:07:16.0	359.310	0.340	-0.310	-0.240
2020/01/31 15:07:16.1	359.280	0.330	-0.250	-0.190
2020/01/31 15:07:16.2	359.240	0.320	-0.190	-0.150
2020/01/31 15:07:16.3	359.210	0.300	-0.140	-0.110
2020/01/31 15:07:16.4	359.180	0.290	-0.080	-0.060
2020/01/31 15:07:16.5	359.150	0.270	-0.020	-0.010
2020/01/31 15:07:16.6	359.110	0.250	0.040	0.030
2020/01/31 15:07:16.7	359.080	0.230	0.090	0.080
2020/01/31 15:07:16.8	359.040	0.200	0.140	0.130
2020/01/31 15:07:16.9	359.010	0.180	0.190	0.170
2020/01/31 15:07:17.0	358.980	0.160	0.240	0.210
2020/01/31 15:07:17.1	358.950	0.140	0.280	0.260
2020/01/31 15:07:17.2	358.920	0.120	0.320	0.290
2020/01/31 15:07:17.3	358.900	0.100	0.350	0.330
2020/01/31 15:07:17.4	358.880	0.080	0.370	0.360
2020/01/31 15:07:17.5	358.860	0.060	0.390	0.390
2020/01/31 15:07:17.6	358.840	0.040	0.410	0.410
2020/01/31 15:07:17.7	358.830	0.030	0.410	0.430
2020/01/31 15:07:17.8	358.820	0.020	0.410	0.440
2020/01/31 15:07:17.9	358.810	0.010	0.410	0.450
2020/01/31 15:07:18.0	358.800	0.000	0.400	0.450
2020/01/31 15:07:18.1	358.800	-0.000	0.380	0.450
2020/01/31 15:07:18.2	358.800	-0.000	0.350	0.450
2020/01/31 15:07:18.3	358.800	-0.000	0.320	0.440
2020/01/31 15:07:18.4	358.810	-0.000	0.290	0.430
2020/01/31 15:07:18.5	358.810	0.000	0.250	0.410
2020/01/31 15:07:18.6	358.820	0.010	0.210	0.390
2020/01/31 15:07:18.7	358.820	0.010	0.160	0.370
2020/01/31 15:07:18.8	358.830	0.020	0.110	0.350
2020/01/31 15:07:18.9	358.840	0.030	0.060	0.320
2020/01/31 15:07:19.0	358.850	0.040	0.010	0.290
2020/01/31 15:07:19.1	358.860	0.050	-0.040	0.260
2020/01/31 15:07:19.2	358.870	0.060	-0.100	0.230
2020/01/31 15:07:19.3	358.890	0.070	-0.150	0.190
2020/01/31 15:07:19.4	358.900	0.070	-0.210	0.160
2020/01/31 15:07:19.5	358.920	0.080	-0.260	0.120
2020/01/31 15:07:19.6	358.940	0.090	-0.320	0.070
2020/01/31 15:07:19.7	358.970	0.100	-0.360	0.030
2020/01/31 15:07:19.8	358.990	0.100	-0.420	-0.010
2020/01/31 15:07:19.9	359.010	0.110	-0.470	-0.060
2020/01/31 15:07:20.0	359.040	0.110	-0.520	-0.100
2020/01/31 15:07:20.1	359.070	0.110	-0.580	-0.150
2020/01/31 15:07:20.2	359.100	0.110	-0.620	-0.200
2020/01/31 15:07:20.3	359.140	0.110	-0.670	-0.250
2020/01/31 15:07:20.4	359.170	0.110	-0.720	-0.300
2020/01/31 15:07:20.5	359.210	0.110	-0.760	-0.350
2020/01/31 15:07:20.6	359.250	0.100	-0.810	-0.400
2020/01/31 15:07:20.7	359.290	0.100	-0.850	-0.440
2020/01/31 15:07:20.8	359.330	0.090	-0.890	-0.490
2020/01/31 15:07:20.9	359.380	0.080	-0.920	-0.540
2020/01/31 15:07:21.0	359.420	0.070	-0.950	-0.580
2020/01/31 15:07:21.1	359.470	0.060	-0.980	-0.630
2020/01/31 15:07:21.2	359.510	0.050	-1.000	-0.670
2020/01/31 15:07:21.3	359.550	0.040	-1.020	-0.710
2020/01/31 15:07:21.4	359.600	0.020	-1.030	-0.740
2020/01/31 15:07:21.5	359.640	0.010	-1.040	-0.780
2020/01/31 15:07:21.6	359.670	-0.010	-1.040	-0.810
2020/01/31 15:07:21.7	359.710	-0.030	-1.030	-0.840
2020/01/31 15:07:21.8	359.740	-0.050	-1.020	-0.870
2020/01/31 15:07:21.9	359.770	-0.070	-1.010	-0.900
2020/01/31 15:07:22.0	359.800	-0.090	-0.980	-0.920
2020/01/31 15:07:22.1	359.820	-0.110	-0.950	-0.930
2020/01/31 15:07:22.2	359.840	-0.130	-0.920	-0.950
2020/01/31 15:07:22.3	359.850	-0.160	-0.870	-0.950
2020/01/31 15:07:22.4	359.860	-0.180	-0.820	-0.960
2020/01/31 15:07:22.5	359.860	-0.200	-0.770	-0.950
2020/01/31 15:07:22.6	359.870	-0.230	-0.700	-0.940
2020/01/31 15:07:22.7	359.860	-0.250	-0.630	-0.930
2020/01/31 15:07:22.8	359.850	-0.280	-0.560	-0.910
2020/01/31 15:07:22.9	359.830	-0.300	-0.480	-0.880
2020/01/31 15:07:23.0	359.800	-0.320	-0.390	-0.850
2020/01/31 15:07:23.1	359.770	-0.340	-0.300	-0.810
2020/01/31 15:07:23.2	359.740	-0.370	-0.210	-0.770
2020/01/31 15:07:23.3	359.700	-0.390	-0.120	-0.720
2020/01/31 15:07:23.4	359.650	-0.400	-0.030	-0.670
2020/01/31 15:07:23.5	359.600	-0.420	0.070	-0.610
2020/01/31 15:07:23.6	359.550	-0.440	0.160	-0.560
2020/01/31 15:07:23.7	359.490	-0.450	0.250	-0.500
2020/01/31 15:07:23.8	359.430	-0.460	0.340	-0.440
2020/01/31 15:07:23.9	359.370	-0.470	0.420	-0.380
2020/01/31 15:07:24.0	359.320	-0.480	0.500	-0.320
2020/01/31 15:07:24.1	359.260	-0.480	0.570	-0.260
2020/01/31 15:07:24.2	359.200	-0.480	0.640	-0.200
2020/01/31 15:07:24.3	359.140	-0.480	0.690	-0.140
2020/01/31 15:07:24.4	359.080	-0.480	0.740	-0.080
2020/01/31 15:07:24.5	359.020	-0.470	0.780	-0.030
2020/01/31 15:07:24.6	358.960	-0.450	0.810	0.020
2020/01/31 15:07:24.7	358.910	-0.440	0.830	0.060
2020/01/31 15:07:24.8	358.850	-0.420	0.840	0.110
2020/01/31 15:07:24.9	358.810	-0.400	0.840	0.150
2020/01/31 15:07:25.0	358.760	-0.370	0.830	0.180
2020/01/31 15:07:25.1	358.720	-0.340	0.810	0.210
2020/01/31 15:07:25.2	358.670	-0.310	0.780	0.240
2020/01/31 15:07:25.3	358.640	-0.270	0.740	0.260
2020/01/31 15:07:25.4	358.600	-0.230	0.690	0.280
2020/01/31 15:07:25.5	358.570	-0.190	0.640	0.290
2020/01/31 15:07:25.6	358.530	-0.150	0.580	0.310
2020/01/31 15:07:25.7	358.500	-0.110	0.510	0.310
2020/01/31 15:07:25.8	358.480	-0.060	0.430	0.320
2020/01/31 15:07:25.9	358.460	-0.010	0.350	0.320
2020/01/31 15:07:26.0	358.440	0.040	0.270	0.310
2020/01/31 15:07:26.1	358.430	0.090	0.180	0.310
2020/01/31 15:07:26.2	358.420	0.130	0.090	0.300
2020/01/31 15:07:26.3	358.410	0.180	-0.000	0.290
2020/01/31 15:07:26.4	358.400	0.230	-0.090	0.270
2020/01/31 15:07:26.5	358.400	0.280	-0.180	0.260
2020/01/31 15:07:26.6	358.400	0.320	-0.280	0.240
2020/01/31 15:07:26.7	358.410	0.370	-0.360	0.220
2020/01/31 15:07:26.8	358.410	0.410	-0.450	0.200
2020/01/31 15:07:26.9	358.420	0.450	-0.530	0.180
2020/01/31 15:07:27.0	358.440	0.490	-0.610	0.150
2020/01/31 15:07:27.1	358.450	0.520	-0.680	0.130
2020/01/31 15:07:27.2	358.460	0.550	-0.750	0.110
2020/01/31 15:07:27.3	358.480	0.580	-0.810	0.080
2020/01/31 15:07:27.4	358.500	0.600	-0.860	0.060
2020/01/31 15:07:27.5	358.520	0.620	-0.910	0.030
2020/01/31 15:07:27.6	358.560	0.630	-0.950	0.000
2020/01/31 15:07:27.7	358.580	0.640	-0.990	-0.020
2020/01/31 15:07:27.8	358.610	0.650	-1.020	-0.050
2020/01/31 15:07:27.9	358.640	0.650	-1.040	-0.080
2020/01/31 15:07:28.0	358.670	0.640	-1.050	-0.100
2020/01/31 15:07:28.1	358.700	0.640	-1.060	-0.130
2020/01/31 15:07:28.2	358.730	0.630	-1.060	-0.160
2020/01/31 15:07:28.3	358.760	0.610	-1.050	-0.180
2020/01/31 15:07:28.4	358.790	0.590	-1.040	-0.210
2020/01/31 15:07:28.5	358.830	0.570	-1.020	-0.230
2020/01/31 15:07:28.6	358.860	0.550	-0.990	-0.250
2020/01/31 15:07:28.7	358.900	0.520	-0.960	-0.280
2020/01/31 15:07:28.8	358.930	0.490	-0.930	-0.300
2020/01/31 15:07:28.9	358.960	0.460	-0.890	-0.320
2020/01/31 15:07:29.0	359.000	0.420	-0.840	-0.330
2020/01/31 15:07:29.1	359.030	0.380	-0.800	-0.350
2020/01/31 15:07:29.2	359.060	0.340	-0.740	-0.360
2020/01/31 15:07:29.3	359.090	0.300	-0.690	-0.370
2020/01/31 15:07:29.4	359.110	0.260	-0.630	-0.380
2020/01/31 15:07:29.5	359.140	0.220	-0.570	-0.390
2020/01/31 15:07:29.6	359.160	0.170	-0.520	-0.390
2020/01/31 15:07:29.7	359.180	0.130	-0.450	-0.390
2020/01/31 15:07:29.8	359.200	0.080	-0.390	-0.390
2020/01/31 15:07:29.9	359.210	0.040	-0.330	-0.390
2020/01/31 15:07:30.0	359.220	-0.010	-0.270	-0.380
2020/01/31 15:07:30.1	359.230	-0.050	-0.200	-0.380
2020/01/31 15:07:30.2	359.230	-0.100	-0.150	-0.370
2020/01/31 15:07:30.3	359.240	-0.140	-0.090	-0.360
2020/01/31 15:07:30.4	359.240	-0.190	-0.040	-0.360
2020/01/31 15:07:30.5	359.240	-0.230	0.010	-0.350
2020/01/31 15:07:30.6	359.240	-0.270	0.060	-0.340
2020/01/31 15:07:30.7	359.240	-0.310	0.100	-0.330
2020/01/31 15:07:30.8	359.240	-0.350	0.140	-0.330
2020/01/31 15:07:30.9	359.230	-0.380	0.170	-0.320
2020/01/31 15:07:31.0	359.230	-0.420	0.190	-0.320
2020/01/31 15:07:31.1	359.220	-0.450	0.210	-0.310
2020/01/31 15:07:31.2	359.210	-0.470	0.220	-0.310
2020/01/31 15:07:31.3	359.200	-0.500	0.230	-0.310
2020/01/31 15:07:31.4	359.180	-0.520	0.230	-0.300
2020/01/31 15:07:31.5	359.170	-0.540	0.230	-0.300
2020/01/31 15:07:31.6	359.160	-0.550	0.220	-0.300
2020/01/31 15:07:31.7	359.140	-0.560	0.210	-0.300
2020/01/31 15:07:31.8	359.130	-0.570	0.190	-0.300
2020/01/31 15:07:31.9	359.120	-0.570	0.170	-0.300
2020/01/31 15:07:32.0	359.100	-0.570	0.140	-0.300
2020/01/31 15:07:32.1	359.090	-0.570	0.120	-0.300
2020/01/31 15:07:32.2	359.080	-0.560	0.080	-0.290
2020/01/31 15:07:32.3	359.060	-0.550	0.050	-0.290
2020/01/31 15:07:32.4	359.050	-0.530	0.010	-0.290
2020/01/31 15:07:32.5	359.040	-0.510	-0.030	-0.280
2020/01/31 15:07:32.6	359.030	-0.490	-0.070	-0.280
2020/01/31 15:07:32.7	359.010	-0.470	-0.110	-0.270
2020/01/31 15:07:32.8	359.000	-0.440	-0.150	-0.260
2020/01/31 15:07:32.9	358.980	-0.410	-0.190	-0.250
2020/01/31 15:07:33.0	358.970	-0.380	-0.230	-0.240
2020/01/31 15:07:33.1	358.950	-0.340	-0.260	-0.220
2020/01/31 15:07:33.2	358.940	-0.310	-0.300	-0.210
2020/01/31 15:07:33.3	358.920	-0.270	-0.330	-0.190
2020/01/31 15:07:33.4	358.910	-0.230	-0.370	-0.170
2020/01/31 15:07:33.5	358.890	-0.190	-0.390	-0.150
2020/01/31 15:07:33.6	358.870	-0.150	-0.420	-0.120
2020/01/31 15:07:33.7	358.850	-0.110	-0.440	-0.100
2020/01/31 15:07:33.8	358.830	-0.070	-0.470	-0.070
2020/01/31 15:07:33.9	358.810	-0.030	-0.480	-0.040
2020/01/31 15:07:34.0	358.790	0.010	-0.500	-0.010
2020/01/31 15:07:34.1	358.780	0.050	-0.510	0.020
2020/01/31 15:07:34.2	358.760	0.090	-0.520	0.060
2020/01/31 15:07:34.3	358.740	0.130	-0.520	0.090
2020/01/31 15:07:34.4	358.720	0.160	-0.520	0.130
2020/01/31 15:07:34.5	358.710	0.200	-0.520	0.160
2020/01/31 15:07:34.6	358.690	0.230	-0.510	0.200
2020/01/31 15:07:34.7	358.680	0.270	-0.510	0.240
2020/01/31 15:07:34.8	358.670	0.300	-0.500	0.270
2020/01/31 15:07:34.9	358.660	0.330	-0.490	0.310
2020/01/31 15:07:35.0	358.650	0.350	-0.480	0.340
2020/01/31 15:07:35.1	358.650	0.380	-0.460	0.370
2020/01/31 15:07:35.2	358.650	0.400	-0.440	0.400
2020/01/31 15:07:35.3	358.650	0.430	-0.430	0.420
2020/01/31 15:07:35.4	358.650	0.450	-0.410	0.450
2020/01/31 15:07:35.5	358.660	0.470	-0.390	0.470
2020/01/31 15:07:35.6	358.670	0.480	-0.380	0.480
2020/01/31 15:07:35.7	358.680	0.500	-0.360	0.490
2020/01/31 15:07:35.8	358.690	0.510	-0.340	0.500
2020/01/31 15:07:35.9	358.710	0.530	-0.330	0.510
2020/01/31 15:07:36.0	358.730	0.540	-0.320	0.510
2020/01/31 15:07:36.1	358.760	0.540	-0.300	0.500
2020/01/31 15:07:36.2	358.780	0.550	-0.290	0.500
2020/01/31 15:07:36.3	358.810	0.550	-0.280	0.490
2020/01/31 15:07:36.4	358.830	0.560	-0.270	0.470
2020/01/31 15:07:36.5	358.860	0.560	-0.250	0.460
2020/01/31 15:07:36.6	358.890	0.550	-0.240	0.440
2020/01/31 15:07:36.7	358.910	0.550	-0.230	0.430
2020/01/31 15:07:36.8	358.940	0.540	-0.220	0.410
2020/01/31 15:07:36.9	358.970	0.530	-0.210	0.390
2020/01/31 15:07:37.0	358.990	0.520	-0.190	0.360
2020/01/31 15:07:37.1	359.020	0.500	-0.180	0.340
2020/01/31 15:07:37.2	359.040	0.480	-0.170	0.320
2020/01/31 15:07:37.3	359.070	0.460	-0.150	0.300
2020/01/31 15:07:37.4	359.090	0.440	-0.140	0.270
2020/01/31 15:07:37.5	359.100	0.410	-0.120	0.250
2020/01/31 15:07:37.6	359.130	0.390	-0.100	0.230
2020/01/31 15:07:37.7	359.150	0.360	-0.090	0.210
2020/01/31 15:07:37.8	359.160	0.330	-0.070	0.190
2020/01/31 15:07:37.9	359.170	0.290	-0.050	0.170
2020/01/31 15:07:38.0	359.170	0.260	-0.030	0.150
2020/01/31 15:07:38.1	359.180	0.220	-0.010	0.140
2020/01/31 15:07:38.2	359.180	0.190	0.010	0.120
2020/01/31 15:07:38.3	359.180	0.150	0.030	0.110
2020/01/31 15:07:38.4	359.170	0.110	0.060	0.090
2020/01/31 15:07:38.5	359.170	0.070	0.080	0.080
2020/01/31 15:07:38.6	359.160	0.030	0.100	0.070
2020/01/31 15:07:38.7	359.150	-0.010	0.120	0.060
2020/01/31 15:07:38.8	359.140	-0.050	0.130	0.050
2020/01/31 15:07:38.9	359.130	-0.090	0.140	0.040
2020/01/31 15:07:39.0	359.110	-0.130	0.160	0.030
2020/01/31 15:07:39.1	359.100	-0.170	0.160	0.020
2020/01/31 15:07:39.2	359.080	-0.210	0.170	0.000
2020/01/31 15:07:39.3	359.070	-0.250	0.170	-0.010
2020/01/31 15:07:39.4	359.050	-0.290	0.170	-0.020
2020/01/31 15:07:39.5	359.030	-0.320	0.160	-0.040
2020/01/31 15:07:39.6	359.010	-0.350	0.150	-0.050
2020/01/31 15:07:39.7	359.000	-0.380	0.140	-0.070
2020/01/31 15:07:39.8	358.980	-0.410	0.130	-0.090
2020/01/31 15:07:39.9	358.970	-0.430	0.110	-0.110
2020/01/31 15:07:40.0	358.950	-0.450	0.080	-0.130
2020/01/31 15:07:40.1	358.940	-0.470	0.060	-0.150
2020/01/31 15:07:40.2	358.930	-0.490	0.030	-0.170
2020/01/31 15:07:40.3	358.920	-0.500	-0.010	-0.200
2020/01/31 15:07:40.4	358.910	-0.500	-0.040	-0.220
2020/01/31 15:07:40.5	358.910	-0.510	-0.080	-0.250
2020/01/31 15:07:40.6	358.890	-0.500	-0.110	-0.270
2020/01/31 15:07:40.7	358.880	-0.500	-0.150	-0.300
2020/01/31 15:07:40.8	358.880	-0.490	-0.190	-0.330
2020/01/31 15:07:40.9	358.880	-0.480	-0.230	-0.350
2020/01/31 15:07:41.0	358.880	-0.460	-0.270	-0.380
2020/01/31 15:07:41.1	358.890	-0.440	-0.310	-0.410
2020/01/31 15:07:41.2	358.890	-0.420	-0.350	-0.430
2020/01/31 15:07:41.3	358.900	-0.390	-0.390	-0.460
2020/01/31 15:07:41.4	358.900	-0.360	-0.430	-0.480
2020/01/31 15:07:41.5	358.910	-0.330	-0.460	-0.500
2020/01/31 15:07:41.6	358.920	-0.300	-0.500	-0.530
2020/01/31 15:07:41.7	358.930	-0.260	-0.530	-0.550
2020/01/31 15:07:41.8	358.940	-0.230	-0.560	-0.560
2020/01/31 15:07:41.9	358.950	-0.190	-0.590	-0.580
2020/01/31 15:07:42.0	358.960	-0.150	-0.610	-0.590
2020/01/31 15:07:42.1	358.980	-0.110	-0.630	-0.600
2020/01/31 15:07:42.2	358.990	-0.070	-0.650	-0.610
2020/01/31 15:07:42.3	359.000	-0.030	-0.670	-0.610
2020/01/31 15:07:42.4	359.010	0.010	-0.680	-0.610
2020/01/31 15:07:42.5	359.020	0.040	-0.690	-0.610
2020/01/31 15:07:42.6	359.040	0.080	-0.700	-0.610
2020/01/31 15:07:42.7	359.050	0.110	-0.700	-0.600
2020/01/31 15:07:42.8	359.060	0.150	-0.700	-0.590
2020/01/31 15:07:42.9	359.070	0.170	-0.690	-0.580
2020/01/31 15:07:43.0	359.070	0.200	-0.680	-0.570
2020/01/31 15:07:43.1	359.080	0.220	-0.670	-0.560
2020/01/31 15:07:43.2	359.090	0.250	-0.660	-0.540
2020/01/31 15:07:43.3	359.100	0.260	-0.640	-0.520
2020/01/31 15:07:43.4	359.100	0.280	-0.620	-0.500
2020/01/31 15:07:43.5	359.110	0.290	-0.590	-0.480
2020/01/31 15:07:43.6	359.120	0.290	-0.570	-0.460
2020/01/31 15:07:43.7	359.120	0.300	-0.540	-0.430
2020/01/31 15:07:43.8	359.130	0.300	-0.510	-0.400
2020/01/31 15:07:43.9	359.130	0.300	-0.480	-0.370
2020/01/31 15:07:44.0	359.140	0.290	-0.440	-0.340
2020/01/31 15:07:44.1	359.150	0.280	-0.410	-0.310
2020/01/31 15:07:44.2	359.150	0.270	-0.380	-0.280
2020/01/31 15:07:44.3	359.160	0.250	-0.340	-0.250
2020/01/31 15:07:44.4	359.170	0.230	-0.310	-0.220
2020/01/31 15:07:44.5	359.180	0.210	-0.280	-0.200
2020/01/31 15:07:44.6	359.190	0.190	-0.250	-0.170
2020/01/31 15:07:44.7	359.200	0.170	-0.220	-0.140
2020/01/31 15:07:44.8	359.220	0.140	-0.190	-0.120
2020/01/31 15:07:44.9	359.240	0.120	-0.170	-0.100
2020/01/31 15:07:45.0	359.260	0.090	-0.140	-0.080
2020/01/31 15:07:45.1	359.280	0.070	-0.120	-0.070
2020/01/31 15:07:45.2	359.300	0.040	-0.110	-0.060
2020/01/31 15:07:45.3	359.330	0.020	-0.100	-0.050
2020/01/31 15:07:45.4	359.360	-0.010	-0.090	-0.050
2020/01/31 15:07:45.5	359.390	-0.030	-0.080	-0.040
2020/01/31 15:07:45.6	359.430	-0.050	-0.080	-0.050
2020/01/31 15:07:45.7	359.460	-0.070	-0.080	-0.050
2020/01/31 15:07:45.8	359.500	-0.090	-0.090	-0.060
2020/01/31 15:07:45.9	359.540	-0.100	-0.090	-0.070
2020/01/31 15:07:46.0	359.570	-0.110	-0.100	-0.070
2020/01/31 15:07:46.1	359.610	-0.120	-0.120	-0.090
2020/01/31 15:07:46.2	359.650	-0.130	-0.130	-0.100
2020/01/31 15:07:46.3	359.680	-0.130	-0.150	-0.110
2020/01/31 15:07:46.4	359.720	-0.140	-0.160	-0.120
2020/01/31 15:07:46.5	359.760	-0.130	-0.180	-0.130
2020/01/31 15:07:46.6	359.790	-0.130	-0.200	-0.150
2020/01/31 15:07:46.7	359.820	-0.120	-0.220	-0.160
2020/01/31 15:07:46.8	359.850	-0.120	-0.240	-0.170
2020/01/31 15:07:46.9	359.880	-0.110	-0.260	-0.180
2020/01/31 15:07:47.0	359.900	-0.090	-0.270	-0.190
2020/01/31 15:07:47.1	359.920	-0.080	-0.290	-0.190
2020/01/31 15:07:47.2	359.940	-0.060	-0.310	-0.200
2020/01/31 15:07:47.3	359.960	-0.040	-0.320	-0.210
2020/01/31 15:07:47.4	359.970	-0.030	-0.330	-0.210
2020/01/31 15:07:47.5	359.980	-0.010	-0.340	-0.220
2020/01/31 15:07:47.6	0.000	0.010	-0.340	-0.220
2020/01/31 15:07:47.7	0.000	0.030	-0.350	-0.230
2020/01/31 15:07:47.8	0.000	0.050	-0.350	-0.230
2020/01/31 15:07:47.9	0.000	0.070	-0.350	-0.240
2020/01/31 15:07:48.0	0.000	0.090	-0.350	-0.240
2020/01/31 15:07:48.1	0.000	0.110	-0.340	-0.240
2020/01/31 15:07:48.2	359.990	0.120	-0.340	-0.240
2020/01/31 15:07:48.3	359.980	0.140	-0.330	-0.250
2020/01/31 15:07:48.4	359.970	0.150	-0.320	-0.250
2020/01/31 15:07:48.5	359.960	0.170	-0.300	-0.240
2020/01/31 15:07:48.6	359.950	0.180	-0.290	-0.240
2020/01/31 15:07:48.7	359.940	0.190	-0.280	-0.240
2020/01/31 15:07:48.8	359.920	0.190	-0.260	-0.240
2020/01/31 15:07:48.9	359.910	0.200	-0.240	-0.230
2020/01/31 15:07:49.0	359.890	0.210	-0.220	-0.230
2020/01/31 15:07:49.1	359.880	0.210	-0.190	-0.220
2020/01/31 15:07:49.2	359.860	0.210	-0.170	-0.220
2020/01/31 15:07:49.3	359.850	0.210	-0.150	-0.210
2020/01/31 15:07:49.4	359.830	0.210	-0.120	-0.210
2020/01/31 15:07:49.5	359.810	0.210	-0.100	-0.200
2020/01/31 15:07:49.6	359.800	0.200	-0.070	-0.190
2020/01/31 15:07:49.7	359.780	0.200	-0.050	-0.180
2020/01/31 15:07:49.8	359.760	0.190	-0.030	-0.170
2020/01/31 15:07:49.9	359.740	0.180	-0.010	-0.160
2020/01/31 15:07:50.0	359.730	0.170	0.010	-0.160
2020/01/31 15:07:50.1	359.710	0.160	0.030	-0.150
2020/01/31 15:07:50.2	359.690	0.140	0.040	-0.140
2020/01/31 15:07:50.3	359.670	0.130	0.060	-0.140
2020/01/31 15:07:50.4	359.650	0.110	0.070	-0.140
2020/01/31 15:07:50.5	359.630	0.100	0.080	-0.140
2020/01/31 15:07:50.6	359.610	0.080	0.100	-0.140
2020/01/31 15:07:50.7	359.590	0.060	0.100	-0.140
2020/01/31 15:07:50.8	359.570	0.040	0.110	-0.140
2020/01/31 15:07:50.9	359.550	0.020	0.120	-0.150
2020/01/31 15:07:51.0	359.530	-0.000	0.120	-0.160
2020/01/31 15:07:51.1	359.510	-0.020	0.120	-0.170
2020/01/31 15:07:51.2	359.490	-0.040	0.130	-0.180
2020/01/31 15:07:51.3	359.470	-0.060	0.130	-0.190
2020/01/31 15:07:51.4	359.450	-0.080	0.130	-0.210
2020/01/31 15:07:51.5	359.430	-0.100	0.120	-0.220
2020/01/31 15:07:51.6	359.400	-0.120	0.120	-0.240
2020/01/31 15:07:51.7	359.390	-0.140	0.110	-0.250
2020/01/31 15:07:51.8	359.370	-0.150	0.110	-0.270
2020/01/31 15:07:51.9	359.360	-0.170	0.100	-0.280
2020/01/31 15:07:52.0	359.350	-0.180	0.080	-0.300
2020/01/31 15:07:52.1	359.340	-0.190	0.070	-0.320
2020/01/31 15:07:52.2	359.330	-0.200	0.050	-0.330
2020/01/31 15:07:52.3	359.320	-0.210	0.030	-0.350
2020/01/31 15:07:52.4	359.320	-0.220	0.010	-0.360
2020/01/31 15:07:52.5	359.310	-0.220	-0.020	-0.380
2020/01/31 15:07:52.6	359.300	-0.220	-0.050	-0.400
2020/01/31 15:07:52.7	359.300	-0.220	-0.080	-0.420
2020/01/31 15:07:52.8	359.310	-0.220	-0.120	-0.440
2020/01/31 15:07:52.9	359.310	-0.210	-0.160	-0.460
2020/01/31 15:07:53.0	359.320	-0.210	-0.200	-0.480
2020/01/31 15:07:53.1	359.340	-0.190	-0.240	-0.500
2020/01/31 15:07:53.2	359.350	-0.180	-0.280	-0.520
2020/01/31 15:07:53.3	359.370	-0.170	-0.330	-0.540
2020/01/31 15:07:53.4	359.380	-0.150	-0.370	-0.560
2020/01/31 15:07:53.5	359.400	-0.130	-0.420	-0.580
2020/01/31 15:07:53.6	359.420	-0.110	-0.470	-0.590
2020/01/31 15:07:53.7	359.440	-0.090	-0.510	-0.610
2020/01/31 15:07:53.8	359.460	-0.070	-0.560	-0.620
2020/01/31 15:07:53.9	359.480	-0.040	-0.600	-0.640
2020/01/31 15:07:54.0	359.500	-0.020	-0.640	-0.650
2020/01/31 15:07:54.1	359.520	0.000	-0.680	-0.650
2020/01/31 15:07:54.2	359.540	0.030	-0.710	-0.660
2020/01/31 15:07:54.3	359.550	0.050	-0.740	-0.660
2020/01/31 15:07:54.4	359.570	0.070	-0.770	-0.660
2020/01/31 15:07:54.5	359.590	0.090	-0.790	-0.660
2020/01/31 15:07:54.6	359.610	0.110	-0.810	-0.660
2020/01/31 15:07:54.7	359.620	0.130	-0.820	-0.650
2020/01/31 15:07:54.8	359.640	0.140	-0.830	-0.650
2020/01/31 15:07:54.9	359.650	0.160	-0.830	-0.640
2020/01/31 15:07:55.0	359.660	0.170	-0.840	-0.630
2020/01/31 15:07:55.1	359.680	0.180	-0.830	-0.620
2020/01/31 15:07:55.2	359.690	0.180	-0.820	-0.600
2020/01/31 15:07:55.3	359.700	0.180	-0.810	-0.590
2020/01/31 15:07:55.4	359.710	0.180	-0.800	-0.570
2020/01/31 15:07:55.5	359.720	0.180	-0.780	-0.560
2020/01/31 15:07:55.6	359.740	0.180	-0.760	-0.530
2020/01/31 15:07:55.7	359.750	0.170	-0.730	-0.510
2020/01/31 15:07:55.8	359.760	0.160	-0.710	-0.490
2020/01/31 15:07:55.9	359.770	0.150	-0.680	-0.470
2020/01/31 15:07:56.0	359.780	0.130	-0.640	-0.450
2020/01/31 15:07:56.1	359.790	0.110	-0.610	-0.430
2020/01/31 15:07:56.2	359.800	0.100	-0.580	-0.410
2020/01/31 15:07:56.3	359.810	0.080	-0.540	-0.400
2020/01/31 15:07:56.4	359.820	0.060	-0.510	-0.380
2020/01/31 15:07:56.5	359.820	0.030	-0.470	-0.360
2020/01/31 15:07:56.6	359.840	0.010	-0.440	-0.340
2020/01/31 15:07:56.7	359.850	-0.010	-0.400	-0.320
2020/01/31 15:07:56.8	359.850	-0.040	-0.360	-0.300
2020/01/31 15:07:56.9	359.860	-0.060	-0.320	-0.290
2020/01/31 15:07:57.0	359.860	-0.080	-0.280	-0.270
2020/01/31 15:07:57.1	359.860	-0.100	-0.240	-0.260
2020/01/31 15:07:57.2	359.860	-0.120	-0.210	-0.240
2020/01/31 15:07:57.3	359.860	-0.140	-0.170	-0.220
2020/01/31 15:07:57.4	359.860	-0.160	-0.130	-0.210
2020/01/31 15:07:57.5	359.860	-0.180	-0.090	-0.190
2020/01/31 15:07:57.6	359.860	-0.190	-0.050	-0.170
2020/01/31 15:07:57.7	359.850	-0.200	-0.020	-0.160
2020/01/31 15:07:57.8	359.850	-0.210	0.020	-0.140
2020/01/31 15:07:57.9	359.840	-0.220	0.050	-0.120
2020/01/31 15:07:58.0	359.830	-0.220	0.080	-0.100
2020/01/31 15:07:58.1	359.820	-0.220	0.100	-0.080
2020/01/31 15:07:58.2	359.820	-0.220	0.130	-0.070
2020/01/31 15:07:58.3	359.810	-0.210	0.150	-0.050
2020/01/31 15:07:58.4	359.810	-0.210	0.160	-0.030
2020/01/31 15:07:58.5	359.810	-0.190	0.170	-0.020
2020/01/31 15:07:58.6	359.800	-0.180	0.180	-0.000
2020/01/31 15:07:58.7	359.800	-0.160	0.180	0.010
2020/01/31 15:07:58.8	359.810	-0.140	0.180	0.020
2020/01/31 15:07:58.9	359.820	-0.120	0.170	0.020
2020/01/31 15:07:59.0	359.820	-0.100	0.160	0.030
2020/01/31 15:07:59.1	359.830	-0.070	0.140	0.030
2020/01/31 15:07:59.2	359.850	-0.050	0.120	0.030
2020/01/31 15:07:59.3	359.860	-0.020	0.100	0.030
2020/01/31 15:07:59.4	359.880	0.010	0.070	0.030
2020/01/31 15:07:59.5	359.890	0.040	0.040	0.020
2020/01/31 15:07:59.6	359.910	0.070	0.010	0.010
2020/01/31 15:07:59.7	359.930	0.100	-0.020	0.000
2020/01/31 15:07:59.8	359.950	0.130	-0.060	-0.000
2020/01/31 15:07:59.9	359.960	0.160	-0.100	-0.010
2020/01/31 15:08:00.0	359.980	0.190	-0.140	-0.020
2020/01/31 15:08:00.1	359.990	0.220	-0.170	-0.020
2020/01/31 15:08:00.2	0.010	0.250	-0.210	-0.030
2020/01/31 15:08:00.3	0.020	0.270	-0.240	-0.030
2020/01/31 15:08:00.4	0.030	0.290	-0.270	-0.040
2020/01/31 15:08:00.5	0.040	0.310	-0.300	-0.040
2020/01/31 15:08:00.6	0.040	0.330	-0.330	-0.040
2020/01/31 15:08:00.7	0.040	0.340	-0.350	-0.040
2020/01/31 15:08:00.8	0.050	0.360	-0.370	-0.040
2020/01/31 15:08:00.9	0.050	0.360	-0.390	-0.030
2020/01/31 15:08:01.0	0.050	0.370	-0.400	-0.030
2020/01/31 15:08:01.1	0.040	0.370	-0.410	-0.030
2020/01/31 15:08:01.2	0.040	0.370	-0.410	-0.020
2020/01/31 15:08:01.3	0.030	0.370	-0.410	-0.020
2020/01/31 15:08:01.4	0.030	0.360	-0.410	-0.010
2020/01/31 15:08:01.5	0.020	0.350	-0.400	-0.000
2020/01/31 15:08:01.6	0.000	0.340	-0.390	0.000
2020/01/31 15:08:01.7	359.990	0.330	-0.380	0.010
2020/01/31 15:08:01.8	359.970	0.310	-0.360	0.010
2020/01/31 15:08:01.9	359.960	0.290	-0.340	0.020
2020/01/31 15:08:02.0	359.940	0.270	-0.320	0.020
2020/01/31 15:08:02.1	359.920	0.250	-0.300	0.030
2020/01/31 15:08:02.2	359.900	0.220	-0.270	0.040
2020/01/31 15:08:02.3	359.880	0.200	-0.240	0.040
2020/01/31 15:08:02.4	359.850	0.170	-0.210	0.050
2020/01/31 15:08:02.5	359.830	0.140	-0.180	0.060
2020/01/31 15:08:02.6	359.800	0.110	-0.150	0.070
2020/01/31 15:08:02.7	359.770	0.080	-0.120	0.080
2020/01/31 15:08:02.8	359.740	0.060	-0.080	0.090
2020/01/31 15:08:02.9	359.700	0.030	-0.050	0.100
2020/01/31 15:08:03.0	359.670	-0.000	-0.020	0.100
2020/01/31 15:08:03.1	359.630	-0.030	0.010	0.110
2020/01/31 15:08:03.2	359.600	-0.050	0.040	0.120
2020/01/31 15:08:03.3	359.570	-0.080	0.060	0.130
2020/01/31 15:08:03.4	359.530	-0.100	0.090	0.130
2020/01/31 15:08:03.5	359.500	-0.120	0.110	0.140
2020/01/31 15:08:03.6	359.460	-0.140	0.130	0.140
2020/01/31 15:08:03.7	359.430	-0.160	0.140	0.140
2020/01/31 15:08:03.8	359.400	-0.170	0.150	0.130
2020/01/31 15:08:03.9	359.380	-0.180	0.150	0.130
2020/01/31 15:08:04.0	359.350	-0.190	0.150	0.120
2020/01/31 15:08:04.1	359.330	-0.200	0.150	0.110
2020/01/31 15:08:04.2	359.310	-0.200	0.140	0.100
2020/01/31 15:08:04.3	359.290	-0.200	0.130	0.080
2020/01/31 15:08:04.4	359.270	-0.200	0.120	0.070
2020/01/31 15:08:04.5	359.260	-0.200	0.100	0.050
2020/01/31 15:08:04.6	359.240	-0.190	0.080	0.030
2020/01/31 15:08:04.7	359.230	-0.180	0.050	0.010
2020/01/31 15:08:04.8	359.220	-0.170	0.030	-0.020
2020/01/31 15:08:04.9	359.220	-0.160	-0.000	-0.040
2020/01/31 15:08:05.0	359.220	-0.140	-0.030	-0.070
2020/01/31 15:08:05.1	359.220	-0.130	-0.070	-0.100
2020/01/31 15:08:05.2	359.220	-0.110	-0.110	-0.130
2020/01/31 15:08:05.3	359.230	-0.100	-0.140	-0.160
2020/01/31 15:08:05.4	359.240	-0.080	-0.180	-0.200
2020/01/31 15:08:05.5	359.250	-0.070	-0.220	-0.230
2020/01/31 15:08:05.6	359.250	-0.050	-0.260	-0.270
2020/01/31 15:08:05.7	359.260	-0.040	-0.300	-0.310
2020/01/31 15:08:05.8	359.280	-0.020	-0.340	-0.350
2020/01/31 15:08:05.9	359.300	-0.010	-0.390	-0.390
2020/01/31 15:08:06.0	359.320	-0.000	-0.430	-0.430
2020/01/31 15:08:06.1	359.350	0.010	-0.470	-0.480
2020/01/31 15:08:06.2	359.380	0.010	-0.510	-0.520
2020/01/31 15:08:06.3	359.410	0.020	-0.550	-0.570
2020/01/31 15:08:06.4	359.440	0.020	-0.590	-0.610
2020/01/31 15:08:06.5	359.470	0.020	-0.630	-0.650
2020/01/31 15:08:06.6	359.520	0.020	-0.670	-0.690
2020/01/31 15:08:06.7	359.560	0.020	-0.700	-0.740
2020/01/31 15:08:06.8	359.600	0.020	-0.740	-0.780
2020/01/31 15:08:06.9	359.640	0.010	-0.770	-0.820
2020/01/31 15:08:07.0	359.680	0.000	-0.800	-0.860
2020/01/31 15:08:07.1	359.730	-0.010	-0.820	-0.890
2020/01/31 15:08:07.2	359.770	-0.020	-0.850	-0.930
2020/01/31 15:08:07.3	359.820	-0.030	-0.870	-0.960
2020/01/31 15:08:07.4	359.870	-0.040	-0.890	-0.990
2020/01/31 15:08:07.5	359.920	-0.050	-0.910	-1.020
2020/01/31 15:08:07.6	359.980	-0.060	-0.920	-1.050
2020/01/31 15:08:07.7	0.020	-0.080	-0.930	-1.070
2020/01/31 15:08:07.8	0.070	-0.090	-0.930	-1.090
2020/01/31 15:08:07.9	0.120	-0.110	-0.940	-1.110
2020/01/31 15:08:08.0	0.160	-0.120	-0.940	-1.130
2020/01/31 15:08:08.1	0.210	-0.130	-0.930	-1.140
2020/01/31 15:08:08.2	0.250	-0.150	-0.920	-1.150
2020/01/31 15:08:08.3	0.280	-0.160	-0.910	-1.160
2020/01/31 15:08:08.4	0.320	-0.170	-0.890	-1.160
2020/01/31 15:08:08.5	0.350	-0.180	-0.860	-1.150
2020/01/31 15:08:08.6	0.380	-0.190	-0.840	-1.140
2020/01/31 15:08:08.7	0.400	-0.200	-0.800	-1.130
2020/01/31 15:08:08.8	0.420	-0.210	-0.770	-1.110
2020/01/31 15:08:08.9	0.430	-0.210	-0.720	-1.080
2020/01/31 15:08:09.0	0.440	-0.210	-0.680	-1.050
2020/01/31 15:08:09.1	0.440	-0.220	-0.630	-1.010
2020/01/31 15:08:09.2	0.440	-0.220	-0.580	-0.970
2020/01/31 15:08:09.3	0.440	-0.210	-0.520	-0.930
2020/01/31 15:08:09.4	0.430	-0.210	-0.460	-0.880
2020/01/31 15:08:09.5	0.410	-0.210	-0.400	-0.830
2020/01/31 15:08:09.6	0.400	-0.200	-0.340	-0.780
2020/01/31 15:08:09.7	0.380	-0.190	-0.270	-0.720
2020/01/31 15:08:09.8	0.360	-0.180	-0.210	-0.660
2020/01/31 15:08:09.9	0.330	-0.170	-0.150	-0.600
2020/01/31 15:08:10.0	0.300	-0.160	-0.090	-0.540
2020/01/31 15:08:10.1	0.280	-0.140	-0.030	-0.480
2020/01/31 15:08:10.2	0.250	-0.130	0.030	-0.430
2020/01/31 15:08:10.3	0.220	-0.110	0.080	-0.370
2020/01/31 15:08:10.4	0.190	-0.090	0.120	-0.310
2020/01/31 15:08:10.5	0.170	-0.070	0.160	-0.260
2020/01/31 15:08:10.6	0.150	-0.050	0.200	-0.210
2020/01/31 15:08:10.7	0.130	-0.030	0.230	-0.170
2020/01/31 15:08:10.8	0.110	-0.010	0.250	-0.130
2020/01/31 15:08:10.9	0.090	0.010	0.260	-0.090
2020/01/31 15:08:11.0	0.070	0.030	0.270	-0.060
2020/01/31 15:08:11.1	0.060	0.050	0.270	-0.040
2020/01/31 15:08:11.2	0.050	0.070	0.270	-0.020
2020/01/31 15:08:11.3	0.040	0.090	0.260	-0.000
2020/01/31 15:08:11.4	0.040	0.110	0.250	0.010
2020/01/31 15:08:11.5	0.030	0.130	0.230	0.010
2020/01/31 15:08:11.6	0.030	0.140	0.210	0.010
2020/01/31 15:08:11.7	0.030	0.160	0.180	0.010
2020/01/31 15:08:11.8	0.030	0.170	0.150	0.000
2020/01/31 15:08:11.9	0.030	0.180	0.120	-0.010
2020/01/31 15:08:12.0	0.040	0.190	0.100	-0.020
2020/01/31 15:08:12.1	0.040	0.200	0.070	-0.030
2020/01/31 15:08:12.2	0.050	0.210	0.040	-0.040
2020/01/31 15:08:12.3	0.060	0.220	0.010	-0.060
2020/01/31 15:08:12.4	0.060	0.220	-0.010	-0.070
2020/01/31 15:08:12.5	0.070	0.220	-0.030	-0.080
2020/01/31 15:08:12.6	0.070	0.220	-0.050	-0.100
2020/01/31 15:08:12.7	0.070	0.220	-0.060	-0.100
2020/01/31 15:08:12.8	0.080	0.210	-0.070	-0.110
2020/01/31 15:08:12.9	0.080	0.210	-0.070	-0.110
2020/01/31 15:08:13.0	0.080	0.200	-0.060	-0.110
2020/01/31 15:08:13.1	0.080	0.190	-0.050	-0.110
2020/01/31 15:08:13.2	0.080	0.180	-0.040	-0.100
2020/01/31 15:08:13.3	0.070	0.160	-0.020	-0.090
2020/01/31 15:08:13.4	0.060	0.150	0.010	-0.080
2020/01/31 15:08:13.5	0.050	0.140	0.030	-0.060
2020/01/31 15:08:13.6	0.050	0.120	0.060	-0.040
2020/01/31 15:08:13.7	0.030	0.110	0.100	-0.010
2020/01/31 15:08:13.8	0.020	0.090	0.130	0.010
2020/01/31 15:08:13.9	0.000	0.070	0.170	0.040
2020/01/31 15:08:14.0	359.980	0.060	0.210	0.070
2020/01/31 15:08:14.1	359.960	0.040	0.240	0.110
2020/01/31 15:08:14.2	359.940	0.020	0.280	0.140
2020/01/31 15:08:14.3	359.920	0.010	0.310	0.170
2020/01/31 15:08:14.4	359.900	-0.010	0.330	0.210
2020/01/31 15:08:14.5	359.880	-0.020	0.360	0.240
2020/01/31 15:08:14.6	359.870	-0.030	0.380	0.260
2020/01/31 15:08:14.7	359.860	-0.040	0.390	0.290
2020/01/31 15:08:14.8	359.840	-0.050	0.390	0.320
2020/01/31 15:08:14.9	359.830	-0.060	0.390	0.340
2020/01/31 15:08:15.0	359.820	-0.060	0.380	0.350
2020/01/31 15:08:15.1	359.810	-0.070	0.360	0.370
2020/01/31 15:08:15.2	359.800	-0.070	0.330	0.370
2020/01/31 15:08:15.3	359.790	-0.070	0.290	0.380
2020/01/31 15:08:15.4	359.790	-0.060	0.250	0.370
2020/01/31 15:08:15.5	359.790	-0.060	0.200	0.360
2020/01/31 15:08:15.6	359.790	-0.050	0.140	0.350
2020/01/31 15:08:15.7	359.800	-0.040	0.080	0.330
2020/01/31 15:08:15.8	359.800	-0.020	0.010	0.310
2020/01/31 15:08:15.9	359.810	-0.010	-0.070	0.280
2020/01/31 15:08:16.0	359.820	0.010	-0.150	0.250
2020/01/31 15:08:16.1	359.830	0.030	-0.230	0.210
2020/01/31 15:08:16.2	359.850	0.050	-0.320	0.170
2020/01/31 15:08:16.3	359.860	0.070	-0.400	0.130
2020/01/31 15:08:16.4	359.880	0.090	-0.490	0.090
2020/01/31 15:08:16.5	359.890	0.110	-0.580	0.040
2020/01/31 15:08:16.6	359.910	0.130	-0.660	-0.010
2020/01/31 15:08:16.7	359.930	0.150	-0.750	-0.060
2020/01/31 15:08:16.8	359.950	0.170	-0.830	-0.110
2020/01/31 15:08:16.9	359.960	0.190	-0.910	-0.170
2020/01/31 15:08:17.0	359.980	0.210	-0.980	-0.220
2020/01/31 15:08:17.1	0.000	0.230	-1.050	-0.270
2020/01/31 15:08:17.2	0.020	0.240	-1.120	-0.320
2020/01/31 15:08:17.3	0.040	0.260	-1.170	-0.380
2020/01/31 15:08:17.4	0.060	0.270	-1.230	-0.430
2020/01/31 15:08:17.5	0.080	0.280	-1.270	-0.480
2020/01/31 15:08:17.6	0.100	0.290	-1.310	-0.540
2020/01/31 15:08:17.7	0.120	0.290	-1.340	-0.590
2020/01/31 15:08:17.8	0.140	0.300	-1.360	-0.640
2020/01/31 15:08:17.9	0.170	0.300	-1.370	-0.690
2020/01/31 15:08:18.0	0.190	0.290	-1.380	-0.730
2020/01/31 15:08:18.1	0.220	0.290	-1.380	-0.780
2020/01/31 15:08:18.2	0.240	0.280	-1.380	-0.820
2020/01/31 15:08:18.3	0.270	0.270	-1.360	-0.870
2020/01/31 15:08:18.4	0.300	0.260	-1.340	-0.910
2020/01/31 15:08:18.5	0.330	0.250	-1.320	-0.950
2020/01/31 15:08:18.6	0.370	0.230	-1.280	-0.980
2020/01/31 15:08:18.7	0.400	0.220	-1.240	-1.020
2020/01/31 15:08:18.8	0.430	0.200	-1.200	-1.050
2020/01/31 15:08:18.9	0.460	0.180	-1.150	-1.070
2020/01/31 15:08:19.0	0.490	0.150	-1.100	-1.100
2020/01/31 15:08:19.1	0.520	0.130	-1.040	-1.120
2020/01/31 15:08:19.2	0.540	0.100	-0.980	-1.130
2020/01/31 15:08:19.3	0.570	0.080	-0.910	-1.140
2020/01/31 15:08:19.4	0.590	0.050	-0.840	-1.150
2020/01/31 15:08:19.5	0.610	0.020	-0.770	-1.150
2020/01/31 15:08:19.6	0.620	-0.000	-0.690	-1.150
2020/01/31 15:08:19.7	0.640	-0.030	-0.610	-1.140
2020/01/31 15:08:19.8	0.650	-0.060	-0.530	-1.130
2020/01/31 15:08:19.9	0.660	-0.090	-0.450	-1.110
2020/01/31 15:08:20.0	0.660	-0.120	-0.370	-1.090
2020/01/31 15:08:20.1	0.670	-0.150	-0.280	-1.060
2020/01/31 15:08:20.2	0.660	-0.170	-0.200	-1.030
2020/01/31 15:08:20.3	0.660	-0.200	-0.120	-0.990
2020/01/31 15:08:20.4	0.650	-0.230	-0.040	-0.960
2020/01/31 15:08:20.5	0.640	-0.260	0.040	-0.920
2020/01/31 15:08:20.6	0.630	-0.280	0.120	-0.870
2020/01/31 15:08:20.7	0.620	-0.310	0.200	-0.830
2020/01/31 15:08:20.8	0.610	-0.330	0.260	-0.780
2020/01/31 15:08:20.9	0.590	-0.350	0.330	-0.740
2020/01/31 15:08:21.0	0.580	-0.370	0.390	-0.700
2020/01/31 15:08:21.1	0.560	-0.390	0.440	-0.650
2020/01/31 15:08:21.2	0.550	-0.400	0.490	-0.610
2020/01/31 15:08:21.3	0.530	-0.420	0.530	-0.570
2020/01/31 15:08:21.4	0.520	-0.430	0.570	-0.530
2020/01/31 15:08:21.5	0.500	-0.440	0.590	-0.490
2020/01/31 15:08:21.6	0.490	-0.440	0.610	-0.460
2020/01/31 15:08:21.7	0.480	-0.450	0.630	-0.430
2020/01/31 15:08:21.8	0.480	-0.450	0.630	-0.400
2020/01/31 15:08:21.9	0.470	-0.440	0.630	-0.360
2020/01/31 15:08:22.0	0.470	-0.440	0.620	-0.330
2020/01/31 15:08:22.1	0.460	-0.430	0.610	-0.310
2020/01/31 15:08:22.2	0.460	-0.420	0.580	-0.280
2020/01/31 15:08:22.3	0.460	-0.400	0.560	-0.250
2020/01/31 15:08:22.4	0.470	-0.390	0.520	-0.230
2020/01/31 15:08:22.5	0.470	-0.370	0.480	-0.210
2020/01/31 15:08:22.6	0.470	-0.340	0.440	-0.180
2020/01/31 15:08:22.7	0.480	-0.320	0.390	-0.160
2020/01/31 15:08:22.8	0.490	-0.290	0.340	-0.140
2020/01/31 15:08:22.9	0.490	-0.270	0.280	-0.120
2020/01/31 15:08:23.0	0.500	-0.240	0.230	-0.100
2020/01/31 15:08:23.1	0.510	-0.210	0.170	-0.090
2020/01/31 15:08:23.2	0.520	-0.180	0.110	-0.070
2020/01/31 15:08:23.3	0.520	-0.150	0.060	-0.060
2020/01/31 15:08:23.4	0.530	-0.110	0.000	-0.040
2020/01/31 15:08:23.5	0.530	-0.080	-0.050	-0.030
2020/01/31 15:08:23.6	0.540	-0.060	-0.100	-0.020
2020/01/31 15:08:23.7	0.540	-0.030	-0.140	-0.010
2020/01/31 15:08:23.8	0.530	-0.000	-0.190	0.000
2020/01/31 15:08:23.9	0.530	0.020	-0.230	0.010
2020/01/31 15:08:24.0	0.520	0.040	-0.260	0.020
2020/01/31 15:08:24.1	0.500	0.060	-0.290	0.030
2020/01/31 15:08:24.2	0.480	0.080	-0.310	0.040
2020/01/31 15:08:24.3	0.460	0.090	-0.330	0.050
2020/01/31 15:08:24.4	0.440	0.100	-0.340	0.060
2020/01/31 15:08:24.5	0.420	0.110	-0.350	0.070
2020/01/31 15:08:24.6	0.390	0.110	-0.360	0.080
2020/01/31 15:08:24.7	0.370	0.110	-0.360	0.080
2020/01/31 15:08:24.8	0.340	0.110	-0.350	0.090
2020/01/31 15:08:24.9	0.310	0.100	-0.340	0.100
2020/01/31 15:08:25.0	0.280	0.100	-0.330	0.100
2020/01/31 15:08:25.1	0.250	0.090	-0.310	0.100
2020/01/31 15:08:25.2	0.230	0.070	-0.290	0.100
2020/01/31 15:08:25.3	0.200	0.060	-0.270	0.100
2020/01/31 15:08:25.4	0.180	0.040	-0.250	0.100
2020/01/31 15:08:25.5	0.150	0.030	-0.230	0.090
2020/01/31 15:08:25.6	0.130	0.010	-0.210	0.080
2020/01/31 15:08:25.7	0.110	-0.010	-0.190	0.060
2020/01/31 15:08:25.8	0.100	-0.030	-0.170	0.050
2020/01/31 15:08:25.9	0.080	-0.050	-0.160	0.030
2020/01/31 15:08:26.0	0.080	-0.070	-0.150	0.000
2020/01/31 15:08:26.1	0.070	-0.080	-0.140	-0.030
2020/01/31 15:08:26.2	0.070	-0.100	-0.140	-0.060
2020/01/31 15:08:26.3	0.070	-0.110	-0.140	-0.090
2020/01/31 15:08:26.4	0.070	-0.120	-0.150	-0.130
2020/01/31 15:08:26.5	0.080	-0.130	-0.160	-0.170
2020/01/31 15:08:26.6	0.090	-0.130	-0.180	-0.210
2020/01/31 15:08:26.7	0.100	-0.140	-0.200	-0.250
2020/01/31 15:08:26.8	0.110	-0.140	-0.220	-0.290
2020/01/31 15:08:26.9	0.130	-0.130	-0.250	-0.330
2020/01/31 15:08:27.0	0.140	-0.130	-0.270	-0.380
2020/01/31 15:08:27.1	0.160	-0.120	-0.310	-0.420
2020/01/31 15:08:27.2	0.180	-0.100	-0.340	-0.460
2020/01/31 15:08:27.3	0.190	-0.090	-0.380	-0.500
2020/01/31 15:08:27.4	0.210	-0.070	-0.410	-0.540
2020/01/31 15:08:27.5	0.230	-0.040	-0.450	-0.570
2020/01/31 15:08:27.6	0.240	-0.020	-0.480	-0.610
2020/01/31 15:08:27.7	0.260	0.010	-0.510	-0.640
2020/01/31 15:08:27.8	0.280	0.040	-0.540	-0.670
2020/01/31 15:08:27.9	0.300	0.070	-0.570	-0.690
2020/01/31 15:08:28.0	0.310	0.100	-0.590	-0.710
2020/01/31 15:08:28.1	0.330	0.140	-0.610	-0.730
2020/01/31 15:08:28.2	0.340	0.170	-0.620	-0.740
2020/01/31 15:08:28.3	0.350	0.210	-0.630	-0.750
2020/01/31 15:08:28.4	0.370	0.240	-0.630	-0.750
2020/01/31 15:08:28.5	0.370	0.280	-0.630	-0.750
2020/01/31 15:08:28.6	0.370	0.310	-0.630	-0.750
2020/01/31 15:08:28.7	0.380	0.350	-0.610	-0.730
2020/01/31 15:08:28.8	0.380	0.380	-0.590	-0.710
2020/01/31 15:08:28.9	0.380	0.410	-0.570	-0.690
2020/01/31 15:08:29.0	0.380	0.440	-0.540	-0.660
2020/01/31 15:08:29.1	0.380	0.470	-0.510	-0.630
2020/01/31 15:08:29.2	0.370	0.500	-0.470	-0.590
2020/01/31 15:08:29.3	0.360	0.520	-0.430	-0.550
2020/01/31 15:08:29.4	0.350	0.530	-0.380	-0.510
2020/01/31 15:08:29.5	0.330	0.550	-0.330	-0.460
2020/01/31 15:08:29.6	0.320	0.560	-0.280	-0.410
2020/01/31 15:08:29.7	0.310	0.560	-0.230	-0.360
2020/01/31 15:08:29.8	0.290	0.560	-0.180	-0.300
2020/01/31 15:08:29.9	0.270	0.560	-0.130	-0.250
2020/01/31 15:08:30.0	0.240	0.550	-0.090	-0.200
2020/01/31 15:08:30.1	0.220	0.540	-0.040	-0.150
2020/01/31 15:08:30.2	0.200	0.530	-0.000	-0.100
2020/01/31 15:08:30.3	0.180	0.510	0.040	-0.060
2020/01/31 15:08:30.4	0.150	0.480	0.070	-0.010
2020/01/31 15:08:30.5	0.130	0.460	0.100	0.030
2020/01/31 15:08:30.6	0.110	0.430	0.130	0.070
2020/01/31 15:08:30.7	0.090	0.400	0.140	0.100
2020/01/31 15:08:30.8	0.070	0.360	0.160	0.130
2020/01/31 15:08:30.9	0.050	0.330	0.170	0.160
2020/01/31 15:08:31.0	0.030	0.290	0.170	0.180
2020/01/31 15:08:31.1	0.010	0.250	0.160	0.190
2020/01/31 15:08:31.2	0.000	0.210	0.150	0.200
2020/01/31 15:08:31.3	359.980	0.160	0.130	0.200
2020/01/31 15:08:31.4	359.970	0.120	0.110	0.200
2020/01/31 15:08:31.5	359.960	0.080	0.080	0.190
2020/01/31 15:08:31.6	359.960	0.040	0.050	0.170
2020/01/31 15:08:31.7	359.950	-0.010	0.010	0.150
2020/01/31 15:08:31.8	359.940	-0.050	-0.030	0.130
2020/01/31 15:08:31.9	359.940	-0.090	-0.080	0.100
2020/01/31 15:08:32.0	359.940	-0.130	-0.130	0.060
2020/01/31 15:08:32.1	359.940	-0.170	-0.190	0.020
2020/01/31 15:08:32.2	359.940	-0.200	-0.250	-0.030
2020/01/31 15:08:32.3	359.950	-0.240	-0.310	-0.070
2020/01/31 15:08:32.4	359.950	-0.270	-0.370	-0.130
2020/01/31 15:08:32.5	359.960	-0.310	-0.440	-0.180
2020/01/31 15:08:32.6	359.990	-0.330	-0.500	-0.240
2020/01/31 15:08:32.7	0.000	-0.360	-0.560	-0.300
2020/01/31 15:08:32.8	0.020	-0.390	-0.630	-0.360
2020/01/31 15:08:32.9	0.040	-0.410	-0.690	-0.420
2020/01/31 15:08:33.0	0.070	-0.430	-0.750	-0.490
2020/01/31 15:08:33.1	0.090	-0.450	-0.810	-0.560
2020/01/31 15:08:33.2	0.130	-0.460	-0.870	-0.620
2020/01/31 15:08:33.3	0.160	-0.470	-0.930	-0.690
2020/01/31 15:08:33.4	0.200	-0.480	-0.990	-0.760
2020/01/31 15:08:33.5	0.240	-0.480	-1.040	-0.830
2020/01/31 15:08:33.6	0.280	-0.480	-1.090	-0.890
2020/01/31 15:08:33.7	0.320	-0.480	-1.140	-0.960
2020/01/31 15:08:33.8	0.370	-0.480	-1.180	-1.020
2020/01/31 15:08:33.9	0.420	-0.470	-1.220	-1.080
2020/01/31 15:08:34.0	0.470	-0.460	-1.250	-1.140
2020/01/31 15:08:34.1	0.520	-0.440	-1.280	-1.200
2020/01/31 15:08:34.2	0.570	-0.430	-1.300	-1.250
2020/01/31 15:08:34.3	0.620	-0.410	-1.320	-1.300
2020/01/31 15:08:34.4	0.670	-0.390	-1.330	-1.340
2020/01/31 15:08:34.5	0.720	-0.360	-1.330	-1.380
2020/01/31 15:08:34.6	0.760	-0.340	-1.330	-1.420
2020/01/31 15:08:34.7	0.800	-0.310	-1.320	-1.450
2020/01/31 15:08:34.8	0.840	-0.280	-1.300	-1.470
2020/01/31 15:08:34.9	0.880	-0.260	-1.280	-1.480
2020/01/31 15:08:35.0	0.910	-0.220	-1.240	-1.480
2020/01/31 15:08:35.1	0.940	-0.190	-1.200	-1.480
2020/01/31 15:08:35.2	0.970	-0.160	-1.140	-1.470
2020/01/31 15:08:35.3	0.990	-0.130	-1.080	-1.450
2020/01/31 15:08:35.4	1.000	-0.100	-1.010	-1.420
2020/01/31 15:08:35.5	1.010	-0.070	-0.930	-1.380
2020/01/31 15:08:35.6	1.030	-0.040	-0.850	-1.330
2020/01/31 15:08:35.7	1.030	-0.020	-0.750	-1.280
2020/01/31 15:08:35.8	1.020	0.010	-0.650	-1.220
2020/01/31 15:08:35.9	1.010	0.030	-0.540	-1.150
2020/01/31 15:08:36.0	1.000	0.050	-0.430	-1.080
2020/01/31 15:08:36.1	0.980	0.070	-0.310	-1.000
2020/01/31 15:08:36.2	0.960	0.090	-0.190	-0.920
2020/01/31 15:08:36.3	0.940	0.100	-0.070	-0.840
2020/01/31 15:08:36.4	0.910	0.110	0.050	-0.750
2020/01/31 15:08:36.5	0.880	0.120	0.180	-0.660
2020/01/31 15:08:36.6	0.850	0.130	0.300	-0.560
2020/01/31 15:08:36.7	0.810	0.130	0.420	-0.470
2020/01/31 15:08:36.8	0.780	0.130	0.540	-0.380
2020/01/31 15:08:36.9	0.740	0.120	0.650	-0.280
2020/01/31 15:08:37.0	0.700	0.120	0.760	-0.190
2020/01/31 15:08:37.1	0.670	0.110	0.860	-0.100
2020/01/31 15:08:37.2	0.630	0.100	0.960	-0.010
2020/01/31 15:08:37.3	0.590	0.090	1.040	0.080
2020/01/31 15:08:37.4	0.560	0.070	1.120	0.160
2020/01/31 15:08:37.5	0.520	0.060	1.180	0.240
2020/01/31 15:08:37.6	0.480	0.040	1.240	0.310
2020/01/31 15:08:37.7	0.450	0.020	1.280	0.380
2020/01/31 15:08:37.8	0.420	0.010	1.320	0.440
2020/01/31 15:08:37.9	0.400	-0.010	1.340	0.500
2020/01/31 15:08:38.0	0.370	-0.030	1.350	0.560
2020/01/31 15:08:38.1	0.350	-0.040	1.350	0.600
2020/01/31 15:08:38.2	0.330	-0.060	1.340	0.640
2020/01/31 15:08:38.3	0.320	-0.070	1.320	0.680
2020/01/31 15:08:38.4	0.300	-0.090	1.280	0.700
2020/01/31 15:08:38.5	0.290	-0.100	1.240	0.730
2020/01/31 15:08:38.6	0.270	-0.110	1.200	0.740
2020/01/31 15:08:38.7	0.260	-0.120	1.140	0.760
2020/01/31 15:08:38.8	0.260	-0.130	1.070	0.770
2020/01/31 15:08:38.9	0.250	-0.130	1.000	0.780
2020/01/31 15:08:39.0	0.240	-0.140	0.920	0.780
2020/01/31 15:08:39.1	0.230	-0.140	0.840	0.790
2020/01/31 15:08:39.2	0.220	-0.140	0.760	0.790
2020/01/31 15:08:39.3	0.210	-0.140	0.670	0.780
2020/01/31 15:08:39.4	0.200	-0.140	0.580	0.780
2020/01/31 15:08:39.5	0.180	-0.140	0.490	0.770
2020/01/31 15:08:39.6	0.160	-0.140	0.400	0.750
2020/01/31 15:08:39.7	0.150	-0.130	0.310	0.730
2020/01/31 15:08:39.8	0.140	-0.130	0.220	0.710
2020/01/31 15:08:39.9	0.120	-0.120	0.130	0.680
2020/01/31 15:08:40.0	0.110	-0.110	0.050	0.640
2020/01/31 15:08:40.1	0.090	-0.100	-0.040	0.610
2020/01/31 15:08:40.2	0.080	-0.090	-0.120	0.570
2020/01/31 15:08:40.3	0.060	-0.070	-0.200	0.530
2020/01/31 15:08:40.4	0.050	-0.060	-0.280	0.490
2020/01/31 15:08:40.5	0.030	-0.040	-0.350	0.440
2020/01/31 15:08:40.6	0.020	-0.030	-0.410	0.390
2020/01/31 15:08:40.7	0.010	-0.010	-0.480	0.350
2020/01/31 15:08:40.8	359.990	0.010	-0.540	0.310
2020/01/31 15:08:40.9	359.970	0.030	-0.590	0.260
2020/01/31 15:08:41.0	359.960	0.060	-0.650	0.220
2020/01/31 15:08:41.1	359.940	0.080	-0.700	0.180
2020/01/31 15:08:41.2	359.920	0.100	-0.740	0.140
2020/01/31 15:08:41.3	359.910	0.130	-0.780	0.100
2020/01/31 15:08:41.4	359.890	0.150	-0.820	0.060
2020/01/31 15:08:41.5	359.880	0.180	-0.860	0.030
2020/01/31 15:08:41.6	359.870	0.200	-0.900	-0.010
2020/01/31 15:08:41.7	359.860	0.230	-0.930	-0.040
2020/01/31 15:08:41.8	359.850	0.250	-0.960	-0.080
2020/01/31 15:08:41.9	359.840	0.280	-0.990	-0.110
2020/01/31 15:08:42.0	359.830	0.310	-1.020	-0.150
2020/01/31 15:08:42.1	359.820	0.330	-1.040	-0.180
2020/01/31 15:08:42.2	359.820	0.350	-1.070	-0.220
2020/01/31 15:08:42.3	359.820	0.380	-1.100	-0.260
2020/01/31 15:08:42.4	359.820	0.400	-1.120	-0.300
2020/01/31 15:08:42.5	359.820	0.420	-1.150	-0.340
2020/01/31 15:08:42.6	359.820	0.440	-1.180	-0.380
2020/01/31 15:08:42.7	359.820	0.460	-1.200	-0.420
2020/01/31 15:08:42.8	359.830	0.470	-1.230	-0.470
2020/01/31 15:08:42.9	359.840	0.480	-1.250	-0.520
2020/01/31 15:08:43.0	359.860	0.490	-1.280	-0.570
2020/01/31 15:08:43.1	359.870	0.500	-1.300	-0.620
2020/01/31 15:08:43.2	359.890	0.510	-1.320	-0.670
2020/01/31 15:08:43.3	359.910	0.510	-1.340	-0.710
2020/01/31 15:08:43.4	359.930	0.510	-1.360	-0.770
2020/01/31 15:08:43.5	359.950	0.510	-1.380	-0.810
2020/01/31 15:08:43.6	359.970	0.510	-1.390	-0.860
2020/01/31 15:08:43.7	359.990	0.500	-1.400	-0.910
2020/01/31 15:08:43.8	0.010	0.490	-1.400	-0.950
2020/01/31 15:08:43.9	0.040	0.480	-1.400	-1.000
2020/01/31 15:08:44.0	0.060	0.460	-1.400	-1.040
2020/01/31 15:08:44.1	0.090	0.440	-1.390	-1.080
2020/01/31 15:08:44.2	0.110	0.420	-1.380	-1.120
2020/01/31 15:08:44.3	0.140	0.390	-1.360	-1.150
2020/01/31 15:08:44.4	0.170	0.370	-1.340	-1.180
2020/01/31 15:08:44.5	0.200	0.340	-1.310	-1.210
2020/01/31 15:08:44.6	0.230	0.310	-1.280	-1.240
2020/01/31 15:08:44.7	0.260	0.280	-1.240	-1.260
2020/01/31 15:08:44.8	0.290	0.240	-1.190	-1.280
2020/01/31 15:08:44.9	0.320	0.210	-1.150	-1.300
2020/01/31 15:08:45.0	0.350	0.170	-1.090	-1.320
2020/01/31 15:08:45.1	0.380	0.130	-1.040	-1.330
2020/01/31 15:08:45.2	0.410	0.090	-0.970	-1.330
2020/01/31 15:08:45.3	0.440	0.050	-0.910	-1.340
2020/01/31 15:08:45.4	0.470	0.020	-0.840	-1.340
2020/01/31 15:08:45.5	0.500	-0.020	-0.770	-1.330
2020/01/31 15:08:45.6	0.530	-0.060	-0.700	-1.330
2020/01/31 15:08:45.7	0.560	-0.100	-0.620	-1.320
2020/01/31 15:08:45.8	0.590	-0.130	-0.550	-1.300
2020/01/31 15:08:45.9	0.610	-0.170	-0.470	-1.290
2020/01/31 15:08:46.0	0.640	-0.200	-0.390	-1.270
2020/01/31 15:08:46.1	0.660	-0.230	-0.310	-1.240
2020/01/31 15:08:46.2	0.680	-0.260	-0.230	-1.210
2020/01/31 15:08:46.3	0.700	-0.290	-0.160	-1.180
2020/01/31 15:08:46.4	0.720	-0.310	-0.080	-1.150
2020/01/31 15:08:46.5	0.740	-0.340	-0.010	-1.120
2020/01/31 15:08:46.6	0.770	-0.360	0.060	-1.070
2020/01/31 15:08:46.7	0.790	-0.380	0.130	-1.030
2020/01/31 15:08:46.8	0.800	-0.400	0.200	-0.990
2020/01/31 15:08:46.9	0.800	-0.410	0.270	-0.940
2020/01/31 15:08:47.0	0.810	-0.430	0.330	-0.900
2020/01/31 15:08:47.1	0.810	-0.440	0.390	-0.850
2020/01/31 15:08:47.2	0.810	-0.450	0.440	-0.800
2020/01/31 15:08:47.3	0.810	-0.460	0.500	-0.750
2020/01/31 15:08:47.4	0.810	-0.460	0.550	-0.690
2020/01/31 15:08:47.5	0.800	-0.470	0.590	-0.640
2020/01/31 15:08:47.6	0.800	-0.480	0.640	-0.590
2020/01/31 15:08:47.7	0.790	-0.480	0.680	-0.530
2020/01/31 15:08:47.8	0.780	-0.480	0.710	-0.480
2020/01/31 15:08:47.9	0.760	-0.490	0.740	-0.420
2020/01/31 15:08:48.0	0.740	-0.490	0.770	-0.370
2020/01/31 15:08:48.1	0.720	-0.490	0.800	-0.320
2020/01/31 15:08:48.2	0.690	-0.490	0.820	-0.260
2020/01/31 15:08:48.3	0.670	-0.490	0.840	-0.210
2020/01/31 15:08:48.4	0.640	-0.500	0.860	-0.160
2020/01/31 15:08:48.5	0.610	-0.500	0.870	-0.110
2020/01/31 15:08:48.6	0.570	-0.500	0.880	-0.060
2020/01/31 15:08:48.7	0.530	-0.500	0.890	-0.020
2020/01/31 15:08:48.8	0.500	-0.500	0.890	0.020
2020/01/31 15:08:48.9	0.460	-0.500	0.890	0.060
2020/01/31 15:08:49.0	0.430	-0.500	0.890	0.100
2020/01/31 15:08:49.1	0.400	-0.500	0.880	0.130
2020/01/31 15:08:49.2	0.360	-0.500	0.880	0.160
2020/01/31 15:08:49.3	0.330	-0.500	0.860	0.190
2020/01/31 15:08:49.4	0.300	-0.490	0.850	0.220
2020/01/31 15:08:49.5	0.270	-0.490	0.830	0.240
2020/01/31 15:08:49.6	0.240	-0.490	0.810	0.250
2020/01/31 15:08:49.7	0.220	-0.480	0.780	0.260
2020/01/31 15:08:49.8	0.200	-0.470	0.750	0.270
2020/01/31 15:08:49.9	0.180	-0.460	0.710	0.280
2020/01/31 15:08:50.0	0.170	-0.450	0.670	0.280
2020/01/31 15:08:50.1	0.160	-0.440	0.630	0.270
2020/01/31 15:08:50.2	0.150	-0.420	0.580	0.270
2020/01/31 15:08:50.3	0.150	-0.400	0.530	0.260
2020/01/31 15:08:50.4	0.150	-0.380	0.470	0.260
2020/01/31 15:08:50.5	0.140	-0.360	0.420	0.250
2020/01/31 15:08:50.6	0.130	-0.330	0.360	0.240
2020/01/31 15:08:50.7	0.130	-0.310	0.300	0.240
2020/01/31 15:08:50.8	0.130	-0.280	0.240	0.230
2020/01/31 15:08:50.9	0.120	-0.240	0.180	0.230
2020/01/31 15:08:51.0	0.110	-0.210	0.120	0.230
2020/01/31 15:08:51.1	0.100	-0.170	0.060	0.230
2020/01/31 15:08:51.2	0.090	-0.130	0.000	0.230
2020/01/31 15:08:51.3	0.080	-0.090	-0.060	0.240
2020/01/31 15:08:51.4	0.070	-0.050	-0.120	0.240
2020/01/31 15:08:51.5	0.050	-0.000	-0.170	0.250
2020/01/31 15:08:51.6	0.020	0.040	-0.230	0.250
2020/01/31 15:08:51.7	0.010	0.090	-0.280	0.260
2020/01/31 15:08:51.8	359.990	0.130	-0.340	0.270
2020/01/31 15:08:51.9	359.960	0.180	-0.390	0.270
2020/01/31 15:08:52.0	359.940	0.230	-0.440	0.280
2020/01/31 15:08:52.1	359.920	0.280	-0.490	0.290
2020/01/31 15:08:52.2	359.900	0.330	-0.540	0.300
2020/01/31 15:08:52.3	359.870	0.380	-0.590	0.300
2020/01/31 15:08:52.4	359.850	0.420	-0.640	0.310
2020/01/31 15:08:52.5	359.830	0.470	-0.680	0.320
2020/01/31 15:08:52.6	359.790	0.520	-0.730	0.320
2020/01/31 15:08:52.7	359.770	0.560	-0.770	0.330
2020/01/31 15:08:52.8	359.750	0.610	-0.810	0.340
2020/01/31 15:08:52.9	359.730	0.650	-0.860	0.340
2020/01/31 15:08:53.0	359.720	0.690	-0.900	0.350
2020/01/31 15:08:53.1	359.710	0.730	-0.940	0.350
2020/01/31 15:08:53.2	359.700	0.760	-0.980	0.350
2020/01/31 15:08:53.3	359.690	0.800	-1.020	0.350
2020/01/31 15:08:53.4	359.680	0.830	-1.060	0.350
2020/01/31 15:08:53.5	359.680	0.850	-1.100	0.340
2020/01/31 15:08:53.6	359.680	0.880	-1.140	0.330
2020/01/31 15:08:53.7	359.680	0.900	-1.170	0.320
2020/01/31 15:08:53.8	359.680	0.920	-1.200	0.300
2020/01/31 15:08:53.9	359.690	0.930	-1.230	0.290
2020/01/31 15:08:54.0	359.690	0.940	-1.260	0.260
2020/01/31 15:08:54.1	359.700	0.940	-1.280	0.240
2020/01/31 15:08:54.2	359.710	0.940	-1.300	0.210
2020/01/31 15:08:54.3	359.720	0.930	-1.320	0.170
2020/01/31 15:08:54.4	359.730	0.920	-1.330	0.130
2020/01/31 15:08:54.5	359.740	0.900	-1.330	0.090
2020/01/31 15:08:54.6	359.760	0.880	-1.330	0.050
2020/01/31 15:08:54.7	359.780	0.850	-1.320	0.000
2020/01/31 15:08:54.8	359.790	0.820	-1.310	-0.040
2020/01/31 15:08:54.9	359.810	0.780	-1.300	-0.100
2020/01/31 15:08:55.0	359.820	0.740	-1.270	-0.150
2020/01/31 15:08:55.1	359.840	0.690	-1.250	-0.210
2020/01/31 15:08:55.2	359.860	0.640	-1.210	-0.270
2020/01/31 15:08:55.3	359.880	0.580	-1.170	-0.340
2020/01/31 15:08:55.4	359.900	0.520	-1.130	-0.400
2020/01/31 15:08:55.5	359.920	0.460	-1.080	-0.460
2020/01/31 15:08:55.6	359.950	0.390	-1.020	-0.530
2020/01/31 15:08:55.7	359.970	0.320	-0.960	-0.600
2020/01/31 15:08:55.8	359.990	0.250	-0.890	-0.660
2020/01/31 15:08:55.9	0.020	0.170	-0.830	-0.720
2020/01/31 15:08:56.0	0.040	0.100	-0.750	-0.780
2020/01/31 15:08:56.1	0.070	0.020	-0.680	-0.840
2020/01/31 15:08:56.2	0.090	-0.060	-0.600	-0.890
2020/01/31 15:08:56.3	0.120	-0.140	-0.510	-0.940
2020/01/31 15:08:56.4	0.140	-0.210	-0.430	-0.990
2020/01/31 15:08:56.5	0.160	-0.290	-0.350	-1.030
2020/01/31 15:08:56.6	0.190	-0.360	-0.260	-1.070
2020/01/31 15:08:56.7	0.210	-0.440	-0.170	-1.110
2020/01/31 15:08:56.8	0.230	-0.500	-0.090	-1.140
2020/01/31 15:08:56.9	0.250	-0.570	-0.010	-1.160
2020/01/31 15:08:57.0	0.270	-0.630	0.070	-1.180
2020/01/31 15:08:57.1	0.290	-0.690	0.140	-1.190
2020/01/31 15:08:57.2	0.300	-0.750	0.210	-1.200
2020/01/31 15:08:57.3	0.320	-0.790	0.280	-1.210
2020/01/31 15:08:57.4	0.330	-0.840	0.340	-1.210
2020/01/31 15:08:57.5	0.340	-0.870	0.400	-1.200
2020/01/31 15:08:57.6	0.350	-0.900	0.450	-1.200
2020/01/31 15:08:57.7	0.370	-0.930	0.490	-1.190
2020/01/31 15:08:57.8	0.380	-0.950	0.520	-1.180
2020/01/31 15:08:57.9	0.380	-0.960	0.550	-1.160
2020/01/31 15:08:58.0	0.390	-0.960	0.570	-1.140
2020/01/31 15:08:58.1	0.400	-0.960	0.580	-1.120
2020/01/31 15:08:58.2	0.410	-0.950	0.590	-1.100
2020/01/31 15:08:58.3	0.420	-0.940	0.580	-1.080
2020/01/31 15:08:58.4	0.420	-0.910	0.570	-1.060
2020/01/31 15:08:58.5	0.430	-0.890	0.560	-1.030
2020/01/31 15:08:58.6	0.430	-0.850	0.540	-1.000
2020/01/31 15:08:58.7	0.440	-0.810	0.510	-0.970
2020/01/31 15:08:58.8	0.440	-0.760	0.470	-0.940
2020/01/31 15:08:58.9	0.450	-0.710	0.430	-0.900
2020/01/31 15:08:59.0	0.450	-0.660	0.390	-0.870
2020/01/31 15:08:59.1	0.450	-0.600	0.340	-0.830
2020/01/31 15:08:59.2	0.440	-0.540	0.300	-0.790
2020/01/31 15:08:59.3	0.440	-0.480	0.250	-0.750
2020/01/31 15:08:59.4	0.430	-0.410	0.190	-0.710
2020/01/31 15:08:59.5	0.420	-0.340	0.140	-0.660
2020/01/31 15:08:59.6	0.400	-0.280	0.090	-0.620
2020/01/31 15:08:59.7	0.390	-0.210	0.040	-0.570
2020/01/31 15:08:59.8	0.370	-0.150	-0.010	-0.530
2020/01/31 15:08:59.9	0.350	-0.080	-0.060	-0.480
2020/01/31 15:09:00.0	0.320	-0.020	-0.100	-0.430
2020/01/31 15:09:00.1	0.300	0.040	-0.140	-0.390
2020/01/31 15:09:00.2	0.270	0.090	-0.180	-0.340
2020/01/31 15:09:00.3	0.240	0.150	-0.220	-0.290
2020/01/31 15:09:00.4	0.210	0.190	-0.250	-0.240
2020/01/31 15:09:00.5	0.170	0.240	-0.280	-0.200
2020/01/31 15:09:00.6	0.140	0.280	-0.290	-0.150
2020/01/31 15:09:00.7	0.100	0.320	-0.310	-0.100
2020/01/31 15:09:00.8	0.070	0.350	-0.330	-0.060
2020/01/31 15:09:00.9	0.030	0.370	-0.340	-0.020
2020/01/31 15:09:01.0	0.000	0.390	-0.350	0.020
2020/01/31 15:09:01.1	359.960	0.410	-0.360	0.050
2020/01/31 15:09:01.2	359.930	0.420	-0.360	0.090
2020/01/31 15:09:01.3	359.890	0.430	-0.360	0.120
2020/01/31 15:09:01.4	359.860	0.430	-0.350	0.150
2020/01/31 15:09:01.5	359.830	0.430	-0.350	0.180
2020/01/31 15:09:01.6	359.790	0.420	-0.340	0.200
2020/01/31 15:09:01.7	359.760	0.410	-0.330	0.220
2020/01/31 15:09:01.8	359.730	0.400	-0.310	0.240
2020/01/31 15:09:01.9	359.700	0.380	-0.290	0.260
2020/01/31 15:09:02.0	359.680	0.360	-0.280	0.270
2020/01/31 15:09:02.1	359.660	0.340	-0.260	0.280
2020/01/31 15:09:02.2	359.640	0.320	-0.230	0.290
2020/01/31 15:09:02.3	359.620	0.300	-0.210	0.300
2020/01/31 15:09:02.4	359.600	0.270	-0.190	0.310
2020/01/31 15:09:02.5	359.580	0.250	-0.170	0.310
2020/01/31 15:09:02.6	359.550	0.220	-0.140	0.310
2020/01/31 15:09:02.7	359.530	0.190	-0.120	0.310
2020/01/31 15:09:02.8	359.520	0.170	-0.100	0.300
2020/01/31 15:09:02.9	359.510	0.140	-0.080	0.300
2020/01/31 15:09:03.0	359.490	0.120	-0.060	0.290
2020/01/31 15:09:03.1	359.480	0.090	-0.040	0.280
2020/01/31 15:09:03.2	359.470	0.070	-0.020	0.270
2020/01/31 15:09:03.3	359.460	0.050	-0.000	0.260
2020/01/31 15:09:03.4	359.460	0.030	0.010	0.240
2020/01/31 15:09:03.5	359.450	0.010	0.020	0.230
2020/01/31 15:09:03.6	359.420	-0.010	0.030	0.210
2020/01/31 15:09:03.7	359.420	-0.020	0.040	0.190
2020/01/31 15:09:03.8	359.410	-0.040	0.040	0.170
2020/01/31 15:09:03.9	359.410	-0.050	0.050	0.140
2020/01/31 15:09:04.0	359.410	-0.060	0.050	0.120
2020/01/31 15:09:04.1	359.420	-0.070	0.040	0.090
2020/01/31 15:09:04.2	359.420	-0.080	0.040	0.060
2020/01/31 15:09:04.3	359.430	-0.090	0.030	0.030
2020/01/31 15:09:04.4	359.440	-0.100	0.020	-0.000
2020/01/31 15:09:04.5	359.450	-0.100	0.000	-0.040
2020/01/31 15:09:04.6	359.460	-0.110	-0.010	-0.070
2020/01/31 15:09:04.7	359.470	-0.110	-0.030	-0.110
2020/01/31 15:09:04.8	359.490	-0.110	-0.060	-0.140
2020/01/31 15:09:04.9	359.510	-0.110	-0.080	-0.170
2020/01/31 15:09:05.0	359.530	-0.110	-0.110	-0.210
2020/01/31 15:09:05.1	359.550	-0.110	-0.150	-0.240
2020/01/31 15:09:05.2	359.570	-0.110	-0.180	-0.280
2020/01/31 15:09:05.3	359.600	-0.100	-0.220	-0.320
2020/01/31 15:09:05.4	359.620	-0.100	-0.260	-0.350
2020/01/31 15:09:05.5	359.650	-0.100	-0.300	-0.390
2020/01/31 15:09:05.6	359.700	-0.090	-0.330	-0.430
2020/01/31 15:09:05.7	359.730	-0.090	-0.380	-0.460
2020/01/31 15:09:05.8	359.760	-0.080	-0.420	-0.500
2020/01/31 15:09:05.9	359.790	-0.080	-0.460	-0.540
2020/01/31 15:09:06.0	359.820	-0.070	-0.510	-0.570
2020/01/31 15:09:06.1	359.850	-0.070	-0.550	-0.610
2020/01/31 15:09:06.2	359.890	-0.060	-0.590	-0.640
2020/01/31 15:09:06.3	359.920	-0.060	-0.630	-0.670
2020/01/31 15:09:06.4	359.950	-0.050	-0.670	-0.700
2020/01/31 15:09:06.5	359.980	-0.040	-0.710	-0.730
2020/01/31 15:09:06.6	0.000	-0.040	-0.750	-0.760
2020/01/31 15:09:06.7	0.030	-0.030	-0.780	-0.780
2020/01/31 15:09:06.8	0.060	-0.020	-0.810	-0.790
2020/01/31 15:09:06.9	0.080	-0.010	-0.830	-0.810
2020/01/31 15:09:07.0	0.100	-0.010	-0.860	-0.820
2020/01/31 15:09:07.1	0.120	-0.000	-0.870	-0.830
2020/01/31 15:09:07.2	0.140	0.010	-0.890	-0.830
2020/01/31 15:09:07.3	0.160	0.010	-0.900	-0.830
2020/01/31 15:09:07.4	0.170	0.020	-0.900	-0.820
2020/01/31 15:09:07.5	0.190	0.030	-0.900	-0.810
2020/01/31 15:09:07.6	0.200	0.030	-0.900	-0.800
2020/01/31 15:09:07.7	0.200	0.040	-0.890	-0.780
2020/01/31 15:09:07.8	0.200	0.050	-0.870	-0.760
2020/01/31 15:09:07.9	0.200	0.050	-0.860	-0.730
2020/01/31 15:09:08.0	0.200	0.060	-0.840	-0.700
2020/01/31 15:09:08.1	0.190	0.070	-0.810	-0.670
2020/01/31 15:09:08.2	0.180	0.070	-0.780	-0.640
2020/01/31 15:09:08.3	0.160	0.080	-0.750	-0.600
2020/01/31 15:09:08.4	0.150	0.080	-0.720	-0.560
2020/01/31 15:09:08.5	0.130	0.090	-0.680	-0.520
2020/01/31 15:09:08.6	0.120	0.100	-0.640	-0.480
2020/01/31 15:09:08.7	0.100	0.100	-0.600	-0.440
2020/01/31 15:09:08.8	0.070	0.110	-0.550	-0.390
2020/01/31 15:09:08.9	0.050	0.120	-0.510	-0.350
2020/01/31 15:09:09.0	0.020	0.130	-0.470	-0.300
2020/01/31 15:09:09.1	0.000	0.140	-0.420	-0.260
2020/01/31 15:09:09.2	359.970	0.150	-0.380	-0.210
2020/01/31 15:09:09.3	359.950	0.150	-0.340	-0.170
2020/01/31 15:09:09.4	359.920	0.160	-0.290	-0.130
2020/01/31 15:09:09.5	359.900	0.170	-0.250	-0.090
2020/01/31 15:09:09.6	359.880	0.180	-0.210	-0.040
2020/01/31 15:09:09.7	359.860	0.190	-0.180	-0.000
2020/01/31 15:09:09.8	359.840	0.200	-0.140	0.030
2020/01/31 15:09:09.9	359.820	0.220	-0.110	0.070
2020/01/31 15:09:10.0	359.800	0.230	-0.080	0.100
2020/01/31 15:09:10.1	359.790	0.230	-0.050	0.130
2020/01/31 15:09:10.2	359.770	0.240	-0.030	0.160
2020/01/31 15:09:10.3	359.750	0.250	-0.000	0.190
2020/01/31 15:09:10.4	359.740	0.260	0.020	0.220
2020/01/31 15:09:10.5	359.720	0.270	0.030	0.240
2020/01/31 15:09:10.6	359.720	0.270	0.050	0.260
2020/01/31 15:09:10.7	359.710	0.280	0.060	0.270
2020/01/31 15:09:10.8	359.700	0.280	0.070	0.280
2020/01/31 15:09:10.9	359.690	0.280	0.070	0.290
2020/01/31 15:09:11.0	359.680	0.280	0.080	0.290
2020/01/31 15:09:11.1	359.670	0.280	0.080	0.290
2020/01/31 15:09:11.2	359.660	0.280	0.080	0.290
2020/01/31 15:09:11.3	359.660	0.280	0.080	0.280
2020/01/31 15:09:11.4	359.660	0.270	0.070	0.270
2020/01/31 15:09:11.5	359.660	0.260	0.070	0.250
2020/01/31 15:09:11.6	359.660	0.260	0.060	0.230
2020/01/31 15:09:11.7	359.670	0.250	0.050	0.210
2020/01/31 15:09:11.8	359.670	0.230	0.040	0.180
2020/01/31 15:09:11.9	359.680	0.220	0.020	0.150
2020/01/31 15:09:12.0	359.690	0.200	0.010	0.120
2020/01/31 15:09:12.1	359.710	0.180	-0.000	0.080
2020/01/31 15:09:12.2	359.720	0.170	-0.020	0.040
2020/01/31 15:09:12.3	359.740	0.140	-0.040	-0.000
2020/01/31 15:09:12.4	359.760	0.120	-0.050	-0.050
2020/01/31 15:09:12.5	359.780	0.100	-0.070	-0.100
2020/01/31 15:09:12.6	359.800	0.070	-0.080	-0.150
2020/01/31 15:09:12.7	359.820	0.040	-0.100	-0.200
2020/01/31 15:09:12.8	359.840	0.010	-0.110	-0.250
2020/01/31 15:09:12.9	359.870	-0.020	-0.120	-0.300
2020/01/31 15:09:13.0	359.890	-0.050	-0.140	-0.350
2020/01/31 15:09:13.1	359.920	-0.080	-0.150	-0.400
2020/01/31 15:09:13.2	359.940	-0.120	-0.160	-0.460
2020/01/31 15:09:13.3	359.970	-0.150	-0.170	-0.510
2020/01/31 15:09:13.4	359.990	-0.180	-0.170	-0.560
2020/01/31 15:09:13.5	0.020	-0.220	-0.180	-0.610
2020/01/31 15:09:13.6	0.060	-0.250	-0.180	-0.660
2020/01/31 15:09:13.7	0.080	-0.290	-0.190	-0.700
2020/01/31 15:09:13.8	0.110	-0.320	-0.190	-0.750
2020/01/31 15:09:13.9	0.140	-0.350	-0.190	-0.790
2020/01/31 15:09:14.0	0.170	-0.380	-0.190	-0.830
2020/01/31 15:09:14.1	0.200	-0.410	-0.180	-0.860
2020/01/31 15:09:14.2	0.230	-0.430	-0.180	-0.890
2020/01/31 15:09:14.3	0.260	-0.460	-0.170	-0.920
2020/01/31 15:09:14.4	0.280	-0.480	-0.170	-0.940
2020/01/31 15:09:14.5	0.310	-0.500	-0.160	-0.960
2020/01/31 15:09:14.6	0.330	-0.520	-0.150	-0.980
2020/01/31 15:09:14.7	0.350	-0.530	-0.140	-0.980
2020/01/31 15:09:14.8	0.380	-0.540	-0.120	-0.980
2020/01/31 15:09:14.9	0.400	-0.550	-0.110	-0.980
2020/01/31 15:09:15.0	0.420	-0.560	-0.090	-0.970
2020/01/31 15:09:15.1	0.430	-0.560	-0.070	-0.950
2020/01/31 15:09:15.2	0.440	-0.570	-0.050	-0.930
2020/01/31 15:09:15.3	0.450	-0.560	-0.020	-0.910
2020/01/31 15:09:15.4	0.450	-0.560	0.000	-0.880
2020/01/31 15:09:15.5	0.450	-0.560	0.030	-0.840
2020/01/31 15:09:15.6	0.450	-0.550	0.060	-0.800
2020/01/31 15:09:15.7	0.450	-0.540	0.090	-0.750
2020/01/31 15:09:15.8	0.430	-0.520	0.110	-0.700
2020/01/31 15:09:15.9	0.420	-0.510	0.140	-0.650
2020/01/31 15:09:16.0	0.390	-0.490	0.170	-0.590
2020/01/31 15:09:16.1	0.370	-0.470	0.200	-0.520
2020/01/31 15:09:16.2	0.340	-0.450	0.230	-0.460
2020/01/31 15:09:16.3	0.300	-0.420	0.250	-0.390
2020/01/31 15:09:16.4	0.260	-0.400	0.280	-0.310
2020/01/31 15:09:16.5	0.220	-0.370	0.300	-0.240
2020/01/31 15:09:16.6	0.170	-0.350	0.310	-0.160
2020/01/31 15:09:16.7	0.120	-0.320	0.330	-0.090
2020/01/31 15:09:16.8	0.070	-0.290	0.340	-0.010
2020/01/31 15:09:16.9	0.020	-0.260	0.350	0.060
2020/01/31 15:09:17.0	359.970	-0.230	0.350	0.140
2020/01/31 15:09:17.1	359.920	-0.200	0.350	0.210
2020/01/31 15:09:17.2	359.870	-0.160	0.340	0.280
2020/01/31 15:09:17.3	359.820	-0.130	0.320	0.340
2020/01/31 15:09:17.4	359.780	-0.100	0.300	0.400
2020/01/31 15:09:17.5	359.730	-0.070	0.280	0.460
2020/01/31 15:09:17.6	359.680	-0.040	0.250	0.510
2020/01/31 15:09:17.7	359.640	-0.000	0.210	0.560
2020/01/31 15:09:17.8	359.600	0.030	0.160	0.600
2020/01/31 15:09:17.9	359.570	0.060	0.110	0.630
2020/01/31 15:09:18.0	359.540	0.090	0.050	0.660
2020/01/31 15:09:18.1	359.510	0.120	-0.010	0.680
2020/01/31 15:09:18.2	359.490	0.150	-0.090	0.690
2020/01/31 15:09:18.3	359.470	0.180	-0.160	0.700
2020/01/31 15:09:18.4	359.460	0.210	-0.240	0.690
2020/01/31 15:09:18.5	359.450	0.240	-0.330	0.680
2020/01/31 15:09:18.6	359.430	0.270	-0.420	0.660
2020/01/31 15:09:18.7	359.420	0.290	-0.510	0.640
2020/01/31 15:09:18.8	359.420	0.320	-0.610	0.610
2020/01/31 15:09:18.9	359.420	0.340	-0.700	0.570
2020/01/31 15:09:19.0	359.430	0.370	-0.800	0.530
2020/01/31 15:09:19.1	359.440	0.390	-0.900	0.490
2020/01/31 15:09:19.2	359.450	0.410	-1.000	0.430
2020/01/31 15:09:19.3	359.460	0.430	-1.090	0.380
2020/01/31 15:09:19.4	359.480	0.450	-1.180	0.320
2020/01/31 15:09:19.5	359.500	0.470	-1.270	0.260
2020/01/31 15:09:19.6	359.520	0.490	-1.350	0.190
2020/01/31 15:09:19.7	359.540	0.510	-1.430	0.120
2020/01/31 15:09:19.8	359.570	0.520	-1.500	0.060
2020/01/31 15:09:19.9	359.600	0.530	-1.570	-0.020
2020/01/31 15:09:20.0	359.630	0.540	-1.630	-0.090
2020/01/31 15:09:20.1	359.670	0.550	-1.680	-0.160
2020/01/31 15:09:20.2	359.710	0.560	-1.720	-0.230
2020/01/31 15:09:20.3	359.750	0.570	-1.760	-0.310
2020/01/31 15:09:20.4	359.790	0.580	-1.780	-0.380
2020/01/31 15:09:20.5	359.830	0.580	-1.800	-0.450
2020/01/31 15:09:20.6	359.890	0.580	-1.800	-0.520
2020/01/31 15:09:20.7	359.930	0.580	-1.800	-0.590
2020/01/31 15:09:20.8	359.980	0.580	-1.780	-0.650
2020/01/31 15:09:20.9	0.030	0.580	-1.760	-0.720
2020/01/31 15:09:21.0	0.080	0.570	-1.730	-0.780
2020/01/31 15:09:21.1	0.130	0.560	-1.680	-0.840
2020/01/31 15:09:21.2	0.180	0.560	-1.630	-0.900
2020/01/31 15:09:21.3	0.230	0.550	-1.570	-0.960
2020/01/31 15:09:21.4	0.280	0.540	-1.500	-1.010
2020/01/31 15:09:21.5	0.340	0.520	-1.430	-1.060
2020/01/31 15:09:21.6	0.410	0.510	-1.350	-1.110
2020/01/31 15:09:21.7	0.460	0.490	-1.260	-1.160
2020/01/31 15:09:21.8	0.520	0.470	-1.170	-1.200
2020/01/31 15:09:21.9	0.570	0.460	-1.070	-1.240
2020/01/31 15:09:22.0	0.620	0.440	-0.970	-1.270
2020/01/31 15:09:22.1	0.670	0.410	-0.860	-1.300
2020/01/31 15:09:22.2	0.720	0.390	-0.750	-1.320
2020/01/31 15:09:22.3	0.770	0.370	-0.640	-1.340
2020/01/31 15:09:22.4	0.810	0.340	-0.520	-1.360
2020/01/31 15:09:22.5	0.860	0.320	-0.410	-1.370
2020/01/31 15:09:22.6	0.910	0.290	-0.290	-1.370
2020/01/31 15:09:22.7	0.950	0.260	-0.170	-1.370
2020/01/31 15:09:22.8	0.980	0.230	-0.050	-1.360
2020/01/31 15:09:22.9	1.010	0.200	0.070	-1.350
2020/01/31 15:09:23.0	1.040	0.170	0.180	-1.330
2020/01/31 15:09:23.1	1.060	0.140	0.300	-1.300
2020/01/31 15:09:23.2	1.080	0.100	0.410	-1.270
2020/01/31 15:09:23.3	1.100	0.070	0.520	-1.230
2020/01/31 15:09:23.4	1.110	0.030	0.630	-1.190
2020/01/31 15:09:23.5	1.110	-0.000	0.730	-1.140
2020/01/31 15:09:23.6	1.120	-0.040	0.830	-1.090
2020/01/31 15:09:23.7	1.110	-0.070	0.920	-1.030
2020/01/31 15:09:23.8	1.110	-0.110	1.010	-0.970
2020/01/31 15:09:23.9	1.090	-0.150	1.090	-0.910
2020/01/31 15:09:24.0	1.070	-0.190	1.170	-0.850
2020/01/31 15:09:24.1	1.050	-0.230	1.240	-0.780
2020/01/31 15:09:24.2	1.030	-0.260	1.300	-0.720
2020/01/31 15:09:24.3	1.000	-0.300	1.350	-0.650
2020/01/31 15:09:24.4	0.960	-0.340	1.400	-0.580
2020/01/31 15:09:24.5	0.930	-0.380	1.440	-0.520
2020/01/31 15:09:24.6	0.900	-0.420	1.470	-0.450
2020/01/31 15:09:24.7	0.850	-0.450	1.490	-0.390
2020/01/31 15:09:24.8	0.810	-0.490	1.500	-0.330
2020/01/31 15:09:24.9	0.760	-0.520	1.500	-0.280
2020/01/31 15:09:25.0	0.710	-0.560	1.500	-0.230
2020/01/31 15:09:25.1	0.650	-0.590	1.480	-0.180
2020/01/31 15:09:25.2	0.590	-0.620	1.460	-0.140
2020/01/31 15:09:25.3	0.540	-0.650	1.420	-0.100
2020/01/31 15:09:25.4	0.480	-0.670	1.380	-0.060
2020/01/31 15:09:25.5	0.410	-0.700	1.330	-0.030
2020/01/31 15:09:25.6	0.340	-0.720	1.280	-0.010
2020/01/31 15:09:25.7	0.280	-0.740	1.210	0.010
2020/01/31 15:09:25.8	0.210	-0.760	1.140	0.020
2020/01/31 15:09:25.9	0.150	-0.770	1.060	0.030
2020/01/31 15:09:26.0	0.080	-0.780	0.980	0.040
2020/01/31 15:09:26.1	0.020	-0.790	0.890	0.040
2020/01/31 15:09:26.2	359.960	-0.800	0.790	0.040
2020/01/31 15:09:26.3	359.890	-0.800	0.690	0.030
2020/01/31 15:09:26.4	359.830	-0.800	0.580	0.030
2020/01/31 15:09:26.5	359.770	-0.790	0.470	0.020
2020/01/31 15:09:26.6	359.700	-0.780	0.360	0.000
2020/01/31 15:09:26.7	359.640	-0.770	0.250	-0.010
2020/01/31 15:09:26.8	359.580	-0.750	0.130	-0.020
2020/01/31 15:09:26.9	359.530	-0.730	0.020	-0.040
2020/01/31 15:09:27.0	359.480	-0.710	-0.100	-0.060
2020/01/31 15:09:27.1	359.430	-0.680	-0.210	-0.080
2020/01/31 15:09:27.2	359.390	-0.650	-0.330	-0.100
2020/01/31 15:09:27.3	359.350	-0.620	-0.440	-0.120
2020/01/31 15:09:27.4	359.310	-0.580	-0.550	-0.150
2020/01/31 15:09:27.5	359.280	-0.540	-0.660	-0.170
2020/01/31 15:09:27.6	359.250	-0.500	-0.760	-0.200
2020/01/31 15:09:27.7	359.220	-0.450	-0.870	-0.230
2020/01/31 15:09:27.8	359.200	-0.400	-0.970	-0.260
2020/01/31 15:09:27.9	359.180	-0.350	-1.060	-0.290
2020/01/31 15:09:28.0	359.170	-0.300	-1.150	-0.320
2020/01/31 15:09:28.1	359.160	-0.250	-1.230	-0.350
2020/01/31 15:09:28.2	359.150	-0.200	-1.310	-0.380
2020/01/31 15:09:28.3	359.140	-0.150	-1.380	-0.410
2020/01/31 15:09:28.4	359.140	-0.090	-1.450	-0.450
2020/01/31 15:09:28.5	359.150	-0.040	-1.510	-0.480
2020/01/31 15:09:28.6	359.140	0.010	-1.560	-0.520
2020/01/31 15:09:28.7	359.150	0.060	-1.600	-0.550
2020/01/31 15:09:28.8	359.150	0.120	-1.640	-0.570
2020/01/31 15:09:28.9	359.160	0.160	-1.660	-0.600
2020/01/31 15:09:29.0	359.170	0.210	-1.680	-0.620
2020/01/31 15:09:29.1	359.190	0.260	-1.680	-0.640
2020/01/31 15:09:29.2	359.200	0.300	-1.680	-0.660
2020/01/31 15:09:29.3	359.210	0.340	-1.670	-0.670
2020/01/31 15:09:29.4	359.220	0.380	-1.650	-0.680
2020/01/31 15:09:29.5	359.240	0.410	-1.620	-0.680
2020/01/31 15:09:29.6	359.250	0.440	-1.580	-0.680
2020/01/31 15:09:29.7	359.270	0.470	-1.530	-0.680
2020/01/31 15:09:29.8	359.280	0.490	-1.480	-0.670
2020/01/31 15:09:29.9	359.290	0.510	-1.420	-0.660
2020/01/31 15:09:30.0	359.310	0.530	-1.360	-0.650
2020/01/31 15:09:30.1	359.320	0.540	-1.290	-0.640
2020/01/31 15:09:30.2	359.340	0.550	-1.220	-0.620
2020/01/31 15:09:30.3	359.360	0.550	-1.140	-0.600
2020/01/31 15:09:30.4	359.370	0.560	-1.060	-0.580
2020/01/31 15:09:30.5	359.390	0.550	-0.980	-0.560
2020/01/31 15:09:30.6	359.400	0.550	-0.900	-0.540
2020/01/31 15:09:30.7	359.420	0.540	-0.820	-0.510
2020/01/31 15:09:30.8	359.440	0.530	-0.740	-0.480
2020/01/31 15:09:30.9	359.460	0.520	-0.670	-0.460
2020/01/31 15:09:31.0	359.480	0.500	-0.590	-0.430
2020/01/31 15:09:31.1	359.490	0.480	-0.520	-0.410
2020/01/31 15:09:31.2	359.510	0.460	-0.450	-0.380
2020/01/31 15:09:31.3	359.530	0.440	-0.380	-0.360
2020/01/31 15:09:31.4	359.540	0.420	-0.320	-0.330
2020/01/31 15:09:31.5	359.560	0.400	-0.260	-0.310
2020/01/31 15:09:31.6	359.570	0.370	-0.200	-0.290
2020/01/31 15:09:31.7	359.580	0.350	-0.160	-0.270
2020/01/31 15:09:31.8	359.600	0.330	-0.110	-0.250
2020/01/31 15:09:31.9	359.620	0.300	-0.070	-0.240
2020/01/31 15:09:32.0	359.630	0.280	-0.040	-0.230
2020/01/31 15:09:32.1	359.650	0.260	-0.010	-0.220
2020/01/31 15:09:32.2	359.660	0.240	0.020	-0.210
2020/01/31 15:09:32.3	359.680	0.220	0.040	-0.210
2020/01/31 15:09:32.4	359.690	0.210	0.060	-0.210
2020/01/31 15:09:32.5	359.700	0.190	0.070	-0.210
2020/01/31 15:09:32.6	359.710	0.180	0.080	-0.210
2020/01/31 15:09:32.7	359.710	0.170	0.100	-0.210
2020/01/31 15:09:32.8	359.720	0.150	0.100	-0.200
2020/01/31 15:09:32.9	359.720	0.140	0.110	-0.200
2020/01/31 15:09:33.0	359.720	0.140	0.120	-0.190
2020/01/31 15:09:33.1	359.710	0.130	0.130	-0.180
2020/01/31 15:09:33.2	359.700	0.120	0.140	-0.170
2020/01/31 15:09:33.3	359.680	0.110	0.150	-0.150
2020/01/31 15:09:33.4	359.660	0.110	0.160	-0.130
2020/01/31 15:09:33.5	359.630	0.100	0.170	-0.120
2020/01/31 15:09:33.6	359.610	0.090	0.180	-0.090
2020/01/31 15:09:33.7	359.570	0.080	0.200	-0.070
2020/01/31 15:09:33.8	359.530	0.080	0.210	-0.050
2020/01/31 15:09:33.9	359.480	0.070	0.220	-0.030
2020/01/31 15:09:34.0	359.430	0.060	0.240	-0.010
2020/01/31 15:09:34.1	359.380	0.050	0.250	0.010
2020/01/31 15:09:34.2	359.320	0.030	0.270	0.030
2020/01/31 15:09:34.3	359.260	0.020	0.280	0.050
2020/01/31 15:09:34.4	359.200	0.000	0.300	0.060
2020/01/31 15:09:34.5	359.130	-0.010	0.310	0.070
2020/01/31 15:09:34.6	359.060	-0.030	0.320	0.080
2020/01/31 15:09:34.7	358.990	-0.050	0.330	0.090
2020/01/31 15:09:34.8	358.920	-0.070	0.340	0.100
2020/01/31 15:09:34.9	358.840	-0.090	0.350	0.100
2020/01/31 15:09:35.0	358.770	-0.110	0.360	0.100
2020/01/31 15:09:35.1	358.690	-0.130	0.360	0.100
2020/01/31 15:09:35.2	358.610	-0.150	0.360	0.090
2020/01/31 15:09:35.3	358.540	-0.170	0.360	0.080
2020/01/31 15:09:35.4	358.460	-0.200	0.360	0.070
2020/01/31 15:09:35.5	358.380	-0.220	0.350	0.060
2020/01/31 15:09:35.6	358.290	-0.240	0.340	0.030
2020/01/31 15:09:35.7	358.220	-0.260	0.320	0.010
2020/01/31 15:09:35.8	358.150	-0.270	0.300	-0.010
2020/01/31 15:09:35.9	358.080	-0.290	0.280	-0.040
2020/01/31 15:09:36.0	358.020	-0.300	0.250	-0.070
2020/01/31 15:09:36.1	357.960	-0.310	0.220	-0.100
2020/01/31 15:09:36.2	357.900	-0.320	0.180	-0.140
2020/01/31 15:09:36.3	357.840	-0.330	0.140	-0.170
2020/01/31 15:09:36.4	357.790	-0.330	0.100	-0.210
2020/01/31 15:09:36.5	357.740	-0.330	0.050	-0.250
2020/01/31 15:09:36.6	357.670	-0.330	0.010	-0.300
2020/01/31 15:09:36.7	357.630	-0.330	-0.040	-0.350
2020/01/31 15:09:36.8	357.590	-0.320	-0.090	-0.390
2020/01/31 15:09:36.9	357.550	-0.310	-0.150	-0.430
2020/01/31 15:09:37.0	357.520	-0.300	-0.200	-0.480
2020/01/31 15:09:37.1	357.480	-0.280	-0.250	-0.520
2020/01/31 15:09:37.2	357.450	-0.270	-0.300	-0.560
2020/01/31 15:09:37.3	357.430	-0.250	-0.350	-0.600
2020/01/31 15:09:37.4	357.400	-0.230	-0.400	-0.640
2020/01/31 15:09:37.5	357.380	-0.210	-0.450	-0.670
2020/01/31 15:09:37.6	357.360	-0.180	-0.490	-0.710
2020/01/31 15:09:37.7	357.350	-0.160	-0.530	-0.740
2020/01/31 15:09:37.8	357.330	-0.130	-0.570	-0.770
2020/01/31 15:09:37.9	357.320	-0.110	-0.600	-0.800
2020/01/31 15:09:38.0	357.310	-0.080	-0.630	-0.820
2020/01/31 15:09:38.1	357.310	-0.060	-0.660	-0.850
2020/01/31 15:09:38.2	357.310	-0.030	-0.680	-0.870
2020/01/31 15:09:38.3	357.310	-0.010	-0.700	-0.890
2020/01/31 15:09:38.4	357.310	0.020	-0.710	-0.900
2020/01/31 15:09:38.5	357.310	0.040	-0.720	-0.920
2020/01/31 15:09:38.6	357.320	0.070	-0.720	-0.920
2020/01/31 15:09:38.7	357.330	0.090	-0.730	-0.930
2020/01/31 15:09:38.8	357.330	0.110	-0.730	-0.940
2020/01/31 15:09:38.9	357.340	0.130	-0.720	-0.940
2020/01/31 15:09:39.0	357.350	0.140	-0.710	-0.940
2020/01/31 15:09:39.1	357.350	0.160	-0.700	-0.930
2020/01/31 15:09:39.2	357.360	0.170	-0.690	-0.930
2020/01/31 15:09:39.3	357.370	0.180	-0.680	-0.920
2020/01/31 15:09:39.4	357.370	0.190	-0.660	-0.910
2020/01/31 15:09:39.5	357.380	0.190	-0.640	-0.890
2020/01/31 15:09:39.6	357.380	0.190	-0.620	-0.880
2020/01/31 15:09:39.7	357.390	0.200	-0.600	-0.860
2020/01/31 15:09:39.8	357.390	0.190	-0.570	-0.840
2020/01/31 15:09:39.9	357.400	0.190	-0.550	-0.820
2020/01/31 15:09:40.0	357.410	0.180	-0.520	-0.800
2020/01/31 15:09:40.1	357.410	0.180	-0.490	-0.780
2020/01/31 15:09:40.2	357.420	0.170	-0.470	-0.750
2020/01/31 15:09:40.3	357.420	0.160	-0.440	-0.730
2020/01/31 15:09:40.4	357.430	0.140	-0.410	-0.700
2020/01/31 15:09:40.5	357.430	0.130	-0.380	-0.670
2020/01/31 15:09:40.6	357.440	0.110	-0.350	-0.640
2020/01/31 15:09:40.7	357.440	0.090	-0.330	-0.610
2020/01/31 15:09:40.8	357.440	0.080	-0.300	-0.580
2020/01/31 15:09:40.9	357.440	0.060	-0.270	-0.550
2020/01/31 15:09:41.0	357.440	0.040	-0.250	-0.520
2020/01/31 15:09:41.1	357.430	0.020	-0.220	-0.490
2020/01/31 15:09:41.2	357.430	-0.000	-0.200	-0.450
2020/01/31 15:09:41.3	357.420	-0.020	-0.170	-0.420
2020/01/31 15:09:41.4	357.410	-0.040	-0.150	-0.380
2020/01/31 15:09:41.5	357.400	-0.060	-0.130	-0.340
2020/01/31 15:09:41.6	357.370	-0.080	-0.100	-0.300
2020/01/31 15:09:41.7	357.350	-0.100	-0.080	-0.260
2020/01/31 15:09:41.8	357.330	-0.120	-0.060	-0.220
2020/01/31 15:09:41.9	357.300	-0.140	-0.050	-0.180
2020/01/31 15:09:42.0	357.270	-0.150	-0.030	-0.140
2020/01/31 15:09:42.1	357.240	-0.170	-0.010	-0.100
2020/01/31 15:09:42.2	357.200	-0.180	0.000	-0.060
2020/01/31 15:09:42.3	357.160	-0.190	0.020	-0.020
2020/01/31 15:09:42.4	357.110	-0.200	0.030	0.030
2020/01/31 15:09:42.5	357.060	-0.210	0.040	0.070
2020/01/31 15:09:42.6	357.030	-0.220	0.050	0.120
2020/01/31 15:09:42.7	356.970	-0.220	0.060	0.160
2020/01/31 15:09:42.8	356.920	-0.220	0.060	0.200
2020/01/31 15:09:42.9	356.870	-0.220	0.070	0.240
2020/01/31 15:09:43.0	356.810	-0.220	0.070	0.280
2020/01/31 15:09:43.1	356.750	-0.210	0.070	0.320
2020/01/31 15:09:43.2	356.690	-0.200	0.070	0.360
2020/01/31 15:09:43.3	356.630	-0.190	0.060	0.400
2020/01/31 15:09:43.4	356.580	-0.180	0.050	0.430
2020/01/31 15:09:43.5	356.520	-0.170	0.040	0.460
2020/01/31 15:09:43.6	356.470	-0.150	0.030	0.490
2020/01/31 15:09:43.7	356.420	-0.130	0.020	0.520
2020/01/31 15:09:43.8	356.370	-0.110	0.010	0.550
2020/01/31 15:09:43.9	356.310	-0.090	-0.010	0.570
2020/01/31 15:09:44.0	356.260	-0.070	-0.030	0.590
2020/01/31 15:09:44.1	356.220	-0.040	-0.050	0.610
2020/01/31 15:09:44.2	356.170	-0.020	-0.070	0.620
2020/01/31 15:09:44.3	356.130	0.010	-0.090	0.630
2020/01/31 15:09:44.4	356.090	0.030	-0.120	0.630
2020/01/31 15:09:44.5	356.050	0.060	-0.140	0.630
2020/01/31 15:09:44.6	356.010	0.080	-0.160	0.630
2020/01/31 15:09:44.7	355.980	0.110	-0.190	0.620
2020/01/31 15:09:44.8	355.950	0.130	-0.210	0.600
2020/01/31 15:09:44.9	355.920	0.150	-0.240	0.580
2020/01/31 15:09:45.0	355.890	0.180	-0.260	0.560
2020/01/31 15:09:45.1	355.870	0.190	-0.290	0.540
2020/01/31 15:09:45.2	355.840	0.210	-0.310	0.520
2020/01/31 15:09:45.3	355.820	0.230	-0.330	0.490
2020/01/31 15:09:45.4	355.800	0.240	-0.350	0.460
2020/01/31 15:09:45.5	355.780	0.250	-0.370	0.430
2020/01/31 15:09:45.6	355.770	0.260	-0.390	0.400
2020/01/31 15:09:45.7	355.750	0.270	-0.400	0.370
2020/01/31 15:09:45.8	355.730	0.270	-0.420	0.340
2020/01/31 15:09:45.9	355.710	0.270	-0.430	0.310
2020/01/31 15:09:46.0	355.690	0.270	-0.440	0.280
2020/01/31 15:09:46.1	355.670	0.260	-0.450	0.240
2020/01/31 15:09:46.2	355.650	0.250	-0.460	0.210
2020/01/31 15:09:46.3	355.630	0.240	-0.460	0.170
2020/01/31 15:09:46.4	355.610	0.230	-0.470	0.140
2020/01/31 15:09:46.5	355.600	0.220	-0.470	0.100
2020/01/31 15:09:46.6	355.600	0.200	-0.470	0.060
2020/01/31 15:09:46.7	355.590	0.180	-0.470	0.020
2020/01/31 15:09:46.8	355.580	0.160	-0.470	-0.020
2020/01/31 15:09:46.9	355.560	0.140	-0.470	-0.060
2020/01/31 15:09:47.0	355.550	0.120	-0.470	-0.100
2020/01/31 15:09:47.1	355.550	0.100	-0.470	-0.140
2020/01/31 15:09:47.2	355.540	0.070	-0.460	-0.180
2020/01/31 15:09:47.3	355.530	0.050	-0.460	-0.230
2020/01/31 15:09:47.4	355.530	0.030	-0.460	-0.270
2020/01/31 15:09:47.5	355.520	0.010	-0.460	-0.310
2020/01/31 15:09:47.6	355.520	-0.010	-0.450	-0.350
2020/01/31 15:09:47.7	355.520	-0.030	-0.450	-0.380
2020/01/31 15:09:47.8	355.510	-0.050	-0.440	-0.410
2020/01/31 15:09:47.9	355.510	-0.060	-0.440	-0.440
2020/01/31 15:09:48.0	355.500	-0.080	-0.430	-0.470
2020/01/31 15:09:48.1	355.490	-0.090	-0.420	-0.490
2020/01/31 15:09:48.2	355.480	-0.100	-0.410	-0.510
2020/01/31 15:09:48.3	355.470	-0.110	-0.400	-0.520
2020/01/31 15:09:48.4	355.460	-0.110	-0.390	-0.530
2020/01/31 15:09:48.5	355.440	-0.120	-0.370	-0.540
2020/01/31 15:09:48.6	355.440	-0.120	-0.360	-0.540
2020/01/31 15:09:48.7	355.420	-0.120	-0.340	-0.540
2020/01/31 15:09:48.8	355.390	-0.120	-0.330	-0.530
2020/01/31 15:09:48.9	355.370	-0.120	-0.310	-0.520
2020/01/31 15:09:49.0	355.350	-0.120	-0.290	-0.510
2020/01/31 15:09:49.1	355.320	-0.110	-0.270	-0.490
2020/01/31 15:09:49.2	355.290	-0.110	-0.250	-0.470
2020/01/31 15:09:49.3	355.260	-0.100	-0.230	-0.440
2020/01/31 15:09:49.4	355.230	-0.090	-0.210	-0.410
2020/01/31 15:09:49.5	355.190	-0.080	-0.190	-0.380
2020/01/31 15:09:49.6	355.160	-0.070	-0.170	-0.350
2020/01/31 15:09:49.7	355.120	-0.050	-0.150	-0.310
2020/01/31 15:09:49.8	355.080	-0.040	-0.130	-0.270
2020/01/31 15:09:49.9	355.040	-0.020	-0.120	-0.230
2020/01/31 15:09:50.0	355.000	-0.010	-0.100	-0.190
2020/01/31 15:09:50.1	354.960	0.010	-0.090	-0.150
2020/01/31 15:09:50.2	354.920	0.030	-0.070	-0.110
2020/01/31 15:09:50.3	354.870	0.050	-0.060	-0.060
2020/01/31 15:09:50.4	354.830	0.060	-0.050	-0.020
2020/01/31 15:09:50.5	354.780	0.080	-0.050	0.020
2020/01/31 15:09:50.6	354.750	0.100	-0.040	0.070
2020/01/31 15:09:50.7	354.710	0.120	-0.030	0.110
2020/01/31 15:09:50.8	354.660	0.140	-0.030	0.160
2020/01/31 15:09:50.9	354.620	0.160	-0.030	0.200
2020/01/31 15:09:51.0	354.580	0.180	-0.030	0.250
2020/01/31 15:09:51.1	354.530	0.200	-0.040	0.290
2020/01/31 15:09:51.2	354.490	0.220	-0.040	0.330
2020/01/31 15:09:51.3	354.450	0.240	-0.050	0.370
2020/01/31 15:09:51.4	354.410	0.260	-0.060	0.400
2020/01/31 15:09:51.5	354.370	0.280	-0.070	0.440
2020/01/31 15:09:51.6	354.340	0.300	-0.090	0.470
2020/01/31 15:09:51.7	354.310	0.310	-0.100	0.500
2020/01/31 15:09:51.8	354.270	0.320	-0.120	0.520
2020/01/31 15:09:51.9	354.240	0.340	-0.140	0.540
2020/01/31 15:09:52.0	354.210	0.350	-0.160	0.560
2020/01/31 15:09:52.1	354.170	0.350	-0.180	0.570
2020/01/31 15:09:52.2	354.140	0.360	-0.200	0.580
2020/01/31 15:09:52.3	354.120	0.360	-0.220	0.580
2020/01/31 15:09:52.4	354.090	0.360	-0.240	0.580
2020/01/31 15:09:52.5	354.060	0.350	-0.260	0.570
2020/01/31 15:09:52.6	354.050	0.350	-0.270	0.560
2020/01/31 15:09:52.7	354.020	0.330	-0.290	0.550
2020/01/31 15:09:52.8	354.000	0.320	-0.310	0.530
2020/01/31 15:09:52.9	353.980	0.300	-0.330	0.510
2020/01/31 15:09:53.0	353.950	0.280	-0.340	0.480
2020/01/31 15:09:53.1	353.930	0.250	-0.350	0.460
2020/01/31 15:09:53.2	353.910	0.220	-0.360	0.430
2020/01/31 15:09:53.3	353.890	0.190	-0.370	0.400
2020/01/31 15:09:53.4	353.870	0.160	-0.380	0.370
2020/01/31 15:09:53.5	353.860	0.120	-0.380	0.330
2020/01/31 15:09:53.6	353.840	0.080	-0.380	0.300
2020/01/31 15:09:53.7	353.820	0.040	-0.390	0.260
2020/01/31 15:09:53.8	353.810	-0.000	-0.390	0.230
2020/01/31 15:09:53.9	353.790	-0.050	-0.380	0.190
2020/01/31 15:09:54.0	353.780	-0.090	-0.380	0.160
2020/01/31 15:09:54.1	353.770	-0.140	-0.370	0.120
2020/01/31 15:09:54.2	353.760	-0.180	-0.370	0.080
2020/01/31 15:09:54.3	353.750	-0.230	-0.360	0.050
2020/01/31 15:09:54.4	353.740	-0.280	-0.350	0.010
2020/01/31 15:09:54.5	353.740	-0.320	-0.340	-0.020
2020/01/31 15:09:54.6	353.740	-0.360	-0.330	-0.060
2020/01/31 15:09:54.7	353.730	-0.400	-0.320	-0.100
2020/01/31 15:09:54.8	353.730	-0.440	-0.300	-0.130
2020/01/31 15:09:54.9	353.720	-0.480	-0.290	-0.160
2020/01/31 15:09:55.0	353.710	-0.520	-0.270	-0.190
2020/01/31 15:09:55.1	353.710	-0.550	-0.260	-0.220
2020/01/31 15:09:55.2	353.700	-0.580	-0.240	-0.250
2020/01/31 15:09:55.3	353.700	-0.600	-0.230	-0.270
2020/01/31 15:09:55.4	353.690	-0.630	-0.210	-0.300
2020/01/31 15:09:55.5	353.680	-0.650	-0.190	-0.320
2020/01/31 15:09:55.6	353.680	-0.660	-0.180	-0.340
2020/01/31 15:09:55.7	353.670	-0.670	-0.160	-0.350
2020/01/31 15:09:55.8	353.650	-0.680	-0.140	-0.370
2020/01/31 15:09:55.9	353.640	-0.690	-0.130	-0.380
2020/01/31 15:09:56.0	353.620	-0.690	-0.110	-0.390
2020/01/31 15:09:56.1	353.590	-0.690	-0.100	-0.400
2020/01/31 15:09:56.2	353.570	-0.680	-0.080	-0.400
2020/01/31 15:09:56.3	353.540	-0.680	-0.070	-0.400
2020/01/31 15:09:56.4	353.510	-0.660	-0.050	-0.390
2020/01/31 15:09:56.5	353.470	-0.650	-0.040	-0.380
2020/01/31 15:09:56.6	353.420	-0.630	-0.020	-0.370
2020/01/31 15:09:56.7	353.380	-0.610	-0.010	-0.350
2020/01/31 15:09:56.8	353.330	-0.580	0.010	-0.330
2020/01/31 15:09:56.9	353.280	-0.550	0.020	-0.300
2020/01/31 15:09:57.0	353.220	-0.520	0.030	-0.260
2020/01/31 15:09:57.1	353.160	-0.490	0.050	-0.230
2020/01/31 15:09:57.2	353.100	-0.450	0.060	-0.180
2020/01/31 15:09:57.3	353.030	-0.410	0.070	-0.140
2020/01/31 15:09:57.4	352.960	-0.370	0.080	-0.090
2020/01/31 15:09:57.5	352.890	-0.330	0.080	-0.040
2020/01/31 15:09:57.6	352.810	-0.290	0.090	0.020
2020/01/31 15:09:57.7	352.730	-0.240	0.100	0.080
2020/01/31 15:09:57.8	352.660	-0.200	0.100	0.130
2020/01/31 15:09:57.9	352.580	-0.150	0.100	0.190
2020/01/31 15:09:58.0	352.510	-0.100	0.100	0.240
2020/01/31 15:09:58.1	352.430	-0.050	0.090	0.300
2020/01/31 15:09:58.2	352.360	-0.000	0.080	0.350
2020/01/31 15:09:58.3	352.290	0.050	0.070	0.410
2020/01/31 15:09:58.4	352.220	0.100	0.060	0.460
2020/01/31 15:09:58.5	352.150	0.140	0.040	0.510
2020/01/31 15:09:58.6	352.080	0.190	0.020	0.550
2020/01/31 15:09:58.7	352.010	0.240	-0.010	0.600
2020/01/31 15:09:58.8	351.950	0.290	-0.030	0.650
2020/01/31 15:09:58.9	351.890	0.340	-0.060	0.690
2020/01/31 15:09:59.0	351.830	0.380	-0.100	0.730
2020/01/31 15:09:59.1	351.770	0.430	-0.130	0.760
2020/01/31 15:09:59.2	351.710	0.470	-0.170	0.790
2020/01/31 15:09:59.3	351.660	0.510	-0.210	0.820
2020/01/31 15:09:59.4	351.600	0.550	-0.240	0.850
2020/01/31 15:09:59.5	351.550	0.590	-0.280	0.870
2020/01/31 15:09:59.6	351.500	0.620	-0.320	0.900
2020/01/31 15:09:59.7	351.450	0.650	-0.360	0.920
2020/01/31 15:09:59.8	351.400	0.680	-0.390	0.930
2020/01/31 15:09:59.9	351.350	0.710	-0.430	0.950
2020/01/31 15:10:00.0	351.300	0.730	-0.460	0.970
2020/01/31 15:10:00.1	351.260	0.760	-0.500	0.980
2020/01/31 15:10:00.2	351.210	0.770	-0.530	0.990
2020/01/31 15:10:00.3	351.160	0.790	-0.560	1.000
2020/01/31 15:10:00.4	351.120	0.800	-0.590	1.020
2020/01/31 15:10:00.5	351.070	0.810	-0.610	1.020
2020/01/31 15:10:00.6	351.030	0.810	-0.640	1.030
2020/01/31 15:10:00.7	350.990	0.810	-0.660	1.040
2020/01/31 15:10:00.8	350.950	0.810	-0.690	1.040
2020/01/31 15:10:00.9	350.920	0.810	-0.710	1.040
2020/01/31 15:10:01.0	350.880	0.800	-0.730	1.030
2020/01/31 15:10:01.1	350.850	0.790	-0.750	1.030
2020/01/31 15:10:01.2	350.820	0.770	-0.770	1.010
2020/01/31 15:10:01.3	350.800	0.750	-0.790	1.000
2020/01/31 15:10:01.4	350.770	0.730	-0.800	0.980
2020/01/31 15:10:01.5	350.750	0.710	-0.820	0.950
2020/01/31 15:10:01.6	350.730	0.680	-0.830	0.920
2020/01/31 15:10:01.7	350.720	0.650	-0.850	0.890
2020/01/31 15:10:01.8	350.700	0.620	-0.860	0.850
2020/01/31 15:10:01.9	350.700	0.590	-0.870	0.810
2020/01/31 15:10:02.0	350.690	0.550	-0.880	0.770
2020/01/31 15:10:02.1	350.690	0.520	-0.890	0.720
2020/01/31 15:10:02.2	350.690	0.480	-0.900	0.670
2020/01/31 15:10:02.3	350.690	0.450	-0.910	0.620
2020/01/31 15:10:02.4	350.690	0.410	-0.910	0.570
2020/01/31 15:10:02.5	350.700	0.370	-0.910	0.510
2020/01/31 15:10:02.6	350.710	0.330	-0.900	0.460
2020/01/31 15:10:02.7	350.720	0.290	-0.900	0.400
2020/01/31 15:10:02.8	350.730	0.260	-0.890	0.350
2020/01/31 15:10:02.9	350.730	0.220	-0.870	0.290
2020/01/31 15:10:03.0	350.740	0.180	-0.860	0.240
2020/01/31 15:10:03.1	350.750	0.150	-0.830	0.190
2020/01/31 15:10:03.2	350.760	0.110	-0.810	0.140
2020/01/31 15:10:03.3	350.770	0.080	-0.770	0.100
2020/01/31 15:10:03.4	350.780	0.040	-0.740	0.050
2020/01/31 15:10:03.5	350.780	0.010	-0.700	0.010
2020/01/31 15:10:03.6	350.780	-0.020	-0.650	-0.030
2020/01/31 15:10:03.7	350.790	-0.050	-0.600	-0.060
2020/01/31 15:10:03.8	350.790	-0.080	-0.550	-0.090
2020/01/31 15:10:03.9	350.790	-0.110	-0.500	-0.120
2020/01/31 15:10:04.0	350.780	-0.140	-0.440	-0.140
2020/01/31 15:10:04.1	350.780	-0.170	-0.370	-0.160
2020/01/31 15:10:04.2	350.770	-0.200	-0.310	-0.170
2020/01/31 15:10:04.3	350.750	-0.220	-0.240	-0.180
2020/01/31 15:10:04.4	350.740	-0.250	-0.180	-0.180
2020/01/31 15:10:04.5	350.720	-0.270	-0.110	-0.190
2020/01/31 15:10:04.6	350.690	-0.300	-0.030	-0.180
2020/01/31 15:10:04.7	350.660	-0.320	0.040	-0.170
2020/01/31 15:10:04.8	350.630	-0.340	0.100	-0.160
2020/01/31 15:10:04.9	350.600	-0.360	0.170	-0.150
2020/01/31 15:10:05.0	350.560	-0.380	0.240	-0.130
2020/01/31 15:10:05.1	350.520	-0.400	0.310	-0.110
2020/01/31 15:10:05.2	350.480	-0.420	0.370	-0.080
2020/01/31 15:10:05.3	350.430	-0.440	0.430	-0.060
2020/01/31 15:10:05.4	350.370	-0.450	0.490	-0.030
2020/01/31 15:10:05.5	350.320	-0.470	0.540	0.010
2020/01/31 15:10:05.6	350.250	-0.480	0.590	0.040
2020/01/31 15:10:05.7	350.190	-0.490	0.640	0.080
2020/01/31 15:10:05.8	350.120	-0.510	0.680	0.110
2020/01/31 15:10:05.9	350.050	-0.520	0.710	0.150
2020/01/31 15:10:06.0	349.980	-0.530	0.740	0.190
2020/01/31 15:10:06.1	349.910	-0.540	0.770	0.230
2020/01/31 15:10:06.2	349.840	-0.540	0.790	0.270
2020/01/31 15:10:06.3	349.760	-0.550	0.800	0.310
2020/01/31 15:10:06.4	349.690	-0.560	0.810	0.350
2020/01/31 15:10:06.5	349.610	-0.560	0.810	0.380
2020/01/31 15:10:06.6	349.550	-0.570	0.810	0.420
2020/01/31 15:10:06.7	349.470	-0.570	0.790	0.450
2020/01/31 15:10:06.8	349.390	-0.570	0.780	0.490
2020/01/31 15:10:06.9	349.320	-0.570	0.750	0.520
2020/01/31 15:10:07.0	349.240	-0.560	0.720	0.550
2020/01/31 15:10:07.1	349.170	-0.560	0.690	0.580
2020/01/31 15:10:07.2	349.100	-0.550	0.650	0.610
2020/01/31 15:10:07.3	349.030	-0.550	0.600	0.640
2020/01/31 15:10:07.4	348.960	-0.540	0.550	0.660
2020/01/31 15:10:07.5	348.890	-0.520	0.500	0.690
2020/01/31 15:10:07.6	348.840	-0.510	0.440	0.710
2020/01/31 15:10:07.7	348.780	-0.490	0.380	0.740
2020/01/31 15:10:07.8	348.720	-0.480	0.320	0.760
2020/01/31 15:10:07.9	348.660	-0.460	0.250	0.770
2020/01/31 15:10:08.0	348.600	-0.430	0.180	0.790
2020/01/31 15:10:08.1	348.550	-0.410	0.110	0.810
2020/01/31 15:10:08.2	348.500	-0.380	0.040	0.820
2020/01/31 15:10:08.3	348.450	-0.360	-0.030	0.830
2020/01/31 15:10:08.4	348.410	-0.330	-0.100	0.830
2020/01/31 15:10:08.5	348.370	-0.300	-0.170	0.840
2020/01/31 15:10:08.6	348.330	-0.270	-0.230	0.840
2020/01/31 15:10:08.7	348.300	-0.230	-0.300	0.840
2020/01/31 15:10:08.8	348.260	-0.200	-0.370	0.840
2020/01/31 15:10:08.9	348.230	-0.160	-0.430	0.840
2020/01/31 15:10:09.0	348.210	-0.130	-0.490	0.830
2020/01/31 15:10:09.1	348.180	-0.090	-0.550	0.830
2020/01/31 15:10:09.2	348.160	-0.060	-0.600	0.820
2020/01/31 15:10:09.3	348.130	-0.020	-0.650	0.820
2020/01/31 15:10:09.4	348.110	0.010	-0.700	0.810
2020/01/31 15:10:09.5	348.090	0.040	-0.740	0.810
2020/01/31 15:10:09.6	348.070	0.070	-0.770	0.810
2020/01/31 15:10:09.7	348.050	0.100	-0.800	0.810
2020/01/31 15:10:09.8	348.030	0.130	-0.820	0.810
2020/01/31 15:10:09.9	348.010	0.160	-0.840	0.810
2020/01/31 15:10:10.0	347.990	0.180	-0.850	0.810
2020/01/31 15:10:10.1	347.970	0.200	-0.860	0.810
2020/01/31 15:10:10.2	347.950	0.210	-0.860	0.810
2020/01/31 15:10:10.3	347.930	0.230	-0.860	0.820
2020/01/31 15:10:10.4	347.910	0.240	-0.860	0.820
2020/01/31 15:10:10.5	347.900	0.250	-0.850	0.820
2020/01/31 15:10:10.6	347.890	0.260	-0.840	0.820
2020/01/31 15:10:10.7	347.880	0.260	-0.830	0.820
2020/01/31 15:10:10.8	347.860	0.260	-0.810	0.820
2020/01/31 15:10:10.9	347.850	0.260	-0.790	0.820
2020/01/31 15:10:11.0	347.840	0.250	-0.770	0.820
2020/01/31 15:10:11.1	347.830	0.250	-0.760	0.820
2020/01/31 15:10:11.2	347.820	0.240	-0.730	0.810
2020/01/31 15:10:11.3	347.820	0.230	-0.710	0.810
2020/01/31 15:10:11.4	347.810	0.220	-0.690	0.800
2020/01/31 15:10:11.5	347.810	0.220	-0.670	0.790
2020/01/31 15:10:11.6	347.810	0.200	-0.650	0.780
2020/01/31 15:10:11.7	347.810	0.190	-0.630	0.760
2020/01/31 15:10:11.8	347.810	0.180	-0.610	0.750
2020/01/31 15:10:11.9	347.820	0.170	-0.590	0.740
2020/01/31 15:10:12.0	347.830	0.170	-0.580	0.720
2020/01/31 15:10:12.1	347.830	0.160	-0.560	0.710
2020/01/31 15:10:12.2	347.840	0.150	-0.550	0.700
2020/01/31 15:10:12.3	347.850	0.140	-0.530	0.680
2020/01/31 15:10:12.4	347.860	0.140	-0.520	0.670
2020/01/31 15:10:12.5	347.870	0.140	-0.500	0.650
2020/01/31 15:10:12.6	347.870	0.140	-0.490	0.640
2020/01/31 15:10:12.7	347.880	0.140	-0.480	0.620
2020/01/31 15:10:12.8	347.880	0.140	-0.470	0.610
2020/01/31 15:10:12.9	347.890	0.140	-0.450	0.590
2020/01/31 15:10:13.0	347.900	0.140	-0.440	0.580
2020/01/31 15:10:13.1	347.900	0.150	-0.430	0.570
2020/01/31 15:10:13.2	347.910	0.160	-0.420	0.560
2020/01/31 15:10:13.3	347.910	0.170	-0.410	0.550
2020/01/31 15:10:13.4	347.900	0.180	-0.400	0.540
2020/01/31 15:10:13.5	347.900	0.180	-0.390	0.540
2020/01/31 15:10:13.6	347.890	0.200	-0.380	0.530
2020/01/31 15:10:13.7	347.880	0.210	-0.370	0.530
2020/01/31 15:10:13.8	347.870	0.220	-0.360	0.530
2020/01/31 15:10:13.9	347.860	0.230	-0.360	0.530
2020/01/31 15:10:14.0	347.840	0.240	-0.350	0.530
2020/01/31 15:10:14.1	347.830	0.250	-0.350	0.530
2020/01/31 15:10:14.2	347.810	0.260	-0.340	0.530
2020/01/31 15:10:14.3	347.790	0.270	-0.340	0.530
2020/01/31 15:10:14.4	347.770	0.280	-0.340	0.530
2020/01/31 15:10:14.5	347.750	0.290	-0.340	0.530
2020/01/31 15:10:14.6	347.730	0.300	-0.340	0.530
2020/01/31 15:10:14.7	347.710	0.300	-0.340	0.530
2020/01/31 15:10:14.8	347.690	0.310	-0.340	0.530
2020/01/31 15:10:14.9	347.670	0.310	-0.340	0.520
2020/01/31 15:10:15.0	347.660	0.320	-0.340	0.520
2020/01/31 15:10:15.1	347.640	0.320	-0.340	0.520
2020/01/31 15:10:15.2	347.620	0.320	-0.340	0.510
2020/01/31 15:10:15.3	347.600	0.310	-0.340	0.510
2020/01/31 15:10:15.4	347.590	0.310	-0.340	0.500
2020/01/31 15:10:15.5	347.570	0.310	-0.340	0.500
2020/01/31 15:10:15.6	347.570	0.300	-0.330	0.490
2020/01/31 15:10:15.7	347.550	0.290	-0.320	0.490
2020/01/31 15:10:15.8	347.540	0.280	-0.320	0.490
2020/01/31 15:10:15.9	347.530	0.270	-0.310	0.490
2020/01/31 15:10:16.0	347.520	0.260	-0.290	0.490
2020/01/31 15:10:16.1	347.500	0.240	-0.280	0.500
2020/01/31 15:10:16.2	347.490	0.230	-0.260	0.500
2020/01/31 15:10:16.3	347.480	0.210	-0.240	0.510
2020/01/31 15:10:16.4	347.460	0.190	-0.210	0.520
2020/01/31 15:10:16.5	347.450	0.170	-0.180	0.530
2020/01/31 15:10:16.6	347.430	0.150	-0.150	0.540
2020/01/31 15:10:16.7	347.410	0.120	-0.120	0.560
2020/01/31 15:10:16.8	347.390	0.090	-0.080	0.570
2020/01/31 15:10:16.9	347.360	0.070	-0.040	0.590
2020/01/31 15:10:17.0	347.340	0.040	0.010	0.600
2020/01/31 15:10:17.1	347.310	0.010	0.050	0.620
2020/01/31 15:10:17.2	347.270	-0.030	0.100	0.630
2020/01/31 15:10:17.3	347.240	-0.060	0.150	0.650
2020/01/31 15:10:17.4	347.200	-0.090	0.200	0.660
2020/01/31 15:10:17.5	347.160	-0.130	0.250	0.680
2020/01/31 15:10:17.6	347.100	-0.160	0.290	0.690
2020/01/31 15:10:17.7	347.050	-0.190	0.340	0.700
2020/01/31 15:10:17.8	347.010	-0.220	0.390	0.720
2020/01/31 15:10:17.9	346.960	-0.250	0.430	0.730
2020/01/31 15:10:18.0	346.910	-0.280	0.470	0.730
2020/01/31 15:10:18.1	346.860	-0.310	0.500	0.740
2020/01/31 15:10:18.2	346.810	-0.330	0.540	0.750
2020/01/31 15:10:18.3	346.760	-0.360	0.560	0.750
2020/01/31 15:10:18.4	346.710	-0.380	0.580	0.760
2020/01/31 15:10:18.5	346.670	-0.400	0.600	0.760
2020/01/31 15:10:18.6	346.630	-0.410	0.610	0.760
2020/01/31 15:10:18.7	346.590	-0.420	0.610	0.750
2020/01/31 15:10:18.8	346.550	-0.430	0.600	0.750
2020/01/31 15:10:18.9	346.520	-0.430	0.580	0.740
2020/01/31 15:10:19.0	346.480	-0.430	0.560	0.730
2020/01/31 15:10:19.1	346.460	-0.430	0.530	0.720
2020/01/31 15:10:19.2	346.430	-0.420	0.490	0.710
2020/01/31 15:10:19.3	346.410	-0.400	0.440	0.700
2020/01/31 15:10:19.4	346.390	-0.380	0.390	0.680
2020/01/31 15:10:19.5	346.380	-0.360	0.330	0.660
2020/01/31 15:10:19.6	346.360	-0.340	0.260	0.630
2020/01/31 15:10:19.7	346.360	-0.310	0.190	0.610
2020/01/31 15:10:19.8	346.350	-0.280	0.120	0.580
2020/01/31 15:10:19.9	346.350	-0.250	0.040	0.550
2020/01/31 15:10:20.0	346.350	-0.210	-0.040	0.520
2020/01/31 15:10:20.1	346.350	-0.180	-0.130	0.490
2020/01/31 15:10:20.2	346.350	-0.140	-0.210	0.450
2020/01/31 15:10:20.3	346.350	-0.100	-0.290	0.420
2020/01/31 15:10:20.4	346.350	-0.070	-0.370	0.390
2020/01/31 15:10:20.5	346.350	-0.030	-0.450	0.350
2020/01/31 15:10:20.6	346.350	0.000	-0.520	0.320
2020/01/31 15:10:20.7	346.350	0.030	-0.590	0.290
2020/01/31 15:10:20.8	346.350	0.070	-0.650	0.260
2020/01/31 15:10:20.9	346.350	0.090	-0.710	0.230
2020/01/31 15:10:21.0	346.340	0.120	-0.770	0.210
2020/01/31 15:10:21.1	346.340	0.140	-0.820	0.190
2020/01/31 15:10:21.2	346.340	0.160	-0.860	0.170
2020/01/31 15:10:21.3	346.330	0.180	-0.900	0.150
2020/01/31 15:10:21.4	346.330	0.190	-0.920	0.130
2020/01/31 15:10:21.5	346.320	0.200	-0.950	0.120
2020/01/31 15:10:21.6	346.320	0.200	-0.960	0.110
2020/01/31 15:10:21.7	346.310	0.200	-0.970	0.100
2020/01/31 15:10:21.8	346.300	0.200	-0.970	0.100
2020/01/31 15:10:21.9	346.300	0.200	-0.970	0.100
2020/01/31 15:10:22.0	346.300	0.190	-0.960	0.100
2020/01/31 15:10:22.1	346.290	0.170	-0.940	0.100
2020/01/31 15:10:22.2	346.290	0.160	-0.920	0.100
2020/01/31 15:10:22.3	346.290	0.140	-0.900	0.100
2020/01/31 15:10:22.4	346.290	0.120	-0.870	0.110
2020/01/31 15:10:22.5	346.290	0.090	-0.840	0.110
2020/01/31 15:10:22.6	346.300	0.070	-0.800	0.120
2020/01/31 15:10:22.7	346.300	0.040	-0.760	0.130
2020/01/31 15:10:22.8	346.310	0.010	-0.720	0.130
2020/01/31 15:10:22.9	346.310	-0.020	-0.680	0.140
2020/01/31 15:10:23.0	346.310	-0.050	-0.630	0.140
2020/01/31 15:10:23.1	346.310	-0.080	-0.590	0.150
2020/01/31 15:10:23.2	346.310	-0.110	-0.540	0.160
2020/01/31 15:10:23.3	346.300	-0.140	-0.490	0.170
2020/01/31 15:10:23.4	346.300	-0.160	-0.440	0.190
2020/01/31 15:10:23.5	346.290	-0.190	-0.390	0.210
2020/01/31 15:10:23.6	346.280	-0.220	-0.340	0.230
2020/01/31 15:10:23.7	346.260	-0.240	-0.280	0.250
2020/01/31 15:10:23.8	346.240	-0.260	-0.230	0.280
2020/01/31 15:10:23.9	346.220	-0.280	-0.170	0.320
2020/01/31 15:10:24.0	346.200	-0.300	-0.120	0.350
2020/01/31 15:10:24.1	346.170	-0.310	-0.060	0.390
2020/01/31 15:10:24.2	346.140	-0.330	-0.010	0.430
2020/01/31 15:10:24.3	346.100	-0.340	0.040	0.470
2020/01/31 15:10:24.4	346.070	-0.340	0.090	0.510
2020/01/31 15:10:24.5	346.030	-0.340	0.130	0.550
2020/01/31 15:10:24.6	345.990	-0.340	0.180	0.600
2020/01/31 15:10:24.7	345.950	-0.340	0.220	0.640
2020/01/31 15:10:24.8	345.910	-0.330	0.250	0.680
2020/01/31 15:10:24.9	345.870	-0.320	0.280	0.720
2020/01/31 15:10:25.0	345.830	-0.310	0.300	0.760
2020/01/31 15:10:25.1	345.800	-0.300	0.310	0.790
2020/01/31 15:10:25.2	345.760	-0.280	0.320	0.820
2020/01/31 15:10:25.3	345.730	-0.260	0.320	0.850
2020/01/31 15:10:25.4	345.700	-0.240	0.310	0.870
2020/01/31 15:10:25.5	345.680	-0.210	0.290	0.890
2020/01/31 15:10:25.6	345.640	-0.180	0.270	0.910
2020/01/31 15:10:25.7	345.620	-0.150	0.240	0.920
2020/01/31 15:10:25.8	345.600	-0.120	0.200	0.920
2020/01/31 15:10:25.9	345.590	-0.090	0.150	0.920
2020/01/31 15:10:26.0	345.580	-0.060	0.100	0.920
2020/01/31 15:10:26.1	345.570	-0.030	0.050	0.910
2020/01/31 15:10:26.2	345.560	0.010	-0.010	0.900
2020/01/31 15:10:26.3	345.560	0.040	-0.080	0.880
2020/01/31 15:10:26.4	345.550	0.070	-0.140	0.860
2020/01/31 15:10:26.5	345.550	0.110	-0.210	0.840
2020/01/31 15:10:26.6	345.560	0.140	-0.280	0.810
2020/01/31 15:10:26.7	345.560	0.170	-0.350	0.780
2020/01/31 15:10:26.8	345.560	0.190	-0.420	0.750
2020/01/31 15:10:26.9	345.570	0.220	-0.490	0.720
2020/01/31 15:10:27.0	345.570	0.240	-0.550	0.690
2020/01/31 15:10:27.1	345.580	0.260	-0.620	0.650
2020/01/31 15:10:27.2	345.590	0.280	-0.670	0.620
2020/01/31 15:10:27.3	345.600	0.300	-0.720	0.580
2020/01/31 15:10:27.4	345.600	0.310	-0.770	0.540
2020/01/31 15:10:27.5	345.610	0.320	-0.810	0.510
2020/01/31 15:10:27.6	345.610	0.320	-0.840	0.480
2020/01/31 15:10:27.7	345.610	0.330	-0.860	0.440
2020/01/31 15:10:27.8	345.620	0.320	-0.870	0.410
2020/01/31 15:10:27.9	345.630	0.320	-0.880	0.370
2020/01/31 15:10:28.0	345.630	0.310	-0.880	0.340
2020/01/31 15:10:28.1	345.640	0.300	-0.870	0.300
2020/01/31 15:10:28.2	345.650	0.290	-0.850	0.270
2020/01/31 15:10:28.3	345.650	0.270	-0.830	0.240
2020/01/31 15:10:28.4	345.660	0.260	-0.800	0.210
2020/01/31 15:10:28.5	345.670	0.230	-0.760	0.180
2020/01/31 15:10:28.6	345.670	0.210	-0.710	0.140
2020/01/31 15:10:28.7	345.680	0.190	-0.670	0.110
2020/01/31 15:10:28.8	345.680	0.160	-0.620	0.080
2020/01/31 15:10:28.9	345.690	0.140	-0.570	0.050
2020/01/31 15:10:29.0	345.700	0.110	-0.510	0.020
2020/01/31 15:10:29.1	345.710	0.080	-0.460	-0.010
2020/01/31 15:10:29.2	345.720	0.050	-0.400	-0.040
2020/01/31 15:10:29.3	345.730	0.020	-0.350	-0.070
2020/01/31 15:10:29.4	345.740	-0.010	-0.300	-0.100
2020/01/31 15:10:29.5	345.750	-0.030	-0.250	-0.130
2020/01/31 15:10:29.6	345.770	-0.060	-0.200	-0.150
2020/01/31 15:10:29.7	345.780	-0.080	-0.150	-0.180
2020/01/31 15:10:29.8	345.790	-0.110	-0.110	-0.210
2020/01/31 15:10:29.9	345.800	-0.130	-0.070	-0.240
2020/01/31 15:10:30.0	345.810	-0.150	-0.040	-0.270
2020/01/31 15:10:30.1	345.820	-0.170	-0.010	-0.290
2020/01/31 15:10:30.2	345.830	-0.180	0.020	-0.320
2020/01/31 15:10:30.3	345.840	-0.200	0.040	-0.340
2020/01/31 15:10:30.4	345.840	-0.210	0.060	-0.360
2020/01/31 15:10:30.5	345.850	-0.220	0.070	-0.380
2020/01/31 15:10:30.6	345.850	-0.220	0.080	-0.400
2020/01/31 15:10:30.7	345.850	-0.230	0.090	-0.410
2020/01/31 15:10:30.8	345.850	-0.230	0.100	-0.420
2020/01/31 15:10:30.9	345.850	-0.230	0.100	-0.430
2020/01/31 15:10:31.0	345.850	-0.230	0.100	-0.440
2020/01/31 15:10:31.1	345.840	-0.220	0.100	-0.440
2020/01/31 15:10:31.2	345.840	-0.220	0.100	-0.440
2020/01/31 15:10:31.3	345.830	-0.210	0.090	-0.430
2020/01/31 15:10:31.4	345.820	-0.200	0.080	-0.430
2020/01/31 15:10:31.5	345.810	-0.190	0.080	-0.420
2020/01/31 15:10:31.6	345.800	-0.180	0.070	-0.400
2020/01/31 15:10:31.7	345.790	-0.170	0.060	-0.380
2020/01/31 15:10:31.8	345.770	-0.160	0.050	-0.360
2020/01/31 15:10:31.9	345.750	-0.150	0.040	-0.330
2020/01/31 15:10:32.0	345.720	-0.130	0.030	-0.300
2020/01/31 15:10:32.1	345.700	-0.120	0.020	-0.270
2020/01/31 15:10:32.2	345.670	-0.110	0.010	-0.230
2020/01/31 15:10:32.3	345.640	-0.100	0.000	-0.190
2020/01/31 15:10:32.4	345.610	-0.080	-0.010	-0.150
2020/01/31 15:10:32.5	345.570	-0.070	-0.010	-0.100
2020/01/31 15:10:32.6	345.540	-0.060	-0.020	-0.060
2020/01/31 15:10:32.7	345.510	-0.050	-0.020	-0.010
2020/01/31 15:10:32.8	345.470	-0.040	-0.030	0.040
2020/01/31 15:10:32.9	345.440	-0.040	-0.030	0.100
2020/01/31 15:10:33.0	345.400	-0.030	-0.030	0.150
2020/01/31 15:10:33.1	345.360	-0.020	-0.030	0.210
2020/01/31 15:10:33.2	345.320	-0.020	-0.030	0.260
2020/01/31 15:10:33.3	345.280	-0.010	-0.020	0.320
2020/01/31 15:10:33.4	345.240	-0.010	-0.020	0.380
2020/01/31 15:10:33.5	345.200	-0.010	-0.020	0.430
2020/01/31 15:10:33.6	345.160	-0.010	-0.010	0.490
2020/01/31 15:10:33.7	345.120	-0.010	-0.000	0.540
2020/01/31 15:10:33.8	345.090	-0.010	0.000	0.600
2020/01/31 15:10:33.9	345.060	-0.010	0.010	0.650
2020/01/31 15:10:34.0	345.030	-0.010	0.010	0.690
2020/01/31 15:10:34.1	345.000	-0.010	0.020	0.740
2020/01/31 15:10:34.2	344.980	-0.020	0.020	0.780
2020/01/31 15:10:34.3	344.960	-0.020	0.020	0.810
2020/01/31 15:10:34.4	344.940	-0.020	0.020	0.850
2020/01/31 15:10:34.5	344.920	-0.020	0.020	0.870
2020/01/31 15:10:34.6	344.900	-0.030	0.020	0.900
2020/01/31 15:10:34.7	344.890	-0.030	0.010	0.920
2020/01/31 15:10:34.8	344.880	-0.030	0.010	0.940
2020/01/31 15:10:34.9	344.870	-0.040	-0.000	0.950
2020/01/31 15:10:35.0	344.870	-0.040	-0.010	0.950
2020/01/31 15:10:35.1	344.860	-0.040	-0.030	0.950
2020/01/31 15:10:35.2	344.860	-0.040	-0.040	0.950
2020/01/31 15:10:35.3	344.860	-0.050	-0.060	0.940
2020/01/31 15:10:35.4	344.860	-0.050	-0.090	0.930
2020/01/31 15:10:35.5	344.870	-0.050	-0.110	0.910
2020/01/31 15:10:35.6	344.880	-0.050	-0.140	0.880
2020/01/31 15:10:35.7	344.890	-0.050	-0.180	0.860
2020/01/31 15:10:35.8	344.900	-0.050	-0.210	0.820
2020/01/31 15:10:35.9	344.920	-0.050	-0.250	0.790
2020/01/31 15:10:36.0	344.940	-0.040	-0.290	0.750
2020/01/31 15:10:36.1	344.960	-0.040	-0.330	0.700
2020/01/31 15:10:36.2	344.980	-0.040	-0.380	0.660
2020/01/31 15:10:36.3	345.010	-0.030	-0.430	0.600
2020/01/31 15:10:36.4	345.030	-0.030	-0.480	0.550
2020/01/31 15:10:36.5	345.060	-0.020	-0.530	0.490
2020/01/31 15:10:36.6	345.100	-0.010	-0.570	0.430
2020/01/31 15:10:36.7	345.130	-0.010	-0.630	0.370
2020/01/31 15:10:36.8	345.160	0.000	-0.680	0.310
2020/01/31 15:10:36.9	345.190	0.010	-0.730	0.250
2020/01/31 15:10:37.0	345.230	0.020	-0.780	0.190
2020/01/31 15:10:37.1	345.260	0.030	-0.830	0.130
2020/01/31 15:10:37.2	345.290	0.040	-0.870	0.080
2020/01/31 15:10:37.3	345.320	0.050	-0.910	0.020
2020/01/31 15:10:37.4	345.340	0.060	-0.950	-0.030
2020/01/31 15:10:37.5	345.370	0.070	-0.990	-0.070
2020/01/31 15:10:37.6	345.380	0.090	-1.020	-0.120
2020/01/31 15:10:37.7	345.400	0.100	-1.040	-0.150
2020/01/31 15:10:37.8	345.410	0.110	-1.060	-0.190
2020/01/31 15:10:37.9	345.420	0.120	-1.080	-0.220
2020/01/31 15:10:38.0	345.430	0.130	-1.080	-0.240
2020/01/31 15:10:38.1	345.430	0.140	-1.090	-0.260
2020/01/31 15:10:38.2	345.440	0.150	-1.080	-0.280
2020/01/31 15:10:38.3	345.430	0.160	-1.070	-0.290
2020/01/31 15:10:38.4	345.430	0.170	-1.060	-0.290
2020/01/31 15:10:38.5	345.420	0.170	-1.030	-0.290
2020/01/31 15:10:38.6	345.410	0.180	-1.000	-0.290
2020/01/31 15:10:38.7	345.400	0.190	-0.970	-0.290
2020/01/31 15:10:38.8	345.380	0.190	-0.930	-0.280
2020/01/31 15:10:38.9	345.370	0.190	-0.890	-0.270
2020/01/31 15:10:39.0	345.350	0.190	-0.840	-0.260
2020/01/31 15:10:39.1	345.330	0.200	-0.790	-0.240
2020/01/31 15:10:39.2	345.310	0.190	-0.740	-0.230
2020/01/31 15:10:39.3	345.290	0.190	-0.680	-0.210
2020/01/31 15:10:39.4	345.280	0.190	-0.620	-0.190
2020/01/31 15:10:39.5	345.260	0.180	-0.570	-0.170
2020/01/31 15:10:39.6	345.240	0.180	-0.500	-0.150
2020/01/31 15:10:39.7	345.220	0.170	-0.440	-0.130
2020/01/31 15:10:39.8	345.210	0.160	-0.380	-0.120
2020/01/31 15:10:39.9	345.200	0.150	-0.320	-0.100
2020/01/31 15:10:40.0	345.190	0.140	-0.260	-0.090
2020/01/31 15:10:40.1	345.180	0.130	-0.210	-0.070
2020/01/31 15:10:40.2	345.180	0.110	-0.150	-0.060
2020/01/31 15:10:40.3	345.180	0.100	-0.100	-0.050
2020/01/31 15:10:40.4	345.180	0.080	-0.050	-0.050
2020/01/31 15:10:40.5	345.180	0.070	0.000	-0.040
2020/01/31 15:10:40.6	345.180	0.050	0.050	-0.040
2020/01/31 15:10:40.7	345.190	0.030	0.090	-0.040
2020/01/31 15:10:40.8	345.200	0.010	0.140	-0.030
2020/01/31 15:10:40.9	345.200	-0.010	0.180	-0.030
2020/01/31 15:10:41.0	345.210	-0.030	0.220	-0.030
2020/01/31 15:10:41.1	345.220	-0.050	0.250	-0.030
2020/01/31 15:10:41.2	345.230	-0.070	0.290	-0.030
2020/01/31 15:10:41.3	345.230	-0.090	0.320	-0.030
2020/01/31 15:10:41.4	345.240	-0.110	0.360	-0.030
2020/01/31 15:10:41.5	345.250	-0.140	0.390	-0.030
2020/01/31 15:10:41.6	345.250	-0.160	0.420	-0.020
2020/01/31 15:10:41.7	345.260	-0.180	0.460	-0.020
2020/01/31 15:10:41.8	345.260	-0.210	0.490	-0.010
2020/01/31 15:10:41.9	345.250	-0.230	0.520	-0.010
2020/01/31 15:10:42.0	345.250	-0.250	0.540	0.000
2020/01/31 15:10:42.1	345.250	-0.280	0.570	0.020
2020/01/31 15:10:42.2	345.240	-0.300	0.600	0.030
2020/01/31 15:10:42.3	345.230	-0.320	0.620	0.040
2020/01/31 15:10:42.4	345.220	-0.340	0.640	0.060
2020/01/31 15:10:42.5	345.210	-0.360	0.660	0.070
2020/01/31 15:10:42.6	345.200	-0.380	0.680	0.100
2020/01/31 15:10:42.7	345.190	-0.400	0.690	0.120
2020/01/31 15:10:42.8	345.170	-0.410	0.690	0.140
2020/01/31 15:10:42.9	345.160	-0.430	0.700	0.160
2020/01/31 15:10:43.0	345.140	-0.440	0.700	0.170
2020/01/31 15:10:43.1	345.130	-0.450	0.690	0.190
2020/01/31 15:10:43.2	345.110	-0.460	0.680	0.210
2020/01/31 15:10:43.3	345.090	-0.460	0.660	0.230
2020/01/31 15:10:43.4	345.080	-0.460	0.640	0.250
2020/01/31 15:10:43.5	345.060	-0.460	0.610	0.270
2020/01/31 15:10:43.6	345.040	-0.460	0.580	0.290
2020/01/31 15:10:43.7	345.020	-0.450	0.540	0.310
2020/01/31 15:10:43.8	345.000	-0.450	0.500	0.320
2020/01/31 15:10:43.9	344.990	-0.430	0.450	0.340
2020/01/31 15:10:44.0	344.970	-0.420	0.400	0.360
2020/01/31 15:10:44.1	344.950	-0.400	0.340	0.380
2020/01/31 15:10:44.2	344.940	-0.380	0.280	0.400
2020/01/31 15:10:44.3	344.920	-0.360	0.210	0.410
2020/01/31 15:10:44.4	344.900	-0.340	0.140	0.430
2020/01/31 15:10:44.5	344.890	-0.310	0.070	0.440
2020/01/31 15:10:44.6	344.870	-0.280	0.000	0.460
2020/01/31 15:10:44.7	344.850	-0.250	-0.070	0.470
2020/01/31 15:10:44.8	344.830	-0.220	-0.150	0.490
2020/01/31 15:10:44.9	344.820	-0.180	-0.230	0.500
2020/01/31 15:10:45.0	344.810	-0.150	-0.310	0.500
2020/01/31 15:10:45.1	344.790	-0.110	-0.380	0.510
2020/01/31 15:10:45.2	344.780	-0.080	-0.460	0.510
2020/01/31 15:10:45.3	344.770	-0.040	-0.540	0.510
2020/01/31 15:10:45.4	344.760	-0.000	-0.610	0.510
2020/01/31 15:10:45.5	344.750	0.030	-0.680	0.510
2020/01/31 15:10:45.6	344.720	0.070	-0.750	0.500
2020/01/31 15:10:45.7	344.720	0.100	-0.820	0.490
2020/01/31 15:10:45.8	344.710	0.130	-0.880	0.470
2020/01/31 15:10:45.9	344.710	0.160	-0.940	0.460
2020/01/31 15:10:46.0	344.710	0.190	-0.990	0.440
2020/01/31 15:10:46.1	344.710	0.220	-1.040	0.420
2020/01/31 15:10:46.2	344.710	0.250	-1.080	0.390
2020/01/31 15:10:46.3	344.710	0.270	-1.120	0.370
2020/01/31 15:10:46.4	344.710	0.290	-1.150	0.340
2020/01/31 15:10:46.5	344.720	0.300	-1.180	0.310
2020/01/31 15:10:46.6	344.720	0.320	-1.200	0.280
2020/01/31 15:10:46.7	344.720	0.330	-1.210	0.250
2020/01/31 15:10:46.8	344.730	0.330	-1.220	0.220
2020/01/31 15:10:46.9	344.730	0.340	-1.220	0.180
2020/01/31 15:10:47.0	344.740	0.340	-1.220	0.150
2020/01/31 15:10:47.1	344.740	0.330	-1.210	0.110
2020/01/31 15:10:47.2	344.750	0.330	-1.190	0.070
2020/01/31 15:10:47.3	344.760	0.320	-1.170	0.040
2020/01/31 15:10:47.4	344.770	0.300	-1.150	-0.000
2020/01/31 15:10:47.5	344.770	0.290	-1.120	-0.040
2020/01/31 15:10:47.6	344.770	0.270	-1.080	-0.070
2020/01/31 15:10:47.7	344.780	0.250	-1.040	-0.110
2020/01/31 15:10:47.8	344.780	0.230	-1.000	-0.140
2020/01/31 15:10:47.9	344.790	0.200	-0.950	-0.180
2020/01/31 15:10:48.0	344.790	0.170	-0.900	-0.210
2020/01/31 15:10:48.1	344.790	0.150	-0.850	-0.240
2020/01/31 15:10:48.2	344.790	0.120	-0.790	-0.270
2020/01/31 15:10:48.3	344.800	0.090	-0.740	-0.300
2020/01/31 15:10:48.4	344.800	0.060	-0.680	-0.320
2020/01/31 15:10:48.5	344.800	0.020	-0.620	-0.340
2020/01/31 15:10:48.6	344.810	-0.010	-0.560	-0.360
2020/01/31 15:10:48.7	344.810	-0.040	-0.500	-0.380
2020/01/31 15:10:48.8	344.810	-0.070	-0.440	-0.390
2020/01/31 15:10:48.9	344.810	-0.090	-0.390	-0.410
2020/01/31 15:10:49.0	344.810	-0.120	-0.330	-0.420
2020/01/31 15:10:49.1	344.810	-0.140	-0.280	-0.430
2020/01/31 15:10:49.2	344.810	-0.170	-0.230	-0.440
2020/01/31 15:10:49.3	344.820	-0.190	-0.180	-0.440
2020/01/31 15:10:49.4	344.820	-0.200	-0.140	-0.450
2020/01/31 15:10:49.5	344.820	-0.220	-0.100	-0.450
2020/01/31 15:10:49.6	344.830	-0.230	-0.060	-0.450
2020/01/31 15:10:49.7	344.840	-0.240	-0.030	-0.450
2020/01/31 15:10:49.8	344.840	-0.250	0.000	-0.450
2020/01/31 15:10:49.9	344.850	-0.250	0.020	-0.440
2020/01/31 15:10:50.0	344.860	-0.250	0.040	-0.440
2020/01/31 15:10:50.1	344.860	-0.250	0.060	-0.430
2020/01/31 15:10:50.2	344.870	-0.240	0.070	-0.430
2020/01/31 15:10:50.3	344.880	-0.240	0.080	-0.420
2020/01/31 15:10:50.4	344.890	-0.220	0.080	-0.410
2020/01/31 15:10:50.5	344.900	-0.210	0.080	-0.400
2020/01/31 15:10:50.6	344.910	-0.190	0.080	-0.380
2020/01/31 15:10:50.7	344.920	-0.170	0.070	-0.370
2020/01/31 15:10:50.8	344.930	-0.150	0.060	-0.350
2020/01/31 15:10:50.9	344.940	-0.130	0.050	-0.330
2020/01/31 15:10:51.0	344.950	-0.100	0.040	-0.320
2020/01/31 15:10:51.1	344.960	-0.070	0.030	-0.290
2020/01/31 15:10:51.2	344.970	-0.050	0.020	-0.270
2020/01/31 15:10:51.3	344.980	-0.020	0.000	-0.250
2020/01/31 15:10:51.4	344.980	0.010	-0.010	-0.220
2020/01/31 15:10:51.5	344.990	0.050	-0.020	-0.200
2020/01/31 15:10:51.6	345.000	0.080	-0.040	-0.170
2020/01/31 15:10:51.7	345.010	0.110	-0.050	-0.140
2020/01/31 15:10:51.8	345.010	0.140	-0.060	-0.110
2020/01/31 15:10:51.9	345.020	0.170	-0.070	-0.080
2020/01/31 15:10:52.0	345.020	0.200	-0.080	-0.040
2020/01/31 15:10:52.1	345.030	0.230	-0.090	-0.010
2020/01/31 15:10:52.2	345.030	0.250	-0.100	0.020
2020/01/31 15:10:52.3	345.030	0.280	-0.100	0.050
2020/01/31 15:10:52.4	345.030	0.300	-0.110	0.080
2020/01/31 15:10:52.5	345.030	0.320	-0.120	0.110
2020/01/31 15:10:52.6	345.040	0.340	-0.120	0.140
2020/01/31 15:10:52.7	345.040	0.360	-0.120	0.170
2020/01/31 15:10:52.8	345.040	0.370	-0.130	0.200
2020/01/31 15:10:52.9	345.030	0.380	-0.130	0.220
2020/01/31 15:10:53.0	345.030	0.390	-0.130	0.250
2020/01/31 15:10:53.1	345.030	0.400	-0.140	0.270
2020/01/31 15:10:53.2	345.020	0.400	-0.140	0.300
2020/01/31 15:10:53.3	345.010	0.400	-0.140	0.320
2020/01/31 15:10:53.4	345.000	0.400	-0.140	0.340
2020/01/31 15:10:53.5	344.990	0.390	-0.130	0.360
2020/01/31 15:10:53.6	344.980	0.380	-0.130	0.380
2020/01/31 15:10:53.7	344.960	0.370	-0.130	0.400
2020/01/31 15:10:53.8	344.940	0.360	-0.120	0.420
2020/01/31 15:10:53.9	344.920	0.340	-0.110	0.430
2020/01/31 15:10:54.0	344.890	0.320	-0.100	0.450
2020/01/31 15:10:54.1	344.870	0.300	-0.080	0.460
2020/01/31 15:10:54.2	344.840	0.270	-0.070	0.470
2020/01/31 15:10:54.3	344.800	0.250	-0.050	0.480
2020/01/31 15:10:54.4	344.770	0.220	-0.040	0.480
2020/01/31 15:10:54.5	344.740	0.190	-0.020	0.480
2020/01/31 15:10:54.6	344.710	0.160	-0.000	0.480
2020/01/31 15:10:54.7	344.670	0.130	0.010	0.480
2020/01/31 15:10:54.8	344.640	0.100	0.030	0.470
2020/01/31 15:10:54.9	344.600	0.060	0.040	0.460
2020/01/31 15:10:55.0	344.570	0.030	0.050	0.440
2020/01/31 15:10:55.1	344.530	-0.000	0.060	0.420
2020/01/31 15:10:55.2	344.500	-0.040	0.060	0.400
2020/01/31 15:10:55.3	344.470	-0.070	0.070	0.380
2020/01/31 15:10:55.4	344.440	-0.100	0.060	0.350
2020/01/31 15:10:55.5	344.410	-0.140	0.060	0.320
2020/01/31 15:10:55.6	344.380	-0.170	0.050	0.280
2020/01/31 15:10:55.7	344.350	-0.190	0.040	0.240
2020/01/31 15:10:55.8	344.330	-0.220	0.030	0.200
2020/01/31 15:10:55.9	344.300	-0.250	0.010	0.170
2020/01/31 15:10:56.0	344.280	-0.270	-0.010	0.130
2020/01/31 15:10:56.1	344.250	-0.290	-0.030	0.090
2020/01/31 15:10:56.2	344.230	-0.310	-0.060	0.050
2020/01/31 15:10:56.3	344.210	-0.320	-0.090	0.010
2020/01/31 15:10:56.4	344.190	-0.330	-0.120	-0.030
2020/01/31 15:10:56.5	344.170	-0.340	-0.150	-0.070
2020/01/31 15:10:56.6	344.150	-0.350	-0.180	-0.120
2020/01/31 15:10:56.7	344.130	-0.350	-0.220	-0.150
2020/01/31 15:10:56.8	344.110	-0.350	-0.250	-0.190
2020/01/31 15:10:56.9	344.090	-0.350	-0.280	-0.220
2020/01/31 15:10:57.0	344.070	-0.340	-0.310	-0.250
2020/01/31 15:10:57.1	344.050	-0.330	-0.340	-0.280
2020/01/31 15:10:57.2	344.030	-0.320	-0.370	-0.310
2020/01/31 15:10:57.3	344.010	-0.310	-0.390	-0.340
2020/01/31 15:10:57.4	343.990	-0.300	-0.420	-0.360
2020/01/31 15:10:57.5	343.970	-0.280	-0.440	-0.390
2020/01/31 15:10:57.6	343.940	-0.260	-0.450	-0.410
2020/01/31 15:10:57.7	343.930	-0.240	-0.460	-0.430
2020/01/31 15:10:57.8	343.910	-0.220	-0.470	-0.440
2020/01/31 15:10:57.9	343.890	-0.200	-0.480	-0.450
2020/01/31 15:10:58.0	343.880	-0.170	-0.480	-0.460
2020/01/31 15:10:58.1	343.860	-0.150	-0.480	-0.470
2020/01/31 15:10:58.2	343.850	-0.130	-0.480	-0.470
2020/01/31 15:10:58.3	343.840	-0.110	-0.470	-0.470
2020/01/31 15:10:58.4	343.830	-0.080	-0.470	-0.470
2020/01/31 15:10:58.5	343.820	-0.060	-0.450	-0.470
2020/01/31 15:10:58.6	343.810	-0.040	-0.450	-0.460
2020/01/31 15:10:58.7	343.810	-0.020	-0.430	-0.450
2020/01/31 15:10:58.8	343.810	-0.000	-0.420	-0.440
2020/01/31 15:10:58.9	343.810	0.010	-0.400	-0.430
2020/01/31 15:10:59.0	343.810	0.030	-0.390	-0.410
2020/01/31 15:10:59.1	343.820	0.050	-0.370	-0.400
2020/01/31 15:10:59.2	343.830	0.060	-0.360	-0.380
2020/01/31 15:10:59.3	343.840	0.070	-0.340	-0.360
2020/01/31 15:10:59.4	343.850	0.080	-0.330	-0.340
2020/01/31 15:10:59.5	343.860	0.090	-0.310	-0.320
2020/01/31 15:10:59.6	343.880	0.100	-0.300	-0.290
2020/01/31 15:10:59.7	343.900	0.100	-0.290	-0.270
2020/01/31 15:10:59.8	343.920	0.110	-0.280	-0.250
2020/01/31 15:10:59.9	343.930	0.110	-0.270	-0.220
2020/01/31 15:11:00.0	343.950	0.110	-0.270	-0.200
2020/01/31 15:11:00.1	343.960	0.110	-0.260	-0.180
2020/01/31 15:11:00.2	343.980	0.110	-0.260	-0.150
2020/01/31 15:11:00.3	343.990	0.100	-0.260	-0.130
2020/01/31 15:11:00.4	344.010	0.100	-0.260	-0.100
2020/01/31 15:11:00.5	344.020	0.090	-0.260	-0.080
2020/01/31 15:11:00.6	344.030	0.080	-0.270	-0.050
2020/01/31 15:11:00.7	344.040	0.070	-0.280	-0.030
2020/01/31 15:11:00.8	344.050	0.060	-0.280	-0.000
2020/01/31 15:11:00.9	344.060	0.050	-0.290	0.020
2020/01/31 15:11:01.0	344.060	0.040	-0.300	0.040
2020/01/31 15:11:01.1	344.070	0.020	-0.310	0.070
2020/01/31 15:11:01.2	344.070	0.010	-0.310	0.090
2020/01/31 15:11:01.3	344.080	-0.010	-0.320	0.110
2020/01/31 15:11:01.4	344.080	-0.020	-0.330	0.130
2020/01/31 15:11:01.5	344.070	-0.040	-0.340	0.150
2020/01/31 15:11:01.6	344.070	-0.060	-0.340	0.180
2020/01/31 15:11:01.7	344.070	-0.070	-0.350	0.200
2020/01/31 15:11:01.8	344.060	-0.090	-0.360	0.220
2020/01/31 15:11:01.9	344.050	-0.110	-0.360	0.230
2020/01/31 15:11:02.0	344.050	-0.130	-0.370	0.250
2020/01/31 15:11:02.1	344.030	-0.140	-0.380	0.270
2020/01/31 15:11:02.2	344.020	-0.160	-0.380	0.280
2020/01/31 15:11:02.3	344.010	-0.170	-0.380	0.290
2020/01/31 15:11:02.4	343.990	-0.190	-0.390	0.300
2020/01/31 15:11:02.5	343.980	-0.200	-0.390	0.310
2020/01/31 15:11:02.6	343.970	-0.210	-0.400	0.320
2020/01/31 15:11:02.7	343.960	-0.230	-0.400	0.320
2020/01/31 15:11:02.8	343.940	-0.240	-0.400	0.330
2020/01/31 15:11:02.9	343.920	-0.240	-0.390	0.330
2020/01/31 15:11:03.0	343.900	-0.250	-0.390	0.330
2020/01/31 15:11:03.1	343.880	-0.250	-0.390	0.330
2020/01/31 15:11:03.2	343.850	-0.260	-0.380	0.330
2020/01/31 15:11:03.3	343.830	-0.260	-0.380	0.330
2020/01/31 15:11:03.4	343.810	-0.260	-0.370	0.330
2020/01/31 15:11:03.5	343.790	-0.250	-0.360	0.330
2020/01/31 15:11:03.6	343.770	-0.250	-0.340	0.330
2020/01/31 15:11:03.7	343.750	-0.240	-0.330	0.330
2020/01/31 15:11:03.8	343.730	-0.230	-0.320	0.330
2020/01/31 15:11:03.9	343.700	-0.210	-0.310	0.330
2020/01/31 15:11:04.0	343.680	-0.200	-0.290	0.330
2020/01/31 15:11:04.1	343.660	-0.180	-0.280	0.330
2020/01/31 15:11:04.2	343.640	-0.160	-0.270	0.330
2020/01/31 15:11:04.3	343.620	-0.140	-0.250	0.330
2020/01/31 15:11:04.4	343.600	-0.120	-0.240	0.330
2020/01/31 15:11:04.5	343.580	-0.090	-0.220	0.330
2020/01/31 15:11:04.6	343.560	-0.070	-0.210	0.340
2020/01/31 15:11:04.7	343.540	-0.040	-0.200	0.340
2020/01/31 15:11:04.8	343.520	-0.010	-0.180	0.350
2020/01/31 15:11:04.9	343.500	0.020	-0.170	0.350
2020/01/31 15:11:05.0	343.480	0.040	-0.150	0.360
2020/01/31 15:11:05.1	343.460	0.070	-0.140	0.360
2020/01/31 15:11:05.2	343.440	0.100	-0.120	0.370
2020/01/31 15:11:05.3	343.420	0.130	-0.110	0.370
2020/01/31 15:11:05.4	343.400	0.160	-0.100	0.380
2020/01/31 15:11:05.5	343.380	0.180	-0.090	0.390
2020/01/31 15:11:05.6	343.350	0.210	-0.080	0.400
2020/01/31 15:11:05.7	343.330	0.240	-0.070	0.400
2020/01/31 15:11:05.8	343.310	0.260	-0.060	0.410
2020/01/31 15:11:05.9	343.280	0.280	-0.060	0.410
2020/01/31 15:11:06.0	343.260	0.300	-0.050	0.410
2020/01/31 15:11:06.1	343.240	0.320	-0.050	0.420
2020/01/31 15:11:06.2	343.220	0.340	-0.050	0.420
2020/01/31 15:11:06.3	343.200	0.350	-0.060	0.420
2020/01/31 15:11:06.4	343.180	0.370	-0.060	0.410
2020/01/31 15:11:06.5	343.160	0.380	-0.070	0.410
2020/01/31 15:11:06.6	343.120	0.390	-0.080	0.400
2020/01/31 15:11:06.7	343.100	0.390	-0.090	0.400
2020/01/31 15:11:06.8	343.090	0.400	-0.100	0.390
2020/01/31 15:11:06.9	343.070	0.400	-0.110	0.380
2020/01/31 15:11:07.0	343.050	0.400	-0.120	0.360
2020/01/31 15:11:07.1	343.040	0.400	-0.140	0.350
2020/01/31 15:11:07.2	343.030	0.400	-0.150	0.330
2020/01/31 15:11:07.3	343.010	0.400	-0.170	0.320
2020/01/31 15:11:07.4	343.000	0.390	-0.180	0.300
2020/01/31 15:11:07.5	342.990	0.380	-0.200	0.280
2020/01/31 15:11:07.6	342.990	0.380	-0.220	0.260
2020/01/31 15:11:07.7	342.980	0.370	-0.230	0.240
2020/01/31 15:11:07.8	342.980	0.350	-0.250	0.220
2020/01/31 15:11:07.9	342.980	0.340	-0.260	0.190
2020/01/31 15:11:08.0	342.970	0.330	-0.280	0.170
2020/01/31 15:11:08.1	342.970	0.310	-0.300	0.140
2020/01/31 15:11:08.2	342.980	0.300	-0.310	0.110
2020/01/31 15:11:08.3	342.980	0.280	-0.320	0.080
2020/01/31 15:11:08.4	342.980	0.260	-0.340	0.050
2020/01/31 15:11:08.5	342.990	0.240	-0.350	0.020
2020/01/31 15:11:08.6	343.010	0.220	-0.360	-0.000
2020/01/31 15:11:08.7	343.010	0.200	-0.370	-0.030
2020/01/31 15:11:08.8	343.020	0.180	-0.370	-0.060
2020/01/31 15:11:08.9	343.030	0.160	-0.380	-0.090
2020/01/31 15:11:09.0	343.040	0.140	-0.380	-0.120
2020/01/31 15:11:09.1	343.040	0.110	-0.380	-0.140
2020/01/31 15:11:09.2	343.050	0.090	-0.380	-0.170
2020/01/31 15:11:09.3	343.060	0.070	-0.380	-0.190
2020/01/31 15:11:09.4	343.060	0.040	-0.370	-0.210
2020/01/31 15:11:09.5	343.070	0.020	-0.360	-0.230
2020/01/31 15:11:09.6	343.070	-0.010	-0.350	-0.240
2020/01/31 15:11:09.7	343.080	-0.030	-0.340	-0.250
2020/01/31 15:11:09.8	343.080	-0.050	-0.330	-0.260
2020/01/31 15:11:09.9	343.080	-0.080	-0.320	-0.270
2020/01/31 15:11:10.0	343.080	-0.100	-0.300	-0.270
2020/01/31 15:11:10.1	343.080	-0.120	-0.290	-0.270
2020/01/31 15:11:10.2	343.080	-0.140	-0.270	-0.270
2020/01/31 15:11:10.3	343.070	-0.170	-0.250	-0.270
2020/01/31 15:11:10.4	343.070	-0.190	-0.240	-0.270
2020/01/31 15:11:10.5	343.070	-0.210	-0.220	-0.260
2020/01/31 15:11:10.6	343.080	-0.220	-0.210	-0.260
2020/01/31 15:11:10.7	343.070	-0.240	-0.190	-0.250
2020/01/31 15:11:10.8	343.070	-0.260	-0.180	-0.250
2020/01/31 15:11:10.9	343.070	-0.270	-0.170	-0.240
2020/01/31 15:11:11.0	343.070	-0.280	-0.160	-0.230
2020/01/31 15:11:11.1	343.070	-0.300	-0.150	-0.220
2020/01/31 15:11:11.2	343.070	-0.310	-0.150	-0.210
2020/01/31 15:11:11.3	343.060	-0.310	-0.140	-0.200
2020/01/31 15:11:11.4	343.060	-0.320	-0.130	-0.190
2020/01/31 15:11:11.5	343.050	-0.330	-0.130	-0.170
2020/01/31 15:11:11.6	343.040	-0.330	-0.130	-0.160
2020/01/31 15:11:11.7	343.030	-0.330	-0.130	-0.140
2020/01/31 15:11:11.8	343.020	-0.330	-0.130	-0.120
2020/01/31 15:11:11.9	343.010	-0.330	-0.130	-0.100
2020/01/31 15:11:12.0	343.000	-0.330	-0.140	-0.080
2020/01/31 15:11:12.1	342.980	-0.320	-0.140	-0.060
2020/01/31 15:11:12.2	342.970	-0.320	-0.150	-0.040
2020/01/31 15:11:12.3	342.950	-0.310	-0.150	-0.020
2020/01/31 15:11:12.4	342.940	-0.300	-0.160	0.010
2020/01/31 15:11:12.5	342.920	-0.300	-0.170	0.030
2020/01/31 15:11:12.6	342.900	-0.280	-0.170	0.050
2020/01/31 15:11:12.7	342.880	-0.270	-0.180	0.070
2020/01/31 15:11:12.8	342.860	-0.260	-0.200	0.090
2020/01/31 15:11:12.9	342.850	-0.250	-0.210	0.110
2020/01/31 15:11:13.0	342.830	-0.230	-0.220	0.130
2020/01/31 15:11:13.1	342.810	-0.220	-0.230	0.140
2020/01/31 15:11:13.2	342.800	-0.200	-0.240	0.160
2020/01/31 15:11:13.3	342.790	-0.180	-0.250	0.180
2020/01/31 15:11:13.4	342.780	-0.170	-0.260	0.190
2020/01/31 15:11:13.5	342.760	-0.150	-0.270	0.210
2020/01/31 15:11:13.6	342.760	-0.130	-0.280	0.220
2020/01/31 15:11:13.7	342.750	-0.110	-0.290	0.240
2020/01/31 15:11:13.8	342.740	-0.100	-0.300	0.250
2020/01/31 15:11:13.9	342.730	-0.080	-0.300	0.270
2020/01/31 15:11:14.0	342.720	-0.060	-0.310	0.280
2020/01/31 15:11:14.1	342.710	-0.050	-0.310	0.300
2020/01/31 15:11:14.2	342.700	-0.030	-0.310	0.320
2020/01/31 15:11:14.3	342.690	-0.020	-0.310	0.330
2020/01/31 15:11:14.4	342.690	-0.000	-0.310	0.350
2020/01/31 15:11:14.5	342.680	0.010	-0.300	0.370
2020/01/31 15:11:14.6	342.670	0.020	-0.290	0.400
2020/01/31 15:11:14.7	342.660	0.030	-0.290	0.420
2020/01/31 15:11:14.8	342.640	0.040	-0.280	0.440
2020/01/31 15:11:14.9	342.630	0.050	-0.260	0.460
2020/01/31 15:11:15.0	342.620	0.060	-0.250	0.480
2020/01/31 15:11:15.1	342.610	0.070	-0.240	0.500
2020/01/31 15:11:15.2	342.590	0.070	-0.220	0.520
2020/01/31 15:11:15.3	342.580	0.070	-0.200	0.540
2020/01/31 15:11:15.4	342.560	0.080	-0.180	0.560
2020/01/31 15:11:15.5	342.540	0.080	-0.170	0.580
2020/01/31 15:11:15.6	342.530	0.080	-0.140	0.600
2020/01/31 15:11:15.7	342.510	0.080	-0.120	0.620
2020/01/31 15:11:15.8	342.490	0.080	-0.100	0.640
2020/01/31 15:11:15.9	342.470	0.080	-0.080	0.660
2020/01/31 15:11:16.0	342.440	0.080	-0.060	0.680
2020/01/31 15:11:16.1	342.420	0.070	-0.040	0.700
2020/01/31 15:11:16.2	342.390	0.070	-0.020	0.710
2020/01/31 15:11:16.3	342.360	0.070	-0.000	0.730
2020/01/31 15:11:16.4	342.340	0.070	0.010	0.750
2020/01/31 15:11:16.5	342.310	0.070	0.030	0.760
2020/01/31 15:11:16.6	342.280	0.070	0.040	0.780
2020/01/31 15:11:16.7	342.250	0.070	0.060	0.790
2020/01/31 15:11:16.8	342.230	0.070	0.060	0.800
2020/01/31 15:11:16.9	342.200	0.070	0.070	0.810
2020/01/31 15:11:17.0	342.180	0.080	0.070	0.810
2020/01/31 15:11:17.1	342.160	0.080	0.070	0.810
2020/01/31 15:11:17.2	342.140	0.090	0.070	0.810
2020/01/31 15:11:17.3	342.130	0.090	0.060	0.810
2020/01/31 15:11:17.4	342.110	0.100	0.050	0.800
2020/01/31 15:11:17.5	342.100	0.110	0.040	0.790
2020/01/31 15:11:17.6	342.090	0.120	0.020	0.780
2020/01/31 15:11:17.7	342.080	0.130	0.000	0.760
2020/01/31 15:11:17.8	342.080	0.140	-0.020	0.740
2020/01/31 15:11:17.9	342.080	0.160	-0.050	0.710
2020/01/31 15:11:18.0	342.080	0.170	-0.080	0.680
2020/01/31 15:11:18.1	342.090	0.180	-0.110	0.650
2020/01/31 15:11:18.2	342.090	0.200	-0.150	0.620
2020/01/31 15:11:18.3	342.100	0.210	-0.180	0.590
2020/01/31 15:11:18.4	342.110	0.220	-0.220	0.550
2020/01/31 15:11:18.5	342.120	0.240	-0.250	0.520
2020/01/31 15:11:18.6	342.120	0.250	-0.290	0.480
2020/01/31 15:11:18.7	342.130	0.260	-0.330	0.450
2020/01/31 15:11:18.8	342.140	0.270	-0.360	0.410
2020/01/31 15:11:18.9	342.150	0.290	-0.400	0.380
2020/01/31 15:11:19.0	342.160	0.300	-0.430	0.350
2020/01/31 15:11:19.1	342.160	0.300	-0.470	0.320
2020/01/31 15:11:19.2	342.170	0.310	-0.500	0.290
2020/01/31 15:11:19.3	342.180	0.320	-0.520	0.270
2020/01/31 15:11:19.4	342.190	0.320	-0.550	0.240
2020/01/31 15:11:19.5	342.200	0.330	-0.570	0.220
2020/01/31 15:11:19.6	342.210	0.330	-0.590	0.200
2020/01/31 15:11:19.7	342.220	0.330	-0.610	0.180
2020/01/31 15:11:19.8	342.230	0.330	-0.630	0.160
2020/01/31 15:11:19.9	342.240	0.330	-0.650	0.140
2020/01/31 15:11:20.0	342.260	0.320	-0.660	0.120
2020/01/31 15:11:20.1	342.270	0.310	-0.670	0.100
2020/01/31 15:11:20.2	342.290	0.310	-0.680	0.080
2020/01/31 15:11:20.3	342.310	0.300	-0.690	0.060
2020/01/31 15:11:20.4	342.330	0.290	-0.700	0.040
2020/01/31 15:11:20.5	342.350	0.270	-0.710	0.020
2020/01/31 15:11:20.6	342.390	0.260	-0.710	-0.010
2020/01/31 15:11:20.7	342.420	0.250	-0.720	-0.040
2020/01/31 15:11:20.8	342.450	0.230	-0.730	-0.070
2020/01/31 15:11:20.9	342.480	0.210	-0.740	-0.100
2020/01/31 15:11:21.0	342.520	0.190	-0.750	-0.130
2020/01/31 15:11:21.1	342.550	0.180	-0.760	-0.160
2020/01/31 15:11:21.2	342.590	0.160	-0.770	-0.200
2020/01/31 15:11:21.3	342.620	0.140	-0.780	-0.230
2020/01/31 15:11:21.4	342.660	0.120	-0.780	-0.270
2020/01/31 15:11:21.5	342.690	0.090	-0.790	-0.310
2020/01/31 15:11:21.6	342.730	0.070	-0.790	-0.340
2020/01/31 15:11:21.7	342.760	0.050	-0.800	-0.380
2020/01/31 15:11:21.8	342.790	0.030	-0.800	-0.410
2020/01/31 15:11:21.9	342.830	0.010	-0.790	-0.440
2020/01/31 15:11:22.0	342.860	-0.020	-0.790	-0.470
2020/01/31 15:11:22.1	342.890	-0.040	-0.780	-0.500
2020/01/31 15:11:22.2	342.920	-0.060	-0.770	-0.530
2020/01/31 15:11:22.3	342.940	-0.080	-0.750	-0.550
2020/01/31 15:11:22.4	342.960	-0.110	-0.730	-0.570
2020/01/31 15:11:22.5	342.980	-0.130	-0.700	-0.590
2020/01/31 15:11:22.6	342.990	-0.150	-0.670	-0.600
2020/01/31 15:11:22.7	343.010	-0.170	-0.640	-0.610
2020/01/31 15:11:22.8	343.020	-0.190	-0.600	-0.610
2020/01/31 15:11:22.9	343.030	-0.210	-0.550	-0.610
2020/01/31 15:11:23.0	343.040	-0.220	-0.500	-0.610
2020/01/31 15:11:23.1	343.040	-0.240	-0.450	-0.600
2020/01/31 15:11:23.2	343.040	-0.260	-0.400	-0.590
2020/01/31 15:11:23.3	343.040	-0.270	-0.340	-0.570
2020/01/31 15:11:23.4	343.030	-0.290	-0.280	-0.550
2020/01/31 15:11:23.5	343.020	-0.300	-0.210	-0.520
2020/01/31 15:11:23.6	343.010	-0.310	-0.150	-0.490
2020/01/31 15:11:23.7	342.990	-0.320	-0.090	-0.460
2020/01/31 15:11:23.8	342.980	-0.330	-0.020	-0.420
2020/01/31 15:11:23.9	342.950	-0.340	0.050	-0.380
2020/01/31 15:11:24.0	342.930	-0.350	0.120	-0.340
2020/01/31 15:11:24.1	342.900	-0.350	0.180	-0.290
2020/01/31 15:11:24.2	342.870	-0.360	0.250	-0.240
2020/01/31 15:11:24.3	342.830	-0.360	0.310	-0.180
2020/01/31 15:11:24.4	342.790	-0.360	0.370	-0.130
2020/01/31 15:11:24.5	342.750	-0.360	0.420	-0.070
2020/01/31 15:11:24.6	342.700	-0.360	0.480	-0.010
2020/01/31 15:11:24.7	342.650	-0.360	0.520	0.050
2020/01/31 15:11:24.8	342.600	-0.350	0.570	0.110
2020/01/31 15:11:24.9	342.550	-0.350	0.610	0.170
2020/01/31 15:11:25.0	342.490	-0.340	0.640	0.230
2020/01/31 15:11:25.1	342.440	-0.330	0.670	0.290
2020/01/31 15:11:25.2	342.380	-0.320	0.690	0.340
2020/01/31 15:11:25.3	342.320	-0.310	0.700	0.400
2020/01/31 15:11:25.4	342.260	-0.300	0.710	0.450
2020/01/31 15:11:25.5	342.210	-0.280	0.710	0.500
2020/01/31 15:11:25.6	342.150	-0.270	0.710	0.550
2020/01/31 15:11:25.7	342.100	-0.250	0.700	0.590
2020/01/31 15:11:25.8	342.050	-0.230	0.690	0.630
2020/01/31 15:11:25.9	342.000	-0.210	0.670	0.670
2020/01/31 15:11:26.0	341.950	-0.180	0.640	0.710
2020/01/31 15:11:26.1	341.900	-0.160	0.610	0.740
2020/01/31 15:11:26.2	341.850	-0.130	0.570	0.770
2020/01/31 15:11:26.3	341.810	-0.110	0.520	0.790
2020/01/31 15:11:26.4	341.770	-0.080	0.470	0.810
2020/01/31 15:11:26.5	341.730	-0.050	0.420	0.830
2020/01/31 15:11:26.6	341.700	-0.020	0.360	0.850
2020/01/31 15:11:26.7	341.670	0.020	0.300	0.860
2020/01/31 15:11:26.8	341.640	0.050	0.240	0.870
2020/01/31 15:11:26.9	341.610	0.080	0.170	0.880
2020/01/31 15:11:27.0	341.590	0.110	0.100	0.880
2020/01/31 15:11:27.1	341.570	0.150	0.030	0.880
2020/01/31 15:11:27.2	341.550	0.180	-0.040	0.870
2020/01/31 15:11:27.3	341.540	0.210	-0.110	0.860
2020/01/31 15:11:27.4	341.530	0.240	-0.190	0.850
2020/01/31 15:11:27.5	341.520	0.270	-0.260	0.830
2020/01/31 15:11:27.6	341.500	0.300	-0.330	0.810
2020/01/31 15:11:27.7	341.500	0.330	-0.400	0.790
2020/01/31 15:11:27.8	341.500	0.350	-0.460	0.760
2020/01/31 15:11:27.9	341.510	0.370	-0.530	0.730
2020/01/31 15:11:28.0	341.520	0.390	-0.590	0.710
2020/01/31 15:11:28.1	341.530	0.410	-0.650	0.670
2020/01/31 15:11:28.2	341.550	0.420	-0.700	0.640
2020/01/31 15:11:28.3	341.570	0.440	-0.750	0.610
2020/01/31 15:11:28.4	341.590	0.440	-0.800	0.570
2020/01/31 15:11:28.5	341.610	0.450	-0.840	0.530
2020/01/31 15:11:28.6	341.650	0.450	-0.880	0.500
2020/01/31 15:11:28.7	341.680	0.450	-0.910	0.460
2020/01/31 15:11:28.8	341.710	0.440	-0.940	0.420
2020/01/31 15:11:28.9	341.740	0.430	-0.960	0.380
2020/01/31 15:11:29.0	341.770	0.420	-0.970	0.330
2020/01/31 15:11:29.1	341.810	0.410	-0.980	0.290
2020/01/31 15:11:29.2	341.840	0.390	-0.990	0.250
2020/01/31 15:11:29.3	341.880	0.360	-0.990	0.210
2020/01/31 15:11:29.4	341.910	0.340	-0.980	0.170
2020/01/31 15:11:29.5	341.950	0.310	-0.970	0.130
2020/01/31 15:11:29.6	341.980	0.280	-0.950	0.090
2020/01/31 15:11:29.7	342.010	0.250	-0.930	0.060
2020/01/31 15:11:29.8	342.050	0.210	-0.910	0.020
2020/01/31 15:11:29.9	342.080	0.180	-0.880	-0.020
2020/01/31 15:11:30.0	342.120	0.140	-0.850	-0.050
2020/01/31 15:11:30.1	342.150	0.100	-0.810	-0.090
2020/01/31 15:11:30.2	342.180	0.060	-0.770	-0.120
2020/01/31 15:11:30.3	342.210	0.020	-0.730	-0.150
2020/01/31 15:11:30.4	342.250	-0.020	-0.680	-0.190
2020/01/31 15:11:30.5	342.280	-0.050	-0.640	-0.210
2020/01/31 15:11:30.6	342.320	-0.090	-0.590	-0.240
2020/01/31 15:11:30.7	342.350	-0.130	-0.540	-0.270
2020/01/31 15:11:30.8	342.380	-0.160	-0.500	-0.290
2020/01/31 15:11:30.9	342.410	-0.200	-0.450	-0.320
2020/01/31 15:11:31.0	342.440	-0.230	-0.400	-0.340
2020/01/31 15:11:31.1	342.470	-0.260	-0.350	-0.360
2020/01/31 15:11:31.2	342.500	-0.280	-0.310	-0.370
2020/01/31 15:11:31.3	342.520	-0.310	-0.260	-0.390
2020/01/31 15:11:31.4	342.550	-0.330	-0.220	-0.400
2020/01/31 15:11:31.5	342.570	-0.350	-0.180	-0.410
2020/01/31 15:11:31.6	342.590	-0.360	-0.140	-0.420
2020/01/31 15:11:31.7	342.610	-0.370	-0.100	-0.430
2020/01/31 15:11:31.8	342.630	-0.380	-0.070	-0.430
2020/01/31 15:11:31.9	342.640	-0.390	-0.030	-0.430
2020/01/31 15:11:32.0	342.660	-0.390	-0.000	-0.430
2020/01/31 15:11:32.1	342.670	-0.390	0.020	-0.430
2020/01/31 15:11:32.2	342.670	-0.390	0.050	-0.430
2020/01/31 15:11:32.3	342.680	-0.390	0.070	-0.420
2020/01/31 15:11:32.4	342.680	-0.380	0.090	-0.410
2020/01/31 15:11:32.5	342.680	-0.370	0.100	-0.400
2020/01/31 15:11:32.6	342.670	-0.350	0.120	-0.380
2020/01/31 15:11:32.7	342.660	-0.340	0.130	-0.370
2020/01/31 15:11:32.8	342.660	-0.320	0.140	-0.350
2020/01/31 15:11:32.9	342.650	-0.300	0.140	-0.330
2020/01/31 15:11:33.0	342.640	-0.280	0.150	-0.300
2020/01/31 15:11:33.1	342.630	-0.260	0.150	-0.280
2020/01/31 15:11:33.2	342.610	-0.240	0.140	-0.250
2020/01/31 15:11:33.3	342.600	-0.210	0.140	-0.220
2020/01/31 15:11:33.4	342.580	-0.190	0.130	-0.180
2020/01/31 15:11:33.5	342.560	-0.160	0.120	-0.150
2020/01/31 15:11:33.6	342.540	-0.140	0.110	-0.110
2020/01/31 15:11:33.7	342.520	-0.110	0.100	-0.070
2020/01/31 15:11:33.8	342.490	-0.080	0.090	-0.030
2020/01/31 15:11:33.9	342.460	-0.050	0.070	0.010
2020/01/31 15:11:34.0	342.440	-0.020	0.050	0.060
2020/01/31 15:11:34.1	342.400	0.000	0.030	0.100
2020/01/31 15:11:34.2	342.370	0.030	0.010	0.150
2020/01/31 15:11:34.3	342.330	0.060	-0.010	0.200
2020/01/31 15:11:34.4	342.300	0.090	-0.030	0.250
2020/01/31 15:11:34.5	342.260	0.110	-0.050	0.310
2020/01/31 15:11:34.6	342.200	0.140	-0.070	0.360
2020/01/31 15:11:34.7	342.150	0.160	-0.090	0.420
2020/01/31 15:11:34.8	342.110	0.190	-0.110	0.470
2020/01/31 15:11:34.9	342.060	0.210	-0.130	0.520
2020/01/31 15:11:35.0	342.020	0.230	-0.160	0.570
2020/01/31 15:11:35.1	341.970	0.260	-0.180	0.620
2020/01/31 15:11:35.2	341.920	0.280	-0.200	0.670
2020/01/31 15:11:35.3	341.870	0.300	-0.220	0.720
2020/01/31 15:11:35.4	341.830	0.320	-0.240	0.760
2020/01/31 15:11:35.5	341.780	0.330	-0.260	0.810
2020/01/31 15:11:35.6	341.740	0.350	-0.280	0.840
2020/01/31 15:11:35.7	341.700	0.370	-0.300	0.880
2020/01/31 15:11:35.8	341.660	0.380	-0.320	0.910
2020/01/31 15:11:35.9	341.630	0.400	-0.340	0.940
2020/01/31 15:11:36.0	341.600	0.410	-0.360	0.960
2020/01/31 15:11:36.1	341.570	0.430	-0.380	0.980
2020/01/31 15:11:36.2	341.550	0.440	-0.400	0.990
2020/01/31 15:11:36.3	341.530	0.450	-0.430	0.990
2020/01/31 15:11:36.4	341.510	0.460	-0.450	0.990
2020/01/31 15:11:36.5	341.500	0.470	-0.480	0.980
2020/01/31 15:11:36.6	341.500	0.470	-0.510	0.970
2020/01/31 15:11:36.7	341.500	0.480	-0.540	0.950
2020/01/31 15:11:36.8	341.510	0.480	-0.560	0.920
2020/01/31 15:11:36.9	341.520	0.490	-0.590	0.890
2020/01/31 15:11:37.0	341.540	0.490	-0.620	0.850
2020/01/31 15:11:37.1	341.550	0.490	-0.640	0.810
2020/01/31 15:11:37.2	341.580	0.480	-0.670	0.760
2020/01/31 15:11:37.3	341.600	0.470	-0.690	0.720
2020/01/31 15:11:37.4	341.630	0.460	-0.700	0.670
2020/01/31 15:11:37.5	341.650	0.450	-0.720	0.610
2020/01/31 15:11:37.6	341.680	0.430	-0.730	0.560
2020/01/31 15:11:37.7	341.710	0.410	-0.740	0.500
2020/01/31 15:11:37.8	341.740	0.390	-0.740	0.450
2020/01/31 15:11:37.9	341.770	0.370	-0.740	0.390
2020/01/31 15:11:38.0	341.800	0.340	-0.730	0.330
2020/01/31 15:11:38.1	341.830	0.310	-0.720	0.280
2020/01/31 15:11:38.2	341.860	0.270	-0.710	0.220
2020/01/31 15:11:38.3	341.880	0.240	-0.690	0.170
2020/01/31 15:11:38.4	341.910	0.200	-0.660	0.110
2020/01/31 15:11:38.5	341.930	0.150	-0.630	0.060
2020/01/31 15:11:38.6	341.960	0.110	-0.600	0.010
2020/01/31 15:11:38.7	341.980	0.060	-0.570	-0.040
2020/01/31 15:11:38.8	342.000	0.020	-0.530	-0.080
2020/01/31 15:11:38.9	342.020	-0.030	-0.490	-0.120
2020/01/31 15:11:39.0	342.030	-0.080	-0.440	-0.160
2020/01/31 15:11:39.1	342.050	-0.130	-0.390	-0.200
2020/01/31 15:11:39.2	342.070	-0.180	-0.350	-0.230
2020/01/31 15:11:39.3	342.080	-0.230	-0.290	-0.270
2020/01/31 15:11:39.4	342.090	-0.280	-0.240	-0.300
2020/01/31 15:11:39.5	342.110	-0.330	-0.190	-0.320
2020/01/31 15:11:39.6	342.120	-0.380	-0.130	-0.350
2020/01/31 15:11:39.7	342.120	-0.430	-0.080	-0.370
2020/01/31 15:11:39.8	342.130	-0.470	-0.030	-0.390
2020/01/31 15:11:39.9	342.130	-0.510	0.020	-0.400
2020/01/31 15:11:40.0	342.140	-0.560	0.060	-0.410
2020/01/31 15:11:40.1	342.140	-0.590	0.110	-0.420
2020/01/31 15:11:40.2	342.140	-0.630	0.150	-0.430
2020/01/31 15:11:40.3	342.140	-0.660	0.190	-0.430
2020/01/31 15:11:40.4	342.130	-0.690	0.220	-0.440
2020/01/31 15:11:40.5	342.130	-0.720	0.250	-0.440
2020/01/31 15:11:40.6	342.140	-0.740	0.280	-0.440
2020/01/31 15:11:40.7	342.140	-0.760	0.300	-0.430
2020/01/31 15:11:40.8	342.140	-0.770	0.310	-0.430
2020/01/31 15:11:40.9	342.130	-0.780	0.320	-0.430
2020/01/31 15:11:41.0	342.130	-0.790	0.330	-0.420
2020/01/31 15:11:41.1	342.130	-0.790	0.320	-0.420
2020/01/31 15:11:41.2	342.130	-0.790	0.320	-0.420
2020/01/31 15:11:41.3	342.130	-0.790	0.310	-0.420
2020/01/31 15:11:41.4	342.130	-0.780	0.290	-0.420
2020/01/31 15:11:41.5	342.140	-0.760	0.270	-0.420
2020/01/31 15:11:41.6	342.140	-0.750	0.250	-0.420
2020/01/31 15:11:41.7	342.150	-0.720	0.220	-0.420
2020/01/31 15:11:41.8	342.160	-0.700	0.190	-0.430
2020/01/31 15:11:41.9	342.160	-0.670	0.150	-0.430
2020/01/31 15:11:42.0	342.170	-0.640	0.120	-0.420
2020/01/31 15:11:42.1	342.180	-0.600	0.080	-0.420
2020/01/31 15:11:42.2	342.190	-0.570	0.040	-0.420
2020/01/31 15:11:42.3	342.200	-0.520	0.000	-0.410
2020/01/31 15:11:42.4	342.210	-0.480	-0.030	-0.400
2020/01/31 15:11:42.5	342.220	-0.440	-0.070	-0.390
2020/01/31 15:11:42.6	342.220	-0.390	-0.100	-0.380
2020/01/31 15:11:42.7	342.220	-0.340	-0.140	-0.360
2020/01/31 15:11:42.8	342.230	-0.290	-0.160	-0.340
2020/01/31 15:11:42.9	342.240	-0.240	-0.190	-0.310
2020/01/31 15:11:43.0	342.240	-0.190	-0.220	-0.290
2020/01/31 15:11:43.1	342.250	-0.140	-0.240	-0.260
2020/01/31 15:11:43.2	342.250	-0.100	-0.260	-0.220
2020/01/31 15:11:43.3	342.250	-0.050	-0.270	-0.190
2020/01/31 15:11:43.4	342.250	0.000	-0.280	-0.160
2020/01/31 15:11:43.5	342.250	0.050	-0.290	-0.120
2020/01/31 15:11:43.6	342.240	0.090	-0.300	-0.070
2020/01/31 15:11:43.7	342.240	0.140	-0.300	-0.030
2020/01/31 15:11:43.8	342.240	0.180	-0.300	0.010
2020/01/31 15:11:43.9	342.230	0.220	-0.300	0.050
2020/01/31 15:11:44.0	342.230	0.250	-0.300	0.090
2020/01/31 15:11:44.1	342.230	0.290	-0.300	0.130
2020/01/31 15:11:44.2	342.220	0.320	-0.290	0.170
2020/01/31 15:11:44.3	342.220	0.350	-0.280	0.210
2020/01/31 15:11:44.4	342.210	0.380	-0.280	0.250
2020/01/31 15:11:44.5	342.210	0.410	-0.270	0.280
2020/01/31 15:11:44.6	342.190	0.430	-0.270	0.320
2020/01/31 15:11:44.7	342.190	0.450	-0.260	0.350
2020/01/31 15:11:44.8	342.180	0.470	-0.250	0.380
2020/01/31 15:11:44.9	342.180	0.480	-0.240	0.420
2020/01/31 15:11:45.0	342.170	0.500	-0.230	0.450
2020/01/31 15:11:45.1	342.160	0.510	-0.230	0.470
2020/01/31 15:11:45.2	342.160	0.520	-0.220	0.500
2020/01/31 15:11:45.3	342.150	0.530	-0.220	0.520
2020/01/31 15:11:45.4	342.140	0.530	-0.210	0.550
2020/01/31 15:11:45.5	342.130	0.540	-0.210	0.570
2020/01/31 15:11:45.6	342.130	0.540	-0.210	0.590
2020/01/31 15:11:45.7	342.120	0.540	-0.210	0.610
2020/01/31 15:11:45.8	342.110	0.540	-0.210	0.620
2020/01/31 15:11:45.9	342.110	0.540	-0.220	0.630
2020/01/31 15:11:46.0	342.100	0.540	-0.220	0.640
2020/01/31 15:11:46.1	342.090	0.530	-0.230	0.650
2020/01/31 15:11:46.2	342.090	0.530	-0.240	0.650
2020/01/31 15:11:46.3	342.080	0.520	-0.250	0.660
2020/01/31 15:11:46.4	342.070	0.510	-0.270	0.650
2020/01/31 15:11:46.5	342.060	0.500	-0.280	0.650
2020/01/31 15:11:46.6	342.060	0.490	-0.300	0.640
2020/01/31 15:11:46.7	342.060	0.480	-0.320	0.630
2020/01/31 15:11:46.8	342.050	0.460	-0.340	0.610
2020/01/31 15:11:46.9	342.050	0.450	-0.360	0.600
2020/01/31 15:11:47.0	342.040	0.430	-0.380	0.570
2020/01/31 15:11:47.1	342.030	0.410	-0.410	0.550
2020/01/31 15:11:47.2	342.030	0.400	-0.430	0.520
2020/01/31 15:11:47.3	342.020	0.380	-0.460	0.500
2020/01/31 15:11:47.4	342.020	0.360	-0.480	0.460
2020/01/31 15:11:47.5	342.020	0.340	-0.500	0.430
2020/01/31 15:11:47.6	342.010	0.320	-0.530	0.390
2020/01/31 15:11:47.7	342.010	0.290	-0.550	0.350
2020/01/31 15:11:47.8	342.010	0.270	-0.580	0.310
2020/01/31 15:11:47.9	342.010	0.250	-0.600	0.270
2020/01/31 15:11:48.0	342.010	0.230	-0.620	0.220
2020/01/31 15:11:48.1	342.020	0.210	-0.640	0.170
2020/01/31 15:11:48.2	342.020	0.180	-0.660	0.120
2020/01/31 15:11:48.3	342.030	0.160	-0.680	0.070
2020/01/31 15:11:48.4	342.040	0.140	-0.700	0.020
2020/01/31 15:11:48.5	342.050	0.120	-0.720	-0.030
2020/01/31 15:11:48.6	342.070	0.100	-0.730	-0.080
2020/01/31 15:11:48.7	342.080	0.080	-0.740	-0.130
2020/01/31 15:11:48.8	342.090	0.060	-0.750	-0.180
2020/01/31 15:11:48.9	342.110	0.040	-0.750	-0.230
2020/01/31 15:11:49.0	342.130	0.020	-0.760	-0.280
2020/01/31 15:11:49.1	342.140	0.000	-0.760	-0.330
2020/01/31 15:11:49.2	342.160	-0.010	-0.750	-0.370
2020/01/31 15:11:49.3	342.180	-0.030	-0.740	-0.410
2020/01/31 15:11:49.4	342.200	-0.050	-0.730	-0.460
2020/01/31 15:11:49.5	342.230	-0.060	-0.720	-0.500
2020/01/31 15:11:49.6	342.260	-0.080	-0.700	-0.540
2020/01/31 15:11:49.7	342.290	-0.090	-0.680	-0.580
2020/01/31 15:11:49.8	342.320	-0.110	-0.650	-0.620
2020/01/31 15:11:49.9	342.350	-0.120	-0.620	-0.650
2020/01/31 15:11:50.0	342.380	-0.140	-0.590	-0.690
2020/01/31 15:11:50.1	342.410	-0.150	-0.560	-0.720
2020/01/31 15:11:50.2	342.440	-0.160	-0.520	-0.750
2020/01/31 15:11:50.3	342.470	-0.180	-0.480	-0.780
2020/01/31 15:11:50.4	342.500	-0.190	-0.440	-0.800
2020/01/31 15:11:50.5	342.520	-0.210	-0.390	-0.820
2020/01/31 15:11:50.6	342.550	-0.220	-0.350	-0.840
2020/01/31 15:11:50.7	342.580	-0.240	-0.300	-0.860
2020/01/31 15:11:50.8	342.600	-0.250	-0.250	-0.870
2020/01/31 15:11:50.9	342.630	-0.270	-0.200	-0.880
2020/01/31 15:11:51.0	342.650	-0.280	-0.150	-0.890
2020/01/31 15:11:51.1	342.660	-0.300	-0.100	-0.890
2020/01/31 15:11:51.2	342.680	-0.320	-0.050	-0.890
2020/01/31 15:11:51.3	342.690	-0.330	0.000	-0.880
2020/01/31 15:11:51.4	342.700	-0.350	0.050	-0.870
2020/01/31 15:11:51.5	342.710	-0.370	0.100	-0.860
2020/01/31 15:11:51.6	342.720	-0.380	0.140	-0.850
2020/01/31 15:11:51.7	342.730	-0.400	0.180	-0.830
2020/01/31 15:11:51.8	342.730	-0.410	0.220	-0.810
2020/01/31 15:11:51.9	342.730	-0.430	0.260	-0.790
2020/01/31 15:11:52.0	342.730	-0.440	0.290	-0.770
2020/01/31 15:11:52.1	342.740	-0.460	0.320	-0.750
2020/01/31 15:11:52.2	342.740	-0.470	0.340	-0.730
2020/01/31 15:11:52.3	342.730	-0.480	0.360	-0.700
2020/01/31 15:11:52.4	342.730	-0.490	0.380	-0.680
2020/01/31 15:11:52.5	342.730	-0.500	0.390	-0.650
2020/01/31 15:11:52.6	342.750	-0.500	0.390	-0.630
2020/01/31 15:11:52.7	342.740	-0.510	0.390	-0.600
2020/01/31 15:11:52.8	342.740	-0.510	0.390	-0.570
2020/01/31 15:11:52.9	342.740	-0.510	0.380	-0.550
2020/01/31 15:11:53.0	342.740	-0.510	0.370	-0.520
2020/01/31 15:11:53.1	342.740	-0.500	0.350	-0.490
2020/01/31 15:11:53.2	342.740	-0.490	0.330	-0.460
2020/01/31 15:11:53.3	342.740	-0.480	0.300	-0.430
2020/01/31 15:11:53.4	342.730	-0.460	0.280	-0.400
2020/01/31 15:11:53.5	342.730	-0.450	0.250	-0.370
2020/01/31 15:11:53.6	342.730	-0.420	0.210	-0.330
2020/01/31 15:11:53.7	342.720	-0.400	0.180	-0.300
2020/01/31 15:11:53.8	342.710	-0.370	0.150	-0.260
2020/01/31 15:11:53.9	342.700	-0.340	0.110	-0.210
2020/01/31 15:11:54.0	342.680	-0.310	0.080	-0.170
2020/01/31 15:11:54.1	342.660	-0.280	0.050	-0.120
2020/01/31 15:11:54.2	342.640	-0.240	0.010	-0.070
2020/01/31 15:11:54.3	342.620	-0.200	-0.020	-0.010
2020/01/31 15:11:54.4	342.590	-0.160	-0.050	0.040
2020/01/31 15:11:54.5	342.560	-0.110	-0.070	0.100
2020/01/31 15:11:54.6	342.520	-0.070	-0.100	0.160
2020/01/31 15:11:54.7	342.490	-0.020	-0.120	0.220
2020/01/31 15:11:54.8	342.450	0.020	-0.140	0.280
2020/01/31 15:11:54.9	342.410	0.070	-0.160	0.350
2020/01/31 15:11:55.0	342.380	0.120	-0.180	0.410
2020/01/31 15:11:55.1	342.340	0.160	-0.200	0.470
2020/01/31 15:11:55.2	342.300	0.210	-0.220	0.530
2020/01/31 15:11:55.3	342.260	0.250	-0.230	0.590
2020/01/31 15:11:55.4	342.230	0.290	-0.250	0.640
2020/01/31 15:11:55.5	342.200	0.340	-0.260	0.700
2020/01/31 15:11:55.6	342.160	0.380	-0.280	0.740
2020/01/31 15:11:55.7	342.130	0.410	-0.290	0.780
2020/01/31 15:11:55.8	342.110	0.450	-0.310	0.820
2020/01/31 15:11:55.9	342.090	0.480	-0.330	0.850
2020/01/31 15:11:56.0	342.070	0.510	-0.340	0.880
2020/01/31 15:11:56.1	342.050	0.540	-0.360	0.900
2020/01/31 15:11:56.2	342.040	0.560	-0.380	0.910
2020/01/31 15:11:56.3	342.030	0.580	-0.400	0.910
2020/01/31 15:11:56.4	342.020	0.600	-0.420	0.910
2020/01/31 15:11:56.5	342.020	0.610	-0.440	0.900
2020/01/31 15:11:56.6	342.010	0.620	-0.460	0.880
2020/01/31 15:11:56.7	342.010	0.630	-0.490	0.860
2020/01/31 15:11:56.8	342.020	0.630	-0.510	0.840
2020/01/31 15:11:56.9	342.030	0.630	-0.530	0.800
2020/01/31 15:11:57.0	342.040	0.620	-0.550	0.770
2020/01/31 15:11:57.1	342.060	0.610	-0.580	0.720
2020/01/31 15:11:57.2	342.080	0.600	-0.600	0.680
2020/01/31 15:11:57.3	342.110	0.580	-0.620	0.620
2020/01/31 15:11:57.4	342.130	0.560	-0.640	0.570
2020/01/31 15:11:57.5	342.160	0.540	-0.660	0.510
2020/01/31 15:11:57.6	342.190	0.510	-0.680	0.450
2020/01/31 15:11:57.7	342.230	0.480	-0.690	0.380
2020/01/31 15:11:57.8	342.270	0.440	-0.700	0.320
2020/01/31 15:11:57.9	342.300	0.410	-0.720	0.250
2020/01/31 15:11:58.0	342.340	0.370	-0.720	0.180
2020/01/31 15:11:58.1	342.390	0.330	-0.730	0.110
2020/01/31 15:11:58.2	342.430	0.280	-0.730	0.030
2020/01/31 15:11:58.3	342.470	0.230	-0.740	-0.040
2020/01/31 15:11:58.4	342.510	0.190	-0.730	-0.110
2020/01/31 15:11:58.5	342.560	0.140	-0.730	-0.170
2020/01/31 15:11:58.6	342.590	0.090	-0.720	-0.250
2020/01/31 15:11:58.7	342.630	0.040	-0.700	-0.310
2020/01/31 15:11:58.8	342.670	-0.010	-0.690	-0.370
2020/01/31 15:11:58.9	342.710	-0.060	-0.660	-0.420
2020/01/31 15:11:59.0	342.740	-0.110	-0.640	-0.470
2020/01/31 15:11:59.1	342.770	-0.160	-0.610	-0.510
2020/01/31 15:11:59.2	342.800	-0.200	-0.580	-0.550
2020/01/31 15:11:59.3	342.830	-0.250	-0.540	-0.590
2020/01/31 15:11:59.4	342.850	-0.290	-0.500	-0.610
2020/01/31 15:11:59.5	342.880	-0.330	-0.460	-0.640
2020/01/31 15:11:59.6	342.890	-0.370	-0.420	-0.650
2020/01/31 15:11:59.7	342.900	-0.410	-0.370	-0.660
2020/01/31 15:11:59.8	342.920	-0.440	-0.320	-0.670
2020/01/31 15:11:59.9	342.930	-0.470	-0.270	-0.670
2020/01/31 15:12:00.0	342.940	-0.500	-0.230	-0.660
2020/01/31 15:12:00.1	342.940	-0.520	-0.180	-0.650
2020/01/31 15:12:00.2	342.950	-0.540	-0.130	-0.640
2020/01/31 15:12:00.3	342.950	-0.550	-0.080	-0.620
2020/01/31 15:12:00.4	342.950	-0.560	-0.030	-0.600
2020/01/31 15:12:00.5	342.950	-0.570	0.020	-0.580
2020/01/31 15:12:00.6	342.960	-0.570	0.060	-0.550
2020/01/31 15:12:00.7	342.950	-0.570	0.100	-0.520
2020/01/31 15:12:00.8	342.940	-0.560	0.140	-0.490
2020/01/31 15:12:00.9	342.940	-0.550	0.180	-0.460
2020/01/31 15:12:01.0	342.920	-0.530	0.210	-0.420
2020/01/31 15:12:01.1	342.910	-0.510	0.240	-0.380
2020/01/31 15:12:01.2	342.900	-0.480	0.260	-0.340
2020/01/31 15:12:01.3	342.880	-0.450	0.280	-0.300
2020/01/31 15:12:01.4	342.860	-0.420	0.300	-0.260
2020/01/31 15:12:01.5	342.840	-0.380	0.310	-0.210
2020/01/31 15:12:01.6	342.820	-0.340	0.320	-0.160
2020/01/31 15:12:01.7	342.800	-0.300	0.320	-0.110
2020/01/31 15:12:01.8	342.780	-0.260	0.320	-0.060
2020/01/31 15:12:01.9	342.750	-0.210	0.320	-0.010
2020/01/31 15:12:02.0	342.730	-0.160	0.310	0.030
2020/01/31 15:12:02.1	342.700	-0.110	0.300	0.080
2020/01/31 15:12:02.2	342.680	-0.070	0.290	0.130
2020/01/31 15:12:02.3	342.650	-0.020	0.270	0.170
2020/01/31 15:12:02.4	342.620	0.030	0.250	0.220
2020/01/31 15:12:02.5	342.600	0.070	0.230	0.260
2020/01/31 15:12:02.6	342.570	0.120	0.210	0.300
2020/01/31 15:12:02.7	342.540	0.160	0.180	0.340
2020/01/31 15:12:02.8	342.520	0.200	0.150	0.370
2020/01/31 15:12:02.9	342.490	0.230	0.120	0.400
2020/01/31 15:12:03.0	342.470	0.270	0.080	0.430
2020/01/31 15:12:03.1	342.450	0.300	0.050	0.450
2020/01/31 15:12:03.2	342.430	0.320	0.010	0.470
2020/01/31 15:12:03.3	342.420	0.350	-0.030	0.490
2020/01/31 15:12:03.4	342.400	0.360	-0.080	0.500
2020/01/31 15:12:03.5	342.390	0.380	-0.120	0.500
2020/01/31 15:12:03.6	342.380	0.390	-0.170	0.500
2020/01/31 15:12:03.7	342.370	0.400	-0.220	0.500
2020/01/31 15:12:03.8	342.370	0.400	-0.270	0.490
2020/01/31 15:12:03.9	342.370	0.400	-0.320	0.480
2020/01/31 15:12:04.0	342.380	0.400	-0.370	0.460
2020/01/31 15:12:04.1	342.390	0.390	-0.420	0.440
2020/01/31 15:12:04.2	342.400	0.380	-0.470	0.410
2020/01/31 15:12:04.3	342.410	0.370	-0.520	0.380
2020/01/31 15:12:04.4	342.430	0.350	-0.570	0.350
2020/01/31 15:12:04.5	342.450	0.340	-0.610	0.310
2020/01/31 15:12:04.6	342.480	0.310	-0.660	0.270
2020/01/31 15:12:04.7	342.510	0.290	-0.710	0.230
2020/01/31 15:12:04.8	342.550	0.270	-0.750	0.190
2020/01/31 15:12:04.9	342.580	0.240	-0.790	0.140
2020/01/31 15:12:05.0	342.620	0.210	-0.830	0.090
2020/01/31 15:12:05.1	342.650	0.190	-0.860	0.040
2020/01/31 15:12:05.2	342.690	0.160	-0.890	-0.010
2020/01/31 15:12:05.3	342.730	0.130	-0.920	-0.060
2020/01/31 15:12:05.4	342.770	0.100	-0.940	-0.110
2020/01/31 15:12:05.5	342.810	0.070	-0.950	-0.160
2020/01/31 15:12:05.6	342.840	0.040	-0.960	-0.210
2020/01/31 15:12:05.7	342.880	0.010	-0.970	-0.260
2020/01/31 15:12:05.8	342.920	-0.020	-0.970	-0.300
2020/01/31 15:12:05.9	342.950	-0.040	-0.970	-0.350
2020/01/31 15:12:06.0	342.990	-0.060	-0.960	-0.380
2020/01/31 15:12:06.1	343.020	-0.090	-0.950	-0.420
2020/01/31 15:12:06.2	343.060	-0.110	-0.930	-0.450
2020/01/31 15:12:06.3	343.090	-0.120	-0.900	-0.480
2020/01/31 15:12:06.4	343.120	-0.140	-0.870	-0.500
2020/01/31 15:12:06.5	343.140	-0.150	-0.840	-0.520
2020/01/31 15:12:06.6	343.170	-0.160	-0.800	-0.530
2020/01/31 15:12:06.7	343.190	-0.170	-0.760	-0.550
2020/01/31 15:12:06.8	343.220	-0.170	-0.720	-0.550
2020/01/31 15:12:06.9	343.240	-0.180	-0.670	-0.560
2020/01/31 15:12:07.0	343.260	-0.180	-0.620	-0.560
2020/01/31 15:12:07.1	343.270	-0.170	-0.560	-0.550
2020/01/31 15:12:07.2	343.290	-0.170	-0.510	-0.550
2020/01/31 15:12:07.3	343.310	-0.160	-0.450	-0.540
2020/01/31 15:12:07.4	343.320	-0.160	-0.390	-0.530
2020/01/31 15:12:07.5	343.330	-0.150	-0.340	-0.520
2020/01/31 15:12:07.6	343.350	-0.140	-0.280	-0.500
2020/01/31 15:12:07.7	343.360	-0.120	-0.220	-0.490
2020/01/31 15:12:07.8	343.370	-0.110	-0.170	-0.470
2020/01/31 15:12:07.9	343.380	-0.100	-0.120	-0.460
2020/01/31 15:12:08.0	343.390	-0.080	-0.070	-0.440
2020/01/31 15:12:08.1	343.400	-0.070	-0.020	-0.430
2020/01/31 15:12:08.2	343.400	-0.060	0.020	-0.410
2020/01/31 15:12:08.3	343.410	-0.040	0.070	-0.400
2020/01/31 15:12:08.4	343.410	-0.030	0.110	-0.380
2020/01/31 15:12:08.5	343.420	-0.020	0.140	-0.370
2020/01/31 15:12:08.6	343.410	-0.000	0.170	-0.350
2020/01/31 15:12:08.7	343.410	0.010	0.200	-0.340
2020/01/31 15:12:08.8	343.410	0.020	0.230	-0.320
2020/01/31 15:12:08.9	343.410	0.020	0.250	-0.310
2020/01/31 15:12:09.0	343.410	0.030	0.270	-0.290
2020/01/31 15:12:09.1	343.410	0.030	0.290	-0.280
2020/01/31 15:12:09.2	343.410	0.040	0.310	-0.260
2020/01/31 15:12:09.3	343.400	0.040	0.320	-0.240
2020/01/31 15:12:09.4	343.390	0.040	0.330	-0.230
2020/01/31 15:12:09.5	343.390	0.030	0.340	-0.210
2020/01/31 15:12:09.6	343.380	0.030	0.350	-0.190
2020/01/31 15:12:09.7	343.370	0.020	0.360	-0.170
2020/01/31 15:12:09.8	343.360	0.010	0.360	-0.150
2020/01/31 15:12:09.9	343.350	0.000	0.360	-0.130
2020/01/31 15:12:10.0	343.330	-0.010	0.370	-0.120
2020/01/31 15:12:10.1	343.320	-0.030	0.370	-0.100
2020/01/31 15:12:10.2	343.300	-0.050	0.370	-0.080
2020/01/31 15:12:10.3	343.280	-0.070	0.370	-0.060
2020/01/31 15:12:10.4	343.270	-0.090	0.360	-0.040
2020/01/31 15:12:10.5	343.250	-0.110	0.360	-0.020
2020/01/31 15:12:10.6	343.220	-0.130	0.360	-0.010
2020/01/31 15:12:10.7	343.200	-0.150	0.360	0.010
2020/01/31 15:12:10.8	343.180	-0.180	0.350	0.030
2020/01/31 15:12:10.9	343.160	-0.200	0.340	0.050
2020/01/31 15:12:11.0	343.140	-0.220	0.340	0.070
2020/01/31 15:12:11.1	343.120	-0.240	0.330	0.090
2020/01/31 15:12:11.2	343.100	-0.260	0.320	0.110
2020/01/31 15:12:11.3	343.090	-0.280	0.300	0.130
2020/01/31 15:12:11.4	343.070	-0.300	0.290	0.140
2020/01/31 15:12:11.5	343.060	-0.310	0.270	0.160
2020/01/31 15:12:11.6	343.050	-0.320	0.250	0.170
2020/01/31 15:12:11.7	343.040	-0.330	0.220	0.190
2020/01/31 15:12:11.8	343.040	-0.340	0.200	0.200
2020/01/31 15:12:11.9	343.030	-0.340	0.170	0.220
2020/01/31 15:12:12.0	343.030	-0.330	0.130	0.230
2020/01/31 15:12:12.1	343.030	-0.330	0.100	0.240
2020/01/31 15:12:12.2	343.030	-0.320	0.060	0.250
2020/01/31 15:12:12.3	343.030	-0.300	0.020	0.260
2020/01/31 15:12:12.4	343.030	-0.280	-0.020	0.260
2020/01/31 15:12:12.5	343.030	-0.260	-0.060	0.270
2020/01/31 15:12:12.6	343.050	-0.240	-0.110	0.270
2020/01/31 15:12:12.7	343.050	-0.210	-0.160	0.280
2020/01/31 15:12:12.8	343.060	-0.180	-0.200	0.280
2020/01/31 15:12:12.9	343.070	-0.140	-0.250	0.280
2020/01/31 15:12:13.0	343.070	-0.100	-0.310	0.290
2020/01/31 15:12:13.1	343.080	-0.060	-0.360	0.290
2020/01/31 15:12:13.2	343.090	-0.020	-0.410	0.280
2020/01/31 15:12:13.3	343.100	0.030	-0.460	0.280
2020/01/31 15:12:13.4	343.110	0.070	-0.520	0.280
2020/01/31 15:12:13.5	343.120	0.120	-0.570	0.270
2020/01/31 15:12:13.6	343.130	0.170	-0.620	0.260
2020/01/31 15:12:13.7	343.150	0.220	-0.670	0.250
2020/01/31 15:12:13.8	343.160	0.270	-0.720	0.240
2020/01/31 15:12:13.9	343.170	0.320	-0.770	0.230
2020/01/31 15:12:14.0	343.190	0.360	-0.820	0.220
2020/01/31 15:12:14.1	343.200	0.410	-0.870	0.210
2020/01/31 15:12:14.2	343.220	0.450	-0.910	0.190
2020/01/31 15:12:14.3	343.240	0.490	-0.950	0.180
2020/01/31 15:12:14.4	343.250	0.530	-0.990	0.160
2020/01/31 15:12:14.5	343.270	0.570	-1.020	0.150
2020/01/31 15:12:14.6	343.280	0.600	-1.060	0.130
2020/01/31 15:12:14.7	343.300	0.630	-1.090	0.110
2020/01/31 15:12:14.8	343.320	0.660	-1.110	0.090
2020/01/31 15:12:14.9	343.340	0.680	-1.140	0.070
2020/01/31 15:12:15.0	343.360	0.700	-1.160	0.040
2020/01/31 15:12:15.1	343.380	0.710	-1.170	0.020
2020/01/31 15:12:15.2	343.400	0.720	-1.190	-0.010
2020/01/31 15:12:15.3	343.420	0.730	-1.200	-0.030
2020/01/31 15:12:15.4	343.440	0.730	-1.200	-0.060
2020/01/31 15:12:15.5	343.460	0.720	-1.200	-0.090
2020/01/31 15:12:15.6	343.490	0.710	-1.200	-0.120
2020/01/31 15:12:15.7	343.510	0.700	-1.190	-0.160
2020/01/31 15:12:15.8	343.540	0.680	-1.180	-0.190
2020/01/31 15:12:15.9	343.560	0.660	-1.170	-0.230
2020/01/31 15:12:16.0	343.590	0.630	-1.150	-0.260
2020/01/31 15:12:16.1	343.610	0.600	-1.120	-0.300
2020/01/31 15:12:16.2	343.640	0.570	-1.090	-0.340
2020/01/31 15:12:16.3	343.660	0.530	-1.060	-0.380
2020/01/31 15:12:16.4	343.690	0.490	-1.020	-0.410
2020/01/31 15:12:16.5	343.720	0.440	-0.980	-0.450
2020/01/31 15:12:16.6	343.750	0.400	-0.930	-0.490
2020/01/31 15:12:16.7	343.780	0.350	-0.880	-0.530
2020/01/31 15:12:16.8	343.800	0.300	-0.830	-0.570
2020/01/31 15:12:16.9	343.830	0.240	-0.770	-0.610
2020/01/31 15:12:17.0	343.850	0.190	-0.710	-0.640
2020/01/31 15:12:17.1	343.870	0.130	-0.640	-0.680
2020/01/31 15:12:17.2	343.890	0.070	-0.570	-0.710
2020/01/31 15:12:17.3	343.920	0.010	-0.500	-0.740
2020/01/31 15:12:17.4	343.940	-0.050	-0.420	-0.770
2020/01/31 15:12:17.5	343.950	-0.110	-0.350	-0.800
2020/01/31 15:12:17.6	343.970	-0.170	-0.270	-0.830
2020/01/31 15:12:17.7	343.990	-0.220	-0.190	-0.850
2020/01/31 15:12:17.8	344.000	-0.280	-0.110	-0.880
2020/01/31 15:12:17.9	344.020	-0.340	-0.030	-0.900
2020/01/31 15:12:18.0	344.030	-0.390	0.050	-0.920
2020/01/31 15:12:18.1	344.040	-0.450	0.130	-0.940
2020/01/31 15:12:18.2	344.050	-0.500	0.210	-0.960
2020/01/31 15:12:18.3	344.060	-0.550	0.290	-0.980
2020/01/31 15:12:18.4	344.070	-0.590	0.370	-1.000
2020/01/31 15:12:18.5	344.080	-0.640	0.440	-1.010
2020/01/31 15:12:18.6	344.090	-0.670	0.520	-1.030
2020/01/31 15:12:18.7	344.090	-0.710	0.590	-1.040
2020/01/31 15:12:18.8	344.100	-0.740	0.650	-1.040
2020/01/31 15:12:18.9	344.110	-0.770	0.710	-1.050
2020/01/31 15:12:19.0	344.110	-0.790	0.760	-1.050
2020/01/31 15:12:19.1	344.110	-0.810	0.810	-1.050
2020/01/31 15:12:19.2	344.110	-0.830	0.860	-1.040
2020/01/31 15:12:19.3	344.110	-0.840	0.900	-1.030
2020/01/31 15:12:19.4	344.110	-0.840	0.930	-1.020
2020/01/31 15:12:19.5	344.110	-0.840	0.960	-1.000
2020/01/31 15:12:19.6	344.120	-0.840	0.980	-0.980
2020/01/31 15:12:19.7	344.110	-0.830	1.000	-0.950
2020/01/31 15:12:19.8	344.110	-0.820	1.010	-0.920
2020/01/31 15:12:19.9	344.100	-0.800	1.010	-0.890
2020/01/31 15:12:20.0	344.090	-0.780	1.010	-0.850
2020/01/31 15:12:20.1	344.070	-0.760	1.010	-0.810
2020/01/31 15:12:20.2	344.060	-0.730	0.990	-0.770
2020/01/31 15:12:20.3	344.040	-0.700	0.970	-0.720
2020/01/31 15:12:20.4	344.030	-0.660	0.950	-0.680
2020/01/31 15:12:20.5	344.010	-0.620	0.920	-0.630
2020/01/31 15:12:20.6	344.010	-0.580	0.890	-0.580
2020/01/31 15:12:20.7	343.990	-0.540	0.840	-0.530
2020/01/31 15:12:20.8	343.960	-0.490	0.790	-0.480
2020/01/31 15:12:20.9	343.940	-0.450	0.730	-0.430
2020/01/31 15:12:21.0	343.920	-0.400	0.670	-0.380
2020/01/31 15:12:21.1	343.900	-0.350	0.600	-0.330
2020/01/31 15:12:21.2	343.870	-0.300	0.530	-0.280
2020/01/31 15:12:21.3	343.850	-0.250	0.450	-0.230
2020/01/31 15:12:21.4	343.830	-0.190	0.370	-0.180
2020/01/31 15:12:21.5	343.800	-0.140	0.280	-0.130
2020/01/31 15:12:21.6	343.780	-0.090	0.190	-0.090
2020/01/31 15:12:21.7	343.760	-0.040	0.090	-0.050
2020/01/31 15:12:21.8	343.740	0.020	-0.000	-0.010
2020/01/31 15:12:21.9	343.720	0.070	-0.100	0.030
2020/01/31 15:12:22.0	343.700	0.120	-0.210	0.070
2020/01/31 15:12:22.1	343.690	0.170	-0.310	0.100
2020/01/31 15:12:22.2	343.670	0.210	-0.410	0.130
2020/01/31 15:12:22.3	343.660	0.260	-0.510	0.160
2020/01/31 15:12:22.4	343.650	0.300	-0.610	0.180
2020/01/31 15:12:22.5	343.640	0.340	-0.710	0.210
2020/01/31 15:12:22.6	343.620	0.380	-0.800	0.220
2020/01/31 15:12:22.7	343.610	0.420	-0.890	0.240
2020/01/31 15:12:22.8	343.610	0.460	-0.980	0.260
2020/01/31 15:12:22.9	343.610	0.490	-1.060	0.270
2020/01/31 15:12:23.0	343.620	0.520	-1.140	0.280
2020/01/31 15:12:23.1	343.620	0.540	-1.210	0.280
2020/01/31 15:12:23.2	343.630	0.570	-1.270	0.290
2020/01/31 15:12:23.3	343.640	0.590	-1.330	0.290
2020/01/31 15:12:23.4	343.650	0.610	-1.370	0.290
2020/01/31 15:12:23.5	343.660	0.620	-1.420	0.290
2020/01/31 15:12:23.6	343.670	0.630	-1.450	0.290
2020/01/31 15:12:23.7	343.690	0.640	-1.470	0.290
2020/01/31 15:12:23.8	343.710	0.640	-1.490	0.280
2020/01/31 15:12:23.9	343.720	0.640	-1.490	0.270
2020/01/31 15:12:24.0	343.740	0.640	-1.490	0.260
2020/01/31 15:12:24.1	343.760	0.640	-1.480	0.250
2020/01/31 15:12:24.2	343.790	0.630	-1.470	0.240
2020/01/31 15:12:24.3	343.810	0.620	-1.440	0.230
2020/01/31 15:12:24.4	343.830	0.600	-1.410	0.210
2020/01/31 15:12:24.5	343.860	0.590	-1.380	0.190
2020/01/31 15:12:24.6	343.870	0.570	-1.330	0.170
2020/01/31 15:12:24.7	343.900	0.540	-1.290	0.150
2020/01/31 15:12:24.8	343.930	0.520	-1.230	0.120
2020/01/31 15:12:24.9	343.950	0.490	-1.180	0.100
2020/01/31 15:12:25.0	343.980	0.460	-1.120	0.070
2020/01/31 15:12:25.1	344.010	0.430	-1.050	0.040
2020/01/31 15:12:25.2	344.040	0.400	-0.990	0.010
2020/01/31 15:12:25.3	344.070	0.370	-0.920	-0.010
2020/01/31 15:12:25.4	344.100	0.330	-0.850	-0.040
2020/01/31 15:12:25.5	344.120	0.300	-0.770	-0.070
2020/01/31 15:12:25.6	344.150	0.260	-0.700	-0.110
2020/01/31 15:12:25.7	344.180	0.230	-0.630	-0.140
2020/01/31 15:12:25.8	344.200	0.190	-0.550	-0.170
2020/01/31 15:12:25.9	344.230	0.160	-0.480	-0.190
2020/01/31 15:12:26.0	344.250	0.120	-0.410	-0.220
2020/01/31 15:12:26.1	344.280	0.090	-0.330	-0.250
2020/01/31 15:12:26.2	344.300	0.060	-0.260	-0.270
2020/01/31 15:12:26.3	344.320	0.030	-0.190	-0.290
2020/01/31 15:12:26.4	344.340	0.000	-0.120	-0.310
2020/01/31 15:12:26.5	344.360	-0.030	-0.060	-0.330
2020/01/31 15:12:26.6	344.380	-0.050	0.010	-0.350
2020/01/31 15:12:26.7	344.390	-0.070	0.070	-0.360
2020/01/31 15:12:26.8	344.410	-0.090	0.130	-0.370
2020/01/31 15:12:26.9	344.410	-0.100	0.190	-0.370
2020/01/31 15:12:27.0	344.420	-0.120	0.240	-0.370
2020/01/31 15:12:27.1	344.430	-0.130	0.290	-0.370
2020/01/31 15:12:27.2	344.430	-0.130	0.330	-0.370
2020/01/31 15:12:27.3	344.430	-0.140	0.370	-0.360
2020/01/31 15:12:27.4	344.430	-0.140	0.410	-0.350
2020/01/31 15:12:27.5	344.430	-0.130	0.440	-0.340
2020/01/31 15:12:27.6	344.430	-0.130	0.470	-0.330
2020/01/31 15:12:27.7	344.430	-0.120	0.490	-0.310
2020/01/31 15:12:27.8	344.430	-0.110	0.500	-0.300
2020/01/31 15:12:27.9	344.430	-0.100	0.510	-0.280
2020/01/31 15:12:28.0	344.430	-0.090	0.520	-0.270
2020/01/31 15:12:28.1	344.430	-0.070	0.520	-0.250
2020/01/31 15:12:28.2	344.430	-0.050	0.510	-0.240
2020/01/31 15:12:28.3	344.430	-0.040	0.500	-0.230
2020/01/31 15:12:28.4	344.430	-0.020	0.480	-0.220
2020/01/31 15:12:28.5	344.430	0.000	0.460	-0.210
2020/01/31 15:12:28.6	344.430	0.020	0.430	-0.200
2020/01/31 15:12:28.7	344.440	0.040	0.400	-0.200
2020/01/31 15:12:28.8	344.440	0.060	0.360	-0.190
2020/01/31 15:12:28.9	344.450	0.070	0.320	-0.190
2020/01/31 15:12:29.0	344.460	0.090	0.280	-0.180
2020/01/31 15:12:29.1	344.460	0.110	0.240	-0.180
2020/01/31 15:12:29.2	344.470	0.120	0.190	-0.180
2020/01/31 15:12:29.3	344.480	0.130	0.140	-0.180
2020/01/31 15:12:29.4	344.500	0.140	0.100	-0.170
2020/01/31 15:12:29.5	344.510	0.140	0.050	-0.170
2020/01/31 15:12:29.6	344.520	0.150	0.000	-0.170
2020/01/31 15:12:29.7	344.530	0.150	-0.050	-0.170
2020/01/31 15:12:29.8	344.550	0.150	-0.090	-0.170
2020/01/31 15:12:29.9	344.560	0.140	-0.130	-0.160
2020/01/31 15:12:30.0	344.570	0.130	-0.170	-0.160
2020/01/31 15:12:30.1	344.580	0.120	-0.210	-0.160
2020/01/31 15:12:30.2	344.590	0.110	-0.240	-0.160
2020/01/31 15:12:30.3	344.600	0.090	-0.270	-0.160
2020/01/31 15:12:30.4	344.600	0.070	-0.300	-0.160
2020/01/31 15:12:30.5	344.610	0.050	-0.320	-0.160
2020/01/31 15:12:30.6	344.610	0.020	-0.330	-0.160
2020/01/31 15:12:30.7	344.620	-0.010	-0.350	-0.160
2020/01/31 15:12:30.8	344.620	-0.040	-0.350	-0.170
2020/01/31 15:12:30.9	344.620	-0.070	-0.360	-0.170
2020/01/31 15:12:31.0	344.620	-0.110	-0.350	-0.170
2020/01/31 15:12:31.1	344.620	-0.140	-0.350	-0.170
2020/01/31 15:12:31.2	344.620	-0.180	-0.340	-0.180
2020/01/31 15:12:31.3	344.610	-0.220	-0.320	-0.180
2020/01/31 15:12:31.4	344.610	-0.260	-0.310	-0.180
2020/01/31 15:12:31.5	344.600	-0.300	-0.280	-0.180
2020/01/31 15:12:31.6	344.580	-0.330	-0.260	-0.190
2020/01/31 15:12:31.7	344.570	-0.370	-0.230	-0.190
2020/01/31 15:12:31.8	344.550	-0.410	-0.200	-0.190
2020/01/31 15:12:31.9	344.540	-0.450	-0.180	-0.190
2020/01/31 15:12:32.0	344.520	-0.480	-0.150	-0.180
2020/01/31 15:12:32.1	344.510	-0.510	-0.120	-0.180
2020/01/31 15:12:32.2	344.490	-0.540	-0.080	-0.180
2020/01/31 15:12:32.3	344.470	-0.570	-0.060	-0.180
2020/01/31 15:12:32.4	344.450	-0.590	-0.030	-0.180
2020/01/31 15:12:32.5	344.430	-0.610	-0.000	-0.180
2020/01/31 15:12:32.6	344.410	-0.630	0.020	-0.180
2020/01/31 15:12:32.7	344.390	-0.650	0.040	-0.180
2020/01/31 15:12:32.8	344.370	-0.660	0.060	-0.180
2020/01/31 15:12:32.9	344.350	-0.660	0.070	-0.180
2020/01/31 15:12:33.0	344.340	-0.670	0.080	-0.190
2020/01/31 15:12:33.1	344.320	-0.670	0.090	-0.190
2020/01/31 15:12:33.2	344.300	-0.660	0.090	-0.190
2020/01/31 15:12:33.3	344.290	-0.650	0.090	-0.190
2020/01/31 15:12:33.4	344.270	-0.630	0.080	-0.190
2020/01/31 15:12:33.5	344.260	-0.620	0.070	-0.190
2020/01/31 15:12:33.6	344.260	-0.590	0.060	-0.190
2020/01/31 15:12:33.7	344.240	-0.560	0.040	-0.190
2020/01/31 15:12:33.8	344.230	-0.530	0.010	-0.190
2020/01/31 15:12:33.9	344.220	-0.500	-0.020	-0.190
2020/01/31 15:12:34.0	344.220	-0.460	-0.050	-0.180
2020/01/31 15:12:34.1	344.210	-0.420	-0.090	-0.180
2020/01/31 15:12:34.2	344.200	-0.370	-0.130	-0.180
2020/01/31 15:12:34.3	344.200	-0.320	-0.180	-0.180
2020/01/31 15:12:34.4	344.200	-0.270	-0.230	-0.180
2020/01/31 15:12:34.5	344.200	-0.220	-0.280	-0.180
2020/01/31 15:12:34.6	344.200	-0.160	-0.330	-0.170
2020/01/31 15:12:34.7	344.200	-0.100	-0.390	-0.180
2020/01/31 15:12:34.8	344.210	-0.040	-0.440	-0.180
2020/01/31 15:12:34.9	344.220	0.010	-0.500	-0.180
2020/01/31 15:12:35.0	344.230	0.070	-0.560	-0.180
2020/01/31 15:12:35.1	344.250	0.130	-0.620	-0.180
2020/01/31 15:12:35.2	344.260	0.190	-0.670	-0.190
2020/01/31 15:12:35.3	344.280	0.250	-0.730	-0.190
2020/01/31 15:12:35.4	344.300	0.300	-0.780	-0.190
2020/01/31 15:12:35.5	344.320	0.360	-0.830	-0.190
2020/01/31 15:12:35.6	344.340	0.410	-0.880	-0.200
2020/01/31 15:12:35.7	344.360	0.460	-0.920	-0.200
2020/01/31 15:12:35.8	344.390	0.500	-0.960	-0.200
2020/01/31 15:12:35.9	344.420	0.550	-0.990	-0.200
2020/01/31 15:12:36.0	344.450	0.590	-1.020	-0.200
2020/01/31 15:12:36.1	344.480	0.620	-1.050	-0.190
2020/01/31 15:12:36.2	344.510	0.650	-1.070	-0.190
2020/01/31 15:12:36.3	344.540	0.680	-1.080	-0.180
2020/01/31 15:12:36.4	344.570	0.710	-1.090	-0.170
2020/01/31 15:12:36.5	344.600	0.730	-1.090	-0.160
2020/01/31 15:12:36.6	344.620	0.740	-1.080	-0.150
2020/01/31 15:12:36.7	344.660	0.750	-1.070	-0.140
2020/01/31 15:12:36.8	344.690	0.760	-1.060	-0.130
2020/01/31 15:12:36.9	344.720	0.760	-1.030	-0.110
2020/01/31 15:12:37.0	344.750	0.760	-1.010	-0.100
2020/01/31 15:12:37.1	344.790	0.750	-0.970	-0.090
2020/01/31 15:12:37.2	344.820	0.740	-0.940	-0.080
2020/01/31 15:12:37.3	344.850	0.730	-0.890	-0.060
2020/01/31 15:12:37.4	344.880	0.710	-0.840	-0.050
2020/01/31 15:12:37.5	344.910	0.680	-0.790	-0.040
2020/01/31 15:12:37.6	344.930	0.650	-0.740	-0.030
2020/01/31 15:12:37.7	344.950	0.620	-0.680	-0.020
2020/01/31 15:12:37.8	344.980	0.590	-0.620	-0.010
2020/01/31 15:12:37.9	345.000	0.550	-0.560	-0.010
2020/01/31 15:12:38.0	345.030	0.510	-0.490	-0.000
2020/01/31 15:12:38.1	345.050	0.470	-0.420	0.000
2020/01/31 15:12:38.2	345.070	0.430	-0.360	0.000
2020/01/31 15:12:38.3	345.090	0.380	-0.290	0.010
2020/01/31 15:12:38.4	345.110	0.340	-0.220	0.010
2020/01/31 15:12:38.5	345.130	0.290	-0.160	0.010
2020/01/31 15:12:38.6	345.150	0.240	-0.090	0.010
2020/01/31 15:12:38.7	345.160	0.190	-0.030	0.010
2020/01/31 15:12:38.8	345.180	0.150	0.030	0.000
2020/01/31 15:12:38.9	345.190	0.100	0.080	-0.000
2020/01/31 15:12:39.0	345.200	0.060	0.140	-0.000
2020/01/31 15:12:39.1	345.210	0.010	0.190	-0.010
2020/01/31 15:12:39.2	345.220	-0.030	0.230	-0.020
2020/01/31 15:12:39.3	345.230	-0.070	0.270	-0.020
2020/01/31 15:12:39.4	345.240	-0.110	0.310	-0.030
2020/01/31 15:12:39.5	345.250	-0.150	0.340	-0.040
2020/01/31 15:12:39.6	345.250	-0.180	0.360	-0.050
2020/01/31 15:12:39.7	345.260	-0.210	0.380	-0.070
2020/01/31 15:12:39.8	345.270	-0.240	0.400	-0.080
2020/01/31 15:12:39.9	345.270	-0.260	0.410	-0.090
2020/01/31 15:12:40.0	345.280	-0.280	0.410	-0.110
2020/01/31 15:12:40.1	345.280	-0.300	0.410	-0.120
2020/01/31 15:12:40.2	345.290	-0.320	0.410	-0.140
2020/01/31 15:12:40.3	345.290	-0.330	0.400	-0.160
2020/01/31 15:12:40.4	345.300	-0.340	0.380	-0.170
2020/01/31 15:12:40.5	345.300	-0.340	0.370	-0.190
2020/01/31 15:12:40.6	345.300	-0.340	0.350	-0.210
2020/01/31 15:12:40.7	345.300	-0.340	0.330	-0.230
2020/01/31 15:12:40.8	345.310	-0.330	0.300	-0.250
2020/01/31 15:12:40.9	345.310	-0.330	0.270	-0.270
2020/01/31 15:12:41.0	345.320	-0.320	0.240	-0.290
2020/01/31 15:12:41.1	345.320	-0.300	0.210	-0.310
2020/01/31 15:12:41.2	345.330	-0.290	0.180	-0.320
2020/01/31 15:12:41.3	345.330	-0.270	0.150	-0.340
2020/01/31 15:12:41.4	345.330	-0.260	0.120	-0.350
2020/01/31 15:12:41.5	345.330	-0.240	0.090	-0.370
2020/01/31 15:12:41.6	345.330	-0.220	0.060	-0.380
2020/01/31 15:12:41.7	345.340	-0.200	0.030	-0.390
2020/01/31 15:12:41.8	345.330	-0.170	0.000	-0.390
2020/01/31 15:12:41.9	345.330	-0.150	-0.020	-0.400
2020/01/31 15:12:42.0	345.330	-0.130	-0.050	-0.400
2020/01/31 15:12:42.1	345.320	-0.110	-0.070	-0.400
2020/01/31 15:12:42.2	345.320	-0.090	-0.090	-0.400
2020/01/31 15:12:42.3	345.310	-0.070	-0.110	-0.390
2020/01/31 15:12:42.4	345.300	-0.060	-0.130	-0.380
2020/01/31 15:12:42.5	345.290	-0.040	-0.140	-0.380
2020/01/31 15:12:42.6	345.280	-0.030	-0.150	-0.360
2020/01/31 15:12:42.7	345.270	-0.010	-0.170	-0.350
2020/01/31 15:12:42.8	345.250	-0.000	-0.180	-0.330
2020/01/31 15:12:42.9	345.240	0.010	-0.180	-0.320
2020/01/31 15:12:43.0	345.220	0.020	-0.190	-0.300
2020/01/31 15:12:43.1	345.200	0.020	-0.190	-0.280
2020/01/31 15:12:43.2	345.180	0.030	-0.200	-0.260
2020/01/31 15:12:43.3	345.160	0.030	-0.200	-0.240
2020/01/31 15:12:43.4	345.140	0.030	-0.200	-0.220
2020/01/31 15:12:43.5	345.120	0.030	-0.190	-0.200
2020/01/31 15:12:43.6	345.090	0.030	-0.190	-0.170
2020/01/31 15:12:43.7	345.060	0.030	-0.190	-0.150
2020/01/31 15:12:43.8	345.040	0.020	-0.190	-0.130
2020/01/31 15:12:43.9	345.020	0.020	-0.180	-0.110
2020/01/31 15:12:44.0	344.990	0.010	-0.180	-0.090
2020/01/31 15:12:44.1	344.970	0.010	-0.170	-0.070
2020/01/31 15:12:44.2	344.950	0.000	-0.170	-0.060
2020/01/31 15:12:44.3	344.930	-0.010	-0.170	-0.040
2020/01/31 15:12:44.4	344.910	-0.010	-0.160	-0.030
2020/01/31 15:12:44.5	344.890	-0.020	-0.160	-0.020
2020/01/31 15:12:44.6	344.890	-0.020	-0.160	-0.010
2020/01/31 15:12:44.7	344.880	-0.030	-0.160	-0.000
2020/01/31 15:12:44.8	344.870	-0.030	-0.170	-0.000
2020/01/31 15:12:44.9	344.860	-0.040	-0.180	-0.000
2020/01/31 15:12:45.0	344.860	-0.040	-0.190	-0.010
2020/01/31 15:12:45.1	344.860	-0.040	-0.200	-0.010
2020/01/31 15:12:45.2	344.860	-0.040	-0.220	-0.020
2020/01/31 15:12:45.3	344.860	-0.050	-0.240	-0.040
2020/01/31 15:12:45.4	344.860	-0.050	-0.260	-0.060
2020/01/31 15:12:45.5	344.870	-0.050	-0.290	-0.080
2020/01/31 15:12:45.6	344.890	-0.050	-0.320	-0.100
2020/01/31 15:12:45.7	344.910	-0.040	-0.350	-0.130
2020/01/31 15:12:45.8	344.920	-0.040	-0.380	-0.160
2020/01/31 15:12:45.9	344.940	-0.040	-0.420	-0.200
2020/01/31 15:12:46.0	344.970	-0.040	-0.460	-0.240
2020/01/31 15:12:46.1	344.990	-0.040	-0.500	-0.280
2020/01/31 15:12:46.2	345.020	-0.030	-0.540	-0.320
2020/01/31 15:12:46.3	345.050	-0.030	-0.580	-0.370
2020/01/31 15:12:46.4	345.080	-0.030	-0.620	-0.420
2020/01/31 15:12:46.5	345.120	-0.020	-0.660	-0.460
2020/01/31 15:12:46.6	345.140	-0.020	-0.700	-0.510
2020/01/31 15:12:46.7	345.180	-0.020	-0.740	-0.560
2020/01/31 15:12:46.8	345.220	-0.020	-0.780	-0.610
2020/01/31 15:12:46.9	345.260	-0.010	-0.810	-0.660
2020/01/31 15:12:47.0	345.310	-0.010	-0.840	-0.700
2020/01/31 15:12:47.1	345.350	-0.010	-0.870	-0.740
2020/01/31 15:12:47.2	345.400	-0.000	-0.900	-0.790
2020/01/31 15:12:47.3	345.450	-0.000	-0.920	-0.830
2020/01/31 15:12:47.4	345.500	-0.000	-0.940	-0.870
2020/01/31 15:12:47.5	345.540	-0.000	-0.950	-0.900
2020/01/31 15:12:47.6	345.590	0.000	-0.960	-0.940
2020/01/31 15:12:47.7	345.640	0.000	-0.960	-0.970
2020/01/31 15:12:47.8	345.690	-0.000	-0.960	-0.990
2020/01/31 15:12:47.9	345.750	-0.000	-0.950	-1.020
2020/01/31 15:12:48.0	345.800	-0.000	-0.940	-1.040
2020/01/31 15:12:48.1	345.850	-0.000	-0.920	-1.050
2020/01/31 15:12:48.2	345.900	-0.010	-0.900	-1.070
2020/01/31 15:12:48.3	345.940	-0.010	-0.870	-1.070
2020/01/31 15:12:48.4	345.990	-0.020	-0.840	-1.080
2020/01/31 15:12:48.5	346.030	-0.020	-0.800	-1.070
2020/01/31 15:12:48.6	346.070	-0.030	-0.760	-1.070
2020/01/31 15:12:48.7	346.110	-0.030	-0.720	-1.050
2020/01/31 15:12:48.8	346.150	-0.040	-0.670	-1.040
2020/01/31 15:12:48.9	346.180	-0.050	-0.610	-1.020
2020/01/31 15:12:49.0	346.210	-0.060	-0.560	-0.990
2020/01/31 15:12:49.1	346.230	-0.070	-0.500	-0.960
2020/01/31 15:12:49.2	346.250	-0.080	-0.440	-0.930
2020/01/31 15:12:49.3	346.270	-0.090	-0.370	-0.890
2020/01/31 15:12:49.4	346.290	-0.100	-0.310	-0.860
2020/01/31 15:12:49.5	346.300	-0.110	-0.240	-0.810
2020/01/31 15:12:49.6	346.300	-0.130	-0.170	-0.770
2020/01/31 15:12:49.7	346.310	-0.140	-0.110	-0.720
2020/01/31 15:12:49.8	346.310	-0.150	-0.040	-0.670
2020/01/31 15:12:49.9	346.320	-0.160	0.020	-0.620
2020/01/31 15:12:50.0	346.320	-0.170	0.080	-0.570
2020/01/31 15:12:50.1	346.310	-0.180	0.140	-0.520
2020/01/31 15:12:50.2	346.310	-0.190	0.200	-0.470
2020/01/31 15:12:50.3	346.300	-0.200	0.260	-0.410
2020/01/31 15:12:50.4	346.300	-0.200	0.310	-0.360
2020/01/31 15:12:50.5	346.290	-0.210	0.360	-0.310
2020/01/31 15:12:50.6	346.290	-0.220	0.410	-0.250
2020/01/31 15:12:50.7	346.270	-0.220	0.450	-0.200
2020/01/31 15:12:50.8	346.260	-0.220	0.490	-0.150
2020/01/31 15:12:50.9	346.250	-0.220	0.520	-0.090
2020/01/31 15:12:51.0	346.230	-0.220	0.550	-0.040
2020/01/31 15:12:51.1	346.210	-0.210	0.580	0.010
2020/01/31 15:12:51.2	346.200	-0.210	0.600	0.060
2020/01/31 15:12:51.3	346.180	-0.200	0.620	0.110
2020/01/31 15:12:51.4	346.150	-0.190	0.630	0.160
2020/01/31 15:12:51.5	346.130	-0.180	0.640	0.200
2020/01/31 15:12:51.6	346.120	-0.170	0.640	0.260
2020/01/31 15:12:51.7	346.090	-0.150	0.640	0.300
2020/01/31 15:12:51.8	346.070	-0.130	0.630	0.340
2020/01/31 15:12:51.9	346.040	-0.120	0.620	0.390
2020/01/31 15:12:52.0	346.010	-0.100	0.610	0.420
2020/01/31 15:12:52.1	345.980	-0.080	0.590	0.460
2020/01/31 15:12:52.2	345.940	-0.060	0.560	0.500
2020/01/31 15:12:52.3	345.910	-0.030	0.540	0.530
2020/01/31 15:12:52.4	345.880	-0.010	0.500	0.550
2020/01/31 15:12:52.5	345.850	0.010	0.460	0.580
2020/01/31 15:12:52.6	345.830	0.040	0.420	0.600
2020/01/31 15:12:52.7	345.800	0.060	0.370	0.610
2020/01/31 15:12:52.8	345.770	0.090	0.330	0.630
2020/01/31 15:12:52.9	345.740	0.120	0.270	0.630
2020/01/31 15:12:53.0	345.710	0.140	0.220	0.640
2020/01/31 15:12:53.1	345.690	0.170	0.160	0.640
2020/01/31 15:12:53.2	345.660	0.200	0.100	0.640
2020/01/31 15:12:53.3	345.640	0.220	0.030	0.630
2020/01/31 15:12:53.4	345.620	0.250	-0.030	0.620
2020/01/31 15:12:53.5	345.600	0.280	-0.100	0.600
2020/01/31 15:12:53.6	345.580	0.310	-0.160	0.590
2020/01/31 15:12:53.7	345.560	0.330	-0.230	0.570
2020/01/31 15:12:53.8	345.550	0.360	-0.300	0.550
2020/01/31 15:12:53.9	345.530	0.380	-0.360	0.520
2020/01/31 15:12:54.0	345.520	0.410	-0.430	0.500
2020/01/31 15:12:54.1	345.510	0.430	-0.490	0.470
2020/01/31 15:12:54.2	345.500	0.450	-0.550	0.440
2020/01/31 15:12:54.3	345.490	0.470	-0.600	0.410
2020/01/31 15:12:54.4	345.480	0.490	-0.650	0.380
2020/01/31 15:12:54.5	345.480	0.510	-0.700	0.340
2020/01/31 15:12:54.6	345.470	0.520	-0.750	0.300
2020/01/31 15:12:54.7	345.470	0.530	-0.790	0.270
2020/01/31 15:12:54.8	345.470	0.540	-0.830	0.230
2020/01/31 15:12:54.9	345.470	0.550	-0.870	0.190
2020/01/31 15:12:55.0	345.470	0.560	-0.900	0.150
2020/01/31 15:12:55.1	345.480	0.560	-0.920	0.110
2020/01/31 15:12:55.2	345.500	0.560	-0.950	0.060
2020/01/31 15:12:55.3	345.510	0.560	-0.970	0.020
2020/01/31 15:12:55.4	345.530	0.560	-0.990	-0.030
2020/01/31 15:12:55.5	345.550	0.550	-1.000	-0.080
2020/01/31 15:12:55.6	345.570	0.540	-1.010	-0.130
2020/01/31 15:12:55.7	345.600	0.530	-1.020	-0.180
2020/01/31 15:12:55.8	345.630	0.510	-1.020	-0.240
2020/01/31 15:12:55.9	345.670	0.490	-1.030	-0.290
2020/01/31 15:12:56.0	345.710	0.470	-1.020	-0.350
2020/01/31 15:12:56.1	345.750	0.450	-1.020	-0.410
2020/01/31 15:12:56.2	345.790	0.420	-1.020	-0.470
2020/01/31 15:12:56.3	345.830	0.400	-1.010	-0.530
2020/01/31 15:12:56.4	345.880	0.360	-1.000	-0.590
2020/01/31 15:12:56.5	345.920	0.330	-0.980	-0.650
2020/01/31 15:12:56.6	345.960	0.300	-0.960	-0.710
2020/01/31 15:12:56.7	346.010	0.260	-0.950	-0.770
2020/01/31 15:12:56.8	346.060	0.220	-0.920	-0.830
2020/01/31 15:12:56.9	346.100	0.180	-0.900	-0.880
2020/01/31 15:12:57.0	346.150	0.140	-0.880	-0.930
2020/01/31 15:12:57.1	346.200	0.100	-0.850	-0.980
2020/01/31 15:12:57.2	346.250	0.060	-0.820	-1.030
2020/01/31 15:12:57.3	346.290	0.010	-0.780	-1.070
2020/01/31 15:12:57.4	346.340	-0.030	-0.750	-1.110
2020/01/31 15:12:57.5	346.380	-0.070	-0.710	-1.150
2020/01/31 15:12:57.6	346.420	-0.110	-0.670	-1.180
2020/01/31 15:12:57.7	346.460	-0.160	-0.620	-1.200
2020/01/31 15:12:57.8	346.500	-0.200	-0.580	-1.230
2020/01/31 15:12:57.9	346.540	-0.240	-0.530	-1.240
2020/01/31 15:12:58.0	346.570	-0.280	-0.480	-1.260
2020/01/31 15:12:58.1	346.600	-0.320	-0.430	-1.270
2020/01/31 15:12:58.2	346.630	-0.360	-0.380	-1.270
2020/01/31 15:12:58.3	346.660	-0.400	-0.330	-1.270
2020/01/31 15:12:58.4	346.690	-0.430	-0.280	-1.270
2020/01/31 15:12:58.5	346.710	-0.470	-0.230	-1.260
2020/01/31 15:12:58.6	346.710	-0.500	-0.180	-1.250
2020/01/31 15:12:58.7	346.730	-0.530	-0.140	-1.240
2020/01/31 15:12:58.8	346.740	-0.560	-0.090	-1.230
2020/01/31 15:12:58.9	346.750	-0.580	-0.050	-1.210
2020/01/31 15:12:59.0	346.760	-0.610	-0.000	-1.190
2020/01/31 15:12:59.1	346.770	-0.630	0.030	-1.180
2020/01/31 15:12:59.2	346.770	-0.650	0.070	-1.160
2020/01/31 15:12:59.3	346.770	-0.670	0.100	-1.130
2020/01/31 15:12:59.4	346.770	-0.680	0.130	-1.110
2020/01/31 15:12:59.5	346.760	-0.690	0.150	-1.090
2020/01/31 15:12:59.6	346.750	-0.700	0.170	-1.060
2020/01/31 15:12:59.7	346.740	-0.710	0.190	-1.030
2020/01/31 15:12:59.8	346.730	-0.710	0.200	-1.000
2020/01/31 15:12:59.9	346.720	-0.710	0.210	-0.970
2020/01/31 15:13:00.0	346.700	-0.710	0.220	-0.940
2020/01/31 15:13:00.1	346.690	-0.700	0.220	-0.910
2020/01/31 15:13:00.2	346.670	-0.690	0.220	-0.880
2020/01/31 15:13:00.3	346.650	-0.680	0.210	-0.840
2020/01/31 15:13:00.4	346.640	-0.670	0.200	-0.810
2020/01/31 15:13:00.5	346.620	-0.650	0.190	-0.770
2020/01/31 15:13:00.6	346.600	-0.630	0.190	-0.730
2020/01/31 15:13:00.7	346.580	-0.610	0.170	-0.690
2020/01/31 15:13:00.8	346.560	-0.590	0.160	-0.650
2020/01/31 15:13:00.9	346.540	-0.570	0.140	-0.610
2020/01/31 15:13:01.0	346.510	-0.540	0.130	-0.560
2020/01/31 15:13:01.1	346.490	-0.510	0.110	-0.520
2020/01/31 15:13:01.2	346.470	-0.480	0.100	-0.470
2020/01/31 15:13:01.3	346.440	-0.440	0.090	-0.430
2020/01/31 15:13:01.4	346.410	-0.410	0.070	-0.380
2020/01/31 15:13:01.5	346.390	-0.370	0.060	-0.330
2020/01/31 15:13:01.6	346.360	-0.340	0.050	-0.280
2020/01/31 15:13:01.7	346.330	-0.300	0.040	-0.230
2020/01/31 15:13:01.8	346.300	-0.260	0.040	-0.180
2020/01/31 15:13:01.9	346.270	-0.220	0.030	-0.140
2020/01/31 15:13:02.0	346.250	-0.180	0.030	-0.090
2020/01/31 15:13:02.1	346.220	-0.140	0.030	-0.040
2020/01/31 15:13:02.2	346.190	-0.100	0.030	0.010
2020/01/31 15:13:02.3	346.160	-0.050	0.030	0.060
2020/01/31 15:13:02.4	346.140	-0.010	0.040	0.110
2020/01/31 15:13:02.5	346.110	0.030	0.050	0.160
2020/01/31 15:13:02.6	346.080	0.070	0.060	0.210
2020/01/31 15:13:02.7	346.050	0.110	0.070	0.260
2020/01/31 15:13:02.8	346.030	0.150	0.080	0.300
2020/01/31 15:13:02.9	346.000	0.190	0.090	0.350
2020/01/31 15:13:03.0	345.980	0.230	0.110	0.400
2020/01/31 15:13:03.1	345.950	0.260	0.120	0.450
2020/01/31 15:13:03.2	345.930	0.300	0.140	0.500
2020/01/31 15:13:03.3	345.900	0.330	0.160	0.550
2020/01/31 15:13:03.4	345.870	0.360	0.170	0.590
2020/01/31 15:13:03.5	345.850	0.390	0.190	0.640
2020/01/31 15:13:03.6	345.820	0.420	0.210	0.680
2020/01/31 15:13:03.7	345.800	0.440	0.220	0.720
2020/01/31 15:13:03.8	345.770	0.460	0.240	0.760
2020/01/31 15:13:03.9	345.740	0.480	0.250	0.800
2020/01/31 15:13:04.0	345.710	0.500	0.260	0.830
2020/01/31 15:13:04.1	345.690	0.510	0.260	0.860
2020/01/31 15:13:04.2	345.660	0.530	0.270	0.880
2020/01/31 15:13:04.3	345.640	0.530	0.270	0.900
2020/01/31 15:13:04.4	345.620	0.540	0.260	0.920
2020/01/31 15:13:04.5	345.600	0.540	0.250	0.930
2020/01/31 15:13:04.6	345.590	0.540	0.230	0.930
2020/01/31 15:13:04.7	345.580	0.540	0.210	0.930
2020/01/31 15:13:04.8	345.560	0.540	0.190	0.920
2020/01/31 15:13:04.9	345.560	0.530	0.150	0.900
2020/01/31 15:13:05.0	345.550	0.520	0.120	0.880
2020/01/31 15:13:05.1	345.550	0.500	0.070	0.850
2020/01/31 15:13:05.2	345.550	0.490	0.030	0.810
2020/01/31 15:13:05.3	345.550	0.470	-0.030	0.760
2020/01/31 15:13:05.4	345.560	0.450	-0.080	0.710
2020/01/31 15:13:05.5	345.580	0.430	-0.150	0.660
2020/01/31 15:13:05.6	345.590	0.410	-0.210	0.590
2020/01/31 15:13:05.7	345.610	0.390	-0.280	0.530
2020/01/31 15:13:05.8	345.640	0.370	-0.350	0.460
2020/01/31 15:13:05.9	345.660	0.340	-0.420	0.380
2020/01/31 15:13:06.0	345.690	0.320	-0.500	0.300
2020/01/31 15:13:06.1	345.730	0.290	-0.570	0.220
2020/01/31 15:13:06.2	345.760	0.260	-0.650	0.140
2020/01/31 15:13:06.3	345.800	0.240	-0.730	0.050
2020/01/31 15:13:06.4	345.840	0.210	-0.800	-0.030
2020/01/31 15:13:06.5	345.890	0.190	-0.870	-0.110
2020/01/31 15:13:06.6	345.930	0.170	-0.940	-0.200
2020/01/31 15:13:06.7	345.980	0.140	-1.010	-0.290
2020/01/31 15:13:06.8	346.030	0.120	-1.080	-0.370
2020/01/31 15:13:06.9	346.080	0.100	-1.140	-0.450
2020/01/31 15:13:07.0	346.130	0.080	-1.190	-0.520
2020/01/31 15:13:07.1	346.180	0.060	-1.240	-0.590
2020/01/31 15:13:07.2	346.230	0.050	-1.280	-0.660
2020/01/31 15:13:07.3	346.270	0.030	-1.320	-0.730
2020/01/31 15:13:07.4	346.320	0.020	-1.350	-0.790
2020/01/31 15:13:07.5	346.370	0.000	-1.380	-0.850
2020/01/31 15:13:07.6	346.410	-0.010	-1.390	-0.910
2020/01/31 15:13:07.7	346.450	-0.020	-1.400	-0.960
2020/01/31 15:13:07.8	346.500	-0.030	-1.400	-1.000
2020/01/31 15:13:07.9	346.540	-0.040	-1.390	-1.040
2020/01/31 15:13:08.0	346.580	-0.050	-1.380	-1.070
2020/01/31 15:13:08.1	346.610	-0.060	-1.360	-1.100
2020/01/31 15:13:08.2	346.650	-0.060	-1.330	-1.120
2020/01/31 15:13:08.3	346.680	-0.070	-1.300	-1.140
2020/01/31 15:13:08.4	346.710	-0.070	-1.260	-1.150
2020/01/31 15:13:08.5	346.740	-0.080	-1.210	-1.160
2020/01/31 15:13:08.6	346.760	-0.080	-1.160	-1.160
2020/01/31 15:13:08.7	346.780	-0.080	-1.100	-1.150
2020/01/31 15:13:08.8	346.800	-0.090	-1.040	-1.140
2020/01/31 15:13:08.9	346.820	-0.090	-0.980	-1.130
2020/01/31 15:13:09.0	346.840	-0.090	-0.920	-1.120
2020/01/31 15:13:09.1	346.860	-0.090	-0.850	-1.090
2020/01/31 15:13:09.2	346.870	-0.090	-0.780	-1.070
2020/01/31 15:13:09.3	346.880	-0.090	-0.710	-1.040
2020/01/31 15:13:09.4	346.890	-0.100	-0.640	-1.020
2020/01/31 15:13:09.5	346.900	-0.100	-0.580	-0.980
2020/01/31 15:13:09.6	346.910	-0.100	-0.510	-0.950
2020/01/31 15:13:09.7	346.920	-0.100	-0.440	-0.910
2020/01/31 15:13:09.8	346.920	-0.100	-0.380	-0.880
2020/01/31 15:13:09.9	346.930	-0.100	-0.320	-0.840
2020/01/31 15:13:10.0	346.930	-0.100	-0.260	-0.800
2020/01/31 15:13:10.1	346.940	-0.100	-0.210	-0.770
2020/01/31 15:13:10.2	346.940	-0.100	-0.160	-0.730
2020/01/31 15:13:10.3	346.940	-0.100	-0.110	-0.690
2020/01/31 15:13:10.4	346.940	-0.100	-0.070	-0.660
2020/01/31 15:13:10.5	346.950	-0.100	-0.030	-0.620
2020/01/31 15:13:10.6	346.950	-0.090	0.010	-0.580
2020/01/31 15:13:10.7	346.950	-0.090	0.050	-0.550
2020/01/31 15:13:10.8	346.950	-0.090	0.080	-0.520
2020/01/31 15:13:10.9	346.950	-0.090	0.100	-0.480
2020/01/31 15:13:11.0	346.950	-0.090	0.130	-0.450
2020/01/31 15:13:11.1	346.950	-0.090	0.150	-0.410
2020/01/31 15:13:11.2	346.940	-0.090	0.170	-0.380
2020/01/31 15:13:11.3	346.930	-0.090	0.190	-0.340
2020/01/31 15:13:11.4	346.920	-0.090	0.210	-0.310
2020/01/31 15:13:11.5	346.910	-0.080	0.230	-0.270
2020/01/31 15:13:11.6	346.890	-0.080	0.250	-0.230
2020/01/31 15:13:11.7	346.870	-0.080	0.270	-0.200
2020/01/31 15:13:11.8	346.850	-0.080	0.290	-0.160
2020/01/31 15:13:11.9	346.820	-0.090	0.310	-0.120
2020/01/31 15:13:12.0	346.800	-0.090	0.330	-0.080
2020/01/31 15:13:12.1	346.770	-0.090	0.350	-0.050
2020/01/31 15:13:12.2	346.740	-0.090	0.380	-0.010
2020/01/31 15:13:12.3	346.700	-0.100	0.400	0.020
2020/01/31 15:13:12.4	346.670	-0.100	0.420	0.050
2020/01/31 15:13:12.5	346.640	-0.110	0.440	0.080
2020/01/31 15:13:12.6	346.610	-0.110	0.470	0.110
2020/01/31 15:13:12.7	346.570	-0.120	0.490	0.140
2020/01/31 15:13:12.8	346.540	-0.130	0.500	0.170
2020/01/31 15:13:12.9	346.510	-0.140	0.520	0.190
2020/01/31 15:13:13.0	346.470	-0.150	0.530	0.210
2020/01/31 15:13:13.1	346.440	-0.150	0.550	0.230
2020/01/31 15:13:13.2	346.410	-0.160	0.550	0.240
2020/01/31 15:13:13.3	346.380	-0.170	0.560	0.250
2020/01/31 15:13:13.4	346.350	-0.180	0.560	0.260
2020/01/31 15:13:13.5	346.330	-0.190	0.560	0.270
2020/01/31 15:13:13.6	346.310	-0.200	0.550	0.270
2020/01/31 15:13:13.7	346.290	-0.210	0.540	0.270
2020/01/31 15:13:13.8	346.270	-0.220	0.530	0.270
2020/01/31 15:13:13.9	346.250	-0.230	0.510	0.270
2020/01/31 15:13:14.0	346.230	-0.230	0.480	0.260
2020/01/31 15:13:14.1	346.210	-0.240	0.460	0.250
2020/01/31 15:13:14.2	346.200	-0.240	0.430	0.240
2020/01/31 15:13:14.3	346.190	-0.250	0.390	0.220
2020/01/31 15:13:14.4	346.170	-0.250	0.350	0.210
2020/01/31 15:13:14.5	346.160	-0.250	0.310	0.190
2020/01/31 15:13:14.6	346.140	-0.250	0.280	0.170
2020/01/31 15:13:14.7	346.130	-0.240	0.230	0.150
2020/01/31 15:13:14.8	346.120	-0.240	0.190	0.130
2020/01/31 15:13:14.9	346.110	-0.230	0.140	0.110
2020/01/31 15:13:15.0	346.100	-0.220	0.090	0.090
2020/01/31 15:13:15.1	346.080	-0.220	0.040	0.070
2020/01/31 15:13:15.2	346.070	-0.200	-0.010	0.050
2020/01/31 15:13:15.3	346.060	-0.190	-0.050	0.040
2020/01/31 15:13:15.4	346.040	-0.180	-0.100	0.020
2020/01/31 15:13:15.5	346.020	-0.160	-0.150	0.000
2020/01/31 15:13:15.6	346.020	-0.150	-0.190	-0.020
2020/01/31 15:13:15.7	346.000	-0.130	-0.240	-0.030
2020/01/31 15:13:15.8	345.980	-0.110	-0.280	-0.040
2020/01/31 15:13:15.9	345.970	-0.090	-0.320	-0.050
2020/01/31 15:13:16.0	345.950	-0.070	-0.360	-0.060
2020/01/31 15:13:16.1	345.930	-0.050	-0.400	-0.070
2020/01/31 15:13:16.2	345.910	-0.020	-0.430	-0.080
2020/01/31 15:13:16.3	345.900	0.000	-0.470	-0.090
2020/01/31 15:13:16.4	345.880	0.030	-0.500	-0.090
2020/01/31 15:13:16.5	345.870	0.050	-0.530	-0.090
2020/01/31 15:13:16.6	345.850	0.070	-0.560	-0.090
2020/01/31 15:13:16.7	345.830	0.100	-0.590	-0.090
2020/01/31 15:13:16.8	345.830	0.120	-0.620	-0.090
2020/01/31 15:13:16.9	345.820	0.150	-0.650	-0.090
2020/01/31 15:13:17.0	345.810	0.170	-0.670	-0.080
2020/01/31 15:13:17.1	345.810	0.200	-0.700	-0.080
2020/01/31 15:13:17.2	345.810	0.220	-0.730	-0.080
2020/01/31 15:13:17.3	345.820	0.250	-0.750	-0.080
2020/01/31 15:13:17.4	345.820	0.270	-0.780	-0.070
2020/01/31 15:13:17.5	345.830	0.290	-0.810	-0.070
2020/01/31 15:13:17.6	345.840	0.310	-0.830	-0.070
2020/01/31 15:13:17.7	345.860	0.330	-0.860	-0.080
2020/01/31 15:13:17.8	345.880	0.350	-0.890	-0.080
2020/01/31 15:13:17.9	345.900	0.360	-0.910	-0.090
2020/01/31 15:13:18.0	345.930	0.370	-0.940	-0.100
2020/01/31 15:13:18.1	345.960	0.390	-0.960	-0.110
2020/01/31 15:13:18.2	345.990	0.390	-0.980	-0.120
2020/01/31 15:13:18.3	346.020	0.400	-1.000	-0.140
2020/01/31 15:13:18.4	346.060	0.400	-1.020	-0.150
2020/01/31 15:13:18.5	346.090	0.400	-1.030	-0.170
2020/01/31 15:13:18.6	346.130	0.400	-1.040	-0.200
2020/01/31 15:13:18.7	346.170	0.390	-1.050	-0.220
2020/01/31 15:13:18.8	346.210	0.380	-1.050	-0.250
2020/01/31 15:13:18.9	346.250	0.370	-1.060	-0.280
2020/01/31 15:13:19.0	346.290	0.350	-1.050	-0.310
2020/01/31 15:13:19.1	346.330	0.340	-1.050	-0.330
2020/01/31 15:13:19.2	346.370	0.320	-1.040	-0.360
2020/01/31 15:13:19.3	346.410	0.290	-1.020	-0.390
2020/01/31 15:13:19.4	346.460	0.270	-1.000	-0.420
2020/01/31 15:13:19.5	346.500	0.240	-0.980	-0.440
2020/01/31 15:13:19.6	346.520	0.210	-0.940	-0.470
2020/01/31 15:13:19.7	346.560	0.190	-0.910	-0.490
2020/01/31 15:13:19.8	346.600	0.150	-0.870	-0.510
2020/01/31 15:13:19.9	346.640	0.120	-0.820	-0.530
2020/01/31 15:13:20.0	346.680	0.090	-0.770	-0.550
2020/01/31 15:13:20.1	346.720	0.060	-0.720	-0.560
2020/01/31 15:13:20.2	346.750	0.020	-0.660	-0.570
2020/01/31 15:13:20.3	346.780	-0.010	-0.600	-0.580
2020/01/31 15:13:20.4	346.810	-0.040	-0.540	-0.590
2020/01/31 15:13:20.5	346.840	-0.080	-0.470	-0.590
2020/01/31 15:13:20.6	346.870	-0.110	-0.400	-0.580
2020/01/31 15:13:20.7	346.890	-0.140	-0.330	-0.580
2020/01/31 15:13:20.8	346.910	-0.170	-0.260	-0.570
2020/01/31 15:13:20.9	346.920	-0.200	-0.180	-0.550
2020/01/31 15:13:21.0	346.930	-0.230	-0.110	-0.540
2020/01/31 15:13:21.1	346.940	-0.250	-0.030	-0.510
2020/01/31 15:13:21.2	346.940	-0.280	0.040	-0.490
2020/01/31 15:13:21.3	346.940	-0.300	0.110	-0.460
2020/01/31 15:13:21.4	346.930	-0.320	0.180	-0.430
2020/01/31 15:13:21.5	346.910	-0.330	0.240	-0.390
2020/01/31 15:13:21.6	346.900	-0.350	0.310	-0.350
2020/01/31 15:13:21.7	346.870	-0.360	0.360	-0.300
2020/01/31 15:13:21.8	346.850	-0.370	0.420	-0.250
2020/01/31 15:13:21.9	346.810	-0.370	0.470	-0.200
2020/01/31 15:13:22.0	346.780	-0.370	0.510	-0.140
2020/01/31 15:13:22.1	346.740	-0.370	0.550	-0.090
2020/01/31 15:13:22.2	346.700	-0.370	0.580	-0.030
2020/01/31 15:13:22.3	346.650	-0.360	0.610	0.020
2020/01/31 15:13:22.4	346.610	-0.350	0.620	0.080
2020/01/31 15:13:22.5	346.560	-0.340	0.640	0.130
2020/01/31 15:13:22.6	346.520	-0.320	0.640	0.190
2020/01/31 15:13:22.7	346.470	-0.300	0.640	0.240
2020/01/31 15:13:22.8	346.420	-0.280	0.630	0.290
2020/01/31 15:13:22.9	346.370	-0.250	0.610	0.340
2020/01/31 15:13:23.0	346.320	-0.220	0.590	0.380
2020/01/31 15:13:23.1	346.270	-0.190	0.560	0.430
2020/01/31 15:13:23.2	346.220	-0.160	0.520	0.470
2020/01/31 15:13:23.3	346.170	-0.130	0.480	0.500
2020/01/31 15:13:23.4	346.130	-0.090	0.430	0.540
2020/01/31 15:13:23.5	346.080	-0.060	0.380	0.570
2020/01/31 15:13:23.6	346.040	-0.020	0.320	0.600
2020/01/31 15:13:23.7	345.990	0.020	0.260	0.620
2020/01/31 15:13:23.8	345.950	0.060	0.190	0.640
2020/01/31 15:13:23.9	345.920	0.100	0.120	0.650
2020/01/31 15:13:24.0	345.880	0.140	0.050	0.670
2020/01/31 15:13:24.1	345.850	0.170	-0.020	0.670
2020/01/31 15:13:24.2	345.820	0.210	-0.100	0.670
2020/01/31 15:13:24.3	345.790	0.250	-0.170	0.670
2020/01/31 15:13:24.4	345.760	0.280	-0.250	0.660
2020/01/31 15:13:24.5	345.740	0.320	-0.330	0.650
2020/01/31 15:13:24.6	345.730	0.350	-0.400	0.640
2020/01/31 15:13:24.7	345.720	0.370	-0.470	0.620
2020/01/31 15:13:24.8	345.700	0.400	-0.540	0.600
2020/01/31 15:13:24.9	345.690	0.420	-0.610	0.580
2020/01/31 15:13:25.0	345.680	0.440	-0.670	0.550
2020/01/31 15:13:25.1	345.670	0.460	-0.720	0.520
2020/01/31 15:13:25.2	345.670	0.470	-0.780	0.480
2020/01/31 15:13:25.3	345.670	0.480	-0.820	0.450
2020/01/31 15:13:25.4	345.670	0.480	-0.870	0.400
2020/01/31 15:13:25.5	345.670	0.490	-0.900	0.360
2020/01/31 15:13:25.6	345.680	0.480	-0.930	0.320
2020/01/31 15:13:25.7	345.690	0.480	-0.960	0.270
2020/01/31 15:13:25.8	345.700	0.470	-0.970	0.220
2020/01/31 15:13:25.9	345.710	0.460	-0.990	0.160
2020/01/31 15:13:26.0	345.730	0.440	-0.990	0.100
2020/01/31 15:13:26.1	345.750	0.420	-0.990	0.050
2020/01/31 15:13:26.2	345.770	0.400	-0.990	-0.010
2020/01/31 15:13:26.3	345.800	0.380	-0.970	-0.080
2020/01/31 15:13:26.4	345.830	0.350	-0.960	-0.140
2020/01/31 15:13:26.5	345.860	0.320	-0.940	-0.200
2020/01/31 15:13:26.6	345.880	0.290	-0.910	-0.270
2020/01/31 15:13:26.7	345.920	0.260	-0.880	-0.330
2020/01/31 15:13:26.8	345.950	0.220	-0.840	-0.390
2020/01/31 15:13:26.9	345.990	0.180	-0.810	-0.450
2020/01/31 15:13:27.0	346.030	0.150	-0.760	-0.510
2020/01/31 15:13:27.1	346.070	0.110	-0.720	-0.570
2020/01/31 15:13:27.2	346.110	0.070	-0.670	-0.620
2020/01/31 15:13:27.3	346.150	0.030	-0.620	-0.670
2020/01/31 15:13:27.4	346.180	-0.010	-0.570	-0.720
2020/01/31 15:13:27.5	346.220	-0.040	-0.510	-0.760
2020/01/31 15:13:27.6	346.240	-0.080	-0.450	-0.790
2020/01/31 15:13:27.7	346.270	-0.120	-0.390	-0.820
2020/01/31 15:13:27.8	346.310	-0.160	-0.330	-0.850
2020/01/31 15:13:27.9	346.330	-0.200	-0.270	-0.880
2020/01/31 15:13:28.0	346.360	-0.230	-0.210	-0.890
2020/01/31 15:13:28.1	346.390	-0.270	-0.140	-0.900
2020/01/31 15:13:28.2	346.410	-0.300	-0.080	-0.910
2020/01/31 15:13:28.3	346.430	-0.330	-0.020	-0.910
2020/01/31 15:13:28.4	346.440	-0.360	0.040	-0.910
2020/01/31 15:13:28.5	346.450	-0.390	0.110	-0.900
2020/01/31 15:13:28.6	346.460	-0.420	0.170	-0.890
2020/01/31 15:13:28.7	346.460	-0.450	0.220	-0.870
2020/01/31 15:13:28.8	346.460	-0.470	0.280	-0.840
2020/01/31 15:13:28.9	346.460	-0.500	0.340	-0.820
2020/01/31 15:13:29.0	346.460	-0.520	0.390	-0.790
2020/01/31 15:13:29.1	346.450	-0.530	0.440	-0.750
2020/01/31 15:13:29.2	346.440	-0.550	0.480	-0.710
2020/01/31 15:13:29.3	346.430	-0.570	0.530	-0.670
2020/01/31 15:13:29.4	346.420	-0.580	0.560	-0.620
2020/01/31 15:13:29.5	346.400	-0.590	0.600	-0.570
2020/01/31 15:13:29.6	346.390	-0.590	0.630	-0.520
2020/01/31 15:13:29.7	346.370	-0.600	0.650	-0.460
2020/01/31 15:13:29.8	346.340	-0.600	0.670	-0.400
2020/01/31 15:13:29.9	346.320	-0.600	0.680	-0.340
2020/01/31 15:13:30.0	346.300	-0.600	0.690	-0.280
2020/01/31 15:13:30.1	346.270	-0.600	0.690	-0.220
2020/01/31 15:13:30.2	346.240	-0.590	0.690	-0.160
2020/01/31 15:13:30.3	346.210	-0.580	0.680	-0.090
2020/01/31 15:13:30.4	346.180	-0.570	0.670	-0.030
2020/01/31 15:13:30.5	346.150	-0.560	0.650	0.030
2020/01/31 15:13:30.6	346.140	-0.550	0.630	0.090
2020/01/31 15:13:30.7	346.100	-0.530	0.600	0.150
2020/01/31 15:13:30.8	346.070	-0.510	0.560	0.210
2020/01/31 15:13:30.9	346.040	-0.500	0.520	0.260
2020/01/31 15:13:31.0	346.000	-0.470	0.480	0.310
2020/01/31 15:13:31.1	345.970	-0.450	0.430	0.360
2020/01/31 15:13:31.2	345.940	-0.430	0.380	0.400
2020/01/31 15:13:31.3	345.910	-0.400	0.320	0.440
2020/01/31 15:13:31.4	345.880	-0.370	0.260	0.470
2020/01/31 15:13:31.5	345.860	-0.350	0.200	0.500
2020/01/31 15:13:31.6	345.840	-0.320	0.130	0.520
2020/01/31 15:13:31.7	345.810	-0.290	0.060	0.540
2020/01/31 15:13:31.8	345.790	-0.260	-0.010	0.550
2020/01/31 15:13:31.9	345.770	-0.220	-0.090	0.560
2020/01/31 15:13:32.0	345.760	-0.190	-0.160	0.560
2020/01/31 15:13:32.1	345.740	-0.160	-0.240	0.560
2020/01/31 15:13:32.2	345.730	-0.130	-0.320	0.560
2020/01/31 15:13:32.3	345.720	-0.090	-0.400	0.550
2020/01/31 15:13:32.4	345.710	-0.060	-0.480	0.530
2020/01/31 15:13:32.5	345.710	-0.020	-0.550	0.520
2020/01/31 15:13:32.6	345.710	0.010	-0.630	0.490
2020/01/31 15:13:32.7	345.710	0.040	-0.700	0.470
2020/01/31 15:13:32.8	345.720	0.080	-0.770	0.440
2020/01/31 15:13:32.9	345.730	0.110	-0.840	0.410
2020/01/31 15:13:33.0	345.740	0.140	-0.910	0.370
2020/01/31 15:13:33.1	345.750	0.170	-0.970	0.340
2020/01/31 15:13:33.2	345.770	0.210	-1.030	0.300
2020/01/31 15:13:33.3	345.790	0.240	-1.090	0.260
2020/01/31 15:13:33.4	345.810	0.270	-1.140	0.220
2020/01/31 15:13:33.5	345.840	0.300	-1.190	0.170
2020/01/31 15:13:33.6	345.850	0.330	-1.230	0.130
2020/01/31 15:13:33.7	345.880	0.350	-1.270	0.090
2020/01/31 15:13:33.8	345.910	0.380	-1.300	0.050
2020/01/31 15:13:33.9	345.940	0.410	-1.320	0.010
2020/01/31 15:13:34.0	345.970	0.430	-1.340	-0.030
2020/01/31 15:13:34.1	346.000	0.450	-1.360	-0.060
2020/01/31 15:13:34.2	346.030	0.480	-1.360	-0.100
2020/01/31 15:13:34.3	346.060	0.500	-1.360	-0.130
2020/01/31 15:13:34.4	346.090	0.520	-1.360	-0.150
2020/01/31 15:13:34.5	346.120	0.530	-1.350	-0.180
2020/01/31 15:13:34.6	346.140	0.550	-1.330	-0.200
2020/01/31 15:13:34.7	346.170	0.560	-1.300	-0.220
2020/01/31 15:13:34.8	346.190	0.580	-1.270	-0.240
2020/01/31 15:13:34.9	346.220	0.590	-1.240	-0.250
2020/01/31 15:13:35.0	346.240	0.600	-1.200	-0.260
2020/01/31 15:13:35.1	346.270	0.600	-1.150	-0.270
2020/01/31 15:13:35.2	346.290	0.610	-1.110	-0.270
2020/01/31 15:13:35.3	346.310	0.610	-1.050	-0.280
2020/01/31 15:13:35.4	346.330	0.610	-1.000	-0.280
2020/01/31 15:13:35.5	346.350	0.610	-0.940	-0.280
2020/01/31 15:13:35.6	346.350	0.610	-0.880	-0.270
2020/01/31 15:13:35.7	346.370	0.610	-0.820	-0.270
2020/01/31 15:13:35.8	346.390	0.600	-0.750	-0.260
2020/01/31 15:13:35.9	346.410	0.590	-0.690	-0.250
2020/01/31 15:13:36.0	346.430	0.580	-0.630	-0.240
2020/01/31 15:13:36.1	346.450	0.570	-0.560	-0.230
2020/01/31 15:13:36.2	346.470	0.560	-0.500	-0.220
2020/01/31 15:13:36.3	346.480	0.550	-0.440	-0.200
2020/01/31 15:13:36.4	346.500	0.540	-0.380	-0.190
2020/01/31 15:13:36.5	346.510	0.520	-0.320	-0.170
2020/01/31 15:13:36.6	346.530	0.510	-0.260	-0.150
2020/01/31 15:13:36.7	346.550	0.490	-0.200	-0.130
2020/01/31 15:13:36.8	346.560	0.470	-0.150	-0.110
2020/01/31 15:13:36.9	346.570	0.450	-0.090	-0.090
2020/01/31 15:13:37.0	346.580	0.430	-0.040	-0.070
2020/01/31 15:13:37.1	346.590	0.410	0.010	-0.040
2020/01/31 15:13:37.2	346.600	0.380	0.060	-0.020
2020/01/31 15:13:37.3	346.600	0.360	0.100	0.000
2020/01/31 15:13:37.4	346.600	0.330	0.150	0.030
2020/01/31 15:13:37.5	346.600	0.300	0.190	0.050
2020/01/31 15:13:37.6	346.620	0.270	0.230	0.080
2020/01/31 15:13:37.7	346.620	0.240	0.270	0.100
2020/01/31 15:13:37.8	346.620	0.210	0.300	0.130
2020/01/31 15:13:37.9	346.610	0.180	0.330	0.150
2020/01/31 15:13:38.0	346.610	0.140	0.360	0.170
2020/01/31 15:13:38.1	346.600	0.110	0.390	0.190
2020/01/31 15:13:38.2	346.590	0.070	0.410	0.210
2020/01/31 15:13:38.3	346.590	0.040	0.430	0.220
2020/01/31 15:13:38.4	346.580	0.000	0.440	0.240
2020/01/31 15:13:38.5	346.570	-0.040	0.460	0.250
2020/01/31 15:13:38.6	346.550	-0.080	0.470	0.260
2020/01/31 15:13:38.7	346.540	-0.110	0.470	0.260
2020/01/31 15:13:38.8	346.530	-0.150	0.470	0.260
2020/01/31 15:13:38.9	346.520	-0.190	0.470	0.260
2020/01/31 15:13:39.0	346.520	-0.230	0.470	0.260
2020/01/31 15:13:39.1	346.510	-0.270	0.460	0.260
2020/01/31 15:13:39.2	346.500	-0.300	0.450	0.250
2020/01/31 15:13:39.3	346.490	-0.340	0.440	0.240
2020/01/31 15:13:39.4	346.480	-0.370	0.430	0.220
2020/01/31 15:13:39.5	346.480	-0.410	0.410	0.210
2020/01/31 15:13:39.6	346.470	-0.440	0.400	0.180
2020/01/31 15:13:39.7	346.460	-0.470	0.380	0.160
2020/01/31 15:13:39.8	346.460	-0.500	0.360	0.140
2020/01/31 15:13:39.9	346.450	-0.530	0.340	0.120
2020/01/31 15:13:40.0	346.440	-0.550	0.320	0.100
2020/01/31 15:13:40.1	346.440	-0.570	0.300	0.080
2020/01/31 15:13:40.2	346.430	-0.590	0.280	0.060
2020/01/31 15:13:40.3	346.430	-0.610	0.260	0.040
2020/01/31 15:13:40.4	346.420	-0.620	0.240	0.020
2020/01/31 15:13:40.5	346.410	-0.630	0.220	0.010
2020/01/31 15:13:40.6	346.400	-0.640	0.200	-0.010
2020/01/31 15:13:40.7	346.400	-0.640	0.180	-0.020
2020/01/31 15:13:40.8	346.390	-0.640	0.170	-0.030
2020/01/31 15:13:40.9	346.380	-0.640	0.150	-0.040
2020/01/31 15:13:41.0	346.370	-0.640	0.130	-0.050
2020/01/31 15:13:41.1	346.360	-0.630	0.120	-0.050
2020/01/31 15:13:41.2	346.360	-0.620	0.100	-0.060
2020/01/31 15:13:41.3	346.350	-0.600	0.080	-0.060
2020/01/31 15:13:41.4	346.340	-0.580	0.060	-0.060
2020/01/31 15:13:41.5	346.330	-0.560	0.050	-0.060
2020/01/31 15:13:41.6	346.330	-0.540	0.030	-0.060
2020/01/31 15:13:41.7	346.320	-0.510	0.010	-0.050
2020/01/31 15:13:41.8	346.320	-0.490	-0.020	-0.050
2020/01/31 15:13:41.9	346.310	-0.460	-0.040	-0.040
2020/01/31 15:13:42.0	346.300	-0.430	-0.060	-0.040
2020/01/31 15:13:42.1	346.290	-0.390	-0.090	-0.030
2020/01/31 15:13:42.2	346.280	-0.360	-0.120	-0.020
2020/01/31 15:13:42.3	346.270	-0.320	-0.150	-0.010
2020/01/31 15:13:42.4	346.260	-0.290	-0.180	0.000
2020/01/31 15:13:42.5	346.250	-0.250	-0.210	0.020
2020/01/31 15:13:42.6	346.230	-0.210	-0.240	0.030
2020/01/31 15:13:42.7	346.220	-0.180	-0.270	0.050
2020/01/31 15:13:42.8	346.210	-0.140	-0.310	0.070
2020/01/31 15:13:42.9	346.210	-0.100	-0.340	0.090
2020/01/31 15:13:43.0	346.200	-0.070	-0.380	0.110
2020/01/31 15:13:43.1	346.190	-0.030	-0.410	0.130
2020/01/31 15:13:43.2	346.190	0.010	-0.450	0.160
2020/01/31 15:13:43.3	346.180	0.040	-0.490	0.180
2020/01/31 15:13:43.4	346.180	0.080	-0.520	0.210
2020/01/31 15:13:43.5	346.180	0.110	-0.560	0.240
2020/01/31 15:13:43.6	346.190	0.140	-0.590	0.260
2020/01/31 15:13:43.7	346.190	0.180	-0.620	0.290
2020/01/31 15:13:43.8	346.200	0.210	-0.660	0.310
2020/01/31 15:13:43.9	346.210	0.240	-0.690	0.330
2020/01/31 15:13:44.0	346.230	0.260	-0.720	0.360
2020/01/31 15:13:44.1	346.250	0.290	-0.750	0.370
2020/01/31 15:13:44.2	346.270	0.310	-0.780	0.390
2020/01/31 15:13:44.3	346.290	0.340	-0.810	0.410
2020/01/31 15:13:44.4	346.320	0.360	-0.830	0.420
2020/01/31 15:13:44.5	346.350	0.370	-0.850	0.430
2020/01/31 15:13:44.6	346.390	0.390	-0.870	0.440
2020/01/31 15:13:44.7	346.420	0.410	-0.890	0.450
2020/01/31 15:13:44.8	346.460	0.420	-0.900	0.450
2020/01/31 15:13:44.9	346.500	0.430	-0.910	0.460
2020/01/31 15:13:45.0	346.550	0.430	-0.910	0.460
2020/01/31 15:13:45.1	346.590	0.440	-0.910	0.460
2020/01/31 15:13:45.2	346.640	0.440	-0.900	0.470
2020/01/31 15:13:45.3	346.690	0.440	-0.890	0.470
2020/01/31 15:13:45.4	346.740	0.430	-0.870	0.470
2020/01/31 15:13:45.5	346.790	0.430	-0.860	0.470
2020/01/31 15:13:45.6	346.850	0.420	-0.830	0.470
2020/01/31 15:13:45.7	346.900	0.410	-0.800	0.470
2020/01/31 15:13:45.8	346.960	0.400	-0.770	0.470
2020/01/31 15:13:45.9	347.030	0.380	-0.740	0.470
2020/01/31 15:13:46.0	347.090	0.360	-0.700	0.460
2020/01/31 15:13:46.1	347.160	0.350	-0.660	0.460
2020/01/31 15:13:46.2	347.230	0.320	-0.620	0.460
2020/01/31 15:13:46.3	347.310	0.300	-0.580	0.450
2020/01/31 15:13:46.4	347.390	0.280	-0.540	0.450
2020/01/31 15:13:46.5	347.470	0.260	-0.510	0.440
2020/01/31 15:13:46.6	347.550	0.230	-0.470	0.430
2020/01/31 15:13:46.7	347.640	0.210	-0.430	0.410
2020/01/31 15:13:46.8	347.730	0.180	-0.400	0.400
2020/01/31 15:13:46.9	347.820	0.150	-0.360	0.380
2020/01/31 15:13:47.0	347.920	0.130	-0.330	0.370
2020/01/31 15:13:47.1	348.010	0.100	-0.310	0.350
2020/01/31 15:13:47.2	348.110	0.070	-0.280	0.320
2020/01/31 15:13:47.3	348.210	0.050	-0.260	0.300
2020/01/31 15:13:47.4	348.310	0.020	-0.240	0.280
2020/01/31 15:13:47.5	348.410	-0.000	-0.220	0.260
2020/01/31 15:13:47.6	348.510	-0.030	-0.200	0.230
2020/01/31 15:13:47.7	348.610	-0.050	-0.190	0.210
2020/01/31 15:13:47.8	348.710	-0.080	-0.170	0.190
2020/01/31 15:13:47.9	348.800	-0.100	-0.160	0.170
2020/01/31 15:13:48.0	348.900	-0.120	-0.150	0.150
2020/01/31 15:13:48.1	348.990	-0.140	-0.150	0.130
2020/01/31 15:13:48.2	349.080	-0.150	-0.140	0.120
2020/01/31 15:13:48.3	349.160	-0.170	-0.130	0.120
2020/01/31 15:13:48.4	349.250	-0.190	-0.130	0.110
2020/01/31 15:13:48.5	349.320	-0.200	-0.120	0.110
2020/01/31 15:13:48.6	349.400	-0.210	-0.110	0.120
2020/01/31 15:13:48.7	349.470	-0.230	-0.110	0.120
2020/01/31 15:13:48.8	349.540	-0.240	-0.100	0.140
2020/01/31 15:13:48.9	349.600	-0.250	-0.090	0.150
2020/01/31 15:13:49.0	349.660	-0.260	-0.090	0.170
2020/01/31 15:13:49.1	349.720	-0.260	-0.080	0.200
2020/01/31 15:13:49.2	349.770	-0.270	-0.070	0.220
2020/01/31 15:13:49.3	349.820	-0.280	-0.060	0.250
2020/01/31 15:13:49.4	349.860	-0.280	-0.050	0.290
2020/01/31 15:13:49.5	349.900	-0.280	-0.040	0.320
2020/01/31 15:13:49.6	349.920	-0.290	-0.030	0.350
2020/01/31 15:13:49.7	349.950	-0.290	-0.020	0.390
2020/01/31 15:13:49.8	349.980	-0.290	-0.010	0.420
2020/01/31 15:13:49.9	350.010	-0.290	0.010	0.460
2020/01/31 15:13:50.0	350.040	-0.280	0.020	0.490
2020/01/31 15:13:50.1	350.060	-0.280	0.030	0.520
2020/01/31 15:13:50.2	350.090	-0.280	0.050	0.560
2020/01/31 15:13:50.3	350.110	-0.270	0.060	0.590
2020/01/31 15:13:50.4	350.130	-0.260	0.070	0.620
2020/01/31 15:13:50.5	350.150	-0.250	0.090	0.650
2020/01/31 15:13:50.6	350.150	-0.240	0.100	0.680
2020/01/31 15:13:50.7	350.170	-0.230	0.110	0.710
2020/01/31 15:13:50.8	350.180	-0.220	0.130	0.740
2020/01/31 15:13:50.9	350.200	-0.200	0.140	0.760
2020/01/31 15:13:51.0	350.220	-0.180	0.150	0.790
2020/01/31 15:13:51.1	350.230	-0.160	0.160	0.820
2020/01/31 15:13:51.2	350.250	-0.140	0.170	0.840
2020/01/31 15:13:51.3	350.270	-0.120	0.170	0.870
2020/01/31 15:13:51.4	350.290	-0.090	0.180	0.890
2020/01/31 15:13:51.5	350.310	-0.070	0.180	0.910
2020/01/31 15:13:51.6	350.340	-0.040	0.190	0.940
2020/01/31 15:13:51.7	350.370	-0.010	0.180	0.950
2020/01/31 15:13:51.8	350.400	0.020	0.180	0.970
2020/01/31 15:13:51.9	350.440	0.060	0.170	0.980
2020/01/31 15:13:52.0	350.480	0.090	0.160	0.990
2020/01/31 15:13:52.1	350.520	0.130	0.150	1.000
2020/01/31 15:13:52.2	350.570	0.170	0.130	1.000
2020/01/31 15:13:52.3	350.620	0.200	0.110	1.000
2020/01/31 15:13:52.4	350.680	0.240	0.090	0.990
2020/01/31 15:13:52.5	350.740	0.280	0.070	0.980
2020/01/31 15:13:52.6	350.790	0.320	0.040	0.960
2020/01/31 15:13:52.7	350.860	0.350	0.010	0.940
2020/01/31 15:13:52.8	350.940	0.390	-0.030	0.910
2020/01/31 15:13:52.9	351.020	0.420	-0.060	0.880
2020/01/31 15:13:53.0	351.110	0.460	-0.100	0.840
2020/01/31 15:13:53.1	351.200	0.490	-0.140	0.790
2020/01/31 15:13:53.2	351.290	0.510	-0.180	0.740
2020/01/31 15:13:53.3	351.390	0.540	-0.220	0.690
2020/01/31 15:13:53.4	351.490	0.560	-0.260	0.630
2020/01/31 15:13:53.5	351.600	0.580	-0.300	0.560
2020/01/31 15:13:53.6	351.720	0.590	-0.340	0.490
2020/01/31 15:13:53.7	351.830	0.600	-0.380	0.410
2020/01/31 15:13:53.8	351.950	0.610	-0.420	0.340
2020/01/31 15:13:53.9	352.070	0.610	-0.460	0.250
2020/01/31 15:13:54.0	352.200	0.610	-0.490	0.170
2020/01/31 15:13:54.1	352.330	0.600	-0.520	0.080
2020/01/31 15:13:54.2	352.470	0.590	-0.550	-0.010
2020/01/31 15:13:54.3	352.600	0.580	-0.580	-0.100
2020/01/31 15:13:54.4	352.740	0.560	-0.600	-0.200
2020/01/31 15:13:54.5	352.880	0.540	-0.620	-0.280
2020/01/31 15:13:54.6	353.020	0.510	-0.630	-0.370
2020/01/31 15:13:54.7	353.160	0.480	-0.640	-0.460
2020/01/31 15:13:54.8	353.300	0.450	-0.640	-0.550
2020/01/31 15:13:54.9	353.440	0.410	-0.640	-0.630
2020/01/31 15:13:55.0	353.590	0.370	-0.640	-0.710
2020/01/31 15:13:55.1	353.730	0.320	-0.630	-0.790
2020/01/31 15:13:55.2	353.870	0.280	-0.610	-0.870
2020/01/31 15:13:55.3	354.020	0.230	-0.590	-0.940
2020/01/31 15:13:55.4	354.160	0.180	-0.570	-1.020
2020/01/31 15:13:55.5	354.310	0.120	-0.540	-1.090
2020/01/31 15:13:55.6	354.470	0.070	-0.510	-1.150
2020/01/31 15:13:55.7	354.610	0.010	-0.470	-1.220
2020/01/31 15:13:55.8	354.760	-0.040	-0.440	-1.290
2020/01/31 15:13:55.9	354.910	-0.100	-0.400	-1.350
2020/01/31 15:13:56.0	355.050	-0.150	-0.360	-1.410
2020/01/31 15:13:56.1	355.200	-0.210	-0.320	-1.470
2020/01/31 15:13:56.2	355.350	-0.260	-0.280	-1.530
2020/01/31 15:13:56.3	355.500	-0.320	-0.240	-1.580
2020/01/31 15:13:56.4	355.650	-0.370	-0.200	-1.640
2020/01/31 15:13:56.5	355.800	-0.420	-0.160	-1.690
2020/01/31 15:13:56.6	355.950	-0.470	-0.130	-1.740
2020/01/31 15:13:56.7	356.100	-0.510	-0.090	-1.780
2020/01/31 15:13:56.8	356.250	-0.560	-0.060	-1.820
2020/01/31 15:13:56.9	356.400	-0.600	-0.030	-1.860
2020/01/31 15:13:57.0	356.540	-0.630	-0.000	-1.900
2020/01/31 15:13:57.1	356.690	-0.670	0.020	-1.930
2020/01/31 15:13:57.2	356.830	-0.690	0.050	-1.950
2020/01/31 15:13:57.3	356.970	-0.720	0.070	-1.970
2020/01/31 15:13:57.4	357.110	-0.740	0.080	-1.990
2020/01/31 15:13:57.5	357.240	-0.760	0.100	-2.000
2020/01/31 15:13:57.6	357.400	-0.770	0.110	-2.000
2020/01/31 15:13:57.7	357.530	-0.780	0.110	-2.010
2020/01/31 15:13:57.8	357.660	-0.790	0.110	-2.010
2020/01/31 15:13:57.9	357.790	-0.790	0.110	-2.010
2020/01/31 15:13:58.0	357.910	-0.780	0.110	-2.000
2020/01/31 15:13:58.1	358.030	-0.770	0.100	-1.990
2020/01/31 15:13:58.2	358.160	-0.760	0.090	-1.980
2020/01/31 15:13:58.3	358.270	-0.740	0.080	-1.960
2020/01/31 15:13:58.4	358.390	-0.720	0.060	-1.930
2020/01/31 15:13:58.5	358.510	-0.700	0.040	-1.910
2020/01/31 15:13:58.6	358.610	-0.670	0.020	-1.880
2020/01/31 15:13:58.7	358.730	-0.640	-0.010	-1.850
2020/01/31 15:13:58.8	358.840	-0.600	-0.030	-1.810
2020/01/31 15:13:58.9	358.950	-0.560	-0.060	-1.780
2020/01/31 15:13:59.0	359.060	-0.520	-0.100	-1.740
2020/01/31 15:13:59.1	359.180	-0.480	-0.130	-1.700
2020/01/31 15:13:59.2	359.290	-0.430	-0.170	-1.660
2020/01/31 15:13:59.3	359.400	-0.380	-0.200	-1.620
2020/01/31 15:13:59.4	359.510	-0.330	-0.240	-1.580
2020/01/31 15:13:59.5	359.620	-0.280	-0.280	-1.540
2020/01/31 15:13:59.6	359.730	-0.220	-0.320	-1.490
2020/01/31 15:13:59.7	359.840	-0.170	-0.360	-1.450
2020/01/31 15:13:59.8	359.950	-0.120	-0.400	-1.410
2020/01/31 15:13:59.9	0.070	-0.060	-0.440	-1.370
2020/01/31 15:14:00.0	0.180	-0.010	-0.470	-1.330
2020/01/31 15:14:00.1	0.300	0.040	-0.510	-1.290
2020/01/31 15:14:00.2	0.410	0.100	-0.540	-1.260
2020/01/31 15:14:00.3	0.530	0.150	-0.570	-1.220
2020/01/31 15:14:00.4	0.640	0.190	-0.600	-1.190
2020/01/31 15:14:00.5	0.760	0.240	-0.630	-1.160
2020/01/31 15:14:00.6	0.830	0.280	-0.650	-1.120
2020/01/31 15:14:00.7	0.950	0.320	-0.670	-1.090
2020/01/31 15:14:00.8	1.060	0.360	-0.680	-1.070
2020/01/31 15:14:00.9	1.180	0.390	-0.700	-1.040
2020/01/31 15:14:01.0	1.300	0.420	-0.700	-1.010
2020/01/31 15:14:01.1	1.410	0.450	-0.710	-0.980
2020/01/31 15:14:01.2	1.530	0.470	-0.710	-0.960
2020/01/31 15:14:01.3	1.640	0.490	-0.700	-0.930
2020/01/31 15:14:01.4	1.750	0.510	-0.690	-0.910
2020/01/31 15:14:01.5	1.870	0.520	-0.670	-0.890
2020/01/31 15:14:01.6	1.970	0.520	-0.660	-0.880
2020/01/31 15:14:01.7	2.080	0.520	-0.640	-0.860
2020/01/31 15:14:01.8	2.200	0.520	-0.610	-0.840
2020/01/31 15:14:01.9	2.310	0.510	-0.570	-0.830
2020/01/31 15:14:02.0	2.420	0.500	-0.540	-0.820
2020/01/31 15:14:02.1	2.540	0.490	-0.500	-0.810
2020/01/31 15:14:02.2	2.650	0.470	-0.460	-0.810
2020/01/31 15:14:02.3	2.770	0.450	-0.410	-0.810
2020/01/31 15:14:02.4	2.880	0.430	-0.360	-0.810
2020/01/31 15:14:02.5	2.990	0.400	-0.310	-0.810
2020/01/31 15:14:02.6	3.100	0.370	-0.250	-0.810
2020/01/31 15:14:02.7	3.220	0.340	-0.200	-0.820
2020/01/31 15:14:02.8	3.340	0.300	-0.140	-0.830
2020/01/31 15:14:02.9	3.460	0.270	-0.090	-0.840
2020/01/31 15:14:03.0	3.580	0.230	-0.040	-0.860
2020/01/31 15:14:03.1	3.700	0.200	0.020	-0.870
2020/01/31 15:14:03.2	3.830	0.160	0.070	-0.890
2020/01/31 15:14:03.3	3.950	0.120	0.120	-0.920
2020/01/31 15:14:03.4	4.080	0.090	0.160	-0.940
2020/01/31 15:14:03.5	4.210	0.050	0.210	-0.960
2020/01/31 15:14:03.6	4.360	0.020	0.250	-0.990
2020/01/31 15:14:03.7	4.500	-0.010	0.280	-1.020
2020/01/31 15:14:03.8	4.630	-0.040	0.320	-1.040
2020/01/31 15:14:03.9	4.760	-0.070	0.350	-1.070
2020/01/31 15:14:04.0	4.900	-0.090	0.370	-1.090
2020/01/31 15:14:04.1	5.030	-0.120	0.390	-1.120
2020/01/31 15:14:04.2	5.160	-0.140	0.410	-1.140
2020/01/31 15:14:04.3	5.300	-0.160	0.430	-1.160
2020/01/31 15:14:04.4	5.430	-0.170	0.440	-1.180
2020/01/31 15:14:04.5	5.560	-0.190	0.440	-1.200
2020/01/31 15:14:04.6	5.690	-0.200	0.450	-1.220
2020/01/31 15:14:04.7	5.830	-0.210	0.450	-1.240
2020/01/31 15:14:04.8	5.960	-0.220	0.440	-1.250
2020/01/31 15:14:04.9	6.090	-0.220	0.440	-1.270
2020/01/31 15:14:05.0	6.220	-0.220	0.430	-1.280
2020/01/31 15:14:05.1	6.350	-0.220	0.410	-1.290
2020/01/31 15:14:05.2	6.480	-0.220	0.390	-1.300
2020/01/31 15:14:05.3	6.610	-0.220	0.370	-1.310
2020/01/31 15:14:05.4	6.740	-0.210	0.350	-1.320
2020/01/31 15:14:05.5	6.870	-0.200	0.330	-1.330
2020/01/31 15:14:05.6	6.990	-0.200	0.300	-1.340
2020/01/31 15:14:05.7	7.130	-0.190	0.270	-1.350
2020/01/31 15:14:05.8	7.260	-0.180	0.240	-1.360
2020/01/31 15:14:05.9	7.390	-0.170	0.210	-1.360
2020/01/31 15:14:06.0	7.520	-0.160	0.180	-1.370
2020/01/31 15:14:06.1	7.650	-0.150	0.140	-1.380
2020/01/31 15:14:06.2	7.780	-0.140	0.100	-1.380
2020/01/31 15:14:06.3	7.910	-0.130	0.070	-1.390
2020/01/31 15:14:06.4	8.050	-0.120	0.030	-1.390
2020/01/31 15:14:06.5	8.180	-0.110	-0.010	-1.400
2020/01/31 15:14:06.6	8.330	-0.100	-0.050	-1.400
2020/01/31 15:14:06.7	8.460	-0.090	-0.090	-1.400
2020/01/31 15:14:06.8	8.590	-0.090	-0.130	-1.400
2020/01/31 15:14:06.9	8.710	-0.090	-0.160	-1.400
2020/01/31 15:14:07.0	8.840	-0.080	-0.200	-1.410
2020/01/31 15:14:07.1	8.970	-0.080	-0.240	-1.410
2020/01/31 15:14:07.2	9.090	-0.080	-0.270	-1.410
2020/01/31 15:14:07.3	9.220	-0.090	-0.300	-1.410
2020/01/31 15:14:07.4	9.340	-0.090	-0.330	-1.420
2020/01/31 15:14:07.5	9.470	-0.100	-0.370	-1.420
2020/01/31 15:14:07.6	9.590	-0.100	-0.390	-1.440
2020/01/31 15:14:07.7	9.720	-0.110	-0.420	-1.440
2020/01/31 15:14:07.8	9.840	-0.120	-0.440	-1.460
2020/01/31 15:14:07.9	9.970	-0.130	-0.470	-1.470
2020/01/31 15:14:08.0	10.100	-0.140	-0.490	-1.480
2020/01/31 15:14:08.1	10.230	-0.150	-0.520	-1.500
2020/01/31 15:14:08.2	10.360	-0.160	-0.540	-1.520
2020/01/31 15:14:08.3	10.490	-0.160	-0.560	-1.550
2020/01/31 15:14:08.4	10.630	-0.170	-0.580	-1.570
2020/01/31 15:14:08.5	10.770	-0.180	-0.600	-1.600
2020/01/31 15:14:08.6	10.910	-0.190	-0.610	-1.640
2020/01/31 15:14:08.7	11.050	-0.190	-0.630	-1.670
2020/01/31 15:14:08.8	11.190	-0.200	-0.650	-1.710
2020/01/31 15:14:08.9	11.340	-0.200	-0.670	-1.750
2020/01/31 15:14:09.0	11.490	-0.200	-0.680	-1.790
2020/01/31 15:14:09.1	11.640	-0.200	-0.700	-1.830
2020/01/31 15:14:09.2	11.790	-0.190	-0.720	-1.870
2020/01/31 15:14:09.3	11.950	-0.190	-0.730	-1.920
2020/01/31 15:14:09.4	12.110	-0.180	-0.750	-1.960
2020/01/31 15:14:09.5	12.270	-0.160	-0.760	-2.000
2020/01/31 15:14:09.6	12.440	-0.150	-0.780	-2.050
2020/01/31 15:14:09.7	12.610	-0.140	-0.790	-2.090
2020/01/31 15:14:09.8	12.770	-0.120	-0.800	-2.130
2020/01/31 15:14:09.9	12.930	-0.100	-0.810	-2.170
2020/01/31 15:14:10.0	13.100	-0.080	-0.810	-2.200
2020/01/31 15:14:10.1	13.260	-0.060	-0.810	-2.230
2020/01/31 15:14:10.2	13.420	-0.040	-0.810	-2.260
2020/01/31 15:14:10.3	13.580	-0.010	-0.810	-2.280
2020/01/31 15:14:10.4	13.740	0.010	-0.800	-2.300
2020/01/31 15:14:10.5	13.900	0.030	-0.790	-2.310
2020/01/31 15:14:10.6	14.070	0.050	-0.770	-2.310
2020/01/31 15:14:10.7	14.220	0.070	-0.750	-2.310
2020/01/31 15:14:10.8	14.370	0.090	-0.730	-2.310
2020/01/31 15:14:10.9	14.510	0.100	-0.700	-2.300
2020/01/31 15:14:11.0	14.650	0.120	-0.660	-2.280
2020/01/31 15:14:11.1	14.800	0.130	-0.630	-2.260
2020/01/31 15:14:11.2	14.930	0.140	-0.580	-2.230
2020/01/31 15:14:11.3	15.070	0.150	-0.530	-2.200
2020/01/31 15:14:11.4	15.200	0.150	-0.480	-2.160
2020/01/31 15:14:11.5	15.330	0.150	-0.420	-2.120
2020/01/31 15:14:11.6	15.460	0.150	-0.360	-2.070
2020/01/31 15:14:11.7	15.590	0.150	-0.300	-2.020
2020/01/31 15:14:11.8	15.710	0.140	-0.240	-1.970
2020/01/31 15:14:11.9	15.830	0.130	-0.170	-1.920
2020/01/31 15:14:12.0	15.940	0.120	-0.100	-1.860
2020/01/31 15:14:12.1	16.060	0.110	-0.030	-1.810
2020/01/31 15:14:12.2	16.170	0.100	0.040	-1.750
2020/01/31 15:14:12.3	16.290	0.080	0.110	-1.690
2020/01/31 15:14:12.4	16.400	0.060	0.180	-1.630
2020/01/31 15:14:12.5	16.510	0.040	0.240	-1.580
2020/01/31 15:14:12.6	16.630	0.030	0.310	-1.520
2020/01/31 15:14:12.7	16.750	0.010	0.370	-1.460
2020/01/31 15:14:12.8	16.860	-0.010	0.430	-1.410
2020/01/31 15:14:12.9	16.970	-0.030	0.480	-1.360
2020/01/31 15:14:13.0	17.080	-0.040	0.520	-1.310
2020/01/31 15:14:13.1	17.200	-0.060	0.570	-1.250
2020/01/31 15:14:13.2	17.310	-0.070	0.600	-1.200
2020/01/31 15:14:13.3	17.420	-0.090	0.630	-1.150
2020/01/31 15:14:13.4	17.530	-0.100	0.660	-1.100
2020/01/31 15:14:13.5	17.640	-0.100	0.670	-1.050
2020/01/31 15:14:13.6	17.740	-0.110	0.680	-1.010
2020/01/31 15:14:13.7	17.850	-0.110	0.690	-0.960
2020/01/31 15:14:13.8	17.960	-0.120	0.690	-0.910
2020/01/31 15:14:13.9	18.060	-0.110	0.680	-0.860
2020/01/31 15:14:14.0	18.170	-0.110	0.670	-0.820
2020/01/31 15:14:14.1	18.270	-0.110	0.650	-0.780
2020/01/31 15:14:14.2	18.370	-0.100	0.620	-0.740
2020/01/31 15:14:14.3	18.480	-0.090	0.590	-0.700
2020/01/31 15:14:14.4	18.580	-0.070	0.550	-0.660
2020/01/31 15:14:14.5	18.690	-0.060	0.510	-0.630
2020/01/31 15:14:14.6	18.790	-0.040	0.470	-0.600
2020/01/31 15:14:14.7	18.900	-0.030	0.410	-0.580
2020/01/31 15:14:14.8	19.000	-0.010	0.360	-0.550
2020/01/31 15:14:14.9	19.110	0.010	0.300	-0.540
2020/01/31 15:14:15.0	19.220	0.030	0.240	-0.520
2020/01/31 15:14:15.1	19.330	0.050	0.180	-0.510
2020/01/31 15:14:15.2	19.430	0.080	0.120	-0.500
2020/01/31 15:14:15.3	19.540	0.100	0.050	-0.500
2020/01/31 15:14:15.4	19.650	0.120	-0.010	-0.500
2020/01/31 15:14:15.5	19.760	0.140	-0.080	-0.500
2020/01/31 15:14:15.6	19.890	0.160	-0.140	-0.510
2020/01/31 15:14:15.7	20.000	0.170	-0.200	-0.520
2020/01/31 15:14:15.8	20.110	0.190	-0.260	-0.530
2020/01/31 15:14:15.9	20.220	0.210	-0.320	-0.540
2020/01/31 15:14:16.0	20.340	0.220	-0.370	-0.560
2020/01/31 15:14:16.1	20.460	0.230	-0.430	-0.580
2020/01/31 15:14:16.2	20.580	0.240	-0.480	-0.600
2020/01/31 15:14:16.3	20.700	0.250	-0.520	-0.620
2020/01/31 15:14:16.4	20.820	0.250	-0.560	-0.650
2020/01/31 15:14:16.5	20.940	0.260	-0.600	-0.680
2020/01/31 15:14:16.6	21.060	0.260	-0.630	-0.700
2020/01/31 15:14:16.7	21.190	0.260	-0.660	-0.740
2020/01/31 15:14:16.8	21.320	0.250	-0.680	-0.770
2020/01/31 15:14:16.9	21.450	0.250	-0.700	-0.800
2020/01/31 15:14:17.0	21.580	0.240	-0.720	-0.840
2020/01/31 15:14:17.1	21.710	0.230	-0.730	-0.880
2020/01/31 15:14:17.2	21.850	0.210	-0.730	-0.910
2020/01/31 15:14:17.3	21.980	0.200	-0.730	-0.950
2020/01/31 15:14:17.4	22.120	0.180	-0.720	-1.000
2020/01/31 15:14:17.5	22.260	0.160	-0.710	-1.040
2020/01/31 15:14:17.6	22.400	0.140	-0.700	-1.080
2020/01/31 15:14:17.7	22.540	0.110	-0.680	-1.130
2020/01/31 15:14:17.8	22.680	0.090	-0.660	-1.180
2020/01/31 15:14:17.9	22.820	0.060	-0.630	-1.230
2020/01/31 15:14:18.0	22.960	0.040	-0.610	-1.270
2020/01/31 15:14:18.1	23.110	0.010	-0.580	-1.320
2020/01/31 15:14:18.2	23.250	-0.020	-0.540	-1.370
2020/01/31 15:14:18.3	23.390	-0.050	-0.510	-1.420
2020/01/31 15:14:18.4	23.540	-0.070	-0.470	-1.470
2020/01/31 15:14:18.5	23.680	-0.100	-0.430	-1.520
2020/01/31 15:14:18.6	23.800	-0.130	-0.400	-1.570
2020/01/31 15:14:18.7	23.940	-0.160	-0.350	-1.620
2020/01/31 15:14:18.8	24.070	-0.180	-0.310	-1.670
2020/01/31 15:14:18.9	24.210	-0.210	-0.270	-1.710
2020/01/31 15:14:19.0	24.350	-0.230	-0.230	-1.750
2020/01/31 15:14:19.1	24.480	-0.250	-0.190	-1.790
2020/01/31 15:14:19.2	24.610	-0.270	-0.150	-1.830
2020/01/31 15:14:19.3	24.740	-0.290	-0.120	-1.870
2020/01/31 15:14:19.4	24.870	-0.300	-0.080	-1.900
2020/01/31 15:14:19.5	25.000	-0.320	-0.050	-1.930
2020/01/31 15:14:19.6	25.090	-0.330	-0.010	-1.960
2020/01/31 15:14:19.7	25.220	-0.330	0.020	-1.990
2020/01/31 15:14:19.8	25.340	-0.340	0.040	-2.010
2020/01/31 15:14:19.9	25.470	-0.340	0.060	-2.040
2020/01/31 15:14:20.0	25.590	-0.340	0.080	-2.060
2020/01/31 15:14:20.1	25.710	-0.330	0.100	-2.080
2020/01/31 15:14:20.2	25.830	-0.330	0.110	-2.090
2020/01/31 15:14:20.3	25.950	-0.320	0.120	-2.100
2020/01/31 15:14:20.4	26.070	-0.300	0.120	-2.110
2020/01/31 15:14:20.5	26.200	-0.290	0.120	-2.120
2020/01/31 15:14:20.6	26.310	-0.270	0.110	-2.130
2020/01/31 15:14:20.7	26.430	-0.240	0.100	-2.130
2020/01/31 15:14:20.8	26.560	-0.220	0.090	-2.120
2020/01/31 15:14:20.9	26.680	-0.190	0.070	-2.120
2020/01/31 15:14:21.0	26.800	-0.170	0.050	-2.110
2020/01/31 15:14:21.1	26.920	-0.140	0.020	-2.090
2020/01/31 15:14:21.2	27.040	-0.100	-0.010	-2.070
2020/01/31 15:14:21.3	27.160	-0.070	-0.040	-2.050
2020/01/31 15:14:21.4	27.280	-0.040	-0.080	-2.030
2020/01/31 15:14:21.5	27.400	-0.000	-0.110	-2.000
2020/01/31 15:14:21.6	27.500	0.030	-0.150	-1.960
2020/01/31 15:14:21.7	27.620	0.060	-0.190	-1.930
2020/01/31 15:14:21.8	27.730	0.100	-0.230	-1.890
2020/01/31 15:14:21.9	27.850	0.130	-0.270	-1.850
2020/01/31 15:14:22.0	27.960	0.160	-0.310	-1.800
2020/01/31 15:14:22.1	28.080	0.190	-0.340	-1.760
2020/01/31 15:14:22.2	28.190	0.210	-0.380	-1.720
2020/01/31 15:14:22.3	28.310	0.240	-0.410	-1.670
2020/01/31 15:14:22.4	28.420	0.260	-0.440	-1.630
2020/01/31 15:14:22.5	28.530	0.270	-0.470	-1.580
2020/01/31 15:14:22.6	28.650	0.290	-0.490	-1.530
2020/01/31 15:14:22.7	28.770	0.300	-0.510	-1.490
2020/01/31 15:14:22.8	28.870	0.300	-0.520	-1.450
2020/01/31 15:14:22.9	28.980	0.300	-0.530	-1.420
2020/01/31 15:14:23.0	29.090	0.300	-0.530	-1.380
2020/01/31 15:14:23.1	29.200	0.300	-0.530	-1.350
2020/01/31 15:14:23.2	29.310	0.290	-0.520	-1.320
2020/01/31 15:14:23.3	29.420	0.270	-0.500	-1.290
2020/01/31 15:14:23.4	29.520	0.260	-0.490	-1.260
2020/01/31 15:14:23.5	29.630	0.240	-0.460	-1.240
2020/01/31 15:14:23.6	29.730	0.210	-0.430	-1.220
2020/01/31 15:14:23.7	29.840	0.190	-0.400	-1.190
2020/01/31 15:14:23.8	29.950	0.160	-0.370	-1.170
2020/01/31 15:14:23.9	30.050	0.130	-0.330	-1.150
2020/01/31 15:14:24.0	30.160	0.090	-0.280	-1.130
2020/01/31 15:14:24.1	30.260	0.060	-0.240	-1.110
2020/01/31 15:14:24.2	30.370	0.030	-0.190	-1.090
2020/01/31 15:14:24.3	30.480	-0.010	-0.150	-1.070
2020/01/31 15:14:24.4	30.580	-0.040	-0.100	-1.050
2020/01/31 15:14:24.5	30.690	-0.080	-0.050	-1.030
2020/01/31 15:14:24.6	30.810	-0.110	0.000	-1.020
2020/01/31 15:14:24.7	30.920	-0.140	0.050	-1.000
2020/01/31 15:14:24.8	31.020	-0.170	0.100	-0.980
2020/01/31 15:14:24.9	31.140	-0.200	0.140	-0.960
2020/01/31 15:14:25.0	31.250	-0.230	0.180	-0.940
2020/01/31 15:14:25.1	31.360	-0.250	0.220	-0.920
2020/01/31 15:14:25.2	31.470	-0.270	0.260	-0.900
2020/01/31 15:14:25.3	31.580	-0.290	0.290	-0.880
2020/01/31 15:14:25.4	31.700	-0.310	0.320	-0.870
2020/01/31 15:14:25.5	31.810	-0.320	0.340	-0.850
2020/01/31 15:14:25.6	31.940	-0.320	0.350	-0.840
2020/01/31 15:14:25.7	32.050	-0.320	0.360	-0.830
2020/01/31 15:14:25.8	32.170	-0.320	0.370	-0.820
2020/01/31 15:14:25.9	32.280	-0.320	0.360	-0.810
2020/01/31 15:14:26.0	32.400	-0.310	0.350	-0.800
2020/01/31 15:14:26.1	32.520	-0.290	0.340	-0.800
2020/01/31 15:14:26.2	32.640	-0.280	0.320	-0.800
2020/01/31 15:14:26.3	32.750	-0.250	0.290	-0.800
2020/01/31 15:14:26.4	32.870	-0.230	0.250	-0.800
2020/01/31 15:14:26.5	32.990	-0.200	0.210	-0.810
2020/01/31 15:14:26.6	33.130	-0.170	0.170	-0.820
2020/01/31 15:14:26.7	33.250	-0.130	0.120	-0.830
2020/01/31 15:14:26.8	33.380	-0.100	0.070	-0.850
2020/01/31 15:14:26.9	33.500	-0.060	0.020	-0.860
2020/01/31 15:14:27.0	33.630	-0.020	-0.040	-0.880
2020/01/31 15:14:27.1	33.750	0.020	-0.100	-0.900
2020/01/31 15:14:27.2	33.880	0.070	-0.160	-0.920
2020/01/31 15:14:27.3	34.010	0.110	-0.220	-0.950
2020/01/31 15:14:27.4	34.140	0.150	-0.280	-0.970
2020/01/31 15:14:27.5	34.270	0.190	-0.330	-0.990
2020/01/31 15:14:27.6	34.400	0.230	-0.380	-1.020
2020/01/31 15:14:27.7	34.530	0.270	-0.430	-1.040
2020/01/31 15:14:27.8	34.660	0.310	-0.480	-1.060
2020/01/31 15:14:27.9	34.790	0.340	-0.520	-1.080
2020/01/31 15:14:28.0	34.910	0.370	-0.550	-1.100
2020/01/31 15:14:28.1	35.040	0.400	-0.580	-1.110
2020/01/31 15:14:28.2	35.170	0.420	-0.600	-1.130
2020/01/31 15:14:28.3	35.290	0.440	-0.610	-1.140
2020/01/31 15:14:28.4	35.410	0.460	-0.620	-1.150
2020/01/31 15:14:28.5	35.530	0.470	-0.620	-1.150
2020/01/31 15:14:28.6	35.660	0.470	-0.620	-1.160
2020/01/31 15:14:28.7	35.770	0.470	-0.600	-1.160
2020/01/31 15:14:28.8	35.880	0.470	-0.580	-1.160
2020/01/31 15:14:28.9	35.990	0.460	-0.550	-1.160
2020/01/31 15:14:29.0	36.090	0.450	-0.520	-1.150
2020/01/31 15:14:29.1	36.200	0.430	-0.470	-1.150
2020/01/31 15:14:29.2	36.300	0.410	-0.430	-1.140
2020/01/31 15:14:29.3	36.390	0.380	-0.380	-1.130
2020/01/31 15:14:29.4	36.480	0.350	-0.320	-1.120
2020/01/31 15:14:29.5	36.570	0.310	-0.260	-1.120
2020/01/31 15:14:29.6	36.670	0.270	-0.200	-1.110
2020/01/31 15:14:29.7	36.760	0.230	-0.130	-1.100
2020/01/31 15:14:29.8	36.840	0.190	-0.070	-1.090
2020/01/31 15:14:29.9	36.920	0.140	-0.010	-1.080
2020/01/31 15:14:30.0	37.000	0.090	0.060	-1.070
2020/01/31 15:14:30.1	37.080	0.040	0.120	-1.070
2020/01/31 15:14:30.2	37.160	-0.010	0.170	-1.060
2020/01/31 15:14:30.3	37.240	-0.060	0.230	-1.050
2020/01/31 15:14:30.4	37.310	-0.110	0.280	-1.050
2020/01/31 15:14:30.5	37.390	-0.160	0.320	-1.050
2020/01/31 15:14:30.6	37.460	-0.200	0.360	-1.050
2020/01/31 15:14:30.7	37.540	-0.250	0.390	-1.060
2020/01/31 15:14:30.8	37.620	-0.290	0.420	-1.060
2020/01/31 15:14:30.9	37.700	-0.330	0.440	-1.070
2020/01/31 15:14:31.0	37.780	-0.370	0.450	-1.070
2020/01/31 15:14:31.1	37.870	-0.400	0.460	-1.080
2020/01/31 15:14:31.2	37.960	-0.430	0.460	-1.090
2020/01/31 15:14:31.3	38.040	-0.450	0.450	-1.100
2020/01/31 15:14:31.4	38.130	-0.470	0.430	-1.110
2020/01/31 15:14:31.5	38.220	-0.490	0.400	-1.130
2020/01/31 15:14:31.6	38.300	-0.500	0.380	-1.150
2020/01/31 15:14:31.7	38.400	-0.510	0.340	-1.160
2020/01/31 15:14:31.8	38.490	-0.510	0.300	-1.180
2020/01/31 15:14:31.9	38.590	-0.510	0.250	-1.190
2020/01/31 15:14:32.0	38.690	-0.500	0.190	-1.210
2020/01/31 15:14:32.1	38.800	-0.490	0.130	-1.230
2020/01/31 15:14:32.2	38.900	-0.470	0.070	-1.250
2020/01/31 15:14:32.3	39.010	-0.450	0.000	-1.270
2020/01/31 15:14:32.4	39.120	-0.420	-0.070	-1.290
2020/01/31 15:14:32.5	39.220	-0.400	-0.140	-1.320
2020/01/31 15:14:32.6	39.350	-0.360	-0.210	-1.340
2020/01/31 15:14:32.7	39.460	-0.330	-0.280	-1.370
2020/01/31 15:14:32.8	39.570	-0.290	-0.360	-1.390
2020/01/31 15:14:32.9	39.690	-0.250	-0.430	-1.420
2020/01/31 15:14:33.0	39.810	-0.200	-0.500	-1.450
2020/01/31 15:14:33.1	39.930	-0.160	-0.570	-1.470
2020/01/31 15:14:33.2	40.050	-0.110	-0.640	-1.500
2020/01/31 15:14:33.3	40.170	-0.060	-0.700	-1.530
2020/01/31 15:14:33.4	40.290	-0.010	-0.760	-1.560
2020/01/31 15:14:33.5	40.420	0.040	-0.820	-1.590
2020/01/31 15:14:33.6	40.530	0.090	-0.870	-1.620
2020/01/31 15:14:33.7	40.660	0.140	-0.920	-1.650
2020/01/31 15:14:33.8	40.780	0.190	-0.960	-1.670
2020/01/31 15:14:33.9	40.910	0.240	-0.990	-1.690
2020/01/31 15:14:34.0	41.030	0.280	-1.020	-1.720
2020/01/31 15:14:34.1	41.160	0.330	-1.040	-1.730
2020/01/31 15:14:34.2	41.280	0.370	-1.050	-1.750
2020/01/31 15:14:34.3	41.400	0.410	-1.060	-1.760
2020/01/31 15:14:34.4	41.520	0.450	-1.060	-1.760
2020/01/31 15:14:34.5	41.650	0.490	-1.050	-1.770
2020/01/31 15:14:34.6	41.790	0.520	-1.040	-1.760
2020/01/31 15:14:34.7	41.910	0.550	-1.020	-1.760
2020/01/31 15:14:34.8	42.030	0.570	-0.990	-1.740
2020/01/31 15:14:34.9	42.140	0.590	-0.950	-1.730
2020/01/31 15:14:35.0	42.260	0.610	-0.910	-1.700
2020/01/31 15:14:35.1	42.370	0.630	-0.870	-1.680
2020/01/31 15:14:35.2	42.480	0.640	-0.820	-1.640
2020/01/31 15:14:35.3	42.590	0.640	-0.760	-1.610
2020/01/31 15:14:35.4	42.700	0.650	-0.700	-1.560
2020/01/31 15:14:35.5	42.800	0.640	-0.630	-1.520
2020/01/31 15:14:35.6	42.900	0.640	-0.560	-1.470
2020/01/31 15:14:35.7	43.000	0.630	-0.490	-1.410
2020/01/31 15:14:35.8	43.100	0.620	-0.410	-1.360
2020/01/31 15:14:35.9	43.190	0.600	-0.330	-1.300
2020/01/31 15:14:36.0	43.290	0.580	-0.250	-1.240
2020/01/31 15:14:36.1	43.380	0.550	-0.170	-1.180
2020/01/31 15:14:36.2	43.470	0.520	-0.080	-1.120
2020/01/31 15:14:36.3	43.550	0.490	0.000	-1.060
2020/01/31 15:14:36.4	43.640	0.450	0.090	-1.000
2020/01/31 15:14:36.5	43.720	0.410	0.180	-0.930
2020/01/31 15:14:36.6	43.790	0.370	0.260	-0.870
2020/01/31 15:14:36.7	43.870	0.320	0.350	-0.810
2020/01/31 15:14:36.8	43.940	0.270	0.430	-0.750
2020/01/31 15:14:36.9	44.020	0.220	0.510	-0.690
2020/01/31 15:14:37.0	44.090	0.170	0.590	-0.630
2020/01/31 15:14:37.1	44.160	0.110	0.660	-0.580
2020/01/31 15:14:37.2	44.230	0.060	0.730	-0.520
2020/01/31 15:14:37.3	44.300	0.000	0.790	-0.470
2020/01/31 15:14:37.4	44.370	-0.050	0.850	-0.430
2020/01/31 15:14:37.5	44.440	-0.110	0.900	-0.380
2020/01/31 15:14:37.6	44.500	-0.170	0.950	-0.340
2020/01/31 15:14:37.7	44.570	-0.220	0.980	-0.300
2020/01/31 15:14:37.8	44.640	-0.270	1.010	-0.270
2020/01/31 15:14:37.9	44.710	-0.330	1.030	-0.240
2020/01/31 15:14:38.0	44.780	-0.380	1.050	-0.220
2020/01/31 15:14:38.1	44.860	-0.420	1.050	-0.200
2020/01/31 15:14:38.2	44.940	-0.470	1.040	-0.190
2020/01/31 15:14:38.3	45.020	-0.510	1.020	-0.180
2020/01/31 15:14:38.4	45.100	-0.540	1.000	-0.180
2020/01/31 15:14:38.5	45.190	-0.580	0.960	-0.180
2020/01/31 15:14:38.6	45.250	-0.610	0.920	-0.190
2020/01/31 15:14:38.7	45.350	-0.630	0.860	-0.200
2020/01/31 15:14:38.8	45.440	-0.650	0.790	-0.220
2020/01/31 15:14:38.9	45.540	-0.660	0.720	-0.240
2020/01/31 15:14:39.0	45.640	-0.670	0.640	-0.270
2020/01/31 15:14:39.1	45.740	-0.680	0.550	-0.310
2020/01/31 15:14:39.2	45.850	-0.680	0.450	-0.340
2020/01/31 15:14:39.3	45.960	-0.670	0.350	-0.390
2020/01/31 15:14:39.4	46.070	-0.660	0.240	-0.430
2020/01/31 15:14:39.5	46.190	-0.650	0.120	-0.480
2020/01/31 15:14:39.6	46.280	-0.630	0.010	-0.540
2020/01/31 15:14:39.7	46.400	-0.600	-0.110	-0.600
2020/01/31 15:14:39.8	46.520	-0.570	-0.240	-0.660
2020/01/31 15:14:39.9	46.640	-0.540	-0.360	-0.720
2020/01/31 15:14:40.0	46.770	-0.510	-0.480	-0.780
2020/01/31 15:14:40.1	46.890	-0.470	-0.600	-0.850
2020/01/31 15:14:40.2	47.020	-0.420	-0.720	-0.910
2020/01/31 15:14:40.3	47.140	-0.380	-0.840	-0.980
2020/01/31 15:14:40.4	47.270	-0.330	-0.950	-1.050
2020/01/31 15:14:40.5	47.400	-0.280	-1.050	-1.110
2020/01/31 15:14:40.6	47.500	-0.230	-1.150	-1.170
2020/01/31 15:14:40.7	47.620	-0.180	-1.240	-1.230
2020/01/31 15:14:40.8	47.750	-0.120	-1.320	-1.290
2020/01/31 15:14:40.9	47.870	-0.070	-1.390	-1.340
2020/01/31 15:14:41.0	47.990	-0.010	-1.460	-1.390
2020/01/31 15:14:41.1	48.110	0.040	-1.510	-1.440
2020/01/31 15:14:41.2	48.230	0.090	-1.550	-1.480
2020/01/31 15:14:41.3	48.340	0.150	-1.580	-1.520
2020/01/31 15:14:41.4	48.450	0.200	-1.600	-1.550
2020/01/31 15:14:41.5	48.560	0.240	-1.600	-1.570
2020/01/31 15:14:41.6	48.660	0.290	-1.590	-1.600
2020/01/31 15:14:41.7	48.760	0.330	-1.570	-1.610
2020/01/31 15:14:41.8	48.860	0.370	-1.540	-1.620
2020/01/31 15:14:41.9	48.960	0.410	-1.500	-1.620
2020/01/31 15:14:42.0	49.050	0.450	-1.450	-1.610
2020/01/31 15:14:42.1	49.140	0.480	-1.390	-1.600
2020/01/31 15:14:42.2	49.230	0.500	-1.320	-1.580
2020/01/31 15:14:42.3	49.310	0.520	-1.240	-1.550
2020/01/31 15:14:42.4	49.390	0.540	-1.150	-1.520
2020/01/31 15:14:42.5	49.470	0.560	-1.050	-1.480
2020/01/31 15:14:42.6	49.550	0.570	-0.950	-1.440
2020/01/31 15:14:42.7	49.620	0.570	-0.850	-1.390
2020/01/31 15:14:42.8	49.680	0.570	-0.730	-1.340
2020/01/31 15:14:42.9	49.750	0.570	-0.610	-1.280
2020/01/31 15:14:43.0	49.810	0.570	-0.490	-1.210
2020/01/31 15:14:43.1	49.870	0.560	-0.370	-1.150
2020/01/31 15:14:43.2	49.920	0.540	-0.250	-1.070
2020/01/31 15:14:43.3	49.970	0.530	-0.120	-1.000
2020/01/31 15:14:43.4	50.020	0.510	0.000	-0.920
2020/01/31 15:14:43.5	50.070	0.490	0.120	-0.840
2020/01/31 15:14:43.6	50.120	0.460	0.250	-0.750
2020/01/31 15:14:43.7	50.170	0.430	0.360	-0.660
2020/01/31 15:14:43.8	50.210	0.400	0.470	-0.580
2020/01/31 15:14:43.9	50.250	0.370	0.580	-0.490
2020/01/31 15:14:44.0	50.290	0.340	0.680	-0.410
2020/01/31 15:14:44.1	50.330	0.300	0.780	-0.320
2020/01/31 15:14:44.2	50.380	0.260	0.860	-0.240
2020/01/31 15:14:44.3	50.420	0.230	0.940	-0.160
2020/01/31 15:14:44.4	50.460	0.190	1.010	-0.090
2020/01/31 15:14:44.5	50.510	0.150	1.080	-0.020
2020/01/31 15:14:44.6	50.570	0.110	1.120	0.050
2020/01/31 15:14:44.7	50.620	0.080	1.170	0.100
2020/01/31 15:14:44.8	50.680	0.040	1.200	0.160
2020/01/31 15:14:44.9	50.730	0.000	1.230	0.200
2020/01/31 15:14:45.0	50.790	-0.030	1.240	0.240
2020/01/31 15:14:45.1	50.840	-0.070	1.240	0.270
2020/01/31 15:14:45.2	50.900	-0.100	1.240	0.300
2020/01/31 15:14:45.3	50.970	-0.140	1.220	0.310
2020/01/31 15:14:45.4	51.030	-0.170	1.200	0.320
2020/01/31 15:14:45.5	51.100	-0.190	1.160	0.320
2020/01/31 15:14:45.6	51.190	-0.220	1.120	0.320
2020/01/31 15:14:45.7	51.270	-0.250	1.070	0.310
2020/01/31 15:14:45.8	51.340	-0.270	1.010	0.290
2020/01/31 15:14:45.9	51.420	-0.290	0.940	0.260
2020/01/31 15:14:46.0	51.490	-0.300	0.860	0.230
2020/01/31 15:14:46.1	51.580	-0.320	0.780	0.190
2020/01/31 15:14:46.2	51.660	-0.330	0.690	0.150
2020/01/31 15:14:46.3	51.740	-0.340	0.590	0.100
2020/01/31 15:14:46.4	51.830	-0.350	0.490	0.050
2020/01/31 15:14:46.5	51.920	-0.350	0.380	-0.010
2020/01/31 15:14:46.6	52.010	-0.350	0.270	-0.080
2020/01/31 15:14:46.7	52.110	-0.350	0.150	-0.150
2020/01/31 15:14:46.8	52.210	-0.340	0.040	-0.230
2020/01/31 15:14:46.9	52.310	-0.340	-0.080	-0.310
2020/01/31 15:14:47.0	52.410	-0.320	-0.200	-0.390
2020/01/31 15:14:47.1	52.520	-0.310	-0.310	-0.470
2020/01/31 15:14:47.2	52.630	-0.290	-0.430	-0.560
2020/01/31 15:14:47.3	52.740	-0.270	-0.550	-0.640
2020/01/31 15:14:47.4	52.850	-0.250	-0.660	-0.730
2020/01/31 15:14:47.5	52.970	-0.230	-0.770	-0.820
2020/01/31 15:14:47.6	53.070	-0.200	-0.870	-0.910
2020/01/31 15:14:47.7	53.190	-0.170	-0.970	-1.000
2020/01/31 15:14:47.8	53.310	-0.130	-1.070	-1.090
2020/01/31 15:14:47.9	53.420	-0.100	-1.160	-1.170
2020/01/31 15:14:48.0	53.540	-0.060	-1.240	-1.250
2020/01/31 15:14:48.1	53.660	-0.030	-1.310	-1.330
2020/01/31 15:14:48.2	53.780	0.010	-1.380	-1.400
2020/01/31 15:14:48.3	53.890	0.050	-1.440	-1.470
2020/01/31 15:14:48.4	54.010	0.090	-1.490	-1.540
2020/01/31 15:14:48.5	54.120	0.130	-1.530	-1.590
2020/01/31 15:14:48.6	54.210	0.170	-1.560	-1.640
2020/01/31 15:14:48.7	54.310	0.210	-1.580	-1.690
2020/01/31 15:14:48.8	54.420	0.240	-1.580	-1.730
2020/01/31 15:14:48.9	54.520	0.280	-1.580	-1.760
2020/01/31 15:14:49.0	54.620	0.310	-1.570	-1.780
2020/01/31 15:14:49.1	54.710	0.340	-1.550	-1.790
2020/01/31 15:14:49.2	54.810	0.360	-1.510	-1.800
2020/01/31 15:14:49.3	54.900	0.390	-1.470	-1.800
2020/01/31 15:14:49.4	54.980	0.410	-1.420	-1.790
2020/01/31 15:14:49.5	55.060	0.420	-1.350	-1.770
2020/01/31 15:14:49.6	55.130	0.430	-1.280	-1.750
2020/01/31 15:14:49.7	55.210	0.440	-1.200	-1.720
2020/01/31 15:14:49.8	55.280	0.440	-1.120	-1.680
2020/01/31 15:14:49.9	55.340	0.440	-1.020	-1.640
2020/01/31 15:14:50.0	55.410	0.430	-0.920	-1.590
2020/01/31 15:14:50.1	55.470	0.420	-0.810	-1.540
2020/01/31 15:14:50.2	55.520	0.400	-0.700	-1.480
2020/01/31 15:14:50.3	55.580	0.380	-0.580	-1.420
2020/01/31 15:14:50.4	55.630	0.350	-0.470	-1.360
2020/01/31 15:14:50.5	55.680	0.320	-0.350	-1.290
2020/01/31 15:14:50.6	55.720	0.280	-0.220	-1.220
2020/01/31 15:14:50.7	55.760	0.250	-0.100	-1.140
2020/01/31 15:14:50.8	55.810	0.210	0.020	-1.070
2020/01/31 15:14:50.9	55.850	0.160	0.130	-0.990
2020/01/31 15:14:51.0	55.890	0.120	0.250	-0.920
2020/01/31 15:14:51.1	55.930	0.070	0.350	-0.840
2020/01/31 15:14:51.2	55.970	0.020	0.460	-0.770
2020/01/31 15:14:51.3	56.010	-0.020	0.560	-0.700
2020/01/31 15:14:51.4	56.060	-0.070	0.650	-0.630
2020/01/31 15:14:51.5	56.100	-0.120	0.730	-0.560
2020/01/31 15:14:51.6	56.120	-0.160	0.800	-0.500
2020/01/31 15:14:51.7	56.160	-0.200	0.870	-0.440
2020/01/31 15:14:51.8	56.210	-0.240	0.920	-0.380
2020/01/31 15:14:51.9	56.260	-0.280	0.970	-0.330
2020/01/31 15:14:52.0	56.310	-0.320	1.000	-0.290
2020/01/31 15:14:52.1	56.370	-0.340	1.030	-0.250
2020/01/31 15:14:52.2	56.420	-0.370	1.040	-0.210
2020/01/31 15:14:52.3	56.480	-0.390	1.040	-0.170
2020/01/31 15:14:52.4	56.540	-0.400	1.030	-0.140
2020/01/31 15:14:52.5	56.600	-0.410	1.000	-0.120
2020/01/31 15:14:52.6	56.680	-0.410	0.970	-0.090
2020/01/31 15:14:52.7	56.750	-0.410	0.930	-0.070
2020/01/31 15:14:52.8	56.810	-0.400	0.870	-0.050
2020/01/31 15:14:52.9	56.880	-0.390	0.810	-0.040
2020/01/31 15:14:53.0	56.950	-0.370	0.740	-0.020
2020/01/31 15:14:53.1	57.020	-0.340	0.660	-0.010
2020/01/31 15:14:53.2	57.100	-0.310	0.570	-0.000
2020/01/31 15:14:53.3	57.170	-0.280	0.480	0.000
2020/01/31 15:14:53.4	57.240	-0.240	0.380	0.010
2020/01/31 15:14:53.5	57.320	-0.190	0.280	0.010
2020/01/31 15:14:53.6	57.400	-0.150	0.180	0.010
2020/01/31 15:14:53.7	57.480	-0.100	0.080	0.010
2020/01/31 15:14:53.8	57.560	-0.040	-0.020	0.000
2020/01/31 15:14:53.9	57.640	0.010	-0.120	-0.010
2020/01/31 15:14:54.0	57.720	0.070	-0.220	-0.020
2020/01/31 15:14:54.1	57.800	0.120	-0.320	-0.040
2020/01/31 15:14:54.2	57.890	0.170	-0.410	-0.050
2020/01/31 15:14:54.3	57.970	0.230	-0.490	-0.070
2020/01/31 15:14:54.4	58.050	0.280	-0.570	-0.100
2020/01/31 15:14:54.5	58.140	0.330	-0.650	-0.120
2020/01/31 15:14:54.6	58.220	0.370	-0.710	-0.150
2020/01/31 15:14:54.7	58.300	0.410	-0.770	-0.170
2020/01/31 15:14:54.8	58.380	0.450	-0.810	-0.200
2020/01/31 15:14:54.9	58.460	0.480	-0.850	-0.230
2020/01/31 15:14:55.0	58.540	0.510	-0.880	-0.260
2020/01/31 15:14:55.1	58.620	0.530	-0.910	-0.280
2020/01/31 15:14:55.2	58.690	0.550	-0.920	-0.310
2020/01/31 15:14:55.3	58.760	0.560	-0.920	-0.330
2020/01/31 15:14:55.4	58.830	0.570	-0.920	-0.360
2020/01/31 15:14:55.5	58.900	0.570	-0.910	-0.380
2020/01/31 15:14:55.6	58.980	0.560	-0.880	-0.390
2020/01/31 15:14:55.7	59.050	0.550	-0.860	-0.410
2020/01/31 15:14:55.8	59.110	0.530	-0.830	-0.430
2020/01/31 15:14:55.9	59.180	0.510	-0.790	-0.440
2020/01/31 15:14:56.0	59.240	0.490	-0.750	-0.450
2020/01/31 15:14:56.1	59.300	0.460	-0.700	-0.450
2020/01/31 15:14:56.2	59.360	0.430	-0.650	-0.460
2020/01/31 15:14:56.3	59.420	0.390	-0.590	-0.460
2020/01/31 15:14:56.4	59.470	0.350	-0.540	-0.460
2020/01/31 15:14:56.5	59.530	0.310	-0.480	-0.450
2020/01/31 15:14:56.6	59.600	0.270	-0.420	-0.450
2020/01/31 15:14:56.7	59.660	0.220	-0.360	-0.440
2020/01/31 15:14:56.8	59.720	0.180	-0.310	-0.440
2020/01/31 15:14:56.9	59.780	0.130	-0.250	-0.430
2020/01/31 15:14:57.0	59.840	0.080	-0.200	-0.420
2020/01/31 15:14:57.1	59.900	0.040	-0.150	-0.420
2020/01/31 15:14:57.2	59.960	-0.000	-0.100	-0.410
2020/01/31 15:14:57.3	60.030	-0.050	-0.050	-0.410
2020/01/31 15:14:57.4	60.100	-0.090	-0.010	-0.410
2020/01/31 15:14:57.5	60.160	-0.130	0.020	-0.410
2020/01/31 15:14:57.6	60.250	-0.160	0.060	-0.410
2020/01/31 15:14:57.7	60.320	-0.200	0.080	-0.420
2020/01/31 15:14:57.8	60.400	-0.220	0.110	-0.430
2020/01/31 15:14:57.9	60.470	-0.250	0.130	-0.440
2020/01/31 15:14:58.0	60.550	-0.270	0.140	-0.460
2020/01/31 15:14:58.1	60.630	-0.290	0.150	-0.480
2020/01/31 15:14:58.2	60.720	-0.310	0.160	-0.510
2020/01/31 15:14:58.3	60.800	-0.320	0.160	-0.540
2020/01/31 15:14:58.4	60.890	-0.320	0.160	-0.570
2020/01/31 15:14:58.5	60.980	-0.320	0.150	-0.610
2020/01/31 15:14:58.6	61.070	-0.320	0.150	-0.650
2020/01/31 15:14:58.7	61.160	-0.310	0.130	-0.690
2020/01/31 15:14:58.8	61.250	-0.310	0.120	-0.730
2020/01/31 15:14:58.9	61.340	-0.290	0.100	-0.770
2020/01/31 15:14:59.0	61.420	-0.280	0.080	-0.810
2020/01/31 15:14:59.1	61.510	-0.260	0.060	-0.850
2020/01/31 15:14:59.2	61.590	-0.240	0.040	-0.880
2020/01/31 15:14:59.3	61.670	-0.220	0.020	-0.920
2020/01/31 15:14:59.4	61.750	-0.190	0.000	-0.950
2020/01/31 15:14:59.5	61.830	-0.170	-0.020	-0.980
2020/01/31 15:14:59.6	61.890	-0.140	-0.040	-1.000
2020/01/31 15:14:59.7	61.950	-0.120	-0.060	-1.010
2020/01/31 15:14:59.8	62.020	-0.100	-0.070	-1.030
2020/01/31 15:14:59.9	62.080	-0.070	-0.080	-1.040
2020/01/31 15:15:00.0	62.130	-0.050	-0.090	-1.050
2020/01/31 15:15:00.1	62.180	-0.030	-0.090	-1.050
2020/01/31 15:15:00.2	62.230	-0.010	-0.100	-1.050
2020/01/31 15:15:00.3	62.270	0.000	-0.100	-1.040
2020/01/31 15:15:00.4	62.310	0.020	-0.100	-1.030
2020/01/31 15:15:00.5	62.350	0.030	-0.090	-1.020
2020/01/31 15:15:00.6	62.380	0.040	-0.080	-1.000
2020/01/31 15:15:00.7	62.410	0.050	-0.080	-0.980
2020/01/31 15:15:00.8	62.440	0.050	-0.060	-0.960
2020/01/31 15:15:00.9	62.470	0.050	-0.050	-0.930
2020/01/31 15:15:01.0	62.490	0.050	-0.040	-0.900
2020/01/31 15:15:01.1	62.520	0.050	-0.020	-0.860
2020/01/31 15:15:01.2	62.540	0.040	-0.000	-0.820
2020/01/31 15:15:01.3	62.570	0.030	0.010	-0.780
2020/01/31 15:15:01.4	62.590	0.020	0.030	-0.740
2020/01/31 15:15:01.5	62.610	0.010	0.040	-0.700
2020/01/31 15:15:01.6	62.630	-0.000	0.050	-0.660
2020/01/31 15:15:01.7	62.660	-0.020	0.060	-0.620
2020/01/31 15:15:01.8	62.690	-0.030	0.070	-0.580
2020/01/31 15:15:01.9	62.720	-0.050	0.080	-0.540
2020/01/31 15:15:02.0	62.750	-0.060	0.080	-0.510
2020/01/31 15:15:02.1	62.790	-0.070	0.070	-0.480
2020/01/31 15:15:02.2	62.830	-0.090	0.060	-0.450
2020/01/31 15:15:02.3	62.880	-0.100	0.050	-0.420
2020/01/31 15:15:02.4	62.930	-0.110	0.030	-0.400
2020/01/31 15:15:02.5	62.980	-0.120	0.010	-0.380
2020/01/31 15:15:02.6	63.040	-0.120	-0.020	-0.370
2020/01/31 15:15:02.7	63.110	-0.120	-0.060	-0.370
2020/01/31 15:15:02.8	63.170	-0.120	-0.090	-0.360
2020/01/31 15:15:02.9	63.240	-0.120	-0.130	-0.370
2020/01/31 15:15:03.0	63.310	-0.110	-0.180	-0.380
2020/01/31 15:15:03.1	63.390	-0.100	-0.230	-0.390
2020/01/31 15:15:03.2	63.470	-0.090	-0.280	-0.410
2020/01/31 15:15:03.3	63.560	-0.080	-0.330	-0.430
2020/01/31 15:15:03.4	63.640	-0.060	-0.370	-0.460
2020/01/31 15:15:03.5	63.730	-0.050	-0.420	-0.490
2020/01/31 15:15:03.6	63.810	-0.030	-0.480	-0.520
2020/01/31 15:15:03.7	63.900	-0.010	-0.520	-0.550
2020/01/31 15:15:03.8	64.000	0.010	-0.560	-0.590
2020/01/31 15:15:03.9	64.100	0.030	-0.600	-0.630
2020/01/31 15:15:04.0	64.190	0.060	-0.630	-0.670
2020/01/31 15:15:04.1	64.290	0.080	-0.660	-0.710
2020/01/31 15:15:04.2	64.390	0.100	-0.690	-0.740
2020/01/31 15:15:04.3	64.490	0.120	-0.710	-0.780
2020/01/31 15:15:04.4	64.590	0.150	-0.720	-0.820
2020/01/31 15:15:04.5	64.680	0.170	-0.730	-0.850
2020/01/31 15:15:04.6	64.770	0.190	-0.720	-0.880
2020/01/31 15:15:04.7	64.870	0.200	-0.720	-0.900
2020/01/31 15:15:04.8	64.960	0.220	-0.710	-0.930
2020/01/31 15:15:04.9	65.050	0.230	-0.690	-0.950
2020/01/31 15:15:05.0	65.130	0.250	-0.670	-0.960
2020/01/31 15:15:05.1	65.220	0.260	-0.650	-0.970
2020/01/31 15:15:05.2	65.300	0.260	-0.620	-0.970
2020/01/31 15:15:05.3	65.380	0.270	-0.580	-0.970
2020/01/31 15:15:05.4	65.460	0.270	-0.540	-0.960
2020/01/31 15:15:05.5	65.530	0.270	-0.500	-0.950
2020/01/31 15:15:05.6	65.600	0.270	-0.460	-0.930
2020/01/31 15:15:05.7	65.660	0.270	-0.410	-0.910
2020/01/31 15:15:05.8	65.730	0.260	-0.360	-0.890
2020/01/31 15:15:05.9	65.790	0.250	-0.310	-0.860
2020/01/31 15:15:06.0	65.850	0.250	-0.260	-0.820
2020/01/31 15:15:06.1	65.910	0.230	-0.210	-0.790
2020/01/31 15:15:06.2	65.960	0.220	-0.160	-0.750
2020/01/31 15:15:06.3	66.010	0.210	-0.110	-0.710
2020/01/31 15:15:06.4	66.060	0.200	-0.060	-0.660
2020/01/31 15:15:06.5	66.110	0.180	-0.020	-0.610
2020/01/31 15:15:06.6	66.160	0.170	0.020	-0.560
2020/01/31 15:15:06.7	66.200	0.150	0.060	-0.510
2020/01/31 15:15:06.8	66.240	0.140	0.100	-0.460
2020/01/31 15:15:06.9	66.280	0.120	0.130	-0.410
2020/01/31 15:15:07.0	66.320	0.110	0.150	-0.360
2020/01/31 15:15:07.1	66.360	0.100	0.180	-0.300
2020/01/31 15:15:07.2	66.390	0.080	0.190	-0.250
2020/01/31 15:15:07.3	66.430	0.070	0.200	-0.210
2020/01/31 15:15:07.4	66.470	0.060	0.210	-0.160
2020/01/31 15:15:07.5	66.500	0.050	0.220	-0.110
2020/01/31 15:15:07.6	66.550	0.040	0.220	-0.070
2020/01/31 15:15:07.7	66.580	0.030	0.210	-0.030
2020/01/31 15:15:07.8	66.620	0.030	0.200	0.010
2020/01/31 15:15:07.9	66.650	0.020	0.190	0.040
2020/01/31 15:15:08.0	66.690	0.020	0.170	0.080
2020/01/31 15:15:08.1	66.720	0.010	0.160	0.100
2020/01/31 15:15:08.2	66.760	0.010	0.140	0.130
2020/01/31 15:15:08.3	66.790	0.000	0.120	0.150
2020/01/31 15:15:08.4	66.830	-0.000	0.090	0.170
2020/01/31 15:15:08.5	66.870	-0.010	0.070	0.180
2020/01/31 15:15:08.6	66.910	-0.010	0.040	0.190
2020/01/31 15:15:08.7	66.950	-0.010	0.020	0.200
2020/01/31 15:15:08.8	66.990	-0.020	-0.010	0.200
2020/01/31 15:15:08.9	67.020	-0.020	-0.040	0.200
2020/01/31 15:15:09.0	67.060	-0.030	-0.060	0.200
2020/01/31 15:15:09.1	67.090	-0.030	-0.080	0.200
2020/01/31 15:15:09.2	67.130	-0.040	-0.100	0.190
2020/01/31 15:15:09.3	67.160	-0.040	-0.120	0.180
2020/01/31 15:15:09.4	67.200	-0.050	-0.140	0.160
2020/01/31 15:15:09.5	67.230	-0.060	-0.160	0.150
2020/01/31 15:15:09.6	67.280	-0.070	-0.170	0.140
2020/01/31 15:15:09.7	67.310	-0.080	-0.180	0.120
2020/01/31 15:15:09.8	67.350	-0.090	-0.190	0.100
2020/01/31 15:15:09.9	67.390	-0.100	-0.200	0.080
2020/01/31 15:15:10.0	67.420	-0.110	-0.210	0.050
2020/01/31 15:15:10.1	67.460	-0.130	-0.220	0.030
2020/01/31 15:15:10.2	67.500	-0.140	-0.220	0.000
2020/01/31 15:15:10.3	67.540	-0.150	-0.220	-0.020
2020/01/31 15:15:10.4	67.590	-0.170	-0.220	-0.050
2020/01/31 15:15:10.5	67.630	-0.180	-0.220	-0.080
2020/01/31 15:15:10.6	67.680	-0.190	-0.220	-0.110
2020/01/31 15:15:10.7	67.730	-0.210	-0.220	-0.130
2020/01/31 15:15:10.8	67.780	-0.220	-0.220	-0.160
2020/01/31 15:15:10.9	67.830	-0.230	-0.210	-0.190
2020/01/31 15:15:11.0	67.880	-0.240	-0.210	-0.220
2020/01/31 15:15:11.1	67.940	-0.250	-0.210	-0.250
2020/01/31 15:15:11.2	68.000	-0.260	-0.210	-0.280
2020/01/31 15:15:11.3	68.060	-0.270	-0.200	-0.310
2020/01/31 15:15:11.4	68.120	-0.270	-0.200	-0.340
2020/01/31 15:15:11.5	68.180	-0.280	-0.210	-0.370
2020/01/31 15:15:11.6	68.250	-0.280	-0.200	-0.390
2020/01/31 15:15:11.7	68.310	-0.280	-0.210	-0.420
2020/01/31 15:15:11.8	68.370	-0.280	-0.210	-0.450
2020/01/31 15:15:11.9	68.440	-0.270	-0.220	-0.470
2020/01/31 15:15:12.0	68.500	-0.270	-0.230	-0.500
2020/01/31 15:15:12.1	68.570	-0.260	-0.240	-0.530
2020/01/31 15:15:12.2	68.630	-0.250	-0.250	-0.550
2020/01/31 15:15:12.3	68.700	-0.230	-0.260	-0.580
2020/01/31 15:15:12.4	68.770	-0.220	-0.270	-0.600
2020/01/31 15:15:12.5	68.830	-0.200	-0.290	-0.630
2020/01/31 15:15:12.6	68.910	-0.180	-0.300	-0.660
2020/01/31 15:15:12.7	68.980	-0.160	-0.310	-0.680
2020/01/31 15:15:12.8	69.040	-0.140	-0.330	-0.710
2020/01/31 15:15:12.9	69.110	-0.120	-0.340	-0.730
2020/01/31 15:15:13.0	69.180	-0.100	-0.350	-0.760
2020/01/31 15:15:13.1	69.250	-0.070	-0.360	-0.780
2020/01/31 15:15:13.2	69.310	-0.050	-0.370	-0.810
2020/01/31 15:15:13.3	69.380	-0.020	-0.380	-0.830
2020/01/31 15:15:13.4	69.450	0.000	-0.380	-0.850
2020/01/31 15:15:13.5	69.510	0.030	-0.390	-0.870
2020/01/31 15:15:13.6	69.580	0.050	-0.390	-0.890
2020/01/31 15:15:13.7	69.650	0.080	-0.380	-0.910
2020/01/31 15:15:13.8	69.710	0.100	-0.380	-0.930
2020/01/31 15:15:13.9	69.770	0.120	-0.370	-0.950
2020/01/31 15:15:14.0	69.830	0.140	-0.360	-0.960
2020/01/31 15:15:14.1	69.890	0.160	-0.350	-0.970
2020/01/31 15:15:14.2	69.950	0.180	-0.330	-0.980
2020/01/31 15:15:14.3	70.000	0.200	-0.320	-0.990
2020/01/31 15:15:14.4	70.050	0.220	-0.300	-1.000
2020/01/31 15:15:14.5	70.100	0.230	-0.280	-1.000
2020/01/31 15:15:14.6	70.140	0.250	-0.260	-0.990
2020/01/31 15:15:14.7	70.190	0.260	-0.240	-0.990
2020/01/31 15:15:14.8	70.230	0.270	-0.210	-0.980
2020/01/31 15:15:14.9	70.270	0.270	-0.190	-0.960
2020/01/31 15:15:15.0	70.310	0.280	-0.170	-0.950
2020/01/31 15:15:15.1	70.350	0.280	-0.140	-0.920
2020/01/31 15:15:15.2	70.380	0.290	-0.120	-0.900
2020/01/31 15:15:15.3	70.420	0.280	-0.090	-0.870
2020/01/31 15:15:15.4	70.440	0.280	-0.070	-0.830
2020/01/31 15:15:15.5	70.470	0.280	-0.040	-0.800
2020/01/31 15:15:15.6	70.490	0.270	-0.010	-0.750
2020/01/31 15:15:15.7	70.510	0.260	0.010	-0.710
2020/01/31 15:15:15.8	70.530	0.250	0.040	-0.660
2020/01/31 15:15:15.9	70.550	0.240	0.060	-0.610
2020/01/31 15:15:16.0	70.560	0.220	0.090	-0.560
2020/01/31 15:15:16.1	70.580	0.200	0.110	-0.510
2020/01/31 15:15:16.2	70.590	0.180	0.140	-0.460
2020/01/31 15:15:16.3	70.600	0.160	0.160	-0.400
2020/01/31 15:15:16.4	70.610	0.140	0.180	-0.350
2020/01/31 15:15:16.5	70.620	0.120	0.200	-0.300
2020/01/31 15:15:16.6	70.630	0.090	0.210	-0.250
2020/01/31 15:15:16.7	70.640	0.070	0.230	-0.200
2020/01/31 15:15:16.8	70.650	0.040	0.240	-0.150
2020/01/31 15:15:16.9	70.670	0.020	0.260	-0.110
2020/01/31 15:15:17.0	70.680	-0.010	0.260	-0.060
2020/01/31 15:15:17.1	70.700	-0.030	0.270	-0.030
2020/01/31 15:15:17.2	70.720	-0.060	0.270	0.000
2020/01/31 15:15:17.3	70.730	-0.080	0.270	0.030
2020/01/31 15:15:17.4	70.760	-0.100	0.260	0.060
2020/01/31 15:15:17.5	70.780	-0.120	0.250	0.080
2020/01/31 15:15:17.6	70.790	-0.140	0.230	0.090
2020/01/31 15:15:17.7	70.820	-0.150	0.210	0.100
2020/01/31 15:15:17.8	70.850	-0.170	0.180	0.110
2020/01/31 15:15:17.9	70.880	-0.180	0.150	0.110
2020/01/31 15:15:18.0	70.920	-0.190	0.120	0.110
2020/01/31 15:15:18.1	70.960	-0.190	0.070	0.110
2020/01/31 15:15:18.2	71.000	-0.200	0.030	0.100
2020/01/31 15:15:18.3	71.040	-0.190	-0.020	0.090
2020/01/31 15:15:18.4	71.080	-0.190	-0.080	0.080
2020/01/31 15:15:18.5	71.130	-0.180	-0.140	0.060
2020/01/31 15:15:18.6	71.170	-0.170	-0.200	0.050
2020/01/31 15:15:18.7	71.220	-0.160	-0.270	0.020
2020/01/31 15:15:18.8	71.280	-0.150	-0.330	-0.000
2020/01/31 15:15:18.9	71.340	-0.130	-0.400	-0.030
2020/01/31 15:15:19.0	71.400	-0.110	-0.470	-0.060
2020/01/31 15:15:19.1	71.460	-0.080	-0.550	-0.090
2020/01/31 15:15:19.2	71.520	-0.060	-0.620	-0.120
2020/01/31 15:15:19.3	71.590	-0.030	-0.680	-0.160
2020/01/31 15:15:19.4	71.650	-0.010	-0.750	-0.190
2020/01/31 15:15:19.5	71.720	0.020	-0.810	-0.230
2020/01/31 15:15:19.6	71.780	0.050	-0.870	-0.270
2020/01/31 15:15:19.7	71.850	0.070	-0.930	-0.300
2020/01/31 15:15:19.8	71.920	0.100	-0.970	-0.340
2020/01/31 15:15:19.9	71.990	0.130	-1.020	-0.370
2020/01/31 15:15:20.0	72.060	0.150	-1.050	-0.410
2020/01/31 15:15:20.1	72.130	0.180	-1.080	-0.440
2020/01/31 15:15:20.2	72.190	0.200	-1.100	-0.470
2020/01/31 15:15:20.3	72.260	0.220	-1.110	-0.490
2020/01/31 15:15:20.4	72.330	0.240	-1.110	-0.510
2020/01/31 15:15:20.5	72.390	0.250	-1.100	-0.530
2020/01/31 15:15:20.6	72.440	0.270	-1.080	-0.540
2020/01/31 15:15:20.7	72.500	0.280	-1.060	-0.550
2020/01/31 15:15:20.8	72.560	0.290	-1.020	-0.550
2020/01/31 15:15:20.9	72.610	0.290	-0.980	-0.550
2020/01/31 15:15:21.0	72.660	0.300	-0.920	-0.540
2020/01/31 15:15:21.1	72.710	0.300	-0.860	-0.530
2020/01/31 15:15:21.2	72.760	0.290	-0.790	-0.510
2020/01/31 15:15:21.3	72.800	0.290	-0.710	-0.480
2020/01/31 15:15:21.4	72.840	0.280	-0.630	-0.460
2020/01/31 15:15:21.5	72.870	0.270	-0.550	-0.420
2020/01/31 15:15:21.6	72.890	0.250	-0.450	-0.380
2020/01/31 15:15:21.7	72.920	0.240	-0.360	-0.330
2020/01/31 15:15:21.8	72.950	0.220	-0.260	-0.290
2020/01/31 15:15:21.9	72.980	0.200	-0.160	-0.240
2020/01/31 15:15:22.0	73.000	0.180	-0.060	-0.190
2020/01/31 15:15:22.1	73.020	0.160	0.030	-0.140
2020/01/31 15:15:22.2	73.040	0.130	0.130	-0.080
2020/01/31 15:15:22.3	73.060	0.110	0.220	-0.030
2020/01/31 15:15:22.4	73.080	0.080	0.310	0.030
2020/01/31 15:15:22.5	73.090	0.060	0.390	0.080
2020/01/31 15:15:22.6	73.100	0.030	0.470	0.140
2020/01/31 15:15:22.7	73.110	0.010	0.540	0.190
2020/01/31 15:15:22.8	73.130	-0.020	0.600	0.240
2020/01/31 15:15:22.9	73.140	-0.050	0.660	0.290
2020/01/31 15:15:23.0	73.160	-0.070	0.700	0.330
2020/01/31 15:15:23.1	73.170	-0.090	0.740	0.380
2020/01/31 15:15:23.2	73.190	-0.120	0.770	0.420
2020/01/31 15:15:23.3	73.200	-0.140	0.790	0.450
2020/01/31 15:15:23.4	73.220	-0.150	0.800	0.480
2020/01/31 15:15:23.5	73.240	-0.170	0.800	0.510
2020/01/31 15:15:23.6	73.250	-0.190	0.790	0.530
2020/01/31 15:15:23.7	73.280	-0.200	0.770	0.550
2020/01/31 15:15:23.8	73.300	-0.210	0.740	0.560
2020/01/31 15:15:23.9	73.320	-0.220	0.700	0.560
2020/01/31 15:15:24.0	73.350	-0.230	0.660	0.560
2020/01/31 15:15:24.1	73.380	-0.240	0.610	0.550
2020/01/31 15:15:24.2	73.410	-0.240	0.550	0.540
2020/01/31 15:15:24.3	73.440	-0.240	0.490	0.520
2020/01/31 15:15:24.4	73.480	-0.240	0.420	0.490
2020/01/31 15:15:24.5	73.520	-0.240	0.350	0.460
2020/01/31 15:15:24.6	73.560	-0.240	0.270	0.430
2020/01/31 15:15:24.7	73.600	-0.240	0.200	0.390
2020/01/31 15:15:24.8	73.650	-0.230	0.120	0.350
2020/01/31 15:15:24.9	73.690	-0.230	0.040	0.310
2020/01/31 15:15:25.0	73.740	-0.230	-0.030	0.260
2020/01/31 15:15:25.1	73.780	-0.220	-0.100	0.210
2020/01/31 15:15:25.2	73.830	-0.210	-0.180	0.160
2020/01/31 15:15:25.3	73.880	-0.210	-0.240	0.110
2020/01/31 15:15:25.4	73.930	-0.200	-0.310	0.070
2020/01/31 15:15:25.5	73.980	-0.200	-0.370	0.020
2020/01/31 15:15:25.6	74.010	-0.190	-0.420	-0.030
2020/01/31 15:15:25.7	74.060	-0.190	-0.470	-0.070
2020/01/31 15:15:25.8	74.110	-0.190	-0.510	-0.110
2020/01/31 15:15:25.9	74.160	-0.190	-0.540	-0.150
2020/01/31 15:15:26.0	74.210	-0.180	-0.570	-0.190
2020/01/31 15:15:26.1	74.260	-0.180	-0.590	-0.220
2020/01/31 15:15:26.2	74.300	-0.180	-0.600	-0.250
2020/01/31 15:15:26.3	74.350	-0.190	-0.610	-0.270
2020/01/31 15:15:26.4	74.390	-0.190	-0.610	-0.290
2020/01/31 15:15:26.5	74.440	-0.200	-0.600	-0.310
2020/01/31 15:15:26.6	74.490	-0.200	-0.590	-0.320
2020/01/31 15:15:26.7	74.530	-0.210	-0.570	-0.330
2020/01/31 15:15:26.8	74.570	-0.220	-0.540	-0.340
2020/01/31 15:15:26.9	74.600	-0.230	-0.510	-0.350
2020/01/31 15:15:27.0	74.640	-0.240	-0.480	-0.360
2020/01/31 15:15:27.1	74.680	-0.250	-0.440	-0.360
2020/01/31 15:15:27.2	74.710	-0.260	-0.410	-0.360
2020/01/31 15:15:27.3	74.740	-0.270	-0.360	-0.370
2020/01/31 15:15:27.4	74.770	-0.280	-0.320	-0.370
2020/01/31 15:15:27.5	74.800	-0.290	-0.280	-0.370
2020/01/31 15:15:27.6	74.830	-0.300	-0.230	-0.370
2020/01/31 15:15:27.7	74.860	-0.310	-0.190	-0.380
2020/01/31 15:15:27.8	74.880	-0.320	-0.150	-0.380
2020/01/31 15:15:27.9	74.910	-0.320	-0.120	-0.390
2020/01/31 15:15:28.0	74.940	-0.330	-0.080	-0.400
2020/01/31 15:15:28.1	74.970	-0.330	-0.050	-0.410
2020/01/31 15:15:28.2	75.000	-0.330	-0.030	-0.420
2020/01/31 15:15:28.3	75.030	-0.330	-0.000	-0.430
2020/01/31 15:15:28.4	75.060	-0.320	0.010	-0.450
2020/01/31 15:15:28.5	75.090	-0.310	0.030	-0.460
2020/01/31 15:15:28.6	75.130	-0.300	0.030	-0.480
2020/01/31 15:15:28.7	75.160	-0.290	0.030	-0.500
2020/01/31 15:15:28.8	75.200	-0.270	0.030	-0.520
2020/01/31 15:15:28.9	75.230	-0.240	0.020	-0.540
2020/01/31 15:15:29.0	75.270	-0.220	0.010	-0.560
2020/01/31 15:15:29.1	75.310	-0.190	-0.010	-0.570
2020/01/31 15:15:29.2	75.350	-0.160	-0.040	-0.590
2020/01/31 15:15:29.3	75.390	-0.120	-0.070	-0.610
2020/01/31 15:15:29.4	75.430	-0.080	-0.100	-0.620
2020/01/31 15:15:29.5	75.480	-0.040	-0.140	-0.640
2020/01/31 15:15:29.6	75.530	0.000	-0.180	-0.640
2020/01/31 15:15:29.7	75.570	0.050	-0.230	-0.650
2020/01/31 15:15:29.8	75.620	0.090	-0.270	-0.660
2020/01/31 15:15:29.9	75.670	0.140	-0.320	-0.670
2020/01/31 15:15:30.0	75.720	0.190	-0.370	-0.670
2020/01/31 15:15:30.1	75.760	0.240	-0.420	-0.670
2020/01/31 15:15:30.2	75.810	0.290	-0.470	-0.670
2020/01/31 15:15:30.3	75.860	0.340	-0.520	-0.670
2020/01/31 15:15:30.4	75.910	0.380	-0.570	-0.660
2020/01/31 15:15:30.5	75.960	0.430	-0.620	-0.650
2020/01/31 15:15:30.6	76.010	0.470	-0.660	-0.640
2020/01/31 15:15:30.7	76.060	0.520	-0.700	-0.630
2020/01/31 15:15:30.8	76.110	0.560	-0.740	-0.620
2020/01/31 15:15:30.9	76.160	0.590	-0.770	-0.610
2020/01/31 15:15:31.0	76.210	0.620	-0.800	-0.590
2020/01/31 15:15:31.1	76.260	0.650	-0.830	-0.580
2020/01/31 15:15:31.2	76.310	0.680	-0.850	-0.560
2020/01/31 15:15:31.3	76.360	0.700	-0.860	-0.550
2020/01/31 15:15:31.4	76.400	0.710	-0.870	-0.530
2020/01/31 15:15:31.5	76.450	0.720	-0.870	-0.510
2020/01/31 15:15:31.6	76.500	0.730	-0.860	-0.490
2020/01/31 15:15:31.7	76.540	0.730	-0.850	-0.480
2020/01/31 15:15:31.8	76.580	0.720	-0.830	-0.460
2020/01/31 15:15:31.9	76.620	0.710	-0.800	-0.440
2020/01/31 15:15:32.0	76.660	0.700	-0.770	-0.430
2020/01/31 15:15:32.1	76.700	0.680	-0.730	-0.410
2020/01/31 15:15:32.2	76.730	0.650	-0.680	-0.390
2020/01/31 15:15:32.3	76.760	0.620	-0.630	-0.370
2020/01/31 15:15:32.4	76.790	0.580	-0.580	-0.360
2020/01/31 15:15:32.5	76.820	0.540	-0.510	-0.340
2020/01/31 15:15:32.6	76.860	0.500	-0.450	-0.320
2020/01/31 15:15:32.7	76.880	0.450	-0.380	-0.310
2020/01/31 15:15:32.8	76.900	0.400	-0.300	-0.290
2020/01/31 15:15:32.9	76.920	0.340	-0.220	-0.270
2020/01/31 15:15:33.0	76.930	0.280	-0.140	-0.250
2020/01/31 15:15:33.1	76.950	0.220	-0.060	-0.230
2020/01/31 15:15:33.2	76.960	0.160	0.030	-0.210
2020/01/31 15:15:33.3	76.970	0.100	0.120	-0.190
2020/01/31 15:15:33.4	76.970	0.030	0.200	-0.170
2020/01/31 15:15:33.5	76.980	-0.030	0.290	-0.150
2020/01/31 15:15:33.6	76.990	-0.090	0.380	-0.130
2020/01/31 15:15:33.7	76.990	-0.160	0.460	-0.110
2020/01/31 15:15:33.8	76.990	-0.220	0.540	-0.090
2020/01/31 15:15:33.9	76.990	-0.280	0.620	-0.060
2020/01/31 15:15:34.0	76.990	-0.340	0.690	-0.040
2020/01/31 15:15:34.1	76.980	-0.400	0.760	-0.020
2020/01/31 15:15:34.2	76.980	-0.450	0.820	0.000
2020/01/31 15:15:34.3	76.980	-0.500	0.880	0.030
2020/01/31 15:15:34.4	76.970	-0.550	0.930	0.050
2020/01/31 15:15:34.5	76.970	-0.590	0.970	0.070
2020/01/31 15:15:34.6	76.960	-0.630	1.000	0.090
2020/01/31 15:15:34.7	76.960	-0.670	1.030	0.110
2020/01/31 15:15:34.8	76.960	-0.690	1.040	0.120
2020/01/31 15:15:34.9	76.960	-0.720	1.040	0.140
2020/01/31 15:15:35.0	76.960	-0.740	1.040	0.150
2020/01/31 15:15:35.1	76.960	-0.750	1.020	0.160
2020/01/31 15:15:35.2	76.970	-0.760	0.990	0.160
2020/01/31 15:15:35.3	76.970	-0.760	0.950	0.170
2020/01/31 15:15:35.4	76.990	-0.760	0.890	0.170
2020/01/31 15:15:35.5	77.000	-0.750	0.830	0.170
2020/01/31 15:15:35.6	77.030	-0.740	0.750	0.170
2020/01/31 15:15:35.7	77.050	-0.720	0.670	0.160
2020/01/31 15:15:35.8	77.070	-0.690	0.570	0.150
2020/01/31 15:15:35.9	77.100	-0.660	0.470	0.140
2020/01/31 15:15:36.0	77.130	-0.620	0.360	0.120
2020/01/31 15:15:36.1	77.160	-0.580	0.230	0.110
2020/01/31 15:15:36.2	77.200	-0.540	0.110	0.080
2020/01/31 15:15:36.3	77.250	-0.490	-0.030	0.060
2020/01/31 15:15:36.4	77.290	-0.430	-0.170	0.030
2020/01/31 15:15:36.5	77.340	-0.370	-0.310	0.000
2020/01/31 15:15:36.6	77.400	-0.310	-0.450	-0.030
2020/01/31 15:15:36.7	77.460	-0.250	-0.600	-0.060
2020/01/31 15:15:36.8	77.520	-0.190	-0.740	-0.100
2020/01/31 15:15:36.9	77.580	-0.120	-0.880	-0.140
2020/01/31 15:15:37.0	77.650	-0.050	-1.020	-0.180
2020/01/31 15:15:37.1	77.720	0.010	-1.150	-0.220
2020/01/31 15:15:37.2	77.780	0.080	-1.280	-0.260
2020/01/31 15:15:37.3	77.850	0.150	-1.400	-0.290
2020/01/31 15:15:37.4	77.920	0.210	-1.500	-0.330
2020/01/31 15:15:37.5	78.000	0.270	-1.600	-0.370
2020/01/31 15:15:37.6	78.080	0.330	-1.680	-0.400
2020/01/31 15:15:37.7	78.150	0.390	-1.750	-0.440
2020/01/31 15:15:37.8	78.220	0.440	-1.800	-0.470
2020/01/31 15:15:37.9	78.290	0.490	-1.840	-0.510
2020/01/31 15:15:38.0	78.360	0.530	-1.870	-0.540
2020/01/31 15:15:38.1	78.430	0.570	-1.870	-0.570
2020/01/31 15:15:38.2	78.500	0.600	-1.870	-0.600
2020/01/31 15:15:38.3	78.560	0.620	-1.840	-0.630
2020/01/31 15:15:38.4	78.630	0.640	-1.800	-0.650
2020/01/31 15:15:38.5	78.690	0.660	-1.740	-0.680
2020/01/31 15:15:38.6	78.760	0.670	-1.670	-0.700
2020/01/31 15:15:38.7	78.810	0.670	-1.580	-0.710
2020/01/31 15:15:38.8	78.870	0.670	-1.480	-0.720
2020/01/31 15:15:38.9	78.920	0.660	-1.370	-0.730
2020/01/31 15:15:39.0	78.960	0.640	-1.240	-0.730
2020/01/31 15:15:39.1	79.010	0.620	-1.110	-0.730
2020/01/31 15:15:39.2	79.050	0.600	-0.960	-0.720
2020/01/31 15:15:39.3	79.090	0.570	-0.810	-0.710
2020/01/31 15:15:39.4	79.120	0.530	-0.650	-0.700
2020/01/31 15:15:39.5	79.150	0.490	-0.490	-0.680
2020/01/31 15:15:39.6	79.190	0.440	-0.320	-0.650
2020/01/31 15:15:39.7	79.210	0.400	-0.150	-0.620
2020/01/31 15:15:39.8	79.230	0.340	0.020	-0.590
2020/01/31 15:15:39.9	79.250	0.290	0.190	-0.550
2020/01/31 15:15:40.0	79.270	0.230	0.350	-0.520
2020/01/31 15:15:40.1	79.280	0.170	0.510	-0.470
2020/01/31 15:15:40.2	79.290	0.110	0.660	-0.430
2020/01/31 15:15:40.3	79.300	0.050	0.800	-0.380
2020/01/31 15:15:40.4	79.300	-0.010	0.940	-0.340
2020/01/31 15:15:40.5	79.300	-0.080	1.070	-0.290
2020/01/31 15:15:40.6	79.320	-0.140	1.180	-0.240
2020/01/31 15:15:40.7	79.320	-0.200	1.290	-0.190
2020/01/31 15:15:40.8	79.320	-0.260	1.380	-0.140
2020/01/31 15:15:40.9	79.320	-0.320	1.450	-0.090
2020/01/31 15:15:41.0	79.310	-0.370	1.520	-0.040
2020/01/31 15:15:41.1	79.310	-0.430	1.570	0.000
2020/01/31 15:15:41.2	79.310	-0.480	1.600	0.050
2020/01/31 15:15:41.3	79.300	-0.520	1.620	0.090
2020/01/31 15:15:41.4	79.300	-0.570	1.630	0.120
2020/01/31 15:15:41.5	79.300	-0.610	1.620	0.160
2020/01/31 15:15:41.6	79.300	-0.640	1.600	0.190
2020/01/31 15:15:41.7	79.310	-0.670	1.570	0.210
2020/01/31 15:15:41.8	79.310	-0.700	1.520	0.230
2020/01/31 15:15:41.9	79.320	-0.720	1.460	0.250
2020/01/31 15:15:42.0	79.330	-0.730	1.390	0.260
2020/01/31 15:15:42.1	79.340	-0.740	1.310	0.270
2020/01/31 15:15:42.2	79.360	-0.750	1.210	0.280
2020/01/31 15:15:42.3	79.370	-0.750	1.110	0.280
2020/01/31 15:15:42.4	79.390	-0.740	1.000	0.280
2020/01/31 15:15:42.5	79.410	-0.730	0.890	0.270
2020/01/31 15:15:42.6	79.450	-0.720	0.770	0.260
2020/01/31 15:15:42.7	79.470	-0.700	0.640	0.250
2020/01/31 15:15:42.8	79.490	-0.670	0.510	0.240
2020/01/31 15:15:42.9	79.520	-0.650	0.370	0.230
2020/01/31 15:15:43.0	79.550	-0.610	0.230	0.210
2020/01/31 15:15:43.1	79.580	-0.580	0.100	0.190
2020/01/31 15:15:43.2	79.610	-0.540	-0.040	0.170
2020/01/31 15:15:43.3	79.640	-0.490	-0.180	0.150
2020/01/31 15:15:43.4	79.670	-0.450	-0.310	0.130
2020/01/31 15:15:43.5	79.700	-0.400	-0.450	0.110
2020/01/31 15:15:43.6	79.750	-0.350	-0.580	0.090
2020/01/31 15:15:43.7	79.780	-0.300	-0.700	0.070
2020/01/31 15:15:43.8	79.810	-0.250	-0.820	0.050
2020/01/31 15:15:43.9	79.850	-0.200	-0.930	0.030
2020/01/31 15:15:44.0	79.880	-0.140	-1.030	0.010
2020/01/31 15:15:44.1	79.920	-0.090	-1.130	-0.010
2020/01/31 15:15:44.2	79.960	-0.040	-1.220	-0.020
2020/01/31 15:15:44.3	79.990	0.010	-1.300	-0.040
2020/01/31 15:15:44.4	80.030	0.060	-1.370	-0.050
2020/01/31 15:15:44.5	80.070	0.110	-1.430	-0.060
2020/01/31 15:15:44.6	80.100	0.160	-1.490	-0.070
2020/01/31 15:15:44.7	80.140	0.200	-1.530	-0.080
2020/01/31 15:15:44.8	80.170	0.240	-1.560	-0.080
2020/01/31 15:15:44.9	80.210	0.280	-1.590	-0.080
2020/01/31 15:15:45.0	80.240	0.320	-1.600	-0.090
2020/01/31 15:15:45.1	80.280	0.350	-1.610	-0.080
2020/01/31 15:15:45.2	80.310	0.380	-1.610	-0.080
2020/01/31 15:15:45.3	80.350	0.410	-1.600	-0.080
2020/01/31 15:15:45.4	80.380	0.440	-1.580	-0.070
2020/01/31 15:15:45.5	80.420	0.460	-1.550	-0.070
2020/01/31 15:15:45.6	80.460	0.480	-1.510	-0.060
2020/01/31 15:15:45.7	80.490	0.490	-1.470	-0.060
2020/01/31 15:15:45.8	80.530	0.500	-1.430	-0.050
2020/01/31 15:15:45.9	80.560	0.510	-1.370	-0.040
2020/01/31 15:15:46.0	80.600	0.520	-1.320	-0.030
2020/01/31 15:15:46.1	80.630	0.520	-1.260	-0.020
2020/01/31 15:15:46.2	80.670	0.520	-1.190	-0.010
2020/01/31 15:15:46.3	80.700	0.520	-1.130	-0.000
2020/01/31 15:15:46.4	80.740	0.520	-1.060	0.000
2020/01/31 15:15:46.5	80.770	0.510	-0.980	0.010
2020/01/31 15:15:46.6	80.830	0.500	-0.910	0.020
2020/01/31 15:15:46.7	80.860	0.490	-0.830	0.030
2020/01/31 15:15:46.8	80.900	0.470	-0.750	0.030
2020/01/31 15:15:46.9	80.930	0.460	-0.670	0.040
2020/01/31 15:15:47.0	80.970	0.440	-0.590	0.040
2020/01/31 15:15:47.1	81.000	0.420	-0.510	0.050
2020/01/31 15:15:47.2	81.040	0.400	-0.430	0.050
2020/01/31 15:15:47.3	81.070	0.380	-0.350	0.050
2020/01/31 15:15:47.4	81.110	0.360	-0.280	0.060
2020/01/31 15:15:47.5	81.140	0.330	-0.200	0.060
2020/01/31 15:15:47.6	81.160	0.310	-0.120	0.070
2020/01/31 15:15:47.7	81.190	0.280	-0.040	0.070
2020/01/31 15:15:47.8	81.220	0.250	0.030	0.070
2020/01/31 15:15:47.9	81.250	0.230	0.110	0.080
2020/01/31 15:15:48.0	81.270	0.200	0.180	0.080
2020/01/31 15:15:48.1	81.300	0.170	0.250	0.090
2020/01/31 15:15:48.2	81.320	0.140	0.320	0.100
2020/01/31 15:15:48.3	81.340	0.110	0.380	0.110
2020/01/31 15:15:48.4	81.360	0.080	0.450	0.120
2020/01/31 15:15:48.5	81.380	0.050	0.510	0.130
2020/01/31 15:15:48.6	81.390	0.020	0.570	0.140
2020/01/31 15:15:48.7	81.400	-0.010	0.620	0.150
2020/01/31 15:15:48.8	81.410	-0.040	0.680	0.160
2020/01/31 15:15:48.9	81.420	-0.070	0.720	0.170
2020/01/31 15:15:49.0	81.430	-0.100	0.770	0.190
2020/01/31 15:15:49.1	81.440	-0.130	0.810	0.200
2020/01/31 15:15:49.2	81.450	-0.160	0.840	0.210
2020/01/31 15:15:49.3	81.450	-0.190	0.870	0.220
2020/01/31 15:15:49.4	81.460	-0.210	0.900	0.230
2020/01/31 15:15:49.5	81.470	-0.240	0.920	0.250
2020/01/31 15:15:49.6	81.490	-0.260	0.930	0.250
2020/01/31 15:15:49.7	81.500	-0.290	0.940	0.260
2020/01/31 15:15:49.8	81.500	-0.310	0.940	0.270
2020/01/31 15:15:49.9	81.510	-0.330	0.940	0.270
2020/01/31 15:15:50.0	81.520	-0.340	0.930	0.280
2020/01/31 15:15:50.1	81.530	-0.360	0.910	0.280
2020/01/31 15:15:50.2	81.550	-0.370	0.890	0.280
2020/01/31 15:15:50.3	81.560	-0.380	0.860	0.270
2020/01/31 15:15:50.4	81.580	-0.390	0.830	0.260
2020/01/31 15:15:50.5	81.600	-0.400	0.780	0.260
2020/01/31 15:15:50.6	81.630	-0.400	0.740	0.250
2020/01/31 15:15:50.7	81.660	-0.410	0.690	0.240
2020/01/31 15:15:50.8	81.680	-0.400	0.630	0.220
2020/01/31 15:15:50.9	81.710	-0.400	0.560	0.200
2020/01/31 15:15:51.0	81.740	-0.390	0.490	0.180
2020/01/31 15:15:51.1	81.770	-0.380	0.410	0.150
2020/01/31 15:15:51.2	81.810	-0.370	0.330	0.130
2020/01/31 15:15:51.3	81.840	-0.350	0.250	0.100
2020/01/31 15:15:51.4	81.880	-0.340	0.160	0.070
2020/01/31 15:15:51.5	81.920	-0.310	0.060	0.040
2020/01/31 15:15:51.6	81.950	-0.290	-0.030	0.000
2020/01/31 15:15:51.7	82.000	-0.260	-0.130	-0.030
2020/01/31 15:15:51.8	82.040	-0.230	-0.230	-0.070
2020/01/31 15:15:51.9	82.080	-0.200	-0.320	-0.110
2020/01/31 15:15:52.0	82.130	-0.170	-0.420	-0.140
2020/01/31 15:15:52.1	82.170	-0.140	-0.520	-0.180
2020/01/31 15:15:52.2	82.220	-0.100	-0.610	-0.220
2020/01/31 15:15:52.3	82.260	-0.060	-0.710	-0.260
2020/01/31 15:15:52.4	82.310	-0.020	-0.800	-0.290
2020/01/31 15:15:52.5	82.350	0.020	-0.880	-0.330
2020/01/31 15:15:52.6	82.410	0.060	-0.970	-0.360
2020/01/31 15:15:52.7	82.450	0.100	-1.040	-0.390
2020/01/31 15:15:52.8	82.500	0.140	-1.110	-0.430
2020/01/31 15:15:52.9	82.550	0.180	-1.180	-0.460
2020/01/31 15:15:53.0	82.600	0.220	-1.230	-0.490
2020/01/31 15:15:53.1	82.640	0.260	-1.290	-0.520
2020/01/31 15:15:53.2	82.690	0.300	-1.330	-0.540
2020/01/31 15:15:53.3	82.740	0.330	-1.360	-0.560
2020/01/31 15:15:53.4	82.790	0.370	-1.390	-0.580
2020/01/31 15:15:53.5	82.840	0.400	-1.410	-0.600
2020/01/31 15:15:53.6	82.890	0.430	-1.420	-0.610
2020/01/31 15:15:53.7	82.940	0.450	-1.420	-0.620
2020/01/31 15:15:53.8	82.990	0.470	-1.410	-0.620
2020/01/31 15:15:53.9	83.040	0.490	-1.390	-0.620
2020/01/31 15:15:54.0	83.090	0.510	-1.360	-0.610
2020/01/31 15:15:54.1	83.130	0.520	-1.330	-0.600
2020/01/31 15:15:54.2	83.180	0.530	-1.280	-0.590
2020/01/31 15:15:54.3	83.220	0.530	-1.230	-0.570
2020/01/31 15:15:54.4	83.270	0.530	-1.170	-0.540
2020/01/31 15:15:54.5	83.310	0.520	-1.100	-0.510
2020/01/31 15:15:54.6	83.370	0.510	-1.020	-0.470
2020/01/31 15:15:54.7	83.400	0.500	-0.940	-0.430
2020/01/31 15:15:54.8	83.440	0.480	-0.850	-0.390
2020/01/31 15:15:54.9	83.470	0.450	-0.750	-0.340
2020/01/31 15:15:55.0	83.500	0.420	-0.650	-0.290
2020/01/31 15:15:55.1	83.520	0.390	-0.550	-0.230
2020/01/31 15:15:55.2	83.550	0.350	-0.440	-0.180
2020/01/31 15:15:55.3	83.570	0.310	-0.330	-0.110
2020/01/31 15:15:55.4	83.590	0.260	-0.210	-0.050
2020/01/31 15:15:55.5	83.600	0.220	-0.100	0.010
2020/01/31 15:15:55.6	83.610	0.170	0.020	0.080
2020/01/31 15:15:55.7	83.620	0.110	0.130	0.150
2020/01/31 15:15:55.8	83.620	0.060	0.240	0.220
2020/01/31 15:15:55.9	83.630	0.000	0.350	0.280
2020/01/31 15:15:56.0	83.630	-0.050	0.450	0.350
2020/01/31 15:15:56.1	83.630	-0.110	0.550	0.410
2020/01/31 15:15:56.2	83.630	-0.170	0.640	0.470
2020/01/31 15:15:56.3	83.630	-0.230	0.730	0.540
2020/01/31 15:15:56.4	83.620	-0.280	0.820	0.590
2020/01/31 15:15:56.5	83.620	-0.340	0.890	0.650
2020/01/31 15:15:56.6	83.620	-0.390	0.960	0.700
2020/01/31 15:15:56.7	83.610	-0.440	1.020	0.750
2020/01/31 15:15:56.8	83.610	-0.490	1.070	0.800
2020/01/31 15:15:56.9	83.600	-0.530	1.110	0.850
2020/01/31 15:15:57.0	83.600	-0.570	1.140	0.890
2020/01/31 15:15:57.1	83.590	-0.600	1.160	0.930
2020/01/31 15:15:57.2	83.590	-0.630	1.170	0.960
2020/01/31 15:15:57.3	83.590	-0.660	1.170	0.990
2020/01/31 15:15:57.4	83.580	-0.680	1.160	1.010
2020/01/31 15:15:57.5	83.580	-0.700	1.140	1.040
2020/01/31 15:15:57.6	83.590	-0.700	1.110	1.060
2020/01/31 15:15:57.7	83.590	-0.710	1.070	1.070
2020/01/31 15:15:57.8	83.600	-0.710	1.020	1.080
2020/01/31 15:15:57.9	83.600	-0.700	0.960	1.080
2020/01/31 15:15:58.0	83.610	-0.680	0.890	1.080
2020/01/31 15:15:58.1	83.620	-0.670	0.810	1.080
2020/01/31 15:15:58.2	83.630	-0.640	0.730	1.080
2020/01/31 15:15:58.3	83.640	-0.610	0.630	1.070
2020/01/31 15:15:58.4	83.650	-0.580	0.540	1.050
2020/01/31 15:15:58.5	83.670	-0.540	0.430	1.040
2020/01/31 15:15:58.6	83.680	-0.500	0.330	1.020
2020/01/31 15:15:58.7	83.700	-0.450	0.210	0.990
2020/01/31 15:15:58.8	83.720	-0.400	0.100	0.970
2020/01/31 15:15:58.9	83.750	-0.350	-0.020	0.930
2020/01/31 15:15:59.0	83.770	-0.300	-0.130	0.900
2020/01/31 15:15:59.1	83.800	-0.240	-0.250	0.860
2020/01/31 15:15:59.2	83.830	-0.190	-0.360	0.810
2020/01/31 15:15:59.3	83.870	-0.130	-0.470	0.770
2020/01/31 15:15:59.4	83.900	-0.070	-0.580	0.720
2020/01/31 15:15:59.5	83.940	-0.020	-0.680	0.660
2020/01/31 15:15:59.6	83.980	0.040	-0.790	0.610
2020/01/31 15:15:59.7	84.030	0.090	-0.880	0.550
2020/01/31 15:15:59.8	84.070	0.150	-0.960	0.490
2020/01/31 15:15:59.9	84.120	0.200	-1.040	0.430
2020/01/31 15:16:00.0	84.170	0.250	-1.120	0.360
2020/01/31 15:16:00.1	84.220	0.290	-1.180	0.300
2020/01/31 15:16:00.2	84.270	0.330	-1.230	0.230
2020/01/31 15:16:00.3	84.320	0.370	-1.280	0.170
2020/01/31 15:16:00.4	84.370	0.410	-1.310	0.100
2020/01/31 15:16:00.5	84.420	0.440	-1.340	0.040
2020/01/31 15:16:00.6	84.470	0.460	-1.360	-0.030
2020/01/31 15:16:00.7	84.520	0.490	-1.360	-0.090
2020/01/31 15:16:00.8	84.570	0.510	-1.360	-0.150
2020/01/31 15:16:00.9	84.630	0.520	-1.350	-0.210
2020/01/31 15:16:01.0	84.680	0.530	-1.330	-0.260
2020/01/31 15:16:01.1	84.720	0.540	-1.310	-0.320
2020/01/31 15:16:01.2	84.770	0.540	-1.270	-0.370
2020/01/31 15:16:01.3	84.820	0.540	-1.230	-0.410
2020/01/31 15:16:01.4	84.860	0.540	-1.180	-0.460
2020/01/31 15:16:01.5	84.910	0.530	-1.130	-0.500
2020/01/31 15:16:01.6	84.950	0.510	-1.060	-0.530
2020/01/31 15:16:01.7	84.990	0.500	-1.000	-0.570
2020/01/31 15:16:01.8	85.030	0.480	-0.930	-0.600
2020/01/31 15:16:01.9	85.070	0.460	-0.860	-0.630
2020/01/31 15:16:02.0	85.110	0.440	-0.780	-0.650
2020/01/31 15:16:02.1	85.140	0.410	-0.700	-0.670
2020/01/31 15:16:02.2	85.170	0.380	-0.630	-0.690
2020/01/31 15:16:02.3	85.200	0.350	-0.550	-0.710
2020/01/31 15:16:02.4	85.230	0.320	-0.470	-0.720
2020/01/31 15:16:02.5	85.260	0.290	-0.390	-0.730
2020/01/31 15:16:02.6	85.290	0.260	-0.300	-0.730
2020/01/31 15:16:02.7	85.310	0.220	-0.220	-0.740
2020/01/31 15:16:02.8	85.330	0.190	-0.150	-0.740
2020/01/31 15:16:02.9	85.360	0.150	-0.070	-0.730
2020/01/31 15:16:03.0	85.380	0.120	0.000	-0.730
2020/01/31 15:16:03.1	85.390	0.080	0.070	-0.720
2020/01/31 15:16:03.2	85.410	0.050	0.130	-0.710
2020/01/31 15:16:03.3	85.430	0.010	0.200	-0.690
2020/01/31 15:16:03.4	85.440	-0.020	0.250	-0.680
2020/01/31 15:16:03.5	85.460	-0.050	0.300	-0.660
2020/01/31 15:16:03.6	85.470	-0.080	0.350	-0.630
2020/01/31 15:16:03.7	85.480	-0.110	0.390	-0.610
2020/01/31 15:16:03.8	85.490	-0.140	0.430	-0.580
2020/01/31 15:16:03.9	85.500	-0.170	0.460	-0.550
2020/01/31 15:16:04.0	85.500	-0.190	0.490	-0.520
2020/01/31 15:16:04.1	85.510	-0.210	0.510	-0.480
2020/01/31 15:16:04.2	85.510	-0.230	0.520	-0.450
2020/01/31 15:16:04.3	85.520	-0.250	0.530	-0.410
2020/01/31 15:16:04.4	85.520	-0.270	0.530	-0.370
2020/01/31 15:16:04.5	85.520	-0.280	0.530	-0.330
2020/01/31 15:16:04.6	85.510	-0.290	0.530	-0.290
2020/01/31 15:16:04.7	85.510	-0.300	0.520	-0.250
2020/01/31 15:16:04.8	85.510	-0.310	0.500	-0.210
2020/01/31 15:16:04.9	85.510	-0.310	0.480	-0.170
2020/01/31 15:16:05.0	85.510	-0.310	0.460	-0.130
2020/01/31 15:16:05.1	85.510	-0.310	0.430	-0.090
2020/01/31 15:16:05.2	85.510	-0.310	0.400	-0.050
2020/01/31 15:16:05.3	85.520	-0.300	0.370	-0.010
2020/01/31 15:16:05.4	85.520	-0.290	0.340	0.030
2020/01/31 15:16:05.5	85.520	-0.280	0.300	0.060
2020/01/31 15:16:05.6	85.530	-0.270	0.260	0.100
2020/01/31 15:16:05.7	85.540	-0.260	0.230	0.130
2020/01/31 15:16:05.8	85.540	-0.250	0.190	0.160
2020/01/31 15:16:05.9	85.560	-0.230	0.150	0.190
2020/01/31 15:16:06.0	85.570	-0.210	0.110	0.220
2020/01/31 15:16:06.1	85.580	-0.200	0.080	0.250
2020/01/31 15:16:06.2	85.600	-0.180	0.040	0.270
2020/01/31 15:16:06.3	85.620	-0.160	0.000	0.290
2020/01/31 15:16:06.4	85.640	-0.150	-0.030	0.310
2020/01/31 15:16:06.5	85.660	-0.130	-0.070	0.330
2020/01/31 15:16:06.6	85.680	-0.110	-0.100	0.360
2020/01/31 15:16:06.7	85.700	-0.090	-0.130	0.370
2020/01/31 15:16:06.8	85.730	-0.080	-0.160	0.390
2020/01/31 15:16:06.9	85.750	-0.060	-0.190	0.410
2020/01/31 15:16:07.0	85.780	-0.050	-0.220	0.420
2020/01/31 15:16:07.1	85.810	-0.030	-0.240	0.440
2020/01/31 15:16:07.2	85.840	-0.020	-0.270	0.460
2020/01/31 15:16:07.3	85.870	-0.000	-0.290	0.470
2020/01/31 15:16:07.4	85.900	0.010	-0.310	0.490
2020/01/31 15:16:07.5	85.930	0.020	-0.330	0.500
2020/01/31 15:16:07.6	85.960	0.030	-0.350	0.520
2020/01/31 15:16:07.7	85.990	0.040	-0.360	0.540
2020/01/31 15:16:07.8	86.020	0.050	-0.380	0.550
2020/01/31 15:16:07.9	86.050	0.060	-0.390	0.570
2020/01/31 15:16:08.0	86.080	0.070	-0.410	0.580
2020/01/31 15:16:08.1	86.110	0.080	-0.420	0.600
2020/01/31 15:16:08.2	86.140	0.090	-0.430	0.610
2020/01/31 15:16:08.3	86.170	0.090	-0.440	0.620
2020/01/31 15:16:08.4	86.200	0.100	-0.450	0.630
2020/01/31 15:16:08.5	86.230	0.100	-0.460	0.640
2020/01/31 15:16:08.6	86.260	0.110	-0.460	0.660
2020/01/31 15:16:08.7	86.290	0.110	-0.470	0.670
2020/01/31 15:16:08.8	86.310	0.120	-0.470	0.670
2020/01/31 15:16:08.9	86.340	0.120	-0.480	0.670
2020/01/31 15:16:09.0	86.370	0.120	-0.480	0.670
2020/01/31 15:16:09.1	86.400	0.130	-0.480	0.670
2020/01/31 15:16:09.2	86.430	0.130	-0.490	0.670
2020/01/31 15:16:09.3	86.450	0.130	-0.490	0.660
2020/01/31 15:16:09.4	86.480	0.130	-0.490	0.660
2020/01/31 15:16:09.5	86.510	0.130	-0.490	0.650
2020/01/31 15:16:09.6	86.530	0.140	-0.480	0.630
2020/01/31 15:16:09.7	86.550	0.140	-0.480	0.620
2020/01/31 15:16:09.8	86.580	0.140	-0.470	0.610
2020/01/31 15:16:09.9	86.600	0.140	-0.470	0.590
2020/01/31 15:16:10.0	86.620	0.150	-0.460	0.570
2020/01/31 15:16:10.1	86.650	0.150	-0.460	0.560
2020/01/31 15:16:10.2	86.670	0.150	-0.450	0.540
2020/01/31 15:16:10.3	86.690	0.150	-0.440	0.520
2020/01/31 15:16:10.4	86.710	0.160	-0.430	0.500
2020/01/31 15:16:10.5	86.730	0.160	-0.420	0.480
2020/01/31 15:16:10.6	86.730	0.160	-0.410	0.460
2020/01/31 15:16:10.7	86.750	0.170	-0.400	0.440
2020/01/31 15:16:10.8	86.770	0.170	-0.380	0.420
2020/01/31 15:16:10.9	86.790	0.170	-0.370	0.400
2020/01/31 15:16:11.0	86.800	0.180	-0.350	0.380
2020/01/31 15:16:11.1	86.820	0.180	-0.340	0.360
2020/01/31 15:16:11.2	86.840	0.180	-0.320	0.350
2020/01/31 15:16:11.3	86.850	0.190	-0.310	0.330
2020/01/31 15:16:11.4	86.870	0.190	-0.290	0.320
2020/01/31 15:16:11.5	86.880	0.190	-0.270	0.300
2020/01/31 15:16:11.6	86.900	0.190	-0.250	0.290
2020/01/31 15:16:11.7	86.920	0.190	-0.230	0.280
2020/01/31 15:16:11.8	86.930	0.190	-0.210	0.270
2020/01/31 15:16:11.9	86.940	0.190	-0.190	0.260
2020/01/31 15:16:12.0	86.960	0.190	-0.170	0.260
2020/01/31 15:16:12.1	86.970	0.180	-0.150	0.250
2020/01/31 15:16:12.2	86.980	0.180	-0.130	0.250
2020/01/31 15:16:12.3	87.000	0.170	-0.110	0.250
2020/01/31 15:16:12.4	87.010	0.170	-0.090	0.250
2020/01/31 15:16:12.5	87.020	0.160	-0.070	0.250
2020/01/31 15:16:12.6	87.040	0.150	-0.050	0.250
2020/01/31 15:16:12.7	87.060	0.130	-0.030	0.250
2020/01/31 15:16:12.8	87.070	0.120	-0.010	0.250
2020/01/31 15:16:12.9	87.080	0.110	0.010	0.250
2020/01/31 15:16:13.0	87.090	0.090	0.030	0.250
2020/01/31 15:16:13.1	87.100	0.070	0.050	0.250
2020/01/31 15:16:13.2	87.110	0.050	0.070	0.250
2020/01/31 15:16:13.3	87.120	0.030	0.080	0.240
2020/01/31 15:16:13.4	87.130	0.010	0.100	0.240
2020/01/31 15:16:13.5	87.140	-0.010	0.110	0.240
2020/01/31 15:16:13.6	87.150	-0.030	0.130	0.230
2020/01/31 15:16:13.7	87.170	-0.050	0.140	0.220
2020/01/31 15:16:13.8	87.180	-0.080	0.150	0.210
2020/01/31 15:16:13.9	87.190	-0.100	0.150	0.210
2020/01/31 15:16:14.0	87.200	-0.120	0.160	0.200
2020/01/31 15:16:14.1	87.220	-0.150	0.160	0.190
2020/01/31 15:16:14.2	87.230	-0.170	0.160	0.180
2020/01/31 15:16:14.3	87.250	-0.190	0.160	0.170
2020/01/31 15:16:14.4	87.260	-0.210	0.160	0.160
2020/01/31 15:16:14.5	87.280	-0.230	0.150	0.150
2020/01/31 15:16:14.6	87.290	-0.250	0.140	0.140
2020/01/31 15:16:14.7	87.310	-0.260	0.130	0.130
2020/01/31 15:16:14.8	87.320	-0.280	0.110	0.120
2020/01/31 15:16:14.9	87.340	-0.290	0.100	0.110
2020/01/31 15:16:15.0	87.360	-0.300	0.080	0.100
2020/01/31 15:16:15.1	87.380	-0.310	0.060	0.100
2020/01/31 15:16:15.2	87.400	-0.320	0.040	0.090
2020/01/31 15:16:15.3	87.420	-0.330	0.020	0.090
2020/01/31 15:16:15.4	87.430	-0.330	0.000	0.080
2020/01/31 15:16:15.5	87.450	-0.330	-0.020	0.080
2020/01/31 15:16:15.6	87.470	-0.330	-0.030	0.080
2020/01/31 15:16:15.7	87.490	-0.330	-0.050	0.080
2020/01/31 15:16:15.8	87.510	-0.330	-0.070	0.080
2020/01/31 15:16:15.9	87.530	-0.320	-0.090	0.070
2020/01/31 15:16:16.0	87.550	-0.320	-0.110	0.070
2020/01/31 15:16:16.1	87.580	-0.310	-0.130	0.070
2020/01/31 15:16:16.2	87.600	-0.300	-0.140	0.070
2020/01/31 15:16:16.3	87.630	-0.290	-0.160	0.070
2020/01/31 15:16:16.4	87.650	-0.280	-0.170	0.070
2020/01/31 15:16:16.5	87.680	-0.260	-0.180	0.070
2020/01/31 15:16:16.6	87.710	-0.250	-0.200	0.070
2020/01/31 15:16:16.7	87.740	-0.230	-0.210	0.070
2020/01/31 15:16:16.8	87.760	-0.210	-0.220	0.060
2020/01/31 15:16:16.9	87.790	-0.200	-0.220	0.060
2020/01/31 15:16:17.0	87.810	-0.180	-0.230	0.060
2020/01/31 15:16:17.1	87.840	-0.160	-0.240	0.050
2020/01/31 15:16:17.2	87.870	-0.140	-0.250	0.050
2020/01/31 15:16:17.3	87.890	-0.120	-0.250	0.050
2020/01/31 15:16:17.4	87.920	-0.100	-0.260	0.040
2020/01/31 15:16:17.5	87.940	-0.080	-0.270	0.040
2020/01/31 15:16:17.6	87.950	-0.060	-0.280	0.040
2020/01/31 15:16:17.7	87.970	-0.030	-0.290	0.040
2020/01/31 15:16:17.8	88.000	-0.010	-0.300	0.030
2020/01/31 15:16:17.9	88.020	0.010	-0.310	0.030
2020/01/31 15:16:18.0	88.050	0.030	-0.320	0.020
2020/01/31 15:16:18.1	88.070	0.050	-0.330	0.020
2020/01/31 15:16:18.2	88.090	0.070	-0.350	0.020
2020/01/31 15:16:18.3	88.120	0.090	-0.370	0.020
2020/01/31 15:16:18.4	88.140	0.110	-0.380	0.010
2020/01/31 15:16:18.5	88.160	0.130	-0.400	0.010
2020/01/31 15:16:18.6	88.180	0.140	-0.410	0.010
2020/01/31 15:16:18.7	88.200	0.160	-0.430	0.010
2020/01/31 15:16:18.8	88.230	0.180	-0.450	0.010
2020/01/31 15:16:18.9	88.250	0.190	-0.470	0.010
2020/01/31 15:16:19.0	88.270	0.200	-0.480	0.010
2020/01/31 15:16:19.1	88.290	0.220	-0.500	0.010
2020/01/31 15:16:19.2	88.310	0.230	-0.510	0.010
2020/01/31 15:16:19.3	88.330	0.240	-0.530	0.010
2020/01/31 15:16:19.4	88.350	0.250	-0.540	0.010
2020/01/31 15:16:19.5	88.360	0.250	-0.550	0.020
2020/01/31 15:16:19.6	88.380	0.260	-0.560	0.020
2020/01/31 15:16:19.7	88.390	0.260	-0.570	0.030
2020/01/31 15:16:19.8	88.410	0.270	-0.570	0.040
2020/01/31 15:16:19.9	88.420	0.270	-0.580	0.040
2020/01/31 15:16:20.0	88.430	0.270	-0.580	0.050
2020/01/31 15:16:20.1	88.450	0.270	-0.570	0.060
2020/01/31 15:16:20.2	88.460	0.270	-0.570	0.070
2020/01/31 15:16:20.3	88.470	0.270	-0.560	0.080
2020/01/31 15:16:20.4	88.470	0.270	-0.550	0.090
2020/01/31 15:16:20.5	88.480	0.260	-0.540	0.110
2020/01/31 15:16:20.6	88.500	0.260	-0.520	0.120
2020/01/31 15:16:20.7	88.500	0.260	-0.500	0.140
2020/01/31 15:16:20.8	88.510	0.250	-0.490	0.150
2020/01/31 15:16:20.9	88.510	0.250	-0.470	0.170
2020/01/31 15:16:21.0	88.510	0.240	-0.450	0.180
2020/01/31 15:16:21.1	88.520	0.230	-0.420	0.190
2020/01/31 15:16:21.2	88.520	0.220	-0.400	0.210
2020/01/31 15:16:21.3	88.520	0.220	-0.370	0.220
2020/01/31 15:16:21.4	88.520	0.210	-0.350	0.240
2020/01/31 15:16:21.5	88.520	0.200	-0.320	0.250
2020/01/31 15:16:21.6	88.510	0.190	-0.290	0.270
2020/01/31 15:16:21.7	88.510	0.180	-0.260	0.280
2020/01/31 15:16:21.8	88.510	0.170	-0.220	0.290
2020/01/31 15:16:21.9	88.510	0.160	-0.190	0.300
2020/01/31 15:16:22.0	88.510	0.150	-0.160	0.310
2020/01/31 15:16:22.1	88.520	0.140	-0.120	0.320
2020/01/31 15:16:22.2	88.520	0.130	-0.090	0.330
2020/01/31 15:16:22.3	88.520	0.120	-0.050	0.330
2020/01/31 15:16:22.4	88.520	0.110	-0.020	0.340
2020/01/31 15:16:22.5	88.530	0.090	0.020	0.340
2020/01/31 15:16:22.6	88.550	0.080	0.060	0.350
2020/01/31 15:16:22.7	88.550	0.070	0.100	0.350
2020/01/31 15:16:22.8	88.560	0.050	0.140	0.360
2020/01/31 15:16:22.9	88.570	0.040	0.170	0.360
2020/01/31 15:16:23.0	88.580	0.020	0.210	0.360
2020/01/31 15:16:23.1	88.590	0.000	0.240	0.360
2020/01/31 15:16:23.2	88.600	-0.010	0.280	0.360
2020/01/31 15:16:23.3	88.620	-0.030	0.310	0.360
2020/01/31 15:16:23.4	88.630	-0.050	0.340	0.370
2020/01/31 15:16:23.5	88.640	-0.070	0.370	0.370
2020/01/31 15:16:23.6	88.660	-0.090	0.400	0.380
2020/01/31 15:16:23.7	88.680	-0.100	0.420	0.380
2020/01/31 15:16:23.8	88.690	-0.120	0.450	0.380
2020/01/31 15:16:23.9	88.710	-0.140	0.470	0.390
2020/01/31 15:16:24.0	88.730	-0.160	0.480	0.390
2020/01/31 15:16:24.1	88.750	-0.170	0.500	0.400
2020/01/31 15:16:24.2	88.780	-0.190	0.510	0.400
2020/01/31 15:16:24.3	88.800	-0.210	0.510	0.410
2020/01/31 15:16:24.4	88.830	-0.220	0.510	0.410
2020/01/31 15:16:24.5	88.850	-0.230	0.510	0.420
2020/01/31 15:16:24.6	88.860	-0.240	0.510	0.420
2020/01/31 15:16:24.7	88.890	-0.250	0.500	0.420
2020/01/31 15:16:24.8	88.920	-0.260	0.480	0.420
2020/01/31 15:16:24.9	88.960	-0.270	0.460	0.420
2020/01/31 15:16:25.0	88.990	-0.280	0.430	0.420
2020/01/31 15:16:25.1	89.030	-0.280	0.390	0.420
2020/01/31 15:16:25.2	89.060	-0.290	0.360	0.420
2020/01/31 15:16:25.3	89.100	-0.290	0.310	0.410
2020/01/31 15:16:25.4	89.140	-0.290	0.260	0.400
2020/01/31 15:16:25.5	89.180	-0.280	0.210	0.390
2020/01/31 15:16:25.6	89.230	-0.280	0.150	0.380
2020/01/31 15:16:25.7	89.270	-0.270	0.090	0.370
2020/01/31 15:16:25.8	89.310	-0.270	0.020	0.350
2020/01/31 15:16:25.9	89.350	-0.260	-0.050	0.330
2020/01/31 15:16:26.0	89.390	-0.250	-0.120	0.310
2020/01/31 15:16:26.1	89.430	-0.230	-0.200	0.290
2020/01/31 15:16:26.2	89.470	-0.220	-0.270	0.270
2020/01/31 15:16:26.3	89.500	-0.200	-0.350	0.250
2020/01/31 15:16:26.4	89.540	-0.190	-0.430	0.230
2020/01/31 15:16:26.5	89.570	-0.170	-0.510	0.210
2020/01/31 15:16:26.6	89.600	-0.150	-0.590	0.190
2020/01/31 15:16:26.7	89.630	-0.130	-0.670	0.160
2020/01/31 15:16:26.8	89.660	-0.110	-0.740	0.140
2020/01/31 15:16:26.9	89.690	-0.080	-0.810	0.120
2020/01/31 15:16:27.0	89.710	-0.060	-0.880	0.110
2020/01/31 15:16:27.1	89.730	-0.040	-0.940	0.090
2020/01/31 15:16:27.2	89.750	-0.010	-0.990	0.080
2020/01/31 15:16:27.3	89.770	0.010	-1.040	0.070
2020/01/31 15:16:27.4	89.790	0.030	-1.080	0.060
2020/01/31 15:16:27.5	89.800	0.060	-1.110	0.050
2020/01/31 15:16:27.6	89.810	0.080	-1.130	0.050
2020/01/31 15:16:27.7	89.820	0.100	-1.150	0.040
2020/01/31 15:16:27.8	89.830	0.110	-1.150	0.050
2020/01/31 15:16:27.9	89.840	0.130	-1.150	0.050
2020/01/31 15:16:28.0	89.840	0.150	-1.140	0.060
2020/01/31 15:16:28.1	89.840	0.160	-1.120	0.070
2020/01/31 15:16:28.2	89.850	0.170	-1.090	0.090
2020/01/31 15:16:28.3	89.850	0.170	-1.050	0.100
2020/01/31 15:16:28.4	89.840	0.180	-1.000	0.120
2020/01/31 15:16:28.5	89.840	0.180	-0.950	0.150
2020/01/31 15:16:28.6	89.830	0.180	-0.880	0.180
2020/01/31 15:16:28.7	89.830	0.180	-0.820	0.200
2020/01/31 15:16:28.8	89.820	0.170	-0.750	0.230
2020/01/31 15:16:28.9	89.810	0.160	-0.670	0.260
2020/01/31 15:16:29.0	89.810	0.150	-0.590	0.300
2020/01/31 15:16:29.1	89.800	0.140	-0.510	0.330
2020/01/31 15:16:29.2	89.790	0.120	-0.430	0.360
2020/01/31 15:16:29.3	89.790	0.100	-0.350	0.400
2020/01/31 15:16:29.4	89.780	0.080	-0.260	0.430
2020/01/31 15:16:29.5	89.770	0.060	-0.180	0.470
2020/01/31 15:16:29.6	89.760	0.040	-0.100	0.500
2020/01/31 15:16:29.7	89.750	0.020	-0.020	0.540
2020/01/31 15:16:29.8	89.740	-0.010	0.050	0.570
2020/01/31 15:16:29.9	89.730	-0.030	0.120	0.600
2020/01/31 15:16:30.0	89.730	-0.060	0.190	0.640
2020/01/31 15:16:30.1	89.720	-0.080	0.250	0.660
2020/01/31 15:16:30.2	89.720	-0.100	0.300	0.690
2020/01/31 15:16:30.3	89.720	-0.130	0.350	0.710
2020/01/31 15:16:30.4	89.720	-0.150	0.390	0.730
2020/01/31 15:16:30.5	89.720	-0.170	0.430	0.750
2020/01/31 15:16:30.6	89.730	-0.190	0.460	0.760
2020/01/31 15:16:30.7	89.730	-0.210	0.490	0.770
2020/01/31 15:16:30.8	89.740	-0.220	0.510	0.770
2020/01/31 15:16:30.9	89.750	-0.240	0.520	0.770
2020/01/31 15:16:31.0	89.760	-0.250	0.530	0.770
2020/01/31 15:16:31.1	89.780	-0.260	0.530	0.760
2020/01/31 15:16:31.2	89.800	-0.260	0.520	0.740
2020/01/31 15:16:31.3	89.820	-0.260	0.510	0.720
2020/01/31 15:16:31.4	89.840	-0.270	0.500	0.700
2020/01/31 15:16:31.5	89.870	-0.260	0.480	0.670
2020/01/31 15:16:31.6	89.910	-0.260	0.460	0.640
2020/01/31 15:16:31.7	89.940	-0.250	0.430	0.600
2020/01/31 15:16:31.8	89.970	-0.240	0.390	0.560
2020/01/31 15:16:31.9	90.000	-0.230	0.360	0.520
2020/01/31 15:16:32.0	90.040	-0.210	0.310	0.480
2020/01/31 15:16:32.1	90.070	-0.190	0.270	0.430
2020/01/31 15:16:32.2	90.100	-0.170	0.220	0.390
2020/01/31 15:16:32.3	90.140	-0.150	0.170	0.340
2020/01/31 15:16:32.4	90.170	-0.130	0.120	0.290
2020/01/31 15:16:32.5	90.210	-0.100	0.060	0.250
2020/01/31 15:16:32.6	90.250	-0.070	0.010	0.210
2020/01/31 15:16:32.7	90.280	-0.050	-0.050	0.160
2020/01/31 15:16:32.8	90.310	-0.020	-0.110	0.120
2020/01/31 15:16:32.9	90.340	0.010	-0.170	0.080
2020/01/31 15:16:33.0	90.360	0.040	-0.220	0.050
2020/01/31 15:16:33.1	90.390	0.070	-0.280	0.010
2020/01/31 15:16:33.2	90.410	0.100	-0.330	-0.020
2020/01/31 15:16:33.3	90.430	0.130	-0.390	-0.050
2020/01/31 15:16:33.4	90.450	0.160	-0.440	-0.070
2020/01/31 15:16:33.5	90.470	0.190	-0.490	-0.100
2020/01/31 15:16:33.6	90.490	0.210	-0.530	-0.110
2020/01/31 15:16:33.7	90.500	0.240	-0.580	-0.130
2020/01/31 15:16:33.8	90.520	0.260	-0.620	-0.140
2020/01/31 15:16:33.9	90.530	0.280	-0.650	-0.160
2020/01/31 15:16:34.0	90.550	0.310	-0.690	-0.160
2020/01/31 15:16:34.1	90.560	0.320	-0.720	-0.170
2020/01/31 15:16:34.2	90.570	0.340	-0.740	-0.170
2020/01/31 15:16:34.3	90.580	0.350	-0.760	-0.170
2020/01/31 15:16:34.4	90.590	0.360	-0.780	-0.170
2020/01/31 15:16:34.5	90.610	0.370	-0.790	-0.170
2020/01/31 15:16:34.6	90.610	0.380	-0.790	-0.160
2020/01/31 15:16:34.7	90.620	0.380	-0.790	-0.150
2020/01/31 15:16:34.8	90.630	0.380	-0.790	-0.140
2020/01/31 15:16:34.9	90.640	0.380	-0.780	-0.130
2020/01/31 15:16:35.0	90.660	0.370	-0.760	-0.110
2020/01/31 15:16:35.1	90.670	0.360	-0.740	-0.100
2020/01/31 15:16:35.2	90.680	0.350	-0.720	-0.080
2020/01/31 15:16:35.3	90.690	0.340	-0.690	-0.060
2020/01/31 15:16:35.4	90.700	0.320	-0.650	-0.050
2020/01/31 15:16:35.5	90.710	0.300	-0.610	-0.030
2020/01/31 15:16:35.6	90.730	0.280	-0.570	-0.010
2020/01/31 15:16:35.7	90.740	0.260	-0.520	0.010
2020/01/31 15:16:35.8	90.750	0.230	-0.470	0.030
2020/01/31 15:16:35.9	90.760	0.210	-0.420	0.040
2020/01/31 15:16:36.0	90.770	0.180	-0.360	0.060
2020/01/31 15:16:36.1	90.780	0.150	-0.300	0.070
2020/01/31 15:16:36.2	90.790	0.120	-0.250	0.090
2020/01/31 15:16:36.3	90.800	0.090	-0.190	0.100
2020/01/31 15:16:36.4	90.810	0.050	-0.120	0.110
2020/01/31 15:16:36.5	90.820	0.020	-0.060	0.120
2020/01/31 15:16:36.6	90.840	-0.010	-0.000	0.130
2020/01/31 15:16:36.7	90.840	-0.050	0.060	0.140
2020/01/31 15:16:36.8	90.850	-0.080	0.120	0.150
2020/01/31 15:16:36.9	90.860	-0.110	0.170	0.160
2020/01/31 15:16:37.0	90.870	-0.140	0.230	0.160
2020/01/31 15:16:37.1	90.880	-0.170	0.280	0.170
2020/01/31 15:16:37.2	90.890	-0.200	0.320	0.170
2020/01/31 15:16:37.3	90.900	-0.230	0.370	0.180
2020/01/31 15:16:37.4	90.910	-0.260	0.410	0.190
2020/01/31 15:16:37.5	90.920	-0.280	0.440	0.190
2020/01/31 15:16:37.6	90.940	-0.300	0.480	0.200
2020/01/31 15:16:37.7	90.950	-0.330	0.510	0.200
2020/01/31 15:16:37.8	90.960	-0.340	0.530	0.210
2020/01/31 15:16:37.9	90.970	-0.360	0.550	0.220
2020/01/31 15:16:38.0	90.990	-0.370	0.560	0.230
2020/01/31 15:16:38.1	91.000	-0.380	0.570	0.230
2020/01/31 15:16:38.2	91.010	-0.390	0.570	0.240
2020/01/31 15:16:38.3	91.020	-0.400	0.570	0.250
2020/01/31 15:16:38.4	91.030	-0.400	0.560	0.270
2020/01/31 15:16:38.5	91.050	-0.400	0.550	0.280
2020/01/31 15:16:38.6	91.070	-0.400	0.530	0.290
2020/01/31 15:16:38.7	91.090	-0.390	0.500	0.310
2020/01/31 15:16:38.8	91.110	-0.380	0.470	0.320
2020/01/31 15:16:38.9	91.120	-0.370	0.440	0.330
2020/01/31 15:16:39.0	91.140	-0.360	0.400	0.350
2020/01/31 15:16:39.1	91.160	-0.350	0.360	0.360
2020/01/31 15:16:39.2	91.180	-0.330	0.310	0.370
2020/01/31 15:16:39.3	91.200	-0.310	0.260	0.390
2020/01/31 15:16:39.4	91.220	-0.290	0.200	0.400
2020/01/31 15:16:39.5	91.240	-0.270	0.140	0.410
2020/01/31 15:16:39.6	91.270	-0.250	0.080	0.420
2020/01/31 15:16:39.7	91.290	-0.230	0.020	0.430
2020/01/31 15:16:39.8	91.320	-0.200	-0.040	0.440
2020/01/31 15:16:39.9	91.350	-0.180	-0.110	0.440
2020/01/31 15:16:40.0	91.370	-0.160	-0.180	0.450
2020/01/31 15:16:40.1	91.400	-0.130	-0.250	0.450
2020/01/31 15:16:40.2	91.430	-0.110	-0.310	0.450
2020/01/31 15:16:40.3	91.460	-0.080	-0.380	0.450
2020/01/31 15:16:40.4	91.480	-0.060	-0.450	0.450
2020/01/31 15:16:40.5	91.510	-0.030	-0.510	0.440
2020/01/31 15:16:40.6	91.550	-0.010	-0.580	0.440
2020/01/31 15:16:40.7	91.580	0.010	-0.640	0.430
2020/01/31 15:16:40.8	91.610	0.030	-0.690	0.430
2020/01/31 15:16:40.9	91.630	0.050	-0.750	0.430
2020/01/31 15:16:41.0	91.650	0.070	-0.800	0.430
2020/01/31 15:16:41.1	91.680	0.080	-0.840	0.430
2020/01/31 15:16:41.2	91.690	0.100	-0.880	0.430
2020/01/31 15:16:41.3	91.710	0.110	-0.920	0.430
2020/01/31 15:16:41.4	91.730	0.120	-0.950	0.440
2020/01/31 15:16:41.5	91.740	0.130	-0.980	0.440
2020/01/31 15:16:41.6	91.740	0.140	-1.000	0.460
2020/01/31 15:16:41.7	91.750	0.150	-1.020	0.470
2020/01/31 15:16:41.8	91.750	0.160	-1.030	0.480
2020/01/31 15:16:41.9	91.760	0.160	-1.040	0.500
2020/01/31 15:16:42.0	91.760	0.170	-1.050	0.510
2020/01/31 15:16:42.1	91.760	0.170	-1.040	0.530
2020/01/31 15:16:42.2	91.760	0.180	-1.040	0.550
2020/01/31 15:16:42.3	91.750	0.180	-1.020	0.570
2020/01/31 15:16:42.4	91.750	0.180	-1.000	0.590
2020/01/31 15:16:42.5	91.740	0.180	-0.980	0.610
2020/01/31 15:16:42.6	91.750	0.180	-0.950	0.630
2020/01/31 15:16:42.7	91.740	0.180	-0.920	0.640
2020/01/31 15:16:42.8	91.740	0.180	-0.880	0.660
2020/01/31 15:16:42.9	91.730	0.180	-0.840	0.670
2020/01/31 15:16:43.0	91.730	0.180	-0.800	0.690
2020/01/31 15:16:43.1	91.730	0.170	-0.750	0.700
2020/01/31 15:16:43.2	91.730	0.170	-0.700	0.710
2020/01/31 15:16:43.3	91.730	0.170	-0.640	0.710
2020/01/31 15:16:43.4	91.730	0.170	-0.580	0.720
2020/01/31 15:16:43.5	91.730	0.160	-0.530	0.720
2020/01/31 15:16:43.6	91.730	0.160	-0.460	0.730
2020/01/31 15:16:43.7	91.730	0.160	-0.400	0.730
2020/01/31 15:16:43.8	91.740	0.160	-0.330	0.720
2020/01/31 15:16:43.9	91.740	0.150	-0.270	0.720
2020/01/31 15:16:44.0	91.740	0.150	-0.210	0.710
2020/01/31 15:16:44.1	91.750	0.150	-0.150	0.700
2020/01/31 15:16:44.2	91.750	0.140	-0.080	0.690
2020/01/31 15:16:44.3	91.760	0.140	-0.020	0.670
2020/01/31 15:16:44.4	91.770	0.140	0.040	0.660
2020/01/31 15:16:44.5	91.780	0.130	0.090	0.640
2020/01/31 15:16:44.6	91.790	0.130	0.150	0.620
2020/01/31 15:16:44.7	91.800	0.120	0.200	0.590
2020/01/31 15:16:44.8	91.810	0.120	0.250	0.570
2020/01/31 15:16:44.9	91.820	0.110	0.300	0.540
2020/01/31 15:16:45.0	91.840	0.100	0.340	0.510
2020/01/31 15:16:45.1	91.850	0.090	0.380	0.480
2020/01/31 15:16:45.2	91.860	0.080	0.410	0.450
2020/01/31 15:16:45.3	91.880	0.070	0.440	0.420
2020/01/31 15:16:45.4	91.900	0.060	0.470	0.390
2020/01/31 15:16:45.5	91.910	0.050	0.500	0.360
2020/01/31 15:16:45.6	91.940	0.040	0.520	0.330
2020/01/31 15:16:45.7	91.960	0.030	0.540	0.290
2020/01/31 15:16:45.8	91.980	0.010	0.550	0.260
2020/01/31 15:16:45.9	92.000	-0.000	0.560	0.220
2020/01/31 15:16:46.0	92.020	-0.020	0.560	0.190
2020/01/31 15:16:46.1	92.040	-0.030	0.560	0.160
2020/01/31 15:16:46.2	92.060	-0.050	0.560	0.120
2020/01/31 15:16:46.3	92.080	-0.070	0.550	0.090
2020/01/31 15:16:46.4	92.110	-0.080	0.540	0.050
2020/01/31 15:16:46.5	92.130	-0.100	0.530	0.020
2020/01/31 15:16:46.6	92.140	-0.120	0.520	-0.010
2020/01/31 15:16:46.7	92.170	-0.140	0.500	-0.050
2020/01/31 15:16:46.8	92.200	-0.150	0.480	-0.090
2020/01/31 15:16:46.9	92.220	-0.170	0.450	-0.120
2020/01/31 15:16:47.0	92.250	-0.190	0.420	-0.160
2020/01/31 15:16:47.1	92.280	-0.200	0.390	-0.200
2020/01/31 15:16:47.2	92.300	-0.220	0.360	-0.240
2020/01/31 15:16:47.3	92.330	-0.230	0.320	-0.280
2020/01/31 15:16:47.4	92.360	-0.240	0.280	-0.310
2020/01/31 15:16:47.5	92.390	-0.250	0.240	-0.350
2020/01/31 15:16:47.6	92.420	-0.260	0.190	-0.390
2020/01/31 15:16:47.7	92.450	-0.270	0.150	-0.420
2020/01/31 15:16:47.8	92.470	-0.280	0.100	-0.450
2020/01/31 15:16:47.9	92.500	-0.290	0.060	-0.480
2020/01/31 15:16:48.0	92.520	-0.290	0.010	-0.500
2020/01/31 15:16:48.1	92.550	-0.290	-0.040	-0.520
2020/01/31 15:16:48.2	92.570	-0.290	-0.090	-0.540
2020/01/31 15:16:48.3	92.590	-0.290	-0.130	-0.550
2020/01/31 15:16:48.4	92.610	-0.290	-0.180	-0.560
2020/01/31 15:16:48.5	92.630	-0.280	-0.230	-0.560
2020/01/31 15:16:48.6	92.640	-0.270	-0.270	-0.560
2020/01/31 15:16:48.7	92.650	-0.270	-0.320	-0.550
2020/01/31 15:16:48.8	92.670	-0.250	-0.360	-0.540
2020/01/31 15:16:48.9	92.680	-0.240	-0.400	-0.530
2020/01/31 15:16:49.0	92.700	-0.230	-0.440	-0.510
2020/01/31 15:16:49.1	92.710	-0.210	-0.480	-0.490
2020/01/31 15:16:49.2	92.720	-0.190	-0.510	-0.470
2020/01/31 15:16:49.3	92.730	-0.180	-0.550	-0.440
2020/01/31 15:16:49.4	92.740	-0.160	-0.580	-0.410
2020/01/31 15:16:49.5	92.750	-0.140	-0.610	-0.380
2020/01/31 15:16:49.6	92.780	-0.110	-0.630	-0.350
2020/01/31 15:16:49.7	92.780	-0.090	-0.660	-0.310
2020/01/31 15:16:49.8	92.790	-0.070	-0.680	-0.270
2020/01/31 15:16:49.9	92.800	-0.040	-0.700	-0.230
2020/01/31 15:16:50.0	92.810	-0.020	-0.710	-0.190
2020/01/31 15:16:50.1	92.820	0.000	-0.730	-0.150
2020/01/31 15:16:50.2	92.830	0.030	-0.740	-0.100
2020/01/31 15:16:50.3	92.830	0.050	-0.750	-0.060
2020/01/31 15:16:50.4	92.840	0.080	-0.760	-0.010
2020/01/31 15:16:50.5	92.850	0.100	-0.760	0.040
2020/01/31 15:16:50.6	92.860	0.120	-0.760	0.090
2020/01/31 15:16:50.7	92.860	0.140	-0.770	0.140
2020/01/31 15:16:50.8	92.870	0.160	-0.770	0.190
2020/01/31 15:16:50.9	92.870	0.180	-0.770	0.230
2020/01/31 15:16:51.0	92.880	0.200	-0.760	0.280
2020/01/31 15:16:51.1	92.880	0.220	-0.760	0.330
2020/01/31 15:16:51.2	92.890	0.230	-0.750	0.370
2020/01/31 15:16:51.3	92.900	0.240	-0.750	0.420
2020/01/31 15:16:51.4	92.900	0.260	-0.740	0.460
2020/01/31 15:16:51.5	92.910	0.260	-0.730	0.500
2020/01/31 15:16:51.6	92.930	0.270	-0.710	0.550
2020/01/31 15:16:51.7	92.940	0.280	-0.700	0.580
2020/01/31 15:16:51.8	92.950	0.280	-0.680	0.620
2020/01/31 15:16:51.9	92.960	0.280	-0.660	0.650
2020/01/31 15:16:52.0	92.970	0.280	-0.640	0.680
2020/01/31 15:16:52.1	92.980	0.270	-0.610	0.700
2020/01/31 15:16:52.2	92.990	0.260	-0.580	0.730
2020/01/31 15:16:52.3	93.010	0.250	-0.550	0.750
2020/01/31 15:16:52.4	93.020	0.240	-0.510	0.760
2020/01/31 15:16:52.5	93.030	0.230	-0.470	0.780
2020/01/31 15:16:52.6	93.050	0.210	-0.420	0.790
2020/01/31 15:16:52.7	93.060	0.200	-0.380	0.800
2020/01/31 15:16:52.8	93.070	0.180	-0.330	0.800
2020/01/31 15:16:52.9	93.080	0.160	-0.280	0.810
2020/01/31 15:16:53.0	93.090	0.130	-0.220	0.810
2020/01/31 15:16:53.1	93.100	0.110	-0.170	0.810
2020/01/31 15:16:53.2	93.110	0.090	-0.110	0.810
2020/01/31 15:16:53.3	93.110	0.060	-0.050	0.810
2020/01/31 15:16:53.4	93.120	0.040	0.010	0.810
2020/01/31 15:16:53.5	93.120	0.010	0.060	0.810
2020/01/31 15:16:53.6	93.130	-0.020	0.120	0.810
2020/01/31 15:16:53.7	93.130	-0.040	0.180	0.800
2020/01/31 15:16:53.8	93.130	-0.070	0.240	0.800
2020/01/31 15:16:53.9	93.130	-0.090	0.290	0.790
2020/01/31 15:16:54.0	93.130	-0.120	0.350	0.780
2020/01/31 15:16:54.1	93.130	-0.140	0.400	0.780
2020/01/31 15:16:54.2	93.130	-0.160	0.440	0.770
2020/01/31 15:16:54.3	93.120	-0.180	0.490	0.760
2020/01/31 15:16:54.4	93.120	-0.200	0.520	0.750
2020/01/31 15:16:54.5	93.120	-0.220	0.560	0.740
2020/01/31 15:16:54.6	93.120	-0.230	0.590	0.720
2020/01/31 15:16:54.7	93.120	-0.250	0.620	0.710
2020/01/31 15:16:54.8	93.120	-0.260	0.640	0.690
2020/01/31 15:16:54.9	93.120	-0.270	0.650	0.670
2020/01/31 15:16:55.0	93.120	-0.270	0.650	0.650
2020/01/31 15:16:55.1	93.120	-0.280	0.660	0.620
2020/01/31 15:16:55.2	93.130	-0.280	0.650	0.600
2020/01/31 15:16:55.3	93.140	-0.280	0.640	0.570
2020/01/31 15:16:55.4	93.150	-0.270	0.620	0.540
2020/01/31 15:16:55.5	93.160	-0.270	0.590	0.500
2020/01/31 15:16:55.6	93.180	-0.260	0.560	0.470
2020/01/31 15:16:55.7	93.200	-0.250	0.520	0.430
2020/01/31 15:16:55.8	93.220	-0.230	0.480	0.390
2020/01/31 15:16:55.9	93.240	-0.220	0.430	0.350
2020/01/31 15:16:56.0	93.270	-0.200	0.380	0.300
2020/01/31 15:16:56.1	93.290	-0.170	0.320	0.250
2020/01/31 15:16:56.2	93.330	-0.150	0.250	0.200
2020/01/31 15:16:56.3	93.360	-0.120	0.190	0.150
2020/01/31 15:16:56.4	93.390	-0.090	0.110	0.090
2020/01/31 15:16:56.5	93.430	-0.060	0.040	0.040
2020/01/31 15:16:56.6	93.470	-0.030	-0.040	-0.020
2020/01/31 15:16:56.7	93.510	0.000	-0.120	-0.070
2020/01/31 15:16:56.8	93.550	0.040	-0.200	-0.120
2020/01/31 15:16:56.9	93.590	0.070	-0.280	-0.170
2020/01/31 15:16:57.0	93.640	0.110	-0.360	-0.220
2020/01/31 15:16:57.1	93.680	0.140	-0.440	-0.270
2020/01/31 15:16:57.2	93.720	0.180	-0.520	-0.310
2020/01/31 15:16:57.3	93.760	0.210	-0.600	-0.340
2020/01/31 15:16:57.4	93.800	0.250	-0.670	-0.380
2020/01/31 15:16:57.5	93.840	0.280	-0.740	-0.410
2020/01/31 15:16:57.6	93.880	0.310	-0.810	-0.430
2020/01/31 15:16:57.7	93.920	0.340	-0.870	-0.450
2020/01/31 15:16:57.8	93.950	0.370	-0.930	-0.470
2020/01/31 15:16:57.9	93.980	0.390	-0.990	-0.480
2020/01/31 15:16:58.0	94.010	0.410	-1.030	-0.490
2020/01/31 15:16:58.1	94.030	0.430	-1.070	-0.490
2020/01/31 15:16:58.2	94.060	0.450	-1.110	-0.490
2020/01/31 15:16:58.3	94.070	0.460	-1.130	-0.480
2020/01/31 15:16:58.4	94.090	0.480	-1.150	-0.480
2020/01/31 15:16:58.5	94.110	0.480	-1.170	-0.460
2020/01/31 15:16:58.6	94.120	0.490	-1.170	-0.450
2020/01/31 15:16:58.7	94.130	0.490	-1.170	-0.430
2020/01/31 15:16:58.8	94.140	0.480	-1.150	-0.410
2020/01/31 15:16:58.9	94.140	0.480	-1.130	-0.390
2020/01/31 15:16:59.0	94.150	0.470	-1.110	-0.370
2020/01/31 15:16:59.1	94.150	0.460	-1.070	-0.340
2020/01/31 15:16:59.2	94.160	0.440	-1.030	-0.320
2020/01/31 15:16:59.3	94.160	0.420	-0.970	-0.290
2020/01/31 15:16:59.4	94.160	0.400	-0.920	-0.260
2020/01/31 15:16:59.5	94.160	0.370	-0.850	-0.230
2020/01/31 15:16:59.6	94.160	0.350	-0.770	-0.190
2020/01/31 15:16:59.7	94.150	0.320	-0.700	-0.160
2020/01/31 15:16:59.8	94.140	0.280	-0.610	-0.120
2020/01/31 15:16:59.9	94.130	0.250	-0.530	-0.090
2020/01/31 15:17:00.0	94.120	0.210	-0.440	-0.050
2020/01/31 15:17:00.1	94.110	0.170	-0.340	-0.010
2020/01/31 15:17:00.2	94.100	0.140	-0.250	0.030
2020/01/31 15:17:00.3	94.080	0.090	-0.150	0.070
2020/01/31 15:17:00.4	94.070	0.050	-0.060	0.110
2020/01/31 15:17:00.5	94.050	0.010	0.040	0.160
2020/01/31 15:17:00.6	94.030	-0.030	0.130	0.200
2020/01/31 15:17:00.7	94.010	-0.080	0.220	0.250
2020/01/31 15:17:00.8	93.990	-0.120	0.310	0.290
2020/01/31 15:17:00.9	93.980	-0.160	0.400	0.340
2020/01/31 15:17:01.0	93.960	-0.200	0.470	0.380
2020/01/31 15:17:01.1	93.940	-0.240	0.550	0.430
2020/01/31 15:17:01.2	93.920	-0.280	0.610	0.470
2020/01/31 15:17:01.3	93.900	-0.320	0.670	0.510
2020/01/31 15:17:01.4	93.890	-0.360	0.730	0.560
2020/01/31 15:17:01.5	93.870	-0.390	0.770	0.600
2020/01/31 15:17:01.6	93.860	-0.420	0.810	0.640
2020/01/31 15:17:01.7	93.850	-0.450	0.840	0.680
2020/01/31 15:17:01.8	93.840	-0.480	0.860	0.720
2020/01/31 15:17:01.9	93.830	-0.500	0.870	0.750
2020/01/31 15:17:02.0	93.820	-0.520	0.880	0.790
2020/01/31 15:17:02.1	93.820	-0.540	0.870	0.820
2020/01/31 15:17:02.2	93.820	-0.560	0.860	0.840
2020/01/31 15:17:02.3	93.820	-0.570	0.840	0.870
2020/01/31 15:17:02.4	93.820	-0.580	0.810	0.890
2020/01/31 15:17:02.5	93.830	-0.580	0.780	0.910
2020/01/31 15:17:02.6	93.830	-0.580	0.740	0.930
2020/01/31 15:17:02.7	93.840	-0.580	0.690	0.940
2020/01/31 15:17:02.8	93.850	-0.580	0.640	0.960
2020/01/31 15:17:02.9	93.860	-0.570	0.580	0.960
2020/01/31 15:17:03.0	93.880	-0.560	0.510	0.970
2020/01/31 15:17:03.1	93.890	-0.550	0.450	0.970
2020/01/31 15:17:03.2	93.910	-0.540	0.380	0.970
2020/01/31 15:17:03.3	93.930	-0.520	0.300	0.970
2020/01/31 15:17:03.4	93.950	-0.500	0.230	0.960
2020/01/31 15:17:03.5	93.970	-0.480	0.150	0.960
2020/01/31 15:17:03.6	94.000	-0.460	0.070	0.950
2020/01/31 15:17:03.7	94.030	-0.440	-0.010	0.940
2020/01/31 15:17:03.8	94.060	-0.410	-0.090	0.920
2020/01/31 15:17:03.9	94.080	-0.380	-0.170	0.900
2020/01/31 15:17:04.0	94.110	-0.350	-0.250	0.880
2020/01/31 15:17:04.1	94.140	-0.330	-0.330	0.860
2020/01/31 15:17:04.2	94.180	-0.300	-0.410	0.840
2020/01/31 15:17:04.3	94.210	-0.270	-0.480	0.810
2020/01/31 15:17:04.4	94.240	-0.240	-0.550	0.790
2020/01/31 15:17:04.5	94.280	-0.200	-0.620	0.760
2020/01/31 15:17:04.6	94.310	-0.170	-0.690	0.730
2020/01/31 15:17:04.7	94.350	-0.140	-0.750	0.700
2020/01/31 15:17:04.8	94.380	-0.110	-0.810	0.670
2020/01/31 15:17:04.9	94.420	-0.080	-0.870	0.640
2020/01/31 15:17:05.0	94.460	-0.050	-0.920	0.610
2020/01/31 15:17:05.1	94.490	-0.020	-0.970	0.580
2020/01/31 15:17:05.2	94.530	0.010	-1.020	0.540
2020/01/31 15:17:05.3	94.570	0.040	-1.050	0.510
2020/01/31 15:17:05.4	94.610	0.060	-1.090	0.480
2020/01/31 15:17:05.5	94.640	0.090	-1.120	0.440
2020/01/31 15:17:05.6	94.670	0.110	-1.140	0.410
2020/01/31 15:17:05.7	94.710	0.140	-1.150	0.380
2020/01/31 15:17:05.8	94.740	0.160	-1.160	0.360
2020/01/31 15:17:05.9	94.780	0.180	-1.170	0.330
2020/01/31 15:17:06.0	94.810	0.200	-1.170	0.310
2020/01/31 15:17:06.1	94.840	0.220	-1.160	0.290
2020/01/31 15:17:06.2	94.870	0.240	-1.140	0.270
2020/01/31 15:17:06.3	94.900	0.250	-1.120	0.260
2020/01/31 15:17:06.4	94.920	0.270	-1.100	0.250
2020/01/31 15:17:06.5	94.940	0.280	-1.070	0.250
2020/01/31 15:17:06.6	94.960	0.290	-1.030	0.250
2020/01/31 15:17:06.7	94.970	0.290	-0.980	0.250
2020/01/31 15:17:06.8	94.990	0.300	-0.930	0.250
2020/01/31 15:17:06.9	95.000	0.310	-0.880	0.260
2020/01/31 15:17:07.0	95.000	0.310	-0.820	0.280
2020/01/31 15:17:07.1	95.010	0.310	-0.760	0.290
2020/01/31 15:17:07.2	95.010	0.310	-0.690	0.310
2020/01/31 15:17:07.3	95.010	0.310	-0.620	0.330
2020/01/31 15:17:07.4	95.010	0.300	-0.540	0.350
2020/01/31 15:17:07.5	95.000	0.300	-0.470	0.380
2020/01/31 15:17:07.6	94.990	0.290	-0.380	0.410
2020/01/31 15:17:07.7	94.980	0.280	-0.300	0.440
2020/01/31 15:17:07.8	94.970	0.270	-0.220	0.470
2020/01/31 15:17:07.9	94.960	0.260	-0.140	0.490
2020/01/31 15:17:08.0	94.940	0.250	-0.060	0.520
2020/01/31 15:17:08.1	94.930	0.240	0.020	0.550
2020/01/31 15:17:08.2	94.910	0.230	0.090	0.570
2020/01/31 15:17:08.3	94.890	0.210	0.160	0.590
2020/01/31 15:17:08.4	94.870	0.200	0.240	0.610
2020/01/31 15:17:08.5	94.850	0.180	0.300	0.630
2020/01/31 15:17:08.6	94.840	0.170	0.360	0.650
2020/01/31 15:17:08.7	94.820	0.150	0.420	0.660
2020/01/31 15:17:08.8	94.800	0.140	0.480	0.670
2020/01/31 15:17:08.9	94.790	0.120	0.530	0.680
2020/01/31 15:17:09.0	94.770	0.110	0.570	0.680
2020/01/31 15:17:09.1	94.750	0.100	0.610	0.680
2020/01/31 15:17:09.2	94.730	0.080	0.640	0.680
2020/01/31 15:17:09.3	94.710	0.070	0.670	0.680
2020/01/31 15:17:09.4	94.690	0.060	0.690	0.670
2020/01/31 15:17:09.5	94.670	0.050	0.710	0.660
2020/01/31 15:17:09.6	94.650	0.040	0.730	0.650
2020/01/31 15:17:09.7	94.630	0.030	0.730	0.630
2020/01/31 15:17:09.8	94.610	0.020	0.730	0.620
2020/01/31 15:17:09.9	94.600	0.010	0.720	0.600
2020/01/31 15:17:10.0	94.580	0.010	0.710	0.580
2020/01/31 15:17:10.1	94.560	0.010	0.700	0.550
2020/01/31 15:17:10.2	94.540	0.000	0.670	0.530
2020/01/31 15:17:10.3	94.530	0.000	0.650	0.500
2020/01/31 15:17:10.4	94.510	-0.000	0.610	0.480
2020/01/31 15:17:10.5	94.500	0.000	0.580	0.450
2020/01/31 15:17:10.6	94.480	0.000	0.540	0.420
2020/01/31 15:17:10.7	94.470	0.000	0.490	0.380
2020/01/31 15:17:10.8	94.460	0.010	0.440	0.350
2020/01/31 15:17:10.9	94.450	0.010	0.390	0.310
2020/01/31 15:17:11.0	94.440	0.020	0.330	0.270
2020/01/31 15:17:11.1	94.440	0.020	0.270	0.230
2020/01/31 15:17:11.2	94.430	0.030	0.210	0.180
2020/01/31 15:17:11.3	94.430	0.030	0.150	0.140
2020/01/31 15:17:11.4	94.440	0.040	0.080	0.090
2020/01/31 15:17:11.5	94.450	0.050	0.010	0.040
2020/01/31 15:17:11.6	94.460	0.050	-0.060	-0.020
2020/01/31 15:17:11.7	94.480	0.060	-0.130	-0.070
2020/01/31 15:17:11.8	94.490	0.070	-0.190	-0.130
2020/01/31 15:17:11.9	94.520	0.070	-0.260	-0.190
2020/01/31 15:17:12.0	94.550	0.080	-0.330	-0.250
2020/01/31 15:17:12.1	94.580	0.090	-0.400	-0.310
2020/01/31 15:17:12.2	94.610	0.090	-0.460	-0.380
2020/01/31 15:17:12.3	94.650	0.100	-0.530	-0.440
2020/01/31 15:17:12.4	94.690	0.100	-0.590	-0.510
2020/01/31 15:17:12.5	94.740	0.100	-0.640	-0.570
2020/01/31 15:17:12.6	94.780	0.110	-0.690	-0.630
2020/01/31 15:17:12.7	94.830	0.110	-0.740	-0.690
2020/01/31 15:17:12.8	94.890	0.110	-0.790	-0.740
2020/01/31 15:17:12.9	94.940	0.110	-0.830	-0.800
2020/01/31 15:17:13.0	95.000	0.100	-0.860	-0.840
2020/01/31 15:17:13.1	95.050	0.100	-0.890	-0.890
2020/01/31 15:17:13.2	95.110	0.100	-0.910	-0.930
2020/01/31 15:17:13.3	95.170	0.090	-0.930	-0.960
2020/01/31 15:17:13.4	95.220	0.090	-0.950	-0.990
2020/01/31 15:17:13.5	95.280	0.090	-0.950	-1.010
2020/01/31 15:17:13.6	95.320	0.080	-0.960	-1.020
2020/01/31 15:17:13.7	95.380	0.070	-0.960	-1.030
2020/01/31 15:17:13.8	95.430	0.070	-0.950	-1.030
2020/01/31 15:17:13.9	95.480	0.060	-0.940	-1.020
2020/01/31 15:17:14.0	95.530	0.060	-0.930	-1.010
2020/01/31 15:17:14.1	95.570	0.050	-0.910	-0.990
2020/01/31 15:17:14.2	95.610	0.050	-0.890	-0.960
2020/01/31 15:17:14.3	95.650	0.040	-0.860	-0.930
2020/01/31 15:17:14.4	95.680	0.040	-0.830	-0.890
2020/01/31 15:17:14.5	95.720	0.030	-0.800	-0.840
2020/01/31 15:17:14.6	95.740	0.030	-0.760	-0.780
2020/01/31 15:17:14.7	95.760	0.030	-0.730	-0.730
2020/01/31 15:17:14.8	95.780	0.020	-0.690	-0.660
2020/01/31 15:17:14.9	95.800	0.020	-0.650	-0.600
2020/01/31 15:17:15.0	95.820	0.020	-0.610	-0.520
2020/01/31 15:17:15.1	95.830	0.020	-0.570	-0.450
2020/01/31 15:17:15.2	95.840	0.020	-0.520	-0.370
2020/01/31 15:17:15.3	95.850	0.020	-0.480	-0.290
2020/01/31 15:17:15.4	95.850	0.020	-0.430	-0.200
2020/01/31 15:17:15.5	95.860	0.020	-0.390	-0.120
2020/01/31 15:17:15.6	95.860	0.020	-0.340	-0.030
2020/01/31 15:17:15.7	95.860	0.020	-0.290	0.060
2020/01/31 15:17:15.8	95.860	0.020	-0.250	0.150
2020/01/31 15:17:15.9	95.870	0.020	-0.200	0.230
2020/01/31 15:17:16.0	95.860	0.010	-0.150	0.320
2020/01/31 15:17:16.1	95.860	0.010	-0.100	0.410
2020/01/31 15:17:16.2	95.860	0.010	-0.060	0.500
2020/01/31 15:17:16.3	95.860	0.000	-0.010	0.590
2020/01/31 15:17:16.4	95.860	-0.000	0.030	0.680
2020/01/31 15:17:16.5	95.850	-0.010	0.080	0.770
2020/01/31 15:17:16.6	95.850	-0.010	0.130	0.860
2020/01/31 15:17:16.7	95.840	-0.020	0.170	0.940
2020/01/31 15:17:16.8	95.840	-0.030	0.210	1.030
2020/01/31 15:17:16.9	95.830	-0.040	0.250	1.110
2020/01/31 15:17:17.0	95.820	-0.050	0.290	1.190
2020/01/31 15:17:17.1	95.820	-0.060	0.320	1.270
2020/01/31 15:17:17.2	95.810	-0.070	0.360	1.350
2020/01/31 15:17:17.3	95.800	-0.090	0.390	1.430
2020/01/31 15:17:17.4	95.790	-0.100	0.420	1.500
2020/01/31 15:17:17.5	95.770	-0.120	0.440	1.570
2020/01/31 15:17:17.6	95.770	-0.130	0.460	1.640
2020/01/31 15:17:17.7	95.760	-0.140	0.470	1.710
2020/01/31 15:17:17.8	95.750	-0.160	0.490	1.770
2020/01/31 15:17:17.9	95.730	-0.170	0.500	1.820
2020/01/31 15:17:18.0	95.720	-0.190	0.500	1.880
2020/01/31 15:17:18.1	95.710	-0.200	0.500	1.930
2020/01/31 15:17:18.2	95.690	-0.210	0.500	1.970
2020/01/31 15:17:18.3	95.680	-0.220	0.490	2.020
2020/01/31 15:17:18.4	95.670	-0.230	0.470	2.050
2020/01/31 15:17:18.5	95.650	-0.240	0.460	2.090
2020/01/31 15:17:18.6	95.640	-0.250	0.440	2.120
2020/01/31 15:17:18.7	95.630	-0.260	0.420	2.140
2020/01/31 15:17:18.8	95.610	-0.260	0.390	2.160
2020/01/31 15:17:18.9	95.600	-0.260	0.350	2.170
2020/01/31 15:17:19.0	95.590	-0.260	0.320	2.170
2020/01/31 15:17:19.1	95.580	-0.260	0.280	2.170
2020/01/31 15:17:19.2	95.580	-0.260	0.230	2.160
2020/01/31 15:17:19.3	95.570	-0.260	0.190	2.150
2020/01/31 15:17:19.4	95.570	-0.250	0.140	2.130
2020/01/31 15:17:19.5	95.560	-0.240	0.090	2.100
2020/01/31 15:17:19.6	95.560	-0.240	0.040	2.060
2020/01/31 15:17:19.7	95.560	-0.230	-0.010	2.020
2020/01/31 15:17:19.8	95.560	-0.220	-0.060	1.980
2020/01/31 15:17:19.9	95.570	-0.210	-0.110	1.920
2020/01/31 15:17:20.0	95.580	-0.200	-0.160	1.870
2020/01/31 15:17:20.1	95.590	-0.180	-0.210	1.800
2020/01/31 15:17:20.2	95.600	-0.170	-0.260	1.730
2020/01/31 15:17:20.3	95.620	-0.160	-0.310	1.660
2020/01/31 15:17:20.4	95.640	-0.150	-0.350	1.580
2020/01/31 15:17:20.5	95.660	-0.130	-0.400	1.500
2020/01/31 15:17:20.6	95.680	-0.120	-0.430	1.420
2020/01/31 15:17:20.7	95.710	-0.110	-0.470	1.330
2020/01/31 15:17:20.8	95.740	-0.100	-0.500	1.240
2020/01/31 15:17:20.9	95.770	-0.090	-0.530	1.150
2020/01/31 15:17:21.0	95.810	-0.080	-0.560	1.060
2020/01/31 15:17:21.1	95.850	-0.080	-0.580	0.970
2020/01/31 15:17:21.2	95.880	-0.070	-0.600	0.870
2020/01/31 15:17:21.3	95.930	-0.060	-0.610	0.780
2020/01/31 15:17:21.4	95.970	-0.060	-0.620	0.690
2020/01/31 15:17:21.5	96.010	-0.060	-0.630	0.600
2020/01/31 15:17:21.6	96.050	-0.050	-0.630	0.510
2020/01/31 15:17:21.7	96.100	-0.050	-0.630	0.420
2020/01/31 15:17:21.8	96.150	-0.050	-0.620	0.330
2020/01/31 15:17:21.9	96.190	-0.050	-0.620	0.250
2020/01/31 15:17:22.0	96.240	-0.050	-0.610	0.170
2020/01/31 15:17:22.1	96.290	-0.050	-0.600	0.100
2020/01/31 15:17:22.2	96.340	-0.050	-0.580	0.020
2020/01/31 15:17:22.3	96.380	-0.060	-0.570	-0.050
2020/01/31 15:17:22.4	96.430	-0.060	-0.550	-0.110
2020/01/31 15:17:22.5	96.470	-0.060	-0.540	-0.170
2020/01/31 15:17:22.6	96.510	-0.060	-0.520	-0.230
2020/01/31 15:17:22.7	96.550	-0.060	-0.500	-0.280
2020/01/31 15:17:22.8	96.590	-0.070	-0.480	-0.330
2020/01/31 15:17:22.9	96.630	-0.070	-0.470	-0.380
2020/01/31 15:17:23.0	96.660	-0.070	-0.450	-0.420
2020/01/31 15:17:23.1	96.700	-0.070	-0.440	-0.460
2020/01/31 15:17:23.2	96.730	-0.060	-0.430	-0.500
2020/01/31 15:17:23.3	96.760	-0.060	-0.410	-0.530
2020/01/31 15:17:23.4	96.780	-0.060	-0.410	-0.560
2020/01/31 15:17:23.5	96.810	-0.050	-0.400	-0.580
2020/01/31 15:17:23.6	96.830	-0.040	-0.390	-0.610
2020/01/31 15:17:23.7	96.850	-0.040	-0.390	-0.630
2020/01/31 15:17:23.8	96.860	-0.030	-0.390	-0.650
2020/01/31 15:17:23.9	96.880	-0.020	-0.380	-0.670
2020/01/31 15:17:24.0	96.890	-0.000	-0.380	-0.680
2020/01/31 15:17:24.1	96.900	0.010	-0.380	-0.690
2020/01/31 15:17:24.2	96.910	0.020	-0.380	-0.700
2020/01/31 15:17:24.3	96.920	0.040	-0.390	-0.710
2020/01/31 15:17:24.4	96.930	0.060	-0.390	-0.710
2020/01/31 15:17:24.5	96.930	0.070	-0.390	-0.710
2020/01/31 15:17:24.6	96.930	0.090	-0.390	-0.710
2020/01/31 15:17:24.7	96.930	0.110	-0.390	-0.710
2020/01/31 15:17:24.8	96.930	0.130	-0.380	-0.700
2020/01/31 15:17:24.9	96.930	0.150	-0.380	-0.690
2020/01/31 15:17:25.0	96.920	0.170	-0.380	-0.680
2020/01/31 15:17:25.1	96.920	0.190	-0.370	-0.670
2020/01/31 15:17:25.2	96.910	0.200	-0.360	-0.650
2020/01/31 15:17:25.3	96.900	0.220	-0.350	-0.630
2020/01/31 15:17:25.4	96.890	0.240	-0.330	-0.610
2020/01/31 15:17:25.5	96.880	0.260	-0.310	-0.590
2020/01/31 15:17:25.6	96.870	0.270	-0.290	-0.560
2020/01/31 15:17:25.7	96.860	0.280	-0.260	-0.530
2020/01/31 15:17:25.8	96.840	0.300	-0.230	-0.500
2020/01/31 15:17:25.9	96.830	0.310	-0.210	-0.470
2020/01/31 15:17:26.0	96.820	0.310	-0.170	-0.430
2020/01/31 15:17:26.1	96.800	0.320	-0.140	-0.400
2020/01/31 15:17:26.2	96.790	0.320	-0.100	-0.360
2020/01/31 15:17:26.3	96.780	0.320	-0.060	-0.320
2020/01/31 15:17:26.4	96.770	0.320	-0.020	-0.280
2020/01/31 15:17:26.5	96.760	0.320	0.030	-0.240
2020/01/31 15:17:26.6	96.750	0.310	0.070	-0.190
2020/01/31 15:17:26.7	96.740	0.300	0.110	-0.150
2020/01/31 15:17:26.8	96.730	0.290	0.160	-0.110
2020/01/31 15:17:26.9	96.720	0.280	0.200	-0.070
2020/01/31 15:17:27.0	96.720	0.260	0.250	-0.030
2020/01/31 15:17:27.1	96.720	0.240	0.290	0.010
2020/01/31 15:17:27.2	96.710	0.230	0.330	0.050
2020/01/31 15:17:27.3	96.710	0.210	0.370	0.090
2020/01/31 15:17:27.4	96.710	0.180	0.400	0.130
2020/01/31 15:17:27.5	96.720	0.160	0.430	0.160
2020/01/31 15:17:27.6	96.720	0.140	0.460	0.190
2020/01/31 15:17:27.7	96.720	0.120	0.490	0.230
2020/01/31 15:17:27.8	96.730	0.090	0.510	0.260
2020/01/31 15:17:27.9	96.740	0.070	0.520	0.290
2020/01/31 15:17:28.0	96.750	0.050	0.530	0.310
2020/01/31 15:17:28.1	96.760	0.030	0.530	0.340
2020/01/31 15:17:28.2	96.770	0.010	0.530	0.360
2020/01/31 15:17:28.3	96.790	-0.010	0.530	0.380
2020/01/31 15:17:28.4	96.800	-0.030	0.510	0.400
2020/01/31 15:17:28.5	96.820	-0.040	0.490	0.420
2020/01/31 15:17:28.6	96.840	-0.060	0.470	0.440
2020/01/31 15:17:28.7	96.860	-0.070	0.440	0.450
2020/01/31 15:17:28.8	96.880	-0.070	0.400	0.460
2020/01/31 15:17:28.9	96.910	-0.080	0.360	0.470
2020/01/31 15:17:29.0	96.940	-0.080	0.310	0.480
2020/01/31 15:17:29.1	96.970	-0.080	0.260	0.480
2020/01/31 15:17:29.2	97.000	-0.080	0.210	0.480
2020/01/31 15:17:29.3	97.030	-0.070	0.150	0.480
2020/01/31 15:17:29.4	97.070	-0.060	0.080	0.480
2020/01/31 15:17:29.5	97.100	-0.050	0.020	0.480
2020/01/31 15:17:29.6	97.140	-0.030	-0.050	0.470
2020/01/31 15:17:29.7	97.180	-0.020	-0.120	0.460
2020/01/31 15:17:29.8	97.220	0.000	-0.200	0.450
2020/01/31 15:17:29.9	97.260	0.020	-0.270	0.440
2020/01/31 15:17:30.0	97.300	0.040	-0.350	0.430
2020/01/31 15:17:30.1	97.340	0.060	-0.420	0.420
2020/01/31 15:17:30.2	97.380	0.090	-0.490	0.410
2020/01/31 15:17:30.3	97.420	0.110	-0.560	0.410
2020/01/31 15:17:30.4	97.460	0.140	-0.630	0.400
2020/01/31 15:17:30.5	97.490	0.160	-0.700	0.390
2020/01/31 15:17:30.6	97.520	0.180	-0.760	0.390
2020/01/31 15:17:30.7	97.560	0.210	-0.820	0.390
2020/01/31 15:17:30.8	97.590	0.230	-0.870	0.390
2020/01/31 15:17:30.9	97.620	0.250	-0.920	0.390
2020/01/31 15:17:31.0	97.650	0.260	-0.960	0.390
2020/01/31 15:17:31.1	97.680	0.280	-1.000	0.390
2020/01/31 15:17:31.2	97.700	0.290	-1.020	0.400
2020/01/31 15:17:31.3	97.730	0.300	-1.050	0.410
2020/01/31 15:17:31.4	97.750	0.310	-1.060	0.420
2020/01/31 15:17:31.5	97.770	0.310	-1.070	0.430
2020/01/31 15:17:31.6	97.800	0.310	-1.070	0.450
2020/01/31 15:17:31.7	97.820	0.310	-1.060	0.470
2020/01/31 15:17:31.8	97.830	0.300	-1.050	0.490
2020/01/31 15:17:31.9	97.850	0.290	-1.030	0.520
2020/01/31 15:17:32.0	97.870	0.280	-1.000	0.550
2020/01/31 15:17:32.1	97.880	0.260	-0.970	0.580
2020/01/31 15:17:32.2	97.900	0.240	-0.930	0.620
2020/01/31 15:17:32.3	97.910	0.220	-0.880	0.660
2020/01/31 15:17:32.4	97.920	0.190	-0.830	0.700
2020/01/31 15:17:32.5	97.930	0.160	-0.770	0.750
2020/01/31 15:17:32.6	97.950	0.130	-0.710	0.800
2020/01/31 15:17:32.7	97.960	0.090	-0.650	0.850
2020/01/31 15:17:32.8	97.970	0.060	-0.580	0.910
2020/01/31 15:17:32.9	97.970	0.020	-0.510	0.970
2020/01/31 15:17:33.0	97.980	-0.020	-0.450	1.030
2020/01/31 15:17:33.1	97.990	-0.060	-0.380	1.090
2020/01/31 15:17:33.2	98.000	-0.100	-0.310	1.150
2020/01/31 15:17:33.3	98.000	-0.140	-0.230	1.210
2020/01/31 15:17:33.4	98.010	-0.190	-0.160	1.270
2020/01/31 15:17:33.5	98.010	-0.230	-0.090	1.320
2020/01/31 15:17:33.6	98.010	-0.270	-0.030	1.380
2020/01/31 15:17:33.7	98.020	-0.310	0.040	1.440
2020/01/31 15:17:33.8	98.030	-0.350	0.110	1.490
2020/01/31 15:17:33.9	98.030	-0.380	0.170	1.530
2020/01/31 15:17:34.0	98.040	-0.420	0.230	1.580
2020/01/31 15:17:34.1	98.040	-0.450	0.290	1.620
2020/01/31 15:17:34.2	98.050	-0.480	0.340	1.650
2020/01/31 15:17:34.3	98.050	-0.510	0.390	1.680
2020/01/31 15:17:34.4	98.060	-0.530	0.430	1.710
2020/01/31 15:17:34.5	98.060	-0.550	0.470	1.730
2020/01/31 15:17:34.6	98.070	-0.570	0.510	1.740
2020/01/31 15:17:34.7	98.080	-0.580	0.540	1.750
2020/01/31 15:17:34.8	98.080	-0.600	0.570	1.760
2020/01/31 15:17:34.9	98.080	-0.600	0.590	1.760
2020/01/31 15:17:35.0	98.090	-0.610	0.600	1.760
2020/01/31 15:17:35.1	98.090	-0.610	0.610	1.750
2020/01/31 15:17:35.2	98.090	-0.610	0.620	1.740
2020/01/31 15:17:35.3	98.100	-0.600	0.610	1.720
2020/01/31 15:17:35.4	98.100	-0.590	0.600	1.700
2020/01/31 15:17:35.5	98.100	-0.580	0.590	1.680
2020/01/31 15:17:35.6	98.110	-0.570	0.570	1.660
2020/01/31 15:17:35.7	98.110	-0.550	0.540	1.630
2020/01/31 15:17:35.8	98.110	-0.530	0.510	1.590
2020/01/31 15:17:35.9	98.110	-0.500	0.480	1.560
2020/01/31 15:17:36.0	98.110	-0.480	0.440	1.520
2020/01/31 15:17:36.1	98.110	-0.450	0.390	1.480
2020/01/31 15:17:36.2	98.110	-0.420	0.350	1.440
2020/01/31 15:17:36.3	98.110	-0.390	0.300	1.390
2020/01/31 15:17:36.4	98.110	-0.360	0.240	1.340
2020/01/31 15:17:36.5	98.120	-0.330	0.190	1.290
2020/01/31 15:17:36.6	98.130	-0.290	0.140	1.240
2020/01/31 15:17:36.7	98.140	-0.260	0.080	1.180
2020/01/31 15:17:36.8	98.140	-0.230	0.020	1.120
2020/01/31 15:17:36.9	98.150	-0.190	-0.040	1.060
2020/01/31 15:17:37.0	98.170	-0.160	-0.090	0.990
2020/01/31 15:17:37.1	98.180	-0.130	-0.150	0.930
2020/01/31 15:17:37.2	98.200	-0.100	-0.200	0.860
2020/01/31 15:17:37.3	98.210	-0.070	-0.260	0.790
2020/01/31 15:17:37.4	98.230	-0.040	-0.310	0.720
2020/01/31 15:17:37.5	98.250	-0.010	-0.350	0.650
2020/01/31 15:17:37.6	98.280	0.010	-0.400	0.580
2020/01/31 15:17:37.7	98.300	0.040	-0.440	0.510
2020/01/31 15:17:37.8	98.320	0.060	-0.480	0.440
2020/01/31 15:17:37.9	98.350	0.080	-0.510	0.360
2020/01/31 15:17:38.0	98.380	0.100	-0.540	0.290
2020/01/31 15:17:38.1	98.400	0.110	-0.560	0.220
2020/01/31 15:17:38.2	98.430	0.130	-0.590	0.150
2020/01/31 15:17:38.3	98.460	0.140	-0.610	0.080
2020/01/31 15:17:38.4	98.480	0.150	-0.620	0.010
2020/01/31 15:17:38.5	98.510	0.160	-0.630	-0.060
2020/01/31 15:17:38.6	98.540	0.170	-0.640	-0.130
2020/01/31 15:17:38.7	98.570	0.180	-0.640	-0.190
2020/01/31 15:17:38.8	98.590	0.190	-0.650	-0.260
2020/01/31 15:17:38.9	98.620	0.190	-0.650	-0.320
2020/01/31 15:17:39.0	98.640	0.200	-0.640	-0.380
2020/01/31 15:17:39.1	98.670	0.200	-0.640	-0.430
2020/01/31 15:17:39.2	98.690	0.200	-0.630	-0.490
2020/01/31 15:17:39.3	98.710	0.210	-0.620	-0.540
2020/01/31 15:17:39.4	98.730	0.210	-0.610	-0.590
2020/01/31 15:17:39.5	98.760	0.210	-0.600	-0.630
2020/01/31 15:17:39.6	98.780	0.220	-0.590	-0.680
2020/01/31 15:17:39.7	98.800	0.220	-0.570	-0.720
2020/01/31 15:17:39.8	98.820	0.220	-0.560	-0.760
2020/01/31 15:17:39.9	98.840	0.230	-0.540	-0.790
2020/01/31 15:17:40.0	98.860	0.230	-0.520	-0.830
2020/01/31 15:17:40.1	98.880	0.240	-0.510	-0.860
2020/01/31 15:17:40.2	98.900	0.240	-0.490	-0.890
2020/01/31 15:17:40.3	98.920	0.250	-0.470	-0.910
2020/01/31 15:17:40.4	98.930	0.250	-0.450	-0.930
2020/01/31 15:17:40.5	98.950	0.260	-0.440	-0.950
2020/01/31 15:17:40.6	98.970	0.260	-0.420	-0.970
2020/01/31 15:17:40.7	98.990	0.270	-0.400	-0.990
2020/01/31 15:17:40.8	99.010	0.280	-0.380	-1.000
2020/01/31 15:17:40.9	99.030	0.290	-0.370	-1.010
2020/01/31 15:17:41.0	99.050	0.290	-0.360	-1.020
2020/01/31 15:17:41.1	99.060	0.300	-0.350	-1.020
2020/01/31 15:17:41.2	99.080	0.310	-0.330	-1.020
2020/01/31 15:17:41.3	99.100	0.320	-0.320	-1.020
2020/01/31 15:17:41.4	99.120	0.320	-0.310	-1.020
2020/01/31 15:17:41.5	99.140	0.330	-0.310	-1.010
2020/01/31 15:17:41.6	99.160	0.340	-0.300	-1.000
2020/01/31 15:17:41.7	99.170	0.350	-0.300	-0.980
2020/01/31 15:17:41.8	99.190	0.350	-0.290	-0.970
2020/01/31 15:17:41.9	99.210	0.360	-0.290	-0.950
2020/01/31 15:17:42.0	99.220	0.360	-0.280	-0.930
2020/01/31 15:17:42.1	99.230	0.370	-0.280	-0.900
2020/01/31 15:17:42.2	99.250	0.370	-0.270	-0.870
2020/01/31 15:17:42.3	99.260	0.370	-0.270	-0.840
2020/01/31 15:17:42.4	99.270	0.370	-0.260	-0.800
2020/01/31 15:17:42.5	99.280	0.370	-0.250	-0.760
2020/01/31 15:17:42.6	99.300	0.370	-0.240	-0.710
2020/01/31 15:17:42.7	99.310	0.360	-0.230	-0.660
2020/01/31 15:17:42.8	99.320	0.360	-0.220	-0.610
2020/01/31 15:17:42.9	99.330	0.350	-0.210	-0.560
2020/01/31 15:17:43.0	99.330	0.340	-0.200	-0.510
2020/01/31 15:17:43.1	99.340	0.330	-0.180	-0.450
2020/01/31 15:17:43.2	99.350	0.310	-0.170	-0.390
2020/01/31 15:17:43.3	99.360	0.300	-0.150	-0.330
2020/01/31 15:17:43.4	99.370	0.280	-0.130	-0.270
2020/01/31 15:17:43.5	99.380	0.260	-0.110	-0.200
2020/01/31 15:17:43.6	99.400	0.240	-0.080	-0.130
2020/01/31 15:17:43.7	99.410	0.220	-0.060	-0.070
2020/01/31 15:17:43.8	99.420	0.190	-0.030	0.000
2020/01/31 15:17:43.9	99.430	0.160	-0.010	0.070
2020/01/31 15:17:44.0	99.440	0.130	0.020	0.140
2020/01/31 15:17:44.1	99.460	0.100	0.050	0.200
2020/01/31 15:17:44.2	99.470	0.070	0.080	0.270
2020/01/31 15:17:44.3	99.480	0.030	0.110	0.340
2020/01/31 15:17:44.4	99.500	-0.000	0.140	0.410
2020/01/31 15:17:44.5	99.510	-0.040	0.170	0.470
2020/01/31 15:17:44.6	99.530	-0.070	0.200	0.540
2020/01/31 15:17:44.7	99.550	-0.110	0.230	0.600
2020/01/31 15:17:44.8	99.560	-0.150	0.260	0.660
2020/01/31 15:17:44.9	99.580	-0.190	0.290	0.730
2020/01/31 15:17:45.0	99.590	-0.220	0.320	0.790
2020/01/31 15:17:45.1	99.610	-0.260	0.340	0.850
2020/01/31 15:17:45.2	99.630	-0.290	0.360	0.910
2020/01/31 15:17:45.3	99.640	-0.330	0.390	0.960
2020/01/31 15:17:45.4	99.660	-0.360	0.400	1.020
2020/01/31 15:17:45.5	99.680	-0.390	0.420	1.080
2020/01/31 15:17:45.6	99.700	-0.420	0.430	1.130
2020/01/31 15:17:45.7	99.720	-0.440	0.440	1.190
2020/01/31 15:17:45.8	99.740	-0.470	0.440	1.240
2020/01/31 15:17:45.9	99.760	-0.490	0.440	1.280
2020/01/31 15:17:46.0	99.780	-0.500	0.430	1.330
2020/01/31 15:17:46.1	99.800	-0.520	0.420	1.370
2020/01/31 15:17:46.2	99.830	-0.530	0.410	1.410
2020/01/31 15:17:46.3	99.850	-0.540	0.380	1.450
2020/01/31 15:17:46.4	99.880	-0.540	0.360	1.480
2020/01/31 15:17:46.5	99.900	-0.540	0.320	1.510
2020/01/31 15:17:46.6	99.930	-0.540	0.290	1.540
2020/01/31 15:17:46.7	99.960	-0.540	0.250	1.560
2020/01/31 15:17:46.8	99.990	-0.530	0.200	1.580
2020/01/31 15:17:46.9	100.020	-0.510	0.150	1.600
2020/01/31 15:17:47.0	100.050	-0.500	0.100	1.610
2020/01/31 15:17:47.1	100.080	-0.480	0.040	1.620
2020/01/31 15:17:47.2	100.120	-0.460	-0.020	1.630
2020/01/31 15:17:47.3	100.150	-0.440	-0.080	1.640
2020/01/31 15:17:47.4	100.180	-0.410	-0.140	1.650
2020/01/31 15:17:47.5	100.200	-0.380	-0.210	1.650
2020/01/31 15:17:47.6	100.240	-0.350	-0.270	1.660
2020/01/31 15:17:47.7	100.260	-0.320	-0.330	1.670
2020/01/31 15:17:47.8	100.290	-0.290	-0.390	1.670
2020/01/31 15:17:47.9	100.310	-0.260	-0.450	1.670
2020/01/31 15:17:48.0	100.340	-0.220	-0.510	1.680
2020/01/31 15:17:48.1	100.360	-0.190	-0.560	1.680
2020/01/31 15:17:48.2	100.380	-0.160	-0.610	1.680
2020/01/31 15:17:48.3	100.400	-0.120	-0.660	1.680
2020/01/31 15:17:48.4	100.420	-0.090	-0.700	1.690
2020/01/31 15:17:48.5	100.430	-0.060	-0.740	1.690
2020/01/31 15:17:48.6	100.440	-0.030	-0.770	1.690
2020/01/31 15:17:48.7	100.460	0.000	-0.800	1.690
2020/01/31 15:17:48.8	100.470	0.030	-0.820	1.690
2020/01/31 15:17:48.9	100.480	0.060	-0.840	1.690
2020/01/31 15:17:49.0	100.480	0.090	-0.850	1.690
2020/01/31 15:17:49.1	100.490	0.110	-0.860	1.690
2020/01/31 15:17:49.2	100.490	0.140	-0.860	1.680
2020/01/31 15:17:49.3	100.500	0.160	-0.860	1.680
2020/01/31 15:17:49.4	100.500	0.180	-0.850	1.670
2020/01/31 15:17:49.5	100.500	0.200	-0.840	1.660
2020/01/31 15:17:49.6	100.500	0.210	-0.820	1.650
2020/01/31 15:17:49.7	100.500	0.230	-0.800	1.640
2020/01/31 15:17:49.8	100.500	0.240	-0.780	1.630
2020/01/31 15:17:49.9	100.490	0.250	-0.760	1.610
2020/01/31 15:17:50.0	100.490	0.260	-0.730	1.590
2020/01/31 15:17:50.1	100.490	0.270	-0.700	1.560
2020/01/31 15:17:50.2	100.490	0.280	-0.670	1.540
2020/01/31 15:17:50.3	100.490	0.290	-0.640	1.510
2020/01/31 15:17:50.4	100.490	0.290	-0.600	1.470
2020/01/31 15:17:50.5	100.490	0.300	-0.570	1.430
2020/01/31 15:17:50.6	100.490	0.300	-0.530	1.390
2020/01/31 15:17:50.7	100.500	0.300	-0.500	1.350
2020/01/31 15:17:50.8	100.500	0.300	-0.460	1.300
2020/01/31 15:17:50.9	100.510	0.300	-0.420	1.250
2020/01/31 15:17:51.0	100.520	0.300	-0.390	1.190
2020/01/31 15:17:51.1	100.530	0.300	-0.350	1.140
2020/01/31 15:17:51.2	100.540	0.300	-0.320	1.080
2020/01/31 15:17:51.3	100.550	0.290	-0.280	1.010
2020/01/31 15:17:51.4	100.560	0.290	-0.250	0.950
2020/01/31 15:17:51.5	100.580	0.280	-0.210	0.880
2020/01/31 15:17:51.6	100.600	0.280	-0.180	0.810
2020/01/31 15:17:51.7	100.610	0.270	-0.140	0.740
2020/01/31 15:17:51.8	100.630	0.260	-0.110	0.670
2020/01/31 15:17:51.9	100.650	0.250	-0.070	0.600
2020/01/31 15:17:52.0	100.670	0.240	-0.040	0.530
2020/01/31 15:17:52.1	100.690	0.230	-0.010	0.460
2020/01/31 15:17:52.2	100.710	0.220	0.020	0.390
2020/01/31 15:17:52.3	100.730	0.210	0.060	0.310
2020/01/31 15:17:52.4	100.750	0.200	0.090	0.240
2020/01/31 15:17:52.5	100.770	0.180	0.120	0.170
2020/01/31 15:17:52.6	100.790	0.170	0.150	0.100
2020/01/31 15:17:52.7	100.800	0.150	0.180	0.030
2020/01/31 15:17:52.8	100.820	0.140	0.210	-0.040
2020/01/31 15:17:52.9	100.840	0.120	0.230	-0.110
2020/01/31 15:17:53.0	100.870	0.110	0.260	-0.180
2020/01/31 15:17:53.1	100.890	0.090	0.280	-0.250
2020/01/31 15:17:53.2	100.910	0.070	0.300	-0.310
2020/01/31 15:17:53.3	100.930	0.050	0.320	-0.380
2020/01/31 15:17:53.4	100.950	0.040	0.330	-0.440
2020/01/31 15:17:53.5	100.980	0.020	0.340	-0.510
2020/01/31 15:17:53.6	101.010	0.000	0.350	-0.570
2020/01/31 15:17:53.7	101.030	-0.020	0.360	-0.630
2020/01/31 15:17:53.8	101.060	-0.040	0.360	-0.690
2020/01/31 15:17:53.9	101.090	-0.050	0.360	-0.750
2020/01/31 15:17:54.0	101.120	-0.070	0.350	-0.800
2020/01/31 15:17:54.1	101.150	-0.090	0.350	-0.860
2020/01/31 15:17:54.2	101.190	-0.100	0.330	-0.910
2020/01/31 15:17:54.3	101.220	-0.120	0.320	-0.960
2020/01/31 15:17:54.4	101.260	-0.130	0.300	-1.000
2020/01/31 15:17:54.5	101.290	-0.150	0.280	-1.040
2020/01/31 15:17:54.6	101.330	-0.160	0.250	-1.080
2020/01/31 15:17:54.7	101.360	-0.170	0.220	-1.120
2020/01/31 15:17:54.8	101.400	-0.180	0.190	-1.150
2020/01/31 15:17:54.9	101.440	-0.190	0.160	-1.180
2020/01/31 15:17:55.0	101.470	-0.200	0.120	-1.200
2020/01/31 15:17:55.1	101.500	-0.210	0.070	-1.220
2020/01/31 15:17:55.2	101.540	-0.220	0.030	-1.230
2020/01/31 15:17:55.3	101.570	-0.220	-0.020	-1.240
2020/01/31 15:17:55.4	101.600	-0.230	-0.060	-1.250
2020/01/31 15:17:55.5	101.630	-0.230	-0.110	-1.240
2020/01/31 15:17:55.6	101.650	-0.230	-0.160	-1.230
2020/01/31 15:17:55.7	101.670	-0.240	-0.210	-1.220
2020/01/31 15:17:55.8	101.700	-0.240	-0.260	-1.200
2020/01/31 15:17:55.9	101.720	-0.240	-0.310	-1.180
2020/01/31 15:17:56.0	101.730	-0.240	-0.360	-1.150
2020/01/31 15:17:56.1	101.750	-0.240	-0.410	-1.110
2020/01/31 15:17:56.2	101.760	-0.240	-0.450	-1.070
2020/01/31 15:17:56.3	101.770	-0.240	-0.500	-1.030
2020/01/31 15:17:56.4	101.780	-0.240	-0.540	-0.980
2020/01/31 15:17:56.5	101.790	-0.240	-0.570	-0.930
2020/01/31 15:17:56.6	101.800	-0.240	-0.600	-0.870
2020/01/31 15:17:56.7	101.800	-0.230	-0.630	-0.810
2020/01/31 15:17:56.8	101.810	-0.230	-0.660	-0.740
2020/01/31 15:17:56.9	101.810	-0.230	-0.680	-0.680
2020/01/31 15:17:57.0	101.810	-0.230	-0.690	-0.610
2020/01/31 15:17:57.1	101.820	-0.230	-0.700	-0.540
2020/01/31 15:17:57.2	101.820	-0.230	-0.710	-0.470
2020/01/31 15:17:57.3	101.820	-0.230	-0.710	-0.390
2020/01/31 15:17:57.4	101.820	-0.230	-0.700	-0.320
2020/01/31 15:17:57.5	101.820	-0.230	-0.690	-0.240
2020/01/31 15:17:57.6	101.830	-0.230	-0.670	-0.160
2020/01/31 15:17:57.7	101.830	-0.230	-0.650	-0.080
2020/01/31 15:17:57.8	101.840	-0.230	-0.620	-0.000
2020/01/31 15:17:57.9	101.840	-0.230	-0.590	0.070
2020/01/31 15:17:58.0	101.840	-0.230	-0.560	0.150
2020/01/31 15:17:58.1	101.850	-0.230	-0.520	0.220
2020/01/31 15:17:58.2	101.850	-0.230	-0.480	0.290
2020/01/31 15:17:58.3	101.860	-0.230	-0.430	0.370
2020/01/31 15:17:58.4	101.860	-0.230	-0.390	0.440
2020/01/31 15:17:58.5	101.870	-0.230	-0.340	0.510
2020/01/31 15:17:58.6	101.880	-0.230	-0.300	0.570
2020/01/31 15:17:58.7	101.890	-0.230	-0.250	0.640
2020/01/31 15:17:58.8	101.890	-0.230	-0.200	0.710
2020/01/31 15:17:58.9	101.900	-0.230	-0.150	0.780
2020/01/31 15:17:59.0	101.900	-0.230	-0.110	0.840
2020/01/31 15:17:59.1	101.910	-0.220	-0.070	0.910
2020/01/31 15:17:59.2	101.920	-0.220	-0.030	0.970
2020/01/31 15:17:59.3	101.920	-0.210	0.010	1.030
2020/01/31 15:17:59.4	101.930	-0.200	0.050	1.090
2020/01/31 15:17:59.5	101.930	-0.190	0.080	1.150
2020/01/31 15:17:59.6	101.940	-0.180	0.100	1.210
2020/01/31 15:17:59.7	101.950	-0.170	0.130	1.270
2020/01/31 15:17:59.8	101.950	-0.150	0.140	1.320
2020/01/31 15:17:59.9	101.960	-0.130	0.150	1.370
2020/01/31 15:18:00.0	101.970	-0.110	0.160	1.420
2020/01/31 15:18:00.1	101.970	-0.090	0.170	1.460
2020/01/31 15:18:00.2	101.980	-0.070	0.160	1.500
2020/01/31 15:18:00.3	101.990	-0.040	0.160	1.530
2020/01/31 15:18:00.4	102.000	-0.010	0.150	1.570
2020/01/31 15:18:00.5	102.020	0.020	0.130	1.590
2020/01/31 15:18:00.6	102.040	0.050	0.120	1.610
2020/01/31 15:18:00.7	102.050	0.080	0.100	1.630
2020/01/31 15:18:00.8	102.070	0.120	0.070	1.640
2020/01/31 15:18:00.9	102.090	0.150	0.040	1.650
2020/01/31 15:18:01.0	102.110	0.190	0.010	1.650
2020/01/31 15:18:01.1	102.130	0.230	-0.020	1.640
2020/01/31 15:18:01.2	102.160	0.260	-0.050	1.630
2020/01/31 15:18:01.3	102.180	0.300	-0.090	1.620
2020/01/31 15:18:01.4	102.210	0.340	-0.120	1.600
2020/01/31 15:18:01.5	102.230	0.380	-0.160	1.580
2020/01/31 15:18:01.6	102.270	0.410	-0.190	1.560
2020/01/31 15:18:01.7	102.300	0.450	-0.230	1.530
2020/01/31 15:18:01.8	102.330	0.480	-0.260	1.500
2020/01/31 15:18:01.9	102.360	0.510	-0.290	1.460
2020/01/31 15:18:02.0	102.400	0.540	-0.320	1.420
2020/01/31 15:18:02.1	102.430	0.570	-0.350	1.380
2020/01/31 15:18:02.2	102.460	0.600	-0.380	1.330
2020/01/31 15:18:02.3	102.490	0.620	-0.410	1.290
2020/01/31 15:18:02.4	102.520	0.640	-0.430	1.240
2020/01/31 15:18:02.5	102.550	0.660	-0.450	1.190
2020/01/31 15:18:02.6	102.580	0.680	-0.470	1.130
2020/01/31 15:18:02.7	102.610	0.690	-0.490	1.080
2020/01/31 15:18:02.8	102.650	0.700	-0.500	1.030
2020/01/31 15:18:02.9	102.680	0.710	-0.520	0.980
2020/01/31 15:18:03.0	102.710	0.710	-0.530	0.920
2020/01/31 15:18:03.1	102.740	0.710	-0.540	0.870
2020/01/31 15:18:03.2	102.770	0.710	-0.540	0.820
2020/01/31 15:18:03.3	102.810	0.710	-0.540	0.760
2020/01/31 15:18:03.4	102.840	0.700	-0.540	0.710
2020/01/31 15:18:03.5	102.870	0.690	-0.540	0.660
2020/01/31 15:18:03.6	102.900	0.670	-0.530	0.610
2020/01/31 15:18:03.7	102.940	0.660	-0.530	0.570
2020/01/31 15:18:03.8	102.970	0.640	-0.510	0.520
2020/01/31 15:18:03.9	103.000	0.610	-0.500	0.470
2020/01/31 15:18:04.0	103.040	0.590	-0.480	0.430
2020/01/31 15:18:04.1	103.070	0.560	-0.460	0.390
2020/01/31 15:18:04.2	103.100	0.530	-0.440	0.350
2020/01/31 15:18:04.3	103.130	0.500	-0.410	0.320
2020/01/31 15:18:04.4	103.170	0.460	-0.380	0.290
2020/01/31 15:18:04.5	103.200	0.420	-0.350	0.260
2020/01/31 15:18:04.6	103.220	0.380	-0.310	0.230
2020/01/31 15:18:04.7	103.250	0.340	-0.280	0.210
2020/01/31 15:18:04.8	103.280	0.300	-0.240	0.200
2020/01/31 15:18:04.9	103.310	0.260	-0.200	0.190
2020/01/31 15:18:05.0	103.330	0.210	-0.160	0.180
2020/01/31 15:18:05.1	103.360	0.170	-0.110	0.170
2020/01/31 15:18:05.2	103.380	0.120	-0.070	0.170
2020/01/31 15:18:05.3	103.400	0.070	-0.020	0.170
2020/01/31 15:18:05.4	103.410	0.030	0.020	0.180
2020/01/31 15:18:05.5	103.430	-0.020	0.070	0.190
2020/01/31 15:18:05.6	103.450	-0.070	0.120	0.210
2020/01/31 15:18:05.7	103.460	-0.120	0.160	0.230
2020/01/31 15:18:05.8	103.470	-0.160	0.200	0.250
2020/01/31 15:18:05.9	103.470	-0.210	0.240	0.270
2020/01/31 15:18:06.0	103.480	-0.260	0.280	0.300
2020/01/31 15:18:06.1	103.480	-0.300	0.320	0.330
2020/01/31 15:18:06.2	103.480	-0.340	0.350	0.360
2020/01/31 15:18:06.3	103.480	-0.390	0.380	0.390
2020/01/31 15:18:06.4	103.480	-0.430	0.410	0.420
2020/01/31 15:18:06.5	103.470	-0.470	0.430	0.450
2020/01/31 15:18:06.6	103.470	-0.500	0.440	0.480
2020/01/31 15:18:06.7	103.460	-0.540	0.460	0.510
2020/01/31 15:18:06.8	103.450	-0.570	0.470	0.540
2020/01/31 15:18:06.9	103.440	-0.610	0.470	0.570
2020/01/31 15:18:07.0	103.430	-0.640	0.470	0.600
2020/01/31 15:18:07.1	103.430	-0.660	0.470	0.620
2020/01/31 15:18:07.2	103.420	-0.690	0.460	0.640
2020/01/31 15:18:07.3	103.410	-0.710	0.440	0.660
2020/01/31 15:18:07.4	103.400	-0.730	0.430	0.680
2020/01/31 15:18:07.5	103.400	-0.750	0.400	0.690
2020/01/31 15:18:07.6	103.400	-0.760	0.380	0.700
2020/01/31 15:18:07.7	103.390	-0.770	0.350	0.710
2020/01/31 15:18:07.8	103.390	-0.780	0.310	0.710
2020/01/31 15:18:07.9	103.390	-0.790	0.270	0.710
2020/01/31 15:18:08.0	103.390	-0.790	0.220	0.710
2020/01/31 15:18:08.1	103.390	-0.790	0.180	0.700
2020/01/31 15:18:08.2	103.400	-0.780	0.130	0.700
2020/01/31 15:18:08.3	103.400	-0.780	0.070	0.690
2020/01/31 15:18:08.4	103.410	-0.760	0.020	0.680
2020/01/31 15:18:08.5	103.420	-0.750	-0.040	0.660
2020/01/31 15:18:08.6	103.430	-0.730	-0.100	0.650
2020/01/31 15:18:08.7	103.440	-0.710	-0.160	0.630
2020/01/31 15:18:08.8	103.460	-0.690	-0.220	0.620
2020/01/31 15:18:08.9	103.470	-0.660	-0.280	0.600
2020/01/31 15:18:09.0	103.490	-0.630	-0.340	0.580
2020/01/31 15:18:09.1	103.510	-0.600	-0.390	0.560
2020/01/31 15:18:09.2	103.530	-0.560	-0.450	0.540
2020/01/31 15:18:09.3	103.560	-0.530	-0.500	0.520
2020/01/31 15:18:09.4	103.580	-0.490	-0.550	0.500
2020/01/31 15:18:09.5	103.600	-0.450	-0.600	0.490
2020/01/31 15:18:09.6	103.630	-0.400	-0.650	0.460
2020/01/31 15:18:09.7	103.650	-0.360	-0.690	0.450
2020/01/31 15:18:09.8	103.680	-0.310	-0.730	0.430
2020/01/31 15:18:09.9	103.710	-0.270	-0.760	0.410
2020/01/31 15:18:10.0	103.740	-0.220	-0.790	0.400
2020/01/31 15:18:10.1	103.760	-0.170	-0.820	0.380
2020/01/31 15:18:10.2	103.790	-0.120	-0.840	0.370
2020/01/31 15:18:10.3	103.820	-0.080	-0.860	0.360
2020/01/31 15:18:10.4	103.850	-0.030	-0.870	0.340
2020/01/31 15:18:10.5	103.880	0.020	-0.870	0.330
2020/01/31 15:18:10.6	103.900	0.060	-0.870	0.330
2020/01/31 15:18:10.7	103.930	0.100	-0.870	0.310
2020/01/31 15:18:10.8	103.960	0.150	-0.860	0.300
2020/01/31 15:18:10.9	103.980	0.190	-0.850	0.290
2020/01/31 15:18:11.0	104.010	0.220	-0.830	0.280
2020/01/31 15:18:11.1	104.040	0.260	-0.810	0.270
2020/01/31 15:18:11.2	104.060	0.290	-0.790	0.250
2020/01/31 15:18:11.3	104.080	0.320	-0.760	0.240
2020/01/31 15:18:11.4	104.110	0.350	-0.730	0.220
2020/01/31 15:18:11.5	104.130	0.380	-0.690	0.200
2020/01/31 15:18:11.6	104.150	0.400	-0.650	0.180
2020/01/31 15:18:11.7	104.170	0.420	-0.610	0.160
2020/01/31 15:18:11.8	104.190	0.440	-0.570	0.140
2020/01/31 15:18:11.9	104.220	0.450	-0.520	0.110
2020/01/31 15:18:12.0	104.240	0.460	-0.470	0.080
2020/01/31 15:18:12.1	104.260	0.470	-0.430	0.050
2020/01/31 15:18:12.2	104.280	0.470	-0.380	0.020
2020/01/31 15:18:12.3	104.290	0.470	-0.330	-0.020
2020/01/31 15:18:12.4	104.310	0.470	-0.280	-0.050
2020/01/31 15:18:12.5	104.330	0.470	-0.240	-0.090
2020/01/31 15:18:12.6	104.350	0.460	-0.190	-0.130
2020/01/31 15:18:12.7	104.370	0.460	-0.150	-0.170
2020/01/31 15:18:12.8	104.390	0.450	-0.100	-0.200
2020/01/31 15:18:12.9	104.400	0.440	-0.060	-0.240
2020/01/31 15:18:13.0	104.420	0.420	-0.030	-0.280
2020/01/31 15:18:13.1	104.430	0.410	0.010	-0.310
2020/01/31 15:18:13.2	104.450	0.390	0.040	-0.340
2020/01/31 15:18:13.3	104.460	0.380	0.060	-0.370
2020/01/31 15:18:13.4	104.480	0.360	0.090	-0.400
2020/01/31 15:18:13.5	104.490	0.340	0.110	-0.420
2020/01/31 15:18:13.6	104.500	0.320	0.120	-0.440
2020/01/31 15:18:13.7	104.520	0.310	0.140	-0.460
2020/01/31 15:18:13.8	104.530	0.290	0.140	-0.470
2020/01/31 15:18:13.9	104.540	0.270	0.150	-0.470
2020/01/31 15:18:14.0	104.550	0.250	0.150	-0.480
2020/01/31 15:18:14.1	104.560	0.240	0.150	-0.480
2020/01/31 15:18:14.2	104.570	0.220	0.140	-0.470
2020/01/31 15:18:14.3	104.580	0.210	0.140	-0.460
2020/01/31 15:18:14.4	104.600	0.190	0.130	-0.450
2020/01/31 15:18:14.5	104.610	0.180	0.110	-0.440
2020/01/31 15:18:14.6	104.620	0.170	0.100	-0.410
2020/01/31 15:18:14.7	104.630	0.150	0.090	-0.390
2020/01/31 15:18:14.8	104.640	0.140	0.070	-0.360
2020/01/31 15:18:14.9	104.660	0.130	0.050	-0.330
2020/01/31 15:18:15.0	104.670	0.130	0.030	-0.300
2020/01/31 15:18:15.1	104.680	0.120	0.010	-0.260
2020/01/31 15:18:15.2	104.690	0.110	-0.010	-0.220
2020/01/31 15:18:15.3	104.710	0.100	-0.030	-0.170
2020/01/31 15:18:15.4	104.720	0.100	-0.050	-0.130
2020/01/31 15:18:15.5	104.730	0.090	-0.070	-0.080
2020/01/31 15:18:15.6	104.750	0.080	-0.100	-0.030
2020/01/31 15:18:15.7	104.760	0.080	-0.120	0.020
2020/01/31 15:18:15.8	104.780	0.070	-0.140	0.070
2020/01/31 15:18:15.9	104.790	0.070	-0.160	0.130
2020/01/31 15:18:16.0	104.810	0.060	-0.170	0.180
2020/01/31 15:18:16.1	104.830	0.050	-0.190	0.230
2020/01/31 15:18:16.2	104.850	0.040	-0.200	0.280
2020/01/31 15:18:16.3	104.870	0.030	-0.210	0.330
2020/01/31 15:18:16.4	104.890	0.030	-0.220	0.370
2020/01/31 15:18:16.5	104.910	0.010	-0.220	0.420
2020/01/31 15:18:16.6	104.930	0.000	-0.220	0.460
2020/01/31 15:18:16.7	104.950	-0.010	-0.220	0.510
2020/01/31 15:18:16.8	104.970	-0.020	-0.210	0.550
2020/01/31 15:18:16.9	104.990	-0.030	-0.200	0.580
2020/01/31 15:18:17.0	105.020	-0.050	-0.190	0.620
2020/01/31 15:18:17.1	105.040	-0.060	-0.180	0.650
2020/01/31 15:18:17.2	105.060	-0.080	-0.160	0.680
2020/01/31 15:18:17.3	105.090	-0.100	-0.150	0.710
2020/01/31 15:18:17.4	105.110	-0.110	-0.120	0.730
2020/01/31 15:18:17.5	105.130	-0.130	-0.100	0.760
2020/01/31 15:18:17.6	105.150	-0.140	-0.080	0.780
2020/01/31 15:18:17.7	105.180	-0.160	-0.050	0.800
2020/01/31 15:18:17.8	105.200	-0.180	-0.030	0.820
2020/01/31 15:18:17.9	105.210	-0.190	-0.000	0.840
2020/01/31 15:18:18.0	105.230	-0.200	0.020	0.860
2020/01/31 15:18:18.1	105.250	-0.210	0.040	0.870
2020/01/31 15:18:18.2	105.270	-0.220	0.070	0.890
2020/01/31 15:18:18.3	105.280	-0.230	0.090	0.900
2020/01/31 15:18:18.4	105.300	-0.240	0.100	0.910
2020/01/31 15:18:18.5	105.310	-0.250	0.120	0.930
2020/01/31 15:18:18.6	105.320	-0.250	0.130	0.940
2020/01/31 15:18:18.7	105.330	-0.250	0.140	0.950
2020/01/31 15:18:18.8	105.340	-0.250	0.140	0.960
2020/01/31 15:18:18.9	105.350	-0.250	0.140	0.980
2020/01/31 15:18:19.0	105.360	-0.240	0.140	0.990
2020/01/31 15:18:19.1	105.370	-0.230	0.130	1.000
2020/01/31 15:18:19.2	105.380	-0.220	0.120	1.010
2020/01/31 15:18:19.3	105.390	-0.210	0.100	1.020
2020/01/31 15:18:19.4	105.400	-0.200	0.080	1.040
2020/01/31 15:18:19.5	105.400	-0.180	0.060	1.050
2020/01/31 15:18:19.6	105.420	-0.160	0.030	1.060
2020/01/31 15:18:19.7	105.420	-0.140	0.000	1.080
2020/01/31 15:18:19.8	105.430	-0.120	-0.030	1.090
2020/01/31 15:18:19.9	105.440	-0.100	-0.070	1.100
2020/01/31 15:18:20.0	105.440	-0.080	-0.100	1.110
2020/01/31 15:18:20.1	105.450	-0.060	-0.140	1.120
2020/01/31 15:18:20.2	105.460	-0.030	-0.180	1.130
2020/01/31 15:18:20.3	105.470	-0.010	-0.230	1.140
2020/01/31 15:18:20.4	105.480	0.020	-0.270	1.150
2020/01/31 15:18:20.5	105.490	0.040	-0.310	1.160
2020/01/31 15:18:20.6	105.510	0.060	-0.350	1.170
2020/01/31 15:18:20.7	105.520	0.090	-0.390	1.170
2020/01/31 15:18:20.8	105.540	0.110	-0.430	1.170
2020/01/31 15:18:20.9	105.560	0.130	-0.470	1.170
2020/01/31 15:18:21.0	105.570	0.150	-0.510	1.170
2020/01/31 15:18:21.1	105.590	0.170	-0.540	1.170
2020/01/31 15:18:21.2	105.610	0.190	-0.580	1.170
2020/01/31 15:18:21.3	105.630	0.200	-0.610	1.160
2020/01/31 15:18:21.4	105.650	0.210	-0.630	1.150
2020/01/31 15:18:21.5	105.680	0.230	-0.650	1.140
2020/01/31 15:18:21.6	105.700	0.240	-0.670	1.120
2020/01/31 15:18:21.7	105.730	0.240	-0.690	1.110
2020/01/31 15:18:21.8	105.750	0.250	-0.700	1.090
2020/01/31 15:18:21.9	105.780	0.250	-0.700	1.070
2020/01/31 15:18:22.0	105.800	0.260	-0.700	1.050
2020/01/31 15:18:22.1	105.820	0.260	-0.700	1.030
2020/01/31 15:18:22.2	105.850	0.250	-0.700	1.000
2020/01/31 15:18:22.3	105.870	0.250	-0.690	0.980
2020/01/31 15:18:22.4	105.890	0.240	-0.670	0.950
2020/01/31 15:18:22.5	105.920	0.230	-0.650	0.920
2020/01/31 15:18:22.6	105.940	0.220	-0.630	0.890
2020/01/31 15:18:22.7	105.960	0.210	-0.610	0.860
2020/01/31 15:18:22.8	105.980	0.200	-0.580	0.830
2020/01/31 15:18:22.9	105.990	0.180	-0.550	0.800
2020/01/31 15:18:23.0	106.010	0.170	-0.520	0.760
2020/01/31 15:18:23.1	106.020	0.150	-0.480	0.730
2020/01/31 15:18:23.2	106.040	0.130	-0.440	0.700
2020/01/31 15:18:23.3	106.050	0.110	-0.410	0.660
2020/01/31 15:18:23.4	106.060	0.090	-0.370	0.630
2020/01/31 15:18:23.5	106.070	0.070	-0.330	0.590
2020/01/31 15:18:23.6	106.070	0.050	-0.280	0.550
2020/01/31 15:18:23.7	106.080	0.030	-0.240	0.520
2020/01/31 15:18:23.8	106.080	0.010	-0.200	0.490
2020/01/31 15:18:23.9	106.090	-0.020	-0.160	0.450
2020/01/31 15:18:24.0	106.090	-0.040	-0.120	0.420
2020/01/31 15:18:24.1	106.100	-0.060	-0.080	0.390
2020/01/31 15:18:24.2	106.100	-0.080	-0.040	0.360
2020/01/31 15:18:24.3	106.100	-0.100	-0.000	0.330
2020/01/31 15:18:24.4	106.110	-0.120	0.030	0.300
2020/01/31 15:18:24.5	106.110	-0.140	0.070	0.270
2020/01/31 15:18:24.6	106.100	-0.160	0.100	0.240
2020/01/31 15:18:24.7	106.100	-0.170	0.130	0.210
2020/01/31 15:18:24.8	106.110	-0.190	0.170	0.190
2020/01/31 15:18:24.9	106.110	-0.210	0.200	0.160
2020/01/31 15:18:25.0	106.110	-0.220	0.220	0.130
2020/01/31 15:18:25.1	106.120	-0.230	0.250	0.110
2020/01/31 15:18:25.2	106.120	-0.240	0.270	0.080
2020/01/31 15:18:25.3	106.130	-0.250	0.290	0.060
2020/01/31 15:18:25.4	106.130	-0.260	0.310	0.030
2020/01/31 15:18:25.5	106.140	-0.270	0.320	0.010
2020/01/31 15:18:25.6	106.150	-0.280	0.340	-0.010
2020/01/31 15:18:25.7	106.160	-0.280	0.350	-0.040
2020/01/31 15:18:25.8	106.170	-0.290	0.350	-0.060
2020/01/31 15:18:25.9	106.180	-0.290	0.350	-0.090
2020/01/31 15:18:26.0	106.190	-0.290	0.350	-0.110
2020/01/31 15:18:26.1	106.200	-0.290	0.340	-0.130
2020/01/31 15:18:26.2	106.220	-0.290	0.330	-0.150
2020/01/31 15:18:26.3	106.230	-0.290	0.320	-0.180
2020/01/31 15:18:26.4	106.250	-0.290	0.310	-0.200
2020/01/31 15:18:26.5	106.270	-0.290	0.290	-0.220
2020/01/31 15:18:26.6	106.290	-0.280	0.270	-0.240
2020/01/31 15:18:26.7	106.310	-0.280	0.240	-0.270
2020/01/31 15:18:26.8	106.330	-0.270	0.220	-0.290
2020/01/31 15:18:26.9	106.360	-0.270	0.190	-0.310
2020/01/31 15:18:27.0	106.390	-0.260	0.170	-0.330
2020/01/31 15:18:27.1	106.420	-0.250	0.140	-0.350
2020/01/31 15:18:27.2	106.450	-0.250	0.110	-0.370
2020/01/31 15:18:27.3	106.480	-0.240	0.080	-0.390
2020/01/31 15:18:27.4	106.510	-0.240	0.050	-0.410
2020/01/31 15:18:27.5	106.550	-0.230	0.020	-0.420
2020/01/31 15:18:27.6	106.580	-0.220	-0.010	-0.430
2020/01/31 15:18:27.7	106.620	-0.210	-0.040	-0.450
2020/01/31 15:18:27.8	106.660	-0.210	-0.070	-0.460
2020/01/31 15:18:27.9	106.690	-0.200	-0.100	-0.470
2020/01/31 15:18:28.0	106.730	-0.190	-0.130	-0.480
2020/01/31 15:18:28.1	106.760	-0.190	-0.160	-0.480
2020/01/31 15:18:28.2	106.800	-0.180	-0.190	-0.490
2020/01/31 15:18:28.3	106.830	-0.170	-0.220	-0.490
2020/01/31 15:18:28.4	106.870	-0.160	-0.250	-0.480
2020/01/31 15:18:28.5	106.900	-0.150	-0.280	-0.480
2020/01/31 15:18:28.6	106.940	-0.140	-0.310	-0.470
2020/01/31 15:18:28.7	106.970	-0.130	-0.340	-0.460
2020/01/31 15:18:28.8	107.000	-0.120	-0.360	-0.440
2020/01/31 15:18:28.9	107.030	-0.110	-0.390	-0.420
2020/01/31 15:18:29.0	107.060	-0.100	-0.420	-0.400
2020/01/31 15:18:29.1	107.090	-0.090	-0.450	-0.370
2020/01/31 15:18:29.2	107.110	-0.070	-0.480	-0.340
2020/01/31 15:18:29.3	107.130	-0.060	-0.500	-0.310
2020/01/31 15:18:29.4	107.150	-0.040	-0.530	-0.270
2020/01/31 15:18:29.5	107.160	-0.030	-0.560	-0.220
2020/01/31 15:18:29.6	107.190	-0.010	-0.580	-0.170
2020/01/31 15:18:29.7	107.200	0.010	-0.600	-0.120
2020/01/31 15:18:29.8	107.210	0.030	-0.630	-0.070
2020/01/31 15:18:29.9	107.210	0.050	-0.650	-0.020
2020/01/31 15:18:30.0	107.220	0.070	-0.680	0.040
2020/01/31 15:18:30.1	107.220	0.090	-0.700	0.100
2020/01/31 15:18:30.2	107.210	0.110	-0.720	0.150
2020/01/31 15:18:30.3	107.210	0.140	-0.740	0.210
2020/01/31 15:18:30.4	107.200	0.160	-0.760	0.270
2020/01/31 15:18:30.5	107.190	0.180	-0.780	0.330
2020/01/31 15:18:30.6	107.180	0.210	-0.800	0.390
2020/01/31 15:18:30.7	107.170	0.230	-0.810	0.440
2020/01/31 15:18:30.8	107.160	0.260	-0.820	0.500
2020/01/31 15:18:30.9	107.140	0.280	-0.830	0.560
2020/01/31 15:18:31.0	107.130	0.300	-0.830	0.610
2020/01/31 15:18:31.1	107.110	0.330	-0.840	0.660
2020/01/31 15:18:31.2	107.090	0.350	-0.830	0.710
2020/01/31 15:18:31.3	107.080	0.380	-0.830	0.760
2020/01/31 15:18:31.4	107.060	0.400	-0.820	0.800
2020/01/31 15:18:31.5	107.050	0.420	-0.810	0.840
2020/01/31 15:18:31.6	107.030	0.440	-0.780	0.890
2020/01/31 15:18:31.7	107.020	0.460	-0.760	0.920
2020/01/31 15:18:31.8	107.010	0.480	-0.740	0.960
2020/01/31 15:18:31.9	107.000	0.490	-0.710	0.990
2020/01/31 15:18:32.0	106.990	0.510	-0.670	1.020
2020/01/31 15:18:32.1	106.980	0.520	-0.630	1.040
2020/01/31 15:18:32.2	106.980	0.530	-0.590	1.070
2020/01/31 15:18:32.3	106.980	0.530	-0.540	1.090
2020/01/31 15:18:32.4	106.970	0.540	-0.490	1.110
2020/01/31 15:18:32.5	106.980	0.540	-0.440	1.120
2020/01/31 15:18:32.6	106.980	0.540	-0.380	1.140
2020/01/31 15:18:32.7	106.980	0.540	-0.320	1.150
2020/01/31 15:18:32.8	106.990	0.530	-0.260	1.160
2020/01/31 15:18:32.9	107.000	0.520	-0.190	1.160
2020/01/31 15:18:33.0	107.010	0.510	-0.120	1.170
2020/01/31 15:18:33.1	107.020	0.500	-0.050	1.170
2020/01/31 15:18:33.2	107.040	0.480	0.010	1.170
2020/01/31 15:18:33.3	107.050	0.460	0.080	1.170
2020/01/31 15:18:33.4	107.070	0.430	0.150	1.170
2020/01/31 15:18:33.5	107.090	0.410	0.220	1.170
2020/01/31 15:18:33.6	107.100	0.380	0.290	1.160
2020/01/31 15:18:33.7	107.130	0.350	0.360	1.160
2020/01/31 15:18:33.8	107.150	0.320	0.420	1.150
2020/01/31 15:18:33.9	107.180	0.290	0.480	1.140
2020/01/31 15:18:34.0	107.210	0.250	0.530	1.130
2020/01/31 15:18:34.1	107.240	0.220	0.590	1.130
2020/01/31 15:18:34.2	107.270	0.180	0.630	1.120
2020/01/31 15:18:34.3	107.300	0.140	0.680	1.100
2020/01/31 15:18:34.4	107.330	0.100	0.710	1.090
2020/01/31 15:18:34.5	107.370	0.060	0.750	1.080
2020/01/31 15:18:34.6	107.400	0.020	0.770	1.070
2020/01/31 15:18:34.7	107.440	-0.010	0.800	1.060
2020/01/31 15:18:34.8	107.480	-0.050	0.810	1.040
2020/01/31 15:18:34.9	107.510	-0.090	0.820	1.020
2020/01/31 15:18:35.0	107.550	-0.130	0.820	1.010
2020/01/31 15:18:35.1	107.590	-0.170	0.820	0.990
2020/01/31 15:18:35.2	107.620	-0.200	0.820	0.970
2020/01/31 15:18:35.3	107.660	-0.230	0.800	0.940
2020/01/31 15:18:35.4	107.690	-0.270	0.780	0.920
2020/01/31 15:18:35.5	107.730	-0.300	0.760	0.900
2020/01/31 15:18:35.6	107.770	-0.320	0.730	0.870
2020/01/31 15:18:35.7	107.800	-0.350	0.690	0.840
2020/01/31 15:18:35.8	107.830	-0.370	0.650	0.810
2020/01/31 15:18:35.9	107.870	-0.390	0.610	0.790
2020/01/31 15:18:36.0	107.900	-0.410	0.560	0.760
2020/01/31 15:18:36.1	107.920	-0.430	0.510	0.730
2020/01/31 15:18:36.2	107.950	-0.440	0.450	0.710
2020/01/31 15:18:36.3	107.980	-0.450	0.390	0.680
2020/01/31 15:18:36.4	108.000	-0.450	0.320	0.650
2020/01/31 15:18:36.5	108.020	-0.450	0.260	0.630
2020/01/31 15:18:36.6	108.040	-0.450	0.190	0.610
2020/01/31 15:18:36.7	108.060	-0.450	0.120	0.580
2020/01/31 15:18:36.8	108.070	-0.450	0.040	0.560
2020/01/31 15:18:36.9	108.080	-0.440	-0.030	0.540
2020/01/31 15:18:37.0	108.090	-0.430	-0.100	0.520
2020/01/31 15:18:37.1	108.100	-0.410	-0.180	0.510
2020/01/31 15:18:37.2	108.100	-0.400	-0.250	0.490
2020/01/31 15:18:37.3	108.100	-0.380	-0.330	0.480
2020/01/31 15:18:37.4	108.100	-0.360	-0.400	0.470
2020/01/31 15:18:37.5	108.100	-0.330	-0.470	0.460
2020/01/31 15:18:37.6	108.090	-0.310	-0.550	0.450
2020/01/31 15:18:37.7	108.080	-0.280	-0.620	0.440
2020/01/31 15:18:37.8	108.070	-0.260	-0.680	0.440
2020/01/31 15:18:37.9	108.060	-0.230	-0.750	0.430
2020/01/31 15:18:38.0	108.040	-0.200	-0.810	0.430
2020/01/31 15:18:38.1	108.030	-0.170	-0.870	0.430
2020/01/31 15:18:38.2	108.010	-0.140	-0.930	0.440
2020/01/31 15:18:38.3	108.000	-0.110	-0.980	0.440
2020/01/31 15:18:38.4	107.980	-0.080	-1.030	0.450
2020/01/31 15:18:38.5	107.970	-0.060	-1.080	0.460
2020/01/31 15:18:38.6	107.960	-0.030	-1.120	0.470
2020/01/31 15:18:38.7	107.940	-0.000	-1.150	0.480
2020/01/31 15:18:38.8	107.930	0.030	-1.180	0.490
2020/01/31 15:18:38.9	107.910	0.050	-1.210	0.510
2020/01/31 15:18:39.0	107.900	0.080	-1.230	0.520
2020/01/31 15:18:39.1	107.890	0.100	-1.240	0.540
2020/01/31 15:18:39.2	107.880	0.120	-1.250	0.550
2020/01/31 15:18:39.3	107.870	0.140	-1.250	0.570
2020/01/31 15:18:39.4	107.860	0.160	-1.250	0.590
2020/01/31 15:18:39.5	107.860	0.180	-1.240	0.600
2020/01/31 15:18:39.6	107.850	0.190	-1.220	0.620
2020/01/31 15:18:39.7	107.850	0.210	-1.200	0.640
2020/01/31 15:18:39.8	107.850	0.220	-1.170	0.650
2020/01/31 15:18:39.9	107.850	0.230	-1.140	0.660
2020/01/31 15:18:40.0	107.860	0.240	-1.110	0.670
2020/01/31 15:18:40.1	107.860	0.240	-1.060	0.680
2020/01/31 15:18:40.2	107.870	0.250	-1.020	0.690
2020/01/31 15:18:40.3	107.880	0.250	-0.970	0.690
2020/01/31 15:18:40.4	107.890	0.250	-0.910	0.690
2020/01/31 15:18:40.5	107.900	0.250	-0.850	0.690
2020/01/31 15:18:40.6	107.920	0.250	-0.790	0.680
2020/01/31 15:18:40.7	107.940	0.250	-0.720	0.680
2020/01/31 15:18:40.8	107.970	0.240	-0.660	0.670
2020/01/31 15:18:40.9	107.990	0.230	-0.590	0.650
2020/01/31 15:18:41.0	108.020	0.220	-0.510	0.630
2020/01/31 15:18:41.1	108.050	0.210	-0.440	0.610
2020/01/31 15:18:41.2	108.090	0.200	-0.360	0.590
2020/01/31 15:18:41.3	108.120	0.180	-0.280	0.560
2020/01/31 15:18:41.4	108.160	0.160	-0.210	0.530
2020/01/31 15:18:41.5	108.200	0.150	-0.130	0.500
2020/01/31 15:18:41.6	108.250	0.130	-0.050	0.480
2020/01/31 15:18:41.7	108.290	0.110	0.030	0.440
2020/01/31 15:18:41.8	108.340	0.090	0.100	0.410
2020/01/31 15:18:41.9	108.380	0.060	0.170	0.370
2020/01/31 15:18:42.0	108.430	0.040	0.250	0.330
2020/01/31 15:18:42.1	108.470	0.020	0.310	0.290
2020/01/31 15:18:42.2	108.520	-0.000	0.380	0.250
2020/01/31 15:18:42.3	108.560	-0.020	0.440	0.210
2020/01/31 15:18:42.4	108.600	-0.050	0.500	0.180
2020/01/31 15:18:42.5	108.650	-0.070	0.550	0.140
2020/01/31 15:18:42.6	108.690	-0.090	0.610	0.100
2020/01/31 15:18:42.7	108.730	-0.110	0.650	0.070
2020/01/31 15:18:42.8	108.770	-0.130	0.690	0.040
2020/01/31 15:18:42.9	108.810	-0.150	0.720	0.010
2020/01/31 15:18:43.0	108.840	-0.160	0.750	-0.010
2020/01/31 15:18:43.1	108.870	-0.180	0.780	-0.040
2020/01/31 15:18:43.2	108.900	-0.190	0.790	-0.060
2020/01/31 15:18:43.3	108.930	-0.210	0.800	-0.070
2020/01/31 15:18:43.4	108.950	-0.220	0.810	-0.080
2020/01/31 15:18:43.5	108.970	-0.230	0.810	-0.090
2020/01/31 15:18:43.6	108.990	-0.230	0.800	-0.080
2020/01/31 15:18:43.7	109.000	-0.240	0.790	-0.080
2020/01/31 15:18:43.8	109.010	-0.240	0.770	-0.080
2020/01/31 15:18:43.9	109.020	-0.250	0.750	-0.070
2020/01/31 15:18:44.0	109.030	-0.250	0.720	-0.050
2020/01/31 15:18:44.1	109.030	-0.250	0.690	-0.040
2020/01/31 15:18:44.2	109.030	-0.250	0.650	-0.020
2020/01/31 15:18:44.3	109.030	-0.250	0.610	0.000
2020/01/31 15:18:44.4	109.020	-0.240	0.570	0.030
2020/01/31 15:18:44.5	109.020	-0.240	0.520	0.050
2020/01/31 15:18:44.6	109.010	-0.230	0.470	0.080
2020/01/31 15:18:44.7	109.000	-0.220	0.420	0.110
2020/01/31 15:18:44.8	108.980	-0.210	0.370	0.140
2020/01/31 15:18:44.9	108.970	-0.200	0.310	0.160
2020/01/31 15:18:45.0	108.960	-0.190	0.260	0.190
2020/01/31 15:18:45.1	108.940	-0.180	0.200	0.220
2020/01/31 15:18:45.2	108.930	-0.170	0.150	0.250
2020/01/31 15:18:45.3	108.910	-0.150	0.090	0.280
2020/01/31 15:18:45.4	108.890	-0.140	0.040	0.300
2020/01/31 15:18:45.5	108.880	-0.130	-0.020	0.330
2020/01/31 15:18:45.6	108.870	-0.110	-0.070	0.350
2020/01/31 15:18:45.7	108.850	-0.090	-0.120	0.380
2020/01/31 15:18:45.8	108.840	-0.080	-0.170	0.390
2020/01/31 15:18:45.9	108.820	-0.060	-0.220	0.410
2020/01/31 15:18:46.0	108.810	-0.040	-0.270	0.420
2020/01/31 15:18:46.1	108.800	-0.020	-0.310	0.440
2020/01/31 15:18:46.2	108.790	-0.000	-0.360	0.450
2020/01/31 15:18:46.3	108.780	0.020	-0.400	0.460
2020/01/31 15:18:46.4	108.770	0.040	-0.450	0.460
2020/01/31 15:18:46.5	108.760	0.060	-0.490	0.470
2020/01/31 15:18:46.6	108.750	0.070	-0.530	0.470
2020/01/31 15:18:46.7	108.750	0.090	-0.570	0.470
2020/01/31 15:18:46.8	108.740	0.110	-0.610	0.480
2020/01/31 15:18:46.9	108.740	0.130	-0.650	0.480
2020/01/31 15:18:47.0	108.740	0.150	-0.690	0.480
2020/01/31 15:18:47.1	108.730	0.160	-0.720	0.490
2020/01/31 15:18:47.2	108.730	0.180	-0.760	0.490
2020/01/31 15:18:47.3	108.730	0.190	-0.790	0.490
2020/01/31 15:18:47.4	108.730	0.210	-0.820	0.500
2020/01/31 15:18:47.5	108.730	0.220	-0.850	0.500
2020/01/31 15:18:47.6	108.740	0.230	-0.880	0.520
2020/01/31 15:18:47.7	108.750	0.240	-0.900	0.520
2020/01/31 15:18:47.8	108.750	0.250	-0.920	0.530
2020/01/31 15:18:47.9	108.760	0.260	-0.940	0.540
2020/01/31 15:18:48.0	108.770	0.270	-0.950	0.550
2020/01/31 15:18:48.1	108.780	0.270	-0.960	0.560
2020/01/31 15:18:48.2	108.790	0.270	-0.960	0.560
2020/01/31 15:18:48.3	108.800	0.270	-0.960	0.570
2020/01/31 15:18:48.4	108.810	0.270	-0.960	0.580
2020/01/31 15:18:48.5	108.830	0.270	-0.950	0.590
2020/01/31 15:18:48.6	108.850	0.270	-0.930	0.600
2020/01/31 15:18:48.7	108.870	0.270	-0.920	0.610
2020/01/31 15:18:48.8	108.890	0.260	-0.890	0.620
2020/01/31 15:18:48.9	108.910	0.250	-0.860	0.620
2020/01/31 15:18:49.0	108.930	0.240	-0.830	0.630
2020/01/31 15:18:49.1	108.960	0.240	-0.800	0.630
2020/01/31 15:18:49.2	108.990	0.230	-0.760	0.640
2020/01/31 15:18:49.3	109.010	0.220	-0.710	0.640
2020/01/31 15:18:49.4	109.040	0.200	-0.660	0.640
2020/01/31 15:18:49.5	109.070	0.190	-0.610	0.640
2020/01/31 15:18:49.6	109.100	0.180	-0.560	0.640
2020/01/31 15:18:49.7	109.140	0.170	-0.510	0.640
2020/01/31 15:18:49.8	109.170	0.150	-0.450	0.630
2020/01/31 15:18:49.9	109.200	0.140	-0.390	0.630
2020/01/31 15:18:50.0	109.240	0.130	-0.330	0.620
2020/01/31 15:18:50.1	109.280	0.110	-0.280	0.610
2020/01/31 15:18:50.2	109.310	0.100	-0.220	0.600
2020/01/31 15:18:50.3	109.350	0.080	-0.160	0.590
2020/01/31 15:18:50.4	109.380	0.070	-0.100	0.580
2020/01/31 15:18:50.5	109.420	0.060	-0.050	0.570
2020/01/31 15:18:50.6	109.450	0.040	0.010	0.560
2020/01/31 15:18:50.7	109.490	0.030	0.060	0.540
2020/01/31 15:18:50.8	109.530	0.020	0.110	0.530
2020/01/31 15:18:50.9	109.560	0.000	0.160	0.510
2020/01/31 15:18:51.0	109.590	-0.010	0.200	0.500
2020/01/31 15:18:51.1	109.630	-0.020	0.250	0.480
2020/01/31 15:18:51.2	109.660	-0.030	0.280	0.470
2020/01/31 15:18:51.3	109.690	-0.040	0.320	0.450
2020/01/31 15:18:51.4	109.720	-0.050	0.350	0.430
2020/01/31 15:18:51.5	109.750	-0.060	0.380	0.420
2020/01/31 15:18:51.6	109.770	-0.070	0.390	0.400
2020/01/31 15:18:51.7	109.800	-0.080	0.420	0.380
2020/01/31 15:18:51.8	109.820	-0.090	0.430	0.360
2020/01/31 15:18:51.9	109.850	-0.100	0.440	0.350
2020/01/31 15:18:52.0	109.870	-0.110	0.450	0.330
2020/01/31 15:18:52.1	109.890	-0.120	0.460	0.310
2020/01/31 15:18:52.2	109.910	-0.130	0.460	0.300
2020/01/31 15:18:52.3	109.930	-0.140	0.460	0.280
2020/01/31 15:18:52.4	109.940	-0.140	0.460	0.270
2020/01/31 15:18:52.5	109.960	-0.150	0.450	0.260
2020/01/31 15:18:52.6	109.970	-0.150	0.450	0.250
2020/01/31 15:18:52.7	109.980	-0.160	0.430	0.240
2020/01/31 15:18:52.8	109.990	-0.160	0.420	0.240
2020/01/31 15:18:52.9	110.000	-0.170	0.400	0.230
2020/01/31 15:18:53.0	110.000	-0.170	0.380	0.230
2020/01/31 15:18:53.1	110.000	-0.170	0.360	0.240
2020/01/31 15:18:53.2	109.990	-0.170	0.330	0.240
2020/01/31 15:18:53.3	109.990	-0.170	0.300	0.250
2020/01/31 15:18:53.4	109.980	-0.170	0.270	0.270
2020/01/31 15:18:53.5	109.960	-0.160	0.240	0.280
2020/01/31 15:18:53.6	109.950	-0.160	0.210	0.310
2020/01/31 15:18:53.7	109.930	-0.150	0.170	0.330
2020/01/31 15:18:53.8	109.910	-0.140	0.140	0.360
2020/01/31 15:18:53.9	109.890	-0.130	0.100	0.390
2020/01/31 15:18:54.0	109.860	-0.120	0.060	0.420
2020/01/31 15:18:54.1	109.840	-0.110	0.020	0.450
2020/01/31 15:18:54.2	109.810	-0.100	-0.020	0.490
2020/01/31 15:18:54.3	109.780	-0.080	-0.060	0.530
2020/01/31 15:18:54.4	109.750	-0.070	-0.100	0.560
2020/01/31 15:18:54.5	109.720	-0.050	-0.140	0.600
2020/01/31 15:18:54.6	109.700	-0.040	-0.180	0.640
2020/01/31 15:18:54.7	109.670	-0.020	-0.220	0.680
2020/01/31 15:18:54.8	109.640	-0.000	-0.260	0.710
2020/01/31 15:18:54.9	109.610	0.020	-0.300	0.750
2020/01/31 15:18:55.0	109.580	0.040	-0.340	0.780
2020/01/31 15:18:55.1	109.560	0.050	-0.370	0.810
2020/01/31 15:18:55.2	109.540	0.070	-0.410	0.840
2020/01/31 15:18:55.3	109.510	0.090	-0.440	0.860
2020/01/31 15:18:55.4	109.500	0.110	-0.470	0.890
2020/01/31 15:18:55.5	109.480	0.130	-0.500	0.900
2020/01/31 15:18:55.6	109.470	0.140	-0.530	0.910
2020/01/31 15:18:55.7	109.450	0.160	-0.550	0.920
2020/01/31 15:18:55.8	109.450	0.180	-0.580	0.930
2020/01/31 15:18:55.9	109.440	0.190	-0.600	0.930
2020/01/31 15:18:56.0	109.430	0.200	-0.620	0.930
2020/01/31 15:18:56.1	109.430	0.220	-0.640	0.920
2020/01/31 15:18:56.2	109.430	0.230	-0.650	0.920
2020/01/31 15:18:56.3	109.440	0.240	-0.660	0.900
2020/01/31 15:18:56.4	109.440	0.250	-0.670	0.880
2020/01/31 15:18:56.5	109.450	0.260	-0.680	0.860
2020/01/31 15:18:56.6	109.460	0.260	-0.690	0.850
2020/01/31 15:18:56.7	109.480	0.270	-0.690	0.820
2020/01/31 15:18:56.8	109.490	0.270	-0.690	0.790
2020/01/31 15:18:56.9	109.510	0.270	-0.690	0.760
2020/01/31 15:18:57.0	109.540	0.270	-0.690	0.720
2020/01/31 15:18:57.1	109.570	0.270	-0.680	0.680
2020/01/31 15:18:57.2	109.600	0.270	-0.670	0.640
2020/01/31 15:18:57.3	109.630	0.260	-0.660	0.600
2020/01/31 15:18:57.4	109.670	0.260	-0.640	0.550
2020/01/31 15:18:57.5	109.710	0.250	-0.620	0.500
2020/01/31 15:18:57.6	109.750	0.240	-0.590	0.460
2020/01/31 15:18:57.7	109.790	0.220	-0.570	0.410
2020/01/31 15:18:57.8	109.840	0.210	-0.540	0.360
2020/01/31 15:18:57.9	109.890	0.190	-0.510	0.310
2020/01/31 15:18:58.0	109.930	0.170	-0.480	0.260
2020/01/31 15:18:58.1	109.980	0.160	-0.450	0.210
2020/01/31 15:18:58.2	110.030	0.130	-0.410	0.170
2020/01/31 15:18:58.3	110.080	0.110	-0.380	0.120
2020/01/31 15:18:58.4	110.130	0.090	-0.340	0.080
2020/01/31 15:18:58.5	110.180	0.060	-0.300	0.040
2020/01/31 15:18:58.6	110.230	0.040	-0.260	0.010
2020/01/31 15:18:58.7	110.270	0.010	-0.220	-0.030
2020/01/31 15:18:58.8	110.320	-0.010	-0.180	-0.060
2020/01/31 15:18:58.9	110.360	-0.040	-0.130	-0.080
2020/01/31 15:18:59.0	110.400	-0.070	-0.090	-0.100
2020/01/31 15:18:59.1	110.430	-0.100	-0.050	-0.120
2020/01/31 15:18:59.2	110.460	-0.130	-0.010	-0.130
2020/01/31 15:18:59.3	110.490	-0.150	0.030	-0.140
2020/01/31 15:18:59.4	110.520	-0.180	0.070	-0.140
2020/01/31 15:18:59.5	110.540	-0.210	0.110	-0.140
2020/01/31 15:18:59.6	110.570	-0.240	0.150	-0.130
2020/01/31 15:18:59.7	110.590	-0.270	0.190	-0.120
2020/01/31 15:18:59.8	110.600	-0.290	0.220	-0.110
2020/01/31 15:18:59.9	110.620	-0.320	0.260	-0.090
2020/01/31 15:19:00.0	110.620	-0.340	0.290	-0.070
2020/01/31 15:19:00.1	110.630	-0.370	0.310	-0.040
2020/01/31 15:19:00.2	110.630	-0.390	0.340	-0.020
2020/01/31 15:19:00.3	110.640	-0.410	0.360	0.010
2020/01/31 15:19:00.4	110.640	-0.430	0.390	0.040
2020/01/31 15:19:00.5	110.630	-0.440	0.400	0.070
2020/01/31 15:19:00.6	110.630	-0.460	0.420	0.110
2020/01/31 15:19:00.7	110.630	-0.470	0.430	0.140
2020/01/31 15:19:00.8	110.620	-0.480	0.440	0.180
2020/01/31 15:19:00.9	110.610	-0.490	0.440	0.220
2020/01/31 15:19:01.0	110.600	-0.490	0.440	0.250
2020/01/31 15:19:01.1	110.580	-0.490	0.440	0.290
2020/01/31 15:19:01.2	110.570	-0.490	0.430	0.330
2020/01/31 15:19:01.3	110.560	-0.490	0.420	0.370
2020/01/31 15:19:01.4	110.540	-0.480	0.400	0.410
2020/01/31 15:19:01.5	110.520	-0.470	0.370	0.450
2020/01/31 15:19:01.6	110.500	-0.450	0.340	0.490
2020/01/31 15:19:01.7	110.480	-0.440	0.300	0.530
2020/01/31 15:19:01.8	110.460	-0.420	0.260	0.570
2020/01/31 15:19:01.9	110.440	-0.390	0.220	0.600
2020/01/31 15:19:02.0	110.420	-0.370	0.170	0.640
2020/01/31 15:19:02.1	110.390	-0.340	0.110	0.680
2020/01/31 15:19:02.2	110.370	-0.300	0.060	0.720
2020/01/31 15:19:02.3	110.350	-0.270	-0.000	0.760
2020/01/31 15:19:02.4	110.320	-0.230	-0.070	0.800
2020/01/31 15:19:02.5	110.300	-0.190	-0.130	0.830
2020/01/31 15:19:02.6	110.280	-0.150	-0.200	0.870
2020/01/31 15:19:02.7	110.250	-0.110	-0.270	0.900
2020/01/31 15:19:02.8	110.230	-0.070	-0.340	0.930
2020/01/31 15:19:02.9	110.210	-0.020	-0.410	0.960
2020/01/31 15:19:03.0	110.200	0.020	-0.470	0.980
2020/01/31 15:19:03.1	110.180	0.070	-0.540	1.010
2020/01/31 15:19:03.2	110.160	0.110	-0.600	1.020
2020/01/31 15:19:03.3	110.150	0.160	-0.660	1.040
2020/01/31 15:19:03.4	110.140	0.200	-0.720	1.050
2020/01/31 15:19:03.5	110.130	0.240	-0.770	1.060
2020/01/31 15:19:03.6	110.130	0.280	-0.810	1.070
2020/01/31 15:19:03.7	110.130	0.320	-0.850	1.070
2020/01/31 15:19:03.8	110.130	0.350	-0.880	1.070
2020/01/31 15:19:03.9	110.130	0.380	-0.910	1.060
2020/01/31 15:19:04.0	110.140	0.410	-0.930	1.050
2020/01/31 15:19:04.1	110.150	0.440	-0.940	1.030
2020/01/31 15:19:04.2	110.160	0.460	-0.950	1.020
2020/01/31 15:19:04.3	110.170	0.480	-0.950	0.990
2020/01/31 15:19:04.4	110.190	0.500	-0.940	0.970
2020/01/31 15:19:04.5	110.210	0.510	-0.920	0.940
2020/01/31 15:19:04.6	110.230	0.520	-0.900	0.900
2020/01/31 15:19:04.7	110.250	0.530	-0.870	0.870
2020/01/31 15:19:04.8	110.280	0.530	-0.830	0.830
2020/01/31 15:19:04.9	110.310	0.530	-0.790	0.790
2020/01/31 15:19:05.0	110.340	0.530	-0.740	0.750
2020/01/31 15:19:05.1	110.370	0.520	-0.690	0.700
2020/01/31 15:19:05.2	110.410	0.510	-0.640	0.660
2020/01/31 15:19:05.3	110.440	0.500	-0.580	0.610
2020/01/31 15:19:05.4	110.480	0.480	-0.510	0.570
2020/01/31 15:19:05.5	110.510	0.460	-0.450	0.520
2020/01/31 15:19:05.6	110.550	0.440	-0.380	0.480
2020/01/31 15:19:05.7	110.580	0.420	-0.310	0.440
2020/01/31 15:19:05.8	110.620	0.400	-0.240	0.390
2020/01/31 15:19:05.9	110.660	0.370	-0.170	0.350
2020/01/31 15:19:06.0	110.690	0.340	-0.100	0.310
2020/01/31 15:19:06.1	110.730	0.320	-0.030	0.280
2020/01/31 15:19:06.2	110.760	0.290	0.030	0.240
2020/01/31 15:19:06.3	110.790	0.260	0.100	0.210
2020/01/31 15:19:06.4	110.820	0.230	0.160	0.180
2020/01/31 15:19:06.5	110.850	0.200	0.220	0.150
2020/01/31 15:19:06.6	110.880	0.170	0.280	0.130
2020/01/31 15:19:06.7	110.900	0.140	0.330	0.110
2020/01/31 15:19:06.8	110.930	0.110	0.380	0.090
2020/01/31 15:19:06.9	110.950	0.080	0.430	0.070
2020/01/31 15:19:07.0	110.970	0.050	0.470	0.060
2020/01/31 15:19:07.1	111.000	0.020	0.500	0.040
2020/01/31 15:19:07.2	111.020	-0.000	0.540	0.030
2020/01/31 15:19:07.3	111.030	-0.030	0.560	0.020
2020/01/31 15:19:07.4	111.050	-0.050	0.580	0.020
2020/01/31 15:19:07.5	111.070	-0.070	0.600	0.010
2020/01/31 15:19:07.6	111.080	-0.090	0.610	0.010
2020/01/31 15:19:07.7	111.090	-0.110	0.620	0.010
2020/01/31 15:19:07.8	111.100	-0.130	0.620	0.010
2020/01/31 15:19:07.9	111.120	-0.140	0.610	0.010
2020/01/31 15:19:08.0	111.130	-0.160	0.600	0.010
2020/01/31 15:19:08.1	111.130	-0.170	0.580	0.010
2020/01/31 15:19:08.2	111.140	-0.180	0.560	0.010
2020/01/31 15:19:08.3	111.150	-0.180	0.530	0.020
2020/01/31 15:19:08.4	111.150	-0.190	0.490	0.020
2020/01/31 15:19:08.5	111.160	-0.190	0.460	0.020
2020/01/31 15:19:08.6	111.150	-0.200	0.410	0.030
2020/01/31 15:19:08.7	111.160	-0.200	0.360	0.030
2020/01/31 15:19:08.8	111.160	-0.200	0.310	0.040
2020/01/31 15:19:08.9	111.160	-0.190	0.250	0.040
2020/01/31 15:19:09.0	111.160	-0.190	0.190	0.050
2020/01/31 15:19:09.1	111.160	-0.180	0.120	0.050
2020/01/31 15:19:09.2	111.160	-0.180	0.050	0.060
2020/01/31 15:19:09.3	111.160	-0.170	-0.020	0.070
2020/01/31 15:19:09.4	111.150	-0.160	-0.090	0.080
2020/01/31 15:19:09.5	111.150	-0.150	-0.170	0.090
2020/01/31 15:19:09.6	111.140	-0.140	-0.240	0.100
2020/01/31 15:19:09.7	111.130	-0.130	-0.320	0.120
2020/01/31 15:19:09.8	111.120	-0.110	-0.400	0.130
2020/01/31 15:19:09.9	111.110	-0.100	-0.470	0.150
2020/01/31 15:19:10.0	111.100	-0.090	-0.540	0.180
2020/01/31 15:19:10.1	111.090	-0.070	-0.610	0.200
2020/01/31 15:19:10.2	111.080	-0.060	-0.680	0.230
2020/01/31 15:19:10.3	111.060	-0.050	-0.740	0.260
2020/01/31 15:19:10.4	111.040	-0.030	-0.800	0.290
2020/01/31 15:19:10.5	111.030	-0.020	-0.860	0.330
2020/01/31 15:19:10.6	111.010	-0.010	-0.910	0.370
2020/01/31 15:19:10.7	110.990	0.000	-0.960	0.410
2020/01/31 15:19:10.8	110.970	0.010	-0.990	0.450
2020/01/31 15:19:10.9	110.950	0.020	-1.030	0.500
2020/01/31 15:19:11.0	110.930	0.030	-1.060	0.540
2020/01/31 15:19:11.1	110.910	0.040	-1.080	0.590
2020/01/31 15:19:11.2	110.890	0.050	-1.090	0.630
2020/01/31 15:19:11.3	110.870	0.050	-1.100	0.680
2020/01/31 15:19:11.4	110.860	0.050	-1.100	0.730
2020/01/31 15:19:11.5	110.840	0.060	-1.090	0.770
2020/01/31 15:19:11.6	110.820	0.060	-1.080	0.820
2020/01/31 15:19:11.7	110.810	0.060	-1.060	0.860
2020/01/31 15:19:11.8	110.800	0.060	-1.030	0.900
2020/01/31 15:19:11.9	110.790	0.050	-1.000	0.940
2020/01/31 15:19:12.0	110.780	0.050	-0.960	0.980
2020/01/31 15:19:12.1	110.770	0.040	-0.910	1.010
2020/01/31 15:19:12.2	110.770	0.030	-0.860	1.040
2020/01/31 15:19:12.3	110.760	0.030	-0.800	1.070
2020/01/31 15:19:12.4	110.770	0.020	-0.740	1.090
2020/01/31 15:19:12.5	110.770	0.000	-0.680	1.110
2020/01/31 15:19:12.6	110.780	-0.010	-0.610	1.120
2020/01/31 15:19:12.7	110.790	-0.020	-0.540	1.130
2020/01/31 15:19:12.8	110.800	-0.030	-0.470	1.140
2020/01/31 15:19:12.9	110.820	-0.050	-0.390	1.140
2020/01/31 15:19:13.0	110.840	-0.060	-0.320	1.130
2020/01/31 15:19:13.1	110.860	-0.070	-0.240	1.120
2020/01/31 15:19:13.2	110.880	-0.090	-0.160	1.110
2020/01/31 15:19:13.3	110.910	-0.100	-0.090	1.090
2020/01/31 15:19:13.4	110.930	-0.120	-0.010	1.070
2020/01/31 15:19:13.5	110.960	-0.130	0.060	1.040
2020/01/31 15:19:13.6	111.000	-0.150	0.130	1.020
2020/01/31 15:19:13.7	111.030	-0.160	0.200	0.980
2020/01/31 15:19:13.8	111.060	-0.170	0.260	0.950
2020/01/31 15:19:13.9	111.090	-0.180	0.320	0.910
2020/01/31 15:19:14.0	111.120	-0.190	0.380	0.870
2020/01/31 15:19:14.1	111.150	-0.200	0.430	0.830
2020/01/31 15:19:14.2	111.190	-0.210	0.480	0.790
2020/01/31 15:19:14.3	111.220	-0.210	0.520	0.750
2020/01/31 15:19:14.4	111.250	-0.220	0.550	0.700
2020/01/31 15:19:14.5	111.280	-0.220	0.580	0.660
2020/01/31 15:19:14.6	111.310	-0.230	0.610	0.620
2020/01/31 15:19:14.7	111.340	-0.230	0.630	0.570
2020/01/31 15:19:14.8	111.360	-0.230	0.640	0.520
2020/01/31 15:19:14.9	111.390	-0.220	0.650	0.470
2020/01/31 15:19:15.0	111.420	-0.220	0.650	0.420
2020/01/31 15:19:15.1	111.440	-0.220	0.650	0.370
2020/01/31 15:19:15.2	111.470	-0.210	0.640	0.330
2020/01/31 15:19:15.3	111.490	-0.200	0.630	0.280
2020/01/31 15:19:15.4	111.520	-0.190	0.610	0.230
2020/01/31 15:19:15.5	111.540	-0.180	0.590	0.180
2020/01/31 15:19:15.6	111.560	-0.170	0.570	0.120
2020/01/31 15:19:15.7	111.580	-0.160	0.540	0.070
2020/01/31 15:19:15.8	111.610	-0.150	0.520	0.020
2020/01/31 15:19:15.9	111.630	-0.130	0.480	-0.030
2020/01/31 15:19:16.0	111.650	-0.120	0.450	-0.080
2020/01/31 15:19:16.1	111.670	-0.100	0.410	-0.130
2020/01/31 15:19:16.2	111.690	-0.080	0.370	-0.180
2020/01/31 15:19:16.3	111.710	-0.060	0.320	-0.230
2020/01/31 15:19:16.4	111.730	-0.050	0.280	-0.270
2020/01/31 15:19:16.5	111.740	-0.030	0.230	-0.320
2020/01/31 15:19:16.6	111.760	-0.010	0.190	-0.360
2020/01/31 15:19:16.7	111.770	0.010	0.140	-0.400
2020/01/31 15:19:16.8	111.790	0.030	0.090	-0.440
2020/01/31 15:19:16.9	111.800	0.050	0.040	-0.470
2020/01/31 15:19:17.0	111.810	0.070	-0.010	-0.510
2020/01/31 15:19:17.1	111.820	0.090	-0.060	-0.540
2020/01/31 15:19:17.2	111.820	0.110	-0.110	-0.560
2020/01/31 15:19:17.3	111.830	0.130	-0.160	-0.590
2020/01/31 15:19:17.4	111.830	0.150	-0.210	-0.610
2020/01/31 15:19:17.5	111.840	0.170	-0.260	-0.630
2020/01/31 15:19:17.6	111.830	0.190	-0.310	-0.640
2020/01/31 15:19:17.7	111.830	0.200	-0.360	-0.650
2020/01/31 15:19:17.8	111.830	0.220	-0.410	-0.660
2020/01/31 15:19:17.9	111.830	0.240	-0.460	-0.660
2020/01/31 15:19:18.0	111.820	0.250	-0.510	-0.660
2020/01/31 15:19:18.1	111.820	0.270	-0.550	-0.650
2020/01/31 15:19:18.2	111.810	0.280	-0.590	-0.650
2020/01/31 15:19:18.3	111.800	0.290	-0.640	-0.630
2020/01/31 15:19:18.4	111.790	0.300	-0.680	-0.620
2020/01/31 15:19:18.5	111.780	0.310	-0.710	-0.600
2020/01/31 15:19:18.6	111.770	0.320	-0.750	-0.570
2020/01/31 15:19:18.7	111.750	0.320	-0.780	-0.550
2020/01/31 15:19:18.8	111.740	0.330	-0.810	-0.520
2020/01/31 15:19:18.9	111.720	0.330	-0.840	-0.490
2020/01/31 15:19:19.0	111.700	0.340	-0.860	-0.460
2020/01/31 15:19:19.1	111.680	0.340	-0.880	-0.430
2020/01/31 15:19:19.2	111.670	0.340	-0.890	-0.390
2020/01/31 15:19:19.3	111.650	0.330	-0.910	-0.360
2020/01/31 15:19:19.4	111.630	0.330	-0.910	-0.320
2020/01/31 15:19:19.5	111.600	0.320	-0.920	-0.290
2020/01/31 15:19:19.6	111.580	0.310	-0.920	-0.250
2020/01/31 15:19:19.7	111.560	0.300	-0.910	-0.210
2020/01/31 15:19:19.8	111.540	0.290	-0.900	-0.180
2020/01/31 15:19:19.9	111.520	0.280	-0.890	-0.140
2020/01/31 15:19:20.0	111.500	0.260	-0.870	-0.100
2020/01/31 15:19:20.1	111.470	0.250	-0.850	-0.070
2020/01/31 15:19:20.2	111.450	0.230	-0.820	-0.030
2020/01/31 15:19:20.3	111.430	0.210	-0.790	0.000
2020/01/31 15:19:20.4	111.410	0.190	-0.750	0.040
2020/01/31 15:19:20.5	111.390	0.170	-0.720	0.070
2020/01/31 15:19:20.6	111.370	0.150	-0.670	0.100
2020/01/31 15:19:20.7	111.350	0.120	-0.630	0.130
2020/01/31 15:19:20.8	111.330	0.100	-0.580	0.160
2020/01/31 15:19:20.9	111.310	0.070	-0.530	0.190
2020/01/31 15:19:21.0	111.290	0.050	-0.480	0.220
2020/01/31 15:19:21.1	111.260	0.020	-0.430	0.240
2020/01/31 15:19:21.2	111.240	-0.010	-0.370	0.260
2020/01/31 15:19:21.3	111.220	-0.030	-0.320	0.290
2020/01/31 15:19:21.4	111.200	-0.060	-0.260	0.310
2020/01/31 15:19:21.5	111.180	-0.080	-0.200	0.330
2020/01/31 15:19:21.6	111.160	-0.110	-0.150	0.350
2020/01/31 15:19:21.7	111.140	-0.140	-0.090	0.370
2020/01/31 15:19:21.8	111.130	-0.160	-0.040	0.390
2020/01/31 15:19:21.9	111.110	-0.180	0.010	0.410
2020/01/31 15:19:22.0	111.090	-0.210	0.060	0.430
2020/01/31 15:19:22.1	111.080	-0.230	0.110	0.440
2020/01/31 15:19:22.2	111.060	-0.250	0.150	0.460
2020/01/31 15:19:22.3	111.050	-0.270	0.190	0.480
2020/01/31 15:19:22.4	111.030	-0.290	0.230	0.490
2020/01/31 15:19:22.5	111.020	-0.310	0.260	0.510
2020/01/31 15:19:22.6	111.010	-0.320	0.290	0.520
2020/01/31 15:19:22.7	111.010	-0.330	0.310	0.530
2020/01/31 15:19:22.8	111.000	-0.350	0.330	0.550
2020/01/31 15:19:22.9	110.990	-0.360	0.350	0.560
2020/01/31 15:19:23.0	110.990	-0.370	0.360	0.560
2020/01/31 15:19:23.1	110.990	-0.370	0.370	0.570
2020/01/31 15:19:23.2	110.990	-0.380	0.380	0.580
2020/01/31 15:19:23.3	111.000	-0.380	0.380	0.580
2020/01/31 15:19:23.4	111.010	-0.380	0.380	0.580
2020/01/31 15:19:23.5	111.010	-0.380	0.380	0.580
2020/01/31 15:19:23.6	111.030	-0.380	0.370	0.580
2020/01/31 15:19:23.7	111.040	-0.370	0.370	0.570
2020/01/31 15:19:23.8	111.060	-0.370	0.350	0.560
2020/01/31 15:19:23.9	111.080	-0.360	0.340	0.550
2020/01/31 15:19:24.0	111.100	-0.350	0.320	0.530
2020/01/31 15:19:24.1	111.120	-0.340	0.300	0.520
2020/01/31 15:19:24.2	111.150	-0.330	0.280	0.500
2020/01/31 15:19:24.3	111.180	-0.320	0.260	0.480
2020/01/31 15:19:24.4	111.200	-0.310	0.230	0.450
2020/01/31 15:19:24.5	111.230	-0.290	0.210	0.430
2020/01/31 15:19:24.6	111.260	-0.280	0.180	0.400
2020/01/31 15:19:24.7	111.290	-0.270	0.150	0.370
2020/01/31 15:19:24.8	111.320	-0.250	0.120	0.340
2020/01/31 15:19:24.9	111.350	-0.230	0.090	0.310
2020/01/31 15:19:25.0	111.390	-0.220	0.060	0.280
2020/01/31 15:19:25.1	111.420	-0.200	0.030	0.250
2020/01/31 15:19:25.2	111.450	-0.180	-0.000	0.210
2020/01/31 15:19:25.3	111.480	-0.170	-0.030	0.180
2020/01/31 15:19:25.4	111.510	-0.150	-0.060	0.150
2020/01/31 15:19:25.5	111.530	-0.130	-0.090	0.120
2020/01/31 15:19:25.6	111.560	-0.110	-0.120	0.090
2020/01/31 15:19:25.7	111.580	-0.100	-0.140	0.060
2020/01/31 15:19:25.8	111.600	-0.080	-0.170	0.040
2020/01/31 15:19:25.9	111.620	-0.060	-0.200	0.010
2020/01/31 15:19:26.0	111.640	-0.050	-0.220	-0.010
2020/01/31 15:19:26.1	111.650	-0.030	-0.250	-0.020
2020/01/31 15:19:26.2	111.660	-0.010	-0.270	-0.040
2020/01/31 15:19:26.3	111.670	0.000	-0.290	-0.050
2020/01/31 15:19:26.4	111.670	0.020	-0.310	-0.060
2020/01/31 15:19:26.5	111.680	0.030	-0.330	-0.060
2020/01/31 15:19:26.6	111.670	0.040	-0.350	-0.060
2020/01/31 15:19:26.7	111.670	0.060	-0.370	-0.060
2020/01/31 15:19:26.8	111.670	0.070	-0.380	-0.050
2020/01/31 15:19:26.9	111.660	0.080	-0.400	-0.050
2020/01/31 15:19:27.0	111.650	0.090	-0.410	-0.040
2020/01/31 15:19:27.1	111.640	0.100	-0.420	-0.030
2020/01/31 15:19:27.2	111.630	0.110	-0.420	-0.010
2020/01/31 15:19:27.3	111.610	0.120	-0.430	0.000
2020/01/31 15:19:27.4	111.600	0.120	-0.430	0.020
2020/01/31 15:19:27.5	111.580	0.130	-0.430	0.040
2020/01/31 15:19:27.6	111.560	0.140	-0.420	0.060
2020/01/31 15:19:27.7	111.540	0.140	-0.420	0.090
2020/01/31 15:19:27.8	111.520	0.150	-0.410	0.110
2020/01/31 15:19:27.9	111.500	0.150	-0.410	0.130
2020/01/31 15:19:28.0	111.480	0.150	-0.400	0.150
2020/01/31 15:19:28.1	111.460	0.160	-0.390	0.180
2020/01/31 15:19:28.2	111.430	0.160	-0.370	0.200
2020/01/31 15:19:28.3	111.410	0.160	-0.360	0.230
2020/01/31 15:19:28.4	111.380	0.160	-0.350	0.250
2020/01/31 15:19:28.5	111.360	0.160	-0.340	0.280
2020/01/31 15:19:28.6	111.330	0.170	-0.320	0.300
2020/01/31 15:19:28.7	111.310	0.170	-0.310	0.320
2020/01/31 15:19:28.8	111.280	0.170	-0.290	0.350
2020/01/31 15:19:28.9	111.250	0.170	-0.280	0.370
2020/01/31 15:19:29.0	111.230	0.180	-0.260	0.390
2020/01/31 15:19:29.1	111.200	0.180	-0.250	0.420
2020/01/31 15:19:29.2	111.170	0.190	-0.230	0.440
2020/01/31 15:19:29.3	111.140	0.190	-0.220	0.460
2020/01/31 15:19:29.4	111.110	0.190	-0.210	0.480
2020/01/31 15:19:29.5	111.080	0.200	-0.190	0.500
2020/01/31 15:19:29.6	111.050	0.200	-0.180	0.510
2020/01/31 15:19:29.7	111.020	0.210	-0.170	0.530
2020/01/31 15:19:29.8	110.990	0.210	-0.160	0.550
2020/01/31 15:19:29.9	110.950	0.220	-0.150	0.560
2020/01/31 15:19:30.0	110.920	0.220	-0.140	0.570
2020/01/31 15:19:30.1	110.900	0.220	-0.140	0.580
2020/01/31 15:19:30.2	110.870	0.230	-0.130	0.590
2020/01/31 15:19:30.3	110.840	0.230	-0.120	0.590
2020/01/31 15:19:30.4	110.810	0.240	-0.120	0.600
2020/01/31 15:19:30.5	110.780	0.240	-0.120	0.600
2020/01/31 15:19:30.6	110.760	0.240	-0.110	0.600
2020/01/31 15:19:30.7	110.740	0.250	-0.110	0.600
2020/01/31 15:19:30.8	110.720	0.250	-0.110	0.590
2020/01/31 15:19:30.9	110.700	0.250	-0.110	0.580
2020/01/31 15:19:31.0	110.680	0.250	-0.120	0.560
2020/01/31 15:19:31.1	110.660	0.250	-0.120	0.550
2020/01/31 15:19:31.2	110.640	0.250	-0.120	0.530
2020/01/31 15:19:31.3	110.630	0.250	-0.130	0.510
2020/01/31 15:19:31.4	110.620	0.250	-0.140	0.490
2020/01/31 15:19:31.5	110.610	0.240	-0.140	0.460
2020/01/31 15:19:31.6	110.600	0.240	-0.150	0.430
2020/01/31 15:19:31.7	110.590	0.240	-0.160	0.400
2020/01/31 15:19:31.8	110.590	0.230	-0.170	0.370
2020/01/31 15:19:31.9	110.580	0.230	-0.180	0.340
2020/01/31 15:19:32.0	110.580	0.220	-0.190	0.310
2020/01/31 15:19:32.1	110.570	0.220	-0.210	0.270
2020/01/31 15:19:32.2	110.570	0.210	-0.220	0.240
2020/01/31 15:19:32.3	110.570	0.200	-0.240	0.200
2020/01/31 15:19:32.4	110.570	0.200	-0.250	0.170
2020/01/31 15:19:32.5	110.570	0.190	-0.260	0.130
2020/01/31 15:19:32.6	110.570	0.180	-0.280	0.100
2020/01/31 15:19:32.7	110.580	0.170	-0.300	0.060
2020/01/31 15:19:32.8	110.580	0.160	-0.310	0.030
2020/01/31 15:19:32.9	110.580	0.150	-0.320	-0.000
2020/01/31 15:19:33.0	110.580	0.140	-0.340	-0.040
2020/01/31 15:19:33.1	110.590	0.120	-0.350	-0.070
2020/01/31 15:19:33.2	110.590	0.110	-0.360	-0.100
2020/01/31 15:19:33.3	110.600	0.100	-0.370	-0.130
2020/01/31 15:19:33.4	110.600	0.080	-0.380	-0.160
2020/01/31 15:19:33.5	110.610	0.070	-0.380	-0.190
2020/01/31 15:19:33.6	110.610	0.050	-0.380	-0.220
2020/01/31 15:19:33.7	110.610	0.040	-0.390	-0.240
2020/01/31 15:19:33.8	110.620	0.020	-0.390	-0.260
2020/01/31 15:19:33.9	110.620	0.000	-0.390	-0.280
2020/01/31 15:19:34.0	110.630	-0.010	-0.390	-0.300
2020/01/31 15:19:34.1	110.640	-0.030	-0.380	-0.320
2020/01/31 15:19:34.2	110.640	-0.050	-0.380	-0.330
2020/01/31 15:19:34.3	110.640	-0.070	-0.380	-0.340
2020/01/31 15:19:34.4	110.650	-0.080	-0.370	-0.350
2020/01/31 15:19:34.5	110.650	-0.100	-0.360	-0.360
2020/01/31 15:19:34.6	110.660	-0.120	-0.350	-0.360
2020/01/31 15:19:34.7	110.660	-0.140	-0.340	-0.360
2020/01/31 15:19:34.8	110.660	-0.150	-0.330	-0.350
2020/01/31 15:19:34.9	110.660	-0.170	-0.320	-0.350
2020/01/31 15:19:35.0	110.660	-0.190	-0.310	-0.340
2020/01/31 15:19:35.1	110.660	-0.200	-0.290	-0.340
2020/01/31 15:19:35.2	110.660	-0.220	-0.280	-0.330
2020/01/31 15:19:35.3	110.660	-0.230	-0.270	-0.320
2020/01/31 15:19:35.4	110.660	-0.240	-0.250	-0.300
2020/01/31 15:19:35.5	110.650	-0.250	-0.240	-0.290
2020/01/31 15:19:35.6	110.660	-0.260	-0.220	-0.270
2020/01/31 15:19:35.7	110.650	-0.270	-0.210	-0.250
2020/01/31 15:19:35.8	110.650	-0.280	-0.200	-0.230
2020/01/31 15:19:35.9	110.650	-0.290	-0.180	-0.210
2020/01/31 15:19:36.0	110.640	-0.300	-0.170	-0.190
2020/01/31 15:19:36.1	110.640	-0.300	-0.160	-0.170
2020/01/31 15:19:36.2	110.630	-0.300	-0.150	-0.140
2020/01/31 15:19:36.3	110.630	-0.310	-0.140	-0.120
2020/01/31 15:19:36.4	110.620	-0.310	-0.120	-0.090
2020/01/31 15:19:36.5	110.610	-0.310	-0.110	-0.070
2020/01/31 15:19:36.6	110.610	-0.300	-0.100	-0.040
2020/01/31 15:19:36.7	110.600	-0.300	-0.090	-0.010
2020/01/31 15:19:36.8	110.600	-0.300	-0.080	0.010
2020/01/31 15:19:36.9	110.590	-0.290	-0.070	0.040
2020/01/31 15:19:37.0	110.580	-0.290	-0.050	0.070
2020/01/31 15:19:37.1	110.570	-0.280	-0.040	0.090
2020/01/31 15:19:37.2	110.570	-0.270	-0.020	0.120
2020/01/31 15:19:37.3	110.560	-0.260	-0.010	0.140
2020/01/31 15:19:37.4	110.550	-0.250	0.010	0.160
2020/01/31 15:19:37.5	110.540	-0.240	0.030	0.190
2020/01/31 15:19:37.6	110.530	-0.230	0.050	0.210
2020/01/31 15:19:37.7	110.530	-0.220	0.060	0.230
2020/01/31 15:19:37.8	110.520	-0.200	0.080	0.250
2020/01/31 15:19:37.9	110.510	-0.190	0.100	0.270
2020/01/31 15:19:38.0	110.510	-0.180	0.120	0.290
2020/01/31 15:19:38.1	110.500	-0.160	0.130	0.310
2020/01/31 15:19:38.2	110.500	-0.150	0.150	0.330
2020/01/31 15:19:38.3	110.490	-0.140	0.170	0.350
2020/01/31 15:19:38.4	110.490	-0.120	0.180	0.370
2020/01/31 15:19:38.5	110.480	-0.110	0.200	0.390
2020/01/31 15:19:38.6	110.480	-0.090	0.210	0.410
2020/01/31 15:19:38.7	110.480	-0.080	0.220	0.420
2020/01/31 15:19:38.8	110.470	-0.070	0.230	0.440
2020/01/31 15:19:38.9	110.470	-0.050	0.240	0.460
2020/01/31 15:19:39.0	110.460	-0.040	0.250	0.470
2020/01/31 15:19:39.1	110.460	-0.030	0.250	0.490
2020/01/31 15:19:39.2	110.450	-0.020	0.250	0.500
2020/01/31 15:19:39.3	110.440	-0.010	0.250	0.510
2020/01/31 15:19:39.4	110.440	0.000	0.250	0.530
2020/01/31 15:19:39.5	110.430	0.010	0.250	0.540
2020/01/31 15:19:39.6	110.430	0.020	0.240	0.550
2020/01/31 15:19:39.7	110.420	0.030	0.230	0.560
2020/01/31 15:19:39.8	110.410	0.030	0.220	0.560
2020/01/31 15:19:39.9	110.410	0.040	0.200	0.570
2020/01/31 15:19:40.0	110.400	0.050	0.180	0.570
2020/01/31 15:19:40.1	110.390	0.050	0.170	0.570
2020/01/31 15:19:40.2	110.380	0.060	0.140	0.570
2020/01/31 15:19:40.3	110.380	0.060	0.120	0.560
2020/01/31 15:19:40.4	110.370	0.070	0.100	0.550
2020/01/31 15:19:40.5	110.370	0.070	0.070	0.540
2020/01/31 15:19:40.6	110.360	0.080	0.040	0.530
2020/01/31 15:19:40.7	110.360	0.080	0.010	0.520
2020/01/31 15:19:40.8	110.360	0.090	-0.020	0.500
2020/01/31 15:19:40.9	110.350	0.090	-0.060	0.480
2020/01/31 15:19:41.0	110.350	0.100	-0.090	0.460
2020/01/31 15:19:41.1	110.350	0.100	-0.130	0.440
2020/01/31 15:19:41.2	110.350	0.100	-0.170	0.420
2020/01/31 15:19:41.3	110.350	0.110	-0.210	0.400
2020/01/31 15:19:41.4	110.350	0.110	-0.240	0.370
2020/01/31 15:19:41.5	110.350	0.120	-0.280	0.350
2020/01/31 15:19:41.6	110.350	0.120	-0.320	0.320
2020/01/31 15:19:41.7	110.350	0.130	-0.360	0.290
2020/01/31 15:19:41.8	110.350	0.130	-0.400	0.270
2020/01/31 15:19:41.9	110.350	0.140	-0.440	0.240
2020/01/31 15:19:42.0	110.350	0.150	-0.470	0.210
2020/01/31 15:19:42.1	110.350	0.150	-0.510	0.190
2020/01/31 15:19:42.2	110.350	0.160	-0.550	0.160
2020/01/31 15:19:42.3	110.350	0.170	-0.590	0.140
2020/01/31 15:19:42.4	110.350	0.180	-0.620	0.120
2020/01/31 15:19:42.5	110.350	0.190	-0.660	0.100
2020/01/31 15:19:42.6	110.350	0.200	-0.690	0.080
2020/01/31 15:19:42.7	110.340	0.210	-0.720	0.060
2020/01/31 15:19:42.8	110.330	0.220	-0.750	0.040
2020/01/31 15:19:42.9	110.330	0.230	-0.770	0.030
2020/01/31 15:19:43.0	110.320	0.230	-0.790	0.010
2020/01/31 15:19:43.1	110.310	0.240	-0.810	0.000
2020/01/31 15:19:43.2	110.300	0.250	-0.830	-0.010
2020/01/31 15:19:43.3	110.290	0.260	-0.840	-0.020
2020/01/31 15:19:43.4	110.280	0.270	-0.850	-0.030
2020/01/31 15:19:43.5	110.270	0.270	-0.850	-0.040
2020/01/31 15:19:43.6	110.250	0.280	-0.850	-0.060
2020/01/31 15:19:43.7	110.240	0.280	-0.840	-0.060
2020/01/31 15:19:43.8	110.230	0.280	-0.830	-0.070
2020/01/31 15:19:43.9	110.220	0.290	-0.820	-0.080
2020/01/31 15:19:44.0	110.220	0.280	-0.800	-0.090
2020/01/31 15:19:44.1	110.210	0.280	-0.770	-0.100
2020/01/31 15:19:44.2	110.200	0.280	-0.740	-0.100
2020/01/31 15:19:44.3	110.200	0.270	-0.710	-0.110
2020/01/31 15:19:44.4	110.200	0.260	-0.670	-0.110
2020/01/31 15:19:44.5	110.200	0.250	-0.620	-0.120
2020/01/31 15:19:44.6	110.200	0.240	-0.570	-0.120
2020/01/31 15:19:44.7	110.200	0.220	-0.520	-0.130
2020/01/31 15:19:44.8	110.200	0.200	-0.460	-0.130
2020/01/31 15:19:44.9	110.210	0.190	-0.400	-0.140
2020/01/31 15:19:45.0	110.210	0.160	-0.340	-0.140
2020/01/31 15:19:45.1	110.220	0.140	-0.280	-0.150
2020/01/31 15:19:45.2	110.230	0.120	-0.210	-0.150
2020/01/31 15:19:45.3	110.240	0.090	-0.150	-0.150
2020/01/31 15:19:45.4	110.250	0.060	-0.080	-0.150
2020/01/31 15:19:45.5	110.260	0.040	-0.020	-0.150
2020/01/31 15:19:45.6	110.260	0.010	0.050	-0.140
2020/01/31 15:19:45.7	110.270	-0.020	0.110	-0.140
2020/01/31 15:19:45.8	110.280	-0.050	0.170	-0.130
2020/01/31 15:19:45.9	110.290	-0.080	0.230	-0.120
2020/01/31 15:19:46.0	110.290	-0.110	0.280	-0.110
2020/01/31 15:19:46.1	110.300	-0.140	0.330	-0.100
2020/01/31 15:19:46.2	110.300	-0.170	0.380	-0.080
2020/01/31 15:19:46.3	110.300	-0.200	0.420	-0.060
2020/01/31 15:19:46.4	110.300	-0.220	0.460	-0.040
2020/01/31 15:19:46.5	110.290	-0.250	0.490	-0.010
2020/01/31 15:19:46.6	110.290	-0.270	0.510	0.020
2020/01/31 15:19:46.7	110.290	-0.290	0.530	0.050
2020/01/31 15:19:46.8	110.280	-0.310	0.540	0.080
2020/01/31 15:19:46.9	110.270	-0.320	0.540	0.110
2020/01/31 15:19:47.0	110.260	-0.340	0.540	0.140
2020/01/31 15:19:47.1	110.240	-0.350	0.520	0.170
2020/01/31 15:19:47.2	110.230	-0.350	0.500	0.210
2020/01/31 15:19:47.3	110.220	-0.360	0.480	0.240
2020/01/31 15:19:47.4	110.200	-0.360	0.450	0.270
2020/01/31 15:19:47.5	110.180	-0.360	0.410	0.300
2020/01/31 15:19:47.6	110.170	-0.360	0.370	0.330
2020/01/31 15:19:47.7	110.160	-0.350	0.320	0.360
2020/01/31 15:19:47.8	110.140	-0.350	0.260	0.390
2020/01/31 15:19:47.9	110.130	-0.330	0.200	0.410
2020/01/31 15:19:48.0	110.110	-0.320	0.140	0.430
2020/01/31 15:19:48.1	110.100	-0.310	0.080	0.450
2020/01/31 15:19:48.2	110.080	-0.290	0.010	0.460
2020/01/31 15:19:48.3	110.070	-0.270	-0.060	0.470
2020/01/31 15:19:48.4	110.060	-0.250	-0.130	0.480
2020/01/31 15:19:48.5	110.050	-0.220	-0.200	0.490
2020/01/31 15:19:48.6	110.040	-0.200	-0.270	0.490
2020/01/31 15:19:48.7	110.030	-0.180	-0.340	0.490
2020/01/31 15:19:48.8	110.020	-0.150	-0.400	0.480
2020/01/31 15:19:48.9	110.020	-0.120	-0.470	0.480
2020/01/31 15:19:49.0	110.010	-0.100	-0.530	0.470
2020/01/31 15:19:49.1	110.010	-0.070	-0.580	0.460
2020/01/31 15:19:49.2	110.010	-0.050	-0.630	0.450
2020/01/31 15:19:49.3	110.010	-0.020	-0.680	0.440
2020/01/31 15:19:49.4	110.020	0.000	-0.720	0.420
2020/01/31 15:19:49.5	110.020	0.020	-0.760	0.410
2020/01/31 15:19:49.6	110.030	0.040	-0.790	0.390
2020/01/31 15:19:49.7	110.040	0.060	-0.810	0.370
2020/01/31 15:19:49.8	110.050	0.080	-0.830	0.350
2020/01/31 15:19:49.9	110.060	0.100	-0.840	0.330
2020/01/31 15:19:50.0	110.080	0.110	-0.840	0.310
2020/01/31 15:19:50.1	110.090	0.120	-0.840	0.290
2020/01/31 15:19:50.2	110.110	0.130	-0.820	0.270
2020/01/31 15:19:50.3	110.130	0.140	-0.800	0.250
2020/01/31 15:19:50.4	110.150	0.140	-0.780	0.230
2020/01/31 15:19:50.5	110.170	0.140	-0.740	0.210
2020/01/31 15:19:50.6	110.190	0.140	-0.700	0.190
2020/01/31 15:19:50.7	110.210	0.140	-0.660	0.170
2020/01/31 15:19:50.8	110.230	0.130	-0.610	0.140
2020/01/31 15:19:50.9	110.260	0.130	-0.550	0.130
2020/01/31 15:19:51.0	110.290	0.120	-0.490	0.110
2020/01/31 15:19:51.1	110.310	0.100	-0.430	0.090
2020/01/31 15:19:51.2	110.340	0.090	-0.360	0.070
2020/01/31 15:19:51.3	110.370	0.080	-0.290	0.060
2020/01/31 15:19:51.4	110.390	0.060	-0.220	0.040
2020/01/31 15:19:51.5	110.420	0.040	-0.150	0.030
2020/01/31 15:19:51.6	110.450	0.020	-0.080	0.030
2020/01/31 15:19:51.7	110.480	0.010	-0.010	0.020
2020/01/31 15:19:51.8	110.500	-0.010	0.050	0.010
2020/01/31 15:19:51.9	110.530	-0.030	0.120	0.000
2020/01/31 15:19:52.0	110.550	-0.050	0.180	-0.000
2020/01/31 15:19:52.1	110.570	-0.070	0.240	-0.010
2020/01/31 15:19:52.2	110.590	-0.090	0.300	-0.010
2020/01/31 15:19:52.3	110.610	-0.110	0.350	-0.010
2020/01/31 15:19:52.4	110.630	-0.130	0.400	-0.010
2020/01/31 15:19:52.5	110.640	-0.140	0.440	-0.000
2020/01/31 15:19:52.6	110.650	-0.160	0.480	0.000
2020/01/31 15:19:52.7	110.660	-0.170	0.510	0.010
2020/01/31 15:19:52.8	110.670	-0.180	0.540	0.010
2020/01/31 15:19:52.9	110.680	-0.190	0.560	0.010
2020/01/31 15:19:53.0	110.680	-0.200	0.580	0.020
2020/01/31 15:19:53.1	110.680	-0.200	0.590	0.020
2020/01/31 15:19:53.2	110.680	-0.210	0.590	0.030
2020/01/31 15:19:53.3	110.680	-0.210	0.590	0.030
2020/01/31 15:19:53.4	110.670	-0.210	0.580	0.030
2020/01/31 15:19:53.5	110.660	-0.200	0.570	0.030
2020/01/31 15:19:53.6	110.660	-0.200	0.550	0.030
2020/01/31 15:19:53.7	110.650	-0.190	0.530	0.030
2020/01/31 15:19:53.8	110.640	-0.180	0.490	0.030
2020/01/31 15:19:53.9	110.630	-0.170	0.460	0.030
2020/01/31 15:19:54.0	110.620	-0.160	0.420	0.020
2020/01/31 15:19:54.1	110.600	-0.140	0.370	0.020
2020/01/31 15:19:54.2	110.590	-0.130	0.320	0.010
2020/01/31 15:19:54.3	110.580	-0.110	0.270	0.000
2020/01/31 15:19:54.4	110.560	-0.090	0.210	-0.000
2020/01/31 15:19:54.5	110.550	-0.070	0.160	-0.010
2020/01/31 15:19:54.6	110.530	-0.040	0.090	-0.020
2020/01/31 15:19:54.7	110.520	-0.020	0.020	-0.030
2020/01/31 15:19:54.8	110.500	0.000	-0.040	-0.040
2020/01/31 15:19:54.9	110.490	0.030	-0.110	-0.050
2020/01/31 15:19:55.0	110.480	0.060	-0.180	-0.050
2020/01/31 15:19:55.1	110.460	0.080	-0.250	-0.060
2020/01/31 15:19:55.2	110.450	0.110	-0.320	-0.070
2020/01/31 15:19:55.3	110.440	0.140	-0.390	-0.070
2020/01/31 15:19:55.4	110.430	0.160	-0.460	-0.080
2020/01/31 15:19:55.5	110.420	0.190	-0.530	-0.080
2020/01/31 15:19:55.6	110.410	0.210	-0.590	-0.080
2020/01/31 15:19:55.7	110.410	0.240	-0.650	-0.080
2020/01/31 15:19:55.8	110.400	0.260	-0.710	-0.080
2020/01/31 15:19:55.9	110.400	0.290	-0.770	-0.080
2020/01/31 15:19:56.0	110.400	0.310	-0.830	-0.080
2020/01/31 15:19:56.1	110.390	0.330	-0.880	-0.070
2020/01/31 15:19:56.2	110.400	0.350	-0.930	-0.070
2020/01/31 15:19:56.3	110.400	0.370	-0.970	-0.070
2020/01/31 15:19:56.4	110.400	0.390	-1.000	-0.060
2020/01/31 15:19:56.5	110.410	0.400	-1.040	-0.050
2020/01/31 15:19:56.6	110.410	0.420	-1.060	-0.040
2020/01/31 15:19:56.7	110.420	0.430	-1.080	-0.040
2020/01/31 15:19:56.8	110.430	0.440	-1.090	-0.030
2020/01/31 15:19:56.9	110.440	0.440	-1.100	-0.020
2020/01/31 15:19:57.0	110.450	0.450	-1.100	-0.010
2020/01/31 15:19:57.1	110.460	0.450	-1.090	0.000
2020/01/31 15:19:57.2	110.470	0.460	-1.080	0.010
2020/01/31 15:19:57.3	110.480	0.450	-1.050	0.020
2020/01/31 15:19:57.4	110.490	0.450	-1.030	0.030
2020/01/31 15:19:57.5	110.500	0.450	-0.990	0.040
2020/01/31 15:19:57.6	110.510	0.440	-0.950	0.060
2020/01/31 15:19:57.7	110.530	0.430	-0.910	0.060
2020/01/31 15:19:57.8	110.540	0.420	-0.860	0.070
2020/01/31 15:19:57.9	110.550	0.400	-0.800	0.080
2020/01/31 15:19:58.0	110.560	0.390	-0.740	0.090
2020/01/31 15:19:58.1	110.570	0.370	-0.670	0.090
2020/01/31 15:19:58.2	110.580	0.350	-0.600	0.100
2020/01/31 15:19:58.3	110.590	0.330	-0.530	0.100
2020/01/31 15:19:58.4	110.600	0.310	-0.450	0.110
2020/01/31 15:19:58.5	110.610	0.280	-0.380	0.110
2020/01/31 15:19:58.6	110.620	0.250	-0.290	0.110
2020/01/31 15:19:58.7	110.630	0.220	-0.220	0.110
2020/01/31 15:19:58.8	110.640	0.200	-0.140	0.110
2020/01/31 15:19:58.9	110.650	0.160	-0.060	0.110
2020/01/31 15:19:59.0	110.660	0.130	0.020	0.100
2020/01/31 15:19:59.1	110.670	0.100	0.090	0.100
2020/01/31 15:19:59.2	110.680	0.070	0.160	0.100
2020/01/31 15:19:59.3	110.690	0.030	0.230	0.090
2020/01/31 15:19:59.4	110.700	-0.000	0.300	0.080
2020/01/31 15:19:59.5	110.710	-0.040	0.360	0.080
2020/01/31 15:19:59.6	110.710	-0.070	0.420	0.070
2020/01/31 15:19:59.7	110.720	-0.100	0.470	0.070
2020/01/31 15:19:59.8	110.720	-0.140	0.520	0.060
2020/01/31 15:19:59.9	110.730	-0.170	0.560	0.060
2020/01/31 15:20:00.0	110.730	-0.200	0.600	0.050
2020/01/31 15:20:00.1	110.730	-0.230	0.630	0.050
2020/01/31 15:20:00.2	110.730	-0.260	0.650	0.050
2020/01/31 15:20:00.3	110.730	-0.290	0.670	0.050
2020/01/31 15:20:00.4	110.720	-0.320	0.690	0.050
2020/01/31 15:20:00.5	110.720	-0.350	0.700	0.050
2020/01/31 15:20:00.6	110.710	-0.370	0.700	0.050
2020/01/31 15:20:00.7	110.710	-0.390	0.700	0.060
2020/01/31 15:20:00.8	110.700	-0.410	0.690	0.060
2020/01/31 15:20:00.9	110.690	-0.430	0.680	0.070
2020/01/31 15:20:01.0	110.670	-0.450	0.660	0.080
2020/01/31 15:20:01.1	110.660	-0.460	0.630	0.090
2020/01/31 15:20:01.2	110.650	-0.480	0.600	0.110
2020/01/31 15:20:01.3	110.640	-0.490	0.570	0.120
2020/01/31 15:20:01.4	110.630	-0.490	0.530	0.140
2020/01/31 15:20:01.5	110.610	-0.500	0.490	0.150
2020/01/31 15:20:01.6	110.600	-0.500	0.440	0.170
2020/01/31 15:20:01.7	110.590	-0.500	0.400	0.190
2020/01/31 15:20:01.8	110.580	-0.500	0.340	0.210
2020/01/31 15:20:01.9	110.570	-0.500	0.290	0.220
2020/01/31 15:20:02.0	110.560	-0.490	0.230	0.240
2020/01/31 15:20:02.1	110.560	-0.490	0.170	0.260
2020/01/31 15:20:02.2	110.550	-0.480	0.120	0.270
2020/01/31 15:20:02.3	110.550	-0.470	0.050	0.290
2020/01/31 15:20:02.4	110.550	-0.450	-0.010	0.310
2020/01/31 15:20:02.5	110.550	-0.440	-0.070	0.320
2020/01/31 15:20:02.6	110.550	-0.420	-0.130	0.330
2020/01/31 15:20:02.7	110.550	-0.410	-0.190	0.340
2020/01/31 15:20:02.8	110.560	-0.390	-0.250	0.350
2020/01/31 15:20:02.9	110.570	-0.370	-0.320	0.360
2020/01/31 15:20:03.0	110.570	-0.350	-0.380	0.370
2020/01/31 15:20:03.1	110.580	-0.330	-0.430	0.380
2020/01/31 15:20:03.2	110.590	-0.310	-0.490	0.390
2020/01/31 15:20:03.3	110.610	-0.280	-0.540	0.400
2020/01/31 15:20:03.4	110.620	-0.260	-0.600	0.410
2020/01/31 15:20:03.5	110.640	-0.240	-0.650	0.410
2020/01/31 15:20:03.6	110.660	-0.210	-0.690	0.420
2020/01/31 15:20:03.7	110.670	-0.190	-0.730	0.430
2020/01/31 15:20:03.8	110.690	-0.170	-0.770	0.430
2020/01/31 15:20:03.9	110.710	-0.150	-0.810	0.440
2020/01/31 15:20:04.0	110.730	-0.120	-0.840	0.440
2020/01/31 15:20:04.1	110.750	-0.100	-0.870	0.450
2020/01/31 15:20:04.2	110.770	-0.080	-0.890	0.450
2020/01/31 15:20:04.3	110.790	-0.060	-0.910	0.450
2020/01/31 15:20:04.4	110.800	-0.040	-0.920	0.450
2020/01/31 15:20:04.5	110.820	-0.020	-0.930	0.460
2020/01/31 15:20:04.6	110.840	0.000	-0.940	0.460
2020/01/31 15:20:04.7	110.850	0.020	-0.940	0.460
2020/01/31 15:20:04.8	110.860	0.040	-0.940	0.460
2020/01/31 15:20:04.9	110.870	0.050	-0.930	0.460
2020/01/31 15:20:05.0	110.880	0.070	-0.920	0.460
2020/01/31 15:20:05.1	110.890	0.080	-0.900	0.470
2020/01/31 15:20:05.2	110.890	0.100	-0.880	0.470
2020/01/31 15:20:05.3	110.890	0.110	-0.860	0.470
2020/01/31 15:20:05.4	110.890	0.120	-0.830	0.470
2020/01/31 15:20:05.5	110.890	0.130	-0.800	0.460
2020/01/31 15:20:05.6	110.880	0.140	-0.760	0.470
2020/01/31 15:20:05.7	110.880	0.150	-0.730	0.460
2020/01/31 15:20:05.8	110.870	0.160	-0.680	0.460
2020/01/31 15:20:05.9	110.860	0.170	-0.640	0.450
2020/01/31 15:20:06.0	110.850	0.180	-0.590	0.440
2020/01/31 15:20:06.1	110.840	0.190	-0.550	0.430
2020/01/31 15:20:06.2	110.830	0.190	-0.500	0.420
2020/01/31 15:20:06.3	110.810	0.200	-0.450	0.400
2020/01/31 15:20:06.4	110.800	0.200	-0.400	0.390
2020/01/31 15:20:06.5	110.790	0.210	-0.350	0.370
2020/01/31 15:20:06.6	110.780	0.210	-0.290	0.350
2020/01/31 15:20:06.7	110.760	0.220	-0.240	0.320
2020/01/31 15:20:06.8	110.750	0.220	-0.190	0.300
2020/01/31 15:20:06.9	110.730	0.230	-0.140	0.270
2020/01/31 15:20:07.0	110.720	0.230	-0.100	0.240
2020/01/31 15:20:07.1	110.710	0.230	-0.050	0.200
2020/01/31 15:20:07.2	110.700	0.230	-0.010	0.170
2020/01/31 15:20:07.3	110.680	0.230	0.030	0.130
2020/01/31 15:20:07.4	110.670	0.240	0.070	0.100
2020/01/31 15:20:07.5	110.660	0.240	0.110	0.060
2020/01/31 15:20:07.6	110.640	0.240	0.150	0.030
2020/01/31 15:20:07.7	110.630	0.240	0.180	-0.010
2020/01/31 15:20:07.8	110.620	0.240	0.210	-0.040
2020/01/31 15:20:07.9	110.610	0.240	0.230	-0.070
2020/01/31 15:20:08.0	110.600	0.240	0.260	-0.110
2020/01/31 15:20:08.1	110.580	0.230	0.280	-0.140
2020/01/31 15:20:08.2	110.570	0.230	0.290	-0.170
2020/01/31 15:20:08.3	110.560	0.230	0.310	-0.190
2020/01/31 15:20:08.4	110.550	0.230	0.320	-0.220
2020/01/31 15:20:08.5	110.540	0.230	0.330	-0.240
2020/01/31 15:20:08.6	110.520	0.230	0.340	-0.270
2020/01/31 15:20:08.7	110.510	0.230	0.340	-0.290
2020/01/31 15:20:08.8	110.500	0.220	0.340	-0.310
2020/01/31 15:20:08.9	110.490	0.220	0.330	-0.330
2020/01/31 15:20:09.0	110.480	0.220	0.330	-0.340
2020/01/31 15:20:09.1	110.470	0.220	0.320	-0.360
2020/01/31 15:20:09.2	110.460	0.220	0.310	-0.370
2020/01/31 15:20:09.3	110.460	0.220	0.300	-0.390
2020/01/31 15:20:09.4	110.450	0.210	0.280	-0.400
2020/01/31 15:20:09.5	110.450	0.210	0.270	-0.420
2020/01/31 15:20:09.6	110.450	0.210	0.250	-0.430
2020/01/31 15:20:09.7	110.450	0.210	0.230	-0.440
2020/01/31 15:20:09.8	110.450	0.200	0.210	-0.460
2020/01/31 15:20:09.9	110.450	0.200	0.180	-0.470
2020/01/31 15:20:10.0	110.460	0.200	0.160	-0.490
2020/01/31 15:20:10.1	110.470	0.190	0.130	-0.510
2020/01/31 15:20:10.2	110.480	0.190	0.110	-0.520
2020/01/31 15:20:10.3	110.490	0.180	0.080	-0.540
2020/01/31 15:20:10.4	110.500	0.180	0.050	-0.560
2020/01/31 15:20:10.5	110.520	0.170	0.020	-0.580
2020/01/31 15:20:10.6	110.540	0.170	-0.010	-0.590
2020/01/31 15:20:10.7	110.560	0.160	-0.040	-0.610
2020/01/31 15:20:10.8	110.570	0.150	-0.070	-0.630
2020/01/31 15:20:10.9	110.590	0.140	-0.100	-0.640
2020/01/31 15:20:11.0	110.610	0.130	-0.130	-0.660
2020/01/31 15:20:11.1	110.630	0.120	-0.150	-0.670
2020/01/31 15:20:11.2	110.650	0.110	-0.180	-0.680
2020/01/31 15:20:11.3	110.660	0.100	-0.210	-0.690
2020/01/31 15:20:11.4	110.680	0.090	-0.230	-0.700
2020/01/31 15:20:11.5	110.700	0.080	-0.250	-0.700
2020/01/31 15:20:11.6	110.710	0.060	-0.280	-0.700
2020/01/31 15:20:11.7	110.720	0.050	-0.300	-0.700
2020/01/31 15:20:11.8	110.730	0.030	-0.310	-0.700
2020/01/31 15:20:11.9	110.740	0.020	-0.330	-0.690
2020/01/31 15:20:12.0	110.750	0.000	-0.340	-0.680
2020/01/31 15:20:12.1	110.760	-0.010	-0.350	-0.670
2020/01/31 15:20:12.2	110.760	-0.030	-0.360	-0.650
2020/01/31 15:20:12.3	110.770	-0.040	-0.370	-0.630
2020/01/31 15:20:12.4	110.770	-0.060	-0.370	-0.610
2020/01/31 15:20:12.5	110.770	-0.070	-0.370	-0.580
2020/01/31 15:20:12.6	110.770	-0.090	-0.370	-0.550
2020/01/31 15:20:12.7	110.770	-0.110	-0.370	-0.520
2020/01/31 15:20:12.8	110.770	-0.120	-0.360	-0.490
2020/01/31 15:20:12.9	110.770	-0.140	-0.360	-0.460
2020/01/31 15:20:13.0	110.770	-0.150	-0.350	-0.420
2020/01/31 15:20:13.1	110.760	-0.160	-0.340	-0.380
2020/01/31 15:20:13.2	110.760	-0.180	-0.340	-0.330
2020/01/31 15:20:13.3	110.760	-0.190	-0.330	-0.290
2020/01/31 15:20:13.4	110.750	-0.200	-0.320	-0.240
2020/01/31 15:20:13.5	110.750	-0.210	-0.310	-0.190
2020/01/31 15:20:13.6	110.750	-0.220	-0.300	-0.130
2020/01/31 15:20:13.7	110.750	-0.230	-0.290	-0.080
2020/01/31 15:20:13.8	110.740	-0.240	-0.270	-0.020
2020/01/31 15:20:13.9	110.740	-0.240	-0.260	0.030
2020/01/31 15:20:14.0	110.740	-0.250	-0.250	0.090
2020/01/31 15:20:14.1	110.740	-0.250	-0.240	0.150
2020/01/31 15:20:14.2	110.740	-0.250	-0.230	0.210
2020/01/31 15:20:14.3	110.740	-0.260	-0.220	0.270
2020/01/31 15:20:14.4	110.740	-0.260	-0.220	0.330
2020/01/31 15:20:14.5	110.730	-0.260	-0.210	0.400
2020/01/31 15:20:14.6	110.730	-0.250	-0.200	0.460
2020/01/31 15:20:14.7	110.730	-0.250	-0.190	0.520
2020/01/31 15:20:14.8	110.730	-0.250	-0.190	0.590
2020/01/31 15:20:14.9	110.730	-0.240	-0.180	0.650
2020/01/31 15:20:15.0	110.720	-0.240	-0.180	0.710
2020/01/31 15:20:15.1	110.720	-0.230	-0.170	0.780
2020/01/31 15:20:15.2	110.720	-0.220	-0.170	0.840
2020/01/31 15:20:15.3	110.710	-0.210	-0.170	0.900
2020/01/31 15:20:15.4	110.700	-0.210	-0.170	0.960
2020/01/31 15:20:15.5	110.700	-0.200	-0.170	1.020
2020/01/31 15:20:15.6	110.690	-0.190	-0.180	1.090
2020/01/31 15:20:15.7	110.680	-0.180	-0.180	1.150
2020/01/31 15:20:15.8	110.670	-0.170	-0.190	1.200
2020/01/31 15:20:15.9	110.660	-0.150	-0.200	1.260
2020/01/31 15:20:16.0	110.650	-0.140	-0.200	1.310
2020/01/31 15:20:16.1	110.630	-0.130	-0.210	1.370
2020/01/31 15:20:16.2	110.620	-0.120	-0.230	1.410
2020/01/31 15:20:16.3	110.600	-0.110	-0.240	1.460
2020/01/31 15:20:16.4	110.590	-0.100	-0.250	1.500
2020/01/31 15:20:16.5	110.570	-0.090	-0.270	1.540
2020/01/31 15:20:16.6	110.550	-0.080	-0.280	1.570
2020/01/31 15:20:16.7	110.540	-0.070	-0.300	1.600
2020/01/31 15:20:16.8	110.520	-0.060	-0.320	1.630
2020/01/31 15:20:16.9	110.500	-0.050	-0.330	1.650
2020/01/31 15:20:17.0	110.490	-0.040	-0.350	1.660
2020/01/31 15:20:17.1	110.470	-0.030	-0.370	1.670
2020/01/31 15:20:17.2	110.460	-0.020	-0.390	1.670
2020/01/31 15:20:17.3	110.440	-0.010	-0.410	1.660
2020/01/31 15:20:17.4	110.430	-0.000	-0.430	1.650
2020/01/31 15:20:17.5	110.420	0.010	-0.450	1.630
2020/01/31 15:20:17.6	110.410	0.010	-0.470	1.610
2020/01/31 15:20:17.7	110.400	0.020	-0.490	1.570
2020/01/31 15:20:17.8	110.390	0.030	-0.510	1.540
2020/01/31 15:20:17.9	110.380	0.040	-0.520	1.490
2020/01/31 15:20:18.0	110.380	0.040	-0.540	1.450
2020/01/31 15:20:18.1	110.370	0.050	-0.550	1.400
2020/01/31 15:20:18.2	110.370	0.060	-0.560	1.340
2020/01/31 15:20:18.3	110.370	0.060	-0.570	1.280
2020/01/31 15:20:18.4	110.370	0.070	-0.580	1.220
2020/01/31 15:20:18.5	110.370	0.080	-0.590	1.150
2020/01/31 15:20:18.6	110.380	0.080	-0.580	1.080
2020/01/31 15:20:18.7	110.380	0.090	-0.580	1.020
2020/01/31 15:20:18.8	110.390	0.090	-0.580	0.950
2020/01/31 15:20:18.9	110.390	0.100	-0.570	0.880
2020/01/31 15:20:19.0	110.400	0.110	-0.560	0.810
2020/01/31 15:20:19.1	110.410	0.110	-0.540	0.740
2020/01/31 15:20:19.2	110.410	0.120	-0.520	0.670
2020/01/31 15:20:19.3	110.420	0.120	-0.500	0.600
2020/01/31 15:20:19.4	110.430	0.120	-0.470	0.540
2020/01/31 15:20:19.5	110.440	0.130	-0.440	0.470
2020/01/31 15:20:19.6	110.450	0.130	-0.410	0.410
2020/01/31 15:20:19.7	110.460	0.130	-0.370	0.350
2020/01/31 15:20:19.8	110.470	0.130	-0.330	0.290
2020/01/31 15:20:19.9	110.480	0.140	-0.290	0.230
2020/01/31 15:20:20.0	110.490	0.140	-0.240	0.180
2020/01/31 15:20:20.1	110.500	0.130	-0.190	0.120
2020/01/31 15:20:20.2	110.510	0.130	-0.140	0.070
2020/01/31 15:20:20.3	110.520	0.130	-0.090	0.020
2020/01/31 15:20:20.4	110.530	0.130	-0.040	-0.030
2020/01/31 15:20:20.5	110.530	0.120	0.020	-0.080
2020/01/31 15:20:20.6	110.540	0.110	0.080	-0.130
2020/01/31 15:20:20.7	110.550	0.110	0.130	-0.180
2020/01/31 15:20:20.8	110.560	0.100	0.180	-0.230
2020/01/31 15:20:20.9	110.570	0.090	0.240	-0.280
2020/01/31 15:20:21.0	110.580	0.080	0.290	-0.330
2020/01/31 15:20:21.1	110.580	0.070	0.340	-0.380
2020/01/31 15:20:21.2	110.590	0.060	0.380	-0.430
2020/01/31 15:20:21.3	110.600	0.050	0.430	-0.480
2020/01/31 15:20:21.4	110.610	0.040	0.470	-0.530
2020/01/31 15:20:21.5	110.620	0.030	0.500	-0.590
2020/01/31 15:20:21.6	110.620	0.020	0.540	-0.640
2020/01/31 15:20:21.7	110.630	0.000	0.560	-0.700
2020/01/31 15:20:21.8	110.640	-0.010	0.590	-0.750
2020/01/31 15:20:21.9	110.640	-0.020	0.610	-0.810
2020/01/31 15:20:22.0	110.650	-0.030	0.620	-0.870
2020/01/31 15:20:22.1	110.660	-0.040	0.630	-0.930
2020/01/31 15:20:22.2	110.670	-0.060	0.630	-0.990
2020/01/31 15:20:22.3	110.680	-0.070	0.630	-1.050
2020/01/31 15:20:22.4	110.690	-0.070	0.620	-1.110
2020/01/31 15:20:22.5	110.690	-0.080	0.600	-1.160
2020/01/31 15:20:22.6	110.700	-0.090	0.580	-1.220
2020/01/31 15:20:22.7	110.710	-0.100	0.550	-1.270
2020/01/31 15:20:22.8	110.720	-0.100	0.520	-1.330
2020/01/31 15:20:22.9	110.730	-0.100	0.480	-1.380
2020/01/31 15:20:23.0	110.730	-0.110	0.440	-1.430
2020/01/31 15:20:23.1	110.740	-0.110	0.390	-1.480
2020/01/31 15:20:23.2	110.750	-0.100	0.340	-1.520
2020/01/31 15:20:23.3	110.760	-0.100	0.280	-1.560
2020/01/31 15:20:23.4	110.760	-0.100	0.220	-1.590
2020/01/31 15:20:23.5	110.770	-0.090	0.150	-1.620
2020/01/31 15:20:23.6	110.770	-0.090	0.080	-1.640
2020/01/31 15:20:23.7	110.770	-0.080	0.010	-1.660
2020/01/31 15:20:23.8	110.780	-0.070	-0.060	-1.670
2020/01/31 15:20:23.9	110.780	-0.060	-0.130	-1.670
2020/01/31 15:20:24.0	110.780	-0.040	-0.210	-1.670
2020/01/31 15:20:24.1	110.780	-0.030	-0.280	-1.660
2020/01/31 15:20:24.2	110.780	-0.020	-0.360	-1.640
2020/01/31 15:20:24.3	110.770	0.000	-0.430	-1.620
2020/01/31 15:20:24.4	110.770	0.020	-0.500	-1.590
2020/01/31 15:20:24.5	110.760	0.030	-0.570	-1.550
2020/01/31 15:20:24.6	110.750	0.050	-0.640	-1.500
2020/01/31 15:20:24.7	110.740	0.070	-0.700	-1.450
2020/01/31 15:20:24.8	110.730	0.090	-0.760	-1.400
2020/01/31 15:20:24.9	110.720	0.100	-0.810	-1.340
2020/01/31 15:20:25.0	110.710	0.120	-0.860	-1.270
2020/01/31 15:20:25.1	110.700	0.140	-0.900	-1.200
2020/01/31 15:20:25.2	110.690	0.150	-0.940	-1.130
2020/01/31 15:20:25.3	110.680	0.170	-0.970	-1.060
2020/01/31 15:20:25.4	110.680	0.180	-1.000	-0.980
2020/01/31 15:20:25.5	110.670	0.200	-1.010	-0.900
2020/01/31 15:20:25.6	110.660	0.210	-1.020	-0.820
2020/01/31 15:20:25.7	110.660	0.220	-1.030	-0.740
2020/01/31 15:20:25.8	110.650	0.220	-1.030	-0.670
2020/01/31 15:20:25.9	110.650	0.230	-1.020	-0.590
2020/01/31 15:20:26.0	110.650	0.240	-1.000	-0.510
2020/01/31 15:20:26.1	110.660	0.240	-0.980	-0.440
2020/01/31 15:20:26.2	110.660	0.240	-0.950	-0.360
2020/01/31 15:20:26.3	110.670	0.240	-0.920	-0.290
2020/01/31 15:20:26.4	110.670	0.230	-0.880	-0.220
2020/01/31 15:20:26.5	110.680	0.230	-0.840	-0.160
2020/01/31 15:20:26.6	110.690	0.220	-0.790	-0.090
2020/01/31 15:20:26.7	110.700	0.210	-0.740	-0.030
2020/01/31 15:20:26.8	110.720	0.200	-0.690	0.030
2020/01/31 15:20:26.9	110.730	0.180	-0.630	0.090
2020/01/31 15:20:27.0	110.750	0.170	-0.560	0.150
2020/01/31 15:20:27.1	110.770	0.150	-0.500	0.210
2020/01/31 15:20:27.2	110.780	0.130	-0.430	0.260
2020/01/31 15:20:27.3	110.800	0.110	-0.370	0.320
2020/01/31 15:20:27.4	110.820	0.090	-0.300	0.370
2020/01/31 15:20:27.5	110.840	0.070	-0.230	0.420
2020/01/31 15:20:27.6	110.860	0.040	-0.160	0.470
2020/01/31 15:20:27.7	110.870	0.020	-0.090	0.520
2020/01/31 15:20:27.8	110.890	-0.000	-0.030	0.570
2020/01/31 15:20:27.9	110.910	-0.030	0.030	0.620
2020/01/31 15:20:28.0	110.930	-0.050	0.090	0.670
2020/01/31 15:20:28.1	110.950	-0.070	0.150	0.720
2020/01/31 15:20:28.2	110.960	-0.090	0.200	0.760
2020/01/31 15:20:28.3	110.980	-0.120	0.250	0.810
2020/01/31 15:20:28.4	110.990	-0.140	0.290	0.860
2020/01/31 15:20:28.5	111.010	-0.150	0.330	0.910
2020/01/31 15:20:28.6	111.020	-0.170	0.370	0.960
2020/01/31 15:20:28.7	111.040	-0.190	0.390	1.000
2020/01/31 15:20:28.8	111.050	-0.200	0.420	1.050
2020/01/31 15:20:28.9	111.070	-0.220	0.440	1.100
2020/01/31 15:20:29.0	111.080	-0.230	0.450	1.140
2020/01/31 15:20:29.1	111.100	-0.240	0.450	1.190
2020/01/31 15:20:29.2	111.110	-0.240	0.450	1.230
2020/01/31 15:20:29.3	111.120	-0.250	0.440	1.270
2020/01/31 15:20:29.4	111.140	-0.250	0.430	1.310
2020/01/31 15:20:29.5	111.150	-0.260	0.410	1.350
2020/01/31 15:20:29.6	111.160	-0.260	0.390	1.380
2020/01/31 15:20:29.7	111.180	-0.250	0.370	1.410
2020/01/31 15:20:29.8	111.190	-0.250	0.330	1.450
2020/01/31 15:20:29.9	111.200	-0.240	0.300	1.480
2020/01/31 15:20:30.0	111.210	-0.240	0.260	1.500
2020/01/31 15:20:30.1	111.230	-0.230	0.210	1.530
2020/01/31 15:20:30.2	111.240	-0.220	0.170	1.550
2020/01/31 15:20:30.3	111.250	-0.210	0.120	1.570
2020/01/31 15:20:30.4	111.260	-0.200	0.070	1.580
2020/01/31 15:20:30.5	111.270	-0.190	0.010	1.600
2020/01/31 15:20:30.6	111.270	-0.180	-0.040	1.610
2020/01/31 15:20:30.7	111.270	-0.160	-0.090	1.620
2020/01/31 15:20:30.8	111.280	-0.150	-0.140	1.630
2020/01/31 15:20:30.9	111.280	-0.140	-0.190	1.630
2020/01/31 15:20:31.0	111.280	-0.120	-0.240	1.630
2020/01/31 15:20:31.1	111.280	-0.110	-0.290	1.630
2020/01/31 15:20:31.2	111.280	-0.100	-0.330	1.630
2020/01/31 15:20:31.3	111.270	-0.090	-0.380	1.620
2020/01/31 15:20:31.4	111.270	-0.070	-0.420	1.610
2020/01/31 15:20:31.5	111.260	-0.060	-0.460	1.600
2020/01/31 15:20:31.6	111.250	-0.050	-0.490	1.580
2020/01/31 15:20:31.7	111.240	-0.040	-0.520	1.570
2020/01/31 15:20:31.8	111.230	-0.040	-0.550	1.550
2020/01/31 15:20:31.9	111.220	-0.030	-0.570	1.530
2020/01/31 15:20:32.0	111.200	-0.020	-0.590	1.510
2020/01/31 15:20:32.1	111.190	-0.020	-0.610	1.480
2020/01/31 15:20:32.2	111.170	-0.010	-0.620	1.460
2020/01/31 15:20:32.3	111.160	-0.010	-0.630	1.430
2020/01/31 15:20:32.4	111.150	-0.010	-0.630	1.400
2020/01/31 15:20:32.5	111.130	-0.010	-0.630	1.360
2020/01/31 15:20:32.6	111.120	-0.010	-0.630	1.330
2020/01/31 15:20:32.7	111.110	-0.010	-0.620	1.290
2020/01/31 15:20:32.8	111.090	-0.010	-0.610	1.250
2020/01/31 15:20:32.9	111.080	-0.010	-0.600	1.200
2020/01/31 15:20:33.0	111.080	-0.010	-0.580	1.150
2020/01/31 15:20:33.1	111.070	-0.010	-0.560	1.100
2020/01/31 15:20:33.2	111.070	-0.020	-0.540	1.050
2020/01/31 15:20:33.3	111.070	-0.020	-0.510	0.990
2020/01/31 15:20:33.4	111.070	-0.020	-0.480	0.930
2020/01/31 15:20:33.5	111.070	-0.030	-0.450	0.870
2020/01/31 15:20:33.6	111.080	-0.030	-0.420	0.810
2020/01/31 15:20:33.7	111.090	-0.030	-0.390	0.740
2020/01/31 15:20:33.8	111.100	-0.030	-0.350	0.670
2020/01/31 15:20:33.9	111.110	-0.040	-0.310	0.600
2020/01/31 15:20:34.0	111.130	-0.040	-0.280	0.530
2020/01/31 15:20:34.1	111.150	-0.040	-0.240	0.460
2020/01/31 15:20:34.2	111.170	-0.040	-0.200	0.380
2020/01/31 15:20:34.3	111.190	-0.040	-0.160	0.310
2020/01/31 15:20:34.4	111.220	-0.040	-0.120	0.230
2020/01/31 15:20:34.5	111.240	-0.040	-0.080	0.150
2020/01/31 15:20:34.6	111.270	-0.040	-0.050	0.080
2020/01/31 15:20:34.7	111.300	-0.040	-0.010	0.010
2020/01/31 15:20:34.8	111.330	-0.030	0.020	-0.070
2020/01/31 15:20:34.9	111.360	-0.030	0.050	-0.150
2020/01/31 15:20:35.0	111.390	-0.030	0.080	-0.220
2020/01/31 15:20:35.1	111.420	-0.020	0.110	-0.300
2020/01/31 15:20:35.2	111.450	-0.020	0.130	-0.370
2020/01/31 15:20:35.3	111.480	-0.010	0.160	-0.440
2020/01/31 15:20:35.4	111.510	-0.010	0.180	-0.520
2020/01/31 15:20:35.5	111.540	-0.000	0.190	-0.590
2020/01/31 15:20:35.6	111.560	0.000	0.210	-0.660
2020/01/31 15:20:35.7	111.590	0.010	0.220	-0.730
2020/01/31 15:20:35.8	111.610	0.020	0.230	-0.800
2020/01/31 15:20:35.9	111.640	0.020	0.240	-0.870
2020/01/31 15:20:36.0	111.660	0.030	0.240	-0.930
2020/01/31 15:20:36.1	111.680	0.040	0.250	-1.000
2020/01/31 15:20:36.2	111.700	0.040	0.240	-1.060
2020/01/31 15:20:36.3	111.720	0.050	0.240	-1.130
2020/01/31 15:20:36.4	111.740	0.050	0.240	-1.190
2020/01/31 15:20:36.5	111.760	0.060	0.230	-1.250
2020/01/31 15:20:36.6	111.770	0.070	0.220	-1.300
2020/01/31 15:20:36.7	111.790	0.070	0.210	-1.360
2020/01/31 15:20:36.8	111.800	0.080	0.190	-1.410
2020/01/31 15:20:36.9	111.820	0.080	0.170	-1.460
2020/01/31 15:20:37.0	111.830	0.090	0.150	-1.510
2020/01/31 15:20:37.1	111.840	0.090	0.130	-1.560
2020/01/31 15:20:37.2	111.850	0.100	0.110	-1.600
2020/01/31 15:20:37.3	111.860	0.100	0.080	-1.640
2020/01/31 15:20:37.4	111.870	0.110	0.050	-1.670
2020/01/31 15:20:37.5	111.880	0.110	0.020	-1.700
2020/01/31 15:20:37.6	111.880	0.120	-0.010	-1.730
2020/01/31 15:20:37.7	111.890	0.130	-0.050	-1.750
2020/01/31 15:20:37.8	111.890	0.130	-0.080	-1.770
2020/01/31 15:20:37.9	111.890	0.140	-0.120	-1.780
2020/01/31 15:20:38.0	111.890	0.140	-0.160	-1.790
2020/01/31 15:20:38.1	111.900	0.150	-0.200	-1.800
2020/01/31 15:20:38.2	111.900	0.160	-0.240	-1.800
2020/01/31 15:20:38.3	111.900	0.170	-0.280	-1.790
2020/01/31 15:20:38.4	111.900	0.170	-0.330	-1.780
2020/01/31 15:20:38.5	111.900	0.180	-0.370	-1.770
2020/01/31 15:20:38.6	111.900	0.190	-0.410	-1.740
2020/01/31 15:20:38.7	111.900	0.200	-0.460	-1.720
2020/01/31 15:20:38.8	111.900	0.210	-0.500	-1.690
2020/01/31 15:20:38.9	111.900	0.210	-0.540	-1.660
2020/01/31 15:20:39.0	111.900	0.220	-0.580	-1.630
2020/01/31 15:20:39.1	111.900	0.230	-0.620	-1.590
2020/01/31 15:20:39.2	111.900	0.240	-0.660	-1.540
2020/01/31 15:20:39.3	111.910	0.240	-0.690	-1.490
2020/01/31 15:20:39.4	111.910	0.250	-0.730	-1.440
2020/01/31 15:20:39.5	111.910	0.260	-0.760	-1.380
2020/01/31 15:20:39.6	111.920	0.260	-0.780	-1.310
2020/01/31 15:20:39.7	111.930	0.270	-0.800	-1.240
2020/01/31 15:20:39.8	111.940	0.270	-0.820	-1.170
2020/01/31 15:20:39.9	111.940	0.270	-0.830	-1.100
2020/01/31 15:20:40.0	111.950	0.270	-0.840	-1.020
2020/01/31 15:20:40.1	111.960	0.270	-0.840	-0.940
2020/01/31 15:20:40.2	111.970	0.270	-0.840	-0.860
2020/01/31 15:20:40.3	111.980	0.270	-0.830	-0.770
2020/01/31 15:20:40.4	111.990	0.260	-0.820	-0.680
2020/01/31 15:20:40.5	112.000	0.260	-0.800	-0.590
2020/01/31 15:20:40.6	112.010	0.250	-0.780	-0.500
2020/01/31 15:20:40.7	112.020	0.240	-0.750	-0.400
2020/01/31 15:20:40.8	112.030	0.220	-0.710	-0.300
2020/01/31 15:20:40.9	112.040	0.210	-0.680	-0.200
2020/01/31 15:20:41.0	112.050	0.190	-0.630	-0.100
2020/01/31 15:20:41.1	112.060	0.170	-0.580	0.000
2020/01/31 15:20:41.2	112.060	0.150	-0.530	0.110
2020/01/31 15:20:41.3	112.070	0.130	-0.480	0.210
2020/01/31 15:20:41.4	112.080	0.110	-0.420	0.310
2020/01/31 15:20:41.5	112.080	0.080	-0.360	0.410
2020/01/31 15:20:41.6	112.090	0.050	-0.290	0.530
2020/01/31 15:20:41.7	112.090	0.020	-0.230	0.620
2020/01/31 15:20:41.8	112.090	-0.010	-0.170	0.720
2020/01/31 15:20:41.9	112.100	-0.040	-0.100	0.810
2020/01/31 15:20:42.0	112.100	-0.080	-0.040	0.900
2020/01/31 15:20:42.1	112.100	-0.110	0.020	0.990
2020/01/31 15:20:42.2	112.100	-0.150	0.090	1.070
2020/01/31 15:20:42.3	112.100	-0.180	0.150	1.150
2020/01/31 15:20:42.4	112.110	-0.220	0.200	1.220
2020/01/31 15:20:42.5	112.110	-0.250	0.260	1.290
2020/01/31 15:20:42.6	112.110	-0.290	0.310	1.350
2020/01/31 15:20:42.7	112.110	-0.320	0.360	1.410
2020/01/31 15:20:42.8	112.110	-0.350	0.400	1.460
2020/01/31 15:20:42.9	112.120	-0.380	0.440	1.510
2020/01/31 15:20:43.0	112.120	-0.410	0.470	1.550
2020/01/31 15:20:43.1	112.120	-0.440	0.500	1.590
2020/01/31 15:20:43.2	112.130	-0.470	0.530	1.620
2020/01/31 15:20:43.3	112.130	-0.490	0.550	1.650
2020/01/31 15:20:43.4	112.140	-0.510	0.570	1.670
2020/01/31 15:20:43.5	112.140	-0.530	0.580	1.690
2020/01/31 15:20:43.6	112.150	-0.540	0.580	1.700
2020/01/31 15:20:43.7	112.160	-0.550	0.580	1.710
2020/01/31 15:20:43.8	112.160	-0.560	0.580	1.720
2020/01/31 15:20:43.9	112.170	-0.570	0.570	1.720
2020/01/31 15:20:44.0	112.180	-0.570	0.560	1.720
2020/01/31 15:20:44.1	112.200	-0.560	0.540	1.710
2020/01/31 15:20:44.2	112.210	-0.560	0.520	1.710
2020/01/31 15:20:44.3	112.220	-0.550	0.500	1.700
2020/01/31 15:20:44.4	112.230	-0.540	0.470	1.680
2020/01/31 15:20:44.5	112.250	-0.520	0.440	1.670
2020/01/31 15:20:44.6	112.270	-0.500	0.410	1.650
2020/01/31 15:20:44.7	112.280	-0.480	0.370	1.630
2020/01/31 15:20:44.8	112.290	-0.450	0.330	1.610
2020/01/31 15:20:44.9	112.310	-0.430	0.290	1.590
2020/01/31 15:20:45.0	112.320	-0.390	0.240	1.570
2020/01/31 15:20:45.1	112.340	-0.360	0.190	1.550
2020/01/31 15:20:45.2	112.350	-0.330	0.150	1.520
2020/01/31 15:20:45.3	112.370	-0.290	0.100	1.500
2020/01/31 15:20:45.4	112.380	-0.250	0.050	1.470
2020/01/31 15:20:45.5	112.390	-0.210	-0.010	1.450
2020/01/31 15:20:45.6	112.410	-0.170	-0.060	1.420
2020/01/31 15:20:45.7	112.420	-0.120	-0.110	1.390
2020/01/31 15:20:45.8	112.430	-0.080	-0.170	1.360
2020/01/31 15:20:45.9	112.440	-0.040	-0.220	1.330
2020/01/31 15:20:46.0	112.450	0.010	-0.280	1.290
2020/01/31 15:20:46.1	112.460	0.050	-0.330	1.260
2020/01/31 15:20:46.2	112.470	0.100	-0.390	1.220
2020/01/31 15:20:46.3	112.480	0.140	-0.440	1.180
2020/01/31 15:20:46.4	112.490	0.180	-0.490	1.140
2020/01/31 15:20:46.5	112.500	0.230	-0.550	1.090
2020/01/31 15:20:46.6	112.500	0.270	-0.600	1.050
2020/01/31 15:20:46.7	112.510	0.310	-0.650	1.000
2020/01/31 15:20:46.8	112.520	0.350	-0.700	0.950
2020/01/31 15:20:46.9	112.530	0.380	-0.750	0.900
2020/01/31 15:20:47.0	112.530	0.420	-0.790	0.840
2020/01/31 15:20:47.1	112.540	0.450	-0.840	0.780
2020/01/31 15:20:47.2	112.550	0.490	-0.880	0.720
2020/01/31 15:20:47.3	112.550	0.510	-0.920	0.650
2020/01/31 15:20:47.4	112.560	0.540	-0.950	0.590
2020/01/31 15:20:47.5	112.570	0.570	-0.980	0.520
2020/01/31 15:20:47.6	112.570	0.590	-1.010	0.440
2020/01/31 15:20:47.7	112.580	0.610	-1.040	0.370
2020/01/31 15:20:47.8	112.580	0.620	-1.060	0.300
2020/01/31 15:20:47.9	112.590	0.640	-1.070	0.220
2020/01/31 15:20:48.0	112.600	0.650	-1.090	0.150
2020/01/31 15:20:48.1	112.600	0.660	-1.090	0.070
2020/01/31 15:20:48.2	112.610	0.660	-1.090	-0.000
2020/01/31 15:20:48.3	112.610	0.660	-1.090	-0.080
2020/01/31 15:20:48.4	112.610	0.660	-1.080	-0.150
2020/01/31 15:20:48.5	112.620	0.650	-1.060	-0.220
2020/01/31 15:20:48.6	112.620	0.640	-1.030	-0.290
2020/01/31 15:20:48.7	112.620	0.630	-1.000	-0.360
2020/01/31 15:20:48.8	112.620	0.620	-0.970	-0.430
2020/01/31 15:20:48.9	112.620	0.600	-0.920	-0.490
2020/01/31 15:20:49.0	112.620	0.580	-0.870	-0.560
2020/01/31 15:20:49.1	112.620	0.550	-0.810	-0.610
2020/01/31 15:20:49.2	112.620	0.520	-0.750	-0.670
2020/01/31 15:20:49.3	112.620	0.490	-0.680	-0.720
2020/01/31 15:20:49.4	112.620	0.460	-0.610	-0.770
2020/01/31 15:20:49.5	112.620	0.420	-0.530	-0.820
2020/01/31 15:20:49.6	112.620	0.390	-0.450	-0.860
2020/01/31 15:20:49.7	112.620	0.350	-0.360	-0.900
2020/01/31 15:20:49.8	112.620	0.300	-0.270	-0.930
2020/01/31 15:20:49.9	112.620	0.260	-0.180	-0.960
2020/01/31 15:20:50.0	112.620	0.210	-0.090	-0.990
2020/01/31 15:20:50.1	112.620	0.170	0.000	-1.010
2020/01/31 15:20:50.2	112.630	0.120	0.090	-1.030
2020/01/31 15:20:50.3	112.630	0.070	0.180	-1.040
2020/01/31 15:20:50.4	112.630	0.020	0.270	-1.050
2020/01/31 15:20:50.5	112.640	-0.030	0.360	-1.050
2020/01/31 15:20:50.6	112.650	-0.080	0.440	-1.050
2020/01/31 15:20:50.7	112.660	-0.130	0.530	-1.040
2020/01/31 15:20:50.8	112.670	-0.170	0.600	-1.040
2020/01/31 15:20:50.9	112.680	-0.220	0.670	-1.030
2020/01/31 15:20:51.0	112.690	-0.270	0.740	-1.010
2020/01/31 15:20:51.1	112.700	-0.320	0.790	-1.000
2020/01/31 15:20:51.2	112.710	-0.360	0.850	-0.980
2020/01/31 15:20:51.3	112.730	-0.400	0.890	-0.960
2020/01/31 15:20:51.4	112.740	-0.440	0.920	-0.940
2020/01/31 15:20:51.5	112.760	-0.480	0.950	-0.920
2020/01/31 15:20:51.6	112.780	-0.520	0.970	-0.890
2020/01/31 15:20:51.7	112.790	-0.550	0.990	-0.870
2020/01/31 15:20:51.8	112.810	-0.580	0.990	-0.840
2020/01/31 15:20:51.9	112.830	-0.610	0.980	-0.810
2020/01/31 15:20:52.0	112.860	-0.630	0.970	-0.790
2020/01/31 15:20:52.1	112.880	-0.660	0.950	-0.760
2020/01/31 15:20:52.2	112.900	-0.670	0.920	-0.730
2020/01/31 15:20:52.3	112.920	-0.690	0.880	-0.700
2020/01/31 15:20:52.4	112.950	-0.700	0.830	-0.670
2020/01/31 15:20:52.5	112.970	-0.710	0.780	-0.650
2020/01/31 15:20:52.6	112.990	-0.710	0.720	-0.610
2020/01/31 15:20:52.7	113.010	-0.710	0.650	-0.590
2020/01/31 15:20:52.8	113.040	-0.710	0.580	-0.560
2020/01/31 15:20:52.9	113.060	-0.700	0.500	-0.530
2020/01/31 15:20:53.0	113.090	-0.690	0.420	-0.500
2020/01/31 15:20:53.1	113.110	-0.680	0.340	-0.470
2020/01/31 15:20:53.2	113.130	-0.660	0.250	-0.430
2020/01/31 15:20:53.3	113.160	-0.640	0.160	-0.400
2020/01/31 15:20:53.4	113.180	-0.620	0.070	-0.370
2020/01/31 15:20:53.5	113.200	-0.590	-0.020	-0.330
2020/01/31 15:20:53.6	113.210	-0.560	-0.110	-0.290
2020/01/31 15:20:53.7	113.220	-0.530	-0.210	-0.250
2020/01/31 15:20:53.8	113.240	-0.500	-0.300	-0.200
2020/01/31 15:20:53.9	113.250	-0.460	-0.390	-0.150
2020/01/31 15:20:54.0	113.260	-0.430	-0.480	-0.090
2020/01/31 15:20:54.1	113.270	-0.390	-0.570	-0.040
2020/01/31 15:20:54.2	113.270	-0.350	-0.660	0.030
2020/01/31 15:20:54.3	113.270	-0.310	-0.740	0.090
2020/01/31 15:20:54.4	113.270	-0.270	-0.810	0.160
2020/01/31 15:20:54.5	113.270	-0.230	-0.890	0.240
2020/01/31 15:20:54.6	113.260	-0.180	-0.960	0.310
2020/01/31 15:20:54.7	113.250	-0.140	-1.020	0.390
2020/01/31 15:20:54.8	113.240	-0.100	-1.080	0.480
2020/01/31 15:20:54.9	113.230	-0.060	-1.130	0.560
2020/01/31 15:20:55.0	113.220	-0.020	-1.170	0.640
2020/01/31 15:20:55.1	113.210	0.020	-1.210	0.730
2020/01/31 15:20:55.2	113.190	0.060	-1.230	0.820
2020/01/31 15:20:55.3	113.180	0.100	-1.260	0.900
2020/01/31 15:20:55.4	113.160	0.140	-1.270	0.990
2020/01/31 15:20:55.5	113.140	0.170	-1.280	1.070
2020/01/31 15:20:55.6	113.130	0.210	-1.280	1.160
2020/01/31 15:20:55.7	113.110	0.240	-1.270	1.230
2020/01/31 15:20:55.8	113.090	0.270	-1.260	1.310
2020/01/31 15:20:55.9	113.070	0.300	-1.240	1.370
2020/01/31 15:20:56.0	113.050	0.320	-1.210	1.440
2020/01/31 15:20:56.1	113.040	0.350	-1.180	1.500
2020/01/31 15:20:56.2	113.020	0.370	-1.140	1.550
2020/01/31 15:20:56.3	113.000	0.390	-1.100	1.590
2020/01/31 15:20:56.4	112.980	0.410	-1.050	1.640
2020/01/31 15:20:56.5	112.960	0.430	-0.990	1.670
2020/01/31 15:20:56.6	112.950	0.440	-0.930	1.700
2020/01/31 15:20:56.7	112.930	0.450	-0.870	1.720
2020/01/31 15:20:56.8	112.910	0.460	-0.800	1.730
2020/01/31 15:20:56.9	112.900	0.470	-0.730	1.740
2020/01/31 15:20:57.0	112.880	0.470	-0.660	1.750
2020/01/31 15:20:57.1	112.870	0.470	-0.580	1.740
2020/01/31 15:20:57.2	112.860	0.470	-0.500	1.730
2020/01/31 15:20:57.3	112.840	0.470	-0.420	1.720
2020/01/31 15:20:57.4	112.830	0.470	-0.330	1.690
2020/01/31 15:20:57.5	112.820	0.460	-0.250	1.670
2020/01/31 15:20:57.6	112.820	0.450	-0.160	1.640
2020/01/31 15:20:57.7	112.810	0.440	-0.080	1.600
2020/01/31 15:20:57.8	112.800	0.420	0.010	1.560
2020/01/31 15:20:57.9	112.800	0.410	0.090	1.510
2020/01/31 15:20:58.0	112.790	0.390	0.170	1.450
2020/01/31 15:20:58.1	112.790	0.370	0.250	1.400
2020/01/31 15:20:58.2	112.790	0.350	0.330	1.340
2020/01/31 15:20:58.3	112.790	0.330	0.400	1.270
2020/01/31 15:20:58.4	112.800	0.300	0.470	1.200
2020/01/31 15:20:58.5	112.800	0.280	0.540	1.130
2020/01/31 15:20:58.6	112.810	0.260	0.600	1.060
2020/01/31 15:20:58.7	112.820	0.230	0.650	0.980
2020/01/31 15:20:58.8	112.830	0.210	0.700	0.900
2020/01/31 15:20:58.9	112.850	0.180	0.740	0.820
2020/01/31 15:20:59.0	112.860	0.160	0.780	0.740
2020/01/31 15:20:59.1	112.880	0.130	0.800	0.650
2020/01/31 15:20:59.2	112.890	0.110	0.820	0.570
2020/01/31 15:20:59.3	112.910	0.090	0.830	0.480
2020/01/31 15:20:59.4	112.930	0.070	0.840	0.400
2020/01/31 15:20:59.5	112.950	0.050	0.840	0.310
2020/01/31 15:20:59.6	112.970	0.030	0.820	0.230
2020/01/31 15:20:59.7	112.990	0.020	0.800	0.150
2020/01/31 15:20:59.8	113.010	0.010	0.780	0.070
2020/01/31 15:20:59.9	113.030	-0.010	0.740	-0.010
2020/01/31 15:21:00.0	113.050	-0.010	0.700	-0.090
2020/01/31 15:21:00.1	113.070	-0.020	0.640	-0.170
2020/01/31 15:21:00.2	113.090	-0.030	0.590	-0.240
2020/01/31 15:21:00.3	113.110	-0.030	0.520	-0.310
2020/01/31 15:21:00.4	113.130	-0.030	0.450	-0.380
2020/01/31 15:21:00.5	113.150	-0.030	0.370	-0.450
2020/01/31 15:21:00.6	113.180	-0.020	0.290	-0.520
2020/01/31 15:21:00.7	113.200	-0.020	0.210	-0.580
2020/01/31 15:21:00.8	113.210	-0.010	0.120	-0.640
2020/01/31 15:21:00.9	113.230	-0.000	0.030	-0.700
2020/01/31 15:21:01.0	113.250	0.010	-0.070	-0.760
2020/01/31 15:21:01.1	113.270	0.020	-0.160	-0.810
2020/01/31 15:21:01.2	113.280	0.030	-0.250	-0.860
2020/01/31 15:21:01.3	113.290	0.040	-0.340	-0.910
2020/01/31 15:21:01.4	113.310	0.050	-0.430	-0.950
2020/01/31 15:21:01.5	113.320	0.060	-0.520	-0.990
2020/01/31 15:21:01.6	113.340	0.070	-0.600	-1.030
2020/01/31 15:21:01.7	113.350	0.080	-0.670	-1.060
2020/01/31 15:21:01.8	113.350	0.080	-0.740	-1.090
2020/01/31 15:21:01.9	113.360	0.090	-0.800	-1.120
2020/01/31 15:21:02.0	113.370	0.100	-0.860	-1.140
2020/01/31 15:21:02.1	113.370	0.100	-0.900	-1.160
2020/01/31 15:21:02.2	113.370	0.100	-0.940	-1.180
2020/01/31 15:21:02.3	113.380	0.100	-0.970	-1.190
2020/01/31 15:21:02.4	113.380	0.100	-1.000	-1.190
2020/01/31 15:21:02.5	113.380	0.090	-1.010	-1.190
2020/01/31 15:21:02.6	113.380	0.080	-1.010	-1.190
2020/01/31 15:21:02.7	113.380	0.070	-1.010	-1.180
2020/01/31 15:21:02.8	113.380	0.060	-1.000	-1.170
2020/01/31 15:21:02.9	113.370	0.050	-0.980	-1.150
2020/01/31 15:21:03.0	113.370	0.030	-0.960	-1.130
2020/01/31 15:21:03.1	113.360	0.010	-0.930	-1.100
2020/01/31 15:21:03.2	113.360	-0.000	-0.890	-1.070
2020/01/31 15:21:03.3	113.350	-0.030	-0.850	-1.030
2020/01/31 15:21:03.4	113.340	-0.050	-0.800	-0.990
2020/01/31 15:21:03.5	113.330	-0.070	-0.750	-0.940
2020/01/31 15:21:03.6	113.320	-0.100	-0.690	-0.890
2020/01/31 15:21:03.7	113.310	-0.120	-0.630	-0.830
2020/01/31 15:21:03.8	113.290	-0.150	-0.570	-0.770
2020/01/31 15:21:03.9	113.280	-0.170	-0.510	-0.710
2020/01/31 15:21:04.0	113.270	-0.200	-0.450	-0.640
2020/01/31 15:21:04.1	113.250	-0.220	-0.390	-0.570
2020/01/31 15:21:04.2	113.240	-0.240	-0.330	-0.490
2020/01/31 15:21:04.3	113.220	-0.270	-0.270	-0.420
2020/01/31 15:21:04.4	113.200	-0.290	-0.210	-0.340
2020/01/31 15:21:04.5	113.190	-0.310	-0.160	-0.250
2020/01/31 15:21:04.6	113.170	-0.330	-0.110	-0.160
2020/01/31 15:21:04.7	113.160	-0.340	-0.060	-0.080
2020/01/31 15:21:04.8	113.140	-0.360	-0.020	0.010
2020/01/31 15:21:04.9	113.130	-0.370	0.020	0.090
2020/01/31 15:21:05.0	113.110	-0.380	0.050	0.180
2020/01/31 15:21:05.1	113.100	-0.390	0.090	0.260
2020/01/31 15:21:05.2	113.090	-0.390	0.110	0.340
2020/01/31 15:21:05.3	113.080	-0.400	0.130	0.420
2020/01/31 15:21:05.4	113.070	-0.400	0.150	0.500
2020/01/31 15:21:05.5	113.060	-0.400	0.170	0.570
2020/01/31 15:21:05.6	113.050	-0.390	0.180	0.640
2020/01/31 15:21:05.7	113.050	-0.380	0.190	0.710
2020/01/31 15:21:05.8	113.050	-0.380	0.190	0.770
2020/01/31 15:21:05.9	113.050	-0.360	0.190	0.830
2020/01/31 15:21:06.0	113.050	-0.350	0.190	0.880
2020/01/31 15:21:06.1	113.060	-0.340	0.180	0.920
2020/01/31 15:21:06.2	113.070	-0.320	0.170	0.960
2020/01/31 15:21:06.3	113.080	-0.300	0.160	1.000
2020/01/31 15:21:06.4	113.090	-0.280	0.150	1.030
2020/01/31 15:21:06.5	113.100	-0.260	0.140	1.050
2020/01/31 15:21:06.6	113.120	-0.240	0.130	1.070
2020/01/31 15:21:06.7	113.140	-0.210	0.110	1.080
2020/01/31 15:21:06.8	113.160	-0.190	0.100	1.090
2020/01/31 15:21:06.9	113.180	-0.160	0.080	1.090
2020/01/31 15:21:07.0	113.200	-0.140	0.070	1.090
2020/01/31 15:21:07.1	113.220	-0.110	0.050	1.080
2020/01/31 15:21:07.2	113.240	-0.090	0.040	1.060
2020/01/31 15:21:07.3	113.260	-0.060	0.020	1.050
2020/01/31 15:21:07.4	113.290	-0.040	0.010	1.030
2020/01/31 15:21:07.5	113.310	-0.010	-0.000	1.000
2020/01/31 15:21:07.6	113.330	0.010	-0.010	0.980
2020/01/31 15:21:07.7	113.360	0.040	-0.030	0.950
2020/01/31 15:21:07.8	113.380	0.060	-0.040	0.910
2020/01/31 15:21:07.9	113.400	0.080	-0.050	0.880
2020/01/31 15:21:08.0	113.420	0.100	-0.060	0.840
2020/01/31 15:21:08.1	113.440	0.120	-0.070	0.810
2020/01/31 15:21:08.2	113.460	0.140	-0.080	0.770
2020/01/31 15:21:08.3	113.480	0.160	-0.090	0.730
2020/01/31 15:21:08.4	113.490	0.180	-0.110	0.690
2020/01/31 15:21:08.5	113.510	0.190	-0.120	0.650
2020/01/31 15:21:08.6	113.530	0.210	-0.140	0.610
2020/01/31 15:21:08.7	113.540	0.220	-0.150	0.570
2020/01/31 15:21:08.8	113.550	0.230	-0.170	0.530
2020/01/31 15:21:08.9	113.570	0.240	-0.190	0.490
2020/01/31 15:21:09.0	113.580	0.250	-0.210	0.460
2020/01/31 15:21:09.1	113.590	0.260	-0.230	0.420
2020/01/31 15:21:09.2	113.600	0.270	-0.260	0.390
2020/01/31 15:21:09.3	113.600	0.270	-0.280	0.360
2020/01/31 15:21:09.4	113.610	0.280	-0.310	0.330
2020/01/31 15:21:09.5	113.610	0.280	-0.340	0.310
2020/01/31 15:21:09.6	113.620	0.280	-0.360	0.290
2020/01/31 15:21:09.7	113.630	0.290	-0.390	0.270
2020/01/31 15:21:09.8	113.630	0.290	-0.410	0.250
2020/01/31 15:21:09.9	113.630	0.280	-0.440	0.240
2020/01/31 15:21:10.0	113.630	0.280	-0.460	0.230
2020/01/31 15:21:10.1	113.630	0.280	-0.490	0.220
2020/01/31 15:21:10.2	113.630	0.270	-0.510	0.210
2020/01/31 15:21:10.3	113.620	0.270	-0.530	0.210
2020/01/31 15:21:10.4	113.620	0.260	-0.550	0.210
2020/01/31 15:21:10.5	113.610	0.260	-0.560	0.210
2020/01/31 15:21:10.6	113.610	0.250	-0.580	0.210
2020/01/31 15:21:10.7	113.600	0.240	-0.590	0.220
2020/01/31 15:21:10.8	113.590	0.230	-0.590	0.220
2020/01/31 15:21:10.9	113.580	0.220	-0.590	0.230
2020/01/31 15:21:11.0	113.570	0.210	-0.590	0.230
2020/01/31 15:21:11.1	113.550	0.200	-0.580	0.240
2020/01/31 15:21:11.2	113.540	0.190	-0.570	0.250
2020/01/31 15:21:11.3	113.520	0.180	-0.560	0.250
2020/01/31 15:21:11.4	113.510	0.170	-0.540	0.260
2020/01/31 15:21:11.5	113.490	0.150	-0.520	0.260
2020/01/31 15:21:11.6	113.470	0.140	-0.490	0.270
2020/01/31 15:21:11.7	113.450	0.130	-0.460	0.270
2020/01/31 15:21:11.8	113.430	0.120	-0.430	0.270
2020/01/31 15:21:11.9	113.400	0.110	-0.400	0.270
2020/01/31 15:21:12.0	113.380	0.090	-0.360	0.260
2020/01/31 15:21:12.1	113.360	0.080	-0.320	0.250
2020/01/31 15:21:12.2	113.340	0.070	-0.270	0.240
2020/01/31 15:21:12.3	113.320	0.060	-0.230	0.230
2020/01/31 15:21:12.4	113.300	0.040	-0.190	0.210
2020/01/31 15:21:12.5	113.290	0.030	-0.140	0.200
2020/01/31 15:21:12.6	113.270	0.020	-0.100	0.170
2020/01/31 15:21:12.7	113.250	0.010	-0.050	0.150
2020/01/31 15:21:12.8	113.240	-0.010	-0.010	0.120
2020/01/31 15:21:12.9	113.230	-0.020	0.040	0.100
2020/01/31 15:21:13.0	113.230	-0.030	0.080	0.070
2020/01/31 15:21:13.1	113.220	-0.040	0.120	0.040
2020/01/31 15:21:13.2	113.220	-0.060	0.160	0.010
2020/01/31 15:21:13.3	113.230	-0.070	0.190	-0.030
2020/01/31 15:21:13.4	113.230	-0.080	0.220	-0.060
2020/01/31 15:21:13.5	113.240	-0.090	0.250	-0.090
2020/01/31 15:21:13.6	113.250	-0.110	0.270	-0.120
2020/01/31 15:21:13.7	113.270	-0.120	0.290	-0.150
2020/01/31 15:21:13.8	113.280	-0.130	0.310	-0.180
2020/01/31 15:21:13.9	113.300	-0.140	0.320	-0.210
2020/01/31 15:21:14.0	113.320	-0.150	0.330	-0.230
2020/01/31 15:21:14.1	113.340	-0.170	0.330	-0.260
2020/01/31 15:21:14.2	113.360	-0.180	0.330	-0.280
2020/01/31 15:21:14.3	113.380	-0.190	0.330	-0.300
2020/01/31 15:21:14.4	113.410	-0.200	0.320	-0.310
2020/01/31 15:21:14.5	113.430	-0.210	0.310	-0.320
2020/01/31 15:21:14.6	113.460	-0.220	0.290	-0.330
2020/01/31 15:21:14.7	113.480	-0.220	0.270	-0.340
2020/01/31 15:21:14.8	113.510	-0.230	0.250	-0.340
2020/01/31 15:21:14.9	113.530	-0.240	0.220	-0.340
2020/01/31 15:21:15.0	113.550	-0.240	0.190	-0.340
2020/01/31 15:21:15.1	113.580	-0.250	0.160	-0.330
2020/01/31 15:21:15.2	113.600	-0.250	0.120	-0.330
2020/01/31 15:21:15.3	113.620	-0.250	0.080	-0.310
2020/01/31 15:21:15.4	113.650	-0.260	0.040	-0.300
2020/01/31 15:21:15.5	113.670	-0.260	0.000	-0.290
2020/01/31 15:21:15.6	113.680	-0.250	-0.030	-0.270
2020/01/31 15:21:15.7	113.700	-0.250	-0.080	-0.250
2020/01/31 15:21:15.8	113.720	-0.250	-0.120	-0.240
2020/01/31 15:21:15.9	113.740	-0.240	-0.160	-0.220
2020/01/31 15:21:16.0	113.760	-0.230	-0.200	-0.200
2020/01/31 15:21:16.1	113.770	-0.220	-0.240	-0.180
2020/01/31 15:21:16.2	113.790	-0.210	-0.280	-0.160
2020/01/31 15:21:16.3	113.800	-0.200	-0.310	-0.140
2020/01/31 15:21:16.4	113.820	-0.180	-0.350	-0.120
2020/01/31 15:21:16.5	113.830	-0.170	-0.380	-0.100
2020/01/31 15:21:16.6	113.840	-0.150	-0.410	-0.080
2020/01/31 15:21:16.7	113.850	-0.140	-0.440	-0.070
2020/01/31 15:21:16.8	113.860	-0.120	-0.470	-0.050
2020/01/31 15:21:16.9	113.870	-0.100	-0.490	-0.030
2020/01/31 15:21:17.0	113.880	-0.080	-0.510	-0.010
2020/01/31 15:21:17.1	113.880	-0.050	-0.530	0.010
2020/01/31 15:21:17.2	113.890	-0.030	-0.550	0.030
2020/01/31 15:21:17.3	113.890	-0.010	-0.570	0.040
2020/01/31 15:21:17.4	113.900	0.020	-0.580	0.060
2020/01/31 15:21:17.5	113.900	0.040	-0.590	0.080
2020/01/31 15:21:17.6	113.890	0.070	-0.600	0.100
2020/01/31 15:21:17.7	113.890	0.090	-0.610	0.120
2020/01/31 15:21:17.8	113.890	0.120	-0.620	0.140
2020/01/31 15:21:17.9	113.880	0.140	-0.630	0.160
2020/01/31 15:21:18.0	113.880	0.170	-0.630	0.180
2020/01/31 15:21:18.1	113.870	0.200	-0.640	0.210
2020/01/31 15:21:18.2	113.860	0.220	-0.640	0.230
2020/01/31 15:21:18.3	113.850	0.250	-0.640	0.250
2020/01/31 15:21:18.4	113.840	0.270	-0.640	0.280
2020/01/31 15:21:18.5	113.820	0.290	-0.640	0.300
2020/01/31 15:21:18.6	113.810	0.310	-0.640	0.330
2020/01/31 15:21:18.7	113.790	0.330	-0.630	0.360
2020/01/31 15:21:18.8	113.770	0.350	-0.620	0.390
2020/01/31 15:21:18.9	113.750	0.370	-0.610	0.410
2020/01/31 15:21:19.0	113.740	0.390	-0.600	0.440
2020/01/31 15:21:19.1	113.720	0.400	-0.580	0.470
2020/01/31 15:21:19.2	113.700	0.410	-0.560	0.490
2020/01/31 15:21:19.3	113.680	0.420	-0.540	0.520
2020/01/31 15:21:19.4	113.660	0.430	-0.510	0.550
2020/01/31 15:21:19.5	113.640	0.430	-0.490	0.570
2020/01/31 15:21:19.6	113.630	0.430	-0.450	0.600
2020/01/31 15:21:19.7	113.610	0.430	-0.420	0.620
2020/01/31 15:21:19.8	113.590	0.420	-0.380	0.640
2020/01/31 15:21:19.9	113.580	0.420	-0.340	0.660
2020/01/31 15:21:20.0	113.560	0.410	-0.290	0.680
2020/01/31 15:21:20.1	113.550	0.390	-0.250	0.690
2020/01/31 15:21:20.2	113.540	0.380	-0.200	0.710
2020/01/31 15:21:20.3	113.520	0.360	-0.150	0.720
2020/01/31 15:21:20.4	113.510	0.340	-0.100	0.720
2020/01/31 15:21:20.5	113.500	0.310	-0.040	0.730
2020/01/31 15:21:20.6	113.500	0.290	0.010	0.730
2020/01/31 15:21:20.7	113.490	0.260	0.070	0.730
2020/01/31 15:21:20.8	113.480	0.230	0.120	0.730
2020/01/31 15:21:20.9	113.480	0.200	0.170	0.720
2020/01/31 15:21:21.0	113.470	0.170	0.220	0.710
2020/01/31 15:21:21.1	113.460	0.140	0.270	0.700
2020/01/31 15:21:21.2	113.460	0.100	0.320	0.680
2020/01/31 15:21:21.3	113.460	0.070	0.360	0.670
2020/01/31 15:21:21.4	113.450	0.040	0.400	0.650
2020/01/31 15:21:21.5	113.450	0.000	0.430	0.630
2020/01/31 15:21:21.6	113.460	-0.030	0.460	0.610
2020/01/31 15:21:21.7	113.460	-0.060	0.480	0.580
2020/01/31 15:21:21.8	113.460	-0.090	0.500	0.560
2020/01/31 15:21:21.9	113.460	-0.120	0.510	0.530
2020/01/31 15:21:22.0	113.470	-0.150	0.510	0.500
2020/01/31 15:21:22.1	113.470	-0.170	0.510	0.470
2020/01/31 15:21:22.2	113.470	-0.200	0.510	0.440
2020/01/31 15:21:22.3	113.480	-0.220	0.490	0.400
2020/01/31 15:21:22.4	113.490	-0.240	0.470	0.370
2020/01/31 15:21:22.5	113.500	-0.250	0.450	0.340
2020/01/31 15:21:22.6	113.510	-0.270	0.420	0.300
2020/01/31 15:21:22.7	113.520	-0.280	0.390	0.260
2020/01/31 15:21:22.8	113.540	-0.290	0.350	0.230
2020/01/31 15:21:22.9	113.550	-0.290	0.300	0.190
2020/01/31 15:21:23.0	113.570	-0.300	0.250	0.160
2020/01/31 15:21:23.1	113.590	-0.300	0.200	0.120
2020/01/31 15:21:23.2	113.610	-0.300	0.140	0.090
2020/01/31 15:21:23.3	113.630	-0.290	0.090	0.050
2020/01/31 15:21:23.4	113.660	-0.290	0.030	0.020
2020/01/31 15:21:23.5	113.680	-0.280	-0.030	-0.020
2020/01/31 15:21:23.6	113.710	-0.270	-0.100	-0.050
2020/01/31 15:21:23.7	113.730	-0.250	-0.160	-0.080
2020/01/31 15:21:23.8	113.760	-0.240	-0.230	-0.110
2020/01/31 15:21:23.9	113.790	-0.230	-0.290	-0.140
2020/01/31 15:21:24.0	113.820	-0.210	-0.350	-0.160
2020/01/31 15:21:24.1	113.850	-0.190	-0.410	-0.190
2020/01/31 15:21:24.2	113.880	-0.180	-0.460	-0.210
2020/01/31 15:21:24.3	113.910	-0.160	-0.520	-0.230
2020/01/31 15:21:24.4	113.940	-0.140	-0.570	-0.250
2020/01/31 15:21:24.5	113.970	-0.120	-0.620	-0.260
2020/01/31 15:21:24.6	113.990	-0.100	-0.660	-0.270
2020/01/31 15:21:24.7	114.020	-0.090	-0.700	-0.280
2020/01/31 15:21:24.8	114.050	-0.070	-0.740	-0.290
2020/01/31 15:21:24.9	114.070	-0.050	-0.770	-0.300
2020/01/31 15:21:25.0	114.090	-0.030	-0.800	-0.300
2020/01/31 15:21:25.1	114.110	-0.020	-0.820	-0.300
2020/01/31 15:21:25.2	114.130	-0.000	-0.840	-0.300
2020/01/31 15:21:25.3	114.150	0.010	-0.860	-0.300
2020/01/31 15:21:25.4	114.160	0.020	-0.870	-0.290
2020/01/31 15:21:25.5	114.170	0.030	-0.870	-0.280
2020/01/31 15:21:25.6	114.170	0.040	-0.870	-0.270
2020/01/31 15:21:25.7	114.170	0.050	-0.870	-0.260
2020/01/31 15:21:25.8	114.170	0.060	-0.860	-0.240
2020/01/31 15:21:25.9	114.170	0.070	-0.840	-0.220
2020/01/31 15:21:26.0	114.160	0.070	-0.820	-0.200
2020/01/31 15:21:26.1	114.150	0.070	-0.800	-0.170
2020/01/31 15:21:26.2	114.130	0.070	-0.770	-0.150
2020/01/31 15:21:26.3	114.110	0.070	-0.740	-0.120
2020/01/31 15:21:26.4	114.090	0.070	-0.700	-0.090
2020/01/31 15:21:26.5	114.060	0.070	-0.660	-0.050
2020/01/31 15:21:26.6	114.040	0.070	-0.620	-0.010
2020/01/31 15:21:26.7	114.000	0.060	-0.570	0.020
2020/01/31 15:21:26.8	113.970	0.050	-0.520	0.060
2020/01/31 15:21:26.9	113.940	0.050	-0.470	0.090
2020/01/31 15:21:27.0	113.900	0.040	-0.410	0.130
2020/01/31 15:21:27.1	113.860	0.030	-0.350	0.160
2020/01/31 15:21:27.2	113.830	0.020	-0.290	0.200
2020/01/31 15:21:27.3	113.790	0.010	-0.230	0.230
2020/01/31 15:21:27.4	113.750	-0.010	-0.170	0.270
2020/01/31 15:21:27.5	113.720	-0.020	-0.100	0.300
2020/01/31 15:21:27.6	113.690	-0.030	-0.030	0.330
2020/01/31 15:21:27.7	113.650	-0.050	0.030	0.360
2020/01/31 15:21:27.8	113.620	-0.060	0.100	0.390
2020/01/31 15:21:27.9	113.590	-0.070	0.160	0.420
2020/01/31 15:21:28.0	113.570	-0.090	0.230	0.440
2020/01/31 15:21:28.1	113.540	-0.100	0.290	0.460
2020/01/31 15:21:28.2	113.520	-0.110	0.350	0.480
2020/01/31 15:21:28.3	113.500	-0.130	0.410	0.500
2020/01/31 15:21:28.4	113.480	-0.140	0.470	0.510
2020/01/31 15:21:28.5	113.470	-0.150	0.520	0.520
2020/01/31 15:21:28.6	113.470	-0.160	0.560	0.530
2020/01/31 15:21:28.7	113.460	-0.170	0.610	0.540
2020/01/31 15:21:28.8	113.450	-0.180	0.650	0.540
2020/01/31 15:21:28.9	113.450	-0.190	0.690	0.540
2020/01/31 15:21:29.0	113.460	-0.190	0.720	0.530
2020/01/31 15:21:29.1	113.460	-0.200	0.740	0.530
2020/01/31 15:21:29.2	113.470	-0.200	0.760	0.510
2020/01/31 15:21:29.3	113.480	-0.200	0.770	0.500
2020/01/31 15:21:29.4	113.500	-0.200	0.770	0.490
2020/01/31 15:21:29.5	113.510	-0.200	0.770	0.470
2020/01/31 15:21:29.6	113.540	-0.190	0.760	0.450
2020/01/31 15:21:29.7	113.560	-0.190	0.740	0.430
2020/01/31 15:21:29.8	113.580	-0.180	0.720	0.400
2020/01/31 15:21:29.9	113.610	-0.170	0.680	0.380
2020/01/31 15:21:30.0	113.630	-0.160	0.640	0.350
2020/01/31 15:21:30.1	113.660	-0.140	0.590	0.330
2020/01/31 15:21:30.2	113.690	-0.130	0.530	0.300
2020/01/31 15:21:30.3	113.710	-0.110	0.470	0.270
2020/01/31 15:21:30.4	113.740	-0.090	0.400	0.240
2020/01/31 15:21:30.5	113.770	-0.070	0.320	0.210
2020/01/31 15:21:30.6	113.810	-0.050	0.240	0.170
2020/01/31 15:21:30.7	113.840	-0.030	0.150	0.140
2020/01/31 15:21:30.8	113.870	-0.000	0.060	0.110
2020/01/31 15:21:30.9	113.900	0.020	-0.030	0.080
2020/01/31 15:21:31.0	113.920	0.050	-0.130	0.040
2020/01/31 15:21:31.1	113.950	0.070	-0.230	0.010
2020/01/31 15:21:31.2	113.980	0.090	-0.330	-0.020
2020/01/31 15:21:31.3	114.010	0.120	-0.420	-0.050
2020/01/31 15:21:31.4	114.030	0.140	-0.520	-0.080
2020/01/31 15:21:31.5	114.060	0.170	-0.620	-0.100
2020/01/31 15:21:31.6	114.070	0.190	-0.720	-0.130
2020/01/31 15:21:31.7	114.090	0.210	-0.810	-0.150
2020/01/31 15:21:31.8	114.110	0.230	-0.890	-0.170
2020/01/31 15:21:31.9	114.130	0.250	-0.970	-0.180
2020/01/31 15:21:32.0	114.140	0.270	-1.050	-0.190
2020/01/31 15:21:32.1	114.160	0.280	-1.120	-0.200
2020/01/31 15:21:32.2	114.170	0.300	-1.180	-0.200
2020/01/31 15:21:32.3	114.170	0.310	-1.230	-0.200
2020/01/31 15:21:32.4	114.180	0.320	-1.280	-0.190
2020/01/31 15:21:32.5	114.180	0.330	-1.320	-0.180
2020/01/31 15:21:32.6	114.180	0.330	-1.350	-0.150
2020/01/31 15:21:32.7	114.180	0.330	-1.370	-0.130
2020/01/31 15:21:32.8	114.170	0.340	-1.380	-0.110
2020/01/31 15:21:32.9	114.170	0.340	-1.390	-0.080
2020/01/31 15:21:33.0	114.160	0.330	-1.380	-0.040
2020/01/31 15:21:33.1	114.140	0.330	-1.370	-0.010
2020/01/31 15:21:33.2	114.130	0.320	-1.350	0.040
2020/01/31 15:21:33.3	114.110	0.320	-1.320	0.080
2020/01/31 15:21:33.4	114.090	0.310	-1.280	0.130
2020/01/31 15:21:33.5	114.070	0.300	-1.240	0.180
2020/01/31 15:21:33.6	114.050	0.280	-1.190	0.240
2020/01/31 15:21:33.7	114.020	0.270	-1.130	0.290
2020/01/31 15:21:33.8	114.000	0.260	-1.080	0.350
2020/01/31 15:21:33.9	113.970	0.240	-1.010	0.410
2020/01/31 15:21:34.0	113.940	0.230	-0.940	0.470
2020/01/31 15:21:34.1	113.910	0.210	-0.870	0.530
2020/01/31 15:21:34.2	113.890	0.190	-0.790	0.590
2020/01/31 15:21:34.3	113.850	0.180	-0.720	0.650
2020/01/31 15:21:34.4	113.820	0.160	-0.630	0.710
2020/01/31 15:21:34.5	113.790	0.140	-0.550	0.770
2020/01/31 15:21:34.6	113.750	0.120	-0.470	0.830
2020/01/31 15:21:34.7	113.720	0.110	-0.390	0.890
2020/01/31 15:21:34.8	113.690	0.090	-0.300	0.950
2020/01/31 15:21:34.9	113.660	0.070	-0.220	1.000
2020/01/31 15:21:35.0	113.630	0.050	-0.140	1.050
2020/01/31 15:21:35.1	113.590	0.030	-0.050	1.100
2020/01/31 15:21:35.2	113.560	0.010	0.030	1.140
2020/01/31 15:21:35.3	113.540	-0.000	0.100	1.180
2020/01/31 15:21:35.4	113.510	-0.020	0.180	1.210
2020/01/31 15:21:35.5	113.480	-0.040	0.250	1.240
2020/01/31 15:21:35.6	113.470	-0.060	0.330	1.280
2020/01/31 15:21:35.7	113.440	-0.070	0.390	1.300
2020/01/31 15:21:35.8	113.420	-0.090	0.460	1.310
2020/01/31 15:21:35.9	113.400	-0.110	0.520	1.320
2020/01/31 15:21:36.0	113.380	-0.120	0.570	1.320
2020/01/31 15:21:36.1	113.370	-0.140	0.620	1.320
2020/01/31 15:21:36.2	113.350	-0.160	0.670	1.310
2020/01/31 15:21:36.3	113.340	-0.170	0.710	1.290
2020/01/31 15:21:36.4	113.330	-0.190	0.750	1.270
2020/01/31 15:21:36.5	113.320	-0.200	0.780	1.240
2020/01/31 15:21:36.6	113.320	-0.210	0.810	1.200
2020/01/31 15:21:36.7	113.310	-0.230	0.830	1.160
2020/01/31 15:21:36.8	113.310	-0.240	0.850	1.110
2020/01/31 15:21:36.9	113.310	-0.250	0.860	1.060
2020/01/31 15:21:37.0	113.320	-0.260	0.870	1.010
2020/01/31 15:21:37.1	113.320	-0.270	0.870	0.950
2020/01/31 15:21:37.2	113.330	-0.280	0.870	0.890
2020/01/31 15:21:37.3	113.340	-0.290	0.860	0.820
2020/01/31 15:21:37.4	113.350	-0.290	0.840	0.750
2020/01/31 15:21:37.5	113.360	-0.300	0.820	0.680
2020/01/31 15:21:37.6	113.390	-0.310	0.800	0.610
2020/01/31 15:21:37.7	113.400	-0.310	0.770	0.530
2020/01/31 15:21:37.8	113.420	-0.320	0.740	0.450
2020/01/31 15:21:37.9	113.440	-0.320	0.700	0.370
2020/01/31 15:21:38.0	113.470	-0.320	0.660	0.290
2020/01/31 15:21:38.1	113.490	-0.330	0.610	0.210
2020/01/31 15:21:38.2	113.520	-0.330	0.560	0.130
2020/01/31 15:21:38.3	113.540	-0.330	0.510	0.050
2020/01/31 15:21:38.4	113.570	-0.330	0.450	-0.020
2020/01/31 15:21:38.5	113.600	-0.320	0.390	-0.100
2020/01/31 15:21:38.6	113.630	-0.320	0.330	-0.180
2020/01/31 15:21:38.7	113.650	-0.310	0.270	-0.260
2020/01/31 15:21:38.8	113.680	-0.310	0.200	-0.330
2020/01/31 15:21:38.9	113.710	-0.300	0.130	-0.400
2020/01/31 15:21:39.0	113.730	-0.290	0.060	-0.460
2020/01/31 15:21:39.1	113.760	-0.280	-0.010	-0.530
2020/01/31 15:21:39.2	113.780	-0.270	-0.080	-0.590
2020/01/31 15:21:39.3	113.810	-0.260	-0.150	-0.640
2020/01/31 15:21:39.4	113.830	-0.240	-0.220	-0.690
2020/01/31 15:21:39.5	113.850	-0.220	-0.290	-0.740
2020/01/31 15:21:39.6	113.860	-0.210	-0.360	-0.780
2020/01/31 15:21:39.7	113.880	-0.190	-0.430	-0.820
2020/01/31 15:21:39.8	113.890	-0.170	-0.490	-0.860
2020/01/31 15:21:39.9	113.910	-0.140	-0.560	-0.890
2020/01/31 15:21:40.0	113.920	-0.120	-0.620	-0.910
2020/01/31 15:21:40.1	113.930	-0.090	-0.690	-0.940
2020/01/31 15:21:40.2	113.940	-0.070	-0.740	-0.950
2020/01/31 15:21:40.3	113.940	-0.040	-0.800	-0.970
2020/01/31 15:21:40.4	113.950	-0.010	-0.850	-0.970
2020/01/31 15:21:40.5	113.950	0.020	-0.900	-0.980
2020/01/31 15:21:40.6	113.950	0.050	-0.950	-0.980
2020/01/31 15:21:40.7	113.950	0.080	-0.990	-0.980
2020/01/31 15:21:40.8	113.950	0.110	-1.020	-0.970
2020/01/31 15:21:40.9	113.950	0.140	-1.050	-0.960
2020/01/31 15:21:41.0	113.950	0.170	-1.080	-0.950
2020/01/31 15:21:41.1	113.950	0.200	-1.100	-0.940
2020/01/31 15:21:41.2	113.950	0.230	-1.120	-0.920
2020/01/31 15:21:41.3	113.940	0.260	-1.130	-0.900
2020/01/31 15:21:41.4	113.940	0.290	-1.140	-0.880
2020/01/31 15:21:41.5	113.940	0.320	-1.140	-0.850
2020/01/31 15:21:41.6	113.930	0.350	-1.140	-0.820
2020/01/31 15:21:41.7	113.930	0.370	-1.130	-0.800
2020/01/31 15:21:41.8	113.920	0.400	-1.120	-0.770
2020/01/31 15:21:41.9	113.920	0.420	-1.100	-0.740
2020/01/31 15:21:42.0	113.920	0.440	-1.070	-0.710
2020/01/31 15:21:42.1	113.910	0.450	-1.050	-0.670
2020/01/31 15:21:42.2	113.910	0.470	-1.010	-0.640
2020/01/31 15:21:42.3	113.900	0.480	-0.980	-0.600
2020/01/31 15:21:42.4	113.900	0.490	-0.940	-0.570
2020/01/31 15:21:42.5	113.900	0.500	-0.890	-0.530
2020/01/31 15:21:42.6	113.890	0.500	-0.840	-0.490
2020/01/31 15:21:42.7	113.890	0.500	-0.790	-0.450
2020/01/31 15:21:42.8	113.880	0.500	-0.740	-0.410
2020/01/31 15:21:42.9	113.880	0.500	-0.680	-0.360
2020/01/31 15:21:43.0	113.870	0.490	-0.620	-0.320
2020/01/31 15:21:43.1	113.870	0.480	-0.560	-0.270
2020/01/31 15:21:43.2	113.860	0.470	-0.500	-0.230
2020/01/31 15:21:43.3	113.860	0.450	-0.440	-0.180
2020/01/31 15:21:43.4	113.850	0.440	-0.370	-0.130
2020/01/31 15:21:43.5	113.850	0.420	-0.310	-0.080
2020/01/31 15:21:43.6	113.840	0.390	-0.250	-0.030
2020/01/31 15:21:43.7	113.840	0.370	-0.180	0.020
2020/01/31 15:21:43.8	113.830	0.340	-0.120	0.070
2020/01/31 15:21:43.9	113.830	0.320	-0.060	0.120
2020/01/31 15:21:44.0	113.820	0.290	0.000	0.180
2020/01/31 15:21:44.1	113.820	0.260	0.060	0.230
2020/01/31 15:21:44.2	113.810	0.230	0.120	0.280
2020/01/31 15:21:44.3	113.810	0.200	0.170	0.340
2020/01/31 15:21:44.4	113.800	0.170	0.230	0.390
2020/01/31 15:21:44.5	113.800	0.130	0.280	0.440
2020/01/31 15:21:44.6	113.790	0.100	0.330	0.500
2020/01/31 15:21:44.7	113.790	0.070	0.370	0.550
2020/01/31 15:21:44.8	113.780	0.040	0.410	0.600
2020/01/31 15:21:44.9	113.770	0.010	0.450	0.660
2020/01/31 15:21:45.0	113.770	-0.020	0.480	0.710
2020/01/31 15:21:45.1	113.760	-0.050	0.510	0.760
2020/01/31 15:21:45.2	113.750	-0.080	0.540	0.810
2020/01/31 15:21:45.3	113.740	-0.110	0.560	0.850
2020/01/31 15:21:45.4	113.740	-0.130	0.580	0.900
2020/01/31 15:21:45.5	113.730	-0.160	0.590	0.940
2020/01/31 15:21:45.6	113.720	-0.180	0.610	0.990
2020/01/31 15:21:45.7	113.710	-0.200	0.610	1.030
2020/01/31 15:21:45.8	113.700	-0.220	0.620	1.070
2020/01/31 15:21:45.9	113.690	-0.240	0.620	1.110
2020/01/31 15:21:46.0	113.680	-0.260	0.610	1.150
2020/01/31 15:21:46.1	113.670	-0.270	0.600	1.180
2020/01/31 15:21:46.2	113.650	-0.290	0.590	1.210
2020/01/31 15:21:46.3	113.640	-0.300	0.580	1.240
2020/01/31 15:21:46.4	113.630	-0.310	0.560	1.270
2020/01/31 15:21:46.5	113.620	-0.330	0.540	1.300
2020/01/31 15:21:46.6	113.610	-0.340	0.520	1.320
2020/01/31 15:21:46.7	113.600	-0.350	0.500	1.340
2020/01/31 15:21:46.8	113.590	-0.350	0.470	1.360
2020/01/31 15:21:46.9	113.580	-0.360	0.440	1.370
2020/01/31 15:21:47.0	113.570	-0.370	0.400	1.380
2020/01/31 15:21:47.1	113.560	-0.370	0.370	1.390
2020/01/31 15:21:47.2	113.550	-0.380	0.330	1.390
2020/01/31 15:21:47.3	113.540	-0.380	0.290	1.390
2020/01/31 15:21:47.4	113.540	-0.380	0.250	1.390
2020/01/31 15:21:47.5	113.530	-0.380	0.200	1.390
2020/01/31 15:21:47.6	113.530	-0.380	0.160	1.380
2020/01/31 15:21:47.7	113.520	-0.380	0.110	1.370
2020/01/31 15:21:47.8	113.520	-0.380	0.060	1.350
2020/01/31 15:21:47.9	113.520	-0.380	0.010	1.330
2020/01/31 15:21:48.0	113.520	-0.380	-0.050	1.320
2020/01/31 15:21:48.1	113.520	-0.380	-0.100	1.290
2020/01/31 15:21:48.2	113.520	-0.370	-0.160	1.270
2020/01/31 15:21:48.3	113.520	-0.370	-0.210	1.240
2020/01/31 15:21:48.4	113.520	-0.360	-0.270	1.220
2020/01/31 15:21:48.5	113.530	-0.350	-0.330	1.190
2020/01/31 15:21:48.6	113.530	-0.340	-0.390	1.160
2020/01/31 15:21:48.7	113.540	-0.330	-0.450	1.130
2020/01/31 15:21:48.8	113.540	-0.320	-0.510	1.100
2020/01/31 15:21:48.9	113.550	-0.310	-0.560	1.070
2020/01/31 15:21:49.0	113.560	-0.300	-0.620	1.040
2020/01/31 15:21:49.1	113.570	-0.280	-0.670	1.000
2020/01/31 15:21:49.2	113.570	-0.270	-0.730	0.970
2020/01/31 15:21:49.3	113.580	-0.250	-0.780	0.950
2020/01/31 15:21:49.4	113.590	-0.240	-0.830	0.920
2020/01/31 15:21:49.5	113.600	-0.220	-0.870	0.890
2020/01/31 15:21:49.6	113.600	-0.200	-0.910	0.860
2020/01/31 15:21:49.7	113.610	-0.180	-0.950	0.840
2020/01/31 15:21:49.8	113.620	-0.160	-0.990	0.820
2020/01/31 15:21:49.9	113.630	-0.140	-1.020	0.800
2020/01/31 15:21:50.0	113.630	-0.120	-1.050	0.780
2020/01/31 15:21:50.1	113.640	-0.100	-1.070	0.760
2020/01/31 15:21:50.2	113.650	-0.080	-1.090	0.740
2020/01/31 15:21:50.3	113.650	-0.050	-1.100	0.730
2020/01/31 15:21:50.4	113.660	-0.030	-1.110	0.710
2020/01/31 15:21:50.5	113.660	-0.010	-1.120	0.700
2020/01/31 15:21:50.6	113.670	0.010	-1.120	0.690
2020/01/31 15:21:50.7	113.680	0.040	-1.110	0.680
2020/01/31 15:21:50.8	113.680	0.060	-1.100	0.670
2020/01/31 15:21:50.9	113.680	0.080	-1.090	0.670
2020/01/31 15:21:51.0	113.680	0.100	-1.070	0.660
2020/01/31 15:21:51.1	113.680	0.120	-1.040	0.650
2020/01/31 15:21:51.2	113.680	0.140	-1.020	0.650
2020/01/31 15:21:51.3	113.680	0.160	-0.980	0.640
2020/01/31 15:21:51.4	113.680	0.180	-0.940	0.640
2020/01/31 15:21:51.5	113.670	0.200	-0.900	0.630
2020/01/31 15:21:51.6	113.670	0.220	-0.860	0.630
2020/01/31 15:21:51.7	113.660	0.230	-0.810	0.620
2020/01/31 15:21:51.8	113.650	0.250	-0.760	0.620
2020/01/31 15:21:51.9	113.650	0.260	-0.700	0.610
2020/01/31 15:21:52.0	113.640	0.270	-0.640	0.600
2020/01/31 15:21:52.1	113.630	0.280	-0.580	0.600
2020/01/31 15:21:52.2	113.620	0.290	-0.520	0.590
2020/01/31 15:21:52.3	113.620	0.300	-0.450	0.570
2020/01/31 15:21:52.4	113.610	0.310	-0.390	0.560
2020/01/31 15:21:52.5	113.600	0.310	-0.320	0.540
2020/01/31 15:21:52.6	113.600	0.320	-0.250	0.530
2020/01/31 15:21:52.7	113.600	0.320	-0.180	0.510
2020/01/31 15:21:52.8	113.590	0.320	-0.110	0.490
2020/01/31 15:21:52.9	113.590	0.320	-0.040	0.460
2020/01/31 15:21:53.0	113.590	0.310	0.030	0.440
2020/01/31 15:21:53.1	113.590	0.310	0.100	0.410
2020/01/31 15:21:53.2	113.590	0.300	0.160	0.380
2020/01/31 15:21:53.3	113.600	0.290	0.230	0.350
2020/01/31 15:21:53.4	113.600	0.280	0.290	0.310
2020/01/31 15:21:53.5	113.600	0.270	0.350	0.280
2020/01/31 15:21:53.6	113.620	0.250	0.420	0.250
2020/01/31 15:21:53.7	113.620	0.240	0.480	0.220
2020/01/31 15:21:53.8	113.630	0.220	0.530	0.190
2020/01/31 15:21:53.9	113.630	0.200	0.580	0.160
2020/01/31 15:21:54.0	113.640	0.180	0.630	0.130
2020/01/31 15:21:54.1	113.650	0.160	0.680	0.110
2020/01/31 15:21:54.2	113.650	0.140	0.720	0.080
2020/01/31 15:21:54.3	113.650	0.110	0.750	0.060
2020/01/31 15:21:54.4	113.660	0.090	0.790	0.050
2020/01/31 15:21:54.5	113.660	0.060	0.820	0.030
2020/01/31 15:21:54.6	113.660	0.040	0.840	0.020
2020/01/31 15:21:54.7	113.660	0.010	0.860	0.010
2020/01/31 15:21:54.8	113.660	-0.010	0.870	0.010
2020/01/31 15:21:54.9	113.650	-0.040	0.890	0.010
2020/01/31 15:21:55.0	113.640	-0.060	0.890	0.010
2020/01/31 15:21:55.1	113.640	-0.080	0.890	0.010
2020/01/31 15:21:55.2	113.620	-0.100	0.890	0.010
2020/01/31 15:21:55.3	113.610	-0.120	0.880	0.020
2020/01/31 15:21:55.4	113.600	-0.140	0.870	0.030
2020/01/31 15:21:55.5	113.580	-0.160	0.850	0.040
2020/01/31 15:21:55.6	113.570	-0.170	0.830	0.050
2020/01/31 15:21:55.7	113.550	-0.180	0.800	0.070
2020/01/31 15:21:55.8	113.520	-0.190	0.770	0.080
2020/01/31 15:21:55.9	113.500	-0.200	0.730	0.100
2020/01/31 15:21:56.0	113.480	-0.200	0.690	0.110
2020/01/31 15:21:56.1	113.450	-0.210	0.640	0.130
2020/01/31 15:21:56.2	113.420	-0.200	0.590	0.140
2020/01/31 15:21:56.3	113.400	-0.200	0.540	0.160
2020/01/31 15:21:56.4	113.370	-0.190	0.480	0.170
2020/01/31 15:21:56.5	113.340	-0.180	0.420	0.190
2020/01/31 15:21:56.6	113.310	-0.170	0.360	0.200
2020/01/31 15:21:56.7	113.280	-0.150	0.290	0.210
2020/01/31 15:21:56.8	113.250	-0.130	0.220	0.220
2020/01/31 15:21:56.9	113.220	-0.110	0.150	0.230
2020/01/31 15:21:57.0	113.190	-0.090	0.080	0.240
2020/01/31 15:21:57.1	113.160	-0.060	-0.000	0.240
2020/01/31 15:21:57.2	113.130	-0.030	-0.080	0.250
2020/01/31 15:21:57.3	113.110	-0.000	-0.150	0.250
2020/01/31 15:21:57.4	113.080	0.030	-0.230	0.250
2020/01/31 15:21:57.5	113.060	0.060	-0.310	0.240
2020/01/31 15:21:57.6	113.040	0.090	-0.390	0.240
2020/01/31 15:21:57.7	113.020	0.120	-0.460	0.230
2020/01/31 15:21:57.8	113.000	0.150	-0.540	0.220
2020/01/31 15:21:57.9	112.990	0.180	-0.610	0.210
2020/01/31 15:21:58.0	112.970	0.210	-0.680	0.200
2020/01/31 15:21:58.1	112.960	0.240	-0.750	0.180
2020/01/31 15:21:58.2	112.950	0.270	-0.820	0.170
2020/01/31 15:21:58.3	112.950	0.300	-0.880	0.160
2020/01/31 15:21:58.4	112.940	0.320	-0.940	0.140
2020/01/31 15:21:58.5	112.940	0.350	-1.000	0.130
2020/01/31 15:21:58.6	112.940	0.370	-1.050	0.110
2020/01/31 15:21:58.7	112.940	0.390	-1.100	0.100
2020/01/31 15:21:58.8	112.940	0.400	-1.140	0.090
2020/01/31 15:21:58.9	112.950	0.420	-1.180	0.080
2020/01/31 15:21:59.0	112.950	0.430	-1.220	0.070
2020/01/31 15:21:59.1	112.950	0.440	-1.250	0.060
2020/01/31 15:21:59.2	112.960	0.440	-1.270	0.060
2020/01/31 15:21:59.3	112.960	0.450	-1.290	0.060
2020/01/31 15:21:59.4	112.970	0.450	-1.310	0.060
2020/01/31 15:21:59.5	112.980	0.440	-1.320	0.070
2020/01/31 15:21:59.6	112.980	0.440	-1.320	0.080
2020/01/31 15:21:59.7	112.990	0.430	-1.320	0.090
2020/01/31 15:21:59.8	112.990	0.420	-1.310	0.110
2020/01/31 15:21:59.9	112.990	0.410	-1.300	0.130
2020/01/31 15:22:00.0	113.000	0.390	-1.280	0.150
2020/01/31 15:22:00.1	113.000	0.380	-1.260	0.180
2020/01/31 15:22:00.2	113.000	0.360	-1.230	0.200
2020/01/31 15:22:00.3	113.000	0.330	-1.200	0.240
2020/01/31 15:22:00.4	113.000	0.310	-1.170	0.270
2020/01/31 15:22:00.5	113.000	0.290	-1.130	0.310
2020/01/31 15:22:00.6	113.000	0.260	-1.080	0.350
2020/01/31 15:22:00.7	113.000	0.230	-1.030	0.390
2020/01/31 15:22:00.8	112.990	0.200	-0.980	0.440
2020/01/31 15:22:00.9	112.990	0.170	-0.920	0.480
2020/01/31 15:22:01.0	112.990	0.140	-0.870	0.530
2020/01/31 15:22:01.1	112.980	0.110	-0.800	0.580
2020/01/31 15:22:01.2	112.980	0.080	-0.740	0.630
2020/01/31 15:22:01.3	112.970	0.050	-0.670	0.680
2020/01/31 15:22:01.4	112.970	0.010	-0.600	0.720
2020/01/31 15:22:01.5	112.970	-0.020	-0.530	0.770
2020/01/31 15:22:01.6	112.970	-0.050	-0.460	0.830
2020/01/31 15:22:01.7	112.960	-0.090	-0.380	0.870
2020/01/31 15:22:01.8	112.960	-0.120	-0.310	0.910
2020/01/31 15:22:01.9	112.960	-0.150	-0.230	0.950
2020/01/31 15:22:02.0	112.960	-0.190	-0.160	0.990
2020/01/31 15:22:02.1	112.960	-0.220	-0.080	1.030
2020/01/31 15:22:02.2	112.960	-0.250	-0.010	1.060
2020/01/31 15:22:02.3	112.970	-0.280	0.070	1.090
2020/01/31 15:22:02.4	112.970	-0.320	0.140	1.120
2020/01/31 15:22:02.5	112.970	-0.350	0.210	1.150
2020/01/31 15:22:02.6	112.980	-0.380	0.280	1.170
2020/01/31 15:22:02.7	112.990	-0.410	0.350	1.190
2020/01/31 15:22:02.8	112.990	-0.430	0.420	1.210
2020/01/31 15:22:02.9	112.990	-0.460	0.480	1.220
2020/01/31 15:22:03.0	113.000	-0.490	0.540	1.230
2020/01/31 15:22:03.1	113.000	-0.510	0.600	1.240
2020/01/31 15:22:03.2	113.000	-0.540	0.660	1.240
2020/01/31 15:22:03.3	113.000	-0.560	0.710	1.250
2020/01/31 15:22:03.4	113.000	-0.580	0.760	1.250
2020/01/31 15:22:03.5	113.000	-0.600	0.800	1.240
2020/01/31 15:22:03.6	113.000	-0.610	0.840	1.240
2020/01/31 15:22:03.7	113.000	-0.630	0.870	1.240
2020/01/31 15:22:03.8	112.990	-0.640	0.900	1.230
2020/01/31 15:22:03.9	112.980	-0.650	0.920	1.220
2020/01/31 15:22:04.0	112.980	-0.660	0.940	1.210
2020/01/31 15:22:04.1	112.970	-0.670	0.950	1.200
2020/01/31 15:22:04.2	112.950	-0.670	0.960	1.190
2020/01/31 15:22:04.3	112.940	-0.670	0.960	1.180
2020/01/31 15:22:04.4	112.920	-0.670	0.960	1.160
2020/01/31 15:22:04.5	112.900	-0.670	0.950	1.150
2020/01/31 15:22:04.6	112.890	-0.660	0.940	1.140
2020/01/31 15:22:04.7	112.870	-0.660	0.920	1.130
2020/01/31 15:22:04.8	112.840	-0.650	0.890	1.110
2020/01/31 15:22:04.9	112.820	-0.630	0.860	1.100
2020/01/31 15:22:05.0	112.790	-0.620	0.820	1.090
2020/01/31 15:22:05.1	112.770	-0.600	0.770	1.080
2020/01/31 15:22:05.2	112.740	-0.580	0.730	1.060
2020/01/31 15:22:05.3	112.710	-0.560	0.680	1.050
2020/01/31 15:22:05.4	112.680	-0.540	0.620	1.040
2020/01/31 15:22:05.5	112.660	-0.510	0.560	1.020
2020/01/31 15:22:05.6	112.630	-0.480	0.490	1.010
2020/01/31 15:22:05.7	112.610	-0.450	0.430	0.990
2020/01/31 15:22:05.8	112.590	-0.420	0.360	0.970
2020/01/31 15:22:05.9	112.560	-0.390	0.290	0.950
2020/01/31 15:22:06.0	112.540	-0.360	0.210	0.930
2020/01/31 15:22:06.1	112.520	-0.320	0.140	0.900
2020/01/31 15:22:06.2	112.510	-0.280	0.060	0.880
2020/01/31 15:22:06.3	112.490	-0.250	-0.020	0.850
2020/01/31 15:22:06.4	112.480	-0.210	-0.090	0.820
2020/01/31 15:22:06.5	112.470	-0.170	-0.170	0.780
2020/01/31 15:22:06.6	112.470	-0.130	-0.250	0.740
2020/01/31 15:22:06.7	112.470	-0.090	-0.320	0.700
2020/01/31 15:22:06.8	112.470	-0.040	-0.400	0.660
2020/01/31 15:22:06.9	112.470	-0.000	-0.480	0.610
2020/01/31 15:22:07.0	112.480	0.040	-0.560	0.560
2020/01/31 15:22:07.1	112.490	0.080	-0.630	0.510
2020/01/31 15:22:07.2	112.500	0.130	-0.710	0.460
2020/01/31 15:22:07.3	112.520	0.170	-0.780	0.400
2020/01/31 15:22:07.4	112.540	0.210	-0.850	0.340
2020/01/31 15:22:07.5	112.560	0.250	-0.920	0.270
2020/01/31 15:22:07.6	112.590	0.290	-0.980	0.200
2020/01/31 15:22:07.7	112.620	0.330	-1.040	0.130
2020/01/31 15:22:07.8	112.650	0.370	-1.100	0.060
2020/01/31 15:22:07.9	112.690	0.410	-1.150	-0.010
2020/01/31 15:22:08.0	112.720	0.440	-1.200	-0.080
2020/01/31 15:22:08.1	112.760	0.480	-1.250	-0.150
2020/01/31 15:22:08.2	112.790	0.510	-1.280	-0.230
2020/01/31 15:22:08.3	112.830	0.540	-1.320	-0.300
2020/01/31 15:22:08.4	112.860	0.570	-1.340	-0.370
2020/01/31 15:22:08.5	112.900	0.590	-1.360	-0.440
2020/01/31 15:22:08.6	112.930	0.620	-1.370	-0.510
2020/01/31 15:22:08.7	112.960	0.640	-1.380	-0.570
2020/01/31 15:22:08.8	112.990	0.650	-1.380	-0.630
2020/01/31 15:22:08.9	113.020	0.670	-1.370	-0.680
2020/01/31 15:22:09.0	113.050	0.680	-1.360	-0.730
2020/01/31 15:22:09.1	113.070	0.690	-1.340	-0.780
2020/01/31 15:22:09.2	113.090	0.700	-1.310	-0.810
2020/01/31 15:22:09.3	113.110	0.700	-1.270	-0.850
2020/01/31 15:22:09.4	113.120	0.700	-1.220	-0.880
2020/01/31 15:22:09.5	113.130	0.700	-1.170	-0.900
2020/01/31 15:22:09.6	113.140	0.690	-1.110	-0.910
2020/01/31 15:22:09.7	113.150	0.680	-1.050	-0.920
2020/01/31 15:22:09.8	113.150	0.670	-0.970	-0.920
2020/01/31 15:22:09.9	113.150	0.660	-0.890	-0.920
2020/01/31 15:22:10.0	113.140	0.640	-0.810	-0.910
2020/01/31 15:22:10.1	113.130	0.620	-0.720	-0.900
2020/01/31 15:22:10.2	113.120	0.590	-0.620	-0.880
2020/01/31 15:22:10.3	113.110	0.570	-0.520	-0.850
2020/01/31 15:22:10.4	113.090	0.540	-0.420	-0.820
2020/01/31 15:22:10.5	113.070	0.510	-0.310	-0.780
2020/01/31 15:22:10.6	113.060	0.480	-0.200	-0.730
2020/01/31 15:22:10.7	113.030	0.440	-0.090	-0.680
2020/01/31 15:22:10.8	113.010	0.410	0.020	-0.620
2020/01/31 15:22:10.9	112.980	0.370	0.140	-0.570
2020/01/31 15:22:11.0	112.950	0.330	0.250	-0.500
2020/01/31 15:22:11.1	112.920	0.290	0.360	-0.440
2020/01/31 15:22:11.2	112.890	0.250	0.470	-0.370
2020/01/31 15:22:11.3	112.860	0.200	0.580	-0.290
2020/01/31 15:22:11.4	112.820	0.160	0.680	-0.210
2020/01/31 15:22:11.5	112.790	0.120	0.780	-0.140
2020/01/31 15:22:11.6	112.760	0.070	0.870	-0.050
2020/01/31 15:22:11.7	112.720	0.030	0.960	0.030
2020/01/31 15:22:11.8	112.680	-0.020	1.040	0.120
2020/01/31 15:22:11.9	112.650	-0.060	1.110	0.200
2020/01/31 15:22:12.0	112.610	-0.100	1.180	0.290
2020/01/31 15:22:12.1	112.570	-0.140	1.230	0.380
2020/01/31 15:22:12.2	112.540	-0.180	1.270	0.460
2020/01/31 15:22:12.3	112.500	-0.210	1.310	0.550
2020/01/31 15:22:12.4	112.460	-0.250	1.330	0.630
2020/01/31 15:22:12.5	112.430	-0.280	1.340	0.720
2020/01/31 15:22:12.6	112.400	-0.310	1.340	0.800
2020/01/31 15:22:12.7	112.370	-0.330	1.320	0.880
2020/01/31 15:22:12.8	112.340	-0.360	1.300	0.960
2020/01/31 15:22:12.9	112.310	-0.380	1.260	1.030
2020/01/31 15:22:13.0	112.280	-0.390	1.200	1.100
2020/01/31 15:22:13.1	112.250	-0.400	1.140	1.170
2020/01/31 15:22:13.2	112.230	-0.410	1.060	1.230
2020/01/31 15:22:13.3	112.210	-0.410	0.970	1.290
2020/01/31 15:22:13.4	112.190	-0.410	0.880	1.350
2020/01/31 15:22:13.5	112.180	-0.410	0.770	1.400
2020/01/31 15:22:13.6	112.170	-0.400	0.650	1.440
2020/01/31 15:22:13.7	112.160	-0.390	0.520	1.490
2020/01/31 15:22:13.8	112.150	-0.380	0.390	1.520
2020/01/31 15:22:13.9	112.150	-0.360	0.250	1.560
2020/01/31 15:22:14.0	112.150	-0.340	0.110	1.590
2020/01/31 15:22:14.1	112.150	-0.320	-0.040	1.610
2020/01/31 15:22:14.2	112.150	-0.300	-0.190	1.640
2020/01/31 15:22:14.3	112.160	-0.270	-0.340	1.660
2020/01/31 15:22:14.4	112.170	-0.240	-0.480	1.670
2020/01/31 15:22:14.5	112.180	-0.210	-0.630	1.690
2020/01/31 15:22:14.6	112.190	-0.180	-0.770	1.700
2020/01/31 15:22:14.7	112.210	-0.160	-0.910	1.700
2020/01/31 15:22:14.8	112.220	-0.130	-1.040	1.710
2020/01/31 15:22:14.9	112.240	-0.100	-1.170	1.710
2020/01/31 15:22:15.0	112.260	-0.070	-1.290	1.720
2020/01/31 15:22:15.1	112.280	-0.040	-1.400	1.720
2020/01/31 15:22:15.2	112.310	-0.020	-1.490	1.720
2020/01/31 15:22:15.3	112.330	0.000	-1.580	1.720
2020/01/31 15:22:15.4	112.350	0.020	-1.660	1.720
2020/01/31 15:22:15.5	112.380	0.040	-1.720	1.720
2020/01/31 15:22:15.6	112.400	0.060	-1.770	1.720
2020/01/31 15:22:15.7	112.420	0.070	-1.800	1.720
2020/01/31 15:22:15.8	112.440	0.080	-1.820	1.720
2020/01/31 15:22:15.9	112.460	0.090	-1.820	1.720
2020/01/31 15:22:16.0	112.480	0.090	-1.820	1.730
2020/01/31 15:22:16.1	112.500	0.090	-1.790	1.730
2020/01/31 15:22:16.2	112.520	0.090	-1.760	1.730
2020/01/31 15:22:16.3	112.530	0.080	-1.710	1.740
2020/01/31 15:22:16.4	112.550	0.070	-1.640	1.750
2020/01/31 15:22:16.5	112.560	0.060	-1.570	1.750
2020/01/31 15:22:16.6	112.580	0.050	-1.480	1.760
2020/01/31 15:22:16.7	112.580	0.030	-1.390	1.770
2020/01/31 15:22:16.8	112.590	0.010	-1.290	1.770
2020/01/31 15:22:16.9	112.600	-0.010	-1.180	1.780
2020/01/31 15:22:17.0	112.600	-0.030	-1.060	1.780
2020/01/31 15:22:17.1	112.600	-0.050	-0.930	1.780
2020/01/31 15:22:17.2	112.600	-0.070	-0.810	1.780
2020/01/31 15:22:17.3	112.600	-0.100	-0.680	1.780
2020/01/31 15:22:17.4	112.600	-0.120	-0.540	1.770
2020/01/31 15:22:17.5	112.590	-0.140	-0.410	1.760
2020/01/31 15:22:17.6	112.580	-0.170	-0.270	1.760
2020/01/31 15:22:17.7	112.570	-0.190	-0.140	1.750
2020/01/31 15:22:17.8	112.560	-0.220	-0.010	1.730
2020/01/31 15:22:17.9	112.550	-0.240	0.120	1.710
2020/01/31 15:22:18.0	112.540	-0.260	0.240	1.690
2020/01/31 15:22:18.1	112.520	-0.280	0.360	1.660
2020/01/31 15:22:18.2	112.500	-0.300	0.470	1.630
2020/01/31 15:22:18.3	112.490	-0.320	0.580	1.600
2020/01/31 15:22:18.4	112.470	-0.330	0.670	1.560
2020/01/31 15:22:18.5	112.450	-0.340	0.770	1.520
2020/01/31 15:22:18.6	112.440	-0.350	0.850	1.480
2020/01/31 15:22:18.7	112.420	-0.360	0.920	1.430
2020/01/31 15:22:18.8	112.400	-0.360	0.980	1.380
2020/01/31 15:22:18.9	112.370	-0.360	1.030	1.320
2020/01/31 15:22:19.0	112.350	-0.360	1.080	1.260
2020/01/31 15:22:19.1	112.330	-0.360	1.110	1.190
2020/01/31 15:22:19.2	112.310	-0.350	1.130	1.120
2020/01/31 15:22:19.3	112.280	-0.330	1.140	1.050
2020/01/31 15:22:19.4	112.260	-0.320	1.140	0.980
2020/01/31 15:22:19.5	112.230	-0.300	1.120	0.900
2020/01/31 15:22:19.6	112.210	-0.270	1.100	0.820
2020/01/31 15:22:19.7	112.180	-0.250	1.070	0.730
2020/01/31 15:22:19.8	112.150	-0.220	1.020	0.650
2020/01/31 15:22:19.9	112.130	-0.180	0.970	0.560
2020/01/31 15:22:20.0	112.100	-0.150	0.910	0.470
2020/01/31 15:22:20.1	112.070	-0.110	0.840	0.380
2020/01/31 15:22:20.2	112.030	-0.060	0.760	0.300
2020/01/31 15:22:20.3	112.000	-0.020	0.670	0.210
2020/01/31 15:22:20.4	111.970	0.030	0.580	0.120
2020/01/31 15:22:20.5	111.930	0.070	0.480	0.030
2020/01/31 15:22:20.6	111.900	0.120	0.390	-0.060
2020/01/31 15:22:20.7	111.870	0.170	0.280	-0.150
2020/01/31 15:22:20.8	111.830	0.220	0.180	-0.230
2020/01/31 15:22:20.9	111.800	0.270	0.070	-0.320
2020/01/31 15:22:21.0	111.760	0.310	-0.040	-0.410
2020/01/31 15:22:21.1	111.730	0.360	-0.140	-0.490
2020/01/31 15:22:21.2	111.700	0.400	-0.250	-0.570
2020/01/31 15:22:21.3	111.670	0.440	-0.350	-0.650
2020/01/31 15:22:21.4	111.640	0.480	-0.450	-0.740
2020/01/31 15:22:21.5	111.610	0.520	-0.540	-0.810
2020/01/31 15:22:21.6	111.580	0.550	-0.630	-0.890
2020/01/31 15:22:21.7	111.560	0.580	-0.720	-0.970
2020/01/31 15:22:21.8	111.540	0.600	-0.790	-1.040
2020/01/31 15:22:21.9	111.520	0.620	-0.860	-1.110
2020/01/31 15:22:22.0	111.500	0.630	-0.920	-1.180
2020/01/31 15:22:22.1	111.480	0.640	-0.980	-1.250
2020/01/31 15:22:22.2	111.470	0.650	-1.020	-1.310
2020/01/31 15:22:22.3	111.460	0.640	-1.060	-1.370
2020/01/31 15:22:22.4	111.450	0.640	-1.090	-1.430
2020/01/31 15:22:22.5	111.440	0.630	-1.110	-1.480
2020/01/31 15:22:22.6	111.440	0.610	-1.120	-1.530
2020/01/31 15:22:22.7	111.430	0.590	-1.120	-1.580
2020/01/31 15:22:22.8	111.430	0.570	-1.110	-1.620
2020/01/31 15:22:22.9	111.430	0.540	-1.100	-1.660
2020/01/31 15:22:23.0	111.440	0.510	-1.080	-1.700
2020/01/31 15:22:23.1	111.440	0.470	-1.060	-1.730
2020/01/31 15:22:23.2	111.450	0.430	-1.020	-1.760
2020/01/31 15:22:23.3	111.450	0.390	-0.990	-1.780
2020/01/31 15:22:23.4	111.460	0.350	-0.940	-1.790
2020/01/31 15:22:23.5	111.470	0.300	-0.900	-1.810
2020/01/31 15:22:23.6	111.480	0.260	-0.840	-1.810
2020/01/31 15:22:23.7	111.500	0.210	-0.790	-1.810
2020/01/31 15:22:23.8	111.510	0.160	-0.730	-1.810
2020/01/31 15:22:23.9	111.520	0.110	-0.670	-1.800
2020/01/31 15:22:24.0	111.540	0.060	-0.610	-1.780
2020/01/31 15:22:24.1	111.550	0.020	-0.550	-1.760
2020/01/31 15:22:24.2	111.570	-0.030	-0.500	-1.730
2020/01/31 15:22:24.3	111.590	-0.070	-0.440	-1.700
2020/01/31 15:22:24.4	111.610	-0.120	-0.380	-1.660
2020/01/31 15:22:24.5	111.620	-0.160	-0.330	-1.620
2020/01/31 15:22:24.6	111.640	-0.190	-0.270	-1.560
2020/01/31 15:22:24.7	111.660	-0.230	-0.220	-1.500
2020/01/31 15:22:24.8	111.680	-0.260	-0.170	-1.440
2020/01/31 15:22:24.9	111.690	-0.290	-0.130	-1.370
2020/01/31 15:22:25.0	111.710	-0.310	-0.090	-1.300
2020/01/31 15:22:25.1	111.730	-0.340	-0.050	-1.220
2020/01/31 15:22:25.2	111.740	-0.350	-0.020	-1.130
2020/01/31 15:22:25.3	111.760	-0.370	0.010	-1.040
2020/01/31 15:22:25.4	111.770	-0.380	0.030	-0.950
2020/01/31 15:22:25.5	111.790	-0.390	0.060	-0.840
2020/01/31 15:22:25.6	111.800	-0.390	0.080	-0.740
2020/01/31 15:22:25.7	111.810	-0.390	0.090	-0.630
2020/01/31 15:22:25.8	111.820	-0.390	0.110	-0.520
2020/01/31 15:22:25.9	111.820	-0.390	0.120	-0.400
2020/01/31 15:22:26.0	111.830	-0.380	0.130	-0.280
2020/01/31 15:22:26.1	111.830	-0.370	0.140	-0.160
2020/01/31 15:22:26.2	111.830	-0.360	0.150	-0.030
2020/01/31 15:22:26.3	111.830	-0.350	0.160	0.090
2020/01/31 15:22:26.4	111.830	-0.340	0.170	0.220
2020/01/31 15:22:26.5	111.830	-0.330	0.170	0.340
2020/01/31 15:22:26.6	111.820	-0.310	0.190	0.470
2020/01/31 15:22:26.7	111.820	-0.290	0.200	0.600
2020/01/31 15:22:26.8	111.810	-0.280	0.200	0.730
2020/01/31 15:22:26.9	111.810	-0.260	0.210	0.850
2020/01/31 15:22:27.0	111.800	-0.240	0.220	0.970
2020/01/31 15:22:27.1	111.790	-0.230	0.230	1.090
2020/01/31 15:22:27.2	111.780	-0.210	0.240	1.210
2020/01/31 15:22:27.3	111.770	-0.200	0.250	1.320
2020/01/31 15:22:27.4	111.760	-0.180	0.260	1.430
2020/01/31 15:22:27.5	111.750	-0.170	0.270	1.540
2020/01/31 15:22:27.6	111.740	-0.150	0.280	1.650
2020/01/31 15:22:27.7	111.730	-0.140	0.290	1.750
2020/01/31 15:22:27.8	111.710	-0.130	0.300	1.850
2020/01/31 15:22:27.9	111.700	-0.120	0.310	1.950
2020/01/31 15:22:28.0	111.680	-0.100	0.310	2.040
2020/01/31 15:22:28.1	111.670	-0.090	0.320	2.120
2020/01/31 15:22:28.2	111.650	-0.090	0.320	2.210
2020/01/31 15:22:28.3	111.630	-0.080	0.330	2.290
2020/01/31 15:22:28.4	111.610	-0.070	0.330	2.360
2020/01/31 15:22:28.5	111.590	-0.060	0.330	2.430
2020/01/31 15:22:28.6	111.570	-0.050	0.330	2.500
2020/01/31 15:22:28.7	111.540	-0.040	0.320	2.560
2020/01/31 15:22:28.8	111.520	-0.040	0.310	2.620
2020/01/31 15:22:28.9	111.490	-0.030	0.290	2.670
2020/01/31 15:22:29.0	111.460	-0.020	0.280	2.720
2020/01/31 15:22:29.1	111.440	-0.010	0.260	2.760
2020/01/31 15:22:29.2	111.410	-0.000	0.230	2.800
2020/01/31 15:22:29.3	111.380	0.000	0.210	2.830
2020/01/31 15:22:29.4	111.350	0.010	0.180	2.860
2020/01/31 15:22:29.5	111.320	0.020	0.140	2.880
2020/01/31 15:22:29.6	111.300	0.030	0.110	2.890
2020/01/31 15:22:29.7	111.270	0.040	0.070	2.910
2020/01/31 15:22:29.8	111.240	0.060	0.030	2.910
2020/01/31 15:22:29.9	111.220	0.070	-0.010	2.910
2020/01/31 15:22:30.0	111.190	0.080	-0.060	2.910
2020/01/31 15:22:30.1	111.170	0.090	-0.110	2.900
2020/01/31 15:22:30.2	111.150	0.110	-0.160	2.880
2020/01/31 15:22:30.3	111.130	0.120	-0.210	2.860
2020/01/31 15:22:30.4	111.110	0.130	-0.260	2.840
2020/01/31 15:22:30.5	111.090	0.150	-0.310	2.800
2020/01/31 15:22:30.6	111.070	0.160	-0.360	2.770
2020/01/31 15:22:30.7	111.060	0.170	-0.410	2.720
2020/01/31 15:22:30.8	111.050	0.180	-0.460	2.670
2020/01/31 15:22:30.9	111.040	0.200	-0.500	2.620
2020/01/31 15:22:31.0	111.040	0.210	-0.540	2.560
2020/01/31 15:22:31.1	111.040	0.220	-0.580	2.490
2020/01/31 15:22:31.2	111.040	0.230	-0.620	2.420
2020/01/31 15:22:31.3	111.040	0.230	-0.650	2.350
2020/01/31 15:22:31.4	111.040	0.240	-0.690	2.270
2020/01/31 15:22:31.5	111.050	0.250	-0.710	2.180
2020/01/31 15:22:31.6	111.060	0.250	-0.730	2.090
2020/01/31 15:22:31.7	111.070	0.250	-0.750	1.990
2020/01/31 15:22:31.8	111.080	0.250	-0.760	1.890
2020/01/31 15:22:31.9	111.090	0.250	-0.770	1.780
2020/01/31 15:22:32.0	111.110	0.250	-0.780	1.680
2020/01/31 15:22:32.1	111.120	0.250	-0.780	1.560
2020/01/31 15:22:32.2	111.140	0.240	-0.780	1.450
2020/01/31 15:22:32.3	111.160	0.230	-0.780	1.330
2020/01/31 15:22:32.4	111.180	0.220	-0.770	1.210
2020/01/31 15:22:32.5	111.190	0.220	-0.760	1.080
2020/01/31 15:22:32.6	111.210	0.200	-0.740	0.960
2020/01/31 15:22:32.7	111.220	0.190	-0.730	0.830
2020/01/31 15:22:32.8	111.240	0.180	-0.710	0.710
2020/01/31 15:22:32.9	111.250	0.160	-0.690	0.580
2020/01/31 15:22:33.0	111.270	0.150	-0.660	0.460
2020/01/31 15:22:33.1	111.280	0.130	-0.640	0.340
2020/01/31 15:22:33.2	111.290	0.120	-0.610	0.220
2020/01/31 15:22:33.3	111.290	0.100	-0.590	0.100
2020/01/31 15:22:33.4	111.290	0.090	-0.560	-0.010
2020/01/31 15:22:33.5	111.300	0.070	-0.530	-0.120
2020/01/31 15:22:33.6	111.300	0.050	-0.500	-0.230
2020/01/31 15:22:33.7	111.290	0.040	-0.470	-0.330
2020/01/31 15:22:33.8	111.280	0.020	-0.450	-0.430
2020/01/31 15:22:33.9	111.280	0.000	-0.420	-0.520
2020/01/31 15:22:34.0	111.260	-0.010	-0.390	-0.610
2020/01/31 15:22:34.1	111.250	-0.030	-0.360	-0.690
2020/01/31 15:22:34.2	111.230	-0.040	-0.330	-0.760
2020/01/31 15:22:34.3	111.220	-0.060	-0.300	-0.830
2020/01/31 15:22:34.4	111.200	-0.070	-0.270	-0.900
2020/01/31 15:22:34.5	111.180	-0.090	-0.250	-0.960
2020/01/31 15:22:34.6	111.160	-0.100	-0.220	-1.010
2020/01/31 15:22:34.7	111.140	-0.110	-0.190	-1.050
2020/01/31 15:22:34.8	111.120	-0.130	-0.160	-1.090
2020/01/31 15:22:34.9	111.100	-0.140	-0.130	-1.130
2020/01/31 15:22:35.0	111.080	-0.150	-0.100	-1.160
2020/01/31 15:22:35.1	111.060	-0.160	-0.080	-1.180
2020/01/31 15:22:35.2	111.040	-0.180	-0.050	-1.200
2020/01/31 15:22:35.3	111.020	-0.190	-0.020	-1.220
2020/01/31 15:22:35.4	111.000	-0.200	0.000	-1.230
2020/01/31 15:22:35.5	110.980	-0.200	0.030	-1.240
2020/01/31 15:22:35.6	110.970	-0.210	0.050	-1.240
2020/01/31 15:22:35.7	110.960	-0.220	0.080	-1.240
2020/01/31 15:22:35.8	110.950	-0.230	0.100	-1.240
2020/01/31 15:22:35.9	110.930	-0.230	0.120	-1.240
2020/01/31 15:22:36.0	110.920	-0.240	0.140	-1.230
2020/01/31 15:22:36.1	110.920	-0.240	0.150	-1.230
2020/01/31 15:22:36.2	110.910	-0.250	0.170	-1.230
2020/01/31 15:22:36.3	110.900	-0.250	0.180	-1.220
2020/01/31 15:22:36.4	110.900	-0.250	0.190	-1.220
2020/01/31 15:22:36.5	110.900	-0.250	0.200	-1.210
2020/01/31 15:22:36.6	110.900	-0.250	0.200	-1.210
2020/01/31 15:22:36.7	110.900	-0.250	0.200	-1.210
2020/01/31 15:22:36.8	110.900	-0.240	0.200	-1.200
2020/01/31 15:22:36.9	110.900	-0.240	0.200	-1.200
2020/01/31 15:22:37.0	110.900	-0.230	0.200	-1.200
2020/01/31 15:22:37.1	110.900	-0.220	0.190	-1.200
2020/01/31 15:22:37.2	110.910	-0.220	0.190	-1.200
2020/01/31 15:22:37.3	110.910	-0.210	0.170	-1.190
2020/01/31 15:22:37.4	110.910	-0.190	0.160	-1.190
2020/01/31 15:22:37.5	110.920	-0.180	0.150	-1.190
2020/01/31 15:22:37.6	110.930	-0.170	0.140	-1.180
2020/01/31 15:22:37.7	110.930	-0.150	0.120	-1.180
2020/01/31 15:22:37.8	110.940	-0.140	0.100	-1.170
2020/01/31 15:22:37.9	110.940	-0.120	0.080	-1.160
2020/01/31 15:22:38.0	110.950	-0.100	0.060	-1.150
2020/01/31 15:22:38.1	110.950	-0.080	0.030	-1.140
2020/01/31 15:22:38.2	110.960	-0.060	0.010	-1.120
2020/01/31 15:22:38.3	110.970	-0.040	-0.020	-1.100
2020/01/31 15:22:38.4	110.970	-0.020	-0.040	-1.080
2020/01/31 15:22:38.5	110.970	0.000	-0.070	-1.060
2020/01/31 15:22:38.6	110.980	0.020	-0.100	-1.030
2020/01/31 15:22:38.7	110.990	0.050	-0.130	-0.990
2020/01/31 15:22:38.8	110.990	0.070	-0.160	-0.960
2020/01/31 15:22:38.9	110.990	0.100	-0.180	-0.920
2020/01/31 15:22:39.0	111.000	0.120	-0.210	-0.870
2020/01/31 15:22:39.1	111.000	0.150	-0.240	-0.830
2020/01/31 15:22:39.2	111.000	0.170	-0.270	-0.780
2020/01/31 15:22:39.3	111.000	0.200	-0.290	-0.720
2020/01/31 15:22:39.4	111.000	0.220	-0.320	-0.660
2020/01/31 15:22:39.5	111.000	0.240	-0.340	-0.600
2020/01/31 15:22:39.6	111.000	0.270	-0.370	-0.540
2020/01/31 15:22:39.7	111.000	0.290	-0.390	-0.470
2020/01/31 15:22:39.8	110.990	0.310	-0.410	-0.400
2020/01/31 15:22:39.9	110.990	0.330	-0.430	-0.330
2020/01/31 15:22:40.0	110.990	0.350	-0.440	-0.260
2020/01/31 15:22:40.1	110.980	0.370	-0.460	-0.190
2020/01/31 15:22:40.2	110.980	0.390	-0.470	-0.110
2020/01/31 15:22:40.3	110.970	0.400	-0.480	-0.040
2020/01/31 15:22:40.4	110.970	0.410	-0.490	0.040
2020/01/31 15:22:40.5	110.970	0.420	-0.490	0.110
2020/01/31 15:22:40.6	110.970	0.430	-0.490	0.190
2020/01/31 15:22:40.7	110.960	0.440	-0.490	0.270
2020/01/31 15:22:40.8	110.960	0.440	-0.490	0.340
2020/01/31 15:22:40.9	110.960	0.440	-0.490	0.410
2020/01/31 15:22:41.0	110.960	0.440	-0.480	0.490
2020/01/31 15:22:41.1	110.960	0.430	-0.470	0.560
2020/01/31 15:22:41.2	110.960	0.430	-0.450	0.630
2020/01/31 15:22:41.3	110.970	0.420	-0.440	0.690
2020/01/31 15:22:41.4	110.970	0.400	-0.420	0.760
2020/01/31 15:22:41.5	110.980	0.390	-0.400	0.820
2020/01/31 15:22:41.6	110.990	0.370	-0.380	0.890
2020/01/31 15:22:41.7	111.000	0.350	-0.350	0.950
2020/01/31 15:22:41.8	111.010	0.320	-0.320	1.010
2020/01/31 15:22:41.9	111.020	0.300	-0.290	1.060
2020/01/31 15:22:42.0	111.030	0.270	-0.260	1.120
2020/01/31 15:22:42.1	111.050	0.240	-0.220	1.170
2020/01/31 15:22:42.2	111.060	0.210	-0.180	1.220
2020/01/31 15:22:42.3	111.080	0.180	-0.140	1.280
2020/01/31 15:22:42.4	111.100	0.140	-0.100	1.320
2020/01/31 15:22:42.5	111.110	0.110	-0.060	1.370
2020/01/31 15:22:42.6	111.130	0.070	-0.010	1.420
2020/01/31 15:22:42.7	111.150	0.030	0.030	1.460
2020/01/31 15:22:42.8	111.160	-0.000	0.070	1.500
2020/01/31 15:22:42.9	111.180	-0.040	0.120	1.540
2020/01/31 15:22:43.0	111.190	-0.080	0.160	1.580
2020/01/31 15:22:43.1	111.200	-0.120	0.210	1.610
2020/01/31 15:22:43.2	111.210	-0.150	0.250	1.640
2020/01/31 15:22:43.3	111.220	-0.190	0.290	1.680
2020/01/31 15:22:43.4	111.230	-0.220	0.330	1.700
2020/01/31 15:22:43.5	111.240	-0.260	0.370	1.730
2020/01/31 15:22:43.6	111.250	-0.290	0.400	1.760
2020/01/31 15:22:43.7	111.260	-0.320	0.440	1.780
2020/01/31 15:22:43.8	111.260	-0.350	0.460	1.800
2020/01/31 15:22:43.9	111.270	-0.380	0.490	1.820
2020/01/31 15:22:44.0	111.270	-0.400	0.510	1.840
2020/01/31 15:22:44.1	111.270	-0.420	0.530	1.850
2020/01/31 15:22:44.2	111.270	-0.440	0.540	1.860
2020/01/31 15:22:44.3	111.270	-0.460	0.550	1.870
2020/01/31 15:22:44.4	111.270	-0.470	0.550	1.880
2020/01/31 15:22:44.5	111.270	-0.480	0.550	1.880
2020/01/31 15:22:44.6	111.270	-0.490	0.550	1.890
2020/01/31 15:22:44.7	111.270	-0.490	0.530	1.880
2020/01/31 15:22:44.8	111.280	-0.490	0.510	1.880
2020/01/31 15:22:44.9	111.280	-0.490	0.490	1.870
2020/01/31 15:22:45.0	111.280	-0.480	0.460	1.860
2020/01/31 15:22:45.1	111.280	-0.470	0.420	1.850
2020/01/31 15:22:45.2	111.290	-0.450	0.380	1.830
2020/01/31 15:22:45.3	111.290	-0.440	0.340	1.810
2020/01/31 15:22:45.4	111.300	-0.420	0.280	1.790
2020/01/31 15:22:45.5	111.300	-0.390	0.230	1.770
2020/01/31 15:22:45.6	111.310	-0.370	0.160	1.740
2020/01/31 15:22:45.7	111.310	-0.340	0.100	1.710
2020/01/31 15:22:45.8	111.320	-0.310	0.030	1.680
2020/01/31 15:22:45.9	111.330	-0.270	-0.050	1.650
2020/01/31 15:22:46.0	111.330	-0.230	-0.130	1.620
2020/01/31 15:22:46.1	111.340	-0.200	-0.210	1.580
2020/01/31 15:22:46.2	111.340	-0.160	-0.290	1.540
2020/01/31 15:22:46.3	111.350	-0.110	-0.380	1.510
2020/01/31 15:22:46.4	111.350	-0.070	-0.460	1.470
2020/01/31 15:22:46.5	111.360	-0.030	-0.550	1.430
2020/01/31 15:22:46.6	111.360	0.020	-0.630	1.380
2020/01/31 15:22:46.7	111.360	0.060	-0.720	1.340
2020/01/31 15:22:46.8	111.360	0.110	-0.810	1.300
2020/01/31 15:22:46.9	111.360	0.150	-0.890	1.260
2020/01/31 15:22:47.0	111.350	0.200	-0.970	1.220
2020/01/31 15:22:47.1	111.350	0.240	-1.040	1.180
2020/01/31 15:22:47.2	111.340	0.280	-1.110	1.130
2020/01/31 15:22:47.3	111.330	0.320	-1.180	1.090
2020/01/31 15:22:47.4	111.320	0.360	-1.240	1.050
2020/01/31 15:22:47.5	111.300	0.390	-1.300	1.010
2020/01/31 15:22:47.6	111.290	0.420	-1.340	0.980
2020/01/31 15:22:47.7	111.270	0.450	-1.380	0.940
2020/01/31 15:22:47.8	111.250	0.480	-1.420	0.900
2020/01/31 15:22:47.9	111.220	0.500	-1.440	0.860
2020/01/31 15:22:48.0	111.200	0.520	-1.460	0.830
2020/01/31 15:22:48.1	111.170	0.540	-1.470	0.790
2020/01/31 15:22:48.2	111.140	0.550	-1.470	0.750
2020/01/31 15:22:48.3	111.120	0.560	-1.460	0.720
2020/01/31 15:22:48.4	111.090	0.560	-1.440	0.680
2020/01/31 15:22:48.5	111.060	0.560	-1.410	0.650
2020/01/31 15:22:48.6	111.020	0.550	-1.380	0.610
2020/01/31 15:22:48.7	111.000	0.550	-1.330	0.580
2020/01/31 15:22:48.8	110.970	0.530	-1.280	0.540
2020/01/31 15:22:48.9	110.940	0.510	-1.220	0.510
2020/01/31 15:22:49.0	110.920	0.490	-1.150	0.470
2020/01/31 15:22:49.1	110.890	0.460	-1.070	0.440
2020/01/31 15:22:49.2	110.870	0.430	-0.990	0.400
2020/01/31 15:22:49.3	110.850	0.400	-0.890	0.370
2020/01/31 15:22:49.4	110.830	0.360	-0.800	0.330
2020/01/31 15:22:49.5	110.810	0.320	-0.690	0.300
2020/01/31 15:22:49.6	110.800	0.270	-0.580	0.270
2020/01/31 15:22:49.7	110.790	0.230	-0.470	0.230
2020/01/31 15:22:49.8	110.780	0.180	-0.350	0.190
2020/01/31 15:22:49.9	110.770	0.120	-0.230	0.160
2020/01/31 15:22:50.0	110.760	0.070	-0.110	0.120
2020/01/31 15:22:50.1	110.750	0.010	0.010	0.090
2020/01/31 15:22:50.2	110.750	-0.050	0.130	0.050
2020/01/31 15:22:50.3	110.750	-0.100	0.250	0.010
2020/01/31 15:22:50.4	110.750	-0.160	0.370	-0.020
2020/01/31 15:22:50.5	110.750	-0.220	0.480	-0.060
2020/01/31 15:22:50.6	110.750	-0.280	0.600	-0.090
2020/01/31 15:22:50.7	110.750	-0.340	0.710	-0.120
2020/01/31 15:22:50.8	110.750	-0.390	0.810	-0.150
2020/01/31 15:22:50.9	110.760	-0.450	0.900	-0.180
2020/01/31 15:22:51.0	110.760	-0.500	0.990	-0.210
2020/01/31 15:22:51.1	110.770	-0.550	1.070	-0.240
2020/01/31 15:22:51.2	110.770	-0.590	1.140	-0.270
2020/01/31 15:22:51.3	110.780	-0.640	1.210	-0.290
2020/01/31 15:22:51.4	110.780	-0.670	1.260	-0.320
2020/01/31 15:22:51.5	110.790	-0.710	1.310	-0.340
2020/01/31 15:22:51.6	110.800	-0.740	1.350	-0.360
2020/01/31 15:22:51.7	110.810	-0.760	1.370	-0.380
2020/01/31 15:22:51.8	110.810	-0.780	1.390	-0.400
2020/01/31 15:22:51.9	110.820	-0.800	1.390	-0.410
2020/01/31 15:22:52.0	110.830	-0.810	1.390	-0.430
2020/01/31 15:22:52.1	110.840	-0.810	1.370	-0.440
2020/01/31 15:22:52.2	110.860	-0.810	1.340	-0.460
2020/01/31 15:22:52.3	110.870	-0.800	1.310	-0.470
2020/01/31 15:22:52.4	110.880	-0.790	1.260	-0.470
2020/01/31 15:22:52.5	110.890	-0.770	1.210	-0.480
2020/01/31 15:22:52.6	110.910	-0.750	1.140	-0.490
2020/01/31 15:22:52.7	110.920	-0.720	1.060	-0.490
2020/01/31 15:22:52.8	110.940	-0.690	0.980	-0.490
2020/01/31 15:22:52.9	110.950	-0.650	0.890	-0.500
2020/01/31 15:22:53.0	110.970	-0.610	0.790	-0.500
2020/01/31 15:22:53.1	110.980	-0.570	0.680	-0.490
2020/01/31 15:22:53.2	110.990	-0.520	0.570	-0.490
2020/01/31 15:22:53.3	111.010	-0.470	0.460	-0.490
2020/01/31 15:22:53.4	111.020	-0.410	0.340	-0.480
2020/01/31 15:22:53.5	111.040	-0.360	0.210	-0.470
2020/01/31 15:22:53.6	111.050	-0.300	0.080	-0.460
2020/01/31 15:22:53.7	111.060	-0.240	-0.040	-0.460
2020/01/31 15:22:53.8	111.070	-0.180	-0.170	-0.450
2020/01/31 15:22:53.9	111.090	-0.120	-0.300	-0.430
2020/01/31 15:22:54.0	111.100	-0.060	-0.430	-0.420
2020/01/31 15:22:54.1	111.110	0.000	-0.550	-0.410
2020/01/31 15:22:54.2	111.120	0.060	-0.670	-0.390
2020/01/31 15:22:54.3	111.130	0.120	-0.790	-0.380
2020/01/31 15:22:54.4	111.140	0.180	-0.910	-0.360
2020/01/31 15:22:54.5	111.140	0.230	-1.020	-0.340
2020/01/31 15:22:54.6	111.150	0.290	-1.120	-0.320
2020/01/31 15:22:54.7	111.160	0.340	-1.220	-0.300
2020/01/31 15:22:54.8	111.160	0.390	-1.310	-0.280
2020/01/31 15:22:54.9	111.170	0.440	-1.390	-0.250
2020/01/31 15:22:55.0	111.170	0.480	-1.460	-0.220
2020/01/31 15:22:55.1	111.170	0.520	-1.530	-0.190
2020/01/31 15:22:55.2	111.170	0.560	-1.590	-0.150
2020/01/31 15:22:55.3	111.170	0.590	-1.630	-0.120
2020/01/31 15:22:55.4	111.170	0.620	-1.670	-0.080
2020/01/31 15:22:55.5	111.170	0.650	-1.700	-0.030
2020/01/31 15:22:55.6	111.160	0.670	-1.720	0.020
2020/01/31 15:22:55.7	111.150	0.690	-1.730	0.070
2020/01/31 15:22:55.8	111.140	0.710	-1.730	0.130
2020/01/31 15:22:55.9	111.130	0.720	-1.710	0.190
2020/01/31 15:22:56.0	111.110	0.730	-1.690	0.250
2020/01/31 15:22:56.1	111.090	0.740	-1.660	0.310
2020/01/31 15:22:56.2	111.080	0.740	-1.620	0.380
2020/01/31 15:22:56.3	111.060	0.740	-1.570	0.450
2020/01/31 15:22:56.4	111.030	0.740	-1.510	0.520
2020/01/31 15:22:56.5	111.010	0.730	-1.450	0.590
2020/01/31 15:22:56.6	110.980	0.720	-1.370	0.670
2020/01/31 15:22:56.7	110.960	0.710	-1.290	0.750
2020/01/31 15:22:56.8	110.930	0.690	-1.210	0.820
2020/01/31 15:22:56.9	110.900	0.670	-1.120	0.900
2020/01/31 15:22:57.0	110.870	0.650	-1.020	0.970
2020/01/31 15:22:57.1	110.840	0.630	-0.920	1.040
2020/01/31 15:22:57.2	110.810	0.600	-0.820	1.120
2020/01/31 15:22:57.3	110.770	0.580	-0.710	1.190
2020/01/31 15:22:57.4	110.740	0.550	-0.600	1.250
2020/01/31 15:22:57.5	110.710	0.520	-0.490	1.320
2020/01/31 15:22:57.6	110.680	0.480	-0.380	1.380
2020/01/31 15:22:57.7	110.650	0.450	-0.260	1.440
2020/01/31 15:22:57.8	110.620	0.420	-0.150	1.490
2020/01/31 15:22:57.9	110.600	0.380	-0.040	1.540
2020/01/31 15:22:58.0	110.570	0.350	0.070	1.590
2020/01/31 15:22:58.1	110.550	0.310	0.180	1.630
2020/01/31 15:22:58.2	110.530	0.270	0.280	1.660
2020/01/31 15:22:58.3	110.510	0.240	0.380	1.690
2020/01/31 15:22:58.4	110.490	0.200	0.480	1.720
2020/01/31 15:22:58.5	110.470	0.160	0.570	1.730
2020/01/31 15:22:58.6	110.460	0.120	0.670	1.750
2020/01/31 15:22:58.7	110.450	0.090	0.750	1.760
2020/01/31 15:22:58.8	110.450	0.050	0.830	1.760
2020/01/31 15:22:58.9	110.440	0.020	0.910	1.760
2020/01/31 15:22:59.0	110.440	-0.020	0.980	1.750
2020/01/31 15:22:59.1	110.440	-0.050	1.040	1.740
2020/01/31 15:22:59.2	110.450	-0.090	1.090	1.720
2020/01/31 15:22:59.3	110.450	-0.120	1.140	1.700
2020/01/31 15:22:59.4	110.460	-0.150	1.180	1.670
2020/01/31 15:22:59.5	110.470	-0.180	1.220	1.640
2020/01/31 15:22:59.6	110.490	-0.210	1.240	1.600
2020/01/31 15:22:59.7	110.500	-0.230	1.260	1.570
2020/01/31 15:22:59.8	110.520	-0.260	1.270	1.520
2020/01/31 15:22:59.9	110.530	-0.280	1.270	1.480
2020/01/31 15:23:00.0	110.550	-0.300	1.270	1.430
2020/01/31 15:23:00.1	110.570	-0.320	1.250	1.390
2020/01/31 15:23:00.2	110.590	-0.340	1.230	1.330
2020/01/31 15:23:00.3	110.610	-0.350	1.200	1.280
2020/01/31 15:23:00.4	110.630	-0.360	1.160	1.230
2020/01/31 15:23:00.5	110.640	-0.370	1.110	1.170
2020/01/31 15:23:00.6	110.670	-0.380	1.060	1.110
2020/01/31 15:23:00.7	110.680	-0.390	1.000	1.050
2020/01/31 15:23:00.8	110.700	-0.390	0.930	0.990
2020/01/31 15:23:00.9	110.720	-0.390	0.850	0.930
2020/01/31 15:23:01.0	110.740	-0.390	0.770	0.870
2020/01/31 15:23:01.1	110.750	-0.390	0.680	0.810
2020/01/31 15:23:01.2	110.770	-0.380	0.590	0.740
2020/01/31 15:23:01.3	110.780	-0.370	0.490	0.680
2020/01/31 15:23:01.4	110.800	-0.360	0.380	0.620
2020/01/31 15:23:01.5	110.810	-0.350	0.280	0.560
2020/01/31 15:23:01.6	110.820	-0.340	0.160	0.500
2020/01/31 15:23:01.7	110.840	-0.320	0.050	0.440
2020/01/31 15:23:01.8	110.850	-0.310	-0.060	0.380
2020/01/31 15:23:01.9	110.860	-0.290	-0.170	0.320
2020/01/31 15:23:02.0	110.860	-0.270	-0.280	0.270
2020/01/31 15:23:02.1	110.870	-0.250	-0.390	0.210
2020/01/31 15:23:02.2	110.880	-0.230	-0.500	0.160
2020/01/31 15:23:02.3	110.890	-0.210	-0.600	0.110
2020/01/31 15:23:02.4	110.890	-0.190	-0.700	0.060
2020/01/31 15:23:02.5	110.900	-0.170	-0.800	0.020
2020/01/31 15:23:02.6	110.890	-0.150	-0.880	-0.030
2020/01/31 15:23:02.7	110.900	-0.130	-0.970	-0.070
2020/01/31 15:23:02.8	110.900	-0.110	-1.050	-0.110
2020/01/31 15:23:02.9	110.900	-0.090	-1.120	-0.140
2020/01/31 15:23:03.0	110.890	-0.070	-1.180	-0.170
2020/01/31 15:23:03.1	110.890	-0.050	-1.240	-0.200
2020/01/31 15:23:03.2	110.880	-0.030	-1.290	-0.220
2020/01/31 15:23:03.3	110.880	-0.010	-1.330	-0.240
2020/01/31 15:23:03.4	110.870	0.000	-1.360	-0.260
2020/01/31 15:23:03.5	110.860	0.020	-1.380	-0.270
2020/01/31 15:23:03.6	110.850	0.030	-1.400	-0.280
2020/01/31 15:23:03.7	110.830	0.050	-1.410	-0.280
2020/01/31 15:23:03.8	110.820	0.060	-1.410	-0.280
2020/01/31 15:23:03.9	110.800	0.070	-1.410	-0.280
2020/01/31 15:23:04.0	110.780	0.080	-1.400	-0.270
2020/01/31 15:23:04.1	110.760	0.090	-1.380	-0.260
2020/01/31 15:23:04.2	110.740	0.100	-1.360	-0.250
2020/01/31 15:23:04.3	110.720	0.100	-1.330	-0.230
2020/01/31 15:23:04.4	110.700	0.110	-1.300	-0.210
2020/01/31 15:23:04.5	110.680	0.110	-1.260	-0.190
2020/01/31 15:23:04.6	110.660	0.120	-1.210	-0.160
2020/01/31 15:23:04.7	110.630	0.120	-1.170	-0.130
2020/01/31 15:23:04.8	110.610	0.120	-1.120	-0.100
2020/01/31 15:23:04.9	110.590	0.120	-1.070	-0.070
2020/01/31 15:23:05.0	110.560	0.120	-1.010	-0.040
2020/01/31 15:23:05.1	110.540	0.120	-0.960	-0.000
2020/01/31 15:23:05.2	110.520	0.120	-0.900	0.040
2020/01/31 15:23:05.3	110.490	0.120	-0.840	0.070
2020/01/31 15:23:05.4	110.470	0.120	-0.780	0.110
2020/01/31 15:23:05.5	110.450	0.120	-0.720	0.140
2020/01/31 15:23:05.6	110.420	0.110	-0.650	0.190
2020/01/31 15:23:05.7	110.400	0.110	-0.590	0.230
2020/01/31 15:23:05.8	110.380	0.110	-0.530	0.260
2020/01/31 15:23:05.9	110.370	0.100	-0.470	0.290
2020/01/31 15:23:06.0	110.350	0.100	-0.400	0.330
2020/01/31 15:23:06.1	110.330	0.090	-0.340	0.360
2020/01/31 15:23:06.2	110.320	0.090	-0.280	0.380
2020/01/31 15:23:06.3	110.300	0.080	-0.220	0.410
2020/01/31 15:23:06.4	110.290	0.070	-0.160	0.430
2020/01/31 15:23:06.5	110.270	0.070	-0.100	0.460
2020/01/31 15:23:06.6	110.260	0.060	-0.040	0.470
2020/01/31 15:23:06.7	110.250	0.050	0.010	0.490
2020/01/31 15:23:06.8	110.240	0.040	0.070	0.510
2020/01/31 15:23:06.9	110.230	0.030	0.120	0.520
2020/01/31 15:23:07.0	110.230	0.030	0.170	0.540
2020/01/31 15:23:07.1	110.220	0.020	0.210	0.550
2020/01/31 15:23:07.2	110.210	0.010	0.260	0.550
2020/01/31 15:23:07.3	110.210	-0.000	0.300	0.560
2020/01/31 15:23:07.4	110.210	-0.010	0.340	0.560
2020/01/31 15:23:07.5	110.210	-0.030	0.380	0.570
2020/01/31 15:23:07.6	110.210	-0.040	0.410	0.570
2020/01/31 15:23:07.7	110.210	-0.050	0.450	0.570
2020/01/31 15:23:07.8	110.210	-0.060	0.480	0.570
2020/01/31 15:23:07.9	110.210	-0.070	0.500	0.570
2020/01/31 15:23:08.0	110.210	-0.090	0.530	0.560
2020/01/31 15:23:08.1	110.220	-0.100	0.550	0.550
2020/01/31 15:23:08.2	110.220	-0.110	0.570	0.540
2020/01/31 15:23:08.3	110.230	-0.120	0.590	0.530
2020/01/31 15:23:08.4	110.240	-0.130	0.600	0.520
2020/01/31 15:23:08.5	110.250	-0.150	0.620	0.510
2020/01/31 15:23:08.6	110.260	-0.160	0.630	0.490
2020/01/31 15:23:08.7	110.280	-0.170	0.630	0.470
2020/01/31 15:23:08.8	110.290	-0.180	0.630	0.450
2020/01/31 15:23:08.9	110.310	-0.180	0.630	0.430
2020/01/31 15:23:09.0	110.330	-0.190	0.630	0.400
2020/01/31 15:23:09.1	110.350	-0.200	0.620	0.380
2020/01/31 15:23:09.2	110.370	-0.200	0.610	0.350
2020/01/31 15:23:09.3	110.390	-0.210	0.600	0.320
2020/01/31 15:23:09.4	110.410	-0.210	0.580	0.290
2020/01/31 15:23:09.5	110.430	-0.210	0.560	0.260
2020/01/31 15:23:09.6	110.470	-0.210	0.540	0.240
2020/01/31 15:23:09.7	110.490	-0.210	0.510	0.210
2020/01/31 15:23:09.8	110.520	-0.200	0.480	0.180
2020/01/31 15:23:09.9	110.540	-0.190	0.450	0.150
2020/01/31 15:23:10.0	110.570	-0.190	0.410	0.120
2020/01/31 15:23:10.1	110.590	-0.180	0.370	0.090
2020/01/31 15:23:10.2	110.610	-0.170	0.330	0.060
2020/01/31 15:23:10.3	110.640	-0.150	0.290	0.040
2020/01/31 15:23:10.4	110.660	-0.140	0.240	0.010
2020/01/31 15:23:10.5	110.680	-0.130	0.190	-0.000
2020/01/31 15:23:10.6	110.690	-0.110	0.140	-0.030
2020/01/31 15:23:10.7	110.710	-0.090	0.080	-0.040
2020/01/31 15:23:10.8	110.730	-0.070	0.030	-0.050
2020/01/31 15:23:10.9	110.740	-0.050	-0.030	-0.050
2020/01/31 15:23:11.0	110.750	-0.030	-0.080	-0.060
2020/01/31 15:23:11.1	110.760	-0.010	-0.140	-0.050
2020/01/31 15:23:11.2	110.770	0.010	-0.200	-0.050
2020/01/31 15:23:11.3	110.780	0.030	-0.250	-0.040
2020/01/31 15:23:11.4	110.790	0.050	-0.310	-0.030
2020/01/31 15:23:11.5	110.790	0.070	-0.360	-0.010
2020/01/31 15:23:11.6	110.790	0.090	-0.420	0.010
2020/01/31 15:23:11.7	110.790	0.110	-0.470	0.030
2020/01/31 15:23:11.8	110.800	0.130	-0.520	0.060
2020/01/31 15:23:11.9	110.800	0.140	-0.560	0.090
2020/01/31 15:23:12.0	110.800	0.160	-0.610	0.120
2020/01/31 15:23:12.1	110.800	0.180	-0.650	0.150
2020/01/31 15:23:12.2	110.800	0.190	-0.690	0.190
2020/01/31 15:23:12.3	110.800	0.210	-0.730	0.230
2020/01/31 15:23:12.4	110.800	0.220	-0.760	0.270
2020/01/31 15:23:12.5	110.790	0.230	-0.790	0.320
2020/01/31 15:23:12.6	110.780	0.240	-0.810	0.360
2020/01/31 15:23:12.7	110.780	0.250	-0.840	0.410
2020/01/31 15:23:12.8	110.770	0.260	-0.850	0.460
2020/01/31 15:23:12.9	110.770	0.270	-0.870	0.510
2020/01/31 15:23:13.0	110.760	0.280	-0.880	0.560
2020/01/31 15:23:13.1	110.750	0.280	-0.890	0.620
2020/01/31 15:23:13.2	110.740	0.280	-0.890	0.670
2020/01/31 15:23:13.3	110.720	0.290	-0.890	0.730
2020/01/31 15:23:13.4	110.710	0.290	-0.880	0.790
2020/01/31 15:23:13.5	110.690	0.290	-0.870	0.850
2020/01/31 15:23:13.6	110.680	0.290	-0.860	0.910
2020/01/31 15:23:13.7	110.660	0.290	-0.840	0.970
2020/01/31 15:23:13.8	110.640	0.280	-0.820	1.030
2020/01/31 15:23:13.9	110.620	0.280	-0.790	1.090
2020/01/31 15:23:14.0	110.590	0.270	-0.760	1.150
2020/01/31 15:23:14.1	110.570	0.270	-0.730	1.210
2020/01/31 15:23:14.2	110.550	0.260	-0.700	1.260
2020/01/31 15:23:14.3	110.520	0.250	-0.660	1.320
2020/01/31 15:23:14.4	110.500	0.240	-0.620	1.370
2020/01/31 15:23:14.5	110.480	0.230	-0.570	1.420
2020/01/31 15:23:14.6	110.450	0.220	-0.530	1.470
2020/01/31 15:23:14.7	110.430	0.210	-0.480	1.510
2020/01/31 15:23:14.8	110.410	0.200	-0.440	1.550
2020/01/31 15:23:14.9	110.380	0.190	-0.390	1.590
2020/01/31 15:23:15.0	110.360	0.170	-0.340	1.630
2020/01/31 15:23:15.1	110.340	0.160	-0.290	1.660
2020/01/31 15:23:15.2	110.330	0.140	-0.240	1.690
2020/01/31 15:23:15.3	110.310	0.130	-0.190	1.720
2020/01/31 15:23:15.4	110.300	0.120	-0.140	1.740
2020/01/31 15:23:15.5	110.280	0.100	-0.100	1.750
2020/01/31 15:23:15.6	110.270	0.080	-0.050	1.770
2020/01/31 15:23:15.7	110.260	0.070	-0.000	1.770
2020/01/31 15:23:15.8	110.250	0.050	0.040	1.780
2020/01/31 15:23:15.9	110.250	0.040	0.080	1.780
2020/01/31 15:23:16.0	110.240	0.020	0.120	1.780
2020/01/31 15:23:16.1	110.240	0.010	0.150	1.770
2020/01/31 15:23:16.2	110.240	-0.010	0.190	1.760
2020/01/31 15:23:16.3	110.250	-0.020	0.220	1.750
2020/01/31 15:23:16.4	110.260	-0.030	0.250	1.730
2020/01/31 15:23:16.5	110.270	-0.040	0.270	1.710
2020/01/31 15:23:16.6	110.280	-0.060	0.290	1.680
2020/01/31 15:23:16.7	110.290	-0.070	0.310	1.650
2020/01/31 15:23:16.8	110.310	-0.080	0.330	1.620
2020/01/31 15:23:16.9	110.330	-0.090	0.340	1.590
2020/01/31 15:23:17.0	110.350	-0.090	0.350	1.550
2020/01/31 15:23:17.1	110.370	-0.100	0.360	1.510
2020/01/31 15:23:17.2	110.390	-0.110	0.360	1.460
2020/01/31 15:23:17.3	110.420	-0.110	0.360	1.410
2020/01/31 15:23:17.4	110.450	-0.110	0.360	1.370
2020/01/31 15:23:17.5	110.470	-0.110	0.350	1.310
2020/01/31 15:23:17.6	110.500	-0.120	0.340	1.250
2020/01/31 15:23:17.7	110.530	-0.120	0.330	1.200
2020/01/31 15:23:17.8	110.560	-0.110	0.320	1.140
2020/01/31 15:23:17.9	110.600	-0.110	0.300	1.080
2020/01/31 15:23:18.0	110.630	-0.110	0.280	1.020
2020/01/31 15:23:18.1	110.660	-0.100	0.260	0.960
2020/01/31 15:23:18.2	110.700	-0.100	0.240	0.900
2020/01/31 15:23:18.3	110.730	-0.090	0.210	0.830
2020/01/31 15:23:18.4	110.760	-0.080	0.190	0.770
2020/01/31 15:23:18.5	110.790	-0.070	0.160	0.710
2020/01/31 15:23:18.6	110.820	-0.060	0.130	0.650
2020/01/31 15:23:18.7	110.840	-0.050	0.100	0.580
2020/01/31 15:23:18.8	110.870	-0.040	0.060	0.520
2020/01/31 15:23:18.9	110.890	-0.030	0.030	0.460
2020/01/31 15:23:19.0	110.910	-0.020	-0.010	0.400
2020/01/31 15:23:19.1	110.930	-0.010	-0.050	0.340
2020/01/31 15:23:19.2	110.940	0.010	-0.080	0.280
2020/01/31 15:23:19.3	110.950	0.020	-0.120	0.220
2020/01/31 15:23:19.4	110.960	0.030	-0.160	0.170
2020/01/31 15:23:19.5	110.970	0.050	-0.200	0.110
2020/01/31 15:23:19.6	110.960	0.060	-0.250	0.060
2020/01/31 15:23:19.7	110.960	0.070	-0.290	0.010
2020/01/31 15:23:19.8	110.960	0.090	-0.330	-0.030
2020/01/31 15:23:19.9	110.950	0.100	-0.360	-0.070
2020/01/31 15:23:20.0	110.940	0.110	-0.400	-0.110
2020/01/31 15:23:20.1	110.930	0.120	-0.440	-0.140
2020/01/31 15:23:20.2	110.920	0.140	-0.470	-0.170
2020/01/31 15:23:20.3	110.900	0.150	-0.500	-0.190
2020/01/31 15:23:20.4	110.880	0.160	-0.540	-0.220
2020/01/31 15:23:20.5	110.860	0.170	-0.560	-0.230
2020/01/31 15:23:20.6	110.840	0.170	-0.590	-0.240
2020/01/31 15:23:20.7	110.820	0.180	-0.610	-0.250
2020/01/31 15:23:20.8	110.790	0.190	-0.630	-0.250
2020/01/31 15:23:20.9	110.760	0.190	-0.650	-0.250
2020/01/31 15:23:21.0	110.740	0.200	-0.660	-0.250
2020/01/31 15:23:21.1	110.710	0.200	-0.680	-0.240
2020/01/31 15:23:21.2	110.680	0.210	-0.690	-0.230
2020/01/31 15:23:21.3	110.650	0.210	-0.700	-0.210
2020/01/31 15:23:21.4	110.620	0.210	-0.700	-0.190
2020/01/31 15:23:21.5	110.590	0.210	-0.700	-0.170
2020/01/31 15:23:21.6	110.560	0.200	-0.700	-0.140
2020/01/31 15:23:21.7	110.530	0.200	-0.700	-0.120
2020/01/31 15:23:21.8	110.510	0.200	-0.690	-0.080
2020/01/31 15:23:21.9	110.480	0.190	-0.680	-0.050
2020/01/31 15:23:22.0	110.450	0.190	-0.670	-0.020
2020/01/31 15:23:22.1	110.430	0.180	-0.650	0.020
2020/01/31 15:23:22.2	110.400	0.170	-0.640	0.060
2020/01/31 15:23:22.3	110.380	0.160	-0.610	0.090
2020/01/31 15:23:22.4	110.370	0.150	-0.590	0.130
2020/01/31 15:23:22.5	110.350	0.130	-0.570	0.170
2020/01/31 15:23:22.6	110.340	0.120	-0.540	0.210
2020/01/31 15:23:22.7	110.330	0.100	-0.510	0.240
2020/01/31 15:23:22.8	110.320	0.090	-0.480	0.280
2020/01/31 15:23:22.9	110.320	0.070	-0.450	0.310
2020/01/31 15:23:23.0	110.310	0.050	-0.410	0.350
2020/01/31 15:23:23.1	110.320	0.030	-0.380	0.380
2020/01/31 15:23:23.2	110.320	0.010	-0.340	0.410
2020/01/31 15:23:23.3	110.330	-0.010	-0.310	0.440
2020/01/31 15:23:23.4	110.340	-0.040	-0.270	0.470
2020/01/31 15:23:23.5	110.350	-0.060	-0.230	0.500
2020/01/31 15:23:23.6	110.360	-0.080	-0.190	0.530
2020/01/31 15:23:23.7	110.380	-0.110	-0.150	0.550
2020/01/31 15:23:23.8	110.400	-0.130	-0.120	0.570
2020/01/31 15:23:23.9	110.420	-0.160	-0.080	0.590
2020/01/31 15:23:24.0	110.440	-0.180	-0.040	0.610
2020/01/31 15:23:24.1	110.460	-0.210	-0.000	0.630
2020/01/31 15:23:24.2	110.490	-0.230	0.030	0.650
2020/01/31 15:23:24.3	110.510	-0.260	0.070	0.670
2020/01/31 15:23:24.4	110.540	-0.280	0.100	0.680
2020/01/31 15:23:24.5	110.560	-0.300	0.130	0.700
2020/01/31 15:23:24.6	110.590	-0.320	0.160	0.710
2020/01/31 15:23:24.7	110.610	-0.340	0.190	0.730
2020/01/31 15:23:24.8	110.640	-0.360	0.210	0.740
2020/01/31 15:23:24.9	110.660	-0.380	0.240	0.750
2020/01/31 15:23:25.0	110.690	-0.400	0.260	0.760
2020/01/31 15:23:25.1	110.710	-0.410	0.280	0.770
2020/01/31 15:23:25.2	110.730	-0.420	0.300	0.780
2020/01/31 15:23:25.3	110.760	-0.430	0.320	0.790
2020/01/31 15:23:25.4	110.780	-0.440	0.330	0.800
2020/01/31 15:23:25.5	110.800	-0.440	0.340	0.810
2020/01/31 15:23:25.6	110.820	-0.450	0.350	0.820
2020/01/31 15:23:25.7	110.840	-0.450	0.360	0.830
2020/01/31 15:23:25.8	110.860	-0.450	0.360	0.830
2020/01/31 15:23:25.9	110.880	-0.450	0.360	0.840
2020/01/31 15:23:26.0	110.890	-0.440	0.360	0.850
2020/01/31 15:23:26.1	110.910	-0.430	0.360	0.860
2020/01/31 15:23:26.2	110.920	-0.420	0.350	0.870
2020/01/31 15:23:26.3	110.930	-0.410	0.340	0.870
2020/01/31 15:23:26.4	110.940	-0.390	0.320	0.880
2020/01/31 15:23:26.5	110.950	-0.380	0.310	0.890
2020/01/31 15:23:26.6	110.960	-0.360	0.290	0.910
2020/01/31 15:23:26.7	110.960	-0.340	0.260	0.920
2020/01/31 15:23:26.8	110.960	-0.320	0.240	0.930
2020/01/31 15:23:26.9	110.960	-0.290	0.220	0.940
2020/01/31 15:23:27.0	110.960	-0.270	0.190	0.960
2020/01/31 15:23:27.1	110.950	-0.240	0.160	0.970
2020/01/31 15:23:27.2	110.940	-0.210	0.130	0.990
2020/01/31 15:23:27.3	110.930	-0.180	0.100	1.010
2020/01/31 15:23:27.4	110.920	-0.150	0.060	1.030
2020/01/31 15:23:27.5	110.900	-0.120	0.030	1.050
2020/01/31 15:23:27.6	110.880	-0.090	-0.000	1.070
2020/01/31 15:23:27.7	110.850	-0.060	-0.040	1.090
2020/01/31 15:23:27.8	110.830	-0.030	-0.070	1.110
2020/01/31 15:23:27.9	110.800	-0.000	-0.100	1.140
2020/01/31 15:23:28.0	110.780	0.030	-0.140	1.160
2020/01/31 15:23:28.1	110.750	0.060	-0.170	1.190
2020/01/31 15:23:28.2	110.710	0.090	-0.200	1.220
2020/01/31 15:23:28.3	110.680	0.110	-0.230	1.240
2020/01/31 15:23:28.4	110.650	0.140	-0.250	1.270
2020/01/31 15:23:28.5	110.610	0.160	-0.280	1.300
2020/01/31 15:23:28.6	110.580	0.190	-0.300	1.320
2020/01/31 15:23:28.7	110.540	0.210	-0.320	1.350
2020/01/31 15:23:28.8	110.510	0.230	-0.340	1.370
2020/01/31 15:23:28.9	110.480	0.240	-0.350	1.390
2020/01/31 15:23:29.0	110.450	0.260	-0.370	1.400
2020/01/31 15:23:29.1	110.420	0.280	-0.380	1.420
2020/01/31 15:23:29.2	110.390	0.290	-0.390	1.430
2020/01/31 15:23:29.3	110.360	0.300	-0.400	1.430
2020/01/31 15:23:29.4	110.330	0.310	-0.400	1.440
2020/01/31 15:23:29.5	110.310	0.320	-0.410	1.440
2020/01/31 15:23:29.6	110.280	0.320	-0.410	1.440
2020/01/31 15:23:29.7	110.260	0.330	-0.420	1.430
2020/01/31 15:23:29.8	110.240	0.330	-0.420	1.420
2020/01/31 15:23:29.9	110.220	0.330	-0.420	1.410
2020/01/31 15:23:30.0	110.200	0.330	-0.420	1.400
2020/01/31 15:23:30.1	110.190	0.330	-0.420	1.380
2020/01/31 15:23:30.2	110.180	0.330	-0.420	1.360
2020/01/31 15:23:30.3	110.160	0.330	-0.420	1.330
2020/01/31 15:23:30.4	110.150	0.330	-0.420	1.310
2020/01/31 15:23:30.5	110.150	0.320	-0.410	1.280
2020/01/31 15:23:30.6	110.140	0.320	-0.410	1.250
2020/01/31 15:23:30.7	110.140	0.310	-0.410	1.220
2020/01/31 15:23:30.8	110.140	0.310	-0.410	1.180
2020/01/31 15:23:30.9	110.140	0.300	-0.410	1.140
2020/01/31 15:23:31.0	110.150	0.290	-0.410	1.100
2020/01/31 15:23:31.1	110.150	0.280	-0.410	1.060
2020/01/31 15:23:31.2	110.160	0.280	-0.410	1.020
2020/01/31 15:23:31.3	110.170	0.270	-0.410	0.970
2020/01/31 15:23:31.4	110.190	0.260	-0.410	0.930
2020/01/31 15:23:31.5	110.200	0.250	-0.410	0.880
2020/01/31 15:23:31.6	110.220	0.240	-0.410	0.830
2020/01/31 15:23:31.7	110.240	0.240	-0.420	0.780
2020/01/31 15:23:31.8	110.260	0.230	-0.420	0.720
2020/01/31 15:23:31.9	110.290	0.220	-0.420	0.670
2020/01/31 15:23:32.0	110.310	0.210	-0.420	0.620
2020/01/31 15:23:32.1	110.340	0.200	-0.420	0.560
2020/01/31 15:23:32.2	110.370	0.200	-0.420	0.510
2020/01/31 15:23:32.3	110.400	0.190	-0.420	0.450
2020/01/31 15:23:32.4	110.430	0.180	-0.420	0.400
2020/01/31 15:23:32.5	110.460	0.170	-0.420	0.340
2020/01/31 15:23:32.6	110.490	0.160	-0.420	0.290
2020/01/31 15:23:32.7	110.510	0.160	-0.420	0.240
2020/01/31 15:23:32.8	110.540	0.150	-0.410	0.200
2020/01/31 15:23:32.9	110.570	0.140	-0.410	0.150
2020/01/31 15:23:33.0	110.590	0.130	-0.410	0.110
2020/01/31 15:23:33.1	110.620	0.130	-0.400	0.070
2020/01/31 15:23:33.2	110.640	0.120	-0.400	0.030
2020/01/31 15:23:33.3	110.660	0.110	-0.400	0.000
2020/01/31 15:23:33.4	110.670	0.100	-0.390	-0.020
2020/01/31 15:23:33.5	110.690	0.090	-0.380	-0.040
2020/01/31 15:23:33.6	110.700	0.080	-0.370	-0.060
2020/01/31 15:23:33.7	110.700	0.070	-0.370	-0.070
2020/01/31 15:23:33.8	110.700	0.060	-0.360	-0.070
2020/01/31 15:23:33.9	110.700	0.050	-0.340	-0.070
2020/01/31 15:23:34.0	110.700	0.040	-0.330	-0.060
2020/01/31 15:23:34.1	110.690	0.030	-0.320	-0.050
2020/01/31 15:23:34.2	110.680	0.020	-0.300	-0.030
2020/01/31 15:23:34.3	110.660	0.010	-0.290	-0.010
2020/01/31 15:23:34.4	110.640	-0.010	-0.270	0.020
2020/01/31 15:23:34.5	110.620	-0.020	-0.250	0.060
2020/01/31 15:23:34.6	110.590	-0.030	-0.230	0.100
2020/01/31 15:23:34.7	110.560	-0.050	-0.210	0.140
2020/01/31 15:23:34.8	110.530	-0.060	-0.190	0.190
2020/01/31 15:23:34.9	110.490	-0.080	-0.160	0.240
2020/01/31 15:23:35.0	110.450	-0.090	-0.140	0.300
2020/01/31 15:23:35.1	110.410	-0.110	-0.110	0.350
2020/01/31 15:23:35.2	110.370	-0.120	-0.090	0.410
2020/01/31 15:23:35.3	110.330	-0.140	-0.060	0.470
2020/01/31 15:23:35.4	110.280	-0.160	-0.030	0.530
2020/01/31 15:23:35.5	110.240	-0.170	-0.000	0.590
2020/01/31 15:23:35.6	110.190	-0.190	0.020	0.650
2020/01/31 15:23:35.7	110.140	-0.200	0.050	0.710
2020/01/31 15:23:35.8	110.100	-0.220	0.080	0.760
2020/01/31 15:23:35.9	110.050	-0.230	0.100	0.820
2020/01/31 15:23:36.0	110.000	-0.250	0.130	0.870
2020/01/31 15:23:36.1	109.960	-0.260	0.150	0.920
2020/01/31 15:23:36.2	109.920	-0.270	0.170	0.960
2020/01/31 15:23:36.3	109.880	-0.290	0.190	1.000
2020/01/31 15:23:36.4	109.840	-0.300	0.210	1.040
2020/01/31 15:23:36.5	109.800	-0.310	0.230	1.070
2020/01/31 15:23:36.6	109.770	-0.320	0.250	1.100
2020/01/31 15:23:36.7	109.730	-0.330	0.260	1.120
2020/01/31 15:23:36.8	109.710	-0.330	0.260	1.130
2020/01/31 15:23:36.9	109.680	-0.340	0.270	1.140
2020/01/31 15:23:37.0	109.660	-0.350	0.270	1.150
2020/01/31 15:23:37.1	109.640	-0.350	0.270	1.150
2020/01/31 15:23:37.2	109.620	-0.350	0.260	1.140
2020/01/31 15:23:37.3	109.610	-0.350	0.250	1.130
2020/01/31 15:23:37.4	109.600	-0.350	0.240	1.120
2020/01/31 15:23:37.5	109.590	-0.350	0.230	1.100
2020/01/31 15:23:37.6	109.580	-0.340	0.210	1.080
2020/01/31 15:23:37.7	109.580	-0.340	0.190	1.050
2020/01/31 15:23:37.8	109.580	-0.330	0.170	1.030
2020/01/31 15:23:37.9	109.580	-0.320	0.150	1.000
2020/01/31 15:23:38.0	109.580	-0.310	0.130	0.970
2020/01/31 15:23:38.1	109.580	-0.300	0.100	0.940
2020/01/31 15:23:38.2	109.590	-0.290	0.070	0.910
2020/01/31 15:23:38.3	109.590	-0.270	0.050	0.880
2020/01/31 15:23:38.4	109.600	-0.260	0.020	0.850
2020/01/31 15:23:38.5	109.610	-0.240	-0.010	0.820
2020/01/31 15:23:38.6	109.620	-0.220	-0.040	0.790
2020/01/31 15:23:38.7	109.630	-0.210	-0.070	0.760
2020/01/31 15:23:38.8	109.640	-0.190	-0.100	0.730
2020/01/31 15:23:38.9	109.650	-0.170	-0.130	0.700
2020/01/31 15:23:39.0	109.660	-0.150	-0.150	0.670
2020/01/31 15:23:39.1	109.680	-0.130	-0.180	0.650
2020/01/31 15:23:39.2	109.690	-0.110	-0.210	0.620
2020/01/31 15:23:39.3	109.700	-0.090	-0.230	0.590
2020/01/31 15:23:39.4	109.710	-0.070	-0.250	0.570
2020/01/31 15:23:39.5	109.730	-0.060	-0.280	0.540
2020/01/31 15:23:39.6	109.740	-0.040	-0.300	0.520
2020/01/31 15:23:39.7	109.760	-0.020	-0.310	0.500
2020/01/31 15:23:39.8	109.770	-0.010	-0.330	0.470
2020/01/31 15:23:39.9	109.780	0.010	-0.350	0.450
2020/01/31 15:23:40.0	109.790	0.020	-0.360	0.430
2020/01/31 15:23:40.1	109.800	0.030	-0.370	0.410
2020/01/31 15:23:40.2	109.810	0.040	-0.380	0.400
2020/01/31 15:23:40.3	109.820	0.050	-0.380	0.380
2020/01/31 15:23:40.4	109.830	0.060	-0.380	0.360
2020/01/31 15:23:40.5	109.840	0.070	-0.390	0.340
2020/01/31 15:23:40.6	109.850	0.070	-0.390	0.330
2020/01/31 15:23:40.7	109.860	0.080	-0.380	0.310
2020/01/31 15:23:40.8	109.870	0.080	-0.380	0.300
2020/01/31 15:23:40.9	109.870	0.080	-0.380	0.290
2020/01/31 15:23:41.0	109.880	0.080	-0.370	0.270
2020/01/31 15:23:41.1	109.880	0.080	-0.360	0.260
2020/01/31 15:23:41.2	109.880	0.080	-0.350	0.250
2020/01/31 15:23:41.3	109.880	0.080	-0.340	0.240
2020/01/31 15:23:41.4	109.880	0.070	-0.340	0.230
2020/01/31 15:23:41.5	109.880	0.070	-0.330	0.230
2020/01/31 15:23:41.6	109.880	0.070	-0.310	0.220
2020/01/31 15:23:41.7	109.870	0.060	-0.300	0.210
2020/01/31 15:23:41.8	109.870	0.060	-0.290	0.210
2020/01/31 15:23:41.9	109.860	0.060	-0.280	0.210
2020/01/31 15:23:42.0	109.850	0.050	-0.270	0.210
2020/01/31 15:23:42.1	109.840	0.050	-0.260	0.210
2020/01/31 15:23:42.2	109.830	0.050	-0.250	0.220
2020/01/31 15:23:42.3	109.810	0.050	-0.240	0.220
2020/01/31 15:23:42.4	109.800	0.040	-0.230	0.230
2020/01/31 15:23:42.5	109.780	0.040	-0.220	0.240
2020/01/31 15:23:42.6	109.760	0.040	-0.220	0.260
2020/01/31 15:23:42.7	109.740	0.040	-0.210	0.280
2020/01/31 15:23:42.8	109.720	0.040	-0.200	0.290
2020/01/31 15:23:42.9	109.700	0.040	-0.200	0.310
2020/01/31 15:23:43.0	109.670	0.040	-0.190	0.330
2020/01/31 15:23:43.1	109.650	0.040	-0.190	0.360
2020/01/31 15:23:43.2	109.620	0.050	-0.180	0.380
2020/01/31 15:23:43.3	109.590	0.050	-0.180	0.410
2020/01/31 15:23:43.4	109.560	0.050	-0.180	0.440
2020/01/31 15:23:43.5	109.530	0.050	-0.180	0.460
2020/01/31 15:23:43.6	109.500	0.060	-0.180	0.500
2020/01/31 15:23:43.7	109.470	0.060	-0.190	0.530
2020/01/31 15:23:43.8	109.440	0.070	-0.190	0.560
2020/01/31 15:23:43.9	109.410	0.070	-0.200	0.590
2020/01/31 15:23:44.0	109.380	0.080	-0.210	0.620
2020/01/31 15:23:44.1	109.350	0.080	-0.220	0.660
2020/01/31 15:23:44.2	109.320	0.090	-0.230	0.690
2020/01/31 15:23:44.3	109.290	0.090	-0.250	0.720
2020/01/31 15:23:44.4	109.260	0.100	-0.260	0.750
2020/01/31 15:23:44.5	109.240	0.100	-0.280	0.780
2020/01/31 15:23:44.6	109.210	0.110	-0.300	0.810
2020/01/31 15:23:44.7	109.190	0.120	-0.320	0.830
2020/01/31 15:23:44.8	109.170	0.120	-0.340	0.860
2020/01/31 15:23:44.9	109.150	0.130	-0.360	0.880
2020/01/31 15:23:45.0	109.130	0.140	-0.380	0.910
2020/01/31 15:23:45.1	109.110	0.140	-0.400	0.930
2020/01/31 15:23:45.2	109.090	0.150	-0.430	0.950
2020/01/31 15:23:45.3	109.080	0.160	-0.450	0.970
2020/01/31 15:23:45.4	109.060	0.160	-0.470	0.990
2020/01/31 15:23:45.5	109.040	0.170	-0.490	1.000
2020/01/31 15:23:45.6	109.030	0.170	-0.500	1.030
2020/01/31 15:23:45.7	109.010	0.180	-0.520	1.040
2020/01/31 15:23:45.8	108.990	0.180	-0.530	1.050
2020/01/31 15:23:45.9	108.980	0.190	-0.540	1.070
2020/01/31 15:23:46.0	108.960	0.190	-0.540	1.080
2020/01/31 15:23:46.1	108.950	0.190	-0.540	1.090
2020/01/31 15:23:46.2	108.930	0.190	-0.540	1.100
2020/01/31 15:23:46.3	108.910	0.190	-0.540	1.100
2020/01/31 15:23:46.4	108.900	0.190	-0.520	1.110
2020/01/31 15:23:46.5	108.880	0.190	-0.510	1.110
2020/01/31 15:23:46.6	108.870	0.180	-0.490	1.120
2020/01/31 15:23:46.7	108.860	0.180	-0.470	1.120
2020/01/31 15:23:46.8	108.840	0.170	-0.440	1.120
2020/01/31 15:23:46.9	108.830	0.160	-0.410	1.110
2020/01/31 15:23:47.0	108.810	0.150	-0.370	1.110
2020/01/31 15:23:47.1	108.800	0.140	-0.340	1.100
2020/01/31 15:23:47.2	108.790	0.120	-0.300	1.090
2020/01/31 15:23:47.3	108.780	0.110	-0.260	1.080
2020/01/31 15:23:47.4	108.770	0.090	-0.210	1.070
2020/01/31 15:23:47.5	108.760	0.070	-0.170	1.050
2020/01/31 15:23:47.6	108.760	0.050	-0.120	1.030
2020/01/31 15:23:47.7	108.760	0.030	-0.070	1.020
2020/01/31 15:23:47.8	108.750	0.010	-0.020	0.990
2020/01/31 15:23:47.9	108.750	-0.020	0.030	0.970
2020/01/31 15:23:48.0	108.750	-0.040	0.080	0.940
2020/01/31 15:23:48.1	108.750	-0.060	0.120	0.920
2020/01/31 15:23:48.2	108.750	-0.090	0.170	0.890
2020/01/31 15:23:48.3	108.750	-0.110	0.210	0.850
2020/01/31 15:23:48.4	108.760	-0.130	0.250	0.820
2020/01/31 15:23:48.5	108.760	-0.160	0.290	0.790
2020/01/31 15:23:48.6	108.770	-0.180	0.330	0.750
2020/01/31 15:23:48.7	108.780	-0.200	0.360	0.720
2020/01/31 15:23:48.8	108.780	-0.220	0.380	0.680
2020/01/31 15:23:48.9	108.790	-0.240	0.410	0.640
2020/01/31 15:23:49.0	108.800	-0.260	0.430	0.600
2020/01/31 15:23:49.1	108.810	-0.270	0.440	0.560
2020/01/31 15:23:49.2	108.810	-0.290	0.450	0.520
2020/01/31 15:23:49.3	108.820	-0.300	0.450	0.480
2020/01/31 15:23:49.4	108.830	-0.310	0.450	0.440
2020/01/31 15:23:49.5	108.840	-0.320	0.450	0.400
2020/01/31 15:23:49.6	108.850	-0.320	0.440	0.370
2020/01/31 15:23:49.7	108.860	-0.330	0.420	0.330
2020/01/31 15:23:49.8	108.880	-0.330	0.400	0.300
2020/01/31 15:23:49.9	108.890	-0.330	0.380	0.260
2020/01/31 15:23:50.0	108.900	-0.320	0.350	0.230
2020/01/31 15:23:50.1	108.910	-0.320	0.320	0.190
2020/01/31 15:23:50.2	108.920	-0.310	0.280	0.160
2020/01/31 15:23:50.3	108.930	-0.300	0.240	0.140
2020/01/31 15:23:50.4	108.950	-0.290	0.200	0.110
2020/01/31 15:23:50.5	108.960	-0.270	0.150	0.090
2020/01/31 15:23:50.6	108.970	-0.260	0.110	0.070
2020/01/31 15:23:50.7	108.970	-0.240	0.060	0.050
2020/01/31 15:23:50.8	108.980	-0.220	0.000	0.030
2020/01/31 15:23:50.9	108.990	-0.200	-0.050	0.020
2020/01/31 15:23:51.0	109.000	-0.180	-0.100	0.010
2020/01/31 15:23:51.1	109.000	-0.150	-0.150	0.000
2020/01/31 15:23:51.2	109.000	-0.130	-0.210	-0.010
2020/01/31 15:23:51.3	109.010	-0.110	-0.260	-0.010
2020/01/31 15:23:51.4	109.010	-0.080	-0.310	-0.010
2020/01/31 15:23:51.5	109.010	-0.060	-0.360	-0.010
2020/01/31 15:23:51.6	109.010	-0.040	-0.400	-0.010
2020/01/31 15:23:51.7	109.010	-0.020	-0.440	-0.000
2020/01/31 15:23:51.8	109.000	0.000	-0.480	0.000
2020/01/31 15:23:51.9	109.000	0.020	-0.520	0.010
2020/01/31 15:23:52.0	108.990	0.040	-0.560	0.020
2020/01/31 15:23:52.1	108.980	0.060	-0.590	0.030
2020/01/31 15:23:52.2	108.970	0.070	-0.610	0.050
2020/01/31 15:23:52.3	108.960	0.080	-0.640	0.060
2020/01/31 15:23:52.4	108.950	0.100	-0.650	0.080
2020/01/31 15:23:52.5	108.930	0.100	-0.670	0.100
2020/01/31 15:23:52.6	108.920	0.110	-0.680	0.120
2020/01/31 15:23:52.7	108.900	0.120	-0.680	0.140
2020/01/31 15:23:52.8	108.880	0.120	-0.680	0.160
2020/01/31 15:23:52.9	108.860	0.120	-0.680	0.190
2020/01/31 15:23:53.0	108.840	0.120	-0.670	0.210
2020/01/31 15:23:53.1	108.820	0.110	-0.660	0.240
2020/01/31 15:23:53.2	108.790	0.110	-0.650	0.260
2020/01/31 15:23:53.3	108.770	0.100	-0.630	0.290
2020/01/31 15:23:53.4	108.750	0.090	-0.610	0.320
2020/01/31 15:23:53.5	108.720	0.080	-0.580	0.350
2020/01/31 15:23:53.6	108.700	0.060	-0.550	0.380
2020/01/31 15:23:53.7	108.670	0.050	-0.510	0.410
2020/01/31 15:23:53.8	108.650	0.030	-0.480	0.440
2020/01/31 15:23:53.9	108.630	0.010	-0.440	0.470
2020/01/31 15:23:54.0	108.600	-0.010	-0.400	0.500
2020/01/31 15:23:54.1	108.580	-0.030	-0.360	0.530
2020/01/31 15:23:54.2	108.550	-0.050	-0.320	0.560
2020/01/31 15:23:54.3	108.530	-0.070	-0.280	0.590
2020/01/31 15:23:54.4	108.510	-0.090	-0.230	0.610
2020/01/31 15:23:54.5	108.480	-0.110	-0.190	0.640
2020/01/31 15:23:54.6	108.460	-0.140	-0.150	0.680
2020/01/31 15:23:54.7	108.430	-0.160	-0.110	0.700
2020/01/31 15:23:54.8	108.410	-0.180	-0.070	0.730
2020/01/31 15:23:54.9	108.390	-0.200	-0.030	0.760
2020/01/31 15:23:55.0	108.370	-0.220	0.000	0.790
2020/01/31 15:23:55.1	108.350	-0.240	0.030	0.820
2020/01/31 15:23:55.2	108.330	-0.250	0.060	0.840
2020/01/31 15:23:55.3	108.310	-0.270	0.090	0.870
2020/01/31 15:23:55.4	108.290	-0.280	0.120	0.900
2020/01/31 15:23:55.5	108.270	-0.290	0.140	0.920
2020/01/31 15:23:55.6	108.250	-0.300	0.160	0.950
2020/01/31 15:23:55.7	108.240	-0.310	0.170	0.980
2020/01/31 15:23:55.8	108.220	-0.310	0.180	1.000
2020/01/31 15:23:55.9	108.210	-0.320	0.190	1.010
2020/01/31 15:23:56.0	108.190	-0.320	0.190	1.030
2020/01/31 15:23:56.1	108.180	-0.320	0.190	1.040
2020/01/31 15:23:56.2	108.170	-0.310	0.180	1.050
2020/01/31 15:23:56.3	108.160	-0.310	0.170	1.060
2020/01/31 15:23:56.4	108.160	-0.300	0.160	1.060
2020/01/31 15:23:56.5	108.160	-0.290	0.150	1.060
2020/01/31 15:23:56.6	108.150	-0.280	0.130	1.050
2020/01/31 15:23:56.7	108.150	-0.260	0.110	1.040
2020/01/31 15:23:56.8	108.160	-0.250	0.090	1.020
2020/01/31 15:23:56.9	108.160	-0.230	0.070	1.010
2020/01/31 15:23:57.0	108.170	-0.210	0.040	0.980
2020/01/31 15:23:57.1	108.170	-0.190	0.010	0.960
2020/01/31 15:23:57.2	108.180	-0.170	-0.020	0.930
2020/01/31 15:23:57.3	108.190	-0.140	-0.050	0.900
2020/01/31 15:23:57.4	108.210	-0.120	-0.080	0.860
2020/01/31 15:23:57.5	108.220	-0.100	-0.120	0.820
2020/01/31 15:23:57.6	108.240	-0.070	-0.150	0.780
2020/01/31 15:23:57.7	108.250	-0.040	-0.190	0.740
2020/01/31 15:23:57.8	108.270	-0.020	-0.220	0.690
2020/01/31 15:23:57.9	108.280	0.010	-0.260	0.640
2020/01/31 15:23:58.0	108.290	0.040	-0.290	0.590
2020/01/31 15:23:58.1	108.310	0.060	-0.330	0.540
2020/01/31 15:23:58.2	108.320	0.090	-0.360	0.490
2020/01/31 15:23:58.3	108.340	0.110	-0.390	0.440
2020/01/31 15:23:58.4	108.350	0.140	-0.420	0.390
2020/01/31 15:23:58.5	108.360	0.160	-0.460	0.350
2020/01/31 15:23:58.6	108.360	0.190	-0.480	0.300
2020/01/31 15:23:58.7	108.370	0.210	-0.510	0.250
2020/01/31 15:23:58.8	108.380	0.230	-0.530	0.210
2020/01/31 15:23:58.9	108.390	0.250	-0.560	0.180
2020/01/31 15:23:59.0	108.390	0.270	-0.580	0.140
2020/01/31 15:23:59.1	108.400	0.290	-0.590	0.110
2020/01/31 15:23:59.2	108.400	0.310	-0.610	0.080
2020/01/31 15:23:59.3	108.400	0.320	-0.620	0.060
2020/01/31 15:23:59.4	108.400	0.330	-0.630	0.040
2020/01/31 15:23:59.5	108.400	0.340	-0.640	0.020
2020/01/31 15:23:59.6	108.390	0.350	-0.630	0.020
2020/01/31 15:23:59.7	108.390	0.360	-0.630	0.020
2020/01/31 15:23:59.8	108.380	0.370	-0.630	0.010
2020/01/31 15:23:59.9	108.370	0.370	-0.630	0.010
2020/01/31 15:24:00.0	108.360	0.370	-0.620	0.020
2020/01/31 15:24:00.1	108.350	0.370	-0.600	0.020
2020/01/31 15:24:00.2	108.340	0.370	-0.590	0.030
2020/01/31 15:24:00.3	108.320	0.370	-0.570	0.050
2020/01/31 15:24:00.4	108.310	0.370	-0.550	0.060
2020/01/31 15:24:00.5	108.290	0.360	-0.530	0.080
2020/01/31 15:24:00.6	108.270	0.350	-0.510	0.100
2020/01/31 15:24:00.7	108.250	0.350	-0.480	0.120
2020/01/31 15:24:00.8	108.230	0.340	-0.450	0.140
2020/01/31 15:24:00.9	108.210	0.330	-0.420	0.170
2020/01/31 15:24:01.0	108.190	0.320	-0.390	0.190
2020/01/31 15:24:01.1	108.170	0.300	-0.360	0.220
2020/01/31 15:24:01.2	108.140	0.290	-0.320	0.240
2020/01/31 15:24:01.3	108.120	0.270	-0.290	0.270
2020/01/31 15:24:01.4	108.100	0.260	-0.250	0.290
2020/01/31 15:24:01.5	108.080	0.240	-0.210	0.310
2020/01/31 15:24:01.6	108.060	0.230	-0.170	0.330
2020/01/31 15:24:01.7	108.040	0.210	-0.120	0.350
2020/01/31 15:24:01.8	108.020	0.190	-0.080	0.370
2020/01/31 15:24:01.9	108.010	0.170	-0.040	0.390
2020/01/31 15:24:02.0	108.000	0.150	0.000	0.400
2020/01/31 15:24:02.1	107.990	0.130	0.050	0.410
2020/01/31 15:24:02.2	107.980	0.110	0.090	0.420
2020/01/31 15:24:02.3	107.970	0.090	0.130	0.430
2020/01/31 15:24:02.4	107.970	0.070	0.170	0.440
2020/01/31 15:24:02.5	107.970	0.050	0.220	0.440
2020/01/31 15:24:02.6	107.970	0.030	0.260	0.450
2020/01/31 15:24:02.7	107.970	0.010	0.290	0.450
2020/01/31 15:24:02.8	107.970	-0.010	0.330	0.450
2020/01/31 15:24:02.9	107.980	-0.030	0.360	0.450
2020/01/31 15:24:03.0	107.990	-0.050	0.390	0.450
2020/01/31 15:24:03.1	107.990	-0.070	0.420	0.450
2020/01/31 15:24:03.2	108.000	-0.080	0.440	0.450
2020/01/31 15:24:03.3	108.010	-0.100	0.460	0.450
2020/01/31 15:24:03.4	108.020	-0.120	0.470	0.450
2020/01/31 15:24:03.5	108.030	-0.130	0.480	0.450
2020/01/31 15:24:03.6	108.040	-0.140	0.480	0.450
2020/01/31 15:24:03.7	108.050	-0.150	0.480	0.450
2020/01/31 15:24:03.8	108.060	-0.160	0.480	0.450
2020/01/31 15:24:03.9	108.070	-0.170	0.470	0.460
2020/01/31 15:24:04.0	108.080	-0.180	0.450	0.470
2020/01/31 15:24:04.1	108.090	-0.190	0.430	0.480
2020/01/31 15:24:04.2	108.100	-0.190	0.400	0.490
2020/01/31 15:24:04.3	108.100	-0.200	0.370	0.500
2020/01/31 15:24:04.4	108.110	-0.200	0.330	0.510
2020/01/31 15:24:04.5	108.110	-0.200	0.290	0.530
2020/01/31 15:24:04.6	108.110	-0.200	0.250	0.550
2020/01/31 15:24:04.7	108.110	-0.200	0.210	0.570
2020/01/31 15:24:04.8	108.110	-0.210	0.160	0.590
2020/01/31 15:24:04.9	108.110	-0.210	0.110	0.610
2020/01/31 15:24:05.0	108.110	-0.200	0.050	0.630
2020/01/31 15:24:05.1	108.110	-0.200	0.000	0.650
2020/01/31 15:24:05.2	108.100	-0.200	-0.050	0.680
2020/01/31 15:24:05.3	108.100	-0.200	-0.100	0.700
2020/01/31 15:24:05.4	108.090	-0.200	-0.160	0.720
2020/01/31 15:24:05.5	108.080	-0.200	-0.210	0.740
2020/01/31 15:24:05.6	108.080	-0.200	-0.260	0.760
2020/01/31 15:24:05.7	108.070	-0.210	-0.310	0.780
2020/01/31 15:24:05.8	108.050	-0.210	-0.360	0.800
2020/01/31 15:24:05.9	108.040	-0.210	-0.400	0.820
2020/01/31 15:24:06.0	108.030	-0.210	-0.440	0.840
2020/01/31 15:24:06.1	108.010	-0.220	-0.480	0.860
2020/01/31 15:24:06.2	107.990	-0.220	-0.510	0.880
2020/01/31 15:24:06.3	107.980	-0.230	-0.540	0.900
2020/01/31 15:24:06.4	107.960	-0.230	-0.560	0.910
2020/01/31 15:24:06.5	107.940	-0.240	-0.580	0.930
2020/01/31 15:24:06.6	107.920	-0.240	-0.600	0.950
2020/01/31 15:24:06.7	107.900	-0.250	-0.610	0.960
2020/01/31 15:24:06.8	107.880	-0.250	-0.620	0.970
2020/01/31 15:24:06.9	107.860	-0.260	-0.620	0.980
2020/01/31 15:24:07.0	107.840	-0.270	-0.620	0.990
2020/01/31 15:24:07.1	107.820	-0.270	-0.610	1.000
2020/01/31 15:24:07.2	107.810	-0.280	-0.600	1.000
2020/01/31 15:24:07.3	107.790	-0.280	-0.590	1.010
2020/01/31 15:24:07.4	107.770	-0.290	-0.570	1.020
2020/01/31 15:24:07.5	107.760	-0.290	-0.550	1.020
2020/01/31 15:24:07.6	107.740	-0.290	-0.530	1.020
2020/01/31 15:24:07.7	107.730	-0.290	-0.510	1.020
2020/01/31 15:24:07.8	107.730	-0.290	-0.480	1.020
2020/01/31 15:24:07.9	107.720	-0.290	-0.450	1.020
2020/01/31 15:24:08.0	107.720	-0.290	-0.420	1.020
2020/01/31 15:24:08.1	107.720	-0.290	-0.390	1.010
2020/01/31 15:24:08.2	107.720	-0.280	-0.360	1.000
2020/01/31 15:24:08.3	107.720	-0.270	-0.330	0.990
2020/01/31 15:24:08.4	107.730	-0.270	-0.300	0.980
2020/01/31 15:24:08.5	107.740	-0.260	-0.270	0.970
2020/01/31 15:24:08.6	107.750	-0.250	-0.250	0.950
2020/01/31 15:24:08.7	107.760	-0.230	-0.220	0.930
2020/01/31 15:24:08.8	107.780	-0.220	-0.200	0.920
2020/01/31 15:24:08.9	107.790	-0.200	-0.180	0.900
2020/01/31 15:24:09.0	107.810	-0.190	-0.160	0.870
2020/01/31 15:24:09.1	107.830	-0.170	-0.150	0.850
2020/01/31 15:24:09.2	107.850	-0.150	-0.140	0.830
2020/01/31 15:24:09.3	107.880	-0.130	-0.140	0.800
2020/01/31 15:24:09.4	107.900	-0.110	-0.130	0.780
2020/01/31 15:24:09.5	107.920	-0.090	-0.140	0.750
2020/01/31 15:24:09.6	107.950	-0.060	-0.140	0.730
2020/01/31 15:24:09.7	107.970	-0.040	-0.150	0.700
2020/01/31 15:24:09.8	107.990	-0.020	-0.160	0.670
2020/01/31 15:24:09.9	108.010	0.010	-0.170	0.650
2020/01/31 15:24:10.0	108.030	0.030	-0.190	0.620
2020/01/31 15:24:10.1	108.050	0.060	-0.210	0.600
2020/01/31 15:24:10.2	108.060	0.080	-0.230	0.570
2020/01/31 15:24:10.3	108.070	0.110	-0.250	0.550
2020/01/31 15:24:10.4	108.080	0.130	-0.270	0.530
2020/01/31 15:24:10.5	108.090	0.150	-0.290	0.510
2020/01/31 15:24:10.6	108.100	0.180	-0.320	0.490
2020/01/31 15:24:10.7	108.100	0.200	-0.340	0.470
2020/01/31 15:24:10.8	108.100	0.220	-0.360	0.450
2020/01/31 15:24:10.9	108.100	0.240	-0.380	0.430
2020/01/31 15:24:11.0	108.090	0.260	-0.390	0.420
2020/01/31 15:24:11.1	108.090	0.280	-0.400	0.400
2020/01/31 15:24:11.2	108.080	0.290	-0.420	0.390
2020/01/31 15:24:11.3	108.070	0.310	-0.420	0.380
2020/01/31 15:24:11.4	108.060	0.320	-0.430	0.360
2020/01/31 15:24:11.5	108.040	0.330	-0.430	0.350
2020/01/31 15:24:11.6	108.030	0.330	-0.420	0.340
2020/01/31 15:24:11.7	108.020	0.340	-0.420	0.330
2020/01/31 15:24:11.8	108.000	0.340	-0.410	0.320
2020/01/31 15:24:11.9	107.980	0.350	-0.390	0.300
2020/01/31 15:24:12.0	107.960	0.340	-0.370	0.290
2020/01/31 15:24:12.1	107.940	0.340	-0.360	0.280
2020/01/31 15:24:12.2	107.920	0.340	-0.330	0.270
2020/01/31 15:24:12.3	107.900	0.330	-0.310	0.260
2020/01/31 15:24:12.4	107.880	0.320	-0.280	0.240
2020/01/31 15:24:12.5	107.860	0.310	-0.250	0.230
2020/01/31 15:24:12.6	107.850	0.300	-0.220	0.220
2020/01/31 15:24:12.7	107.830	0.280	-0.190	0.210
2020/01/31 15:24:12.8	107.800	0.270	-0.150	0.200
2020/01/31 15:24:12.9	107.780	0.250	-0.120	0.190
2020/01/31 15:24:13.0	107.760	0.230	-0.080	0.190
2020/01/31 15:24:13.1	107.740	0.210	-0.050	0.180
2020/01/31 15:24:13.2	107.720	0.190	-0.020	0.170
2020/01/31 15:24:13.3	107.700	0.170	0.020	0.170
2020/01/31 15:24:13.4	107.670	0.150	0.050	0.160
2020/01/31 15:24:13.5	107.650	0.130	0.080	0.160
2020/01/31 15:24:13.6	107.620	0.110	0.100	0.160
2020/01/31 15:24:13.7	107.600	0.090	0.130	0.160
2020/01/31 15:24:13.8	107.580	0.070	0.150	0.150
2020/01/31 15:24:13.9	107.560	0.050	0.180	0.150
2020/01/31 15:24:14.0	107.540	0.030	0.200	0.150
2020/01/31 15:24:14.1	107.520	0.010	0.210	0.150
2020/01/31 15:24:14.2	107.510	-0.010	0.230	0.150
2020/01/31 15:24:14.3	107.490	-0.030	0.240	0.150
2020/01/31 15:24:14.4	107.480	-0.040	0.250	0.150
2020/01/31 15:24:14.5	107.470	-0.060	0.260	0.150
2020/01/31 15:24:14.6	107.450	-0.080	0.270	0.150
2020/01/31 15:24:14.7	107.440	-0.090	0.270	0.150
2020/01/31 15:24:14.8	107.430	-0.110	0.270	0.150
2020/01/31 15:24:14.9	107.430	-0.120	0.270	0.150
2020/01/31 15:24:15.0	107.420	-0.130	0.260	0.140
2020/01/31 15:24:15.1	107.420	-0.140	0.260	0.140
2020/01/31 15:24:15.2	107.420	-0.150	0.250	0.130
2020/01/31 15:24:15.3	107.420	-0.160	0.240	0.130
2020/01/31 15:24:15.4	107.420	-0.170	0.230	0.120
2020/01/31 15:24:15.5	107.420	-0.180	0.220	0.110
2020/01/31 15:24:15.6	107.430	-0.190	0.210	0.100
2020/01/31 15:24:15.7	107.430	-0.190	0.190	0.090
2020/01/31 15:24:15.8	107.440	-0.200	0.180	0.090
2020/01/31 15:24:15.9	107.450	-0.200	0.160	0.080
2020/01/31 15:24:16.0	107.460	-0.210	0.140	0.070
2020/01/31 15:24:16.1	107.470	-0.210	0.130	0.060
2020/01/31 15:24:16.2	107.480	-0.210	0.110	0.050
2020/01/31 15:24:16.3	107.490	-0.210	0.090	0.050
2020/01/31 15:24:16.4	107.510	-0.210	0.070	0.040
2020/01/31 15:24:16.5	107.520	-0.210	0.050	0.030
2020/01/31 15:24:16.6	107.530	-0.210	0.030	0.030
2020/01/31 15:24:16.7	107.550	-0.210	0.000	0.030
2020/01/31 15:24:16.8	107.560	-0.210	-0.020	0.020
2020/01/31 15:24:16.9	107.570	-0.200	-0.040	0.020
2020/01/31 15:24:17.0	107.590	-0.200	-0.060	0.020
2020/01/31 15:24:17.1	107.600	-0.190	-0.090	0.020
2020/01/31 15:24:17.2	107.610	-0.180	-0.120	0.020
2020/01/31 15:24:17.3	107.620	-0.180	-0.140	0.030
2020/01/31 15:24:17.4	107.630	-0.170	-0.170	0.030
2020/01/31 15:24:17.5	107.640	-0.160	-0.200	0.040
2020/01/31 15:24:17.6	107.650	-0.140	-0.230	0.050
2020/01/31 15:24:17.7	107.650	-0.130	-0.260	0.060
2020/01/31 15:24:17.8	107.660	-0.120	-0.290	0.070
2020/01/31 15:24:17.9	107.660	-0.100	-0.320	0.090
2020/01/31 15:24:18.0	107.670	-0.090	-0.360	0.110
2020/01/31 15:24:18.1	107.670	-0.070	-0.390	0.130
2020/01/31 15:24:18.2	107.670	-0.050	-0.430	0.150
2020/01/31 15:24:18.3	107.670	-0.040	-0.460	0.170
2020/01/31 15:24:18.4	107.670	-0.020	-0.500	0.190
2020/01/31 15:24:18.5	107.670	0.000	-0.540	0.220
2020/01/31 15:24:18.6	107.670	0.020	-0.580	0.250
2020/01/31 15:24:18.7	107.660	0.040	-0.620	0.280
2020/01/31 15:24:18.8	107.660	0.070	-0.660	0.310
2020/01/31 15:24:18.9	107.650	0.090	-0.700	0.340
2020/01/31 15:24:19.0	107.650	0.110	-0.740	0.380
2020/01/31 15:24:19.1	107.640	0.130	-0.770	0.410
2020/01/31 15:24:19.2	107.630	0.150	-0.810	0.450
2020/01/31 15:24:19.3	107.630	0.170	-0.840	0.490
2020/01/31 15:24:19.4	107.620	0.190	-0.870	0.520
2020/01/31 15:24:19.5	107.610	0.210	-0.900	0.560
2020/01/31 15:24:19.6	107.610	0.220	-0.920	0.600
2020/01/31 15:24:19.7	107.600	0.240	-0.940	0.640
2020/01/31 15:24:19.8	107.600	0.250	-0.950	0.680
2020/01/31 15:24:19.9	107.590	0.260	-0.960	0.720
2020/01/31 15:24:20.0	107.580	0.270	-0.970	0.750
2020/01/31 15:24:20.1	107.580	0.280	-0.970	0.790
2020/01/31 15:24:20.2	107.580	0.280	-0.960	0.830
2020/01/31 15:24:20.3	107.570	0.290	-0.950	0.860
2020/01/31 15:24:20.4	107.570	0.290	-0.930	0.900
2020/01/31 15:24:20.5	107.570	0.290	-0.900	0.930
2020/01/31 15:24:20.6	107.570	0.280	-0.870	0.970
2020/01/31 15:24:20.7	107.570	0.270	-0.830	1.000
2020/01/31 15:24:20.8	107.570	0.260	-0.790	1.030
2020/01/31 15:24:20.9	107.570	0.250	-0.730	1.060
2020/01/31 15:24:21.0	107.570	0.230	-0.670	1.080
2020/01/31 15:24:21.1	107.570	0.220	-0.610	1.110
2020/01/31 15:24:21.2	107.570	0.200	-0.540	1.140
2020/01/31 15:24:21.3	107.570	0.180	-0.470	1.160
2020/01/31 15:24:21.4	107.570	0.150	-0.390	1.180
2020/01/31 15:24:21.5	107.570	0.130	-0.310	1.200
2020/01/31 15:24:21.6	107.580	0.100	-0.220	1.220
2020/01/31 15:24:21.7	107.580	0.080	-0.130	1.240
2020/01/31 15:24:21.8	107.580	0.050	-0.050	1.250
2020/01/31 15:24:21.9	107.580	0.020	0.040	1.270
2020/01/31 15:24:22.0	107.580	-0.010	0.130	1.280
2020/01/31 15:24:22.1	107.580	-0.040	0.210	1.290
2020/01/31 15:24:22.2	107.570	-0.060	0.300	1.300
2020/01/31 15:24:22.3	107.570	-0.090	0.370	1.310
2020/01/31 15:24:22.4	107.570	-0.120	0.450	1.310
2020/01/31 15:24:22.5	107.560	-0.140	0.520	1.320
2020/01/31 15:24:22.6	107.570	-0.160	0.590	1.320
2020/01/31 15:24:22.7	107.560	-0.180	0.650	1.320
2020/01/31 15:24:22.8	107.560	-0.200	0.710	1.320
2020/01/31 15:24:22.9	107.550	-0.220	0.760	1.310
2020/01/31 15:24:23.0	107.550	-0.240	0.800	1.300
2020/01/31 15:24:23.1	107.540	-0.250	0.830	1.290
2020/01/31 15:24:23.2	107.540	-0.260	0.860	1.280
2020/01/31 15:24:23.3	107.540	-0.270	0.880	1.260
2020/01/31 15:24:23.4	107.530	-0.280	0.890	1.250
2020/01/31 15:24:23.5	107.530	-0.280	0.890	1.220
2020/01/31 15:24:23.6	107.520	-0.280	0.890	1.200
2020/01/31 15:24:23.7	107.520	-0.280	0.870	1.170
2020/01/31 15:24:23.8	107.520	-0.280	0.850	1.140
2020/01/31 15:24:23.9	107.520	-0.270	0.820	1.110
2020/01/31 15:24:24.0	107.510	-0.270	0.790	1.070
2020/01/31 15:24:24.1	107.510	-0.260	0.750	1.040
2020/01/31 15:24:24.2	107.510	-0.240	0.700	1.000
2020/01/31 15:24:24.3	107.510	-0.230	0.640	0.950
2020/01/31 15:24:24.4	107.500	-0.210	0.580	0.910
2020/01/31 15:24:24.5	107.500	-0.190	0.510	0.860
2020/01/31 15:24:24.6	107.500	-0.170	0.440	0.820
2020/01/31 15:24:24.7	107.490	-0.150	0.370	0.770
2020/01/31 15:24:24.8	107.490	-0.130	0.290	0.720
2020/01/31 15:24:24.9	107.480	-0.110	0.210	0.670
2020/01/31 15:24:25.0	107.470	-0.090	0.130	0.620
2020/01/31 15:24:25.1	107.460	-0.060	0.040	0.580
2020/01/31 15:24:25.2	107.450	-0.040	-0.040	0.530
2020/01/31 15:24:25.3	107.440	-0.010	-0.120	0.480
2020/01/31 15:24:25.4	107.430	0.010	-0.200	0.430
2020/01/31 15:24:25.5	107.420	0.030	-0.280	0.390
2020/01/31 15:24:25.6	107.410	0.050	-0.360	0.340
2020/01/31 15:24:25.7	107.400	0.080	-0.430	0.300
2020/01/31 15:24:25.8	107.380	0.100	-0.500	0.260
2020/01/31 15:24:25.9	107.370	0.120	-0.570	0.220
2020/01/31 15:24:26.0	107.360	0.140	-0.630	0.170
2020/01/31 15:24:26.1	107.340	0.150	-0.690	0.130
2020/01/31 15:24:26.2	107.330	0.170	-0.750	0.100
2020/01/31 15:24:26.3	107.310	0.180	-0.800	0.060
2020/01/31 15:24:26.4	107.300	0.200	-0.840	0.020
2020/01/31 15:24:26.5	107.290	0.210	-0.880	-0.010
2020/01/31 15:24:26.6	107.280	0.220	-0.920	-0.040
2020/01/31 15:24:26.7	107.270	0.230	-0.950	-0.080
2020/01/31 15:24:26.8	107.270	0.230	-0.970	-0.110
2020/01/31 15:24:26.9	107.260	0.240	-0.990	-0.140
2020/01/31 15:24:27.0	107.260	0.240	-1.010	-0.170
2020/01/31 15:24:27.1	107.250	0.240	-1.020	-0.200
2020/01/31 15:24:27.2	107.250	0.240	-1.030	-0.220
2020/01/31 15:24:27.3	107.250	0.240	-1.030	-0.250
2020/01/31 15:24:27.4	107.260	0.240	-1.030	-0.280
2020/01/31 15:24:27.5	107.270	0.240	-1.020	-0.300
2020/01/31 15:24:27.6	107.270	0.230	-1.010	-0.320
2020/01/31 15:24:27.7	107.280	0.230	-0.990	-0.340
2020/01/31 15:24:27.8	107.300	0.220	-0.970	-0.360
2020/01/31 15:24:27.9	107.310	0.220	-0.950	-0.380
2020/01/31 15:24:28.0	107.330	0.210	-0.930	-0.390
2020/01/31 15:24:28.1	107.350	0.200	-0.900	-0.400
2020/01/31 15:24:28.2	107.370	0.190	-0.870	-0.410
2020/01/31 15:24:28.3	107.390	0.180	-0.830	-0.420
2020/01/31 15:24:28.4	107.410	0.170	-0.790	-0.420
2020/01/31 15:24:28.5	107.440	0.160	-0.750	-0.420
2020/01/31 15:24:28.6	107.460	0.150	-0.710	-0.420
2020/01/31 15:24:28.7	107.490	0.140	-0.660	-0.410
2020/01/31 15:24:28.8	107.510	0.130	-0.610	-0.400
2020/01/31 15:24:28.9	107.540	0.120	-0.560	-0.390
2020/01/31 15:24:29.0	107.560	0.110	-0.500	-0.380
2020/01/31 15:24:29.1	107.580	0.090	-0.450	-0.360
2020/01/31 15:24:29.2	107.600	0.080	-0.390	-0.340
2020/01/31 15:24:29.3	107.620	0.070	-0.320	-0.310
2020/01/31 15:24:29.4	107.640	0.060	-0.260	-0.280
2020/01/31 15:24:29.5	107.650	0.040	-0.190	-0.250
2020/01/31 15:24:29.6	107.660	0.030	-0.120	-0.210
2020/01/31 15:24:29.7	107.670	0.020	-0.050	-0.170
2020/01/31 15:24:29.8	107.680	0.000	0.010	-0.130
2020/01/31 15:24:29.9	107.690	-0.010	0.080	-0.090
2020/01/31 15:24:30.0	107.690	-0.030	0.150	-0.040
2020/01/31 15:24:30.1	107.690	-0.040	0.210	0.010
2020/01/31 15:24:30.2	107.690	-0.050	0.280	0.060
2020/01/31 15:24:30.3	107.680	-0.070	0.340	0.110
2020/01/31 15:24:30.4	107.680	-0.080	0.400	0.160
2020/01/31 15:24:30.5	107.670	-0.090	0.460	0.220
2020/01/31 15:24:30.6	107.660	-0.100	0.510	0.280
2020/01/31 15:24:30.7	107.640	-0.120	0.560	0.330
2020/01/31 15:24:30.8	107.630	-0.130	0.600	0.390
2020/01/31 15:24:30.9	107.620	-0.140	0.640	0.440
2020/01/31 15:24:31.0	107.600	-0.150	0.680	0.490
2020/01/31 15:24:31.1	107.580	-0.160	0.700	0.540
2020/01/31 15:24:31.2	107.570	-0.170	0.730	0.590
2020/01/31 15:24:31.3	107.550	-0.170	0.740	0.640
2020/01/31 15:24:31.4	107.530	-0.180	0.750	0.680
2020/01/31 15:24:31.5	107.510	-0.190	0.750	0.720
2020/01/31 15:24:31.6	107.500	-0.190	0.750	0.760
2020/01/31 15:24:31.7	107.480	-0.200	0.740	0.800
2020/01/31 15:24:31.8	107.460	-0.200	0.720	0.830
2020/01/31 15:24:31.9	107.450	-0.200	0.700	0.860
2020/01/31 15:24:32.0	107.430	-0.200	0.660	0.890
2020/01/31 15:24:32.1	107.420	-0.200	0.630	0.910
2020/01/31 15:24:32.2	107.400	-0.200	0.580	0.930
2020/01/31 15:24:32.3	107.390	-0.190	0.530	0.950
2020/01/31 15:24:32.4	107.380	-0.190	0.470	0.970
2020/01/31 15:24:32.5	107.370	-0.180	0.410	0.980
2020/01/31 15:24:32.6	107.360	-0.170	0.350	1.000
2020/01/31 15:24:32.7	107.350	-0.170	0.280	1.010
2020/01/31 15:24:32.8	107.340	-0.160	0.200	1.020
2020/01/31 15:24:32.9	107.330	-0.150	0.130	1.030
2020/01/31 15:24:33.0	107.330	-0.130	0.050	1.040
2020/01/31 15:24:33.1	107.320	-0.120	-0.030	1.050
2020/01/31 15:24:33.2	107.320	-0.110	-0.110	1.060
2020/01/31 15:24:33.3	107.310	-0.090	-0.190	1.070
2020/01/31 15:24:33.4	107.310	-0.080	-0.270	1.080
2020/01/31 15:24:33.5	107.310	-0.060	-0.350	1.090
2020/01/31 15:24:33.6	107.310	-0.050	-0.430	1.110
2020/01/31 15:24:33.7	107.310	-0.030	-0.510	1.120
2020/01/31 15:24:33.8	107.310	-0.020	-0.580	1.130
2020/01/31 15:24:33.9	107.320	-0.000	-0.650	1.140
2020/01/31 15:24:34.0	107.320	0.010	-0.710	1.160
2020/01/31 15:24:34.1	107.330	0.030	-0.770	1.170
2020/01/31 15:24:34.2	107.340	0.040	-0.830	1.190
2020/01/31 15:24:34.3	107.350	0.060	-0.880	1.200
2020/01/31 15:24:34.4	107.360	0.070	-0.920	1.220
2020/01/31 15:24:34.5	107.370	0.090	-0.960	1.230
2020/01/31 15:24:34.6	107.380	0.100	-0.990	1.250
2020/01/31 15:24:34.7	107.390	0.110	-1.020	1.260
2020/01/31 15:24:34.8	107.400	0.120	-1.040	1.280
2020/01/31 15:24:34.9	107.420	0.130	-1.050	1.290
2020/01/31 15:24:35.0	107.430	0.140	-1.060	1.300
2020/01/31 15:24:35.1	107.440	0.140	-1.060	1.310
2020/01/31 15:24:35.2	107.450	0.150	-1.060	1.330
2020/01/31 15:24:35.3	107.470	0.160	-1.050	1.340
2020/01/31 15:24:35.4	107.480	0.160	-1.040	1.340
2020/01/31 15:24:35.5	107.490	0.160	-1.020	1.350
2020/01/31 15:24:35.6	107.500	0.160	-0.990	1.360
2020/01/31 15:24:35.7	107.510	0.160	-0.960	1.360
2020/01/31 15:24:35.8	107.520	0.160	-0.930	1.360
2020/01/31 15:24:35.9	107.530	0.160	-0.890	1.360
2020/01/31 15:24:36.0	107.540	0.150	-0.840	1.360
2020/01/31 15:24:36.1	107.550	0.140	-0.800	1.360
2020/01/31 15:24:36.2	107.550	0.140	-0.750	1.350
2020/01/31 15:24:36.3	107.560	0.130	-0.700	1.340
2020/01/31 15:24:36.4	107.570	0.120	-0.650	1.340
2020/01/31 15:24:36.5	107.570	0.110	-0.590	1.320
2020/01/31 15:24:36.6	107.580	0.100	-0.540	1.320
2020/01/31 15:24:36.7	107.580	0.090	-0.480	1.300
2020/01/31 15:24:36.8	107.580	0.070	-0.420	1.280
2020/01/31 15:24:36.9	107.580	0.060	-0.360	1.270
2020/01/31 15:24:37.0	107.580	0.050	-0.300	1.250
2020/01/31 15:24:37.1	107.580	0.030	-0.240	1.220
2020/01/31 15:24:37.2	107.580	0.020	-0.180	1.200
2020/01/31 15:24:37.3	107.580	0.010	-0.120	1.180
2020/01/31 15:24:37.4	107.580	-0.010	-0.070	1.150
2020/01/31 15:24:37.5	107.580	-0.020	-0.010	1.120
2020/01/31 15:24:37.6	107.590	-0.040	0.050	1.100
2020/01/31 15:24:37.7	107.590	-0.050	0.100	1.060
2020/01/31 15:24:37.8	107.590	-0.060	0.160	1.030
2020/01/31 15:24:37.9	107.590	-0.070	0.200	1.000
2020/01/31 15:24:38.0	107.600	-0.080	0.250	0.970
2020/01/31 15:24:38.1	107.600	-0.100	0.290	0.930
2020/01/31 15:24:38.2	107.600	-0.100	0.330	0.890
2020/01/31 15:24:38.3	107.610	-0.110	0.370	0.860
2020/01/31 15:24:38.4	107.610	-0.120	0.400	0.820
2020/01/31 15:24:38.5	107.620	-0.130	0.430	0.780
2020/01/31 15:24:38.6	107.630	-0.130	0.450	0.750
2020/01/31 15:24:38.7	107.640	-0.140	0.470	0.710
2020/01/31 15:24:38.8	107.640	-0.140	0.480	0.670
2020/01/31 15:24:38.9	107.650	-0.140	0.490	0.630
2020/01/31 15:24:39.0	107.660	-0.140	0.500	0.590
2020/01/31 15:24:39.1	107.670	-0.140	0.500	0.560
2020/01/31 15:24:39.2	107.670	-0.130	0.490	0.520
2020/01/31 15:24:39.3	107.680	-0.130	0.480	0.490
2020/01/31 15:24:39.4	107.690	-0.120	0.470	0.450
2020/01/31 15:24:39.5	107.690	-0.110	0.450	0.420
2020/01/31 15:24:39.6	107.700	-0.100	0.430	0.380
2020/01/31 15:24:39.7	107.710	-0.090	0.410	0.350
2020/01/31 15:24:39.8	107.710	-0.070	0.380	0.320
2020/01/31 15:24:39.9	107.720	-0.060	0.350	0.290
2020/01/31 15:24:40.0	107.720	-0.040	0.320	0.260
2020/01/31 15:24:40.1	107.730	-0.030	0.280	0.230
2020/01/31 15:24:40.2	107.740	-0.010	0.240	0.200
2020/01/31 15:24:40.3	107.740	0.010	0.200	0.170
2020/01/31 15:24:40.4	107.750	0.030	0.160	0.140
2020/01/31 15:24:40.5	107.760	0.050	0.120	0.110
2020/01/31 15:24:40.6	107.760	0.070	0.080	0.080
2020/01/31 15:24:40.7	107.770	0.100	0.040	0.050
2020/01/31 15:24:40.8	107.770	0.120	0.000	0.020
2020/01/31 15:24:40.9	107.780	0.140	-0.040	-0.000
2020/01/31 15:24:41.0	107.790	0.160	-0.070	-0.030
2020/01/31 15:24:41.1	107.800	0.180	-0.110	-0.060
2020/01/31 15:24:41.2	107.810	0.200	-0.150	-0.080
2020/01/31 15:24:41.3	107.810	0.210	-0.180	-0.110
2020/01/31 15:24:41.4	107.820	0.230	-0.210	-0.130
2020/01/31 15:24:41.5	107.830	0.240	-0.240	-0.160
2020/01/31 15:24:41.6	107.830	0.260	-0.270	-0.180
2020/01/31 15:24:41.7	107.840	0.270	-0.290	-0.200
2020/01/31 15:24:41.8	107.850	0.280	-0.310	-0.220
2020/01/31 15:24:41.9	107.860	0.280	-0.330	-0.230
2020/01/31 15:24:42.0	107.860	0.290	-0.350	-0.250
2020/01/31 15:24:42.1	107.870	0.290	-0.360	-0.260
2020/01/31 15:24:42.2	107.880	0.290	-0.370	-0.270
2020/01/31 15:24:42.3	107.880	0.290	-0.380	-0.280
2020/01/31 15:24:42.4	107.890	0.280	-0.380	-0.290
2020/01/31 15:24:42.5	107.890	0.280	-0.390	-0.290
2020/01/31 15:24:42.6	107.900	0.270	-0.390	-0.290
2020/01/31 15:24:42.7	107.910	0.250	-0.390	-0.290
2020/01/31 15:24:42.8	107.910	0.240	-0.390	-0.280
2020/01/31 15:24:42.9	107.920	0.230	-0.390	-0.270
2020/01/31 15:24:43.0	107.920	0.210	-0.380	-0.260
2020/01/31 15:24:43.1	107.920	0.190	-0.380	-0.250
2020/01/31 15:24:43.2	107.920	0.170	-0.370	-0.230
2020/01/31 15:24:43.3	107.920	0.150	-0.360	-0.210
2020/01/31 15:24:43.4	107.920	0.130	-0.360	-0.180
2020/01/31 15:24:43.5	107.920	0.100	-0.350	-0.150
2020/01/31 15:24:43.6	107.930	0.080	-0.350	-0.120
2020/01/31 15:24:43.7	107.930	0.060	-0.340	-0.080
2020/01/31 15:24:43.8	107.930	0.030	-0.330	-0.050
2020/01/31 15:24:43.9	107.920	0.010	-0.330	-0.010
2020/01/31 15:24:44.0	107.920	-0.010	-0.330	0.030
2020/01/31 15:24:44.1	107.920	-0.040	-0.320	0.070
2020/01/31 15:24:44.2	107.920	-0.060	-0.320	0.120
2020/01/31 15:24:44.3	107.920	-0.080	-0.320	0.170
2020/01/31 15:24:44.4	107.910	-0.090	-0.320	0.210
2020/01/31 15:24:44.5	107.910	-0.110	-0.330	0.260
2020/01/31 15:24:44.6	107.910	-0.130	-0.330	0.310
2020/01/31 15:24:44.7	107.910	-0.140	-0.340	0.360
2020/01/31 15:24:44.8	107.910	-0.150	-0.340	0.420
2020/01/31 15:24:44.9	107.910	-0.160	-0.350	0.470
2020/01/31 15:24:45.0	107.910	-0.170	-0.360	0.520
2020/01/31 15:24:45.1	107.910	-0.170	-0.370	0.570
2020/01/31 15:24:45.2	107.910	-0.180	-0.390	0.620
2020/01/31 15:24:45.3	107.910	-0.180	-0.400	0.670
2020/01/31 15:24:45.4	107.910	-0.170	-0.410	0.720
2020/01/31 15:24:45.5	107.920	-0.170	-0.420	0.770
2020/01/31 15:24:45.6	107.920	-0.170	-0.440	0.820
2020/01/31 15:24:45.7	107.930	-0.160	-0.450	0.870
2020/01/31 15:24:45.8	107.930	-0.150	-0.460	0.910
2020/01/31 15:24:45.9	107.940	-0.140	-0.470	0.960
2020/01/31 15:24:46.0	107.950	-0.130	-0.480	1.000
2020/01/31 15:24:46.1	107.960	-0.120	-0.490	1.040
2020/01/31 15:24:46.2	107.980	-0.110	-0.500	1.080
2020/01/31 15:24:46.3	107.990	-0.100	-0.500	1.120
2020/01/31 15:24:46.4	108.010	-0.080	-0.500	1.160
2020/01/31 15:24:46.5	108.030	-0.070	-0.500	1.190
2020/01/31 15:24:46.6	108.040	-0.060	-0.500	1.230
2020/01/31 15:24:46.7	108.060	-0.040	-0.490	1.270
2020/01/31 15:24:46.8	108.090	-0.030	-0.480	1.290
2020/01/31 15:24:46.9	108.110	-0.020	-0.470	1.320
2020/01/31 15:24:47.0	108.140	-0.010	-0.450	1.350
2020/01/31 15:24:47.1	108.160	0.000	-0.430	1.370
2020/01/31 15:24:47.2	108.190	0.010	-0.410	1.390
2020/01/31 15:24:47.3	108.220	0.020	-0.390	1.410
2020/01/31 15:24:47.4	108.250	0.020	-0.360	1.430
2020/01/31 15:24:47.5	108.280	0.030	-0.330	1.440
2020/01/31 15:24:47.6	108.310	0.030	-0.290	1.460
2020/01/31 15:24:47.7	108.340	0.030	-0.260	1.470
2020/01/31 15:24:47.8	108.370	0.030	-0.220	1.480
2020/01/31 15:24:47.9	108.390	0.030	-0.180	1.490
2020/01/31 15:24:48.0	108.420	0.030	-0.140	1.500
2020/01/31 15:24:48.1	108.450	0.030	-0.090	1.500
2020/01/31 15:24:48.2	108.470	0.020	-0.050	1.510
2020/01/31 15:24:48.3	108.490	0.020	-0.000	1.510
2020/01/31 15:24:48.4	108.510	0.010	0.040	1.520
2020/01/31 15:24:48.5	108.530	0.000	0.090	1.520
2020/01/31 15:24:48.6	108.550	-0.000	0.130	1.520
2020/01/31 15:24:48.7	108.560	-0.010	0.170	1.520
2020/01/31 15:24:48.8	108.570	-0.020	0.220	1.520
2020/01/31 15:24:48.9	108.580	-0.030	0.260	1.530
2020/01/31 15:24:49.0	108.590	-0.040	0.300	1.530
2020/01/31 15:24:49.1	108.590	-0.040	0.340	1.530
2020/01/31 15:24:49.2	108.590	-0.050	0.370	1.530
2020/01/31 15:24:49.3	108.590	-0.060	0.410	1.530
2020/01/31 15:24:49.4	108.580	-0.060	0.430	1.530
2020/01/31 15:24:49.5	108.580	-0.070	0.460	1.530
2020/01/31 15:24:49.6	108.570	-0.070	0.490	1.530
2020/01/31 15:24:49.7	108.560	-0.070	0.500	1.530
2020/01/31 15:24:49.8	108.540	-0.080	0.520	1.530
2020/01/31 15:24:49.9	108.530	-0.080	0.530	1.530
2020/01/31 15:24:50.0	108.510	-0.080	0.530	1.530
2020/01/31 15:24:50.1	108.490	-0.070	0.530	1.530
2020/01/31 15:24:50.2	108.470	-0.070	0.520	1.520
2020/01/31 15:24:50.3	108.450	-0.060	0.510	1.520
2020/01/31 15:24:50.4	108.430	-0.060	0.490	1.510
2020/01/31 15:24:50.5	108.400	-0.050	0.460	1.500
2020/01/31 15:24:50.6	108.380	-0.040	0.430	1.480
2020/01/31 15:24:50.7	108.360	-0.030	0.400	1.470
2020/01/31 15:24:50.8	108.340	-0.020	0.360	1.450
2020/01/31 15:24:50.9	108.320	-0.010	0.310	1.430
2020/01/31 15:24:51.0	108.300	0.010	0.260	1.400
2020/01/31 15:24:51.1	108.290	0.020	0.210	1.370
2020/01/31 15:24:51.2	108.270	0.040	0.150	1.340
2020/01/31 15:24:51.3	108.260	0.050	0.090	1.300
2020/01/31 15:24:51.4	108.250	0.070	0.030	1.260
2020/01/31 15:24:51.5	108.240	0.080	-0.040	1.210
2020/01/31 15:24:51.6	108.240	0.100	-0.110	1.160
2020/01/31 15:24:51.7	108.240	0.120	-0.180	1.110
2020/01/31 15:24:51.8	108.240	0.130	-0.250	1.060
2020/01/31 15:24:51.9	108.250	0.150	-0.320	1.000
2020/01/31 15:24:52.0	108.250	0.160	-0.380	0.940
2020/01/31 15:24:52.1	108.260	0.170	-0.450	0.880
2020/01/31 15:24:52.2	108.270	0.190	-0.520	0.820
2020/01/31 15:24:52.3	108.280	0.200	-0.580	0.760
2020/01/31 15:24:52.4	108.290	0.210	-0.640	0.690
2020/01/31 15:24:52.5	108.310	0.220	-0.700	0.630
2020/01/31 15:24:52.6	108.330	0.230	-0.750	0.570
2020/01/31 15:24:52.7	108.340	0.240	-0.800	0.510
2020/01/31 15:24:52.8	108.360	0.240	-0.850	0.450
2020/01/31 15:24:52.9	108.370	0.250	-0.890	0.390
2020/01/31 15:24:53.0	108.390	0.250	-0.930	0.340
2020/01/31 15:24:53.1	108.400	0.250	-0.960	0.290
2020/01/31 15:24:53.2	108.420	0.250	-0.980	0.240
2020/01/31 15:24:53.3	108.430	0.250	-1.000	0.200
2020/01/31 15:24:53.4	108.440	0.250	-1.020	0.160
2020/01/31 15:24:53.5	108.460	0.240	-1.030	0.120
2020/01/31 15:24:53.6	108.470	0.240	-1.030	0.090
2020/01/31 15:24:53.7	108.480	0.230	-1.020	0.060
2020/01/31 15:24:53.8	108.490	0.220	-1.010	0.040
2020/01/31 15:24:53.9	108.490	0.210	-1.000	0.020
2020/01/31 15:24:54.0	108.500	0.200	-0.980	0.010
2020/01/31 15:24:54.1	108.510	0.190	-0.950	-0.000
2020/01/31 15:24:54.2	108.510	0.170	-0.920	-0.010
2020/01/31 15:24:54.3	108.520	0.160	-0.880	-0.010
2020/01/31 15:24:54.4	108.520	0.140	-0.830	-0.010
2020/01/31 15:24:54.5	108.520	0.120	-0.790	-0.000
2020/01/31 15:24:54.6	108.520	0.110	-0.730	0.010
2020/01/31 15:24:54.7	108.530	0.090	-0.680	0.020
2020/01/31 15:24:54.8	108.530	0.070	-0.610	0.030
2020/01/31 15:24:54.9	108.530	0.050	-0.550	0.040
2020/01/31 15:24:55.0	108.540	0.030	-0.480	0.060
2020/01/31 15:24:55.1	108.540	0.010	-0.410	0.070
2020/01/31 15:24:55.2	108.550	-0.010	-0.340	0.090
2020/01/31 15:24:55.3	108.550	-0.040	-0.260	0.100
2020/01/31 15:24:55.4	108.560	-0.060	-0.190	0.120
2020/01/31 15:24:55.5	108.560	-0.080	-0.110	0.140
2020/01/31 15:24:55.6	108.570	-0.100	-0.030	0.160
2020/01/31 15:24:55.7	108.580	-0.120	0.040	0.180
2020/01/31 15:24:55.8	108.590	-0.140	0.120	0.200
2020/01/31 15:24:55.9	108.600	-0.160	0.190	0.210
2020/01/31 15:24:56.0	108.610	-0.180	0.260	0.230
2020/01/31 15:24:56.1	108.610	-0.200	0.330	0.240
2020/01/31 15:24:56.2	108.620	-0.220	0.390	0.260
2020/01/31 15:24:56.3	108.630	-0.240	0.440	0.270
2020/01/31 15:24:56.4	108.630	-0.250	0.500	0.290
2020/01/31 15:24:56.5	108.640	-0.270	0.540	0.300
2020/01/31 15:24:56.6	108.640	-0.280	0.580	0.320
2020/01/31 15:24:56.7	108.640	-0.290	0.620	0.340
2020/01/31 15:24:56.8	108.640	-0.300	0.650	0.350
2020/01/31 15:24:56.9	108.640	-0.310	0.670	0.370
2020/01/31 15:24:57.0	108.640	-0.320	0.680	0.380
2020/01/31 15:24:57.1	108.640	-0.330	0.690	0.400
2020/01/31 15:24:57.2	108.640	-0.330	0.680	0.410
2020/01/31 15:24:57.3	108.640	-0.330	0.680	0.420
2020/01/31 15:24:57.4	108.640	-0.340	0.660	0.440
2020/01/31 15:24:57.5	108.640	-0.330	0.640	0.450
2020/01/31 15:24:57.6	108.630	-0.330	0.610	0.460
2020/01/31 15:24:57.7	108.630	-0.330	0.570	0.470
2020/01/31 15:24:57.8	108.640	-0.320	0.530	0.480
2020/01/31 15:24:57.9	108.640	-0.310	0.480	0.490
2020/01/31 15:24:58.0	108.640	-0.300	0.430	0.490
2020/01/31 15:24:58.1	108.650	-0.290	0.370	0.500
2020/01/31 15:24:58.2	108.650	-0.280	0.310	0.510
2020/01/31 15:24:58.3	108.660	-0.260	0.250	0.510
2020/01/31 15:24:58.4	108.660	-0.240	0.180	0.510
2020/01/31 15:24:58.5	108.670	-0.230	0.110	0.520
2020/01/31 15:24:58.6	108.680	-0.210	0.040	0.530
2020/01/31 15:24:58.7	108.680	-0.180	-0.030	0.530
2020/01/31 15:24:58.8	108.690	-0.160	-0.110	0.540
2020/01/31 15:24:58.9	108.700	-0.140	-0.180	0.550
2020/01/31 15:24:59.0	108.700	-0.110	-0.250	0.550
2020/01/31 15:24:59.1	108.710	-0.090	-0.310	0.560
2020/01/31 15:24:59.2	108.720	-0.070	-0.380	0.580
2020/01/31 15:24:59.3	108.720	-0.040	-0.440	0.590
2020/01/31 15:24:59.4	108.730	-0.010	-0.500	0.600
2020/01/31 15:24:59.5	108.730	0.010	-0.550	0.620
2020/01/31 15:24:59.6	108.720	0.040	-0.610	0.640
2020/01/31 15:24:59.7	108.730	0.060	-0.660	0.660
2020/01/31 15:24:59.8	108.730	0.090	-0.700	0.680
2020/01/31 15:24:59.9	108.730	0.110	-0.730	0.700
2020/01/31 15:25:00.0	108.730	0.130	-0.760	0.720
2020/01/31 15:25:00.1	108.730	0.150	-0.790	0.750
2020/01/31 15:25:00.2	108.730	0.170	-0.810	0.780
2020/01/31 15:25:00.3	108.730	0.190	-0.820	0.800
2020/01/31 15:25:00.4	108.740	0.210	-0.830	0.830
2020/01/31 15:25:00.5	108.740	0.220	-0.840	0.860
2020/01/31 15:25:00.6	108.740	0.240	-0.830	0.890
2020/01/31 15:25:00.7	108.740	0.250	-0.820	0.920
2020/01/31 15:25:00.8	108.740	0.260	-0.810	0.950
2020/01/31 15:25:00.9	108.740	0.270	-0.790	0.980
2020/01/31 15:25:01.0	108.750	0.270	-0.770	1.000
2020/01/31 15:25:01.1	108.750	0.270	-0.750	1.030
2020/01/31 15:25:01.2	108.760	0.280	-0.720	1.060
2020/01/31 15:25:01.3	108.760	0.280	-0.690	1.080
2020/01/31 15:25:01.4	108.760	0.270	-0.660	1.110
2020/01/31 15:25:01.5	108.770	0.270	-0.620	1.130
2020/01/31 15:25:01.6	108.770	0.260	-0.580	1.150
2020/01/31 15:25:01.7	108.770	0.250	-0.540	1.170
2020/01/31 15:25:01.8	108.770	0.240	-0.500	1.190
2020/01/31 15:25:01.9	108.780	0.230	-0.450	1.200
2020/01/31 15:25:02.0	108.780	0.220	-0.410	1.210
2020/01/31 15:25:02.1	108.780	0.200	-0.360	1.220
2020/01/31 15:25:02.2	108.790	0.190	-0.320	1.230
2020/01/31 15:25:02.3	108.790	0.170	-0.270	1.230
2020/01/31 15:25:02.4	108.790	0.150	-0.230	1.230
2020/01/31 15:25:02.5	108.800	0.140	-0.180	1.230
2020/01/31 15:25:02.6	108.810	0.120	-0.140	1.220
2020/01/31 15:25:02.7	108.810	0.100	-0.100	1.220
2020/01/31 15:25:02.8	108.810	0.080	-0.060	1.210
2020/01/31 15:25:02.9	108.820	0.060	-0.020	1.190
2020/01/31 15:25:03.0	108.830	0.050	0.010	1.180
2020/01/31 15:25:03.1	108.830	0.030	0.050	1.160
2020/01/31 15:25:03.2	108.840	0.010	0.080	1.140
2020/01/31 15:25:03.3	108.840	-0.000	0.110	1.120
2020/01/31 15:25:03.4	108.850	-0.020	0.130	1.100
2020/01/31 15:25:03.5	108.860	-0.030	0.150	1.070
2020/01/31 15:25:03.6	108.870	-0.040	0.170	1.050
2020/01/31 15:25:03.7	108.880	-0.050	0.190	1.030
2020/01/31 15:25:03.8	108.880	-0.060	0.200	1.000
2020/01/31 15:25:03.9	108.890	-0.060	0.210	0.980
2020/01/31 15:25:04.0	108.900	-0.070	0.210	0.950
2020/01/31 15:25:04.1	108.900	-0.070	0.210	0.930
2020/01/31 15:25:04.2	108.910	-0.070	0.210	0.900
2020/01/31 15:25:04.3	108.920	-0.070	0.210	0.880
2020/01/31 15:25:04.4	108.920	-0.070	0.200	0.850
2020/01/31 15:25:04.5	108.930	-0.060	0.180	0.830
2020/01/31 15:25:04.6	108.940	-0.050	0.170	0.800
2020/01/31 15:25:04.7	108.950	-0.050	0.150	0.770
2020/01/31 15:25:04.8	108.950	-0.040	0.130	0.750
2020/01/31 15:25:04.9	108.960	-0.030	0.100	0.720
2020/01/31 15:25:05.0	108.970	-0.010	0.080	0.700
2020/01/31 15:25:05.1	108.980	-0.000	0.050	0.670
2020/01/31 15:25:05.2	108.980	0.010	0.020	0.640
2020/01/31 15:25:05.3	108.990	0.020	-0.010	0.620
2020/01/31 15:25:05.4	108.990	0.040	-0.040	0.590
2020/01/31 15:25:05.5	109.000	0.050	-0.070	0.560
2020/01/31 15:25:05.6	109.000	0.060	-0.100	0.540
2020/01/31 15:25:05.7	109.010	0.080	-0.130	0.510
2020/01/31 15:25:05.8	109.010	0.090	-0.150	0.480
2020/01/31 15:25:05.9	109.020	0.100	-0.180	0.460
2020/01/31 15:25:06.0	109.030	0.110	-0.210	0.430
2020/01/31 15:25:06.1	109.030	0.120	-0.230	0.400
2020/01/31 15:25:06.2	109.040	0.130	-0.260	0.380
2020/01/31 15:25:06.3	109.050	0.130	-0.270	0.350
2020/01/31 15:25:06.4	109.050	0.140	-0.290	0.320
2020/01/31 15:25:06.5	109.060	0.140	-0.310	0.290
2020/01/31 15:25:06.6	109.070	0.140	-0.320	0.270
2020/01/31 15:25:06.7	109.080	0.140	-0.330	0.240
2020/01/31 15:25:06.8	109.090	0.140	-0.330	0.210
2020/01/31 15:25:06.9	109.100	0.130	-0.340	0.190
2020/01/31 15:25:07.0	109.110	0.120	-0.340	0.160
2020/01/31 15:25:07.1	109.120	0.110	-0.330	0.130
2020/01/31 15:25:07.2	109.130	0.100	-0.330	0.110
2020/01/31 15:25:07.3	109.140	0.090	-0.320	0.080
2020/01/31 15:25:07.4	109.150	0.080	-0.310	0.060
2020/01/31 15:25:07.5	109.160	0.060	-0.290	0.030
2020/01/31 15:25:07.6	109.170	0.050	-0.280	0.020
2020/01/31 15:25:07.7	109.180	0.030	-0.260	-0.000
2020/01/31 15:25:07.8	109.190	0.010	-0.240	-0.020
2020/01/31 15:25:07.9	109.200	-0.010	-0.230	-0.040
2020/01/31 15:25:08.0	109.210	-0.030	-0.210	-0.050
2020/01/31 15:25:08.1	109.220	-0.050	-0.190	-0.060
2020/01/31 15:25:08.2	109.230	-0.070	-0.170	-0.070
2020/01/31 15:25:08.3	109.240	-0.090	-0.150	-0.080
2020/01/31 15:25:08.4	109.250	-0.110	-0.140	-0.080
2020/01/31 15:25:08.5	109.260	-0.130	-0.120	-0.080
2020/01/31 15:25:08.6	109.270	-0.150	-0.110	-0.080
2020/01/31 15:25:08.7	109.290	-0.170	-0.090	-0.080
2020/01/31 15:25:08.8	109.300	-0.190	-0.080	-0.080
2020/01/31 15:25:08.9	109.310	-0.210	-0.070	-0.070
2020/01/31 15:25:09.0	109.330	-0.220	-0.060	-0.060
2020/01/31 15:25:09.1	109.350	-0.240	-0.060	-0.050
2020/01/31 15:25:09.2	109.360	-0.250	-0.050	-0.040
2020/01/31 15:25:09.3	109.380	-0.260	-0.050	-0.030
2020/01/31 15:25:09.4	109.410	-0.270	-0.050	-0.010
2020/01/31 15:25:09.5	109.430	-0.280	-0.050	0.000
2020/01/31 15:25:09.6	109.450	-0.280	-0.050	0.020
2020/01/31 15:25:09.7	109.470	-0.290	-0.060	0.040
2020/01/31 15:25:09.8	109.500	-0.290	-0.070	0.060
2020/01/31 15:25:09.9	109.530	-0.290	-0.080	0.080
2020/01/31 15:25:10.0	109.560	-0.290	-0.090	0.100
2020/01/31 15:25:10.1	109.580	-0.290	-0.100	0.110
2020/01/31 15:25:10.2	109.610	-0.280	-0.110	0.130
2020/01/31 15:25:10.3	109.640	-0.280	-0.120	0.150
2020/01/31 15:25:10.4	109.670	-0.270	-0.130	0.170
2020/01/31 15:25:10.5	109.700	-0.260	-0.140	0.190
2020/01/31 15:25:10.6	109.730	-0.250	-0.150	0.220
2020/01/31 15:25:10.7	109.750	-0.240	-0.170	0.240
2020/01/31 15:25:10.8	109.780	-0.230	-0.180	0.260
2020/01/31 15:25:10.9	109.800	-0.210	-0.190	0.280
2020/01/31 15:25:11.0	109.830	-0.200	-0.200	0.300
2020/01/31 15:25:11.1	109.850	-0.180	-0.210	0.330
2020/01/31 15:25:11.2	109.870	-0.170	-0.220	0.350
2020/01/31 15:25:11.3	109.880	-0.150	-0.230	0.380
2020/01/31 15:25:11.4	109.900	-0.140	-0.240	0.400
2020/01/31 15:25:11.5	109.910	-0.120	-0.250	0.430
2020/01/31 15:25:11.6	109.910	-0.100	-0.270	0.460
2020/01/31 15:25:11.7	109.920	-0.080	-0.280	0.490
2020/01/31 15:25:11.8	109.920	-0.070	-0.290	0.520
2020/01/31 15:25:11.9	109.920	-0.050	-0.300	0.550
2020/01/31 15:25:12.0	109.920	-0.030	-0.310	0.590
2020/01/31 15:25:12.1	109.910	-0.010	-0.320	0.620
2020/01/31 15:25:12.2	109.900	0.000	-0.330	0.660
2020/01/31 15:25:12.3	109.890	0.020	-0.340	0.700
2020/01/31 15:25:12.4	109.880	0.030	-0.350	0.740
2020/01/31 15:25:12.5	109.860	0.050	-0.350	0.780
2020/01/31 15:25:12.6	109.830	0.070	-0.360	0.830
2020/01/31 15:25:12.7	109.810	0.080	-0.370	0.870
2020/01/31 15:25:12.8	109.790	0.090	-0.380	0.920
2020/01/31 15:25:12.9	109.770	0.110	-0.380	0.970
2020/01/31 15:25:13.0	109.740	0.120	-0.390	1.010
2020/01/31 15:25:13.1	109.720	0.130	-0.400	1.060
2020/01/31 15:25:13.2	109.690	0.140	-0.410	1.100
2020/01/31 15:25:13.3	109.670	0.150	-0.410	1.150
2020/01/31 15:25:13.4	109.640	0.160	-0.420	1.190
2020/01/31 15:25:13.5	109.620	0.170	-0.420	1.230
2020/01/31 15:25:13.6	109.600	0.180	-0.420	1.270
2020/01/31 15:25:13.7	109.580	0.190	-0.420	1.300
2020/01/31 15:25:13.8	109.560	0.190	-0.420	1.330
2020/01/31 15:25:13.9	109.550	0.200	-0.420	1.360
2020/01/31 15:25:14.0	109.540	0.200	-0.410	1.390
2020/01/31 15:25:14.1	109.530	0.200	-0.400	1.400
2020/01/31 15:25:14.2	109.520	0.210	-0.390	1.420
2020/01/31 15:25:14.3	109.520	0.210	-0.380	1.430
2020/01/31 15:25:14.4	109.520	0.210	-0.370	1.440
2020/01/31 15:25:14.5	109.520	0.200	-0.350	1.440
2020/01/31 15:25:14.6	109.530	0.200	-0.330	1.450
2020/01/31 15:25:14.7	109.540	0.200	-0.310	1.450
2020/01/31 15:25:14.8	109.550	0.190	-0.290	1.440
2020/01/31 15:25:14.9	109.560	0.180	-0.260	1.430
2020/01/31 15:25:15.0	109.580	0.170	-0.240	1.420
2020/01/31 15:25:15.1	109.600	0.170	-0.210	1.410
2020/01/31 15:25:15.2	109.620	0.150	-0.180	1.390
2020/01/31 15:25:15.3	109.640	0.140	-0.160	1.370
2020/01/31 15:25:15.4	109.660	0.130	-0.130	1.350
2020/01/31 15:25:15.5	109.690	0.120	-0.100	1.330
2020/01/31 15:25:15.6	109.720	0.100	-0.070	1.310
2020/01/31 15:25:15.7	109.750	0.080	-0.040	1.280
2020/01/31 15:25:15.8	109.770	0.070	-0.000	1.260
2020/01/31 15:25:15.9	109.800	0.050	0.030	1.230
2020/01/31 15:25:16.0	109.830	0.030	0.050	1.200
2020/01/31 15:25:16.1	109.860	0.020	0.080	1.180
2020/01/31 15:25:16.2	109.880	-0.000	0.110	1.150
2020/01/31 15:25:16.3	109.910	-0.020	0.130	1.120
2020/01/31 15:25:16.4	109.940	-0.040	0.160	1.090
2020/01/31 15:25:16.5	109.960	-0.060	0.180	1.060
2020/01/31 15:25:16.6	109.990	-0.080	0.200	1.040
2020/01/31 15:25:16.7	110.010	-0.090	0.210	1.010
2020/01/31 15:25:16.8	110.040	-0.110	0.220	0.980
2020/01/31 15:25:16.9	110.060	-0.130	0.230	0.950
2020/01/31 15:25:17.0	110.090	-0.140	0.240	0.930
2020/01/31 15:25:17.1	110.110	-0.150	0.240	0.900
2020/01/31 15:25:17.2	110.130	-0.170	0.240	0.870
2020/01/31 15:25:17.3	110.150	-0.180	0.230	0.850
2020/01/31 15:25:17.4	110.180	-0.190	0.220	0.820
2020/01/31 15:25:17.5	110.190	-0.200	0.210	0.800
2020/01/31 15:25:17.6	110.210	-0.200	0.190	0.780
2020/01/31 15:25:17.7	110.230	-0.210	0.170	0.760
2020/01/31 15:25:17.8	110.250	-0.210	0.140	0.740
2020/01/31 15:25:17.9	110.260	-0.210	0.110	0.720
2020/01/31 15:25:18.0	110.280	-0.210	0.080	0.710
2020/01/31 15:25:18.1	110.290	-0.210	0.040	0.690
2020/01/31 15:25:18.2	110.300	-0.200	0.010	0.680
2020/01/31 15:25:18.3	110.300	-0.200	-0.040	0.670
2020/01/31 15:25:18.4	110.310	-0.190	-0.080	0.670
2020/01/31 15:25:18.5	110.310	-0.180	-0.120	0.660
2020/01/31 15:25:18.6	110.320	-0.170	-0.170	0.660
2020/01/31 15:25:18.7	110.320	-0.160	-0.210	0.660
2020/01/31 15:25:18.8	110.320	-0.140	-0.260	0.660
2020/01/31 15:25:18.9	110.310	-0.130	-0.300	0.670
2020/01/31 15:25:19.0	110.300	-0.120	-0.350	0.670
2020/01/31 15:25:19.1	110.290	-0.100	-0.390	0.680
2020/01/31 15:25:19.2	110.270	-0.090	-0.430	0.680
2020/01/31 15:25:19.3	110.260	-0.070	-0.460	0.690
2020/01/31 15:25:19.4	110.240	-0.060	-0.500	0.700
2020/01/31 15:25:19.5	110.220	-0.040	-0.530	0.710
2020/01/31 15:25:19.6	110.190	-0.030	-0.550	0.720
2020/01/31 15:25:19.7	110.170	-0.020	-0.570	0.730
2020/01/31 15:25:19.8	110.140	-0.000	-0.590	0.740
2020/01/31 15:25:19.9	110.120	0.010	-0.600	0.750
2020/01/31 15:25:20.0	110.090	0.020	-0.600	0.760
2020/01/31 15:25:20.1	110.060	0.030	-0.600	0.770
2020/01/31 15:25:20.2	110.040	0.040	-0.600	0.780
2020/01/31 15:25:20.3	110.010	0.050	-0.580	0.780
2020/01/31 15:25:20.4	109.990	0.060	-0.570	0.790
2020/01/31 15:25:20.5	109.960	0.060	-0.540	0.790
2020/01/31 15:25:20.6	109.940	0.070	-0.510	0.800
2020/01/31 15:25:20.7	109.910	0.070	-0.480	0.800
2020/01/31 15:25:20.8	109.890	0.070	-0.440	0.790
2020/01/31 15:25:20.9	109.880	0.080	-0.400	0.790
2020/01/31 15:25:21.0	109.860	0.080	-0.360	0.780
2020/01/31 15:25:21.1	109.850	0.080	-0.310	0.780
2020/01/31 15:25:21.2	109.840	0.080	-0.260	0.770
2020/01/31 15:25:21.3	109.830	0.080	-0.210	0.750
2020/01/31 15:25:21.4	109.820	0.080	-0.160	0.740
2020/01/31 15:25:21.5	109.810	0.070	-0.110	0.730
2020/01/31 15:25:21.6	109.820	0.070	-0.050	0.710
2020/01/31 15:25:21.7	109.820	0.070	-0.000	0.700
2020/01/31 15:25:21.8	109.820	0.070	0.040	0.680
2020/01/31 15:25:21.9	109.820	0.060	0.090	0.660
2020/01/31 15:25:22.0	109.830	0.060	0.130	0.640
2020/01/31 15:25:22.1	109.830	0.060	0.180	0.620
2020/01/31 15:25:22.2	109.840	0.050	0.210	0.600
2020/01/31 15:25:22.3	109.850	0.050	0.240	0.580
2020/01/31 15:25:22.4	109.850	0.050	0.270	0.560
2020/01/31 15:25:22.5	109.870	0.050	0.290	0.540
2020/01/31 15:25:22.6	109.870	0.050	0.310	0.530
2020/01/31 15:25:22.7	109.890	0.050	0.320	0.510
2020/01/31 15:25:22.8	109.900	0.050	0.330	0.480
2020/01/31 15:25:22.9	109.910	0.050	0.330	0.460
2020/01/31 15:25:23.0	109.930	0.060	0.320	0.440
2020/01/31 15:25:23.1	109.950	0.060	0.300	0.420
2020/01/31 15:25:23.2	109.970	0.070	0.280	0.390
2020/01/31 15:25:23.3	109.990	0.070	0.260	0.370
2020/01/31 15:25:23.4	110.010	0.080	0.220	0.350
2020/01/31 15:25:23.5	110.030	0.090	0.190	0.320
2020/01/31 15:25:23.6	110.070	0.100	0.150	0.300
2020/01/31 15:25:23.7	110.090	0.110	0.100	0.270
2020/01/31 15:25:23.8	110.120	0.120	0.040	0.250
2020/01/31 15:25:23.9	110.150	0.130	-0.010	0.220
2020/01/31 15:25:24.0	110.180	0.140	-0.070	0.200
2020/01/31 15:25:24.1	110.210	0.150	-0.130	0.170
2020/01/31 15:25:24.2	110.240	0.170	-0.200	0.150
2020/01/31 15:25:24.3	110.270	0.180	-0.260	0.130
2020/01/31 15:25:24.4	110.300	0.190	-0.330	0.110
2020/01/31 15:25:24.5	110.330	0.200	-0.390	0.090
2020/01/31 15:25:24.6	110.350	0.220	-0.460	0.080
2020/01/31 15:25:24.7	110.380	0.230	-0.520	0.060
2020/01/31 15:25:24.8	110.400	0.240	-0.580	0.050
2020/01/31 15:25:24.9	110.430	0.240	-0.630	0.050
2020/01/31 15:25:25.0	110.450	0.250	-0.680	0.050
2020/01/31 15:25:25.1	110.470	0.260	-0.730	0.050
2020/01/31 15:25:25.2	110.490	0.260	-0.770	0.050
2020/01/31 15:25:25.3	110.500	0.270	-0.800	0.060
2020/01/31 15:25:25.4	110.520	0.270	-0.830	0.080
2020/01/31 15:25:25.5	110.530	0.270	-0.850	0.100
2020/01/31 15:25:25.6	110.530	0.270	-0.870	0.120
2020/01/31 15:25:25.7	110.530	0.270	-0.880	0.150
2020/01/31 15:25:25.8	110.530	0.260	-0.880	0.190
2020/01/31 15:25:25.9	110.530	0.260	-0.880	0.220
2020/01/31 15:25:26.0	110.530	0.250	-0.870	0.260
2020/01/31 15:25:26.1	110.520	0.240	-0.860	0.310
2020/01/31 15:25:26.2	110.510	0.230	-0.840	0.360
2020/01/31 15:25:26.3	110.490	0.210	-0.810	0.410
2020/01/31 15:25:26.4	110.480	0.200	-0.780	0.460
2020/01/31 15:25:26.5	110.460	0.180	-0.740	0.520
2020/01/31 15:25:26.6	110.440	0.160	-0.700	0.580
2020/01/31 15:25:26.7	110.420	0.140	-0.650	0.640
2020/01/31 15:25:26.8	110.390	0.120	-0.600	0.700
2020/01/31 15:25:26.9	110.370	0.100	-0.550	0.770
2020/01/31 15:25:27.0	110.340	0.070	-0.490	0.830
2020/01/31 15:25:27.1	110.310	0.050	-0.440	0.890
2020/01/31 15:25:27.2	110.280	0.020	-0.380	0.950
2020/01/31 15:25:27.3	110.250	-0.010	-0.320	1.010
2020/01/31 15:25:27.4	110.220	-0.030	-0.260	1.060
2020/01/31 15:25:27.5	110.190	-0.060	-0.200	1.120
2020/01/31 15:25:27.6	110.150	-0.090	-0.140	1.170
2020/01/31 15:25:27.7	110.130	-0.110	-0.080	1.230
2020/01/31 15:25:27.8	110.100	-0.140	-0.030	1.270
2020/01/31 15:25:27.9	110.070	-0.170	0.030	1.320
2020/01/31 15:25:28.0	110.040	-0.190	0.080	1.370
2020/01/31 15:25:28.1	110.010	-0.210	0.130	1.410
2020/01/31 15:25:28.2	109.990	-0.240	0.180	1.450
2020/01/31 15:25:28.3	109.970	-0.260	0.230	1.480
2020/01/31 15:25:28.4	109.940	-0.280	0.270	1.520
2020/01/31 15:25:28.5	109.920	-0.300	0.300	1.550
2020/01/31 15:25:28.6	109.900	-0.310	0.340	1.580
2020/01/31 15:25:28.7	109.880	-0.330	0.370	1.600
2020/01/31 15:25:28.8	109.870	-0.340	0.390	1.630
2020/01/31 15:25:28.9	109.850	-0.350	0.410	1.650
2020/01/31 15:25:29.0	109.840	-0.360	0.420	1.660
2020/01/31 15:25:29.1	109.830	-0.360	0.430	1.680
2020/01/31 15:25:29.2	109.830	-0.370	0.430	1.690
2020/01/31 15:25:29.3	109.820	-0.370	0.430	1.700
2020/01/31 15:25:29.4	109.820	-0.370	0.420	1.700
2020/01/31 15:25:29.5	109.820	-0.360	0.410	1.700
2020/01/31 15:25:29.6	109.830	-0.360	0.390	1.700
2020/01/31 15:25:29.7	109.830	-0.350	0.370	1.700
2020/01/31 15:25:29.8	109.840	-0.340	0.340	1.690
2020/01/31 15:25:29.9	109.850	-0.330	0.310	1.680
2020/01/31 15:25:30.0	109.870	-0.310	0.270	1.660
2020/01/31 15:25:30.1	109.880	-0.300	0.230	1.640
2020/01/31 15:25:30.2	109.900	-0.280	0.180	1.620
2020/01/31 15:25:30.3	109.920	-0.260	0.140	1.590
2020/01/31 15:25:30.4	109.940	-0.240	0.090	1.560
2020/01/31 15:25:30.5	109.960	-0.220	0.040	1.530
2020/01/31 15:25:30.6	109.990	-0.190	-0.020	1.490
2020/01/31 15:25:30.7	110.020	-0.170	-0.070	1.450
2020/01/31 15:25:30.8	110.050	-0.150	-0.120	1.410
2020/01/31 15:25:30.9	110.070	-0.120	-0.180	1.370
2020/01/31 15:25:31.0	110.100	-0.100	-0.230	1.320
2020/01/31 15:25:31.1	110.130	-0.080	-0.280	1.270
2020/01/31 15:25:31.2	110.160	-0.050	-0.330	1.220
2020/01/31 15:25:31.3	110.190	-0.030	-0.370	1.170
2020/01/31 15:25:31.4	110.220	-0.010	-0.420	1.110
2020/01/31 15:25:31.5	110.240	0.010	-0.460	1.060
2020/01/31 15:25:31.6	110.270	0.030	-0.490	1.010
2020/01/31 15:25:31.7	110.290	0.050	-0.520	0.950
2020/01/31 15:25:31.8	110.320	0.060	-0.550	0.890
2020/01/31 15:25:31.9	110.340	0.080	-0.570	0.830
2020/01/31 15:25:32.0	110.360	0.090	-0.590	0.770
2020/01/31 15:25:32.1	110.380	0.100	-0.610	0.710
2020/01/31 15:25:32.2	110.390	0.110	-0.620	0.660
2020/01/31 15:25:32.3	110.410	0.120	-0.620	0.600
2020/01/31 15:25:32.4	110.420	0.120	-0.620	0.540
2020/01/31 15:25:32.5	110.440	0.130	-0.620	0.480
2020/01/31 15:25:32.6	110.450	0.130	-0.610	0.430
2020/01/31 15:25:32.7	110.460	0.130	-0.590	0.370
2020/01/31 15:25:32.8	110.470	0.130	-0.570	0.320
2020/01/31 15:25:32.9	110.480	0.120	-0.550	0.270
2020/01/31 15:25:33.0	110.480	0.120	-0.520	0.220
2020/01/31 15:25:33.1	110.490	0.110	-0.490	0.170
2020/01/31 15:25:33.2	110.500	0.110	-0.450	0.130
2020/01/31 15:25:33.3	110.500	0.100	-0.410	0.090
2020/01/31 15:25:33.4	110.510	0.090	-0.370	0.050
2020/01/31 15:25:33.5	110.510	0.080	-0.330	0.020
2020/01/31 15:25:33.6	110.510	0.060	-0.270	-0.010
2020/01/31 15:25:33.7	110.510	0.050	-0.230	-0.040
2020/01/31 15:25:33.8	110.510	0.040	-0.180	-0.070
2020/01/31 15:25:33.9	110.510	0.030	-0.130	-0.090
2020/01/31 15:25:34.0	110.520	0.010	-0.080	-0.110
2020/01/31 15:25:34.1	110.520	-0.000	-0.030	-0.130
2020/01/31 15:25:34.2	110.520	-0.010	0.020	-0.140
2020/01/31 15:25:34.3	110.510	-0.020	0.070	-0.150
2020/01/31 15:25:34.4	110.510	-0.030	0.110	-0.150
2020/01/31 15:25:34.5	110.510	-0.040	0.150	-0.150
2020/01/31 15:25:34.6	110.510	-0.050	0.190	-0.150
2020/01/31 15:25:34.7	110.500	-0.060	0.230	-0.140
2020/01/31 15:25:34.8	110.500	-0.070	0.250	-0.140
2020/01/31 15:25:34.9	110.490	-0.070	0.280	-0.120
2020/01/31 15:25:35.0	110.480	-0.070	0.300	-0.110
2020/01/31 15:25:35.1	110.470	-0.080	0.310	-0.090
2020/01/31 15:25:35.2	110.460	-0.080	0.320	-0.070
2020/01/31 15:25:35.3	110.450	-0.070	0.320	-0.040
2020/01/31 15:25:35.4	110.440	-0.070	0.320	-0.020
2020/01/31 15:25:35.5	110.430	-0.060	0.310	0.010
2020/01/31 15:25:35.6	110.430	-0.060	0.290	0.050
2020/01/31 15:25:35.7	110.420	-0.050	0.270	0.080
2020/01/31 15:25:35.8	110.410	-0.040	0.250	0.110
2020/01/31 15:25:35.9	110.400	-0.020	0.220	0.140
2020/01/31 15:25:36.0	110.390	-0.010	0.190	0.180
2020/01/31 15:25:36.1	110.380	0.000	0.150	0.210
2020/01/31 15:25:36.2	110.370	0.020	0.110	0.240
2020/01/31 15:25:36.3	110.360	0.040	0.070	0.270
2020/01/31 15:25:36.4	110.350	0.050	0.020	0.300
2020/01/31 15:25:36.5	110.340	0.070	-0.020	0.330
2020/01/31 15:25:36.6	110.350	0.090	-0.070	0.360
2020/01/31 15:25:36.7	110.340	0.110	-0.120	0.390
2020/01/31 15:25:36.8	110.340	0.130	-0.170	0.410
2020/01/31 15:25:36.9	110.340	0.140	-0.220	0.430
2020/01/31 15:25:37.0	110.340	0.160	-0.270	0.450
2020/01/31 15:25:37.1	110.340	0.180	-0.320	0.470
2020/01/31 15:25:37.2	110.350	0.190	-0.360	0.490
2020/01/31 15:25:37.3	110.360	0.210	-0.410	0.500
2020/01/31 15:25:37.4	110.360	0.220	-0.450	0.510
2020/01/31 15:25:37.5	110.370	0.230	-0.490	0.530
2020/01/31 15:25:37.6	110.380	0.240	-0.530	0.540
2020/01/31 15:25:37.7	110.390	0.250	-0.560	0.550
2020/01/31 15:25:37.8	110.410	0.250	-0.590	0.560
2020/01/31 15:25:37.9	110.420	0.260	-0.620	0.570
2020/01/31 15:25:38.0	110.430	0.260	-0.640	0.590
2020/01/31 15:25:38.1	110.450	0.260	-0.660	0.600
2020/01/31 15:25:38.2	110.460	0.260	-0.670	0.610
2020/01/31 15:25:38.3	110.480	0.250	-0.680	0.630
2020/01/31 15:25:38.4	110.490	0.250	-0.690	0.650
2020/01/31 15:25:38.5	110.510	0.240	-0.690	0.670
2020/01/31 15:25:38.6	110.520	0.230	-0.680	0.700
2020/01/31 15:25:38.7	110.530	0.220	-0.670	0.720
2020/01/31 15:25:38.8	110.540	0.200	-0.660	0.740
2020/01/31 15:25:38.9	110.560	0.190	-0.640	0.770
2020/01/31 15:25:39.0	110.570	0.170	-0.620	0.800
2020/01/31 15:25:39.1	110.580	0.150	-0.590	0.830
2020/01/31 15:25:39.2	110.590	0.140	-0.570	0.860
2020/01/31 15:25:39.3	110.600	0.120	-0.530	0.890
2020/01/31 15:25:39.4	110.610	0.100	-0.500	0.930
2020/01/31 15:25:39.5	110.610	0.080	-0.460	0.960
2020/01/31 15:25:39.6	110.620	0.060	-0.420	1.000
2020/01/31 15:25:39.7	110.620	0.040	-0.380	1.030
2020/01/31 15:25:39.8	110.630	0.020	-0.340	1.070
2020/01/31 15:25:39.9	110.630	-0.000	-0.300	1.110
2020/01/31 15:25:40.0	110.640	-0.020	-0.260	1.150
2020/01/31 15:25:40.1	110.640	-0.040	-0.210	1.190
2020/01/31 15:25:40.2	110.640	-0.060	-0.170	1.230
2020/01/31 15:25:40.3	110.650	-0.080	-0.140	1.260
2020/01/31 15:25:40.4	110.650	-0.090	-0.100	1.300
2020/01/31 15:25:40.5	110.650	-0.100	-0.060	1.340
2020/01/31 15:25:40.6	110.660	-0.120	-0.030	1.380
2020/01/31 15:25:40.7	110.660	-0.130	0.000	1.410
2020/01/31 15:25:40.8	110.660	-0.140	0.030	1.450
2020/01/31 15:25:40.9	110.650	-0.150	0.050	1.470
2020/01/31 15:25:41.0	110.650	-0.150	0.070	1.500
2020/01/31 15:25:41.1	110.650	-0.160	0.090	1.530
2020/01/31 15:25:41.2	110.650	-0.160	0.100	1.550
2020/01/31 15:25:41.3	110.640	-0.160	0.110	1.570
2020/01/31 15:25:41.4	110.640	-0.160	0.120	1.590
2020/01/31 15:25:41.5	110.630	-0.160	0.120	1.610
2020/01/31 15:25:41.6	110.630	-0.160	0.130	1.630
2020/01/31 15:25:41.7	110.620	-0.150	0.120	1.640
2020/01/31 15:25:41.8	110.610	-0.150	0.110	1.650
2020/01/31 15:25:41.9	110.600	-0.140	0.100	1.650
2020/01/31 15:25:42.0	110.590	-0.130	0.090	1.660
2020/01/31 15:25:42.1	110.580	-0.120	0.070	1.660
2020/01/31 15:25:42.2	110.570	-0.110	0.050	1.650
2020/01/31 15:25:42.3	110.560	-0.100	0.030	1.650
2020/01/31 15:25:42.4	110.540	-0.090	0.000	1.640
2020/01/31 15:25:42.5	110.530	-0.080	-0.020	1.630
2020/01/31 15:25:42.6	110.520	-0.070	-0.050	1.610
2020/01/31 15:25:42.7	110.510	-0.060	-0.080	1.590
2020/01/31 15:25:42.8	110.500	-0.040	-0.100	1.570
2020/01/31 15:25:42.9	110.480	-0.030	-0.130	1.550
2020/01/31 15:25:43.0	110.470	-0.020	-0.160	1.520
2020/01/31 15:25:43.1	110.460	-0.010	-0.180	1.490
2020/01/31 15:25:43.2	110.450	-0.000	-0.210	1.450
2020/01/31 15:25:43.3	110.450	0.010	-0.230	1.410
2020/01/31 15:25:43.4	110.440	0.020	-0.250	1.370
2020/01/31 15:25:43.5	110.440	0.020	-0.270	1.330
2020/01/31 15:25:43.6	110.440	0.030	-0.280	1.280
2020/01/31 15:25:43.7	110.440	0.040	-0.290	1.230
2020/01/31 15:25:43.8	110.440	0.040	-0.300	1.180
2020/01/31 15:25:43.9	110.450	0.040	-0.310	1.130
2020/01/31 15:25:44.0	110.450	0.050	-0.320	1.070
2020/01/31 15:25:44.1	110.460	0.050	-0.320	1.010
2020/01/31 15:25:44.2	110.470	0.050	-0.320	0.950
2020/01/31 15:25:44.3	110.480	0.050	-0.310	0.890
2020/01/31 15:25:44.4	110.500	0.050	-0.300	0.830
2020/01/31 15:25:44.5	110.510	0.050	-0.290	0.770
2020/01/31 15:25:44.6	110.530	0.050	-0.280	0.700
2020/01/31 15:25:44.7	110.550	0.040	-0.260	0.640
2020/01/31 15:25:44.8	110.570	0.040	-0.240	0.570
2020/01/31 15:25:44.9	110.590	0.030	-0.230	0.500
2020/01/31 15:25:45.0	110.610	0.030	-0.200	0.440
2020/01/31 15:25:45.1	110.630	0.020	-0.180	0.370
2020/01/31 15:25:45.2	110.650	0.010	-0.160	0.300
2020/01/31 15:25:45.3	110.670	0.010	-0.140	0.240
2020/01/31 15:25:45.4	110.700	0.000	-0.110	0.170
2020/01/31 15:25:45.5	110.720	-0.010	-0.090	0.110
2020/01/31 15:25:45.6	110.740	-0.010	-0.060	0.050
2020/01/31 15:25:45.7	110.760	-0.020	-0.040	-0.010
2020/01/31 15:25:45.8	110.780	-0.030	-0.030	-0.070
2020/01/31 15:25:45.9	110.800	-0.030	-0.010	-0.130
2020/01/31 15:25:46.0	110.820	-0.040	0.010	-0.190
2020/01/31 15:25:46.1	110.830	-0.050	0.020	-0.240
2020/01/31 15:25:46.2	110.850	-0.050	0.030	-0.300
2020/01/31 15:25:46.3	110.860	-0.060	0.030	-0.350
2020/01/31 15:25:46.4	110.880	-0.060	0.030	-0.400
2020/01/31 15:25:46.5	110.890	-0.060	0.030	-0.440
2020/01/31 15:25:46.6	110.920	-0.070	0.030	-0.480
2020/01/31 15:25:46.7	110.930	-0.070	0.030	-0.520
2020/01/31 15:25:46.8	110.940	-0.070	0.020	-0.560
2020/01/31 15:25:46.9	110.960	-0.070	0.010	-0.590
2020/01/31 15:25:47.0	110.970	-0.070	-0.010	-0.620
2020/01/31 15:25:47.1	110.980	-0.070	-0.030	-0.660
2020/01/31 15:25:47.2	111.000	-0.070	-0.050	-0.680
2020/01/31 15:25:47.3	111.010	-0.070	-0.070	-0.710
2020/01/31 15:25:47.4	111.020	-0.070	-0.090	-0.730
2020/01/31 15:25:47.5	111.040	-0.060	-0.120	-0.750
2020/01/31 15:25:47.6	111.060	-0.060	-0.150	-0.760
2020/01/31 15:25:47.7	111.070	-0.060	-0.170	-0.770
2020/01/31 15:25:47.8	111.090	-0.050	-0.200	-0.780
2020/01/31 15:25:47.9	111.110	-0.040	-0.240	-0.790
2020/01/31 15:25:48.0	111.120	-0.040	-0.270	-0.790
2020/01/31 15:25:48.1	111.140	-0.030	-0.300	-0.790
2020/01/31 15:25:48.2	111.150	-0.020	-0.330	-0.790
2020/01/31 15:25:48.3	111.170	-0.010	-0.360	-0.780
2020/01/31 15:25:48.4	111.180	-0.010	-0.390	-0.770
2020/01/31 15:25:48.5	111.200	0.000	-0.420	-0.750
2020/01/31 15:25:48.6	111.210	0.010	-0.450	-0.730
2020/01/31 15:25:48.7	111.220	0.020	-0.480	-0.710
2020/01/31 15:25:48.8	111.230	0.030	-0.500	-0.680
2020/01/31 15:25:48.9	111.240	0.040	-0.530	-0.650
2020/01/31 15:25:49.0	111.250	0.040	-0.550	-0.610
2020/01/31 15:25:49.1	111.260	0.050	-0.570	-0.570
2020/01/31 15:25:49.2	111.270	0.060	-0.580	-0.520
2020/01/31 15:25:49.3	111.270	0.070	-0.600	-0.470
2020/01/31 15:25:49.4	111.270	0.070	-0.610	-0.410
2020/01/31 15:25:49.5	111.270	0.080	-0.610	-0.350
2020/01/31 15:25:49.6	111.270	0.080	-0.610	-0.280
2020/01/31 15:25:49.7	111.270	0.080	-0.610	-0.210
2020/01/31 15:25:49.8	111.260	0.080	-0.600	-0.140
2020/01/31 15:25:49.9	111.250	0.080	-0.590	-0.070
2020/01/31 15:25:50.0	111.250	0.080	-0.580	0.010
2020/01/31 15:25:50.1	111.240	0.080	-0.560	0.080
2020/01/31 15:25:50.2	111.220	0.070	-0.540	0.160
2020/01/31 15:25:50.3	111.210	0.070	-0.520	0.240
2020/01/31 15:25:50.4	111.200	0.060	-0.490	0.320
2020/01/31 15:25:50.5	111.190	0.050	-0.460	0.400
2020/01/31 15:25:50.6	111.180	0.040	-0.420	0.480
2020/01/31 15:25:50.7	111.160	0.030	-0.370	0.560
2020/01/31 15:25:50.8	111.150	0.020	-0.330	0.650
2020/01/31 15:25:50.9	111.140	0.000	-0.280	0.730
2020/01/31 15:25:51.0	111.120	-0.020	-0.230	0.800
2020/01/31 15:25:51.1	111.110	-0.030	-0.180	0.880
2020/01/31 15:25:51.2	111.100	-0.050	-0.120	0.960
2020/01/31 15:25:51.3	111.090	-0.070	-0.060	1.030
2020/01/31 15:25:51.4	111.080	-0.100	-0.000	1.100
2020/01/31 15:25:51.5	111.060	-0.120	0.060	1.160
2020/01/31 15:25:51.6	111.060	-0.140	0.120	1.230
2020/01/31 15:25:51.7	111.050	-0.160	0.180	1.290
2020/01/31 15:25:51.8	111.040	-0.180	0.240	1.340
2020/01/31 15:25:51.9	111.030	-0.210	0.300	1.390
2020/01/31 15:25:52.0	111.030	-0.230	0.360	1.430
2020/01/31 15:25:52.1	111.020	-0.250	0.420	1.470
2020/01/31 15:25:52.2	111.020	-0.270	0.470	1.510
2020/01/31 15:25:52.3	111.020	-0.290	0.520	1.540
2020/01/31 15:25:52.4	111.010	-0.310	0.560	1.570
2020/01/31 15:25:52.5	111.010	-0.320	0.600	1.590
2020/01/31 15:25:52.6	111.010	-0.340	0.640	1.610
2020/01/31 15:25:52.7	111.010	-0.350	0.670	1.630
2020/01/31 15:25:52.8	111.010	-0.360	0.690	1.640
2020/01/31 15:25:52.9	111.010	-0.370	0.710	1.650
2020/01/31 15:25:53.0	111.020	-0.370	0.720	1.650
2020/01/31 15:25:53.1	111.020	-0.370	0.730	1.650
2020/01/31 15:25:53.2	111.020	-0.370	0.720	1.650
2020/01/31 15:25:53.3	111.020	-0.370	0.720	1.640
2020/01/31 15:25:53.4	111.030	-0.360	0.700	1.630
2020/01/31 15:25:53.5	111.030	-0.350	0.680	1.620
2020/01/31 15:25:53.6	111.030	-0.330	0.650	1.610
2020/01/31 15:25:53.7	111.030	-0.320	0.610	1.600
2020/01/31 15:25:53.8	111.040	-0.300	0.570	1.580
2020/01/31 15:25:53.9	111.040	-0.270	0.520	1.570
2020/01/31 15:25:54.0	111.040	-0.240	0.470	1.550
2020/01/31 15:25:54.1	111.050	-0.210	0.410	1.530
2020/01/31 15:25:54.2	111.050	-0.180	0.350	1.510
2020/01/31 15:25:54.3	111.060	-0.150	0.280	1.500
2020/01/31 15:25:54.4	111.060	-0.110	0.210	1.480
2020/01/31 15:25:54.5	111.070	-0.070	0.130	1.460
2020/01/31 15:25:54.6	111.070	-0.030	0.050	1.440
2020/01/31 15:25:54.7	111.080	0.010	-0.030	1.420
2020/01/31 15:25:54.8	111.090	0.060	-0.110	1.400
2020/01/31 15:25:54.9	111.090	0.100	-0.200	1.380
2020/01/31 15:25:55.0	111.100	0.150	-0.290	1.360
2020/01/31 15:25:55.1	111.110	0.190	-0.380	1.330
2020/01/31 15:25:55.2	111.120	0.240	-0.470	1.310
2020/01/31 15:25:55.3	111.130	0.280	-0.550	1.290
2020/01/31 15:25:55.4	111.140	0.330	-0.640	1.260
2020/01/31 15:25:55.5	111.150	0.370	-0.730	1.230
2020/01/31 15:25:55.6	111.150	0.410	-0.810	1.200
2020/01/31 15:25:55.7	111.160	0.450	-0.890	1.180
2020/01/31 15:25:55.8	111.170	0.490	-0.970	1.150
2020/01/31 15:25:55.9	111.180	0.520	-1.040	1.120
2020/01/31 15:25:56.0	111.190	0.550	-1.110	1.090
2020/01/31 15:25:56.1	111.190	0.580	-1.170	1.060
2020/01/31 15:25:56.2	111.200	0.610	-1.230	1.020
2020/01/31 15:25:56.3	111.210	0.630	-1.280	0.990
2020/01/31 15:25:56.4	111.220	0.650	-1.330	0.960
2020/01/31 15:25:56.5	111.220	0.670	-1.370	0.930
2020/01/31 15:25:56.6	111.230	0.680	-1.400	0.890
2020/01/31 15:25:56.7	111.240	0.690	-1.420	0.860
2020/01/31 15:25:56.8	111.240	0.690	-1.430	0.820
2020/01/31 15:25:56.9	111.240	0.700	-1.440	0.790
2020/01/31 15:25:57.0	111.250	0.700	-1.440	0.760
2020/01/31 15:25:57.1	111.250	0.690	-1.430	0.730
2020/01/31 15:25:57.2	111.250	0.680	-1.420	0.700
2020/01/31 15:25:57.3	111.250	0.670	-1.390	0.670
2020/01/31 15:25:57.4	111.240	0.660	-1.360	0.650
2020/01/31 15:25:57.5	111.240	0.640	-1.320	0.630
2020/01/31 15:25:57.6	111.230	0.630	-1.280	0.610
2020/01/31 15:25:57.7	111.220	0.600	-1.220	0.590
2020/01/31 15:25:57.8	111.220	0.580	-1.170	0.580
2020/01/31 15:25:57.9	111.210	0.550	-1.100	0.570
2020/01/31 15:25:58.0	111.200	0.520	-1.030	0.560
2020/01/31 15:25:58.1	111.190	0.490	-0.960	0.550
2020/01/31 15:25:58.2	111.170	0.460	-0.880	0.550
2020/01/31 15:25:58.3	111.160	0.430	-0.800	0.550
2020/01/31 15:25:58.4	111.150	0.390	-0.710	0.550
2020/01/31 15:25:58.5	111.130	0.350	-0.620	0.560
2020/01/31 15:25:58.6	111.120	0.310	-0.530	0.570
2020/01/31 15:25:58.7	111.110	0.270	-0.440	0.580
2020/01/31 15:25:58.8	111.090	0.230	-0.350	0.590
2020/01/31 15:25:58.9	111.080	0.190	-0.250	0.600
2020/01/31 15:25:59.0	111.060	0.150	-0.160	0.610
2020/01/31 15:25:59.1	111.050	0.100	-0.070	0.630
2020/01/31 15:25:59.2	111.040	0.060	0.020	0.640
2020/01/31 15:25:59.3	111.020	0.020	0.110	0.660
2020/01/31 15:25:59.4	111.010	-0.030	0.200	0.670
2020/01/31 15:25:59.5	110.990	-0.070	0.280	0.690
2020/01/31 15:25:59.6	110.990	-0.110	0.360	0.710
2020/01/31 15:25:59.7	110.970	-0.160	0.440	0.730
2020/01/31 15:25:59.8	110.960	-0.200	0.510	0.740
2020/01/31 15:25:59.9	110.940	-0.240	0.570	0.760
2020/01/31 15:26:00.0	110.930	-0.280	0.630	0.770
2020/01/31 15:26:00.1	110.920	-0.320	0.680	0.790
2020/01/31 15:26:00.2	110.900	-0.350	0.730	0.800
2020/01/31 15:26:00.3	110.890	-0.390	0.770	0.810
2020/01/31 15:26:00.4	110.880	-0.420	0.810	0.820
2020/01/31 15:26:00.5	110.860	-0.450	0.840	0.830
2020/01/31 15:26:00.6	110.860	-0.480	0.860	0.840
2020/01/31 15:26:00.7	110.850	-0.510	0.880	0.850
2020/01/31 15:26:00.8	110.840	-0.540	0.890	0.850
2020/01/31 15:26:00.9	110.830	-0.560	0.890	0.860
2020/01/31 15:26:01.0	110.820	-0.580	0.890	0.860
2020/01/31 15:26:01.1	110.810	-0.600	0.880	0.860
2020/01/31 15:26:01.2	110.810	-0.610	0.870	0.850
2020/01/31 15:26:01.3	110.800	-0.630	0.860	0.840
2020/01/31 15:26:01.4	110.800	-0.640	0.840	0.830
2020/01/31 15:26:01.5	110.800	-0.640	0.810	0.820
2020/01/31 15:26:01.6	110.810	-0.650	0.790	0.800
2020/01/31 15:26:01.7	110.810	-0.650	0.750	0.780
2020/01/31 15:26:01.8	110.810	-0.660	0.720	0.760
2020/01/31 15:26:01.9	110.820	-0.650	0.680	0.740
2020/01/31 15:26:02.0	110.830	-0.650	0.640	0.720
2020/01/31 15:26:02.1	110.830	-0.640	0.600	0.690
2020/01/31 15:26:02.2	110.840	-0.640	0.560	0.660
2020/01/31 15:26:02.3	110.850	-0.630	0.510	0.630
2020/01/31 15:26:02.4	110.860	-0.620	0.460	0.600
2020/01/31 15:26:02.5	110.870	-0.600	0.410	0.570
2020/01/31 15:26:02.6	110.890	-0.590	0.360	0.550
2020/01/31 15:26:02.7	110.900	-0.570	0.310	0.510
2020/01/31 15:26:02.8	110.920	-0.550	0.260	0.480
2020/01/31 15:26:02.9	110.930	-0.540	0.210	0.440
2020/01/31 15:26:03.0	110.950	-0.520	0.160	0.410
2020/01/31 15:26:03.1	110.960	-0.500	0.110	0.380
2020/01/31 15:26:03.2	110.970	-0.470	0.060	0.340
2020/01/31 15:26:03.3	110.990	-0.450	0.010	0.310
2020/01/31 15:26:03.4	111.000	-0.430	-0.040	0.280
2020/01/31 15:26:03.5	111.020	-0.400	-0.090	0.250
2020/01/31 15:26:03.6	111.020	-0.380	-0.140	0.220
2020/01/31 15:26:03.7	111.040	-0.350	-0.190	0.190
2020/01/31 15:26:03.8	111.050	-0.330	-0.240	0.160
2020/01/31 15:26:03.9	111.070	-0.300	-0.280	0.130
2020/01/31 15:26:04.0	111.080	-0.280	-0.330	0.110
2020/01/31 15:26:04.1	111.100	-0.250	-0.370	0.080
2020/01/31 15:26:04.2	111.110	-0.220	-0.420	0.060
2020/01/31 15:26:04.3	111.130	-0.200	-0.460	0.040
2020/01/31 15:26:04.4	111.140	-0.170	-0.500	0.020
2020/01/31 15:26:04.5	111.150	-0.140	-0.540	-0.000
2020/01/31 15:26:04.6	111.160	-0.110	-0.580	-0.010
2020/01/31 15:26:04.7	111.180	-0.080	-0.620	-0.030
2020/01/31 15:26:04.8	111.190	-0.050	-0.660	-0.040
2020/01/31 15:26:04.9	111.200	-0.030	-0.690	-0.050
2020/01/31 15:26:05.0	111.210	0.000	-0.730	-0.060
2020/01/31 15:26:05.1	111.220	0.030	-0.760	-0.070
2020/01/31 15:26:05.2	111.230	0.060	-0.800	-0.070
2020/01/31 15:26:05.3	111.240	0.090	-0.830	-0.080
2020/01/31 15:26:05.4	111.250	0.120	-0.860	-0.080
2020/01/31 15:26:05.5	111.260	0.150	-0.890	-0.080
2020/01/31 15:26:05.6	111.260	0.180	-0.920	-0.080
2020/01/31 15:26:05.7	111.270	0.210	-0.940	-0.080
2020/01/31 15:26:05.8	111.270	0.230	-0.960	-0.080
2020/01/31 15:26:05.9	111.280	0.260	-0.980	-0.080
2020/01/31 15:26:06.0	111.280	0.290	-1.000	-0.070
2020/01/31 15:26:06.1	111.280	0.320	-1.010	-0.070
2020/01/31 15:26:06.2	111.280	0.340	-1.020	-0.060
2020/01/31 15:26:06.3	111.280	0.370	-1.020	-0.050
2020/01/31 15:26:06.4	111.280	0.390	-1.020	-0.050
2020/01/31 15:26:06.5	111.280	0.420	-1.020	-0.040
2020/01/31 15:26:06.6	111.280	0.440	-1.010	-0.020
2020/01/31 15:26:06.7	111.280	0.460	-1.000	-0.010
2020/01/31 15:26:06.8	111.270	0.480	-0.980	-0.000
2020/01/31 15:26:06.9	111.270	0.490	-0.960	0.010
2020/01/31 15:26:07.0	111.260	0.510	-0.930	0.030
2020/01/31 15:26:07.1	111.250	0.520	-0.900	0.040
2020/01/31 15:26:07.2	111.250	0.530	-0.870	0.060
2020/01/31 15:26:07.3	111.240	0.540	-0.830	0.080
2020/01/31 15:26:07.4	111.230	0.550	-0.790	0.100
2020/01/31 15:26:07.5	111.220	0.550	-0.750	0.130
2020/01/31 15:26:07.6	111.220	0.560	-0.690	0.160
2020/01/31 15:26:07.7	111.210	0.550	-0.640	0.180
2020/01/31 15:26:07.8	111.200	0.550	-0.590	0.210
2020/01/31 15:26:07.9	111.190	0.550	-0.540	0.240
2020/01/31 15:26:08.0	111.180	0.540	-0.480	0.270
2020/01/31 15:26:08.1	111.160	0.520	-0.420	0.310
2020/01/31 15:26:08.2	111.150	0.510	-0.360	0.340
2020/01/31 15:26:08.3	111.140	0.490	-0.300	0.380
2020/01/31 15:26:08.4	111.130	0.470	-0.230	0.410
2020/01/31 15:26:08.5	111.120	0.450	-0.170	0.450
2020/01/31 15:26:08.6	111.120	0.430	-0.110	0.490
2020/01/31 15:26:08.7	111.110	0.400	-0.050	0.530
2020/01/31 15:26:08.8	111.090	0.370	0.020	0.570
2020/01/31 15:26:08.9	111.080	0.340	0.080	0.610
2020/01/31 15:26:09.0	111.070	0.310	0.130	0.650
2020/01/31 15:26:09.1	111.060	0.280	0.190	0.680
2020/01/31 15:26:09.2	111.050	0.240	0.250	0.720
2020/01/31 15:26:09.3	111.030	0.200	0.300	0.760
2020/01/31 15:26:09.4	111.020	0.170	0.350	0.790
2020/01/31 15:26:09.5	111.010	0.130	0.400	0.830
2020/01/31 15:26:09.6	110.990	0.090	0.440	0.860
2020/01/31 15:26:09.7	110.980	0.050	0.480	0.890
2020/01/31 15:26:09.8	110.970	0.010	0.520	0.920
2020/01/31 15:26:09.9	110.970	-0.030	0.560	0.940
2020/01/31 15:26:10.0	110.960	-0.070	0.590	0.960
2020/01/31 15:26:10.1	110.960	-0.110	0.620	0.990
2020/01/31 15:26:10.2	110.950	-0.140	0.650	1.000
2020/01/31 15:26:10.3	110.950	-0.180	0.670	1.020
2020/01/31 15:26:10.4	110.950	-0.210	0.680	1.030
2020/01/31 15:26:10.5	110.960	-0.240	0.700	1.040
2020/01/31 15:26:10.6	110.960	-0.270	0.710	1.050
2020/01/31 15:26:10.7	110.970	-0.300	0.720	1.050
2020/01/31 15:26:10.8	110.970	-0.320	0.720	1.050
2020/01/31 15:26:10.9	110.980	-0.350	0.710	1.050
2020/01/31 15:26:11.0	110.990	-0.360	0.700	1.040
2020/01/31 15:26:11.1	111.000	-0.380	0.680	1.040
2020/01/31 15:26:11.2	111.020	-0.390	0.660	1.030
2020/01/31 15:26:11.3	111.030	-0.400	0.640	1.020
2020/01/31 15:26:11.4	111.040	-0.400	0.610	1.010
2020/01/31 15:26:11.5	111.060	-0.410	0.570	0.990
2020/01/31 15:26:11.6	111.070	-0.400	0.530	0.980
2020/01/31 15:26:11.7	111.080	-0.400	0.480	0.970
2020/01/31 15:26:11.8	111.100	-0.380	0.440	0.950
2020/01/31 15:26:11.9	111.110	-0.370	0.380	0.940
2020/01/31 15:26:12.0	111.120	-0.350	0.320	0.930
2020/01/31 15:26:12.1	111.140	-0.330	0.260	0.910
2020/01/31 15:26:12.2	111.150	-0.310	0.190	0.900
2020/01/31 15:26:12.3	111.160	-0.280	0.130	0.890
2020/01/31 15:26:12.4	111.180	-0.250	0.060	0.880
2020/01/31 15:26:12.5	111.190	-0.220	-0.020	0.870
2020/01/31 15:26:12.6	111.190	-0.180	-0.090	0.860
2020/01/31 15:26:12.7	111.200	-0.140	-0.170	0.840
2020/01/31 15:26:12.8	111.220	-0.110	-0.240	0.830
2020/01/31 15:26:12.9	111.230	-0.070	-0.320	0.820
2020/01/31 15:26:13.0	111.240	-0.030	-0.400	0.810
2020/01/31 15:26:13.1	111.260	0.010	-0.470	0.790
2020/01/31 15:26:13.2	111.270	0.060	-0.540	0.780
2020/01/31 15:26:13.3	111.290	0.100	-0.610	0.760
2020/01/31 15:26:13.4	111.300	0.140	-0.680	0.750
2020/01/31 15:26:13.5	111.320	0.170	-0.740	0.730
2020/01/31 15:26:13.6	111.340	0.210	-0.800	0.720
2020/01/31 15:26:13.7	111.350	0.250	-0.850	0.700
2020/01/31 15:26:13.8	111.370	0.280	-0.900	0.690
2020/01/31 15:26:13.9	111.390	0.310	-0.940	0.680
2020/01/31 15:26:14.0	111.410	0.340	-0.980	0.660
2020/01/31 15:26:14.1	111.430	0.360	-1.010	0.650
2020/01/31 15:26:14.2	111.440	0.380	-1.040	0.640
2020/01/31 15:26:14.3	111.460	0.400	-1.060	0.630
2020/01/31 15:26:14.4	111.480	0.410	-1.070	0.630
2020/01/31 15:26:14.5	111.490	0.420	-1.070	0.620
2020/01/31 15:26:14.6	111.510	0.430	-1.070	0.620
2020/01/31 15:26:14.7	111.520	0.430	-1.060	0.620
2020/01/31 15:26:14.8	111.540	0.430	-1.050	0.620
2020/01/31 15:26:14.9	111.540	0.420	-1.030	0.620
2020/01/31 15:26:15.0	111.550	0.410	-1.000	0.620
2020/01/31 15:26:15.1	111.550	0.400	-0.970	0.620
2020/01/31 15:26:15.2	111.550	0.380	-0.930	0.630
2020/01/31 15:26:15.3	111.550	0.360	-0.890	0.640
2020/01/31 15:26:15.4	111.550	0.340	-0.840	0.650
2020/01/31 15:26:15.5	111.540	0.310	-0.790	0.650
2020/01/31 15:26:15.6	111.530	0.280	-0.740	0.670
2020/01/31 15:26:15.7	111.520	0.250	-0.680	0.680
2020/01/31 15:26:15.8	111.510	0.210	-0.620	0.690
2020/01/31 15:26:15.9	111.490	0.180	-0.560	0.710
2020/01/31 15:26:16.0	111.480	0.140	-0.500	0.720
2020/01/31 15:26:16.1	111.460	0.110	-0.440	0.730
2020/01/31 15:26:16.2	111.440	0.070	-0.380	0.750
2020/01/31 15:26:16.3	111.420	0.030	-0.320	0.760
2020/01/31 15:26:16.4	111.390	-0.010	-0.260	0.780
2020/01/31 15:26:16.5	111.370	-0.040	-0.210	0.790
2020/01/31 15:26:16.6	111.350	-0.080	-0.150	0.800
2020/01/31 15:26:16.7	111.330	-0.120	-0.100	0.810
2020/01/31 15:26:16.8	111.310	-0.150	-0.050	0.820
2020/01/31 15:26:16.9	111.290	-0.180	-0.000	0.830
2020/01/31 15:26:17.0	111.270	-0.210	0.040	0.840
2020/01/31 15:26:17.1	111.250	-0.240	0.080	0.840
2020/01/31 15:26:17.2	111.240	-0.270	0.120	0.840
2020/01/31 15:26:17.3	111.220	-0.290	0.150	0.840
2020/01/31 15:26:17.4	111.210	-0.320	0.180	0.840
2020/01/31 15:26:17.5	111.200	-0.340	0.210	0.840
2020/01/31 15:26:17.6	111.200	-0.350	0.240	0.830
2020/01/31 15:26:17.7	111.190	-0.370	0.250	0.830
2020/01/31 15:26:17.8	111.190	-0.380	0.270	0.820
2020/01/31 15:26:17.9	111.190	-0.390	0.270	0.810
2020/01/31 15:26:18.0	111.190	-0.390	0.280	0.790
2020/01/31 15:26:18.1	111.190	-0.400	0.280	0.780
2020/01/31 15:26:18.2	111.200	-0.400	0.280	0.770
2020/01/31 15:26:18.3	111.200	-0.400	0.270	0.760
2020/01/31 15:26:18.4	111.210	-0.390	0.270	0.740
2020/01/31 15:26:18.5	111.220	-0.390	0.250	0.730
2020/01/31 15:26:18.6	111.220	-0.380	0.240	0.720
2020/01/31 15:26:18.7	111.230	-0.370	0.220	0.710
2020/01/31 15:26:18.8	111.240	-0.360	0.200	0.700
2020/01/31 15:26:18.9	111.250	-0.340	0.190	0.690
2020/01/31 15:26:19.0	111.260	-0.330	0.170	0.690
2020/01/31 15:26:19.1	111.270	-0.310	0.150	0.680
2020/01/31 15:26:19.2	111.280	-0.290	0.120	0.680
2020/01/31 15:26:19.3	111.290	-0.270	0.100	0.670
2020/01/31 15:26:19.4	111.300	-0.250	0.080	0.670
2020/01/31 15:26:19.5	111.310	-0.230	0.070	0.660
2020/01/31 15:26:19.6	111.320	-0.210	0.050	0.660
2020/01/31 15:26:19.7	111.330	-0.190	0.030	0.660
2020/01/31 15:26:19.8	111.340	-0.170	0.020	0.660
2020/01/31 15:26:19.9	111.350	-0.150	0.000	0.650
2020/01/31 15:26:20.0	111.360	-0.130	-0.010	0.650
2020/01/31 15:26:20.1	111.370	-0.110	-0.020	0.640
2020/01/31 15:26:20.2	111.380	-0.090	-0.020	0.640
2020/01/31 15:26:20.3	111.390	-0.080	-0.030	0.630
2020/01/31 15:26:20.4	111.400	-0.060	-0.030	0.630
2020/01/31 15:26:20.5	111.400	-0.040	-0.040	0.620
2020/01/31 15:26:20.6	111.420	-0.030	-0.030	0.610
2020/01/31 15:26:20.7	111.430	-0.020	-0.030	0.610
2020/01/31 15:26:20.8	111.440	-0.010	-0.030	0.590
2020/01/31 15:26:20.9	111.440	0.010	-0.020	0.580
2020/01/31 15:26:21.0	111.450	0.010	-0.020	0.570
2020/01/31 15:26:21.1	111.450	0.020	-0.010	0.560
2020/01/31 15:26:21.2	111.450	0.030	-0.000	0.550
2020/01/31 15:26:21.3	111.460	0.030	0.010	0.530
2020/01/31 15:26:21.4	111.460	0.040	0.010	0.520
2020/01/31 15:26:21.5	111.460	0.040	0.020	0.510
2020/01/31 15:26:21.6	111.450	0.040	0.030	0.490
2020/01/31 15:26:21.7	111.450	0.040	0.040	0.480
2020/01/31 15:26:21.8	111.450	0.040	0.050	0.460
2020/01/31 15:26:21.9	111.440	0.040	0.050	0.450
2020/01/31 15:26:22.0	111.440	0.040	0.050	0.440
2020/01/31 15:26:22.1	111.430	0.040	0.050	0.430
2020/01/31 15:26:22.2	111.420	0.040	0.050	0.420
2020/01/31 15:26:22.3	111.410	0.040	0.050	0.410
2020/01/31 15:26:22.4	111.400	0.040	0.040	0.400
2020/01/31 15:26:22.5	111.380	0.040	0.030	0.390
2020/01/31 15:26:22.6	111.360	0.040	0.020	0.400
2020/01/31 15:26:22.7	111.340	0.040	0.010	0.390
2020/01/31 15:26:22.8	111.330	0.040	-0.010	0.390
2020/01/31 15:26:22.9	111.310	0.040	-0.030	0.390
2020/01/31 15:26:23.0	111.300	0.040	-0.060	0.390
2020/01/31 15:26:23.1	111.280	0.040	-0.090	0.390
2020/01/31 15:26:23.2	111.260	0.050	-0.120	0.400
2020/01/31 15:26:23.3	111.250	0.050	-0.150	0.400
2020/01/31 15:26:23.4	111.230	0.060	-0.190	0.410
2020/01/31 15:26:23.5	111.220	0.070	-0.220	0.420
2020/01/31 15:26:23.6	111.200	0.080	-0.260	0.430
2020/01/31 15:26:23.7	111.190	0.090	-0.300	0.440
2020/01/31 15:26:23.8	111.180	0.100	-0.340	0.450
2020/01/31 15:26:23.9	111.170	0.110	-0.380	0.470
2020/01/31 15:26:24.0	111.160	0.120	-0.420	0.480
2020/01/31 15:26:24.1	111.160	0.140	-0.470	0.500
2020/01/31 15:26:24.2	111.150	0.150	-0.510	0.520
2020/01/31 15:26:24.3	111.150	0.170	-0.540	0.540
2020/01/31 15:26:24.4	111.140	0.180	-0.580	0.560
2020/01/31 15:26:24.5	111.140	0.200	-0.610	0.580
2020/01/31 15:26:24.6	111.140	0.210	-0.640	0.610
2020/01/31 15:26:24.7	111.140	0.230	-0.670	0.630
2020/01/31 15:26:24.8	111.140	0.240	-0.700	0.660
2020/01/31 15:26:24.9	111.150	0.260	-0.720	0.680
2020/01/31 15:26:25.0	111.150	0.270	-0.730	0.710
2020/01/31 15:26:25.1	111.150	0.290	-0.750	0.740
2020/01/31 15:26:25.2	111.160	0.300	-0.750	0.770
2020/01/31 15:26:25.3	111.160	0.310	-0.760	0.790
2020/01/31 15:26:25.4	111.170	0.320	-0.760	0.820
2020/01/31 15:26:25.5	111.180	0.330	-0.750	0.850
2020/01/31 15:26:25.6	111.190	0.340	-0.740	0.880
2020/01/31 15:26:25.7	111.200	0.340	-0.720	0.910
2020/01/31 15:26:25.8	111.210	0.350	-0.700	0.940
2020/01/31 15:26:25.9	111.220	0.350	-0.680	0.970
2020/01/31 15:26:26.0	111.230	0.350	-0.650	1.000
2020/01/31 15:26:26.1	111.230	0.350	-0.620	1.020
2020/01/31 15:26:26.2	111.250	0.350	-0.590	1.050
2020/01/31 15:26:26.3	111.260	0.350	-0.550	1.070
2020/01/31 15:26:26.4	111.270	0.350	-0.520	1.090
2020/01/31 15:26:26.5	111.280	0.340	-0.480	1.110
2020/01/31 15:26:26.6	111.290	0.330	-0.440	1.140
2020/01/31 15:26:26.7	111.310	0.330	-0.390	1.150
2020/01/31 15:26:26.8	111.320	0.320	-0.350	1.170
2020/01/31 15:26:26.9	111.330	0.310	-0.310	1.180
2020/01/31 15:26:27.0	111.340	0.290	-0.270	1.190
2020/01/31 15:26:27.1	111.350	0.280	-0.230	1.190
2020/01/31 15:26:27.2	111.360	0.270	-0.190	1.200
2020/01/31 15:26:27.3	111.370	0.260	-0.150	1.200
2020/01/31 15:26:27.4	111.380	0.240	-0.120	1.200
2020/01/31 15:26:27.5	111.390	0.230	-0.090	1.200
2020/01/31 15:26:27.6	111.390	0.220	-0.060	1.200
2020/01/31 15:26:27.7	111.400	0.200	-0.030	1.190
2020/01/31 15:26:27.8	111.410	0.190	-0.010	1.190
2020/01/31 15:26:27.9	111.410	0.180	0.000	1.180
2020/01/31 15:26:28.0	111.410	0.170	0.020	1.170
2020/01/31 15:26:28.1	111.410	0.160	0.030	1.170
2020/01/31 15:26:28.2	111.410	0.150	0.030	1.160
2020/01/31 15:26:28.3	111.410	0.140	0.040	1.150
2020/01/31 15:26:28.4	111.400	0.130	0.040	1.150
2020/01/31 15:26:28.5	111.390	0.120	0.030	1.140
2020/01/31 15:26:28.6	111.380	0.110	0.030	1.140
2020/01/31 15:26:28.7	111.370	0.100	0.020	1.130
2020/01/31 15:26:28.8	111.360	0.100	0.010	1.130
2020/01/31 15:26:28.9	111.340	0.090	-0.000	1.130
2020/01/31 15:26:29.0	111.330	0.090	-0.020	1.130
2020/01/31 15:26:29.1	111.310	0.080	-0.030	1.130
2020/01/31 15:26:29.2	111.290	0.080	-0.050	1.130
2020/01/31 15:26:29.3	111.270	0.070	-0.060	1.130
2020/01/31 15:26:29.4	111.250	0.060	-0.080	1.140
2020/01/31 15:26:29.5	111.230	0.060	-0.090	1.140
2020/01/31 15:26:29.6	111.210	0.050	-0.100	1.150
2020/01/31 15:26:29.7	111.190	0.040	-0.120	1.160
2020/01/31 15:26:29.8	111.160	0.040	-0.130	1.170
2020/01/31 15:26:29.9	111.140	0.030	-0.140	1.180
2020/01/31 15:26:30.0	111.120	0.020	-0.150	1.190
2020/01/31 15:26:30.1	111.100	0.010	-0.160	1.210
2020/01/31 15:26:30.2	111.080	-0.000	-0.160	1.220
2020/01/31 15:26:30.3	111.050	-0.020	-0.160	1.240
2020/01/31 15:26:30.4	111.030	-0.030	-0.160	1.260
2020/01/31 15:26:30.5	111.010	-0.050	-0.160	1.270
2020/01/31 15:26:30.6	111.000	-0.060	-0.150	1.290
2020/01/31 15:26:30.7	110.980	-0.080	-0.140	1.310
2020/01/31 15:26:30.8	110.960	-0.100	-0.130	1.330
2020/01/31 15:26:30.9	110.940	-0.130	-0.120	1.340
2020/01/31 15:26:31.0	110.920	-0.150	-0.100	1.360
2020/01/31 15:26:31.1	110.900	-0.170	-0.080	1.370
2020/01/31 15:26:31.2	110.890	-0.200	-0.060	1.380
2020/01/31 15:26:31.3	110.870	-0.230	-0.030	1.390
2020/01/31 15:26:31.4	110.850	-0.250	-0.000	1.400
2020/01/31 15:26:31.5	110.840	-0.280	0.020	1.410
2020/01/31 15:26:31.6	110.830	-0.310	0.060	1.410
2020/01/31 15:26:31.7	110.820	-0.340	0.090	1.410
2020/01/31 15:26:31.8	110.810	-0.370	0.120	1.400
2020/01/31 15:26:31.9	110.800	-0.400	0.150	1.390
2020/01/31 15:26:32.0	110.800	-0.430	0.180	1.370
2020/01/31 15:26:32.1	110.790	-0.450	0.210	1.360
2020/01/31 15:26:32.2	110.790	-0.480	0.240	1.330
2020/01/31 15:26:32.3	110.790	-0.510	0.270	1.300
2020/01/31 15:26:32.4	110.800	-0.530	0.300	1.270
2020/01/31 15:26:32.5	110.800	-0.560	0.320	1.230
2020/01/31 15:26:32.6	110.800	-0.580	0.340	1.190
2020/01/31 15:26:32.7	110.810	-0.600	0.370	1.140
2020/01/31 15:26:32.8	110.820	-0.610	0.380	1.090
2020/01/31 15:26:32.9	110.830	-0.630	0.400	1.040
2020/01/31 15:26:33.0	110.850	-0.640	0.410	0.980
2020/01/31 15:26:33.1	110.870	-0.650	0.410	0.920
2020/01/31 15:26:33.2	110.890	-0.660	0.410	0.860
2020/01/31 15:26:33.3	110.910	-0.660	0.410	0.790
2020/01/31 15:26:33.4	110.930	-0.660	0.400	0.730
2020/01/31 15:26:33.5	110.950	-0.660	0.390	0.660
2020/01/31 15:26:33.6	110.980	-0.650	0.370	0.590
2020/01/31 15:26:33.7	111.000	-0.640	0.350	0.520
2020/01/31 15:26:33.8	111.030	-0.620	0.320	0.450
2020/01/31 15:26:33.9	111.050	-0.600	0.290	0.380
2020/01/31 15:26:34.0	111.080	-0.580	0.250	0.310
2020/01/31 15:26:34.1	111.100	-0.550	0.200	0.240
2020/01/31 15:26:34.2	111.120	-0.520	0.150	0.180
2020/01/31 15:26:34.3	111.150	-0.490	0.090	0.110
2020/01/31 15:26:34.4	111.170	-0.450	0.030	0.050
2020/01/31 15:26:34.5	111.190	-0.410	-0.030	-0.010
2020/01/31 15:26:34.6	111.220	-0.360	-0.100	-0.060
2020/01/31 15:26:34.7	111.240	-0.320	-0.180	-0.120
2020/01/31 15:26:34.8	111.260	-0.260	-0.250	-0.170
2020/01/31 15:26:34.9	111.280	-0.210	-0.330	-0.220
2020/01/31 15:26:35.0	111.300	-0.160	-0.410	-0.260
2020/01/31 15:26:35.1	111.310	-0.100	-0.500	-0.300
2020/01/31 15:26:35.2	111.320	-0.040	-0.580	-0.340
2020/01/31 15:26:35.3	111.330	0.020	-0.660	-0.370
2020/01/31 15:26:35.4	111.350	0.080	-0.750	-0.400
2020/01/31 15:26:35.5	111.350	0.140	-0.830	-0.420
2020/01/31 15:26:35.6	111.360	0.200	-0.910	-0.440
2020/01/31 15:26:35.7	111.360	0.260	-0.980	-0.460
2020/01/31 15:26:35.8	111.370	0.320	-1.050	-0.470
2020/01/31 15:26:35.9	111.370	0.370	-1.120	-0.480
2020/01/31 15:26:36.0	111.380	0.430	-1.170	-0.490
2020/01/31 15:26:36.1	111.380	0.480	-1.230	-0.490
2020/01/31 15:26:36.2	111.380	0.530	-1.270	-0.490
2020/01/31 15:26:36.3	111.380	0.570	-1.310	-0.480
2020/01/31 15:26:36.4	111.370	0.610	-1.330	-0.470
2020/01/31 15:26:36.5	111.370	0.650	-1.350	-0.450
2020/01/31 15:26:36.6	111.360	0.680	-1.360	-0.430
2020/01/31 15:26:36.7	111.360	0.710	-1.360	-0.400
2020/01/31 15:26:36.8	111.350	0.730	-1.350	-0.380
2020/01/31 15:26:36.9	111.340	0.750	-1.340	-0.340
2020/01/31 15:26:37.0	111.330	0.770	-1.310	-0.310
2020/01/31 15:26:37.1	111.320	0.770	-1.270	-0.270
2020/01/31 15:26:37.2	111.310	0.780	-1.230	-0.230
2020/01/31 15:26:37.3	111.300	0.770	-1.180	-0.190
2020/01/31 15:26:37.4	111.280	0.770	-1.120	-0.140
2020/01/31 15:26:37.5	111.270	0.750	-1.050	-0.100
2020/01/31 15:26:37.6	111.270	0.740	-0.970	-0.040
2020/01/31 15:26:37.7	111.250	0.720	-0.890	0.000
2020/01/31 15:26:37.8	111.240	0.690	-0.800	0.050
2020/01/31 15:26:37.9	111.230	0.660	-0.710	0.100
2020/01/31 15:26:38.0	111.210	0.630	-0.610	0.150
2020/01/31 15:26:38.1	111.200	0.590	-0.520	0.200
2020/01/31 15:26:38.2	111.190	0.550	-0.410	0.250
2020/01/31 15:26:38.3	111.180	0.510	-0.310	0.290
2020/01/31 15:26:38.4	111.160	0.460	-0.200	0.340
2020/01/31 15:26:38.5	111.150	0.410	-0.100	0.380
2020/01/31 15:26:38.6	111.150	0.360	0.010	0.430
2020/01/31 15:26:38.7	111.140	0.310	0.120	0.470
2020/01/31 15:26:38.8	111.130	0.260	0.220	0.510
2020/01/31 15:26:38.9	111.120	0.210	0.320	0.540
2020/01/31 15:26:39.0	111.110	0.160	0.420	0.580
2020/01/31 15:26:39.1	111.110	0.100	0.510	0.610
2020/01/31 15:26:39.2	111.100	0.050	0.600	0.640
2020/01/31 15:26:39.3	111.090	0.000	0.680	0.670
2020/01/31 15:26:39.4	111.090	-0.050	0.760	0.700
2020/01/31 15:26:39.5	111.080	-0.090	0.830	0.720
2020/01/31 15:26:39.6	111.080	-0.140	0.900	0.750
2020/01/31 15:26:39.7	111.070	-0.180	0.960	0.770
2020/01/31 15:26:39.8	111.070	-0.220	1.010	0.790
2020/01/31 15:26:39.9	111.060	-0.260	1.050	0.810
2020/01/31 15:26:40.0	111.060	-0.290	1.080	0.820
2020/01/31 15:26:40.1	111.050	-0.330	1.110	0.840
2020/01/31 15:26:40.2	111.050	-0.360	1.120	0.850
2020/01/31 15:26:40.3	111.040	-0.380	1.130	0.870
2020/01/31 15:26:40.4	111.040	-0.400	1.130	0.880
2020/01/31 15:26:40.5	111.040	-0.420	1.120	0.890
2020/01/31 15:26:40.6	111.030	-0.440	1.100	0.900
2020/01/31 15:26:40.7	111.030	-0.450	1.070	0.910
2020/01/31 15:26:40.8	111.030	-0.460	1.040	0.920
2020/01/31 15:26:40.9	111.020	-0.460	1.000	0.920
2020/01/31 15:26:41.0	111.020	-0.470	0.950	0.930
2020/01/31 15:26:41.1	111.020	-0.460	0.900	0.940
2020/01/31 15:26:41.2	111.020	-0.460	0.830	0.940
2020/01/31 15:26:41.3	111.020	-0.450	0.770	0.950
2020/01/31 15:26:41.4	111.020	-0.450	0.690	0.950
2020/01/31 15:26:41.5	111.020	-0.430	0.620	0.950
2020/01/31 15:26:41.6	111.010	-0.420	0.540	0.950
2020/01/31 15:26:41.7	111.010	-0.400	0.450	0.960
2020/01/31 15:26:41.8	111.020	-0.380	0.360	0.960
2020/01/31 15:26:41.9	111.020	-0.370	0.270	0.960
2020/01/31 15:26:42.0	111.030	-0.340	0.170	0.970
2020/01/31 15:26:42.1	111.040	-0.320	0.070	0.970
2020/01/31 15:26:42.2	111.040	-0.300	-0.020	0.980
2020/01/31 15:26:42.3	111.050	-0.270	-0.120	0.980
2020/01/31 15:26:42.4	111.060	-0.250	-0.220	0.990
2020/01/31 15:26:42.5	111.070	-0.220	-0.310	1.000
2020/01/31 15:26:42.6	111.090	-0.190	-0.410	1.010
2020/01/31 15:26:42.7	111.100	-0.160	-0.500	1.010
2020/01/31 15:26:42.8	111.120	-0.140	-0.590	1.020
2020/01/31 15:26:42.9	111.140	-0.110	-0.680	1.030
2020/01/31 15:26:43.0	111.160	-0.080	-0.760	1.030
2020/01/31 15:26:43.1	111.170	-0.060	-0.840	1.040
2020/01/31 15:26:43.2	111.190	-0.030	-0.910	1.040
2020/01/31 15:26:43.3	111.220	-0.000	-0.980	1.050
2020/01/31 15:26:43.4	111.240	0.020	-1.040	1.050
2020/01/31 15:26:43.5	111.260	0.050	-1.090	1.050
2020/01/31 15:26:43.6	111.280	0.070	-1.140	1.060
2020/01/31 15:26:43.7	111.300	0.090	-1.190	1.060
2020/01/31 15:26:43.8	111.330	0.110	-1.220	1.060
2020/01/31 15:26:43.9	111.350	0.130	-1.260	1.050
2020/01/31 15:26:44.0	111.370	0.150	-1.280	1.050
2020/01/31 15:26:44.1	111.390	0.170	-1.300	1.040
2020/01/31 15:26:44.2	111.420	0.180	-1.310	1.040
2020/01/31 15:26:44.3	111.430	0.200	-1.310	1.030
2020/01/31 15:26:44.4	111.450	0.210	-1.310	1.020
2020/01/31 15:26:44.5	111.470	0.220	-1.300	1.010
2020/01/31 15:26:44.6	111.480	0.230	-1.280	1.000
2020/01/31 15:26:44.7	111.490	0.240	-1.260	0.990
2020/01/31 15:26:44.8	111.510	0.250	-1.230	0.970
2020/01/31 15:26:44.9	111.520	0.260	-1.200	0.960
2020/01/31 15:26:45.0	111.530	0.260	-1.160	0.940
2020/01/31 15:26:45.1	111.540	0.260	-1.110	0.930
2020/01/31 15:26:45.2	111.550	0.270	-1.060	0.910
2020/01/31 15:26:45.3	111.560	0.270	-1.000	0.900
2020/01/31 15:26:45.4	111.570	0.270	-0.940	0.880
2020/01/31 15:26:45.5	111.580	0.260	-0.880	0.860
2020/01/31 15:26:45.6	111.590	0.260	-0.800	0.850
2020/01/31 15:26:45.7	111.600	0.260	-0.730	0.840
2020/01/31 15:26:45.8	111.600	0.250	-0.660	0.820
2020/01/31 15:26:45.9	111.610	0.240	-0.580	0.810
2020/01/31 15:26:46.0	111.610	0.230	-0.500	0.790
2020/01/31 15:26:46.1	111.610	0.220	-0.430	0.780
2020/01/31 15:26:46.2	111.610	0.210	-0.350	0.770
2020/01/31 15:26:46.3	111.610	0.200	-0.270	0.770
2020/01/31 15:26:46.4	111.610	0.190	-0.190	0.760
2020/01/31 15:26:46.5	111.610	0.180	-0.110	0.750
2020/01/31 15:26:46.6	111.610	0.160	-0.030	0.760
2020/01/31 15:26:46.7	111.610	0.150	0.040	0.760
2020/01/31 15:26:46.8	111.600	0.130	0.110	0.760
2020/01/31 15:26:46.9	111.590	0.110	0.180	0.760
2020/01/31 15:26:47.0	111.580	0.100	0.240	0.760
2020/01/31 15:26:47.1	111.570	0.080	0.300	0.770
2020/01/31 15:26:47.2	111.560	0.060	0.350	0.780
2020/01/31 15:26:47.3	111.550	0.050	0.400	0.790
2020/01/31 15:26:47.4	111.530	0.030	0.440	0.800
2020/01/31 15:26:47.5	111.520	0.010	0.480	0.810
2020/01/31 15:26:47.6	111.500	-0.010	0.510	0.820
2020/01/31 15:26:47.7	111.480	-0.020	0.540	0.830
2020/01/31 15:26:47.8	111.460	-0.040	0.560	0.840
2020/01/31 15:26:47.9	111.440	-0.050	0.580	0.850
2020/01/31 15:26:48.0	111.420	-0.070	0.590	0.860
2020/01/31 15:26:48.1	111.400	-0.080	0.590	0.860
2020/01/31 15:26:48.2	111.380	-0.100	0.590	0.870
2020/01/31 15:26:48.3	111.360	-0.110	0.580	0.880
2020/01/31 15:26:48.4	111.340	-0.120	0.570	0.880
2020/01/31 15:26:48.5	111.320	-0.130	0.550	0.880
2020/01/31 15:26:48.6	111.310	-0.140	0.530	0.880
2020/01/31 15:26:48.7	111.290	-0.140	0.510	0.870
2020/01/31 15:26:48.8	111.270	-0.150	0.480	0.870
2020/01/31 15:26:48.9	111.260	-0.150	0.440	0.860
2020/01/31 15:26:49.0	111.240	-0.160	0.410	0.840
2020/01/31 15:26:49.1	111.220	-0.160	0.370	0.830
2020/01/31 15:26:49.2	111.210	-0.160	0.330	0.810
2020/01/31 15:26:49.3	111.200	-0.160	0.280	0.790
2020/01/31 15:26:49.4	111.190	-0.160	0.240	0.770
2020/01/31 15:26:49.5	111.180	-0.150	0.190	0.740
2020/01/31 15:26:49.6	111.180	-0.150	0.150	0.710
2020/01/31 15:26:49.7	111.170	-0.140	0.100	0.680
2020/01/31 15:26:49.8	111.170	-0.140	0.050	0.650
2020/01/31 15:26:49.9	111.170	-0.130	0.000	0.610
2020/01/31 15:26:50.0	111.170	-0.120	-0.040	0.570
2020/01/31 15:26:50.1	111.170	-0.120	-0.090	0.540
2020/01/31 15:26:50.2	111.180	-0.110	-0.130	0.490
2020/01/31 15:26:50.3	111.190	-0.100	-0.170	0.450
2020/01/31 15:26:50.4	111.200	-0.090	-0.210	0.410
2020/01/31 15:26:50.5	111.210	-0.080	-0.250	0.370
2020/01/31 15:26:50.6	111.230	-0.070	-0.280	0.330
2020/01/31 15:26:50.7	111.250	-0.070	-0.310	0.290
2020/01/31 15:26:50.8	111.260	-0.060	-0.340	0.250
2020/01/31 15:26:50.9	111.280	-0.050	-0.370	0.220
2020/01/31 15:26:51.0	111.300	-0.050	-0.390	0.180
2020/01/31 15:26:51.1	111.320	-0.040	-0.410	0.150
2020/01/31 15:26:51.2	111.340	-0.030	-0.430	0.120
2020/01/31 15:26:51.3	111.360	-0.030	-0.440	0.100
2020/01/31 15:26:51.4	111.380	-0.030	-0.450	0.070
2020/01/31 15:26:51.5	111.400	-0.020	-0.460	0.060
2020/01/31 15:26:51.6	111.430	-0.020	-0.460	0.050
2020/01/31 15:26:51.7	111.440	-0.020	-0.470	0.040
2020/01/31 15:26:51.8	111.460	-0.020	-0.470	0.030
2020/01/31 15:26:51.9	111.480	-0.020	-0.470	0.030
2020/01/31 15:26:52.0	111.490	-0.020	-0.470	0.040
2020/01/31 15:26:52.1	111.510	-0.020	-0.470	0.050
2020/01/31 15:26:52.2	111.520	-0.020	-0.460	0.060
2020/01/31 15:26:52.3	111.530	-0.020	-0.460	0.080
2020/01/31 15:26:52.4	111.540	-0.030	-0.450	0.100
2020/01/31 15:26:52.5	111.540	-0.030	-0.450	0.120
2020/01/31 15:26:52.6	111.540	-0.030	-0.450	0.150
2020/01/31 15:26:52.7	111.540	-0.040	-0.440	0.170
2020/01/31 15:26:52.8	111.550	-0.040	-0.430	0.200
2020/01/31 15:26:52.9	111.550	-0.040	-0.430	0.220
2020/01/31 15:26:53.0	111.550	-0.050	-0.420	0.250
2020/01/31 15:26:53.1	111.550	-0.050	-0.420	0.270
2020/01/31 15:26:53.2	111.550	-0.050	-0.410	0.300
2020/01/31 15:26:53.3	111.550	-0.060	-0.410	0.320
2020/01/31 15:26:53.4	111.550	-0.060	-0.400	0.340
2020/01/31 15:26:53.5	111.540	-0.060	-0.400	0.360
2020/01/31 15:26:53.6	111.540	-0.070	-0.390	0.370
2020/01/31 15:26:53.7	111.530	-0.070	-0.390	0.390
2020/01/31 15:26:53.8	111.530	-0.070	-0.390	0.400
2020/01/31 15:26:53.9	111.530	-0.070	-0.390	0.410
2020/01/31 15:26:54.0	111.520	-0.070	-0.380	0.410
2020/01/31 15:26:54.1	111.520	-0.070	-0.380	0.420
2020/01/31 15:26:54.2	111.520	-0.070	-0.380	0.420
2020/01/31 15:26:54.3	111.520	-0.070	-0.370	0.420
2020/01/31 15:26:54.4	111.510	-0.070	-0.370	0.430
2020/01/31 15:26:54.5	111.510	-0.080	-0.370	0.430
2020/01/31 15:26:54.6	111.500	-0.080	-0.360	0.430
2020/01/31 15:26:54.7	111.490	-0.080	-0.350	0.430
2020/01/31 15:26:54.8	111.490	-0.080	-0.350	0.440
2020/01/31 15:26:54.9	111.490	-0.080	-0.340	0.450
2020/01/31 15:26:55.0	111.490	-0.080	-0.330	0.450
2020/01/31 15:26:55.1	111.490	-0.080	-0.310	0.460
2020/01/31 15:26:55.2	111.490	-0.080	-0.300	0.480
2020/01/31 15:26:55.3	111.480	-0.080	-0.280	0.490
2020/01/31 15:26:55.4	111.480	-0.080	-0.270	0.510
2020/01/31 15:26:55.5	111.470	-0.080	-0.250	0.530
2020/01/31 15:26:55.6	111.480	-0.080	-0.220	0.570
2020/01/31 15:26:55.7	111.470	-0.080	-0.200	0.590
2020/01/31 15:26:55.8	111.460	-0.080	-0.170	0.630
2020/01/31 15:26:55.9	111.450	-0.080	-0.140	0.660
2020/01/31 15:26:56.0	111.440	-0.080	-0.110	0.700
2020/01/31 15:26:56.1	111.430	-0.080	-0.080	0.740
2020/01/31 15:26:56.2	111.420	-0.080	-0.050	0.780
2020/01/31 15:26:56.3	111.410	-0.070	-0.020	0.820
2020/01/31 15:26:56.4	111.400	-0.070	0.010	0.870
2020/01/31 15:26:56.5	111.390	-0.070	0.050	0.910
2020/01/31 15:26:56.6	111.380	-0.070	0.080	0.960
2020/01/31 15:26:56.7	111.370	-0.070	0.120	1.000
2020/01/31 15:26:56.8	111.360	-0.070	0.150	1.040
2020/01/31 15:26:56.9	111.350	-0.070	0.180	1.080
2020/01/31 15:26:57.0	111.340	-0.060	0.220	1.120
2020/01/31 15:26:57.1	111.330	-0.060	0.250	1.160
2020/01/31 15:26:57.2	111.330	-0.060	0.280	1.190
2020/01/31 15:26:57.3	111.320	-0.060	0.300	1.230
2020/01/31 15:26:57.4	111.320	-0.050	0.330	1.250
2020/01/31 15:26:57.5	111.310	-0.050	0.350	1.280
2020/01/31 15:26:57.6	111.300	-0.040	0.370	1.300
2020/01/31 15:26:57.7	111.300	-0.040	0.390	1.320
2020/01/31 15:26:57.8	111.300	-0.030	0.400	1.340
2020/01/31 15:26:57.9	111.300	-0.020	0.400	1.350
2020/01/31 15:26:58.0	111.300	-0.020	0.410	1.350
2020/01/31 15:26:58.1	111.300	-0.010	0.400	1.350
2020/01/31 15:26:58.2	111.300	-0.000	0.400	1.350
2020/01/31 15:26:58.3	111.300	0.010	0.390	1.340
2020/01/31 15:26:58.4	111.310	0.020	0.370	1.330
2020/01/31 15:26:58.5	111.310	0.030	0.350	1.310
2020/01/31 15:26:58.6	111.320	0.040	0.320	1.290
2020/01/31 15:26:58.7	111.320	0.050	0.290	1.270
2020/01/31 15:26:58.8	111.320	0.070	0.250	1.240
2020/01/31 15:26:58.9	111.330	0.080	0.210	1.210
2020/01/31 15:26:59.0	111.330	0.100	0.160	1.180
2020/01/31 15:26:59.1	111.330	0.110	0.110	1.140
2020/01/31 15:26:59.2	111.330	0.130	0.060	1.100
2020/01/31 15:26:59.3	111.330	0.140	-0.000	1.060
2020/01/31 15:26:59.4	111.330	0.160	-0.060	1.020
2020/01/31 15:26:59.5	111.330	0.180	-0.130	0.970
2020/01/31 15:26:59.6	111.330	0.200	-0.190	0.930
2020/01/31 15:26:59.7	111.330	0.210	-0.260	0.880
2020/01/31 15:26:59.8	111.330	0.230	-0.330	0.830
2020/01/31 15:26:59.9	111.330	0.250	-0.390	0.790
2020/01/31 15:27:00.0	111.320	0.270	-0.460	0.740
2020/01/31 15:27:00.1	111.320	0.280	-0.530	0.700
2020/01/31 15:27:00.2	111.310	0.300	-0.590	0.660
2020/01/31 15:27:00.3	111.310	0.320	-0.650	0.620
2020/01/31 15:27:00.4	111.300	0.330	-0.710	0.580
2020/01/31 15:27:00.5	111.300	0.340	-0.760	0.540
2020/01/31 15:27:00.6	111.300	0.360	-0.810	0.510
2020/01/31 15:27:00.7	111.300	0.370	-0.850	0.480
2020/01/31 15:27:00.8	111.300	0.380	-0.890	0.450
2020/01/31 15:27:00.9	111.290	0.390	-0.930	0.420
2020/01/31 15:27:01.0	111.290	0.390	-0.960	0.400
2020/01/31 15:27:01.1	111.290	0.400	-0.980	0.380
2020/01/31 15:27:01.2	111.290	0.400	-0.990	0.360
2020/01/31 15:27:01.3	111.300	0.400	-1.000	0.340
2020/01/31 15:27:01.4	111.300	0.400	-1.010	0.330
2020/01/31 15:27:01.5	111.300	0.390	-1.000	0.320
2020/01/31 15:27:01.6	111.300	0.390	-0.990	0.320
2020/01/31 15:27:01.7	111.300	0.380	-0.980	0.310
2020/01/31 15:27:01.8	111.300	0.370	-0.960	0.310
2020/01/31 15:27:01.9	111.310	0.360	-0.930	0.310
2020/01/31 15:27:02.0	111.310	0.340	-0.900	0.310
2020/01/31 15:27:02.1	111.310	0.320	-0.860	0.320
2020/01/31 15:27:02.2	111.320	0.310	-0.820	0.330
2020/01/31 15:27:02.3	111.320	0.290	-0.780	0.330
2020/01/31 15:27:02.4	111.320	0.260	-0.730	0.340
2020/01/31 15:27:02.5	111.320	0.240	-0.670	0.350
2020/01/31 15:27:02.6	111.330	0.210	-0.610	0.370
2020/01/31 15:27:02.7	111.330	0.190	-0.560	0.380
2020/01/31 15:27:02.8	111.330	0.160	-0.500	0.400
2020/01/31 15:27:02.9	111.340	0.130	-0.440	0.410
2020/01/31 15:27:03.0	111.340	0.100	-0.380	0.430
2020/01/31 15:27:03.1	111.340	0.060	-0.320	0.450
2020/01/31 15:27:03.2	111.340	0.030	-0.260	0.460
2020/01/31 15:27:03.3	111.340	0.000	-0.200	0.480
2020/01/31 15:27:03.4	111.350	-0.030	-0.140	0.490
2020/01/31 15:27:03.5	111.350	-0.070	-0.090	0.510
2020/01/31 15:27:03.6	111.350	-0.100	-0.040	0.530
2020/01/31 15:27:03.7	111.350	-0.130	0.020	0.540
2020/01/31 15:27:03.8	111.350	-0.160	0.070	0.560
2020/01/31 15:27:03.9	111.350	-0.190	0.110	0.570
2020/01/31 15:27:04.0	111.350	-0.220	0.160	0.580
2020/01/31 15:27:04.1	111.350	-0.250	0.200	0.600
2020/01/31 15:27:04.2	111.350	-0.280	0.240	0.610
2020/01/31 15:27:04.3	111.360	-0.310	0.270	0.620
2020/01/31 15:27:04.4	111.350	-0.340	0.300	0.630
2020/01/31 15:27:04.5	111.350	-0.360	0.330	0.640
2020/01/31 15:27:04.6	111.350	-0.380	0.360	0.660
2020/01/31 15:27:04.7	111.340	-0.410	0.380	0.670
2020/01/31 15:27:04.8	111.340	-0.430	0.400	0.690
2020/01/31 15:27:04.9	111.330	-0.450	0.420	0.700
2020/01/31 15:27:05.0	111.330	-0.460	0.430	0.720
2020/01/31 15:27:05.1	111.320	-0.480	0.440	0.730
2020/01/31 15:27:05.2	111.310	-0.490	0.440	0.750
2020/01/31 15:27:05.3	111.300	-0.510	0.450	0.770
2020/01/31 15:27:05.4	111.290	-0.520	0.450	0.790
2020/01/31 15:27:05.5	111.270	-0.530	0.450	0.810
2020/01/31 15:27:05.6	111.260	-0.540	0.440	0.830
2020/01/31 15:27:05.7	111.250	-0.540	0.440	0.860
2020/01/31 15:27:05.8	111.230	-0.550	0.430	0.880
2020/01/31 15:27:05.9	111.220	-0.550	0.420	0.910
2020/01/31 15:27:06.0	111.200	-0.550	0.400	0.930
2020/01/31 15:27:06.1	111.180	-0.550	0.390	0.960
2020/01/31 15:27:06.2	111.170	-0.550	0.370	0.990
2020/01/31 15:27:06.3	111.150	-0.550	0.350	1.020
2020/01/31 15:27:06.4	111.130	-0.550	0.330	1.050
2020/01/31 15:27:06.5	111.110	-0.540	0.310	1.080
2020/01/31 15:27:06.6	111.090	-0.530	0.290	1.110
2020/01/31 15:27:06.7	111.070	-0.520	0.260	1.140
2020/01/31 15:27:06.8	111.050	-0.510	0.230	1.170
2020/01/31 15:27:06.9	111.040	-0.500	0.200	1.190
2020/01/31 15:27:07.0	111.020	-0.480	0.170	1.220
2020/01/31 15:27:07.1	111.000	-0.470	0.140	1.240
2020/01/31 15:27:07.2	110.990	-0.450	0.100	1.270
2020/01/31 15:27:07.3	110.970	-0.430	0.060	1.290
2020/01/31 15:27:07.4	110.960	-0.410	0.020	1.310
2020/01/31 15:27:07.5	110.950	-0.390	-0.020	1.320
2020/01/31 15:27:07.6	110.930	-0.360	-0.060	1.340
2020/01/31 15:27:07.7	110.920	-0.330	-0.110	1.350
2020/01/31 15:27:07.8	110.910	-0.310	-0.150	1.350
2020/01/31 15:27:07.9	110.900	-0.280	-0.200	1.360
2020/01/31 15:27:08.0	110.890	-0.250	-0.250	1.360
2020/01/31 15:27:08.1	110.880	-0.220	-0.300	1.360
2020/01/31 15:27:08.2	110.870	-0.190	-0.350	1.350
2020/01/31 15:27:08.3	110.860	-0.150	-0.400	1.340
2020/01/31 15:27:08.4	110.850	-0.120	-0.450	1.330
2020/01/31 15:27:08.5	110.850	-0.090	-0.500	1.310
2020/01/31 15:27:08.6	110.850	-0.050	-0.550	1.290
2020/01/31 15:27:08.7	110.850	-0.020	-0.600	1.270
2020/01/31 15:27:08.8	110.850	0.020	-0.640	1.240
2020/01/31 15:27:08.9	110.850	0.050	-0.680	1.210
2020/01/31 15:27:09.0	110.850	0.080	-0.710	1.180
2020/01/31 15:27:09.1	110.850	0.110	-0.740	1.140
2020/01/31 15:27:09.2	110.860	0.140	-0.770	1.090
2020/01/31 15:27:09.3	110.870	0.170	-0.790	1.050
2020/01/31 15:27:09.4	110.880	0.200	-0.800	1.000
2020/01/31 15:27:09.5	110.890	0.230	-0.810	0.950
2020/01/31 15:27:09.6	110.900	0.250	-0.820	0.900
2020/01/31 15:27:09.7	110.920	0.280	-0.820	0.850
2020/01/31 15:27:09.8	110.940	0.300	-0.810	0.790
2020/01/31 15:27:09.9	110.960	0.310	-0.790	0.730
2020/01/31 15:27:10.0	110.980	0.330	-0.770	0.670
2020/01/31 15:27:10.1	111.010	0.340	-0.750	0.610
2020/01/31 15:27:10.2	111.030	0.350	-0.720	0.550
2020/01/31 15:27:10.3	111.060	0.360	-0.680	0.490
2020/01/31 15:27:10.4	111.090	0.370	-0.640	0.420
2020/01/31 15:27:10.5	111.110	0.370	-0.600	0.360
2020/01/31 15:27:10.6	111.140	0.380	-0.540	0.310
2020/01/31 15:27:10.7	111.170	0.370	-0.490	0.250
2020/01/31 15:27:10.8	111.190	0.370	-0.440	0.190
2020/01/31 15:27:10.9	111.220	0.370	-0.380	0.140
2020/01/31 15:27:11.0	111.240	0.360	-0.330	0.090
2020/01/31 15:27:11.1	111.260	0.350	-0.270	0.040
2020/01/31 15:27:11.2	111.290	0.340	-0.210	-0.010
2020/01/31 15:27:11.3	111.300	0.330	-0.150	-0.050
2020/01/31 15:27:11.4	111.320	0.310	-0.100	-0.090
2020/01/31 15:27:11.5	111.340	0.300	-0.040	-0.130
2020/01/31 15:27:11.6	111.350	0.280	0.010	-0.160
2020/01/31 15:27:11.7	111.370	0.260	0.060	-0.190
2020/01/31 15:27:11.8	111.380	0.250	0.110	-0.220
2020/01/31 15:27:11.9	111.400	0.230	0.160	-0.240
2020/01/31 15:27:12.0	111.410	0.210	0.200	-0.260
2020/01/31 15:27:12.1	111.420	0.190	0.240	-0.280
2020/01/31 15:27:12.2	111.430	0.180	0.270	-0.290
2020/01/31 15:27:12.3	111.440	0.160	0.310	-0.300
2020/01/31 15:27:12.4	111.460	0.140	0.330	-0.310
2020/01/31 15:27:12.5	111.470	0.120	0.350	-0.310
2020/01/31 15:27:12.6	111.470	0.110	0.380	-0.310
2020/01/31 15:27:12.7	111.480	0.100	0.390	-0.310
2020/01/31 15:27:12.8	111.490	0.080	0.400	-0.300
2020/01/31 15:27:12.9	111.490	0.070	0.400	-0.290
2020/01/31 15:27:13.0	111.500	0.060	0.400	-0.280
2020/01/31 15:27:13.1	111.510	0.050	0.390	-0.260
2020/01/31 15:27:13.2	111.510	0.050	0.380	-0.240
2020/01/31 15:27:13.3	111.510	0.040	0.360	-0.220
2020/01/31 15:27:13.4	111.510	0.040	0.340	-0.190
2020/01/31 15:27:13.5	111.510	0.040	0.320	-0.160
2020/01/31 15:27:13.6	111.520	0.040	0.280	-0.130
2020/01/31 15:27:13.7	111.510	0.050	0.250	-0.090
2020/01/31 15:27:13.8	111.510	0.050	0.210	-0.060
2020/01/31 15:27:13.9	111.500	0.060	0.170	-0.020
2020/01/31 15:27:14.0	111.480	0.070	0.120	0.030
2020/01/31 15:27:14.1	111.470	0.080	0.070	0.070
2020/01/31 15:27:14.2	111.460	0.090	0.020	0.120
2020/01/31 15:27:14.3	111.440	0.110	-0.040	0.170
2020/01/31 15:27:14.4	111.420	0.120	-0.090	0.220
2020/01/31 15:27:14.5	111.400	0.140	-0.150	0.270
2020/01/31 15:27:14.6	111.390	0.150	-0.200	0.320
2020/01/31 15:27:14.7	111.360	0.170	-0.260	0.380
2020/01/31 15:27:14.8	111.340	0.180	-0.320	0.430
2020/01/31 15:27:14.9	111.320	0.200	-0.380	0.490
2020/01/31 15:27:15.0	111.290	0.220	-0.430	0.540
2020/01/31 15:27:15.1	111.270	0.230	-0.490	0.600
2020/01/31 15:27:15.2	111.240	0.250	-0.540	0.650
2020/01/31 15:27:15.3	111.220	0.260	-0.590	0.710
2020/01/31 15:27:15.4	111.190	0.270	-0.640	0.770
2020/01/31 15:27:15.5	111.170	0.280	-0.680	0.820
2020/01/31 15:27:15.6	111.150	0.290	-0.730	0.880
2020/01/31 15:27:15.7	111.120	0.300	-0.760	0.940
2020/01/31 15:27:15.8	111.100	0.300	-0.800	0.990
2020/01/31 15:27:15.9	111.080	0.310	-0.820	1.050
2020/01/31 15:27:16.0	111.060	0.300	-0.840	1.100
2020/01/31 15:27:16.1	111.040	0.300	-0.860	1.160
2020/01/31 15:27:16.2	111.020	0.300	-0.870	1.210
2020/01/31 15:27:16.3	111.000	0.290	-0.880	1.260
2020/01/31 15:27:16.4	110.980	0.270	-0.880	1.310
2020/01/31 15:27:16.5	110.970	0.260	-0.870	1.360
2020/01/31 15:27:16.6	110.950	0.240	-0.860	1.420
2020/01/31 15:27:16.7	110.940	0.220	-0.840	1.460
2020/01/31 15:27:16.8	110.930	0.200	-0.810	1.510
2020/01/31 15:27:16.9	110.930	0.170	-0.780	1.550
2020/01/31 15:27:17.0	110.920	0.140	-0.750	1.600
2020/01/31 15:27:17.1	110.920	0.110	-0.710	1.640
2020/01/31 15:27:17.2	110.920	0.080	-0.660	1.670
2020/01/31 15:27:17.3	110.920	0.040	-0.610	1.710
2020/01/31 15:27:17.4	110.920	0.000	-0.560	1.740
2020/01/31 15:27:17.5	110.920	-0.040	-0.500	1.770
2020/01/31 15:27:17.6	110.930	-0.080	-0.440	1.800
2020/01/31 15:27:17.7	110.930	-0.120	-0.370	1.830
2020/01/31 15:27:17.8	110.940	-0.170	-0.310	1.850
2020/01/31 15:27:17.9	110.950	-0.210	-0.240	1.870
2020/01/31 15:27:18.0	110.960	-0.260	-0.170	1.890
2020/01/31 15:27:18.1	110.970	-0.300	-0.110	1.900
2020/01/31 15:27:18.2	110.980	-0.340	-0.040	1.910
2020/01/31 15:27:18.3	110.990	-0.390	0.030	1.920
2020/01/31 15:27:18.4	111.010	-0.430	0.090	1.930
2020/01/31 15:27:18.5	111.020	-0.470	0.150	1.930
2020/01/31 15:27:18.6	111.030	-0.510	0.210	1.930
2020/01/31 15:27:18.7	111.040	-0.550	0.270	1.930
2020/01/31 15:27:18.8	111.050	-0.590	0.320	1.920
2020/01/31 15:27:18.9	111.060	-0.620	0.370	1.910
2020/01/31 15:27:19.0	111.070	-0.660	0.420	1.900
2020/01/31 15:27:19.1	111.080	-0.680	0.460	1.880
2020/01/31 15:27:19.2	111.090	-0.710	0.490	1.870
2020/01/31 15:27:19.3	111.100	-0.730	0.520	1.840
2020/01/31 15:27:19.4	111.110	-0.750	0.550	1.820
2020/01/31 15:27:19.5	111.120	-0.770	0.560	1.800
2020/01/31 15:27:19.6	111.130	-0.780	0.580	1.760
2020/01/31 15:27:19.7	111.130	-0.780	0.580	1.730
2020/01/31 15:27:19.8	111.140	-0.790	0.580	1.700
2020/01/31 15:27:19.9	111.140	-0.780	0.570	1.670
2020/01/31 15:27:20.0	111.150	-0.780	0.560	1.630
2020/01/31 15:27:20.1	111.150	-0.770	0.540	1.600
2020/01/31 15:27:20.2	111.150	-0.750	0.510	1.560
2020/01/31 15:27:20.3	111.160	-0.730	0.480	1.520
2020/01/31 15:27:20.4	111.160	-0.710	0.450	1.470
2020/01/31 15:27:20.5	111.160	-0.680	0.400	1.430
2020/01/31 15:27:20.6	111.160	-0.650	0.350	1.390
2020/01/31 15:27:20.7	111.160	-0.620	0.300	1.340
2020/01/31 15:27:20.8	111.160	-0.580	0.250	1.290
2020/01/31 15:27:20.9	111.160	-0.540	0.190	1.250
2020/01/31 15:27:21.0	111.160	-0.490	0.120	1.190
2020/01/31 15:27:21.1	111.160	-0.440	0.060	1.140
2020/01/31 15:27:21.2	111.160	-0.390	-0.010	1.090
2020/01/31 15:27:21.3	111.160	-0.340	-0.080	1.040
2020/01/31 15:27:21.4	111.160	-0.280	-0.150	0.990
2020/01/31 15:27:21.5	111.160	-0.230	-0.220	0.930
2020/01/31 15:27:21.6	111.160	-0.170	-0.290	0.880
2020/01/31 15:27:21.7	111.160	-0.110	-0.360	0.820
2020/01/31 15:27:21.8	111.160	-0.050	-0.420	0.770
2020/01/31 15:27:21.9	111.160	0.010	-0.490	0.710
2020/01/31 15:27:22.0	111.160	0.070	-0.550	0.660
2020/01/31 15:27:22.1	111.170	0.130	-0.610	0.610
2020/01/31 15:27:22.2	111.170	0.190	-0.670	0.550
2020/01/31 15:27:22.3	111.170	0.250	-0.720	0.500
2020/01/31 15:27:22.4	111.170	0.310	-0.770	0.450
2020/01/31 15:27:22.5	111.170	0.360	-0.810	0.400
2020/01/31 15:27:22.6	111.190	0.410	-0.850	0.350
2020/01/31 15:27:22.7	111.190	0.460	-0.880	0.300
2020/01/31 15:27:22.8	111.200	0.510	-0.910	0.250
2020/01/31 15:27:22.9	111.200	0.560	-0.930	0.200
2020/01/31 15:27:23.0	111.200	0.600	-0.950	0.150
2020/01/31 15:27:23.1	111.200	0.640	-0.960	0.100
2020/01/31 15:27:23.2	111.200	0.670	-0.970	0.060
2020/01/31 15:27:23.3	111.200	0.700	-0.970	0.010
2020/01/31 15:27:23.4	111.200	0.730	-0.960	-0.030
2020/01/31 15:27:23.5	111.200	0.750	-0.950	-0.070
2020/01/31 15:27:23.6	111.200	0.770	-0.930	-0.110
2020/01/31 15:27:23.7	111.200	0.780	-0.900	-0.150
2020/01/31 15:27:23.8	111.200	0.790	-0.870	-0.190
2020/01/31 15:27:23.9	111.200	0.800	-0.830	-0.230
2020/01/31 15:27:24.0	111.190	0.800	-0.790	-0.260
2020/01/31 15:27:24.1	111.190	0.790	-0.740	-0.290
2020/01/31 15:27:24.2	111.190	0.790	-0.690	-0.330
2020/01/31 15:27:24.3	111.180	0.770	-0.640	-0.360
2020/01/31 15:27:24.4	111.180	0.760	-0.580	-0.390
2020/01/31 15:27:24.5	111.180	0.730	-0.510	-0.420
2020/01/31 15:27:24.6	111.190	0.710	-0.440	-0.440
2020/01/31 15:27:24.7	111.190	0.680	-0.370	-0.460
2020/01/31 15:27:24.8	111.190	0.650	-0.290	-0.480
2020/01/31 15:27:24.9	111.200	0.610	-0.220	-0.510
2020/01/31 15:27:25.0	111.200	0.570	-0.140	-0.520
2020/01/31 15:27:25.1	111.200	0.530	-0.060	-0.540
2020/01/31 15:27:25.2	111.210	0.490	0.020	-0.560
2020/01/31 15:27:25.3	111.220	0.440	0.100	-0.570
2020/01/31 15:27:25.4	111.220	0.390	0.170	-0.580
2020/01/31 15:27:25.5	111.230	0.350	0.250	-0.580
2020/01/31 15:27:25.6	111.240	0.290	0.320	-0.580
2020/01/31 15:27:25.7	111.260	0.240	0.390	-0.580
2020/01/31 15:27:25.8	111.270	0.190	0.460	-0.580
2020/01/31 15:27:25.9	111.280	0.140	0.530	-0.570
2020/01/31 15:27:26.0	111.300	0.090	0.580	-0.560
2020/01/31 15:27:26.1	111.310	0.040	0.640	-0.540
2020/01/31 15:27:26.2	111.330	-0.010	0.690	-0.520
2020/01/31 15:27:26.3	111.340	-0.060	0.730	-0.500
2020/01/31 15:27:26.4	111.360	-0.110	0.770	-0.470
2020/01/31 15:27:26.5	111.380	-0.150	0.800	-0.440
2020/01/31 15:27:26.6	111.390	-0.200	0.830	-0.400
2020/01/31 15:27:26.7	111.410	-0.240	0.840	-0.360
2020/01/31 15:27:26.8	111.420	-0.270	0.860	-0.320
2020/01/31 15:27:26.9	111.440	-0.310	0.860	-0.270
2020/01/31 15:27:27.0	111.450	-0.340	0.860	-0.220
2020/01/31 15:27:27.1	111.470	-0.370	0.840	-0.170
2020/01/31 15:27:27.2	111.480	-0.400	0.830	-0.120
2020/01/31 15:27:27.3	111.490	-0.420	0.800	-0.060
2020/01/31 15:27:27.4	111.510	-0.440	0.770	0.000
2020/01/31 15:27:27.5	111.520	-0.450	0.730	0.060
2020/01/31 15:27:27.6	111.520	-0.470	0.680	0.130
2020/01/31 15:27:27.7	111.530	-0.470	0.630	0.200
2020/01/31 15:27:27.8	111.540	-0.480	0.580	0.270
2020/01/31 15:27:27.9	111.540	-0.480	0.520	0.340
2020/01/31 15:27:28.0	111.550	-0.480	0.450	0.410
2020/01/31 15:27:28.1	111.550	-0.480	0.390	0.480
2020/01/31 15:27:28.2	111.550	-0.470	0.320	0.550
2020/01/31 15:27:28.3	111.550	-0.460	0.240	0.630
2020/01/31 15:27:28.4	111.540	-0.450	0.170	0.700
2020/01/31 15:27:28.5	111.540	-0.440	0.090	0.780
2020/01/31 15:27:28.6	111.520	-0.420	0.020	0.860
2020/01/31 15:27:28.7	111.510	-0.410	-0.060	0.940
2020/01/31 15:27:28.8	111.500	-0.390	-0.140	1.020
2020/01/31 15:27:28.9	111.480	-0.370	-0.210	1.100
2020/01/31 15:27:29.0	111.460	-0.350	-0.290	1.180
2020/01/31 15:27:29.1	111.440	-0.320	-0.360	1.250
2020/01/31 15:27:29.2	111.410	-0.300	-0.430	1.330
2020/01/31 15:27:29.3	111.390	-0.270	-0.500	1.410
2020/01/31 15:27:29.4	111.360	-0.250	-0.560	1.480
2020/01/31 15:27:29.5	111.330	-0.220	-0.630	1.560
2020/01/31 15:27:29.6	111.310	-0.190	-0.690	1.630
2020/01/31 15:27:29.7	111.280	-0.170	-0.740	1.700
2020/01/31 15:27:29.8	111.250	-0.140	-0.790	1.770
2020/01/31 15:27:29.9	111.220	-0.110	-0.840	1.840
2020/01/31 15:27:30.0	111.190	-0.080	-0.880	1.900
2020/01/31 15:27:30.1	111.160	-0.060	-0.920	1.960
2020/01/31 15:27:30.2	111.130	-0.030	-0.950	2.010
2020/01/31 15:27:30.3	111.100	-0.000	-0.980	2.060
2020/01/31 15:27:30.4	111.080	0.030	-1.010	2.110
2020/01/31 15:27:30.5	111.050	0.050	-1.040	2.150
2020/01/31 15:27:30.6	111.030	0.080	-1.060	2.190
2020/01/31 15:27:30.7	111.010	0.110	-1.070	2.230
2020/01/31 15:27:30.8	110.990	0.130	-1.090	2.260
2020/01/31 15:27:30.9	110.970	0.160	-1.100	2.280
2020/01/31 15:27:31.0	110.960	0.180	-1.110	2.300
2020/01/31 15:27:31.1	110.950	0.200	-1.110	2.320
2020/01/31 15:27:31.2	110.940	0.230	-1.120	2.330
2020/01/31 15:27:31.3	110.930	0.250	-1.120	2.340
2020/01/31 15:27:31.4	110.930	0.270	-1.120	2.340
2020/01/31 15:27:31.5	110.930	0.280	-1.110	2.340
2020/01/31 15:27:31.6	110.920	0.300	-1.100	2.340
2020/01/31 15:27:31.7	110.920	0.310	-1.090	2.330
2020/01/31 15:27:31.8	110.930	0.330	-1.080	2.320
2020/01/31 15:27:31.9	110.930	0.340	-1.070	2.300
2020/01/31 15:27:32.0	110.940	0.350	-1.050	2.290
2020/01/31 15:27:32.1	110.950	0.350	-1.030	2.270
2020/01/31 15:27:32.2	110.960	0.360	-1.010	2.240
2020/01/31 15:27:32.3	110.970	0.360	-0.980	2.220
2020/01/31 15:27:32.4	110.990	0.360	-0.950	2.190
2020/01/31 15:27:32.5	111.000	0.360	-0.920	2.160
2020/01/31 15:27:32.6	111.010	0.360	-0.880	2.130
2020/01/31 15:27:32.7	111.030	0.350	-0.840	2.090
2020/01/31 15:27:32.8	111.040	0.340	-0.800	2.050
2020/01/31 15:27:32.9	111.060	0.330	-0.750	2.020
2020/01/31 15:27:33.0	111.070	0.310	-0.700	1.970
2020/01/31 15:27:33.1	111.090	0.300	-0.650	1.930
2020/01/31 15:27:33.2	111.100	0.280	-0.590	1.890
2020/01/31 15:27:33.3	111.110	0.260	-0.530	1.840
2020/01/31 15:27:33.4	111.130	0.240	-0.460	1.790
2020/01/31 15:27:33.5	111.140	0.210	-0.390	1.740
2020/01/31 15:27:33.6	111.150	0.190	-0.320	1.690
2020/01/31 15:27:33.7	111.160	0.160	-0.250	1.640
2020/01/31 15:27:33.8	111.160	0.130	-0.170	1.580
2020/01/31 15:27:33.9	111.170	0.100	-0.090	1.520
2020/01/31 15:27:34.0	111.170	0.070	-0.020	1.460
2020/01/31 15:27:34.1	111.180	0.030	0.060	1.400
2020/01/31 15:27:34.2	111.180	-0.000	0.140	1.330
2020/01/31 15:27:34.3	111.190	-0.030	0.220	1.260
2020/01/31 15:27:34.4	111.190	-0.070	0.300	1.190
2020/01/31 15:27:34.5	111.190	-0.100	0.370	1.120
2020/01/31 15:27:34.6	111.200	-0.140	0.450	1.040
2020/01/31 15:27:34.7	111.200	-0.170	0.520	0.960
2020/01/31 15:27:34.8	111.200	-0.200	0.600	0.880
2020/01/31 15:27:34.9	111.200	-0.230	0.660	0.800
2020/01/31 15:27:35.0	111.190	-0.270	0.730	0.720
2020/01/31 15:27:35.1	111.190	-0.300	0.790	0.640
2020/01/31 15:27:35.2	111.190	-0.320	0.840	0.550
2020/01/31 15:27:35.3	111.190	-0.350	0.890	0.460
2020/01/31 15:27:35.4	111.180	-0.370	0.940	0.380
2020/01/31 15:27:35.5	111.180	-0.400	0.980	0.290
2020/01/31 15:27:35.6	111.190	-0.420	1.000	0.210
2020/01/31 15:27:35.7	111.180	-0.430	1.030	0.130
2020/01/31 15:27:35.8	111.170	-0.450	1.050	0.040
2020/01/31 15:27:35.9	111.160	-0.460	1.050	-0.040
2020/01/31 15:27:36.0	111.150	-0.470	1.060	-0.120
2020/01/31 15:27:36.1	111.140	-0.480	1.050	-0.200
2020/01/31 15:27:36.2	111.130	-0.480	1.040	-0.270
2020/01/31 15:27:36.3	111.110	-0.480	1.010	-0.340
2020/01/31 15:27:36.4	111.090	-0.480	0.980	-0.410
2020/01/31 15:27:36.5	111.080	-0.480	0.950	-0.480
2020/01/31 15:27:36.6	111.060	-0.470	0.910	-0.550
2020/01/31 15:27:36.7	111.040	-0.460	0.860	-0.600
2020/01/31 15:27:36.8	111.020	-0.450	0.800	-0.660
2020/01/31 15:27:36.9	110.990	-0.430	0.740	-0.710
2020/01/31 15:27:37.0	110.970	-0.420	0.670	-0.750
2020/01/31 15:27:37.1	110.950	-0.400	0.590	-0.790
2020/01/31 15:27:37.2	110.920	-0.370	0.520	-0.830
2020/01/31 15:27:37.3	110.900	-0.350	0.440	-0.860
2020/01/31 15:27:37.4	110.870	-0.320	0.350	-0.890
2020/01/31 15:27:37.5	110.850	-0.300	0.270	-0.920
2020/01/31 15:27:37.6	110.840	-0.270	0.170	-0.930
2020/01/31 15:27:37.7	110.820	-0.240	0.090	-0.950
2020/01/31 15:27:37.8	110.800	-0.200	-0.000	-0.970
2020/01/31 15:27:37.9	110.790	-0.170	-0.090	-0.980
2020/01/31 15:27:38.0	110.770	-0.140	-0.180	-0.990
2020/01/31 15:27:38.1	110.760	-0.100	-0.260	-1.000
2020/01/31 15:27:38.2	110.740	-0.070	-0.340	-1.000
2020/01/31 15:27:38.3	110.740	-0.040	-0.420	-1.010
2020/01/31 15:27:38.4	110.730	-0.000	-0.500	-1.010
2020/01/31 15:27:38.5	110.730	0.030	-0.570	-1.010
2020/01/31 15:27:38.6	110.730	0.070	-0.640	-1.010
2020/01/31 15:27:38.7	110.730	0.100	-0.700	-1.010
2020/01/31 15:27:38.8	110.730	0.130	-0.760	-1.000
2020/01/31 15:27:38.9	110.740	0.160	-0.810	-1.000
2020/01/31 15:27:39.0	110.750	0.190	-0.860	-0.990
2020/01/31 15:27:39.1	110.760	0.210	-0.900	-0.990
2020/01/31 15:27:39.2	110.780	0.240	-0.940	-0.980
2020/01/31 15:27:39.3	110.790	0.260	-0.970	-0.970
2020/01/31 15:27:39.4	110.810	0.280	-1.000	-0.960
2020/01/31 15:27:39.5	110.830	0.300	-1.030	-0.950
2020/01/31 15:27:39.6	110.860	0.320	-1.050	-0.930
2020/01/31 15:27:39.7	110.880	0.340	-1.060	-0.920
2020/01/31 15:27:39.8	110.900	0.350	-1.070	-0.900
2020/01/31 15:27:39.9	110.920	0.360	-1.080	-0.890
2020/01/31 15:27:40.0	110.950	0.370	-1.080	-0.870
2020/01/31 15:27:40.1	110.970	0.380	-1.080	-0.850
2020/01/31 15:27:40.2	111.000	0.380	-1.070	-0.820
2020/01/31 15:27:40.3	111.020	0.380	-1.060	-0.800
2020/01/31 15:27:40.4	111.050	0.390	-1.050	-0.770
2020/01/31 15:27:40.5	111.070	0.380	-1.040	-0.740
2020/01/31 15:27:40.6	111.100	0.380	-1.020	-0.710
2020/01/31 15:27:40.7	111.120	0.380	-1.000	-0.670
2020/01/31 15:27:40.8	111.140	0.370	-0.980	-0.640
2020/01/31 15:27:40.9	111.160	0.370	-0.950	-0.600
2020/01/31 15:27:41.0	111.170	0.360	-0.930	-0.560
2020/01/31 15:27:41.1	111.190	0.360	-0.900	-0.510
2020/01/31 15:27:41.2	111.200	0.350	-0.870	-0.460
2020/01/31 15:27:41.3	111.210	0.340	-0.840	-0.410
2020/01/31 15:27:41.4	111.210	0.330	-0.810	-0.350
2020/01/31 15:27:41.5	111.220	0.320	-0.780	-0.290
2020/01/31 15:27:41.6	111.220	0.310	-0.730	-0.220
2020/01/31 15:27:41.7	111.210	0.300	-0.700	-0.150
2020/01/31 15:27:41.8	111.210	0.290	-0.650	-0.080
2020/01/31 15:27:41.9	111.200	0.280	-0.610	-0.010
2020/01/31 15:27:42.0	111.190	0.270	-0.570	0.070
2020/01/31 15:27:42.1	111.170	0.250	-0.520	0.150
2020/01/31 15:27:42.2	111.150	0.240	-0.470	0.230
2020/01/31 15:27:42.3	111.130	0.230	-0.420	0.320
2020/01/31 15:27:42.4	111.100	0.220	-0.370	0.410
2020/01/31 15:27:42.5	111.080	0.210	-0.310	0.500
2020/01/31 15:27:42.6	111.040	0.190	-0.260	0.600
2020/01/31 15:27:42.7	111.010	0.180	-0.200	0.700
2020/01/31 15:27:42.8	110.970	0.170	-0.150	0.800
2020/01/31 15:27:42.9	110.940	0.160	-0.090	0.900
2020/01/31 15:27:43.0	110.900	0.140	-0.030	1.000
2020/01/31 15:27:43.1	110.860	0.130	0.020	1.100
2020/01/31 15:27:43.2	110.810	0.120	0.080	1.210
2020/01/31 15:27:43.3	110.770	0.100	0.130	1.310
2020/01/31 15:27:43.4	110.730	0.090	0.190	1.420
2020/01/31 15:27:43.5	110.680	0.080	0.240	1.520
2020/01/31 15:27:43.6	110.630	0.070	0.300	1.620
2020/01/31 15:27:43.7	110.590	0.050	0.340	1.720
2020/01/31 15:27:43.8	110.550	0.040	0.390	1.820
2020/01/31 15:27:43.9	110.510	0.030	0.430	1.910
2020/01/31 15:27:44.0	110.470	0.020	0.470	1.990
2020/01/31 15:27:44.1	110.440	0.010	0.510	2.080
2020/01/31 15:27:44.2	110.400	-0.000	0.540	2.160
2020/01/31 15:27:44.3	110.370	-0.010	0.570	2.230
2020/01/31 15:27:44.4	110.350	-0.020	0.600	2.290
2020/01/31 15:27:44.5	110.320	-0.030	0.620	2.350
2020/01/31 15:27:44.6	110.300	-0.040	0.640	2.410
2020/01/31 15:27:44.7	110.280	-0.050	0.650	2.460
2020/01/31 15:27:44.8	110.270	-0.060	0.660	2.500
2020/01/31 15:27:44.9	110.270	-0.070	0.670	2.530
2020/01/31 15:27:45.0	110.260	-0.080	0.670	2.560
2020/01/31 15:27:45.1	110.260	-0.080	0.660	2.580
2020/01/31 15:27:45.2	110.260	-0.090	0.660	2.590
2020/01/31 15:27:45.3	110.270	-0.100	0.640	2.600
2020/01/31 15:27:45.4	110.280	-0.100	0.620	2.600
2020/01/31 15:27:45.5	110.290	-0.110	0.600	2.590
2020/01/31 15:27:45.6	110.300	-0.110	0.580	2.580
2020/01/31 15:27:45.7	110.320	-0.120	0.550	2.560
2020/01/31 15:27:45.8	110.340	-0.130	0.520	2.540
2020/01/31 15:27:45.9	110.360	-0.130	0.480	2.510
2020/01/31 15:27:46.0	110.380	-0.140	0.440	2.480
2020/01/31 15:27:46.1	110.410	-0.140	0.400	2.440
2020/01/31 15:27:46.2	110.430	-0.150	0.350	2.400
2020/01/31 15:27:46.3	110.460	-0.150	0.300	2.360
2020/01/31 15:27:46.4	110.490	-0.160	0.250	2.310
2020/01/31 15:27:46.5	110.520	-0.160	0.200	2.260
2020/01/31 15:27:46.6	110.540	-0.170	0.140	2.210
2020/01/31 15:27:46.7	110.570	-0.170	0.080	2.150
2020/01/31 15:27:46.8	110.600	-0.170	0.020	2.090
2020/01/31 15:27:46.9	110.630	-0.180	-0.030	2.030
2020/01/31 15:27:47.0	110.660	-0.180	-0.090	1.970
2020/01/31 15:27:47.1	110.690	-0.180	-0.150	1.910
2020/01/31 15:27:47.2	110.720	-0.190	-0.210	1.840
2020/01/31 15:27:47.3	110.740	-0.190	-0.270	1.780
2020/01/31 15:27:47.4	110.770	-0.190	-0.330	1.710
2020/01/31 15:27:47.5	110.790	-0.190	-0.390	1.650
2020/01/31 15:27:47.6	110.820	-0.190	-0.440	1.580
2020/01/31 15:27:47.7	110.840	-0.190	-0.500	1.520
2020/01/31 15:27:47.8	110.860	-0.190	-0.550	1.450
2020/01/31 15:27:47.9	110.870	-0.180	-0.600	1.390
2020/01/31 15:27:48.0	110.880	-0.180	-0.650	1.320
2020/01/31 15:27:48.1	110.900	-0.170	-0.700	1.260
2020/01/31 15:27:48.2	110.910	-0.170	-0.740	1.200
2020/01/31 15:27:48.3	110.910	-0.160	-0.780	1.140
2020/01/31 15:27:48.4	110.920	-0.150	-0.810	1.070
2020/01/31 15:27:48.5	110.920	-0.140	-0.850	1.020
2020/01/31 15:27:48.6	110.920	-0.130	-0.870	0.960
2020/01/31 15:27:48.7	110.920	-0.110	-0.900	0.900
2020/01/31 15:27:48.8	110.920	-0.100	-0.920	0.850
2020/01/31 15:27:48.9	110.910	-0.090	-0.930	0.800
2020/01/31 15:27:49.0	110.900	-0.070	-0.950	0.750
2020/01/31 15:27:49.1	110.890	-0.060	-0.960	0.700
2020/01/31 15:27:49.2	110.870	-0.040	-0.960	0.660
2020/01/31 15:27:49.3	110.860	-0.020	-0.970	0.620
2020/01/31 15:27:49.4	110.840	-0.010	-0.970	0.580
2020/01/31 15:27:49.5	110.820	0.010	-0.960	0.540
2020/01/31 15:27:49.6	110.790	0.030	-0.950	0.510
2020/01/31 15:27:49.7	110.770	0.040	-0.940	0.480
2020/01/31 15:27:49.8	110.740	0.060	-0.930	0.450
2020/01/31 15:27:49.9	110.710	0.080	-0.910	0.420
2020/01/31 15:27:50.0	110.680	0.090	-0.890	0.400
2020/01/31 15:27:50.1	110.650	0.110	-0.870	0.380
2020/01/31 15:27:50.2	110.620	0.120	-0.850	0.360
2020/01/31 15:27:50.3	110.580	0.130	-0.820	0.350
2020/01/31 15:27:50.4	110.550	0.150	-0.790	0.330
2020/01/31 15:27:50.5	110.520	0.160	-0.770	0.320
2020/01/31 15:27:50.6	110.480	0.170	-0.730	0.320
2020/01/31 15:27:50.7	110.440	0.180	-0.700	0.310
2020/01/31 15:27:50.8	110.410	0.190	-0.670	0.310
2020/01/31 15:27:50.9	110.380	0.190	-0.630	0.310
2020/01/31 15:27:51.0	110.350	0.200	-0.600	0.310
2020/01/31 15:27:51.1	110.320	0.210	-0.570	0.310
2020/01/31 15:27:51.2	110.290	0.210	-0.530	0.310
2020/01/31 15:27:51.3	110.270	0.210	-0.500	0.320
2020/01/31 15:27:51.4	110.240	0.210	-0.460	0.320
2020/01/31 15:27:51.5	110.210	0.210	-0.420	0.330
2020/01/31 15:27:51.6	110.180	0.210	-0.390	0.330
2020/01/31 15:27:51.7	110.160	0.210	-0.350	0.340
2020/01/31 15:27:51.8	110.130	0.200	-0.310	0.350
2020/01/31 15:27:51.9	110.110	0.200	-0.270	0.350
2020/01/31 15:27:52.0	110.090	0.190	-0.240	0.360
2020/01/31 15:27:52.1	110.070	0.180	-0.200	0.360
2020/01/31 15:27:52.2	110.050	0.170	-0.160	0.370
2020/01/31 15:27:52.3	110.030	0.160	-0.120	0.370
2020/01/31 15:27:52.4	110.020	0.150	-0.080	0.370
2020/01/31 15:27:52.5	110.000	0.130	-0.030	0.370
2020/01/31 15:27:52.6	109.980	0.110	0.010	0.370
2020/01/31 15:27:52.7	109.970	0.090	0.060	0.370
2020/01/31 15:27:52.8	109.960	0.070	0.100	0.360
2020/01/31 15:27:52.9	109.950	0.050	0.150	0.350
2020/01/31 15:27:53.0	109.940	0.030	0.190	0.340
2020/01/31 15:27:53.1	109.930	-0.000	0.240	0.330
2020/01/31 15:27:53.2	109.920	-0.030	0.290	0.310
2020/01/31 15:27:53.3	109.920	-0.050	0.330	0.290
2020/01/31 15:27:53.4	109.920	-0.080	0.380	0.270
2020/01/31 15:27:53.5	109.920	-0.110	0.420	0.250
2020/01/31 15:27:53.6	109.910	-0.140	0.470	0.230
2020/01/31 15:27:53.7	109.910	-0.170	0.510	0.200
2020/01/31 15:27:53.8	109.910	-0.200	0.550	0.180
2020/01/31 15:27:53.9	109.910	-0.230	0.580	0.150
2020/01/31 15:27:54.0	109.910	-0.260	0.620	0.120
2020/01/31 15:27:54.1	109.920	-0.290	0.650	0.090
2020/01/31 15:27:54.2	109.920	-0.310	0.670	0.060
2020/01/31 15:27:54.3	109.920	-0.340	0.700	0.030
2020/01/31 15:27:54.4	109.930	-0.360	0.710	0.000
2020/01/31 15:27:54.5	109.930	-0.380	0.720	-0.020
2020/01/31 15:27:54.6	109.940	-0.400	0.730	-0.050
2020/01/31 15:27:54.7	109.950	-0.420	0.730	-0.070
2020/01/31 15:27:54.8	109.950	-0.430	0.730	-0.100
2020/01/31 15:27:54.9	109.960	-0.440	0.710	-0.120
2020/01/31 15:27:55.0	109.960	-0.440	0.700	-0.140
2020/01/31 15:27:55.1	109.970	-0.450	0.670	-0.160
2020/01/31 15:27:55.2	109.970	-0.450	0.640	-0.180
2020/01/31 15:27:55.3	109.980	-0.440	0.600	-0.200
2020/01/31 15:27:55.4	109.990	-0.430	0.560	-0.210
2020/01/31 15:27:55.5	109.990	-0.420	0.510	-0.220
2020/01/31 15:27:55.6	109.990	-0.410	0.450	-0.220
2020/01/31 15:27:55.7	110.000	-0.390	0.390	-0.230
2020/01/31 15:27:55.8	110.000	-0.370	0.320	-0.230
2020/01/31 15:27:55.9	110.010	-0.340	0.250	-0.230
2020/01/31 15:27:56.0	110.010	-0.320	0.180	-0.230
2020/01/31 15:27:56.1	110.020	-0.280	0.110	-0.220
2020/01/31 15:27:56.2	110.020	-0.250	0.040	-0.220
2020/01/31 15:27:56.3	110.020	-0.220	-0.040	-0.210
2020/01/31 15:27:56.4	110.020	-0.180	-0.120	-0.200
2020/01/31 15:27:56.5	110.030	-0.140	-0.190	-0.190
2020/01/31 15:27:56.6	110.040	-0.100	-0.270	-0.170
2020/01/31 15:27:56.7	110.040	-0.060	-0.340	-0.150
2020/01/31 15:27:56.8	110.050	-0.020	-0.410	-0.140
2020/01/31 15:27:56.9	110.050	0.020	-0.480	-0.120
2020/01/31 15:27:57.0	110.050	0.060	-0.540	-0.100
2020/01/31 15:27:57.1	110.050	0.100	-0.600	-0.090
2020/01/31 15:27:57.2	110.060	0.150	-0.650	-0.070
2020/01/31 15:27:57.3	110.060	0.190	-0.700	-0.050
2020/01/31 15:27:57.4	110.060	0.220	-0.740	-0.020
2020/01/31 15:27:57.5	110.060	0.260	-0.780	0.000
2020/01/31 15:27:57.6	110.070	0.300	-0.810	0.030
2020/01/31 15:27:57.7	110.070	0.330	-0.830	0.050
2020/01/31 15:27:57.8	110.070	0.360	-0.850	0.080
2020/01/31 15:27:57.9	110.080	0.390	-0.860	0.110
2020/01/31 15:27:58.0	110.080	0.420	-0.870	0.140
2020/01/31 15:27:58.1	110.080	0.440	-0.870	0.180
2020/01/31 15:27:58.2	110.080	0.460	-0.860	0.210
2020/01/31 15:27:58.3	110.080	0.480	-0.850	0.250
2020/01/31 15:27:58.4	110.080	0.500	-0.830	0.290
2020/01/31 15:27:58.5	110.080	0.510	-0.810	0.330
2020/01/31 15:27:58.6	110.080	0.520	-0.790	0.380
2020/01/31 15:27:58.7	110.070	0.530	-0.760	0.430
2020/01/31 15:27:58.8	110.070	0.540	-0.720	0.480
2020/01/31 15:27:58.9	110.070	0.540	-0.690	0.530
2020/01/31 15:27:59.0	110.070	0.540	-0.650	0.590
2020/01/31 15:27:59.1	110.060	0.530	-0.620	0.640
2020/01/31 15:27:59.2	110.060	0.530	-0.580	0.700
2020/01/31 15:27:59.3	110.050	0.520	-0.540	0.760
2020/01/31 15:27:59.4	110.050	0.510	-0.500	0.820
2020/01/31 15:27:59.5	110.040	0.500	-0.460	0.880
2020/01/31 15:27:59.6	110.020	0.480	-0.420	0.940
2020/01/31 15:27:59.7	110.010	0.470	-0.380	1.010
2020/01/31 15:27:59.8	110.000	0.450	-0.350	1.070
2020/01/31 15:27:59.9	109.990	0.430	-0.310	1.130
2020/01/31 15:28:00.0	109.980	0.410	-0.280	1.190
2020/01/31 15:28:00.1	109.970	0.390	-0.260	1.250
2020/01/31 15:28:00.2	109.960	0.370	-0.230	1.310
2020/01/31 15:28:00.3	109.950	0.340	-0.210	1.370
2020/01/31 15:28:00.4	109.940	0.320	-0.190	1.420
2020/01/31 15:28:00.5	109.930	0.300	-0.170	1.480
2020/01/31 15:28:00.6	109.930	0.270	-0.160	1.540
2020/01/31 15:28:00.7	109.910	0.250	-0.150	1.590
2020/01/31 15:28:00.8	109.900	0.220	-0.140	1.630
2020/01/31 15:28:00.9	109.890	0.200	-0.130	1.680
2020/01/31 15:28:01.0	109.880	0.170	-0.120	1.720
2020/01/31 15:28:01.1	109.860	0.150	-0.120	1.770
2020/01/31 15:28:01.2	109.850	0.130	-0.120	1.800
2020/01/31 15:28:01.3	109.840	0.100	-0.120	1.840
2020/01/31 15:28:01.4	109.820	0.080	-0.120	1.880
2020/01/31 15:28:01.5	109.810	0.060	-0.110	1.910
2020/01/31 15:28:01.6	109.810	0.040	-0.110	1.940
2020/01/31 15:28:01.7	109.800	0.020	-0.110	1.970
2020/01/31 15:28:01.8	109.780	-0.000	-0.110	1.990
2020/01/31 15:28:01.9	109.770	-0.020	-0.110	2.010
2020/01/31 15:28:02.0	109.750	-0.040	-0.100	2.030
2020/01/31 15:28:02.1	109.730	-0.060	-0.100	2.040
2020/01/31 15:28:02.2	109.720	-0.080	-0.090	2.060
2020/01/31 15:28:02.3	109.700	-0.090	-0.080	2.070
2020/01/31 15:28:02.4	109.680	-0.110	-0.080	2.070
2020/01/31 15:28:02.5	109.670	-0.120	-0.070	2.070
2020/01/31 15:28:02.6	109.650	-0.140	-0.060	2.080
2020/01/31 15:28:02.7	109.630	-0.150	-0.050	2.070
2020/01/31 15:28:02.8	109.610	-0.160	-0.040	2.060
2020/01/31 15:28:02.9	109.590	-0.180	-0.030	2.050
2020/01/31 15:28:03.0	109.570	-0.190	-0.020	2.030
2020/01/31 15:28:03.1	109.550	-0.200	-0.000	2.010
2020/01/31 15:28:03.2	109.540	-0.220	0.000	1.990
2020/01/31 15:28:03.3	109.520	-0.230	0.010	1.960
2020/01/31 15:28:03.4	109.500	-0.240	0.020	1.930
2020/01/31 15:28:03.5	109.480	-0.250	0.030	1.890
2020/01/31 15:28:03.6	109.480	-0.260	0.040	1.850
2020/01/31 15:28:03.7	109.460	-0.270	0.040	1.810
2020/01/31 15:28:03.8	109.440	-0.280	0.040	1.760
2020/01/31 15:28:03.9	109.430	-0.290	0.040	1.710
2020/01/31 15:28:04.0	109.420	-0.300	0.040	1.650
2020/01/31 15:28:04.1	109.400	-0.310	0.030	1.600
2020/01/31 15:28:04.2	109.390	-0.320	0.030	1.540
2020/01/31 15:28:04.3	109.380	-0.330	0.020	1.480
2020/01/31 15:28:04.4	109.370	-0.330	0.010	1.410
2020/01/31 15:28:04.5	109.370	-0.340	-0.010	1.350
2020/01/31 15:28:04.6	109.360	-0.340	-0.020	1.280
2020/01/31 15:28:04.7	109.360	-0.350	-0.040	1.210
2020/01/31 15:28:04.8	109.360	-0.350	-0.060	1.130
2020/01/31 15:28:04.9	109.360	-0.350	-0.090	1.060
2020/01/31 15:28:05.0	109.360	-0.350	-0.110	0.980
2020/01/31 15:28:05.1	109.360	-0.350	-0.140	0.910
2020/01/31 15:28:05.2	109.370	-0.350	-0.160	0.830
2020/01/31 15:28:05.3	109.370	-0.350	-0.190	0.750
2020/01/31 15:28:05.4	109.380	-0.340	-0.230	0.670
2020/01/31 15:28:05.5	109.390	-0.340	-0.260	0.590
2020/01/31 15:28:05.6	109.410	-0.330	-0.290	0.510
2020/01/31 15:28:05.7	109.420	-0.320	-0.320	0.430
2020/01/31 15:28:05.8	109.430	-0.310	-0.350	0.360
2020/01/31 15:28:05.9	109.450	-0.290	-0.390	0.280
2020/01/31 15:28:06.0	109.460	-0.280	-0.420	0.200
2020/01/31 15:28:06.1	109.480	-0.270	-0.450	0.130
2020/01/31 15:28:06.2	109.490	-0.250	-0.480	0.050
2020/01/31 15:28:06.3	109.510	-0.230	-0.510	-0.020
2020/01/31 15:28:06.4	109.530	-0.210	-0.530	-0.090
2020/01/31 15:28:06.5	109.540	-0.190	-0.550	-0.160
2020/01/31 15:28:06.6	109.560	-0.170	-0.570	-0.220
2020/01/31 15:28:06.7	109.570	-0.150	-0.590	-0.290
2020/01/31 15:28:06.8	109.590	-0.130	-0.600	-0.350
2020/01/31 15:28:06.9	109.610	-0.110	-0.610	-0.410
2020/01/31 15:28:07.0	109.620	-0.090	-0.620	-0.460
2020/01/31 15:28:07.1	109.640	-0.070	-0.620	-0.510
2020/01/31 15:28:07.2	109.650	-0.050	-0.620	-0.560
2020/01/31 15:28:07.3	109.670	-0.030	-0.620	-0.610
2020/01/31 15:28:07.4	109.680	-0.010	-0.610	-0.660
2020/01/31 15:28:07.5	109.690	0.010	-0.590	-0.700
2020/01/31 15:28:07.6	109.700	0.030	-0.570	-0.730
2020/01/31 15:28:07.7	109.710	0.040	-0.550	-0.770
2020/01/31 15:28:07.8	109.720	0.050	-0.520	-0.800
2020/01/31 15:28:07.9	109.730	0.070	-0.490	-0.830
2020/01/31 15:28:08.0	109.740	0.080	-0.460	-0.860
2020/01/31 15:28:08.1	109.750	0.080	-0.420	-0.880
2020/01/31 15:28:08.2	109.760	0.090	-0.380	-0.900
2020/01/31 15:28:08.3	109.770	0.100	-0.330	-0.920
2020/01/31 15:28:08.4	109.770	0.100	-0.280	-0.930
2020/01/31 15:28:08.5	109.780	0.100	-0.230	-0.940
2020/01/31 15:28:08.6	109.780	0.100	-0.180	-0.950
2020/01/31 15:28:08.7	109.780	0.100	-0.130	-0.960
2020/01/31 15:28:08.8	109.790	0.090	-0.070	-0.960
2020/01/31 15:28:08.9	109.790	0.090	-0.020	-0.960
2020/01/31 15:28:09.0	109.790	0.080	0.040	-0.950
2020/01/31 15:28:09.1	109.790	0.070	0.090	-0.950
2020/01/31 15:28:09.2	109.790	0.070	0.150	-0.930
2020/01/31 15:28:09.3	109.790	0.060	0.200	-0.920
2020/01/31 15:28:09.4	109.790	0.040	0.250	-0.900
2020/01/31 15:28:09.5	109.790	0.030	0.300	-0.880
2020/01/31 15:28:09.6	109.780	0.020	0.350	-0.850
2020/01/31 15:28:09.7	109.780	0.010	0.400	-0.830
2020/01/31 15:28:09.8	109.780	-0.010	0.440	-0.800
2020/01/31 15:28:09.9	109.780	-0.020	0.480	-0.770
2020/01/31 15:28:10.0	109.770	-0.030	0.510	-0.730
2020/01/31 15:28:10.1	109.770	-0.040	0.540	-0.700
2020/01/31 15:28:10.2	109.770	-0.060	0.560	-0.660
2020/01/31 15:28:10.3	109.760	-0.070	0.580	-0.620
2020/01/31 15:28:10.4	109.760	-0.080	0.600	-0.580
2020/01/31 15:28:10.5	109.750	-0.090	0.610	-0.540
2020/01/31 15:28:10.6	109.740	-0.100	0.620	-0.490
2020/01/31 15:28:10.7	109.740	-0.110	0.620	-0.450
2020/01/31 15:28:10.8	109.730	-0.110	0.610	-0.400
2020/01/31 15:28:10.9	109.720	-0.120	0.600	-0.350
2020/01/31 15:28:11.0	109.720	-0.120	0.580	-0.300
2020/01/31 15:28:11.1	109.710	-0.120	0.560	-0.250
2020/01/31 15:28:11.2	109.700	-0.120	0.540	-0.200
2020/01/31 15:28:11.3	109.690	-0.110	0.500	-0.150
2020/01/31 15:28:11.4	109.690	-0.110	0.460	-0.090
2020/01/31 15:28:11.5	109.680	-0.100	0.420	-0.040
2020/01/31 15:28:11.6	109.660	-0.090	0.370	0.020
2020/01/31 15:28:11.7	109.650	-0.080	0.320	0.080
2020/01/31 15:28:11.8	109.640	-0.060	0.260	0.140
2020/01/31 15:28:11.9	109.630	-0.050	0.200	0.190
2020/01/31 15:28:12.0	109.620	-0.030	0.130	0.250
2020/01/31 15:28:12.1	109.610	-0.010	0.060	0.310
2020/01/31 15:28:12.2	109.600	0.010	-0.010	0.370
2020/01/31 15:28:12.3	109.590	0.040	-0.090	0.420
2020/01/31 15:28:12.4	109.590	0.060	-0.160	0.480
2020/01/31 15:28:12.5	109.580	0.090	-0.240	0.540
2020/01/31 15:28:12.6	109.580	0.110	-0.320	0.590
2020/01/31 15:28:12.7	109.570	0.140	-0.400	0.650
2020/01/31 15:28:12.8	109.570	0.170	-0.470	0.710
2020/01/31 15:28:12.9	109.570	0.190	-0.550	0.760
2020/01/31 15:28:13.0	109.570	0.220	-0.620	0.810
2020/01/31 15:28:13.1	109.570	0.240	-0.690	0.870
2020/01/31 15:28:13.2	109.570	0.270	-0.750	0.920
2020/01/31 15:28:13.3	109.570	0.290	-0.820	0.980
2020/01/31 15:28:13.4	109.580	0.310	-0.870	1.030
2020/01/31 15:28:13.5	109.580	0.330	-0.930	1.080
2020/01/31 15:28:13.6	109.580	0.350	-0.970	1.140
2020/01/31 15:28:13.7	109.590	0.370	-1.010	1.190
2020/01/31 15:28:13.8	109.600	0.380	-1.050	1.240
2020/01/31 15:28:13.9	109.600	0.390	-1.080	1.300
2020/01/31 15:28:14.0	109.610	0.400	-1.100	1.350
2020/01/31 15:28:14.1	109.620	0.410	-1.110	1.400
2020/01/31 15:28:14.2	109.630	0.410	-1.120	1.450
2020/01/31 15:28:14.3	109.640	0.410	-1.120	1.500
2020/01/31 15:28:14.4	109.650	0.410	-1.110	1.550
2020/01/31 15:28:14.5	109.660	0.400	-1.100	1.590
2020/01/31 15:28:14.6	109.660	0.390	-1.080	1.640
2020/01/31 15:28:14.7	109.670	0.380	-1.050	1.690
2020/01/31 15:28:14.8	109.670	0.370	-1.010	1.720
2020/01/31 15:28:14.9	109.680	0.350	-0.980	1.760
2020/01/31 15:28:15.0	109.680	0.340	-0.930	1.800
2020/01/31 15:28:15.1	109.690	0.320	-0.880	1.830
2020/01/31 15:28:15.2	109.690	0.300	-0.830	1.860
2020/01/31 15:28:15.3	109.700	0.270	-0.770	1.880
2020/01/31 15:28:15.4	109.700	0.250	-0.720	1.910
2020/01/31 15:28:15.5	109.700	0.230	-0.650	1.920
2020/01/31 15:28:15.6	109.700	0.200	-0.590	1.940
2020/01/31 15:28:15.7	109.710	0.170	-0.520	1.950
2020/01/31 15:28:15.8	109.710	0.150	-0.460	1.960
2020/01/31 15:28:15.9	109.710	0.120	-0.390	1.960
2020/01/31 15:28:16.0	109.710	0.090	-0.320	1.960
2020/01/31 15:28:16.1	109.720	0.070	-0.260	1.960
2020/01/31 15:28:16.2	109.720	0.040	-0.190	1.960
2020/01/31 15:28:16.3	109.720	0.020	-0.130	1.950
2020/01/31 15:28:16.4	109.720	-0.010	-0.070	1.940
2020/01/31 15:28:16.5	109.720	-0.030	-0.010	1.920
2020/01/31 15:28:16.6	109.730	-0.060	0.050	1.910
2020/01/31 15:28:16.7	109.730	-0.080	0.100	1.890
2020/01/31 15:28:16.8	109.730	-0.100	0.150	1.870
2020/01/31 15:28:16.9	109.730	-0.120	0.190	1.840
2020/01/31 15:28:17.0	109.730	-0.130	0.230	1.820
2020/01/31 15:28:17.1	109.730	-0.150	0.270	1.800
2020/01/31 15:28:17.2	109.730	-0.160	0.300	1.770
2020/01/31 15:28:17.3	109.730	-0.170	0.330	1.740
2020/01/31 15:28:17.4	109.720	-0.180	0.350	1.710
2020/01/31 15:28:17.5	109.720	-0.190	0.370	1.690
2020/01/31 15:28:17.6	109.710	-0.200	0.390	1.660
2020/01/31 15:28:17.7	109.700	-0.200	0.400	1.630
2020/01/31 15:28:17.8	109.700	-0.210	0.400	1.600
2020/01/31 15:28:17.9	109.690	-0.210	0.410	1.570
2020/01/31 15:28:18.0	109.680	-0.210	0.400	1.540
2020/01/31 15:28:18.1	109.670	-0.210	0.400	1.510
2020/01/31 15:28:18.2	109.660	-0.210	0.390	1.470
2020/01/31 15:28:18.3	109.650	-0.200	0.370	1.440
2020/01/31 15:28:18.4	109.640	-0.200	0.360	1.400
2020/01/31 15:28:18.5	109.630	-0.200	0.340	1.370
2020/01/31 15:28:18.6	109.630	-0.190	0.320	1.330
2020/01/31 15:28:18.7	109.620	-0.180	0.290	1.290
2020/01/31 15:28:18.8	109.610	-0.180	0.270	1.250
2020/01/31 15:28:18.9	109.600	-0.170	0.240	1.210
2020/01/31 15:28:19.0	109.590	-0.160	0.210	1.160
2020/01/31 15:28:19.1	109.580	-0.160	0.180	1.120
2020/01/31 15:28:19.2	109.580	-0.150	0.140	1.070
2020/01/31 15:28:19.3	109.570	-0.140	0.110	1.020
2020/01/31 15:28:19.4	109.570	-0.140	0.070	0.970
2020/01/31 15:28:19.5	109.560	-0.130	0.040	0.920
2020/01/31 15:28:19.6	109.570	-0.120	0.010	0.880
2020/01/31 15:28:19.7	109.570	-0.120	-0.030	0.820
2020/01/31 15:28:19.8	109.570	-0.110	-0.060	0.770
2020/01/31 15:28:19.9	109.570	-0.110	-0.100	0.710
2020/01/31 15:28:20.0	109.570	-0.100	-0.130	0.660
2020/01/31 15:28:20.1	109.570	-0.100	-0.160	0.600
2020/01/31 15:28:20.2	109.580	-0.090	-0.190	0.550
2020/01/31 15:28:20.3	109.580	-0.090	-0.210	0.490
2020/01/31 15:28:20.4	109.580	-0.090	-0.240	0.430
2020/01/31 15:28:20.5	109.590	-0.080	-0.260	0.380
2020/01/31 15:28:20.6	109.600	-0.080	-0.280	0.320
2020/01/31 15:28:20.7	109.610	-0.080	-0.300	0.260
2020/01/31 15:28:20.8	109.610	-0.080	-0.310	0.210
2020/01/31 15:28:20.9	109.620	-0.070	-0.330	0.150
2020/01/31 15:28:21.0	109.620	-0.070	-0.340	0.100
2020/01/31 15:28:21.1	109.630	-0.070	-0.350	0.050
2020/01/31 15:28:21.2	109.630	-0.070	-0.350	-0.000
2020/01/31 15:28:21.3	109.640	-0.060	-0.350	-0.050
2020/01/31 15:28:21.4	109.640	-0.060	-0.350	-0.100
2020/01/31 15:28:21.5	109.650	-0.060	-0.350	-0.140
2020/01/31 15:28:21.6	109.650	-0.060	-0.350	-0.180
2020/01/31 15:28:21.7	109.660	-0.050	-0.340	-0.220
2020/01/31 15:28:21.8	109.660	-0.050	-0.330	-0.260
2020/01/31 15:28:21.9	109.670	-0.050	-0.320	-0.290
2020/01/31 15:28:22.0	109.680	-0.040	-0.300	-0.330
2020/01/31 15:28:22.1	109.690	-0.040	-0.290	-0.360
2020/01/31 15:28:22.2	109.700	-0.040	-0.270	-0.390
2020/01/31 15:28:22.3	109.710	-0.030	-0.250	-0.420
2020/01/31 15:28:22.4	109.720	-0.030	-0.230	-0.450
2020/01/31 15:28:22.5	109.730	-0.030	-0.210	-0.470
2020/01/31 15:28:22.6	109.740	-0.030	-0.190	-0.490
2020/01/31 15:28:22.7	109.760	-0.020	-0.170	-0.510
2020/01/31 15:28:22.8	109.770	-0.020	-0.150	-0.530
2020/01/31 15:28:22.9	109.780	-0.020	-0.140	-0.540
2020/01/31 15:28:23.0	109.790	-0.010	-0.120	-0.550
2020/01/31 15:28:23.1	109.790	-0.010	-0.100	-0.550
2020/01/31 15:28:23.2	109.800	-0.010	-0.090	-0.550
2020/01/31 15:28:23.3	109.810	-0.010	-0.080	-0.550
2020/01/31 15:28:23.4	109.810	-0.000	-0.070	-0.540
2020/01/31 15:28:23.5	109.810	0.000	-0.070	-0.530
2020/01/31 15:28:23.6	109.800	0.010	-0.070	-0.520
2020/01/31 15:28:23.7	109.800	0.010	-0.070	-0.500
2020/01/31 15:28:23.8	109.790	0.020	-0.070	-0.480
2020/01/31 15:28:23.9	109.790	0.020	-0.080	-0.450
2020/01/31 15:28:24.0	109.770	0.030	-0.090	-0.420
2020/01/31 15:28:24.1	109.760	0.030	-0.110	-0.390
2020/01/31 15:28:24.2	109.750	0.040	-0.130	-0.350
2020/01/31 15:28:24.3	109.730	0.050	-0.150	-0.310
2020/01/31 15:28:24.4	109.710	0.060	-0.170	-0.270
2020/01/31 15:28:24.5	109.690	0.070	-0.200	-0.230
2020/01/31 15:28:24.6	109.660	0.070	-0.220	-0.180
2020/01/31 15:28:24.7	109.640	0.080	-0.260	-0.130
2020/01/31 15:28:24.8	109.620	0.090	-0.290	-0.090
2020/01/31 15:28:24.9	109.590	0.100	-0.320	-0.040
2020/01/31 15:28:25.0	109.570	0.110	-0.350	0.010
2020/01/31 15:28:25.1	109.540	0.120	-0.390	0.060
2020/01/31 15:28:25.2	109.520	0.130	-0.420	0.110
2020/01/31 15:28:25.3	109.500	0.140	-0.450	0.160
2020/01/31 15:28:25.4	109.470	0.150	-0.480	0.210
2020/01/31 15:28:25.5	109.450	0.160	-0.510	0.260
2020/01/31 15:28:25.6	109.420	0.170	-0.540	0.320
2020/01/31 15:28:25.7	109.400	0.180	-0.560	0.360
2020/01/31 15:28:25.8	109.380	0.190	-0.580	0.410
2020/01/31 15:28:25.9	109.370	0.200	-0.600	0.460
2020/01/31 15:28:26.0	109.350	0.200	-0.620	0.510
2020/01/31 15:28:26.1	109.340	0.210	-0.640	0.560
2020/01/31 15:28:26.2	109.320	0.210	-0.650	0.600
2020/01/31 15:28:26.3	109.310	0.210	-0.650	0.650
2020/01/31 15:28:26.4	109.300	0.210	-0.660	0.700
2020/01/31 15:28:26.5	109.290	0.210	-0.660	0.740
2020/01/31 15:28:26.6	109.290	0.210	-0.650	0.790
2020/01/31 15:28:26.7	109.290	0.210	-0.640	0.840
2020/01/31 15:28:26.8	109.280	0.210	-0.630	0.890
2020/01/31 15:28:26.9	109.280	0.200	-0.610	0.930
2020/01/31 15:28:27.0	109.280	0.190	-0.590	0.980
2020/01/31 15:28:27.1	109.280	0.180	-0.560	1.020
2020/01/31 15:28:27.2	109.280	0.170	-0.530	1.070
2020/01/31 15:28:27.3	109.290	0.160	-0.500	1.120
2020/01/31 15:28:27.4	109.290	0.140	-0.460	1.160
2020/01/31 15:28:27.5	109.290	0.130	-0.420	1.200
2020/01/31 15:28:27.6	109.300	0.110	-0.370	1.250
2020/01/31 15:28:27.7	109.300	0.090	-0.320	1.300
2020/01/31 15:28:27.8	109.300	0.070	-0.270	1.340
2020/01/31 15:28:27.9	109.310	0.050	-0.210	1.380
2020/01/31 15:28:28.0	109.310	0.020	-0.150	1.420
2020/01/31 15:28:28.1	109.310	0.000	-0.090	1.460
2020/01/31 15:28:28.2	109.320	-0.030	-0.030	1.500
2020/01/31 15:28:28.3	109.320	-0.050	0.030	1.530
2020/01/31 15:28:28.4	109.330	-0.080	0.090	1.560
2020/01/31 15:28:28.5	109.330	-0.110	0.160	1.590
2020/01/31 15:28:28.6	109.340	-0.130	0.220	1.620
2020/01/31 15:28:28.7	109.340	-0.160	0.280	1.650
2020/01/31 15:28:28.8	109.350	-0.190	0.340	1.670
2020/01/31 15:28:28.9	109.350	-0.210	0.390	1.690
2020/01/31 15:28:29.0	109.360	-0.240	0.450	1.710
2020/01/31 15:28:29.1	109.360	-0.260	0.500	1.720
2020/01/31 15:28:29.2	109.370	-0.280	0.540	1.730
2020/01/31 15:28:29.3	109.370	-0.300	0.580	1.730
2020/01/31 15:28:29.4	109.380	-0.320	0.620	1.730
2020/01/31 15:28:29.5	109.380	-0.330	0.650	1.730
2020/01/31 15:28:29.6	109.380	-0.350	0.670	1.720
2020/01/31 15:28:29.7	109.390	-0.360	0.690	1.710
2020/01/31 15:28:29.8	109.400	-0.360	0.700	1.690
2020/01/31 15:28:29.9	109.400	-0.370	0.700	1.670
2020/01/31 15:28:30.0	109.410	-0.370	0.690	1.640
2020/01/31 15:28:30.1	109.420	-0.370	0.670	1.610
2020/01/31 15:28:30.2	109.430	-0.360	0.650	1.580
2020/01/31 15:28:30.3	109.430	-0.350	0.620	1.540
2020/01/31 15:28:30.4	109.440	-0.340	0.590	1.500
2020/01/31 15:28:30.5	109.450	-0.320	0.540	1.450
2020/01/31 15:28:30.6	109.470	-0.300	0.490	1.410
2020/01/31 15:28:30.7	109.470	-0.280	0.430	1.360
2020/01/31 15:28:30.8	109.480	-0.250	0.370	1.310
2020/01/31 15:28:30.9	109.480	-0.220	0.300	1.250
2020/01/31 15:28:31.0	109.490	-0.190	0.230	1.200
2020/01/31 15:28:31.1	109.490	-0.160	0.150	1.150
2020/01/31 15:28:31.2	109.490	-0.120	0.070	1.090
2020/01/31 15:28:31.3	109.490	-0.080	-0.020	1.040
2020/01/31 15:28:31.4	109.500	-0.040	-0.100	0.980
2020/01/31 15:28:31.5	109.500	-0.000	-0.190	0.930
2020/01/31 15:28:31.6	109.500	0.040	-0.280	0.870
2020/01/31 15:28:31.7	109.500	0.080	-0.370	0.820
2020/01/31 15:28:31.8	109.500	0.120	-0.450	0.770
2020/01/31 15:28:31.9	109.500	0.170	-0.540	0.710
2020/01/31 15:28:32.0	109.500	0.210	-0.620	0.660
2020/01/31 15:28:32.1	109.500	0.250	-0.700	0.620
2020/01/31 15:28:32.2	109.500	0.290	-0.780	0.570
2020/01/31 15:28:32.3	109.510	0.330	-0.850	0.520
2020/01/31 15:28:32.4	109.510	0.360	-0.910	0.480
2020/01/31 15:28:32.5	109.510	0.400	-0.970	0.440
2020/01/31 15:28:32.6	109.510	0.430	-1.030	0.400
2020/01/31 15:28:32.7	109.510	0.460	-1.070	0.370
2020/01/31 15:28:32.8	109.510	0.480	-1.110	0.330
2020/01/31 15:28:32.9	109.520	0.500	-1.140	0.300
2020/01/31 15:28:33.0	109.520	0.520	-1.170	0.270
2020/01/31 15:28:33.1	109.520	0.540	-1.180	0.250
2020/01/31 15:28:33.2	109.520	0.550	-1.190	0.220
2020/01/31 15:28:33.3	109.530	0.550	-1.190	0.200
2020/01/31 15:28:33.4	109.530	0.550	-1.180	0.180
2020/01/31 15:28:33.5	109.530	0.550	-1.160	0.160
2020/01/31 15:28:33.6	109.520	0.550	-1.130	0.150
2020/01/31 15:28:33.7	109.520	0.540	-1.100	0.140
2020/01/31 15:28:33.8	109.520	0.520	-1.050	0.120
2020/01/31 15:28:33.9	109.530	0.510	-1.010	0.110
2020/01/31 15:28:34.0	109.530	0.490	-0.950	0.100
2020/01/31 15:28:34.1	109.530	0.460	-0.890	0.100
2020/01/31 15:28:34.2	109.530	0.430	-0.820	0.090
2020/01/31 15:28:34.3	109.530	0.400	-0.740	0.080
2020/01/31 15:28:34.4	109.530	0.370	-0.660	0.070
2020/01/31 15:28:34.5	109.530	0.330	-0.580	0.070
2020/01/31 15:28:34.6	109.540	0.290	-0.490	0.060
2020/01/31 15:28:34.7	109.540	0.250	-0.400	0.050
2020/01/31 15:28:34.8	109.540	0.200	-0.310	0.050
2020/01/31 15:28:34.9	109.550	0.160	-0.210	0.040
2020/01/31 15:28:35.0	109.550	0.110	-0.120	0.030
2020/01/31 15:28:35.1	109.560	0.070	-0.030	0.020
2020/01/31 15:28:35.2	109.570	0.020	0.060	0.010
2020/01/31 15:28:35.3	109.570	-0.030	0.150	0.000
2020/01/31 15:28:35.4	109.580	-0.080	0.240	-0.000
2020/01/31 15:28:35.5	109.590	-0.130	0.320	-0.010
2020/01/31 15:28:35.6	109.590	-0.170	0.400	-0.020
2020/01/31 15:28:35.7	109.600	-0.220	0.480	-0.020
2020/01/31 15:28:35.8	109.610	-0.260	0.540	-0.030
2020/01/31 15:28:35.9	109.620	-0.310	0.600	-0.040
2020/01/31 15:28:36.0	109.620	-0.350	0.660	-0.050
2020/01/31 15:28:36.1	109.630	-0.390	0.710	-0.050
2020/01/31 15:28:36.2	109.640	-0.420	0.740	-0.060
2020/01/31 15:28:36.3	109.650	-0.460	0.780	-0.060
2020/01/31 15:28:36.4	109.660	-0.490	0.800	-0.060
2020/01/31 15:28:36.5	109.660	-0.520	0.820	-0.070
2020/01/31 15:28:36.6	109.670	-0.540	0.830	-0.070
2020/01/31 15:28:36.7	109.670	-0.570	0.830	-0.070
2020/01/31 15:28:36.8	109.680	-0.590	0.820	-0.060
2020/01/31 15:28:36.9	109.690	-0.600	0.800	-0.060
2020/01/31 15:28:37.0	109.690	-0.610	0.780	-0.050
2020/01/31 15:28:37.1	109.700	-0.620	0.750	-0.050
2020/01/31 15:28:37.2	109.700	-0.630	0.710	-0.040
2020/01/31 15:28:37.3	109.700	-0.630	0.670	-0.030
2020/01/31 15:28:37.4	109.710	-0.630	0.620	-0.020
2020/01/31 15:28:37.5	109.710	-0.620	0.570	-0.000
2020/01/31 15:28:37.6	109.700	-0.610	0.500	0.020
2020/01/31 15:28:37.7	109.710	-0.600	0.440	0.030
2020/01/31 15:28:37.8	109.710	-0.590	0.370	0.050
2020/01/31 15:28:37.9	109.710	-0.570	0.300	0.070
2020/01/31 15:28:38.0	109.710	-0.550	0.220	0.090
2020/01/31 15:28:38.1	109.710	-0.520	0.150	0.120
2020/01/31 15:28:38.2	109.710	-0.490	0.070	0.140
2020/01/31 15:28:38.3	109.710	-0.460	-0.010	0.170
2020/01/31 15:28:38.4	109.710	-0.430	-0.090	0.200
2020/01/31 15:28:38.5	109.710	-0.400	-0.170	0.230
2020/01/31 15:28:38.6	109.710	-0.360	-0.250	0.260
2020/01/31 15:28:38.7	109.710	-0.330	-0.330	0.290
2020/01/31 15:28:38.8	109.700	-0.290	-0.410	0.330
2020/01/31 15:28:38.9	109.700	-0.250	-0.490	0.360
2020/01/31 15:28:39.0	109.690	-0.200	-0.560	0.400
2020/01/31 15:28:39.1	109.690	-0.160	-0.640	0.440
2020/01/31 15:28:39.2	109.680	-0.120	-0.700	0.480
2020/01/31 15:28:39.3	109.680	-0.080	-0.770	0.520
2020/01/31 15:28:39.4	109.670	-0.040	-0.830	0.550
2020/01/31 15:28:39.5	109.660	0.010	-0.890	0.590
2020/01/31 15:28:39.6	109.650	0.050	-0.940	0.640
2020/01/31 15:28:39.7	109.650	0.090	-0.990	0.670
2020/01/31 15:28:39.8	109.640	0.130	-1.030	0.710
2020/01/31 15:28:39.9	109.630	0.170	-1.070	0.750
2020/01/31 15:28:40.0	109.630	0.210	-1.110	0.780
2020/01/31 15:28:40.1	109.630	0.240	-1.130	0.810
2020/01/31 15:28:40.2	109.620	0.280	-1.150	0.840
2020/01/31 15:28:40.3	109.620	0.310	-1.170	0.870
2020/01/31 15:28:40.4	109.620	0.340	-1.180	0.900
2020/01/31 15:28:40.5	109.620	0.370	-1.190	0.920
2020/01/31 15:28:40.6	109.640	0.400	-1.190	0.940
2020/01/31 15:28:40.7	109.640	0.420	-1.180	0.960
2020/01/31 15:28:40.8	109.640	0.440	-1.170	0.980
2020/01/31 15:28:40.9	109.650	0.460	-1.150	1.000
2020/01/31 15:28:41.0	109.660	0.480	-1.130	1.010
2020/01/31 15:28:41.1	109.670	0.490	-1.110	1.020
2020/01/31 15:28:41.2	109.680	0.500	-1.080	1.030
2020/01/31 15:28:41.3	109.690	0.510	-1.040	1.030
2020/01/31 15:28:41.4	109.710	0.520	-1.000	1.040
2020/01/31 15:28:41.5	109.720	0.520	-0.960	1.040
2020/01/31 15:28:41.6	109.730	0.520	-0.910	1.040
2020/01/31 15:28:41.7	109.750	0.510	-0.850	1.040
2020/01/31 15:28:41.8	109.780	0.510	-0.790	1.030
2020/01/31 15:28:41.9	109.800	0.500	-0.730	1.020
2020/01/31 15:28:42.0	109.830	0.490	-0.660	1.010
2020/01/31 15:28:42.1	109.860	0.470	-0.590	1.000
2020/01/31 15:28:42.2	109.890	0.460	-0.520	0.990
2020/01/31 15:28:42.3	109.930	0.440	-0.440	0.970
2020/01/31 15:28:42.4	109.960	0.420	-0.360	0.960
2020/01/31 15:28:42.5	110.000	0.390	-0.280	0.940
2020/01/31 15:28:42.6	110.040	0.370	-0.180	0.920
2020/01/31 15:28:42.7	110.080	0.340	-0.100	0.900
2020/01/31 15:28:42.8	110.120	0.310	-0.000	0.880
2020/01/31 15:28:42.9	110.160	0.280	0.090	0.860
2020/01/31 15:28:43.0	110.200	0.240	0.180	0.840
2020/01/31 15:28:43.1	110.240	0.210	0.280	0.820
2020/01/31 15:28:43.2	110.280	0.180	0.370	0.790
2020/01/31 15:28:43.3	110.320	0.140	0.460	0.770
2020/01/31 15:28:43.4	110.360	0.110	0.550	0.750
2020/01/31 15:28:43.5	110.390	0.070	0.640	0.730
2020/01/31 15:28:43.6	110.430	0.030	0.730	0.710
2020/01/31 15:28:43.7	110.460	-0.000	0.810	0.690
2020/01/31 15:28:43.8	110.490	-0.040	0.890	0.670
2020/01/31 15:28:43.9	110.520	-0.070	0.960	0.660
2020/01/31 15:28:44.0	110.550	-0.110	1.030	0.650
2020/01/31 15:28:44.1	110.570	-0.140	1.090	0.630
2020/01/31 15:28:44.2	110.600	-0.170	1.150	0.620
2020/01/31 15:28:44.3	110.620	-0.200	1.190	0.610
2020/01/31 15:28:44.4	110.630	-0.230	1.230	0.610
2020/01/31 15:28:44.5	110.650	-0.260	1.260	0.600
2020/01/31 15:28:44.6	110.660	-0.280	1.290	0.600
2020/01/31 15:28:44.7	110.670	-0.300	1.300	0.600
2020/01/31 15:28:44.8	110.670	-0.320	1.310	0.600
2020/01/31 15:28:44.9	110.680	-0.340	1.300	0.610
2020/01/31 15:28:45.0	110.680	-0.360	1.290	0.610
2020/01/31 15:28:45.1	110.680	-0.370	1.270	0.620
2020/01/31 15:28:45.2	110.680	-0.380	1.230	0.630
2020/01/31 15:28:45.3	110.680	-0.380	1.190	0.640
2020/01/31 15:28:45.4	110.670	-0.390	1.140	0.650
2020/01/31 15:28:45.5	110.660	-0.390	1.070	0.660
2020/01/31 15:28:45.6	110.660	-0.390	1.000	0.670
2020/01/31 15:28:45.7	110.650	-0.380	0.920	0.690
2020/01/31 15:28:45.8	110.630	-0.370	0.830	0.710
2020/01/31 15:28:45.9	110.620	-0.360	0.730	0.720
2020/01/31 15:28:46.0	110.600	-0.350	0.630	0.740
2020/01/31 15:28:46.1	110.580	-0.330	0.520	0.760
2020/01/31 15:28:46.2	110.560	-0.310	0.400	0.780
2020/01/31 15:28:46.3	110.540	-0.290	0.270	0.800
2020/01/31 15:28:46.4	110.510	-0.260	0.140	0.820
2020/01/31 15:28:46.5	110.490	-0.230	0.010	0.840
2020/01/31 15:28:46.6	110.460	-0.210	-0.130	0.860
2020/01/31 15:28:46.7	110.440	-0.180	-0.270	0.890
2020/01/31 15:28:46.8	110.400	-0.140	-0.410	0.910
2020/01/31 15:28:46.9	110.370	-0.110	-0.550	0.940
2020/01/31 15:28:47.0	110.340	-0.080	-0.690	0.960
2020/01/31 15:28:47.1	110.310	-0.040	-0.830	0.990
2020/01/31 15:28:47.2	110.280	-0.010	-0.970	1.010
2020/01/31 15:28:47.3	110.240	0.030	-1.100	1.040
2020/01/31 15:28:47.4	110.210	0.070	-1.230	1.060
2020/01/31 15:28:47.5	110.170	0.100	-1.360	1.090
2020/01/31 15:28:47.6	110.140	0.130	-1.480	1.110
2020/01/31 15:28:47.7	110.110	0.170	-1.590	1.130
2020/01/31 15:28:47.8	110.080	0.200	-1.690	1.150
2020/01/31 15:28:47.9	110.050	0.230	-1.790	1.180
2020/01/31 15:28:48.0	110.020	0.260	-1.870	1.190
2020/01/31 15:28:48.1	109.990	0.290	-1.940	1.210
2020/01/31 15:28:48.2	109.970	0.310	-2.000	1.230
2020/01/31 15:28:48.3	109.950	0.330	-2.050	1.240
2020/01/31 15:28:48.4	109.930	0.350	-2.090	1.250
2020/01/31 15:28:48.5	109.910	0.360	-2.110	1.250
2020/01/31 15:28:48.6	109.890	0.380	-2.120	1.260
2020/01/31 15:28:48.7	109.890	0.380	-2.120	1.260
2020/01/31 15:28:48.8	109.880	0.390	-2.100	1.260
2020/01/31 15:28:48.9	109.880	0.390	-2.070	1.260
2020/01/31 15:28:49.0	109.890	0.390	-2.020	1.250
2020/01/31 15:28:49.1	109.900	0.380	-1.960	1.250
2020/01/31 15:28:49.2	109.910	0.370	-1.890	1.230
2020/01/31 15:28:49.3	109.930	0.360	-1.800	1.220
2020/01/31 15:28:49.4	109.950	0.340	-1.710	1.210
2020/01/31 15:28:49.5	109.980	0.310	-1.600	1.190
2020/01/31 15:28:49.6	110.020	0.290	-1.470	1.180
2020/01/31 15:28:49.7	110.050	0.260	-1.340	1.160
2020/01/31 15:28:49.8	110.080	0.230	-1.210	1.140
2020/01/31 15:28:49.9	110.120	0.190	-1.060	1.110
2020/01/31 15:28:50.0	110.160	0.150	-0.910	1.090
2020/01/31 15:28:50.1	110.200	0.110	-0.750	1.060
2020/01/31 15:28:50.2	110.250	0.070	-0.590	1.040
2020/01/31 15:28:50.3	110.290	0.020	-0.420	1.010
2020/01/31 15:28:50.4	110.340	-0.030	-0.260	0.980
2020/01/31 15:28:50.5	110.380	-0.070	-0.090	0.960
2020/01/31 15:28:50.6	110.430	-0.120	0.080	0.930
2020/01/31 15:28:50.7	110.480	-0.170	0.240	0.910
2020/01/31 15:28:50.8	110.530	-0.220	0.410	0.880
2020/01/31 15:28:50.9	110.570	-0.270	0.560	0.850
2020/01/31 15:28:51.0	110.610	-0.320	0.720	0.820
2020/01/31 15:28:51.1	110.660	-0.370	0.860	0.800
2020/01/31 15:28:51.2	110.700	-0.410	1.000	0.770
2020/01/31 15:28:51.3	110.740	-0.460	1.130	0.740
2020/01/31 15:28:51.4	110.770	-0.500	1.250	0.720
2020/01/31 15:28:51.5	110.810	-0.540	1.360	0.690
2020/01/31 15:28:51.6	110.830	-0.570	1.460	0.670
2020/01/31 15:28:51.7	110.860	-0.600	1.540	0.650
2020/01/31 15:28:51.8	110.890	-0.630	1.610	0.630
2020/01/31 15:28:51.9	110.910	-0.650	1.670	0.600
2020/01/31 15:28:52.0	110.940	-0.660	1.720	0.580
2020/01/31 15:28:52.1	110.950	-0.670	1.750	0.560
2020/01/31 15:28:52.2	110.970	-0.680	1.770	0.530
2020/01/31 15:28:52.3	110.980	-0.680	1.770	0.510
2020/01/31 15:28:52.4	111.000	-0.670	1.760	0.490
2020/01/31 15:28:52.5	111.000	-0.660	1.740	0.470
2020/01/31 15:28:52.6	111.010	-0.640	1.700	0.440
2020/01/31 15:28:52.7	111.010	-0.620	1.650	0.410
2020/01/31 15:28:52.8	111.010	-0.590	1.580	0.390
2020/01/31 15:28:52.9	111.010	-0.560	1.500	0.370
2020/01/31 15:28:53.0	111.000	-0.520	1.410	0.340
2020/01/31 15:28:53.1	111.000	-0.470	1.300	0.320
2020/01/31 15:28:53.2	110.990	-0.430	1.190	0.290
2020/01/31 15:28:53.3	110.980	-0.370	1.070	0.270
2020/01/31 15:28:53.4	110.960	-0.320	0.930	0.250
2020/01/31 15:28:53.5	110.940	-0.260	0.790	0.230
2020/01/31 15:28:53.6	110.940	-0.200	0.650	0.210
2020/01/31 15:28:53.7	110.920	-0.130	0.500	0.190
2020/01/31 15:28:53.8	110.890	-0.070	0.340	0.180
2020/01/31 15:28:53.9	110.870	0.000	0.180	0.160
2020/01/31 15:28:54.0	110.840	0.070	0.020	0.150
2020/01/31 15:28:54.1	110.820	0.140	-0.140	0.130
2020/01/31 15:28:54.2	110.790	0.200	-0.300	0.120
2020/01/31 15:28:54.3	110.770	0.270	-0.450	0.110
2020/01/31 15:28:54.4	110.740	0.330	-0.610	0.100
2020/01/31 15:28:54.5	110.720	0.390	-0.760	0.090
2020/01/31 15:28:54.6	110.720	0.450	-0.900	0.080
2020/01/31 15:28:54.7	110.700	0.510	-1.040	0.070
2020/01/31 15:28:54.8	110.670	0.560	-1.170	0.070
2020/01/31 15:28:54.9	110.650	0.610	-1.300	0.060
2020/01/31 15:28:55.0	110.640	0.660	-1.410	0.060
2020/01/31 15:28:55.1	110.620	0.700	-1.510	0.060
2020/01/31 15:28:55.2	110.610	0.730	-1.600	0.050
2020/01/31 15:28:55.3	110.600	0.770	-1.680	0.060
2020/01/31 15:28:55.4	110.590	0.790	-1.750	0.060
2020/01/31 15:28:55.5	110.580	0.810	-1.800	0.060
2020/01/31 15:28:55.6	110.590	0.830	-1.850	0.070
2020/01/31 15:28:55.7	110.590	0.830	-1.880	0.070
2020/01/31 15:28:55.8	110.590	0.840	-1.890	0.080
2020/01/31 15:28:55.9	110.590	0.840	-1.890	0.090
2020/01/31 15:28:56.0	110.600	0.830	-1.890	0.090
2020/01/31 15:28:56.1	110.610	0.820	-1.860	0.100
2020/01/31 15:28:56.2	110.620	0.800	-1.830	0.120
2020/01/31 15:28:56.3	110.630	0.780	-1.780	0.130
2020/01/31 15:28:56.4	110.640	0.750	-1.730	0.140
2020/01/31 15:28:56.5	110.660	0.720	-1.660	0.150
2020/01/31 15:28:56.6	110.680	0.690	-1.570	0.170
2020/01/31 15:28:56.7	110.700	0.650	-1.490	0.180
2020/01/31 15:28:56.8	110.730	0.610	-1.390	0.200
2020/01/31 15:28:56.9	110.750	0.560	-1.290	0.210
2020/01/31 15:28:57.0	110.770	0.520	-1.180	0.230
2020/01/31 15:28:57.1	110.800	0.470	-1.060	0.250
2020/01/31 15:28:57.2	110.830	0.420	-0.940	0.260
2020/01/31 15:28:57.3	110.860	0.360	-0.820	0.280
2020/01/31 15:28:57.4	110.890	0.310	-0.690	0.300
2020/01/31 15:28:57.5	110.920	0.250	-0.560	0.320
2020/01/31 15:28:57.6	110.950	0.200	-0.430	0.350
2020/01/31 15:28:57.7	110.980	0.140	-0.300	0.370
2020/01/31 15:28:57.8	111.010	0.090	-0.170	0.390
2020/01/31 15:28:57.9	111.030	0.030	-0.050	0.410
2020/01/31 15:28:58.0	111.060	-0.020	0.070	0.440
2020/01/31 15:28:58.1	111.090	-0.070	0.190	0.460
2020/01/31 15:28:58.2	111.110	-0.130	0.310	0.490
2020/01/31 15:28:58.3	111.140	-0.180	0.410	0.510
2020/01/31 15:28:58.4	111.160	-0.220	0.510	0.530
2020/01/31 15:28:58.5	111.180	-0.270	0.610	0.560
2020/01/31 15:28:58.6	111.200	-0.310	0.700	0.590
2020/01/31 15:28:58.7	111.220	-0.360	0.780	0.610
2020/01/31 15:28:58.8	111.240	-0.390	0.850	0.640
2020/01/31 15:28:58.9	111.260	-0.430	0.920	0.660
2020/01/31 15:28:59.0	111.270	-0.460	0.970	0.680
2020/01/31 15:28:59.1	111.290	-0.490	1.020	0.710
2020/01/31 15:28:59.2	111.300	-0.520	1.060	0.730
2020/01/31 15:28:59.3	111.320	-0.540	1.090	0.750
2020/01/31 15:28:59.4	111.330	-0.560	1.110	0.770
2020/01/31 15:28:59.5	111.340	-0.580	1.120	0.800
2020/01/31 15:28:59.6	111.340	-0.600	1.120	0.820
2020/01/31 15:28:59.7	111.350	-0.610	1.110	0.840
2020/01/31 15:28:59.8	111.360	-0.620	1.100	0.860
2020/01/31 15:28:59.9	111.360	-0.620	1.070	0.880
2020/01/31 15:29:00.0	111.370	-0.620	1.040	0.900
2020/01/31 15:29:00.1	111.370	-0.620	1.010	0.920
2020/01/31 15:29:00.2	111.370	-0.620	0.960	0.930
2020/01/31 15:29:00.3	111.380	-0.610	0.910	0.950
2020/01/31 15:29:00.4	111.380	-0.600	0.860	0.960
2020/01/31 15:29:00.5	111.380	-0.590	0.800	0.970
2020/01/31 15:29:00.6	111.390	-0.570	0.730	0.980
2020/01/31 15:29:00.7	111.390	-0.560	0.660	0.990
2020/01/31 15:29:00.8	111.400	-0.540	0.590	0.990
2020/01/31 15:29:00.9	111.400	-0.520	0.510	1.000
2020/01/31 15:29:01.0	111.410	-0.500	0.440	1.000
2020/01/31 15:29:01.1	111.410	-0.470	0.360	1.000
2020/01/31 15:29:01.2	111.420	-0.450	0.270	1.000
2020/01/31 15:29:01.3	111.430	-0.420	0.190	0.990
2020/01/31 15:29:01.4	111.440	-0.400	0.110	0.990
2020/01/31 15:29:01.5	111.450	-0.370	0.030	0.980
2020/01/31 15:29:01.6	111.460	-0.340	-0.060	0.970
2020/01/31 15:29:01.7	111.480	-0.310	-0.140	0.960
2020/01/31 15:29:01.8	111.490	-0.280	-0.220	0.950
2020/01/31 15:29:01.9	111.510	-0.250	-0.300	0.940
2020/01/31 15:29:02.0	111.520	-0.220	-0.380	0.930
2020/01/31 15:29:02.1	111.540	-0.190	-0.450	0.920
2020/01/31 15:29:02.2	111.560	-0.160	-0.520	0.910
2020/01/31 15:29:02.3	111.580	-0.130	-0.590	0.900
2020/01/31 15:29:02.4	111.590	-0.100	-0.660	0.890
2020/01/31 15:29:02.5	111.610	-0.080	-0.720	0.870
2020/01/31 15:29:02.6	111.620	-0.050	-0.780	0.870
2020/01/31 15:29:02.7	111.640	-0.020	-0.830	0.860
2020/01/31 15:29:02.8	111.660	0.010	-0.880	0.850
2020/01/31 15:29:02.9	111.680	0.030	-0.920	0.840
2020/01/31 15:29:03.0	111.700	0.060	-0.960	0.840
2020/01/31 15:29:03.1	111.720	0.090	-0.990	0.830
2020/01/31 15:29:03.2	111.740	0.110	-1.020	0.830
2020/01/31 15:29:03.3	111.750	0.130	-1.040	0.820
2020/01/31 15:29:03.4	111.770	0.160	-1.060	0.820
2020/01/31 15:29:03.5	111.780	0.180	-1.070	0.820
2020/01/31 15:29:03.6	111.800	0.200	-1.080	0.820
2020/01/31 15:29:03.7	111.810	0.220	-1.080	0.820
2020/01/31 15:29:03.8	111.820	0.230	-1.080	0.820
2020/01/31 15:29:03.9	111.830	0.250	-1.070	0.810
2020/01/31 15:29:04.0	111.840	0.270	-1.060	0.810
2020/01/31 15:29:04.1	111.850	0.280	-1.040	0.810
2020/01/31 15:29:04.2	111.860	0.290	-1.020	0.810
2020/01/31 15:29:04.3	111.870	0.300	-0.990	0.800
2020/01/31 15:29:04.4	111.870	0.310	-0.960	0.800
2020/01/31 15:29:04.5	111.880	0.320	-0.930	0.790
2020/01/31 15:29:04.6	111.880	0.320	-0.890	0.790
2020/01/31 15:29:04.7	111.890	0.330	-0.850	0.780
2020/01/31 15:29:04.8	111.890	0.330	-0.810	0.770
2020/01/31 15:29:04.9	111.900	0.330	-0.760	0.760
2020/01/31 15:29:05.0	111.900	0.330	-0.710	0.740
2020/01/31 15:29:05.1	111.900	0.330	-0.660	0.730
2020/01/31 15:29:05.2	111.910	0.320	-0.610	0.700
2020/01/31 15:29:05.3	111.910	0.320	-0.550	0.680
2020/01/31 15:29:05.4	111.920	0.310	-0.490	0.660
2020/01/31 15:29:05.5	111.920	0.300	-0.440	0.630
2020/01/31 15:29:05.6	111.930	0.290	-0.380	0.600
2020/01/31 15:29:05.7	111.940	0.280	-0.320	0.570
2020/01/31 15:29:05.8	111.950	0.270	-0.260	0.540
2020/01/31 15:29:05.9	111.960	0.260	-0.200	0.510
2020/01/31 15:29:06.0	111.970	0.240	-0.140	0.470
2020/01/31 15:29:06.1	111.980	0.230	-0.080	0.430
2020/01/31 15:29:06.2	111.990	0.220	-0.030	0.400
2020/01/31 15:29:06.3	112.000	0.200	0.030	0.360
2020/01/31 15:29:06.4	112.010	0.190	0.080	0.320
2020/01/31 15:29:06.5	112.020	0.170	0.130	0.280
2020/01/31 15:29:06.6	112.030	0.160	0.190	0.240
2020/01/31 15:29:06.7	112.040	0.140	0.230	0.210
2020/01/31 15:29:06.8	112.050	0.130	0.280	0.180
2020/01/31 15:29:06.9	112.060	0.110	0.320	0.140
2020/01/31 15:29:07.0	112.080	0.100	0.360	0.110
2020/01/31 15:29:07.1	112.090	0.080	0.400	0.080
2020/01/31 15:29:07.2	112.100	0.070	0.430	0.060
2020/01/31 15:29:07.3	112.110	0.050	0.460	0.030
2020/01/31 15:29:07.4	112.120	0.040	0.490	0.010
2020/01/31 15:29:07.5	112.140	0.030	0.510	-0.010
2020/01/31 15:29:07.6	112.150	0.020	0.530	-0.020
2020/01/31 15:29:07.7	112.160	0.000	0.550	-0.040
2020/01/31 15:29:07.8	112.170	-0.010	0.560	-0.050
2020/01/31 15:29:07.9	112.190	-0.020	0.570	-0.060
2020/01/31 15:29:08.0	112.200	-0.030	0.580	-0.070
2020/01/31 15:29:08.1	112.210	-0.030	0.580	-0.080
2020/01/31 15:29:08.2	112.220	-0.040	0.570	-0.090
2020/01/31 15:29:08.3	112.230	-0.050	0.570	-0.090
2020/01/31 15:29:08.4	112.230	-0.050	0.550	-0.090
2020/01/31 15:29:08.5	112.240	-0.050	0.540	-0.090
2020/01/31 15:29:08.6	112.240	-0.060	0.510	-0.090
2020/01/31 15:29:08.7	112.250	-0.060	0.490	-0.090
2020/01/31 15:29:08.8	112.250	-0.060	0.450	-0.090
2020/01/31 15:29:08.9	112.250	-0.050	0.420	-0.080
2020/01/31 15:29:09.0	112.260	-0.050	0.370	-0.080
2020/01/31 15:29:09.1	112.260	-0.040	0.330	-0.070
2020/01/31 15:29:09.2	112.260	-0.040	0.280	-0.060
2020/01/31 15:29:09.3	112.260	-0.030	0.220	-0.050
2020/01/31 15:29:09.4	112.260	-0.020	0.160	-0.040
2020/01/31 15:29:09.5	112.260	-0.000	0.090	-0.030
2020/01/31 15:29:09.6	112.250	0.010	0.030	-0.010
2020/01/31 15:29:09.7	112.250	0.030	-0.040	0.000
2020/01/31 15:29:09.8	112.250	0.040	-0.120	0.020
2020/01/31 15:29:09.9	112.250	0.060	-0.190	0.030
2020/01/31 15:29:10.0	112.250	0.080	-0.260	0.050
2020/01/31 15:29:10.1	112.250	0.100	-0.340	0.070
2020/01/31 15:29:10.2	112.250	0.120	-0.410	0.080
2020/01/31 15:29:10.3	112.250	0.140	-0.490	0.100
2020/01/31 15:29:10.4	112.260	0.160	-0.560	0.120
2020/01/31 15:29:10.5	112.260	0.170	-0.630	0.140
2020/01/31 15:29:10.6	112.270	0.190	-0.700	0.160
2020/01/31 15:29:10.7	112.280	0.210	-0.760	0.190
2020/01/31 15:29:10.8	112.290	0.230	-0.820	0.210
2020/01/31 15:29:10.9	112.300	0.250	-0.870	0.230
2020/01/31 15:29:11.0	112.310	0.260	-0.920	0.260
2020/01/31 15:29:11.1	112.320	0.270	-0.960	0.280
2020/01/31 15:29:11.2	112.330	0.280	-1.000	0.310
2020/01/31 15:29:11.3	112.340	0.290	-1.020	0.340
2020/01/31 15:29:11.4	112.360	0.300	-1.040	0.370
2020/01/31 15:29:11.5	112.370	0.300	-1.060	0.390
2020/01/31 15:29:11.6	112.390	0.300	-1.060	0.430
2020/01/31 15:29:11.7	112.410	0.300	-1.060	0.460
2020/01/31 15:29:11.8	112.430	0.300	-1.050	0.490
2020/01/31 15:29:11.9	112.450	0.290	-1.030	0.520
2020/01/31 15:29:12.0	112.470	0.280	-1.000	0.550
2020/01/31 15:29:12.1	112.490	0.260	-0.960	0.590
2020/01/31 15:29:12.2	112.510	0.250	-0.920	0.620
2020/01/31 15:29:12.3	112.530	0.220	-0.870	0.650
2020/01/31 15:29:12.4	112.550	0.200	-0.810	0.690
2020/01/31 15:29:12.5	112.580	0.170	-0.750	0.720
2020/01/31 15:29:12.6	112.600	0.140	-0.680	0.760
2020/01/31 15:29:12.7	112.620	0.110	-0.600	0.800
2020/01/31 15:29:12.8	112.640	0.080	-0.520	0.830
2020/01/31 15:29:12.9	112.670	0.040	-0.440	0.870
2020/01/31 15:29:13.0	112.690	0.000	-0.360	0.900
2020/01/31 15:29:13.1	112.720	-0.040	-0.270	0.930
2020/01/31 15:29:13.2	112.740	-0.080	-0.190	0.970
2020/01/31 15:29:13.3	112.760	-0.120	-0.100	1.000
2020/01/31 15:29:13.4	112.780	-0.160	-0.020	1.030
2020/01/31 15:29:13.5	112.800	-0.200	0.070	1.070
2020/01/31 15:29:13.6	112.820	-0.240	0.150	1.100
2020/01/31 15:29:13.7	112.840	-0.280	0.230	1.140
2020/01/31 15:29:13.8	112.850	-0.320	0.300	1.170
2020/01/31 15:29:13.9	112.870	-0.360	0.370	1.200
2020/01/31 15:29:14.0	112.880	-0.400	0.440	1.240
2020/01/31 15:29:14.1	112.890	-0.430	0.500	1.270
2020/01/31 15:29:14.2	112.890	-0.460	0.550	1.300
2020/01/31 15:29:14.3	112.900	-0.490	0.600	1.340
2020/01/31 15:29:14.4	112.900	-0.520	0.640	1.370
2020/01/31 15:29:14.5	112.900	-0.540	0.670	1.410
2020/01/31 15:29:14.6	112.900	-0.560	0.700	1.440
2020/01/31 15:29:14.7	112.900	-0.580	0.710	1.480
2020/01/31 15:29:14.8	112.890	-0.590	0.720	1.510
2020/01/31 15:29:14.9	112.880	-0.600	0.730	1.540
2020/01/31 15:29:15.0	112.870	-0.600	0.720	1.580
2020/01/31 15:29:15.1	112.860	-0.600	0.710	1.610
2020/01/31 15:29:15.2	112.840	-0.600	0.690	1.640
2020/01/31 15:29:15.3	112.830	-0.600	0.660	1.670
2020/01/31 15:29:15.4	112.810	-0.590	0.630	1.700
2020/01/31 15:29:15.5	112.790	-0.570	0.590	1.730
2020/01/31 15:29:15.6	112.760	-0.560	0.540	1.750
2020/01/31 15:29:15.7	112.740	-0.540	0.490	1.780
2020/01/31 15:29:15.8	112.720	-0.510	0.430	1.800
2020/01/31 15:29:15.9	112.700	-0.490	0.370	1.820
2020/01/31 15:29:16.0	112.670	-0.460	0.300	1.840
2020/01/31 15:29:16.1	112.650	-0.430	0.240	1.850
2020/01/31 15:29:16.2	112.630	-0.390	0.160	1.870
2020/01/31 15:29:16.3	112.610	-0.360	0.090	1.880
2020/01/31 15:29:16.4	112.580	-0.320	0.010	1.890
2020/01/31 15:29:16.5	112.560	-0.280	-0.060	1.890
2020/01/31 15:29:16.6	112.530	-0.240	-0.140	1.890
2020/01/31 15:29:16.7	112.510	-0.200	-0.220	1.890
2020/01/31 15:29:16.8	112.490	-0.160	-0.290	1.890
2020/01/31 15:29:16.9	112.470	-0.120	-0.370	1.880
2020/01/31 15:29:17.0	112.460	-0.070	-0.440	1.870
2020/01/31 15:29:17.1	112.440	-0.030	-0.510	1.860
2020/01/31 15:29:17.2	112.430	0.010	-0.570	1.840
2020/01/31 15:29:17.3	112.420	0.050	-0.640	1.820
2020/01/31 15:29:17.4	112.410	0.100	-0.690	1.800
2020/01/31 15:29:17.5	112.400	0.140	-0.750	1.770
2020/01/31 15:29:17.6	112.410	0.180	-0.800	1.740
2020/01/31 15:29:17.7	112.400	0.210	-0.840	1.710
2020/01/31 15:29:17.8	112.400	0.250	-0.880	1.670
2020/01/31 15:29:17.9	112.390	0.280	-0.910	1.630
2020/01/31 15:29:18.0	112.390	0.320	-0.930	1.590
2020/01/31 15:29:18.1	112.380	0.350	-0.950	1.540
2020/01/31 15:29:18.2	112.380	0.380	-0.970	1.490
2020/01/31 15:29:18.3	112.380	0.400	-0.980	1.440
2020/01/31 15:29:18.4	112.370	0.430	-0.980	1.390
2020/01/31 15:29:18.5	112.370	0.450	-0.970	1.330
2020/01/31 15:29:18.6	112.380	0.470	-0.970	1.270
2020/01/31 15:29:18.7	112.370	0.480	-0.950	1.210
2020/01/31 15:29:18.8	112.370	0.500	-0.930	1.150
2020/01/31 15:29:18.9	112.370	0.510	-0.910	1.090
2020/01/31 15:29:19.0	112.370	0.510	-0.880	1.020
2020/01/31 15:29:19.1	112.360	0.520	-0.840	0.950
2020/01/31 15:29:19.2	112.360	0.520	-0.810	0.880
2020/01/31 15:29:19.3	112.360	0.520	-0.770	0.810
2020/01/31 15:29:19.4	112.360	0.520	-0.720	0.740
2020/01/31 15:29:19.5	112.360	0.510	-0.670	0.670
2020/01/31 15:29:19.6	112.370	0.510	-0.620	0.600
2020/01/31 15:29:19.7	112.380	0.490	-0.570	0.530
2020/01/31 15:29:19.8	112.380	0.480	-0.520	0.460
2020/01/31 15:29:19.9	112.390	0.470	-0.470	0.390
2020/01/31 15:29:20.0	112.400	0.450	-0.410	0.320
2020/01/31 15:29:20.1	112.410	0.430	-0.360	0.250
2020/01/31 15:29:20.2	112.420	0.410	-0.300	0.180
2020/01/31 15:29:20.3	112.430	0.390	-0.250	0.120
2020/01/31 15:29:20.4	112.450	0.370	-0.200	0.060
2020/01/31 15:29:20.5	112.470	0.350	-0.150	-0.010
2020/01/31 15:29:20.6	112.490	0.330	-0.100	-0.060
2020/01/31 15:29:20.7	112.510	0.310	-0.050	-0.120
2020/01/31 15:29:20.8	112.530	0.280	-0.010	-0.170
2020/01/31 15:29:20.9	112.550	0.260	0.030	-0.220
2020/01/31 15:29:21.0	112.570	0.240	0.070	-0.270
2020/01/31 15:29:21.1	112.600	0.210	0.110	-0.310
2020/01/31 15:29:21.2	112.620	0.190	0.140	-0.340
2020/01/31 15:29:21.3	112.640	0.170	0.170	-0.380
2020/01/31 15:29:21.4	112.670	0.150	0.190	-0.410
2020/01/31 15:29:21.5	112.690	0.130	0.210	-0.430
2020/01/31 15:29:21.6	112.690	0.110	0.230	-0.450
2020/01/31 15:29:21.7	112.710	0.090	0.240	-0.460
2020/01/31 15:29:21.8	112.720	0.080	0.250	-0.480
2020/01/31 15:29:21.9	112.740	0.060	0.260	-0.490
2020/01/31 15:29:22.0	112.750	0.040	0.260	-0.490
2020/01/31 15:29:22.1	112.770	0.030	0.260	-0.490
2020/01/31 15:29:22.2	112.780	0.020	0.260	-0.490
2020/01/31 15:29:22.3	112.780	0.000	0.260	-0.480
2020/01/31 15:29:22.4	112.790	-0.010	0.260	-0.480
2020/01/31 15:29:22.5	112.790	-0.020	0.250	-0.460
2020/01/31 15:29:22.6	112.800	-0.030	0.250	-0.450
2020/01/31 15:29:22.7	112.800	-0.040	0.240	-0.430
2020/01/31 15:29:22.8	112.790	-0.050	0.230	-0.410
2020/01/31 15:29:22.9	112.790	-0.060	0.220	-0.390
2020/01/31 15:29:23.0	112.780	-0.070	0.220	-0.360
2020/01/31 15:29:23.1	112.760	-0.080	0.210	-0.340
2020/01/31 15:29:23.2	112.750	-0.090	0.200	-0.310
2020/01/31 15:29:23.3	112.730	-0.110	0.200	-0.280
2020/01/31 15:29:23.4	112.710	-0.120	0.200	-0.240
2020/01/31 15:29:23.5	112.690	-0.130	0.200	-0.200
2020/01/31 15:29:23.6	112.680	-0.140	0.200	-0.160
2020/01/31 15:29:23.7	112.650	-0.160	0.200	-0.120
2020/01/31 15:29:23.8	112.630	-0.170	0.200	-0.080
2020/01/31 15:29:23.9	112.610	-0.180	0.210	-0.040
2020/01/31 15:29:24.0	112.580	-0.190	0.210	0.010
2020/01/31 15:29:24.1	112.560	-0.210	0.220	0.060
2020/01/31 15:29:24.2	112.530	-0.220	0.220	0.100
2020/01/31 15:29:24.3	112.510	-0.230	0.230	0.160
2020/01/31 15:29:24.4	112.490	-0.250	0.230	0.210
2020/01/31 15:29:24.5	112.460	-0.260	0.240	0.260
2020/01/31 15:29:24.6	112.450	-0.270	0.240	0.310
2020/01/31 15:29:24.7	112.430	-0.280	0.240	0.370
2020/01/31 15:29:24.8	112.410	-0.280	0.230	0.420
2020/01/31 15:29:24.9	112.400	-0.290	0.230	0.470
2020/01/31 15:29:25.0	112.380	-0.290	0.230	0.520
2020/01/31 15:29:25.1	112.360	-0.290	0.220	0.570
2020/01/31 15:29:25.2	112.350	-0.290	0.200	0.630
2020/01/31 15:29:25.3	112.340	-0.290	0.190	0.680
2020/01/31 15:29:25.4	112.330	-0.280	0.170	0.730
2020/01/31 15:29:25.5	112.320	-0.280	0.140	0.780
2020/01/31 15:29:25.6	112.300	-0.270	0.120	0.830
2020/01/31 15:29:25.7	112.290	-0.250	0.090	0.870
2020/01/31 15:29:25.8	112.280	-0.230	0.050	0.920
2020/01/31 15:29:25.9	112.280	-0.220	0.010	0.970
2020/01/31 15:29:26.0	112.270	-0.190	-0.040	1.010
2020/01/31 15:29:26.1	112.270	-0.170	-0.090	1.060
2020/01/31 15:29:26.2	112.270	-0.140	-0.140	1.100
2020/01/31 15:29:26.3	112.260	-0.110	-0.200	1.140
2020/01/31 15:29:26.4	112.260	-0.080	-0.260	1.180
2020/01/31 15:29:26.5	112.260	-0.050	-0.320	1.220
2020/01/31 15:29:26.6	112.260	-0.010	-0.390	1.260
2020/01/31 15:29:26.7	112.260	0.020	-0.450	1.290
2020/01/31 15:29:26.8	112.270	0.060	-0.520	1.320
2020/01/31 15:29:26.9	112.270	0.100	-0.590	1.350
2020/01/31 15:29:27.0	112.280	0.130	-0.660	1.380
2020/01/31 15:29:27.1	112.290	0.170	-0.730	1.400
2020/01/31 15:29:27.2	112.300	0.210	-0.800	1.420
2020/01/31 15:29:27.3	112.310	0.240	-0.860	1.440
2020/01/31 15:29:27.4	112.330	0.280	-0.920	1.450
2020/01/31 15:29:27.5	112.340	0.310	-0.980	1.470
2020/01/31 15:29:27.6	112.360	0.340	-1.040	1.480
2020/01/31 15:29:27.7	112.380	0.370	-1.080	1.480
2020/01/31 15:29:27.8	112.400	0.400	-1.130	1.490
2020/01/31 15:29:27.9	112.420	0.420	-1.160	1.490
2020/01/31 15:29:28.0	112.440	0.440	-1.200	1.490
2020/01/31 15:29:28.1	112.460	0.450	-1.220	1.490
2020/01/31 15:29:28.2	112.480	0.460	-1.240	1.490
2020/01/31 15:29:28.3	112.500	0.470	-1.250	1.490
2020/01/31 15:29:28.4	112.520	0.480	-1.250	1.480
2020/01/31 15:29:28.5	112.530	0.470	-1.240	1.480
2020/01/31 15:29:28.6	112.550	0.470	-1.230	1.480
2020/01/31 15:29:28.7	112.560	0.460	-1.210	1.480
2020/01/31 15:29:28.8	112.580	0.450	-1.180	1.480
2020/01/31 15:29:28.9	112.590	0.430	-1.140	1.470
2020/01/31 15:29:29.0	112.600	0.410	-1.090	1.470
2020/01/31 15:29:29.1	112.600	0.380	-1.040	1.470
2020/01/31 15:29:29.2	112.610	0.350	-0.980	1.470
2020/01/31 15:29:29.3	112.610	0.320	-0.920	1.470
2020/01/31 15:29:29.4	112.620	0.290	-0.850	1.460
2020/01/31 15:29:29.5	112.610	0.250	-0.770	1.460
2020/01/31 15:29:29.6	112.610	0.210	-0.680	1.460
2020/01/31 15:29:29.7	112.600	0.160	-0.600	1.460
2020/01/31 15:29:29.8	112.600	0.120	-0.510	1.460
2020/01/31 15:29:29.9	112.590	0.070	-0.420	1.460
2020/01/31 15:29:30.0	112.570	0.030	-0.330	1.460
2020/01/31 15:29:30.1	112.560	-0.020	-0.230	1.460
2020/01/31 15:29:30.2	112.550	-0.070	-0.140	1.450
2020/01/31 15:29:30.3	112.530	-0.120	-0.040	1.450
2020/01/31 15:29:30.4	112.510	-0.170	0.050	1.440
2020/01/31 15:29:30.5	112.490	-0.210	0.140	1.440
2020/01/31 15:29:30.6	112.480	-0.260	0.240	1.430
2020/01/31 15:29:30.7	112.460	-0.310	0.320	1.420
2020/01/31 15:29:30.8	112.440	-0.350	0.410	1.410
2020/01/31 15:29:30.9	112.420	-0.390	0.480	1.400
2020/01/31 15:29:31.0	112.400	-0.430	0.560	1.390
2020/01/31 15:29:31.1	112.370	-0.470	0.630	1.370
2020/01/31 15:29:31.2	112.350	-0.510	0.690	1.350
2020/01/31 15:29:31.3	112.330	-0.540	0.750	1.330
2020/01/31 15:29:31.4	112.310	-0.570	0.800	1.310
2020/01/31 15:29:31.5	112.300	-0.600	0.840	1.290
2020/01/31 15:29:31.6	112.280	-0.620	0.880	1.260
2020/01/31 15:29:31.7	112.260	-0.640	0.910	1.230
2020/01/31 15:29:31.8	112.250	-0.650	0.930	1.200
2020/01/31 15:29:31.9	112.230	-0.670	0.940	1.160
2020/01/31 15:29:32.0	112.220	-0.670	0.950	1.130
2020/01/31 15:29:32.1	112.200	-0.680	0.940	1.090
2020/01/31 15:29:32.2	112.190	-0.680	0.940	1.050
2020/01/31 15:29:32.3	112.180	-0.670	0.920	1.010
2020/01/31 15:29:32.4	112.170	-0.670	0.890	0.970
2020/01/31 15:29:32.5	112.160	-0.650	0.860	0.920
2020/01/31 15:29:32.6	112.150	-0.640	0.820	0.870
2020/01/31 15:29:32.7	112.140	-0.620	0.770	0.830
2020/01/31 15:29:32.8	112.140	-0.600	0.720	0.780
2020/01/31 15:29:32.9	112.130	-0.570	0.660	0.730
2020/01/31 15:29:33.0	112.130	-0.550	0.600	0.680
2020/01/31 15:29:33.1	112.120	-0.510	0.530	0.630
2020/01/31 15:29:33.2	112.120	-0.480	0.450	0.570
2020/01/31 15:29:33.3	112.120	-0.440	0.370	0.520
2020/01/31 15:29:33.4	112.120	-0.410	0.290	0.460
2020/01/31 15:29:33.5	112.130	-0.370	0.210	0.410
2020/01/31 15:29:33.6	112.130	-0.330	0.120	0.350
2020/01/31 15:29:33.7	112.130	-0.280	0.030	0.290
2020/01/31 15:29:33.8	112.140	-0.240	-0.060	0.230
2020/01/31 15:29:33.9	112.150	-0.200	-0.140	0.170
2020/01/31 15:29:34.0	112.170	-0.150	-0.230	0.100
2020/01/31 15:29:34.1	112.180	-0.110	-0.310	0.040
2020/01/31 15:29:34.2	112.200	-0.060	-0.390	-0.030
2020/01/31 15:29:34.3	112.220	-0.020	-0.470	-0.090
2020/01/31 15:29:34.4	112.240	0.020	-0.540	-0.160
2020/01/31 15:29:34.5	112.260	0.070	-0.610	-0.230
2020/01/31 15:29:34.6	112.290	0.110	-0.670	-0.290
2020/01/31 15:29:34.7	112.320	0.150	-0.730	-0.360
2020/01/31 15:29:34.8	112.350	0.180	-0.780	-0.420
2020/01/31 15:29:34.9	112.380	0.220	-0.820	-0.490
2020/01/31 15:29:35.0	112.410	0.260	-0.860	-0.550
2020/01/31 15:29:35.1	112.440	0.290	-0.890	-0.620
2020/01/31 15:29:35.2	112.470	0.320	-0.910	-0.680
2020/01/31 15:29:35.3	112.490	0.350	-0.930	-0.740
2020/01/31 15:29:35.4	112.520	0.370	-0.940	-0.790
2020/01/31 15:29:35.5	112.550	0.400	-0.940	-0.850
2020/01/31 15:29:35.6	112.590	0.420	-0.940	-0.890
2020/01/31 15:29:35.7	112.620	0.440	-0.920	-0.940
2020/01/31 15:29:35.8	112.650	0.450	-0.910	-0.990
2020/01/31 15:29:35.9	112.670	0.470	-0.880	-1.030
2020/01/31 15:29:36.0	112.700	0.480	-0.850	-1.060
2020/01/31 15:29:36.1	112.720	0.490	-0.820	-1.100
2020/01/31 15:29:36.2	112.740	0.500	-0.780	-1.130
2020/01/31 15:29:36.3	112.760	0.500	-0.740	-1.150
2020/01/31 15:29:36.4	112.780	0.500	-0.690	-1.170
2020/01/31 15:29:36.5	112.800	0.510	-0.640	-1.190
2020/01/31 15:29:36.6	112.840	0.500	-0.580	-1.200
2020/01/31 15:29:36.7	112.850	0.500	-0.530	-1.200
2020/01/31 15:29:36.8	112.860	0.500	-0.480	-1.200
2020/01/31 15:29:36.9	112.870	0.490	-0.430	-1.200
2020/01/31 15:29:37.0	112.880	0.480	-0.380	-1.190
2020/01/31 15:29:37.1	112.880	0.470	-0.330	-1.170
2020/01/31 15:29:37.2	112.880	0.460	-0.280	-1.150
2020/01/31 15:29:37.3	112.880	0.450	-0.230	-1.120
2020/01/31 15:29:37.4	112.880	0.440	-0.190	-1.090
2020/01/31 15:29:37.5	112.870	0.420	-0.140	-1.050
2020/01/31 15:29:37.6	112.870	0.400	-0.100	-1.000
2020/01/31 15:29:37.7	112.860	0.390	-0.070	-0.950
2020/01/31 15:29:37.8	112.850	0.370	-0.040	-0.890
2020/01/31 15:29:37.9	112.840	0.350	-0.010	-0.830
2020/01/31 15:29:38.0	112.820	0.330	0.020	-0.770
2020/01/31 15:29:38.1	112.810	0.310	0.040	-0.700
2020/01/31 15:29:38.2	112.790	0.290	0.060	-0.620
2020/01/31 15:29:38.3	112.770	0.270	0.070	-0.540
2020/01/31 15:29:38.4	112.750	0.250	0.090	-0.460
2020/01/31 15:29:38.5	112.740	0.220	0.090	-0.380
2020/01/31 15:29:38.6	112.710	0.200	0.100	-0.290
2020/01/31 15:29:38.7	112.690	0.180	0.100	-0.190
2020/01/31 15:29:38.8	112.680	0.160	0.100	-0.100
2020/01/31 15:29:38.9	112.660	0.130	0.100	-0.010
2020/01/31 15:29:39.0	112.640	0.110	0.100	0.090
2020/01/31 15:29:39.1	112.620	0.080	0.090	0.190
2020/01/31 15:29:39.2	112.600	0.060	0.080	0.290
2020/01/31 15:29:39.3	112.580	0.040	0.070	0.390
2020/01/31 15:29:39.4	112.570	0.020	0.050	0.490
2020/01/31 15:29:39.5	112.550	-0.010	0.040	0.580
2020/01/31 15:29:39.6	112.530	-0.030	0.020	0.690
2020/01/31 15:29:39.7	112.520	-0.050	-0.000	0.790
2020/01/31 15:29:39.8	112.500	-0.070	-0.020	0.890
2020/01/31 15:29:39.9	112.490	-0.090	-0.040	0.980
2020/01/31 15:29:40.0	112.480	-0.110	-0.060	1.080
2020/01/31 15:29:40.1	112.470	-0.120	-0.080	1.170
2020/01/31 15:29:40.2	112.460	-0.140	-0.110	1.260
2020/01/31 15:29:40.3	112.450	-0.160	-0.130	1.350
2020/01/31 15:29:40.4	112.440	-0.170	-0.150	1.440
2020/01/31 15:29:40.5	112.430	-0.180	-0.170	1.530
2020/01/31 15:29:40.6	112.420	-0.190	-0.190	1.610
2020/01/31 15:29:40.7	112.420	-0.210	-0.210	1.690
2020/01/31 15:29:40.8	112.410	-0.220	-0.230	1.770
2020/01/31 15:29:40.9	112.410	-0.220	-0.240	1.840
2020/01/31 15:29:41.0	112.410	-0.230	-0.260	1.910
2020/01/31 15:29:41.1	112.410	-0.240	-0.270	1.980
2020/01/31 15:29:41.2	112.410	-0.250	-0.280	2.040
2020/01/31 15:29:41.3	112.410	-0.250	-0.290	2.110
2020/01/31 15:29:41.4	112.420	-0.260	-0.300	2.160
2020/01/31 15:29:41.5	112.420	-0.260	-0.300	2.220
2020/01/31 15:29:41.6	112.430	-0.270	-0.300	2.280
2020/01/31 15:29:41.7	112.430	-0.270	-0.300	2.320
2020/01/31 15:29:41.8	112.440	-0.280	-0.300	2.370
2020/01/31 15:29:41.9	112.450	-0.280	-0.290	2.410
2020/01/31 15:29:42.0	112.460	-0.280	-0.280	2.440
2020/01/31 15:29:42.1	112.470	-0.280	-0.270	2.480
2020/01/31 15:29:42.2	112.480	-0.290	-0.260	2.510
2020/01/31 15:29:42.3	112.490	-0.290	-0.240	2.540
2020/01/31 15:29:42.4	112.500	-0.290	-0.230	2.560
2020/01/31 15:29:42.5	112.510	-0.290	-0.210	2.580
2020/01/31 15:29:42.6	112.510	-0.290	-0.190	2.600
2020/01/31 15:29:42.7	112.520	-0.290	-0.170	2.620
2020/01/31 15:29:42.8	112.530	-0.290	-0.150	2.630
2020/01/31 15:29:42.9	112.540	-0.290	-0.130	2.640
2020/01/31 15:29:43.0	112.550	-0.280	-0.110	2.640
2020/01/31 15:29:43.1	112.560	-0.280	-0.090	2.650
2020/01/31 15:29:43.2	112.570	-0.280	-0.080	2.650
2020/01/31 15:29:43.3	112.580	-0.270	-0.060	2.640
2020/01/31 15:29:43.4	112.580	-0.260	-0.050	2.630
2020/01/31 15:29:43.5	112.590	-0.260	-0.040	2.620
2020/01/31 15:29:43.6	112.600	-0.250	-0.030	2.610
2020/01/31 15:29:43.7	112.600	-0.240	-0.020	2.590
2020/01/31 15:29:43.8	112.600	-0.230	-0.020	2.570
2020/01/31 15:29:43.9	112.610	-0.220	-0.020	2.550
2020/01/31 15:29:44.0	112.610	-0.200	-0.030	2.520
2020/01/31 15:29:44.1	112.610	-0.190	-0.030	2.490
2020/01/31 15:29:44.2	112.600	-0.170	-0.040	2.450
2020/01/31 15:29:44.3	112.600	-0.150	-0.060	2.410
2020/01/31 15:29:44.4	112.590	-0.130	-0.070	2.370
2020/01/31 15:29:44.5	112.590	-0.110	-0.100	2.320
2020/01/31 15:29:44.6	112.590	-0.090	-0.120	2.270
2020/01/31 15:29:44.7	112.580	-0.070	-0.140	2.220
2020/01/31 15:29:44.8	112.570	-0.040	-0.170	2.160
2020/01/31 15:29:44.9	112.560	-0.020	-0.200	2.100
2020/01/31 15:29:45.0	112.550	0.010	-0.230	2.030
2020/01/31 15:29:45.1	112.540	0.030	-0.270	1.960
2020/01/31 15:29:45.2	112.530	0.060	-0.300	1.890
2020/01/31 15:29:45.3	112.510	0.090	-0.330	1.820
2020/01/31 15:29:45.4	112.500	0.110	-0.370	1.740
2020/01/31 15:29:45.5	112.490	0.140	-0.400	1.660
2020/01/31 15:29:45.6	112.480	0.170	-0.440	1.580
2020/01/31 15:29:45.7	112.460	0.190	-0.470	1.500
2020/01/31 15:29:45.8	112.450	0.220	-0.500	1.410
2020/01/31 15:29:45.9	112.430	0.250	-0.530	1.330
2020/01/31 15:29:46.0	112.420	0.270	-0.550	1.240
2020/01/31 15:29:46.1	112.400	0.290	-0.570	1.160
2020/01/31 15:29:46.2	112.390	0.310	-0.590	1.070
2020/01/31 15:29:46.3	112.370	0.330	-0.600	0.980
2020/01/31 15:29:46.4	112.360	0.350	-0.610	0.900
2020/01/31 15:29:46.5	112.350	0.360	-0.610	0.810
2020/01/31 15:29:46.6	112.340	0.370	-0.610	0.720
2020/01/31 15:29:46.7	112.330	0.390	-0.600	0.640
2020/01/31 15:29:46.8	112.320	0.390	-0.590	0.550
2020/01/31 15:29:46.9	112.310	0.400	-0.570	0.460
2020/01/31 15:29:47.0	112.310	0.400	-0.550	0.380
2020/01/31 15:29:47.1	112.300	0.400	-0.520	0.300
2020/01/31 15:29:47.2	112.300	0.400	-0.490	0.210
2020/01/31 15:29:47.3	112.290	0.390	-0.450	0.130
2020/01/31 15:29:47.4	112.290	0.380	-0.410	0.060
2020/01/31 15:29:47.5	112.290	0.370	-0.370	-0.020
2020/01/31 15:29:47.6	112.310	0.360	-0.320	-0.090
2020/01/31 15:29:47.7	112.310	0.340	-0.270	-0.160
2020/01/31 15:29:47.8	112.320	0.320	-0.220	-0.230
2020/01/31 15:29:47.9	112.320	0.300	-0.170	-0.300
2020/01/31 15:29:48.0	112.320	0.280	-0.120	-0.360
2020/01/31 15:29:48.1	112.320	0.260	-0.070	-0.430
2020/01/31 15:29:48.2	112.330	0.230	-0.020	-0.490
2020/01/31 15:29:48.3	112.330	0.200	0.020	-0.550
2020/01/31 15:29:48.4	112.340	0.180	0.070	-0.600
2020/01/31 15:29:48.5	112.350	0.150	0.110	-0.660
2020/01/31 15:29:48.6	112.350	0.120	0.160	-0.700
2020/01/31 15:29:48.7	112.350	0.090	0.190	-0.750
2020/01/31 15:29:48.8	112.360	0.060	0.230	-0.800
2020/01/31 15:29:48.9	112.370	0.030	0.250	-0.850
2020/01/31 15:29:49.0	112.380	0.000	0.280	-0.890
2020/01/31 15:29:49.1	112.380	-0.030	0.300	-0.930
2020/01/31 15:29:49.2	112.390	-0.060	0.320	-0.970
2020/01/31 15:29:49.3	112.400	-0.080	0.330	-1.010
2020/01/31 15:29:49.4	112.410	-0.110	0.340	-1.040
2020/01/31 15:29:49.5	112.420	-0.140	0.340	-1.080
2020/01/31 15:29:49.6	112.440	-0.160	0.350	-1.100
2020/01/31 15:29:49.7	112.440	-0.190	0.340	-1.130
2020/01/31 15:29:49.8	112.450	-0.210	0.340	-1.150
2020/01/31 15:29:49.9	112.460	-0.230	0.330	-1.160
2020/01/31 15:29:50.0	112.460	-0.250	0.310	-1.180
2020/01/31 15:29:50.1	112.470	-0.270	0.300	-1.190
2020/01/31 15:29:50.2	112.470	-0.290	0.280	-1.190
2020/01/31 15:29:50.3	112.480	-0.300	0.260	-1.190
2020/01/31 15:29:50.4	112.480	-0.320	0.240	-1.190
2020/01/31 15:29:50.5	112.480	-0.330	0.210	-1.180
2020/01/31 15:29:50.6	112.470	-0.350	0.180	-1.160
2020/01/31 15:29:50.7	112.470	-0.360	0.160	-1.140
2020/01/31 15:29:50.8	112.460	-0.370	0.130	-1.110
2020/01/31 15:29:50.9	112.450	-0.370	0.100	-1.080
2020/01/31 15:29:51.0	112.440	-0.380	0.070	-1.040
2020/01/31 15:29:51.1	112.430	-0.390	0.050	-0.990
2020/01/31 15:29:51.2	112.420	-0.390	0.020	-0.940
2020/01/31 15:29:51.3	112.400	-0.390	-0.010	-0.880
2020/01/31 15:29:51.4	112.380	-0.390	-0.040	-0.820
2020/01/31 15:29:51.5	112.360	-0.390	-0.060	-0.750
2020/01/31 15:29:51.6	112.340	-0.390	-0.090	-0.670
2020/01/31 15:29:51.7	112.310	-0.390	-0.110	-0.590
2020/01/31 15:29:51.8	112.290	-0.380	-0.130	-0.510
2020/01/31 15:29:51.9	112.260	-0.370	-0.150	-0.430
2020/01/31 15:29:52.0	112.230	-0.370	-0.170	-0.340
2020/01/31 15:29:52.1	112.200	-0.360	-0.190	-0.250
2020/01/31 15:29:52.2	112.180	-0.340	-0.210	-0.160
2020/01/31 15:29:52.3	112.150	-0.330	-0.220	-0.070
2020/01/31 15:29:52.4	112.120	-0.320	-0.240	0.020
2020/01/31 15:29:52.5	112.090	-0.300	-0.250	0.110
2020/01/31 15:29:52.6	112.060	-0.280	-0.260	0.200
2020/01/31 15:29:52.7	112.030	-0.260	-0.270	0.290
2020/01/31 15:29:52.8	112.010	-0.240	-0.280	0.380
2020/01/31 15:29:52.9	111.990	-0.220	-0.290	0.460
2020/01/31 15:29:53.0	111.960	-0.200	-0.300	0.540
2020/01/31 15:29:53.1	111.940	-0.180	-0.310	0.620
2020/01/31 15:29:53.2	111.930	-0.150	-0.320	0.700
2020/01/31 15:29:53.3	111.910	-0.130	-0.330	0.770
2020/01/31 15:29:53.4	111.900	-0.100	-0.340	0.840
2020/01/31 15:29:53.5	111.880	-0.070	-0.350	0.910
2020/01/31 15:29:53.6	111.870	-0.040	-0.360	0.980
2020/01/31 15:29:53.7	111.860	-0.020	-0.370	1.040
2020/01/31 15:29:53.8	111.850	0.010	-0.380	1.100
2020/01/31 15:29:53.9	111.850	0.040	-0.390	1.150
2020/01/31 15:29:54.0	111.850	0.070	-0.410	1.200
2020/01/31 15:29:54.1	111.840	0.100	-0.420	1.260
2020/01/31 15:29:54.2	111.840	0.130	-0.430	1.310
2020/01/31 15:29:54.3	111.840	0.150	-0.450	1.350
2020/01/31 15:29:54.4	111.840	0.180	-0.460	1.400
2020/01/31 15:29:54.5	111.850	0.210	-0.480	1.440
2020/01/31 15:29:54.6	111.840	0.230	-0.490	1.490
2020/01/31 15:29:54.7	111.840	0.260	-0.510	1.530
2020/01/31 15:29:54.8	111.850	0.280	-0.530	1.570
2020/01/31 15:29:54.9	111.850	0.300	-0.550	1.610
2020/01/31 15:29:55.0	111.850	0.330	-0.570	1.650
2020/01/31 15:29:55.1	111.860	0.340	-0.580	1.690
2020/01/31 15:29:55.2	111.860	0.360	-0.600	1.720
2020/01/31 15:29:55.3	111.870	0.380	-0.620	1.760
2020/01/31 15:29:55.4	111.880	0.390	-0.640	1.790
2020/01/31 15:29:55.5	111.880	0.400	-0.650	1.820
2020/01/31 15:29:55.6	111.890	0.410	-0.660	1.860
2020/01/31 15:29:55.7	111.900	0.420	-0.680	1.890
2020/01/31 15:29:55.8	111.900	0.430	-0.690	1.920
2020/01/31 15:29:55.9	111.910	0.430	-0.690	1.940
2020/01/31 15:29:56.0	111.910	0.430	-0.700	1.970
2020/01/31 15:29:56.1	111.920	0.430	-0.700	1.990
2020/01/31 15:29:56.2	111.920	0.430	-0.700	2.010
2020/01/31 15:29:56.3	111.930	0.420	-0.690	2.030
2020/01/31 15:29:56.4	111.940	0.410	-0.680	2.050
2020/01/31 15:29:56.5	111.940	0.400	-0.670	2.060
2020/01/31 15:29:56.6	111.930	0.390	-0.650	2.070
2020/01/31 15:29:56.7	111.940	0.380	-0.630	2.080
2020/01/31 15:29:56.8	111.950	0.360	-0.600	2.080
2020/01/31 15:29:56.9	111.960	0.340	-0.570	2.080
2020/01/31 15:29:57.0	111.960	0.320	-0.540	2.080
2020/01/31 15:29:57.1	111.970	0.300	-0.500	2.080
2020/01/31 15:29:57.2	111.980	0.280	-0.450	2.070
2020/01/31 15:29:57.3	111.990	0.260	-0.410	2.060
2020/01/31 15:29:57.4	111.990	0.230	-0.360	2.040
2020/01/31 15:29:57.5	112.000	0.200	-0.310	2.020
2020/01/31 15:29:57.6	112.020	0.180	-0.240	2.000
2020/01/31 15:29:57.7	112.020	0.150	-0.190	1.980
2020/01/31 15:29:57.8	112.030	0.120	-0.130	1.950
2020/01/31 15:29:57.9	112.040	0.090	-0.070	1.920
2020/01/31 15:29:58.0	112.040	0.060	-0.010	1.890
2020/01/31 15:29:58.1	112.050	0.030	0.040	1.850
2020/01/31 15:29:58.2	112.050	0.000	0.100	1.810
2020/01/31 15:29:58.3	112.060	-0.030	0.160	1.770
2020/01/31 15:29:58.4	112.060	-0.060	0.210	1.720
2020/01/31 15:29:58.5	112.060	-0.090	0.270	1.680
2020/01/31 15:29:58.6	112.070	-0.120	0.320	1.630
2020/01/31 15:29:58.7	112.070	-0.140	0.370	1.580
2020/01/31 15:29:58.8	112.070	-0.170	0.410	1.530
2020/01/31 15:29:58.9	112.070	-0.200	0.450	1.480
2020/01/31 15:29:59.0	112.070	-0.220	0.490	1.430
2020/01/31 15:29:59.1	112.060	-0.250	0.530	1.370
2020/01/31 15:29:59.2	112.060	-0.270	0.560	1.320
2020/01/31 15:29:59.3	112.050	-0.290	0.590	1.270
2020/01/31 15:29:59.4	112.040	-0.310	0.610	1.210
2020/01/31 15:29:59.5	112.040	-0.330	0.640	1.160
2020/01/31 15:29:59.6	112.020	-0.350	0.650	1.110
2020/01/31 15:29:59.7	112.020	-0.370	0.670	1.060
2020/01/31 15:29:59.8	112.010	-0.380	0.670	1.010
2020/01/31 15:29:59.9	112.000	-0.400	0.680	0.960
2020/01/31 15:30:00.0	111.980	-0.410	0.680	0.920
2020/01/31 15:30:00.1	111.970	-0.420	0.670	0.870
2020/01/31 15:30:00.2	111.960	-0.430	0.660	0.830
2020/01/31 15:30:00.3	111.950	-0.440	0.640	0.780
2020/01/31 15:30:00.4	111.940	-0.450	0.630	0.740
2020/01/31 15:30:00.5	111.930	-0.450	0.600	0.700
2020/01/31 15:30:00.6	111.910	-0.450	0.570	0.670
2020/01/31 15:30:00.7	111.900	-0.450	0.540	0.630
2020/01/31 15:30:00.8	111.890	-0.450	0.500	0.590
2020/01/31 15:30:00.9	111.870	-0.450	0.460	0.560
2020/01/31 15:30:01.0	111.860	-0.440	0.410	0.520
2020/01/31 15:30:01.1	111.850	-0.440	0.370	0.490
2020/01/31 15:30:01.2	111.840	-0.430	0.310	0.450
2020/01/31 15:30:01.3	111.830	-0.420	0.260	0.420
2020/01/31 15:30:01.4	111.820	-0.400	0.200	0.380
2020/01/31 15:30:01.5	111.800	-0.390	0.130	0.350
2020/01/31 15:30:01.6	111.800	-0.370	0.070	0.310
2020/01/31 15:30:01.7	111.790	-0.350	0.000	0.280
2020/01/31 15:30:01.8	111.780	-0.330	-0.070	0.240
2020/01/31 15:30:01.9	111.760	-0.310	-0.140	0.210
2020/01/31 15:30:02.0	111.750	-0.280	-0.210	0.170
2020/01/31 15:30:02.1	111.740	-0.260	-0.280	0.140
2020/01/31 15:30:02.2	111.730	-0.230	-0.360	0.100
2020/01/31 15:30:02.3	111.720	-0.200	-0.430	0.060
2020/01/31 15:30:02.4	111.710	-0.170	-0.500	0.020
2020/01/31 15:30:02.5	111.700	-0.140	-0.580	-0.010
2020/01/31 15:30:02.6	111.690	-0.110	-0.650	-0.050
2020/01/31 15:30:02.7	111.680	-0.080	-0.720	-0.090
2020/01/31 15:30:02.8	111.680	-0.040	-0.780	-0.130
2020/01/31 15:30:02.9	111.670	-0.010	-0.850	-0.170
2020/01/31 15:30:03.0	111.660	0.020	-0.900	-0.210
2020/01/31 15:30:03.1	111.660	0.060	-0.960	-0.250
2020/01/31 15:30:03.2	111.650	0.090	-1.010	-0.290
2020/01/31 15:30:03.3	111.650	0.120	-1.050	-0.330
2020/01/31 15:30:03.4	111.650	0.150	-1.090	-0.370
2020/01/31 15:30:03.5	111.640	0.180	-1.120	-0.410
2020/01/31 15:30:03.6	111.640	0.210	-1.150	-0.440
2020/01/31 15:30:03.7	111.640	0.240	-1.170	-0.470
2020/01/31 15:30:03.8	111.650	0.270	-1.180	-0.510
2020/01/31 15:30:03.9	111.650	0.290	-1.200	-0.530
2020/01/31 15:30:04.0	111.660	0.310	-1.200	-0.560
2020/01/31 15:30:04.1	111.670	0.340	-1.200	-0.580
2020/01/31 15:30:04.2	111.680	0.360	-1.190	-0.600
2020/01/31 15:30:04.3	111.690	0.370	-1.180	-0.610
2020/01/31 15:30:04.4	111.700	0.390	-1.160	-0.620
2020/01/31 15:30:04.5	111.720	0.400	-1.130	-0.630
2020/01/31 15:30:04.6	111.730	0.410	-1.100	-0.620
2020/01/31 15:30:04.7	111.750	0.420	-1.070	-0.620
2020/01/31 15:30:04.8	111.760	0.430	-1.030	-0.610
2020/01/31 15:30:04.9	111.780	0.430	-0.980	-0.600
2020/01/31 15:30:05.0	111.800	0.430	-0.930	-0.590
2020/01/31 15:30:05.1	111.810	0.430	-0.880	-0.560
2020/01/31 15:30:05.2	111.830	0.430	-0.830	-0.540
2020/01/31 15:30:05.3	111.850	0.430	-0.770	-0.510
2020/01/31 15:30:05.4	111.860	0.420	-0.700	-0.470
2020/01/31 15:30:05.5	111.880	0.410	-0.640	-0.430
2020/01/31 15:30:05.6	111.910	0.390	-0.570	-0.380
2020/01/31 15:30:05.7	111.920	0.380	-0.500	-0.340
2020/01/31 15:30:05.8	111.940	0.360	-0.420	-0.280
2020/01/31 15:30:05.9	111.950	0.340	-0.350	-0.230
2020/01/31 15:30:06.0	111.960	0.320	-0.270	-0.170
2020/01/31 15:30:06.1	111.970	0.300	-0.200	-0.110
2020/01/31 15:30:06.2	111.970	0.270	-0.120	-0.040
2020/01/31 15:30:06.3	111.980	0.250	-0.040	0.020
2020/01/31 15:30:06.4	111.980	0.220	0.030	0.090
2020/01/31 15:30:06.5	111.990	0.190	0.110	0.160
2020/01/31 15:30:06.6	112.000	0.150	0.190	0.240
2020/01/31 15:30:06.7	112.000	0.120	0.260	0.310
2020/01/31 15:30:06.8	112.000	0.090	0.340	0.380
2020/01/31 15:30:06.9	112.000	0.050	0.410	0.450
2020/01/31 15:30:07.0	112.000	0.020	0.470	0.520
2020/01/31 15:30:07.1	112.000	-0.020	0.540	0.590
2020/01/31 15:30:07.2	112.000	-0.060	0.600	0.660
2020/01/31 15:30:07.3	111.990	-0.090	0.660	0.730
2020/01/31 15:30:07.4	111.990	-0.130	0.710	0.800
2020/01/31 15:30:07.5	111.990	-0.170	0.760	0.860
2020/01/31 15:30:07.6	111.980	-0.200	0.800	0.930
2020/01/31 15:30:07.7	111.980	-0.240	0.840	0.990
2020/01/31 15:30:07.8	111.970	-0.270	0.870	1.050
2020/01/31 15:30:07.9	111.970	-0.310	0.890	1.110
2020/01/31 15:30:08.0	111.960	-0.340	0.910	1.170
2020/01/31 15:30:08.1	111.950	-0.370	0.930	1.220
2020/01/31 15:30:08.2	111.940	-0.390	0.930	1.280
2020/01/31 15:30:08.3	111.940	-0.420	0.930	1.330
2020/01/31 15:30:08.4	111.930	-0.440	0.920	1.380
2020/01/31 15:30:08.5	111.920	-0.460	0.910	1.430
2020/01/31 15:30:08.6	111.910	-0.470	0.890	1.480
2020/01/31 15:30:08.7	111.900	-0.490	0.860	1.530
2020/01/31 15:30:08.8	111.890	-0.500	0.820	1.580
2020/01/31 15:30:08.9	111.880	-0.500	0.780	1.620
2020/01/31 15:30:09.0	111.870	-0.510	0.740	1.670
2020/01/31 15:30:09.1	111.860	-0.510	0.680	1.720
2020/01/31 15:30:09.2	111.850	-0.500	0.620	1.760
2020/01/31 15:30:09.3	111.840	-0.500	0.560	1.800
2020/01/31 15:30:09.4	111.820	-0.490	0.490	1.840
2020/01/31 15:30:09.5	111.810	-0.470	0.420	1.880
2020/01/31 15:30:09.6	111.800	-0.450	0.340	1.930
2020/01/31 15:30:09.7	111.790	-0.430	0.260	1.960
2020/01/31 15:30:09.8	111.780	-0.410	0.180	1.990
2020/01/31 15:30:09.9	111.770	-0.380	0.100	2.020
2020/01/31 15:30:10.0	111.760	-0.350	0.010	2.050
2020/01/31 15:30:10.1	111.750	-0.320	-0.070	2.070
2020/01/31 15:30:10.2	111.750	-0.280	-0.160	2.090
2020/01/31 15:30:10.3	111.740	-0.240	-0.240	2.100
2020/01/31 15:30:10.4	111.740	-0.200	-0.330	2.110
2020/01/31 15:30:10.5	111.740	-0.160	-0.410	2.110
2020/01/31 15:30:10.6	111.730	-0.120	-0.490	2.110
2020/01/31 15:30:10.7	111.730	-0.070	-0.570	2.100
2020/01/31 15:30:10.8	111.730	-0.030	-0.640	2.090
2020/01/31 15:30:10.9	111.740	0.020	-0.710	2.080
2020/01/31 15:30:11.0	111.750	0.060	-0.780	2.060
2020/01/31 15:30:11.1	111.750	0.110	-0.840	2.040
2020/01/31 15:30:11.2	111.760	0.160	-0.890	2.010
2020/01/31 15:30:11.3	111.770	0.200	-0.950	1.980
2020/01/31 15:30:11.4	111.780	0.250	-0.990	1.950
2020/01/31 15:30:11.5	111.790	0.290	-1.030	1.920
2020/01/31 15:30:11.6	111.810	0.330	-1.060	1.880
2020/01/31 15:30:11.7	111.820	0.370	-1.090	1.840
2020/01/31 15:30:11.8	111.830	0.410	-1.110	1.800
2020/01/31 15:30:11.9	111.840	0.440	-1.120	1.770
2020/01/31 15:30:12.0	111.850	0.480	-1.130	1.720
2020/01/31 15:30:12.1	111.860	0.510	-1.130	1.680
2020/01/31 15:30:12.2	111.870	0.530	-1.130	1.640
2020/01/31 15:30:12.3	111.880	0.560	-1.120	1.600
2020/01/31 15:30:12.4	111.880	0.580	-1.110	1.560
2020/01/31 15:30:12.5	111.880	0.600	-1.090	1.520
2020/01/31 15:30:12.6	111.880	0.620	-1.060	1.480
2020/01/31 15:30:12.7	111.880	0.630	-1.030	1.440
2020/01/31 15:30:12.8	111.870	0.640	-1.000	1.410
2020/01/31 15:30:12.9	111.870	0.640	-0.970	1.370
2020/01/31 15:30:13.0	111.860	0.650	-0.930	1.340
2020/01/31 15:30:13.1	111.850	0.640	-0.890	1.300
2020/01/31 15:30:13.2	111.840	0.640	-0.850	1.270
2020/01/31 15:30:13.3	111.830	0.630	-0.800	1.230
2020/01/31 15:30:13.4	111.810	0.620	-0.760	1.200
2020/01/31 15:30:13.5	111.800	0.610	-0.710	1.170
2020/01/31 15:30:13.6	111.790	0.590	-0.660	1.140
2020/01/31 15:30:13.7	111.770	0.570	-0.610	1.110
2020/01/31 15:30:13.8	111.760	0.550	-0.560	1.080
2020/01/31 15:30:13.9	111.740	0.520	-0.510	1.050
2020/01/31 15:30:14.0	111.730	0.500	-0.470	1.020
2020/01/31 15:30:14.1	111.710	0.460	-0.420	0.990
2020/01/31 15:30:14.2	111.700	0.430	-0.380	0.960
2020/01/31 15:30:14.3	111.690	0.400	-0.330	0.940
2020/01/31 15:30:14.4	111.680	0.360	-0.290	0.910
2020/01/31 15:30:14.5	111.670	0.320	-0.240	0.880
2020/01/31 15:30:14.6	111.650	0.280	-0.200	0.860
2020/01/31 15:30:14.7	111.640	0.240	-0.160	0.830
2020/01/31 15:30:14.8	111.630	0.190	-0.120	0.810
2020/01/31 15:30:14.9	111.620	0.150	-0.080	0.790
2020/01/31 15:30:15.0	111.620	0.100	-0.040	0.770
2020/01/31 15:30:15.1	111.610	0.050	-0.000	0.740
2020/01/31 15:30:15.2	111.600	0.000	0.030	0.720
2020/01/31 15:30:15.3	111.600	-0.050	0.070	0.710
2020/01/31 15:30:15.4	111.590	-0.090	0.100	0.690
2020/01/31 15:30:15.5	111.590	-0.140	0.140	0.670
2020/01/31 15:30:15.6	111.590	-0.190	0.170	0.660
2020/01/31 15:30:15.7	111.580	-0.240	0.210	0.650
2020/01/31 15:30:15.8	111.580	-0.290	0.240	0.630
2020/01/31 15:30:15.9	111.580	-0.340	0.270	0.620
2020/01/31 15:30:16.0	111.570	-0.390	0.300	0.610
2020/01/31 15:30:16.1	111.570	-0.430	0.330	0.600
2020/01/31 15:30:16.2	111.570	-0.480	0.360	0.580
2020/01/31 15:30:16.3	111.560	-0.520	0.380	0.570
2020/01/31 15:30:16.4	111.560	-0.560	0.400	0.560
2020/01/31 15:30:16.5	111.560	-0.600	0.430	0.550
2020/01/31 15:30:16.6	111.560	-0.640	0.450	0.540
2020/01/31 15:30:16.7	111.550	-0.680	0.460	0.530
2020/01/31 15:30:16.8	111.550	-0.710	0.470	0.520
2020/01/31 15:30:16.9	111.550	-0.740	0.480	0.510
2020/01/31 15:30:17.0	111.550	-0.770	0.490	0.500
2020/01/31 15:30:17.1	111.540	-0.790	0.490	0.480
2020/01/31 15:30:17.2	111.540	-0.810	0.490	0.470
2020/01/31 15:30:17.3	111.540	-0.830	0.490	0.460
2020/01/31 15:30:17.4	111.540	-0.840	0.480	0.440
2020/01/31 15:30:17.5	111.530	-0.850	0.470	0.430
2020/01/31 15:30:17.6	111.520	-0.860	0.460	0.420
2020/01/31 15:30:17.7	111.510	-0.860	0.440	0.400
2020/01/31 15:30:17.8	111.510	-0.860	0.420	0.390
2020/01/31 15:30:17.9	111.500	-0.860	0.390	0.370
2020/01/31 15:30:18.0	111.490	-0.850	0.360	0.360
2020/01/31 15:30:18.1	111.490	-0.840	0.330	0.340
2020/01/31 15:30:18.2	111.480	-0.820	0.300	0.330
2020/01/31 15:30:18.3	111.470	-0.810	0.270	0.310
2020/01/31 15:30:18.4	111.460	-0.780	0.230	0.300
2020/01/31 15:30:18.5	111.460	-0.760	0.190	0.290
2020/01/31 15:30:18.6	111.460	-0.730	0.150	0.280
2020/01/31 15:30:18.7	111.450	-0.700	0.110	0.260
2020/01/31 15:30:18.8	111.450	-0.670	0.070	0.250
2020/01/31 15:30:18.9	111.440	-0.630	0.020	0.230
2020/01/31 15:30:19.0	111.440	-0.590	-0.020	0.220
2020/01/31 15:30:19.1	111.430	-0.550	-0.060	0.200
2020/01/31 15:30:19.2	111.430	-0.500	-0.100	0.180
2020/01/31 15:30:19.3	111.430	-0.460	-0.140	0.160
2020/01/31 15:30:19.4	111.430	-0.410	-0.190	0.150
2020/01/31 15:30:19.5	111.430	-0.360	-0.230	0.130
2020/01/31 15:30:19.6	111.440	-0.310	-0.260	0.110
2020/01/31 15:30:19.7	111.440	-0.260	-0.300	0.090
2020/01/31 15:30:19.8	111.450	-0.210	-0.340	0.070
2020/01/31 15:30:19.9	111.460	-0.150	-0.380	0.050
2020/01/31 15:30:20.0	111.460	-0.100	-0.410	0.030
2020/01/31 15:30:20.1	111.470	-0.040	-0.440	0.010
2020/01/31 15:30:20.2	111.480	0.010	-0.480	-0.010
2020/01/31 15:30:20.3	111.490	0.060	-0.510	-0.030
2020/01/31 15:30:20.4	111.500	0.120	-0.540	-0.050
2020/01/31 15:30:20.5	111.510	0.170	-0.560	-0.060
2020/01/31 15:30:20.6	111.510	0.220	-0.590	-0.070
2020/01/31 15:30:20.7	111.520	0.270	-0.610	-0.090
2020/01/31 15:30:20.8	111.530	0.320	-0.640	-0.100
2020/01/31 15:30:20.9	111.540	0.370	-0.660	-0.110
2020/01/31 15:30:21.0	111.540	0.420	-0.680	-0.110
2020/01/31 15:30:21.1	111.550	0.460	-0.690	-0.120
2020/01/31 15:30:21.2	111.550	0.500	-0.710	-0.120
2020/01/31 15:30:21.3	111.560	0.540	-0.720	-0.120
2020/01/31 15:30:21.4	111.560	0.580	-0.730	-0.120
2020/01/31 15:30:21.5	111.560	0.610	-0.730	-0.110
2020/01/31 15:30:21.6	111.560	0.650	-0.740	-0.100
2020/01/31 15:30:21.7	111.560	0.680	-0.740	-0.090
2020/01/31 15:30:21.8	111.560	0.700	-0.740	-0.080
2020/01/31 15:30:21.9	111.550	0.730	-0.740	-0.070
2020/01/31 15:30:22.0	111.540	0.750	-0.730	-0.050
2020/01/31 15:30:22.1	111.540	0.760	-0.720	-0.030
2020/01/31 15:30:22.2	111.530	0.780	-0.710	-0.010
2020/01/31 15:30:22.3	111.520	0.790	-0.690	0.010
2020/01/31 15:30:22.4	111.510	0.790	-0.680	0.030
2020/01/31 15:30:22.5	111.490	0.800	-0.650	0.050
2020/01/31 15:30:22.6	111.500	0.800	-0.630	0.080
2020/01/31 15:30:22.7	111.480	0.800	-0.600	0.110
2020/01/31 15:30:22.8	111.470	0.790	-0.570	0.140
2020/01/31 15:30:22.9	111.450	0.780	-0.540	0.170
2020/01/31 15:30:23.0	111.440	0.770	-0.500	0.200
2020/01/31 15:30:23.1	111.420	0.760	-0.460	0.230
2020/01/31 15:30:23.2	111.410	0.740	-0.420	0.260
2020/01/31 15:30:23.3	111.390	0.720	-0.380	0.290
2020/01/31 15:30:23.4	111.380	0.690	-0.330	0.330
2020/01/31 15:30:23.5	111.370	0.670	-0.290	0.360
2020/01/31 15:30:23.6	111.360	0.640	-0.240	0.400
2020/01/31 15:30:23.7	111.350	0.610	-0.190	0.440
2020/01/31 15:30:23.8	111.340	0.580	-0.140	0.470
2020/01/31 15:30:23.9	111.330	0.540	-0.090	0.510
2020/01/31 15:30:24.0	111.320	0.510	-0.040	0.540
2020/01/31 15:30:24.1	111.310	0.470	0.020	0.580
2020/01/31 15:30:24.2	111.310	0.430	0.070	0.620
2020/01/31 15:30:24.3	111.300	0.390	0.120	0.660
2020/01/31 15:30:24.4	111.300	0.350	0.170	0.700
2020/01/31 15:30:24.5	111.300	0.310	0.210	0.740
2020/01/31 15:30:24.6	111.290	0.270	0.260	0.790
2020/01/31 15:30:24.7	111.290	0.220	0.310	0.830
2020/01/31 15:30:24.8	111.290	0.180	0.340	0.870
2020/01/31 15:30:24.9	111.290	0.140	0.380	0.920
2020/01/31 15:30:25.0	111.290	0.100	0.410	0.960
2020/01/31 15:30:25.1	111.290	0.060	0.440	1.010
2020/01/31 15:30:25.2	111.290	0.020	0.460	1.060
2020/01/31 15:30:25.3	111.290	-0.020	0.480	1.110
2020/01/31 15:30:25.4	111.290	-0.060	0.500	1.160
2020/01/31 15:30:25.5	111.290	-0.090	0.510	1.200
2020/01/31 15:30:25.6	111.300	-0.130	0.510	1.260
2020/01/31 15:30:25.7	111.300	-0.160	0.520	1.310
2020/01/31 15:30:25.8	111.300	-0.200	0.510	1.360
2020/01/31 15:30:25.9	111.300	-0.230	0.500	1.400
2020/01/31 15:30:26.0	111.300	-0.260	0.490	1.450
2020/01/31 15:30:26.1	111.300	-0.280	0.470	1.500
2020/01/31 15:30:26.2	111.290	-0.310	0.450	1.550
2020/01/31 15:30:26.3	111.290	-0.330	0.430	1.590
2020/01/31 15:30:26.4	111.290	-0.350	0.400	1.640
2020/01/31 15:30:26.5	111.280	-0.370	0.360	1.680
2020/01/31 15:30:26.6	111.280	-0.390	0.330	1.730
2020/01/31 15:30:26.7	111.280	-0.400	0.280	1.770
2020/01/31 15:30:26.8	111.260	-0.420	0.240	1.810
2020/01/31 15:30:26.9	111.250	-0.430	0.190	1.850
2020/01/31 15:30:27.0	111.240	-0.430	0.150	1.890
2020/01/31 15:30:27.1	111.230	-0.440	0.100	1.930
2020/01/31 15:30:27.2	111.210	-0.450	0.040	1.970
2020/01/31 15:30:27.3	111.200	-0.450	-0.010	2.010
2020/01/31 15:30:27.4	111.180	-0.450	-0.060	2.040
2020/01/31 15:30:27.5	111.160	-0.450	-0.120	2.070
2020/01/31 15:30:27.6	111.130	-0.450	-0.170	2.110
2020/01/31 15:30:27.7	111.110	-0.450	-0.220	2.130
2020/01/31 15:30:27.8	111.090	-0.440	-0.270	2.160
2020/01/31 15:30:27.9	111.080	-0.430	-0.320	2.180
2020/01/31 15:30:28.0	111.060	-0.430	-0.370	2.200
2020/01/31 15:30:28.1	111.040	-0.420	-0.420	2.210
2020/01/31 15:30:28.2	111.020	-0.410	-0.460	2.220
2020/01/31 15:30:28.3	111.000	-0.400	-0.500	2.230
2020/01/31 15:30:28.4	110.980	-0.390	-0.540	2.240
2020/01/31 15:30:28.5	110.970	-0.380	-0.580	2.240
2020/01/31 15:30:28.6	110.950	-0.370	-0.620	2.240
2020/01/31 15:30:28.7	110.940	-0.350	-0.650	2.230
2020/01/31 15:30:28.8	110.930	-0.340	-0.680	2.220
2020/01/31 15:30:28.9	110.910	-0.330	-0.710	2.210
2020/01/31 15:30:29.0	110.900	-0.310	-0.730	2.200
2020/01/31 15:30:29.1	110.900	-0.300	-0.760	2.180
2020/01/31 15:30:29.2	110.890	-0.280	-0.780	2.160
2020/01/31 15:30:29.3	110.880	-0.260	-0.800	2.140
2020/01/31 15:30:29.4	110.880	-0.250	-0.810	2.110
2020/01/31 15:30:29.5	110.870	-0.230	-0.830	2.080
2020/01/31 15:30:29.6	110.860	-0.210	-0.840	2.050
2020/01/31 15:30:29.7	110.850	-0.190	-0.850	2.020
2020/01/31 15:30:29.8	110.850	-0.170	-0.860	1.980
2020/01/31 15:30:29.9	110.850	-0.150	-0.860	1.950
2020/01/31 15:30:30.0	110.850	-0.130	-0.870	1.910
2020/01/31 15:30:30.1	110.850	-0.110	-0.870	1.870
2020/01/31 15:30:30.2	110.850	-0.090	-0.870	1.830
2020/01/31 15:30:30.3	110.850	-0.070	-0.870	1.790
2020/01/31 15:30:30.4	110.850	-0.050	-0.860	1.750
2020/01/31 15:30:30.5	110.860	-0.030	-0.850	1.700
2020/01/31 15:30:30.6	110.850	-0.010	-0.840	1.660
2020/01/31 15:30:30.7	110.850	0.010	-0.830	1.610
2020/01/31 15:30:30.8	110.860	0.030	-0.810	1.570
2020/01/31 15:30:30.9	110.860	0.040	-0.790	1.520
2020/01/31 15:30:31.0	110.860	0.060	-0.760	1.460
2020/01/31 15:30:31.1	110.870	0.080	-0.740	1.410
2020/01/31 15:30:31.2	110.870	0.100	-0.710	1.360
2020/01/31 15:30:31.3	110.880	0.110	-0.670	1.300
2020/01/31 15:30:31.4	110.880	0.120	-0.630	1.250
2020/01/31 15:30:31.5	110.890	0.140	-0.590	1.190
2020/01/31 15:30:31.6	110.900	0.150	-0.550	1.130
2020/01/31 15:30:31.7	110.910	0.160	-0.500	1.070
2020/01/31 15:30:31.8	110.920	0.170	-0.450	1.010
2020/01/31 15:30:31.9	110.920	0.170	-0.400	0.950
2020/01/31 15:30:32.0	110.930	0.180	-0.350	0.880
2020/01/31 15:30:32.1	110.940	0.180	-0.290	0.820
2020/01/31 15:30:32.2	110.940	0.180	-0.230	0.750
2020/01/31 15:30:32.3	110.950	0.180	-0.180	0.680
2020/01/31 15:30:32.4	110.960	0.180	-0.120	0.610
2020/01/31 15:30:32.5	110.970	0.180	-0.060	0.540
2020/01/31 15:30:32.6	110.980	0.170	0.010	0.480
2020/01/31 15:30:32.7	110.990	0.170	0.070	0.410
2020/01/31 15:30:32.8	110.990	0.160	0.130	0.340
2020/01/31 15:30:32.9	111.000	0.150	0.190	0.260
2020/01/31 15:30:33.0	111.010	0.140	0.240	0.190
2020/01/31 15:30:33.1	111.020	0.130	0.300	0.110
2020/01/31 15:30:33.2	111.030	0.120	0.360	0.040
2020/01/31 15:30:33.3	111.040	0.100	0.410	-0.030
2020/01/31 15:30:33.4	111.040	0.090	0.460	-0.110
2020/01/31 15:30:33.5	111.050	0.070	0.510	-0.180
2020/01/31 15:30:33.6	111.060	0.060	0.560	-0.250
2020/01/31 15:30:33.7	111.060	0.040	0.600	-0.330
2020/01/31 15:30:33.8	111.070	0.030	0.630	-0.400
2020/01/31 15:30:33.9	111.070	0.010	0.670	-0.460
2020/01/31 15:30:34.0	111.080	-0.010	0.690	-0.530
2020/01/31 15:30:34.1	111.080	-0.020	0.720	-0.590
2020/01/31 15:30:34.2	111.080	-0.040	0.740	-0.650
2020/01/31 15:30:34.3	111.080	-0.050	0.750	-0.710
2020/01/31 15:30:34.4	111.070	-0.070	0.760	-0.770
2020/01/31 15:30:34.5	111.070	-0.080	0.760	-0.820
2020/01/31 15:30:34.6	111.060	-0.100	0.760	-0.860
2020/01/31 15:30:34.7	111.050	-0.110	0.750	-0.900
2020/01/31 15:30:34.8	111.040	-0.120	0.740	-0.940
2020/01/31 15:30:34.9	111.030	-0.130	0.720	-0.970
2020/01/31 15:30:35.0	111.010	-0.140	0.690	-1.000
2020/01/31 15:30:35.1	110.990	-0.150	0.660	-1.020
2020/01/31 15:30:35.2	110.970	-0.160	0.630	-1.040
2020/01/31 15:30:35.3	110.950	-0.160	0.590	-1.050
2020/01/31 15:30:35.4	110.930	-0.170	0.540	-1.060
2020/01/31 15:30:35.5	110.900	-0.170	0.490	-1.060
2020/01/31 15:30:35.6	110.870	-0.170	0.440	-1.050
2020/01/31 15:30:35.7	110.840	-0.170	0.380	-1.030
2020/01/31 15:30:35.8	110.810	-0.170	0.320	-1.020
2020/01/31 15:30:35.9	110.780	-0.170	0.250	-1.000
2020/01/31 15:30:36.0	110.750	-0.170	0.190	-0.970
2020/01/31 15:30:36.1	110.710	-0.170	0.120	-0.940
2020/01/31 15:30:36.2	110.680	-0.160	0.050	-0.910
2020/01/31 15:30:36.3	110.640	-0.160	-0.030	-0.870
2020/01/31 15:30:36.4	110.610	-0.150	-0.100	-0.820
2020/01/31 15:30:36.5	110.570	-0.140	-0.170	-0.780
2020/01/31 15:30:36.6	110.540	-0.130	-0.240	-0.730
2020/01/31 15:30:36.7	110.510	-0.120	-0.320	-0.670
2020/01/31 15:30:36.8	110.470	-0.120	-0.390	-0.620
2020/01/31 15:30:36.9	110.440	-0.100	-0.460	-0.560
2020/01/31 15:30:37.0	110.410	-0.090	-0.530	-0.500
2020/01/31 15:30:37.1	110.390	-0.080	-0.590	-0.440
2020/01/31 15:30:37.2	110.360	-0.070	-0.660	-0.380
2020/01/31 15:30:37.3	110.340	-0.060	-0.720	-0.320
2020/01/31 15:30:37.4	110.320	-0.050	-0.770	-0.260
2020/01/31 15:30:37.5	110.310	-0.040	-0.820	-0.190
2020/01/31 15:30:37.6	110.300	-0.020	-0.870	-0.120
2020/01/31 15:30:37.7	110.290	-0.010	-0.910	-0.060
2020/01/31 15:30:37.8	110.290	0.000	-0.950	-0.000
2020/01/31 15:30:37.9	110.280	0.010	-0.980	0.060
2020/01/31 15:30:38.0	110.290	0.030	-1.000	0.120
2020/01/31 15:30:38.1	110.290	0.040	-1.020	0.180
2020/01/31 15:30:38.2	110.300	0.050	-1.040	0.230
2020/01/31 15:30:38.3	110.310	0.060	-1.050	0.280
2020/01/31 15:30:38.4	110.330	0.070	-1.050	0.330
2020/01/31 15:30:38.5	110.350	0.080	-1.050	0.380
2020/01/31 15:30:38.6	110.390	0.100	-1.040	0.430
2020/01/31 15:30:38.7	110.410	0.110	-1.020	0.470
2020/01/31 15:30:38.8	110.440	0.120	-1.010	0.510
2020/01/31 15:30:38.9	110.480	0.130	-0.990	0.550
2020/01/31 15:30:39.0	110.510	0.140	-0.960	0.590
2020/01/31 15:30:39.1	110.540	0.150	-0.930	0.630
2020/01/31 15:30:39.2	110.580	0.170	-0.900	0.660
2020/01/31 15:30:39.3	110.620	0.180	-0.870	0.690
2020/01/31 15:30:39.4	110.650	0.190	-0.830	0.730
2020/01/31 15:30:39.5	110.690	0.210	-0.800	0.760
2020/01/31 15:30:39.6	110.720	0.220	-0.750	0.800
2020/01/31 15:30:39.7	110.750	0.230	-0.710	0.830
2020/01/31 15:30:39.8	110.790	0.250	-0.670	0.860
2020/01/31 15:30:39.9	110.820	0.260	-0.630	0.900
2020/01/31 15:30:40.0	110.850	0.280	-0.590	0.930
2020/01/31 15:30:40.1	110.880	0.290	-0.540	0.970
2020/01/31 15:30:40.2	110.900	0.310	-0.500	1.010
2020/01/31 15:30:40.3	110.930	0.320	-0.460	1.040
2020/01/31 15:30:40.4	110.950	0.330	-0.410	1.080
2020/01/31 15:30:40.5	110.960	0.350	-0.370	1.130
2020/01/31 15:30:40.6	110.980	0.360	-0.320	1.170
2020/01/31 15:30:40.7	110.990	0.370	-0.280	1.210
2020/01/31 15:30:40.8	111.000	0.380	-0.240	1.250
2020/01/31 15:30:40.9	111.000	0.390	-0.200	1.300
2020/01/31 15:30:41.0	111.010	0.400	-0.160	1.340
2020/01/31 15:30:41.1	111.010	0.400	-0.120	1.380
2020/01/31 15:30:41.2	111.010	0.400	-0.080	1.430
2020/01/31 15:30:41.3	111.010	0.400	-0.030	1.470
2020/01/31 15:30:41.4	111.000	0.400	0.010	1.510
2020/01/31 15:30:41.5	111.000	0.400	0.050	1.560
2020/01/31 15:30:41.6	110.980	0.390	0.090	1.600
2020/01/31 15:30:41.7	110.980	0.380	0.120	1.640
2020/01/31 15:30:41.8	110.970	0.370	0.160	1.690
2020/01/31 15:30:41.9	110.960	0.360	0.200	1.720
2020/01/31 15:30:42.0	110.950	0.340	0.230	1.760
2020/01/31 15:30:42.1	110.930	0.330	0.270	1.800
2020/01/31 15:30:42.2	110.920	0.310	0.300	1.830
2020/01/31 15:30:42.3	110.910	0.290	0.330	1.870
2020/01/31 15:30:42.4	110.890	0.260	0.350	1.900
2020/01/31 15:30:42.5	110.880	0.240	0.380	1.930
2020/01/31 15:30:42.6	110.870	0.220	0.410	1.960
2020/01/31 15:30:42.7	110.860	0.190	0.430	1.990
2020/01/31 15:30:42.8	110.840	0.170	0.440	2.010
2020/01/31 15:30:42.9	110.820	0.140	0.450	2.040
2020/01/31 15:30:43.0	110.800	0.120	0.460	2.060
2020/01/31 15:30:43.1	110.780	0.090	0.470	2.080
2020/01/31 15:30:43.2	110.760	0.070	0.470	2.100
2020/01/31 15:30:43.3	110.740	0.040	0.460	2.120
2020/01/31 15:30:43.4	110.710	0.020	0.450	2.140
2020/01/31 15:30:43.5	110.690	-0.010	0.440	2.150
2020/01/31 15:30:43.6	110.660	-0.030	0.420	2.170
2020/01/31 15:30:43.7	110.630	-0.050	0.400	2.180
2020/01/31 15:30:43.8	110.600	-0.070	0.380	2.190
2020/01/31 15:30:43.9	110.570	-0.090	0.350	2.200
2020/01/31 15:30:44.0	110.540	-0.110	0.310	2.210
2020/01/31 15:30:44.1	110.510	-0.120	0.280	2.210
2020/01/31 15:30:44.2	110.480	-0.140	0.240	2.210
2020/01/31 15:30:44.3	110.440	-0.150	0.200	2.200
2020/01/31 15:30:44.4	110.410	-0.160	0.160	2.190
2020/01/31 15:30:44.5	110.380	-0.170	0.110	2.180
2020/01/31 15:30:44.6	110.370	-0.180	0.070	2.170
2020/01/31 15:30:44.7	110.340	-0.190	0.020	2.150
2020/01/31 15:30:44.8	110.320	-0.200	-0.020	2.130
2020/01/31 15:30:44.9	110.290	-0.210	-0.070	2.100
2020/01/31 15:30:45.0	110.270	-0.210	-0.110	2.070
2020/01/31 15:30:45.1	110.250	-0.220	-0.160	2.040
2020/01/31 15:30:45.2	110.240	-0.220	-0.200	2.000
2020/01/31 15:30:45.3	110.220	-0.220	-0.250	1.960
2020/01/31 15:30:45.4	110.210	-0.230	-0.290	1.920
2020/01/31 15:30:45.5	110.210	-0.230	-0.320	1.870
2020/01/31 15:30:45.6	110.190	-0.230	-0.360	1.830
2020/01/31 15:30:45.7				
2020/01/31 15:30:45.8	110.190	-0.230	-0.390	1.780
2020/01/31 15:30:45.9	110.190	-0.230	-0.450	1.670
2020/01/31 15:30:46.0	110.200	-0.230	-0.470	1.610
2020/01/31 15:30:46.1	110.210	-0.220	-0.490	1.550
2020/01/31 15:30:46.2	110.220	-0.220	-0.510	1.490
2020/01/31 15:30:46.3	110.230	-0.220	-0.530	1.420
2020/01/31 15:30:46.4	110.240	-0.220	-0.540	1.360
2020/01/31 15:30:46.5	110.260	-0.210	-0.550	1.290
2020/01/31 15:30:46.6	110.290	-0.210	-0.550	1.220
2020/01/31 15:30:46.7	110.310	-0.210	-0.550	1.160
2020/01/31 15:30:46.8	110.330	-0.200	-0.550	1.090
2020/01/31 15:30:46.9	110.350	-0.200	-0.550	1.010
2020/01/31 15:30:47.0	110.380	-0.190	-0.550	0.940
2020/01/31 15:30:47.1	110.410	-0.190	-0.540	0.870
2020/01/31 15:30:47.2	110.440	-0.190	-0.540	0.790
2020/01/31 15:30:47.3	110.470	-0.180	-0.530	0.720
2020/01/31 15:30:47.4	110.500	-0.180	-0.520	0.640
2020/01/31 15:30:47.5	110.530	-0.180	-0.510	0.560
2020/01/31 15:30:47.6	110.560	-0.170	-0.500	0.490
2020/01/31 15:30:47.7	110.590	-0.170	-0.490	0.410
2020/01/31 15:30:47.8				
2020/01/31 15:30:47.9	110.620	-0.160	-0.470	0.330
2020/01/31 15:30:48.0	110.690	-0.160	-0.450	0.180
2020/01/31 15:30:48.1	110.720	-0.150	-0.440	0.110
2020/01/31 15:30:48.2	110.750	-0.150	-0.420	0.030
2020/01/31 15:30:48.3	110.770	-0.140	-0.410	-0.040
2020/01/31 15:30:48.4	110.800	-0.140	-0.400	-0.100
2020/01/31 15:30:48.5	110.820	-0.130	-0.390	-0.160
2020/01/31 15:30:48.6	110.850	-0.130	-0.370	-0.220
2020/01/31 15:30:48.7	110.860	-0.120	-0.360	-0.270
2020/01/31 15:30:48.8	110.870	-0.120	-0.350	-0.310
2020/01/31 15:30:48.9	110.880	-0.110	-0.340	-0.360
2020/01/31 15:30:49.0	110.880	-0.110	-0.330	-0.390
2020/01/31 15:30:49.1	110.870	-0.100	-0.320	-0.420
2020/01/31 15:30:49.2	110.870	-0.090	-0.310	-0.450
2020/01/31 15:30:49.3	110.850	-0.090	-0.300	-0.470
2020/01/31 15:30:49.4	110.840	-0.080	-0.290	-0.480
2020/01/31 15:30:49.5	110.820	-0.070	-0.280	-0.490
2020/01/31 15:30:49.6	110.790	-0.070	-0.270	-0.490
2020/01/31 15:30:49.7	110.770	-0.060	-0.260	-0.480
2020/01/31 15:30:49.8	110.730	-0.060	-0.250	-0.480
2020/01/31 15:30:49.9				
2020/01/31 15:30:50.0	110.700	-0.050	-0.240	-0.470
2020/01/31 15:30:50.1	110.630	-0.040	-0.220	-0.430
2020/01/31 15:30:50.2	110.590	-0.030	-0.210	-0.410
2020/01/31 15:30:50.3	110.550	-0.030	-0.200	-0.380
2020/01/31 15:30:50.4	110.510	-0.020	-0.190	-0.360
2020/01/31 15:30:50.5	110.470	-0.020	-0.180	-0.330
2020/01/31 15:30:50.6	110.430	-0.010	-0.170	-0.290
2020/01/31 15:30:50.7	110.390	-0.010	-0.160	-0.260
2020/01/31 15:30:50.8	110.350	-0.000	-0.140	-0.220
2020/01/31 15:30:50.9	110.310	0.000	-0.130	-0.180
2020/01/31 15:30:51.0	110.270	0.000	-0.120	-0.140
2020/01/31 15:30:51.1	110.230	0.010	-0.110	-0.110
2020/01/31 15:30:51.2	110.200	0.010	-0.100	-0.070
2020/01/31 15:30:51.3	110.160	0.020	-0.080	-0.030
2020/01/31 15:30:51.4	110.130	0.020	-0.070	0.010
2020/01/31 15:30:51.5	110.100	0.020	-0.060	0.040
2020/01/31 15:30:51.6	110.070	0.030	-0.040	0.080
2020/01/31 15:30:51.7	110.050	0.030	-0.030	0.110
2020/01/31 15:30:51.8	110.020	0.030	-0.010	0.150
2020/01/31 15:30:51.9	110.010	0.040	-0.000	0.180
2020/01/31 15:30:52.0				
2020/01/31 15:30:52.1	109.990	0.040	0.010	0.210
2020/01/31 15:30:52.2	109.970	0.050	0.030	0.260
2020/01/31 15:30:52.3	109.970	0.050	0.040	0.280
2020/01/31 15:30:52.4	109.960	0.060	0.050	0.300
2020/01/31 15:30:52.5	109.960	0.060	0.050	0.320
2020/01/31 15:30:52.6	109.970	0.070	0.060	0.340
2020/01/31 15:30:52.7	109.970	0.070	0.060	0.360
2020/01/31 15:30:52.8	109.980	0.080	0.060	0.370
2020/01/31 15:30:52.9	109.990	0.080	0.060	0.390
2020/01/31 15:30:53.0	110.010	0.090	0.060	0.400
2020/01/31 15:30:53.1	110.020	0.090	0.060	0.410
2020/01/31 15:30:53.2	110.040	0.100	0.060	0.430
2020/01/31 15:30:53.3	110.050	0.100	0.050	0.440
2020/01/31 15:30:53.4	110.070	0.110	0.040	0.450
2020/01/31 15:30:53.5	110.090	0.120	0.040	0.460
2020/01/31 15:30:53.6	110.110	0.120	0.030	0.480
2020/01/31 15:30:53.7	110.130	0.130	0.020	0.490
2020/01/31 15:30:53.8	110.150	0.130	0.010	0.500
2020/01/31 15:30:53.9	110.170	0.140	-0.000	0.520
2020/01/31 15:30:54.0	110.200	0.150	-0.020	0.530
2020/01/31 15:30:54.1	110.220	0.150	-0.030	0.550
2020/01/31 15:30:54.2	110.240	0.160	-0.040	0.560
2020/01/31 15:30:54.3	110.260	0.170	-0.060	0.580
2020/01/31 15:30:54.4	110.280	0.170	-0.070	0.600
2020/01/31 15:30:54.5	110.300	0.180	-0.080	0.620
2020/01/31 15:30:54.6	110.320	0.190	-0.100	0.640
2020/01/31 15:30:54.7	110.340	0.200	-0.110	0.660
2020/01/31 15:30:54.8	110.360	0.200	-0.120	0.680
2020/01/31 15:30:54.9	110.370	0.210	-0.140	0.710
2020/01/31 15:30:55.0	110.390	0.210	-0.150	0.730
2020/01/31 15:30:55.1	110.400	0.220	-0.170	0.760
2020/01/31 15:30:55.2	110.420	0.230	-0.180	0.780
2020/01/31 15:30:55.3	110.430	0.230	-0.200	0.810
2020/01/31 15:30:55.4	110.440	0.240	-0.210	0.830
2020/01/31 15:30:55.5	110.460	0.240	-0.230	0.860
2020/01/31 15:30:55.6	110.470	0.250	-0.240	0.890
2020/01/31 15:30:55.7	110.480	0.250	-0.250	0.920
2020/01/31 15:30:55.8	110.490	0.260	-0.270	0.950
2020/01/31 15:30:55.9	110.500	0.260	-0.280	0.980
2020/01/31 15:30:56.0	110.510	0.270	-0.300	1.010
2020/01/31 15:30:56.1	110.510	0.270	-0.310	1.030
2020/01/31 15:30:56.2				
2020/01/31 15:30:56.3	110.520	0.270	-0.320	1.060
2020/01/31 15:30:56.4	110.520	0.280	-0.350	1.120
2020/01/31 15:30:56.5	110.520	0.280	-0.360	1.150
2020/01/31 15:30:56.6	110.520	0.280	-0.380	1.180
2020/01/31 15:30:56.7	110.520	0.280	-0.390	1.210
2020/01/31 15:30:56.8	110.520	0.270	-0.400	1.240
2020/01/31 15:30:56.9	110.510	0.270	-0.410	1.270
2020/01/31 15:30:57.0	110.510	0.270	-0.420	1.300
2020/01/31 15:30:57.1	110.500	0.270	-0.420	1.330
2020/01/31 15:30:57.2	110.490	0.260	-0.430	1.360
2020/01/31 15:30:57.3	110.490	0.260	-0.430	1.390
2020/01/31 15:30:57.4	110.470	0.250	-0.430	1.420
2020/01/31 15:30:57.5	110.460	0.250	-0.430	1.460
2020/01/31 15:30:57.6	110.450	0.240	-0.430	1.490
2020/01/31 15:30:57.7	110.430	0.230	-0.420	1.520
2020/01/31 15:30:57.8	110.420	0.230	-0.420	1.550
2020/01/31 15:30:57.9	110.400	0.220	-0.410	1.580
2020/01/31 15:30:58.0	110.380	0.210	-0.400	1.610
2020/01/31 15:30:58.1	110.360	0.200	-0.390	1.640
2020/01/31 15:30:58.2	110.340	0.190	-0.380	1.670
2020/01/31 15:30:58.3				
2020/01/31 15:30:58.4	110.320	0.180	-0.370	1.700
2020/01/31 15:30:58.5	110.270	0.170	-0.340	1.750
2020/01/31 15:30:58.6	110.240	0.160	-0.320	1.780
2020/01/31 15:30:58.7	110.220	0.150	-0.300	1.810
2020/01/31 15:30:58.8	110.190	0.140	-0.280	1.830
2020/01/31 15:30:58.9	110.170	0.130	-0.270	1.850
2020/01/31 15:30:59.0	110.140	0.120	-0.240	1.880
2020/01/31 15:30:59.1	110.120	0.110	-0.220	1.890
2020/01/31 15:30:59.2	110.090	0.100	-0.200	1.910
2020/01/31 15:30:59.3	110.070	0.090	-0.180	1.920
2020/01/31 15:30:59.4	110.050	0.080	-0.150	1.930
2020/01/31 15:30:59.5	110.020	0.070	-0.130	1.930
2020/01/31 15:30:59.6	110.000	0.060	-0.100	1.940
2020/01/31 15:30:59.7	109.980	0.040	-0.070	1.940
2020/01/31 15:30:59.8	109.960	0.030	-0.050	1.930
2020/01/31 15:30:59.9	109.950	0.020	-0.020	1.920
2020/01/31 15:31:00.0	109.930	0.000	0.000	1.900
2020/01/31 15:31:00.1	109.920	-0.010	0.030	1.880
2020/01/31 15:31:00.2	109.910	-0.030	0.050	1.860
2020/01/31 15:31:00.3	109.900	-0.040	0.080	1.830
2020/01/31 15:31:00.4				
2020/01/31 15:31:00.5	109.890	-0.060	0.100	1.800
2020/01/31 15:31:00.6	109.870	-0.090	0.140	1.730
2020/01/31 15:31:00.7	109.870	-0.110	0.150	1.690
2020/01/31 15:31:00.8	109.860	-0.130	0.170	1.640
2020/01/31 15:31:00.9	109.850	-0.150	0.180	1.590
2020/01/31 15:31:01.0	109.850	-0.170	0.200	1.540
2020/01/31 15:31:01.1	109.850	-0.190	0.200	1.480
2020/01/31 15:31:01.2	109.840	-0.210	0.210	1.430
2020/01/31 15:31:01.3	109.840	-0.230	0.210	1.370
2020/01/31 15:31:01.4	109.830	-0.250	0.210	1.300
2020/01/31 15:31:01.5	109.830	-0.270	0.210	1.240
2020/01/31 15:31:01.6	109.820	-0.290	0.200	1.180
2020/01/31 15:31:01.7	109.820	-0.310	0.190	1.110
2020/01/31 15:31:01.8	109.810	-0.320	0.180	1.050
2020/01/31 15:31:01.9	109.810	-0.340	0.160	0.980
2020/01/31 15:31:02.0	109.810	-0.360	0.140	0.910
2020/01/31 15:31:02.1	109.800	-0.370	0.110	0.840
2020/01/31 15:31:02.2	109.800	-0.380	0.080	0.770
2020/01/31 15:31:02.3	109.800	-0.400	0.050	0.700
2020/01/31 15:31:02.4	109.800	-0.410	0.020	0.630
2020/01/31 15:31:02.5	109.790	-0.420	-0.020	0.560
2020/01/31 15:31:02.6	109.800	-0.430	-0.050	0.490
2020/01/31 15:31:02.7	109.800	-0.430	-0.090	0.420
2020/01/31 15:31:02.8	109.810	-0.440	-0.130	0.350
2020/01/31 15:31:02.9	109.810	-0.440	-0.170	0.270
2020/01/31 15:31:03.0	109.820	-0.450	-0.210	0.200
2020/01/31 15:31:03.1	109.830	-0.450	-0.250	0.130
2020/01/31 15:31:03.2	109.840	-0.450	-0.290	0.060
2020/01/31 15:31:03.3	109.850	-0.440	-0.330	-0.000
2020/01/31 15:31:03.4	109.870	-0.440	-0.360	-0.070
2020/01/31 15:31:03.5	109.880	-0.440	-0.400	-0.130
2020/01/31 15:31:03.6	109.910	-0.430	-0.430	-0.200
2020/01/31 15:31:03.7	109.930	-0.420	-0.470	-0.260
2020/01/31 15:31:03.8	109.950	-0.410	-0.500	-0.310
2020/01/31 15:31:03.9	109.960	-0.400	-0.530	-0.370
2020/01/31 15:31:04.0	109.980	-0.390	-0.560	-0.420
2020/01/31 15:31:04.1	110.000	-0.370	-0.590	-0.470
2020/01/31 15:31:04.2	110.020	-0.360	-0.610	-0.510
2020/01/31 15:31:04.3	110.040	-0.340	-0.640	-0.550
2020/01/31 15:31:04.4	110.060	-0.330	-0.660	-0.590
2020/01/31 15:31:04.5	110.080	-0.310	-0.680	-0.620
2020/01/31 15:31:04.6				
2020/01/31 15:31:04.7	110.080	-0.290	-0.690	-0.640
2020/01/31 15:31:04.8	110.110	-0.260	-0.720	-0.680
2020/01/31 15:31:04.9	110.130	-0.240	-0.730	-0.690
2020/01/31 15:31:05.0	110.140	-0.220	-0.740	-0.700
2020/01/31 15:31:05.1	110.150	-0.200	-0.750	-0.710
2020/01/31 15:31:05.2	110.160	-0.180	-0.750	-0.700
2020/01/31 15:31:05.3	110.160	-0.160	-0.750	-0.700
2020/01/31 15:31:05.4	110.170	-0.140	-0.750	-0.690
2020/01/31 15:31:05.5	110.170	-0.120	-0.750	-0.670
2020/01/31 15:31:05.6	110.170	-0.100	-0.740	-0.650
2020/01/31 15:31:05.7	110.170	-0.080	-0.730	-0.630
2020/01/31 15:31:05.8	110.160	-0.070	-0.710	-0.600
2020/01/31 15:31:05.9	110.160	-0.050	-0.700	-0.580
2020/01/31 15:31:06.0	110.150	-0.030	-0.680	-0.540
2020/01/31 15:31:06.1	110.140	-0.020	-0.650	-0.510
2020/01/31 15:31:06.2	110.130	-0.000	-0.630	-0.470
2020/01/31 15:31:06.3	110.120	0.010	-0.600	-0.430
2020/01/31 15:31:06.4	110.110	0.020	-0.570	-0.390
2020/01/31 15:31:06.5	110.090	0.040	-0.530	-0.350
2020/01/31 15:31:06.6	110.080	0.050	-0.490	-0.300
2020/01/31 15:31:06.7				
2020/01/31 15:31:06.8	110.060	0.060	-0.450	-0.260
2020/01/31 15:31:06.9	110.030	0.080	-0.360	-0.170
2020/01/31 15:31:07.0	110.010	0.090	-0.310	-0.120
2020/01/31 15:31:07.1	109.990	0.100	-0.260	-0.080
2020/01/31 15:31:07.2	109.970	0.100	-0.210	-0.030
2020/01/31 15:31:07.3	109.960	0.110	-0.160	0.010
2020/01/31 15:31:07.4	109.940	0.120	-0.100	0.050
2020/01/31 15:31:07.5	109.920	0.130	-0.050	0.090
2020/01/31 15:31:07.6	109.890	0.130	0.010	0.130
2020/01/31 15:31:07.7	109.870	0.140	0.070	0.170
2020/01/31 15:31:07.8	109.860	0.140	0.120	0.200
2020/01/31 15:31:07.9	109.840	0.150	0.180	0.230
2020/01/31 15:31:08.0	109.820	0.150	0.230	0.260
2020/01/31 15:31:08.1	109.810	0.150	0.290	0.290
2020/01/31 15:31:08.2	109.790	0.160	0.340	0.320
2020/01/31 15:31:08.3	109.780	0.160	0.390	0.340
2020/01/31 15:31:08.4	109.760	0.160	0.440	0.360
2020/01/31 15:31:08.5	109.740	0.170	0.480	0.380
2020/01/31 15:31:08.6	109.730	0.170	0.530	0.410
2020/01/31 15:31:08.7	109.710	0.170	0.560	0.430
2020/01/31 15:31:08.8				
2020/01/31 15:31:08.9	109.700	0.170	0.600	0.440
2020/01/31 15:31:09.0	109.670	0.170	0.650	0.480
2020/01/31 15:31:09.1	109.650	0.170	0.670	0.490
2020/01/31 15:31:09.2	109.630	0.170	0.690	0.510
2020/01/31 15:31:09.3	109.620	0.170	0.700	0.520
2020/01/31 15:31:09.4	109.600	0.170	0.700	0.540
2020/01/31 15:31:09.5	109.590	0.170	0.700	0.560
2020/01/31 15:31:09.6	109.580	0.170	0.700	0.580
2020/01/31 15:31:09.7	109.570	0.180	0.680	0.600
2020/01/31 15:31:09.8	109.550	0.180	0.670	0.610
2020/01/31 15:31:09.9	109.540	0.180	0.640	0.630
2020/01/31 15:31:10.0	109.520	0.180	0.610	0.650
2020/01/31 15:31:10.1	109.510	0.190	0.580	0.670
2020/01/31 15:31:10.2	109.500	0.190	0.540	0.690
2020/01/31 15:31:10.3	109.490	0.190	0.500	0.710
2020/01/31 15:31:10.4	109.480	0.200	0.450	0.730
2020/01/31 15:31:10.5	109.470	0.200	0.400	0.740
2020/01/31 15:31:10.6	109.470	0.210	0.340	0.760
2020/01/31 15:31:10.7	109.460	0.210	0.280	0.780
2020/01/31 15:31:10.8	109.460	0.220	0.210	0.790
2020/01/31 15:31:10.9				
2020/01/31 15:31:11.0	109.460	0.220	0.150	0.800
2020/01/31 15:31:11.1	109.460	0.230	0.010	0.820
2020/01/31 15:31:11.2	109.470	0.240	-0.060	0.820
2020/01/31 15:31:11.3	109.480	0.250	-0.130	0.830
2020/01/31 15:31:11.4	109.490	0.250	-0.200	0.830
2020/01/31 15:31:11.5	109.500	0.260	-0.270	0.830
2020/01/31 15:31:11.6	109.530	0.260	-0.340	0.830
2020/01/31 15:31:11.7	109.540	0.270	-0.410	0.820
2020/01/31 15:31:11.8	109.560	0.270	-0.470	0.820
2020/01/31 15:31:11.9	109.580	0.280	-0.540	0.810
2020/01/31 15:31:12.0	109.600	0.280	-0.610	0.810
2020/01/31 15:31:12.1	109.620	0.290	-0.670	0.800
2020/01/31 15:31:12.2	109.640	0.290	-0.730	0.790
2020/01/31 15:31:12.3	109.670	0.290	-0.780	0.780
2020/01/31 15:31:12.4	109.690	0.300	-0.840	0.780
2020/01/31 15:31:12.5	109.710	0.300	-0.890	0.770
2020/01/31 15:31:12.6	109.740	0.300	-0.940	0.770
2020/01/31 15:31:12.7	109.770	0.300	-0.980	0.760
2020/01/31 15:31:12.8	109.790	0.300	-1.020	0.760
2020/01/31 15:31:12.9	109.820	0.300	-1.060	0.760
2020/01/31 15:31:13.0				
2020/01/31 15:31:13.1	109.840	0.300	-1.090	0.760
2020/01/31 15:31:13.2	109.880	0.300	-1.140	0.780
2020/01/31 15:31:13.3	109.900	0.290	-1.160	0.790
2020/01/31 15:31:13.4	109.920	0.290	-1.170	0.800
2020/01/31 15:31:13.5	109.940	0.280	-1.180	0.820
2020/01/31 15:31:13.6	109.950	0.280	-1.180	0.840
2020/01/31 15:31:13.7	109.960	0.270	-1.180	0.860
2020/01/31 15:31:13.8	109.970	0.260	-1.170	0.890
2020/01/31 15:31:13.9	109.980	0.250	-1.150	0.920
2020/01/31 15:31:14.0	109.990	0.240	-1.140	0.950
2020/01/31 15:31:14.1	109.990	0.230	-1.110	0.980
2020/01/31 15:31:14.2	110.000	0.220	-1.080	1.020
2020/01/31 15:31:14.3	110.000	0.200	-1.050	1.060
2020/01/31 15:31:14.4	109.990	0.190	-1.010	1.100
2020/01/31 15:31:14.5	109.990	0.170	-0.970	1.140
2020/01/31 15:31:14.6	110.000	0.150	-0.910	1.190
2020/01/31 15:31:14.7	109.990	0.130	-0.860	1.230
2020/01/31 15:31:14.8	109.990	0.110	-0.800	1.280
2020/01/31 15:31:14.9	109.980	0.090	-0.740	1.320
2020/01/31 15:31:15.0	109.970	0.070	-0.680	1.370
2020/01/31 15:31:15.1				
2020/01/31 15:31:15.2	109.960	0.050	-0.610	1.410
2020/01/31 15:31:15.3	109.930	-0.000	-0.460	1.500
2020/01/31 15:31:15.4	109.910	-0.030	-0.380	1.550
2020/01/31 15:31:15.5	109.900	-0.060	-0.300	1.590
2020/01/31 15:31:15.6	109.880	-0.090	-0.220	1.630
2020/01/31 15:31:15.7	109.860	-0.110	-0.140	1.670
2020/01/31 15:31:15.8	109.840	-0.140	-0.060	1.700
2020/01/31 15:31:15.9	109.820	-0.170	0.020	1.740
2020/01/31 15:31:16.0	109.800	-0.200	0.100	1.770
2020/01/31 15:31:16.1	109.770	-0.230	0.180	1.800
2020/01/31 15:31:16.2	109.750	-0.260	0.260	1.820
2020/01/31 15:31:16.3	109.730	-0.290	0.330	1.840
2020/01/31 15:31:16.4	109.700	-0.320	0.410	1.860
2020/01/31 15:31:16.5	109.680	-0.340	0.470	1.880
2020/01/31 15:31:16.6	109.640	-0.370	0.540	1.890
2020/01/31 15:31:16.7	109.620	-0.400	0.600	1.890
2020/01/31 15:31:16.8	109.590	-0.420	0.650	1.890
2020/01/31 15:31:16.9	109.560	-0.450	0.700	1.890
2020/01/31 15:31:17.0	109.540	-0.470	0.740	1.880
2020/01/31 15:31:17.1	109.510	-0.490	0.780	1.870
2020/01/31 15:31:17.2				
2020/01/31 15:31:17.3	109.490	-0.510	0.810	1.850
2020/01/31 15:31:17.4	109.440	-0.540	0.850	1.800
2020/01/31 15:31:17.5	109.420	-0.560	0.860	1.770
2020/01/31 15:31:17.6	109.400	-0.570	0.870	1.740
2020/01/31 15:31:17.7	109.390	-0.580	0.870	1.700
2020/01/31 15:31:17.8	109.370	-0.580	0.850	1.660
2020/01/31 15:31:17.9	109.350	-0.590	0.840	1.610
2020/01/31 15:31:18.0	109.340	-0.590	0.810	1.550
2020/01/31 15:31:18.1	109.330	-0.590	0.780	1.500
2020/01/31 15:31:18.2	109.320	-0.590	0.740	1.440
2020/01/31 15:31:18.3	109.320	-0.580	0.700	1.370
2020/01/31 15:31:18.4	109.320	-0.570	0.650	1.310
2020/01/31 15:31:18.5	109.320	-0.560	0.600	1.240
2020/01/31 15:31:18.6	109.330	-0.550	0.540	1.170
2020/01/31 15:31:18.7	109.340	-0.540	0.480	1.090
2020/01/31 15:31:18.8	109.350	-0.520	0.410	1.010
2020/01/31 15:31:18.9	109.360	-0.500	0.340	0.930
2020/01/31 15:31:19.0	109.370	-0.480	0.270	0.850
2020/01/31 15:31:19.1	109.390	-0.460	0.200	0.760
2020/01/31 15:31:19.2	109.400	-0.440	0.120	0.670
2020/01/31 15:31:19.3				
2020/01/31 15:31:19.4	109.420	-0.410	0.050	0.590
2020/01/31 15:31:19.5	109.460	-0.360	-0.100	0.410
2020/01/31 15:31:19.6	109.480	-0.330	-0.180	0.320
2020/01/31 15:31:19.7	109.500	-0.310	-0.250	0.230
2020/01/31 15:31:19.8	109.520	-0.280	-0.330	0.140
2020/01/31 15:31:19.9	109.550	-0.250	-0.400	0.050
2020/01/31 15:31:20.0	109.570	-0.230	-0.470	-0.040
2020/01/31 15:31:20.1	109.590	-0.200	-0.530	-0.120
2020/01/31 15:31:20.2	109.620	-0.170	-0.600	-0.210
2020/01/31 15:31:20.3	109.640	-0.150	-0.650	-0.290
2020/01/31 15:31:20.4	109.660	-0.120	-0.710	-0.370
2020/01/31 15:31:20.5	109.680	-0.100	-0.760	-0.450
2020/01/31 15:31:20.6	109.700	-0.080	-0.800	-0.520
2020/01/31 15:31:20.7	109.720	-0.060	-0.840	-0.590
2020/01/31 15:31:20.8	109.740	-0.040	-0.870	-0.660
2020/01/31 15:31:20.9	109.750	-0.020	-0.900	-0.730
2020/01/31 15:31:21.0	109.770	-0.010	-0.930	-0.790
2020/01/31 15:31:21.1	109.780	0.010	-0.940	-0.850
2020/01/31 15:31:21.2	109.800	0.020	-0.960	-0.910
2020/01/31 15:31:21.3	109.810	0.030	-0.960	-0.960
2020/01/31 15:31:21.4				
2020/01/31 15:31:21.5	109.820	0.040	-0.960	-1.010
2020/01/31 15:31:21.6	109.820	0.050	-0.940	-1.080
2020/01/31 15:31:21.7	109.830	0.060	-0.930	-1.120
2020/01/31 15:31:21.8	109.830	0.060	-0.910	-1.140
2020/01/31 15:31:21.9	109.830	0.060	-0.880	-1.170
2020/01/31 15:31:22.0	109.830	0.070	-0.860	-1.180
2020/01/31 15:31:22.1	109.830	0.070	-0.820	-1.190
2020/01/31 15:31:22.2	109.820	0.070	-0.790	-1.200
2020/01/31 15:31:22.3	109.820	0.070	-0.750	-1.200
2020/01/31 15:31:22.4	109.810	0.070	-0.710	-1.190
2020/01/31 15:31:22.5	109.800	0.070	-0.670	-1.180
2020/01/31 15:31:22.6	109.790	0.070	-0.620	-1.160
2020/01/31 15:31:22.7	109.770	0.070	-0.580	-1.140
2020/01/31 15:31:22.8	109.760	0.070	-0.540	-1.110
2020/01/31 15:31:22.9	109.740	0.070	-0.490	-1.080
2020/01/31 15:31:23.0	109.720	0.070	-0.440	-1.040
2020/01/31 15:31:23.1	109.710	0.070	-0.400	-1.000
2020/01/31 15:31:23.2	109.690	0.070	-0.350	-0.960
2020/01/31 15:31:23.3	109.670	0.080	-0.310	-0.910
2020/01/31 15:31:23.4	109.650	0.080	-0.260	-0.860
2020/01/31 15:31:23.5				
2020/01/31 15:31:23.6	109.630	0.090	-0.220	-0.810
2020/01/31 15:31:23.7	109.590	0.100	-0.130	-0.700
2020/01/31 15:31:23.8	109.570	0.110	-0.100	-0.640
2020/01/31 15:31:23.9	109.560	0.120	-0.060	-0.580
2020/01/31 15:31:24.0	109.540	0.130	-0.020	-0.530
2020/01/31 15:31:24.1	109.530	0.140	0.010	-0.470
2020/01/31 15:31:24.2	109.520	0.150	0.040	-0.410
2020/01/31 15:31:24.3	109.510	0.160	0.070	-0.350
2020/01/31 15:31:24.4	109.500	0.180	0.090	-0.300
2020/01/31 15:31:24.5	109.490	0.190	0.110	-0.240
2020/01/31 15:31:24.6	109.480	0.210	0.140	-0.180
2020/01/31 15:31:24.7	109.470	0.220	0.150	-0.120
2020/01/31 15:31:24.8	109.470	0.240	0.160	-0.070
2020/01/31 15:31:24.9	109.460	0.250	0.170	-0.010
2020/01/31 15:31:25.0	109.460	0.270	0.180	0.050
2020/01/31 15:31:25.1	109.450	0.290	0.180	0.100
2020/01/31 15:31:25.2	109.450	0.300	0.180	0.160
2020/01/31 15:31:25.3	109.450	0.320	0.180	0.210
2020/01/31 15:31:25.4	109.440	0.340	0.170	0.260
2020/01/31 15:31:25.5	109.440	0.360	0.170	0.320
2020/01/31 15:31:25.6				
2020/01/31 15:31:25.7	109.450	0.370	0.150	0.370
2020/01/31 15:31:25.8	109.450	0.410	0.120	0.470
2020/01/31 15:31:25.9	109.440	0.420	0.100	0.520
2020/01/31 15:31:26.0	109.440	0.440	0.080	0.570
2020/01/31 15:31:26.1	109.440	0.450	0.060	0.620
2020/01/31 15:31:26.2	109.440	0.460	0.030	0.660
2020/01/31 15:31:26.3	109.440	0.470	0.010	0.710
2020/01/31 15:31:26.4	109.440	0.480	-0.020	0.750
2020/01/31 15:31:26.5	109.450	0.490	-0.050	0.800
2020/01/31 15:31:26.6	109.450	0.500	-0.080	0.840
2020/01/31 15:31:26.7	109.450	0.500	-0.100	0.880
2020/01/31 15:31:26.8	109.460	0.510	-0.130	0.920
2020/01/31 15:31:26.9	109.460	0.510	-0.150	0.960
2020/01/31 15:31:27.0	109.470	0.510	-0.180	1.000
2020/01/31 15:31:27.1	109.480	0.500	-0.200	1.040
2020/01/31 15:31:27.2	109.480	0.500	-0.220	1.080
2020/01/31 15:31:27.3	109.490	0.490	-0.230	1.120
2020/01/31 15:31:27.4	109.500	0.480	-0.250	1.160
2020/01/31 15:31:27.5	109.510	0.470	-0.260	1.200
2020/01/31 15:31:27.6	109.520	0.450	-0.270	1.240
2020/01/31 15:31:27.7				
2020/01/31 15:31:27.8	109.530	0.430	-0.270	1.280
2020/01/31 15:31:27.9	109.550	0.390	-0.280	1.360
2020/01/31 15:31:28.0	109.560	0.370	-0.280	1.400
2020/01/31 15:31:28.1	109.570	0.340	-0.270	1.440
2020/01/31 15:31:28.2	109.590	0.310	-0.270	1.480
2020/01/31 15:31:28.3	109.600	0.280	-0.260	1.520
2020/01/31 15:31:28.4	109.610	0.250	-0.250	1.560
2020/01/31 15:31:28.5	109.620	0.220	-0.240	1.600
2020/01/31 15:31:28.6	109.640	0.190	-0.220	1.640
2020/01/31 15:31:28.7	109.650	0.150	-0.210	1.680
2020/01/31 15:31:28.8	109.660	0.120	-0.190	1.710
2020/01/31 15:31:28.9	109.670	0.080	-0.180	1.750
2020/01/31 15:31:29.0	109.690	0.050	-0.160	1.790
2020/01/31 15:31:29.1	109.700	0.010	-0.150	1.820
2020/01/31 15:31:29.2	109.710	-0.020	-0.130	1.860
2020/01/31 15:31:29.3	109.720	-0.050	-0.120	1.890
2020/01/31 15:31:29.4	109.730	-0.090	-0.110	1.920
2020/01/31 15:31:29.5	109.750	-0.120	-0.090	1.950
2020/01/31 15:31:29.6	109.760	-0.150	-0.080	1.980
2020/01/31 15:31:29.7	109.770	-0.180	-0.080	2.010
2020/01/31 15:31:29.8				
2020/01/31 15:31:29.9	109.780	-0.200	-0.070	2.040
2020/01/31 15:31:30.0	109.800	-0.250	-0.060	2.090
2020/01/31 15:31:30.1	109.810	-0.280	-0.070	2.110
2020/01/31 15:31:30.2	109.810	-0.290	-0.070	2.130
2020/01/31 15:31:30.3	109.820	-0.310	-0.070	2.150
2020/01/31 15:31:30.4	109.820	-0.330	-0.080	2.170
2020/01/31 15:31:30.5	109.820	-0.340	-0.090	2.180
2020/01/31 15:31:30.6	109.830	-0.350	-0.090	2.200
2020/01/31 15:31:30.7	109.830	-0.360	-0.110	2.210
2020/01/31 15:31:30.8	109.830	-0.370	-0.120	2.230
2020/01/31 15:31:30.9	109.820	-0.380	-0.130	2.240
2020/01/31 15:31:31.0				
2020/01/31 15:31:31.1	109.820	-0.380	-0.150	2.250
2020/01/31 15:31:31.2	109.800	-0.390	-0.170	2.260
2020/01/31 15:31:31.3	109.790	-0.390	-0.190	2.260
2020/01/31 15:31:31.4	109.790	-0.390	-0.200	2.260
2020/01/31 15:31:31.5	109.770	-0.390	-0.220	2.260
2020/01/31 15:31:31.6	109.760	-0.390	-0.230	2.260
2020/01/31 15:31:31.7				
2020/01/31 15:31:31.8	109.750	-0.380	-0.240	2.260
2020/01/31 15:31:31.9				
2020/01/31 15:31:32.0	109.720	-0.380	-0.250	2.240
2020/01/31 15:31:32.1	109.680	-0.370	-0.260	2.210
2020/01/31 15:31:32.2	109.670	-0.360	-0.270	2.200
2020/01/31 15:31:32.3	109.650	-0.360	-0.270	2.180
2020/01/31 15:31:32.4	109.630	-0.350	-0.270	2.160
2020/01/31 15:31:32.5	109.610	-0.350	-0.270	2.140
2020/01/31 15:31:32.6				
2020/01/31 15:31:32.7	109.590	-0.350	-0.260	2.110
2020/01/31 15:31:32.8	109.540	-0.340	-0.250	2.050
2020/01/31 15:31:32.9	109.520	-0.330	-0.240	2.020
2020/01/31 15:31:33.0	109.500	-0.330	-0.240	1.990
2020/01/31 15:31:33.1	109.470	-0.330	-0.230	1.950
2020/01/31 15:31:33.2	109.440	-0.320	-0.220	1.910
2020/01/31 15:31:33.3	109.420	-0.320	-0.210	1.870
2020/01/31 15:31:33.4	109.390	-0.320	-0.200	1.830
2020/01/31 15:31:33.5	109.360	-0.320	-0.190	1.790
2020/01/31 15:31:33.6	109.340	-0.310	-0.180	1.750
2020/01/31 15:31:33.7	109.310	-0.310	-0.170	1.700
2020/01/31 15:31:33.8	109.290	-0.300	-0.160	1.650
2020/01/31 15:31:33.9				
2020/01/31 15:31:34.0	109.260	-0.300	-0.150	1.590
2020/01/31 15:31:34.1	109.230	-0.300	-0.140	1.540
2020/01/31 15:31:34.2	109.190	-0.290	-0.130	1.420
2020/01/31 15:31:34.3	109.160	-0.280	-0.130	1.360
2020/01/31 15:31:34.4	109.140	-0.270	-0.130	1.290
2020/01/31 15:31:34.5	109.120	-0.260	-0.130	1.230
2020/01/31 15:31:34.6	109.100	-0.260	-0.130	1.150
2020/01/31 15:31:34.7	109.090	-0.250	-0.130	1.080
2020/01/31 15:31:34.8	109.070	-0.240	-0.130	1.010
2020/01/31 15:31:34.9	109.060	-0.230	-0.140	0.930
2020/01/31 15:31:35.0				
2020/01/31 15:31:35.1	109.060	-0.210	-0.150	0.850
2020/01/31 15:31:35.2	109.040	-0.190	-0.170	0.680
2020/01/31 15:31:35.3	109.040	-0.170	-0.180	0.590
2020/01/31 15:31:35.4	109.040	-0.150	-0.190	0.500
2020/01/31 15:31:35.5	109.050	-0.140	-0.200	0.410
2020/01/31 15:31:35.6				
2020/01/31 15:31:35.7	109.040	-0.120	-0.210	0.320
2020/01/31 15:31:35.8	109.060	-0.080	-0.240	0.120
2020/01/31 15:31:35.9	109.070	-0.060	-0.260	0.030
2020/01/31 15:31:36.0	109.080	-0.040	-0.270	-0.070
2020/01/31 15:31:36.1				
2020/01/31 15:31:36.2	109.090	-0.020	-0.290	-0.170
2020/01/31 15:31:36.3	109.120	0.030	-0.320	-0.360
2020/01/31 15:31:36.4	109.140	0.050	-0.330	-0.450
2020/01/31 15:31:36.5	109.150	0.070	-0.350	-0.540
2020/01/31 15:31:36.6				
2020/01/31 15:31:36.7	109.170	0.090	-0.360	-0.630
2020/01/31 15:31:36.8	109.190	0.140	-0.390	-0.800
2020/01/31 15:31:36.9	109.210	0.160	-0.400	-0.880
2020/01/31 15:31:37.0	109.220	0.190	-0.410	-0.950
2020/01/31 15:31:37.1	109.230	0.210	-0.420	-1.020
2020/01/31 15:31:37.2	109.240	0.230	-0.430	-1.090
2020/01/31 15:31:37.3				
2020/01/31 15:31:37.4	109.240	0.250	-0.450	-1.150
2020/01/31 15:31:37.5				
2020/01/31 15:31:37.6	109.250	0.290	-0.460	-1.250
2020/01/31 15:31:37.7	109.240	0.330	-0.480	-1.320
2020/01/31 15:31:37.8	109.230	0.340	-0.480	-1.350
2020/01/31 15:31:37.9				
2020/01/31 15:31:38.0	109.230	0.360	-0.480	-1.370
2020/01/31 15:31:38.1	109.200	0.380	-0.490	-1.390
2020/01/31 15:31:38.2				
2020/01/31 15:31:38.3	109.190	0.390	-0.480	-1.390
2020/01/31 15:31:38.4	109.160	0.410	-0.470	-1.380
2020/01/31 15:31:38.5	109.150	0.410	-0.460	-1.370
2020/01/31 15:31:38.6	109.140	0.420	-0.450	-1.340
2020/01/31 15:31:38.7	109.120	0.420	-0.430	-1.320
2020/01/31 15:31:38.8	109.110	0.420	-0.410	-1.300
2020/01/31 15:31:38.9	109.100	0.410	-0.390	-1.270
2020/01/31 15:31:39.0	109.080	0.410	-0.370	-1.230
2020/01/31 15:31:39.1	109.070	0.400	-0.340	-1.200
2020/01/31 15:31:39.2				
2020/01/31 15:31:39.3	109.060	0.390	-0.310	-1.160
2020/01/31 15:31:39.4	109.040	0.360	-0.240	-1.080
2020/01/31 15:31:39.5	109.030	0.350	-0.200	-1.030
2020/01/31 15:31:39.6	109.030	0.330	-0.160	-0.980
2020/01/31 15:31:39.7	109.030	0.310	-0.120	-0.930
2020/01/31 15:31:39.8	109.020	0.290	-0.080	-0.870
2020/01/31 15:31:39.9	109.020	0.270	-0.030	-0.820
2020/01/31 15:31:40.0				
2020/01/31 15:31:40.1	109.020	0.250	0.020	-0.760
2020/01/31 15:31:40.2	109.010	0.230	0.060	-0.710
2020/01/31 15:31:40.3				
2020/01/31 15:31:40.4	109.010	0.180	0.160	-0.590
2020/01/31 15:31:40.5				
2020/01/31 15:31:40.6	109.010	0.140	0.250	-0.470
2020/01/31 15:31:40.7	109.010	0.110	0.300	-0.400
2020/01/31 15:31:40.8	109.010	0.070	0.370	-0.260
2020/01/31 15:31:40.9	109.010	0.040	0.410	-0.190
2020/01/31 15:31:41.0				
2020/01/31 15:31:41.1	109.020	0.020	0.440	-0.120
2020/01/31 15:31:41.2	109.020	-0.020	0.490	0.030
2020/01/31 15:31:41.3	109.020	-0.030	0.510	0.110
2020/01/31 15:31:41.4	109.030	-0.050	0.520	0.180
2020/01/31 15:31:41.5				
2020/01/31 15:31:41.6	109.030	-0.060	0.530	0.270
2020/01/31 15:31:41.7				
2020/01/31 15:31:41.8	109.010	-0.090	0.520	0.440
2020/01/31 15:31:41.9	109.010	-0.100	0.500	0.610
2020/01/31 15:31:42.0	109.010	-0.110	0.480	0.700
2020/01/31 15:31:42.1	109.010	-0.110	0.450	0.790
2020/01/31 15:31:42.2	109.010	-0.110	0.420	0.880
2020/01/31 15:31:42.3	109.010	-0.120	0.380	0.970
2020/01/31 15:31:42.4				
2020/01/31 15:31:42.5	109.000	-0.110	0.340	1.060
2020/01/31 15:31:42.6	108.980	-0.110	0.250	1.250
2020/01/31 15:31:42.7	108.980	-0.100	0.190	1.340
2020/01/31 15:31:42.8	108.970	-0.100	0.140	1.430
2020/01/31 15:31:42.9	108.970	-0.090	0.080	1.520
2020/01/31 15:31:43.0	108.960	-0.090	0.020	1.610
2020/01/31 15:31:43.1				
2020/01/31 15:31:43.2	108.960	-0.080	-0.050	1.700
2020/01/31 15:31:43.3	108.950	-0.060	-0.170	1.870
2020/01/31 15:31:43.4	108.940	-0.060	-0.230	1.950
2020/01/31 15:31:43.5	108.940	-0.050	-0.290	2.030
2020/01/31 15:31:43.6	108.940	-0.040	-0.350	2.110
2020/01/31 15:31:43.7	108.940	-0.040	-0.410	2.180
2020/01/31 15:31:43.8				
2020/01/31 15:31:43.9	108.940	-0.030	-0.460	2.250
2020/01/31 15:31:44.0	108.940	-0.030	-0.510	2.310
2020/01/31 15:31:44.1	108.940	-0.020	-0.600	2.430
2020/01/31 15:31:44.2	108.940	-0.020	-0.630	2.480
2020/01/31 15:31:44.3	108.940	-0.020	-0.660	2.530
2020/01/31 15:31:44.4	108.950	-0.020	-0.690	2.570
2020/01/31 15:31:44.5				
2020/01/31 15:31:44.6	108.950	-0.030	-0.710	2.610
2020/01/31 15:31:44.7				
2020/01/31 15:31:44.8	108.970	-0.040	-0.730	2.680
2020/01/31 15:31:44.9	108.990	-0.060	-0.730	2.730
2020/01/31 15:31:45.0	109.000	-0.070	-0.730	2.750
2020/01/31 15:31:45.1	109.010	-0.080	-0.720	2.760
2020/01/31 15:31:45.2	109.020	-0.100	-0.710	2.770
2020/01/31 15:31:45.3	109.030	-0.110	-0.690	2.770
2020/01/31 15:31:45.4	109.040	-0.130	-0.670	2.770
2020/01/31 15:31:45.5	109.050	-0.150	-0.640	2.760
2020/01/31 15:31:45.6				
2020/01/31 15:31:45.7	109.080	-0.170	-0.610	2.760
2020/01/31 15:31:45.8	109.100	-0.200	-0.550	2.720
2020/01/31 15:31:45.9	109.110	-0.220	-0.520	2.700
2020/01/31 15:31:46.0	109.120	-0.240	-0.490	2.680
2020/01/31 15:31:46.1	109.130	-0.260	-0.450	2.650
2020/01/31 15:31:46.2	109.140	-0.270	-0.420	2.610
2020/01/31 15:31:46.3	109.150	-0.290	-0.390	2.580
2020/01/31 15:31:46.4	109.160	-0.300	-0.350	2.540
2020/01/31 15:31:46.5	109.160	-0.310	-0.320	2.500
2020/01/31 15:31:46.6				
2020/01/31 15:31:46.7	109.170	-0.320	-0.290	2.460
2020/01/31 15:31:46.8	109.180	-0.330	-0.260	2.410
2020/01/31 15:31:46.9	109.180	-0.340	-0.230	2.370
2020/01/31 15:31:47.0	109.180	-0.340	-0.200	2.320
2020/01/31 15:31:47.1	109.190	-0.340	-0.160	2.220
2020/01/31 15:31:47.2	109.190	-0.340	-0.140	2.170
2020/01/31 15:31:47.3	109.180	-0.330	-0.120	2.110
2020/01/31 15:31:47.4	109.180	-0.320	-0.100	2.060
2020/01/31 15:31:47.5	109.180	-0.310	-0.090	2.000
2020/01/31 15:31:47.6				
2020/01/31 15:31:47.7	109.190	-0.300	-0.070	1.940
2020/01/31 15:31:47.8	109.180	-0.270	-0.050	1.820
2020/01/31 15:31:47.9	109.180	-0.250	-0.050	1.750
2020/01/31 15:31:48.0	109.180	-0.230	-0.040	1.680
2020/01/31 15:31:48.1	109.170	-0.200	-0.040	1.610
2020/01/31 15:31:48.2				
2020/01/31 15:31:48.3	109.170	-0.180	-0.040	1.540
2020/01/31 15:31:48.4	109.160	-0.150	-0.040	1.470
2020/01/31 15:31:48.5	109.160	-0.100	-0.050	1.310
2020/01/31 15:31:48.6				
2020/01/31 15:31:48.7	109.160	-0.070	-0.050	1.230
2020/01/31 15:31:48.8	109.160	-0.050	-0.060	1.140
2020/01/31 15:31:48.9	109.150	0.010	-0.070	0.960
2020/01/31 15:31:49.0	109.140	0.040	-0.090	0.870
2020/01/31 15:31:49.1	109.140	0.070	-0.100	0.770
2020/01/31 15:31:49.2	109.140	0.090	-0.110	0.680
2020/01/31 15:31:49.3				
2020/01/31 15:31:49.4	109.140	0.120	-0.130	0.580
2020/01/31 15:31:49.5	109.130	0.170	-0.160	0.370
2020/01/31 15:31:49.6				
2020/01/31 15:31:49.7	109.130	0.200	-0.170	0.270
2020/01/31 15:31:49.8	109.120	0.240	-0.210	0.060
2020/01/31 15:31:49.9	109.120	0.260	-0.230	-0.040
2020/01/31 15:31:50.0	109.120	0.290	-0.260	-0.140
2020/01/31 15:31:50.1	109.120	0.300	-0.280	-0.240
2020/01/31 15:31:50.2				
2020/01/31 15:31:50.3	109.120	0.320	-0.300	-0.340
2020/01/31 15:31:50.4	109.120	0.340	-0.320	-0.440
2020/01/31 15:31:50.5	109.120	0.360	-0.350	-0.540
2020/01/31 15:31:50.6	109.110	0.370	-0.370	-0.630
2020/01/31 15:31:50.7				
2020/01/31 15:31:50.8	109.110	0.400	-0.420	-0.810
2020/01/31 15:31:50.9	109.110	0.410	-0.440	-0.890
2020/01/31 15:31:51.0	109.110	0.420	-0.460	-0.970
2020/01/31 15:31:51.1	109.100	0.430	-0.500	-1.110
2020/01/31 15:31:51.2	109.100	0.440	-0.520	-1.180
2020/01/31 15:31:51.3	109.100	0.440	-0.530	-1.240
2020/01/31 15:31:51.4	109.100	0.450	-0.540	-1.300
2020/01/31 15:31:51.5	109.100	0.450	-0.560	-1.350
2020/01/31 15:31:51.6				
2020/01/31 15:31:51.7	109.100	0.450	-0.570	-1.400
2020/01/31 15:31:51.8	109.100	0.440	-0.570	-1.480
2020/01/31 15:31:51.9	109.100	0.430	-0.570	-1.520
2020/01/31 15:31:52.0	109.110	0.420	-0.560	-1.550
2020/01/31 15:31:52.1				
2020/01/31 15:31:52.2	109.110	0.410	-0.550	-1.580
2020/01/31 15:31:52.3	109.110	0.400	-0.530	-1.600
2020/01/31 15:31:52.4	109.110	0.380	-0.520	-1.620
2020/01/31 15:31:52.5	109.120	0.350	-0.460	-1.650
2020/01/31 15:31:52.6				
2020/01/31 15:31:52.7	109.130	0.330	-0.430	-1.660
2020/01/31 15:31:52.8	109.130	0.300	-0.390	-1.660
2020/01/31 15:31:52.9	109.140	0.280	-0.350	-1.660
2020/01/31 15:31:53.0	109.150	0.250	-0.300	-1.650
2020/01/31 15:31:53.1	109.170	0.180	-0.200	-1.630
2020/01/31 15:31:53.2				
2020/01/31 15:31:53.3	109.180	0.150	-0.150	-1.620
2020/01/31 15:31:53.4	109.190	0.110	-0.090	-1.600
2020/01/31 15:31:53.5				
2020/01/31 15:31:53.6	109.210	0.040	0.040	-1.540
2020/01/31 15:31:53.7	109.240	-0.010	0.100	-1.500
2020/01/31 15:31:53.8	109.270	-0.090	0.230	-1.420
2020/01/31 15:31:53.9				
2020/01/31 15:31:54.0	109.280	-0.130	0.300	-1.380
2020/01/31 15:31:54.1	109.320	-0.220	0.420	-1.270
2020/01/31 15:31:54.2	109.330	-0.270	0.480	-1.210
2020/01/31 15:31:54.3	109.350	-0.310	0.540	-1.150
2020/01/31 15:31:54.4	109.370	-0.350	0.600	-1.080
2020/01/31 15:31:54.5	109.380	-0.390	0.650	-1.010
2020/01/31 15:31:54.6	109.380	-0.430	0.700	-0.930
2020/01/31 15:31:54.7	109.400	-0.470	0.740	-0.850
2020/01/31 15:31:54.8				
2020/01/31 15:31:54.9	109.420	-0.510	0.780	-0.770
2020/01/31 15:31:55.0	109.430	-0.540	0.820	-0.680
2020/01/31 15:31:55.1	109.440	-0.570	0.840	-0.590
2020/01/31 15:31:55.2	109.450	-0.600	0.870	-0.500
2020/01/31 15:31:55.3	109.460	-0.630	0.880	-0.400
2020/01/31 15:31:55.4	109.480	-0.670	0.890	-0.190
2020/01/31 15:31:55.5	109.490	-0.680	0.880	-0.080
2020/01/31 15:31:55.6				
2020/01/31 15:31:55.7	109.490	-0.690	0.860	0.030
2020/01/31 15:31:55.8	109.490	-0.700	0.810	0.260
2020/01/31 15:31:55.9	109.490	-0.700	0.770	0.380
2020/01/31 15:31:56.0	109.490	-0.690	0.730	0.500
2020/01/31 15:31:56.1	109.490	-0.680	0.680	0.630
2020/01/31 15:31:56.2	109.480	-0.670	0.620	0.750
2020/01/31 15:31:56.3	109.480	-0.650	0.550	0.870
2020/01/31 15:31:56.4	109.470	-0.620	0.480	1.000
2020/01/31 15:31:56.5	109.460	-0.590	0.400	1.120
2020/01/31 15:31:56.6				
2020/01/31 15:31:56.7	109.450	-0.560	0.320	1.250
2020/01/31 15:31:56.8	109.440	-0.520	0.230	1.370
2020/01/31 15:31:56.9	109.440	-0.480	0.140	1.490
2020/01/31 15:31:57.0	109.430	-0.430	0.040	1.610
2020/01/31 15:31:57.1				
2020/01/31 15:31:57.2	109.420	-0.330	-0.160	1.830
2020/01/31 15:31:57.3	109.420	-0.220	-0.360	2.040
2020/01/31 15:31:57.4	109.420	-0.170	-0.470	2.140
2020/01/31 15:31:57.5	109.420	-0.110	-0.570	2.230
2020/01/31 15:31:57.6	109.420	-0.050	-0.670	2.320
2020/01/31 15:31:57.7	109.420	0.010	-0.760	2.410
2020/01/31 15:31:57.8				
2020/01/31 15:31:57.9	109.430	0.070	-0.860	2.490
2020/01/31 15:31:58.0	109.440	0.130	-0.950	2.570
2020/01/31 15:31:58.1	109.450	0.250	-1.120	2.720
2020/01/31 15:31:58.2	109.460	0.310	-1.200	2.780
2020/01/31 15:31:58.3	109.470	0.370	-1.270	2.850
2020/01/31 15:31:58.4	109.480	0.420	-1.340	2.910
2020/01/31 15:31:58.5	109.500	0.470	-1.400	2.970
2020/01/31 15:31:58.6	109.520	0.520	-1.450	3.030
2020/01/31 15:31:58.7	109.530	0.560	-1.490	3.080
2020/01/31 15:31:58.8				
2020/01/31 15:31:58.9	109.530	0.610	-1.530	3.130
2020/01/31 15:31:59.0				
2020/01/31 15:31:59.1	109.550	0.680	-1.580	3.230
2020/01/31 15:31:59.2	109.550	0.710	-1.590	3.280
2020/01/31 15:31:59.3	109.550	0.730	-1.600	3.320
2020/01/31 15:31:59.4	109.550	0.760	-1.590	3.360
2020/01/31 15:31:59.5	109.550	0.770	-1.580	3.410
2020/01/31 15:31:59.6	109.550	0.790	-1.560	3.440
2020/01/31 15:31:59.7	109.540	0.790	-1.530	3.490
2020/01/31 15:31:59.8	109.530	0.800	-1.490	3.520
2020/01/31 15:31:59.9	109.510	0.800	-1.440	3.550
2020/01/31 15:32:00.0	109.500	0.790	-1.390	3.580
2020/01/31 15:32:00.1	109.460	0.770	-1.260	3.620
2020/01/31 15:32:00.2	109.440	0.750	-1.190	3.630
2020/01/31 15:32:00.3	109.420	0.730	-1.110	3.640
2020/01/31 15:32:00.4	109.400	0.700	-1.030	3.640
2020/01/31 15:32:00.5				
2020/01/31 15:32:00.6	109.370	0.670	-0.940	3.630
2020/01/31 15:32:00.7	109.330	0.600	-0.740	3.600
2020/01/31 15:32:00.8				
2020/01/31 15:32:00.9	109.310	0.570	-0.640	3.570
2020/01/31 15:32:01.0	109.290	0.520	-0.530	3.530
2020/01/31 15:32:01.1	109.270	0.480	-0.420	3.480
2020/01/31 15:32:01.2	109.250	0.430	-0.320	3.430
2020/01/31 15:32:01.3	109.230	0.390	-0.210	3.370
2020/01/31 15:32:01.4	109.220	0.340	-0.100	3.300
2020/01/31 15:32:01.5	109.190	0.240	0.120	3.130
2020/01/31 15:32:01.6				
2020/01/31 15:32:01.7	109.180	0.190	0.230	3.030
2020/01/31 15:32:01.8	109.160	0.080	0.430	2.810
2020/01/31 15:32:01.9	109.160	0.030	0.530	2.690
2020/01/31 15:32:02.0				
2020/01/31 15:32:02.1	109.160	-0.020	0.620	2.570
2020/01/31 15:32:02.2	109.160	-0.070	0.710	2.440
2020/01/31 15:32:02.3	109.170	-0.160	0.860	2.150
2020/01/31 15:32:02.4				
2020/01/31 15:32:02.5	109.180	-0.210	0.930	2.010
2020/01/31 15:32:02.6	109.180	-0.250	0.990	1.850
2020/01/31 15:32:02.7				
2020/01/31 15:32:02.8	109.200	-0.340	1.090	1.540
2020/01/31 15:32:02.9	109.210	-0.370	1.130	1.380
2020/01/31 15:32:03.0	109.220	-0.410	1.160	1.230
2020/01/31 15:32:03.1	109.230	-0.440	1.180	1.070
2020/01/31 15:32:03.2	109.230	-0.470	1.200	0.910
2020/01/31 15:32:03.3	109.240	-0.500	1.200	0.750
2020/01/31 15:32:03.4				
2020/01/31 15:32:03.5	109.260	-0.540	1.190	0.450
2020/01/31 15:32:03.6	109.270	-0.560	1.170	0.300
2020/01/31 15:32:03.7	109.270	-0.570	1.140	0.150
2020/01/31 15:32:03.8	109.280	-0.590	1.110	0.010
2020/01/31 15:32:03.9	109.280	-0.590	1.060	-0.130
2020/01/31 15:32:04.0	109.290	-0.600	1.010	-0.270
2020/01/31 15:32:04.1	109.290	-0.600	0.960	-0.400
2020/01/31 15:32:04.2	109.290	-0.600	0.900	-0.530
2020/01/31 15:32:04.3	109.290	-0.600	0.830	-0.650
2020/01/31 15:32:04.4	109.300	-0.590	0.760	-0.770
2020/01/31 15:32:04.5	109.300	-0.580	0.680	-0.890
2020/01/31 15:32:04.6	109.300	-0.570	0.600	-1.010
2020/01/31 15:32:04.7	109.300	-0.560	0.510	-1.120
2020/01/31 15:32:04.8	109.300	-0.550	0.420	-1.220
2020/01/31 15:32:04.9	109.310	-0.530	0.330	-1.330
2020/01/31 15:32:05.0	109.310	-0.510	0.230	-1.430
2020/01/31 15:32:05.1	109.310	-0.470	0.040	-1.620
2020/01/31 15:32:05.2				
2020/01/31 15:32:05.3	109.310	-0.450	-0.060	-1.710
2020/01/31 15:32:05.4	109.320	-0.430	-0.160	-1.800
2020/01/31 15:32:05.5	109.320	-0.400	-0.260	-1.880
2020/01/31 15:32:05.6	109.320	-0.380	-0.350	-1.960
2020/01/31 15:32:05.7	109.330	-0.350	-0.450	-2.030
2020/01/31 15:32:05.8	109.340	-0.300	-0.640	-2.170
2020/01/31 15:32:05.9				
2020/01/31 15:32:06.0	109.340	-0.270	-0.730	-2.230
2020/01/31 15:32:06.1	109.340	-0.250	-0.820	-2.280
2020/01/31 15:32:06.2	109.350	-0.200	-0.980	-2.380
2020/01/31 15:32:06.3				
2020/01/31 15:32:06.4	109.350	-0.170	-1.050	-2.420
2020/01/31 15:32:06.5	109.350	-0.150	-1.120	-2.460
2020/01/31 15:32:06.6	109.350	-0.120	-1.180	-2.490
2020/01/31 15:32:06.7	109.360	-0.100	-1.230	-2.510
2020/01/31 15:32:06.8	109.360	-0.070	-1.280	-2.530
2020/01/31 15:32:06.9	109.360	-0.030	-1.350	-2.550
2020/01/31 15:32:07.0				
2020/01/31 15:32:07.1	109.360	-0.010	-1.380	-2.540
2020/01/31 15:32:07.2	109.360	0.010	-1.390	-2.540
2020/01/31 15:32:07.3	109.350	0.030	-1.400	-2.520
2020/01/31 15:32:07.4	109.350	0.050	-1.400	-2.500
2020/01/31 15:32:07.5	109.350	0.070	-1.390	-2.470
2020/01/31 15:32:07.6	109.350	0.080	-1.370	-2.440
2020/01/31 15:32:07.7	109.360	0.100	-1.340	-2.390
2020/01/31 15:32:07.8	109.350	0.110	-1.310	-2.350
2020/01/31 15:32:07.9	109.350	0.130	-1.270	-2.290
2020/01/31 15:32:08.0	109.350	0.140	-1.220	-2.240
2020/01/31 15:32:08.1	109.340	0.150	-1.170	-2.170
2020/01/31 15:32:08.2	109.340	0.160	-1.110	-2.100
2020/01/31 15:32:08.3	109.340	0.170	-1.040	-2.030
2020/01/31 15:32:08.4				
2020/01/31 15:32:08.5	109.340	0.180	-0.880	-1.870
2020/01/31 15:32:08.6	109.330	0.190	-0.800	-1.780
2020/01/31 15:32:08.7	109.330	0.190	-0.720	-1.680
2020/01/31 15:32:08.8	109.330	0.200	-0.630	-1.590
2020/01/31 15:32:08.9	109.330	0.200	-0.530	-1.490
2020/01/31 15:32:09.0	109.330	0.200	-0.440	-1.380
2020/01/31 15:32:09.1	109.330	0.200	-0.250	-1.170
2020/01/31 15:32:09.2	109.330	0.200	-0.150	-1.060
2020/01/31 15:32:09.3				
2020/01/31 15:32:09.4	109.340	0.200	-0.060	-0.940
2020/01/31 15:32:09.5	109.340	0.190	0.030	-0.830
2020/01/31 15:32:09.6	109.340	0.190	0.120	-0.710
2020/01/31 15:32:09.7	109.320	0.180	0.210	-0.590
2020/01/31 15:32:09.8	109.320	0.180	0.290	-0.470
2020/01/31 15:32:09.9	109.330	0.170	0.370	-0.340
2020/01/31 15:32:10.0	109.330	0.160	0.450	-0.220
2020/01/31 15:32:10.1	109.340	0.160	0.510	-0.100
2020/01/31 15:32:10.2				
2020/01/31 15:32:10.3	109.350	0.140	0.630	0.140
2020/01/31 15:32:10.4	109.350	0.130	0.690	0.260
2020/01/31 15:32:10.5	109.360	0.120	0.730	0.380
2020/01/31 15:32:10.6	109.370	0.120	0.770	0.500
2020/01/31 15:32:10.7	109.370	0.110	0.800	0.620
2020/01/31 15:32:10.8	109.380	0.100	0.830	0.740
2020/01/31 15:32:10.9	109.410	0.090	0.850	0.960
2020/01/31 15:32:11.0	109.420	0.080	0.860	1.070
2020/01/31 15:32:11.1	109.440	0.070	0.850	1.180
2020/01/31 15:32:11.2	109.450	0.070	0.840	1.280
2020/01/31 15:32:11.3				
2020/01/31 15:32:11.4	109.470	0.060	0.820	1.380
2020/01/31 15:32:11.5	109.490	0.060	0.800	1.470
2020/01/31 15:32:11.6	109.510	0.060	0.770	1.570
2020/01/31 15:32:11.7	109.530	0.060	0.730	1.660
2020/01/31 15:32:11.8	109.550	0.060	0.680	1.750
2020/01/31 15:32:11.9	109.570	0.060	0.630	1.840
2020/01/31 15:32:12.0	109.590	0.070	0.570	1.920
2020/01/31 15:32:12.1	109.610	0.070	0.510	2.000
2020/01/31 15:32:12.2	109.640	0.080	0.440	2.070
2020/01/31 15:32:12.3	109.660	0.090	0.360	2.150
2020/01/31 15:32:12.4	109.680	0.100	0.280	2.220
2020/01/31 15:32:12.5	109.700	0.110	0.200	2.280
2020/01/31 15:32:12.6	109.730	0.120	0.110	2.350
2020/01/31 15:32:12.7	109.760	0.140	0.030	2.410
2020/01/31 15:32:12.8	109.780	0.150	-0.070	2.470
2020/01/31 15:32:12.9	109.800	0.170	-0.160	2.530
2020/01/31 15:32:13.0	109.810	0.190	-0.260	2.590
2020/01/31 15:32:13.1	109.830	0.210	-0.360	2.640
2020/01/31 15:32:13.2				
2020/01/31 15:32:13.3	109.860	0.250	-0.550	2.740
2020/01/31 15:32:13.4	109.870	0.270	-0.640	2.790
2020/01/31 15:32:13.5	109.880	0.290	-0.730	2.840
2020/01/31 15:32:13.6	109.890	0.310	-0.820	2.880
2020/01/31 15:32:13.7	109.890	0.330	-0.910	2.930
2020/01/31 15:32:13.8	109.900	0.340	-0.980	2.970
2020/01/31 15:32:13.9	109.900	0.360	-1.060	3.010
2020/01/31 15:32:14.0	109.900	0.380	-1.120	3.050
2020/01/31 15:32:14.1	109.900	0.390	-1.180	3.090
2020/01/31 15:32:14.2	109.890	0.400	-1.230	3.120
2020/01/31 15:32:14.3	109.880	0.410	-1.270	3.160
2020/01/31 15:32:14.4	109.870	0.420	-1.300	3.190
2020/01/31 15:32:14.5	109.860	0.420	-1.330	3.230
2020/01/31 15:32:14.6	109.850	0.420	-1.340	3.260
2020/01/31 15:32:14.7	109.840	0.420	-1.340	3.280
2020/01/31 15:32:14.8	109.820	0.410	-1.330	3.310
2020/01/31 15:32:14.9	109.800	0.400	-1.320	3.330
2020/01/31 15:32:15.0	109.780	0.390	-1.290	3.350
2020/01/31 15:32:15.1	109.760	0.380	-1.260	3.360
2020/01/31 15:32:15.2	109.740	0.360	-1.210	3.370
2020/01/31 15:32:15.3	109.720	0.330	-1.160	3.380
2020/01/31 15:32:15.4	109.700	0.310	-1.100	3.380
2020/01/31 15:32:15.5	109.680	0.280	-1.030	3.370
2020/01/31 15:32:15.6	109.670	0.240	-0.950	3.360
2020/01/31 15:32:15.7	109.650	0.210	-0.860	3.350
2020/01/31 15:32:15.8	109.630	0.170	-0.770	3.330
2020/01/31 15:32:15.9	109.620	0.130	-0.680	3.300
2020/01/31 15:32:16.0	109.600	0.090	-0.580	3.260
2020/01/31 15:32:16.1	109.590	0.040	-0.470	3.220
2020/01/31 15:32:16.2	109.580	-0.010	-0.370	3.170
2020/01/31 15:32:16.3	109.570	-0.050	-0.260	3.110
2020/01/31 15:32:16.4	109.560	-0.100	-0.150	3.040
2020/01/31 15:32:16.5	109.560	-0.150	-0.050	2.970
2020/01/31 15:32:16.6	109.560	-0.200	0.060	2.890
2020/01/31 15:32:16.7	109.550	-0.250	0.170	2.800
2020/01/31 15:32:16.8	109.550	-0.300	0.270	2.700
2020/01/31 15:32:16.9	109.560	-0.340	0.360	2.600
2020/01/31 15:32:17.0	109.570	-0.390	0.460	2.490
2020/01/31 15:32:17.1	109.580	-0.430	0.540	2.380
2020/01/31 15:32:17.2	109.590	-0.470	0.620	2.260
2020/01/31 15:32:17.3	109.600	-0.510	0.700	2.140
2020/01/31 15:32:17.4	109.620	-0.550	0.760	2.020
2020/01/31 15:32:17.5	109.630	-0.580	0.820	1.890
2020/01/31 15:32:17.6	109.650	-0.610	0.870	1.750
2020/01/31 15:32:17.7	109.670	-0.630	0.910	1.620
2020/01/31 15:32:17.8	109.690	-0.650	0.940	1.480
2020/01/31 15:32:17.9	109.710	-0.670	0.970	1.340
2020/01/31 15:32:18.0	109.730	-0.680	0.980	1.200
2020/01/31 15:32:18.1	109.750	-0.690	0.990	1.060
2020/01/31 15:32:18.2	109.780	-0.690	0.990	0.910
2020/01/31 15:32:18.3	109.800	-0.690	0.980	0.770
2020/01/31 15:32:18.4	109.820	-0.690	0.970	0.630
2020/01/31 15:32:18.5	109.840	-0.680	0.940	0.490
2020/01/31 15:32:18.6	109.860	-0.670	0.910	0.350
2020/01/31 15:32:18.7	109.880	-0.650	0.870	0.210
2020/01/31 15:32:18.8	109.900	-0.630	0.830	0.070
2020/01/31 15:32:18.9	109.920	-0.600	0.780	-0.070
2020/01/31 15:32:19.0	109.940	-0.580	0.720	-0.200
2020/01/31 15:32:19.1	109.960	-0.540	0.660	-0.340
2020/01/31 15:32:19.2	109.970	-0.510	0.590	-0.470
2020/01/31 15:32:19.3	109.990	-0.470	0.520	-0.600
2020/01/31 15:32:19.4	110.000	-0.430	0.440	-0.730
2020/01/31 15:32:19.5	110.020	-0.390	0.360	-0.860
2020/01/31 15:32:19.6	110.030	-0.350	0.280	-0.980
2020/01/31 15:32:19.7	110.050	-0.310	0.190	-1.100
2020/01/31 15:32:19.8	110.070	-0.260	0.110	-1.220
2020/01/31 15:32:19.9	110.080	-0.210	0.020	-1.330
2020/01/31 15:32:20.0	110.090	-0.170	-0.070	-1.440
2020/01/31 15:32:20.1	110.100	-0.120	-0.160	-1.550
2020/01/31 15:32:20.2	110.110	-0.080	-0.250	-1.650
2020/01/31 15:32:20.3	110.120	-0.030	-0.340	-1.740
2020/01/31 15:32:20.4	110.130	0.010	-0.420	-1.830
2020/01/31 15:32:20.5	110.140	0.060	-0.510	-1.920
2020/01/31 15:32:20.6	110.140	0.100	-0.590	-2.000
2020/01/31 15:32:20.7	110.160	0.140	-0.680	-2.070
2020/01/31 15:32:20.8	110.160	0.180	-0.750	-2.150
2020/01/31 15:32:20.9	110.170	0.210	-0.830	-2.210
2020/01/31 15:32:21.0	110.170	0.250	-0.900	-2.270
2020/01/31 15:32:21.1	110.170	0.280	-0.970	-2.320
2020/01/31 15:32:21.2	110.180	0.310	-1.030	-2.370
2020/01/31 15:32:21.3	110.180	0.340	-1.090	-2.410
2020/01/31 15:32:21.4	110.180	0.370	-1.140	-2.450
2020/01/31 15:32:21.5	110.170	0.390	-1.190	-2.480
2020/01/31 15:32:21.6	110.170	0.410	-1.230	-2.500
2020/01/31 15:32:21.7	110.180	0.430	-1.260	-2.520
2020/01/31 15:32:21.8	110.170	0.440	-1.290	-2.530
2020/01/31 15:32:21.9	110.170	0.460	-1.310	-2.530
2020/01/31 15:32:22.0	110.160	0.470	-1.330	-2.530
2020/01/31 15:32:22.1	110.150	0.480	-1.340	-2.520
2020/01/31 15:32:22.2	110.140	0.480	-1.340	-2.510
2020/01/31 15:32:22.3	110.130	0.490	-1.330	-2.490
2020/01/31 15:32:22.4	110.110	0.490	-1.320	-2.460
2020/01/31 15:32:22.5	110.100	0.490	-1.300	-2.420
2020/01/31 15:32:22.6	110.080	0.480	-1.280	-2.380
2020/01/31 15:32:22.7	110.070	0.480	-1.250	-2.330
2020/01/31 15:32:22.8	110.050	0.470	-1.210	-2.270
2020/01/31 15:32:22.9	110.040	0.460	-1.160	-2.200
2020/01/31 15:32:23.0	110.020	0.450	-1.110	-2.130
2020/01/31 15:32:23.1	110.000	0.430	-1.060	-2.060
2020/01/31 15:32:23.2	109.990	0.420	-1.000	-1.970
2020/01/31 15:32:23.3	109.970	0.400	-0.930	-1.880
2020/01/31 15:32:23.4	109.960	0.380	-0.860	-1.780
2020/01/31 15:32:23.5	109.940	0.360	-0.780	-1.680
2020/01/31 15:32:23.6	109.930	0.340	-0.710	-1.570
2020/01/31 15:32:23.7	109.920	0.310	-0.620	-1.450
2020/01/31 15:32:23.8	109.910	0.290	-0.540	-1.320
2020/01/31 15:32:23.9	109.900	0.260	-0.450	-1.200
2020/01/31 15:32:24.0	109.890	0.230	-0.360	-1.070
2020/01/31 15:32:24.1	109.880	0.200	-0.270	-0.930
2020/01/31 15:32:24.2	109.880	0.170	-0.180	-0.800
2020/01/31 15:32:24.3	109.870	0.140	-0.080	-0.660
2020/01/31 15:32:24.4	109.870	0.110	0.010	-0.510
2020/01/31 15:32:24.5	109.870	0.080	0.100	-0.370
2020/01/31 15:32:24.6	109.870	0.040	0.190	-0.220
2020/01/31 15:32:24.7	109.860	0.010	0.280	-0.070
2020/01/31 15:32:24.8	109.860	-0.020	0.360	0.080
2020/01/31 15:32:24.9	109.860	-0.050	0.440	0.230
2020/01/31 15:32:25.0	109.870	-0.090	0.520	0.380
2020/01/31 15:32:25.1	109.880	-0.120	0.590	0.520
2020/01/31 15:32:25.2	109.890	-0.150	0.660	0.670
2020/01/31 15:32:25.3	109.900	-0.180	0.720	0.820
2020/01/31 15:32:25.4	109.910	-0.210	0.780	0.960
2020/01/31 15:32:25.5	109.930	-0.240	0.830	1.100
2020/01/31 15:32:25.6	109.940	-0.270	0.870	1.240
2020/01/31 15:32:25.7	109.950	-0.290	0.910	1.380
2020/01/31 15:32:25.8	109.970	-0.320	0.940	1.510
2020/01/31 15:32:25.9	109.980	-0.340	0.970	1.640
2020/01/31 15:32:26.0	110.000	-0.360	0.990	1.770
2020/01/31 15:32:26.1	110.010	-0.380	1.000	1.890
2020/01/31 15:32:26.2	110.030	-0.400	1.010	2.010
2020/01/31 15:32:26.3	110.050	-0.420	1.010	2.130
2020/01/31 15:32:26.4	110.060	-0.440	1.000	2.240
2020/01/31 15:32:26.5	110.080	-0.450	0.990	2.350
2020/01/31 15:32:26.6	110.100	-0.460	0.980	2.460
2020/01/31 15:32:26.7	110.120	-0.470	0.950	2.560
2020/01/31 15:32:26.8	110.130	-0.470	0.920	2.660
2020/01/31 15:32:26.9	110.150	-0.480	0.890	2.760
2020/01/31 15:32:27.0	110.160	-0.480	0.850	2.850
2020/01/31 15:32:27.1	110.170	-0.480	0.800	2.940
2020/01/31 15:32:27.2	110.180	-0.470	0.750	3.020
2020/01/31 15:32:27.3	110.190	-0.460	0.690	3.100
2020/01/31 15:32:27.4	110.200	-0.450	0.630	3.180
2020/01/31 15:32:27.5	110.210	-0.440	0.560	3.250
2020/01/31 15:32:27.6	110.220	-0.430	0.490	3.320
2020/01/31 15:32:27.7	110.220	-0.410	0.420	3.390
2020/01/31 15:32:27.8	110.220	-0.390	0.340	3.460
2020/01/31 15:32:27.9	110.230	-0.360	0.260	3.520
2020/01/31 15:32:28.0	110.230	-0.340	0.170	3.570
2020/01/31 15:32:28.1	110.220	-0.310	0.090	3.630
2020/01/31 15:32:28.2	110.220	-0.280	-0.000	3.680
2020/01/31 15:32:28.3	110.210	-0.250	-0.100	3.720
2020/01/31 15:32:28.4	110.210	-0.220	-0.190	3.760
2020/01/31 15:32:28.5	110.200	-0.180	-0.280	3.800
2020/01/31 15:32:28.6	110.180	-0.140	-0.380	3.830
2020/01/31 15:32:28.7	110.180	-0.100	-0.470	3.860
2020/01/31 15:32:28.8	110.160	-0.060	-0.560	3.880
2020/01/31 15:32:28.9	110.150	-0.020	-0.650	3.900
2020/01/31 15:32:29.0	110.130	0.020	-0.740	3.920
2020/01/31 15:32:29.1	110.120	0.060	-0.830	3.930
2020/01/31 15:32:29.2	110.100	0.100	-0.910	3.930
2020/01/31 15:32:29.3	110.080	0.150	-0.990	3.930
2020/01/31 15:32:29.4	110.060	0.190	-1.060	3.920
2020/01/31 15:32:29.5	110.040	0.230	-1.130	3.910
2020/01/31 15:32:29.6	110.020	0.280	-1.200	3.890
2020/01/31 15:32:29.7	110.000	0.320	-1.250	3.860
2020/01/31 15:32:29.8	109.980	0.360	-1.300	3.840
2020/01/31 15:32:29.9	109.950	0.400	-1.350	3.800
2020/01/31 15:32:30.0	109.930	0.440	-1.390	3.760
2020/01/31 15:32:30.1	109.910	0.480	-1.410	3.710
2020/01/31 15:32:30.2	109.890	0.510	-1.440	3.660
2020/01/31 15:32:30.3	109.870	0.550	-1.450	3.600
2020/01/31 15:32:30.4	109.850	0.580	-1.460	3.530
2020/01/31 15:32:30.5	109.830	0.610	-1.450	3.460
2020/01/31 15:32:30.6	109.810	0.630	-1.440	3.380
2020/01/31 15:32:30.7	109.790	0.660	-1.420	3.290
2020/01/31 15:32:30.8	109.770	0.680	-1.400	3.200
2020/01/31 15:32:30.9	109.760	0.700	-1.360	3.100
2020/01/31 15:32:31.0	109.740	0.720	-1.320	3.000
2020/01/31 15:32:31.1	109.730	0.730	-1.280	2.890
2020/01/31 15:32:31.2	109.720	0.740	-1.220	2.770
2020/01/31 15:32:31.3	109.710	0.750	-1.160	2.650
2020/01/31 15:32:31.4	109.710	0.750	-1.090	2.520
2020/01/31 15:32:31.5	109.700	0.750	-1.020	2.390
2020/01/31 15:32:31.6	109.700	0.750	-0.940	2.250
2020/01/31 15:32:31.7	109.700	0.740	-0.860	2.100
2020/01/31 15:32:31.8	109.710	0.730	-0.780	1.950
2020/01/31 15:32:31.9	109.710	0.720	-0.690	1.800
2020/01/31 15:32:32.0	109.720	0.700	-0.600	1.640
2020/01/31 15:32:32.1	109.730	0.680	-0.500	1.480
2020/01/31 15:32:32.2	109.740	0.650	-0.410	1.310
2020/01/31 15:32:32.3	109.750	0.620	-0.320	1.150
2020/01/31 15:32:32.4	109.760	0.590	-0.220	0.980
2020/01/31 15:32:32.5	109.770	0.560	-0.120	0.820
2020/01/31 15:32:32.6	109.780	0.520	-0.030	0.650
2020/01/31 15:32:32.7	109.800	0.480	0.060	0.480
2020/01/31 15:32:32.8	109.810	0.430	0.150	0.320
2020/01/31 15:32:32.9	109.820	0.390	0.240	0.150
2020/01/31 15:32:33.0	109.840	0.340	0.330	-0.000
2020/01/31 15:32:33.1	109.850	0.290	0.410	-0.160
2020/01/31 15:32:33.2	109.860	0.240	0.490	-0.310
2020/01/31 15:32:33.3	109.870	0.180	0.560	-0.460
2020/01/31 15:32:33.4	109.870	0.130	0.630	-0.610
2020/01/31 15:32:33.5	109.880	0.080	0.700	-0.750
2020/01/31 15:32:33.6	109.890	0.020	0.750	-0.880
2020/01/31 15:32:33.7	109.880	-0.030	0.810	-1.010
2020/01/31 15:32:33.8	109.880	-0.090	0.860	-1.130
2020/01/31 15:32:33.9	109.880	-0.140	0.900	-1.250
2020/01/31 15:32:34.0	109.880	-0.200	0.930	-1.370
2020/01/31 15:32:34.1	109.880	-0.250	0.960	-1.480
2020/01/31 15:32:34.2	109.880	-0.300	0.980	-1.580
2020/01/31 15:32:34.3	109.870	-0.350	1.000	-1.680
2020/01/31 15:32:34.4	109.870	-0.400	1.010	-1.780
2020/01/31 15:32:34.5	109.860	-0.450	1.010	-1.870
2020/01/31 15:32:34.6	109.850	-0.490	1.000	-1.950
2020/01/31 15:32:34.7	109.850	-0.530	0.990	-2.030
2020/01/31 15:32:34.8	109.840	-0.570	0.970	-2.100
2020/01/31 15:32:34.9	109.830	-0.600	0.940	-2.160
2020/01/31 15:32:35.0	109.820	-0.630	0.910	-2.220
2020/01/31 15:32:35.1	109.810	-0.660	0.860	-2.280
2020/01/31 15:32:35.2	109.800	-0.680	0.810	-2.320
2020/01/31 15:32:35.3	109.790	-0.700	0.760	-2.370
2020/01/31 15:32:35.4	109.780	-0.720	0.690	-2.400
2020/01/31 15:32:35.5	109.770	-0.730	0.620	-2.430
2020/01/31 15:32:35.6	109.750	-0.740	0.550	-2.460
2020/01/31 15:32:35.7	109.730	-0.740	0.470	-2.480
2020/01/31 15:32:35.8	109.720	-0.750	0.380	-2.490
2020/01/31 15:32:35.9	109.700	-0.740	0.290	-2.500
2020/01/31 15:32:36.0	109.690	-0.740	0.190	-2.500
2020/01/31 15:32:36.1	109.680	-0.730	0.100	-2.490
2020/01/31 15:32:36.2	109.670	-0.720	-0.000	-2.480
2020/01/31 15:32:36.3	109.660	-0.700	-0.110	-2.470
2020/01/31 15:32:36.4	109.650	-0.680	-0.210	-2.450
2020/01/31 15:32:36.5	109.650	-0.660	-0.310	-2.420
2020/01/31 15:32:36.6	109.640	-0.640	-0.410	-2.380
2020/01/31 15:32:36.7	109.630	-0.610	-0.510	-2.340
2020/01/31 15:32:36.8	109.620	-0.580	-0.610	-2.290
2020/01/31 15:32:36.9	109.620	-0.550	-0.710	-2.240
2020/01/31 15:32:37.0	109.610	-0.520	-0.800	-2.190
2020/01/31 15:32:37.1	109.610	-0.480	-0.880	-2.120
2020/01/31 15:32:37.2	109.600	-0.450	-0.960	-2.050
2020/01/31 15:32:37.3	109.590	-0.410	-1.040	-1.980
2020/01/31 15:32:37.4	109.590	-0.370	-1.100	-1.900
2020/01/31 15:32:37.5	109.580	-0.330	-1.160	-1.820
2020/01/31 15:32:37.6	109.580	-0.290	-1.220	-1.730
2020/01/31 15:32:37.7	109.570	-0.250	-1.260	-1.630
2020/01/31 15:32:37.8	109.560	-0.210	-1.300	-1.530
2020/01/31 15:32:37.9	109.560	-0.170	-1.330	-1.430
2020/01/31 15:32:38.0	109.550	-0.130	-1.350	-1.330
2020/01/31 15:32:38.1	109.550	-0.090	-1.360	-1.220
2020/01/31 15:32:38.2	109.540	-0.060	-1.360	-1.110
2020/01/31 15:32:38.3	109.540	-0.020	-1.350	-1.000
2020/01/31 15:32:38.4	109.530	0.020	-1.330	-0.880
2020/01/31 15:32:38.5	109.520	0.050	-1.310	-0.770
2020/01/31 15:32:38.6	109.510	0.090	-1.280	-0.650
2020/01/31 15:32:38.7	109.500	0.120	-1.240	-0.530
2020/01/31 15:32:38.8	109.490	0.150	-1.190	-0.410
2020/01/31 15:32:38.9	109.480	0.180	-1.140	-0.290
2020/01/31 15:32:39.0	109.470	0.210	-1.080	-0.160
2020/01/31 15:32:39.1	109.460	0.240	-1.010	-0.040
2020/01/31 15:32:39.2	109.450	0.260	-0.940	0.080
2020/01/31 15:32:39.3	109.440	0.280	-0.870	0.200
2020/01/31 15:32:39.4	109.430	0.300	-0.790	0.320
2020/01/31 15:32:39.5	109.420	0.320	-0.710	0.440
2020/01/31 15:32:39.6	109.400	0.330	-0.630	0.560
2020/01/31 15:32:39.7	109.390	0.340	-0.550	0.680
2020/01/31 15:32:39.8	109.380	0.350	-0.460	0.790
2020/01/31 15:32:39.9	109.370	0.360	-0.380	0.900
2020/01/31 15:32:40.0	109.350	0.360	-0.290	1.010
2020/01/31 15:32:40.1	109.340	0.370	-0.210	1.120
2020/01/31 15:32:40.2	109.330	0.370	-0.130	1.220
2020/01/31 15:32:40.3	109.320	0.360	-0.040	1.320
2020/01/31 15:32:40.4	109.310	0.360	0.030	1.410
2020/01/31 15:32:40.5	109.300	0.350	0.110	1.500
2020/01/31 15:32:40.6	109.290	0.340	0.180	1.590
2020/01/31 15:32:40.7	109.290	0.330	0.250	1.670
2020/01/31 15:32:40.8	109.280	0.320	0.320	1.750
2020/01/31 15:32:40.9	109.280	0.300	0.380	1.820
2020/01/31 15:32:41.0	109.270	0.290	0.430	1.890
2020/01/31 15:32:41.1	109.270	0.270	0.480	1.950
2020/01/31 15:32:41.2	109.270	0.250	0.530	2.010
2020/01/31 15:32:41.3	109.270	0.230	0.570	2.060
2020/01/31 15:32:41.4	109.270	0.210	0.600	2.100
2020/01/31 15:32:41.5	109.280	0.190	0.630	2.150
2020/01/31 15:32:41.6	109.280	0.170	0.650	2.180
2020/01/31 15:32:41.7	109.280	0.150	0.670	2.220
2020/01/31 15:32:41.8	109.290	0.130	0.670	2.250
2020/01/31 15:32:41.9	109.300	0.110	0.680	2.270
2020/01/31 15:32:42.0	109.310	0.090	0.670	2.290
2020/01/31 15:32:42.1	109.320	0.070	0.660	2.310
2020/01/31 15:32:42.2	109.330	0.050	0.650	2.330
2020/01/31 15:32:42.3	109.340	0.030	0.630	2.340
2020/01/31 15:32:42.4	109.350	0.020	0.600	2.360
2020/01/31 15:32:42.5	109.360	-0.000	0.570	2.370
2020/01/31 15:32:42.6	109.370	-0.010	0.530	2.370
2020/01/31 15:32:42.7	109.380	-0.030	0.490	2.380
2020/01/31 15:32:42.8	109.390	-0.040	0.450	2.390
2020/01/31 15:32:42.9	109.400	-0.050	0.400	2.390
2020/01/31 15:32:43.0	109.410	-0.050	0.350	2.390
2020/01/31 15:32:43.1	109.420	-0.060	0.300	2.390
2020/01/31 15:32:43.2	109.430	-0.070	0.250	2.380
2020/01/31 15:32:43.3	109.430	-0.070	0.190	2.380
2020/01/31 15:32:43.4	109.440	-0.070	0.140	2.370
2020/01/31 15:32:43.5	109.450	-0.070	0.080	2.360
2020/01/31 15:32:43.6	109.450	-0.070	0.030	2.350
2020/01/31 15:32:43.7	109.460	-0.070	-0.020	2.340
2020/01/31 15:32:43.8	109.460	-0.070	-0.070	2.320
2020/01/31 15:32:43.9	109.460	-0.070	-0.120	2.300
2020/01/31 15:32:44.0	109.460	-0.060	-0.170	2.280
2020/01/31 15:32:44.1	109.460	-0.060	-0.220	2.260
2020/01/31 15:32:44.2	109.460	-0.050	-0.270	2.240
2020/01/31 15:32:44.3	109.450	-0.050	-0.310	2.220
2020/01/31 15:32:44.4	109.450	-0.040	-0.350	2.190
2020/01/31 15:32:44.5	109.440	-0.040	-0.380	2.160
2020/01/31 15:32:44.6	109.430	-0.030	-0.410	2.130
2020/01/31 15:32:44.7	109.420	-0.020	-0.440	2.100
2020/01/31 15:32:44.8	109.400	-0.020	-0.470	2.060
2020/01/31 15:32:44.9	109.390	-0.010	-0.490	2.030
2020/01/31 15:32:45.0	109.370	-0.010	-0.510	1.990
2020/01/31 15:32:45.1	109.350	-0.000	-0.520	1.950
2020/01/31 15:32:45.2	109.330	0.000	-0.530	1.900
2020/01/31 15:32:45.3	109.310	0.010	-0.530	1.860
2020/01/31 15:32:45.4	109.280	0.010	-0.540	1.810
2020/01/31 15:32:45.5	109.260	0.010	-0.540	1.760
2020/01/31 15:32:45.6	109.230	0.020	-0.530	1.710
2020/01/31 15:32:45.7	109.210	0.020	-0.520	1.660
2020/01/31 15:32:45.8	109.190	0.020	-0.520	1.600
2020/01/31 15:32:45.9	109.160	0.030	-0.510	1.540
2020/01/31 15:32:46.0	109.140	0.030	-0.500	1.480
2020/01/31 15:32:46.1	109.110	0.030	-0.490	1.420
2020/01/31 15:32:46.2	109.090	0.030	-0.470	1.360
2020/01/31 15:32:46.3	109.060	0.040	-0.460	1.290
2020/01/31 15:32:46.4	109.040	0.040	-0.450	1.230
2020/01/31 15:32:46.5	109.020	0.040	-0.440	1.160
2020/01/31 15:32:46.6	109.000	0.050	-0.420	1.090
2020/01/31 15:32:46.7	108.990	0.050	-0.410	1.020
2020/01/31 15:32:46.8	108.970	0.060	-0.400	0.950
2020/01/31 15:32:46.9	108.950	0.060	-0.390	0.870
2020/01/31 15:32:47.0	108.930	0.070	-0.380	0.800
2020/01/31 15:32:47.1	108.920	0.070	-0.380	0.720
2020/01/31 15:32:47.2	108.900	0.080	-0.370	0.640
2020/01/31 15:32:47.3	108.890	0.090	-0.370	0.560
2020/01/31 15:32:47.4	108.880	0.100	-0.370	0.480
2020/01/31 15:32:47.5	108.870	0.100	-0.370	0.400
2020/01/31 15:32:47.6	108.860	0.110	-0.370	0.320
2020/01/31 15:32:47.7	108.860	0.120	-0.360	0.240
2020/01/31 15:32:47.8	108.860	0.130	-0.370	0.150
2020/01/31 15:32:47.9	108.860	0.140	-0.370	0.060
2020/01/31 15:32:48.0	108.860	0.160	-0.380	-0.020
2020/01/31 15:32:48.1	108.860	0.170	-0.380	-0.110
2020/01/31 15:32:48.2	108.860	0.180	-0.390	-0.200
2020/01/31 15:32:48.3	108.870	0.190	-0.390	-0.290
2020/01/31 15:32:48.4	108.880	0.200	-0.400	-0.370
2020/01/31 15:32:48.5	108.890	0.210	-0.400	-0.460
2020/01/31 15:32:48.6	108.900	0.220	-0.400	-0.550
2020/01/31 15:32:48.7	108.900	0.230	-0.400	-0.630
2020/01/31 15:32:48.8	108.910	0.230	-0.400	-0.710
2020/01/31 15:32:48.9	108.930	0.240	-0.400	-0.800
2020/01/31 15:32:49.0	108.940	0.250	-0.390	-0.880
2020/01/31 15:32:49.1	108.960	0.250	-0.390	-0.950
2020/01/31 15:32:49.2	108.980	0.250	-0.370	-1.030
2020/01/31 15:32:49.3	108.990	0.260	-0.360	-1.100
2020/01/31 15:32:49.4	109.010	0.260	-0.340	-1.160
2020/01/31 15:32:49.5	109.030	0.260	-0.320	-1.220
2020/01/31 15:32:49.6	109.040	0.260	-0.300	-1.280
2020/01/31 15:32:49.7	109.060	0.250	-0.270	-1.330
2020/01/31 15:32:49.8	109.080	0.250	-0.250	-1.370
2020/01/31 15:32:49.9	109.090	0.240	-0.220	-1.410
2020/01/31 15:32:50.0	109.100	0.230	-0.190	-1.440
2020/01/31 15:32:50.1	109.120	0.220	-0.150	-1.470
2020/01/31 15:32:50.2	109.130	0.210	-0.120	-1.490
2020/01/31 15:32:50.3	109.140	0.200	-0.090	-1.510
2020/01/31 15:32:50.4	109.150	0.190	-0.050	-1.520
2020/01/31 15:32:50.5	109.150	0.170	-0.010	-1.520
2020/01/31 15:32:50.6	109.160	0.150	0.020	-1.510
2020/01/31 15:32:50.7	109.160	0.140	0.060	-1.500
2020/01/31 15:32:50.8	109.160	0.120	0.090	-1.480
2020/01/31 15:32:50.9	109.160	0.100	0.120	-1.450
2020/01/31 15:32:51.0	109.160	0.080	0.160	-1.420
2020/01/31 15:32:51.1	109.150	0.060	0.190	-1.390
2020/01/31 15:32:51.2	109.150	0.040	0.210	-1.340
2020/01/31 15:32:51.3	109.140	0.010	0.240	-1.300
2020/01/31 15:32:51.4	109.140	-0.010	0.260	-1.240
2020/01/31 15:32:51.5	109.130	-0.030	0.270	-1.190
2020/01/31 15:32:51.6	109.120	-0.050	0.290	-1.120
2020/01/31 15:32:51.7	109.110	-0.080	0.300	-1.060
2020/01/31 15:32:51.8	109.100	-0.100	0.300	-0.980
2020/01/31 15:32:51.9	109.090	-0.120	0.300	-0.910
2020/01/31 15:32:52.0	109.080	-0.140	0.300	-0.840
2020/01/31 15:32:52.1	109.070	-0.170	0.290	-0.760
2020/01/31 15:32:52.2	109.060	-0.190	0.280	-0.670
2020/01/31 15:32:52.3	109.050	-0.210	0.260	-0.590
2020/01/31 15:32:52.4	109.040	-0.230	0.240	-0.500
2020/01/31 15:32:52.5	109.030	-0.240	0.220	-0.410
2020/01/31 15:32:52.6	109.020	-0.260	0.190	-0.320
2020/01/31 15:32:52.7	109.000	-0.280	0.160	-0.220
2020/01/31 15:32:52.8	108.990	-0.290	0.120	-0.130
2020/01/31 15:32:52.9	108.970	-0.300	0.090	-0.030
2020/01/31 15:32:53.0	108.960	-0.310	0.050	0.070
2020/01/31 15:32:53.1	108.950	-0.320	0.000	0.170
2020/01/31 15:32:53.2	108.940	-0.330	-0.040	0.280
2020/01/31 15:32:53.3	108.920	-0.340	-0.080	0.380
2020/01/31 15:32:53.4	108.910	-0.350	-0.130	0.490
2020/01/31 15:32:53.5	108.890	-0.350	-0.170	0.600
2020/01/31 15:32:53.6	108.880	-0.350	-0.210	0.710
2020/01/31 15:32:53.7	108.860	-0.360	-0.260	0.820
2020/01/31 15:32:53.8	108.840	-0.360	-0.300	0.940
2020/01/31 15:32:53.9	108.830	-0.360	-0.340	1.050
2020/01/31 15:32:54.0	108.810	-0.350	-0.380	1.170
2020/01/31 15:32:54.1	108.790	-0.350	-0.420	1.280
2020/01/31 15:32:54.2	108.770	-0.340	-0.450	1.400
2020/01/31 15:32:54.3	108.750	-0.340	-0.480	1.510
2020/01/31 15:32:54.4	108.730	-0.330	-0.510	1.620
2020/01/31 15:32:54.5	108.710	-0.320	-0.530	1.730
2020/01/31 15:32:54.6	108.700	-0.320	-0.550	1.840
2020/01/31 15:32:54.7	108.680	-0.310	-0.570	1.950
2020/01/31 15:32:54.8	108.660	-0.300	-0.580	2.050
2020/01/31 15:32:54.9	108.640	-0.290	-0.590	2.150
2020/01/31 15:32:55.0	108.630	-0.270	-0.600	2.240
2020/01/31 15:32:55.1	108.610	-0.260	-0.600	2.330
2020/01/31 15:32:55.2	108.600	-0.250	-0.600	2.410
2020/01/31 15:32:55.3	108.580	-0.240	-0.590	2.480
2020/01/31 15:32:55.4	108.570	-0.220	-0.590	2.550
2020/01/31 15:32:55.5	108.560	-0.210	-0.570	2.620
2020/01/31 15:32:55.6	108.560	-0.190	-0.560	2.680
2020/01/31 15:32:55.7	108.540	-0.180	-0.540	2.730
2020/01/31 15:32:55.8	108.540	-0.160	-0.520	2.780
2020/01/31 15:32:55.9	108.540	-0.140	-0.500	2.820
2020/01/31 15:32:56.0	108.530	-0.130	-0.480	2.850
2020/01/31 15:32:56.1	108.530	-0.110	-0.450	2.880
2020/01/31 15:32:56.2	108.530	-0.090	-0.420	2.900
2020/01/31 15:32:56.3	108.530	-0.080	-0.400	2.920
2020/01/31 15:32:56.4	108.530	-0.060	-0.370	2.930
2020/01/31 15:32:56.5	108.540	-0.040	-0.340	2.940
2020/01/31 15:32:56.6	108.540	-0.030	-0.310	2.940
2020/01/31 15:32:56.7	108.550	-0.010	-0.280	2.940
2020/01/31 15:32:56.8	108.550	0.010	-0.250	2.930
2020/01/31 15:32:56.9	108.560	0.020	-0.230	2.920
2020/01/31 15:32:57.0	108.560	0.040	-0.200	2.900
2020/01/31 15:32:57.1	108.570	0.050	-0.170	2.880
2020/01/31 15:32:57.2	108.570	0.060	-0.150	2.850
2020/01/31 15:32:57.3	108.580	0.080	-0.120	2.820
2020/01/31 15:32:57.4	108.580	0.090	-0.100	2.780
2020/01/31 15:32:57.5	108.590	0.100	-0.080	2.740
2020/01/31 15:32:57.6	108.590	0.110	-0.050	2.700
2020/01/31 15:32:57.7	108.600	0.110	-0.030	2.650
2020/01/31 15:32:57.8	108.600	0.120	-0.010	2.590
2020/01/31 15:32:57.9	108.610	0.130	0.010	2.540
2020/01/31 15:32:58.0	108.610	0.130	0.030	2.480
2020/01/31 15:32:58.1	108.620	0.130	0.040	2.410
2020/01/31 15:32:58.2	108.620	0.130	0.060	2.350
2020/01/31 15:32:58.3	108.620	0.130	0.080	2.270
2020/01/31 15:32:58.4	108.630	0.130	0.090	2.200
2020/01/31 15:32:58.5	108.630	0.130	0.100	2.120
2020/01/31 15:32:58.6	108.630	0.130	0.110	2.040
2020/01/31 15:32:58.7	108.650	0.120	0.120	1.960
2020/01/31 15:32:58.8	108.650	0.120	0.130	1.880
2020/01/31 15:32:58.9	108.650	0.110	0.140	1.790
2020/01/31 15:32:59.0	108.650	0.110	0.140	1.700
2020/01/31 15:32:59.1	108.650	0.100	0.150	1.600
2020/01/31 15:32:59.2	108.650	0.090	0.150	1.510
2020/01/31 15:32:59.3	108.650	0.090	0.150	1.410
2020/01/31 15:32:59.4	108.650	0.080	0.150	1.320
2020/01/31 15:32:59.5	108.640	0.080	0.140	1.220
2020/01/31 15:32:59.6	108.630	0.070	0.130	1.120
2020/01/31 15:32:59.7	108.630	0.070	0.120	1.020
2020/01/31 15:32:59.8	108.620	0.060	0.110	0.920
2020/01/31 15:32:59.9	108.610	0.060	0.100	0.820
2020/01/31 15:33:00.0	108.590	0.060	0.080	0.720
2020/01/31 15:33:00.1	108.580	0.050	0.060	0.630
2020/01/31 15:33:00.2	108.570	0.050	0.030	0.530
2020/01/31 15:33:00.3	108.550	0.060	0.010	0.430
2020/01/31 15:33:00.4	108.540	0.060	-0.020	0.330
2020/01/31 15:33:00.5	108.520	0.060	-0.050	0.230
2020/01/31 15:33:00.6	108.500	0.070	-0.090	0.140
2020/01/31 15:33:00.7	108.480	0.070	-0.120	0.040
2020/01/31 15:33:00.8	108.460	0.080	-0.160	-0.050
2020/01/31 15:33:00.9	108.440	0.090	-0.200	-0.140
2020/01/31 15:33:01.0	108.420	0.100	-0.240	-0.230
2020/01/31 15:33:01.1	108.400	0.110	-0.280	-0.320
2020/01/31 15:33:01.2	108.380	0.130	-0.320	-0.410
2020/01/31 15:33:01.3	108.360	0.140	-0.360	-0.500
2020/01/31 15:33:01.4	108.340	0.150	-0.390	-0.580
2020/01/31 15:33:01.5	108.320	0.170	-0.430	-0.660
2020/01/31 15:33:01.6	108.300	0.190	-0.470	-0.750
2020/01/31 15:33:01.7	108.280	0.200	-0.500	-0.820
2020/01/31 15:33:01.8	108.260	0.220	-0.540	-0.900
2020/01/31 15:33:01.9	108.240	0.230	-0.570	-0.970
2020/01/31 15:33:02.0	108.230	0.250	-0.600	-1.050
2020/01/31 15:33:02.1	108.210	0.270	-0.620	-1.120
2020/01/31 15:33:02.2	108.200	0.280	-0.650	-1.180
2020/01/31 15:33:02.3	108.190	0.300	-0.670	-1.240
2020/01/31 15:33:02.4	108.180	0.310	-0.680	-1.300
2020/01/31 15:33:02.5	108.160	0.320	-0.690	-1.360
2020/01/31 15:33:02.6	108.160	0.330	-0.700	-1.410
2020/01/31 15:33:02.7	108.150	0.340	-0.710	-1.450
2020/01/31 15:33:02.8	108.140	0.350	-0.710	-1.490
2020/01/31 15:33:02.9	108.130	0.350	-0.700	-1.530
2020/01/31 15:33:03.0	108.120	0.360	-0.690	-1.560
2020/01/31 15:33:03.1	108.110	0.360	-0.680	-1.580
2020/01/31 15:33:03.2	108.100	0.360	-0.660	-1.600
2020/01/31 15:33:03.3	108.100	0.350	-0.640	-1.610
2020/01/31 15:33:03.4	108.090	0.350	-0.620	-1.620
2020/01/31 15:33:03.5	108.080	0.340	-0.590	-1.620
2020/01/31 15:33:03.6	108.070	0.330	-0.560	-1.610
2020/01/31 15:33:03.7	108.070	0.320	-0.520	-1.600
2020/01/31 15:33:03.8	108.060	0.300	-0.480	-1.580
2020/01/31 15:33:03.9	108.050	0.290	-0.440	-1.560
2020/01/31 15:33:04.0	108.050	0.270	-0.400	-1.530
2020/01/31 15:33:04.1	108.040	0.250	-0.350	-1.500
2020/01/31 15:33:04.2	108.040	0.220	-0.310	-1.470
2020/01/31 15:33:04.3	108.040	0.200	-0.260	-1.430
2020/01/31 15:33:04.4	108.040	0.170	-0.210	-1.380
2020/01/31 15:33:04.5	108.030	0.150	-0.160	-1.340
2020/01/31 15:33:04.6	108.030	0.120	-0.110	-1.290
2020/01/31 15:33:04.7	108.040	0.090	-0.050	-1.230
2020/01/31 15:33:04.8	108.040	0.060	0.000	-1.170
2020/01/31 15:33:04.9	108.040	0.030	0.050	-1.120
2020/01/31 15:33:05.0	108.040	0.000	0.100	-1.050
2020/01/31 15:33:05.1	108.050	-0.020	0.150	-0.990
2020/01/31 15:33:05.2	108.050	-0.050	0.200	-0.920
2020/01/31 15:33:05.3	108.060	-0.080	0.240	-0.850
2020/01/31 15:33:05.4	108.060	-0.110	0.280	-0.780
2020/01/31 15:33:05.5	108.070	-0.130	0.320	-0.710
2020/01/31 15:33:05.6	108.070	-0.160	0.360	-0.640
2020/01/31 15:33:05.7	108.080	-0.180	0.390	-0.550
2020/01/31 15:33:05.8	108.080	-0.200	0.420	-0.470
2020/01/31 15:33:05.9	108.090	-0.220	0.440	-0.400
2020/01/31 15:33:06.0	108.090	-0.240	0.460	-0.320
2020/01/31 15:33:06.1	108.090	-0.260	0.480	-0.240
2020/01/31 15:33:06.2	108.100	-0.270	0.490	-0.160
2020/01/31 15:33:06.3	108.100	-0.280	0.500	-0.070
2020/01/31 15:33:06.4	108.100	-0.300	0.500	0.010
2020/01/31 15:33:06.5	108.110	-0.300	0.490	0.090
2020/01/31 15:33:06.6	108.110	-0.310	0.490	0.180
2020/01/31 15:33:06.7	108.110	-0.310	0.470	0.260
2020/01/31 15:33:06.8	108.110	-0.320	0.460	0.350
2020/01/31 15:33:06.9	108.110	-0.320	0.430	0.430
2020/01/31 15:33:07.0	108.110	-0.310	0.410	0.520
2020/01/31 15:33:07.1	108.110	-0.310	0.370	0.610
2020/01/31 15:33:07.2	108.110	-0.300	0.340	0.700
2020/01/31 15:33:07.3	108.110	-0.300	0.300	0.790
2020/01/31 15:33:07.4	108.110	-0.290	0.250	0.880
2020/01/31 15:33:07.5	108.110	-0.280	0.210	0.970
2020/01/31 15:33:07.6	108.100	-0.270	0.160	1.060
2020/01/31 15:33:07.7	108.090	-0.250	0.100	1.150
2020/01/31 15:33:07.8	108.090	-0.240	0.050	1.250
2020/01/31 15:33:07.9	108.080	-0.230	-0.010	1.340
2020/01/31 15:33:08.0	108.070	-0.210	-0.060	1.430
2020/01/31 15:33:08.1	108.060	-0.200	-0.120	1.530
2020/01/31 15:33:08.2	108.050	-0.180	-0.170	1.620
2020/01/31 15:33:08.3	108.040	-0.170	-0.230	1.710
2020/01/31 15:33:08.4	108.030	-0.150	-0.290	1.800
2020/01/31 15:33:08.5	108.020	-0.140	-0.340	1.890
2020/01/31 15:33:08.6	108.010	-0.120	-0.390	1.980
2020/01/31 15:33:08.7	108.000	-0.110	-0.440	2.070
2020/01/31 15:33:08.8	107.980	-0.100	-0.490	2.160
2020/01/31 15:33:08.9	107.970	-0.080	-0.540	2.240
2020/01/31 15:33:09.0	107.950	-0.070	-0.580	2.320
2020/01/31 15:33:09.1	107.930	-0.060	-0.620	2.400
2020/01/31 15:33:09.2	107.920	-0.050	-0.650	2.480
2020/01/31 15:33:09.3	107.900	-0.040	-0.680	2.550
2020/01/31 15:33:09.4	107.880	-0.040	-0.710	2.620
2020/01/31 15:33:09.5	107.860	-0.030	-0.730	2.690
2020/01/31 15:33:09.6	107.840	-0.030	-0.750	2.750
2020/01/31 15:33:09.7	107.830	-0.030	-0.760	2.810
2020/01/31 15:33:09.8	107.810	-0.020	-0.770	2.870
2020/01/31 15:33:09.9	107.790	-0.020	-0.780	2.920
2020/01/31 15:33:10.0	107.770	-0.030	-0.780	2.970
2020/01/31 15:33:10.1	107.750	-0.030	-0.770	3.010
2020/01/31 15:33:10.2	107.730	-0.030	-0.760	3.050
2020/01/31 15:33:10.3	107.710	-0.040	-0.750	3.080
2020/01/31 15:33:10.4	107.690	-0.050	-0.730	3.110
2020/01/31 15:33:10.5	107.680	-0.050	-0.710	3.130
2020/01/31 15:33:10.6	107.660	-0.060	-0.690	3.150
2020/01/31 15:33:10.7	107.640	-0.070	-0.660	3.160
2020/01/31 15:33:10.8	107.620	-0.080	-0.630	3.170
2020/01/31 15:33:10.9	107.610	-0.090	-0.600	3.170
2020/01/31 15:33:11.0	107.590	-0.100	-0.570	3.170
2020/01/31 15:33:11.1	107.580	-0.110	-0.540	3.160
2020/01/31 15:33:11.2	107.570	-0.120	-0.510	3.150
2020/01/31 15:33:11.3	107.560	-0.130	-0.470	3.130
2020/01/31 15:33:11.4	107.550	-0.140	-0.440	3.100
2020/01/31 15:33:11.5	107.540	-0.150	-0.400	3.070
2020/01/31 15:33:11.6	107.530	-0.150	-0.370	3.040
2020/01/31 15:33:11.7	107.530	-0.160	-0.340	3.000
2020/01/31 15:33:11.8	107.520	-0.170	-0.300	2.950
2020/01/31 15:33:11.9	107.520	-0.170	-0.270	2.890
2020/01/31 15:33:12.0	107.520	-0.170	-0.240	2.830
2020/01/31 15:33:12.1	107.530	-0.170	-0.210	2.760
2020/01/31 15:33:12.2	107.530	-0.170	-0.180	2.690
2020/01/31 15:33:12.3	107.540	-0.170	-0.160	2.610
2020/01/31 15:33:12.4	107.540	-0.160	-0.130	2.520
2020/01/31 15:33:12.5	107.550	-0.160	-0.110	2.430
2020/01/31 15:33:12.6	107.560	-0.150	-0.090	2.330
2020/01/31 15:33:12.7	107.570	-0.140	-0.060	2.230
2020/01/31 15:33:12.8	107.580	-0.130	-0.040	2.120
2020/01/31 15:33:12.9	107.590	-0.120	-0.030	2.000
2020/01/31 15:33:13.0	107.610	-0.100	-0.010	1.880
2020/01/31 15:33:13.1	107.620	-0.090	0.000	1.760
2020/01/31 15:33:13.2	107.630	-0.070	0.010	1.630
2020/01/31 15:33:13.3	107.650	-0.050	0.020	1.500
2020/01/31 15:33:13.4	107.660	-0.030	0.030	1.370
2020/01/31 15:33:13.5	107.670	-0.010	0.030	1.240
2020/01/31 15:33:13.6	107.670	0.010	0.040	1.100
2020/01/31 15:33:13.7	107.680	0.040	0.040	0.970
2020/01/31 15:33:13.8	107.680	0.060	0.040	0.830
2020/01/31 15:33:13.9	107.690	0.080	0.040	0.690
2020/01/31 15:33:14.0	107.690	0.110	0.030	0.560
2020/01/31 15:33:14.1	107.680	0.130	0.030	0.420
2020/01/31 15:33:14.2	107.680	0.150	0.030	0.290
2020/01/31 15:33:14.3	107.670	0.170	0.020	0.160
2020/01/31 15:33:14.4	107.670	0.200	0.010	0.030
2020/01/31 15:33:14.5	107.650	0.220	0.010	-0.090
2020/01/31 15:33:14.6	107.640	0.240	-0.000	-0.210
2020/01/31 15:33:14.7	107.640	0.250	-0.010	-0.330
2020/01/31 15:33:14.8	107.620	0.270	-0.020	-0.440
2020/01/31 15:33:14.9	107.600	0.290	-0.020	-0.550
2020/01/31 15:33:15.0	107.580	0.300	-0.030	-0.650
2020/01/31 15:33:15.1	107.560	0.310	-0.040	-0.750
2020/01/31 15:33:15.2	107.540	0.320	-0.040	-0.850
2020/01/31 15:33:15.3	107.520	0.330	-0.050	-0.940
2020/01/31 15:33:15.4	107.490	0.330	-0.050	-1.020
2020/01/31 15:33:15.5	107.470	0.340	-0.060	-1.100
2020/01/31 15:33:15.6	107.440	0.340	-0.060	-1.180
2020/01/31 15:33:15.7	107.420	0.340	-0.060	-1.250
2020/01/31 15:33:15.8	107.400	0.340	-0.070	-1.310
2020/01/31 15:33:15.9	107.370	0.330	-0.070	-1.370
2020/01/31 15:33:16.0	107.340	0.330	-0.070	-1.420
2020/01/31 15:33:16.1	107.310	0.320	-0.070	-1.470
2020/01/31 15:33:16.2	107.280	0.310	-0.070	-1.520
2020/01/31 15:33:16.3	107.260	0.300	-0.070	-1.550
2020/01/31 15:33:16.4	107.230	0.290	-0.070	-1.590
2020/01/31 15:33:16.5	107.200	0.280	-0.070	-1.620
2020/01/31 15:33:16.6	107.170	0.270	-0.070	-1.640
2020/01/31 15:33:16.7	107.160	0.260	-0.070	-1.660
2020/01/31 15:33:16.8	107.130	0.240	-0.070	-1.680
2020/01/31 15:33:16.9	107.100	0.230	-0.070	-1.690
2020/01/31 15:33:17.0	107.080	0.210	-0.070	-1.700
2020/01/31 15:33:17.1	107.050	0.200	-0.070	-1.710
2020/01/31 15:33:17.2	107.020	0.180	-0.070	-1.710
2020/01/31 15:33:17.3	107.000	0.170	-0.070	-1.710
2020/01/31 15:33:17.4	106.970	0.150	-0.070	-1.700
2020/01/31 15:33:17.5	106.940	0.140	-0.070	-1.690
2020/01/31 15:33:17.6	106.920	0.130	-0.080	-1.680
2020/01/31 15:33:17.7	106.900	0.110	-0.080	-1.650
2020/01/31 15:33:17.8	106.880	0.100	-0.080	-1.630
2020/01/31 15:33:17.9	106.850	0.080	-0.080	-1.610
2020/01/31 15:33:18.0	106.830	0.070	-0.090	-1.580
2020/01/31 15:33:18.1	106.800	0.060	-0.090	-1.540
2020/01/31 15:33:18.2	106.780	0.040	-0.100	-1.500
2020/01/31 15:33:18.3	106.760	0.030	-0.100	-1.460
2020/01/31 15:33:18.4	106.740	0.020	-0.110	-1.420
2020/01/31 15:33:18.5	106.720	0.010	-0.120	-1.370
2020/01/31 15:33:18.6	106.700	-0.000	-0.130	-1.320
2020/01/31 15:33:18.7	106.700	-0.020	-0.140	-1.260
2020/01/31 15:33:18.8	106.680	-0.030	-0.150	-1.210
2020/01/31 15:33:18.9	106.670	-0.040	-0.160	-1.150
2020/01/31 15:33:19.0	106.660	-0.040	-0.170	-1.090
2020/01/31 15:33:19.1	106.660	-0.050	-0.190	-1.030
2020/01/31 15:33:19.2	106.650	-0.060	-0.200	-0.960
2020/01/31 15:33:19.3	106.650	-0.070	-0.220	-0.900
2020/01/31 15:33:19.4	106.650	-0.070	-0.240	-0.830
2020/01/31 15:33:19.5	106.660	-0.080	-0.260	-0.760
2020/01/31 15:33:19.6	106.660	-0.080	-0.280	-0.690
2020/01/31 15:33:19.7	106.660	-0.090	-0.300	-0.620
2020/01/31 15:33:19.8	106.670	-0.090	-0.320	-0.550
2020/01/31 15:33:19.9	106.690	-0.090	-0.340	-0.470
2020/01/31 15:33:20.0	106.700	-0.090	-0.360	-0.400
2020/01/31 15:33:20.1	106.710	-0.090	-0.380	-0.320
2020/01/31 15:33:20.2	106.730	-0.090	-0.400	-0.240
2020/01/31 15:33:20.3	106.750	-0.090	-0.420	-0.160
2020/01/31 15:33:20.4	106.760	-0.090	-0.440	-0.080
2020/01/31 15:33:20.5	106.780	-0.080	-0.460	0.000
2020/01/31 15:33:20.6	106.800	-0.080	-0.480	0.090
2020/01/31 15:33:20.7	106.820	-0.080	-0.490	0.190
2020/01/31 15:33:20.8	106.830	-0.070	-0.500	0.270
2020/01/31 15:33:20.9	106.840	-0.070	-0.510	0.360
2020/01/31 15:33:21.0	106.850	-0.060	-0.520	0.460
2020/01/31 15:33:21.1	106.860	-0.060	-0.520	0.550
2020/01/31 15:33:21.2	106.870	-0.050	-0.530	0.650
2020/01/31 15:33:21.3	106.870	-0.050	-0.530	0.750
2020/01/31 15:33:21.4	106.870	-0.050	-0.530	0.850
2020/01/31 15:33:21.5	106.870	-0.040	-0.520	0.950
2020/01/31 15:33:21.6	106.870	-0.040	-0.520	1.060
2020/01/31 15:33:21.7	106.850	-0.040	-0.510	1.160
2020/01/31 15:33:21.8	106.850	-0.040	-0.500	1.270
2020/01/31 15:33:21.9	106.830	-0.040	-0.480	1.380
2020/01/31 15:33:22.0	106.820	-0.040	-0.470	1.480
2020/01/31 15:33:22.1	106.800	-0.040	-0.450	1.590
2020/01/31 15:33:22.2	106.780	-0.050	-0.430	1.700
2020/01/31 15:33:22.3	106.760	-0.050	-0.400	1.810
2020/01/31 15:33:22.4	106.740	-0.060	-0.380	1.910
2020/01/31 15:33:22.5	106.720	-0.070	-0.350	2.020
2020/01/31 15:33:22.6	106.700	-0.080	-0.320	2.120
2020/01/31 15:33:22.7	106.660	-0.090	-0.290	2.220
2020/01/31 15:33:22.8	106.630	-0.100	-0.250	2.320
2020/01/31 15:33:22.9	106.610	-0.110	-0.220	2.410
2020/01/31 15:33:23.0	106.580	-0.130	-0.190	2.500
2020/01/31 15:33:23.1	106.550	-0.140	-0.150	2.580
2020/01/31 15:33:23.2	106.530	-0.160	-0.110	2.660
2020/01/31 15:33:23.3	106.500	-0.170	-0.080	2.730
2020/01/31 15:33:23.4	106.480	-0.190	-0.040	2.800
2020/01/31 15:33:23.5	106.450	-0.210	-0.000	2.870
2020/01/31 15:33:23.6	106.430	-0.230	0.040	2.930
2020/01/31 15:33:23.7	106.400	-0.240	0.080	2.990
2020/01/31 15:33:23.8	106.380	-0.260	0.110	3.030
2020/01/31 15:33:23.9	106.350	-0.270	0.150	3.070
2020/01/31 15:33:24.0	106.330	-0.290	0.180	3.110
2020/01/31 15:33:24.1	106.310	-0.300	0.210	3.140
2020/01/31 15:33:24.2	106.280	-0.320	0.240	3.160
2020/01/31 15:33:24.3	106.260	-0.330	0.270	3.180
2020/01/31 15:33:24.4	106.240	-0.340	0.290	3.190
2020/01/31 15:33:24.5	106.210	-0.350	0.310	3.200
2020/01/31 15:33:24.6	106.190	-0.360	0.330	3.200
2020/01/31 15:33:24.7	106.160	-0.360	0.340	3.190
2020/01/31 15:33:24.8	106.130	-0.370	0.350	3.180
2020/01/31 15:33:24.9	106.110	-0.370	0.350	3.170
2020/01/31 15:33:25.0	106.080	-0.370	0.350	3.150
2020/01/31 15:33:25.1	106.050	-0.360	0.350	3.130
2020/01/31 15:33:25.2	106.020	-0.360	0.340	3.100
2020/01/31 15:33:25.3	106.000	-0.350	0.330	3.060
2020/01/31 15:33:25.4	105.970	-0.340	0.320	3.030
2020/01/31 15:33:25.5	105.940	-0.330	0.300	2.980
2020/01/31 15:33:25.6	105.910	-0.320	0.270	2.930
2020/01/31 15:33:25.7	105.880	-0.310	0.250	2.880
2020/01/31 15:33:25.8	105.850	-0.290	0.220	2.830
2020/01/31 15:33:25.9	105.830	-0.270	0.180	2.760
2020/01/31 15:33:26.0	105.800	-0.250	0.150	2.700
2020/01/31 15:33:26.1	105.780	-0.230	0.110	2.630
2020/01/31 15:33:26.2	105.750	-0.210	0.070	2.550
2020/01/31 15:33:26.3	105.730	-0.180	0.020	2.470
2020/01/31 15:33:26.4	105.710	-0.160	-0.020	2.390
2020/01/31 15:33:26.5	105.690	-0.130	-0.070	2.300
2020/01/31 15:33:26.6	105.680	-0.110	-0.110	2.200
2020/01/31 15:33:26.7	105.660	-0.080	-0.150	2.110
2020/01/31 15:33:26.8	105.640	-0.060	-0.200	2.000
2020/01/31 15:33:26.9	105.630	-0.030	-0.250	1.900
2020/01/31 15:33:27.0	105.620	-0.010	-0.290	1.790
2020/01/31 15:33:27.1	105.610	0.020	-0.330	1.680
2020/01/31 15:33:27.2	105.600	0.040	-0.370	1.560
2020/01/31 15:33:27.3	105.590	0.070	-0.410	1.450
2020/01/31 15:33:27.4	105.590	0.090	-0.450	1.330
2020/01/31 15:33:27.5	105.580	0.110	-0.490	1.200
2020/01/31 15:33:27.6	105.570	0.130	-0.520	1.080
2020/01/31 15:33:27.7	105.570	0.150	-0.550	0.960
2020/01/31 15:33:27.8	105.570	0.160	-0.570	0.830
2020/01/31 15:33:27.9	105.560	0.180	-0.590	0.700
2020/01/31 15:33:28.0	105.550	0.190	-0.610	0.580
2020/01/31 15:33:28.1	105.540	0.200	-0.630	0.450
2020/01/31 15:33:28.2	105.530	0.210	-0.640	0.320
2020/01/31 15:33:28.3	105.520	0.220	-0.650	0.200
2020/01/31 15:33:28.4	105.500	0.230	-0.660	0.070
2020/01/31 15:33:28.5	105.490	0.240	-0.670	-0.050
2020/01/31 15:33:28.6	105.470	0.240	-0.670	-0.170
2020/01/31 15:33:28.7	105.450	0.250	-0.670	-0.290
2020/01/31 15:33:28.8	105.420	0.250	-0.670	-0.400
2020/01/31 15:33:28.9	105.400	0.250	-0.660	-0.510
2020/01/31 15:33:29.0	105.370	0.250	-0.650	-0.610
2020/01/31 15:33:29.1	105.330	0.250	-0.640	-0.710
2020/01/31 15:33:29.2	105.300	0.250	-0.630	-0.810
2020/01/31 15:33:29.3	105.260	0.250	-0.620	-0.900
2020/01/31 15:33:29.4	105.220	0.250	-0.610	-0.990
2020/01/31 15:33:29.5	105.180	0.250	-0.590	-1.070
2020/01/31 15:33:29.6	105.140	0.240	-0.580	-1.150
2020/01/31 15:33:29.7	105.100	0.240	-0.560	-1.220
2020/01/31 15:33:29.8	105.060	0.240	-0.540	-1.290
2020/01/31 15:33:29.9	105.020	0.240	-0.520	-1.350
2020/01/31 15:33:30.0	104.980	0.240	-0.500	-1.420
2020/01/31 15:33:30.1	104.940	0.230	-0.480	-1.470
2020/01/31 15:33:30.2	104.910	0.230	-0.460	-1.520
2020/01/31 15:33:30.3	104.870	0.230	-0.440	-1.570
2020/01/31 15:33:30.4	104.840	0.230	-0.410	-1.620
2020/01/31 15:33:30.5	104.810	0.230	-0.390	-1.660
2020/01/31 15:33:30.6	104.780	0.230	-0.370	-1.690
2020/01/31 15:33:30.7	104.750	0.220	-0.350	-1.720
2020/01/31 15:33:30.8	104.730	0.220	-0.320	-1.750
2020/01/31 15:33:30.9	104.710	0.220	-0.300	-1.780
2020/01/31 15:33:31.0	104.700	0.220	-0.270	-1.810
2020/01/31 15:33:31.1	104.690	0.220	-0.250	-1.830
2020/01/31 15:33:31.2	104.680	0.220	-0.230	-1.850
2020/01/31 15:33:31.3	104.680	0.220	-0.200	-1.870
2020/01/31 15:33:31.4	104.670	0.220	-0.180	-1.880
2020/01/31 15:33:31.5	104.680	0.220	-0.150	-1.890
2020/01/31 15:33:31.6	104.680	0.220	-0.130	-1.900
2020/01/31 15:33:31.7	104.700	0.220	-0.100	-1.910
2020/01/31 15:33:31.8	104.710	0.220	-0.080	-1.910
2020/01/31 15:33:31.9	104.720	0.220	-0.060	-1.900
2020/01/31 15:33:32.0	104.730	0.220	-0.030	-1.890
2020/01/31 15:33:32.1	104.750	0.220	-0.010	-1.880
2020/01/31 15:33:32.2	104.770	0.220	0.010	-1.860
2020/01/31 15:33:32.3	104.790	0.220	0.030	-1.840
2020/01/31 15:33:32.4	104.800	0.210	0.050	-1.810
2020/01/31 15:33:32.5	104.820	0.210	0.070	-1.780
2020/01/31 15:33:32.6	104.840	0.210	0.090	-1.740
2020/01/31 15:33:32.7	104.860	0.200	0.100	-1.680
2020/01/31 15:33:32.8	104.880	0.200	0.120	-1.630
2020/01/31 15:33:32.9	104.890	0.190	0.140	-1.580
2020/01/31 15:33:33.0	104.900	0.180	0.150	-1.520
2020/01/31 15:33:33.1	104.910	0.170	0.170	-1.450
2020/01/31 15:33:33.2	104.920	0.160	0.180	-1.380
2020/01/31 15:33:33.3	104.920	0.150	0.190	-1.300
2020/01/31 15:33:33.4	104.920	0.140	0.200	-1.220
2020/01/31 15:33:33.5	104.920	0.130	0.210	-1.130
2020/01/31 15:33:33.6	104.920	0.110	0.220	-1.040
2020/01/31 15:33:33.7	104.920	0.100	0.230	-0.940
2020/01/31 15:33:33.8	104.910	0.080	0.240	-0.840
2020/01/31 15:33:33.9	104.900	0.070	0.240	-0.740
2020/01/31 15:33:34.0	104.890	0.050	0.240	-0.630
2020/01/31 15:33:34.1	104.870	0.030	0.250	-0.520
2020/01/31 15:33:34.2	104.850	0.010	0.240	-0.410
2020/01/31 15:33:34.3	104.830	-0.010	0.240	-0.300
2020/01/31 15:33:34.4	104.810	-0.040	0.240	-0.190
2020/01/31 15:33:34.5	104.790	-0.060	0.230	-0.070
2020/01/31 15:33:34.6	104.760	-0.080	0.230	0.050
2020/01/31 15:33:34.7	104.740	-0.100	0.220	0.180
2020/01/31 15:33:34.8	104.710	-0.130	0.210	0.300
2020/01/31 15:33:34.9	104.690	-0.150	0.190	0.430
2020/01/31 15:33:35.0	104.650	-0.170	0.180	0.550
2020/01/31 15:33:35.1	104.620	-0.190	0.170	0.680
2020/01/31 15:33:35.2	104.590	-0.210	0.150	0.810
2020/01/31 15:33:35.3	104.550	-0.230	0.130	0.940
2020/01/31 15:33:35.4	104.520	-0.250	0.110	1.070
2020/01/31 15:33:35.5	104.480	-0.270	0.090	1.210
2020/01/31 15:33:35.6	104.440	-0.280	0.070	1.340
2020/01/31 15:33:35.7	104.410	-0.300	0.040	1.470
2020/01/31 15:33:35.8	104.370	-0.310	0.020	1.600
2020/01/31 15:33:35.9	104.330	-0.320	-0.010	1.730
2020/01/31 15:33:36.0	104.290	-0.330	-0.030	1.860
2020/01/31 15:33:36.1	104.250	-0.340	-0.060	1.990
2020/01/31 15:33:36.2	104.210	-0.340	-0.090	2.110
2020/01/31 15:33:36.3	104.170	-0.340	-0.120	2.230
2020/01/31 15:33:36.4	104.130	-0.340	-0.150	2.350
2020/01/31 15:33:36.5	104.090	-0.340	-0.180	2.470
2020/01/31 15:33:36.6	104.050	-0.340	-0.210	2.580
2020/01/31 15:33:36.7	104.010	-0.330	-0.250	2.690
2020/01/31 15:33:36.8	103.980	-0.330	-0.280	2.790
2020/01/31 15:33:36.9	103.940	-0.320	-0.310	2.890
2020/01/31 15:33:37.0	103.900	-0.310	-0.350	2.980
2020/01/31 15:33:37.1	103.870	-0.300	-0.380	3.060
2020/01/31 15:33:37.2	103.830	-0.280	-0.420	3.140
2020/01/31 15:33:37.3	103.800	-0.270	-0.450	3.220
2020/01/31 15:33:37.4	103.770	-0.250	-0.480	3.280
2020/01/31 15:33:37.5	103.740	-0.230	-0.520	3.340
2020/01/31 15:33:37.6	103.710	-0.220	-0.550	3.390
2020/01/31 15:33:37.7	103.690	-0.200	-0.580	3.440
2020/01/31 15:33:37.8	103.660	-0.180	-0.610	3.470
2020/01/31 15:33:37.9	103.640	-0.160	-0.640	3.500
2020/01/31 15:33:38.0	103.620	-0.140	-0.660	3.520
2020/01/31 15:33:38.1	103.610	-0.120	-0.690	3.530
2020/01/31 15:33:38.2	103.590	-0.100	-0.710	3.530
2020/01/31 15:33:38.3	103.580	-0.090	-0.730	3.520
2020/01/31 15:33:38.4	103.570	-0.070	-0.740	3.510
2020/01/31 15:33:38.5	103.560	-0.050	-0.760	3.490
2020/01/31 15:33:38.6	103.550	-0.040	-0.770	3.460
2020/01/31 15:33:38.7	103.540	-0.020	-0.770	3.410
2020/01/31 15:33:38.8	103.540	-0.010	-0.780	3.370
2020/01/31 15:33:38.9	103.540	0.000	-0.770	3.320
2020/01/31 15:33:39.0	103.540	0.010	-0.770	3.260
2020/01/31 15:33:39.1	103.540	0.020	-0.760	3.200
2020/01/31 15:33:39.2	103.540	0.030	-0.750	3.130
2020/01/31 15:33:39.3	103.550	0.040	-0.730	3.060
2020/01/31 15:33:39.4	103.550	0.040	-0.710	2.980
2020/01/31 15:33:39.5	103.560	0.050	-0.680	2.900
2020/01/31 15:33:39.6	103.560	0.050	-0.660	2.810
2020/01/31 15:33:39.7	103.570	0.050	-0.620	2.720
2020/01/31 15:33:39.8	103.580	0.050	-0.590	2.630
2020/01/31 15:33:39.9	103.580	0.050	-0.550	2.530
2020/01/31 15:33:40.0	103.590	0.050	-0.510	2.430
2020/01/31 15:33:40.1	103.600	0.040	-0.460	2.330
2020/01/31 15:33:40.2	103.600	0.030	-0.420	2.230
2020/01/31 15:33:40.3	103.610	0.030	-0.370	2.120
2020/01/31 15:33:40.4	103.620	0.020	-0.320	2.010
2020/01/31 15:33:40.5	103.630	0.010	-0.270	1.900
2020/01/31 15:33:40.6	103.630	-0.000	-0.210	1.790
2020/01/31 15:33:40.7	103.630	-0.010	-0.160	1.680
2020/01/31 15:33:40.8	103.630	-0.020	-0.100	1.560
2020/01/31 15:33:40.9	103.640	-0.030	-0.050	1.450
2020/01/31 15:33:41.0	103.640	-0.050	0.000	1.330
2020/01/31 15:33:41.1	103.640	-0.060	0.060	1.220
2020/01/31 15:33:41.2	103.640	-0.070	0.110	1.100
2020/01/31 15:33:41.3	103.630	-0.080	0.160	0.990
2020/01/31 15:33:41.4	103.630	-0.090	0.200	0.880
2020/01/31 15:33:41.5	103.620	-0.100	0.250	0.760
2020/01/31 15:33:41.6	103.610	-0.110	0.290	0.650
2020/01/31 15:33:41.7	103.600	-0.120	0.330	0.550
2020/01/31 15:33:41.8	103.580	-0.130	0.360	0.440
2020/01/31 15:33:41.9	103.560	-0.140	0.390	0.340
2020/01/31 15:33:42.0	103.530	-0.140	0.420	0.240
2020/01/31 15:33:42.1	103.510	-0.150	0.450	0.130
2020/01/31 15:33:42.2	103.480	-0.150	0.470	0.030
2020/01/31 15:33:42.3	103.450	-0.160	0.480	-0.060
2020/01/31 15:33:42.4	103.420	-0.160	0.500	-0.160
2020/01/31 15:33:42.5	103.380	-0.160	0.500	-0.250
2020/01/31 15:33:42.6	103.350	-0.160	0.510	-0.350
2020/01/31 15:33:42.7	103.300	-0.160	0.510	-0.440
2020/01/31 15:33:42.8	103.260	-0.150	0.500	-0.520
2020/01/31 15:33:42.9	103.220	-0.150	0.490	-0.610
2020/01/31 15:33:43.0	103.180	-0.140	0.480	-0.700
2020/01/31 15:33:43.1	103.140	-0.130	0.460	-0.780
2020/01/31 15:33:43.2	103.100	-0.120	0.430	-0.860
2020/01/31 15:33:43.3	103.060	-0.110	0.410	-0.930
2020/01/31 15:33:43.4	103.020	-0.100	0.370	-1.010
2020/01/31 15:33:43.5	102.980	-0.090	0.340	-1.080
2020/01/31 15:33:43.6	102.940	-0.070	0.300	-1.150
2020/01/31 15:33:43.7	102.900	-0.060	0.260	-1.220
2020/01/31 15:33:43.8	102.860	-0.040	0.210	-1.280
2020/01/31 15:33:43.9	102.820	-0.020	0.160	-1.340
2020/01/31 15:33:44.0	102.780	-0.010	0.100	-1.400
2020/01/31 15:33:44.1	102.750	0.010	0.050	-1.450
2020/01/31 15:33:44.2	102.720	0.030	-0.010	-1.510
2020/01/31 15:33:44.3	102.680	0.050	-0.070	-1.550
2020/01/31 15:33:44.4	102.650	0.070	-0.140	-1.600
2020/01/31 15:33:44.5	102.630	0.100	-0.200	-1.640
2020/01/31 15:33:44.6	102.600	0.120	-0.270	-1.680
2020/01/31 15:33:44.7	102.580	0.140	-0.340	-1.720
2020/01/31 15:33:44.8	102.560	0.160	-0.410	-1.750
2020/01/31 15:33:44.9	102.540	0.190	-0.470	-1.780
2020/01/31 15:33:45.0	102.520	0.210	-0.540	-1.800
2020/01/31 15:33:45.1	102.500	0.230	-0.600	-1.820
2020/01/31 15:33:45.2	102.490	0.250	-0.670	-1.840
2020/01/31 15:33:45.3	102.480	0.270	-0.730	-1.860
2020/01/31 15:33:45.4	102.470	0.290	-0.790	-1.870
2020/01/31 15:33:45.5	102.460	0.310	-0.840	-1.870
2020/01/31 15:33:45.6	102.460	0.330	-0.890	-1.880
2020/01/31 15:33:45.7	102.450	0.340	-0.940	-1.870
2020/01/31 15:33:45.8	102.450	0.360	-0.980	-1.870
2020/01/31 15:33:45.9	102.450	0.370	-1.020	-1.860
2020/01/31 15:33:46.0	102.460	0.380	-1.050	-1.850
2020/01/31 15:33:46.1	102.460	0.390	-1.070	-1.840
2020/01/31 15:33:46.2	102.460	0.400	-1.090	-1.820
2020/01/31 15:33:46.3	102.470	0.400	-1.100	-1.800
2020/01/31 15:33:46.4	102.480	0.400	-1.110	-1.770
2020/01/31 15:33:46.5	102.490	0.400	-1.100	-1.740
2020/01/31 15:33:46.6	102.490	0.400	-1.090	-1.710
2020/01/31 15:33:46.7	102.500	0.390	-1.070	-1.660
2020/01/31 15:33:46.8	102.510	0.380	-1.040	-1.620
2020/01/31 15:33:46.9	102.510	0.370	-1.010	-1.570
2020/01/31 15:33:47.0	102.520	0.360	-0.970	-1.510
2020/01/31 15:33:47.1	102.520	0.340	-0.920	-1.450
2020/01/31 15:33:47.2	102.530	0.320	-0.860	-1.380
2020/01/31 15:33:47.3	102.530	0.300	-0.790	-1.310
2020/01/31 15:33:47.4	102.520	0.280	-0.720	-1.230
2020/01/31 15:33:47.5	102.520	0.250	-0.650	-1.140
2020/01/31 15:33:47.6	102.510	0.230	-0.560	-1.050
2020/01/31 15:33:47.7	102.510	0.200	-0.480	-0.950
2020/01/31 15:33:47.8	102.500	0.170	-0.390	-0.850
2020/01/31 15:33:47.9	102.480	0.130	-0.300	-0.740
2020/01/31 15:33:48.0	102.460	0.100	-0.200	-0.630
2020/01/31 15:33:48.1	102.440	0.070	-0.100	-0.520
2020/01/31 15:33:48.2	102.420	0.030	-0.010	-0.400
2020/01/31 15:33:48.3	102.390	-0.010	0.090	-0.280
2020/01/31 15:33:48.4	102.360	-0.040	0.180	-0.150
2020/01/31 15:33:48.5	102.330	-0.080	0.280	-0.030
2020/01/31 15:33:48.6	102.300	-0.120	0.370	0.100
2020/01/31 15:33:48.7	102.260	-0.150	0.460	0.240
2020/01/31 15:33:48.8	102.230	-0.190	0.540	0.370
2020/01/31 15:33:48.9	102.190	-0.230	0.620	0.510
2020/01/31 15:33:49.0	102.150	-0.260	0.690	0.640
2020/01/31 15:33:49.1	102.120	-0.290	0.760	0.770
2020/01/31 15:33:49.2	102.080	-0.330	0.820	0.900
2020/01/31 15:33:49.3	102.040	-0.360	0.870	1.030
2020/01/31 15:33:49.4	102.000	-0.390	0.920	1.160
2020/01/31 15:33:49.5	101.960	-0.410	0.960	1.280
2020/01/31 15:33:49.6	101.930	-0.430	0.990	1.400
2020/01/31 15:33:49.7	101.900	-0.460	1.000	1.520
2020/01/31 15:33:49.8	101.860	-0.470	1.010	1.640
2020/01/31 15:33:49.9	101.830	-0.490	1.010	1.750
2020/01/31 15:33:50.0	101.800	-0.500	1.000	1.850
2020/01/31 15:33:50.1	101.760	-0.510	0.980	1.950
2020/01/31 15:33:50.2	101.740	-0.520	0.950	2.050
2020/01/31 15:33:50.3	101.710	-0.520	0.920	2.140
2020/01/31 15:33:50.4	101.680	-0.510	0.870	2.220
2020/01/31 15:33:50.5	101.660	-0.510	0.810	2.300
2020/01/31 15:33:50.6	101.640	-0.500	0.740	2.380
2020/01/31 15:33:50.7	101.620	-0.490	0.680	2.450
2020/01/31 15:33:50.8	101.610	-0.470	0.590	2.520
2020/01/31 15:33:50.9	101.590	-0.450	0.510	2.580
2020/01/31 15:33:51.0	101.580	-0.420	0.410	2.640
2020/01/31 15:33:51.1	101.570	-0.400	0.310	2.690
2020/01/31 15:33:51.2	101.560	-0.370	0.210	2.740
2020/01/31 15:33:51.3	101.550	-0.330	0.100	2.780
2020/01/31 15:33:51.4	101.550	-0.300	-0.020	2.820
2020/01/31 15:33:51.5	101.540	-0.260	-0.130	2.860
2020/01/31 15:33:51.6	101.540	-0.220	-0.240	2.890
2020/01/31 15:33:51.7	101.540	-0.180	-0.360	2.920
2020/01/31 15:33:51.8	101.550	-0.130	-0.480	2.940
2020/01/31 15:33:51.9	101.550	-0.090	-0.590	2.960
2020/01/31 15:33:52.0	101.560	-0.040	-0.700	2.970
2020/01/31 15:33:52.1	101.560	0.000	-0.800	2.980
2020/01/31 15:33:52.2	101.570	0.050	-0.900	2.990
2020/01/31 15:33:52.3	101.580	0.090	-1.000	2.990
2020/01/31 15:33:52.4	101.590	0.130	-1.090	2.990
2020/01/31 15:33:52.5	101.610	0.180	-1.170	2.990
2020/01/31 15:33:52.6	101.620	0.220	-1.240	2.980
2020/01/31 15:33:52.7	101.620	0.260	-1.300	2.970
2020/01/31 15:33:52.8	101.630	0.290	-1.360	2.950
2020/01/31 15:33:52.9	101.640	0.330	-1.400	2.930
2020/01/31 15:33:53.0	101.650	0.360	-1.440	2.900
2020/01/31 15:33:53.1	101.660	0.380	-1.460	2.870
2020/01/31 15:33:53.2	101.670	0.410	-1.480	2.840
2020/01/31 15:33:53.3	101.670	0.430	-1.480	2.810
2020/01/31 15:33:53.4	101.680	0.440	-1.480	2.760
2020/01/31 15:33:53.5	101.680	0.460	-1.460	2.720
2020/01/31 15:33:53.6	101.680	0.460	-1.430	2.670
2020/01/31 15:33:53.7	101.660	0.470	-1.400	2.620
2020/01/31 15:33:53.8	101.660	0.470	-1.350	2.570
2020/01/31 15:33:53.9	101.650	0.460	-1.290	2.510
2020/01/31 15:33:54.0	101.640	0.460	-1.230	2.450
2020/01/31 15:33:54.1	101.620	0.440	-1.160	2.390
2020/01/31 15:33:54.2	101.600	0.430	-1.080	2.320
2020/01/31 15:33:54.3	101.580	0.410	-0.990	2.250
2020/01/31 15:33:54.4	101.560	0.390	-0.900	2.180
2020/01/31 15:33:54.5	101.530	0.360	-0.800	2.110
2020/01/31 15:33:54.6	101.510	0.330	-0.700	2.040
2020/01/31 15:33:54.7	101.480	0.300	-0.600	1.960
2020/01/31 15:33:54.8	101.450	0.270	-0.490	1.880
2020/01/31 15:33:54.9	101.420	0.230	-0.390	1.800
2020/01/31 15:33:55.0	101.380	0.190	-0.280	1.720
2020/01/31 15:33:55.1	101.350	0.160	-0.180	1.640
2020/01/31 15:33:55.2	101.310	0.120	-0.070	1.550
2020/01/31 15:33:55.3	101.270	0.080	0.030	1.460
2020/01/31 15:33:55.4	101.240	0.040	0.120	1.370
2020/01/31 15:33:55.5	101.200	0.000	0.210	1.280
2020/01/31 15:33:55.6	101.160	-0.030	0.300	1.190
2020/01/31 15:33:55.7	101.120	-0.070	0.380	1.090
2020/01/31 15:33:55.8	101.090	-0.100	0.460	1.000
2020/01/31 15:33:55.9	101.050	-0.140	0.520	0.900
2020/01/31 15:33:56.0	101.020	-0.170	0.590	0.800
2020/01/31 15:33:56.1	100.980	-0.200	0.640	0.700
2020/01/31 15:33:56.2	100.940	-0.220	0.690	0.610
2020/01/31 15:33:56.3	100.910	-0.240	0.730	0.510
2020/01/31 15:33:56.4	100.880	-0.260	0.760	0.410
2020/01/31 15:33:56.5	100.840	-0.280	0.780	0.310
2020/01/31 15:33:56.6	100.810	-0.300	0.800	0.220
2020/01/31 15:33:56.7	100.780	-0.310	0.810	0.120
2020/01/31 15:33:56.8	100.750	-0.320	0.810	0.030
2020/01/31 15:33:56.9	100.720	-0.320	0.810	-0.060
2020/01/31 15:33:57.0	100.690	-0.330	0.790	-0.160
2020/01/31 15:33:57.1	100.660	-0.330	0.770	-0.250
2020/01/31 15:33:57.2	100.630	-0.330	0.750	-0.330
2020/01/31 15:33:57.3	100.600	-0.320	0.710	-0.420
2020/01/31 15:33:57.4	100.570	-0.310	0.670	-0.500
2020/01/31 15:33:57.5	100.540	-0.300	0.630	-0.590
2020/01/31 15:33:57.6	100.510	-0.290	0.580	-0.670
2020/01/31 15:33:57.7	100.480	-0.280	0.530	-0.750
2020/01/31 15:33:57.8	100.460	-0.260	0.470	-0.820
2020/01/31 15:33:57.9	100.430	-0.250	0.410	-0.900
2020/01/31 15:33:58.0	100.410	-0.230	0.350	-0.970
2020/01/31 15:33:58.1	100.390	-0.210	0.280	-1.050
2020/01/31 15:33:58.2	100.360	-0.190	0.220	-1.120
2020/01/31 15:33:58.3	100.340	-0.170	0.150	-1.190
2020/01/31 15:33:58.4	100.330	-0.150	0.080	-1.260
2020/01/31 15:33:58.5	100.310	-0.130	0.010	-1.320
2020/01/31 15:33:58.6	100.300	-0.100	-0.050	-1.390
2020/01/31 15:33:58.7	100.290	-0.080	-0.120	-1.450
2020/01/31 15:33:58.8	100.280	-0.060	-0.180	-1.520
2020/01/31 15:33:58.9	100.280	-0.040	-0.240	-1.580
2020/01/31 15:33:59.0	100.270	-0.020	-0.300	-1.640
2020/01/31 15:33:59.1	100.270	-0.000	-0.360	-1.700
2020/01/31 15:33:59.2	100.270	0.020	-0.410	-1.750
2020/01/31 15:33:59.3	100.270	0.040	-0.460	-1.810
2020/01/31 15:33:59.4	100.270	0.050	-0.510	-1.860
2020/01/31 15:33:59.5	100.280	0.070	-0.560	-1.910
2020/01/31 15:33:59.6	100.290	0.080	-0.600	-1.950
2020/01/31 15:33:59.7	100.290	0.100	-0.630	-1.990
2020/01/31 15:33:59.8	100.300	0.110	-0.670	-2.030
2020/01/31 15:33:59.9	100.310	0.120	-0.700	-2.060
2020/01/31 15:34:00.0	100.320	0.130	-0.720	-2.090
2020/01/31 15:34:00.1	100.340	0.140	-0.750	-2.120
2020/01/31 15:34:00.2	100.350	0.150	-0.770	-2.140
2020/01/31 15:34:00.3	100.370	0.160	-0.780	-2.150
2020/01/31 15:34:00.4	100.380	0.170	-0.800	-2.170
2020/01/31 15:34:00.5	100.390	0.170	-0.810	-2.170
2020/01/31 15:34:00.6	100.410	0.170	-0.810	-2.170
2020/01/31 15:34:00.7	100.420	0.180	-0.810	-2.170
2020/01/31 15:34:00.8	100.430	0.180	-0.810	-2.160
2020/01/31 15:34:00.9	100.440	0.180	-0.800	-2.140
2020/01/31 15:34:01.0	100.450	0.180	-0.790	-2.120
2020/01/31 15:34:01.1	100.460	0.180	-0.780	-2.090
2020/01/31 15:34:01.2	100.460	0.170	-0.770	-2.050
2020/01/31 15:34:01.3	100.470	0.170	-0.750	-2.010
2020/01/31 15:34:01.4	100.470	0.160	-0.730	-1.960
2020/01/31 15:34:01.5	100.470	0.160	-0.700	-1.900
2020/01/31 15:34:01.6	100.470	0.150	-0.670	-1.840
2020/01/31 15:34:01.7	100.470	0.140	-0.640	-1.760
2020/01/31 15:34:01.8	100.470	0.130	-0.610	-1.680
2020/01/31 15:34:01.9	100.470	0.120	-0.570	-1.600
2020/01/31 15:34:02.0	100.460	0.110	-0.530	-1.510
2020/01/31 15:34:02.1	100.450	0.090	-0.480	-1.410
2020/01/31 15:34:02.2	100.440	0.080	-0.430	-1.310
2020/01/31 15:34:02.3	100.430	0.060	-0.390	-1.200
2020/01/31 15:34:02.4	100.420	0.050	-0.330	-1.090
2020/01/31 15:34:02.5	100.410	0.030	-0.280	-0.970
2020/01/31 15:34:02.6	100.390	0.020	-0.230	-0.840
2020/01/31 15:34:02.7	100.380	-0.000	-0.160	-0.700
2020/01/31 15:34:02.8	100.360	-0.020	-0.110	-0.570
2020/01/31 15:34:02.9	100.340	-0.040	-0.050	-0.430
2020/01/31 15:34:03.0	100.330	-0.060	0.000	-0.280
2020/01/31 15:34:03.1	100.310	-0.080	0.060	-0.140
2020/01/31 15:34:03.2	100.290	-0.090	0.110	0.010
2020/01/31 15:34:03.3	100.270	-0.110	0.160	0.170
2020/01/31 15:34:03.4	100.250	-0.130	0.210	0.320
2020/01/31 15:34:03.5	100.230	-0.150	0.250	0.470
2020/01/31 15:34:03.6	100.210	-0.160	0.290	0.630
2020/01/31 15:34:03.7	100.180	-0.180	0.330	0.790
2020/01/31 15:34:03.8	100.160	-0.200	0.370	0.950
2020/01/31 15:34:03.9	100.140	-0.210	0.400	1.100
2020/01/31 15:34:04.0	100.110	-0.220	0.420	1.250
2020/01/31 15:34:04.1	100.090	-0.240	0.440	1.400
2020/01/31 15:34:04.2	100.060	-0.250	0.460	1.550
2020/01/31 15:34:04.3	100.040	-0.260	0.470	1.700
2020/01/31 15:34:04.4	100.010	-0.260	0.480	1.840
2020/01/31 15:34:04.5	99.990	-0.270	0.480	1.980
2020/01/31 15:34:04.6	99.960	-0.270	0.480	2.110
2020/01/31 15:34:04.7	99.930	-0.280	0.480	2.240
2020/01/31 15:34:04.8	99.910	-0.280	0.460	2.370
2020/01/31 15:34:04.9	99.880	-0.270	0.450	2.480
2020/01/31 15:34:05.0	99.860	-0.270	0.430	2.590
2020/01/31 15:34:05.1	99.830	-0.270	0.400	2.700
2020/01/31 15:34:05.2	99.810	-0.260	0.370	2.800
2020/01/31 15:34:05.3	99.790	-0.250	0.340	2.890
2020/01/31 15:34:05.4	99.770	-0.240	0.300	2.980
2020/01/31 15:34:05.5	99.750	-0.220	0.260	3.060
2020/01/31 15:34:05.6	99.730	-0.210	0.220	3.130
2020/01/31 15:34:05.7	99.710	-0.190	0.170	3.200
2020/01/31 15:34:05.8	99.690	-0.170	0.120	3.260
2020/01/31 15:34:05.9	99.670	-0.150	0.070	3.320
2020/01/31 15:34:06.0	99.650	-0.120	0.010	3.370
2020/01/31 15:34:06.1	99.640	-0.100	-0.050	3.420
2020/01/31 15:34:06.2	99.620	-0.070	-0.100	3.460
2020/01/31 15:34:06.3	99.600	-0.040	-0.170	3.490
2020/01/31 15:34:06.4	99.580	-0.010	-0.230	3.530
2020/01/31 15:34:06.5	99.560	0.020	-0.290	3.550
2020/01/31 15:34:06.6	99.540	0.050	-0.360	3.570
2020/01/31 15:34:06.7	99.520	0.080	-0.420	3.590
2020/01/31 15:34:06.8	99.500	0.110	-0.480	3.610
2020/01/31 15:34:06.9	99.480	0.140	-0.540	3.620
2020/01/31 15:34:07.0	99.460	0.170	-0.600	3.620
2020/01/31 15:34:07.1	99.440	0.200	-0.660	3.620
2020/01/31 15:34:07.2	99.420	0.230	-0.720	3.620
2020/01/31 15:34:07.3	99.400	0.260	-0.770	3.610
2020/01/31 15:34:07.4	99.380	0.290	-0.820	3.600
2020/01/31 15:34:07.5	99.360	0.310	-0.870	3.590
2020/01/31 15:34:07.6	99.340	0.330	-0.920	3.570
2020/01/31 15:34:07.7	99.320	0.360	-0.960	3.550
2020/01/31 15:34:07.8	99.300	0.370	-0.990	3.520
2020/01/31 15:34:07.9	99.280	0.390	-1.020	3.490
2020/01/31 15:34:08.0	99.260	0.400	-1.040	3.460
2020/01/31 15:34:08.1	99.240	0.420	-1.060	3.420
2020/01/31 15:34:08.2	99.220	0.420	-1.070	3.380
2020/01/31 15:34:08.3	99.200	0.430	-1.070	3.340
2020/01/31 15:34:08.4	99.190	0.430	-1.070	3.290
2020/01/31 15:34:08.5	99.170	0.430	-1.060	3.230
2020/01/31 15:34:08.6	99.150	0.430	-1.050	3.180
2020/01/31 15:34:08.7	99.140	0.420	-1.020	3.120
2020/01/31 15:34:08.8	99.120	0.410	-1.000	3.050
2020/01/31 15:34:08.9	99.110	0.400	-0.960	2.980
2020/01/31 15:34:09.0	99.090	0.380	-0.930	2.910
2020/01/31 15:34:09.1	99.080	0.360	-0.880	2.830
2020/01/31 15:34:09.2	99.070	0.340	-0.830	2.750
2020/01/31 15:34:09.3	99.050	0.320	-0.780	2.660
2020/01/31 15:34:09.4	99.040	0.300	-0.720	2.570
2020/01/31 15:34:09.5	99.030	0.270	-0.660	2.480
2020/01/31 15:34:09.6	99.010	0.240	-0.600	2.390
2020/01/31 15:34:09.7	98.990	0.210	-0.530	2.290
2020/01/31 15:34:09.8	98.980	0.180	-0.460	2.180
2020/01/31 15:34:09.9	98.970	0.150	-0.380	2.080
2020/01/31 15:34:10.0	98.950	0.120	-0.310	1.970
2020/01/31 15:34:10.1	98.940	0.080	-0.230	1.850
2020/01/31 15:34:10.2	98.920	0.050	-0.150	1.740
2020/01/31 15:34:10.3	98.910	0.020	-0.080	1.620
2020/01/31 15:34:10.4	98.890	-0.020	-0.000	1.500
2020/01/31 15:34:10.5	98.870	-0.050	0.070	1.370
2020/01/31 15:34:10.6	98.860	-0.080	0.150	1.250
2020/01/31 15:34:10.7	98.830	-0.110	0.220	1.120
2020/01/31 15:34:10.8	98.810	-0.140	0.290	1.000
2020/01/31 15:34:10.9	98.790	-0.170	0.360	0.870
2020/01/31 15:34:11.0	98.770	-0.190	0.420	0.740
2020/01/31 15:34:11.1	98.750	-0.220	0.480	0.610
2020/01/31 15:34:11.2	98.720	-0.240	0.530	0.480
2020/01/31 15:34:11.3	98.700	-0.260	0.580	0.350
2020/01/31 15:34:11.4	98.670	-0.270	0.630	0.220
2020/01/31 15:34:11.5	98.650	-0.290	0.660	0.090
2020/01/31 15:34:11.6	98.620	-0.300	0.700	-0.040
2020/01/31 15:34:11.7	98.590	-0.310	0.720	-0.160
2020/01/31 15:34:11.8	98.560	-0.310	0.740	-0.290
2020/01/31 15:34:11.9	98.530	-0.320	0.750	-0.420
2020/01/31 15:34:12.0	98.510	-0.320	0.760	-0.540
2020/01/31 15:34:12.1	98.480	-0.310	0.760	-0.660
2020/01/31 15:34:12.2	98.450	-0.310	0.750	-0.780
2020/01/31 15:34:12.3	98.420	-0.300	0.740	-0.900
2020/01/31 15:34:12.4	98.400	-0.290	0.720	-1.020
2020/01/31 15:34:12.5	98.380	-0.280	0.690	-1.140
2020/01/31 15:34:12.6	98.350	-0.270	0.660	-1.260
2020/01/31 15:34:12.7	98.330	-0.250	0.630	-1.370
2020/01/31 15:34:12.8	98.310	-0.240	0.590	-1.480
2020/01/31 15:34:12.9	98.300	-0.220	0.540	-1.580
2020/01/31 15:34:13.0	98.280	-0.200	0.490	-1.690
2020/01/31 15:34:13.1	98.270	-0.170	0.430	-1.790
2020/01/31 15:34:13.2	98.260	-0.150	0.370	-1.890
2020/01/31 15:34:13.3	98.250	-0.130	0.300	-1.980
2020/01/31 15:34:13.4	98.250	-0.100	0.240	-2.070
2020/01/31 15:34:13.5	98.240	-0.080	0.160	-2.160
2020/01/31 15:34:13.6	98.240	-0.050	0.090	-2.240
2020/01/31 15:34:13.7	98.240	-0.030	0.020	-2.310
2020/01/31 15:34:13.8	98.240	-0.000	-0.060	-2.380
2020/01/31 15:34:13.9	98.240	0.020	-0.140	-2.450
2020/01/31 15:34:14.0	98.250	0.050	-0.220	-2.510
2020/01/31 15:34:14.1	98.250	0.070	-0.300	-2.560
2020/01/31 15:34:14.2	98.260	0.100	-0.380	-2.610
2020/01/31 15:34:14.3	98.260	0.120	-0.450	-2.650
2020/01/31 15:34:14.4	98.270	0.140	-0.530	-2.680
2020/01/31 15:34:14.5	98.280	0.160	-0.600	-2.700
2020/01/31 15:34:14.6	98.280	0.180	-0.670	-2.720
2020/01/31 15:34:14.7	98.280	0.200	-0.730	-2.730
2020/01/31 15:34:14.8	98.290	0.210	-0.800	-2.730
2020/01/31 15:34:14.9	98.290	0.230	-0.850	-2.730
2020/01/31 15:34:15.0	98.300	0.240	-0.910	-2.720
2020/01/31 15:34:15.1	98.300	0.250	-0.960	-2.700
2020/01/31 15:34:15.2	98.300	0.260	-1.000	-2.670
2020/01/31 15:34:15.3	98.300	0.260	-1.030	-2.640
2020/01/31 15:34:15.4	98.300	0.270	-1.060	-2.590
2020/01/31 15:34:15.5	98.300	0.270	-1.090	-2.540
2020/01/31 15:34:15.6	98.290	0.270	-1.100	-2.480
2020/01/31 15:34:15.7	98.280	0.270	-1.110	-2.410
2020/01/31 15:34:15.8	98.270	0.270	-1.110	-2.340
2020/01/31 15:34:15.9	98.260	0.260	-1.110	-2.260
2020/01/31 15:34:16.0	98.250	0.260	-1.100	-2.170
2020/01/31 15:34:16.1	98.240	0.250	-1.080	-2.080
2020/01/31 15:34:16.2	98.220	0.240	-1.050	-1.980
2020/01/31 15:34:16.3	98.200	0.230	-1.020	-1.870
2020/01/31 15:34:16.4	98.180	0.220	-0.980	-1.760
2020/01/31 15:34:16.5	98.160	0.210	-0.930	-1.650
2020/01/31 15:34:16.6	98.140	0.190	-0.870	-1.530
2020/01/31 15:34:16.7	98.110	0.180	-0.810	-1.390
2020/01/31 15:34:16.8	98.090	0.160	-0.740	-1.260
2020/01/31 15:34:16.9	98.070	0.140	-0.670	-1.130
2020/01/31 15:34:17.0	98.040	0.120	-0.590	-1.000
2020/01/31 15:34:17.1	98.010	0.100	-0.510	-0.860
2020/01/31 15:34:17.2	97.990	0.080	-0.420	-0.720
2020/01/31 15:34:17.3	97.960	0.060	-0.330	-0.570
2020/01/31 15:34:17.4	97.930	0.030	-0.240	-0.430
2020/01/31 15:34:17.5	97.900	0.010	-0.140	-0.280
2020/01/31 15:34:17.6	97.870	-0.010	-0.050	-0.130
2020/01/31 15:34:17.7	97.830	-0.040	0.050	0.020
2020/01/31 15:34:17.8	97.790	-0.060	0.140	0.170
2020/01/31 15:34:17.9	97.760	-0.090	0.240	0.320
2020/01/31 15:34:18.0	97.730	-0.110	0.320	0.470
2020/01/31 15:34:18.1	97.700	-0.140	0.410	0.620
2020/01/31 15:34:18.2	97.660	-0.160	0.490	0.760
2020/01/31 15:34:18.3	97.630	-0.180	0.570	0.910
2020/01/31 15:34:18.4	97.600	-0.210	0.640	1.050
2020/01/31 15:34:18.5	97.570	-0.230	0.700	1.190
2020/01/31 15:34:18.6	97.540	-0.250	0.760	1.330
2020/01/31 15:34:18.7	97.520	-0.270	0.810	1.470
2020/01/31 15:34:18.8	97.500	-0.290	0.850	1.600
2020/01/31 15:34:18.9	97.470	-0.300	0.880	1.720
2020/01/31 15:34:19.0	97.450	-0.310	0.900	1.850
2020/01/31 15:34:19.1	97.420	-0.320	0.910	1.960
2020/01/31 15:34:19.2	97.400	-0.330	0.910	2.070
2020/01/31 15:34:19.3	97.380	-0.340	0.900	2.180
2020/01/31 15:34:19.4	97.370	-0.340	0.880	2.290
2020/01/31 15:34:19.5	97.350	-0.340	0.850	2.380
2020/01/31 15:34:19.6	97.340	-0.340	0.820	2.480
2020/01/31 15:34:19.7	97.330	-0.330	0.770	2.570
2020/01/31 15:34:19.8	97.330	-0.330	0.710	2.650
2020/01/31 15:34:19.9	97.320	-0.310	0.640	2.730
2020/01/31 15:34:20.0	97.310	-0.300	0.570	2.800
2020/01/31 15:34:20.1	97.310	-0.280	0.490	2.870
2020/01/31 15:34:20.2	97.310	-0.260	0.400	2.940
2020/01/31 15:34:20.3	97.310	-0.240	0.310	3.000
2020/01/31 15:34:20.4	97.320	-0.210	0.210	3.050
2020/01/31 15:34:20.5	97.320	-0.180	0.110	3.100
2020/01/31 15:34:20.6	97.330	-0.150	0.010	3.150
2020/01/31 15:34:20.7	97.340	-0.120	-0.100	3.190
2020/01/31 15:34:20.8	97.350	-0.090	-0.200	3.230
2020/01/31 15:34:20.9	97.360	-0.050	-0.310	3.260
2020/01/31 15:34:21.0	97.370	-0.020	-0.410	3.280
2020/01/31 15:34:21.1	97.380	0.020	-0.520	3.310
2020/01/31 15:34:21.2	97.390	0.060	-0.620	3.320
2020/01/31 15:34:21.3	97.400	0.090	-0.710	3.340
2020/01/31 15:34:21.4	97.410	0.130	-0.810	3.350
2020/01/31 15:34:21.5	97.420	0.170	-0.890	3.350
2020/01/31 15:34:21.6	97.440	0.200	-0.980	3.350
2020/01/31 15:34:21.7	97.440	0.240	-1.050	3.340
2020/01/31 15:34:21.8	97.450	0.270	-1.120	3.330
2020/01/31 15:34:21.9	97.460	0.300	-1.180	3.310
2020/01/31 15:34:22.0	97.460	0.330	-1.240	3.290
2020/01/31 15:34:22.1	97.470	0.360	-1.290	3.260
2020/01/31 15:34:22.2	97.470	0.390	-1.320	3.230
2020/01/31 15:34:22.3	97.470	0.410	-1.350	3.190
2020/01/31 15:34:22.4	97.470	0.430	-1.380	3.150
2020/01/31 15:34:22.5	97.470	0.450	-1.390	3.100
2020/01/31 15:34:22.6	97.470	0.460	-1.390	3.050
2020/01/31 15:34:22.7	97.470	0.470	-1.390	2.990
2020/01/31 15:34:22.8	97.460	0.480	-1.380	2.930
2020/01/31 15:34:22.9	97.450	0.490	-1.360	2.860
2020/01/31 15:34:23.0	97.440	0.490	-1.330	2.790
2020/01/31 15:34:23.1	97.430	0.490	-1.300	2.710
2020/01/31 15:34:23.2	97.410	0.480	-1.250	2.640
2020/01/31 15:34:23.3	97.400	0.470	-1.210	2.560
2020/01/31 15:34:23.4	97.380	0.460	-1.150	2.470
2020/01/31 15:34:23.5	97.360	0.440	-1.090	2.390
2020/01/31 15:34:23.6	97.340	0.420	-1.020	2.300
2020/01/31 15:34:23.7	97.310	0.400	-0.940	2.210
2020/01/31 15:34:23.8	97.290	0.380	-0.870	2.120
2020/01/31 15:34:23.9	97.270	0.350	-0.780	2.030
2020/01/31 15:34:24.0	97.250	0.320	-0.700	1.930
2020/01/31 15:34:24.1	97.220	0.280	-0.610	1.840
2020/01/31 15:34:24.2	97.200	0.250	-0.510	1.750
2020/01/31 15:34:24.3	97.170	0.210	-0.420	1.650
2020/01/31 15:34:24.4	97.150	0.170	-0.320	1.560
2020/01/31 15:34:24.5	97.120	0.130	-0.220	1.460
2020/01/31 15:34:24.6	97.100	0.080	-0.130	1.360
2020/01/31 15:34:24.7	97.080	0.040	-0.020	1.270
2020/01/31 15:34:24.8	97.060	-0.010	0.080	1.180
2020/01/31 15:34:24.9	97.040	-0.050	0.170	1.080
2020/01/31 15:34:25.0	97.020	-0.100	0.260	0.980
2020/01/31 15:34:25.1	97.000	-0.140	0.350	0.880
2020/01/31 15:34:25.2	96.980	-0.190	0.440	0.780
2020/01/31 15:34:25.3	96.960	-0.230	0.520	0.690
2020/01/31 15:34:25.4	96.950	-0.270	0.600	0.590
2020/01/31 15:34:25.5	96.940	-0.320	0.670	0.490
2020/01/31 15:34:25.6	96.930	-0.350	0.740	0.390
2020/01/31 15:34:25.7	96.920	-0.390	0.800	0.280
2020/01/31 15:34:25.8	96.920	-0.430	0.860	0.180
2020/01/31 15:34:25.9	96.910	-0.460	0.900	0.080
2020/01/31 15:34:26.0	96.910	-0.490	0.940	-0.020
2020/01/31 15:34:26.1	96.910	-0.520	0.970	-0.120
2020/01/31 15:34:26.2	96.910	-0.540	0.990	-0.230
2020/01/31 15:34:26.3	96.910	-0.560	1.000	-0.330
2020/01/31 15:34:26.4	96.920	-0.580	1.010	-0.430
2020/01/31 15:34:26.5	96.930	-0.590	1.000	-0.540
2020/01/31 15:34:26.6	96.940	-0.600	0.990	-0.640
2020/01/31 15:34:26.7	96.950	-0.610	0.970	-0.740
2020/01/31 15:34:26.8	96.960	-0.610	0.940	-0.840
2020/01/31 15:34:26.9	96.970	-0.610	0.900	-0.940
2020/01/31 15:34:27.0	96.990	-0.600	0.860	-1.040
2020/01/31 15:34:27.1	97.000	-0.590	0.810	-1.140
2020/01/31 15:34:27.2	97.020	-0.580	0.750	-1.240
2020/01/31 15:34:27.3	97.030	-0.560	0.680	-1.340
2020/01/31 15:34:27.4	97.050	-0.540	0.610	-1.440
2020/01/31 15:34:27.5	97.070	-0.520	0.540	-1.530
2020/01/31 15:34:27.6	97.090	-0.490	0.460	-1.630
2020/01/31 15:34:27.7	97.100	-0.460	0.380	-1.720
2020/01/31 15:34:27.8	97.120	-0.430	0.290	-1.810
2020/01/31 15:34:27.9	97.140	-0.400	0.200	-1.890
2020/01/31 15:34:28.0	97.160	-0.370	0.120	-1.980
2020/01/31 15:34:28.1	97.180	-0.330	0.030	-2.060
2020/01/31 15:34:28.2	97.190	-0.290	-0.060	-2.130
2020/01/31 15:34:28.3	97.210	-0.250	-0.150	-2.200
2020/01/31 15:34:28.4	97.230	-0.210	-0.230	-2.270
2020/01/31 15:34:28.5	97.240	-0.180	-0.310	-2.330
2020/01/31 15:34:28.6	97.260	-0.140	-0.390	-2.390
2020/01/31 15:34:28.7	97.260	-0.100	-0.470	-2.440
2020/01/31 15:34:28.8	97.270	-0.060	-0.540	-2.480
2020/01/31 15:34:28.9	97.280	-0.020	-0.600	-2.520
2020/01/31 15:34:29.0	97.290	0.020	-0.660	-2.550
2020/01/31 15:34:29.1	97.290	0.050	-0.720	-2.580
2020/01/31 15:34:29.2	97.300	0.080	-0.770	-2.590
2020/01/31 15:34:29.3	97.300	0.110	-0.810	-2.600
2020/01/31 15:34:29.4	97.300	0.140	-0.850	-2.610
2020/01/31 15:34:29.5	97.300	0.170	-0.880	-2.600
2020/01/31 15:34:29.6	97.290	0.200	-0.910	-2.590
2020/01/31 15:34:29.7	97.280	0.220	-0.920	-2.560
2020/01/31 15:34:29.8	97.270	0.240	-0.930	-2.530
2020/01/31 15:34:29.9	97.260	0.260	-0.940	-2.500
2020/01/31 15:34:30.0	97.250	0.270	-0.940	-2.450
2020/01/31 15:34:30.1	97.230	0.290	-0.930	-2.400
2020/01/31 15:34:30.2	97.210	0.300	-0.920	-2.340
2020/01/31 15:34:30.3	97.190	0.300	-0.910	-2.270
2020/01/31 15:34:30.4	97.170	0.310	-0.890	-2.200
2020/01/31 15:34:30.5	97.140	0.310	-0.860	-2.110
2020/01/31 15:34:30.6	97.110	0.320	-0.830	-2.020
2020/01/31 15:34:30.7	97.080	0.320	-0.790	-1.920
2020/01/31 15:34:30.8	97.050	0.320	-0.750	-1.820
2020/01/31 15:34:30.9	97.020	0.310	-0.720	-1.710
2020/01/31 15:34:31.0	96.990	0.310	-0.680	-1.600
2020/01/31 15:34:31.1	96.960	0.300	-0.630	-1.480
2020/01/31 15:34:31.2	96.920	0.300	-0.590	-1.360
2020/01/31 15:34:31.3	96.890	0.290	-0.550	-1.240
2020/01/31 15:34:31.4	96.850	0.290	-0.500	-1.110
2020/01/31 15:34:31.5	96.820	0.280	-0.460	-0.980
2020/01/31 15:34:31.6	96.790	0.280	-0.420	-0.850
2020/01/31 15:34:31.7	96.750	0.270	-0.380	-0.710
2020/01/31 15:34:31.8	96.720	0.270	-0.340	-0.580
2020/01/31 15:34:31.9	96.690	0.260	-0.300	-0.450
2020/01/31 15:34:32.0	96.660	0.260	-0.270	-0.320
2020/01/31 15:34:32.1	96.640	0.260	-0.240	-0.190
2020/01/31 15:34:32.2	96.610	0.250	-0.210	-0.060
2020/01/31 15:34:32.3	96.590	0.250	-0.180	0.070
2020/01/31 15:34:32.4	96.570	0.260	-0.160	0.190
2020/01/31 15:34:32.5	96.550	0.260	-0.140	0.310
2020/01/31 15:34:32.6	96.540	0.260	-0.130	0.430
2020/01/31 15:34:32.7	96.530	0.270	-0.110	0.550
2020/01/31 15:34:32.8	96.520	0.270	-0.110	0.660
2020/01/31 15:34:32.9	96.510	0.280	-0.100	0.770
2020/01/31 15:34:33.0	96.510	0.280	-0.100	0.870
2020/01/31 15:34:33.1	96.500	0.290	-0.100	0.970
2020/01/31 15:34:33.2	96.510	0.300	-0.100	1.060
2020/01/31 15:34:33.3	96.510	0.300	-0.110	1.150
2020/01/31 15:34:33.4	96.520	0.310	-0.110	1.240
2020/01/31 15:34:33.5	96.520	0.320	-0.120	1.320
2020/01/31 15:34:33.6	96.540	0.320	-0.130	1.400
2020/01/31 15:34:33.7	96.550	0.330	-0.140	1.470
2020/01/31 15:34:33.8	96.560	0.330	-0.150	1.540
2020/01/31 15:34:33.9	96.580	0.330	-0.160	1.610
2020/01/31 15:34:34.0	96.600	0.330	-0.170	1.670
2020/01/31 15:34:34.1	96.620	0.330	-0.170	1.730
2020/01/31 15:34:34.2	96.640	0.330	-0.180	1.790
2020/01/31 15:34:34.3	96.660	0.330	-0.190	1.840
2020/01/31 15:34:34.4	96.680	0.320	-0.190	1.890
2020/01/31 15:34:34.5	96.700	0.310	-0.200	1.940
2020/01/31 15:34:34.6	96.720	0.300	-0.200	1.990
2020/01/31 15:34:34.7	96.750	0.280	-0.190	2.040
2020/01/31 15:34:34.8	96.770	0.270	-0.190	2.080
2020/01/31 15:34:34.9	96.790	0.250	-0.180	2.130
2020/01/31 15:34:35.0	96.810	0.230	-0.180	2.170
2020/01/31 15:34:35.1	96.830	0.210	-0.170	2.210
2020/01/31 15:34:35.2	96.850	0.180	-0.160	2.250
2020/01/31 15:34:35.3	96.860	0.160	-0.140	2.280
2020/01/31 15:34:35.4	96.880	0.130	-0.130	2.320
2020/01/31 15:34:35.5	96.890	0.100	-0.110	2.350
2020/01/31 15:34:35.6	96.900	0.070	-0.090	2.380
2020/01/31 15:34:35.7	96.910	0.040	-0.070	2.420
2020/01/31 15:34:35.8	96.920	0.000	-0.050	2.450
2020/01/31 15:34:35.9	96.920	-0.030	-0.030	2.470
2020/01/31 15:34:36.0	96.920	-0.060	-0.000	2.500
2020/01/31 15:34:36.1	96.920	-0.090	0.020	2.520
2020/01/31 15:34:36.2	96.910	-0.130	0.040	2.540
2020/01/31 15:34:36.3	96.910	-0.160	0.060	2.560
2020/01/31 15:34:36.4	96.900	-0.190	0.080	2.570
2020/01/31 15:34:36.5	96.890	-0.220	0.100	2.590
2020/01/31 15:34:36.6	96.880	-0.250	0.120	2.590
2020/01/31 15:34:36.7	96.870	-0.280	0.140	2.600
2020/01/31 15:34:36.8	96.850	-0.300	0.160	2.600
2020/01/31 15:34:36.9	96.830	-0.330	0.170	2.600
2020/01/31 15:34:37.0	96.810	-0.350	0.180	2.590
2020/01/31 15:34:37.1	96.790	-0.370	0.190	2.580
2020/01/31 15:34:37.2	96.770	-0.380	0.190	2.560
2020/01/31 15:34:37.3	96.750	-0.400	0.190	2.540
2020/01/31 15:34:37.4	96.730	-0.410	0.190	2.520
2020/01/31 15:34:37.5	96.700	-0.420	0.190	2.490
2020/01/31 15:34:37.6	96.680	-0.420	0.180	2.460
2020/01/31 15:34:37.7	96.670	-0.430	0.170	2.430
2020/01/31 15:34:37.8	96.640	-0.430	0.160	2.390
2020/01/31 15:34:37.9	96.620	-0.430	0.140	2.340
2020/01/31 15:34:38.0	96.600	-0.420	0.120	2.290
2020/01/31 15:34:38.1	96.580	-0.410	0.100	2.240
2020/01/31 15:34:38.2	96.560	-0.400	0.080	2.180
2020/01/31 15:34:38.3	96.540	-0.390	0.050	2.120
2020/01/31 15:34:38.4	96.520	-0.380	0.020	2.050
2020/01/31 15:34:38.5	96.510	-0.360	-0.010	1.980
2020/01/31 15:34:38.6	96.490	-0.350	-0.040	1.910
2020/01/31 15:34:38.7	96.480	-0.330	-0.070	1.830
2020/01/31 15:34:38.8	96.470	-0.310	-0.100	1.750
2020/01/31 15:34:38.9	96.460	-0.290	-0.130	1.670
2020/01/31 15:34:39.0	96.450	-0.260	-0.160	1.580
2020/01/31 15:34:39.1	96.440	-0.240	-0.190	1.490
2020/01/31 15:34:39.2	96.440	-0.220	-0.220	1.400
2020/01/31 15:34:39.3	96.430	-0.200	-0.250	1.300
2020/01/31 15:34:39.4	96.430	-0.170	-0.280	1.210
2020/01/31 15:34:39.5	96.430	-0.150	-0.300	1.110
2020/01/31 15:34:39.6	96.430	-0.130	-0.330	1.010
2020/01/31 15:34:39.7	96.430	-0.100	-0.350	0.910
2020/01/31 15:34:39.8	96.430	-0.080	-0.370	0.810
2020/01/31 15:34:39.9	96.430	-0.060	-0.390	0.710
2020/01/31 15:34:40.0	96.430	-0.040	-0.410	0.600
2020/01/31 15:34:40.1	96.440	-0.030	-0.430	0.500
2020/01/31 15:34:40.2	96.440	-0.010	-0.440	0.400
2020/01/31 15:34:40.3	96.440	0.010	-0.450	0.300
2020/01/31 15:34:40.4	96.440	0.020	-0.460	0.200
2020/01/31 15:34:40.5	96.450	0.030	-0.470	0.100
2020/01/31 15:34:40.6	96.450	0.040	-0.480	0.000
2020/01/31 15:34:40.7	96.460	0.050	-0.480	-0.090
2020/01/31 15:34:40.8	96.460	0.060	-0.490	-0.180
2020/01/31 15:34:40.9	96.460	0.060	-0.490	-0.280
2020/01/31 15:34:41.0	96.460	0.070	-0.490	-0.370
2020/01/31 15:34:41.1	96.460	0.070	-0.480	-0.460
2020/01/31 15:34:41.2	96.460	0.070	-0.480	-0.550
2020/01/31 15:34:41.3	96.460	0.070	-0.470	-0.630
2020/01/31 15:34:41.4	96.450	0.070	-0.470	-0.710
2020/01/31 15:34:41.5	96.450	0.070	-0.460	-0.790
2020/01/31 15:34:41.6	96.440	0.060	-0.450	-0.870
2020/01/31 15:34:41.7	96.430	0.060	-0.430	-0.940
2020/01/31 15:34:41.8	96.420	0.050	-0.420	-1.010
2020/01/31 15:34:41.9	96.410	0.040	-0.410	-1.080
2020/01/31 15:34:42.0	96.400	0.030	-0.390	-1.140
2020/01/31 15:34:42.1	96.390	0.030	-0.370	-1.200
2020/01/31 15:34:42.2	96.380	0.020	-0.350	-1.260
2020/01/31 15:34:42.3	96.360	0.010	-0.330	-1.320
2020/01/31 15:34:42.4	96.340	-0.000	-0.310	-1.360
2020/01/31 15:34:42.5	96.330	-0.010	-0.290	-1.410
2020/01/31 15:34:42.6	96.310	-0.020	-0.270	-1.450
2020/01/31 15:34:42.7	96.280	-0.030	-0.240	-1.490
2020/01/31 15:34:42.8	96.260	-0.040	-0.210	-1.520
2020/01/31 15:34:42.9	96.240	-0.050	-0.190	-1.550
2020/01/31 15:34:43.0	96.220	-0.060	-0.160	-1.580
2020/01/31 15:34:43.1	96.200	-0.070	-0.140	-1.610
2020/01/31 15:34:43.2	96.190	-0.070	-0.110	-1.630
2020/01/31 15:34:43.3	96.170	-0.080	-0.090	-1.650
2020/01/31 15:34:43.4	96.150	-0.090	-0.060	-1.660
2020/01/31 15:34:43.5	96.140	-0.090	-0.040	-1.670
2020/01/31 15:34:43.6	96.130	-0.090	-0.020	-1.680
2020/01/31 15:34:43.7	96.110	-0.090	-0.000	-1.690
2020/01/31 15:34:43.8	96.100	-0.100	0.010	-1.690
2020/01/31 15:34:43.9	96.100	-0.100	0.030	-1.690
2020/01/31 15:34:44.0	96.090	-0.090	0.040	-1.690
2020/01/31 15:34:44.1	96.080	-0.090	0.050	-1.680
2020/01/31 15:34:44.2	96.080	-0.090	0.050	-1.670
2020/01/31 15:34:44.3	96.070	-0.080	0.050	-1.660
2020/01/31 15:34:44.4	96.070	-0.070	0.050	-1.650
2020/01/31 15:34:44.5	96.070	-0.070	0.040	-1.630
2020/01/31 15:34:44.6	96.070	-0.060	0.030	-1.610
2020/01/31 15:34:44.7	96.070	-0.050	0.010	-1.580
2020/01/31 15:34:44.8	96.080	-0.040	-0.000	-1.550
2020/01/31 15:34:44.9	96.080	-0.020	-0.030	-1.520
2020/01/31 15:34:45.0	96.080	-0.010	-0.050	-1.490
2020/01/31 15:34:45.1	96.090	0.000	-0.080	-1.460
2020/01/31 15:34:45.2	96.090	0.020	-0.110	-1.420
2020/01/31 15:34:45.3	96.100	0.030	-0.140	-1.380
2020/01/31 15:34:45.4	96.100	0.050	-0.170	-1.340
2020/01/31 15:34:45.5	96.110	0.060	-0.200	-1.300
2020/01/31 15:34:45.6	96.120	0.080	-0.240	-1.250
2020/01/31 15:34:45.7	96.130	0.090	-0.270	-1.190
2020/01/31 15:34:45.8	96.140	0.110	-0.300	-1.140
2020/01/31 15:34:45.9	96.150	0.120	-0.330	-1.080
2020/01/31 15:34:46.0	96.160	0.140	-0.360	-1.020
2020/01/31 15:34:46.1	96.170	0.150	-0.380	-0.960
2020/01/31 15:34:46.2	96.180	0.170	-0.410	-0.890
2020/01/31 15:34:46.3	96.200	0.180	-0.430	-0.820
2020/01/31 15:34:46.4	96.210	0.190	-0.440	-0.750
2020/01/31 15:34:46.5	96.210	0.210	-0.460	-0.670
2020/01/31 15:34:46.6	96.220	0.220	-0.470	-0.590
2020/01/31 15:34:46.7	96.230	0.230	-0.470	-0.500
2020/01/31 15:34:46.8	96.230	0.240	-0.470	-0.420
2020/01/31 15:34:46.9	96.240	0.250	-0.470	-0.330
2020/01/31 15:34:47.0	96.240	0.250	-0.470	-0.240
2020/01/31 15:34:47.1	96.250	0.260	-0.460	-0.140
2020/01/31 15:34:47.2	96.250	0.270	-0.440	-0.050
2020/01/31 15:34:47.3	96.250	0.270	-0.430	0.050
2020/01/31 15:34:47.4	96.240	0.280	-0.410	0.150
2020/01/31 15:34:47.5	96.240	0.280	-0.380	0.250
2020/01/31 15:34:47.6	96.230	0.280	-0.360	0.350
2020/01/31 15:34:47.7	96.230	0.280	-0.330	0.460
2020/01/31 15:34:47.8	96.220	0.280	-0.300	0.560
2020/01/31 15:34:47.9	96.210	0.280	-0.260	0.660
2020/01/31 15:34:48.0	96.200	0.280	-0.230	0.760
2020/01/31 15:34:48.1	96.180	0.280	-0.190	0.860
2020/01/31 15:34:48.2	96.170	0.280	-0.160	0.960
2020/01/31 15:34:48.3	96.160	0.270	-0.120	1.060
2020/01/31 15:34:48.4	96.140	0.270	-0.080	1.150
2020/01/31 15:34:48.5	96.120	0.260	-0.040	1.250
2020/01/31 15:34:48.6	96.110	0.250	-0.010	1.340
2020/01/31 15:34:48.7	96.090	0.240	0.030	1.430
2020/01/31 15:34:48.8	96.070	0.240	0.070	1.510
2020/01/31 15:34:48.9	96.050	0.230	0.100	1.600
2020/01/31 15:34:49.0	96.030	0.220	0.130	1.680
2020/01/31 15:34:49.1	96.010	0.200	0.150	1.750
2020/01/31 15:34:49.2	95.990	0.190	0.180	1.830
2020/01/31 15:34:49.3	95.970	0.180	0.200	1.900
2020/01/31 15:34:49.4	95.950	0.170	0.220	1.960
2020/01/31 15:34:49.5	95.940	0.150	0.230	2.020
2020/01/31 15:34:49.6	95.920	0.140	0.240	2.080
2020/01/31 15:34:49.7	95.900	0.130	0.240	2.130
2020/01/31 15:34:49.8	95.880	0.110	0.240	2.180
2020/01/31 15:34:49.9	95.870	0.100	0.230	2.230
2020/01/31 15:34:50.0	95.850	0.090	0.220	2.260
2020/01/31 15:34:50.1	95.840	0.080	0.210	2.300
2020/01/31 15:34:50.2	95.830	0.070	0.190	2.330
2020/01/31 15:34:50.3	95.820	0.060	0.170	2.360
2020/01/31 15:34:50.4	95.810	0.050	0.140	2.380
2020/01/31 15:34:50.5	95.800	0.040	0.110	2.400
2020/01/31 15:34:50.6	95.800	0.030	0.070	2.410
2020/01/31 15:34:50.7	95.790	0.020	0.040	2.420
2020/01/31 15:34:50.8	95.790	0.020	-0.010	2.430
2020/01/31 15:34:50.9	95.790	0.010	-0.050	2.440
2020/01/31 15:34:51.0	95.790	0.010	-0.100	2.440
2020/01/31 15:34:51.1	95.800	0.010	-0.160	2.430
2020/01/31 15:34:51.2	95.800	0.010	-0.210	2.430
2020/01/31 15:34:51.3	95.810	0.010	-0.270	2.420
2020/01/31 15:34:51.4	95.820	0.010	-0.320	2.400
2020/01/31 15:34:51.5	95.830	0.020	-0.380	2.390
2020/01/31 15:34:51.6	95.850	0.020	-0.430	2.370
2020/01/31 15:34:51.7	95.860	0.030	-0.490	2.340
2020/01/31 15:34:51.8	95.880	0.030	-0.540	2.320
2020/01/31 15:34:51.9	95.900	0.040	-0.600	2.280
2020/01/31 15:34:52.0	95.920	0.040	-0.640	2.250
2020/01/31 15:34:52.1	95.940	0.050	-0.690	2.210
2020/01/31 15:34:52.2	95.960	0.060	-0.730	2.170
2020/01/31 15:34:52.3	95.990	0.060	-0.770	2.120
2020/01/31 15:34:52.4	96.010	0.070	-0.800	2.070
2020/01/31 15:34:52.5	96.030	0.070	-0.820	2.020
2020/01/31 15:34:52.6	96.060	0.080	-0.840	1.970
2020/01/31 15:34:52.7	96.070	0.080	-0.860	1.910
2020/01/31 15:34:52.8	96.100	0.080	-0.860	1.850
2020/01/31 15:34:52.9	96.120	0.080	-0.860	1.790
2020/01/31 15:34:53.0	96.140	0.080	-0.850	1.730
2020/01/31 15:34:53.1	96.170	0.080	-0.840	1.660
2020/01/31 15:34:53.2	96.190	0.070	-0.820	1.590
2020/01/31 15:34:53.3	96.210	0.070	-0.790	1.520
2020/01/31 15:34:53.4	96.230	0.060	-0.760	1.450
2020/01/31 15:34:53.5	96.250	0.050	-0.710	1.370
2020/01/31 15:34:53.6	96.260	0.040	-0.670	1.300
2020/01/31 15:34:53.7	96.270	0.030	-0.610	1.220
2020/01/31 15:34:53.8	96.290	0.010	-0.550	1.140
2020/01/31 15:34:53.9	96.300	-0.010	-0.490	1.070
2020/01/31 15:34:54.0	96.320	-0.020	-0.420	0.990
2020/01/31 15:34:54.1	96.330	-0.040	-0.360	0.910
2020/01/31 15:34:54.2	96.340	-0.070	-0.280	0.830
2020/01/31 15:34:54.3	96.350	-0.090	-0.210	0.750
2020/01/31 15:34:54.4	96.350	-0.110	-0.140	0.670
2020/01/31 15:34:54.5	96.360	-0.140	-0.060	0.590
2020/01/31 15:34:54.6	96.360	-0.160	0.010	0.520
2020/01/31 15:34:54.7	96.370	-0.190	0.090	0.440
2020/01/31 15:34:54.8	96.370	-0.210	0.160	0.370
2020/01/31 15:34:54.9	96.370	-0.240	0.230	0.290
2020/01/31 15:34:55.0	96.360	-0.270	0.300	0.220
2020/01/31 15:34:55.1	96.360	-0.290	0.360	0.150
2020/01/31 15:34:55.2	96.350	-0.320	0.430	0.080
2020/01/31 15:34:55.3	96.340	-0.340	0.480	0.010
2020/01/31 15:34:55.4	96.330	-0.360	0.530	-0.050
2020/01/31 15:34:55.5	96.320	-0.380	0.580	-0.110
2020/01/31 15:34:55.6	96.300	-0.400	0.620	-0.180
2020/01/31 15:34:55.7	96.280	-0.420	0.650	-0.230
2020/01/31 15:34:55.8	96.270	-0.430	0.680	-0.290
2020/01/31 15:34:55.9	96.250	-0.450	0.700	-0.350
2020/01/31 15:34:56.0	96.230	-0.460	0.710	-0.400
2020/01/31 15:34:56.1	96.210	-0.460	0.720	-0.460
2020/01/31 15:34:56.2	96.190	-0.470	0.720	-0.510
2020/01/31 15:34:56.3	96.180	-0.470	0.710	-0.570
2020/01/31 15:34:56.4	96.160	-0.470	0.690	-0.620
2020/01/31 15:34:56.5	96.140	-0.460	0.670	-0.670
2020/01/31 15:34:56.6	96.120	-0.450	0.640	-0.720
2020/01/31 15:34:56.7	96.110	-0.440	0.610	-0.770
2020/01/31 15:34:56.8	96.090	-0.420	0.560	-0.810
2020/01/31 15:34:56.9	96.070	-0.400	0.520	-0.860
2020/01/31 15:34:57.0	96.060	-0.380	0.460	-0.910
2020/01/31 15:34:57.1	96.050	-0.360	0.410	-0.950
2020/01/31 15:34:57.2	96.040	-0.330	0.340	-1.000
2020/01/31 15:34:57.3	96.030	-0.310	0.280	-1.040
2020/01/31 15:34:57.4	96.020	-0.280	0.210	-1.080
2020/01/31 15:34:57.5	96.010	-0.240	0.140	-1.120
2020/01/31 15:34:57.6	96.010	-0.210	0.070	-1.160
2020/01/31 15:34:57.7	96.000	-0.180	-0.010	-1.200
2020/01/31 15:34:57.8	96.000	-0.140	-0.080	-1.240
2020/01/31 15:34:57.9	96.000	-0.110	-0.160	-1.270
2020/01/31 15:34:58.0	96.010	-0.070	-0.240	-1.310
2020/01/31 15:34:58.1	96.010	-0.040	-0.310	-1.340
2020/01/31 15:34:58.2	96.020	-0.010	-0.390	-1.370
2020/01/31 15:34:58.3	96.030	0.030	-0.460	-1.390
2020/01/31 15:34:58.4	96.040	0.060	-0.530	-1.420
2020/01/31 15:34:58.5	96.050	0.090	-0.600	-1.440
2020/01/31 15:34:58.6	96.060	0.120	-0.660	-1.460
2020/01/31 15:34:58.7	96.080	0.150	-0.720	-1.470
2020/01/31 15:34:58.8	96.100	0.170	-0.780	-1.480
2020/01/31 15:34:58.9	96.120	0.190	-0.830	-1.490
2020/01/31 15:34:59.0	96.140	0.220	-0.870	-1.490
2020/01/31 15:34:59.1	96.150	0.230	-0.910	-1.490
2020/01/31 15:34:59.2	96.170	0.250	-0.950	-1.490
2020/01/31 15:34:59.3	96.200	0.270	-0.980	-1.480
2020/01/31 15:34:59.4	96.220	0.280	-1.000	-1.470
2020/01/31 15:34:59.5	96.240	0.290	-1.020	-1.460
2020/01/31 15:34:59.6	96.260	0.290	-1.030	-1.440
2020/01/31 15:34:59.7	96.280	0.300	-1.030	-1.420
2020/01/31 15:34:59.8	96.300	0.300	-1.030	-1.390
2020/01/31 15:34:59.9	96.320	0.300	-1.020	-1.360
2020/01/31 15:35:00.0	96.340	0.300	-1.000	-1.330
2020/01/31 15:35:00.1	96.370	0.290	-0.980	-1.290
2020/01/31 15:35:00.2	96.390	0.290	-0.960	-1.260
2020/01/31 15:35:00.3	96.410	0.280	-0.930	-1.210
2020/01/31 15:35:00.4	96.430	0.270	-0.900	-1.170
2020/01/31 15:35:00.5	96.450	0.260	-0.860	-1.120
2020/01/31 15:35:00.6	96.470	0.250	-0.810	-1.060
2020/01/31 15:35:00.7	96.490	0.240	-0.760	-1.000
2020/01/31 15:35:00.8	96.510	0.220	-0.710	-0.950
2020/01/31 15:35:00.9	96.530	0.210	-0.660	-0.880
2020/01/31 15:35:01.0	96.550	0.190	-0.610	-0.820
2020/01/31 15:35:01.1	96.560	0.180	-0.550	-0.750
2020/01/31 15:35:01.2	96.580	0.160	-0.500	-0.680
2020/01/31 15:35:01.3	96.590	0.140	-0.440	-0.600
2020/01/31 15:35:01.4	96.610	0.130	-0.380	-0.520
2020/01/31 15:35:01.5	96.620	0.110	-0.320	-0.440
2020/01/31 15:35:01.6	96.630	0.090	-0.270	-0.360
2020/01/31 15:35:01.7	96.640	0.070	-0.210	-0.260
2020/01/31 15:35:01.8	96.650	0.060	-0.160	-0.180
2020/01/31 15:35:01.9	96.660	0.040	-0.100	-0.090
2020/01/31 15:35:02.0	96.660	0.030	-0.050	0.010
2020/01/31 15:35:02.1	96.670	0.010	-0.000	0.100
2020/01/31 15:35:02.2	96.670	-0.000	0.050	0.190
2020/01/31 15:35:02.3	96.680	-0.010	0.090	0.290
2020/01/31 15:35:02.4	96.680	-0.030	0.130	0.390
2020/01/31 15:35:02.5	96.690	-0.040	0.170	0.480
2020/01/31 15:35:02.6	96.690	-0.050	0.200	0.580
2020/01/31 15:35:02.7	96.690	-0.050	0.240	0.680
2020/01/31 15:35:02.8	96.690	-0.060	0.260	0.780
2020/01/31 15:35:02.9	96.690	-0.070	0.290	0.870
2020/01/31 15:35:03.0	96.690	-0.070	0.310	0.970
2020/01/31 15:35:03.1	96.700	-0.070	0.320	1.060
2020/01/31 15:35:03.2	96.700	-0.080	0.330	1.160
2020/01/31 15:35:03.3	96.700	-0.080	0.340	1.250
2020/01/31 15:35:03.4	96.710	-0.070	0.340	1.330
2020/01/31 15:35:03.5	96.710	-0.070	0.340	1.420
2020/01/31 15:35:03.6	96.710	-0.070	0.340	1.500
2020/01/31 15:35:03.7	96.720	-0.060	0.330	1.590
2020/01/31 15:35:03.8	96.730	-0.060	0.320	1.660
2020/01/31 15:35:03.9	96.740	-0.050	0.300	1.740
2020/01/31 15:35:04.0	96.750	-0.040	0.280	1.810
2020/01/31 15:35:04.1	96.760	-0.030	0.260	1.880
2020/01/31 15:35:04.2	96.770	-0.020	0.230	1.940
2020/01/31 15:35:04.3	96.780	-0.000	0.200	2.010
2020/01/31 15:35:04.4	96.790	0.010	0.170	2.070
2020/01/31 15:35:04.5	96.800	0.020	0.130	2.120
2020/01/31 15:35:04.6	96.810	0.040	0.100	2.180
2020/01/31 15:35:04.7	96.820	0.050	0.060	2.230
2020/01/31 15:35:04.8	96.840	0.070	0.020	2.280
2020/01/31 15:35:04.9	96.850	0.090	-0.020	2.320
2020/01/31 15:35:05.0	96.860	0.100	-0.060	2.370
2020/01/31 15:35:05.1	96.880	0.120	-0.100	2.410
2020/01/31 15:35:05.2	96.890	0.130	-0.130	2.440
2020/01/31 15:35:05.3	96.900	0.150	-0.170	2.480
2020/01/31 15:35:05.4	96.910	0.160	-0.210	2.510
2020/01/31 15:35:05.5	96.920	0.180	-0.250	2.540
2020/01/31 15:35:05.6	96.930	0.190	-0.280	2.560
2020/01/31 15:35:05.7	96.950	0.200	-0.310	2.590
2020/01/31 15:35:05.8	96.960	0.220	-0.340	2.600
2020/01/31 15:35:05.9	96.960	0.230	-0.360	2.610
2020/01/31 15:35:06.0	96.970	0.230	-0.390	2.620
2020/01/31 15:35:06.1	96.980	0.240	-0.410	2.620
2020/01/31 15:35:06.2	96.980	0.240	-0.420	2.620
2020/01/31 15:35:06.3	96.980	0.250	-0.430	2.610
2020/01/31 15:35:06.4	96.990	0.250	-0.440	2.600
2020/01/31 15:35:06.5	96.990	0.250	-0.450	2.580
2020/01/31 15:35:06.6	96.990	0.240	-0.450	2.560
2020/01/31 15:35:06.7	97.000	0.240	-0.440	2.530
2020/01/31 15:35:06.8	97.000	0.230	-0.430	2.500
2020/01/31 15:35:06.9	97.000	0.220	-0.420	2.460
2020/01/31 15:35:07.0	97.000	0.210	-0.410	2.420
2020/01/31 15:35:07.1	96.990	0.200	-0.390	2.370
2020/01/31 15:35:07.2	96.990	0.180	-0.370	2.320
2020/01/31 15:35:07.3	96.990	0.160	-0.340	2.260
2020/01/31 15:35:07.4	96.990	0.140	-0.310	2.200
2020/01/31 15:35:07.5	96.990	0.120	-0.280	2.140
2020/01/31 15:35:07.6	96.980	0.100	-0.250	2.070
2020/01/31 15:35:07.7	96.980	0.080	-0.210	2.000
2020/01/31 15:35:07.8	96.980	0.060	-0.170	1.930
2020/01/31 15:35:07.9	96.980	0.030	-0.130	1.850
2020/01/31 15:35:08.0	96.980	0.010	-0.100	1.780
2020/01/31 15:35:08.1	96.980	-0.020	-0.060	1.700
2020/01/31 15:35:08.2	96.970	-0.040	-0.020	1.620
2020/01/31 15:35:08.3	96.970	-0.070	0.010	1.540
2020/01/31 15:35:08.4	96.970	-0.090	0.050	1.450
2020/01/31 15:35:08.5	96.970	-0.120	0.080	1.370
2020/01/31 15:35:08.6	96.970	-0.140	0.110	1.280
2020/01/31 15:35:08.7	96.980	-0.160	0.130	1.200
2020/01/31 15:35:08.8	96.980	-0.180	0.150	1.110
2020/01/31 15:35:08.9	96.980	-0.200	0.170	1.030
2020/01/31 15:35:09.0	96.980	-0.220	0.180	0.940
2020/01/31 15:35:09.1	96.980	-0.230	0.190	0.850
2020/01/31 15:35:09.2	96.990	-0.250	0.190	0.760
2020/01/31 15:35:09.3	96.990	-0.260	0.190	0.670
2020/01/31 15:35:09.4	97.000	-0.260	0.180	0.580
2020/01/31 15:35:09.5	97.010	-0.270	0.160	0.500
2020/01/31 15:35:09.6	97.010	-0.270	0.140	0.410
2020/01/31 15:35:09.7	97.030	-0.270	0.110	0.320
2020/01/31 15:35:09.8	97.040	-0.270	0.080	0.230
2020/01/31 15:35:09.9	97.050	-0.260	0.050	0.140
2020/01/31 15:35:10.0	97.060	-0.250	0.010	0.050
2020/01/31 15:35:10.1	97.080	-0.240	-0.040	-0.040
2020/01/31 15:35:10.2	97.090	-0.230	-0.080	-0.130
2020/01/31 15:35:10.3	97.110	-0.210	-0.130	-0.210
2020/01/31 15:35:10.4	97.120	-0.200	-0.180	-0.300
2020/01/31 15:35:10.5	97.140	-0.180	-0.240	-0.390
2020/01/31 15:35:10.6	97.160	-0.160	-0.290	-0.470
2020/01/31 15:35:10.7	97.170	-0.140	-0.350	-0.550
2020/01/31 15:35:10.8	97.180	-0.110	-0.400	-0.640
2020/01/31 15:35:10.9	97.200	-0.090	-0.460	-0.720
2020/01/31 15:35:11.0	97.220	-0.070	-0.510	-0.800
2020/01/31 15:35:11.1	97.240	-0.040	-0.560	-0.880
2020/01/31 15:35:11.2	97.250	-0.020	-0.610	-0.950
2020/01/31 15:35:11.3	97.270	0.000	-0.650	-1.030
2020/01/31 15:35:11.4	97.290	0.020	-0.690	-1.100
2020/01/31 15:35:11.5	97.300	0.040	-0.720	-1.160
2020/01/31 15:35:11.6	97.320	0.060	-0.750	-1.230
2020/01/31 15:35:11.7	97.320	0.080	-0.780	-1.290
2020/01/31 15:35:11.8	97.340	0.090	-0.790	-1.350
2020/01/31 15:35:11.9	97.350	0.110	-0.810	-1.400
2020/01/31 15:35:12.0	97.360	0.120	-0.820	-1.450
2020/01/31 15:35:12.1	97.370	0.130	-0.820	-1.500
2020/01/31 15:35:12.2	97.380	0.130	-0.810	-1.540
2020/01/31 15:35:12.3	97.390	0.140	-0.810	-1.570
2020/01/31 15:35:12.4	97.400	0.140	-0.790	-1.600
2020/01/31 15:35:12.5	97.410	0.140	-0.770	-1.630
2020/01/31 15:35:12.6	97.420	0.140	-0.750	-1.640
2020/01/31 15:35:12.7	97.420	0.130	-0.710	-1.650
2020/01/31 15:35:12.8	97.430	0.120	-0.680	-1.660
2020/01/31 15:35:12.9	97.440	0.110	-0.640	-1.660
2020/01/31 15:35:13.0	97.440	0.100	-0.600	-1.650
2020/01/31 15:35:13.1	97.450	0.090	-0.560	-1.640
2020/01/31 15:35:13.2	97.460	0.070	-0.510	-1.620
2020/01/31 15:35:13.3	97.470	0.050	-0.460	-1.600
2020/01/31 15:35:13.4	97.480	0.040	-0.410	-1.570
2020/01/31 15:35:13.5	97.490	0.020	-0.360	-1.530
2020/01/31 15:35:13.6	97.500	-0.000	-0.310	-1.490
2020/01/31 15:35:13.7	97.500	-0.030	-0.260	-1.440
2020/01/31 15:35:13.8	97.510	-0.050	-0.200	-1.390
2020/01/31 15:35:13.9	97.530	-0.070	-0.150	-1.340
2020/01/31 15:35:14.0	97.540	-0.100	-0.100	-1.280
2020/01/31 15:35:14.1	97.550	-0.120	-0.050	-1.220
2020/01/31 15:35:14.2	97.560	-0.140	0.000	-1.150
2020/01/31 15:35:14.3	97.570	-0.170	0.050	-1.080
2020/01/31 15:35:14.4	97.580	-0.190	0.100	-1.010
2020/01/31 15:35:14.5	97.580	-0.210	0.150	-0.930
2020/01/31 15:35:14.6	97.590	-0.230	0.190	-0.850
2020/01/31 15:35:14.7	97.590	-0.250	0.240	-0.770
2020/01/31 15:35:14.8	97.600	-0.270	0.280	-0.690
2020/01/31 15:35:14.9	97.600	-0.290	0.320	-0.600
2020/01/31 15:35:15.0	97.610	-0.310	0.360	-0.510
2020/01/31 15:35:15.1	97.610	-0.320	0.400	-0.420
2020/01/31 15:35:15.2	97.610	-0.340	0.430	-0.330
2020/01/31 15:35:15.3	97.610	-0.350	0.460	-0.240
2020/01/31 15:35:15.4	97.600	-0.360	0.490	-0.140
2020/01/31 15:35:15.5	97.600	-0.370	0.520	-0.050
2020/01/31 15:35:15.6	97.590	-0.380	0.540	0.050
2020/01/31 15:35:15.7	97.580	-0.390	0.570	0.150
2020/01/31 15:35:15.8	97.570	-0.400	0.590	0.240
2020/01/31 15:35:15.9	97.560	-0.400	0.610	0.330
2020/01/31 15:35:16.0	97.540	-0.400	0.620	0.430
2020/01/31 15:35:16.1	97.530	-0.400	0.630	0.520
2020/01/31 15:35:16.2	97.520	-0.400	0.630	0.610
2020/01/31 15:35:16.3	97.500	-0.390	0.640	0.690
2020/01/31 15:35:16.4	97.490	-0.390	0.640	0.780
2020/01/31 15:35:16.5	97.470	-0.380	0.630	0.860
2020/01/31 15:35:16.6	97.460	-0.370	0.620	0.940
2020/01/31 15:35:16.7	97.450	-0.360	0.610	1.010
2020/01/31 15:35:16.8	97.440	-0.340	0.590	1.090
2020/01/31 15:35:16.9	97.420	-0.330	0.560	1.150
2020/01/31 15:35:17.0	97.410	-0.310	0.530	1.220
2020/01/31 15:35:17.1	97.400	-0.290	0.500	1.280
2020/01/31 15:35:17.2	97.390	-0.270	0.460	1.340
2020/01/31 15:35:17.3	97.380	-0.240	0.420	1.400
2020/01/31 15:35:17.4	97.370	-0.220	0.370	1.450
2020/01/31 15:35:17.5	97.360	-0.190	0.310	1.500
2020/01/31 15:35:17.6	97.360	-0.160	0.260	1.540
2020/01/31 15:35:17.7	97.370	-0.130	0.190	1.590
2020/01/31 15:35:17.8	97.370	-0.090	0.130	1.620
2020/01/31 15:35:17.9	97.370	-0.060	0.060	1.660
2020/01/31 15:35:18.0	97.370	-0.020	-0.020	1.690
2020/01/31 15:35:18.1	97.370	0.020	-0.090	1.710
2020/01/31 15:35:18.2	97.380	0.060	-0.170	1.740
2020/01/31 15:35:18.3	97.380	0.100	-0.250	1.760
2020/01/31 15:35:18.4	97.390	0.140	-0.340	1.780
2020/01/31 15:35:18.5	97.400	0.180	-0.420	1.790
2020/01/31 15:35:18.6	97.410	0.220	-0.500	1.810
2020/01/31 15:35:18.7	97.420	0.260	-0.590	1.820
2020/01/31 15:35:18.8	97.430	0.300	-0.670	1.830
2020/01/31 15:35:18.9	97.440	0.340	-0.750	1.840
2020/01/31 15:35:19.0	97.460	0.380	-0.830	1.840
2020/01/31 15:35:19.1	97.470	0.420	-0.910	1.840
2020/01/31 15:35:19.2	97.480	0.460	-0.980	1.850
2020/01/31 15:35:19.3	97.490	0.490	-1.050	1.840
2020/01/31 15:35:19.4	97.500	0.530	-1.110	1.840
2020/01/31 15:35:19.5	97.510	0.560	-1.170	1.840
2020/01/31 15:35:19.6	97.520	0.590	-1.230	1.830
2020/01/31 15:35:19.7	97.540	0.610	-1.280	1.820
2020/01/31 15:35:19.8	97.550	0.640	-1.320	1.810
2020/01/31 15:35:19.9	97.560	0.660	-1.350	1.790
2020/01/31 15:35:20.0	97.570	0.680	-1.380	1.780
2020/01/31 15:35:20.1	97.580	0.690	-1.400	1.760
2020/01/31 15:35:20.2	97.590	0.710	-1.410	1.740
2020/01/31 15:35:20.3	97.600	0.720	-1.420	1.720
2020/01/31 15:35:20.4	97.610	0.720	-1.410	1.690
2020/01/31 15:35:20.5	97.620	0.730	-1.400	1.670
2020/01/31 15:35:20.6	97.630	0.730	-1.380	1.640
2020/01/31 15:35:20.7	97.650	0.730	-1.350	1.610
2020/01/31 15:35:20.8	97.660	0.720	-1.320	1.580
2020/01/31 15:35:20.9	97.670	0.710	-1.270	1.550
2020/01/31 15:35:21.0	97.690	0.700	-1.230	1.510
2020/01/31 15:35:21.1	97.700	0.690	-1.170	1.480
2020/01/31 15:35:21.2	97.710	0.670	-1.110	1.440
2020/01/31 15:35:21.3	97.720	0.650	-1.050	1.400
2020/01/31 15:35:21.4	97.730	0.630	-0.980	1.360
2020/01/31 15:35:21.5	97.740	0.600	-0.900	1.320
2020/01/31 15:35:21.6	97.750	0.580	-0.820	1.280
2020/01/31 15:35:21.7	97.760	0.550	-0.740	1.240
2020/01/31 15:35:21.8	97.760	0.510	-0.650	1.200
2020/01/31 15:35:21.9	97.770	0.480	-0.560	1.160
2020/01/31 15:35:22.0	97.770	0.440	-0.470	1.120
2020/01/31 15:35:22.1	97.780	0.400	-0.380	1.080
2020/01/31 15:35:22.2	97.780	0.360	-0.290	1.040
2020/01/31 15:35:22.3	97.780	0.320	-0.190	1.000
2020/01/31 15:35:22.4	97.780	0.270	-0.100	0.960
2020/01/31 15:35:22.5	97.780	0.230	-0.010	0.930
2020/01/31 15:35:22.6	97.780	0.180	0.080	0.890
2020/01/31 15:35:22.7	97.760	0.130	0.170	0.850
2020/01/31 15:35:22.8	97.760	0.080	0.260	0.820
2020/01/31 15:35:22.9	97.750	0.030	0.340	0.780
2020/01/31 15:35:23.0	97.750	-0.020	0.420	0.750
2020/01/31 15:35:23.1	97.740	-0.070	0.500	0.710
2020/01/31 15:35:23.2	97.730	-0.120	0.570	0.680
2020/01/31 15:35:23.3	97.720	-0.170	0.640	0.650
2020/01/31 15:35:23.4	97.710	-0.220	0.700	0.610
2020/01/31 15:35:23.5	97.690	-0.270	0.760	0.580
2020/01/31 15:35:23.6	97.680	-0.310	0.810	0.550
2020/01/31 15:35:23.7	97.670	-0.360	0.860	0.520
2020/01/31 15:35:23.8	97.650	-0.400	0.890	0.490
2020/01/31 15:35:23.9	97.630	-0.440	0.930	0.470
2020/01/31 15:35:24.0	97.620	-0.480	0.950	0.440
2020/01/31 15:35:24.1	97.600	-0.520	0.980	0.420
2020/01/31 15:35:24.2	97.580	-0.550	0.990	0.390
2020/01/31 15:35:24.3	97.560	-0.580	1.000	0.370
2020/01/31 15:35:24.4	97.550	-0.600	1.000	0.350
2020/01/31 15:35:24.5	97.530	-0.630	1.000	0.330
2020/01/31 15:35:24.6	97.510	-0.650	0.990	0.300
2020/01/31 15:35:24.7	97.490	-0.660	0.970	0.280
2020/01/31 15:35:24.8	97.480	-0.680	0.950	0.260
2020/01/31 15:35:24.9	97.460	-0.690	0.920	0.250
2020/01/31 15:35:25.0	97.450	-0.690	0.890	0.230
2020/01/31 15:35:25.1	97.430	-0.700	0.860	0.210
2020/01/31 15:35:25.2	97.420	-0.700	0.810	0.190
2020/01/31 15:35:25.3	97.410	-0.700	0.770	0.170
2020/01/31 15:35:25.4	97.400	-0.690	0.720	0.160
2020/01/31 15:35:25.5	97.390	-0.680	0.660	0.140
2020/01/31 15:35:25.6	97.380	-0.670	0.610	0.120
2020/01/31 15:35:25.7	97.370	-0.660	0.550	0.100
2020/01/31 15:35:25.8	97.360	-0.650	0.480	0.090
2020/01/31 15:35:25.9	97.350	-0.630	0.420	0.070
2020/01/31 15:35:26.0	97.350	-0.610	0.350	0.050
2020/01/31 15:35:26.1	97.340	-0.590	0.280	0.030
2020/01/31 15:35:26.2	97.340	-0.570	0.210	0.000
2020/01/31 15:35:26.3	97.340	-0.550	0.140	-0.020
2020/01/31 15:35:26.4	97.340	-0.520	0.060	-0.040
2020/01/31 15:35:26.5	97.340	-0.500	-0.010	-0.070
2020/01/31 15:35:26.6	97.340	-0.470	-0.080	-0.100
2020/01/31 15:35:26.7	97.330	-0.450	-0.150	-0.120
2020/01/31 15:35:26.8	97.340	-0.420	-0.220	-0.150
2020/01/31 15:35:26.9	97.340	-0.390	-0.280	-0.180
2020/01/31 15:35:27.0	97.340	-0.370	-0.350	-0.210
2020/01/31 15:35:27.1	97.350	-0.340	-0.410	-0.240
2020/01/31 15:35:27.2	97.350	-0.310	-0.470	-0.270
2020/01/31 15:35:27.3	97.360	-0.290	-0.530	-0.300
2020/01/31 15:35:27.4	97.370	-0.260	-0.580	-0.330
2020/01/31 15:35:27.5	97.370	-0.230	-0.630	-0.360
2020/01/31 15:35:27.6	97.380	-0.210	-0.680	-0.400
2020/01/31 15:35:27.7	97.380	-0.180	-0.720	-0.420
2020/01/31 15:35:27.8	97.390	-0.160	-0.760	-0.450
2020/01/31 15:35:27.9	97.400	-0.130	-0.800	-0.480
2020/01/31 15:35:28.0	97.410	-0.110	-0.830	-0.510
2020/01/31 15:35:28.1	97.410	-0.090	-0.850	-0.540
2020/01/31 15:35:28.2	97.420	-0.070	-0.880	-0.560
2020/01/31 15:35:28.3	97.430	-0.040	-0.900	-0.580
2020/01/31 15:35:28.4	97.440	-0.020	-0.920	-0.600
2020/01/31 15:35:28.5	97.450	-0.000	-0.930	-0.620
2020/01/31 15:35:28.6	97.460	0.020	-0.940	-0.640
2020/01/31 15:35:28.7	97.470	0.040	-0.950	-0.660
2020/01/31 15:35:28.8	97.480	0.060	-0.950	-0.670
2020/01/31 15:35:28.9	97.490	0.080	-0.960	-0.680
2020/01/31 15:35:29.0	97.500	0.100	-0.960	-0.680
2020/01/31 15:35:29.1	97.520	0.120	-0.960	-0.690
2020/01/31 15:35:29.2	97.530	0.140	-0.950	-0.690
2020/01/31 15:35:29.3	97.550	0.160	-0.950	-0.680
2020/01/31 15:35:29.4	97.560	0.180	-0.950	-0.680
2020/01/31 15:35:29.5	97.580	0.200	-0.940	-0.670
2020/01/31 15:35:29.6	97.600	0.210	-0.930	-0.650
2020/01/31 15:35:29.7	97.620	0.240	-0.920	-0.630
2020/01/31 15:35:29.8	97.640	0.260	-0.910	-0.610
2020/01/31 15:35:29.9	97.660	0.280	-0.900	-0.580
2020/01/31 15:35:30.0	97.680	0.300	-0.890	-0.560
2020/01/31 15:35:30.1	97.700	0.320	-0.880	-0.520
2020/01/31 15:35:30.2	97.720	0.340	-0.860	-0.490
2020/01/31 15:35:30.3	97.740	0.360	-0.850	-0.450
2020/01/31 15:35:30.4	97.760	0.380	-0.830	-0.400
2020/01/31 15:35:30.5	97.780	0.400	-0.810	-0.360
2020/01/31 15:35:30.6	97.790	0.420	-0.790	-0.310
2020/01/31 15:35:30.7	97.800	0.440	-0.760	-0.250
2020/01/31 15:35:30.8	97.820	0.460	-0.730	-0.190
2020/01/31 15:35:30.9	97.840	0.480	-0.700	-0.140
2020/01/31 15:35:31.0	97.850	0.500	-0.670	-0.070
2020/01/31 15:35:31.1	97.860	0.520	-0.640	-0.010
2020/01/31 15:35:31.2	97.870	0.530	-0.600	0.060
2020/01/31 15:35:31.3	97.880	0.550	-0.560	0.120
2020/01/31 15:35:31.4	97.880	0.560	-0.520	0.190
2020/01/31 15:35:31.5	97.890	0.570	-0.470	0.260
2020/01/31 15:35:31.6	97.890	0.580	-0.430	0.330
2020/01/31 15:35:31.7	97.880	0.580	-0.370	0.410
2020/01/31 15:35:31.8	97.880	0.580	-0.320	0.480
2020/01/31 15:35:31.9	97.870	0.580	-0.270	0.560
2020/01/31 15:35:32.0	97.860	0.580	-0.220	0.630
2020/01/31 15:35:32.1	97.850	0.580	-0.160	0.700
2020/01/31 15:35:32.2	97.830	0.570	-0.110	0.770
2020/01/31 15:35:32.3	97.820	0.560	-0.050	0.840
2020/01/31 15:35:32.4	97.800	0.540	0.000	0.900
2020/01/31 15:35:32.5	97.780	0.520	0.060	0.970
2020/01/31 15:35:32.6	97.750	0.500	0.110	1.030
2020/01/31 15:35:32.7	97.730	0.480	0.160	1.100
2020/01/31 15:35:32.8	97.710	0.450	0.220	1.160
2020/01/31 15:35:32.9	97.680	0.420	0.270	1.220
2020/01/31 15:35:33.0	97.650	0.390	0.320	1.280
2020/01/31 15:35:33.1	97.620	0.350	0.370	1.330
2020/01/31 15:35:33.2	97.580	0.310	0.410	1.390
2020/01/31 15:35:33.3	97.550	0.270	0.460	1.440
2020/01/31 15:35:33.4	97.510	0.230	0.500	1.490
2020/01/31 15:35:33.5	97.480	0.190	0.540	1.540
2020/01/31 15:35:33.6	97.440	0.140	0.580	1.580
2020/01/31 15:35:33.7	97.420	0.100	0.610	1.630
2020/01/31 15:35:33.8	97.380	0.050	0.640	1.670
2020/01/31 15:35:33.9	97.340	0.000	0.670	1.710
2020/01/31 15:35:34.0	97.310	-0.040	0.700	1.750
2020/01/31 15:35:34.1	97.270	-0.090	0.720	1.780
2020/01/31 15:35:34.2	97.230	-0.140	0.740	1.820
2020/01/31 15:35:34.3	97.200	-0.180	0.750	1.840
2020/01/31 15:35:34.4	97.160	-0.220	0.760	1.870
2020/01/31 15:35:34.5	97.130	-0.260	0.770	1.890
2020/01/31 15:35:34.6	97.100	-0.300	0.780	1.910
2020/01/31 15:35:34.7	97.080	-0.340	0.790	1.930
2020/01/31 15:35:34.8	97.050	-0.370	0.790	1.950
2020/01/31 15:35:34.9	97.030	-0.410	0.780	1.960
2020/01/31 15:35:35.0	97.000	-0.430	0.780	1.960
2020/01/31 15:35:35.1	96.980	-0.460	0.770	1.960
2020/01/31 15:35:35.2	96.960	-0.480	0.750	1.960
2020/01/31 15:35:35.3	96.940	-0.490	0.730	1.960
2020/01/31 15:35:35.4	96.920	-0.510	0.700	1.950
2020/01/31 15:35:35.5	96.910	-0.520	0.680	1.930
2020/01/31 15:35:35.6	96.900	-0.520	0.640	1.910
2020/01/31 15:35:35.7	96.880	-0.520	0.600	1.890
2020/01/31 15:35:35.8	96.870	-0.520	0.550	1.860
2020/01/31 15:35:35.9	96.870	-0.510	0.500	1.830
2020/01/31 15:35:36.0	96.870	-0.500	0.450	1.790
2020/01/31 15:35:36.1	96.870	-0.480	0.390	1.750
2020/01/31 15:35:36.2	96.870	-0.460	0.320	1.710
2020/01/31 15:35:36.3	96.870	-0.430	0.250	1.660
2020/01/31 15:35:36.4	96.880	-0.410	0.170	1.610
2020/01/31 15:35:36.5	96.880	-0.370	0.090	1.550
2020/01/31 15:35:36.6	96.890	-0.340	0.010	1.490
2020/01/31 15:35:36.7	96.910	-0.300	-0.080	1.430
2020/01/31 15:35:36.8	96.920	-0.260	-0.170	1.360
2020/01/31 15:35:36.9	96.930	-0.220	-0.260	1.290
2020/01/31 15:35:37.0	96.950	-0.170	-0.360	1.220
2020/01/31 15:35:37.1	96.970	-0.130	-0.460	1.140
2020/01/31 15:35:37.2	96.990	-0.080	-0.560	1.060
2020/01/31 15:35:37.3	97.010	-0.030	-0.660	0.980
2020/01/31 15:35:37.4	97.030	0.020	-0.760	0.900
2020/01/31 15:35:37.5	97.050	0.070	-0.860	0.810
2020/01/31 15:35:37.6	97.080	0.120	-0.960	0.720
2020/01/31 15:35:37.7	97.100	0.170	-1.060	0.640
2020/01/31 15:35:37.8	97.130	0.220	-1.150	0.550
2020/01/31 15:35:37.9	97.160	0.270	-1.230	0.460
2020/01/31 15:35:38.0	97.190	0.310	-1.310	0.370
2020/01/31 15:35:38.1	97.220	0.350	-1.380	0.280
2020/01/31 15:35:38.2	97.250	0.390	-1.450	0.190
2020/01/31 15:35:38.3	97.280	0.430	-1.510	0.100
2020/01/31 15:35:38.4	97.310	0.460	-1.560	0.010
2020/01/31 15:35:38.5	97.340	0.490	-1.600	-0.070
2020/01/31 15:35:38.6	97.380	0.510	-1.630	-0.160
2020/01/31 15:35:38.7	97.410	0.530	-1.650	-0.240
2020/01/31 15:35:38.8	97.440	0.550	-1.660	-0.310
2020/01/31 15:35:38.9	97.470	0.560	-1.660	-0.380
2020/01/31 15:35:39.0	97.500	0.570	-1.650	-0.440
2020/01/31 15:35:39.1	97.530	0.570	-1.630	-0.500
2020/01/31 15:35:39.2	97.560	0.570	-1.590	-0.550
2020/01/31 15:35:39.3	97.580	0.560	-1.550	-0.600
2020/01/31 15:35:39.4	97.610	0.550	-1.500	-0.640
2020/01/31 15:35:39.5	97.630	0.530	-1.430	-0.670
2020/01/31 15:35:39.6	97.650	0.510	-1.360	-0.700
2020/01/31 15:35:39.7	97.670	0.490	-1.280	-0.700
2020/01/31 15:35:39.8	97.680	0.460	-1.190	-0.720
2020/01/31 15:35:39.9	97.700	0.420	-1.090	-0.720
2020/01/31 15:35:40.0	97.710	0.390	-0.980	-0.720
2020/01/31 15:35:40.1	97.720	0.340	-0.870	-0.710
2020/01/31 15:35:40.2	97.720	0.300	-0.750	-0.690
2020/01/31 15:35:40.3	97.720	0.250	-0.630	-0.660
2020/01/31 15:35:40.4	97.710	0.200	-0.510	-0.630
2020/01/31 15:35:40.5	97.710	0.150	-0.380	-0.590
2020/01/31 15:35:40.6	97.690	0.090	-0.250	-0.550
2020/01/31 15:35:40.7	97.680	0.030	-0.120	-0.500
2020/01/31 15:35:40.8	97.660	-0.020	0.010	-0.440
2020/01/31 15:35:40.9	97.640	-0.080	0.140	-0.380
2020/01/31 15:35:41.0	97.610	-0.140	0.260	-0.320
2020/01/31 15:35:41.1	97.580	-0.200	0.380	-0.250
2020/01/31 15:35:41.2	97.540	-0.260	0.500	-0.180
2020/01/31 15:35:41.3	97.510	-0.320	0.610	-0.100
2020/01/31 15:35:41.4	97.460	-0.380	0.720	-0.030
2020/01/31 15:35:41.5	97.420	-0.440	0.820	0.050
2020/01/31 15:35:41.6	97.380	-0.490	0.910	0.120
2020/01/31 15:35:41.7	97.330	-0.540	1.000	0.210
2020/01/31 15:35:41.8	97.280	-0.590	1.070	0.280
2020/01/31 15:35:41.9	97.240	-0.630	1.140	0.360
2020/01/31 15:35:42.0	97.190	-0.680	1.200	0.430
2020/01/31 15:35:42.1	97.150	-0.710	1.250	0.500
2020/01/31 15:35:42.2	97.100	-0.750	1.290	0.560
2020/01/31 15:35:42.3	97.060	-0.780	1.320	0.620
2020/01/31 15:35:42.4	97.020	-0.800	1.340	0.680
2020/01/31 15:35:42.5	96.980	-0.820	1.350	0.730
2020/01/31 15:35:42.6	96.940	-0.840	1.340	0.780
2020/01/31 15:35:42.7	96.910	-0.850	1.330	0.820
2020/01/31 15:35:42.8	96.880	-0.850	1.310	0.860
2020/01/31 15:35:42.9	96.850	-0.850	1.280	0.890
2020/01/31 15:35:43.0	96.830	-0.840	1.240	0.920
2020/01/31 15:35:43.1	96.810	-0.830	1.180	0.940
2020/01/31 15:35:43.2	96.790	-0.820	1.120	0.950
2020/01/31 15:35:43.3	96.780	-0.800	1.050	0.970
2020/01/31 15:35:43.4	96.770	-0.770	0.970	0.970
2020/01/31 15:35:43.5	96.760	-0.740	0.890	0.980
2020/01/31 15:35:43.6	96.760	-0.710	0.800	0.980
2020/01/31 15:35:43.7	96.760	-0.670	0.700	0.980
2020/01/31 15:35:43.8	96.760	-0.620	0.600	0.980
2020/01/31 15:35:43.9	96.760	-0.580	0.490	0.970
2020/01/31 15:35:44.0	96.760	-0.530	0.380	0.960
2020/01/31 15:35:44.1	96.770	-0.480	0.260	0.940
2020/01/31 15:35:44.2	96.770	-0.430	0.150	0.930
2020/01/31 15:35:44.3	96.780	-0.370	0.030	0.910
2020/01/31 15:35:44.4	96.790	-0.320	-0.080	0.890
2020/01/31 15:35:44.5	96.790	-0.260	-0.200	0.870
2020/01/31 15:35:44.6	96.800	-0.210	-0.310	0.850
2020/01/31 15:35:44.7	96.810	-0.150	-0.420	0.840
2020/01/31 15:35:44.8	96.820	-0.100	-0.530	0.810
2020/01/31 15:35:44.9	96.830	-0.040	-0.640	0.790
2020/01/31 15:35:45.0	96.850	0.010	-0.730	0.770
2020/01/31 15:35:45.1	96.860	0.070	-0.830	0.750
2020/01/31 15:35:45.2	96.870	0.120	-0.920	0.730
2020/01/31 15:35:45.3	96.880	0.170	-1.000	0.700
2020/01/31 15:35:45.4	96.890	0.210	-1.070	0.680
2020/01/31 15:35:45.5	96.900	0.260	-1.140	0.660
2020/01/31 15:35:45.6	96.910	0.300	-1.190	0.640
2020/01/31 15:35:45.7	96.930	0.340	-1.250	0.620
2020/01/31 15:35:45.8	96.940	0.370	-1.290	0.600
2020/01/31 15:35:45.9	96.950	0.400	-1.320	0.580
2020/01/31 15:35:46.0	96.960	0.430	-1.350	0.560
2020/01/31 15:35:46.1	96.960	0.460	-1.370	0.540
2020/01/31 15:35:46.2	96.970	0.480	-1.370	0.520
2020/01/31 15:35:46.3	96.980	0.500	-1.370	0.500
2020/01/31 15:35:46.4	96.980	0.520	-1.370	0.490
2020/01/31 15:35:46.5	96.990	0.530	-1.350	0.470
2020/01/31 15:35:46.6	97.000	0.550	-1.330	0.460
2020/01/31 15:35:46.7	97.000	0.560	-1.300	0.450
2020/01/31 15:35:46.8	97.000	0.560	-1.260	0.430
2020/01/31 15:35:46.9	97.010	0.570	-1.220	0.420
2020/01/31 15:35:47.0	97.010	0.570	-1.170	0.410
2020/01/31 15:35:47.1	97.010	0.570	-1.120	0.410
2020/01/31 15:35:47.2	97.010	0.570	-1.070	0.400
2020/01/31 15:35:47.3	97.020	0.570	-1.010	0.390
2020/01/31 15:35:47.4	97.020	0.560	-0.950	0.390
2020/01/31 15:35:47.5	97.020	0.560	-0.880	0.380
2020/01/31 15:35:47.6	97.020	0.550	-0.810	0.380
2020/01/31 15:35:47.7	97.020	0.550	-0.740	0.380
2020/01/31 15:35:47.8	97.020	0.540	-0.670	0.380
2020/01/31 15:35:47.9	97.020	0.530	-0.600	0.380
2020/01/31 15:35:48.0	97.030	0.530	-0.530	0.380
2020/01/31 15:35:48.1	97.030	0.520	-0.460	0.380
2020/01/31 15:35:48.2	97.030	0.510	-0.390	0.380
2020/01/31 15:35:48.3	97.040	0.500	-0.320	0.380
2020/01/31 15:35:48.4	97.040	0.490	-0.250	0.380
2020/01/31 15:35:48.5	97.050	0.480	-0.180	0.380
2020/01/31 15:35:48.6	97.050	0.460	-0.120	0.380
2020/01/31 15:35:48.7	97.060	0.450	-0.060	0.380
2020/01/31 15:35:48.8	97.070	0.440	0.010	0.380
2020/01/31 15:35:48.9	97.070	0.430	0.070	0.380
2020/01/31 15:35:49.0	97.080	0.410	0.120	0.380
2020/01/31 15:35:49.1	97.080	0.400	0.180	0.390
2020/01/31 15:35:49.2	97.090	0.380	0.230	0.390
2020/01/31 15:35:49.3	97.090	0.360	0.280	0.390
2020/01/31 15:35:49.4	97.090	0.340	0.320	0.390
2020/01/31 15:35:49.5	97.090	0.320	0.360	0.390
2020/01/31 15:35:49.6	97.100	0.300	0.400	0.400
2020/01/31 15:35:49.7	97.100	0.280	0.440	0.400
2020/01/31 15:35:49.8	97.100	0.260	0.470	0.400
2020/01/31 15:35:49.9	97.100	0.230	0.500	0.410
2020/01/31 15:35:50.0	97.100	0.210	0.530	0.410
2020/01/31 15:35:50.1	97.100	0.180	0.550	0.410
2020/01/31 15:35:50.2	97.100	0.150	0.570	0.420
2020/01/31 15:35:50.3	97.090	0.120	0.590	0.430
2020/01/31 15:35:50.4	97.090	0.090	0.600	0.430
2020/01/31 15:35:50.5	97.080	0.060	0.610	0.440
2020/01/31 15:35:50.6	97.070	0.030	0.620	0.450
2020/01/31 15:35:50.7	97.060	-0.000	0.620	0.460
2020/01/31 15:35:50.8	97.050	-0.030	0.620	0.470
2020/01/31 15:35:50.9	97.050	-0.070	0.620	0.480
2020/01/31 15:35:51.0	97.040	-0.100	0.620	0.500
2020/01/31 15:35:51.1	97.020	-0.130	0.610	0.510
2020/01/31 15:35:51.2	97.010	-0.160	0.590	0.520
2020/01/31 15:35:51.3	97.000	-0.200	0.580	0.530
2020/01/31 15:35:51.4	96.990	-0.230	0.560	0.550
2020/01/31 15:35:51.5	96.980	-0.260	0.530	0.560
2020/01/31 15:35:51.6	96.960	-0.280	0.500	0.580
2020/01/31 15:35:51.7	96.950	-0.310	0.470	0.590
2020/01/31 15:35:51.8	96.940	-0.340	0.440	0.610
2020/01/31 15:35:51.9	96.920	-0.360	0.400	0.620
2020/01/31 15:35:52.0	96.910	-0.380	0.360	0.640
2020/01/31 15:35:52.1	96.900	-0.400	0.310	0.650
2020/01/31 15:35:52.2	96.890	-0.420	0.260	0.670
2020/01/31 15:35:52.3	96.870	-0.430	0.210	0.690
2020/01/31 15:35:52.4	96.860	-0.440	0.150	0.700
2020/01/31 15:35:52.5	96.850	-0.450	0.100	0.720
2020/01/31 15:35:52.6	96.840	-0.450	0.030	0.730
2020/01/31 15:35:52.7	96.840	-0.460	-0.030	0.750
2020/01/31 15:35:52.8	96.830	-0.460	-0.090	0.760
2020/01/31 15:35:52.9	96.820	-0.450	-0.160	0.770
2020/01/31 15:35:53.0	96.820	-0.450	-0.230	0.790
2020/01/31 15:35:53.1	96.810	-0.440	-0.290	0.790
2020/01/31 15:35:53.2	96.810	-0.430	-0.360	0.800
2020/01/31 15:35:53.3	96.810	-0.410	-0.430	0.810
2020/01/31 15:35:53.4	96.810	-0.390	-0.500	0.810
2020/01/31 15:35:53.5	96.810	-0.370	-0.560	0.810
2020/01/31 15:35:53.6	96.810	-0.350	-0.630	0.820
2020/01/31 15:35:53.7	96.810	-0.330	-0.690	0.810
2020/01/31 15:35:53.8	96.810	-0.310	-0.750	0.810
2020/01/31 15:35:53.9	96.820	-0.280	-0.810	0.810
2020/01/31 15:35:54.0	96.830	-0.250	-0.860	0.800
2020/01/31 15:35:54.1	96.840	-0.220	-0.910	0.790
2020/01/31 15:35:54.2	96.850	-0.190	-0.950	0.790
2020/01/31 15:35:54.3	96.870	-0.160	-0.990	0.780
2020/01/31 15:35:54.4	96.880	-0.140	-1.030	0.770
2020/01/31 15:35:54.5	96.890	-0.110	-1.060	0.760
2020/01/31 15:35:54.6	96.910	-0.080	-1.080	0.750
2020/01/31 15:35:54.7	96.930	-0.050	-1.100	0.750
2020/01/31 15:35:54.8	96.940	-0.020	-1.110	0.730
2020/01/31 15:35:54.9	96.960	0.000	-1.110	0.720
2020/01/31 15:35:55.0	96.970	0.030	-1.110	0.710
2020/01/31 15:35:55.1	96.990	0.050	-1.110	0.710
2020/01/31 15:35:55.2	97.000	0.070	-1.090	0.700
2020/01/31 15:35:55.3	97.020	0.090	-1.070	0.690
2020/01/31 15:35:55.4	97.030	0.110	-1.040	0.680
2020/01/31 15:35:55.5	97.040	0.120	-1.010	0.670
2020/01/31 15:35:55.6	97.060	0.140	-0.970	0.670
2020/01/31 15:35:55.7	97.070	0.150	-0.920	0.670
2020/01/31 15:35:55.8	97.090	0.150	-0.870	0.660
2020/01/31 15:35:55.9	97.100	0.160	-0.820	0.660
2020/01/31 15:35:56.0	97.110	0.160	-0.760	0.650
2020/01/31 15:35:56.1	97.120	0.160	-0.690	0.650
2020/01/31 15:35:56.2	97.130	0.160	-0.620	0.650
2020/01/31 15:35:56.3	97.140	0.160	-0.550	0.640
2020/01/31 15:35:56.4	97.160	0.150	-0.480	0.640
2020/01/31 15:35:56.5	97.170	0.140	-0.410	0.630
2020/01/31 15:35:56.6	97.180	0.130	-0.330	0.620
2020/01/31 15:35:56.7	97.190	0.120	-0.250	0.620
2020/01/31 15:35:56.8	97.200	0.110	-0.180	0.610
2020/01/31 15:35:56.9	97.210	0.090	-0.100	0.610
2020/01/31 15:35:57.0	97.230	0.070	-0.030	0.600
2020/01/31 15:35:57.1	97.240	0.060	0.040	0.590
2020/01/31 15:35:57.2	97.250	0.040	0.110	0.580
2020/01/31 15:35:57.3	97.260	0.020	0.180	0.570
2020/01/31 15:35:57.4	97.280	0.000	0.240	0.560
2020/01/31 15:35:57.5	97.290	-0.010	0.300	0.550
2020/01/31 15:35:57.6	97.300	-0.030	0.350	0.540
2020/01/31 15:35:57.7	97.310	-0.050	0.400	0.530
2020/01/31 15:35:57.8	97.320	-0.060	0.440	0.520
2020/01/31 15:35:57.9	97.330	-0.080	0.480	0.500
2020/01/31 15:35:58.0	97.350	-0.090	0.510	0.490
2020/01/31 15:35:58.1	97.360	-0.110	0.530	0.470
2020/01/31 15:35:58.2	97.370	-0.120	0.550	0.450
2020/01/31 15:35:58.3	97.380	-0.130	0.570	0.440
2020/01/31 15:35:58.4	97.390	-0.140	0.570	0.420
2020/01/31 15:35:58.5	97.400	-0.140	0.570	0.400
2020/01/31 15:35:58.6	97.410	-0.150	0.570	0.380
2020/01/31 15:35:58.7	97.420	-0.150	0.550	0.360
2020/01/31 15:35:58.8	97.430	-0.150	0.540	0.350
2020/01/31 15:35:58.9	97.430	-0.150	0.520	0.330
2020/01/31 15:35:59.0	97.440	-0.150	0.490	0.310
2020/01/31 15:35:59.1	97.440	-0.150	0.460	0.290
2020/01/31 15:35:59.2	97.450	-0.140	0.430	0.280
2020/01/31 15:35:59.3	97.450	-0.140	0.390	0.260
2020/01/31 15:35:59.4	97.450	-0.130	0.360	0.250
2020/01/31 15:35:59.5	97.440	-0.120	0.320	0.240
2020/01/31 15:35:59.6	97.440	-0.120	0.280	0.230
2020/01/31 15:35:59.7	97.430	-0.110	0.240	0.220
2020/01/31 15:35:59.8	97.420	-0.100	0.200	0.210
2020/01/31 15:35:59.9	97.410	-0.090	0.160	0.200
2020/01/31 15:36:00.0	97.400	-0.080	0.120	0.200
2020/01/31 15:36:00.1	97.390	-0.070	0.080	0.190
2020/01/31 15:36:00.2	97.380	-0.060	0.040	0.190
2020/01/31 15:36:00.3	97.360	-0.060	0.010	0.190
2020/01/31 15:36:00.4	97.350	-0.050	-0.020	0.180
2020/01/31 15:36:00.5	97.330	-0.040	-0.050	0.180
2020/01/31 15:36:00.6	97.310	-0.040	-0.080	0.180
2020/01/31 15:36:00.7	97.290	-0.030	-0.100	0.190
2020/01/31 15:36:00.8	97.270	-0.030	-0.130	0.190
2020/01/31 15:36:00.9	97.250	-0.030	-0.150	0.190
2020/01/31 15:36:01.0	97.230	-0.020	-0.160	0.190
2020/01/31 15:36:01.1	97.210	-0.020	-0.180	0.200
2020/01/31 15:36:01.2	97.190	-0.020	-0.190	0.200
2020/01/31 15:36:01.3	97.170	-0.020	-0.200	0.200
2020/01/31 15:36:01.4	97.150	-0.020	-0.210	0.200
2020/01/31 15:36:01.5	97.140	-0.020	-0.220	0.210
2020/01/31 15:36:01.6	97.120	-0.020	-0.230	0.210
2020/01/31 15:36:01.7	97.100	-0.020	-0.240	0.210
2020/01/31 15:36:01.8	97.080	-0.020	-0.240	0.210
2020/01/31 15:36:01.9	97.060	-0.020	-0.250	0.220
2020/01/31 15:36:02.0	97.050	-0.020	-0.260	0.220
2020/01/31 15:36:02.1	97.030	-0.020	-0.270	0.220
2020/01/31 15:36:02.2	97.020	-0.010	-0.290	0.220
2020/01/31 15:36:02.3	97.010	-0.010	-0.300	0.220
2020/01/31 15:36:02.4	97.000	-0.000	-0.320	0.220
2020/01/31 15:36:02.5	96.990	0.000	-0.330	0.220
2020/01/31 15:36:02.6	96.980	0.010	-0.350	0.220
2020/01/31 15:36:02.7	96.980	0.020	-0.370	0.220
2020/01/31 15:36:02.8	96.980	0.030	-0.390	0.220
2020/01/31 15:36:02.9	96.980	0.040	-0.420	0.210
2020/01/31 15:36:03.0	96.990	0.060	-0.450	0.210
2020/01/31 15:36:03.1	96.990	0.070	-0.470	0.200
2020/01/31 15:36:03.2	97.000	0.090	-0.500	0.190
2020/01/31 15:36:03.3	97.010	0.110	-0.530	0.170
2020/01/31 15:36:03.4	97.030	0.130	-0.560	0.160
2020/01/31 15:36:03.5	97.050	0.150	-0.590	0.150
2020/01/31 15:36:03.6	97.070	0.170	-0.630	0.130
2020/01/31 15:36:03.7	97.100	0.190	-0.660	0.130
2020/01/31 15:36:03.8	97.120	0.210	-0.690	0.110
2020/01/31 15:36:03.9	97.150	0.240	-0.710	0.100
2020/01/31 15:36:04.0	97.180	0.260	-0.740	0.080
2020/01/31 15:36:04.1	97.210	0.280	-0.760	0.070
2020/01/31 15:36:04.2	97.240	0.300	-0.790	0.060
2020/01/31 15:36:04.3	97.270	0.320	-0.810	0.050
2020/01/31 15:36:04.4	97.300	0.340	-0.820	0.040
2020/01/31 15:36:04.5	97.330	0.360	-0.830	0.040
2020/01/31 15:36:04.6	97.360	0.380	-0.840	0.030
2020/01/31 15:36:04.7	97.390	0.400	-0.840	0.030
2020/01/31 15:36:04.8	97.420	0.410	-0.840	0.030
2020/01/31 15:36:04.9	97.450	0.420	-0.830	0.030
2020/01/31 15:36:05.0	97.480	0.430	-0.820	0.030
2020/01/31 15:36:05.1	97.510	0.430	-0.810	0.030
2020/01/31 15:36:05.2	97.540	0.440	-0.790	0.040
2020/01/31 15:36:05.3	97.570	0.440	-0.760	0.040
2020/01/31 15:36:05.4	97.590	0.430	-0.730	0.050
2020/01/31 15:36:05.5	97.620	0.430	-0.700	0.060
2020/01/31 15:36:05.6	97.640	0.420	-0.660	0.070
2020/01/31 15:36:05.7	97.660	0.410	-0.610	0.080
2020/01/31 15:36:05.8	97.680	0.390	-0.560	0.100
2020/01/31 15:36:05.9	97.700	0.370	-0.510	0.110
2020/01/31 15:36:06.0	97.720	0.350	-0.460	0.130
2020/01/31 15:36:06.1	97.740	0.330	-0.400	0.150
2020/01/31 15:36:06.2	97.750	0.310	-0.350	0.170
2020/01/31 15:36:06.3	97.760	0.280	-0.290	0.190
2020/01/31 15:36:06.4	97.780	0.250	-0.230	0.220
2020/01/31 15:36:06.5	97.780	0.220	-0.160	0.240
2020/01/31 15:36:06.6	97.790	0.190	-0.100	0.270
2020/01/31 15:36:06.7	97.800	0.160	-0.030	0.310
2020/01/31 15:36:06.8	97.810	0.130	0.030	0.340
2020/01/31 15:36:06.9	97.810	0.090	0.090	0.380
2020/01/31 15:36:07.0	97.810	0.060	0.150	0.410
2020/01/31 15:36:07.1	97.810	0.020	0.210	0.450
2020/01/31 15:36:07.2	97.810	-0.010	0.270	0.490
2020/01/31 15:36:07.3	97.810	-0.040	0.330	0.530
2020/01/31 15:36:07.4	97.800	-0.080	0.380	0.570
2020/01/31 15:36:07.5	97.800	-0.110	0.430	0.620
2020/01/31 15:36:07.6	97.790	-0.140	0.480	0.660
2020/01/31 15:36:07.7	97.780	-0.180	0.520	0.710
2020/01/31 15:36:07.8	97.770	-0.210	0.560	0.760
2020/01/31 15:36:07.9	97.760	-0.240	0.600	0.810
2020/01/31 15:36:08.0	97.750	-0.260	0.630	0.850
2020/01/31 15:36:08.1	97.740	-0.290	0.660	0.900
2020/01/31 15:36:08.2	97.720	-0.320	0.690	0.950
2020/01/31 15:36:08.3	97.700	-0.340	0.710	1.000
2020/01/31 15:36:08.4	97.690	-0.360	0.720	1.040
2020/01/31 15:36:08.5	97.670	-0.380	0.730	1.090
2020/01/31 15:36:08.6	97.650	-0.400	0.730	1.130
2020/01/31 15:36:08.7	97.650	-0.410	0.740	1.180
2020/01/31 15:36:08.8	97.630	-0.430	0.730	1.220
2020/01/31 15:36:08.9	97.610	-0.440	0.720	1.260
2020/01/31 15:36:09.0	97.600	-0.450	0.700	1.290
2020/01/31 15:36:09.1	97.580	-0.460	0.680	1.330
2020/01/31 15:36:09.2	97.560	-0.460	0.650	1.360
2020/01/31 15:36:09.3	97.550	-0.470	0.620	1.390
2020/01/31 15:36:09.4	97.530	-0.470	0.580	1.410
2020/01/31 15:36:09.5	97.520	-0.460	0.540	1.430
2020/01/31 15:36:09.6	97.500	-0.460	0.500	1.450
2020/01/31 15:36:09.7	97.500	-0.450	0.440	1.470
2020/01/31 15:36:09.8	97.490	-0.450	0.390	1.490
2020/01/31 15:36:09.9	97.480	-0.430	0.330	1.500
2020/01/31 15:36:10.0	97.470	-0.420	0.270	1.500
2020/01/31 15:36:10.1	97.460	-0.410	0.210	1.510
2020/01/31 15:36:10.2	97.460	-0.390	0.140	1.510
2020/01/31 15:36:10.3	97.450	-0.370	0.070	1.500
2020/01/31 15:36:10.4	97.450	-0.350	0.010	1.500
2020/01/31 15:36:10.5	97.450	-0.330	-0.060	1.490
2020/01/31 15:36:10.6	97.450	-0.310	-0.130	1.470
2020/01/31 15:36:10.7	97.450	-0.280	-0.200	1.450
2020/01/31 15:36:10.8	97.450	-0.260	-0.270	1.430
2020/01/31 15:36:10.9	97.450	-0.230	-0.340	1.410
2020/01/31 15:36:11.0	97.450	-0.210	-0.400	1.380
2020/01/31 15:36:11.1	97.460	-0.180	-0.470	1.340
2020/01/31 15:36:11.2	97.460	-0.150	-0.530	1.310
2020/01/31 15:36:11.3	97.470	-0.120	-0.590	1.270
2020/01/31 15:36:11.4	97.480	-0.090	-0.650	1.220
2020/01/31 15:36:11.5	97.490	-0.070	-0.710	1.180
2020/01/31 15:36:11.6	97.500	-0.040	-0.760	1.130
2020/01/31 15:36:11.7	97.510	-0.010	-0.810	1.070
2020/01/31 15:36:11.8	97.520	0.020	-0.860	1.020
2020/01/31 15:36:11.9	97.530	0.050	-0.900	0.960
2020/01/31 15:36:12.0	97.550	0.080	-0.940	0.900
2020/01/31 15:36:12.1	97.560	0.100	-0.970	0.840
2020/01/31 15:36:12.2	97.580	0.130	-1.000	0.780
2020/01/31 15:36:12.3	97.590	0.160	-1.030	0.710
2020/01/31 15:36:12.4	97.610	0.180	-1.050	0.650
2020/01/31 15:36:12.5	97.630	0.210	-1.070	0.580
2020/01/31 15:36:12.6	97.640	0.230	-1.090	0.520
2020/01/31 15:36:12.7	97.660	0.260	-1.100	0.460
2020/01/31 15:36:12.8	97.680	0.280	-1.110	0.400
2020/01/31 15:36:12.9	97.690	0.300	-1.120	0.330
2020/01/31 15:36:13.0	97.710	0.330	-1.120	0.270
2020/01/31 15:36:13.1	97.730	0.350	-1.120	0.210
2020/01/31 15:36:13.2	97.750	0.360	-1.120	0.150
2020/01/31 15:36:13.3	97.770	0.380	-1.110	0.100
2020/01/31 15:36:13.4	97.790	0.400	-1.100	0.040
2020/01/31 15:36:13.5	97.800	0.410	-1.080	-0.010
2020/01/31 15:36:13.6	97.820	0.430	-1.070	-0.060
2020/01/31 15:36:13.7	97.840	0.440	-1.040	-0.110
2020/01/31 15:36:13.8	97.850	0.450	-1.020	-0.150
2020/01/31 15:36:13.9	97.870	0.460	-0.990	-0.190
2020/01/31 15:36:14.0	97.890	0.470	-0.960	-0.230
2020/01/31 15:36:14.1	97.900	0.470	-0.930	-0.270
2020/01/31 15:36:14.2	97.920	0.470	-0.890	-0.300
2020/01/31 15:36:14.3	97.930	0.470	-0.850	-0.330
2020/01/31 15:36:14.4	97.940	0.470	-0.810	-0.350
2020/01/31 15:36:14.5	97.960	0.460	-0.760	-0.380
2020/01/31 15:36:14.6	97.970	0.450	-0.710	-0.400
2020/01/31 15:36:14.7	97.970	0.440	-0.650	-0.410
2020/01/31 15:36:14.8	97.980	0.430	-0.590	-0.420
2020/01/31 15:36:14.9	97.990	0.410	-0.520	-0.430
2020/01/31 15:36:15.0	97.990	0.390	-0.450	-0.430
2020/01/31 15:36:15.1	98.000	0.360	-0.380	-0.440
2020/01/31 15:36:15.2	98.000	0.340	-0.310	-0.440
2020/01/31 15:36:15.3	98.000	0.310	-0.230	-0.430
2020/01/31 15:36:15.4	98.000	0.280	-0.150	-0.430
2020/01/31 15:36:15.5	98.000	0.240	-0.070	-0.420
2020/01/31 15:36:15.6	98.000	0.210	0.010	-0.410
2020/01/31 15:36:15.7	97.990	0.170	0.100	-0.390
2020/01/31 15:36:15.8	97.990	0.130	0.180	-0.380
2020/01/31 15:36:15.9	97.980	0.090	0.260	-0.370
2020/01/31 15:36:16.0	97.980	0.040	0.350	-0.350
2020/01/31 15:36:16.1	97.970	-0.000	0.430	-0.330
2020/01/31 15:36:16.2	97.960	-0.050	0.510	-0.310
2020/01/31 15:36:16.3	97.950	-0.090	0.590	-0.290
2020/01/31 15:36:16.4	97.940	-0.140	0.670	-0.270
2020/01/31 15:36:16.5	97.930	-0.180	0.750	-0.250
2020/01/31 15:36:16.6	97.920	-0.230	0.810	-0.220
2020/01/31 15:36:16.7	97.910	-0.270	0.880	-0.190
2020/01/31 15:36:16.8	97.900	-0.310	0.940	-0.170
2020/01/31 15:36:16.9	97.890	-0.360	1.000	-0.150
2020/01/31 15:36:17.0	97.880	-0.390	1.050	-0.120
2020/01/31 15:36:17.1	97.870	-0.430	1.090	-0.100
2020/01/31 15:36:17.2	97.860	-0.470	1.120	-0.070
2020/01/31 15:36:17.3	97.850	-0.500	1.150	-0.050
2020/01/31 15:36:17.4	97.840	-0.530	1.170	-0.030
2020/01/31 15:36:17.5	97.840	-0.550	1.190	-0.000
2020/01/31 15:36:17.6	97.830	-0.570	1.190	0.020
2020/01/31 15:36:17.7	97.840	-0.590	1.200	0.050
2020/01/31 15:36:17.8	97.830	-0.610	1.190	0.070
2020/01/31 15:36:17.9	97.830	-0.620	1.170	0.090
2020/01/31 15:36:18.0	97.830	-0.620	1.140	0.110
2020/01/31 15:36:18.1	97.830	-0.630	1.110	0.130
2020/01/31 15:36:18.2	97.840	-0.620	1.060	0.160
2020/01/31 15:36:18.3	97.840	-0.620	1.010	0.180
2020/01/31 15:36:18.4	97.840	-0.610	0.950	0.200
2020/01/31 15:36:18.5	97.850	-0.600	0.890	0.230
2020/01/31 15:36:18.6	97.860	-0.580	0.820	0.250
2020/01/31 15:36:18.7	97.870	-0.560	0.740	0.280
2020/01/31 15:36:18.8	97.880	-0.540	0.660	0.310
2020/01/31 15:36:18.9	97.880	-0.510	0.570	0.330
2020/01/31 15:36:19.0	97.890	-0.480	0.470	0.360
2020/01/31 15:36:19.1	97.910	-0.450	0.370	0.390
2020/01/31 15:36:19.2	97.920	-0.420	0.270	0.420
2020/01/31 15:36:19.3	97.930	-0.380	0.160	0.450
2020/01/31 15:36:19.4	97.940	-0.340	0.050	0.480
2020/01/31 15:36:19.5	97.950	-0.300	-0.060	0.510
2020/01/31 15:36:19.6	97.960	-0.260	-0.170	0.540
2020/01/31 15:36:19.7	97.980	-0.220	-0.290	0.570
2020/01/31 15:36:19.8	97.990	-0.170	-0.400	0.600
2020/01/31 15:36:19.9	98.000	-0.130	-0.510	0.630
2020/01/31 15:36:20.0	98.020	-0.080	-0.620	0.660
2020/01/31 15:36:20.1	98.030	-0.030	-0.730	0.680
2020/01/31 15:36:20.2	98.040	0.010	-0.830	0.710
2020/01/31 15:36:20.3	98.050	0.060	-0.930	0.730
2020/01/31 15:36:20.4	98.060	0.100	-1.030	0.750
2020/01/31 15:36:20.5	98.070	0.140	-1.120	0.770
2020/01/31 15:36:20.6	98.080	0.190	-1.200	0.790
2020/01/31 15:36:20.7	98.090	0.230	-1.280	0.810
2020/01/31 15:36:20.8	98.100	0.270	-1.350	0.820
2020/01/31 15:36:20.9	98.110	0.310	-1.420	0.830
2020/01/31 15:36:21.0	98.110	0.350	-1.470	0.840
2020/01/31 15:36:21.1	98.120	0.380	-1.520	0.840
2020/01/31 15:36:21.2	98.130	0.410	-1.560	0.850
2020/01/31 15:36:21.3	98.130	0.440	-1.590	0.850
2020/01/31 15:36:21.4	98.140	0.470	-1.610	0.850
2020/01/31 15:36:21.5	98.150	0.500	-1.620	0.850
2020/01/31 15:36:21.6	98.150	0.520	-1.620	0.840
2020/01/31 15:36:21.7	98.160	0.540	-1.610	0.840
2020/01/31 15:36:21.8	98.160	0.560	-1.600	0.830
2020/01/31 15:36:21.9	98.170	0.580	-1.580	0.830
2020/01/31 15:36:22.0	98.170	0.590	-1.550	0.820
2020/01/31 15:36:22.1	98.180	0.600	-1.510	0.810
2020/01/31 15:36:22.2	98.180	0.610	-1.470	0.800
2020/01/31 15:36:22.3	98.180	0.610	-1.410	0.790
2020/01/31 15:36:22.4	98.180	0.620	-1.360	0.790
2020/01/31 15:36:22.5	98.180	0.610	-1.300	0.780
2020/01/31 15:36:22.6	98.190	0.610	-1.230	0.780
2020/01/31 15:36:22.7	98.180	0.600	-1.150	0.780
2020/01/31 15:36:22.8	98.180	0.590	-1.080	0.780
2020/01/31 15:36:22.9	98.170	0.580	-1.000	0.780
2020/01/31 15:36:23.0	98.170	0.570	-0.910	0.780
2020/01/31 15:36:23.1	98.160	0.550	-0.830	0.790
2020/01/31 15:36:23.2	98.160	0.530	-0.740	0.800
2020/01/31 15:36:23.3	98.150	0.510	-0.650	0.810
2020/01/31 15:36:23.4	98.140	0.480	-0.560	0.820
2020/01/31 15:36:23.5	98.130	0.460	-0.470	0.840
2020/01/31 15:36:23.6	98.120	0.430	-0.380	0.850
2020/01/31 15:36:23.7	98.120	0.400	-0.290	0.870
2020/01/31 15:36:23.8	98.110	0.370	-0.200	0.890
2020/01/31 15:36:23.9	98.100	0.330	-0.110	0.910
2020/01/31 15:36:24.0	98.090	0.300	-0.030	0.940
2020/01/31 15:36:24.1	98.080	0.260	0.050	0.960
2020/01/31 15:36:24.2	98.070	0.230	0.130	0.990
2020/01/31 15:36:24.3	98.060	0.190	0.200	1.010
2020/01/31 15:36:24.4	98.050	0.150	0.270	1.030
2020/01/31 15:36:24.5	98.040	0.120	0.340	1.060
2020/01/31 15:36:24.6	98.040	0.080	0.400	1.080
2020/01/31 15:36:24.7	98.040	0.040	0.460	1.110
2020/01/31 15:36:24.8	98.040	0.000	0.510	1.130
2020/01/31 15:36:24.9	98.030	-0.030	0.560	1.150
2020/01/31 15:36:25.0	98.030	-0.070	0.600	1.160
2020/01/31 15:36:25.1	98.040	-0.100	0.640	1.170
2020/01/31 15:36:25.2	98.040	-0.130	0.670	1.190
2020/01/31 15:36:25.3	98.040	-0.160	0.690	1.190
2020/01/31 15:36:25.4	98.040	-0.190	0.710	1.200
2020/01/31 15:36:25.5	98.050	-0.210	0.730	1.200
2020/01/31 15:36:25.6	98.060	-0.240	0.730	1.200
2020/01/31 15:36:25.7	98.070	-0.260	0.740	1.200
2020/01/31 15:36:25.8	98.080	-0.270	0.730	1.190
2020/01/31 15:36:25.9	98.090	-0.290	0.730	1.180
2020/01/31 15:36:26.0	98.100	-0.300	0.720	1.170
2020/01/31 15:36:26.1	98.110	-0.310	0.700	1.150
2020/01/31 15:36:26.2	98.130	-0.320	0.690	1.140
2020/01/31 15:36:26.3	98.140	-0.330	0.660	1.120
2020/01/31 15:36:26.4	98.150	-0.330	0.640	1.090
2020/01/31 15:36:26.5	98.170	-0.330	0.610	1.070
2020/01/31 15:36:26.6	98.180	-0.330	0.580	1.040
2020/01/31 15:36:26.7	98.200	-0.320	0.550	1.010
2020/01/31 15:36:26.8	98.220	-0.320	0.510	0.980
2020/01/31 15:36:26.9	98.240	-0.310	0.470	0.940
2020/01/31 15:36:27.0	98.250	-0.300	0.430	0.900
2020/01/31 15:36:27.1	98.270	-0.290	0.390	0.860
2020/01/31 15:36:27.2	98.290	-0.280	0.350	0.810
2020/01/31 15:36:27.3	98.310	-0.270	0.310	0.760
2020/01/31 15:36:27.4	98.330	-0.250	0.260	0.710
2020/01/31 15:36:27.5	98.350	-0.240	0.220	0.660
2020/01/31 15:36:27.6	98.370	-0.230	0.170	0.610
2020/01/31 15:36:27.7	98.390	-0.210	0.130	0.550
2020/01/31 15:36:27.8	98.400	-0.200	0.090	0.490
2020/01/31 15:36:27.9	98.420	-0.180	0.050	0.440
2020/01/31 15:36:28.0	98.440	-0.170	0.000	0.380
2020/01/31 15:36:28.1	98.460	-0.160	-0.040	0.310
2020/01/31 15:36:28.2	98.480	-0.150	-0.080	0.250
2020/01/31 15:36:28.3	98.490	-0.130	-0.120	0.190
2020/01/31 15:36:28.4	98.510	-0.120	-0.150	0.140
2020/01/31 15:36:28.5	98.520	-0.110	-0.190	0.080
2020/01/31 15:36:28.6	98.530	-0.100	-0.220	0.020
2020/01/31 15:36:28.7	98.540	-0.090	-0.250	-0.030
2020/01/31 15:36:28.8	98.550	-0.090	-0.280	-0.080
2020/01/31 15:36:28.9	98.560	-0.080	-0.310	-0.130
2020/01/31 15:36:29.0	98.570	-0.070	-0.340	-0.180
2020/01/31 15:36:29.1	98.580	-0.070	-0.370	-0.220
2020/01/31 15:36:29.2	98.580	-0.060	-0.390	-0.250
2020/01/31 15:36:29.3	98.580	-0.060	-0.410	-0.290
2020/01/31 15:36:29.4	98.590	-0.060	-0.430	-0.310
2020/01/31 15:36:29.5	98.590	-0.060	-0.450	-0.340
2020/01/31 15:36:29.6	98.590	-0.060	-0.460	-0.350
2020/01/31 15:36:29.7	98.580	-0.060	-0.470	-0.360
2020/01/31 15:36:29.8	98.580	-0.060	-0.480	-0.370
2020/01/31 15:36:29.9	98.570	-0.060	-0.490	-0.370
2020/01/31 15:36:30.0	98.570	-0.060	-0.500	-0.370
2020/01/31 15:36:30.1	98.560	-0.070	-0.510	-0.360
2020/01/31 15:36:30.2	98.560	-0.070	-0.510	-0.360
2020/01/31 15:36:30.3	98.550	-0.070	-0.510	-0.340
2020/01/31 15:36:30.4	98.540	-0.080	-0.510	-0.330
2020/01/31 15:36:30.5	98.530	-0.080	-0.510	-0.310
2020/01/31 15:36:30.6	98.530	-0.090	-0.510	-0.280
2020/01/31 15:36:30.7	98.510	-0.090	-0.510	-0.260
2020/01/31 15:36:30.8	98.510	-0.100	-0.500	-0.230
2020/01/31 15:36:30.9	98.500	-0.100	-0.500	-0.210
2020/01/31 15:36:31.0	98.500	-0.100	-0.490	-0.180
2020/01/31 15:36:31.1	98.500	-0.110	-0.490	-0.160
2020/01/31 15:36:31.2	98.490	-0.110	-0.480	-0.130
2020/01/31 15:36:31.3	98.490	-0.110	-0.470	-0.100
2020/01/31 15:36:31.4	98.490	-0.110	-0.470	-0.080
2020/01/31 15:36:31.5	98.490	-0.110	-0.460	-0.060
2020/01/31 15:36:31.6	98.490	-0.110	-0.450	-0.040
2020/01/31 15:36:31.7	98.480	-0.110	-0.450	-0.010
2020/01/31 15:36:31.8	98.490	-0.110	-0.440	0.010
2020/01/31 15:36:31.9	98.490	-0.110	-0.430	0.020
2020/01/31 15:36:32.0	98.500	-0.100	-0.430	0.040
2020/01/31 15:36:32.1	98.500	-0.100	-0.420	0.050
2020/01/31 15:36:32.2	98.510	-0.090	-0.420	0.060
2020/01/31 15:36:32.3	98.520	-0.090	-0.410	0.070
2020/01/31 15:36:32.4	98.530	-0.080	-0.400	0.080
2020/01/31 15:36:32.5	98.540	-0.070	-0.400	0.080
2020/01/31 15:36:32.6	98.550	-0.060	-0.390	0.090
2020/01/31 15:36:32.7	98.560	-0.040	-0.390	0.090
2020/01/31 15:36:32.8	98.580	-0.030	-0.380	0.100
2020/01/31 15:36:32.9	98.590	-0.020	-0.380	0.100
2020/01/31 15:36:33.0	98.610	-0.000	-0.370	0.100
2020/01/31 15:36:33.1	98.630	0.010	-0.370	0.100
2020/01/31 15:36:33.2	98.640	0.030	-0.360	0.110
2020/01/31 15:36:33.3	98.660	0.040	-0.360	0.110
2020/01/31 15:36:33.4	98.680	0.060	-0.350	0.110
2020/01/31 15:36:33.5	98.700	0.080	-0.350	0.110
2020/01/31 15:36:33.6	98.710	0.090	-0.350	0.120
2020/01/31 15:36:33.7	98.730	0.110	-0.340	0.130
2020/01/31 15:36:33.8	98.740	0.120	-0.330	0.140
2020/01/31 15:36:33.9	98.760	0.140	-0.330	0.150
2020/01/31 15:36:34.0	98.780	0.160	-0.320	0.160
2020/01/31 15:36:34.1	98.790	0.170	-0.310	0.170
2020/01/31 15:36:34.2	98.800	0.180	-0.300	0.190
2020/01/31 15:36:34.3	98.810	0.200	-0.290	0.200
2020/01/31 15:36:34.4	98.820	0.210	-0.280	0.220
2020/01/31 15:36:34.5	98.830	0.220	-0.270	0.240
2020/01/31 15:36:34.6	98.840	0.230	-0.250	0.260
2020/01/31 15:36:34.7	98.850	0.240	-0.230	0.290
2020/01/31 15:36:34.8	98.850	0.250	-0.220	0.310
2020/01/31 15:36:34.9	98.860	0.250	-0.200	0.340
2020/01/31 15:36:35.0	98.860	0.260	-0.180	0.360
2020/01/31 15:36:35.1	98.870	0.260	-0.160	0.390
2020/01/31 15:36:35.2	98.870	0.260	-0.130	0.410
2020/01/31 15:36:35.3	98.870	0.260	-0.110	0.440
2020/01/31 15:36:35.4	98.870	0.260	-0.090	0.460
2020/01/31 15:36:35.5	98.870	0.260	-0.070	0.480
2020/01/31 15:36:35.6	98.870	0.250	-0.040	0.510
2020/01/31 15:36:35.7	98.880	0.250	-0.020	0.530
2020/01/31 15:36:35.8	98.880	0.240	0.000	0.550
2020/01/31 15:36:35.9	98.880	0.240	0.020	0.570
2020/01/31 15:36:36.0	98.890	0.230	0.040	0.590
2020/01/31 15:36:36.1	98.890	0.220	0.060	0.610
2020/01/31 15:36:36.2	98.890	0.210	0.080	0.620
2020/01/31 15:36:36.3	98.890	0.200	0.090	0.640
2020/01/31 15:36:36.4	98.890	0.190	0.110	0.650
2020/01/31 15:36:36.5	98.900	0.180	0.120	0.670
2020/01/31 15:36:36.6	98.900	0.160	0.120	0.680
2020/01/31 15:36:36.7	98.900	0.150	0.130	0.690
2020/01/31 15:36:36.8	98.900	0.140	0.130	0.700
2020/01/31 15:36:36.9	98.910	0.130	0.130	0.720
2020/01/31 15:36:37.0	98.910	0.120	0.130	0.730
2020/01/31 15:36:37.1	98.920	0.110	0.120	0.740
2020/01/31 15:36:37.2	98.920	0.100	0.120	0.750
2020/01/31 15:36:37.3	98.930	0.090	0.110	0.760
2020/01/31 15:36:37.4	98.930	0.080	0.090	0.770
2020/01/31 15:36:37.5	98.940	0.080	0.080	0.780
2020/01/31 15:36:37.6	98.950	0.070	0.060	0.790
2020/01/31 15:36:37.7	98.960	0.060	0.040	0.800
2020/01/31 15:36:37.8	98.970	0.060	0.020	0.810
2020/01/31 15:36:37.9	98.980	0.060	-0.010	0.820
2020/01/31 15:36:38.0	98.990	0.050	-0.030	0.820
2020/01/31 15:36:38.1	99.000	0.050	-0.060	0.830
2020/01/31 15:36:38.2	99.010	0.050	-0.080	0.830
2020/01/31 15:36:38.3	99.020	0.050	-0.110	0.840
2020/01/31 15:36:38.4	99.030	0.050	-0.130	0.840
2020/01/31 15:36:38.5	99.040	0.050	-0.160	0.840
2020/01/31 15:36:38.6	99.050	0.050	-0.190	0.840
2020/01/31 15:36:38.7	99.060	0.050	-0.210	0.840
2020/01/31 15:36:38.8	99.060	0.050	-0.230	0.840
2020/01/31 15:36:38.9	99.070	0.040	-0.250	0.830
2020/01/31 15:36:39.0	99.080	0.040	-0.280	0.830
2020/01/31 15:36:39.1	99.080	0.040	-0.290	0.830
2020/01/31 15:36:39.2	99.090	0.040	-0.310	0.820
2020/01/31 15:36:39.3	99.090	0.030	-0.320	0.820
2020/01/31 15:36:39.4	99.090	0.030	-0.330	0.820
2020/01/31 15:36:39.5	99.090	0.020	-0.340	0.810
2020/01/31 15:36:39.6	99.090	0.010	-0.350	0.810
2020/01/31 15:36:39.7	99.100	0.000	-0.350	0.800
2020/01/31 15:36:39.8	99.090	-0.010	-0.350	0.800
2020/01/31 15:36:39.9	99.090	-0.020	-0.350	0.800
2020/01/31 15:36:40.0	99.080	-0.030	-0.340	0.790
2020/01/31 15:36:40.1	99.080	-0.040	-0.330	0.790
2020/01/31 15:36:40.2	99.070	-0.060	-0.320	0.780
2020/01/31 15:36:40.3	99.060	-0.070	-0.310	0.780
2020/01/31 15:36:40.4	99.050	-0.090	-0.290	0.780
2020/01/31 15:36:40.5	99.050	-0.100	-0.270	0.770
2020/01/31 15:36:40.6	99.040	-0.120	-0.260	0.770
2020/01/31 15:36:40.7	99.030	-0.140	-0.230	0.770
2020/01/31 15:36:40.8	99.020	-0.150	-0.210	0.760
2020/01/31 15:36:40.9	99.010	-0.170	-0.190	0.760
2020/01/31 15:36:41.0	99.010	-0.190	-0.170	0.750
2020/01/31 15:36:41.1	99.000	-0.200	-0.150	0.740
2020/01/31 15:36:41.2	99.000	-0.220	-0.130	0.740
2020/01/31 15:36:41.3	98.990	-0.230	-0.110	0.730
2020/01/31 15:36:41.4	98.990	-0.240	-0.090	0.720
2020/01/31 15:36:41.5	98.990	-0.250	-0.070	0.710
2020/01/31 15:36:41.6	98.990	-0.260	-0.060	0.690
2020/01/31 15:36:41.7	99.000	-0.270	-0.040	0.680
2020/01/31 15:36:41.8	99.000	-0.280	-0.030	0.660
2020/01/31 15:36:41.9	99.010	-0.280	-0.020	0.640
2020/01/31 15:36:42.0	99.020	-0.290	-0.010	0.620
2020/01/31 15:36:42.1	99.030	-0.290	-0.010	0.600
2020/01/31 15:36:42.2	99.040	-0.280	-0.010	0.570
2020/01/31 15:36:42.3	99.060	-0.280	-0.010	0.540
2020/01/31 15:36:42.4	99.080	-0.270	-0.020	0.510
2020/01/31 15:36:42.5	99.100	-0.270	-0.030	0.480
2020/01/31 15:36:42.6	99.120	-0.260	-0.040	0.440
2020/01/31 15:36:42.7	99.150	-0.240	-0.050	0.410
2020/01/31 15:36:42.8	99.180	-0.230	-0.070	0.370
2020/01/31 15:36:42.9	99.210	-0.210	-0.090	0.330
2020/01/31 15:36:43.0	99.240	-0.200	-0.110	0.280
2020/01/31 15:36:43.1	99.270	-0.180	-0.140	0.240
2020/01/31 15:36:43.2	99.300	-0.160	-0.160	0.200
2020/01/31 15:36:43.3	99.340	-0.140	-0.190	0.160
2020/01/31 15:36:43.4	99.370	-0.110	-0.220	0.120
2020/01/31 15:36:43.5	99.410	-0.090	-0.250	0.080
2020/01/31 15:36:43.6	99.440	-0.070	-0.280	0.040
2020/01/31 15:36:43.7	99.470	-0.050	-0.310	0.010
2020/01/31 15:36:43.8	99.510	-0.020	-0.340	-0.030
2020/01/31 15:36:43.9	99.540	0.000	-0.370	-0.060
2020/01/31 15:36:44.0	99.570	0.020	-0.390	-0.090
2020/01/31 15:36:44.1	99.600	0.050	-0.420	-0.110
2020/01/31 15:36:44.2	99.630	0.070	-0.440	-0.130
2020/01/31 15:36:44.3	99.650	0.090	-0.460	-0.150
2020/01/31 15:36:44.4	99.680	0.100	-0.470	-0.160
2020/01/31 15:36:44.5	99.700	0.120	-0.480	-0.170
2020/01/31 15:36:44.6	99.710	0.130	-0.490	-0.170
2020/01/31 15:36:44.7	99.740	0.140	-0.480	-0.170
2020/01/31 15:36:44.8	99.750	0.150	-0.480	-0.160
2020/01/31 15:36:44.9	99.760	0.160	-0.470	-0.160
2020/01/31 15:36:45.0	99.760	0.160	-0.460	-0.150
2020/01/31 15:36:45.1	99.770	0.160	-0.440	-0.130
2020/01/31 15:36:45.2	99.770	0.160	-0.420	-0.120
2020/01/31 15:36:45.3	99.770	0.160	-0.400	-0.100
2020/01/31 15:36:45.4	99.760	0.150	-0.370	-0.070
2020/01/31 15:36:45.5	99.750	0.140	-0.330	-0.050
2020/01/31 15:36:45.6	99.750	0.130	-0.290	-0.020
2020/01/31 15:36:45.7	99.740	0.120	-0.250	0.010
2020/01/31 15:36:45.8	99.720	0.100	-0.210	0.040
2020/01/31 15:36:45.9	99.710	0.090	-0.170	0.070
2020/01/31 15:36:46.0	99.690	0.070	-0.120	0.110
2020/01/31 15:36:46.1	99.680	0.050	-0.070	0.140
2020/01/31 15:36:46.2	99.660	0.030	-0.030	0.170
2020/01/31 15:36:46.3	99.640	0.010	0.020	0.210
2020/01/31 15:36:46.4	99.620	-0.020	0.070	0.240
2020/01/31 15:36:46.5	99.590	-0.040	0.110	0.270
2020/01/31 15:36:46.6	99.570	-0.060	0.150	0.300
2020/01/31 15:36:46.7	99.560	-0.080	0.190	0.330
2020/01/31 15:36:46.8	99.530	-0.100	0.230	0.360
2020/01/31 15:36:46.9	99.510	-0.120	0.260	0.390
2020/01/31 15:36:47.0	99.490	-0.140	0.290	0.410
2020/01/31 15:36:47.1	99.470	-0.160	0.310	0.430
2020/01/31 15:36:47.2	99.450	-0.170	0.320	0.450
2020/01/31 15:36:47.3	99.430	-0.180	0.330	0.460
2020/01/31 15:36:47.4	99.410	-0.190	0.340	0.470
2020/01/31 15:36:47.5	99.390	-0.200	0.340	0.480
2020/01/31 15:36:47.6	99.370	-0.210	0.330	0.490
2020/01/31 15:36:47.7	99.370	-0.210	0.320	0.500
2020/01/31 15:36:47.8	99.360	-0.210	0.300	0.500
2020/01/31 15:36:47.9	99.340	-0.210	0.280	0.500
2020/01/31 15:36:48.0	99.330	-0.210	0.250	0.500
2020/01/31 15:36:48.1	99.320	-0.200	0.210	0.500
2020/01/31 15:36:48.2	99.310	-0.190	0.170	0.490
2020/01/31 15:36:48.3	99.310	-0.180	0.130	0.480
2020/01/31 15:36:48.4	99.300	-0.160	0.080	0.480
2020/01/31 15:36:48.5	99.300	-0.140	0.020	0.470
2020/01/31 15:36:48.6	99.300	-0.120	-0.030	0.460
2020/01/31 15:36:48.7	99.300	-0.100	-0.090	0.450
2020/01/31 15:36:48.8	99.300	-0.080	-0.150	0.440
2020/01/31 15:36:48.9	99.300	-0.050	-0.210	0.430
2020/01/31 15:36:49.0	99.300	-0.020	-0.270	0.420
2020/01/31 15:36:49.1	99.310	0.010	-0.340	0.410
2020/01/31 15:36:49.2	99.320	0.040	-0.400	0.410
2020/01/31 15:36:49.3	99.320	0.070	-0.460	0.400
2020/01/31 15:36:49.4	99.330	0.100	-0.520	0.390
2020/01/31 15:36:49.5	99.350	0.130	-0.580	0.380
2020/01/31 15:36:49.6	99.360	0.160	-0.630	0.380
2020/01/31 15:36:49.7	99.370	0.190	-0.680	0.380
2020/01/31 15:36:49.8	99.380	0.220	-0.730	0.370
2020/01/31 15:36:49.9	99.400	0.250	-0.770	0.370
2020/01/31 15:36:50.0	99.410	0.280	-0.810	0.360
2020/01/31 15:36:50.1	99.430	0.300	-0.840	0.360
2020/01/31 15:36:50.2	99.450	0.330	-0.860	0.350
2020/01/31 15:36:50.3	99.470	0.350	-0.890	0.350
2020/01/31 15:36:50.4	99.480	0.370	-0.900	0.350
2020/01/31 15:36:50.5	99.500	0.380	-0.910	0.340
2020/01/31 15:36:50.6	99.520	0.400	-0.910	0.340
2020/01/31 15:36:50.7	99.540	0.410	-0.910	0.340
2020/01/31 15:36:50.8	99.550	0.410	-0.900	0.340
2020/01/31 15:36:50.9	99.570	0.420	-0.880	0.330
2020/01/31 15:36:51.0	99.590	0.420	-0.860	0.330
2020/01/31 15:36:51.1	99.600	0.420	-0.830	0.340
2020/01/31 15:36:51.2	99.620	0.410	-0.800	0.340
2020/01/31 15:36:51.3	99.640	0.410	-0.760	0.340
2020/01/31 15:36:51.4	99.650	0.390	-0.720	0.340
2020/01/31 15:36:51.5	99.660	0.380	-0.670	0.340
2020/01/31 15:36:51.6	99.680	0.360	-0.620	0.340
2020/01/31 15:36:51.7	99.690	0.350	-0.560	0.350
2020/01/31 15:36:51.8	99.700	0.320	-0.500	0.350
2020/01/31 15:36:51.9	99.710	0.300	-0.440	0.360
2020/01/31 15:36:52.0	99.720	0.270	-0.380	0.360
2020/01/31 15:36:52.1	99.730	0.250	-0.310	0.370
2020/01/31 15:36:52.2	99.740	0.220	-0.250	0.370
2020/01/31 15:36:52.3	99.750	0.190	-0.180	0.380
2020/01/31 15:36:52.4	99.750	0.150	-0.120	0.380
2020/01/31 15:36:52.5	99.760	0.120	-0.050	0.390
2020/01/31 15:36:52.6	99.770	0.090	0.010	0.390
2020/01/31 15:36:52.7	99.780	0.060	0.080	0.400
2020/01/31 15:36:52.8	99.790	0.020	0.130	0.410
2020/01/31 15:36:52.9	99.800	-0.010	0.190	0.410
2020/01/31 15:36:53.0	99.810	-0.040	0.240	0.420
2020/01/31 15:36:53.1	99.820	-0.070	0.290	0.420
2020/01/31 15:36:53.2	99.820	-0.110	0.340	0.430
2020/01/31 15:36:53.3	99.830	-0.140	0.380	0.430
2020/01/31 15:36:53.4	99.840	-0.160	0.420	0.440
2020/01/31 15:36:53.5	99.840	-0.190	0.450	0.440
2020/01/31 15:36:53.6	99.850	-0.220	0.480	0.450
2020/01/31 15:36:53.7	99.860	-0.240	0.500	0.460
2020/01/31 15:36:53.8	99.860	-0.260	0.520	0.470
2020/01/31 15:36:53.9	99.870	-0.280	0.540	0.480
2020/01/31 15:36:54.0	99.870	-0.300	0.540	0.490
2020/01/31 15:36:54.1	99.870	-0.310	0.550	0.500
2020/01/31 15:36:54.2	99.870	-0.330	0.550	0.520
2020/01/31 15:36:54.3	99.880	-0.340	0.540	0.530
2020/01/31 15:36:54.4	99.880	-0.350	0.530	0.550
2020/01/31 15:36:54.5	99.870	-0.350	0.510	0.570
2020/01/31 15:36:54.6	99.870	-0.360	0.500	0.590
2020/01/31 15:36:54.7	99.870	-0.360	0.470	0.620
2020/01/31 15:36:54.8	99.870	-0.360	0.440	0.640
2020/01/31 15:36:54.9	99.870	-0.360	0.410	0.670
2020/01/31 15:36:55.0	99.860	-0.350	0.380	0.690
2020/01/31 15:36:55.1	99.860	-0.350	0.340	0.720
2020/01/31 15:36:55.2	99.860	-0.340	0.300	0.740
2020/01/31 15:36:55.3	99.850	-0.330	0.250	0.770
2020/01/31 15:36:55.4	99.850	-0.320	0.210	0.790
2020/01/31 15:36:55.5	99.850	-0.310	0.160	0.820
2020/01/31 15:36:55.6	99.850	-0.300	0.110	0.840
2020/01/31 15:36:55.7	99.850	-0.290	0.060	0.870
2020/01/31 15:36:55.8	99.850	-0.270	0.000	0.890
2020/01/31 15:36:55.9	99.850	-0.250	-0.050	0.910
2020/01/31 15:36:56.0	99.850	-0.240	-0.110	0.930
2020/01/31 15:36:56.1	99.850	-0.220	-0.160	0.940
2020/01/31 15:36:56.2	99.860	-0.200	-0.220	0.960
2020/01/31 15:36:56.3	99.860	-0.180	-0.270	0.970
2020/01/31 15:36:56.4	99.870	-0.170	-0.330	0.970
2020/01/31 15:36:56.5	99.880	-0.150	-0.380	0.980
2020/01/31 15:36:56.6	99.890	-0.130	-0.430	0.980
2020/01/31 15:36:56.7	99.900	-0.110	-0.480	0.980
2020/01/31 15:36:56.8	99.910	-0.090	-0.530	0.980
2020/01/31 15:36:56.9	99.920	-0.070	-0.580	0.970
2020/01/31 15:36:57.0	99.930	-0.060	-0.620	0.960
2020/01/31 15:36:57.1	99.950	-0.040	-0.660	0.950
2020/01/31 15:36:57.2	99.960	-0.020	-0.700	0.940
2020/01/31 15:36:57.3	99.970	-0.010	-0.730	0.920
2020/01/31 15:36:57.4	99.990	0.010	-0.760	0.900
2020/01/31 15:36:57.5	100.000	0.020	-0.780	0.890
2020/01/31 15:36:57.6	100.020	0.040	-0.800	0.870
2020/01/31 15:36:57.7	100.020	0.050	-0.820	0.850
2020/01/31 15:36:57.8	100.040	0.060	-0.830	0.830
2020/01/31 15:36:57.9	100.050	0.070	-0.830	0.810
2020/01/31 15:36:58.0	100.060	0.080	-0.830	0.800
2020/01/31 15:36:58.1	100.070	0.080	-0.830	0.780
2020/01/31 15:36:58.2	100.080	0.090	-0.820	0.760
2020/01/31 15:36:58.3	100.090	0.090	-0.800	0.740
2020/01/31 15:36:58.4	100.100	0.100	-0.780	0.720
2020/01/31 15:36:58.5	100.100	0.100	-0.750	0.710
2020/01/31 15:36:58.6	100.110	0.100	-0.720	0.690
2020/01/31 15:36:58.7	100.110	0.090	-0.680	0.680
2020/01/31 15:36:58.8	100.110	0.090	-0.640	0.670
2020/01/31 15:36:58.9	100.110	0.090	-0.600	0.660
2020/01/31 15:36:59.0	100.110	0.080	-0.550	0.650
2020/01/31 15:36:59.1	100.110	0.070	-0.500	0.640
2020/01/31 15:36:59.2	100.110	0.070	-0.450	0.630
2020/01/31 15:36:59.3	100.110	0.060	-0.390	0.620
2020/01/31 15:36:59.4	100.100	0.050	-0.340	0.610
2020/01/31 15:36:59.5	100.100	0.040	-0.280	0.610
2020/01/31 15:36:59.6	100.090	0.030	-0.220	0.600
2020/01/31 15:36:59.7	100.090	0.020	-0.160	0.600
2020/01/31 15:36:59.8	100.080	0.010	-0.100	0.590
2020/01/31 15:36:59.9	100.080	-0.000	-0.040	0.590
2020/01/31 15:37:00.0	100.070	-0.010	0.010	0.580
2020/01/31 15:37:00.1	100.060	-0.020	0.070	0.580
2020/01/31 15:37:00.2	100.050	-0.030	0.120	0.570
2020/01/31 15:37:00.3	100.040	-0.040	0.170	0.570
2020/01/31 15:37:00.4	100.040	-0.050	0.220	0.560
2020/01/31 15:37:00.5	100.030	-0.050	0.270	0.550
2020/01/31 15:37:00.6	100.020	-0.060	0.300	0.540
2020/01/31 15:37:00.7	100.020	-0.060	0.340	0.530
2020/01/31 15:37:00.8	100.010	-0.060	0.370	0.520
2020/01/31 15:37:00.9	100.000	-0.060	0.400	0.510
2020/01/31 15:37:01.0	100.000	-0.060	0.420	0.490
2020/01/31 15:37:01.1	99.990	-0.050	0.430	0.480
2020/01/31 15:37:01.2	99.990	-0.050	0.440	0.460
2020/01/31 15:37:01.3	99.980	-0.040	0.440	0.440
2020/01/31 15:37:01.4	99.980	-0.030	0.430	0.420
2020/01/31 15:37:01.5	99.980	-0.020	0.420	0.400
2020/01/31 15:37:01.6	99.980	-0.000	0.410	0.380
2020/01/31 15:37:01.7	99.980	0.010	0.380	0.360
2020/01/31 15:37:01.8	99.980	0.030	0.350	0.330
2020/01/31 15:37:01.9	99.980	0.050	0.320	0.310
2020/01/31 15:37:02.0	99.980	0.060	0.280	0.280
2020/01/31 15:37:02.1	99.990	0.090	0.230	0.250
2020/01/31 15:37:02.2	99.990	0.110	0.180	0.220
2020/01/31 15:37:02.3	100.000	0.130	0.130	0.190
2020/01/31 15:37:02.4	100.010	0.150	0.070	0.160
2020/01/31 15:37:02.5	100.010	0.180	0.000	0.130
2020/01/31 15:37:02.6	100.020	0.200	-0.070	0.100
2020/01/31 15:37:02.7	100.030	0.230	-0.130	0.070
2020/01/31 15:37:02.8	100.040	0.250	-0.200	0.040
2020/01/31 15:37:02.9	100.050	0.280	-0.270	0.010
2020/01/31 15:37:03.0	100.060	0.300	-0.350	-0.010
2020/01/31 15:37:03.1	100.070	0.320	-0.420	-0.040
2020/01/31 15:37:03.2	100.080	0.340	-0.490	-0.070
2020/01/31 15:37:03.3	100.090	0.360	-0.560	-0.090
2020/01/31 15:37:03.4	100.100	0.380	-0.630	-0.120
2020/01/31 15:37:03.5	100.120	0.400	-0.700	-0.140
2020/01/31 15:37:03.6	100.130	0.410	-0.760	-0.160
2020/01/31 15:37:03.7	100.140	0.420	-0.810	-0.180
2020/01/31 15:37:03.8	100.160	0.430	-0.860	-0.200
2020/01/31 15:37:03.9	100.180	0.440	-0.910	-0.220
2020/01/31 15:37:04.0	100.190	0.440	-0.950	-0.230
2020/01/31 15:37:04.1	100.210	0.440	-0.980	-0.250
2020/01/31 15:37:04.2	100.230	0.440	-1.000	-0.270
2020/01/31 15:37:04.3	100.250	0.430	-1.010	-0.280
2020/01/31 15:37:04.4	100.270	0.420	-1.020	-0.290
2020/01/31 15:37:04.5	100.290	0.410	-1.020	-0.300
2020/01/31 15:37:04.6	100.310	0.400	-1.010	-0.310
2020/01/31 15:37:04.7	100.330	0.380	-0.990	-0.320
2020/01/31 15:37:04.8	100.360	0.360	-0.960	-0.320
2020/01/31 15:37:04.9	100.380	0.330	-0.930	-0.310
2020/01/31 15:37:05.0	100.400	0.300	-0.880	-0.310
2020/01/31 15:37:05.1	100.420	0.270	-0.830	-0.300
2020/01/31 15:37:05.2	100.440	0.240	-0.770	-0.280
2020/01/31 15:37:05.3	100.460	0.210	-0.710	-0.260
2020/01/31 15:37:05.4	100.480	0.170	-0.630	-0.240
2020/01/31 15:37:05.5	100.500	0.130	-0.560	-0.210
2020/01/31 15:37:05.6	100.510	0.090	-0.470	-0.180
2020/01/31 15:37:05.7	100.540	0.050	-0.380	-0.140
2020/01/31 15:37:05.8	100.550	0.010	-0.290	-0.100
2020/01/31 15:37:05.9	100.560	-0.030	-0.200	-0.060
2020/01/31 15:37:06.0	100.580	-0.070	-0.100	-0.020
2020/01/31 15:37:06.1	100.590	-0.120	-0.010	0.030
2020/01/31 15:37:06.2	100.600	-0.160	0.090	0.070
2020/01/31 15:37:06.3	100.610	-0.200	0.190	0.120
2020/01/31 15:37:06.4	100.610	-0.240	0.280	0.180
2020/01/31 15:37:06.5	100.620	-0.280	0.370	0.230
2020/01/31 15:37:06.6	100.620	-0.320	0.460	0.280
2020/01/31 15:37:06.7	100.620	-0.360	0.540	0.340
2020/01/31 15:37:06.8	100.630	-0.400	0.610	0.390
2020/01/31 15:37:06.9	100.630	-0.430	0.690	0.450
2020/01/31 15:37:07.0	100.630	-0.460	0.750	0.500
2020/01/31 15:37:07.1	100.630	-0.490	0.810	0.560
2020/01/31 15:37:07.2	100.620	-0.520	0.860	0.620
2020/01/31 15:37:07.3	100.620	-0.550	0.900	0.670
2020/01/31 15:37:07.4	100.610	-0.570	0.930	0.720
2020/01/31 15:37:07.5	100.610	-0.590	0.960	0.780
2020/01/31 15:37:07.6	100.600	-0.600	0.970	0.830
2020/01/31 15:37:07.7	100.600	-0.620	0.980	0.880
2020/01/31 15:37:07.8	100.590	-0.620	0.980	0.930
2020/01/31 15:37:07.9	100.580	-0.630	0.960	0.980
2020/01/31 15:37:08.0	100.580	-0.630	0.940	1.020
2020/01/31 15:37:08.1	100.570	-0.630	0.910	1.060
2020/01/31 15:37:08.2	100.560	-0.630	0.870	1.110
2020/01/31 15:37:08.3	100.550	-0.620	0.820	1.140
2020/01/31 15:37:08.4	100.540	-0.610	0.760	1.180
2020/01/31 15:37:08.5	100.530	-0.600	0.690	1.220
2020/01/31 15:37:08.6	100.530	-0.580	0.620	1.250
2020/01/31 15:37:08.7	100.520	-0.560	0.540	1.290
2020/01/31 15:37:08.8	100.510	-0.540	0.460	1.320
2020/01/31 15:37:08.9	100.510	-0.510	0.370	1.350
2020/01/31 15:37:09.0	100.500	-0.490	0.270	1.370
2020/01/31 15:37:09.1	100.500	-0.460	0.170	1.400
2020/01/31 15:37:09.2	100.490	-0.420	0.070	1.420
2020/01/31 15:37:09.3	100.490	-0.390	-0.040	1.450
2020/01/31 15:37:09.4	100.490	-0.350	-0.140	1.470
2020/01/31 15:37:09.5	100.480	-0.310	-0.250	1.490
2020/01/31 15:37:09.6	100.480	-0.270	-0.350	1.510
2020/01/31 15:37:09.7	100.480	-0.230	-0.460	1.530
2020/01/31 15:37:09.8	100.480	-0.190	-0.560	1.540
2020/01/31 15:37:09.9	100.490	-0.150	-0.660	1.560
2020/01/31 15:37:10.0	100.490	-0.100	-0.760	1.570
2020/01/31 15:37:10.1	100.490	-0.060	-0.850	1.580
2020/01/31 15:37:10.2	100.500	-0.010	-0.940	1.580
2020/01/31 15:37:10.3	100.510	0.030	-1.020	1.590
2020/01/31 15:37:10.4	100.510	0.070	-1.090	1.590
2020/01/31 15:37:10.5	100.520	0.110	-1.160	1.590
2020/01/31 15:37:10.6	100.530	0.150	-1.210	1.580
2020/01/31 15:37:10.7	100.540	0.190	-1.260	1.580
2020/01/31 15:37:10.8	100.550	0.230	-1.300	1.570
2020/01/31 15:37:10.9	100.570	0.260	-1.330	1.560
2020/01/31 15:37:11.0	100.580	0.300	-1.360	1.540
2020/01/31 15:37:11.1	100.590	0.330	-1.370	1.520
2020/01/31 15:37:11.2	100.610	0.350	-1.370	1.500
2020/01/31 15:37:11.3	100.620	0.380	-1.370	1.480
2020/01/31 15:37:11.4	100.630	0.400	-1.350	1.450
2020/01/31 15:37:11.5	100.650	0.420	-1.330	1.430
2020/01/31 15:37:11.6	100.660	0.430	-1.290	1.400
2020/01/31 15:37:11.7	100.670	0.440	-1.250	1.370
2020/01/31 15:37:11.8	100.680	0.450	-1.200	1.330
2020/01/31 15:37:11.9	100.700	0.450	-1.140	1.300
2020/01/31 15:37:12.0	100.710	0.450	-1.080	1.260
2020/01/31 15:37:12.1	100.730	0.450	-1.000	1.220
2020/01/31 15:37:12.2	100.740	0.440	-0.930	1.170
2020/01/31 15:37:12.3	100.760	0.430	-0.840	1.130
2020/01/31 15:37:12.4	100.770	0.420	-0.760	1.080
2020/01/31 15:37:12.5	100.780	0.400	-0.670	1.030
2020/01/31 15:37:12.6	100.800	0.390	-0.580	0.990
2020/01/31 15:37:12.7	100.820	0.360	-0.480	0.940
2020/01/31 15:37:12.8	100.830	0.340	-0.390	0.890
2020/01/31 15:37:12.9	100.850	0.310	-0.290	0.840
2020/01/31 15:37:13.0	100.860	0.290	-0.200	0.790
2020/01/31 15:37:13.1	100.880	0.260	-0.110	0.740
2020/01/31 15:37:13.2	100.890	0.230	-0.030	0.690
2020/01/31 15:37:13.3	100.900	0.200	0.060	0.640
2020/01/31 15:37:13.4	100.920	0.170	0.140	0.590
2020/01/31 15:37:13.5	100.930	0.130	0.210	0.540
2020/01/31 15:37:13.6	100.940	0.100	0.280	0.490
2020/01/31 15:37:13.7	100.960	0.070	0.340	0.450
2020/01/31 15:37:13.8	100.970	0.040	0.400	0.410
2020/01/31 15:37:13.9	100.980	0.010	0.450	0.360
2020/01/31 15:37:14.0	100.990	-0.020	0.490	0.320
2020/01/31 15:37:14.1	101.000	-0.040	0.530	0.290
2020/01/31 15:37:14.2	101.010	-0.070	0.560	0.250
2020/01/31 15:37:14.3	101.010	-0.090	0.590	0.220
2020/01/31 15:37:14.4	101.020	-0.110	0.600	0.190
2020/01/31 15:37:14.5	101.030	-0.130	0.620	0.160
2020/01/31 15:37:14.6	101.030	-0.140	0.620	0.140
2020/01/31 15:37:14.7	101.040	-0.160	0.620	0.120
2020/01/31 15:37:14.8	101.040	-0.170	0.610	0.100
2020/01/31 15:37:14.9	101.040	-0.180	0.600	0.080
2020/01/31 15:37:15.0	101.050	-0.180	0.580	0.070
2020/01/31 15:37:15.1	101.050	-0.180	0.560	0.060
2020/01/31 15:37:15.2	101.050	-0.190	0.530	0.050
2020/01/31 15:37:15.3	101.050	-0.180	0.490	0.040
2020/01/31 15:37:15.4	101.040	-0.180	0.450	0.030
2020/01/31 15:37:15.5	101.040	-0.180	0.410	0.030
2020/01/31 15:37:15.6	101.040	-0.170	0.370	0.030
2020/01/31 15:37:15.7	101.040	-0.160	0.320	0.030
2020/01/31 15:37:15.8	101.030	-0.150	0.280	0.030
2020/01/31 15:37:15.9	101.020	-0.140	0.220	0.030
2020/01/31 15:37:16.0	101.010	-0.130	0.170	0.040
2020/01/31 15:37:16.1	101.010	-0.120	0.120	0.040
2020/01/31 15:37:16.2	100.990	-0.100	0.070	0.050
2020/01/31 15:37:16.3	100.980	-0.090	0.020	0.060
2020/01/31 15:37:16.4	100.970	-0.080	-0.030	0.070
2020/01/31 15:37:16.5	100.960	-0.060	-0.080	0.080
2020/01/31 15:37:16.6	100.940	-0.050	-0.130	0.090
2020/01/31 15:37:16.7	100.930	-0.040	-0.170	0.110
2020/01/31 15:37:16.8	100.920	-0.020	-0.220	0.120
2020/01/31 15:37:16.9	100.900	-0.010	-0.260	0.130
2020/01/31 15:37:17.0	100.880	0.000	-0.300	0.140
2020/01/31 15:37:17.1	100.870	0.020	-0.340	0.160
2020/01/31 15:37:17.2	100.850	0.030	-0.380	0.170
2020/01/31 15:37:17.3	100.830	0.040	-0.410	0.190
2020/01/31 15:37:17.4	100.810	0.050	-0.450	0.200
2020/01/31 15:37:17.5	100.800	0.060	-0.470	0.210
2020/01/31 15:37:17.6	100.780	0.070	-0.500	0.220
2020/01/31 15:37:17.7	100.760	0.080	-0.520	0.230
2020/01/31 15:37:17.8	100.750	0.080	-0.550	0.240
2020/01/31 15:37:17.9	100.730	0.090	-0.560	0.250
2020/01/31 15:37:18.0	100.720	0.100	-0.580	0.260
2020/01/31 15:37:18.1	100.710	0.100	-0.600	0.260
2020/01/31 15:37:18.2	100.700	0.110	-0.610	0.260
2020/01/31 15:37:18.3	100.690	0.110	-0.620	0.270
2020/01/31 15:37:18.4	100.680	0.120	-0.630	0.270
2020/01/31 15:37:18.5	100.680	0.120	-0.630	0.260
2020/01/31 15:37:18.6	100.670	0.120	-0.640	0.260
2020/01/31 15:37:18.7	100.670	0.120	-0.640	0.260
2020/01/31 15:37:18.8	100.670	0.130	-0.640	0.250
2020/01/31 15:37:18.9	100.670	0.130	-0.640	0.240
2020/01/31 15:37:19.0	100.680	0.130	-0.630	0.230
2020/01/31 15:37:19.1	100.690	0.130	-0.630	0.220
2020/01/31 15:37:19.2	100.700	0.130	-0.620	0.210
2020/01/31 15:37:19.3	100.710	0.130	-0.610	0.200
2020/01/31 15:37:19.4	100.720	0.130	-0.600	0.190
2020/01/31 15:37:19.5	100.740	0.130	-0.590	0.180
2020/01/31 15:37:19.6	100.750	0.130	-0.580	0.170
2020/01/31 15:37:19.7	100.780	0.130	-0.560	0.160
2020/01/31 15:37:19.8	100.800	0.130	-0.550	0.150
2020/01/31 15:37:19.9	100.820	0.130	-0.530	0.150
2020/01/31 15:37:20.0	100.840	0.130	-0.510	0.150
2020/01/31 15:37:20.1	100.870	0.130	-0.490	0.140
2020/01/31 15:37:20.2	100.890	0.130	-0.470	0.140
2020/01/31 15:37:20.3	100.920	0.130	-0.440	0.150
2020/01/31 15:37:20.4	100.950	0.130	-0.420	0.150
2020/01/31 15:37:20.5	100.970	0.130	-0.390	0.160
2020/01/31 15:37:20.6	101.000	0.120	-0.370	0.170
2020/01/31 15:37:20.7	101.030	0.120	-0.340	0.190
2020/01/31 15:37:20.8	101.050	0.120	-0.310	0.210
2020/01/31 15:37:20.9	101.080	0.120	-0.280	0.230
2020/01/31 15:37:21.0	101.110	0.120	-0.250	0.250
2020/01/31 15:37:21.1	101.130	0.110	-0.210	0.270
2020/01/31 15:37:21.2	101.160	0.110	-0.180	0.290
2020/01/31 15:37:21.3	101.180	0.110	-0.140	0.320
2020/01/31 15:37:21.4	101.200	0.100	-0.110	0.340
2020/01/31 15:37:21.5	101.220	0.100	-0.070	0.370
2020/01/31 15:37:21.6	101.240	0.100	-0.040	0.400
2020/01/31 15:37:21.7	101.260	0.090	-0.000	0.430
2020/01/31 15:37:21.8	101.280	0.090	0.030	0.450
2020/01/31 15:37:21.9	101.290	0.080	0.070	0.480
2020/01/31 15:37:22.0	101.310	0.080	0.100	0.510
2020/01/31 15:37:22.1	101.320	0.070	0.130	0.540
2020/01/31 15:37:22.2	101.330	0.060	0.170	0.570
2020/01/31 15:37:22.3	101.340	0.060	0.200	0.590
2020/01/31 15:37:22.4	101.340	0.050	0.220	0.620
2020/01/31 15:37:22.5	101.350	0.040	0.250	0.650
2020/01/31 15:37:22.6	101.350	0.040	0.270	0.680
2020/01/31 15:37:22.7	101.350	0.030	0.290	0.700
2020/01/31 15:37:22.8	101.350	0.020	0.310	0.730
2020/01/31 15:37:22.9	101.350	0.010	0.330	0.750
2020/01/31 15:37:23.0	101.340	0.010	0.340	0.780
2020/01/31 15:37:23.1	101.340	-0.000	0.350	0.800
2020/01/31 15:37:23.2	101.340	-0.010	0.360	0.830
2020/01/31 15:37:23.3	101.330	-0.020	0.360	0.850
2020/01/31 15:37:23.4	101.320	-0.030	0.360	0.870
2020/01/31 15:37:23.5	101.320	-0.040	0.350	0.900
2020/01/31 15:37:23.6	101.310	-0.050	0.350	0.920
2020/01/31 15:37:23.7	101.300	-0.060	0.340	0.950
2020/01/31 15:37:23.8	101.300	-0.070	0.320	0.980
2020/01/31 15:37:23.9	101.290	-0.080	0.300	1.000
2020/01/31 15:37:24.0	101.280	-0.090	0.280	1.030
2020/01/31 15:37:24.1	101.280	-0.100	0.250	1.050
2020/01/31 15:37:24.2	101.270	-0.110	0.220	1.080
2020/01/31 15:37:24.3	101.270	-0.120	0.190	1.110
2020/01/31 15:37:24.4	101.260	-0.130	0.150	1.140
2020/01/31 15:37:24.5	101.260	-0.140	0.110	1.170
2020/01/31 15:37:24.6	101.250	-0.140	0.070	1.200
2020/01/31 15:37:24.7	101.250	-0.150	0.030	1.230
2020/01/31 15:37:24.8	101.250	-0.160	-0.020	1.270
2020/01/31 15:37:24.9	101.240	-0.170	-0.070	1.300
2020/01/31 15:37:25.0	101.240	-0.170	-0.110	1.340
2020/01/31 15:37:25.1	101.240	-0.180	-0.160	1.370
2020/01/31 15:37:25.2	101.230	-0.180	-0.210	1.410
2020/01/31 15:37:25.3	101.230	-0.190	-0.260	1.440
2020/01/31 15:37:25.4	101.220	-0.190	-0.300	1.480
2020/01/31 15:37:25.5	101.220	-0.200	-0.350	1.520
2020/01/31 15:37:25.6	101.210	-0.200	-0.390	1.550
2020/01/31 15:37:25.7	101.200	-0.200	-0.420	1.590
2020/01/31 15:37:25.8	101.200	-0.200	-0.460	1.630
2020/01/31 15:37:25.9	101.190	-0.210	-0.490	1.660
2020/01/31 15:37:26.0	101.180	-0.210	-0.520	1.690
2020/01/31 15:37:26.1	101.170	-0.210	-0.550	1.720
2020/01/31 15:37:26.2	101.170	-0.210	-0.570	1.740
2020/01/31 15:37:26.3	101.160	-0.210	-0.590	1.760
2020/01/31 15:37:26.4	101.150	-0.210	-0.600	1.780
2020/01/31 15:37:26.5	101.140	-0.210	-0.610	1.800
2020/01/31 15:37:26.6	101.140	-0.220	-0.610	1.810
2020/01/31 15:37:26.7	101.140	-0.220	-0.610	1.820
2020/01/31 15:37:26.8	101.130	-0.220	-0.600	1.820
2020/01/31 15:37:26.9	101.130	-0.220	-0.590	1.820
2020/01/31 15:37:27.0	101.120	-0.220	-0.580	1.820
2020/01/31 15:37:27.1	101.120	-0.220	-0.560	1.810
2020/01/31 15:37:27.2	101.120	-0.220	-0.530	1.790
2020/01/31 15:37:27.3	101.110	-0.220	-0.510	1.770
2020/01/31 15:37:27.4	101.110	-0.220	-0.480	1.750
2020/01/31 15:37:27.5	101.110	-0.220	-0.450	1.720
2020/01/31 15:37:27.6	101.110	-0.230	-0.410	1.690
2020/01/31 15:37:27.7	101.100	-0.230	-0.380	1.650
2020/01/31 15:37:27.8	101.100	-0.230	-0.340	1.610
2020/01/31 15:37:27.9	101.100	-0.230	-0.300	1.570
2020/01/31 15:37:28.0	101.090	-0.230	-0.260	1.520
2020/01/31 15:37:28.1	101.090	-0.230	-0.220	1.470
2020/01/31 15:37:28.2	101.090	-0.230	-0.170	1.420
2020/01/31 15:37:28.3	101.080	-0.230	-0.130	1.360
2020/01/31 15:37:28.4	101.070	-0.230	-0.090	1.300
2020/01/31 15:37:28.5	101.060	-0.230	-0.050	1.230
2020/01/31 15:37:28.6	101.050	-0.230	-0.020	1.170
2020/01/31 15:37:28.7	101.040	-0.230	0.020	1.110
2020/01/31 15:37:28.8	101.030	-0.220	0.050	1.040
2020/01/31 15:37:28.9	101.020	-0.220	0.080	0.970
2020/01/31 15:37:29.0	101.000	-0.210	0.110	0.900
2020/01/31 15:37:29.1	100.990	-0.200	0.130	0.830
2020/01/31 15:37:29.2	100.970	-0.190	0.150	0.760
2020/01/31 15:37:29.3	100.950	-0.180	0.160	0.690
2020/01/31 15:37:29.4	100.940	-0.170	0.170	0.610
2020/01/31 15:37:29.5	100.920	-0.160	0.170	0.540
2020/01/31 15:37:29.6	100.910	-0.140	0.160	0.470
2020/01/31 15:37:29.7	100.900	-0.130	0.150	0.390
2020/01/31 15:37:29.8	100.880	-0.110	0.140	0.320
2020/01/31 15:37:29.9	100.870	-0.090	0.120	0.240
2020/01/31 15:37:30.0	100.860	-0.070	0.090	0.160
2020/01/31 15:37:30.1	100.850	-0.040	0.060	0.080
2020/01/31 15:37:30.2	100.850	-0.020	0.020	0.000
2020/01/31 15:37:30.3	100.840	0.010	-0.020	-0.070
2020/01/31 15:37:30.4	100.840	0.030	-0.070	-0.150
2020/01/31 15:37:30.5	100.840	0.060	-0.110	-0.230
2020/01/31 15:37:30.6	100.850	0.090	-0.170	-0.310
2020/01/31 15:37:30.7	100.860	0.120	-0.220	-0.390
2020/01/31 15:37:30.8	100.870	0.150	-0.280	-0.460
2020/01/31 15:37:30.9	100.880	0.180	-0.340	-0.540
2020/01/31 15:37:31.0	100.900	0.210	-0.400	-0.610
2020/01/31 15:37:31.1	100.910	0.250	-0.460	-0.680
2020/01/31 15:37:31.2	100.930	0.280	-0.520	-0.750
2020/01/31 15:37:31.3	100.950	0.310	-0.580	-0.820
2020/01/31 15:37:31.4	100.970	0.340	-0.630	-0.880
2020/01/31 15:37:31.5	100.990	0.360	-0.690	-0.940
2020/01/31 15:37:31.6	101.020	0.390	-0.740	-0.990
2020/01/31 15:37:31.7	101.040	0.420	-0.780	-1.040
2020/01/31 15:37:31.8	101.060	0.440	-0.830	-1.090
2020/01/31 15:37:31.9	101.080	0.460	-0.860	-1.130
2020/01/31 15:37:32.0	101.100	0.480	-0.900	-1.160
2020/01/31 15:37:32.1	101.120	0.500	-0.920	-1.190
2020/01/31 15:37:32.2	101.140	0.520	-0.940	-1.220
2020/01/31 15:37:32.3	101.160	0.530	-0.960	-1.240
2020/01/31 15:37:32.4	101.170	0.540	-0.970	-1.260
2020/01/31 15:37:32.5	101.180	0.550	-0.970	-1.270
2020/01/31 15:37:32.6	101.200	0.560	-0.960	-1.280
2020/01/31 15:37:32.7	101.220	0.560	-0.950	-1.280
2020/01/31 15:37:32.8	101.230	0.560	-0.930	-1.280
2020/01/31 15:37:32.9	101.230	0.560	-0.900	-1.280
2020/01/31 15:37:33.0	101.240	0.550	-0.870	-1.270
2020/01/31 15:37:33.1	101.240	0.540	-0.830	-1.260
2020/01/31 15:37:33.2	101.240	0.530	-0.780	-1.250
2020/01/31 15:37:33.3	101.240	0.510	-0.730	-1.230
2020/01/31 15:37:33.4	101.240	0.490	-0.680	-1.210
2020/01/31 15:37:33.5	101.240	0.470	-0.610	-1.180
2020/01/31 15:37:33.6	101.230	0.450	-0.550	-1.160
2020/01/31 15:37:33.7	101.230	0.430	-0.480	-1.120
2020/01/31 15:37:33.8	101.220	0.400	-0.400	-1.090
2020/01/31 15:37:33.9	101.210	0.370	-0.320	-1.050
2020/01/31 15:37:34.0	101.200	0.330	-0.240	-1.010
2020/01/31 15:37:34.1	101.180	0.300	-0.160	-0.970
2020/01/31 15:37:34.2	101.170	0.260	-0.080	-0.930
2020/01/31 15:37:34.3	101.150	0.230	0.000	-0.880
2020/01/31 15:37:34.4	101.130	0.190	0.080	-0.840
2020/01/31 15:37:34.5	101.120	0.150	0.160	-0.790
2020/01/31 15:37:34.6	101.100	0.110	0.240	-0.740
2020/01/31 15:37:34.7	101.080	0.060	0.320	-0.690
2020/01/31 15:37:34.8	101.070	0.020	0.390	-0.630
2020/01/31 15:37:34.9	101.040	-0.020	0.460	-0.580
2020/01/31 15:37:35.0	101.020	-0.060	0.530	-0.530
2020/01/31 15:37:35.1	101.000	-0.100	0.590	-0.470
2020/01/31 15:37:35.2	100.980	-0.140	0.650	-0.410
2020/01/31 15:37:35.3	100.960	-0.190	0.700	-0.350
2020/01/31 15:37:35.4	100.940	-0.220	0.750	-0.290
2020/01/31 15:37:35.5	100.920	-0.260	0.790	-0.230
2020/01/31 15:37:35.6	100.900	-0.300	0.830	-0.170
2020/01/31 15:37:35.7	100.880	-0.330	0.860	-0.100
2020/01/31 15:37:35.8	100.850	-0.370	0.890	-0.040
2020/01/31 15:37:35.9	100.830	-0.400	0.900	0.030
2020/01/31 15:37:36.0	100.810	-0.420	0.920	0.100
2020/01/31 15:37:36.1	100.790	-0.450	0.920	0.170
2020/01/31 15:37:36.2	100.770	-0.470	0.920	0.240
2020/01/31 15:37:36.3	100.750	-0.490	0.910	0.310
2020/01/31 15:37:36.4	100.730	-0.510	0.900	0.380
2020/01/31 15:37:36.5	100.710	-0.520	0.880	0.450
2020/01/31 15:37:36.6	100.700	-0.530	0.850	0.520
2020/01/31 15:37:36.7	100.690	-0.540	0.830	0.600
2020/01/31 15:37:36.8	100.680	-0.540	0.790	0.680
2020/01/31 15:37:36.9	100.660	-0.540	0.740	0.750
2020/01/31 15:37:37.0	100.650	-0.530	0.700	0.820
2020/01/31 15:37:37.1	100.640	-0.530	0.640	0.890
2020/01/31 15:37:37.2	100.630	-0.520	0.580	0.960
2020/01/31 15:37:37.3	100.630	-0.500	0.520	1.020
2020/01/31 15:37:37.4	100.620	-0.490	0.450	1.090
2020/01/31 15:37:37.5	100.620	-0.470	0.380	1.150
2020/01/31 15:37:37.6	100.620	-0.450	0.300	1.200
2020/01/31 15:37:37.7	100.630	-0.420	0.220	1.260
2020/01/31 15:37:37.8	100.640	-0.390	0.140	1.310
2020/01/31 15:37:37.9	100.650	-0.360	0.060	1.360
2020/01/31 15:37:38.0	100.670	-0.330	-0.030	1.400
2020/01/31 15:37:38.1	100.690	-0.300	-0.120	1.440
2020/01/31 15:37:38.2	100.710	-0.260	-0.210	1.470
2020/01/31 15:37:38.3	100.730	-0.230	-0.300	1.500
2020/01/31 15:37:38.4	100.760	-0.190	-0.390	1.530
2020/01/31 15:37:38.5	100.790	-0.150	-0.490	1.560
2020/01/31 15:37:38.6	100.820	-0.120	-0.580	1.580
2020/01/31 15:37:38.7	100.840	-0.080	-0.670	1.600
2020/01/31 15:37:38.8	100.880	-0.040	-0.760	1.620
2020/01/31 15:37:38.9	100.910	0.000	-0.840	1.630
2020/01/31 15:37:39.0	100.940	0.040	-0.930	1.650
2020/01/31 15:37:39.1	100.980	0.080	-1.010	1.660
2020/01/31 15:37:39.2	101.010	0.120	-1.090	1.670
2020/01/31 15:37:39.3	101.040	0.150	-1.170	1.680
2020/01/31 15:37:39.4	101.080	0.190	-1.240	1.690
2020/01/31 15:37:39.5	101.110	0.220	-1.300	1.700
2020/01/31 15:37:39.6	101.140	0.260	-1.360	1.710
2020/01/31 15:37:39.7	101.160	0.290	-1.410	1.730
2020/01/31 15:37:39.8	101.190	0.320	-1.460	1.740
2020/01/31 15:37:39.9	101.210	0.340	-1.500	1.750
2020/01/31 15:37:40.0	101.240	0.370	-1.530	1.760
2020/01/31 15:37:40.1	101.260	0.390	-1.550	1.780
2020/01/31 15:37:40.2	101.280	0.400	-1.570	1.790
2020/01/31 15:37:40.3	101.290	0.420	-1.570	1.800
2020/01/31 15:37:40.4	101.310	0.430	-1.570	1.810
2020/01/31 15:37:40.5	101.320	0.440	-1.550	1.820
2020/01/31 15:37:40.6	101.330	0.450	-1.530	1.830
2020/01/31 15:37:40.7	101.340	0.450	-1.490	1.840
2020/01/31 15:37:40.8	101.340	0.450	-1.450	1.850
2020/01/31 15:37:40.9	101.350	0.440	-1.400	1.860
2020/01/31 15:37:41.0	101.350	0.430	-1.340	1.870
2020/01/31 15:37:41.1	101.350	0.420	-1.260	1.870
2020/01/31 15:37:41.2	101.350	0.400	-1.180	1.870
2020/01/31 15:37:41.3	101.340	0.390	-1.100	1.880
2020/01/31 15:37:41.4	101.330	0.360	-1.000	1.880
2020/01/31 15:37:41.5	101.330	0.340	-0.900	1.870
2020/01/31 15:37:41.6	101.320	0.310	-0.790	1.870
2020/01/31 15:37:41.7	101.300	0.280	-0.670	1.860
2020/01/31 15:37:41.8	101.290	0.240	-0.550	1.850
2020/01/31 15:37:41.9	101.280	0.210	-0.430	1.840
2020/01/31 15:37:42.0	101.260	0.170	-0.300	1.830
2020/01/31 15:37:42.1	101.250	0.130	-0.170	1.810
2020/01/31 15:37:42.2	101.230	0.080	-0.040	1.790
2020/01/31 15:37:42.3	101.210	0.040	0.090	1.760
2020/01/31 15:37:42.4	101.190	-0.000	0.220	1.740
2020/01/31 15:37:42.5	101.160	-0.050	0.350	1.710
2020/01/31 15:37:42.6	101.140	-0.100	0.470	1.680
2020/01/31 15:37:42.7	101.110	-0.140	0.600	1.640
2020/01/31 15:37:42.8	101.090	-0.190	0.720	1.600
2020/01/31 15:37:42.9	101.060	-0.240	0.830	1.560
2020/01/31 15:37:43.0	101.030	-0.280	0.940	1.520
2020/01/31 15:37:43.1	101.000	-0.320	1.040	1.480
2020/01/31 15:37:43.2	100.970	-0.370	1.130	1.430
2020/01/31 15:37:43.3	100.940	-0.410	1.210	1.390
2020/01/31 15:37:43.4	100.910	-0.440	1.280	1.340
2020/01/31 15:37:43.5	100.880	-0.480	1.350	1.290
2020/01/31 15:37:43.6	100.850	-0.510	1.400	1.240
2020/01/31 15:37:43.7	100.820	-0.540	1.440	1.180
2020/01/31 15:37:43.8	100.790	-0.570	1.480	1.130
2020/01/31 15:37:43.9	100.750	-0.590	1.500	1.070
2020/01/31 15:37:44.0	100.720	-0.610	1.510	1.020
2020/01/31 15:37:44.1	100.690	-0.630	1.500	0.960
2020/01/31 15:37:44.2	100.660	-0.640	1.490	0.900
2020/01/31 15:37:44.3	100.630	-0.650	1.470	0.840
2020/01/31 15:37:44.4	100.600	-0.650	1.430	0.780
2020/01/31 15:37:44.5	100.570	-0.650	1.380	0.720
2020/01/31 15:37:44.6	100.550	-0.650	1.330	0.660
2020/01/31 15:37:44.7	100.530	-0.640	1.260	0.600
2020/01/31 15:37:44.8	100.500	-0.630	1.190	0.540
2020/01/31 15:37:44.9	100.480	-0.620	1.100	0.470
2020/01/31 15:37:45.0	100.460	-0.600	1.010	0.410
2020/01/31 15:37:45.1	100.440	-0.580	0.920	0.340
2020/01/31 15:37:45.2	100.430	-0.550	0.810	0.270
2020/01/31 15:37:45.3	100.410	-0.520	0.700	0.210
2020/01/31 15:37:45.4	100.400	-0.490	0.590	0.140
2020/01/31 15:37:45.5	100.390	-0.460	0.470	0.070
2020/01/31 15:37:45.6	100.390	-0.430	0.340	-0.010
2020/01/31 15:37:45.7	100.390	-0.390	0.220	-0.070
2020/01/31 15:37:45.8	100.390	-0.350	0.090	-0.150
2020/01/31 15:37:45.9	100.390	-0.310	-0.050	-0.220
2020/01/31 15:37:46.0	100.390	-0.270	-0.180	-0.300
2020/01/31 15:37:46.1	100.400	-0.230	-0.320	-0.380
2020/01/31 15:37:46.2	100.400	-0.190	-0.450	-0.450
2020/01/31 15:37:46.3	100.410	-0.140	-0.580	-0.530
2020/01/31 15:37:46.4	100.420	-0.100	-0.710	-0.610
2020/01/31 15:37:46.5	100.440	-0.060	-0.840	-0.690
2020/01/31 15:37:46.6	100.450	-0.010	-0.970	-0.760
2020/01/31 15:37:46.7	100.470	0.030	-1.090	-0.840
2020/01/31 15:37:46.8	100.490	0.070	-1.200	-0.920
2020/01/31 15:37:46.9	100.510	0.110	-1.310	-0.990
2020/01/31 15:37:47.0	100.530	0.150	-1.410	-1.060
2020/01/31 15:37:47.1	100.550	0.190	-1.510	-1.130
2020/01/31 15:37:47.2	100.570	0.230	-1.600	-1.190
2020/01/31 15:37:47.3	100.590	0.260	-1.680	-1.250
2020/01/31 15:37:47.4	100.610	0.290	-1.750	-1.310
2020/01/31 15:37:47.5	100.630	0.330	-1.810	-1.360
2020/01/31 15:37:47.6	100.650	0.360	-1.860	-1.400
2020/01/31 15:37:47.7	100.660	0.390	-1.900	-1.440
2020/01/31 15:37:47.8	100.680	0.410	-1.930	-1.470
2020/01/31 15:37:47.9	100.700	0.440	-1.950	-1.500
2020/01/31 15:37:48.0	100.720	0.460	-1.960	-1.520
2020/01/31 15:37:48.1	100.730	0.480	-1.960	-1.540
2020/01/31 15:37:48.2	100.750	0.500	-1.950	-1.550
2020/01/31 15:37:48.3	100.760	0.520	-1.930	-1.550
2020/01/31 15:37:48.4	100.770	0.530	-1.900	-1.550
2020/01/31 15:37:48.5	100.780	0.540	-1.850	-1.540
2020/01/31 15:37:48.6	100.790	0.550	-1.800	-1.520
2020/01/31 15:37:48.7	100.800	0.560	-1.730	-1.490
2020/01/31 15:37:48.8	100.800	0.560	-1.660	-1.460
2020/01/31 15:37:48.9	100.800	0.570	-1.580	-1.420
2020/01/31 15:37:49.0	100.800	0.570	-1.490	-1.380
2020/01/31 15:37:49.1	100.800	0.560	-1.390	-1.330
2020/01/31 15:37:49.2	100.790	0.560	-1.290	-1.270
2020/01/31 15:37:49.3	100.790	0.550	-1.170	-1.200
2020/01/31 15:37:49.4	100.780	0.540	-1.060	-1.130
2020/01/31 15:37:49.5	100.770	0.530	-0.940	-1.050
2020/01/31 15:37:49.6	100.750	0.520	-0.810	-0.970
2020/01/31 15:37:49.7	100.740	0.500	-0.680	-0.870
2020/01/31 15:37:49.8	100.730	0.480	-0.550	-0.770
2020/01/31 15:37:49.9	100.710	0.460	-0.410	-0.670
2020/01/31 15:37:50.0	100.690	0.440	-0.280	-0.570
2020/01/31 15:37:50.1	100.670	0.420	-0.150	-0.460
2020/01/31 15:37:50.2	100.650	0.400	-0.020	-0.340
2020/01/31 15:37:50.3	100.630	0.370	0.110	-0.230
2020/01/31 15:37:50.4	100.610	0.350	0.230	-0.110
2020/01/31 15:37:50.5	100.580	0.320	0.350	0.020
2020/01/31 15:37:50.6	100.560	0.290	0.470	0.140
2020/01/31 15:37:50.7	100.530	0.260	0.580	0.270
2020/01/31 15:37:50.8	100.510	0.230	0.680	0.390
2020/01/31 15:37:50.9	100.480	0.200	0.770	0.520
2020/01/31 15:37:51.0	100.460	0.170	0.860	0.640
2020/01/31 15:37:51.1	100.430	0.140	0.940	0.770
2020/01/31 15:37:51.2	100.410	0.110	1.020	0.890
2020/01/31 15:37:51.3	100.380	0.080	1.080	1.010
2020/01/31 15:37:51.4	100.350	0.050	1.140	1.130
2020/01/31 15:37:51.5	100.330	0.010	1.180	1.240
2020/01/31 15:37:51.6	100.300	-0.020	1.220	1.350
2020/01/31 15:37:51.7	100.280	-0.050	1.250	1.450
2020/01/31 15:37:51.8	100.250	-0.080	1.280	1.550
2020/01/31 15:37:51.9	100.230	-0.100	1.290	1.640
2020/01/31 15:37:52.0	100.210	-0.130	1.290	1.730
2020/01/31 15:37:52.1	100.190	-0.160	1.290	1.810
2020/01/31 15:37:52.2	100.170	-0.180	1.280	1.880
2020/01/31 15:37:52.3	100.150	-0.210	1.260	1.950
2020/01/31 15:37:52.4	100.130	-0.230	1.240	2.010
2020/01/31 15:37:52.5	100.120	-0.250	1.200	2.060
2020/01/31 15:37:52.6	100.110	-0.270	1.160	2.110
2020/01/31 15:37:52.7	100.100	-0.290	1.120	2.150
2020/01/31 15:37:52.8	100.090	-0.310	1.070	2.180
2020/01/31 15:37:52.9	100.080	-0.330	1.010	2.210
2020/01/31 15:37:53.0	100.080	-0.340	0.950	2.230
2020/01/31 15:37:53.1	100.070	-0.350	0.890	2.250
2020/01/31 15:37:53.2	100.070	-0.360	0.820	2.260
2020/01/31 15:37:53.3	100.070	-0.370	0.750	2.260
2020/01/31 15:37:53.4	100.070	-0.370	0.670	2.260
2020/01/31 15:37:53.5	100.070	-0.380	0.600	2.260
2020/01/31 15:37:53.6	100.070	-0.380	0.520	2.250
2020/01/31 15:37:53.7	100.090	-0.380	0.440	2.250
2020/01/31 15:37:53.8	100.090	-0.380	0.360	2.240
2020/01/31 15:37:53.9	100.100	-0.380	0.270	2.220
2020/01/31 15:37:54.0	100.110	-0.370	0.190	2.200
2020/01/31 15:37:54.1	100.120	-0.360	0.110	2.180
2020/01/31 15:37:54.2	100.130	-0.360	0.030	2.160
2020/01/31 15:37:54.3	100.140	-0.350	-0.060	2.130
2020/01/31 15:37:54.4	100.150	-0.330	-0.140	2.110
2020/01/31 15:37:54.5	100.160	-0.320	-0.220	2.080
2020/01/31 15:37:54.6	100.180	-0.310	-0.290	2.050
2020/01/31 15:37:54.7	100.190	-0.290	-0.370	2.020
2020/01/31 15:37:54.8	100.210	-0.280	-0.440	1.990
2020/01/31 15:37:54.9	100.220	-0.260	-0.510	1.960
2020/01/31 15:37:55.0	100.240	-0.240	-0.580	1.930
2020/01/31 15:37:55.1	100.250	-0.220	-0.650	1.900
2020/01/31 15:37:55.2	100.270	-0.200	-0.710	1.870
2020/01/31 15:37:55.3	100.290	-0.190	-0.760	1.840
2020/01/31 15:37:55.4	100.300	-0.170	-0.820	1.810
2020/01/31 15:37:55.5	100.320	-0.150	-0.870	1.780
2020/01/31 15:37:55.6	100.330	-0.130	-0.920	1.750
2020/01/31 15:37:55.7	100.350	-0.110	-0.960	1.720
2020/01/31 15:37:55.8	100.370	-0.080	-1.000	1.680
2020/01/31 15:37:55.9	100.390	-0.060	-1.040	1.650
2020/01/31 15:37:56.0	100.400	-0.040	-1.070	1.610
2020/01/31 15:37:56.1	100.420	-0.020	-1.100	1.580
2020/01/31 15:37:56.2	100.430	-0.000	-1.120	1.540
2020/01/31 15:37:56.3	100.450	0.020	-1.140	1.500
2020/01/31 15:37:56.4	100.460	0.040	-1.160	1.460
2020/01/31 15:37:56.5	100.480	0.060	-1.180	1.420
2020/01/31 15:37:56.6	100.490	0.080	-1.190	1.380
2020/01/31 15:37:56.7	100.500	0.100	-1.200	1.330
2020/01/31 15:37:56.8	100.510	0.130	-1.200	1.290
2020/01/31 15:37:56.9	100.520	0.150	-1.200	1.240
2020/01/31 15:37:57.0	100.530	0.170	-1.200	1.190
2020/01/31 15:37:57.1	100.540	0.190	-1.190	1.150
2020/01/31 15:37:57.2	100.540	0.210	-1.180	1.100
2020/01/31 15:37:57.3	100.550	0.230	-1.170	1.050
2020/01/31 15:37:57.4	100.550	0.250	-1.150	1.000
2020/01/31 15:37:57.5	100.550	0.270	-1.130	0.950
2020/01/31 15:37:57.6	100.550	0.290	-1.110	0.900
2020/01/31 15:37:57.7	100.540	0.300	-1.080	0.860
2020/01/31 15:37:57.8	100.540	0.320	-1.050	0.810
2020/01/31 15:37:57.9	100.530	0.340	-1.010	0.770
2020/01/31 15:37:58.0	100.520	0.350	-0.980	0.720
2020/01/31 15:37:58.1	100.510	0.360	-0.940	0.670
2020/01/31 15:37:58.2	100.500	0.380	-0.900	0.630
2020/01/31 15:37:58.3	100.490	0.390	-0.850	0.580
2020/01/31 15:37:58.4	100.470	0.400	-0.800	0.540
2020/01/31 15:37:58.5	100.450	0.400	-0.750	0.500
2020/01/31 15:37:58.6	100.440	0.410	-0.700	0.460
2020/01/31 15:37:58.7	100.420	0.410	-0.640	0.420
2020/01/31 15:37:58.8	100.400	0.410	-0.580	0.380
2020/01/31 15:37:58.9	100.380	0.410	-0.530	0.350
2020/01/31 15:37:59.0	100.350	0.400	-0.460	0.310
2020/01/31 15:37:59.1	100.330	0.390	-0.400	0.280
2020/01/31 15:37:59.2	100.300	0.380	-0.340	0.250
2020/01/31 15:37:59.3	100.280	0.370	-0.270	0.220
2020/01/31 15:37:59.4	100.250	0.350	-0.200	0.190
2020/01/31 15:37:59.5	100.220	0.340	-0.140	0.170
2020/01/31 15:37:59.6	100.190	0.310	-0.070	0.140
2020/01/31 15:37:59.7	100.170	0.290	0.000	0.120
2020/01/31 15:37:59.8	100.140	0.270	0.070	0.090
2020/01/31 15:37:59.9	100.110	0.240	0.140	0.070
2020/01/31 15:38:00.0	100.090	0.210	0.210	0.050
2020/01/31 15:38:00.1	100.060	0.170	0.280	0.020
2020/01/31 15:38:00.2	100.030	0.140	0.350	0.000
2020/01/31 15:38:00.3	100.010	0.100	0.410	-0.020
2020/01/31 15:38:00.4	99.980	0.070	0.480	-0.040
2020/01/31 15:38:00.5	99.960	0.030	0.540	-0.070
2020/01/31 15:38:00.6	99.940	-0.010	0.610	-0.090
2020/01/31 15:38:00.7	99.920	-0.050	0.670	-0.110
2020/01/31 15:38:00.8	99.900	-0.090	0.720	-0.140
2020/01/31 15:38:00.9	99.890	-0.130	0.780	-0.160
2020/01/31 15:38:01.0	99.870	-0.170	0.830	-0.190
2020/01/31 15:38:01.1	99.860	-0.210	0.880	-0.220
2020/01/31 15:38:01.2	99.850	-0.240	0.920	-0.250
2020/01/31 15:38:01.3	99.850	-0.280	0.960	-0.280
2020/01/31 15:38:01.4	99.840	-0.320	0.990	-0.310
2020/01/31 15:38:01.5	99.840	-0.350	1.020	-0.340
2020/01/31 15:38:01.6	99.840	-0.380	1.040	-0.370
2020/01/31 15:38:01.7	99.840	-0.410	1.060	-0.410
2020/01/31 15:38:01.8	99.850	-0.430	1.070	-0.440
2020/01/31 15:38:01.9	99.860	-0.460	1.070	-0.480
2020/01/31 15:38:02.0	99.870	-0.480	1.070	-0.510
2020/01/31 15:38:02.1	99.880	-0.490	1.060	-0.550
2020/01/31 15:38:02.2	99.890	-0.510	1.040	-0.580
2020/01/31 15:38:02.3	99.910	-0.520	1.020	-0.610
2020/01/31 15:38:02.4	99.920	-0.530	0.990	-0.650
2020/01/31 15:38:02.5	99.940	-0.530	0.950	-0.680
2020/01/31 15:38:02.6	99.960	-0.530	0.900	-0.710
2020/01/31 15:38:02.7	99.980	-0.520	0.850	-0.730
2020/01/31 15:38:02.8	100.000	-0.510	0.780	-0.760
2020/01/31 15:38:02.9	100.020	-0.500	0.710	-0.780
2020/01/31 15:38:03.0	100.040	-0.480	0.640	-0.800
2020/01/31 15:38:03.1	100.060	-0.460	0.550	-0.820
2020/01/31 15:38:03.2	100.090	-0.440	0.460	-0.840
2020/01/31 15:38:03.3	100.110	-0.410	0.360	-0.850
2020/01/31 15:38:03.4	100.130	-0.380	0.260	-0.860
2020/01/31 15:38:03.5	100.150	-0.350	0.150	-0.870
2020/01/31 15:38:03.6	100.170	-0.310	0.040	-0.870
2020/01/31 15:38:03.7	100.190	-0.280	-0.080	-0.860
2020/01/31 15:38:03.8	100.210	-0.230	-0.200	-0.860
2020/01/31 15:38:03.9	100.230	-0.190	-0.330	-0.850
2020/01/31 15:38:04.0	100.250	-0.150	-0.450	-0.830
2020/01/31 15:38:04.1	100.270	-0.100	-0.580	-0.810
2020/01/31 15:38:04.2	100.280	-0.050	-0.710	-0.790
2020/01/31 15:38:04.3	100.300	-0.000	-0.830	-0.760
2020/01/31 15:38:04.4	100.310	0.050	-0.960	-0.730
2020/01/31 15:38:04.5	100.330	0.090	-1.080	-0.690
2020/01/31 15:38:04.6	100.340	0.140	-1.200	-0.650
2020/01/31 15:38:04.7	100.350	0.190	-1.300	-0.590
2020/01/31 15:38:04.8	100.360	0.240	-1.410	-0.540
2020/01/31 15:38:04.9	100.370	0.290	-1.510	-0.490
2020/01/31 15:38:05.0	100.370	0.330	-1.600	-0.420
2020/01/31 15:38:05.1	100.380	0.370	-1.690	-0.360
2020/01/31 15:38:05.2	100.380	0.410	-1.760	-0.290
2020/01/31 15:38:05.3	100.380	0.450	-1.820	-0.220
2020/01/31 15:38:05.4	100.390	0.490	-1.880	-0.140
2020/01/31 15:38:05.5	100.390	0.520	-1.920	-0.070
2020/01/31 15:38:05.6	100.390	0.550	-1.950	0.010
2020/01/31 15:38:05.7	100.390	0.580	-1.970	0.100
2020/01/31 15:38:05.8	100.390	0.600	-1.980	0.190
2020/01/31 15:38:05.9	100.390	0.620	-1.970	0.270
2020/01/31 15:38:06.0	100.380	0.630	-1.950	0.360
2020/01/31 15:38:06.1	100.380	0.640	-1.920	0.460
2020/01/31 15:38:06.2	100.370	0.640	-1.870	0.550
2020/01/31 15:38:06.3	100.360	0.640	-1.810	0.650
2020/01/31 15:38:06.4	100.350	0.640	-1.740	0.740
2020/01/31 15:38:06.5	100.340	0.630	-1.660	0.840
2020/01/31 15:38:06.6	100.330	0.610	-1.570	0.940
2020/01/31 15:38:06.7	100.320	0.590	-1.460	1.050
2020/01/31 15:38:06.8	100.300	0.570	-1.350	1.150
2020/01/31 15:38:06.9	100.280	0.540	-1.230	1.260
2020/01/31 15:38:07.0	100.260	0.510	-1.100	1.360
2020/01/31 15:38:07.1	100.240	0.470	-0.960	1.470
2020/01/31 15:38:07.2	100.220	0.430	-0.810	1.570
2020/01/31 15:38:07.3	100.200	0.380	-0.660	1.670
2020/01/31 15:38:07.4	100.170	0.330	-0.510	1.780
2020/01/31 15:38:07.5	100.150	0.280	-0.350	1.880
2020/01/31 15:38:07.6	100.120	0.220	-0.190	1.980
2020/01/31 15:38:07.7	100.090	0.160	-0.020	2.080
2020/01/31 15:38:07.8	100.060	0.100	0.140	2.180
2020/01/31 15:38:07.9	100.040	0.030	0.300	2.270
2020/01/31 15:38:08.0	100.010	-0.030	0.450	2.360
2020/01/31 15:38:08.1	99.980	-0.100	0.600	2.440
2020/01/31 15:38:08.2	99.960	-0.170	0.750	2.520
2020/01/31 15:38:08.3	99.930	-0.240	0.890	2.600
2020/01/31 15:38:08.4	99.910	-0.300	1.020	2.660
2020/01/31 15:38:08.5	99.890	-0.370	1.140	2.730
2020/01/31 15:38:08.6	99.870	-0.430	1.250	2.780
2020/01/31 15:38:08.7	99.850	-0.490	1.360	2.840
2020/01/31 15:38:08.8	99.840	-0.550	1.450	2.880
2020/01/31 15:38:08.9	99.820	-0.610	1.530	2.910
2020/01/31 15:38:09.0	99.810	-0.660	1.600	2.940
2020/01/31 15:38:09.1	99.800	-0.710	1.650	2.960
2020/01/31 15:38:09.2	99.790	-0.750	1.690	2.970
2020/01/31 15:38:09.3	99.780	-0.790	1.720	2.980
2020/01/31 15:38:09.4	99.770	-0.830	1.740	2.980
2020/01/31 15:38:09.5	99.770	-0.850	1.740	2.960
2020/01/31 15:38:09.6	99.770	-0.880	1.730	2.950
2020/01/31 15:38:09.7	99.770	-0.890	1.710	2.920
2020/01/31 15:38:09.8	99.770	-0.900	1.670	2.890
2020/01/31 15:38:09.9	99.770	-0.910	1.620	2.850
2020/01/31 15:38:10.0	99.780	-0.900	1.560	2.800
2020/01/31 15:38:10.1	99.780	-0.900	1.490	2.750
2020/01/31 15:38:10.2	99.790	-0.880	1.410	2.680
2020/01/31 15:38:10.3	99.800	-0.860	1.320	2.620
2020/01/31 15:38:10.4	99.810	-0.840	1.220	2.540
2020/01/31 15:38:10.5	99.820	-0.800	1.110	2.470
2020/01/31 15:38:10.6	99.840	-0.770	1.000	2.380
2020/01/31 15:38:10.7	99.850	-0.720	0.880	2.290
2020/01/31 15:38:10.8	99.870	-0.680	0.760	2.200
2020/01/31 15:38:10.9	99.880	-0.630	0.630	2.100
2020/01/31 15:38:11.0	99.890	-0.570	0.500	2.000
2020/01/31 15:38:11.1	99.910	-0.510	0.370	1.900
2020/01/31 15:38:11.2	99.920	-0.450	0.230	1.790
2020/01/31 15:38:11.3	99.930	-0.380	0.100	1.680
2020/01/31 15:38:11.4	99.940	-0.320	-0.030	1.570
2020/01/31 15:38:11.5	99.950	-0.250	-0.170	1.460
2020/01/31 15:38:11.6	99.960	-0.170	-0.300	1.350
2020/01/31 15:38:11.7	99.970	-0.100	-0.420	1.230
2020/01/31 15:38:11.8	99.980	-0.030	-0.550	1.120
2020/01/31 15:38:11.9	99.990	0.050	-0.660	1.010
2020/01/31 15:38:12.0	100.000	0.120	-0.770	0.890
2020/01/31 15:38:12.1	100.000	0.190	-0.880	0.780
2020/01/31 15:38:12.2	100.010	0.260	-0.980	0.670
2020/01/31 15:38:12.3	100.010	0.330	-1.070	0.560
2020/01/31 15:38:12.4	100.020	0.400	-1.160	0.450
2020/01/31 15:38:12.5	100.020	0.460	-1.230	0.340
2020/01/31 15:38:12.6	100.020	0.530	-1.300	0.240
2020/01/31 15:38:12.7	100.010	0.590	-1.360	0.140
2020/01/31 15:38:12.8	100.010	0.640	-1.420	0.040
2020/01/31 15:38:12.9	100.010	0.700	-1.460	-0.050
2020/01/31 15:38:13.0	100.000	0.740	-1.500	-0.140
2020/01/31 15:38:13.1	100.000	0.790	-1.530	-0.230
2020/01/31 15:38:13.2	99.990	0.830	-1.550	-0.310
2020/01/31 15:38:13.3	99.980	0.870	-1.560	-0.390
2020/01/31 15:38:13.4	99.970	0.900	-1.560	-0.470
2020/01/31 15:38:13.5	99.960	0.920	-1.560	-0.540
2020/01/31 15:38:13.6	99.950	0.950	-1.550	-0.600
2020/01/31 15:38:13.7	99.930	0.960	-1.530	-0.660
2020/01/31 15:38:13.8	99.920	0.980	-1.510	-0.720
2020/01/31 15:38:13.9	99.900	0.980	-1.480	-0.770
2020/01/31 15:38:14.0	99.890	0.990	-1.450	-0.820
2020/01/31 15:38:14.1	99.870	0.990	-1.410	-0.860
2020/01/31 15:38:14.2	99.850	0.980	-1.370	-0.890
2020/01/31 15:38:14.3	99.830	0.970	-1.320	-0.930
2020/01/31 15:38:14.4	99.810	0.960	-1.270	-0.950
2020/01/31 15:38:14.5	99.800	0.940	-1.210	-0.970
2020/01/31 15:38:14.6	99.780	0.920	-1.150	-0.990
2020/01/31 15:38:14.7	99.760	0.900	-1.090	-1.000
2020/01/31 15:38:14.8	99.740	0.870	-1.030	-1.010
2020/01/31 15:38:14.9	99.720	0.840	-0.960	-1.010
2020/01/31 15:38:15.0	99.700	0.810	-0.900	-1.010
2020/01/31 15:38:15.1	99.690	0.770	-0.830	-1.000
2020/01/31 15:38:15.2	99.670	0.730	-0.760	-0.990
2020/01/31 15:38:15.3	99.650	0.690	-0.690	-0.980
2020/01/31 15:38:15.4	99.630	0.650	-0.610	-0.960
2020/01/31 15:38:15.5	99.620	0.610	-0.540	-0.940
2020/01/31 15:38:15.6	99.600	0.560	-0.460	-0.910
2020/01/31 15:38:15.7	99.580	0.510	-0.390	-0.870
2020/01/31 15:38:15.8	99.560	0.460	-0.310	-0.840
2020/01/31 15:38:15.9	99.550	0.410	-0.230	-0.800
2020/01/31 15:38:16.0	99.530	0.360	-0.160	-0.760
2020/01/31 15:38:16.1	99.510	0.310	-0.080	-0.710
2020/01/31 15:38:16.2	99.500	0.260	-0.000	-0.660
2020/01/31 15:38:16.3	99.480	0.210	0.070	-0.610
2020/01/31 15:38:16.4	99.460	0.160	0.150	-0.560
2020/01/31 15:38:16.5	99.450	0.110	0.220	-0.500
2020/01/31 15:38:16.6	99.430	0.060	0.300	-0.440
2020/01/31 15:38:16.7	99.420	0.010	0.370	-0.370
2020/01/31 15:38:16.8	99.410	-0.040	0.440	-0.310
2020/01/31 15:38:16.9	99.390	-0.090	0.500	-0.240
2020/01/31 15:38:17.0	99.380	-0.140	0.560	-0.180
2020/01/31 15:38:17.1	99.370	-0.180	0.620	-0.110
2020/01/31 15:38:17.2	99.350	-0.220	0.680	-0.040
2020/01/31 15:38:17.3	99.340	-0.260	0.730	0.030
2020/01/31 15:38:17.4	99.330	-0.300	0.770	0.110
2020/01/31 15:38:17.5	99.320	-0.340	0.810	0.180
2020/01/31 15:38:17.6	99.310	-0.380	0.840	0.250
2020/01/31 15:38:17.7	99.310	-0.410	0.870	0.320
2020/01/31 15:38:17.8	99.300	-0.440	0.890	0.400
2020/01/31 15:38:17.9	99.290	-0.460	0.910	0.470
2020/01/31 15:38:18.0	99.280	-0.490	0.920	0.540
2020/01/31 15:38:18.1	99.270	-0.510	0.920	0.600
2020/01/31 15:38:18.2	99.270	-0.530	0.910	0.670
2020/01/31 15:38:18.3	99.270	-0.550	0.900	0.740
2020/01/31 15:38:18.4	99.260	-0.560	0.880	0.800
2020/01/31 15:38:18.5	99.260	-0.570	0.860	0.870
2020/01/31 15:38:18.6	99.260	-0.580	0.830	0.930
2020/01/31 15:38:18.7	99.270	-0.590	0.790	1.000
2020/01/31 15:38:18.8	99.280	-0.590	0.740	1.050
2020/01/31 15:38:18.9	99.280	-0.590	0.690	1.110
2020/01/31 15:38:19.0	99.290	-0.590	0.640	1.160
2020/01/31 15:38:19.1	99.290	-0.590	0.580	1.220
2020/01/31 15:38:19.2	99.300	-0.580	0.520	1.270
2020/01/31 15:38:19.3	99.310	-0.570	0.450	1.320
2020/01/31 15:38:19.4	99.320	-0.570	0.380	1.360
2020/01/31 15:38:19.5	99.330	-0.560	0.310	1.410
2020/01/31 15:38:19.6	99.340	-0.540	0.240	1.450
2020/01/31 15:38:19.7	99.360	-0.530	0.160	1.490
2020/01/31 15:38:19.8	99.370	-0.520	0.090	1.530
2020/01/31 15:38:19.9	99.380	-0.500	0.010	1.570
2020/01/31 15:38:20.0	99.390	-0.490	-0.070	1.600
2020/01/31 15:38:20.1	99.410	-0.470	-0.150	1.630
2020/01/31 15:38:20.2	99.420	-0.450	-0.220	1.660
2020/01/31 15:38:20.3	99.430	-0.430	-0.300	1.690
2020/01/31 15:38:20.4	99.440	-0.420	-0.370	1.720
2020/01/31 15:38:20.5	99.450	-0.400	-0.440	1.740
2020/01/31 15:38:20.6	99.460	-0.380	-0.500	1.770
2020/01/31 15:38:20.7	99.470	-0.360	-0.570	1.790
2020/01/31 15:38:20.8	99.480	-0.340	-0.620	1.810
2020/01/31 15:38:20.9	99.490	-0.320	-0.680	1.820
2020/01/31 15:38:21.0	99.500	-0.310	-0.730	1.830
2020/01/31 15:38:21.1	99.510	-0.290	-0.770	1.840
2020/01/31 15:38:21.2	99.510	-0.270	-0.810	1.850
2020/01/31 15:38:21.3	99.520	-0.260	-0.840	1.850
2020/01/31 15:38:21.4	99.520	-0.240	-0.870	1.860
2020/01/31 15:38:21.5	99.530	-0.220	-0.890	1.850
2020/01/31 15:38:21.6	99.530	-0.210	-0.910	1.850
2020/01/31 15:38:21.7	99.530	-0.200	-0.920	1.850
2020/01/31 15:38:21.8	99.530	-0.180	-0.920	1.840
2020/01/31 15:38:21.9	99.530	-0.170	-0.920	1.830
2020/01/31 15:38:22.0	99.530	-0.150	-0.910	1.810
2020/01/31 15:38:22.1	99.530	-0.140	-0.900	1.800
2020/01/31 15:38:22.2	99.530	-0.130	-0.880	1.780
2020/01/31 15:38:22.3	99.530	-0.110	-0.860	1.760
2020/01/31 15:38:22.4	99.520	-0.100	-0.830	1.730
2020/01/31 15:38:22.5	99.520	-0.090	-0.800	1.710
2020/01/31 15:38:22.6	99.510	-0.080	-0.760	1.680
2020/01/31 15:38:22.7	99.510	-0.070	-0.720	1.650
2020/01/31 15:38:22.8	99.510	-0.050	-0.680	1.620
2020/01/31 15:38:22.9	99.500	-0.040	-0.630	1.580
2020/01/31 15:38:23.0	99.500	-0.030	-0.590	1.540
2020/01/31 15:38:23.1	99.490	-0.020	-0.540	1.500
2020/01/31 15:38:23.2	99.490	-0.010	-0.490	1.460
2020/01/31 15:38:23.3	99.490	0.000	-0.440	1.410
2020/01/31 15:38:23.4	99.480	0.020	-0.390	1.360
2020/01/31 15:38:23.5	99.480	0.030	-0.340	1.310
2020/01/31 15:38:23.6	99.480	0.040	-0.290	1.250
2020/01/31 15:38:23.7	99.470	0.050	-0.240	1.190
2020/01/31 15:38:23.8	99.470	0.060	-0.190	1.130
2020/01/31 15:38:23.9	99.470	0.070	-0.140	1.070
2020/01/31 15:38:24.0	99.470	0.080	-0.100	1.010
2020/01/31 15:38:24.1	99.460	0.090	-0.060	0.940
2020/01/31 15:38:24.2	99.460	0.100	-0.020	0.880
2020/01/31 15:38:24.3	99.460	0.110	0.020	0.810
2020/01/31 15:38:24.4	99.450	0.120	0.060	0.740
2020/01/31 15:38:24.5	99.450	0.130	0.090	0.670
2020/01/31 15:38:24.6	99.440	0.130	0.110	0.610
2020/01/31 15:38:24.7	99.440	0.140	0.140	0.540
2020/01/31 15:38:24.8	99.430	0.150	0.160	0.470
2020/01/31 15:38:24.9	99.420	0.160	0.180	0.410
2020/01/31 15:38:25.0	99.410	0.160	0.190	0.340
2020/01/31 15:38:25.1	99.400	0.170	0.200	0.270
2020/01/31 15:38:25.2	99.390	0.180	0.210	0.210
2020/01/31 15:38:25.3	99.370	0.180	0.220	0.150
2020/01/31 15:38:25.4	99.360	0.190	0.220	0.080
2020/01/31 15:38:25.5	99.340	0.190	0.220	0.020
2020/01/31 15:38:25.6	99.330	0.200	0.210	-0.040
2020/01/31 15:38:25.7	99.320	0.200	0.210	-0.100
2020/01/31 15:38:25.8	99.300	0.210	0.200	-0.160
2020/01/31 15:38:25.9	99.280	0.210	0.180	-0.220
2020/01/31 15:38:26.0	99.270	0.210	0.170	-0.280
2020/01/31 15:38:26.1	99.250	0.220	0.150	-0.340
2020/01/31 15:38:26.2	99.240	0.220	0.130	-0.400
2020/01/31 15:38:26.3	99.230	0.220	0.100	-0.450
2020/01/31 15:38:26.4	99.210	0.230	0.080	-0.510
2020/01/31 15:38:26.5	99.200	0.230	0.050	-0.560
2020/01/31 15:38:26.6	99.190	0.230	0.020	-0.620
2020/01/31 15:38:26.7	99.180	0.240	-0.010	-0.670
2020/01/31 15:38:26.8	99.180	0.240	-0.040	-0.730
2020/01/31 15:38:26.9	99.170	0.240	-0.070	-0.780
2020/01/31 15:38:27.0	99.170	0.250	-0.100	-0.830
2020/01/31 15:38:27.1	99.160	0.250	-0.140	-0.880
2020/01/31 15:38:27.2	99.160	0.250	-0.170	-0.930
2020/01/31 15:38:27.3	99.160	0.260	-0.210	-0.980
2020/01/31 15:38:27.4	99.170	0.260	-0.250	-1.020
2020/01/31 15:38:27.5	99.170	0.270	-0.280	-1.070
2020/01/31 15:38:27.6	99.170	0.270	-0.320	-1.110
2020/01/31 15:38:27.7	99.180	0.280	-0.350	-1.150
2020/01/31 15:38:27.8	99.190	0.280	-0.390	-1.180
2020/01/31 15:38:27.9	99.190	0.290	-0.420	-1.220
2020/01/31 15:38:28.0	99.200	0.300	-0.450	-1.250
2020/01/31 15:38:28.1	99.210	0.300	-0.480	-1.270
2020/01/31 15:38:28.2	99.220	0.310	-0.510	-1.290
2020/01/31 15:38:28.3	99.230	0.310	-0.540	-1.310
2020/01/31 15:38:28.4	99.240	0.320	-0.570	-1.330
2020/01/31 15:38:28.5	99.250	0.320	-0.590	-1.340
2020/01/31 15:38:28.6	99.270	0.330	-0.610	-1.340
2020/01/31 15:38:28.7	99.280	0.330	-0.630	-1.340
2020/01/31 15:38:28.8	99.290	0.340	-0.640	-1.330
2020/01/31 15:38:28.9	99.300	0.340	-0.660	-1.320
2020/01/31 15:38:29.0	99.310	0.340	-0.660	-1.310
2020/01/31 15:38:29.1	99.320	0.340	-0.670	-1.290
2020/01/31 15:38:29.2	99.330	0.340	-0.670	-1.260
2020/01/31 15:38:29.3	99.340	0.330	-0.660	-1.230
2020/01/31 15:38:29.4	99.340	0.330	-0.650	-1.200
2020/01/31 15:38:29.5	99.350	0.320	-0.640	-1.160
2020/01/31 15:38:29.6	99.360	0.310	-0.630	-1.120
2020/01/31 15:38:29.7	99.360	0.300	-0.600	-1.070
2020/01/31 15:38:29.8	99.370	0.290	-0.580	-1.020
2020/01/31 15:38:29.9	99.370	0.280	-0.550	-0.970
2020/01/31 15:38:30.0	99.380	0.260	-0.520	-0.910
2020/01/31 15:38:30.1	99.380	0.250	-0.480	-0.850
2020/01/31 15:38:30.2	99.380	0.230	-0.450	-0.790
2020/01/31 15:38:30.3	99.390	0.210	-0.410	-0.730
2020/01/31 15:38:30.4	99.390	0.180	-0.360	-0.660
2020/01/31 15:38:30.5	99.390	0.160	-0.320	-0.590
2020/01/31 15:38:30.6	99.390	0.130	-0.270	-0.520
2020/01/31 15:38:30.7	99.400	0.110	-0.220	-0.440
2020/01/31 15:38:30.8	99.400	0.080	-0.180	-0.370
2020/01/31 15:38:30.9	99.400	0.050	-0.130	-0.290
2020/01/31 15:38:31.0	99.400	0.020	-0.080	-0.210
2020/01/31 15:38:31.1	99.400	-0.010	-0.030	-0.130
2020/01/31 15:38:31.2	99.400	-0.040	0.020	-0.050
2020/01/31 15:38:31.3	99.400	-0.070	0.070	0.030
2020/01/31 15:38:31.4	99.400	-0.100	0.110	0.110
2020/01/31 15:38:31.5	99.400	-0.130	0.160	0.200
2020/01/31 15:38:31.6	99.400	-0.160	0.200	0.280
2020/01/31 15:38:31.7	99.400	-0.190	0.240	0.360
2020/01/31 15:38:31.8	99.400	-0.220	0.280	0.440
2020/01/31 15:38:31.9	99.400	-0.250	0.310	0.530
2020/01/31 15:38:32.0	99.400	-0.270	0.340	0.610
2020/01/31 15:38:32.1	99.410	-0.290	0.370	0.690
2020/01/31 15:38:32.2	99.410	-0.310	0.390	0.770
2020/01/31 15:38:32.3	99.410	-0.330	0.410	0.850
2020/01/31 15:38:32.4	99.420	-0.350	0.430	0.920
2020/01/31 15:38:32.5	99.420	-0.360	0.440	1.000
2020/01/31 15:38:32.6	99.420	-0.380	0.440	1.080
2020/01/31 15:38:32.7	99.430	-0.390	0.450	1.160
2020/01/31 15:38:32.8	99.430	-0.400	0.450	1.230
2020/01/31 15:38:32.9	99.440	-0.400	0.440	1.300
2020/01/31 15:38:33.0	99.440	-0.400	0.430	1.370
2020/01/31 15:38:33.1	99.440	-0.400	0.420	1.440
2020/01/31 15:38:33.2	99.440	-0.400	0.400	1.510
2020/01/31 15:38:33.3	99.440	-0.400	0.380	1.580
2020/01/31 15:38:33.4	99.440	-0.390	0.360	1.640
2020/01/31 15:38:33.5	99.440	-0.390	0.330	1.710
2020/01/31 15:38:33.6	99.440	-0.380	0.300	1.770
2020/01/31 15:38:33.7	99.440	-0.370	0.270	1.830
2020/01/31 15:38:33.8	99.430	-0.360	0.240	1.880
2020/01/31 15:38:33.9	99.430	-0.340	0.200	1.940
2020/01/31 15:38:34.0	99.420	-0.330	0.160	1.990
2020/01/31 15:38:34.1	99.420	-0.310	0.120	2.050
2020/01/31 15:38:34.2	99.410	-0.300	0.070	2.090
2020/01/31 15:38:34.3	99.410	-0.280	0.030	2.140
2020/01/31 15:38:34.4	99.400	-0.260	-0.010	2.190
2020/01/31 15:38:34.5	99.390	-0.240	-0.060	2.230
2020/01/31 15:38:34.6	99.380	-0.220	-0.100	2.270
2020/01/31 15:38:34.7	99.370	-0.210	-0.150	2.310
2020/01/31 15:38:34.8	99.360	-0.190	-0.190	2.340
2020/01/31 15:38:34.9	99.350	-0.170	-0.240	2.370
2020/01/31 15:38:35.0	99.340	-0.150	-0.280	2.400
2020/01/31 15:38:35.1	99.330	-0.130	-0.320	2.430
2020/01/31 15:38:35.2	99.330	-0.110	-0.370	2.450
2020/01/31 15:38:35.3	99.320	-0.100	-0.410	2.470
2020/01/31 15:38:35.4	99.310	-0.080	-0.450	2.480
2020/01/31 15:38:35.5	99.300	-0.060	-0.480	2.500
2020/01/31 15:38:35.6	99.290	-0.050	-0.520	2.510
2020/01/31 15:38:35.7	99.280	-0.030	-0.550	2.510
2020/01/31 15:38:35.8	99.280	-0.010	-0.590	2.510
2020/01/31 15:38:35.9	99.270	0.000	-0.620	2.510
2020/01/31 15:38:36.0	99.260	0.020	-0.650	2.500
2020/01/31 15:38:36.1	99.250	0.030	-0.670	2.490
2020/01/31 15:38:36.2	99.250	0.050	-0.690	2.480
2020/01/31 15:38:36.3	99.240	0.060	-0.720	2.460
2020/01/31 15:38:36.4	99.230	0.070	-0.730	2.440
2020/01/31 15:38:36.5	99.220	0.090	-0.750	2.410
2020/01/31 15:38:36.6	99.220	0.100	-0.760	2.380
2020/01/31 15:38:36.7	99.210	0.110	-0.770	2.350
2020/01/31 15:38:36.8	99.200	0.120	-0.780	2.310
2020/01/31 15:38:36.9	99.190	0.130	-0.780	2.260
2020/01/31 15:38:37.0	99.180	0.140	-0.790	2.220
2020/01/31 15:38:37.1	99.170	0.150	-0.790	2.170
2020/01/31 15:38:37.2	99.160	0.160	-0.780	2.110
2020/01/31 15:38:37.3	99.160	0.170	-0.780	2.050
2020/01/31 15:38:37.4	99.140	0.180	-0.770	1.990
2020/01/31 15:38:37.5	99.130	0.190	-0.750	1.920
2020/01/31 15:38:37.6	99.120	0.190	-0.740	1.850
2020/01/31 15:38:37.7	99.120	0.200	-0.720	1.780
2020/01/31 15:38:37.8	99.110	0.200	-0.700	1.700
2020/01/31 15:38:37.9	99.090	0.210	-0.680	1.620
2020/01/31 15:38:38.0	99.080	0.210	-0.650	1.540
2020/01/31 15:38:38.1	99.070	0.210	-0.630	1.460
2020/01/31 15:38:38.2	99.060	0.210	-0.600	1.370
2020/01/31 15:38:38.3	99.050	0.210	-0.560	1.280
2020/01/31 15:38:38.4	99.030	0.210	-0.530	1.190
2020/01/31 15:38:38.5	99.020	0.210	-0.490	1.100
2020/01/31 15:38:38.6	99.010	0.210	-0.450	1.010
2020/01/31 15:38:38.7	99.000	0.200	-0.410	0.910
2020/01/31 15:38:38.8	98.990	0.200	-0.370	0.820
2020/01/31 15:38:38.9	98.980	0.190	-0.320	0.730
2020/01/31 15:38:39.0	98.970	0.190	-0.270	0.640
2020/01/31 15:38:39.1	98.960	0.180	-0.230	0.550
2020/01/31 15:38:39.2	98.950	0.170	-0.180	0.460
2020/01/31 15:38:39.3	98.940	0.160	-0.130	0.370
2020/01/31 15:38:39.4	98.930	0.150	-0.070	0.280
2020/01/31 15:38:39.5	98.930	0.140	-0.020	0.190
2020/01/31 15:38:39.6	98.920	0.120	0.030	0.110
2020/01/31 15:38:39.7	98.910	0.110	0.080	0.030
2020/01/31 15:38:39.8	98.910	0.100	0.130	-0.050
2020/01/31 15:38:39.9	98.900	0.080	0.180	-0.130
2020/01/31 15:38:40.0	98.900	0.070	0.220	-0.210
2020/01/31 15:38:40.1	98.890	0.050	0.270	-0.280
2020/01/31 15:38:40.2	98.890	0.040	0.300	-0.350
2020/01/31 15:38:40.3	98.880	0.020	0.340	-0.420
2020/01/31 15:38:40.4	98.880	0.010	0.370	-0.490
2020/01/31 15:38:40.5	98.870	-0.000	0.400	-0.560
2020/01/31 15:38:40.6	98.870	-0.020	0.420	-0.630
2020/01/31 15:38:40.7	98.870	-0.030	0.440	-0.690
2020/01/31 15:38:40.8	98.860	-0.040	0.450	-0.760
2020/01/31 15:38:40.9	98.860	-0.050	0.460	-0.820
2020/01/31 15:38:41.0	98.850	-0.070	0.460	-0.880
2020/01/31 15:38:41.1	98.850	-0.080	0.460	-0.940
2020/01/31 15:38:41.2	98.840	-0.080	0.450	-0.990
2020/01/31 15:38:41.3	98.840	-0.090	0.440	-1.050
2020/01/31 15:38:41.4	98.840	-0.100	0.420	-1.100
2020/01/31 15:38:41.5	98.830	-0.100	0.400	-1.150
2020/01/31 15:38:41.6	98.830	-0.110	0.380	-1.200
2020/01/31 15:38:41.7	98.820	-0.110	0.350	-1.250
2020/01/31 15:38:41.8	98.820	-0.110	0.310	-1.290
2020/01/31 15:38:41.9	98.820	-0.110	0.280	-1.340
2020/01/31 15:38:42.0	98.810	-0.110	0.240	-1.380
2020/01/31 15:38:42.1	98.810	-0.110	0.190	-1.420
2020/01/31 15:38:42.2	98.810	-0.100	0.150	-1.460
2020/01/31 15:38:42.3	98.810	-0.100	0.100	-1.490
2020/01/31 15:38:42.4	98.810	-0.090	0.050	-1.520
2020/01/31 15:38:42.5	98.810	-0.080	0.000	-1.550
2020/01/31 15:38:42.6	98.810	-0.070	-0.050	-1.580
2020/01/31 15:38:42.7	98.810	-0.060	-0.100	-1.600
2020/01/31 15:38:42.8	98.810	-0.050	-0.150	-1.610
2020/01/31 15:38:42.9	98.820	-0.030	-0.200	-1.630
2020/01/31 15:38:43.0	98.820	-0.020	-0.250	-1.640
2020/01/31 15:38:43.1	98.830	-0.010	-0.290	-1.640
2020/01/31 15:38:43.2	98.840	0.010	-0.340	-1.640
2020/01/31 15:38:43.3	98.850	0.030	-0.380	-1.640
2020/01/31 15:38:43.4	98.850	0.040	-0.420	-1.620
2020/01/31 15:38:43.5	98.870	0.060	-0.460	-1.610
2020/01/31 15:38:43.6	98.880	0.070	-0.500	-1.590
2020/01/31 15:38:43.7	98.880	0.090	-0.520	-1.550
2020/01/31 15:38:43.8	98.900	0.110	-0.550	-1.520
2020/01/31 15:38:43.9	98.910	0.120	-0.580	-1.480
2020/01/31 15:38:44.0	98.920	0.130	-0.600	-1.430
2020/01/31 15:38:44.1	98.930	0.150	-0.620	-1.380
2020/01/31 15:38:44.2	98.950	0.160	-0.630	-1.320
2020/01/31 15:38:44.3	98.960	0.170	-0.640	-1.250
2020/01/31 15:38:44.4	98.970	0.180	-0.640	-1.180
2020/01/31 15:38:44.5	98.980	0.180	-0.640	-1.100
2020/01/31 15:38:44.6	98.990	0.190	-0.640	-1.020
2020/01/31 15:38:44.7	99.000	0.190	-0.630	-0.920
2020/01/31 15:38:44.8	99.000	0.190	-0.610	-0.820
2020/01/31 15:38:44.9	99.000	0.190	-0.590	-0.720
2020/01/31 15:38:45.0	99.000	0.190	-0.570	-0.610
2020/01/31 15:38:45.1	99.000	0.180	-0.540	-0.500
2020/01/31 15:38:45.2	99.000	0.170	-0.510	-0.380
2020/01/31 15:38:45.3	98.990	0.160	-0.480	-0.260
2020/01/31 15:38:45.4	98.980	0.150	-0.440	-0.140
2020/01/31 15:38:45.5	98.970	0.140	-0.400	-0.010
2020/01/31 15:38:45.6	98.960	0.120	-0.360	0.110
2020/01/31 15:38:45.7	98.940	0.100	-0.310	0.250
2020/01/31 15:38:45.8	98.920	0.080	-0.260	0.380
2020/01/31 15:38:45.9	98.900	0.050	-0.210	0.510
2020/01/31 15:38:46.0	98.880	0.030	-0.160	0.630
2020/01/31 15:38:46.1	98.860	0.000	-0.110	0.760
2020/01/31 15:38:46.2	98.840	-0.020	-0.060	0.880
2020/01/31 15:38:46.3	98.810	-0.050	-0.010	1.000
2020/01/31 15:38:46.4	98.780	-0.080	0.040	1.110
2020/01/31 15:38:46.5	98.760	-0.110	0.080	1.220
2020/01/31 15:38:46.6	98.730	-0.140	0.130	1.330
2020/01/31 15:38:46.7	98.700	-0.170	0.170	1.430
2020/01/31 15:38:46.8	98.670	-0.190	0.200	1.530
2020/01/31 15:38:46.9	98.640	-0.220	0.240	1.620
2020/01/31 15:38:47.0	98.610	-0.250	0.260	1.710
2020/01/31 15:38:47.1	98.580	-0.270	0.290	1.800
2020/01/31 15:38:47.2	98.550	-0.290	0.300	1.870
2020/01/31 15:38:47.3	98.520	-0.310	0.320	1.940
2020/01/31 15:38:47.4	98.490	-0.330	0.320	2.010
2020/01/31 15:38:47.5	98.460	-0.340	0.320	2.070
2020/01/31 15:38:47.6	98.430	-0.360	0.310	2.120
2020/01/31 15:38:47.7	98.400	-0.370	0.300	2.180
2020/01/31 15:38:47.8	98.370	-0.370	0.280	2.230
2020/01/31 15:38:47.9	98.340	-0.370	0.250	2.270
2020/01/31 15:38:48.0	98.310	-0.370	0.220	2.310
2020/01/31 15:38:48.1	98.280	-0.370	0.180	2.340
2020/01/31 15:38:48.2	98.260	-0.360	0.130	2.370
2020/01/31 15:38:48.3	98.230	-0.340	0.080	2.400
2020/01/31 15:38:48.4	98.210	-0.330	0.030	2.420
2020/01/31 15:38:48.5	98.180	-0.310	-0.030	2.450
2020/01/31 15:38:48.6	98.160	-0.290	-0.090	2.470
2020/01/31 15:38:48.7	98.140	-0.260	-0.160	2.480
2020/01/31 15:38:48.8	98.120	-0.230	-0.230	2.490
2020/01/31 15:38:48.9	98.100	-0.200	-0.290	2.500
2020/01/31 15:38:49.0	98.090	-0.170	-0.360	2.510
2020/01/31 15:38:49.1	98.080	-0.130	-0.430	2.520
2020/01/31 15:38:49.2	98.060	-0.090	-0.500	2.520
2020/01/31 15:38:49.3	98.060	-0.060	-0.560	2.520
2020/01/31 15:38:49.4	98.050	-0.020	-0.630	2.520
2020/01/31 15:38:49.5	98.040	0.020	-0.690	2.510
2020/01/31 15:38:49.6	98.040	0.060	-0.740	2.500
2020/01/31 15:38:49.7	98.040	0.100	-0.790	2.500
2020/01/31 15:38:49.8	98.050	0.140	-0.830	2.480
2020/01/31 15:38:49.9	98.050	0.170	-0.870	2.460
2020/01/31 15:38:50.0	98.060	0.210	-0.900	2.440
2020/01/31 15:38:50.1	98.070	0.240	-0.920	2.410
2020/01/31 15:38:50.2	98.080	0.270	-0.940	2.380
2020/01/31 15:38:50.3	98.090	0.300	-0.940	2.340
2020/01/31 15:38:50.4	98.100	0.320	-0.940	2.300
2020/01/31 15:38:50.5	98.120	0.340	-0.930	2.260
2020/01/31 15:38:50.6	98.140	0.360	-0.920	2.210
2020/01/31 15:38:50.7	98.160	0.370	-0.900	2.150
2020/01/31 15:38:50.8	98.180	0.380	-0.860	2.090
2020/01/31 15:38:50.9	98.200	0.390	-0.820	2.030
2020/01/31 15:38:51.0	98.220	0.390	-0.780	1.960
2020/01/31 15:38:51.1	98.240	0.390	-0.720	1.880
2020/01/31 15:38:51.2	98.270	0.380	-0.670	1.800
2020/01/31 15:38:51.3	98.290	0.370	-0.600	1.720
2020/01/31 15:38:51.4	98.320	0.360	-0.530	1.630
2020/01/31 15:38:51.5	98.340	0.340	-0.460	1.540
2020/01/31 15:38:51.6	98.360	0.320	-0.390	1.450
2020/01/31 15:38:51.7	98.390	0.300	-0.300	1.350
2020/01/31 15:38:51.8	98.420	0.270	-0.220	1.250
2020/01/31 15:38:51.9	98.440	0.250	-0.140	1.140
2020/01/31 15:38:52.0	98.470	0.220	-0.070	1.040
2020/01/31 15:38:52.1	98.490	0.190	0.010	0.930
2020/01/31 15:38:52.2	98.510	0.160	0.090	0.820
2020/01/31 15:38:52.3	98.530	0.120	0.160	0.710
2020/01/31 15:38:52.4	98.550	0.090	0.230	0.610
2020/01/31 15:38:52.5	98.570	0.060	0.290	0.500
2020/01/31 15:38:52.6	98.590	0.030	0.350	0.390
2020/01/31 15:38:52.7	98.610	-0.000	0.410	0.290
2020/01/31 15:38:52.8	98.630	-0.030	0.460	0.190
2020/01/31 15:38:52.9	98.640	-0.060	0.500	0.090
2020/01/31 15:38:53.0	98.650	-0.090	0.540	-0.000
2020/01/31 15:38:53.1	98.660	-0.110	0.570	-0.090
2020/01/31 15:38:53.2	98.660	-0.130	0.590	-0.180
2020/01/31 15:38:53.3	98.670	-0.150	0.610	-0.260
2020/01/31 15:38:53.4	98.670	-0.170	0.620	-0.340
2020/01/31 15:38:53.5	98.670	-0.180	0.620	-0.410
2020/01/31 15:38:53.6	98.660	-0.190	0.620	-0.470
2020/01/31 15:38:53.7	98.660	-0.200	0.610	-0.530
2020/01/31 15:38:53.8	98.650	-0.200	0.590	-0.580
2020/01/31 15:38:53.9	98.640	-0.200	0.560	-0.630
2020/01/31 15:38:54.0	98.620	-0.200	0.530	-0.680
2020/01/31 15:38:54.1	98.610	-0.200	0.490	-0.710
2020/01/31 15:38:54.2	98.590	-0.190	0.450	-0.750
2020/01/31 15:38:54.3	98.570	-0.180	0.410	-0.770
2020/01/31 15:38:54.4	98.550	-0.170	0.350	-0.800
2020/01/31 15:38:54.5	98.530	-0.150	0.300	-0.820
2020/01/31 15:38:54.6	98.510	-0.140	0.240	-0.840
2020/01/31 15:38:54.7	98.490	-0.120	0.180	-0.850
2020/01/31 15:38:54.8	98.460	-0.100	0.120	-0.860
2020/01/31 15:38:54.9	98.440	-0.080	0.060	-0.880
2020/01/31 15:38:55.0	98.420	-0.050	-0.010	-0.890
2020/01/31 15:38:55.1	98.400	-0.030	-0.070	-0.890
2020/01/31 15:38:55.2	98.380	-0.010	-0.130	-0.900
2020/01/31 15:38:55.3	98.360	0.020	-0.190	-0.910
2020/01/31 15:38:55.4	98.340	0.040	-0.250	-0.910
2020/01/31 15:38:55.5	98.320	0.070	-0.310	-0.910
2020/01/31 15:38:55.6	98.300	0.090	-0.360	-0.920
2020/01/31 15:38:55.7	98.280	0.110	-0.410	-0.920
2020/01/31 15:38:55.8	98.270	0.130	-0.460	-0.920
2020/01/31 15:38:55.9	98.250	0.150	-0.500	-0.920
2020/01/31 15:38:56.0	98.240	0.170	-0.540	-0.920
2020/01/31 15:38:56.1	98.230	0.180	-0.570	-0.910
2020/01/31 15:38:56.2	98.210	0.200	-0.600	-0.900
2020/01/31 15:38:56.3	98.200	0.210	-0.630	-0.900
2020/01/31 15:38:56.4	98.190	0.220	-0.650	-0.890
2020/01/31 15:38:56.5	98.180	0.230	-0.660	-0.870
2020/01/31 15:38:56.6	98.170	0.230	-0.670	-0.860
2020/01/31 15:38:56.7	98.160	0.230	-0.670	-0.830
2020/01/31 15:38:56.8	98.150	0.230	-0.670	-0.810
2020/01/31 15:38:56.9	98.140	0.230	-0.660	-0.790
2020/01/31 15:38:57.0	98.130	0.220	-0.650	-0.760
2020/01/31 15:38:57.1	98.130	0.210	-0.630	-0.730
2020/01/31 15:38:57.2	98.120	0.190	-0.610	-0.700
2020/01/31 15:38:57.3	98.120	0.180	-0.580	-0.660
2020/01/31 15:38:57.4	98.110	0.160	-0.560	-0.620
2020/01/31 15:38:57.5	98.110	0.140	-0.530	-0.580
2020/01/31 15:38:57.6	98.100	0.120	-0.490	-0.540
2020/01/31 15:38:57.7	98.100	0.090	-0.460	-0.490
2020/01/31 15:38:57.8	98.100	0.070	-0.420	-0.450
2020/01/31 15:38:57.9	98.100	0.040	-0.390	-0.400
2020/01/31 15:38:58.0	98.100	0.010	-0.360	-0.350
2020/01/31 15:38:58.1	98.090	-0.020	-0.320	-0.290
2020/01/31 15:38:58.2	98.100	-0.040	-0.290	-0.240
2020/01/31 15:38:58.3	98.100	-0.070	-0.260	-0.190
2020/01/31 15:38:58.4	98.100	-0.100	-0.230	-0.130
2020/01/31 15:38:58.5	98.100	-0.130	-0.210	-0.080
2020/01/31 15:38:58.6	98.110	-0.160	-0.190	-0.020
2020/01/31 15:38:58.7	98.110	-0.190	-0.170	0.040
2020/01/31 15:38:58.8	98.120	-0.210	-0.160	0.100
2020/01/31 15:38:58.9	98.120	-0.230	-0.140	0.150
2020/01/31 15:38:59.0	98.130	-0.260	-0.130	0.200
2020/01/31 15:38:59.1	98.140	-0.280	-0.130	0.260
2020/01/31 15:38:59.2	98.150	-0.290	-0.130	0.310
2020/01/31 15:38:59.3	98.160	-0.310	-0.130	0.360
2020/01/31 15:38:59.4	98.170	-0.320	-0.130	0.410
2020/01/31 15:38:59.5	98.180	-0.330	-0.140	0.460
2020/01/31 15:38:59.6	98.200	-0.330	-0.150	0.510
2020/01/31 15:38:59.7	98.210	-0.330	-0.160	0.560
2020/01/31 15:38:59.8	98.230	-0.330	-0.170	0.610
2020/01/31 15:38:59.9	98.250	-0.330	-0.180	0.650
2020/01/31 15:39:00.0	98.270	-0.330	-0.190	0.700
2020/01/31 15:39:00.1	98.290	-0.320	-0.210	0.740
2020/01/31 15:39:00.2	98.310	-0.300	-0.220	0.780
2020/01/31 15:39:00.3	98.340	-0.290	-0.240	0.830
2020/01/31 15:39:00.4	98.360	-0.270	-0.250	0.870
2020/01/31 15:39:00.5	98.380	-0.260	-0.260	0.920
2020/01/31 15:39:00.6	98.400	-0.240	-0.280	0.960
2020/01/31 15:39:00.7	98.430	-0.210	-0.280	1.010
2020/01/31 15:39:00.8	98.450	-0.190	-0.290	1.060
2020/01/31 15:39:00.9	98.470	-0.170	-0.300	1.100
2020/01/31 15:39:01.0	98.490	-0.140	-0.300	1.150
2020/01/31 15:39:01.1	98.500	-0.120	-0.300	1.200
2020/01/31 15:39:01.2	98.520	-0.090	-0.300	1.260
2020/01/31 15:39:01.3	98.530	-0.060	-0.300	1.310
2020/01/31 15:39:01.4	98.540	-0.040	-0.290	1.370
2020/01/31 15:39:01.5	98.550	-0.020	-0.280	1.420
2020/01/31 15:39:01.6	98.560	0.010	-0.270	1.480
2020/01/31 15:39:01.7	98.560	0.030	-0.250	1.550
2020/01/31 15:39:01.8	98.570	0.050	-0.230	1.610
2020/01/31 15:39:01.9	98.570	0.070	-0.210	1.670
2020/01/31 15:39:02.0	98.560	0.080	-0.190	1.730
2020/01/31 15:39:02.1	98.560	0.100	-0.160	1.800
2020/01/31 15:39:02.2	98.550	0.110	-0.130	1.860
2020/01/31 15:39:02.3	98.540	0.120	-0.100	1.930
2020/01/31 15:39:02.4	98.540	0.120	-0.070	1.990
2020/01/31 15:39:02.5	98.520	0.130	-0.040	2.050
2020/01/31 15:39:02.6	98.510	0.130	-0.010	2.120
2020/01/31 15:39:02.7	98.500	0.130	0.030	2.180
2020/01/31 15:39:02.8	98.490	0.120	0.060	2.240
2020/01/31 15:39:02.9	98.480	0.120	0.090	2.300
2020/01/31 15:39:03.0	98.460	0.110	0.120	2.350
2020/01/31 15:39:03.1	98.450	0.100	0.150	2.400
2020/01/31 15:39:03.2	98.430	0.080	0.180	2.450
2020/01/31 15:39:03.3	98.420	0.070	0.210	2.500
2020/01/31 15:39:03.4	98.400	0.050	0.240	2.540
2020/01/31 15:39:03.5	98.390	0.030	0.260	2.570
2020/01/31 15:39:03.6	98.380	0.010	0.280	2.600
2020/01/31 15:39:03.7	98.360	-0.010	0.300	2.630
2020/01/31 15:39:03.8	98.350	-0.030	0.310	2.650
2020/01/31 15:39:03.9	98.340	-0.050	0.320	2.660
2020/01/31 15:39:04.0	98.330	-0.070	0.330	2.670
2020/01/31 15:39:04.1	98.320	-0.100	0.340	2.670
2020/01/31 15:39:04.2	98.310	-0.120	0.340	2.660
2020/01/31 15:39:04.3	98.300	-0.140	0.340	2.650
2020/01/31 15:39:04.4	98.290	-0.160	0.330	2.630
2020/01/31 15:39:04.5	98.280	-0.180	0.320	2.600
2020/01/31 15:39:04.6	98.270	-0.190	0.310	2.570
2020/01/31 15:39:04.7	98.260	-0.210	0.300	2.520
2020/01/31 15:39:04.8	98.250	-0.220	0.280	2.480
2020/01/31 15:39:04.9	98.240	-0.230	0.260	2.420
2020/01/31 15:39:05.0	98.230	-0.240	0.230	2.360
2020/01/31 15:39:05.1	98.220	-0.250	0.210	2.300
2020/01/31 15:39:05.2	98.210	-0.250	0.180	2.230
2020/01/31 15:39:05.3	98.200	-0.260	0.140	2.160
2020/01/31 15:39:05.4	98.190	-0.250	0.110	2.080
2020/01/31 15:39:05.5	98.180	-0.250	0.070	2.000
2020/01/31 15:39:05.6	98.170	-0.250	0.030	1.920
2020/01/31 15:39:05.7	98.160	-0.240	-0.010	1.830
2020/01/31 15:39:05.8	98.150	-0.220	-0.060	1.750
2020/01/31 15:39:05.9	98.140	-0.210	-0.110	1.660
2020/01/31 15:39:06.0	98.130	-0.190	-0.160	1.570
2020/01/31 15:39:06.1	98.120	-0.170	-0.210	1.470
2020/01/31 15:39:06.2	98.100	-0.150	-0.260	1.380
2020/01/31 15:39:06.3	98.090	-0.130	-0.320	1.280
2020/01/31 15:39:06.4	98.080	-0.100	-0.370	1.190
2020/01/31 15:39:06.5	98.070	-0.070	-0.430	1.090
2020/01/31 15:39:06.6	98.060	-0.040	-0.480	1.000
2020/01/31 15:39:06.7	98.050	-0.010	-0.540	0.910
2020/01/31 15:39:06.8	98.030	0.020	-0.590	0.810
2020/01/31 15:39:06.9	98.020	0.060	-0.650	0.710
2020/01/31 15:39:07.0	98.010	0.090	-0.700	0.620
2020/01/31 15:39:07.1	98.000	0.120	-0.750	0.530
2020/01/31 15:39:07.2	97.990	0.160	-0.800	0.430
2020/01/31 15:39:07.3	97.980	0.190	-0.850	0.340
2020/01/31 15:39:07.4	97.970	0.220	-0.890	0.250
2020/01/31 15:39:07.5	97.970	0.250	-0.930	0.160
2020/01/31 15:39:07.6	97.960	0.280	-0.960	0.070
2020/01/31 15:39:07.7	97.950	0.310	-0.990	-0.020
2020/01/31 15:39:07.8	97.950	0.340	-1.020	-0.110
2020/01/31 15:39:07.9	97.950	0.360	-1.040	-0.190
2020/01/31 15:39:08.0	97.950	0.380	-1.060	-0.270
2020/01/31 15:39:08.1	97.960	0.400	-1.070	-0.350
2020/01/31 15:39:08.2	97.960	0.420	-1.080	-0.430
2020/01/31 15:39:08.3	97.970	0.430	-1.080	-0.510
2020/01/31 15:39:08.4	97.980	0.440	-1.080	-0.580
2020/01/31 15:39:08.5	97.990	0.440	-1.070	-0.650
2020/01/31 15:39:08.6	98.000	0.450	-1.050	-0.710
2020/01/31 15:39:08.7	98.020	0.450	-1.030	-0.770
2020/01/31 15:39:08.8	98.030	0.440	-1.010	-0.830
2020/01/31 15:39:08.9	98.050	0.440	-0.980	-0.890
2020/01/31 15:39:09.0	98.070	0.430	-0.940	-0.940
2020/01/31 15:39:09.1	98.090	0.410	-0.900	-0.990
2020/01/31 15:39:09.2	98.120	0.400	-0.850	-1.040
2020/01/31 15:39:09.3	98.140	0.380	-0.800	-1.080
2020/01/31 15:39:09.4	98.170	0.360	-0.750	-1.120
2020/01/31 15:39:09.5	98.190	0.330	-0.690	-1.150
2020/01/31 15:39:09.6	98.220	0.310	-0.630	-1.180
2020/01/31 15:39:09.7	98.240	0.280	-0.560	-1.200
2020/01/31 15:39:09.8	98.270	0.250	-0.480	-1.220
2020/01/31 15:39:09.9	98.300	0.220	-0.410	-1.240
2020/01/31 15:39:10.0	98.320	0.180	-0.330	-1.250
2020/01/31 15:39:10.1	98.350	0.150	-0.250	-1.260
2020/01/31 15:39:10.2	98.370	0.110	-0.170	-1.260
2020/01/31 15:39:10.3	98.390	0.080	-0.090	-1.260
2020/01/31 15:39:10.4	98.420	0.040	-0.010	-1.250
2020/01/31 15:39:10.5	98.440	0.010	0.080	-1.240
2020/01/31 15:39:10.6	98.450	-0.030	0.160	-1.220
2020/01/31 15:39:10.7	98.470	-0.060	0.250	-1.190
2020/01/31 15:39:10.8	98.490	-0.100	0.330	-1.170
2020/01/31 15:39:10.9	98.500	-0.130	0.420	-1.140
2020/01/31 15:39:11.0	98.510	-0.170	0.500	-1.100
2020/01/31 15:39:11.1	98.520	-0.200	0.570	-1.060
2020/01/31 15:39:11.2	98.520	-0.230	0.650	-1.020
2020/01/31 15:39:11.3	98.520	-0.260	0.720	-0.970
2020/01/31 15:39:11.4	98.520	-0.280	0.790	-0.920
2020/01/31 15:39:11.5	98.520	-0.310	0.850	-0.860
2020/01/31 15:39:11.6	98.510	-0.330	0.900	-0.800
2020/01/31 15:39:11.7	98.510	-0.350	0.960	-0.740
2020/01/31 15:39:11.8	98.500	-0.370	1.000	-0.670
2020/01/31 15:39:11.9	98.480	-0.390	1.040	-0.600
2020/01/31 15:39:12.0	98.470	-0.400	1.080	-0.520
2020/01/31 15:39:12.1	98.450	-0.410	1.100	-0.450
2020/01/31 15:39:12.2	98.430	-0.420	1.120	-0.370
2020/01/31 15:39:12.3	98.410	-0.430	1.130	-0.290
2020/01/31 15:39:12.4	98.390	-0.430	1.130	-0.210
2020/01/31 15:39:12.5	98.360	-0.430	1.120	-0.120
2020/01/31 15:39:12.6	98.340	-0.430	1.110	-0.040
2020/01/31 15:39:12.7	98.320	-0.420	1.090	0.050
2020/01/31 15:39:12.8	98.290	-0.420	1.060	0.140
2020/01/31 15:39:12.9	98.260	-0.410	1.010	0.220
2020/01/31 15:39:13.0	98.240	-0.390	0.970	0.310
2020/01/31 15:39:13.1	98.210	-0.380	0.910	0.390
2020/01/31 15:39:13.2	98.180	-0.360	0.840	0.480
2020/01/31 15:39:13.3	98.160	-0.340	0.770	0.560
2020/01/31 15:39:13.4	98.130	-0.320	0.690	0.640
2020/01/31 15:39:13.5	98.110	-0.290	0.600	0.710
2020/01/31 15:39:13.6	98.090	-0.260	0.510	0.790
2020/01/31 15:39:13.7	98.080	-0.230	0.410	0.860
2020/01/31 15:39:13.8	98.060	-0.200	0.300	0.920
2020/01/31 15:39:13.9	98.040	-0.170	0.190	0.990
2020/01/31 15:39:14.0	98.030	-0.140	0.070	1.050
2020/01/31 15:39:14.1	98.020	-0.100	-0.050	1.100
2020/01/31 15:39:14.2	98.010	-0.070	-0.170	1.150
2020/01/31 15:39:14.3	98.010	-0.030	-0.290	1.200
2020/01/31 15:39:14.4	98.010	0.000	-0.420	1.250
2020/01/31 15:39:14.5	98.010	0.040	-0.540	1.290
2020/01/31 15:39:14.6	98.010	0.080	-0.670	1.320
2020/01/31 15:39:14.7	98.020	0.110	-0.790	1.360
2020/01/31 15:39:14.8	98.030	0.150	-0.910	1.380
2020/01/31 15:39:14.9	98.040	0.180	-1.020	1.410
2020/01/31 15:39:15.0	98.060	0.220	-1.130	1.430
2020/01/31 15:39:15.1	98.070	0.250	-1.230	1.450
2020/01/31 15:39:15.2	98.090	0.280	-1.330	1.460
2020/01/31 15:39:15.3	98.110	0.310	-1.410	1.470
2020/01/31 15:39:15.4	98.140	0.340	-1.490	1.480
2020/01/31 15:39:15.5	98.160	0.370	-1.560	1.480
2020/01/31 15:39:15.6	98.190	0.390	-1.620	1.480
2020/01/31 15:39:15.7	98.230	0.410	-1.670	1.480
2020/01/31 15:39:15.8	98.260	0.430	-1.700	1.480
2020/01/31 15:39:15.9	98.290	0.450	-1.730	1.470
2020/01/31 15:39:16.0	98.330	0.460	-1.740	1.460
2020/01/31 15:39:16.1	98.360	0.470	-1.750	1.450
2020/01/31 15:39:16.2	98.400	0.480	-1.740	1.440
2020/01/31 15:39:16.3	98.440	0.490	-1.710	1.430
2020/01/31 15:39:16.4	98.480	0.490	-1.680	1.420
2020/01/31 15:39:16.5	98.520	0.490	-1.640	1.410
2020/01/31 15:39:16.6	98.560	0.480	-1.580	1.390
2020/01/31 15:39:16.7	98.610	0.480	-1.520	1.390
2020/01/31 15:39:16.8	98.650	0.470	-1.440	1.380
2020/01/31 15:39:16.9	98.690	0.460	-1.360	1.360
2020/01/31 15:39:17.0	98.740	0.440	-1.270	1.350
2020/01/31 15:39:17.1	98.780	0.430	-1.170	1.340
2020/01/31 15:39:17.2	98.820	0.410	-1.070	1.330
2020/01/31 15:39:17.3	98.860	0.390	-0.960	1.320
2020/01/31 15:39:17.4	98.910	0.370	-0.840	1.310
2020/01/31 15:39:17.5	98.950	0.340	-0.720	1.310
2020/01/31 15:39:17.6	98.980	0.310	-0.600	1.300
2020/01/31 15:39:17.7	99.020	0.280	-0.480	1.300
2020/01/31 15:39:17.8	99.060	0.250	-0.350	1.300
2020/01/31 15:39:17.9	99.090	0.220	-0.230	1.300
2020/01/31 15:39:18.0	99.120	0.190	-0.100	1.310
2020/01/31 15:39:18.1	99.150	0.150	0.020	1.320
2020/01/31 15:39:18.2	99.170	0.110	0.130	1.320
2020/01/31 15:39:18.3	99.200	0.080	0.250	1.340
2020/01/31 15:39:18.4	99.220	0.040	0.360	1.350
2020/01/31 15:39:18.5	99.230	0.000	0.460	1.360
2020/01/31 15:39:18.6	99.250	-0.040	0.560	1.380
2020/01/31 15:39:18.7	99.260	-0.080	0.660	1.400
2020/01/31 15:39:18.8	99.270	-0.120	0.750	1.410
2020/01/31 15:39:18.9	99.280	-0.160	0.830	1.430
2020/01/31 15:39:19.0	99.280	-0.200	0.900	1.450
2020/01/31 15:39:19.1	99.290	-0.240	0.960	1.460
2020/01/31 15:39:19.2	99.290	-0.280	1.020	1.470
2020/01/31 15:39:19.3	99.290	-0.310	1.070	1.480
2020/01/31 15:39:19.4	99.290	-0.350	1.110	1.490
2020/01/31 15:39:19.5	99.280	-0.390	1.140	1.490
2020/01/31 15:39:19.6	99.280	-0.420	1.170	1.490
2020/01/31 15:39:19.7	99.280	-0.450	1.180	1.490
2020/01/31 15:39:19.8	99.270	-0.490	1.190	1.480
2020/01/31 15:39:19.9	99.270	-0.520	1.190	1.470
2020/01/31 15:39:20.0	99.270	-0.540	1.170	1.450
2020/01/31 15:39:20.1	99.260	-0.570	1.150	1.430
2020/01/31 15:39:20.2	99.260	-0.590	1.130	1.400
2020/01/31 15:39:20.3	99.250	-0.610	1.090	1.370
2020/01/31 15:39:20.4	99.250	-0.620	1.050	1.340
2020/01/31 15:39:20.5	99.250	-0.640	1.000	1.300
2020/01/31 15:39:20.6	99.240	-0.640	0.940	1.250
2020/01/31 15:39:20.7	99.250	-0.650	0.880	1.210
2020/01/31 15:39:20.8	99.250	-0.650	0.810	1.160
2020/01/31 15:39:20.9	99.240	-0.650	0.730	1.110
2020/01/31 15:39:21.0	99.240	-0.640	0.650	1.050
2020/01/31 15:39:21.1	99.240	-0.630	0.560	0.990
2020/01/31 15:39:21.2	99.230	-0.620	0.470	0.930
2020/01/31 15:39:21.3	99.230	-0.600	0.370	0.870
2020/01/31 15:39:21.4	99.220	-0.580	0.270	0.810
2020/01/31 15:39:21.5	99.220	-0.560	0.170	0.750
2020/01/31 15:39:21.6	99.210	-0.530	0.070	0.680
2020/01/31 15:39:21.7	99.210	-0.500	-0.040	0.620
2020/01/31 15:39:21.8	99.200	-0.460	-0.140	0.560
2020/01/31 15:39:21.9	99.190	-0.430	-0.250	0.500
2020/01/31 15:39:22.0	99.180	-0.390	-0.350	0.440
2020/01/31 15:39:22.1	99.170	-0.340	-0.460	0.380
2020/01/31 15:39:22.2	99.150	-0.300	-0.560	0.320
2020/01/31 15:39:22.3	99.140	-0.250	-0.660	0.270
2020/01/31 15:39:22.4	99.130	-0.200	-0.750	0.210
2020/01/31 15:39:22.5	99.110	-0.150	-0.840	0.160
2020/01/31 15:39:22.6	99.100	-0.100	-0.930	0.110
2020/01/31 15:39:22.7	99.090	-0.050	-1.020	0.060
2020/01/31 15:39:22.8	99.080	-0.000	-1.100	0.010
2020/01/31 15:39:22.9	99.060	0.050	-1.170	-0.030
2020/01/31 15:39:23.0	99.050	0.100	-1.230	-0.080
2020/01/31 15:39:23.1	99.050	0.150	-1.290	-0.130
2020/01/31 15:39:23.2	99.040	0.190	-1.340	-0.170
2020/01/31 15:39:23.3	99.030	0.240	-1.380	-0.220
2020/01/31 15:39:23.4	99.030	0.280	-1.410	-0.260
2020/01/31 15:39:23.5	99.030	0.320	-1.440	-0.300
2020/01/31 15:39:23.6	99.030	0.360	-1.460	-0.340
2020/01/31 15:39:23.7	99.030	0.400	-1.460	-0.380
2020/01/31 15:39:23.8	99.030	0.430	-1.470	-0.420
2020/01/31 15:39:23.9	99.040	0.460	-1.460	-0.460
2020/01/31 15:39:24.0	99.040	0.490	-1.450	-0.500
2020/01/31 15:39:24.1	99.050	0.510	-1.430	-0.540
2020/01/31 15:39:24.2	99.060	0.530	-1.400	-0.570
2020/01/31 15:39:24.3	99.070	0.540	-1.370	-0.610
2020/01/31 15:39:24.4	99.080	0.550	-1.330	-0.640
2020/01/31 15:39:24.5	99.090	0.560	-1.280	-0.670
2020/01/31 15:39:24.6	99.100	0.560	-1.230	-0.710
2020/01/31 15:39:24.7	99.110	0.560	-1.170	-0.730
2020/01/31 15:39:24.8	99.120	0.560	-1.100	-0.760
2020/01/31 15:39:24.9	99.130	0.550	-1.030	-0.780
2020/01/31 15:39:25.0	99.140	0.540	-0.960	-0.810
2020/01/31 15:39:25.1	99.160	0.520	-0.880	-0.830
2020/01/31 15:39:25.2	99.170	0.500	-0.800	-0.850
2020/01/31 15:39:25.3	99.180	0.480	-0.710	-0.870
2020/01/31 15:39:25.4	99.200	0.460	-0.620	-0.890
2020/01/31 15:39:25.5	99.210	0.440	-0.530	-0.900
2020/01/31 15:39:25.6	99.220	0.410	-0.440	-0.910
2020/01/31 15:39:25.7	99.230	0.380	-0.350	-0.920
2020/01/31 15:39:25.8	99.250	0.350	-0.250	-0.930
2020/01/31 15:39:25.9	99.260	0.320	-0.160	-0.930
2020/01/31 15:39:26.0	99.280	0.280	-0.070	-0.940
2020/01/31 15:39:26.1	99.300	0.250	0.030	-0.940
2020/01/31 15:39:26.2	99.320	0.220	0.120	-0.940
2020/01/31 15:39:26.3	99.330	0.180	0.210	-0.940
2020/01/31 15:39:26.4	99.360	0.150	0.290	-0.940
2020/01/31 15:39:26.5	99.380	0.110	0.370	-0.930
2020/01/31 15:39:26.6	99.400	0.080	0.450	-0.920
2020/01/31 15:39:26.7	99.420	0.050	0.530	-0.910
2020/01/31 15:39:26.8	99.440	0.020	0.600	-0.890
2020/01/31 15:39:26.9	99.470	-0.010	0.660	-0.870
2020/01/31 15:39:27.0	99.490	-0.030	0.720	-0.850
2020/01/31 15:39:27.1	99.520	-0.060	0.770	-0.830
2020/01/31 15:39:27.2	99.540	-0.080	0.820	-0.800
2020/01/31 15:39:27.3	99.560	-0.100	0.860	-0.770
2020/01/31 15:39:27.4	99.590	-0.120	0.890	-0.730
2020/01/31 15:39:27.5	99.610	-0.140	0.920	-0.690
2020/01/31 15:39:27.6	99.630	-0.160	0.940	-0.650
2020/01/31 15:39:27.7	99.660	-0.170	0.960	-0.600
2020/01/31 15:39:27.8	99.680	-0.180	0.970	-0.550
2020/01/31 15:39:27.9	99.700	-0.190	0.970	-0.500
2020/01/31 15:39:28.0	99.720	-0.190	0.960	-0.450
2020/01/31 15:39:28.1	99.740	-0.200	0.950	-0.390
2020/01/31 15:39:28.2	99.760	-0.200	0.930	-0.320
2020/01/31 15:39:28.3	99.770	-0.200	0.910	-0.260
2020/01/31 15:39:28.4	99.790	-0.200	0.880	-0.190
2020/01/31 15:39:28.5	99.800	-0.200	0.850	-0.120
2020/01/31 15:39:28.6	99.820	-0.200	0.810	-0.050
2020/01/31 15:39:28.7	99.830	-0.190	0.760	0.030
2020/01/31 15:39:28.8	99.840	-0.190	0.720	0.110
2020/01/31 15:39:28.9	99.850	-0.180	0.670	0.190
2020/01/31 15:39:29.0	99.850	-0.170	0.610	0.270
2020/01/31 15:39:29.1	99.860	-0.160	0.550	0.350
2020/01/31 15:39:29.2	99.870	-0.150	0.490	0.430
2020/01/31 15:39:29.3	99.870	-0.140	0.430	0.520
2020/01/31 15:39:29.4	99.870	-0.130	0.370	0.610
2020/01/31 15:39:29.5	99.870	-0.120	0.300	0.690
2020/01/31 15:39:29.6	99.870	-0.110	0.230	0.780
2020/01/31 15:39:29.7	99.870	-0.100	0.160	0.880
2020/01/31 15:39:29.8	99.860	-0.090	0.090	0.970
2020/01/31 15:39:29.9	99.860	-0.080	0.030	1.060
2020/01/31 15:39:30.0	99.850	-0.070	-0.040	1.140
2020/01/31 15:39:30.1	99.840	-0.050	-0.110	1.230
2020/01/31 15:39:30.2	99.830	-0.040	-0.180	1.320
2020/01/31 15:39:30.3	99.820	-0.030	-0.240	1.410
2020/01/31 15:39:30.4	99.810	-0.020	-0.310	1.490
2020/01/31 15:39:30.5	99.800	-0.010	-0.370	1.580
2020/01/31 15:39:30.6	99.780	0.000	-0.430	1.660
2020/01/31 15:39:30.7	99.770	0.010	-0.490	1.740
2020/01/31 15:39:30.8	99.750	0.030	-0.550	1.820
2020/01/31 15:39:30.9	99.740	0.040	-0.600	1.900
2020/01/31 15:39:31.0	99.720	0.050	-0.660	1.980
2020/01/31 15:39:31.1	99.700	0.060	-0.710	2.050
2020/01/31 15:39:31.2	99.680	0.070	-0.750	2.130
2020/01/31 15:39:31.3	99.660	0.080	-0.800	2.200
2020/01/31 15:39:31.4	99.630	0.090	-0.840	2.260
2020/01/31 15:39:31.5	99.610	0.100	-0.880	2.330
2020/01/31 15:39:31.6	99.590	0.100	-0.910	2.390
2020/01/31 15:39:31.7	99.560	0.110	-0.940	2.450
2020/01/31 15:39:31.8	99.530	0.120	-0.970	2.500
2020/01/31 15:39:31.9	99.510	0.130	-1.000	2.560
2020/01/31 15:39:32.0	99.480	0.140	-1.020	2.600
2020/01/31 15:39:32.1	99.460	0.150	-1.040	2.650
2020/01/31 15:39:32.2	99.430	0.160	-1.060	2.690
2020/01/31 15:39:32.3	99.400	0.160	-1.070	2.730
2020/01/31 15:39:32.4	99.380	0.170	-1.080	2.760
2020/01/31 15:39:32.5	99.350	0.170	-1.080	2.790
2020/01/31 15:39:32.6	99.330	0.180	-1.080	2.810
2020/01/31 15:39:32.7	99.300	0.190	-1.070	2.830
2020/01/31 15:39:32.8	99.280	0.190	-1.070	2.850
2020/01/31 15:39:32.9	99.260	0.190	-1.050	2.860
2020/01/31 15:39:33.0	99.240	0.200	-1.040	2.860
2020/01/31 15:39:33.1	99.220	0.200	-1.020	2.860
2020/01/31 15:39:33.2	99.210	0.200	-0.990	2.860
2020/01/31 15:39:33.3	99.190	0.200	-0.970	2.850
2020/01/31 15:39:33.4	99.180	0.190	-0.940	2.840
2020/01/31 15:39:33.5	99.170	0.190	-0.900	2.820
2020/01/31 15:39:33.6	99.160	0.190	-0.860	2.800
2020/01/31 15:39:33.7	99.150	0.180	-0.820	2.760
2020/01/31 15:39:33.8	99.150	0.170	-0.770	2.730
2020/01/31 15:39:33.9	99.140	0.160	-0.720	2.690
2020/01/31 15:39:34.0	99.140	0.150	-0.670	2.640
2020/01/31 15:39:34.1	99.140	0.140	-0.620	2.590
2020/01/31 15:39:34.2	99.140	0.130	-0.560	2.540
2020/01/31 15:39:34.3	99.140	0.120	-0.500	2.470
2020/01/31 15:39:34.4	99.140	0.100	-0.440	2.410
2020/01/31 15:39:34.5	99.150	0.080	-0.370	2.330
2020/01/31 15:39:34.6	99.150	0.070	-0.310	2.260
2020/01/31 15:39:34.7	99.160	0.050	-0.240	2.180
2020/01/31 15:39:34.8	99.170	0.030	-0.180	2.090
2020/01/31 15:39:34.9	99.180	0.010	-0.110	2.000
2020/01/31 15:39:35.0	99.190	-0.010	-0.050	1.900
2020/01/31 15:39:35.1	99.200	-0.030	0.020	1.800
2020/01/31 15:39:35.2	99.210	-0.050	0.080	1.700
2020/01/31 15:39:35.3	99.220	-0.070	0.140	1.590
2020/01/31 15:39:35.4	99.230	-0.090	0.200	1.480
2020/01/31 15:39:35.5	99.240	-0.120	0.250	1.370
2020/01/31 15:39:35.6	99.240	-0.140	0.300	1.260
2020/01/31 15:39:35.7	99.250	-0.150	0.350	1.140
2020/01/31 15:39:35.8	99.260	-0.170	0.400	1.030
2020/01/31 15:39:35.9	99.270	-0.190	0.440	0.910
2020/01/31 15:39:36.0	99.270	-0.210	0.480	0.790
2020/01/31 15:39:36.1	99.280	-0.220	0.510	0.670
2020/01/31 15:39:36.2	99.280	-0.240	0.540	0.560
2020/01/31 15:39:36.3	99.290	-0.250	0.560	0.440
2020/01/31 15:39:36.4	99.290	-0.260	0.570	0.320
2020/01/31 15:39:36.5	99.290	-0.270	0.590	0.210
2020/01/31 15:39:36.6	99.300	-0.280	0.590	0.090
2020/01/31 15:39:36.7	99.300	-0.290	0.590	-0.020
2020/01/31 15:39:36.8	99.300	-0.290	0.590	-0.120
2020/01/31 15:39:36.9	99.310	-0.290	0.580	-0.230
2020/01/31 15:39:37.0	99.310	-0.290	0.570	-0.330
2020/01/31 15:39:37.1	99.310	-0.290	0.550	-0.430
2020/01/31 15:39:37.2	99.300	-0.290	0.520	-0.530
2020/01/31 15:39:37.3	99.300	-0.290	0.490	-0.620
2020/01/31 15:39:37.4	99.300	-0.280	0.460	-0.710
2020/01/31 15:39:37.5	99.300	-0.280	0.420	-0.790
2020/01/31 15:39:37.6	99.300	-0.270	0.380	-0.870
2020/01/31 15:39:37.7	99.300	-0.260	0.340	-0.950
2020/01/31 15:39:37.8	99.300	-0.250	0.300	-1.020
2020/01/31 15:39:37.9	99.300	-0.240	0.250	-1.090
2020/01/31 15:39:38.0	99.300	-0.220	0.200	-1.160
2020/01/31 15:39:38.1	99.310	-0.210	0.140	-1.220
2020/01/31 15:39:38.2	99.310	-0.190	0.090	-1.270
2020/01/31 15:39:38.3	99.310	-0.180	0.040	-1.320
2020/01/31 15:39:38.4	99.310	-0.160	-0.020	-1.370
2020/01/31 15:39:38.5	99.310	-0.140	-0.070	-1.410
2020/01/31 15:39:38.6	99.310	-0.120	-0.120	-1.450
2020/01/31 15:39:38.7	99.320	-0.100	-0.170	-1.480
2020/01/31 15:39:38.8	99.320	-0.090	-0.220	-1.510
2020/01/31 15:39:38.9	99.320	-0.070	-0.260	-1.530
2020/01/31 15:39:39.0	99.310	-0.050	-0.310	-1.550
2020/01/31 15:39:39.1	99.310	-0.030	-0.350	-1.570
2020/01/31 15:39:39.2	99.310	-0.010	-0.380	-1.580
2020/01/31 15:39:39.3	99.310	0.010	-0.420	-1.590
2020/01/31 15:39:39.4	99.300	0.030	-0.450	-1.590
2020/01/31 15:39:39.5	99.300	0.040	-0.470	-1.590
2020/01/31 15:39:39.6	99.290	0.060	-0.500	-1.580
2020/01/31 15:39:39.7	99.280	0.080	-0.510	-1.560
2020/01/31 15:39:39.8	99.270	0.090	-0.520	-1.550
2020/01/31 15:39:39.9	99.260	0.110	-0.540	-1.530
2020/01/31 15:39:40.0	99.240	0.120	-0.540	-1.500
2020/01/31 15:39:40.1	99.230	0.130	-0.550	-1.470
2020/01/31 15:39:40.2	99.210	0.140	-0.550	-1.430
2020/01/31 15:39:40.3	99.190	0.150	-0.540	-1.400
2020/01/31 15:39:40.4	99.170	0.150	-0.540	-1.350
2020/01/31 15:39:40.5	99.150	0.160	-0.530	-1.310
2020/01/31 15:39:40.6	99.130	0.160	-0.510	-1.260
2020/01/31 15:39:40.7	99.100	0.170	-0.490	-1.200
2020/01/31 15:39:40.8	99.080	0.170	-0.480	-1.150
2020/01/31 15:39:40.9	99.050	0.160	-0.460	-1.090
2020/01/31 15:39:41.0	99.020	0.160	-0.440	-1.030
2020/01/31 15:39:41.1	99.000	0.160	-0.410	-0.970
2020/01/31 15:39:41.2	98.970	0.150	-0.390	-0.910
2020/01/31 15:39:41.3	98.940	0.150	-0.360	-0.840
2020/01/31 15:39:41.4	98.920	0.140	-0.340	-0.780
2020/01/31 15:39:41.5	98.890	0.130	-0.310	-0.710
2020/01/31 15:39:41.6	98.870	0.120	-0.290	-0.640
2020/01/31 15:39:41.7	98.850	0.110	-0.260	-0.580
2020/01/31 15:39:41.8	98.820	0.100	-0.240	-0.510
2020/01/31 15:39:41.9	98.800	0.090	-0.220	-0.440
2020/01/31 15:39:42.0	98.780	0.080	-0.200	-0.370
2020/01/31 15:39:42.1	98.770	0.070	-0.180	-0.300
2020/01/31 15:39:42.2	98.750	0.060	-0.160	-0.230
2020/01/31 15:39:42.3	98.740	0.050	-0.150	-0.160
2020/01/31 15:39:42.4	98.720	0.040	-0.140	-0.090
2020/01/31 15:39:42.5	98.720	0.030	-0.130	-0.020
2020/01/31 15:39:42.6	98.710	0.020	-0.120	0.050
2020/01/31 15:39:42.7	98.710	0.020	-0.120	0.130
2020/01/31 15:39:42.8	98.710	0.010	-0.120	0.210
2020/01/31 15:39:42.9	98.710	0.010	-0.120	0.280
2020/01/31 15:39:43.0	98.710	0.010	-0.120	0.350
2020/01/31 15:39:43.1	98.710	0.010	-0.130	0.430
2020/01/31 15:39:43.2	98.710	0.010	-0.140	0.500
2020/01/31 15:39:43.3	98.720	0.010	-0.150	0.570
2020/01/31 15:39:43.4	98.730	0.010	-0.170	0.640
2020/01/31 15:39:43.5	98.740	0.020	-0.190	0.720
2020/01/31 15:39:43.6	98.750	0.030	-0.210	0.790
2020/01/31 15:39:43.7	98.770	0.030	-0.230	0.860
2020/01/31 15:39:43.8	98.780	0.040	-0.250	0.930
2020/01/31 15:39:43.9	98.800	0.060	-0.280	1.000
2020/01/31 15:39:44.0	98.810	0.070	-0.300	1.070
2020/01/31 15:39:44.1	98.830	0.080	-0.330	1.130
2020/01/31 15:39:44.2	98.850	0.090	-0.350	1.200
2020/01/31 15:39:44.3	98.870	0.110	-0.380	1.260
2020/01/31 15:39:44.4	98.880	0.120	-0.410	1.320
2020/01/31 15:39:44.5	98.910	0.130	-0.430	1.380
2020/01/31 15:39:44.6	98.920	0.150	-0.450	1.440
2020/01/31 15:39:44.7	98.940	0.160	-0.470	1.490
2020/01/31 15:39:44.8	98.960	0.170	-0.490	1.550
2020/01/31 15:39:44.9	98.980	0.180	-0.510	1.600
2020/01/31 15:39:45.0	99.000	0.190	-0.520	1.650
2020/01/31 15:39:45.1	99.010	0.200	-0.520	1.700
2020/01/31 15:39:45.2	99.020	0.200	-0.530	1.750
2020/01/31 15:39:45.3	99.030	0.210	-0.520	1.800
2020/01/31 15:39:45.4	99.040	0.210	-0.520	1.840
2020/01/31 15:39:45.5	99.050	0.210	-0.500	1.880
2020/01/31 15:39:45.6	99.050	0.200	-0.490	1.930
2020/01/31 15:39:45.7	99.050	0.200	-0.460	1.970
2020/01/31 15:39:45.8	99.050	0.190	-0.430	2.010
2020/01/31 15:39:45.9	99.050	0.180	-0.400	2.040
2020/01/31 15:39:46.0	99.040	0.170	-0.360	2.070
2020/01/31 15:39:46.1	99.030	0.150	-0.320	2.090
2020/01/31 15:39:46.2	99.020	0.140	-0.270	2.120
2020/01/31 15:39:46.3	99.010	0.120	-0.220	2.140
2020/01/31 15:39:46.4	99.000	0.090	-0.160	2.150
2020/01/31 15:39:46.5	98.990	0.070	-0.110	2.160
2020/01/31 15:39:46.6	98.970	0.050	-0.050	2.170
2020/01/31 15:39:46.7	98.960	0.020	0.010	2.170
2020/01/31 15:39:46.8	98.950	-0.010	0.070	2.160
2020/01/31 15:39:46.9	98.930	-0.040	0.130	2.160
2020/01/31 15:39:47.0	98.920	-0.060	0.190	2.140
2020/01/31 15:39:47.1	98.900	-0.090	0.240	2.130
2020/01/31 15:39:47.2	98.890	-0.120	0.290	2.110
2020/01/31 15:39:47.3	98.880	-0.150	0.340	2.080
2020/01/31 15:39:47.4	98.860	-0.170	0.380	2.050
2020/01/31 15:39:47.5	98.850	-0.200	0.420	2.020
2020/01/31 15:39:47.6	98.840	-0.220	0.460	1.980
2020/01/31 15:39:47.7	98.840	-0.250	0.490	1.940
2020/01/31 15:39:47.8	98.830	-0.270	0.510	1.900
2020/01/31 15:39:47.9	98.820	-0.280	0.520	1.850
2020/01/31 15:39:48.0	98.820	-0.300	0.530	1.800
2020/01/31 15:39:48.1	98.810	-0.310	0.530	1.740
2020/01/31 15:39:48.2	98.810	-0.320	0.520	1.690
2020/01/31 15:39:48.3	98.810	-0.330	0.510	1.630
2020/01/31 15:39:48.4	98.810	-0.330	0.490	1.570
2020/01/31 15:39:48.5	98.810	-0.330	0.460	1.510
2020/01/31 15:39:48.6	98.810	-0.330	0.420	1.450
2020/01/31 15:39:48.7	98.810	-0.320	0.380	1.380
2020/01/31 15:39:48.8	98.810	-0.310	0.330	1.320
2020/01/31 15:39:48.9	98.810	-0.300	0.280	1.250
2020/01/31 15:39:49.0	98.820	-0.290	0.220	1.190
2020/01/31 15:39:49.1	98.820	-0.270	0.160	1.120
2020/01/31 15:39:49.2	98.820	-0.250	0.100	1.060
2020/01/31 15:39:49.3	98.830	-0.230	0.030	0.990
2020/01/31 15:39:49.4	98.830	-0.210	-0.040	0.920
2020/01/31 15:39:49.5	98.840	-0.190	-0.110	0.860
2020/01/31 15:39:49.6	98.850	-0.160	-0.180	0.790
2020/01/31 15:39:49.7	98.850	-0.140	-0.240	0.720
2020/01/31 15:39:49.8	98.860	-0.110	-0.310	0.650
2020/01/31 15:39:49.9	98.870	-0.080	-0.380	0.580
2020/01/31 15:39:50.0	98.880	-0.060	-0.450	0.510
2020/01/31 15:39:50.1	98.890	-0.030	-0.510	0.440
2020/01/31 15:39:50.2	98.890	-0.000	-0.570	0.380
2020/01/31 15:39:50.3	98.900	0.020	-0.620	0.310
2020/01/31 15:39:50.4	98.910	0.050	-0.670	0.240
2020/01/31 15:39:50.5	98.920	0.070	-0.710	0.170
2020/01/31 15:39:50.6	98.930	0.090	-0.750	0.100
2020/01/31 15:39:50.7	98.940	0.110	-0.790	0.030
2020/01/31 15:39:50.8	98.950	0.130	-0.810	-0.040
2020/01/31 15:39:50.9	98.960	0.140	-0.830	-0.100
2020/01/31 15:39:51.0	98.970	0.160	-0.840	-0.170
2020/01/31 15:39:51.1	98.980	0.170	-0.850	-0.230
2020/01/31 15:39:51.2	98.990	0.170	-0.850	-0.300
2020/01/31 15:39:51.3	99.000	0.180	-0.840	-0.360
2020/01/31 15:39:51.4	99.010	0.180	-0.830	-0.420
2020/01/31 15:39:51.5	99.020	0.180	-0.810	-0.480
2020/01/31 15:39:51.6	99.030	0.180	-0.780	-0.540
2020/01/31 15:39:51.7	99.030	0.180	-0.750	-0.590
2020/01/31 15:39:51.8	99.040	0.170	-0.710	-0.650
2020/01/31 15:39:51.9	99.040	0.160	-0.670	-0.700
2020/01/31 15:39:52.0	99.050	0.150	-0.630	-0.750
2020/01/31 15:39:52.1	99.050	0.140	-0.580	-0.800
2020/01/31 15:39:52.2	99.060	0.120	-0.530	-0.850
2020/01/31 15:39:52.3	99.060	0.110	-0.480	-0.900
2020/01/31 15:39:52.4	99.060	0.090	-0.430	-0.940
2020/01/31 15:39:52.5	99.060	0.070	-0.370	-0.980
2020/01/31 15:39:52.6	99.060	0.050	-0.320	-1.010
2020/01/31 15:39:52.7	99.060	0.030	-0.260	-1.040
2020/01/31 15:39:52.8	99.050	0.010	-0.200	-1.070
2020/01/31 15:39:52.9	99.050	-0.010	-0.150	-1.090
2020/01/31 15:39:53.0	99.040	-0.030	-0.100	-1.120
2020/01/31 15:39:53.1	99.030	-0.050	-0.040	-1.130
2020/01/31 15:39:53.2	99.020	-0.070	0.000	-1.150
2020/01/31 15:39:53.3	99.010	-0.090	0.050	-1.150
2020/01/31 15:39:53.4	99.000	-0.110	0.090	-1.160
2020/01/31 15:39:53.5	98.980	-0.120	0.130	-1.160
2020/01/31 15:39:53.6	98.970	-0.140	0.160	-1.150
2020/01/31 15:39:53.7	98.950	-0.150	0.200	-1.140
2020/01/31 15:39:53.8	98.930	-0.160	0.220	-1.120
2020/01/31 15:39:53.9	98.920	-0.170	0.250	-1.110
2020/01/31 15:39:54.0	98.900	-0.180	0.260	-1.080
2020/01/31 15:39:54.1	98.880	-0.180	0.270	-1.060
2020/01/31 15:39:54.2	98.860	-0.190	0.280	-1.020
2020/01/31 15:39:54.3	98.840	-0.190	0.280	-0.990
2020/01/31 15:39:54.4	98.820	-0.180	0.280	-0.950
2020/01/31 15:39:54.5	98.800	-0.180	0.280	-0.910
2020/01/31 15:39:54.6	98.780	-0.170	0.260	-0.870
2020/01/31 15:39:54.7	98.760	-0.160	0.250	-0.820
2020/01/31 15:39:54.8	98.740	-0.150	0.230	-0.770
2020/01/31 15:39:54.9	98.730	-0.140	0.210	-0.720
2020/01/31 15:39:55.0	98.710	-0.130	0.180	-0.670
2020/01/31 15:39:55.1	98.690	-0.110	0.150	-0.620
2020/01/31 15:39:55.2	98.680	-0.100	0.110	-0.560
2020/01/31 15:39:55.3	98.670	-0.080	0.080	-0.510
2020/01/31 15:39:55.4	98.650	-0.060	0.040	-0.450
2020/01/31 15:39:55.5	98.640	-0.040	-0.010	-0.390
2020/01/31 15:39:55.6	98.630	-0.020	-0.050	-0.330
2020/01/31 15:39:55.7	98.620	0.000	-0.090	-0.270
2020/01/31 15:39:55.8	98.610	0.020	-0.140	-0.200
2020/01/31 15:39:55.9	98.600	0.040	-0.180	-0.140
2020/01/31 15:39:56.0	98.600	0.060	-0.220	-0.080
2020/01/31 15:39:56.1	98.590	0.080	-0.270	-0.020
2020/01/31 15:39:56.2	98.590	0.100	-0.310	0.040
2020/01/31 15:39:56.3	98.590	0.110	-0.350	0.100
2020/01/31 15:39:56.4	98.590	0.130	-0.380	0.160
2020/01/31 15:39:56.5	98.590	0.140	-0.420	0.220
2020/01/31 15:39:56.6	98.600	0.150	-0.450	0.280
2020/01/31 15:39:56.7	98.600	0.170	-0.470	0.340
2020/01/31 15:39:56.8	98.610	0.170	-0.490	0.400
2020/01/31 15:39:56.9	98.620	0.180	-0.510	0.460
2020/01/31 15:39:57.0	98.630	0.190	-0.530	0.510
2020/01/31 15:39:57.1	98.650	0.190	-0.540	0.570
2020/01/31 15:39:57.2	98.660	0.200	-0.550	0.620
2020/01/31 15:39:57.3	98.680	0.200	-0.550	0.670
2020/01/31 15:39:57.4	98.700	0.200	-0.550	0.730
2020/01/31 15:39:57.5	98.710	0.190	-0.540	0.780
2020/01/31 15:39:57.6	98.730	0.190	-0.530	0.830
2020/01/31 15:39:57.7	98.750	0.190	-0.520	0.880
2020/01/31 15:39:57.8	98.770	0.180	-0.510	0.930
2020/01/31 15:39:57.9	98.790	0.170	-0.490	0.990
2020/01/31 15:39:58.0	98.800	0.170	-0.470	1.040
2020/01/31 15:39:58.1	98.820	0.160	-0.450	1.090
2020/01/31 15:39:58.2	98.840	0.150	-0.430	1.140
2020/01/31 15:39:58.3	98.850	0.140	-0.410	1.190
2020/01/31 15:39:58.4	98.870	0.130	-0.380	1.250
2020/01/31 15:39:58.5	98.880	0.120	-0.360	1.300
2020/01/31 15:39:58.6	98.890	0.110	-0.330	1.350
2020/01/31 15:39:58.7	98.900	0.100	-0.310	1.410
2020/01/31 15:39:58.8	98.900	0.100	-0.280	1.460
2020/01/31 15:39:58.9	98.910	0.090	-0.260	1.510
2020/01/31 15:39:59.0	98.910	0.080	-0.240	1.560
2020/01/31 15:39:59.1	98.900	0.070	-0.220	1.610
2020/01/31 15:39:59.2	98.900	0.070	-0.200	1.660
2020/01/31 15:39:59.3	98.890	0.060	-0.190	1.710
2020/01/31 15:39:59.4	98.880	0.060	-0.170	1.760
2020/01/31 15:39:59.5	98.870	0.050	-0.160	1.800
2020/01/31 15:39:59.6	98.860	0.050	-0.140	1.850
2020/01/31 15:39:59.7	98.850	0.050	-0.130	1.890
2020/01/31 15:39:59.8	98.840	0.040	-0.120	1.930
2020/01/31 15:39:59.9	98.820	0.040	-0.110	1.960
2020/01/31 15:40:00.0	98.800	0.040	-0.100	2.000
2020/01/31 15:40:00.1	98.780	0.040	-0.090	2.030
2020/01/31 15:40:00.2	98.760	0.040	-0.090	2.060
2020/01/31 15:40:00.3	98.740	0.050	-0.080	2.080
2020/01/31 15:40:00.4	98.730	0.050	-0.070	2.100
2020/01/31 15:40:00.5	98.710	0.050	-0.070	2.120
2020/01/31 15:40:00.6	98.690	0.050	-0.060	2.130
2020/01/31 15:40:00.7	98.670	0.060	-0.060	2.140
2020/01/31 15:40:00.8	98.650	0.060	-0.060	2.140
2020/01/31 15:40:00.9	98.630	0.060	-0.050	2.150
2020/01/31 15:40:01.0	98.620	0.070	-0.050	2.140
2020/01/31 15:40:01.1	98.600	0.070	-0.050	2.140
2020/01/31 15:40:01.2	98.590	0.070	-0.050	2.130
2020/01/31 15:40:01.3	98.570	0.080	-0.050	2.110
2020/01/31 15:40:01.4	98.560	0.080	-0.050	2.100
2020/01/31 15:40:01.5	98.550	0.080	-0.050	2.080
2020/01/31 15:40:01.6	98.530	0.080	-0.060	2.060
2020/01/31 15:40:01.7	98.520	0.080	-0.050	2.030
2020/01/31 15:40:01.8	98.510	0.090	-0.060	2.010
2020/01/31 15:40:01.9	98.500	0.090	-0.060	1.980
2020/01/31 15:40:02.0	98.490	0.090	-0.060	1.950
2020/01/31 15:40:02.1	98.480	0.090	-0.070	1.920
2020/01/31 15:40:02.2	98.470	0.090	-0.070	1.880
2020/01/31 15:40:02.3	98.460	0.080	-0.080	1.850
2020/01/31 15:40:02.4	98.460	0.080	-0.080	1.810
2020/01/31 15:40:02.5	98.450	0.080	-0.090	1.770
2020/01/31 15:40:02.6	98.450	0.070	-0.090	1.720
2020/01/31 15:40:02.7	98.450	0.070	-0.100	1.680
2020/01/31 15:40:02.8	98.450	0.060	-0.110	1.630
2020/01/31 15:40:02.9	98.450	0.050	-0.110	1.590
2020/01/31 15:40:03.0	98.450	0.040	-0.120	1.530
2020/01/31 15:40:03.1	98.460	0.030	-0.120	1.480
2020/01/31 15:40:03.2	98.460	0.020	-0.120	1.430
2020/01/31 15:40:03.3	98.470	0.010	-0.120	1.370
2020/01/31 15:40:03.4	98.470	-0.010	-0.120	1.320
2020/01/31 15:40:03.5	98.480	-0.020	-0.120	1.260
2020/01/31 15:40:03.6	98.490	-0.040	-0.120	1.200
2020/01/31 15:40:03.7	98.500	-0.060	-0.110	1.140
2020/01/31 15:40:03.8	98.510	-0.080	-0.110	1.070
2020/01/31 15:40:03.9	98.520	-0.100	-0.100	1.010
2020/01/31 15:40:04.0	98.530	-0.120	-0.090	0.950
2020/01/31 15:40:04.1	98.540	-0.140	-0.080	0.880
2020/01/31 15:40:04.2	98.550	-0.170	-0.070	0.820
2020/01/31 15:40:04.3	98.550	-0.190	-0.050	0.760
2020/01/31 15:40:04.4	98.560	-0.210	-0.040	0.690
2020/01/31 15:40:04.5	98.570	-0.240	-0.020	0.630
2020/01/31 15:40:04.6	98.570	-0.260	-0.010	0.570
2020/01/31 15:40:04.7	98.570	-0.290	0.010	0.510
2020/01/31 15:40:04.8	98.570	-0.310	0.030	0.450
2020/01/31 15:40:04.9	98.570	-0.340	0.050	0.390
2020/01/31 15:40:05.0	98.570	-0.360	0.070	0.340
2020/01/31 15:40:05.1	98.560	-0.380	0.090	0.290
2020/01/31 15:40:05.2	98.560	-0.400	0.100	0.240
2020/01/31 15:40:05.3	98.550	-0.420	0.120	0.190
2020/01/31 15:40:05.4	98.540	-0.440	0.140	0.140
2020/01/31 15:40:05.5	98.530	-0.450	0.150	0.100
2020/01/31 15:40:05.6	98.520	-0.470	0.160	0.050
2020/01/31 15:40:05.7	98.510	-0.480	0.180	0.010
2020/01/31 15:40:05.8	98.490	-0.480	0.180	-0.030
2020/01/31 15:40:05.9	98.480	-0.490	0.190	-0.070
2020/01/31 15:40:06.0	98.470	-0.490	0.190	-0.110
2020/01/31 15:40:06.1	98.460	-0.490	0.190	-0.140
2020/01/31 15:40:06.2	98.440	-0.490	0.190	-0.180
2020/01/31 15:40:06.3	98.430	-0.490	0.180	-0.220
2020/01/31 15:40:06.4	98.420	-0.480	0.170	-0.260
2020/01/31 15:40:06.5	98.410	-0.470	0.150	-0.300
2020/01/31 15:40:06.6	98.390	-0.450	0.130	-0.330
2020/01/31 15:40:06.7	98.380	-0.430	0.100	-0.370
2020/01/31 15:40:06.8	98.370	-0.410	0.070	-0.410
2020/01/31 15:40:06.9	98.360	-0.390	0.040	-0.440
2020/01/31 15:40:07.0	98.350	-0.360	0.000	-0.480
2020/01/31 15:40:07.1	98.340	-0.330	-0.040	-0.510
2020/01/31 15:40:07.2	98.330	-0.300	-0.090	-0.550
2020/01/31 15:40:07.3	98.320	-0.260	-0.140	-0.580
2020/01/31 15:40:07.4	98.310	-0.220	-0.200	-0.610
2020/01/31 15:40:07.5	98.300	-0.180	-0.250	-0.640
2020/01/31 15:40:07.6	98.290	-0.140	-0.320	-0.670
2020/01/31 15:40:07.7	98.280	-0.100	-0.380	-0.690
2020/01/31 15:40:07.8	98.270	-0.050	-0.440	-0.710
2020/01/31 15:40:07.9	98.260	-0.010	-0.510	-0.730
2020/01/31 15:40:08.0	98.250	0.040	-0.570	-0.750
2020/01/31 15:40:08.1	98.240	0.090	-0.640	-0.770
2020/01/31 15:40:08.2	98.230	0.130	-0.700	-0.780
2020/01/31 15:40:08.3	98.220	0.180	-0.770	-0.800
2020/01/31 15:40:08.4	98.210	0.220	-0.830	-0.800
2020/01/31 15:40:08.5	98.200	0.270	-0.880	-0.810
2020/01/31 15:40:08.6	98.190	0.310	-0.940	-0.810
2020/01/31 15:40:08.7	98.170	0.350	-0.990	-0.810
2020/01/31 15:40:08.8	98.160	0.390	-1.030	-0.800
2020/01/31 15:40:08.9	98.150	0.420	-1.060	-0.800
2020/01/31 15:40:09.0	98.130	0.450	-1.090	-0.790
2020/01/31 15:40:09.1	98.120	0.480	-1.120	-0.770
2020/01/31 15:40:09.2	98.100	0.500	-1.130	-0.750
2020/01/31 15:40:09.3	98.080	0.520	-1.140	-0.730
2020/01/31 15:40:09.4	98.070	0.530	-1.140	-0.700
2020/01/31 15:40:09.5	98.050	0.550	-1.130	-0.680
2020/01/31 15:40:09.6	98.030	0.550	-1.110	-0.640
2020/01/31 15:40:09.7	98.020	0.550	-1.080	-0.600
2020/01/31 15:40:09.8	98.000	0.550	-1.040	-0.560
2020/01/31 15:40:09.9	97.990	0.550	-1.000	-0.520
2020/01/31 15:40:10.0	97.970	0.540	-0.950	-0.480
2020/01/31 15:40:10.1	97.960	0.520	-0.890	-0.430
2020/01/31 15:40:10.2	97.940	0.510	-0.830	-0.390
2020/01/31 15:40:10.3	97.920	0.480	-0.760	-0.340
2020/01/31 15:40:10.4	97.910	0.460	-0.690	-0.290
2020/01/31 15:40:10.5	97.890	0.430	-0.610	-0.240
2020/01/31 15:40:10.6	97.880	0.400	-0.530	-0.190
2020/01/31 15:40:10.7	97.870	0.370	-0.430	-0.140
2020/01/31 15:40:10.8	97.850	0.340	-0.350	-0.090
2020/01/31 15:40:10.9	97.840	0.310	-0.260	-0.040
2020/01/31 15:40:11.0	97.830	0.270	-0.170	0.010
2020/01/31 15:40:11.1	97.820	0.230	-0.080	0.050
2020/01/31 15:40:11.2	97.810	0.200	0.010	0.090
2020/01/31 15:40:11.3	97.800	0.160	0.100	0.130
2020/01/31 15:40:11.4	97.800	0.120	0.180	0.170
2020/01/31 15:40:11.5	97.790	0.090	0.270	0.210
2020/01/31 15:40:11.6	97.780	0.060	0.340	0.240
2020/01/31 15:40:11.7	97.770	0.020	0.420	0.270
2020/01/31 15:40:11.8	97.770	-0.010	0.490	0.300
2020/01/31 15:40:11.9	97.760	-0.040	0.550	0.330
2020/01/31 15:40:12.0	97.760	-0.070	0.600	0.350
2020/01/31 15:40:12.1	97.750	-0.090	0.650	0.370
2020/01/31 15:40:12.2	97.750	-0.110	0.700	0.390
2020/01/31 15:40:12.3	97.750	-0.130	0.730	0.410
2020/01/31 15:40:12.4	97.750	-0.150	0.760	0.420
2020/01/31 15:40:12.5	97.750	-0.170	0.780	0.440
2020/01/31 15:40:12.6	97.740	-0.180	0.790	0.450
2020/01/31 15:40:12.7	97.740	-0.190	0.800	0.470
2020/01/31 15:40:12.8	97.740	-0.200	0.800	0.480
2020/01/31 15:40:12.9	97.740	-0.200	0.790	0.500
2020/01/31 15:40:13.0	97.740	-0.200	0.780	0.510
2020/01/31 15:40:13.1	97.730	-0.200	0.760	0.520
2020/01/31 15:40:13.2	97.730	-0.200	0.730	0.540
2020/01/31 15:40:13.3	97.730	-0.190	0.700	0.550
2020/01/31 15:40:13.4	97.730	-0.190	0.660	0.570
2020/01/31 15:40:13.5	97.720	-0.180	0.610	0.590
2020/01/31 15:40:13.6	97.720	-0.170	0.560	0.610
2020/01/31 15:40:13.7	97.710	-0.150	0.510	0.630
2020/01/31 15:40:13.8	97.710	-0.140	0.450	0.650
2020/01/31 15:40:13.9	97.700	-0.120	0.400	0.680
2020/01/31 15:40:14.0	97.690	-0.110	0.330	0.710
2020/01/31 15:40:14.1	97.680	-0.090	0.270	0.740
2020/01/31 15:40:14.2	97.670	-0.070	0.210	0.770
2020/01/31 15:40:14.3	97.670	-0.060	0.140	0.800
2020/01/31 15:40:14.4	97.660	-0.040	0.070	0.830
2020/01/31 15:40:14.5	97.650	-0.020	0.010	0.870
2020/01/31 15:40:14.6	97.640	-0.000	-0.060	0.900
2020/01/31 15:40:14.7	97.630	0.020	-0.120	0.940
2020/01/31 15:40:14.8	97.620	0.040	-0.190	0.980
2020/01/31 15:40:14.9	97.610	0.050	-0.250	1.020
2020/01/31 15:40:15.0	97.600	0.070	-0.320	1.060
2020/01/31 15:40:15.1	97.590	0.090	-0.380	1.090
2020/01/31 15:40:15.2	97.580	0.100	-0.440	1.130
2020/01/31 15:40:15.3	97.570	0.120	-0.500	1.170
2020/01/31 15:40:15.4	97.560	0.130	-0.550	1.210
2020/01/31 15:40:15.5	97.550	0.140	-0.610	1.240
2020/01/31 15:40:15.6	97.540	0.150	-0.660	1.270
2020/01/31 15:40:15.7	97.540	0.170	-0.700	1.310
2020/01/31 15:40:15.8	97.530	0.170	-0.750	1.340
2020/01/31 15:40:15.9	97.520	0.180	-0.790	1.360
2020/01/31 15:40:16.0	97.520	0.190	-0.830	1.390
2020/01/31 15:40:16.1	97.520	0.200	-0.860	1.410
2020/01/31 15:40:16.2	97.520	0.200	-0.890	1.430
2020/01/31 15:40:16.3	97.510	0.210	-0.920	1.440
2020/01/31 15:40:16.4	97.520	0.210	-0.940	1.450
2020/01/31 15:40:16.5	97.520	0.210	-0.960	1.460
2020/01/31 15:40:16.6	97.520	0.210	-0.980	1.470
2020/01/31 15:40:16.7	97.530	0.210	-0.980	1.470
2020/01/31 15:40:16.8	97.530	0.210	-0.990	1.470
2020/01/31 15:40:16.9	97.540	0.200	-0.990	1.470
2020/01/31 15:40:17.0	97.550	0.200	-0.990	1.460
2020/01/31 15:40:17.1	97.560	0.190	-0.980	1.460
2020/01/31 15:40:17.2	97.570	0.190	-0.970	1.450
2020/01/31 15:40:17.3	97.580	0.180	-0.950	1.440
2020/01/31 15:40:17.4	97.590	0.170	-0.930	1.420
2020/01/31 15:40:17.5	97.600	0.160	-0.900	1.410
2020/01/31 15:40:17.6	97.610	0.150	-0.870	1.390
2020/01/31 15:40:17.7	97.630	0.140	-0.830	1.380
2020/01/31 15:40:17.8	97.650	0.130	-0.790	1.360
2020/01/31 15:40:17.9	97.660	0.120	-0.750	1.340
2020/01/31 15:40:18.0	97.670	0.100	-0.700	1.320
2020/01/31 15:40:18.1	97.690	0.090	-0.650	1.300
2020/01/31 15:40:18.2	97.700	0.070	-0.590	1.280
2020/01/31 15:40:18.3	97.710	0.050	-0.530	1.250
2020/01/31 15:40:18.4	97.730	0.030	-0.470	1.230
2020/01/31 15:40:18.5	97.740	0.020	-0.410	1.210
2020/01/31 15:40:18.6	97.750	-0.000	-0.340	1.180
2020/01/31 15:40:18.7	97.770	-0.030	-0.280	1.160
2020/01/31 15:40:18.8	97.780	-0.050	-0.200	1.130
2020/01/31 15:40:18.9	97.790	-0.070	-0.130	1.110
2020/01/31 15:40:19.0	97.800	-0.090	-0.060	1.080
2020/01/31 15:40:19.1	97.820	-0.120	0.010	1.060
2020/01/31 15:40:19.2	97.820	-0.140	0.090	1.030
2020/01/31 15:40:19.3	97.830	-0.170	0.160	1.010
2020/01/31 15:40:19.4	97.840	-0.190	0.240	0.990
2020/01/31 15:40:19.5	97.850	-0.220	0.310	0.960
2020/01/31 15:40:19.6	97.860	-0.240	0.380	0.940
2020/01/31 15:40:19.7	97.860	-0.270	0.450	0.920
2020/01/31 15:40:19.8	97.860	-0.300	0.520	0.900
2020/01/31 15:40:19.9	97.870	-0.320	0.580	0.880
2020/01/31 15:40:20.0	97.870	-0.350	0.640	0.850
2020/01/31 15:40:20.1	97.870	-0.370	0.700	0.830
2020/01/31 15:40:20.2	97.870	-0.390	0.750	0.810
2020/01/31 15:40:20.3	97.870	-0.410	0.800	0.790
2020/01/31 15:40:20.4	97.870	-0.440	0.840	0.770
2020/01/31 15:40:20.5	97.860	-0.460	0.880	0.750
2020/01/31 15:40:20.6	97.860	-0.470	0.910	0.720
2020/01/31 15:40:20.7	97.850	-0.490	0.930	0.700
2020/01/31 15:40:20.8	97.840	-0.500	0.950	0.680
2020/01/31 15:40:20.9	97.830	-0.520	0.960	0.650
2020/01/31 15:40:21.0	97.830	-0.530	0.960	0.630
2020/01/31 15:40:21.1	97.820	-0.530	0.950	0.600
2020/01/31 15:40:21.2	97.810	-0.540	0.940	0.580
2020/01/31 15:40:21.3	97.800	-0.540	0.920	0.550
2020/01/31 15:40:21.4	97.790	-0.540	0.890	0.520
2020/01/31 15:40:21.5	97.780	-0.530	0.850	0.480
2020/01/31 15:40:21.6	97.780	-0.530	0.800	0.450
2020/01/31 15:40:21.7	97.770	-0.510	0.750	0.410
2020/01/31 15:40:21.8	97.760	-0.500	0.690	0.380
2020/01/31 15:40:21.9	97.750	-0.480	0.620	0.340
2020/01/31 15:40:22.0	97.740	-0.460	0.540	0.290
2020/01/31 15:40:22.1	97.730	-0.440	0.460	0.250
2020/01/31 15:40:22.2	97.730	-0.410	0.370	0.200
2020/01/31 15:40:22.3	97.720	-0.380	0.280	0.150
2020/01/31 15:40:22.4	97.710	-0.350	0.180	0.110
2020/01/31 15:40:22.5	97.700	-0.310	0.080	0.050
2020/01/31 15:40:22.6	97.690	-0.270	-0.030	0.000
2020/01/31 15:40:22.7	97.700	-0.230	-0.130	-0.050
2020/01/31 15:40:22.8	97.690	-0.190	-0.240	-0.100
2020/01/31 15:40:22.9	97.680	-0.150	-0.350	-0.150
2020/01/31 15:40:23.0	97.680	-0.100	-0.450	-0.200
2020/01/31 15:40:23.1	97.670	-0.060	-0.560	-0.250
2020/01/31 15:40:23.2	97.670	-0.010	-0.670	-0.300
2020/01/31 15:40:23.3	97.660	0.040	-0.770	-0.350
2020/01/31 15:40:23.4	97.660	0.090	-0.870	-0.390
2020/01/31 15:40:23.5	97.660	0.130	-0.960	-0.440
2020/01/31 15:40:23.6	97.650	0.180	-1.050	-0.480
2020/01/31 15:40:23.7	97.660	0.220	-1.140	-0.510
2020/01/31 15:40:23.8	97.660	0.270	-1.220	-0.550
2020/01/31 15:40:23.9	97.660	0.310	-1.290	-0.580
2020/01/31 15:40:24.0	97.660	0.350	-1.360	-0.600
2020/01/31 15:40:24.1	97.660	0.390	-1.410	-0.620
2020/01/31 15:40:24.2	97.660	0.420	-1.460	-0.640
2020/01/31 15:40:24.3	97.670	0.450	-1.500	-0.650
2020/01/31 15:40:24.4	97.670	0.480	-1.530	-0.660
2020/01/31 15:40:24.5	97.680	0.500	-1.550	-0.660
2020/01/31 15:40:24.6	97.690	0.530	-1.560	-0.660
2020/01/31 15:40:24.7	97.690	0.540	-1.560	-0.650
2020/01/31 15:40:24.8	97.700	0.560	-1.550	-0.640
2020/01/31 15:40:24.9	97.710	0.570	-1.530	-0.630
2020/01/31 15:40:25.0	97.720	0.570	-1.510	-0.620
2020/01/31 15:40:25.1	97.730	0.580	-1.470	-0.600
2020/01/31 15:40:25.2	97.740	0.570	-1.430	-0.580
2020/01/31 15:40:25.3	97.740	0.570	-1.380	-0.550
2020/01/31 15:40:25.4	97.750	0.560	-1.320	-0.520
2020/01/31 15:40:25.5	97.760	0.550	-1.250	-0.490
2020/01/31 15:40:25.6	97.770	0.530	-1.180	-0.460
2020/01/31 15:40:25.7	97.780	0.510	-1.090	-0.420
2020/01/31 15:40:25.8	97.790	0.490	-1.010	-0.390
2020/01/31 15:40:25.9	97.790	0.470	-0.920	-0.350
2020/01/31 15:40:26.0	97.800	0.440	-0.830	-0.310
2020/01/31 15:40:26.1	97.810	0.410	-0.730	-0.270
2020/01/31 15:40:26.2	97.810	0.380	-0.640	-0.230
2020/01/31 15:40:26.3	97.820	0.350	-0.540	-0.180
2020/01/31 15:40:26.4	97.820	0.320	-0.440	-0.140
2020/01/31 15:40:26.5	97.820	0.280	-0.340	-0.100
2020/01/31 15:40:26.6	97.820	0.250	-0.240	-0.050
2020/01/31 15:40:26.7	97.820	0.220	-0.140	-0.000
2020/01/31 15:40:26.8	97.820	0.180	-0.050	0.050
2020/01/31 15:40:26.9	97.820	0.150	0.040	0.090
2020/01/31 15:40:27.0	97.820	0.110	0.130	0.140
2020/01/31 15:40:27.1	97.820	0.080	0.210	0.190
2020/01/31 15:40:27.2	97.810	0.040	0.290	0.240
2020/01/31 15:40:27.3	97.810	0.010	0.360	0.280
2020/01/31 15:40:27.4	97.810	-0.020	0.430	0.330
2020/01/31 15:40:27.5	97.800	-0.050	0.490	0.380
2020/01/31 15:40:27.6	97.800	-0.070	0.550	0.420
2020/01/31 15:40:27.7	97.800	-0.100	0.600	0.470
2020/01/31 15:40:27.8	97.800	-0.120	0.650	0.520
2020/01/31 15:40:27.9	97.790	-0.140	0.690	0.560
2020/01/31 15:40:28.0	97.790	-0.160	0.720	0.610
2020/01/31 15:40:28.1	97.790	-0.180	0.750	0.650
2020/01/31 15:40:28.2	97.790	-0.200	0.770	0.700
2020/01/31 15:40:28.3	97.790	-0.210	0.780	0.740
2020/01/31 15:40:28.4	97.780	-0.220	0.790	0.780
2020/01/31 15:40:28.5	97.780	-0.230	0.790	0.830
2020/01/31 15:40:28.6	97.780	-0.230	0.790	0.870
2020/01/31 15:40:28.7	97.780	-0.240	0.780	0.920
2020/01/31 15:40:28.8	97.780	-0.240	0.760	0.960
2020/01/31 15:40:28.9	97.780	-0.240	0.740	1.000
2020/01/31 15:40:29.0	97.780	-0.240	0.720	1.050
2020/01/31 15:40:29.1	97.770	-0.230	0.690	1.090
2020/01/31 15:40:29.2	97.770	-0.230	0.660	1.130
2020/01/31 15:40:29.3	97.770	-0.220	0.620	1.170
2020/01/31 15:40:29.4	97.760	-0.210	0.580	1.220
2020/01/31 15:40:29.5	97.760	-0.200	0.530	1.260
2020/01/31 15:40:29.6	97.750	-0.190	0.490	1.300
2020/01/31 15:40:29.7	97.750	-0.180	0.440	1.340
2020/01/31 15:40:29.8	97.740	-0.160	0.390	1.380
2020/01/31 15:40:29.9	97.740	-0.150	0.330	1.420
2020/01/31 15:40:30.0	97.730	-0.130	0.280	1.460
2020/01/31 15:40:30.1	97.720	-0.120	0.220	1.490
2020/01/31 15:40:30.2	97.720	-0.100	0.160	1.530
2020/01/31 15:40:30.3	97.710	-0.080	0.110	1.560
2020/01/31 15:40:30.4	97.710	-0.070	0.050	1.580
2020/01/31 15:40:30.5	97.710	-0.050	-0.010	1.610
2020/01/31 15:40:30.6	97.710	-0.030	-0.060	1.630
2020/01/31 15:40:30.7	97.720	-0.010	-0.110	1.650
2020/01/31 15:40:30.8	97.720	0.000	-0.170	1.670
2020/01/31 15:40:30.9	97.720	0.020	-0.220	1.680
2020/01/31 15:40:31.0	97.730	0.030	-0.260	1.690
2020/01/31 15:40:31.1	97.730	0.050	-0.310	1.690
2020/01/31 15:40:31.2	97.740	0.060	-0.350	1.690
2020/01/31 15:40:31.3	97.750	0.070	-0.400	1.680
2020/01/31 15:40:31.4	97.770	0.090	-0.430	1.680
2020/01/31 15:40:31.5	97.780	0.100	-0.470	1.660
2020/01/31 15:40:31.6	97.790	0.110	-0.500	1.650
2020/01/31 15:40:31.7	97.810	0.110	-0.530	1.630
2020/01/31 15:40:31.8	97.830	0.120	-0.550	1.610
2020/01/31 15:40:31.9	97.850	0.130	-0.570	1.580
2020/01/31 15:40:32.0	97.860	0.130	-0.590	1.550
2020/01/31 15:40:32.1	97.880	0.140	-0.600	1.520
2020/01/31 15:40:32.2	97.900	0.140	-0.610	1.480
2020/01/31 15:40:32.3	97.920	0.140	-0.620	1.450
2020/01/31 15:40:32.4	97.940	0.140	-0.620	1.410
2020/01/31 15:40:32.5	97.960	0.140	-0.620	1.370
2020/01/31 15:40:32.6	97.980	0.140	-0.610	1.330
2020/01/31 15:40:32.7	98.000	0.140	-0.610	1.290
2020/01/31 15:40:32.8	98.020	0.140	-0.600	1.250
2020/01/31 15:40:32.9	98.040	0.130	-0.580	1.210
2020/01/31 15:40:33.0	98.060	0.130	-0.570	1.160
2020/01/31 15:40:33.1	98.080	0.120	-0.550	1.120
2020/01/31 15:40:33.2	98.100	0.120	-0.530	1.080
2020/01/31 15:40:33.3	98.110	0.110	-0.510	1.040
2020/01/31 15:40:33.4	98.130	0.100	-0.480	1.000
2020/01/31 15:40:33.5	98.140	0.090	-0.450	0.960
2020/01/31 15:40:33.6	98.150	0.090	-0.430	0.920
2020/01/31 15:40:33.7	98.160	0.080	-0.400	0.890
2020/01/31 15:40:33.8	98.170	0.070	-0.370	0.860
2020/01/31 15:40:33.9	98.180	0.060	-0.340	0.830
2020/01/31 15:40:34.0	98.190	0.050	-0.310	0.800
2020/01/31 15:40:34.1	98.190	0.040	-0.280	0.770
2020/01/31 15:40:34.2	98.200	0.030	-0.250	0.740
2020/01/31 15:40:34.3	98.200	0.020	-0.220	0.720
2020/01/31 15:40:34.4	98.200	0.020	-0.200	0.700
2020/01/31 15:40:34.5	98.200	0.010	-0.170	0.680
2020/01/31 15:40:34.6	98.200	0.000	-0.150	0.660
2020/01/31 15:40:34.7	98.200	-0.010	-0.130	0.640
2020/01/31 15:40:34.8	98.190	-0.010	-0.110	0.620
2020/01/31 15:40:34.9	98.190	-0.020	-0.100	0.610
2020/01/31 15:40:35.0	98.180	-0.020	-0.090	0.590
2020/01/31 15:40:35.1	98.180	-0.030	-0.080	0.580
2020/01/31 15:40:35.2	98.170	-0.030	-0.080	0.560
2020/01/31 15:40:35.3	98.160	-0.030	-0.080	0.550
2020/01/31 15:40:35.4	98.150	-0.030	-0.080	0.540
2020/01/31 15:40:35.5	98.150	-0.030	-0.080	0.520
2020/01/31 15:40:35.6	98.140	-0.030	-0.100	0.510
2020/01/31 15:40:35.7	98.120	-0.030	-0.100	0.490
2020/01/31 15:40:35.8	98.110	-0.030	-0.120	0.480
2020/01/31 15:40:35.9	98.100	-0.030	-0.140	0.460
2020/01/31 15:40:36.0	98.090	-0.030	-0.160	0.440
2020/01/31 15:40:36.1	98.080	-0.020	-0.180	0.420
2020/01/31 15:40:36.2	98.070	-0.020	-0.210	0.400
2020/01/31 15:40:36.3	98.060	-0.010	-0.230	0.380
2020/01/31 15:40:36.4	98.050	-0.010	-0.260	0.360
2020/01/31 15:40:36.5	98.040	-0.000	-0.290	0.340
2020/01/31 15:40:36.6	98.030	0.010	-0.310	0.320
2020/01/31 15:40:36.7	98.030	0.010	-0.340	0.300
2020/01/31 15:40:36.8	98.020	0.020	-0.360	0.280
2020/01/31 15:40:36.9	98.010	0.020	-0.390	0.260
2020/01/31 15:40:37.0	98.010	0.030	-0.410	0.240
2020/01/31 15:40:37.1	98.000	0.030	-0.430	0.220
2020/01/31 15:40:37.2	98.000	0.030	-0.440	0.210
2020/01/31 15:40:37.3	97.990	0.030	-0.460	0.190
2020/01/31 15:40:37.4	97.990	0.030	-0.470	0.180
2020/01/31 15:40:37.5	97.990	0.030	-0.470	0.170
2020/01/31 15:40:37.6	97.990	0.030	-0.470	0.160
2020/01/31 15:40:37.7	97.980	0.020	-0.470	0.150
2020/01/31 15:40:37.8	97.980	0.020	-0.460	0.150
2020/01/31 15:40:37.9	97.980	0.010	-0.450	0.150
2020/01/31 15:40:38.0	97.980	-0.000	-0.430	0.150
2020/01/31 15:40:38.1	97.980	-0.020	-0.410	0.150
2020/01/31 15:40:38.2	97.980	-0.030	-0.390	0.150
2020/01/31 15:40:38.3	97.980	-0.050	-0.360	0.160
2020/01/31 15:40:38.4	97.980	-0.070	-0.320	0.160
2020/01/31 15:40:38.5	97.990	-0.090	-0.290	0.170
2020/01/31 15:40:38.6	97.990	-0.110	-0.250	0.180
2020/01/31 15:40:38.7	97.990	-0.130	-0.200	0.190
2020/01/31 15:40:38.8	97.990	-0.160	-0.150	0.200
2020/01/31 15:40:38.9	98.000	-0.180	-0.100	0.200
2020/01/31 15:40:39.0	98.000	-0.210	-0.050	0.210
2020/01/31 15:40:39.1	98.010	-0.240	0.000	0.220
2020/01/31 15:40:39.2	98.010	-0.270	0.060	0.230
2020/01/31 15:40:39.3	98.020	-0.300	0.110	0.240
2020/01/31 15:40:39.4	98.020	-0.320	0.160	0.240
2020/01/31 15:40:39.5	98.030	-0.350	0.220	0.250
2020/01/31 15:40:39.6	98.030	-0.380	0.270	0.250
2020/01/31 15:40:39.7	98.040	-0.400	0.320	0.260
2020/01/31 15:40:39.8	98.040	-0.420	0.360	0.260
2020/01/31 15:40:39.9	98.050	-0.440	0.400	0.260
2020/01/31 15:40:40.0	98.060	-0.460	0.440	0.260
2020/01/31 15:40:40.1	98.060	-0.480	0.470	0.260
2020/01/31 15:40:40.2	98.070	-0.490	0.500	0.260
2020/01/31 15:40:40.3	98.070	-0.500	0.520	0.250
2020/01/31 15:40:40.4	98.080	-0.510	0.530	0.250
2020/01/31 15:40:40.5	98.080	-0.510	0.540	0.240
2020/01/31 15:40:40.6	98.090	-0.510	0.540	0.230
2020/01/31 15:40:40.7	98.090	-0.500	0.530	0.230
2020/01/31 15:40:40.8	98.100	-0.490	0.510	0.230
2020/01/31 15:40:40.9	98.100	-0.480	0.490	0.220
2020/01/31 15:40:41.0	98.100	-0.460	0.460	0.220
2020/01/31 15:40:41.1	98.100	-0.430	0.430	0.210
2020/01/31 15:40:41.2	98.100	-0.410	0.390	0.210
2020/01/31 15:40:41.3	98.100	-0.380	0.340	0.210
2020/01/31 15:40:41.4	98.090	-0.340	0.290	0.200
2020/01/31 15:40:41.5	98.090	-0.310	0.230	0.210
2020/01/31 15:40:41.6	98.090	-0.270	0.170	0.210
2020/01/31 15:40:41.7	98.080	-0.220	0.100	0.210
2020/01/31 15:40:41.8	98.080	-0.180	0.030	0.220
2020/01/31 15:40:41.9	98.070	-0.130	-0.040	0.230
2020/01/31 15:40:42.0	98.070	-0.080	-0.110	0.230
2020/01/31 15:40:42.1	98.070	-0.030	-0.180	0.250
2020/01/31 15:40:42.2	98.060	0.030	-0.260	0.260
2020/01/31 15:40:42.3	98.060	0.080	-0.330	0.270
2020/01/31 15:40:42.4	98.060	0.130	-0.400	0.290
2020/01/31 15:40:42.5	98.050	0.190	-0.470	0.300
2020/01/31 15:40:42.6	98.050	0.240	-0.540	0.320
2020/01/31 15:40:42.7	98.040	0.290	-0.600	0.350
2020/01/31 15:40:42.8	98.040	0.340	-0.660	0.370
2020/01/31 15:40:42.9	98.030	0.390	-0.720	0.390
2020/01/31 15:40:43.0	98.030	0.440	-0.770	0.420
2020/01/31 15:40:43.1	98.020	0.480	-0.820	0.440
2020/01/31 15:40:43.2	98.010	0.520	-0.860	0.460
2020/01/31 15:40:43.3	98.000	0.560	-0.900	0.490
2020/01/31 15:40:43.4	97.990	0.600	-0.930	0.510
2020/01/31 15:40:43.5	97.980	0.630	-0.950	0.540
2020/01/31 15:40:43.6	97.980	0.660	-0.970	0.560
2020/01/31 15:40:43.7	97.970	0.690	-0.990	0.590
2020/01/31 15:40:43.8	97.960	0.710	-1.000	0.610
2020/01/31 15:40:43.9	97.950	0.730	-1.000	0.620
2020/01/31 15:40:44.0	97.940	0.740	-1.000	0.640
2020/01/31 15:40:44.1	97.930	0.750	-0.990	0.650
2020/01/31 15:40:44.2	97.930	0.760	-0.980	0.670
2020/01/31 15:40:44.3	97.920	0.760	-0.970	0.680
2020/01/31 15:40:44.4	97.920	0.760	-0.950	0.680
2020/01/31 15:40:44.5	97.910	0.760	-0.930	0.690
2020/01/31 15:40:44.6	97.910	0.750	-0.900	0.690
2020/01/31 15:40:44.7	97.910	0.750	-0.870	0.690
2020/01/31 15:40:44.8	97.910	0.730	-0.840	0.680
2020/01/31 15:40:44.9	97.910	0.720	-0.800	0.670
2020/01/31 15:40:45.0	97.910	0.700	-0.760	0.670
2020/01/31 15:40:45.1	97.920	0.680	-0.720	0.650
2020/01/31 15:40:45.2	97.930	0.660	-0.680	0.640
2020/01/31 15:40:45.3	97.940	0.640	-0.640	0.630
2020/01/31 15:40:45.4	97.950	0.610	-0.600	0.610
2020/01/31 15:40:45.5	97.960	0.580	-0.550	0.590
2020/01/31 15:40:45.6	97.970	0.550	-0.500	0.580
2020/01/31 15:40:45.7	97.980	0.520	-0.450	0.560
2020/01/31 15:40:45.8	97.990	0.490	-0.400	0.540
2020/01/31 15:40:45.9	98.010	0.460	-0.350	0.530
2020/01/31 15:40:46.0	98.020	0.420	-0.300	0.510
2020/01/31 15:40:46.1	98.030	0.390	-0.250	0.500
2020/01/31 15:40:46.2	98.050	0.350	-0.200	0.490
2020/01/31 15:40:46.3	98.060	0.310	-0.140	0.480
2020/01/31 15:40:46.4	98.070	0.280	-0.090	0.480
2020/01/31 15:40:46.5	98.080	0.240	-0.030	0.480
2020/01/31 15:40:46.6	98.090	0.200	0.020	0.480
2020/01/31 15:40:46.7	98.100	0.150	0.080	0.490
2020/01/31 15:40:46.8	98.110	0.110	0.140	0.500
2020/01/31 15:40:46.9	98.110	0.070	0.200	0.520
2020/01/31 15:40:47.0	98.120	0.020	0.260	0.530
2020/01/31 15:40:47.1	98.120	-0.030	0.320	0.560
2020/01/31 15:40:47.2	98.120	-0.070	0.370	0.580
2020/01/31 15:40:47.3	98.120	-0.120	0.430	0.610
2020/01/31 15:40:47.4	98.110	-0.170	0.490	0.640
2020/01/31 15:40:47.5	98.110	-0.220	0.540	0.670
2020/01/31 15:40:47.6	98.100	-0.270	0.600	0.710
2020/01/31 15:40:47.7	98.090	-0.320	0.650	0.750
2020/01/31 15:40:47.8	98.080	-0.370	0.700	0.790
2020/01/31 15:40:47.9	98.070	-0.410	0.750	0.830
2020/01/31 15:40:48.0	98.060	-0.460	0.790	0.870
2020/01/31 15:40:48.1	98.050	-0.510	0.830	0.900
2020/01/31 15:40:48.2	98.030	-0.560	0.870	0.940
2020/01/31 15:40:48.3	98.020	-0.600	0.900	0.980
2020/01/31 15:40:48.4	98.000	-0.650	0.920	1.010
2020/01/31 15:40:48.5	97.990	-0.690	0.940	1.040
2020/01/31 15:40:48.6	97.970	-0.730	0.950	1.070
2020/01/31 15:40:48.7	97.960	-0.770	0.960	1.100
2020/01/31 15:40:48.8	97.940	-0.800	0.960	1.120
2020/01/31 15:40:48.9	97.930	-0.830	0.950	1.140
2020/01/31 15:40:49.0	97.910	-0.860	0.940	1.150
2020/01/31 15:40:49.1	97.900	-0.890	0.910	1.170
2020/01/31 15:40:49.2	97.880	-0.910	0.880	1.180
2020/01/31 15:40:49.3	97.870	-0.920	0.850	1.180
2020/01/31 15:40:49.4	97.860	-0.940	0.800	1.180
2020/01/31 15:40:49.5	97.850	-0.940	0.750	1.180
2020/01/31 15:40:49.6	97.830	-0.950	0.690	1.170
2020/01/31 15:40:49.7	97.830	-0.940	0.620	1.160
2020/01/31 15:40:49.8	97.820	-0.940	0.550	1.150
2020/01/31 15:40:49.9	97.810	-0.930	0.460	1.140
2020/01/31 15:40:50.0	97.800	-0.910	0.380	1.120
2020/01/31 15:40:50.1	97.800	-0.890	0.280	1.100
2020/01/31 15:40:50.2	97.790	-0.860	0.180	1.080
2020/01/31 15:40:50.3	97.790	-0.830	0.080	1.050
2020/01/31 15:40:50.4	97.780	-0.790	-0.030	1.030
2020/01/31 15:40:50.5	97.780	-0.750	-0.140	1.000
2020/01/31 15:40:50.6	97.790	-0.700	-0.250	0.970
2020/01/31 15:40:50.7	97.790	-0.650	-0.370	0.940
2020/01/31 15:40:50.8	97.800	-0.600	-0.480	0.910
2020/01/31 15:40:50.9	97.800	-0.540	-0.600	0.890
2020/01/31 15:40:51.0	97.810	-0.490	-0.710	0.860
2020/01/31 15:40:51.1	97.820	-0.420	-0.820	0.830
2020/01/31 15:40:51.2	97.830	-0.360	-0.930	0.800
2020/01/31 15:40:51.3	97.840	-0.300	-1.030	0.770
2020/01/31 15:40:51.4	97.860	-0.230	-1.130	0.740
2020/01/31 15:40:51.5	97.870	-0.160	-1.220	0.720
2020/01/31 15:40:51.6	97.890	-0.100	-1.300	0.690
2020/01/31 15:40:51.7	97.900	-0.030	-1.380	0.670
2020/01/31 15:40:51.8	97.920	0.030	-1.450	0.640
2020/01/31 15:40:51.9	97.940	0.100	-1.510	0.620
2020/01/31 15:40:52.0	97.960	0.160	-1.560	0.600
2020/01/31 15:40:52.1	97.980	0.210	-1.600	0.570
2020/01/31 15:40:52.2	98.000	0.270	-1.620	0.550
2020/01/31 15:40:52.3	98.020	0.320	-1.640	0.530
2020/01/31 15:40:52.4	98.040	0.370	-1.650	0.510
2020/01/31 15:40:52.5	98.060	0.420	-1.650	0.480
2020/01/31 15:40:52.6	98.070	0.460	-1.630	0.460
2020/01/31 15:40:52.7	98.090	0.490	-1.610	0.440
2020/01/31 15:40:52.8	98.110	0.520	-1.570	0.420
2020/01/31 15:40:52.9	98.120	0.550	-1.520	0.400
2020/01/31 15:40:53.0	98.140	0.570	-1.470	0.380
2020/01/31 15:40:53.1	98.150	0.590	-1.400	0.350
2020/01/31 15:40:53.2	98.160	0.600	-1.320	0.330
2020/01/31 15:40:53.3	98.170	0.610	-1.240	0.310
2020/01/31 15:40:53.4	98.180	0.610	-1.150	0.280
2020/01/31 15:40:53.5	98.190	0.610	-1.050	0.260
2020/01/31 15:40:53.6	98.200	0.600	-0.950	0.230
2020/01/31 15:40:53.7	98.200	0.590	-0.840	0.210
2020/01/31 15:40:53.8	98.210	0.580	-0.730	0.190
2020/01/31 15:40:53.9	98.210	0.570	-0.610	0.160
2020/01/31 15:40:54.0	98.210	0.550	-0.500	0.130
2020/01/31 15:40:54.1	98.210	0.520	-0.380	0.110
2020/01/31 15:40:54.2	98.210	0.500	-0.260	0.080
2020/01/31 15:40:54.3	98.210	0.470	-0.140	0.050
2020/01/31 15:40:54.4	98.210	0.440	-0.030	0.030
2020/01/31 15:40:54.5	98.210	0.410	0.090	0.000
2020/01/31 15:40:54.6	98.210	0.380	0.200	-0.030
2020/01/31 15:40:54.7	98.210	0.350	0.300	-0.050
2020/01/31 15:40:54.8	98.200	0.320	0.410	-0.080
2020/01/31 15:40:54.9	98.200	0.290	0.500	-0.100
2020/01/31 15:40:55.0	98.190	0.250	0.590	-0.130
2020/01/31 15:40:55.1	98.190	0.220	0.670	-0.150
2020/01/31 15:40:55.2	98.180	0.190	0.740	-0.180
2020/01/31 15:40:55.3	98.180	0.170	0.810	-0.200
2020/01/31 15:40:55.4	98.170	0.140	0.870	-0.220
2020/01/31 15:40:55.5	98.170	0.120	0.910	-0.240
2020/01/31 15:40:55.6	98.160	0.100	0.950	-0.260
2020/01/31 15:40:55.7	98.150	0.080	0.980	-0.270
2020/01/31 15:40:55.8	98.140	0.060	1.000	-0.290
2020/01/31 15:40:55.9	98.130	0.050	1.010	-0.300
2020/01/31 15:40:56.0	98.130	0.040	1.010	-0.310
2020/01/31 15:40:56.1	98.120	0.030	0.990	-0.320
2020/01/31 15:40:56.2	98.110	0.020	0.970	-0.330
2020/01/31 15:40:56.3	98.100	0.020	0.940	-0.330
2020/01/31 15:40:56.4	98.090	0.020	0.910	-0.330
2020/01/31 15:40:56.5	98.080	0.020	0.860	-0.330
2020/01/31 15:40:56.6	98.070	0.020	0.800	-0.320
2020/01/31 15:40:56.7	98.060	0.030	0.740	-0.310
2020/01/31 15:40:56.8	98.050	0.040	0.670	-0.300
2020/01/31 15:40:56.9	98.040	0.050	0.600	-0.280
2020/01/31 15:40:57.0	98.030	0.060	0.530	-0.260
2020/01/31 15:40:57.1	98.010	0.070	0.440	-0.240
2020/01/31 15:40:57.2	98.000	0.080	0.360	-0.210
2020/01/31 15:40:57.3	97.980	0.090	0.270	-0.180
2020/01/31 15:40:57.4	97.960	0.110	0.180	-0.150
2020/01/31 15:40:57.5	97.950	0.120	0.100	-0.110
2020/01/31 15:40:57.6	97.930	0.130	0.010	-0.070
2020/01/31 15:40:57.7	97.910	0.140	-0.080	-0.030
2020/01/31 15:40:57.8	97.890	0.150	-0.170	0.020
2020/01/31 15:40:57.9	97.880	0.160	-0.250	0.060
2020/01/31 15:40:58.0	97.860	0.160	-0.340	0.110
2020/01/31 15:40:58.1	97.840	0.170	-0.420	0.160
2020/01/31 15:40:58.2	97.830	0.170	-0.490	0.210
2020/01/31 15:40:58.3	97.810	0.170	-0.570	0.260
2020/01/31 15:40:58.4	97.800	0.170	-0.630	0.310
2020/01/31 15:40:58.5	97.790	0.170	-0.700	0.360
2020/01/31 15:40:58.6	97.780	0.160	-0.750	0.410
2020/01/31 15:40:58.7	97.770	0.160	-0.800	0.450
2020/01/31 15:40:58.8	97.760	0.150	-0.850	0.500
2020/01/31 15:40:58.9	97.760	0.140	-0.890	0.550
2020/01/31 15:40:59.0	97.760	0.120	-0.920	0.590
2020/01/31 15:40:59.1	97.760	0.110	-0.950	0.640
2020/01/31 15:40:59.2	97.760	0.090	-0.970	0.680
2020/01/31 15:40:59.3	97.760	0.070	-0.980	0.720
2020/01/31 15:40:59.4	97.770	0.050	-0.990	0.760
2020/01/31 15:40:59.5	97.770	0.030	-0.990	0.790
2020/01/31 15:40:59.6	97.780	0.000	-0.990	0.830
2020/01/31 15:40:59.7	97.790	-0.020	-0.970	0.870
2020/01/31 15:40:59.8	97.800	-0.040	-0.960	0.900
2020/01/31 15:40:59.9	97.810	-0.070	-0.940	0.920
2020/01/31 15:41:00.0	97.810	-0.100	-0.910	0.950
2020/01/31 15:41:00.1	97.830	-0.120	-0.880	0.970
2020/01/31 15:41:00.2	97.840	-0.150	-0.840	1.000
2020/01/31 15:41:00.3	97.850	-0.170	-0.800	1.020
2020/01/31 15:41:00.4	97.860	-0.190	-0.760	1.040
2020/01/31 15:41:00.5	97.870	-0.220	-0.710	1.060
2020/01/31 15:41:00.6	97.880	-0.240	-0.660	1.080
2020/01/31 15:41:00.7	97.900	-0.260	-0.610	1.090
2020/01/31 15:41:00.8	97.910	-0.280	-0.550	1.110
2020/01/31 15:41:00.9	97.920	-0.290	-0.490	1.120
2020/01/31 15:41:01.0	97.930	-0.310	-0.430	1.140
2020/01/31 15:41:01.1	97.950	-0.320	-0.370	1.150
2020/01/31 15:41:01.2	97.960	-0.330	-0.310	1.160
2020/01/31 15:41:01.3	97.970	-0.340	-0.250	1.170
2020/01/31 15:41:01.4	97.990	-0.350	-0.190	1.180
2020/01/31 15:41:01.5	98.010	-0.350	-0.130	1.190
2020/01/31 15:41:01.6	98.020	-0.360	-0.070	1.190
2020/01/31 15:41:01.7	98.040	-0.360	-0.010	1.200
2020/01/31 15:41:01.8	98.060	-0.350	0.050	1.210
2020/01/31 15:41:01.9	98.080	-0.350	0.110	1.210
2020/01/31 15:41:02.0	98.090	-0.350	0.160	1.220
2020/01/31 15:41:02.1	98.110	-0.340	0.210	1.220
2020/01/31 15:41:02.2	98.130	-0.330	0.250	1.220
2020/01/31 15:41:02.3	98.150	-0.320	0.300	1.220
2020/01/31 15:41:02.4	98.170	-0.310	0.340	1.220
2020/01/31 15:41:02.5	98.190	-0.300	0.370	1.220
2020/01/31 15:41:02.6	98.200	-0.290	0.410	1.220
2020/01/31 15:41:02.7	98.220	-0.270	0.430	1.220
2020/01/31 15:41:02.8	98.230	-0.260	0.450	1.210
2020/01/31 15:41:02.9	98.250	-0.240	0.470	1.210
2020/01/31 15:41:03.0	98.270	-0.230	0.490	1.200
2020/01/31 15:41:03.1	98.290	-0.210	0.500	1.200
2020/01/31 15:41:03.2	98.310	-0.190	0.510	1.190
2020/01/31 15:41:03.3	98.320	-0.170	0.510	1.180
2020/01/31 15:41:03.4	98.340	-0.160	0.510	1.170
2020/01/31 15:41:03.5	98.360	-0.140	0.510	1.160
2020/01/31 15:41:03.6	98.380	-0.120	0.500	1.150
2020/01/31 15:41:03.7	98.390	-0.110	0.500	1.140
2020/01/31 15:41:03.8	98.410	-0.090	0.480	1.130
2020/01/31 15:41:03.9	98.420	-0.070	0.460	1.110
2020/01/31 15:41:04.0	98.440	-0.060	0.440	1.100
2020/01/31 15:41:04.1	98.450	-0.040	0.420	1.080
2020/01/31 15:41:04.2	98.460	-0.030	0.390	1.070
2020/01/31 15:41:04.3	98.470	-0.010	0.360	1.050
2020/01/31 15:41:04.4	98.480	0.000	0.330	1.030
2020/01/31 15:41:04.5	98.490	0.020	0.300	1.010
2020/01/31 15:41:04.6	98.500	0.030	0.260	1.000
2020/01/31 15:41:04.7	98.510	0.040	0.220	0.980
2020/01/31 15:41:04.8	98.510	0.050	0.180	0.960
2020/01/31 15:41:04.9	98.510	0.070	0.130	0.940
2020/01/31 15:41:05.0	98.510	0.080	0.090	0.920
2020/01/31 15:41:05.1	98.510	0.090	0.040	0.910
2020/01/31 15:41:05.2	98.500	0.100	-0.010	0.890
2020/01/31 15:41:05.3	98.500	0.110	-0.060	0.870
2020/01/31 15:41:05.4	98.490	0.120	-0.120	0.860
2020/01/31 15:41:05.5	98.480	0.140	-0.170	0.840
2020/01/31 15:41:05.6	98.470	0.150	-0.230	0.820
2020/01/31 15:41:05.7	98.460	0.160	-0.280	0.810
2020/01/31 15:41:05.8	98.440	0.170	-0.340	0.790
2020/01/31 15:41:05.9	98.430	0.180	-0.400	0.780
2020/01/31 15:41:06.0	98.420	0.190	-0.460	0.760
2020/01/31 15:41:06.1	98.400	0.210	-0.520	0.750
2020/01/31 15:41:06.2	98.390	0.220	-0.580	0.730
2020/01/31 15:41:06.3	98.380	0.230	-0.640	0.710
2020/01/31 15:41:06.4	98.360	0.250	-0.700	0.700
2020/01/31 15:41:06.5	98.350	0.260	-0.760	0.680
2020/01/31 15:41:06.6	98.340	0.270	-0.820	0.660
2020/01/31 15:41:06.7	98.320	0.280	-0.870	0.650
2020/01/31 15:41:06.8	98.310	0.300	-0.920	0.630
2020/01/31 15:41:06.9	98.300	0.310	-0.970	0.610
2020/01/31 15:41:07.0	98.290	0.320	-1.020	0.600
2020/01/31 15:41:07.1	98.280	0.330	-1.060	0.580
2020/01/31 15:41:07.2	98.280	0.340	-1.100	0.570
2020/01/31 15:41:07.3	98.270	0.350	-1.130	0.550
2020/01/31 15:41:07.4	98.270	0.360	-1.160	0.540
2020/01/31 15:41:07.5	98.260	0.360	-1.180	0.520
2020/01/31 15:41:07.6	98.260	0.360	-1.190	0.510
2020/01/31 15:41:07.7	98.250	0.370	-1.200	0.500
2020/01/31 15:41:07.8	98.250	0.360	-1.190	0.490
2020/01/31 15:41:07.9	98.250	0.360	-1.190	0.470
2020/01/31 15:41:08.0	98.250	0.350	-1.170	0.460
2020/01/31 15:41:08.1	98.260	0.350	-1.150	0.450
2020/01/31 15:41:08.2	98.260	0.330	-1.120	0.440
2020/01/31 15:41:08.3	98.260	0.320	-1.080	0.440
2020/01/31 15:41:08.4	98.260	0.300	-1.030	0.430
2020/01/31 15:41:08.5	98.260	0.280	-0.980	0.420
2020/01/31 15:41:08.6	98.260	0.260	-0.920	0.420
2020/01/31 15:41:08.7	98.270	0.230	-0.850	0.410
2020/01/31 15:41:08.8	98.270	0.210	-0.780	0.410
2020/01/31 15:41:08.9	98.270	0.170	-0.700	0.410
2020/01/31 15:41:09.0	98.270	0.140	-0.610	0.410
2020/01/31 15:41:09.1	98.270	0.110	-0.530	0.410
2020/01/31 15:41:09.2	98.260	0.070	-0.440	0.410
2020/01/31 15:41:09.3	98.260	0.030	-0.340	0.410
2020/01/31 15:41:09.4	98.250	-0.010	-0.250	0.420
2020/01/31 15:41:09.5	98.250	-0.050	-0.150	0.420
2020/01/31 15:41:09.6	98.240	-0.090	-0.060	0.430
2020/01/31 15:41:09.7	98.230	-0.130	0.040	0.440
2020/01/31 15:41:09.8	98.220	-0.170	0.130	0.450
2020/01/31 15:41:09.9	98.210	-0.220	0.230	0.460
2020/01/31 15:41:10.0	98.200	-0.260	0.320	0.460
2020/01/31 15:41:10.1	98.200	-0.300	0.400	0.470
2020/01/31 15:41:10.2	98.190	-0.330	0.480	0.480
2020/01/31 15:41:10.3	98.180	-0.370	0.560	0.480
2020/01/31 15:41:10.4	98.170	-0.400	0.630	0.480
2020/01/31 15:41:10.5	98.170	-0.440	0.690	0.480
2020/01/31 15:41:10.6	98.160	-0.470	0.750	0.480
2020/01/31 15:41:10.7	98.160	-0.490	0.800	0.480
2020/01/31 15:41:10.8	98.160	-0.520	0.850	0.480
2020/01/31 15:41:10.9	98.160	-0.540	0.880	0.470
2020/01/31 15:41:11.0	98.160	-0.550	0.910	0.460
2020/01/31 15:41:11.1	98.160	-0.570	0.930	0.440
2020/01/31 15:41:11.2	98.170	-0.580	0.950	0.430
2020/01/31 15:41:11.3	98.180	-0.580	0.950	0.410
2020/01/31 15:41:11.4	98.180	-0.590	0.950	0.390
2020/01/31 15:41:11.5	98.190	-0.580	0.940	0.370
2020/01/31 15:41:11.6	98.200	-0.580	0.930	0.340
2020/01/31 15:41:11.7	98.210	-0.570	0.910	0.320
2020/01/31 15:41:11.8	98.230	-0.560	0.890	0.290
2020/01/31 15:41:11.9	98.240	-0.550	0.860	0.270
2020/01/31 15:41:12.0	98.250	-0.530	0.820	0.240
2020/01/31 15:41:12.1	98.270	-0.510	0.780	0.210
2020/01/31 15:41:12.2	98.290	-0.490	0.740	0.180
2020/01/31 15:41:12.3	98.300	-0.460	0.690	0.160
2020/01/31 15:41:12.4	98.320	-0.430	0.640	0.130
2020/01/31 15:41:12.5	98.340	-0.400	0.580	0.100
2020/01/31 15:41:12.6	98.350	-0.370	0.520	0.080
2020/01/31 15:41:12.7	98.370	-0.340	0.470	0.060
2020/01/31 15:41:12.8	98.390	-0.300	0.400	0.030
2020/01/31 15:41:12.9	98.410	-0.260	0.340	0.010
2020/01/31 15:41:13.0	98.420	-0.230	0.270	-0.010
2020/01/31 15:41:13.1	98.440	-0.190	0.200	-0.030
2020/01/31 15:41:13.2	98.460	-0.150	0.140	-0.040
2020/01/31 15:41:13.3	98.480	-0.100	0.070	-0.060
2020/01/31 15:41:13.4	98.500	-0.060	-0.010	-0.070
2020/01/31 15:41:13.5	98.510	-0.020	-0.080	-0.080
2020/01/31 15:41:13.6	98.530	0.020	-0.150	-0.090
2020/01/31 15:41:13.7	98.540	0.070	-0.230	-0.100
2020/01/31 15:41:13.8	98.560	0.110	-0.300	-0.110
2020/01/31 15:41:13.9	98.570	0.150	-0.380	-0.110
2020/01/31 15:41:14.0	98.580	0.200	-0.450	-0.110
2020/01/31 15:41:14.1	98.600	0.240	-0.520	-0.110
2020/01/31 15:41:14.2	98.610	0.280	-0.600	-0.110
2020/01/31 15:41:14.3	98.620	0.320	-0.670	-0.110
2020/01/31 15:41:14.4	98.630	0.360	-0.740	-0.110
2020/01/31 15:41:14.5	98.640	0.400	-0.810	-0.100
2020/01/31 15:41:14.6	98.650	0.440	-0.880	-0.090
2020/01/31 15:41:14.7	98.650	0.480	-0.950	-0.080
2020/01/31 15:41:14.8	98.660	0.520	-1.010	-0.070
2020/01/31 15:41:14.9	98.660	0.550	-1.070	-0.050
2020/01/31 15:41:15.0	98.670	0.590	-1.130	-0.040
2020/01/31 15:41:15.1	98.670	0.620	-1.180	-0.020
2020/01/31 15:41:15.2	98.680	0.650	-1.230	-0.000
2020/01/31 15:41:15.3	98.680	0.680	-1.280	0.020
2020/01/31 15:41:15.4	98.680	0.700	-1.310	0.040
2020/01/31 15:41:15.5	98.690	0.730	-1.350	0.060
2020/01/31 15:41:15.6	98.690	0.750	-1.370	0.090
2020/01/31 15:41:15.7	98.690	0.770	-1.390	0.120
2020/01/31 15:41:15.8	98.690	0.780	-1.410	0.150
2020/01/31 15:41:15.9	98.690	0.790	-1.410	0.180
2020/01/31 15:41:16.0	98.690	0.800	-1.410	0.210
2020/01/31 15:41:16.1	98.700	0.810	-1.400	0.240
2020/01/31 15:41:16.2	98.700	0.810	-1.380	0.280
2020/01/31 15:41:16.3	98.700	0.810	-1.360	0.320
2020/01/31 15:41:16.4	98.710	0.800	-1.320	0.350
2020/01/31 15:41:16.5	98.710	0.790	-1.280	0.390
2020/01/31 15:41:16.6	98.710	0.780	-1.230	0.430
2020/01/31 15:41:16.7	98.720	0.760	-1.180	0.470
2020/01/31 15:41:16.8	98.720	0.740	-1.110	0.510
2020/01/31 15:41:16.9	98.730	0.720	-1.040	0.550
2020/01/31 15:41:17.0	98.730	0.690	-0.970	0.600
2020/01/31 15:41:17.1	98.740	0.660	-0.890	0.640
2020/01/31 15:41:17.2	98.740	0.620	-0.800	0.680
2020/01/31 15:41:17.3	98.740	0.580	-0.710	0.720
2020/01/31 15:41:17.4	98.750	0.540	-0.610	0.760
2020/01/31 15:41:17.5	98.750	0.500	-0.510	0.810
2020/01/31 15:41:17.6	98.750	0.450	-0.410	0.850
2020/01/31 15:41:17.7	98.750	0.400	-0.300	0.890
2020/01/31 15:41:17.8	98.750	0.350	-0.190	0.930
2020/01/31 15:41:17.9	98.750	0.290	-0.080	0.980
2020/01/31 15:41:18.0	98.750	0.230	0.020	1.020
2020/01/31 15:41:18.1	98.750	0.180	0.130	1.060
2020/01/31 15:41:18.2	98.750	0.120	0.240	1.100
2020/01/31 15:41:18.3	98.740	0.060	0.340	1.140
2020/01/31 15:41:18.4	98.740	-0.000	0.440	1.170
2020/01/31 15:41:18.5	98.740	-0.070	0.540	1.210
2020/01/31 15:41:18.6	98.730	-0.130	0.630	1.250
2020/01/31 15:41:18.7	98.730	-0.190	0.720	1.280
2020/01/31 15:41:18.8	98.720	-0.250	0.810	1.310
2020/01/31 15:41:18.9	98.720	-0.310	0.880	1.340
2020/01/31 15:41:19.0	98.720	-0.360	0.960	1.370
2020/01/31 15:41:19.1	98.720	-0.420	1.020	1.390
2020/01/31 15:41:19.2	98.720	-0.470	1.080	1.410
2020/01/31 15:41:19.3	98.720	-0.520	1.130	1.430
2020/01/31 15:41:19.4	98.720	-0.570	1.170	1.450
2020/01/31 15:41:19.5	98.720	-0.620	1.210	1.470
2020/01/31 15:41:19.6	98.720	-0.660	1.230	1.480
2020/01/31 15:41:19.7	98.730	-0.700	1.250	1.490
2020/01/31 15:41:19.8	98.740	-0.740	1.260	1.500
2020/01/31 15:41:19.9	98.750	-0.770	1.260	1.510
2020/01/31 15:41:20.0	98.750	-0.800	1.250	1.510
2020/01/31 15:41:20.1	98.760	-0.820	1.230	1.510
2020/01/31 15:41:20.2	98.770	-0.840	1.200	1.510
2020/01/31 15:41:20.3	98.790	-0.860	1.160	1.510
2020/01/31 15:41:20.4	98.800	-0.870	1.120	1.510
2020/01/31 15:41:20.5	98.810	-0.880	1.070	1.500
2020/01/31 15:41:20.6	98.820	-0.880	1.010	1.490
2020/01/31 15:41:20.7	98.830	-0.880	0.940	1.480
2020/01/31 15:41:20.8	98.850	-0.880	0.870	1.470
2020/01/31 15:41:20.9	98.860	-0.870	0.790	1.460
2020/01/31 15:41:21.0	98.880	-0.860	0.700	1.440
2020/01/31 15:41:21.1	98.890	-0.840	0.610	1.430
2020/01/31 15:41:21.2	98.910	-0.820	0.520	1.410
2020/01/31 15:41:21.3	98.930	-0.800	0.420	1.390
2020/01/31 15:41:21.4	98.940	-0.780	0.320	1.370
2020/01/31 15:41:21.5	98.960	-0.750	0.210	1.350
2020/01/31 15:41:21.6	98.970	-0.720	0.110	1.320
2020/01/31 15:41:21.7	98.980	-0.690	0.000	1.300
2020/01/31 15:41:21.8	99.000	-0.650	-0.100	1.280
2020/01/31 15:41:21.9	99.010	-0.610	-0.210	1.250
2020/01/31 15:41:22.0	99.020	-0.580	-0.320	1.220
2020/01/31 15:41:22.1	99.040	-0.540	-0.420	1.190
2020/01/31 15:41:22.2	99.050	-0.490	-0.520	1.160
2020/01/31 15:41:22.3	99.060	-0.450	-0.620	1.120
2020/01/31 15:41:22.4	99.060	-0.410	-0.710	1.090
2020/01/31 15:41:22.5	99.070	-0.370	-0.800	1.060
2020/01/31 15:41:22.6	99.080	-0.320	-0.880	1.020
2020/01/31 15:41:22.7	99.080	-0.280	-0.960	0.980
2020/01/31 15:41:22.8	99.090	-0.240	-1.040	0.940
2020/01/31 15:41:22.9	99.090	-0.190	-1.110	0.900
2020/01/31 15:41:23.0	99.100	-0.150	-1.170	0.860
2020/01/31 15:41:23.1	99.100	-0.110	-1.220	0.820
2020/01/31 15:41:23.2	99.110	-0.070	-1.270	0.780
2020/01/31 15:41:23.3	99.110	-0.020	-1.310	0.730
2020/01/31 15:41:23.4	99.110	0.010	-1.340	0.680
2020/01/31 15:41:23.5	99.120	0.050	-1.370	0.630
2020/01/31 15:41:23.6	99.120	0.090	-1.390	0.580
2020/01/31 15:41:23.7	99.130	0.130	-1.400	0.540
2020/01/31 15:41:23.8	99.130	0.160	-1.400	0.480
2020/01/31 15:41:23.9	99.140	0.190	-1.400	0.430
2020/01/31 15:41:24.0	99.150	0.220	-1.400	0.380
2020/01/31 15:41:24.1	99.150	0.250	-1.380	0.320
2020/01/31 15:41:24.2	99.160	0.280	-1.360	0.270
2020/01/31 15:41:24.3	99.170	0.310	-1.340	0.220
2020/01/31 15:41:24.4	99.180	0.330	-1.310	0.170
2020/01/31 15:41:24.5	99.190	0.350	-1.270	0.110
2020/01/31 15:41:24.6	99.200	0.370	-1.230	0.070
2020/01/31 15:41:24.7	99.210	0.390	-1.190	0.020
2020/01/31 15:41:24.8	99.220	0.410	-1.140	-0.030
2020/01/31 15:41:24.9	99.230	0.420	-1.080	-0.070
2020/01/31 15:41:25.0	99.250	0.430	-1.020	-0.110
2020/01/31 15:41:25.1	99.260	0.440	-0.960	-0.150
2020/01/31 15:41:25.2	99.270	0.450	-0.900	-0.180
2020/01/31 15:41:25.3	99.280	0.460	-0.830	-0.210
2020/01/31 15:41:25.4	99.290	0.460	-0.760	-0.240
2020/01/31 15:41:25.5	99.310	0.470	-0.680	-0.260
2020/01/31 15:41:25.6	99.320	0.470	-0.610	-0.290
2020/01/31 15:41:25.7	99.330	0.470	-0.530	-0.300
2020/01/31 15:41:25.8	99.340	0.460	-0.450	-0.310
2020/01/31 15:41:25.9	99.350	0.460	-0.370	-0.330
2020/01/31 15:41:26.0	99.370	0.450	-0.290	-0.340
2020/01/31 15:41:26.1	99.380	0.440	-0.210	-0.350
2020/01/31 15:41:26.2	99.390	0.430	-0.130	-0.350
2020/01/31 15:41:26.3	99.400	0.420	-0.050	-0.360
2020/01/31 15:41:26.4	99.400	0.400	0.030	-0.360
2020/01/31 15:41:26.5	99.410	0.390	0.100	-0.360
2020/01/31 15:41:26.6	99.420	0.370	0.180	-0.360
2020/01/31 15:41:26.7	99.420	0.360	0.250	-0.350
2020/01/31 15:41:26.8	99.420	0.340	0.320	-0.350
2020/01/31 15:41:26.9	99.430	0.320	0.390	-0.340
2020/01/31 15:41:27.0	99.430	0.300	0.450	-0.330
2020/01/31 15:41:27.1	99.430	0.280	0.510	-0.330
2020/01/31 15:41:27.2	99.430	0.260	0.560	-0.320
2020/01/31 15:41:27.3	99.420	0.240	0.610	-0.310
2020/01/31 15:41:27.4	99.420	0.220	0.650	-0.300
2020/01/31 15:41:27.5	99.410	0.200	0.690	-0.280
2020/01/31 15:41:27.6	99.410	0.190	0.720	-0.270
2020/01/31 15:41:27.7	99.400	0.170	0.740	-0.250
2020/01/31 15:41:27.8	99.390	0.150	0.760	-0.240
2020/01/31 15:41:27.9	99.380	0.140	0.770	-0.230
2020/01/31 15:41:28.0	99.370	0.120	0.780	-0.210
2020/01/31 15:41:28.1	99.360	0.110	0.770	-0.200
2020/01/31 15:41:28.2	99.350	0.100	0.760	-0.180
2020/01/31 15:41:28.3	99.340	0.090	0.750	-0.170
2020/01/31 15:41:28.4	99.330	0.080	0.730	-0.160
2020/01/31 15:41:28.5	99.320	0.070	0.700	-0.150
2020/01/31 15:41:28.6	99.310	0.060	0.670	-0.140
2020/01/31 15:41:28.7	99.310	0.060	0.630	-0.130
2020/01/31 15:41:28.8	99.300	0.060	0.590	-0.120
2020/01/31 15:41:28.9	99.300	0.050	0.550	-0.110
2020/01/31 15:41:29.0	99.300	0.050	0.500	-0.110
2020/01/31 15:41:29.1	99.300	0.050	0.440	-0.110
2020/01/31 15:41:29.2	99.300	0.050	0.380	-0.100
2020/01/31 15:41:29.3	99.300	0.060	0.320	-0.100
2020/01/31 15:41:29.4	99.310	0.060	0.260	-0.100
2020/01/31 15:41:29.5	99.320	0.060	0.200	-0.100
2020/01/31 15:41:29.6	99.330	0.070	0.130	-0.090
2020/01/31 15:41:29.7	99.340	0.070	0.060	-0.090
2020/01/31 15:41:29.8	99.350	0.080	-0.010	-0.090
2020/01/31 15:41:29.9	99.360	0.080	-0.070	-0.080
2020/01/31 15:41:30.0	99.380	0.090	-0.140	-0.070
2020/01/31 15:41:30.1	99.390	0.100	-0.210	-0.070
2020/01/31 15:41:30.2	99.410	0.100	-0.270	-0.050
2020/01/31 15:41:30.3	99.430	0.100	-0.340	-0.040
2020/01/31 15:41:30.4	99.450	0.110	-0.400	-0.020
2020/01/31 15:41:30.5	99.460	0.110	-0.460	-0.010
2020/01/31 15:41:30.6	99.480	0.110	-0.510	0.020
2020/01/31 15:41:30.7	99.510	0.110	-0.560	0.050
2020/01/31 15:41:30.8	99.520	0.110	-0.610	0.080
2020/01/31 15:41:30.9	99.540	0.110	-0.650	0.110
2020/01/31 15:41:31.0	99.550	0.110	-0.690	0.150
2020/01/31 15:41:31.1	99.570	0.100	-0.720	0.190
2020/01/31 15:41:31.2	99.580	0.100	-0.750	0.230
2020/01/31 15:41:31.3	99.590	0.090	-0.780	0.280
2020/01/31 15:41:31.4	99.600	0.080	-0.790	0.330
2020/01/31 15:41:31.5	99.610	0.070	-0.800	0.380
2020/01/31 15:41:31.6	99.620	0.050	-0.810	0.430
2020/01/31 15:41:31.7	99.620	0.040	-0.810	0.490
2020/01/31 15:41:31.8	99.630	0.020	-0.810	0.550
2020/01/31 15:41:31.9	99.640	0.000	-0.800	0.600
2020/01/31 15:41:32.0	99.640	-0.020	-0.790	0.660
2020/01/31 15:41:32.1	99.640	-0.040	-0.770	0.720
2020/01/31 15:41:32.2	99.650	-0.060	-0.740	0.770
2020/01/31 15:41:32.3	99.650	-0.080	-0.720	0.820
2020/01/31 15:41:32.4	99.660	-0.110	-0.680	0.880
2020/01/31 15:41:32.5	99.660	-0.130	-0.650	0.930
2020/01/31 15:41:32.6	99.670	-0.160	-0.610	0.980
2020/01/31 15:41:32.7	99.660	-0.180	-0.570	1.020
2020/01/31 15:41:32.8	99.670	-0.210	-0.530	1.070
2020/01/31 15:41:32.9	99.670	-0.230	-0.480	1.110
2020/01/31 15:41:33.0	99.680	-0.260	-0.440	1.150
2020/01/31 15:41:33.1	99.690	-0.290	-0.390	1.190
2020/01/31 15:41:33.2	99.690	-0.310	-0.340	1.230
2020/01/31 15:41:33.3	99.700	-0.330	-0.290	1.260
2020/01/31 15:41:33.4	99.710	-0.360	-0.250	1.290
2020/01/31 15:41:33.5	99.720	-0.380	-0.200	1.320
2020/01/31 15:41:33.6	99.730	-0.400	-0.150	1.350
2020/01/31 15:41:33.7	99.730	-0.420	-0.110	1.370
2020/01/31 15:41:33.8	99.740	-0.440	-0.060	1.400
2020/01/31 15:41:33.9	99.750	-0.450	-0.020	1.410
2020/01/31 15:41:34.0	99.760	-0.470	0.020	1.430
2020/01/31 15:41:34.1	99.770	-0.480	0.050	1.440
2020/01/31 15:41:34.2	99.780	-0.480	0.090	1.450
2020/01/31 15:41:34.3	99.790	-0.490	0.120	1.460
2020/01/31 15:41:34.4	99.800	-0.490	0.150	1.470
2020/01/31 15:41:34.5	99.810	-0.490	0.170	1.480
2020/01/31 15:41:34.6	99.810	-0.490	0.190	1.490
2020/01/31 15:41:34.7	99.830	-0.490	0.210	1.500
2020/01/31 15:41:34.8	99.830	-0.480	0.220	1.500
2020/01/31 15:41:34.9	99.840	-0.470	0.230	1.500
2020/01/31 15:41:35.0	99.850	-0.450	0.240	1.510
2020/01/31 15:41:35.1	99.850	-0.440	0.240	1.510
2020/01/31 15:41:35.2	99.860	-0.420	0.240	1.510
2020/01/31 15:41:35.3	99.860	-0.400	0.240	1.510
2020/01/31 15:41:35.4	99.860	-0.380	0.230	1.520
2020/01/31 15:41:35.5	99.870	-0.350	0.220	1.520
2020/01/31 15:41:35.6	99.870	-0.330	0.210	1.520
2020/01/31 15:41:35.7	99.870	-0.300	0.190	1.510
2020/01/31 15:41:35.8	99.870	-0.270	0.170	1.510
2020/01/31 15:41:35.9	99.880	-0.240	0.150	1.510
2020/01/31 15:41:36.0	99.880	-0.210	0.130	1.500
2020/01/31 15:41:36.1	99.880	-0.180	0.100	1.490
2020/01/31 15:41:36.2	99.880	-0.150	0.070	1.480
2020/01/31 15:41:36.3	99.880	-0.120	0.050	1.470
2020/01/31 15:41:36.4	99.880	-0.090	0.010	1.450
2020/01/31 15:41:36.5	99.880	-0.060	-0.020	1.430
2020/01/31 15:41:36.6	99.880	-0.030	-0.050	1.410
2020/01/31 15:41:36.7	99.890	-0.000	-0.080	1.390
2020/01/31 15:41:36.8	99.890	0.030	-0.120	1.360
2020/01/31 15:41:36.9	99.890	0.050	-0.150	1.320
2020/01/31 15:41:37.0	99.890	0.080	-0.180	1.290
2020/01/31 15:41:37.1	99.900	0.100	-0.220	1.240
2020/01/31 15:41:37.2	99.900	0.130	-0.250	1.200
2020/01/31 15:41:37.3	99.900	0.150	-0.280	1.150
2020/01/31 15:41:37.4	99.910	0.170	-0.310	1.090
2020/01/31 15:41:37.5	99.910	0.190	-0.340	1.030
2020/01/31 15:41:37.6	99.920	0.210	-0.360	0.970
2020/01/31 15:41:37.7	99.930	0.220	-0.380	0.910
2020/01/31 15:41:37.8	99.930	0.240	-0.400	0.840
2020/01/31 15:41:37.9	99.940	0.250	-0.420	0.770
2020/01/31 15:41:38.0	99.950	0.260	-0.430	0.690
2020/01/31 15:41:38.1	99.950	0.270	-0.440	0.620
2020/01/31 15:41:38.2	99.960	0.280	-0.450	0.540
2020/01/31 15:41:38.3	99.960	0.290	-0.450	0.470
2020/01/31 15:41:38.4	99.970	0.290	-0.450	0.390
2020/01/31 15:41:38.5	99.970	0.290	-0.450	0.320
2020/01/31 15:41:38.6	99.980	0.300	-0.450	0.240
2020/01/31 15:41:38.7	99.980	0.300	-0.440	0.170
2020/01/31 15:41:38.8	99.980	0.300	-0.420	0.100
2020/01/31 15:41:38.9	99.980	0.300	-0.410	0.030
2020/01/31 15:41:39.0	99.980	0.290	-0.390	-0.040
2020/01/31 15:41:39.1	99.980	0.290	-0.370	-0.100
2020/01/31 15:41:39.2	99.980	0.290	-0.350	-0.170
2020/01/31 15:41:39.3	99.980	0.280	-0.330	-0.230
2020/01/31 15:41:39.4	99.970	0.280	-0.310	-0.280
2020/01/31 15:41:39.5	99.970	0.270	-0.280	-0.340
2020/01/31 15:41:39.6	99.960	0.270	-0.260	-0.390
2020/01/31 15:41:39.7	99.960	0.260	-0.230	-0.440
2020/01/31 15:41:39.8	99.950	0.250	-0.210	-0.480
2020/01/31 15:41:39.9	99.940	0.240	-0.180	-0.520
2020/01/31 15:41:40.0	99.930	0.230	-0.160	-0.560
2020/01/31 15:41:40.1	99.920	0.230	-0.140	-0.600
2020/01/31 15:41:40.2	99.910	0.220	-0.120	-0.630
2020/01/31 15:41:40.3	99.900	0.210	-0.110	-0.660
2020/01/31 15:41:40.4	99.890	0.200	-0.100	-0.690
2020/01/31 15:41:40.5	99.880	0.190	-0.090	-0.720
2020/01/31 15:41:40.6	99.870	0.190	-0.080	-0.740
2020/01/31 15:41:40.7	99.860	0.180	-0.070	-0.760
2020/01/31 15:41:40.8	99.850	0.170	-0.070	-0.770
2020/01/31 15:41:40.9	99.840	0.170	-0.070	-0.790
2020/01/31 15:41:41.0	99.830	0.160	-0.080	-0.800
2020/01/31 15:41:41.1	99.820	0.150	-0.090	-0.810
2020/01/31 15:41:41.2	99.810	0.150	-0.100	-0.820
2020/01/31 15:41:41.3	99.800	0.140	-0.110	-0.820
2020/01/31 15:41:41.4	99.790	0.140	-0.130	-0.820
2020/01/31 15:41:41.5	99.790	0.140	-0.150	-0.830
2020/01/31 15:41:41.6	99.780	0.140	-0.170	-0.830
2020/01/31 15:41:41.7	99.790	0.140	-0.190	-0.820
2020/01/31 15:41:41.8	99.780	0.140	-0.210	-0.820
2020/01/31 15:41:41.9	99.780	0.140	-0.240	-0.810
2020/01/31 15:41:42.0	99.780	0.140	-0.270	-0.800
2020/01/31 15:41:42.1	99.790	0.140	-0.300	-0.790
2020/01/31 15:41:42.2	99.790	0.140	-0.330	-0.790
2020/01/31 15:41:42.3	99.800	0.150	-0.360	-0.770
2020/01/31 15:41:42.4	99.810	0.150	-0.390	-0.760
2020/01/31 15:41:42.5	99.820	0.160	-0.420	-0.750
2020/01/31 15:41:42.6	99.840	0.160	-0.450	-0.730
2020/01/31 15:41:42.7	99.850	0.170	-0.480	-0.710
2020/01/31 15:41:42.8	99.870	0.180	-0.510	-0.690
2020/01/31 15:41:42.9	99.890	0.180	-0.540	-0.670
2020/01/31 15:41:43.0	99.910	0.190	-0.560	-0.640
2020/01/31 15:41:43.1	99.940	0.200	-0.580	-0.610
2020/01/31 15:41:43.2	99.960	0.200	-0.610	-0.590
2020/01/31 15:41:43.3	99.980	0.210	-0.620	-0.550
2020/01/31 15:41:43.4	100.010	0.220	-0.640	-0.520
2020/01/31 15:41:43.5	100.040	0.220	-0.650	-0.480
2020/01/31 15:41:43.6	100.060	0.230	-0.660	-0.440
2020/01/31 15:41:43.7	100.080	0.230	-0.670	-0.390
2020/01/31 15:41:43.8	100.110	0.240	-0.670	-0.340
2020/01/31 15:41:43.9	100.130	0.240	-0.670	-0.290
2020/01/31 15:41:44.0	100.160	0.240	-0.660	-0.240
2020/01/31 15:41:44.1	100.180	0.240	-0.650	-0.180
2020/01/31 15:41:44.2	100.200	0.240	-0.640	-0.120
2020/01/31 15:41:44.3	100.210	0.230	-0.620	-0.060
2020/01/31 15:41:44.4	100.230	0.230	-0.590	0.010
2020/01/31 15:41:44.5	100.240	0.220	-0.570	0.080
2020/01/31 15:41:44.6	100.260	0.210	-0.530	0.150
2020/01/31 15:41:44.7	100.260	0.200	-0.490	0.230
2020/01/31 15:41:44.8	100.270	0.180	-0.450	0.310
2020/01/31 15:41:44.9	100.280	0.170	-0.400	0.380
2020/01/31 15:41:45.0	100.280	0.150	-0.350	0.460
2020/01/31 15:41:45.1	100.280	0.130	-0.300	0.540
2020/01/31 15:41:45.2	100.280	0.100	-0.240	0.620
2020/01/31 15:41:45.3	100.280	0.080	-0.170	0.700
2020/01/31 15:41:45.4	100.270	0.050	-0.110	0.780
2020/01/31 15:41:45.5	100.260	0.020	-0.040	0.850
2020/01/31 15:41:45.6	100.250	-0.010	0.030	0.930
2020/01/31 15:41:45.7	100.240	-0.050	0.110	1.010
2020/01/31 15:41:45.8	100.230	-0.080	0.180	1.090
2020/01/31 15:41:45.9	100.210	-0.120	0.260	1.160
2020/01/31 15:41:46.0	100.190	-0.150	0.330	1.230
2020/01/31 15:41:46.1	100.170	-0.190	0.410	1.290
2020/01/31 15:41:46.2	100.150	-0.230	0.480	1.360
2020/01/31 15:41:46.3	100.130	-0.270	0.550	1.420
2020/01/31 15:41:46.4	100.110	-0.310	0.620	1.480
2020/01/31 15:41:46.5	100.080	-0.350	0.690	1.530
2020/01/31 15:41:46.6	100.060	-0.390	0.750	1.590
2020/01/31 15:41:46.7	100.040	-0.420	0.810	1.640
2020/01/31 15:41:46.8	100.010	-0.460	0.860	1.680
2020/01/31 15:41:46.9	99.990	-0.490	0.910	1.720
2020/01/31 15:41:47.0	99.960	-0.530	0.940	1.760
2020/01/31 15:41:47.1	99.940	-0.560	0.980	1.790
2020/01/31 15:41:47.2	99.920	-0.590	1.000	1.820
2020/01/31 15:41:47.3	99.890	-0.610	1.010	1.840
2020/01/31 15:41:47.4	99.870	-0.640	1.020	1.860
2020/01/31 15:41:47.5	99.850	-0.660	1.020	1.870
2020/01/31 15:41:47.6	99.830	-0.670	1.010	1.880
2020/01/31 15:41:47.7	99.820	-0.690	0.980	1.890
2020/01/31 15:41:47.8	99.810	-0.700	0.960	1.890
2020/01/31 15:41:47.9	99.790	-0.700	0.920	1.890
2020/01/31 15:41:48.0	99.780	-0.710	0.870	1.880
2020/01/31 15:41:48.1	99.780	-0.710	0.810	1.870
2020/01/31 15:41:48.2	99.780	-0.700	0.750	1.850
2020/01/31 15:41:48.3	99.770	-0.700	0.680	1.830
2020/01/31 15:41:48.4	99.780	-0.680	0.600	1.810
2020/01/31 15:41:48.5	99.780	-0.670	0.510	1.780
2020/01/31 15:41:48.6	99.790	-0.650	0.420	1.750
2020/01/31 15:41:48.7	99.810	-0.630	0.320	1.710
2020/01/31 15:41:48.8	99.820	-0.600	0.220	1.670
2020/01/31 15:41:48.9	99.840	-0.570	0.110	1.620
2020/01/31 15:41:49.0	99.860	-0.540	0.000	1.580
2020/01/31 15:41:49.1	99.880	-0.510	-0.110	1.530
2020/01/31 15:41:49.2	99.910	-0.470	-0.220	1.470
2020/01/31 15:41:49.3	99.930	-0.430	-0.330	1.420
2020/01/31 15:41:49.4	99.960	-0.390	-0.450	1.360
2020/01/31 15:41:49.5	99.990	-0.350	-0.550	1.300
2020/01/31 15:41:49.6	100.020	-0.310	-0.660	1.250
2020/01/31 15:41:49.7	100.060	-0.260	-0.760	1.190
2020/01/31 15:41:49.8	100.090	-0.220	-0.860	1.130
2020/01/31 15:41:49.9	100.120	-0.170	-0.960	1.070
2020/01/31 15:41:50.0	100.150	-0.130	-1.040	1.020
2020/01/31 15:41:50.1	100.180	-0.080	-1.120	0.960
2020/01/31 15:41:50.2	100.200	-0.040	-1.200	0.910
2020/01/31 15:41:50.3	100.230	0.000	-1.260	0.860
2020/01/31 15:41:50.4	100.250	0.050	-1.320	0.810
2020/01/31 15:41:50.5	100.280	0.090	-1.360	0.760
2020/01/31 15:41:50.6	100.290	0.120	-1.400	0.720
2020/01/31 15:41:50.7	100.300	0.160	-1.430	0.680
2020/01/31 15:41:50.8	100.320	0.200	-1.450	0.640
2020/01/31 15:41:50.9	100.330	0.230	-1.460	0.610
2020/01/31 15:41:51.0	100.330	0.260	-1.460	0.570
2020/01/31 15:41:51.1	100.340	0.280	-1.450	0.540
2020/01/31 15:41:51.2	100.340	0.310	-1.430	0.510
2020/01/31 15:41:51.3	100.330	0.330	-1.410	0.480
2020/01/31 15:41:51.4	100.330	0.350	-1.370	0.450
2020/01/31 15:41:51.5	100.320	0.360	-1.330	0.430
2020/01/31 15:41:51.6	100.310	0.380	-1.280	0.400
2020/01/31 15:41:51.7	100.310	0.390	-1.220	0.380
2020/01/31 15:41:51.8	100.300	0.390	-1.160	0.360
2020/01/31 15:41:51.9	100.280	0.400	-1.090	0.340
2020/01/31 15:41:52.0	100.260	0.400	-1.020	0.310
2020/01/31 15:41:52.1	100.240	0.400	-0.940	0.290
2020/01/31 15:41:52.2	100.220	0.400	-0.870	0.270
2020/01/31 15:41:52.3	100.200	0.400	-0.790	0.250
2020/01/31 15:41:52.4	100.180	0.400	-0.700	0.230
2020/01/31 15:41:52.5	100.160	0.390	-0.620	0.210
2020/01/31 15:41:52.6	100.140	0.380	-0.540	0.190
2020/01/31 15:41:52.7	100.120	0.380	-0.460	0.180
2020/01/31 15:41:52.8	100.090	0.370	-0.380	0.160
2020/01/31 15:41:52.9	100.070	0.360	-0.300	0.140
2020/01/31 15:41:53.0	100.050	0.350	-0.220	0.120
2020/01/31 15:41:53.1	100.020	0.340	-0.140	0.100
2020/01/31 15:41:53.2	100.000	0.330	-0.070	0.080
2020/01/31 15:41:53.3	99.980	0.320	-0.000	0.060
2020/01/31 15:41:53.4	99.960	0.310	0.060	0.050
2020/01/31 15:41:53.5	99.930	0.300	0.120	0.030
2020/01/31 15:41:53.6	99.910	0.290	0.180	0.020
2020/01/31 15:41:53.7	99.880	0.280	0.230	0.000
2020/01/31 15:41:53.8	99.860	0.270	0.270	-0.010
2020/01/31 15:41:53.9	99.840	0.260	0.310	-0.020
2020/01/31 15:41:54.0	99.810	0.250	0.350	-0.030
2020/01/31 15:41:54.1	99.790	0.240	0.380	-0.040
2020/01/31 15:41:54.2	99.760	0.230	0.410	-0.050
2020/01/31 15:41:54.3	99.740	0.220	0.430	-0.060
2020/01/31 15:41:54.4	99.720	0.220	0.450	-0.060
2020/01/31 15:41:54.5	99.690	0.210	0.460	-0.060
2020/01/31 15:41:54.6	99.670	0.210	0.470	-0.070
2020/01/31 15:41:54.7	99.640	0.200	0.470	-0.060
2020/01/31 15:41:54.8	99.610	0.200	0.470	-0.060
2020/01/31 15:41:54.9	99.590	0.190	0.470	-0.060
2020/01/31 15:41:55.0	99.570	0.190	0.460	-0.060
2020/01/31 15:41:55.1	99.540	0.190	0.450	-0.050
2020/01/31 15:41:55.2	99.520	0.180	0.430	-0.050
2020/01/31 15:41:55.3	99.500	0.180	0.410	-0.050
2020/01/31 15:41:55.4	99.480	0.180	0.390	-0.040
2020/01/31 15:41:55.5	99.460	0.180	0.360	-0.030
2020/01/31 15:41:55.6	99.440	0.180	0.330	-0.030
2020/01/31 15:41:55.7	99.420	0.180	0.300	-0.020
2020/01/31 15:41:55.8	99.410	0.180	0.270	-0.020
2020/01/31 15:41:55.9	99.400	0.180	0.230	-0.020
2020/01/31 15:41:56.0	99.390	0.180	0.200	-0.020
2020/01/31 15:41:56.1	99.390	0.180	0.160	-0.020
2020/01/31 15:41:56.2	99.390	0.180	0.110	-0.020
2020/01/31 15:41:56.3	99.390	0.180	0.070	-0.030
2020/01/31 15:41:56.4	99.390	0.180	0.030	-0.040
2020/01/31 15:41:56.5	99.400	0.180	-0.020	-0.050
2020/01/31 15:41:56.6	99.410	0.180	-0.060	-0.060
2020/01/31 15:41:56.7	99.430	0.180	-0.110	-0.070
2020/01/31 15:41:56.8	99.440	0.180	-0.150	-0.090
2020/01/31 15:41:56.9	99.460	0.180	-0.190	-0.110
2020/01/31 15:41:57.0	99.480	0.180	-0.240	-0.130
2020/01/31 15:41:57.1	99.510	0.180	-0.280	-0.150
2020/01/31 15:41:57.2	99.530	0.170	-0.310	-0.170
2020/01/31 15:41:57.3	99.560	0.170	-0.350	-0.190
2020/01/31 15:41:57.4	99.580	0.170	-0.380	-0.210
2020/01/31 15:41:57.5	99.610	0.160	-0.410	-0.220
2020/01/31 15:41:57.6	99.640	0.150	-0.440	-0.240
2020/01/31 15:41:57.7	99.660	0.150	-0.460	-0.250
2020/01/31 15:41:57.8	99.690	0.140	-0.480	-0.260
2020/01/31 15:41:57.9	99.720	0.130	-0.490	-0.270
2020/01/31 15:41:58.0	99.750	0.120	-0.500	-0.270
2020/01/31 15:41:58.1	99.770	0.110	-0.510	-0.270
2020/01/31 15:41:58.2	99.800	0.100	-0.510	-0.270
2020/01/31 15:41:58.3	99.830	0.090	-0.510	-0.260
2020/01/31 15:41:58.4	99.850	0.070	-0.500	-0.250
2020/01/31 15:41:58.5	99.870	0.060	-0.490	-0.230
2020/01/31 15:41:58.6	99.900	0.050	-0.470	-0.210
2020/01/31 15:41:58.7	99.920	0.030	-0.450	-0.170
2020/01/31 15:41:58.8	99.940	0.020	-0.420	-0.140
2020/01/31 15:41:58.9	99.960	0.000	-0.400	-0.100
2020/01/31 15:41:59.0	99.980	-0.020	-0.360	-0.060
2020/01/31 15:41:59.1	100.000	-0.030	-0.330	-0.020
2020/01/31 15:41:59.2	100.010	-0.050	-0.290	0.040
2020/01/31 15:41:59.3	100.030	-0.070	-0.250	0.090
2020/01/31 15:41:59.4	100.040	-0.080	-0.210	0.150
2020/01/31 15:41:59.5	100.060	-0.100	-0.170	0.210
2020/01/31 15:41:59.6	100.070	-0.120	-0.130	0.270
2020/01/31 15:41:59.7	100.080	-0.130	-0.080	0.350
2020/01/31 15:41:59.8	100.090	-0.150	-0.040	0.420
2020/01/31 15:41:59.9	100.100	-0.170	0.000	0.490
2020/01/31 15:42:00.0	100.110	-0.180	0.040	0.560
2020/01/31 15:42:00.1	100.110	-0.200	0.080	0.640
2020/01/31 15:42:00.2	100.120	-0.210	0.110	0.720
2020/01/31 15:42:00.3	100.120	-0.230	0.140	0.790
2020/01/31 15:42:00.4	100.120	-0.240	0.170	0.870
2020/01/31 15:42:00.5	100.120	-0.250	0.190	0.950
2020/01/31 15:42:00.6	100.120	-0.260	0.210	1.020
2020/01/31 15:42:00.7	100.120	-0.270	0.230	1.100
2020/01/31 15:42:00.8	100.110	-0.280	0.240	1.170
2020/01/31 15:42:00.9	100.110	-0.290	0.240	1.250
2020/01/31 15:42:01.0	100.110	-0.300	0.240	1.320
2020/01/31 15:42:01.1	100.100	-0.300	0.230	1.390
2020/01/31 15:42:01.2	100.090	-0.310	0.220	1.450
2020/01/31 15:42:01.3	100.090	-0.310	0.200	1.520
2020/01/31 15:42:01.4	100.080	-0.310	0.180	1.580
2020/01/31 15:42:01.5	100.070	-0.310	0.160	1.640
2020/01/31 15:42:01.6	100.060	-0.300	0.120	1.700
2020/01/31 15:42:01.7	100.050	-0.300	0.090	1.750
2020/01/31 15:42:01.8	100.040	-0.290	0.050	1.810
2020/01/31 15:42:01.9	100.030	-0.290	0.000	1.860
2020/01/31 15:42:02.0	100.020	-0.280	-0.040	1.900
2020/01/31 15:42:02.1	100.000	-0.270	-0.090	1.940
2020/01/31 15:42:02.2	99.990	-0.260	-0.140	1.980
2020/01/31 15:42:02.3	99.970	-0.250	-0.200	2.020
2020/01/31 15:42:02.4	99.960	-0.230	-0.250	2.050
2020/01/31 15:42:02.5	99.950	-0.220	-0.300	2.080
2020/01/31 15:42:02.6	99.930	-0.210	-0.350	2.110
2020/01/31 15:42:02.7	99.920	-0.190	-0.400	2.140
2020/01/31 15:42:02.8	99.900	-0.180	-0.450	2.160
2020/01/31 15:42:02.9	99.890	-0.170	-0.490	2.180
2020/01/31 15:42:03.0	99.870	-0.150	-0.530	2.190
2020/01/31 15:42:03.1	99.860	-0.140	-0.570	2.200
2020/01/31 15:42:03.2	99.840	-0.130	-0.600	2.210
2020/01/31 15:42:03.3	99.830	-0.120	-0.630	2.220
2020/01/31 15:42:03.4	99.810	-0.110	-0.660	2.220
2020/01/31 15:42:03.5	99.800	-0.100	-0.670	2.220
2020/01/31 15:42:03.6	99.780	-0.090	-0.690	2.220
2020/01/31 15:42:03.7	99.770	-0.080	-0.700	2.220
2020/01/31 15:42:03.8	99.760	-0.070	-0.700	2.210
2020/01/31 15:42:03.9	99.740	-0.070	-0.700	2.200
2020/01/31 15:42:04.0	99.730	-0.060	-0.690	2.190
2020/01/31 15:42:04.1	99.720	-0.060	-0.680	2.170
2020/01/31 15:42:04.2	99.710	-0.060	-0.660	2.150
2020/01/31 15:42:04.3	99.710	-0.050	-0.640	2.130
2020/01/31 15:42:04.4	99.700	-0.050	-0.620	2.110
2020/01/31 15:42:04.5	99.690	-0.050	-0.590	2.080
2020/01/31 15:42:04.6	99.690	-0.050	-0.560	2.050
2020/01/31 15:42:04.7	99.680	-0.060	-0.520	2.020
2020/01/31 15:42:04.8	99.680	-0.060	-0.490	1.990
2020/01/31 15:42:04.9	99.680	-0.060	-0.450	1.950
2020/01/31 15:42:05.0	99.670	-0.060	-0.410	1.910
2020/01/31 15:42:05.1	99.670	-0.070	-0.370	1.870
2020/01/31 15:42:05.2	99.680	-0.070	-0.330	1.820
2020/01/31 15:42:05.3	99.680	-0.070	-0.280	1.770
2020/01/31 15:42:05.4	99.680	-0.070	-0.240	1.720
2020/01/31 15:42:05.5	99.690	-0.080	-0.200	1.660
2020/01/31 15:42:05.6	99.700	-0.080	-0.160	1.600
2020/01/31 15:42:05.7	99.700	-0.080	-0.120	1.540
2020/01/31 15:42:05.8	99.710	-0.090	-0.080	1.470
2020/01/31 15:42:05.9	99.730	-0.090	-0.050	1.400
2020/01/31 15:42:06.0	99.740	-0.090	-0.020	1.320
2020/01/31 15:42:06.1	99.760	-0.090	0.020	1.240
2020/01/31 15:42:06.2	99.780	-0.090	0.040	1.160
2020/01/31 15:42:06.3	99.800	-0.090	0.070	1.070
2020/01/31 15:42:06.4	99.820	-0.090	0.090	0.980
2020/01/31 15:42:06.5	99.850	-0.090	0.110	0.880
2020/01/31 15:42:06.6	99.880	-0.090	0.130	0.780
2020/01/31 15:42:06.7	99.910	-0.090	0.140	0.690
2020/01/31 15:42:06.8	99.940	-0.080	0.150	0.580
2020/01/31 15:42:06.9	99.970	-0.080	0.160	0.480
2020/01/31 15:42:07.0	100.010	-0.080	0.170	0.370
2020/01/31 15:42:07.1	100.040	-0.070	0.170	0.260
2020/01/31 15:42:07.2	100.080	-0.070	0.170	0.160
2020/01/31 15:42:07.3	100.110	-0.060	0.170	0.050
2020/01/31 15:42:07.4	100.150	-0.050	0.170	-0.060
2020/01/31 15:42:07.5	100.190	-0.040	0.160	-0.170
2020/01/31 15:42:07.6	100.220	-0.040	0.160	-0.280
2020/01/31 15:42:07.7	100.270	-0.030	0.150	-0.380
2020/01/31 15:42:07.8	100.300	-0.020	0.140	-0.490
2020/01/31 15:42:07.9	100.330	-0.010	0.130	-0.590
2020/01/31 15:42:08.0	100.370	-0.000	0.120	-0.690
2020/01/31 15:42:08.1	100.400	0.010	0.110	-0.780
2020/01/31 15:42:08.2	100.430	0.010	0.090	-0.870
2020/01/31 15:42:08.3	100.450	0.020	0.080	-0.950
2020/01/31 15:42:08.4	100.480	0.030	0.060	-1.030
2020/01/31 15:42:08.5	100.500	0.040	0.050	-1.100
2020/01/31 15:42:08.6	100.520	0.050	0.040	-1.160
2020/01/31 15:42:08.7	100.530	0.060	0.020	-1.220
2020/01/31 15:42:08.8	100.550	0.070	0.010	-1.270
2020/01/31 15:42:08.9	100.550	0.080	-0.010	-1.310
2020/01/31 15:42:09.0	100.560	0.080	-0.020	-1.350
2020/01/31 15:42:09.1	100.560	0.090	-0.040	-1.380
2020/01/31 15:42:09.2	100.560	0.100	-0.060	-1.400
2020/01/31 15:42:09.3	100.560	0.110	-0.080	-1.410
2020/01/31 15:42:09.4	100.550	0.120	-0.090	-1.410
2020/01/31 15:42:09.5	100.550	0.120	-0.110	-1.410
2020/01/31 15:42:09.6	100.530	0.130	-0.130	-1.400
2020/01/31 15:42:09.7	100.520	0.140	-0.150	-1.390
2020/01/31 15:42:09.8	100.510	0.150	-0.180	-1.370
2020/01/31 15:42:09.9	100.490	0.160	-0.200	-1.340
2020/01/31 15:42:10.0	100.470	0.160	-0.220	-1.310
2020/01/31 15:42:10.1	100.450	0.170	-0.250	-1.270
2020/01/31 15:42:10.2	100.430	0.180	-0.280	-1.230
2020/01/31 15:42:10.3	100.410	0.190	-0.300	-1.190
2020/01/31 15:42:10.4	100.390	0.200	-0.330	-1.140
2020/01/31 15:42:10.5	100.360	0.210	-0.360	-1.090
2020/01/31 15:42:10.6	100.340	0.220	-0.390	-1.040
2020/01/31 15:42:10.7	100.330	0.230	-0.420	-0.980
2020/01/31 15:42:10.8	100.310	0.240	-0.450	-0.930
2020/01/31 15:42:10.9	100.290	0.250	-0.480	-0.870
2020/01/31 15:42:11.0	100.270	0.260	-0.510	-0.810
2020/01/31 15:42:11.1	100.250	0.280	-0.540	-0.760
2020/01/31 15:42:11.2	100.230	0.290	-0.570	-0.700
2020/01/31 15:42:11.3	100.210	0.300	-0.600	-0.640
2020/01/31 15:42:11.4	100.190	0.310	-0.630	-0.580
2020/01/31 15:42:11.5	100.180	0.320	-0.660	-0.520
2020/01/31 15:42:11.6	100.160	0.330	-0.690	-0.460
2020/01/31 15:42:11.7	100.150	0.350	-0.710	-0.400
2020/01/31 15:42:11.8	100.140	0.360	-0.730	-0.340
2020/01/31 15:42:11.9	100.130	0.360	-0.750	-0.280
2020/01/31 15:42:12.0	100.120	0.370	-0.760	-0.220
2020/01/31 15:42:12.1	100.120	0.380	-0.770	-0.160
2020/01/31 15:42:12.2	100.110	0.390	-0.780	-0.100
2020/01/31 15:42:12.3	100.110	0.390	-0.790	-0.040
2020/01/31 15:42:12.4	100.100	0.390	-0.790	0.020
2020/01/31 15:42:12.5	100.100	0.400	-0.780	0.080
2020/01/31 15:42:12.6	100.100	0.390	-0.770	0.140
2020/01/31 15:42:12.7	100.100	0.390	-0.760	0.200
2020/01/31 15:42:12.8	100.110	0.390	-0.730	0.260
2020/01/31 15:42:12.9	100.110	0.380	-0.710	0.320
2020/01/31 15:42:13.0	100.120	0.370	-0.670	0.380
2020/01/31 15:42:13.1	100.130	0.360	-0.640	0.430
2020/01/31 15:42:13.2	100.140	0.340	-0.590	0.490
2020/01/31 15:42:13.3	100.150	0.330	-0.540	0.540
2020/01/31 15:42:13.4	100.160	0.310	-0.490	0.590
2020/01/31 15:42:13.5	100.180	0.280	-0.420	0.650
2020/01/31 15:42:13.6	100.190	0.260	-0.360	0.700
2020/01/31 15:42:13.7	100.210	0.230	-0.290	0.750
2020/01/31 15:42:13.8	100.230	0.210	-0.220	0.800
2020/01/31 15:42:13.9	100.250	0.180	-0.140	0.850
2020/01/31 15:42:14.0	100.270	0.140	-0.060	0.890
2020/01/31 15:42:14.1	100.290	0.110	0.020	0.940
2020/01/31 15:42:14.2	100.310	0.070	0.100	0.980
2020/01/31 15:42:14.3	100.340	0.040	0.180	1.020
2020/01/31 15:42:14.4	100.360	0.000	0.260	1.060
2020/01/31 15:42:14.5	100.390	-0.040	0.340	1.090
2020/01/31 15:42:14.6	100.410	-0.070	0.410	1.130
2020/01/31 15:42:14.7	100.440	-0.110	0.480	1.160
2020/01/31 15:42:14.8	100.460	-0.150	0.550	1.190
2020/01/31 15:42:14.9	100.490	-0.190	0.620	1.220
2020/01/31 15:42:15.0	100.520	-0.220	0.680	1.250
2020/01/31 15:42:15.1	100.550	-0.260	0.730	1.280
2020/01/31 15:42:15.2	100.570	-0.290	0.780	1.310
2020/01/31 15:42:15.3	100.600	-0.320	0.820	1.340
2020/01/31 15:42:15.4	100.620	-0.350	0.850	1.360
2020/01/31 15:42:15.5	100.650	-0.380	0.880	1.390
2020/01/31 15:42:15.6	100.670	-0.400	0.890	1.410
2020/01/31 15:42:15.7	100.700	-0.420	0.910	1.440
2020/01/31 15:42:15.8	100.720	-0.440	0.910	1.460
2020/01/31 15:42:15.9	100.740	-0.460	0.900	1.480
2020/01/31 15:42:16.0	100.760	-0.470	0.880	1.500
2020/01/31 15:42:16.1	100.770	-0.480	0.850	1.530
2020/01/31 15:42:16.2	100.790	-0.480	0.820	1.550
2020/01/31 15:42:16.3	100.800	-0.480	0.780	1.570
2020/01/31 15:42:16.4	100.810	-0.480	0.730	1.590
2020/01/31 15:42:16.5	100.820	-0.470	0.670	1.610
2020/01/31 15:42:16.6	100.830	-0.460	0.600	1.630
2020/01/31 15:42:16.7	100.830	-0.440	0.530	1.650
2020/01/31 15:42:16.8	100.840	-0.430	0.450	1.670
2020/01/31 15:42:16.9	100.840	-0.410	0.360	1.690
2020/01/31 15:42:17.0	100.840	-0.380	0.270	1.700
2020/01/31 15:42:17.1	100.840	-0.350	0.170	1.720
2020/01/31 15:42:17.2	100.840	-0.320	0.070	1.730
2020/01/31 15:42:17.3	100.840	-0.290	-0.030	1.750
2020/01/31 15:42:17.4	100.840	-0.260	-0.140	1.760
2020/01/31 15:42:17.5	100.840	-0.220	-0.250	1.770
2020/01/31 15:42:17.6	100.840	-0.190	-0.350	1.780
2020/01/31 15:42:17.7	100.840	-0.150	-0.460	1.790
2020/01/31 15:42:17.8	100.840	-0.110	-0.570	1.790
2020/01/31 15:42:17.9	100.840	-0.070	-0.680	1.800
2020/01/31 15:42:18.0	100.850	-0.030	-0.780	1.800
2020/01/31 15:42:18.1	100.850	0.010	-0.870	1.800
2020/01/31 15:42:18.2	100.850	0.050	-0.970	1.800
2020/01/31 15:42:18.3	100.860	0.080	-1.050	1.800
2020/01/31 15:42:18.4	100.860	0.120	-1.130	1.790
2020/01/31 15:42:18.5	100.870	0.150	-1.210	1.790
2020/01/31 15:42:18.6	100.870	0.180	-1.270	1.780
2020/01/31 15:42:18.7	100.890	0.210	-1.330	1.770
2020/01/31 15:42:18.8	100.900	0.230	-1.380	1.760
2020/01/31 15:42:18.9	100.910	0.260	-1.420	1.750
2020/01/31 15:42:19.0	100.920	0.270	-1.450	1.740
2020/01/31 15:42:19.1	100.930	0.290	-1.460	1.720
2020/01/31 15:42:19.2	100.940	0.300	-1.470	1.700
2020/01/31 15:42:19.3	100.950	0.310	-1.470	1.680
2020/01/31 15:42:19.4	100.960	0.310	-1.460	1.650
2020/01/31 15:42:19.5	100.980	0.310	-1.440	1.630
2020/01/31 15:42:19.6	100.990	0.310	-1.400	1.600
2020/01/31 15:42:19.7	101.000	0.300	-1.360	1.570
2020/01/31 15:42:19.8	101.010	0.290	-1.300	1.540
2020/01/31 15:42:19.9	101.020	0.270	-1.240	1.500
2020/01/31 15:42:20.0	101.030	0.250	-1.170	1.460
2020/01/31 15:42:20.1	101.040	0.220	-1.100	1.420
2020/01/31 15:42:20.2	101.050	0.200	-1.010	1.370
2020/01/31 15:42:20.3	101.060	0.170	-0.920	1.330
2020/01/31 15:42:20.4	101.070	0.140	-0.820	1.280
2020/01/31 15:42:20.5	101.080	0.100	-0.720	1.230
2020/01/31 15:42:20.6	101.090	0.060	-0.620	1.180
2020/01/31 15:42:20.7	101.100	0.030	-0.510	1.130
2020/01/31 15:42:20.8	101.110	-0.010	-0.400	1.070
2020/01/31 15:42:20.9	101.110	-0.050	-0.290	1.010
2020/01/31 15:42:21.0	101.120	-0.090	-0.180	0.960
2020/01/31 15:42:21.1	101.120	-0.130	-0.070	0.900
2020/01/31 15:42:21.2	101.120	-0.170	0.040	0.840
2020/01/31 15:42:21.3	101.120	-0.210	0.150	0.770
2020/01/31 15:42:21.4	101.130	-0.250	0.250	0.710
2020/01/31 15:42:21.5	101.130	-0.290	0.350	0.650
2020/01/31 15:42:21.6	101.130	-0.320	0.450	0.580
2020/01/31 15:42:21.7	101.130	-0.350	0.540	0.520
2020/01/31 15:42:21.8	101.120	-0.380	0.630	0.450
2020/01/31 15:42:21.9	101.120	-0.410	0.700	0.390
2020/01/31 15:42:22.0	101.110	-0.430	0.770	0.320
2020/01/31 15:42:22.1	101.110	-0.460	0.830	0.250
2020/01/31 15:42:22.2	101.100	-0.470	0.890	0.190
2020/01/31 15:42:22.3	101.090	-0.490	0.930	0.120
2020/01/31 15:42:22.4	101.080	-0.500	0.970	0.060
2020/01/31 15:42:22.5	101.070	-0.500	1.000	-0.010
2020/01/31 15:42:22.6	101.060	-0.510	1.010	-0.070
2020/01/31 15:42:22.7	101.050	-0.510	1.020	-0.130
2020/01/31 15:42:22.8	101.040	-0.500	1.020	-0.190
2020/01/31 15:42:22.9	101.020	-0.490	1.010	-0.260
2020/01/31 15:42:23.0	101.010	-0.480	0.990	-0.310
2020/01/31 15:42:23.1	101.000	-0.470	0.970	-0.370
2020/01/31 15:42:23.2	100.980	-0.450	0.930	-0.430
2020/01/31 15:42:23.3	100.970	-0.430	0.890	-0.490
2020/01/31 15:42:23.4	100.950	-0.400	0.840	-0.540
2020/01/31 15:42:23.5	100.940	-0.380	0.780	-0.590
2020/01/31 15:42:23.6	100.930	-0.350	0.720	-0.650
2020/01/31 15:42:23.7	100.910	-0.320	0.650	-0.690
2020/01/31 15:42:23.8	100.900	-0.290	0.580	-0.740
2020/01/31 15:42:23.9	100.890	-0.260	0.510	-0.790
2020/01/31 15:42:24.0	100.880	-0.220	0.430	-0.830
2020/01/31 15:42:24.1	100.880	-0.190	0.340	-0.880
2020/01/31 15:42:24.2	100.870	-0.150	0.260	-0.920
2020/01/31 15:42:24.3	100.870	-0.120	0.170	-0.960
2020/01/31 15:42:24.4	100.860	-0.090	0.090	-0.990
2020/01/31 15:42:24.5	100.860	-0.060	-0.000	-1.030
2020/01/31 15:42:24.6	100.860	-0.020	-0.090	-1.060
2020/01/31 15:42:24.7	100.860	0.010	-0.170	-1.090
2020/01/31 15:42:24.8	100.860	0.040	-0.250	-1.120
2020/01/31 15:42:24.9	100.870	0.060	-0.330	-1.140
2020/01/31 15:42:25.0	100.870	0.090	-0.410	-1.170
2020/01/31 15:42:25.1	100.880	0.110	-0.480	-1.190
2020/01/31 15:42:25.2	100.880	0.130	-0.550	-1.200
2020/01/31 15:42:25.3	100.890	0.150	-0.610	-1.220
2020/01/31 15:42:25.4	100.900	0.170	-0.670	-1.230
2020/01/31 15:42:25.5	100.900	0.190	-0.730	-1.230
2020/01/31 15:42:25.6	100.910	0.200	-0.770	-1.230
2020/01/31 15:42:25.7	100.930	0.210	-0.820	-1.230
2020/01/31 15:42:25.8	100.940	0.220	-0.860	-1.220
2020/01/31 15:42:25.9	100.950	0.230	-0.890	-1.220
2020/01/31 15:42:26.0	100.960	0.240	-0.920	-1.200
2020/01/31 15:42:26.1	100.970	0.240	-0.950	-1.190
2020/01/31 15:42:26.2	100.980	0.250	-0.960	-1.170
2020/01/31 15:42:26.3	100.990	0.250	-0.980	-1.150
2020/01/31 15:42:26.4	101.010	0.250	-0.990	-1.130
2020/01/31 15:42:26.5	101.020	0.260	-1.000	-1.100
2020/01/31 15:42:26.6	101.040	0.260	-1.000	-1.070
2020/01/31 15:42:26.7	101.050	0.260	-1.000	-1.030
2020/01/31 15:42:26.8	101.070	0.260	-0.990	-1.000
2020/01/31 15:42:26.9	101.090	0.270	-0.990	-0.960
2020/01/31 15:42:27.0	101.110	0.270	-0.980	-0.910
2020/01/31 15:42:27.1	101.130	0.270	-0.970	-0.870
2020/01/31 15:42:27.2	101.140	0.270	-0.960	-0.820
2020/01/31 15:42:27.3	101.160	0.280	-0.940	-0.770
2020/01/31 15:42:27.4	101.180	0.280	-0.930	-0.710
2020/01/31 15:42:27.5	101.200	0.290	-0.910	-0.650
2020/01/31 15:42:27.6	101.220	0.290	-0.890	-0.590
2020/01/31 15:42:27.7	101.240	0.300	-0.870	-0.520
2020/01/31 15:42:27.8	101.260	0.300	-0.850	-0.450
2020/01/31 15:42:27.9	101.270	0.310	-0.830	-0.380
2020/01/31 15:42:28.0	101.290	0.310	-0.800	-0.310
2020/01/31 15:42:28.1	101.310	0.320	-0.770	-0.230
2020/01/31 15:42:28.2	101.330	0.320	-0.740	-0.150
2020/01/31 15:42:28.3	101.340	0.330	-0.710	-0.070
2020/01/31 15:42:28.4	101.360	0.330	-0.680	0.010
2020/01/31 15:42:28.5	101.370	0.330	-0.640	0.090
2020/01/31 15:42:28.6	101.380	0.340	-0.610	0.180
2020/01/31 15:42:28.7	101.400	0.340	-0.570	0.280
2020/01/31 15:42:28.8	101.410	0.340	-0.530	0.370
2020/01/31 15:42:28.9	101.420	0.330	-0.480	0.460
2020/01/31 15:42:29.0	101.430	0.330	-0.430	0.550
2020/01/31 15:42:29.1	101.440	0.330	-0.380	0.640
2020/01/31 15:42:29.2	101.450	0.320	-0.330	0.730
2020/01/31 15:42:29.3	101.450	0.310	-0.270	0.830
2020/01/31 15:42:29.4	101.450	0.300	-0.220	0.920
2020/01/31 15:42:29.5	101.450	0.290	-0.160	1.010
2020/01/31 15:42:29.6	101.450	0.270	-0.100	1.110
2020/01/31 15:42:29.7	101.450	0.260	-0.030	1.200
2020/01/31 15:42:29.8	101.440	0.240	0.030	1.300
2020/01/31 15:42:29.9	101.440	0.220	0.100	1.390
2020/01/31 15:42:30.0	101.430	0.200	0.160	1.480
2020/01/31 15:42:30.1	101.420	0.180	0.230	1.570
2020/01/31 15:42:30.2	101.410	0.150	0.290	1.650
2020/01/31 15:42:30.3	101.390	0.130	0.350	1.740
2020/01/31 15:42:30.4	101.370	0.100	0.420	1.820
2020/01/31 15:42:30.5	101.360	0.070	0.480	1.900
2020/01/31 15:42:30.6	101.340	0.050	0.540	1.980
2020/01/31 15:42:30.7	101.310	0.020	0.590	2.070
2020/01/31 15:42:30.8	101.290	-0.010	0.650	2.140
2020/01/31 15:42:30.9	101.270	-0.040	0.690	2.210
2020/01/31 15:42:31.0	101.240	-0.060	0.740	2.270
2020/01/31 15:42:31.1	101.220	-0.090	0.780	2.330
2020/01/31 15:42:31.2	101.200	-0.120	0.810	2.380
2020/01/31 15:42:31.3	101.170	-0.140	0.840	2.440
2020/01/31 15:42:31.4	101.150	-0.170	0.870	2.480
2020/01/31 15:42:31.5	101.120	-0.190	0.890	2.520
2020/01/31 15:42:31.6	101.100	-0.210	0.910	2.560
2020/01/31 15:42:31.7	101.080	-0.230	0.920	2.590
2020/01/31 15:42:31.8	101.060	-0.250	0.920	2.610
2020/01/31 15:42:31.9	101.030	-0.270	0.920	2.630
2020/01/31 15:42:32.0	101.010	-0.280	0.910	2.650
2020/01/31 15:42:32.1	100.990	-0.290	0.890	2.660
2020/01/31 15:42:32.2	100.970	-0.300	0.870	2.670
2020/01/31 15:42:32.3	100.950	-0.310	0.840	2.670
2020/01/31 15:42:32.4	100.940	-0.310	0.810	2.670
2020/01/31 15:42:32.5	100.920	-0.310	0.770	2.660
2020/01/31 15:42:32.6	100.900	-0.310	0.720	2.650
2020/01/31 15:42:32.7	100.880	-0.310	0.670	2.630
2020/01/31 15:42:32.8	100.870	-0.300	0.610	2.610
2020/01/31 15:42:32.9	100.850	-0.290	0.550	2.590
2020/01/31 15:42:33.0	100.830	-0.280	0.480	2.560
2020/01/31 15:42:33.1	100.820	-0.270	0.410	2.530
2020/01/31 15:42:33.2	100.800	-0.260	0.340	2.490
2020/01/31 15:42:33.3	100.790	-0.240	0.260	2.450
2020/01/31 15:42:33.4	100.780	-0.230	0.180	2.400
2020/01/31 15:42:33.5	100.760	-0.210	0.100	2.350
2020/01/31 15:42:33.6	100.750	-0.190	0.010	2.300
2020/01/31 15:42:33.7	100.730	-0.170	-0.070	2.250
2020/01/31 15:42:33.8	100.720	-0.150	-0.160	2.190
2020/01/31 15:42:33.9	100.710	-0.120	-0.250	2.120
2020/01/31 15:42:34.0	100.700	-0.100	-0.330	2.060
2020/01/31 15:42:34.1	100.690	-0.080	-0.420	1.990
2020/01/31 15:42:34.2	100.680	-0.060	-0.510	1.910
2020/01/31 15:42:34.3	100.680	-0.040	-0.590	1.840
2020/01/31 15:42:34.4	100.670	-0.020	-0.670	1.760
2020/01/31 15:42:34.5	100.670	0.010	-0.750	1.670
2020/01/31 15:42:34.6	100.670	0.030	-0.820	1.590
2020/01/31 15:42:34.7	100.670	0.050	-0.890	1.510
2020/01/31 15:42:34.8	100.670	0.060	-0.960	1.420
2020/01/31 15:42:34.9	100.670	0.080	-1.020	1.320
2020/01/31 15:42:35.0	100.670	0.100	-1.080	1.230
2020/01/31 15:42:35.1	100.680	0.110	-1.140	1.140
2020/01/31 15:42:35.2	100.690	0.120	-1.190	1.040
2020/01/31 15:42:35.3	100.700	0.140	-1.230	0.950
2020/01/31 15:42:35.4	100.710	0.150	-1.270	0.850
2020/01/31 15:42:35.5	100.720	0.160	-1.300	0.760
2020/01/31 15:42:35.6	100.730	0.160	-1.330	0.660
2020/01/31 15:42:35.7	100.750	0.170	-1.350	0.570
2020/01/31 15:42:35.8	100.760	0.170	-1.370	0.480
2020/01/31 15:42:35.9	100.780	0.170	-1.380	0.390
2020/01/31 15:42:36.0	100.790	0.170	-1.390	0.300
2020/01/31 15:42:36.1	100.810	0.170	-1.390	0.220
2020/01/31 15:42:36.2	100.820	0.170	-1.380	0.140
2020/01/31 15:42:36.3	100.840	0.170	-1.370	0.060
2020/01/31 15:42:36.4	100.850	0.160	-1.350	-0.010
2020/01/31 15:42:36.5	100.860	0.160	-1.330	-0.080
2020/01/31 15:42:36.6	100.880	0.150	-1.310	-0.150
2020/01/31 15:42:36.7	100.880	0.140	-1.270	-0.210
2020/01/31 15:42:36.8	100.890	0.130	-1.240	-0.260
2020/01/31 15:42:36.9	100.900	0.120	-1.200	-0.320
2020/01/31 15:42:37.0	100.910	0.110	-1.150	-0.370
2020/01/31 15:42:37.1	100.910	0.090	-1.110	-0.410
2020/01/31 15:42:37.2	100.920	0.080	-1.050	-0.450
2020/01/31 15:42:37.3	100.920	0.070	-1.000	-0.490
2020/01/31 15:42:37.4	100.920	0.050	-0.940	-0.520
2020/01/31 15:42:37.5	100.920	0.040	-0.870	-0.550
2020/01/31 15:42:37.6	100.910	0.020	-0.810	-0.570
2020/01/31 15:42:37.7	100.910	0.010	-0.740	-0.590
2020/01/31 15:42:37.8	100.900	-0.010	-0.660	-0.610
2020/01/31 15:42:37.9	100.890	-0.020	-0.590	-0.620
2020/01/31 15:42:38.0	100.890	-0.040	-0.510	-0.630
2020/01/31 15:42:38.1	100.880	-0.050	-0.430	-0.640
2020/01/31 15:42:38.2	100.860	-0.070	-0.350	-0.640
2020/01/31 15:42:38.3	100.850	-0.080	-0.270	-0.640
2020/01/31 15:42:38.4	100.840	-0.100	-0.190	-0.640
2020/01/31 15:42:38.5	100.820	-0.110	-0.110	-0.630
2020/01/31 15:42:38.6	100.810	-0.130	-0.020	-0.630
2020/01/31 15:42:38.7	100.800	-0.140	0.060	-0.620
2020/01/31 15:42:38.8	100.780	-0.150	0.140	-0.600
2020/01/31 15:42:38.9	100.760	-0.170	0.220	-0.590
2020/01/31 15:42:39.0	100.740	-0.180	0.300	-0.580
2020/01/31 15:42:39.1	100.720	-0.190	0.380	-0.570
2020/01/31 15:42:39.2	100.690	-0.200	0.450	-0.550
2020/01/31 15:42:39.3	100.670	-0.210	0.520	-0.540
2020/01/31 15:42:39.4	100.650	-0.230	0.590	-0.520
2020/01/31 15:42:39.5	100.630	-0.240	0.660	-0.500
2020/01/31 15:42:39.6	100.610	-0.250	0.720	-0.490
2020/01/31 15:42:39.7	100.580	-0.260	0.780	-0.470
2020/01/31 15:42:39.8	100.560	-0.260	0.840	-0.450
2020/01/31 15:42:39.9	100.540	-0.270	0.890	-0.430
2020/01/31 15:42:40.0	100.520	-0.280	0.930	-0.420
2020/01/31 15:42:40.1	100.500	-0.280	0.970	-0.400
2020/01/31 15:42:40.2	100.480	-0.290	1.000	-0.390
2020/01/31 15:42:40.3	100.460	-0.290	1.030	-0.380
2020/01/31 15:42:40.4	100.440	-0.290	1.050	-0.360
2020/01/31 15:42:40.5	100.430	-0.290	1.060	-0.350
2020/01/31 15:42:40.6	100.410	-0.290	1.070	-0.340
2020/01/31 15:42:40.7	100.400	-0.290	1.070	-0.330
2020/01/31 15:42:40.8	100.390	-0.290	1.060	-0.320
2020/01/31 15:42:40.9	100.380	-0.290	1.050	-0.310
2020/01/31 15:42:41.0	100.370	-0.280	1.030	-0.310
2020/01/31 15:42:41.1	100.370	-0.270	1.000	-0.300
2020/01/31 15:42:41.2	100.360	-0.270	0.960	-0.300
2020/01/31 15:42:41.3	100.360	-0.260	0.920	-0.290
2020/01/31 15:42:41.4	100.350	-0.250	0.880	-0.290
2020/01/31 15:42:41.5	100.350	-0.240	0.820	-0.290
2020/01/31 15:42:41.6	100.350	-0.220	0.760	-0.290
2020/01/31 15:42:41.7	100.360	-0.210	0.700	-0.290
2020/01/31 15:42:41.8	100.360	-0.200	0.630	-0.290
2020/01/31 15:42:41.9	100.360	-0.180	0.560	-0.290
2020/01/31 15:42:42.0	100.370	-0.160	0.490	-0.290
2020/01/31 15:42:42.1	100.380	-0.150	0.410	-0.290
2020/01/31 15:42:42.2	100.380	-0.130	0.330	-0.290
2020/01/31 15:42:42.3	100.390	-0.110	0.250	-0.290
2020/01/31 15:42:42.4	100.400	-0.090	0.160	-0.290
2020/01/31 15:42:42.5	100.410	-0.070	0.080	-0.280
2020/01/31 15:42:42.6	100.420	-0.060	-0.000	-0.280
2020/01/31 15:42:42.7	100.430	-0.040	-0.080	-0.260
2020/01/31 15:42:42.8	100.440	-0.020	-0.160	-0.260
2020/01/31 15:42:42.9	100.450	0.000	-0.240	-0.240
2020/01/31 15:42:43.0	100.460	0.020	-0.320	-0.230
2020/01/31 15:42:43.1	100.470	0.040	-0.390	-0.210
2020/01/31 15:42:43.2	100.480	0.060	-0.460	-0.190
2020/01/31 15:42:43.3	100.500	0.080	-0.530	-0.170
2020/01/31 15:42:43.4	100.510	0.090	-0.600	-0.150
2020/01/31 15:42:43.5	100.520	0.110	-0.660	-0.120
2020/01/31 15:42:43.6	100.540	0.130	-0.720	-0.090
2020/01/31 15:42:43.7	100.550	0.140	-0.770	-0.060
2020/01/31 15:42:43.8	100.570	0.160	-0.820	-0.030
2020/01/31 15:42:43.9	100.580	0.170	-0.860	0.010
2020/01/31 15:42:44.0	100.600	0.190	-0.900	0.040
2020/01/31 15:42:44.1	100.620	0.200	-0.940	0.080
2020/01/31 15:42:44.2	100.630	0.210	-0.970	0.120
2020/01/31 15:42:44.3	100.650	0.220	-1.000	0.160
2020/01/31 15:42:44.4	100.670	0.240	-1.020	0.200
2020/01/31 15:42:44.5	100.690	0.250	-1.040	0.250
2020/01/31 15:42:44.6	100.700	0.250	-1.050	0.290
2020/01/31 15:42:44.7	100.720	0.260	-1.060	0.340
2020/01/31 15:42:44.8	100.740	0.270	-1.060	0.390
2020/01/31 15:42:44.9	100.750	0.280	-1.060	0.430
2020/01/31 15:42:45.0	100.770	0.280	-1.060	0.480
2020/01/31 15:42:45.1	100.780	0.290	-1.050	0.530
2020/01/31 15:42:45.2	100.800	0.290	-1.040	0.580
2020/01/31 15:42:45.3	100.810	0.300	-1.020	0.630
2020/01/31 15:42:45.4	100.820	0.300	-1.010	0.680
2020/01/31 15:42:45.5	100.830	0.300	-0.980	0.730
2020/01/31 15:42:45.6	100.830	0.300	-0.960	0.780
2020/01/31 15:42:45.7	100.840	0.300	-0.930	0.840
2020/01/31 15:42:45.8	100.850	0.300	-0.900	0.890
2020/01/31 15:42:45.9	100.850	0.290	-0.870	0.940
2020/01/31 15:42:46.0	100.840	0.290	-0.830	0.990
2020/01/31 15:42:46.1	100.840	0.290	-0.800	1.050
2020/01/31 15:42:46.2	100.830	0.280	-0.760	1.100
2020/01/31 15:42:46.3	100.820	0.270	-0.710	1.150
2020/01/31 15:42:46.4	100.810	0.270	-0.670	1.200
2020/01/31 15:42:46.5	100.800	0.260	-0.630	1.250
2020/01/31 15:42:46.6	100.780	0.250	-0.580	1.300
2020/01/31 15:42:46.7	100.760	0.240	-0.530	1.350
2020/01/31 15:42:46.8	100.750	0.220	-0.480	1.400
2020/01/31 15:42:46.9	100.720	0.210	-0.440	1.450
2020/01/31 15:42:47.0	100.700	0.200	-0.390	1.500
2020/01/31 15:42:47.1	100.680	0.190	-0.340	1.540
2020/01/31 15:42:47.2	100.650	0.170	-0.300	1.590
2020/01/31 15:42:47.3	100.630	0.160	-0.250	1.630
2020/01/31 15:42:47.4	100.600	0.140	-0.210	1.680
2020/01/31 15:42:47.5	100.570	0.130	-0.160	1.720
2020/01/31 15:42:47.6	100.550	0.110	-0.120	1.760
2020/01/31 15:42:47.7	100.520	0.100	-0.080	1.800
2020/01/31 15:42:47.8	100.490	0.080	-0.040	1.840
2020/01/31 15:42:47.9	100.470	0.070	-0.000	1.880
2020/01/31 15:42:48.0	100.440	0.060	0.030	1.910
2020/01/31 15:42:48.1	100.410	0.040	0.060	1.940
2020/01/31 15:42:48.2	100.390	0.030	0.090	1.970
2020/01/31 15:42:48.3	100.360	0.020	0.120	2.000
2020/01/31 15:42:48.4	100.340	0.000	0.140	2.020
2020/01/31 15:42:48.5	100.320	-0.010	0.160	2.040
2020/01/31 15:42:48.6	100.300	-0.020	0.170	2.050
2020/01/31 15:42:48.7	100.290	-0.030	0.190	2.070
2020/01/31 15:42:48.8	100.270	-0.040	0.200	2.070
2020/01/31 15:42:48.9	100.260	-0.040	0.210	2.080
2020/01/31 15:42:49.0	100.240	-0.050	0.210	2.080
2020/01/31 15:42:49.1	100.230	-0.060	0.210	2.070
2020/01/31 15:42:49.2	100.230	-0.060	0.210	2.060
2020/01/31 15:42:49.3	100.220	-0.060	0.210	2.040
2020/01/31 15:42:49.4	100.220	-0.070	0.210	2.020
2020/01/31 15:42:49.5	100.220	-0.070	0.200	2.000
2020/01/31 15:42:49.6	100.220	-0.070	0.190	1.970
2020/01/31 15:42:49.7	100.220	-0.070	0.190	1.930
2020/01/31 15:42:49.8	100.230	-0.070	0.180	1.890
2020/01/31 15:42:49.9	100.230	-0.070	0.170	1.850
2020/01/31 15:42:50.0	100.240	-0.070	0.160	1.800
2020/01/31 15:42:50.1	100.250	-0.070	0.150	1.740
2020/01/31 15:42:50.2	100.260	-0.070	0.150	1.680
2020/01/31 15:42:50.3	100.280	-0.070	0.140	1.620
2020/01/31 15:42:50.4	100.290	-0.070	0.130	1.550
2020/01/31 15:42:50.5	100.300	-0.070	0.130	1.480
2020/01/31 15:42:50.6	100.320	-0.070	0.120	1.400
2020/01/31 15:42:50.7	100.320	-0.070	0.120	1.330
2020/01/31 15:42:50.8	100.340	-0.070	0.110	1.250
2020/01/31 15:42:50.9	100.350	-0.070	0.110	1.160
2020/01/31 15:42:51.0	100.360	-0.070	0.110	1.080
2020/01/31 15:42:51.1	100.380	-0.080	0.100	0.990
2020/01/31 15:42:51.2	100.390	-0.080	0.100	0.910
2020/01/31 15:42:51.3	100.400	-0.080	0.100	0.820
2020/01/31 15:42:51.4	100.410	-0.080	0.090	0.730
2020/01/31 15:42:51.5	100.420	-0.090	0.090	0.640
2020/01/31 15:42:51.6	100.430	-0.090	0.080	0.560
2020/01/31 15:42:51.7	100.430	-0.100	0.080	0.470
2020/01/31 15:42:51.8	100.440	-0.100	0.070	0.390
2020/01/31 15:42:51.9	100.440	-0.100	0.060	0.310
2020/01/31 15:42:52.0	100.440	-0.100	0.050	0.230
2020/01/31 15:42:52.1	100.440	-0.110	0.040	0.150
2020/01/31 15:42:52.2	100.440	-0.110	0.020	0.080
2020/01/31 15:42:52.3	100.430	-0.110	0.000	0.010
2020/01/31 15:42:52.4	100.430	-0.110	-0.020	-0.060
2020/01/31 15:42:52.5	100.420	-0.110	-0.050	-0.130
2020/01/31 15:42:52.6	100.410	-0.110	-0.070	-0.190
2020/01/31 15:42:52.7	100.420	-0.110	-0.100	-0.250
2020/01/31 15:42:52.8	100.410	-0.100	-0.130	-0.310
2020/01/31 15:42:52.9	100.400	-0.100	-0.170	-0.370
2020/01/31 15:42:53.0	100.390	-0.090	-0.200	-0.420
2020/01/31 15:42:53.1	100.390	-0.090	-0.240	-0.470
2020/01/31 15:42:53.2	100.380	-0.080	-0.280	-0.520
2020/01/31 15:42:53.3	100.370	-0.070	-0.320	-0.560
2020/01/31 15:42:53.4	100.370	-0.060	-0.360	-0.600
2020/01/31 15:42:53.5	100.360	-0.050	-0.400	-0.640
2020/01/31 15:42:53.6	100.360	-0.040	-0.440	-0.680
2020/01/31 15:42:53.7	100.350	-0.030	-0.480	-0.710
2020/01/31 15:42:53.8	100.350	-0.020	-0.510	-0.740
2020/01/31 15:42:53.9	100.340	-0.010	-0.550	-0.760
2020/01/31 15:42:54.0	100.340	-0.000	-0.580	-0.790
2020/01/31 15:42:54.1	100.340	0.010	-0.610	-0.810
2020/01/31 15:42:54.2	100.340	0.020	-0.640	-0.820
2020/01/31 15:42:54.3	100.330	0.030	-0.660	-0.840
2020/01/31 15:42:54.4	100.330	0.040	-0.680	-0.850
2020/01/31 15:42:54.5	100.330	0.050	-0.690	-0.850
2020/01/31 15:42:54.6	100.330	0.060	-0.710	-0.850
2020/01/31 15:42:54.7	100.320	0.060	-0.710	-0.850
2020/01/31 15:42:54.8	100.320	0.070	-0.710	-0.850
2020/01/31 15:42:54.9	100.320	0.070	-0.710	-0.840
2020/01/31 15:42:55.0	100.320	0.080	-0.700	-0.830
2020/01/31 15:42:55.1	100.320	0.080	-0.690	-0.810
2020/01/31 15:42:55.2	100.320	0.080	-0.670	-0.790
2020/01/31 15:42:55.3	100.310	0.080	-0.640	-0.770
2020/01/31 15:42:55.4	100.310	0.070	-0.610	-0.740
2020/01/31 15:42:55.5	100.310	0.070	-0.580	-0.720
2020/01/31 15:42:55.6	100.310	0.060	-0.540	-0.690
2020/01/31 15:42:55.7	100.310	0.050	-0.500	-0.650
2020/01/31 15:42:55.8	100.310	0.040	-0.450	-0.610
2020/01/31 15:42:55.9	100.310	0.030	-0.400	-0.580
2020/01/31 15:42:56.0	100.310	0.020	-0.350	-0.540
2020/01/31 15:42:56.1	100.310	0.000	-0.290	-0.490
2020/01/31 15:42:56.2	100.310	-0.010	-0.230	-0.450
2020/01/31 15:42:56.3	100.310	-0.030	-0.170	-0.400
2020/01/31 15:42:56.4	100.310	-0.040	-0.110	-0.360
2020/01/31 15:42:56.5	100.310	-0.060	-0.050	-0.310
2020/01/31 15:42:56.6	100.320	-0.080	0.020	-0.260
2020/01/31 15:42:56.7	100.310	-0.100	0.090	-0.200
2020/01/31 15:42:56.8	100.320	-0.120	0.150	-0.150
2020/01/31 15:42:56.9	100.320	-0.140	0.210	-0.100
2020/01/31 15:42:57.0	100.330	-0.150	0.270	-0.040
2020/01/31 15:42:57.1	100.330	-0.170	0.330	0.010
2020/01/31 15:42:57.2	100.340	-0.190	0.390	0.070
2020/01/31 15:42:57.3	100.350	-0.210	0.440	0.130
2020/01/31 15:42:57.4	100.350	-0.220	0.490	0.190
2020/01/31 15:42:57.5	100.360	-0.240	0.530	0.240
2020/01/31 15:42:57.6	100.370	-0.250	0.570	0.300
2020/01/31 15:42:57.7	100.380	-0.260	0.600	0.370
2020/01/31 15:42:57.8	100.390	-0.270	0.630	0.430
2020/01/31 15:42:57.9	100.390	-0.280	0.660	0.490
2020/01/31 15:42:58.0	100.400	-0.290	0.670	0.550
2020/01/31 15:42:58.1	100.410	-0.290	0.690	0.610
2020/01/31 15:42:58.2	100.410	-0.290	0.690	0.660
2020/01/31 15:42:58.3	100.420	-0.290	0.690	0.720
2020/01/31 15:42:58.4	100.430	-0.290	0.680	0.780
2020/01/31 15:42:58.5	100.430	-0.290	0.660	0.840
2020/01/31 15:42:58.6	100.430	-0.280	0.640	0.890
2020/01/31 15:42:58.7	100.430	-0.270	0.610	0.950
2020/01/31 15:42:58.8	100.430	-0.260	0.580	1.000
2020/01/31 15:42:58.9	100.430	-0.250	0.530	1.060
2020/01/31 15:42:59.0	100.430	-0.230	0.480	1.110
2020/01/31 15:42:59.1	100.420	-0.210	0.420	1.160
2020/01/31 15:42:59.2	100.410	-0.190	0.360	1.210
2020/01/31 15:42:59.3	100.410	-0.160	0.290	1.260
2020/01/31 15:42:59.4	100.390	-0.140	0.210	1.310
2020/01/31 15:42:59.5	100.380	-0.110	0.130	1.360
2020/01/31 15:42:59.6	100.370	-0.080	0.040	1.400
2020/01/31 15:42:59.7	100.350	-0.050	-0.050	1.450
2020/01/31 15:42:59.8	100.340	-0.020	-0.150	1.500
2020/01/31 15:42:59.9	100.320	0.020	-0.240	1.540
2020/01/31 15:43:00.0	100.290	0.050	-0.340	1.580
2020/01/31 15:43:00.1	100.270	0.090	-0.440	1.620
2020/01/31 15:43:00.2	100.250	0.130	-0.540	1.660
2020/01/31 15:43:00.3	100.230	0.170	-0.640	1.690
2020/01/31 15:43:00.4	100.200	0.200	-0.740	1.730
2020/01/31 15:43:00.5	100.180	0.240	-0.830	1.760
2020/01/31 15:43:00.6	100.150	0.280	-0.920	1.790
2020/01/31 15:43:00.7	100.130	0.320	-1.010	1.830
2020/01/31 15:43:00.8	100.110	0.350	-1.090	1.860
2020/01/31 15:43:00.9	100.090	0.390	-1.160	1.880
2020/01/31 15:43:01.0	100.060	0.420	-1.230	1.910
2020/01/31 15:43:01.1	100.040	0.450	-1.290	1.930
2020/01/31 15:43:01.2	100.020	0.480	-1.340	1.950
2020/01/31 15:43:01.3	100.010	0.500	-1.390	1.970
2020/01/31 15:43:01.4	99.990	0.530	-1.420	1.990
2020/01/31 15:43:01.5	99.980	0.550	-1.440	2.000
2020/01/31 15:43:01.6	99.960	0.560	-1.460	2.010
2020/01/31 15:43:01.7	99.960	0.580	-1.460	2.030
2020/01/31 15:43:01.8	99.950	0.590	-1.460	2.030
2020/01/31 15:43:01.9	99.950	0.590	-1.440	2.040
2020/01/31 15:43:02.0	99.940	0.600	-1.410	2.040
2020/01/31 15:43:02.1	99.940	0.600	-1.380	2.040
2020/01/31 15:43:02.2	99.940	0.590	-1.330	2.030
2020/01/31 15:43:02.3	99.940	0.580	-1.270	2.020
2020/01/31 15:43:02.4	99.940	0.570	-1.210	2.010
2020/01/31 15:43:02.5	99.940	0.550	-1.140	1.990
2020/01/31 15:43:02.6	99.940	0.530	-1.060	1.980
2020/01/31 15:43:02.7	99.950	0.510	-0.970	1.960
2020/01/31 15:43:02.8	99.960	0.490	-0.880	1.930
2020/01/31 15:43:02.9	99.960	0.460	-0.780	1.910
2020/01/31 15:43:03.0	99.970	0.420	-0.680	1.870
2020/01/31 15:43:03.1	99.980	0.390	-0.580	1.840
2020/01/31 15:43:03.2	99.990	0.360	-0.480	1.800
2020/01/31 15:43:03.3	100.000	0.320	-0.370	1.760
2020/01/31 15:43:03.4	100.010	0.280	-0.270	1.720
2020/01/31 15:43:03.5	100.020	0.240	-0.160	1.670
2020/01/31 15:43:03.6	100.040	0.200	-0.060	1.620
2020/01/31 15:43:03.7	100.040	0.160	0.040	1.570
2020/01/31 15:43:03.8	100.050	0.120	0.130	1.510
2020/01/31 15:43:03.9	100.070	0.080	0.220	1.450
2020/01/31 15:43:04.0	100.080	0.040	0.310	1.390
2020/01/31 15:43:04.1	100.090	0.000	0.390	1.330
2020/01/31 15:43:04.2	100.110	-0.030	0.460	1.260
2020/01/31 15:43:04.3	100.120	-0.070	0.530	1.190
2020/01/31 15:43:04.4	100.140	-0.100	0.590	1.120
2020/01/31 15:43:04.5	100.150	-0.130	0.640	1.050
2020/01/31 15:43:04.6	100.170	-0.150	0.690	0.980
2020/01/31 15:43:04.7	100.180	-0.180	0.730	0.900
2020/01/31 15:43:04.8	100.200	-0.200	0.750	0.830
2020/01/31 15:43:04.9	100.220	-0.210	0.780	0.750
2020/01/31 15:43:05.0	100.230	-0.230	0.790	0.670
2020/01/31 15:43:05.1	100.250	-0.240	0.790	0.590
2020/01/31 15:43:05.2	100.270	-0.250	0.790	0.510
2020/01/31 15:43:05.3	100.290	-0.250	0.780	0.430
2020/01/31 15:43:05.4	100.310	-0.250	0.760	0.350
2020/01/31 15:43:05.5	100.320	-0.250	0.740	0.280
2020/01/31 15:43:05.6	100.340	-0.240	0.700	0.200
2020/01/31 15:43:05.7	100.360	-0.240	0.670	0.120
2020/01/31 15:43:05.8	100.380	-0.230	0.630	0.050
2020/01/31 15:43:05.9	100.390	-0.220	0.580	-0.020
2020/01/31 15:43:06.0	100.410	-0.200	0.530	-0.090
2020/01/31 15:43:06.1	100.420	-0.190	0.470	-0.150
2020/01/31 15:43:06.2	100.430	-0.170	0.410	-0.210
2020/01/31 15:43:06.3	100.440	-0.160	0.350	-0.270
2020/01/31 15:43:06.4	100.450	-0.140	0.290	-0.320
2020/01/31 15:43:06.5	100.460	-0.120	0.230	-0.370
2020/01/31 15:43:06.6	100.470	-0.110	0.160	-0.420
2020/01/31 15:43:06.7	100.480	-0.090	0.100	-0.450
2020/01/31 15:43:06.8	100.480	-0.080	0.040	-0.490
2020/01/31 15:43:06.9	100.480	-0.070	-0.020	-0.520
2020/01/31 15:43:07.0	100.480	-0.060	-0.080	-0.550
2020/01/31 15:43:07.1	100.480	-0.050	-0.130	-0.580
2020/01/31 15:43:07.2	100.470	-0.040	-0.180	-0.600
2020/01/31 15:43:07.3	100.470	-0.040	-0.230	-0.620
2020/01/31 15:43:07.4	100.460	-0.040	-0.270	-0.640
2020/01/31 15:43:07.5	100.450	-0.040	-0.310	-0.650
2020/01/31 15:43:07.6	100.440	-0.050	-0.350	-0.670
2020/01/31 15:43:07.7	100.430	-0.060	-0.370	-0.670
2020/01/31 15:43:07.8	100.420	-0.070	-0.400	-0.680
2020/01/31 15:43:07.9	100.410	-0.080	-0.410	-0.690
2020/01/31 15:43:08.0	100.390	-0.100	-0.430	-0.690
2020/01/31 15:43:08.1	100.380	-0.120	-0.430	-0.690
2020/01/31 15:43:08.2	100.360	-0.140	-0.440	-0.690
2020/01/31 15:43:08.3	100.340	-0.160	-0.440	-0.680
2020/01/31 15:43:08.4	100.320	-0.180	-0.430	-0.670
2020/01/31 15:43:08.5	100.300	-0.210	-0.420	-0.660
2020/01/31 15:43:08.6	100.280	-0.230	-0.410	-0.650
2020/01/31 15:43:08.7	100.260	-0.260	-0.390	-0.630
2020/01/31 15:43:08.8	100.240	-0.290	-0.370	-0.620
2020/01/31 15:43:08.9	100.220	-0.310	-0.350	-0.600
2020/01/31 15:43:09.0	100.190	-0.340	-0.320	-0.580
2020/01/31 15:43:09.1	100.170	-0.360	-0.300	-0.560
2020/01/31 15:43:09.2	100.140	-0.390	-0.270	-0.530
2020/01/31 15:43:09.3	100.120	-0.410	-0.250	-0.510
2020/01/31 15:43:09.4	100.090	-0.430	-0.220	-0.480
2020/01/31 15:43:09.5	100.070	-0.440	-0.200	-0.450
2020/01/31 15:43:09.6	100.050	-0.460	-0.180	-0.420
2020/01/31 15:43:09.7	100.010	-0.470	-0.150	-0.390
2020/01/31 15:43:09.8	99.990	-0.480	-0.130	-0.360
2020/01/31 15:43:09.9	99.970	-0.480	-0.110	-0.330
2020/01/31 15:43:10.0	99.950	-0.480	-0.090	-0.300
2020/01/31 15:43:10.1	99.930	-0.480	-0.080	-0.270
2020/01/31 15:43:10.2	99.910	-0.480	-0.060	-0.240
2020/01/31 15:43:10.3	99.900	-0.470	-0.050	-0.200
2020/01/31 15:43:10.4	99.890	-0.460	-0.050	-0.170
2020/01/31 15:43:10.5	99.880	-0.450	-0.040	-0.140
2020/01/31 15:43:10.6	99.870	-0.430	-0.040	-0.110
2020/01/31 15:43:10.7	99.870	-0.410	-0.040	-0.070
2020/01/31 15:43:10.8	99.860	-0.390	-0.050	-0.040
2020/01/31 15:43:10.9	99.860	-0.360	-0.050	-0.010
2020/01/31 15:43:11.0	99.860	-0.340	-0.060	0.030
2020/01/31 15:43:11.1	99.870	-0.310	-0.070	0.060
2020/01/31 15:43:11.2	99.870	-0.280	-0.090	0.090
2020/01/31 15:43:11.3	99.880	-0.250	-0.100	0.130
2020/01/31 15:43:11.4	99.890	-0.210	-0.120	0.170
2020/01/31 15:43:11.5	99.900	-0.180	-0.140	0.200
2020/01/31 15:43:11.6	99.910	-0.140	-0.170	0.240
2020/01/31 15:43:11.7	99.930	-0.110	-0.190	0.280
2020/01/31 15:43:11.8	99.950	-0.070	-0.220	0.320
2020/01/31 15:43:11.9	99.960	-0.040	-0.250	0.360
2020/01/31 15:43:12.0	99.980	-0.000	-0.280	0.390
2020/01/31 15:43:12.1	100.000	0.030	-0.310	0.430
2020/01/31 15:43:12.2	100.020	0.060	-0.340	0.470
2020/01/31 15:43:12.3	100.040	0.090	-0.370	0.510
2020/01/31 15:43:12.4	100.050	0.120	-0.400	0.550
2020/01/31 15:43:12.5	100.070	0.150	-0.430	0.590
2020/01/31 15:43:12.6	100.090	0.180	-0.470	0.630
2020/01/31 15:43:12.7	100.110	0.200	-0.500	0.670
2020/01/31 15:43:12.8	100.130	0.230	-0.530	0.710
2020/01/31 15:43:12.9	100.150	0.250	-0.560	0.750
2020/01/31 15:43:13.0	100.170	0.270	-0.580	0.790
2020/01/31 15:43:13.1	100.180	0.280	-0.610	0.830
2020/01/31 15:43:13.2	100.200	0.300	-0.630	0.870
2020/01/31 15:43:13.3	100.210	0.310	-0.650	0.910
2020/01/31 15:43:13.4	100.230	0.320	-0.670	0.960
2020/01/31 15:43:13.5	100.240	0.330	-0.690	1.000
2020/01/31 15:43:13.6	100.250	0.340	-0.700	1.040
2020/01/31 15:43:13.7	100.260	0.340	-0.710	1.090
2020/01/31 15:43:13.8	100.270	0.350	-0.710	1.140
2020/01/31 15:43:13.9	100.270	0.350	-0.710	1.180
2020/01/31 15:43:14.0	100.280	0.350	-0.710	1.230
2020/01/31 15:43:14.1	100.280	0.350	-0.710	1.280
2020/01/31 15:43:14.2	100.280	0.350	-0.700	1.330
2020/01/31 15:43:14.3	100.280	0.350	-0.690	1.380
2020/01/31 15:43:14.4	100.270	0.340	-0.670	1.430
2020/01/31 15:43:14.5	100.270	0.340	-0.660	1.490
2020/01/31 15:43:14.6	100.260	0.340	-0.640	1.540
2020/01/31 15:43:14.7	100.250	0.330	-0.610	1.600
2020/01/31 15:43:14.8	100.230	0.330	-0.580	1.660
2020/01/31 15:43:14.9	100.220	0.330	-0.560	1.710
2020/01/31 15:43:15.0	100.200	0.320	-0.530	1.770
2020/01/31 15:43:15.1	100.180	0.320	-0.500	1.820
2020/01/31 15:43:15.2	100.160	0.310	-0.470	1.880
2020/01/31 15:43:15.3	100.140	0.310	-0.430	1.930
2020/01/31 15:43:15.4	100.120	0.310	-0.400	1.980
2020/01/31 15:43:15.5	100.090	0.300	-0.360	2.030
2020/01/31 15:43:15.6	100.060	0.300	-0.330	2.070
2020/01/31 15:43:15.7	100.040	0.290	-0.290	2.120
2020/01/31 15:43:15.8	100.010	0.290	-0.260	2.160
2020/01/31 15:43:15.9	99.980	0.290	-0.230	2.190
2020/01/31 15:43:16.0	99.950	0.280	-0.190	2.220
2020/01/31 15:43:16.1	99.920	0.280	-0.160	2.250
2020/01/31 15:43:16.2	99.890	0.280	-0.130	2.280
2020/01/31 15:43:16.3	99.860	0.270	-0.090	2.300
2020/01/31 15:43:16.4	99.830	0.270	-0.060	2.310
2020/01/31 15:43:16.5	99.790	0.260	-0.030	2.320
2020/01/31 15:43:16.6	99.760	0.260	0.000	2.330
2020/01/31 15:43:16.7	99.710	0.250	0.030	2.330
2020/01/31 15:43:16.8	99.680	0.240	0.060	2.330
2020/01/31 15:43:16.9	99.650	0.230	0.100	2.320
2020/01/31 15:43:17.0	99.610	0.220	0.130	2.310
2020/01/31 15:43:17.1	99.580	0.210	0.160	2.290
2020/01/31 15:43:17.2	99.550	0.200	0.190	2.270
2020/01/31 15:43:17.3	99.520	0.190	0.220	2.240
2020/01/31 15:43:17.4	99.490	0.170	0.250	2.210
2020/01/31 15:43:17.5	99.460	0.160	0.280	2.170
2020/01/31 15:43:17.6	99.430	0.140	0.310	2.130
2020/01/31 15:43:17.7	99.400	0.120	0.340	2.080
2020/01/31 15:43:17.8	99.380	0.110	0.370	2.030
2020/01/31 15:43:17.9	99.360	0.090	0.390	1.970
2020/01/31 15:43:18.0	99.340	0.070	0.420	1.910
2020/01/31 15:43:18.1	99.320	0.050	0.450	1.840
2020/01/31 15:43:18.2	99.310	0.030	0.470	1.760
2020/01/31 15:43:18.3	99.300	0.010	0.500	1.680
2020/01/31 15:43:18.4	99.290	-0.010	0.520	1.600
2020/01/31 15:43:18.5	99.290	-0.030	0.540	1.510
2020/01/31 15:43:18.6	99.290	-0.050	0.560	1.420
2020/01/31 15:43:18.7	99.280	-0.070	0.570	1.320
2020/01/31 15:43:18.8	99.290	-0.090	0.580	1.220
2020/01/31 15:43:18.9	99.300	-0.110	0.590	1.120
2020/01/31 15:43:19.0	99.310	-0.130	0.600	1.020
2020/01/31 15:43:19.1	99.330	-0.140	0.590	0.910
2020/01/31 15:43:19.2	99.350	-0.160	0.590	0.800
2020/01/31 15:43:19.3	99.370	-0.170	0.580	0.690
2020/01/31 15:43:19.4	99.390	-0.180	0.560	0.570
2020/01/31 15:43:19.5	99.420	-0.190	0.540	0.460
2020/01/31 15:43:19.6	99.450	-0.190	0.510	0.350
2020/01/31 15:43:19.7	99.480	-0.200	0.480	0.240
2020/01/31 15:43:19.8	99.510	-0.200	0.450	0.130
2020/01/31 15:43:19.9	99.540	-0.200	0.400	0.020
2020/01/31 15:43:20.0	99.570	-0.190	0.360	-0.090
2020/01/31 15:43:20.1	99.600	-0.190	0.300	-0.190
2020/01/31 15:43:20.2	99.630	-0.180	0.250	-0.290
2020/01/31 15:43:20.3	99.660	-0.170	0.180	-0.390
2020/01/31 15:43:20.4	99.690	-0.160	0.120	-0.490
2020/01/31 15:43:20.5	99.720	-0.140	0.050	-0.580
2020/01/31 15:43:20.6	99.750	-0.120	-0.020	-0.660
2020/01/31 15:43:20.7	99.790	-0.110	-0.100	-0.750
2020/01/31 15:43:20.8	99.820	-0.090	-0.180	-0.820
2020/01/31 15:43:20.9	99.850	-0.070	-0.250	-0.900
2020/01/31 15:43:21.0	99.870	-0.050	-0.330	-0.970
2020/01/31 15:43:21.1	99.890	-0.030	-0.410	-1.030
2020/01/31 15:43:21.2	99.920	-0.010	-0.490	-1.090
2020/01/31 15:43:21.3	99.940	0.020	-0.570	-1.150
2020/01/31 15:43:21.4	99.950	0.040	-0.640	-1.200
2020/01/31 15:43:21.5	99.970	0.060	-0.710	-1.240
2020/01/31 15:43:21.6	99.990	0.070	-0.780	-1.280
2020/01/31 15:43:21.7	100.010	0.090	-0.840	-1.310
2020/01/31 15:43:21.8	100.020	0.110	-0.900	-1.340
2020/01/31 15:43:21.9	100.030	0.120	-0.960	-1.360
2020/01/31 15:43:22.0	100.040	0.130	-1.010	-1.370
2020/01/31 15:43:22.1	100.040	0.140	-1.050	-1.380
2020/01/31 15:43:22.2	100.040	0.150	-1.090	-1.370
2020/01/31 15:43:22.3	100.040	0.150	-1.120	-1.360
2020/01/31 15:43:22.4	100.030	0.150	-1.150	-1.350
2020/01/31 15:43:22.5	100.030	0.150	-1.170	-1.320
2020/01/31 15:43:22.6	100.010	0.150	-1.180	-1.290
2020/01/31 15:43:22.7	100.010	0.140	-1.180	-1.250
2020/01/31 15:43:22.8	100.000	0.130	-1.180	-1.200
2020/01/31 15:43:22.9	99.980	0.120	-1.170	-1.140
2020/01/31 15:43:23.0	99.960	0.100	-1.150	-1.080
2020/01/31 15:43:23.1	99.940	0.080	-1.120	-1.010
2020/01/31 15:43:23.2	99.910	0.060	-1.090	-0.930
2020/01/31 15:43:23.3	99.890	0.040	-1.060	-0.850
2020/01/31 15:43:23.4	99.860	0.020	-1.010	-0.760
2020/01/31 15:43:23.5	99.840	-0.010	-0.970	-0.670
2020/01/31 15:43:23.6	99.810	-0.030	-0.920	-0.570
2020/01/31 15:43:23.7	99.780	-0.060	-0.860	-0.460
2020/01/31 15:43:23.8	99.750	-0.090	-0.790	-0.360
2020/01/31 15:43:23.9	99.720	-0.120	-0.730	-0.260
2020/01/31 15:43:24.0	99.690	-0.150	-0.660	-0.150
2020/01/31 15:43:24.1	99.670	-0.180	-0.600	-0.050
2020/01/31 15:43:24.2	99.640	-0.210	-0.530	0.060
2020/01/31 15:43:24.3	99.620	-0.240	-0.450	0.160
2020/01/31 15:43:24.4	99.590	-0.270	-0.380	0.260
2020/01/31 15:43:24.5	99.570	-0.290	-0.310	0.360
2020/01/31 15:43:24.6	99.550	-0.320	-0.240	0.460
2020/01/31 15:43:24.7	99.530	-0.340	-0.170	0.550
2020/01/31 15:43:24.8	99.520	-0.370	-0.100	0.640
2020/01/31 15:43:24.9	99.500	-0.390	-0.030	0.720
2020/01/31 15:43:25.0	99.490	-0.400	0.040	0.800
2020/01/31 15:43:25.1	99.480	-0.420	0.100	0.870
2020/01/31 15:43:25.2	99.470	-0.430	0.160	0.940
2020/01/31 15:43:25.3	99.460	-0.440	0.220	1.000
2020/01/31 15:43:25.4	99.450	-0.450	0.270	1.060
2020/01/31 15:43:25.5	99.450	-0.460	0.320	1.110
2020/01/31 15:43:25.6	99.440	-0.460	0.370	1.160
2020/01/31 15:43:25.7	99.440	-0.460	0.420	1.220
2020/01/31 15:43:25.8	99.440	-0.450	0.460	1.260
2020/01/31 15:43:25.9	99.430	-0.450	0.490	1.300
2020/01/31 15:43:26.0	99.430	-0.440	0.520	1.330
2020/01/31 15:43:26.1	99.430	-0.430	0.550	1.360
2020/01/31 15:43:26.2	99.430	-0.420	0.570	1.390
2020/01/31 15:43:26.3	99.420	-0.400	0.590	1.420
2020/01/31 15:43:26.4	99.420	-0.380	0.600	1.440
2020/01/31 15:43:26.5	99.410	-0.360	0.610	1.470
2020/01/31 15:43:26.6	99.410	-0.340	0.610	1.490
2020/01/31 15:43:26.7	99.400	-0.320	0.610	1.500
2020/01/31 15:43:26.8	99.390	-0.300	0.610	1.520
2020/01/31 15:43:26.9	99.380	-0.270	0.600	1.540
2020/01/31 15:43:27.0	99.380	-0.250	0.590	1.550
2020/01/31 15:43:27.1	99.370	-0.220	0.570	1.560
2020/01/31 15:43:27.2	99.360	-0.190	0.550	1.570
2020/01/31 15:43:27.3	99.350	-0.170	0.520	1.580
2020/01/31 15:43:27.4	99.340	-0.140	0.490	1.590
2020/01/31 15:43:27.5	99.330	-0.110	0.450	1.590
2020/01/31 15:43:27.6	99.320	-0.080	0.420	1.590
2020/01/31 15:43:27.7	99.300	-0.060	0.380	1.590
2020/01/31 15:43:27.8	99.290	-0.030	0.330	1.590
2020/01/31 15:43:27.9	99.290	-0.010	0.280	1.580
2020/01/31 15:43:28.0	99.280	0.020	0.230	1.570
2020/01/31 15:43:28.1	99.270	0.040	0.180	1.550
2020/01/31 15:43:28.2	99.270	0.070	0.120	1.530
2020/01/31 15:43:28.3	99.260	0.090	0.070	1.500
2020/01/31 15:43:28.4	99.260	0.110	0.010	1.470
2020/01/31 15:43:28.5	99.260	0.130	-0.050	1.440
2020/01/31 15:43:28.6	99.270	0.140	-0.110	1.400
2020/01/31 15:43:28.7	99.280	0.160	-0.170	1.360
2020/01/31 15:43:28.8	99.280	0.180	-0.230	1.310
2020/01/31 15:43:28.9	99.290	0.190	-0.300	1.260
2020/01/31 15:43:29.0	99.310	0.210	-0.360	1.210
2020/01/31 15:43:29.1	99.320	0.220	-0.420	1.150
2020/01/31 15:43:29.2	99.340	0.230	-0.490	1.090
2020/01/31 15:43:29.3	99.360	0.240	-0.550	1.030
2020/01/31 15:43:29.4	99.380	0.250	-0.610	0.960
2020/01/31 15:43:29.5	99.410	0.260	-0.670	0.900
2020/01/31 15:43:29.6	99.430	0.270	-0.720	0.830
2020/01/31 15:43:29.7	99.470	0.270	-0.780	0.760
2020/01/31 15:43:29.8	99.500	0.280	-0.830	0.690
2020/01/31 15:43:29.9	99.530	0.290	-0.890	0.620
2020/01/31 15:43:30.0	99.560	0.300	-0.930	0.550
2020/01/31 15:43:30.1	99.600	0.300	-0.980	0.480
2020/01/31 15:43:30.2	99.630	0.310	-1.020	0.410
2020/01/31 15:43:30.3	99.670	0.310	-1.060	0.350
2020/01/31 15:43:30.4	99.710	0.320	-1.090	0.290
2020/01/31 15:43:30.5	99.740	0.320	-1.110	0.230
2020/01/31 15:43:30.6	99.780	0.330	-1.140	0.170
2020/01/31 15:43:30.7	99.820	0.330	-1.150	0.120
2020/01/31 15:43:30.8	99.860	0.330	-1.160	0.080
2020/01/31 15:43:30.9	99.890	0.340	-1.160	0.030
2020/01/31 15:43:31.0	99.930	0.340	-1.160	-0.000
2020/01/31 15:43:31.1	99.960	0.340	-1.150	-0.030
2020/01/31 15:43:31.2	99.990	0.340	-1.130	-0.060
2020/01/31 15:43:31.3	100.020	0.340	-1.110	-0.080
2020/01/31 15:43:31.4	100.040	0.340	-1.080	-0.090
2020/01/31 15:43:31.5	100.070	0.330	-1.040	-0.110
2020/01/31 15:43:31.6	100.090	0.330	-0.990	-0.110
2020/01/31 15:43:31.7	100.120	0.320	-0.940	-0.110
2020/01/31 15:43:31.8	100.130	0.310	-0.880	-0.100
2020/01/31 15:43:31.9	100.150	0.300	-0.810	-0.090
2020/01/31 15:43:32.0	100.160	0.290	-0.740	-0.080
2020/01/31 15:43:32.1	100.170	0.280	-0.670	-0.070
2020/01/31 15:43:32.2	100.180	0.270	-0.580	-0.050
2020/01/31 15:43:32.3	100.190	0.250	-0.500	-0.030
2020/01/31 15:43:32.4	100.190	0.230	-0.410	-0.010
2020/01/31 15:43:32.5	100.190	0.220	-0.310	0.020
2020/01/31 15:43:32.6	100.190	0.200	-0.220	0.040
2020/01/31 15:43:32.7	100.180	0.170	-0.120	0.070
2020/01/31 15:43:32.8	100.170	0.150	-0.020	0.100
2020/01/31 15:43:32.9	100.160	0.130	0.080	0.130
2020/01/31 15:43:33.0	100.140	0.100	0.180	0.150
2020/01/31 15:43:33.1	100.130	0.070	0.280	0.180
2020/01/31 15:43:33.2	100.110	0.040	0.380	0.210
2020/01/31 15:43:33.3	100.090	0.020	0.470	0.240
2020/01/31 15:43:33.4	100.070	-0.010	0.560	0.260
2020/01/31 15:43:33.5	100.040	-0.040	0.650	0.280
2020/01/31 15:43:33.6	100.020	-0.070	0.730	0.310
2020/01/31 15:43:33.7	99.990	-0.100	0.810	0.330
2020/01/31 15:43:33.8	99.960	-0.130	0.880	0.350
2020/01/31 15:43:33.9	99.930	-0.160	0.950	0.370
2020/01/31 15:43:34.0	99.900	-0.190	1.010	0.380
2020/01/31 15:43:34.1	99.870	-0.210	1.060	0.400
2020/01/31 15:43:34.2	99.840	-0.240	1.110	0.410
2020/01/31 15:43:34.3	99.810	-0.270	1.140	0.420
2020/01/31 15:43:34.4	99.780	-0.290	1.170	0.430
2020/01/31 15:43:34.5	99.760	-0.310	1.190	0.440
2020/01/31 15:43:34.6	99.730	-0.330	1.200	0.450
2020/01/31 15:43:34.7	99.700	-0.350	1.210	0.450
2020/01/31 15:43:34.8	99.670	-0.360	1.200	0.450
2020/01/31 15:43:34.9	99.640	-0.370	1.180	0.460
2020/01/31 15:43:35.0	99.620	-0.380	1.160	0.460
2020/01/31 15:43:35.1	99.590	-0.390	1.120	0.450
2020/01/31 15:43:35.2	99.570	-0.390	1.080	0.450
2020/01/31 15:43:35.3	99.540	-0.400	1.030	0.450
2020/01/31 15:43:35.4	99.520	-0.400	0.970	0.440
2020/01/31 15:43:35.5	99.500	-0.390	0.900	0.440
2020/01/31 15:43:35.6	99.490	-0.390	0.830	0.430
2020/01/31 15:43:35.7	99.470	-0.380	0.740	0.420
2020/01/31 15:43:35.8	99.450	-0.360	0.660	0.410
2020/01/31 15:43:35.9	99.440	-0.350	0.560	0.400
2020/01/31 15:43:36.0	99.430	-0.330	0.460	0.390
2020/01/31 15:43:36.1	99.420	-0.310	0.360	0.380
2020/01/31 15:43:36.2	99.420	-0.290	0.250	0.360
2020/01/31 15:43:36.3	99.410	-0.270	0.140	0.350
2020/01/31 15:43:36.4	99.410	-0.240	0.030	0.330
2020/01/31 15:43:36.5	99.410	-0.220	-0.090	0.320
2020/01/31 15:43:36.6	99.410	-0.190	-0.210	0.300
2020/01/31 15:43:36.7	99.420	-0.160	-0.320	0.290
2020/01/31 15:43:36.8	99.430	-0.130	-0.440	0.270
2020/01/31 15:43:36.9	99.440	-0.100	-0.560	0.250
2020/01/31 15:43:37.0	99.450	-0.060	-0.670	0.240
2020/01/31 15:43:37.1	99.460	-0.030	-0.780	0.220
2020/01/31 15:43:37.2	99.470	0.000	-0.890	0.200
2020/01/31 15:43:37.3	99.480	0.040	-1.000	0.190
2020/01/31 15:43:37.4	99.500	0.070	-1.100	0.170
2020/01/31 15:43:37.5	99.520	0.100	-1.200	0.160
2020/01/31 15:43:37.6	99.540	0.140	-1.290	0.150
2020/01/31 15:43:37.7	99.560	0.170	-1.380	0.140
2020/01/31 15:43:37.8	99.580	0.200	-1.460	0.130
2020/01/31 15:43:37.9	99.600	0.230	-1.530	0.120
2020/01/31 15:43:38.0	99.630	0.260	-1.590	0.110
2020/01/31 15:43:38.1	99.650	0.280	-1.650	0.110
2020/01/31 15:43:38.2	99.680	0.310	-1.690	0.110
2020/01/31 15:43:38.3	99.710	0.330	-1.730	0.110
2020/01/31 15:43:38.4	99.740	0.350	-1.750	0.110
2020/01/31 15:43:38.5	99.760	0.370	-1.770	0.110
2020/01/31 15:43:38.6	99.790	0.390	-1.780	0.120
2020/01/31 15:43:38.7	99.840	0.400	-1.770	0.130
2020/01/31 15:43:38.8	99.870	0.420	-1.760	0.140
2020/01/31 15:43:38.9	99.900	0.420	-1.730	0.150
2020/01/31 15:43:39.0	99.930	0.430	-1.700	0.170
2020/01/31 15:43:39.1	99.950	0.430	-1.660	0.190
2020/01/31 15:43:39.2	99.980	0.440	-1.610	0.220
2020/01/31 15:43:39.3	100.010	0.430	-1.550	0.240
2020/01/31 15:43:39.4	100.030	0.430	-1.480	0.270
2020/01/31 15:43:39.5	100.050	0.420	-1.400	0.310
2020/01/31 15:43:39.6	100.070	0.410	-1.320	0.340
2020/01/31 15:43:39.7	100.080	0.400	-1.230	0.390
2020/01/31 15:43:39.8	100.090	0.390	-1.130	0.430
2020/01/31 15:43:39.9	100.100	0.370	-1.030	0.480
2020/01/31 15:43:40.0	100.110	0.350	-0.930	0.530
2020/01/31 15:43:40.1	100.110	0.330	-0.820	0.580
2020/01/31 15:43:40.2	100.110	0.310	-0.710	0.640
2020/01/31 15:43:40.3	100.100	0.290	-0.600	0.690
2020/01/31 15:43:40.4	100.090	0.260	-0.490	0.750
2020/01/31 15:43:40.5	100.070	0.230	-0.380	0.810
2020/01/31 15:43:40.6	100.060	0.210	-0.270	0.870
2020/01/31 15:43:40.7	100.030	0.180	-0.160	0.930
2020/01/31 15:43:40.8	100.000	0.150	-0.050	1.000
2020/01/31 15:43:40.9	99.980	0.120	0.050	1.060
2020/01/31 15:43:41.0	99.950	0.090	0.150	1.120
2020/01/31 15:43:41.1	99.910	0.060	0.250	1.180
2020/01/31 15:43:41.2	99.880	0.030	0.340	1.240
2020/01/31 15:43:41.3	99.850	-0.000	0.430	1.300
2020/01/31 15:43:41.4	99.810	-0.030	0.510	1.350
2020/01/31 15:43:41.5	99.770	-0.060	0.590	1.410
2020/01/31 15:43:41.6	99.740	-0.090	0.650	1.460
2020/01/31 15:43:41.7	99.710	-0.120	0.720	1.510
2020/01/31 15:43:41.8	99.670	-0.140	0.770	1.550
2020/01/31 15:43:41.9	99.640	-0.160	0.820	1.590
2020/01/31 15:43:42.0	99.610	-0.190	0.860	1.620
2020/01/31 15:43:42.1	99.570	-0.210	0.900	1.650
2020/01/31 15:43:42.2	99.540	-0.220	0.930	1.670
2020/01/31 15:43:42.3	99.510	-0.240	0.950	1.690
2020/01/31 15:43:42.4	99.480	-0.250	0.960	1.710
2020/01/31 15:43:42.5	99.460	-0.270	0.970	1.720
2020/01/31 15:43:42.6	99.430	-0.280	0.970	1.730
2020/01/31 15:43:42.7	99.410	-0.290	0.970	1.730
2020/01/31 15:43:42.8	99.390	-0.300	0.960	1.730
2020/01/31 15:43:42.9	99.370	-0.300	0.950	1.730
2020/01/31 15:43:43.0	99.360	-0.300	0.930	1.720
2020/01/31 15:43:43.1	99.340	-0.310	0.900	1.710
2020/01/31 15:43:43.2	99.320	-0.310	0.880	1.690
2020/01/31 15:43:43.3	99.310	-0.310	0.840	1.680
2020/01/31 15:43:43.4	99.300	-0.300	0.810	1.660
2020/01/31 15:43:43.5	99.290	-0.300	0.770	1.630
2020/01/31 15:43:43.6	99.280	-0.300	0.730	1.610
2020/01/31 15:43:43.7	99.270	-0.290	0.690	1.580
2020/01/31 15:43:43.8	99.260	-0.280	0.640	1.550
2020/01/31 15:43:43.9	99.260	-0.280	0.590	1.520
2020/01/31 15:43:44.0	99.250	-0.270	0.540	1.490
2020/01/31 15:43:44.1	99.250	-0.260	0.490	1.450
2020/01/31 15:43:44.2	99.250	-0.250	0.440	1.420
2020/01/31 15:43:44.3	99.250	-0.240	0.380	1.380
2020/01/31 15:43:44.4	99.250	-0.230	0.330	1.340
2020/01/31 15:43:44.5	99.250	-0.210	0.270	1.290
2020/01/31 15:43:44.6	99.260	-0.200	0.210	1.250
2020/01/31 15:43:44.7	99.270	-0.190	0.160	1.210
2020/01/31 15:43:44.8	99.280	-0.180	0.100	1.160
2020/01/31 15:43:44.9	99.290	-0.170	0.040	1.110
2020/01/31 15:43:45.0	99.290	-0.160	-0.020	1.060
2020/01/31 15:43:45.1	99.300	-0.140	-0.080	1.010
2020/01/31 15:43:45.2	99.320	-0.130	-0.140	0.950
2020/01/31 15:43:45.3	99.330	-0.120	-0.200	0.890
2020/01/31 15:43:45.4	99.340	-0.110	-0.250	0.840
2020/01/31 15:43:45.5	99.350	-0.100	-0.310	0.780
2020/01/31 15:43:45.6	99.370	-0.090	-0.360	0.720
2020/01/31 15:43:45.7	99.390	-0.090	-0.420	0.660
2020/01/31 15:43:45.8	99.400	-0.080	-0.470	0.600
2020/01/31 15:43:45.9	99.420	-0.070	-0.520	0.530
2020/01/31 15:43:46.0	99.430	-0.070	-0.570	0.470
2020/01/31 15:43:46.1	99.450	-0.060	-0.610	0.410
2020/01/31 15:43:46.2	99.460	-0.060	-0.650	0.350
2020/01/31 15:43:46.3	99.480	-0.060	-0.690	0.290
2020/01/31 15:43:46.4	99.490	-0.060	-0.720	0.240
2020/01/31 15:43:46.5	99.510	-0.050	-0.750	0.180
2020/01/31 15:43:46.6	99.520	-0.060	-0.780	0.130
2020/01/31 15:43:46.7	99.540	-0.060	-0.800	0.080
2020/01/31 15:43:46.8	99.550	-0.060	-0.820	0.030
2020/01/31 15:43:46.9	99.560	-0.060	-0.830	-0.020
2020/01/31 15:43:47.0	99.570	-0.060	-0.840	-0.060
2020/01/31 15:43:47.1	99.580	-0.070	-0.840	-0.100
2020/01/31 15:43:47.2	99.590	-0.070	-0.840	-0.130
2020/01/31 15:43:47.3	99.590	-0.080	-0.840	-0.160
2020/01/31 15:43:47.4	99.600	-0.080	-0.830	-0.180
2020/01/31 15:43:47.5	99.600	-0.080	-0.820	-0.200
2020/01/31 15:43:47.6	99.600	-0.090	-0.800	-0.220
2020/01/31 15:43:47.7	99.610	-0.090	-0.780	-0.220
2020/01/31 15:43:47.8	99.600	-0.100	-0.760	-0.230
2020/01/31 15:43:47.9	99.590	-0.100	-0.740	-0.230
2020/01/31 15:43:48.0	99.590	-0.100	-0.710	-0.220
2020/01/31 15:43:48.1	99.580	-0.100	-0.680	-0.210
2020/01/31 15:43:48.2	99.560	-0.100	-0.640	-0.190
2020/01/31 15:43:48.3	99.550	-0.100	-0.610	-0.170
2020/01/31 15:43:48.4	99.530	-0.100	-0.580	-0.150
2020/01/31 15:43:48.5	99.510	-0.100	-0.540	-0.120
2020/01/31 15:43:48.6	99.490	-0.100	-0.500	-0.090
2020/01/31 15:43:48.7	99.460	-0.090	-0.460	-0.050
2020/01/31 15:43:48.8	99.430	-0.090	-0.430	-0.010
2020/01/31 15:43:48.9	99.410	-0.080	-0.390	0.030
2020/01/31 15:43:49.0	99.380	-0.080	-0.350	0.070
2020/01/31 15:43:49.1	99.350	-0.070	-0.320	0.120
2020/01/31 15:43:49.2	99.320	-0.060	-0.280	0.170
2020/01/31 15:43:49.3	99.280	-0.050	-0.250	0.210
2020/01/31 15:43:49.4	99.250	-0.040	-0.210	0.260
2020/01/31 15:43:49.5	99.220	-0.020	-0.180	0.310
2020/01/31 15:43:49.6	99.190	-0.010	-0.150	0.360
2020/01/31 15:43:49.7	99.150	0.000	-0.120	0.410
2020/01/31 15:43:49.8	99.120	0.020	-0.090	0.460
2020/01/31 15:43:49.9	99.080	0.040	-0.060	0.510
2020/01/31 15:43:50.0	99.050	0.050	-0.040	0.550
2020/01/31 15:43:50.1	99.020	0.070	-0.020	0.600
2020/01/31 15:43:50.2	98.990	0.090	-0.000	0.640
2020/01/31 15:43:50.3	98.960	0.100	0.010	0.680
2020/01/31 15:43:50.4	98.930	0.120	0.030	0.720
2020/01/31 15:43:50.5	98.900	0.140	0.040	0.750
2020/01/31 15:43:50.6	98.870	0.160	0.040	0.790
2020/01/31 15:43:50.7	98.830	0.180	0.050	0.830
2020/01/31 15:43:50.8	98.800	0.190	0.050	0.860
2020/01/31 15:43:50.9	98.770	0.210	0.050	0.890
2020/01/31 15:43:51.0	98.750	0.230	0.050	0.910
2020/01/31 15:43:51.1	98.720	0.250	0.050	0.940
2020/01/31 15:43:51.2	98.700	0.270	0.040	0.970
2020/01/31 15:43:51.3	98.670	0.280	0.030	0.990
2020/01/31 15:43:51.4	98.650	0.300	0.020	1.010
2020/01/31 15:43:51.5	98.620	0.310	0.010	1.020
2020/01/31 15:43:51.6	98.600	0.330	-0.000	1.040
2020/01/31 15:43:51.7	98.570	0.340	-0.020	1.050
2020/01/31 15:43:51.8	98.550	0.360	-0.040	1.060
2020/01/31 15:43:51.9	98.540	0.370	-0.060	1.070
2020/01/31 15:43:52.0	98.520	0.380	-0.080	1.070
2020/01/31 15:43:52.1	98.510	0.390	-0.100	1.070
2020/01/31 15:43:52.2	98.500	0.390	-0.120	1.070
2020/01/31 15:43:52.3	98.500	0.400	-0.140	1.070
2020/01/31 15:43:52.4	98.490	0.410	-0.160	1.060
2020/01/31 15:43:52.5	98.490	0.410	-0.190	1.040
2020/01/31 15:43:52.6	98.490	0.410	-0.210	1.030
2020/01/31 15:43:52.7	98.510	0.410	-0.230	1.010
2020/01/31 15:43:52.8	98.520	0.410	-0.250	0.990
2020/01/31 15:43:52.9	98.530	0.410	-0.280	0.970
2020/01/31 15:43:53.0	98.540	0.400	-0.300	0.940
2020/01/31 15:43:53.1	98.560	0.390	-0.320	0.910
2020/01/31 15:43:53.2	98.570	0.390	-0.340	0.880
2020/01/31 15:43:53.3	98.600	0.380	-0.360	0.840
2020/01/31 15:43:53.4	98.620	0.370	-0.370	0.800
2020/01/31 15:43:53.5	98.650	0.350	-0.390	0.760
2020/01/31 15:43:53.6	98.680	0.340	-0.400	0.720
2020/01/31 15:43:53.7	98.710	0.330	-0.420	0.680
2020/01/31 15:43:53.8	98.740	0.310	-0.430	0.640
2020/01/31 15:43:53.9	98.780	0.300	-0.430	0.600
2020/01/31 15:43:54.0	98.820	0.280	-0.440	0.550
2020/01/31 15:43:54.1	98.870	0.260	-0.440	0.510
2020/01/31 15:43:54.2	98.910	0.240	-0.440	0.470
2020/01/31 15:43:54.3	98.960	0.230	-0.440	0.430
2020/01/31 15:43:54.4	99.000	0.210	-0.430	0.390
2020/01/31 15:43:54.5	99.050	0.190	-0.430	0.350
2020/01/31 15:43:54.6	99.100	0.170	-0.420	0.310
2020/01/31 15:43:54.7	99.150	0.160	-0.400	0.280
2020/01/31 15:43:54.8	99.200	0.140	-0.390	0.250
2020/01/31 15:43:54.9	99.240	0.120	-0.370	0.220
2020/01/31 15:43:55.0	99.290	0.110	-0.350	0.190
2020/01/31 15:43:55.1	99.330	0.090	-0.320	0.170
2020/01/31 15:43:55.2	99.370	0.080	-0.300	0.150
2020/01/31 15:43:55.3	99.410	0.070	-0.270	0.130
2020/01/31 15:43:55.4	99.440	0.050	-0.240	0.120
2020/01/31 15:43:55.5	99.470	0.040	-0.200	0.110
2020/01/31 15:43:55.6	99.500	0.030	-0.170	0.100
2020/01/31 15:43:55.7	99.540	0.010	-0.130	0.110
2020/01/31 15:43:55.8	99.560	0.000	-0.090	0.110
2020/01/31 15:43:55.9	99.570	-0.010	-0.050	0.120
2020/01/31 15:43:56.0	99.590	-0.020	-0.010	0.130
2020/01/31 15:43:56.1	99.590	-0.030	0.030	0.150
2020/01/31 15:43:56.2	99.600	-0.040	0.070	0.170
2020/01/31 15:43:56.3	99.590	-0.060	0.120	0.200
2020/01/31 15:43:56.4	99.590	-0.070	0.160	0.230
2020/01/31 15:43:56.5	99.580	-0.080	0.200	0.270
2020/01/31 15:43:56.6	99.560	-0.090	0.240	0.300
2020/01/31 15:43:56.7	99.550	-0.100	0.280	0.350
2020/01/31 15:43:56.8	99.520	-0.120	0.320	0.390
2020/01/31 15:43:56.9	99.500	-0.130	0.360	0.450
2020/01/31 15:43:57.0	99.470	-0.140	0.390	0.500
2020/01/31 15:43:57.1	99.430	-0.160	0.420	0.560
2020/01/31 15:43:57.2	99.400	-0.170	0.450	0.620
2020/01/31 15:43:57.3	99.360	-0.190	0.480	0.680
2020/01/31 15:43:57.4	99.320	-0.200	0.500	0.740
2020/01/31 15:43:57.5	99.280	-0.220	0.520	0.810
2020/01/31 15:43:57.6	99.230	-0.230	0.530	0.870
2020/01/31 15:43:57.7	99.180	-0.250	0.540	0.940
2020/01/31 15:43:57.8	99.140	-0.260	0.540	1.010
2020/01/31 15:43:57.9	99.100	-0.280	0.540	1.070
2020/01/31 15:43:58.0	99.050	-0.300	0.540	1.140
2020/01/31 15:43:58.1	99.010	-0.310	0.520	1.200
2020/01/31 15:43:58.2	98.970	-0.330	0.510	1.260
2020/01/31 15:43:58.3	98.930	-0.340	0.480	1.320
2020/01/31 15:43:58.4	98.900	-0.350	0.450	1.380
2020/01/31 15:43:58.5	98.860	-0.370	0.420	1.430
2020/01/31 15:43:58.6	98.830	-0.380	0.380	1.480
2020/01/31 15:43:58.7	98.800	-0.390	0.330	1.530
2020/01/31 15:43:58.8	98.770	-0.400	0.280	1.570
2020/01/31 15:43:58.9	98.750	-0.410	0.220	1.610
2020/01/31 15:43:59.0	98.730	-0.420	0.160	1.640
2020/01/31 15:43:59.1	98.720	-0.420	0.090	1.670
2020/01/31 15:43:59.2	98.700	-0.430	0.020	1.700
2020/01/31 15:43:59.3	98.700	-0.430	-0.050	1.720
2020/01/31 15:43:59.4	98.690	-0.430	-0.130	1.740
2020/01/31 15:43:59.5	98.690	-0.430	-0.210	1.750
2020/01/31 15:43:59.6	98.690	-0.420	-0.300	1.750
2020/01/31 15:43:59.7	98.700	-0.420	-0.380	1.760
2020/01/31 15:43:59.8	98.710	-0.410	-0.460	1.750
2020/01/31 15:43:59.9	98.720	-0.400	-0.550	1.740
2020/01/31 15:44:00.0	98.730	-0.390	-0.630	1.730
2020/01/31 15:44:00.1	98.750	-0.380	-0.720	1.710
2020/01/31 15:44:00.2	98.770	-0.360	-0.800	1.680
2020/01/31 15:44:00.3	98.790	-0.340	-0.880	1.660
2020/01/31 15:44:00.4	98.810	-0.320	-0.960	1.620
2020/01/31 15:44:00.5	98.840	-0.300	-1.030	1.580
2020/01/31 15:44:00.6	98.870	-0.280	-1.090	1.540
2020/01/31 15:44:00.7	98.900	-0.260	-1.160	1.490
2020/01/31 15:44:00.8	98.930	-0.240	-1.210	1.440
2020/01/31 15:44:00.9	98.970	-0.210	-1.260	1.390
2020/01/31 15:44:01.0	99.000	-0.190	-1.300	1.330
2020/01/31 15:44:01.1	99.040	-0.160	-1.340	1.270
2020/01/31 15:44:01.2	99.070	-0.130	-1.360	1.210
2020/01/31 15:44:01.3	99.110	-0.110	-1.380	1.140
2020/01/31 15:44:01.4	99.150	-0.080	-1.390	1.070
2020/01/31 15:44:01.5	99.190	-0.050	-1.390	1.000
2020/01/31 15:44:01.6	99.230	-0.020	-1.380	0.930
2020/01/31 15:44:01.7	99.280	0.000	-1.360	0.860
2020/01/31 15:44:01.8	99.320	0.030	-1.330	0.790
2020/01/31 15:44:01.9	99.360	0.050	-1.300	0.710
2020/01/31 15:44:02.0	99.400	0.070	-1.260	0.640
2020/01/31 15:44:02.1	99.440	0.100	-1.210	0.570
2020/01/31 15:44:02.2	99.470	0.120	-1.150	0.500
2020/01/31 15:44:02.3	99.510	0.140	-1.090	0.430
2020/01/31 15:44:02.4	99.550	0.150	-1.010	0.360
2020/01/31 15:44:02.5	99.580	0.170	-0.940	0.290
2020/01/31 15:44:02.6	99.610	0.180	-0.850	0.230
2020/01/31 15:44:02.7	99.640	0.190	-0.770	0.180
2020/01/31 15:44:02.8	99.670	0.200	-0.680	0.120
2020/01/31 15:44:02.9	99.690	0.210	-0.580	0.070
2020/01/31 15:44:03.0	99.720	0.220	-0.480	0.020
2020/01/31 15:44:03.1	99.740	0.220	-0.380	-0.020
2020/01/31 15:44:03.2	99.750	0.220	-0.280	-0.060
2020/01/31 15:44:03.3	99.770	0.220	-0.180	-0.090
2020/01/31 15:44:03.4	99.780	0.220	-0.080	-0.120
2020/01/31 15:44:03.5	99.790	0.210	0.020	-0.140
2020/01/31 15:44:03.6	99.800	0.210	0.120	-0.160
2020/01/31 15:44:03.7	99.810	0.200	0.220	-0.170
2020/01/31 15:44:03.8	99.820	0.190	0.310	-0.180
2020/01/31 15:44:03.9	99.820	0.180	0.400	-0.190
2020/01/31 15:44:04.0	99.820	0.170	0.490	-0.190
2020/01/31 15:44:04.1	99.810	0.150	0.580	-0.190
2020/01/31 15:44:04.2	99.810	0.140	0.650	-0.190
2020/01/31 15:44:04.3	99.810	0.120	0.730	-0.190
2020/01/31 15:44:04.4	99.800	0.110	0.790	-0.180
2020/01/31 15:44:04.5	99.790	0.090	0.850	-0.170
2020/01/31 15:44:04.6	99.780	0.070	0.910	-0.160
2020/01/31 15:44:04.7	99.780	0.060	0.960	-0.150
2020/01/31 15:44:04.8	99.770	0.040	1.000	-0.140
2020/01/31 15:44:04.9	99.760	0.030	1.030	-0.130
2020/01/31 15:44:05.0	99.760	0.010	1.060	-0.120
2020/01/31 15:44:05.1	99.750	-0.000	1.080	-0.110
2020/01/31 15:44:05.2	99.740	-0.010	1.090	-0.100
2020/01/31 15:44:05.3	99.740	-0.020	1.090	-0.100
2020/01/31 15:44:05.4	99.740	-0.030	1.080	-0.090
2020/01/31 15:44:05.5	99.730	-0.030	1.070	-0.090
2020/01/31 15:44:05.6	99.730	-0.040	1.050	-0.090
2020/01/31 15:44:05.7	99.740	-0.040	1.020	-0.100
2020/01/31 15:44:05.8	99.750	-0.040	0.980	-0.100
2020/01/31 15:44:05.9	99.750	-0.030	0.940	-0.120
2020/01/31 15:44:06.0	99.770	-0.020	0.890	-0.130
2020/01/31 15:44:06.1	99.780	-0.010	0.830	-0.150
2020/01/31 15:44:06.2	99.790	-0.000	0.760	-0.160
2020/01/31 15:44:06.3	99.810	0.010	0.690	-0.190
2020/01/31 15:44:06.4	99.830	0.030	0.620	-0.210
2020/01/31 15:44:06.5	99.850	0.050	0.540	-0.230
2020/01/31 15:44:06.6	99.880	0.070	0.460	-0.260
2020/01/31 15:44:06.7	99.900	0.090	0.370	-0.290
2020/01/31 15:44:06.8	99.930	0.120	0.290	-0.310
2020/01/31 15:44:06.9	99.960	0.140	0.190	-0.340
2020/01/31 15:44:07.0	99.980	0.170	0.100	-0.360
2020/01/31 15:44:07.1	100.010	0.200	0.010	-0.380
2020/01/31 15:44:07.2	100.040	0.230	-0.080	-0.400
2020/01/31 15:44:07.3	100.070	0.260	-0.180	-0.420
2020/01/31 15:44:07.4	100.090	0.280	-0.270	-0.430
2020/01/31 15:44:07.5	100.120	0.310	-0.360	-0.430
2020/01/31 15:44:07.6	100.140	0.340	-0.440	-0.430
2020/01/31 15:44:07.7	100.160	0.360	-0.530	-0.430
2020/01/31 15:44:07.8	100.180	0.380	-0.610	-0.420
2020/01/31 15:44:07.9	100.200	0.410	-0.680	-0.400
2020/01/31 15:44:08.0	100.210	0.420	-0.750	-0.380
2020/01/31 15:44:08.1	100.220	0.440	-0.820	-0.350
2020/01/31 15:44:08.2	100.230	0.450	-0.880	-0.320
2020/01/31 15:44:08.3	100.230	0.460	-0.930	-0.280
2020/01/31 15:44:08.4	100.230	0.470	-0.980	-0.240
2020/01/31 15:44:08.5	100.230	0.470	-1.020	-0.190
2020/01/31 15:44:08.6	100.220	0.470	-1.050	-0.140
2020/01/31 15:44:08.7	100.210	0.470	-1.080	-0.080
2020/01/31 15:44:08.8	100.190	0.460	-1.100	-0.020
2020/01/31 15:44:08.9	100.170	0.450	-1.110	0.050
2020/01/31 15:44:09.0	100.150	0.430	-1.120	0.120
2020/01/31 15:44:09.1	100.130	0.410	-1.120	0.190
2020/01/31 15:44:09.2	100.100	0.390	-1.110	0.260
2020/01/31 15:44:09.3	100.080	0.360	-1.090	0.330
2020/01/31 15:44:09.4	100.050	0.330	-1.070	0.410
2020/01/31 15:44:09.5	100.010	0.290	-1.050	0.480
2020/01/31 15:44:09.6	99.980	0.260	-1.020	0.560
2020/01/31 15:44:09.7	99.960	0.220	-0.980	0.640
2020/01/31 15:44:09.8	99.930	0.180	-0.940	0.710
2020/01/31 15:44:09.9	99.900	0.130	-0.900	0.780
2020/01/31 15:44:10.0	99.860	0.090	-0.850	0.850
2020/01/31 15:44:10.1	99.830	0.040	-0.810	0.920
2020/01/31 15:44:10.2	99.800	-0.000	-0.760	0.980
2020/01/31 15:44:10.3	99.780	-0.050	-0.710	1.040
2020/01/31 15:44:10.4	99.750	-0.090	-0.660	1.100
2020/01/31 15:44:10.5	99.730	-0.140	-0.610	1.160
2020/01/31 15:44:10.6	99.710	-0.180	-0.560	1.200
2020/01/31 15:44:10.7	99.690	-0.220	-0.510	1.250
2020/01/31 15:44:10.8	99.680	-0.260	-0.460	1.290
2020/01/31 15:44:10.9	99.670	-0.300	-0.420	1.330
2020/01/31 15:44:11.0	99.660	-0.340	-0.380	1.360
2020/01/31 15:44:11.1	99.660	-0.370	-0.340	1.390
2020/01/31 15:44:11.2	99.650	-0.400	-0.310	1.420
2020/01/31 15:44:11.3	99.660	-0.420	-0.280	1.450
2020/01/31 15:44:11.4	99.660	-0.440	-0.260	1.470
2020/01/31 15:44:11.5	99.670	-0.460	-0.240	1.490
2020/01/31 15:44:11.6	99.680	-0.470	-0.220	1.500
2020/01/31 15:44:11.7	99.690	-0.480	-0.210	1.520
2020/01/31 15:44:11.8	99.710	-0.480	-0.200	1.530
2020/01/31 15:44:11.9	99.730	-0.480	-0.190	1.540
2020/01/31 15:44:12.0	99.750	-0.470	-0.190	1.550
2020/01/31 15:44:12.1	99.770	-0.460	-0.190	1.560
2020/01/31 15:44:12.2	99.790	-0.450	-0.200	1.570
2020/01/31 15:44:12.3	99.820	-0.430	-0.200	1.580
2020/01/31 15:44:12.4	99.840	-0.410	-0.210	1.590
2020/01/31 15:44:12.5	99.870	-0.390	-0.220	1.590
2020/01/31 15:44:12.6	99.900	-0.370	-0.230	1.600
2020/01/31 15:44:12.7	99.920	-0.340	-0.230	1.610
2020/01/31 15:44:12.8	99.950	-0.310	-0.240	1.620
2020/01/31 15:44:12.9	99.970	-0.280	-0.250	1.620
2020/01/31 15:44:13.0	100.000	-0.250	-0.250	1.630
2020/01/31 15:44:13.1	100.030	-0.220	-0.250	1.640
2020/01/31 15:44:13.2	100.050	-0.190	-0.250	1.640
2020/01/31 15:44:13.3	100.070	-0.160	-0.240	1.650
2020/01/31 15:44:13.4	100.090	-0.140	-0.240	1.650
2020/01/31 15:44:13.5	100.110	-0.110	-0.220	1.650
2020/01/31 15:44:13.6	100.120	-0.090	-0.200	1.650
2020/01/31 15:44:13.7	100.130	-0.060	-0.190	1.660
2020/01/31 15:44:13.8	100.140	-0.040	-0.160	1.650
2020/01/31 15:44:13.9	100.150	-0.030	-0.130	1.650
2020/01/31 15:44:14.0	100.160	-0.010	-0.090	1.640
2020/01/31 15:44:14.1	100.170	-0.000	-0.050	1.620
2020/01/31 15:44:14.2	100.170	0.000	-0.010	1.610
2020/01/31 15:44:14.3	100.170	0.010	0.040	1.590
2020/01/31 15:44:14.4	100.170	0.010	0.090	1.570
2020/01/31 15:44:14.5	100.170	0.000	0.140	1.540
2020/01/31 15:44:14.6	100.160	-0.000	0.200	1.520
2020/01/31 15:44:14.7	100.160	-0.010	0.270	1.480
2020/01/31 15:44:14.8	100.150	-0.030	0.330	1.450
2020/01/31 15:44:14.9	100.140	-0.040	0.390	1.410
2020/01/31 15:44:15.0	100.130	-0.060	0.450	1.370
2020/01/31 15:44:15.1	100.120	-0.090	0.510	1.320
2020/01/31 15:44:15.2	100.110	-0.110	0.580	1.270
2020/01/31 15:44:15.3	100.090	-0.140	0.640	1.220
2020/01/31 15:44:15.4	100.080	-0.170	0.690	1.160
2020/01/31 15:44:15.5	100.070	-0.190	0.750	1.100
2020/01/31 15:44:15.6	100.050	-0.220	0.800	1.040
2020/01/31 15:44:15.7	100.030	-0.250	0.840	0.980
2020/01/31 15:44:15.8	100.020	-0.280	0.880	0.920
2020/01/31 15:44:15.9	100.000	-0.310	0.920	0.850
2020/01/31 15:44:16.0	99.980	-0.340	0.940	0.780
2020/01/31 15:44:16.1	99.970	-0.370	0.960	0.710
2020/01/31 15:44:16.2	99.950	-0.400	0.970	0.640
2020/01/31 15:44:16.3	99.930	-0.420	0.980	0.570
2020/01/31 15:44:16.4	99.920	-0.440	0.970	0.490
2020/01/31 15:44:16.5	99.900	-0.460	0.960	0.420
2020/01/31 15:44:16.6	99.880	-0.470	0.930	0.350
2020/01/31 15:44:16.7	99.860	-0.480	0.900	0.280
2020/01/31 15:44:16.8	99.840	-0.490	0.860	0.200
2020/01/31 15:44:16.9	99.820	-0.490	0.810	0.130
2020/01/31 15:44:17.0	99.810	-0.490	0.750	0.060
2020/01/31 15:44:17.1	99.790	-0.480	0.680	-0.010
2020/01/31 15:44:17.2	99.770	-0.470	0.600	-0.080
2020/01/31 15:44:17.3	99.760	-0.460	0.510	-0.150
2020/01/31 15:44:17.4	99.740	-0.440	0.420	-0.220
2020/01/31 15:44:17.5	99.730	-0.410	0.320	-0.280
2020/01/31 15:44:17.6	99.720	-0.380	0.210	-0.350
2020/01/31 15:44:17.7	99.700	-0.350	0.100	-0.410
2020/01/31 15:44:17.8	99.690	-0.310	-0.020	-0.470
2020/01/31 15:44:17.9	99.680	-0.270	-0.150	-0.530
2020/01/31 15:44:18.0	99.680	-0.220	-0.270	-0.590
2020/01/31 15:44:18.1	99.670	-0.170	-0.400	-0.640
2020/01/31 15:44:18.2	99.660	-0.120	-0.530	-0.700
2020/01/31 15:44:18.3	99.660	-0.060	-0.660	-0.750
2020/01/31 15:44:18.4	99.650	-0.010	-0.780	-0.790
2020/01/31 15:44:18.5	99.640	0.050	-0.910	-0.840
2020/01/31 15:44:18.6	99.640	0.110	-1.030	-0.880
2020/01/31 15:44:18.7	99.650	0.170	-1.140	-0.910
2020/01/31 15:44:18.8	99.650	0.240	-1.250	-0.950
2020/01/31 15:44:18.9	99.650	0.300	-1.360	-0.980
2020/01/31 15:44:19.0	99.650	0.360	-1.450	-1.000
2020/01/31 15:44:19.1	99.640	0.420	-1.540	-1.020
2020/01/31 15:44:19.2	99.640	0.470	-1.610	-1.040
2020/01/31 15:44:19.3	99.640	0.530	-1.680	-1.050
2020/01/31 15:44:19.4	99.640	0.580	-1.740	-1.060
2020/01/31 15:44:19.5	99.640	0.630	-1.780	-1.070
2020/01/31 15:44:19.6	99.640	0.670	-1.810	-1.070
2020/01/31 15:44:19.7	99.640	0.710	-1.830	-1.070
2020/01/31 15:44:19.8	99.640	0.750	-1.840	-1.060
2020/01/31 15:44:19.9	99.640	0.780	-1.840	-1.050
2020/01/31 15:44:20.0	99.640	0.810	-1.820	-1.030
2020/01/31 15:44:20.1	99.640	0.830	-1.790	-1.010
2020/01/31 15:44:20.2	99.640	0.840	-1.750	-0.990
2020/01/31 15:44:20.3	99.640	0.850	-1.700	-0.960
2020/01/31 15:44:20.4	99.630	0.860	-1.630	-0.920
2020/01/31 15:44:20.5	99.630	0.860	-1.560	-0.890
2020/01/31 15:44:20.6	99.630	0.850	-1.470	-0.850
2020/01/31 15:44:20.7	99.640	0.840	-1.380	-0.800
2020/01/31 15:44:20.8	99.630	0.820	-1.270	-0.750
2020/01/31 15:44:20.9	99.630	0.800	-1.170	-0.700
2020/01/31 15:44:21.0	99.630	0.770	-1.050	-0.650
2020/01/31 15:44:21.1	99.620	0.730	-0.930	-0.600
2020/01/31 15:44:21.2	99.620	0.700	-0.810	-0.540
2020/01/31 15:44:21.3	99.610	0.660	-0.680	-0.480
2020/01/31 15:44:21.4	99.610	0.610	-0.560	-0.420
2020/01/31 15:44:21.5	99.600	0.560	-0.430	-0.360
2020/01/31 15:44:21.6	99.590	0.510	-0.300	-0.300
2020/01/31 15:44:21.7	99.590	0.460	-0.170	-0.220
2020/01/31 15:44:21.8	99.580	0.410	-0.050	-0.160
2020/01/31 15:44:21.9	99.570	0.350	0.070	-0.090
2020/01/31 15:44:22.0	99.560	0.290	0.180	-0.020
2020/01/31 15:44:22.1	99.550	0.230	0.300	0.050
2020/01/31 15:44:22.2	99.540	0.180	0.400	0.120
2020/01/31 15:44:22.3	99.530	0.120	0.500	0.190
2020/01/31 15:44:22.4	99.520	0.060	0.590	0.270
2020/01/31 15:44:22.5	99.500	0.010	0.680	0.340
2020/01/31 15:44:22.6	99.490	-0.040	0.750	0.410
2020/01/31 15:44:22.7	99.470	-0.100	0.830	0.490
2020/01/31 15:44:22.8	99.450	-0.150	0.890	0.560
2020/01/31 15:44:22.9	99.430	-0.190	0.940	0.640
2020/01/31 15:44:23.0	99.410	-0.230	0.990	0.710
2020/01/31 15:44:23.1	99.380	-0.280	1.030	0.780
2020/01/31 15:44:23.2	99.360	-0.310	1.060	0.850
2020/01/31 15:44:23.3	99.330	-0.350	1.080	0.920
2020/01/31 15:44:23.4	99.310	-0.370	1.100	0.990
2020/01/31 15:44:23.5	99.280	-0.400	1.110	1.060
2020/01/31 15:44:23.6	99.250	-0.420	1.110	1.130
2020/01/31 15:44:23.7	99.210	-0.440	1.110	1.200
2020/01/31 15:44:23.8	99.180	-0.460	1.090	1.260
2020/01/31 15:44:23.9	99.150	-0.470	1.080	1.320
2020/01/31 15:44:24.0	99.120	-0.480	1.060	1.370
2020/01/31 15:44:24.1	99.090	-0.480	1.030	1.430
2020/01/31 15:44:24.2	99.060	-0.490	1.000	1.480
2020/01/31 15:44:24.3	99.030	-0.490	0.960	1.520
2020/01/31 15:44:24.4	99.000	-0.480	0.920	1.570
2020/01/31 15:44:24.5	98.980	-0.480	0.880	1.600
2020/01/31 15:44:24.6	98.950	-0.470	0.830	1.640
2020/01/31 15:44:24.7	98.920	-0.460	0.780	1.670
2020/01/31 15:44:24.8	98.910	-0.450	0.720	1.690
2020/01/31 15:44:24.9	98.890	-0.440	0.670	1.710
2020/01/31 15:44:25.0	98.880	-0.420	0.610	1.730
2020/01/31 15:44:25.1	98.870	-0.410	0.550	1.740
2020/01/31 15:44:25.2	98.860	-0.390	0.490	1.750
2020/01/31 15:44:25.3	98.860	-0.380	0.420	1.750
2020/01/31 15:44:25.4	98.860	-0.360	0.360	1.760
2020/01/31 15:44:25.5	98.860	-0.340	0.300	1.750
2020/01/31 15:44:25.6	98.870	-0.330	0.230	1.750
2020/01/31 15:44:25.7	98.870	-0.310	0.170	1.740
2020/01/31 15:44:25.8	98.890	-0.290	0.100	1.730
2020/01/31 15:44:25.9	98.900	-0.280	0.040	1.720
2020/01/31 15:44:26.0	98.910	-0.260	-0.030	1.700
2020/01/31 15:44:26.1	98.930	-0.250	-0.100	1.680
2020/01/31 15:44:26.2	98.950	-0.230	-0.160	1.660
2020/01/31 15:44:26.3	98.970	-0.220	-0.220	1.640
2020/01/31 15:44:26.4	98.990	-0.200	-0.290	1.620
2020/01/31 15:44:26.5	99.010	-0.190	-0.350	1.600
2020/01/31 15:44:26.6	99.030	-0.180	-0.410	1.570
2020/01/31 15:44:26.7	99.050	-0.170	-0.460	1.550
2020/01/31 15:44:26.8	99.080	-0.150	-0.520	1.520
2020/01/31 15:44:26.9	99.100	-0.140	-0.570	1.490
2020/01/31 15:44:27.0	99.130	-0.140	-0.630	1.450
2020/01/31 15:44:27.1	99.150	-0.130	-0.680	1.420
2020/01/31 15:44:27.2	99.180	-0.120	-0.720	1.380
2020/01/31 15:44:27.3	99.210	-0.110	-0.770	1.340
2020/01/31 15:44:27.4	99.230	-0.100	-0.810	1.300
2020/01/31 15:44:27.5	99.260	-0.090	-0.850	1.260
2020/01/31 15:44:27.6	99.290	-0.090	-0.890	1.220
2020/01/31 15:44:27.7	99.310	-0.080	-0.920	1.180
2020/01/31 15:44:27.8	99.340	-0.070	-0.950	1.140
2020/01/31 15:44:27.9	99.370	-0.060	-0.980	1.090
2020/01/31 15:44:28.0	99.400	-0.060	-1.010	1.050
2020/01/31 15:44:28.1	99.420	-0.050	-1.030	1.000
2020/01/31 15:44:28.2	99.450	-0.040	-1.050	0.960
2020/01/31 15:44:28.3	99.470	-0.030	-1.060	0.920
2020/01/31 15:44:28.4	99.490	-0.020	-1.080	0.870
2020/01/31 15:44:28.5	99.510	-0.010	-1.080	0.830
2020/01/31 15:44:28.6	99.530	0.000	-1.090	0.790
2020/01/31 15:44:28.7	99.560	0.010	-1.090	0.760
2020/01/31 15:44:28.8	99.580	0.030	-1.090	0.720
2020/01/31 15:44:28.9	99.590	0.040	-1.090	0.690
2020/01/31 15:44:29.0	99.600	0.050	-1.080	0.660
2020/01/31 15:44:29.1	99.610	0.070	-1.070	0.630
2020/01/31 15:44:29.2	99.610	0.080	-1.060	0.600
2020/01/31 15:44:29.3	99.610	0.090	-1.050	0.580
2020/01/31 15:44:29.4	99.610	0.110	-1.030	0.560
2020/01/31 15:44:29.5	99.610	0.120	-1.010	0.540
2020/01/31 15:44:29.6	99.600	0.140	-0.980	0.520
2020/01/31 15:44:29.7	99.590	0.150	-0.960	0.510
2020/01/31 15:44:29.8	99.580	0.170	-0.930	0.490
2020/01/31 15:44:29.9	99.570	0.180	-0.890	0.480
2020/01/31 15:44:30.0	99.550	0.200	-0.860	0.470
2020/01/31 15:44:30.1	99.540	0.210	-0.820	0.460
2020/01/31 15:44:30.2	99.520	0.220	-0.780	0.450
2020/01/31 15:44:30.3	99.500	0.230	-0.740	0.440
2020/01/31 15:44:30.4	99.480	0.240	-0.690	0.430
2020/01/31 15:44:30.5	99.450	0.250	-0.650	0.430
2020/01/31 15:44:30.6	99.430	0.260	-0.600	0.420
2020/01/31 15:44:30.7	99.420	0.270	-0.550	0.420
2020/01/31 15:44:30.8	99.400	0.270	-0.500	0.420
2020/01/31 15:44:30.9	99.370	0.280	-0.450	0.410
2020/01/31 15:44:31.0	99.340	0.280	-0.400	0.410
2020/01/31 15:44:31.1	99.320	0.280	-0.340	0.410
2020/01/31 15:44:31.2	99.290	0.280	-0.290	0.400
2020/01/31 15:44:31.3	99.270	0.280	-0.240	0.400
2020/01/31 15:44:31.4	99.240	0.280	-0.190	0.400
2020/01/31 15:44:31.5	99.210	0.270	-0.140	0.400
2020/01/31 15:44:31.6	99.190	0.260	-0.090	0.400
2020/01/31 15:44:31.7	99.180	0.250	-0.040	0.400
2020/01/31 15:44:31.8	99.150	0.240	0.010	0.400
2020/01/31 15:44:31.9	99.130	0.230	0.050	0.400
2020/01/31 15:44:32.0	99.110	0.210	0.100	0.400
2020/01/31 15:44:32.1	99.090	0.200	0.150	0.400
2020/01/31 15:44:32.2	99.070	0.180	0.190	0.400
2020/01/31 15:44:32.3	99.050	0.160	0.240	0.390
2020/01/31 15:44:32.4	99.030	0.140	0.280	0.390
2020/01/31 15:44:32.5	99.020	0.110	0.320	0.390
2020/01/31 15:44:32.6	99.000	0.090	0.360	0.380
2020/01/31 15:44:32.7	98.990	0.070	0.400	0.370
2020/01/31 15:44:32.8	98.970	0.040	0.440	0.370
2020/01/31 15:44:32.9	98.960	0.010	0.470	0.360
2020/01/31 15:44:33.0	98.950	-0.020	0.510	0.340
2020/01/31 15:44:33.1	98.940	-0.040	0.540	0.330
2020/01/31 15:44:33.2	98.940	-0.070	0.570	0.310
2020/01/31 15:44:33.3	98.930	-0.100	0.600	0.300
2020/01/31 15:44:33.4	98.920	-0.130	0.630	0.270
2020/01/31 15:44:33.5	98.920	-0.160	0.650	0.250
2020/01/31 15:44:33.6	98.920	-0.190	0.670	0.230
2020/01/31 15:44:33.7	98.920	-0.210	0.700	0.200
2020/01/31 15:44:33.8	98.920	-0.240	0.710	0.170
2020/01/31 15:44:33.9	98.920	-0.260	0.730	0.130
2020/01/31 15:44:34.0	98.920	-0.290	0.740	0.100
2020/01/31 15:44:34.1	98.930	-0.310	0.750	0.050
2020/01/31 15:44:34.2	98.940	-0.330	0.750	0.010
2020/01/31 15:44:34.3	98.950	-0.350	0.750	-0.040
2020/01/31 15:44:34.4	98.960	-0.360	0.750	-0.080
2020/01/31 15:44:34.5	98.970	-0.380	0.740	-0.140
2020/01/31 15:44:34.6	98.980	-0.390	0.730	-0.190
2020/01/31 15:44:34.7	99.000	-0.390	0.710	-0.240
2020/01/31 15:44:34.8	99.020	-0.400	0.690	-0.300
2020/01/31 15:44:34.9	99.040	-0.400	0.660	-0.360
2020/01/31 15:44:35.0	99.060	-0.400	0.630	-0.420
2020/01/31 15:44:35.1	99.080	-0.400	0.600	-0.480
2020/01/31 15:44:35.2	99.110	-0.400	0.560	-0.540
2020/01/31 15:44:35.3	99.130	-0.390	0.510	-0.600
2020/01/31 15:44:35.4	99.160	-0.380	0.460	-0.660
2020/01/31 15:44:35.5	99.180	-0.360	0.410	-0.710
2020/01/31 15:44:35.6	99.210	-0.340	0.350	-0.770
2020/01/31 15:44:35.7	99.240	-0.320	0.300	-0.820
2020/01/31 15:44:35.8	99.270	-0.300	0.230	-0.870
2020/01/31 15:44:35.9	99.300	-0.280	0.170	-0.920
2020/01/31 15:44:36.0	99.330	-0.250	0.100	-0.960
2020/01/31 15:44:36.1	99.360	-0.220	0.030	-1.000
2020/01/31 15:44:36.2	99.390	-0.180	-0.050	-1.040
2020/01/31 15:44:36.3	99.420	-0.150	-0.120	-1.070
2020/01/31 15:44:36.4	99.440	-0.110	-0.190	-1.100
2020/01/31 15:44:36.5	99.470	-0.080	-0.270	-1.120
2020/01/31 15:44:36.6	99.500	-0.040	-0.350	-1.130
2020/01/31 15:44:36.7	99.530	0.000	-0.420	-1.140
2020/01/31 15:44:36.8	99.560	0.050	-0.500	-1.150
2020/01/31 15:44:36.9	99.590	0.090	-0.570	-1.150
2020/01/31 15:44:37.0	99.610	0.130	-0.640	-1.140
2020/01/31 15:44:37.1	99.640	0.170	-0.710	-1.130
2020/01/31 15:44:37.2	99.660	0.220	-0.770	-1.110
2020/01/31 15:44:37.3	99.680	0.260	-0.840	-1.090
2020/01/31 15:44:37.4	99.700	0.300	-0.900	-1.070
2020/01/31 15:44:37.5	99.720	0.340	-0.960	-1.030
2020/01/31 15:44:37.6	99.740	0.380	-1.010	-1.000
2020/01/31 15:44:37.7	99.750	0.420	-1.060	-0.950
2020/01/31 15:44:37.8	99.770	0.460	-1.110	-0.910
2020/01/31 15:44:37.9	99.780	0.490	-1.150	-0.860
2020/01/31 15:44:38.0	99.800	0.530	-1.190	-0.800
2020/01/31 15:44:38.1	99.810	0.560	-1.220	-0.750
2020/01/31 15:44:38.2	99.820	0.590	-1.250	-0.690
2020/01/31 15:44:38.3	99.830	0.610	-1.270	-0.620
2020/01/31 15:44:38.4	99.850	0.640	-1.280	-0.560
2020/01/31 15:44:38.5	99.860	0.660	-1.300	-0.490
2020/01/31 15:44:38.6	99.870	0.670	-1.300	-0.420
2020/01/31 15:44:38.7	99.870	0.690	-1.300	-0.340
2020/01/31 15:44:38.8	99.880	0.700	-1.290	-0.270
2020/01/31 15:44:38.9	99.890	0.700	-1.280	-0.190
2020/01/31 15:44:39.0	99.900	0.710	-1.260	-0.110
2020/01/31 15:44:39.1	99.910	0.710	-1.230	-0.030
2020/01/31 15:44:39.2	99.920	0.700	-1.200	0.050
2020/01/31 15:44:39.3	99.920	0.690	-1.160	0.130
2020/01/31 15:44:39.4	99.930	0.680	-1.120	0.220
2020/01/31 15:44:39.5	99.940	0.660	-1.070	0.300
2020/01/31 15:44:39.6	99.950	0.640	-1.010	0.380
2020/01/31 15:44:39.7	99.950	0.620	-0.950	0.470
2020/01/31 15:44:39.8	99.960	0.590	-0.880	0.560
2020/01/31 15:44:39.9	99.960	0.560	-0.800	0.640
2020/01/31 15:44:40.0	99.970	0.520	-0.730	0.730
2020/01/31 15:44:40.1	99.970	0.480	-0.640	0.810
2020/01/31 15:44:40.2	99.970	0.440	-0.550	0.900
2020/01/31 15:44:40.3	99.970	0.390	-0.460	0.980
2020/01/31 15:44:40.4	99.970	0.340	-0.370	1.070
2020/01/31 15:44:40.5	99.960	0.290	-0.270	1.150
2020/01/31 15:44:40.6	99.950	0.240	-0.170	1.240
2020/01/31 15:44:40.7	99.940	0.190	-0.060	1.330
2020/01/31 15:44:40.8	99.930	0.130	0.040	1.410
2020/01/31 15:44:40.9	99.920	0.080	0.140	1.490
2020/01/31 15:44:41.0	99.900	0.020	0.250	1.570
2020/01/31 15:44:41.1	99.890	-0.040	0.350	1.650
2020/01/31 15:44:41.2	99.870	-0.100	0.450	1.730
2020/01/31 15:44:41.3	99.860	-0.150	0.550	1.810
2020/01/31 15:44:41.4	99.840	-0.210	0.640	1.890
2020/01/31 15:44:41.5	99.820	-0.270	0.730	1.960
2020/01/31 15:44:41.6	99.800	-0.320	0.820	2.040
2020/01/31 15:44:41.7	99.770	-0.370	0.900	2.110
2020/01/31 15:44:41.8	99.750	-0.420	0.970	2.180
2020/01/31 15:44:41.9	99.720	-0.470	1.030	2.240
2020/01/31 15:44:42.0	99.700	-0.520	1.090	2.300
2020/01/31 15:44:42.1	99.680	-0.560	1.140	2.360
2020/01/31 15:44:42.2	99.660	-0.600	1.170	2.410
2020/01/31 15:44:42.3	99.640	-0.640	1.200	2.460
2020/01/31 15:44:42.4	99.620	-0.680	1.220	2.510
2020/01/31 15:44:42.5	99.600	-0.710	1.230	2.540
2020/01/31 15:44:42.6	99.580	-0.730	1.230	2.580
2020/01/31 15:44:42.7	99.540	-0.760	1.220	2.610
2020/01/31 15:44:42.8	99.530	-0.770	1.200	2.640
2020/01/31 15:44:42.9	99.510	-0.790	1.170	2.650
2020/01/31 15:44:43.0	99.490	-0.800	1.130	2.670
2020/01/31 15:44:43.1	99.480	-0.800	1.080	2.670
2020/01/31 15:44:43.2	99.460	-0.810	1.010	2.670
2020/01/31 15:44:43.3	99.450	-0.800	0.950	2.670
2020/01/31 15:44:43.4	99.440	-0.800	0.870	2.660
2020/01/31 15:44:43.5	99.430	-0.780	0.780	2.640
2020/01/31 15:44:43.6	99.420	-0.770	0.680	2.620
2020/01/31 15:44:43.7	99.410	-0.750	0.580	2.590
2020/01/31 15:44:43.8	99.410	-0.720	0.470	2.560
2020/01/31 15:44:43.9	99.400	-0.690	0.360	2.520
2020/01/31 15:44:44.0	99.400	-0.660	0.240	2.470
2020/01/31 15:44:44.1	99.400	-0.620	0.110	2.420
2020/01/31 15:44:44.2	99.400	-0.580	-0.010	2.370
2020/01/31 15:44:44.3	99.400	-0.540	-0.140	2.310
2020/01/31 15:44:44.4	99.400	-0.490	-0.280	2.240
2020/01/31 15:44:44.5	99.410	-0.450	-0.410	2.170
2020/01/31 15:44:44.6	99.420	-0.400	-0.540	2.100
2020/01/31 15:44:44.7	99.430	-0.340	-0.660	2.030
2020/01/31 15:44:44.8	99.440	-0.290	-0.790	1.950
2020/01/31 15:44:44.9	99.450	-0.230	-0.910	1.860
2020/01/31 15:44:45.0	99.460	-0.180	-1.030	1.780
2020/01/31 15:44:45.1	99.480	-0.120	-1.140	1.690
2020/01/31 15:44:45.2	99.490	-0.060	-1.240	1.600
2020/01/31 15:44:45.3	99.510	-0.010	-1.340	1.510
2020/01/31 15:44:45.4	99.520	0.050	-1.420	1.420
2020/01/31 15:44:45.5	99.540	0.100	-1.500	1.330
2020/01/31 15:44:45.6	99.560	0.160	-1.570	1.240
2020/01/31 15:44:45.7	99.580	0.210	-1.630	1.150
2020/01/31 15:44:45.8	99.600	0.260	-1.680	1.070
2020/01/31 15:44:45.9	99.620	0.300	-1.710	0.980
2020/01/31 15:44:46.0	99.630	0.350	-1.730	0.900
2020/01/31 15:44:46.1	99.650	0.390	-1.740	0.810
2020/01/31 15:44:46.2	99.660	0.420	-1.740	0.730
2020/01/31 15:44:46.3	99.680	0.460	-1.730	0.650
2020/01/31 15:44:46.4	99.690	0.490	-1.700	0.580
2020/01/31 15:44:46.5	99.700	0.510	-1.670	0.500
2020/01/31 15:44:46.6	99.710	0.530	-1.620	0.430
2020/01/31 15:44:46.7	99.740	0.550	-1.550	0.360
2020/01/31 15:44:46.8	99.740	0.560	-1.490	0.290
2020/01/31 15:44:46.9	99.750	0.570	-1.410	0.220
2020/01/31 15:44:47.0	99.760	0.580	-1.330	0.160
2020/01/31 15:44:47.1	99.770	0.580	-1.240	0.100
2020/01/31 15:44:47.2	99.770	0.570	-1.140	0.040
2020/01/31 15:44:47.3	99.780	0.570	-1.040	-0.020
2020/01/31 15:44:47.4	99.780	0.560	-0.930	-0.080
2020/01/31 15:44:47.5	99.780	0.540	-0.820	-0.130
2020/01/31 15:44:47.6	99.780	0.530	-0.710	-0.180
2020/01/31 15:44:47.7	99.790	0.510	-0.590	-0.230
2020/01/31 15:44:47.8	99.790	0.480	-0.480	-0.280
2020/01/31 15:44:47.9	99.790	0.460	-0.370	-0.320
2020/01/31 15:44:48.0	99.800	0.430	-0.250	-0.370
2020/01/31 15:44:48.1	99.800	0.400	-0.140	-0.410
2020/01/31 15:44:48.2	99.800	0.370	-0.030	-0.450
2020/01/31 15:44:48.3	99.800	0.330	0.070	-0.480
2020/01/31 15:44:48.4	99.800	0.300	0.170	-0.520
2020/01/31 15:44:48.5	99.800	0.260	0.270	-0.550
2020/01/31 15:44:48.6	99.800	0.230	0.360	-0.580
2020/01/31 15:44:48.7	99.800	0.190	0.450	-0.600
2020/01/31 15:44:48.8	99.800	0.150	0.540	-0.620
2020/01/31 15:44:48.9	99.800	0.120	0.620	-0.640
2020/01/31 15:44:49.0	99.800	0.080	0.690	-0.660
2020/01/31 15:44:49.1	99.800	0.040	0.760	-0.670
2020/01/31 15:44:49.2	99.800	0.010	0.820	-0.680
2020/01/31 15:44:49.3	99.790	-0.020	0.870	-0.690
2020/01/31 15:44:49.4	99.790	-0.060	0.920	-0.690
2020/01/31 15:44:49.5	99.790	-0.090	0.970	-0.680
2020/01/31 15:44:49.6	99.780	-0.120	1.010	-0.680
2020/01/31 15:44:49.7	99.770	-0.140	1.040	-0.660
2020/01/31 15:44:49.8	99.770	-0.170	1.060	-0.640
2020/01/31 15:44:49.9	99.760	-0.190	1.080	-0.620
2020/01/31 15:44:50.0	99.750	-0.210	1.100	-0.600
2020/01/31 15:44:50.1	99.740	-0.230	1.100	-0.560
2020/01/31 15:44:50.2	99.730	-0.240	1.110	-0.530
2020/01/31 15:44:50.3	99.720	-0.260	1.100	-0.490
2020/01/31 15:44:50.4	99.710	-0.270	1.090	-0.450
2020/01/31 15:44:50.5	99.700	-0.270	1.070	-0.400
2020/01/31 15:44:50.6	99.690	-0.280	1.050	-0.350
2020/01/31 15:44:50.7	99.680	-0.280	1.020	-0.290
2020/01/31 15:44:50.8	99.670	-0.280	0.980	-0.240
2020/01/31 15:44:50.9	99.650	-0.280	0.940	-0.180
2020/01/31 15:44:51.0	99.640	-0.270	0.890	-0.120
2020/01/31 15:44:51.1	99.630	-0.270	0.840	-0.060
2020/01/31 15:44:51.2	99.610	-0.260	0.780	0.000
2020/01/31 15:44:51.3	99.600	-0.250	0.720	0.060
2020/01/31 15:44:51.4	99.590	-0.230	0.650	0.130
2020/01/31 15:44:51.5	99.570	-0.220	0.580	0.190
2020/01/31 15:44:51.6	99.560	-0.200	0.500	0.250
2020/01/31 15:44:51.7	99.540	-0.180	0.420	0.310
2020/01/31 15:44:51.8	99.530	-0.160	0.330	0.370
2020/01/31 15:44:51.9	99.510	-0.140	0.250	0.430
2020/01/31 15:44:52.0	99.500	-0.120	0.160	0.490
2020/01/31 15:44:52.1	99.480	-0.100	0.070	0.550
2020/01/31 15:44:52.2	99.460	-0.080	-0.020	0.610
2020/01/31 15:44:52.3	99.450	-0.060	-0.110	0.660
2020/01/31 15:44:52.4	99.430	-0.040	-0.200	0.720
2020/01/31 15:44:52.5	99.410	-0.010	-0.290	0.770
2020/01/31 15:44:52.6	99.400	0.010	-0.380	0.820
2020/01/31 15:44:52.7	99.370	0.030	-0.470	0.870
2020/01/31 15:44:52.8	99.360	0.050	-0.550	0.910
2020/01/31 15:44:52.9	99.340	0.070	-0.630	0.960
2020/01/31 15:44:53.0	99.330	0.090	-0.710	1.000
2020/01/31 15:44:53.1	99.320	0.110	-0.790	1.040
2020/01/31 15:44:53.2	99.300	0.130	-0.860	1.080
2020/01/31 15:44:53.3	99.290	0.140	-0.930	1.120
2020/01/31 15:44:53.4	99.280	0.160	-1.000	1.160
2020/01/31 15:44:53.5	99.270	0.170	-1.050	1.190
2020/01/31 15:44:53.6	99.260	0.190	-1.110	1.220
2020/01/31 15:44:53.7	99.250	0.200	-1.160	1.260
2020/01/31 15:44:53.8	99.250	0.210	-1.200	1.290
2020/01/31 15:44:53.9	99.240	0.220	-1.240	1.320
2020/01/31 15:44:54.0	99.240	0.230	-1.270	1.350
2020/01/31 15:44:54.1	99.240	0.230	-1.290	1.380
2020/01/31 15:44:54.2	99.230	0.240	-1.310	1.410
2020/01/31 15:44:54.3	99.230	0.240	-1.320	1.440
2020/01/31 15:44:54.4	99.230	0.240	-1.330	1.460
2020/01/31 15:44:54.5	99.230	0.240	-1.330	1.490
2020/01/31 15:44:54.6	99.230	0.240	-1.320	1.520
2020/01/31 15:44:54.7	99.240	0.240	-1.300	1.560
2020/01/31 15:44:54.8	99.240	0.230	-1.280	1.590
2020/01/31 15:44:54.9	99.240	0.230	-1.260	1.620
2020/01/31 15:44:55.0	99.240	0.220	-1.230	1.650
2020/01/31 15:44:55.1	99.240	0.210	-1.190	1.680
2020/01/31 15:44:55.2	99.240	0.210	-1.150	1.710
2020/01/31 15:44:55.3	99.240	0.200	-1.100	1.740
2020/01/31 15:44:55.4	99.240	0.180	-1.050	1.780
2020/01/31 15:44:55.5	99.250	0.170	-0.990	1.810
2020/01/31 15:44:55.6	99.250	0.160	-0.930	1.840
2020/01/31 15:44:55.7	99.240	0.150	-0.860	1.870
2020/01/31 15:44:55.8	99.240	0.140	-0.790	1.900
2020/01/31 15:44:55.9	99.250	0.120	-0.720	1.930
2020/01/31 15:44:56.0	99.250	0.110	-0.640	1.960
2020/01/31 15:44:56.1	99.250	0.100	-0.560	1.980
2020/01/31 15:44:56.2	99.250	0.080	-0.490	2.000
2020/01/31 15:44:56.3	99.250	0.070	-0.410	2.020
2020/01/31 15:44:56.4	99.250	0.060	-0.330	2.040
2020/01/31 15:44:56.5	99.250	0.040	-0.250	2.060
2020/01/31 15:44:56.6	99.250	0.030	-0.170	2.070
2020/01/31 15:44:56.7	99.240	0.020	-0.100	2.080
2020/01/31 15:44:56.8	99.240	0.010	-0.020	2.090
2020/01/31 15:44:56.9	99.240	-0.010	0.050	2.090
2020/01/31 15:44:57.0	99.240	-0.020	0.110	2.090
2020/01/31 15:44:57.1	99.230	-0.030	0.180	2.080
2020/01/31 15:44:57.2	99.230	-0.030	0.230	2.080
2020/01/31 15:44:57.3	99.220	-0.040	0.290	2.060
2020/01/31 15:44:57.4	99.220	-0.050	0.330	2.050
2020/01/31 15:44:57.5	99.210	-0.060	0.380	2.030
2020/01/31 15:44:57.6	99.200	-0.060	0.410	2.000
2020/01/31 15:44:57.7	99.200	-0.070	0.450	1.970
2020/01/31 15:44:57.8	99.190	-0.070	0.470	1.940
2020/01/31 15:44:57.9	99.190	-0.070	0.490	1.900
2020/01/31 15:44:58.0	99.180	-0.080	0.500	1.860
2020/01/31 15:44:58.1	99.170	-0.080	0.510	1.820
2020/01/31 15:44:58.2	99.160	-0.080	0.510	1.780
2020/01/31 15:44:58.3	99.150	-0.080	0.500	1.730
2020/01/31 15:44:58.4	99.140	-0.080	0.490	1.680
2020/01/31 15:44:58.5	99.130	-0.080	0.480	1.620
2020/01/31 15:44:58.6	99.110	-0.080	0.460	1.570
2020/01/31 15:44:58.7	99.090	-0.080	0.430	1.510
2020/01/31 15:44:58.8	99.080	-0.080	0.400	1.460
2020/01/31 15:44:58.9	99.060	-0.080	0.370	1.400
2020/01/31 15:44:59.0	99.050	-0.070	0.330	1.340
2020/01/31 15:44:59.1	99.040	-0.070	0.290	1.280
2020/01/31 15:44:59.2	99.020	-0.070	0.250	1.220
2020/01/31 15:44:59.3	99.010	-0.070	0.210	1.150
2020/01/31 15:44:59.4	98.990	-0.070	0.170	1.090
2020/01/31 15:44:59.5	98.980	-0.070	0.130	1.030
2020/01/31 15:44:59.6	98.970	-0.070	0.080	0.970
2020/01/31 15:44:59.7	98.950	-0.070	0.040	0.910
2020/01/31 15:44:59.8	98.940	-0.070	0.000	0.850
2020/01/31 15:44:59.9	98.930	-0.080	-0.040	0.790
2020/01/31 15:45:00.0	98.920	-0.080	-0.070	0.730
2020/01/31 15:45:00.1	98.900	-0.080	-0.110	0.680
2020/01/31 15:45:00.2	98.890	-0.090	-0.140	0.620
2020/01/31 15:45:00.3	98.880	-0.090	-0.160	0.560
2020/01/31 15:45:00.4	98.870	-0.100	-0.190	0.510
2020/01/31 15:45:00.5	98.860	-0.110	-0.200	0.460
2020/01/31 15:45:00.6	98.850	-0.110	-0.220	0.410
2020/01/31 15:45:00.7	98.850	-0.120	-0.230	0.360
2020/01/31 15:45:00.8	98.840	-0.130	-0.230	0.310
2020/01/31 15:45:00.9	98.830	-0.150	-0.230	0.270
2020/01/31 15:45:01.0	98.810	-0.160	-0.220	0.220
2020/01/31 15:45:01.1	98.800	-0.170	-0.210	0.180
2020/01/31 15:45:01.2	98.780	-0.180	-0.200	0.140
2020/01/31 15:45:01.3	98.760	-0.200	-0.180	0.100
2020/01/31 15:45:01.4	98.750	-0.210	-0.160	0.060
2020/01/31 15:45:01.5	98.730	-0.230	-0.130	0.030
2020/01/31 15:45:01.6	98.710	-0.240	-0.100	-0.010
2020/01/31 15:45:01.7	98.690	-0.260	-0.070	-0.050
2020/01/31 15:45:01.8	98.670	-0.270	-0.040	-0.080
2020/01/31 15:45:01.9	98.650	-0.290	-0.000	-0.120
2020/01/31 15:45:02.0	98.620	-0.310	0.040	-0.160
2020/01/31 15:45:02.1	98.600	-0.320	0.070	-0.200
2020/01/31 15:45:02.2	98.580	-0.340	0.110	-0.240
2020/01/31 15:45:02.3	98.560	-0.350	0.140	-0.290
2020/01/31 15:45:02.4	98.540	-0.360	0.180	-0.330
2020/01/31 15:45:02.5	98.520	-0.370	0.210	-0.370
2020/01/31 15:45:02.6	98.500	-0.390	0.240	-0.420
2020/01/31 15:45:02.7	98.480	-0.390	0.270	-0.460
2020/01/31 15:45:02.8	98.460	-0.400	0.290	-0.510
2020/01/31 15:45:02.9	98.450	-0.410	0.310	-0.560
2020/01/31 15:45:03.0	98.430	-0.410	0.320	-0.610
2020/01/31 15:45:03.1	98.420	-0.410	0.330	-0.660
2020/01/31 15:45:03.2	98.410	-0.410	0.330	-0.710
2020/01/31 15:45:03.3	98.410	-0.400	0.330	-0.760
2020/01/31 15:45:03.4	98.400	-0.390	0.320	-0.810
2020/01/31 15:45:03.5	98.400	-0.380	0.300	-0.860
2020/01/31 15:45:03.6	98.400	-0.360	0.280	-0.910
2020/01/31 15:45:03.7	98.410	-0.350	0.250	-0.950
2020/01/31 15:45:03.8	98.420	-0.320	0.220	-1.000
2020/01/31 15:45:03.9	98.420	-0.300	0.170	-1.040
2020/01/31 15:45:04.0	98.430	-0.270	0.120	-1.080
2020/01/31 15:45:04.1	98.450	-0.240	0.070	-1.120
2020/01/31 15:45:04.2	98.460	-0.200	0.010	-1.160
2020/01/31 15:45:04.3	98.480	-0.170	-0.060	-1.200
2020/01/31 15:45:04.4	98.490	-0.120	-0.130	-1.230
2020/01/31 15:45:04.5	98.510	-0.080	-0.210	-1.260
2020/01/31 15:45:04.6	98.530	-0.030	-0.290	-1.290
2020/01/31 15:45:04.7	98.560	0.020	-0.380	-1.310
2020/01/31 15:45:04.8	98.580	0.070	-0.470	-1.320
2020/01/31 15:45:04.9	98.610	0.120	-0.560	-1.340
2020/01/31 15:45:05.0	98.630	0.180	-0.650	-1.350
2020/01/31 15:45:05.1	98.650	0.230	-0.740	-1.350
2020/01/31 15:45:05.2	98.680	0.290	-0.830	-1.350
2020/01/31 15:45:05.3	98.700	0.350	-0.920	-1.350
2020/01/31 15:45:05.4	98.720	0.400	-1.010	-1.340
2020/01/31 15:45:05.5	98.740	0.460	-1.090	-1.320
2020/01/31 15:45:05.6	98.770	0.510	-1.170	-1.300
2020/01/31 15:45:05.7	98.790	0.570	-1.250	-1.280
2020/01/31 15:45:05.8	98.810	0.620	-1.320	-1.250
2020/01/31 15:45:05.9	98.830	0.670	-1.380	-1.210
2020/01/31 15:45:06.0	98.850	0.710	-1.440	-1.170
2020/01/31 15:45:06.1	98.860	0.760	-1.480	-1.120
2020/01/31 15:45:06.2	98.880	0.800	-1.520	-1.070
2020/01/31 15:45:06.3	98.890	0.830	-1.550	-1.020
2020/01/31 15:45:06.4	98.900	0.860	-1.570	-0.960
2020/01/31 15:45:06.5	98.910	0.890	-1.580	-0.900
2020/01/31 15:45:06.6	98.920	0.910	-1.580	-0.830
2020/01/31 15:45:06.7	98.940	0.920	-1.560	-0.750
2020/01/31 15:45:06.8	98.940	0.930	-1.540	-0.680
2020/01/31 15:45:06.9	98.950	0.940	-1.510	-0.600
2020/01/31 15:45:07.0	98.950	0.940	-1.460	-0.520
2020/01/31 15:45:07.1	98.950	0.930	-1.400	-0.440
2020/01/31 15:45:07.2	98.960	0.920	-1.340	-0.350
2020/01/31 15:45:07.3	98.960	0.900	-1.260	-0.270
2020/01/31 15:45:07.4	98.960	0.870	-1.180	-0.180
2020/01/31 15:45:07.5	98.960	0.840	-1.080	-0.090
2020/01/31 15:45:07.6	98.960	0.800	-0.980	0.000
2020/01/31 15:45:07.7	98.960	0.760	-0.870	0.100
2020/01/31 15:45:07.8	98.960	0.720	-0.750	0.200
2020/01/31 15:45:07.9	98.960	0.660	-0.630	0.290
2020/01/31 15:45:08.0	98.950	0.610	-0.510	0.390
2020/01/31 15:45:08.1	98.950	0.550	-0.380	0.490
2020/01/31 15:45:08.2	98.940	0.490	-0.250	0.580
2020/01/31 15:45:08.3	98.940	0.420	-0.110	0.680
2020/01/31 15:45:08.4	98.930	0.350	0.020	0.780
2020/01/31 15:45:08.5	98.930	0.280	0.150	0.880
2020/01/31 15:45:08.6	98.920	0.200	0.290	0.970
2020/01/31 15:45:08.7	98.890	0.130	0.420	1.070
2020/01/31 15:45:08.8	98.880	0.050	0.550	1.160
2020/01/31 15:45:08.9	98.870	-0.020	0.670	1.260
2020/01/31 15:45:09.0	98.860	-0.100	0.800	1.350
2020/01/31 15:45:09.1	98.850	-0.180	0.910	1.430
2020/01/31 15:45:09.2	98.840	-0.260	1.030	1.520
2020/01/31 15:45:09.3	98.830	-0.330	1.130	1.600
2020/01/31 15:45:09.4	98.820	-0.400	1.230	1.680
2020/01/31 15:45:09.5	98.800	-0.480	1.320	1.750
2020/01/31 15:45:09.6	98.790	-0.550	1.410	1.820
2020/01/31 15:45:09.7	98.760	-0.610	1.490	1.890
2020/01/31 15:45:09.8	98.750	-0.680	1.550	1.960
2020/01/31 15:45:09.9	98.730	-0.740	1.610	2.020
2020/01/31 15:45:10.0	98.710	-0.790	1.660	2.080
2020/01/31 15:45:10.1	98.700	-0.850	1.700	2.130
2020/01/31 15:45:10.2	98.680	-0.900	1.730	2.170
2020/01/31 15:45:10.3	98.670	-0.940	1.750	2.220
2020/01/31 15:45:10.4	98.650	-0.980	1.750	2.260
2020/01/31 15:45:10.5	98.640	-1.010	1.750	2.290
2020/01/31 15:45:10.6	98.630	-1.040	1.740	2.320
2020/01/31 15:45:10.7	98.610	-1.060	1.710	2.340
2020/01/31 15:45:10.8	98.600	-1.080	1.670	2.360
2020/01/31 15:45:10.9	98.590	-1.090	1.630	2.380
2020/01/31 15:45:11.0	98.580	-1.100	1.570	2.390
2020/01/31 15:45:11.1	98.580	-1.100	1.500	2.390
2020/01/31 15:45:11.2	98.570	-1.090	1.420	2.390
2020/01/31 15:45:11.3	98.570	-1.080	1.330	2.380
2020/01/31 15:45:11.4	98.560	-1.060	1.230	2.370
2020/01/31 15:45:11.5	98.560	-1.030	1.120	2.350
2020/01/31 15:45:11.6	98.560	-1.000	1.000	2.330
2020/01/31 15:45:11.7	98.570	-0.970	0.870	2.310
2020/01/31 15:45:11.8	98.570	-0.930	0.740	2.270
2020/01/31 15:45:11.9	98.580	-0.880	0.600	2.240
2020/01/31 15:45:12.0	98.590	-0.830	0.450	2.190
2020/01/31 15:45:12.1	98.600	-0.770	0.300	2.150
2020/01/31 15:45:12.2	98.610	-0.710	0.140	2.100
2020/01/31 15:45:12.3	98.630	-0.650	-0.020	2.040
2020/01/31 15:45:12.4	98.640	-0.580	-0.180	1.980
2020/01/31 15:45:12.5	98.660	-0.510	-0.350	1.920
2020/01/31 15:45:12.6	98.680	-0.440	-0.520	1.860
2020/01/31 15:45:12.7	98.700	-0.360	-0.680	1.790
2020/01/31 15:45:12.8	98.720	-0.290	-0.850	1.720
2020/01/31 15:45:12.9	98.740	-0.210	-1.010	1.640
2020/01/31 15:45:13.0	98.770	-0.130	-1.170	1.570
2020/01/31 15:45:13.1	98.790	-0.050	-1.320	1.490
2020/01/31 15:45:13.2	98.820	0.030	-1.470	1.420
2020/01/31 15:45:13.3	98.850	0.100	-1.620	1.340
2020/01/31 15:45:13.4	98.880	0.180	-1.750	1.260
2020/01/31 15:45:13.5	98.910	0.250	-1.880	1.180
2020/01/31 15:45:13.6	98.930	0.330	-2.000	1.110
2020/01/31 15:45:13.7	98.970	0.390	-2.100	1.030
2020/01/31 15:45:13.8	99.000	0.460	-2.200	0.960
2020/01/31 15:45:13.9	99.030	0.530	-2.290	0.880
2020/01/31 15:45:14.0	99.060	0.590	-2.360	0.810
2020/01/31 15:45:14.1	99.090	0.640	-2.420	0.740
2020/01/31 15:45:14.2	99.120	0.690	-2.470	0.670
2020/01/31 15:45:14.3	99.150	0.740	-2.500	0.600
2020/01/31 15:45:14.4	99.170	0.780	-2.520	0.540
2020/01/31 15:45:14.5	99.200	0.820	-2.530	0.480
2020/01/31 15:45:14.6	99.220	0.850	-2.520	0.420
2020/01/31 15:45:14.7	99.260	0.880	-2.490	0.370
2020/01/31 15:45:14.8	99.280	0.900	-2.450	0.310
2020/01/31 15:45:14.9	99.300	0.910	-2.400	0.260
2020/01/31 15:45:15.0	99.320	0.920	-2.330	0.220
2020/01/31 15:45:15.1	99.330	0.930	-2.250	0.180
2020/01/31 15:45:15.2	99.350	0.930	-2.160	0.140
2020/01/31 15:45:15.3	99.360	0.920	-2.050	0.100
2020/01/31 15:45:15.4	99.370	0.910	-1.940	0.070
2020/01/31 15:45:15.5	99.380	0.890	-1.810	0.040
2020/01/31 15:45:15.6	99.390	0.860	-1.670	0.020
2020/01/31 15:45:15.7	99.400	0.840	-1.510	0.000
2020/01/31 15:45:15.8	99.400	0.800	-1.360	-0.020
2020/01/31 15:45:15.9	99.400	0.770	-1.200	-0.030
2020/01/31 15:45:16.0	99.400	0.720	-1.030	-0.040
2020/01/31 15:45:16.1	99.390	0.680	-0.860	-0.040
2020/01/31 15:45:16.2	99.390	0.630	-0.680	-0.050
2020/01/31 15:45:16.3	99.380	0.580	-0.500	-0.040
2020/01/31 15:45:16.4	99.370	0.520	-0.330	-0.040
2020/01/31 15:45:16.5	99.360	0.470	-0.150	-0.030
2020/01/31 15:45:16.6	99.340	0.410	0.030	-0.020
2020/01/31 15:45:16.7	99.330	0.350	0.200	-0.010
2020/01/31 15:45:16.8	99.310	0.290	0.380	0.010
2020/01/31 15:45:16.9	99.290	0.220	0.540	0.030
2020/01/31 15:45:17.0	99.270	0.160	0.700	0.040
2020/01/31 15:45:17.1	99.250	0.100	0.860	0.070
2020/01/31 15:45:17.2	99.220	0.030	1.000	0.090
2020/01/31 15:45:17.3	99.200	-0.030	1.140	0.110
2020/01/31 15:45:17.4	99.170	-0.090	1.280	0.130
2020/01/31 15:45:17.5	99.140	-0.150	1.400	0.150
2020/01/31 15:45:17.6	99.110	-0.210	1.510	0.180
2020/01/31 15:45:17.7	99.080	-0.270	1.620	0.200
2020/01/31 15:45:17.8	99.040	-0.330	1.710	0.220
2020/01/31 15:45:17.9	99.010	-0.380	1.790	0.250
2020/01/31 15:45:18.0	98.980	-0.430	1.860	0.270
2020/01/31 15:45:18.1	98.950	-0.480	1.920	0.290
2020/01/31 15:45:18.2	98.910	-0.530	1.970	0.310
2020/01/31 15:45:18.3	98.880	-0.570	2.010	0.330
2020/01/31 15:45:18.4	98.850	-0.610	2.030	0.350
2020/01/31 15:45:18.5	98.820	-0.650	2.040	0.360
2020/01/31 15:45:18.6	98.800	-0.680	2.050	0.380
2020/01/31 15:45:18.7	98.750	-0.710	2.040	0.390
2020/01/31 15:45:18.8	98.730	-0.740	2.020	0.400
2020/01/31 15:45:18.9	98.710	-0.760	1.990	0.400
2020/01/31 15:45:19.0	98.690	-0.780	1.940	0.410
2020/01/31 15:45:19.1	98.670	-0.800	1.890	0.410
2020/01/31 15:45:19.2	98.660	-0.810	1.830	0.410
2020/01/31 15:45:19.3	98.650	-0.810	1.760	0.410
2020/01/31 15:45:19.4	98.650	-0.810	1.680	0.400
2020/01/31 15:45:19.5	98.640	-0.810	1.590	0.390
2020/01/31 15:45:19.6	98.640	-0.800	1.490	0.380
2020/01/31 15:45:19.7	98.640	-0.790	1.380	0.370
2020/01/31 15:45:19.8	98.640	-0.780	1.270	0.350
2020/01/31 15:45:19.9	98.650	-0.760	1.150	0.340
2020/01/31 15:45:20.0	98.660	-0.740	1.020	0.320
2020/01/31 15:45:20.1	98.670	-0.710	0.880	0.300
2020/01/31 15:45:20.2	98.690	-0.680	0.740	0.280
2020/01/31 15:45:20.3	98.710	-0.650	0.600	0.250
2020/01/31 15:45:20.4	98.730	-0.610	0.450	0.230
2020/01/31 15:45:20.5	98.750	-0.570	0.290	0.210
2020/01/31 15:45:20.6	98.770	-0.520	0.140	0.180
2020/01/31 15:45:20.7	98.790	-0.470	-0.030	0.160
2020/01/31 15:45:20.8	98.810	-0.420	-0.190	0.140
2020/01/31 15:45:20.9	98.830	-0.370	-0.350	0.120
2020/01/31 15:45:21.0	98.860	-0.320	-0.510	0.090
2020/01/31 15:45:21.1	98.880	-0.260	-0.670	0.070
2020/01/31 15:45:21.2	98.900	-0.200	-0.840	0.050
2020/01/31 15:45:21.3	98.930	-0.140	-0.990	0.030
2020/01/31 15:45:21.4	98.950	-0.070	-1.150	0.020
2020/01/31 15:45:21.5	98.970	-0.010	-1.300	0.000
2020/01/31 15:45:21.6	98.990	0.060	-1.450	-0.010
2020/01/31 15:45:21.7	99.030	0.120	-1.590	-0.020
2020/01/31 15:45:21.8	99.040	0.190	-1.720	-0.030
2020/01/31 15:45:21.9	99.060	0.250	-1.850	-0.040
2020/01/31 15:45:22.0	99.080	0.310	-1.960	-0.040
2020/01/31 15:45:22.1	99.100	0.380	-2.070	-0.040
2020/01/31 15:45:22.2	99.110	0.440	-2.170	-0.040
2020/01/31 15:45:22.3	99.130	0.490	-2.250	-0.040
2020/01/31 15:45:22.4	99.140	0.550	-2.330	-0.040
2020/01/31 15:45:22.5	99.150	0.600	-2.390	-0.030
2020/01/31 15:45:22.6	99.170	0.650	-2.430	-0.030
2020/01/31 15:45:22.7	99.200	0.700	-2.470	-0.010
2020/01/31 15:45:22.8	99.220	0.740	-2.480	0.000
2020/01/31 15:45:22.9	99.230	0.780	-2.480	0.020
2020/01/31 15:45:23.0	99.240	0.810	-2.470	0.040
2020/01/31 15:45:23.1	99.250	0.840	-2.440	0.060
2020/01/31 15:45:23.2	99.270	0.860	-2.400	0.080
2020/01/31 15:45:23.3	99.280	0.880	-2.340	0.110
2020/01/31 15:45:23.4	99.290	0.890	-2.260	0.140
2020/01/31 15:45:23.5	99.300	0.890	-2.180	0.170
2020/01/31 15:45:23.6	99.310	0.890	-2.070	0.200
2020/01/31 15:45:23.7	99.320	0.890	-1.960	0.240
2020/01/31 15:45:23.8	99.330	0.870	-1.830	0.280
2020/01/31 15:45:23.9	99.340	0.850	-1.700	0.320
2020/01/31 15:45:24.0	99.340	0.830	-1.550	0.370
2020/01/31 15:45:24.1	99.350	0.800	-1.400	0.420
2020/01/31 15:45:24.2	99.350	0.770	-1.230	0.470
2020/01/31 15:45:24.3	99.350	0.730	-1.060	0.520
2020/01/31 15:45:24.4	99.350	0.690	-0.890	0.570
2020/01/31 15:45:24.5	99.350	0.650	-0.710	0.630
2020/01/31 15:45:24.6	99.350	0.600	-0.540	0.690
2020/01/31 15:45:24.7	99.340	0.540	-0.350	0.760
2020/01/31 15:45:24.8	99.340	0.490	-0.170	0.820
2020/01/31 15:45:24.9	99.330	0.430	0.010	0.880
2020/01/31 15:45:25.0	99.320	0.380	0.180	0.940
2020/01/31 15:45:25.1	99.300	0.320	0.350	1.010
2020/01/31 15:45:25.2	99.290	0.260	0.520	1.070
2020/01/31 15:45:25.3	99.270	0.200	0.680	1.130
2020/01/31 15:45:25.4	99.250	0.140	0.830	1.200
2020/01/31 15:45:25.5	99.230	0.080	0.970	1.260
2020/01/31 15:45:25.6	99.210	0.030	1.110	1.320
2020/01/31 15:45:25.7	99.180	-0.030	1.230	1.380
2020/01/31 15:45:25.8	99.160	-0.080	1.350	1.430
2020/01/31 15:45:25.9	99.140	-0.130	1.450	1.490
2020/01/31 15:45:26.0	99.110	-0.180	1.540	1.540
2020/01/31 15:45:26.1	99.080	-0.230	1.620	1.590
2020/01/31 15:45:26.2	99.050	-0.270	1.680	1.630
2020/01/31 15:45:26.3	99.030	-0.310	1.730	1.670
2020/01/31 15:45:26.4	99.000	-0.340	1.770	1.710
2020/01/31 15:45:26.5	98.970	-0.380	1.790	1.750
2020/01/31 15:45:26.6	98.940	-0.400	1.800	1.780
2020/01/31 15:45:26.7	98.900	-0.430	1.800	1.800
2020/01/31 15:45:26.8	98.870	-0.450	1.780	1.820
2020/01/31 15:45:26.9	98.840	-0.460	1.750	1.840
2020/01/31 15:45:27.0	98.810	-0.470	1.710	1.850
2020/01/31 15:45:27.1	98.790	-0.480	1.650	1.860
2020/01/31 15:45:27.2	98.760	-0.480	1.580	1.860
2020/01/31 15:45:27.3	98.730	-0.480	1.500	1.860
2020/01/31 15:45:27.4	98.700	-0.480	1.410	1.850
2020/01/31 15:45:27.5	98.670	-0.480	1.310	1.840
2020/01/31 15:45:27.6	98.650	-0.470	1.200	1.830
2020/01/31 15:45:27.7	98.620	-0.460	1.090	1.810
2020/01/31 15:45:27.8	98.600	-0.440	0.960	1.790
2020/01/31 15:45:27.9	98.580	-0.430	0.840	1.760
2020/01/31 15:45:28.0	98.560	-0.410	0.710	1.730
2020/01/31 15:45:28.1	98.540	-0.390	0.570	1.690
2020/01/31 15:45:28.2	98.530	-0.370	0.440	1.650
2020/01/31 15:45:28.3	98.520	-0.340	0.300	1.610
2020/01/31 15:45:28.4	98.510	-0.320	0.160	1.560
2020/01/31 15:45:28.5	98.500	-0.300	0.020	1.510
2020/01/31 15:45:28.6	98.490	-0.270	-0.110	1.460
2020/01/31 15:45:28.7	98.490	-0.250	-0.240	1.410
2020/01/31 15:45:28.8	98.490	-0.220	-0.370	1.350
2020/01/31 15:45:28.9	98.490	-0.200	-0.500	1.300
2020/01/31 15:45:29.0	98.490	-0.170	-0.620	1.240
2020/01/31 15:45:29.1	98.490	-0.150	-0.730	1.190
2020/01/31 15:45:29.2	98.490	-0.120	-0.840	1.130
2020/01/31 15:45:29.3	98.490	-0.100	-0.950	1.080
2020/01/31 15:45:29.4	98.500	-0.080	-1.040	1.030
2020/01/31 15:45:29.5	98.500	-0.050	-1.130	0.980
2020/01/31 15:45:29.6	98.510	-0.030	-1.210	0.930
2020/01/31 15:45:29.7	98.520	-0.010	-1.280	0.880
2020/01/31 15:45:29.8	98.530	0.010	-1.350	0.830
2020/01/31 15:45:29.9	98.530	0.020	-1.400	0.790
2020/01/31 15:45:30.0	98.540	0.040	-1.450	0.750
2020/01/31 15:45:30.1	98.540	0.050	-1.480	0.710
2020/01/31 15:45:30.2	98.550	0.070	-1.510	0.680
2020/01/31 15:45:30.3	98.560	0.080	-1.530	0.640
2020/01/31 15:45:30.4	98.560	0.090	-1.540	0.610
2020/01/31 15:45:30.5	98.570	0.100	-1.540	0.580
2020/01/31 15:45:30.6	98.580	0.110	-1.530	0.550
2020/01/31 15:45:30.7	98.590	0.120	-1.520	0.530
2020/01/31 15:45:30.8	98.600	0.120	-1.490	0.500
2020/01/31 15:45:30.9	98.610	0.130	-1.460	0.480
2020/01/31 15:45:31.0	98.620	0.130	-1.430	0.450
2020/01/31 15:45:31.1	98.630	0.130	-1.380	0.430
2020/01/31 15:45:31.2	98.640	0.140	-1.330	0.400
2020/01/31 15:45:31.3	98.650	0.140	-1.280	0.380
2020/01/31 15:45:31.4	98.660	0.130	-1.220	0.350
2020/01/31 15:45:31.5	98.680	0.130	-1.150	0.330
2020/01/31 15:45:31.6	98.690	0.130	-1.090	0.300
2020/01/31 15:45:31.7	98.710	0.120	-1.010	0.280
2020/01/31 15:45:31.8	98.720	0.120	-0.940	0.250
2020/01/31 15:45:31.9	98.740	0.110	-0.860	0.220
2020/01/31 15:45:32.0	98.750	0.110	-0.780	0.200
2020/01/31 15:45:32.1	98.770	0.100	-0.700	0.170
2020/01/31 15:45:32.2	98.780	0.090	-0.610	0.150
2020/01/31 15:45:32.3	98.800	0.080	-0.530	0.120
2020/01/31 15:45:32.4	98.810	0.070	-0.450	0.100
2020/01/31 15:45:32.5	98.830	0.070	-0.360	0.080
2020/01/31 15:45:32.6	98.840	0.060	-0.280	0.060
2020/01/31 15:45:32.7	98.840	0.050	-0.200	0.050
2020/01/31 15:45:32.8	98.850	0.040	-0.120	0.030
2020/01/31 15:45:32.9	98.860	0.030	-0.040	0.010
2020/01/31 15:45:33.0	98.870	0.020	0.040	0.000
2020/01/31 15:45:33.1	98.870	0.010	0.110	-0.010
2020/01/31 15:45:33.2	98.870	0.000	0.180	-0.020
2020/01/31 15:45:33.3	98.880	-0.000	0.250	-0.020
2020/01/31 15:45:33.4	98.880	-0.010	0.320	-0.030
2020/01/31 15:45:33.5	98.880	-0.020	0.380	-0.030
2020/01/31 15:45:33.6	98.870	-0.020	0.440	-0.020
2020/01/31 15:45:33.7	98.880	-0.030	0.490	-0.020
2020/01/31 15:45:33.8	98.870	-0.040	0.540	-0.010
2020/01/31 15:45:33.9	98.870	-0.040	0.580	0.000
2020/01/31 15:45:34.0	98.860	-0.050	0.630	0.020
2020/01/31 15:45:34.1	98.850	-0.050	0.660	0.030
2020/01/31 15:45:34.2	98.840	-0.060	0.690	0.050
2020/01/31 15:45:34.3	98.830	-0.060	0.720	0.070
2020/01/31 15:45:34.4	98.810	-0.070	0.740	0.090
2020/01/31 15:45:34.5	98.800	-0.070	0.760	0.110
2020/01/31 15:45:34.6	98.790	-0.070	0.770	0.140
2020/01/31 15:45:34.7	98.760	-0.080	0.780	0.160
2020/01/31 15:45:34.8	98.740	-0.080	0.780	0.190
2020/01/31 15:45:34.9	98.730	-0.080	0.780	0.220
2020/01/31 15:45:35.0	98.710	-0.090	0.770	0.250
2020/01/31 15:45:35.1	98.690	-0.090	0.760	0.280
2020/01/31 15:45:35.2	98.670	-0.090	0.740	0.310
2020/01/31 15:45:35.3	98.650	-0.100	0.720	0.340
2020/01/31 15:45:35.4	98.630	-0.100	0.690	0.370
2020/01/31 15:45:35.5	98.610	-0.100	0.660	0.390
2020/01/31 15:45:35.6	98.590	-0.100	0.630	0.420
2020/01/31 15:45:35.7	98.570	-0.100	0.590	0.450
2020/01/31 15:45:35.8	98.540	-0.110	0.550	0.480
2020/01/31 15:45:35.9	98.520	-0.110	0.500	0.510
2020/01/31 15:45:36.0	98.500	-0.110	0.450	0.530
2020/01/31 15:45:36.1	98.470	-0.110	0.400	0.560
2020/01/31 15:45:36.2	98.450	-0.110	0.350	0.580
2020/01/31 15:45:36.3	98.430	-0.110	0.290	0.600
2020/01/31 15:45:36.4	98.400	-0.110	0.230	0.620
2020/01/31 15:45:36.5	98.380	-0.100	0.170	0.640
2020/01/31 15:45:36.6	98.360	-0.100	0.110	0.650
2020/01/31 15:45:36.7	98.330	-0.100	0.050	0.670
2020/01/31 15:45:36.8	98.310	-0.090	-0.010	0.680
2020/01/31 15:45:36.9	98.290	-0.090	-0.080	0.690
2020/01/31 15:45:37.0	98.270	-0.080	-0.150	0.690
2020/01/31 15:45:37.1	98.260	-0.080	-0.210	0.690
2020/01/31 15:45:37.2	98.250	-0.070	-0.280	0.700
2020/01/31 15:45:37.3	98.240	-0.060	-0.340	0.690
2020/01/31 15:45:37.4	98.230	-0.050	-0.410	0.690
2020/01/31 15:45:37.5	98.230	-0.030	-0.470	0.690
2020/01/31 15:45:37.6	98.230	-0.020	-0.540	0.680
2020/01/31 15:45:37.7	98.240	-0.010	-0.600	0.670
2020/01/31 15:45:37.8	98.240	0.010	-0.660	0.660
2020/01/31 15:45:37.9	98.250	0.020	-0.720	0.650
2020/01/31 15:45:38.0	98.260	0.040	-0.780	0.630
2020/01/31 15:45:38.1	98.270	0.060	-0.830	0.620
2020/01/31 15:45:38.2	98.280	0.080	-0.880	0.600
2020/01/31 15:45:38.3	98.300	0.100	-0.930	0.590
2020/01/31 15:45:38.4	98.310	0.120	-0.970	0.580
2020/01/31 15:45:38.5	98.330	0.140	-1.020	0.560
2020/01/31 15:45:38.6	98.350	0.160	-1.050	0.550
2020/01/31 15:45:38.7	98.370	0.180	-1.090	0.540
2020/01/31 15:45:38.8	98.390	0.210	-1.110	0.530
2020/01/31 15:45:38.9	98.410	0.230	-1.130	0.520
2020/01/31 15:45:39.0	98.430	0.250	-1.150	0.510
2020/01/31 15:45:39.1	98.440	0.270	-1.160	0.510
2020/01/31 15:45:39.2	98.460	0.280	-1.160	0.500
2020/01/31 15:45:39.3	98.480	0.300	-1.160	0.500
2020/01/31 15:45:39.4	98.500	0.320	-1.150	0.500
2020/01/31 15:45:39.5	98.510	0.330	-1.130	0.500
2020/01/31 15:45:39.6	98.530	0.350	-1.110	0.500
2020/01/31 15:45:39.7	98.550	0.360	-1.080	0.510
2020/01/31 15:45:39.8	98.570	0.370	-1.050	0.510
2020/01/31 15:45:39.9	98.580	0.380	-1.010	0.520
2020/01/31 15:45:40.0	98.590	0.380	-0.960	0.520
2020/01/31 15:45:40.1	98.600	0.380	-0.910	0.530
2020/01/31 15:45:40.2	98.610	0.390	-0.860	0.540
2020/01/31 15:45:40.3	98.620	0.390	-0.800	0.550
2020/01/31 15:45:40.4	98.630	0.380	-0.730	0.560
2020/01/31 15:45:40.5	98.640	0.380	-0.670	0.570
2020/01/31 15:45:40.6	98.650	0.370	-0.600	0.580
2020/01/31 15:45:40.7	98.660	0.370	-0.520	0.590
2020/01/31 15:45:40.8	98.670	0.360	-0.450	0.600
2020/01/31 15:45:40.9	98.680	0.340	-0.370	0.610
2020/01/31 15:45:41.0	98.680	0.330	-0.300	0.610
2020/01/31 15:45:41.1	98.690	0.320	-0.220	0.620
2020/01/31 15:45:41.2	98.700	0.300	-0.140	0.620
2020/01/31 15:45:41.3	98.700	0.280	-0.070	0.620
2020/01/31 15:45:41.4	98.710	0.260	0.000	0.630
2020/01/31 15:45:41.5	98.720	0.250	0.080	0.630
2020/01/31 15:45:41.6	98.720	0.230	0.150	0.630
2020/01/31 15:45:41.7	98.730	0.210	0.210	0.630
2020/01/31 15:45:41.8	98.740	0.180	0.280	0.630
2020/01/31 15:45:41.9	98.750	0.160	0.330	0.630
2020/01/31 15:45:42.0	98.750	0.140	0.390	0.640
2020/01/31 15:45:42.1	98.760	0.120	0.440	0.640
2020/01/31 15:45:42.2	98.770	0.100	0.490	0.640
2020/01/31 15:45:42.3	98.770	0.080	0.530	0.650
2020/01/31 15:45:42.4	98.780	0.060	0.570	0.650
2020/01/31 15:45:42.5	98.780	0.040	0.600	0.660
2020/01/31 15:45:42.6	98.790	0.030	0.630	0.670
2020/01/31 15:45:42.7	98.790	0.010	0.650	0.680
2020/01/31 15:45:42.8	98.800	-0.010	0.660	0.680
2020/01/31 15:45:42.9	98.800	-0.030	0.670	0.690
2020/01/31 15:45:43.0	98.810	-0.040	0.680	0.700
2020/01/31 15:45:43.1	98.820	-0.050	0.680	0.720
2020/01/31 15:45:43.2	98.820	-0.070	0.670	0.730
2020/01/31 15:45:43.3	98.830	-0.080	0.660	0.740
2020/01/31 15:45:43.4	98.830	-0.090	0.650	0.750
2020/01/31 15:45:43.5	98.830	-0.100	0.630	0.760
2020/01/31 15:45:43.6	98.840	-0.110	0.600	0.780
2020/01/31 15:45:43.7	98.850	-0.120	0.570	0.790
2020/01/31 15:45:43.8	98.850	-0.120	0.540	0.800
2020/01/31 15:45:43.9	98.850	-0.130	0.500	0.810
2020/01/31 15:45:44.0	98.850	-0.130	0.460	0.830
2020/01/31 15:45:44.1	98.860	-0.140	0.410	0.840
2020/01/31 15:45:44.2	98.860	-0.140	0.360	0.850
2020/01/31 15:45:44.3	98.860	-0.140	0.310	0.860
2020/01/31 15:45:44.4	98.860	-0.140	0.260	0.870
2020/01/31 15:45:44.5	98.860	-0.140	0.210	0.880
2020/01/31 15:45:44.6	98.860	-0.140	0.150	0.900
2020/01/31 15:45:44.7	98.860	-0.140	0.090	0.900
2020/01/31 15:45:44.8	98.860	-0.140	0.030	0.920
2020/01/31 15:45:44.9	98.850	-0.140	-0.030	0.930
2020/01/31 15:45:45.0	98.850	-0.130	-0.090	0.940
2020/01/31 15:45:45.1	98.850	-0.130	-0.150	0.950
2020/01/31 15:45:45.2	98.840	-0.130	-0.210	0.960
2020/01/31 15:45:45.3	98.840	-0.120	-0.260	0.970
2020/01/31 15:45:45.4	98.830	-0.120	-0.320	0.980
2020/01/31 15:45:45.5	98.830	-0.120	-0.370	0.990
2020/01/31 15:45:45.6	98.820	-0.110	-0.420	1.000
2020/01/31 15:45:45.7	98.820	-0.110	-0.470	1.010
2020/01/31 15:45:45.8	98.810	-0.110	-0.520	1.030
2020/01/31 15:45:45.9	98.810	-0.110	-0.560	1.040
2020/01/31 15:45:46.0	98.800	-0.110	-0.600	1.050
2020/01/31 15:45:46.1	98.790	-0.110	-0.630	1.060
2020/01/31 15:45:46.2	98.790	-0.110	-0.660	1.070
2020/01/31 15:45:46.3	98.780	-0.110	-0.690	1.080
2020/01/31 15:45:46.4	98.780	-0.110	-0.710	1.080
2020/01/31 15:45:46.5	98.770	-0.110	-0.730	1.090
2020/01/31 15:45:46.6	98.770	-0.110	-0.750	1.100
2020/01/31 15:45:46.7	98.770	-0.120	-0.760	1.100
2020/01/31 15:45:46.8	98.770	-0.120	-0.770	1.110
2020/01/31 15:45:46.9	98.770	-0.130	-0.770	1.110
2020/01/31 15:45:47.0	98.780	-0.130	-0.770	1.120
2020/01/31 15:45:47.1	98.780	-0.140	-0.760	1.120
2020/01/31 15:45:47.2	98.790	-0.140	-0.750	1.120
2020/01/31 15:45:47.3	98.800	-0.150	-0.740	1.120
2020/01/31 15:45:47.4	98.810	-0.160	-0.720	1.120
2020/01/31 15:45:47.5	98.820	-0.160	-0.710	1.120
2020/01/31 15:45:47.6	98.830	-0.170	-0.680	1.120
2020/01/31 15:45:47.7	98.840	-0.170	-0.660	1.110
2020/01/31 15:45:47.8	98.860	-0.180	-0.630	1.100
2020/01/31 15:45:47.9	98.880	-0.180	-0.610	1.100
2020/01/31 15:45:48.0	98.890	-0.190	-0.580	1.090
2020/01/31 15:45:48.1	98.910	-0.190	-0.550	1.090
2020/01/31 15:45:48.2	98.930	-0.190	-0.520	1.080
2020/01/31 15:45:48.3	98.960	-0.190	-0.490	1.070
2020/01/31 15:45:48.4	98.980	-0.190	-0.460	1.060
2020/01/31 15:45:48.5	99.000	-0.190	-0.420	1.040
2020/01/31 15:45:48.6	99.020	-0.190	-0.390	1.030
2020/01/31 15:45:48.7	99.060	-0.190	-0.360	1.030
2020/01/31 15:45:48.8	99.080	-0.180	-0.330	1.010
2020/01/31 15:45:48.9	99.100	-0.170	-0.300	1.000
2020/01/31 15:45:49.0	99.120	-0.170	-0.270	0.980
2020/01/31 15:45:49.1	99.150	-0.160	-0.240	0.970
2020/01/31 15:45:49.2	99.170	-0.150	-0.210	0.950
2020/01/31 15:45:49.3	99.190	-0.140	-0.190	0.930
2020/01/31 15:45:49.4	99.210	-0.130	-0.160	0.920
2020/01/31 15:45:49.5	99.230	-0.110	-0.140	0.900
2020/01/31 15:45:49.6	99.240	-0.100	-0.120	0.880
2020/01/31 15:45:49.7	99.270	-0.090	-0.100	0.860
2020/01/31 15:45:49.8	99.280	-0.070	-0.080	0.850
2020/01/31 15:45:49.9	99.290	-0.060	-0.060	0.830
2020/01/31 15:45:50.0	99.310	-0.040	-0.040	0.810
2020/01/31 15:45:50.1	99.320	-0.030	-0.030	0.790
2020/01/31 15:45:50.2	99.320	-0.010	-0.010	0.770
2020/01/31 15:45:50.3	99.330	0.000	0.000	0.750
2020/01/31 15:45:50.4	99.340	0.020	0.020	0.730
2020/01/31 15:45:50.5	99.340	0.030	0.030	0.710
2020/01/31 15:45:50.6	99.340	0.050	0.040	0.690
2020/01/31 15:45:50.7	99.340	0.060	0.050	0.670
2020/01/31 15:45:50.8	99.340	0.070	0.060	0.650
2020/01/31 15:45:50.9	99.340	0.080	0.070	0.640
2020/01/31 15:45:51.0	99.330	0.090	0.080	0.620
2020/01/31 15:45:51.1	99.320	0.100	0.090	0.610
2020/01/31 15:45:51.2	99.310	0.110	0.100	0.600
2020/01/31 15:45:51.3	99.290	0.120	0.100	0.590
2020/01/31 15:45:51.4	99.280	0.120	0.110	0.580
2020/01/31 15:45:51.5	99.260	0.130	0.110	0.580
2020/01/31 15:45:51.6	99.240	0.130	0.110	0.570
2020/01/31 15:45:51.7	99.220	0.130	0.120	0.570
2020/01/31 15:45:51.8	99.190	0.130	0.120	0.570
2020/01/31 15:45:51.9	99.170	0.130	0.120	0.580
2020/01/31 15:45:52.0	99.150	0.130	0.110	0.580
2020/01/31 15:45:52.1	99.130	0.130	0.110	0.590
2020/01/31 15:45:52.2	99.110	0.120	0.110	0.590
2020/01/31 15:45:52.3	99.080	0.120	0.100	0.600
2020/01/31 15:45:52.4	99.060	0.110	0.090	0.610
2020/01/31 15:45:52.5	99.050	0.100	0.090	0.610
2020/01/31 15:45:52.6	99.030	0.100	0.080	0.620
2020/01/31 15:45:52.7	99.020	0.090	0.060	0.630
2020/01/31 15:45:52.8	99.000	0.080	0.050	0.630
2020/01/31 15:45:52.9	99.000	0.070	0.040	0.640
2020/01/31 15:45:53.0	98.990	0.060	0.020	0.640
2020/01/31 15:45:53.1	98.990	0.050	0.010	0.650
2020/01/31 15:45:53.2	98.990	0.040	-0.010	0.650
2020/01/31 15:45:53.3	98.990	0.020	-0.030	0.650
2020/01/31 15:45:53.4	99.000	0.010	-0.050	0.640
2020/01/31 15:45:53.5	99.010	0.000	-0.070	0.640
2020/01/31 15:45:53.6	99.020	-0.010	-0.090	0.640
2020/01/31 15:45:53.7	99.030	-0.020	-0.110	0.630
2020/01/31 15:45:53.8	99.050	-0.030	-0.130	0.630
2020/01/31 15:45:53.9	99.060	-0.040	-0.150	0.620
2020/01/31 15:45:54.0	99.080	-0.050	-0.170	0.610
2020/01/31 15:45:54.1	99.100	-0.050	-0.200	0.600
2020/01/31 15:45:54.2	99.120	-0.060	-0.220	0.590
2020/01/31 15:45:54.3	99.130	-0.070	-0.240	0.580
2020/01/31 15:45:54.4	99.150	-0.070	-0.260	0.580
2020/01/31 15:45:54.5	99.170	-0.080	-0.280	0.570
2020/01/31 15:45:54.6	99.190	-0.080	-0.300	0.560
2020/01/31 15:45:54.7	99.220	-0.090	-0.320	0.560
2020/01/31 15:45:54.8	99.230	-0.090	-0.330	0.550
2020/01/31 15:45:54.9	99.250	-0.090	-0.350	0.550
2020/01/31 15:45:55.0	99.270	-0.090	-0.360	0.550
2020/01/31 15:45:55.1	99.280	-0.090	-0.370	0.540
2020/01/31 15:45:55.2	99.300	-0.090	-0.380	0.540
2020/01/31 15:45:55.3	99.310	-0.090	-0.390	0.540
2020/01/31 15:45:55.4	99.320	-0.090	-0.400	0.540
2020/01/31 15:45:55.5	99.330	-0.080	-0.400	0.550
2020/01/31 15:45:55.6	99.340	-0.080	-0.410	0.550
2020/01/31 15:45:55.7	99.360	-0.070	-0.400	0.560
2020/01/31 15:45:55.8	99.370	-0.070	-0.400	0.560
2020/01/31 15:45:55.9	99.380	-0.060	-0.400	0.570
2020/01/31 15:45:56.0	99.390	-0.050	-0.390	0.580
2020/01/31 15:45:56.1	99.400	-0.050	-0.380	0.590
2020/01/31 15:45:56.2	99.400	-0.040	-0.370	0.590
2020/01/31 15:45:56.3	99.410	-0.030	-0.360	0.600
2020/01/31 15:45:56.4	99.410	-0.020	-0.350	0.610
2020/01/31 15:45:56.5	99.420	-0.010	-0.330	0.620
2020/01/31 15:45:56.6	99.420	0.000	-0.310	0.630
2020/01/31 15:45:56.7	99.430	0.010	-0.290	0.640
2020/01/31 15:45:56.8	99.430	0.020	-0.270	0.650
2020/01/31 15:45:56.9	99.430	0.040	-0.250	0.670
2020/01/31 15:45:57.0	99.430	0.050	-0.230	0.680
2020/01/31 15:45:57.1	99.430	0.060	-0.210	0.690
2020/01/31 15:45:57.2	99.430	0.070	-0.190	0.700
2020/01/31 15:45:57.3	99.430	0.090	-0.170	0.720
2020/01/31 15:45:57.4	99.430	0.100	-0.150	0.730
2020/01/31 15:45:57.5	99.430	0.110	-0.130	0.740
2020/01/31 15:45:57.6	99.430	0.130	-0.120	0.760
2020/01/31 15:45:57.7	99.430	0.140	-0.100	0.780
2020/01/31 15:45:57.8	99.420	0.150	-0.090	0.790
2020/01/31 15:45:57.9	99.420	0.170	-0.080	0.810
2020/01/31 15:45:58.0	99.410	0.180	-0.060	0.820
2020/01/31 15:45:58.1	99.410	0.190	-0.060	0.840
2020/01/31 15:45:58.2	99.400	0.210	-0.050	0.850
2020/01/31 15:45:58.3	99.390	0.220	-0.050	0.860
2020/01/31 15:45:58.4	99.390	0.230	-0.040	0.880
2020/01/31 15:45:58.5	99.380	0.240	-0.040	0.890
2020/01/31 15:45:58.6	99.370	0.240	-0.050	0.900
2020/01/31 15:45:58.7	99.360	0.250	-0.050	0.910
2020/01/31 15:45:58.8	99.350	0.260	-0.060	0.920
2020/01/31 15:45:58.9	99.350	0.260	-0.060	0.930
2020/01/31 15:45:59.0	99.340	0.270	-0.070	0.930
2020/01/31 15:45:59.1	99.340	0.270	-0.080	0.940
2020/01/31 15:45:59.2	99.330	0.270	-0.090	0.940
2020/01/31 15:45:59.3	99.330	0.270	-0.100	0.950
2020/01/31 15:45:59.4	99.330	0.270	-0.120	0.950
2020/01/31 15:45:59.5	99.330	0.270	-0.130	0.950
2020/01/31 15:45:59.6	99.330	0.260	-0.140	0.940
2020/01/31 15:45:59.7	99.320	0.250	-0.150	0.940
2020/01/31 15:45:59.8	99.330	0.250	-0.170	0.940
2020/01/31 15:45:59.9	99.330	0.240	-0.180	0.930
2020/01/31 15:46:00.0	99.330	0.230	-0.200	0.920
2020/01/31 15:46:00.1	99.330	0.220	-0.210	0.910
2020/01/31 15:46:00.2	99.340	0.210	-0.230	0.900
2020/01/31 15:46:00.3	99.340	0.190	-0.240	0.890
2020/01/31 15:46:00.4	99.350	0.180	-0.250	0.870
2020/01/31 15:46:00.5	99.350	0.160	-0.260	0.860
2020/01/31 15:46:00.6	99.360	0.150	-0.280	0.850
2020/01/31 15:46:00.7	99.360	0.130	-0.280	0.830
2020/01/31 15:46:00.8	99.370	0.120	-0.290	0.820
2020/01/31 15:46:00.9	99.370	0.100	-0.300	0.810
2020/01/31 15:46:01.0	99.380	0.090	-0.310	0.790
2020/01/31 15:46:01.1	99.380	0.070	-0.320	0.780
2020/01/31 15:46:01.2	99.390	0.050	-0.320	0.770
2020/01/31 15:46:01.3	99.390	0.040	-0.330	0.760
2020/01/31 15:46:01.4	99.390	0.020	-0.330	0.740
2020/01/31 15:46:01.5	99.390	0.000	-0.330	0.730
2020/01/31 15:46:01.6	99.400	-0.010	-0.330	0.720
2020/01/31 15:46:01.7	99.400	-0.030	-0.330	0.720
2020/01/31 15:46:01.8	99.400	-0.040	-0.330	0.710
2020/01/31 15:46:01.9	99.400	-0.060	-0.330	0.700
2020/01/31 15:46:02.0	99.410	-0.070	-0.320	0.690
2020/01/31 15:46:02.1	99.410	-0.090	-0.310	0.680
2020/01/31 15:46:02.2	99.410	-0.100	-0.300	0.670
2020/01/31 15:46:02.3	99.410	-0.120	-0.290	0.670
2020/01/31 15:46:02.4	99.410	-0.130	-0.280	0.660
2020/01/31 15:46:02.5	99.420	-0.140	-0.270	0.650
2020/01/31 15:46:02.6	99.420	-0.160	-0.260	0.640
2020/01/31 15:46:02.7	99.430	-0.170	-0.240	0.630
2020/01/31 15:46:02.8	99.440	-0.180	-0.220	0.610
2020/01/31 15:46:02.9	99.450	-0.190	-0.210	0.600
2020/01/31 15:46:03.0	99.460	-0.210	-0.190	0.590
2020/01/31 15:46:03.1	99.460	-0.220	-0.170	0.580
2020/01/31 15:46:03.2	99.480	-0.230	-0.160	0.560
2020/01/31 15:46:03.3	99.490	-0.250	-0.140	0.550
2020/01/31 15:46:03.4	99.500	-0.260	-0.120	0.540
2020/01/31 15:46:03.5	99.510	-0.270	-0.100	0.520
2020/01/31 15:46:03.6	99.530	-0.290	-0.080	0.510
2020/01/31 15:46:03.7	99.550	-0.300	-0.060	0.500
2020/01/31 15:46:03.8	99.560	-0.320	-0.040	0.490
2020/01/31 15:46:03.9	99.580	-0.330	-0.020	0.480
2020/01/31 15:46:04.0	99.590	-0.350	-0.000	0.470
2020/01/31 15:46:04.1	99.600	-0.360	0.020	0.470
2020/01/31 15:46:04.2	99.620	-0.380	0.040	0.460
2020/01/31 15:46:04.3	99.630	-0.390	0.050	0.460
2020/01/31 15:46:04.4	99.640	-0.410	0.070	0.450
2020/01/31 15:46:04.5	99.650	-0.430	0.080	0.450
2020/01/31 15:46:04.6	99.660	-0.440	0.100	0.450
2020/01/31 15:46:04.7	99.660	-0.460	0.110	0.460
2020/01/31 15:46:04.8	99.670	-0.470	0.120	0.460
2020/01/31 15:46:04.9	99.680	-0.480	0.130	0.460
2020/01/31 15:46:05.0	99.680	-0.490	0.130	0.470
2020/01/31 15:46:05.1	99.690	-0.500	0.130	0.470
2020/01/31 15:46:05.2	99.690	-0.510	0.130	0.480
2020/01/31 15:46:05.3	99.690	-0.520	0.130	0.480
2020/01/31 15:46:05.4	99.690	-0.530	0.120	0.490
2020/01/31 15:46:05.5	99.690	-0.530	0.110	0.490
2020/01/31 15:46:05.6	99.700	-0.530	0.100	0.500
2020/01/31 15:46:05.7	99.700	-0.530	0.080	0.500
2020/01/31 15:46:05.8	99.700	-0.530	0.060	0.500
2020/01/31 15:46:05.9	99.700	-0.520	0.040	0.500
2020/01/31 15:46:06.0	99.710	-0.510	0.010	0.500
2020/01/31 15:46:06.1	99.710	-0.500	-0.020	0.500
2020/01/31 15:46:06.2	99.720	-0.490	-0.050	0.490
2020/01/31 15:46:06.3	99.720	-0.470	-0.080	0.480
2020/01/31 15:46:06.4	99.730	-0.450	-0.120	0.470
2020/01/31 15:46:06.5	99.740	-0.430	-0.150	0.460
2020/01/31 15:46:06.6	99.760	-0.400	-0.190	0.440
2020/01/31 15:46:06.7	99.770	-0.370	-0.230	0.420
2020/01/31 15:46:06.8	99.780	-0.340	-0.260	0.390
2020/01/31 15:46:06.9	99.800	-0.310	-0.300	0.370
2020/01/31 15:46:07.0	99.820	-0.270	-0.340	0.340
2020/01/31 15:46:07.1	99.850	-0.240	-0.380	0.310
2020/01/31 15:46:07.2	99.870	-0.200	-0.410	0.280
2020/01/31 15:46:07.3	99.900	-0.160	-0.450	0.250
2020/01/31 15:46:07.4	99.930	-0.110	-0.480	0.210
2020/01/31 15:46:07.5	99.950	-0.070	-0.500	0.180
2020/01/31 15:46:07.6	99.980	-0.030	-0.530	0.140
2020/01/31 15:46:07.7	100.010	0.020	-0.550	0.110
2020/01/31 15:46:07.8	100.040	0.060	-0.570	0.070
2020/01/31 15:46:07.9	100.070	0.100	-0.580	0.040
2020/01/31 15:46:08.0	100.100	0.150	-0.590	0.010
2020/01/31 15:46:08.1	100.120	0.190	-0.600	-0.030
2020/01/31 15:46:08.2	100.150	0.230	-0.600	-0.060
2020/01/31 15:46:08.3	100.170	0.270	-0.600	-0.090
2020/01/31 15:46:08.4	100.190	0.310	-0.590	-0.110
2020/01/31 15:46:08.5	100.210	0.350	-0.580	-0.130
2020/01/31 15:46:08.6	100.230	0.380	-0.570	-0.160
2020/01/31 15:46:08.7	100.240	0.410	-0.550	-0.180
2020/01/31 15:46:08.8	100.250	0.440	-0.520	-0.190
2020/01/31 15:46:08.9	100.260	0.470	-0.500	-0.210
2020/01/31 15:46:09.0	100.270	0.490	-0.470	-0.210
2020/01/31 15:46:09.1	100.280	0.510	-0.440	-0.220
2020/01/31 15:46:09.2	100.280	0.530	-0.400	-0.220
2020/01/31 15:46:09.3	100.280	0.550	-0.360	-0.220
2020/01/31 15:46:09.4	100.280	0.560	-0.320	-0.220
2020/01/31 15:46:09.5	100.280	0.560	-0.280	-0.220
2020/01/31 15:46:09.6	100.280	0.570	-0.240	-0.210
2020/01/31 15:46:09.7	100.270	0.570	-0.190	-0.190
2020/01/31 15:46:09.8	100.260	0.570	-0.140	-0.180
2020/01/31 15:46:09.9	100.260	0.560	-0.100	-0.170
2020/01/31 15:46:10.0	100.250	0.550	-0.050	-0.150
2020/01/31 15:46:10.1	100.240	0.540	-0.010	-0.130
2020/01/31 15:46:10.2	100.230	0.520	0.030	-0.110
2020/01/31 15:46:10.3	100.220	0.510	0.080	-0.090
2020/01/31 15:46:10.4	100.210	0.490	0.120	-0.070
2020/01/31 15:46:10.5	100.200	0.470	0.150	-0.050
2020/01/31 15:46:10.6	100.180	0.440	0.190	-0.030
2020/01/31 15:46:10.7	100.180	0.410	0.220	-0.000
2020/01/31 15:46:10.8	100.160	0.390	0.250	0.020
2020/01/31 15:46:10.9	100.150	0.360	0.270	0.040
2020/01/31 15:46:11.0	100.140	0.330	0.290	0.070
2020/01/31 15:46:11.1	100.130	0.300	0.310	0.090
2020/01/31 15:46:11.2	100.120	0.270	0.320	0.110
2020/01/31 15:46:11.3	100.120	0.230	0.330	0.130
2020/01/31 15:46:11.4	100.110	0.200	0.330	0.150
2020/01/31 15:46:11.5	100.100	0.170	0.330	0.170
2020/01/31 15:46:11.6	100.100	0.140	0.320	0.190
2020/01/31 15:46:11.7	100.100	0.110	0.310	0.210
2020/01/31 15:46:11.8	100.090	0.080	0.300	0.230
2020/01/31 15:46:11.9	100.090	0.050	0.280	0.250
2020/01/31 15:46:12.0	100.090	0.020	0.250	0.260
2020/01/31 15:46:12.1	100.100	-0.000	0.220	0.280
2020/01/31 15:46:12.2	100.100	-0.020	0.190	0.290
2020/01/31 15:46:12.3	100.110	-0.050	0.150	0.300
2020/01/31 15:46:12.4	100.110	-0.070	0.110	0.320
2020/01/31 15:46:12.5	100.120	-0.080	0.070	0.330
2020/01/31 15:46:12.6	100.130	-0.100	0.020	0.340
2020/01/31 15:46:12.7	100.150	-0.110	-0.020	0.350
2020/01/31 15:46:12.8	100.170	-0.130	-0.070	0.370
2020/01/31 15:46:12.9	100.180	-0.140	-0.130	0.380
2020/01/31 15:46:13.0	100.200	-0.140	-0.180	0.390
2020/01/31 15:46:13.1	100.220	-0.150	-0.230	0.410
2020/01/31 15:46:13.2	100.240	-0.150	-0.280	0.420
2020/01/31 15:46:13.3	100.260	-0.160	-0.330	0.440
2020/01/31 15:46:13.4	100.280	-0.160	-0.380	0.450
2020/01/31 15:46:13.5	100.300	-0.150	-0.430	0.470
2020/01/31 15:46:13.6	100.330	-0.150	-0.470	0.480
2020/01/31 15:46:13.7	100.350	-0.150	-0.510	0.500
2020/01/31 15:46:13.8	100.380	-0.140	-0.550	0.520
2020/01/31 15:46:13.9	100.410	-0.140	-0.580	0.540
2020/01/31 15:46:14.0	100.440	-0.130	-0.610	0.560
2020/01/31 15:46:14.1	100.470	-0.130	-0.630	0.580
2020/01/31 15:46:14.2	100.500	-0.120	-0.650	0.600
2020/01/31 15:46:14.3	100.530	-0.110	-0.660	0.620
2020/01/31 15:46:14.4	100.560	-0.110	-0.670	0.650
2020/01/31 15:46:14.5	100.590	-0.100	-0.670	0.670
2020/01/31 15:46:14.6	100.620	-0.090	-0.670	0.700
2020/01/31 15:46:14.7	100.650	-0.090	-0.660	0.730
2020/01/31 15:46:14.8	100.680	-0.080	-0.650	0.750
2020/01/31 15:46:14.9	100.700	-0.080	-0.630	0.780
2020/01/31 15:46:15.0	100.730	-0.080	-0.610	0.810
2020/01/31 15:46:15.1	100.750	-0.080	-0.590	0.850
2020/01/31 15:46:15.2	100.780	-0.080	-0.560	0.880
2020/01/31 15:46:15.3	100.800	-0.080	-0.530	0.920
2020/01/31 15:46:15.4	100.820	-0.080	-0.500	0.950
2020/01/31 15:46:15.5	100.840	-0.090	-0.460	0.990
2020/01/31 15:46:15.6	100.850	-0.100	-0.430	1.030
2020/01/31 15:46:15.7	100.860	-0.100	-0.390	1.080
2020/01/31 15:46:15.8	100.870	-0.110	-0.350	1.120
2020/01/31 15:46:15.9	100.880	-0.120	-0.310	1.160
2020/01/31 15:46:16.0	100.890	-0.140	-0.280	1.210
2020/01/31 15:46:16.1	100.890	-0.150	-0.240	1.250
2020/01/31 15:46:16.2	100.900	-0.160	-0.200	1.300
2020/01/31 15:46:16.3	100.900	-0.180	-0.170	1.340
2020/01/31 15:46:16.4	100.890	-0.200	-0.140	1.390
2020/01/31 15:46:16.5	100.890	-0.210	-0.100	1.430
2020/01/31 15:46:16.6	100.880	-0.230	-0.070	1.480
2020/01/31 15:46:16.7	100.880	-0.250	-0.050	1.530
2020/01/31 15:46:16.8	100.870	-0.270	-0.020	1.570
2020/01/31 15:46:16.9	100.860	-0.290	0.000	1.610
2020/01/31 15:46:17.0	100.850	-0.310	0.020	1.650
2020/01/31 15:46:17.1	100.840	-0.330	0.040	1.690
2020/01/31 15:46:17.2	100.820	-0.350	0.060	1.730
2020/01/31 15:46:17.3	100.800	-0.360	0.070	1.770
2020/01/31 15:46:17.4	100.790	-0.380	0.080	1.800
2020/01/31 15:46:17.5	100.770	-0.400	0.090	1.830
2020/01/31 15:46:17.6	100.750	-0.410	0.100	1.860
2020/01/31 15:46:17.7	100.740	-0.430	0.110	1.890
2020/01/31 15:46:17.8	100.720	-0.440	0.110	1.910
2020/01/31 15:46:17.9	100.700	-0.450	0.110	1.920
2020/01/31 15:46:18.0	100.680	-0.460	0.110	1.930
2020/01/31 15:46:18.1	100.660	-0.460	0.100	1.940
2020/01/31 15:46:18.2	100.640	-0.470	0.100	1.940
2020/01/31 15:46:18.3	100.620	-0.470	0.090	1.940
2020/01/31 15:46:18.4	100.600	-0.470	0.080	1.930
2020/01/31 15:46:18.5	100.580	-0.460	0.070	1.920
2020/01/31 15:46:18.6	100.560	-0.460	0.060	1.900
2020/01/31 15:46:18.7	100.560	-0.450	0.050	1.880
2020/01/31 15:46:18.8	100.540	-0.440	0.030	1.850
2020/01/31 15:46:18.9	100.530	-0.430	0.020	1.820
2020/01/31 15:46:19.0	100.510	-0.410	-0.000	1.790
2020/01/31 15:46:19.1	100.500	-0.390	-0.020	1.750
2020/01/31 15:46:19.2	100.490	-0.370	-0.040	1.700
2020/01/31 15:46:19.3	100.480	-0.350	-0.060	1.650
2020/01/31 15:46:19.4	100.470	-0.320	-0.080	1.600
2020/01/31 15:46:19.5	100.460	-0.300	-0.110	1.540
2020/01/31 15:46:19.6	100.450	-0.270	-0.130	1.480
2020/01/31 15:46:19.7	100.450	-0.240	-0.150	1.420
2020/01/31 15:46:19.8	100.450	-0.210	-0.170	1.360
2020/01/31 15:46:19.9	100.450	-0.180	-0.190	1.290
2020/01/31 15:46:20.0	100.440	-0.150	-0.210	1.220
2020/01/31 15:46:20.1	100.440	-0.120	-0.230	1.140
2020/01/31 15:46:20.2	100.440	-0.080	-0.250	1.070
2020/01/31 15:46:20.3	100.440	-0.050	-0.260	1.000
2020/01/31 15:46:20.4	100.440	-0.020	-0.280	0.920
2020/01/31 15:46:20.5	100.450	0.010	-0.290	0.840
2020/01/31 15:46:20.6	100.450	0.050	-0.310	0.760
2020/01/31 15:46:20.7	100.440	0.080	-0.310	0.690
2020/01/31 15:46:20.8	100.450	0.110	-0.320	0.600
2020/01/31 15:46:20.9	100.450	0.140	-0.330	0.520
2020/01/31 15:46:21.0	100.450	0.160	-0.330	0.440
2020/01/31 15:46:21.1	100.460	0.190	-0.330	0.360
2020/01/31 15:46:21.2	100.460	0.220	-0.340	0.280
2020/01/31 15:46:21.3	100.460	0.240	-0.340	0.200
2020/01/31 15:46:21.4	100.460	0.260	-0.340	0.120
2020/01/31 15:46:21.5	100.470	0.280	-0.330	0.030
2020/01/31 15:46:21.6	100.470	0.300	-0.330	-0.050
2020/01/31 15:46:21.7	100.470	0.320	-0.330	-0.130
2020/01/31 15:46:21.8	100.470	0.340	-0.330	-0.210
2020/01/31 15:46:21.9	100.470	0.350	-0.320	-0.290
2020/01/31 15:46:22.0	100.470	0.370	-0.320	-0.370
2020/01/31 15:46:22.1	100.480	0.380	-0.310	-0.440
2020/01/31 15:46:22.2	100.480	0.390	-0.310	-0.520
2020/01/31 15:46:22.3	100.490	0.400	-0.300	-0.590
2020/01/31 15:46:22.4	100.490	0.410	-0.300	-0.660
2020/01/31 15:46:22.5	100.500	0.420	-0.300	-0.730
2020/01/31 15:46:22.6	100.500	0.430	-0.300	-0.800
2020/01/31 15:46:22.7	100.510	0.440	-0.290	-0.860
2020/01/31 15:46:22.8	100.520	0.440	-0.290	-0.920
2020/01/31 15:46:22.9	100.530	0.450	-0.290	-0.980
2020/01/31 15:46:23.0	100.540	0.450	-0.300	-1.030
2020/01/31 15:46:23.1	100.550	0.460	-0.300	-1.080
2020/01/31 15:46:23.2	100.550	0.460	-0.310	-1.130
2020/01/31 15:46:23.3	100.560	0.460	-0.310	-1.170
2020/01/31 15:46:23.4	100.570	0.470	-0.320	-1.200
2020/01/31 15:46:23.5	100.580	0.470	-0.330	-1.240
2020/01/31 15:46:23.6	100.590	0.470	-0.340	-1.260
2020/01/31 15:46:23.7	100.610	0.470	-0.340	-1.290
2020/01/31 15:46:23.8	100.620	0.480	-0.350	-1.300
2020/01/31 15:46:23.9	100.630	0.480	-0.360	-1.310
2020/01/31 15:46:24.0	100.640	0.480	-0.370	-1.320
2020/01/31 15:46:24.1	100.650	0.480	-0.390	-1.320
2020/01/31 15:46:24.2	100.660	0.480	-0.400	-1.320
2020/01/31 15:46:24.3	100.670	0.470	-0.410	-1.310
2020/01/31 15:46:24.4	100.680	0.470	-0.420	-1.300
2020/01/31 15:46:24.5	100.680	0.470	-0.430	-1.280
2020/01/31 15:46:24.6	100.690	0.470	-0.430	-1.250
2020/01/31 15:46:24.7	100.710	0.460	-0.440	-1.220
2020/01/31 15:46:24.8	100.710	0.460	-0.440	-1.190
2020/01/31 15:46:24.9	100.720	0.450	-0.450	-1.150
2020/01/31 15:46:25.0	100.720	0.440	-0.450	-1.110
2020/01/31 15:46:25.1	100.730	0.430	-0.450	-1.060
2020/01/31 15:46:25.2	100.730	0.420	-0.450	-1.010
2020/01/31 15:46:25.3	100.730	0.410	-0.440	-0.960
2020/01/31 15:46:25.4	100.730	0.400	-0.430	-0.900
2020/01/31 15:46:25.5	100.730	0.380	-0.420	-0.830
2020/01/31 15:46:25.6	100.730	0.370	-0.410	-0.760
2020/01/31 15:46:25.7	100.730	0.350	-0.390	-0.680
2020/01/31 15:46:25.8	100.730	0.330	-0.370	-0.610
2020/01/31 15:46:25.9	100.730	0.310	-0.350	-0.520
2020/01/31 15:46:26.0	100.720	0.290	-0.320	-0.440
2020/01/31 15:46:26.1	100.720	0.270	-0.290	-0.340
2020/01/31 15:46:26.2	100.710	0.240	-0.260	-0.250
2020/01/31 15:46:26.3	100.700	0.210	-0.230	-0.150
2020/01/31 15:46:26.4	100.700	0.190	-0.190	-0.040
2020/01/31 15:46:26.5	100.690	0.160	-0.150	0.060
2020/01/31 15:46:26.6	100.680	0.120	-0.100	0.170
2020/01/31 15:46:26.7	100.660	0.090	-0.050	0.290
2020/01/31 15:46:26.8	100.650	0.050	-0.010	0.400
2020/01/31 15:46:26.9	100.640	0.020	0.050	0.520
2020/01/31 15:46:27.0	100.630	-0.020	0.100	0.640
2020/01/31 15:46:27.1	100.620	-0.060	0.150	0.760
2020/01/31 15:46:27.2	100.610	-0.100	0.210	0.880
2020/01/31 15:46:27.3	100.600	-0.150	0.270	0.990
2020/01/31 15:46:27.4	100.580	-0.190	0.320	1.110
2020/01/31 15:46:27.5	100.570	-0.230	0.380	1.230
2020/01/31 15:46:27.6	100.560	-0.280	0.440	1.340
2020/01/31 15:46:27.7	100.540	-0.320	0.490	1.460
2020/01/31 15:46:27.8	100.530	-0.370	0.550	1.570
2020/01/31 15:46:27.9	100.510	-0.410	0.600	1.670
2020/01/31 15:46:28.0	100.500	-0.460	0.650	1.770
2020/01/31 15:46:28.1	100.490	-0.500	0.700	1.870
2020/01/31 15:46:28.2	100.480	-0.540	0.740	1.970
2020/01/31 15:46:28.3	100.460	-0.580	0.770	2.060
2020/01/31 15:46:28.4	100.450	-0.620	0.810	2.140
2020/01/31 15:46:28.5	100.440	-0.650	0.830	2.220
2020/01/31 15:46:28.6	100.430	-0.690	0.850	2.290
2020/01/31 15:46:28.7	100.410	-0.720	0.870	2.370
2020/01/31 15:46:28.8	100.400	-0.750	0.880	2.430
2020/01/31 15:46:28.9	100.390	-0.770	0.870	2.490
2020/01/31 15:46:29.0	100.380	-0.790	0.870	2.540
2020/01/31 15:46:29.1	100.360	-0.810	0.850	2.590
2020/01/31 15:46:29.2	100.350	-0.820	0.820	2.630
2020/01/31 15:46:29.3	100.340	-0.830	0.790	2.660
2020/01/31 15:46:29.4	100.330	-0.840	0.750	2.690
2020/01/31 15:46:29.5	100.310	-0.840	0.690	2.720
2020/01/31 15:46:29.6	100.300	-0.830	0.640	2.740
2020/01/31 15:46:29.7	100.290	-0.820	0.570	2.750
2020/01/31 15:46:29.8	100.280	-0.810	0.500	2.760
2020/01/31 15:46:29.9	100.270	-0.790	0.420	2.770
2020/01/31 15:46:30.0	100.260	-0.770	0.330	2.770
2020/01/31 15:46:30.1	100.250	-0.750	0.240	2.770
2020/01/31 15:46:30.2	100.250	-0.720	0.150	2.760
2020/01/31 15:46:30.3	100.240	-0.690	0.050	2.750
2020/01/31 15:46:30.4	100.230	-0.650	-0.060	2.740
2020/01/31 15:46:30.5	100.220	-0.610	-0.160	2.720
2020/01/31 15:46:30.6	100.220	-0.570	-0.270	2.700
2020/01/31 15:46:30.7	100.200	-0.530	-0.380	2.680
2020/01/31 15:46:30.8	100.200	-0.490	-0.480	2.650
2020/01/31 15:46:30.9	100.190	-0.440	-0.590	2.630
2020/01/31 15:46:31.0	100.190	-0.400	-0.690	2.590
2020/01/31 15:46:31.1	100.180	-0.350	-0.790	2.560
2020/01/31 15:46:31.2	100.180	-0.310	-0.890	2.530
2020/01/31 15:46:31.3	100.180	-0.260	-0.980	2.490
2020/01/31 15:46:31.4	100.170	-0.210	-1.070	2.450
2020/01/31 15:46:31.5	100.170	-0.170	-1.150	2.400
2020/01/31 15:46:31.6	100.170	-0.130	-1.220	2.360
2020/01/31 15:46:31.7	100.160	-0.080	-1.290	2.310
2020/01/31 15:46:31.8	100.160	-0.040	-1.350	2.260
2020/01/31 15:46:31.9	100.160	-0.010	-1.400	2.200
2020/01/31 15:46:32.0	100.160	0.030	-1.450	2.150
2020/01/31 15:46:32.1	100.160	0.060	-1.480	2.090
2020/01/31 15:46:32.2	100.160	0.100	-1.510	2.030
2020/01/31 15:46:32.3	100.170	0.120	-1.530	1.960
2020/01/31 15:46:32.4	100.170	0.150	-1.550	1.900
2020/01/31 15:46:32.5	100.170	0.180	-1.550	1.830
2020/01/31 15:46:32.6	100.170	0.200	-1.550	1.760
2020/01/31 15:46:32.7	100.170	0.220	-1.530	1.690
2020/01/31 15:46:32.8	100.170	0.240	-1.520	1.610
2020/01/31 15:46:32.9	100.170	0.250	-1.490	1.540
2020/01/31 15:46:33.0	100.180	0.260	-1.460	1.460
2020/01/31 15:46:33.1	100.180	0.280	-1.410	1.380
2020/01/31 15:46:33.2	100.180	0.290	-1.370	1.300
2020/01/31 15:46:33.3	100.180	0.290	-1.320	1.220
2020/01/31 15:46:33.4	100.180	0.300	-1.260	1.140
2020/01/31 15:46:33.5	100.190	0.300	-1.190	1.050
2020/01/31 15:46:33.6	100.190	0.310	-1.130	0.970
2020/01/31 15:46:33.7	100.190	0.310	-1.050	0.890
2020/01/31 15:46:33.8	100.190	0.310	-0.970	0.800
2020/01/31 15:46:33.9	100.190	0.310	-0.890	0.720
2020/01/31 15:46:34.0	100.200	0.310	-0.810	0.630
2020/01/31 15:46:34.1	100.200	0.310	-0.720	0.550
2020/01/31 15:46:34.2	100.200	0.310	-0.640	0.460
2020/01/31 15:46:34.3	100.200	0.310	-0.550	0.380
2020/01/31 15:46:34.4	100.200	0.310	-0.470	0.290
2020/01/31 15:46:34.5	100.200	0.310	-0.380	0.210
2020/01/31 15:46:34.6	100.200	0.300	-0.290	0.120
2020/01/31 15:46:34.7	100.200	0.300	-0.210	0.040
2020/01/31 15:46:34.8	100.200	0.300	-0.130	-0.040
2020/01/31 15:46:34.9	100.200	0.300	-0.050	-0.120
2020/01/31 15:46:35.0	100.190	0.290	0.030	-0.200
2020/01/31 15:46:35.1	100.190	0.290	0.110	-0.280
2020/01/31 15:46:35.2	100.180	0.280	0.180	-0.350
2020/01/31 15:46:35.3	100.170	0.280	0.250	-0.430
2020/01/31 15:46:35.4	100.160	0.280	0.320	-0.500
2020/01/31 15:46:35.5	100.150	0.270	0.380	-0.570
2020/01/31 15:46:35.6	100.130	0.270	0.440	-0.640
2020/01/31 15:46:35.7	100.120	0.270	0.490	-0.700
2020/01/31 15:46:35.8	100.110	0.260	0.540	-0.770
2020/01/31 15:46:35.9	100.090	0.260	0.590	-0.830
2020/01/31 15:46:36.0	100.070	0.250	0.630	-0.890
2020/01/31 15:46:36.1	100.050	0.250	0.660	-0.940
2020/01/31 15:46:36.2	100.030	0.240	0.690	-1.000
2020/01/31 15:46:36.3	100.000	0.240	0.720	-1.050
2020/01/31 15:46:36.4	99.980	0.240	0.740	-1.100
2020/01/31 15:46:36.5	99.960	0.230	0.750	-1.150
2020/01/31 15:46:36.6	99.940	0.230	0.760	-1.190
2020/01/31 15:46:36.7	99.930	0.220	0.770	-1.230
2020/01/31 15:46:36.8	99.910	0.220	0.770	-1.260
2020/01/31 15:46:36.9	99.890	0.210	0.770	-1.300
2020/01/31 15:46:37.0	99.870	0.210	0.760	-1.330
2020/01/31 15:46:37.1	99.850	0.210	0.750	-1.360
2020/01/31 15:46:37.2	99.840	0.200	0.730	-1.390
2020/01/31 15:46:37.3	99.830	0.200	0.700	-1.420
2020/01/31 15:46:37.4	99.810	0.200	0.680	-1.440
2020/01/31 15:46:37.5	99.810	0.190	0.650	-1.460
2020/01/31 15:46:37.6	99.800	0.190	0.610	-1.480
2020/01/31 15:46:37.7	99.800	0.190	0.580	-1.490
2020/01/31 15:46:37.8	99.800	0.180	0.530	-1.500
2020/01/31 15:46:37.9	99.800	0.180	0.490	-1.510
2020/01/31 15:46:38.0	99.800	0.180	0.440	-1.520
2020/01/31 15:46:38.1	99.800	0.180	0.400	-1.530
2020/01/31 15:46:38.2	99.810	0.170	0.350	-1.530
2020/01/31 15:46:38.3	99.820	0.170	0.300	-1.530
2020/01/31 15:46:38.4	99.830	0.170	0.250	-1.530
2020/01/31 15:46:38.5	99.840	0.160	0.190	-1.530
2020/01/31 15:46:38.6	99.850	0.160	0.140	-1.520
2020/01/31 15:46:38.7	99.860	0.150	0.090	-1.510
2020/01/31 15:46:38.8	99.870	0.150	0.040	-1.490
2020/01/31 15:46:38.9	99.890	0.140	-0.000	-1.470
2020/01/31 15:46:39.0	99.900	0.130	-0.050	-1.450
2020/01/31 15:46:39.1	99.920	0.120	-0.090	-1.430
2020/01/31 15:46:39.2	99.940	0.120	-0.130	-1.400
2020/01/31 15:46:39.3	99.960	0.110	-0.170	-1.370
2020/01/31 15:46:39.4	99.970	0.100	-0.200	-1.340
2020/01/31 15:46:39.5	99.990	0.080	-0.230	-1.300
2020/01/31 15:46:39.6	100.010	0.070	-0.260	-1.260
2020/01/31 15:46:39.7	100.020	0.060	-0.290	-1.210
2020/01/31 15:46:39.8	100.040	0.050	-0.310	-1.170
2020/01/31 15:46:39.9	100.060	0.030	-0.330	-1.110
2020/01/31 15:46:40.0	100.080	0.020	-0.350	-1.060
2020/01/31 15:46:40.1	100.100	0.000	-0.370	-1.000
2020/01/31 15:46:40.2	100.120	-0.010	-0.380	-0.930
2020/01/31 15:46:40.3	100.130	-0.020	-0.400	-0.860
2020/01/31 15:46:40.4	100.150	-0.040	-0.410	-0.790
2020/01/31 15:46:40.5	100.170	-0.050	-0.420	-0.720
2020/01/31 15:46:40.6	100.180	-0.070	-0.430	-0.640
2020/01/31 15:46:40.7	100.200	-0.080	-0.430	-0.550
2020/01/31 15:46:40.8	100.220	-0.090	-0.440	-0.460
2020/01/31 15:46:40.9	100.230	-0.110	-0.450	-0.370
2020/01/31 15:46:41.0	100.250	-0.120	-0.450	-0.280
2020/01/31 15:46:41.1	100.260	-0.130	-0.460	-0.180
2020/01/31 15:46:41.2	100.270	-0.140	-0.460	-0.080
2020/01/31 15:46:41.3	100.280	-0.150	-0.470	0.020
2020/01/31 15:46:41.4	100.300	-0.160	-0.470	0.130
2020/01/31 15:46:41.5	100.310	-0.170	-0.480	0.230
2020/01/31 15:46:41.6	100.320	-0.180	-0.490	0.340
2020/01/31 15:46:41.7	100.320	-0.180	-0.490	0.460
2020/01/31 15:46:41.8	100.340	-0.190	-0.500	0.570
2020/01/31 15:46:41.9	100.350	-0.190	-0.510	0.690
2020/01/31 15:46:42.0	100.360	-0.200	-0.510	0.810
2020/01/31 15:46:42.1	100.370	-0.200	-0.520	0.930
2020/01/31 15:46:42.2	100.380	-0.200	-0.530	1.050
2020/01/31 15:46:42.3	100.390	-0.200	-0.540	1.170
2020/01/31 15:46:42.4	100.400	-0.200	-0.550	1.290
2020/01/31 15:46:42.5	100.410	-0.200	-0.560	1.420
2020/01/31 15:46:42.6	100.420	-0.200	-0.570	1.540
2020/01/31 15:46:42.7	100.410	-0.200	-0.580	1.670
2020/01/31 15:46:42.8	100.420	-0.200	-0.580	1.800
2020/01/31 15:46:42.9	100.420	-0.190	-0.590	1.920
2020/01/31 15:46:43.0	100.430	-0.190	-0.600	2.040
2020/01/31 15:46:43.1	100.430	-0.190	-0.600	2.170
2020/01/31 15:46:43.2	100.430	-0.180	-0.600	2.290
2020/01/31 15:46:43.3	100.430	-0.180	-0.600	2.400
2020/01/31 15:46:43.4	100.430	-0.170	-0.600	2.520
2020/01/31 15:46:43.5	100.430	-0.170	-0.600	2.630
2020/01/31 15:46:43.6	100.430	-0.160	-0.590	2.740
2020/01/31 15:46:43.7	100.420	-0.160	-0.580	2.850
2020/01/31 15:46:43.8	100.410	-0.160	-0.570	2.950
2020/01/31 15:46:43.9	100.410	-0.150	-0.560	3.040
2020/01/31 15:46:44.0	100.400	-0.150	-0.540	3.130
2020/01/31 15:46:44.1	100.400	-0.150	-0.520	3.220
2020/01/31 15:46:44.2	100.390	-0.150	-0.500	3.300
2020/01/31 15:46:44.3	100.380	-0.150	-0.470	3.380
2020/01/31 15:46:44.4	100.370	-0.150	-0.440	3.450
2020/01/31 15:46:44.5	100.370	-0.150	-0.410	3.510
2020/01/31 15:46:44.6	100.350	-0.150	-0.380	3.570
2020/01/31 15:46:44.7	100.330	-0.150	-0.340	3.630
2020/01/31 15:46:44.8	100.320	-0.160	-0.300	3.670
2020/01/31 15:46:44.9	100.310	-0.160	-0.260	3.720
2020/01/31 15:46:45.0	100.290	-0.170	-0.220	3.750
2020/01/31 15:46:45.1	100.270	-0.170	-0.180	3.780
2020/01/31 15:46:45.2	100.260	-0.180	-0.140	3.810
2020/01/31 15:46:45.3	100.240	-0.190	-0.090	3.820
2020/01/31 15:46:45.4	100.220	-0.190	-0.050	3.830
2020/01/31 15:46:45.5	100.200	-0.200	-0.000	3.840
2020/01/31 15:46:45.6	100.180	-0.210	0.040	3.830
2020/01/31 15:46:45.7	100.170	-0.220	0.090	3.830
2020/01/31 15:46:45.8	100.150	-0.230	0.130	3.810
2020/01/31 15:46:45.9	100.130	-0.230	0.170	3.780
2020/01/31 15:46:46.0	100.110	-0.240	0.210	3.740
2020/01/31 15:46:46.1	100.090	-0.250	0.250	3.700
2020/01/31 15:46:46.2	100.080	-0.250	0.280	3.650
2020/01/31 15:46:46.3	100.060	-0.260	0.310	3.580
2020/01/31 15:46:46.4	100.050	-0.260	0.340	3.510
2020/01/31 15:46:46.5	100.040	-0.260	0.360	3.440
2020/01/31 15:46:46.6	100.030	-0.260	0.380	3.350
2020/01/31 15:46:46.7	100.020	-0.260	0.390	3.250
2020/01/31 15:46:46.8	100.010	-0.260	0.400	3.150
2020/01/31 15:46:46.9	100.010	-0.250	0.410	3.030
2020/01/31 15:46:47.0	100.010	-0.250	0.410	2.910
2020/01/31 15:46:47.1	100.010	-0.240	0.400	2.790
2020/01/31 15:46:47.2	100.010	-0.230	0.390	2.650
2020/01/31 15:46:47.3	100.020	-0.210	0.380	2.510
2020/01/31 15:46:47.4	100.020	-0.190	0.360	2.360
2020/01/31 15:46:47.5	100.030	-0.170	0.340	2.200
2020/01/31 15:46:47.6	100.040	-0.150	0.310	2.040
2020/01/31 15:46:47.7	100.060	-0.130	0.280	1.880
2020/01/31 15:46:47.8	100.080	-0.100	0.240	1.710
2020/01/31 15:46:47.9	100.090	-0.070	0.200	1.540
2020/01/31 15:46:48.0	100.110	-0.040	0.150	1.360
2020/01/31 15:46:48.1	100.120	-0.010	0.110	1.180
2020/01/31 15:46:48.2	100.140	0.030	0.050	1.010
2020/01/31 15:46:48.3	100.150	0.060	0.000	0.830
2020/01/31 15:46:48.4	100.170	0.100	-0.050	0.650
2020/01/31 15:46:48.5	100.180	0.140	-0.110	0.480
2020/01/31 15:46:48.6	100.190	0.180	-0.170	0.300
2020/01/31 15:46:48.7	100.200	0.220	-0.230	0.130
2020/01/31 15:46:48.8	100.210	0.260	-0.280	-0.030
2020/01/31 15:46:48.9	100.220	0.300	-0.340	-0.200
2020/01/31 15:46:49.0	100.220	0.340	-0.400	-0.360
2020/01/31 15:46:49.1	100.230	0.380	-0.450	-0.510
2020/01/31 15:46:49.2	100.230	0.420	-0.510	-0.660
2020/01/31 15:46:49.3	100.230	0.460	-0.560	-0.800
2020/01/31 15:46:49.4	100.220	0.490	-0.610	-0.940
2020/01/31 15:46:49.5	100.220	0.520	-0.650	-1.080
2020/01/31 15:46:49.6	100.210	0.550	-0.690	-1.210
2020/01/31 15:46:49.7	100.200	0.580	-0.730	-1.330
2020/01/31 15:46:49.8	100.190	0.600	-0.760	-1.450
2020/01/31 15:46:49.9	100.180	0.620	-0.780	-1.560
2020/01/31 15:46:50.0	100.170	0.630	-0.800	-1.660
2020/01/31 15:46:50.1	100.160	0.640	-0.820	-1.760
2020/01/31 15:46:50.2	100.150	0.650	-0.830	-1.850
2020/01/31 15:46:50.3	100.130	0.650	-0.830	-1.940
2020/01/31 15:46:50.4	100.120	0.650	-0.830	-2.020
2020/01/31 15:46:50.5	100.110	0.640	-0.820	-2.090
2020/01/31 15:46:50.6	100.100	0.630	-0.810	-2.160
2020/01/31 15:46:50.7	100.100	0.620	-0.790	-2.210
2020/01/31 15:46:50.8	100.090	0.600	-0.770	-2.270
2020/01/31 15:46:50.9	100.080	0.580	-0.740	-2.310
2020/01/31 15:46:51.0	100.070	0.550	-0.710	-2.350
2020/01/31 15:46:51.1	100.060	0.520	-0.670	-2.390
2020/01/31 15:46:51.2	100.050	0.490	-0.640	-2.420
2020/01/31 15:46:51.3	100.040	0.460	-0.590	-2.440
2020/01/31 15:46:51.4	100.030	0.420	-0.550	-2.450
2020/01/31 15:46:51.5	100.020	0.380	-0.500	-2.460
2020/01/31 15:46:51.6	100.010	0.340	-0.450	-2.460
2020/01/31 15:46:51.7	100.010	0.300	-0.400	-2.450
2020/01/31 15:46:51.8	100.010	0.250	-0.350	-2.440
2020/01/31 15:46:51.9	100.000	0.210	-0.310	-2.420
2020/01/31 15:46:52.0	99.990	0.170	-0.260	-2.390
2020/01/31 15:46:52.1	99.990	0.120	-0.210	-2.360
2020/01/31 15:46:52.2	99.980	0.080	-0.170	-2.320
2020/01/31 15:46:52.3	99.980	0.040	-0.130	-2.280
2020/01/31 15:46:52.4	99.970	-0.000	-0.090	-2.230
2020/01/31 15:46:52.5	99.970	-0.040	-0.050	-2.170
2020/01/31 15:46:52.6	99.970	-0.080	-0.020	-2.110
2020/01/31 15:46:52.7	99.970	-0.110	0.010	-2.030
2020/01/31 15:46:52.8	99.970	-0.150	0.040	-1.950
2020/01/31 15:46:52.9	99.960	-0.180	0.060	-1.870
2020/01/31 15:46:53.0	99.960	-0.210	0.080	-1.790
2020/01/31 15:46:53.1	99.960	-0.230	0.100	-1.690
2020/01/31 15:46:53.2	99.970	-0.250	0.110	-1.600
2020/01/31 15:46:53.3	99.970	-0.280	0.120	-1.490
2020/01/31 15:46:53.4	99.970	-0.290	0.130	-1.380
2020/01/31 15:46:53.5	99.970	-0.310	0.140	-1.270
2020/01/31 15:46:53.6	99.980	-0.320	0.140	-1.150
2020/01/31 15:46:53.7	99.990	-0.330	0.140	-1.020
2020/01/31 15:46:53.8	100.000	-0.340	0.140	-0.900
2020/01/31 15:46:53.9	100.000	-0.350	0.140	-0.770
2020/01/31 15:46:54.0	100.000	-0.350	0.130	-0.630
2020/01/31 15:46:54.1	100.010	-0.350	0.130	-0.490
2020/01/31 15:46:54.2	100.010	-0.350	0.130	-0.350
2020/01/31 15:46:54.3	100.020	-0.350	0.120	-0.210
2020/01/31 15:46:54.4	100.020	-0.350	0.120	-0.060
2020/01/31 15:46:54.5	100.030	-0.340	0.110	0.090
2020/01/31 15:46:54.6	100.030	-0.340	0.110	0.240
2020/01/31 15:46:54.7	100.020	-0.330	0.110	0.390
2020/01/31 15:46:54.8	100.030	-0.320	0.100	0.540
2020/01/31 15:46:54.9	100.030	-0.320	0.100	0.690
2020/01/31 15:46:55.0	100.030	-0.310	0.100	0.840
2020/01/31 15:46:55.1	100.040	-0.300	0.100	0.980
2020/01/31 15:46:55.2	100.040	-0.290	0.100	1.130
2020/01/31 15:46:55.3	100.040	-0.280	0.100	1.270
2020/01/31 15:46:55.4	100.040	-0.270	0.100	1.410
2020/01/31 15:46:55.5	100.050	-0.260	0.100	1.550
2020/01/31 15:46:55.6	100.050	-0.250	0.110	1.680
2020/01/31 15:46:55.7	100.050	-0.240	0.110	1.810
2020/01/31 15:46:55.8	100.050	-0.230	0.110	1.940
2020/01/31 15:46:55.9	100.050	-0.220	0.120	2.060
2020/01/31 15:46:56.0	100.050	-0.210	0.120	2.180
2020/01/31 15:46:56.1	100.060	-0.200	0.120	2.290
2020/01/31 15:46:56.2	100.060	-0.200	0.120	2.400
2020/01/31 15:46:56.3	100.060	-0.190	0.120	2.500
2020/01/31 15:46:56.4	100.060	-0.180	0.120	2.600
2020/01/31 15:46:56.5	100.070	-0.170	0.120	2.690
2020/01/31 15:46:56.6	100.070	-0.160	0.110	2.780
2020/01/31 15:46:56.7	100.080	-0.150	0.110	2.860
2020/01/31 15:46:56.8	100.080	-0.130	0.100	2.940
2020/01/31 15:46:56.9	100.080	-0.120	0.090	3.010
2020/01/31 15:46:57.0	100.090	-0.110	0.080	3.080
2020/01/31 15:46:57.1	100.090	-0.100	0.070	3.140
2020/01/31 15:46:57.2	100.090	-0.090	0.060	3.190
2020/01/31 15:46:57.3	100.100	-0.070	0.040	3.240
2020/01/31 15:46:57.4	100.100	-0.060	0.020	3.280
2020/01/31 15:46:57.5	100.110	-0.050	0.010	3.320
2020/01/31 15:46:57.6	100.110	-0.030	-0.020	3.350
2020/01/31 15:46:57.7	100.110	-0.020	-0.040	3.380
2020/01/31 15:46:57.8	100.110	-0.000	-0.060	3.400
2020/01/31 15:46:57.9	100.120	0.020	-0.080	3.420
2020/01/31 15:46:58.0	100.130	0.030	-0.110	3.430
2020/01/31 15:46:58.1	100.130	0.050	-0.140	3.430
2020/01/31 15:46:58.2	100.140	0.060	-0.160	3.440
2020/01/31 15:46:58.3	100.140	0.080	-0.190	3.440
2020/01/31 15:46:58.4	100.150	0.100	-0.220	3.430
2020/01/31 15:46:58.5	100.150	0.110	-0.250	3.420
2020/01/31 15:46:58.6	100.150	0.130	-0.280	3.410
2020/01/31 15:46:58.7	100.160	0.140	-0.310	3.400
2020/01/31 15:46:58.8	100.160	0.160	-0.330	3.380
2020/01/31 15:46:58.9	100.160	0.170	-0.360	3.360
2020/01/31 15:46:59.0	100.160	0.180	-0.390	3.330
2020/01/31 15:46:59.1	100.170	0.190	-0.410	3.310
2020/01/31 15:46:59.2	100.170	0.200	-0.430	3.280
2020/01/31 15:46:59.3	100.170	0.210	-0.450	3.240
2020/01/31 15:46:59.4	100.170	0.220	-0.470	3.210
2020/01/31 15:46:59.5	100.160	0.230	-0.490	3.170
2020/01/31 15:46:59.6	100.160	0.230	-0.500	3.130
2020/01/31 15:46:59.7	100.160	0.230	-0.520	3.080
2020/01/31 15:46:59.8	100.160	0.230	-0.530	3.030
2020/01/31 15:46:59.9	100.150	0.230	-0.530	2.980
2020/01/31 15:47:00.0	100.140	0.230	-0.540	2.930
2020/01/31 15:47:00.1	100.140	0.230	-0.540	2.870
2020/01/31 15:47:00.2	100.130	0.220	-0.540	2.800
2020/01/31 15:47:00.3	100.120	0.220	-0.530	2.740
2020/01/31 15:47:00.4	100.100	0.210	-0.530	2.670
2020/01/31 15:47:00.5	100.090	0.200	-0.520	2.590
2020/01/31 15:47:00.6	100.070	0.190	-0.500	2.510
2020/01/31 15:47:00.7	100.060	0.180	-0.490	2.430
2020/01/31 15:47:00.8	100.040	0.170	-0.470	2.340
2020/01/31 15:47:00.9	100.020	0.150	-0.460	2.250
2020/01/31 15:47:01.0	99.990	0.140	-0.440	2.150
2020/01/31 15:47:01.1	99.970	0.120	-0.420	2.050
2020/01/31 15:47:01.2	99.940	0.110	-0.400	1.950
2020/01/31 15:47:01.3	99.920	0.090	-0.370	1.840
2020/01/31 15:47:01.4	99.890	0.080	-0.350	1.730
2020/01/31 15:47:01.5	99.860	0.060	-0.330	1.610
2020/01/31 15:47:01.6	99.830	0.050	-0.310	1.490
2020/01/31 15:47:01.7	99.800	0.030	-0.280	1.360
2020/01/31 15:47:01.8	99.770	0.020	-0.260	1.230
2020/01/31 15:47:01.9	99.740	0.000	-0.240	1.100
2020/01/31 15:47:02.0	99.720	-0.010	-0.230	0.970
2020/01/31 15:47:02.1	99.690	-0.020	-0.210	0.830
2020/01/31 15:47:02.2	99.660	-0.030	-0.200	0.690
2020/01/31 15:47:02.3	99.640	-0.040	-0.190	0.540
2020/01/31 15:47:02.4	99.620	-0.050	-0.190	0.400
2020/01/31 15:47:02.5	99.600	-0.050	-0.180	0.250
2020/01/31 15:47:02.6	99.580	-0.060	-0.180	0.110
2020/01/31 15:47:02.7	99.570	-0.060	-0.180	-0.040
2020/01/31 15:47:02.8	99.550	-0.060	-0.190	-0.190
2020/01/31 15:47:02.9	99.540	-0.060	-0.200	-0.330
2020/01/31 15:47:03.0	99.540	-0.060	-0.210	-0.480
2020/01/31 15:47:03.1	99.530	-0.060	-0.220	-0.620
2020/01/31 15:47:03.2	99.530	-0.050	-0.240	-0.760
2020/01/31 15:47:03.3	99.530	-0.050	-0.260	-0.900
2020/01/31 15:47:03.4	99.530	-0.040	-0.280	-1.030
2020/01/31 15:47:03.5	99.540	-0.030	-0.300	-1.160
2020/01/31 15:47:03.6	99.550	-0.020	-0.320	-1.290
2020/01/31 15:47:03.7	99.560	-0.010	-0.340	-1.410
2020/01/31 15:47:03.8	99.570	0.010	-0.370	-1.530
2020/01/31 15:47:03.9	99.590	0.020	-0.390	-1.640
2020/01/31 15:47:04.0	99.610	0.030	-0.420	-1.750
2020/01/31 15:47:04.1	99.630	0.050	-0.440	-1.850
2020/01/31 15:47:04.2	99.650	0.060	-0.460	-1.950
2020/01/31 15:47:04.3	99.680	0.080	-0.490	-2.040
2020/01/31 15:47:04.4	99.700	0.090	-0.510	-2.130
2020/01/31 15:47:04.5	99.730	0.110	-0.530	-2.210
2020/01/31 15:47:04.6	99.760	0.120	-0.540	-2.280
2020/01/31 15:47:04.7	99.790	0.140	-0.560	-2.340
2020/01/31 15:47:04.8	99.820	0.150	-0.570	-2.410
2020/01/31 15:47:04.9	99.860	0.160	-0.570	-2.460
2020/01/31 15:47:05.0	99.890	0.170	-0.580	-2.510
2020/01/31 15:47:05.1	99.930	0.180	-0.580	-2.550
2020/01/31 15:47:05.2	99.960	0.190	-0.570	-2.590
2020/01/31 15:47:05.3	100.000	0.190	-0.570	-2.610
2020/01/31 15:47:05.4	100.030	0.200	-0.550	-2.640
2020/01/31 15:47:05.5	100.070	0.200	-0.540	-2.650
2020/01/31 15:47:05.6	100.100	0.190	-0.520	-2.660
2020/01/31 15:47:05.7	100.140	0.190	-0.490	-2.650
2020/01/31 15:47:05.8	100.170	0.180	-0.460	-2.640
2020/01/31 15:47:05.9	100.200	0.170	-0.420	-2.630
2020/01/31 15:47:06.0	100.220	0.160	-0.380	-2.610
2020/01/31 15:47:06.1	100.250	0.150	-0.340	-2.580
2020/01/31 15:47:06.2	100.270	0.130	-0.290	-2.540
2020/01/31 15:47:06.3	100.300	0.110	-0.230	-2.500
2020/01/31 15:47:06.4	100.310	0.090	-0.180	-2.450
2020/01/31 15:47:06.5	100.330	0.060	-0.120	-2.390
2020/01/31 15:47:06.6	100.340	0.040	-0.050	-2.330
2020/01/31 15:47:06.7	100.370	0.010	0.020	-2.250
2020/01/31 15:47:06.8	100.380	-0.020	0.090	-2.170
2020/01/31 15:47:06.9	100.380	-0.050	0.150	-2.090
2020/01/31 15:47:07.0	100.390	-0.080	0.220	-2.000
2020/01/31 15:47:07.1	100.390	-0.120	0.290	-1.900
2020/01/31 15:47:07.2	100.390	-0.150	0.360	-1.800
2020/01/31 15:47:07.3	100.380	-0.180	0.430	-1.690
2020/01/31 15:47:07.4	100.380	-0.220	0.500	-1.580
2020/01/31 15:47:07.5	100.370	-0.250	0.570	-1.460
2020/01/31 15:47:07.6	100.370	-0.280	0.630	-1.340
2020/01/31 15:47:07.7	100.370	-0.310	0.680	-1.210
2020/01/31 15:47:07.8	100.360	-0.340	0.740	-1.090
2020/01/31 15:47:07.9	100.350	-0.370	0.780	-0.950
2020/01/31 15:47:08.0	100.340	-0.400	0.830	-0.820
2020/01/31 15:47:08.1	100.320	-0.430	0.860	-0.680
2020/01/31 15:47:08.2	100.310	-0.450	0.890	-0.540
2020/01/31 15:47:08.3	100.300	-0.470	0.920	-0.400
2020/01/31 15:47:08.4	100.280	-0.490	0.930	-0.260
2020/01/31 15:47:08.5	100.270	-0.500	0.940	-0.120
2020/01/31 15:47:08.6	100.250	-0.510	0.940	0.020
2020/01/31 15:47:08.7	100.240	-0.520	0.930	0.170
2020/01/31 15:47:08.8	100.220	-0.530	0.920	0.320
2020/01/31 15:47:08.9	100.210	-0.530	0.890	0.460
2020/01/31 15:47:09.0	100.190	-0.530	0.860	0.600
2020/01/31 15:47:09.1	100.180	-0.520	0.820	0.740
2020/01/31 15:47:09.2	100.170	-0.520	0.770	0.880
2020/01/31 15:47:09.3	100.150	-0.510	0.720	1.020
2020/01/31 15:47:09.4	100.140	-0.490	0.660	1.160
2020/01/31 15:47:09.5	100.120	-0.480	0.590	1.300
2020/01/31 15:47:09.6	100.110	-0.460	0.510	1.430
2020/01/31 15:47:09.7	100.100	-0.440	0.430	1.570
2020/01/31 15:47:09.8	100.080	-0.410	0.350	1.700
2020/01/31 15:47:09.9	100.070	-0.380	0.260	1.830
2020/01/31 15:47:10.0	100.060	-0.350	0.160	1.950
2020/01/31 15:47:10.1	100.050	-0.320	0.060	2.070
2020/01/31 15:47:10.2	100.040	-0.290	-0.040	2.190
2020/01/31 15:47:10.3	100.030	-0.250	-0.140	2.300
2020/01/31 15:47:10.4	100.020	-0.210	-0.240	2.410
2020/01/31 15:47:10.5	100.020	-0.170	-0.350	2.510
2020/01/31 15:47:10.6	100.010	-0.130	-0.450	2.610
2020/01/31 15:47:10.7	100.010	-0.090	-0.550	2.700
2020/01/31 15:47:10.8	100.010	-0.050	-0.660	2.780
2020/01/31 15:47:10.9	100.010	-0.010	-0.760	2.860
2020/01/31 15:47:11.0	100.020	0.040	-0.860	2.930
2020/01/31 15:47:11.1	100.020	0.080	-0.950	3.000
2020/01/31 15:47:11.2	100.030	0.120	-1.040	3.060
2020/01/31 15:47:11.3	100.040	0.170	-1.130	3.110
2020/01/31 15:47:11.4	100.050	0.210	-1.210	3.160
2020/01/31 15:47:11.5	100.070	0.250	-1.280	3.200
2020/01/31 15:47:11.6	100.080	0.290	-1.350	3.230
2020/01/31 15:47:11.7	100.090	0.330	-1.410	3.260
2020/01/31 15:47:11.8	100.110	0.370	-1.460	3.290
2020/01/31 15:47:11.9	100.130	0.410	-1.510	3.310
2020/01/31 15:47:12.0	100.150	0.440	-1.540	3.330
2020/01/31 15:47:12.1	100.170	0.480	-1.570	3.350
2020/01/31 15:47:12.2	100.190	0.510	-1.590	3.360
2020/01/31 15:47:12.3	100.210	0.540	-1.600	3.370
2020/01/31 15:47:12.4	100.240	0.570	-1.600	3.380
2020/01/31 15:47:12.5	100.260	0.590	-1.600	3.380
2020/01/31 15:47:12.6	100.280	0.620	-1.580	3.380
2020/01/31 15:47:12.7	100.310	0.640	-1.560	3.380
2020/01/31 15:47:12.8	100.330	0.660	-1.520	3.370
2020/01/31 15:47:12.9	100.350	0.670	-1.480	3.360
2020/01/31 15:47:13.0	100.380	0.680	-1.430	3.350
2020/01/31 15:47:13.1	100.400	0.690	-1.370	3.330
2020/01/31 15:47:13.2	100.430	0.700	-1.310	3.310
2020/01/31 15:47:13.3	100.450	0.700	-1.240	3.290
2020/01/31 15:47:13.4	100.470	0.700	-1.160	3.260
2020/01/31 15:47:13.5	100.500	0.700	-1.080	3.230
2020/01/31 15:47:13.6	100.520	0.690	-0.990	3.190
2020/01/31 15:47:13.7	100.550	0.690	-0.900	3.160
2020/01/31 15:47:13.8	100.570	0.670	-0.800	3.110
2020/01/31 15:47:13.9	100.590	0.660	-0.710	3.060
2020/01/31 15:47:14.0	100.610	0.640	-0.600	3.010
2020/01/31 15:47:14.1	100.630	0.620	-0.500	2.950
2020/01/31 15:47:14.2	100.650	0.600	-0.400	2.890
2020/01/31 15:47:14.3	100.670	0.570	-0.290	2.830
2020/01/31 15:47:14.4	100.690	0.540	-0.190	2.760
2020/01/31 15:47:14.5	100.700	0.510	-0.090	2.680
2020/01/31 15:47:14.6	100.710	0.470	0.020	2.600
2020/01/31 15:47:14.7	100.720	0.440	0.120	2.520
2020/01/31 15:47:14.8	100.730	0.400	0.220	2.440
2020/01/31 15:47:14.9	100.740	0.360	0.310	2.350
2020/01/31 15:47:15.0	100.750	0.320	0.400	2.250
2020/01/31 15:47:15.1	100.750	0.280	0.480	2.160
2020/01/31 15:47:15.2	100.760	0.230	0.560	2.060
2020/01/31 15:47:15.3	100.760	0.190	0.640	1.960
2020/01/31 15:47:15.4	100.760	0.140	0.710	1.860
2020/01/31 15:47:15.5	100.760	0.090	0.780	1.750
2020/01/31 15:47:15.6	100.760	0.040	0.840	1.650
2020/01/31 15:47:15.7	100.770	-0.010	0.890	1.550
2020/01/31 15:47:15.8	100.770	-0.060	0.940	1.440
2020/01/31 15:47:15.9	100.770	-0.100	0.990	1.340
2020/01/31 15:47:16.0	100.770	-0.150	1.020	1.230
2020/01/31 15:47:16.1	100.760	-0.200	1.050	1.130
2020/01/31 15:47:16.2	100.760	-0.250	1.080	1.030
2020/01/31 15:47:16.3	100.750	-0.300	1.100	0.930
2020/01/31 15:47:16.4	100.740	-0.340	1.110	0.830
2020/01/31 15:47:16.5	100.740	-0.390	1.120	0.740
2020/01/31 15:47:16.6	100.730	-0.430	1.120	0.640
2020/01/31 15:47:16.7	100.730	-0.470	1.110	0.560
2020/01/31 15:47:16.8	100.720	-0.510	1.100	0.470
2020/01/31 15:47:16.9	100.710	-0.550	1.080	0.390
2020/01/31 15:47:17.0	100.700	-0.590	1.060	0.310
2020/01/31 15:47:17.1	100.680	-0.620	1.030	0.230
2020/01/31 15:47:17.2	100.670	-0.650	1.000	0.160
2020/01/31 15:47:17.3	100.660	-0.680	0.960	0.090
2020/01/31 15:47:17.4	100.640	-0.710	0.920	0.020
2020/01/31 15:47:17.5	100.620	-0.730	0.870	-0.040
2020/01/31 15:47:17.6	100.610	-0.750	0.820	-0.100
2020/01/31 15:47:17.7	100.590	-0.760	0.760	-0.150
2020/01/31 15:47:17.8	100.580	-0.780	0.700	-0.210
2020/01/31 15:47:17.9	100.560	-0.790	0.630	-0.260
2020/01/31 15:47:18.0	100.540	-0.790	0.560	-0.310
2020/01/31 15:47:18.1	100.520	-0.790	0.490	-0.360
2020/01/31 15:47:18.2	100.500	-0.790	0.410	-0.410
2020/01/31 15:47:18.3	100.480	-0.790	0.330	-0.450
2020/01/31 15:47:18.4	100.470	-0.780	0.240	-0.490
2020/01/31 15:47:18.5	100.450	-0.770	0.160	-0.530
2020/01/31 15:47:18.6	100.430	-0.750	0.070	-0.580
2020/01/31 15:47:18.7	100.420	-0.730	-0.020	-0.620
2020/01/31 15:47:18.8	100.400	-0.710	-0.110	-0.660
2020/01/31 15:47:18.9	100.390	-0.680	-0.200	-0.700
2020/01/31 15:47:19.0	100.370	-0.650	-0.300	-0.730
2020/01/31 15:47:19.1	100.360	-0.620	-0.390	-0.770
2020/01/31 15:47:19.2	100.340	-0.580	-0.480	-0.810
2020/01/31 15:47:19.3	100.330	-0.540	-0.570	-0.850
2020/01/31 15:47:19.4	100.320	-0.500	-0.660	-0.890
2020/01/31 15:47:19.5	100.310	-0.460	-0.750	-0.930
2020/01/31 15:47:19.6	100.300	-0.410	-0.830	-0.970
2020/01/31 15:47:19.7	100.280	-0.360	-0.910	-1.000
2020/01/31 15:47:19.8	100.270	-0.310	-0.990	-1.030
2020/01/31 15:47:19.9	100.260	-0.260	-1.070	-1.070
2020/01/31 15:47:20.0	100.250	-0.210	-1.140	-1.100
2020/01/31 15:47:20.1	100.250	-0.160	-1.210	-1.130
2020/01/31 15:47:20.2	100.240	-0.100	-1.270	-1.160
2020/01/31 15:47:20.3	100.240	-0.050	-1.320	-1.190
2020/01/31 15:47:20.4	100.240	0.010	-1.370	-1.220
2020/01/31 15:47:20.5	100.230	0.060	-1.410	-1.240
2020/01/31 15:47:20.6	100.230	0.110	-1.450	-1.270
2020/01/31 15:47:20.7	100.240	0.160	-1.480	-1.290
2020/01/31 15:47:20.8	100.250	0.210	-1.500	-1.300
2020/01/31 15:47:20.9	100.250	0.260	-1.510	-1.320
2020/01/31 15:47:21.0	100.250	0.300	-1.520	-1.330
2020/01/31 15:47:21.1	100.260	0.350	-1.520	-1.330
2020/01/31 15:47:21.2	100.270	0.390	-1.510	-1.340
2020/01/31 15:47:21.3	100.270	0.420	-1.500	-1.330
2020/01/31 15:47:21.4	100.280	0.460	-1.480	-1.330
2020/01/31 15:47:21.5	100.290	0.490	-1.450	-1.320
2020/01/31 15:47:21.6	100.300	0.510	-1.410	-1.300
2020/01/31 15:47:21.7	100.310	0.540	-1.370	-1.270
2020/01/31 15:47:21.8	100.320	0.560	-1.320	-1.250
2020/01/31 15:47:21.9	100.330	0.570	-1.270	-1.220
2020/01/31 15:47:22.0	100.340	0.590	-1.210	-1.180
2020/01/31 15:47:22.1	100.340	0.590	-1.140	-1.140
2020/01/31 15:47:22.2	100.350	0.600	-1.070	-1.090
2020/01/31 15:47:22.3	100.360	0.600	-1.000	-1.040
2020/01/31 15:47:22.4	100.370	0.600	-0.920	-0.990
2020/01/31 15:47:22.5	100.380	0.600	-0.840	-0.920
2020/01/31 15:47:22.6	100.380	0.590	-0.760	-0.860
2020/01/31 15:47:22.7	100.380	0.580	-0.670	-0.780
2020/01/31 15:47:22.8	100.390	0.570	-0.580	-0.710
2020/01/31 15:47:22.9	100.390	0.550	-0.490	-0.630
2020/01/31 15:47:23.0	100.390	0.540	-0.400	-0.550
2020/01/31 15:47:23.1	100.390	0.520	-0.310	-0.460
2020/01/31 15:47:23.2	100.400	0.500	-0.220	-0.370
2020/01/31 15:47:23.3	100.400	0.470	-0.130	-0.270
2020/01/31 15:47:23.4	100.400	0.450	-0.050	-0.180
2020/01/31 15:47:23.5	100.400	0.430	0.040	-0.080
2020/01/31 15:47:23.6	100.400	0.400	0.120	0.020
2020/01/31 15:47:23.7	100.390	0.370	0.210	0.130
2020/01/31 15:47:23.8	100.390	0.340	0.280	0.230
2020/01/31 15:47:23.9	100.390	0.310	0.360	0.340
2020/01/31 15:47:24.0	100.390	0.290	0.430	0.450
2020/01/31 15:47:24.1	100.390	0.260	0.500	0.550
2020/01/31 15:47:24.2	100.390	0.230	0.570	0.660
2020/01/31 15:47:24.3	100.390	0.200	0.630	0.760
2020/01/31 15:47:24.4	100.400	0.170	0.680	0.870
2020/01/31 15:47:24.5	100.400	0.140	0.730	0.970
2020/01/31 15:47:24.6	100.410	0.110	0.780	1.070
2020/01/31 15:47:24.7	100.410	0.080	0.820	1.180
2020/01/31 15:47:24.8	100.420	0.060	0.850	1.280
2020/01/31 15:47:24.9	100.430	0.030	0.880	1.370
2020/01/31 15:47:25.0	100.430	0.010	0.900	1.470
2020/01/31 15:47:25.1	100.440	-0.010	0.920	1.560
2020/01/31 15:47:25.2	100.440	-0.040	0.920	1.660
2020/01/31 15:47:25.3	100.450	-0.060	0.920	1.750
2020/01/31 15:47:25.4	100.450	-0.070	0.920	1.840
2020/01/31 15:47:25.5	100.450	-0.090	0.910	1.920
2020/01/31 15:47:25.6	100.450	-0.110	0.890	2.010
2020/01/31 15:47:25.7	100.460	-0.120	0.870	2.090
2020/01/31 15:47:25.8	100.450	-0.130	0.840	2.180
2020/01/31 15:47:25.9	100.450	-0.140	0.810	2.260
2020/01/31 15:47:26.0	100.440	-0.150	0.770	2.330
2020/01/31 15:47:26.1	100.440	-0.160	0.720	2.410
2020/01/31 15:47:26.2	100.430	-0.160	0.680	2.480
2020/01/31 15:47:26.3	100.420	-0.160	0.620	2.550
2020/01/31 15:47:26.4	100.410	-0.160	0.570	2.620
2020/01/31 15:47:26.5	100.400	-0.160	0.510	2.680
2020/01/31 15:47:26.6	100.380	-0.160	0.450	2.750
2020/01/31 15:47:26.7	100.360	-0.160	0.380	2.810
2020/01/31 15:47:26.8	100.340	-0.150	0.310	2.870
2020/01/31 15:47:26.9	100.330	-0.140	0.250	2.920
2020/01/31 15:47:27.0	100.310	-0.130	0.180	2.960
2020/01/31 15:47:27.1	100.290	-0.120	0.100	3.000
2020/01/31 15:47:27.2	100.270	-0.110	0.030	3.040
2020/01/31 15:47:27.3	100.260	-0.100	-0.040	3.080
2020/01/31 15:47:27.4	100.240	-0.090	-0.110	3.110
2020/01/31 15:47:27.5	100.220	-0.070	-0.180	3.130
2020/01/31 15:47:27.6	100.200	-0.060	-0.250	3.150
2020/01/31 15:47:27.7	100.160	-0.040	-0.320	3.160
2020/01/31 15:47:27.8	100.150	-0.030	-0.390	3.170
2020/01/31 15:47:27.9	100.130	-0.010	-0.460	3.170
2020/01/31 15:47:28.0	100.110	0.000	-0.520	3.170
2020/01/31 15:47:28.1	100.090	0.020	-0.580	3.160
2020/01/31 15:47:28.2	100.080	0.040	-0.640	3.150
2020/01/31 15:47:28.3	100.060	0.050	-0.690	3.130
2020/01/31 15:47:28.4	100.050	0.060	-0.740	3.100
2020/01/31 15:47:28.5	100.030	0.080	-0.790	3.070
2020/01/31 15:47:28.6	100.020	0.090	-0.830	3.040
2020/01/31 15:47:28.7	100.000	0.100	-0.870	3.000
2020/01/31 15:47:28.8	99.990	0.110	-0.890	2.950
2020/01/31 15:47:28.9	99.980	0.110	-0.920	2.900
2020/01/31 15:47:29.0	99.970	0.120	-0.930	2.850
2020/01/31 15:47:29.1	99.960	0.120	-0.940	2.790
2020/01/31 15:47:29.2	99.950	0.120	-0.950	2.720
2020/01/31 15:47:29.3	99.940	0.120	-0.940	2.650
2020/01/31 15:47:29.4	99.940	0.110	-0.930	2.580
2020/01/31 15:47:29.5	99.930	0.100	-0.910	2.500
2020/01/31 15:47:29.6	99.930	0.090	-0.890	2.420
2020/01/31 15:47:29.7	99.930	0.080	-0.850	2.340
2020/01/31 15:47:29.8	99.920	0.060	-0.810	2.250
2020/01/31 15:47:29.9	99.920	0.050	-0.770	2.160
2020/01/31 15:47:30.0	99.920	0.030	-0.710	2.060
2020/01/31 15:47:30.1	99.920	0.000	-0.660	1.960
2020/01/31 15:47:30.2	99.920	-0.020	-0.600	1.860
2020/01/31 15:47:30.3	99.920	-0.050	-0.530	1.760
2020/01/31 15:47:30.4	99.920	-0.080	-0.470	1.650
2020/01/31 15:47:30.5	99.920	-0.110	-0.400	1.540
2020/01/31 15:47:30.6	99.920	-0.140	-0.330	1.430
2020/01/31 15:47:30.7	99.930	-0.170	-0.250	1.310
2020/01/31 15:47:30.8	99.930	-0.200	-0.180	1.200
2020/01/31 15:47:30.9	99.940	-0.230	-0.110	1.080
2020/01/31 15:47:31.0	99.950	-0.260	-0.040	0.960
2020/01/31 15:47:31.1	99.950	-0.290	0.020	0.840
2020/01/31 15:47:31.2	99.960	-0.320	0.090	0.710
2020/01/31 15:47:31.3	99.980	-0.350	0.150	0.590
2020/01/31 15:47:31.4	99.990	-0.370	0.200	0.460
2020/01/31 15:47:31.5	100.010	-0.390	0.250	0.330
2020/01/31 15:47:31.6	100.030	-0.410	0.290	0.200
2020/01/31 15:47:31.7	100.040	-0.430	0.330	0.070
2020/01/31 15:47:31.8	100.070	-0.440	0.350	-0.060
2020/01/31 15:47:31.9	100.090	-0.450	0.370	-0.190
2020/01/31 15:47:32.0	100.120	-0.450	0.390	-0.330
2020/01/31 15:47:32.1	100.150	-0.450	0.390	-0.460
2020/01/31 15:47:32.2	100.190	-0.440	0.390	-0.600
2020/01/31 15:47:32.3	100.220	-0.440	0.380	-0.730
2020/01/31 15:47:32.4	100.260	-0.420	0.360	-0.860
2020/01/31 15:47:32.5	100.300	-0.410	0.330	-0.990
2020/01/31 15:47:32.6	100.340	-0.380	0.300	-1.120
2020/01/31 15:47:32.7	100.390	-0.360	0.260	-1.240
2020/01/31 15:47:32.8	100.430	-0.330	0.220	-1.360
2020/01/31 15:47:32.9	100.470	-0.300	0.170	-1.480
2020/01/31 15:47:33.0	100.510	-0.260	0.110	-1.590
2020/01/31 15:47:33.1	100.550	-0.230	0.050	-1.690
2020/01/31 15:47:33.2	100.590	-0.190	-0.010	-1.790
2020/01/31 15:47:33.3	100.630	-0.150	-0.070	-1.880
2020/01/31 15:47:33.4	100.660	-0.100	-0.140	-1.960
2020/01/31 15:47:33.5	100.700	-0.060	-0.210	-2.030
2020/01/31 15:47:33.6	100.730	-0.010	-0.270	-2.100
2020/01/31 15:47:33.7	100.770	0.030	-0.340	-2.160
2020/01/31 15:47:33.8	100.800	0.080	-0.400	-2.210
2020/01/31 15:47:33.9	100.810	0.120	-0.470	-2.250
2020/01/31 15:47:34.0	100.830	0.160	-0.530	-2.280
2020/01/31 15:47:34.1	100.840	0.210	-0.580	-2.310
2020/01/31 15:47:34.2	100.840	0.240	-0.630	-2.320
2020/01/31 15:47:34.3	100.840	0.280	-0.680	-2.330
2020/01/31 15:47:34.4	100.840	0.310	-0.720	-2.330
2020/01/31 15:47:34.5	100.830	0.340	-0.760	-2.310
2020/01/31 15:47:34.6	100.820	0.370	-0.790	-2.300
2020/01/31 15:47:34.7	100.810	0.400	-0.810	-2.260
2020/01/31 15:47:34.8	100.790	0.410	-0.820	-2.230
2020/01/31 15:47:34.9	100.760	0.430	-0.830	-2.190
2020/01/31 15:47:35.0	100.730	0.440	-0.840	-2.140
2020/01/31 15:47:35.1	100.700	0.450	-0.830	-2.080
2020/01/31 15:47:35.2	100.660	0.450	-0.820	-2.020
2020/01/31 15:47:35.3	100.620	0.450	-0.810	-1.950
2020/01/31 15:47:35.4	100.580	0.440	-0.780	-1.870
2020/01/31 15:47:35.5	100.530	0.430	-0.760	-1.790
2020/01/31 15:47:35.6	100.480	0.420	-0.720	-1.700
2020/01/31 15:47:35.7	100.450	0.400	-0.680	-1.610
2020/01/31 15:47:35.8	100.390	0.380	-0.630	-1.510
2020/01/31 15:47:35.9	100.340	0.360	-0.580	-1.410
2020/01/31 15:47:36.0	100.290	0.330	-0.530	-1.310
2020/01/31 15:47:36.1	100.230	0.300	-0.470	-1.200
2020/01/31 15:47:36.2	100.180	0.270	-0.420	-1.090
2020/01/31 15:47:36.3	100.120	0.230	-0.360	-0.980
2020/01/31 15:47:36.4	100.070	0.200	-0.290	-0.870
2020/01/31 15:47:36.5	100.010	0.160	-0.230	-0.760
2020/01/31 15:47:36.6	99.960	0.120	-0.170	-0.640
2020/01/31 15:47:36.7	99.900	0.080	-0.100	-0.520
2020/01/31 15:47:36.8	99.860	0.040	-0.040	-0.400
2020/01/31 15:47:36.9	99.810	0.000	0.020	-0.290
2020/01/31 15:47:37.0	99.770	-0.040	0.080	-0.180
2020/01/31 15:47:37.1	99.730	-0.070	0.130	-0.070
2020/01/31 15:47:37.2	99.690	-0.110	0.180	0.040
2020/01/31 15:47:37.3	99.660	-0.140	0.230	0.150
2020/01/31 15:47:37.4	99.630	-0.180	0.280	0.260
2020/01/31 15:47:37.5	99.600	-0.210	0.320	0.360
2020/01/31 15:47:37.6	99.580	-0.230	0.350	0.460
2020/01/31 15:47:37.7	99.570	-0.260	0.380	0.560
2020/01/31 15:47:37.8	99.550	-0.280	0.400	0.660
2020/01/31 15:47:37.9	99.540	-0.300	0.420	0.750
2020/01/31 15:47:38.0	99.530	-0.320	0.440	0.840
2020/01/31 15:47:38.1	99.520	-0.330	0.440	0.930
2020/01/31 15:47:38.2	99.520	-0.340	0.450	1.010
2020/01/31 15:47:38.3	99.520	-0.340	0.440	1.090
2020/01/31 15:47:38.4	99.530	-0.350	0.440	1.170
2020/01/31 15:47:38.5	99.540	-0.350	0.420	1.240
2020/01/31 15:47:38.6	99.550	-0.340	0.400	1.310
2020/01/31 15:47:38.7	99.540	-0.340	0.380	1.380
2020/01/31 15:47:38.8	99.560	-0.320	0.350	1.450
2020/01/31 15:47:38.9	99.580	-0.310	0.320	1.510
2020/01/31 15:47:39.0	99.600	-0.300	0.280	1.560
2020/01/31 15:47:39.1	99.620	-0.280	0.240	1.620
2020/01/31 15:47:39.2	99.650	-0.250	0.200	1.670
2020/01/31 15:47:39.3	99.680	-0.230	0.150	1.710
2020/01/31 15:47:39.4	99.710	-0.210	0.100	1.750
2020/01/31 15:47:39.5	99.740	-0.180	0.050	1.790
2020/01/31 15:47:39.6	99.770	-0.150	-0.000	1.830
2020/01/31 15:47:39.7	99.800	-0.120	-0.050	1.860
2020/01/31 15:47:39.8	99.830	-0.090	-0.110	1.890
2020/01/31 15:47:39.9	99.870	-0.050	-0.160	1.920
2020/01/31 15:47:40.0	99.900	-0.020	-0.220	1.940
2020/01/31 15:47:40.1	99.940	0.010	-0.270	1.970
2020/01/31 15:47:40.2	99.970	0.040	-0.320	1.990
2020/01/31 15:47:40.3	100.010	0.070	-0.370	2.000
2020/01/31 15:47:40.4	100.040	0.110	-0.420	2.020
2020/01/31 15:47:40.5	100.070	0.140	-0.470	2.040
2020/01/31 15:47:40.6	100.110	0.160	-0.510	2.050
2020/01/31 15:47:40.7	100.150	0.190	-0.550	2.060
2020/01/31 15:47:40.8	100.180	0.220	-0.590	2.080
2020/01/31 15:47:40.9	100.210	0.240	-0.620	2.090
2020/01/31 15:47:41.0	100.240	0.260	-0.650	2.100
2020/01/31 15:47:41.1	100.260	0.280	-0.670	2.100
2020/01/31 15:47:41.2	100.290	0.300	-0.690	2.110
2020/01/31 15:47:41.3	100.310	0.310	-0.710	2.120
2020/01/31 15:47:41.4	100.330	0.320	-0.720	2.130
2020/01/31 15:47:41.5	100.340	0.330	-0.730	2.140
2020/01/31 15:47:41.6	100.360	0.340	-0.730	2.150
2020/01/31 15:47:41.7	100.360	0.340	-0.730	2.160
2020/01/31 15:47:41.8	100.370	0.340	-0.730	2.170
2020/01/31 15:47:41.9	100.370	0.340	-0.720	2.180
2020/01/31 15:47:42.0	100.380	0.340	-0.710	2.190
2020/01/31 15:47:42.1	100.380	0.340	-0.690	2.210
2020/01/31 15:47:42.2	100.370	0.330	-0.680	2.220
2020/01/31 15:47:42.3	100.360	0.320	-0.660	2.230
2020/01/31 15:47:42.4	100.360	0.310	-0.640	2.250
2020/01/31 15:47:42.5	100.340	0.300	-0.610	2.260
2020/01/31 15:47:42.6	100.330	0.290	-0.580	2.280
2020/01/31 15:47:42.7	100.320	0.280	-0.560	2.290
2020/01/31 15:47:42.8	100.300	0.260	-0.530	2.310
2020/01/31 15:47:42.9	100.270	0.250	-0.490	2.320
2020/01/31 15:47:43.0	100.250	0.240	-0.460	2.340
2020/01/31 15:47:43.1	100.220	0.220	-0.430	2.350
2020/01/31 15:47:43.2	100.190	0.210	-0.390	2.360
2020/01/31 15:47:43.3	100.160	0.190	-0.360	2.370
2020/01/31 15:47:43.4	100.130	0.180	-0.320	2.380
2020/01/31 15:47:43.5	100.100	0.160	-0.280	2.380
2020/01/31 15:47:43.6	100.070	0.150	-0.240	2.390
2020/01/31 15:47:43.7	100.030	0.130	-0.200	2.380
2020/01/31 15:47:43.8	100.000	0.120	-0.150	2.380
2020/01/31 15:47:43.9	99.960	0.100	-0.110	2.380
2020/01/31 15:47:44.0	99.940	0.090	-0.070	2.370
2020/01/31 15:47:44.1	99.910	0.070	-0.020	2.350
2020/01/31 15:47:44.2	99.880	0.050	0.020	2.340
2020/01/31 15:47:44.3	99.850	0.040	0.070	2.320
2020/01/31 15:47:44.4	99.830	0.020	0.110	2.290
2020/01/31 15:47:44.5	99.800	0.010	0.150	2.260
2020/01/31 15:47:44.6	99.780	-0.010	0.200	2.230
2020/01/31 15:47:44.7	99.760	-0.030	0.240	2.190
2020/01/31 15:47:44.8	99.750	-0.040	0.290	2.150
2020/01/31 15:47:44.9	99.730	-0.060	0.330	2.100
2020/01/31 15:47:45.0	99.720	-0.080	0.370	2.050
2020/01/31 15:47:45.1	99.710	-0.100	0.400	1.990
2020/01/31 15:47:45.2	99.700	-0.110	0.440	1.930
2020/01/31 15:47:45.3	99.690	-0.130	0.470	1.870
2020/01/31 15:47:45.4	99.680	-0.150	0.500	1.790
2020/01/31 15:47:45.5	99.680	-0.170	0.530	1.720
2020/01/31 15:47:45.6	99.680	-0.190	0.550	1.640
2020/01/31 15:47:45.7	99.680	-0.200	0.570	1.560
2020/01/31 15:47:45.8	99.680	-0.220	0.590	1.470
2020/01/31 15:47:45.9	99.680	-0.240	0.600	1.380
2020/01/31 15:47:46.0	99.680	-0.260	0.600	1.280
2020/01/31 15:47:46.1	99.690	-0.270	0.610	1.190
2020/01/31 15:47:46.2	99.690	-0.290	0.600	1.090
2020/01/31 15:47:46.3	99.690	-0.300	0.600	0.990
2020/01/31 15:47:46.4	99.700	-0.320	0.590	0.890
2020/01/31 15:47:46.5	99.700	-0.330	0.570	0.790
2020/01/31 15:47:46.6	99.700	-0.340	0.550	0.690
2020/01/31 15:47:46.7	99.690	-0.350	0.520	0.580
2020/01/31 15:47:46.8	99.690	-0.350	0.490	0.480
2020/01/31 15:47:46.9	99.690	-0.360	0.460	0.380
2020/01/31 15:47:47.0	99.690	-0.360	0.420	0.280
2020/01/31 15:47:47.1	99.690	-0.360	0.380	0.190
2020/01/31 15:47:47.2	99.690	-0.360	0.330	0.090
2020/01/31 15:47:47.3	99.680	-0.360	0.280	-0.000
2020/01/31 15:47:47.4	99.680	-0.350	0.230	-0.100
2020/01/31 15:47:47.5	99.670	-0.340	0.180	-0.190
2020/01/31 15:47:47.6	99.660	-0.330	0.120	-0.270
2020/01/31 15:47:47.7	99.660	-0.320	0.060	-0.350
2020/01/31 15:47:47.8	99.650	-0.310	-0.010	-0.440
2020/01/31 15:47:47.9	99.640	-0.290	-0.070	-0.520
2020/01/31 15:47:48.0	99.630	-0.270	-0.140	-0.590
2020/01/31 15:47:48.1	99.620	-0.250	-0.210	-0.660
2020/01/31 15:47:48.2	99.600	-0.230	-0.270	-0.730
2020/01/31 15:47:48.3	99.590	-0.200	-0.340	-0.800
2020/01/31 15:47:48.4	99.570	-0.180	-0.410	-0.860
2020/01/31 15:47:48.5	99.560	-0.150	-0.480	-0.920
2020/01/31 15:47:48.6	99.540	-0.130	-0.540	-0.970
2020/01/31 15:47:48.7	99.540	-0.100	-0.610	-1.020
2020/01/31 15:47:48.8	99.520	-0.070	-0.680	-1.070
2020/01/31 15:47:48.9	99.500	-0.040	-0.740	-1.110
2020/01/31 15:47:49.0	99.490	-0.010	-0.790	-1.140
2020/01/31 15:47:49.1	99.470	0.020	-0.850	-1.180
2020/01/31 15:47:49.2	99.450	0.040	-0.900	-1.210
2020/01/31 15:47:49.3	99.430	0.070	-0.940	-1.230
2020/01/31 15:47:49.4	99.410	0.100	-0.980	-1.250
2020/01/31 15:47:49.5	99.390	0.120	-1.020	-1.270
2020/01/31 15:47:49.6	99.370	0.150	-1.050	-1.280
2020/01/31 15:47:49.7	99.370	0.170	-1.070	-1.290
2020/01/31 15:47:49.8	99.350	0.190	-1.090	-1.290
2020/01/31 15:47:49.9	99.330	0.210	-1.110	-1.290
2020/01/31 15:47:50.0	99.310	0.230	-1.120	-1.290
2020/01/31 15:47:50.1	99.290	0.240	-1.120	-1.280
2020/01/31 15:47:50.2	99.270	0.260	-1.120	-1.270
2020/01/31 15:47:50.3	99.250	0.270	-1.110	-1.260
2020/01/31 15:47:50.4	99.230	0.280	-1.100	-1.240
2020/01/31 15:47:50.5	99.210	0.290	-1.080	-1.220
2020/01/31 15:47:50.6	99.190	0.290	-1.060	-1.200
2020/01/31 15:47:50.7	99.180	0.300	-1.030	-1.170
2020/01/31 15:47:50.8	99.170	0.310	-0.990	-1.140
2020/01/31 15:47:50.9	99.150	0.310	-0.960	-1.100
2020/01/31 15:47:51.0	99.140	0.310	-0.920	-1.070
2020/01/31 15:47:51.1	99.130	0.310	-0.870	-1.030
2020/01/31 15:47:51.2	99.110	0.310	-0.830	-0.990
2020/01/31 15:47:51.3	99.100	0.310	-0.780	-0.940
2020/01/31 15:47:51.4	99.090	0.310	-0.730	-0.890
2020/01/31 15:47:51.5	99.090	0.310	-0.670	-0.840
2020/01/31 15:47:51.6	99.080	0.310	-0.620	-0.790
2020/01/31 15:47:51.7	99.070	0.310	-0.560	-0.720
2020/01/31 15:47:51.8	99.070	0.300	-0.500	-0.660
2020/01/31 15:47:51.9	99.060	0.300	-0.450	-0.600
2020/01/31 15:47:52.0	99.060	0.300	-0.390	-0.540
2020/01/31 15:47:52.1	99.060	0.290	-0.340	-0.470
2020/01/31 15:47:52.2	99.060	0.290	-0.290	-0.400
2020/01/31 15:47:52.3	99.060	0.280	-0.230	-0.330
2020/01/31 15:47:52.4	99.060	0.280	-0.180	-0.250
2020/01/31 15:47:52.5	99.060	0.270	-0.130	-0.180
2020/01/31 15:47:52.6	99.060	0.270	-0.080	-0.100
2020/01/31 15:47:52.7	99.050	0.260	-0.040	-0.020
2020/01/31 15:47:52.8	99.050	0.260	0.010	0.060
2020/01/31 15:47:52.9	99.050	0.250	0.050	0.150
2020/01/31 15:47:53.0	99.050	0.240	0.090	0.230
2020/01/31 15:47:53.1	99.050	0.230	0.120	0.310
2020/01/31 15:47:53.2	99.050	0.220	0.160	0.400
2020/01/31 15:47:53.3	99.040	0.210	0.190	0.480
2020/01/31 15:47:53.4	99.040	0.200	0.220	0.560
2020/01/31 15:47:53.5	99.040	0.190	0.250	0.650
2020/01/31 15:47:53.6	99.030	0.170	0.270	0.730
2020/01/31 15:47:53.7	99.020	0.160	0.290	0.820
2020/01/31 15:47:53.8	99.020	0.140	0.310	0.900
2020/01/31 15:47:53.9	99.010	0.120	0.330	0.980
2020/01/31 15:47:54.0	99.000	0.110	0.350	1.060
2020/01/31 15:47:54.1	99.000	0.090	0.360	1.130
2020/01/31 15:47:54.2	98.990	0.070	0.370	1.210
2020/01/31 15:47:54.3	98.980	0.050	0.380	1.280
2020/01/31 15:47:54.4	98.970	0.030	0.390	1.360
2020/01/31 15:47:54.5	98.960	0.010	0.400	1.430
2020/01/31 15:47:54.6	98.940	-0.010	0.400	1.500
2020/01/31 15:47:54.7	98.930	-0.030	0.410	1.570
2020/01/31 15:47:54.8	98.920	-0.050	0.410	1.630
2020/01/31 15:47:54.9	98.900	-0.080	0.400	1.690
2020/01/31 15:47:55.0	98.890	-0.100	0.400	1.760
2020/01/31 15:47:55.1	98.870	-0.120	0.390	1.820
2020/01/31 15:47:55.2	98.860	-0.140	0.380	1.870
2020/01/31 15:47:55.3	98.840	-0.160	0.370	1.930
2020/01/31 15:47:55.4	98.820	-0.180	0.350	1.980
2020/01/31 15:47:55.5	98.800	-0.200	0.340	2.040
2020/01/31 15:47:55.6	98.790	-0.220	0.320	2.090
2020/01/31 15:47:55.7	98.770	-0.240	0.290	2.140
2020/01/31 15:47:55.8	98.750	-0.260	0.270	2.190
2020/01/31 15:47:55.9	98.730	-0.270	0.240	2.240
2020/01/31 15:47:56.0	98.710	-0.290	0.210	2.280
2020/01/31 15:47:56.1	98.690	-0.300	0.180	2.320
2020/01/31 15:47:56.2	98.670	-0.310	0.150	2.360
2020/01/31 15:47:56.3	98.650	-0.330	0.110	2.400
2020/01/31 15:47:56.4	98.630	-0.340	0.080	2.430
2020/01/31 15:47:56.5	98.620	-0.350	0.040	2.470
2020/01/31 15:47:56.6	98.600	-0.350	0.010	2.500
2020/01/31 15:47:56.7	98.580	-0.360	-0.030	2.530
2020/01/31 15:47:56.8	98.560	-0.370	-0.070	2.550
2020/01/31 15:47:56.9	98.550	-0.370	-0.100	2.570
2020/01/31 15:47:57.0	98.540	-0.370	-0.130	2.580
2020/01/31 15:47:57.1	98.530	-0.380	-0.170	2.590
2020/01/31 15:47:57.2	98.520	-0.380	-0.200	2.590
2020/01/31 15:47:57.3	98.520	-0.380	-0.230	2.590
2020/01/31 15:47:57.4	98.510	-0.380	-0.250	2.580
2020/01/31 15:47:57.5	98.510	-0.380	-0.280	2.570
2020/01/31 15:47:57.6	98.510	-0.380	-0.300	2.560
2020/01/31 15:47:57.7	98.510	-0.370	-0.320	2.530
2020/01/31 15:47:57.8	98.520	-0.370	-0.330	2.510
2020/01/31 15:47:57.9	98.530	-0.360	-0.350	2.470
2020/01/31 15:47:58.0	98.540	-0.360	-0.360	2.440
2020/01/31 15:47:58.1	98.550	-0.350	-0.360	2.390
2020/01/31 15:47:58.2	98.560	-0.340	-0.370	2.340
2020/01/31 15:47:58.3	98.580	-0.330	-0.370	2.290
2020/01/31 15:47:58.4	98.600	-0.320	-0.360	2.230
2020/01/31 15:47:58.5	98.620	-0.310	-0.360	2.170
2020/01/31 15:47:58.6	98.630	-0.300	-0.350	2.100
2020/01/31 15:47:58.7	98.650	-0.290	-0.340	2.030
2020/01/31 15:47:58.8	98.670	-0.280	-0.330	1.950
2020/01/31 15:47:58.9	98.690	-0.260	-0.320	1.870
2020/01/31 15:47:59.0	98.710	-0.250	-0.300	1.780
2020/01/31 15:47:59.1	98.730	-0.230	-0.290	1.700
2020/01/31 15:47:59.2	98.750	-0.220	-0.270	1.610
2020/01/31 15:47:59.3	98.770	-0.200	-0.250	1.510
2020/01/31 15:47:59.4	98.790	-0.180	-0.240	1.420
2020/01/31 15:47:59.5	98.810	-0.160	-0.220	1.330
2020/01/31 15:47:59.6	98.820	-0.140	-0.200	1.230
2020/01/31 15:47:59.7	98.840	-0.120	-0.190	1.130
2020/01/31 15:47:59.8	98.850	-0.090	-0.170	1.040
2020/01/31 15:47:59.9	98.870	-0.070	-0.160	0.940
2020/01/31 15:48:00.0	98.880	-0.040	-0.150	0.840
2020/01/31 15:48:00.1	98.890	-0.010	-0.140	0.750
2020/01/31 15:48:00.2	98.900	0.010	-0.130	0.660
2020/01/31 15:48:00.3	98.910	0.040	-0.130	0.560
2020/01/31 15:48:00.4	98.920	0.070	-0.130	0.470
2020/01/31 15:48:00.5	98.930	0.100	-0.130	0.380
2020/01/31 15:48:00.6	98.940	0.130	-0.130	0.290
2020/01/31 15:48:00.7	98.940	0.160	-0.130	0.210
2020/01/31 15:48:00.8	98.950	0.190	-0.140	0.130
2020/01/31 15:48:00.9	98.960	0.220	-0.150	0.050
2020/01/31 15:48:01.0	98.960	0.250	-0.160	-0.030
2020/01/31 15:48:01.1	98.970	0.290	-0.170	-0.110
2020/01/31 15:48:01.2	98.970	0.320	-0.190	-0.190
2020/01/31 15:48:01.3	98.980	0.350	-0.210	-0.260
2020/01/31 15:48:01.4	98.980	0.370	-0.230	-0.330
2020/01/31 15:48:01.5	98.980	0.400	-0.250	-0.390
2020/01/31 15:48:01.6	98.990	0.430	-0.270	-0.460
2020/01/31 15:48:01.7	98.990	0.450	-0.300	-0.520
2020/01/31 15:48:01.8	98.990	0.470	-0.320	-0.580
2020/01/31 15:48:01.9	98.990	0.490	-0.340	-0.630
2020/01/31 15:48:02.0	98.990	0.510	-0.370	-0.680
2020/01/31 15:48:02.1	98.980	0.520	-0.390	-0.730
2020/01/31 15:48:02.2	98.980	0.530	-0.410	-0.770
2020/01/31 15:48:02.3	98.970	0.540	-0.440	-0.810
2020/01/31 15:48:02.4	98.970	0.550	-0.460	-0.850
2020/01/31 15:48:02.5	98.960	0.550	-0.470	-0.880
2020/01/31 15:48:02.6	98.940	0.550	-0.490	-0.910
2020/01/31 15:48:02.7	98.930	0.540	-0.500	-0.930
2020/01/31 15:48:02.8	98.920	0.530	-0.510	-0.950
2020/01/31 15:48:02.9	98.900	0.520	-0.510	-0.970
2020/01/31 15:48:03.0	98.890	0.510	-0.520	-0.980
2020/01/31 15:48:03.1	98.870	0.490	-0.510	-0.990
2020/01/31 15:48:03.2	98.860	0.460	-0.510	-1.000
2020/01/31 15:48:03.3	98.840	0.440	-0.500	-1.000
2020/01/31 15:48:03.4	98.820	0.410	-0.480	-1.000
2020/01/31 15:48:03.5	98.800	0.380	-0.460	-0.990
2020/01/31 15:48:03.6	98.780	0.340	-0.440	-0.980
2020/01/31 15:48:03.7	98.760	0.310	-0.410	-0.970
2020/01/31 15:48:03.8	98.740	0.270	-0.380	-0.950
2020/01/31 15:48:03.9	98.720	0.230	-0.350	-0.930
2020/01/31 15:48:04.0	98.700	0.190	-0.320	-0.900
2020/01/31 15:48:04.1	98.680	0.140	-0.280	-0.870
2020/01/31 15:48:04.2	98.660	0.100	-0.240	-0.840
2020/01/31 15:48:04.3	98.640	0.050	-0.210	-0.800
2020/01/31 15:48:04.4	98.630	0.010	-0.170	-0.770
2020/01/31 15:48:04.5	98.610	-0.040	-0.130	-0.730
2020/01/31 15:48:04.6	98.590	-0.080	-0.090	-0.690
2020/01/31 15:48:04.7	98.580	-0.120	-0.060	-0.630
2020/01/31 15:48:04.8	98.560	-0.160	-0.020	-0.590
2020/01/31 15:48:04.9	98.550	-0.200	0.020	-0.540
2020/01/31 15:48:05.0	98.540	-0.240	0.050	-0.500
2020/01/31 15:48:05.1	98.520	-0.280	0.080	-0.450
2020/01/31 15:48:05.2	98.510	-0.310	0.100	-0.400
2020/01/31 15:48:05.3	98.500	-0.340	0.130	-0.350
2020/01/31 15:48:05.4	98.490	-0.370	0.150	-0.300
2020/01/31 15:48:05.5	98.490	-0.390	0.160	-0.250
2020/01/31 15:48:05.6	98.490	-0.410	0.170	-0.210
2020/01/31 15:48:05.7	98.480	-0.430	0.190	-0.150
2020/01/31 15:48:05.8	98.480	-0.440	0.190	-0.110
2020/01/31 15:48:05.9	98.480	-0.450	0.190	-0.060
2020/01/31 15:48:06.0	98.490	-0.460	0.180	-0.020
2020/01/31 15:48:06.1	98.500	-0.460	0.170	0.030
2020/01/31 15:48:06.2	98.510	-0.450	0.160	0.070
2020/01/31 15:48:06.3	98.530	-0.440	0.140	0.120
2020/01/31 15:48:06.4	98.550	-0.430	0.120	0.160
2020/01/31 15:48:06.5	98.570	-0.410	0.100	0.200
2020/01/31 15:48:06.6	98.590	-0.400	0.070	0.250
2020/01/31 15:48:06.7	98.620	-0.370	0.040	0.300
2020/01/31 15:48:06.8	98.650	-0.350	0.000	0.340
2020/01/31 15:48:06.9	98.680	-0.320	-0.030	0.390
2020/01/31 15:48:07.0	98.720	-0.290	-0.070	0.430
2020/01/31 15:48:07.1	98.750	-0.250	-0.110	0.480
2020/01/31 15:48:07.2	98.780	-0.220	-0.150	0.530
2020/01/31 15:48:07.3	98.820	-0.180	-0.200	0.580
2020/01/31 15:48:07.4	98.850	-0.140	-0.240	0.630
2020/01/31 15:48:07.5	98.890	-0.110	-0.280	0.690
2020/01/31 15:48:07.6	98.920	-0.070	-0.320	0.740
2020/01/31 15:48:07.7	98.960	-0.030	-0.360	0.800
2020/01/31 15:48:07.8	98.990	0.010	-0.400	0.860
2020/01/31 15:48:07.9	99.020	0.050	-0.440	0.920
2020/01/31 15:48:08.0	99.050	0.080	-0.480	0.980
2020/01/31 15:48:08.1	99.070	0.120	-0.510	1.040
2020/01/31 15:48:08.2	99.100	0.150	-0.540	1.100
2020/01/31 15:48:08.3	99.120	0.190	-0.570	1.170
2020/01/31 15:48:08.4	99.140	0.210	-0.590	1.230
2020/01/31 15:48:08.5	99.150	0.240	-0.610	1.290
2020/01/31 15:48:08.6	99.170	0.270	-0.630	1.350
2020/01/31 15:48:08.7	99.180	0.290	-0.630	1.420
2020/01/31 15:48:08.8	99.190	0.310	-0.640	1.480
2020/01/31 15:48:08.9	99.200	0.330	-0.640	1.540
2020/01/31 15:48:09.0	99.200	0.340	-0.640	1.600
2020/01/31 15:48:09.1	99.200	0.350	-0.640	1.660
2020/01/31 15:48:09.2	99.200	0.360	-0.630	1.720
2020/01/31 15:48:09.3	99.200	0.360	-0.610	1.770
2020/01/31 15:48:09.4	99.190	0.360	-0.590	1.820
2020/01/31 15:48:09.5	99.190	0.360	-0.570	1.870
2020/01/31 15:48:09.6	99.180	0.360	-0.540	1.920
2020/01/31 15:48:09.7	99.180	0.350	-0.510	1.970
2020/01/31 15:48:09.8	99.170	0.340	-0.470	2.010
2020/01/31 15:48:09.9	99.150	0.330	-0.440	2.050
2020/01/31 15:48:10.0	99.140	0.310	-0.400	2.080
2020/01/31 15:48:10.1	99.120	0.290	-0.360	2.120
2020/01/31 15:48:10.2	99.110	0.280	-0.310	2.150
2020/01/31 15:48:10.3	99.090	0.250	-0.270	2.180
2020/01/31 15:48:10.4	99.070	0.230	-0.220	2.200
2020/01/31 15:48:10.5	99.060	0.210	-0.180	2.230
2020/01/31 15:48:10.6	99.040	0.180	-0.130	2.250
2020/01/31 15:48:10.7	99.020	0.150	-0.090	2.260
2020/01/31 15:48:10.8	99.000	0.130	-0.040	2.280
2020/01/31 15:48:10.9	98.980	0.100	-0.000	2.290
2020/01/31 15:48:11.0	98.960	0.070	0.040	2.300
2020/01/31 15:48:11.1	98.940	0.040	0.080	2.310
2020/01/31 15:48:11.2	98.920	0.010	0.110	2.310
2020/01/31 15:48:11.3	98.900	-0.020	0.150	2.320
2020/01/31 15:48:11.4	98.890	-0.040	0.180	2.320
2020/01/31 15:48:11.5	98.870	-0.070	0.210	2.310
2020/01/31 15:48:11.6	98.850	-0.100	0.230	2.310
2020/01/31 15:48:11.7	98.830	-0.120	0.260	2.300
2020/01/31 15:48:11.8	98.810	-0.150	0.270	2.290
2020/01/31 15:48:11.9	98.800	-0.170	0.290	2.280
2020/01/31 15:48:12.0	98.790	-0.190	0.300	2.260
2020/01/31 15:48:12.1	98.780	-0.210	0.310	2.240
2020/01/31 15:48:12.2	98.770	-0.220	0.320	2.220
2020/01/31 15:48:12.3	98.760	-0.240	0.320	2.200
2020/01/31 15:48:12.4	98.750	-0.250	0.320	2.170
2020/01/31 15:48:12.5	98.740	-0.270	0.310	2.140
2020/01/31 15:48:12.6	98.740	-0.280	0.310	2.110
2020/01/31 15:48:12.7	98.730	-0.280	0.300	2.070
2020/01/31 15:48:12.8	98.730	-0.290	0.290	2.040
2020/01/31 15:48:12.9	98.720	-0.300	0.270	2.000
2020/01/31 15:48:13.0	98.720	-0.300	0.260	1.950
2020/01/31 15:48:13.1	98.720	-0.300	0.240	1.900
2020/01/31 15:48:13.2	98.730	-0.300	0.220	1.850
2020/01/31 15:48:13.3	98.730	-0.300	0.200	1.800
2020/01/31 15:48:13.4	98.730	-0.300	0.180	1.740
2020/01/31 15:48:13.5	98.740	-0.300	0.160	1.680
2020/01/31 15:48:13.6	98.740	-0.290	0.140	1.620
2020/01/31 15:48:13.7	98.750	-0.290	0.120	1.560
2020/01/31 15:48:13.8	98.750	-0.280	0.090	1.490
2020/01/31 15:48:13.9	98.760	-0.280	0.070	1.420
2020/01/31 15:48:14.0	98.770	-0.270	0.050	1.340
2020/01/31 15:48:14.1	98.780	-0.260	0.030	1.270
2020/01/31 15:48:14.2	98.780	-0.250	0.010	1.190
2020/01/31 15:48:14.3	98.790	-0.240	-0.010	1.110
2020/01/31 15:48:14.4	98.800	-0.240	-0.030	1.030
2020/01/31 15:48:14.5	98.810	-0.230	-0.050	0.940
2020/01/31 15:48:14.6	98.820	-0.220	-0.060	0.860
2020/01/31 15:48:14.7	98.820	-0.210	-0.080	0.780
2020/01/31 15:48:14.8	98.830	-0.200	-0.090	0.700
2020/01/31 15:48:14.9	98.840	-0.190	-0.110	0.620
2020/01/31 15:48:15.0	98.840	-0.180	-0.120	0.530
2020/01/31 15:48:15.1	98.850	-0.170	-0.130	0.450
2020/01/31 15:48:15.2	98.850	-0.160	-0.150	0.370
2020/01/31 15:48:15.3	98.850	-0.160	-0.160	0.290
2020/01/31 15:48:15.4	98.850	-0.150	-0.170	0.220
2020/01/31 15:48:15.5	98.850	-0.140	-0.190	0.140
2020/01/31 15:48:15.6	98.850	-0.130	-0.200	0.070
2020/01/31 15:48:15.7	98.850	-0.120	-0.210	-0.000
2020/01/31 15:48:15.8	98.850	-0.110	-0.230	-0.070
2020/01/31 15:48:15.9	98.840	-0.110	-0.240	-0.130
2020/01/31 15:48:16.0	98.840	-0.100	-0.260	-0.190
2020/01/31 15:48:16.1	98.830	-0.090	-0.280	-0.250
2020/01/31 15:48:16.2	98.820	-0.080	-0.300	-0.300
2020/01/31 15:48:16.3	98.820	-0.070	-0.320	-0.350
2020/01/31 15:48:16.4	98.810	-0.060	-0.340	-0.400
2020/01/31 15:48:16.5	98.800	-0.060	-0.370	-0.440
2020/01/31 15:48:16.6	98.790	-0.050	-0.390	-0.480
2020/01/31 15:48:16.7	98.770	-0.040	-0.420	-0.510
2020/01/31 15:48:16.8	98.760	-0.030	-0.450	-0.540
2020/01/31 15:48:16.9	98.750	-0.010	-0.470	-0.560
2020/01/31 15:48:17.0	98.740	-0.000	-0.500	-0.580
2020/01/31 15:48:17.1	98.720	0.010	-0.530	-0.600
2020/01/31 15:48:17.2	98.710	0.020	-0.560	-0.620
2020/01/31 15:48:17.3	98.700	0.030	-0.600	-0.630
2020/01/31 15:48:17.4	98.680	0.050	-0.630	-0.640
2020/01/31 15:48:17.5	98.670	0.060	-0.660	-0.640
2020/01/31 15:48:17.6	98.660	0.080	-0.680	-0.640
2020/01/31 15:48:17.7	98.650	0.090	-0.710	-0.640
2020/01/31 15:48:17.8	98.640	0.110	-0.740	-0.640
2020/01/31 15:48:17.9	98.630	0.120	-0.760	-0.630
2020/01/31 15:48:18.0	98.630	0.140	-0.780	-0.630
2020/01/31 15:48:18.1	98.620	0.160	-0.800	-0.620
2020/01/31 15:48:18.2	98.610	0.170	-0.820	-0.610
2020/01/31 15:48:18.3	98.610	0.190	-0.830	-0.600
2020/01/31 15:48:18.4	98.600	0.210	-0.850	-0.580
2020/01/31 15:48:18.5	98.600	0.230	-0.850	-0.570
2020/01/31 15:48:18.6	98.600	0.240	-0.860	-0.550
2020/01/31 15:48:18.7	98.600	0.260	-0.860	-0.530
2020/01/31 15:48:18.8	98.600	0.280	-0.850	-0.510
2020/01/31 15:48:18.9	98.600	0.290	-0.840	-0.490
2020/01/31 15:48:19.0	98.600	0.310	-0.830	-0.470
2020/01/31 15:48:19.1	98.600	0.320	-0.810	-0.450
2020/01/31 15:48:19.2	98.600	0.330	-0.790	-0.430
2020/01/31 15:48:19.3	98.600	0.340	-0.760	-0.400
2020/01/31 15:48:19.4	98.600	0.350	-0.730	-0.380
2020/01/31 15:48:19.5	98.600	0.360	-0.700	-0.350
2020/01/31 15:48:19.6	98.590	0.360	-0.650	-0.320
2020/01/31 15:48:19.7	98.590	0.360	-0.610	-0.280
2020/01/31 15:48:19.8	98.590	0.360	-0.560	-0.240
2020/01/31 15:48:19.9	98.590	0.360	-0.500	-0.210
2020/01/31 15:48:20.0	98.580	0.360	-0.440	-0.170
2020/01/31 15:48:20.1	98.570	0.350	-0.380	-0.130
2020/01/31 15:48:20.2	98.570	0.340	-0.310	-0.090
2020/01/31 15:48:20.3	98.560	0.320	-0.240	-0.050
2020/01/31 15:48:20.4	98.550	0.310	-0.170	-0.010
2020/01/31 15:48:20.5	98.540	0.290	-0.100	0.040
2020/01/31 15:48:20.6	98.530	0.270	-0.020	0.080
2020/01/31 15:48:20.7	98.520	0.250	0.060	0.130
2020/01/31 15:48:20.8	98.510	0.220	0.140	0.170
2020/01/31 15:48:20.9	98.500	0.190	0.210	0.220
2020/01/31 15:48:21.0	98.480	0.160	0.290	0.260
2020/01/31 15:48:21.1	98.470	0.130	0.360	0.310
2020/01/31 15:48:21.2	98.460	0.100	0.430	0.350
2020/01/31 15:48:21.3	98.450	0.070	0.500	0.400
2020/01/31 15:48:21.4	98.440	0.030	0.570	0.440
2020/01/31 15:48:21.5	98.430	-0.000	0.630	0.480
2020/01/31 15:48:21.6	98.420	-0.040	0.690	0.530
2020/01/31 15:48:21.7	98.410	-0.070	0.740	0.580
2020/01/31 15:48:21.8	98.400	-0.100	0.780	0.620
2020/01/31 15:48:21.9	98.390	-0.130	0.820	0.660
2020/01/31 15:48:22.0	98.390	-0.160	0.850	0.700
2020/01/31 15:48:22.1	98.380	-0.190	0.880	0.740
2020/01/31 15:48:22.2	98.370	-0.220	0.890	0.780
2020/01/31 15:48:22.3	98.370	-0.240	0.900	0.810
2020/01/31 15:48:22.4	98.370	-0.260	0.910	0.850
2020/01/31 15:48:22.5	98.360	-0.280	0.900	0.890
2020/01/31 15:48:22.6	98.360	-0.300	0.890	0.920
2020/01/31 15:48:22.7	98.360	-0.310	0.870	0.950
2020/01/31 15:48:22.8	98.360	-0.320	0.840	0.990
2020/01/31 15:48:22.9	98.360	-0.330	0.800	1.020
2020/01/31 15:48:23.0	98.360	-0.330	0.760	1.050
2020/01/31 15:48:23.1	98.370	-0.330	0.710	1.080
2020/01/31 15:48:23.2	98.370	-0.330	0.650	1.110
2020/01/31 15:48:23.3	98.370	-0.320	0.590	1.140
2020/01/31 15:48:23.4	98.380	-0.310	0.520	1.160
2020/01/31 15:48:23.5	98.380	-0.300	0.450	1.190
2020/01/31 15:48:23.6	98.390	-0.290	0.370	1.210
2020/01/31 15:48:23.7	98.400	-0.270	0.290	1.240
2020/01/31 15:48:23.8	98.400	-0.250	0.210	1.260
2020/01/31 15:48:23.9	98.410	-0.220	0.120	1.280
2020/01/31 15:48:24.0	98.420	-0.200	0.030	1.290
2020/01/31 15:48:24.1	98.420	-0.170	-0.060	1.300
2020/01/31 15:48:24.2	98.430	-0.150	-0.150	1.320
2020/01/31 15:48:24.3	98.440	-0.120	-0.230	1.330
2020/01/31 15:48:24.4	98.450	-0.090	-0.320	1.340
2020/01/31 15:48:24.5	98.450	-0.060	-0.410	1.340
2020/01/31 15:48:24.6	98.460	-0.030	-0.490	1.350
2020/01/31 15:48:24.7	98.470	0.010	-0.570	1.350
2020/01/31 15:48:24.8	98.480	0.040	-0.650	1.350
2020/01/31 15:48:24.9	98.480	0.070	-0.720	1.350
2020/01/31 15:48:25.0	98.490	0.100	-0.790	1.350
2020/01/31 15:48:25.1	98.500	0.120	-0.860	1.340
2020/01/31 15:48:25.2	98.500	0.150	-0.920	1.340
2020/01/31 15:48:25.3	98.510	0.180	-0.970	1.330
2020/01/31 15:48:25.4	98.520	0.200	-1.020	1.330
2020/01/31 15:48:25.5	98.520	0.220	-1.060	1.320
2020/01/31 15:48:25.6	98.530	0.240	-1.090	1.310
2020/01/31 15:48:25.7	98.550	0.260	-1.120	1.300
2020/01/31 15:48:25.8	98.560	0.270	-1.140	1.300
2020/01/31 15:48:25.9	98.570	0.280	-1.160	1.290
2020/01/31 15:48:26.0	98.570	0.290	-1.170	1.280
2020/01/31 15:48:26.1	98.580	0.290	-1.170	1.280
2020/01/31 15:48:26.2	98.590	0.300	-1.160	1.270
2020/01/31 15:48:26.3	98.600	0.300	-1.150	1.270
2020/01/31 15:48:26.4	98.610	0.290	-1.130	1.270
2020/01/31 15:48:26.5	98.620	0.290	-1.110	1.270
2020/01/31 15:48:26.6	98.630	0.280	-1.080	1.270
2020/01/31 15:48:26.7	98.640	0.270	-1.040	1.270
2020/01/31 15:48:26.8	98.650	0.260	-1.000	1.280
2020/01/31 15:48:26.9	98.650	0.240	-0.960	1.280
2020/01/31 15:48:27.0	98.660	0.230	-0.910	1.290
2020/01/31 15:48:27.1	98.660	0.210	-0.850	1.300
2020/01/31 15:48:27.2	98.670	0.190	-0.790	1.310
2020/01/31 15:48:27.3	98.670	0.160	-0.730	1.320
2020/01/31 15:48:27.4	98.670	0.140	-0.670	1.330
2020/01/31 15:48:27.5	98.670	0.120	-0.610	1.340
2020/01/31 15:48:27.6	98.670	0.090	-0.540	1.350
2020/01/31 15:48:27.7	98.670	0.070	-0.470	1.370
2020/01/31 15:48:27.8	98.670	0.040	-0.410	1.380
2020/01/31 15:48:27.9	98.670	0.010	-0.340	1.390
2020/01/31 15:48:28.0	98.670	-0.010	-0.280	1.410
2020/01/31 15:48:28.1	98.670	-0.040	-0.210	1.420
2020/01/31 15:48:28.2	98.660	-0.060	-0.150	1.430
2020/01/31 15:48:28.3	98.660	-0.090	-0.090	1.440
2020/01/31 15:48:28.4	98.650	-0.110	-0.030	1.440
2020/01/31 15:48:28.5	98.650	-0.140	0.020	1.450
2020/01/31 15:48:28.6	98.650	-0.160	0.080	1.450
2020/01/31 15:48:28.7	98.650	-0.180	0.130	1.450
2020/01/31 15:48:28.8	98.650	-0.200	0.170	1.440
2020/01/31 15:48:28.9	98.650	-0.220	0.210	1.440
2020/01/31 15:48:29.0	98.650	-0.240	0.250	1.430
2020/01/31 15:48:29.1	98.640	-0.260	0.280	1.410
2020/01/31 15:48:29.2	98.640	-0.280	0.300	1.390
2020/01/31 15:48:29.3	98.640	-0.290	0.330	1.370
2020/01/31 15:48:29.4	98.640	-0.310	0.350	1.350
2020/01/31 15:48:29.5	98.640	-0.320	0.360	1.320
2020/01/31 15:48:29.6	98.640	-0.340	0.380	1.290
2020/01/31 15:48:29.7	98.650	-0.350	0.390	1.260
2020/01/31 15:48:29.8	98.650	-0.360	0.390	1.220
2020/01/31 15:48:29.9	98.650	-0.370	0.400	1.180
2020/01/31 15:48:30.0	98.650	-0.380	0.400	1.130
2020/01/31 15:48:30.1	98.650	-0.380	0.400	1.090
2020/01/31 15:48:30.2	98.660	-0.390	0.390	1.040
2020/01/31 15:48:30.3	98.660	-0.400	0.390	0.990
2020/01/31 15:48:30.4	98.660	-0.400	0.390	0.940
2020/01/31 15:48:30.5	98.660	-0.410	0.380	0.890
2020/01/31 15:48:30.6	98.660	-0.410	0.370	0.840
2020/01/31 15:48:30.7	98.650	-0.420	0.370	0.790
2020/01/31 15:48:30.8	98.650	-0.420	0.360	0.730
2020/01/31 15:48:30.9	98.640	-0.420	0.350	0.680
2020/01/31 15:48:31.0	98.640	-0.420	0.350	0.620
2020/01/31 15:48:31.1	98.630	-0.420	0.340	0.570
2020/01/31 15:48:31.2	98.630	-0.420	0.330	0.510
2020/01/31 15:48:31.3	98.620	-0.420	0.320	0.460
2020/01/31 15:48:31.4	98.610	-0.410	0.310	0.400
2020/01/31 15:48:31.5	98.600	-0.410	0.300	0.350
2020/01/31 15:48:31.6	98.590	-0.400	0.290	0.290
2020/01/31 15:48:31.7	98.570	-0.390	0.280	0.240
2020/01/31 15:48:31.8	98.560	-0.390	0.270	0.180
2020/01/31 15:48:31.9	98.550	-0.370	0.260	0.130
2020/01/31 15:48:32.0	98.540	-0.360	0.240	0.070
2020/01/31 15:48:32.1	98.530	-0.350	0.230	0.010
2020/01/31 15:48:32.2	98.520	-0.330	0.210	-0.050
2020/01/31 15:48:32.3	98.520	-0.310	0.190	-0.110
2020/01/31 15:48:32.4	98.510	-0.300	0.170	-0.170
2020/01/31 15:48:32.5	98.510	-0.270	0.140	-0.240
2020/01/31 15:48:32.6	98.500	-0.250	0.110	-0.300
2020/01/31 15:48:32.7	98.500	-0.220	0.080	-0.360
2020/01/31 15:48:32.8	98.510	-0.200	0.050	-0.430
2020/01/31 15:48:32.9	98.510	-0.170	0.010	-0.490
2020/01/31 15:48:33.0	98.510	-0.130	-0.030	-0.550
2020/01/31 15:48:33.1	98.520	-0.100	-0.080	-0.610
2020/01/31 15:48:33.2	98.520	-0.070	-0.120	-0.670
2020/01/31 15:48:33.3	98.530	-0.030	-0.170	-0.730
2020/01/31 15:48:33.4	98.540	0.010	-0.230	-0.790
2020/01/31 15:48:33.5	98.550	0.050	-0.280	-0.840
2020/01/31 15:48:33.6	98.560	0.090	-0.340	-0.890
2020/01/31 15:48:33.7	98.580	0.130	-0.400	-0.930
2020/01/31 15:48:33.8	98.600	0.170	-0.450	-0.970
2020/01/31 15:48:33.9	98.610	0.210	-0.510	-1.010
2020/01/31 15:48:34.0	98.630	0.260	-0.570	-1.040
2020/01/31 15:48:34.1	98.640	0.300	-0.630	-1.070
2020/01/31 15:48:34.2	98.660	0.340	-0.690	-1.090
2020/01/31 15:48:34.3	98.680	0.380	-0.740	-1.110
2020/01/31 15:48:34.4	98.700	0.420	-0.800	-1.120
2020/01/31 15:48:34.5	98.710	0.450	-0.850	-1.130
2020/01/31 15:48:34.6	98.730	0.490	-0.890	-1.130
2020/01/31 15:48:34.7	98.750	0.520	-0.940	-1.130
2020/01/31 15:48:34.8	98.770	0.550	-0.980	-1.120
2020/01/31 15:48:34.9	98.790	0.580	-1.010	-1.110
2020/01/31 15:48:35.0	98.800	0.610	-1.040	-1.090
2020/01/31 15:48:35.1	98.820	0.630	-1.060	-1.070
2020/01/31 15:48:35.2	98.830	0.650	-1.080	-1.050
2020/01/31 15:48:35.3	98.850	0.670	-1.090	-1.020
2020/01/31 15:48:35.4	98.860	0.680	-1.100	-0.990
2020/01/31 15:48:35.5	98.880	0.690	-1.090	-0.960
2020/01/31 15:48:35.6	98.890	0.700	-1.090	-0.920
2020/01/31 15:48:35.7	98.910	0.700	-1.070	-0.880
2020/01/31 15:48:35.8	98.920	0.700	-1.050	-0.840
2020/01/31 15:48:35.9	98.930	0.690	-1.020	-0.800
2020/01/31 15:48:36.0	98.940	0.690	-0.990	-0.750
2020/01/31 15:48:36.1	98.950	0.670	-0.950	-0.710
2020/01/31 15:48:36.2	98.960	0.660	-0.900	-0.660
2020/01/31 15:48:36.3	98.970	0.640	-0.850	-0.610
2020/01/31 15:48:36.4	98.980	0.620	-0.790	-0.550
2020/01/31 15:48:36.5	98.990	0.590	-0.730	-0.500
2020/01/31 15:48:36.6	99.000	0.570	-0.660	-0.440
2020/01/31 15:48:36.7	99.020	0.540	-0.590	-0.370
2020/01/31 15:48:36.8	99.020	0.500	-0.520	-0.310
2020/01/31 15:48:36.9	99.030	0.470	-0.440	-0.250
2020/01/31 15:48:37.0	99.030	0.430	-0.360	-0.180
2020/01/31 15:48:37.1	99.040	0.390	-0.280	-0.110
2020/01/31 15:48:37.2	99.040	0.350	-0.200	-0.040
2020/01/31 15:48:37.3	99.040	0.310	-0.120	0.040
2020/01/31 15:48:37.4	99.040	0.270	-0.030	0.120
2020/01/31 15:48:37.5	99.040	0.230	0.050	0.200
2020/01/31 15:48:37.6	99.040	0.190	0.130	0.280
2020/01/31 15:48:37.7	99.040	0.140	0.210	0.360
2020/01/31 15:48:37.8	99.030	0.100	0.290	0.450
2020/01/31 15:48:37.9	99.020	0.060	0.370	0.540
2020/01/31 15:48:38.0	99.010	0.020	0.440	0.630
2020/01/31 15:48:38.1	99.000	-0.020	0.510	0.720
2020/01/31 15:48:38.2	98.990	-0.070	0.570	0.820
2020/01/31 15:48:38.3	98.970	-0.100	0.630	0.910
2020/01/31 15:48:38.4	98.950	-0.140	0.680	1.010
2020/01/31 15:48:38.5	98.940	-0.180	0.730	1.110
2020/01/31 15:48:38.6	98.920	-0.220	0.770	1.210
2020/01/31 15:48:38.7	98.900	-0.250	0.810	1.310
2020/01/31 15:48:38.8	98.870	-0.280	0.830	1.410
2020/01/31 15:48:38.9	98.850	-0.310	0.860	1.510
2020/01/31 15:48:39.0	98.830	-0.340	0.870	1.610
2020/01/31 15:48:39.1	98.810	-0.360	0.880	1.700
2020/01/31 15:48:39.2	98.780	-0.390	0.880	1.800
2020/01/31 15:48:39.3	98.760	-0.410	0.870	1.890
2020/01/31 15:48:39.4	98.740	-0.420	0.850	1.980
2020/01/31 15:48:39.5	98.720	-0.440	0.830	2.060
2020/01/31 15:48:39.6	98.700	-0.450	0.790	2.150
2020/01/31 15:48:39.7	98.690	-0.460	0.750	2.220
2020/01/31 15:48:39.8	98.670	-0.460	0.710	2.300
2020/01/31 15:48:39.9	98.660	-0.460	0.650	2.370
2020/01/31 15:48:40.0	98.650	-0.460	0.590	2.430
2020/01/31 15:48:40.1	98.640	-0.460	0.520	2.490
2020/01/31 15:48:40.2	98.630	-0.450	0.450	2.540
2020/01/31 15:48:40.3	98.620	-0.440	0.370	2.590
2020/01/31 15:48:40.4	98.620	-0.430	0.280	2.640
2020/01/31 15:48:40.5	98.620	-0.420	0.190	2.670
2020/01/31 15:48:40.6	98.610	-0.400	0.100	2.710
2020/01/31 15:48:40.7	98.610	-0.390	0.010	2.740
2020/01/31 15:48:40.8	98.610	-0.370	-0.090	2.760
2020/01/31 15:48:40.9	98.610	-0.340	-0.180	2.780
2020/01/31 15:48:41.0	98.620	-0.320	-0.280	2.790
2020/01/31 15:48:41.1	98.620	-0.300	-0.370	2.790
2020/01/31 15:48:41.2	98.630	-0.270	-0.470	2.800
2020/01/31 15:48:41.3	98.640	-0.250	-0.560	2.790
2020/01/31 15:48:41.4	98.640	-0.220	-0.640	2.790
2020/01/31 15:48:41.5	98.650	-0.200	-0.720	2.780
2020/01/31 15:48:41.6	98.660	-0.170	-0.800	2.760
2020/01/31 15:48:41.7	98.660	-0.150	-0.860	2.740
2020/01/31 15:48:41.8	98.670	-0.120	-0.930	2.720
2020/01/31 15:48:41.9	98.680	-0.100	-0.980	2.690
2020/01/31 15:48:42.0	98.680	-0.080	-1.030	2.660
2020/01/31 15:48:42.1	98.690	-0.060	-1.070	2.630
2020/01/31 15:48:42.2	98.700	-0.040	-1.100	2.590
2020/01/31 15:48:42.3	98.710	-0.020	-1.130	2.550
2020/01/31 15:48:42.4	98.710	-0.010	-1.140	2.500
2020/01/31 15:48:42.5	98.720	0.010	-1.150	2.460
2020/01/31 15:48:42.6	98.730	0.020	-1.150	2.410
2020/01/31 15:48:42.7	98.740	0.030	-1.140	2.360
2020/01/31 15:48:42.8	98.740	0.030	-1.120	2.310
2020/01/31 15:48:42.9	98.750	0.040	-1.100	2.250
2020/01/31 15:48:43.0	98.750	0.040	-1.070	2.190
2020/01/31 15:48:43.1	98.760	0.040	-1.030	2.130
2020/01/31 15:48:43.2	98.760	0.040	-0.980	2.070
2020/01/31 15:48:43.3	98.760	0.040	-0.930	2.010
2020/01/31 15:48:43.4	98.770	0.040	-0.870	1.940
2020/01/31 15:48:43.5	98.770	0.030	-0.810	1.880
2020/01/31 15:48:43.6	98.770	0.030	-0.740	1.810
2020/01/31 15:48:43.7	98.770	0.020	-0.670	1.740
2020/01/31 15:48:43.8	98.770	0.010	-0.590	1.670
2020/01/31 15:48:43.9	98.770	-0.000	-0.520	1.610
2020/01/31 15:48:44.0	98.770	-0.010	-0.440	1.540
2020/01/31 15:48:44.1	98.770	-0.020	-0.370	1.470
2020/01/31 15:48:44.2	98.770	-0.030	-0.290	1.400
2020/01/31 15:48:44.3	98.770	-0.040	-0.210	1.320
2020/01/31 15:48:44.4	98.770	-0.060	-0.140	1.250
2020/01/31 15:48:44.5	98.770	-0.070	-0.070	1.180
2020/01/31 15:48:44.6	98.780	-0.080	0.000	1.110
2020/01/31 15:48:44.7	98.780	-0.090	0.070	1.040
2020/01/31 15:48:44.8	98.780	-0.100	0.130	0.970
2020/01/31 15:48:44.9	98.780	-0.110	0.190	0.890
2020/01/31 15:48:45.0	98.780	-0.110	0.250	0.820
2020/01/31 15:48:45.1	98.780	-0.120	0.290	0.750
2020/01/31 15:48:45.2	98.780	-0.130	0.340	0.680
2020/01/31 15:48:45.3	98.780	-0.130	0.380	0.600
2020/01/31 15:48:45.4	98.780	-0.130	0.410	0.530
2020/01/31 15:48:45.5	98.780	-0.140	0.430	0.460
2020/01/31 15:48:45.6	98.770	-0.140	0.450	0.390
2020/01/31 15:48:45.7	98.780	-0.140	0.470	0.320
2020/01/31 15:48:45.8	98.780	-0.130	0.470	0.250
2020/01/31 15:48:45.9	98.770	-0.130	0.480	0.170
2020/01/31 15:48:46.0	98.770	-0.130	0.470	0.100
2020/01/31 15:48:46.1	98.770	-0.120	0.460	0.030
2020/01/31 15:48:46.2	98.760	-0.110	0.450	-0.040
2020/01/31 15:48:46.3	98.760	-0.100	0.430	-0.110
2020/01/31 15:48:46.4	98.750	-0.090	0.400	-0.180
2020/01/31 15:48:46.5	98.750	-0.080	0.370	-0.250
2020/01/31 15:48:46.6	98.740	-0.070	0.340	-0.320
2020/01/31 15:48:46.7	98.740	-0.060	0.300	-0.390
2020/01/31 15:48:46.8	98.730	-0.040	0.260	-0.460
2020/01/31 15:48:46.9	98.720	-0.020	0.210	-0.530
2020/01/31 15:48:47.0	98.720	-0.010	0.170	-0.600
2020/01/31 15:48:47.1	98.710	0.010	0.120	-0.670
2020/01/31 15:48:47.2	98.710	0.030	0.070	-0.730
2020/01/31 15:48:47.3	98.700	0.050	0.020	-0.800
2020/01/31 15:48:47.4	98.700	0.070	-0.030	-0.860
2020/01/31 15:48:47.5	98.690	0.090	-0.070	-0.920
2020/01/31 15:48:47.6	98.690	0.110	-0.120	-0.980
2020/01/31 15:48:47.7	98.690	0.130	-0.170	-1.030
2020/01/31 15:48:47.8	98.680	0.150	-0.210	-1.090
2020/01/31 15:48:47.9	98.680	0.170	-0.260	-1.140
2020/01/31 15:48:48.0	98.670	0.190	-0.300	-1.190
2020/01/31 15:48:48.1	98.670	0.210	-0.340	-1.230
2020/01/31 15:48:48.2	98.660	0.230	-0.380	-1.270
2020/01/31 15:48:48.3	98.660	0.240	-0.410	-1.310
2020/01/31 15:48:48.4	98.650	0.260	-0.440	-1.340
2020/01/31 15:48:48.5	98.650	0.270	-0.470	-1.370
2020/01/31 15:48:48.6	98.640	0.290	-0.500	-1.400
2020/01/31 15:48:48.7	98.640	0.300	-0.520	-1.420
2020/01/31 15:48:48.8	98.630	0.310	-0.540	-1.430
2020/01/31 15:48:48.9	98.630	0.320	-0.560	-1.440
2020/01/31 15:48:49.0	98.620	0.330	-0.570	-1.440
2020/01/31 15:48:49.1	98.620	0.340	-0.580	-1.440
2020/01/31 15:48:49.2	98.620	0.350	-0.590	-1.440
2020/01/31 15:48:49.3	98.610	0.350	-0.590	-1.430
2020/01/31 15:48:49.4	98.610	0.350	-0.590	-1.410
2020/01/31 15:48:49.5	98.610	0.350	-0.590	-1.390
2020/01/31 15:48:49.6	98.600	0.350	-0.580	-1.360
2020/01/31 15:48:49.7	98.600	0.340	-0.570	-1.320
2020/01/31 15:48:49.8	98.600	0.340	-0.560	-1.280
2020/01/31 15:48:49.9	98.590	0.330	-0.540	-1.240
2020/01/31 15:48:50.0	98.590	0.320	-0.520	-1.190
2020/01/31 15:48:50.1	98.590	0.310	-0.500	-1.130
2020/01/31 15:48:50.2	98.590	0.290	-0.470	-1.070
2020/01/31 15:48:50.3	98.590	0.280	-0.440	-1.010
2020/01/31 15:48:50.4	98.590	0.260	-0.410	-0.940
2020/01/31 15:48:50.5	98.590	0.240	-0.370	-0.870
2020/01/31 15:48:50.6	98.580	0.220	-0.330	-0.790
2020/01/31 15:48:50.7	98.580	0.200	-0.290	-0.710
2020/01/31 15:48:50.8	98.580	0.180	-0.250	-0.620
2020/01/31 15:48:50.9	98.580	0.160	-0.210	-0.540
2020/01/31 15:48:51.0	98.580	0.130	-0.160	-0.450
2020/01/31 15:48:51.1	98.580	0.110	-0.120	-0.360
2020/01/31 15:48:51.2	98.580	0.090	-0.070	-0.270
2020/01/31 15:48:51.3	98.570	0.060	-0.030	-0.180
2020/01/31 15:48:51.4	98.570	0.040	0.010	-0.090
2020/01/31 15:48:51.5	98.570	0.010	0.060	0.000
2020/01/31 15:48:51.6	98.560	-0.010	0.100	0.090
2020/01/31 15:48:51.7	98.570	-0.030	0.140	0.190
2020/01/31 15:48:51.8	98.560	-0.060	0.170	0.280
2020/01/31 15:48:51.9	98.560	-0.080	0.210	0.370
2020/01/31 15:48:52.0	98.560	-0.100	0.240	0.460
2020/01/31 15:48:52.1	98.550	-0.120	0.270	0.550
2020/01/31 15:48:52.2	98.550	-0.130	0.290	0.640
2020/01/31 15:48:52.3	98.540	-0.150	0.310	0.720
2020/01/31 15:48:52.4	98.540	-0.160	0.330	0.800
2020/01/31 15:48:52.5	98.540	-0.180	0.340	0.880
2020/01/31 15:48:52.6	98.530	-0.190	0.350	0.950
2020/01/31 15:48:52.7	98.540	-0.190	0.350	1.030
2020/01/31 15:48:52.8	98.540	-0.200	0.350	1.100
2020/01/31 15:48:52.9	98.530	-0.200	0.350	1.170
2020/01/31 15:48:53.0	98.530	-0.210	0.340	1.230
2020/01/31 15:48:53.1	98.530	-0.210	0.320	1.300
2020/01/31 15:48:53.2	98.530	-0.200	0.310	1.360
2020/01/31 15:48:53.3	98.530	-0.200	0.280	1.410
2020/01/31 15:48:53.4	98.540	-0.190	0.260	1.470
2020/01/31 15:48:53.5	98.540	-0.190	0.220	1.520
2020/01/31 15:48:53.6	98.540	-0.180	0.190	1.570
2020/01/31 15:48:53.7	98.550	-0.160	0.150	1.620
2020/01/31 15:48:53.8	98.550	-0.150	0.110	1.660
2020/01/31 15:48:53.9	98.550	-0.140	0.060	1.710
2020/01/31 15:48:54.0	98.560	-0.120	0.020	1.750
2020/01/31 15:48:54.1	98.560	-0.100	-0.030	1.780
2020/01/31 15:48:54.2	98.570	-0.080	-0.090	1.820
2020/01/31 15:48:54.3	98.580	-0.060	-0.140	1.850
2020/01/31 15:48:54.4	98.580	-0.040	-0.190	1.880
2020/01/31 15:48:54.5	98.590	-0.020	-0.250	1.910
2020/01/31 15:48:54.6	98.590	-0.000	-0.310	1.940
2020/01/31 15:48:54.7	98.600	0.020	-0.360	1.970
2020/01/31 15:48:54.8	98.610	0.040	-0.420	1.990
2020/01/31 15:48:54.9	98.620	0.060	-0.470	2.010
2020/01/31 15:48:55.0	98.630	0.080	-0.520	2.030
2020/01/31 15:48:55.1	98.630	0.100	-0.580	2.050
2020/01/31 15:48:55.2	98.640	0.120	-0.620	2.070
2020/01/31 15:48:55.3	98.650	0.140	-0.670	2.080
2020/01/31 15:48:55.4	98.660	0.160	-0.720	2.100
2020/01/31 15:48:55.5	98.670	0.170	-0.760	2.110
2020/01/31 15:48:55.6	98.680	0.190	-0.790	2.120
2020/01/31 15:48:55.7	98.690	0.200	-0.830	2.130
2020/01/31 15:48:55.8	98.700	0.210	-0.860	2.130
2020/01/31 15:48:55.9	98.710	0.210	-0.880	2.140
2020/01/31 15:48:56.0	98.720	0.220	-0.900	2.140
2020/01/31 15:48:56.1	98.730	0.220	-0.920	2.140
2020/01/31 15:48:56.2	98.730	0.220	-0.930	2.140
2020/01/31 15:48:56.3	98.740	0.220	-0.930	2.140
2020/01/31 15:48:56.4	98.750	0.210	-0.930	2.140
2020/01/31 15:48:56.5	98.760	0.200	-0.930	2.130
2020/01/31 15:48:56.6	98.760	0.190	-0.920	2.130
2020/01/31 15:48:56.7	98.770	0.180	-0.900	2.120
2020/01/31 15:48:56.8	98.770	0.170	-0.880	2.110
2020/01/31 15:48:56.9	98.780	0.150	-0.850	2.090
2020/01/31 15:48:57.0	98.780	0.130	-0.820	2.080
2020/01/31 15:48:57.1	98.780	0.110	-0.780	2.060
2020/01/31 15:48:57.2	98.780	0.080	-0.740	2.040
2020/01/31 15:48:57.3	98.770	0.060	-0.690	2.020
2020/01/31 15:48:57.4	98.770	0.030	-0.640	2.000
2020/01/31 15:48:57.5	98.760	0.000	-0.590	1.980
2020/01/31 15:48:57.6	98.760	-0.030	-0.530	1.950
2020/01/31 15:48:57.7	98.760	-0.060	-0.460	1.920
2020/01/31 15:48:57.8	98.750	-0.090	-0.400	1.880
2020/01/31 15:48:57.9	98.740	-0.120	-0.340	1.850
2020/01/31 15:48:58.0	98.730	-0.150	-0.270	1.810
2020/01/31 15:48:58.1	98.720	-0.180	-0.210	1.760
2020/01/31 15:48:58.2	98.700	-0.210	-0.140	1.720
2020/01/31 15:48:58.3	98.690	-0.230	-0.070	1.670
2020/01/31 15:48:58.4	98.680	-0.260	-0.010	1.610
2020/01/31 15:48:58.5	98.670	-0.280	0.060	1.550
2020/01/31 15:48:58.6	98.660	-0.310	0.120	1.490
2020/01/31 15:48:58.7	98.650	-0.330	0.180	1.430
2020/01/31 15:48:58.8	98.640	-0.350	0.240	1.360
2020/01/31 15:48:58.9	98.620	-0.360	0.290	1.290
2020/01/31 15:48:59.0	98.610	-0.380	0.340	1.220
2020/01/31 15:48:59.1	98.600	-0.390	0.390	1.140
2020/01/31 15:48:59.2	98.590	-0.400	0.430	1.060
2020/01/31 15:48:59.3	98.580	-0.400	0.460	0.980
2020/01/31 15:48:59.4	98.560	-0.410	0.500	0.900
2020/01/31 15:48:59.5	98.550	-0.410	0.530	0.810
2020/01/31 15:48:59.6	98.540	-0.410	0.550	0.720
2020/01/31 15:48:59.7	98.520	-0.400	0.570	0.630
2020/01/31 15:48:59.8	98.500	-0.400	0.580	0.540
2020/01/31 15:48:59.9	98.490	-0.390	0.590	0.450
2020/01/31 15:49:00.0	98.480	-0.380	0.590	0.350
2020/01/31 15:49:00.1	98.470	-0.360	0.590	0.260
2020/01/31 15:49:00.2	98.460	-0.350	0.590	0.170
2020/01/31 15:49:00.3	98.450	-0.330	0.580	0.070
2020/01/31 15:49:00.4	98.440	-0.310	0.560	-0.020
2020/01/31 15:49:00.5	98.430	-0.290	0.550	-0.110
2020/01/31 15:49:00.6	98.420	-0.270	0.520	-0.210
2020/01/31 15:49:00.7	98.410	-0.250	0.500	-0.290
2020/01/31 15:49:00.8	98.400	-0.220	0.470	-0.380
2020/01/31 15:49:00.9	98.390	-0.200	0.440	-0.470
2020/01/31 15:49:01.0	98.380	-0.170	0.410	-0.560
2020/01/31 15:49:01.1	98.380	-0.150	0.370	-0.650
2020/01/31 15:49:01.2	98.370	-0.130	0.330	-0.730
2020/01/31 15:49:01.3	98.370	-0.100	0.290	-0.810
2020/01/31 15:49:01.4	98.360	-0.080	0.250	-0.890
2020/01/31 15:49:01.5	98.360	-0.050	0.210	-0.960
2020/01/31 15:49:01.6	98.360	-0.030	0.160	-1.040
2020/01/31 15:49:01.7	98.360	-0.000	0.110	-1.110
2020/01/31 15:49:01.8	98.360	0.020	0.070	-1.180
2020/01/31 15:49:01.9	98.360	0.040	0.020	-1.240
2020/01/31 15:49:02.0	98.370	0.060	-0.030	-1.300
2020/01/31 15:49:02.1	98.370	0.080	-0.090	-1.360
2020/01/31 15:49:02.2	98.380	0.100	-0.140	-1.420
2020/01/31 15:49:02.3	98.390	0.120	-0.190	-1.470
2020/01/31 15:49:02.4	98.400	0.140	-0.240	-1.520
2020/01/31 15:49:02.5	98.410	0.160	-0.300	-1.560
2020/01/31 15:49:02.6	98.430	0.170	-0.350	-1.610
2020/01/31 15:49:02.7	98.450	0.190	-0.400	-1.640
2020/01/31 15:49:02.8	98.470	0.200	-0.460	-1.670
2020/01/31 15:49:02.9	98.490	0.210	-0.510	-1.710
2020/01/31 15:49:03.0	98.510	0.230	-0.560	-1.740
2020/01/31 15:49:03.1	98.530	0.240	-0.600	-1.760
2020/01/31 15:49:03.2	98.560	0.250	-0.650	-1.780
2020/01/31 15:49:03.3	98.580	0.260	-0.690	-1.800
2020/01/31 15:49:03.4	98.610	0.260	-0.730	-1.820
2020/01/31 15:49:03.5	98.640	0.270	-0.770	-1.830
2020/01/31 15:49:03.6	98.660	0.280	-0.810	-1.830
2020/01/31 15:49:03.7	98.700	0.280	-0.840	-1.830
2020/01/31 15:49:03.8	98.730	0.280	-0.860	-1.820
2020/01/31 15:49:03.9	98.760	0.290	-0.890	-1.810
2020/01/31 15:49:04.0	98.780	0.290	-0.900	-1.790
2020/01/31 15:49:04.1	98.800	0.290	-0.910	-1.770
2020/01/31 15:49:04.2	98.830	0.290	-0.920	-1.740
2020/01/31 15:49:04.3	98.850	0.290	-0.920	-1.700
2020/01/31 15:49:04.4	98.870	0.280	-0.920	-1.660
2020/01/31 15:49:04.5	98.880	0.280	-0.910	-1.600
2020/01/31 15:49:04.6	98.900	0.270	-0.890	-1.550
2020/01/31 15:49:04.7	98.910	0.260	-0.870	-1.470
2020/01/31 15:49:04.8	98.920	0.260	-0.840	-1.400
2020/01/31 15:49:04.9	98.920	0.240	-0.810	-1.330
2020/01/31 15:49:05.0	98.930	0.230	-0.770	-1.240
2020/01/31 15:49:05.1	98.930	0.220	-0.720	-1.150
2020/01/31 15:49:05.2	98.920	0.200	-0.670	-1.060
2020/01/31 15:49:05.3	98.910	0.190	-0.620	-0.950
2020/01/31 15:49:05.4	98.900	0.170	-0.560	-0.850
2020/01/31 15:49:05.5	98.890	0.150	-0.500	-0.730
2020/01/31 15:49:05.6	98.870	0.130	-0.430	-0.620
2020/01/31 15:49:05.7	98.860	0.110	-0.350	-0.490
2020/01/31 15:49:05.8	98.830	0.090	-0.280	-0.370
2020/01/31 15:49:05.9	98.810	0.060	-0.210	-0.240
2020/01/31 15:49:06.0	98.780	0.040	-0.130	-0.100
2020/01/31 15:49:06.1	98.750	0.020	-0.050	0.030
2020/01/31 15:49:06.2	98.710	-0.010	0.020	0.170
2020/01/31 15:49:06.3	98.680	-0.030	0.100	0.310
2020/01/31 15:49:06.4	98.640	-0.060	0.170	0.450
2020/01/31 15:49:06.5	98.600	-0.080	0.240	0.600
2020/01/31 15:49:06.6	98.560	-0.110	0.310	0.740
2020/01/31 15:49:06.7	98.520	-0.130	0.380	0.890
2020/01/31 15:49:06.8	98.480	-0.150	0.440	1.030
2020/01/31 15:49:06.9	98.440	-0.170	0.490	1.170
2020/01/31 15:49:07.0	98.400	-0.190	0.540	1.310
2020/01/31 15:49:07.1	98.360	-0.210	0.580	1.450
2020/01/31 15:49:07.2	98.320	-0.230	0.620	1.580
2020/01/31 15:49:07.3	98.280	-0.240	0.650	1.710
2020/01/31 15:49:07.4	98.240	-0.250	0.670	1.830
2020/01/31 15:49:07.5	98.210	-0.260	0.680	1.950
2020/01/31 15:49:07.6	98.180	-0.260	0.690	2.060
2020/01/31 15:49:07.7	98.150	-0.270	0.690	2.170
2020/01/31 15:49:07.8	98.130	-0.270	0.670	2.270
2020/01/31 15:49:07.9	98.100	-0.260	0.650	2.360
2020/01/31 15:49:08.0	98.080	-0.260	0.630	2.440
2020/01/31 15:49:08.1	98.070	-0.250	0.590	2.520
2020/01/31 15:49:08.2	98.060	-0.240	0.550	2.590
2020/01/31 15:49:08.3	98.050	-0.220	0.500	2.650
2020/01/31 15:49:08.4	98.040	-0.200	0.440	2.700
2020/01/31 15:49:08.5	98.040	-0.180	0.380	2.750
2020/01/31 15:49:08.6	98.030	-0.160	0.310	2.790
2020/01/31 15:49:08.7	98.040	-0.140	0.240	2.830
2020/01/31 15:49:08.8	98.040	-0.110	0.160	2.860
2020/01/31 15:49:08.9	98.050	-0.080	0.080	2.880
2020/01/31 15:49:09.0	98.060	-0.050	0.000	2.900
2020/01/31 15:49:09.1	98.070	-0.020	-0.080	2.910
2020/01/31 15:49:09.2	98.080	0.010	-0.160	2.920
2020/01/31 15:49:09.3	98.090	0.050	-0.240	2.920
2020/01/31 15:49:09.4	98.100	0.080	-0.320	2.910
2020/01/31 15:49:09.5	98.110	0.110	-0.400	2.910
2020/01/31 15:49:09.6	98.130	0.150	-0.480	2.900
2020/01/31 15:49:09.7	98.140	0.180	-0.550	2.890
2020/01/31 15:49:09.8	98.160	0.210	-0.620	2.870
2020/01/31 15:49:09.9	98.170	0.250	-0.690	2.840
2020/01/31 15:49:10.0	98.190	0.280	-0.750	2.820
2020/01/31 15:49:10.1	98.200	0.310	-0.810	2.790
2020/01/31 15:49:10.2	98.220	0.340	-0.860	2.750
2020/01/31 15:49:10.3	98.230	0.360	-0.910	2.710
2020/01/31 15:49:10.4	98.240	0.390	-0.950	2.670
2020/01/31 15:49:10.5	98.250	0.410	-0.990	2.630
2020/01/31 15:49:10.6	98.260	0.430	-1.020	2.580
2020/01/31 15:49:10.7	98.280	0.450	-1.040	2.530
2020/01/31 15:49:10.8	98.290	0.470	-1.050	2.470
2020/01/31 15:49:10.9	98.290	0.480	-1.060	2.420
2020/01/31 15:49:11.0	98.300	0.490	-1.070	2.360
2020/01/31 15:49:11.1	98.300	0.500	-1.060	2.300
2020/01/31 15:49:11.2	98.310	0.500	-1.050	2.230
2020/01/31 15:49:11.3	98.310	0.500	-1.040	2.170
2020/01/31 15:49:11.4	98.310	0.500	-1.010	2.100
2020/01/31 15:49:11.5	98.310	0.490	-0.990	2.030
2020/01/31 15:49:11.6	98.310	0.490	-0.950	1.960
2020/01/31 15:49:11.7	98.300	0.470	-0.910	1.890
2020/01/31 15:49:11.8	98.300	0.460	-0.870	1.820
2020/01/31 15:49:11.9	98.290	0.440	-0.820	1.740
2020/01/31 15:49:12.0	98.290	0.420	-0.770	1.670
2020/01/31 15:49:12.1	98.280	0.400	-0.710	1.590
2020/01/31 15:49:12.2	98.280	0.380	-0.660	1.520
2020/01/31 15:49:12.3	98.270	0.350	-0.600	1.450
2020/01/31 15:49:12.4	98.260	0.320	-0.530	1.380
2020/01/31 15:49:12.5	98.250	0.290	-0.470	1.310
2020/01/31 15:49:12.6	98.240	0.250	-0.400	1.240
2020/01/31 15:49:12.7	98.230	0.220	-0.330	1.170
2020/01/31 15:49:12.8	98.220	0.180	-0.270	1.110
2020/01/31 15:49:12.9	98.210	0.140	-0.200	1.040
2020/01/31 15:49:13.0	98.190	0.100	-0.140	0.980
2020/01/31 15:49:13.1	98.180	0.060	-0.070	0.920
2020/01/31 15:49:13.2	98.160	0.020	-0.010	0.860
2020/01/31 15:49:13.3	98.140	-0.020	0.050	0.800
2020/01/31 15:49:13.4	98.120	-0.060	0.110	0.750
2020/01/31 15:49:13.5	98.100	-0.100	0.160	0.690
2020/01/31 15:49:13.6	98.080	-0.150	0.210	0.640
2020/01/31 15:49:13.7	98.060	-0.180	0.260	0.590
2020/01/31 15:49:13.8	98.040	-0.220	0.310	0.540
2020/01/31 15:49:13.9	98.010	-0.260	0.350	0.500
2020/01/31 15:49:14.0	97.990	-0.300	0.380	0.450
2020/01/31 15:49:14.1	97.970	-0.330	0.420	0.410
2020/01/31 15:49:14.2	97.940	-0.360	0.440	0.360
2020/01/31 15:49:14.3	97.920	-0.390	0.470	0.320
2020/01/31 15:49:14.4	97.890	-0.420	0.480	0.280
2020/01/31 15:49:14.5	97.870	-0.440	0.500	0.240
2020/01/31 15:49:14.6	97.850	-0.460	0.500	0.200
2020/01/31 15:49:14.7	97.830	-0.480	0.510	0.170
2020/01/31 15:49:14.8	97.810	-0.490	0.510	0.130
2020/01/31 15:49:14.9	97.790	-0.510	0.510	0.100
2020/01/31 15:49:15.0	97.770	-0.510	0.500	0.060
2020/01/31 15:49:15.1	97.750	-0.520	0.480	0.030
2020/01/31 15:49:15.2	97.740	-0.520	0.470	-0.010
2020/01/31 15:49:15.3	97.720	-0.520	0.440	-0.040
2020/01/31 15:49:15.4	97.710	-0.510	0.420	-0.080
2020/01/31 15:49:15.5	97.700	-0.510	0.390	-0.120
2020/01/31 15:49:15.6	97.700	-0.490	0.360	-0.150
2020/01/31 15:49:15.7	97.690	-0.480	0.330	-0.190
2020/01/31 15:49:15.8	97.680	-0.470	0.290	-0.230
2020/01/31 15:49:15.9	97.680	-0.450	0.260	-0.270
2020/01/31 15:49:16.0	97.680	-0.430	0.220	-0.310
2020/01/31 15:49:16.1	97.680	-0.410	0.190	-0.350
2020/01/31 15:49:16.2	97.690	-0.390	0.150	-0.390
2020/01/31 15:49:16.3	97.690	-0.360	0.110	-0.440
2020/01/31 15:49:16.4	97.700	-0.340	0.080	-0.480
2020/01/31 15:49:16.5	97.700	-0.310	0.040	-0.530
2020/01/31 15:49:16.6	97.710	-0.290	0.010	-0.570
2020/01/31 15:49:16.7	97.730	-0.260	-0.030	-0.610
2020/01/31 15:49:16.8	97.740	-0.240	-0.060	-0.660
2020/01/31 15:49:16.9	97.750	-0.210	-0.090	-0.700
2020/01/31 15:49:17.0	97.760	-0.180	-0.120	-0.750
2020/01/31 15:49:17.1	97.780	-0.160	-0.140	-0.790
2020/01/31 15:49:17.2	97.790	-0.140	-0.170	-0.830
2020/01/31 15:49:17.3	97.800	-0.110	-0.190	-0.870
2020/01/31 15:49:17.4	97.810	-0.090	-0.210	-0.910
2020/01/31 15:49:17.5	97.830	-0.070	-0.230	-0.940
2020/01/31 15:49:17.6	97.840	-0.050	-0.250	-0.980
2020/01/31 15:49:17.7	97.860	-0.030	-0.270	-1.010
2020/01/31 15:49:17.8	97.870	-0.010	-0.280	-1.040
2020/01/31 15:49:17.9	97.880	0.010	-0.300	-1.070
2020/01/31 15:49:18.0	97.890	0.030	-0.310	-1.090
2020/01/31 15:49:18.1	97.910	0.040	-0.320	-1.110
2020/01/31 15:49:18.2	97.920	0.060	-0.330	-1.130
2020/01/31 15:49:18.3	97.930	0.070	-0.340	-1.140
2020/01/31 15:49:18.4	97.940	0.080	-0.350	-1.150
2020/01/31 15:49:18.5	97.940	0.090	-0.360	-1.150
2020/01/31 15:49:18.6	97.950	0.100	-0.370	-1.150
2020/01/31 15:49:18.7	97.950	0.110	-0.380	-1.140
2020/01/31 15:49:18.8	97.950	0.120	-0.390	-1.130
2020/01/31 15:49:18.9	97.960	0.130	-0.400	-1.110
2020/01/31 15:49:19.0	97.960	0.130	-0.400	-1.090
2020/01/31 15:49:19.1	97.960	0.140	-0.410	-1.060
2020/01/31 15:49:19.2	97.960	0.140	-0.420	-1.030
2020/01/31 15:49:19.3	97.960	0.150	-0.430	-0.990
2020/01/31 15:49:19.4	97.960	0.150	-0.430	-0.940
2020/01/31 15:49:19.5	97.960	0.160	-0.440	-0.890
2020/01/31 15:49:19.6	97.950	0.160	-0.450	-0.840
2020/01/31 15:49:19.7	97.950	0.170	-0.450	-0.780
2020/01/31 15:49:19.8	97.940	0.170	-0.460	-0.710
2020/01/31 15:49:19.9	97.940	0.170	-0.460	-0.650
2020/01/31 15:49:20.0	97.930	0.180	-0.470	-0.570
2020/01/31 15:49:20.1	97.920	0.180	-0.480	-0.500
2020/01/31 15:49:20.2	97.900	0.190	-0.480	-0.420
2020/01/31 15:49:20.3	97.890	0.190	-0.480	-0.340
2020/01/31 15:49:20.4	97.880	0.190	-0.490	-0.260
2020/01/31 15:49:20.5	97.860	0.200	-0.490	-0.170
2020/01/31 15:49:20.6	97.850	0.200	-0.490	-0.080
2020/01/31 15:49:20.7	97.830	0.200	-0.490	0.020
2020/01/31 15:49:20.8	97.810	0.210	-0.490	0.110
2020/01/31 15:49:20.9	97.800	0.210	-0.480	0.200
2020/01/31 15:49:21.0	97.780	0.210	-0.480	0.290
2020/01/31 15:49:21.1	97.750	0.220	-0.470	0.390
2020/01/31 15:49:21.2	97.730	0.220	-0.460	0.480
2020/01/31 15:49:21.3	97.710	0.220	-0.450	0.570
2020/01/31 15:49:21.4	97.690	0.220	-0.440	0.670
2020/01/31 15:49:21.5	97.660	0.220	-0.420	0.760
2020/01/31 15:49:21.6	97.630	0.220	-0.410	0.860
2020/01/31 15:49:21.7	97.620	0.220	-0.390	0.950
2020/01/31 15:49:21.8	97.590	0.220	-0.370	1.040
2020/01/31 15:49:21.9	97.560	0.220	-0.350	1.130
2020/01/31 15:49:22.0	97.540	0.220	-0.330	1.220
2020/01/31 15:49:22.1	97.510	0.210	-0.310	1.310
2020/01/31 15:49:22.2	97.480	0.210	-0.280	1.400
2020/01/31 15:49:22.3	97.450	0.200	-0.260	1.480
2020/01/31 15:49:22.4	97.420	0.190	-0.230	1.560
2020/01/31 15:49:22.5	97.390	0.190	-0.210	1.630
2020/01/31 15:49:22.6	97.360	0.180	-0.180	1.710
2020/01/31 15:49:22.7	97.340	0.170	-0.150	1.780
2020/01/31 15:49:22.8	97.320	0.160	-0.130	1.850
2020/01/31 15:49:22.9	97.290	0.150	-0.100	1.910
2020/01/31 15:49:23.0	97.270	0.130	-0.080	1.960
2020/01/31 15:49:23.1	97.250	0.120	-0.060	2.010
2020/01/31 15:49:23.2	97.230	0.110	-0.040	2.060
2020/01/31 15:49:23.3	97.210	0.100	-0.020	2.100
2020/01/31 15:49:23.4	97.190	0.080	-0.000	2.130
2020/01/31 15:49:23.5	97.180	0.070	0.010	2.160
2020/01/31 15:49:23.6	97.170	0.060	0.020	2.190
2020/01/31 15:49:23.7	97.160	0.040	0.040	2.210
2020/01/31 15:49:23.8	97.160	0.030	0.050	2.220
2020/01/31 15:49:23.9	97.160	0.020	0.050	2.230
2020/01/31 15:49:24.0	97.160	0.010	0.060	2.230
2020/01/31 15:49:24.1	97.160	-0.000	0.060	2.230
2020/01/31 15:49:24.2	97.170	-0.010	0.060	2.220
2020/01/31 15:49:24.3	97.180	-0.020	0.060	2.210
2020/01/31 15:49:24.4	97.180	-0.030	0.060	2.200
2020/01/31 15:49:24.5	97.200	-0.040	0.060	2.180
2020/01/31 15:49:24.6	97.210	-0.050	0.050	2.160
2020/01/31 15:49:24.7	97.220	-0.060	0.050	2.130
2020/01/31 15:49:24.8	97.240	-0.070	0.040	2.100
2020/01/31 15:49:24.9	97.250	-0.070	0.030	2.070
2020/01/31 15:49:25.0	97.270	-0.080	0.020	2.040
2020/01/31 15:49:25.1	97.280	-0.080	0.010	2.010
2020/01/31 15:49:25.2	97.300	-0.090	-0.000	1.970
2020/01/31 15:49:25.3	97.310	-0.090	-0.020	1.930
2020/01/31 15:49:25.4	97.330	-0.100	-0.030	1.890
2020/01/31 15:49:25.5	97.340	-0.100	-0.040	1.850
2020/01/31 15:49:25.6	97.360	-0.100	-0.050	1.800
2020/01/31 15:49:25.7	97.380	-0.100	-0.070	1.760
2020/01/31 15:49:25.8	97.390	-0.110	-0.080	1.720
2020/01/31 15:49:25.9	97.400	-0.110	-0.090	1.670
2020/01/31 15:49:26.0	97.420	-0.110	-0.110	1.620
2020/01/31 15:49:26.1	97.430	-0.110	-0.120	1.570
2020/01/31 15:49:26.2	97.440	-0.110	-0.130	1.520
2020/01/31 15:49:26.3	97.450	-0.110	-0.150	1.470
2020/01/31 15:49:26.4	97.460	-0.110	-0.160	1.420
2020/01/31 15:49:26.5	97.470	-0.110	-0.170	1.370
2020/01/31 15:49:26.6	97.480	-0.110	-0.190	1.320
2020/01/31 15:49:26.7	97.490	-0.110	-0.200	1.260
2020/01/31 15:49:26.8	97.500	-0.110	-0.210	1.210
2020/01/31 15:49:26.9	97.510	-0.110	-0.230	1.160
2020/01/31 15:49:27.0	97.520	-0.110	-0.240	1.100
2020/01/31 15:49:27.1	97.540	-0.110	-0.260	1.050
2020/01/31 15:49:27.2	97.550	-0.110	-0.270	0.990
2020/01/31 15:49:27.3	97.570	-0.100	-0.290	0.940
2020/01/31 15:49:27.4	97.580	-0.100	-0.300	0.880
2020/01/31 15:49:27.5	97.600	-0.090	-0.320	0.820
2020/01/31 15:49:27.6	97.620	-0.090	-0.330	0.770
2020/01/31 15:49:27.7	97.630	-0.080	-0.350	0.710
2020/01/31 15:49:27.8	97.650	-0.080	-0.360	0.660
2020/01/31 15:49:27.9	97.670	-0.070	-0.370	0.600
2020/01/31 15:49:28.0	97.680	-0.070	-0.390	0.550
2020/01/31 15:49:28.1	97.700	-0.060	-0.400	0.490
2020/01/31 15:49:28.2	97.710	-0.050	-0.410	0.440
2020/01/31 15:49:28.3	97.730	-0.040	-0.420	0.390
2020/01/31 15:49:28.4	97.740	-0.030	-0.430	0.340
2020/01/31 15:49:28.5	97.750	-0.030	-0.430	0.300
2020/01/31 15:49:28.6	97.760	-0.020	-0.430	0.250
2020/01/31 15:49:28.7	97.770	-0.010	-0.430	0.210
2020/01/31 15:49:28.8	97.770	-0.000	-0.430	0.170
2020/01/31 15:49:28.9	97.780	0.010	-0.430	0.130
2020/01/31 15:49:29.0	97.780	0.010	-0.420	0.100
2020/01/31 15:49:29.1	97.780	0.020	-0.410	0.070
2020/01/31 15:49:29.2	97.770	0.030	-0.400	0.040
2020/01/31 15:49:29.3	97.770	0.040	-0.380	0.010
2020/01/31 15:49:29.4	97.760	0.040	-0.370	-0.020
2020/01/31 15:49:29.5	97.760	0.050	-0.340	-0.040
2020/01/31 15:49:29.6	97.750	0.050	-0.320	-0.060
2020/01/31 15:49:29.7	97.750	0.050	-0.290	-0.080
2020/01/31 15:49:29.8	97.740	0.050	-0.260	-0.090
2020/01/31 15:49:29.9	97.720	0.060	-0.230	-0.110
2020/01/31 15:49:30.0	97.710	0.050	-0.200	-0.120
2020/01/31 15:49:30.1	97.690	0.050	-0.170	-0.130
2020/01/31 15:49:30.2	97.680	0.050	-0.130	-0.150
2020/01/31 15:49:30.3	97.660	0.050	-0.100	-0.160
2020/01/31 15:49:30.4	97.640	0.040	-0.060	-0.170
2020/01/31 15:49:30.5	97.620	0.040	-0.030	-0.170
2020/01/31 15:49:30.6	97.610	0.030	0.010	-0.180
2020/01/31 15:49:30.7	97.580	0.020	0.040	-0.180
2020/01/31 15:49:30.8	97.560	0.010	0.070	-0.190
2020/01/31 15:49:30.9	97.540	0.000	0.100	-0.200
2020/01/31 15:49:31.0	97.520	-0.010	0.130	-0.210
2020/01/31 15:49:31.1	97.500	-0.020	0.160	-0.210
2020/01/31 15:49:31.2	97.490	-0.030	0.180	-0.220
2020/01/31 15:49:31.3	97.470	-0.040	0.200	-0.230
2020/01/31 15:49:31.4	97.450	-0.050	0.220	-0.230
2020/01/31 15:49:31.5	97.440	-0.060	0.230	-0.240
2020/01/31 15:49:31.6	97.430	-0.070	0.250	-0.240
2020/01/31 15:49:31.7	97.420	-0.080	0.260	-0.250
2020/01/31 15:49:31.8	97.400	-0.090	0.260	-0.250
2020/01/31 15:49:31.9	97.400	-0.100	0.260	-0.260
2020/01/31 15:49:32.0	97.390	-0.110	0.260	-0.260
2020/01/31 15:49:32.1	97.380	-0.110	0.250	-0.270
2020/01/31 15:49:32.2	97.380	-0.120	0.240	-0.270
2020/01/31 15:49:32.3	97.380	-0.130	0.230	-0.280
2020/01/31 15:49:32.4	97.380	-0.130	0.210	-0.280
2020/01/31 15:49:32.5	97.380	-0.130	0.190	-0.290
2020/01/31 15:49:32.6	97.390	-0.140	0.170	-0.290
2020/01/31 15:49:32.7	97.380	-0.140	0.150	-0.290
2020/01/31 15:49:32.8	97.390	-0.140	0.120	-0.290
2020/01/31 15:49:32.9	97.390	-0.140	0.100	-0.300
2020/01/31 15:49:33.0	97.400	-0.130	0.070	-0.300
2020/01/31 15:49:33.1	97.410	-0.130	0.040	-0.300
2020/01/31 15:49:33.2	97.420	-0.130	0.000	-0.300
2020/01/31 15:49:33.3	97.430	-0.120	-0.030	-0.300
2020/01/31 15:49:33.4	97.440	-0.110	-0.060	-0.300
2020/01/31 15:49:33.5	97.450	-0.110	-0.100	-0.300
2020/01/31 15:49:33.6	97.450	-0.100	-0.130	-0.300
2020/01/31 15:49:33.7	97.460	-0.090	-0.170	-0.290
2020/01/31 15:49:33.8	97.470	-0.080	-0.200	-0.290
2020/01/31 15:49:33.9	97.480	-0.070	-0.230	-0.280
2020/01/31 15:49:34.0	97.490	-0.060	-0.270	-0.270
2020/01/31 15:49:34.1	97.490	-0.040	-0.300	-0.260
2020/01/31 15:49:34.2	97.500	-0.030	-0.330	-0.250
2020/01/31 15:49:34.3	97.510	-0.020	-0.360	-0.240
2020/01/31 15:49:34.4	97.520	-0.000	-0.390	-0.230
2020/01/31 15:49:34.5	97.530	0.010	-0.420	-0.210
2020/01/31 15:49:34.6	97.530	0.030	-0.440	-0.190
2020/01/31 15:49:34.7	97.540	0.050	-0.470	-0.170
2020/01/31 15:49:34.8	97.550	0.060	-0.490	-0.150
2020/01/31 15:49:34.9	97.560	0.080	-0.510	-0.130
2020/01/31 15:49:35.0	97.580	0.090	-0.530	-0.110
2020/01/31 15:49:35.1	97.590	0.110	-0.540	-0.090
2020/01/31 15:49:35.2	97.610	0.120	-0.560	-0.070
2020/01/31 15:49:35.3	97.620	0.140	-0.570	-0.040
2020/01/31 15:49:35.4	97.640	0.150	-0.580	-0.020
2020/01/31 15:49:35.5	97.660	0.170	-0.590	0.010
2020/01/31 15:49:35.6	97.680	0.180	-0.600	0.040
2020/01/31 15:49:35.7	97.710	0.190	-0.600	0.070
2020/01/31 15:49:35.8	97.730	0.200	-0.600	0.110
2020/01/31 15:49:35.9	97.750	0.210	-0.600	0.140
2020/01/31 15:49:36.0	97.770	0.220	-0.600	0.180
2020/01/31 15:49:36.1	97.790	0.220	-0.590	0.230
2020/01/31 15:49:36.2	97.820	0.230	-0.590	0.270
2020/01/31 15:49:36.3	97.840	0.230	-0.580	0.320
2020/01/31 15:49:36.4	97.860	0.230	-0.570	0.380
2020/01/31 15:49:36.5	97.880	0.230	-0.550	0.430
2020/01/31 15:49:36.6	97.890	0.220	-0.540	0.490
2020/01/31 15:49:36.7	97.920	0.210	-0.520	0.560
2020/01/31 15:49:36.8	97.930	0.210	-0.500	0.620
2020/01/31 15:49:36.9	97.950	0.190	-0.480	0.690
2020/01/31 15:49:37.0	97.960	0.180	-0.450	0.760
2020/01/31 15:49:37.1	97.970	0.170	-0.430	0.830
2020/01/31 15:49:37.2	97.980	0.150	-0.400	0.900
2020/01/31 15:49:37.3	97.980	0.130	-0.370	0.970
2020/01/31 15:49:37.4	97.990	0.110	-0.340	1.040
2020/01/31 15:49:37.5	97.990	0.090	-0.310	1.110
2020/01/31 15:49:37.6	97.990	0.060	-0.280	1.180
2020/01/31 15:49:37.7	97.990	0.040	-0.250	1.250
2020/01/31 15:49:37.8	97.990	0.010	-0.210	1.320
2020/01/31 15:49:37.9	97.990	-0.020	-0.180	1.390
2020/01/31 15:49:38.0	97.980	-0.040	-0.150	1.450
2020/01/31 15:49:38.1	97.980	-0.070	-0.110	1.510
2020/01/31 15:49:38.2	97.980	-0.100	-0.080	1.570
2020/01/31 15:49:38.3	97.970	-0.130	-0.050	1.630
2020/01/31 15:49:38.4	97.960	-0.150	-0.010	1.690
2020/01/31 15:49:38.5	97.960	-0.180	0.020	1.740
2020/01/31 15:49:38.6	97.950	-0.200	0.050	1.780
2020/01/31 15:49:38.7	97.950	-0.230	0.080	1.830
2020/01/31 15:49:38.8	97.940	-0.250	0.110	1.870
2020/01/31 15:49:38.9	97.930	-0.270	0.130	1.900
2020/01/31 15:49:39.0	97.920	-0.290	0.160	1.930
2020/01/31 15:49:39.1	97.910	-0.310	0.180	1.960
2020/01/31 15:49:39.2	97.900	-0.320	0.200	1.990
2020/01/31 15:49:39.3	97.890	-0.330	0.220	2.010
2020/01/31 15:49:39.4	97.880	-0.340	0.230	2.020
2020/01/31 15:49:39.5	97.870	-0.350	0.240	2.030
2020/01/31 15:49:39.6	97.860	-0.360	0.250	2.040
2020/01/31 15:49:39.7	97.860	-0.360	0.260	2.040
2020/01/31 15:49:39.8	97.850	-0.360	0.260	2.040
2020/01/31 15:49:39.9	97.840	-0.360	0.260	2.030
2020/01/31 15:49:40.0	97.830	-0.350	0.260	2.020
2020/01/31 15:49:40.1	97.820	-0.340	0.250	2.010
2020/01/31 15:49:40.2	97.810	-0.330	0.240	1.990
2020/01/31 15:49:40.3	97.800	-0.320	0.230	1.970
2020/01/31 15:49:40.4	97.790	-0.300	0.210	1.940
2020/01/31 15:49:40.5	97.780	-0.280	0.190	1.910
2020/01/31 15:49:40.6	97.770	-0.260	0.170	1.880
2020/01/31 15:49:40.7	97.750	-0.240	0.140	1.850
2020/01/31 15:49:40.8	97.740	-0.210	0.110	1.810
2020/01/31 15:49:40.9	97.730	-0.190	0.070	1.770
2020/01/31 15:49:41.0	97.730	-0.160	0.040	1.720
2020/01/31 15:49:41.1	97.720	-0.130	-0.000	1.670
2020/01/31 15:49:41.2	97.720	-0.100	-0.040	1.620
2020/01/31 15:49:41.3	97.720	-0.070	-0.090	1.560
2020/01/31 15:49:41.4	97.720	-0.030	-0.130	1.500
2020/01/31 15:49:41.5	97.720	0.000	-0.180	1.440
2020/01/31 15:49:41.6	97.720	0.030	-0.220	1.380
2020/01/31 15:49:41.7	97.730	0.070	-0.270	1.310
2020/01/31 15:49:41.8	97.740	0.100	-0.320	1.240
2020/01/31 15:49:41.9	97.750	0.140	-0.360	1.170
2020/01/31 15:49:42.0	97.760	0.170	-0.410	1.090
2020/01/31 15:49:42.1	97.780	0.200	-0.450	1.020
2020/01/31 15:49:42.2	97.790	0.230	-0.500	0.940
2020/01/31 15:49:42.3	97.810	0.260	-0.540	0.860
2020/01/31 15:49:42.4	97.830	0.290	-0.570	0.790
2020/01/31 15:49:42.5	97.850	0.310	-0.610	0.710
2020/01/31 15:49:42.6	97.870	0.340	-0.640	0.630
2020/01/31 15:49:42.7	97.890	0.360	-0.670	0.560
2020/01/31 15:49:42.8	97.910	0.380	-0.690	0.480
2020/01/31 15:49:42.9	97.930	0.400	-0.710	0.410
2020/01/31 15:49:43.0	97.950	0.410	-0.730	0.340
2020/01/31 15:49:43.1	97.970	0.420	-0.740	0.270
2020/01/31 15:49:43.2	97.990	0.430	-0.750	0.210
2020/01/31 15:49:43.3	98.000	0.440	-0.750	0.140
2020/01/31 15:49:43.4	98.020	0.440	-0.740	0.080
2020/01/31 15:49:43.5	98.040	0.450	-0.730	0.020
2020/01/31 15:49:43.6	98.050	0.450	-0.720	-0.030
2020/01/31 15:49:43.7	98.070	0.440	-0.700	-0.080
2020/01/31 15:49:43.8	98.090	0.440	-0.680	-0.140
2020/01/31 15:49:43.9	98.100	0.430	-0.650	-0.180
2020/01/31 15:49:44.0	98.110	0.420	-0.620	-0.230
2020/01/31 15:49:44.1	98.130	0.400	-0.580	-0.280
2020/01/31 15:49:44.2	98.140	0.390	-0.540	-0.320
2020/01/31 15:49:44.3	98.160	0.370	-0.500	-0.360
2020/01/31 15:49:44.4	98.170	0.350	-0.450	-0.400
2020/01/31 15:49:44.5	98.180	0.330	-0.400	-0.440
2020/01/31 15:49:44.6	98.200	0.310	-0.350	-0.480
2020/01/31 15:49:44.7	98.210	0.280	-0.300	-0.510
2020/01/31 15:49:44.8	98.220	0.260	-0.240	-0.540
2020/01/31 15:49:44.9	98.230	0.230	-0.190	-0.570
2020/01/31 15:49:45.0	98.250	0.200	-0.130	-0.600
2020/01/31 15:49:45.1	98.260	0.180	-0.070	-0.630
2020/01/31 15:49:45.2	98.270	0.150	-0.020	-0.660
2020/01/31 15:49:45.3	98.290	0.120	0.030	-0.680
2020/01/31 15:49:45.4	98.300	0.090	0.090	-0.700
2020/01/31 15:49:45.5	98.310	0.060	0.140	-0.720
2020/01/31 15:49:45.6	98.320	0.030	0.190	-0.730
2020/01/31 15:49:45.7	98.320	0.000	0.230	-0.740
2020/01/31 15:49:45.8	98.330	-0.020	0.280	-0.750
2020/01/31 15:49:45.9	98.340	-0.050	0.320	-0.750
2020/01/31 15:49:46.0	98.340	-0.080	0.350	-0.750
2020/01/31 15:49:46.1	98.340	-0.100	0.380	-0.750
2020/01/31 15:49:46.2	98.340	-0.130	0.410	-0.740
2020/01/31 15:49:46.3	98.340	-0.150	0.430	-0.720
2020/01/31 15:49:46.4	98.340	-0.170	0.450	-0.700
2020/01/31 15:49:46.5	98.330	-0.190	0.470	-0.680
2020/01/31 15:49:46.6	98.320	-0.210	0.480	-0.650
2020/01/31 15:49:46.7	98.320	-0.230	0.490	-0.610
2020/01/31 15:49:46.8	98.310	-0.250	0.490	-0.570
2020/01/31 15:49:46.9	98.290	-0.270	0.490	-0.520
2020/01/31 15:49:47.0	98.280	-0.280	0.480	-0.470
2020/01/31 15:49:47.1	98.260	-0.300	0.470	-0.420
2020/01/31 15:49:47.2	98.240	-0.310	0.450	-0.360
2020/01/31 15:49:47.3	98.220	-0.320	0.440	-0.290
2020/01/31 15:49:47.4	98.200	-0.330	0.410	-0.230
2020/01/31 15:49:47.5	98.180	-0.340	0.390	-0.160
2020/01/31 15:49:47.6	98.160	-0.350	0.360	-0.090
2020/01/31 15:49:47.7	98.150	-0.350	0.330	-0.020
2020/01/31 15:49:47.8	98.130	-0.360	0.300	0.060
2020/01/31 15:49:47.9	98.110	-0.360	0.260	0.130
2020/01/31 15:49:48.0	98.090	-0.360	0.220	0.200
2020/01/31 15:49:48.1	98.080	-0.370	0.180	0.270
2020/01/31 15:49:48.2	98.060	-0.370	0.140	0.350
2020/01/31 15:49:48.3	98.050	-0.370	0.090	0.420
2020/01/31 15:49:48.4	98.040	-0.360	0.040	0.490
2020/01/31 15:49:48.5	98.030	-0.360	-0.010	0.550
2020/01/31 15:49:48.6	98.020	-0.350	-0.060	0.620
2020/01/31 15:49:48.7	98.020	-0.350	-0.110	0.680
2020/01/31 15:49:48.8	98.010	-0.340	-0.160	0.740
2020/01/31 15:49:48.9	98.010	-0.330	-0.220	0.800
2020/01/31 15:49:49.0	98.010	-0.320	-0.270	0.860
2020/01/31 15:49:49.1	98.010	-0.310	-0.330	0.910
2020/01/31 15:49:49.2	98.010	-0.300	-0.380	0.960
2020/01/31 15:49:49.3	98.020	-0.280	-0.440	1.010
2020/01/31 15:49:49.4	98.020	-0.270	-0.490	1.060
2020/01/31 15:49:49.5	98.030	-0.250	-0.540	1.100
2020/01/31 15:49:49.6	98.040	-0.230	-0.600	1.130
2020/01/31 15:49:49.7	98.060	-0.210	-0.650	1.170
2020/01/31 15:49:49.8	98.070	-0.190	-0.690	1.210
2020/01/31 15:49:49.9	98.080	-0.170	-0.740	1.240
2020/01/31 15:49:50.0	98.100	-0.150	-0.780	1.260
2020/01/31 15:49:50.1	98.110	-0.120	-0.820	1.280
2020/01/31 15:49:50.2	98.130	-0.100	-0.850	1.300
2020/01/31 15:49:50.3	98.150	-0.080	-0.880	1.320
2020/01/31 15:49:50.4	98.170	-0.050	-0.900	1.340
2020/01/31 15:49:50.5	98.190	-0.030	-0.920	1.350
2020/01/31 15:49:50.6	98.210	-0.010	-0.930	1.360
2020/01/31 15:49:50.7	98.230	0.020	-0.940	1.360
2020/01/31 15:49:50.8	98.250	0.040	-0.940	1.370
2020/01/31 15:49:50.9	98.280	0.060	-0.930	1.370
2020/01/31 15:49:51.0	98.300	0.080	-0.920	1.370
2020/01/31 15:49:51.1	98.320	0.100	-0.900	1.370
2020/01/31 15:49:51.2	98.340	0.110	-0.880	1.370
2020/01/31 15:49:51.3	98.360	0.130	-0.840	1.370
2020/01/31 15:49:51.4	98.380	0.140	-0.810	1.360
2020/01/31 15:49:51.5	98.400	0.150	-0.760	1.360
2020/01/31 15:49:51.6	98.420	0.160	-0.720	1.350
2020/01/31 15:49:51.7	98.430	0.170	-0.660	1.350
2020/01/31 15:49:51.8	98.450	0.180	-0.600	1.340
2020/01/31 15:49:51.9	98.460	0.180	-0.540	1.340
2020/01/31 15:49:52.0	98.470	0.180	-0.480	1.330
2020/01/31 15:49:52.1	98.470	0.180	-0.410	1.320
2020/01/31 15:49:52.2	98.480	0.180	-0.340	1.310
2020/01/31 15:49:52.3	98.480	0.170	-0.270	1.300
2020/01/31 15:49:52.4	98.480	0.170	-0.200	1.300
2020/01/31 15:49:52.5	98.480	0.160	-0.140	1.290
2020/01/31 15:49:52.6	98.470	0.150	-0.070	1.280
2020/01/31 15:49:52.7	98.460	0.140	0.000	1.270
2020/01/31 15:49:52.8	98.450	0.130	0.070	1.250
2020/01/31 15:49:52.9	98.450	0.120	0.130	1.240
2020/01/31 15:49:53.0	98.440	0.110	0.180	1.230
2020/01/31 15:49:53.1	98.430	0.100	0.230	1.210
2020/01/31 15:49:53.2	98.420	0.090	0.280	1.190
2020/01/31 15:49:53.3	98.420	0.080	0.320	1.170
2020/01/31 15:49:53.4	98.410	0.060	0.360	1.150
2020/01/31 15:49:53.5	98.400	0.050	0.380	1.120
2020/01/31 15:49:53.6	98.400	0.040	0.410	1.100
2020/01/31 15:49:53.7	98.410	0.030	0.420	1.070
2020/01/31 15:49:53.8	98.400	0.030	0.430	1.030
2020/01/31 15:49:53.9	98.400	0.020	0.430	1.000
2020/01/31 15:49:54.0	98.400	0.010	0.430	0.960
2020/01/31 15:49:54.1	98.400	0.010	0.410	0.920
2020/01/31 15:49:54.2	98.410	0.010	0.390	0.880
2020/01/31 15:49:54.3	98.410	0.010	0.370	0.830
2020/01/31 15:49:54.4	98.420	0.010	0.340	0.790
2020/01/31 15:49:54.5	98.430	0.010	0.300	0.740
2020/01/31 15:49:54.6	98.430	0.010	0.260	0.700
2020/01/31 15:49:54.7	98.440	0.020	0.220	0.650
2020/01/31 15:49:54.8	98.450	0.020	0.170	0.600
2020/01/31 15:49:54.9	98.460	0.030	0.120	0.550
2020/01/31 15:49:55.0	98.470	0.040	0.070	0.510
2020/01/31 15:49:55.1	98.480	0.040	0.020	0.460
2020/01/31 15:49:55.2	98.490	0.050	-0.030	0.420
2020/01/31 15:49:55.3	98.500	0.060	-0.080	0.380
2020/01/31 15:49:55.4	98.520	0.070	-0.130	0.340
2020/01/31 15:49:55.5	98.530	0.080	-0.180	0.300
2020/01/31 15:49:55.6	98.530	0.090	-0.230	0.270
2020/01/31 15:49:55.7	98.540	0.100	-0.270	0.230
2020/01/31 15:49:55.8	98.550	0.110	-0.310	0.200
2020/01/31 15:49:55.9	98.550	0.110	-0.340	0.180
2020/01/31 15:49:56.0	98.560	0.120	-0.370	0.150
2020/01/31 15:49:56.1	98.560	0.130	-0.400	0.130
2020/01/31 15:49:56.2	98.560	0.130	-0.420	0.110
2020/01/31 15:49:56.3	98.560	0.130	-0.430	0.090
2020/01/31 15:49:56.4	98.560	0.140	-0.440	0.070
2020/01/31 15:49:56.5	98.560	0.140	-0.450	0.050
2020/01/31 15:49:56.6	98.560	0.140	-0.450	0.040
2020/01/31 15:49:56.7	98.560	0.140	-0.440	0.040
2020/01/31 15:49:56.8	98.550	0.130	-0.430	0.020
2020/01/31 15:49:56.9	98.540	0.130	-0.420	0.010
2020/01/31 15:49:57.0	98.530	0.130	-0.400	0.010
2020/01/31 15:49:57.1	98.520	0.120	-0.380	-0.000
2020/01/31 15:49:57.2	98.510	0.110	-0.360	-0.010
2020/01/31 15:49:57.3	98.500	0.110	-0.330	-0.010
2020/01/31 15:49:57.4	98.480	0.100	-0.300	-0.020
2020/01/31 15:49:57.5	98.460	0.090	-0.270	-0.020
2020/01/31 15:49:57.6	98.450	0.080	-0.240	-0.030
2020/01/31 15:49:57.7	98.430	0.070	-0.200	-0.030
2020/01/31 15:49:57.8	98.410	0.060	-0.170	-0.030
2020/01/31 15:49:57.9	98.390	0.040	-0.150	-0.030
2020/01/31 15:49:58.0	98.370	0.030	-0.120	-0.030
2020/01/31 15:49:58.1	98.350	0.020	-0.090	-0.030
2020/01/31 15:49:58.2	98.330	0.010	-0.070	-0.040
2020/01/31 15:49:58.3	98.300	0.000	-0.050	-0.040
2020/01/31 15:49:58.4	98.280	-0.010	-0.030	-0.030
2020/01/31 15:49:58.5	98.260	-0.020	-0.020	-0.030
2020/01/31 15:49:58.6	98.240	-0.030	-0.010	-0.030
2020/01/31 15:49:58.7	98.210	-0.030	-0.010	-0.030
2020/01/31 15:49:58.8	98.190	-0.040	-0.000	-0.020
2020/01/31 15:49:58.9	98.180	-0.040	-0.010	-0.020
2020/01/31 15:49:59.0	98.160	-0.050	-0.020	-0.020
2020/01/31 15:49:59.1	98.140	-0.050	-0.030	-0.010
2020/01/31 15:49:59.2	98.130	-0.050	-0.050	-0.010
2020/01/31 15:49:59.3	98.110	-0.050	-0.070	-0.000
2020/01/31 15:49:59.4	98.100	-0.040	-0.090	0.000
2020/01/31 15:49:59.5	98.090	-0.040	-0.120	0.010
2020/01/31 15:49:59.6	98.080	-0.030	-0.160	0.020
2020/01/31 15:49:59.7	98.070	-0.030	-0.190	0.030
2020/01/31 15:49:59.8	98.070	-0.020	-0.230	0.040
2020/01/31 15:49:59.9	98.060	-0.010	-0.270	0.040
2020/01/31 15:50:00.0	98.060	-0.000	-0.310	0.050
2020/01/31 15:50:00.1	98.060	0.010	-0.350	0.060
2020/01/31 15:50:00.2	98.070	0.020	-0.390	0.070
2020/01/31 15:50:00.3	98.070	0.030	-0.430	0.080
2020/01/31 15:50:00.4	98.080	0.050	-0.470	0.080
2020/01/31 15:50:00.5	98.090	0.060	-0.510	0.090
2020/01/31 15:50:00.6	98.100	0.070	-0.550	0.100
2020/01/31 15:50:00.7	98.120	0.080	-0.580	0.100
2020/01/31 15:50:00.8	98.140	0.090	-0.610	0.110
2020/01/31 15:50:00.9	98.160	0.110	-0.640	0.110
2020/01/31 15:50:01.0	98.180	0.120	-0.660	0.120
2020/01/31 15:50:01.1	98.200	0.120	-0.680	0.120
2020/01/31 15:50:01.2	98.230	0.130	-0.690	0.120
2020/01/31 15:50:01.3	98.260	0.140	-0.700	0.120
2020/01/31 15:50:01.4	98.290	0.140	-0.700	0.120
2020/01/31 15:50:01.5	98.320	0.150	-0.700	0.130
2020/01/31 15:50:01.6	98.350	0.150	-0.690	0.130
2020/01/31 15:50:01.7	98.370	0.150	-0.670	0.130
2020/01/31 15:50:01.8	98.410	0.150	-0.650	0.140
2020/01/31 15:50:01.9	98.440	0.140	-0.620	0.140
2020/01/31 15:50:02.0	98.480	0.140	-0.590	0.150
2020/01/31 15:50:02.1	98.510	0.130	-0.560	0.160
2020/01/31 15:50:02.2	98.550	0.120	-0.510	0.170
2020/01/31 15:50:02.3	98.580	0.110	-0.470	0.190
2020/01/31 15:50:02.4	98.610	0.100	-0.420	0.210
2020/01/31 15:50:02.5	98.640	0.080	-0.360	0.230
2020/01/31 15:50:02.6	98.670	0.070	-0.300	0.250
2020/01/31 15:50:02.7	98.700	0.050	-0.230	0.280
2020/01/31 15:50:02.8	98.730	0.030	-0.170	0.310
2020/01/31 15:50:02.9	98.750	0.010	-0.100	0.340
2020/01/31 15:50:03.0	98.770	-0.010	-0.030	0.380
2020/01/31 15:50:03.1	98.780	-0.030	0.030	0.420
2020/01/31 15:50:03.2	98.800	-0.050	0.100	0.470
2020/01/31 15:50:03.3	98.810	-0.080	0.170	0.520
2020/01/31 15:50:03.4	98.810	-0.100	0.240	0.560
2020/01/31 15:50:03.5	98.820	-0.120	0.310	0.620
2020/01/31 15:50:03.6	98.820	-0.140	0.370	0.670
2020/01/31 15:50:03.7	98.820	-0.170	0.430	0.740
2020/01/31 15:50:03.8	98.820	-0.190	0.490	0.790
2020/01/31 15:50:03.9	98.810	-0.210	0.540	0.850
2020/01/31 15:50:04.0	98.800	-0.230	0.590	0.910
2020/01/31 15:50:04.1	98.790	-0.250	0.630	0.960
2020/01/31 15:50:04.2	98.780	-0.260	0.670	1.020
2020/01/31 15:50:04.3	98.760	-0.280	0.700	1.070
2020/01/31 15:50:04.4	98.750	-0.290	0.720	1.130
2020/01/31 15:50:04.5	98.730	-0.300	0.740	1.180
2020/01/31 15:50:04.6	98.710	-0.310	0.740	1.230
2020/01/31 15:50:04.7	98.690	-0.320	0.740	1.280
2020/01/31 15:50:04.8	98.670	-0.320	0.740	1.320
2020/01/31 15:50:04.9	98.650	-0.320	0.720	1.370
2020/01/31 15:50:05.0	98.630	-0.320	0.700	1.400
2020/01/31 15:50:05.1	98.610	-0.320	0.670	1.440
2020/01/31 15:50:05.2	98.590	-0.320	0.630	1.470
2020/01/31 15:50:05.3	98.570	-0.310	0.580	1.500
2020/01/31 15:50:05.4	98.550	-0.300	0.530	1.520
2020/01/31 15:50:05.5	98.530	-0.290	0.480	1.540
2020/01/31 15:50:05.6	98.510	-0.280	0.420	1.560
2020/01/31 15:50:05.7	98.490	-0.260	0.350	1.580
2020/01/31 15:50:05.8	98.470	-0.250	0.280	1.590
2020/01/31 15:50:05.9	98.450	-0.230	0.210	1.600
2020/01/31 15:50:06.0	98.440	-0.210	0.130	1.600
2020/01/31 15:50:06.1	98.430	-0.190	0.050	1.600
2020/01/31 15:50:06.2	98.420	-0.170	-0.030	1.600
2020/01/31 15:50:06.3	98.410	-0.150	-0.110	1.600
2020/01/31 15:50:06.4	98.400	-0.130	-0.190	1.590
2020/01/31 15:50:06.5	98.390	-0.110	-0.280	1.580
2020/01/31 15:50:06.6	98.390	-0.080	-0.360	1.570
2020/01/31 15:50:06.7	98.390	-0.060	-0.440	1.550
2020/01/31 15:50:06.8	98.390	-0.040	-0.520	1.540
2020/01/31 15:50:06.9	98.390	-0.020	-0.590	1.520
2020/01/31 15:50:07.0	98.390	0.010	-0.660	1.490
2020/01/31 15:50:07.1	98.400	0.030	-0.730	1.470
2020/01/31 15:50:07.2	98.400	0.050	-0.790	1.440
2020/01/31 15:50:07.3	98.410	0.070	-0.850	1.410
2020/01/31 15:50:07.4	98.420	0.090	-0.910	1.380
2020/01/31 15:50:07.5	98.430	0.110	-0.950	1.350
2020/01/31 15:50:07.6	98.450	0.120	-1.000	1.310
2020/01/31 15:50:07.7	98.450	0.140	-1.030	1.270
2020/01/31 15:50:07.8	98.460	0.150	-1.060	1.230
2020/01/31 15:50:07.9	98.480	0.160	-1.080	1.190
2020/01/31 15:50:08.0	98.500	0.170	-1.100	1.140
2020/01/31 15:50:08.1	98.510	0.180	-1.110	1.100
2020/01/31 15:50:08.2	98.530	0.190	-1.110	1.050
2020/01/31 15:50:08.3	98.550	0.200	-1.110	1.000
2020/01/31 15:50:08.4	98.570	0.200	-1.100	0.950
2020/01/31 15:50:08.5	98.590	0.210	-1.090	0.900
2020/01/31 15:50:08.6	98.610	0.210	-1.060	0.850
2020/01/31 15:50:08.7	98.640	0.210	-1.030	0.800
2020/01/31 15:50:08.8	98.660	0.210	-1.000	0.750
2020/01/31 15:50:08.9	98.680	0.200	-0.960	0.690
2020/01/31 15:50:09.0	98.700	0.200	-0.920	0.640
2020/01/31 15:50:09.1	98.710	0.200	-0.870	0.580
2020/01/31 15:50:09.2	98.730	0.190	-0.820	0.530
2020/01/31 15:50:09.3	98.750	0.180	-0.770	0.480
2020/01/31 15:50:09.4	98.760	0.170	-0.710	0.420
2020/01/31 15:50:09.5	98.780	0.160	-0.650	0.370
2020/01/31 15:50:09.6	98.790	0.150	-0.580	0.320
2020/01/31 15:50:09.7	98.790	0.140	-0.510	0.270
2020/01/31 15:50:09.8	98.800	0.130	-0.450	0.220
2020/01/31 15:50:09.9	98.810	0.120	-0.380	0.170
2020/01/31 15:50:10.0	98.820	0.110	-0.310	0.120
2020/01/31 15:50:10.1	98.830	0.100	-0.240	0.070
2020/01/31 15:50:10.2	98.840	0.080	-0.170	0.020
2020/01/31 15:50:10.3	98.850	0.070	-0.110	-0.020
2020/01/31 15:50:10.4	98.850	0.060	-0.040	-0.060
2020/01/31 15:50:10.5	98.860	0.050	0.020	-0.100
2020/01/31 15:50:10.6	98.860	0.030	0.080	-0.140
2020/01/31 15:50:10.7	98.860	0.020	0.140	-0.180
2020/01/31 15:50:10.8	98.860	0.010	0.200	-0.210
2020/01/31 15:50:10.9	98.870	0.000	0.250	-0.240
2020/01/31 15:50:11.0	98.870	-0.010	0.300	-0.270
2020/01/31 15:50:11.1	98.870	-0.020	0.340	-0.300
2020/01/31 15:50:11.2	98.870	-0.030	0.380	-0.320
2020/01/31 15:50:11.3	98.870	-0.030	0.420	-0.350
2020/01/31 15:50:11.4	98.870	-0.040	0.450	-0.370
2020/01/31 15:50:11.5	98.870	-0.040	0.480	-0.380
2020/01/31 15:50:11.6	98.870	-0.050	0.500	-0.400
2020/01/31 15:50:11.7	98.870	-0.050	0.510	-0.400
2020/01/31 15:50:11.8	98.870	-0.050	0.520	-0.410
2020/01/31 15:50:11.9	98.870	-0.050	0.530	-0.420
2020/01/31 15:50:12.0	98.870	-0.050	0.530	-0.420
2020/01/31 15:50:12.1	98.870	-0.040	0.520	-0.420
2020/01/31 15:50:12.2	98.870	-0.040	0.510	-0.420
2020/01/31 15:50:12.3	98.870	-0.030	0.490	-0.420
2020/01/31 15:50:12.4	98.870	-0.020	0.470	-0.420
2020/01/31 15:50:12.5	98.870	-0.020	0.440	-0.410
2020/01/31 15:50:12.6	98.870	-0.000	0.410	-0.400
2020/01/31 15:50:12.7	98.870	0.010	0.370	-0.380
2020/01/31 15:50:12.8	98.870	0.020	0.330	-0.370
2020/01/31 15:50:12.9	98.870	0.030	0.280	-0.360
2020/01/31 15:50:13.0	98.870	0.050	0.230	-0.340
2020/01/31 15:50:13.1	98.870	0.060	0.180	-0.320
2020/01/31 15:50:13.2	98.870	0.080	0.130	-0.310
2020/01/31 15:50:13.3	98.870	0.100	0.070	-0.290
2020/01/31 15:50:13.4	98.870	0.110	0.010	-0.270
2020/01/31 15:50:13.5	98.870	0.130	-0.050	-0.250
2020/01/31 15:50:13.6	98.870	0.150	-0.110	-0.230
2020/01/31 15:50:13.7	98.880	0.160	-0.170	-0.210
2020/01/31 15:50:13.8	98.880	0.180	-0.220	-0.190
2020/01/31 15:50:13.9	98.890	0.190	-0.280	-0.170
2020/01/31 15:50:14.0	98.890	0.210	-0.330	-0.150
2020/01/31 15:50:14.1	98.900	0.220	-0.380	-0.130
2020/01/31 15:50:14.2	98.900	0.240	-0.430	-0.110
2020/01/31 15:50:14.3	98.910	0.250	-0.470	-0.090
2020/01/31 15:50:14.4	98.920	0.260	-0.510	-0.070
2020/01/31 15:50:14.5	98.930	0.270	-0.550	-0.050
2020/01/31 15:50:14.6	98.940	0.280	-0.580	-0.020
2020/01/31 15:50:14.7	98.940	0.280	-0.610	-0.000
2020/01/31 15:50:14.8	98.950	0.290	-0.630	0.020
2020/01/31 15:50:14.9	98.960	0.290	-0.650	0.040
2020/01/31 15:50:15.0	98.970	0.290	-0.660	0.060
2020/01/31 15:50:15.1	98.980	0.290	-0.670	0.080
2020/01/31 15:50:15.2	98.990	0.290	-0.670	0.110
2020/01/31 15:50:15.3	99.000	0.290	-0.670	0.130
2020/01/31 15:50:15.4	99.010	0.280	-0.670	0.150
2020/01/31 15:50:15.5	99.020	0.280	-0.660	0.180
2020/01/31 15:50:15.6	99.030	0.270	-0.650	0.200
2020/01/31 15:50:15.7	99.040	0.260	-0.630	0.230
2020/01/31 15:50:15.8	99.050	0.250	-0.610	0.260
2020/01/31 15:50:15.9	99.050	0.230	-0.580	0.290
2020/01/31 15:50:16.0	99.060	0.220	-0.560	0.310
2020/01/31 15:50:16.1	99.070	0.200	-0.530	0.340
2020/01/31 15:50:16.2	99.070	0.180	-0.500	0.370
2020/01/31 15:50:16.3	99.080	0.160	-0.470	0.410
2020/01/31 15:50:16.4	99.080	0.140	-0.430	0.440
2020/01/31 15:50:16.5	99.090	0.120	-0.400	0.470
2020/01/31 15:50:16.6	99.090	0.100	-0.360	0.510
2020/01/31 15:50:16.7	99.090	0.070	-0.320	0.550
2020/01/31 15:50:16.8	99.090	0.050	-0.280	0.580
2020/01/31 15:50:16.9	99.090	0.020	-0.240	0.620
2020/01/31 15:50:17.0	99.090	-0.010	-0.210	0.660
2020/01/31 15:50:17.1	99.080	-0.040	-0.160	0.700
2020/01/31 15:50:17.2	99.080	-0.070	-0.120	0.740
2020/01/31 15:50:17.3	99.080	-0.100	-0.080	0.780
2020/01/31 15:50:17.4	99.070	-0.130	-0.040	0.820
2020/01/31 15:50:17.5	99.070	-0.160	-0.000	0.860
2020/01/31 15:50:17.6	99.070	-0.190	0.030	0.900
2020/01/31 15:50:17.7	99.070	-0.220	0.080	0.950
2020/01/31 15:50:17.8	99.070	-0.250	0.120	0.990
2020/01/31 15:50:17.9	99.060	-0.280	0.150	1.030
2020/01/31 15:50:18.0	99.060	-0.320	0.190	1.070
2020/01/31 15:50:18.1	99.060	-0.350	0.220	1.110
2020/01/31 15:50:18.2	99.060	-0.380	0.250	1.150
2020/01/31 15:50:18.3	99.060	-0.400	0.280	1.180
2020/01/31 15:50:18.4	99.060	-0.430	0.300	1.220
2020/01/31 15:50:18.5	99.070	-0.460	0.330	1.250
2020/01/31 15:50:18.6	99.070	-0.480	0.350	1.280
2020/01/31 15:50:18.7	99.070	-0.500	0.360	1.320
2020/01/31 15:50:18.8	99.080	-0.520	0.380	1.350
2020/01/31 15:50:18.9	99.080	-0.540	0.390	1.370
2020/01/31 15:50:19.0	99.090	-0.560	0.400	1.400
2020/01/31 15:50:19.1	99.100	-0.570	0.400	1.420
2020/01/31 15:50:19.2	99.110	-0.590	0.400	1.450
2020/01/31 15:50:19.3	99.120	-0.600	0.400	1.470
2020/01/31 15:50:19.4	99.130	-0.600	0.390	1.490
2020/01/31 15:50:19.5	99.150	-0.610	0.370	1.510
2020/01/31 15:50:19.6	99.160	-0.610	0.360	1.520
2020/01/31 15:50:19.7	99.170	-0.610	0.340	1.530
2020/01/31 15:50:19.8	99.180	-0.600	0.310	1.540
2020/01/31 15:50:19.9	99.200	-0.590	0.280	1.550
2020/01/31 15:50:20.0	99.220	-0.580	0.240	1.560
2020/01/31 15:50:20.1	99.230	-0.570	0.200	1.570
2020/01/31 15:50:20.2	99.250	-0.560	0.160	1.570
2020/01/31 15:50:20.3	99.270	-0.540	0.110	1.570
2020/01/31 15:50:20.4	99.290	-0.520	0.060	1.570
2020/01/31 15:50:20.5	99.310	-0.490	0.010	1.570
2020/01/31 15:50:20.6	99.330	-0.470	-0.040	1.560
2020/01/31 15:50:20.7	99.350	-0.440	-0.100	1.560
2020/01/31 15:50:20.8	99.370	-0.410	-0.160	1.560
2020/01/31 15:50:20.9	99.390	-0.380	-0.220	1.550
2020/01/31 15:50:21.0	99.410	-0.350	-0.270	1.540
2020/01/31 15:50:21.1	99.430	-0.310	-0.330	1.530
2020/01/31 15:50:21.2	99.440	-0.270	-0.390	1.520
2020/01/31 15:50:21.3	99.460	-0.240	-0.450	1.500
2020/01/31 15:50:21.4	99.470	-0.200	-0.500	1.490
2020/01/31 15:50:21.5	99.480	-0.160	-0.550	1.470
2020/01/31 15:50:21.6	99.490	-0.120	-0.600	1.460
2020/01/31 15:50:21.7	99.500	-0.080	-0.650	1.440
2020/01/31 15:50:21.8	99.510	-0.040	-0.690	1.420
2020/01/31 15:50:21.9	99.520	-0.010	-0.730	1.400
2020/01/31 15:50:22.0	99.520	0.030	-0.770	1.380
2020/01/31 15:50:22.1	99.520	0.070	-0.800	1.360
2020/01/31 15:50:22.2	99.530	0.110	-0.820	1.340
2020/01/31 15:50:22.3	99.530	0.140	-0.840	1.310
2020/01/31 15:50:22.4	99.530	0.180	-0.860	1.290
2020/01/31 15:50:22.5	99.520	0.210	-0.870	1.260
2020/01/31 15:50:22.6	99.520	0.240	-0.880	1.230
2020/01/31 15:50:22.7	99.510	0.270	-0.880	1.210
2020/01/31 15:50:22.8	99.510	0.300	-0.870	1.180
2020/01/31 15:50:22.9	99.500	0.330	-0.870	1.150
2020/01/31 15:50:23.0	99.490	0.350	-0.860	1.110
2020/01/31 15:50:23.1	99.490	0.370	-0.840	1.080
2020/01/31 15:50:23.2	99.480	0.400	-0.830	1.040
2020/01/31 15:50:23.3	99.470	0.420	-0.810	1.010
2020/01/31 15:50:23.4	99.460	0.430	-0.790	0.970
2020/01/31 15:50:23.5	99.450	0.450	-0.760	0.930
2020/01/31 15:50:23.6	99.440	0.470	-0.740	0.900
2020/01/31 15:50:23.7	99.450	0.480	-0.700	0.860
2020/01/31 15:50:23.8	99.440	0.490	-0.670	0.820
2020/01/31 15:50:23.9	99.430	0.500	-0.640	0.780
2020/01/31 15:50:24.0	99.420	0.510	-0.600	0.740
2020/01/31 15:50:24.1	99.410	0.510	-0.570	0.700
2020/01/31 15:50:24.2	99.400	0.520	-0.530	0.660
2020/01/31 15:50:24.3	99.390	0.520	-0.490	0.620
2020/01/31 15:50:24.4	99.370	0.520	-0.460	0.570
2020/01/31 15:50:24.5	99.360	0.520	-0.420	0.530
2020/01/31 15:50:24.6	99.350	0.510	-0.380	0.490
2020/01/31 15:50:24.7	99.340	0.510	-0.330	0.450
2020/01/31 15:50:24.8	99.330	0.500	-0.290	0.400
2020/01/31 15:50:24.9	99.320	0.490	-0.250	0.350
2020/01/31 15:50:25.0	99.310	0.480	-0.210	0.300
2020/01/31 15:50:25.1	99.300	0.460	-0.160	0.260
2020/01/31 15:50:25.2	99.290	0.440	-0.120	0.200
2020/01/31 15:50:25.3	99.290	0.430	-0.070	0.150
2020/01/31 15:50:25.4	99.280	0.410	-0.030	0.100
2020/01/31 15:50:25.5	99.270	0.380	0.020	0.050
2020/01/31 15:50:25.6	99.270	0.360	0.070	-0.010
2020/01/31 15:50:25.7	99.270	0.330	0.110	-0.070
2020/01/31 15:50:25.8	99.260	0.310	0.160	-0.120
2020/01/31 15:50:25.9	99.260	0.280	0.210	-0.180
2020/01/31 15:50:26.0	99.260	0.250	0.260	-0.230
2020/01/31 15:50:26.1	99.250	0.220	0.300	-0.290
2020/01/31 15:50:26.2	99.250	0.180	0.350	-0.350
2020/01/31 15:50:26.3	99.250	0.150	0.390	-0.400
2020/01/31 15:50:26.4	99.250	0.120	0.440	-0.460
2020/01/31 15:50:26.5	99.250	0.080	0.480	-0.510
2020/01/31 15:50:26.6	99.260	0.050	0.520	-0.560
2020/01/31 15:50:26.7	99.260	0.020	0.560	-0.600
2020/01/31 15:50:26.8	99.260	-0.020	0.600	-0.650
2020/01/31 15:50:26.9	99.260	-0.050	0.630	-0.690
2020/01/31 15:50:27.0	99.270	-0.080	0.660	-0.730
2020/01/31 15:50:27.1	99.270	-0.110	0.690	-0.770
2020/01/31 15:50:27.2	99.280	-0.140	0.710	-0.810
2020/01/31 15:50:27.3	99.280	-0.160	0.730	-0.840
2020/01/31 15:50:27.4	99.290	-0.190	0.740	-0.870
2020/01/31 15:50:27.5	99.290	-0.210	0.740	-0.890
2020/01/31 15:50:27.6	99.300	-0.230	0.740	-0.920
2020/01/31 15:50:27.7	99.300	-0.250	0.740	-0.930
2020/01/31 15:50:27.8	99.300	-0.260	0.730	-0.950
2020/01/31 15:50:27.9	99.310	-0.280	0.710	-0.960
2020/01/31 15:50:28.0	99.310	-0.280	0.680	-0.960
2020/01/31 15:50:28.1	99.320	-0.290	0.650	-0.960
2020/01/31 15:50:28.2	99.320	-0.290	0.610	-0.960
2020/01/31 15:50:28.3	99.330	-0.290	0.560	-0.960
2020/01/31 15:50:28.4	99.330	-0.290	0.500	-0.950
2020/01/31 15:50:28.5	99.340	-0.280	0.440	-0.940
2020/01/31 15:50:28.6	99.350	-0.270	0.370	-0.920
2020/01/31 15:50:28.7	99.370	-0.250	0.290	-0.900
2020/01/31 15:50:28.8	99.380	-0.230	0.210	-0.880
2020/01/31 15:50:28.9	99.390	-0.210	0.130	-0.860
2020/01/31 15:50:29.0	99.400	-0.190	0.040	-0.840
2020/01/31 15:50:29.1	99.410	-0.170	-0.060	-0.820
2020/01/31 15:50:29.2	99.430	-0.140	-0.150	-0.790
2020/01/31 15:50:29.3	99.440	-0.110	-0.250	-0.770
2020/01/31 15:50:29.4	99.460	-0.080	-0.350	-0.740
2020/01/31 15:50:29.5	99.480	-0.050	-0.450	-0.710
2020/01/31 15:50:29.6	99.510	-0.010	-0.550	-0.680
2020/01/31 15:50:29.7	99.530	0.020	-0.650	-0.650
2020/01/31 15:50:29.8	99.560	0.050	-0.750	-0.610
2020/01/31 15:50:29.9	99.580	0.080	-0.840	-0.580
2020/01/31 15:50:30.0	99.610	0.120	-0.930	-0.540
2020/01/31 15:50:30.1	99.630	0.150	-1.010	-0.500
2020/01/31 15:50:30.2	99.660	0.180	-1.090	-0.460
2020/01/31 15:50:30.3	99.690	0.200	-1.160	-0.420
2020/01/31 15:50:30.4	99.710	0.230	-1.220	-0.370
2020/01/31 15:50:30.5	99.730	0.250	-1.270	-0.320
2020/01/31 15:50:30.6	99.750	0.270	-1.320	-0.270
2020/01/31 15:50:30.7	99.770	0.290	-1.360	-0.210
2020/01/31 15:50:30.8	99.790	0.300	-1.390	-0.150
2020/01/31 15:50:30.9	99.810	0.310	-1.410	-0.090
2020/01/31 15:50:31.0	99.820	0.320	-1.420	-0.020
2020/01/31 15:50:31.1	99.830	0.320	-1.420	0.050
2020/01/31 15:50:31.2	99.840	0.320	-1.410	0.130
2020/01/31 15:50:31.3	99.850	0.320	-1.390	0.200
2020/01/31 15:50:31.4	99.850	0.310	-1.360	0.290
2020/01/31 15:50:31.5	99.850	0.300	-1.330	0.370
2020/01/31 15:50:31.6	99.850	0.280	-1.280	0.460
2020/01/31 15:50:31.7	99.850	0.270	-1.220	0.560
2020/01/31 15:50:31.8	99.840	0.250	-1.160	0.650
2020/01/31 15:50:31.9	99.830	0.220	-1.090	0.750
2020/01/31 15:50:32.0	99.820	0.190	-1.020	0.840
2020/01/31 15:50:32.1	99.810	0.160	-0.940	0.940
2020/01/31 15:50:32.2	99.800	0.130	-0.860	1.040
2020/01/31 15:50:32.3	99.780	0.100	-0.770	1.140
2020/01/31 15:50:32.4	99.770	0.060	-0.680	1.240
2020/01/31 15:50:32.5	99.750	0.020	-0.580	1.340
2020/01/31 15:50:32.6	99.730	-0.020	-0.490	1.450
2020/01/31 15:50:32.7	99.710	-0.060	-0.380	1.550
2020/01/31 15:50:32.8	99.700	-0.100	-0.290	1.640
2020/01/31 15:50:32.9	99.680	-0.140	-0.190	1.740
2020/01/31 15:50:33.0	99.660	-0.180	-0.090	1.830
2020/01/31 15:50:33.1	99.640	-0.230	0.010	1.920
2020/01/31 15:50:33.2	99.620	-0.270	0.100	2.000
2020/01/31 15:50:33.3	99.600	-0.310	0.190	2.080
2020/01/31 15:50:33.4	99.580	-0.350	0.280	2.160
2020/01/31 15:50:33.5	99.560	-0.390	0.370	2.230
2020/01/31 15:50:33.6	99.550	-0.430	0.450	2.290
2020/01/31 15:50:33.7	99.530	-0.470	0.530	2.350
2020/01/31 15:50:33.8	99.520	-0.500	0.600	2.410
2020/01/31 15:50:33.9	99.500	-0.540	0.660	2.450
2020/01/31 15:50:34.0	99.490	-0.570	0.720	2.490
2020/01/31 15:50:34.1	99.480	-0.600	0.780	2.530
2020/01/31 15:50:34.2	99.470	-0.620	0.830	2.550
2020/01/31 15:50:34.3	99.460	-0.650	0.870	2.580
2020/01/31 15:50:34.4	99.450	-0.670	0.900	2.590
2020/01/31 15:50:34.5	99.440	-0.690	0.930	2.600
2020/01/31 15:50:34.6	99.440	-0.700	0.950	2.600
2020/01/31 15:50:34.7	99.440	-0.710	0.970	2.600
2020/01/31 15:50:34.8	99.440	-0.720	0.970	2.590
2020/01/31 15:50:34.9	99.430	-0.730	0.970	2.570
2020/01/31 15:50:35.0	99.430	-0.730	0.960	2.550
2020/01/31 15:50:35.1	99.430	-0.720	0.950	2.520
2020/01/31 15:50:35.2	99.430	-0.720	0.930	2.490
2020/01/31 15:50:35.3	99.430	-0.710	0.900	2.450
2020/01/31 15:50:35.4	99.440	-0.690	0.870	2.410
2020/01/31 15:50:35.5	99.440	-0.670	0.830	2.360
2020/01/31 15:50:35.6	99.450	-0.650	0.780	2.310
2020/01/31 15:50:35.7	99.450	-0.630	0.730	2.260
2020/01/31 15:50:35.8	99.460	-0.600	0.670	2.190
2020/01/31 15:50:35.9	99.470	-0.560	0.610	2.130
2020/01/31 15:50:36.0	99.480	-0.530	0.550	2.060
2020/01/31 15:50:36.1	99.490	-0.490	0.480	1.980
2020/01/31 15:50:36.2	99.510	-0.450	0.400	1.910
2020/01/31 15:50:36.3	99.520	-0.400	0.320	1.820
2020/01/31 15:50:36.4	99.540	-0.350	0.240	1.740
2020/01/31 15:50:36.5	99.560	-0.300	0.160	1.650
2020/01/31 15:50:36.6	99.580	-0.250	0.080	1.560
2020/01/31 15:50:36.7	99.590	-0.200	-0.010	1.470
2020/01/31 15:50:36.8	99.620	-0.140	-0.100	1.370
2020/01/31 15:50:36.9	99.640	-0.080	-0.180	1.270
2020/01/31 15:50:37.0	99.670	-0.030	-0.270	1.170
2020/01/31 15:50:37.1	99.690	0.030	-0.360	1.070
2020/01/31 15:50:37.2	99.720	0.090	-0.440	0.960
2020/01/31 15:50:37.3	99.740	0.150	-0.520	0.860
2020/01/31 15:50:37.4	99.770	0.210	-0.600	0.750
2020/01/31 15:50:37.5	99.800	0.260	-0.680	0.650
2020/01/31 15:50:37.6	99.820	0.320	-0.750	0.540
2020/01/31 15:50:37.7	99.850	0.370	-0.820	0.440
2020/01/31 15:50:37.8	99.870	0.430	-0.890	0.330
2020/01/31 15:50:37.9	99.890	0.480	-0.940	0.230
2020/01/31 15:50:38.0	99.920	0.520	-1.000	0.130
2020/01/31 15:50:38.1	99.940	0.570	-1.050	0.030
2020/01/31 15:50:38.2	99.960	0.610	-1.090	-0.070
2020/01/31 15:50:38.3	99.970	0.650	-1.130	-0.170
2020/01/31 15:50:38.4	99.990	0.690	-1.160	-0.260
2020/01/31 15:50:38.5	100.000	0.720	-1.190	-0.350
2020/01/31 15:50:38.6	100.010	0.750	-1.210	-0.440
2020/01/31 15:50:38.7	100.020	0.770	-1.220	-0.530
2020/01/31 15:50:38.8	100.030	0.790	-1.230	-0.610
2020/01/31 15:50:38.9	100.030	0.810	-1.230	-0.680
2020/01/31 15:50:39.0	100.040	0.820	-1.220	-0.750
2020/01/31 15:50:39.1	100.040	0.830	-1.210	-0.820
2020/01/31 15:50:39.2	100.030	0.840	-1.190	-0.890
2020/01/31 15:50:39.3	100.030	0.840	-1.160	-0.940
2020/01/31 15:50:39.4	100.030	0.840	-1.130	-1.000
2020/01/31 15:50:39.5	100.020	0.840	-1.090	-1.050
2020/01/31 15:50:39.6	100.010	0.830	-1.050	-1.090
2020/01/31 15:50:39.7	100.000	0.820	-1.000	-1.130
2020/01/31 15:50:39.8	100.000	0.800	-0.950	-1.160
2020/01/31 15:50:39.9	99.990	0.780	-0.890	-1.190
2020/01/31 15:50:40.0	99.980	0.760	-0.830	-1.210
2020/01/31 15:50:40.1	99.970	0.740	-0.760	-1.220
2020/01/31 15:50:40.2	99.960	0.710	-0.690	-1.240
2020/01/31 15:50:40.3	99.950	0.680	-0.620	-1.240
2020/01/31 15:50:40.4	99.940	0.650	-0.550	-1.240
2020/01/31 15:50:40.5	99.930	0.620	-0.470	-1.230
2020/01/31 15:50:40.6	99.920	0.590	-0.390	-1.220
2020/01/31 15:50:40.7	99.910	0.550	-0.310	-1.200
2020/01/31 15:50:40.8	99.910	0.510	-0.230	-1.180
2020/01/31 15:50:40.9	99.900	0.470	-0.150	-1.160
2020/01/31 15:50:41.0	99.900	0.430	-0.070	-1.130
2020/01/31 15:50:41.1	99.900	0.390	0.010	-1.090
2020/01/31 15:50:41.2	99.900	0.350	0.090	-1.060
2020/01/31 15:50:41.3	99.900	0.310	0.160	-1.010
2020/01/31 15:50:41.4	99.900	0.270	0.240	-0.970
2020/01/31 15:50:41.5	99.900	0.230	0.310	-0.920
2020/01/31 15:50:41.6	99.910	0.190	0.370	-0.860
2020/01/31 15:50:41.7	99.910	0.140	0.440	-0.810
2020/01/31 15:50:41.8	99.920	0.100	0.490	-0.750
2020/01/31 15:50:41.9	99.920	0.060	0.550	-0.680
2020/01/31 15:50:42.0	99.930	0.020	0.600	-0.620
2020/01/31 15:50:42.1	99.930	-0.020	0.640	-0.550
2020/01/31 15:50:42.2	99.940	-0.060	0.680	-0.470
2020/01/31 15:50:42.3	99.940	-0.100	0.710	-0.400
2020/01/31 15:50:42.4	99.950	-0.130	0.730	-0.320
2020/01/31 15:50:42.5	99.950	-0.170	0.750	-0.240
2020/01/31 15:50:42.6	99.960	-0.210	0.760	-0.160
2020/01/31 15:50:42.7	99.950	-0.240	0.770	-0.070
2020/01/31 15:50:42.8	99.960	-0.270	0.770	0.020
2020/01/31 15:50:42.9	99.960	-0.300	0.760	0.110
2020/01/31 15:50:43.0	99.960	-0.330	0.750	0.200
2020/01/31 15:50:43.1	99.960	-0.360	0.730	0.290
2020/01/31 15:50:43.2	99.960	-0.390	0.710	0.390
2020/01/31 15:50:43.3	99.960	-0.420	0.680	0.480
2020/01/31 15:50:43.4	99.960	-0.440	0.640	0.580
2020/01/31 15:50:43.5	99.960	-0.460	0.600	0.670
2020/01/31 15:50:43.6	99.950	-0.480	0.560	0.770
2020/01/31 15:50:43.7	99.950	-0.500	0.510	0.870
2020/01/31 15:50:43.8	99.950	-0.520	0.460	0.960
2020/01/31 15:50:43.9	99.950	-0.530	0.410	1.060
2020/01/31 15:50:44.0	99.940	-0.550	0.350	1.150
2020/01/31 15:50:44.1	99.940	-0.560	0.290	1.240
2020/01/31 15:50:44.2	99.930	-0.570	0.230	1.340
2020/01/31 15:50:44.3	99.930	-0.580	0.170	1.430
2020/01/31 15:50:44.4	99.920	-0.580	0.110	1.510
2020/01/31 15:50:44.5	99.910	-0.590	0.040	1.600
2020/01/31 15:50:44.6	99.910	-0.590	-0.020	1.690
2020/01/31 15:50:44.7	99.890	-0.590	-0.090	1.770
2020/01/31 15:50:44.8	99.890	-0.590	-0.150	1.850
2020/01/31 15:50:44.9	99.880	-0.580	-0.210	1.930
2020/01/31 15:50:45.0	99.880	-0.580	-0.280	2.000
2020/01/31 15:50:45.1	99.870	-0.570	-0.340	2.070
2020/01/31 15:50:45.2	99.870	-0.560	-0.400	2.140
2020/01/31 15:50:45.3	99.860	-0.550	-0.460	2.200
2020/01/31 15:50:45.4	99.860	-0.530	-0.520	2.260
2020/01/31 15:50:45.5	99.850	-0.510	-0.570	2.320
2020/01/31 15:50:45.6	99.850	-0.500	-0.630	2.370
2020/01/31 15:50:45.7	99.840	-0.480	-0.680	2.430
2020/01/31 15:50:45.8	99.830	-0.450	-0.730	2.470
2020/01/31 15:50:45.9	99.830	-0.430	-0.780	2.510
2020/01/31 15:50:46.0	99.830	-0.400	-0.830	2.550
2020/01/31 15:50:46.1	99.830	-0.380	-0.870	2.590
2020/01/31 15:50:46.2	99.830	-0.350	-0.910	2.620
2020/01/31 15:50:46.3	99.830	-0.320	-0.950	2.650
2020/01/31 15:50:46.4	99.830	-0.280	-0.990	2.680
2020/01/31 15:50:46.5	99.830	-0.250	-1.020	2.700
2020/01/31 15:50:46.6	99.840	-0.220	-1.050	2.720
2020/01/31 15:50:46.7	99.830	-0.180	-1.080	2.740
2020/01/31 15:50:46.8	99.830	-0.150	-1.100	2.750
2020/01/31 15:50:46.9	99.840	-0.110	-1.120	2.760
2020/01/31 15:50:47.0	99.840	-0.070	-1.140	2.770
2020/01/31 15:50:47.1	99.850	-0.040	-1.150	2.770
2020/01/31 15:50:47.2	99.860	0.000	-1.150	2.770
2020/01/31 15:50:47.3	99.870	0.040	-1.160	2.760
2020/01/31 15:50:47.4	99.880	0.070	-1.150	2.760
2020/01/31 15:50:47.5	99.890	0.110	-1.150	2.740
2020/01/31 15:50:47.6	99.900	0.140	-1.130	2.730
2020/01/31 15:50:47.7	99.890	0.180	-1.120	2.710
2020/01/31 15:50:47.8	99.910	0.210	-1.100	2.680
2020/01/31 15:50:47.9	99.920	0.240	-1.070	2.650
2020/01/31 15:50:48.0	99.940	0.270	-1.030	2.610
2020/01/31 15:50:48.1	99.950	0.290	-1.000	2.570
2020/01/31 15:50:48.2	99.970	0.320	-0.950	2.530
2020/01/31 15:50:48.3	99.990	0.340	-0.900	2.480
2020/01/31 15:50:48.4	100.000	0.360	-0.850	2.420
2020/01/31 15:50:48.5	100.020	0.370	-0.790	2.360
2020/01/31 15:50:48.6	100.040	0.390	-0.730	2.300
2020/01/31 15:50:48.7	100.050	0.400	-0.650	2.220
2020/01/31 15:50:48.8	100.070	0.400	-0.580	2.150
2020/01/31 15:50:48.9	100.080	0.410	-0.500	2.070
2020/01/31 15:50:49.0	100.090	0.410	-0.420	1.990
2020/01/31 15:50:49.1	100.110	0.410	-0.330	1.900
2020/01/31 15:50:49.2	100.120	0.400	-0.240	1.810
2020/01/31 15:50:49.3	100.130	0.390	-0.150	1.710
2020/01/31 15:50:49.4	100.140	0.380	-0.060	1.620
2020/01/31 15:50:49.5	100.150	0.370	0.040	1.510
2020/01/31 15:50:49.6	100.150	0.350	0.140	1.410
2020/01/31 15:50:49.7	100.170	0.330	0.240	1.310
2020/01/31 15:50:49.8	100.170	0.310	0.340	1.200
2020/01/31 15:50:49.9	100.180	0.280	0.430	1.090
2020/01/31 15:50:50.0	100.180	0.250	0.530	0.980
2020/01/31 15:50:50.1	100.180	0.230	0.620	0.870
2020/01/31 15:50:50.2	100.190	0.190	0.710	0.760
2020/01/31 15:50:50.3	100.190	0.160	0.800	0.650
2020/01/31 15:50:50.4	100.190	0.130	0.880	0.540
2020/01/31 15:50:50.5	100.190	0.100	0.960	0.430
2020/01/31 15:50:50.6	100.200	0.060	1.030	0.320
2020/01/31 15:50:50.7	100.220	0.030	1.100	0.210
2020/01/31 15:50:50.8	100.220	-0.010	1.160	0.100
2020/01/31 15:50:50.9	100.230	-0.040	1.210	-0.010
2020/01/31 15:50:51.0	100.230	-0.080	1.250	-0.110
2020/01/31 15:50:51.1	100.240	-0.110	1.290	-0.220
2020/01/31 15:50:51.2	100.250	-0.140	1.310	-0.320
2020/01/31 15:50:51.3	100.250	-0.170	1.330	-0.420
2020/01/31 15:50:51.4	100.260	-0.200	1.340	-0.510
2020/01/31 15:50:51.5	100.270	-0.220	1.330	-0.610
2020/01/31 15:50:51.6	100.280	-0.250	1.320	-0.700
2020/01/31 15:50:51.7	100.300	-0.270	1.300	-0.780
2020/01/31 15:50:51.8	100.310	-0.280	1.260	-0.870
2020/01/31 15:50:51.9	100.320	-0.300	1.220	-0.950
2020/01/31 15:50:52.0	100.330	-0.310	1.170	-1.030
2020/01/31 15:50:52.1	100.340	-0.320	1.100	-1.100
2020/01/31 15:50:52.2	100.350	-0.320	1.030	-1.170
2020/01/31 15:50:52.3	100.360	-0.320	0.940	-1.230
2020/01/31 15:50:52.4	100.370	-0.320	0.850	-1.290
2020/01/31 15:50:52.5	100.380	-0.310	0.750	-1.350
2020/01/31 15:50:52.6	100.390	-0.310	0.640	-1.400
2020/01/31 15:50:52.7	100.400	-0.290	0.520	-1.450
2020/01/31 15:50:52.8	100.400	-0.270	0.400	-1.490
2020/01/31 15:50:52.9	100.410	-0.250	0.270	-1.530
2020/01/31 15:50:53.0	100.410	-0.230	0.130	-1.560
2020/01/31 15:50:53.1	100.410	-0.210	-0.000	-1.580
2020/01/31 15:50:53.2	100.410	-0.180	-0.140	-1.610
2020/01/31 15:50:53.3	100.400	-0.140	-0.280	-1.620
2020/01/31 15:50:53.4	100.400	-0.110	-0.430	-1.630
2020/01/31 15:50:53.5	100.390	-0.080	-0.570	-1.630
2020/01/31 15:50:53.6	100.380	-0.040	-0.710	-1.630
2020/01/31 15:50:53.7	100.380	0.000	-0.850	-1.620
2020/01/31 15:50:53.8	100.370	0.040	-0.980	-1.600
2020/01/31 15:50:53.9	100.350	0.080	-1.110	-1.580
2020/01/31 15:50:54.0	100.330	0.120	-1.240	-1.550
2020/01/31 15:50:54.1	100.320	0.160	-1.350	-1.520
2020/01/31 15:50:54.2	100.300	0.200	-1.460	-1.490
2020/01/31 15:50:54.3	100.280	0.240	-1.560	-1.440
2020/01/31 15:50:54.4	100.260	0.280	-1.660	-1.400
2020/01/31 15:50:54.5	100.240	0.320	-1.740	-1.350
2020/01/31 15:50:54.6	100.220	0.350	-1.800	-1.290
2020/01/31 15:50:54.7	100.200	0.380	-1.870	-1.230
2020/01/31 15:50:54.8	100.180	0.410	-1.910	-1.170
2020/01/31 15:50:54.9	100.160	0.440	-1.940	-1.110
2020/01/31 15:50:55.0	100.150	0.470	-1.960	-1.040
2020/01/31 15:50:55.1	100.130	0.490	-1.970	-0.970
2020/01/31 15:50:55.2	100.110	0.500	-1.970	-0.890
2020/01/31 15:50:55.3	100.090	0.520	-1.950	-0.820
2020/01/31 15:50:55.4	100.070	0.530	-1.920	-0.740
2020/01/31 15:50:55.5	100.060	0.530	-1.870	-0.660
2020/01/31 15:50:55.6	100.040	0.530	-1.820	-0.580
2020/01/31 15:50:55.7	100.030	0.530	-1.750	-0.490
2020/01/31 15:50:55.8	100.010	0.520	-1.670	-0.410
2020/01/31 15:50:55.9	100.000	0.510	-1.580	-0.320
2020/01/31 15:50:56.0	99.990	0.500	-1.490	-0.240
2020/01/31 15:50:56.1	99.970	0.480	-1.380	-0.150
2020/01/31 15:50:56.2	99.960	0.450	-1.270	-0.070
2020/01/31 15:50:56.3	99.950	0.430	-1.160	0.020
2020/01/31 15:50:56.4	99.940	0.400	-1.030	0.110
2020/01/31 15:50:56.5	99.930	0.360	-0.910	0.190
2020/01/31 15:50:56.6	99.930	0.330	-0.780	0.280
2020/01/31 15:50:56.7	99.910	0.290	-0.640	0.370
2020/01/31 15:50:56.8	99.900	0.250	-0.500	0.460
2020/01/31 15:50:56.9	99.900	0.210	-0.370	0.540
2020/01/31 15:50:57.0	99.890	0.160	-0.240	0.630
2020/01/31 15:50:57.1	99.890	0.120	-0.100	0.710
2020/01/31 15:50:57.2	99.890	0.070	0.030	0.790
2020/01/31 15:50:57.3	99.890	0.030	0.150	0.860
2020/01/31 15:50:57.4	99.890	-0.020	0.270	0.930
2020/01/31 15:50:57.5	99.900	-0.070	0.390	1.010
2020/01/31 15:50:57.6	99.910	-0.110	0.500	1.070
2020/01/31 15:50:57.7	99.910	-0.160	0.610	1.140
2020/01/31 15:50:57.8	99.920	-0.200	0.710	1.200
2020/01/31 15:50:57.9	99.940	-0.240	0.800	1.260
2020/01/31 15:50:58.0	99.950	-0.280	0.880	1.310
2020/01/31 15:50:58.1	99.970	-0.310	0.960	1.360
2020/01/31 15:50:58.2	99.990	-0.350	1.020	1.410
2020/01/31 15:50:58.3	100.010	-0.380	1.080	1.450
2020/01/31 15:50:58.4	100.040	-0.410	1.130	1.480
2020/01/31 15:50:58.5	100.060	-0.430	1.170	1.520
2020/01/31 15:50:58.6	100.090	-0.450	1.200	1.550
2020/01/31 15:50:58.7	100.120	-0.470	1.220	1.580
2020/01/31 15:50:58.8	100.150	-0.480	1.230	1.600
2020/01/31 15:50:58.9	100.180	-0.490	1.240	1.620
2020/01/31 15:50:59.0	100.210	-0.500	1.230	1.640
2020/01/31 15:50:59.1	100.240	-0.500	1.210	1.650
2020/01/31 15:50:59.2	100.280	-0.500	1.190	1.660
2020/01/31 15:50:59.3	100.310	-0.490	1.150	1.670
2020/01/31 15:50:59.4	100.340	-0.490	1.110	1.680
2020/01/31 15:50:59.5	100.380	-0.470	1.060	1.690
2020/01/31 15:50:59.6	100.410	-0.460	1.010	1.690
2020/01/31 15:50:59.7	100.450	-0.440	0.950	1.700
2020/01/31 15:50:59.8	100.480	-0.420	0.880	1.700
2020/01/31 15:50:59.9	100.500	-0.390	0.800	1.710
2020/01/31 15:51:00.0	100.530	-0.370	0.730	1.710
2020/01/31 15:51:00.1	100.560	-0.340	0.640	1.710
2020/01/31 15:51:00.2	100.580	-0.310	0.560	1.710
2020/01/31 15:51:00.3	100.600	-0.280	0.470	1.720
2020/01/31 15:51:00.4	100.620	-0.240	0.370	1.720
2020/01/31 15:51:00.5	100.640	-0.210	0.280	1.720
2020/01/31 15:51:00.6	100.650	-0.170	0.190	1.730
2020/01/31 15:51:00.7	100.670	-0.140	0.090	1.730
2020/01/31 15:51:00.8	100.680	-0.100	-0.010	1.740
2020/01/31 15:51:00.9	100.690	-0.070	-0.100	1.740
2020/01/31 15:51:01.0	100.700	-0.030	-0.190	1.740
2020/01/31 15:51:01.1	100.700	0.000	-0.290	1.750
2020/01/31 15:51:01.2	100.700	0.030	-0.380	1.750
2020/01/31 15:51:01.3	100.700	0.070	-0.460	1.750
2020/01/31 15:51:01.4	100.700	0.100	-0.550	1.750
2020/01/31 15:51:01.5	100.700	0.130	-0.630	1.750
2020/01/31 15:51:01.6	100.700	0.150	-0.700	1.750
2020/01/31 15:51:01.7	100.700	0.180	-0.780	1.750
2020/01/31 15:51:01.8	100.700	0.200	-0.840	1.740
2020/01/31 15:51:01.9	100.690	0.230	-0.900	1.740
2020/01/31 15:51:02.0	100.690	0.250	-0.960	1.730
2020/01/31 15:51:02.1	100.680	0.260	-1.010	1.730
2020/01/31 15:51:02.2	100.680	0.280	-1.050	1.720
2020/01/31 15:51:02.3	100.670	0.290	-1.090	1.710
2020/01/31 15:51:02.4	100.670	0.300	-1.120	1.700
2020/01/31 15:51:02.5	100.660	0.310	-1.150	1.690
2020/01/31 15:51:02.6	100.660	0.320	-1.170	1.680
2020/01/31 15:51:02.7	100.640	0.320	-1.170	1.670
2020/01/31 15:51:02.8	100.630	0.320	-1.180	1.660
2020/01/31 15:51:02.9	100.620	0.320	-1.180	1.650
2020/01/31 15:51:03.0	100.610	0.310	-1.170	1.640
2020/01/31 15:51:03.1	100.610	0.300	-1.160	1.630
2020/01/31 15:51:03.2	100.600	0.290	-1.150	1.620
2020/01/31 15:51:03.3	100.590	0.280	-1.120	1.610
2020/01/31 15:51:03.4	100.580	0.270	-1.090	1.600
2020/01/31 15:51:03.5	100.570	0.250	-1.060	1.590
2020/01/31 15:51:03.6	100.560	0.240	-1.020	1.570
2020/01/31 15:51:03.7	100.540	0.220	-0.980	1.560
2020/01/31 15:51:03.8	100.530	0.190	-0.930	1.550
2020/01/31 15:51:03.9	100.510	0.170	-0.880	1.530
2020/01/31 15:51:04.0	100.500	0.150	-0.830	1.510
2020/01/31 15:51:04.1	100.490	0.120	-0.770	1.490
2020/01/31 15:51:04.2	100.470	0.100	-0.710	1.470
2020/01/31 15:51:04.3	100.450	0.070	-0.640	1.450
2020/01/31 15:51:04.4	100.440	0.040	-0.570	1.430
2020/01/31 15:51:04.5	100.420	0.020	-0.510	1.400
2020/01/31 15:51:04.6	100.400	-0.010	-0.440	1.370
2020/01/31 15:51:04.7	100.360	-0.040	-0.360	1.350
2020/01/31 15:51:04.8	100.340	-0.060	-0.290	1.320
2020/01/31 15:51:04.9	100.320	-0.090	-0.220	1.280
2020/01/31 15:51:05.0	100.300	-0.120	-0.150	1.240
2020/01/31 15:51:05.1	100.280	-0.140	-0.080	1.210
2020/01/31 15:51:05.2	100.260	-0.160	-0.010	1.160
2020/01/31 15:51:05.3	100.240	-0.180	0.050	1.120
2020/01/31 15:51:05.4	100.220	-0.200	0.120	1.070
2020/01/31 15:51:05.5	100.210	-0.220	0.180	1.020
2020/01/31 15:51:05.6	100.190	-0.240	0.230	0.970
2020/01/31 15:51:05.7	100.180	-0.250	0.290	0.910
2020/01/31 15:51:05.8	100.170	-0.270	0.340	0.840
2020/01/31 15:51:05.9	100.160	-0.280	0.380	0.780
2020/01/31 15:51:06.0	100.160	-0.290	0.420	0.710
2020/01/31 15:51:06.1	100.160	-0.290	0.450	0.630
2020/01/31 15:51:06.2	100.160	-0.300	0.480	0.550
2020/01/31 15:51:06.3	100.170	-0.300	0.500	0.470
2020/01/31 15:51:06.4	100.170	-0.300	0.520	0.380
2020/01/31 15:51:06.5	100.180	-0.300	0.530	0.290
2020/01/31 15:51:06.6	100.200	-0.300	0.530	0.200
2020/01/31 15:51:06.7	100.230	-0.300	0.530	0.110
2020/01/31 15:51:06.8	100.250	-0.290	0.530	0.020
2020/01/31 15:51:06.9	100.260	-0.280	0.510	-0.080
2020/01/31 15:51:07.0	100.290	-0.280	0.500	-0.170
2020/01/31 15:51:07.1	100.310	-0.270	0.480	-0.270
2020/01/31 15:51:07.2	100.330	-0.250	0.450	-0.360
2020/01/31 15:51:07.3	100.350	-0.240	0.420	-0.450
2020/01/31 15:51:07.4	100.380	-0.230	0.390	-0.540
2020/01/31 15:51:07.5	100.400	-0.210	0.360	-0.620
2020/01/31 15:51:07.6	100.430	-0.190	0.320	-0.700
2020/01/31 15:51:07.7	100.440	-0.180	0.280	-0.780
2020/01/31 15:51:07.8	100.460	-0.160	0.240	-0.850
2020/01/31 15:51:07.9	100.490	-0.140	0.200	-0.910
2020/01/31 15:51:08.0	100.510	-0.120	0.160	-0.970
2020/01/31 15:51:08.1	100.530	-0.100	0.120	-1.020
2020/01/31 15:51:08.2	100.550	-0.090	0.070	-1.070
2020/01/31 15:51:08.3	100.570	-0.070	0.030	-1.110
2020/01/31 15:51:08.4	100.580	-0.050	-0.010	-1.150
2020/01/31 15:51:08.5	100.600	-0.030	-0.050	-1.180
2020/01/31 15:51:08.6	100.610	-0.010	-0.090	-1.200
2020/01/31 15:51:08.7	100.620	0.000	-0.130	-1.220
2020/01/31 15:51:08.8	100.630	0.020	-0.160	-1.230
2020/01/31 15:51:08.9	100.640	0.030	-0.200	-1.240
2020/01/31 15:51:09.0	100.650	0.050	-0.230	-1.240
2020/01/31 15:51:09.1	100.650	0.060	-0.260	-1.240
2020/01/31 15:51:09.2	100.660	0.070	-0.280	-1.230
2020/01/31 15:51:09.3	100.660	0.080	-0.310	-1.220
2020/01/31 15:51:09.4	100.660	0.090	-0.330	-1.200
2020/01/31 15:51:09.5	100.660	0.090	-0.350	-1.180
2020/01/31 15:51:09.6	100.660	0.100	-0.360	-1.160
2020/01/31 15:51:09.7	100.650	0.110	-0.370	-1.130
2020/01/31 15:51:09.8	100.640	0.110	-0.380	-1.100
2020/01/31 15:51:09.9	100.630	0.110	-0.390	-1.070
2020/01/31 15:51:10.0	100.630	0.110	-0.390	-1.040
2020/01/31 15:51:10.1	100.620	0.110	-0.390	-1.000
2020/01/31 15:51:10.2	100.610	0.110	-0.400	-0.970
2020/01/31 15:51:10.3	100.600	0.110	-0.390	-0.930
2020/01/31 15:51:10.4	100.590	0.110	-0.390	-0.890
2020/01/31 15:51:10.5	100.580	0.110	-0.390	-0.850
2020/01/31 15:51:10.6	100.570	0.110	-0.380	-0.810
2020/01/31 15:51:10.7	100.550	0.110	-0.370	-0.770
2020/01/31 15:51:10.8	100.540	0.110	-0.370	-0.730
2020/01/31 15:51:10.9	100.530	0.110	-0.360	-0.680
2020/01/31 15:51:11.0	100.520	0.110	-0.360	-0.640
2020/01/31 15:51:11.1	100.510	0.110	-0.350	-0.590
2020/01/31 15:51:11.2	100.500	0.120	-0.350	-0.550
2020/01/31 15:51:11.3	100.490	0.120	-0.350	-0.500
2020/01/31 15:51:11.4	100.480	0.120	-0.350	-0.450
2020/01/31 15:51:11.5	100.480	0.130	-0.350	-0.390
2020/01/31 15:51:11.6	100.470	0.140	-0.350	-0.340
2020/01/31 15:51:11.7	100.460	0.150	-0.350	-0.280
2020/01/31 15:51:11.8	100.460	0.160	-0.360	-0.220
2020/01/31 15:51:11.9	100.460	0.170	-0.360	-0.150
2020/01/31 15:51:12.0	100.450	0.180	-0.370	-0.090
2020/01/31 15:51:12.1	100.450	0.190	-0.380	-0.020
2020/01/31 15:51:12.2	100.450	0.200	-0.390	0.060
2020/01/31 15:51:12.3	100.450	0.220	-0.400	0.130
2020/01/31 15:51:12.4	100.450	0.230	-0.410	0.210
2020/01/31 15:51:12.5	100.450	0.250	-0.420	0.300
2020/01/31 15:51:12.6	100.450	0.260	-0.440	0.380
2020/01/31 15:51:12.7	100.450	0.280	-0.450	0.480
2020/01/31 15:51:12.8	100.450	0.290	-0.460	0.570
2020/01/31 15:51:12.9	100.450	0.310	-0.470	0.670
2020/01/31 15:51:13.0	100.450	0.320	-0.480	0.770
2020/01/31 15:51:13.1	100.450	0.330	-0.490	0.870
2020/01/31 15:51:13.2	100.460	0.340	-0.500	0.970
2020/01/31 15:51:13.3	100.460	0.350	-0.510	1.080
2020/01/31 15:51:13.4	100.460	0.360	-0.510	1.180
2020/01/31 15:51:13.5	100.460	0.360	-0.520	1.290
2020/01/31 15:51:13.6	100.470	0.370	-0.520	1.390
2020/01/31 15:51:13.7	100.470	0.370	-0.510	1.500
2020/01/31 15:51:13.8	100.470	0.370	-0.510	1.600
2020/01/31 15:51:13.9	100.480	0.360	-0.500	1.700
2020/01/31 15:51:14.0	100.480	0.350	-0.490	1.800
2020/01/31 15:51:14.1	100.480	0.340	-0.480	1.900
2020/01/31 15:51:14.2	100.480	0.330	-0.460	1.990
2020/01/31 15:51:14.3	100.480	0.320	-0.440	2.080
2020/01/31 15:51:14.4	100.480	0.300	-0.420	2.170
2020/01/31 15:51:14.5	100.480	0.280	-0.390	2.250
2020/01/31 15:51:14.6	100.480	0.260	-0.360	2.320
2020/01/31 15:51:14.7	100.480	0.230	-0.330	2.400
2020/01/31 15:51:14.8	100.480	0.200	-0.290	2.470
2020/01/31 15:51:14.9	100.470	0.180	-0.260	2.530
2020/01/31 15:51:15.0	100.470	0.150	-0.220	2.580
2020/01/31 15:51:15.1	100.470	0.110	-0.170	2.630
2020/01/31 15:51:15.2	100.460	0.080	-0.130	2.680
2020/01/31 15:51:15.3	100.450	0.050	-0.090	2.720
2020/01/31 15:51:15.4	100.450	0.010	-0.050	2.750
2020/01/31 15:51:15.5	100.440	-0.020	-0.000	2.780
2020/01/31 15:51:15.6	100.430	-0.060	0.040	2.800
2020/01/31 15:51:15.7	100.430	-0.090	0.090	2.820
2020/01/31 15:51:15.8	100.410	-0.120	0.130	2.830
2020/01/31 15:51:15.9	100.400	-0.150	0.170	2.840
2020/01/31 15:51:16.0	100.380	-0.180	0.210	2.850
2020/01/31 15:51:16.1	100.370	-0.210	0.240	2.840
2020/01/31 15:51:16.2	100.350	-0.240	0.270	2.840
2020/01/31 15:51:16.3	100.330	-0.260	0.300	2.830
2020/01/31 15:51:16.4	100.310	-0.280	0.320	2.810
2020/01/31 15:51:16.5	100.280	-0.300	0.350	2.790
2020/01/31 15:51:16.6	100.260	-0.320	0.360	2.760
2020/01/31 15:51:16.7	100.240	-0.330	0.370	2.740
2020/01/31 15:51:16.8	100.220	-0.340	0.380	2.710
2020/01/31 15:51:16.9	100.200	-0.350	0.390	2.670
2020/01/31 15:51:17.0	100.170	-0.360	0.390	2.630
2020/01/31 15:51:17.1	100.150	-0.360	0.380	2.580
2020/01/31 15:51:17.2	100.130	-0.360	0.370	2.530
2020/01/31 15:51:17.3	100.110	-0.360	0.360	2.480
2020/01/31 15:51:17.4	100.090	-0.350	0.340	2.420
2020/01/31 15:51:17.5	100.070	-0.340	0.320	2.350
2020/01/31 15:51:17.6	100.050	-0.330	0.290	2.290
2020/01/31 15:51:17.7	100.040	-0.320	0.270	2.210
2020/01/31 15:51:17.8	100.030	-0.300	0.230	2.140
2020/01/31 15:51:17.9	100.020	-0.290	0.200	2.060
2020/01/31 15:51:18.0	100.010	-0.270	0.160	1.980
2020/01/31 15:51:18.1	100.000	-0.250	0.120	1.890
2020/01/31 15:51:18.2	100.000	-0.230	0.080	1.800
2020/01/31 15:51:18.3	99.990	-0.210	0.030	1.710
2020/01/31 15:51:18.4	99.990	-0.180	-0.010	1.620
2020/01/31 15:51:18.5	99.990	-0.160	-0.060	1.520
2020/01/31 15:51:18.6	100.000	-0.140	-0.100	1.420
2020/01/31 15:51:18.7	100.000	-0.110	-0.150	1.330
2020/01/31 15:51:18.8	100.000	-0.090	-0.200	1.230
2020/01/31 15:51:18.9	100.010	-0.070	-0.240	1.120
2020/01/31 15:51:19.0	100.020	-0.040	-0.290	1.020
2020/01/31 15:51:19.1	100.030	-0.020	-0.330	0.920
2020/01/31 15:51:19.2	100.040	-0.000	-0.370	0.820
2020/01/31 15:51:19.3	100.050	0.020	-0.410	0.720
2020/01/31 15:51:19.4	100.060	0.040	-0.450	0.620
2020/01/31 15:51:19.5	100.070	0.060	-0.480	0.520
2020/01/31 15:51:19.6	100.080	0.070	-0.510	0.420
2020/01/31 15:51:19.7	100.110	0.090	-0.540	0.330
2020/01/31 15:51:19.8	100.120	0.100	-0.560	0.230
2020/01/31 15:51:19.9	100.130	0.110	-0.580	0.140
2020/01/31 15:51:20.0	100.130	0.120	-0.600	0.050
2020/01/31 15:51:20.1	100.140	0.130	-0.610	-0.040
2020/01/31 15:51:20.2	100.150	0.140	-0.620	-0.130
2020/01/31 15:51:20.3	100.150	0.140	-0.620	-0.210
2020/01/31 15:51:20.4	100.160	0.140	-0.620	-0.300
2020/01/31 15:51:20.5	100.170	0.140	-0.610	-0.380
2020/01/31 15:51:20.6	100.170	0.140	-0.600	-0.460
2020/01/31 15:51:20.7	100.180	0.140	-0.590	-0.530
2020/01/31 15:51:20.8	100.180	0.130	-0.580	-0.610
2020/01/31 15:51:20.9	100.180	0.120	-0.560	-0.680
2020/01/31 15:51:21.0	100.190	0.110	-0.530	-0.750
2020/01/31 15:51:21.1	100.190	0.100	-0.510	-0.820
2020/01/31 15:51:21.2	100.190	0.090	-0.480	-0.890
2020/01/31 15:51:21.3	100.190	0.070	-0.450	-0.950
2020/01/31 15:51:21.4	100.190	0.060	-0.410	-1.010
2020/01/31 15:51:21.5	100.190	0.040	-0.380	-1.070
2020/01/31 15:51:21.6	100.200	0.030	-0.340	-1.130
2020/01/31 15:51:21.7	100.200	0.010	-0.300	-1.180
2020/01/31 15:51:21.8	100.200	-0.010	-0.270	-1.230
2020/01/31 15:51:21.9	100.200	-0.030	-0.230	-1.280
2020/01/31 15:51:22.0	100.190	-0.050	-0.200	-1.320
2020/01/31 15:51:22.1	100.190	-0.070	-0.160	-1.360
2020/01/31 15:51:22.2	100.190	-0.090	-0.130	-1.390
2020/01/31 15:51:22.3	100.190	-0.110	-0.100	-1.420
2020/01/31 15:51:22.4	100.180	-0.120	-0.070	-1.440
2020/01/31 15:51:22.5	100.180	-0.140	-0.040	-1.460
2020/01/31 15:51:22.6	100.170	-0.160	-0.020	-1.480
2020/01/31 15:51:22.7	100.160	-0.170	0.000	-1.480
2020/01/31 15:51:22.8	100.150	-0.190	0.020	-1.480
2020/01/31 15:51:22.9	100.140	-0.200	0.030	-1.480
2020/01/31 15:51:23.0	100.130	-0.210	0.040	-1.470
2020/01/31 15:51:23.1	100.120	-0.220	0.050	-1.450
2020/01/31 15:51:23.2	100.110	-0.230	0.060	-1.430
2020/01/31 15:51:23.3	100.090	-0.240	0.060	-1.400
2020/01/31 15:51:23.4	100.080	-0.250	0.050	-1.370
2020/01/31 15:51:23.5	100.060	-0.250	0.050	-1.330
2020/01/31 15:51:23.6	100.050	-0.260	0.040	-1.290
2020/01/31 15:51:23.7	100.030	-0.260	0.030	-1.230
2020/01/31 15:51:23.8	100.010	-0.260	0.020	-1.180
2020/01/31 15:51:23.9	99.990	-0.260	-0.000	-1.120
2020/01/31 15:51:24.0	99.980	-0.260	-0.020	-1.050
2020/01/31 15:51:24.1	99.960	-0.250	-0.040	-0.980
2020/01/31 15:51:24.2	99.950	-0.250	-0.060	-0.910
2020/01/31 15:51:24.3	99.930	-0.240	-0.080	-0.830
2020/01/31 15:51:24.4	99.920	-0.240	-0.100	-0.750
2020/01/31 15:51:24.5	99.910	-0.230	-0.130	-0.670
2020/01/31 15:51:24.6	99.900	-0.220	-0.150	-0.590
2020/01/31 15:51:24.7	99.900	-0.210	-0.170	-0.500
2020/01/31 15:51:24.8	99.890	-0.200	-0.190	-0.410
2020/01/31 15:51:24.9	99.890	-0.190	-0.210	-0.330
2020/01/31 15:51:25.0	99.890	-0.180	-0.230	-0.240
2020/01/31 15:51:25.1	99.890	-0.170	-0.250	-0.150
2020/01/31 15:51:25.2	99.890	-0.160	-0.270	-0.070
2020/01/31 15:51:25.3	99.900	-0.140	-0.280	0.020
2020/01/31 15:51:25.4	99.900	-0.130	-0.300	0.110
2020/01/31 15:51:25.5	99.910	-0.120	-0.310	0.190
2020/01/31 15:51:25.6	99.920	-0.110	-0.310	0.280
2020/01/31 15:51:25.7	99.930	-0.100	-0.320	0.370
2020/01/31 15:51:25.8	99.940	-0.080	-0.320	0.450
2020/01/31 15:51:25.9	99.950	-0.070	-0.320	0.530
2020/01/31 15:51:26.0	99.960	-0.060	-0.320	0.610
2020/01/31 15:51:26.1	99.980	-0.050	-0.310	0.680
2020/01/31 15:51:26.2	99.990	-0.040	-0.300	0.760
2020/01/31 15:51:26.3	100.000	-0.030	-0.290	0.830
2020/01/31 15:51:26.4	100.010	-0.020	-0.280	0.900
2020/01/31 15:51:26.5	100.030	-0.020	-0.260	0.970
2020/01/31 15:51:26.6	100.040	-0.010	-0.250	1.030
2020/01/31 15:51:26.7	100.060	0.000	-0.230	1.100
2020/01/31 15:51:26.8	100.070	0.010	-0.210	1.160
2020/01/31 15:51:26.9	100.080	0.020	-0.190	1.220
2020/01/31 15:51:27.0	100.090	0.020	-0.170	1.270
2020/01/31 15:51:27.1	100.090	0.030	-0.140	1.330
2020/01/31 15:51:27.2	100.100	0.040	-0.120	1.380
2020/01/31 15:51:27.3	100.110	0.040	-0.100	1.430
2020/01/31 15:51:27.4	100.110	0.050	-0.070	1.470
2020/01/31 15:51:27.5	100.110	0.060	-0.050	1.520
2020/01/31 15:51:27.6	100.120	0.060	-0.030	1.560
2020/01/31 15:51:27.7	100.100	0.070	-0.000	1.600
2020/01/31 15:51:27.8	100.100	0.080	0.020	1.640
2020/01/31 15:51:27.9	100.100	0.080	0.030	1.680
2020/01/31 15:51:28.0	100.090	0.090	0.050	1.710
2020/01/31 15:51:28.1	100.090	0.100	0.060	1.750
2020/01/31 15:51:28.2	100.090	0.110	0.070	1.780
2020/01/31 15:51:28.3	100.080	0.120	0.080	1.810
2020/01/31 15:51:28.4	100.070	0.130	0.080	1.840
2020/01/31 15:51:28.5	100.070	0.140	0.090	1.860
2020/01/31 15:51:28.6	100.060	0.150	0.080	1.890
2020/01/31 15:51:28.7	100.060	0.160	0.080	1.910
2020/01/31 15:51:28.8	100.050	0.170	0.070	1.930
2020/01/31 15:51:28.9	100.040	0.180	0.060	1.950
2020/01/31 15:51:29.0	100.030	0.190	0.050	1.970
2020/01/31 15:51:29.1	100.020	0.200	0.030	1.990
2020/01/31 15:51:29.2	100.010	0.210	0.010	2.010
2020/01/31 15:51:29.3	100.000	0.220	-0.020	2.020
2020/01/31 15:51:29.4	100.000	0.230	-0.040	2.030
2020/01/31 15:51:29.5	99.990	0.240	-0.070	2.040
2020/01/31 15:51:29.6	99.980	0.250	-0.110	2.050
2020/01/31 15:51:29.7	99.970	0.260	-0.140	2.060
2020/01/31 15:51:29.8	99.960	0.270	-0.170	2.070
2020/01/31 15:51:29.9	99.950	0.280	-0.210	2.070
2020/01/31 15:51:30.0	99.950	0.290	-0.250	2.070
2020/01/31 15:51:30.1	99.940	0.300	-0.280	2.070
2020/01/31 15:51:30.2	99.940	0.300	-0.320	2.070
2020/01/31 15:51:30.3	99.930	0.310	-0.360	2.060
2020/01/31 15:51:30.4	99.930	0.310	-0.400	2.050
2020/01/31 15:51:30.5	99.930	0.320	-0.430	2.040
2020/01/31 15:51:30.6	99.930	0.320	-0.470	2.020
2020/01/31 15:51:30.7	99.930	0.320	-0.500	2.000
2020/01/31 15:51:30.8	99.930	0.320	-0.530	1.980
2020/01/31 15:51:30.9	99.930	0.320	-0.560	1.950
2020/01/31 15:51:31.0	99.930	0.320	-0.580	1.920
2020/01/31 15:51:31.1	99.940	0.310	-0.610	1.880
2020/01/31 15:51:31.2	99.940	0.310	-0.630	1.850
2020/01/31 15:51:31.3	99.950	0.300	-0.640	1.800
2020/01/31 15:51:31.4	99.960	0.290	-0.660	1.760
2020/01/31 15:51:31.5	99.960	0.280	-0.660	1.710
2020/01/31 15:51:31.6	99.970	0.270	-0.670	1.660
2020/01/31 15:51:31.7	99.980	0.260	-0.670	1.610
2020/01/31 15:51:31.8	99.990	0.250	-0.670	1.550
2020/01/31 15:51:31.9	99.990	0.240	-0.660	1.490
2020/01/31 15:51:32.0	100.000	0.220	-0.650	1.430
2020/01/31 15:51:32.1	100.010	0.210	-0.640	1.360
2020/01/31 15:51:32.2	100.020	0.190	-0.620	1.300
2020/01/31 15:51:32.3	100.020	0.170	-0.610	1.230
2020/01/31 15:51:32.4	100.030	0.160	-0.580	1.170
2020/01/31 15:51:32.5	100.040	0.140	-0.560	1.100
2020/01/31 15:51:32.6	100.050	0.120	-0.530	1.030
2020/01/31 15:51:32.7	100.050	0.100	-0.500	0.960
2020/01/31 15:51:32.8	100.060	0.090	-0.470	0.890
2020/01/31 15:51:32.9	100.070	0.070	-0.430	0.820
2020/01/31 15:51:33.0	100.080	0.050	-0.400	0.750
2020/01/31 15:51:33.1	100.090	0.030	-0.360	0.680
2020/01/31 15:51:33.2	100.100	0.020	-0.330	0.610
2020/01/31 15:51:33.3	100.110	-0.000	-0.290	0.550
2020/01/31 15:51:33.4	100.120	-0.020	-0.250	0.480
2020/01/31 15:51:33.5	100.130	-0.030	-0.210	0.410
2020/01/31 15:51:33.6	100.140	-0.050	-0.170	0.350
2020/01/31 15:51:33.7	100.140	-0.070	-0.130	0.290
2020/01/31 15:51:33.8	100.150	-0.080	-0.090	0.230
2020/01/31 15:51:33.9	100.160	-0.100	-0.040	0.170
2020/01/31 15:51:34.0	100.170	-0.110	-0.000	0.110
2020/01/31 15:51:34.1	100.170	-0.130	0.040	0.060
2020/01/31 15:51:34.2	100.180	-0.140	0.080	0.000
2020/01/31 15:51:34.3	100.190	-0.150	0.120	-0.040
2020/01/31 15:51:34.4	100.200	-0.170	0.160	-0.090
2020/01/31 15:51:34.5	100.210	-0.180	0.200	-0.140
2020/01/31 15:51:34.6	100.210	-0.190	0.230	-0.180
2020/01/31 15:51:34.7	100.230	-0.200	0.270	-0.210
2020/01/31 15:51:34.8	100.230	-0.210	0.300	-0.250
2020/01/31 15:51:34.9	100.240	-0.220	0.330	-0.280
2020/01/31 15:51:35.0	100.240	-0.230	0.360	-0.320
2020/01/31 15:51:35.1	100.250	-0.240	0.390	-0.350
2020/01/31 15:51:35.2	100.250	-0.250	0.410	-0.380
2020/01/31 15:51:35.3	100.260	-0.250	0.430	-0.400
2020/01/31 15:51:35.4	100.270	-0.260	0.450	-0.430
2020/01/31 15:51:35.5	100.270	-0.260	0.460	-0.450
2020/01/31 15:51:35.6	100.280	-0.270	0.470	-0.470
2020/01/31 15:51:35.7	100.280	-0.270	0.480	-0.490
2020/01/31 15:51:35.8	100.290	-0.270	0.480	-0.510
2020/01/31 15:51:35.9	100.300	-0.270	0.480	-0.520
2020/01/31 15:51:36.0	100.310	-0.270	0.470	-0.540
2020/01/31 15:51:36.1	100.310	-0.270	0.460	-0.550
2020/01/31 15:51:36.2	100.320	-0.270	0.450	-0.560
2020/01/31 15:51:36.3	100.330	-0.260	0.430	-0.570
2020/01/31 15:51:36.4	100.340	-0.260	0.410	-0.580
2020/01/31 15:51:36.5	100.360	-0.250	0.390	-0.580
2020/01/31 15:51:36.6	100.370	-0.250	0.360	-0.580
2020/01/31 15:51:36.7	100.380	-0.240	0.330	-0.580
2020/01/31 15:51:36.8	100.390	-0.230	0.290	-0.580
2020/01/31 15:51:36.9	100.410	-0.220	0.260	-0.580
2020/01/31 15:51:37.0	100.420	-0.210	0.220	-0.580
2020/01/31 15:51:37.1	100.440	-0.200	0.190	-0.570
2020/01/31 15:51:37.2	100.460	-0.190	0.150	-0.560
2020/01/31 15:51:37.3	100.480	-0.180	0.110	-0.550
2020/01/31 15:51:37.4	100.500	-0.170	0.070	-0.530
2020/01/31 15:51:37.5	100.520	-0.150	0.030	-0.510
2020/01/31 15:51:37.6	100.540	-0.140	-0.020	-0.490
2020/01/31 15:51:37.7	100.570	-0.130	-0.060	-0.460
2020/01/31 15:51:37.8	100.590	-0.120	-0.100	-0.440
2020/01/31 15:51:37.9	100.610	-0.110	-0.140	-0.400
2020/01/31 15:51:38.0	100.630	-0.090	-0.190	-0.370
2020/01/31 15:51:38.1	100.650	-0.080	-0.230	-0.330
2020/01/31 15:51:38.2	100.670	-0.070	-0.270	-0.290
2020/01/31 15:51:38.3	100.690	-0.060	-0.310	-0.240
2020/01/31 15:51:38.4	100.700	-0.050	-0.350	-0.190
2020/01/31 15:51:38.5	100.710	-0.040	-0.390	-0.140
2020/01/31 15:51:38.6	100.720	-0.040	-0.430	-0.080
2020/01/31 15:51:38.7	100.730	-0.030	-0.470	-0.010
2020/01/31 15:51:38.8	100.730	-0.020	-0.510	0.050
2020/01/31 15:51:38.9	100.740	-0.020	-0.540	0.120
2020/01/31 15:51:39.0	100.730	-0.010	-0.570	0.200
2020/01/31 15:51:39.1	100.730	-0.010	-0.600	0.280
2020/01/31 15:51:39.2	100.720	-0.010	-0.620	0.360
2020/01/31 15:51:39.3	100.710	-0.010	-0.650	0.440
2020/01/31 15:51:39.4	100.700	-0.010	-0.670	0.530
2020/01/31 15:51:39.5	100.690	-0.010	-0.680	0.620
2020/01/31 15:51:39.6	100.670	-0.010	-0.700	0.710
2020/01/31 15:51:39.7	100.640	-0.020	-0.710	0.810
2020/01/31 15:51:39.8	100.620	-0.020	-0.710	0.900
2020/01/31 15:51:39.9	100.600	-0.030	-0.720	1.000
2020/01/31 15:51:40.0	100.580	-0.030	-0.720	1.090
2020/01/31 15:51:40.1	100.560	-0.040	-0.710	1.180
2020/01/31 15:51:40.2	100.530	-0.040	-0.710	1.270
2020/01/31 15:51:40.3	100.510	-0.050	-0.700	1.360
2020/01/31 15:51:40.4	100.480	-0.060	-0.680	1.450
2020/01/31 15:51:40.5	100.460	-0.070	-0.670	1.540
2020/01/31 15:51:40.6	100.440	-0.080	-0.650	1.620
2020/01/31 15:51:40.7	100.430	-0.090	-0.630	1.700
2020/01/31 15:51:40.8	100.410	-0.100	-0.610	1.780
2020/01/31 15:51:40.9	100.390	-0.110	-0.590	1.850
2020/01/31 15:51:41.0	100.370	-0.110	-0.560	1.920
2020/01/31 15:51:41.1	100.350	-0.120	-0.530	1.980
2020/01/31 15:51:41.2	100.330	-0.130	-0.510	2.040
2020/01/31 15:51:41.3	100.320	-0.140	-0.480	2.100
2020/01/31 15:51:41.4	100.300	-0.140	-0.450	2.150
2020/01/31 15:51:41.5	100.290	-0.150	-0.420	2.200
2020/01/31 15:51:41.6	100.270	-0.150	-0.400	2.250
2020/01/31 15:51:41.7	100.260	-0.160	-0.370	2.300
2020/01/31 15:51:41.8	100.240	-0.160	-0.340	2.330
2020/01/31 15:51:41.9	100.230	-0.160	-0.310	2.370
2020/01/31 15:51:42.0	100.210	-0.160	-0.290	2.390
2020/01/31 15:51:42.1	100.200	-0.160	-0.260	2.420
2020/01/31 15:51:42.2	100.190	-0.150	-0.240	2.440
2020/01/31 15:51:42.3	100.180	-0.150	-0.220	2.460
2020/01/31 15:51:42.4	100.170	-0.140	-0.200	2.470
2020/01/31 15:51:42.5	100.160	-0.130	-0.180	2.480
2020/01/31 15:51:42.6	100.150	-0.120	-0.160	2.480
2020/01/31 15:51:42.7	100.140	-0.110	-0.150	2.480
2020/01/31 15:51:42.8	100.130	-0.100	-0.140	2.470
2020/01/31 15:51:42.9	100.130	-0.080	-0.130	2.460
2020/01/31 15:51:43.0	100.120	-0.070	-0.120	2.450
2020/01/31 15:51:43.1	100.120	-0.050	-0.110	2.430
2020/01/31 15:51:43.2	100.120	-0.030	-0.100	2.410
2020/01/31 15:51:43.3	100.120	-0.020	-0.100	2.380
2020/01/31 15:51:43.4	100.130	0.000	-0.090	2.350
2020/01/31 15:51:43.5	100.130	0.020	-0.090	2.310
2020/01/31 15:51:43.6	100.140	0.050	-0.090	2.270
2020/01/31 15:51:43.7	100.160	0.070	-0.080	2.230
2020/01/31 15:51:43.8	100.170	0.090	-0.080	2.180
2020/01/31 15:51:43.9	100.180	0.110	-0.080	2.130
2020/01/31 15:51:44.0	100.200	0.130	-0.080	2.070
2020/01/31 15:51:44.1	100.210	0.150	-0.080	2.010
2020/01/31 15:51:44.2	100.230	0.170	-0.080	1.940
2020/01/31 15:51:44.3	100.250	0.190	-0.080	1.870
2020/01/31 15:51:44.4	100.270	0.210	-0.070	1.800
2020/01/31 15:51:44.5	100.290	0.220	-0.070	1.720
2020/01/31 15:51:44.6	100.320	0.240	-0.060	1.640
2020/01/31 15:51:44.7	100.350	0.250	-0.060	1.560
2020/01/31 15:51:44.8	100.370	0.270	-0.050	1.470
2020/01/31 15:51:44.9	100.390	0.280	-0.040	1.380
2020/01/31 15:51:45.0	100.410	0.290	-0.030	1.300
2020/01/31 15:51:45.1	100.430	0.300	-0.010	1.200
2020/01/31 15:51:45.2	100.450	0.300	0.000	1.110
2020/01/31 15:51:45.3	100.470	0.310	0.020	1.020
2020/01/31 15:51:45.4	100.480	0.310	0.040	0.920
2020/01/31 15:51:45.5	100.500	0.310	0.050	0.830
2020/01/31 15:51:45.6	100.510	0.310	0.070	0.730
2020/01/31 15:51:45.7	100.530	0.300	0.090	0.640
2020/01/31 15:51:45.8	100.540	0.300	0.110	0.550
2020/01/31 15:51:45.9	100.540	0.290	0.130	0.450
2020/01/31 15:51:46.0	100.550	0.280	0.140	0.360
2020/01/31 15:51:46.1	100.550	0.270	0.150	0.270
2020/01/31 15:51:46.2	100.550	0.260	0.160	0.190
2020/01/31 15:51:46.3	100.550	0.250	0.170	0.100
2020/01/31 15:51:46.4	100.540	0.240	0.180	0.020
2020/01/31 15:51:46.5	100.540	0.220	0.180	-0.060
2020/01/31 15:51:46.6	100.530	0.210	0.180	-0.140
2020/01/31 15:51:46.7	100.540	0.190	0.170	-0.220
2020/01/31 15:51:46.8	100.530	0.180	0.160	-0.290
2020/01/31 15:51:46.9	100.520	0.160	0.150	-0.360
2020/01/31 15:51:47.0	100.510	0.140	0.140	-0.430
2020/01/31 15:51:47.1	100.500	0.130	0.120	-0.490
2020/01/31 15:51:47.2	100.490	0.110	0.100	-0.550
2020/01/31 15:51:47.3	100.480	0.090	0.080	-0.610
2020/01/31 15:51:47.4	100.470	0.070	0.060	-0.660
2020/01/31 15:51:47.5	100.450	0.060	0.040	-0.720
2020/01/31 15:51:47.6	100.440	0.040	0.010	-0.760
2020/01/31 15:51:47.7	100.430	0.020	-0.020	-0.810
2020/01/31 15:51:47.8	100.410	0.010	-0.040	-0.850
2020/01/31 15:51:47.9	100.400	-0.010	-0.070	-0.880
2020/01/31 15:51:48.0	100.390	-0.030	-0.100	-0.910
2020/01/31 15:51:48.1	100.370	-0.040	-0.130	-0.940
2020/01/31 15:51:48.2	100.360	-0.060	-0.160	-0.960
2020/01/31 15:51:48.3	100.350	-0.070	-0.190	-0.970
2020/01/31 15:51:48.4	100.340	-0.080	-0.220	-0.990
2020/01/31 15:51:48.5	100.320	-0.100	-0.250	-0.990
2020/01/31 15:51:48.6	100.310	-0.110	-0.270	-1.000
2020/01/31 15:51:48.7	100.300	-0.120	-0.300	-0.990
2020/01/31 15:51:48.8	100.290	-0.130	-0.330	-0.980
2020/01/31 15:51:48.9	100.280	-0.130	-0.350	-0.970
2020/01/31 15:51:49.0	100.270	-0.140	-0.370	-0.960
2020/01/31 15:51:49.1	100.260	-0.150	-0.400	-0.940
2020/01/31 15:51:49.2	100.250	-0.150	-0.420	-0.920
2020/01/31 15:51:49.3	100.250	-0.150	-0.440	-0.900
2020/01/31 15:51:49.4	100.240	-0.150	-0.460	-0.870
2020/01/31 15:51:49.5	100.240	-0.160	-0.480	-0.840
2020/01/31 15:51:49.6	100.240	-0.150	-0.490	-0.810
2020/01/31 15:51:49.7	100.230	-0.150	-0.510	-0.770
2020/01/31 15:51:49.8	100.240	-0.150	-0.530	-0.730
2020/01/31 15:51:49.9	100.240	-0.150	-0.550	-0.690
2020/01/31 15:51:50.0	100.240	-0.140	-0.560	-0.650
2020/01/31 15:51:50.1	100.250	-0.130	-0.580	-0.600
2020/01/31 15:51:50.2	100.250	-0.130	-0.600	-0.560
2020/01/31 15:51:50.3	100.260	-0.120	-0.610	-0.510
2020/01/31 15:51:50.4	100.270	-0.110	-0.630	-0.460
2020/01/31 15:51:50.5	100.270	-0.100	-0.640	-0.410
2020/01/31 15:51:50.6	100.280	-0.090	-0.650	-0.360
2020/01/31 15:51:50.7	100.290	-0.070	-0.670	-0.300
2020/01/31 15:51:50.8	100.300	-0.060	-0.680	-0.250
2020/01/31 15:51:50.9	100.310	-0.050	-0.680	-0.200
2020/01/31 15:51:51.0	100.310	-0.040	-0.690	-0.140
2020/01/31 15:51:51.1	100.320	-0.030	-0.690	-0.080
2020/01/31 15:51:51.2	100.330	-0.010	-0.690	-0.030
2020/01/31 15:51:51.3	100.340	-0.000	-0.690	0.030
2020/01/31 15:51:51.4	100.340	0.010	-0.690	0.080
2020/01/31 15:51:51.5	100.350	0.020	-0.680	0.140
2020/01/31 15:51:51.6	100.360	0.030	-0.660	0.200
2020/01/31 15:51:51.7	100.360	0.030	-0.640	0.260
2020/01/31 15:51:51.8	100.370	0.040	-0.620	0.310
2020/01/31 15:51:51.9	100.380	0.050	-0.600	0.370
2020/01/31 15:51:52.0	100.390	0.050	-0.570	0.430
2020/01/31 15:51:52.1	100.400	0.050	-0.530	0.480
2020/01/31 15:51:52.2	100.400	0.050	-0.490	0.540
2020/01/31 15:51:52.3	100.410	0.050	-0.450	0.590
2020/01/31 15:51:52.4	100.420	0.050	-0.400	0.640
2020/01/31 15:51:52.5	100.430	0.040	-0.350	0.700
2020/01/31 15:51:52.6	100.440	0.030	-0.290	0.750
2020/01/31 15:51:52.7	100.450	0.020	-0.230	0.810
2020/01/31 15:51:52.8	100.460	0.010	-0.170	0.860
2020/01/31 15:51:52.9	100.470	-0.000	-0.100	0.910
2020/01/31 15:51:53.0	100.480	-0.020	-0.030	0.950
2020/01/31 15:51:53.1	100.490	-0.030	0.040	1.000
2020/01/31 15:51:53.2	100.510	-0.050	0.110	1.040
2020/01/31 15:51:53.3	100.520	-0.070	0.180	1.090
2020/01/31 15:51:53.4	100.530	-0.090	0.250	1.130
2020/01/31 15:51:53.5	100.540	-0.120	0.330	1.170
2020/01/31 15:51:53.6	100.560	-0.140	0.400	1.200
2020/01/31 15:51:53.7	100.580	-0.160	0.460	1.240
2020/01/31 15:51:53.8	100.590	-0.180	0.530	1.270
2020/01/31 15:51:53.9	100.600	-0.210	0.590	1.300
2020/01/31 15:51:54.0	100.610	-0.230	0.650	1.330
2020/01/31 15:51:54.1	100.620	-0.250	0.700	1.360
2020/01/31 15:51:54.2	100.630	-0.270	0.750	1.390
2020/01/31 15:51:54.3	100.630	-0.290	0.790	1.410
2020/01/31 15:51:54.4	100.640	-0.300	0.830	1.430
2020/01/31 15:51:54.5	100.640	-0.320	0.860	1.450
2020/01/31 15:51:54.6	100.650	-0.330	0.880	1.470
2020/01/31 15:51:54.7	100.650	-0.340	0.900	1.490
2020/01/31 15:51:54.8	100.650	-0.350	0.900	1.500
2020/01/31 15:51:54.9	100.650	-0.350	0.900	1.520
2020/01/31 15:51:55.0	100.650	-0.360	0.890	1.530
2020/01/31 15:51:55.1	100.650	-0.360	0.870	1.540
2020/01/31 15:51:55.2	100.650	-0.350	0.840	1.550
2020/01/31 15:51:55.3	100.650	-0.340	0.800	1.550
2020/01/31 15:51:55.4	100.640	-0.330	0.760	1.560
2020/01/31 15:51:55.5	100.640	-0.320	0.700	1.560
2020/01/31 15:51:55.6	100.630	-0.310	0.640	1.560
2020/01/31 15:51:55.7	100.620	-0.290	0.570	1.570
2020/01/31 15:51:55.8	100.620	-0.270	0.500	1.570
2020/01/31 15:51:55.9	100.610	-0.240	0.410	1.560
2020/01/31 15:51:56.0	100.600	-0.220	0.320	1.560
2020/01/31 15:51:56.1	100.600	-0.190	0.230	1.560
2020/01/31 15:51:56.2	100.590	-0.160	0.130	1.550
2020/01/31 15:51:56.3	100.580	-0.130	0.030	1.540
2020/01/31 15:51:56.4	100.580	-0.090	-0.080	1.530
2020/01/31 15:51:56.5	100.570	-0.060	-0.180	1.530
2020/01/31 15:51:56.6	100.570	-0.030	-0.290	1.510
2020/01/31 15:51:56.7	100.560	0.010	-0.400	1.500
2020/01/31 15:51:56.8	100.560	0.040	-0.510	1.490
2020/01/31 15:51:56.9	100.560	0.080	-0.620	1.480
2020/01/31 15:51:57.0	100.560	0.110	-0.720	1.460
2020/01/31 15:51:57.1	100.560	0.140	-0.820	1.450
2020/01/31 15:51:57.2	100.560	0.180	-0.910	1.430
2020/01/31 15:51:57.3	100.570	0.210	-1.000	1.410
2020/01/31 15:51:57.4	100.570	0.230	-1.080	1.400
2020/01/31 15:51:57.5	100.580	0.260	-1.160	1.380
2020/01/31 15:51:57.6	100.590	0.280	-1.220	1.360
2020/01/31 15:51:57.7	100.590	0.300	-1.280	1.350
2020/01/31 15:51:57.8	100.600	0.320	-1.330	1.330
2020/01/31 15:51:57.9	100.610	0.330	-1.370	1.310
2020/01/31 15:51:58.0	100.620	0.340	-1.400	1.300
2020/01/31 15:51:58.1	100.630	0.350	-1.410	1.280
2020/01/31 15:51:58.2	100.640	0.360	-1.420	1.260
2020/01/31 15:51:58.3	100.650	0.360	-1.420	1.250
2020/01/31 15:51:58.4	100.670	0.350	-1.410	1.230
2020/01/31 15:51:58.5	100.680	0.350	-1.390	1.210
2020/01/31 15:51:58.6	100.690	0.340	-1.360	1.190
2020/01/31 15:51:58.7	100.710	0.330	-1.320	1.180
2020/01/31 15:51:58.8	100.720	0.310	-1.280	1.160
2020/01/31 15:51:58.9	100.730	0.290	-1.220	1.140
2020/01/31 15:51:59.0	100.740	0.270	-1.160	1.120
2020/01/31 15:51:59.1	100.740	0.250	-1.100	1.090
2020/01/31 15:51:59.2	100.750	0.230	-1.020	1.070
2020/01/31 15:51:59.3	100.760	0.200	-0.950	1.040
2020/01/31 15:51:59.4	100.770	0.170	-0.860	1.020
2020/01/31 15:51:59.5	100.770	0.140	-0.780	0.990
2020/01/31 15:51:59.6	100.780	0.110	-0.690	0.960
2020/01/31 15:51:59.7	100.780	0.080	-0.600	0.930
2020/01/31 15:51:59.8	100.790	0.050	-0.510	0.900
2020/01/31 15:51:59.9	100.790	0.010	-0.420	0.870
2020/01/31 15:52:00.0	100.790	-0.020	-0.330	0.830
2020/01/31 15:52:00.1	100.790	-0.050	-0.240	0.800
2020/01/31 15:52:00.2	100.790	-0.080	-0.150	0.760
2020/01/31 15:52:00.3	100.790	-0.110	-0.060	0.730
2020/01/31 15:52:00.4	100.790	-0.140	0.020	0.690
2020/01/31 15:52:00.5	100.790	-0.170	0.110	0.650
2020/01/31 15:52:00.6	100.790	-0.200	0.190	0.610
2020/01/31 15:52:00.7	100.780	-0.230	0.260	0.570
2020/01/31 15:52:00.8	100.780	-0.250	0.330	0.530
2020/01/31 15:52:00.9	100.770	-0.270	0.400	0.490
2020/01/31 15:52:01.0	100.770	-0.290	0.470	0.450
2020/01/31 15:52:01.1	100.770	-0.310	0.520	0.410
2020/01/31 15:52:01.2	100.760	-0.330	0.580	0.370
2020/01/31 15:52:01.3	100.760	-0.340	0.620	0.330
2020/01/31 15:52:01.4	100.750	-0.350	0.660	0.290
2020/01/31 15:52:01.5	100.750	-0.360	0.700	0.250
2020/01/31 15:52:01.6	100.740	-0.360	0.730	0.220
2020/01/31 15:52:01.7	100.750	-0.360	0.750	0.180
2020/01/31 15:52:01.8	100.740	-0.360	0.760	0.150
2020/01/31 15:52:01.9	100.740	-0.360	0.770	0.110
2020/01/31 15:52:02.0	100.730	-0.350	0.770	0.080
2020/01/31 15:52:02.1	100.730	-0.350	0.770	0.050
2020/01/31 15:52:02.2	100.720	-0.330	0.760	0.020
2020/01/31 15:52:02.3	100.720	-0.320	0.740	-0.000
2020/01/31 15:52:02.4	100.710	-0.300	0.710	-0.030
2020/01/31 15:52:02.5	100.710	-0.280	0.680	-0.050
2020/01/31 15:52:02.6	100.700	-0.260	0.650	-0.070
2020/01/31 15:52:02.7	100.710	-0.240	0.600	-0.080
2020/01/31 15:52:02.8	100.710	-0.210	0.560	-0.090
2020/01/31 15:52:02.9	100.710	-0.180	0.510	-0.100
2020/01/31 15:52:03.0	100.700	-0.160	0.450	-0.110
2020/01/31 15:52:03.1	100.700	-0.130	0.390	-0.120
2020/01/31 15:52:03.2	100.700	-0.090	0.330	-0.120
2020/01/31 15:52:03.3	100.700	-0.060	0.260	-0.120
2020/01/31 15:52:03.4	100.700	-0.030	0.190	-0.120
2020/01/31 15:52:03.5	100.700	0.000	0.120	-0.120
2020/01/31 15:52:03.6	100.710	0.030	0.050	-0.120
2020/01/31 15:52:03.7	100.710	0.070	-0.030	-0.110
2020/01/31 15:52:03.8	100.710	0.100	-0.110	-0.110
2020/01/31 15:52:03.9	100.720	0.130	-0.180	-0.100
2020/01/31 15:52:04.0	100.730	0.160	-0.260	-0.100
2020/01/31 15:52:04.1	100.740	0.190	-0.330	-0.090
2020/01/31 15:52:04.2	100.750	0.220	-0.410	-0.080
2020/01/31 15:52:04.3	100.770	0.240	-0.480	-0.070
2020/01/31 15:52:04.4	100.780	0.270	-0.540	-0.060
2020/01/31 15:52:04.5	100.790	0.290	-0.610	-0.050
2020/01/31 15:52:04.6	100.810	0.310	-0.670	-0.040
2020/01/31 15:52:04.7	100.800	0.330	-0.730	-0.030
2020/01/31 15:52:04.8	100.820	0.350	-0.790	-0.030
2020/01/31 15:52:04.9	100.840	0.360	-0.840	-0.020
2020/01/31 15:52:05.0	100.850	0.380	-0.880	-0.010
2020/01/31 15:52:05.1	100.870	0.390	-0.920	0.000
2020/01/31 15:52:05.2	100.880	0.390	-0.960	0.010
2020/01/31 15:52:05.3	100.900	0.400	-0.990	0.020
2020/01/31 15:52:05.4	100.910	0.400	-1.010	0.030
2020/01/31 15:52:05.5	100.920	0.400	-1.020	0.040
2020/01/31 15:52:05.6	100.940	0.400	-1.030	0.050
2020/01/31 15:52:05.7	100.940	0.400	-1.040	0.060
2020/01/31 15:52:05.8	100.950	0.390	-1.030	0.070
2020/01/31 15:52:05.9	100.960	0.390	-1.020	0.090
2020/01/31 15:52:06.0	100.970	0.380	-1.010	0.100
2020/01/31 15:52:06.1	100.980	0.370	-0.980	0.120
2020/01/31 15:52:06.2	100.980	0.360	-0.960	0.140
2020/01/31 15:52:06.3	100.990	0.340	-0.920	0.160
2020/01/31 15:52:06.4	100.990	0.330	-0.880	0.190
2020/01/31 15:52:06.5	100.990	0.310	-0.840	0.210
2020/01/31 15:52:06.6	100.990	0.300	-0.790	0.240
2020/01/31 15:52:06.7	101.000	0.280	-0.730	0.280
2020/01/31 15:52:06.8	101.000	0.260	-0.670	0.310
2020/01/31 15:52:06.9	100.990	0.240	-0.610	0.350
2020/01/31 15:52:07.0	100.990	0.220	-0.540	0.380
2020/01/31 15:52:07.1	100.980	0.200	-0.480	0.420
2020/01/31 15:52:07.2	100.980	0.180	-0.410	0.460
2020/01/31 15:52:07.3	100.970	0.160	-0.340	0.510
2020/01/31 15:52:07.4	100.960	0.130	-0.260	0.550
2020/01/31 15:52:07.5	100.950	0.110	-0.190	0.600
2020/01/31 15:52:07.6	100.940	0.090	-0.120	0.660
2020/01/31 15:52:07.7	100.930	0.070	-0.050	0.710
2020/01/31 15:52:07.8	100.920	0.050	0.020	0.770
2020/01/31 15:52:07.9	100.910	0.030	0.090	0.830
2020/01/31 15:52:08.0	100.900	0.000	0.160	0.890
2020/01/31 15:52:08.1	100.880	-0.020	0.220	0.950
2020/01/31 15:52:08.2	100.870	-0.040	0.280	1.020
2020/01/31 15:52:08.3	100.850	-0.060	0.340	1.090
2020/01/31 15:52:08.4	100.840	-0.080	0.390	1.160
2020/01/31 15:52:08.5	100.820	-0.100	0.440	1.230
2020/01/31 15:52:08.6	100.810	-0.120	0.490	1.300
2020/01/31 15:52:08.7	100.780	-0.140	0.530	1.370
2020/01/31 15:52:08.8	100.770	-0.160	0.570	1.440
2020/01/31 15:52:08.9	100.750	-0.170	0.600	1.510
2020/01/31 15:52:09.0	100.740	-0.190	0.620	1.580
2020/01/31 15:52:09.1	100.730	-0.210	0.640	1.640
2020/01/31 15:52:09.2	100.710	-0.230	0.660	1.710
2020/01/31 15:52:09.3	100.710	-0.240	0.670	1.770
2020/01/31 15:52:09.4	100.700	-0.260	0.680	1.830
2020/01/31 15:52:09.5	100.690	-0.280	0.680	1.890
2020/01/31 15:52:09.6	100.680	-0.290	0.680	1.940
2020/01/31 15:52:09.7	100.680	-0.310	0.670	1.990
2020/01/31 15:52:09.8	100.680	-0.320	0.660	2.040
2020/01/31 15:52:09.9	100.680	-0.330	0.650	2.080
2020/01/31 15:52:10.0	100.680	-0.350	0.630	2.110
2020/01/31 15:52:10.1	100.680	-0.360	0.600	2.140
2020/01/31 15:52:10.2	100.690	-0.370	0.580	2.170
2020/01/31 15:52:10.3	100.690	-0.380	0.550	2.190
2020/01/31 15:52:10.4	100.700	-0.390	0.520	2.200
2020/01/31 15:52:10.5	100.700	-0.400	0.480	2.210
2020/01/31 15:52:10.6	100.710	-0.410	0.440	2.220
2020/01/31 15:52:10.7	100.710	-0.410	0.400	2.220
2020/01/31 15:52:10.8	100.720	-0.420	0.360	2.220
2020/01/31 15:52:10.9	100.730	-0.420	0.310	2.210
2020/01/31 15:52:11.0	100.740	-0.420	0.270	2.190
2020/01/31 15:52:11.1	100.750	-0.420	0.220	2.170
2020/01/31 15:52:11.2	100.750	-0.420	0.170	2.150
2020/01/31 15:52:11.3	100.760	-0.420	0.120	2.130
2020/01/31 15:52:11.4	100.770	-0.420	0.070	2.100
2020/01/31 15:52:11.5	100.770	-0.410	0.020	2.060
2020/01/31 15:52:11.6	100.780	-0.400	-0.030	2.030
2020/01/31 15:52:11.7	100.800	-0.390	-0.080	1.990
2020/01/31 15:52:11.8	100.810	-0.380	-0.140	1.950
2020/01/31 15:52:11.9	100.810	-0.370	-0.190	1.900
2020/01/31 15:52:12.0	100.820	-0.350	-0.240	1.860
2020/01/31 15:52:12.1	100.820	-0.340	-0.300	1.810
2020/01/31 15:52:12.2	100.830	-0.320	-0.350	1.760
2020/01/31 15:52:12.3	100.830	-0.300	-0.410	1.710
2020/01/31 15:52:12.4	100.830	-0.280	-0.460	1.660
2020/01/31 15:52:12.5	100.840	-0.250	-0.510	1.610
2020/01/31 15:52:12.6	100.840	-0.230	-0.560	1.550
2020/01/31 15:52:12.7	100.840	-0.210	-0.620	1.500
2020/01/31 15:52:12.8	100.840	-0.180	-0.670	1.450
2020/01/31 15:52:12.9	100.850	-0.150	-0.710	1.400
2020/01/31 15:52:13.0	100.850	-0.120	-0.760	1.350
2020/01/31 15:52:13.1	100.850	-0.090	-0.800	1.300
2020/01/31 15:52:13.2	100.860	-0.060	-0.840	1.260
2020/01/31 15:52:13.3	100.860	-0.040	-0.880	1.210
2020/01/31 15:52:13.4	100.860	-0.000	-0.920	1.170
2020/01/31 15:52:13.5	100.860	0.030	-0.950	1.130
2020/01/31 15:52:13.6	100.860	0.060	-0.980	1.090
2020/01/31 15:52:13.7	100.860	0.090	-1.000	1.050
2020/01/31 15:52:13.8	100.860	0.110	-1.030	1.010
2020/01/31 15:52:13.9	100.850	0.140	-1.040	0.980
2020/01/31 15:52:14.0	100.850	0.170	-1.060	0.950
2020/01/31 15:52:14.1	100.850	0.200	-1.070	0.920
2020/01/31 15:52:14.2	100.840	0.220	-1.080	0.890
2020/01/31 15:52:14.3	100.830	0.250	-1.080	0.870
2020/01/31 15:52:14.4	100.820	0.270	-1.080	0.840
2020/01/31 15:52:14.5	100.820	0.290	-1.070	0.820
2020/01/31 15:52:14.6	100.810	0.310	-1.060	0.800
2020/01/31 15:52:14.7	100.800	0.330	-1.040	0.780
2020/01/31 15:52:14.8	100.790	0.340	-1.020	0.760
2020/01/31 15:52:14.9	100.770	0.360	-1.000	0.740
2020/01/31 15:52:15.0	100.760	0.370	-0.970	0.710
2020/01/31 15:52:15.1	100.750	0.380	-0.940	0.690
2020/01/31 15:52:15.2	100.740	0.390	-0.910	0.660
2020/01/31 15:52:15.3	100.720	0.390	-0.870	0.630
2020/01/31 15:52:15.4	100.710	0.390	-0.830	0.600
2020/01/31 15:52:15.5	100.700	0.400	-0.790	0.570
2020/01/31 15:52:15.6	100.690	0.390	-0.740	0.540
2020/01/31 15:52:15.7	100.680	0.390	-0.690	0.500
2020/01/31 15:52:15.8	100.680	0.390	-0.640	0.460
2020/01/31 15:52:15.9	100.670	0.380	-0.590	0.420
2020/01/31 15:52:16.0	100.660	0.370	-0.530	0.370
2020/01/31 15:52:16.1	100.660	0.360	-0.480	0.320
2020/01/31 15:52:16.2	100.660	0.350	-0.420	0.270
2020/01/31 15:52:16.3	100.650	0.330	-0.360	0.220
2020/01/31 15:52:16.4	100.650	0.320	-0.310	0.170
2020/01/31 15:52:16.5	100.660	0.300	-0.250	0.110
2020/01/31 15:52:16.6	100.660	0.290	-0.190	0.050
2020/01/31 15:52:16.7	100.660	0.270	-0.130	-0.000
2020/01/31 15:52:16.8	100.670	0.250	-0.070	-0.060
2020/01/31 15:52:16.9	100.670	0.240	-0.020	-0.120
2020/01/31 15:52:17.0	100.680	0.220	0.040	-0.180
2020/01/31 15:52:17.1	100.680	0.200	0.100	-0.230
2020/01/31 15:52:17.2	100.690	0.180	0.150	-0.290
2020/01/31 15:52:17.3	100.700	0.170	0.200	-0.350
2020/01/31 15:52:17.4	100.710	0.150	0.250	-0.400
2020/01/31 15:52:17.5	100.720	0.130	0.300	-0.450
2020/01/31 15:52:17.6	100.720	0.120	0.350	-0.500
2020/01/31 15:52:17.7	100.730	0.100	0.400	-0.540
2020/01/31 15:52:17.8	100.740	0.090	0.440	-0.590
2020/01/31 15:52:17.9	100.750	0.070	0.480	-0.630
2020/01/31 15:52:18.0	100.760	0.060	0.520	-0.670
2020/01/31 15:52:18.1	100.760	0.050	0.560	-0.700
2020/01/31 15:52:18.2	100.770	0.040	0.590	-0.730
2020/01/31 15:52:18.3	100.780	0.030	0.620	-0.750
2020/01/31 15:52:18.4	100.780	0.020	0.650	-0.780
2020/01/31 15:52:18.5	100.790	0.010	0.670	-0.800
2020/01/31 15:52:18.6	100.790	-0.000	0.690	-0.810
2020/01/31 15:52:18.7	100.800	-0.010	0.700	-0.820
2020/01/31 15:52:18.8	100.810	-0.020	0.720	-0.820
2020/01/31 15:52:18.9	100.810	-0.020	0.720	-0.830
2020/01/31 15:52:19.0	100.810	-0.030	0.730	-0.820
2020/01/31 15:52:19.1	100.810	-0.040	0.730	-0.820
2020/01/31 15:52:19.2	100.810	-0.040	0.730	-0.810
2020/01/31 15:52:19.3	100.800	-0.050	0.720	-0.800
2020/01/31 15:52:19.4	100.800	-0.060	0.710	-0.780
2020/01/31 15:52:19.5	100.800	-0.060	0.690	-0.760
2020/01/31 15:52:19.6	100.790	-0.070	0.670	-0.740
2020/01/31 15:52:19.7	100.790	-0.080	0.650	-0.700
2020/01/31 15:52:19.8	100.780	-0.090	0.620	-0.680
2020/01/31 15:52:19.9	100.780	-0.100	0.590	-0.650
2020/01/31 15:52:20.0	100.770	-0.100	0.560	-0.610
2020/01/31 15:52:20.1	100.760	-0.110	0.520	-0.580
2020/01/31 15:52:20.2	100.750	-0.120	0.480	-0.540
2020/01/31 15:52:20.3	100.750	-0.130	0.430	-0.510
2020/01/31 15:52:20.4	100.740	-0.140	0.390	-0.470
2020/01/31 15:52:20.5	100.730	-0.150	0.340	-0.430
2020/01/31 15:52:20.6	100.730	-0.160	0.280	-0.390
2020/01/31 15:52:20.7	100.720	-0.170	0.230	-0.350
2020/01/31 15:52:20.8	100.720	-0.180	0.170	-0.320
2020/01/31 15:52:20.9	100.720	-0.190	0.110	-0.280
2020/01/31 15:52:21.0	100.720	-0.200	0.050	-0.250
2020/01/31 15:52:21.1	100.730	-0.210	-0.010	-0.210
2020/01/31 15:52:21.2	100.730	-0.210	-0.070	-0.180
2020/01/31 15:52:21.3	100.740	-0.220	-0.140	-0.150
2020/01/31 15:52:21.4	100.750	-0.220	-0.200	-0.120
2020/01/31 15:52:21.5	100.760	-0.220	-0.260	-0.100
2020/01/31 15:52:21.6	100.780	-0.230	-0.330	-0.070
2020/01/31 15:52:21.7	100.800	-0.230	-0.380	-0.040
2020/01/31 15:52:21.8	100.820	-0.220	-0.450	-0.020
2020/01/31 15:52:21.9	100.840	-0.220	-0.500	0.000
2020/01/31 15:52:22.0	100.870	-0.210	-0.560	0.030
2020/01/31 15:52:22.1	100.900	-0.210	-0.620	0.050
2020/01/31 15:52:22.2	100.920	-0.200	-0.670	0.080
2020/01/31 15:52:22.3	100.950	-0.190	-0.720	0.100
2020/01/31 15:52:22.4	100.980	-0.170	-0.760	0.130
2020/01/31 15:52:22.5	101.020	-0.160	-0.800	0.150
2020/01/31 15:52:22.6	101.050	-0.140	-0.840	0.180
2020/01/31 15:52:22.7	101.080	-0.130	-0.880	0.220
2020/01/31 15:52:22.8	101.110	-0.110	-0.910	0.250
2020/01/31 15:52:22.9	101.150	-0.090	-0.930	0.280
2020/01/31 15:52:23.0	101.180	-0.070	-0.950	0.320
2020/01/31 15:52:23.1	101.220	-0.050	-0.970	0.360
2020/01/31 15:52:23.2	101.250	-0.020	-0.980	0.400
2020/01/31 15:52:23.3	101.280	-0.000	-0.990	0.440
2020/01/31 15:52:23.4	101.310	0.020	-0.990	0.490
2020/01/31 15:52:23.5	101.340	0.040	-0.990	0.540
2020/01/31 15:52:23.6	101.370	0.060	-0.990	0.590
2020/01/31 15:52:23.7	101.390	0.080	-0.980	0.640
2020/01/31 15:52:23.8	101.420	0.110	-0.960	0.700
2020/01/31 15:52:23.9	101.440	0.120	-0.940	0.760
2020/01/31 15:52:24.0	101.460	0.140	-0.920	0.830
2020/01/31 15:52:24.1	101.480	0.160	-0.890	0.890
2020/01/31 15:52:24.2	101.500	0.170	-0.860	0.960
2020/01/31 15:52:24.3	101.510	0.190	-0.830	1.030
2020/01/31 15:52:24.4	101.520	0.200	-0.800	1.100
2020/01/31 15:52:24.5	101.530	0.210	-0.760	1.180
2020/01/31 15:52:24.6	101.530	0.220	-0.720	1.260
2020/01/31 15:52:24.7	101.540	0.220	-0.680	1.340
2020/01/31 15:52:24.8	101.540	0.230	-0.630	1.410
2020/01/31 15:52:24.9	101.540	0.230	-0.590	1.490
2020/01/31 15:52:25.0	101.530	0.220	-0.540	1.570
2020/01/31 15:52:25.1	101.520	0.220	-0.500	1.650
2020/01/31 15:52:25.2	101.510	0.210	-0.450	1.720
2020/01/31 15:52:25.3	101.490	0.200	-0.400	1.790
2020/01/31 15:52:25.4	101.470	0.190	-0.350	1.870
2020/01/31 15:52:25.5	101.450	0.180	-0.300	1.930
2020/01/31 15:52:25.6	101.430	0.160	-0.250	2.000
2020/01/31 15:52:25.7	101.410	0.140	-0.200	2.070
2020/01/31 15:52:25.8	101.380	0.120	-0.150	2.120
2020/01/31 15:52:25.9	101.350	0.100	-0.100	2.180
2020/01/31 15:52:26.0	101.320	0.070	-0.040	2.220
2020/01/31 15:52:26.1	101.290	0.050	0.010	2.270
2020/01/31 15:52:26.2	101.250	0.020	0.060	2.300
2020/01/31 15:52:26.3	101.220	-0.010	0.110	2.330
2020/01/31 15:52:26.4	101.180	-0.040	0.160	2.360
2020/01/31 15:52:26.5	101.150	-0.070	0.210	2.380
2020/01/31 15:52:26.6	101.110	-0.090	0.260	2.390
2020/01/31 15:52:26.7	101.080	-0.120	0.300	2.400
2020/01/31 15:52:26.8	101.050	-0.150	0.350	2.400
2020/01/31 15:52:26.9	101.010	-0.180	0.390	2.400
2020/01/31 15:52:27.0	100.980	-0.200	0.430	2.390
2020/01/31 15:52:27.1	100.940	-0.230	0.470	2.370
2020/01/31 15:52:27.2	100.910	-0.250	0.500	2.350
2020/01/31 15:52:27.3	100.880	-0.270	0.530	2.320
2020/01/31 15:52:27.4	100.850	-0.290	0.560	2.280
2020/01/31 15:52:27.5	100.820	-0.310	0.580	2.240
2020/01/31 15:52:27.6	100.800	-0.320	0.590	2.200
2020/01/31 15:52:27.7	100.790	-0.330	0.600	2.150
2020/01/31 15:52:27.8	100.760	-0.340	0.610	2.090
2020/01/31 15:52:27.9	100.750	-0.340	0.600	2.030
2020/01/31 15:52:28.0	100.730	-0.340	0.590	1.960
2020/01/31 15:52:28.1	100.720	-0.340	0.580	1.890
2020/01/31 15:52:28.2	100.710	-0.340	0.560	1.820
2020/01/31 15:52:28.3	100.700	-0.330	0.530	1.740
2020/01/31 15:52:28.4	100.690	-0.320	0.490	1.660
2020/01/31 15:52:28.5	100.690	-0.300	0.450	1.580
2020/01/31 15:52:28.6	100.690	-0.280	0.400	1.490
2020/01/31 15:52:28.7	100.690	-0.260	0.350	1.400
2020/01/31 15:52:28.8	100.690	-0.240	0.290	1.310
2020/01/31 15:52:28.9	100.700	-0.210	0.230	1.220
2020/01/31 15:52:29.0	100.710	-0.180	0.160	1.130
2020/01/31 15:52:29.1	100.720	-0.150	0.090	1.040
2020/01/31 15:52:29.2	100.730	-0.120	0.010	0.940
2020/01/31 15:52:29.3	100.740	-0.090	-0.060	0.850
2020/01/31 15:52:29.4	100.750	-0.050	-0.140	0.760
2020/01/31 15:52:29.5	100.770	-0.020	-0.220	0.660
2020/01/31 15:52:29.6	100.780	0.020	-0.310	0.570
2020/01/31 15:52:29.7	100.790	0.060	-0.390	0.480
2020/01/31 15:52:29.8	100.810	0.090	-0.470	0.390
2020/01/31 15:52:29.9	100.820	0.130	-0.550	0.300
2020/01/31 15:52:30.0	100.840	0.170	-0.630	0.210
2020/01/31 15:52:30.1	100.860	0.200	-0.700	0.120
2020/01/31 15:52:30.2	100.870	0.230	-0.770	0.030
2020/01/31 15:52:30.3	100.890	0.260	-0.830	-0.060
2020/01/31 15:52:30.4	100.900	0.290	-0.890	-0.140
2020/01/31 15:52:30.5	100.920	0.320	-0.940	-0.230
2020/01/31 15:52:30.6	100.930	0.350	-0.990	-0.310
2020/01/31 15:52:30.7	100.940	0.370	-1.030	-0.390
2020/01/31 15:52:30.8	100.960	0.390	-1.060	-0.470
2020/01/31 15:52:30.9	100.980	0.400	-1.080	-0.550
2020/01/31 15:52:31.0	100.990	0.410	-1.100	-0.630
2020/01/31 15:52:31.1	101.010	0.420	-1.100	-0.710
2020/01/31 15:52:31.2	101.030	0.430	-1.100	-0.780
2020/01/31 15:52:31.3	101.050	0.430	-1.090	-0.850
2020/01/31 15:52:31.4	101.060	0.430	-1.070	-0.920
2020/01/31 15:52:31.5	101.080	0.430	-1.050	-0.980
2020/01/31 15:52:31.6	101.100	0.420	-1.010	-1.040
2020/01/31 15:52:31.7	101.110	0.410	-0.970	-1.090
2020/01/31 15:52:31.8	101.130	0.400	-0.920	-1.140
2020/01/31 15:52:31.9	101.140	0.380	-0.870	-1.190
2020/01/31 15:52:32.0	101.160	0.360	-0.810	-1.230
2020/01/31 15:52:32.1	101.170	0.340	-0.740	-1.260
2020/01/31 15:52:32.2	101.180	0.320	-0.670	-1.290
2020/01/31 15:52:32.3	101.190	0.290	-0.590	-1.310
2020/01/31 15:52:32.4	101.190	0.270	-0.510	-1.330
2020/01/31 15:52:32.5	101.200	0.240	-0.430	-1.330
2020/01/31 15:52:32.6	101.200	0.210	-0.350	-1.330
2020/01/31 15:52:32.7	101.190	0.170	-0.260	-1.320
2020/01/31 15:52:32.8	101.190	0.140	-0.170	-1.300
2020/01/31 15:52:32.9	101.180	0.110	-0.080	-1.280
2020/01/31 15:52:33.0	101.170	0.080	0.000	-1.250
2020/01/31 15:52:33.1	101.160	0.040	0.090	-1.210
2020/01/31 15:52:33.2	101.150	0.010	0.170	-1.170
2020/01/31 15:52:33.3	101.130	-0.020	0.250	-1.120
2020/01/31 15:52:33.4	101.120	-0.050	0.320	-1.070
2020/01/31 15:52:33.5	101.100	-0.080	0.390	-1.010
2020/01/31 15:52:33.6	101.080	-0.110	0.460	-0.940
2020/01/31 15:52:33.7	101.050	-0.140	0.520	-0.860
2020/01/31 15:52:33.8	101.030	-0.170	0.570	-0.790
2020/01/31 15:52:33.9	101.000	-0.190	0.620	-0.700
2020/01/31 15:52:34.0	100.980	-0.210	0.660	-0.620
2020/01/31 15:52:34.1	100.950	-0.230	0.700	-0.530
2020/01/31 15:52:34.2	100.920	-0.240	0.720	-0.430
2020/01/31 15:52:34.3	100.880	-0.260	0.740	-0.340
2020/01/31 15:52:34.4	100.850	-0.270	0.750	-0.240
2020/01/31 15:52:34.5	100.810	-0.280	0.760	-0.130
2020/01/31 15:52:34.6	100.780	-0.280	0.760	-0.020
2020/01/31 15:52:34.7	100.740	-0.280	0.750	0.090
2020/01/31 15:52:34.8	100.700	-0.280	0.730	0.200
2020/01/31 15:52:34.9	100.660	-0.280	0.700	0.310
2020/01/31 15:52:35.0	100.620	-0.270	0.670	0.420
2020/01/31 15:52:35.1	100.570	-0.270	0.630	0.540
2020/01/31 15:52:35.2	100.530	-0.250	0.590	0.650
2020/01/31 15:52:35.3	100.490	-0.240	0.540	0.760
2020/01/31 15:52:35.4	100.440	-0.230	0.480	0.870
2020/01/31 15:52:35.5	100.400	-0.210	0.420	0.980
2020/01/31 15:52:35.6	100.350	-0.190	0.360	1.090
2020/01/31 15:52:35.7	100.310	-0.170	0.290	1.200
2020/01/31 15:52:35.8	100.270	-0.150	0.220	1.300
2020/01/31 15:52:35.9	100.230	-0.130	0.150	1.400
2020/01/31 15:52:36.0	100.190	-0.100	0.070	1.500
2020/01/31 15:52:36.1	100.150	-0.080	-0.000	1.590
2020/01/31 15:52:36.2	100.120	-0.050	-0.080	1.680
2020/01/31 15:52:36.3	100.090	-0.030	-0.150	1.760
2020/01/31 15:52:36.4	100.060	-0.000	-0.230	1.840
2020/01/31 15:52:36.5	100.030	0.020	-0.300	1.910
2020/01/31 15:52:36.6	100.010	0.040	-0.370	1.980
2020/01/31 15:52:36.7	99.990	0.070	-0.430	2.040
2020/01/31 15:52:36.8	99.970	0.090	-0.500	2.100
2020/01/31 15:52:36.9	99.960	0.110	-0.560	2.150
2020/01/31 15:52:37.0	99.950	0.130	-0.610	2.200
2020/01/31 15:52:37.1	99.940	0.150	-0.670	2.240
2020/01/31 15:52:37.2	99.940	0.170	-0.710	2.270
2020/01/31 15:52:37.3	99.950	0.190	-0.750	2.300
2020/01/31 15:52:37.4	99.950	0.200	-0.790	2.330
2020/01/31 15:52:37.5	99.970	0.220	-0.820	2.350
2020/01/31 15:52:37.6	99.980	0.230	-0.850	2.360
2020/01/31 15:52:37.7	99.990	0.240	-0.870	2.370
2020/01/31 15:52:37.8	100.020	0.250	-0.880	2.380
2020/01/31 15:52:37.9	100.040	0.250	-0.890	2.380
2020/01/31 15:52:38.0	100.070	0.260	-0.890	2.370
2020/01/31 15:52:38.1	100.100	0.260	-0.890	2.360
2020/01/31 15:52:38.2	100.130	0.260	-0.880	2.350
2020/01/31 15:52:38.3	100.160	0.260	-0.860	2.330
2020/01/31 15:52:38.4	100.200	0.250	-0.840	2.320
2020/01/31 15:52:38.5	100.230	0.250	-0.820	2.290
2020/01/31 15:52:38.6	100.270	0.240	-0.790	2.270
2020/01/31 15:52:38.7	100.310	0.230	-0.760	2.250
2020/01/31 15:52:38.8	100.340	0.220	-0.720	2.220
2020/01/31 15:52:38.9	100.380	0.200	-0.680	2.190
2020/01/31 15:52:39.0	100.410	0.190	-0.640	2.160
2020/01/31 15:52:39.1	100.440	0.170	-0.590	2.130
2020/01/31 15:52:39.2	100.460	0.160	-0.550	2.100
2020/01/31 15:52:39.3	100.490	0.140	-0.500	2.060
2020/01/31 15:52:39.4	100.510	0.120	-0.450	2.030
2020/01/31 15:52:39.5	100.530	0.100	-0.400	2.000
2020/01/31 15:52:39.6	100.540	0.080	-0.350	1.970
2020/01/31 15:52:39.7	100.550	0.060	-0.310	1.940
2020/01/31 15:52:39.8	100.550	0.040	-0.260	1.910
2020/01/31 15:52:39.9	100.550	0.020	-0.210	1.880
2020/01/31 15:52:40.0	100.550	-0.000	-0.170	1.850
2020/01/31 15:52:40.1	100.540	-0.030	-0.120	1.820
2020/01/31 15:52:40.2	100.530	-0.050	-0.080	1.790
2020/01/31 15:52:40.3	100.510	-0.070	-0.040	1.770
2020/01/31 15:52:40.4	100.490	-0.090	-0.000	1.740
2020/01/31 15:52:40.5	100.470	-0.100	0.030	1.720
2020/01/31 15:52:40.6	100.440	-0.120	0.070	1.690
2020/01/31 15:52:40.7	100.410	-0.140	0.100	1.670
2020/01/31 15:52:40.8	100.370	-0.160	0.130	1.650
2020/01/31 15:52:40.9	100.340	-0.170	0.150	1.620
2020/01/31 15:52:41.0	100.300	-0.180	0.180	1.600
2020/01/31 15:52:41.1	100.260	-0.200	0.200	1.580
2020/01/31 15:52:41.2	100.210	-0.210	0.210	1.550
2020/01/31 15:52:41.3	100.170	-0.220	0.230	1.530
2020/01/31 15:52:41.4	100.120	-0.230	0.240	1.500
2020/01/31 15:52:41.5	100.080	-0.240	0.240	1.480
2020/01/31 15:52:41.6	100.040	-0.240	0.250	1.450
2020/01/31 15:52:41.7	99.980	-0.250	0.250	1.420
2020/01/31 15:52:41.8	99.940	-0.250	0.250	1.390
2020/01/31 15:52:41.9	99.900	-0.260	0.240	1.360
2020/01/31 15:52:42.0	99.860	-0.260	0.240	1.320
2020/01/31 15:52:42.1	99.820	-0.260	0.230	1.290
2020/01/31 15:52:42.2	99.790	-0.260	0.210	1.250
2020/01/31 15:52:42.3	99.750	-0.260	0.200	1.210
2020/01/31 15:52:42.4	99.720	-0.250	0.180	1.160
2020/01/31 15:52:42.5	99.700	-0.250	0.160	1.120
2020/01/31 15:52:42.6	99.670	-0.240	0.140	1.070
2020/01/31 15:52:42.7	99.650	-0.240	0.120	1.020
2020/01/31 15:52:42.8	99.630	-0.230	0.100	0.960
2020/01/31 15:52:42.9	99.610	-0.220	0.070	0.910
2020/01/31 15:52:43.0	99.590	-0.210	0.040	0.850
2020/01/31 15:52:43.1	99.580	-0.200	0.010	0.790
2020/01/31 15:52:43.2	99.570	-0.190	-0.020	0.730
2020/01/31 15:52:43.3	99.560	-0.180	-0.050	0.660
2020/01/31 15:52:43.4	99.560	-0.170	-0.080	0.590
2020/01/31 15:52:43.5	99.550	-0.160	-0.110	0.530
2020/01/31 15:52:43.6	99.550	-0.150	-0.140	0.460
2020/01/31 15:52:43.7	99.540	-0.130	-0.180	0.390
2020/01/31 15:52:43.8	99.540	-0.120	-0.210	0.320
2020/01/31 15:52:43.9	99.540	-0.110	-0.240	0.250
2020/01/31 15:52:44.0	99.540	-0.090	-0.270	0.170
2020/01/31 15:52:44.1	99.540	-0.080	-0.300	0.100
2020/01/31 15:52:44.2	99.540	-0.070	-0.330	0.030
2020/01/31 15:52:44.3	99.550	-0.050	-0.360	-0.040
2020/01/31 15:52:44.4	99.550	-0.040	-0.380	-0.110
2020/01/31 15:52:44.5	99.550	-0.030	-0.400	-0.180
2020/01/31 15:52:44.6	99.550	-0.020	-0.430	-0.250
2020/01/31 15:52:44.7	99.550	-0.000	-0.450	-0.310
2020/01/31 15:52:44.8	99.550	0.010	-0.460	-0.380
2020/01/31 15:52:44.9	99.550	0.020	-0.480	-0.440
2020/01/31 15:52:45.0	99.550	0.030	-0.490	-0.500
2020/01/31 15:52:45.1	99.550	0.040	-0.500	-0.560
2020/01/31 15:52:45.2	99.540	0.050	-0.500	-0.610
2020/01/31 15:52:45.3	99.540	0.060	-0.500	-0.660
2020/01/31 15:52:45.4	99.530	0.060	-0.500	-0.710
2020/01/31 15:52:45.5	99.530	0.070	-0.500	-0.760
2020/01/31 15:52:45.6	99.520	0.080	-0.500	-0.810
2020/01/31 15:52:45.7	99.510	0.090	-0.490	-0.850
2020/01/31 15:52:45.8	99.500	0.090	-0.480	-0.890
2020/01/31 15:52:45.9	99.490	0.100	-0.460	-0.920
2020/01/31 15:52:46.0	99.480	0.100	-0.450	-0.960
2020/01/31 15:52:46.1	99.460	0.110	-0.430	-0.990
2020/01/31 15:52:46.2	99.450	0.120	-0.410	-1.020
2020/01/31 15:52:46.3	99.440	0.120	-0.390	-1.050
2020/01/31 15:52:46.4	99.420	0.120	-0.370	-1.070
2020/01/31 15:52:46.5	99.400	0.130	-0.340	-1.090
2020/01/31 15:52:46.6	99.380	0.130	-0.320	-1.110
2020/01/31 15:52:46.7	99.390	0.140	-0.290	-1.110
2020/01/31 15:52:46.8	99.370	0.140	-0.270	-1.120
2020/01/31 15:52:46.9	99.340	0.140	-0.240	-1.130
2020/01/31 15:52:47.0	99.320	0.150	-0.210	-1.130
2020/01/31 15:52:47.1	99.300	0.150	-0.180	-1.130
2020/01/31 15:52:47.2	99.280	0.150	-0.160	-1.130
2020/01/31 15:52:47.3	99.250	0.150	-0.130	-1.120
2020/01/31 15:52:47.4	99.230	0.150	-0.100	-1.110
2020/01/31 15:52:47.5	99.210	0.150	-0.070	-1.090
2020/01/31 15:52:47.6	99.180	0.150	-0.050	-1.080
2020/01/31 15:52:47.7	99.170	0.150	-0.020	-1.050
2020/01/31 15:52:47.8	99.150	0.150	0.000	-1.030
2020/01/31 15:52:47.9	99.120	0.150	0.030	-1.000
2020/01/31 15:52:48.0	99.100	0.150	0.050	-0.970
2020/01/31 15:52:48.1	99.080	0.140	0.070	-0.940
2020/01/31 15:52:48.2	99.060	0.140	0.090	-0.910
2020/01/31 15:52:48.3	99.040	0.140	0.110	-0.870
2020/01/31 15:52:48.4	99.020	0.130	0.120	-0.830
2020/01/31 15:52:48.5	99.000	0.130	0.130	-0.790
2020/01/31 15:52:48.6	98.990	0.120	0.140	-0.750
2020/01/31 15:52:48.7	98.960	0.120	0.150	-0.710
2020/01/31 15:52:48.8	98.950	0.110	0.160	-0.660
2020/01/31 15:52:48.9	98.940	0.100	0.160	-0.620
2020/01/31 15:52:49.0	98.940	0.100	0.160	-0.570
2020/01/31 15:52:49.1	98.930	0.090	0.160	-0.530
2020/01/31 15:52:49.2	98.930	0.090	0.150	-0.480
2020/01/31 15:52:49.3	98.930	0.080	0.140	-0.440
2020/01/31 15:52:49.4	98.940	0.080	0.130	-0.390
2020/01/31 15:52:49.5	98.940	0.070	0.110	-0.350
2020/01/31 15:52:49.6	98.950	0.070	0.090	-0.300
2020/01/31 15:52:49.7	98.950	0.070	0.060	-0.250
2020/01/31 15:52:49.8	98.970	0.060	0.030	-0.210
2020/01/31 15:52:49.9	98.980	0.060	0.000	-0.160
2020/01/31 15:52:50.0	99.000	0.060	-0.030	-0.120
2020/01/31 15:52:50.1	99.010	0.060	-0.060	-0.070
2020/01/31 15:52:50.2	99.030	0.060	-0.100	-0.020
2020/01/31 15:52:50.3	99.050	0.060	-0.140	0.030
2020/01/31 15:52:50.4	99.070	0.060	-0.180	0.080
2020/01/31 15:52:50.5	99.090	0.060	-0.220	0.130
2020/01/31 15:52:50.6	99.110	0.070	-0.260	0.180
2020/01/31 15:52:50.7	99.130	0.070	-0.310	0.240
2020/01/31 15:52:50.8	99.150	0.070	-0.350	0.300
2020/01/31 15:52:50.9	99.170	0.070	-0.390	0.360
2020/01/31 15:52:51.0	99.190	0.080	-0.430	0.420
2020/01/31 15:52:51.1	99.210	0.080	-0.460	0.480
2020/01/31 15:52:51.2	99.220	0.080	-0.500	0.540
2020/01/31 15:52:51.3	99.230	0.080	-0.530	0.610
2020/01/31 15:52:51.4	99.240	0.090	-0.560	0.680
2020/01/31 15:52:51.5	99.250	0.090	-0.580	0.750
2020/01/31 15:52:51.6	99.260	0.090	-0.600	0.820
2020/01/31 15:52:51.7	99.270	0.090	-0.620	0.900
2020/01/31 15:52:51.8	99.270	0.090	-0.640	0.970
2020/01/31 15:52:51.9	99.270	0.090	-0.640	1.050
2020/01/31 15:52:52.0	99.270	0.090	-0.650	1.120
2020/01/31 15:52:52.1	99.270	0.090	-0.650	1.190
2020/01/31 15:52:52.2	99.270	0.090	-0.640	1.270
2020/01/31 15:52:52.3	99.260	0.080	-0.640	1.340
2020/01/31 15:52:52.4	99.250	0.080	-0.620	1.410
2020/01/31 15:52:52.5	99.250	0.070	-0.600	1.480
2020/01/31 15:52:52.6	99.230	0.070	-0.580	1.550
2020/01/31 15:52:52.7	99.230	0.060	-0.560	1.630
2020/01/31 15:52:52.8	99.220	0.060	-0.530	1.690
2020/01/31 15:52:52.9	99.200	0.050	-0.500	1.750
2020/01/31 15:52:53.0	99.190	0.040	-0.470	1.810
2020/01/31 15:52:53.1	99.170	0.040	-0.430	1.870
2020/01/31 15:52:53.2	99.160	0.030	-0.390	1.920
2020/01/31 15:52:53.3	99.140	0.020	-0.360	1.970
2020/01/31 15:52:53.4	99.120	0.010	-0.310	2.020
2020/01/31 15:52:53.5	99.110	0.000	-0.270	2.060
2020/01/31 15:52:53.6	99.090	-0.000	-0.230	2.090
2020/01/31 15:52:53.7	99.080	-0.010	-0.190	2.130
2020/01/31 15:52:53.8	99.060	-0.020	-0.150	2.160
2020/01/31 15:52:53.9	99.050	-0.030	-0.110	2.180
2020/01/31 15:52:54.0	99.030	-0.040	-0.070	2.200
2020/01/31 15:52:54.1	99.020	-0.040	-0.030	2.210
2020/01/31 15:52:54.2	99.010	-0.050	0.010	2.220
2020/01/31 15:52:54.3	98.990	-0.060	0.040	2.220
2020/01/31 15:52:54.4	98.990	-0.070	0.070	2.210
2020/01/31 15:52:54.5	98.980	-0.070	0.100	2.210
2020/01/31 15:52:54.6	98.970	-0.080	0.130	2.190
2020/01/31 15:52:54.7	98.970	-0.090	0.160	2.180
2020/01/31 15:52:54.8	98.960	-0.100	0.190	2.160
2020/01/31 15:52:54.9	98.960	-0.100	0.210	2.130
2020/01/31 15:52:55.0	98.960	-0.110	0.230	2.100
2020/01/31 15:52:55.1	98.970	-0.120	0.250	2.070
2020/01/31 15:52:55.2	98.970	-0.130	0.270	2.030
2020/01/31 15:52:55.3	98.980	-0.140	0.280	1.990
2020/01/31 15:52:55.4	98.990	-0.150	0.300	1.940
2020/01/31 15:52:55.5	98.990	-0.160	0.310	1.890
2020/01/31 15:52:55.6	99.000	-0.170	0.320	1.840
2020/01/31 15:52:55.7	99.020	-0.180	0.330	1.780
2020/01/31 15:52:55.8	99.030	-0.190	0.330	1.730
2020/01/31 15:52:55.9	99.040	-0.200	0.330	1.670
2020/01/31 15:52:56.0	99.060	-0.210	0.340	1.610
2020/01/31 15:52:56.1	99.070	-0.220	0.340	1.550
2020/01/31 15:52:56.2	99.080	-0.240	0.340	1.490
2020/01/31 15:52:56.3	99.090	-0.250	0.340	1.430
2020/01/31 15:52:56.4	99.090	-0.260	0.330	1.370
2020/01/31 15:52:56.5	99.100	-0.270	0.330	1.310
2020/01/31 15:52:56.6	99.110	-0.290	0.320	1.250
2020/01/31 15:52:56.7	99.120	-0.300	0.320	1.190
2020/01/31 15:52:56.8	99.120	-0.310	0.310	1.130
2020/01/31 15:52:56.9	99.120	-0.320	0.300	1.070
2020/01/31 15:52:57.0	99.120	-0.330	0.290	1.010
2020/01/31 15:52:57.1	99.120	-0.340	0.270	0.950
2020/01/31 15:52:57.2	99.110	-0.350	0.260	0.890
2020/01/31 15:52:57.3	99.110	-0.350	0.240	0.830
2020/01/31 15:52:57.4	99.100	-0.360	0.220	0.780
2020/01/31 15:52:57.5	99.090	-0.360	0.200	0.720
2020/01/31 15:52:57.6	99.080	-0.370	0.170	0.660
2020/01/31 15:52:57.7	99.070	-0.370	0.150	0.600
2020/01/31 15:52:57.8	99.060	-0.370	0.120	0.540
2020/01/31 15:52:57.9	99.050	-0.370	0.080	0.480
2020/01/31 15:52:58.0	99.040	-0.370	0.050	0.410
2020/01/31 15:52:58.1	99.030	-0.360	0.010	0.350
2020/01/31 15:52:58.2	99.020	-0.360	-0.030	0.280
2020/01/31 15:52:58.3	99.010	-0.350	-0.070	0.220
2020/01/31 15:52:58.4	98.990	-0.340	-0.110	0.150
2020/01/31 15:52:58.5	98.980	-0.330	-0.160	0.090
2020/01/31 15:52:58.6	98.970	-0.320	-0.200	0.020
2020/01/31 15:52:58.7	98.960	-0.300	-0.250	-0.050
2020/01/31 15:52:58.8	98.950	-0.290	-0.300	-0.110
2020/01/31 15:52:58.9	98.940	-0.270	-0.350	-0.180
2020/01/31 15:52:59.0	98.930	-0.250	-0.400	-0.250
2020/01/31 15:52:59.1	98.920	-0.230	-0.450	-0.310
2020/01/31 15:52:59.2	98.910	-0.210	-0.500	-0.370
2020/01/31 15:52:59.3	98.900	-0.190	-0.540	-0.440
2020/01/31 15:52:59.4	98.900	-0.170	-0.590	-0.500
2020/01/31 15:52:59.5	98.880	-0.150	-0.630	-0.560
2020/01/31 15:52:59.6	98.870	-0.120	-0.670	-0.610
2020/01/31 15:52:59.7	98.850	-0.100	-0.710	-0.670
2020/01/31 15:52:59.8	98.840	-0.080	-0.750	-0.720
2020/01/31 15:52:59.9	98.830	-0.050	-0.790	-0.760
2020/01/31 15:53:00.0	98.810	-0.030	-0.820	-0.810
2020/01/31 15:53:00.1	98.800	-0.010	-0.840	-0.850
2020/01/31 15:53:00.2	98.780	0.020	-0.870	-0.880
2020/01/31 15:53:00.3	98.760	0.040	-0.890	-0.920
2020/01/31 15:53:00.4	98.740	0.070	-0.910	-0.940
2020/01/31 15:53:00.5	98.730	0.090	-0.920	-0.970
2020/01/31 15:53:00.6	98.710	0.120	-0.930	-0.990
2020/01/31 15:53:00.7	98.700	0.140	-0.940	-1.000
2020/01/31 15:53:00.8	98.680	0.170	-0.940	-1.010
2020/01/31 15:53:00.9	98.660	0.190	-0.950	-1.020
2020/01/31 15:53:01.0	98.640	0.220	-0.950	-1.020
2020/01/31 15:53:01.1	98.620	0.240	-0.940	-1.020
2020/01/31 15:53:01.2	98.600	0.270	-0.940	-1.020
2020/01/31 15:53:01.3	98.580	0.290	-0.930	-1.010
2020/01/31 15:53:01.4	98.560	0.320	-0.920	-1.000
2020/01/31 15:53:01.5	98.540	0.340	-0.910	-0.990
2020/01/31 15:53:01.6	98.530	0.370	-0.890	-0.980
2020/01/31 15:53:01.7	98.520	0.390	-0.880	-0.960
2020/01/31 15:53:01.8	98.510	0.420	-0.860	-0.940
2020/01/31 15:53:01.9	98.500	0.440	-0.840	-0.930
2020/01/31 15:53:02.0	98.490	0.460	-0.820	-0.910
2020/01/31 15:53:02.1	98.490	0.490	-0.800	-0.890
2020/01/31 15:53:02.2	98.490	0.510	-0.770	-0.870
2020/01/31 15:53:02.3	98.490	0.530	-0.750	-0.850
2020/01/31 15:53:02.4	98.500	0.550	-0.720	-0.820
2020/01/31 15:53:02.5	98.510	0.570	-0.690	-0.800
2020/01/31 15:53:02.6	98.520	0.580	-0.660	-0.770
2020/01/31 15:53:02.7	98.530	0.600	-0.630	-0.740
2020/01/31 15:53:02.8	98.550	0.610	-0.600	-0.710
2020/01/31 15:53:02.9	98.560	0.620	-0.560	-0.680
2020/01/31 15:53:03.0	98.590	0.630	-0.520	-0.650
2020/01/31 15:53:03.1	98.610	0.640	-0.490	-0.620
2020/01/31 15:53:03.2	98.630	0.640	-0.440	-0.580
2020/01/31 15:53:03.3	98.660	0.640	-0.400	-0.550
2020/01/31 15:53:03.4	98.680	0.640	-0.350	-0.510
2020/01/31 15:53:03.5	98.710	0.630	-0.310	-0.460
2020/01/31 15:53:03.6	98.740	0.630	-0.260	-0.420
2020/01/31 15:53:03.7	98.750	0.620	-0.200	-0.370
2020/01/31 15:53:03.8	98.780	0.610	-0.150	-0.320
2020/01/31 15:53:03.9	98.800	0.590	-0.100	-0.260
2020/01/31 15:53:04.0	98.830	0.570	-0.040	-0.210
2020/01/31 15:53:04.1	98.850	0.550	0.010	-0.150
2020/01/31 15:53:04.2	98.870	0.530	0.070	-0.090
2020/01/31 15:53:04.3	98.880	0.510	0.120	-0.030
2020/01/31 15:53:04.4	98.900	0.480	0.180	0.030
2020/01/31 15:53:04.5	98.910	0.450	0.240	0.100
2020/01/31 15:53:04.6	98.920	0.410	0.290	0.170
2020/01/31 15:53:04.7	98.930	0.380	0.350	0.250
2020/01/31 15:53:04.8	98.930	0.340	0.410	0.320
2020/01/31 15:53:04.9	98.930	0.310	0.460	0.390
2020/01/31 15:53:05.0	98.930	0.270	0.510	0.470
2020/01/31 15:53:05.1	98.930	0.220	0.570	0.540
2020/01/31 15:53:05.2	98.920	0.180	0.620	0.620
2020/01/31 15:53:05.3	98.910	0.140	0.670	0.690
2020/01/31 15:53:05.4	98.890	0.090	0.710	0.770
2020/01/31 15:53:05.5	98.880	0.050	0.760	0.850
2020/01/31 15:53:05.6	98.860	0.000	0.800	0.930
2020/01/31 15:53:05.7	98.850	-0.040	0.840	1.000
2020/01/31 15:53:05.8	98.830	-0.090	0.880	1.080
2020/01/31 15:53:05.9	98.810	-0.140	0.910	1.150
2020/01/31 15:53:06.0	98.780	-0.180	0.940	1.220
2020/01/31 15:53:06.1	98.760	-0.230	0.970	1.290
2020/01/31 15:53:06.2	98.730	-0.270	0.990	1.360
2020/01/31 15:53:06.3	98.700	-0.320	1.010	1.430
2020/01/31 15:53:06.4	98.670	-0.360	1.030	1.490
2020/01/31 15:53:06.5	98.640	-0.400	1.030	1.550
2020/01/31 15:53:06.6	98.620	-0.440	1.040	1.610
2020/01/31 15:53:06.7	98.590	-0.480	1.030	1.670
2020/01/31 15:53:06.8	98.560	-0.520	1.030	1.720
2020/01/31 15:53:06.9	98.540	-0.560	1.010	1.770
2020/01/31 15:53:07.0	98.510	-0.590	0.990	1.810
2020/01/31 15:53:07.1	98.490	-0.620	0.960	1.850
2020/01/31 15:53:07.2	98.460	-0.640	0.930	1.890
2020/01/31 15:53:07.3	98.440	-0.670	0.890	1.930
2020/01/31 15:53:07.4	98.410	-0.690	0.840	1.960
2020/01/31 15:53:07.5	98.390	-0.700	0.790	1.990
2020/01/31 15:53:07.6	98.370	-0.710	0.720	2.020
2020/01/31 15:53:07.7	98.370	-0.720	0.650	2.050
2020/01/31 15:53:07.8	98.350	-0.730	0.580	2.070
2020/01/31 15:53:07.9	98.340	-0.730	0.500	2.090
2020/01/31 15:53:08.0	98.320	-0.720	0.410	2.100
2020/01/31 15:53:08.1	98.300	-0.720	0.320	2.120
2020/01/31 15:53:08.2	98.290	-0.710	0.220	2.130
2020/01/31 15:53:08.3	98.270	-0.690	0.120	2.150
2020/01/31 15:53:08.4	98.260	-0.670	0.020	2.160
2020/01/31 15:53:08.5	98.250	-0.650	-0.090	2.170
2020/01/31 15:53:08.6	98.240	-0.620	-0.200	2.170
2020/01/31 15:53:08.7	98.220	-0.600	-0.320	2.180
2020/01/31 15:53:08.8	98.210	-0.560	-0.430	2.190
2020/01/31 15:53:08.9	98.210	-0.530	-0.550	2.190
2020/01/31 15:53:09.0	98.200	-0.490	-0.660	2.190
2020/01/31 15:53:09.1	98.200	-0.450	-0.770	2.180
2020/01/31 15:53:09.2	98.190	-0.410	-0.880	2.180
2020/01/31 15:53:09.3	98.190	-0.370	-0.990	2.170
2020/01/31 15:53:09.4	98.190	-0.320	-1.090	2.160
2020/01/31 15:53:09.5	98.200	-0.280	-1.190	2.140
2020/01/31 15:53:09.6	98.200	-0.230	-1.280	2.120
2020/01/31 15:53:09.7	98.210	-0.190	-1.360	2.100
2020/01/31 15:53:09.8	98.220	-0.140	-1.440	2.070
2020/01/31 15:53:09.9	98.230	-0.100	-1.510	2.040
2020/01/31 15:53:10.0	98.240	-0.060	-1.570	2.000
2020/01/31 15:53:10.1	98.260	-0.020	-1.630	1.970
2020/01/31 15:53:10.2	98.280	0.020	-1.670	1.920
2020/01/31 15:53:10.3	98.300	0.060	-1.710	1.880
2020/01/31 15:53:10.4	98.320	0.100	-1.730	1.830
2020/01/31 15:53:10.5	98.340	0.130	-1.750	1.780
2020/01/31 15:53:10.6	98.360	0.160	-1.750	1.720
2020/01/31 15:53:10.7	98.370	0.190	-1.750	1.670
2020/01/31 15:53:10.8	98.390	0.210	-1.730	1.610
2020/01/31 15:53:10.9	98.410	0.230	-1.700	1.540
2020/01/31 15:53:11.0	98.430	0.250	-1.660	1.480
2020/01/31 15:53:11.1	98.440	0.260	-1.620	1.420
2020/01/31 15:53:11.2	98.460	0.280	-1.560	1.350
2020/01/31 15:53:11.3	98.470	0.280	-1.490	1.280
2020/01/31 15:53:11.4	98.480	0.290	-1.420	1.220
2020/01/31 15:53:11.5	98.480	0.290	-1.330	1.150
2020/01/31 15:53:11.6	98.490	0.290	-1.240	1.080
2020/01/31 15:53:11.7	98.490	0.280	-1.140	1.010
2020/01/31 15:53:11.8	98.480	0.270	-1.040	0.950
2020/01/31 15:53:11.9	98.480	0.260	-0.930	0.880
2020/01/31 15:53:12.0	98.470	0.250	-0.820	0.810
2020/01/31 15:53:12.1	98.460	0.230	-0.710	0.740
2020/01/31 15:53:12.2	98.440	0.220	-0.590	0.680
2020/01/31 15:53:12.3	98.420	0.200	-0.470	0.610
2020/01/31 15:53:12.4	98.400	0.170	-0.350	0.550
2020/01/31 15:53:12.5	98.380	0.150	-0.230	0.480
2020/01/31 15:53:12.6	98.360	0.130	-0.110	0.420
2020/01/31 15:53:12.7	98.340	0.100	0.020	0.360
2020/01/31 15:53:12.8	98.310	0.080	0.130	0.300
2020/01/31 15:53:12.9	98.280	0.050	0.240	0.230
2020/01/31 15:53:13.0	98.250	0.020	0.350	0.170
2020/01/31 15:53:13.1	98.220	-0.000	0.460	0.110
2020/01/31 15:53:13.2	98.190	-0.030	0.560	0.050
2020/01/31 15:53:13.3	98.160	-0.050	0.650	-0.000
2020/01/31 15:53:13.4	98.130	-0.080	0.740	-0.060
2020/01/31 15:53:13.5	98.090	-0.100	0.820	-0.120
2020/01/31 15:53:13.6	98.060	-0.130	0.900	-0.170
2020/01/31 15:53:13.7	98.020	-0.150	0.960	-0.220
2020/01/31 15:53:13.8	97.980	-0.170	1.020	-0.280
2020/01/31 15:53:13.9	97.950	-0.190	1.070	-0.330
2020/01/31 15:53:14.0	97.920	-0.210	1.110	-0.380
2020/01/31 15:53:14.1	97.890	-0.220	1.150	-0.430
2020/01/31 15:53:14.2	97.860	-0.240	1.170	-0.480
2020/01/31 15:53:14.3	97.840	-0.250	1.180	-0.520
2020/01/31 15:53:14.4	97.810	-0.260	1.190	-0.570
2020/01/31 15:53:14.5	97.790	-0.270	1.180	-0.620
2020/01/31 15:53:14.6	97.770	-0.270	1.170	-0.660
2020/01/31 15:53:14.7	97.750	-0.270	1.150	-0.700
2020/01/31 15:53:14.8	97.730	-0.270	1.110	-0.740
2020/01/31 15:53:14.9	97.710	-0.270	1.070	-0.780
2020/01/31 15:53:15.0	97.700	-0.260	1.020	-0.810
2020/01/31 15:53:15.1	97.680	-0.250	0.960	-0.850
2020/01/31 15:53:15.2	97.670	-0.240	0.890	-0.880
2020/01/31 15:53:15.3	97.660	-0.220	0.820	-0.910
2020/01/31 15:53:15.4	97.660	-0.200	0.730	-0.940
2020/01/31 15:53:15.5	97.650	-0.180	0.640	-0.970
2020/01/31 15:53:15.6	97.650	-0.160	0.540	-0.990
2020/01/31 15:53:15.7	97.630	-0.130	0.440	-1.010
2020/01/31 15:53:15.8	97.630	-0.110	0.330	-1.040
2020/01/31 15:53:15.9	97.630	-0.080	0.220	-1.050
2020/01/31 15:53:16.0	97.630	-0.040	0.100	-1.070
2020/01/31 15:53:16.1	97.640	-0.010	-0.020	-1.080
2020/01/31 15:53:16.2	97.640	0.030	-0.140	-1.100
2020/01/31 15:53:16.3	97.650	0.070	-0.260	-1.110
2020/01/31 15:53:16.4	97.660	0.100	-0.390	-1.120
2020/01/31 15:53:16.5	97.670	0.140	-0.510	-1.130
2020/01/31 15:53:16.6	97.680	0.180	-0.630	-1.130
2020/01/31 15:53:16.7	97.690	0.230	-0.760	-1.140
2020/01/31 15:53:16.8	97.710	0.270	-0.870	-1.140
2020/01/31 15:53:16.9	97.720	0.310	-0.980	-1.140
2020/01/31 15:53:17.0	97.740	0.350	-1.080	-1.140
2020/01/31 15:53:17.1	97.750	0.390	-1.170	-1.130
2020/01/31 15:53:17.2	97.770	0.420	-1.260	-1.130
2020/01/31 15:53:17.3	97.790	0.460	-1.340	-1.120
2020/01/31 15:53:17.4	97.800	0.490	-1.400	-1.110
2020/01/31 15:53:17.5	97.820	0.530	-1.460	-1.100
2020/01/31 15:53:17.6	97.840	0.560	-1.500	-1.080
2020/01/31 15:53:17.7	97.860	0.580	-1.530	-1.060
2020/01/31 15:53:17.8	97.880	0.610	-1.550	-1.030
2020/01/31 15:53:17.9	97.890	0.630	-1.560	-1.010
2020/01/31 15:53:18.0	97.910	0.640	-1.560	-0.970
2020/01/31 15:53:18.1	97.920	0.660	-1.550	-0.940
2020/01/31 15:53:18.2	97.930	0.670	-1.520	-0.900
2020/01/31 15:53:18.3	97.940	0.670	-1.480	-0.850
2020/01/31 15:53:18.4	97.950	0.680	-1.440	-0.800
2020/01/31 15:53:18.5	97.950	0.680	-1.380	-0.750
2020/01/31 15:53:18.6	97.960	0.670	-1.310	-0.690
2020/01/31 15:53:18.7	97.970	0.660	-1.240	-0.620
2020/01/31 15:53:18.8	97.970	0.650	-1.150	-0.540
2020/01/31 15:53:18.9	97.960	0.640	-1.060	-0.470
2020/01/31 15:53:19.0	97.950	0.620	-0.970	-0.380
2020/01/31 15:53:19.1	97.940	0.590	-0.870	-0.290
2020/01/31 15:53:19.2	97.930	0.570	-0.770	-0.200
2020/01/31 15:53:19.3	97.910	0.540	-0.660	-0.100
2020/01/31 15:53:19.4	97.890	0.510	-0.560	0.010
2020/01/31 15:53:19.5	97.870	0.470	-0.450	0.120
2020/01/31 15:53:19.6	97.850	0.440	-0.340	0.230
2020/01/31 15:53:19.7	97.830	0.400	-0.230	0.360
2020/01/31 15:53:19.8	97.810	0.360	-0.120	0.490
2020/01/31 15:53:19.9	97.780	0.310	-0.020	0.610
2020/01/31 15:53:20.0	97.750	0.270	0.080	0.740
2020/01/31 15:53:20.1	97.720	0.220	0.180	0.870
2020/01/31 15:53:20.2	97.700	0.170	0.270	0.990
2020/01/31 15:53:20.3	97.670	0.120	0.360	1.120
2020/01/31 15:53:20.4	97.640	0.070	0.440	1.250
2020/01/31 15:53:20.5	97.620	0.020	0.520	1.380
2020/01/31 15:53:20.6	97.590	-0.030	0.590	1.500
2020/01/31 15:53:20.7	97.570	-0.080	0.650	1.620
2020/01/31 15:53:20.8	97.550	-0.130	0.710	1.740
2020/01/31 15:53:20.9	97.530	-0.180	0.760	1.840
2020/01/31 15:53:21.0	97.510	-0.230	0.810	1.950
2020/01/31 15:53:21.1	97.500	-0.280	0.850	2.040
2020/01/31 15:53:21.2	97.490	-0.330	0.880	2.130
2020/01/31 15:53:21.3	97.480	-0.380	0.900	2.220
2020/01/31 15:53:21.4	97.470	-0.420	0.920	2.290
2020/01/31 15:53:21.5	97.460	-0.460	0.930	2.360
2020/01/31 15:53:21.6	97.460	-0.500	0.940	2.420
2020/01/31 15:53:21.7	97.470	-0.540	0.930	2.470
2020/01/31 15:53:21.8	97.470	-0.580	0.930	2.510
2020/01/31 15:53:21.9	97.480	-0.610	0.910	2.540
2020/01/31 15:53:22.0	97.480	-0.640	0.890	2.570
2020/01/31 15:53:22.1	97.490	-0.660	0.870	2.580
2020/01/31 15:53:22.2	97.510	-0.690	0.840	2.600
2020/01/31 15:53:22.3	97.520	-0.710	0.810	2.600
2020/01/31 15:53:22.4	97.530	-0.720	0.770	2.600
2020/01/31 15:53:22.5	97.550	-0.730	0.730	2.590
2020/01/31 15:53:22.6	97.560	-0.740	0.690	2.580
2020/01/31 15:53:22.7	97.590	-0.750	0.640	2.560
2020/01/31 15:53:22.8	97.610	-0.750	0.590	2.540
2020/01/31 15:53:22.9	97.630	-0.740	0.540	2.520
2020/01/31 15:53:23.0	97.640	-0.740	0.490	2.490
2020/01/31 15:53:23.1	97.660	-0.730	0.430	2.460
2020/01/31 15:53:23.2	97.670	-0.710	0.370	2.430
2020/01/31 15:53:23.3	97.690	-0.690	0.310	2.390
2020/01/31 15:53:23.4	97.700	-0.670	0.250	2.360
2020/01/31 15:53:23.5	97.710	-0.650	0.190	2.320
2020/01/31 15:53:23.6	97.720	-0.620	0.120	2.290
2020/01/31 15:53:23.7	97.740	-0.590	0.060	2.260
2020/01/31 15:53:23.8	97.750	-0.560	-0.010	2.220
2020/01/31 15:53:23.9	97.750	-0.530	-0.070	2.180
2020/01/31 15:53:24.0	97.760	-0.490	-0.140	2.150
2020/01/31 15:53:24.1	97.770	-0.450	-0.210	2.110
2020/01/31 15:53:24.2	97.770	-0.410	-0.270	2.070
2020/01/31 15:53:24.3	97.780	-0.370	-0.340	2.030
2020/01/31 15:53:24.4	97.780	-0.330	-0.400	2.000
2020/01/31 15:53:24.5	97.780	-0.290	-0.460	1.960
2020/01/31 15:53:24.6	97.790	-0.240	-0.520	1.920
2020/01/31 15:53:24.7	97.790	-0.200	-0.580	1.880
2020/01/31 15:53:24.8	97.790	-0.160	-0.640	1.840
2020/01/31 15:53:24.9	97.800	-0.110	-0.690	1.790
2020/01/31 15:53:25.0	97.800	-0.070	-0.740	1.750
2020/01/31 15:53:25.1	97.800	-0.030	-0.790	1.700
2020/01/31 15:53:25.2	97.810	0.010	-0.840	1.660
2020/01/31 15:53:25.3	97.810	0.050	-0.880	1.610
2020/01/31 15:53:25.4	97.810	0.090	-0.920	1.560
2020/01/31 15:53:25.5	97.810	0.120	-0.950	1.510
2020/01/31 15:53:25.6	97.820	0.160	-0.980	1.460
2020/01/31 15:53:25.7	97.820	0.190	-1.000	1.400
2020/01/31 15:53:25.8	97.820	0.220	-1.020	1.350
2020/01/31 15:53:25.9	97.820	0.250	-1.030	1.290
2020/01/31 15:53:26.0	97.820	0.270	-1.040	1.230
2020/01/31 15:53:26.1	97.820	0.300	-1.040	1.160
2020/01/31 15:53:26.2	97.820	0.320	-1.040	1.100
2020/01/31 15:53:26.3	97.820	0.340	-1.030	1.030
2020/01/31 15:53:26.4	97.820	0.350	-1.010	0.960
2020/01/31 15:53:26.5	97.820	0.370	-0.990	0.890
2020/01/31 15:53:26.6	97.820	0.380	-0.970	0.820
2020/01/31 15:53:26.7	97.810	0.380	-0.930	0.750
2020/01/31 15:53:26.8	97.810	0.390	-0.900	0.680
2020/01/31 15:53:26.9	97.810	0.390	-0.860	0.600
2020/01/31 15:53:27.0	97.800	0.400	-0.810	0.530
2020/01/31 15:53:27.1	97.800	0.390	-0.760	0.450
2020/01/31 15:53:27.2	97.800	0.390	-0.710	0.380
2020/01/31 15:53:27.3	97.790	0.390	-0.660	0.300
2020/01/31 15:53:27.4	97.790	0.380	-0.600	0.230
2020/01/31 15:53:27.5	97.780	0.380	-0.550	0.160
2020/01/31 15:53:27.6	97.780	0.370	-0.490	0.080
2020/01/31 15:53:27.7	97.760	0.360	-0.430	0.020
2020/01/31 15:53:27.8	97.750	0.350	-0.370	-0.050
2020/01/31 15:53:27.9	97.750	0.340	-0.310	-0.120
2020/01/31 15:53:28.0	97.740	0.330	-0.260	-0.190
2020/01/31 15:53:28.1	97.740	0.310	-0.200	-0.250
2020/01/31 15:53:28.2	97.730	0.300	-0.150	-0.310
2020/01/31 15:53:28.3	97.720	0.290	-0.100	-0.370
2020/01/31 15:53:28.4	97.720	0.280	-0.060	-0.430
2020/01/31 15:53:28.5	97.710	0.270	-0.020	-0.480
2020/01/31 15:53:28.6	97.700	0.260	0.020	-0.540
2020/01/31 15:53:28.7	97.680	0.250	0.050	-0.580
2020/01/31 15:53:28.8	97.680	0.250	0.080	-0.630
2020/01/31 15:53:28.9	97.670	0.240	0.100	-0.670
2020/01/31 15:53:29.0	97.660	0.230	0.120	-0.710
2020/01/31 15:53:29.1	97.650	0.230	0.130	-0.740
2020/01/31 15:53:29.2	97.650	0.230	0.140	-0.770
2020/01/31 15:53:29.3	97.640	0.230	0.140	-0.800
2020/01/31 15:53:29.4	97.630	0.220	0.130	-0.830
2020/01/31 15:53:29.5	97.630	0.230	0.130	-0.850
2020/01/31 15:53:29.6	97.620	0.230	0.110	-0.870
2020/01/31 15:53:29.7	97.610	0.230	0.100	-0.870
2020/01/31 15:53:29.8	97.610	0.230	0.080	-0.880
2020/01/31 15:53:29.9	97.600	0.240	0.050	-0.890
2020/01/31 15:53:30.0	97.600	0.240	0.020	-0.890
2020/01/31 15:53:30.1	97.590	0.240	-0.010	-0.890
2020/01/31 15:53:30.2	97.590	0.250	-0.040	-0.880
2020/01/31 15:53:30.3	97.580	0.250	-0.070	-0.870
2020/01/31 15:53:30.4	97.580	0.260	-0.100	-0.860
2020/01/31 15:53:30.5	97.580	0.260	-0.140	-0.850
2020/01/31 15:53:30.6	97.570	0.260	-0.170	-0.830
2020/01/31 15:53:30.7	97.560	0.270	-0.210	-0.800
2020/01/31 15:53:30.8	97.550	0.270	-0.240	-0.780
2020/01/31 15:53:30.9	97.550	0.270	-0.270	-0.750
2020/01/31 15:53:31.0	97.550	0.270	-0.300	-0.720
2020/01/31 15:53:31.1	97.550	0.270	-0.320	-0.690
2020/01/31 15:53:31.2	97.550	0.260	-0.340	-0.650
2020/01/31 15:53:31.3	97.550	0.260	-0.360	-0.620
2020/01/31 15:53:31.4	97.550	0.250	-0.370	-0.580
2020/01/31 15:53:31.5	97.550	0.240	-0.380	-0.540
2020/01/31 15:53:31.6	97.550	0.230	-0.380	-0.510
2020/01/31 15:53:31.7	97.570	0.210	-0.380	-0.460
2020/01/31 15:53:31.8	97.570	0.190	-0.370	-0.420
2020/01/31 15:53:31.9	97.580	0.170	-0.360	-0.380
2020/01/31 15:53:32.0	97.590	0.150	-0.340	-0.340
2020/01/31 15:53:32.1	97.600	0.130	-0.320	-0.300
2020/01/31 15:53:32.2	97.610	0.100	-0.290	-0.260
2020/01/31 15:53:32.3	97.620	0.070	-0.260	-0.210
2020/01/31 15:53:32.4	97.640	0.040	-0.220	-0.170
2020/01/31 15:53:32.5	97.650	0.010	-0.180	-0.120
2020/01/31 15:53:32.6	97.660	-0.030	-0.140	-0.080
2020/01/31 15:53:32.7	97.680	-0.070	-0.090	-0.020
2020/01/31 15:53:32.8	97.690	-0.110	-0.030	0.020
2020/01/31 15:53:32.9	97.700	-0.150	0.020	0.080
2020/01/31 15:53:33.0	97.720	-0.190	0.080	0.130
2020/01/31 15:53:33.1	97.730	-0.230	0.130	0.180
2020/01/31 15:53:33.2	97.740	-0.280	0.190	0.230
2020/01/31 15:53:33.3	97.750	-0.320	0.250	0.290
2020/01/31 15:53:33.4	97.770	-0.370	0.300	0.340
2020/01/31 15:53:33.5	97.780	-0.410	0.360	0.400
2020/01/31 15:53:33.6	97.790	-0.450	0.410	0.460
2020/01/31 15:53:33.7	97.800	-0.490	0.460	0.520
2020/01/31 15:53:33.8	97.810	-0.530	0.510	0.580
2020/01/31 15:53:33.9	97.820	-0.570	0.550	0.640
2020/01/31 15:53:34.0	97.830	-0.610	0.590	0.700
2020/01/31 15:53:34.1	97.830	-0.640	0.630	0.760
2020/01/31 15:53:34.2	97.840	-0.670	0.660	0.820
2020/01/31 15:53:34.3	97.850	-0.690	0.680	0.880
2020/01/31 15:53:34.4	97.850	-0.720	0.700	0.940
2020/01/31 15:53:34.5	97.860	-0.740	0.700	0.990
2020/01/31 15:53:34.6	97.860	-0.750	0.710	1.050
2020/01/31 15:53:34.7	97.870	-0.760	0.700	1.110
2020/01/31 15:53:34.8	97.880	-0.770	0.690	1.170
2020/01/31 15:53:34.9	97.880	-0.770	0.680	1.220
2020/01/31 15:53:35.0	97.880	-0.770	0.650	1.270
2020/01/31 15:53:35.1	97.890	-0.760	0.620	1.320
2020/01/31 15:53:35.2	97.890	-0.740	0.580	1.370
2020/01/31 15:53:35.3	97.890	-0.730	0.530	1.420
2020/01/31 15:53:35.4	97.900	-0.700	0.480	1.460
2020/01/31 15:53:35.5	97.900	-0.670	0.420	1.500
2020/01/31 15:53:35.6	97.910	-0.640	0.350	1.540
2020/01/31 15:53:35.7	97.910	-0.610	0.280	1.590
2020/01/31 15:53:35.8	97.920	-0.570	0.210	1.620
2020/01/31 15:53:35.9	97.920	-0.520	0.130	1.660
2020/01/31 15:53:36.0	97.930	-0.470	0.040	1.690
2020/01/31 15:53:36.1	97.940	-0.420	-0.050	1.720
2020/01/31 15:53:36.2	97.940	-0.370	-0.140	1.750
2020/01/31 15:53:36.3	97.950	-0.310	-0.240	1.780
2020/01/31 15:53:36.4	97.960	-0.250	-0.330	1.800
2020/01/31 15:53:36.5	97.960	-0.190	-0.430	1.830
2020/01/31 15:53:36.6	97.970	-0.130	-0.530	1.850
2020/01/31 15:53:36.7	97.970	-0.060	-0.630	1.880
2020/01/31 15:53:36.8	97.980	0.000	-0.720	1.900
2020/01/31 15:53:36.9	97.990	0.060	-0.820	1.920
2020/01/31 15:53:37.0	98.000	0.130	-0.910	1.940
2020/01/31 15:53:37.1	98.000	0.190	-1.000	1.950
2020/01/31 15:53:37.2	98.010	0.250	-1.080	1.970
2020/01/31 15:53:37.3	98.020	0.310	-1.160	1.980
2020/01/31 15:53:37.4	98.030	0.370	-1.230	2.000
2020/01/31 15:53:37.5	98.040	0.430	-1.300	2.010
2020/01/31 15:53:37.6	98.040	0.480	-1.360	2.010
2020/01/31 15:53:37.7	98.050	0.530	-1.410	2.020
2020/01/31 15:53:37.8	98.060	0.570	-1.460	2.020
2020/01/31 15:53:37.9	98.070	0.620	-1.500	2.020
2020/01/31 15:53:38.0	98.080	0.650	-1.530	2.020
2020/01/31 15:53:38.1	98.090	0.690	-1.550	2.010
2020/01/31 15:53:38.2	98.100	0.720	-1.560	2.000
2020/01/31 15:53:38.3	98.110	0.740	-1.560	1.990
2020/01/31 15:53:38.4	98.120	0.760	-1.560	1.970
2020/01/31 15:53:38.5	98.130	0.780	-1.540	1.950
2020/01/31 15:53:38.6	98.140	0.790	-1.520	1.920
2020/01/31 15:53:38.7	98.160	0.790	-1.480	1.900
2020/01/31 15:53:38.8	98.170	0.790	-1.430	1.860
2020/01/31 15:53:38.9	98.190	0.790	-1.380	1.830
2020/01/31 15:53:39.0	98.200	0.780	-1.310	1.780
2020/01/31 15:53:39.1	98.210	0.770	-1.240	1.740
2020/01/31 15:53:39.2	98.230	0.750	-1.160	1.690
2020/01/31 15:53:39.3	98.240	0.730	-1.070	1.640
2020/01/31 15:53:39.4	98.250	0.700	-0.970	1.590
2020/01/31 15:53:39.5	98.260	0.670	-0.860	1.540
2020/01/31 15:53:39.6	98.270	0.630	-0.750	1.480
2020/01/31 15:53:39.7	98.270	0.600	-0.630	1.430
2020/01/31 15:53:39.8	98.270	0.550	-0.500	1.370
2020/01/31 15:53:39.9	98.280	0.510	-0.370	1.310
2020/01/31 15:53:40.0	98.280	0.460	-0.240	1.250
2020/01/31 15:53:40.1	98.270	0.420	-0.110	1.200
2020/01/31 15:53:40.2	98.270	0.370	0.020	1.140
2020/01/31 15:53:40.3	98.260	0.320	0.160	1.080
2020/01/31 15:53:40.4	98.260	0.270	0.290	1.020
2020/01/31 15:53:40.5	98.250	0.210	0.420	0.970
2020/01/31 15:53:40.6	98.230	0.160	0.550	0.920
2020/01/31 15:53:40.7	98.220	0.110	0.670	0.860
2020/01/31 15:53:40.8	98.210	0.060	0.790	0.810
2020/01/31 15:53:40.9	98.190	0.010	0.900	0.760
2020/01/31 15:53:41.0	98.170	-0.040	1.000	0.710
2020/01/31 15:53:41.1	98.150	-0.080	1.090	0.660
2020/01/31 15:53:41.2	98.130	-0.120	1.180	0.610
2020/01/31 15:53:41.3	98.110	-0.160	1.250	0.560
2020/01/31 15:53:41.4	98.080	-0.200	1.310	0.510
2020/01/31 15:53:41.5	98.060	-0.240	1.370	0.470
2020/01/31 15:53:41.6	98.040	-0.270	1.410	0.420
2020/01/31 15:53:41.7	98.020	-0.290	1.440	0.370
2020/01/31 15:53:41.8	98.000	-0.310	1.460	0.320
2020/01/31 15:53:41.9	97.980	-0.330	1.460	0.270
2020/01/31 15:53:42.0	97.970	-0.350	1.450	0.220
2020/01/31 15:53:42.1	97.950	-0.360	1.430	0.160
2020/01/31 15:53:42.2	97.940	-0.360	1.400	0.110
2020/01/31 15:53:42.3	97.930	-0.360	1.360	0.050
2020/01/31 15:53:42.4	97.920	-0.360	1.300	-0.010
2020/01/31 15:53:42.5	97.910	-0.350	1.230	-0.070
2020/01/31 15:53:42.6	97.910	-0.340	1.160	-0.130
2020/01/31 15:53:42.7	97.890	-0.330	1.070	-0.200
2020/01/31 15:53:42.8	97.890	-0.310	0.970	-0.260
2020/01/31 15:53:42.9	97.900	-0.290	0.870	-0.330
2020/01/31 15:53:43.0	97.900	-0.260	0.760	-0.390
2020/01/31 15:53:43.1	97.910	-0.230	0.640	-0.460
2020/01/31 15:53:43.2	97.920	-0.210	0.520	-0.530
2020/01/31 15:53:43.3	97.930	-0.170	0.390	-0.590
2020/01/31 15:53:43.4	97.950	-0.140	0.260	-0.660
2020/01/31 15:53:43.5	97.970	-0.110	0.120	-0.720
2020/01/31 15:53:43.6	97.980	-0.070	-0.010	-0.780
2020/01/31 15:53:43.7	98.000	-0.040	-0.150	-0.850
2020/01/31 15:53:43.8	98.020	-0.000	-0.280	-0.910
2020/01/31 15:53:43.9	98.050	0.030	-0.410	-0.960
2020/01/31 15:53:44.0	98.080	0.060	-0.540	-1.010
2020/01/31 15:53:44.1	98.100	0.100	-0.660	-1.060
2020/01/31 15:53:44.2	98.130	0.130	-0.780	-1.110
2020/01/31 15:53:44.3	98.160	0.160	-0.900	-1.150
2020/01/31 15:53:44.4	98.190	0.180	-1.000	-1.190
2020/01/31 15:53:44.5	98.220	0.210	-1.100	-1.220
2020/01/31 15:53:44.6	98.250	0.230	-1.190	-1.250
2020/01/31 15:53:44.7	98.280	0.250	-1.280	-1.260
2020/01/31 15:53:44.8	98.310	0.270	-1.350	-1.280
2020/01/31 15:53:44.9	98.330	0.280	-1.410	-1.290
2020/01/31 15:53:45.0	98.360	0.290	-1.470	-1.300
2020/01/31 15:53:45.1	98.380	0.290	-1.510	-1.300
2020/01/31 15:53:45.2	98.410	0.290	-1.540	-1.290
2020/01/31 15:53:45.3	98.430	0.290	-1.550	-1.280
2020/01/31 15:53:45.4	98.450	0.290	-1.560	-1.270
2020/01/31 15:53:45.5	98.470	0.280	-1.560	-1.240
2020/01/31 15:53:45.6	98.490	0.260	-1.540	-1.220
2020/01/31 15:53:45.7	98.500	0.250	-1.510	-1.180
2020/01/31 15:53:45.8	98.510	0.230	-1.470	-1.140
2020/01/31 15:53:45.9	98.520	0.200	-1.420	-1.100
2020/01/31 15:53:46.0	98.530	0.180	-1.360	-1.050
2020/01/31 15:53:46.1	98.530	0.150	-1.300	-1.000
2020/01/31 15:53:46.2	98.540	0.120	-1.220	-0.940
2020/01/31 15:53:46.3	98.530	0.080	-1.140	-0.870
2020/01/31 15:53:46.4	98.530	0.050	-1.050	-0.810
2020/01/31 15:53:46.5	98.530	0.010	-0.960	-0.730
2020/01/31 15:53:46.6	98.520	-0.030	-0.860	-0.660
2020/01/31 15:53:46.7	98.510	-0.070	-0.750	-0.570
2020/01/31 15:53:46.8	98.500	-0.110	-0.650	-0.490
2020/01/31 15:53:46.9	98.480	-0.150	-0.540	-0.410
2020/01/31 15:53:47.0	98.460	-0.190	-0.430	-0.320
2020/01/31 15:53:47.1	98.440	-0.230	-0.320	-0.230
2020/01/31 15:53:47.2	98.410	-0.270	-0.210	-0.130
2020/01/31 15:53:47.3	98.390	-0.310	-0.100	-0.040
2020/01/31 15:53:47.4	98.360	-0.350	0.000	0.060
2020/01/31 15:53:47.5	98.330	-0.380	0.100	0.150
2020/01/31 15:53:47.6	98.300	-0.420	0.200	0.250
2020/01/31 15:53:47.7	98.270	-0.450	0.290	0.350
2020/01/31 15:53:47.8	98.230	-0.480	0.380	0.450
2020/01/31 15:53:47.9	98.200	-0.500	0.450	0.550
2020/01/31 15:53:48.0	98.170	-0.520	0.520	0.640
2020/01/31 15:53:48.1	98.140	-0.540	0.580	0.740
2020/01/31 15:53:48.2	98.110	-0.560	0.630	0.830
2020/01/31 15:53:48.3	98.080	-0.570	0.680	0.920
2020/01/31 15:53:48.4	98.060	-0.580	0.710	1.010
2020/01/31 15:53:48.5	98.030	-0.590	0.730	1.100
2020/01/31 15:53:48.6	98.010	-0.590	0.750	1.180
2020/01/31 15:53:48.7	97.990	-0.580	0.750	1.270
2020/01/31 15:53:48.8	97.970	-0.580	0.750	1.340
2020/01/31 15:53:48.9	97.950	-0.570	0.730	1.420
2020/01/31 15:53:49.0	97.940	-0.550	0.710	1.490
2020/01/31 15:53:49.1	97.930	-0.530	0.680	1.560
2020/01/31 15:53:49.2	97.920	-0.510	0.640	1.620
2020/01/31 15:53:49.3	97.920	-0.490	0.590	1.680
2020/01/31 15:53:49.4	97.920	-0.460	0.540	1.730
2020/01/31 15:53:49.5	97.920	-0.430	0.480	1.780
2020/01/31 15:53:49.6	97.920	-0.400	0.420	1.820
2020/01/31 15:53:49.7	97.940	-0.360	0.350	1.870
2020/01/31 15:53:49.8	97.950	-0.320	0.280	1.900
2020/01/31 15:53:49.9	97.970	-0.290	0.200	1.930
2020/01/31 15:53:50.0	97.980	-0.250	0.130	1.960
2020/01/31 15:53:50.1	98.000	-0.210	0.050	1.980
2020/01/31 15:53:50.2	98.030	-0.170	-0.020	2.000
2020/01/31 15:53:50.3	98.050	-0.130	-0.100	2.010
2020/01/31 15:53:50.4	98.070	-0.090	-0.170	2.020
2020/01/31 15:53:50.5	98.100	-0.050	-0.250	2.030
2020/01/31 15:53:50.6	98.130	-0.020	-0.310	2.030
2020/01/31 15:53:50.7	98.150	0.020	-0.380	2.030
2020/01/31 15:53:50.8	98.180	0.060	-0.440	2.030
2020/01/31 15:53:50.9	98.210	0.090	-0.500	2.020
2020/01/31 15:53:51.0	98.240	0.120	-0.550	2.010
2020/01/31 15:53:51.1	98.260	0.150	-0.600	2.000
2020/01/31 15:53:51.2	98.290	0.180	-0.640	1.990
2020/01/31 15:53:51.3	98.320	0.200	-0.680	1.980
2020/01/31 15:53:51.4	98.340	0.230	-0.710	1.960
2020/01/31 15:53:51.5	98.360	0.250	-0.730	1.940
2020/01/31 15:53:51.6	98.380	0.260	-0.750	1.930
2020/01/31 15:53:51.7	98.400	0.280	-0.760	1.910
2020/01/31 15:53:51.8	98.420	0.290	-0.770	1.890
2020/01/31 15:53:51.9	98.430	0.300	-0.770	1.870
2020/01/31 15:53:52.0	98.440	0.310	-0.760	1.850
2020/01/31 15:53:52.1	98.450	0.320	-0.750	1.820
2020/01/31 15:53:52.2	98.450	0.320	-0.730	1.790
2020/01/31 15:53:52.3	98.450	0.320	-0.710	1.770
2020/01/31 15:53:52.4	98.450	0.320	-0.680	1.740
2020/01/31 15:53:52.5	98.450	0.320	-0.650	1.700
2020/01/31 15:53:52.6	98.440	0.310	-0.610	1.670
2020/01/31 15:53:52.7	98.430	0.310	-0.570	1.630
2020/01/31 15:53:52.8	98.420	0.300	-0.520	1.590
2020/01/31 15:53:52.9	98.410	0.280	-0.470	1.540
2020/01/31 15:53:53.0	98.400	0.270	-0.420	1.490
2020/01/31 15:53:53.1	98.380	0.260	-0.360	1.440
2020/01/31 15:53:53.2	98.370	0.240	-0.300	1.380
2020/01/31 15:53:53.3	98.350	0.220	-0.240	1.320
2020/01/31 15:53:53.4	98.340	0.210	-0.180	1.260
2020/01/31 15:53:53.5	98.320	0.190	-0.120	1.200
2020/01/31 15:53:53.6	98.310	0.170	-0.060	1.130
2020/01/31 15:53:53.7	98.290	0.150	-0.000	1.060
2020/01/31 15:53:53.8	98.270	0.130	0.060	0.990
2020/01/31 15:53:53.9	98.250	0.110	0.110	0.920
2020/01/31 15:53:54.0	98.230	0.090	0.170	0.840
2020/01/31 15:53:54.1	98.210	0.070	0.220	0.770
2020/01/31 15:53:54.2	98.190	0.060	0.270	0.690
2020/01/31 15:53:54.3	98.170	0.040	0.310	0.620
2020/01/31 15:53:54.4	98.140	0.030	0.350	0.540
2020/01/31 15:53:54.5	98.120	0.010	0.380	0.470
2020/01/31 15:53:54.6	98.090	0.000	0.410	0.390
2020/01/31 15:53:54.7	98.070	-0.010	0.430	0.320
2020/01/31 15:53:54.8	98.050	-0.010	0.450	0.250
2020/01/31 15:53:54.9	98.020	-0.020	0.460	0.180
2020/01/31 15:53:55.0	97.990	-0.020	0.470	0.120
2020/01/31 15:53:55.1	97.960	-0.020	0.460	0.050
2020/01/31 15:53:55.2	97.940	-0.020	0.450	-0.010
2020/01/31 15:53:55.3	97.910	-0.010	0.440	-0.080
2020/01/31 15:53:55.4	97.880	-0.010	0.410	-0.140
2020/01/31 15:53:55.5	97.850	0.000	0.390	-0.190
2020/01/31 15:53:55.6	97.830	0.020	0.350	-0.250
2020/01/31 15:53:55.7	97.800	0.030	0.310	-0.300
2020/01/31 15:53:55.8	97.780	0.050	0.260	-0.350
2020/01/31 15:53:55.9	97.750	0.070	0.210	-0.400
2020/01/31 15:53:56.0	97.730	0.090	0.150	-0.440
2020/01/31 15:53:56.1	97.710	0.110	0.090	-0.490
2020/01/31 15:53:56.2	97.690	0.140	0.020	-0.530
2020/01/31 15:53:56.3	97.670	0.170	-0.050	-0.570
2020/01/31 15:53:56.4	97.660	0.190	-0.120	-0.610
2020/01/31 15:53:56.5	97.650	0.220	-0.190	-0.650
2020/01/31 15:53:56.6	97.640	0.250	-0.260	-0.690
2020/01/31 15:53:56.7	97.630	0.270	-0.340	-0.720
2020/01/31 15:53:56.8	97.620	0.300	-0.410	-0.760
2020/01/31 15:53:56.9	97.620	0.330	-0.480	-0.790
2020/01/31 15:53:57.0	97.630	0.350	-0.550	-0.830
2020/01/31 15:53:57.1	97.630	0.380	-0.610	-0.860
2020/01/31 15:53:57.2	97.640	0.400	-0.680	-0.890
2020/01/31 15:53:57.3	97.650	0.420	-0.740	-0.930
2020/01/31 15:53:57.4	97.660	0.430	-0.790	-0.960
2020/01/31 15:53:57.5	97.680	0.450	-0.840	-0.990
2020/01/31 15:53:57.6	97.700	0.460	-0.880	-1.020
2020/01/31 15:53:57.7	97.710	0.470	-0.910	-1.050
2020/01/31 15:53:57.8	97.730	0.480	-0.940	-1.080
2020/01/31 15:53:57.9	97.760	0.480	-0.970	-1.100
2020/01/31 15:53:58.0	97.780	0.480	-0.980	-1.130
2020/01/31 15:53:58.1	97.810	0.470	-0.990	-1.150
2020/01/31 15:53:58.2	97.840	0.460	-0.990	-1.180
2020/01/31 15:53:58.3	97.860	0.450	-0.980	-1.200
2020/01/31 15:53:58.4	97.890	0.440	-0.960	-1.220
2020/01/31 15:53:58.5	97.920	0.420	-0.940	-1.240
2020/01/31 15:53:58.6	97.950	0.400	-0.910	-1.250
2020/01/31 15:53:58.7	97.970	0.370	-0.870	-1.260
2020/01/31 15:53:58.8	98.000	0.350	-0.820	-1.270
2020/01/31 15:53:58.9	98.030	0.320	-0.770	-1.270
2020/01/31 15:53:59.0	98.050	0.280	-0.710	-1.280
2020/01/31 15:53:59.1	98.080	0.250	-0.650	-1.280
2020/01/31 15:53:59.2	98.100	0.210	-0.580	-1.270
2020/01/31 15:53:59.3	98.120	0.170	-0.500	-1.260
2020/01/31 15:53:59.4	98.140	0.130	-0.430	-1.240
2020/01/31 15:53:59.5	98.160	0.090	-0.350	-1.220
2020/01/31 15:53:59.6	98.170	0.050	-0.260	-1.190
2020/01/31 15:53:59.7	98.180	0.010	-0.170	-1.160
2020/01/31 15:53:59.8	98.190	-0.030	-0.090	-1.110
2020/01/31 15:53:59.9	98.200	-0.070	-0.010	-1.070
2020/01/31 15:54:00.0	98.200	-0.110	0.080	-1.010
2020/01/31 15:54:00.1	98.210	-0.150	0.160	-0.950
2020/01/31 15:54:00.2	98.200	-0.190	0.230	-0.880
2020/01/31 15:54:00.3	98.200	-0.220	0.310	-0.810
2020/01/31 15:54:00.4	98.190	-0.260	0.380	-0.730
2020/01/31 15:54:00.5	98.190	-0.290	0.440	-0.650
2020/01/31 15:54:00.6	98.170	-0.320	0.500	-0.560
2020/01/31 15:54:00.7	98.150	-0.350	0.560	-0.460
2020/01/31 15:54:00.8	98.130	-0.370	0.610	-0.360
2020/01/31 15:54:00.9	98.120	-0.400	0.650	-0.250
2020/01/31 15:54:01.0	98.100	-0.420	0.680	-0.150
2020/01/31 15:54:01.1	98.080	-0.430	0.710	-0.040
2020/01/31 15:54:01.2	98.060	-0.450	0.730	0.070
2020/01/31 15:54:01.3	98.030	-0.460	0.740	0.180
2020/01/31 15:54:01.4	98.010	-0.470	0.740	0.290
2020/01/31 15:54:01.5	97.990	-0.470	0.740	0.400
2020/01/31 15:54:01.6	97.970	-0.470	0.730	0.520
2020/01/31 15:54:01.7	97.950	-0.470	0.710	0.630
2020/01/31 15:54:01.8	97.920	-0.470	0.680	0.740
2020/01/31 15:54:01.9	97.900	-0.460	0.650	0.840
2020/01/31 15:54:02.0	97.880	-0.450	0.610	0.950
2020/01/31 15:54:02.1	97.860	-0.440	0.560	1.050
2020/01/31 15:54:02.2	97.840	-0.430	0.510	1.150
2020/01/31 15:54:02.3	97.820	-0.410	0.450	1.240
2020/01/31 15:54:02.4	97.810	-0.390	0.390	1.330
2020/01/31 15:54:02.5	97.790	-0.370	0.320	1.420
2020/01/31 15:54:02.6	97.770	-0.350	0.250	1.500
2020/01/31 15:54:02.7	97.770	-0.330	0.170	1.590
2020/01/31 15:54:02.8	97.760	-0.310	0.100	1.660
2020/01/31 15:54:02.9	97.740	-0.290	0.020	1.740
2020/01/31 15:54:03.0	97.730	-0.260	-0.060	1.800
2020/01/31 15:54:03.1	97.720	-0.240	-0.140	1.870
2020/01/31 15:54:03.2	97.710	-0.210	-0.210	1.930
2020/01/31 15:54:03.3	97.700	-0.190	-0.290	1.990
2020/01/31 15:54:03.4	97.690	-0.170	-0.370	2.040
2020/01/31 15:54:03.5	97.680	-0.140	-0.440	2.090
2020/01/31 15:54:03.6	97.670	-0.120	-0.510	2.140
2020/01/31 15:54:03.7	97.660	-0.100	-0.570	2.190
2020/01/31 15:54:03.8	97.660	-0.080	-0.630	2.230
2020/01/31 15:54:03.9	97.650	-0.070	-0.690	2.270
2020/01/31 15:54:04.0	97.640	-0.050	-0.740	2.310
2020/01/31 15:54:04.1	97.630	-0.040	-0.780	2.340
2020/01/31 15:54:04.2	97.630	-0.020	-0.820	2.380
2020/01/31 15:54:04.3	97.620	-0.010	-0.850	2.410
2020/01/31 15:54:04.4	97.610	-0.000	-0.880	2.430
2020/01/31 15:54:04.5	97.610	0.000	-0.900	2.460
2020/01/31 15:54:04.6	97.610	0.010	-0.910	2.480
2020/01/31 15:54:04.7	97.600	0.010	-0.920	2.510
2020/01/31 15:54:04.8	97.600	0.010	-0.920	2.520
2020/01/31 15:54:04.9	97.600	0.010	-0.910	2.530
2020/01/31 15:54:05.0	97.610	0.010	-0.900	2.540
2020/01/31 15:54:05.1	97.610	0.010	-0.880	2.550
2020/01/31 15:54:05.2	97.620	0.010	-0.850	2.550
2020/01/31 15:54:05.3	97.630	0.000	-0.820	2.550
2020/01/31 15:54:05.4	97.640	-0.010	-0.790	2.540
2020/01/31 15:54:05.5	97.650	-0.010	-0.750	2.530
2020/01/31 15:54:05.6	97.660	-0.020	-0.710	2.510
2020/01/31 15:54:05.7	97.680	-0.030	-0.670	2.490
2020/01/31 15:54:05.8	97.700	-0.030	-0.620	2.470
2020/01/31 15:54:05.9	97.710	-0.040	-0.580	2.430
2020/01/31 15:54:06.0	97.730	-0.050	-0.530	2.400
2020/01/31 15:54:06.1	97.750	-0.050	-0.480	2.360
2020/01/31 15:54:06.2	97.770	-0.060	-0.430	2.310
2020/01/31 15:54:06.3	97.790	-0.060	-0.390	2.250
2020/01/31 15:54:06.4	97.810	-0.060	-0.340	2.200
2020/01/31 15:54:06.5	97.830	-0.070	-0.300	2.130
2020/01/31 15:54:06.6	97.840	-0.070	-0.250	2.070
2020/01/31 15:54:06.7	97.870	-0.060	-0.210	2.000
2020/01/31 15:54:06.8	97.890	-0.060	-0.170	1.920
2020/01/31 15:54:06.9	97.910	-0.060	-0.140	1.840
2020/01/31 15:54:07.0	97.920	-0.050	-0.100	1.760
2020/01/31 15:54:07.1	97.940	-0.040	-0.080	1.670
2020/01/31 15:54:07.2	97.950	-0.030	-0.050	1.580
2020/01/31 15:54:07.3	97.960	-0.010	-0.030	1.490
2020/01/31 15:54:07.4	97.970	0.000	-0.010	1.390
2020/01/31 15:54:07.5	97.970	0.020	-0.000	1.300
2020/01/31 15:54:07.6	97.980	0.040	0.010	1.200
2020/01/31 15:54:07.7	97.990	0.060	0.010	1.100
2020/01/31 15:54:07.8	97.990	0.080	0.010	1.000
2020/01/31 15:54:07.9	97.980	0.110	0.010	0.890
2020/01/31 15:54:08.0	97.980	0.140	0.000	0.790
2020/01/31 15:54:08.1	97.970	0.160	-0.010	0.690
2020/01/31 15:54:08.2	97.970	0.190	-0.020	0.590
2020/01/31 15:54:08.3	97.960	0.220	-0.040	0.490
2020/01/31 15:54:08.4	97.950	0.250	-0.060	0.390
2020/01/31 15:54:08.5	97.930	0.280	-0.080	0.290
2020/01/31 15:54:08.6	97.920	0.310	-0.100	0.190
2020/01/31 15:54:08.7	97.900	0.340	-0.120	0.090
2020/01/31 15:54:08.8	97.890	0.360	-0.150	0.000
2020/01/31 15:54:08.9	97.870	0.390	-0.170	-0.090
2020/01/31 15:54:09.0	97.850	0.410	-0.190	-0.180
2020/01/31 15:54:09.1	97.830	0.440	-0.220	-0.270
2020/01/31 15:54:09.2	97.820	0.450	-0.240	-0.350
2020/01/31 15:54:09.3	97.800	0.470	-0.250	-0.430
2020/01/31 15:54:09.4	97.780	0.480	-0.270	-0.500
2020/01/31 15:54:09.5	97.760	0.490	-0.280	-0.570
2020/01/31 15:54:09.6	97.740	0.500	-0.290	-0.640
2020/01/31 15:54:09.7	97.720	0.500	-0.290	-0.700
2020/01/31 15:54:09.8	97.700	0.500	-0.290	-0.760
2020/01/31 15:54:09.9	97.680	0.490	-0.290	-0.810
2020/01/31 15:54:10.0	97.660	0.480	-0.280	-0.860
2020/01/31 15:54:10.1	97.640	0.470	-0.260	-0.900
2020/01/31 15:54:10.2	97.620	0.450	-0.240	-0.940
2020/01/31 15:54:10.3	97.610	0.430	-0.220	-0.980
2020/01/31 15:54:10.4	97.590	0.400	-0.190	-1.010
2020/01/31 15:54:10.5	97.570	0.370	-0.160	-1.040
2020/01/31 15:54:10.6	97.560	0.330	-0.120	-1.060
2020/01/31 15:54:10.7	97.540	0.290	-0.080	-1.080
2020/01/31 15:54:10.8	97.530	0.250	-0.030	-1.100
2020/01/31 15:54:10.9	97.520	0.210	0.020	-1.120
2020/01/31 15:54:11.0	97.510	0.160	0.070	-1.130
2020/01/31 15:54:11.1	97.510	0.120	0.120	-1.150
2020/01/31 15:54:11.2	97.510	0.070	0.170	-1.160
2020/01/31 15:54:11.3	97.510	0.020	0.230	-1.170
2020/01/31 15:54:11.4	97.510	-0.030	0.280	-1.180
2020/01/31 15:54:11.5	97.520	-0.080	0.330	-1.190
2020/01/31 15:54:11.6	97.530	-0.130	0.380	-1.190
2020/01/31 15:54:11.7	97.520	-0.170	0.430	-1.200
2020/01/31 15:54:11.8	97.540	-0.220	0.470	-1.200
2020/01/31 15:54:11.9	97.550	-0.260	0.510	-1.210
2020/01/31 15:54:12.0	97.570	-0.300	0.540	-1.210
2020/01/31 15:54:12.1	97.600	-0.340	0.570	-1.210
2020/01/31 15:54:12.2	97.620	-0.370	0.590	-1.210
2020/01/31 15:54:12.3	97.650	-0.400	0.610	-1.210
2020/01/31 15:54:12.4	97.670	-0.430	0.610	-1.210
2020/01/31 15:54:12.5	97.700	-0.450	0.610	-1.210
2020/01/31 15:54:12.6	97.730	-0.470	0.610	-1.200
2020/01/31 15:54:12.7	97.760	-0.480	0.590	-1.190
2020/01/31 15:54:12.8	97.790	-0.490	0.570	-1.180
2020/01/31 15:54:12.9	97.830	-0.490	0.530	-1.170
2020/01/31 15:54:13.0	97.860	-0.490	0.500	-1.150
2020/01/31 15:54:13.1	97.890	-0.480	0.450	-1.130
2020/01/31 15:54:13.2	97.930	-0.470	0.400	-1.110
2020/01/31 15:54:13.3	97.960	-0.450	0.340	-1.080
2020/01/31 15:54:13.4	97.990	-0.430	0.280	-1.050
2020/01/31 15:54:13.5	98.020	-0.410	0.210	-1.020
2020/01/31 15:54:13.6	98.050	-0.380	0.140	-0.990
2020/01/31 15:54:13.7	98.090	-0.350	0.060	-0.940
2020/01/31 15:54:13.8	98.120	-0.320	-0.020	-0.900
2020/01/31 15:54:13.9	98.140	-0.280	-0.100	-0.850
2020/01/31 15:54:14.0	98.170	-0.240	-0.180	-0.790
2020/01/31 15:54:14.1	98.190	-0.200	-0.260	-0.730
2020/01/31 15:54:14.2	98.210	-0.160	-0.340	-0.670
2020/01/31 15:54:14.3	98.230	-0.120	-0.410	-0.600
2020/01/31 15:54:14.4	98.240	-0.080	-0.490	-0.530
2020/01/31 15:54:14.5	98.250	-0.030	-0.560	-0.450
2020/01/31 15:54:14.6	98.260	0.010	-0.630	-0.370
2020/01/31 15:54:14.7	98.270	0.050	-0.700	-0.280
2020/01/31 15:54:14.8	98.270	0.090	-0.760	-0.190
2020/01/31 15:54:14.9	98.270	0.130	-0.810	-0.100
2020/01/31 15:54:15.0	98.270	0.170	-0.860	0.000
2020/01/31 15:54:15.1	98.270	0.210	-0.900	0.100
2020/01/31 15:54:15.2	98.260	0.240	-0.930	0.210
2020/01/31 15:54:15.3	98.250	0.270	-0.950	0.320
2020/01/31 15:54:15.4	98.250	0.300	-0.970	0.430
2020/01/31 15:54:15.5	98.240	0.320	-0.980	0.540
2020/01/31 15:54:15.6	98.220	0.340	-0.990	0.650
2020/01/31 15:54:15.7	98.220	0.360	-0.980	0.770
2020/01/31 15:54:15.8	98.210	0.380	-0.970	0.880
2020/01/31 15:54:15.9	98.190	0.390	-0.960	0.990
2020/01/31 15:54:16.0	98.180	0.390	-0.940	1.110
2020/01/31 15:54:16.1	98.160	0.400	-0.910	1.220
2020/01/31 15:54:16.2	98.140	0.400	-0.880	1.330
2020/01/31 15:54:16.3	98.130	0.400	-0.840	1.440
2020/01/31 15:54:16.4	98.110	0.390	-0.800	1.540
2020/01/31 15:54:16.5	98.090	0.380	-0.750	1.640
2020/01/31 15:54:16.6	98.070	0.370	-0.710	1.740
2020/01/31 15:54:16.7	98.060	0.360	-0.660	1.840
2020/01/31 15:54:16.8	98.040	0.340	-0.610	1.930
2020/01/31 15:54:16.9	98.030	0.330	-0.550	2.020
2020/01/31 15:54:17.0	98.010	0.310	-0.500	2.110
2020/01/31 15:54:17.1	97.990	0.290	-0.440	2.180
2020/01/31 15:54:17.2	97.970	0.270	-0.390	2.260
2020/01/31 15:54:17.3	97.950	0.240	-0.340	2.320
2020/01/31 15:54:17.4	97.940	0.220	-0.290	2.390
2020/01/31 15:54:17.5	97.920	0.200	-0.240	2.440
2020/01/31 15:54:17.6	97.910	0.170	-0.190	2.490
2020/01/31 15:54:17.7	97.900	0.150	-0.150	2.540
2020/01/31 15:54:17.8	97.880	0.130	-0.110	2.570
2020/01/31 15:54:17.9	97.870	0.110	-0.070	2.610
2020/01/31 15:54:18.0	97.870	0.090	-0.040	2.630
2020/01/31 15:54:18.1	97.860	0.060	-0.010	2.650
2020/01/31 15:54:18.2	97.850	0.050	0.010	2.670
2020/01/31 15:54:18.3	97.840	0.030	0.030	2.680
2020/01/31 15:54:18.4	97.840	0.010	0.050	2.680
2020/01/31 15:54:18.5	97.840	-0.000	0.060	2.680
2020/01/31 15:54:18.6	97.830	-0.020	0.060	2.680
2020/01/31 15:54:18.7	97.830	-0.030	0.060	2.670
2020/01/31 15:54:18.8	97.830	-0.040	0.060	2.650
2020/01/31 15:54:18.9	97.840	-0.050	0.050	2.640
2020/01/31 15:54:19.0	97.840	-0.050	0.040	2.620
2020/01/31 15:54:19.1	97.840	-0.060	0.030	2.600
2020/01/31 15:54:19.2	97.850	-0.060	0.010	2.570
2020/01/31 15:54:19.3	97.850	-0.070	-0.010	2.550
2020/01/31 15:54:19.4	97.860	-0.070	-0.030	2.520
2020/01/31 15:54:19.5	97.870	-0.070	-0.060	2.480
2020/01/31 15:54:19.6	97.880	-0.070	-0.090	2.450
2020/01/31 15:54:19.7	97.900	-0.070	-0.110	2.410
2020/01/31 15:54:19.8	97.910	-0.070	-0.140	2.370
2020/01/31 15:54:19.9	97.930	-0.060	-0.170	2.320
2020/01/31 15:54:20.0	97.940	-0.060	-0.200	2.280
2020/01/31 15:54:20.1	97.960	-0.060	-0.230	2.230
2020/01/31 15:54:20.2	97.970	-0.050	-0.260	2.170
2020/01/31 15:54:20.3	97.990	-0.050	-0.290	2.110
2020/01/31 15:54:20.4	98.010	-0.050	-0.320	2.050
2020/01/31 15:54:20.5	98.040	-0.040	-0.340	1.980
2020/01/31 15:54:20.6	98.060	-0.040	-0.360	1.910
2020/01/31 15:54:20.7	98.080	-0.040	-0.380	1.840
2020/01/31 15:54:20.8	98.110	-0.040	-0.400	1.760
2020/01/31 15:54:20.9	98.130	-0.040	-0.410	1.680
2020/01/31 15:54:21.0	98.160	-0.040	-0.420	1.600
2020/01/31 15:54:21.1	98.180	-0.040	-0.420	1.510
2020/01/31 15:54:21.2	98.210	-0.050	-0.420	1.420
2020/01/31 15:54:21.3	98.230	-0.050	-0.420	1.340
2020/01/31 15:54:21.4	98.260	-0.060	-0.410	1.240
2020/01/31 15:54:21.5	98.280	-0.070	-0.390	1.150
2020/01/31 15:54:21.6	98.310	-0.080	-0.380	1.060
2020/01/31 15:54:21.7	98.320	-0.090	-0.350	0.960
2020/01/31 15:54:21.8	98.340	-0.100	-0.320	0.870
2020/01/31 15:54:21.9	98.360	-0.110	-0.290	0.770
2020/01/31 15:54:22.0	98.380	-0.130	-0.250	0.680
2020/01/31 15:54:22.1	98.390	-0.140	-0.210	0.580
2020/01/31 15:54:22.2	98.410	-0.160	-0.170	0.490
2020/01/31 15:54:22.3	98.420	-0.180	-0.120	0.400
2020/01/31 15:54:22.4	98.430	-0.200	-0.060	0.310
2020/01/31 15:54:22.5	98.440	-0.220	-0.010	0.220
2020/01/31 15:54:22.6	98.450	-0.240	0.050	0.130
2020/01/31 15:54:22.7	98.440	-0.260	0.120	0.040
2020/01/31 15:54:22.8	98.440	-0.280	0.180	-0.040
2020/01/31 15:54:22.9	98.440	-0.300	0.240	-0.120
2020/01/31 15:54:23.0	98.440	-0.320	0.300	-0.200
2020/01/31 15:54:23.1	98.440	-0.340	0.360	-0.270
2020/01/31 15:54:23.2	98.440	-0.360	0.420	-0.340
2020/01/31 15:54:23.3	98.430	-0.380	0.480	-0.410
2020/01/31 15:54:23.4	98.420	-0.400	0.530	-0.470
2020/01/31 15:54:23.5	98.420	-0.420	0.580	-0.530
2020/01/31 15:54:23.6	98.410	-0.440	0.630	-0.590
2020/01/31 15:54:23.7	98.390	-0.450	0.670	-0.630
2020/01/31 15:54:23.8	98.380	-0.460	0.710	-0.680
2020/01/31 15:54:23.9	98.370	-0.470	0.740	-0.720
2020/01/31 15:54:24.0	98.360	-0.480	0.770	-0.760
2020/01/31 15:54:24.1	98.340	-0.490	0.790	-0.790
2020/01/31 15:54:24.2	98.330	-0.490	0.800	-0.820
2020/01/31 15:54:24.3	98.320	-0.500	0.810	-0.850
2020/01/31 15:54:24.4	98.300	-0.500	0.810	-0.880
2020/01/31 15:54:24.5	98.290	-0.490	0.800	-0.900
2020/01/31 15:54:24.6	98.270	-0.490	0.780	-0.910
2020/01/31 15:54:24.7	98.250	-0.480	0.760	-0.920
2020/01/31 15:54:24.8	98.240	-0.460	0.730	-0.940
2020/01/31 15:54:24.9	98.230	-0.450	0.690	-0.950
2020/01/31 15:54:25.0	98.220	-0.430	0.650	-0.960
2020/01/31 15:54:25.1	98.210	-0.410	0.600	-0.970
2020/01/31 15:54:25.2	98.200	-0.390	0.540	-0.980
2020/01/31 15:54:25.3	98.190	-0.370	0.480	-0.990
2020/01/31 15:54:25.4	98.180	-0.340	0.410	-1.000
2020/01/31 15:54:25.5	98.180	-0.310	0.340	-1.010
2020/01/31 15:54:25.6	98.180	-0.280	0.260	-1.020
2020/01/31 15:54:25.7	98.180	-0.240	0.180	-1.030
2020/01/31 15:54:25.8	98.180	-0.210	0.100	-1.040
2020/01/31 15:54:25.9	98.180	-0.170	0.010	-1.050
2020/01/31 15:54:26.0	98.180	-0.130	-0.080	-1.060
2020/01/31 15:54:26.1	98.190	-0.090	-0.170	-1.080
2020/01/31 15:54:26.2	98.190	-0.050	-0.260	-1.090
2020/01/31 15:54:26.3	98.200	-0.000	-0.360	-1.100
2020/01/31 15:54:26.4	98.210	0.040	-0.450	-1.110
2020/01/31 15:54:26.5	98.220	0.090	-0.540	-1.130
2020/01/31 15:54:26.6	98.230	0.140	-0.630	-1.140
2020/01/31 15:54:26.7	98.250	0.180	-0.720	-1.140
2020/01/31 15:54:26.8	98.260	0.230	-0.810	-1.150
2020/01/31 15:54:26.9	98.270	0.280	-0.890	-1.150
2020/01/31 15:54:27.0	98.280	0.330	-0.970	-1.160
2020/01/31 15:54:27.1	98.300	0.380	-1.050	-1.160
2020/01/31 15:54:27.2	98.310	0.420	-1.120	-1.150
2020/01/31 15:54:27.3	98.320	0.470	-1.180	-1.150
2020/01/31 15:54:27.4	98.330	0.520	-1.240	-1.130
2020/01/31 15:54:27.5	98.350	0.560	-1.300	-1.120
2020/01/31 15:54:27.6	98.360	0.600	-1.350	-1.100
2020/01/31 15:54:27.7	98.370	0.640	-1.390	-1.070
2020/01/31 15:54:27.8	98.380	0.680	-1.420	-1.040
2020/01/31 15:54:27.9	98.390	0.720	-1.450	-1.010
2020/01/31 15:54:28.0	98.400	0.750	-1.470	-0.970
2020/01/31 15:54:28.1	98.410	0.780	-1.480	-0.930
2020/01/31 15:54:28.2	98.430	0.810	-1.490	-0.880
2020/01/31 15:54:28.3	98.440	0.840	-1.490	-0.830
2020/01/31 15:54:28.4	98.450	0.860	-1.480	-0.780
2020/01/31 15:54:28.5	98.460	0.870	-1.470	-0.720
2020/01/31 15:54:28.6	98.470	0.890	-1.440	-0.660
2020/01/31 15:54:28.7	98.470	0.900	-1.410	-0.580
2020/01/31 15:54:28.8	98.480	0.900	-1.380	-0.510
2020/01/31 15:54:28.9	98.500	0.900	-1.340	-0.440
2020/01/31 15:54:29.0	98.510	0.900	-1.290	-0.360
2020/01/31 15:54:29.1	98.520	0.890	-1.240	-0.270
2020/01/31 15:54:29.2	98.530	0.880	-1.190	-0.190
2020/01/31 15:54:29.3	98.550	0.860	-1.120	-0.100
2020/01/31 15:54:29.4	98.560	0.840	-1.060	-0.000
2020/01/31 15:54:29.5	98.570	0.810	-0.990	0.100
2020/01/31 15:54:29.6	98.580	0.780	-0.920	0.200
2020/01/31 15:54:29.7	98.590	0.750	-0.840	0.310
2020/01/31 15:54:29.8	98.600	0.710	-0.750	0.410
2020/01/31 15:54:29.9	98.610	0.670	-0.670	0.520
2020/01/31 15:54:30.0	98.620	0.630	-0.580	0.630
2020/01/31 15:54:30.1	98.620	0.580	-0.490	0.740
2020/01/31 15:54:30.2	98.630	0.520	-0.400	0.850
2020/01/31 15:54:30.3	98.630	0.470	-0.310	0.960
2020/01/31 15:54:30.4	98.640	0.410	-0.210	1.080
2020/01/31 15:54:30.5	98.640	0.350	-0.120	1.190
2020/01/31 15:54:30.6	98.650	0.290	-0.020	1.300
2020/01/31 15:54:30.7	98.660	0.220	0.080	1.410
2020/01/31 15:54:30.8	98.660	0.160	0.170	1.520
2020/01/31 15:54:30.9	98.670	0.090	0.270	1.620
2020/01/31 15:54:31.0	98.670	0.020	0.370	1.720
2020/01/31 15:54:31.1	98.670	-0.050	0.460	1.820
2020/01/31 15:54:31.2	98.670	-0.110	0.550	1.920
2020/01/31 15:54:31.3	98.670	-0.180	0.640	2.010
2020/01/31 15:54:31.4	98.670	-0.250	0.730	2.100
2020/01/31 15:54:31.5	98.670	-0.320	0.810	2.180
2020/01/31 15:54:31.6	98.670	-0.380	0.890	2.260
2020/01/31 15:54:31.7	98.680	-0.440	0.970	2.330
2020/01/31 15:54:31.8	98.680	-0.500	1.040	2.400
2020/01/31 15:54:31.9	98.680	-0.560	1.100	2.470
2020/01/31 15:54:32.0	98.670	-0.620	1.160	2.530
2020/01/31 15:54:32.1	98.670	-0.670	1.210	2.580
2020/01/31 15:54:32.2	98.670	-0.720	1.250	2.630
2020/01/31 15:54:32.3	98.660	-0.770	1.290	2.670
2020/01/31 15:54:32.4	98.660	-0.810	1.320	2.710
2020/01/31 15:54:32.5	98.660	-0.850	1.340	2.740
2020/01/31 15:54:32.6	98.660	-0.880	1.350	2.770
2020/01/31 15:54:32.7	98.670	-0.910	1.360	2.790
2020/01/31 15:54:32.8	98.660	-0.930	1.350	2.800
2020/01/31 15:54:32.9	98.660	-0.950	1.340	2.810
2020/01/31 15:54:33.0	98.660	-0.970	1.320	2.820
2020/01/31 15:54:33.1	98.660	-0.980	1.300	2.820
2020/01/31 15:54:33.2	98.660	-0.980	1.260	2.820
2020/01/31 15:54:33.3	98.660	-0.980	1.220	2.810
2020/01/31 15:54:33.4	98.650	-0.980	1.170	2.790
2020/01/31 15:54:33.5	98.650	-0.970	1.110	2.780
2020/01/31 15:54:33.6	98.650	-0.950	1.050	2.760
2020/01/31 15:54:33.7	98.660	-0.930	0.970	2.730
2020/01/31 15:54:33.8	98.660	-0.910	0.890	2.700
2020/01/31 15:54:33.9	98.660	-0.880	0.810	2.670
2020/01/31 15:54:34.0	98.660	-0.850	0.720	2.630
2020/01/31 15:54:34.1	98.670	-0.820	0.630	2.600
2020/01/31 15:54:34.2	98.670	-0.780	0.530	2.550
2020/01/31 15:54:34.3	98.670	-0.730	0.420	2.510
2020/01/31 15:54:34.4	98.670	-0.690	0.320	2.460
2020/01/31 15:54:34.5	98.680	-0.640	0.210	2.400
2020/01/31 15:54:34.6	98.680	-0.580	0.100	2.350
2020/01/31 15:54:34.7	98.680	-0.530	-0.020	2.290
2020/01/31 15:54:34.8	98.690	-0.470	-0.130	2.230
2020/01/31 15:54:34.9	98.700	-0.410	-0.250	2.160
2020/01/31 15:54:35.0	98.710	-0.350	-0.370	2.090
2020/01/31 15:54:35.1	98.720	-0.290	-0.490	2.020
2020/01/31 15:54:35.2	98.730	-0.230	-0.600	1.950
2020/01/31 15:54:35.3	98.740	-0.170	-0.720	1.870
2020/01/31 15:54:35.4	98.750	-0.110	-0.830	1.790
2020/01/31 15:54:35.5	98.770	-0.050	-0.940	1.710
2020/01/31 15:54:35.6	98.780	0.020	-1.050	1.630
2020/01/31 15:54:35.7	98.790	0.070	-1.150	1.540
2020/01/31 15:54:35.8	98.810	0.130	-1.250	1.460
2020/01/31 15:54:35.9	98.820	0.190	-1.340	1.370
2020/01/31 15:54:36.0	98.840	0.240	-1.430	1.280
2020/01/31 15:54:36.1	98.860	0.300	-1.510	1.190
2020/01/31 15:54:36.2	98.880	0.340	-1.580	1.100
2020/01/31 15:54:36.3	98.900	0.390	-1.650	1.010
2020/01/31 15:54:36.4	98.920	0.430	-1.700	0.920
2020/01/31 15:54:36.5	98.940	0.470	-1.750	0.830
2020/01/31 15:54:36.6	98.960	0.500	-1.790	0.740
2020/01/31 15:54:36.7	98.970	0.530	-1.820	0.640
2020/01/31 15:54:36.8	98.990	0.560	-1.840	0.550
2020/01/31 15:54:36.9	99.010	0.580	-1.850	0.460
2020/01/31 15:54:37.0	99.020	0.600	-1.840	0.370
2020/01/31 15:54:37.1	99.040	0.610	-1.830	0.280
2020/01/31 15:54:37.2	99.060	0.620	-1.810	0.190
2020/01/31 15:54:37.3	99.080	0.620	-1.780	0.100
2020/01/31 15:54:37.4	99.090	0.620	-1.740	0.010
2020/01/31 15:54:37.5	99.100	0.620	-1.690	-0.070
2020/01/31 15:54:37.6	99.120	0.610	-1.630	-0.160
2020/01/31 15:54:37.7	99.120	0.600	-1.560	-0.240
2020/01/31 15:54:37.8	99.130	0.590	-1.480	-0.320
2020/01/31 15:54:37.9	99.140	0.570	-1.400	-0.390
2020/01/31 15:54:38.0	99.140	0.550	-1.310	-0.460
2020/01/31 15:54:38.1	99.150	0.530	-1.210	-0.530
2020/01/31 15:54:38.2	99.160	0.500	-1.110	-0.600
2020/01/31 15:54:38.3	99.160	0.480	-1.010	-0.660
2020/01/31 15:54:38.4	99.160	0.450	-0.900	-0.710
2020/01/31 15:54:38.5	99.160	0.420	-0.780	-0.760
2020/01/31 15:54:38.6	99.160	0.390	-0.660	-0.810
2020/01/31 15:54:38.7	99.140	0.360	-0.540	-0.850
2020/01/31 15:54:38.8	99.140	0.330	-0.420	-0.890
2020/01/31 15:54:38.9	99.130	0.300	-0.300	-0.920
2020/01/31 15:54:39.0	99.120	0.260	-0.180	-0.940
2020/01/31 15:54:39.1	99.110	0.230	-0.060	-0.960
2020/01/31 15:54:39.2	99.100	0.200	0.060	-0.980
2020/01/31 15:54:39.3	99.090	0.170	0.180	-0.990
2020/01/31 15:54:39.4	99.080	0.130	0.290	-0.990
2020/01/31 15:54:39.5	99.060	0.100	0.410	-0.990
2020/01/31 15:54:39.6	99.050	0.070	0.510	-0.990
2020/01/31 15:54:39.7	99.030	0.040	0.620	-0.970
2020/01/31 15:54:39.8	99.010	0.010	0.720	-0.950
2020/01/31 15:54:39.9	98.990	-0.030	0.820	-0.930
2020/01/31 15:54:40.0	98.970	-0.050	0.910	-0.910
2020/01/31 15:54:40.1	98.950	-0.080	0.990	-0.880
2020/01/31 15:54:40.2	98.930	-0.110	1.070	-0.850
2020/01/31 15:54:40.3	98.910	-0.140	1.140	-0.810
2020/01/31 15:54:40.4	98.900	-0.160	1.210	-0.780
2020/01/31 15:54:40.5	98.880	-0.190	1.260	-0.730
2020/01/31 15:54:40.6	98.860	-0.210	1.310	-0.690
2020/01/31 15:54:40.7	98.840	-0.230	1.350	-0.640
2020/01/31 15:54:40.8	98.830	-0.260	1.380	-0.600
2020/01/31 15:54:40.9	98.810	-0.270	1.400	-0.550
2020/01/31 15:54:41.0	98.800	-0.290	1.410	-0.500
2020/01/31 15:54:41.1	98.780	-0.310	1.410	-0.450
2020/01/31 15:54:41.2	98.770	-0.320	1.400	-0.410
2020/01/31 15:54:41.3	98.760	-0.330	1.380	-0.360
2020/01/31 15:54:41.4	98.750	-0.340	1.360	-0.310
2020/01/31 15:54:41.5	98.750	-0.350	1.320	-0.260
2020/01/31 15:54:41.6	98.740	-0.360	1.270	-0.220
2020/01/31 15:54:41.7	98.730	-0.360	1.210	-0.170
2020/01/31 15:54:41.8	98.730	-0.360	1.150	-0.120
2020/01/31 15:54:41.9	98.730	-0.360	1.070	-0.080
2020/01/31 15:54:42.0	98.730	-0.360	0.990	-0.040
2020/01/31 15:54:42.1	98.730	-0.350	0.900	0.000
2020/01/31 15:54:42.2	98.740	-0.340	0.800	0.040
2020/01/31 15:54:42.3	98.740	-0.330	0.700	0.080
2020/01/31 15:54:42.4	98.750	-0.320	0.590	0.110
2020/01/31 15:54:42.5	98.760	-0.310	0.480	0.150
2020/01/31 15:54:42.6	98.770	-0.290	0.360	0.180
2020/01/31 15:54:42.7	98.780	-0.270	0.240	0.210
2020/01/31 15:54:42.8	98.800	-0.250	0.120	0.240
2020/01/31 15:54:42.9	98.810	-0.230	-0.010	0.270
2020/01/31 15:54:43.0	98.830	-0.200	-0.130	0.300
2020/01/31 15:54:43.1	98.840	-0.180	-0.250	0.330
2020/01/31 15:54:43.2	98.860	-0.150	-0.370	0.360
2020/01/31 15:54:43.3	98.880	-0.120	-0.490	0.390
2020/01/31 15:54:43.4	98.900	-0.090	-0.610	0.420
2020/01/31 15:54:43.5	98.920	-0.060	-0.720	0.450
2020/01/31 15:54:43.6	98.940	-0.030	-0.820	0.480
2020/01/31 15:54:43.7	98.960	0.000	-0.920	0.520
2020/01/31 15:54:43.8	98.990	0.030	-1.020	0.550
2020/01/31 15:54:43.9	99.010	0.070	-1.100	0.580
2020/01/31 15:54:44.0	99.040	0.100	-1.180	0.610
2020/01/31 15:54:44.1	99.060	0.130	-1.250	0.650
2020/01/31 15:54:44.2	99.090	0.160	-1.310	0.680
2020/01/31 15:54:44.3	99.110	0.190	-1.360	0.720
2020/01/31 15:54:44.4	99.140	0.220	-1.400	0.750
2020/01/31 15:54:44.5	99.170	0.250	-1.430	0.790
2020/01/31 15:54:44.6	99.190	0.270	-1.450	0.830
2020/01/31 15:54:44.7	99.220	0.300	-1.460	0.870
2020/01/31 15:54:44.8	99.240	0.320	-1.470	0.910
2020/01/31 15:54:44.9	99.260	0.340	-1.460	0.950
2020/01/31 15:54:45.0	99.280	0.360	-1.450	0.990
2020/01/31 15:54:45.1	99.300	0.380	-1.420	1.030
2020/01/31 15:54:45.2	99.320	0.390	-1.390	1.070
2020/01/31 15:54:45.3	99.340	0.410	-1.360	1.110
2020/01/31 15:54:45.4	99.360	0.420	-1.310	1.150
2020/01/31 15:54:45.5	99.370	0.430	-1.260	1.200
2020/01/31 15:54:45.6	99.390	0.430	-1.210	1.240
2020/01/31 15:54:45.7	99.410	0.440	-1.150	1.280
2020/01/31 15:54:45.8	99.420	0.440	-1.080	1.320
2020/01/31 15:54:45.9	99.430	0.440	-1.010	1.360
2020/01/31 15:54:46.0	99.430	0.430	-0.940	1.410
2020/01/31 15:54:46.1	99.440	0.430	-0.870	1.450
2020/01/31 15:54:46.2	99.450	0.420	-0.790	1.490
2020/01/31 15:54:46.3	99.450	0.410	-0.710	1.530
2020/01/31 15:54:46.4	99.450	0.400	-0.630	1.580
2020/01/31 15:54:46.5	99.450	0.390	-0.550	1.620
2020/01/31 15:54:46.6	99.450	0.370	-0.470	1.660
2020/01/31 15:54:46.7	99.450	0.350	-0.380	1.700
2020/01/31 15:54:46.8	99.450	0.340	-0.300	1.750
2020/01/31 15:54:46.9	99.440	0.320	-0.220	1.790
2020/01/31 15:54:47.0	99.440	0.290	-0.150	1.830
2020/01/31 15:54:47.1	99.430	0.270	-0.070	1.870
2020/01/31 15:54:47.2	99.420	0.250	0.010	1.910
2020/01/31 15:54:47.3	99.410	0.220	0.080	1.950
2020/01/31 15:54:47.4	99.400	0.190	0.150	1.990
2020/01/31 15:54:47.5	99.380	0.160	0.220	2.030
2020/01/31 15:54:47.6	99.370	0.140	0.290	2.060
2020/01/31 15:54:47.7	99.350	0.110	0.360	2.100
2020/01/31 15:54:47.8	99.340	0.080	0.420	2.140
2020/01/31 15:54:47.9	99.320	0.050	0.480	2.170
2020/01/31 15:54:48.0	99.290	0.020	0.530	2.200
2020/01/31 15:54:48.1	99.270	-0.020	0.580	2.230
2020/01/31 15:54:48.2	99.250	-0.050	0.630	2.250
2020/01/31 15:54:48.3	99.230	-0.080	0.670	2.270
2020/01/31 15:54:48.4	99.200	-0.110	0.700	2.290
2020/01/31 15:54:48.5	99.180	-0.140	0.730	2.310
2020/01/31 15:54:48.6	99.150	-0.170	0.750	2.320
2020/01/31 15:54:48.7	99.150	-0.200	0.770	2.320
2020/01/31 15:54:48.8	99.130	-0.220	0.780	2.330
2020/01/31 15:54:48.9	99.110	-0.250	0.790	2.320
2020/01/31 15:54:49.0	99.080	-0.280	0.790	2.310
2020/01/31 15:54:49.1	99.070	-0.300	0.780	2.300
2020/01/31 15:54:49.2	99.050	-0.320	0.760	2.280
2020/01/31 15:54:49.3	99.030	-0.340	0.740	2.250
2020/01/31 15:54:49.4	99.020	-0.360	0.720	2.210
2020/01/31 15:54:49.5	99.010	-0.380	0.680	2.170
2020/01/31 15:54:49.6	99.000	-0.400	0.640	2.130
2020/01/31 15:54:49.7	98.990	-0.410	0.590	2.080
2020/01/31 15:54:49.8	98.990	-0.420	0.540	2.020
2020/01/31 15:54:49.9	98.990	-0.430	0.480	1.960
2020/01/31 15:54:50.0	98.990	-0.440	0.420	1.890
2020/01/31 15:54:50.1	98.990	-0.440	0.350	1.820
2020/01/31 15:54:50.2	98.990	-0.440	0.280	1.740
2020/01/31 15:54:50.3	99.000	-0.440	0.210	1.660
2020/01/31 15:54:50.4	99.010	-0.440	0.130	1.580
2020/01/31 15:54:50.5	99.020	-0.440	0.050	1.490
2020/01/31 15:54:50.6	99.030	-0.430	-0.030	1.400
2020/01/31 15:54:50.7	99.030	-0.420	-0.120	1.310
2020/01/31 15:54:50.8	99.050	-0.410	-0.200	1.210
2020/01/31 15:54:50.9	99.060	-0.400	-0.290	1.120
2020/01/31 15:54:51.0	99.080	-0.380	-0.370	1.030
2020/01/31 15:54:51.1	99.100	-0.360	-0.460	0.930
2020/01/31 15:54:51.2	99.120	-0.350	-0.540	0.840
2020/01/31 15:54:51.3	99.140	-0.330	-0.620	0.750
2020/01/31 15:54:51.4	99.160	-0.310	-0.700	0.650
2020/01/31 15:54:51.5	99.180	-0.280	-0.780	0.560
2020/01/31 15:54:51.6	99.200	-0.260	-0.850	0.480
2020/01/31 15:54:51.7	99.220	-0.240	-0.910	0.390
2020/01/31 15:54:51.8	99.240	-0.210	-0.970	0.310
2020/01/31 15:54:51.9	99.260	-0.190	-1.030	0.230
2020/01/31 15:54:52.0	99.290	-0.170	-1.080	0.160
2020/01/31 15:54:52.1	99.310	-0.140	-1.120	0.080
2020/01/31 15:54:52.2	99.330	-0.120	-1.150	0.010
2020/01/31 15:54:52.3	99.340	-0.100	-1.180	-0.050
2020/01/31 15:54:52.4	99.360	-0.080	-1.200	-0.110
2020/01/31 15:54:52.5	99.380	-0.060	-1.210	-0.170
2020/01/31 15:54:52.6	99.400	-0.040	-1.210	-0.220
2020/01/31 15:54:52.7	99.400	-0.030	-1.210	-0.270
2020/01/31 15:54:52.8	99.410	-0.010	-1.190	-0.320
2020/01/31 15:54:52.9	99.420	0.000	-1.170	-0.360
2020/01/31 15:54:53.0	99.430	0.010	-1.140	-0.400
2020/01/31 15:54:53.1	99.440	0.020	-1.100	-0.440
2020/01/31 15:54:53.2	99.440	0.030	-1.050	-0.470
2020/01/31 15:54:53.3	99.450	0.040	-0.990	-0.500
2020/01/31 15:54:53.4	99.450	0.040	-0.930	-0.530
2020/01/31 15:54:53.5	99.450	0.050	-0.870	-0.560
2020/01/31 15:54:53.6	99.450	0.050	-0.790	-0.580
2020/01/31 15:54:53.7	99.440	0.050	-0.710	-0.600
2020/01/31 15:54:53.8	99.440	0.050	-0.630	-0.610
2020/01/31 15:54:53.9	99.440	0.050	-0.550	-0.630
2020/01/31 15:54:54.0	99.430	0.040	-0.460	-0.640
2020/01/31 15:54:54.1	99.420	0.040	-0.370	-0.660
2020/01/31 15:54:54.2	99.410	0.040	-0.280	-0.670
2020/01/31 15:54:54.3	99.400	0.030	-0.190	-0.670
2020/01/31 15:54:54.4	99.390	0.030	-0.100	-0.680
2020/01/31 15:54:54.5	99.380	0.030	-0.020	-0.690
2020/01/31 15:54:54.6	99.370	0.020	0.060	-0.690
2020/01/31 15:54:54.7	99.360	0.020	0.140	-0.700
2020/01/31 15:54:54.8	99.340	0.020	0.220	-0.700
2020/01/31 15:54:54.9	99.330	0.020	0.290	-0.700
2020/01/31 15:54:55.0	99.320	0.020	0.350	-0.700
2020/01/31 15:54:55.1	99.300	0.020	0.410	-0.700
2020/01/31 15:54:55.2	99.290	0.030	0.460	-0.700
2020/01/31 15:54:55.3	99.280	0.030	0.510	-0.690
2020/01/31 15:54:55.4	99.270	0.030	0.540	-0.690
2020/01/31 15:54:55.5	99.250	0.040	0.580	-0.680
2020/01/31 15:54:55.6	99.240	0.050	0.600	-0.680
2020/01/31 15:54:55.7	99.230	0.060	0.620	-0.670
2020/01/31 15:54:55.8	99.220	0.070	0.630	-0.660
2020/01/31 15:54:55.9	99.210	0.080	0.630	-0.640
2020/01/31 15:54:56.0	99.200	0.090	0.630	-0.630
2020/01/31 15:54:56.1	99.200	0.100	0.620	-0.620
2020/01/31 15:54:56.2	99.190	0.110	0.610	-0.600
2020/01/31 15:54:56.3	99.190	0.130	0.590	-0.580
2020/01/31 15:54:56.4	99.190	0.140	0.560	-0.560
2020/01/31 15:54:56.5	99.190	0.150	0.530	-0.540
2020/01/31 15:54:56.6	99.190	0.170	0.500	-0.510
2020/01/31 15:54:56.7	99.190	0.180	0.460	-0.490
2020/01/31 15:54:56.8	99.190	0.190	0.420	-0.460
2020/01/31 15:54:56.9	99.190	0.210	0.370	-0.430
2020/01/31 15:54:57.0	99.200	0.220	0.330	-0.400
2020/01/31 15:54:57.1	99.200	0.230	0.280	-0.370
2020/01/31 15:54:57.2	99.210	0.240	0.230	-0.330
2020/01/31 15:54:57.3	99.220	0.250	0.180	-0.300
2020/01/31 15:54:57.4	99.230	0.260	0.130	-0.260
2020/01/31 15:54:57.5	99.240	0.270	0.080	-0.220
2020/01/31 15:54:57.6	99.250	0.270	0.030	-0.180
2020/01/31 15:54:57.7	99.250	0.280	-0.010	-0.140
2020/01/31 15:54:57.8	99.270	0.280	-0.060	-0.090
2020/01/31 15:54:57.9	99.280	0.290	-0.100	-0.050
2020/01/31 15:54:58.0	99.290	0.290	-0.140	-0.010
2020/01/31 15:54:58.1	99.300	0.280	-0.180	0.040
2020/01/31 15:54:58.2	99.310	0.280	-0.220	0.080
2020/01/31 15:54:58.3	99.330	0.280	-0.260	0.130
2020/01/31 15:54:58.4	99.340	0.270	-0.290	0.180
2020/01/31 15:54:58.5	99.350	0.270	-0.320	0.230
2020/01/31 15:54:58.6	99.360	0.260	-0.350	0.280
2020/01/31 15:54:58.7	99.370	0.250	-0.370	0.330
2020/01/31 15:54:58.8	99.380	0.240	-0.400	0.380
2020/01/31 15:54:58.9	99.390	0.230	-0.420	0.430
2020/01/31 15:54:59.0	99.400	0.220	-0.430	0.490
2020/01/31 15:54:59.1	99.410	0.210	-0.450	0.540
2020/01/31 15:54:59.2	99.420	0.190	-0.460	0.600
2020/01/31 15:54:59.3	99.420	0.180	-0.470	0.660
2020/01/31 15:54:59.4	99.430	0.170	-0.480	0.710
2020/01/31 15:54:59.5	99.430	0.150	-0.480	0.770
2020/01/31 15:54:59.6	99.440	0.140	-0.490	0.830
2020/01/31 15:54:59.7	99.430	0.120	-0.480	0.900
2020/01/31 15:54:59.8	99.440	0.110	-0.480	0.960
2020/01/31 15:54:59.9	99.440	0.090	-0.480	1.020
2020/01/31 15:55:00.0	99.440	0.080	-0.470	1.090
2020/01/31 15:55:00.1	99.430	0.070	-0.460	1.150
2020/01/31 15:55:00.2	99.430	0.050	-0.450	1.220
2020/01/31 15:55:00.3	99.430	0.040	-0.440	1.280
2020/01/31 15:55:00.4	99.420	0.030	-0.430	1.350
2020/01/31 15:55:00.5	99.420	0.010	-0.410	1.420
2020/01/31 15:55:00.6	99.410	0.000	-0.400	1.490
2020/01/31 15:55:00.7	99.420	-0.010	-0.380	1.560
2020/01/31 15:55:00.8	99.410	-0.020	-0.360	1.630
2020/01/31 15:55:00.9	99.400	-0.040	-0.350	1.690
2020/01/31 15:55:01.0	99.390	-0.050	-0.330	1.760
2020/01/31 15:55:01.1	99.380	-0.060	-0.310	1.830
2020/01/31 15:55:01.2	99.370	-0.070	-0.290	1.900
2020/01/31 15:55:01.3	99.360	-0.080	-0.270	1.960
2020/01/31 15:55:01.4	99.350	-0.090	-0.260	2.030
2020/01/31 15:55:01.5	99.330	-0.100	-0.240	2.090
2020/01/31 15:55:01.6	99.320	-0.110	-0.230	2.150
2020/01/31 15:55:01.7	99.340	-0.120	-0.210	2.210
2020/01/31 15:55:01.8	99.330	-0.130	-0.200	2.260
2020/01/31 15:55:01.9	99.320	-0.130	-0.190	2.320
2020/01/31 15:55:02.0	99.310	-0.140	-0.190	2.360
2020/01/31 15:55:02.1	99.300	-0.150	-0.180	2.410
2020/01/31 15:55:02.2	99.290	-0.150	-0.180	2.450
2020/01/31 15:55:02.3	99.290	-0.160	-0.190	2.480
2020/01/31 15:55:02.4	99.290	-0.160	-0.190	2.510
2020/01/31 15:55:02.5	99.290	-0.160	-0.200	2.540
2020/01/31 15:55:02.6	99.290	-0.160	-0.210	2.560
2020/01/31 15:55:02.7	99.290	-0.160	-0.230	2.580
2020/01/31 15:55:02.8	99.300	-0.160	-0.250	2.590
2020/01/31 15:55:02.9	99.310	-0.160	-0.270	2.600
2020/01/31 15:55:03.0	99.320	-0.150	-0.290	2.610
2020/01/31 15:55:03.1	99.330	-0.150	-0.320	2.600
2020/01/31 15:55:03.2	99.340	-0.140	-0.350	2.600
2020/01/31 15:55:03.3	99.350	-0.130	-0.370	2.590
2020/01/31 15:55:03.4	99.370	-0.120	-0.400	2.570
2020/01/31 15:55:03.5	99.380	-0.110	-0.430	2.550
2020/01/31 15:55:03.6	99.400	-0.100	-0.460	2.530
2020/01/31 15:55:03.7	99.420	-0.080	-0.490	2.490
2020/01/31 15:55:03.8	99.440	-0.070	-0.520	2.460
2020/01/31 15:55:03.9	99.460	-0.050	-0.540	2.420
2020/01/31 15:55:04.0	99.480	-0.040	-0.570	2.380
2020/01/31 15:55:04.1	99.500	-0.020	-0.590	2.340
2020/01/31 15:55:04.2	99.510	-0.000	-0.610	2.290
2020/01/31 15:55:04.3	99.530	0.010	-0.630	2.240
2020/01/31 15:55:04.4	99.550	0.030	-0.640	2.180
2020/01/31 15:55:04.5	99.570	0.050	-0.650	2.120
2020/01/31 15:55:04.6	99.580	0.060	-0.650	2.060
2020/01/31 15:55:04.7	99.600	0.080	-0.650	2.000
2020/01/31 15:55:04.8	99.620	0.090	-0.640	1.930
2020/01/31 15:55:04.9	99.630	0.110	-0.630	1.870
2020/01/31 15:55:05.0	99.640	0.120	-0.610	1.800
2020/01/31 15:55:05.1	99.660	0.130	-0.580	1.720
2020/01/31 15:55:05.2	99.670	0.140	-0.550	1.650
2020/01/31 15:55:05.3	99.680	0.140	-0.520	1.570
2020/01/31 15:55:05.4	99.690	0.150	-0.480	1.490
2020/01/31 15:55:05.5	99.700	0.150	-0.430	1.410
2020/01/31 15:55:05.6	99.700	0.150	-0.380	1.330
2020/01/31 15:55:05.7	99.710	0.150	-0.330	1.240
2020/01/31 15:55:05.8	99.720	0.140	-0.270	1.150
2020/01/31 15:55:05.9	99.730	0.140	-0.210	1.070
2020/01/31 15:55:06.0	99.730	0.130	-0.140	0.980
2020/01/31 15:55:06.1	99.730	0.120	-0.080	0.890
2020/01/31 15:55:06.2	99.730	0.110	-0.010	0.800
2020/01/31 15:55:06.3	99.730	0.090	0.060	0.720
2020/01/31 15:55:06.4	99.730	0.070	0.130	0.630
2020/01/31 15:55:06.5	99.730	0.060	0.190	0.540
2020/01/31 15:55:06.6	99.720	0.040	0.260	0.460
2020/01/31 15:55:06.7	99.700	0.020	0.330	0.370
2020/01/31 15:55:06.8	99.700	-0.010	0.390	0.290
2020/01/31 15:55:06.9	99.690	-0.030	0.450	0.210
2020/01/31 15:55:07.0	99.680	-0.050	0.510	0.130
2020/01/31 15:55:07.1	99.660	-0.080	0.570	0.050
2020/01/31 15:55:07.2	99.650	-0.100	0.620	-0.030
2020/01/31 15:55:07.3	99.640	-0.120	0.660	-0.100
2020/01/31 15:55:07.4	99.620	-0.150	0.700	-0.170
2020/01/31 15:55:07.5	99.610	-0.170	0.740	-0.240
2020/01/31 15:55:07.6	99.590	-0.190	0.770	-0.310
2020/01/31 15:55:07.7	99.570	-0.210	0.790	-0.380
2020/01/31 15:55:07.8	99.550	-0.230	0.810	-0.440
2020/01/31 15:55:07.9	99.540	-0.250	0.820	-0.510
2020/01/31 15:55:08.0	99.520	-0.270	0.820	-0.560
2020/01/31 15:55:08.1	99.510	-0.280	0.820	-0.620
2020/01/31 15:55:08.2	99.490	-0.290	0.810	-0.680
2020/01/31 15:55:08.3	99.480	-0.300	0.790	-0.730
2020/01/31 15:55:08.4	99.460	-0.310	0.770	-0.780
2020/01/31 15:55:08.5	99.450	-0.320	0.740	-0.830
2020/01/31 15:55:08.6	99.430	-0.320	0.700	-0.870
2020/01/31 15:55:08.7	99.400	-0.330	0.650	-0.910
2020/01/31 15:55:08.8	99.390	-0.330	0.600	-0.950
2020/01/31 15:55:08.9	99.380	-0.330	0.550	-0.990
2020/01/31 15:55:09.0	99.360	-0.320	0.490	-1.030
2020/01/31 15:55:09.1	99.350	-0.320	0.420	-1.070
2020/01/31 15:55:09.2	99.340	-0.310	0.350	-1.100
2020/01/31 15:55:09.3	99.340	-0.300	0.270	-1.130
2020/01/31 15:55:09.4	99.330	-0.290	0.190	-1.160
2020/01/31 15:55:09.5	99.320	-0.270	0.110	-1.190
2020/01/31 15:55:09.6	99.320	-0.260	0.030	-1.220
2020/01/31 15:55:09.7	99.310	-0.240	-0.060	-1.240
2020/01/31 15:55:09.8	99.310	-0.220	-0.140	-1.270
2020/01/31 15:55:09.9	99.310	-0.200	-0.230	-1.290
2020/01/31 15:55:10.0	99.310	-0.180	-0.320	-1.310
2020/01/31 15:55:10.1	99.320	-0.160	-0.400	-1.320
2020/01/31 15:55:10.2	99.320	-0.140	-0.480	-1.340
2020/01/31 15:55:10.3	99.330	-0.110	-0.560	-1.350
2020/01/31 15:55:10.4	99.340	-0.090	-0.640	-1.360
2020/01/31 15:55:10.5	99.350	-0.060	-0.710	-1.370
2020/01/31 15:55:10.6	99.370	-0.040	-0.780	-1.370
2020/01/31 15:55:10.7	99.390	-0.010	-0.850	-1.370
2020/01/31 15:55:10.8	99.410	0.010	-0.900	-1.370
2020/01/31 15:55:10.9	99.430	0.030	-0.960	-1.360
2020/01/31 15:55:11.0	99.450	0.060	-1.000	-1.350
2020/01/31 15:55:11.1	99.470	0.080	-1.040	-1.340
2020/01/31 15:55:11.2	99.490	0.100	-1.080	-1.320
2020/01/31 15:55:11.3	99.520	0.130	-1.100	-1.300
2020/01/31 15:55:11.4	99.540	0.150	-1.120	-1.270
2020/01/31 15:55:11.5	99.560	0.170	-1.130	-1.240
2020/01/31 15:55:11.6	99.590	0.190	-1.140	-1.200
2020/01/31 15:55:11.7	99.610	0.200	-1.140	-1.150
2020/01/31 15:55:11.8	99.630	0.220	-1.130	-1.100
2020/01/31 15:55:11.9	99.650	0.230	-1.120	-1.050
2020/01/31 15:55:12.0	99.670	0.250	-1.100	-0.990
2020/01/31 15:55:12.1	99.690	0.260	-1.070	-0.920
2020/01/31 15:55:12.2	99.710	0.270	-1.050	-0.850
2020/01/31 15:55:12.3	99.730	0.280	-1.010	-0.780
2020/01/31 15:55:12.4	99.750	0.290	-0.980	-0.700
2020/01/31 15:55:12.5	99.760	0.290	-0.930	-0.620
2020/01/31 15:55:12.6	99.780	0.300	-0.890	-0.530
2020/01/31 15:55:12.7	99.790	0.300	-0.840	-0.430
2020/01/31 15:55:12.8	99.800	0.300	-0.800	-0.340
2020/01/31 15:55:12.9	99.810	0.300	-0.750	-0.240
2020/01/31 15:55:13.0	99.820	0.300	-0.700	-0.130
2020/01/31 15:55:13.1	99.830	0.300	-0.650	-0.030
2020/01/31 15:55:13.2	99.840	0.300	-0.600	0.080
2020/01/31 15:55:13.3	99.850	0.300	-0.550	0.190
2020/01/31 15:55:13.4	99.860	0.290	-0.510	0.300
2020/01/31 15:55:13.5	99.860	0.290	-0.460	0.410
2020/01/31 15:55:13.6	99.870	0.280	-0.420	0.520
2020/01/31 15:55:13.7	99.870	0.270	-0.370	0.640
2020/01/31 15:55:13.8	99.870	0.270	-0.330	0.750
2020/01/31 15:55:13.9	99.880	0.260	-0.290	0.860
2020/01/31 15:55:14.0	99.880	0.250	-0.250	0.970
2020/01/31 15:55:14.1	99.880	0.240	-0.220	1.080
2020/01/31 15:55:14.2	99.890	0.240	-0.180	1.190
2020/01/31 15:55:14.3	99.890	0.230	-0.150	1.290
2020/01/31 15:55:14.4	99.890	0.220	-0.110	1.390
2020/01/31 15:55:14.5	99.890	0.210	-0.080	1.500
2020/01/31 15:55:14.6	99.890	0.200	-0.050	1.600
2020/01/31 15:55:14.7	99.890	0.190	-0.020	1.700
2020/01/31 15:55:14.8	99.890	0.170	0.010	1.790
2020/01/31 15:55:14.9	99.880	0.160	0.040	1.890
2020/01/31 15:55:15.0	99.870	0.150	0.070	1.980
2020/01/31 15:55:15.1	99.860	0.130	0.100	2.070
2020/01/31 15:55:15.2	99.850	0.120	0.130	2.150
2020/01/31 15:55:15.3	99.840	0.110	0.160	2.240
2020/01/31 15:55:15.4	99.820	0.090	0.190	2.320
2020/01/31 15:55:15.5	99.810	0.070	0.220	2.390
2020/01/31 15:55:15.6	99.790	0.060	0.240	2.460
2020/01/31 15:55:15.7	99.800	0.040	0.270	2.540
2020/01/31 15:55:15.8	99.780	0.020	0.300	2.600
2020/01/31 15:55:15.9	99.760	0.010	0.320	2.660
2020/01/31 15:55:16.0	99.740	-0.010	0.350	2.720
2020/01/31 15:55:16.1	99.730	-0.030	0.370	2.770
2020/01/31 15:55:16.2	99.710	-0.050	0.390	2.810
2020/01/31 15:55:16.3	99.690	-0.070	0.410	2.850
2020/01/31 15:55:16.4	99.680	-0.090	0.430	2.890
2020/01/31 15:55:16.5	99.660	-0.110	0.450	2.920
2020/01/31 15:55:16.6	99.650	-0.120	0.460	2.940
2020/01/31 15:55:16.7	99.650	-0.140	0.470	2.960
2020/01/31 15:55:16.8	99.640	-0.160	0.480	2.970
2020/01/31 15:55:16.9	99.630	-0.180	0.480	2.970
2020/01/31 15:55:17.0	99.620	-0.190	0.480	2.970
2020/01/31 15:55:17.1	99.620	-0.210	0.480	2.970
2020/01/31 15:55:17.2	99.610	-0.220	0.470	2.950
2020/01/31 15:55:17.3	99.610	-0.240	0.460	2.930
2020/01/31 15:55:17.4	99.610	-0.250	0.440	2.910
2020/01/31 15:55:17.5	99.610	-0.260	0.420	2.880
2020/01/31 15:55:17.6	99.610	-0.270	0.400	2.850
2020/01/31 15:55:17.7	99.630	-0.280	0.370	2.800
2020/01/31 15:55:17.8	99.630	-0.280	0.340	2.760
2020/01/31 15:55:17.9	99.640	-0.290	0.310	2.710
2020/01/31 15:55:18.0	99.640	-0.290	0.280	2.650
2020/01/31 15:55:18.1	99.650	-0.290	0.240	2.600
2020/01/31 15:55:18.2	99.660	-0.290	0.200	2.540
2020/01/31 15:55:18.3	99.670	-0.290	0.150	2.470
2020/01/31 15:55:18.4	99.680	-0.280	0.110	2.400
2020/01/31 15:55:18.5	99.690	-0.280	0.060	2.330
2020/01/31 15:55:18.6	99.700	-0.270	0.010	2.250
2020/01/31 15:55:18.7	99.720	-0.260	-0.030	2.170
2020/01/31 15:55:18.8	99.730	-0.240	-0.080	2.090
2020/01/31 15:55:18.9	99.750	-0.230	-0.130	2.000
2020/01/31 15:55:19.0	99.760	-0.210	-0.180	1.910
2020/01/31 15:55:19.1	99.780	-0.200	-0.230	1.810
2020/01/31 15:55:19.2	99.790	-0.180	-0.280	1.720
2020/01/31 15:55:19.3	99.810	-0.160	-0.320	1.620
2020/01/31 15:55:19.4	99.830	-0.140	-0.370	1.520
2020/01/31 15:55:19.5	99.840	-0.120	-0.410	1.410
2020/01/31 15:55:19.6	99.860	-0.100	-0.450	1.310
2020/01/31 15:55:19.7	99.870	-0.080	-0.490	1.200
2020/01/31 15:55:19.8	99.890	-0.060	-0.530	1.090
2020/01/31 15:55:19.9	99.910	-0.030	-0.560	0.980
2020/01/31 15:55:20.0	99.930	-0.010	-0.590	0.870
2020/01/31 15:55:20.1	99.950	0.010	-0.610	0.760
2020/01/31 15:55:20.2	99.970	0.030	-0.640	0.650
2020/01/31 15:55:20.3	99.980	0.050	-0.660	0.550
2020/01/31 15:55:20.4	100.000	0.070	-0.670	0.440
2020/01/31 15:55:20.5	100.020	0.090	-0.690	0.340
2020/01/31 15:55:20.6	100.030	0.100	-0.690	0.240
2020/01/31 15:55:20.7	100.040	0.120	-0.700	0.140
2020/01/31 15:55:20.8	100.050	0.130	-0.710	0.040
2020/01/31 15:55:20.9	100.070	0.140	-0.710	-0.050
2020/01/31 15:55:21.0	100.080	0.160	-0.710	-0.140
2020/01/31 15:55:21.1	100.090	0.170	-0.700	-0.220
2020/01/31 15:55:21.2	100.100	0.170	-0.700	-0.300
2020/01/31 15:55:21.3	100.110	0.180	-0.690	-0.380
2020/01/31 15:55:21.4	100.110	0.190	-0.680	-0.450
2020/01/31 15:55:21.5	100.120	0.190	-0.670	-0.510
2020/01/31 15:55:21.6	100.130	0.190	-0.650	-0.570
2020/01/31 15:55:21.7	100.120	0.190	-0.640	-0.630
2020/01/31 15:55:21.8	100.120	0.190	-0.620	-0.680
2020/01/31 15:55:21.9	100.120	0.190	-0.600	-0.720
2020/01/31 15:55:22.0	100.130	0.180	-0.580	-0.760
2020/01/31 15:55:22.1	100.130	0.180	-0.560	-0.800
2020/01/31 15:55:22.2	100.130	0.170	-0.530	-0.830
2020/01/31 15:55:22.3	100.130	0.160	-0.500	-0.850
2020/01/31 15:55:22.4	100.130	0.150	-0.480	-0.870
2020/01/31 15:55:22.5	100.130	0.140	-0.450	-0.890
2020/01/31 15:55:22.6	100.120	0.130	-0.420	-0.900
2020/01/31 15:55:22.7	100.110	0.120	-0.390	-0.910
2020/01/31 15:55:22.8	100.110	0.100	-0.350	-0.910
2020/01/31 15:55:22.9	100.110	0.090	-0.320	-0.910
2020/01/31 15:55:23.0	100.100	0.070	-0.290	-0.910
2020/01/31 15:55:23.1	100.100	0.060	-0.250	-0.900
2020/01/31 15:55:23.2	100.090	0.040	-0.220	-0.890
2020/01/31 15:55:23.3	100.090	0.020	-0.180	-0.880
2020/01/31 15:55:23.4	100.090	0.010	-0.140	-0.860
2020/01/31 15:55:23.5	100.080	-0.010	-0.110	-0.840
2020/01/31 15:55:23.6	100.070	-0.020	-0.070	-0.820
2020/01/31 15:55:23.7	100.060	-0.040	-0.030	-0.790
2020/01/31 15:55:23.8	100.050	-0.050	0.000	-0.770
2020/01/31 15:55:23.9	100.050	-0.060	0.040	-0.740
2020/01/31 15:55:24.0	100.040	-0.070	0.070	-0.710
2020/01/31 15:55:24.1	100.030	-0.090	0.100	-0.680
2020/01/31 15:55:24.2	100.030	-0.100	0.130	-0.650
2020/01/31 15:55:24.3	100.020	-0.100	0.160	-0.620
2020/01/31 15:55:24.4	100.010	-0.110	0.190	-0.580
2020/01/31 15:55:24.5	100.000	-0.120	0.210	-0.550
2020/01/31 15:55:24.6	99.990	-0.120	0.230	-0.510
2020/01/31 15:55:24.7	99.980	-0.120	0.250	-0.470
2020/01/31 15:55:24.8	99.970	-0.120	0.270	-0.440
2020/01/31 15:55:24.9	99.960	-0.120	0.280	-0.400
2020/01/31 15:55:25.0	99.950	-0.120	0.290	-0.360
2020/01/31 15:55:25.1	99.940	-0.120	0.300	-0.320
2020/01/31 15:55:25.2	99.930	-0.110	0.300	-0.280
2020/01/31 15:55:25.3	99.920	-0.110	0.300	-0.240
2020/01/31 15:55:25.4	99.910	-0.100	0.300	-0.200
2020/01/31 15:55:25.5	99.910	-0.090	0.300	-0.160
2020/01/31 15:55:25.6	99.900	-0.080	0.290	-0.120
2020/01/31 15:55:25.7	99.890	-0.070	0.270	-0.080
2020/01/31 15:55:25.8	99.880	-0.060	0.260	-0.040
2020/01/31 15:55:25.9	99.880	-0.050	0.240	0.010
2020/01/31 15:55:26.0	99.870	-0.040	0.220	0.050
2020/01/31 15:55:26.1	99.860	-0.030	0.200	0.090
2020/01/31 15:55:26.2	99.860	-0.020	0.170	0.140
2020/01/31 15:55:26.3	99.860	-0.010	0.150	0.180
2020/01/31 15:55:26.4	99.850	0.010	0.120	0.230
2020/01/31 15:55:26.5	99.850	0.020	0.090	0.280
2020/01/31 15:55:26.6	99.850	0.030	0.060	0.330
2020/01/31 15:55:26.7	99.860	0.040	0.020	0.390
2020/01/31 15:55:26.8	99.860	0.050	-0.010	0.440
2020/01/31 15:55:26.9	99.860	0.050	-0.040	0.490
2020/01/31 15:55:27.0	99.860	0.060	-0.080	0.540
2020/01/31 15:55:27.1	99.860	0.070	-0.110	0.590
2020/01/31 15:55:27.2	99.870	0.070	-0.140	0.650
2020/01/31 15:55:27.3	99.870	0.080	-0.180	0.700
2020/01/31 15:55:27.4	99.880	0.080	-0.210	0.760
2020/01/31 15:55:27.5	99.890	0.090	-0.240	0.810
2020/01/31 15:55:27.6	99.890	0.090	-0.270	0.870
2020/01/31 15:55:27.7	99.910	0.090	-0.300	0.920
2020/01/31 15:55:27.8	99.920	0.090	-0.330	0.980
2020/01/31 15:55:27.9	99.930	0.090	-0.360	1.030
2020/01/31 15:55:28.0	99.940	0.090	-0.380	1.090
2020/01/31 15:55:28.1	99.950	0.090	-0.400	1.140
2020/01/31 15:55:28.2	99.960	0.090	-0.430	1.190
2020/01/31 15:55:28.3	99.970	0.090	-0.450	1.240
2020/01/31 15:55:28.4	99.980	0.090	-0.470	1.290
2020/01/31 15:55:28.5	99.990	0.090	-0.480	1.340
2020/01/31 15:55:28.6	100.000	0.090	-0.500	1.390
2020/01/31 15:55:28.7	100.020	0.090	-0.520	1.440
2020/01/31 15:55:28.8	100.030	0.090	-0.530	1.490
2020/01/31 15:55:28.9	100.040	0.090	-0.550	1.530
2020/01/31 15:55:29.0	100.050	0.090	-0.560	1.570
2020/01/31 15:55:29.1	100.060	0.090	-0.570	1.610
2020/01/31 15:55:29.2	100.070	0.100	-0.580	1.640
2020/01/31 15:55:29.3	100.080	0.100	-0.580	1.670
2020/01/31 15:55:29.4	100.090	0.100	-0.590	1.700
2020/01/31 15:55:29.5	100.100	0.100	-0.600	1.730
2020/01/31 15:55:29.6	100.110	0.110	-0.600	1.750
2020/01/31 15:55:29.7	100.130	0.110	-0.600	1.780
2020/01/31 15:55:29.8	100.140	0.110	-0.600	1.790
2020/01/31 15:55:29.9	100.150	0.120	-0.600	1.810
2020/01/31 15:55:30.0	100.160	0.120	-0.590	1.820
2020/01/31 15:55:30.1	100.170	0.130	-0.590	1.830
2020/01/31 15:55:30.2	100.180	0.130	-0.580	1.840
2020/01/31 15:55:30.3	100.180	0.140	-0.570	1.850
2020/01/31 15:55:30.4	100.190	0.140	-0.560	1.850
2020/01/31 15:55:30.5	100.200	0.140	-0.550	1.850
2020/01/31 15:55:30.6	100.200	0.150	-0.540	1.850
2020/01/31 15:55:30.7	100.210	0.150	-0.520	1.840
2020/01/31 15:55:30.8	100.210	0.150	-0.500	1.830
2020/01/31 15:55:30.9	100.220	0.160	-0.480	1.830
2020/01/31 15:55:31.0	100.220	0.160	-0.460	1.820
2020/01/31 15:55:31.1	100.220	0.160	-0.440	1.810
2020/01/31 15:55:31.2	100.220	0.160	-0.410	1.790
2020/01/31 15:55:31.3	100.230	0.160	-0.380	1.780
2020/01/31 15:55:31.4	100.220	0.150	-0.350	1.770
2020/01/31 15:55:31.5	100.220	0.150	-0.320	1.760
2020/01/31 15:55:31.6	100.220	0.150	-0.280	1.740
2020/01/31 15:55:31.7	100.220	0.140	-0.240	1.730
2020/01/31 15:55:31.8	100.210	0.130	-0.200	1.720
2020/01/31 15:55:31.9	100.200	0.120	-0.160	1.700
2020/01/31 15:55:32.0	100.200	0.110	-0.120	1.690
2020/01/31 15:55:32.1	100.190	0.100	-0.070	1.670
2020/01/31 15:55:32.2	100.180	0.090	-0.030	1.660
2020/01/31 15:55:32.3	100.170	0.080	0.020	1.650
2020/01/31 15:55:32.4	100.160	0.060	0.060	1.630
2020/01/31 15:55:32.5	100.150	0.050	0.110	1.620
2020/01/31 15:55:32.6	100.140	0.030	0.150	1.600
2020/01/31 15:55:32.7	100.130	0.010	0.200	1.590
2020/01/31 15:55:32.8	100.120	-0.010	0.240	1.570
2020/01/31 15:55:32.9	100.110	-0.020	0.290	1.550
2020/01/31 15:55:33.0	100.110	-0.040	0.330	1.530
2020/01/31 15:55:33.1	100.100	-0.060	0.360	1.510
2020/01/31 15:55:33.2	100.090	-0.080	0.400	1.490
2020/01/31 15:55:33.3	100.090	-0.100	0.430	1.460
2020/01/31 15:55:33.4	100.090	-0.130	0.460	1.430
2020/01/31 15:55:33.5	100.080	-0.150	0.480	1.400
2020/01/31 15:55:33.6	100.080	-0.170	0.500	1.370
2020/01/31 15:55:33.7	100.080	-0.190	0.520	1.340
2020/01/31 15:55:33.8	100.090	-0.210	0.530	1.300
2020/01/31 15:55:33.9	100.090	-0.230	0.540	1.260
2020/01/31 15:55:34.0	100.090	-0.240	0.540	1.220
2020/01/31 15:55:34.1	100.100	-0.260	0.540	1.170
2020/01/31 15:55:34.2	100.110	-0.280	0.530	1.120
2020/01/31 15:55:34.3	100.120	-0.290	0.520	1.070
2020/01/31 15:55:34.4	100.130	-0.310	0.500	1.020
2020/01/31 15:55:34.5	100.140	-0.320	0.470	0.960
2020/01/31 15:55:34.6	100.160	-0.330	0.440	0.900
2020/01/31 15:55:34.7	100.160	-0.340	0.410	0.830
2020/01/31 15:55:34.8	100.170	-0.350	0.370	0.760
2020/01/31 15:55:34.9	100.190	-0.350	0.320	0.700
2020/01/31 15:55:35.0	100.210	-0.360	0.280	0.620
2020/01/31 15:55:35.1	100.230	-0.360	0.220	0.550
2020/01/31 15:55:35.2	100.240	-0.360	0.170	0.480
2020/01/31 15:55:35.3	100.260	-0.360	0.110	0.400
2020/01/31 15:55:35.4	100.280	-0.360	0.040	0.330
2020/01/31 15:55:35.5	100.290	-0.350	-0.020	0.260
2020/01/31 15:55:35.6	100.310	-0.340	-0.090	0.190
2020/01/31 15:55:35.7	100.320	-0.330	-0.160	0.120
2020/01/31 15:55:35.8	100.340	-0.320	-0.230	0.050
2020/01/31 15:55:35.9	100.350	-0.310	-0.300	-0.020
2020/01/31 15:55:36.0	100.360	-0.290	-0.370	-0.080
2020/01/31 15:55:36.1	100.360	-0.280	-0.440	-0.140
2020/01/31 15:55:36.2	100.370	-0.260	-0.510	-0.200
2020/01/31 15:55:36.3	100.370	-0.240	-0.570	-0.250
2020/01/31 15:55:36.4	100.380	-0.230	-0.630	-0.300
2020/01/31 15:55:36.5	100.380	-0.210	-0.690	-0.340
2020/01/31 15:55:36.6	100.380	-0.190	-0.740	-0.380
2020/01/31 15:55:36.7	100.370	-0.170	-0.790	-0.410
2020/01/31 15:55:36.8	100.370	-0.150	-0.830	-0.440
2020/01/31 15:55:36.9	100.370	-0.130	-0.870	-0.470
2020/01/31 15:55:37.0	100.360	-0.110	-0.900	-0.490
2020/01/31 15:55:37.1	100.350	-0.090	-0.930	-0.510
2020/01/31 15:55:37.2	100.350	-0.070	-0.950	-0.520
2020/01/31 15:55:37.3	100.340	-0.060	-0.960	-0.530
2020/01/31 15:55:37.4	100.330	-0.040	-0.970	-0.540
2020/01/31 15:55:37.5	100.330	-0.020	-0.970	-0.540
2020/01/31 15:55:37.6	100.320	-0.010	-0.960	-0.540
2020/01/31 15:55:37.7	100.310	0.000	-0.940	-0.540
2020/01/31 15:55:37.8	100.310	0.020	-0.930	-0.530
2020/01/31 15:55:37.9	100.310	0.030	-0.900	-0.520
2020/01/31 15:55:38.0	100.300	0.040	-0.870	-0.510
2020/01/31 15:55:38.1	100.300	0.040	-0.840	-0.500
2020/01/31 15:55:38.2	100.300	0.050	-0.800	-0.490
2020/01/31 15:55:38.3	100.300	0.060	-0.760	-0.480
2020/01/31 15:55:38.4	100.300	0.060	-0.720	-0.460
2020/01/31 15:55:38.5	100.300	0.070	-0.670	-0.440
2020/01/31 15:55:38.6	100.310	0.070	-0.620	-0.420
2020/01/31 15:55:38.7	100.300	0.070	-0.570	-0.400
2020/01/31 15:55:38.8	100.310	0.070	-0.520	-0.380
2020/01/31 15:55:38.9	100.310	0.070	-0.460	-0.360
2020/01/31 15:55:39.0	100.310	0.070	-0.410	-0.340
2020/01/31 15:55:39.1	100.320	0.070	-0.360	-0.310
2020/01/31 15:55:39.2	100.320	0.070	-0.310	-0.290
2020/01/31 15:55:39.3	100.320	0.070	-0.250	-0.260
2020/01/31 15:55:39.4	100.330	0.070	-0.200	-0.230
2020/01/31 15:55:39.5	100.330	0.070	-0.150	-0.210
2020/01/31 15:55:39.6	100.330	0.070	-0.100	-0.180
2020/01/31 15:55:39.7	100.340	0.060	-0.050	-0.140
2020/01/31 15:55:39.8	100.350	0.060	-0.010	-0.110
2020/01/31 15:55:39.9	100.350	0.060	0.030	-0.090
2020/01/31 15:55:40.0	100.350	0.060	0.070	-0.060
2020/01/31 15:55:40.1	100.360	0.060	0.110	-0.030
2020/01/31 15:55:40.2	100.360	0.050	0.150	0.000
2020/01/31 15:55:40.3	100.360	0.050	0.180	0.030
2020/01/31 15:55:40.4	100.370	0.050	0.210	0.060
2020/01/31 15:55:40.5	100.370	0.050	0.240	0.090
2020/01/31 15:55:40.6	100.380	0.050	0.270	0.120
2020/01/31 15:55:40.7	100.390	0.060	0.290	0.150
2020/01/31 15:55:40.8	100.400	0.060	0.310	0.180
2020/01/31 15:55:40.9	100.410	0.060	0.330	0.200
2020/01/31 15:55:41.0	100.410	0.070	0.340	0.230
2020/01/31 15:55:41.1	100.420	0.070	0.350	0.260
2020/01/31 15:55:41.2	100.430	0.080	0.360	0.290
2020/01/31 15:55:41.3	100.440	0.090	0.370	0.320
2020/01/31 15:55:41.4	100.450	0.090	0.370	0.350
2020/01/31 15:55:41.5	100.460	0.100	0.370	0.380
2020/01/31 15:55:41.6	100.470	0.110	0.360	0.410
2020/01/31 15:55:41.7	100.480	0.120	0.350	0.440
2020/01/31 15:55:41.8	100.490	0.140	0.340	0.470
2020/01/31 15:55:41.9	100.500	0.150	0.320	0.500
2020/01/31 15:55:42.0	100.510	0.160	0.300	0.540
2020/01/31 15:55:42.1	100.510	0.170	0.280	0.570
2020/01/31 15:55:42.2	100.520	0.190	0.250	0.600
2020/01/31 15:55:42.3	100.530	0.200	0.230	0.640
2020/01/31 15:55:42.4	100.530	0.220	0.190	0.670
2020/01/31 15:55:42.5	100.530	0.230	0.160	0.710
2020/01/31 15:55:42.6	100.530	0.240	0.120	0.740
2020/01/31 15:55:42.7	100.530	0.260	0.080	0.780
2020/01/31 15:55:42.8	100.530	0.270	0.030	0.820
2020/01/31 15:55:42.9	100.530	0.280	-0.010	0.850
2020/01/31 15:55:43.0	100.530	0.300	-0.050	0.890
2020/01/31 15:55:43.1	100.520	0.310	-0.100	0.930
2020/01/31 15:55:43.2	100.520	0.320	-0.140	0.960
2020/01/31 15:55:43.3	100.510	0.330	-0.190	1.000
2020/01/31 15:55:43.4	100.510	0.340	-0.230	1.040
2020/01/31 15:55:43.5	100.500	0.350	-0.270	1.070
2020/01/31 15:55:43.6	100.490	0.350	-0.310	1.100
2020/01/31 15:55:43.7	100.490	0.360	-0.340	1.140
2020/01/31 15:55:43.8	100.480	0.360	-0.380	1.170
2020/01/31 15:55:43.9	100.470	0.360	-0.410	1.200
2020/01/31 15:55:44.0	100.470	0.360	-0.440	1.230
2020/01/31 15:55:44.1	100.460	0.360	-0.460	1.260
2020/01/31 15:55:44.2	100.450	0.350	-0.480	1.280
2020/01/31 15:55:44.3	100.440	0.350	-0.500	1.310
2020/01/31 15:55:44.4	100.430	0.340	-0.510	1.330
2020/01/31 15:55:44.5	100.420	0.330	-0.520	1.350
2020/01/31 15:55:44.6	100.410	0.320	-0.530	1.370
2020/01/31 15:55:44.7	100.410	0.300	-0.530	1.400
2020/01/31 15:55:44.8	100.400	0.290	-0.530	1.410
2020/01/31 15:55:44.9	100.400	0.270	-0.520	1.430
2020/01/31 15:55:45.0	100.390	0.250	-0.510	1.450
2020/01/31 15:55:45.1	100.380	0.230	-0.490	1.470
2020/01/31 15:55:45.2	100.380	0.200	-0.480	1.480
2020/01/31 15:55:45.3	100.370	0.180	-0.460	1.500
2020/01/31 15:55:45.4	100.370	0.160	-0.430	1.510
2020/01/31 15:55:45.5	100.360	0.130	-0.410	1.530
2020/01/31 15:55:45.6	100.360	0.100	-0.380	1.540
2020/01/31 15:55:45.7	100.370	0.070	-0.350	1.560
2020/01/31 15:55:45.8	100.370	0.050	-0.320	1.570
2020/01/31 15:55:45.9	100.370	0.020	-0.290	1.580
2020/01/31 15:55:46.0	100.370	-0.010	-0.260	1.590
2020/01/31 15:55:46.1	100.370	-0.040	-0.230	1.600
2020/01/31 15:55:46.2	100.370	-0.070	-0.200	1.610
2020/01/31 15:55:46.3	100.380	-0.100	-0.180	1.620
2020/01/31 15:55:46.4	100.380	-0.120	-0.150	1.630
2020/01/31 15:55:46.5	100.390	-0.150	-0.130	1.640
2020/01/31 15:55:46.6	100.400	-0.170	-0.110	1.640
2020/01/31 15:55:46.7	100.420	-0.200	-0.080	1.640
2020/01/31 15:55:46.8	100.430	-0.220	-0.070	1.650
2020/01/31 15:55:46.9	100.450	-0.240	-0.060	1.650
2020/01/31 15:55:47.0	100.460	-0.260	-0.050	1.650
2020/01/31 15:55:47.1	100.470	-0.280	-0.040	1.650
2020/01/31 15:55:47.2	100.490	-0.290	-0.040	1.650
2020/01/31 15:55:47.3	100.500	-0.310	-0.040	1.650
2020/01/31 15:55:47.4	100.520	-0.320	-0.040	1.640
2020/01/31 15:55:47.5	100.540	-0.330	-0.050	1.640
2020/01/31 15:55:47.6	100.560	-0.340	-0.060	1.640
2020/01/31 15:55:47.7	100.580	-0.350	-0.070	1.630
2020/01/31 15:55:47.8	100.590	-0.350	-0.080	1.630
2020/01/31 15:55:47.9	100.610	-0.350	-0.100	1.620
2020/01/31 15:55:48.0	100.630	-0.350	-0.120	1.620
2020/01/31 15:55:48.1	100.640	-0.350	-0.140	1.610
2020/01/31 15:55:48.2	100.660	-0.350	-0.160	1.600
2020/01/31 15:55:48.3	100.670	-0.350	-0.190	1.590
2020/01/31 15:55:48.4	100.680	-0.340	-0.210	1.580
2020/01/31 15:55:48.5	100.690	-0.340	-0.230	1.570
2020/01/31 15:55:48.6	100.700	-0.330	-0.260	1.560
2020/01/31 15:55:48.7	100.720	-0.320	-0.280	1.550
2020/01/31 15:55:48.8	100.730	-0.310	-0.300	1.530
2020/01/31 15:55:48.9	100.730	-0.300	-0.320	1.520
2020/01/31 15:55:49.0	100.740	-0.290	-0.340	1.500
2020/01/31 15:55:49.1	100.740	-0.280	-0.360	1.480
2020/01/31 15:55:49.2	100.740	-0.270	-0.380	1.460
2020/01/31 15:55:49.3	100.740	-0.260	-0.390	1.430
2020/01/31 15:55:49.4	100.740	-0.250	-0.400	1.410
2020/01/31 15:55:49.5	100.740	-0.240	-0.410	1.380
2020/01/31 15:55:49.6	100.740	-0.230	-0.410	1.350
2020/01/31 15:55:49.7	100.730	-0.220	-0.410	1.320
2020/01/31 15:55:49.8	100.730	-0.210	-0.410	1.290
2020/01/31 15:55:49.9	100.720	-0.200	-0.400	1.250
2020/01/31 15:55:50.0	100.720	-0.190	-0.390	1.210
2020/01/31 15:55:50.1	100.710	-0.180	-0.380	1.170
2020/01/31 15:55:50.2	100.700	-0.180	-0.360	1.130
2020/01/31 15:55:50.3	100.690	-0.170	-0.340	1.090
2020/01/31 15:55:50.4	100.680	-0.170	-0.310	1.040
2020/01/31 15:55:50.5	100.670	-0.170	-0.280	1.000
2020/01/31 15:55:50.6	100.660	-0.160	-0.250	0.950
2020/01/31 15:55:50.7	100.650	-0.160	-0.210	0.900
2020/01/31 15:55:50.8	100.640	-0.160	-0.180	0.860
2020/01/31 15:55:50.9	100.630	-0.160	-0.140	0.810
2020/01/31 15:55:51.0	100.610	-0.170	-0.100	0.760
2020/01/31 15:55:51.1	100.600	-0.170	-0.060	0.710
2020/01/31 15:55:51.2	100.590	-0.170	-0.020	0.660
2020/01/31 15:55:51.3	100.580	-0.180	0.030	0.610
2020/01/31 15:55:51.4	100.580	-0.180	0.070	0.560
2020/01/31 15:55:51.5	100.570	-0.190	0.110	0.520
2020/01/31 15:55:51.6	100.560	-0.190	0.150	0.470
2020/01/31 15:55:51.7	100.560	-0.200	0.190	0.430
2020/01/31 15:55:51.8	100.550	-0.200	0.230	0.380
2020/01/31 15:55:51.9	100.550	-0.210	0.260	0.340
2020/01/31 15:55:52.0	100.550	-0.210	0.290	0.290
2020/01/31 15:55:52.1	100.550	-0.220	0.320	0.250
2020/01/31 15:55:52.2	100.550	-0.220	0.340	0.210
2020/01/31 15:55:52.3	100.550	-0.220	0.360	0.170
2020/01/31 15:55:52.4	100.560	-0.220	0.380	0.130
2020/01/31 15:55:52.5	100.560	-0.230	0.380	0.100
2020/01/31 15:55:52.6	100.570	-0.220	0.380	0.060
2020/01/31 15:55:52.7	100.570	-0.220	0.380	0.020
2020/01/31 15:55:52.8	100.580	-0.220	0.370	-0.010
2020/01/31 15:55:52.9	100.590	-0.210	0.360	-0.040
2020/01/31 15:55:53.0	100.610	-0.200	0.330	-0.070
2020/01/31 15:55:53.1	100.620	-0.190	0.300	-0.100
2020/01/31 15:55:53.2	100.640	-0.180	0.270	-0.130
2020/01/31 15:55:53.3	100.660	-0.170	0.230	-0.160
2020/01/31 15:55:53.4	100.670	-0.150	0.180	-0.180
2020/01/31 15:55:53.5	100.690	-0.140	0.130	-0.210
2020/01/31 15:55:53.6	100.710	-0.120	0.080	-0.230
2020/01/31 15:55:53.7	100.730	-0.100	0.020	-0.250
2020/01/31 15:55:53.8	100.740	-0.070	-0.040	-0.270
2020/01/31 15:55:53.9	100.760	-0.050	-0.110	-0.290
2020/01/31 15:55:54.0	100.780	-0.020	-0.170	-0.310
2020/01/31 15:55:54.1	100.800	0.000	-0.240	-0.320
2020/01/31 15:55:54.2	100.820	0.030	-0.300	-0.340
2020/01/31 15:55:54.3	100.830	0.060	-0.370	-0.360
2020/01/31 15:55:54.4	100.850	0.080	-0.430	-0.370
2020/01/31 15:55:54.5	100.860	0.110	-0.500	-0.380
2020/01/31 15:55:54.6	100.870	0.140	-0.560	-0.400
2020/01/31 15:55:54.7	100.890	0.160	-0.620	-0.410
2020/01/31 15:55:54.8	100.900	0.190	-0.670	-0.410
2020/01/31 15:55:54.9	100.910	0.210	-0.720	-0.420
2020/01/31 15:55:55.0	100.920	0.240	-0.760	-0.430
2020/01/31 15:55:55.1	100.920	0.260	-0.800	-0.430
2020/01/31 15:55:55.2	100.930	0.280	-0.830	-0.430
2020/01/31 15:55:55.3	100.930	0.300	-0.850	-0.430
2020/01/31 15:55:55.4	100.940	0.310	-0.870	-0.430
2020/01/31 15:55:55.5	100.940	0.330	-0.880	-0.430
2020/01/31 15:55:55.6	100.940	0.340	-0.890	-0.420
2020/01/31 15:55:55.7	100.930	0.350	-0.890	-0.410
2020/01/31 15:55:55.8	100.930	0.360	-0.880	-0.400
2020/01/31 15:55:55.9	100.930	0.360	-0.860	-0.380
2020/01/31 15:55:56.0	100.930	0.360	-0.840	-0.370
2020/01/31 15:55:56.1	100.920	0.360	-0.820	-0.350
2020/01/31 15:55:56.2	100.920	0.360	-0.780	-0.320
2020/01/31 15:55:56.3	100.910	0.360	-0.740	-0.300
2020/01/31 15:55:56.4	100.900	0.350	-0.700	-0.270
2020/01/31 15:55:56.5	100.900	0.350	-0.650	-0.240
2020/01/31 15:55:56.6	100.890	0.340	-0.600	-0.210
2020/01/31 15:55:56.7	100.880	0.330	-0.540	-0.170
2020/01/31 15:55:56.8	100.870	0.310	-0.480	-0.130
2020/01/31 15:55:56.9	100.860	0.300	-0.420	-0.090
2020/01/31 15:55:57.0	100.850	0.290	-0.350	-0.050
2020/01/31 15:55:57.1	100.840	0.270	-0.290	-0.000
2020/01/31 15:55:57.2	100.830	0.260	-0.220	0.040
2020/01/31 15:55:57.3	100.820	0.240	-0.160	0.090
2020/01/31 15:55:57.4	100.800	0.220	-0.090	0.140
2020/01/31 15:55:57.5	100.790	0.200	-0.030	0.190
2020/01/31 15:55:57.6	100.780	0.190	0.040	0.240
2020/01/31 15:55:57.7	100.760	0.170	0.090	0.290
2020/01/31 15:55:57.8	100.750	0.150	0.150	0.340
2020/01/31 15:55:57.9	100.730	0.140	0.200	0.400
2020/01/31 15:55:58.0	100.720	0.120	0.250	0.450
2020/01/31 15:55:58.1	100.710	0.110	0.300	0.500
2020/01/31 15:55:58.2	100.700	0.090	0.330	0.560
2020/01/31 15:55:58.3	100.690	0.080	0.370	0.610
2020/01/31 15:55:58.4	100.680	0.070	0.400	0.670
2020/01/31 15:55:58.5	100.670	0.060	0.420	0.720
2020/01/31 15:55:58.6	100.660	0.050	0.440	0.770
2020/01/31 15:55:58.7	100.660	0.040	0.450	0.830
2020/01/31 15:55:58.8	100.650	0.030	0.450	0.880
2020/01/31 15:55:58.9	100.650	0.030	0.450	0.930
2020/01/31 15:55:59.0	100.640	0.020	0.450	0.990
2020/01/31 15:55:59.1	100.640	0.020	0.440	1.040
2020/01/31 15:55:59.2	100.640	0.020	0.420	1.090
2020/01/31 15:55:59.3	100.640	0.020	0.400	1.130
2020/01/31 15:55:59.4	100.640	0.020	0.370	1.180
2020/01/31 15:55:59.5	100.650	0.020	0.340	1.220
2020/01/31 15:55:59.6	100.650	0.020	0.300	1.270
2020/01/31 15:55:59.7	100.660	0.030	0.270	1.310
2020/01/31 15:55:59.8	100.670	0.030	0.220	1.350
2020/01/31 15:55:59.9	100.680	0.040	0.180	1.390
2020/01/31 15:56:00.0	100.690	0.040	0.130	1.420
2020/01/31 15:56:00.1	100.700	0.050	0.080	1.450
2020/01/31 15:56:00.2	100.710	0.060	0.030	1.480
2020/01/31 15:56:00.3	100.720	0.060	-0.020	1.500
2020/01/31 15:56:00.4	100.730	0.070	-0.080	1.530
2020/01/31 15:56:00.5	100.750	0.080	-0.130	1.540
2020/01/31 15:56:00.6	100.760	0.090	-0.180	1.560
2020/01/31 15:56:00.7	100.790	0.090	-0.240	1.570
2020/01/31 15:56:00.8	100.800	0.100	-0.290	1.580
2020/01/31 15:56:00.9	100.820	0.110	-0.340	1.580
2020/01/31 15:56:01.0	100.840	0.110	-0.380	1.580
2020/01/31 15:56:01.1	100.860	0.120	-0.430	1.580
2020/01/31 15:56:01.2	100.880	0.130	-0.470	1.580
2020/01/31 15:56:01.3	100.900	0.130	-0.500	1.570
2020/01/31 15:56:01.4	100.920	0.130	-0.540	1.560
2020/01/31 15:56:01.5	100.950	0.140	-0.570	1.550
2020/01/31 15:56:01.6	100.970	0.140	-0.590	1.540
2020/01/31 15:56:01.7	100.990	0.140	-0.610	1.530
2020/01/31 15:56:01.8	101.010	0.140	-0.630	1.510
2020/01/31 15:56:01.9	101.040	0.130	-0.640	1.500
2020/01/31 15:56:02.0	101.060	0.130	-0.650	1.480
2020/01/31 15:56:02.1	101.080	0.120	-0.650	1.460
2020/01/31 15:56:02.2	101.110	0.120	-0.650	1.440
2020/01/31 15:56:02.3	101.130	0.110	-0.640	1.430
2020/01/31 15:56:02.4	101.150	0.100	-0.640	1.410
2020/01/31 15:56:02.5	101.170	0.090	-0.620	1.390
2020/01/31 15:56:02.6	101.190	0.080	-0.610	1.380
2020/01/31 15:56:02.7	101.220	0.070	-0.590	1.360
2020/01/31 15:56:02.8	101.240	0.050	-0.570	1.350
2020/01/31 15:56:02.9	101.260	0.040	-0.550	1.330
2020/01/31 15:56:03.0	101.270	0.020	-0.520	1.320
2020/01/31 15:56:03.1	101.290	0.000	-0.500	1.310
2020/01/31 15:56:03.2	101.310	-0.010	-0.470	1.310
2020/01/31 15:56:03.3	101.320	-0.030	-0.450	1.300
2020/01/31 15:56:03.4	101.330	-0.050	-0.420	1.300
2020/01/31 15:56:03.5	101.340	-0.070	-0.390	1.290
2020/01/31 15:56:03.6	101.350	-0.090	-0.370	1.290
2020/01/31 15:56:03.7	101.360	-0.110	-0.340	1.300
2020/01/31 15:56:03.8	101.360	-0.140	-0.320	1.300
2020/01/31 15:56:03.9	101.370	-0.160	-0.300	1.310
2020/01/31 15:56:04.0	101.370	-0.180	-0.280	1.310
2020/01/31 15:56:04.1	101.370	-0.200	-0.260	1.320
2020/01/31 15:56:04.2	101.380	-0.220	-0.240	1.330
2020/01/31 15:56:04.3	101.380	-0.240	-0.230	1.340
2020/01/31 15:56:04.4	101.380	-0.260	-0.210	1.350
2020/01/31 15:56:04.5	101.380	-0.290	-0.200	1.370
2020/01/31 15:56:04.6	101.370	-0.310	-0.190	1.380
2020/01/31 15:56:04.7	101.370	-0.330	-0.180	1.390
2020/01/31 15:56:04.8	101.370	-0.340	-0.170	1.410
2020/01/31 15:56:04.9	101.370	-0.360	-0.160	1.420
2020/01/31 15:56:05.0	101.360	-0.380	-0.150	1.430
2020/01/31 15:56:05.1	101.360	-0.400	-0.140	1.440
2020/01/31 15:56:05.2	101.360	-0.410	-0.130	1.450
2020/01/31 15:56:05.3	101.360	-0.430	-0.120	1.460
2020/01/31 15:56:05.4	101.350	-0.440	-0.110	1.470
2020/01/31 15:56:05.5	101.350	-0.450	-0.090	1.480
2020/01/31 15:56:05.6	101.340	-0.460	-0.080	1.490
2020/01/31 15:56:05.7	101.340	-0.470	-0.060	1.490
2020/01/31 15:56:05.8	101.340	-0.480	-0.050	1.490
2020/01/31 15:56:05.9	101.330	-0.480	-0.030	1.490
2020/01/31 15:56:06.0	101.330	-0.490	-0.010	1.490
2020/01/31 15:56:06.1	101.320	-0.490	0.010	1.490
2020/01/31 15:56:06.2	101.310	-0.490	0.030	1.490
2020/01/31 15:56:06.3	101.300	-0.490	0.060	1.480
2020/01/31 15:56:06.4	101.290	-0.490	0.080	1.470
2020/01/31 15:56:06.5	101.280	-0.480	0.110	1.460
2020/01/31 15:56:06.6	101.270	-0.480	0.130	1.440
2020/01/31 15:56:06.7	101.250	-0.470	0.160	1.420
2020/01/31 15:56:06.8	101.240	-0.470	0.190	1.400
2020/01/31 15:56:06.9	101.230	-0.460	0.210	1.380
2020/01/31 15:56:07.0	101.210	-0.450	0.240	1.350
2020/01/31 15:56:07.1	101.190	-0.440	0.260	1.320
2020/01/31 15:56:07.2	101.180	-0.420	0.280	1.290
2020/01/31 15:56:07.3	101.160	-0.410	0.300	1.250
2020/01/31 15:56:07.4	101.140	-0.390	0.310	1.210
2020/01/31 15:56:07.5	101.120	-0.380	0.330	1.170
2020/01/31 15:56:07.6	101.100	-0.360	0.340	1.120
2020/01/31 15:56:07.7	101.080	-0.340	0.340	1.070
2020/01/31 15:56:07.8	101.060	-0.320	0.350	1.020
2020/01/31 15:56:07.9	101.040	-0.300	0.350	0.960
2020/01/31 15:56:08.0	101.020	-0.280	0.340	0.910
2020/01/31 15:56:08.1	101.000	-0.260	0.330	0.850
2020/01/31 15:56:08.2	100.980	-0.230	0.320	0.780
2020/01/31 15:56:08.3	100.960	-0.210	0.310	0.720
2020/01/31 15:56:08.4	100.940	-0.190	0.290	0.660
2020/01/31 15:56:08.5	100.930	-0.160	0.260	0.590
2020/01/31 15:56:08.6	100.910	-0.130	0.240	0.520
2020/01/31 15:56:08.7	100.890	-0.100	0.210	0.460
2020/01/31 15:56:08.8	100.880	-0.080	0.170	0.390
2020/01/31 15:56:08.9	100.870	-0.050	0.140	0.320
2020/01/31 15:56:09.0	100.850	-0.020	0.100	0.260
2020/01/31 15:56:09.1	100.840	0.010	0.060	0.190
2020/01/31 15:56:09.2	100.830	0.040	0.020	0.120
2020/01/31 15:56:09.3	100.830	0.070	-0.030	0.060
2020/01/31 15:56:09.4	100.820	0.110	-0.070	-0.010
2020/01/31 15:56:09.5	100.810	0.140	-0.120	-0.080
2020/01/31 15:56:09.6	100.810	0.170	-0.170	-0.140
2020/01/31 15:56:09.7	100.810	0.200	-0.220	-0.200
2020/01/31 15:56:09.8	100.810	0.230	-0.270	-0.260
2020/01/31 15:56:09.9	100.810	0.270	-0.310	-0.330
2020/01/31 15:56:10.0	100.810	0.300	-0.360	-0.380
2020/01/31 15:56:10.1	100.820	0.330	-0.400	-0.440
2020/01/31 15:56:10.2	100.820	0.360	-0.440	-0.500
2020/01/31 15:56:10.3	100.830	0.390	-0.480	-0.550
2020/01/31 15:56:10.4	100.830	0.420	-0.520	-0.610
2020/01/31 15:56:10.5	100.840	0.450	-0.560	-0.660
2020/01/31 15:56:10.6	100.850	0.480	-0.590	-0.710
2020/01/31 15:56:10.7	100.860	0.500	-0.620	-0.750
2020/01/31 15:56:10.8	100.870	0.530	-0.650	-0.800
2020/01/31 15:56:10.9	100.890	0.550	-0.670	-0.840
2020/01/31 15:56:11.0	100.900	0.570	-0.690	-0.880
2020/01/31 15:56:11.1	100.910	0.590	-0.710	-0.920
2020/01/31 15:56:11.2	100.920	0.610	-0.720	-0.950
2020/01/31 15:56:11.3	100.940	0.630	-0.730	-0.980
2020/01/31 15:56:11.4	100.950	0.640	-0.730	-1.010
2020/01/31 15:56:11.5	100.960	0.660	-0.730	-1.030
2020/01/31 15:56:11.6	100.980	0.670	-0.730	-1.050
2020/01/31 15:56:11.7	100.990	0.670	-0.720	-1.060
2020/01/31 15:56:11.8	101.000	0.680	-0.710	-1.070
2020/01/31 15:56:11.9	101.020	0.680	-0.700	-1.080
2020/01/31 15:56:12.0	101.030	0.680	-0.680	-1.080
2020/01/31 15:56:12.1	101.050	0.680	-0.660	-1.080
2020/01/31 15:56:12.2	101.060	0.670	-0.640	-1.070
2020/01/31 15:56:12.3	101.070	0.670	-0.620	-1.050
2020/01/31 15:56:12.4	101.090	0.660	-0.590	-1.030
2020/01/31 15:56:12.5	101.100	0.640	-0.570	-1.010
2020/01/31 15:56:12.6	101.110	0.630	-0.540	-0.980
2020/01/31 15:56:12.7	101.130	0.610	-0.510	-0.940
2020/01/31 15:56:12.8	101.140	0.590	-0.480	-0.900
2020/01/31 15:56:12.9	101.150	0.570	-0.440	-0.860
2020/01/31 15:56:13.0	101.160	0.550	-0.410	-0.800
2020/01/31 15:56:13.1	101.170	0.520	-0.380	-0.750
2020/01/31 15:56:13.2	101.170	0.490	-0.350	-0.680
2020/01/31 15:56:13.3	101.180	0.460	-0.310	-0.620
2020/01/31 15:56:13.4	101.180	0.430	-0.280	-0.550
2020/01/31 15:56:13.5	101.180	0.400	-0.250	-0.470
2020/01/31 15:56:13.6	101.180	0.370	-0.220	-0.390
2020/01/31 15:56:13.7	101.180	0.330	-0.190	-0.300
2020/01/31 15:56:13.8	101.170	0.300	-0.160	-0.210
2020/01/31 15:56:13.9	101.170	0.260	-0.140	-0.110
2020/01/31 15:56:14.0	101.160	0.230	-0.110	-0.020
2020/01/31 15:56:14.1	101.150	0.190	-0.090	0.080
2020/01/31 15:56:14.2	101.140	0.160	-0.070	0.190
2020/01/31 15:56:14.3	101.120	0.120	-0.050	0.300
2020/01/31 15:56:14.4	101.110	0.090	-0.040	0.410
2020/01/31 15:56:14.5	101.090	0.060	-0.020	0.520
2020/01/31 15:56:14.6	101.070	0.020	-0.010	0.640
2020/01/31 15:56:14.7	101.040	-0.010	-0.000	0.760
2020/01/31 15:56:14.8	101.020	-0.040	0.010	0.880
2020/01/31 15:56:14.9	101.000	-0.070	0.020	1.010
2020/01/31 15:56:15.0	100.970	-0.100	0.020	1.130
2020/01/31 15:56:15.1	100.950	-0.130	0.030	1.250
2020/01/31 15:56:15.2	100.920	-0.160	0.030	1.380
2020/01/31 15:56:15.3	100.900	-0.190	0.030	1.500
2020/01/31 15:56:15.4	100.870	-0.220	0.040	1.630
2020/01/31 15:56:15.5	100.840	-0.240	0.040	1.750
2020/01/31 15:56:15.6	100.810	-0.270	0.040	1.880
2020/01/31 15:56:15.7	100.790	-0.290	0.040	2.000
2020/01/31 15:56:15.8	100.770	-0.310	0.040	2.120
2020/01/31 15:56:15.9	100.740	-0.340	0.050	2.230
2020/01/31 15:56:16.0	100.710	-0.360	0.050	2.340
2020/01/31 15:56:16.1	100.690	-0.380	0.050	2.450
2020/01/31 15:56:16.2	100.660	-0.390	0.050	2.550
2020/01/31 15:56:16.3	100.640	-0.410	0.060	2.650
2020/01/31 15:56:16.4	100.620	-0.430	0.060	2.740
2020/01/31 15:56:16.5	100.600	-0.440	0.060	2.830
2020/01/31 15:56:16.6	100.580	-0.460	0.070	2.910
2020/01/31 15:56:16.7	100.560	-0.470	0.070	2.990
2020/01/31 15:56:16.8	100.540	-0.480	0.080	3.060
2020/01/31 15:56:16.9	100.530	-0.490	0.080	3.120
2020/01/31 15:56:17.0	100.520	-0.500	0.090	3.180
2020/01/31 15:56:17.1	100.510	-0.510	0.100	3.230
2020/01/31 15:56:17.2	100.500	-0.520	0.100	3.280
2020/01/31 15:56:17.3	100.500	-0.530	0.110	3.310
2020/01/31 15:56:17.4	100.490	-0.530	0.120	3.340
2020/01/31 15:56:17.5	100.490	-0.540	0.120	3.370
2020/01/31 15:56:17.6	100.480	-0.540	0.130	3.390
2020/01/31 15:56:17.7	100.500	-0.540	0.130	3.400
2020/01/31 15:56:17.8	100.500	-0.540	0.140	3.400
2020/01/31 15:56:17.9	100.500	-0.550	0.140	3.400
2020/01/31 15:56:18.0	100.500	-0.550	0.140	3.390
2020/01/31 15:56:18.1	100.510	-0.540	0.140	3.370
2020/01/31 15:56:18.2	100.510	-0.540	0.130	3.350
2020/01/31 15:56:18.3	100.510	-0.540	0.130	3.320
2020/01/31 15:56:18.4	100.520	-0.530	0.120	3.280
2020/01/31 15:56:18.5	100.520	-0.530	0.110	3.240
2020/01/31 15:56:18.6	100.530	-0.520	0.100	3.180
2020/01/31 15:56:18.7	100.540	-0.510	0.090	3.130
2020/01/31 15:56:18.8	100.550	-0.500	0.080	3.070
2020/01/31 15:56:18.9	100.550	-0.490	0.060	3.000
2020/01/31 15:56:19.0	100.560	-0.470	0.040	2.920
2020/01/31 15:56:19.1	100.560	-0.460	0.020	2.840
2020/01/31 15:56:19.2	100.570	-0.440	-0.010	2.760
2020/01/31 15:56:19.3	100.570	-0.420	-0.040	2.670
2020/01/31 15:56:19.4	100.580	-0.400	-0.070	2.570
2020/01/31 15:56:19.5	100.580	-0.380	-0.100	2.480
2020/01/31 15:56:19.6	100.590	-0.360	-0.140	2.370
2020/01/31 15:56:19.7	100.600	-0.330	-0.170	2.260
2020/01/31 15:56:19.8	100.600	-0.310	-0.210	2.150
2020/01/31 15:56:19.9	100.610	-0.280	-0.250	2.040
2020/01/31 15:56:20.0	100.610	-0.250	-0.280	1.930
2020/01/31 15:56:20.1	100.620	-0.220	-0.320	1.810
2020/01/31 15:56:20.2	100.620	-0.190	-0.360	1.690
2020/01/31 15:56:20.3	100.630	-0.160	-0.400	1.570
2020/01/31 15:56:20.4	100.630	-0.130	-0.440	1.450
2020/01/31 15:56:20.5	100.640	-0.090	-0.470	1.330
2020/01/31 15:56:20.6	100.640	-0.060	-0.510	1.210
2020/01/31 15:56:20.7	100.650	-0.030	-0.540	1.090
2020/01/31 15:56:20.8	100.660	0.010	-0.580	0.960
2020/01/31 15:56:20.9	100.660	0.040	-0.610	0.840
2020/01/31 15:56:21.0	100.670	0.070	-0.630	0.710
2020/01/31 15:56:21.1	100.680	0.110	-0.660	0.590
2020/01/31 15:56:21.2	100.690	0.140	-0.680	0.470
2020/01/31 15:56:21.3	100.700	0.170	-0.700	0.340
2020/01/31 15:56:21.4	100.720	0.200	-0.710	0.220
2020/01/31 15:56:21.5	100.730	0.230	-0.730	0.100
2020/01/31 15:56:21.6	100.740	0.250	-0.730	-0.020
2020/01/31 15:56:21.7	100.750	0.280	-0.740	-0.150
2020/01/31 15:56:21.8	100.770	0.300	-0.740	-0.260
2020/01/31 15:56:21.9	100.780	0.320	-0.730	-0.380
2020/01/31 15:56:22.0	100.800	0.340	-0.720	-0.490
2020/01/31 15:56:22.1	100.820	0.360	-0.700	-0.600
2020/01/31 15:56:22.2	100.830	0.370	-0.690	-0.700
2020/01/31 15:56:22.3	100.850	0.380	-0.660	-0.800
2020/01/31 15:56:22.4	100.860	0.390	-0.630	-0.900
2020/01/31 15:56:22.5	100.880	0.400	-0.600	-0.990
2020/01/31 15:56:22.6	100.890	0.400	-0.570	-1.070
2020/01/31 15:56:22.7	100.890	0.400	-0.530	-1.150
2020/01/31 15:56:22.8	100.900	0.400	-0.490	-1.230
2020/01/31 15:56:22.9	100.910	0.400	-0.450	-1.300
2020/01/31 15:56:23.0	100.910	0.390	-0.410	-1.360
2020/01/31 15:56:23.1	100.920	0.380	-0.370	-1.420
2020/01/31 15:56:23.2	100.920	0.370	-0.320	-1.470
2020/01/31 15:56:23.3	100.920	0.360	-0.280	-1.520
2020/01/31 15:56:23.4	100.910	0.340	-0.230	-1.560
2020/01/31 15:56:23.5	100.910	0.330	-0.190	-1.590
2020/01/31 15:56:23.6	100.900	0.310	-0.140	-1.620
2020/01/31 15:56:23.7	100.880	0.290	-0.100	-1.630
2020/01/31 15:56:23.8	100.870	0.280	-0.060	-1.650
2020/01/31 15:56:23.9	100.860	0.260	-0.020	-1.660
2020/01/31 15:56:24.0	100.840	0.240	0.020	-1.660
2020/01/31 15:56:24.1	100.820	0.220	0.050	-1.660
2020/01/31 15:56:24.2	100.810	0.200	0.090	-1.660
2020/01/31 15:56:24.3	100.790	0.180	0.120	-1.640
2020/01/31 15:56:24.4	100.760	0.160	0.150	-1.630
2020/01/31 15:56:24.5	100.740	0.140	0.180	-1.610
2020/01/31 15:56:24.6	100.720	0.120	0.200	-1.590
2020/01/31 15:56:24.7	100.690	0.100	0.220	-1.560
2020/01/31 15:56:24.8	100.670	0.090	0.240	-1.530
2020/01/31 15:56:24.9	100.640	0.070	0.260	-1.500
2020/01/31 15:56:25.0	100.610	0.060	0.270	-1.460
2020/01/31 15:56:25.1	100.590	0.040	0.280	-1.430
2020/01/31 15:56:25.2	100.560	0.030	0.290	-1.390
2020/01/31 15:56:25.3	100.540	0.020	0.300	-1.350
2020/01/31 15:56:25.4	100.520	0.010	0.300	-1.300
2020/01/31 15:56:25.5	100.490	0.000	0.310	-1.260
2020/01/31 15:56:25.6	100.470	-0.000	0.310	-1.220
2020/01/31 15:56:25.7	100.450	-0.010	0.310	-1.160
2020/01/31 15:56:25.8	100.420	-0.010	0.300	-1.120
2020/01/31 15:56:25.9	100.400	-0.010	0.290	-1.070
2020/01/31 15:56:26.0	100.380	-0.010	0.280	-1.020
2020/01/31 15:56:26.1	100.360	-0.010	0.260	-0.970
2020/01/31 15:56:26.2	100.340	-0.010	0.240	-0.920
2020/01/31 15:56:26.3	100.330	-0.000	0.220	-0.870
2020/01/31 15:56:26.4	100.310	0.000	0.200	-0.820
2020/01/31 15:56:26.5	100.300	0.010	0.170	-0.770
2020/01/31 15:56:26.6	100.290	0.020	0.140	-0.720
2020/01/31 15:56:26.7	100.270	0.030	0.110	-0.660
2020/01/31 15:56:26.8	100.270	0.040	0.070	-0.610
2020/01/31 15:56:26.9	100.270	0.050	0.040	-0.560
2020/01/31 15:56:27.0	100.260	0.060	-0.000	-0.510
2020/01/31 15:56:27.1	100.270	0.070	-0.040	-0.450
2020/01/31 15:56:27.2	100.270	0.080	-0.090	-0.400
2020/01/31 15:56:27.3	100.280	0.090	-0.130	-0.350
2020/01/31 15:56:27.4	100.290	0.100	-0.180	-0.290
2020/01/31 15:56:27.5	100.310	0.120	-0.220	-0.230
2020/01/31 15:56:27.6	100.330	0.130	-0.270	-0.180
2020/01/31 15:56:27.7	100.350	0.140	-0.320	-0.110
2020/01/31 15:56:27.8	100.380	0.150	-0.360	-0.050
2020/01/31 15:56:27.9	100.400	0.160	-0.410	0.010
2020/01/31 15:56:28.0	100.430	0.170	-0.450	0.070
2020/01/31 15:56:28.1	100.470	0.170	-0.490	0.130
2020/01/31 15:56:28.2	100.500	0.180	-0.520	0.200
2020/01/31 15:56:28.3	100.540	0.180	-0.560	0.270
2020/01/31 15:56:28.4	100.580	0.190	-0.590	0.340
2020/01/31 15:56:28.5	100.620	0.190	-0.610	0.420
2020/01/31 15:56:28.6	100.660	0.190	-0.640	0.490
2020/01/31 15:56:28.7	100.720	0.190	-0.660	0.570
2020/01/31 15:56:28.8	100.760	0.190	-0.670	0.650
2020/01/31 15:56:28.9	100.810	0.180	-0.680	0.730
2020/01/31 15:56:29.0	100.850	0.180	-0.680	0.810
2020/01/31 15:56:29.1	100.890	0.170	-0.680	0.900
2020/01/31 15:56:29.2	100.930	0.160	-0.670	0.980
2020/01/31 15:56:29.3	100.980	0.150	-0.660	1.060
2020/01/31 15:56:29.4	101.020	0.140	-0.650	1.150
2020/01/31 15:56:29.5	101.050	0.130	-0.630	1.230
2020/01/31 15:56:29.6	101.090	0.110	-0.600	1.320
2020/01/31 15:56:29.7	101.130	0.100	-0.570	1.410
2020/01/31 15:56:29.8	101.160	0.080	-0.540	1.490
2020/01/31 15:56:29.9	101.190	0.060	-0.500	1.570
2020/01/31 15:56:30.0	101.220	0.040	-0.460	1.650
2020/01/31 15:56:30.1	101.240	0.020	-0.410	1.730
2020/01/31 15:56:30.2	101.270	-0.000	-0.370	1.800
2020/01/31 15:56:30.3	101.290	-0.030	-0.320	1.880
2020/01/31 15:56:30.4	101.300	-0.050	-0.270	1.950
2020/01/31 15:56:30.5	101.320	-0.070	-0.220	2.020
2020/01/31 15:56:30.6	101.330	-0.100	-0.160	2.090
2020/01/31 15:56:30.7	101.350	-0.120	-0.110	2.150
2020/01/31 15:56:30.8	101.350	-0.150	-0.050	2.210
2020/01/31 15:56:30.9	101.350	-0.170	-0.000	2.270
2020/01/31 15:56:31.0	101.350	-0.200	0.050	2.330
2020/01/31 15:56:31.1	101.350	-0.220	0.100	2.380
2020/01/31 15:56:31.2	101.340	-0.250	0.150	2.440
2020/01/31 15:56:31.3	101.330	-0.270	0.200	2.490
2020/01/31 15:56:31.4	101.320	-0.290	0.240	2.530
2020/01/31 15:56:31.5	101.310	-0.310	0.280	2.580
2020/01/31 15:56:31.6	101.290	-0.340	0.320	2.620
2020/01/31 15:56:31.7	101.270	-0.360	0.360	2.660
2020/01/31 15:56:31.8	101.250	-0.370	0.390	2.700
2020/01/31 15:56:31.9	101.220	-0.390	0.420	2.740
2020/01/31 15:56:32.0	101.200	-0.410	0.450	2.770
2020/01/31 15:56:32.1	101.170	-0.420	0.470	2.800
2020/01/31 15:56:32.2	101.150	-0.430	0.480	2.830
2020/01/31 15:56:32.3	101.120	-0.450	0.490	2.860
2020/01/31 15:56:32.4	101.090	-0.450	0.500	2.880
2020/01/31 15:56:32.5	101.060	-0.460	0.500	2.900
2020/01/31 15:56:32.6	101.030	-0.470	0.500	2.920
2020/01/31 15:56:32.7	100.990	-0.470	0.490	2.930
2020/01/31 15:56:32.8	100.960	-0.470	0.480	2.950
2020/01/31 15:56:32.9	100.930	-0.470	0.460	2.960
2020/01/31 15:56:33.0	100.900	-0.460	0.430	2.960
2020/01/31 15:56:33.1	100.870	-0.460	0.400	2.970
2020/01/31 15:56:33.2	100.840	-0.450	0.360	2.970
2020/01/31 15:56:33.3	100.810	-0.440	0.320	2.970
2020/01/31 15:56:33.4	100.780	-0.420	0.270	2.960
2020/01/31 15:56:33.5	100.750	-0.410	0.220	2.960
2020/01/31 15:56:33.6	100.730	-0.390	0.170	2.940
2020/01/31 15:56:33.7	100.710	-0.370	0.100	2.930
2020/01/31 15:56:33.8	100.690	-0.350	0.040	2.900
2020/01/31 15:56:33.9	100.670	-0.330	-0.030	2.880
2020/01/31 15:56:34.0	100.640	-0.300	-0.100	2.850
2020/01/31 15:56:34.1	100.630	-0.280	-0.180	2.810
2020/01/31 15:56:34.2	100.610	-0.250	-0.260	2.770
2020/01/31 15:56:34.3	100.590	-0.220	-0.330	2.720
2020/01/31 15:56:34.4	100.580	-0.190	-0.410	2.660
2020/01/31 15:56:34.5	100.570	-0.160	-0.490	2.600
2020/01/31 15:56:34.6	100.550	-0.120	-0.570	2.530
2020/01/31 15:56:34.7	100.560	-0.090	-0.650	2.460
2020/01/31 15:56:34.8	100.550	-0.060	-0.720	2.380
2020/01/31 15:56:34.9	100.540	-0.020	-0.800	2.300
2020/01/31 15:56:35.0	100.540	0.010	-0.860	2.210
2020/01/31 15:56:35.1	100.540	0.040	-0.930	2.110
2020/01/31 15:56:35.2	100.530	0.080	-0.990	2.010
2020/01/31 15:56:35.3	100.530	0.110	-1.040	1.900
2020/01/31 15:56:35.4	100.530	0.140	-1.090	1.790
2020/01/31 15:56:35.5	100.530	0.170	-1.130	1.680
2020/01/31 15:56:35.6	100.530	0.200	-1.160	1.560
2020/01/31 15:56:35.7	100.540	0.230	-1.190	1.440
2020/01/31 15:56:35.8	100.540	0.260	-1.210	1.310
2020/01/31 15:56:35.9	100.540	0.280	-1.220	1.180
2020/01/31 15:56:36.0	100.550	0.310	-1.220	1.050
2020/01/31 15:56:36.1	100.550	0.330	-1.210	0.910
2020/01/31 15:56:36.2	100.560	0.350	-1.200	0.770
2020/01/31 15:56:36.3	100.560	0.360	-1.180	0.630
2020/01/31 15:56:36.4	100.570	0.380	-1.150	0.490
2020/01/31 15:56:36.5	100.570	0.390	-1.120	0.350
2020/01/31 15:56:36.6	100.580	0.400	-1.080	0.210
2020/01/31 15:56:36.7	100.580	0.400	-1.030	0.070
2020/01/31 15:56:36.8	100.580	0.410	-0.980	-0.070
2020/01/31 15:56:36.9	100.590	0.410	-0.920	-0.210
2020/01/31 15:56:37.0	100.600	0.410	-0.850	-0.350
2020/01/31 15:56:37.1	100.610	0.410	-0.790	-0.490
2020/01/31 15:56:37.2	100.610	0.410	-0.720	-0.620
2020/01/31 15:56:37.3	100.620	0.400	-0.640	-0.750
2020/01/31 15:56:37.4	100.630	0.390	-0.570	-0.870
2020/01/31 15:56:37.5	100.640	0.380	-0.490	-1.000
2020/01/31 15:56:37.6	100.650	0.370	-0.410	-1.120
2020/01/31 15:56:37.7	100.660	0.360	-0.330	-1.230
2020/01/31 15:56:37.8	100.670	0.350	-0.250	-1.340
2020/01/31 15:56:37.9	100.680	0.330	-0.170	-1.440
2020/01/31 15:56:38.0	100.690	0.310	-0.100	-1.540
2020/01/31 15:56:38.1	100.700	0.300	-0.020	-1.640
2020/01/31 15:56:38.2	100.720	0.280	0.050	-1.720
2020/01/31 15:56:38.3	100.730	0.260	0.120	-1.800
2020/01/31 15:56:38.4	100.740	0.240	0.180	-1.880
2020/01/31 15:56:38.5	100.750	0.220	0.250	-1.950
2020/01/31 15:56:38.6	100.760	0.200	0.310	-2.010
2020/01/31 15:56:38.7	100.760	0.180	0.360	-2.060
2020/01/31 15:56:38.8	100.770	0.160	0.420	-2.110
2020/01/31 15:56:38.9	100.780	0.140	0.460	-2.150
2020/01/31 15:56:39.0	100.790	0.120	0.510	-2.180
2020/01/31 15:56:39.1	100.790	0.100	0.550	-2.200
2020/01/31 15:56:39.2	100.800	0.080	0.580	-2.220
2020/01/31 15:56:39.3	100.800	0.060	0.610	-2.230
2020/01/31 15:56:39.4	100.800	0.040	0.640	-2.230
2020/01/31 15:56:39.5	100.800	0.020	0.660	-2.220
2020/01/31 15:56:39.6	100.800	0.000	0.670	-2.210
2020/01/31 15:56:39.7	100.790	-0.010	0.690	-2.190
2020/01/31 15:56:39.8	100.780	-0.030	0.690	-2.160
2020/01/31 15:56:39.9	100.780	-0.040	0.700	-2.130
2020/01/31 15:56:40.0	100.770	-0.060	0.700	-2.090
2020/01/31 15:56:40.1	100.760	-0.070	0.690	-2.040
2020/01/31 15:56:40.2	100.740	-0.080	0.680	-1.980
2020/01/31 15:56:40.3	100.730	-0.090	0.670	-1.930
2020/01/31 15:56:40.4	100.720	-0.100	0.650	-1.860
2020/01/31 15:56:40.5	100.700	-0.110	0.630	-1.790
2020/01/31 15:56:40.6	100.680	-0.120	0.610	-1.720
2020/01/31 15:56:40.7	100.670	-0.120	0.580	-1.640
2020/01/31 15:56:40.8	100.650	-0.130	0.550	-1.560
2020/01/31 15:56:40.9	100.630	-0.130	0.510	-1.480
2020/01/31 15:56:41.0	100.610	-0.130	0.470	-1.390
2020/01/31 15:56:41.1	100.600	-0.130	0.430	-1.300
2020/01/31 15:56:41.2	100.580	-0.130	0.390	-1.210
2020/01/31 15:56:41.3	100.570	-0.130	0.340	-1.110
2020/01/31 15:56:41.4	100.560	-0.130	0.290	-1.020
2020/01/31 15:56:41.5	100.540	-0.130	0.240	-0.920
2020/01/31 15:56:41.6	100.540	-0.120	0.190	-0.830
2020/01/31 15:56:41.7	100.520	-0.120	0.140	-0.720
2020/01/31 15:56:41.8	100.520	-0.110	0.080	-0.630
2020/01/31 15:56:41.9	100.510	-0.110	0.030	-0.530
2020/01/31 15:56:42.0	100.510	-0.100	-0.030	-0.430
2020/01/31 15:56:42.1	100.520	-0.090	-0.080	-0.320
2020/01/31 15:56:42.2	100.520	-0.080	-0.130	-0.220
2020/01/31 15:56:42.3	100.530	-0.080	-0.190	-0.120
2020/01/31 15:56:42.4	100.530	-0.070	-0.240	-0.020
2020/01/31 15:56:42.5	100.540	-0.060	-0.290	0.090
2020/01/31 15:56:42.6	100.550	-0.050	-0.340	0.200
2020/01/31 15:56:42.7	100.570	-0.040	-0.390	0.310
2020/01/31 15:56:42.8	100.580	-0.030	-0.440	0.420
2020/01/31 15:56:42.9	100.600	-0.010	-0.480	0.530
2020/01/31 15:56:43.0	100.610	-0.000	-0.520	0.640
2020/01/31 15:56:43.1	100.630	0.010	-0.550	0.750
2020/01/31 15:56:43.2	100.640	0.020	-0.580	0.860
2020/01/31 15:56:43.3	100.660	0.030	-0.610	0.980
2020/01/31 15:56:43.4	100.670	0.040	-0.640	1.090
2020/01/31 15:56:43.5	100.690	0.050	-0.660	1.210
2020/01/31 15:56:43.6	100.700	0.050	-0.680	1.320
2020/01/31 15:56:43.7	100.720	0.060	-0.690	1.440
2020/01/31 15:56:43.8	100.730	0.070	-0.700	1.550
2020/01/31 15:56:43.9	100.730	0.080	-0.710	1.670
2020/01/31 15:56:44.0	100.740	0.080	-0.710	1.780
2020/01/31 15:56:44.1	100.750	0.080	-0.710	1.890
2020/01/31 15:56:44.2	100.750	0.090	-0.710	2.000
2020/01/31 15:56:44.3	100.750	0.090	-0.710	2.110
2020/01/31 15:56:44.4	100.750	0.090	-0.700	2.220
2020/01/31 15:56:44.5	100.750	0.090	-0.690	2.330
2020/01/31 15:56:44.6	100.750	0.090	-0.670	2.430
2020/01/31 15:56:44.7	100.750	0.090	-0.660	2.530
2020/01/31 15:56:44.8	100.750	0.080	-0.640	2.630
2020/01/31 15:56:44.9	100.740	0.080	-0.610	2.730
2020/01/31 15:56:45.0	100.730	0.070	-0.590	2.820
2020/01/31 15:56:45.1	100.720	0.060	-0.560	2.900
2020/01/31 15:56:45.2	100.710	0.060	-0.540	2.990
2020/01/31 15:56:45.3	100.690	0.050	-0.510	3.060
2020/01/31 15:56:45.4	100.680	0.040	-0.470	3.140
2020/01/31 15:56:45.5	100.670	0.030	-0.440	3.210
2020/01/31 15:56:45.6	100.650	0.020	-0.410	3.270
2020/01/31 15:56:45.7	100.650	0.010	-0.370	3.320
2020/01/31 15:56:45.8	100.630	-0.010	-0.340	3.370
2020/01/31 15:56:45.9	100.620	-0.020	-0.310	3.420
2020/01/31 15:56:46.0	100.600	-0.030	-0.270	3.450
2020/01/31 15:56:46.1	100.580	-0.040	-0.240	3.480
2020/01/31 15:56:46.2	100.570	-0.050	-0.210	3.500
2020/01/31 15:56:46.3	100.550	-0.070	-0.180	3.520
2020/01/31 15:56:46.4	100.530	-0.080	-0.150	3.530
2020/01/31 15:56:46.5	100.520	-0.090	-0.120	3.530
2020/01/31 15:56:46.6	100.500	-0.100	-0.100	3.520
2020/01/31 15:56:46.7	100.500	-0.110	-0.070	3.510
2020/01/31 15:56:46.8	100.480	-0.110	-0.050	3.480
2020/01/31 15:56:46.9	100.470	-0.120	-0.040	3.460
2020/01/31 15:56:47.0	100.450	-0.130	-0.020	3.420
2020/01/31 15:56:47.1	100.430	-0.130	-0.010	3.380
2020/01/31 15:56:47.2	100.410	-0.140	-0.000	3.330
2020/01/31 15:56:47.3	100.390	-0.140	0.000	3.280
2020/01/31 15:56:47.4	100.380	-0.140	0.010	3.220
2020/01/31 15:56:47.5	100.360	-0.140	0.010	3.150
2020/01/31 15:56:47.6	100.340	-0.140	0.000	3.080
2020/01/31 15:56:47.7	100.320	-0.140	-0.000	3.000
2020/01/31 15:56:47.8	100.300	-0.130	-0.010	2.920
2020/01/31 15:56:47.9	100.280	-0.130	-0.030	2.840
2020/01/31 15:56:48.0	100.270	-0.120	-0.040	2.750
2020/01/31 15:56:48.1	100.250	-0.110	-0.060	2.660
2020/01/31 15:56:48.2	100.240	-0.100	-0.070	2.560
2020/01/31 15:56:48.3	100.230	-0.090	-0.090	2.460
2020/01/31 15:56:48.4	100.220	-0.080	-0.110	2.360
2020/01/31 15:56:48.5	100.210	-0.070	-0.140	2.250
2020/01/31 15:56:48.6	100.200	-0.060	-0.160	2.140
2020/01/31 15:56:48.7	100.200	-0.040	-0.180	2.020
2020/01/31 15:56:48.8	100.200	-0.030	-0.200	1.900
2020/01/31 15:56:48.9	100.200	-0.020	-0.220	1.780
2020/01/31 15:56:49.0	100.200	-0.010	-0.240	1.660
2020/01/31 15:56:49.1	100.210	0.010	-0.260	1.530
2020/01/31 15:56:49.2	100.210	0.020	-0.280	1.400
2020/01/31 15:56:49.3	100.220	0.030	-0.300	1.270
2020/01/31 15:56:49.4	100.230	0.040	-0.310	1.130
2020/01/31 15:56:49.5	100.250	0.050	-0.320	1.000
2020/01/31 15:56:49.6	100.260	0.060	-0.330	0.860
2020/01/31 15:56:49.7	100.280	0.070	-0.340	0.720
2020/01/31 15:56:49.8	100.300	0.080	-0.340	0.580
2020/01/31 15:56:49.9	100.320	0.080	-0.340	0.430
2020/01/31 15:56:50.0	100.340	0.090	-0.340	0.290
2020/01/31 15:56:50.1	100.370	0.090	-0.330	0.150
2020/01/31 15:56:50.2	100.390	0.090	-0.330	0.010
2020/01/31 15:56:50.3	100.420	0.090	-0.320	-0.130
2020/01/31 15:56:50.4	100.450	0.090	-0.310	-0.270
2020/01/31 15:56:50.5	100.470	0.090	-0.300	-0.410
2020/01/31 15:56:50.6	100.500	0.090	-0.280	-0.550
2020/01/31 15:56:50.7	100.510	0.090	-0.270	-0.680
2020/01/31 15:56:50.8	100.540	0.090	-0.250	-0.810
2020/01/31 15:56:50.9	100.560	0.080	-0.230	-0.940
2020/01/31 15:56:51.0	100.590	0.080	-0.210	-1.060
2020/01/31 15:56:51.1	100.620	0.070	-0.190	-1.180
2020/01/31 15:56:51.2	100.640	0.070	-0.180	-1.300
2020/01/31 15:56:51.3	100.670	0.070	-0.160	-1.410
2020/01/31 15:56:51.4	100.700	0.060	-0.140	-1.510
2020/01/31 15:56:51.5	100.720	0.060	-0.120	-1.610
2020/01/31 15:56:51.6	100.750	0.050	-0.100	-1.710
2020/01/31 15:56:51.7	100.770	0.050	-0.090	-1.800
2020/01/31 15:56:51.8	100.790	0.050	-0.080	-1.880
2020/01/31 15:56:51.9	100.820	0.040	-0.060	-1.960
2020/01/31 15:56:52.0	100.840	0.040	-0.050	-2.040
2020/01/31 15:56:52.1	100.860	0.040	-0.040	-2.100
2020/01/31 15:56:52.2	100.880	0.040	-0.030	-2.170
2020/01/31 15:56:52.3	100.900	0.040	-0.030	-2.220
2020/01/31 15:56:52.4	100.920	0.040	-0.020	-2.270
2020/01/31 15:56:52.5	100.930	0.040	-0.020	-2.310
2020/01/31 15:56:52.6	100.950	0.040	-0.020	-2.340
2020/01/31 15:56:52.7	100.940	0.050	-0.030	-2.370
2020/01/31 15:56:52.8	100.940	0.050	-0.030	-2.380
2020/01/31 15:56:52.9	100.950	0.050	-0.030	-2.390
2020/01/31 15:56:53.0	100.950	0.060	-0.040	-2.390
2020/01/31 15:56:53.1	100.950	0.060	-0.050	-2.380
2020/01/31 15:56:53.2	100.950	0.060	-0.060	-2.370
2020/01/31 15:56:53.3	100.950	0.060	-0.070	-2.340
2020/01/31 15:56:53.4	100.940	0.070	-0.080	-2.310
2020/01/31 15:56:53.5	100.930	0.070	-0.100	-2.270
2020/01/31 15:56:53.6	100.910	0.070	-0.110	-2.220
2020/01/31 15:56:53.7	100.900	0.070	-0.120	-2.160
2020/01/31 15:56:53.8	100.890	0.070	-0.140	-2.100
2020/01/31 15:56:53.9	100.870	0.060	-0.150	-2.030
2020/01/31 15:56:54.0	100.850	0.060	-0.160	-1.950
2020/01/31 15:56:54.1	100.830	0.060	-0.180	-1.870
2020/01/31 15:56:54.2	100.810	0.050	-0.190	-1.790
2020/01/31 15:56:54.3	100.790	0.040	-0.200	-1.700
2020/01/31 15:56:54.4	100.770	0.030	-0.210	-1.600
2020/01/31 15:56:54.5	100.750	0.020	-0.220	-1.500
2020/01/31 15:56:54.6	100.730	0.010	-0.220	-1.400
2020/01/31 15:56:54.7	100.720	0.000	-0.230	-1.290
2020/01/31 15:56:54.8	100.700	-0.010	-0.230	-1.190
2020/01/31 15:56:54.9	100.690	-0.020	-0.240	-1.080
2020/01/31 15:56:55.0	100.670	-0.040	-0.240	-0.960
2020/01/31 15:56:55.1	100.660	-0.050	-0.240	-0.850
2020/01/31 15:56:55.2	100.650	-0.070	-0.230	-0.740
2020/01/31 15:56:55.3	100.650	-0.080	-0.230	-0.620
2020/01/31 15:56:55.4	100.640	-0.100	-0.220	-0.500
2020/01/31 15:56:55.5	100.640	-0.110	-0.210	-0.390
2020/01/31 15:56:55.6	100.640	-0.130	-0.210	-0.270
2020/01/31 15:56:55.7	100.640	-0.140	-0.190	-0.150
2020/01/31 15:56:55.8	100.640	-0.150	-0.180	-0.030
2020/01/31 15:56:55.9	100.640	-0.170	-0.170	0.090
2020/01/31 15:56:56.0	100.650	-0.180	-0.160	0.210
2020/01/31 15:56:56.1	100.660	-0.190	-0.140	0.320
2020/01/31 15:56:56.2	100.670	-0.200	-0.130	0.440
2020/01/31 15:56:56.3	100.680	-0.210	-0.110	0.560
2020/01/31 15:56:56.4	100.690	-0.210	-0.090	0.670
2020/01/31 15:56:56.5	100.700	-0.220	-0.070	0.790
2020/01/31 15:56:56.6	100.720	-0.220	-0.050	0.900
2020/01/31 15:56:56.7	100.740	-0.230	-0.030	1.020
2020/01/31 15:56:56.8	100.760	-0.230	-0.010	1.130
2020/01/31 15:56:56.9	100.780	-0.230	0.010	1.240
2020/01/31 15:56:57.0	100.800	-0.230	0.030	1.340
2020/01/31 15:56:57.1	100.820	-0.230	0.050	1.450
2020/01/31 15:56:57.2	100.830	-0.230	0.070	1.550
2020/01/31 15:56:57.3	100.850	-0.220	0.090	1.650
2020/01/31 15:56:57.4	100.880	-0.220	0.110	1.750
2020/01/31 15:56:57.5	100.900	-0.210	0.130	1.840
2020/01/31 15:56:57.6	100.920	-0.210	0.150	1.930
2020/01/31 15:56:57.7	100.940	-0.200	0.170	2.020
2020/01/31 15:56:57.8	100.970	-0.190	0.180	2.110
2020/01/31 15:56:57.9	100.990	-0.180	0.200	2.190
2020/01/31 15:56:58.0	101.010	-0.170	0.210	2.270
2020/01/31 15:56:58.1	101.040	-0.160	0.210	2.340
2020/01/31 15:56:58.2	101.060	-0.150	0.220	2.410
2020/01/31 15:56:58.3	101.080	-0.140	0.220	2.480
2020/01/31 15:56:58.4	101.110	-0.130	0.220	2.540
2020/01/31 15:56:58.5	101.130	-0.110	0.220	2.600
2020/01/31 15:56:58.6	101.160	-0.100	0.220	2.660
2020/01/31 15:56:58.7	101.180	-0.090	0.200	2.710
2020/01/31 15:56:58.8	101.200	-0.070	0.190	2.760
2020/01/31 15:56:58.9	101.230	-0.060	0.180	2.800
2020/01/31 15:56:59.0	101.250	-0.040	0.160	2.840
2020/01/31 15:56:59.1	101.270	-0.030	0.140	2.870
2020/01/31 15:56:59.2	101.290	-0.020	0.120	2.900
2020/01/31 15:56:59.3	101.310	-0.000	0.090	2.920
2020/01/31 15:56:59.4	101.330	0.010	0.060	2.940
2020/01/31 15:56:59.5	101.350	0.030	0.030	2.950
2020/01/31 15:56:59.6	101.360	0.040	0.000	2.960
2020/01/31 15:56:59.7	101.380	0.060	-0.030	2.970
2020/01/31 15:56:59.8	101.390	0.070	-0.070	2.970
2020/01/31 15:56:59.9	101.400	0.080	-0.100	2.970
2020/01/31 15:57:00.0	101.400	0.100	-0.140	2.970
2020/01/31 15:57:00.1	101.400	0.110	-0.180	2.960
2020/01/31 15:57:00.2	101.400	0.130	-0.220	2.950
2020/01/31 15:57:00.3	101.400	0.140	-0.260	2.940
2020/01/31 15:57:00.4	101.390	0.160	-0.310	2.920
2020/01/31 15:57:00.5	101.380	0.170	-0.350	2.900
2020/01/31 15:57:00.6	101.370	0.180	-0.390	2.880
2020/01/31 15:57:00.7	101.360	0.200	-0.430	2.860
2020/01/31 15:57:00.8	101.340	0.210	-0.470	2.840
2020/01/31 15:57:00.9	101.320	0.230	-0.510	2.810
2020/01/31 15:57:01.0	101.300	0.240	-0.560	2.780
2020/01/31 15:57:01.1	101.280	0.250	-0.590	2.760
2020/01/31 15:57:01.2	101.250	0.270	-0.630	2.720
2020/01/31 15:57:01.3	101.220	0.280	-0.670	2.690
2020/01/31 15:57:01.4	101.190	0.290	-0.710	2.660
2020/01/31 15:57:01.5	101.160	0.310	-0.740	2.620
2020/01/31 15:57:01.6	101.130	0.320	-0.770	2.580
2020/01/31 15:57:01.7	101.100	0.330	-0.800	2.540
2020/01/31 15:57:01.8	101.070	0.350	-0.820	2.490
2020/01/31 15:57:01.9	101.040	0.360	-0.850	2.450
2020/01/31 15:57:02.0	101.000	0.370	-0.870	2.400
2020/01/31 15:57:02.1	100.970	0.380	-0.890	2.350
2020/01/31 15:57:02.2	100.940	0.390	-0.900	2.300
2020/01/31 15:57:02.3	100.910	0.390	-0.910	2.240
2020/01/31 15:57:02.4	100.890	0.400	-0.920	2.180
2020/01/31 15:57:02.5	100.860	0.410	-0.920	2.120
2020/01/31 15:57:02.6	100.840	0.410	-0.920	2.050
2020/01/31 15:57:02.7	100.830	0.420	-0.920	1.980
2020/01/31 15:57:02.8	100.810	0.420	-0.910	1.910
2020/01/31 15:57:02.9	100.790	0.420	-0.900	1.840
2020/01/31 15:57:03.0	100.780	0.420	-0.880	1.760
2020/01/31 15:57:03.1	100.770	0.410	-0.860	1.680
2020/01/31 15:57:03.2	100.760	0.410	-0.840	1.600
2020/01/31 15:57:03.3	100.750	0.400	-0.810	1.520
2020/01/31 15:57:03.4	100.750	0.390	-0.780	1.430
2020/01/31 15:57:03.5	100.750	0.380	-0.740	1.350
2020/01/31 15:57:03.6	100.750	0.370	-0.710	1.260
2020/01/31 15:57:03.7	100.750	0.360	-0.660	1.170
2020/01/31 15:57:03.8	100.760	0.340	-0.620	1.080
2020/01/31 15:57:03.9	100.770	0.320	-0.570	0.990
2020/01/31 15:57:04.0	100.780	0.300	-0.520	0.900
2020/01/31 15:57:04.1	100.790	0.280	-0.460	0.800
2020/01/31 15:57:04.2	100.800	0.260	-0.410	0.710
2020/01/31 15:57:04.3	100.810	0.230	-0.350	0.620
2020/01/31 15:57:04.4	100.830	0.200	-0.290	0.520
2020/01/31 15:57:04.5	100.840	0.180	-0.230	0.430
2020/01/31 15:57:04.6	100.850	0.150	-0.170	0.340
2020/01/31 15:57:04.7	100.870	0.120	-0.110	0.240
2020/01/31 15:57:04.8	100.880	0.090	-0.050	0.150
2020/01/31 15:57:04.9	100.890	0.050	0.010	0.060
2020/01/31 15:57:05.0	100.910	0.020	0.070	-0.030
2020/01/31 15:57:05.1	100.920	-0.010	0.130	-0.120
2020/01/31 15:57:05.2	100.930	-0.040	0.190	-0.210
2020/01/31 15:57:05.3	100.930	-0.070	0.240	-0.290
2020/01/31 15:57:05.4	100.940	-0.100	0.300	-0.380
2020/01/31 15:57:05.5	100.950	-0.130	0.350	-0.460
2020/01/31 15:57:05.6	100.950	-0.160	0.390	-0.540
2020/01/31 15:57:05.7	100.950	-0.190	0.440	-0.610
2020/01/31 15:57:05.8	100.950	-0.220	0.470	-0.690
2020/01/31 15:57:05.9	100.950	-0.240	0.510	-0.760
2020/01/31 15:57:06.0	100.940	-0.270	0.540	-0.830
2020/01/31 15:57:06.1	100.940	-0.290	0.570	-0.900
2020/01/31 15:57:06.2	100.940	-0.310	0.590	-0.960
2020/01/31 15:57:06.3	100.930	-0.330	0.600	-1.020
2020/01/31 15:57:06.4	100.930	-0.350	0.610	-1.080
2020/01/31 15:57:06.5	100.920	-0.360	0.620	-1.140
2020/01/31 15:57:06.6	100.920	-0.370	0.620	-1.200
2020/01/31 15:57:06.7	100.900	-0.380	0.620	-1.250
2020/01/31 15:57:06.8	100.900	-0.390	0.610	-1.300
2020/01/31 15:57:06.9	100.900	-0.400	0.600	-1.350
2020/01/31 15:57:07.0	100.890	-0.400	0.580	-1.400
2020/01/31 15:57:07.1	100.890	-0.400	0.560	-1.440
2020/01/31 15:57:07.2	100.890	-0.400	0.540	-1.480
2020/01/31 15:57:07.3	100.890	-0.400	0.510	-1.520
2020/01/31 15:57:07.4	100.890	-0.390	0.470	-1.550
2020/01/31 15:57:07.5	100.890	-0.390	0.430	-1.580
2020/01/31 15:57:07.6	100.890	-0.380	0.390	-1.610
2020/01/31 15:57:07.7	100.900	-0.370	0.340	-1.630
2020/01/31 15:57:07.8	100.900	-0.360	0.290	-1.650
2020/01/31 15:57:07.9	100.910	-0.340	0.240	-1.660
2020/01/31 15:57:08.0	100.910	-0.330	0.190	-1.670
2020/01/31 15:57:08.1	100.920	-0.310	0.130	-1.670
2020/01/31 15:57:08.2	100.920	-0.300	0.070	-1.670
2020/01/31 15:57:08.3	100.930	-0.280	0.010	-1.670
2020/01/31 15:57:08.4	100.940	-0.260	-0.050	-1.660
2020/01/31 15:57:08.5	100.940	-0.240	-0.110	-1.640
2020/01/31 15:57:08.6	100.950	-0.220	-0.170	-1.620
2020/01/31 15:57:08.7	100.960	-0.200	-0.240	-1.580
2020/01/31 15:57:08.8	100.970	-0.170	-0.300	-1.550
2020/01/31 15:57:08.9	100.970	-0.150	-0.350	-1.510
2020/01/31 15:57:09.0	100.980	-0.130	-0.410	-1.470
2020/01/31 15:57:09.1	100.990	-0.110	-0.460	-1.410
2020/01/31 15:57:09.2	101.000	-0.090	-0.510	-1.360
2020/01/31 15:57:09.3	101.000	-0.070	-0.550	-1.300
2020/01/31 15:57:09.4	101.010	-0.050	-0.590	-1.230
2020/01/31 15:57:09.5	101.020	-0.030	-0.630	-1.160
2020/01/31 15:57:09.6	101.030	-0.010	-0.660	-1.080
2020/01/31 15:57:09.7	101.040	0.010	-0.680	-1.000
2020/01/31 15:57:09.8	101.050	0.030	-0.700	-0.910
2020/01/31 15:57:09.9	101.060	0.040	-0.710	-0.820
2020/01/31 15:57:10.0	101.060	0.050	-0.720	-0.730
2020/01/31 15:57:10.1	101.070	0.060	-0.720	-0.640
2020/01/31 15:57:10.2	101.080	0.070	-0.710	-0.540
2020/01/31 15:57:10.3	101.090	0.080	-0.700	-0.440
2020/01/31 15:57:10.4	101.100	0.080	-0.680	-0.350
2020/01/31 15:57:10.5	101.100	0.090	-0.650	-0.250
2020/01/31 15:57:10.6	101.110	0.090	-0.620	-0.140
2020/01/31 15:57:10.7	101.100	0.090	-0.580	-0.040
2020/01/31 15:57:10.8	101.100	0.080	-0.540	0.060
2020/01/31 15:57:10.9	101.110	0.080	-0.490	0.160
2020/01/31 15:57:11.0	101.110	0.070	-0.440	0.260
2020/01/31 15:57:11.1	101.110	0.060	-0.390	0.360
2020/01/31 15:57:11.2	101.110	0.050	-0.330	0.460
2020/01/31 15:57:11.3	101.110	0.040	-0.270	0.550
2020/01/31 15:57:11.4	101.110	0.020	-0.210	0.650
2020/01/31 15:57:11.5	101.100	0.010	-0.150	0.740
2020/01/31 15:57:11.6	101.090	-0.010	-0.090	0.840
2020/01/31 15:57:11.7	101.080	-0.030	-0.020	0.930
2020/01/31 15:57:11.8	101.070	-0.050	0.040	1.020
2020/01/31 15:57:11.9	101.060	-0.070	0.100	1.110
2020/01/31 15:57:12.0	101.040	-0.090	0.150	1.200
2020/01/31 15:57:12.1	101.030	-0.110	0.210	1.280
2020/01/31 15:57:12.2	101.010	-0.130	0.260	1.360
2020/01/31 15:57:12.3	100.990	-0.150	0.300	1.450
2020/01/31 15:57:12.4	100.970	-0.170	0.340	1.530
2020/01/31 15:57:12.5	100.950	-0.190	0.380	1.610
2020/01/31 15:57:12.6	100.920	-0.210	0.410	1.680
2020/01/31 15:57:12.7	100.900	-0.230	0.440	1.760
2020/01/31 15:57:12.8	100.870	-0.250	0.460	1.840
2020/01/31 15:57:12.9	100.850	-0.260	0.470	1.910
2020/01/31 15:57:13.0	100.820	-0.270	0.470	1.970
2020/01/31 15:57:13.1	100.790	-0.280	0.470	2.040
2020/01/31 15:57:13.2	100.760	-0.290	0.460	2.100
2020/01/31 15:57:13.3	100.730	-0.300	0.440	2.160
2020/01/31 15:57:13.4	100.700	-0.300	0.420	2.220
2020/01/31 15:57:13.5	100.670	-0.300	0.380	2.270
2020/01/31 15:57:13.6	100.640	-0.300	0.350	2.320
2020/01/31 15:57:13.7	100.630	-0.300	0.300	2.370
2020/01/31 15:57:13.8	100.600	-0.290	0.250	2.410
2020/01/31 15:57:13.9	100.570	-0.280	0.200	2.450
2020/01/31 15:57:14.0	100.550	-0.270	0.140	2.490
2020/01/31 15:57:14.1	100.520	-0.260	0.070	2.520
2020/01/31 15:57:14.2	100.500	-0.240	0.000	2.550
2020/01/31 15:57:14.3	100.480	-0.220	-0.070	2.570
2020/01/31 15:57:14.4	100.460	-0.200	-0.150	2.590
2020/01/31 15:57:14.5	100.440	-0.180	-0.230	2.600
2020/01/31 15:57:14.6	100.420	-0.150	-0.310	2.610
2020/01/31 15:57:14.7	100.430	-0.120	-0.400	2.610
2020/01/31 15:57:14.8	100.420	-0.100	-0.480	2.610
2020/01/31 15:57:14.9	100.410	-0.070	-0.560	2.610
2020/01/31 15:57:15.0	100.400	-0.040	-0.640	2.600
2020/01/31 15:57:15.1	100.400	-0.010	-0.720	2.590
2020/01/31 15:57:15.2	100.400	0.030	-0.800	2.570
2020/01/31 15:57:15.3	100.400	0.060	-0.870	2.550
2020/01/31 15:57:15.4	100.400	0.090	-0.940	2.520
2020/01/31 15:57:15.5	100.410	0.120	-1.010	2.490
2020/01/31 15:57:15.6	100.420	0.150	-1.070	2.460
2020/01/31 15:57:15.7	100.420	0.180	-1.120	2.420
2020/01/31 15:57:15.8	100.430	0.210	-1.170	2.370
2020/01/31 15:57:15.9	100.450	0.240	-1.220	2.330
2020/01/31 15:57:16.0	100.470	0.260	-1.250	2.280
2020/01/31 15:57:16.1	100.490	0.290	-1.280	2.230
2020/01/31 15:57:16.2	100.510	0.310	-1.300	2.170
2020/01/31 15:57:16.3	100.530	0.340	-1.320	2.110
2020/01/31 15:57:16.4	100.550	0.360	-1.330	2.050
2020/01/31 15:57:16.5	100.570	0.380	-1.330	1.990
2020/01/31 15:57:16.6	100.600	0.400	-1.320	1.920
2020/01/31 15:57:16.7	100.620	0.410	-1.300	1.860
2020/01/31 15:57:16.8	100.640	0.420	-1.280	1.790
2020/01/31 15:57:16.9	100.660	0.440	-1.250	1.720
2020/01/31 15:57:17.0	100.680	0.450	-1.210	1.650
2020/01/31 15:57:17.1	100.700	0.450	-1.170	1.580
2020/01/31 15:57:17.2	100.720	0.460	-1.110	1.500
2020/01/31 15:57:17.3	100.740	0.460	-1.060	1.430
2020/01/31 15:57:17.4	100.760	0.470	-1.000	1.350
2020/01/31 15:57:17.5	100.770	0.470	-0.930	1.280
2020/01/31 15:57:17.6	100.790	0.460	-0.860	1.210
2020/01/31 15:57:17.7	100.790	0.460	-0.780	1.130
2020/01/31 15:57:17.8	100.800	0.460	-0.700	1.060
2020/01/31 15:57:17.9	100.800	0.450	-0.620	0.980
2020/01/31 15:57:18.0	100.810	0.440	-0.540	0.910
2020/01/31 15:57:18.1	100.810	0.430	-0.450	0.840
2020/01/31 15:57:18.2	100.810	0.420	-0.360	0.760
2020/01/31 15:57:18.3	100.810	0.410	-0.280	0.690
2020/01/31 15:57:18.4	100.810	0.400	-0.190	0.620
2020/01/31 15:57:18.5	100.800	0.380	-0.100	0.550
2020/01/31 15:57:18.6	100.790	0.370	-0.010	0.480
2020/01/31 15:57:18.7	100.780	0.350	0.080	0.410
2020/01/31 15:57:18.8	100.770	0.330	0.160	0.340
2020/01/31 15:57:18.9	100.760	0.320	0.250	0.270
2020/01/31 15:57:19.0	100.750	0.300	0.330	0.210
2020/01/31 15:57:19.1	100.740	0.280	0.400	0.140
2020/01/31 15:57:19.2	100.720	0.260	0.480	0.070
2020/01/31 15:57:19.3	100.710	0.230	0.550	0.010
2020/01/31 15:57:19.4	100.690	0.210	0.620	-0.060
2020/01/31 15:57:19.5	100.680	0.190	0.680	-0.130
2020/01/31 15:57:19.6	100.660	0.170	0.740	-0.190
2020/01/31 15:57:19.7	100.650	0.140	0.800	-0.260
2020/01/31 15:57:19.8	100.640	0.120	0.850	-0.330
2020/01/31 15:57:19.9	100.620	0.100	0.900	-0.390
2020/01/31 15:57:20.0	100.600	0.070	0.940	-0.460
2020/01/31 15:57:20.1	100.590	0.050	0.980	-0.530
2020/01/31 15:57:20.2	100.580	0.030	1.020	-0.590
2020/01/31 15:57:20.3	100.560	0.000	1.040	-0.660
2020/01/31 15:57:20.4	100.550	-0.020	1.070	-0.720
2020/01/31 15:57:20.5	100.540	-0.040	1.090	-0.780
2020/01/31 15:57:20.6	100.520	-0.070	1.100	-0.850
2020/01/31 15:57:20.7	100.510	-0.090	1.110	-0.910
2020/01/31 15:57:20.8	100.500	-0.110	1.110	-0.960
2020/01/31 15:57:20.9	100.490	-0.130	1.100	-1.020
2020/01/31 15:57:21.0	100.480	-0.150	1.090	-1.070
2020/01/31 15:57:21.1	100.470	-0.170	1.080	-1.120
2020/01/31 15:57:21.2	100.460	-0.190	1.050	-1.170
2020/01/31 15:57:21.3	100.450	-0.210	1.020	-1.210
2020/01/31 15:57:21.4	100.450	-0.220	0.990	-1.250
2020/01/31 15:57:21.5	100.440	-0.240	0.950	-1.290
2020/01/31 15:57:21.6	100.440	-0.250	0.900	-1.320
2020/01/31 15:57:21.7	100.430	-0.260	0.850	-1.340
2020/01/31 15:57:21.8	100.420	-0.270	0.790	-1.370
2020/01/31 15:57:21.9	100.420	-0.280	0.730	-1.380
2020/01/31 15:57:22.0	100.420	-0.280	0.660	-1.400
2020/01/31 15:57:22.1	100.420	-0.290	0.580	-1.410
2020/01/31 15:57:22.2	100.420	-0.290	0.500	-1.420
2020/01/31 15:57:22.3	100.420	-0.290	0.420	-1.420
2020/01/31 15:57:22.4	100.420	-0.280	0.330	-1.420
2020/01/31 15:57:22.5	100.430	-0.280	0.240	-1.410
2020/01/31 15:57:22.6	100.430	-0.270	0.150	-1.410
2020/01/31 15:57:22.7	100.440	-0.260	0.050	-1.400
2020/01/31 15:57:22.8	100.450	-0.250	-0.050	-1.380
2020/01/31 15:57:22.9	100.460	-0.240	-0.160	-1.370
2020/01/31 15:57:23.0	100.470	-0.220	-0.260	-1.350
2020/01/31 15:57:23.1	100.490	-0.210	-0.370	-1.330
2020/01/31 15:57:23.2	100.500	-0.190	-0.470	-1.300
2020/01/31 15:57:23.3	100.520	-0.170	-0.580	-1.280
2020/01/31 15:57:23.4	100.540	-0.150	-0.680	-1.250
2020/01/31 15:57:23.5	100.560	-0.130	-0.780	-1.220
2020/01/31 15:57:23.6	100.580	-0.100	-0.880	-1.180
2020/01/31 15:57:23.7	100.600	-0.080	-0.980	-1.140
2020/01/31 15:57:23.8	100.630	-0.060	-1.070	-1.100
2020/01/31 15:57:23.9	100.650	-0.040	-1.160	-1.060
2020/01/31 15:57:24.0	100.670	-0.010	-1.240	-1.010
2020/01/31 15:57:24.1	100.700	0.010	-1.310	-0.970
2020/01/31 15:57:24.2	100.720	0.030	-1.380	-0.910
2020/01/31 15:57:24.3	100.740	0.050	-1.440	-0.860
2020/01/31 15:57:24.4	100.760	0.060	-1.490	-0.790
2020/01/31 15:57:24.5	100.780	0.080	-1.540	-0.730
2020/01/31 15:57:24.6	100.800	0.090	-1.570	-0.660
2020/01/31 15:57:24.7	100.820	0.110	-1.600	-0.580
2020/01/31 15:57:24.8	100.840	0.110	-1.610	-0.500
2020/01/31 15:57:24.9	100.860	0.120	-1.620	-0.420
2020/01/31 15:57:25.0	100.870	0.130	-1.620	-0.330
2020/01/31 15:57:25.1	100.880	0.130	-1.600	-0.240
2020/01/31 15:57:25.2	100.890	0.130	-1.580	-0.140
2020/01/31 15:57:25.3	100.900	0.120	-1.550	-0.040
2020/01/31 15:57:25.4	100.910	0.120	-1.510	0.070
2020/01/31 15:57:25.5	100.920	0.110	-1.460	0.180
2020/01/31 15:57:25.6	100.920	0.100	-1.400	0.290
2020/01/31 15:57:25.7	100.910	0.080	-1.330	0.410
2020/01/31 15:57:25.8	100.910	0.070	-1.260	0.530
2020/01/31 15:57:25.9	100.910	0.050	-1.180	0.660
2020/01/31 15:57:26.0	100.900	0.030	-1.090	0.780
2020/01/31 15:57:26.1	100.890	0.010	-1.000	0.910
2020/01/31 15:57:26.2	100.880	-0.010	-0.900	1.040
2020/01/31 15:57:26.3	100.870	-0.030	-0.800	1.170
2020/01/31 15:57:26.4	100.860	-0.060	-0.700	1.310
2020/01/31 15:57:26.5	100.840	-0.080	-0.600	1.440
2020/01/31 15:57:26.6	100.830	-0.100	-0.490	1.570
2020/01/31 15:57:26.7	100.810	-0.130	-0.380	1.710
2020/01/31 15:57:26.8	100.790	-0.150	-0.280	1.840
2020/01/31 15:57:26.9	100.770	-0.170	-0.170	1.960
2020/01/31 15:57:27.0	100.750	-0.200	-0.060	2.080
2020/01/31 15:57:27.1	100.730	-0.220	0.040	2.200
2020/01/31 15:57:27.2	100.710	-0.240	0.130	2.310
2020/01/31 15:57:27.3	100.690	-0.260	0.230	2.420
2020/01/31 15:57:27.4	100.670	-0.270	0.320	2.520
2020/01/31 15:57:27.5	100.650	-0.290	0.400	2.620
2020/01/31 15:57:27.6	100.630	-0.300	0.480	2.710
2020/01/31 15:57:27.7	100.620	-0.310	0.550	2.790
2020/01/31 15:57:27.8	100.600	-0.320	0.620	2.860
2020/01/31 15:57:27.9	100.580	-0.330	0.680	2.930
2020/01/31 15:57:28.0	100.560	-0.330	0.730	2.990
2020/01/31 15:57:28.1	100.540	-0.340	0.770	3.040
2020/01/31 15:57:28.2	100.530	-0.340	0.800	3.080
2020/01/31 15:57:28.3	100.510	-0.330	0.830	3.120
2020/01/31 15:57:28.4	100.500	-0.330	0.850	3.150
2020/01/31 15:57:28.5	100.490	-0.320	0.860	3.170
2020/01/31 15:57:28.6	100.470	-0.310	0.870	3.180
2020/01/31 15:57:28.7	100.470	-0.300	0.870	3.190
2020/01/31 15:57:28.8	100.460	-0.290	0.860	3.190
2020/01/31 15:57:28.9	100.450	-0.280	0.840	3.190
2020/01/31 15:57:29.0	100.450	-0.260	0.810	3.170
2020/01/31 15:57:29.1	100.440	-0.250	0.780	3.150
2020/01/31 15:57:29.2	100.440	-0.230	0.750	3.130
2020/01/31 15:57:29.3	100.440	-0.210	0.710	3.090
2020/01/31 15:57:29.4	100.440	-0.190	0.660	3.060
2020/01/31 15:57:29.5	100.440	-0.170	0.610	3.010
2020/01/31 15:57:29.6	100.440	-0.150	0.560	2.970
2020/01/31 15:57:29.7	100.450	-0.120	0.500	2.910
2020/01/31 15:57:29.8	100.450	-0.100	0.450	2.850
2020/01/31 15:57:29.9	100.460	-0.080	0.390	2.790
2020/01/31 15:57:30.0	100.470	-0.060	0.320	2.720
2020/01/31 15:57:30.1	100.480	-0.040	0.260	2.650
2020/01/31 15:57:30.2	100.490	-0.020	0.200	2.570
2020/01/31 15:57:30.3	100.500	0.000	0.130	2.490
2020/01/31 15:57:30.4	100.510	0.020	0.070	2.400
2020/01/31 15:57:30.5	100.520	0.040	0.010	2.320
2020/01/31 15:57:30.6	100.530	0.060	-0.050	2.220
2020/01/31 15:57:30.7	100.550	0.070	-0.110	2.120
2020/01/31 15:57:30.8	100.560	0.090	-0.160	2.020
2020/01/31 15:57:30.9	100.570	0.100	-0.220	1.920
2020/01/31 15:57:31.0	100.580	0.120	-0.270	1.810
2020/01/31 15:57:31.1	100.590	0.130	-0.320	1.700
2020/01/31 15:57:31.2	100.600	0.140	-0.370	1.590
2020/01/31 15:57:31.3	100.600	0.150	-0.420	1.480
2020/01/31 15:57:31.4	100.610	0.160	-0.460	1.360
2020/01/31 15:57:31.5	100.610	0.160	-0.500	1.250
2020/01/31 15:57:31.6	100.620	0.170	-0.530	1.130
2020/01/31 15:57:31.7	100.610	0.170	-0.560	1.020
2020/01/31 15:57:31.8	100.610	0.180	-0.590	0.900
2020/01/31 15:57:31.9	100.610	0.180	-0.620	0.790
2020/01/31 15:57:32.0	100.600	0.190	-0.640	0.680
2020/01/31 15:57:32.1	100.600	0.190	-0.650	0.570
2020/01/31 15:57:32.2	100.590	0.190	-0.660	0.460
2020/01/31 15:57:32.3	100.580	0.190	-0.670	0.350
2020/01/31 15:57:32.4	100.570	0.190	-0.680	0.250
2020/01/31 15:57:32.5	100.560	0.190	-0.680	0.150
2020/01/31 15:57:32.6	100.550	0.190	-0.680	0.060
2020/01/31 15:57:32.7	100.520	0.190	-0.670	-0.040
2020/01/31 15:57:32.8	100.500	0.190	-0.660	-0.130
2020/01/31 15:57:32.9	100.490	0.180	-0.650	-0.220
2020/01/31 15:57:33.0	100.470	0.180	-0.630	-0.300
2020/01/31 15:57:33.1	100.450	0.180	-0.610	-0.380
2020/01/31 15:57:33.2	100.430	0.180	-0.590	-0.450
2020/01/31 15:57:33.3	100.410	0.170	-0.570	-0.520
2020/01/31 15:57:33.4	100.390	0.170	-0.540	-0.590
2020/01/31 15:57:33.5	100.370	0.170	-0.520	-0.650
2020/01/31 15:57:33.6	100.350	0.160	-0.490	-0.710
2020/01/31 15:57:33.7	100.320	0.160	-0.460	-0.760
2020/01/31 15:57:33.8	100.300	0.160	-0.430	-0.820
2020/01/31 15:57:33.9	100.280	0.150	-0.400	-0.870
2020/01/31 15:57:34.0	100.250	0.150	-0.370	-0.910
2020/01/31 15:57:34.1	100.230	0.150	-0.340	-0.950
2020/01/31 15:57:34.2	100.210	0.150	-0.310	-0.990
2020/01/31 15:57:34.3	100.190	0.150	-0.280	-1.030
2020/01/31 15:57:34.4	100.170	0.140	-0.250	-1.060
2020/01/31 15:57:34.5	100.160	0.140	-0.230	-1.090
2020/01/31 15:57:34.6	100.140	0.140	-0.200	-1.110
2020/01/31 15:57:34.7	100.120	0.140	-0.170	-1.140
2020/01/31 15:57:34.8	100.110	0.140	-0.150	-1.160
2020/01/31 15:57:34.9	100.090	0.140	-0.140	-1.180
2020/01/31 15:57:35.0	100.080	0.150	-0.120	-1.190
2020/01/31 15:57:35.1	100.060	0.150	-0.110	-1.210
2020/01/31 15:57:35.2	100.050	0.150	-0.100	-1.220
2020/01/31 15:57:35.3	100.040	0.160	-0.090	-1.220
2020/01/31 15:57:35.4	100.030	0.160	-0.080	-1.230
2020/01/31 15:57:35.5	100.020	0.170	-0.080	-1.230
2020/01/31 15:57:35.6	100.010	0.170	-0.080	-1.240
2020/01/31 15:57:35.7	100.010	0.180	-0.090	-1.230
2020/01/31 15:57:35.8	100.000	0.190	-0.100	-1.230
2020/01/31 15:57:35.9	100.000	0.200	-0.110	-1.220
2020/01/31 15:57:36.0	99.990	0.200	-0.120	-1.210
2020/01/31 15:57:36.1	99.990	0.210	-0.130	-1.200
2020/01/31 15:57:36.2	99.990	0.220	-0.140	-1.190
2020/01/31 15:57:36.3	99.990	0.230	-0.160	-1.170
2020/01/31 15:57:36.4	99.980	0.240	-0.170	-1.150
2020/01/31 15:57:36.5	99.990	0.250	-0.190	-1.130
2020/01/31 15:57:36.6	99.990	0.260	-0.210	-1.100
2020/01/31 15:57:36.7	99.990	0.270	-0.220	-1.070
2020/01/31 15:57:36.8	99.990	0.280	-0.240	-1.040
2020/01/31 15:57:36.9	100.000	0.280	-0.250	-1.010
2020/01/31 15:57:37.0	100.000	0.290	-0.260	-0.970
2020/01/31 15:57:37.1	100.010	0.290	-0.270	-0.920
2020/01/31 15:57:37.2	100.020	0.300	-0.280	-0.880
2020/01/31 15:57:37.3	100.020	0.300	-0.290	-0.830
2020/01/31 15:57:37.4	100.030	0.300	-0.300	-0.770
2020/01/31 15:57:37.5	100.030	0.290	-0.300	-0.710
2020/01/31 15:57:37.6	100.040	0.290	-0.300	-0.650
2020/01/31 15:57:37.7	100.050	0.280	-0.290	-0.580
2020/01/31 15:57:37.8	100.050	0.270	-0.290	-0.510
2020/01/31 15:57:37.9	100.050	0.260	-0.280	-0.430
2020/01/31 15:57:38.0	100.050	0.240	-0.260	-0.350
2020/01/31 15:57:38.1	100.050	0.220	-0.250	-0.260
2020/01/31 15:57:38.2	100.050	0.200	-0.230	-0.170
2020/01/31 15:57:38.3	100.050	0.170	-0.210	-0.080
2020/01/31 15:57:38.4	100.050	0.150	-0.190	0.010
2020/01/31 15:57:38.5	100.050	0.110	-0.160	0.110
2020/01/31 15:57:38.6	100.040	0.080	-0.130	0.210
2020/01/31 15:57:38.7	100.030	0.050	-0.100	0.310
2020/01/31 15:57:38.8	100.030	0.010	-0.070	0.410
2020/01/31 15:57:38.9	100.020	-0.030	-0.040	0.520
2020/01/31 15:57:39.0	100.020	-0.070	-0.000	0.620
2020/01/31 15:57:39.1	100.010	-0.120	0.030	0.720
2020/01/31 15:57:39.2	100.010	-0.160	0.070	0.820
2020/01/31 15:57:39.3	100.010	-0.210	0.100	0.920
2020/01/31 15:57:39.4	100.000	-0.250	0.130	1.020
2020/01/31 15:57:39.5	100.000	-0.300	0.170	1.120
2020/01/31 15:57:39.6	99.990	-0.340	0.200	1.210
2020/01/31 15:57:39.7	100.010	-0.380	0.220	1.310
2020/01/31 15:57:39.8	100.000	-0.420	0.250	1.390
2020/01/31 15:57:39.9	100.000	-0.460	0.270	1.480
2020/01/31 15:57:40.0	100.000	-0.500	0.290	1.560
2020/01/31 15:57:40.1	99.990	-0.530	0.300	1.630
2020/01/31 15:57:40.2	99.990	-0.560	0.310	1.700
2020/01/31 15:57:40.3	99.990	-0.590	0.320	1.770
2020/01/31 15:57:40.4	99.980	-0.610	0.320	1.840
2020/01/31 15:57:40.5	99.980	-0.630	0.320	1.900
2020/01/31 15:57:40.6	99.970	-0.650	0.310	1.960
2020/01/31 15:57:40.7	99.990	-0.650	0.300	2.010
2020/01/31 15:57:40.8	99.980	-0.660	0.290	2.060
2020/01/31 15:57:40.9	99.970	-0.660	0.260	2.110
2020/01/31 15:57:41.0	99.960	-0.650	0.240	2.160
2020/01/31 15:57:41.1	99.950	-0.640	0.210	2.200
2020/01/31 15:57:41.2	99.940	-0.630	0.170	2.240
2020/01/31 15:57:41.3	99.930	-0.610	0.130	2.280
2020/01/31 15:57:41.4	99.920	-0.580	0.090	2.320
2020/01/31 15:57:41.5	99.900	-0.550	0.040	2.350
2020/01/31 15:57:41.6	99.880	-0.520	-0.010	2.390
2020/01/31 15:57:41.7	99.870	-0.480	-0.060	2.420
2020/01/31 15:57:41.8	99.850	-0.450	-0.110	2.450
2020/01/31 15:57:41.9	99.830	-0.400	-0.170	2.470
2020/01/31 15:57:42.0	99.810	-0.360	-0.220	2.500
2020/01/31 15:57:42.1	99.790	-0.310	-0.280	2.520
2020/01/31 15:57:42.2	99.770	-0.260	-0.330	2.540
2020/01/31 15:57:42.3	99.760	-0.220	-0.390	2.560
2020/01/31 15:57:42.4	99.740	-0.170	-0.440	2.570
2020/01/31 15:57:42.5	99.720	-0.120	-0.490	2.580
2020/01/31 15:57:42.6	99.700	-0.070	-0.540	2.590
2020/01/31 15:57:42.7	99.680	-0.020	-0.590	2.600
2020/01/31 15:57:42.8	99.670	0.030	-0.630	2.600
2020/01/31 15:57:42.9	99.650	0.080	-0.670	2.600
2020/01/31 15:57:43.0	99.630	0.120	-0.710	2.590
2020/01/31 15:57:43.1	99.620	0.160	-0.750	2.580
2020/01/31 15:57:43.2	99.600	0.200	-0.770	2.560
2020/01/31 15:57:43.3	99.590	0.240	-0.800	2.540
2020/01/31 15:57:43.4	99.580	0.270	-0.820	2.520
2020/01/31 15:57:43.5	99.570	0.300	-0.830	2.490
2020/01/31 15:57:43.6	99.560	0.330	-0.840	2.450
2020/01/31 15:57:43.7	99.550	0.350	-0.840	2.410
2020/01/31 15:57:43.8	99.550	0.370	-0.830	2.360
2020/01/31 15:57:43.9	99.540	0.380	-0.820	2.310
2020/01/31 15:57:44.0	99.540	0.390	-0.810	2.250
2020/01/31 15:57:44.1	99.540	0.390	-0.780	2.180
2020/01/31 15:57:44.2	99.550	0.400	-0.760	2.110
2020/01/31 15:57:44.3	99.550	0.390	-0.720	2.040
2020/01/31 15:57:44.4	99.560	0.390	-0.680	1.950
2020/01/31 15:57:44.5	99.560	0.380	-0.640	1.870
2020/01/31 15:57:44.6	99.570	0.360	-0.590	1.780
2020/01/31 15:57:44.7	99.590	0.340	-0.540	1.680
2020/01/31 15:57:44.8	99.600	0.320	-0.480	1.580
2020/01/31 15:57:44.9	99.620	0.300	-0.430	1.470
2020/01/31 15:57:45.0	99.630	0.280	-0.370	1.370
2020/01/31 15:57:45.1	99.650	0.250	-0.300	1.260
2020/01/31 15:57:45.2	99.660	0.220	-0.240	1.140
2020/01/31 15:57:45.3	99.680	0.190	-0.180	1.030
2020/01/31 15:57:45.4	99.690	0.160	-0.120	0.910
2020/01/31 15:57:45.5	99.710	0.130	-0.060	0.790
2020/01/31 15:57:45.6	99.730	0.100	0.000	0.680
2020/01/31 15:57:45.7	99.740	0.070	0.060	0.560
2020/01/31 15:57:45.8	99.750	0.040	0.120	0.440
2020/01/31 15:57:45.9	99.770	0.010	0.170	0.320
2020/01/31 15:57:46.0	99.790	-0.020	0.220	0.210
2020/01/31 15:57:46.1	99.800	-0.040	0.270	0.090
2020/01/31 15:57:46.2	99.820	-0.070	0.310	-0.020
2020/01/31 15:57:46.3	99.830	-0.090	0.350	-0.130
2020/01/31 15:57:46.4	99.840	-0.110	0.380	-0.230
2020/01/31 15:57:46.5	99.860	-0.120	0.410	-0.330
2020/01/31 15:57:46.6	99.870	-0.140	0.440	-0.430
2020/01/31 15:57:46.7	99.860	-0.150	0.460	-0.530
2020/01/31 15:57:46.8	99.860	-0.160	0.470	-0.610
2020/01/31 15:57:46.9	99.870	-0.160	0.480	-0.700
2020/01/31 15:57:47.0	99.880	-0.160	0.480	-0.770
2020/01/31 15:57:47.1	99.880	-0.160	0.480	-0.840
2020/01/31 15:57:47.2	99.880	-0.160	0.470	-0.910
2020/01/31 15:57:47.3	99.880	-0.150	0.460	-0.970
2020/01/31 15:57:47.4	99.880	-0.140	0.450	-1.020
2020/01/31 15:57:47.5	99.880	-0.130	0.430	-1.070
2020/01/31 15:57:47.6	99.880	-0.110	0.400	-1.110
2020/01/31 15:57:47.7	99.870	-0.100	0.370	-1.140
2020/01/31 15:57:47.8	99.860	-0.080	0.340	-1.170
2020/01/31 15:57:47.9	99.850	-0.060	0.300	-1.200
2020/01/31 15:57:48.0	99.840	-0.030	0.260	-1.210
2020/01/31 15:57:48.1	99.830	-0.010	0.220	-1.230
2020/01/31 15:57:48.2	99.820	0.010	0.170	-1.240
2020/01/31 15:57:48.3	99.800	0.040	0.130	-1.240
2020/01/31 15:57:48.4	99.780	0.060	0.080	-1.240
2020/01/31 15:57:48.5	99.760	0.090	0.020	-1.240
2020/01/31 15:57:48.6	99.740	0.110	-0.030	-1.230
2020/01/31 15:57:48.7	99.700	0.140	-0.090	-1.220
2020/01/31 15:57:48.8	99.680	0.160	-0.140	-1.200
2020/01/31 15:57:48.9	99.660	0.180	-0.200	-1.190
2020/01/31 15:57:49.0	99.640	0.210	-0.250	-1.170
2020/01/31 15:57:49.1	99.610	0.230	-0.310	-1.150
2020/01/31 15:57:49.2	99.590	0.250	-0.360	-1.140
2020/01/31 15:57:49.3	99.570	0.260	-0.420	-1.120
2020/01/31 15:57:49.4	99.540	0.280	-0.470	-1.100
2020/01/31 15:57:49.5	99.520	0.290	-0.520	-1.080
2020/01/31 15:57:49.6	99.500	0.300	-0.570	-1.050
2020/01/31 15:57:49.7	99.480	0.310	-0.620	-1.030
2020/01/31 15:57:49.8	99.460	0.320	-0.670	-1.010
2020/01/31 15:57:49.9	99.450	0.330	-0.710	-1.000
2020/01/31 15:57:50.0	99.440	0.330	-0.750	-0.980
2020/01/31 15:57:50.1	99.430	0.330	-0.790	-0.960
2020/01/31 15:57:50.2	99.420	0.330	-0.820	-0.940
2020/01/31 15:57:50.3	99.420	0.320	-0.850	-0.920
2020/01/31 15:57:50.4	99.420	0.320	-0.880	-0.900
2020/01/31 15:57:50.5	99.420	0.310	-0.900	-0.880
2020/01/31 15:57:50.6	99.420	0.300	-0.910	-0.860
2020/01/31 15:57:50.7	99.430	0.280	-0.920	-0.830
2020/01/31 15:57:50.8	99.440	0.270	-0.930	-0.810
2020/01/31 15:57:50.9	99.460	0.250	-0.930	-0.780
2020/01/31 15:57:51.0	99.470	0.230	-0.930	-0.750
2020/01/31 15:57:51.1	99.490	0.210	-0.920	-0.720
2020/01/31 15:57:51.2	99.510	0.190	-0.900	-0.680
2020/01/31 15:57:51.3	99.530	0.170	-0.880	-0.640
2020/01/31 15:57:51.4	99.550	0.150	-0.860	-0.600
2020/01/31 15:57:51.5	99.570	0.120	-0.830	-0.560
2020/01/31 15:57:51.6	99.600	0.100	-0.800	-0.500
2020/01/31 15:57:51.7	99.630	0.070	-0.760	-0.450
2020/01/31 15:57:51.8	99.660	0.040	-0.720	-0.390
2020/01/31 15:57:51.9	99.690	0.020	-0.670	-0.320
2020/01/31 15:57:52.0	99.720	-0.010	-0.630	-0.260
2020/01/31 15:57:52.1	99.750	-0.040	-0.580	-0.180
2020/01/31 15:57:52.2	99.780	-0.060	-0.520	-0.110
2020/01/31 15:57:52.3	99.810	-0.090	-0.470	-0.030
2020/01/31 15:57:52.4	99.840	-0.110	-0.410	0.050
2020/01/31 15:57:52.5	99.880	-0.140	-0.350	0.140
2020/01/31 15:57:52.6	99.910	-0.160	-0.290	0.220
2020/01/31 15:57:52.7	99.940	-0.180	-0.230	0.320
2020/01/31 15:57:52.8	99.980	-0.200	-0.160	0.410
2020/01/31 15:57:52.9	100.010	-0.220	-0.100	0.500
2020/01/31 15:57:53.0	100.040	-0.240	-0.030	0.590
2020/01/31 15:57:53.1	100.070	-0.260	0.030	0.680
2020/01/31 15:57:53.2	100.100	-0.280	0.100	0.770
2020/01/31 15:57:53.3	100.130	-0.290	0.160	0.860
2020/01/31 15:57:53.4	100.160	-0.310	0.220	0.950
2020/01/31 15:57:53.5	100.190	-0.320	0.290	1.040
2020/01/31 15:57:53.6	100.220	-0.330	0.350	1.130
2020/01/31 15:57:53.7	100.250	-0.340	0.410	1.210
2020/01/31 15:57:53.8	100.270	-0.350	0.460	1.300
2020/01/31 15:57:53.9	100.300	-0.360	0.520	1.380
2020/01/31 15:57:54.0	100.320	-0.360	0.570	1.460
2020/01/31 15:57:54.1	100.340	-0.370	0.620	1.540
2020/01/31 15:57:54.2	100.360	-0.370	0.660	1.610
2020/01/31 15:57:54.3	100.370	-0.380	0.700	1.690
2020/01/31 15:57:54.4	100.390	-0.380	0.730	1.760
2020/01/31 15:57:54.5	100.400	-0.380	0.760	1.830
2020/01/31 15:57:54.6	100.410	-0.380	0.790	1.900
2020/01/31 15:57:54.7	100.420	-0.380	0.810	1.970
2020/01/31 15:57:54.8	100.420	-0.370	0.820	2.040
2020/01/31 15:57:54.9	100.420	-0.370	0.830	2.100
2020/01/31 15:57:55.0	100.420	-0.360	0.830	2.160
2020/01/31 15:57:55.1	100.410	-0.360	0.830	2.220
2020/01/31 15:57:55.2	100.400	-0.350	0.820	2.280
2020/01/31 15:57:55.3	100.390	-0.340	0.800	2.340
2020/01/31 15:57:55.4	100.380	-0.330	0.780	2.390
2020/01/31 15:57:55.5	100.360	-0.320	0.760	2.440
2020/01/31 15:57:55.6	100.340	-0.310	0.720	2.490
2020/01/31 15:57:55.7	100.330	-0.290	0.680	2.540
2020/01/31 15:57:55.8	100.310	-0.280	0.640	2.580
2020/01/31 15:57:55.9	100.280	-0.260	0.590	2.630
2020/01/31 15:57:56.0	100.260	-0.250	0.540	2.660
2020/01/31 15:57:56.1	100.240	-0.230	0.480	2.700
2020/01/31 15:57:56.2	100.210	-0.210	0.420	2.730
2020/01/31 15:57:56.3	100.190	-0.200	0.350	2.760
2020/01/31 15:57:56.4	100.170	-0.180	0.280	2.780
2020/01/31 15:57:56.5	100.150	-0.150	0.210	2.800
2020/01/31 15:57:56.6	100.120	-0.130	0.130	2.810
2020/01/31 15:57:56.7	100.110	-0.110	0.050	2.820
2020/01/31 15:57:56.8	100.090	-0.090	-0.030	2.830
2020/01/31 15:57:56.9	100.070	-0.060	-0.110	2.830
2020/01/31 15:57:57.0	100.060	-0.040	-0.200	2.830
2020/01/31 15:57:57.1	100.040	-0.010	-0.280	2.820
2020/01/31 15:57:57.2	100.030	0.010	-0.360	2.800
2020/01/31 15:57:57.3	100.020	0.040	-0.450	2.790
2020/01/31 15:57:57.4	100.010	0.070	-0.530	2.770
2020/01/31 15:57:57.5	100.010	0.090	-0.620	2.740
2020/01/31 15:57:57.6	100.000	0.120	-0.700	2.710
2020/01/31 15:57:57.7	100.010	0.150	-0.770	2.670
2020/01/31 15:57:57.8	100.010	0.180	-0.850	2.630
2020/01/31 15:57:57.9	100.000	0.200	-0.930	2.590
2020/01/31 15:57:58.0	100.000	0.230	-1.000	2.540
2020/01/31 15:57:58.1	100.000	0.260	-1.060	2.490
2020/01/31 15:57:58.2	100.000	0.280	-1.130	2.440
2020/01/31 15:57:58.3	100.010	0.310	-1.190	2.380
2020/01/31 15:57:58.4	100.010	0.330	-1.240	2.310
2020/01/31 15:57:58.5	100.010	0.360	-1.280	2.240
2020/01/31 15:57:58.6	100.020	0.380	-1.330	2.170
2020/01/31 15:57:58.7	100.040	0.400	-1.360	2.100
2020/01/31 15:57:58.8	100.050	0.420	-1.380	2.020
2020/01/31 15:57:58.9	100.050	0.440	-1.400	1.940
2020/01/31 15:57:59.0	100.060	0.450	-1.420	1.860
2020/01/31 15:57:59.1	100.060	0.470	-1.420	1.770
2020/01/31 15:57:59.2	100.070	0.480	-1.420	1.690
2020/01/31 15:57:59.3	100.070	0.490	-1.410	1.600
2020/01/31 15:57:59.4	100.080	0.500	-1.390	1.510
2020/01/31 15:57:59.5	100.080	0.500	-1.360	1.420
2020/01/31 15:57:59.6	100.090	0.500	-1.320	1.330
2020/01/31 15:57:59.7	100.080	0.500	-1.280	1.230
2020/01/31 15:57:59.8	100.090	0.500	-1.230	1.140
2020/01/31 15:57:59.9	100.090	0.490	-1.170	1.050
2020/01/31 15:58:00.0	100.090	0.490	-1.110	0.960
2020/01/31 15:58:00.1	100.090	0.470	-1.040	0.870
2020/01/31 15:58:00.2	100.090	0.460	-0.960	0.780
2020/01/31 15:58:00.3	100.090	0.440	-0.880	0.690
2020/01/31 15:58:00.4	100.090	0.420	-0.790	0.600
2020/01/31 15:58:00.5	100.090	0.390	-0.700	0.510
2020/01/31 15:58:00.6	100.090	0.370	-0.610	0.420
2020/01/31 15:58:00.7	100.080	0.340	-0.510	0.340
2020/01/31 15:58:00.8	100.080	0.310	-0.410	0.250
2020/01/31 15:58:00.9	100.070	0.270	-0.310	0.170
2020/01/31 15:58:01.0	100.070	0.240	-0.210	0.090
2020/01/31 15:58:01.1	100.070	0.200	-0.100	0.010
2020/01/31 15:58:01.2	100.070	0.160	-0.000	-0.060
2020/01/31 15:58:01.3	100.070	0.120	0.100	-0.140
2020/01/31 15:58:01.4	100.070	0.080	0.200	-0.210
2020/01/31 15:58:01.5	100.070	0.040	0.290	-0.280
2020/01/31 15:58:01.6	100.070	0.000	0.380	-0.350
2020/01/31 15:58:01.7	100.060	-0.040	0.480	-0.410
2020/01/31 15:58:01.8	100.060	-0.080	0.560	-0.480
2020/01/31 15:58:01.9	100.060	-0.120	0.630	-0.540
2020/01/31 15:58:02.0	100.060	-0.150	0.700	-0.590
2020/01/31 15:58:02.1	100.060	-0.190	0.770	-0.650
2020/01/31 15:58:02.2	100.060	-0.220	0.820	-0.700
2020/01/31 15:58:02.3	100.060	-0.250	0.870	-0.750
2020/01/31 15:58:02.4	100.050	-0.280	0.910	-0.790
2020/01/31 15:58:02.5	100.050	-0.300	0.940	-0.830
2020/01/31 15:58:02.6	100.050	-0.320	0.960	-0.870
2020/01/31 15:58:02.7	100.020	-0.340	0.970	-0.900
2020/01/31 15:58:02.8	100.020	-0.350	0.980	-0.930
2020/01/31 15:58:02.9	100.010	-0.360	0.970	-0.960
2020/01/31 15:58:03.0	100.010	-0.360	0.950	-0.980
2020/01/31 15:58:03.1	100.000	-0.370	0.930	-1.010
2020/01/31 15:58:03.2	99.990	-0.360	0.900	-1.020
2020/01/31 15:58:03.3	99.990	-0.360	0.860	-1.040
2020/01/31 15:58:03.4	99.980	-0.340	0.810	-1.050
2020/01/31 15:58:03.5	99.970	-0.330	0.750	-1.070
2020/01/31 15:58:03.6	99.960	-0.310	0.690	-1.070
2020/01/31 15:58:03.7	99.950	-0.290	0.620	-1.080
2020/01/31 15:58:03.8	99.940	-0.270	0.540	-1.090
2020/01/31 15:58:03.9	99.930	-0.240	0.460	-1.090
2020/01/31 15:58:04.0	99.920	-0.210	0.380	-1.090
2020/01/31 15:58:04.1	99.910	-0.180	0.290	-1.090
2020/01/31 15:58:04.2	99.900	-0.140	0.200	-1.080
2020/01/31 15:58:04.3	99.900	-0.110	0.110	-1.080
2020/01/31 15:58:04.4	99.890	-0.070	0.020	-1.070
2020/01/31 15:58:04.5	99.880	-0.030	-0.080	-1.060
2020/01/31 15:58:04.6	99.880	0.000	-0.170	-1.050
2020/01/31 15:58:04.7	99.860	0.040	-0.260	-1.030
2020/01/31 15:58:04.8	99.860	0.080	-0.350	-1.010
2020/01/31 15:58:04.9	99.850	0.110	-0.430	-1.000
2020/01/31 15:58:05.0	99.850	0.150	-0.510	-0.980
2020/01/31 15:58:05.1	99.850	0.180	-0.580	-0.960
2020/01/31 15:58:05.2	99.850	0.210	-0.650	-0.930
2020/01/31 15:58:05.3	99.840	0.240	-0.710	-0.910
2020/01/31 15:58:05.4	99.840	0.270	-0.770	-0.880
2020/01/31 15:58:05.5	99.840	0.290	-0.820	-0.850
2020/01/31 15:58:05.6	99.840	0.310	-0.860	-0.820
2020/01/31 15:58:05.7	99.850	0.330	-0.890	-0.790
2020/01/31 15:58:05.8	99.850	0.350	-0.920	-0.750
2020/01/31 15:58:05.9	99.850	0.360	-0.930	-0.710
2020/01/31 15:58:06.0	99.850	0.370	-0.940	-0.670
2020/01/31 15:58:06.1	99.850	0.370	-0.940	-0.620
2020/01/31 15:58:06.2	99.850	0.370	-0.930	-0.570
2020/01/31 15:58:06.3	99.850	0.370	-0.920	-0.520
2020/01/31 15:58:06.4	99.850	0.360	-0.900	-0.470
2020/01/31 15:58:06.5	99.850	0.350	-0.870	-0.410
2020/01/31 15:58:06.6	99.850	0.330	-0.830	-0.350
2020/01/31 15:58:06.7	99.840	0.320	-0.790	-0.290
2020/01/31 15:58:06.8	99.840	0.300	-0.740	-0.220
2020/01/31 15:58:06.9	99.840	0.270	-0.680	-0.160
2020/01/31 15:58:07.0	99.850	0.250	-0.620	-0.090
2020/01/31 15:58:07.1	99.850	0.220	-0.560	-0.020
2020/01/31 15:58:07.2	99.850	0.190	-0.500	0.050
2020/01/31 15:58:07.3	99.850	0.150	-0.430	0.130
2020/01/31 15:58:07.4	99.850	0.120	-0.360	0.200
2020/01/31 15:58:07.5	99.860	0.080	-0.290	0.280
2020/01/31 15:58:07.6	99.860	0.050	-0.220	0.360
2020/01/31 15:58:07.7	99.870	0.010	-0.150	0.440
2020/01/31 15:58:07.8	99.880	-0.030	-0.080	0.510
2020/01/31 15:58:07.9	99.890	-0.070	-0.020	0.590
2020/01/31 15:58:08.0	99.900	-0.110	0.050	0.670
2020/01/31 15:58:08.1	99.910	-0.150	0.110	0.750
2020/01/31 15:58:08.2	99.920	-0.180	0.170	0.820
2020/01/31 15:58:08.3	99.930	-0.220	0.220	0.900
2020/01/31 15:58:08.4	99.950	-0.260	0.270	0.980
2020/01/31 15:58:08.5	99.960	-0.290	0.320	1.050
2020/01/31 15:58:08.6	99.980	-0.320	0.360	1.130
2020/01/31 15:58:08.7	100.000	-0.350	0.400	1.200
2020/01/31 15:58:08.8	100.020	-0.380	0.430	1.270
2020/01/31 15:58:08.9	100.040	-0.410	0.450	1.340
2020/01/31 15:58:09.0	100.050	-0.430	0.470	1.410
2020/01/31 15:58:09.1	100.070	-0.450	0.490	1.480
2020/01/31 15:58:09.2	100.090	-0.470	0.500	1.540
2020/01/31 15:58:09.3	100.100	-0.490	0.510	1.600
2020/01/31 15:58:09.4	100.120	-0.500	0.510	1.660
2020/01/31 15:58:09.5	100.130	-0.510	0.500	1.720
2020/01/31 15:58:09.6	100.140	-0.520	0.490	1.770
2020/01/31 15:58:09.7	100.170	-0.520	0.470	1.830
2020/01/31 15:58:09.8	100.180	-0.530	0.450	1.880
2020/01/31 15:58:09.9	100.180	-0.530	0.430	1.930
2020/01/31 15:58:10.0	100.190	-0.520	0.400	1.980
2020/01/31 15:58:10.1	100.190	-0.520	0.360	2.020
2020/01/31 15:58:10.2	100.200	-0.510	0.320	2.070
2020/01/31 15:58:10.3	100.200	-0.500	0.280	2.110
2020/01/31 15:58:10.4	100.190	-0.490	0.240	2.150
2020/01/31 15:58:10.5	100.190	-0.470	0.190	2.190
2020/01/31 15:58:10.6	100.180	-0.460	0.130	2.220
2020/01/31 15:58:10.7	100.180	-0.440	0.070	2.260
2020/01/31 15:58:10.8	100.170	-0.420	0.020	2.290
2020/01/31 15:58:10.9	100.160	-0.390	-0.040	2.320
2020/01/31 15:58:11.0	100.140	-0.370	-0.100	2.350
2020/01/31 15:58:11.1	100.130	-0.340	-0.160	2.380
2020/01/31 15:58:11.2	100.110	-0.320	-0.220	2.400
2020/01/31 15:58:11.3	100.090	-0.290	-0.290	2.420
2020/01/31 15:58:11.4	100.060	-0.260	-0.350	2.440
2020/01/31 15:58:11.5	100.040	-0.230	-0.410	2.460
2020/01/31 15:58:11.6	100.020	-0.200	-0.470	2.470
2020/01/31 15:58:11.7	99.990	-0.170	-0.530	2.490
2020/01/31 15:58:11.8	99.970	-0.140	-0.590	2.490
2020/01/31 15:58:11.9	99.940	-0.110	-0.650	2.500
2020/01/31 15:58:12.0	99.920	-0.070	-0.700	2.500
2020/01/31 15:58:12.1	99.890	-0.040	-0.760	2.500
2020/01/31 15:58:12.2	99.870	-0.010	-0.810	2.490
2020/01/31 15:58:12.3	99.850	0.020	-0.860	2.480
2020/01/31 15:58:12.4	99.820	0.050	-0.900	2.470
2020/01/31 15:58:12.5	99.800	0.080	-0.940	2.450
2020/01/31 15:58:12.6	99.780	0.110	-0.980	2.430
2020/01/31 15:58:12.7	99.770	0.140	-1.010	2.400
2020/01/31 15:58:12.8	99.750	0.170	-1.030	2.370
2020/01/31 15:58:12.9	99.730	0.190	-1.050	2.340
2020/01/31 15:58:13.0	99.720	0.220	-1.070	2.300
2020/01/31 15:58:13.1	99.710	0.240	-1.080	2.250
2020/01/31 15:58:13.2	99.700	0.270	-1.080	2.200
2020/01/31 15:58:13.3	99.690	0.290	-1.080	2.150
2020/01/31 15:58:13.4	99.680	0.310	-1.070	2.090
2020/01/31 15:58:13.5	99.670	0.320	-1.060	2.030
2020/01/31 15:58:13.6	99.660	0.340	-1.040	1.970
2020/01/31 15:58:13.7	99.680	0.350	-1.020	1.900
2020/01/31 15:58:13.8	99.680	0.370	-0.990	1.830
2020/01/31 15:58:13.9	99.670	0.380	-0.950	1.750
2020/01/31 15:58:14.0	99.670	0.380	-0.910	1.680
2020/01/31 15:58:14.1	99.670	0.390	-0.860	1.590
2020/01/31 15:58:14.2	99.670	0.390	-0.810	1.510
2020/01/31 15:58:14.3	99.670	0.390	-0.760	1.420
2020/01/31 15:58:14.4	99.670	0.390	-0.700	1.330
2020/01/31 15:58:14.5	99.670	0.390	-0.640	1.240
2020/01/31 15:58:14.6	99.670	0.380	-0.570	1.140
2020/01/31 15:58:14.7	99.670	0.380	-0.500	1.050
2020/01/31 15:58:14.8	99.670	0.370	-0.430	0.940
2020/01/31 15:58:14.9	99.680	0.360	-0.360	0.840
2020/01/31 15:58:15.0	99.680	0.340	-0.280	0.740
2020/01/31 15:58:15.1	99.680	0.330	-0.210	0.630
2020/01/31 15:58:15.2	99.690	0.310	-0.140	0.520
2020/01/31 15:58:15.3	99.690	0.300	-0.070	0.410
2020/01/31 15:58:15.4	99.700	0.280	0.000	0.290
2020/01/31 15:58:15.5	99.700	0.260	0.070	0.180
2020/01/31 15:58:15.6	99.710	0.240	0.130	0.060
2020/01/31 15:58:15.7	99.710	0.220	0.200	-0.060
2020/01/31 15:58:15.8	99.720	0.190	0.260	-0.180
2020/01/31 15:58:15.9	99.720	0.170	0.310	-0.300
2020/01/31 15:58:16.0	99.740	0.150	0.360	-0.420
2020/01/31 15:58:16.1	99.750	0.130	0.410	-0.540
2020/01/31 15:58:16.2	99.760	0.110	0.450	-0.660
2020/01/31 15:58:16.3	99.780	0.090	0.480	-0.780
2020/01/31 15:58:16.4	99.790	0.070	0.510	-0.910
2020/01/31 15:58:16.5	99.810	0.050	0.540	-1.020
2020/01/31 15:58:16.6	99.830	0.040	0.560	-1.140
2020/01/31 15:58:16.7	99.830	0.020	0.580	-1.260
2020/01/31 15:58:16.8	99.850	0.010	0.580	-1.370
2020/01/31 15:58:16.9	99.870	-0.010	0.590	-1.480
2020/01/31 15:58:17.0	99.890	-0.020	0.590	-1.590
2020/01/31 15:58:17.1	99.910	-0.030	0.580	-1.690
2020/01/31 15:58:17.2	99.930	-0.040	0.570	-1.790
2020/01/31 15:58:17.3	99.960	-0.050	0.560	-1.880
2020/01/31 15:58:17.4	99.970	-0.060	0.550	-1.960
2020/01/31 15:58:17.5	99.990	-0.060	0.530	-2.040
2020/01/31 15:58:17.6	100.000	-0.070	0.510	-2.110
2020/01/31 15:58:17.7	100.000	-0.080	0.480	-2.170
2020/01/31 15:58:17.8	100.010	-0.080	0.460	-2.230
2020/01/31 15:58:17.9	100.020	-0.090	0.430	-2.270
2020/01/31 15:58:18.0	100.020	-0.090	0.400	-2.310
2020/01/31 15:58:18.1	100.030	-0.100	0.380	-2.340
2020/01/31 15:58:18.2	100.030	-0.100	0.350	-2.350
2020/01/31 15:58:18.3	100.020	-0.100	0.320	-2.360
2020/01/31 15:58:18.4	100.020	-0.110	0.290	-2.360
2020/01/31 15:58:18.5	100.010	-0.110	0.260	-2.360
2020/01/31 15:58:18.6	100.000	-0.110	0.230	-2.340
2020/01/31 15:58:18.7	99.980	-0.110	0.200	-2.310
2020/01/31 15:58:18.8	99.970	-0.120	0.170	-2.280
2020/01/31 15:58:18.9	99.960	-0.120	0.140	-2.240
2020/01/31 15:58:19.0	99.940	-0.120	0.110	-2.190
2020/01/31 15:58:19.1	99.920	-0.120	0.070	-2.140
2020/01/31 15:58:19.2	99.900	-0.130	0.040	-2.070
2020/01/31 15:58:19.3	99.880	-0.130	0.010	-2.010
2020/01/31 15:58:19.4	99.870	-0.130	-0.020	-1.940
2020/01/31 15:58:19.5	99.850	-0.130	-0.050	-1.860
2020/01/31 15:58:19.6	99.830	-0.130	-0.080	-1.770
2020/01/31 15:58:19.7	99.800	-0.130	-0.110	-1.690
2020/01/31 15:58:19.8	99.780	-0.120	-0.140	-1.590
2020/01/31 15:58:19.9	99.770	-0.120	-0.170	-1.500
2020/01/31 15:58:20.0	99.750	-0.120	-0.200	-1.410
2020/01/31 15:58:20.1	99.740	-0.110	-0.230	-1.310
2020/01/31 15:58:20.2	99.730	-0.110	-0.260	-1.210
2020/01/31 15:58:20.3	99.720	-0.100	-0.290	-1.110
2020/01/31 15:58:20.4	99.720	-0.100	-0.310	-1.000
2020/01/31 15:58:20.5	99.710	-0.090	-0.340	-0.900
2020/01/31 15:58:20.6	99.710	-0.080	-0.370	-0.800
2020/01/31 15:58:20.7	99.700	-0.070	-0.400	-0.690
2020/01/31 15:58:20.8	99.700	-0.060	-0.430	-0.590
2020/01/31 15:58:20.9	99.700	-0.050	-0.450	-0.490
2020/01/31 15:58:21.0	99.700	-0.030	-0.480	-0.390
2020/01/31 15:58:21.1	99.700	-0.020	-0.500	-0.290
2020/01/31 15:58:21.2	99.700	-0.000	-0.520	-0.190
2020/01/31 15:58:21.3	99.700	0.010	-0.550	-0.090
2020/01/31 15:58:21.4	99.700	0.030	-0.570	0.010
2020/01/31 15:58:21.5	99.710	0.040	-0.590	0.110
2020/01/31 15:58:21.6	99.710	0.060	-0.610	0.210
2020/01/31 15:58:21.7	99.700	0.080	-0.620	0.320
2020/01/31 15:58:21.8	99.700	0.090	-0.640	0.420
2020/01/31 15:58:21.9	99.700	0.110	-0.650	0.510
2020/01/31 15:58:22.0	99.700	0.130	-0.660	0.610
2020/01/31 15:58:22.1	99.700	0.140	-0.670	0.710
2020/01/31 15:58:22.2	99.700	0.160	-0.680	0.810
2020/01/31 15:58:22.3	99.700	0.170	-0.690	0.910
2020/01/31 15:58:22.4	99.700	0.180	-0.690	1.010
2020/01/31 15:58:22.5	99.690	0.200	-0.690	1.110
2020/01/31 15:58:22.6	99.690	0.210	-0.690	1.210
2020/01/31 15:58:22.7	99.710	0.220	-0.690	1.310
2020/01/31 15:58:22.8	99.700	0.230	-0.680	1.410
2020/01/31 15:58:22.9	99.700	0.240	-0.680	1.510
2020/01/31 15:58:23.0	99.690	0.240	-0.670	1.610
2020/01/31 15:58:23.1	99.690	0.250	-0.660	1.710
2020/01/31 15:58:23.2	99.680	0.250	-0.650	1.800
2020/01/31 15:58:23.3	99.680	0.250	-0.640	1.900
2020/01/31 15:58:23.4	99.670	0.250	-0.630	2.000
2020/01/31 15:58:23.5	99.660	0.250	-0.610	2.090
2020/01/31 15:58:23.6	99.660	0.250	-0.600	2.180
2020/01/31 15:58:23.7	99.660	0.250	-0.580	2.280
2020/01/31 15:58:23.8	99.660	0.240	-0.560	2.370
2020/01/31 15:58:23.9	99.650	0.230	-0.540	2.460
2020/01/31 15:58:24.0	99.640	0.220	-0.520	2.550
2020/01/31 15:58:24.1	99.630	0.210	-0.490	2.630
2020/01/31 15:58:24.2	99.630	0.200	-0.470	2.710
2020/01/31 15:58:24.3	99.620	0.190	-0.440	2.790
2020/01/31 15:58:24.4	99.610	0.170	-0.410	2.860
2020/01/31 15:58:24.5	99.610	0.150	-0.380	2.930
2020/01/31 15:58:24.6	99.600	0.140	-0.350	3.000
2020/01/31 15:58:24.7	99.610	0.120	-0.310	3.050
2020/01/31 15:58:24.8	99.600	0.100	-0.280	3.110
2020/01/31 15:58:24.9	99.590	0.080	-0.240	3.160
2020/01/31 15:58:25.0	99.590	0.060	-0.200	3.200
2020/01/31 15:58:25.1	99.580	0.030	-0.160	3.230
2020/01/31 15:58:25.2	99.580	0.010	-0.120	3.260
2020/01/31 15:58:25.3	99.570	-0.010	-0.080	3.280
2020/01/31 15:58:25.4	99.570	-0.040	-0.030	3.300
2020/01/31 15:58:25.5	99.560	-0.060	0.010	3.310
2020/01/31 15:58:25.6	99.560	-0.080	0.050	3.310
2020/01/31 15:58:25.7	99.560	-0.110	0.100	3.310
2020/01/31 15:58:25.8	99.550	-0.130	0.140	3.300
2020/01/31 15:58:25.9	99.550	-0.150	0.180	3.280
2020/01/31 15:58:26.0	99.540	-0.170	0.220	3.250
2020/01/31 15:58:26.1	99.530	-0.190	0.260	3.220
2020/01/31 15:58:26.2	99.530	-0.210	0.290	3.180
2020/01/31 15:58:26.3	99.520	-0.230	0.320	3.140
2020/01/31 15:58:26.4	99.510	-0.240	0.350	3.090
2020/01/31 15:58:26.5	99.500	-0.260	0.380	3.030
2020/01/31 15:58:26.6	99.490	-0.270	0.400	2.970
2020/01/31 15:58:26.7	99.490	-0.290	0.420	2.900
2020/01/31 15:58:26.8	99.480	-0.300	0.440	2.830
2020/01/31 15:58:26.9	99.470	-0.300	0.450	2.750
2020/01/31 15:58:27.0	99.460	-0.310	0.460	2.670
2020/01/31 15:58:27.1	99.450	-0.320	0.460	2.580
2020/01/31 15:58:27.2	99.440	-0.320	0.460	2.490
2020/01/31 15:58:27.3	99.420	-0.320	0.450	2.400
2020/01/31 15:58:27.4	99.410	-0.320	0.440	2.310
2020/01/31 15:58:27.5	99.400	-0.320	0.430	2.210
2020/01/31 15:58:27.6	99.390	-0.320	0.420	2.110
2020/01/31 15:58:27.7	99.380	-0.320	0.400	2.000
2020/01/31 15:58:27.8	99.360	-0.310	0.380	1.900
2020/01/31 15:58:27.9	99.350	-0.300	0.350	1.790
2020/01/31 15:58:28.0	99.340	-0.290	0.330	1.680
2020/01/31 15:58:28.1	99.320	-0.290	0.300	1.570
2020/01/31 15:58:28.2	99.310	-0.270	0.270	1.470
2020/01/31 15:58:28.3	99.290	-0.260	0.230	1.360
2020/01/31 15:58:28.4	99.270	-0.250	0.200	1.250
2020/01/31 15:58:28.5	99.260	-0.240	0.160	1.140
2020/01/31 15:58:28.6	99.240	-0.220	0.130	1.030
2020/01/31 15:58:28.7	99.210	-0.210	0.090	0.910
2020/01/31 15:58:28.8	99.200	-0.190	0.050	0.800
2020/01/31 15:58:28.9	99.180	-0.180	0.020	0.690
2020/01/31 15:58:29.0	99.160	-0.160	-0.020	0.580
2020/01/31 15:58:29.1	99.140	-0.150	-0.060	0.470
2020/01/31 15:58:29.2	99.120	-0.130	-0.100	0.360
2020/01/31 15:58:29.3	99.100	-0.120	-0.130	0.250
2020/01/31 15:58:29.4	99.090	-0.100	-0.170	0.140
2020/01/31 15:58:29.5	99.070	-0.090	-0.210	0.030
2020/01/31 15:58:29.6	99.060	-0.070	-0.240	-0.070
2020/01/31 15:58:29.7	99.020	-0.060	-0.280	-0.190
2020/01/31 15:58:29.8	99.010	-0.050	-0.320	-0.300
2020/01/31 15:58:29.9	99.000	-0.030	-0.350	-0.400
2020/01/31 15:58:30.0	98.990	-0.020	-0.390	-0.510
2020/01/31 15:58:30.1	98.980	-0.010	-0.420	-0.620
2020/01/31 15:58:30.2	98.970	0.010	-0.460	-0.720
2020/01/31 15:58:30.3	98.970	0.020	-0.490	-0.820
2020/01/31 15:58:30.4	98.970	0.030	-0.520	-0.920
2020/01/31 15:58:30.5	98.960	0.040	-0.560	-1.020
2020/01/31 15:58:30.6	98.970	0.050	-0.590	-1.110
2020/01/31 15:58:30.7	98.960	0.060	-0.620	-1.200
2020/01/31 15:58:30.8	98.960	0.070	-0.650	-1.280
2020/01/31 15:58:30.9	98.970	0.080	-0.670	-1.360
2020/01/31 15:58:31.0	98.970	0.090	-0.700	-1.440
2020/01/31 15:58:31.1	98.980	0.100	-0.720	-1.500
2020/01/31 15:58:31.2	98.980	0.110	-0.750	-1.570
2020/01/31 15:58:31.3	98.990	0.110	-0.770	-1.620
2020/01/31 15:58:31.4	99.000	0.120	-0.790	-1.670
2020/01/31 15:58:31.5	99.000	0.130	-0.800	-1.720
2020/01/31 15:58:31.6	99.010	0.130	-0.820	-1.750
2020/01/31 15:58:31.7	99.000	0.140	-0.830	-1.780
2020/01/31 15:58:31.8	99.000	0.140	-0.830	-1.810
2020/01/31 15:58:31.9	99.010	0.150	-0.840	-1.830
2020/01/31 15:58:32.0	99.010	0.150	-0.840	-1.840
2020/01/31 15:58:32.1	99.010	0.160	-0.830	-1.840
2020/01/31 15:58:32.2	99.010	0.160	-0.820	-1.840
2020/01/31 15:58:32.3	99.010	0.160	-0.810	-1.840
2020/01/31 15:58:32.4	99.010	0.160	-0.790	-1.830
2020/01/31 15:58:32.5	99.000	0.160	-0.770	-1.810
2020/01/31 15:58:32.6	98.990	0.160	-0.740	-1.790
2020/01/31 15:58:32.7	98.970	0.160	-0.710	-1.760
2020/01/31 15:58:32.8	98.960	0.160	-0.680	-1.730
2020/01/31 15:58:32.9	98.950	0.150	-0.640	-1.700
2020/01/31 15:58:33.0	98.930	0.150	-0.600	-1.660
2020/01/31 15:58:33.1	98.920	0.150	-0.550	-1.620
2020/01/31 15:58:33.2	98.900	0.140	-0.500	-1.580
2020/01/31 15:58:33.3	98.880	0.140	-0.450	-1.530
2020/01/31 15:58:33.4	98.860	0.130	-0.400	-1.480
2020/01/31 15:58:33.5	98.840	0.120	-0.340	-1.430
2020/01/31 15:58:33.6	98.820	0.110	-0.280	-1.370
2020/01/31 15:58:33.7	98.790	0.110	-0.220	-1.300
2020/01/31 15:58:33.8	98.770	0.100	-0.160	-1.240
2020/01/31 15:58:33.9	98.740	0.090	-0.100	-1.170
2020/01/31 15:58:34.0	98.710	0.080	-0.040	-1.100
2020/01/31 15:58:34.1	98.680	0.070	0.010	-1.030
2020/01/31 15:58:34.2	98.650	0.070	0.070	-0.950
2020/01/31 15:58:34.3	98.620	0.060	0.120	-0.870
2020/01/31 15:58:34.4	98.590	0.050	0.170	-0.790
2020/01/31 15:58:34.5	98.560	0.040	0.220	-0.710
2020/01/31 15:58:34.6	98.520	0.040	0.260	-0.620
2020/01/31 15:58:34.7	98.500	0.030	0.300	-0.530
2020/01/31 15:58:34.8	98.470	0.030	0.340	-0.440
2020/01/31 15:58:34.9	98.440	0.020	0.360	-0.350
2020/01/31 15:58:35.0	98.400	0.020	0.390	-0.260
2020/01/31 15:58:35.1	98.370	0.010	0.410	-0.170
2020/01/31 15:58:35.2	98.340	0.010	0.420	-0.080
2020/01/31 15:58:35.3	98.310	0.010	0.430	0.020
2020/01/31 15:58:35.4	98.280	0.010	0.440	0.110
2020/01/31 15:58:35.5	98.250	0.010	0.440	0.200
2020/01/31 15:58:35.6	98.230	0.010	0.440	0.290
2020/01/31 15:58:35.7	98.210	0.010	0.430	0.380
2020/01/31 15:58:35.8	98.180	0.020	0.420	0.470
2020/01/31 15:58:35.9	98.160	0.020	0.400	0.560
2020/01/31 15:58:36.0	98.140	0.020	0.390	0.640
2020/01/31 15:58:36.1	98.130	0.030	0.360	0.730
2020/01/31 15:58:36.2	98.110	0.030	0.340	0.810
2020/01/31 15:58:36.3	98.100	0.040	0.320	0.880
2020/01/31 15:58:36.4	98.090	0.050	0.290	0.960
2020/01/31 15:58:36.5	98.080	0.050	0.260	1.030
2020/01/31 15:58:36.6	98.070	0.060	0.230	1.110
2020/01/31 15:58:36.7	98.070	0.060	0.200	1.180
2020/01/31 15:58:36.8	98.070	0.070	0.160	1.240
2020/01/31 15:58:36.9	98.070	0.080	0.130	1.310
2020/01/31 15:58:37.0	98.070	0.080	0.100	1.370
2020/01/31 15:58:37.1	98.070	0.090	0.070	1.430
2020/01/31 15:58:37.2	98.070	0.090	0.040	1.490
2020/01/31 15:58:37.3	98.080	0.100	0.000	1.540
2020/01/31 15:58:37.4	98.080	0.100	-0.030	1.590
2020/01/31 15:58:37.5	98.090	0.110	-0.060	1.650
2020/01/31 15:58:37.6	98.090	0.110	-0.090	1.690
2020/01/31 15:58:37.7	98.120	0.110	-0.110	1.740
2020/01/31 15:58:37.8	98.130	0.110	-0.140	1.790
2020/01/31 15:58:37.9	98.140	0.110	-0.170	1.820
2020/01/31 15:58:38.0	98.150	0.110	-0.190	1.860
2020/01/31 15:58:38.1	98.160	0.110	-0.210	1.890
2020/01/31 15:58:38.2	98.180	0.110	-0.230	1.920
2020/01/31 15:58:38.3	98.190	0.110	-0.250	1.950
2020/01/31 15:58:38.4	98.200	0.110	-0.270	1.970
2020/01/31 15:58:38.5	98.220	0.100	-0.290	1.990
2020/01/31 15:58:38.6	98.230	0.100	-0.310	2.010
2020/01/31 15:58:38.7	98.260	0.090	-0.320	2.020
2020/01/31 15:58:38.8	98.270	0.090	-0.330	2.030
2020/01/31 15:58:38.9	98.290	0.080	-0.340	2.040
2020/01/31 15:58:39.0	98.300	0.080	-0.360	2.040
2020/01/31 15:58:39.1	98.320	0.070	-0.370	2.040
2020/01/31 15:58:39.2	98.330	0.070	-0.380	2.040
2020/01/31 15:58:39.3	98.350	0.060	-0.380	2.040
2020/01/31 15:58:39.4	98.360	0.060	-0.390	2.030
2020/01/31 15:58:39.5	98.370	0.050	-0.400	2.030
2020/01/31 15:58:39.6	98.380	0.040	-0.400	2.020
2020/01/31 15:58:39.7	98.390	0.040	-0.410	2.010
2020/01/31 15:58:39.8	98.400	0.030	-0.420	2.000
2020/01/31 15:58:39.9	98.400	0.030	-0.420	1.990
2020/01/31 15:58:40.0	98.400	0.020	-0.430	1.970
2020/01/31 15:58:40.1	98.390	0.020	-0.430	1.960
2020/01/31 15:58:40.2	98.390	0.010	-0.430	1.950
2020/01/31 15:58:40.3	98.380	0.010	-0.430	1.940
2020/01/31 15:58:40.4	98.370	0.000	-0.440	1.920
2020/01/31 15:58:40.5	98.360	0.000	-0.440	1.910
2020/01/31 15:58:40.6	98.340	-0.000	-0.440	1.900
2020/01/31 15:58:40.7	98.320	-0.010	-0.430	1.880
2020/01/31 15:58:40.8	98.300	-0.010	-0.430	1.870
2020/01/31 15:58:40.9	98.280	-0.010	-0.430	1.860
2020/01/31 15:58:41.0	98.250	-0.020	-0.420	1.850
2020/01/31 15:58:41.1	98.230	-0.020	-0.420	1.830
2020/01/31 15:58:41.2	98.200	-0.020	-0.410	1.820
2020/01/31 15:58:41.3	98.170	-0.030	-0.410	1.810
2020/01/31 15:58:41.4	98.130	-0.030	-0.400	1.800
2020/01/31 15:58:41.5	98.100	-0.030	-0.390	1.790
2020/01/31 15:58:41.6	98.070	-0.030	-0.380	1.770
2020/01/31 15:58:41.7	98.040	-0.040	-0.370	1.760
2020/01/31 15:58:41.8	98.000	-0.040	-0.360	1.740
2020/01/31 15:58:41.9	97.970	-0.040	-0.350	1.730
2020/01/31 15:58:42.0	97.940	-0.040	-0.340	1.710
2020/01/31 15:58:42.1	97.910	-0.040	-0.330	1.690
2020/01/31 15:58:42.2	97.880	-0.050	-0.320	1.670
2020/01/31 15:58:42.3	97.850	-0.050	-0.310	1.650
2020/01/31 15:58:42.4	97.830	-0.050	-0.290	1.620
2020/01/31 15:58:42.5	97.800	-0.050	-0.280	1.590
2020/01/31 15:58:42.6	97.780	-0.050	-0.270	1.560
2020/01/31 15:58:42.7	97.770	-0.050	-0.260	1.530
2020/01/31 15:58:42.8	97.750	-0.050	-0.250	1.490
2020/01/31 15:58:42.9	97.740	-0.050	-0.240	1.450
2020/01/31 15:58:43.0	97.730	-0.050	-0.230	1.410
2020/01/31 15:58:43.1	97.730	-0.050	-0.210	1.360
2020/01/31 15:58:43.2	97.730	-0.050	-0.200	1.310
2020/01/31 15:58:43.3	97.730	-0.040	-0.190	1.260
2020/01/31 15:58:43.4	97.730	-0.040	-0.180	1.200
2020/01/31 15:58:43.5	97.740	-0.040	-0.170	1.140
2020/01/31 15:58:43.6	97.750	-0.040	-0.160	1.080
2020/01/31 15:58:43.7	97.760	-0.040	-0.140	1.010
2020/01/31 15:58:43.8	97.780	-0.040	-0.130	0.940
2020/01/31 15:58:43.9	97.800	-0.030	-0.120	0.870
2020/01/31 15:58:44.0	97.810	-0.030	-0.110	0.790
2020/01/31 15:58:44.1	97.830	-0.030	-0.100	0.720
2020/01/31 15:58:44.2	97.850	-0.030	-0.090	0.640
2020/01/31 15:58:44.3	97.870	-0.030	-0.080	0.560
2020/01/31 15:58:44.4	97.890	-0.030	-0.070	0.480
2020/01/31 15:58:44.5	97.910	-0.040	-0.060	0.390
2020/01/31 15:58:44.6	97.930	-0.040	-0.050	0.310
2020/01/31 15:58:44.7	97.950	-0.040	-0.040	0.220
2020/01/31 15:58:44.8	97.970	-0.050	-0.030	0.130
2020/01/31 15:58:44.9	97.990	-0.050	-0.020	0.050
2020/01/31 15:58:45.0	98.000	-0.050	-0.010	-0.040
2020/01/31 15:58:45.1	98.010	-0.060	0.010	-0.130
2020/01/31 15:58:45.2	98.020	-0.070	0.020	-0.210
2020/01/31 15:58:45.3	98.030	-0.070	0.030	-0.300
2020/01/31 15:58:45.4	98.030	-0.080	0.040	-0.380
2020/01/31 15:58:45.5	98.040	-0.090	0.050	-0.460
2020/01/31 15:58:45.6	98.040	-0.100	0.070	-0.530
2020/01/31 15:58:45.7	98.030	-0.110	0.090	-0.610
2020/01/31 15:58:45.8	98.020	-0.120	0.100	-0.680
2020/01/31 15:58:45.9	98.020	-0.130	0.110	-0.740
2020/01/31 15:58:46.0	98.010	-0.140	0.120	-0.810
2020/01/31 15:58:46.1	98.000	-0.150	0.140	-0.860
2020/01/31 15:58:46.2	97.980	-0.160	0.150	-0.920
2020/01/31 15:58:46.3	97.970	-0.170	0.160	-0.970
2020/01/31 15:58:46.4	97.950	-0.180	0.160	-1.010
2020/01/31 15:58:46.5	97.930	-0.190	0.170	-1.050
2020/01/31 15:58:46.6	97.910	-0.200	0.180	-1.090
2020/01/31 15:58:46.7	97.880	-0.210	0.180	-1.120
2020/01/31 15:58:46.8	97.860	-0.210	0.180	-1.150
2020/01/31 15:58:46.9	97.840	-0.220	0.180	-1.170
2020/01/31 15:58:47.0	97.830	-0.230	0.180	-1.190
2020/01/31 15:58:47.1	97.810	-0.230	0.170	-1.200
2020/01/31 15:58:47.2	97.790	-0.230	0.160	-1.210
2020/01/31 15:58:47.3	97.780	-0.230	0.150	-1.220
2020/01/31 15:58:47.4	97.760	-0.230	0.140	-1.220
2020/01/31 15:58:47.5	97.750	-0.220	0.120	-1.220
2020/01/31 15:58:47.6	97.740	-0.220	0.100	-1.220
2020/01/31 15:58:47.7	97.720	-0.210	0.070	-1.200
2020/01/31 15:58:47.8	97.720	-0.200	0.050	-1.190
2020/01/31 15:58:47.9	97.710	-0.190	0.020	-1.180
2020/01/31 15:58:48.0	97.710	-0.180	-0.010	-1.170
2020/01/31 15:58:48.1	97.720	-0.170	-0.050	-1.150
2020/01/31 15:58:48.2	97.720	-0.150	-0.090	-1.130
2020/01/31 15:58:48.3	97.730	-0.130	-0.130	-1.100
2020/01/31 15:58:48.4	97.730	-0.110	-0.170	-1.080
2020/01/31 15:58:48.5	97.740	-0.090	-0.210	-1.050
2020/01/31 15:58:48.6	97.760	-0.070	-0.260	-1.010
2020/01/31 15:58:48.7	97.780	-0.050	-0.300	-0.980
2020/01/31 15:58:48.8	97.790	-0.020	-0.350	-0.940
2020/01/31 15:58:48.9	97.810	0.000	-0.400	-0.900
2020/01/31 15:58:49.0	97.830	0.030	-0.440	-0.860
2020/01/31 15:58:49.1	97.850	0.050	-0.490	-0.820
2020/01/31 15:58:49.2	97.870	0.080	-0.530	-0.770
2020/01/31 15:58:49.3	97.890	0.100	-0.580	-0.720
2020/01/31 15:58:49.4	97.910	0.130	-0.620	-0.670
2020/01/31 15:58:49.5	97.940	0.150	-0.660	-0.610
2020/01/31 15:58:49.6	97.960	0.180	-0.700	-0.560
2020/01/31 15:58:49.7	97.970	0.200	-0.730	-0.490
2020/01/31 15:58:49.8	98.000	0.220	-0.760	-0.430
2020/01/31 15:58:49.9	98.020	0.240	-0.790	-0.370
2020/01/31 15:58:50.0	98.040	0.260	-0.810	-0.310
2020/01/31 15:58:50.1	98.070	0.270	-0.830	-0.240
2020/01/31 15:58:50.2	98.090	0.290	-0.840	-0.180
2020/01/31 15:58:50.3	98.110	0.300	-0.850	-0.110
2020/01/31 15:58:50.4	98.130	0.310	-0.850	-0.040
2020/01/31 15:58:50.5	98.140	0.320	-0.840	0.040
2020/01/31 15:58:50.6	98.160	0.330	-0.830	0.110
2020/01/31 15:58:50.7	98.180	0.330	-0.820	0.180
2020/01/31 15:58:50.8	98.190	0.330	-0.800	0.260
2020/01/31 15:58:50.9	98.200	0.330	-0.770	0.340
2020/01/31 15:58:51.0	98.200	0.330	-0.740	0.420
2020/01/31 15:58:51.1	98.210	0.320	-0.700	0.500
2020/01/31 15:58:51.2	98.210	0.310	-0.660	0.570
2020/01/31 15:58:51.3	98.210	0.300	-0.620	0.650
2020/01/31 15:58:51.4	98.210	0.290	-0.570	0.730
2020/01/31 15:58:51.5	98.200	0.270	-0.520	0.810
2020/01/31 15:58:51.6	98.190	0.250	-0.460	0.890
2020/01/31 15:58:51.7	98.200	0.230	-0.400	0.980
2020/01/31 15:58:51.8	98.190	0.210	-0.350	1.060
2020/01/31 15:58:51.9	98.170	0.190	-0.280	1.140
2020/01/31 15:58:52.0	98.150	0.160	-0.220	1.220
2020/01/31 15:58:52.1	98.130	0.140	-0.160	1.300
2020/01/31 15:58:52.2	98.110	0.110	-0.100	1.380
2020/01/31 15:58:52.3	98.080	0.090	-0.040	1.460
2020/01/31 15:58:52.4	98.060	0.060	0.020	1.530
2020/01/31 15:58:52.5	98.030	0.040	0.080	1.610
2020/01/31 15:58:52.6	98.000	0.010	0.130	1.680
2020/01/31 15:58:52.7	97.990	-0.020	0.190	1.760
2020/01/31 15:58:52.8	97.960	-0.040	0.240	1.830
2020/01/31 15:58:52.9	97.930	-0.060	0.280	1.900
2020/01/31 15:58:53.0	97.900	-0.090	0.320	1.970
2020/01/31 15:58:53.1	97.880	-0.110	0.360	2.030
2020/01/31 15:58:53.2	97.850	-0.130	0.390	2.090
2020/01/31 15:58:53.3	97.830	-0.150	0.420	2.150
2020/01/31 15:58:53.4	97.800	-0.160	0.440	2.210
2020/01/31 15:58:53.5	97.780	-0.180	0.460	2.260
2020/01/31 15:58:53.6	97.770	-0.190	0.470	2.310
2020/01/31 15:58:53.7	97.760	-0.210	0.480	2.360
2020/01/31 15:58:53.8	97.750	-0.220	0.480	2.390
2020/01/31 15:58:53.9	97.740	-0.230	0.480	2.430
2020/01/31 15:58:54.0	97.730	-0.240	0.480	2.460
2020/01/31 15:58:54.1	97.720	-0.240	0.470	2.480
2020/01/31 15:58:54.2	97.710	-0.250	0.450	2.500
2020/01/31 15:58:54.3	97.710	-0.250	0.440	2.510
2020/01/31 15:58:54.4	97.700	-0.260	0.420	2.520
2020/01/31 15:58:54.5	97.700	-0.260	0.390	2.530
2020/01/31 15:58:54.6	97.700	-0.260	0.370	2.520
2020/01/31 15:58:54.7	97.710	-0.260	0.340	2.520
2020/01/31 15:58:54.8	97.710	-0.270	0.310	2.500
2020/01/31 15:58:54.9	97.720	-0.270	0.280	2.490
2020/01/31 15:58:55.0	97.730	-0.270	0.250	2.460
2020/01/31 15:58:55.1	97.740	-0.260	0.220	2.430
2020/01/31 15:58:55.2	97.750	-0.260	0.180	2.400
2020/01/31 15:58:55.3	97.760	-0.260	0.150	2.360
2020/01/31 15:58:55.4	97.780	-0.260	0.110	2.310
2020/01/31 15:58:55.5	97.790	-0.260	0.080	2.260
2020/01/31 15:58:55.6	97.810	-0.260	0.040	2.210
2020/01/31 15:58:55.7	97.820	-0.260	0.010	2.150
2020/01/31 15:58:55.8	97.840	-0.250	-0.030	2.090
2020/01/31 15:58:55.9	97.860	-0.250	-0.060	2.030
2020/01/31 15:58:56.0	97.880	-0.250	-0.100	1.960
2020/01/31 15:58:56.1	97.900	-0.240	-0.130	1.890
2020/01/31 15:58:56.2	97.920	-0.240	-0.160	1.820
2020/01/31 15:58:56.3	97.940	-0.240	-0.200	1.740
2020/01/31 15:58:56.4	97.960	-0.230	-0.230	1.670
2020/01/31 15:58:56.5	97.980	-0.230	-0.260	1.590
2020/01/31 15:58:56.6	98.000	-0.220	-0.290	1.510
2020/01/31 15:58:56.7	98.020	-0.210	-0.310	1.430
2020/01/31 15:58:56.8	98.040	-0.210	-0.340	1.350
2020/01/31 15:58:56.9	98.050	-0.200	-0.360	1.270
2020/01/31 15:58:57.0	98.070	-0.190	-0.390	1.190
2020/01/31 15:58:57.1	98.090	-0.180	-0.410	1.110
2020/01/31 15:58:57.2	98.100	-0.170	-0.430	1.030
2020/01/31 15:58:57.3	98.120	-0.160	-0.450	0.940
2020/01/31 15:58:57.4	98.130	-0.150	-0.470	0.870
2020/01/31 15:58:57.5	98.140	-0.130	-0.490	0.790
2020/01/31 15:58:57.6	98.150	-0.120	-0.510	0.710
2020/01/31 15:58:57.7	98.160	-0.100	-0.520	0.630
2020/01/31 15:58:57.8	98.170	-0.090	-0.540	0.560
2020/01/31 15:58:57.9	98.170	-0.070	-0.550	0.480
2020/01/31 15:58:58.0	98.180	-0.050	-0.560	0.410
2020/01/31 15:58:58.1	98.180	-0.040	-0.570	0.330
2020/01/31 15:58:58.2	98.180	-0.020	-0.580	0.260
2020/01/31 15:58:58.3	98.180	0.000	-0.580	0.190
2020/01/31 15:58:58.4	98.180	0.020	-0.590	0.120
2020/01/31 15:58:58.5	98.180	0.040	-0.590	0.060
2020/01/31 15:58:58.6	98.170	0.070	-0.590	-0.010
2020/01/31 15:58:58.7	98.150	0.090	-0.590	-0.070
2020/01/31 15:58:58.8	98.150	0.110	-0.590	-0.130
2020/01/31 15:58:58.9	98.140	0.140	-0.590	-0.190
2020/01/31 15:58:59.0	98.130	0.160	-0.580	-0.250
2020/01/31 15:58:59.1	98.110	0.180	-0.580	-0.300
2020/01/31 15:58:59.2	98.100	0.210	-0.580	-0.350
2020/01/31 15:58:59.3	98.080	0.230	-0.570	-0.400
2020/01/31 15:58:59.4	98.070	0.250	-0.570	-0.450
2020/01/31 15:58:59.5	98.050	0.280	-0.560	-0.490
2020/01/31 15:58:59.6	98.030	0.300	-0.560	-0.530
2020/01/31 15:58:59.7	98.020	0.320	-0.550	-0.570
2020/01/31 15:58:59.8	98.000	0.340	-0.540	-0.610
2020/01/31 15:58:59.9	97.980	0.360	-0.530	-0.640
2020/01/31 15:59:00.0	97.960	0.380	-0.530	-0.680
2020/01/31 15:59:00.1	97.940	0.400	-0.520	-0.710
2020/01/31 15:59:00.2	97.920	0.420	-0.510	-0.740
2020/01/31 15:59:00.3	97.910	0.430	-0.500	-0.760
2020/01/31 15:59:00.4	97.900	0.440	-0.490	-0.790
2020/01/31 15:59:00.5	97.890	0.450	-0.480	-0.810
2020/01/31 15:59:00.6	97.880	0.460	-0.470	-0.840
2020/01/31 15:59:00.7	97.860	0.470	-0.460	-0.850
2020/01/31 15:59:00.8	97.860	0.480	-0.440	-0.870
2020/01/31 15:59:00.9	97.850	0.480	-0.430	-0.890
2020/01/31 15:59:01.0	97.860	0.480	-0.410	-0.910
2020/01/31 15:59:01.1	97.860	0.480	-0.400	-0.920
2020/01/31 15:59:01.2	97.860	0.470	-0.380	-0.930
2020/01/31 15:59:01.3	97.870	0.460	-0.360	-0.940
2020/01/31 15:59:01.4	97.880	0.450	-0.340	-0.950
2020/01/31 15:59:01.5	97.890	0.440	-0.320	-0.960
2020/01/31 15:59:01.6	97.900	0.430	-0.290	-0.960
2020/01/31 15:59:01.7	97.910	0.410	-0.260	-0.960
2020/01/31 15:59:01.8	97.920	0.390	-0.240	-0.960
2020/01/31 15:59:01.9	97.940	0.370	-0.210	-0.950
2020/01/31 15:59:02.0	97.950	0.350	-0.170	-0.940
2020/01/31 15:59:02.1	97.960	0.320	-0.140	-0.930
2020/01/31 15:59:02.2	97.980	0.300	-0.100	-0.920
2020/01/31 15:59:02.3	97.990	0.270	-0.060	-0.900
2020/01/31 15:59:02.4	98.000	0.240	-0.020	-0.880
2020/01/31 15:59:02.5	98.020	0.210	0.020	-0.850
2020/01/31 15:59:02.6	98.030	0.180	0.070	-0.820
2020/01/31 15:59:02.7	98.040	0.140	0.110	-0.780
2020/01/31 15:59:02.8	98.050	0.110	0.160	-0.750
2020/01/31 15:59:02.9	98.060	0.070	0.210	-0.710
2020/01/31 15:59:03.0	98.070	0.040	0.260	-0.660
2020/01/31 15:59:03.1	98.080	0.000	0.310	-0.620
2020/01/31 15:59:03.2	98.080	-0.040	0.360	-0.560
2020/01/31 15:59:03.3	98.090	-0.070	0.400	-0.510
2020/01/31 15:59:03.4	98.090	-0.110	0.450	-0.450
2020/01/31 15:59:03.5	98.090	-0.150	0.500	-0.390
2020/01/31 15:59:03.6	98.090	-0.180	0.540	-0.330
2020/01/31 15:59:03.7	98.090	-0.220	0.580	-0.250
2020/01/31 15:59:03.8	98.090	-0.260	0.620	-0.180
2020/01/31 15:59:03.9	98.080	-0.290	0.660	-0.110
2020/01/31 15:59:04.0	98.080	-0.320	0.690	-0.040
2020/01/31 15:59:04.1	98.070	-0.350	0.710	0.040
2020/01/31 15:59:04.2	98.060	-0.380	0.730	0.120
2020/01/31 15:59:04.3	98.050	-0.410	0.750	0.200
2020/01/31 15:59:04.4	98.040	-0.440	0.750	0.280
2020/01/31 15:59:04.5	98.030	-0.460	0.760	0.360
2020/01/31 15:59:04.6	98.020	-0.480	0.750	0.440
2020/01/31 15:59:04.7	98.020	-0.500	0.740	0.530
2020/01/31 15:59:04.8	98.010	-0.520	0.720	0.610
2020/01/31 15:59:04.9	97.990	-0.530	0.700	0.690
2020/01/31 15:59:05.0	97.980	-0.540	0.660	0.760
2020/01/31 15:59:05.1	97.970	-0.550	0.620	0.840
2020/01/31 15:59:05.2	97.960	-0.560	0.580	0.920
2020/01/31 15:59:05.3	97.960	-0.560	0.520	0.990
2020/01/31 15:59:05.4	97.950	-0.560	0.460	1.060
2020/01/31 15:59:05.5	97.940	-0.550	0.390	1.130
2020/01/31 15:59:05.6	97.940	-0.540	0.320	1.190
2020/01/31 15:59:05.7	97.940	-0.530	0.240	1.260
2020/01/31 15:59:05.8	97.940	-0.520	0.160	1.320
2020/01/31 15:59:05.9	97.940	-0.500	0.070	1.380
2020/01/31 15:59:06.0	97.940	-0.480	-0.020	1.440
2020/01/31 15:59:06.1	97.940	-0.460	-0.120	1.500
2020/01/31 15:59:06.2	97.950	-0.430	-0.220	1.560
2020/01/31 15:59:06.3	97.950	-0.400	-0.310	1.610
2020/01/31 15:59:06.4	97.960	-0.380	-0.410	1.670
2020/01/31 15:59:06.5	97.970	-0.340	-0.510	1.720
2020/01/31 15:59:06.6	97.970	-0.310	-0.610	1.780
2020/01/31 15:59:06.7	97.980	-0.280	-0.710	1.830
2020/01/31 15:59:06.8	97.990	-0.240	-0.810	1.890
2020/01/31 15:59:06.9	98.000	-0.210	-0.900	1.940
2020/01/31 15:59:07.0	98.010	-0.170	-0.980	1.990
2020/01/31 15:59:07.1	98.020	-0.130	-1.060	2.040
2020/01/31 15:59:07.2	98.030	-0.100	-1.140	2.100
2020/01/31 15:59:07.3	98.040	-0.060	-1.210	2.150
2020/01/31 15:59:07.4	98.050	-0.030	-1.280	2.200
2020/01/31 15:59:07.5	98.060	0.010	-1.330	2.240
2020/01/31 15:59:07.6	98.070	0.040	-1.380	2.290
2020/01/31 15:59:07.7	98.080	0.070	-1.420	2.340
2020/01/31 15:59:07.8	98.090	0.100	-1.450	2.380
2020/01/31 15:59:07.9	98.100	0.130	-1.480	2.420
2020/01/31 15:59:08.0	98.110	0.160	-1.490	2.460
2020/01/31 15:59:08.1	98.120	0.180	-1.490	2.490
2020/01/31 15:59:08.2	98.120	0.200	-1.490	2.520
2020/01/31 15:59:08.3	98.130	0.220	-1.470	2.540
2020/01/31 15:59:08.4	98.130	0.230	-1.450	2.560
2020/01/31 15:59:08.5	98.140	0.250	-1.410	2.580
2020/01/31 15:59:08.6	98.150	0.260	-1.370	2.580
2020/01/31 15:59:08.7	98.140	0.260	-1.310	2.590
2020/01/31 15:59:08.8	98.140	0.270	-1.250	2.580
2020/01/31 15:59:08.9	98.150	0.270	-1.180	2.570
2020/01/31 15:59:09.0	98.150	0.260	-1.100	2.560
2020/01/31 15:59:09.1	98.150	0.260	-1.010	2.530
2020/01/31 15:59:09.2	98.160	0.250	-0.920	2.500
2020/01/31 15:59:09.3	98.160	0.240	-0.810	2.470
2020/01/31 15:59:09.4	98.170	0.230	-0.710	2.420
2020/01/31 15:59:09.5	98.170	0.210	-0.590	2.380
2020/01/31 15:59:09.6	98.170	0.190	-0.480	2.320
2020/01/31 15:59:09.7	98.180	0.170	-0.350	2.260
2020/01/31 15:59:09.8	98.180	0.150	-0.230	2.200
2020/01/31 15:59:09.9	98.190	0.130	-0.110	2.130
2020/01/31 15:59:10.0	98.190	0.110	0.010	2.060
2020/01/31 15:59:10.1	98.190	0.090	0.130	1.990
2020/01/31 15:59:10.2	98.190	0.070	0.240	1.910
2020/01/31 15:59:10.3	98.190	0.040	0.360	1.830
2020/01/31 15:59:10.4	98.190	0.020	0.470	1.750
2020/01/31 15:59:10.5	98.190	-0.000	0.570	1.660
2020/01/31 15:59:10.6	98.190	-0.020	0.670	1.580
2020/01/31 15:59:10.7	98.190	-0.040	0.770	1.490
2020/01/31 15:59:10.8	98.190	-0.060	0.860	1.410
2020/01/31 15:59:10.9	98.180	-0.080	0.940	1.320
2020/01/31 15:59:11.0	98.170	-0.100	1.010	1.240
2020/01/31 15:59:11.1	98.160	-0.110	1.070	1.160
2020/01/31 15:59:11.2	98.150	-0.130	1.120	1.070
2020/01/31 15:59:11.3	98.140	-0.140	1.160	0.990
2020/01/31 15:59:11.4	98.130	-0.150	1.200	0.920
2020/01/31 15:59:11.5	98.110	-0.160	1.220	0.840
2020/01/31 15:59:11.6	98.090	-0.160	1.230	0.770
2020/01/31 15:59:11.7	98.080	-0.170	1.230	0.700
2020/01/31 15:59:11.8	98.060	-0.170	1.220	0.630
2020/01/31 15:59:11.9	98.040	-0.170	1.210	0.560
2020/01/31 15:59:12.0	98.010	-0.170	1.180	0.500
2020/01/31 15:59:12.1	97.990	-0.170	1.140	0.440
2020/01/31 15:59:12.2	97.960	-0.170	1.090	0.380
2020/01/31 15:59:12.3	97.930	-0.160	1.040	0.330
2020/01/31 15:59:12.4	97.900	-0.150	0.980	0.280
2020/01/31 15:59:12.5	97.870	-0.140	0.900	0.220
2020/01/31 15:59:12.6	97.840	-0.130	0.830	0.180
2020/01/31 15:59:12.7	97.800	-0.120	0.740	0.130
2020/01/31 15:59:12.8	97.760	-0.110	0.650	0.080
2020/01/31 15:59:12.9	97.730	-0.100	0.550	0.040
2020/01/31 15:59:13.0	97.690	-0.080	0.450	-0.010
2020/01/31 15:59:13.1	97.660	-0.060	0.340	-0.050
2020/01/31 15:59:13.2	97.620	-0.050	0.230	-0.100
2020/01/31 15:59:13.3	97.590	-0.030	0.120	-0.140
2020/01/31 15:59:13.4	97.560	-0.010	0.010	-0.190
2020/01/31 15:59:13.5	97.530	0.010	-0.110	-0.240
2020/01/31 15:59:13.6	97.490	0.030	-0.230	-0.290
2020/01/31 15:59:13.7	97.470	0.050	-0.350	-0.340
2020/01/31 15:59:13.8	97.440	0.070	-0.460	-0.390
2020/01/31 15:59:13.9	97.420	0.090	-0.580	-0.450
2020/01/31 15:59:14.0	97.390	0.110	-0.690	-0.510
2020/01/31 15:59:14.1	97.370	0.130	-0.800	-0.570
2020/01/31 15:59:14.2	97.360	0.150	-0.900	-0.630
2020/01/31 15:59:14.3	97.340	0.170	-1.010	-0.690
2020/01/31 15:59:14.4	97.330	0.190	-1.100	-0.760
2020/01/31 15:59:14.5	97.320	0.210	-1.190	-0.820
2020/01/31 15:59:14.6	97.320	0.230	-1.280	-0.890
2020/01/31 15:59:14.7	97.310	0.250	-1.360	-0.960
2020/01/31 15:59:14.8	97.310	0.270	-1.430	-1.020
2020/01/31 15:59:14.9	97.310	0.290	-1.490	-1.080
2020/01/31 15:59:15.0	97.320	0.300	-1.540	-1.150
2020/01/31 15:59:15.1	97.330	0.320	-1.590	-1.200
2020/01/31 15:59:15.2	97.340	0.330	-1.630	-1.260
2020/01/31 15:59:15.3	97.360	0.340	-1.650	-1.310
2020/01/31 15:59:15.4	97.370	0.360	-1.670	-1.360
2020/01/31 15:59:15.5	97.390	0.370	-1.680	-1.400
2020/01/31 15:59:15.6	97.410	0.370	-1.680	-1.430
2020/01/31 15:59:15.7	97.430	0.380	-1.660	-1.460
2020/01/31 15:59:15.8	97.450	0.390	-1.640	-1.480
2020/01/31 15:59:15.9	97.480	0.390	-1.610	-1.490
2020/01/31 15:59:16.0	97.500	0.390	-1.570	-1.500
2020/01/31 15:59:16.1	97.530	0.390	-1.530	-1.500
2020/01/31 15:59:16.2	97.560	0.390	-1.470	-1.490
2020/01/31 15:59:16.3	97.580	0.390	-1.410	-1.470
2020/01/31 15:59:16.4	97.610	0.380	-1.340	-1.450
2020/01/31 15:59:16.5	97.640	0.380	-1.270	-1.410
2020/01/31 15:59:16.6	97.660	0.370	-1.180	-1.370
2020/01/31 15:59:16.7	97.680	0.360	-1.100	-1.310
2020/01/31 15:59:16.8	97.700	0.350	-1.000	-1.250
2020/01/31 15:59:16.9	97.730	0.330	-0.910	-1.190
2020/01/31 15:59:17.0	97.750	0.320	-0.810	-1.110
2020/01/31 15:59:17.1	97.770	0.300	-0.700	-1.030
2020/01/31 15:59:17.2	97.790	0.280	-0.590	-0.940
2020/01/31 15:59:17.3	97.810	0.260	-0.480	-0.840
2020/01/31 15:59:17.4	97.830	0.230	-0.370	-0.740
2020/01/31 15:59:17.5	97.840	0.210	-0.260	-0.630
2020/01/31 15:59:17.6	97.860	0.180	-0.140	-0.520
2020/01/31 15:59:17.7	97.860	0.150	-0.020	-0.400
2020/01/31 15:59:17.8	97.870	0.120	0.090	-0.280
2020/01/31 15:59:17.9	97.880	0.080	0.210	-0.160
2020/01/31 15:59:18.0	97.890	0.050	0.320	-0.030
2020/01/31 15:59:18.1	97.890	0.010	0.430	0.100
2020/01/31 15:59:18.2	97.900	-0.020	0.540	0.230
2020/01/31 15:59:18.3	97.900	-0.060	0.640	0.360
2020/01/31 15:59:18.4	97.890	-0.100	0.750	0.490
2020/01/31 15:59:18.5	97.890	-0.140	0.840	0.620
2020/01/31 15:59:18.6	97.880	-0.180	0.940	0.750
2020/01/31 15:59:18.7	97.900	-0.220	1.030	0.880
2020/01/31 15:59:18.8	97.890	-0.260	1.110	1.010
2020/01/31 15:59:18.9	97.870	-0.300	1.180	1.130
2020/01/31 15:59:19.0	97.860	-0.340	1.250	1.260
2020/01/31 15:59:19.1	97.850	-0.370	1.320	1.370
2020/01/31 15:59:19.2	97.830	-0.410	1.370	1.490
2020/01/31 15:59:19.3	97.810	-0.450	1.420	1.600
2020/01/31 15:59:19.4	97.790	-0.480	1.460	1.710
2020/01/31 15:59:19.5	97.770	-0.510	1.500	1.810
2020/01/31 15:59:19.6	97.750	-0.540	1.520	1.910
2020/01/31 15:59:19.7	97.740	-0.570	1.540	2.010
2020/01/31 15:59:19.8	97.710	-0.590	1.540	2.100
2020/01/31 15:59:19.9	97.690	-0.610	1.540	2.190
2020/01/31 15:59:20.0	97.660	-0.630	1.530	2.270
2020/01/31 15:59:20.1	97.630	-0.650	1.510	2.350
2020/01/31 15:59:20.2	97.600	-0.660	1.480	2.420
2020/01/31 15:59:20.3	97.580	-0.670	1.440	2.480
2020/01/31 15:59:20.4	97.550	-0.670	1.390	2.540
2020/01/31 15:59:20.5	97.520	-0.680	1.330	2.600
2020/01/31 15:59:20.6	97.490	-0.670	1.260	2.650
2020/01/31 15:59:20.7	97.470	-0.670	1.180	2.700
2020/01/31 15:59:20.8	97.440	-0.660	1.100	2.740
2020/01/31 15:59:20.9	97.410	-0.650	1.010	2.780
2020/01/31 15:59:21.0	97.390	-0.630	0.910	2.820
2020/01/31 15:59:21.1	97.360	-0.610	0.800	2.850
2020/01/31 15:59:21.2	97.340	-0.590	0.690	2.870
2020/01/31 15:59:21.3	97.320	-0.560	0.570	2.890
2020/01/31 15:59:21.4	97.300	-0.530	0.450	2.910
2020/01/31 15:59:21.5	97.280	-0.500	0.320	2.920
2020/01/31 15:59:21.6	97.260	-0.460	0.190	2.930
2020/01/31 15:59:21.7	97.240	-0.430	0.050	2.930
2020/01/31 15:59:21.8	97.230	-0.380	-0.090	2.930
2020/01/31 15:59:21.9	97.220	-0.340	-0.230	2.920
2020/01/31 15:59:22.0	97.220	-0.300	-0.370	2.900
2020/01/31 15:59:22.1	97.210	-0.250	-0.500	2.880
2020/01/31 15:59:22.2	97.210	-0.210	-0.640	2.860
2020/01/31 15:59:22.3	97.210	-0.160	-0.780	2.830
2020/01/31 15:59:22.4	97.220	-0.110	-0.910	2.790
2020/01/31 15:59:22.5	97.220	-0.060	-1.040	2.750
2020/01/31 15:59:22.6	97.230	-0.010	-1.170	2.710
2020/01/31 15:59:22.7	97.240	0.040	-1.290	2.650
2020/01/31 15:59:22.8	97.250	0.090	-1.410	2.600
2020/01/31 15:59:22.9	97.270	0.140	-1.510	2.530
2020/01/31 15:59:23.0	97.280	0.190	-1.610	2.470
2020/01/31 15:59:23.1	97.300	0.240	-1.710	2.400
2020/01/31 15:59:23.2	97.320	0.290	-1.790	2.330
2020/01/31 15:59:23.3	97.340	0.330	-1.860	2.250
2020/01/31 15:59:23.4	97.350	0.380	-1.930	2.170
2020/01/31 15:59:23.5	97.370	0.420	-1.990	2.090
2020/01/31 15:59:23.6	97.380	0.460	-2.030	2.010
2020/01/31 15:59:23.7	97.400	0.490	-2.070	1.930
2020/01/31 15:59:23.8	97.410	0.530	-2.090	1.840
2020/01/31 15:59:23.9	97.420	0.560	-2.100	1.750
2020/01/31 15:59:24.0	97.430	0.590	-2.100	1.660
2020/01/31 15:59:24.1	97.440	0.620	-2.090	1.570
2020/01/31 15:59:24.2	97.440	0.640	-2.070	1.480
2020/01/31 15:59:24.3	97.440	0.660	-2.040	1.390
2020/01/31 15:59:24.4	97.450	0.680	-1.990	1.290
2020/01/31 15:59:24.5	97.450	0.690	-1.940	1.200
2020/01/31 15:59:24.6	97.440	0.700	-1.870	1.100
2020/01/31 15:59:24.7	97.440	0.700	-1.790	1.010
2020/01/31 15:59:24.8	97.430	0.700	-1.710	0.920
2020/01/31 15:59:24.9	97.430	0.700	-1.610	0.820
2020/01/31 15:59:25.0	97.420	0.690	-1.510	0.720
2020/01/31 15:59:25.1	97.410	0.680	-1.400	0.630
2020/01/31 15:59:25.2	97.400	0.660	-1.280	0.530
2020/01/31 15:59:25.3	97.390	0.640	-1.160	0.440
2020/01/31 15:59:25.4	97.380	0.620	-1.030	0.340
2020/01/31 15:59:25.5	97.370	0.600	-0.900	0.250
2020/01/31 15:59:25.6	97.360	0.570	-0.760	0.160
2020/01/31 15:59:25.7	97.360	0.540	-0.620	0.070
2020/01/31 15:59:25.8	97.350	0.500	-0.480	-0.020
2020/01/31 15:59:25.9	97.340	0.460	-0.340	-0.100
2020/01/31 15:59:26.0	97.330	0.430	-0.200	-0.180
2020/01/31 15:59:26.1	97.320	0.380	-0.070	-0.260
2020/01/31 15:59:26.2	97.320	0.340	0.070	-0.340
2020/01/31 15:59:26.3	97.310	0.300	0.200	-0.410
2020/01/31 15:59:26.4	97.300	0.250	0.330	-0.480
2020/01/31 15:59:26.5	97.300	0.210	0.450	-0.550
2020/01/31 15:59:26.6	97.300	0.160	0.570	-0.610
2020/01/31 15:59:26.7	97.310	0.120	0.680	-0.660
2020/01/31 15:59:26.8	97.310	0.070	0.780	-0.720
2020/01/31 15:59:26.9	97.310	0.030	0.870	-0.770
2020/01/31 15:59:27.0	97.310	-0.020	0.960	-0.820
2020/01/31 15:59:27.1	97.310	-0.060	1.030	-0.870
2020/01/31 15:59:27.2	97.310	-0.100	1.100	-0.910
2020/01/31 15:59:27.3	97.310	-0.140	1.150	-0.950
2020/01/31 15:59:27.4	97.320	-0.180	1.200	-0.980
2020/01/31 15:59:27.5	97.320	-0.220	1.230	-1.020
2020/01/31 15:59:27.6	97.330	-0.250	1.250	-1.050
2020/01/31 15:59:27.7	97.340	-0.280	1.270	-1.080
2020/01/31 15:59:27.8	97.350	-0.310	1.270	-1.110
2020/01/31 15:59:27.9	97.350	-0.330	1.260	-1.130
2020/01/31 15:59:28.0	97.360	-0.350	1.250	-1.150
2020/01/31 15:59:28.1	97.370	-0.370	1.220	-1.180
2020/01/31 15:59:28.2	97.380	-0.390	1.190	-1.190
2020/01/31 15:59:28.3	97.380	-0.400	1.140	-1.210
2020/01/31 15:59:28.4	97.390	-0.420	1.090	-1.230
2020/01/31 15:59:28.5	97.400	-0.420	1.040	-1.240
2020/01/31 15:59:28.6	97.410	-0.430	0.970	-1.260
2020/01/31 15:59:28.7	97.400	-0.430	0.900	-1.270
2020/01/31 15:59:28.8	97.410	-0.430	0.830	-1.280
2020/01/31 15:59:28.9	97.420	-0.430	0.750	-1.280
2020/01/31 15:59:29.0	97.430	-0.430	0.670	-1.290
2020/01/31 15:59:29.1	97.440	-0.420	0.590	-1.290
2020/01/31 15:59:29.2	97.440	-0.410	0.510	-1.290
2020/01/31 15:59:29.3	97.450	-0.400	0.430	-1.290
2020/01/31 15:59:29.4	97.460	-0.390	0.350	-1.280
2020/01/31 15:59:29.5	97.460	-0.380	0.270	-1.280
2020/01/31 15:59:29.6	97.470	-0.360	0.190	-1.260
2020/01/31 15:59:29.7	97.470	-0.350	0.110	-1.250
2020/01/31 15:59:29.8	97.470	-0.330	0.040	-1.230
2020/01/31 15:59:29.9	97.480	-0.320	-0.030	-1.210
2020/01/31 15:59:30.0	97.490	-0.300	-0.100	-1.190
2020/01/31 15:59:30.1	97.490	-0.290	-0.170	-1.160
2020/01/31 15:59:30.2	97.500	-0.270	-0.230	-1.130
2020/01/31 15:59:30.3	97.500	-0.260	-0.280	-1.090
2020/01/31 15:59:30.4	97.510	-0.240	-0.330	-1.050
2020/01/31 15:59:30.5	97.520	-0.230	-0.380	-1.010
2020/01/31 15:59:30.6	97.520	-0.220	-0.420	-0.970
2020/01/31 15:59:30.7	97.530	-0.200	-0.460	-0.910
2020/01/31 15:59:30.8	97.540	-0.190	-0.490	-0.860
2020/01/31 15:59:30.9	97.540	-0.180	-0.520	-0.810
2020/01/31 15:59:31.0	97.540	-0.170	-0.540	-0.760
2020/01/31 15:59:31.1	97.550	-0.160	-0.560	-0.700
2020/01/31 15:59:31.2	97.550	-0.160	-0.570	-0.640
2020/01/31 15:59:31.3	97.550	-0.150	-0.580	-0.570
2020/01/31 15:59:31.4	97.560	-0.140	-0.590	-0.510
2020/01/31 15:59:31.5	97.560	-0.140	-0.590	-0.440
2020/01/31 15:59:31.6	97.560	-0.130	-0.590	-0.370
2020/01/31 15:59:31.7	97.560	-0.130	-0.590	-0.300
2020/01/31 15:59:31.8	97.560	-0.120	-0.580	-0.230
2020/01/31 15:59:31.9	97.560	-0.120	-0.570	-0.160
2020/01/31 15:59:32.0	97.560	-0.120	-0.570	-0.090
2020/01/31 15:59:32.1	97.560	-0.110	-0.560	-0.020
2020/01/31 15:59:32.2	97.560	-0.110	-0.540	0.050
2020/01/31 15:59:32.3	97.560	-0.100	-0.530	0.120
2020/01/31 15:59:32.4	97.560	-0.100	-0.510	0.190
2020/01/31 15:59:32.5	97.560	-0.090	-0.500	0.260
2020/01/31 15:59:32.6	97.560	-0.080	-0.480	0.330
2020/01/31 15:59:32.7	97.570	-0.080	-0.470	0.400
2020/01/31 15:59:32.8	97.570	-0.070	-0.450	0.470
2020/01/31 15:59:32.9	97.570	-0.060	-0.440	0.540
2020/01/31 15:59:33.0	97.570	-0.050	-0.420	0.600
2020/01/31 15:59:33.1	97.580	-0.030	-0.410	0.670
2020/01/31 15:59:33.2	97.580	-0.020	-0.390	0.730
2020/01/31 15:59:33.3	97.580	-0.000	-0.380	0.790
2020/01/31 15:59:33.4	97.590	0.010	-0.370	0.850
2020/01/31 15:59:33.5	97.590	0.030	-0.350	0.910
2020/01/31 15:59:33.6	97.600	0.050	-0.340	0.970
2020/01/31 15:59:33.7	97.610	0.060	-0.330	1.030
2020/01/31 15:59:33.8	97.620	0.080	-0.330	1.080
2020/01/31 15:59:33.9	97.620	0.110	-0.320	1.130
2020/01/31 15:59:34.0	97.630	0.130	-0.320	1.180
2020/01/31 15:59:34.1	97.640	0.150	-0.320	1.240
2020/01/31 15:59:34.2	97.650	0.170	-0.320	1.280
2020/01/31 15:59:34.3	97.660	0.190	-0.330	1.330
2020/01/31 15:59:34.4	97.670	0.210	-0.330	1.380
2020/01/31 15:59:34.5	97.680	0.240	-0.340	1.420
2020/01/31 15:59:34.6	97.690	0.260	-0.350	1.460
2020/01/31 15:59:34.7	97.710	0.280	-0.370	1.500
2020/01/31 15:59:34.8	97.720	0.300	-0.380	1.540
2020/01/31 15:59:34.9	97.730	0.320	-0.390	1.580
2020/01/31 15:59:35.0	97.740	0.340	-0.410	1.610
2020/01/31 15:59:35.1	97.750	0.360	-0.420	1.650
2020/01/31 15:59:35.2	97.760	0.370	-0.440	1.680
2020/01/31 15:59:35.3	97.770	0.390	-0.450	1.710
2020/01/31 15:59:35.4	97.780	0.400	-0.470	1.740
2020/01/31 15:59:35.5	97.780	0.410	-0.480	1.760
2020/01/31 15:59:35.6	97.790	0.420	-0.490	1.790
2020/01/31 15:59:35.7	97.780	0.430	-0.490	1.810
2020/01/31 15:59:35.8	97.780	0.430	-0.500	1.830
2020/01/31 15:59:35.9	97.780	0.430	-0.500	1.850
2020/01/31 15:59:36.0	97.780	0.430	-0.510	1.870
2020/01/31 15:59:36.1	97.780	0.430	-0.500	1.880
2020/01/31 15:59:36.2	97.770	0.430	-0.500	1.900
2020/01/31 15:59:36.3	97.760	0.420	-0.490	1.910
2020/01/31 15:59:36.4	97.760	0.410	-0.480	1.920
2020/01/31 15:59:36.5	97.750	0.400	-0.460	1.930
2020/01/31 15:59:36.6	97.730	0.380	-0.440	1.930
2020/01/31 15:59:36.7	97.710	0.370	-0.420	1.930
2020/01/31 15:59:36.8	97.700	0.350	-0.400	1.930
2020/01/31 15:59:36.9	97.690	0.330	-0.370	1.930
2020/01/31 15:59:37.0	97.670	0.310	-0.330	1.930
2020/01/31 15:59:37.1	97.650	0.280	-0.300	1.920
2020/01/31 15:59:37.2	97.630	0.260	-0.260	1.910
2020/01/31 15:59:37.3	97.620	0.230	-0.220	1.900
2020/01/31 15:59:37.4	97.600	0.200	-0.180	1.880
2020/01/31 15:59:37.5	97.580	0.170	-0.130	1.860
2020/01/31 15:59:37.6	97.560	0.140	-0.090	1.840
2020/01/31 15:59:37.7	97.550	0.110	-0.050	1.820
2020/01/31 15:59:37.8	97.530	0.080	-0.000	1.790
2020/01/31 15:59:37.9	97.510	0.040	0.040	1.760
2020/01/31 15:59:38.0	97.500	0.010	0.080	1.730
2020/01/31 15:59:38.1	97.480	-0.020	0.120	1.690
2020/01/31 15:59:38.2	97.470	-0.050	0.160	1.650
2020/01/31 15:59:38.3	97.450	-0.080	0.190	1.610
2020/01/31 15:59:38.4	97.440	-0.110	0.220	1.560
2020/01/31 15:59:38.5	97.430	-0.140	0.250	1.510
2020/01/31 15:59:38.6	97.420	-0.170	0.270	1.460
2020/01/31 15:59:38.7	97.420	-0.200	0.300	1.400
2020/01/31 15:59:38.8	97.410	-0.230	0.320	1.340
2020/01/31 15:59:38.9	97.410	-0.250	0.330	1.280
2020/01/31 15:59:39.0	97.410	-0.280	0.340	1.220
2020/01/31 15:59:39.1	97.410	-0.300	0.340	1.150
2020/01/31 15:59:39.2	97.410	-0.320	0.340	1.080
2020/01/31 15:59:39.3	97.420	-0.330	0.330	1.010
2020/01/31 15:59:39.4	97.430	-0.350	0.330	0.940
2020/01/31 15:59:39.5	97.440	-0.360	0.310	0.860
2020/01/31 15:59:39.6	97.450	-0.370	0.300	0.780
2020/01/31 15:59:39.7	97.460	-0.380	0.280	0.700
2020/01/31 15:59:39.8	97.470	-0.390	0.260	0.630
2020/01/31 15:59:39.9	97.490	-0.390	0.230	0.550
2020/01/31 15:59:40.0	97.500	-0.400	0.210	0.460
2020/01/31 15:59:40.1	97.520	-0.400	0.180	0.380
2020/01/31 15:59:40.2	97.530	-0.390	0.150	0.300
2020/01/31 15:59:40.3	97.550	-0.390	0.120	0.220
2020/01/31 15:59:40.4	97.570	-0.380	0.090	0.130
2020/01/31 15:59:40.5	97.580	-0.370	0.060	0.050
2020/01/31 15:59:40.6	97.600	-0.360	0.020	-0.030
2020/01/31 15:59:40.7	97.620	-0.350	-0.000	-0.110
2020/01/31 15:59:40.8	97.630	-0.340	-0.030	-0.190
2020/01/31 15:59:40.9	97.650	-0.320	-0.060	-0.270
2020/01/31 15:59:41.0	97.670	-0.300	-0.090	-0.350
2020/01/31 15:59:41.1	97.690	-0.280	-0.120	-0.430
2020/01/31 15:59:41.2	97.700	-0.260	-0.150	-0.500
2020/01/31 15:59:41.3	97.720	-0.240	-0.180	-0.580
2020/01/31 15:59:41.4	97.740	-0.220	-0.200	-0.650
2020/01/31 15:59:41.5	97.760	-0.190	-0.230	-0.720
2020/01/31 15:59:41.6	97.770	-0.170	-0.250	-0.790
2020/01/31 15:59:41.7	97.780	-0.140	-0.270	-0.860
2020/01/31 15:59:41.8	97.800	-0.120	-0.290	-0.930
2020/01/31 15:59:41.9	97.810	-0.090	-0.300	-0.990
2020/01/31 15:59:42.0	97.830	-0.060	-0.320	-1.040
2020/01/31 15:59:42.1	97.840	-0.040	-0.330	-1.100
2020/01/31 15:59:42.2	97.850	-0.010	-0.340	-1.150
2020/01/31 15:59:42.3	97.860	0.020	-0.350	-1.190
2020/01/31 15:59:42.4	97.870	0.040	-0.350	-1.230
2020/01/31 15:59:42.5	97.880	0.070	-0.360	-1.270
2020/01/31 15:59:42.6	97.880	0.090	-0.360	-1.300
2020/01/31 15:59:42.7	97.880	0.120	-0.360	-1.320
2020/01/31 15:59:42.8	97.880	0.140	-0.350	-1.340
2020/01/31 15:59:42.9	97.880	0.160	-0.350	-1.350
2020/01/31 15:59:43.0	97.880	0.180	-0.350	-1.360
2020/01/31 15:59:43.1	97.870	0.200	-0.340	-1.370
2020/01/31 15:59:43.2	97.870	0.220	-0.340	-1.370
2020/01/31 15:59:43.3	97.860	0.240	-0.330	-1.360
2020/01/31 15:59:43.4	97.850	0.250	-0.320	-1.350
2020/01/31 15:59:43.5	97.850	0.270	-0.310	-1.330
2020/01/31 15:59:43.6	97.840	0.280	-0.310	-1.300
2020/01/31 15:59:43.7	97.830	0.290	-0.300	-1.280
2020/01/31 15:59:43.8	97.820	0.300	-0.290	-1.240
2020/01/31 15:59:43.9	97.800	0.310	-0.280	-1.200
2020/01/31 15:59:44.0	97.790	0.310	-0.280	-1.160
2020/01/31 15:59:44.1	97.770	0.320	-0.270	-1.110
2020/01/31 15:59:44.2	97.760	0.320	-0.260	-1.060
2020/01/31 15:59:44.3	97.740	0.320	-0.250	-1.000
2020/01/31 15:59:44.4	97.730	0.320	-0.250	-0.940
2020/01/31 15:59:44.5	97.710	0.320	-0.240	-0.870
2020/01/31 15:59:44.6	97.700	0.310	-0.240	-0.810
2020/01/31 15:59:44.7	97.680	0.310	-0.230	-0.730
2020/01/31 15:59:44.8	97.660	0.300	-0.230	-0.660
2020/01/31 15:59:44.9	97.650	0.290	-0.230	-0.590
2020/01/31 15:59:45.0	97.640	0.290	-0.230	-0.520
2020/01/31 15:59:45.1	97.630	0.280	-0.230	-0.440
2020/01/31 15:59:45.2	97.620	0.270	-0.230	-0.370
2020/01/31 15:59:45.3	97.610	0.260	-0.230	-0.290
2020/01/31 15:59:45.4	97.600	0.250	-0.240	-0.220
2020/01/31 15:59:45.5	97.590	0.230	-0.240	-0.150
2020/01/31 15:59:45.6	97.590	0.220	-0.250	-0.080
2020/01/31 15:59:45.7	97.590	0.210	-0.250	-0.010
2020/01/31 15:59:45.8	97.580	0.200	-0.260	0.060
2020/01/31 15:59:45.9	97.580	0.190	-0.260	0.130
2020/01/31 15:59:46.0	97.590	0.180	-0.270	0.190
2020/01/31 15:59:46.1	97.590	0.170	-0.280	0.250
2020/01/31 15:59:46.2	97.590	0.160	-0.280	0.320
2020/01/31 15:59:46.3	97.600	0.150	-0.290	0.370
2020/01/31 15:59:46.4	97.600	0.140	-0.290	0.430
2020/01/31 15:59:46.5	97.610	0.130	-0.300	0.480
2020/01/31 15:59:46.6	97.620	0.120	-0.300	0.540
2020/01/31 15:59:46.7	97.640	0.110	-0.300	0.590
2020/01/31 15:59:46.8	97.650	0.110	-0.300	0.640
2020/01/31 15:59:46.9	97.660	0.100	-0.300	0.690
2020/01/31 15:59:47.0	97.670	0.090	-0.300	0.730
2020/01/31 15:59:47.1	97.680	0.090	-0.300	0.780
2020/01/31 15:59:47.2	97.690	0.080	-0.300	0.820
2020/01/31 15:59:47.3	97.700	0.080	-0.290	0.870
2020/01/31 15:59:47.4	97.710	0.070	-0.290	0.910
2020/01/31 15:59:47.5	97.720	0.070	-0.280	0.950
2020/01/31 15:59:47.6	97.730	0.060	-0.270	0.990
2020/01/31 15:59:47.7	97.730	0.060	-0.270	1.030
2020/01/31 15:59:47.8	97.740	0.050	-0.260	1.070
2020/01/31 15:59:47.9	97.740	0.050	-0.250	1.120
2020/01/31 15:59:48.0	97.750	0.040	-0.230	1.160
2020/01/31 15:59:48.1	97.760	0.040	-0.220	1.200
2020/01/31 15:59:48.2	97.760	0.030	-0.210	1.240
2020/01/31 15:59:48.3	97.770	0.030	-0.190	1.290
2020/01/31 15:59:48.4	97.770	0.020	-0.180	1.330
2020/01/31 15:59:48.5	97.770	0.020	-0.160	1.370
2020/01/31 15:59:48.6	97.780	0.010	-0.150	1.420
2020/01/31 15:59:48.7	97.780	0.000	-0.130	1.460
2020/01/31 15:59:48.8	97.780	-0.010	-0.110	1.500
2020/01/31 15:59:48.9	97.780	-0.010	-0.090	1.550
2020/01/31 15:59:49.0	97.780	-0.020	-0.080	1.590
2020/01/31 15:59:49.1	97.770	-0.030	-0.060	1.630
2020/01/31 15:59:49.2	97.770	-0.040	-0.050	1.680
2020/01/31 15:59:49.3	97.770	-0.050	-0.030	1.720
2020/01/31 15:59:49.4	97.770	-0.060	-0.020	1.760
2020/01/31 15:59:49.5	97.770	-0.070	-0.000	1.790
2020/01/31 15:59:49.6	97.770	-0.080	0.010	1.830
2020/01/31 15:59:49.7	97.770	-0.090	0.020	1.860
2020/01/31 15:59:49.8	97.770	-0.100	0.030	1.900
2020/01/31 15:59:49.9	97.770	-0.110	0.040	1.930
2020/01/31 15:59:50.0	97.770	-0.110	0.050	1.950
2020/01/31 15:59:50.1	97.770	-0.120	0.050	1.980
2020/01/31 15:59:50.2	97.770	-0.130	0.060	2.000
2020/01/31 15:59:50.3	97.780	-0.140	0.060	2.020
2020/01/31 15:59:50.4	97.780	-0.150	0.060	2.040
2020/01/31 15:59:50.5	97.780	-0.160	0.060	2.050
2020/01/31 15:59:50.6	97.780	-0.170	0.060	2.060
2020/01/31 15:59:50.7	97.780	-0.180	0.050	2.070
2020/01/31 15:59:50.8	97.790	-0.180	0.040	2.070
2020/01/31 15:59:50.9	97.790	-0.190	0.040	2.070
2020/01/31 15:59:51.0	97.800	-0.200	0.030	2.070
2020/01/31 15:59:51.1	97.800	-0.200	0.020	2.070
2020/01/31 15:59:51.2	97.800	-0.210	0.010	2.060
2020/01/31 15:59:51.3	97.810	-0.210	-0.000	2.050
2020/01/31 15:59:51.4	97.810	-0.210	-0.010	2.030
2020/01/31 15:59:51.5	97.820	-0.220	-0.030	2.010
2020/01/31 15:59:51.6	97.830	-0.220	-0.040	1.990
2020/01/31 15:59:51.7	97.830	-0.220	-0.050	1.960
2020/01/31 15:59:51.8	97.840	-0.210	-0.070	1.930
2020/01/31 15:59:51.9	97.840	-0.210	-0.080	1.900
2020/01/31 15:59:52.0	97.850	-0.210	-0.100	1.860
2020/01/31 15:59:52.1	97.860	-0.200	-0.120	1.820
2020/01/31 15:59:52.2	97.860	-0.200	-0.140	1.770
2020/01/31 15:59:52.3	97.870	-0.190	-0.150	1.720
2020/01/31 15:59:52.4	97.880	-0.180	-0.170	1.670
2020/01/31 15:59:52.5	97.890	-0.170	-0.190	1.620
2020/01/31 15:59:52.6	97.890	-0.160	-0.210	1.560
2020/01/31 15:59:52.7	97.900	-0.150	-0.230	1.490
2020/01/31 15:59:52.8	97.910	-0.130	-0.250	1.430
2020/01/31 15:59:52.9	97.920	-0.120	-0.270	1.360
2020/01/31 15:59:53.0	97.930	-0.100	-0.290	1.300
2020/01/31 15:59:53.1	97.940	-0.090	-0.310	1.230
2020/01/31 15:59:53.2	97.950	-0.070	-0.330	1.160
2020/01/31 15:59:53.3	97.960	-0.050	-0.350	1.080
2020/01/31 15:59:53.4	97.970	-0.030	-0.370	1.010
2020/01/31 15:59:53.5	97.980	-0.020	-0.380	0.930
2020/01/31 15:59:53.6	97.990	0.000	-0.390	0.860
2020/01/31 15:59:53.7	98.010	0.020	-0.410	0.780
2020/01/31 15:59:53.8	98.020	0.030	-0.420	0.710
2020/01/31 15:59:53.9	98.030	0.050	-0.420	0.640
2020/01/31 15:59:54.0	98.040	0.070	-0.430	0.560
2020/01/31 15:59:54.1	98.060	0.080	-0.430	0.490
2020/01/31 15:59:54.2	98.070	0.090	-0.430	0.430
2020/01/31 15:59:54.3	98.080	0.110	-0.420	0.360
2020/01/31 15:59:54.4	98.090	0.120	-0.410	0.290
2020/01/31 15:59:54.5	98.100	0.120	-0.400	0.230
2020/01/31 15:59:54.6	98.120	0.130	-0.390	0.170
2020/01/31 15:59:54.7	98.110	0.140	-0.370	0.110
2020/01/31 15:59:54.8	98.120	0.140	-0.350	0.060
2020/01/31 15:59:54.9	98.130	0.150	-0.320	-0.000
2020/01/31 15:59:55.0	98.140	0.150	-0.300	-0.050
2020/01/31 15:59:55.1	98.150	0.150	-0.270	-0.110
2020/01/31 15:59:55.2	98.160	0.150	-0.240	-0.160
2020/01/31 15:59:55.3	98.160	0.140	-0.210	-0.210
2020/01/31 15:59:55.4	98.170	0.140	-0.180	-0.250
2020/01/31 15:59:55.5	98.170	0.140	-0.140	-0.300
2020/01/31 15:59:55.6	98.170	0.130	-0.110	-0.340
2020/01/31 15:59:55.7	98.170	0.120	-0.080	-0.390
2020/01/31 15:59:55.8	98.170	0.120	-0.050	-0.430
2020/01/31 15:59:55.9	98.170	0.110	-0.020	-0.470
2020/01/31 15:59:56.0	98.170	0.110	0.010	-0.510
2020/01/31 15:59:56.1	98.170	0.100	0.040	-0.550
2020/01/31 15:59:56.2	98.170	0.090	0.060	-0.580
2020/01/31 15:59:56.3	98.170	0.090	0.080	-0.620
2020/01/31 15:59:56.4	98.170	0.080	0.100	-0.650
2020/01/31 15:59:56.5	98.160	0.080	0.120	-0.680
2020/01/31 15:59:56.6	98.160	0.070	0.130	-0.710
2020/01/31 15:59:56.7	98.150	0.070	0.140	-0.740
2020/01/31 15:59:56.8	98.150	0.070	0.140	-0.770
2020/01/31 15:59:56.9	98.140	0.070	0.140	-0.800
2020/01/31 15:59:57.0	98.140	0.070	0.140	-0.820
2020/01/31 15:59:57.1	98.140	0.070	0.130	-0.850
2020/01/31 15:59:57.2	98.140	0.070	0.120	-0.870
2020/01/31 15:59:57.3	98.140	0.080	0.110	-0.890
2020/01/31 15:59:57.4	98.140	0.080	0.090	-0.910
2020/01/31 15:59:57.5	98.140	0.090	0.070	-0.920
2020/01/31 15:59:57.6	98.140	0.090	0.050	-0.930
2020/01/31 15:59:57.7	98.130	0.100	0.020	-0.950
2020/01/31 15:59:57.8	98.130	0.110	-0.000	-0.950
2020/01/31 15:59:57.9	98.130	0.110	-0.030	-0.960
2020/01/31 15:59:58.0	98.130	0.120	-0.060	-0.960
2020/01/31 15:59:58.1	98.130	0.120	-0.090	-0.960
2020/01/31 15:59:58.2	98.130	0.130	-0.120	-0.950
2020/01/31 15:59:58.3	98.130	0.140	-0.150	-0.940
2020/01/31 15:59:58.4	98.130	0.140	-0.170	-0.930
2020/01/31 15:59:58.5	98.130	0.140	-0.200	-0.910
2020/01/31 15:59:58.6	98.130	0.140	-0.230	-0.890
2020/01/31 15:59:58.7	98.120	0.140	-0.260	-0.860
2020/01/31 15:59:58.8	98.120	0.140	-0.280	-0.830
2020/01/31 15:59:58.9	98.120	0.140	-0.300	-0.800
2020/01/31 15:59:59.0	98.110	0.130	-0.320	-0.760
2020/01/31 15:59:59.1	98.110	0.120	-0.340	-0.720
2020/01/31 15:59:59.2	98.110	0.110	-0.350	-0.680
2020/01/31 15:59:59.3	98.110	0.100	-0.370	-0.630
2020/01/31 15:59:59.4	98.110	0.090	-0.380	-0.580
2020/01/31 15:59:59.5	98.110	0.080	-0.390	-0.530
2020/01/31 15:59:59.6	98.110	0.060	-0.400	-0.480
2020/01/31 15:59:59.7	98.120	0.050	-0.410	-0.420
2020/01/31 15:59:59.8	98.120	0.030	-0.410	-0.360
2020/01/31 15:59:59.9	98.120	0.010	-0.420	-0.300
2020/01/31 16:00:00.0	98.120	-0.010	-0.420	-0.240
2020/01/31 16:00:00.1	98.130	-0.030	-0.420	-0.180
2020/01/31 16:00:00.2	98.130	-0.050	-0.420	-0.120
2020/01/31 16:00:00.3	98.140	-0.070	-0.420	-0.060
2020/01/31 16:00:00.4	98.140	-0.080	-0.420	-0.000
2020/01/31 16:00:00.5	98.150	-0.100	-0.420	0.050
2020/01/31 16:00:00.6	98.160	-0.120	-0.420	0.110
2020/01/31 16:00:00.7	98.170	-0.130	-0.410	0.170
2020/01/31 16:00:00.8	98.180	-0.150	-0.410	0.230
2020/01/31 16:00:00.9	98.190	-0.160	-0.410	0.280
2020/01/31 16:00:01.0	98.200	-0.170	-0.410	0.330
2020/01/31 16:00:01.1	98.210	-0.180	-0.400	0.390
2020/01/31 16:00:01.2	98.220	-0.190	-0.400	0.440
2020/01/31 16:00:01.3	98.240	-0.190	-0.400	0.490
2020/01/31 16:00:01.4	98.250	-0.190	-0.400	0.530
2020/01/31 16:00:01.5	98.270	-0.190	-0.400	0.580
2020/01/31 16:00:01.6	98.280	-0.190	-0.390	0.630
2020/01/31 16:00:01.7	98.300	-0.180	-0.390	0.670
2020/01/31 16:00:01.8	98.310	-0.170	-0.390	0.720
2020/01/31 16:00:01.9	98.330	-0.160	-0.380	0.760
2020/01/31 16:00:02.0	98.350	-0.150	-0.380	0.800
2020/01/31 16:00:02.1	98.370	-0.130	-0.370	0.850
2020/01/31 16:00:02.2	98.390	-0.120	-0.370	0.890
2020/01/31 16:00:02.3	98.410	-0.100	-0.360	0.930
2020/01/31 16:00:02.4	98.430	-0.080	-0.350	0.980
2020/01/31 16:00:02.5	98.450	-0.060	-0.340	1.020
2020/01/31 16:00:02.6	98.470	-0.040	-0.330	1.060
2020/01/31 16:00:02.7	98.490	-0.020	-0.310	1.110
2020/01/31 16:00:02.8	98.510	0.010	-0.300	1.150
2020/01/31 16:00:02.9	98.520	0.030	-0.290	1.190
2020/01/31 16:00:03.0	98.540	0.050	-0.270	1.240
2020/01/31 16:00:03.1	98.560	0.070	-0.250	1.280
2020/01/31 16:00:03.2	98.580	0.090	-0.230	1.320
2020/01/31 16:00:03.3	98.590	0.110	-0.210	1.370
2020/01/31 16:00:03.4	98.610	0.130	-0.190	1.410
2020/01/31 16:00:03.5	98.620	0.140	-0.170	1.450
2020/01/31 16:00:03.6	98.630	0.160	-0.150	1.490
2020/01/31 16:00:03.7	98.660	0.170	-0.120	1.540
2020/01/31 16:00:03.8	98.670	0.180	-0.090	1.580
2020/01/31 16:00:03.9	98.680	0.190	-0.070	1.610
2020/01/31 16:00:04.0	98.690	0.190	-0.040	1.650
2020/01/31 16:00:04.1	98.700	0.190	-0.010	1.680
2020/01/31 16:00:04.2	98.710	0.190	0.020	1.710
2020/01/31 16:00:04.3	98.720	0.190	0.050	1.730
2020/01/31 16:00:04.4	98.730	0.180	0.090	1.760
2020/01/31 16:00:04.5	98.740	0.170	0.120	1.780
2020/01/31 16:00:04.6	98.750	0.160	0.150	1.790
2020/01/31 16:00:04.7	98.770	0.150	0.190	1.800
2020/01/31 16:00:04.8	98.790	0.130	0.220	1.810
2020/01/31 16:00:04.9	98.800	0.120	0.250	1.820
2020/01/31 16:00:05.0	98.810	0.100	0.290	1.820
2020/01/31 16:00:05.1	98.820	0.070	0.320	1.810
2020/01/31 16:00:05.2	98.830	0.050	0.350	1.800
2020/01/31 16:00:05.3	98.840	0.030	0.380	1.790
2020/01/31 16:00:05.4	98.850	0.000	0.410	1.770
2020/01/31 16:00:05.5	98.860	-0.020	0.440	1.750
2020/01/31 16:00:05.6	98.870	-0.050	0.460	1.730
2020/01/31 16:00:05.7	98.880	-0.070	0.490	1.700
2020/01/31 16:00:05.8	98.890	-0.100	0.510	1.670
2020/01/31 16:00:05.9	98.900	-0.120	0.520	1.630
2020/01/31 16:00:06.0	98.910	-0.150	0.530	1.600
2020/01/31 16:00:06.1	98.910	-0.170	0.540	1.560
2020/01/31 16:00:06.2	98.910	-0.190	0.550	1.520
2020/01/31 16:00:06.3	98.920	-0.210	0.550	1.470
2020/01/31 16:00:06.4	98.920	-0.230	0.540	1.430
2020/01/31 16:00:06.5	98.920	-0.250	0.530	1.380
2020/01/31 16:00:06.6	98.920	-0.270	0.520	1.340
2020/01/31 16:00:06.7	98.910	-0.280	0.500	1.280
2020/01/31 16:00:06.8	98.900	-0.290	0.480	1.240
2020/01/31 16:00:06.9	98.900	-0.300	0.450	1.190
2020/01/31 16:00:07.0	98.890	-0.310	0.410	1.140
2020/01/31 16:00:07.1	98.890	-0.310	0.380	1.080
2020/01/31 16:00:07.2	98.880	-0.310	0.330	1.030
2020/01/31 16:00:07.3	98.870	-0.310	0.280	0.980
2020/01/31 16:00:07.4	98.870	-0.310	0.230	0.930
2020/01/31 16:00:07.5	98.860	-0.310	0.170	0.870
2020/01/31 16:00:07.6	98.860	-0.300	0.110	0.820
2020/01/31 16:00:07.7	98.840	-0.290	0.050	0.760
2020/01/31 16:00:07.8	98.830	-0.270	-0.020	0.710
2020/01/31 16:00:07.9	98.830	-0.260	-0.090	0.650
2020/01/31 16:00:08.0	98.820	-0.240	-0.170	0.600
2020/01/31 16:00:08.1	98.820	-0.220	-0.250	0.540
2020/01/31 16:00:08.2	98.820	-0.200	-0.330	0.480
2020/01/31 16:00:08.3	98.820	-0.180	-0.410	0.430
2020/01/31 16:00:08.4	98.830	-0.150	-0.490	0.370
2020/01/31 16:00:08.5	98.830	-0.120	-0.570	0.320
2020/01/31 16:00:08.6	98.830	-0.100	-0.650	0.260
2020/01/31 16:00:08.7	98.840	-0.070	-0.740	0.200
2020/01/31 16:00:08.8	98.850	-0.040	-0.820	0.150
2020/01/31 16:00:08.9	98.860	-0.010	-0.890	0.100
2020/01/31 16:00:09.0	98.870	0.020	-0.970	0.050
2020/01/31 16:00:09.1	98.880	0.050	-1.040	-0.000
2020/01/31 16:00:09.2	98.890	0.070	-1.120	-0.050
2020/01/31 16:00:09.3	98.900	0.100	-1.180	-0.090
2020/01/31 16:00:09.4	98.920	0.130	-1.240	-0.140
2020/01/31 16:00:09.5	98.930	0.150	-1.300	-0.180
2020/01/31 16:00:09.6	98.950	0.180	-1.350	-0.210
2020/01/31 16:00:09.7	98.960	0.200	-1.390	-0.250
2020/01/31 16:00:09.8	98.980	0.220	-1.430	-0.280
2020/01/31 16:00:09.9	98.990	0.230	-1.460	-0.310
2020/01/31 16:00:10.0	99.010	0.250	-1.480	-0.330
2020/01/31 16:00:10.1	99.020	0.260	-1.490	-0.350
2020/01/31 16:00:10.2	99.040	0.270	-1.490	-0.370
2020/01/31 16:00:10.3	99.050	0.270	-1.480	-0.390
2020/01/31 16:00:10.4	99.070	0.270	-1.460	-0.400
2020/01/31 16:00:10.5	99.080	0.270	-1.440	-0.410
2020/01/31 16:00:10.6	99.090	0.270	-1.400	-0.420
2020/01/31 16:00:10.7	99.090	0.260	-1.350	-0.420
2020/01/31 16:00:10.8	99.100	0.250	-1.290	-0.430
2020/01/31 16:00:10.9	99.110	0.230	-1.220	-0.430
2020/01/31 16:00:11.0	99.110	0.210	-1.140	-0.430
2020/01/31 16:00:11.1	99.120	0.190	-1.060	-0.430
2020/01/31 16:00:11.2	99.120	0.170	-0.960	-0.420
2020/01/31 16:00:11.3	99.120	0.140	-0.870	-0.410
2020/01/31 16:00:11.4	99.120	0.110	-0.760	-0.410
2020/01/31 16:00:11.5	99.120	0.080	-0.650	-0.400
2020/01/31 16:00:11.6	99.120	0.050	-0.530	-0.380
2020/01/31 16:00:11.7	99.110	0.020	-0.410	-0.370
2020/01/31 16:00:11.8	99.110	-0.020	-0.290	-0.350
2020/01/31 16:00:11.9	99.100	-0.060	-0.170	-0.340
2020/01/31 16:00:12.0	99.100	-0.090	-0.050	-0.320
2020/01/31 16:00:12.1	99.090	-0.130	0.070	-0.300
2020/01/31 16:00:12.2	99.080	-0.160	0.190	-0.280
2020/01/31 16:00:12.3	99.070	-0.200	0.310	-0.260
2020/01/31 16:00:12.4	99.060	-0.230	0.420	-0.230
2020/01/31 16:00:12.5	99.050	-0.270	0.530	-0.210
2020/01/31 16:00:12.6	99.040	-0.300	0.630	-0.180
2020/01/31 16:00:12.7	99.020	-0.330	0.730	-0.160
2020/01/31 16:00:12.8	99.010	-0.350	0.820	-0.130
2020/01/31 16:00:12.9	99.010	-0.370	0.900	-0.100
2020/01/31 16:00:13.0	99.000	-0.390	0.970	-0.080
2020/01/31 16:00:13.1	98.990	-0.410	1.030	-0.050
2020/01/31 16:00:13.2	98.980	-0.420	1.080	-0.020
2020/01/31 16:00:13.3	98.980	-0.430	1.120	0.000
2020/01/31 16:00:13.4	98.970	-0.440	1.160	0.030
2020/01/31 16:00:13.5	98.970	-0.440	1.180	0.050
2020/01/31 16:00:13.6	98.960	-0.440	1.190	0.080
2020/01/31 16:00:13.7	98.970	-0.430	1.180	0.100
2020/01/31 16:00:13.8	98.970	-0.420	1.180	0.120
2020/01/31 16:00:13.9	98.970	-0.410	1.160	0.140
2020/01/31 16:00:14.0	98.980	-0.390	1.130	0.160
2020/01/31 16:00:14.1	98.980	-0.360	1.090	0.180
2020/01/31 16:00:14.2	98.990	-0.340	1.040	0.190
2020/01/31 16:00:14.3	99.000	-0.310	0.990	0.200
2020/01/31 16:00:14.4	99.010	-0.280	0.920	0.210
2020/01/31 16:00:14.5	99.020	-0.240	0.860	0.220
2020/01/31 16:00:14.6	99.040	-0.210	0.780	0.230
2020/01/31 16:00:14.7	99.060	-0.170	0.700	0.230
2020/01/31 16:00:14.8	99.080	-0.120	0.610	0.240
2020/01/31 16:00:14.9	99.100	-0.080	0.520	0.240
2020/01/31 16:00:15.0	99.120	-0.040	0.430	0.230
2020/01/31 16:00:15.1	99.140	0.010	0.340	0.230
2020/01/31 16:00:15.2	99.170	0.050	0.240	0.230
2020/01/31 16:00:15.3	99.190	0.100	0.150	0.230
2020/01/31 16:00:15.4	99.210	0.140	0.050	0.220
2020/01/31 16:00:15.5	99.240	0.190	-0.040	0.220
2020/01/31 16:00:15.6	99.260	0.230	-0.140	0.220
2020/01/31 16:00:15.7	99.290	0.270	-0.230	0.220
2020/01/31 16:00:15.8	99.310	0.320	-0.320	0.230
2020/01/31 16:00:15.9	99.340	0.350	-0.400	0.230
2020/01/31 16:00:16.0	99.360	0.390	-0.480	0.240
2020/01/31 16:00:16.1	99.380	0.430	-0.560	0.240
2020/01/31 16:00:16.2	99.400	0.460	-0.630	0.250
2020/01/31 16:00:16.3	99.420	0.490	-0.700	0.270
2020/01/31 16:00:16.4	99.430	0.510	-0.760	0.280
2020/01/31 16:00:16.5	99.450	0.540	-0.810	0.300
2020/01/31 16:00:16.6	99.470	0.560	-0.860	0.320
2020/01/31 16:00:16.7	99.480	0.570	-0.900	0.340
2020/01/31 16:00:16.8	99.500	0.590	-0.940	0.360
2020/01/31 16:00:16.9	99.510	0.590	-0.970	0.380
2020/01/31 16:00:17.0	99.520	0.600	-0.990	0.410
2020/01/31 16:00:17.1	99.520	0.600	-1.000	0.430
2020/01/31 16:00:17.2	99.530	0.600	-1.010	0.460
2020/01/31 16:00:17.3	99.530	0.590	-1.010	0.480
2020/01/31 16:00:17.4	99.540	0.580	-1.000	0.510
2020/01/31 16:00:17.5	99.540	0.570	-0.990	0.540
2020/01/31 16:00:17.6	99.540	0.560	-0.970	0.570
2020/01/31 16:00:17.7	99.540	0.540	-0.950	0.600
2020/01/31 16:00:17.8	99.540	0.510	-0.910	0.630
2020/01/31 16:00:17.9	99.530	0.490	-0.880	0.660
2020/01/31 16:00:18.0	99.530	0.460	-0.840	0.690
2020/01/31 16:00:18.1	99.530	0.430	-0.790	0.720
2020/01/31 16:00:18.2	99.520	0.400	-0.740	0.750
2020/01/31 16:00:18.3	99.520	0.360	-0.690	0.780
2020/01/31 16:00:18.4	99.510	0.320	-0.630	0.810
2020/01/31 16:00:18.5	99.500	0.290	-0.580	0.850
2020/01/31 16:00:18.6	99.500	0.250	-0.520	0.880
2020/01/31 16:00:18.7	99.490	0.210	-0.450	0.910
2020/01/31 16:00:18.8	99.480	0.170	-0.390	0.940
2020/01/31 16:00:18.9	99.480	0.120	-0.330	0.980
2020/01/31 16:00:19.0	99.470	0.080	-0.270	1.010
2020/01/31 16:00:19.1	99.460	0.040	-0.210	1.040
2020/01/31 16:00:19.2	99.460	0.000	-0.150	1.080
2020/01/31 16:00:19.3	99.450	-0.040	-0.090	1.110
2020/01/31 16:00:19.4	99.450	-0.070	-0.030	1.140
2020/01/31 16:00:19.5	99.440	-0.110	0.020	1.180
2020/01/31 16:00:19.6	99.440	-0.150	0.070	1.210
2020/01/31 16:00:19.7	99.430	-0.180	0.120	1.250
2020/01/31 16:00:19.8	99.430	-0.210	0.160	1.280
2020/01/31 16:00:19.9	99.420	-0.240	0.200	1.320
2020/01/31 16:00:20.0	99.420	-0.270	0.230	1.350
2020/01/31 16:00:20.1	99.420	-0.290	0.260	1.390
2020/01/31 16:00:20.2	99.420	-0.310	0.290	1.420
2020/01/31 16:00:20.3	99.410	-0.330	0.310	1.460
2020/01/31 16:00:20.4	99.410	-0.350	0.330	1.500
2020/01/31 16:00:20.5	99.410	-0.360	0.340	1.530
2020/01/31 16:00:20.6	99.410	-0.370	0.350	1.570
2020/01/31 16:00:20.7	99.420	-0.380	0.340	1.600
2020/01/31 16:00:20.8	99.420	-0.390	0.340	1.630
2020/01/31 16:00:20.9	99.420	-0.390	0.340	1.670
2020/01/31 16:00:21.0	99.420	-0.390	0.320	1.700
2020/01/31 16:00:21.1	99.420	-0.390	0.310	1.720
2020/01/31 16:00:21.2	99.420	-0.390	0.290	1.750
2020/01/31 16:00:21.3	99.420	-0.380	0.270	1.770
2020/01/31 16:00:21.4	99.430	-0.370	0.240	1.800
2020/01/31 16:00:21.5	99.430	-0.360	0.210	1.810
2020/01/31 16:00:21.6	99.430	-0.350	0.180	1.830
2020/01/31 16:00:21.7	99.430	-0.340	0.150	1.840
2020/01/31 16:00:21.8	99.440	-0.330	0.110	1.850
2020/01/31 16:00:21.9	99.450	-0.310	0.070	1.850
2020/01/31 16:00:22.0	99.460	-0.290	0.030	1.850
2020/01/31 16:00:22.1	99.470	-0.280	-0.020	1.850
2020/01/31 16:00:22.2	99.480	-0.260	-0.060	1.840
2020/01/31 16:00:22.3	99.490	-0.240	-0.100	1.830
2020/01/31 16:00:22.4	99.510	-0.220	-0.150	1.810
2020/01/31 16:00:22.5	99.520	-0.200	-0.200	1.790
2020/01/31 16:00:22.6	99.540	-0.170	-0.240	1.770
2020/01/31 16:00:22.7	99.560	-0.150	-0.280	1.740
2020/01/31 16:00:22.8	99.580	-0.130	-0.330	1.710
2020/01/31 16:00:22.9	99.600	-0.110	-0.370	1.670
2020/01/31 16:00:23.0	99.610	-0.090	-0.410	1.630
2020/01/31 16:00:23.1	99.630	-0.070	-0.450	1.590
2020/01/31 16:00:23.2	99.640	-0.050	-0.490	1.550
2020/01/31 16:00:23.3	99.660	-0.040	-0.520	1.500
2020/01/31 16:00:23.4	99.670	-0.020	-0.550	1.450
2020/01/31 16:00:23.5	99.690	-0.000	-0.580	1.400
2020/01/31 16:00:23.6	99.700	0.010	-0.610	1.350
2020/01/31 16:00:23.7	99.710	0.030	-0.630	1.300
2020/01/31 16:00:23.8	99.710	0.040	-0.650	1.240
2020/01/31 16:00:23.9	99.720	0.050	-0.660	1.190
2020/01/31 16:00:24.0	99.720	0.060	-0.670	1.140
2020/01/31 16:00:24.1	99.720	0.070	-0.680	1.090
2020/01/31 16:00:24.2	99.720	0.080	-0.680	1.030
2020/01/31 16:00:24.3	99.720	0.080	-0.670	0.980
2020/01/31 16:00:24.4	99.710	0.080	-0.670	0.930
2020/01/31 16:00:24.5	99.700	0.090	-0.660	0.880
2020/01/31 16:00:24.6	99.700	0.090	-0.640	0.840
2020/01/31 16:00:24.7	99.680	0.090	-0.620	0.800
2020/01/31 16:00:24.8	99.670	0.090	-0.600	0.750
2020/01/31 16:00:24.9	99.660	0.080	-0.570	0.710
2020/01/31 16:00:25.0	99.640	0.080	-0.540	0.670
2020/01/31 16:00:25.1	99.630	0.070	-0.510	0.630
2020/01/31 16:00:25.2	99.620	0.060	-0.480	0.600
2020/01/31 16:00:25.3	99.600	0.060	-0.450	0.560
2020/01/31 16:00:25.4	99.590	0.050	-0.410	0.530
2020/01/31 16:00:25.5	99.580	0.040	-0.380	0.500
2020/01/31 16:00:25.6	99.570	0.030	-0.340	0.470
2020/01/31 16:00:25.7	99.560	0.020	-0.310	0.440
2020/01/31 16:00:25.8	99.550	0.000	-0.270	0.410
2020/01/31 16:00:25.9	99.540	-0.010	-0.230	0.390
2020/01/31 16:00:26.0	99.540	-0.020	-0.190	0.360
2020/01/31 16:00:26.1	99.540	-0.030	-0.160	0.330
2020/01/31 16:00:26.2	99.540	-0.040	-0.120	0.310
2020/01/31 16:00:26.3	99.540	-0.050	-0.090	0.280
2020/01/31 16:00:26.4	99.540	-0.070	-0.060	0.250
2020/01/31 16:00:26.5	99.550	-0.080	-0.030	0.220
2020/01/31 16:00:26.6	99.550	-0.090	0.000	0.200
2020/01/31 16:00:26.7	99.550	-0.100	0.040	0.170
2020/01/31 16:00:26.8	99.560	-0.100	0.060	0.140
2020/01/31 16:00:26.9	99.570	-0.110	0.080	0.110
2020/01/31 16:00:27.0	99.580	-0.120	0.100	0.080
2020/01/31 16:00:27.1	99.590	-0.120	0.120	0.050
2020/01/31 16:00:27.2	99.600	-0.130	0.140	0.020
2020/01/31 16:00:27.3	99.610	-0.130	0.150	-0.020
2020/01/31 16:00:27.4	99.620	-0.130	0.170	-0.050
2020/01/31 16:00:27.5	99.630	-0.130	0.180	-0.080
2020/01/31 16:00:27.6	99.640	-0.130	0.180	-0.110
2020/01/31 16:00:27.7	99.660	-0.120	0.190	-0.140
2020/01/31 16:00:27.8	99.670	-0.120	0.190	-0.170
2020/01/31 16:00:27.9	99.680	-0.110	0.190	-0.200
2020/01/31 16:00:28.0	99.680	-0.110	0.190	-0.230
2020/01/31 16:00:28.1	99.690	-0.100	0.190	-0.250
2020/01/31 16:00:28.2	99.700	-0.090	0.190	-0.280
2020/01/31 16:00:28.3	99.700	-0.080	0.190	-0.300
2020/01/31 16:00:28.4	99.710	-0.070	0.190	-0.320
2020/01/31 16:00:28.5	99.710	-0.060	0.180	-0.350
2020/01/31 16:00:28.6	99.710	-0.040	0.180	-0.370
2020/01/31 16:00:28.7	99.690	-0.030	0.170	-0.380
2020/01/31 16:00:28.8	99.700	-0.020	0.160	-0.400
2020/01/31 16:00:28.9	99.700	-0.000	0.160	-0.410
2020/01/31 16:00:29.0	99.700	0.010	0.150	-0.430
2020/01/31 16:00:29.1	99.700	0.030	0.140	-0.440
2020/01/31 16:00:29.2	99.700	0.040	0.130	-0.450
2020/01/31 16:00:29.3	99.700	0.060	0.120	-0.450
2020/01/31 16:00:29.4	99.700	0.070	0.110	-0.460
2020/01/31 16:00:29.5	99.700	0.080	0.090	-0.460
2020/01/31 16:00:29.6	99.690	0.100	0.080	-0.460
2020/01/31 16:00:29.7	99.690	0.110	0.060	-0.470
2020/01/31 16:00:29.8	99.680	0.130	0.040	-0.460
2020/01/31 16:00:29.9	99.680	0.140	0.020	-0.460
2020/01/31 16:00:30.0	99.680	0.160	0.000	-0.450
2020/01/31 16:00:30.1	99.680	0.170	-0.020	-0.440
2020/01/31 16:00:30.2	99.680	0.190	-0.040	-0.430
2020/01/31 16:00:30.3	99.670	0.200	-0.070	-0.420
2020/01/31 16:00:30.4	99.670	0.210	-0.100	-0.410
2020/01/31 16:00:30.5	99.670	0.230	-0.130	-0.390
2020/01/31 16:00:30.6	99.670	0.240	-0.160	-0.370
2020/01/31 16:00:30.7	99.660	0.250	-0.190	-0.350
2020/01/31 16:00:30.8	99.660	0.260	-0.220	-0.320
2020/01/31 16:00:30.9	99.660	0.280	-0.250	-0.300
2020/01/31 16:00:31.0	99.660	0.290	-0.280	-0.270
2020/01/31 16:00:31.1	99.660	0.300	-0.310	-0.240
2020/01/31 16:00:31.2	99.660	0.310	-0.330	-0.210
2020/01/31 16:00:31.3	99.650	0.310	-0.360	-0.170
2020/01/31 16:00:31.4	99.650	0.320	-0.380	-0.140
2020/01/31 16:00:31.5	99.650	0.330	-0.410	-0.100
2020/01/31 16:00:31.6	99.650	0.330	-0.420	-0.060
2020/01/31 16:00:31.7	99.650	0.330	-0.440	-0.010
2020/01/31 16:00:31.8	99.650	0.330	-0.450	0.030
2020/01/31 16:00:31.9	99.650	0.330	-0.460	0.080
2020/01/31 16:00:32.0	99.650	0.330	-0.470	0.130
2020/01/31 16:00:32.1	99.650	0.330	-0.470	0.180
2020/01/31 16:00:32.2	99.640	0.320	-0.470	0.230
2020/01/31 16:00:32.3	99.640	0.320	-0.460	0.280
2020/01/31 16:00:32.4	99.640	0.310	-0.450	0.330
2020/01/31 16:00:32.5	99.630	0.300	-0.440	0.380
2020/01/31 16:00:32.6	99.630	0.290	-0.430	0.440
2020/01/31 16:00:32.7	99.620	0.280	-0.410	0.500
2020/01/31 16:00:32.8	99.620	0.260	-0.390	0.550
2020/01/31 16:00:32.9	99.610	0.250	-0.360	0.600
2020/01/31 16:00:33.0	99.600	0.230	-0.340	0.660
2020/01/31 16:00:33.1	99.600	0.220	-0.320	0.710
2020/01/31 16:00:33.2	99.590	0.200	-0.290	0.760
2020/01/31 16:00:33.3	99.580	0.180	-0.260	0.820
2020/01/31 16:00:33.4	99.580	0.160	-0.240	0.870
2020/01/31 16:00:33.5	99.570	0.140	-0.210	0.910
2020/01/31 16:00:33.6	99.570	0.120	-0.180	0.960
2020/01/31 16:00:33.7	99.570	0.100	-0.160	1.000
2020/01/31 16:00:33.8	99.570	0.080	-0.140	1.040
2020/01/31 16:00:33.9	99.570	0.060	-0.120	1.080
2020/01/31 16:00:34.0	99.570	0.040	-0.100	1.120
2020/01/31 16:00:34.1	99.570	0.020	-0.080	1.150
2020/01/31 16:00:34.2	99.580	0.000	-0.070	1.180
2020/01/31 16:00:34.3	99.580	-0.010	-0.060	1.210
2020/01/31 16:00:34.4	99.590	-0.030	-0.050	1.240
2020/01/31 16:00:34.5	99.600	-0.050	-0.040	1.260
2020/01/31 16:00:34.6	99.610	-0.060	-0.040	1.280
2020/01/31 16:00:34.7	99.630	-0.080	-0.040	1.300
2020/01/31 16:00:34.8	99.640	-0.090	-0.040	1.310
2020/01/31 16:00:34.9	99.660	-0.100	-0.050	1.330
2020/01/31 16:00:35.0	99.670	-0.120	-0.060	1.340
2020/01/31 16:00:35.1	99.690	-0.130	-0.070	1.350
2020/01/31 16:00:35.2	99.710	-0.130	-0.080	1.360
2020/01/31 16:00:35.3	99.730	-0.140	-0.090	1.370
2020/01/31 16:00:35.4	99.740	-0.150	-0.110	1.380
2020/01/31 16:00:35.5	99.760	-0.150	-0.130	1.390
2020/01/31 16:00:35.6	99.780	-0.160	-0.150	1.400
2020/01/31 16:00:35.7	99.800	-0.160	-0.170	1.410
2020/01/31 16:00:35.8	99.820	-0.160	-0.200	1.430
2020/01/31 16:00:35.9	99.830	-0.160	-0.220	1.440
2020/01/31 16:00:36.0	99.850	-0.160	-0.250	1.460
2020/01/31 16:00:36.1	99.860	-0.160	-0.280	1.470
2020/01/31 16:00:36.2	99.870	-0.160	-0.300	1.490
2020/01/31 16:00:36.3	99.880	-0.160	-0.330	1.510
2020/01/31 16:00:36.4	99.890	-0.150	-0.350	1.530
2020/01/31 16:00:36.5	99.900	-0.150	-0.380	1.550
2020/01/31 16:00:36.6	99.900	-0.150	-0.400	1.570
2020/01/31 16:00:36.7	99.910	-0.140	-0.430	1.590
2020/01/31 16:00:36.8	99.910	-0.140	-0.450	1.620
2020/01/31 16:00:36.9	99.910	-0.140	-0.460	1.640
2020/01/31 16:00:37.0	99.920	-0.140	-0.480	1.660
2020/01/31 16:00:37.1	99.920	-0.140	-0.490	1.670
2020/01/31 16:00:37.2	99.920	-0.140	-0.500	1.690
2020/01/31 16:00:37.3	99.920	-0.140	-0.500	1.710
2020/01/31 16:00:37.4	99.920	-0.140	-0.500	1.720
2020/01/31 16:00:37.5	99.920	-0.150	-0.500	1.730
2020/01/31 16:00:37.6	99.910	-0.150	-0.490	1.740
2020/01/31 16:00:37.7	99.910	-0.160	-0.480	1.750
2020/01/31 16:00:37.8	99.910	-0.160	-0.470	1.750
2020/01/31 16:00:37.9	99.910	-0.170	-0.450	1.750
2020/01/31 16:00:38.0	99.910	-0.180	-0.430	1.750
2020/01/31 16:00:38.1	99.910	-0.190	-0.400	1.750
2020/01/31 16:00:38.2	99.900	-0.200	-0.370	1.740
2020/01/31 16:00:38.3	99.900	-0.220	-0.340	1.720
2020/01/31 16:00:38.4	99.900	-0.230	-0.300	1.710
2020/01/31 16:00:38.5	99.890	-0.250	-0.260	1.690
2020/01/31 16:00:38.6	99.890	-0.260	-0.220	1.670
2020/01/31 16:00:38.7	99.890	-0.280	-0.170	1.640
2020/01/31 16:00:38.8	99.880	-0.300	-0.120	1.610
2020/01/31 16:00:38.9	99.880	-0.310	-0.070	1.580
2020/01/31 16:00:39.0	99.870	-0.330	-0.020	1.550
2020/01/31 16:00:39.1	99.860	-0.350	0.040	1.510
2020/01/31 16:00:39.2	99.850	-0.370	0.090	1.470
2020/01/31 16:00:39.3	99.840	-0.380	0.150	1.420
2020/01/31 16:00:39.4	99.830	-0.400	0.210	1.380
2020/01/31 16:00:39.5	99.820	-0.410	0.260	1.330
2020/01/31 16:00:39.6	99.810	-0.430	0.320	1.280
2020/01/31 16:00:39.7	99.800	-0.440	0.370	1.230
2020/01/31 16:00:39.8	99.790	-0.450	0.420	1.170
2020/01/31 16:00:39.9	99.770	-0.460	0.470	1.110
2020/01/31 16:00:40.0	99.760	-0.470	0.520	1.060
2020/01/31 16:00:40.1	99.740	-0.470	0.560	1.000
2020/01/31 16:00:40.2	99.720	-0.470	0.590	0.930
2020/01/31 16:00:40.3	99.700	-0.470	0.620	0.870
2020/01/31 16:00:40.4	99.680	-0.460	0.640	0.810
2020/01/31 16:00:40.5	99.650	-0.450	0.660	0.750
2020/01/31 16:00:40.6	99.630	-0.440	0.660	0.680
2020/01/31 16:00:40.7	99.600	-0.430	0.660	0.620
2020/01/31 16:00:40.8	99.580	-0.410	0.650	0.550
2020/01/31 16:00:40.9	99.550	-0.390	0.630	0.480
2020/01/31 16:00:41.0	99.530	-0.360	0.600	0.420
2020/01/31 16:00:41.1	99.500	-0.330	0.570	0.350
2020/01/31 16:00:41.2	99.480	-0.300	0.520	0.280
2020/01/31 16:00:41.3	99.450	-0.260	0.470	0.210
2020/01/31 16:00:41.4	99.430	-0.230	0.410	0.140
2020/01/31 16:00:41.5	99.410	-0.180	0.340	0.070
2020/01/31 16:00:41.6	99.390	-0.140	0.260	-0.000
2020/01/31 16:00:41.7	99.370	-0.100	0.170	-0.080
2020/01/31 16:00:41.8	99.360	-0.050	0.080	-0.150
2020/01/31 16:00:41.9	99.350	0.000	-0.010	-0.220
2020/01/31 16:00:42.0	99.340	0.050	-0.110	-0.300
2020/01/31 16:00:42.1	99.330	0.100	-0.210	-0.370
2020/01/31 16:00:42.2	99.330	0.150	-0.310	-0.450
2020/01/31 16:00:42.3	99.340	0.200	-0.410	-0.530
2020/01/31 16:00:42.4	99.340	0.250	-0.510	-0.600
2020/01/31 16:00:42.5	99.350	0.300	-0.610	-0.680
2020/01/31 16:00:42.6	99.360	0.350	-0.710	-0.750
2020/01/31 16:00:42.7	99.370	0.390	-0.800	-0.830
2020/01/31 16:00:42.8	99.390	0.430	-0.890	-0.910
2020/01/31 16:00:42.9	99.410	0.470	-0.980	-0.980
2020/01/31 16:00:43.0	99.440	0.510	-1.060	-1.050
2020/01/31 16:00:43.1	99.470	0.540	-1.130	-1.120
2020/01/31 16:00:43.2	99.500	0.570	-1.190	-1.190
2020/01/31 16:00:43.3	99.530	0.600	-1.240	-1.260
2020/01/31 16:00:43.4	99.570	0.620	-1.290	-1.320
2020/01/31 16:00:43.5	99.610	0.640	-1.320	-1.390
2020/01/31 16:00:43.6	99.650	0.650	-1.350	-1.440
2020/01/31 16:00:43.7	99.690	0.660	-1.370	-1.500
2020/01/31 16:00:43.8	99.740	0.660	-1.370	-1.550
2020/01/31 16:00:43.9	99.780	0.670	-1.370	-1.590
2020/01/31 16:00:44.0	99.830	0.660	-1.350	-1.630
2020/01/31 16:00:44.1	99.870	0.650	-1.320	-1.670
2020/01/31 16:00:44.2	99.920	0.640	-1.290	-1.700
2020/01/31 16:00:44.3	99.960	0.630	-1.240	-1.720
2020/01/31 16:00:44.4	100.000	0.610	-1.190	-1.740
2020/01/31 16:00:44.5	100.040	0.590	-1.120	-1.750
2020/01/31 16:00:44.6	100.080	0.560	-1.050	-1.750
2020/01/31 16:00:44.7	100.120	0.540	-0.970	-1.740
2020/01/31 16:00:44.8	100.160	0.510	-0.880	-1.730
2020/01/31 16:00:44.9	100.190	0.470	-0.790	-1.710
2020/01/31 16:00:45.0	100.220	0.440	-0.700	-1.690
2020/01/31 16:00:45.1	100.240	0.400	-0.600	-1.650
2020/01/31 16:00:45.2	100.270	0.370	-0.490	-1.610
2020/01/31 16:00:45.3	100.290	0.330	-0.390	-1.560
2020/01/31 16:00:45.4	100.300	0.290	-0.280	-1.510
2020/01/31 16:00:45.5	100.320	0.250	-0.170	-1.450
2020/01/31 16:00:45.6	100.330	0.210	-0.060	-1.380
2020/01/31 16:00:45.7	100.330	0.170	0.050	-1.300
2020/01/31 16:00:45.8	100.330	0.130	0.160	-1.220
2020/01/31 16:00:45.9	100.340	0.090	0.270	-1.140
2020/01/31 16:00:46.0	100.330	0.050	0.370	-1.050
2020/01/31 16:00:46.1	100.330	0.010	0.470	-0.960
2020/01/31 16:00:46.2	100.320	-0.030	0.560	-0.870
2020/01/31 16:00:46.3	100.310	-0.060	0.650	-0.770
2020/01/31 16:00:46.4	100.290	-0.100	0.740	-0.660
2020/01/31 16:00:46.5	100.280	-0.130	0.810	-0.560
2020/01/31 16:00:46.6	100.260	-0.160	0.880	-0.450
2020/01/31 16:00:46.7	100.230	-0.190	0.940	-0.350
2020/01/31 16:00:46.8	100.210	-0.210	0.990	-0.240
2020/01/31 16:00:46.9	100.180	-0.240	1.040	-0.120
2020/01/31 16:00:47.0	100.150	-0.260	1.070	-0.010
2020/01/31 16:00:47.1	100.120	-0.270	1.090	0.100
2020/01/31 16:00:47.2	100.090	-0.290	1.110	0.210
2020/01/31 16:00:47.3	100.060	-0.300	1.110	0.330
2020/01/31 16:00:47.4	100.020	-0.310	1.110	0.440
2020/01/31 16:00:47.5	99.990	-0.320	1.090	0.550
2020/01/31 16:00:47.6	99.950	-0.320	1.070	0.660
2020/01/31 16:00:47.7	99.910	-0.320	1.030	0.770
2020/01/31 16:00:47.8	99.880	-0.320	0.990	0.880
2020/01/31 16:00:47.9	99.840	-0.320	0.930	0.980
2020/01/31 16:00:48.0	99.800	-0.310	0.870	1.080
2020/01/31 16:00:48.1	99.770	-0.300	0.800	1.180
2020/01/31 16:00:48.2	99.730	-0.290	0.720	1.270
2020/01/31 16:00:48.3	99.700	-0.280	0.630	1.360
2020/01/31 16:00:48.4	99.670	-0.260	0.540	1.450
2020/01/31 16:00:48.5	99.640	-0.240	0.450	1.540
2020/01/31 16:00:48.6	99.610	-0.230	0.340	1.620
2020/01/31 16:00:48.7	99.600	-0.210	0.240	1.700
2020/01/31 16:00:48.8	99.580	-0.180	0.130	1.770
2020/01/31 16:00:48.9	99.560	-0.160	0.020	1.840
2020/01/31 16:00:49.0	99.540	-0.140	-0.090	1.910
2020/01/31 16:00:49.1	99.530	-0.110	-0.210	1.980
2020/01/31 16:00:49.2	99.510	-0.090	-0.320	2.040
2020/01/31 16:00:49.3	99.500	-0.070	-0.430	2.100
2020/01/31 16:00:49.4	99.500	-0.040	-0.540	2.150
2020/01/31 16:00:49.5	99.490	-0.020	-0.650	2.200
2020/01/31 16:00:49.6	99.490	0.010	-0.750	2.250
2020/01/31 16:00:49.7	99.500	0.030	-0.850	2.300
2020/01/31 16:00:49.8	99.510	0.050	-0.940	2.340
2020/01/31 16:00:49.9	99.510	0.070	-1.020	2.380
2020/01/31 16:00:50.0	99.520	0.090	-1.100	2.420
2020/01/31 16:00:50.1	99.540	0.110	-1.170	2.450
2020/01/31 16:00:50.2	99.550	0.130	-1.230	2.480
2020/01/31 16:00:50.3	99.570	0.140	-1.280	2.500
2020/01/31 16:00:50.4	99.590	0.160	-1.320	2.520
2020/01/31 16:00:50.5	99.620	0.170	-1.350	2.540
2020/01/31 16:00:50.6	99.640	0.180	-1.370	2.550
2020/01/31 16:00:50.7	99.670	0.190	-1.380	2.560
2020/01/31 16:00:50.8	99.690	0.200	-1.380	2.560
2020/01/31 16:00:50.9	99.720	0.200	-1.370	2.560
2020/01/31 16:00:51.0	99.750	0.200	-1.350	2.550
2020/01/31 16:00:51.1	99.790	0.200	-1.320	2.540
2020/01/31 16:00:51.2	99.820	0.200	-1.280	2.520
2020/01/31 16:00:51.3	99.850	0.200	-1.230	2.490
2020/01/31 16:00:51.4	99.880	0.190	-1.170	2.470
2020/01/31 16:00:51.5	99.920	0.180	-1.110	2.430
2020/01/31 16:00:51.6	99.950	0.170	-1.040	2.390
2020/01/31 16:00:51.7	99.990	0.160	-0.960	2.350
2020/01/31 16:00:51.8	100.020	0.150	-0.880	2.300
2020/01/31 16:00:51.9	100.040	0.130	-0.790	2.240
2020/01/31 16:00:52.0	100.070	0.110	-0.710	2.190
2020/01/31 16:00:52.1	100.090	0.100	-0.610	2.120
2020/01/31 16:00:52.2	100.120	0.080	-0.520	2.060
2020/01/31 16:00:52.3	100.140	0.060	-0.430	1.990
2020/01/31 16:00:52.4	100.160	0.040	-0.330	1.920
2020/01/31 16:00:52.5	100.170	0.020	-0.240	1.840
2020/01/31 16:00:52.6	100.190	-0.000	-0.150	1.760
2020/01/31 16:00:52.7	100.190	-0.030	-0.050	1.680
2020/01/31 16:00:52.8	100.200	-0.050	0.030	1.600
2020/01/31 16:00:52.9	100.210	-0.070	0.120	1.510
2020/01/31 16:00:53.0	100.220	-0.090	0.200	1.420
2020/01/31 16:00:53.1	100.230	-0.110	0.270	1.330
2020/01/31 16:00:53.2	100.230	-0.130	0.340	1.240
2020/01/31 16:00:53.3	100.240	-0.150	0.410	1.140
2020/01/31 16:00:53.4	100.240	-0.170	0.470	1.050
2020/01/31 16:00:53.5	100.240	-0.190	0.520	0.950
2020/01/31 16:00:53.6	100.240	-0.210	0.570	0.860
2020/01/31 16:00:53.7	100.230	-0.220	0.610	0.760
2020/01/31 16:00:53.8	100.230	-0.240	0.640	0.670
2020/01/31 16:00:53.9	100.230	-0.250	0.670	0.570
2020/01/31 16:00:54.0	100.230	-0.260	0.690	0.480
2020/01/31 16:00:54.1	100.220	-0.280	0.700	0.390
2020/01/31 16:00:54.2	100.220	-0.290	0.710	0.300
2020/01/31 16:00:54.3	100.220	-0.300	0.710	0.220
2020/01/31 16:00:54.4	100.210	-0.300	0.710	0.130
2020/01/31 16:00:54.5	100.210	-0.310	0.690	0.050
2020/01/31 16:00:54.6	100.200	-0.320	0.680	-0.020
2020/01/31 16:00:54.7	100.200	-0.320	0.650	-0.100
2020/01/31 16:00:54.8	100.190	-0.330	0.620	-0.170
2020/01/31 16:00:54.9	100.190	-0.330	0.590	-0.240
2020/01/31 16:00:55.0	100.180	-0.330	0.550	-0.310
2020/01/31 16:00:55.1	100.170	-0.330	0.510	-0.370
2020/01/31 16:00:55.2	100.170	-0.330	0.460	-0.430
2020/01/31 16:00:55.3	100.160	-0.330	0.410	-0.490
2020/01/31 16:00:55.4	100.150	-0.330	0.350	-0.540
2020/01/31 16:00:55.5	100.140	-0.320	0.300	-0.590
2020/01/31 16:00:55.6	100.130	-0.320	0.240	-0.640
2020/01/31 16:00:55.7	100.120	-0.310	0.180	-0.680
2020/01/31 16:00:55.8	100.110	-0.310	0.120	-0.730
2020/01/31 16:00:55.9	100.100	-0.300	0.050	-0.770
2020/01/31 16:00:56.0	100.090	-0.290	-0.010	-0.800
2020/01/31 16:00:56.1	100.080	-0.280	-0.070	-0.840
2020/01/31 16:00:56.2	100.070	-0.270	-0.130	-0.870
2020/01/31 16:00:56.3	100.060	-0.260	-0.200	-0.900
2020/01/31 16:00:56.4	100.050	-0.250	-0.260	-0.930
2020/01/31 16:00:56.5	100.040	-0.240	-0.310	-0.950
2020/01/31 16:00:56.6	100.030	-0.220	-0.370	-0.970
2020/01/31 16:00:56.7	100.010	-0.210	-0.430	-0.990
2020/01/31 16:00:56.8	100.010	-0.190	-0.480	-1.010
2020/01/31 16:00:56.9	100.000	-0.170	-0.530	-1.030
2020/01/31 16:00:57.0	100.000	-0.150	-0.580	-1.050
2020/01/31 16:00:57.1	99.990	-0.140	-0.620	-1.070
2020/01/31 16:00:57.2	99.990	-0.120	-0.660	-1.080
2020/01/31 16:00:57.3	99.990	-0.100	-0.700	-1.100
2020/01/31 16:00:57.4	99.990	-0.080	-0.730	-1.110
2020/01/31 16:00:57.5	99.990	-0.060	-0.760	-1.130
2020/01/31 16:00:57.6	100.000	-0.040	-0.780	-1.150
2020/01/31 16:00:57.7	100.010	-0.020	-0.810	-1.160
2020/01/31 16:00:57.8	100.020	0.010	-0.830	-1.170
2020/01/31 16:00:57.9	100.020	0.030	-0.840	-1.190
2020/01/31 16:00:58.0	100.040	0.050	-0.850	-1.200
2020/01/31 16:00:58.1	100.050	0.070	-0.860	-1.220
2020/01/31 16:00:58.2	100.060	0.090	-0.860	-1.240
2020/01/31 16:00:58.3	100.080	0.110	-0.860	-1.250
2020/01/31 16:00:58.4	100.100	0.130	-0.860	-1.260
2020/01/31 16:00:58.5	100.120	0.150	-0.860	-1.280
2020/01/31 16:00:58.6	100.140	0.170	-0.850	-1.290
2020/01/31 16:00:58.7	100.170	0.190	-0.830	-1.300
2020/01/31 16:00:58.8	100.190	0.210	-0.820	-1.300
2020/01/31 16:00:58.9	100.210	0.230	-0.800	-1.310
2020/01/31 16:00:59.0	100.230	0.250	-0.780	-1.310
2020/01/31 16:00:59.1	100.250	0.260	-0.750	-1.310
2020/01/31 16:00:59.2	100.270	0.280	-0.720	-1.300
2020/01/31 16:00:59.3	100.290	0.290	-0.690	-1.290
2020/01/31 16:00:59.4	100.300	0.300	-0.660	-1.270
2020/01/31 16:00:59.5	100.320	0.310	-0.620	-1.250
2020/01/31 16:00:59.6	100.330	0.320	-0.580	-1.220
2020/01/31 16:00:59.7	100.340	0.330	-0.540	-1.180
2020/01/31 16:00:59.8	100.350	0.330	-0.500	-1.140
2020/01/31 16:00:59.9	100.350	0.340	-0.450	-1.100
2020/01/31 16:01:00.0	100.360	0.340	-0.400	-1.050
2020/01/31 16:01:00.1	100.360	0.330	-0.350	-0.990
2020/01/31 16:01:00.2	100.350	0.330	-0.300	-0.930
2020/01/31 16:01:00.3	100.350	0.320	-0.240	-0.860
2020/01/31 16:01:00.4	100.340	0.320	-0.180	-0.790
2020/01/31 16:01:00.5	100.330	0.310	-0.120	-0.710
2020/01/31 16:01:00.6	100.320	0.290	-0.060	-0.630
2020/01/31 16:01:00.7	100.310	0.280	0.010	-0.550
2020/01/31 16:01:00.8	100.290	0.260	0.070	-0.460
2020/01/31 16:01:00.9	100.270	0.240	0.130	-0.370
2020/01/31 16:01:01.0	100.250	0.220	0.190	-0.280
2020/01/31 16:01:01.1	100.230	0.200	0.250	-0.180
2020/01/31 16:01:01.2	100.200	0.180	0.310	-0.090
2020/01/31 16:01:01.3	100.180	0.150	0.370	0.010
2020/01/31 16:01:01.4	100.160	0.130	0.420	0.100
2020/01/31 16:01:01.5	100.130	0.100	0.470	0.190
2020/01/31 16:01:01.6	100.110	0.070	0.520	0.290
2020/01/31 16:01:01.7	100.090	0.050	0.560	0.380
2020/01/31 16:01:01.8	100.070	0.020	0.600	0.460
2020/01/31 16:01:01.9	100.060	-0.010	0.630	0.550
2020/01/31 16:01:02.0	100.040	-0.030	0.660	0.630
2020/01/31 16:01:02.1	100.030	-0.060	0.690	0.700
2020/01/31 16:01:02.2	100.020	-0.080	0.710	0.770
2020/01/31 16:01:02.3	100.020	-0.100	0.720	0.830
2020/01/31 16:01:02.4	100.010	-0.120	0.720	0.890
2020/01/31 16:01:02.5	100.010	-0.140	0.720	0.940
2020/01/31 16:01:02.6	100.020	-0.160	0.720	0.990
2020/01/31 16:01:02.7	100.030	-0.170	0.710	1.030
2020/01/31 16:01:02.8	100.040	-0.180	0.690	1.060
2020/01/31 16:01:02.9	100.050	-0.190	0.670	1.100
2020/01/31 16:01:03.0	100.070	-0.200	0.640	1.120
2020/01/31 16:01:03.1	100.090	-0.200	0.610	1.150
2020/01/31 16:01:03.2	100.110	-0.200	0.570	1.170
2020/01/31 16:01:03.3	100.130	-0.200	0.530	1.180
2020/01/31 16:01:03.4	100.160	-0.200	0.480	1.200
2020/01/31 16:01:03.5	100.180	-0.190	0.430	1.210
2020/01/31 16:01:03.6	100.210	-0.180	0.380	1.220
2020/01/31 16:01:03.7	100.230	-0.170	0.320	1.230
2020/01/31 16:01:03.8	100.260	-0.160	0.260	1.240
2020/01/31 16:01:03.9	100.290	-0.140	0.190	1.250
2020/01/31 16:01:04.0	100.310	-0.120	0.130	1.260
2020/01/31 16:01:04.1	100.340	-0.100	0.070	1.270
2020/01/31 16:01:04.2	100.370	-0.080	-0.000	1.280
2020/01/31 16:01:04.3	100.390	-0.060	-0.070	1.290
2020/01/31 16:01:04.4	100.410	-0.030	-0.140	1.300
2020/01/31 16:01:04.5	100.430	-0.010	-0.210	1.310
2020/01/31 16:01:04.6	100.450	0.020	-0.270	1.330
2020/01/31 16:01:04.7	100.470	0.050	-0.340	1.350
2020/01/31 16:01:04.8	100.490	0.080	-0.410	1.360
2020/01/31 16:01:04.9	100.500	0.100	-0.480	1.380
2020/01/31 16:01:05.0	100.510	0.130	-0.540	1.400
2020/01/31 16:01:05.1	100.520	0.160	-0.610	1.420
2020/01/31 16:01:05.2	100.520	0.190	-0.670	1.440
2020/01/31 16:01:05.3	100.530	0.220	-0.730	1.460
2020/01/31 16:01:05.4	100.530	0.240	-0.790	1.480
2020/01/31 16:01:05.5	100.530	0.270	-0.850	1.500
2020/01/31 16:01:05.6	100.530	0.300	-0.900	1.520
2020/01/31 16:01:05.7	100.540	0.320	-0.960	1.530
2020/01/31 16:01:05.8	100.530	0.340	-1.010	1.550
2020/01/31 16:01:05.9	100.530	0.360	-1.060	1.570
2020/01/31 16:01:06.0	100.520	0.380	-1.100	1.580
2020/01/31 16:01:06.1	100.510	0.400	-1.130	1.590
2020/01/31 16:01:06.2	100.500	0.420	-1.170	1.600
2020/01/31 16:01:06.3	100.490	0.430	-1.200	1.610
2020/01/31 16:01:06.4	100.480	0.440	-1.220	1.610
2020/01/31 16:01:06.5	100.480	0.450	-1.240	1.620
2020/01/31 16:01:06.6	100.470	0.460	-1.250	1.620
2020/01/31 16:01:06.7	100.450	0.460	-1.260	1.620
2020/01/31 16:01:06.8	100.440	0.460	-1.260	1.620
2020/01/31 16:01:06.9	100.430	0.460	-1.250	1.610
2020/01/31 16:01:07.0	100.420	0.460	-1.240	1.600
2020/01/31 16:01:07.1	100.420	0.450	-1.220	1.590
2020/01/31 16:01:07.2	100.410	0.440	-1.200	1.580
2020/01/31 16:01:07.3	100.400	0.420	-1.160	1.560
2020/01/31 16:01:07.4	100.400	0.410	-1.120	1.540
2020/01/31 16:01:07.5	100.400	0.380	-1.070	1.520
2020/01/31 16:01:07.6	100.390	0.360	-1.020	1.500
2020/01/31 16:01:07.7	100.400	0.330	-0.960	1.480
2020/01/31 16:01:07.8	100.400	0.310	-0.890	1.450
2020/01/31 16:01:07.9	100.400	0.270	-0.820	1.420
2020/01/31 16:01:08.0	100.400	0.240	-0.740	1.390
2020/01/31 16:01:08.1	100.400	0.200	-0.650	1.360
2020/01/31 16:01:08.2	100.410	0.160	-0.560	1.330
2020/01/31 16:01:08.3	100.410	0.120	-0.470	1.300
2020/01/31 16:01:08.4	100.410	0.080	-0.370	1.260
2020/01/31 16:01:08.5	100.420	0.040	-0.270	1.230
2020/01/31 16:01:08.6	100.420	-0.010	-0.170	1.190
2020/01/31 16:01:08.7	100.430	-0.060	-0.060	1.160
2020/01/31 16:01:08.8	100.440	-0.100	0.040	1.120
2020/01/31 16:01:08.9	100.440	-0.150	0.150	1.080
2020/01/31 16:01:09.0	100.450	-0.200	0.250	1.040
2020/01/31 16:01:09.1	100.450	-0.240	0.350	1.000
2020/01/31 16:01:09.2	100.460	-0.290	0.440	0.970
2020/01/31 16:01:09.3	100.460	-0.330	0.530	0.930
2020/01/31 16:01:09.4	100.470	-0.380	0.620	0.890
2020/01/31 16:01:09.5	100.470	-0.420	0.700	0.850
2020/01/31 16:01:09.6	100.470	-0.460	0.780	0.810
2020/01/31 16:01:09.7	100.440	-0.500	0.850	0.770
2020/01/31 16:01:09.8	100.440	-0.530	0.910	0.730
2020/01/31 16:01:09.9	100.440	-0.570	0.960	0.690
2020/01/31 16:01:10.0	100.440	-0.600	1.010	0.650
2020/01/31 16:01:10.1	100.440	-0.630	1.050	0.600
2020/01/31 16:01:10.2	100.430	-0.660	1.080	0.560
2020/01/31 16:01:10.3	100.430	-0.680	1.100	0.510
2020/01/31 16:01:10.4	100.430	-0.700	1.110	0.460
2020/01/31 16:01:10.5	100.420	-0.720	1.120	0.410
2020/01/31 16:01:10.6	100.420	-0.740	1.110	0.360
2020/01/31 16:01:10.7	100.420	-0.750	1.100	0.300
2020/01/31 16:01:10.8	100.420	-0.760	1.090	0.240
2020/01/31 16:01:10.9	100.420	-0.770	1.060	0.180
2020/01/31 16:01:11.0	100.420	-0.770	1.030	0.120
2020/01/31 16:01:11.1	100.410	-0.780	0.990	0.060
2020/01/31 16:01:11.2	100.410	-0.780	0.940	-0.010
2020/01/31 16:01:11.3	100.410	-0.770	0.890	-0.070
2020/01/31 16:01:11.4	100.410	-0.760	0.840	-0.140
2020/01/31 16:01:11.5	100.410	-0.750	0.780	-0.210
2020/01/31 16:01:11.6	100.410	-0.740	0.710	-0.280
2020/01/31 16:01:11.7	100.410	-0.730	0.650	-0.340
2020/01/31 16:01:11.8	100.410	-0.710	0.580	-0.410
2020/01/31 16:01:11.9	100.420	-0.690	0.500	-0.480
2020/01/31 16:01:12.0	100.420	-0.670	0.430	-0.540
2020/01/31 16:01:12.1	100.420	-0.640	0.350	-0.610
2020/01/31 16:01:12.2	100.420	-0.610	0.280	-0.670
2020/01/31 16:01:12.3	100.420	-0.580	0.200	-0.730
2020/01/31 16:01:12.4	100.420	-0.550	0.120	-0.790
2020/01/31 16:01:12.5	100.430	-0.520	0.040	-0.840
2020/01/31 16:01:12.6	100.420	-0.480	-0.040	-0.890
2020/01/31 16:01:12.7	100.430	-0.450	-0.120	-0.930
2020/01/31 16:01:12.8	100.430	-0.410	-0.200	-0.980
2020/01/31 16:01:12.9	100.430	-0.370	-0.270	-1.020
2020/01/31 16:01:13.0	100.430	-0.330	-0.350	-1.050
2020/01/31 16:01:13.1	100.430	-0.280	-0.430	-1.080
2020/01/31 16:01:13.2	100.430	-0.240	-0.500	-1.110
2020/01/31 16:01:13.3	100.430	-0.200	-0.580	-1.140
2020/01/31 16:01:13.4	100.440	-0.150	-0.650	-1.160
2020/01/31 16:01:13.5	100.440	-0.100	-0.730	-1.180
2020/01/31 16:01:13.6	100.440	-0.060	-0.800	-1.200
2020/01/31 16:01:13.7	100.450	-0.010	-0.870	-1.220
2020/01/31 16:01:13.8	100.460	0.040	-0.930	-1.230
2020/01/31 16:01:13.9	100.460	0.080	-1.000	-1.250
2020/01/31 16:01:14.0	100.470	0.130	-1.060	-1.260
2020/01/31 16:01:14.1	100.480	0.180	-1.120	-1.270
2020/01/31 16:01:14.2	100.490	0.220	-1.180	-1.280
2020/01/31 16:01:14.3	100.500	0.270	-1.230	-1.280
2020/01/31 16:01:14.4	100.510	0.320	-1.280	-1.280
2020/01/31 16:01:14.5	100.520	0.360	-1.320	-1.280
2020/01/31 16:01:14.6	100.530	0.400	-1.360	-1.280
2020/01/31 16:01:14.7	100.560	0.440	-1.390	-1.270
2020/01/31 16:01:14.8	100.570	0.480	-1.420	-1.260
2020/01/31 16:01:14.9	100.570	0.520	-1.440	-1.240
2020/01/31 16:01:15.0	100.580	0.560	-1.450	-1.230
2020/01/31 16:01:15.1	100.590	0.590	-1.460	-1.200
2020/01/31 16:01:15.2	100.590	0.620	-1.460	-1.180
2020/01/31 16:01:15.3	100.590	0.650	-1.450	-1.150
2020/01/31 16:01:15.4	100.590	0.670	-1.440	-1.110
2020/01/31 16:01:15.5	100.590	0.690	-1.410	-1.080
2020/01/31 16:01:15.6	100.580	0.710	-1.380	-1.030
2020/01/31 16:01:15.7	100.570	0.730	-1.340	-0.980
2020/01/31 16:01:15.8	100.560	0.740	-1.290	-0.930
2020/01/31 16:01:15.9	100.550	0.740	-1.240	-0.880
2020/01/31 16:01:16.0	100.540	0.750	-1.180	-0.820
2020/01/31 16:01:16.1	100.530	0.750	-1.110	-0.760
2020/01/31 16:01:16.2	100.520	0.740	-1.030	-0.700
2020/01/31 16:01:16.3	100.510	0.740	-0.950	-0.630
2020/01/31 16:01:16.4	100.500	0.720	-0.860	-0.560
2020/01/31 16:01:16.5	100.480	0.710	-0.770	-0.490
2020/01/31 16:01:16.6	100.470	0.690	-0.670	-0.420
2020/01/31 16:01:16.7	100.460	0.670	-0.570	-0.350
2020/01/31 16:01:16.8	100.440	0.640	-0.470	-0.280
2020/01/31 16:01:16.9	100.430	0.620	-0.360	-0.200
2020/01/31 16:01:17.0	100.420	0.590	-0.260	-0.130
2020/01/31 16:01:17.1	100.410	0.550	-0.150	-0.060
2020/01/31 16:01:17.2	100.400	0.520	-0.040	0.020
2020/01/31 16:01:17.3	100.390	0.480	0.060	0.090
2020/01/31 16:01:17.4	100.390	0.440	0.160	0.150
2020/01/31 16:01:17.5	100.380	0.400	0.260	0.220
2020/01/31 16:01:17.6	100.380	0.360	0.360	0.290
2020/01/31 16:01:17.7	100.370	0.320	0.450	0.350
2020/01/31 16:01:17.8	100.370	0.280	0.540	0.410
2020/01/31 16:01:17.9	100.370	0.240	0.610	0.470
2020/01/31 16:01:18.0	100.380	0.200	0.690	0.520
2020/01/31 16:01:18.1	100.380	0.160	0.750	0.570
2020/01/31 16:01:18.2	100.390	0.130	0.810	0.620
2020/01/31 16:01:18.3	100.400	0.090	0.860	0.660
2020/01/31 16:01:18.4	100.400	0.060	0.900	0.710
2020/01/31 16:01:18.5	100.420	0.020	0.940	0.740
2020/01/31 16:01:18.6	100.430	-0.010	0.960	0.780
2020/01/31 16:01:18.7	100.430	-0.030	0.980	0.810
2020/01/31 16:01:18.8	100.440	-0.060	0.990	0.850
2020/01/31 16:01:18.9	100.450	-0.080	0.990	0.880
2020/01/31 16:01:19.0	100.470	-0.100	0.990	0.910
2020/01/31 16:01:19.1	100.480	-0.120	0.970	0.930
2020/01/31 16:01:19.2	100.500	-0.140	0.950	0.960
2020/01/31 16:01:19.3	100.510	-0.150	0.930	0.990
2020/01/31 16:01:19.4	100.520	-0.170	0.900	1.010
2020/01/31 16:01:19.5	100.540	-0.180	0.860	1.040
2020/01/31 16:01:19.6	100.550	-0.180	0.820	1.060
2020/01/31 16:01:19.7	100.570	-0.190	0.770	1.080
2020/01/31 16:01:19.8	100.580	-0.200	0.730	1.110
2020/01/31 16:01:19.9	100.590	-0.200	0.680	1.130
2020/01/31 16:01:20.0	100.610	-0.200	0.620	1.150
2020/01/31 16:01:20.1	100.620	-0.200	0.570	1.180
2020/01/31 16:01:20.2	100.630	-0.200	0.510	1.200
2020/01/31 16:01:20.3	100.640	-0.200	0.450	1.220
2020/01/31 16:01:20.4	100.650	-0.200	0.390	1.240
2020/01/31 16:01:20.5	100.660	-0.200	0.330	1.260
2020/01/31 16:01:20.6	100.670	-0.190	0.270	1.290
2020/01/31 16:01:20.7	100.670	-0.190	0.210	1.310
2020/01/31 16:01:20.8	100.680	-0.190	0.150	1.330
2020/01/31 16:01:20.9	100.690	-0.180	0.100	1.350
2020/01/31 16:01:21.0	100.690	-0.180	0.040	1.370
2020/01/31 16:01:21.1	100.690	-0.180	-0.020	1.390
2020/01/31 16:01:21.2	100.700	-0.170	-0.080	1.410
2020/01/31 16:01:21.3	100.700	-0.170	-0.130	1.420
2020/01/31 16:01:21.4	100.700	-0.160	-0.180	1.440
2020/01/31 16:01:21.5	100.700	-0.160	-0.230	1.460
2020/01/31 16:01:21.6	100.700	-0.160	-0.280	1.470
2020/01/31 16:01:21.7	100.700	-0.150	-0.330	1.480
2020/01/31 16:01:21.8	100.700	-0.150	-0.380	1.500
2020/01/31 16:01:21.9	100.700	-0.150	-0.420	1.510
2020/01/31 16:01:22.0	100.690	-0.140	-0.460	1.520
2020/01/31 16:01:22.1	100.690	-0.140	-0.510	1.520
2020/01/31 16:01:22.2	100.680	-0.140	-0.540	1.530
2020/01/31 16:01:22.3	100.670	-0.130	-0.580	1.540
2020/01/31 16:01:22.4	100.670	-0.130	-0.610	1.540
2020/01/31 16:01:22.5	100.660	-0.130	-0.650	1.540
2020/01/31 16:01:22.6	100.650	-0.130	-0.680	1.540
2020/01/31 16:01:22.7	100.650	-0.130	-0.700	1.540
2020/01/31 16:01:22.8	100.640	-0.130	-0.730	1.530
2020/01/31 16:01:22.9	100.630	-0.130	-0.750	1.530
2020/01/31 16:01:23.0	100.620	-0.130	-0.770	1.520
2020/01/31 16:01:23.1	100.620	-0.130	-0.780	1.510
2020/01/31 16:01:23.2	100.610	-0.130	-0.790	1.510
2020/01/31 16:01:23.3	100.600	-0.130	-0.800	1.500
2020/01/31 16:01:23.4	100.590	-0.130	-0.810	1.490
2020/01/31 16:01:23.5	100.570	-0.130	-0.810	1.470
2020/01/31 16:01:23.6	100.560	-0.130	-0.810	1.460
2020/01/31 16:01:23.7	100.540	-0.130	-0.810	1.450
2020/01/31 16:01:23.8	100.530	-0.140	-0.800	1.430
2020/01/31 16:01:23.9	100.510	-0.140	-0.790	1.420
2020/01/31 16:01:24.0	100.500	-0.140	-0.780	1.400
2020/01/31 16:01:24.1	100.480	-0.140	-0.770	1.390
2020/01/31 16:01:24.2	100.470	-0.140	-0.750	1.370
2020/01/31 16:01:24.3	100.450	-0.150	-0.730	1.350
2020/01/31 16:01:24.4	100.430	-0.150	-0.710	1.330
2020/01/31 16:01:24.5	100.420	-0.150	-0.690	1.300
2020/01/31 16:01:24.6	100.400	-0.150	-0.670	1.280
2020/01/31 16:01:24.7	100.390	-0.150	-0.640	1.250
2020/01/31 16:01:24.8	100.380	-0.150	-0.610	1.220
2020/01/31 16:01:24.9	100.360	-0.140	-0.580	1.180
2020/01/31 16:01:25.0	100.350	-0.140	-0.560	1.150
2020/01/31 16:01:25.1	100.330	-0.140	-0.530	1.110
2020/01/31 16:01:25.2	100.320	-0.130	-0.500	1.070
2020/01/31 16:01:25.3	100.310	-0.130	-0.470	1.020
2020/01/31 16:01:25.4	100.300	-0.120	-0.440	0.970
2020/01/31 16:01:25.5	100.290	-0.120	-0.410	0.920
2020/01/31 16:01:25.6	100.280	-0.110	-0.380	0.860
2020/01/31 16:01:25.7	100.270	-0.100	-0.350	0.800
2020/01/31 16:01:25.8	100.270	-0.090	-0.330	0.740
2020/01/31 16:01:25.9	100.260	-0.080	-0.300	0.670
2020/01/31 16:01:26.0	100.260	-0.070	-0.280	0.610
2020/01/31 16:01:26.1	100.260	-0.060	-0.250	0.530
2020/01/31 16:01:26.2	100.270	-0.050	-0.230	0.460
2020/01/31 16:01:26.3	100.270	-0.040	-0.200	0.380
2020/01/31 16:01:26.4	100.280	-0.030	-0.180	0.300
2020/01/31 16:01:26.5	100.290	-0.010	-0.160	0.220
2020/01/31 16:01:26.6	100.300	0.000	-0.140	0.140
2020/01/31 16:01:26.7	100.300	0.010	-0.120	0.050
2020/01/31 16:01:26.8	100.320	0.030	-0.100	-0.030
2020/01/31 16:01:26.9	100.330	0.040	-0.090	-0.110
2020/01/31 16:01:27.0	100.350	0.050	-0.070	-0.190
2020/01/31 16:01:27.1	100.360	0.070	-0.060	-0.270
2020/01/31 16:01:27.2	100.380	0.080	-0.040	-0.350
2020/01/31 16:01:27.3	100.400	0.090	-0.030	-0.430
2020/01/31 16:01:27.4	100.420	0.100	-0.010	-0.510
2020/01/31 16:01:27.5	100.440	0.110	-0.000	-0.580
2020/01/31 16:01:27.6	100.450	0.120	0.010	-0.650
2020/01/31 16:01:27.7	100.470	0.130	0.020	-0.720
2020/01/31 16:01:27.8	100.480	0.140	0.030	-0.780
2020/01/31 16:01:27.9	100.500	0.150	0.040	-0.840
2020/01/31 16:01:28.0	100.510	0.160	0.060	-0.900
2020/01/31 16:01:28.1	100.530	0.160	0.060	-0.950
2020/01/31 16:01:28.2	100.540	0.160	0.070	-1.000
2020/01/31 16:01:28.3	100.550	0.170	0.080	-1.050
2020/01/31 16:01:28.4	100.560	0.170	0.090	-1.090
2020/01/31 16:01:28.5	100.560	0.170	0.100	-1.120
2020/01/31 16:01:28.6	100.570	0.160	0.110	-1.150
2020/01/31 16:01:28.7	100.570	0.160	0.110	-1.170
2020/01/31 16:01:28.8	100.570	0.150	0.120	-1.200
2020/01/31 16:01:28.9	100.570	0.150	0.130	-1.220
2020/01/31 16:01:29.0	100.570	0.140	0.130	-1.230
2020/01/31 16:01:29.1	100.560	0.130	0.140	-1.240
2020/01/31 16:01:29.2	100.560	0.120	0.140	-1.250
2020/01/31 16:01:29.3	100.550	0.100	0.140	-1.250
2020/01/31 16:01:29.4	100.540	0.090	0.150	-1.250
2020/01/31 16:01:29.5	100.540	0.070	0.150	-1.250
2020/01/31 16:01:29.6	100.530	0.060	0.150	-1.240
2020/01/31 16:01:29.7	100.530	0.040	0.150	-1.230
2020/01/31 16:01:29.8	100.520	0.020	0.150	-1.220
2020/01/31 16:01:29.9	100.510	0.000	0.150	-1.210
2020/01/31 16:01:30.0	100.500	-0.020	0.150	-1.190
2020/01/31 16:01:30.1	100.500	-0.040	0.150	-1.180
2020/01/31 16:01:30.2	100.490	-0.060	0.150	-1.160
2020/01/31 16:01:30.3	100.490	-0.070	0.140	-1.130
2020/01/31 16:01:30.4	100.480	-0.090	0.140	-1.110
2020/01/31 16:01:30.5	100.480	-0.110	0.130	-1.080
2020/01/31 16:01:30.6	100.480	-0.130	0.120	-1.060
2020/01/31 16:01:30.7	100.490	-0.140	0.110	-1.020
2020/01/31 16:01:30.8	100.490	-0.160	0.100	-0.990
2020/01/31 16:01:30.9	100.500	-0.170	0.090	-0.960
2020/01/31 16:01:31.0	100.500	-0.180	0.070	-0.920
2020/01/31 16:01:31.1	100.500	-0.190	0.050	-0.880
2020/01/31 16:01:31.2	100.510	-0.190	0.030	-0.840
2020/01/31 16:01:31.3	100.510	-0.200	0.010	-0.790
2020/01/31 16:01:31.4	100.520	-0.200	-0.020	-0.740
2020/01/31 16:01:31.5	100.520	-0.200	-0.040	-0.690
2020/01/31 16:01:31.6	100.530	-0.200	-0.070	-0.630
2020/01/31 16:01:31.7	100.530	-0.200	-0.100	-0.570
2020/01/31 16:01:31.8	100.540	-0.190	-0.130	-0.510
2020/01/31 16:01:31.9	100.540	-0.180	-0.160	-0.450
2020/01/31 16:01:32.0	100.540	-0.170	-0.190	-0.390
2020/01/31 16:01:32.1	100.540	-0.160	-0.220	-0.320
2020/01/31 16:01:32.2	100.540	-0.140	-0.260	-0.250
2020/01/31 16:01:32.3	100.540	-0.130	-0.290	-0.170
2020/01/31 16:01:32.4	100.540	-0.110	-0.320	-0.100
2020/01/31 16:01:32.5	100.530	-0.090	-0.350	-0.020
2020/01/31 16:01:32.6	100.520	-0.070	-0.380	0.060
2020/01/31 16:01:32.7	100.510	-0.050	-0.410	0.140
2020/01/31 16:01:32.8	100.500	-0.020	-0.440	0.220
2020/01/31 16:01:32.9	100.490	0.000	-0.460	0.300
2020/01/31 16:01:33.0	100.480	0.030	-0.490	0.380
2020/01/31 16:01:33.1	100.470	0.050	-0.510	0.470
2020/01/31 16:01:33.2	100.460	0.080	-0.530	0.550
2020/01/31 16:01:33.3	100.440	0.100	-0.540	0.630
2020/01/31 16:01:33.4	100.430	0.130	-0.560	0.710
2020/01/31 16:01:33.5	100.420	0.150	-0.560	0.790
2020/01/31 16:01:33.6	100.400	0.170	-0.570	0.860
2020/01/31 16:01:33.7	100.370	0.200	-0.570	0.940
2020/01/31 16:01:33.8	100.360	0.220	-0.570	1.010
2020/01/31 16:01:33.9	100.350	0.240	-0.570	1.080
2020/01/31 16:01:34.0	100.340	0.260	-0.570	1.150
2020/01/31 16:01:34.1	100.330	0.280	-0.560	1.210
2020/01/31 16:01:34.2	100.310	0.300	-0.550	1.280
2020/01/31 16:01:34.3	100.310	0.320	-0.530	1.340
2020/01/31 16:01:34.4	100.300	0.330	-0.520	1.390
2020/01/31 16:01:34.5	100.290	0.340	-0.500	1.440
2020/01/31 16:01:34.6	100.280	0.350	-0.480	1.490
2020/01/31 16:01:34.7	100.280	0.360	-0.460	1.540
2020/01/31 16:01:34.8	100.280	0.370	-0.440	1.590
2020/01/31 16:01:34.9	100.270	0.380	-0.420	1.620
2020/01/31 16:01:35.0	100.270	0.380	-0.400	1.660
2020/01/31 16:01:35.1	100.270	0.390	-0.370	1.690
2020/01/31 16:01:35.2	100.270	0.390	-0.350	1.720
2020/01/31 16:01:35.3	100.270	0.390	-0.330	1.740
2020/01/31 16:01:35.4	100.280	0.380	-0.300	1.770
2020/01/31 16:01:35.5	100.280	0.380	-0.280	1.780
2020/01/31 16:01:35.6	100.280	0.370	-0.260	1.800
2020/01/31 16:01:35.7	100.300	0.370	-0.230	1.810
2020/01/31 16:01:35.8	100.310	0.360	-0.210	1.820
2020/01/31 16:01:35.9	100.310	0.350	-0.190	1.820
2020/01/31 16:01:36.0	100.320	0.340	-0.170	1.830
2020/01/31 16:01:36.1	100.330	0.320	-0.140	1.820
2020/01/31 16:01:36.2	100.330	0.310	-0.120	1.820
2020/01/31 16:01:36.3	100.340	0.290	-0.100	1.810
2020/01/31 16:01:36.4	100.350	0.280	-0.080	1.800
2020/01/31 16:01:36.5	100.350	0.260	-0.060	1.790
2020/01/31 16:01:36.6	100.360	0.230	-0.030	1.770
2020/01/31 16:01:36.7	100.360	0.210	-0.010	1.750
2020/01/31 16:01:36.8	100.370	0.190	0.020	1.730
2020/01/31 16:01:36.9	100.380	0.160	0.040	1.710
2020/01/31 16:01:37.0	100.380	0.130	0.070	1.680
2020/01/31 16:01:37.1	100.390	0.110	0.090	1.660
2020/01/31 16:01:37.2	100.400	0.080	0.120	1.630
2020/01/31 16:01:37.3	100.410	0.050	0.150	1.600
2020/01/31 16:01:37.4	100.410	0.010	0.180	1.560
2020/01/31 16:01:37.5	100.420	-0.020	0.200	1.530
2020/01/31 16:01:37.6	100.430	-0.050	0.230	1.490
2020/01/31 16:01:37.7	100.420	-0.080	0.250	1.460
2020/01/31 16:01:37.8	100.420	-0.120	0.280	1.420
2020/01/31 16:01:37.9	100.430	-0.150	0.300	1.380
2020/01/31 16:01:38.0	100.430	-0.180	0.330	1.340
2020/01/31 16:01:38.1	100.430	-0.210	0.350	1.310
2020/01/31 16:01:38.2	100.430	-0.240	0.370	1.260
2020/01/31 16:01:38.3	100.430	-0.270	0.380	1.220
2020/01/31 16:01:38.4	100.430	-0.300	0.400	1.180
2020/01/31 16:01:38.5	100.420	-0.330	0.410	1.140
2020/01/31 16:01:38.6	100.420	-0.350	0.410	1.090
2020/01/31 16:01:38.7	100.420	-0.380	0.420	1.050
2020/01/31 16:01:38.8	100.420	-0.400	0.420	1.000
2020/01/31 16:01:38.9	100.420	-0.410	0.410	0.950
2020/01/31 16:01:39.0	100.410	-0.430	0.400	0.900
2020/01/31 16:01:39.1	100.410	-0.440	0.380	0.850
2020/01/31 16:01:39.2	100.410	-0.450	0.360	0.790
2020/01/31 16:01:39.3	100.400	-0.460	0.340	0.740
2020/01/31 16:01:39.4	100.400	-0.460	0.310	0.680
2020/01/31 16:01:39.5	100.400	-0.460	0.270	0.620
2020/01/31 16:01:39.6	100.390	-0.450	0.230	0.570
2020/01/31 16:01:39.7	100.390	-0.440	0.180	0.500
2020/01/31 16:01:39.8	100.390	-0.430	0.130	0.440
2020/01/31 16:01:39.9	100.390	-0.420	0.070	0.380
2020/01/31 16:01:40.0	100.380	-0.400	0.010	0.320
2020/01/31 16:01:40.1	100.380	-0.380	-0.060	0.260
2020/01/31 16:01:40.2	100.380	-0.350	-0.130	0.200
2020/01/31 16:01:40.3	100.380	-0.320	-0.200	0.140
2020/01/31 16:01:40.4	100.370	-0.290	-0.270	0.080
2020/01/31 16:01:40.5	100.370	-0.260	-0.350	0.020
2020/01/31 16:01:40.6	100.370	-0.220	-0.430	-0.030
2020/01/31 16:01:40.7	100.360	-0.180	-0.510	-0.090
2020/01/31 16:01:40.8	100.360	-0.140	-0.580	-0.140
2020/01/31 16:01:40.9	100.360	-0.100	-0.660	-0.200
2020/01/31 16:01:41.0	100.350	-0.060	-0.740	-0.250
2020/01/31 16:01:41.1	100.350	-0.010	-0.810	-0.290
2020/01/31 16:01:41.2	100.350	0.030	-0.880	-0.340
2020/01/31 16:01:41.3	100.350	0.070	-0.950	-0.380
2020/01/31 16:01:41.4	100.340	0.110	-1.010	-0.420
2020/01/31 16:01:41.5	100.340	0.150	-1.070	-0.450
2020/01/31 16:01:41.6	100.330	0.190	-1.120	-0.490
2020/01/31 16:01:41.7	100.350	0.230	-1.170	-0.510
2020/01/31 16:01:41.8	100.340	0.260	-1.210	-0.540
2020/01/31 16:01:41.9	100.340	0.290	-1.240	-0.570
2020/01/31 16:01:42.0	100.330	0.320	-1.260	-0.590
2020/01/31 16:01:42.1	100.330	0.340	-1.270	-0.610
2020/01/31 16:01:42.2	100.320	0.360	-1.280	-0.620
2020/01/31 16:01:42.3	100.320	0.380	-1.280	-0.640
2020/01/31 16:01:42.4	100.310	0.390	-1.270	-0.650
2020/01/31 16:01:42.5	100.310	0.400	-1.240	-0.660
2020/01/31 16:01:42.6	100.300	0.400	-1.210	-0.660
2020/01/31 16:01:42.7	100.300	0.400	-1.180	-0.670
2020/01/31 16:01:42.8	100.290	0.390	-1.130	-0.670
2020/01/31 16:01:42.9	100.280	0.380	-1.080	-0.670
2020/01/31 16:01:43.0	100.280	0.370	-1.020	-0.670
2020/01/31 16:01:43.1	100.270	0.350	-0.950	-0.660
2020/01/31 16:01:43.2	100.270	0.330	-0.870	-0.660
2020/01/31 16:01:43.3	100.260	0.300	-0.800	-0.650
2020/01/31 16:01:43.4	100.260	0.270	-0.710	-0.650
2020/01/31 16:01:43.5	100.250	0.240	-0.620	-0.640
2020/01/31 16:01:43.6	100.250	0.200	-0.530	-0.630
2020/01/31 16:01:43.7	100.240	0.160	-0.440	-0.620
2020/01/31 16:01:43.8	100.240	0.120	-0.340	-0.600
2020/01/31 16:01:43.9	100.240	0.080	-0.240	-0.590
2020/01/31 16:01:44.0	100.240	0.040	-0.150	-0.580
2020/01/31 16:01:44.1	100.240	-0.010	-0.050	-0.560
2020/01/31 16:01:44.2	100.250	-0.050	0.050	-0.540
2020/01/31 16:01:44.3	100.250	-0.100	0.140	-0.520
2020/01/31 16:01:44.4	100.250	-0.140	0.240	-0.500
2020/01/31 16:01:44.5	100.260	-0.180	0.330	-0.480
2020/01/31 16:01:44.6	100.260	-0.230	0.410	-0.460
2020/01/31 16:01:44.7	100.270	-0.270	0.500	-0.430
2020/01/31 16:01:44.8	100.280	-0.300	0.580	-0.410
2020/01/31 16:01:44.9	100.280	-0.340	0.650	-0.380
2020/01/31 16:01:45.0	100.290	-0.370	0.720	-0.350
2020/01/31 16:01:45.1	100.300	-0.400	0.790	-0.320
2020/01/31 16:01:45.2	100.300	-0.430	0.850	-0.290
2020/01/31 16:01:45.3	100.310	-0.460	0.900	-0.260
2020/01/31 16:01:45.4	100.320	-0.480	0.950	-0.230
2020/01/31 16:01:45.5	100.320	-0.500	0.980	-0.190
2020/01/31 16:01:45.6	100.330	-0.510	1.020	-0.160
2020/01/31 16:01:45.7	100.320	-0.520	1.040	-0.120
2020/01/31 16:01:45.8	100.330	-0.530	1.050	-0.080
2020/01/31 16:01:45.9	100.330	-0.530	1.060	-0.050
2020/01/31 16:01:46.0	100.340	-0.530	1.060	-0.010
2020/01/31 16:01:46.1	100.340	-0.520	1.060	0.030
2020/01/31 16:01:46.2	100.340	-0.510	1.040	0.060
2020/01/31 16:01:46.3	100.350	-0.500	1.020	0.100
2020/01/31 16:01:46.4	100.350	-0.480	0.990	0.140
2020/01/31 16:01:46.5	100.350	-0.460	0.950	0.170
2020/01/31 16:01:46.6	100.350	-0.440	0.900	0.200
2020/01/31 16:01:46.7	100.350	-0.410	0.850	0.240
2020/01/31 16:01:46.8	100.350	-0.380	0.780	0.270
2020/01/31 16:01:46.9	100.360	-0.350	0.720	0.290
2020/01/31 16:01:47.0	100.360	-0.320	0.640	0.320
2020/01/31 16:01:47.1	100.360	-0.280	0.560	0.340
2020/01/31 16:01:47.2	100.370	-0.240	0.470	0.370
2020/01/31 16:01:47.3	100.370	-0.200	0.380	0.390
2020/01/31 16:01:47.4	100.380	-0.150	0.280	0.410
2020/01/31 16:01:47.5	100.390	-0.110	0.190	0.420
2020/01/31 16:01:47.6	100.400	-0.070	0.080	0.440
2020/01/31 16:01:47.7	100.390	-0.020	-0.020	0.450
2020/01/31 16:01:47.8	100.400	0.030	-0.130	0.460
2020/01/31 16:01:47.9	100.410	0.070	-0.230	0.480
2020/01/31 16:01:48.0	100.420	0.120	-0.330	0.490
2020/01/31 16:01:48.1	100.430	0.170	-0.440	0.500
2020/01/31 16:01:48.2	100.450	0.210	-0.540	0.520
2020/01/31 16:01:48.3	100.460	0.250	-0.640	0.530
2020/01/31 16:01:48.4	100.470	0.300	-0.730	0.540
2020/01/31 16:01:48.5	100.480	0.340	-0.820	0.560
2020/01/31 16:01:48.6	100.490	0.380	-0.900	0.580
2020/01/31 16:01:48.7	100.510	0.410	-0.980	0.600
2020/01/31 16:01:48.8	100.520	0.450	-1.050	0.620
2020/01/31 16:01:48.9	100.530	0.480	-1.110	0.640
2020/01/31 16:01:49.0	100.540	0.510	-1.160	0.660
2020/01/31 16:01:49.1	100.550	0.530	-1.210	0.690
2020/01/31 16:01:49.2	100.550	0.560	-1.240	0.720
2020/01/31 16:01:49.3	100.550	0.580	-1.270	0.740
2020/01/31 16:01:49.4	100.560	0.590	-1.280	0.770
2020/01/31 16:01:49.5	100.560	0.600	-1.290	0.800
2020/01/31 16:01:49.6	100.560	0.610	-1.290	0.830
2020/01/31 16:01:49.7	100.570	0.620	-1.280	0.870
2020/01/31 16:01:49.8	100.560	0.620	-1.260	0.900
2020/01/31 16:01:49.9	100.560	0.620	-1.230	0.930
2020/01/31 16:01:50.0	100.550	0.620	-1.200	0.960
2020/01/31 16:01:50.1	100.540	0.610	-1.150	1.000
2020/01/31 16:01:50.2	100.530	0.600	-1.100	1.030
2020/01/31 16:01:50.3	100.520	0.590	-1.050	1.060
2020/01/31 16:01:50.4	100.500	0.570	-0.980	1.090
2020/01/31 16:01:50.5	100.490	0.550	-0.910	1.120
2020/01/31 16:01:50.6	100.470	0.530	-0.840	1.150
2020/01/31 16:01:50.7	100.450	0.510	-0.760	1.180
2020/01/31 16:01:50.8	100.430	0.490	-0.680	1.200
2020/01/31 16:01:50.9	100.410	0.460	-0.600	1.230
2020/01/31 16:01:51.0	100.390	0.430	-0.520	1.250
2020/01/31 16:01:51.1	100.370	0.400	-0.430	1.260
2020/01/31 16:01:51.2	100.350	0.370	-0.350	1.280
2020/01/31 16:01:51.3	100.330	0.340	-0.260	1.290
2020/01/31 16:01:51.4	100.310	0.310	-0.180	1.300
2020/01/31 16:01:51.5	100.290	0.280	-0.100	1.310
2020/01/31 16:01:51.6	100.270	0.250	-0.030	1.310
2020/01/31 16:01:51.7	100.240	0.210	0.050	1.310
2020/01/31 16:01:51.8	100.220	0.180	0.120	1.300
2020/01/31 16:01:51.9	100.200	0.150	0.180	1.290
2020/01/31 16:01:52.0	100.190	0.120	0.240	1.280
2020/01/31 16:01:52.1	100.170	0.090	0.290	1.270
2020/01/31 16:01:52.2	100.160	0.060	0.330	1.250
2020/01/31 16:01:52.3	100.150	0.040	0.370	1.230
2020/01/31 16:01:52.4	100.140	0.010	0.400	1.200
2020/01/31 16:01:52.5	100.130	-0.010	0.430	1.170
2020/01/31 16:01:52.6	100.130	-0.040	0.450	1.140
2020/01/31 16:01:52.7	100.130	-0.060	0.460	1.100
2020/01/31 16:01:52.8	100.130	-0.080	0.460	1.060
2020/01/31 16:01:52.9	100.130	-0.090	0.460	1.020
2020/01/31 16:01:53.0	100.130	-0.110	0.460	0.980
2020/01/31 16:01:53.1	100.140	-0.120	0.450	0.930
2020/01/31 16:01:53.2	100.150	-0.140	0.430	0.890
2020/01/31 16:01:53.3	100.160	-0.150	0.410	0.840
2020/01/31 16:01:53.4	100.170	-0.160	0.380	0.790
2020/01/31 16:01:53.5	100.180	-0.170	0.350	0.740
2020/01/31 16:01:53.6	100.200	-0.170	0.320	0.690
2020/01/31 16:01:53.7	100.220	-0.180	0.280	0.630
2020/01/31 16:01:53.8	100.230	-0.180	0.250	0.580
2020/01/31 16:01:53.9	100.250	-0.180	0.210	0.530
2020/01/31 16:01:54.0	100.270	-0.190	0.160	0.480
2020/01/31 16:01:54.1	100.290	-0.190	0.120	0.430
2020/01/31 16:01:54.2	100.310	-0.190	0.080	0.380
2020/01/31 16:01:54.3	100.330	-0.190	0.040	0.340
2020/01/31 16:01:54.4	100.350	-0.190	-0.000	0.290
2020/01/31 16:01:54.5	100.370	-0.190	-0.050	0.250
2020/01/31 16:01:54.6	100.390	-0.190	-0.090	0.220
2020/01/31 16:01:54.7	100.410	-0.190	-0.130	0.180
2020/01/31 16:01:54.8	100.430	-0.190	-0.160	0.150
2020/01/31 16:01:54.9	100.440	-0.190	-0.190	0.120
2020/01/31 16:01:55.0	100.460	-0.190	-0.230	0.100
2020/01/31 16:01:55.1	100.470	-0.190	-0.250	0.080
2020/01/31 16:01:55.2	100.480	-0.190	-0.280	0.060
2020/01/31 16:01:55.3	100.480	-0.200	-0.300	0.040
2020/01/31 16:01:55.4	100.490	-0.200	-0.320	0.030
2020/01/31 16:01:55.5	100.490	-0.200	-0.330	0.020
2020/01/31 16:01:55.6	100.500	-0.210	-0.350	0.010
2020/01/31 16:01:55.7	100.510	-0.210	-0.360	0.000
2020/01/31 16:01:55.8	100.510	-0.220	-0.360	-0.000
2020/01/31 16:01:55.9	100.500	-0.230	-0.370	-0.000
2020/01/31 16:01:56.0	100.500	-0.240	-0.370	-0.010
2020/01/31 16:01:56.1	100.490	-0.240	-0.360	-0.010
2020/01/31 16:01:56.2	100.490	-0.250	-0.360	-0.010
2020/01/31 16:01:56.3	100.480	-0.260	-0.350	-0.010
2020/01/31 16:01:56.4	100.470	-0.270	-0.340	-0.000
2020/01/31 16:01:56.5	100.460	-0.280	-0.330	-0.000
2020/01/31 16:01:56.6	100.450	-0.290	-0.320	-0.000
2020/01/31 16:01:56.7	100.440	-0.300	-0.300	0.000
2020/01/31 16:01:56.8	100.430	-0.310	-0.290	0.000
2020/01/31 16:01:56.9	100.420	-0.320	-0.270	0.000
2020/01/31 16:01:57.0	100.410	-0.330	-0.260	-0.000
2020/01/31 16:01:57.1	100.400	-0.330	-0.250	-0.000
2020/01/31 16:01:57.2	100.390	-0.340	-0.230	-0.010
2020/01/31 16:01:57.3	100.380	-0.340	-0.220	-0.010
2020/01/31 16:01:57.4	100.370	-0.350	-0.210	-0.010
2020/01/31 16:01:57.5	100.360	-0.350	-0.200	-0.020
2020/01/31 16:01:57.6	100.350	-0.350	-0.190	-0.030
2020/01/31 16:01:57.7	100.340	-0.350	-0.190	-0.040
2020/01/31 16:01:57.8	100.340	-0.350	-0.180	-0.040
2020/01/31 16:01:57.9	100.330	-0.340	-0.170	-0.050
2020/01/31 16:01:58.0	100.320	-0.340	-0.170	-0.060
2020/01/31 16:01:58.1	100.320	-0.330	-0.160	-0.070
2020/01/31 16:01:58.2	100.310	-0.320	-0.160	-0.070
2020/01/31 16:01:58.3	100.310	-0.310	-0.160	-0.080
2020/01/31 16:01:58.4	100.300	-0.300	-0.150	-0.090
2020/01/31 16:01:58.5	100.300	-0.290	-0.150	-0.090
2020/01/31 16:01:58.6	100.290	-0.280	-0.140	-0.090
2020/01/31 16:01:58.7	100.290	-0.270	-0.140	-0.090
2020/01/31 16:01:58.8	100.280	-0.250	-0.130	-0.090
2020/01/31 16:01:58.9	100.280	-0.240	-0.130	-0.090
2020/01/31 16:01:59.0	100.270	-0.220	-0.120	-0.080
2020/01/31 16:01:59.1	100.270	-0.210	-0.120	-0.070
2020/01/31 16:01:59.2	100.260	-0.190	-0.110	-0.060
2020/01/31 16:01:59.3	100.250	-0.170	-0.100	-0.050
2020/01/31 16:01:59.4	100.240	-0.160	-0.090	-0.040
2020/01/31 16:01:59.5	100.240	-0.140	-0.080	-0.020
2020/01/31 16:01:59.6	100.230	-0.120	-0.070	0.000
2020/01/31 16:01:59.7	100.230	-0.100	-0.050	0.020
2020/01/31 16:01:59.8	100.220	-0.090	-0.040	0.040
2020/01/31 16:01:59.9	100.210	-0.070	-0.030	0.070
2020/01/31 16:02:00.0	100.200	-0.050	-0.020	0.090
2020/01/31 16:02:00.1	100.190	-0.030	-0.000	0.120
2020/01/31 16:02:00.2	100.180	-0.020	0.010	0.140
2020/01/31 16:02:00.3	100.170	-0.000	0.020	0.170
2020/01/31 16:02:00.4	100.160	0.020	0.030	0.190
2020/01/31 16:02:00.5	100.160	0.030	0.040	0.210
2020/01/31 16:02:00.6	100.150	0.050	0.040	0.230
2020/01/31 16:02:00.7	100.140	0.070	0.050	0.250
2020/01/31 16:02:00.8	100.140	0.090	0.050	0.270
2020/01/31 16:02:00.9	100.140	0.100	0.050	0.280
2020/01/31 16:02:01.0	100.140	0.120	0.040	0.290
2020/01/31 16:02:01.1	100.140	0.140	0.030	0.290
2020/01/31 16:02:01.2	100.140	0.160	0.020	0.290
2020/01/31 16:02:01.3	100.150	0.180	0.010	0.290
2020/01/31 16:02:01.4	100.160	0.200	-0.010	0.280
2020/01/31 16:02:01.5	100.160	0.210	-0.030	0.270
2020/01/31 16:02:01.6	100.180	0.230	-0.060	0.260
2020/01/31 16:02:01.7	100.180	0.250	-0.090	0.240
2020/01/31 16:02:01.8	100.190	0.270	-0.130	0.220
2020/01/31 16:02:01.9	100.200	0.290	-0.170	0.200
2020/01/31 16:02:02.0	100.220	0.310	-0.210	0.170
2020/01/31 16:02:02.1	100.240	0.340	-0.250	0.150
2020/01/31 16:02:02.2	100.260	0.360	-0.300	0.120
2020/01/31 16:02:02.3	100.280	0.380	-0.350	0.090
2020/01/31 16:02:02.4	100.290	0.400	-0.400	0.060
2020/01/31 16:02:02.5	100.310	0.420	-0.450	0.030
2020/01/31 16:02:02.6	100.330	0.440	-0.510	0.000
2020/01/31 16:02:02.7	100.350	0.460	-0.560	-0.030
2020/01/31 16:02:02.8	100.370	0.480	-0.610	-0.060
2020/01/31 16:02:02.9	100.390	0.500	-0.660	-0.080
2020/01/31 16:02:03.0	100.410	0.510	-0.710	-0.100
2020/01/31 16:02:03.1	100.420	0.530	-0.760	-0.120
2020/01/31 16:02:03.2	100.440	0.540	-0.800	-0.130
2020/01/31 16:02:03.3	100.450	0.560	-0.830	-0.140
2020/01/31 16:02:03.4	100.470	0.570	-0.870	-0.150
2020/01/31 16:02:03.5	100.480	0.580	-0.900	-0.150
2020/01/31 16:02:03.6	100.490	0.590	-0.920	-0.140
2020/01/31 16:02:03.7	100.500	0.590	-0.940	-0.130
2020/01/31 16:02:03.8	100.510	0.600	-0.950	-0.110
2020/01/31 16:02:03.9	100.510	0.600	-0.950	-0.100
2020/01/31 16:02:04.0	100.510	0.600	-0.950	-0.070
2020/01/31 16:02:04.1	100.510	0.590	-0.940	-0.040
2020/01/31 16:02:04.2	100.510	0.580	-0.920	-0.010
2020/01/31 16:02:04.3	100.510	0.570	-0.890	0.030
2020/01/31 16:02:04.4	100.500	0.560	-0.860	0.070
2020/01/31 16:02:04.5	100.490	0.550	-0.820	0.120
2020/01/31 16:02:04.6	100.490	0.530	-0.780	0.170
2020/01/31 16:02:04.7	100.480	0.510	-0.720	0.220
2020/01/31 16:02:04.8	100.470	0.480	-0.660	0.280
2020/01/31 16:02:04.9	100.450	0.450	-0.600	0.340
2020/01/31 16:02:05.0	100.440	0.420	-0.530	0.400
2020/01/31 16:02:05.1	100.420	0.390	-0.450	0.460
2020/01/31 16:02:05.2	100.410	0.350	-0.370	0.530
2020/01/31 16:02:05.3	100.390	0.310	-0.280	0.590
2020/01/31 16:02:05.4	100.380	0.270	-0.190	0.660
2020/01/31 16:02:05.5	100.360	0.230	-0.100	0.730
2020/01/31 16:02:05.6	100.340	0.180	-0.010	0.790
2020/01/31 16:02:05.7	100.320	0.130	0.090	0.860
2020/01/31 16:02:05.8	100.310	0.080	0.190	0.920
2020/01/31 16:02:05.9	100.290	0.030	0.280	0.980
2020/01/31 16:02:06.0	100.270	-0.020	0.380	1.040
2020/01/31 16:02:06.1	100.260	-0.070	0.470	1.100
2020/01/31 16:02:06.2	100.240	-0.120	0.560	1.150
2020/01/31 16:02:06.3	100.230	-0.180	0.650	1.200
2020/01/31 16:02:06.4	100.210	-0.230	0.730	1.250
2020/01/31 16:02:06.5	100.200	-0.280	0.810	1.290
2020/01/31 16:02:06.6	100.190	-0.330	0.880	1.330
2020/01/31 16:02:06.7	100.170	-0.380	0.950	1.360
2020/01/31 16:02:06.8	100.150	-0.430	1.010	1.390
2020/01/31 16:02:06.9	100.140	-0.470	1.060	1.420
2020/01/31 16:02:07.0	100.140	-0.520	1.100	1.440
2020/01/31 16:02:07.1	100.130	-0.560	1.130	1.460
2020/01/31 16:02:07.2	100.120	-0.590	1.160	1.480
2020/01/31 16:02:07.3	100.110	-0.620	1.170	1.490
2020/01/31 16:02:07.4	100.110	-0.650	1.180	1.490
2020/01/31 16:02:07.5	100.100	-0.680	1.170	1.490
2020/01/31 16:02:07.6	100.100	-0.700	1.160	1.490
2020/01/31 16:02:07.7	100.120	-0.720	1.130	1.480
2020/01/31 16:02:07.8	100.120	-0.730	1.100	1.470
2020/01/31 16:02:07.9	100.120	-0.730	1.050	1.450
2020/01/31 16:02:08.0	100.120	-0.740	0.990	1.430
2020/01/31 16:02:08.1	100.120	-0.730	0.930	1.410
2020/01/31 16:02:08.2	100.130	-0.730	0.860	1.380
2020/01/31 16:02:08.3	100.130	-0.720	0.780	1.350
2020/01/31 16:02:08.4	100.130	-0.700	0.690	1.320
2020/01/31 16:02:08.5	100.140	-0.680	0.590	1.280
2020/01/31 16:02:08.6	100.140	-0.650	0.490	1.250
2020/01/31 16:02:08.7	100.160	-0.630	0.380	1.210
2020/01/31 16:02:08.8	100.160	-0.590	0.270	1.170
2020/01/31 16:02:08.9	100.170	-0.560	0.160	1.130
2020/01/31 16:02:09.0	100.180	-0.520	0.040	1.080
2020/01/31 16:02:09.1	100.190	-0.480	-0.080	1.040
2020/01/31 16:02:09.2	100.190	-0.430	-0.210	0.990
2020/01/31 16:02:09.3	100.200	-0.390	-0.330	0.950
2020/01/31 16:02:09.4	100.210	-0.340	-0.450	0.900
2020/01/31 16:02:09.5	100.220	-0.290	-0.570	0.850
2020/01/31 16:02:09.6	100.230	-0.240	-0.690	0.810
2020/01/31 16:02:09.7	100.250	-0.190	-0.810	0.760
2020/01/31 16:02:09.8	100.260	-0.140	-0.920	0.710
2020/01/31 16:02:09.9	100.270	-0.090	-1.030	0.660
2020/01/31 16:02:10.0	100.290	-0.040	-1.130	0.610
2020/01/31 16:02:10.1	100.300	0.000	-1.220	0.560
2020/01/31 16:02:10.2	100.320	0.050	-1.310	0.510
2020/01/31 16:02:10.3	100.330	0.090	-1.390	0.460
2020/01/31 16:02:10.4	100.350	0.140	-1.470	0.420
2020/01/31 16:02:10.5	100.370	0.180	-1.530	0.370
2020/01/31 16:02:10.6	100.390	0.210	-1.580	0.320
2020/01/31 16:02:10.7	100.410	0.250	-1.630	0.270
2020/01/31 16:02:10.8	100.430	0.280	-1.670	0.230
2020/01/31 16:02:10.9	100.450	0.310	-1.690	0.190
2020/01/31 16:02:11.0	100.470	0.330	-1.710	0.150
2020/01/31 16:02:11.1	100.480	0.360	-1.710	0.110
2020/01/31 16:02:11.2	100.500	0.380	-1.710	0.070
2020/01/31 16:02:11.3	100.510	0.390	-1.700	0.040
2020/01/31 16:02:11.4	100.520	0.400	-1.670	0.010
2020/01/31 16:02:11.5	100.540	0.410	-1.640	-0.020
2020/01/31 16:02:11.6	100.550	0.420	-1.600	-0.050
2020/01/31 16:02:11.7	100.550	0.420	-1.540	-0.070
2020/01/31 16:02:11.8	100.560	0.420	-1.480	-0.090
2020/01/31 16:02:11.9	100.560	0.420	-1.420	-0.110
2020/01/31 16:02:12.0	100.570	0.420	-1.340	-0.120
2020/01/31 16:02:12.1	100.570	0.410	-1.260	-0.140
2020/01/31 16:02:12.2	100.570	0.400	-1.170	-0.150
2020/01/31 16:02:12.3	100.570	0.390	-1.080	-0.160
2020/01/31 16:02:12.4	100.570	0.380	-0.980	-0.160
2020/01/31 16:02:12.5	100.570	0.370	-0.880	-0.170
2020/01/31 16:02:12.6	100.570	0.350	-0.780	-0.170
2020/01/31 16:02:12.7	100.560	0.340	-0.660	-0.160
2020/01/31 16:02:12.8	100.560	0.320	-0.550	-0.160
2020/01/31 16:02:12.9	100.550	0.300	-0.440	-0.160
2020/01/31 16:02:13.0	100.550	0.290	-0.330	-0.160
2020/01/31 16:02:13.1	100.540	0.270	-0.220	-0.160
2020/01/31 16:02:13.2	100.530	0.250	-0.100	-0.150
2020/01/31 16:02:13.3	100.520	0.230	0.010	-0.150
2020/01/31 16:02:13.4	100.510	0.210	0.120	-0.140
2020/01/31 16:02:13.5	100.500	0.200	0.230	-0.130
2020/01/31 16:02:13.6	100.490	0.180	0.340	-0.120
2020/01/31 16:02:13.7	100.490	0.160	0.440	-0.110
2020/01/31 16:02:13.8	100.470	0.140	0.540	-0.110
2020/01/31 16:02:13.9	100.460	0.120	0.640	-0.100
2020/01/31 16:02:14.0	100.450	0.100	0.730	-0.090
2020/01/31 16:02:14.1	100.430	0.080	0.820	-0.080
2020/01/31 16:02:14.2	100.410	0.060	0.900	-0.070
2020/01/31 16:02:14.3	100.400	0.040	0.970	-0.060
2020/01/31 16:02:14.4	100.380	0.020	1.040	-0.050
2020/01/31 16:02:14.5	100.360	0.000	1.110	-0.030
2020/01/31 16:02:14.6	100.340	-0.020	1.160	-0.020
2020/01/31 16:02:14.7	100.310	-0.040	1.210	-0.010
2020/01/31 16:02:14.8	100.290	-0.060	1.250	0.000
2020/01/31 16:02:14.9	100.270	-0.080	1.290	0.010
2020/01/31 16:02:15.0	100.250	-0.100	1.320	0.020
2020/01/31 16:02:15.1	100.230	-0.120	1.330	0.040
2020/01/31 16:02:15.2	100.210	-0.140	1.340	0.050
2020/01/31 16:02:15.3	100.190	-0.160	1.340	0.060
2020/01/31 16:02:15.4	100.170	-0.180	1.340	0.070
2020/01/31 16:02:15.5	100.140	-0.190	1.320	0.090
2020/01/31 16:02:15.6	100.120	-0.210	1.300	0.100
2020/01/31 16:02:15.7	100.100	-0.230	1.260	0.110
2020/01/31 16:02:15.8	100.080	-0.240	1.220	0.120
2020/01/31 16:02:15.9	100.060	-0.250	1.170	0.130
2020/01/31 16:02:16.0	100.040	-0.260	1.110	0.140
2020/01/31 16:02:16.1	100.030	-0.270	1.050	0.150
2020/01/31 16:02:16.2	100.010	-0.280	0.970	0.160
2020/01/31 16:02:16.3	100.000	-0.280	0.890	0.170
2020/01/31 16:02:16.4	99.990	-0.290	0.800	0.170
2020/01/31 16:02:16.5	99.980	-0.290	0.700	0.180
2020/01/31 16:02:16.6	99.980	-0.280	0.600	0.180
2020/01/31 16:02:16.7	99.970	-0.280	0.490	0.180
2020/01/31 16:02:16.8	99.970	-0.270	0.380	0.180
2020/01/31 16:02:16.9	99.970	-0.260	0.260	0.170
2020/01/31 16:02:17.0	99.980	-0.250	0.130	0.170
2020/01/31 16:02:17.1	99.990	-0.230	0.010	0.160
2020/01/31 16:02:17.2	100.000	-0.220	-0.120	0.150
2020/01/31 16:02:17.3	100.010	-0.200	-0.250	0.140
2020/01/31 16:02:17.4	100.030	-0.170	-0.380	0.130
2020/01/31 16:02:17.5	100.050	-0.150	-0.520	0.110
2020/01/31 16:02:17.6	100.070	-0.120	-0.650	0.100
2020/01/31 16:02:17.7	100.090	-0.100	-0.780	0.080
2020/01/31 16:02:17.8	100.120	-0.070	-0.900	0.060
2020/01/31 16:02:17.9	100.150	-0.040	-1.020	0.040
2020/01/31 16:02:18.0	100.180	-0.000	-1.140	0.020
2020/01/31 16:02:18.1	100.210	0.030	-1.250	0.000
2020/01/31 16:02:18.2	100.250	0.060	-1.350	-0.020
2020/01/31 16:02:18.3	100.280	0.100	-1.450	-0.040
2020/01/31 16:02:18.4	100.320	0.130	-1.540	-0.060
2020/01/31 16:02:18.5	100.350	0.160	-1.620	-0.080
2020/01/31 16:02:18.6	100.390	0.200	-1.690	-0.090
2020/01/31 16:02:18.7	100.430	0.230	-1.760	-0.100
2020/01/31 16:02:18.8	100.460	0.260	-1.810	-0.110
2020/01/31 16:02:18.9	100.490	0.290	-1.850	-0.120
2020/01/31 16:02:19.0	100.520	0.320	-1.880	-0.130
2020/01/31 16:02:19.1	100.550	0.340	-1.900	-0.130
2020/01/31 16:02:19.2	100.570	0.370	-1.900	-0.120
2020/01/31 16:02:19.3	100.590	0.390	-1.900	-0.110
2020/01/31 16:02:19.4	100.610	0.410	-1.880	-0.100
2020/01/31 16:02:19.5	100.620	0.420	-1.860	-0.080
2020/01/31 16:02:19.6	100.640	0.430	-1.820	-0.060
2020/01/31 16:02:19.7	100.650	0.440	-1.770	-0.020
2020/01/31 16:02:19.8	100.660	0.450	-1.710	0.010
2020/01/31 16:02:19.9	100.660	0.450	-1.630	0.040
2020/01/31 16:02:20.0	100.660	0.450	-1.550	0.090
2020/01/31 16:02:20.1	100.660	0.440	-1.460	0.130
2020/01/31 16:02:20.2	100.660	0.430	-1.360	0.180
2020/01/31 16:02:20.3	100.650	0.420	-1.250	0.240
2020/01/31 16:02:20.4	100.640	0.400	-1.130	0.290
2020/01/31 16:02:20.5	100.630	0.380	-1.010	0.350
2020/01/31 16:02:20.6	100.620	0.350	-0.880	0.420
2020/01/31 16:02:20.7	100.610	0.330	-0.740	0.490
2020/01/31 16:02:20.8	100.590	0.290	-0.610	0.550
2020/01/31 16:02:20.9	100.570	0.260	-0.470	0.620
2020/01/31 16:02:21.0	100.550	0.220	-0.320	0.690
2020/01/31 16:02:21.1	100.530	0.190	-0.180	0.760
2020/01/31 16:02:21.2	100.510	0.150	-0.040	0.830
2020/01/31 16:02:21.3	100.480	0.100	0.100	0.890
2020/01/31 16:02:21.4	100.460	0.060	0.240	0.960
2020/01/31 16:02:21.5	100.440	0.020	0.380	1.020
2020/01/31 16:02:21.6	100.410	-0.030	0.510	1.090
2020/01/31 16:02:21.7	100.380	-0.070	0.630	1.150
2020/01/31 16:02:21.8	100.350	-0.110	0.750	1.210
2020/01/31 16:02:21.9	100.330	-0.160	0.870	1.260
2020/01/31 16:02:22.0	100.300	-0.200	0.970	1.310
2020/01/31 16:02:22.1	100.280	-0.240	1.070	1.360
2020/01/31 16:02:22.2	100.260	-0.280	1.150	1.400
2020/01/31 16:02:22.3	100.240	-0.310	1.230	1.440
2020/01/31 16:02:22.4	100.220	-0.350	1.290	1.480
2020/01/31 16:02:22.5	100.200	-0.380	1.350	1.500
2020/01/31 16:02:22.6	100.180	-0.410	1.390	1.530
2020/01/31 16:02:22.7	100.170	-0.430	1.430	1.540
2020/01/31 16:02:22.8	100.160	-0.450	1.460	1.550
2020/01/31 16:02:22.9	100.150	-0.470	1.470	1.560
2020/01/31 16:02:23.0	100.140	-0.490	1.470	1.560
2020/01/31 16:02:23.1	100.130	-0.500	1.460	1.560
2020/01/31 16:02:23.2	100.120	-0.500	1.440	1.540
2020/01/31 16:02:23.3	100.120	-0.510	1.400	1.530
2020/01/31 16:02:23.4	100.120	-0.510	1.360	1.500
2020/01/31 16:02:23.5	100.120	-0.500	1.310	1.480
2020/01/31 16:02:23.6	100.120	-0.490	1.250	1.440
2020/01/31 16:02:23.7	100.130	-0.480	1.180	1.400
2020/01/31 16:02:23.8	100.140	-0.470	1.110	1.360
2020/01/31 16:02:23.9	100.140	-0.450	1.020	1.310
2020/01/31 16:02:24.0	100.150	-0.430	0.930	1.260
2020/01/31 16:02:24.1	100.160	-0.400	0.840	1.210
2020/01/31 16:02:24.2	100.170	-0.370	0.740	1.150
2020/01/31 16:02:24.3	100.180	-0.340	0.640	1.080
2020/01/31 16:02:24.4	100.200	-0.310	0.530	1.020
2020/01/31 16:02:24.5	100.210	-0.280	0.420	0.950
2020/01/31 16:02:24.6	100.220	-0.240	0.300	0.890
2020/01/31 16:02:24.7	100.230	-0.210	0.190	0.820
2020/01/31 16:02:24.8	100.250	-0.170	0.070	0.750
2020/01/31 16:02:24.9	100.260	-0.130	-0.040	0.680
2020/01/31 16:02:25.0	100.270	-0.090	-0.160	0.610
2020/01/31 16:02:25.1	100.280	-0.050	-0.270	0.550
2020/01/31 16:02:25.2	100.300	-0.010	-0.380	0.480
2020/01/31 16:02:25.3	100.300	0.030	-0.490	0.420
2020/01/31 16:02:25.4	100.310	0.070	-0.600	0.360
2020/01/31 16:02:25.5	100.320	0.110	-0.700	0.300
2020/01/31 16:02:25.6	100.320	0.140	-0.800	0.250
2020/01/31 16:02:25.7	100.320	0.180	-0.890	0.190
2020/01/31 16:02:25.8	100.330	0.210	-0.980	0.150
2020/01/31 16:02:25.9	100.330	0.240	-1.060	0.100
2020/01/31 16:02:26.0	100.320	0.270	-1.140	0.060
2020/01/31 16:02:26.1	100.320	0.300	-1.200	0.020
2020/01/31 16:02:26.2	100.320	0.320	-1.270	-0.020
2020/01/31 16:02:26.3	100.310	0.350	-1.320	-0.050
2020/01/31 16:02:26.4	100.310	0.360	-1.360	-0.080
2020/01/31 16:02:26.5	100.300	0.380	-1.400	-0.110
2020/01/31 16:02:26.6	100.290	0.390	-1.430	-0.140
2020/01/31 16:02:26.7	100.290	0.400	-1.440	-0.160
2020/01/31 16:02:26.8	100.280	0.410	-1.460	-0.180
2020/01/31 16:02:26.9	100.270	0.410	-1.460	-0.210
2020/01/31 16:02:27.0	100.260	0.410	-1.450	-0.230
2020/01/31 16:02:27.1	100.250	0.410	-1.440	-0.250
2020/01/31 16:02:27.2	100.240	0.410	-1.420	-0.270
2020/01/31 16:02:27.3	100.230	0.400	-1.400	-0.290
2020/01/31 16:02:27.4	100.220	0.390	-1.370	-0.300
2020/01/31 16:02:27.5	100.200	0.380	-1.330	-0.320
2020/01/31 16:02:27.6	100.190	0.370	-1.280	-0.340
2020/01/31 16:02:27.7	100.180	0.350	-1.230	-0.350
2020/01/31 16:02:27.8	100.170	0.340	-1.170	-0.370
2020/01/31 16:02:27.9	100.160	0.320	-1.110	-0.390
2020/01/31 16:02:28.0	100.150	0.300	-1.050	-0.400
2020/01/31 16:02:28.1	100.140	0.280	-0.980	-0.420
2020/01/31 16:02:28.2	100.130	0.260	-0.910	-0.430
2020/01/31 16:02:28.3	100.120	0.240	-0.840	-0.450
2020/01/31 16:02:28.4	100.110	0.220	-0.770	-0.460
2020/01/31 16:02:28.5	100.100	0.200	-0.690	-0.480
2020/01/31 16:02:28.6	100.100	0.180	-0.610	-0.490
2020/01/31 16:02:28.7	100.090	0.160	-0.540	-0.500
2020/01/31 16:02:28.8	100.080	0.140	-0.460	-0.510
2020/01/31 16:02:28.9	100.080	0.120	-0.380	-0.520
2020/01/31 16:02:29.0	100.070	0.100	-0.310	-0.520
2020/01/31 16:02:29.1	100.070	0.080	-0.240	-0.530
2020/01/31 16:02:29.2	100.070	0.060	-0.160	-0.530
2020/01/31 16:02:29.3	100.070	0.050	-0.090	-0.520
2020/01/31 16:02:29.4	100.070	0.030	-0.030	-0.520
2020/01/31 16:02:29.5	100.060	0.010	0.040	-0.510
2020/01/31 16:02:29.6	100.060	-0.000	0.100	-0.500
2020/01/31 16:02:29.7	100.060	-0.020	0.170	-0.480
2020/01/31 16:02:29.8	100.060	-0.030	0.230	-0.460
2020/01/31 16:02:29.9	100.060	-0.040	0.280	-0.440
2020/01/31 16:02:30.0	100.060	-0.050	0.330	-0.420
2020/01/31 16:02:30.1	100.060	-0.070	0.380	-0.390
2020/01/31 16:02:30.2	100.060	-0.080	0.430	-0.360
2020/01/31 16:02:30.3	100.060	-0.090	0.470	-0.330
2020/01/31 16:02:30.4	100.060	-0.100	0.510	-0.300
2020/01/31 16:02:30.5	100.060	-0.110	0.540	-0.260
2020/01/31 16:02:30.6	100.060	-0.120	0.570	-0.230
2020/01/31 16:02:30.7	100.070	-0.130	0.600	-0.190
2020/01/31 16:02:30.8	100.080	-0.140	0.620	-0.150
2020/01/31 16:02:30.9	100.090	-0.150	0.640	-0.110
2020/01/31 16:02:31.0	100.100	-0.160	0.660	-0.080
2020/01/31 16:02:31.1	100.110	-0.160	0.670	-0.040
2020/01/31 16:02:31.2	100.120	-0.170	0.680	0.000
2020/01/31 16:02:31.3	100.140	-0.180	0.680	0.040
2020/01/31 16:02:31.4	100.150	-0.190	0.680	0.070
2020/01/31 16:02:31.5	100.170	-0.190	0.680	0.110
2020/01/31 16:02:31.6	100.190	-0.200	0.670	0.150
2020/01/31 16:02:31.7	100.210	-0.200	0.660	0.180
2020/01/31 16:02:31.8	100.220	-0.210	0.650	0.220
2020/01/31 16:02:31.9	100.240	-0.210	0.630	0.250
2020/01/31 16:02:32.0	100.260	-0.220	0.600	0.280
2020/01/31 16:02:32.1	100.280	-0.220	0.570	0.320
2020/01/31 16:02:32.2	100.300	-0.220	0.540	0.350
2020/01/31 16:02:32.3	100.310	-0.220	0.510	0.380
2020/01/31 16:02:32.4	100.330	-0.220	0.470	0.410
2020/01/31 16:02:32.5	100.340	-0.220	0.420	0.440
2020/01/31 16:02:32.6	100.360	-0.220	0.370	0.470
2020/01/31 16:02:32.7	100.360	-0.220	0.320	0.500
2020/01/31 16:02:32.8	100.370	-0.220	0.270	0.530
2020/01/31 16:02:32.9	100.370	-0.210	0.210	0.550
2020/01/31 16:02:33.0	100.380	-0.200	0.160	0.580
2020/01/31 16:02:33.1	100.380	-0.200	0.100	0.610
2020/01/31 16:02:33.2	100.380	-0.190	0.040	0.630
2020/01/31 16:02:33.3	100.370	-0.180	-0.020	0.660
2020/01/31 16:02:33.4	100.370	-0.160	-0.090	0.680
2020/01/31 16:02:33.5	100.360	-0.150	-0.150	0.710
2020/01/31 16:02:33.6	100.350	-0.130	-0.210	0.730
2020/01/31 16:02:33.7	100.330	-0.120	-0.270	0.760
2020/01/31 16:02:33.8	100.320	-0.100	-0.330	0.780
2020/01/31 16:02:33.9	100.300	-0.080	-0.390	0.800
2020/01/31 16:02:34.0	100.280	-0.060	-0.450	0.820
2020/01/31 16:02:34.1	100.270	-0.040	-0.500	0.840
2020/01/31 16:02:34.2	100.250	-0.020	-0.560	0.860
2020/01/31 16:02:34.3	100.230	0.000	-0.610	0.880
2020/01/31 16:02:34.4	100.200	0.030	-0.660	0.900
2020/01/31 16:02:34.5	100.180	0.050	-0.700	0.920
2020/01/31 16:02:34.6	100.160	0.070	-0.740	0.930
2020/01/31 16:02:34.7	100.140	0.100	-0.780	0.950
2020/01/31 16:02:34.8	100.120	0.120	-0.810	0.960
2020/01/31 16:02:34.9	100.100	0.140	-0.840	0.970
2020/01/31 16:02:35.0	100.080	0.160	-0.860	0.980
2020/01/31 16:02:35.1	100.060	0.180	-0.880	0.990
2020/01/31 16:02:35.2	100.040	0.200	-0.900	0.990
2020/01/31 16:02:35.3	100.020	0.220	-0.910	1.000
2020/01/31 16:02:35.4	100.000	0.240	-0.910	1.000
2020/01/31 16:02:35.5	99.980	0.250	-0.910	1.010
2020/01/31 16:02:35.6	99.970	0.270	-0.900	1.010
2020/01/31 16:02:35.7	99.950	0.280	-0.890	1.010
2020/01/31 16:02:35.8	99.930	0.290	-0.880	1.010
2020/01/31 16:02:35.9	99.920	0.290	-0.850	1.010
2020/01/31 16:02:36.0	99.910	0.300	-0.830	1.010
2020/01/31 16:02:36.1	99.900	0.300	-0.800	1.010
2020/01/31 16:02:36.2	99.890	0.300	-0.760	1.010
2020/01/31 16:02:36.3	99.880	0.300	-0.720	1.010
2020/01/31 16:02:36.4	99.870	0.290	-0.680	1.010
2020/01/31 16:02:36.5	99.870	0.280	-0.630	1.010
2020/01/31 16:02:36.6	99.860	0.270	-0.580	1.010
2020/01/31 16:02:36.7	99.850	0.260	-0.520	1.020
2020/01/31 16:02:36.8	99.850	0.240	-0.470	1.020
2020/01/31 16:02:36.9	99.840	0.230	-0.410	1.020
2020/01/31 16:02:37.0	99.840	0.210	-0.340	1.030
2020/01/31 16:02:37.1	99.830	0.190	-0.280	1.030
2020/01/31 16:02:37.2	99.830	0.170	-0.220	1.030
2020/01/31 16:02:37.3	99.830	0.140	-0.150	1.040
2020/01/31 16:02:37.4	99.830	0.120	-0.090	1.040
2020/01/31 16:02:37.5	99.830	0.100	-0.030	1.040
2020/01/31 16:02:37.6	99.830	0.070	0.030	1.040
2020/01/31 16:02:37.7	99.840	0.040	0.100	1.040
2020/01/31 16:02:37.8	99.840	0.020	0.160	1.040
2020/01/31 16:02:37.9	99.850	-0.010	0.210	1.040
2020/01/31 16:02:38.0	99.860	-0.040	0.260	1.030
2020/01/31 16:02:38.1	99.870	-0.060	0.310	1.020
2020/01/31 16:02:38.2	99.880	-0.090	0.360	1.000
2020/01/31 16:02:38.3	99.890	-0.110	0.400	0.980
2020/01/31 16:02:38.4	99.910	-0.140	0.430	0.960
2020/01/31 16:02:38.5	99.930	-0.160	0.460	0.930
2020/01/31 16:02:38.6	99.950	-0.180	0.480	0.900
2020/01/31 16:02:38.7	99.970	-0.200	0.500	0.860
2020/01/31 16:02:38.8	100.000	-0.220	0.510	0.820
2020/01/31 16:02:38.9	100.020	-0.240	0.520	0.780
2020/01/31 16:02:39.0	100.050	-0.250	0.520	0.730
2020/01/31 16:02:39.1	100.080	-0.260	0.510	0.670
2020/01/31 16:02:39.2	100.110	-0.280	0.500	0.620
2020/01/31 16:02:39.3	100.140	-0.280	0.490	0.560
2020/01/31 16:02:39.4	100.170	-0.290	0.460	0.500
2020/01/31 16:02:39.5	100.200	-0.300	0.440	0.440
2020/01/31 16:02:39.6	100.230	-0.300	0.400	0.370
2020/01/31 16:02:39.7	100.250	-0.300	0.370	0.310
2020/01/31 16:02:39.8	100.270	-0.300	0.330	0.250
2020/01/31 16:02:39.9	100.290	-0.300	0.290	0.190
2020/01/31 16:02:40.0	100.310	-0.300	0.240	0.140
2020/01/31 16:02:40.1	100.330	-0.290	0.200	0.080
2020/01/31 16:02:40.2	100.340	-0.290	0.150	0.030
2020/01/31 16:02:40.3	100.340	-0.280	0.100	-0.020
2020/01/31 16:02:40.4	100.350	-0.270	0.050	-0.070
2020/01/31 16:02:40.5	100.350	-0.260	0.000	-0.110
2020/01/31 16:02:40.6	100.340	-0.250	-0.050	-0.150
2020/01/31 16:02:40.7	100.330	-0.240	-0.100	-0.180
2020/01/31 16:02:40.8	100.310	-0.230	-0.150	-0.210
2020/01/31 16:02:40.9	100.300	-0.210	-0.190	-0.240
2020/01/31 16:02:41.0	100.280	-0.200	-0.230	-0.260
2020/01/31 16:02:41.1	100.260	-0.190	-0.280	-0.280
2020/01/31 16:02:41.2	100.230	-0.170	-0.310	-0.290
2020/01/31 16:02:41.3	100.200	-0.160	-0.350	-0.300
2020/01/31 16:02:41.4	100.170	-0.150	-0.390	-0.310
2020/01/31 16:02:41.5	100.140	-0.140	-0.420	-0.310
2020/01/31 16:02:41.6	100.110	-0.120	-0.450	-0.310
2020/01/31 16:02:41.7	100.080	-0.110	-0.470	-0.300
2020/01/31 16:02:41.8	100.050	-0.100	-0.500	-0.300
2020/01/31 16:02:41.9	100.020	-0.080	-0.520	-0.290
2020/01/31 16:02:42.0	99.990	-0.070	-0.540	-0.290
2020/01/31 16:02:42.1	99.950	-0.060	-0.550	-0.280
2020/01/31 16:02:42.2	99.920	-0.050	-0.570	-0.270
2020/01/31 16:02:42.3	99.890	-0.030	-0.580	-0.260
2020/01/31 16:02:42.4	99.870	-0.020	-0.590	-0.250
2020/01/31 16:02:42.5	99.840	-0.010	-0.600	-0.240
2020/01/31 16:02:42.6	99.820	0.000	-0.600	-0.220
2020/01/31 16:02:42.7	99.800	0.010	-0.610	-0.210
2020/01/31 16:02:42.8	99.780	0.030	-0.610	-0.200
2020/01/31 16:02:42.9	99.760	0.040	-0.610	-0.190
2020/01/31 16:02:43.0	99.740	0.050	-0.610	-0.180
2020/01/31 16:02:43.1	99.730	0.060	-0.610	-0.170
2020/01/31 16:02:43.2	99.720	0.080	-0.610	-0.160
2020/01/31 16:02:43.3	99.710	0.090	-0.600	-0.150
2020/01/31 16:02:43.4	99.700	0.100	-0.590	-0.140
2020/01/31 16:02:43.5	99.690	0.110	-0.590	-0.120
2020/01/31 16:02:43.6	99.690	0.120	-0.580	-0.110
2020/01/31 16:02:43.7	99.690	0.140	-0.570	-0.100
2020/01/31 16:02:43.8	99.690	0.150	-0.560	-0.090
2020/01/31 16:02:43.9	99.690	0.160	-0.550	-0.070
2020/01/31 16:02:44.0	99.690	0.170	-0.530	-0.060
2020/01/31 16:02:44.1	99.690	0.180	-0.520	-0.050
2020/01/31 16:02:44.2	99.690	0.190	-0.510	-0.030
2020/01/31 16:02:44.3	99.700	0.210	-0.490	-0.020
2020/01/31 16:02:44.4	99.700	0.220	-0.480	-0.010
2020/01/31 16:02:44.5	99.710	0.220	-0.460	0.010
2020/01/31 16:02:44.6	99.710	0.230	-0.450	0.020
2020/01/31 16:02:44.7	99.710	0.240	-0.430	0.040
2020/01/31 16:02:44.8	99.710	0.250	-0.410	0.050
2020/01/31 16:02:44.9	99.720	0.250	-0.390	0.060
2020/01/31 16:02:45.0	99.730	0.260	-0.370	0.070
2020/01/31 16:02:45.1	99.740	0.260	-0.350	0.080
2020/01/31 16:02:45.2	99.750	0.260	-0.330	0.080
2020/01/31 16:02:45.3	99.760	0.270	-0.310	0.090
2020/01/31 16:02:45.4	99.770	0.270	-0.290	0.090
2020/01/31 16:02:45.5	99.780	0.260	-0.260	0.100
2020/01/31 16:02:45.6	99.780	0.260	-0.240	0.100
2020/01/31 16:02:45.7	99.790	0.260	-0.220	0.100
2020/01/31 16:02:45.8	99.800	0.250	-0.190	0.100
2020/01/31 16:02:45.9	99.810	0.250	-0.170	0.100
2020/01/31 16:02:46.0	99.810	0.240	-0.140	0.100
2020/01/31 16:02:46.1	99.810	0.230	-0.110	0.090
2020/01/31 16:02:46.2	99.820	0.220	-0.080	0.090
2020/01/31 16:02:46.3	99.820	0.210	-0.060	0.090
2020/01/31 16:02:46.4	99.820	0.200	-0.030	0.080
2020/01/31 16:02:46.5	99.820	0.180	0.000	0.080
2020/01/31 16:02:46.6	99.810	0.170	0.030	0.080
2020/01/31 16:02:46.7	99.800	0.160	0.060	0.080
2020/01/31 16:02:46.8	99.790	0.140	0.090	0.080
2020/01/31 16:02:46.9	99.780	0.130	0.110	0.070
2020/01/31 16:02:47.0	99.770	0.110	0.140	0.070
2020/01/31 16:02:47.1	99.760	0.090	0.160	0.070
2020/01/31 16:02:47.2	99.750	0.080	0.180	0.070
2020/01/31 16:02:47.3	99.740	0.060	0.210	0.080
2020/01/31 16:02:47.4	99.730	0.050	0.220	0.080
2020/01/31 16:02:47.5	99.710	0.030	0.240	0.080
2020/01/31 16:02:47.6	99.700	0.020	0.260	0.090
2020/01/31 16:02:47.7	99.690	0.000	0.270	0.090
2020/01/31 16:02:47.8	99.670	-0.010	0.280	0.100
2020/01/31 16:02:47.9	99.660	-0.020	0.290	0.110
2020/01/31 16:02:48.0	99.650	-0.040	0.290	0.110
2020/01/31 16:02:48.1	99.640	-0.050	0.290	0.120
2020/01/31 16:02:48.2	99.630	-0.060	0.290	0.140
2020/01/31 16:02:48.3	99.620	-0.060	0.280	0.150
2020/01/31 16:02:48.4	99.620	-0.070	0.280	0.170
2020/01/31 16:02:48.5	99.610	-0.080	0.260	0.180
2020/01/31 16:02:48.6	99.600	-0.080	0.250	0.200
2020/01/31 16:02:48.7	99.610	-0.080	0.240	0.230
2020/01/31 16:02:48.8	99.600	-0.080	0.210	0.250
2020/01/31 16:02:48.9	99.600	-0.080	0.190	0.280
2020/01/31 16:02:49.0	99.600	-0.080	0.170	0.310
2020/01/31 16:02:49.1	99.600	-0.080	0.140	0.330
2020/01/31 16:02:49.2	99.610	-0.080	0.110	0.360
2020/01/31 16:02:49.3	99.610	-0.070	0.070	0.390
2020/01/31 16:02:49.4	99.610	-0.060	0.040	0.430
2020/01/31 16:02:49.5	99.620	-0.060	0.000	0.460
2020/01/31 16:02:49.6	99.630	-0.050	-0.030	0.490
2020/01/31 16:02:49.7	99.630	-0.040	-0.070	0.530
2020/01/31 16:02:49.8	99.640	-0.030	-0.110	0.560
2020/01/31 16:02:49.9	99.650	-0.030	-0.140	0.590
2020/01/31 16:02:50.0	99.660	-0.020	-0.180	0.630
2020/01/31 16:02:50.1	99.670	-0.010	-0.210	0.660
2020/01/31 16:02:50.2	99.680	-0.010	-0.250	0.690
2020/01/31 16:02:50.3	99.700	-0.000	-0.280	0.720
2020/01/31 16:02:50.4	99.710	0.000	-0.310	0.750
2020/01/31 16:02:50.5	99.720	0.000	-0.330	0.770
2020/01/31 16:02:50.6	99.730	0.000	-0.360	0.800
2020/01/31 16:02:50.7	99.740	0.000	-0.380	0.820
2020/01/31 16:02:50.8	99.750	-0.000	-0.400	0.840
2020/01/31 16:02:50.9	99.760	-0.010	-0.410	0.850
2020/01/31 16:02:51.0	99.770	-0.010	-0.420	0.870
2020/01/31 16:02:51.1	99.780	-0.020	-0.430	0.880
2020/01/31 16:02:51.2	99.780	-0.040	-0.430	0.880
2020/01/31 16:02:51.3	99.790	-0.050	-0.430	0.890
2020/01/31 16:02:51.4	99.790	-0.070	-0.420	0.890
2020/01/31 16:02:51.5	99.790	-0.080	-0.410	0.890
2020/01/31 16:02:51.6	99.790	-0.100	-0.400	0.890
2020/01/31 16:02:51.7	99.790	-0.130	-0.380	0.880
2020/01/31 16:02:51.8	99.780	-0.150	-0.360	0.880
2020/01/31 16:02:51.9	99.780	-0.170	-0.340	0.870
2020/01/31 16:02:52.0	99.770	-0.200	-0.310	0.860
2020/01/31 16:02:52.1	99.750	-0.220	-0.290	0.840
2020/01/31 16:02:52.2	99.740	-0.250	-0.260	0.830
2020/01/31 16:02:52.3	99.730	-0.270	-0.230	0.810
2020/01/31 16:02:52.4	99.710	-0.300	-0.210	0.800
2020/01/31 16:02:52.5	99.690	-0.320	-0.180	0.780
2020/01/31 16:02:52.6	99.680	-0.340	-0.150	0.760
2020/01/31 16:02:52.7	99.670	-0.360	-0.130	0.740
2020/01/31 16:02:52.8	99.650	-0.380	-0.100	0.720
2020/01/31 16:02:52.9	99.630	-0.400	-0.080	0.700
2020/01/31 16:02:53.0	99.610	-0.410	-0.060	0.680
2020/01/31 16:02:53.1	99.590	-0.430	-0.040	0.660
2020/01/31 16:02:53.2	99.570	-0.430	-0.020	0.640
2020/01/31 16:02:53.3	99.550	-0.440	-0.010	0.620
2020/01/31 16:02:53.4	99.530	-0.440	0.000	0.600
2020/01/31 16:02:53.5	99.510	-0.440	0.010	0.580
2020/01/31 16:02:53.6	99.490	-0.430	0.010	0.560
2020/01/31 16:02:53.7	99.480	-0.420	0.020	0.540
2020/01/31 16:02:53.8	99.470	-0.410	0.010	0.520
2020/01/31 16:02:53.9	99.450	-0.390	0.000	0.500
2020/01/31 16:02:54.0	99.440	-0.370	-0.010	0.480
2020/01/31 16:02:54.1	99.430	-0.350	-0.030	0.460
2020/01/31 16:02:54.2	99.420	-0.320	-0.050	0.450
2020/01/31 16:02:54.3	99.410	-0.290	-0.070	0.430
2020/01/31 16:02:54.4	99.400	-0.260	-0.100	0.410
2020/01/31 16:02:54.5	99.390	-0.230	-0.130	0.390
2020/01/31 16:02:54.6	99.390	-0.190	-0.160	0.370
2020/01/31 16:02:54.7	99.400	-0.150	-0.190	0.360
2020/01/31 16:02:54.8	99.400	-0.120	-0.230	0.340
2020/01/31 16:02:54.9	99.400	-0.080	-0.270	0.320
2020/01/31 16:02:55.0	99.400	-0.040	-0.310	0.300
2020/01/31 16:02:55.1	99.410	0.000	-0.350	0.290
2020/01/31 16:02:55.2	99.410	0.040	-0.390	0.270
2020/01/31 16:02:55.3	99.410	0.080	-0.430	0.250
2020/01/31 16:02:55.4	99.420	0.120	-0.470	0.240
2020/01/31 16:02:55.5	99.430	0.160	-0.500	0.220
2020/01/31 16:02:55.6	99.440	0.190	-0.540	0.210
2020/01/31 16:02:55.7	99.440	0.220	-0.570	0.190
2020/01/31 16:02:55.8	99.450	0.250	-0.600	0.180
2020/01/31 16:02:55.9	99.460	0.280	-0.630	0.160
2020/01/31 16:02:56.0	99.470	0.300	-0.650	0.140
2020/01/31 16:02:56.1	99.480	0.330	-0.670	0.130
2020/01/31 16:02:56.2	99.490	0.340	-0.690	0.110
2020/01/31 16:02:56.3	99.500	0.360	-0.700	0.090
2020/01/31 16:02:56.4	99.510	0.370	-0.700	0.070
2020/01/31 16:02:56.5	99.530	0.380	-0.700	0.050
2020/01/31 16:02:56.6	99.540	0.380	-0.690	0.030
2020/01/31 16:02:56.7	99.540	0.380	-0.680	0.010
2020/01/31 16:02:56.8	99.550	0.380	-0.660	-0.010
2020/01/31 16:02:56.9	99.560	0.370	-0.640	-0.040
2020/01/31 16:02:57.0	99.570	0.360	-0.620	-0.060
2020/01/31 16:02:57.1	99.580	0.350	-0.580	-0.090
2020/01/31 16:02:57.2	99.590	0.340	-0.550	-0.110
2020/01/31 16:02:57.3	99.600	0.320	-0.510	-0.140
2020/01/31 16:02:57.4	99.610	0.300	-0.460	-0.170
2020/01/31 16:02:57.5	99.620	0.280	-0.420	-0.200
2020/01/31 16:02:57.6	99.630	0.260	-0.360	-0.220
2020/01/31 16:02:57.7	99.620	0.240	-0.320	-0.250
2020/01/31 16:02:57.8	99.620	0.220	-0.260	-0.270
2020/01/31 16:02:57.9	99.630	0.190	-0.200	-0.300
2020/01/31 16:02:58.0	99.630	0.170	-0.150	-0.320
2020/01/31 16:02:58.1	99.630	0.140	-0.090	-0.340
2020/01/31 16:02:58.2	99.630	0.120	-0.030	-0.360
2020/01/31 16:02:58.3	99.630	0.090	0.020	-0.380
2020/01/31 16:02:58.4	99.620	0.070	0.080	-0.400
2020/01/31 16:02:58.5	99.620	0.050	0.130	-0.410
2020/01/31 16:02:58.6	99.610	0.030	0.190	-0.420
2020/01/31 16:02:58.7	99.600	0.010	0.240	-0.430
2020/01/31 16:02:58.8	99.580	-0.010	0.290	-0.440
2020/01/31 16:02:58.9	99.570	-0.030	0.330	-0.440
2020/01/31 16:02:59.0	99.550	-0.040	0.370	-0.440
2020/01/31 16:02:59.1	99.530	-0.060	0.410	-0.440
2020/01/31 16:02:59.2	99.510	-0.070	0.440	-0.430
2020/01/31 16:02:59.3	99.490	-0.080	0.470	-0.420
2020/01/31 16:02:59.4	99.470	-0.080	0.490	-0.410
2020/01/31 16:02:59.5	99.450	-0.090	0.510	-0.400
2020/01/31 16:02:59.6	99.420	-0.090	0.520	-0.390
2020/01/31 16:02:59.7	99.410	-0.090	0.530	-0.370
2020/01/31 16:02:59.8	99.390	-0.090	0.530	-0.350
2020/01/31 16:02:59.9	99.360	-0.090	0.520	-0.330
2020/01/31 16:03:00.0	99.330	-0.080	0.520	-0.300
2020/01/31 16:03:00.1	99.310	-0.070	0.500	-0.280
2020/01/31 16:03:00.2	99.280	-0.060	0.480	-0.260
2020/01/31 16:03:00.3	99.250	-0.050	0.460	-0.230
2020/01/31 16:03:00.4	99.230	-0.040	0.430	-0.210
2020/01/31 16:03:00.5	99.210	-0.030	0.400	-0.180
2020/01/31 16:03:00.6	99.190	-0.010	0.370	-0.160
2020/01/31 16:03:00.7	99.180	0.000	0.320	-0.130
2020/01/31 16:03:00.8	99.160	0.020	0.280	-0.110
2020/01/31 16:03:00.9	99.150	0.030	0.230	-0.080
2020/01/31 16:03:01.0	99.130	0.050	0.180	-0.060
2020/01/31 16:03:01.1	99.120	0.060	0.130	-0.040
2020/01/31 16:03:01.2	99.110	0.080	0.070	-0.020
2020/01/31 16:03:01.3	99.110	0.090	0.020	0.000
2020/01/31 16:03:01.4	99.100	0.110	-0.040	0.020
2020/01/31 16:03:01.5	99.100	0.120	-0.100	0.040
2020/01/31 16:03:01.6	99.100	0.140	-0.160	0.060
2020/01/31 16:03:01.7	99.100	0.150	-0.220	0.080
2020/01/31 16:03:01.8	99.110	0.160	-0.280	0.100
2020/01/31 16:03:01.9	99.110	0.170	-0.340	0.110
2020/01/31 16:03:02.0	99.120	0.180	-0.400	0.130
2020/01/31 16:03:02.1	99.140	0.190	-0.460	0.140
2020/01/31 16:03:02.2	99.150	0.200	-0.520	0.150
2020/01/31 16:03:02.3	99.170	0.200	-0.570	0.170
2020/01/31 16:03:02.4	99.180	0.210	-0.630	0.180
2020/01/31 16:03:02.5	99.200	0.210	-0.670	0.190
2020/01/31 16:03:02.6	99.220	0.210	-0.720	0.200
2020/01/31 16:03:02.7	99.230	0.210	-0.770	0.210
2020/01/31 16:03:02.8	99.250	0.210	-0.810	0.220
2020/01/31 16:03:02.9	99.270	0.200	-0.840	0.230
2020/01/31 16:03:03.0	99.290	0.200	-0.870	0.230
2020/01/31 16:03:03.1	99.310	0.190	-0.900	0.240
2020/01/31 16:03:03.2	99.340	0.180	-0.920	0.250
2020/01/31 16:03:03.3	99.360	0.180	-0.930	0.260
2020/01/31 16:03:03.4	99.380	0.160	-0.940	0.270
2020/01/31 16:03:03.5	99.400	0.150	-0.940	0.280
2020/01/31 16:03:03.6	99.420	0.140	-0.940	0.280
2020/01/31 16:03:03.7	99.440	0.130	-0.930	0.300
2020/01/31 16:03:03.8	99.460	0.110	-0.910	0.310
2020/01/31 16:03:03.9	99.480	0.100	-0.890	0.320
2020/01/31 16:03:04.0	99.490	0.080	-0.870	0.330
2020/01/31 16:03:04.1	99.510	0.070	-0.830	0.340
2020/01/31 16:03:04.2	99.520	0.050	-0.800	0.360
2020/01/31 16:03:04.3	99.530	0.040	-0.760	0.380
2020/01/31 16:03:04.4	99.540	0.020	-0.710	0.390
2020/01/31 16:03:04.5	99.550	0.010	-0.660	0.410
2020/01/31 16:03:04.6	99.550	-0.010	-0.610	0.430
2020/01/31 16:03:04.7	99.540	-0.020	-0.550	0.460
2020/01/31 16:03:04.8	99.540	-0.030	-0.490	0.480
2020/01/31 16:03:04.9	99.540	-0.050	-0.430	0.500
2020/01/31 16:03:05.0	99.550	-0.060	-0.360	0.530
2020/01/31 16:03:05.1	99.540	-0.070	-0.300	0.550
2020/01/31 16:03:05.2	99.540	-0.090	-0.230	0.580
2020/01/31 16:03:05.3	99.540	-0.100	-0.160	0.600
2020/01/31 16:03:05.4	99.540	-0.110	-0.100	0.630
2020/01/31 16:03:05.5	99.530	-0.120	-0.030	0.660
2020/01/31 16:03:05.6	99.530	-0.130	0.030	0.680
2020/01/31 16:03:05.7	99.530	-0.140	0.090	0.710
2020/01/31 16:03:05.8	99.530	-0.150	0.150	0.740
2020/01/31 16:03:05.9	99.530	-0.160	0.210	0.760
2020/01/31 16:03:06.0	99.520	-0.170	0.270	0.790
2020/01/31 16:03:06.1	99.520	-0.180	0.320	0.820
2020/01/31 16:03:06.2	99.510	-0.190	0.360	0.840
2020/01/31 16:03:06.3	99.510	-0.200	0.410	0.870
2020/01/31 16:03:06.4	99.500	-0.200	0.440	0.890
2020/01/31 16:03:06.5	99.500	-0.210	0.480	0.920
2020/01/31 16:03:06.6	99.490	-0.220	0.510	0.950
2020/01/31 16:03:06.7	99.490	-0.230	0.530	0.970
2020/01/31 16:03:06.8	99.480	-0.230	0.550	1.000
2020/01/31 16:03:06.9	99.480	-0.240	0.560	1.020
2020/01/31 16:03:07.0	99.470	-0.250	0.570	1.050
2020/01/31 16:03:07.1	99.470	-0.250	0.570	1.070
2020/01/31 16:03:07.2	99.460	-0.260	0.570	1.090
2020/01/31 16:03:07.3	99.460	-0.260	0.570	1.110
2020/01/31 16:03:07.4	99.460	-0.270	0.550	1.130
2020/01/31 16:03:07.5	99.450	-0.270	0.540	1.150
2020/01/31 16:03:07.6	99.450	-0.270	0.520	1.170
2020/01/31 16:03:07.7	99.460	-0.270	0.490	1.190
2020/01/31 16:03:07.8	99.460	-0.280	0.460	1.200
2020/01/31 16:03:07.9	99.460	-0.280	0.430	1.210
2020/01/31 16:03:08.0	99.450	-0.280	0.400	1.230
2020/01/31 16:03:08.1	99.450	-0.280	0.360	1.240
2020/01/31 16:03:08.2	99.450	-0.280	0.320	1.240
2020/01/31 16:03:08.3	99.450	-0.270	0.270	1.250
2020/01/31 16:03:08.4	99.450	-0.270	0.230	1.250
2020/01/31 16:03:08.5	99.450	-0.270	0.180	1.250
2020/01/31 16:03:08.6	99.450	-0.260	0.140	1.250
2020/01/31 16:03:08.7	99.450	-0.250	0.090	1.250
2020/01/31 16:03:08.8	99.450	-0.250	0.040	1.240
2020/01/31 16:03:08.9	99.460	-0.240	-0.010	1.230
2020/01/31 16:03:09.0	99.460	-0.230	-0.050	1.210
2020/01/31 16:03:09.1	99.460	-0.220	-0.100	1.190
2020/01/31 16:03:09.2	99.470	-0.210	-0.150	1.170
2020/01/31 16:03:09.3	99.470	-0.200	-0.200	1.150
2020/01/31 16:03:09.4	99.480	-0.190	-0.240	1.120
2020/01/31 16:03:09.5	99.480	-0.170	-0.290	1.080
2020/01/31 16:03:09.6	99.490	-0.160	-0.330	1.050
2020/01/31 16:03:09.7	99.490	-0.150	-0.370	1.000
2020/01/31 16:03:09.8	99.490	-0.130	-0.410	0.960
2020/01/31 16:03:09.9	99.500	-0.120	-0.450	0.920
2020/01/31 16:03:10.0	99.500	-0.100	-0.490	0.870
2020/01/31 16:03:10.1	99.500	-0.090	-0.520	0.820
2020/01/31 16:03:10.2	99.510	-0.070	-0.560	0.760
2020/01/31 16:03:10.3	99.510	-0.050	-0.590	0.710
2020/01/31 16:03:10.4	99.510	-0.040	-0.610	0.650
2020/01/31 16:03:10.5	99.510	-0.020	-0.640	0.590
2020/01/31 16:03:10.6	99.510	-0.000	-0.660	0.530
2020/01/31 16:03:10.7	99.500	0.020	-0.680	0.470
2020/01/31 16:03:10.8	99.500	0.030	-0.700	0.400
2020/01/31 16:03:10.9	99.500	0.050	-0.720	0.340
2020/01/31 16:03:11.0	99.490	0.070	-0.730	0.280
2020/01/31 16:03:11.1	99.490	0.080	-0.740	0.210
2020/01/31 16:03:11.2	99.490	0.100	-0.750	0.150
2020/01/31 16:03:11.3	99.490	0.120	-0.750	0.090
2020/01/31 16:03:11.4	99.480	0.130	-0.750	0.030
2020/01/31 16:03:11.5	99.480	0.150	-0.750	-0.030
2020/01/31 16:03:11.6	99.480	0.170	-0.750	-0.090
2020/01/31 16:03:11.7	99.480	0.180	-0.730	-0.150
2020/01/31 16:03:11.8	99.470	0.200	-0.720	-0.210
2020/01/31 16:03:11.9	99.470	0.210	-0.700	-0.260
2020/01/31 16:03:12.0	99.460	0.220	-0.680	-0.310
2020/01/31 16:03:12.1	99.460	0.230	-0.660	-0.360
2020/01/31 16:03:12.2	99.450	0.240	-0.630	-0.410
2020/01/31 16:03:12.3	99.450	0.250	-0.600	-0.450
2020/01/31 16:03:12.4	99.440	0.260	-0.570	-0.490
2020/01/31 16:03:12.5	99.430	0.270	-0.540	-0.530
2020/01/31 16:03:12.6	99.420	0.280	-0.500	-0.560
2020/01/31 16:03:12.7	99.420	0.280	-0.460	-0.590
2020/01/31 16:03:12.8	99.410	0.290	-0.430	-0.610
2020/01/31 16:03:12.9	99.400	0.290	-0.390	-0.640
2020/01/31 16:03:13.0	99.390	0.290	-0.350	-0.650
2020/01/31 16:03:13.1	99.380	0.290	-0.310	-0.670
2020/01/31 16:03:13.2	99.370	0.290	-0.270	-0.680
2020/01/31 16:03:13.3	99.360	0.290	-0.240	-0.690
2020/01/31 16:03:13.4	99.350	0.290	-0.200	-0.690
2020/01/31 16:03:13.5	99.340	0.280	-0.170	-0.690
2020/01/31 16:03:13.6	99.330	0.280	-0.130	-0.690
2020/01/31 16:03:13.7	99.320	0.270	-0.100	-0.680
2020/01/31 16:03:13.8	99.310	0.260	-0.080	-0.670
2020/01/31 16:03:13.9	99.300	0.250	-0.050	-0.660
2020/01/31 16:03:14.0	99.300	0.240	-0.030	-0.640
2020/01/31 16:03:14.1	99.290	0.230	-0.010	-0.630
2020/01/31 16:03:14.2	99.290	0.220	0.010	-0.610
2020/01/31 16:03:14.3	99.280	0.210	0.030	-0.580
2020/01/31 16:03:14.4	99.280	0.190	0.040	-0.560
2020/01/31 16:03:14.5	99.280	0.180	0.050	-0.530
2020/01/31 16:03:14.6	99.280	0.160	0.060	-0.500
2020/01/31 16:03:14.7	99.290	0.150	0.060	-0.470
2020/01/31 16:03:14.8	99.290	0.130	0.070	-0.440
2020/01/31 16:03:14.9	99.290	0.120	0.070	-0.400
2020/01/31 16:03:15.0	99.290	0.100	0.070	-0.370
2020/01/31 16:03:15.1	99.300	0.080	0.070	-0.330
2020/01/31 16:03:15.2	99.310	0.060	0.070	-0.300
2020/01/31 16:03:15.3	99.320	0.050	0.060	-0.270
2020/01/31 16:03:15.4	99.330	0.030	0.050	-0.230
2020/01/31 16:03:15.5	99.340	0.010	0.050	-0.200
2020/01/31 16:03:15.6	99.350	-0.010	0.040	-0.170
2020/01/31 16:03:15.7	99.360	-0.030	0.030	-0.140
2020/01/31 16:03:15.8	99.380	-0.040	0.030	-0.110
2020/01/31 16:03:15.9	99.390	-0.060	0.020	-0.080
2020/01/31 16:03:16.0	99.410	-0.080	0.010	-0.060
2020/01/31 16:03:16.1	99.420	-0.090	-0.000	-0.040
2020/01/31 16:03:16.2	99.440	-0.110	-0.010	-0.020
2020/01/31 16:03:16.3	99.460	-0.120	-0.020	0.000
2020/01/31 16:03:16.4	99.470	-0.140	-0.030	0.020
2020/01/31 16:03:16.5	99.490	-0.150	-0.030	0.030
2020/01/31 16:03:16.6	99.510	-0.160	-0.040	0.050
2020/01/31 16:03:16.7	99.520	-0.170	-0.050	0.060
2020/01/31 16:03:16.8	99.540	-0.180	-0.050	0.070
2020/01/31 16:03:16.9	99.550	-0.190	-0.050	0.080
2020/01/31 16:03:17.0	99.560	-0.190	-0.060	0.090
2020/01/31 16:03:17.1	99.570	-0.200	-0.060	0.110
2020/01/31 16:03:17.2	99.580	-0.200	-0.060	0.120
2020/01/31 16:03:17.3	99.590	-0.200	-0.060	0.130
2020/01/31 16:03:17.4	99.600	-0.200	-0.060	0.140
2020/01/31 16:03:17.5	99.610	-0.200	-0.060	0.150
2020/01/31 16:03:17.6	99.610	-0.190	-0.060	0.160
2020/01/31 16:03:17.7	99.620	-0.190	-0.060	0.180
2020/01/31 16:03:17.8	99.620	-0.180	-0.060	0.200
2020/01/31 16:03:17.9	99.610	-0.170	-0.060	0.210
2020/01/31 16:03:18.0	99.610	-0.160	-0.060	0.230
2020/01/31 16:03:18.1	99.610	-0.140	-0.060	0.250
2020/01/31 16:03:18.2	99.600	-0.130	-0.060	0.270
2020/01/31 16:03:18.3	99.590	-0.110	-0.060	0.290
2020/01/31 16:03:18.4	99.580	-0.100	-0.060	0.310
2020/01/31 16:03:18.5	99.570	-0.080	-0.060	0.340
2020/01/31 16:03:18.6	99.560	-0.060	-0.060	0.360
2020/01/31 16:03:18.7	99.540	-0.040	-0.070	0.400
2020/01/31 16:03:18.8	99.530	-0.020	-0.070	0.420
2020/01/31 16:03:18.9	99.510	0.000	-0.080	0.450
2020/01/31 16:03:19.0	99.500	0.020	-0.090	0.490
2020/01/31 16:03:19.1	99.480	0.050	-0.100	0.520
2020/01/31 16:03:19.2	99.460	0.070	-0.110	0.550
2020/01/31 16:03:19.3	99.450	0.090	-0.120	0.580
2020/01/31 16:03:19.4	99.430	0.110	-0.140	0.620
2020/01/31 16:03:19.5	99.420	0.130	-0.150	0.650
2020/01/31 16:03:19.6	99.400	0.150	-0.170	0.690
2020/01/31 16:03:19.7	99.380	0.160	-0.190	0.710
2020/01/31 16:03:19.8	99.370	0.180	-0.210	0.750
2020/01/31 16:03:19.9	99.360	0.200	-0.230	0.780
2020/01/31 16:03:20.0	99.360	0.210	-0.250	0.810
2020/01/31 16:03:20.1	99.350	0.230	-0.270	0.830
2020/01/31 16:03:20.2	99.350	0.240	-0.290	0.860
2020/01/31 16:03:20.3	99.360	0.250	-0.320	0.880
2020/01/31 16:03:20.4	99.360	0.260	-0.340	0.900
2020/01/31 16:03:20.5	99.370	0.260	-0.360	0.910
2020/01/31 16:03:20.6	99.390	0.270	-0.380	0.930
2020/01/31 16:03:20.7	99.400	0.270	-0.400	0.940
2020/01/31 16:03:20.8	99.420	0.270	-0.420	0.940
2020/01/31 16:03:20.9	99.440	0.270	-0.430	0.940
2020/01/31 16:03:21.0	99.460	0.270	-0.450	0.940
2020/01/31 16:03:21.1	99.480	0.270	-0.460	0.930
2020/01/31 16:03:21.2	99.510	0.260	-0.470	0.920
2020/01/31 16:03:21.3	99.540	0.250	-0.480	0.900
2020/01/31 16:03:21.4	99.560	0.240	-0.490	0.890
2020/01/31 16:03:21.5	99.590	0.230	-0.490	0.860
2020/01/31 16:03:21.6	99.620	0.220	-0.490	0.840
2020/01/31 16:03:21.7	99.660	0.200	-0.490	0.810
2020/01/31 16:03:21.8	99.690	0.190	-0.480	0.780
2020/01/31 16:03:21.9	99.720	0.170	-0.470	0.750
2020/01/31 16:03:22.0	99.750	0.150	-0.450	0.720
2020/01/31 16:03:22.1	99.770	0.130	-0.430	0.690
2020/01/31 16:03:22.2	99.790	0.110	-0.410	0.660
2020/01/31 16:03:22.3	99.820	0.090	-0.390	0.620
2020/01/31 16:03:22.4	99.840	0.070	-0.360	0.590
2020/01/31 16:03:22.5	99.860	0.050	-0.320	0.560
2020/01/31 16:03:22.6	99.870	0.020	-0.290	0.530
2020/01/31 16:03:22.7	99.890	-0.000	-0.250	0.510
2020/01/31 16:03:22.8	99.910	-0.030	-0.200	0.480
2020/01/31 16:03:22.9	99.920	-0.060	-0.160	0.460
2020/01/31 16:03:23.0	99.930	-0.080	-0.110	0.430
2020/01/31 16:03:23.1	99.940	-0.110	-0.060	0.410
2020/01/31 16:03:23.2	99.950	-0.140	-0.010	0.390
2020/01/31 16:03:23.3	99.950	-0.170	0.040	0.380
2020/01/31 16:03:23.4	99.950	-0.200	0.090	0.360
2020/01/31 16:03:23.5	99.950	-0.230	0.140	0.350
2020/01/31 16:03:23.6	99.950	-0.250	0.190	0.350
2020/01/31 16:03:23.7	99.960	-0.280	0.240	0.340
2020/01/31 16:03:23.8	99.950	-0.310	0.290	0.340
2020/01/31 16:03:23.9	99.950	-0.340	0.330	0.340
2020/01/31 16:03:24.0	99.940	-0.360	0.370	0.340
2020/01/31 16:03:24.1	99.930	-0.390	0.410	0.350
2020/01/31 16:03:24.2	99.920	-0.410	0.440	0.360
2020/01/31 16:03:24.3	99.910	-0.430	0.470	0.370
2020/01/31 16:03:24.4	99.900	-0.450	0.490	0.380
2020/01/31 16:03:24.5	99.890	-0.470	0.510	0.390
2020/01/31 16:03:24.6	99.870	-0.490	0.520	0.410
2020/01/31 16:03:24.7	99.860	-0.510	0.530	0.420
2020/01/31 16:03:24.8	99.840	-0.520	0.530	0.440
2020/01/31 16:03:24.9	99.830	-0.530	0.520	0.460
2020/01/31 16:03:25.0	99.810	-0.540	0.510	0.480
2020/01/31 16:03:25.1	99.800	-0.550	0.480	0.490
2020/01/31 16:03:25.2	99.790	-0.550	0.460	0.510
2020/01/31 16:03:25.3	99.770	-0.550	0.420	0.530
2020/01/31 16:03:25.4	99.760	-0.550	0.380	0.540
2020/01/31 16:03:25.5	99.750	-0.550	0.330	0.550
2020/01/31 16:03:25.6	99.740	-0.540	0.280	0.560
2020/01/31 16:03:25.7	99.730	-0.530	0.220	0.570
2020/01/31 16:03:25.8	99.720	-0.520	0.150	0.570
2020/01/31 16:03:25.9	99.710	-0.500	0.080	0.570
2020/01/31 16:03:26.0	99.710	-0.480	0.010	0.570
2020/01/31 16:03:26.1	99.700	-0.460	-0.070	0.560
2020/01/31 16:03:26.2	99.700	-0.440	-0.150	0.550
2020/01/31 16:03:26.3	99.700	-0.410	-0.230	0.540
2020/01/31 16:03:26.4	99.700	-0.380	-0.320	0.520
2020/01/31 16:03:26.5	99.700	-0.350	-0.400	0.510
2020/01/31 16:03:26.6	99.700	-0.320	-0.480	0.480
2020/01/31 16:03:26.7	99.700	-0.290	-0.560	0.460
2020/01/31 16:03:26.8	99.710	-0.250	-0.640	0.430
2020/01/31 16:03:26.9	99.710	-0.220	-0.720	0.400
2020/01/31 16:03:27.0	99.720	-0.180	-0.790	0.370
2020/01/31 16:03:27.1	99.720	-0.140	-0.860	0.330
2020/01/31 16:03:27.2	99.730	-0.100	-0.920	0.300
2020/01/31 16:03:27.3	99.740	-0.060	-0.970	0.260
2020/01/31 16:03:27.4	99.740	-0.020	-1.020	0.230
2020/01/31 16:03:27.5	99.750	0.020	-1.060	0.190
2020/01/31 16:03:27.6	99.760	0.050	-1.090	0.150
2020/01/31 16:03:27.7	99.760	0.090	-1.120	0.110
2020/01/31 16:03:27.8	99.770	0.130	-1.140	0.070
2020/01/31 16:03:27.9	99.780	0.160	-1.150	0.030
2020/01/31 16:03:28.0	99.790	0.200	-1.150	-0.010
2020/01/31 16:03:28.1	99.800	0.230	-1.140	-0.050
2020/01/31 16:03:28.2	99.820	0.260	-1.130	-0.090
2020/01/31 16:03:28.3	99.830	0.290	-1.110	-0.120
2020/01/31 16:03:28.4	99.840	0.310	-1.080	-0.160
2020/01/31 16:03:28.5	99.850	0.340	-1.040	-0.200
2020/01/31 16:03:28.6	99.870	0.360	-1.000	-0.240
2020/01/31 16:03:28.7	99.870	0.380	-0.950	-0.270
2020/01/31 16:03:28.8	99.880	0.390	-0.900	-0.300
2020/01/31 16:03:28.9	99.900	0.410	-0.840	-0.330
2020/01/31 16:03:29.0	99.910	0.420	-0.780	-0.360
2020/01/31 16:03:29.1	99.930	0.420	-0.710	-0.390
2020/01/31 16:03:29.2	99.950	0.430	-0.640	-0.410
2020/01/31 16:03:29.3	99.960	0.430	-0.570	-0.430
2020/01/31 16:03:29.4	99.980	0.430	-0.490	-0.450
2020/01/31 16:03:29.5	100.000	0.430	-0.420	-0.470
2020/01/31 16:03:29.6	100.010	0.420	-0.340	-0.480
2020/01/31 16:03:29.7	100.040	0.420	-0.260	-0.490
2020/01/31 16:03:29.8	100.050	0.410	-0.180	-0.500
2020/01/31 16:03:29.9	100.070	0.400	-0.100	-0.500
2020/01/31 16:03:30.0	100.080	0.390	-0.020	-0.500
2020/01/31 16:03:30.1	100.100	0.370	0.050	-0.500
2020/01/31 16:03:30.2	100.110	0.360	0.130	-0.490
2020/01/31 16:03:30.3	100.120	0.340	0.200	-0.480
2020/01/31 16:03:30.4	100.130	0.330	0.260	-0.470
2020/01/31 16:03:30.5	100.140	0.310	0.330	-0.460
2020/01/31 16:03:30.6	100.150	0.290	0.390	-0.440
2020/01/31 16:03:30.7	100.160	0.280	0.440	-0.420
2020/01/31 16:03:30.8	100.160	0.260	0.490	-0.400
2020/01/31 16:03:30.9	100.170	0.240	0.530	-0.380
2020/01/31 16:03:31.0	100.170	0.230	0.570	-0.350
2020/01/31 16:03:31.1	100.170	0.210	0.600	-0.330
2020/01/31 16:03:31.2	100.170	0.200	0.630	-0.300
2020/01/31 16:03:31.3	100.160	0.190	0.640	-0.280
2020/01/31 16:03:31.4	100.160	0.180	0.650	-0.250
2020/01/31 16:03:31.5	100.160	0.170	0.660	-0.220
2020/01/31 16:03:31.6	100.150	0.160	0.650	-0.190
2020/01/31 16:03:31.7	100.150	0.150	0.640	-0.160
2020/01/31 16:03:31.8	100.140	0.140	0.630	-0.120
2020/01/31 16:03:31.9	100.130	0.140	0.600	-0.090
2020/01/31 16:03:32.0	100.120	0.130	0.570	-0.060
2020/01/31 16:03:32.1	100.110	0.130	0.540	-0.020
2020/01/31 16:03:32.2	100.100	0.130	0.500	0.010
2020/01/31 16:03:32.3	100.080	0.120	0.450	0.050
2020/01/31 16:03:32.4	100.070	0.120	0.400	0.080
2020/01/31 16:03:32.5	100.060	0.120	0.350	0.110
2020/01/31 16:03:32.6	100.050	0.120	0.290	0.150
2020/01/31 16:03:32.7	100.030	0.120	0.230	0.180
2020/01/31 16:03:32.8	100.020	0.120	0.170	0.220
2020/01/31 16:03:32.9	100.000	0.110	0.100	0.250
2020/01/31 16:03:33.0	99.990	0.110	0.040	0.280
2020/01/31 16:03:33.1	99.990	0.110	-0.020	0.310
2020/01/31 16:03:33.2	99.980	0.110	-0.090	0.340
2020/01/31 16:03:33.3	99.970	0.100	-0.150	0.360
2020/01/31 16:03:33.4	99.970	0.100	-0.210	0.390
2020/01/31 16:03:33.5	99.970	0.090	-0.270	0.410
2020/01/31 16:03:33.6	99.970	0.090	-0.330	0.430
2020/01/31 16:03:33.7	99.970	0.080	-0.390	0.450
2020/01/31 16:03:33.8	99.970	0.080	-0.440	0.470
2020/01/31 16:03:33.9	99.980	0.070	-0.490	0.490
2020/01/31 16:03:34.0	99.990	0.060	-0.530	0.510
2020/01/31 16:03:34.1	100.000	0.050	-0.570	0.530
2020/01/31 16:03:34.2	100.010	0.040	-0.610	0.540
2020/01/31 16:03:34.3	100.020	0.030	-0.640	0.560
2020/01/31 16:03:34.4	100.040	0.010	-0.660	0.580
2020/01/31 16:03:34.5	100.050	0.000	-0.690	0.590
2020/01/31 16:03:34.6	100.070	-0.010	-0.700	0.610
2020/01/31 16:03:34.7	100.080	-0.030	-0.710	0.630
2020/01/31 16:03:34.8	100.100	-0.040	-0.720	0.650
2020/01/31 16:03:34.9	100.120	-0.060	-0.720	0.670
2020/01/31 16:03:35.0	100.140	-0.070	-0.720	0.690
2020/01/31 16:03:35.1	100.150	-0.090	-0.710	0.720
2020/01/31 16:03:35.2	100.170	-0.100	-0.700	0.740
2020/01/31 16:03:35.3	100.190	-0.120	-0.690	0.770
2020/01/31 16:03:35.4	100.200	-0.130	-0.670	0.800
2020/01/31 16:03:35.5	100.210	-0.150	-0.640	0.830
2020/01/31 16:03:35.6	100.230	-0.160	-0.620	0.860
2020/01/31 16:03:35.7	100.230	-0.170	-0.590	0.900
2020/01/31 16:03:35.8	100.240	-0.190	-0.550	0.930
2020/01/31 16:03:35.9	100.240	-0.200	-0.520	0.970
2020/01/31 16:03:36.0	100.250	-0.210	-0.480	1.000
2020/01/31 16:03:36.1	100.250	-0.220	-0.440	1.030
2020/01/31 16:03:36.2	100.250	-0.240	-0.410	1.070
2020/01/31 16:03:36.3	100.260	-0.250	-0.370	1.100
2020/01/31 16:03:36.4	100.260	-0.250	-0.320	1.130
2020/01/31 16:03:36.5	100.250	-0.260	-0.280	1.160
2020/01/31 16:03:36.6	100.250	-0.270	-0.240	1.190
2020/01/31 16:03:36.7	100.250	-0.280	-0.200	1.210
2020/01/31 16:03:36.8	100.250	-0.280	-0.150	1.240
2020/01/31 16:03:36.9	100.250	-0.290	-0.120	1.260
2020/01/31 16:03:37.0	100.240	-0.290	-0.080	1.270
2020/01/31 16:03:37.1	100.240	-0.290	-0.040	1.290
2020/01/31 16:03:37.2	100.240	-0.300	-0.000	1.290
2020/01/31 16:03:37.3	100.230	-0.300	0.030	1.300
2020/01/31 16:03:37.4	100.230	-0.300	0.060	1.300
2020/01/31 16:03:37.5	100.230	-0.300	0.090	1.300
2020/01/31 16:03:37.6	100.230	-0.300	0.120	1.290
2020/01/31 16:03:37.7	100.230	-0.290	0.150	1.290
2020/01/31 16:03:37.8	100.230	-0.290	0.170	1.270
2020/01/31 16:03:37.9	100.230	-0.290	0.190	1.260
2020/01/31 16:03:38.0	100.220	-0.280	0.210	1.240
2020/01/31 16:03:38.1	100.220	-0.280	0.220	1.210
2020/01/31 16:03:38.2	100.220	-0.270	0.230	1.190
2020/01/31 16:03:38.3	100.220	-0.260	0.240	1.160
2020/01/31 16:03:38.4	100.220	-0.260	0.250	1.130
2020/01/31 16:03:38.5	100.220	-0.250	0.250	1.100
2020/01/31 16:03:38.6	100.220	-0.240	0.250	1.070
2020/01/31 16:03:38.7	100.200	-0.230	0.240	1.030
2020/01/31 16:03:38.8	100.200	-0.220	0.240	1.000
2020/01/31 16:03:38.9	100.200	-0.210	0.230	0.960
2020/01/31 16:03:39.0	100.200	-0.200	0.220	0.920
2020/01/31 16:03:39.1	100.190	-0.190	0.200	0.890
2020/01/31 16:03:39.2	100.190	-0.170	0.180	0.850
2020/01/31 16:03:39.3	100.190	-0.160	0.160	0.810
2020/01/31 16:03:39.4	100.180	-0.150	0.140	0.770
2020/01/31 16:03:39.5	100.180	-0.130	0.120	0.740
2020/01/31 16:03:39.6	100.180	-0.120	0.090	0.700
2020/01/31 16:03:39.7	100.180	-0.100	0.060	0.660
2020/01/31 16:03:39.8	100.180	-0.090	0.030	0.620
2020/01/31 16:03:39.9	100.180	-0.070	-0.010	0.580
2020/01/31 16:03:40.0	100.180	-0.060	-0.040	0.540
2020/01/31 16:03:40.1	100.180	-0.040	-0.080	0.500
2020/01/31 16:03:40.2	100.180	-0.020	-0.120	0.450
2020/01/31 16:03:40.3	100.180	-0.010	-0.160	0.410
2020/01/31 16:03:40.4	100.190	0.010	-0.190	0.370
2020/01/31 16:03:40.5	100.200	0.030	-0.230	0.320
2020/01/31 16:03:40.6	100.200	0.040	-0.270	0.280
2020/01/31 16:03:40.7	100.210	0.060	-0.310	0.230
2020/01/31 16:03:40.8	100.220	0.070	-0.340	0.190
2020/01/31 16:03:40.9	100.230	0.090	-0.380	0.140
2020/01/31 16:03:41.0	100.250	0.100	-0.410	0.090
2020/01/31 16:03:41.1	100.260	0.110	-0.440	0.040
2020/01/31 16:03:41.2	100.280	0.120	-0.470	-0.010
2020/01/31 16:03:41.3	100.300	0.130	-0.500	-0.060
2020/01/31 16:03:41.4	100.320	0.140	-0.520	-0.110
2020/01/31 16:03:41.5	100.340	0.150	-0.540	-0.170
2020/01/31 16:03:41.6	100.360	0.160	-0.550	-0.220
2020/01/31 16:03:41.7	100.380	0.170	-0.570	-0.270
2020/01/31 16:03:41.8	100.400	0.170	-0.580	-0.320
2020/01/31 16:03:41.9	100.420	0.170	-0.580	-0.370
2020/01/31 16:03:42.0	100.440	0.170	-0.580	-0.410
2020/01/31 16:03:42.1	100.460	0.180	-0.580	-0.450
2020/01/31 16:03:42.2	100.480	0.170	-0.580	-0.490
2020/01/31 16:03:42.3	100.500	0.170	-0.570	-0.530
2020/01/31 16:03:42.4	100.520	0.170	-0.550	-0.570
2020/01/31 16:03:42.5	100.540	0.170	-0.540	-0.600
2020/01/31 16:03:42.6	100.550	0.160	-0.520	-0.630
2020/01/31 16:03:42.7	100.560	0.150	-0.500	-0.650
2020/01/31 16:03:42.8	100.580	0.150	-0.470	-0.670
2020/01/31 16:03:42.9	100.590	0.140	-0.440	-0.690
2020/01/31 16:03:43.0	100.590	0.130	-0.410	-0.700
2020/01/31 16:03:43.1	100.600	0.120	-0.380	-0.710
2020/01/31 16:03:43.2	100.600	0.110	-0.340	-0.710
2020/01/31 16:03:43.3	100.590	0.100	-0.310	-0.720
2020/01/31 16:03:43.4	100.590	0.090	-0.270	-0.710
2020/01/31 16:03:43.5	100.580	0.080	-0.230	-0.710
2020/01/31 16:03:43.6	100.570	0.070	-0.190	-0.700
2020/01/31 16:03:43.7	100.570	0.060	-0.150	-0.680
2020/01/31 16:03:43.8	100.550	0.050	-0.110	-0.670
2020/01/31 16:03:43.9	100.530	0.040	-0.070	-0.650
2020/01/31 16:03:44.0	100.510	0.030	-0.030	-0.620
2020/01/31 16:03:44.1	100.480	0.020	0.010	-0.600
2020/01/31 16:03:44.2	100.460	0.020	0.050	-0.570
2020/01/31 16:03:44.3	100.430	0.010	0.080	-0.540
2020/01/31 16:03:44.4	100.400	0.000	0.120	-0.500
2020/01/31 16:03:44.5	100.360	-0.000	0.150	-0.470
2020/01/31 16:03:44.6	100.330	-0.010	0.180	-0.430
2020/01/31 16:03:44.7	100.300	-0.010	0.200	-0.390
2020/01/31 16:03:44.8	100.260	-0.010	0.220	-0.350
2020/01/31 16:03:44.9	100.230	-0.010	0.240	-0.310
2020/01/31 16:03:45.0	100.190	-0.010	0.260	-0.270
2020/01/31 16:03:45.1	100.160	-0.010	0.270	-0.230
2020/01/31 16:03:45.2	100.130	-0.010	0.280	-0.190
2020/01/31 16:03:45.3	100.100	-0.010	0.280	-0.160
2020/01/31 16:03:45.4	100.070	-0.000	0.280	-0.120
2020/01/31 16:03:45.5	100.040	0.000	0.270	-0.080
2020/01/31 16:03:45.6	100.010	0.010	0.260	-0.050
2020/01/31 16:03:45.7	99.990	0.020	0.250	-0.020
2020/01/31 16:03:45.8	99.960	0.030	0.230	0.010
2020/01/31 16:03:45.9	99.940	0.040	0.210	0.040
2020/01/31 16:03:46.0	99.930	0.050	0.180	0.060
2020/01/31 16:03:46.1	99.910	0.060	0.150	0.090
2020/01/31 16:03:46.2	99.900	0.070	0.120	0.110
2020/01/31 16:03:46.3	99.890	0.090	0.090	0.130
2020/01/31 16:03:46.4	99.880	0.100	0.050	0.140
2020/01/31 16:03:46.5	99.880	0.120	0.000	0.160
2020/01/31 16:03:46.6	99.880	0.130	-0.040	0.170
2020/01/31 16:03:46.7	99.870	0.150	-0.090	0.180
2020/01/31 16:03:46.8	99.870	0.160	-0.140	0.200
2020/01/31 16:03:46.9	99.870	0.180	-0.190	0.200
2020/01/31 16:03:47.0	99.880	0.200	-0.240	0.210
2020/01/31 16:03:47.1	99.890	0.210	-0.290	0.220
2020/01/31 16:03:47.2	99.900	0.230	-0.340	0.230
2020/01/31 16:03:47.3	99.910	0.240	-0.400	0.240
2020/01/31 16:03:47.4	99.920	0.260	-0.450	0.240
2020/01/31 16:03:47.5	99.930	0.270	-0.500	0.250
2020/01/31 16:03:47.6	99.940	0.290	-0.550	0.260
2020/01/31 16:03:47.7	99.960	0.300	-0.600	0.270
2020/01/31 16:03:47.8	99.970	0.310	-0.650	0.280
2020/01/31 16:03:47.9	99.990	0.320	-0.690	0.290
2020/01/31 16:03:48.0	100.010	0.330	-0.730	0.300
2020/01/31 16:03:48.1	100.020	0.340	-0.770	0.310
2020/01/31 16:03:48.2	100.040	0.340	-0.800	0.330
2020/01/31 16:03:48.3	100.060	0.350	-0.830	0.340
2020/01/31 16:03:48.4	100.080	0.350	-0.850	0.360
2020/01/31 16:03:48.5	100.110	0.350	-0.870	0.370
2020/01/31 16:03:48.6	100.130	0.350	-0.890	0.390
2020/01/31 16:03:48.7	100.140	0.340	-0.890	0.410
2020/01/31 16:03:48.8	100.160	0.340	-0.890	0.420
2020/01/31 16:03:48.9	100.180	0.330	-0.890	0.440
2020/01/31 16:03:49.0	100.210	0.310	-0.880	0.460
2020/01/31 16:03:49.1	100.230	0.300	-0.860	0.490
2020/01/31 16:03:49.2	100.260	0.280	-0.840	0.510
2020/01/31 16:03:49.3	100.290	0.270	-0.820	0.530
2020/01/31 16:03:49.4	100.310	0.240	-0.790	0.560
2020/01/31 16:03:49.5	100.340	0.220	-0.750	0.580
2020/01/31 16:03:49.6	100.360	0.200	-0.710	0.610
2020/01/31 16:03:49.7	100.390	0.170	-0.660	0.640
2020/01/31 16:03:49.8	100.410	0.140	-0.610	0.670
2020/01/31 16:03:49.9	100.430	0.110	-0.560	0.700
2020/01/31 16:03:50.0	100.460	0.070	-0.500	0.730
2020/01/31 16:03:50.1	100.470	0.040	-0.440	0.760
2020/01/31 16:03:50.2	100.490	0.010	-0.380	0.790
2020/01/31 16:03:50.3	100.510	-0.030	-0.320	0.830
2020/01/31 16:03:50.4	100.520	-0.070	-0.250	0.860
2020/01/31 16:03:50.5	100.540	-0.110	-0.190	0.890
2020/01/31 16:03:50.6	100.550	-0.140	-0.120	0.920
2020/01/31 16:03:50.7	100.550	-0.180	-0.050	0.960
2020/01/31 16:03:50.8	100.560	-0.220	0.010	0.990
2020/01/31 16:03:50.9	100.570	-0.260	0.080	1.020
2020/01/31 16:03:51.0	100.570	-0.290	0.140	1.050
2020/01/31 16:03:51.1	100.570	-0.330	0.210	1.080
2020/01/31 16:03:51.2	100.570	-0.360	0.270	1.110
2020/01/31 16:03:51.3	100.560	-0.390	0.330	1.130
2020/01/31 16:03:51.4	100.550	-0.430	0.390	1.160
2020/01/31 16:03:51.5	100.540	-0.460	0.440	1.180
2020/01/31 16:03:51.6	100.530	-0.480	0.490	1.210
2020/01/31 16:03:51.7	100.510	-0.510	0.550	1.230
2020/01/31 16:03:51.8	100.500	-0.530	0.590	1.250
2020/01/31 16:03:51.9	100.480	-0.550	0.640	1.270
2020/01/31 16:03:52.0	100.460	-0.570	0.670	1.290
2020/01/31 16:03:52.1	100.430	-0.580	0.710	1.300
2020/01/31 16:03:52.2	100.410	-0.600	0.740	1.310
2020/01/31 16:03:52.3	100.380	-0.610	0.770	1.330
2020/01/31 16:03:52.4	100.360	-0.610	0.790	1.330
2020/01/31 16:03:52.5	100.330	-0.620	0.810	1.340
2020/01/31 16:03:52.6	100.300	-0.620	0.830	1.350
2020/01/31 16:03:52.7	100.270	-0.620	0.840	1.340
2020/01/31 16:03:52.8	100.250	-0.610	0.840	1.340
2020/01/31 16:03:52.9	100.220	-0.610	0.840	1.340
2020/01/31 16:03:53.0	100.190	-0.600	0.840	1.340
2020/01/31 16:03:53.1	100.170	-0.580	0.830	1.330
2020/01/31 16:03:53.2	100.140	-0.570	0.810	1.330
2020/01/31 16:03:53.3	100.120	-0.550	0.790	1.320
2020/01/31 16:03:53.4	100.100	-0.530	0.760	1.310
2020/01/31 16:03:53.5	100.070	-0.510	0.730	1.290
2020/01/31 16:03:53.6	100.050	-0.480	0.690	1.280
2020/01/31 16:03:53.7	100.030	-0.450	0.640	1.260
2020/01/31 16:03:53.8	100.010	-0.420	0.590	1.240
2020/01/31 16:03:53.9	100.000	-0.390	0.530	1.220
2020/01/31 16:03:54.0	99.980	-0.360	0.460	1.190
2020/01/31 16:03:54.1	99.970	-0.320	0.400	1.160
2020/01/31 16:03:54.2	99.960	-0.290	0.320	1.130
2020/01/31 16:03:54.3	99.950	-0.250	0.240	1.100
2020/01/31 16:03:54.4	99.940	-0.210	0.160	1.060
2020/01/31 16:03:54.5	99.940	-0.170	0.070	1.020
2020/01/31 16:03:54.6	99.940	-0.130	-0.020	0.980
2020/01/31 16:03:54.7	99.940	-0.090	-0.120	0.930
2020/01/31 16:03:54.8	99.940	-0.050	-0.220	0.880
2020/01/31 16:03:54.9	99.950	-0.000	-0.320	0.830
2020/01/31 16:03:55.0	99.950	0.040	-0.420	0.770
2020/01/31 16:03:55.1	99.960	0.080	-0.520	0.710
2020/01/31 16:03:55.2	99.970	0.120	-0.620	0.650
2020/01/31 16:03:55.3	99.980	0.160	-0.710	0.580
2020/01/31 16:03:55.4	99.990	0.200	-0.810	0.520
2020/01/31 16:03:55.5	100.000	0.240	-0.910	0.450
2020/01/31 16:03:55.6	100.020	0.280	-1.000	0.380
2020/01/31 16:03:55.7	100.030	0.320	-1.080	0.310
2020/01/31 16:03:55.8	100.050	0.350	-1.160	0.240
2020/01/31 16:03:55.9	100.070	0.390	-1.240	0.170
2020/01/31 16:03:56.0	100.080	0.420	-1.300	0.090
2020/01/31 16:03:56.1	100.100	0.450	-1.360	0.020
2020/01/31 16:03:56.2	100.120	0.480	-1.420	-0.050
2020/01/31 16:03:56.3	100.140	0.500	-1.460	-0.120
2020/01/31 16:03:56.4	100.160	0.520	-1.500	-0.190
2020/01/31 16:03:56.5	100.170	0.540	-1.520	-0.260
2020/01/31 16:03:56.6	100.190	0.560	-1.540	-0.330
2020/01/31 16:03:56.7	100.210	0.580	-1.550	-0.390
2020/01/31 16:03:56.8	100.230	0.590	-1.540	-0.450
2020/01/31 16:03:56.9	100.240	0.600	-1.530	-0.510
2020/01/31 16:03:57.0	100.250	0.600	-1.510	-0.560
2020/01/31 16:03:57.1	100.260	0.610	-1.480	-0.610
2020/01/31 16:03:57.2	100.260	0.610	-1.440	-0.660
2020/01/31 16:03:57.3	100.270	0.600	-1.390	-0.700
2020/01/31 16:03:57.4	100.270	0.590	-1.340	-0.740
2020/01/31 16:03:57.5	100.270	0.580	-1.270	-0.770
2020/01/31 16:03:57.6	100.270	0.570	-1.190	-0.800
2020/01/31 16:03:57.7	100.280	0.550	-1.110	-0.820
2020/01/31 16:03:57.8	100.280	0.540	-1.020	-0.840
2020/01/31 16:03:57.9	100.280	0.510	-0.930	-0.850
2020/01/31 16:03:58.0	100.270	0.490	-0.830	-0.860
2020/01/31 16:03:58.1	100.260	0.460	-0.730	-0.860
2020/01/31 16:03:58.2	100.250	0.430	-0.620	-0.850
2020/01/31 16:03:58.3	100.240	0.400	-0.510	-0.840
2020/01/31 16:03:58.4	100.230	0.360	-0.390	-0.820
2020/01/31 16:03:58.5	100.220	0.320	-0.280	-0.800
2020/01/31 16:03:58.6	100.200	0.290	-0.160	-0.760
2020/01/31 16:03:58.7	100.190	0.240	-0.040	-0.730
2020/01/31 16:03:58.8	100.170	0.200	0.070	-0.680
2020/01/31 16:03:58.9	100.150	0.160	0.190	-0.640
2020/01/31 16:03:59.0	100.130	0.120	0.300	-0.580
2020/01/31 16:03:59.1	100.100	0.070	0.410	-0.530
2020/01/31 16:03:59.2	100.070	0.030	0.520	-0.470
2020/01/31 16:03:59.3	100.050	-0.020	0.620	-0.410
2020/01/31 16:03:59.4	100.020	-0.060	0.710	-0.340
2020/01/31 16:03:59.5	99.990	-0.100	0.800	-0.280
2020/01/31 16:03:59.6	99.960	-0.150	0.880	-0.210
2020/01/31 16:03:59.7	99.930	-0.190	0.960	-0.140
2020/01/31 16:03:59.8	99.900	-0.230	1.020	-0.070
2020/01/31 16:03:59.9	99.870	-0.260	1.080	-0.000
2020/01/31 16:04:00.0	99.850	-0.300	1.130	0.060
2020/01/31 16:04:00.1	99.820	-0.330	1.170	0.130
2020/01/31 16:04:00.2	99.790	-0.360	1.200	0.190
2020/01/31 16:04:00.3	99.770	-0.390	1.220	0.250
2020/01/31 16:04:00.4	99.750	-0.420	1.230	0.300
2020/01/31 16:04:00.5	99.730	-0.440	1.230	0.350
2020/01/31 16:04:00.6	99.710	-0.450	1.220	0.390
2020/01/31 16:04:00.7	99.700	-0.470	1.200	0.430
2020/01/31 16:04:00.8	99.700	-0.480	1.160	0.460
2020/01/31 16:04:00.9	99.690	-0.480	1.120	0.490
2020/01/31 16:04:01.0	99.690	-0.480	1.070	0.510
2020/01/31 16:04:01.1	99.690	-0.480	1.010	0.530
2020/01/31 16:04:01.2	99.690	-0.470	0.930	0.540
2020/01/31 16:04:01.3	99.700	-0.460	0.850	0.550
2020/01/31 16:04:01.4	99.710	-0.450	0.770	0.550
2020/01/31 16:04:01.5	99.720	-0.430	0.670	0.550
2020/01/31 16:04:01.6	99.730	-0.410	0.570	0.550
2020/01/31 16:04:01.7	99.750	-0.380	0.460	0.540
2020/01/31 16:04:01.8	99.770	-0.350	0.350	0.530
2020/01/31 16:04:01.9	99.790	-0.320	0.230	0.520
2020/01/31 16:04:02.0	99.810	-0.280	0.110	0.510
2020/01/31 16:04:02.1	99.830	-0.250	-0.010	0.490
2020/01/31 16:04:02.2	99.850	-0.210	-0.140	0.480
2020/01/31 16:04:02.3	99.880	-0.170	-0.260	0.470
2020/01/31 16:04:02.4	99.900	-0.120	-0.390	0.450
2020/01/31 16:04:02.5	99.920	-0.080	-0.510	0.440
2020/01/31 16:04:02.6	99.940	-0.030	-0.630	0.430
2020/01/31 16:04:02.7	99.940	0.010	-0.750	0.420
2020/01/31 16:04:02.8	99.960	0.060	-0.860	0.420
2020/01/31 16:04:02.9	99.970	0.110	-0.970	0.410
2020/01/31 16:04:03.0	99.980	0.150	-1.070	0.410
2020/01/31 16:04:03.1	99.990	0.200	-1.160	0.420
2020/01/31 16:04:03.2	100.000	0.240	-1.250	0.420
2020/01/31 16:04:03.3	100.010	0.280	-1.330	0.430
2020/01/31 16:04:03.4	100.020	0.320	-1.400	0.440
2020/01/31 16:04:03.5	100.020	0.360	-1.450	0.450
2020/01/31 16:04:03.6	100.030	0.390	-1.500	0.470
2020/01/31 16:04:03.7	100.010	0.420	-1.540	0.490
2020/01/31 16:04:03.8	100.020	0.450	-1.570	0.510
2020/01/31 16:04:03.9	100.020	0.470	-1.580	0.530
2020/01/31 16:04:04.0	100.020	0.490	-1.590	0.560
2020/01/31 16:04:04.1	100.020	0.510	-1.580	0.580
2020/01/31 16:04:04.2	100.020	0.520	-1.560	0.610
2020/01/31 16:04:04.3	100.020	0.530	-1.530	0.640
2020/01/31 16:04:04.4	100.020	0.530	-1.490	0.670
2020/01/31 16:04:04.5	100.020	0.530	-1.430	0.700
2020/01/31 16:04:04.6	100.020	0.520	-1.370	0.720
2020/01/31 16:04:04.7	100.000	0.510	-1.300	0.750
2020/01/31 16:04:04.8	100.000	0.500	-1.210	0.780
2020/01/31 16:04:04.9	100.000	0.480	-1.130	0.810
2020/01/31 16:04:05.0	100.000	0.460	-1.030	0.840
2020/01/31 16:04:05.1	100.000	0.430	-0.930	0.870
2020/01/31 16:04:05.2	100.000	0.400	-0.820	0.900
2020/01/31 16:04:05.3	100.000	0.370	-0.710	0.930
2020/01/31 16:04:05.4	100.000	0.330	-0.590	0.950
2020/01/31 16:04:05.5	100.000	0.290	-0.470	0.980
2020/01/31 16:04:05.6	100.000	0.250	-0.350	1.000
2020/01/31 16:04:05.7	99.990	0.200	-0.220	1.030
2020/01/31 16:04:05.8	99.990	0.160	-0.100	1.050
2020/01/31 16:04:05.9	99.980	0.110	0.020	1.080
2020/01/31 16:04:06.0	99.980	0.060	0.140	1.100
2020/01/31 16:04:06.1	99.970	0.010	0.260	1.120
2020/01/31 16:04:06.2	99.960	-0.040	0.370	1.140
2020/01/31 16:04:06.3	99.950	-0.090	0.480	1.160
2020/01/31 16:04:06.4	99.940	-0.140	0.590	1.170
2020/01/31 16:04:06.5	99.930	-0.180	0.690	1.190
2020/01/31 16:04:06.6	99.920	-0.230	0.780	1.210
2020/01/31 16:04:06.7	99.900	-0.280	0.870	1.220
2020/01/31 16:04:06.8	99.890	-0.320	0.950	1.230
2020/01/31 16:04:06.9	99.870	-0.370	1.020	1.240
2020/01/31 16:04:07.0	99.850	-0.410	1.080	1.250
2020/01/31 16:04:07.1	99.840	-0.450	1.130	1.260
2020/01/31 16:04:07.2	99.820	-0.480	1.170	1.260
2020/01/31 16:04:07.3	99.800	-0.520	1.210	1.260
2020/01/31 16:04:07.4	99.770	-0.550	1.230	1.270
2020/01/31 16:04:07.5	99.750	-0.570	1.240	1.270
2020/01/31 16:04:07.6	99.730	-0.590	1.250	1.260
2020/01/31 16:04:07.7	99.710	-0.610	1.240	1.260
2020/01/31 16:04:07.8	99.690	-0.630	1.230	1.250
2020/01/31 16:04:07.9	99.670	-0.640	1.200	1.240
2020/01/31 16:04:08.0	99.640	-0.650	1.160	1.230
2020/01/31 16:04:08.1	99.620	-0.650	1.110	1.220
2020/01/31 16:04:08.2	99.600	-0.650	1.060	1.200
2020/01/31 16:04:08.3	99.580	-0.640	1.000	1.190
2020/01/31 16:04:08.4	99.550	-0.630	0.920	1.170
2020/01/31 16:04:08.5	99.530	-0.620	0.840	1.140
2020/01/31 16:04:08.6	99.510	-0.600	0.760	1.120
2020/01/31 16:04:08.7	99.510	-0.580	0.660	1.090
2020/01/31 16:04:08.8	99.490	-0.560	0.560	1.060
2020/01/31 16:04:08.9	99.470	-0.530	0.460	1.020
2020/01/31 16:04:09.0	99.460	-0.500	0.350	0.980
2020/01/31 16:04:09.1	99.440	-0.470	0.240	0.940
2020/01/31 16:04:09.2	99.430	-0.440	0.120	0.900
2020/01/31 16:04:09.3	99.420	-0.400	0.010	0.850
2020/01/31 16:04:09.4	99.410	-0.360	-0.110	0.800
2020/01/31 16:04:09.5	99.410	-0.320	-0.230	0.750
2020/01/31 16:04:09.6	99.400	-0.270	-0.350	0.690
2020/01/31 16:04:09.7	99.410	-0.230	-0.470	0.630
2020/01/31 16:04:09.8	99.410	-0.190	-0.580	0.570
2020/01/31 16:04:09.9	99.410	-0.140	-0.690	0.520
2020/01/31 16:04:10.0	99.410	-0.100	-0.800	0.460
2020/01/31 16:04:10.1	99.420	-0.050	-0.900	0.400
2020/01/31 16:04:10.2	99.420	-0.010	-0.990	0.330
2020/01/31 16:04:10.3	99.430	0.040	-1.080	0.270
2020/01/31 16:04:10.4	99.430	0.080	-1.170	0.210
2020/01/31 16:04:10.5	99.440	0.120	-1.240	0.150
2020/01/31 16:04:10.6	99.450	0.160	-1.310	0.090
2020/01/31 16:04:10.7	99.450	0.200	-1.370	0.040
2020/01/31 16:04:10.8	99.460	0.240	-1.420	-0.020
2020/01/31 16:04:10.9	99.470	0.280	-1.460	-0.070
2020/01/31 16:04:11.0	99.480	0.310	-1.490	-0.130
2020/01/31 16:04:11.1	99.490	0.340	-1.510	-0.180
2020/01/31 16:04:11.2	99.500	0.370	-1.520	-0.230
2020/01/31 16:04:11.3	99.510	0.390	-1.520	-0.280
2020/01/31 16:04:11.4	99.520	0.420	-1.520	-0.320
2020/01/31 16:04:11.5	99.530	0.430	-1.500	-0.370
2020/01/31 16:04:11.6	99.540	0.450	-1.470	-0.410
2020/01/31 16:04:11.7	99.540	0.460	-1.430	-0.450
2020/01/31 16:04:11.8	99.550	0.470	-1.380	-0.480
2020/01/31 16:04:11.9	99.560	0.480	-1.330	-0.520
2020/01/31 16:04:12.0	99.570	0.480	-1.260	-0.550
2020/01/31 16:04:12.1	99.570	0.490	-1.190	-0.580
2020/01/31 16:04:12.2	99.580	0.480	-1.110	-0.600
2020/01/31 16:04:12.3	99.590	0.480	-1.030	-0.620
2020/01/31 16:04:12.4	99.600	0.470	-0.930	-0.640
2020/01/31 16:04:12.5	99.610	0.460	-0.840	-0.660
2020/01/31 16:04:12.6	99.610	0.450	-0.740	-0.670
2020/01/31 16:04:12.7	99.630	0.430	-0.630	-0.680
2020/01/31 16:04:12.8	99.640	0.410	-0.530	-0.690
2020/01/31 16:04:12.9	99.640	0.390	-0.420	-0.690
2020/01/31 16:04:13.0	99.650	0.370	-0.310	-0.690
2020/01/31 16:04:13.1	99.660	0.350	-0.210	-0.690
2020/01/31 16:04:13.2	99.660	0.330	-0.100	-0.690
2020/01/31 16:04:13.3	99.670	0.300	-0.000	-0.680
2020/01/31 16:04:13.4	99.670	0.280	0.100	-0.670
2020/01/31 16:04:13.5	99.680	0.250	0.190	-0.650
2020/01/31 16:04:13.6	99.680	0.230	0.280	-0.640
2020/01/31 16:04:13.7	99.690	0.210	0.370	-0.610
2020/01/31 16:04:13.8	99.700	0.180	0.450	-0.590
2020/01/31 16:04:13.9	99.700	0.160	0.520	-0.560
2020/01/31 16:04:14.0	99.700	0.140	0.580	-0.540
2020/01/31 16:04:14.1	99.710	0.120	0.630	-0.510
2020/01/31 16:04:14.2	99.710	0.100	0.680	-0.470
2020/01/31 16:04:14.3	99.720	0.080	0.720	-0.440
2020/01/31 16:04:14.4	99.720	0.060	0.750	-0.400
2020/01/31 16:04:14.5	99.720	0.050	0.770	-0.360
2020/01/31 16:04:14.6	99.720	0.040	0.780	-0.320
2020/01/31 16:04:14.7	99.730	0.030	0.780	-0.280
2020/01/31 16:04:14.8	99.730	0.020	0.770	-0.230
2020/01/31 16:04:14.9	99.730	0.020	0.750	-0.190
2020/01/31 16:04:15.0	99.730	0.010	0.730	-0.140
2020/01/31 16:04:15.1	99.730	0.010	0.690	-0.090
2020/01/31 16:04:15.2	99.730	0.010	0.650	-0.050
2020/01/31 16:04:15.3	99.730	0.010	0.610	0.000
2020/01/31 16:04:15.4	99.730	0.020	0.560	0.050
2020/01/31 16:04:15.5	99.720	0.020	0.500	0.100
2020/01/31 16:04:15.6	99.720	0.030	0.430	0.150
2020/01/31 16:04:15.7	99.730	0.030	0.370	0.190
2020/01/31 16:04:15.8	99.720	0.040	0.300	0.240
2020/01/31 16:04:15.9	99.720	0.050	0.230	0.290
2020/01/31 16:04:16.0	99.710	0.060	0.160	0.330
2020/01/31 16:04:16.1	99.710	0.060	0.080	0.380
2020/01/31 16:04:16.2	99.710	0.070	0.010	0.420
2020/01/31 16:04:16.3	99.700	0.080	-0.060	0.470
2020/01/31 16:04:16.4	99.700	0.080	-0.130	0.510
2020/01/31 16:04:16.5	99.690	0.090	-0.190	0.550
2020/01/31 16:04:16.6	99.690	0.090	-0.250	0.590
2020/01/31 16:04:16.7	99.670	0.100	-0.310	0.630
2020/01/31 16:04:16.8	99.670	0.100	-0.370	0.670
2020/01/31 16:04:16.9	99.660	0.100	-0.410	0.710
2020/01/31 16:04:17.0	99.660	0.090	-0.460	0.750
2020/01/31 16:04:17.1	99.650	0.090	-0.490	0.790
2020/01/31 16:04:17.2	99.640	0.080	-0.520	0.830
2020/01/31 16:04:17.3	99.630	0.070	-0.550	0.870
2020/01/31 16:04:17.4	99.620	0.060	-0.560	0.910
2020/01/31 16:04:17.5	99.620	0.050	-0.580	0.960
2020/01/31 16:04:17.6	99.600	0.040	-0.580	1.000
2020/01/31 16:04:17.7	99.590	0.020	-0.580	1.040
2020/01/31 16:04:17.8	99.580	0.000	-0.570	1.080
2020/01/31 16:04:17.9	99.570	-0.020	-0.560	1.130
2020/01/31 16:04:18.0	99.550	-0.040	-0.550	1.170
2020/01/31 16:04:18.1	99.540	-0.060	-0.530	1.220
2020/01/31 16:04:18.2	99.520	-0.080	-0.510	1.260
2020/01/31 16:04:18.3	99.510	-0.110	-0.480	1.300
2020/01/31 16:04:18.4	99.490	-0.130	-0.450	1.350
2020/01/31 16:04:18.5	99.480	-0.150	-0.410	1.390
2020/01/31 16:04:18.6	99.460	-0.180	-0.380	1.430
2020/01/31 16:04:18.7	99.440	-0.200	-0.340	1.470
2020/01/31 16:04:18.8	99.430	-0.230	-0.300	1.510
2020/01/31 16:04:18.9	99.420	-0.250	-0.260	1.540
2020/01/31 16:04:19.0	99.410	-0.280	-0.220	1.580
2020/01/31 16:04:19.1	99.390	-0.300	-0.180	1.610
2020/01/31 16:04:19.2	99.380	-0.320	-0.140	1.630
2020/01/31 16:04:19.3	99.370	-0.340	-0.110	1.660
2020/01/31 16:04:19.4	99.370	-0.360	-0.070	1.680
2020/01/31 16:04:19.5	99.360	-0.370	-0.030	1.700
2020/01/31 16:04:19.6	99.350	-0.390	-0.000	1.720
2020/01/31 16:04:19.7	99.350	-0.400	0.030	1.730
2020/01/31 16:04:19.8	99.340	-0.410	0.060	1.740
2020/01/31 16:04:19.9	99.340	-0.420	0.080	1.740
2020/01/31 16:04:20.0	99.340	-0.420	0.100	1.750
2020/01/31 16:04:20.1	99.340	-0.430	0.120	1.740
2020/01/31 16:04:20.2	99.340	-0.430	0.130	1.730
2020/01/31 16:04:20.3	99.340	-0.430	0.140	1.720
2020/01/31 16:04:20.4	99.340	-0.420	0.140	1.710
2020/01/31 16:04:20.5	99.340	-0.410	0.140	1.690
2020/01/31 16:04:20.6	99.350	-0.400	0.130	1.660
2020/01/31 16:04:20.7	99.360	-0.390	0.120	1.630
2020/01/31 16:04:20.8	99.360	-0.380	0.100	1.600
2020/01/31 16:04:20.9	99.370	-0.360	0.080	1.560
2020/01/31 16:04:21.0	99.380	-0.340	0.060	1.510
2020/01/31 16:04:21.1	99.390	-0.320	0.030	1.470
2020/01/31 16:04:21.2	99.400	-0.300	-0.000	1.410
2020/01/31 16:04:21.3	99.410	-0.270	-0.040	1.360
2020/01/31 16:04:21.4	99.420	-0.240	-0.070	1.300
2020/01/31 16:04:21.5	99.440	-0.220	-0.110	1.230
2020/01/31 16:04:21.6	99.450	-0.190	-0.150	1.160
2020/01/31 16:04:21.7	99.460	-0.160	-0.200	1.090
2020/01/31 16:04:21.8	99.470	-0.120	-0.240	1.020
2020/01/31 16:04:21.9	99.490	-0.090	-0.280	0.940
2020/01/31 16:04:22.0	99.510	-0.060	-0.320	0.860
2020/01/31 16:04:22.1	99.530	-0.030	-0.360	0.780
2020/01/31 16:04:22.2	99.550	0.000	-0.400	0.700
2020/01/31 16:04:22.3	99.580	0.030	-0.440	0.610
2020/01/31 16:04:22.4	99.600	0.060	-0.480	0.530
2020/01/31 16:04:22.5	99.620	0.090	-0.510	0.450
2020/01/31 16:04:22.6	99.650	0.120	-0.540	0.360
2020/01/31 16:04:22.7	99.660	0.150	-0.570	0.280
2020/01/31 16:04:22.8	99.690	0.180	-0.590	0.200
2020/01/31 16:04:22.9	99.710	0.200	-0.610	0.120
2020/01/31 16:04:23.0	99.740	0.230	-0.620	0.050
2020/01/31 16:04:23.1	99.760	0.250	-0.630	-0.020
2020/01/31 16:04:23.2	99.780	0.270	-0.640	-0.090
2020/01/31 16:04:23.3	99.810	0.280	-0.640	-0.160
2020/01/31 16:04:23.4	99.830	0.300	-0.640	-0.220
2020/01/31 16:04:23.5	99.850	0.310	-0.630	-0.270
2020/01/31 16:04:23.6	99.860	0.330	-0.620	-0.320
2020/01/31 16:04:23.7	99.880	0.340	-0.600	-0.370
2020/01/31 16:04:23.8	99.900	0.340	-0.580	-0.410
2020/01/31 16:04:23.9	99.910	0.350	-0.560	-0.450
2020/01/31 16:04:24.0	99.920	0.360	-0.530	-0.480
2020/01/31 16:04:24.1	99.930	0.360	-0.500	-0.510
2020/01/31 16:04:24.2	99.930	0.360	-0.470	-0.530
2020/01/31 16:04:24.3	99.940	0.360	-0.430	-0.550
2020/01/31 16:04:24.4	99.940	0.360	-0.400	-0.560
2020/01/31 16:04:24.5	99.940	0.350	-0.360	-0.570
2020/01/31 16:04:24.6	99.940	0.350	-0.320	-0.570
2020/01/31 16:04:24.7	99.940	0.340	-0.280	-0.570
2020/01/31 16:04:24.8	99.930	0.340	-0.240	-0.570
2020/01/31 16:04:24.9	99.930	0.330	-0.210	-0.570
2020/01/31 16:04:25.0	99.920	0.320	-0.170	-0.560
2020/01/31 16:04:25.1	99.910	0.310	-0.140	-0.550
2020/01/31 16:04:25.2	99.900	0.300	-0.100	-0.540
2020/01/31 16:04:25.3	99.880	0.290	-0.070	-0.530
2020/01/31 16:04:25.4	99.870	0.280	-0.040	-0.510
2020/01/31 16:04:25.5	99.860	0.270	-0.010	-0.500
2020/01/31 16:04:25.6	99.840	0.260	0.010	-0.480
2020/01/31 16:04:25.7	99.830	0.250	0.030	-0.460
2020/01/31 16:04:25.8	99.810	0.240	0.050	-0.440
2020/01/31 16:04:25.9	99.800	0.230	0.070	-0.430
2020/01/31 16:04:26.0	99.780	0.220	0.080	-0.410
2020/01/31 16:04:26.1	99.760	0.210	0.090	-0.390
2020/01/31 16:04:26.2	99.740	0.190	0.100	-0.370
2020/01/31 16:04:26.3	99.720	0.180	0.100	-0.350
2020/01/31 16:04:26.4	99.700	0.170	0.110	-0.330
2020/01/31 16:04:26.5	99.690	0.160	0.110	-0.310
2020/01/31 16:04:26.6	99.670	0.140	0.110	-0.290
2020/01/31 16:04:26.7	99.640	0.130	0.100	-0.260
2020/01/31 16:04:26.8	99.620	0.120	0.100	-0.240
2020/01/31 16:04:26.9	99.600	0.100	0.090	-0.220
2020/01/31 16:04:27.0	99.580	0.090	0.090	-0.190
2020/01/31 16:04:27.1	99.560	0.080	0.080	-0.170
2020/01/31 16:04:27.2	99.540	0.060	0.070	-0.150
2020/01/31 16:04:27.3	99.530	0.050	0.060	-0.130
2020/01/31 16:04:27.4	99.510	0.040	0.050	-0.100
2020/01/31 16:04:27.5	99.500	0.020	0.040	-0.080
2020/01/31 16:04:27.6	99.480	0.010	0.030	-0.060
2020/01/31 16:04:27.7	99.470	-0.010	0.020	-0.030
2020/01/31 16:04:27.8	99.460	-0.020	0.010	-0.010
2020/01/31 16:04:27.9	99.450	-0.030	0.010	0.010
2020/01/31 16:04:28.0	99.450	-0.050	-0.000	0.030
2020/01/31 16:04:28.1	99.440	-0.060	-0.010	0.050
2020/01/31 16:04:28.2	99.440	-0.070	-0.020	0.070
2020/01/31 16:04:28.3	99.430	-0.090	-0.020	0.080
2020/01/31 16:04:28.4	99.430	-0.100	-0.030	0.100
2020/01/31 16:04:28.5	99.430	-0.110	-0.030	0.120
2020/01/31 16:04:28.6	99.440	-0.120	-0.040	0.130
2020/01/31 16:04:28.7	99.440	-0.130	-0.040	0.140
2020/01/31 16:04:28.8	99.450	-0.140	-0.050	0.160
2020/01/31 16:04:28.9	99.460	-0.150	-0.050	0.170
2020/01/31 16:04:29.0	99.470	-0.160	-0.050	0.180
2020/01/31 16:04:29.1	99.480	-0.170	-0.050	0.190
2020/01/31 16:04:29.2	99.500	-0.170	-0.050	0.200
2020/01/31 16:04:29.3	99.510	-0.180	-0.050	0.200
2020/01/31 16:04:29.4	99.530	-0.180	-0.050	0.210
2020/01/31 16:04:29.5	99.550	-0.190	-0.050	0.220
2020/01/31 16:04:29.6	99.570	-0.190	-0.050	0.220
2020/01/31 16:04:29.7	99.600	-0.190	-0.040	0.230
2020/01/31 16:04:29.8	99.620	-0.190	-0.040	0.230
2020/01/31 16:04:29.9	99.650	-0.190	-0.030	0.240
2020/01/31 16:04:30.0	99.670	-0.190	-0.030	0.240
2020/01/31 16:04:30.1	99.700	-0.190	-0.020	0.250
2020/01/31 16:04:30.2	99.720	-0.190	-0.020	0.250
2020/01/31 16:04:30.3	99.750	-0.190	-0.010	0.250
2020/01/31 16:04:30.4	99.780	-0.190	-0.010	0.250
2020/01/31 16:04:30.5	99.800	-0.180	-0.000	0.260
2020/01/31 16:04:30.6	99.830	-0.180	0.000	0.260
2020/01/31 16:04:30.7	99.860	-0.180	0.010	0.270
2020/01/31 16:04:30.8	99.890	-0.170	0.010	0.270
2020/01/31 16:04:30.9	99.910	-0.170	0.010	0.270
2020/01/31 16:04:31.0	99.940	-0.160	0.020	0.280
2020/01/31 16:04:31.1	99.960	-0.150	0.020	0.280
2020/01/31 16:04:31.2	99.980	-0.150	0.010	0.290
2020/01/31 16:04:31.3	100.000	-0.140	0.010	0.300
2020/01/31 16:04:31.4	100.020	-0.130	0.010	0.310
2020/01/31 16:04:31.5	100.040	-0.120	-0.000	0.310
2020/01/31 16:04:31.6	100.050	-0.120	-0.010	0.330
2020/01/31 16:04:31.7	100.070	-0.110	-0.020	0.340
2020/01/31 16:04:31.8	100.080	-0.100	-0.040	0.360
2020/01/31 16:04:31.9	100.090	-0.090	-0.060	0.370
2020/01/31 16:04:32.0	100.100	-0.080	-0.080	0.390
2020/01/31 16:04:32.1	100.110	-0.070	-0.100	0.410
2020/01/31 16:04:32.2	100.110	-0.060	-0.130	0.430
2020/01/31 16:04:32.3	100.120	-0.050	-0.160	0.460
2020/01/31 16:04:32.4	100.120	-0.030	-0.190	0.480
2020/01/31 16:04:32.5	100.130	-0.020	-0.230	0.510
2020/01/31 16:04:32.6	100.130	-0.010	-0.260	0.540
2020/01/31 16:04:32.7	100.140	0.000	-0.300	0.570
2020/01/31 16:04:32.8	100.140	0.010	-0.340	0.610
2020/01/31 16:04:32.9	100.140	0.030	-0.380	0.640
2020/01/31 16:04:33.0	100.140	0.040	-0.430	0.670
2020/01/31 16:04:33.1	100.140	0.050	-0.480	0.710
2020/01/31 16:04:33.2	100.140	0.070	-0.520	0.750
2020/01/31 16:04:33.3	100.140	0.080	-0.570	0.780
2020/01/31 16:04:33.4	100.140	0.090	-0.620	0.820
2020/01/31 16:04:33.5	100.140	0.110	-0.670	0.860
2020/01/31 16:04:33.6	100.140	0.120	-0.710	0.900
2020/01/31 16:04:33.7	100.120	0.130	-0.760	0.930
2020/01/31 16:04:33.8	100.130	0.150	-0.810	0.970
2020/01/31 16:04:33.9	100.130	0.160	-0.850	1.000
2020/01/31 16:04:34.0	100.130	0.170	-0.890	1.030
2020/01/31 16:04:34.1	100.130	0.180	-0.930	1.070
2020/01/31 16:04:34.2	100.130	0.200	-0.960	1.100
2020/01/31 16:04:34.3	100.130	0.210	-0.990	1.130
2020/01/31 16:04:34.4	100.130	0.220	-1.010	1.160
2020/01/31 16:04:34.5	100.130	0.220	-1.030	1.180
2020/01/31 16:04:34.6	100.120	0.230	-1.040	1.210
2020/01/31 16:04:34.7	100.120	0.240	-1.050	1.230
2020/01/31 16:04:34.8	100.120	0.240	-1.050	1.250
2020/01/31 16:04:34.9	100.110	0.240	-1.040	1.270
2020/01/31 16:04:35.0	100.110	0.240	-1.030	1.290
2020/01/31 16:04:35.1	100.100	0.240	-1.010	1.310
2020/01/31 16:04:35.2	100.090	0.240	-0.980	1.320
2020/01/31 16:04:35.3	100.090	0.240	-0.950	1.330
2020/01/31 16:04:35.4	100.080	0.230	-0.910	1.340
2020/01/31 16:04:35.5	100.060	0.220	-0.850	1.350
2020/01/31 16:04:35.6	100.050	0.200	-0.800	1.360
2020/01/31 16:04:35.7	100.040	0.190	-0.730	1.370
2020/01/31 16:04:35.8	100.020	0.170	-0.660	1.370
2020/01/31 16:04:35.9	100.010	0.150	-0.580	1.370
2020/01/31 16:04:36.0	99.990	0.130	-0.490	1.360
2020/01/31 16:04:36.1	99.980	0.110	-0.400	1.360
2020/01/31 16:04:36.2	99.970	0.080	-0.310	1.350
2020/01/31 16:04:36.3	99.950	0.050	-0.210	1.340
2020/01/31 16:04:36.4	99.940	0.020	-0.110	1.320
2020/01/31 16:04:36.5	99.920	-0.010	-0.000	1.300
2020/01/31 16:04:36.6	99.910	-0.050	0.100	1.280
2020/01/31 16:04:36.7	99.890	-0.080	0.210	1.260
2020/01/31 16:04:36.8	99.880	-0.120	0.320	1.230
2020/01/31 16:04:36.9	99.870	-0.150	0.430	1.200
2020/01/31 16:04:37.0	99.860	-0.190	0.530	1.160
2020/01/31 16:04:37.1	99.850	-0.230	0.630	1.120
2020/01/31 16:04:37.2	99.840	-0.270	0.730	1.080
2020/01/31 16:04:37.3	99.830	-0.300	0.820	1.030
2020/01/31 16:04:37.4	99.820	-0.340	0.910	0.980
2020/01/31 16:04:37.5	99.810	-0.370	0.990	0.930
2020/01/31 16:04:37.6	99.800	-0.410	1.060	0.870
2020/01/31 16:04:37.7	99.800	-0.440	1.120	0.810
2020/01/31 16:04:37.8	99.800	-0.470	1.180	0.750
2020/01/31 16:04:37.9	99.790	-0.490	1.220	0.680
2020/01/31 16:04:38.0	99.780	-0.510	1.260	0.620
2020/01/31 16:04:38.1	99.780	-0.530	1.280	0.550
2020/01/31 16:04:38.2	99.770	-0.550	1.300	0.480
2020/01/31 16:04:38.3	99.770	-0.560	1.300	0.410
2020/01/31 16:04:38.4	99.760	-0.570	1.290	0.330
2020/01/31 16:04:38.5	99.760	-0.570	1.270	0.260
2020/01/31 16:04:38.6	99.750	-0.570	1.240	0.180
2020/01/31 16:04:38.7	99.770	-0.560	1.190	0.110
2020/01/31 16:04:38.8	99.770	-0.550	1.140	0.030
2020/01/31 16:04:38.9	99.770	-0.540	1.070	-0.050
2020/01/31 16:04:39.0	99.770	-0.510	1.000	-0.130
2020/01/31 16:04:39.1	99.770	-0.490	0.910	-0.220
2020/01/31 16:04:39.2	99.780	-0.460	0.820	-0.300
2020/01/31 16:04:39.3	99.780	-0.420	0.710	-0.380
2020/01/31 16:04:39.4	99.790	-0.380	0.600	-0.470
2020/01/31 16:04:39.5	99.800	-0.340	0.490	-0.550
2020/01/31 16:04:39.6	99.810	-0.290	0.360	-0.640
2020/01/31 16:04:39.7	99.830	-0.240	0.240	-0.720
2020/01/31 16:04:39.8	99.840	-0.190	0.100	-0.810
2020/01/31 16:04:39.9	99.860	-0.140	-0.030	-0.900
2020/01/31 16:04:40.0	99.870	-0.080	-0.170	-0.980
2020/01/31 16:04:40.1	99.890	-0.020	-0.300	-1.070
2020/01/31 16:04:40.2	99.910	0.040	-0.440	-1.150
2020/01/31 16:04:40.3	99.930	0.100	-0.570	-1.230
2020/01/31 16:04:40.4	99.950	0.160	-0.700	-1.310
2020/01/31 16:04:40.5	99.980	0.220	-0.830	-1.390
2020/01/31 16:04:40.6	100.000	0.280	-0.950	-1.470
2020/01/31 16:04:40.7	100.030	0.330	-1.070	-1.550
2020/01/31 16:04:40.8	100.050	0.390	-1.180	-1.620
2020/01/31 16:04:40.9	100.070	0.440	-1.280	-1.680
2020/01/31 16:04:41.0	100.100	0.490	-1.370	-1.740
2020/01/31 16:04:41.1	100.120	0.540	-1.450	-1.800
2020/01/31 16:04:41.2	100.140	0.580	-1.520	-1.850
2020/01/31 16:04:41.3	100.170	0.620	-1.580	-1.890
2020/01/31 16:04:41.4	100.190	0.650	-1.630	-1.930
2020/01/31 16:04:41.5	100.210	0.680	-1.660	-1.960
2020/01/31 16:04:41.6	100.230	0.700	-1.680	-1.990
2020/01/31 16:04:41.7	100.260	0.720	-1.690	-2.000
2020/01/31 16:04:41.8	100.270	0.730	-1.690	-2.010
2020/01/31 16:04:41.9	100.290	0.740	-1.670	-2.010
2020/01/31 16:04:42.0	100.310	0.750	-1.650	-2.000
2020/01/31 16:04:42.1	100.320	0.740	-1.610	-1.990
2020/01/31 16:04:42.2	100.330	0.730	-1.560	-1.960
2020/01/31 16:04:42.3	100.340	0.720	-1.500	-1.930
2020/01/31 16:04:42.4	100.350	0.700	-1.430	-1.890
2020/01/31 16:04:42.5	100.350	0.680	-1.360	-1.840
2020/01/31 16:04:42.6	100.350	0.650	-1.270	-1.790
2020/01/31 16:04:42.7	100.350	0.620	-1.170	-1.720
2020/01/31 16:04:42.8	100.350	0.580	-1.080	-1.650
2020/01/31 16:04:42.9	100.350	0.550	-0.970	-1.570
2020/01/31 16:04:43.0	100.340	0.500	-0.860	-1.490
2020/01/31 16:04:43.1	100.340	0.460	-0.750	-1.400
2020/01/31 16:04:43.2	100.330	0.410	-0.640	-1.300
2020/01/31 16:04:43.3	100.330	0.360	-0.520	-1.200
2020/01/31 16:04:43.4	100.320	0.310	-0.410	-1.090
2020/01/31 16:04:43.5	100.310	0.260	-0.290	-0.980
2020/01/31 16:04:43.6	100.300	0.210	-0.180	-0.870
2020/01/31 16:04:43.7	100.290	0.160	-0.070	-0.740
2020/01/31 16:04:43.8	100.280	0.110	0.040	-0.620
2020/01/31 16:04:43.9	100.270	0.060	0.140	-0.500
2020/01/31 16:04:44.0	100.250	0.010	0.230	-0.380
2020/01/31 16:04:44.1	100.240	-0.030	0.330	-0.260
2020/01/31 16:04:44.2	100.230	-0.080	0.410	-0.130
2020/01/31 16:04:44.3	100.220	-0.120	0.490	-0.010
2020/01/31 16:04:44.4	100.210	-0.160	0.560	0.110
2020/01/31 16:04:44.5	100.200	-0.200	0.620	0.230
2020/01/31 16:04:44.6	100.190	-0.240	0.680	0.350
2020/01/31 16:04:44.7	100.150	-0.270	0.730	0.470
2020/01/31 16:04:44.8	100.140	-0.300	0.770	0.580
2020/01/31 16:04:44.9	100.130	-0.330	0.800	0.690
2020/01/31 16:04:45.0	100.120	-0.350	0.820	0.800
2020/01/31 16:04:45.1	100.110	-0.370	0.830	0.900
2020/01/31 16:04:45.2	100.110	-0.390	0.840	1.010
2020/01/31 16:04:45.3	100.100	-0.400	0.840	1.110
2020/01/31 16:04:45.4	100.090	-0.410	0.830	1.200
2020/01/31 16:04:45.5	100.080	-0.420	0.820	1.300
2020/01/31 16:04:45.6	100.070	-0.420	0.800	1.390
2020/01/31 16:04:45.7	100.060	-0.430	0.770	1.480
2020/01/31 16:04:45.8	100.060	-0.420	0.740	1.560
2020/01/31 16:04:45.9	100.050	-0.420	0.700	1.640
2020/01/31 16:04:46.0	100.040	-0.420	0.660	1.720
2020/01/31 16:04:46.1	100.040	-0.410	0.620	1.800
2020/01/31 16:04:46.2	100.030	-0.400	0.570	1.870
2020/01/31 16:04:46.3	100.030	-0.390	0.520	1.940
2020/01/31 16:04:46.4	100.020	-0.370	0.470	2.010
2020/01/31 16:04:46.5	100.020	-0.360	0.420	2.070
2020/01/31 16:04:46.6	100.010	-0.340	0.360	2.140
2020/01/31 16:04:46.7	100.010	-0.330	0.300	2.200
2020/01/31 16:04:46.8	100.000	-0.310	0.250	2.260
2020/01/31 16:04:46.9	100.000	-0.290	0.200	2.310
2020/01/31 16:04:47.0	100.000	-0.270	0.140	2.360
2020/01/31 16:04:47.1	99.990	-0.260	0.090	2.420
2020/01/31 16:04:47.2	99.990	-0.240	0.040	2.460
2020/01/31 16:04:47.3	99.990	-0.220	-0.010	2.510
2020/01/31 16:04:47.4	99.980	-0.200	-0.060	2.550
2020/01/31 16:04:47.5	99.980	-0.180	-0.100	2.590
2020/01/31 16:04:47.6	99.980	-0.160	-0.150	2.630
2020/01/31 16:04:47.7	99.970	-0.150	-0.190	2.660
2020/01/31 16:04:47.8	99.960	-0.130	-0.230	2.690
2020/01/31 16:04:47.9	99.960	-0.110	-0.260	2.720
2020/01/31 16:04:48.0	99.960	-0.100	-0.300	2.740
2020/01/31 16:04:48.1	99.950	-0.090	-0.330	2.760
2020/01/31 16:04:48.2	99.950	-0.070	-0.350	2.770
2020/01/31 16:04:48.3	99.950	-0.060	-0.380	2.780
2020/01/31 16:04:48.4	99.940	-0.050	-0.400	2.790
2020/01/31 16:04:48.5	99.940	-0.040	-0.420	2.790
2020/01/31 16:04:48.6	99.940	-0.030	-0.440	2.780
2020/01/31 16:04:48.7	99.940	-0.020	-0.450	2.770
2020/01/31 16:04:48.8	99.940	-0.010	-0.470	2.750
2020/01/31 16:04:48.9	99.940	-0.010	-0.480	2.730
2020/01/31 16:04:49.0	99.940	-0.000	-0.490	2.700
2020/01/31 16:04:49.1	99.950	0.000	-0.500	2.660
2020/01/31 16:04:49.2	99.950	0.010	-0.510	2.620
2020/01/31 16:04:49.3	99.960	0.010	-0.510	2.570
2020/01/31 16:04:49.4	99.970	0.010	-0.520	2.520
2020/01/31 16:04:49.5	99.980	0.010	-0.530	2.460
2020/01/31 16:04:49.6	99.990	0.010	-0.530	2.400
2020/01/31 16:04:49.7	99.990	0.010	-0.530	2.330
2020/01/31 16:04:49.8	100.000	0.010	-0.540	2.250
2020/01/31 16:04:49.9	100.020	0.010	-0.540	2.180
2020/01/31 16:04:50.0	100.030	0.010	-0.540	2.100
2020/01/31 16:04:50.1	100.040	0.010	-0.550	2.010
2020/01/31 16:04:50.2	100.060	0.010	-0.550	1.920
2020/01/31 16:04:50.3	100.070	0.010	-0.560	1.830
2020/01/31 16:04:50.4	100.090	0.000	-0.560	1.740
2020/01/31 16:04:50.5	100.100	0.000	-0.560	1.650
2020/01/31 16:04:50.6	100.120	0.000	-0.570	1.550
2020/01/31 16:04:50.7	100.100	0.000	-0.570	1.460
2020/01/31 16:04:50.8	100.120	0.000	-0.570	1.360
2020/01/31 16:04:50.9	100.130	-0.000	-0.570	1.260
2020/01/31 16:04:51.0	100.140	-0.000	-0.570	1.170
2020/01/31 16:04:51.1	100.150	0.000	-0.580	1.070
2020/01/31 16:04:51.2	100.160	0.000	-0.580	0.980
2020/01/31 16:04:51.3	100.170	0.000	-0.580	0.880
2020/01/31 16:04:51.4	100.180	0.010	-0.570	0.790
2020/01/31 16:04:51.5	100.190	0.010	-0.570	0.700
2020/01/31 16:04:51.6	100.200	0.010	-0.570	0.610
2020/01/31 16:04:51.7	100.190	0.020	-0.560	0.510
2020/01/31 16:04:51.8	100.200	0.020	-0.550	0.420
2020/01/31 16:04:51.9	100.200	0.030	-0.540	0.340
2020/01/31 16:04:52.0	100.210	0.030	-0.530	0.250
2020/01/31 16:04:52.1	100.210	0.040	-0.520	0.160
2020/01/31 16:04:52.2	100.210	0.050	-0.510	0.080
2020/01/31 16:04:52.3	100.210	0.050	-0.490	-0.010
2020/01/31 16:04:52.4	100.210	0.060	-0.480	-0.090
2020/01/31 16:04:52.5	100.210	0.070	-0.460	-0.170
2020/01/31 16:04:52.6	100.210	0.080	-0.440	-0.250
2020/01/31 16:04:52.7	100.210	0.090	-0.410	-0.320
2020/01/31 16:04:52.8	100.210	0.090	-0.390	-0.400
2020/01/31 16:04:52.9	100.200	0.100	-0.360	-0.470
2020/01/31 16:04:53.0	100.200	0.110	-0.340	-0.540
2020/01/31 16:04:53.1	100.190	0.120	-0.310	-0.610
2020/01/31 16:04:53.2	100.180	0.130	-0.280	-0.670
2020/01/31 16:04:53.3	100.170	0.140	-0.250	-0.740
2020/01/31 16:04:53.4	100.160	0.140	-0.220	-0.800
2020/01/31 16:04:53.5	100.150	0.150	-0.190	-0.850
2020/01/31 16:04:53.6	100.140	0.160	-0.160	-0.900
2020/01/31 16:04:53.7	100.140	0.160	-0.130	-0.950
2020/01/31 16:04:53.8	100.120	0.170	-0.090	-1.000
2020/01/31 16:04:53.9	100.110	0.180	-0.060	-1.050
2020/01/31 16:04:54.0	100.090	0.180	-0.030	-1.090
2020/01/31 16:04:54.1	100.070	0.180	0.000	-1.130
2020/01/31 16:04:54.2	100.060	0.190	0.040	-1.160
2020/01/31 16:04:54.3	100.040	0.190	0.070	-1.190
2020/01/31 16:04:54.4	100.020	0.190	0.100	-1.230
2020/01/31 16:04:54.5	100.000	0.190	0.120	-1.260
2020/01/31 16:04:54.6	99.980	0.190	0.150	-1.280
2020/01/31 16:04:54.7	99.970	0.190	0.180	-1.300
2020/01/31 16:04:54.8	99.950	0.190	0.200	-1.330
2020/01/31 16:04:54.9	99.930	0.180	0.220	-1.350
2020/01/31 16:04:55.0	99.910	0.180	0.240	-1.370
2020/01/31 16:04:55.1	99.890	0.170	0.250	-1.380
2020/01/31 16:04:55.2	99.870	0.170	0.270	-1.400
2020/01/31 16:04:55.3	99.860	0.160	0.270	-1.410
2020/01/31 16:04:55.4	99.840	0.150	0.280	-1.420
2020/01/31 16:04:55.5	99.830	0.150	0.280	-1.430
2020/01/31 16:04:55.6	99.820	0.140	0.290	-1.440
2020/01/31 16:04:55.7	99.810	0.130	0.280	-1.450
2020/01/31 16:04:55.8	99.800	0.120	0.280	-1.450
2020/01/31 16:04:55.9	99.790	0.110	0.270	-1.450
2020/01/31 16:04:56.0	99.790	0.100	0.260	-1.460
2020/01/31 16:04:56.1	99.780	0.090	0.240	-1.460
2020/01/31 16:04:56.2	99.780	0.080	0.220	-1.450
2020/01/31 16:04:56.3	99.790	0.070	0.200	-1.450
2020/01/31 16:04:56.4	99.790	0.070	0.180	-1.440
2020/01/31 16:04:56.5	99.800	0.060	0.150	-1.440
2020/01/31 16:04:56.6	99.810	0.050	0.120	-1.430
2020/01/31 16:04:56.7	99.820	0.040	0.090	-1.410
2020/01/31 16:04:56.8	99.830	0.030	0.060	-1.400
2020/01/31 16:04:56.9	99.850	0.020	0.030	-1.390
2020/01/31 16:04:57.0	99.860	0.020	-0.000	-1.370
2020/01/31 16:04:57.1	99.890	0.010	-0.040	-1.350
2020/01/31 16:04:57.2	99.910	0.010	-0.070	-1.330
2020/01/31 16:04:57.3	99.930	-0.000	-0.100	-1.310
2020/01/31 16:04:57.4	99.960	-0.010	-0.130	-1.280
2020/01/31 16:04:57.5	99.980	-0.010	-0.160	-1.250
2020/01/31 16:04:57.6	100.010	-0.010	-0.180	-1.220
2020/01/31 16:04:57.7	100.040	-0.020	-0.210	-1.180
2020/01/31 16:04:57.8	100.070	-0.020	-0.230	-1.150
2020/01/31 16:04:57.9	100.100	-0.020	-0.250	-1.100
2020/01/31 16:04:58.0	100.130	-0.030	-0.260	-1.060
2020/01/31 16:04:58.1	100.160	-0.030	-0.270	-1.010
2020/01/31 16:04:58.2	100.190	-0.030	-0.280	-0.960
2020/01/31 16:04:58.3	100.220	-0.030	-0.280	-0.900
2020/01/31 16:04:58.4	100.250	-0.040	-0.280	-0.840
2020/01/31 16:04:58.5	100.290	-0.040	-0.270	-0.780
2020/01/31 16:04:58.6	100.320	-0.040	-0.260	-0.710
2020/01/31 16:04:58.7	100.350	-0.040	-0.250	-0.640
2020/01/31 16:04:58.8	100.380	-0.050	-0.230	-0.560
2020/01/31 16:04:58.9	100.410	-0.050	-0.210	-0.480
2020/01/31 16:04:59.0	100.440	-0.050	-0.190	-0.400
2020/01/31 16:04:59.1	100.460	-0.060	-0.170	-0.310
2020/01/31 16:04:59.2	100.490	-0.060	-0.150	-0.220
2020/01/31 16:04:59.3	100.520	-0.060	-0.120	-0.130
2020/01/31 16:04:59.4	100.540	-0.070	-0.100	-0.030
2020/01/31 16:04:59.5	100.560	-0.070	-0.070	0.070
2020/01/31 16:04:59.6	100.580	-0.080	-0.040	0.170
2020/01/31 16:04:59.7	100.590	-0.090	-0.020	0.280
2020/01/31 16:04:59.8	100.610	-0.090	0.000	0.390
2020/01/31 16:04:59.9	100.620	-0.100	0.020	0.510
2020/01/31 16:05:00.0	100.630	-0.100	0.040	0.630
2020/01/31 16:05:00.1	100.640	-0.110	0.060	0.750
2020/01/31 16:05:00.2	100.640	-0.120	0.070	0.870
2020/01/31 16:05:00.3	100.650	-0.120	0.080	1.000
2020/01/31 16:05:00.4	100.650	-0.130	0.090	1.130
2020/01/31 16:05:00.5	100.640	-0.130	0.090	1.260
2020/01/31 16:05:00.6	100.640	-0.140	0.090	1.390
2020/01/31 16:05:00.7	100.620	-0.140	0.090	1.520
2020/01/31 16:05:00.8	100.600	-0.150	0.070	1.660
2020/01/31 16:05:00.9	100.590	-0.150	0.060	1.790
2020/01/31 16:05:01.0	100.570	-0.150	0.030	1.930
2020/01/31 16:05:01.1	100.550	-0.150	0.010	2.060
2020/01/31 16:05:01.2	100.530	-0.150	-0.030	2.190
2020/01/31 16:05:01.3	100.500	-0.150	-0.060	2.320
2020/01/31 16:05:01.4	100.480	-0.140	-0.110	2.450
2020/01/31 16:05:01.5	100.450	-0.140	-0.150	2.570
2020/01/31 16:05:01.6	100.420	-0.130	-0.200	2.690
2020/01/31 16:05:01.7	100.390	-0.130	-0.260	2.810
2020/01/31 16:05:01.8	100.360	-0.120	-0.310	2.920
2020/01/31 16:05:01.9	100.320	-0.110	-0.370	3.020
2020/01/31 16:05:02.0	100.290	-0.100	-0.430	3.110
2020/01/31 16:05:02.1	100.260	-0.090	-0.490	3.200
2020/01/31 16:05:02.2	100.230	-0.070	-0.550	3.290
2020/01/31 16:05:02.3	100.190	-0.060	-0.600	3.360
2020/01/31 16:05:02.4	100.160	-0.050	-0.660	3.430
2020/01/31 16:05:02.5	100.130	-0.030	-0.720	3.480
2020/01/31 16:05:02.6	100.110	-0.020	-0.770	3.530
2020/01/31 16:05:02.7	100.080	-0.010	-0.810	3.570
2020/01/31 16:05:02.8	100.060	0.010	-0.850	3.600
2020/01/31 16:05:02.9	100.030	0.020	-0.890	3.630
2020/01/31 16:05:03.0	100.020	0.030	-0.920	3.640
2020/01/31 16:05:03.1	100.000	0.040	-0.950	3.650
2020/01/31 16:05:03.2	99.990	0.050	-0.970	3.650
2020/01/31 16:05:03.3	99.970	0.060	-0.980	3.630
2020/01/31 16:05:03.4	99.970	0.070	-0.980	3.610
2020/01/31 16:05:03.5	99.960	0.080	-0.980	3.580
2020/01/31 16:05:03.6	99.960	0.080	-0.970	3.550
2020/01/31 16:05:03.7	99.970	0.090	-0.950	3.500
2020/01/31 16:05:03.8	99.970	0.090	-0.930	3.450
2020/01/31 16:05:03.9	99.980	0.090	-0.900	3.390
2020/01/31 16:05:04.0	99.990	0.090	-0.860	3.320
2020/01/31 16:05:04.1	100.000	0.090	-0.820	3.250
2020/01/31 16:05:04.2	100.020	0.090	-0.770	3.170
2020/01/31 16:05:04.3	100.030	0.090	-0.710	3.080
2020/01/31 16:05:04.4	100.050	0.080	-0.660	2.990
2020/01/31 16:05:04.5	100.070	0.080	-0.600	2.890
2020/01/31 16:05:04.6	100.090	0.070	-0.530	2.790
2020/01/31 16:05:04.7	100.120	0.070	-0.460	2.690
2020/01/31 16:05:04.8	100.150	0.060	-0.400	2.580
2020/01/31 16:05:04.9	100.170	0.050	-0.330	2.470
2020/01/31 16:05:05.0	100.200	0.040	-0.260	2.350
2020/01/31 16:05:05.1	100.220	0.030	-0.190	2.230
2020/01/31 16:05:05.2	100.250	0.030	-0.120	2.120
2020/01/31 16:05:05.3	100.270	0.020	-0.050	2.000
2020/01/31 16:05:05.4	100.290	0.010	0.020	1.870
2020/01/31 16:05:05.5	100.320	-0.000	0.090	1.750
2020/01/31 16:05:05.6	100.340	-0.010	0.150	1.630
2020/01/31 16:05:05.7	100.350	-0.020	0.210	1.510
2020/01/31 16:05:05.8	100.370	-0.030	0.270	1.380
2020/01/31 16:05:05.9	100.390	-0.030	0.320	1.260
2020/01/31 16:05:06.0	100.410	-0.040	0.370	1.140
2020/01/31 16:05:06.1	100.420	-0.050	0.410	1.010
2020/01/31 16:05:06.2	100.430	-0.050	0.450	0.880
2020/01/31 16:05:06.3	100.450	-0.050	0.480	0.760
2020/01/31 16:05:06.4	100.460	-0.060	0.510	0.630
2020/01/31 16:05:06.5	100.470	-0.060	0.540	0.510
2020/01/31 16:05:06.6	100.480	-0.060	0.560	0.380
2020/01/31 16:05:06.7	100.480	-0.070	0.570	0.250
2020/01/31 16:05:06.8	100.480	-0.070	0.580	0.120
2020/01/31 16:05:06.9	100.490	-0.070	0.580	-0.010
2020/01/31 16:05:07.0	100.500	-0.070	0.580	-0.140
2020/01/31 16:05:07.1	100.510	-0.070	0.570	-0.260
2020/01/31 16:05:07.2	100.520	-0.070	0.560	-0.390
2020/01/31 16:05:07.3	100.530	-0.060	0.540	-0.520
2020/01/31 16:05:07.4	100.530	-0.060	0.520	-0.650
2020/01/31 16:05:07.5	100.540	-0.060	0.500	-0.770
2020/01/31 16:05:07.6	100.550	-0.060	0.470	-0.890
2020/01/31 16:05:07.7	100.550	-0.050	0.440	-1.010
2020/01/31 16:05:07.8	100.560	-0.050	0.400	-1.130
2020/01/31 16:05:07.9	100.560	-0.050	0.370	-1.250
2020/01/31 16:05:08.0	100.570	-0.040	0.330	-1.370
2020/01/31 16:05:08.1	100.580	-0.040	0.290	-1.480
2020/01/31 16:05:08.2	100.580	-0.030	0.240	-1.590
2020/01/31 16:05:08.3	100.590	-0.030	0.200	-1.690
2020/01/31 16:05:08.4	100.600	-0.020	0.150	-1.790
2020/01/31 16:05:08.5	100.600	-0.020	0.100	-1.890
2020/01/31 16:05:08.6	100.610	-0.010	0.060	-1.980
2020/01/31 16:05:08.7	100.610	-0.010	0.010	-2.070
2020/01/31 16:05:08.8	100.610	-0.000	-0.040	-2.160
2020/01/31 16:05:08.9	100.620	0.000	-0.080	-2.240
2020/01/31 16:05:09.0	100.620	0.010	-0.130	-2.310
2020/01/31 16:05:09.1	100.630	0.020	-0.170	-2.380
2020/01/31 16:05:09.2	100.630	0.020	-0.220	-2.440
2020/01/31 16:05:09.3	100.640	0.030	-0.260	-2.500
2020/01/31 16:05:09.4	100.640	0.030	-0.300	-2.550
2020/01/31 16:05:09.5	100.640	0.040	-0.340	-2.600
2020/01/31 16:05:09.6	100.650	0.050	-0.370	-2.630
2020/01/31 16:05:09.7	100.660	0.060	-0.410	-2.660
2020/01/31 16:05:09.8	100.660	0.060	-0.440	-2.680
2020/01/31 16:05:09.9	100.660	0.070	-0.470	-2.700
2020/01/31 16:05:10.0	100.660	0.080	-0.500	-2.710
2020/01/31 16:05:10.1	100.660	0.090	-0.520	-2.710
2020/01/31 16:05:10.2	100.650	0.100	-0.550	-2.700
2020/01/31 16:05:10.3	100.650	0.110	-0.570	-2.690
2020/01/31 16:05:10.4	100.650	0.110	-0.590	-2.670
2020/01/31 16:05:10.5	100.650	0.120	-0.610	-2.640
2020/01/31 16:05:10.6	100.650	0.130	-0.620	-2.600
2020/01/31 16:05:10.7	100.640	0.140	-0.640	-2.560
2020/01/31 16:05:10.8	100.640	0.150	-0.650	-2.510
2020/01/31 16:05:10.9	100.640	0.160	-0.660	-2.450
2020/01/31 16:05:11.0	100.630	0.170	-0.670	-2.380
2020/01/31 16:05:11.1	100.630	0.180	-0.680	-2.310
2020/01/31 16:05:11.2	100.620	0.180	-0.680	-2.230
2020/01/31 16:05:11.3	100.620	0.190	-0.690	-2.150
2020/01/31 16:05:11.4	100.610	0.200	-0.690	-2.060
2020/01/31 16:05:11.5	100.610	0.210	-0.690	-1.960
2020/01/31 16:05:11.6	100.600	0.210	-0.690	-1.860
2020/01/31 16:05:11.7	100.610	0.220	-0.680	-1.750
2020/01/31 16:05:11.8	100.600	0.220	-0.680	-1.640
2020/01/31 16:05:11.9	100.600	0.220	-0.670	-1.530
2020/01/31 16:05:12.0	100.600	0.220	-0.660	-1.420
2020/01/31 16:05:12.1	100.590	0.220	-0.650	-1.300
2020/01/31 16:05:12.2	100.590	0.220	-0.640	-1.180
2020/01/31 16:05:12.3	100.590	0.220	-0.620	-1.060
2020/01/31 16:05:12.4	100.590	0.210	-0.600	-0.940
2020/01/31 16:05:12.5	100.590	0.210	-0.580	-0.820
2020/01/31 16:05:12.6	100.600	0.200	-0.560	-0.700
2020/01/31 16:05:12.7	100.600	0.190	-0.530	-0.580
2020/01/31 16:05:12.8	100.600	0.180	-0.510	-0.450
2020/01/31 16:05:12.9	100.610	0.170	-0.470	-0.330
2020/01/31 16:05:13.0	100.610	0.160	-0.440	-0.210
2020/01/31 16:05:13.1	100.620	0.140	-0.400	-0.090
2020/01/31 16:05:13.2	100.630	0.120	-0.370	0.030
2020/01/31 16:05:13.3	100.630	0.110	-0.320	0.160
2020/01/31 16:05:13.4	100.640	0.090	-0.280	0.280
2020/01/31 16:05:13.5	100.650	0.070	-0.240	0.400
2020/01/31 16:05:13.6	100.660	0.040	-0.190	0.520
2020/01/31 16:05:13.7	100.660	0.020	-0.140	0.640
2020/01/31 16:05:13.8	100.670	-0.000	-0.090	0.760
2020/01/31 16:05:13.9	100.680	-0.030	-0.040	0.870
2020/01/31 16:05:14.0	100.690	-0.050	0.020	0.990
2020/01/31 16:05:14.1	100.690	-0.080	0.070	1.100
2020/01/31 16:05:14.2	100.700	-0.100	0.120	1.210
2020/01/31 16:05:14.3	100.710	-0.130	0.170	1.320
2020/01/31 16:05:14.4	100.720	-0.160	0.220	1.430
2020/01/31 16:05:14.5	100.730	-0.180	0.270	1.530
2020/01/31 16:05:14.6	100.740	-0.210	0.320	1.630
2020/01/31 16:05:14.7	100.730	-0.230	0.370	1.730
2020/01/31 16:05:14.8	100.740	-0.250	0.410	1.820
2020/01/31 16:05:14.9	100.750	-0.270	0.450	1.910
2020/01/31 16:05:15.0	100.760	-0.300	0.480	2.000
2020/01/31 16:05:15.1	100.770	-0.320	0.520	2.080
2020/01/31 16:05:15.2	100.790	-0.330	0.550	2.160
2020/01/31 16:05:15.3	100.800	-0.350	0.570	2.230
2020/01/31 16:05:15.4	100.810	-0.370	0.590	2.300
2020/01/31 16:05:15.5	100.830	-0.380	0.600	2.360
2020/01/31 16:05:15.6	100.840	-0.390	0.610	2.420
2020/01/31 16:05:15.7	100.850	-0.400	0.610	2.470
2020/01/31 16:05:15.8	100.870	-0.410	0.610	2.520
2020/01/31 16:05:15.9	100.880	-0.420	0.600	2.570
2020/01/31 16:05:16.0	100.900	-0.420	0.590	2.610
2020/01/31 16:05:16.1	100.910	-0.420	0.570	2.640
2020/01/31 16:05:16.2	100.930	-0.420	0.550	2.680
2020/01/31 16:05:16.3	100.940	-0.420	0.520	2.710
2020/01/31 16:05:16.4	100.950	-0.420	0.480	2.730
2020/01/31 16:05:16.5	100.970	-0.410	0.440	2.750
2020/01/31 16:05:16.6	100.980	-0.400	0.400	2.770
2020/01/31 16:05:16.7	100.970	-0.390	0.350	2.790
2020/01/31 16:05:16.8	100.980	-0.380	0.290	2.800
2020/01/31 16:05:16.9	100.990	-0.370	0.230	2.810
2020/01/31 16:05:17.0	101.000	-0.350	0.170	2.820
2020/01/31 16:05:17.1	101.000	-0.330	0.110	2.820
2020/01/31 16:05:17.2	101.000	-0.310	0.040	2.820
2020/01/31 16:05:17.3	101.000	-0.290	-0.030	2.820
2020/01/31 16:05:17.4	101.000	-0.260	-0.100	2.820
2020/01/31 16:05:17.5	101.000	-0.240	-0.180	2.810
2020/01/31 16:05:17.6	101.000	-0.210	-0.250	2.800
2020/01/31 16:05:17.7	100.990	-0.180	-0.330	2.790
2020/01/31 16:05:17.8	100.990	-0.160	-0.400	2.780
2020/01/31 16:05:17.9	100.990	-0.130	-0.470	2.760
2020/01/31 16:05:18.0	100.980	-0.100	-0.540	2.740
2020/01/31 16:05:18.1	100.980	-0.070	-0.610	2.720
2020/01/31 16:05:18.2	100.970	-0.040	-0.670	2.700
2020/01/31 16:05:18.3	100.970	-0.010	-0.730	2.670
2020/01/31 16:05:18.4	100.970	0.020	-0.790	2.630
2020/01/31 16:05:18.5	100.960	0.050	-0.840	2.600
2020/01/31 16:05:18.6	100.960	0.080	-0.890	2.560
2020/01/31 16:05:18.7	100.950	0.110	-0.940	2.510
2020/01/31 16:05:18.8	100.950	0.130	-0.970	2.460
2020/01/31 16:05:18.9	100.950	0.160	-1.000	2.400
2020/01/31 16:05:19.0	100.960	0.180	-1.020	2.350
2020/01/31 16:05:19.1	100.960	0.200	-1.040	2.280
2020/01/31 16:05:19.2	100.970	0.220	-1.050	2.220
2020/01/31 16:05:19.3	100.980	0.230	-1.060	2.140
2020/01/31 16:05:19.4	100.990	0.250	-1.050	2.070
2020/01/31 16:05:19.5	101.000	0.260	-1.040	1.990
2020/01/31 16:05:19.6	101.010	0.270	-1.030	1.900
2020/01/31 16:05:19.7	101.010	0.270	-1.000	1.820
2020/01/31 16:05:19.8	101.020	0.280	-0.980	1.730
2020/01/31 16:05:19.9	101.040	0.280	-0.950	1.630
2020/01/31 16:05:20.0	101.050	0.280	-0.910	1.530
2020/01/31 16:05:20.1	101.060	0.270	-0.870	1.430
2020/01/31 16:05:20.2	101.070	0.270	-0.820	1.330
2020/01/31 16:05:20.3	101.080	0.260	-0.770	1.230
2020/01/31 16:05:20.4	101.090	0.250	-0.720	1.120
2020/01/31 16:05:20.5	101.100	0.230	-0.660	1.020
2020/01/31 16:05:20.6	101.110	0.220	-0.610	0.910
2020/01/31 16:05:20.7	101.120	0.200	-0.540	0.800
2020/01/31 16:05:20.8	101.120	0.180	-0.480	0.700
2020/01/31 16:05:20.9	101.130	0.170	-0.420	0.590
2020/01/31 16:05:21.0	101.130	0.140	-0.350	0.480
2020/01/31 16:05:21.1	101.130	0.120	-0.290	0.380
2020/01/31 16:05:21.2	101.130	0.100	-0.220	0.280
2020/01/31 16:05:21.3	101.130	0.080	-0.160	0.170
2020/01/31 16:05:21.4	101.120	0.060	-0.100	0.070
2020/01/31 16:05:21.5	101.120	0.030	-0.040	-0.030
2020/01/31 16:05:21.6	101.110	0.010	0.020	-0.130
2020/01/31 16:05:21.7	101.120	-0.010	0.080	-0.220
2020/01/31 16:05:21.8	101.110	-0.030	0.140	-0.310
2020/01/31 16:05:21.9	101.100	-0.050	0.190	-0.410
2020/01/31 16:05:22.0	101.100	-0.070	0.230	-0.490
2020/01/31 16:05:22.1	101.090	-0.090	0.280	-0.580
2020/01/31 16:05:22.2	101.080	-0.110	0.320	-0.670
2020/01/31 16:05:22.3	101.070	-0.120	0.360	-0.750
2020/01/31 16:05:22.4	101.060	-0.130	0.390	-0.830
2020/01/31 16:05:22.5	101.040	-0.140	0.420	-0.910
2020/01/31 16:05:22.6	101.030	-0.150	0.440	-0.980
2020/01/31 16:05:22.7	101.030	-0.160	0.460	-1.050
2020/01/31 16:05:22.8	101.020	-0.160	0.470	-1.120
2020/01/31 16:05:22.9	101.020	-0.170	0.480	-1.190
2020/01/31 16:05:23.0	101.010	-0.170	0.490	-1.250
2020/01/31 16:05:23.1	101.000	-0.160	0.490	-1.310
2020/01/31 16:05:23.2	100.990	-0.160	0.480	-1.370
2020/01/31 16:05:23.3	100.980	-0.150	0.470	-1.430
2020/01/31 16:05:23.4	100.980	-0.140	0.460	-1.480
2020/01/31 16:05:23.5	100.970	-0.130	0.440	-1.530
2020/01/31 16:05:23.6	100.960	-0.120	0.410	-1.580
2020/01/31 16:05:23.7	100.970	-0.110	0.390	-1.620
2020/01/31 16:05:23.8	100.970	-0.100	0.360	-1.660
2020/01/31 16:05:23.9	100.960	-0.080	0.320	-1.700
2020/01/31 16:05:24.0	100.960	-0.070	0.290	-1.730
2020/01/31 16:05:24.1	100.960	-0.050	0.250	-1.760
2020/01/31 16:05:24.2	100.960	-0.030	0.210	-1.780
2020/01/31 16:05:24.3	100.960	-0.020	0.170	-1.810
2020/01/31 16:05:24.4	100.960	0.000	0.130	-1.830
2020/01/31 16:05:24.5	100.960	0.020	0.090	-1.840
2020/01/31 16:05:24.6	100.960	0.040	0.050	-1.860
2020/01/31 16:05:24.7	100.990	0.050	0.010	-1.870
2020/01/31 16:05:24.8	100.990	0.070	-0.030	-1.880
2020/01/31 16:05:24.9	101.000	0.080	-0.070	-1.880
2020/01/31 16:05:25.0	101.010	0.100	-0.110	-1.890
2020/01/31 16:05:25.1	101.020	0.110	-0.150	-1.890
2020/01/31 16:05:25.2	101.030	0.120	-0.180	-1.890
2020/01/31 16:05:25.3	101.040	0.140	-0.220	-1.880
2020/01/31 16:05:25.4	101.050	0.150	-0.250	-1.870
2020/01/31 16:05:25.5	101.060	0.160	-0.280	-1.860
2020/01/31 16:05:25.6	101.070	0.160	-0.310	-1.850
2020/01/31 16:05:25.7	101.090	0.170	-0.340	-1.830
2020/01/31 16:05:25.8	101.110	0.180	-0.370	-1.810
2020/01/31 16:05:25.9	101.120	0.180	-0.390	-1.790
2020/01/31 16:05:26.0	101.130	0.190	-0.420	-1.760
2020/01/31 16:05:26.1	101.150	0.190	-0.440	-1.730
2020/01/31 16:05:26.2	101.160	0.200	-0.460	-1.700
2020/01/31 16:05:26.3	101.180	0.200	-0.480	-1.660
2020/01/31 16:05:26.4	101.190	0.200	-0.490	-1.610
2020/01/31 16:05:26.5	101.200	0.200	-0.510	-1.570
2020/01/31 16:05:26.6	101.220	0.200	-0.520	-1.510
2020/01/31 16:05:26.7	101.250	0.190	-0.530	-1.450
2020/01/31 16:05:26.8	101.260	0.190	-0.530	-1.390
2020/01/31 16:05:26.9	101.270	0.190	-0.540	-1.320
2020/01/31 16:05:27.0	101.290	0.180	-0.540	-1.250
2020/01/31 16:05:27.1	101.300	0.180	-0.540	-1.180
2020/01/31 16:05:27.2	101.320	0.170	-0.540	-1.100
2020/01/31 16:05:27.3	101.330	0.160	-0.540	-1.010
2020/01/31 16:05:27.4	101.340	0.160	-0.530	-0.920
2020/01/31 16:05:27.5	101.360	0.150	-0.530	-0.830
2020/01/31 16:05:27.6	101.370	0.140	-0.520	-0.740
2020/01/31 16:05:27.7	101.390	0.130	-0.510	-0.630
2020/01/31 16:05:27.8	101.400	0.120	-0.500	-0.530
2020/01/31 16:05:27.9	101.420	0.110	-0.480	-0.420
2020/01/31 16:05:28.0	101.430	0.100	-0.470	-0.310
2020/01/31 16:05:28.1	101.440	0.090	-0.450	-0.200
2020/01/31 16:05:28.2	101.450	0.080	-0.430	-0.090
2020/01/31 16:05:28.3	101.470	0.070	-0.410	0.030
2020/01/31 16:05:28.4	101.480	0.060	-0.390	0.150
2020/01/31 16:05:28.5	101.490	0.050	-0.370	0.260
2020/01/31 16:05:28.6	101.500	0.040	-0.350	0.380
2020/01/31 16:05:28.7	101.500	0.030	-0.330	0.510
2020/01/31 16:05:28.8	101.510	0.020	-0.300	0.630
2020/01/31 16:05:28.9	101.520	0.000	-0.280	0.750
2020/01/31 16:05:29.0	101.520	-0.010	-0.250	0.870
2020/01/31 16:05:29.1	101.530	-0.020	-0.230	0.990
2020/01/31 16:05:29.2	101.540	-0.040	-0.200	1.110
2020/01/31 16:05:29.3	101.540	-0.050	-0.180	1.230
2020/01/31 16:05:29.4	101.550	-0.060	-0.150	1.340
2020/01/31 16:05:29.5	101.550	-0.080	-0.130	1.460
2020/01/31 16:05:29.6	101.560	-0.090	-0.110	1.580
2020/01/31 16:05:29.7	101.560	-0.100	-0.080	1.690
2020/01/31 16:05:29.8	101.560	-0.120	-0.060	1.800
2020/01/31 16:05:29.9	101.570	-0.130	-0.040	1.910
2020/01/31 16:05:30.0	101.570	-0.150	-0.020	2.020
2020/01/31 16:05:30.1	101.570	-0.160	-0.010	2.130
2020/01/31 16:05:30.2	101.570	-0.180	0.010	2.230
2020/01/31 16:05:30.3	101.570	-0.190	0.020	2.330
2020/01/31 16:05:30.4	101.570	-0.200	0.030	2.430
2020/01/31 16:05:30.5	101.570	-0.220	0.040	2.520
2020/01/31 16:05:30.6	101.570	-0.230	0.050	2.610
2020/01/31 16:05:30.7	101.570	-0.240	0.050	2.690
2020/01/31 16:05:30.8	101.570	-0.250	0.050	2.780
2020/01/31 16:05:30.9	101.570	-0.270	0.060	2.850
2020/01/31 16:05:31.0	101.570	-0.280	0.050	2.920
2020/01/31 16:05:31.1	101.560	-0.280	0.050	2.990
2020/01/31 16:05:31.2	101.560	-0.290	0.050	3.050
2020/01/31 16:05:31.3	101.560	-0.300	0.040	3.100
2020/01/31 16:05:31.4	101.560	-0.300	0.030	3.150
2020/01/31 16:05:31.5	101.550	-0.310	0.030	3.200
2020/01/31 16:05:31.6	101.550	-0.310	0.020	3.240
2020/01/31 16:05:31.7	101.550	-0.310	0.010	3.270
2020/01/31 16:05:31.8	101.540	-0.310	0.000	3.300
2020/01/31 16:05:31.9	101.540	-0.310	-0.000	3.320
2020/01/31 16:05:32.0	101.530	-0.310	-0.010	3.330
2020/01/31 16:05:32.1	101.530	-0.310	-0.020	3.340
2020/01/31 16:05:32.2	101.520	-0.300	-0.030	3.340
2020/01/31 16:05:32.3	101.520	-0.300	-0.030	3.330
2020/01/31 16:05:32.4	101.510	-0.290	-0.030	3.320
2020/01/31 16:05:32.5	101.510	-0.280	-0.040	3.300
2020/01/31 16:05:32.6	101.510	-0.270	-0.040	3.270
2020/01/31 16:05:32.7	101.480	-0.270	-0.040	3.240
2020/01/31 16:05:32.8	101.480	-0.260	-0.040	3.200
2020/01/31 16:05:32.9	101.480	-0.250	-0.040	3.150
2020/01/31 16:05:33.0	101.480	-0.240	-0.040	3.100
2020/01/31 16:05:33.1	101.480	-0.230	-0.030	3.040
2020/01/31 16:05:33.2	101.480	-0.210	-0.030	2.970
2020/01/31 16:05:33.3	101.490	-0.200	-0.020	2.900
2020/01/31 16:05:33.4	101.500	-0.190	-0.020	2.820
2020/01/31 16:05:33.5	101.500	-0.180	-0.010	2.740
2020/01/31 16:05:33.6	101.510	-0.170	-0.000	2.650
2020/01/31 16:05:33.7	101.510	-0.160	0.000	2.560
2020/01/31 16:05:33.8	101.530	-0.150	0.010	2.460
2020/01/31 16:05:33.9	101.540	-0.130	0.010	2.360
2020/01/31 16:05:34.0	101.560	-0.120	0.020	2.250
2020/01/31 16:05:34.1	101.570	-0.110	0.020	2.140
2020/01/31 16:05:34.2	101.590	-0.100	0.020	2.030
2020/01/31 16:05:34.3	101.610	-0.090	0.020	1.910
2020/01/31 16:05:34.4	101.630	-0.080	0.020	1.790
2020/01/31 16:05:34.5	101.640	-0.070	0.010	1.670
2020/01/31 16:05:34.6	101.660	-0.050	0.000	1.550
2020/01/31 16:05:34.7	101.690	-0.040	-0.000	1.420
2020/01/31 16:05:34.8	101.710	-0.030	-0.010	1.290
2020/01/31 16:05:34.9	101.730	-0.020	-0.030	1.160
2020/01/31 16:05:35.0	101.740	-0.010	-0.050	1.040
2020/01/31 16:05:35.1	101.760	0.010	-0.070	0.910
2020/01/31 16:05:35.2	101.780	0.020	-0.090	0.780
2020/01/31 16:05:35.3	101.790	0.030	-0.110	0.650
2020/01/31 16:05:35.4	101.800	0.050	-0.140	0.520
2020/01/31 16:05:35.5	101.820	0.060	-0.160	0.400
2020/01/31 16:05:35.6	101.830	0.070	-0.190	0.270
2020/01/31 16:05:35.7	101.850	0.090	-0.220	0.150
2020/01/31 16:05:35.8	101.860	0.100	-0.250	0.020
2020/01/31 16:05:35.9	101.870	0.110	-0.280	-0.100
2020/01/31 16:05:36.0	101.870	0.130	-0.310	-0.220
2020/01/31 16:05:36.1	101.870	0.140	-0.340	-0.340
2020/01/31 16:05:36.2	101.870	0.150	-0.370	-0.450
2020/01/31 16:05:36.3	101.870	0.170	-0.400	-0.570
2020/01/31 16:05:36.4	101.870	0.180	-0.430	-0.680
2020/01/31 16:05:36.5	101.860	0.190	-0.460	-0.790
2020/01/31 16:05:36.6	101.860	0.200	-0.480	-0.900
2020/01/31 16:05:36.7	101.860	0.210	-0.500	-1.010
2020/01/31 16:05:36.8	101.850	0.220	-0.520	-1.110
2020/01/31 16:05:36.9	101.850	0.230	-0.540	-1.210
2020/01/31 16:05:37.0	101.840	0.240	-0.560	-1.300
2020/01/31 16:05:37.1	101.830	0.250	-0.570	-1.400
2020/01/31 16:05:37.2	101.820	0.250	-0.580	-1.490
2020/01/31 16:05:37.3	101.820	0.260	-0.580	-1.570
2020/01/31 16:05:37.4	101.810	0.270	-0.590	-1.650
2020/01/31 16:05:37.5	101.800	0.270	-0.590	-1.730
2020/01/31 16:05:37.6	101.790	0.270	-0.590	-1.800
2020/01/31 16:05:37.7	101.790	0.280	-0.580	-1.870
2020/01/31 16:05:37.8	101.780	0.280	-0.580	-1.930
2020/01/31 16:05:37.9	101.770	0.280	-0.570	-1.990
2020/01/31 16:05:38.0	101.760	0.280	-0.560	-2.040
2020/01/31 16:05:38.1	101.750	0.280	-0.550	-2.090
2020/01/31 16:05:38.2	101.740	0.280	-0.540	-2.130
2020/01/31 16:05:38.3	101.730	0.280	-0.530	-2.160
2020/01/31 16:05:38.4	101.720	0.280	-0.510	-2.190
2020/01/31 16:05:38.5	101.710	0.280	-0.500	-2.210
2020/01/31 16:05:38.6	101.700	0.280	-0.480	-2.230
2020/01/31 16:05:38.7	101.680	0.280	-0.470	-2.240
2020/01/31 16:05:38.8	101.670	0.270	-0.450	-2.250
2020/01/31 16:05:38.9	101.670	0.270	-0.430	-2.250
2020/01/31 16:05:39.0	101.660	0.270	-0.420	-2.240
2020/01/31 16:05:39.1	101.650	0.270	-0.400	-2.230
2020/01/31 16:05:39.2	101.640	0.260	-0.380	-2.210
2020/01/31 16:05:39.3	101.640	0.260	-0.360	-2.190
2020/01/31 16:05:39.4	101.640	0.260	-0.340	-2.160
2020/01/31 16:05:39.5	101.630	0.260	-0.330	-2.130
2020/01/31 16:05:39.6	101.630	0.250	-0.310	-2.090
2020/01/31 16:05:39.7	101.630	0.250	-0.290	-2.050
2020/01/31 16:05:39.8	101.640	0.250	-0.270	-2.010
2020/01/31 16:05:39.9	101.640	0.250	-0.260	-1.960
2020/01/31 16:05:40.0	101.650	0.250	-0.240	-1.910
2020/01/31 16:05:40.1	101.660	0.240	-0.230	-1.850
2020/01/31 16:05:40.2	101.670	0.240	-0.210	-1.800
2020/01/31 16:05:40.3	101.680	0.240	-0.200	-1.740
2020/01/31 16:05:40.4	101.690	0.240	-0.180	-1.670
2020/01/31 16:05:40.5	101.700	0.230	-0.170	-1.600
2020/01/31 16:05:40.6	101.720	0.230	-0.160	-1.530
2020/01/31 16:05:40.7	101.740	0.230	-0.140	-1.460
2020/01/31 16:05:40.8	101.760	0.230	-0.130	-1.380
2020/01/31 16:05:40.9	101.780	0.220	-0.120	-1.300
2020/01/31 16:05:41.0	101.790	0.220	-0.110	-1.210
2020/01/31 16:05:41.1	101.810	0.210	-0.100	-1.120
2020/01/31 16:05:41.2	101.830	0.210	-0.090	-1.030
2020/01/31 16:05:41.3	101.840	0.200	-0.080	-0.940
2020/01/31 16:05:41.4	101.860	0.190	-0.080	-0.840
2020/01/31 16:05:41.5	101.870	0.180	-0.070	-0.740
2020/01/31 16:05:41.6	101.890	0.170	-0.060	-0.630
2020/01/31 16:05:41.7	101.910	0.160	-0.050	-0.520
2020/01/31 16:05:41.8	101.920	0.140	-0.040	-0.410
2020/01/31 16:05:41.9	101.930	0.130	-0.030	-0.290
2020/01/31 16:05:42.0	101.940	0.110	-0.020	-0.180
2020/01/31 16:05:42.1	101.950	0.090	-0.010	-0.060
2020/01/31 16:05:42.2	101.960	0.070	-0.000	0.060
2020/01/31 16:05:42.3	101.960	0.050	0.010	0.180
2020/01/31 16:05:42.4	101.960	0.030	0.020	0.300
2020/01/31 16:05:42.5	101.970	0.000	0.040	0.420
2020/01/31 16:05:42.6	101.970	-0.020	0.050	0.550
2020/01/31 16:05:42.7	101.960	-0.050	0.070	0.670
2020/01/31 16:05:42.8	101.960	-0.080	0.080	0.790
2020/01/31 16:05:42.9	101.960	-0.110	0.100	0.920
2020/01/31 16:05:43.0	101.960	-0.140	0.120	1.030
2020/01/31 16:05:43.1	101.960	-0.180	0.130	1.150
2020/01/31 16:05:43.2	101.960	-0.210	0.150	1.270
2020/01/31 16:05:43.3	101.960	-0.240	0.170	1.380
2020/01/31 16:05:43.4	101.960	-0.280	0.180	1.490
2020/01/31 16:05:43.5	101.960	-0.310	0.200	1.590
2020/01/31 16:05:43.6	101.960	-0.340	0.210	1.690
2020/01/31 16:05:43.7	101.940	-0.380	0.220	1.790
2020/01/31 16:05:43.8	101.950	-0.410	0.230	1.880
2020/01/31 16:05:43.9	101.950	-0.440	0.240	1.960
2020/01/31 16:05:44.0	101.960	-0.470	0.250	2.050
2020/01/31 16:05:44.1	101.970	-0.500	0.260	2.120
2020/01/31 16:05:44.2	101.990	-0.520	0.270	2.190
2020/01/31 16:05:44.3	102.000	-0.550	0.270	2.260
2020/01/31 16:05:44.4	102.020	-0.570	0.270	2.320
2020/01/31 16:05:44.5	102.040	-0.590	0.270	2.370
2020/01/31 16:05:44.6	102.060	-0.600	0.270	2.420
2020/01/31 16:05:44.7	102.070	-0.610	0.270	2.460
2020/01/31 16:05:44.8	102.100	-0.620	0.260	2.490
2020/01/31 16:05:44.9	102.130	-0.630	0.250	2.530
2020/01/31 16:05:45.0	102.150	-0.630	0.240	2.550
2020/01/31 16:05:45.1	102.180	-0.630	0.230	2.570
2020/01/31 16:05:45.2	102.210	-0.630	0.210	2.590
2020/01/31 16:05:45.3	102.240	-0.620	0.190	2.610
2020/01/31 16:05:45.4	102.270	-0.610	0.170	2.620
2020/01/31 16:05:45.5	102.300	-0.600	0.150	2.620
2020/01/31 16:05:45.6	102.330	-0.580	0.130	2.630
2020/01/31 16:05:45.7	102.350	-0.560	0.100	2.640
2020/01/31 16:05:45.8	102.370	-0.540	0.070	2.640
2020/01/31 16:05:45.9	102.400	-0.510	0.040	2.640
2020/01/31 16:05:46.0	102.410	-0.490	0.020	2.640
2020/01/31 16:05:46.1	102.430	-0.460	-0.010	2.630
2020/01/31 16:05:46.2	102.440	-0.420	-0.050	2.630
2020/01/31 16:05:46.3	102.460	-0.390	-0.080	2.630
2020/01/31 16:05:46.4	102.460	-0.350	-0.110	2.620
2020/01/31 16:05:46.5	102.470	-0.320	-0.140	2.610
2020/01/31 16:05:46.6	102.470	-0.280	-0.170	2.600
2020/01/31 16:05:46.7	102.460	-0.240	-0.200	2.590
2020/01/31 16:05:46.8	102.460	-0.210	-0.220	2.580
2020/01/31 16:05:46.9	102.460	-0.170	-0.250	2.560
2020/01/31 16:05:47.0	102.450	-0.130	-0.280	2.540
2020/01/31 16:05:47.1	102.440	-0.100	-0.300	2.520
2020/01/31 16:05:47.2	102.440	-0.060	-0.320	2.490
2020/01/31 16:05:47.3	102.430	-0.030	-0.350	2.460
2020/01/31 16:05:47.4	102.410	0.000	-0.370	2.430
2020/01/31 16:05:47.5	102.400	0.030	-0.380	2.400
2020/01/31 16:05:47.6	102.390	0.060	-0.400	2.360
2020/01/31 16:05:47.7	102.370	0.090	-0.420	2.310
2020/01/31 16:05:47.8	102.350	0.110	-0.430	2.260
2020/01/31 16:05:47.9	102.340	0.140	-0.440	2.210
2020/01/31 16:05:48.0	102.320	0.160	-0.450	2.160
2020/01/31 16:05:48.1	102.310	0.180	-0.460	2.100
2020/01/31 16:05:48.2	102.300	0.200	-0.470	2.030
2020/01/31 16:05:48.3	102.280	0.210	-0.480	1.960
2020/01/31 16:05:48.4	102.270	0.230	-0.480	1.890
2020/01/31 16:05:48.5	102.260	0.240	-0.490	1.810
2020/01/31 16:05:48.6	102.240	0.250	-0.490	1.730
2020/01/31 16:05:48.7	102.230	0.260	-0.490	1.640
2020/01/31 16:05:48.8	102.220	0.270	-0.500	1.550
2020/01/31 16:05:48.9	102.210	0.280	-0.500	1.460
2020/01/31 16:05:49.0	102.200	0.280	-0.500	1.370
2020/01/31 16:05:49.1	102.190	0.290	-0.510	1.270
2020/01/31 16:05:49.2	102.190	0.290	-0.510	1.160
2020/01/31 16:05:49.3	102.180	0.300	-0.510	1.060
2020/01/31 16:05:49.4	102.180	0.300	-0.510	0.950
2020/01/31 16:05:49.5	102.170	0.310	-0.520	0.840
2020/01/31 16:05:49.6	102.170	0.310	-0.520	0.730
2020/01/31 16:05:49.7	102.180	0.310	-0.520	0.610
2020/01/31 16:05:49.8	102.180	0.320	-0.520	0.500
2020/01/31 16:05:49.9	102.180	0.320	-0.530	0.380
2020/01/31 16:05:50.0	102.180	0.330	-0.530	0.270
2020/01/31 16:05:50.1	102.180	0.330	-0.530	0.150
2020/01/31 16:05:50.2	102.180	0.330	-0.530	0.030
2020/01/31 16:05:50.3	102.190	0.340	-0.540	-0.090
2020/01/31 16:05:50.4	102.190	0.340	-0.540	-0.200
2020/01/31 16:05:50.5	102.190	0.350	-0.540	-0.320
2020/01/31 16:05:50.6	102.200	0.350	-0.530	-0.430
2020/01/31 16:05:50.7	102.210	0.360	-0.530	-0.540
2020/01/31 16:05:50.8	102.220	0.360	-0.520	-0.650
2020/01/31 16:05:50.9	102.220	0.370	-0.520	-0.760
2020/01/31 16:05:51.0	102.230	0.370	-0.510	-0.860
2020/01/31 16:05:51.1	102.230	0.370	-0.500	-0.960
2020/01/31 16:05:51.2	102.230	0.380	-0.490	-1.060
2020/01/31 16:05:51.3	102.230	0.380	-0.470	-1.150
2020/01/31 16:05:51.4	102.230	0.380	-0.460	-1.230
2020/01/31 16:05:51.5	102.220	0.380	-0.440	-1.310
2020/01/31 16:05:51.6	102.220	0.380	-0.420	-1.390
2020/01/31 16:05:51.7	102.200	0.380	-0.400	-1.460
2020/01/31 16:05:51.8	102.200	0.370	-0.370	-1.530
2020/01/31 16:05:51.9	102.190	0.370	-0.350	-1.590
2020/01/31 16:05:52.0	102.180	0.360	-0.320	-1.640
2020/01/31 16:05:52.1	102.170	0.350	-0.290	-1.690
2020/01/31 16:05:52.2	102.160	0.340	-0.260	-1.730
2020/01/31 16:05:52.3	102.140	0.330	-0.220	-1.770
2020/01/31 16:05:52.4	102.130	0.310	-0.190	-1.800
2020/01/31 16:05:52.5	102.120	0.290	-0.150	-1.830
2020/01/31 16:05:52.6	102.110	0.270	-0.110	-1.860
2020/01/31 16:05:52.7	102.100	0.250	-0.070	-1.870
2020/01/31 16:05:52.8	102.090	0.230	-0.040	-1.890
2020/01/31 16:05:52.9	102.080	0.210	0.000	-1.900
2020/01/31 16:05:53.0	102.070	0.180	0.040	-1.910
2020/01/31 16:05:53.1	102.060	0.150	0.080	-1.910
2020/01/31 16:05:53.2	102.050	0.120	0.110	-1.910
2020/01/31 16:05:53.3	102.050	0.090	0.150	-1.910
2020/01/31 16:05:53.4	102.040	0.060	0.180	-1.900
2020/01/31 16:05:53.5	102.040	0.030	0.210	-1.900
2020/01/31 16:05:53.6	102.040	0.000	0.240	-1.880
2020/01/31 16:05:53.7	102.050	-0.030	0.270	-1.870
2020/01/31 16:05:53.8	102.060	-0.060	0.290	-1.850
2020/01/31 16:05:53.9	102.070	-0.090	0.310	-1.830
2020/01/31 16:05:54.0	102.080	-0.120	0.320	-1.810
2020/01/31 16:05:54.1	102.090	-0.150	0.330	-1.790
2020/01/31 16:05:54.2	102.110	-0.180	0.340	-1.760
2020/01/31 16:05:54.3	102.120	-0.200	0.340	-1.740
2020/01/31 16:05:54.4	102.140	-0.230	0.340	-1.700
2020/01/31 16:05:54.5	102.170	-0.250	0.330	-1.670
2020/01/31 16:05:54.6	102.190	-0.270	0.320	-1.630
2020/01/31 16:05:54.7	102.210	-0.290	0.310	-1.580
2020/01/31 16:05:54.8	102.230	-0.300	0.280	-1.540
2020/01/31 16:05:54.9	102.260	-0.320	0.260	-1.490
2020/01/31 16:05:55.0	102.280	-0.330	0.230	-1.430
2020/01/31 16:05:55.1	102.310	-0.330	0.200	-1.370
2020/01/31 16:05:55.2	102.340	-0.340	0.160	-1.310
2020/01/31 16:05:55.3	102.370	-0.340	0.120	-1.240
2020/01/31 16:05:55.4	102.390	-0.340	0.080	-1.160
2020/01/31 16:05:55.5	102.420	-0.330	0.040	-1.080
2020/01/31 16:05:55.6	102.450	-0.320	-0.010	-1.000
2020/01/31 16:05:55.7	102.470	-0.320	-0.060	-0.910
2020/01/31 16:05:55.8	102.500	-0.300	-0.110	-0.820
2020/01/31 16:05:55.9	102.530	-0.290	-0.150	-0.720
2020/01/31 16:05:56.0	102.550	-0.270	-0.200	-0.620
2020/01/31 16:05:56.1	102.580	-0.260	-0.240	-0.520
2020/01/31 16:05:56.2	102.610	-0.240	-0.290	-0.410
2020/01/31 16:05:56.3	102.640	-0.220	-0.330	-0.310
2020/01/31 16:05:56.4	102.660	-0.200	-0.370	-0.200
2020/01/31 16:05:56.5	102.690	-0.180	-0.400	-0.080
2020/01/31 16:05:56.6	102.710	-0.150	-0.430	0.030
2020/01/31 16:05:56.7	102.750	-0.130	-0.460	0.150
2020/01/31 16:05:56.8	102.770	-0.110	-0.480	0.270
2020/01/31 16:05:56.9	102.800	-0.090	-0.500	0.390
2020/01/31 16:05:57.0	102.820	-0.070	-0.520	0.510
2020/01/31 16:05:57.1	102.840	-0.050	-0.530	0.630
2020/01/31 16:05:57.2	102.850	-0.030	-0.530	0.750
2020/01/31 16:05:57.3	102.870	-0.010	-0.530	0.870
2020/01/31 16:05:57.4	102.890	0.000	-0.530	0.990
2020/01/31 16:05:57.5	102.900	0.010	-0.520	1.120
2020/01/31 16:05:57.6	102.910	0.030	-0.500	1.230
2020/01/31 16:05:57.7	102.920	0.040	-0.480	1.350
2020/01/31 16:05:57.8	102.920	0.040	-0.460	1.470
2020/01/31 16:05:57.9	102.920	0.050	-0.430	1.580
2020/01/31 16:05:58.0	102.920	0.050	-0.400	1.700
2020/01/31 16:05:58.1	102.920	0.050	-0.370	1.810
2020/01/31 16:05:58.2	102.920	0.050	-0.330	1.910
2020/01/31 16:05:58.3	102.910	0.050	-0.300	2.020
2020/01/31 16:05:58.4	102.900	0.040	-0.260	2.120
2020/01/31 16:05:58.5	102.890	0.040	-0.210	2.210
2020/01/31 16:05:58.6	102.880	0.030	-0.170	2.300
2020/01/31 16:05:58.7	102.870	0.020	-0.120	2.390
2020/01/31 16:05:58.8	102.860	0.010	-0.080	2.470
2020/01/31 16:05:58.9	102.840	-0.000	-0.040	2.550
2020/01/31 16:05:59.0	102.830	-0.020	-0.000	2.620
2020/01/31 16:05:59.1	102.820	-0.030	0.040	2.690
2020/01/31 16:05:59.2	102.810	-0.040	0.080	2.750
2020/01/31 16:05:59.3	102.800	-0.060	0.110	2.800
2020/01/31 16:05:59.4	102.790	-0.070	0.140	2.850
2020/01/31 16:05:59.5	102.780	-0.090	0.170	2.890
2020/01/31 16:05:59.6	102.770	-0.100	0.200	2.920
2020/01/31 16:05:59.7	102.760	-0.110	0.220	2.950
2020/01/31 16:05:59.8	102.760	-0.130	0.240	2.970
2020/01/31 16:05:59.9	102.750	-0.140	0.260	2.990
2020/01/31 16:06:00.0	102.750	-0.150	0.270	3.000
2020/01/31 16:06:00.1	102.750	-0.160	0.280	3.000
2020/01/31 16:06:00.2	102.750	-0.170	0.280	3.000
2020/01/31 16:06:00.3	102.750	-0.170	0.280	3.000
2020/01/31 16:06:00.4	102.750	-0.180	0.270	2.980
2020/01/31 16:06:00.5	102.760	-0.180	0.260	2.970
2020/01/31 16:06:00.6	102.760	-0.180	0.240	2.950
2020/01/31 16:06:00.7	102.760	-0.180	0.220	2.920
2020/01/31 16:06:00.8	102.760	-0.180	0.200	2.890
2020/01/31 16:06:00.9	102.770	-0.170	0.170	2.860
2020/01/31 16:06:01.0	102.770	-0.170	0.130	2.820
2020/01/31 16:06:01.1	102.770	-0.160	0.100	2.780
2020/01/31 16:06:01.2	102.780	-0.150	0.060	2.740
2020/01/31 16:06:01.3	102.780	-0.140	0.020	2.700
2020/01/31 16:06:01.4	102.780	-0.130	-0.030	2.650
2020/01/31 16:06:01.5	102.780	-0.120	-0.070	2.600
2020/01/31 16:06:01.6	102.780	-0.100	-0.120	2.550
2020/01/31 16:06:01.7	102.770	-0.090	-0.170	2.500
2020/01/31 16:06:01.8	102.770	-0.080	-0.210	2.450
2020/01/31 16:06:01.9	102.760	-0.060	-0.260	2.390
2020/01/31 16:06:02.0	102.750	-0.050	-0.310	2.340
2020/01/31 16:06:02.1	102.740	-0.040	-0.350	2.280
2020/01/31 16:06:02.2	102.730	-0.020	-0.390	2.210
2020/01/31 16:06:02.3	102.720	-0.010	-0.430	2.150
2020/01/31 16:06:02.4	102.700	-0.000	-0.470	2.080
2020/01/31 16:06:02.5	102.690	0.010	-0.500	2.010
2020/01/31 16:06:02.6	102.680	0.020	-0.530	1.930
2020/01/31 16:06:02.7	102.660	0.030	-0.550	1.850
2020/01/31 16:06:02.8	102.650	0.040	-0.580	1.760
2020/01/31 16:06:02.9	102.630	0.050	-0.590	1.670
2020/01/31 16:06:03.0	102.620	0.050	-0.610	1.580
2020/01/31 16:06:03.1	102.600	0.060	-0.620	1.480
2020/01/31 16:06:03.2	102.590	0.060	-0.620	1.370
2020/01/31 16:06:03.3	102.580	0.070	-0.620	1.260
2020/01/31 16:06:03.4	102.570	0.070	-0.620	1.150
2020/01/31 16:06:03.5	102.570	0.070	-0.610	1.030
2020/01/31 16:06:03.6	102.560	0.070	-0.610	0.910
2020/01/31 16:06:03.7	102.550	0.070	-0.590	0.790
2020/01/31 16:06:03.8	102.550	0.070	-0.580	0.660
2020/01/31 16:06:03.9	102.550	0.080	-0.560	0.530
2020/01/31 16:06:04.0	102.550	0.080	-0.540	0.400
2020/01/31 16:06:04.1	102.550	0.080	-0.520	0.260
2020/01/31 16:06:04.2	102.560	0.080	-0.490	0.130
2020/01/31 16:06:04.3	102.570	0.080	-0.470	-0.010
2020/01/31 16:06:04.4	102.570	0.090	-0.440	-0.150
2020/01/31 16:06:04.5	102.580	0.090	-0.420	-0.280
2020/01/31 16:06:04.6	102.600	0.100	-0.400	-0.420
2020/01/31 16:06:04.7	102.620	0.110	-0.370	-0.550
2020/01/31 16:06:04.8	102.630	0.120	-0.350	-0.690
2020/01/31 16:06:04.9	102.650	0.130	-0.330	-0.820
2020/01/31 16:06:05.0	102.660	0.140	-0.310	-0.950
2020/01/31 16:06:05.1	102.680	0.150	-0.290	-1.070
2020/01/31 16:06:05.2	102.700	0.170	-0.280	-1.190
2020/01/31 16:06:05.3	102.720	0.180	-0.260	-1.310
2020/01/31 16:06:05.4	102.730	0.200	-0.250	-1.420
2020/01/31 16:06:05.5	102.750	0.220	-0.240	-1.520
2020/01/31 16:06:05.6	102.770	0.240	-0.240	-1.620
2020/01/31 16:06:05.7	102.800	0.260	-0.230	-1.710
2020/01/31 16:06:05.8	102.810	0.280	-0.230	-1.800
2020/01/31 16:06:05.9	102.830	0.300	-0.230	-1.880
2020/01/31 16:06:06.0	102.840	0.320	-0.220	-1.960
2020/01/31 16:06:06.1	102.850	0.340	-0.220	-2.020
2020/01/31 16:06:06.2	102.860	0.360	-0.220	-2.080
2020/01/31 16:06:06.3	102.870	0.380	-0.220	-2.140
2020/01/31 16:06:06.4	102.880	0.400	-0.220	-2.180
2020/01/31 16:06:06.5	102.890	0.410	-0.210	-2.220
2020/01/31 16:06:06.6	102.900	0.420	-0.210	-2.260
2020/01/31 16:06:06.7	102.910	0.430	-0.200	-2.280
2020/01/31 16:06:06.8	102.910	0.440	-0.190	-2.300
2020/01/31 16:06:06.9	102.920	0.440	-0.180	-2.320
2020/01/31 16:06:07.0	102.920	0.440	-0.170	-2.330
2020/01/31 16:06:07.1	102.930	0.440	-0.150	-2.340
2020/01/31 16:06:07.2	102.930	0.430	-0.130	-2.340
2020/01/31 16:06:07.3	102.930	0.420	-0.110	-2.330
2020/01/31 16:06:07.4	102.930	0.410	-0.090	-2.320
2020/01/31 16:06:07.5	102.930	0.390	-0.060	-2.300
2020/01/31 16:06:07.6	102.940	0.370	-0.040	-2.280
2020/01/31 16:06:07.7	102.950	0.340	-0.010	-2.260
2020/01/31 16:06:07.8	102.950	0.320	0.020	-2.230
2020/01/31 16:06:07.9	102.960	0.290	0.050	-2.200
2020/01/31 16:06:08.0	102.960	0.260	0.090	-2.160
2020/01/31 16:06:08.1	102.960	0.220	0.120	-2.110
2020/01/31 16:06:08.2	102.970	0.190	0.150	-2.070
2020/01/31 16:06:08.3	102.970	0.150	0.180	-2.020
2020/01/31 16:06:08.4	102.970	0.110	0.210	-1.960
2020/01/31 16:06:08.5	102.980	0.070	0.240	-1.900
2020/01/31 16:06:08.6	102.980	0.030	0.270	-1.840
2020/01/31 16:06:08.7	102.980	-0.010	0.290	-1.770
2020/01/31 16:06:08.8	102.980	-0.050	0.310	-1.690
2020/01/31 16:06:08.9	102.980	-0.080	0.330	-1.610
2020/01/31 16:06:09.0	102.980	-0.120	0.350	-1.530
2020/01/31 16:06:09.1	102.980	-0.160	0.360	-1.440
2020/01/31 16:06:09.2	102.970	-0.190	0.370	-1.350
2020/01/31 16:06:09.3	102.970	-0.220	0.370	-1.260
2020/01/31 16:06:09.4	102.960	-0.250	0.370	-1.160
2020/01/31 16:06:09.5	102.960	-0.280	0.370	-1.050
2020/01/31 16:06:09.6	102.950	-0.300	0.360	-0.940
2020/01/31 16:06:09.7	102.930	-0.320	0.340	-0.830
2020/01/31 16:06:09.8	102.930	-0.340	0.330	-0.710
2020/01/31 16:06:09.9	102.920	-0.350	0.300	-0.600
2020/01/31 16:06:10.0	102.910	-0.360	0.270	-0.480
2020/01/31 16:06:10.1	102.900	-0.370	0.240	-0.350
2020/01/31 16:06:10.2	102.890	-0.370	0.200	-0.230
2020/01/31 16:06:10.3	102.880	-0.370	0.160	-0.100
2020/01/31 16:06:10.4	102.870	-0.370	0.120	0.020
2020/01/31 16:06:10.5	102.860	-0.360	0.070	0.150
2020/01/31 16:06:10.6	102.860	-0.340	0.020	0.280
2020/01/31 16:06:10.7	102.850	-0.330	-0.040	0.410
2020/01/31 16:06:10.8	102.840	-0.310	-0.100	0.540
2020/01/31 16:06:10.9	102.830	-0.290	-0.160	0.670
2020/01/31 16:06:11.0	102.830	-0.270	-0.220	0.800
2020/01/31 16:06:11.1	102.820	-0.240	-0.270	0.930
2020/01/31 16:06:11.2	102.820	-0.220	-0.330	1.060
2020/01/31 16:06:11.3	102.810	-0.190	-0.390	1.190
2020/01/31 16:06:11.4	102.810	-0.160	-0.450	1.320
2020/01/31 16:06:11.5	102.800	-0.130	-0.510	1.450
2020/01/31 16:06:11.6	102.800	-0.110	-0.560	1.580
2020/01/31 16:06:11.7	102.780	-0.080	-0.610	1.710
2020/01/31 16:06:11.8	102.780	-0.050	-0.660	1.840
2020/01/31 16:06:11.9	102.770	-0.030	-0.700	1.960
2020/01/31 16:06:12.0	102.770	-0.000	-0.740	2.080
2020/01/31 16:06:12.1	102.770	0.020	-0.770	2.200
2020/01/31 16:06:12.2	102.760	0.030	-0.800	2.320
2020/01/31 16:06:12.3	102.760	0.050	-0.820	2.430
2020/01/31 16:06:12.4	102.760	0.060	-0.830	2.540
2020/01/31 16:06:12.5	102.760	0.070	-0.830	2.640
2020/01/31 16:06:12.6	102.750	0.080	-0.830	2.740
2020/01/31 16:06:12.7	102.730	0.080	-0.820	2.840
2020/01/31 16:06:12.8	102.730	0.070	-0.810	2.920
2020/01/31 16:06:12.9	102.730	0.070	-0.780	3.010
2020/01/31 16:06:13.0	102.730	0.060	-0.750	3.080
2020/01/31 16:06:13.1	102.730	0.050	-0.720	3.150
2020/01/31 16:06:13.2	102.740	0.030	-0.680	3.210
2020/01/31 16:06:13.3	102.740	0.010	-0.630	3.260
2020/01/31 16:06:13.4	102.740	-0.010	-0.580	3.310
2020/01/31 16:06:13.5	102.750	-0.040	-0.520	3.350
2020/01/31 16:06:13.6	102.750	-0.060	-0.460	3.380
2020/01/31 16:06:13.7	102.760	-0.090	-0.390	3.400
2020/01/31 16:06:13.8	102.760	-0.120	-0.330	3.420
2020/01/31 16:06:13.9	102.770	-0.150	-0.260	3.420
2020/01/31 16:06:14.0	102.780	-0.180	-0.200	3.420
2020/01/31 16:06:14.1	102.790	-0.220	-0.140	3.410
2020/01/31 16:06:14.2	102.800	-0.250	-0.070	3.390
2020/01/31 16:06:14.3	102.810	-0.280	-0.010	3.360
2020/01/31 16:06:14.4	102.820	-0.310	0.050	3.320
2020/01/31 16:06:14.5	102.830	-0.330	0.100	3.280
2020/01/31 16:06:14.6	102.840	-0.360	0.150	3.220
2020/01/31 16:06:14.7	102.850	-0.380	0.200	3.150
2020/01/31 16:06:14.8	102.870	-0.400	0.240	3.080
2020/01/31 16:06:14.9	102.880	-0.410	0.280	3.000
2020/01/31 16:06:15.0	102.900	-0.430	0.310	2.920
2020/01/31 16:06:15.1	102.920	-0.430	0.340	2.820
2020/01/31 16:06:15.2	102.940	-0.440	0.360	2.720
2020/01/31 16:06:15.3	102.960	-0.440	0.370	2.620
2020/01/31 16:06:15.4	102.990	-0.440	0.380	2.510
2020/01/31 16:06:15.5	103.010	-0.430	0.380	2.390
2020/01/31 16:06:15.6	103.040	-0.410	0.380	2.270
2020/01/31 16:06:15.7	103.050	-0.400	0.370	2.150
2020/01/31 16:06:15.8	103.070	-0.380	0.350	2.020
2020/01/31 16:06:15.9	103.100	-0.350	0.330	1.890
2020/01/31 16:06:16.0	103.120	-0.320	0.300	1.760
2020/01/31 16:06:16.1	103.140	-0.290	0.260	1.630
2020/01/31 16:06:16.2	103.160	-0.260	0.220	1.500
2020/01/31 16:06:16.3	103.180	-0.220	0.180	1.370
2020/01/31 16:06:16.4	103.200	-0.180	0.130	1.240
2020/01/31 16:06:16.5	103.220	-0.140	0.080	1.100
2020/01/31 16:06:16.6	103.240	-0.100	0.030	0.970
2020/01/31 16:06:16.7	103.250	-0.050	-0.030	0.850
2020/01/31 16:06:16.8	103.260	-0.010	-0.090	0.720
2020/01/31 16:06:16.9	103.270	0.040	-0.140	0.600
2020/01/31 16:06:17.0	103.280	0.080	-0.200	0.470
2020/01/31 16:06:17.1	103.280	0.130	-0.260	0.350
2020/01/31 16:06:17.2	103.280	0.170	-0.310	0.240
2020/01/31 16:06:17.3	103.280	0.210	-0.370	0.120
2020/01/31 16:06:17.4	103.280	0.250	-0.420	0.010
2020/01/31 16:06:17.5	103.280	0.290	-0.460	-0.090
2020/01/31 16:06:17.6	103.270	0.320	-0.510	-0.200
2020/01/31 16:06:17.7	103.250	0.350	-0.540	-0.300
2020/01/31 16:06:17.8	103.240	0.380	-0.580	-0.390
2020/01/31 16:06:17.9	103.230	0.400	-0.610	-0.490
2020/01/31 16:06:18.0	103.220	0.420	-0.630	-0.580
2020/01/31 16:06:18.1	103.200	0.430	-0.640	-0.660
2020/01/31 16:06:18.2	103.180	0.440	-0.650	-0.740
2020/01/31 16:06:18.3	103.160	0.450	-0.650	-0.820
2020/01/31 16:06:18.4	103.140	0.450	-0.650	-0.890
2020/01/31 16:06:18.5	103.120	0.450	-0.640	-0.960
2020/01/31 16:06:18.6	103.100	0.440	-0.620	-1.030
2020/01/31 16:06:18.7	103.080	0.430	-0.600	-1.090
2020/01/31 16:06:18.8	103.060	0.410	-0.570	-1.150
2020/01/31 16:06:18.9	103.030	0.390	-0.540	-1.200
2020/01/31 16:06:19.0	103.010	0.370	-0.500	-1.250
2020/01/31 16:06:19.1	102.980	0.340	-0.460	-1.300
2020/01/31 16:06:19.2	102.960	0.310	-0.420	-1.340
2020/01/31 16:06:19.3	102.930	0.280	-0.370	-1.380
2020/01/31 16:06:19.4	102.900	0.250	-0.320	-1.420
2020/01/31 16:06:19.5	102.880	0.220	-0.270	-1.450
2020/01/31 16:06:19.6	102.850	0.180	-0.210	-1.480
2020/01/31 16:06:19.7	102.830	0.140	-0.160	-1.500
2020/01/31 16:06:19.8	102.810	0.110	-0.110	-1.520
2020/01/31 16:06:19.9	102.780	0.070	-0.050	-1.540
2020/01/31 16:06:20.0	102.760	0.030	-0.000	-1.560
2020/01/31 16:06:20.1	102.740	-0.000	0.040	-1.580
2020/01/31 16:06:20.2	102.720	-0.040	0.090	-1.590
2020/01/31 16:06:20.3	102.710	-0.070	0.130	-1.600
2020/01/31 16:06:20.4	102.690	-0.100	0.170	-1.610
2020/01/31 16:06:20.5	102.680	-0.130	0.200	-1.620
2020/01/31 16:06:20.6	102.670	-0.160	0.230	-1.630
2020/01/31 16:06:20.7	102.680	-0.180	0.260	-1.640
2020/01/31 16:06:20.8	102.670	-0.200	0.280	-1.640
2020/01/31 16:06:20.9	102.670	-0.210	0.300	-1.650
2020/01/31 16:06:21.0	102.660	-0.230	0.310	-1.650
2020/01/31 16:06:21.1	102.660	-0.240	0.310	-1.660
2020/01/31 16:06:21.2	102.660	-0.240	0.310	-1.660
2020/01/31 16:06:21.3	102.660	-0.250	0.300	-1.660
2020/01/31 16:06:21.4	102.670	-0.250	0.290	-1.660
2020/01/31 16:06:21.5	102.670	-0.240	0.270	-1.650
2020/01/31 16:06:21.6	102.680	-0.230	0.250	-1.650
2020/01/31 16:06:21.7	102.690	-0.220	0.220	-1.640
2020/01/31 16:06:21.8	102.700	-0.210	0.180	-1.640
2020/01/31 16:06:21.9	102.710	-0.190	0.150	-1.630
2020/01/31 16:06:22.0	102.710	-0.170	0.110	-1.610
2020/01/31 16:06:22.1	102.720	-0.150	0.070	-1.600
2020/01/31 16:06:22.2	102.730	-0.130	0.020	-1.580
2020/01/31 16:06:22.3	102.740	-0.100	-0.030	-1.560
2020/01/31 16:06:22.4	102.750	-0.070	-0.080	-1.540
2020/01/31 16:06:22.5	102.760	-0.050	-0.120	-1.510
2020/01/31 16:06:22.6	102.770	-0.020	-0.170	-1.480
2020/01/31 16:06:22.7	102.780	0.010	-0.220	-1.440
2020/01/31 16:06:22.8	102.790	0.050	-0.270	-1.400
2020/01/31 16:06:22.9	102.800	0.080	-0.320	-1.360
2020/01/31 16:06:23.0	102.820	0.110	-0.370	-1.320
2020/01/31 16:06:23.1	102.830	0.140	-0.410	-1.270
2020/01/31 16:06:23.2	102.840	0.170	-0.450	-1.210
2020/01/31 16:06:23.3	102.860	0.190	-0.490	-1.150
2020/01/31 16:06:23.4	102.870	0.220	-0.520	-1.090
2020/01/31 16:06:23.5	102.890	0.250	-0.560	-1.030
2020/01/31 16:06:23.6	102.910	0.270	-0.580	-0.960
2020/01/31 16:06:23.7	102.920	0.290	-0.610	-0.880
2020/01/31 16:06:23.8	102.940	0.310	-0.630	-0.810
2020/01/31 16:06:23.9	102.960	0.330	-0.640	-0.730
2020/01/31 16:06:24.0	102.980	0.340	-0.650	-0.650
2020/01/31 16:06:24.1	103.010	0.350	-0.660	-0.560
2020/01/31 16:06:24.2	103.030	0.360	-0.660	-0.470
2020/01/31 16:06:24.3	103.060	0.370	-0.650	-0.380
2020/01/31 16:06:24.4	103.080	0.370	-0.650	-0.290
2020/01/31 16:06:24.5	103.110	0.370	-0.630	-0.200
2020/01/31 16:06:24.6	103.140	0.370	-0.620	-0.100
2020/01/31 16:06:24.7	103.170	0.370	-0.600	-0.000
2020/01/31 16:06:24.8	103.190	0.370	-0.580	0.090
2020/01/31 16:06:24.9	103.220	0.360	-0.550	0.190
2020/01/31 16:06:25.0	103.250	0.350	-0.520	0.290
2020/01/31 16:06:25.1	103.280	0.350	-0.490	0.390
2020/01/31 16:06:25.2	103.310	0.330	-0.460	0.490
2020/01/31 16:06:25.3	103.340	0.320	-0.430	0.590
2020/01/31 16:06:25.4	103.360	0.310	-0.390	0.680
2020/01/31 16:06:25.5	103.390	0.300	-0.360	0.780
2020/01/31 16:06:25.6	103.410	0.280	-0.320	0.880
2020/01/31 16:06:25.7	103.440	0.270	-0.280	0.980
2020/01/31 16:06:25.8	103.460	0.250	-0.240	1.070
2020/01/31 16:06:25.9	103.480	0.230	-0.210	1.170
2020/01/31 16:06:26.0	103.500	0.220	-0.170	1.260
2020/01/31 16:06:26.1	103.510	0.200	-0.130	1.350
2020/01/31 16:06:26.2	103.530	0.180	-0.090	1.440
2020/01/31 16:06:26.3	103.540	0.170	-0.050	1.530
2020/01/31 16:06:26.4	103.550	0.150	-0.020	1.620
2020/01/31 16:06:26.5	103.560	0.130	0.020	1.700
2020/01/31 16:06:26.6	103.560	0.110	0.060	1.780
2020/01/31 16:06:26.7	103.570	0.100	0.090	1.860
2020/01/31 16:06:26.8	103.570	0.080	0.130	1.930
2020/01/31 16:06:26.9	103.570	0.060	0.160	2.000
2020/01/31 16:06:27.0	103.570	0.040	0.200	2.070
2020/01/31 16:06:27.1	103.570	0.030	0.230	2.130
2020/01/31 16:06:27.2	103.560	0.010	0.260	2.190
2020/01/31 16:06:27.3	103.550	-0.010	0.290	2.250
2020/01/31 16:06:27.4	103.540	-0.030	0.320	2.310
2020/01/31 16:06:27.5	103.530	-0.040	0.340	2.360
2020/01/31 16:06:27.6	103.510	-0.060	0.360	2.410
2020/01/31 16:06:27.7	103.490	-0.070	0.390	2.450
2020/01/31 16:06:27.8	103.470	-0.090	0.410	2.500
2020/01/31 16:06:27.9	103.450	-0.100	0.420	2.540
2020/01/31 16:06:28.0	103.430	-0.120	0.440	2.570
2020/01/31 16:06:28.1	103.400	-0.130	0.450	2.610
2020/01/31 16:06:28.2	103.380	-0.140	0.450	2.640
2020/01/31 16:06:28.3	103.350	-0.160	0.460	2.670
2020/01/31 16:06:28.4	103.330	-0.170	0.460	2.690
2020/01/31 16:06:28.5	103.300	-0.180	0.450	2.710
2020/01/31 16:06:28.6	103.270	-0.190	0.440	2.730
2020/01/31 16:06:28.7	103.240	-0.190	0.430	2.740
2020/01/31 16:06:28.8	103.210	-0.200	0.410	2.750
2020/01/31 16:06:28.9	103.190	-0.200	0.380	2.760
2020/01/31 16:06:29.0	103.160	-0.210	0.360	2.760
2020/01/31 16:06:29.1	103.130	-0.210	0.330	2.750
2020/01/31 16:06:29.2	103.110	-0.210	0.290	2.740
2020/01/31 16:06:29.3	103.090	-0.210	0.250	2.730
2020/01/31 16:06:29.4	103.070	-0.210	0.200	2.710
2020/01/31 16:06:29.5	103.050	-0.210	0.150	2.690
2020/01/31 16:06:29.6	103.030	-0.200	0.100	2.660
2020/01/31 16:06:29.7	103.010	-0.200	0.040	2.630
2020/01/31 16:06:29.8	103.000	-0.190	-0.020	2.580
2020/01/31 16:06:29.9	102.990	-0.180	-0.090	2.540
2020/01/31 16:06:30.0	102.980	-0.170	-0.150	2.490
2020/01/31 16:06:30.1	102.970	-0.160	-0.220	2.430
2020/01/31 16:06:30.2	102.970	-0.150	-0.290	2.370
2020/01/31 16:06:30.3	102.960	-0.140	-0.360	2.310
2020/01/31 16:06:30.4	102.960	-0.130	-0.420	2.240
2020/01/31 16:06:30.5	102.960	-0.120	-0.490	2.160
2020/01/31 16:06:30.6	102.960	-0.110	-0.560	2.090
2020/01/31 16:06:30.7	102.960	-0.110	-0.620	2.000
2020/01/31 16:06:30.8	102.970	-0.100	-0.690	1.910
2020/01/31 16:06:30.9	102.970	-0.090	-0.740	1.820
2020/01/31 16:06:31.0	102.980	-0.080	-0.790	1.730
2020/01/31 16:06:31.1	102.990	-0.080	-0.840	1.630
2020/01/31 16:06:31.2	103.000	-0.080	-0.880	1.530
2020/01/31 16:06:31.3	103.010	-0.070	-0.920	1.430
2020/01/31 16:06:31.4	103.020	-0.070	-0.950	1.330
2020/01/31 16:06:31.5	103.030	-0.080	-0.970	1.220
2020/01/31 16:06:31.6	103.040	-0.080	-0.980	1.110
2020/01/31 16:06:31.7	103.050	-0.080	-0.990	1.010
2020/01/31 16:06:31.8	103.060	-0.090	-0.990	0.890
2020/01/31 16:06:31.9	103.080	-0.100	-0.980	0.780
2020/01/31 16:06:32.0	103.090	-0.110	-0.960	0.670
2020/01/31 16:06:32.1	103.110	-0.120	-0.940	0.560
2020/01/31 16:06:32.2	103.130	-0.140	-0.910	0.440
2020/01/31 16:06:32.3	103.140	-0.150	-0.870	0.330
2020/01/31 16:06:32.4	103.160	-0.170	-0.830	0.220
2020/01/31 16:06:32.5	103.170	-0.190	-0.780	0.110
2020/01/31 16:06:32.6	103.190	-0.200	-0.730	0.000
2020/01/31 16:06:32.7	103.190	-0.220	-0.660	-0.110
2020/01/31 16:06:32.8	103.210	-0.240	-0.600	-0.210
2020/01/31 16:06:32.9	103.220	-0.260	-0.540	-0.310
2020/01/31 16:06:33.0	103.240	-0.280	-0.470	-0.420
2020/01/31 16:06:33.1	103.250	-0.300	-0.410	-0.520
2020/01/31 16:06:33.2	103.270	-0.310	-0.340	-0.610
2020/01/31 16:06:33.3	103.280	-0.330	-0.280	-0.710
2020/01/31 16:06:33.4	103.290	-0.350	-0.210	-0.800
2020/01/31 16:06:33.5	103.310	-0.360	-0.150	-0.880
2020/01/31 16:06:33.6	103.320	-0.370	-0.090	-0.970
2020/01/31 16:06:33.7	103.330	-0.380	-0.030	-1.050
2020/01/31 16:06:33.8	103.340	-0.390	0.020	-1.130
2020/01/31 16:06:33.9	103.350	-0.400	0.070	-1.200
2020/01/31 16:06:34.0	103.370	-0.400	0.110	-1.270
2020/01/31 16:06:34.1	103.380	-0.400	0.150	-1.340
2020/01/31 16:06:34.2	103.390	-0.400	0.190	-1.400
2020/01/31 16:06:34.3	103.410	-0.390	0.220	-1.470
2020/01/31 16:06:34.4	103.420	-0.380	0.240	-1.520
2020/01/31 16:06:34.5	103.440	-0.370	0.260	-1.570
2020/01/31 16:06:34.6	103.460	-0.360	0.280	-1.620
2020/01/31 16:06:34.7	103.470	-0.340	0.290	-1.670
2020/01/31 16:06:34.8	103.490	-0.320	0.290	-1.710
2020/01/31 16:06:34.9	103.510	-0.300	0.300	-1.740
2020/01/31 16:06:35.0	103.530	-0.280	0.290	-1.770
2020/01/31 16:06:35.1	103.550	-0.250	0.290	-1.800
2020/01/31 16:06:35.2	103.570	-0.220	0.270	-1.820
2020/01/31 16:06:35.3	103.590	-0.190	0.260	-1.840
2020/01/31 16:06:35.4	103.600	-0.150	0.240	-1.850
2020/01/31 16:06:35.5	103.620	-0.120	0.220	-1.860
2020/01/31 16:06:35.6	103.640	-0.080	0.200	-1.860
2020/01/31 16:06:35.7	103.670	-0.040	0.170	-1.850
2020/01/31 16:06:35.8	103.680	-0.000	0.150	-1.840
2020/01/31 16:06:35.9	103.690	0.040	0.120	-1.830
2020/01/31 16:06:36.0	103.700	0.080	0.090	-1.800
2020/01/31 16:06:36.1	103.710	0.120	0.060	-1.780
2020/01/31 16:06:36.2	103.720	0.160	0.030	-1.750
2020/01/31 16:06:36.3	103.730	0.200	-0.000	-1.710
2020/01/31 16:06:36.4	103.730	0.240	-0.030	-1.670
2020/01/31 16:06:36.5	103.730	0.280	-0.060	-1.620
2020/01/31 16:06:36.6	103.730	0.320	-0.090	-1.570
2020/01/31 16:06:36.7	103.720	0.350	-0.120	-1.510
2020/01/31 16:06:36.8	103.710	0.390	-0.150	-1.450
2020/01/31 16:06:36.9	103.700	0.420	-0.170	-1.390
2020/01/31 16:06:37.0	103.690	0.450	-0.200	-1.330
2020/01/31 16:06:37.1	103.680	0.480	-0.220	-1.260
2020/01/31 16:06:37.2	103.670	0.500	-0.240	-1.200
2020/01/31 16:06:37.3	103.650	0.530	-0.260	-1.130
2020/01/31 16:06:37.4	103.630	0.550	-0.270	-1.060
2020/01/31 16:06:37.5	103.610	0.560	-0.280	-0.990
2020/01/31 16:06:37.6	103.600	0.580	-0.290	-0.910
2020/01/31 16:06:37.7	103.580	0.590	-0.300	-0.840
2020/01/31 16:06:37.8	103.560	0.590	-0.310	-0.770
2020/01/31 16:06:37.9	103.540	0.600	-0.310	-0.690
2020/01/31 16:06:38.0	103.520	0.600	-0.310	-0.620
2020/01/31 16:06:38.1	103.500	0.600	-0.310	-0.550
2020/01/31 16:06:38.2	103.480	0.590	-0.300	-0.470
2020/01/31 16:06:38.3	103.470	0.580	-0.290	-0.400
2020/01/31 16:06:38.4	103.450	0.570	-0.280	-0.320
2020/01/31 16:06:38.5	103.430	0.560	-0.270	-0.250
2020/01/31 16:06:38.6	103.420	0.540	-0.250	-0.180
2020/01/31 16:06:38.7	103.390	0.530	-0.230	-0.110
2020/01/31 16:06:38.8	103.380	0.510	-0.210	-0.030
2020/01/31 16:06:38.9	103.360	0.480	-0.190	0.040
2020/01/31 16:06:39.0	103.350	0.460	-0.170	0.100
2020/01/31 16:06:39.1	103.340	0.440	-0.150	0.170
2020/01/31 16:06:39.2	103.340	0.410	-0.120	0.240
2020/01/31 16:06:39.3	103.330	0.390	-0.100	0.310
2020/01/31 16:06:39.4	103.330	0.360	-0.070	0.370
2020/01/31 16:06:39.5	103.320	0.330	-0.050	0.440
2020/01/31 16:06:39.6	103.320	0.310	-0.030	0.500
2020/01/31 16:06:39.7	103.330	0.280	-0.000	0.570
2020/01/31 16:06:39.8	103.330	0.250	0.020	0.630
2020/01/31 16:06:39.9	103.330	0.230	0.040	0.690
2020/01/31 16:06:40.0	103.340	0.210	0.060	0.750
2020/01/31 16:06:40.1	103.350	0.180	0.080	0.820
2020/01/31 16:06:40.2	103.360	0.160	0.090	0.880
2020/01/31 16:06:40.3	103.370	0.140	0.100	0.940
2020/01/31 16:06:40.4	103.380	0.120	0.110	1.000
2020/01/31 16:06:40.5	103.390	0.100	0.120	1.050
2020/01/31 16:06:40.6	103.400	0.090	0.120	1.110
2020/01/31 16:06:40.7	103.410	0.070	0.120	1.170
2020/01/31 16:06:40.8	103.430	0.060	0.110	1.230
2020/01/31 16:06:40.9	103.440	0.050	0.110	1.280
2020/01/31 16:06:41.0	103.460	0.040	0.100	1.330
2020/01/31 16:06:41.1	103.480	0.040	0.080	1.390
2020/01/31 16:06:41.2	103.500	0.030	0.060	1.440
2020/01/31 16:06:41.3	103.520	0.030	0.040	1.480
2020/01/31 16:06:41.4	103.540	0.030	0.020	1.530
2020/01/31 16:06:41.5	103.560	0.030	-0.010	1.580
2020/01/31 16:06:41.6	103.580	0.030	-0.050	1.620
2020/01/31 16:06:41.7	103.600	0.040	-0.080	1.670
2020/01/31 16:06:41.8	103.620	0.040	-0.120	1.710
2020/01/31 16:06:41.9	103.650	0.040	-0.160	1.740
2020/01/31 16:06:42.0	103.670	0.050	-0.200	1.780
2020/01/31 16:06:42.1	103.690	0.060	-0.240	1.820
2020/01/31 16:06:42.2	103.710	0.060	-0.290	1.850
2020/01/31 16:06:42.3	103.730	0.070	-0.330	1.880
2020/01/31 16:06:42.4	103.750	0.070	-0.380	1.910
2020/01/31 16:06:42.5	103.770	0.080	-0.420	1.940
2020/01/31 16:06:42.6	103.780	0.080	-0.470	1.960
2020/01/31 16:06:42.7	103.800	0.090	-0.510	1.990
2020/01/31 16:06:42.8	103.820	0.090	-0.550	2.010
2020/01/31 16:06:42.9	103.830	0.090	-0.590	2.030
2020/01/31 16:06:43.0	103.840	0.090	-0.630	2.060
2020/01/31 16:06:43.1	103.850	0.090	-0.660	2.080
2020/01/31 16:06:43.2	103.860	0.080	-0.690	2.100
2020/01/31 16:06:43.3	103.870	0.080	-0.710	2.120
2020/01/31 16:06:43.4	103.880	0.070	-0.730	2.140
2020/01/31 16:06:43.5	103.880	0.060	-0.740	2.160
2020/01/31 16:06:43.6	103.880	0.040	-0.750	2.180
2020/01/31 16:06:43.7	103.880	0.030	-0.740	2.200
2020/01/31 16:06:43.8	103.880	0.010	-0.740	2.210
2020/01/31 16:06:43.9	103.870	-0.010	-0.730	2.230
2020/01/31 16:06:44.0	103.870	-0.030	-0.710	2.250
2020/01/31 16:06:44.1	103.860	-0.050	-0.680	2.270
2020/01/31 16:06:44.2	103.860	-0.080	-0.650	2.280
2020/01/31 16:06:44.3	103.850	-0.100	-0.620	2.290
2020/01/31 16:06:44.4	103.840	-0.130	-0.570	2.310
2020/01/31 16:06:44.5	103.830	-0.160	-0.530	2.320
2020/01/31 16:06:44.6	103.820	-0.190	-0.480	2.320
2020/01/31 16:06:44.7	103.810	-0.220	-0.430	2.330
2020/01/31 16:06:44.8	103.800	-0.250	-0.370	2.330
2020/01/31 16:06:44.9	103.790	-0.280	-0.310	2.330
2020/01/31 16:06:45.0	103.780	-0.310	-0.250	2.320
2020/01/31 16:06:45.1	103.760	-0.340	-0.180	2.310
2020/01/31 16:06:45.2	103.750	-0.360	-0.120	2.300
2020/01/31 16:06:45.3	103.740	-0.390	-0.060	2.280
2020/01/31 16:06:45.4	103.730	-0.420	0.000	2.260
2020/01/31 16:06:45.5	103.710	-0.440	0.060	2.230
2020/01/31 16:06:45.6	103.700	-0.460	0.120	2.200
2020/01/31 16:06:45.7	103.690	-0.480	0.180	2.170
2020/01/31 16:06:45.8	103.680	-0.500	0.230	2.130
2020/01/31 16:06:45.9	103.670	-0.510	0.270	2.080
2020/01/31 16:06:46.0	103.660	-0.530	0.310	2.030
2020/01/31 16:06:46.1	103.650	-0.530	0.350	1.970
2020/01/31 16:06:46.2	103.640	-0.540	0.370	1.910
2020/01/31 16:06:46.3	103.640	-0.540	0.400	1.840
2020/01/31 16:06:46.4	103.630	-0.540	0.410	1.770
2020/01/31 16:06:46.5	103.630	-0.540	0.420	1.690
2020/01/31 16:06:46.6	103.620	-0.530	0.420	1.610
2020/01/31 16:06:46.7	103.620	-0.520	0.410	1.510
2020/01/31 16:06:46.8	103.630	-0.500	0.400	1.420
2020/01/31 16:06:46.9	103.630	-0.490	0.380	1.320
2020/01/31 16:06:47.0	103.640	-0.470	0.360	1.210
2020/01/31 16:06:47.1	103.650	-0.450	0.330	1.100
2020/01/31 16:06:47.2	103.660	-0.420	0.290	0.990
2020/01/31 16:06:47.3	103.670	-0.400	0.250	0.870
2020/01/31 16:06:47.4	103.690	-0.370	0.210	0.750
2020/01/31 16:06:47.5	103.710	-0.340	0.170	0.630
2020/01/31 16:06:47.6	103.730	-0.310	0.120	0.500
2020/01/31 16:06:47.7	103.740	-0.280	0.060	0.370
2020/01/31 16:06:47.8	103.760	-0.240	0.010	0.240
2020/01/31 16:06:47.9	103.790	-0.210	-0.040	0.110
2020/01/31 16:06:48.0	103.810	-0.180	-0.100	-0.020
2020/01/31 16:06:48.1	103.840	-0.150	-0.150	-0.160
2020/01/31 16:06:48.2	103.870	-0.120	-0.200	-0.290
2020/01/31 16:06:48.3	103.890	-0.080	-0.250	-0.420
2020/01/31 16:06:48.4	103.920	-0.060	-0.300	-0.540
2020/01/31 16:06:48.5	103.950	-0.030	-0.340	-0.670
2020/01/31 16:06:48.6	103.980	-0.000	-0.380	-0.790
2020/01/31 16:06:48.7	104.000	0.020	-0.420	-0.910
2020/01/31 16:06:48.8	104.030	0.040	-0.450	-1.030
2020/01/31 16:06:48.9	104.050	0.060	-0.470	-1.140
2020/01/31 16:06:49.0	104.080	0.080	-0.490	-1.250
2020/01/31 16:06:49.1	104.100	0.100	-0.510	-1.350
2020/01/31 16:06:49.2	104.120	0.110	-0.510	-1.450
2020/01/31 16:06:49.3	104.140	0.120	-0.520	-1.540
2020/01/31 16:06:49.4	104.150	0.120	-0.510	-1.630
2020/01/31 16:06:49.5	104.170	0.130	-0.500	-1.710
2020/01/31 16:06:49.6	104.180	0.130	-0.490	-1.790
2020/01/31 16:06:49.7	104.190	0.130	-0.470	-1.860
2020/01/31 16:06:49.8	104.200	0.120	-0.450	-1.930
2020/01/31 16:06:49.9	104.200	0.120	-0.420	-1.980
2020/01/31 16:06:50.0	104.200	0.110	-0.390	-2.040
2020/01/31 16:06:50.1	104.200	0.100	-0.350	-2.080
2020/01/31 16:06:50.2	104.190	0.090	-0.310	-2.120
2020/01/31 16:06:50.3	104.180	0.080	-0.270	-2.150
2020/01/31 16:06:50.4	104.170	0.070	-0.230	-2.180
2020/01/31 16:06:50.5	104.160	0.050	-0.190	-2.200
2020/01/31 16:06:50.6	104.140	0.040	-0.150	-2.210
2020/01/31 16:06:50.7	104.120	0.030	-0.100	-2.220
2020/01/31 16:06:50.8	104.100	0.020	-0.060	-2.220
2020/01/31 16:06:50.9	104.080	0.000	-0.020	-2.220
2020/01/31 16:06:51.0	104.060	-0.010	0.010	-2.210
2020/01/31 16:06:51.1	104.040	-0.020	0.040	-2.190
2020/01/31 16:06:51.2	104.020	-0.030	0.070	-2.170
2020/01/31 16:06:51.3	104.000	-0.040	0.100	-2.140
2020/01/31 16:06:51.4	103.970	-0.050	0.120	-2.110
2020/01/31 16:06:51.5	103.950	-0.050	0.140	-2.070
2020/01/31 16:06:51.6	103.930	-0.050	0.150	-2.030
2020/01/31 16:06:51.7	103.910	-0.050	0.160	-1.980
2020/01/31 16:06:51.8	103.890	-0.050	0.170	-1.920
2020/01/31 16:06:51.9	103.870	-0.050	0.160	-1.870
2020/01/31 16:06:52.0	103.850	-0.040	0.160	-1.810
2020/01/31 16:06:52.1	103.830	-0.040	0.150	-1.740
2020/01/31 16:06:52.2	103.810	-0.020	0.130	-1.670
2020/01/31 16:06:52.3	103.790	-0.010	0.110	-1.600
2020/01/31 16:06:52.4	103.770	0.000	0.090	-1.530
2020/01/31 16:06:52.5	103.760	0.020	0.060	-1.450
2020/01/31 16:06:52.6	103.740	0.040	0.020	-1.370
2020/01/31 16:06:52.7	103.730	0.060	-0.010	-1.290
2020/01/31 16:06:52.8	103.720	0.090	-0.050	-1.210
2020/01/31 16:06:52.9	103.710	0.110	-0.100	-1.130
2020/01/31 16:06:53.0	103.700	0.140	-0.140	-1.050
2020/01/31 16:06:53.1	103.690	0.170	-0.190	-0.960
2020/01/31 16:06:53.2	103.680	0.200	-0.240	-0.880
2020/01/31 16:06:53.3	103.680	0.230	-0.290	-0.800
2020/01/31 16:06:53.4	103.670	0.260	-0.340	-0.710
2020/01/31 16:06:53.5	103.670	0.290	-0.390	-0.630
2020/01/31 16:06:53.6	103.670	0.330	-0.450	-0.550
2020/01/31 16:06:53.7	103.670	0.360	-0.500	-0.460
2020/01/31 16:06:53.8	103.680	0.390	-0.550	-0.380
2020/01/31 16:06:53.9	103.680	0.420	-0.610	-0.300
2020/01/31 16:06:54.0	103.690	0.450	-0.660	-0.210
2020/01/31 16:06:54.1	103.700	0.470	-0.700	-0.130
2020/01/31 16:06:54.2	103.710	0.500	-0.750	-0.040
2020/01/31 16:06:54.3	103.720	0.520	-0.790	0.040
2020/01/31 16:06:54.4	103.740	0.550	-0.820	0.130
2020/01/31 16:06:54.5	103.750	0.560	-0.860	0.210
2020/01/31 16:06:54.6	103.760	0.580	-0.880	0.300
2020/01/31 16:06:54.7	103.790	0.590	-0.900	0.390
2020/01/31 16:06:54.8	103.800	0.600	-0.920	0.480
2020/01/31 16:06:54.9	103.810	0.610	-0.930	0.570
2020/01/31 16:06:55.0	103.830	0.610	-0.930	0.670
2020/01/31 16:06:55.1	103.840	0.600	-0.930	0.760
2020/01/31 16:06:55.2	103.860	0.600	-0.910	0.850
2020/01/31 16:06:55.3	103.870	0.590	-0.900	0.940
2020/01/31 16:06:55.4	103.880	0.570	-0.870	1.040
2020/01/31 16:06:55.5	103.900	0.560	-0.840	1.130
2020/01/31 16:06:55.6	103.910	0.540	-0.790	1.220
2020/01/31 16:06:55.7	103.930	0.510	-0.750	1.310
2020/01/31 16:06:55.8	103.940	0.480	-0.690	1.400
2020/01/31 16:06:55.9	103.950	0.450	-0.630	1.490
2020/01/31 16:06:56.0	103.970	0.420	-0.560	1.570
2020/01/31 16:06:56.1	103.980	0.380	-0.490	1.650
2020/01/31 16:06:56.2	104.000	0.340	-0.410	1.730
2020/01/31 16:06:56.3	104.010	0.300	-0.330	1.800
2020/01/31 16:06:56.4	104.030	0.250	-0.250	1.870
2020/01/31 16:06:56.5	104.050	0.210	-0.160	1.940
2020/01/31 16:06:56.6	104.060	0.160	-0.070	2.010
2020/01/31 16:06:56.7	104.080	0.110	0.020	2.070
2020/01/31 16:06:56.8	104.100	0.060	0.120	2.120
2020/01/31 16:06:56.9	104.110	0.010	0.210	2.180
2020/01/31 16:06:57.0	104.130	-0.030	0.300	2.230
2020/01/31 16:06:57.1	104.150	-0.080	0.390	2.280
2020/01/31 16:06:57.2	104.160	-0.130	0.480	2.320
2020/01/31 16:06:57.3	104.180	-0.170	0.560	2.360
2020/01/31 16:06:57.4	104.190	-0.220	0.640	2.400
2020/01/31 16:06:57.5	104.210	-0.260	0.710	2.430
2020/01/31 16:06:57.6	104.220	-0.300	0.780	2.460
2020/01/31 16:06:57.7	104.230	-0.340	0.850	2.480
2020/01/31 16:06:57.8	104.240	-0.370	0.900	2.500
2020/01/31 16:06:57.9	104.250	-0.400	0.950	2.520
2020/01/31 16:06:58.0	104.260	-0.430	0.990	2.530
2020/01/31 16:06:58.1	104.270	-0.460	1.020	2.540
2020/01/31 16:06:58.2	104.270	-0.480	1.050	2.540
2020/01/31 16:06:58.3	104.280	-0.500	1.060	2.550
2020/01/31 16:06:58.4	104.280	-0.520	1.070	2.540
2020/01/31 16:06:58.5	104.280	-0.530	1.070	2.540
2020/01/31 16:06:58.6	104.280	-0.540	1.050	2.520
2020/01/31 16:06:58.7	104.290	-0.550	1.030	2.510
2020/01/31 16:06:58.8	104.290	-0.550	1.000	2.490
2020/01/31 16:06:58.9	104.290	-0.550	0.970	2.470
2020/01/31 16:06:59.0	104.290	-0.550	0.920	2.450
2020/01/31 16:06:59.1	104.280	-0.550	0.870	2.420
2020/01/31 16:06:59.2	104.280	-0.540	0.810	2.390
2020/01/31 16:06:59.3	104.270	-0.530	0.740	2.350
2020/01/31 16:06:59.4	104.270	-0.510	0.660	2.310
2020/01/31 16:06:59.5	104.260	-0.490	0.590	2.270
2020/01/31 16:06:59.6	104.250	-0.480	0.500	2.220
2020/01/31 16:06:59.7	104.250	-0.450	0.410	2.170
2020/01/31 16:06:59.8	104.240	-0.430	0.320	2.120
2020/01/31 16:06:59.9	104.230	-0.410	0.230	2.070
2020/01/31 16:07:00.0	104.220	-0.380	0.130	2.020
2020/01/31 16:07:00.1	104.220	-0.360	0.030	1.960
2020/01/31 16:07:00.2	104.210	-0.330	-0.060	1.900
2020/01/31 16:07:00.3	104.200	-0.300	-0.160	1.840
2020/01/31 16:07:00.4	104.190	-0.270	-0.250	1.770
2020/01/31 16:07:00.5	104.180	-0.250	-0.350	1.710
2020/01/31 16:07:00.6	104.170	-0.220	-0.440	1.640
2020/01/31 16:07:00.7	104.150	-0.190	-0.520	1.570
2020/01/31 16:07:00.8	104.140	-0.160	-0.610	1.500
2020/01/31 16:07:00.9	104.140	-0.140	-0.690	1.430
2020/01/31 16:07:01.0	104.130	-0.110	-0.760	1.350
2020/01/31 16:07:01.1	104.120	-0.090	-0.830	1.280
2020/01/31 16:07:01.2	104.110	-0.070	-0.900	1.200
2020/01/31 16:07:01.3	104.100	-0.040	-0.950	1.120
2020/01/31 16:07:01.4	104.090	-0.020	-1.010	1.040
2020/01/31 16:07:01.5	104.080	-0.000	-1.050	0.960
2020/01/31 16:07:01.6	104.070	0.020	-1.090	0.870
2020/01/31 16:07:01.7	104.070	0.030	-1.130	0.790
2020/01/31 16:07:01.8	104.060	0.050	-1.150	0.700
2020/01/31 16:07:01.9	104.060	0.060	-1.180	0.610
2020/01/31 16:07:02.0	104.050	0.080	-1.190	0.530
2020/01/31 16:07:02.1	104.040	0.090	-1.200	0.440
2020/01/31 16:07:02.2	104.040	0.100	-1.210	0.350
2020/01/31 16:07:02.3	104.030	0.110	-1.210	0.260
2020/01/31 16:07:02.4	104.030	0.120	-1.210	0.180
2020/01/31 16:07:02.5	104.020	0.130	-1.200	0.090
2020/01/31 16:07:02.6	104.020	0.140	-1.190	0.010
2020/01/31 16:07:02.7	104.020	0.140	-1.170	-0.080
2020/01/31 16:07:02.8	104.010	0.150	-1.150	-0.160
2020/01/31 16:07:02.9	104.010	0.160	-1.130	-0.240
2020/01/31 16:07:03.0	104.010	0.160	-1.100	-0.320
2020/01/31 16:07:03.1	104.010	0.170	-1.080	-0.400
2020/01/31 16:07:03.2	104.010	0.170	-1.040	-0.470
2020/01/31 16:07:03.3	104.010	0.180	-1.010	-0.540
2020/01/31 16:07:03.4	104.020	0.180	-0.970	-0.610
2020/01/31 16:07:03.5	104.020	0.180	-0.930	-0.680
2020/01/31 16:07:03.6	104.030	0.180	-0.890	-0.740
2020/01/31 16:07:03.7	104.040	0.190	-0.850	-0.800
2020/01/31 16:07:03.8	104.040	0.190	-0.810	-0.860
2020/01/31 16:07:03.9	104.050	0.190	-0.760	-0.920
2020/01/31 16:07:04.0	104.070	0.190	-0.710	-0.970
2020/01/31 16:07:04.1	104.080	0.190	-0.670	-1.030
2020/01/31 16:07:04.2	104.090	0.190	-0.620	-1.070
2020/01/31 16:07:04.3	104.110	0.180	-0.570	-1.120
2020/01/31 16:07:04.4	104.120	0.180	-0.510	-1.160
2020/01/31 16:07:04.5	104.140	0.180	-0.460	-1.200
2020/01/31 16:07:04.6	104.160	0.170	-0.410	-1.240
2020/01/31 16:07:04.7	104.170	0.170	-0.350	-1.280
2020/01/31 16:07:04.8	104.190	0.160	-0.300	-1.310
2020/01/31 16:07:04.9	104.210	0.150	-0.240	-1.340
2020/01/31 16:07:05.0	104.230	0.140	-0.190	-1.360
2020/01/31 16:07:05.1	104.240	0.130	-0.130	-1.380
2020/01/31 16:07:05.2	104.260	0.120	-0.080	-1.400
2020/01/31 16:07:05.3	104.280	0.110	-0.020	-1.420
2020/01/31 16:07:05.4	104.290	0.100	0.030	-1.430
2020/01/31 16:07:05.5	104.310	0.080	0.090	-1.440
2020/01/31 16:07:05.6	104.320	0.070	0.140	-1.440
2020/01/31 16:07:05.7	104.330	0.050	0.190	-1.440
2020/01/31 16:07:05.8	104.340	0.040	0.240	-1.440
2020/01/31 16:07:05.9	104.350	0.020	0.290	-1.430
2020/01/31 16:07:06.0	104.350	0.000	0.340	-1.420
2020/01/31 16:07:06.1	104.350	-0.020	0.390	-1.400
2020/01/31 16:07:06.2	104.360	-0.040	0.430	-1.390
2020/01/31 16:07:06.3	104.360	-0.060	0.470	-1.360
2020/01/31 16:07:06.4	104.360	-0.080	0.510	-1.340
2020/01/31 16:07:06.5	104.350	-0.100	0.540	-1.310
2020/01/31 16:07:06.6	104.350	-0.120	0.580	-1.280
2020/01/31 16:07:06.7	104.330	-0.140	0.610	-1.240
2020/01/31 16:07:06.8	104.330	-0.150	0.630	-1.200
2020/01/31 16:07:06.9	104.320	-0.170	0.660	-1.160
2020/01/31 16:07:07.0	104.310	-0.190	0.680	-1.110
2020/01/31 16:07:07.1	104.310	-0.210	0.690	-1.070
2020/01/31 16:07:07.2	104.300	-0.220	0.710	-1.020
2020/01/31 16:07:07.3	104.290	-0.240	0.720	-0.960
2020/01/31 16:07:07.4	104.280	-0.250	0.720	-0.910
2020/01/31 16:07:07.5	104.270	-0.260	0.730	-0.850
2020/01/31 16:07:07.6	104.260	-0.270	0.730	-0.780
2020/01/31 16:07:07.7	104.240	-0.280	0.720	-0.720
2020/01/31 16:07:07.8	104.230	-0.290	0.710	-0.650
2020/01/31 16:07:07.9	104.220	-0.290	0.700	-0.580
2020/01/31 16:07:08.0	104.210	-0.290	0.690	-0.510
2020/01/31 16:07:08.1	104.200	-0.290	0.670	-0.430
2020/01/31 16:07:08.2	104.190	-0.290	0.650	-0.360
2020/01/31 16:07:08.3	104.180	-0.280	0.620	-0.280
2020/01/31 16:07:08.4	104.170	-0.270	0.590	-0.210
2020/01/31 16:07:08.5	104.160	-0.260	0.560	-0.130
2020/01/31 16:07:08.6	104.150	-0.240	0.520	-0.050
2020/01/31 16:07:08.7	104.130	-0.230	0.480	0.030
2020/01/31 16:07:08.8	104.120	-0.210	0.430	0.110
2020/01/31 16:07:08.9	104.120	-0.180	0.390	0.190
2020/01/31 16:07:09.0	104.110	-0.160	0.330	0.270
2020/01/31 16:07:09.1	104.110	-0.130	0.280	0.340
2020/01/31 16:07:09.2	104.100	-0.100	0.220	0.420
2020/01/31 16:07:09.3	104.100	-0.070	0.150	0.490
2020/01/31 16:07:09.4	104.100	-0.040	0.090	0.560
2020/01/31 16:07:09.5	104.100	-0.000	0.020	0.620
2020/01/31 16:07:09.6	104.100	0.040	-0.050	0.690
2020/01/31 16:07:09.7	104.110	0.070	-0.120	0.750
2020/01/31 16:07:09.8	104.120	0.110	-0.200	0.810
2020/01/31 16:07:09.9	104.120	0.150	-0.270	0.870
2020/01/31 16:07:10.0	104.130	0.190	-0.340	0.920
2020/01/31 16:07:10.1	104.150	0.230	-0.420	0.970
2020/01/31 16:07:10.2	104.160	0.270	-0.490	1.010
2020/01/31 16:07:10.3	104.170	0.300	-0.560	1.060
2020/01/31 16:07:10.4	104.190	0.340	-0.630	1.100
2020/01/31 16:07:10.5	104.210	0.370	-0.690	1.140
2020/01/31 16:07:10.6	104.220	0.410	-0.760	1.170
2020/01/31 16:07:10.7	104.250	0.440	-0.820	1.210
2020/01/31 16:07:10.8	104.260	0.470	-0.870	1.240
2020/01/31 16:07:10.9	104.280	0.490	-0.920	1.270
2020/01/31 16:07:11.0	104.290	0.520	-0.960	1.300
2020/01/31 16:07:11.1	104.310	0.540	-1.000	1.320
2020/01/31 16:07:11.2	104.320	0.550	-1.040	1.350
2020/01/31 16:07:11.3	104.340	0.570	-1.060	1.380
2020/01/31 16:07:11.4	104.350	0.580	-1.080	1.400
2020/01/31 16:07:11.5	104.360	0.580	-1.090	1.420
2020/01/31 16:07:11.6	104.370	0.590	-1.100	1.450
2020/01/31 16:07:11.7	104.370	0.590	-1.100	1.470
2020/01/31 16:07:11.8	104.380	0.580	-1.090	1.490
2020/01/31 16:07:11.9	104.390	0.570	-1.080	1.510
2020/01/31 16:07:12.0	104.390	0.560	-1.050	1.530
2020/01/31 16:07:12.1	104.400	0.540	-1.020	1.550
2020/01/31 16:07:12.2	104.410	0.520	-0.980	1.560
2020/01/31 16:07:12.3	104.410	0.500	-0.940	1.580
2020/01/31 16:07:12.4	104.420	0.470	-0.890	1.600
2020/01/31 16:07:12.5	104.430	0.440	-0.830	1.620
2020/01/31 16:07:12.6	104.430	0.410	-0.770	1.640
2020/01/31 16:07:12.7	104.450	0.370	-0.690	1.660
2020/01/31 16:07:12.8	104.450	0.340	-0.620	1.680
2020/01/31 16:07:12.9	104.460	0.290	-0.540	1.690
2020/01/31 16:07:13.0	104.470	0.250	-0.460	1.710
2020/01/31 16:07:13.1	104.480	0.210	-0.380	1.730
2020/01/31 16:07:13.2	104.490	0.160	-0.300	1.750
2020/01/31 16:07:13.3	104.500	0.120	-0.210	1.770
2020/01/31 16:07:13.4	104.510	0.070	-0.130	1.790
2020/01/31 16:07:13.5	104.520	0.020	-0.050	1.810
2020/01/31 16:07:13.6	104.530	-0.020	0.030	1.820
2020/01/31 16:07:13.7	104.550	-0.070	0.110	1.840
2020/01/31 16:07:13.8	104.560	-0.110	0.190	1.860
2020/01/31 16:07:13.9	104.570	-0.160	0.260	1.880
2020/01/31 16:07:14.0	104.580	-0.200	0.320	1.900
2020/01/31 16:07:14.1	104.580	-0.240	0.380	1.920
2020/01/31 16:07:14.2	104.590	-0.280	0.430	1.940
2020/01/31 16:07:14.3	104.590	-0.310	0.470	1.960
2020/01/31 16:07:14.4	104.600	-0.350	0.510	1.980
2020/01/31 16:07:14.5	104.590	-0.380	0.540	2.000
2020/01/31 16:07:14.6	104.590	-0.400	0.560	2.010
2020/01/31 16:07:14.7	104.580	-0.430	0.570	2.030
2020/01/31 16:07:14.8	104.570	-0.450	0.570	2.040
2020/01/31 16:07:14.9	104.560	-0.470	0.570	2.050
2020/01/31 16:07:15.0	104.550	-0.480	0.550	2.060
2020/01/31 16:07:15.1	104.530	-0.490	0.530	2.070
2020/01/31 16:07:15.2	104.510	-0.500	0.500	2.070
2020/01/31 16:07:15.3	104.490	-0.500	0.460	2.070
2020/01/31 16:07:15.4	104.470	-0.500	0.420	2.070
2020/01/31 16:07:15.5	104.450	-0.500	0.370	2.060
2020/01/31 16:07:15.6	104.430	-0.490	0.310	2.040
2020/01/31 16:07:15.7	104.400	-0.490	0.250	2.030
2020/01/31 16:07:15.8	104.380	-0.480	0.180	2.000
2020/01/31 16:07:15.9	104.350	-0.470	0.120	1.970
2020/01/31 16:07:16.0	104.330	-0.450	0.050	1.940
2020/01/31 16:07:16.1	104.310	-0.440	-0.020	1.900
2020/01/31 16:07:16.2	104.290	-0.420	-0.090	1.860
2020/01/31 16:07:16.3	104.280	-0.400	-0.160	1.810
2020/01/31 16:07:16.4	104.260	-0.380	-0.230	1.750
2020/01/31 16:07:16.5	104.250	-0.360	-0.290	1.690
2020/01/31 16:07:16.6	104.240	-0.340	-0.360	1.630
2020/01/31 16:07:16.7	104.230	-0.320	-0.420	1.560
2020/01/31 16:07:16.8	104.220	-0.300	-0.470	1.490
2020/01/31 16:07:16.9	104.220	-0.280	-0.520	1.410
2020/01/31 16:07:17.0	104.220	-0.260	-0.560	1.340
2020/01/31 16:07:17.1	104.230	-0.240	-0.600	1.260
2020/01/31 16:07:17.2	104.230	-0.220	-0.640	1.180
2020/01/31 16:07:17.3	104.240	-0.210	-0.670	1.090
2020/01/31 16:07:17.4	104.250	-0.190	-0.690	1.010
2020/01/31 16:07:17.5	104.270	-0.170	-0.700	0.920
2020/01/31 16:07:17.6	104.280	-0.150	-0.720	0.830
2020/01/31 16:07:17.7	104.300	-0.140	-0.720	0.750
2020/01/31 16:07:17.8	104.320	-0.120	-0.720	0.660
2020/01/31 16:07:17.9	104.340	-0.110	-0.720	0.570
2020/01/31 16:07:18.0	104.360	-0.090	-0.710	0.480
2020/01/31 16:07:18.1	104.380	-0.080	-0.690	0.400
2020/01/31 16:07:18.2	104.400	-0.070	-0.670	0.310
2020/01/31 16:07:18.3	104.420	-0.060	-0.650	0.220
2020/01/31 16:07:18.4	104.440	-0.040	-0.620	0.140
2020/01/31 16:07:18.5	104.460	-0.030	-0.590	0.060
2020/01/31 16:07:18.6	104.480	-0.020	-0.560	-0.020
2020/01/31 16:07:18.7	104.500	-0.010	-0.520	-0.110
2020/01/31 16:07:18.8	104.520	-0.000	-0.490	-0.180
2020/01/31 16:07:18.9	104.540	0.000	-0.450	-0.260
2020/01/31 16:07:19.0	104.560	0.010	-0.410	-0.340
2020/01/31 16:07:19.1	104.580	0.020	-0.360	-0.410
2020/01/31 16:07:19.2	104.600	0.030	-0.320	-0.490
2020/01/31 16:07:19.3	104.620	0.040	-0.270	-0.560
2020/01/31 16:07:19.4	104.630	0.040	-0.230	-0.630
2020/01/31 16:07:19.5	104.650	0.050	-0.180	-0.700
2020/01/31 16:07:19.6	104.670	0.060	-0.140	-0.770
2020/01/31 16:07:19.7	104.670	0.060	-0.090	-0.830
2020/01/31 16:07:19.8	104.690	0.070	-0.040	-0.900
2020/01/31 16:07:19.9	104.700	0.070	0.000	-0.960
2020/01/31 16:07:20.0	104.720	0.080	0.040	-1.020
2020/01/31 16:07:20.1	104.730	0.080	0.090	-1.080
2020/01/31 16:07:20.2	104.740	0.090	0.130	-1.140
2020/01/31 16:07:20.3	104.750	0.100	0.170	-1.200
2020/01/31 16:07:20.4	104.760	0.100	0.210	-1.260
2020/01/31 16:07:20.5	104.770	0.110	0.240	-1.310
2020/01/31 16:07:20.6	104.770	0.110	0.280	-1.360
2020/01/31 16:07:20.7	104.780	0.120	0.310	-1.410
2020/01/31 16:07:20.8	104.790	0.120	0.330	-1.460
2020/01/31 16:07:20.9	104.790	0.130	0.360	-1.500
2020/01/31 16:07:21.0	104.790	0.140	0.380	-1.540
2020/01/31 16:07:21.1	104.790	0.140	0.390	-1.580
2020/01/31 16:07:21.2	104.790	0.150	0.400	-1.610
2020/01/31 16:07:21.3	104.790	0.150	0.410	-1.630
2020/01/31 16:07:21.4	104.780	0.160	0.410	-1.660
2020/01/31 16:07:21.5	104.780	0.170	0.410	-1.670
2020/01/31 16:07:21.6	104.770	0.180	0.400	-1.680
2020/01/31 16:07:21.7	104.760	0.180	0.390	-1.690
2020/01/31 16:07:21.8	104.750	0.190	0.370	-1.690
2020/01/31 16:07:21.9	104.740	0.200	0.340	-1.690
2020/01/31 16:07:22.0	104.720	0.210	0.320	-1.680
2020/01/31 16:07:22.1	104.710	0.220	0.290	-1.660
2020/01/31 16:07:22.2	104.700	0.220	0.250	-1.640
2020/01/31 16:07:22.3	104.680	0.230	0.210	-1.610
2020/01/31 16:07:22.4	104.670	0.240	0.160	-1.580
2020/01/31 16:07:22.5	104.650	0.250	0.120	-1.550
2020/01/31 16:07:22.6	104.630	0.250	0.070	-1.500
2020/01/31 16:07:22.7	104.620	0.260	0.020	-1.460
2020/01/31 16:07:22.8	104.600	0.270	-0.040	-1.410
2020/01/31 16:07:22.9	104.590	0.270	-0.090	-1.350
2020/01/31 16:07:23.0	104.580	0.270	-0.140	-1.300
2020/01/31 16:07:23.1	104.560	0.280	-0.200	-1.230
2020/01/31 16:07:23.2	104.550	0.280	-0.250	-1.170
2020/01/31 16:07:23.3	104.540	0.280	-0.300	-1.100
2020/01/31 16:07:23.4	104.540	0.280	-0.360	-1.030
2020/01/31 16:07:23.5	104.530	0.280	-0.410	-0.960
2020/01/31 16:07:23.6	104.520	0.280	-0.460	-0.880
2020/01/31 16:07:23.7	104.520	0.280	-0.500	-0.800
2020/01/31 16:07:23.8	104.510	0.280	-0.540	-0.720
2020/01/31 16:07:23.9	104.520	0.270	-0.580	-0.640
2020/01/31 16:07:24.0	104.520	0.260	-0.620	-0.560
2020/01/31 16:07:24.1	104.520	0.260	-0.650	-0.480
2020/01/31 16:07:24.2	104.530	0.250	-0.670	-0.400
2020/01/31 16:07:24.3	104.540	0.240	-0.700	-0.310
2020/01/31 16:07:24.4	104.550	0.230	-0.710	-0.230
2020/01/31 16:07:24.5	104.560	0.210	-0.730	-0.150
2020/01/31 16:07:24.6	104.580	0.200	-0.740	-0.060
2020/01/31 16:07:24.7	104.600	0.180	-0.740	0.020
2020/01/31 16:07:24.8	104.620	0.170	-0.740	0.100
2020/01/31 16:07:24.9	104.640	0.150	-0.740	0.190
2020/01/31 16:07:25.0	104.660	0.130	-0.730	0.270
2020/01/31 16:07:25.1	104.680	0.110	-0.720	0.360
2020/01/31 16:07:25.2	104.700	0.090	-0.700	0.440
2020/01/31 16:07:25.3	104.730	0.070	-0.680	0.530
2020/01/31 16:07:25.4	104.750	0.050	-0.660	0.620
2020/01/31 16:07:25.5	104.770	0.030	-0.630	0.700
2020/01/31 16:07:25.6	104.790	0.010	-0.600	0.790
2020/01/31 16:07:25.7	104.820	-0.010	-0.570	0.880
2020/01/31 16:07:25.8	104.840	-0.030	-0.540	0.960
2020/01/31 16:07:25.9	104.860	-0.050	-0.510	1.050
2020/01/31 16:07:26.0	104.880	-0.070	-0.470	1.130
2020/01/31 16:07:26.1	104.900	-0.090	-0.440	1.220
2020/01/31 16:07:26.2	104.920	-0.100	-0.410	1.300
2020/01/31 16:07:26.3	104.930	-0.120	-0.380	1.390
2020/01/31 16:07:26.4	104.950	-0.130	-0.340	1.470
2020/01/31 16:07:26.5	104.970	-0.150	-0.310	1.550
2020/01/31 16:07:26.6	104.980	-0.160	-0.280	1.630
2020/01/31 16:07:26.7	105.000	-0.170	-0.250	1.710
2020/01/31 16:07:26.8	105.010	-0.180	-0.220	1.790
2020/01/31 16:07:26.9	105.020	-0.190	-0.190	1.870
2020/01/31 16:07:27.0	105.030	-0.200	-0.160	1.940
2020/01/31 16:07:27.1	105.040	-0.210	-0.140	2.010
2020/01/31 16:07:27.2	105.040	-0.210	-0.110	2.090
2020/01/31 16:07:27.3	105.050	-0.220	-0.080	2.150
2020/01/31 16:07:27.4	105.050	-0.220	-0.060	2.220
2020/01/31 16:07:27.5	105.050	-0.220	-0.030	2.290
2020/01/31 16:07:27.6	105.050	-0.220	-0.010	2.350
2020/01/31 16:07:27.7	105.060	-0.220	0.020	2.420
2020/01/31 16:07:27.8	105.050	-0.230	0.050	2.480
2020/01/31 16:07:27.9	105.050	-0.230	0.070	2.540
2020/01/31 16:07:28.0	105.040	-0.230	0.100	2.590
2020/01/31 16:07:28.1	105.030	-0.230	0.120	2.650
2020/01/31 16:07:28.2	105.020	-0.230	0.140	2.700
2020/01/31 16:07:28.3	105.010	-0.230	0.170	2.740
2020/01/31 16:07:28.4	104.990	-0.230	0.190	2.790
2020/01/31 16:07:28.5	104.980	-0.230	0.210	2.830
2020/01/31 16:07:28.6	104.970	-0.230	0.230	2.860
2020/01/31 16:07:28.7	104.950	-0.230	0.250	2.890
2020/01/31 16:07:28.8	104.940	-0.230	0.260	2.920
2020/01/31 16:07:28.9	104.920	-0.230	0.270	2.950
2020/01/31 16:07:29.0	104.910	-0.230	0.290	2.960
2020/01/31 16:07:29.1	104.900	-0.230	0.290	2.980
2020/01/31 16:07:29.2	104.880	-0.230	0.300	2.980
2020/01/31 16:07:29.3	104.870	-0.230	0.300	2.990
2020/01/31 16:07:29.4	104.860	-0.230	0.300	2.980
2020/01/31 16:07:29.5	104.850	-0.230	0.290	2.970
2020/01/31 16:07:29.6	104.840	-0.230	0.280	2.950
2020/01/31 16:07:29.7	104.830	-0.230	0.270	2.930
2020/01/31 16:07:29.8	104.830	-0.220	0.260	2.900
2020/01/31 16:07:29.9	104.820	-0.220	0.240	2.860
2020/01/31 16:07:30.0	104.820	-0.210	0.220	2.810
2020/01/31 16:07:30.1	104.820	-0.210	0.190	2.760
2020/01/31 16:07:30.2	104.820	-0.200	0.170	2.700
2020/01/31 16:07:30.3	104.820	-0.190	0.140	2.630
2020/01/31 16:07:30.4	104.820	-0.180	0.100	2.560
2020/01/31 16:07:30.5	104.830	-0.170	0.070	2.470
2020/01/31 16:07:30.6	104.830	-0.150	0.030	2.390
2020/01/31 16:07:30.7	104.840	-0.140	-0.000	2.290
2020/01/31 16:07:30.8	104.850	-0.130	-0.040	2.190
2020/01/31 16:07:30.9	104.860	-0.110	-0.080	2.080
2020/01/31 16:07:31.0	104.870	-0.090	-0.120	1.970
2020/01/31 16:07:31.1	104.880	-0.080	-0.160	1.860
2020/01/31 16:07:31.2	104.890	-0.060	-0.190	1.740
2020/01/31 16:07:31.3	104.900	-0.040	-0.230	1.610
2020/01/31 16:07:31.4	104.910	-0.020	-0.260	1.490
2020/01/31 16:07:31.5	104.920	-0.000	-0.290	1.360
2020/01/31 16:07:31.6	104.930	0.020	-0.320	1.230
2020/01/31 16:07:31.7	104.940	0.030	-0.350	1.090
2020/01/31 16:07:31.8	104.960	0.050	-0.370	0.960
2020/01/31 16:07:31.9	104.970	0.070	-0.390	0.820
2020/01/31 16:07:32.0	104.980	0.090	-0.400	0.680
2020/01/31 16:07:32.1	105.000	0.100	-0.420	0.550
2020/01/31 16:07:32.2	105.010	0.110	-0.420	0.410
2020/01/31 16:07:32.3	105.020	0.130	-0.430	0.270
2020/01/31 16:07:32.4	105.040	0.140	-0.430	0.130
2020/01/31 16:07:32.5	105.050	0.150	-0.430	-0.000
2020/01/31 16:07:32.6	105.070	0.160	-0.420	-0.140
2020/01/31 16:07:32.7	105.080	0.160	-0.410	-0.280
2020/01/31 16:07:32.8	105.090	0.170	-0.400	-0.410
2020/01/31 16:07:32.9	105.110	0.170	-0.390	-0.540
2020/01/31 16:07:33.0	105.120	0.170	-0.370	-0.670
2020/01/31 16:07:33.1	105.140	0.170	-0.350	-0.790
2020/01/31 16:07:33.2	105.160	0.170	-0.340	-0.920
2020/01/31 16:07:33.3	105.170	0.170	-0.320	-1.040
2020/01/31 16:07:33.4	105.190	0.170	-0.300	-1.150
2020/01/31 16:07:33.5	105.200	0.160	-0.280	-1.260
2020/01/31 16:07:33.6	105.220	0.160	-0.260	-1.370
2020/01/31 16:07:33.7	105.230	0.150	-0.240	-1.480
2020/01/31 16:07:33.8	105.250	0.140	-0.220	-1.580
2020/01/31 16:07:33.9	105.260	0.130	-0.210	-1.670
2020/01/31 16:07:34.0	105.280	0.120	-0.190	-1.760
2020/01/31 16:07:34.1	105.300	0.110	-0.180	-1.840
2020/01/31 16:07:34.2	105.310	0.100	-0.170	-1.920
2020/01/31 16:07:34.3	105.330	0.090	-0.170	-1.990
2020/01/31 16:07:34.4	105.340	0.080	-0.160	-2.050
2020/01/31 16:07:34.5	105.350	0.080	-0.160	-2.110
2020/01/31 16:07:34.6	105.360	0.070	-0.170	-2.150
2020/01/31 16:07:34.7	105.370	0.060	-0.170	-2.190
2020/01/31 16:07:34.8	105.380	0.050	-0.180	-2.230
2020/01/31 16:07:34.9	105.380	0.050	-0.190	-2.250
2020/01/31 16:07:35.0	105.380	0.040	-0.200	-2.270
2020/01/31 16:07:35.1	105.390	0.040	-0.220	-2.280
2020/01/31 16:07:35.2	105.390	0.030	-0.230	-2.280
2020/01/31 16:07:35.3	105.390	0.030	-0.250	-2.270
2020/01/31 16:07:35.4	105.380	0.030	-0.260	-2.260
2020/01/31 16:07:35.5	105.380	0.020	-0.280	-2.240
2020/01/31 16:07:35.6	105.370	0.020	-0.300	-2.210
2020/01/31 16:07:35.7	105.360	0.020	-0.310	-2.180
2020/01/31 16:07:35.8	105.360	0.020	-0.320	-2.140
2020/01/31 16:07:35.9	105.350	0.020	-0.340	-2.090
2020/01/31 16:07:36.0	105.340	0.020	-0.340	-2.040
2020/01/31 16:07:36.1	105.340	0.020	-0.350	-1.990
2020/01/31 16:07:36.2	105.330	0.020	-0.350	-1.930
2020/01/31 16:07:36.3	105.320	0.020	-0.350	-1.870
2020/01/31 16:07:36.4	105.320	0.020	-0.350	-1.800
2020/01/31 16:07:36.5	105.310	0.020	-0.350	-1.730
2020/01/31 16:07:36.6	105.300	0.020	-0.340	-1.660
2020/01/31 16:07:36.7	105.290	0.020	-0.330	-1.580
2020/01/31 16:07:36.8	105.280	0.020	-0.320	-1.500
2020/01/31 16:07:36.9	105.280	0.010	-0.300	-1.410
2020/01/31 16:07:37.0	105.270	0.010	-0.280	-1.320
2020/01/31 16:07:37.1	105.260	0.010	-0.270	-1.240
2020/01/31 16:07:37.2	105.250	0.000	-0.250	-1.140
2020/01/31 16:07:37.3	105.250	-0.000	-0.230	-1.050
2020/01/31 16:07:37.4	105.240	-0.010	-0.210	-0.950
2020/01/31 16:07:37.5	105.240	-0.010	-0.190	-0.850
2020/01/31 16:07:37.6	105.230	-0.020	-0.160	-0.740
2020/01/31 16:07:37.7	105.220	-0.020	-0.140	-0.640
2020/01/31 16:07:37.8	105.220	-0.030	-0.120	-0.530
2020/01/31 16:07:37.9	105.220	-0.030	-0.100	-0.420
2020/01/31 16:07:38.0	105.210	-0.040	-0.080	-0.310
2020/01/31 16:07:38.1	105.210	-0.040	-0.070	-0.200
2020/01/31 16:07:38.2	105.210	-0.050	-0.050	-0.080
2020/01/31 16:07:38.3	105.210	-0.050	-0.040	0.030
2020/01/31 16:07:38.4	105.210	-0.050	-0.030	0.150
2020/01/31 16:07:38.5	105.210	-0.050	-0.030	0.260
2020/01/31 16:07:38.6	105.220	-0.060	-0.020	0.370
2020/01/31 16:07:38.7	105.220	-0.060	-0.020	0.490
2020/01/31 16:07:38.8	105.230	-0.060	-0.030	0.600
2020/01/31 16:07:38.9	105.230	-0.050	-0.030	0.720
2020/01/31 16:07:39.0	105.240	-0.050	-0.040	0.830
2020/01/31 16:07:39.1	105.250	-0.050	-0.060	0.930
2020/01/31 16:07:39.2	105.250	-0.040	-0.070	1.040
2020/01/31 16:07:39.3	105.260	-0.040	-0.090	1.140
2020/01/31 16:07:39.4	105.270	-0.030	-0.110	1.240
2020/01/31 16:07:39.5	105.280	-0.020	-0.140	1.340
2020/01/31 16:07:39.6	105.290	-0.010	-0.160	1.440
2020/01/31 16:07:39.7	105.310	-0.000	-0.190	1.530
2020/01/31 16:07:39.8	105.330	0.010	-0.220	1.620
2020/01/31 16:07:39.9	105.340	0.020	-0.250	1.700
2020/01/31 16:07:40.0	105.350	0.030	-0.270	1.780
2020/01/31 16:07:40.1	105.370	0.040	-0.300	1.860
2020/01/31 16:07:40.2	105.380	0.050	-0.330	1.930
2020/01/31 16:07:40.3	105.400	0.060	-0.350	1.990
2020/01/31 16:07:40.4	105.420	0.080	-0.370	2.060
2020/01/31 16:07:40.5	105.430	0.090	-0.390	2.120
2020/01/31 16:07:40.6	105.450	0.090	-0.410	2.170
2020/01/31 16:07:40.7	105.480	0.100	-0.420	2.230
2020/01/31 16:07:40.8	105.490	0.110	-0.430	2.270
2020/01/31 16:07:40.9	105.510	0.120	-0.430	2.310
2020/01/31 16:07:41.0	105.530	0.120	-0.440	2.350
2020/01/31 16:07:41.1	105.550	0.130	-0.440	2.380
2020/01/31 16:07:41.2	105.570	0.130	-0.430	2.410
2020/01/31 16:07:41.3	105.590	0.130	-0.420	2.440
2020/01/31 16:07:41.4	105.610	0.130	-0.410	2.460
2020/01/31 16:07:41.5	105.630	0.130	-0.390	2.480
2020/01/31 16:07:41.6	105.650	0.130	-0.360	2.490
2020/01/31 16:07:41.7	105.670	0.120	-0.340	2.500
2020/01/31 16:07:41.8	105.690	0.120	-0.310	2.510
2020/01/31 16:07:41.9	105.710	0.110	-0.270	2.510
2020/01/31 16:07:42.0	105.720	0.100	-0.230	2.510
2020/01/31 16:07:42.1	105.740	0.090	-0.200	2.510
2020/01/31 16:07:42.2	105.750	0.080	-0.150	2.500
2020/01/31 16:07:42.3	105.770	0.060	-0.110	2.490
2020/01/31 16:07:42.4	105.780	0.050	-0.070	2.480
2020/01/31 16:07:42.5	105.790	0.030	-0.020	2.470
2020/01/31 16:07:42.6	105.800	0.020	0.030	2.450
2020/01/31 16:07:42.7	105.810	-0.000	0.070	2.430
2020/01/31 16:07:42.8	105.820	-0.020	0.120	2.410
2020/01/31 16:07:42.9	105.820	-0.040	0.160	2.380
2020/01/31 16:07:43.0	105.820	-0.060	0.200	2.350
2020/01/31 16:07:43.1	105.820	-0.080	0.240	2.320
2020/01/31 16:07:43.2	105.820	-0.100	0.280	2.290
2020/01/31 16:07:43.3	105.820	-0.120	0.320	2.250
2020/01/31 16:07:43.4	105.820	-0.140	0.350	2.210
2020/01/31 16:07:43.5	105.810	-0.150	0.380	2.170
2020/01/31 16:07:43.6	105.800	-0.170	0.400	2.130
2020/01/31 16:07:43.7	105.810	-0.190	0.430	2.080
2020/01/31 16:07:43.8	105.800	-0.200	0.440	2.030
2020/01/31 16:07:43.9	105.790	-0.220	0.460	1.980
2020/01/31 16:07:44.0	105.790	-0.230	0.460	1.920
2020/01/31 16:07:44.1	105.780	-0.240	0.460	1.860
2020/01/31 16:07:44.2	105.770	-0.250	0.460	1.800
2020/01/31 16:07:44.3	105.760	-0.260	0.450	1.740
2020/01/31 16:07:44.4	105.760	-0.270	0.440	1.670
2020/01/31 16:07:44.5	105.750	-0.270	0.420	1.600
2020/01/31 16:07:44.6	105.740	-0.270	0.390	1.530
2020/01/31 16:07:44.7	105.740	-0.270	0.360	1.450
2020/01/31 16:07:44.8	105.730	-0.270	0.330	1.380
2020/01/31 16:07:44.9	105.720	-0.270	0.290	1.300
2020/01/31 16:07:45.0	105.720	-0.260	0.250	1.220
2020/01/31 16:07:45.1	105.710	-0.260	0.210	1.140
2020/01/31 16:07:45.2	105.710	-0.250	0.160	1.050
2020/01/31 16:07:45.3	105.700	-0.240	0.110	0.970
2020/01/31 16:07:45.4	105.700	-0.220	0.050	0.880
2020/01/31 16:07:45.5	105.690	-0.210	-0.000	0.790
2020/01/31 16:07:45.6	105.690	-0.200	-0.060	0.700
2020/01/31 16:07:45.7	105.680	-0.180	-0.110	0.600
2020/01/31 16:07:45.8	105.680	-0.160	-0.170	0.510
2020/01/31 16:07:45.9	105.670	-0.150	-0.230	0.410
2020/01/31 16:07:46.0	105.670	-0.130	-0.280	0.310
2020/01/31 16:07:46.1	105.680	-0.110	-0.330	0.220
2020/01/31 16:07:46.2	105.680	-0.090	-0.390	0.120
2020/01/31 16:07:46.3	105.680	-0.070	-0.440	0.020
2020/01/31 16:07:46.4	105.690	-0.050	-0.480	-0.080
2020/01/31 16:07:46.5	105.690	-0.030	-0.530	-0.180
2020/01/31 16:07:46.6	105.700	-0.010	-0.570	-0.280
2020/01/31 16:07:46.7	105.690	0.010	-0.610	-0.390
2020/01/31 16:07:46.8	105.700	0.030	-0.650	-0.490
2020/01/31 16:07:46.9	105.710	0.050	-0.680	-0.590
2020/01/31 16:07:47.0	105.720	0.070	-0.710	-0.680
2020/01/31 16:07:47.1	105.730	0.090	-0.730	-0.780
2020/01/31 16:07:47.2	105.740	0.110	-0.760	-0.870
2020/01/31 16:07:47.3	105.750	0.120	-0.770	-0.960
2020/01/31 16:07:47.4	105.770	0.140	-0.790	-1.040
2020/01/31 16:07:47.5	105.780	0.150	-0.800	-1.120
2020/01/31 16:07:47.6	105.790	0.170	-0.810	-1.200
2020/01/31 16:07:47.7	105.800	0.180	-0.810	-1.270
2020/01/31 16:07:47.8	105.810	0.190	-0.820	-1.340
2020/01/31 16:07:47.9	105.830	0.200	-0.820	-1.400
2020/01/31 16:07:48.0	105.840	0.220	-0.810	-1.460
2020/01/31 16:07:48.1	105.850	0.220	-0.810	-1.520
2020/01/31 16:07:48.2	105.860	0.230	-0.800	-1.560
2020/01/31 16:07:48.3	105.880	0.240	-0.790	-1.610
2020/01/31 16:07:48.4	105.890	0.240	-0.780	-1.640
2020/01/31 16:07:48.5	105.900	0.250	-0.760	-1.670
2020/01/31 16:07:48.6	105.910	0.250	-0.740	-1.700
2020/01/31 16:07:48.7	105.920	0.250	-0.720	-1.720
2020/01/31 16:07:48.8	105.930	0.250	-0.700	-1.730
2020/01/31 16:07:48.9	105.940	0.250	-0.670	-1.740
2020/01/31 16:07:49.0	105.960	0.250	-0.650	-1.740
2020/01/31 16:07:49.1	105.970	0.240	-0.620	-1.730
2020/01/31 16:07:49.2	105.980	0.240	-0.590	-1.730
2020/01/31 16:07:49.3	105.990	0.230	-0.550	-1.710
2020/01/31 16:07:49.4	106.000	0.220	-0.520	-1.690
2020/01/31 16:07:49.5	106.010	0.210	-0.480	-1.660
2020/01/31 16:07:49.6	106.020	0.200	-0.440	-1.630
2020/01/31 16:07:49.7	106.020	0.190	-0.390	-1.590
2020/01/31 16:07:49.8	106.030	0.170	-0.350	-1.550
2020/01/31 16:07:49.9	106.030	0.160	-0.300	-1.500
2020/01/31 16:07:50.0	106.040	0.140	-0.250	-1.450
2020/01/31 16:07:50.1	106.040	0.120	-0.200	-1.400
2020/01/31 16:07:50.2	106.050	0.100	-0.150	-1.340
2020/01/31 16:07:50.3	106.050	0.080	-0.100	-1.280
2020/01/31 16:07:50.4	106.060	0.060	-0.050	-1.210
2020/01/31 16:07:50.5	106.060	0.040	0.010	-1.140
2020/01/31 16:07:50.6	106.070	0.020	0.060	-1.070
2020/01/31 16:07:50.7	106.070	-0.000	0.110	-1.000
2020/01/31 16:07:50.8	106.080	-0.030	0.160	-0.930
2020/01/31 16:07:50.9	106.080	-0.050	0.210	-0.850
2020/01/31 16:07:51.0	106.080	-0.080	0.260	-0.770
2020/01/31 16:07:51.1	106.090	-0.100	0.310	-0.690
2020/01/31 16:07:51.2	106.090	-0.120	0.350	-0.620
2020/01/31 16:07:51.3	106.090	-0.150	0.400	-0.530
2020/01/31 16:07:51.4	106.100	-0.170	0.440	-0.450
2020/01/31 16:07:51.5	106.100	-0.190	0.470	-0.370
2020/01/31 16:07:51.6	106.100	-0.220	0.500	-0.290
2020/01/31 16:07:51.7	106.110	-0.240	0.530	-0.200
2020/01/31 16:07:51.8	106.110	-0.260	0.560	-0.110
2020/01/31 16:07:51.9	106.110	-0.280	0.580	-0.030
2020/01/31 16:07:52.0	106.110	-0.290	0.590	0.060
2020/01/31 16:07:52.1	106.110	-0.310	0.600	0.140
2020/01/31 16:07:52.2	106.110	-0.330	0.610	0.230
2020/01/31 16:07:52.3	106.110	-0.340	0.610	0.320
2020/01/31 16:07:52.4	106.110	-0.350	0.600	0.410
2020/01/31 16:07:52.5	106.110	-0.360	0.590	0.500
2020/01/31 16:07:52.6	106.100	-0.370	0.580	0.590
2020/01/31 16:07:52.7	106.110	-0.370	0.560	0.680
2020/01/31 16:07:52.8	106.100	-0.380	0.530	0.770
2020/01/31 16:07:52.9	106.100	-0.380	0.500	0.850
2020/01/31 16:07:53.0	106.100	-0.380	0.470	0.940
2020/01/31 16:07:53.1	106.090	-0.370	0.430	1.030
2020/01/31 16:07:53.2	106.090	-0.370	0.380	1.110
2020/01/31 16:07:53.3	106.080	-0.360	0.340	1.190
2020/01/31 16:07:53.4	106.080	-0.350	0.290	1.270
2020/01/31 16:07:53.5	106.080	-0.340	0.230	1.350
2020/01/31 16:07:53.6	106.070	-0.330	0.170	1.420
2020/01/31 16:07:53.7	106.080	-0.310	0.110	1.500
2020/01/31 16:07:53.8	106.080	-0.300	0.050	1.560
2020/01/31 16:07:53.9	106.070	-0.280	-0.010	1.630
2020/01/31 16:07:54.0	106.070	-0.260	-0.080	1.690
2020/01/31 16:07:54.1	106.080	-0.240	-0.140	1.740
2020/01/31 16:07:54.2	106.080	-0.210	-0.210	1.790
2020/01/31 16:07:54.3	106.080	-0.190	-0.270	1.840
2020/01/31 16:07:54.4	106.090	-0.160	-0.340	1.880
2020/01/31 16:07:54.5	106.090	-0.140	-0.400	1.920
2020/01/31 16:07:54.6	106.100	-0.110	-0.460	1.950
2020/01/31 16:07:54.7	106.120	-0.080	-0.530	1.980
2020/01/31 16:07:54.8	106.130	-0.050	-0.580	2.000
2020/01/31 16:07:54.9	106.140	-0.020	-0.640	2.020
2020/01/31 16:07:55.0	106.150	0.010	-0.690	2.040
2020/01/31 16:07:55.1	106.160	0.040	-0.740	2.050
2020/01/31 16:07:55.2	106.180	0.070	-0.790	2.050
2020/01/31 16:07:55.3	106.190	0.100	-0.830	2.060
2020/01/31 16:07:55.4	106.200	0.120	-0.860	2.060
2020/01/31 16:07:55.5	106.220	0.150	-0.900	2.050
2020/01/31 16:07:55.6	106.230	0.180	-0.920	2.050
2020/01/31 16:07:55.7	106.250	0.210	-0.950	2.040
2020/01/31 16:07:55.8	106.270	0.240	-0.960	2.040
2020/01/31 16:07:55.9	106.280	0.260	-0.980	2.030
2020/01/31 16:07:56.0	106.290	0.290	-0.980	2.010
2020/01/31 16:07:56.1	106.300	0.310	-0.980	2.000
2020/01/31 16:07:56.2	106.310	0.340	-0.980	1.990
2020/01/31 16:07:56.3	106.310	0.360	-0.970	1.970
2020/01/31 16:07:56.4	106.310	0.370	-0.960	1.960
2020/01/31 16:07:56.5	106.320	0.390	-0.940	1.940
2020/01/31 16:07:56.6	106.320	0.410	-0.920	1.920
2020/01/31 16:07:56.7	106.320	0.420	-0.890	1.910
2020/01/31 16:07:56.8	106.320	0.430	-0.850	1.890
2020/01/31 16:07:56.9	106.320	0.440	-0.820	1.860
2020/01/31 16:07:57.0	106.310	0.450	-0.780	1.840
2020/01/31 16:07:57.1	106.300	0.450	-0.730	1.820
2020/01/31 16:07:57.2	106.290	0.460	-0.680	1.790
2020/01/31 16:07:57.3	106.280	0.460	-0.630	1.760
2020/01/31 16:07:57.4	106.270	0.460	-0.580	1.730
2020/01/31 16:07:57.5	106.260	0.450	-0.530	1.700
2020/01/31 16:07:57.6	106.250	0.450	-0.470	1.660
2020/01/31 16:07:57.7	106.250	0.440	-0.410	1.620
2020/01/31 16:07:57.8	106.240	0.430	-0.350	1.580
2020/01/31 16:07:57.9	106.230	0.420	-0.290	1.530
2020/01/31 16:07:58.0	106.220	0.400	-0.230	1.490
2020/01/31 16:07:58.1	106.220	0.390	-0.170	1.440
2020/01/31 16:07:58.2	106.210	0.370	-0.110	1.390
2020/01/31 16:07:58.3	106.210	0.350	-0.050	1.340
2020/01/31 16:07:58.4	106.200	0.330	0.000	1.280
2020/01/31 16:07:58.5	106.200	0.300	0.060	1.220
2020/01/31 16:07:58.6	106.210	0.280	0.110	1.160
2020/01/31 16:07:58.7	106.210	0.250	0.160	1.100
2020/01/31 16:07:58.8	106.210	0.230	0.210	1.040
2020/01/31 16:07:58.9	106.220	0.200	0.260	0.980
2020/01/31 16:07:59.0	106.220	0.170	0.310	0.910
2020/01/31 16:07:59.1	106.230	0.140	0.350	0.850
2020/01/31 16:07:59.2	106.240	0.110	0.390	0.780
2020/01/31 16:07:59.3	106.250	0.080	0.430	0.710
2020/01/31 16:07:59.4	106.270	0.050	0.470	0.640
2020/01/31 16:07:59.5	106.280	0.020	0.500	0.570
2020/01/31 16:07:59.6	106.290	-0.010	0.530	0.500
2020/01/31 16:07:59.7	106.310	-0.050	0.560	0.430
2020/01/31 16:07:59.8	106.320	-0.080	0.590	0.350
2020/01/31 16:07:59.9	106.340	-0.110	0.610	0.280
2020/01/31 16:08:00.0	106.360	-0.140	0.630	0.200
2020/01/31 16:08:00.1	106.380	-0.170	0.650	0.130
2020/01/31 16:08:00.2	106.400	-0.190	0.660	0.050
2020/01/31 16:08:00.3	106.420	-0.220	0.670	-0.020
2020/01/31 16:08:00.4	106.450	-0.250	0.670	-0.100
2020/01/31 16:08:00.5	106.470	-0.270	0.670	-0.170
2020/01/31 16:08:00.6	106.500	-0.300	0.670	-0.250
2020/01/31 16:08:00.7	106.520	-0.320	0.660	-0.320
2020/01/31 16:08:00.8	106.540	-0.340	0.650	-0.390
2020/01/31 16:08:00.9	106.570	-0.350	0.630	-0.460
2020/01/31 16:08:01.0	106.590	-0.370	0.610	-0.530
2020/01/31 16:08:01.1	106.620	-0.380	0.590	-0.600
2020/01/31 16:08:01.2	106.640	-0.390	0.560	-0.660
2020/01/31 16:08:01.3	106.660	-0.400	0.520	-0.720
2020/01/31 16:08:01.4	106.680	-0.410	0.490	-0.780
2020/01/31 16:08:01.5	106.700	-0.410	0.440	-0.830
2020/01/31 16:08:01.6	106.720	-0.420	0.400	-0.880
2020/01/31 16:08:01.7	106.730	-0.420	0.340	-0.930
2020/01/31 16:08:01.8	106.750	-0.420	0.290	-0.970
2020/01/31 16:08:01.9	106.760	-0.410	0.230	-1.000
2020/01/31 16:08:02.0	106.770	-0.410	0.170	-1.040
2020/01/31 16:08:02.1	106.780	-0.400	0.110	-1.060
2020/01/31 16:08:02.2	106.780	-0.390	0.050	-1.080
2020/01/31 16:08:02.3	106.790	-0.380	-0.020	-1.100
2020/01/31 16:08:02.4	106.790	-0.370	-0.090	-1.110
2020/01/31 16:08:02.5	106.790	-0.360	-0.150	-1.120
2020/01/31 16:08:02.6	106.790	-0.340	-0.220	-1.120
2020/01/31 16:08:02.7	106.770	-0.330	-0.290	-1.120
2020/01/31 16:08:02.8	106.760	-0.310	-0.350	-1.110
2020/01/31 16:08:02.9	106.750	-0.300	-0.420	-1.090
2020/01/31 16:08:03.0	106.740	-0.280	-0.480	-1.080
2020/01/31 16:08:03.1	106.730	-0.260	-0.540	-1.060
2020/01/31 16:08:03.2	106.720	-0.250	-0.600	-1.030
2020/01/31 16:08:03.3	106.700	-0.230	-0.650	-1.000
2020/01/31 16:08:03.4	106.680	-0.210	-0.710	-0.970
2020/01/31 16:08:03.5	106.660	-0.190	-0.750	-0.930
2020/01/31 16:08:03.6	106.640	-0.170	-0.800	-0.890
2020/01/31 16:08:03.7	106.610	-0.160	-0.840	-0.850
2020/01/31 16:08:03.8	106.590	-0.140	-0.880	-0.800
2020/01/31 16:08:03.9	106.570	-0.120	-0.910	-0.750
2020/01/31 16:08:04.0	106.540	-0.100	-0.940	-0.700
2020/01/31 16:08:04.1	106.520	-0.080	-0.970	-0.650
2020/01/31 16:08:04.2	106.500	-0.060	-0.990	-0.600
2020/01/31 16:08:04.3	106.470	-0.040	-1.010	-0.540
2020/01/31 16:08:04.4	106.450	-0.030	-1.020	-0.480
2020/01/31 16:08:04.5	106.430	-0.010	-1.030	-0.420
2020/01/31 16:08:04.6	106.400	0.010	-1.040	-0.360
2020/01/31 16:08:04.7	106.380	0.030	-1.040	-0.300
2020/01/31 16:08:04.8	106.360	0.050	-1.040	-0.240
2020/01/31 16:08:04.9	106.340	0.060	-1.040	-0.180
2020/01/31 16:08:05.0	106.330	0.080	-1.030	-0.120
2020/01/31 16:08:05.1	106.310	0.100	-1.010	-0.060
2020/01/31 16:08:05.2	106.300	0.110	-1.000	0.000
2020/01/31 16:08:05.3	106.290	0.130	-0.980	0.060
2020/01/31 16:08:05.4	106.280	0.140	-0.950	0.120
2020/01/31 16:08:05.5	106.270	0.160	-0.930	0.180
2020/01/31 16:08:05.6	106.270	0.170	-0.900	0.240
2020/01/31 16:08:05.7	106.270	0.190	-0.860	0.290
2020/01/31 16:08:05.8	106.270	0.200	-0.830	0.340
2020/01/31 16:08:05.9	106.270	0.210	-0.790	0.390
2020/01/31 16:08:06.0	106.280	0.220	-0.750	0.440
2020/01/31 16:08:06.1	106.290	0.230	-0.700	0.490
2020/01/31 16:08:06.2	106.300	0.240	-0.650	0.530
2020/01/31 16:08:06.3	106.310	0.240	-0.600	0.570
2020/01/31 16:08:06.4	106.330	0.250	-0.550	0.610
2020/01/31 16:08:06.5	106.350	0.250	-0.500	0.650
2020/01/31 16:08:06.6	106.370	0.250	-0.440	0.680
2020/01/31 16:08:06.7	106.390	0.260	-0.380	0.720
2020/01/31 16:08:06.8	106.420	0.250	-0.320	0.750
2020/01/31 16:08:06.9	106.440	0.250	-0.260	0.770
2020/01/31 16:08:07.0	106.470	0.250	-0.200	0.800
2020/01/31 16:08:07.1	106.500	0.240	-0.140	0.830
2020/01/31 16:08:07.2	106.530	0.230	-0.080	0.850
2020/01/31 16:08:07.3	106.550	0.220	-0.020	0.870
2020/01/31 16:08:07.4	106.580	0.210	0.040	0.890
2020/01/31 16:08:07.5	106.610	0.190	0.100	0.920
2020/01/31 16:08:07.6	106.640	0.180	0.160	0.940
2020/01/31 16:08:07.7	106.660	0.160	0.220	0.960
2020/01/31 16:08:07.8	106.690	0.150	0.270	0.980
2020/01/31 16:08:07.9	106.710	0.130	0.320	0.990
2020/01/31 16:08:08.0	106.730	0.110	0.370	1.010
2020/01/31 16:08:08.1	106.750	0.090	0.410	1.030
2020/01/31 16:08:08.2	106.760	0.070	0.460	1.050
2020/01/31 16:08:08.3	106.770	0.040	0.490	1.070
2020/01/31 16:08:08.4	106.780	0.020	0.530	1.090
2020/01/31 16:08:08.5	106.790	0.000	0.560	1.110
2020/01/31 16:08:08.6	106.790	-0.020	0.580	1.130
2020/01/31 16:08:08.7	106.790	-0.040	0.600	1.150
2020/01/31 16:08:08.8	106.790	-0.060	0.610	1.170
2020/01/31 16:08:08.9	106.790	-0.080	0.630	1.190
2020/01/31 16:08:09.0	106.780	-0.090	0.630	1.210
2020/01/31 16:08:09.1	106.770	-0.110	0.640	1.230
2020/01/31 16:08:09.2	106.760	-0.120	0.640	1.250
2020/01/31 16:08:09.3	106.750	-0.140	0.630	1.260
2020/01/31 16:08:09.4	106.740	-0.150	0.620	1.280
2020/01/31 16:08:09.5	106.720	-0.160	0.610	1.290
2020/01/31 16:08:09.6	106.710	-0.160	0.590	1.300
2020/01/31 16:08:09.7	106.690	-0.170	0.580	1.320
2020/01/31 16:08:09.8	106.680	-0.170	0.550	1.320
2020/01/31 16:08:09.9	106.660	-0.170	0.520	1.330
2020/01/31 16:08:10.0	106.650	-0.170	0.490	1.340
2020/01/31 16:08:10.1	106.630	-0.170	0.460	1.340
2020/01/31 16:08:10.2	106.620	-0.160	0.420	1.340
2020/01/31 16:08:10.3	106.610	-0.150	0.380	1.340
2020/01/31 16:08:10.4	106.600	-0.140	0.330	1.330
2020/01/31 16:08:10.5	106.600	-0.130	0.290	1.320
2020/01/31 16:08:10.6	106.590	-0.120	0.240	1.310
2020/01/31 16:08:10.7	106.590	-0.100	0.190	1.290
2020/01/31 16:08:10.8	106.590	-0.090	0.140	1.270
2020/01/31 16:08:10.9	106.590	-0.070	0.090	1.250
2020/01/31 16:08:11.0	106.600	-0.050	0.040	1.220
2020/01/31 16:08:11.1	106.610	-0.040	-0.010	1.190
2020/01/31 16:08:11.2	106.620	-0.020	-0.070	1.160
2020/01/31 16:08:11.3	106.640	0.000	-0.120	1.120
2020/01/31 16:08:11.4	106.650	0.020	-0.170	1.080
2020/01/31 16:08:11.5	106.670	0.040	-0.220	1.040
2020/01/31 16:08:11.6	106.700	0.050	-0.270	1.000
2020/01/31 16:08:11.7	106.720	0.070	-0.320	0.960
2020/01/31 16:08:11.8	106.750	0.080	-0.370	0.910
2020/01/31 16:08:11.9	106.770	0.090	-0.410	0.860
2020/01/31 16:08:12.0	106.800	0.110	-0.450	0.820
2020/01/31 16:08:12.1	106.830	0.110	-0.490	0.770
2020/01/31 16:08:12.2	106.850	0.120	-0.530	0.720
2020/01/31 16:08:12.3	106.880	0.130	-0.560	0.680
2020/01/31 16:08:12.4	106.910	0.130	-0.590	0.630
2020/01/31 16:08:12.5	106.940	0.130	-0.610	0.580
2020/01/31 16:08:12.6	106.960	0.130	-0.630	0.540
2020/01/31 16:08:12.7	106.990	0.130	-0.650	0.500
2020/01/31 16:08:12.8	107.010	0.130	-0.660	0.460
2020/01/31 16:08:12.9	107.030	0.120	-0.670	0.420
2020/01/31 16:08:13.0	107.060	0.110	-0.670	0.380
2020/01/31 16:08:13.1	107.070	0.100	-0.680	0.340
2020/01/31 16:08:13.2	107.090	0.090	-0.670	0.310
2020/01/31 16:08:13.3	107.110	0.080	-0.660	0.280
2020/01/31 16:08:13.4	107.120	0.070	-0.650	0.250
2020/01/31 16:08:13.5	107.140	0.050	-0.640	0.220
2020/01/31 16:08:13.6	107.150	0.040	-0.620	0.190
2020/01/31 16:08:13.7	107.160	0.020	-0.610	0.170
2020/01/31 16:08:13.8	107.170	0.010	-0.580	0.140
2020/01/31 16:08:13.9	107.170	-0.010	-0.560	0.120
2020/01/31 16:08:14.0	107.180	-0.020	-0.530	0.100
2020/01/31 16:08:14.1	107.180	-0.030	-0.500	0.080
2020/01/31 16:08:14.2	107.180	-0.050	-0.470	0.060
2020/01/31 16:08:14.3	107.180	-0.060	-0.450	0.050
2020/01/31 16:08:14.4	107.180	-0.070	-0.420	0.030
2020/01/31 16:08:14.5	107.170	-0.080	-0.390	0.010
2020/01/31 16:08:14.6	107.160	-0.090	-0.360	0.000
2020/01/31 16:08:14.7	107.160	-0.100	-0.330	-0.010
2020/01/31 16:08:14.8	107.150	-0.100	-0.310	-0.020
2020/01/31 16:08:14.9	107.130	-0.110	-0.280	-0.030
2020/01/31 16:08:15.0	107.120	-0.110	-0.260	-0.040
2020/01/31 16:08:15.1	107.100	-0.110	-0.250	-0.050
2020/01/31 16:08:15.2	107.090	-0.110	-0.230	-0.060
2020/01/31 16:08:15.3	107.070	-0.100	-0.220	-0.060
2020/01/31 16:08:15.4	107.050	-0.100	-0.200	-0.070
2020/01/31 16:08:15.5	107.030	-0.090	-0.190	-0.070
2020/01/31 16:08:15.6	107.010	-0.080	-0.190	-0.070
2020/01/31 16:08:15.7	106.990	-0.070	-0.180	-0.070
2020/01/31 16:08:15.8	106.970	-0.060	-0.180	-0.070
2020/01/31 16:08:15.9	106.950	-0.050	-0.170	-0.070
2020/01/31 16:08:16.0	106.930	-0.030	-0.170	-0.060
2020/01/31 16:08:16.1	106.910	-0.020	-0.170	-0.060
2020/01/31 16:08:16.2	106.900	-0.000	-0.160	-0.050
2020/01/31 16:08:16.3	106.880	0.010	-0.160	-0.050
2020/01/31 16:08:16.4	106.870	0.030	-0.160	-0.040
2020/01/31 16:08:16.5	106.860	0.050	-0.160	-0.030
2020/01/31 16:08:16.6	106.850	0.060	-0.160	-0.030
2020/01/31 16:08:16.7	106.840	0.080	-0.150	-0.010
2020/01/31 16:08:16.8	106.840	0.090	-0.150	-0.000
2020/01/31 16:08:16.9	106.840	0.110	-0.140	0.010
2020/01/31 16:08:17.0	106.840	0.120	-0.130	0.020
2020/01/31 16:08:17.1	106.840	0.140	-0.130	0.030
2020/01/31 16:08:17.2	106.850	0.150	-0.120	0.040
2020/01/31 16:08:17.3	106.860	0.160	-0.110	0.050
2020/01/31 16:08:17.4	106.860	0.170	-0.090	0.060
2020/01/31 16:08:17.5	106.870	0.180	-0.080	0.080
2020/01/31 16:08:17.6	106.890	0.180	-0.070	0.090
2020/01/31 16:08:17.7	106.900	0.190	-0.060	0.100
2020/01/31 16:08:17.8	106.910	0.190	-0.040	0.110
2020/01/31 16:08:17.9	106.920	0.190	-0.030	0.120
2020/01/31 16:08:18.0	106.940	0.190	-0.010	0.130
2020/01/31 16:08:18.1	106.950	0.190	0.000	0.140
2020/01/31 16:08:18.2	106.970	0.190	0.020	0.150
2020/01/31 16:08:18.3	106.980	0.180	0.030	0.160
2020/01/31 16:08:18.4	107.000	0.180	0.040	0.170
2020/01/31 16:08:18.5	107.010	0.170	0.060	0.170
2020/01/31 16:08:18.6	107.020	0.170	0.070	0.180
2020/01/31 16:08:18.7	107.030	0.160	0.080	0.180
2020/01/31 16:08:18.8	107.040	0.150	0.080	0.190
2020/01/31 16:08:18.9	107.050	0.140	0.090	0.190
2020/01/31 16:08:19.0	107.060	0.130	0.100	0.190
2020/01/31 16:08:19.1	107.070	0.120	0.100	0.200
2020/01/31 16:08:19.2	107.080	0.110	0.100	0.200
2020/01/31 16:08:19.3	107.080	0.100	0.100	0.200
2020/01/31 16:08:19.4	107.090	0.090	0.100	0.210
2020/01/31 16:08:19.5	107.090	0.080	0.100	0.210
2020/01/31 16:08:19.6	107.090	0.070	0.090	0.210
2020/01/31 16:08:19.7	107.090	0.060	0.090	0.220
2020/01/31 16:08:19.8	107.090	0.060	0.080	0.220
2020/01/31 16:08:19.9	107.100	0.050	0.070	0.220
2020/01/31 16:08:20.0	107.100	0.040	0.060	0.230
2020/01/31 16:08:20.1	107.100	0.040	0.040	0.230
2020/01/31 16:08:20.2	107.100	0.030	0.030	0.230
2020/01/31 16:08:20.3	107.100	0.030	0.010	0.240
2020/01/31 16:08:20.4	107.100	0.030	-0.000	0.240
2020/01/31 16:08:20.5	107.110	0.030	-0.020	0.240
2020/01/31 16:08:20.6	107.110	0.030	-0.040	0.250
2020/01/31 16:08:20.7	107.120	0.030	-0.060	0.250
2020/01/31 16:08:20.8	107.120	0.030	-0.080	0.250
2020/01/31 16:08:20.9	107.130	0.030	-0.100	0.260
2020/01/31 16:08:21.0	107.140	0.030	-0.120	0.260
2020/01/31 16:08:21.1	107.160	0.030	-0.140	0.270
2020/01/31 16:08:21.2	107.170	0.030	-0.160	0.270
2020/01/31 16:08:21.3	107.180	0.040	-0.180	0.280
2020/01/31 16:08:21.4	107.200	0.040	-0.200	0.290
2020/01/31 16:08:21.5	107.210	0.040	-0.220	0.300
2020/01/31 16:08:21.6	107.230	0.040	-0.240	0.310
2020/01/31 16:08:21.7	107.250	0.050	-0.260	0.320
2020/01/31 16:08:21.8	107.270	0.050	-0.280	0.330
2020/01/31 16:08:21.9	107.290	0.050	-0.290	0.340
2020/01/31 16:08:22.0	107.310	0.060	-0.310	0.360
2020/01/31 16:08:22.1	107.320	0.060	-0.330	0.380
2020/01/31 16:08:22.2	107.340	0.060	-0.350	0.400
2020/01/31 16:08:22.3	107.360	0.060	-0.370	0.420
2020/01/31 16:08:22.4	107.380	0.070	-0.390	0.450
2020/01/31 16:08:22.5	107.390	0.070	-0.410	0.470
2020/01/31 16:08:22.6	107.410	0.070	-0.420	0.500
2020/01/31 16:08:22.7	107.420	0.070	-0.440	0.540
2020/01/31 16:08:22.8	107.430	0.070	-0.460	0.580
2020/01/31 16:08:22.9	107.440	0.070	-0.480	0.610
2020/01/31 16:08:23.0	107.450	0.070	-0.500	0.650
2020/01/31 16:08:23.1	107.450	0.070	-0.510	0.690
2020/01/31 16:08:23.2	107.450	0.070	-0.530	0.740
2020/01/31 16:08:23.3	107.450	0.070	-0.540	0.780
2020/01/31 16:08:23.4	107.450	0.070	-0.550	0.820
2020/01/31 16:08:23.5	107.450	0.060	-0.560	0.860
2020/01/31 16:08:23.6	107.450	0.060	-0.570	0.910
2020/01/31 16:08:23.7	107.450	0.050	-0.580	0.940
2020/01/31 16:08:23.8	107.440	0.040	-0.580	0.980
2020/01/31 16:08:23.9	107.440	0.040	-0.580	1.020
2020/01/31 16:08:24.0	107.430	0.020	-0.570	1.050
2020/01/31 16:08:24.1	107.430	0.010	-0.560	1.080
2020/01/31 16:08:24.2	107.420	-0.000	-0.550	1.110
2020/01/31 16:08:24.3	107.420	-0.020	-0.530	1.140
2020/01/31 16:08:24.4	107.420	-0.040	-0.500	1.160
2020/01/31 16:08:24.5	107.410	-0.060	-0.480	1.180
2020/01/31 16:08:24.6	107.410	-0.080	-0.450	1.200
2020/01/31 16:08:24.7	107.410	-0.100	-0.400	1.220
2020/01/31 16:08:24.8	107.420	-0.130	-0.370	1.230
2020/01/31 16:08:24.9	107.420	-0.150	-0.320	1.250
2020/01/31 16:08:25.0	107.420	-0.180	-0.280	1.260
2020/01/31 16:08:25.1	107.430	-0.210	-0.230	1.270
2020/01/31 16:08:25.2	107.440	-0.240	-0.180	1.270
2020/01/31 16:08:25.3	107.450	-0.260	-0.130	1.280
2020/01/31 16:08:25.4	107.460	-0.290	-0.080	1.290
2020/01/31 16:08:25.5	107.470	-0.320	-0.020	1.290
2020/01/31 16:08:25.6	107.480	-0.350	0.030	1.300
2020/01/31 16:08:25.7	107.500	-0.380	0.080	1.310
2020/01/31 16:08:25.8	107.510	-0.410	0.130	1.310
2020/01/31 16:08:25.9	107.520	-0.430	0.180	1.310
2020/01/31 16:08:26.0	107.540	-0.460	0.230	1.320
2020/01/31 16:08:26.1	107.550	-0.480	0.270	1.320
2020/01/31 16:08:26.2	107.560	-0.500	0.310	1.320
2020/01/31 16:08:26.3	107.570	-0.510	0.350	1.330
2020/01/31 16:08:26.4	107.590	-0.530	0.380	1.330
2020/01/31 16:08:26.5	107.600	-0.540	0.410	1.330
2020/01/31 16:08:26.6	107.610	-0.550	0.430	1.330
2020/01/31 16:08:26.7	107.620	-0.550	0.440	1.330
2020/01/31 16:08:26.8	107.630	-0.550	0.460	1.330
2020/01/31 16:08:26.9	107.640	-0.550	0.460	1.330
2020/01/31 16:08:27.0	107.640	-0.540	0.460	1.330
2020/01/31 16:08:27.1	107.650	-0.530	0.450	1.320
2020/01/31 16:08:27.2	107.650	-0.510	0.430	1.320
2020/01/31 16:08:27.3	107.650	-0.490	0.410	1.320
2020/01/31 16:08:27.4	107.650	-0.470	0.390	1.310
2020/01/31 16:08:27.5	107.650	-0.440	0.350	1.300
2020/01/31 16:08:27.6	107.650	-0.410	0.320	1.300
2020/01/31 16:08:27.7	107.640	-0.380	0.270	1.290
2020/01/31 16:08:27.8	107.640	-0.340	0.220	1.280
2020/01/31 16:08:27.9	107.630	-0.300	0.170	1.260
2020/01/31 16:08:28.0	107.630	-0.250	0.120	1.240
2020/01/31 16:08:28.1	107.620	-0.210	0.060	1.220
2020/01/31 16:08:28.2	107.610	-0.160	0.000	1.200
2020/01/31 16:08:28.3	107.610	-0.110	-0.060	1.170
2020/01/31 16:08:28.4	107.600	-0.060	-0.120	1.140
2020/01/31 16:08:28.5	107.590	-0.010	-0.170	1.100
2020/01/31 16:08:28.6	107.590	0.040	-0.230	1.070
2020/01/31 16:08:28.7	107.590	0.090	-0.290	1.020
2020/01/31 16:08:28.8	107.580	0.140	-0.340	0.980
2020/01/31 16:08:28.9	107.580	0.180	-0.390	0.940
2020/01/31 16:08:29.0	107.580	0.230	-0.440	0.890
2020/01/31 16:08:29.1	107.580	0.270	-0.490	0.840
2020/01/31 16:08:29.2	107.580	0.310	-0.530	0.790
2020/01/31 16:08:29.3	107.590	0.350	-0.560	0.730
2020/01/31 16:08:29.4	107.590	0.390	-0.590	0.680
2020/01/31 16:08:29.5	107.600	0.420	-0.620	0.630
2020/01/31 16:08:29.6	107.610	0.450	-0.640	0.570
2020/01/31 16:08:29.7	107.620	0.480	-0.660	0.510
2020/01/31 16:08:29.8	107.630	0.500	-0.670	0.460
2020/01/31 16:08:29.9	107.640	0.520	-0.670	0.400
2020/01/31 16:08:30.0	107.660	0.530	-0.670	0.340
2020/01/31 16:08:30.1	107.670	0.550	-0.670	0.290
2020/01/31 16:08:30.2	107.690	0.560	-0.660	0.230
2020/01/31 16:08:30.3	107.710	0.560	-0.640	0.170
2020/01/31 16:08:30.4	107.730	0.560	-0.620	0.110
2020/01/31 16:08:30.5	107.750	0.560	-0.600	0.050
2020/01/31 16:08:30.6	107.780	0.560	-0.570	-0.000
2020/01/31 16:08:30.7	107.800	0.560	-0.540	-0.060
2020/01/31 16:08:30.8	107.830	0.550	-0.510	-0.120
2020/01/31 16:08:30.9	107.850	0.540	-0.480	-0.170
2020/01/31 16:08:31.0	107.880	0.530	-0.450	-0.230
2020/01/31 16:08:31.1	107.910	0.520	-0.420	-0.280
2020/01/31 16:08:31.2	107.930	0.510	-0.390	-0.330
2020/01/31 16:08:31.3	107.960	0.500	-0.350	-0.380
2020/01/31 16:08:31.4	107.990	0.480	-0.320	-0.430
2020/01/31 16:08:31.5	108.020	0.470	-0.290	-0.480
2020/01/31 16:08:31.6	108.040	0.460	-0.260	-0.530
2020/01/31 16:08:31.7	108.070	0.450	-0.230	-0.580
2020/01/31 16:08:31.8	108.090	0.440	-0.210	-0.620
2020/01/31 16:08:31.9	108.120	0.430	-0.180	-0.660
2020/01/31 16:08:32.0	108.140	0.420	-0.160	-0.700
2020/01/31 16:08:32.1	108.170	0.410	-0.140	-0.730
2020/01/31 16:08:32.2	108.190	0.400	-0.120	-0.770
2020/01/31 16:08:32.3	108.220	0.390	-0.100	-0.790
2020/01/31 16:08:32.4	108.240	0.380	-0.080	-0.820
2020/01/31 16:08:32.5	108.260	0.380	-0.060	-0.840
2020/01/31 16:08:32.6	108.280	0.370	-0.040	-0.860
2020/01/31 16:08:32.7	108.300	0.360	-0.020	-0.880
2020/01/31 16:08:32.8	108.320	0.360	-0.010	-0.890
2020/01/31 16:08:32.9	108.330	0.350	0.010	-0.890
2020/01/31 16:08:33.0	108.350	0.340	0.030	-0.890
2020/01/31 16:08:33.1	108.360	0.330	0.050	-0.890
2020/01/31 16:08:33.2	108.370	0.330	0.070	-0.890
2020/01/31 16:08:33.3	108.390	0.320	0.090	-0.880
2020/01/31 16:08:33.4	108.400	0.310	0.110	-0.860
2020/01/31 16:08:33.5	108.410	0.290	0.130	-0.840
2020/01/31 16:08:33.6	108.420	0.280	0.150	-0.820
2020/01/31 16:08:33.7	108.430	0.260	0.170	-0.790
2020/01/31 16:08:33.8	108.440	0.250	0.190	-0.760
2020/01/31 16:08:33.9	108.440	0.230	0.210	-0.720
2020/01/31 16:08:34.0	108.450	0.210	0.230	-0.680
2020/01/31 16:08:34.1	108.460	0.190	0.250	-0.630
2020/01/31 16:08:34.2	108.460	0.160	0.270	-0.580
2020/01/31 16:08:34.3	108.470	0.140	0.290	-0.530
2020/01/31 16:08:34.4	108.480	0.110	0.300	-0.480
2020/01/31 16:08:34.5	108.480	0.080	0.310	-0.420
2020/01/31 16:08:34.6	108.480	0.060	0.320	-0.350
2020/01/31 16:08:34.7	108.490	0.030	0.320	-0.290
2020/01/31 16:08:34.8	108.490	-0.000	0.330	-0.220
2020/01/31 16:08:34.9	108.490	-0.040	0.330	-0.150
2020/01/31 16:08:35.0	108.490	-0.070	0.320	-0.080
2020/01/31 16:08:35.1	108.490	-0.100	0.310	-0.010
2020/01/31 16:08:35.2	108.490	-0.130	0.300	0.070
2020/01/31 16:08:35.3	108.490	-0.160	0.280	0.150
2020/01/31 16:08:35.4	108.480	-0.190	0.260	0.230
2020/01/31 16:08:35.5	108.480	-0.220	0.230	0.310
2020/01/31 16:08:35.6	108.470	-0.250	0.200	0.400
2020/01/31 16:08:35.7	108.460	-0.280	0.170	0.480
2020/01/31 16:08:35.8	108.460	-0.300	0.130	0.570
2020/01/31 16:08:35.9	108.450	-0.330	0.090	0.650
2020/01/31 16:08:36.0	108.430	-0.350	0.050	0.740
2020/01/31 16:08:36.1	108.420	-0.370	-0.000	0.820
2020/01/31 16:08:36.2	108.410	-0.390	-0.050	0.910
2020/01/31 16:08:36.3	108.400	-0.400	-0.100	0.990
2020/01/31 16:08:36.4	108.390	-0.410	-0.150	1.070
2020/01/31 16:08:36.5	108.380	-0.420	-0.200	1.160
2020/01/31 16:08:36.6	108.360	-0.430	-0.250	1.240
2020/01/31 16:08:36.7	108.360	-0.440	-0.300	1.320
2020/01/31 16:08:36.8	108.350	-0.440	-0.350	1.390
2020/01/31 16:08:36.9	108.340	-0.440	-0.400	1.470
2020/01/31 16:08:37.0	108.330	-0.440	-0.450	1.540
2020/01/31 16:08:37.1	108.320	-0.430	-0.500	1.610
2020/01/31 16:08:37.2	108.310	-0.430	-0.550	1.680
2020/01/31 16:08:37.3	108.310	-0.420	-0.600	1.740
2020/01/31 16:08:37.4	108.300	-0.410	-0.640	1.810
2020/01/31 16:08:37.5	108.300	-0.390	-0.680	1.870
2020/01/31 16:08:37.6	108.300	-0.380	-0.720	1.930
2020/01/31 16:08:37.7	108.300	-0.360	-0.760	1.980
2020/01/31 16:08:37.8	108.300	-0.340	-0.800	2.030
2020/01/31 16:08:37.9	108.300	-0.320	-0.830	2.080
2020/01/31 16:08:38.0	108.300	-0.300	-0.860	2.120
2020/01/31 16:08:38.1	108.300	-0.280	-0.880	2.160
2020/01/31 16:08:38.2	108.310	-0.260	-0.910	2.200
2020/01/31 16:08:38.3	108.310	-0.240	-0.930	2.230
2020/01/31 16:08:38.4	108.320	-0.210	-0.940	2.250
2020/01/31 16:08:38.5	108.330	-0.190	-0.960	2.280
2020/01/31 16:08:38.6	108.330	-0.170	-0.970	2.290
2020/01/31 16:08:38.7	108.340	-0.140	-0.980	2.310
2020/01/31 16:08:38.8	108.360	-0.120	-0.980	2.310
2020/01/31 16:08:38.9	108.370	-0.100	-0.980	2.320
2020/01/31 16:08:39.0	108.380	-0.080	-0.980	2.310
2020/01/31 16:08:39.1	108.390	-0.060	-0.970	2.310
2020/01/31 16:08:39.2	108.410	-0.040	-0.960	2.290
2020/01/31 16:08:39.3	108.420	-0.020	-0.940	2.280
2020/01/31 16:08:39.4	108.440	-0.000	-0.920	2.260
2020/01/31 16:08:39.5	108.460	0.010	-0.900	2.230
2020/01/31 16:08:39.6	108.470	0.030	-0.870	2.200
2020/01/31 16:08:39.7	108.490	0.040	-0.840	2.170
2020/01/31 16:08:39.8	108.510	0.050	-0.810	2.130
2020/01/31 16:08:39.9	108.530	0.060	-0.770	2.090
2020/01/31 16:08:40.0	108.550	0.070	-0.730	2.050
2020/01/31 16:08:40.1	108.570	0.070	-0.690	2.000
2020/01/31 16:08:40.2	108.590	0.080	-0.650	1.950
2020/01/31 16:08:40.3	108.610	0.080	-0.600	1.900
2020/01/31 16:08:40.4	108.630	0.090	-0.550	1.850
2020/01/31 16:08:40.5	108.650	0.090	-0.490	1.800
2020/01/31 16:08:40.6	108.660	0.090	-0.440	1.740
2020/01/31 16:08:40.7	108.680	0.090	-0.380	1.690
2020/01/31 16:08:40.8	108.700	0.080	-0.320	1.630
2020/01/31 16:08:40.9	108.710	0.080	-0.250	1.570
2020/01/31 16:08:41.0	108.730	0.070	-0.190	1.510
2020/01/31 16:08:41.1	108.740	0.070	-0.120	1.440
2020/01/31 16:08:41.2	108.760	0.060	-0.050	1.380
2020/01/31 16:08:41.3	108.770	0.050	0.020	1.310
2020/01/31 16:08:41.4	108.780	0.040	0.090	1.240
2020/01/31 16:08:41.5	108.790	0.030	0.170	1.170
2020/01/31 16:08:41.6	108.810	0.010	0.240	1.100
2020/01/31 16:08:41.7	108.820	-0.000	0.310	1.030
2020/01/31 16:08:41.8	108.830	-0.020	0.390	0.950
2020/01/31 16:08:41.9	108.840	-0.030	0.460	0.870
2020/01/31 16:08:42.0	108.850	-0.050	0.530	0.800
2020/01/31 16:08:42.1	108.860	-0.070	0.600	0.720
2020/01/31 16:08:42.2	108.870	-0.090	0.670	0.640
2020/01/31 16:08:42.3	108.870	-0.110	0.730	0.560
2020/01/31 16:08:42.4	108.880	-0.130	0.800	0.480
2020/01/31 16:08:42.5	108.890	-0.150	0.850	0.390
2020/01/31 16:08:42.6	108.890	-0.180	0.910	0.310
2020/01/31 16:08:42.7	108.900	-0.200	0.960	0.230
2020/01/31 16:08:42.8	108.900	-0.220	1.000	0.150
2020/01/31 16:08:42.9	108.910	-0.240	1.040	0.070
2020/01/31 16:08:43.0	108.910	-0.260	1.070	-0.010
2020/01/31 16:08:43.1	108.910	-0.280	1.100	-0.090
2020/01/31 16:08:43.2	108.910	-0.290	1.110	-0.170
2020/01/31 16:08:43.3	108.910	-0.310	1.120	-0.250
2020/01/31 16:08:43.4	108.910	-0.320	1.120	-0.320
2020/01/31 16:08:43.5	108.910	-0.330	1.110	-0.390
2020/01/31 16:08:43.6	108.910	-0.340	1.090	-0.460
2020/01/31 16:08:43.7	108.900	-0.350	1.060	-0.530
2020/01/31 16:08:43.8	108.890	-0.350	1.030	-0.600
2020/01/31 16:08:43.9	108.890	-0.350	0.980	-0.660
2020/01/31 16:08:44.0	108.890	-0.350	0.930	-0.730
2020/01/31 16:08:44.1	108.880	-0.340	0.870	-0.790
2020/01/31 16:08:44.2	108.880	-0.330	0.800	-0.840
2020/01/31 16:08:44.3	108.880	-0.320	0.720	-0.900
2020/01/31 16:08:44.4	108.880	-0.300	0.640	-0.950
2020/01/31 16:08:44.5	108.880	-0.280	0.540	-1.000
2020/01/31 16:08:44.6	108.880	-0.250	0.440	-1.050
2020/01/31 16:08:44.7	108.880	-0.220	0.340	-1.100
2020/01/31 16:08:44.8	108.880	-0.190	0.230	-1.140
2020/01/31 16:08:44.9	108.880	-0.160	0.120	-1.190
2020/01/31 16:08:45.0	108.890	-0.120	0.000	-1.230
2020/01/31 16:08:45.1	108.900	-0.080	-0.120	-1.260
2020/01/31 16:08:45.2	108.910	-0.040	-0.230	-1.300
2020/01/31 16:08:45.3	108.920	0.000	-0.350	-1.330
2020/01/31 16:08:45.4	108.930	0.040	-0.470	-1.360
2020/01/31 16:08:45.5	108.950	0.090	-0.580	-1.390
2020/01/31 16:08:45.6	108.970	0.140	-0.690	-1.420
2020/01/31 16:08:45.7	108.990	0.180	-0.800	-1.440
2020/01/31 16:08:45.8	109.000	0.230	-0.900	-1.460
2020/01/31 16:08:45.9	109.020	0.280	-0.990	-1.470
2020/01/31 16:08:46.0	109.040	0.330	-1.080	-1.480
2020/01/31 16:08:46.1	109.060	0.370	-1.160	-1.490
2020/01/31 16:08:46.2	109.080	0.410	-1.230	-1.490
2020/01/31 16:08:46.3	109.100	0.460	-1.290	-1.490
2020/01/31 16:08:46.4	109.120	0.500	-1.340	-1.490
2020/01/31 16:08:46.5	109.140	0.530	-1.390	-1.480
2020/01/31 16:08:46.6	109.150	0.570	-1.420	-1.470
2020/01/31 16:08:46.7	109.160	0.600	-1.440	-1.450
2020/01/31 16:08:46.8	109.180	0.630	-1.460	-1.430
2020/01/31 16:08:46.9	109.190	0.650	-1.460	-1.400
2020/01/31 16:08:47.0	109.200	0.680	-1.450	-1.370
2020/01/31 16:08:47.1	109.200	0.690	-1.430	-1.330
2020/01/31 16:08:47.2	109.210	0.700	-1.410	-1.290
2020/01/31 16:08:47.3	109.210	0.710	-1.370	-1.250
2020/01/31 16:08:47.4	109.210	0.720	-1.330	-1.200
2020/01/31 16:08:47.5	109.220	0.720	-1.270	-1.150
2020/01/31 16:08:47.6	109.220	0.710	-1.210	-1.100
2020/01/31 16:08:47.7	109.210	0.700	-1.140	-1.040
2020/01/31 16:08:47.8	109.210	0.690	-1.070	-0.970
2020/01/31 16:08:47.9	109.200	0.670	-0.990	-0.910
2020/01/31 16:08:48.0	109.200	0.650	-0.900	-0.840
2020/01/31 16:08:48.1	109.200	0.630	-0.810	-0.760
2020/01/31 16:08:48.2	109.190	0.600	-0.720	-0.680
2020/01/31 16:08:48.3	109.190	0.570	-0.620	-0.600
2020/01/31 16:08:48.4	109.190	0.530	-0.520	-0.520
2020/01/31 16:08:48.5	109.180	0.500	-0.420	-0.430
2020/01/31 16:08:48.6	109.180	0.460	-0.330	-0.340
2020/01/31 16:08:48.7	109.180	0.420	-0.220	-0.240
2020/01/31 16:08:48.8	109.180	0.370	-0.130	-0.140
2020/01/31 16:08:48.9	109.180	0.330	-0.030	-0.040
2020/01/31 16:08:49.0	109.170	0.280	0.060	0.070
2020/01/31 16:08:49.1	109.170	0.230	0.150	0.170
2020/01/31 16:08:49.2	109.170	0.190	0.230	0.280
2020/01/31 16:08:49.3	109.170	0.140	0.310	0.390
2020/01/31 16:08:49.4	109.170	0.090	0.380	0.500
2020/01/31 16:08:49.5	109.170	0.050	0.450	0.610
2020/01/31 16:08:49.6	109.170	0.000	0.510	0.710
2020/01/31 16:08:49.7	109.170	-0.040	0.560	0.820
2020/01/31 16:08:49.8	109.170	-0.080	0.610	0.930
2020/01/31 16:08:49.9	109.180	-0.120	0.650	1.030
2020/01/31 16:08:50.0	109.180	-0.160	0.680	1.130
2020/01/31 16:08:50.1	109.190	-0.200	0.710	1.230
2020/01/31 16:08:50.2	109.190	-0.230	0.730	1.330
2020/01/31 16:08:50.3	109.200	-0.260	0.740	1.420
2020/01/31 16:08:50.4	109.210	-0.290	0.740	1.510
2020/01/31 16:08:50.5	109.210	-0.320	0.740	1.590
2020/01/31 16:08:50.6	109.220	-0.340	0.730	1.670
2020/01/31 16:08:50.7	109.230	-0.370	0.710	1.750
2020/01/31 16:08:50.8	109.240	-0.380	0.690	1.830
2020/01/31 16:08:50.9	109.250	-0.400	0.660	1.900
2020/01/31 16:08:51.0	109.260	-0.410	0.630	1.960
2020/01/31 16:08:51.1	109.260	-0.420	0.590	2.030
2020/01/31 16:08:51.2	109.270	-0.430	0.540	2.090
2020/01/31 16:08:51.3	109.280	-0.430	0.490	2.140
2020/01/31 16:08:51.4	109.280	-0.430	0.440	2.190
2020/01/31 16:08:51.5	109.290	-0.430	0.380	2.250
2020/01/31 16:08:51.6	109.290	-0.430	0.310	2.290
2020/01/31 16:08:51.7	109.300	-0.420	0.250	2.330
2020/01/31 16:08:51.8	109.300	-0.410	0.180	2.380
2020/01/31 16:08:51.9	109.300	-0.400	0.110	2.420
2020/01/31 16:08:52.0	109.300	-0.390	0.040	2.460
2020/01/31 16:08:52.1	109.290	-0.370	-0.040	2.490
2020/01/31 16:08:52.2	109.290	-0.350	-0.110	2.520
2020/01/31 16:08:52.3	109.290	-0.330	-0.180	2.550
2020/01/31 16:08:52.4	109.280	-0.310	-0.250	2.580
2020/01/31 16:08:52.5	109.280	-0.290	-0.330	2.610
2020/01/31 16:08:52.6	109.270	-0.270	-0.400	2.630
2020/01/31 16:08:52.7	109.260	-0.250	-0.470	2.650
2020/01/31 16:08:52.8	109.250	-0.220	-0.540	2.670
2020/01/31 16:08:52.9	109.250	-0.200	-0.600	2.680
2020/01/31 16:08:53.0	109.240	-0.180	-0.650	2.690
2020/01/31 16:08:53.1	109.240	-0.150	-0.710	2.700
2020/01/31 16:08:53.2	109.230	-0.130	-0.760	2.710
2020/01/31 16:08:53.3	109.230	-0.110	-0.800	2.710
2020/01/31 16:08:53.4	109.230	-0.080	-0.840	2.700
2020/01/31 16:08:53.5	109.220	-0.060	-0.880	2.700
2020/01/31 16:08:53.6	109.220	-0.040	-0.900	2.680
2020/01/31 16:08:53.7	109.220	-0.020	-0.920	2.670
2020/01/31 16:08:53.8	109.230	-0.010	-0.940	2.650
2020/01/31 16:08:53.9	109.230	0.010	-0.950	2.620
2020/01/31 16:08:54.0	109.240	0.020	-0.950	2.590
2020/01/31 16:08:54.1	109.240	0.040	-0.950	2.560
2020/01/31 16:08:54.2	109.250	0.050	-0.950	2.520
2020/01/31 16:08:54.3	109.260	0.060	-0.940	2.480
2020/01/31 16:08:54.4	109.270	0.070	-0.920	2.430
2020/01/31 16:08:54.5	109.280	0.070	-0.900	2.380
2020/01/31 16:08:54.6	109.300	0.080	-0.880	2.320
2020/01/31 16:08:54.7	109.310	0.080	-0.850	2.260
2020/01/31 16:08:54.8	109.330	0.080	-0.820	2.190
2020/01/31 16:08:54.9	109.340	0.090	-0.780	2.120
2020/01/31 16:08:55.0	109.360	0.090	-0.740	2.050
2020/01/31 16:08:55.1	109.370	0.090	-0.700	1.970
2020/01/31 16:08:55.2	109.390	0.080	-0.660	1.890
2020/01/31 16:08:55.3	109.410	0.080	-0.610	1.810
2020/01/31 16:08:55.4	109.420	0.080	-0.560	1.730
2020/01/31 16:08:55.5	109.440	0.070	-0.520	1.640
2020/01/31 16:08:55.6	109.450	0.070	-0.470	1.560
2020/01/31 16:08:55.7	109.470	0.070	-0.420	1.470
2020/01/31 16:08:55.8	109.480	0.060	-0.370	1.380
2020/01/31 16:08:55.9	109.500	0.060	-0.320	1.290
2020/01/31 16:08:56.0	109.510	0.050	-0.270	1.200
2020/01/31 16:08:56.1	109.520	0.050	-0.230	1.110
2020/01/31 16:08:56.2	109.530	0.040	-0.180	1.020
2020/01/31 16:08:56.3	109.540	0.040	-0.140	0.930
2020/01/31 16:08:56.4	109.550	0.040	-0.100	0.840
2020/01/31 16:08:56.5	109.560	0.030	-0.060	0.750
2020/01/31 16:08:56.6	109.570	0.030	-0.020	0.660
2020/01/31 16:08:56.7	109.570	0.020	0.020	0.560
2020/01/31 16:08:56.8	109.570	0.020	0.050	0.470
2020/01/31 16:08:56.9	109.580	0.010	0.090	0.380
2020/01/31 16:08:57.0	109.580	0.010	0.130	0.290
2020/01/31 16:08:57.1	109.590	0.000	0.160	0.200
2020/01/31 16:08:57.2	109.590	-0.000	0.190	0.110
2020/01/31 16:08:57.3	109.590	-0.010	0.230	0.030
2020/01/31 16:08:57.4	109.600	-0.020	0.260	-0.060
2020/01/31 16:08:57.5	109.600	-0.020	0.290	-0.150
2020/01/31 16:08:57.6	109.600	-0.030	0.320	-0.230
2020/01/31 16:08:57.7	109.600	-0.040	0.350	-0.320
2020/01/31 16:08:57.8	109.610	-0.050	0.380	-0.400
2020/01/31 16:08:57.9	109.610	-0.060	0.400	-0.480
2020/01/31 16:08:58.0	109.620	-0.070	0.430	-0.560
2020/01/31 16:08:58.1	109.620	-0.080	0.450	-0.640
2020/01/31 16:08:58.2	109.630	-0.090	0.470	-0.720
2020/01/31 16:08:58.3	109.630	-0.100	0.480	-0.790
2020/01/31 16:08:58.4	109.640	-0.120	0.500	-0.860
2020/01/31 16:08:58.5	109.650	-0.130	0.510	-0.930
2020/01/31 16:08:58.6	109.650	-0.140	0.520	-1.000
2020/01/31 16:08:58.7	109.660	-0.150	0.520	-1.060
2020/01/31 16:08:58.8	109.660	-0.170	0.520	-1.120
2020/01/31 16:08:58.9	109.670	-0.180	0.520	-1.180
2020/01/31 16:08:59.0	109.680	-0.190	0.510	-1.230
2020/01/31 16:08:59.1	109.680	-0.200	0.500	-1.280
2020/01/31 16:08:59.2	109.690	-0.210	0.480	-1.320
2020/01/31 16:08:59.3	109.690	-0.220	0.470	-1.360
2020/01/31 16:08:59.4	109.700	-0.220	0.440	-1.400
2020/01/31 16:08:59.5	109.700	-0.230	0.420	-1.430
2020/01/31 16:08:59.6	109.710	-0.230	0.390	-1.450
2020/01/31 16:08:59.7	109.710	-0.240	0.350	-1.470
2020/01/31 16:08:59.8	109.710	-0.240	0.320	-1.490
2020/01/31 16:08:59.9	109.720	-0.240	0.280	-1.500
2020/01/31 16:09:00.0	109.720	-0.240	0.240	-1.510
2020/01/31 16:09:00.1	109.720	-0.230	0.200	-1.520
2020/01/31 16:09:00.2	109.720	-0.230	0.150	-1.520
2020/01/31 16:09:00.3	109.720	-0.220	0.110	-1.510
2020/01/31 16:09:00.4	109.710	-0.210	0.070	-1.500
2020/01/31 16:09:00.5	109.710	-0.200	0.020	-1.490
2020/01/31 16:09:00.6	109.710	-0.180	-0.020	-1.470
2020/01/31 16:09:00.7	109.710	-0.170	-0.060	-1.450
2020/01/31 16:09:00.8	109.700	-0.150	-0.100	-1.430
2020/01/31 16:09:00.9	109.700	-0.130	-0.140	-1.400
2020/01/31 16:09:01.0	109.700	-0.120	-0.180	-1.370
2020/01/31 16:09:01.1	109.700	-0.100	-0.220	-1.340
2020/01/31 16:09:01.2	109.690	-0.080	-0.250	-1.300
2020/01/31 16:09:01.3	109.690	-0.060	-0.290	-1.260
2020/01/31 16:09:01.4	109.690	-0.030	-0.320	-1.220
2020/01/31 16:09:01.5	109.680	-0.010	-0.350	-1.170
2020/01/31 16:09:01.6	109.680	0.010	-0.370	-1.120
2020/01/31 16:09:01.7	109.680	0.030	-0.400	-1.060
2020/01/31 16:09:01.8	109.680	0.050	-0.420	-1.010
2020/01/31 16:09:01.9	109.670	0.070	-0.440	-0.950
2020/01/31 16:09:02.0	109.670	0.090	-0.460	-0.880
2020/01/31 16:09:02.1	109.670	0.100	-0.480	-0.810
2020/01/31 16:09:02.2	109.670	0.120	-0.490	-0.740
2020/01/31 16:09:02.3	109.670	0.140	-0.510	-0.670
2020/01/31 16:09:02.4	109.670	0.150	-0.520	-0.600
2020/01/31 16:09:02.5	109.670	0.170	-0.530	-0.520
2020/01/31 16:09:02.6	109.670	0.180	-0.550	-0.440
2020/01/31 16:09:02.7	109.680	0.190	-0.560	-0.360
2020/01/31 16:09:02.8	109.680	0.210	-0.570	-0.280
2020/01/31 16:09:02.9	109.690	0.220	-0.580	-0.200
2020/01/31 16:09:03.0	109.700	0.230	-0.590	-0.120
2020/01/31 16:09:03.1	109.710	0.240	-0.600	-0.030
2020/01/31 16:09:03.2	109.720	0.240	-0.610	0.050
2020/01/31 16:09:03.3	109.730	0.250	-0.620	0.130
2020/01/31 16:09:03.4	109.740	0.260	-0.640	0.210
2020/01/31 16:09:03.5	109.760	0.270	-0.650	0.300
2020/01/31 16:09:03.6	109.780	0.270	-0.660	0.380
2020/01/31 16:09:03.7	109.800	0.280	-0.670	0.460
2020/01/31 16:09:03.8	109.810	0.280	-0.680	0.540
2020/01/31 16:09:03.9	109.830	0.290	-0.680	0.620
2020/01/31 16:09:04.0	109.850	0.290	-0.690	0.690
2020/01/31 16:09:04.1	109.870	0.300	-0.700	0.770
2020/01/31 16:09:04.2	109.890	0.300	-0.700	0.840
2020/01/31 16:09:04.3	109.910	0.300	-0.700	0.920
2020/01/31 16:09:04.4	109.930	0.310	-0.700	0.980
2020/01/31 16:09:04.5	109.960	0.310	-0.700	1.050
2020/01/31 16:09:04.6	109.980	0.310	-0.700	1.120
2020/01/31 16:09:04.7	109.990	0.310	-0.690	1.180
2020/01/31 16:09:04.8	110.010	0.310	-0.680	1.250
2020/01/31 16:09:04.9	110.030	0.310	-0.660	1.310
2020/01/31 16:09:05.0	110.050	0.310	-0.640	1.370
2020/01/31 16:09:05.1	110.070	0.310	-0.620	1.420
2020/01/31 16:09:05.2	110.090	0.300	-0.600	1.480
2020/01/31 16:09:05.3	110.110	0.300	-0.570	1.540
2020/01/31 16:09:05.4	110.120	0.290	-0.540	1.590
2020/01/31 16:09:05.5	110.140	0.280	-0.500	1.650
2020/01/31 16:09:05.6	110.150	0.280	-0.460	1.700
2020/01/31 16:09:05.7	110.160	0.270	-0.420	1.750
2020/01/31 16:09:05.8	110.170	0.250	-0.370	1.800
2020/01/31 16:09:05.9	110.180	0.240	-0.330	1.860
2020/01/31 16:09:06.0	110.180	0.230	-0.280	1.910
2020/01/31 16:09:06.1	110.190	0.210	-0.220	1.960
2020/01/31 16:09:06.2	110.190	0.200	-0.170	2.020
2020/01/31 16:09:06.3	110.190	0.180	-0.120	2.070
2020/01/31 16:09:06.4	110.190	0.160	-0.060	2.120
2020/01/31 16:09:06.5	110.190	0.140	-0.000	2.180
2020/01/31 16:09:06.6	110.180	0.120	0.050	2.230
2020/01/31 16:09:06.7	110.170	0.100	0.110	2.280
2020/01/31 16:09:06.8	110.160	0.070	0.160	2.330
2020/01/31 16:09:06.9	110.150	0.050	0.210	2.380
2020/01/31 16:09:07.0	110.140	0.030	0.260	2.430
2020/01/31 16:09:07.1	110.120	0.000	0.310	2.470
2020/01/31 16:09:07.2	110.100	-0.020	0.360	2.510
2020/01/31 16:09:07.3	110.090	-0.040	0.400	2.550
2020/01/31 16:09:07.4	110.070	-0.070	0.440	2.590
2020/01/31 16:09:07.5	110.050	-0.090	0.470	2.620
2020/01/31 16:09:07.6	110.030	-0.110	0.500	2.640
2020/01/31 16:09:07.7	110.000	-0.130	0.530	2.660
2020/01/31 16:09:07.8	109.980	-0.150	0.550	2.670
2020/01/31 16:09:07.9	109.960	-0.170	0.560	2.680
2020/01/31 16:09:08.0	109.940	-0.190	0.570	2.680
2020/01/31 16:09:08.1	109.920	-0.200	0.570	2.670
2020/01/31 16:09:08.2	109.900	-0.220	0.570	2.660
2020/01/31 16:09:08.3	109.880	-0.230	0.560	2.640
2020/01/31 16:09:08.4	109.870	-0.230	0.550	2.610
2020/01/31 16:09:08.5	109.850	-0.240	0.530	2.570
2020/01/31 16:09:08.6	109.840	-0.240	0.500	2.520
2020/01/31 16:09:08.7	109.820	-0.240	0.470	2.460
2020/01/31 16:09:08.8	109.810	-0.240	0.430	2.400
2020/01/31 16:09:08.9	109.800	-0.240	0.390	2.330
2020/01/31 16:09:09.0	109.800	-0.230	0.350	2.260
2020/01/31 16:09:09.1	109.790	-0.220	0.290	2.170
2020/01/31 16:09:09.2	109.790	-0.210	0.240	2.090
2020/01/31 16:09:09.3	109.790	-0.190	0.180	1.990
2020/01/31 16:09:09.4	109.790	-0.180	0.120	1.890
2020/01/31 16:09:09.5	109.790	-0.160	0.060	1.790
2020/01/31 16:09:09.6	109.790	-0.140	-0.010	1.680
2020/01/31 16:09:09.7	109.800	-0.120	-0.080	1.560
2020/01/31 16:09:09.8	109.800	-0.090	-0.150	1.450
2020/01/31 16:09:09.9	109.810	-0.070	-0.220	1.330
2020/01/31 16:09:10.0	109.820	-0.040	-0.290	1.220
2020/01/31 16:09:10.1	109.830	-0.020	-0.360	1.100
2020/01/31 16:09:10.2	109.850	0.010	-0.430	0.980
2020/01/31 16:09:10.3	109.860	0.040	-0.500	0.860
2020/01/31 16:09:10.4	109.880	0.060	-0.560	0.750
2020/01/31 16:09:10.5	109.890	0.090	-0.620	0.640
2020/01/31 16:09:10.6	109.910	0.110	-0.680	0.530
2020/01/31 16:09:10.7	109.930	0.140	-0.740	0.420
2020/01/31 16:09:10.8	109.950	0.160	-0.800	0.310
2020/01/31 16:09:10.9	109.970	0.180	-0.840	0.210
2020/01/31 16:09:11.0	109.990	0.200	-0.890	0.120
2020/01/31 16:09:11.1	110.010	0.220	-0.930	0.030
2020/01/31 16:09:11.2	110.020	0.230	-0.960	-0.060
2020/01/31 16:09:11.3	110.040	0.240	-0.990	-0.140
2020/01/31 16:09:11.4	110.060	0.250	-1.010	-0.220
2020/01/31 16:09:11.5	110.080	0.260	-1.020	-0.300
2020/01/31 16:09:11.6	110.100	0.260	-1.030	-0.370
2020/01/31 16:09:11.7	110.110	0.270	-1.030	-0.430
2020/01/31 16:09:11.8	110.130	0.260	-1.030	-0.500
2020/01/31 16:09:11.9	110.150	0.260	-1.010	-0.550
2020/01/31 16:09:12.0	110.160	0.250	-1.000	-0.610
2020/01/31 16:09:12.1	110.170	0.240	-0.970	-0.660
2020/01/31 16:09:12.2	110.180	0.230	-0.940	-0.700
2020/01/31 16:09:12.3	110.190	0.210	-0.900	-0.740
2020/01/31 16:09:12.4	110.200	0.190	-0.850	-0.780
2020/01/31 16:09:12.5	110.200	0.170	-0.800	-0.820
2020/01/31 16:09:12.6	110.210	0.140	-0.740	-0.850
2020/01/31 16:09:12.7	110.210	0.120	-0.680	-0.880
2020/01/31 16:09:12.8	110.210	0.090	-0.610	-0.900
2020/01/31 16:09:12.9	110.210	0.050	-0.540	-0.920
2020/01/31 16:09:13.0	110.210	0.020	-0.460	-0.940
2020/01/31 16:09:13.1	110.200	-0.020	-0.380	-0.960
2020/01/31 16:09:13.2	110.190	-0.060	-0.300	-0.970
2020/01/31 16:09:13.3	110.190	-0.090	-0.210	-0.980
2020/01/31 16:09:13.4	110.180	-0.130	-0.120	-0.990
2020/01/31 16:09:13.5	110.160	-0.170	-0.040	-1.000
2020/01/31 16:09:13.6	110.150	-0.220	0.050	-1.000
2020/01/31 16:09:13.7	110.140	-0.260	0.130	-1.000
2020/01/31 16:09:13.8	110.120	-0.300	0.220	-1.000
2020/01/31 16:09:13.9	110.110	-0.340	0.300	-1.000
2020/01/31 16:09:14.0	110.090	-0.380	0.380	-1.000
2020/01/31 16:09:14.1	110.080	-0.420	0.450	-0.990
2020/01/31 16:09:14.2	110.060	-0.450	0.520	-0.980
2020/01/31 16:09:14.3	110.050	-0.490	0.590	-0.970
2020/01/31 16:09:14.4	110.030	-0.520	0.650	-0.960
2020/01/31 16:09:14.5	110.020	-0.550	0.700	-0.940
2020/01/31 16:09:14.6	110.010	-0.570	0.740	-0.920
2020/01/31 16:09:14.7	109.990	-0.600	0.780	-0.900
2020/01/31 16:09:14.8	109.980	-0.620	0.810	-0.880
2020/01/31 16:09:14.9	109.970	-0.640	0.830	-0.850
2020/01/31 16:09:15.0	109.960	-0.650	0.830	-0.820
2020/01/31 16:09:15.1	109.960	-0.660	0.840	-0.790
2020/01/31 16:09:15.2	109.950	-0.660	0.830	-0.750
2020/01/31 16:09:15.3	109.950	-0.660	0.810	-0.710
2020/01/31 16:09:15.4	109.940	-0.660	0.780	-0.660
2020/01/31 16:09:15.5	109.940	-0.660	0.750	-0.620
2020/01/31 16:09:15.6	109.940	-0.650	0.710	-0.570
2020/01/31 16:09:15.7	109.940	-0.630	0.650	-0.510
2020/01/31 16:09:15.8	109.940	-0.610	0.590	-0.460
2020/01/31 16:09:15.9	109.950	-0.590	0.530	-0.400
2020/01/31 16:09:16.0	109.960	-0.570	0.460	-0.340
2020/01/31 16:09:16.1	109.970	-0.540	0.380	-0.280
2020/01/31 16:09:16.2	109.980	-0.510	0.300	-0.220
2020/01/31 16:09:16.3	109.990	-0.470	0.220	-0.150
2020/01/31 16:09:16.4	110.000	-0.440	0.130	-0.090
2020/01/31 16:09:16.5	110.020	-0.400	0.040	-0.020
2020/01/31 16:09:16.6	110.030	-0.360	-0.050	0.040
2020/01/31 16:09:16.7	110.040	-0.320	-0.140	0.100
2020/01/31 16:09:16.8	110.060	-0.270	-0.230	0.160
2020/01/31 16:09:16.9	110.070	-0.230	-0.310	0.220
2020/01/31 16:09:17.0	110.080	-0.190	-0.400	0.280
2020/01/31 16:09:17.1	110.100	-0.140	-0.480	0.340
2020/01/31 16:09:17.2	110.110	-0.100	-0.560	0.390
2020/01/31 16:09:17.3	110.120	-0.050	-0.630	0.450
2020/01/31 16:09:17.4	110.130	-0.010	-0.700	0.500
2020/01/31 16:09:17.5	110.140	0.040	-0.760	0.550
2020/01/31 16:09:17.6	110.150	0.080	-0.810	0.600
2020/01/31 16:09:17.7	110.150	0.120	-0.860	0.640
2020/01/31 16:09:17.8	110.160	0.160	-0.900	0.690
2020/01/31 16:09:17.9	110.160	0.200	-0.940	0.730
2020/01/31 16:09:18.0	110.160	0.230	-0.960	0.770
2020/01/31 16:09:18.1	110.170	0.270	-0.980	0.810
2020/01/31 16:09:18.2	110.160	0.300	-0.980	0.850
2020/01/31 16:09:18.3	110.160	0.330	-0.980	0.890
2020/01/31 16:09:18.4	110.160	0.360	-0.980	0.930
2020/01/31 16:09:18.5	110.150	0.380	-0.960	0.970
2020/01/31 16:09:18.6	110.150	0.410	-0.940	1.010
2020/01/31 16:09:18.7	110.140	0.430	-0.910	1.040
2020/01/31 16:09:18.8	110.130	0.440	-0.870	1.080
2020/01/31 16:09:18.9	110.110	0.460	-0.830	1.110
2020/01/31 16:09:19.0	110.100	0.470	-0.790	1.140
2020/01/31 16:09:19.1	110.080	0.480	-0.740	1.180
2020/01/31 16:09:19.2	110.070	0.490	-0.690	1.210
2020/01/31 16:09:19.3	110.050	0.500	-0.630	1.250
2020/01/31 16:09:19.4	110.030	0.500	-0.570	1.280
2020/01/31 16:09:19.5	110.010	0.510	-0.520	1.320
2020/01/31 16:09:19.6	109.990	0.510	-0.450	1.350
2020/01/31 16:09:19.7	109.960	0.510	-0.400	1.380
2020/01/31 16:09:19.8	109.940	0.510	-0.340	1.410
2020/01/31 16:09:19.9	109.920	0.500	-0.280	1.450
2020/01/31 16:09:20.0	109.900	0.500	-0.220	1.480
2020/01/31 16:09:20.1	109.880	0.490	-0.160	1.510
2020/01/31 16:09:20.2	109.870	0.480	-0.100	1.530
2020/01/31 16:09:20.3	109.850	0.470	-0.050	1.560
2020/01/31 16:09:20.4	109.840	0.460	0.000	1.580
2020/01/31 16:09:20.5	109.820	0.450	0.050	1.600
2020/01/31 16:09:20.6	109.810	0.430	0.100	1.620
2020/01/31 16:09:20.7	109.810	0.420	0.140	1.630
2020/01/31 16:09:20.8	109.800	0.410	0.180	1.650
2020/01/31 16:09:20.9	109.800	0.390	0.210	1.660
2020/01/31 16:09:21.0	109.800	0.380	0.240	1.670
2020/01/31 16:09:21.1	109.800	0.360	0.270	1.670
2020/01/31 16:09:21.2	109.810	0.350	0.290	1.670
2020/01/31 16:09:21.3	109.810	0.330	0.300	1.670
2020/01/31 16:09:21.4	109.820	0.310	0.310	1.660
2020/01/31 16:09:21.5	109.830	0.300	0.320	1.650
2020/01/31 16:09:21.6	109.840	0.280	0.320	1.640
2020/01/31 16:09:21.7	109.850	0.270	0.320	1.630
2020/01/31 16:09:21.8	109.870	0.260	0.310	1.610
2020/01/31 16:09:21.9	109.880	0.240	0.300	1.590
2020/01/31 16:09:22.0	109.900	0.230	0.290	1.570
2020/01/31 16:09:22.1	109.920	0.220	0.270	1.540
2020/01/31 16:09:22.2	109.930	0.210	0.260	1.520
2020/01/31 16:09:22.3	109.950	0.200	0.240	1.490
2020/01/31 16:09:22.4	109.970	0.190	0.210	1.460
2020/01/31 16:09:22.5	109.990	0.180	0.190	1.430
2020/01/31 16:09:22.6	110.000	0.170	0.160	1.390
2020/01/31 16:09:22.7	110.020	0.160	0.140	1.350
2020/01/31 16:09:22.8	110.040	0.150	0.110	1.310
2020/01/31 16:09:22.9	110.060	0.150	0.080	1.270
2020/01/31 16:09:23.0	110.070	0.140	0.060	1.230
2020/01/31 16:09:23.1	110.090	0.130	0.030	1.190
2020/01/31 16:09:23.2	110.100	0.130	0.010	1.140
2020/01/31 16:09:23.3	110.110	0.120	-0.020	1.090
2020/01/31 16:09:23.4	110.130	0.110	-0.040	1.040
2020/01/31 16:09:23.5	110.140	0.110	-0.060	1.000
2020/01/31 16:09:23.6	110.150	0.100	-0.080	0.950
2020/01/31 16:09:23.7	110.160	0.090	-0.090	0.890
2020/01/31 16:09:23.8	110.170	0.080	-0.110	0.840
2020/01/31 16:09:23.9	110.180	0.070	-0.120	0.790
2020/01/31 16:09:24.0	110.180	0.060	-0.130	0.750
2020/01/31 16:09:24.1	110.190	0.050	-0.140	0.700
2020/01/31 16:09:24.2	110.190	0.030	-0.150	0.660
2020/01/31 16:09:24.3	110.190	0.020	-0.150	0.620
2020/01/31 16:09:24.4	110.190	0.000	-0.160	0.580
2020/01/31 16:09:24.5	110.180	-0.010	-0.160	0.540
2020/01/31 16:09:24.6	110.180	-0.030	-0.170	0.510
2020/01/31 16:09:24.7	110.170	-0.050	-0.170	0.480
2020/01/31 16:09:24.8	110.160	-0.070	-0.170	0.460
2020/01/31 16:09:24.9	110.140	-0.090	-0.170	0.440
2020/01/31 16:09:25.0	110.130	-0.110	-0.170	0.420
2020/01/31 16:09:25.1	110.110	-0.130	-0.170	0.410
2020/01/31 16:09:25.2	110.090	-0.150	-0.170	0.410
2020/01/31 16:09:25.3	110.070	-0.170	-0.170	0.400
2020/01/31 16:09:25.4	110.040	-0.190	-0.180	0.400
2020/01/31 16:09:25.5	110.020	-0.210	-0.180	0.410
2020/01/31 16:09:25.6	109.990	-0.230	-0.190	0.410
2020/01/31 16:09:25.7	109.960	-0.240	-0.200	0.420
2020/01/31 16:09:25.8	109.940	-0.260	-0.210	0.430
2020/01/31 16:09:25.9	109.910	-0.270	-0.220	0.450
2020/01/31 16:09:26.0	109.880	-0.290	-0.240	0.460
2020/01/31 16:09:26.1	109.850	-0.300	-0.260	0.470
2020/01/31 16:09:26.2	109.820	-0.300	-0.280	0.490
2020/01/31 16:09:26.3	109.800	-0.310	-0.310	0.500
2020/01/31 16:09:26.4	109.770	-0.310	-0.340	0.510
2020/01/31 16:09:26.5	109.750	-0.310	-0.370	0.520
2020/01/31 16:09:26.6	109.720	-0.300	-0.400	0.530
2020/01/31 16:09:26.7	109.710	-0.300	-0.440	0.530
2020/01/31 16:09:26.8	109.690	-0.290	-0.480	0.540
2020/01/31 16:09:26.9	109.670	-0.280	-0.520	0.540
2020/01/31 16:09:27.0	109.660	-0.260	-0.560	0.540
2020/01/31 16:09:27.1	109.640	-0.240	-0.610	0.540
2020/01/31 16:09:27.2	109.630	-0.220	-0.650	0.530
2020/01/31 16:09:27.3	109.620	-0.200	-0.700	0.520
2020/01/31 16:09:27.4	109.610	-0.180	-0.740	0.510
2020/01/31 16:09:27.5	109.610	-0.150	-0.790	0.500
2020/01/31 16:09:27.6	109.610	-0.130	-0.830	0.490
2020/01/31 16:09:27.7	109.610	-0.100	-0.870	0.470
2020/01/31 16:09:27.8	109.610	-0.080	-0.900	0.460
2020/01/31 16:09:27.9	109.620	-0.050	-0.930	0.440
2020/01/31 16:09:28.0	109.620	-0.030	-0.950	0.420
2020/01/31 16:09:28.1	109.630	-0.000	-0.970	0.410
2020/01/31 16:09:28.2	109.640	0.020	-0.980	0.390
2020/01/31 16:09:28.3	109.650	0.040	-0.980	0.370
2020/01/31 16:09:28.4	109.660	0.060	-0.980	0.350
2020/01/31 16:09:28.5	109.680	0.070	-0.970	0.330
2020/01/31 16:09:28.6	109.700	0.080	-0.950	0.310
2020/01/31 16:09:28.7	109.710	0.090	-0.930	0.280
2020/01/31 16:09:28.8	109.730	0.100	-0.890	0.260
2020/01/31 16:09:28.9	109.750	0.110	-0.850	0.240
2020/01/31 16:09:29.0	109.770	0.110	-0.800	0.230
2020/01/31 16:09:29.1	109.790	0.100	-0.750	0.210
2020/01/31 16:09:29.2	109.820	0.100	-0.690	0.190
2020/01/31 16:09:29.3	109.840	0.090	-0.620	0.170
2020/01/31 16:09:29.4	109.860	0.080	-0.550	0.150
2020/01/31 16:09:29.5	109.870	0.060	-0.470	0.140
2020/01/31 16:09:29.6	109.890	0.040	-0.390	0.120
2020/01/31 16:09:29.7	109.910	0.020	-0.310	0.110
2020/01/31 16:09:29.8	109.930	0.000	-0.220	0.100
2020/01/31 16:09:29.9	109.940	-0.020	-0.140	0.090
2020/01/31 16:09:30.0	109.960	-0.050	-0.050	0.080
2020/01/31 16:09:30.1	109.970	-0.080	0.040	0.070
2020/01/31 16:09:30.2	109.980	-0.100	0.120	0.070
2020/01/31 16:09:30.3	109.990	-0.130	0.200	0.060
2020/01/31 16:09:30.4	110.000	-0.160	0.280	0.070
2020/01/31 16:09:30.5	110.000	-0.190	0.360	0.070
2020/01/31 16:09:30.6	110.010	-0.220	0.430	0.070
2020/01/31 16:09:30.7	110.020	-0.250	0.500	0.080
2020/01/31 16:09:30.8	110.020	-0.280	0.570	0.090
2020/01/31 16:09:30.9	110.020	-0.300	0.620	0.100
2020/01/31 16:09:31.0	110.030	-0.330	0.670	0.110
2020/01/31 16:09:31.1	110.030	-0.350	0.720	0.120
2020/01/31 16:09:31.2	110.030	-0.370	0.750	0.140
2020/01/31 16:09:31.3	110.030	-0.380	0.780	0.160
2020/01/31 16:09:31.4	110.030	-0.400	0.810	0.170
2020/01/31 16:09:31.5	110.030	-0.410	0.820	0.190
2020/01/31 16:09:31.6	110.030	-0.410	0.830	0.210
2020/01/31 16:09:31.7	110.030	-0.420	0.830	0.230
2020/01/31 16:09:31.8	110.030	-0.420	0.820	0.250
2020/01/31 16:09:31.9	110.030	-0.420	0.810	0.270
2020/01/31 16:09:32.0	110.030	-0.410	0.790	0.290
2020/01/31 16:09:32.1	110.030	-0.400	0.770	0.310
2020/01/31 16:09:32.2	110.030	-0.390	0.740	0.320
2020/01/31 16:09:32.3	110.030	-0.380	0.700	0.350
2020/01/31 16:09:32.4	110.020	-0.360	0.660	0.360
2020/01/31 16:09:32.5	110.020	-0.340	0.610	0.380
2020/01/31 16:09:32.6	110.020	-0.320	0.560	0.400
2020/01/31 16:09:32.7	110.010	-0.300	0.500	0.420
2020/01/31 16:09:32.8	110.000	-0.270	0.450	0.440
2020/01/31 16:09:32.9	109.990	-0.240	0.390	0.460
2020/01/31 16:09:33.0	109.980	-0.220	0.320	0.480
2020/01/31 16:09:33.1	109.960	-0.190	0.260	0.500
2020/01/31 16:09:33.2	109.950	-0.160	0.190	0.520
2020/01/31 16:09:33.3	109.930	-0.130	0.130	0.540
2020/01/31 16:09:33.4	109.910	-0.100	0.060	0.560
2020/01/31 16:09:33.5	109.900	-0.070	-0.000	0.580
2020/01/31 16:09:33.6	109.880	-0.040	-0.070	0.590
2020/01/31 16:09:33.7	109.860	-0.010	-0.140	0.610
2020/01/31 16:09:33.8	109.840	0.020	-0.200	0.620
2020/01/31 16:09:33.9	109.820	0.050	-0.260	0.630
2020/01/31 16:09:34.0	109.800	0.070	-0.310	0.640
2020/01/31 16:09:34.1	109.790	0.100	-0.360	0.650
2020/01/31 16:09:34.2	109.770	0.120	-0.410	0.660
2020/01/31 16:09:34.3	109.750	0.150	-0.450	0.670
2020/01/31 16:09:34.4	109.740	0.160	-0.490	0.680
2020/01/31 16:09:34.5	109.720	0.180	-0.530	0.680
2020/01/31 16:09:34.6	109.710	0.200	-0.560	0.690
2020/01/31 16:09:34.7	109.700	0.210	-0.580	0.690
2020/01/31 16:09:34.8	109.690	0.220	-0.600	0.690
2020/01/31 16:09:34.9	109.680	0.230	-0.610	0.690
2020/01/31 16:09:35.0	109.680	0.240	-0.620	0.690
2020/01/31 16:09:35.1	109.670	0.250	-0.620	0.690
2020/01/31 16:09:35.2	109.670	0.250	-0.620	0.680
2020/01/31 16:09:35.3	109.670	0.250	-0.620	0.680
2020/01/31 16:09:35.4	109.680	0.250	-0.610	0.680
2020/01/31 16:09:35.5	109.680	0.250	-0.590	0.670
2020/01/31 16:09:35.6	109.690	0.250	-0.580	0.660
2020/01/31 16:09:35.7	109.700	0.250	-0.560	0.650
2020/01/31 16:09:35.8	109.710	0.240	-0.540	0.640
2020/01/31 16:09:35.9	109.720	0.240	-0.520	0.630
2020/01/31 16:09:36.0	109.740	0.230	-0.500	0.620
2020/01/31 16:09:36.1	109.760	0.230	-0.470	0.610
2020/01/31 16:09:36.2	109.780	0.220	-0.450	0.600
2020/01/31 16:09:36.3	109.810	0.210	-0.430	0.580
2020/01/31 16:09:36.4	109.830	0.210	-0.410	0.570
2020/01/31 16:09:36.5	109.860	0.200	-0.390	0.560
2020/01/31 16:09:36.6	109.890	0.200	-0.370	0.540
2020/01/31 16:09:36.7	109.920	0.190	-0.350	0.530
2020/01/31 16:09:36.8	109.940	0.190	-0.340	0.520
2020/01/31 16:09:36.9	109.970	0.190	-0.330	0.500
2020/01/31 16:09:37.0	110.000	0.180	-0.320	0.490
2020/01/31 16:09:37.1	110.030	0.180	-0.310	0.480
2020/01/31 16:09:37.2	110.050	0.180	-0.300	0.470
2020/01/31 16:09:37.3	110.080	0.180	-0.300	0.460
2020/01/31 16:09:37.4	110.100	0.180	-0.300	0.450
2020/01/31 16:09:37.5	110.120	0.180	-0.300	0.450
2020/01/31 16:09:37.6	110.140	0.190	-0.300	0.450
2020/01/31 16:09:37.7	110.150	0.190	-0.300	0.440
2020/01/31 16:09:37.8	110.160	0.190	-0.310	0.440
2020/01/31 16:09:37.9	110.170	0.200	-0.310	0.450
2020/01/31 16:09:38.0	110.180	0.200	-0.310	0.450
2020/01/31 16:09:38.1	110.180	0.210	-0.310	0.460
2020/01/31 16:09:38.2	110.190	0.210	-0.310	0.470
2020/01/31 16:09:38.3	110.180	0.210	-0.320	0.490
2020/01/31 16:09:38.4	110.180	0.220	-0.310	0.500
2020/01/31 16:09:38.5	110.170	0.220	-0.310	0.520
2020/01/31 16:09:38.6	110.170	0.230	-0.310	0.540
2020/01/31 16:09:38.7	110.150	0.230	-0.300	0.560
2020/01/31 16:09:38.8	110.140	0.230	-0.300	0.590
2020/01/31 16:09:38.9	110.120	0.240	-0.290	0.620
2020/01/31 16:09:39.0	110.100	0.240	-0.280	0.650
2020/01/31 16:09:39.1	110.080	0.240	-0.270	0.680
2020/01/31 16:09:39.2	110.060	0.240	-0.260	0.720
2020/01/31 16:09:39.3	110.030	0.240	-0.250	0.750
2020/01/31 16:09:39.4	110.000	0.240	-0.240	0.790
2020/01/31 16:09:39.5	109.980	0.240	-0.230	0.830
2020/01/31 16:09:39.6	109.950	0.240	-0.210	0.870
2020/01/31 16:09:39.7	109.910	0.230	-0.200	0.900
2020/01/31 16:09:39.8	109.880	0.230	-0.190	0.940
2020/01/31 16:09:39.9	109.850	0.230	-0.180	0.980
2020/01/31 16:09:40.0	109.820	0.220	-0.170	1.010
2020/01/31 16:09:40.1	109.790	0.220	-0.150	1.050
2020/01/31 16:09:40.2	109.760	0.210	-0.140	1.080
2020/01/31 16:09:40.3	109.740	0.200	-0.130	1.100
2020/01/31 16:09:40.4	109.710	0.190	-0.130	1.130
2020/01/31 16:09:40.5	109.690	0.190	-0.120	1.150
2020/01/31 16:09:40.6	109.670	0.180	-0.110	1.170
2020/01/31 16:09:40.7	109.650	0.170	-0.110	1.180
2020/01/31 16:09:40.8	109.640	0.160	-0.100	1.190
2020/01/31 16:09:40.9	109.620	0.150	-0.100	1.200
2020/01/31 16:09:41.0	109.620	0.140	-0.090	1.200
2020/01/31 16:09:41.1	109.610	0.130	-0.090	1.200
2020/01/31 16:09:41.2	109.600	0.120	-0.090	1.190
2020/01/31 16:09:41.3	109.600	0.100	-0.080	1.180
2020/01/31 16:09:41.4	109.600	0.090	-0.080	1.170
2020/01/31 16:09:41.5	109.610	0.080	-0.080	1.160
2020/01/31 16:09:41.6	109.610	0.070	-0.080	1.140
2020/01/31 16:09:41.7	109.620	0.050	-0.070	1.120
2020/01/31 16:09:41.8	109.630	0.040	-0.070	1.090
2020/01/31 16:09:41.9	109.640	0.030	-0.080	1.070
2020/01/31 16:09:42.0	109.650	0.010	-0.080	1.040
2020/01/31 16:09:42.1	109.660	0.000	-0.080	1.010
2020/01/31 16:09:42.2	109.670	-0.010	-0.080	0.980
2020/01/31 16:09:42.3	109.690	-0.030	-0.080	0.950
2020/01/31 16:09:42.4	109.700	-0.040	-0.080	0.920
2020/01/31 16:09:42.5	109.710	-0.060	-0.090	0.880
2020/01/31 16:09:42.6	109.720	-0.070	-0.090	0.850
2020/01/31 16:09:42.7	109.730	-0.090	-0.090	0.810
2020/01/31 16:09:42.8	109.740	-0.110	-0.100	0.780
2020/01/31 16:09:42.9	109.750	-0.120	-0.100	0.740
2020/01/31 16:09:43.0	109.760	-0.140	-0.100	0.710
2020/01/31 16:09:43.1	109.760	-0.160	-0.100	0.670
2020/01/31 16:09:43.2	109.770	-0.180	-0.100	0.640
2020/01/31 16:09:43.3	109.770	-0.190	-0.100	0.610
2020/01/31 16:09:43.4	109.770	-0.210	-0.100	0.580
2020/01/31 16:09:43.5	109.770	-0.230	-0.100	0.550
2020/01/31 16:09:43.6	109.770	-0.250	-0.100	0.520
2020/01/31 16:09:43.7	109.770	-0.270	-0.100	0.490
2020/01/31 16:09:43.8	109.760	-0.290	-0.100	0.470
2020/01/31 16:09:43.9	109.760	-0.300	-0.090	0.450
2020/01/31 16:09:44.0	109.750	-0.320	-0.090	0.430
2020/01/31 16:09:44.1	109.740	-0.340	-0.080	0.410
2020/01/31 16:09:44.2	109.740	-0.360	-0.070	0.400
2020/01/31 16:09:44.3	109.730	-0.380	-0.070	0.390
2020/01/31 16:09:44.4	109.710	-0.390	-0.060	0.380
2020/01/31 16:09:44.5	109.700	-0.410	-0.050	0.370
2020/01/31 16:09:44.6	109.690	-0.420	-0.040	0.360
2020/01/31 16:09:44.7	109.680	-0.440	-0.030	0.360
2020/01/31 16:09:44.8	109.670	-0.450	-0.030	0.360
2020/01/31 16:09:44.9	109.660	-0.460	-0.020	0.360
2020/01/31 16:09:45.0	109.650	-0.470	-0.010	0.370
2020/01/31 16:09:45.1	109.630	-0.480	-0.010	0.370
2020/01/31 16:09:45.2	109.620	-0.490	-0.000	0.380
2020/01/31 16:09:45.3	109.610	-0.490	-0.000	0.390
2020/01/31 16:09:45.4	109.600	-0.500	-0.000	0.400
2020/01/31 16:09:45.5	109.590	-0.500	-0.010	0.410
2020/01/31 16:09:45.6	109.580	-0.500	-0.010	0.420
2020/01/31 16:09:45.7	109.570	-0.490	-0.020	0.420
2020/01/31 16:09:45.8	109.560	-0.490	-0.030	0.440
2020/01/31 16:09:45.9	109.560	-0.480	-0.050	0.450
2020/01/31 16:09:46.0	109.550	-0.470	-0.070	0.460
2020/01/31 16:09:46.1	109.550	-0.450	-0.090	0.470
2020/01/31 16:09:46.2	109.550	-0.440	-0.120	0.470
2020/01/31 16:09:46.3	109.550	-0.420	-0.150	0.480
2020/01/31 16:09:46.4	109.550	-0.400	-0.180	0.490
2020/01/31 16:09:46.5	109.560	-0.370	-0.220	0.490
2020/01/31 16:09:46.6	109.560	-0.350	-0.260	0.500
2020/01/31 16:09:46.7	109.560	-0.320	-0.300	0.500
2020/01/31 16:09:46.8	109.570	-0.290	-0.340	0.500
2020/01/31 16:09:46.9	109.580	-0.260	-0.380	0.500
2020/01/31 16:09:47.0	109.590	-0.220	-0.420	0.500
2020/01/31 16:09:47.1	109.600	-0.190	-0.470	0.490
2020/01/31 16:09:47.2	109.610	-0.150	-0.510	0.490
2020/01/31 16:09:47.3	109.610	-0.110	-0.550	0.480
2020/01/31 16:09:47.4	109.620	-0.080	-0.590	0.470
2020/01/31 16:09:47.5	109.630	-0.040	-0.620	0.460
2020/01/31 16:09:47.6	109.640	-0.000	-0.650	0.450
2020/01/31 16:09:47.7	109.650	0.040	-0.680	0.440
2020/01/31 16:09:47.8	109.660	0.070	-0.700	0.430
2020/01/31 16:09:47.9	109.670	0.110	-0.720	0.420
2020/01/31 16:09:48.0	109.670	0.140	-0.740	0.410
2020/01/31 16:09:48.1	109.680	0.170	-0.750	0.390
2020/01/31 16:09:48.2	109.680	0.200	-0.750	0.370
2020/01/31 16:09:48.3	109.690	0.230	-0.740	0.360
2020/01/31 16:09:48.4	109.700	0.250	-0.730	0.340
2020/01/31 16:09:48.5	109.700	0.270	-0.710	0.330
2020/01/31 16:09:48.6	109.710	0.290	-0.690	0.310
2020/01/31 16:09:48.7	109.710	0.300	-0.660	0.290
2020/01/31 16:09:48.8	109.720	0.310	-0.620	0.280
2020/01/31 16:09:48.9	109.720	0.320	-0.580	0.270
2020/01/31 16:09:49.0	109.730	0.320	-0.530	0.260
2020/01/31 16:09:49.1	109.730	0.320	-0.480	0.250
2020/01/31 16:09:49.2	109.740	0.320	-0.420	0.240
2020/01/31 16:09:49.3	109.740	0.310	-0.350	0.240
2020/01/31 16:09:49.4	109.740	0.300	-0.280	0.230
2020/01/31 16:09:49.5	109.740	0.290	-0.210	0.230
2020/01/31 16:09:49.6	109.750	0.270	-0.140	0.240
2020/01/31 16:09:49.7	109.740	0.250	-0.060	0.240
2020/01/31 16:09:49.8	109.740	0.230	0.010	0.250
2020/01/31 16:09:49.9	109.740	0.200	0.090	0.260
2020/01/31 16:09:50.0	109.740	0.170	0.160	0.270
2020/01/31 16:09:50.1	109.740	0.140	0.240	0.290
2020/01/31 16:09:50.2	109.740	0.110	0.310	0.300
2020/01/31 16:09:50.3	109.740	0.080	0.380	0.320
2020/01/31 16:09:50.4	109.750	0.050	0.440	0.340
2020/01/31 16:09:50.5	109.750	0.010	0.500	0.360
2020/01/31 16:09:50.6	109.750	-0.020	0.560	0.380
2020/01/31 16:09:50.7	109.750	-0.060	0.610	0.400
2020/01/31 16:09:50.8	109.750	-0.090	0.650	0.420
2020/01/31 16:09:50.9	109.750	-0.120	0.690	0.440
2020/01/31 16:09:51.0	109.760	-0.150	0.730	0.460
2020/01/31 16:09:51.1	109.760	-0.180	0.750	0.480
2020/01/31 16:09:51.2	109.760	-0.210	0.770	0.500
2020/01/31 16:09:51.3	109.770	-0.240	0.780	0.520
2020/01/31 16:09:51.4	109.770	-0.260	0.780	0.530
2020/01/31 16:09:51.5	109.770	-0.280	0.780	0.550
2020/01/31 16:09:51.6	109.780	-0.290	0.760	0.560
2020/01/31 16:09:51.7	109.780	-0.300	0.750	0.570
2020/01/31 16:09:51.8	109.780	-0.310	0.720	0.580
2020/01/31 16:09:51.9	109.790	-0.310	0.680	0.600
2020/01/31 16:09:52.0	109.790	-0.310	0.630	0.600
2020/01/31 16:09:52.1	109.800	-0.310	0.580	0.610
2020/01/31 16:09:52.2	109.800	-0.300	0.520	0.620
2020/01/31 16:09:52.3	109.800	-0.280	0.450	0.620
2020/01/31 16:09:52.4	109.800	-0.260	0.380	0.630
2020/01/31 16:09:52.5	109.800	-0.240	0.300	0.630
2020/01/31 16:09:52.6	109.800	-0.210	0.220	0.630
2020/01/31 16:09:52.7	109.800	-0.180	0.120	0.630
2020/01/31 16:09:52.8	109.800	-0.140	0.030	0.630
2020/01/31 16:09:52.9	109.790	-0.100	-0.060	0.640
2020/01/31 16:09:53.0	109.790	-0.060	-0.150	0.630
2020/01/31 16:09:53.1	109.780	-0.020	-0.240	0.640
2020/01/31 16:09:53.2	109.780	0.030	-0.340	0.630
2020/01/31 16:09:53.3	109.770	0.080	-0.430	0.630
2020/01/31 16:09:53.4	109.760	0.130	-0.520	0.640
2020/01/31 16:09:53.5	109.750	0.180	-0.600	0.640
2020/01/31 16:09:53.6	109.750	0.230	-0.690	0.640
2020/01/31 16:09:53.7	109.730	0.280	-0.760	0.640
2020/01/31 16:09:53.8	109.720	0.330	-0.830	0.640
2020/01/31 16:09:53.9	109.710	0.370	-0.900	0.650
2020/01/31 16:09:54.0	109.710	0.420	-0.960	0.660
2020/01/31 16:09:54.1	109.700	0.460	-1.010	0.670
2020/01/31 16:09:54.2	109.690	0.510	-1.060	0.690
2020/01/31 16:09:54.3	109.680	0.550	-1.090	0.700
2020/01/31 16:09:54.4	109.670	0.580	-1.120	0.720
2020/01/31 16:09:54.5	109.670	0.610	-1.150	0.740
2020/01/31 16:09:54.6	109.660	0.640	-1.160	0.760
2020/01/31 16:09:54.7	109.650	0.670	-1.170	0.790
2020/01/31 16:09:54.8	109.640	0.690	-1.170	0.820
2020/01/31 16:09:54.9	109.640	0.700	-1.160	0.840
2020/01/31 16:09:55.0	109.630	0.710	-1.140	0.870
2020/01/31 16:09:55.1	109.620	0.720	-1.120	0.900
2020/01/31 16:09:55.2	109.620	0.730	-1.090	0.940
2020/01/31 16:09:55.3	109.610	0.720	-1.060	0.970
2020/01/31 16:09:55.4	109.600	0.720	-1.010	1.000
2020/01/31 16:09:55.5	109.590	0.710	-0.970	1.030
2020/01/31 16:09:55.6	109.580	0.700	-0.920	1.050
2020/01/31 16:09:55.7	109.580	0.680	-0.860	1.080
2020/01/31 16:09:55.8	109.570	0.660	-0.800	1.100
2020/01/31 16:09:55.9	109.570	0.640	-0.730	1.120
2020/01/31 16:09:56.0	109.560	0.610	-0.670	1.140
2020/01/31 16:09:56.1	109.550	0.580	-0.600	1.160
2020/01/31 16:09:56.2	109.540	0.550	-0.530	1.170
2020/01/31 16:09:56.3	109.530	0.520	-0.460	1.170
2020/01/31 16:09:56.4	109.520	0.480	-0.380	1.180
2020/01/31 16:09:56.5	109.520	0.440	-0.310	1.170
2020/01/31 16:09:56.6	109.510	0.400	-0.230	1.170
2020/01/31 16:09:56.7	109.500	0.360	-0.160	1.160
2020/01/31 16:09:56.8	109.500	0.310	-0.090	1.140
2020/01/31 16:09:56.9	109.490	0.270	-0.020	1.120
2020/01/31 16:09:57.0	109.480	0.220	0.050	1.100
2020/01/31 16:09:57.1	109.480	0.180	0.120	1.080
2020/01/31 16:09:57.2	109.470	0.130	0.190	1.050
2020/01/31 16:09:57.3	109.470	0.080	0.250	1.020
2020/01/31 16:09:57.4	109.460	0.040	0.310	0.990
2020/01/31 16:09:57.5	109.460	-0.010	0.370	0.960
2020/01/31 16:09:57.6	109.460	-0.060	0.430	0.930
2020/01/31 16:09:57.7	109.460	-0.100	0.480	0.900
2020/01/31 16:09:57.8	109.460	-0.150	0.530	0.870
2020/01/31 16:09:57.9	109.460	-0.190	0.570	0.840
2020/01/31 16:09:58.0	109.460	-0.230	0.610	0.810
2020/01/31 16:09:58.1	109.460	-0.270	0.640	0.780
2020/01/31 16:09:58.2	109.470	-0.310	0.660	0.760
2020/01/31 16:09:58.3	109.480	-0.350	0.680	0.730
2020/01/31 16:09:58.4	109.480	-0.380	0.700	0.710
2020/01/31 16:09:58.5	109.490	-0.410	0.710	0.690
2020/01/31 16:09:58.6	109.500	-0.440	0.710	0.670
2020/01/31 16:09:58.7	109.510	-0.470	0.700	0.660
2020/01/31 16:09:58.8	109.520	-0.490	0.690	0.640
2020/01/31 16:09:58.9	109.540	-0.510	0.670	0.630
2020/01/31 16:09:59.0	109.550	-0.520	0.640	0.610
2020/01/31 16:09:59.1	109.570	-0.540	0.610	0.600
2020/01/31 16:09:59.2	109.580	-0.550	0.570	0.590
2020/01/31 16:09:59.3	109.600	-0.550	0.520	0.580
2020/01/31 16:09:59.4	109.620	-0.550	0.460	0.570
2020/01/31 16:09:59.5	109.640	-0.550	0.400	0.570
2020/01/31 16:09:59.6	109.660	-0.550	0.340	0.560
2020/01/31 16:09:59.7	109.680	-0.540	0.270	0.550
2020/01/31 16:09:59.8	109.700	-0.530	0.190	0.540
2020/01/31 16:09:59.9	109.720	-0.520	0.110	0.530
2020/01/31 16:10:00.0	109.740	-0.500	0.030	0.520
2020/01/31 16:10:00.1	109.760	-0.480	-0.060	0.510
2020/01/31 16:10:00.2	109.780	-0.460	-0.150	0.500
2020/01/31 16:10:00.3	109.800	-0.440	-0.240	0.500
2020/01/31 16:10:00.4	109.820	-0.410	-0.330	0.490
2020/01/31 16:10:00.5	109.840	-0.390	-0.410	0.480
2020/01/31 16:10:00.6	109.860	-0.360	-0.500	0.470
2020/01/31 16:10:00.7	109.880	-0.330	-0.580	0.450
2020/01/31 16:10:00.8	109.900	-0.300	-0.660	0.440
2020/01/31 16:10:00.9	109.910	-0.280	-0.740	0.430
2020/01/31 16:10:01.0	109.920	-0.250	-0.800	0.420
2020/01/31 16:10:01.1	109.940	-0.220	-0.870	0.410
2020/01/31 16:10:01.2	109.950	-0.200	-0.920	0.410
2020/01/31 16:10:01.3	109.960	-0.170	-0.970	0.400
2020/01/31 16:10:01.4	109.970	-0.150	-1.010	0.400
2020/01/31 16:10:01.5	109.970	-0.130	-1.040	0.390
2020/01/31 16:10:01.6	109.980	-0.110	-1.060	0.390
2020/01/31 16:10:01.7	109.980	-0.090	-1.070	0.390
2020/01/31 16:10:01.8	109.990	-0.080	-1.070	0.390
2020/01/31 16:10:01.9	109.990	-0.070	-1.060	0.400
2020/01/31 16:10:02.0	110.000	-0.060	-1.040	0.410
2020/01/31 16:10:02.1	110.000	-0.060	-1.020	0.420
2020/01/31 16:10:02.2	110.000	-0.060	-0.980	0.430
2020/01/31 16:10:02.3	110.000	-0.060	-0.940	0.450
2020/01/31 16:10:02.4	110.000	-0.060	-0.890	0.460
2020/01/31 16:10:02.5	110.000	-0.070	-0.830	0.480
2020/01/31 16:10:02.6	110.000	-0.070	-0.770	0.500
2020/01/31 16:10:02.7	110.000	-0.080	-0.700	0.520
2020/01/31 16:10:02.8	110.000	-0.100	-0.630	0.550
2020/01/31 16:10:02.9	110.000	-0.110	-0.550	0.570
2020/01/31 16:10:03.0	110.000	-0.130	-0.470	0.600
2020/01/31 16:10:03.1	110.000	-0.150	-0.390	0.630
2020/01/31 16:10:03.2	110.000	-0.160	-0.310	0.660
2020/01/31 16:10:03.3	109.990	-0.180	-0.220	0.690
2020/01/31 16:10:03.4	109.990	-0.200	-0.140	0.720
2020/01/31 16:10:03.5	109.990	-0.220	-0.060	0.740
2020/01/31 16:10:03.6	109.990	-0.240	0.010	0.770
2020/01/31 16:10:03.7	109.980	-0.260	0.080	0.800
2020/01/31 16:10:03.8	109.970	-0.280	0.150	0.830
2020/01/31 16:10:03.9	109.970	-0.300	0.210	0.860
2020/01/31 16:10:04.0	109.960	-0.310	0.270	0.880
2020/01/31 16:10:04.1	109.950	-0.320	0.320	0.910
2020/01/31 16:10:04.2	109.940	-0.340	0.370	0.930
2020/01/31 16:10:04.3	109.930	-0.340	0.410	0.950
2020/01/31 16:10:04.4	109.920	-0.350	0.440	0.960
2020/01/31 16:10:04.5	109.910	-0.360	0.470	0.980
2020/01/31 16:10:04.6	109.890	-0.360	0.490	0.990
2020/01/31 16:10:04.7	109.870	-0.350	0.510	1.000
2020/01/31 16:10:04.8	109.850	-0.350	0.510	1.000
2020/01/31 16:10:04.9	109.840	-0.340	0.510	1.010
2020/01/31 16:10:05.0	109.810	-0.330	0.500	1.010
2020/01/31 16:10:05.1	109.790	-0.320	0.490	1.000
2020/01/31 16:10:05.2	109.770	-0.300	0.470	1.000
2020/01/31 16:10:05.3	109.740	-0.280	0.450	0.990
2020/01/31 16:10:05.4	109.720	-0.260	0.420	0.970
2020/01/31 16:10:05.5	109.690	-0.230	0.380	0.960
2020/01/31 16:10:05.6	109.660	-0.200	0.340	0.940
2020/01/31 16:10:05.7	109.640	-0.170	0.300	0.920
2020/01/31 16:10:05.8	109.610	-0.140	0.250	0.900
2020/01/31 16:10:05.9	109.580	-0.110	0.200	0.870
2020/01/31 16:10:06.0	109.550	-0.070	0.150	0.850
2020/01/31 16:10:06.1	109.520	-0.030	0.100	0.820
2020/01/31 16:10:06.2	109.490	0.000	0.050	0.790
2020/01/31 16:10:06.3	109.470	0.040	-0.000	0.760
2020/01/31 16:10:06.4	109.440	0.080	-0.060	0.730
2020/01/31 16:10:06.5	109.410	0.120	-0.110	0.700
2020/01/31 16:10:06.6	109.390	0.160	-0.160	0.670
2020/01/31 16:10:06.7	109.370	0.200	-0.210	0.630
2020/01/31 16:10:06.8	109.350	0.240	-0.250	0.600
2020/01/31 16:10:06.9	109.330	0.280	-0.300	0.560
2020/01/31 16:10:07.0	109.310	0.320	-0.340	0.530
2020/01/31 16:10:07.1	109.300	0.350	-0.380	0.500
2020/01/31 16:10:07.2	109.290	0.380	-0.410	0.470
2020/01/31 16:10:07.3	109.280	0.420	-0.440	0.440
2020/01/31 16:10:07.4	109.280	0.440	-0.470	0.410
2020/01/31 16:10:07.5	109.270	0.470	-0.500	0.370
2020/01/31 16:10:07.6	109.270	0.490	-0.520	0.340
2020/01/31 16:10:07.7	109.280	0.510	-0.540	0.310
2020/01/31 16:10:07.8	109.280	0.530	-0.550	0.280
2020/01/31 16:10:07.9	109.290	0.550	-0.560	0.250
2020/01/31 16:10:08.0	109.310	0.560	-0.570	0.220
2020/01/31 16:10:08.1	109.320	0.570	-0.570	0.190
2020/01/31 16:10:08.2	109.340	0.570	-0.570	0.160
2020/01/31 16:10:08.3	109.370	0.570	-0.560	0.130
2020/01/31 16:10:08.4	109.390	0.570	-0.560	0.100
2020/01/31 16:10:08.5	109.420	0.570	-0.540	0.070
2020/01/31 16:10:08.6	109.450	0.560	-0.530	0.040
2020/01/31 16:10:08.7	109.480	0.550	-0.510	0.000
2020/01/31 16:10:08.8	109.510	0.540	-0.490	-0.030
2020/01/31 16:10:08.9	109.550	0.530	-0.470	-0.060
2020/01/31 16:10:09.0	109.590	0.510	-0.440	-0.090
2020/01/31 16:10:09.1	109.630	0.500	-0.410	-0.120
2020/01/31 16:10:09.2	109.670	0.480	-0.380	-0.150
2020/01/31 16:10:09.3	109.710	0.460	-0.350	-0.180
2020/01/31 16:10:09.4	109.750	0.440	-0.320	-0.200
2020/01/31 16:10:09.5	109.790	0.410	-0.290	-0.230
2020/01/31 16:10:09.6	109.830	0.390	-0.250	-0.250
2020/01/31 16:10:09.7	109.860	0.370	-0.220	-0.270
2020/01/31 16:10:09.8	109.900	0.350	-0.190	-0.280
2020/01/31 16:10:09.9	109.930	0.330	-0.160	-0.290
2020/01/31 16:10:10.0	109.960	0.310	-0.130	-0.290
2020/01/31 16:10:10.1	109.990	0.290	-0.100	-0.290
2020/01/31 16:10:10.2	110.010	0.270	-0.070	-0.280
2020/01/31 16:10:10.3	110.030	0.250	-0.050	-0.270
2020/01/31 16:10:10.4	110.050	0.240	-0.030	-0.250
2020/01/31 16:10:10.5	110.070	0.220	-0.010	-0.230
2020/01/31 16:10:10.6	110.080	0.210	-0.000	-0.200
2020/01/31 16:10:10.7	110.090	0.200	0.010	-0.170
2020/01/31 16:10:10.8	110.100	0.190	0.020	-0.130
2020/01/31 16:10:10.9	110.100	0.180	0.020	-0.090
2020/01/31 16:10:11.0	110.090	0.180	0.020	-0.040
2020/01/31 16:10:11.1	110.090	0.170	0.020	0.000
2020/01/31 16:10:11.2	110.080	0.170	0.010	0.060
2020/01/31 16:10:11.3	110.070	0.170	0.000	0.110
2020/01/31 16:10:11.4	110.050	0.160	-0.010	0.170
2020/01/31 16:10:11.5	110.040	0.160	-0.020	0.230
2020/01/31 16:10:11.6	110.020	0.160	-0.040	0.300
2020/01/31 16:10:11.7	109.990	0.160	-0.060	0.360
2020/01/31 16:10:11.8	109.970	0.160	-0.080	0.430
2020/01/31 16:10:11.9	109.950	0.160	-0.110	0.500
2020/01/31 16:10:12.0	109.930	0.160	-0.130	0.570
2020/01/31 16:10:12.1	109.900	0.160	-0.150	0.650
2020/01/31 16:10:12.2	109.880	0.150	-0.170	0.720
2020/01/31 16:10:12.3	109.850	0.150	-0.200	0.800
2020/01/31 16:10:12.4	109.830	0.140	-0.220	0.870
2020/01/31 16:10:12.5	109.800	0.140	-0.240	0.950
2020/01/31 16:10:12.6	109.780	0.130	-0.260	1.020
2020/01/31 16:10:12.7	109.760	0.120	-0.270	1.100
2020/01/31 16:10:12.8	109.740	0.110	-0.290	1.170
2020/01/31 16:10:12.9	109.720	0.100	-0.300	1.240
2020/01/31 16:10:13.0	109.700	0.080	-0.310	1.310
2020/01/31 16:10:13.1	109.690	0.070	-0.320	1.370
2020/01/31 16:10:13.2	109.670	0.050	-0.330	1.430
2020/01/31 16:10:13.3	109.660	0.040	-0.330	1.490
2020/01/31 16:10:13.4	109.660	0.020	-0.330	1.540
2020/01/31 16:10:13.5	109.650	-0.010	-0.330	1.590
2020/01/31 16:10:13.6	109.650	-0.030	-0.320	1.640
2020/01/31 16:10:13.7	109.640	-0.050	-0.320	1.680
2020/01/31 16:10:13.8	109.640	-0.070	-0.310	1.710
2020/01/31 16:10:13.9	109.650	-0.100	-0.290	1.750
2020/01/31 16:10:14.0	109.660	-0.120	-0.270	1.780
2020/01/31 16:10:14.1	109.660	-0.150	-0.250	1.800
2020/01/31 16:10:14.2	109.670	-0.170	-0.230	1.820
2020/01/31 16:10:14.3	109.680	-0.200	-0.200	1.840
2020/01/31 16:10:14.4	109.690	-0.230	-0.170	1.860
2020/01/31 16:10:14.5	109.700	-0.250	-0.140	1.870
2020/01/31 16:10:14.6	109.710	-0.280	-0.110	1.880
2020/01/31 16:10:14.7	109.730	-0.300	-0.080	1.890
2020/01/31 16:10:14.8	109.740	-0.330	-0.050	1.890
2020/01/31 16:10:14.9	109.750	-0.350	-0.020	1.900
2020/01/31 16:10:15.0	109.760	-0.370	0.020	1.900
2020/01/31 16:10:15.1	109.770	-0.390	0.050	1.900
2020/01/31 16:10:15.2	109.770	-0.410	0.080	1.900
2020/01/31 16:10:15.3	109.780	-0.430	0.100	1.890
2020/01/31 16:10:15.4	109.790	-0.440	0.130	1.880
2020/01/31 16:10:15.5	109.790	-0.460	0.160	1.870
2020/01/31 16:10:15.6	109.800	-0.470	0.180	1.860
2020/01/31 16:10:15.7	109.810	-0.480	0.200	1.840
2020/01/31 16:10:15.8	109.810	-0.490	0.220	1.830
2020/01/31 16:10:15.9	109.820	-0.500	0.230	1.800
2020/01/31 16:10:16.0	109.820	-0.510	0.240	1.780
2020/01/31 16:10:16.1	109.820	-0.520	0.250	1.750
2020/01/31 16:10:16.2	109.830	-0.520	0.250	1.720
2020/01/31 16:10:16.3	109.830	-0.520	0.250	1.690
2020/01/31 16:10:16.4	109.830	-0.530	0.250	1.650
2020/01/31 16:10:16.5	109.830	-0.530	0.240	1.610
2020/01/31 16:10:16.6	109.840	-0.520	0.230	1.560
2020/01/31 16:10:16.7	109.830	-0.520	0.200	1.510
2020/01/31 16:10:16.8	109.840	-0.520	0.180	1.470
2020/01/31 16:10:16.9	109.840	-0.510	0.160	1.420
2020/01/31 16:10:17.0	109.840	-0.500	0.130	1.370
2020/01/31 16:10:17.1	109.850	-0.490	0.090	1.310
2020/01/31 16:10:17.2	109.850	-0.480	0.060	1.260
2020/01/31 16:10:17.3	109.860	-0.470	0.010	1.200
2020/01/31 16:10:17.4	109.860	-0.460	-0.030	1.150
2020/01/31 16:10:17.5	109.870	-0.440	-0.080	1.090
2020/01/31 16:10:17.6	109.870	-0.420	-0.130	1.040
2020/01/31 16:10:17.7	109.880	-0.410	-0.180	0.990
2020/01/31 16:10:17.8	109.890	-0.390	-0.240	0.940
2020/01/31 16:10:17.9	109.900	-0.370	-0.290	0.890
2020/01/31 16:10:18.0	109.900	-0.340	-0.350	0.840
2020/01/31 16:10:18.1	109.910	-0.320	-0.420	0.790
2020/01/31 16:10:18.2	109.920	-0.290	-0.480	0.750
2020/01/31 16:10:18.3	109.920	-0.270	-0.540	0.710
2020/01/31 16:10:18.4	109.930	-0.240	-0.600	0.680
2020/01/31 16:10:18.5	109.930	-0.210	-0.660	0.650
2020/01/31 16:10:18.6	109.930	-0.180	-0.720	0.620
2020/01/31 16:10:18.7	109.930	-0.150	-0.780	0.590
2020/01/31 16:10:18.8	109.940	-0.120	-0.840	0.570
2020/01/31 16:10:18.9	109.930	-0.090	-0.890	0.540
2020/01/31 16:10:19.0	109.930	-0.060	-0.930	0.520
2020/01/31 16:10:19.1	109.930	-0.030	-0.970	0.510
2020/01/31 16:10:19.2	109.920	-0.000	-1.010	0.490
2020/01/31 16:10:19.3	109.920	0.030	-1.030	0.480
2020/01/31 16:10:19.4	109.910	0.050	-1.050	0.460
2020/01/31 16:10:19.5	109.900	0.080	-1.060	0.450
2020/01/31 16:10:19.6	109.880	0.110	-1.070	0.430
2020/01/31 16:10:19.7	109.860	0.130	-1.060	0.420
2020/01/31 16:10:19.8	109.840	0.160	-1.050	0.400
2020/01/31 16:10:19.9	109.830	0.180	-1.030	0.380
2020/01/31 16:10:20.0	109.810	0.200	-1.000	0.360
2020/01/31 16:10:20.1	109.800	0.210	-0.960	0.340
2020/01/31 16:10:20.2	109.780	0.230	-0.910	0.320
2020/01/31 16:10:20.3	109.760	0.240	-0.850	0.290
2020/01/31 16:10:20.4	109.750	0.250	-0.790	0.260
2020/01/31 16:10:20.5	109.730	0.250	-0.720	0.230
2020/01/31 16:10:20.6	109.720	0.260	-0.640	0.200
2020/01/31 16:10:20.7	109.700	0.260	-0.550	0.160
2020/01/31 16:10:20.8	109.680	0.250	-0.460	0.130
2020/01/31 16:10:20.9	109.670	0.250	-0.370	0.090
2020/01/31 16:10:21.0	109.670	0.240	-0.280	0.050
2020/01/31 16:10:21.1	109.660	0.230	-0.180	0.010
2020/01/31 16:10:21.2	109.650	0.220	-0.080	-0.030
2020/01/31 16:10:21.3	109.650	0.210	0.020	-0.080
2020/01/31 16:10:21.4	109.650	0.200	0.110	-0.120
2020/01/31 16:10:21.5	109.650	0.180	0.210	-0.160
2020/01/31 16:10:21.6	109.650	0.160	0.300	-0.200
2020/01/31 16:10:21.7	109.650	0.150	0.390	-0.240
2020/01/31 16:10:21.8	109.650	0.130	0.470	-0.280
2020/01/31 16:10:21.9	109.660	0.110	0.550	-0.320
2020/01/31 16:10:22.0	109.670	0.090	0.630	-0.360
2020/01/31 16:10:22.1	109.680	0.070	0.690	-0.390
2020/01/31 16:10:22.2	109.690	0.060	0.750	-0.420
2020/01/31 16:10:22.3	109.710	0.040	0.800	-0.450
2020/01/31 16:10:22.4	109.730	0.030	0.840	-0.480
2020/01/31 16:10:22.5	109.750	0.020	0.870	-0.510
2020/01/31 16:10:22.6	109.770	0.010	0.900	-0.530
2020/01/31 16:10:22.7	109.780	0.000	0.910	-0.550
2020/01/31 16:10:22.8	109.810	-0.000	0.920	-0.570
2020/01/31 16:10:22.9	109.830	-0.000	0.910	-0.590
2020/01/31 16:10:23.0	109.860	-0.000	0.900	-0.600
2020/01/31 16:10:23.1	109.890	0.000	0.870	-0.620
2020/01/31 16:10:23.2	109.910	0.010	0.840	-0.630
2020/01/31 16:10:23.3	109.940	0.020	0.790	-0.640
2020/01/31 16:10:23.4	109.970	0.040	0.740	-0.650
2020/01/31 16:10:23.5	110.000	0.060	0.690	-0.660
2020/01/31 16:10:23.6	110.030	0.080	0.620	-0.670
2020/01/31 16:10:23.7	110.050	0.110	0.550	-0.680
2020/01/31 16:10:23.8	110.080	0.130	0.470	-0.680
2020/01/31 16:10:23.9	110.100	0.170	0.390	-0.680
2020/01/31 16:10:24.0	110.130	0.200	0.300	-0.680
2020/01/31 16:10:24.1	110.150	0.230	0.210	-0.680
2020/01/31 16:10:24.2	110.170	0.270	0.120	-0.670
2020/01/31 16:10:24.3	110.190	0.310	0.020	-0.660
2020/01/31 16:10:24.4	110.210	0.340	-0.070	-0.650
2020/01/31 16:10:24.5	110.220	0.380	-0.170	-0.630
2020/01/31 16:10:24.6	110.240	0.420	-0.260	-0.620
2020/01/31 16:10:24.7	110.240	0.450	-0.360	-0.590
2020/01/31 16:10:24.8	110.250	0.490	-0.450	-0.570
2020/01/31 16:10:24.9	110.250	0.520	-0.540	-0.540
2020/01/31 16:10:25.0	110.250	0.550	-0.620	-0.500
2020/01/31 16:10:25.1	110.240	0.580	-0.700	-0.470
2020/01/31 16:10:25.2	110.230	0.610	-0.770	-0.420
2020/01/31 16:10:25.3	110.220	0.630	-0.840	-0.370
2020/01/31 16:10:25.4	110.200	0.650	-0.900	-0.320
2020/01/31 16:10:25.5	110.180	0.660	-0.950	-0.270
2020/01/31 16:10:25.6	110.160	0.670	-1.000	-0.200
2020/01/31 16:10:25.7	110.130	0.680	-1.040	-0.140
2020/01/31 16:10:25.8	110.100	0.680	-1.070	-0.070
2020/01/31 16:10:25.9	110.070	0.680	-1.090	0.010
2020/01/31 16:10:26.0	110.040	0.670	-1.100	0.090
2020/01/31 16:10:26.1	110.000	0.660	-1.110	0.180
2020/01/31 16:10:26.2	109.960	0.640	-1.110	0.270
2020/01/31 16:10:26.3	109.930	0.620	-1.100	0.360
2020/01/31 16:10:26.4	109.890	0.590	-1.090	0.450
2020/01/31 16:10:26.5	109.850	0.560	-1.070	0.550
2020/01/31 16:10:26.6	109.810	0.530	-1.040	0.650
2020/01/31 16:10:26.7	109.770	0.490	-1.000	0.750
2020/01/31 16:10:26.8	109.740	0.450	-0.960	0.850
2020/01/31 16:10:26.9	109.700	0.410	-0.910	0.950
2020/01/31 16:10:27.0	109.670	0.360	-0.850	1.050
2020/01/31 16:10:27.1	109.630	0.310	-0.800	1.150
2020/01/31 16:10:27.2	109.600	0.260	-0.740	1.250
2020/01/31 16:10:27.3	109.570	0.210	-0.670	1.340
2020/01/31 16:10:27.4	109.550	0.160	-0.600	1.430
2020/01/31 16:10:27.5	109.520	0.100	-0.530	1.520
2020/01/31 16:10:27.6	109.500	0.050	-0.460	1.610
2020/01/31 16:10:27.7	109.490	-0.010	-0.380	1.690
2020/01/31 16:10:27.8	109.470	-0.060	-0.310	1.760
2020/01/31 16:10:27.9	109.460	-0.120	-0.230	1.830
2020/01/31 16:10:28.0	109.440	-0.170	-0.150	1.900
2020/01/31 16:10:28.1	109.440	-0.230	-0.070	1.960
2020/01/31 16:10:28.2	109.430	-0.280	0.000	2.010
2020/01/31 16:10:28.3	109.430	-0.330	0.080	2.060
2020/01/31 16:10:28.4	109.430	-0.380	0.150	2.110
2020/01/31 16:10:28.5	109.440	-0.420	0.220	2.150
2020/01/31 16:10:28.6	109.440	-0.460	0.290	2.180
2020/01/31 16:10:28.7	109.460	-0.510	0.360	2.210
2020/01/31 16:10:28.8	109.470	-0.540	0.420	2.230
2020/01/31 16:10:28.9	109.480	-0.580	0.480	2.250
2020/01/31 16:10:29.0	109.500	-0.610	0.530	2.260
2020/01/31 16:10:29.1	109.520	-0.640	0.570	2.260
2020/01/31 16:10:29.2	109.540	-0.670	0.610	2.270
2020/01/31 16:10:29.3	109.560	-0.690	0.650	2.260
2020/01/31 16:10:29.4	109.580	-0.710	0.670	2.260
2020/01/31 16:10:29.5	109.600	-0.720	0.700	2.240
2020/01/31 16:10:29.6	109.630	-0.740	0.710	2.230
2020/01/31 16:10:29.7	109.640	-0.740	0.710	2.210
2020/01/31 16:10:29.8	109.660	-0.750	0.710	2.180
2020/01/31 16:10:29.9	109.680	-0.750	0.700	2.160
2020/01/31 16:10:30.0	109.710	-0.750	0.690	2.130
2020/01/31 16:10:30.1	109.730	-0.740	0.670	2.090
2020/01/31 16:10:30.2	109.740	-0.730	0.640	2.050
2020/01/31 16:10:30.3	109.760	-0.720	0.600	2.010
2020/01/31 16:10:30.4	109.780	-0.700	0.560	1.970
2020/01/31 16:10:30.5	109.800	-0.680	0.510	1.930
2020/01/31 16:10:30.6	109.810	-0.660	0.450	1.880
2020/01/31 16:10:30.7	109.820	-0.630	0.390	1.830
2020/01/31 16:10:30.8	109.830	-0.610	0.330	1.780
2020/01/31 16:10:30.9	109.840	-0.580	0.260	1.720
2020/01/31 16:10:31.0	109.850	-0.540	0.180	1.670
2020/01/31 16:10:31.1	109.860	-0.510	0.110	1.620
2020/01/31 16:10:31.2	109.870	-0.470	0.030	1.570
2020/01/31 16:10:31.3	109.870	-0.430	-0.050	1.510
2020/01/31 16:10:31.4	109.870	-0.390	-0.140	1.460
2020/01/31 16:10:31.5	109.870	-0.350	-0.220	1.410
2020/01/31 16:10:31.6	109.870	-0.310	-0.300	1.360
2020/01/31 16:10:31.7	109.870	-0.270	-0.380	1.310
2020/01/31 16:10:31.8	109.870	-0.230	-0.460	1.270
2020/01/31 16:10:31.9	109.870	-0.190	-0.540	1.220
2020/01/31 16:10:32.0	109.860	-0.150	-0.610	1.180
2020/01/31 16:10:32.1	109.850	-0.110	-0.680	1.150
2020/01/31 16:10:32.2	109.840	-0.070	-0.740	1.110
2020/01/31 16:10:32.3	109.830	-0.030	-0.790	1.080
2020/01/31 16:10:32.4	109.810	0.010	-0.850	1.050
2020/01/31 16:10:32.5	109.800	0.040	-0.890	1.020
2020/01/31 16:10:32.6	109.780	0.070	-0.930	0.990
2020/01/31 16:10:32.7	109.760	0.100	-0.960	0.970
2020/01/31 16:10:32.8	109.750	0.130	-0.980	0.940
2020/01/31 16:10:32.9	109.730	0.150	-1.000	0.920
2020/01/31 16:10:33.0	109.710	0.180	-1.010	0.900
2020/01/31 16:10:33.1	109.690	0.190	-1.010	0.880
2020/01/31 16:10:33.2	109.670	0.210	-1.000	0.860
2020/01/31 16:10:33.3	109.660	0.230	-0.980	0.840
2020/01/31 16:10:33.4	109.640	0.240	-0.960	0.820
2020/01/31 16:10:33.5	109.630	0.250	-0.930	0.790
2020/01/31 16:10:33.6	109.620	0.250	-0.900	0.770
2020/01/31 16:10:33.7	109.610	0.260	-0.860	0.730
2020/01/31 16:10:33.8	109.610	0.260	-0.810	0.700
2020/01/31 16:10:33.9	109.600	0.260	-0.760	0.670
2020/01/31 16:10:34.0	109.600	0.260	-0.710	0.640
2020/01/31 16:10:34.1	109.600	0.260	-0.650	0.600
2020/01/31 16:10:34.2	109.610	0.260	-0.590	0.560
2020/01/31 16:10:34.3	109.610	0.250	-0.530	0.520
2020/01/31 16:10:34.4	109.620	0.250	-0.470	0.470
2020/01/31 16:10:34.5	109.630	0.240	-0.410	0.430
2020/01/31 16:10:34.6	109.630	0.230	-0.340	0.380
2020/01/31 16:10:34.7	109.640	0.230	-0.280	0.340
2020/01/31 16:10:34.8	109.650	0.220	-0.220	0.290
2020/01/31 16:10:34.9	109.660	0.210	-0.160	0.250
2020/01/31 16:10:35.0	109.670	0.200	-0.110	0.200
2020/01/31 16:10:35.1	109.680	0.200	-0.060	0.150
2020/01/31 16:10:35.2	109.680	0.190	-0.010	0.110
2020/01/31 16:10:35.3	109.690	0.190	0.040	0.070
2020/01/31 16:10:35.4	109.690	0.180	0.080	0.030
2020/01/31 16:10:35.5	109.690	0.180	0.110	-0.010
2020/01/31 16:10:35.6	109.690	0.170	0.140	-0.050
2020/01/31 16:10:35.7	109.680	0.170	0.170	-0.090
2020/01/31 16:10:35.8	109.680	0.170	0.190	-0.120
2020/01/31 16:10:35.9	109.670	0.170	0.210	-0.160
2020/01/31 16:10:36.0	109.660	0.170	0.220	-0.190
2020/01/31 16:10:36.1	109.650	0.170	0.230	-0.220
2020/01/31 16:10:36.2	109.640	0.170	0.240	-0.240
2020/01/31 16:10:36.3	109.620	0.170	0.250	-0.270
2020/01/31 16:10:36.4	109.610	0.170	0.250	-0.290
2020/01/31 16:10:36.5	109.600	0.170	0.250	-0.310
2020/01/31 16:10:36.6	109.590	0.170	0.250	-0.330
2020/01/31 16:10:36.7	109.570	0.170	0.240	-0.350
2020/01/31 16:10:36.8	109.560	0.160	0.240	-0.370
2020/01/31 16:10:36.9	109.540	0.160	0.240	-0.380
2020/01/31 16:10:37.0	109.530	0.160	0.230	-0.390
2020/01/31 16:10:37.1	109.520	0.150	0.230	-0.400
2020/01/31 16:10:37.2	109.520	0.150	0.220	-0.410
2020/01/31 16:10:37.3	109.510	0.140	0.220	-0.410
2020/01/31 16:10:37.4	109.500	0.130	0.210	-0.410
2020/01/31 16:10:37.5	109.500	0.130	0.200	-0.410
2020/01/31 16:10:37.6	109.490	0.120	0.200	-0.410
2020/01/31 16:10:37.7	109.490	0.110	0.190	-0.400
2020/01/31 16:10:37.8	109.490	0.100	0.180	-0.390
2020/01/31 16:10:37.9	109.490	0.090	0.170	-0.370
2020/01/31 16:10:38.0	109.490	0.080	0.150	-0.350
2020/01/31 16:10:38.1	109.500	0.070	0.140	-0.330
2020/01/31 16:10:38.2	109.500	0.060	0.120	-0.310
2020/01/31 16:10:38.3	109.510	0.050	0.100	-0.290
2020/01/31 16:10:38.4	109.520	0.040	0.080	-0.260
2020/01/31 16:10:38.5	109.530	0.030	0.050	-0.230
2020/01/31 16:10:38.6	109.540	0.020	0.020	-0.200
2020/01/31 16:10:38.7	109.560	0.010	-0.010	-0.170
2020/01/31 16:10:38.8	109.570	0.010	-0.050	-0.140
2020/01/31 16:10:38.9	109.590	0.000	-0.090	-0.110
2020/01/31 16:10:39.0	109.610	0.000	-0.140	-0.080
2020/01/31 16:10:39.1	109.630	0.000	-0.180	-0.040
2020/01/31 16:10:39.2	109.650	0.000	-0.230	-0.010
2020/01/31 16:10:39.3	109.670	0.010	-0.290	0.020
2020/01/31 16:10:39.4	109.690	0.010	-0.340	0.050
2020/01/31 16:10:39.5	109.720	0.020	-0.390	0.080
2020/01/31 16:10:39.6	109.740	0.030	-0.450	0.110
2020/01/31 16:10:39.7	109.760	0.040	-0.510	0.150
2020/01/31 16:10:39.8	109.780	0.050	-0.560	0.180
2020/01/31 16:10:39.9	109.800	0.060	-0.610	0.210
2020/01/31 16:10:40.0	109.810	0.080	-0.660	0.240
2020/01/31 16:10:40.1	109.830	0.100	-0.710	0.280
2020/01/31 16:10:40.2	109.840	0.110	-0.750	0.320
2020/01/31 16:10:40.3	109.850	0.130	-0.780	0.360
2020/01/31 16:10:40.4	109.850	0.150	-0.820	0.400
2020/01/31 16:10:40.5	109.850	0.170	-0.840	0.440
2020/01/31 16:10:40.6	109.850	0.190	-0.860	0.480
2020/01/31 16:10:40.7	109.850	0.200	-0.870	0.530
2020/01/31 16:10:40.8	109.840	0.220	-0.870	0.570
2020/01/31 16:10:40.9	109.830	0.230	-0.870	0.620
2020/01/31 16:10:41.0	109.810	0.250	-0.860	0.670
2020/01/31 16:10:41.1	109.800	0.260	-0.830	0.730
2020/01/31 16:10:41.2	109.780	0.260	-0.800	0.780
2020/01/31 16:10:41.3	109.760	0.270	-0.770	0.830
2020/01/31 16:10:41.4	109.740	0.270	-0.720	0.890
2020/01/31 16:10:41.5	109.710	0.270	-0.670	0.940
2020/01/31 16:10:41.6	109.690	0.270	-0.610	0.990
2020/01/31 16:10:41.7	109.670	0.260	-0.540	1.040
2020/01/31 16:10:41.8	109.650	0.250	-0.470	1.090
2020/01/31 16:10:41.9	109.630	0.240	-0.390	1.140
2020/01/31 16:10:42.0	109.610	0.230	-0.300	1.190
2020/01/31 16:10:42.1	109.590	0.210	-0.220	1.240
2020/01/31 16:10:42.2	109.570	0.190	-0.130	1.280
2020/01/31 16:10:42.3	109.560	0.160	-0.040	1.330
2020/01/31 16:10:42.4	109.540	0.130	0.060	1.370
2020/01/31 16:10:42.5	109.530	0.100	0.150	1.410
2020/01/31 16:10:42.6	109.520	0.070	0.240	1.450
2020/01/31 16:10:42.7	109.520	0.040	0.330	1.480
2020/01/31 16:10:42.8	109.520	0.000	0.420	1.520
2020/01/31 16:10:42.9	109.520	-0.030	0.500	1.550
2020/01/31 16:10:43.0	109.520	-0.070	0.570	1.570
2020/01/31 16:10:43.1	109.520	-0.100	0.640	1.600
2020/01/31 16:10:43.2	109.520	-0.140	0.700	1.620
2020/01/31 16:10:43.3	109.530	-0.180	0.760	1.650
2020/01/31 16:10:43.4	109.540	-0.210	0.800	1.660
2020/01/31 16:10:43.5	109.550	-0.240	0.840	1.680
2020/01/31 16:10:43.6	109.560	-0.270	0.870	1.690
2020/01/31 16:10:43.7	109.570	-0.300	0.880	1.700
2020/01/31 16:10:43.8	109.590	-0.330	0.890	1.710
2020/01/31 16:10:43.9	109.600	-0.350	0.890	1.710
2020/01/31 16:10:44.0	109.620	-0.370	0.880	1.710
2020/01/31 16:10:44.1	109.630	-0.380	0.860	1.710
2020/01/31 16:10:44.2	109.650	-0.390	0.820	1.710
2020/01/31 16:10:44.3	109.670	-0.400	0.780	1.700
2020/01/31 16:10:44.4	109.690	-0.400	0.730	1.690
2020/01/31 16:10:44.5	109.710	-0.400	0.670	1.680
2020/01/31 16:10:44.6	109.730	-0.400	0.610	1.660
2020/01/31 16:10:44.7	109.750	-0.390	0.540	1.640
2020/01/31 16:10:44.8	109.770	-0.380	0.460	1.610
2020/01/31 16:10:44.9	109.790	-0.360	0.370	1.590
2020/01/31 16:10:45.0	109.810	-0.340	0.280	1.560
2020/01/31 16:10:45.1	109.840	-0.320	0.190	1.520
2020/01/31 16:10:45.2	109.860	-0.290	0.090	1.490
2020/01/31 16:10:45.3	109.880	-0.260	-0.010	1.450
2020/01/31 16:10:45.4	109.900	-0.230	-0.110	1.400
2020/01/31 16:10:45.5	109.920	-0.200	-0.210	1.360
2020/01/31 16:10:45.6	109.940	-0.160	-0.310	1.320
2020/01/31 16:10:45.7	109.950	-0.120	-0.400	1.260
2020/01/31 16:10:45.8	109.970	-0.080	-0.500	1.210
2020/01/31 16:10:45.9	109.980	-0.040	-0.600	1.170
2020/01/31 16:10:46.0	109.990	-0.000	-0.690	1.120
2020/01/31 16:10:46.1	110.000	0.040	-0.770	1.070
2020/01/31 16:10:46.2	110.010	0.080	-0.850	1.020
2020/01/31 16:10:46.3	110.020	0.120	-0.930	0.980
2020/01/31 16:10:46.4	110.020	0.160	-1.000	0.930
2020/01/31 16:10:46.5	110.020	0.190	-1.070	0.890
2020/01/31 16:10:46.6	110.020	0.230	-1.130	0.850
2020/01/31 16:10:46.7	110.020	0.270	-1.180	0.810
2020/01/31 16:10:46.8	110.020	0.300	-1.220	0.780
2020/01/31 16:10:46.9	110.010	0.330	-1.260	0.750
2020/01/31 16:10:47.0	110.010	0.350	-1.290	0.720
2020/01/31 16:10:47.1	110.000	0.380	-1.310	0.700
2020/01/31 16:10:47.2	109.990	0.400	-1.320	0.680
2020/01/31 16:10:47.3	109.970	0.410	-1.330	0.660
2020/01/31 16:10:47.4	109.960	0.430	-1.320	0.650
2020/01/31 16:10:47.5	109.940	0.440	-1.310	0.650
2020/01/31 16:10:47.6	109.920	0.440	-1.290	0.650
2020/01/31 16:10:47.7	109.890	0.440	-1.260	0.660
2020/01/31 16:10:47.8	109.870	0.440	-1.220	0.660
2020/01/31 16:10:47.9	109.840	0.430	-1.170	0.680
2020/01/31 16:10:48.0	109.820	0.420	-1.120	0.690
2020/01/31 16:10:48.1	109.790	0.400	-1.050	0.710
2020/01/31 16:10:48.2	109.760	0.380	-0.980	0.730
2020/01/31 16:10:48.3	109.730	0.360	-0.900	0.750
2020/01/31 16:10:48.4	109.700	0.330	-0.820	0.780
2020/01/31 16:10:48.5	109.660	0.290	-0.730	0.800
2020/01/31 16:10:48.6	109.630	0.260	-0.630	0.830
2020/01/31 16:10:48.7	109.600	0.220	-0.530	0.850
2020/01/31 16:10:48.8	109.560	0.180	-0.430	0.870
2020/01/31 16:10:48.9	109.530	0.130	-0.330	0.890
2020/01/31 16:10:49.0	109.500	0.080	-0.220	0.910
2020/01/31 16:10:49.1	109.460	0.040	-0.120	0.930
2020/01/31 16:10:49.2	109.430	-0.020	-0.010	0.940
2020/01/31 16:10:49.3	109.400	-0.070	0.090	0.950
2020/01/31 16:10:49.4	109.370	-0.120	0.190	0.950
2020/01/31 16:10:49.5	109.340	-0.170	0.280	0.950
2020/01/31 16:10:49.6	109.310	-0.220	0.370	0.950
2020/01/31 16:10:49.7	109.280	-0.270	0.460	0.940
2020/01/31 16:10:49.8	109.260	-0.320	0.530	0.930
2020/01/31 16:10:49.9	109.230	-0.370	0.600	0.910
2020/01/31 16:10:50.0	109.210	-0.410	0.670	0.890
2020/01/31 16:10:50.1	109.180	-0.460	0.720	0.870
2020/01/31 16:10:50.2	109.160	-0.490	0.760	0.840
2020/01/31 16:10:50.3	109.130	-0.530	0.800	0.800
2020/01/31 16:10:50.4	109.110	-0.560	0.820	0.770
2020/01/31 16:10:50.5	109.090	-0.590	0.840	0.730
2020/01/31 16:10:50.6	109.070	-0.610	0.840	0.680
2020/01/31 16:10:50.7	109.040	-0.620	0.830	0.640
2020/01/31 16:10:50.8	109.020	-0.630	0.810	0.590
2020/01/31 16:10:50.9	109.010	-0.640	0.790	0.540
2020/01/31 16:10:51.0	108.990	-0.640	0.750	0.480
2020/01/31 16:10:51.1	108.980	-0.630	0.710	0.420
2020/01/31 16:10:51.2	108.970	-0.620	0.660	0.370
2020/01/31 16:10:51.3	108.960	-0.610	0.600	0.300
2020/01/31 16:10:51.4	108.960	-0.590	0.530	0.240
2020/01/31 16:10:51.5	108.950	-0.560	0.460	0.180
2020/01/31 16:10:51.6	108.950	-0.530	0.390	0.110
2020/01/31 16:10:51.7	108.940	-0.500	0.310	0.040
2020/01/31 16:10:51.8	108.950	-0.460	0.230	-0.020
2020/01/31 16:10:51.9	108.950	-0.410	0.140	-0.090
2020/01/31 16:10:52.0	108.960	-0.370	0.050	-0.150
2020/01/31 16:10:52.1	108.970	-0.320	-0.040	-0.210
2020/01/31 16:10:52.2	108.990	-0.270	-0.120	-0.270
2020/01/31 16:10:52.3	109.000	-0.220	-0.210	-0.330
2020/01/31 16:10:52.4	109.020	-0.160	-0.290	-0.380
2020/01/31 16:10:52.5	109.040	-0.110	-0.370	-0.430
2020/01/31 16:10:52.6	109.060	-0.060	-0.440	-0.480
2020/01/31 16:10:52.7	109.070	-0.000	-0.520	-0.520
2020/01/31 16:10:52.8	109.090	0.050	-0.590	-0.560
2020/01/31 16:10:52.9	109.110	0.100	-0.640	-0.600
2020/01/31 16:10:53.0	109.140	0.150	-0.700	-0.630
2020/01/31 16:10:53.1	109.160	0.190	-0.740	-0.650
2020/01/31 16:10:53.2	109.180	0.240	-0.780	-0.680
2020/01/31 16:10:53.3	109.210	0.280	-0.810	-0.700
2020/01/31 16:10:53.4	109.230	0.310	-0.830	-0.710
2020/01/31 16:10:53.5	109.260	0.340	-0.840	-0.730
2020/01/31 16:10:53.6	109.280	0.370	-0.850	-0.740
2020/01/31 16:10:53.7	109.300	0.390	-0.840	-0.740
2020/01/31 16:10:53.8	109.320	0.410	-0.830	-0.750
2020/01/31 16:10:53.9	109.340	0.430	-0.820	-0.750
2020/01/31 16:10:54.0	109.360	0.440	-0.800	-0.750
2020/01/31 16:10:54.1	109.380	0.440	-0.770	-0.750
2020/01/31 16:10:54.2	109.400	0.440	-0.740	-0.740
2020/01/31 16:10:54.3	109.420	0.440	-0.700	-0.730
2020/01/31 16:10:54.4	109.430	0.440	-0.660	-0.720
2020/01/31 16:10:54.5	109.450	0.430	-0.620	-0.710
2020/01/31 16:10:54.6	109.460	0.410	-0.570	-0.690
2020/01/31 16:10:54.7	109.470	0.400	-0.510	-0.680
2020/01/31 16:10:54.8	109.480	0.380	-0.460	-0.650
2020/01/31 16:10:54.9	109.490	0.360	-0.400	-0.630
2020/01/31 16:10:55.0	109.490	0.340	-0.350	-0.600
2020/01/31 16:10:55.1	109.490	0.320	-0.290	-0.570
2020/01/31 16:10:55.2	109.490	0.290	-0.230	-0.530
2020/01/31 16:10:55.3	109.490	0.270	-0.180	-0.490
2020/01/31 16:10:55.4	109.480	0.240	-0.120	-0.450
2020/01/31 16:10:55.5	109.470	0.220	-0.070	-0.400
2020/01/31 16:10:55.6	109.460	0.200	-0.020	-0.350
2020/01/31 16:10:55.7	109.450	0.170	0.030	-0.290
2020/01/31 16:10:55.8	109.430	0.150	0.080	-0.230
2020/01/31 16:10:55.9	109.410	0.130	0.120	-0.170
2020/01/31 16:10:56.0	109.400	0.110	0.160	-0.110
2020/01/31 16:10:56.1	109.380	0.100	0.190	-0.050
2020/01/31 16:10:56.2	109.360	0.080	0.230	0.020
2020/01/31 16:10:56.3	109.340	0.070	0.250	0.090
2020/01/31 16:10:56.4	109.320	0.060	0.280	0.170
2020/01/31 16:10:56.5	109.300	0.050	0.300	0.240
2020/01/31 16:10:56.6	109.280	0.040	0.310	0.320
2020/01/31 16:10:56.7	109.260	0.030	0.330	0.400
2020/01/31 16:10:56.8	109.240	0.030	0.340	0.470
2020/01/31 16:10:56.9	109.220	0.020	0.340	0.560
2020/01/31 16:10:57.0	109.200	0.020	0.350	0.640
2020/01/31 16:10:57.1	109.190	0.020	0.340	0.720
2020/01/31 16:10:57.2	109.170	0.020	0.340	0.800
2020/01/31 16:10:57.3	109.150	0.020	0.330	0.880
2020/01/31 16:10:57.4	109.140	0.020	0.320	0.970
2020/01/31 16:10:57.5	109.130	0.030	0.310	1.050
2020/01/31 16:10:57.6	109.110	0.030	0.290	1.130
2020/01/31 16:10:57.7	109.110	0.030	0.270	1.200
2020/01/31 16:10:57.8	109.100	0.040	0.250	1.280
2020/01/31 16:10:57.9	109.090	0.040	0.230	1.350
2020/01/31 16:10:58.0	109.080	0.040	0.200	1.420
2020/01/31 16:10:58.1	109.070	0.050	0.180	1.490
2020/01/31 16:10:58.2	109.070	0.050	0.150	1.550
2020/01/31 16:10:58.3	109.060	0.050	0.120	1.600
2020/01/31 16:10:58.4	109.060	0.050	0.090	1.650
2020/01/31 16:10:58.5	109.050	0.060	0.060	1.690
2020/01/31 16:10:58.6	109.050	0.060	0.030	1.730
2020/01/31 16:10:58.7	109.060	0.050	-0.000	1.760
2020/01/31 16:10:58.8	109.060	0.050	-0.030	1.790
2020/01/31 16:10:58.9	109.060	0.050	-0.060	1.810
2020/01/31 16:10:59.0	109.060	0.050	-0.090	1.830
2020/01/31 16:10:59.1	109.060	0.040	-0.120	1.840
2020/01/31 16:10:59.2	109.060	0.040	-0.150	1.840
2020/01/31 16:10:59.3	109.060	0.030	-0.180	1.840
2020/01/31 16:10:59.4	109.060	0.030	-0.210	1.840
2020/01/31 16:10:59.5	109.060	0.020	-0.230	1.840
2020/01/31 16:10:59.6	109.070	0.010	-0.260	1.830
2020/01/31 16:10:59.7	109.070	0.000	-0.280	1.820
2020/01/31 16:10:59.8	109.070	-0.000	-0.310	1.810
2020/01/31 16:10:59.9	109.070	-0.010	-0.330	1.800
2020/01/31 16:11:00.0	109.070	-0.020	-0.350	1.780
2020/01/31 16:11:00.1	109.080	-0.030	-0.370	1.770
2020/01/31 16:11:00.2	109.080	-0.030	-0.390	1.760
2020/01/31 16:11:00.3	109.080	-0.040	-0.410	1.750
2020/01/31 16:11:00.4	109.080	-0.050	-0.430	1.740
2020/01/31 16:11:00.5	109.090	-0.050	-0.450	1.730
2020/01/31 16:11:00.6	109.090	-0.060	-0.470	1.720
2020/01/31 16:11:00.7	109.110	-0.060	-0.480	1.710
2020/01/31 16:11:00.8	109.110	-0.070	-0.500	1.700
2020/01/31 16:11:00.9	109.120	-0.070	-0.520	1.690
2020/01/31 16:11:01.0	109.130	-0.070	-0.530	1.680
2020/01/31 16:11:01.1	109.140	-0.080	-0.550	1.660
2020/01/31 16:11:01.2	109.150	-0.080	-0.560	1.650
2020/01/31 16:11:01.3	109.160	-0.080	-0.570	1.640
2020/01/31 16:11:01.4	109.170	-0.080	-0.580	1.630
2020/01/31 16:11:01.5	109.180	-0.080	-0.590	1.610
2020/01/31 16:11:01.6	109.190	-0.080	-0.600	1.600
2020/01/31 16:11:01.7	109.210	-0.080	-0.610	1.590
2020/01/31 16:11:01.8	109.220	-0.080	-0.620	1.570
2020/01/31 16:11:01.9	109.230	-0.080	-0.620	1.560
2020/01/31 16:11:02.0	109.230	-0.080	-0.630	1.540
2020/01/31 16:11:02.1	109.240	-0.080	-0.630	1.520
2020/01/31 16:11:02.2	109.240	-0.080	-0.630	1.500
2020/01/31 16:11:02.3	109.250	-0.080	-0.630	1.480
2020/01/31 16:11:02.4	109.250	-0.080	-0.630	1.450
2020/01/31 16:11:02.5	109.250	-0.080	-0.630	1.430
2020/01/31 16:11:02.6	109.250	-0.080	-0.620	1.410
2020/01/31 16:11:02.7	109.250	-0.070	-0.610	1.370
2020/01/31 16:11:02.8	109.240	-0.070	-0.610	1.340
2020/01/31 16:11:02.9	109.240	-0.070	-0.600	1.320
2020/01/31 16:11:03.0	109.230	-0.070	-0.590	1.280
2020/01/31 16:11:03.1	109.230	-0.070	-0.580	1.250
2020/01/31 16:11:03.2	109.220	-0.070	-0.560	1.220
2020/01/31 16:11:03.3	109.210	-0.070	-0.550	1.180
2020/01/31 16:11:03.4	109.210	-0.060	-0.530	1.150
2020/01/31 16:11:03.5	109.200	-0.060	-0.510	1.110
2020/01/31 16:11:03.6	109.190	-0.060	-0.490	1.080
2020/01/31 16:11:03.7	109.180	-0.060	-0.470	1.040
2020/01/31 16:11:03.8	109.170	-0.050	-0.440	1.000
2020/01/31 16:11:03.9	109.170	-0.050	-0.410	0.960
2020/01/31 16:11:04.0	109.160	-0.050	-0.380	0.920
2020/01/31 16:11:04.1	109.150	-0.040	-0.350	0.880
2020/01/31 16:11:04.2	109.150	-0.040	-0.310	0.840
2020/01/31 16:11:04.3	109.140	-0.030	-0.270	0.790
2020/01/31 16:11:04.4	109.140	-0.030	-0.240	0.750
2020/01/31 16:11:04.5	109.140	-0.030	-0.190	0.710
2020/01/31 16:11:04.6	109.140	-0.030	-0.150	0.660
2020/01/31 16:11:04.7	109.130	-0.020	-0.100	0.620
2020/01/31 16:11:04.8	109.130	-0.020	-0.060	0.580
2020/01/31 16:11:04.9	109.130	-0.020	-0.010	0.540
2020/01/31 16:11:05.0	109.130	-0.020	0.040	0.490
2020/01/31 16:11:05.1	109.130	-0.020	0.080	0.450
2020/01/31 16:11:05.2	109.140	-0.020	0.130	0.410
2020/01/31 16:11:05.3	109.140	-0.020	0.170	0.370
2020/01/31 16:11:05.4	109.140	-0.020	0.220	0.330
2020/01/31 16:11:05.5	109.150	-0.020	0.260	0.300
2020/01/31 16:11:05.6	109.160	-0.020	0.300	0.260
2020/01/31 16:11:05.7	109.140	-0.030	0.340	0.220
2020/01/31 16:11:05.8	109.150	-0.030	0.380	0.180
2020/01/31 16:11:05.9	109.160	-0.040	0.410	0.150
2020/01/31 16:11:06.0	109.170	-0.040	0.440	0.110
2020/01/31 16:11:06.1	109.170	-0.050	0.460	0.070
2020/01/31 16:11:06.2	109.180	-0.050	0.490	0.040
2020/01/31 16:11:06.3	109.190	-0.060	0.500	-0.000
2020/01/31 16:11:06.4	109.200	-0.070	0.520	-0.040
2020/01/31 16:11:06.5	109.200	-0.070	0.530	-0.070
2020/01/31 16:11:06.6	109.210	-0.080	0.530	-0.110
2020/01/31 16:11:06.7	109.200	-0.090	0.530	-0.150
2020/01/31 16:11:06.8	109.210	-0.090	0.520	-0.180
2020/01/31 16:11:06.9	109.210	-0.100	0.510	-0.220
2020/01/31 16:11:07.0	109.220	-0.110	0.500	-0.250
2020/01/31 16:11:07.1	109.220	-0.110	0.480	-0.290
2020/01/31 16:11:07.2	109.220	-0.120	0.460	-0.320
2020/01/31 16:11:07.3	109.220	-0.120	0.430	-0.360
2020/01/31 16:11:07.4	109.220	-0.130	0.400	-0.390
2020/01/31 16:11:07.5	109.230	-0.130	0.370	-0.430
2020/01/31 16:11:07.6	109.230	-0.130	0.330	-0.460
2020/01/31 16:11:07.7	109.220	-0.140	0.280	-0.500
2020/01/31 16:11:07.8	109.220	-0.140	0.240	-0.530
2020/01/31 16:11:07.9	109.220	-0.140	0.190	-0.560
2020/01/31 16:11:08.0	109.220	-0.130	0.140	-0.590
2020/01/31 16:11:08.1	109.220	-0.130	0.090	-0.610
2020/01/31 16:11:08.2	109.220	-0.120	0.040	-0.640
2020/01/31 16:11:08.3	109.220	-0.120	-0.020	-0.660
2020/01/31 16:11:08.4	109.230	-0.110	-0.070	-0.680
2020/01/31 16:11:08.5	109.230	-0.100	-0.130	-0.690
2020/01/31 16:11:08.6	109.230	-0.090	-0.190	-0.700
2020/01/31 16:11:08.7	109.230	-0.070	-0.240	-0.710
2020/01/31 16:11:08.8	109.240	-0.060	-0.300	-0.720
2020/01/31 16:11:08.9	109.250	-0.040	-0.360	-0.720
2020/01/31 16:11:09.0	109.260	-0.020	-0.410	-0.710
2020/01/31 16:11:09.1	109.270	-0.010	-0.470	-0.700
2020/01/31 16:11:09.2	109.280	0.010	-0.520	-0.690
2020/01/31 16:11:09.3	109.290	0.040	-0.570	-0.670
2020/01/31 16:11:09.4	109.310	0.060	-0.620	-0.650
2020/01/31 16:11:09.5	109.320	0.080	-0.660	-0.630
2020/01/31 16:11:09.6	109.340	0.100	-0.710	-0.600
2020/01/31 16:11:09.7	109.350	0.130	-0.750	-0.570
2020/01/31 16:11:09.8	109.370	0.150	-0.780	-0.540
2020/01/31 16:11:09.9	109.390	0.170	-0.820	-0.510
2020/01/31 16:11:10.0	109.410	0.200	-0.850	-0.470
2020/01/31 16:11:10.1	109.420	0.220	-0.880	-0.430
2020/01/31 16:11:10.2	109.440	0.240	-0.900	-0.380
2020/01/31 16:11:10.3	109.460	0.260	-0.920	-0.340
2020/01/31 16:11:10.4	109.480	0.280	-0.930	-0.290
2020/01/31 16:11:10.5	109.490	0.300	-0.940	-0.250
2020/01/31 16:11:10.6	109.510	0.310	-0.950	-0.200
2020/01/31 16:11:10.7	109.530	0.330	-0.950	-0.140
2020/01/31 16:11:10.8	109.540	0.340	-0.950	-0.090
2020/01/31 16:11:10.9	109.550	0.350	-0.940	-0.040
2020/01/31 16:11:11.0	109.570	0.360	-0.930	0.020
2020/01/31 16:11:11.1	109.580	0.370	-0.920	0.070
2020/01/31 16:11:11.2	109.580	0.370	-0.900	0.120
2020/01/31 16:11:11.3	109.590	0.370	-0.870	0.180
2020/01/31 16:11:11.4	109.590	0.370	-0.840	0.240
2020/01/31 16:11:11.5	109.590	0.360	-0.810	0.290
2020/01/31 16:11:11.6	109.590	0.350	-0.770	0.350
2020/01/31 16:11:11.7	109.590	0.340	-0.720	0.400
2020/01/31 16:11:11.8	109.590	0.330	-0.670	0.460
2020/01/31 16:11:11.9	109.580	0.310	-0.620	0.520
2020/01/31 16:11:12.0	109.570	0.290	-0.560	0.570
2020/01/31 16:11:12.1	109.560	0.260	-0.500	0.630
2020/01/31 16:11:12.2	109.540	0.240	-0.440	0.690
2020/01/31 16:11:12.3	109.520	0.210	-0.370	0.740
2020/01/31 16:11:12.4	109.500	0.170	-0.290	0.800
2020/01/31 16:11:12.5	109.480	0.140	-0.220	0.860
2020/01/31 16:11:12.6	109.450	0.100	-0.140	0.910
2020/01/31 16:11:12.7	109.420	0.060	-0.060	0.970
2020/01/31 16:11:12.8	109.390	0.020	0.020	1.030
2020/01/31 16:11:12.9	109.360	-0.020	0.110	1.080
2020/01/31 16:11:13.0	109.320	-0.060	0.190	1.140
2020/01/31 16:11:13.1	109.280	-0.110	0.270	1.190
2020/01/31 16:11:13.2	109.250	-0.150	0.350	1.250
2020/01/31 16:11:13.3	109.210	-0.200	0.430	1.300
2020/01/31 16:11:13.4	109.170	-0.240	0.510	1.350
2020/01/31 16:11:13.5	109.130	-0.290	0.590	1.390
2020/01/31 16:11:13.6	109.100	-0.330	0.660	1.440
2020/01/31 16:11:13.7	109.060	-0.370	0.730	1.480
2020/01/31 16:11:13.8	109.020	-0.410	0.790	1.520
2020/01/31 16:11:13.9	108.990	-0.450	0.840	1.550
2020/01/31 16:11:14.0	108.950	-0.490	0.890	1.580
2020/01/31 16:11:14.1	108.920	-0.520	0.930	1.610
2020/01/31 16:11:14.2	108.890	-0.550	0.960	1.630
2020/01/31 16:11:14.3	108.860	-0.570	0.990	1.650
2020/01/31 16:11:14.4	108.830	-0.590	1.000	1.660
2020/01/31 16:11:14.5	108.800	-0.610	1.010	1.670
2020/01/31 16:11:14.6	108.780	-0.620	1.000	1.670
2020/01/31 16:11:14.7	108.760	-0.630	0.990	1.670
2020/01/31 16:11:14.8	108.740	-0.630	0.960	1.660
2020/01/31 16:11:14.9	108.720	-0.620	0.930	1.650
2020/01/31 16:11:15.0	108.700	-0.610	0.880	1.630
2020/01/31 16:11:15.1	108.690	-0.590	0.820	1.610
2020/01/31 16:11:15.2	108.680	-0.570	0.760	1.580
2020/01/31 16:11:15.3	108.670	-0.540	0.680	1.540
2020/01/31 16:11:15.4	108.670	-0.510	0.590	1.500
2020/01/31 16:11:15.5	108.670	-0.470	0.490	1.460
2020/01/31 16:11:15.6	108.670	-0.430	0.390	1.410
2020/01/31 16:11:15.7	108.680	-0.380	0.280	1.350
2020/01/31 16:11:15.8	108.690	-0.320	0.160	1.300
2020/01/31 16:11:15.9	108.700	-0.260	0.040	1.240
2020/01/31 16:11:16.0	108.710	-0.200	-0.090	1.180
2020/01/31 16:11:16.1	108.730	-0.140	-0.220	1.110
2020/01/31 16:11:16.2	108.740	-0.070	-0.350	1.050
2020/01/31 16:11:16.3	108.760	-0.000	-0.490	0.980
2020/01/31 16:11:16.4	108.790	0.070	-0.620	0.910
2020/01/31 16:11:16.5	108.810	0.140	-0.750	0.850
2020/01/31 16:11:16.6	108.840	0.210	-0.870	0.780
2020/01/31 16:11:16.7	108.860	0.280	-0.990	0.720
2020/01/31 16:11:16.8	108.890	0.350	-1.100	0.650
2020/01/31 16:11:16.9	108.910	0.420	-1.210	0.590
2020/01/31 16:11:17.0	108.940	0.490	-1.310	0.530
2020/01/31 16:11:17.1	108.970	0.550	-1.400	0.470
2020/01/31 16:11:17.2	108.990	0.600	-1.480	0.420
2020/01/31 16:11:17.3	109.020	0.650	-1.540	0.370
2020/01/31 16:11:17.4	109.040	0.700	-1.600	0.320
2020/01/31 16:11:17.5	109.070	0.740	-1.640	0.280
2020/01/31 16:11:17.6	109.090	0.770	-1.670	0.240
2020/01/31 16:11:17.7	109.110	0.800	-1.680	0.200
2020/01/31 16:11:17.8	109.130	0.820	-1.680	0.160
2020/01/31 16:11:17.9	109.150	0.830	-1.660	0.140
2020/01/31 16:11:18.0	109.170	0.840	-1.630	0.110
2020/01/31 16:11:18.1	109.180	0.830	-1.590	0.090
2020/01/31 16:11:18.2	109.190	0.820	-1.530	0.080
2020/01/31 16:11:18.3	109.200	0.800	-1.460	0.070
2020/01/31 16:11:18.4	109.200	0.780	-1.380	0.060
2020/01/31 16:11:18.5	109.210	0.740	-1.280	0.060
2020/01/31 16:11:18.6	109.210	0.700	-1.180	0.070
2020/01/31 16:11:18.7	109.210	0.650	-1.060	0.080
2020/01/31 16:11:18.8	109.200	0.600	-0.940	0.090
2020/01/31 16:11:18.9	109.200	0.540	-0.810	0.110
2020/01/31 16:11:19.0	109.190	0.480	-0.670	0.140
2020/01/31 16:11:19.1	109.190	0.410	-0.530	0.160
2020/01/31 16:11:19.2	109.180	0.340	-0.390	0.190
2020/01/31 16:11:19.3	109.160	0.270	-0.240	0.230
2020/01/31 16:11:19.4	109.150	0.200	-0.090	0.260
2020/01/31 16:11:19.5	109.130	0.120	0.050	0.300
2020/01/31 16:11:19.6	109.110	0.050	0.190	0.350
2020/01/31 16:11:19.7	109.080	-0.030	0.340	0.390
2020/01/31 16:11:19.8	109.060	-0.100	0.470	0.440
2020/01/31 16:11:19.9	109.030	-0.180	0.600	0.490
2020/01/31 16:11:20.0	109.000	-0.250	0.720	0.540
2020/01/31 16:11:20.1	108.980	-0.310	0.840	0.590
2020/01/31 16:11:20.2	108.950	-0.380	0.940	0.640
2020/01/31 16:11:20.3	108.920	-0.440	1.030	0.690
2020/01/31 16:11:20.4	108.890	-0.490	1.110	0.740
2020/01/31 16:11:20.5	108.860	-0.540	1.180	0.780
2020/01/31 16:11:20.6	108.830	-0.580	1.240	0.830
2020/01/31 16:11:20.7	108.790	-0.620	1.290	0.880
2020/01/31 16:11:20.8	108.760	-0.650	1.320	0.920
2020/01/31 16:11:20.9	108.730	-0.680	1.330	0.960
2020/01/31 16:11:21.0	108.710	-0.700	1.330	1.000
2020/01/31 16:11:21.1	108.680	-0.710	1.320	1.030
2020/01/31 16:11:21.2	108.660	-0.720	1.300	1.060
2020/01/31 16:11:21.3	108.640	-0.720	1.260	1.090
2020/01/31 16:11:21.4	108.620	-0.710	1.210	1.110
2020/01/31 16:11:21.5	108.600	-0.700	1.150	1.130
2020/01/31 16:11:21.6	108.580	-0.690	1.080	1.140
2020/01/31 16:11:21.7	108.560	-0.670	0.990	1.150
2020/01/31 16:11:21.8	108.540	-0.640	0.900	1.160
2020/01/31 16:11:21.9	108.530	-0.610	0.800	1.160
2020/01/31 16:11:22.0	108.530	-0.580	0.680	1.150
2020/01/31 16:11:22.1	108.520	-0.550	0.570	1.150
2020/01/31 16:11:22.2	108.510	-0.510	0.440	1.130
2020/01/31 16:11:22.3	108.510	-0.470	0.320	1.120
2020/01/31 16:11:22.4	108.510	-0.420	0.190	1.100
2020/01/31 16:11:22.5	108.510	-0.380	0.050	1.070
2020/01/31 16:11:22.6	108.510	-0.330	-0.080	1.040
2020/01/31 16:11:22.7	108.520	-0.290	-0.220	1.010
2020/01/31 16:11:22.8	108.520	-0.240	-0.350	0.980
2020/01/31 16:11:22.9	108.520	-0.200	-0.480	0.950
2020/01/31 16:11:23.0	108.520	-0.150	-0.600	0.910
2020/01/31 16:11:23.1	108.530	-0.110	-0.720	0.870
2020/01/31 16:11:23.2	108.530	-0.070	-0.830	0.840
2020/01/31 16:11:23.3	108.530	-0.030	-0.940	0.800
2020/01/31 16:11:23.4	108.530	0.010	-1.030	0.760
2020/01/31 16:11:23.5	108.530	0.040	-1.120	0.730
2020/01/31 16:11:23.6	108.520	0.070	-1.190	0.690
2020/01/31 16:11:23.7	108.540	0.100	-1.260	0.660
2020/01/31 16:11:23.8	108.530	0.120	-1.310	0.620
2020/01/31 16:11:23.9	108.530	0.140	-1.350	0.590
2020/01/31 16:11:24.0	108.520	0.160	-1.370	0.560
2020/01/31 16:11:24.1	108.520	0.170	-1.390	0.540
2020/01/31 16:11:24.2	108.510	0.180	-1.390	0.510
2020/01/31 16:11:24.3	108.500	0.180	-1.380	0.490
2020/01/31 16:11:24.4	108.490	0.190	-1.350	0.470
2020/01/31 16:11:24.5	108.490	0.180	-1.310	0.450
2020/01/31 16:11:24.6	108.480	0.180	-1.270	0.430
2020/01/31 16:11:24.7	108.470	0.170	-1.200	0.420
2020/01/31 16:11:24.8	108.460	0.160	-1.140	0.410
2020/01/31 16:11:24.9	108.460	0.140	-1.060	0.400
2020/01/31 16:11:25.0	108.450	0.130	-0.970	0.400
2020/01/31 16:11:25.1	108.440	0.110	-0.880	0.400
2020/01/31 16:11:25.2	108.440	0.090	-0.780	0.400
2020/01/31 16:11:25.3	108.430	0.070	-0.680	0.400
2020/01/31 16:11:25.4	108.430	0.040	-0.570	0.410
2020/01/31 16:11:25.5	108.430	0.020	-0.460	0.420
2020/01/31 16:11:25.6	108.420	-0.010	-0.350	0.430
2020/01/31 16:11:25.7	108.420	-0.030	-0.240	0.440
2020/01/31 16:11:25.8	108.420	-0.050	-0.140	0.450
2020/01/31 16:11:25.9	108.420	-0.080	-0.030	0.470
2020/01/31 16:11:26.0	108.420	-0.100	0.070	0.480
2020/01/31 16:11:26.1	108.420	-0.120	0.160	0.500
2020/01/31 16:11:26.2	108.420	-0.140	0.250	0.520
2020/01/31 16:11:26.3	108.420	-0.150	0.330	0.530
2020/01/31 16:11:26.4	108.420	-0.170	0.400	0.550
2020/01/31 16:11:26.5	108.420	-0.180	0.460	0.560
2020/01/31 16:11:26.6	108.420	-0.190	0.520	0.570
2020/01/31 16:11:26.7	108.420	-0.190	0.560	0.580
2020/01/31 16:11:26.8	108.420	-0.200	0.590	0.590
2020/01/31 16:11:26.9	108.420	-0.190	0.610	0.600
2020/01/31 16:11:27.0	108.420	-0.190	0.620	0.610
2020/01/31 16:11:27.1	108.420	-0.180	0.610	0.610
2020/01/31 16:11:27.2	108.420	-0.170	0.600	0.610
2020/01/31 16:11:27.3	108.420	-0.150	0.580	0.610
2020/01/31 16:11:27.4	108.410	-0.130	0.540	0.610
2020/01/31 16:11:27.5	108.410	-0.110	0.500	0.600
2020/01/31 16:11:27.6	108.410	-0.080	0.450	0.590
2020/01/31 16:11:27.7	108.410	-0.050	0.390	0.580
2020/01/31 16:11:27.8	108.400	-0.020	0.320	0.570
2020/01/31 16:11:27.9	108.400	0.010	0.250	0.560
2020/01/31 16:11:28.0	108.400	0.050	0.180	0.540
2020/01/31 16:11:28.1	108.390	0.090	0.100	0.530
2020/01/31 16:11:28.2	108.380	0.120	0.010	0.520
2020/01/31 16:11:28.3	108.380	0.160	-0.070	0.510
2020/01/31 16:11:28.4	108.370	0.200	-0.150	0.500
2020/01/31 16:11:28.5	108.360	0.240	-0.230	0.500
2020/01/31 16:11:28.6	108.350	0.280	-0.300	0.490
2020/01/31 16:11:28.7	108.330	0.310	-0.380	0.490
2020/01/31 16:11:28.8	108.320	0.350	-0.440	0.490
2020/01/31 16:11:28.9	108.300	0.380	-0.500	0.490
2020/01/31 16:11:29.0	108.290	0.400	-0.550	0.490
2020/01/31 16:11:29.1	108.270	0.430	-0.590	0.500
2020/01/31 16:11:29.2	108.250	0.450	-0.620	0.500
2020/01/31 16:11:29.3	108.230	0.460	-0.640	0.510
2020/01/31 16:11:29.4	108.210	0.470	-0.660	0.520
2020/01/31 16:11:29.5	108.190	0.480	-0.660	0.530
2020/01/31 16:11:29.6	108.170	0.480	-0.650	0.540
2020/01/31 16:11:29.7	108.150	0.470	-0.640	0.550
2020/01/31 16:11:29.8	108.130	0.460	-0.610	0.570
2020/01/31 16:11:29.9	108.110	0.450	-0.580	0.580
2020/01/31 16:11:30.0	108.090	0.430	-0.540	0.590
2020/01/31 16:11:30.1	108.070	0.400	-0.490	0.600
2020/01/31 16:11:30.2	108.050	0.380	-0.440	0.610
2020/01/31 16:11:30.3	108.030	0.340	-0.380	0.620
2020/01/31 16:11:30.4	108.010	0.310	-0.320	0.620
2020/01/31 16:11:30.5	107.990	0.270	-0.260	0.630
2020/01/31 16:11:30.6	107.970	0.230	-0.190	0.630
2020/01/31 16:11:30.7	107.950	0.180	-0.130	0.640
2020/01/31 16:11:30.8	107.930	0.140	-0.060	0.640
2020/01/31 16:11:30.9	107.910	0.090	0.000	0.640
2020/01/31 16:11:31.0	107.890	0.050	0.060	0.640
2020/01/31 16:11:31.1	107.870	0.000	0.110	0.630
2020/01/31 16:11:31.2	107.850	-0.040	0.160	0.630
2020/01/31 16:11:31.3	107.830	-0.090	0.210	0.630
2020/01/31 16:11:31.4	107.810	-0.130	0.250	0.620
2020/01/31 16:11:31.5	107.790	-0.170	0.280	0.620
2020/01/31 16:11:31.6	107.770	-0.200	0.300	0.610
2020/01/31 16:11:31.7	107.750	-0.240	0.320	0.600
2020/01/31 16:11:31.8	107.730	-0.270	0.330	0.590
2020/01/31 16:11:31.9	107.720	-0.290	0.330	0.580
2020/01/31 16:11:32.0	107.700	-0.310	0.320	0.570
2020/01/31 16:11:32.1	107.690	-0.330	0.310	0.570
2020/01/31 16:11:32.2	107.670	-0.350	0.290	0.560
2020/01/31 16:11:32.3	107.660	-0.360	0.260	0.550
2020/01/31 16:11:32.4	107.650	-0.360	0.230	0.540
2020/01/31 16:11:32.5	107.640	-0.360	0.190	0.530
2020/01/31 16:11:32.6	107.630	-0.360	0.140	0.520
2020/01/31 16:11:32.7	107.630	-0.350	0.100	0.510
2020/01/31 16:11:32.8	107.620	-0.340	0.040	0.500
2020/01/31 16:11:32.9	107.620	-0.320	-0.020	0.490
2020/01/31 16:11:33.0	107.620	-0.300	-0.080	0.480
2020/01/31 16:11:33.1	107.620	-0.270	-0.140	0.470
2020/01/31 16:11:33.2	107.620	-0.240	-0.210	0.470
2020/01/31 16:11:33.3	107.630	-0.210	-0.280	0.460
2020/01/31 16:11:33.4	107.630	-0.170	-0.340	0.450
2020/01/31 16:11:33.5	107.640	-0.140	-0.410	0.450
2020/01/31 16:11:33.6	107.640	-0.100	-0.480	0.440
2020/01/31 16:11:33.7	107.640	-0.050	-0.550	0.430
2020/01/31 16:11:33.8	107.650	-0.010	-0.610	0.430
2020/01/31 16:11:33.9	107.660	0.030	-0.670	0.430
2020/01/31 16:11:34.0	107.670	0.080	-0.730	0.420
2020/01/31 16:11:34.1	107.680	0.120	-0.780	0.420
2020/01/31 16:11:34.2	107.690	0.160	-0.820	0.420
2020/01/31 16:11:34.3	107.710	0.210	-0.860	0.420
2020/01/31 16:11:34.4	107.720	0.240	-0.890	0.420
2020/01/31 16:11:34.5	107.730	0.280	-0.910	0.410
2020/01/31 16:11:34.6	107.750	0.310	-0.930	0.410
2020/01/31 16:11:34.7	107.750	0.340	-0.940	0.410
2020/01/31 16:11:34.8	107.760	0.370	-0.930	0.420
2020/01/31 16:11:34.9	107.780	0.390	-0.920	0.420
2020/01/31 16:11:35.0	107.790	0.410	-0.900	0.420
2020/01/31 16:11:35.1	107.790	0.420	-0.870	0.430
2020/01/31 16:11:35.2	107.800	0.430	-0.840	0.430
2020/01/31 16:11:35.3	107.810	0.430	-0.790	0.440
2020/01/31 16:11:35.4	107.810	0.430	-0.730	0.450
2020/01/31 16:11:35.5	107.810	0.420	-0.670	0.460
2020/01/31 16:11:35.6	107.810	0.410	-0.600	0.480
2020/01/31 16:11:35.7	107.800	0.390	-0.530	0.490
2020/01/31 16:11:35.8	107.790	0.370	-0.450	0.510
2020/01/31 16:11:35.9	107.780	0.340	-0.360	0.530
2020/01/31 16:11:36.0	107.770	0.310	-0.280	0.550
2020/01/31 16:11:36.1	107.750	0.270	-0.190	0.580
2020/01/31 16:11:36.2	107.730	0.230	-0.100	0.600
2020/01/31 16:11:36.3	107.710	0.190	-0.010	0.630
2020/01/31 16:11:36.4	107.680	0.140	0.080	0.660
2020/01/31 16:11:36.5	107.650	0.100	0.170	0.680
2020/01/31 16:11:36.6	107.620	0.050	0.250	0.710
2020/01/31 16:11:36.7	107.590	0.000	0.330	0.740
2020/01/31 16:11:36.8	107.550	-0.050	0.400	0.770
2020/01/31 16:11:36.9	107.520	-0.100	0.470	0.800
2020/01/31 16:11:37.0	107.480	-0.140	0.540	0.830
2020/01/31 16:11:37.1	107.440	-0.190	0.590	0.860
2020/01/31 16:11:37.2	107.400	-0.230	0.640	0.880
2020/01/31 16:11:37.3	107.360	-0.270	0.680	0.900
2020/01/31 16:11:37.4	107.320	-0.310	0.720	0.920
2020/01/31 16:11:37.5	107.290	-0.350	0.740	0.940
2020/01/31 16:11:37.6	107.250	-0.380	0.760	0.950
2020/01/31 16:11:37.7	107.220	-0.410	0.770	0.950
2020/01/31 16:11:37.8	107.190	-0.430	0.760	0.960
2020/01/31 16:11:37.9	107.160	-0.450	0.750	0.950
2020/01/31 16:11:38.0	107.130	-0.460	0.730	0.950
2020/01/31 16:11:38.1	107.100	-0.470	0.700	0.940
2020/01/31 16:11:38.2	107.080	-0.480	0.660	0.920
2020/01/31 16:11:38.3	107.060	-0.480	0.620	0.900
2020/01/31 16:11:38.4	107.050	-0.470	0.560	0.880
2020/01/31 16:11:38.5	107.040	-0.460	0.500	0.850
2020/01/31 16:11:38.6	107.030	-0.450	0.440	0.820
2020/01/31 16:11:38.7	107.020	-0.440	0.370	0.790
2020/01/31 16:11:38.8	107.020	-0.420	0.300	0.750
2020/01/31 16:11:38.9	107.020	-0.390	0.220	0.720
2020/01/31 16:11:39.0	107.020	-0.370	0.140	0.680
2020/01/31 16:11:39.1	107.020	-0.340	0.060	0.630
2020/01/31 16:11:39.2	107.030	-0.310	-0.020	0.590
2020/01/31 16:11:39.3	107.030	-0.280	-0.100	0.550
2020/01/31 16:11:39.4	107.040	-0.240	-0.180	0.510
2020/01/31 16:11:39.5	107.050	-0.210	-0.260	0.470
2020/01/31 16:11:39.6	107.050	-0.170	-0.340	0.430
2020/01/31 16:11:39.7	107.050	-0.140	-0.420	0.390
2020/01/31 16:11:39.8	107.060	-0.100	-0.480	0.350
2020/01/31 16:11:39.9	107.060	-0.070	-0.550	0.320
2020/01/31 16:11:40.0	107.070	-0.040	-0.610	0.290
2020/01/31 16:11:40.1	107.070	-0.010	-0.660	0.260
2020/01/31 16:11:40.2	107.070	0.020	-0.710	0.230
2020/01/31 16:11:40.3	107.080	0.050	-0.740	0.210
2020/01/31 16:11:40.4	107.080	0.080	-0.780	0.180
2020/01/31 16:11:40.5	107.070	0.100	-0.800	0.170
2020/01/31 16:11:40.6	107.070	0.120	-0.820	0.150
2020/01/31 16:11:40.7	107.070	0.130	-0.830	0.140
2020/01/31 16:11:40.8	107.060	0.150	-0.830	0.130
2020/01/31 16:11:40.9	107.050	0.160	-0.820	0.120
2020/01/31 16:11:41.0	107.040	0.170	-0.810	0.120
2020/01/31 16:11:41.1	107.030	0.170	-0.800	0.120
2020/01/31 16:11:41.2	107.010	0.170	-0.770	0.120
2020/01/31 16:11:41.3	107.000	0.170	-0.750	0.130
2020/01/31 16:11:41.4	106.980	0.160	-0.710	0.140
2020/01/31 16:11:41.5	106.960	0.160	-0.680	0.150
2020/01/31 16:11:41.6	106.940	0.150	-0.640	0.160
2020/01/31 16:11:41.7	106.910	0.140	-0.600	0.170
2020/01/31 16:11:41.8	106.890	0.120	-0.550	0.190
2020/01/31 16:11:41.9	106.870	0.110	-0.510	0.210
2020/01/31 16:11:42.0	106.840	0.090	-0.460	0.240
2020/01/31 16:11:42.1	106.820	0.080	-0.420	0.260
2020/01/31 16:11:42.2	106.790	0.060	-0.380	0.280
2020/01/31 16:11:42.3	106.770	0.040	-0.340	0.310
2020/01/31 16:11:42.4	106.740	0.030	-0.300	0.340
2020/01/31 16:11:42.5	106.720	0.010	-0.260	0.370
2020/01/31 16:11:42.6	106.690	-0.010	-0.230	0.390
2020/01/31 16:11:42.7	106.670	-0.020	-0.190	0.420
2020/01/31 16:11:42.8	106.640	-0.040	-0.170	0.450
2020/01/31 16:11:42.9	106.620	-0.050	-0.140	0.470
2020/01/31 16:11:43.0	106.600	-0.060	-0.120	0.500
2020/01/31 16:11:43.1	106.580	-0.070	-0.110	0.530
2020/01/31 16:11:43.2	106.560	-0.080	-0.100	0.550
2020/01/31 16:11:43.3	106.530	-0.090	-0.090	0.580
2020/01/31 16:11:43.4	106.510	-0.090	-0.080	0.600
2020/01/31 16:11:43.5	106.500	-0.090	-0.080	0.620
2020/01/31 16:11:43.6	106.480	-0.090	-0.080	0.640
2020/01/31 16:11:43.7	106.460	-0.090	-0.090	0.670
2020/01/31 16:11:43.8	106.440	-0.090	-0.100	0.690
2020/01/31 16:11:43.9	106.430	-0.080	-0.110	0.710
2020/01/31 16:11:44.0	106.410	-0.070	-0.120	0.730
2020/01/31 16:11:44.1	106.390	-0.060	-0.140	0.750
2020/01/31 16:11:44.2	106.370	-0.050	-0.150	0.770
2020/01/31 16:11:44.3	106.360	-0.040	-0.170	0.790
2020/01/31 16:11:44.4	106.340	-0.020	-0.190	0.810
2020/01/31 16:11:44.5	106.320	-0.000	-0.210	0.830
2020/01/31 16:11:44.6	106.310	0.010	-0.230	0.850
2020/01/31 16:11:44.7	106.290	0.030	-0.250	0.870
2020/01/31 16:11:44.8	106.280	0.050	-0.270	0.890
2020/01/31 16:11:44.9	106.260	0.070	-0.290	0.910
2020/01/31 16:11:45.0	106.250	0.090	-0.310	0.920
2020/01/31 16:11:45.1	106.230	0.120	-0.330	0.940
2020/01/31 16:11:45.2	106.210	0.140	-0.350	0.950
2020/01/31 16:11:45.3	106.200	0.160	-0.360	0.970
2020/01/31 16:11:45.4	106.180	0.180	-0.380	0.980
2020/01/31 16:11:45.5	106.170	0.200	-0.390	0.990
2020/01/31 16:11:45.6	106.150	0.220	-0.400	0.990
2020/01/31 16:11:45.7	106.140	0.240	-0.400	0.990
2020/01/31 16:11:45.8	106.130	0.250	-0.410	1.000
2020/01/31 16:11:45.9	106.110	0.270	-0.400	1.000
2020/01/31 16:11:46.0	106.100	0.280	-0.400	0.990
2020/01/31 16:11:46.1	106.090	0.290	-0.390	0.990
2020/01/31 16:11:46.2	106.080	0.300	-0.380	0.980
2020/01/31 16:11:46.3	106.070	0.310	-0.360	0.960
2020/01/31 16:11:46.4	106.050	0.320	-0.350	0.950
2020/01/31 16:11:46.5	106.040	0.320	-0.320	0.930
2020/01/31 16:11:46.6	106.030	0.320	-0.300	0.910
2020/01/31 16:11:46.7	106.030	0.320	-0.260	0.880
2020/01/31 16:11:46.8	106.020	0.320	-0.230	0.860
2020/01/31 16:11:46.9	106.010	0.310	-0.200	0.830
2020/01/31 16:11:47.0	106.000	0.300	-0.170	0.800
2020/01/31 16:11:47.1	105.990	0.290	-0.130	0.770
2020/01/31 16:11:47.2	105.970	0.280	-0.090	0.730
2020/01/31 16:11:47.3	105.960	0.270	-0.050	0.700
2020/01/31 16:11:47.4	105.940	0.250	-0.010	0.660
2020/01/31 16:11:47.5	105.930	0.240	0.030	0.630
2020/01/31 16:11:47.6	105.910	0.220	0.070	0.590
2020/01/31 16:11:47.7	105.890	0.200	0.110	0.560
2020/01/31 16:11:47.8	105.870	0.190	0.150	0.520
2020/01/31 16:11:47.9	105.860	0.170	0.190	0.490
2020/01/31 16:11:48.0	105.840	0.150	0.230	0.460
2020/01/31 16:11:48.1	105.820	0.130	0.260	0.430
2020/01/31 16:11:48.2	105.800	0.110	0.300	0.400
2020/01/31 16:11:48.3	105.790	0.090	0.330	0.370
2020/01/31 16:11:48.4	105.770	0.080	0.360	0.340
2020/01/31 16:11:48.5	105.750	0.060	0.380	0.320
2020/01/31 16:11:48.6	105.740	0.050	0.400	0.290
2020/01/31 16:11:48.7	105.730	0.030	0.420	0.270
2020/01/31 16:11:48.8	105.720	0.020	0.430	0.240
2020/01/31 16:11:48.9	105.710	0.010	0.440	0.220
2020/01/31 16:11:49.0	105.700	-0.000	0.450	0.200
2020/01/31 16:11:49.1	105.690	-0.010	0.450	0.170
2020/01/31 16:11:49.2	105.690	-0.010	0.440	0.150
2020/01/31 16:11:49.3	105.690	-0.020	0.430	0.130
2020/01/31 16:11:49.4	105.690	-0.020	0.420	0.110
2020/01/31 16:11:49.5	105.690	-0.020	0.400	0.080
2020/01/31 16:11:49.6	105.700	-0.020	0.370	0.060
2020/01/31 16:11:49.7	105.690	-0.020	0.340	0.040
2020/01/31 16:11:49.8	105.700	-0.020	0.310	0.020
2020/01/31 16:11:49.9	105.700	-0.020	0.270	0.010
2020/01/31 16:11:50.0	105.710	-0.010	0.230	-0.010
2020/01/31 16:11:50.1	105.710	-0.000	0.190	-0.020
2020/01/31 16:11:50.2	105.720	0.000	0.140	-0.030
2020/01/31 16:11:50.3	105.720	0.010	0.090	-0.030
2020/01/31 16:11:50.4	105.730	0.020	0.030	-0.040
2020/01/31 16:11:50.5	105.730	0.020	-0.020	-0.040
2020/01/31 16:11:50.6	105.730	0.030	-0.080	-0.030
2020/01/31 16:11:50.7	105.730	0.040	-0.140	-0.030
2020/01/31 16:11:50.8	105.730	0.040	-0.200	-0.010
2020/01/31 16:11:50.9	105.730	0.050	-0.260	-0.000
2020/01/31 16:11:51.0	105.730	0.060	-0.320	0.020
2020/01/31 16:11:51.1	105.720	0.060	-0.380	0.040
2020/01/31 16:11:51.2	105.710	0.070	-0.430	0.060
2020/01/31 16:11:51.3	105.710	0.070	-0.490	0.090
2020/01/31 16:11:51.4	105.700	0.080	-0.540	0.120
2020/01/31 16:11:51.5	105.690	0.080	-0.600	0.150
2020/01/31 16:11:51.6	105.680	0.080	-0.640	0.180
2020/01/31 16:11:51.7	105.670	0.080	-0.690	0.210
2020/01/31 16:11:51.8	105.660	0.080	-0.730	0.240
2020/01/31 16:11:51.9	105.650	0.080	-0.760	0.280
2020/01/31 16:11:52.0	105.640	0.080	-0.790	0.320
2020/01/31 16:11:52.1	105.630	0.070	-0.810	0.350
2020/01/31 16:11:52.2	105.610	0.070	-0.830	0.390
2020/01/31 16:11:52.3	105.600	0.060	-0.840	0.430
2020/01/31 16:11:52.4	105.590	0.050	-0.850	0.480
2020/01/31 16:11:52.5	105.570	0.040	-0.850	0.520
2020/01/31 16:11:52.6	105.550	0.030	-0.850	0.560
2020/01/31 16:11:52.7	105.530	0.020	-0.830	0.610
2020/01/31 16:11:52.8	105.510	0.010	-0.810	0.650
2020/01/31 16:11:52.9	105.490	-0.000	-0.790	0.700
2020/01/31 16:11:53.0	105.460	-0.020	-0.770	0.750
2020/01/31 16:11:53.1	105.430	-0.030	-0.730	0.800
2020/01/31 16:11:53.2	105.400	-0.050	-0.700	0.850
2020/01/31 16:11:53.3	105.370	-0.060	-0.660	0.900
2020/01/31 16:11:53.4	105.340	-0.080	-0.610	0.960
2020/01/31 16:11:53.5	105.310	-0.100	-0.570	1.010
2020/01/31 16:11:53.6	105.270	-0.110	-0.520	1.060
2020/01/31 16:11:53.7	105.220	-0.130	-0.460	1.120
2020/01/31 16:11:53.8	105.180	-0.150	-0.410	1.170
2020/01/31 16:11:53.9	105.140	-0.170	-0.360	1.220
2020/01/31 16:11:54.0	105.100	-0.180	-0.300	1.280
2020/01/31 16:11:54.1	105.070	-0.200	-0.250	1.320
2020/01/31 16:11:54.2	105.030	-0.220	-0.200	1.370
2020/01/31 16:11:54.3	104.990	-0.230	-0.150	1.420
2020/01/31 16:11:54.4	104.950	-0.250	-0.100	1.460
2020/01/31 16:11:54.5	104.920	-0.260	-0.050	1.490
2020/01/31 16:11:54.6	104.890	-0.270	-0.010	1.530
2020/01/31 16:11:54.7	104.850	-0.280	0.030	1.550
2020/01/31 16:11:54.8	104.820	-0.290	0.070	1.580
2020/01/31 16:11:54.9	104.790	-0.300	0.100	1.590
2020/01/31 16:11:55.0	104.770	-0.300	0.130	1.610
2020/01/31 16:11:55.1	104.750	-0.310	0.160	1.610
2020/01/31 16:11:55.2	104.730	-0.310	0.180	1.610
2020/01/31 16:11:55.3	104.710	-0.310	0.190	1.610
2020/01/31 16:11:55.4	104.700	-0.310	0.200	1.600
2020/01/31 16:11:55.5	104.690	-0.300	0.210	1.580
2020/01/31 16:11:55.6	104.680	-0.300	0.210	1.560
2020/01/31 16:11:55.7	104.680	-0.290	0.210	1.530
2020/01/31 16:11:55.8	104.680	-0.280	0.200	1.500
2020/01/31 16:11:55.9	104.670	-0.270	0.190	1.470
2020/01/31 16:11:56.0	104.670	-0.250	0.180	1.430
2020/01/31 16:11:56.1	104.670	-0.240	0.160	1.390
2020/01/31 16:11:56.2	104.670	-0.220	0.140	1.340
2020/01/31 16:11:56.3	104.680	-0.200	0.120	1.300
2020/01/31 16:11:56.4	104.680	-0.190	0.100	1.250
2020/01/31 16:11:56.5	104.680	-0.170	0.070	1.200
2020/01/31 16:11:56.6	104.680	-0.150	0.040	1.150
2020/01/31 16:11:56.7	104.670	-0.130	0.010	1.090
2020/01/31 16:11:56.8	104.660	-0.110	-0.010	1.040
2020/01/31 16:11:56.9	104.660	-0.090	-0.040	0.990
2020/01/31 16:11:57.0	104.650	-0.070	-0.060	0.940
2020/01/31 16:11:57.1	104.640	-0.050	-0.090	0.880
2020/01/31 16:11:57.2	104.630	-0.030	-0.110	0.830
2020/01/31 16:11:57.3	104.610	-0.010	-0.130	0.780
2020/01/31 16:11:57.4	104.600	0.000	-0.150	0.730
2020/01/31 16:11:57.5	104.580	0.020	-0.160	0.680
2020/01/31 16:11:57.6	104.560	0.030	-0.180	0.630
2020/01/31 16:11:57.7	104.530	0.040	-0.190	0.590
2020/01/31 16:11:57.8	104.500	0.050	-0.200	0.540
2020/01/31 16:11:57.9	104.470	0.060	-0.220	0.490
2020/01/31 16:11:58.0	104.450	0.070	-0.220	0.450
2020/01/31 16:11:58.1	104.420	0.080	-0.230	0.410
2020/01/31 16:11:58.2	104.380	0.080	-0.240	0.370
2020/01/31 16:11:58.3	104.350	0.090	-0.250	0.330
2020/01/31 16:11:58.4	104.320	0.090	-0.250	0.300
2020/01/31 16:11:58.5	104.290	0.090	-0.260	0.270
2020/01/31 16:11:58.6	104.260	0.100	-0.270	0.240
2020/01/31 16:11:58.7	104.210	0.100	-0.280	0.200
2020/01/31 16:11:58.8	104.180	0.100	-0.290	0.170
2020/01/31 16:11:58.9	104.150	0.110	-0.300	0.150
2020/01/31 16:11:59.0	104.110	0.110	-0.310	0.130
2020/01/31 16:11:59.1	104.080	0.110	-0.320	0.110
2020/01/31 16:11:59.2	104.050	0.120	-0.340	0.090
2020/01/31 16:11:59.3	104.020	0.130	-0.360	0.070
2020/01/31 16:11:59.4	104.000	0.130	-0.380	0.060
2020/01/31 16:11:59.5	103.970	0.140	-0.400	0.050
2020/01/31 16:11:59.6	103.940	0.150	-0.430	0.040
2020/01/31 16:11:59.7	103.910	0.160	-0.450	0.030
2020/01/31 16:11:59.8	103.890	0.180	-0.480	0.030
2020/01/31 16:11:59.9	103.870	0.190	-0.510	0.020
2020/01/31 16:12:00.0	103.840	0.210	-0.530	0.020
2020/01/31 16:12:00.1	103.820	0.220	-0.560	0.020
2020/01/31 16:12:00.2	103.800	0.240	-0.590	0.020
2020/01/31 16:12:00.3	103.780	0.260	-0.620	0.020
2020/01/31 16:12:00.4	103.760	0.270	-0.640	0.020
2020/01/31 16:12:00.5	103.750	0.290	-0.660	0.030
2020/01/31 16:12:00.6	103.730	0.310	-0.680	0.030
2020/01/31 16:12:00.7	103.700	0.320	-0.700	0.030
2020/01/31 16:12:00.8	103.680	0.340	-0.710	0.040
2020/01/31 16:12:00.9	103.670	0.350	-0.720	0.040
2020/01/31 16:12:01.0	103.660	0.370	-0.720	0.050
2020/01/31 16:12:01.1	103.640	0.380	-0.720	0.050
2020/01/31 16:12:01.2	103.630	0.380	-0.710	0.060
2020/01/31 16:12:01.3	103.620	0.390	-0.700	0.070
2020/01/31 16:12:01.4	103.610	0.390	-0.680	0.070
2020/01/31 16:12:01.5	103.600	0.390	-0.650	0.080
2020/01/31 16:12:01.6	103.590	0.390	-0.610	0.080
2020/01/31 16:12:01.7	103.570	0.380	-0.580	0.090
2020/01/31 16:12:01.8	103.570	0.370	-0.530	0.100
2020/01/31 16:12:01.9	103.560	0.350	-0.470	0.110
2020/01/31 16:12:02.0	103.550	0.340	-0.410	0.120
2020/01/31 16:12:02.1	103.550	0.310	-0.350	0.130
2020/01/31 16:12:02.2	103.540	0.290	-0.270	0.140
2020/01/31 16:12:02.3	103.540	0.260	-0.200	0.150
2020/01/31 16:12:02.4	103.530	0.230	-0.120	0.170
2020/01/31 16:12:02.5	103.530	0.190	-0.030	0.180
2020/01/31 16:12:02.6	103.530	0.150	0.050	0.200
2020/01/31 16:12:02.7	103.520	0.110	0.150	0.220
2020/01/31 16:12:02.8	103.520	0.070	0.240	0.240
2020/01/31 16:12:02.9	103.520	0.030	0.320	0.260
2020/01/31 16:12:03.0	103.520	-0.020	0.410	0.290
2020/01/31 16:12:03.1	103.520	-0.070	0.490	0.310
2020/01/31 16:12:03.2	103.520	-0.110	0.570	0.330
2020/01/31 16:12:03.3	103.530	-0.160	0.650	0.360
2020/01/31 16:12:03.4	103.530	-0.210	0.710	0.390
2020/01/31 16:12:03.5	103.530	-0.260	0.780	0.410
2020/01/31 16:12:03.6	103.530	-0.300	0.830	0.440
2020/01/31 16:12:03.7	103.540	-0.340	0.880	0.470
2020/01/31 16:12:03.8	103.540	-0.380	0.920	0.500
2020/01/31 16:12:03.9	103.540	-0.420	0.950	0.530
2020/01/31 16:12:04.0	103.540	-0.460	0.960	0.560
2020/01/31 16:12:04.1	103.540	-0.490	0.970	0.600
2020/01/31 16:12:04.2	103.530	-0.510	0.970	0.630
2020/01/31 16:12:04.3	103.530	-0.540	0.960	0.660
2020/01/31 16:12:04.4	103.520	-0.550	0.930	0.690
2020/01/31 16:12:04.5	103.510	-0.560	0.900	0.730
2020/01/31 16:12:04.6	103.500	-0.570	0.850	0.760
2020/01/31 16:12:04.7	103.500	-0.570	0.800	0.790
2020/01/31 16:12:04.8	103.490	-0.570	0.740	0.820
2020/01/31 16:12:04.9	103.470	-0.560	0.670	0.850
2020/01/31 16:12:05.0	103.450	-0.550	0.590	0.880
2020/01/31 16:12:05.1	103.430	-0.530	0.500	0.910
2020/01/31 16:12:05.2	103.410	-0.500	0.410	0.940
2020/01/31 16:12:05.3	103.390	-0.470	0.310	0.960
2020/01/31 16:12:05.4	103.360	-0.440	0.220	0.990
2020/01/31 16:12:05.5	103.340	-0.400	0.110	1.010
2020/01/31 16:12:05.6	103.310	-0.360	0.010	1.030
2020/01/31 16:12:05.7	103.280	-0.320	-0.090	1.050
2020/01/31 16:12:05.8	103.250	-0.270	-0.190	1.070
2020/01/31 16:12:05.9	103.220	-0.220	-0.290	1.090
2020/01/31 16:12:06.0	103.190	-0.170	-0.390	1.100
2020/01/31 16:12:06.1	103.150	-0.120	-0.480	1.120
2020/01/31 16:12:06.2	103.120	-0.070	-0.560	1.140
2020/01/31 16:12:06.3	103.090	-0.020	-0.640	1.150
2020/01/31 16:12:06.4	103.060	0.030	-0.720	1.170
2020/01/31 16:12:06.5	103.020	0.080	-0.790	1.180
2020/01/31 16:12:06.6	102.990	0.130	-0.850	1.190
2020/01/31 16:12:06.7	102.950	0.180	-0.900	1.200
2020/01/31 16:12:06.8	102.920	0.220	-0.950	1.210
2020/01/31 16:12:06.9	102.880	0.260	-0.990	1.220
2020/01/31 16:12:07.0	102.850	0.300	-1.020	1.230
2020/01/31 16:12:07.1	102.820	0.340	-1.050	1.230
2020/01/31 16:12:07.2	102.800	0.370	-1.070	1.240
2020/01/31 16:12:07.3	102.770	0.400	-1.080	1.240
2020/01/31 16:12:07.4	102.740	0.420	-1.090	1.250
2020/01/31 16:12:07.5	102.720	0.440	-1.090	1.250
2020/01/31 16:12:07.6	102.700	0.460	-1.090	1.250
2020/01/31 16:12:07.7	102.680	0.470	-1.070	1.250
2020/01/31 16:12:07.8	102.660	0.480	-1.060	1.240
2020/01/31 16:12:07.9	102.640	0.490	-1.040	1.240
2020/01/31 16:12:08.0	102.620	0.490	-1.020	1.230
2020/01/31 16:12:08.1	102.610	0.490	-1.000	1.220
2020/01/31 16:12:08.2	102.600	0.490	-0.970	1.210
2020/01/31 16:12:08.3	102.590	0.480	-0.940	1.200
2020/01/31 16:12:08.4	102.580	0.470	-0.910	1.180
2020/01/31 16:12:08.5	102.570	0.460	-0.880	1.160
2020/01/31 16:12:08.6	102.560	0.450	-0.850	1.140
2020/01/31 16:12:08.7	102.540	0.430	-0.810	1.110
2020/01/31 16:12:08.8	102.540	0.420	-0.780	1.090
2020/01/31 16:12:08.9	102.530	0.400	-0.750	1.060
2020/01/31 16:12:09.0	102.530	0.380	-0.710	1.030
2020/01/31 16:12:09.1	102.520	0.360	-0.680	0.990
2020/01/31 16:12:09.2	102.520	0.340	-0.640	0.960
2020/01/31 16:12:09.3	102.520	0.320	-0.610	0.930
2020/01/31 16:12:09.4	102.510	0.300	-0.570	0.890
2020/01/31 16:12:09.5	102.510	0.280	-0.540	0.860
2020/01/31 16:12:09.6	102.500	0.260	-0.500	0.820
2020/01/31 16:12:09.7	102.490	0.240	-0.460	0.780
2020/01/31 16:12:09.8	102.490	0.220	-0.420	0.740
2020/01/31 16:12:09.9	102.480	0.200	-0.370	0.710
2020/01/31 16:12:10.0	102.470	0.170	-0.330	0.680
2020/01/31 16:12:10.1	102.460	0.150	-0.280	0.650
2020/01/31 16:12:10.2	102.450	0.130	-0.230	0.620
2020/01/31 16:12:10.3	102.440	0.100	-0.170	0.590
2020/01/31 16:12:10.4	102.420	0.080	-0.110	0.570
2020/01/31 16:12:10.5	102.410	0.050	-0.060	0.550
2020/01/31 16:12:10.6	102.390	0.030	0.010	0.530
2020/01/31 16:12:10.7	102.370	-0.000	0.070	0.520
2020/01/31 16:12:10.8	102.350	-0.030	0.140	0.510
2020/01/31 16:12:10.9	102.320	-0.060	0.200	0.500
2020/01/31 16:12:11.0	102.290	-0.080	0.270	0.500
2020/01/31 16:12:11.1	102.260	-0.110	0.330	0.500
2020/01/31 16:12:11.2	102.220	-0.140	0.390	0.500
2020/01/31 16:12:11.3	102.190	-0.170	0.460	0.500
2020/01/31 16:12:11.4	102.150	-0.200	0.510	0.510
2020/01/31 16:12:11.5	102.110	-0.230	0.570	0.520
2020/01/31 16:12:11.6	102.070	-0.250	0.620	0.520
2020/01/31 16:12:11.7	102.030	-0.280	0.660	0.530
2020/01/31 16:12:11.8	101.990	-0.310	0.700	0.540
2020/01/31 16:12:11.9	101.950	-0.330	0.730	0.550
2020/01/31 16:12:12.0	101.910	-0.360	0.760	0.560
2020/01/31 16:12:12.1	101.870	-0.380	0.780	0.570
2020/01/31 16:12:12.2	101.840	-0.400	0.790	0.570
2020/01/31 16:12:12.3	101.800	-0.420	0.790	0.580
2020/01/31 16:12:12.4	101.760	-0.440	0.790	0.580
2020/01/31 16:12:12.5	101.730	-0.450	0.780	0.580
2020/01/31 16:12:12.6	101.700	-0.460	0.760	0.580
2020/01/31 16:12:12.7	101.660	-0.470	0.730	0.570
2020/01/31 16:12:12.8	101.630	-0.480	0.690	0.570
2020/01/31 16:12:12.9	101.600	-0.480	0.650	0.560
2020/01/31 16:12:13.0	101.570	-0.490	0.610	0.550
2020/01/31 16:12:13.1	101.550	-0.480	0.550	0.530
2020/01/31 16:12:13.2	101.520	-0.480	0.490	0.520
2020/01/31 16:12:13.3	101.500	-0.470	0.430	0.500
2020/01/31 16:12:13.4	101.470	-0.460	0.360	0.480
2020/01/31 16:12:13.5	101.450	-0.440	0.290	0.460
2020/01/31 16:12:13.6	101.430	-0.430	0.210	0.440
2020/01/31 16:12:13.7	101.420	-0.410	0.140	0.410
2020/01/31 16:12:13.8	101.410	-0.380	0.050	0.380
2020/01/31 16:12:13.9	101.390	-0.360	-0.030	0.350
2020/01/31 16:12:14.0	101.380	-0.330	-0.110	0.320
2020/01/31 16:12:14.1	101.360	-0.300	-0.200	0.290
2020/01/31 16:12:14.2	101.350	-0.260	-0.280	0.260
2020/01/31 16:12:14.3	101.340	-0.230	-0.370	0.230
2020/01/31 16:12:14.4	101.330	-0.190	-0.450	0.200
2020/01/31 16:12:14.5	101.320	-0.160	-0.530	0.170
2020/01/31 16:12:14.6	101.310	-0.120	-0.610	0.140
2020/01/31 16:12:14.7	101.310	-0.080	-0.680	0.110
2020/01/31 16:12:14.8	101.300	-0.030	-0.750	0.080
2020/01/31 16:12:14.9	101.300	0.010	-0.820	0.050
2020/01/31 16:12:15.0	101.290	0.050	-0.870	0.030
2020/01/31 16:12:15.1	101.280	0.090	-0.930	0.010
2020/01/31 16:12:15.2	101.270	0.130	-0.970	-0.010
2020/01/31 16:12:15.3	101.250	0.170	-1.010	-0.020
2020/01/31 16:12:15.4	101.240	0.200	-1.040	-0.030
2020/01/31 16:12:15.5	101.230	0.240	-1.070	-0.040
2020/01/31 16:12:15.6	101.210	0.270	-1.080	-0.040
2020/01/31 16:12:15.7	101.200	0.300	-1.090	-0.040
2020/01/31 16:12:15.8	101.190	0.330	-1.090	-0.040
2020/01/31 16:12:15.9	101.170	0.350	-1.080	-0.030
2020/01/31 16:12:16.0	101.150	0.370	-1.060	-0.020
2020/01/31 16:12:16.1	101.130	0.390	-1.040	-0.000
2020/01/31 16:12:16.2	101.110	0.400	-1.010	0.020
2020/01/31 16:12:16.3	101.090	0.410	-0.970	0.040
2020/01/31 16:12:16.4	101.060	0.420	-0.930	0.070
2020/01/31 16:12:16.5	101.040	0.420	-0.880	0.100
2020/01/31 16:12:16.6	101.020	0.420	-0.830	0.130
2020/01/31 16:12:16.7	101.000	0.420	-0.760	0.160
2020/01/31 16:12:16.8	100.970	0.410	-0.700	0.190
2020/01/31 16:12:16.9	100.950	0.400	-0.640	0.230
2020/01/31 16:12:17.0	100.920	0.380	-0.570	0.270
2020/01/31 16:12:17.1	100.890	0.370	-0.510	0.310
2020/01/31 16:12:17.2	100.870	0.350	-0.440	0.350
2020/01/31 16:12:17.3	100.840	0.330	-0.380	0.390
2020/01/31 16:12:17.4	100.810	0.300	-0.310	0.430
2020/01/31 16:12:17.5	100.790	0.280	-0.250	0.470
2020/01/31 16:12:17.6	100.760	0.250	-0.190	0.510
2020/01/31 16:12:17.7	100.740	0.220	-0.130	0.550
2020/01/31 16:12:17.8	100.710	0.190	-0.080	0.580
2020/01/31 16:12:17.9	100.690	0.160	-0.030	0.620
2020/01/31 16:12:18.0	100.660	0.130	0.020	0.650
2020/01/31 16:12:18.1	100.630	0.100	0.060	0.690
2020/01/31 16:12:18.2	100.600	0.070	0.100	0.720
2020/01/31 16:12:18.3	100.580	0.050	0.140	0.750
2020/01/31 16:12:18.4	100.550	0.020	0.170	0.770
2020/01/31 16:12:18.5	100.520	-0.010	0.190	0.800
2020/01/31 16:12:18.6	100.490	-0.030	0.220	0.830
2020/01/31 16:12:18.7	100.480	-0.060	0.240	0.850
2020/01/31 16:12:18.8	100.450	-0.080	0.260	0.880
2020/01/31 16:12:18.9	100.420	-0.100	0.270	0.900
2020/01/31 16:12:19.0	100.400	-0.120	0.280	0.920
2020/01/31 16:12:19.1	100.370	-0.140	0.290	0.940
2020/01/31 16:12:19.2	100.340	-0.150	0.290	0.970
2020/01/31 16:12:19.3	100.310	-0.160	0.290	0.990
2020/01/31 16:12:19.4	100.290	-0.170	0.290	1.010
2020/01/31 16:12:19.5	100.260	-0.180	0.280	1.030
2020/01/31 16:12:19.6	100.230	-0.190	0.270	1.050
2020/01/31 16:12:19.7	100.200	-0.190	0.260	1.070
2020/01/31 16:12:19.8	100.170	-0.190	0.250	1.090
2020/01/31 16:12:19.9	100.140	-0.190	0.230	1.100
2020/01/31 16:12:20.0	100.110	-0.190	0.210	1.120
2020/01/31 16:12:20.1	100.080	-0.190	0.180	1.140
2020/01/31 16:12:20.2	100.050	-0.180	0.160	1.160
2020/01/31 16:12:20.3	100.020	-0.170	0.130	1.180
2020/01/31 16:12:20.4	99.990	-0.160	0.100	1.190
2020/01/31 16:12:20.5	99.960	-0.150	0.070	1.210
2020/01/31 16:12:20.6	99.930	-0.140	0.040	1.220
2020/01/31 16:12:20.7	99.900	-0.120	0.000	1.230
2020/01/31 16:12:20.8	99.870	-0.110	-0.030	1.240
2020/01/31 16:12:20.9	99.840	-0.090	-0.070	1.250
2020/01/31 16:12:21.0	99.810	-0.080	-0.100	1.260
2020/01/31 16:12:21.1	99.780	-0.060	-0.140	1.260
2020/01/31 16:12:21.2	99.750	-0.040	-0.170	1.260
2020/01/31 16:12:21.3	99.720	-0.030	-0.200	1.260
2020/01/31 16:12:21.4	99.690	-0.010	-0.230	1.260
2020/01/31 16:12:21.5	99.660	-0.000	-0.250	1.250
2020/01/31 16:12:21.6	99.630	0.010	-0.270	1.240
2020/01/31 16:12:21.7	99.610	0.020	-0.280	1.230
2020/01/31 16:12:21.8	99.580	0.030	-0.290	1.220
2020/01/31 16:12:21.9	99.550	0.040	-0.300	1.200
2020/01/31 16:12:22.0	99.520	0.040	-0.300	1.180
2020/01/31 16:12:22.1	99.490	0.040	-0.300	1.160
2020/01/31 16:12:22.2	99.460	0.040	-0.290	1.130
2020/01/31 16:12:22.3	99.430	0.040	-0.280	1.110
2020/01/31 16:12:22.4	99.400	0.030	-0.260	1.080
2020/01/31 16:12:22.5	99.370	0.020	-0.240	1.050
2020/01/31 16:12:22.6	99.340	0.010	-0.210	1.020
2020/01/31 16:12:22.7	99.310	0.000	-0.190	0.990
2020/01/31 16:12:22.8	99.280	-0.010	-0.160	0.960
2020/01/31 16:12:22.9	99.260	-0.030	-0.120	0.930
2020/01/31 16:12:23.0	99.230	-0.050	-0.090	0.900
2020/01/31 16:12:23.1	99.200	-0.060	-0.060	0.870
2020/01/31 16:12:23.2	99.180	-0.080	-0.020	0.840
2020/01/31 16:12:23.3	99.150	-0.100	0.010	0.810
2020/01/31 16:12:23.4	99.130	-0.120	0.030	0.770
2020/01/31 16:12:23.5	99.110	-0.140	0.060	0.740
2020/01/31 16:12:23.6	99.090	-0.150	0.080	0.710
2020/01/31 16:12:23.7	99.090	-0.170	0.100	0.680
2020/01/31 16:12:23.8	99.070	-0.180	0.120	0.650
2020/01/31 16:12:23.9	99.070	-0.190	0.120	0.610
2020/01/31 16:12:24.0	99.060	-0.200	0.130	0.580
2020/01/31 16:12:24.1	99.050	-0.210	0.120	0.540
2020/01/31 16:12:24.2	99.050	-0.210	0.110	0.510
2020/01/31 16:12:24.3	99.050	-0.210	0.090	0.470
2020/01/31 16:12:24.4	99.050	-0.210	0.070	0.440
2020/01/31 16:12:24.5	99.060	-0.200	0.040	0.410
2020/01/31 16:12:24.6	99.060	-0.190	0.010	0.370
2020/01/31 16:12:24.7	99.060	-0.180	-0.040	0.340
2020/01/31 16:12:24.8	99.060	-0.160	-0.080	0.310
2020/01/31 16:12:24.9	99.060	-0.150	-0.130	0.290
2020/01/31 16:12:25.0	99.060	-0.120	-0.180	0.260
2020/01/31 16:12:25.1	99.060	-0.100	-0.230	0.240
2020/01/31 16:12:25.2	99.060	-0.080	-0.290	0.230
2020/01/31 16:12:25.3	99.050	-0.050	-0.340	0.220
2020/01/31 16:12:25.4	99.040	-0.020	-0.400	0.210
2020/01/31 16:12:25.5	99.020	0.010	-0.450	0.200
2020/01/31 16:12:25.6	99.000	0.040	-0.510	0.200
2020/01/31 16:12:25.7	98.990	0.070	-0.560	0.200
2020/01/31 16:12:25.8	98.960	0.100	-0.610	0.210
2020/01/31 16:12:25.9	98.920	0.130	-0.650	0.210
2020/01/31 16:12:26.0	98.890	0.160	-0.690	0.220
2020/01/31 16:12:26.1	98.840	0.190	-0.730	0.230
2020/01/31 16:12:26.2	98.800	0.220	-0.760	0.250
2020/01/31 16:12:26.3	98.750	0.240	-0.780	0.260
2020/01/31 16:12:26.4	98.690	0.270	-0.800	0.280
2020/01/31 16:12:26.5	98.640	0.290	-0.820	0.290
2020/01/31 16:12:26.6	98.580	0.300	-0.820	0.310
2020/01/31 16:12:26.7	98.530	0.320	-0.820	0.330
2020/01/31 16:12:26.8	98.470	0.330	-0.810	0.350
2020/01/31 16:12:26.9	98.410	0.340	-0.800	0.370
2020/01/31 16:12:27.0	98.350	0.340	-0.780	0.390
2020/01/31 16:12:27.1	98.290	0.350	-0.750	0.410
2020/01/31 16:12:27.2	98.230	0.340	-0.720	0.430
2020/01/31 16:12:27.3	98.170	0.340	-0.680	0.450
2020/01/31 16:12:27.4	98.110	0.330	-0.640	0.470
2020/01/31 16:12:27.5	98.050	0.320	-0.590	0.500
2020/01/31 16:12:27.6	98.000	0.310	-0.540	0.520
2020/01/31 16:12:27.7	97.940	0.290	-0.490	0.540
2020/01/31 16:12:27.8	97.890	0.270	-0.430	0.570
2020/01/31 16:12:27.9	97.840	0.250	-0.370	0.590
2020/01/31 16:12:28.0	97.800	0.230	-0.310	0.620
2020/01/31 16:12:28.1	97.760	0.200	-0.250	0.640
2020/01/31 16:12:28.2	97.720	0.180	-0.190	0.670
2020/01/31 16:12:28.3	97.680	0.150	-0.140	0.690
2020/01/31 16:12:28.4	97.650	0.120	-0.080	0.710
2020/01/31 16:12:28.5	97.620	0.100	-0.030	0.740
2020/01/31 16:12:28.6	97.590	0.070	0.020	0.760
2020/01/31 16:12:28.7	97.580	0.040	0.080	0.780
2020/01/31 16:12:28.8	97.560	0.020	0.120	0.800
2020/01/31 16:12:28.9	97.540	-0.010	0.160	0.820
2020/01/31 16:12:29.0	97.520	-0.030	0.190	0.840
2020/01/31 16:12:29.1	97.510	-0.050	0.210	0.850
2020/01/31 16:12:29.2	97.490	-0.070	0.240	0.860
2020/01/31 16:12:29.3	97.480	-0.090	0.250	0.880
2020/01/31 16:12:29.4	97.470	-0.110	0.260	0.890
2020/01/31 16:12:29.5	97.460	-0.120	0.270	0.900
2020/01/31 16:12:29.6	97.450	-0.140	0.270	0.900
2020/01/31 16:12:29.7	97.440	-0.150	0.260	0.910
2020/01/31 16:12:29.8	97.430	-0.160	0.250	0.910
2020/01/31 16:12:29.9	97.420	-0.160	0.240	0.920
2020/01/31 16:12:30.0	97.410	-0.170	0.220	0.920
2020/01/31 16:12:30.1	97.390	-0.170	0.200	0.920
2020/01/31 16:12:30.2	97.380	-0.170	0.180	0.920
2020/01/31 16:12:30.3	97.360	-0.170	0.160	0.920
2020/01/31 16:12:30.4	97.340	-0.170	0.130	0.920
2020/01/31 16:12:30.5	97.320	-0.170	0.100	0.910
2020/01/31 16:12:30.6	97.300	-0.170	0.070	0.910
2020/01/31 16:12:30.7	97.280	-0.170	0.040	0.900
2020/01/31 16:12:30.8	97.250	-0.160	0.020	0.890
2020/01/31 16:12:30.9	97.230	-0.160	-0.010	0.880
2020/01/31 16:12:31.0	97.200	-0.150	-0.040	0.870
2020/01/31 16:12:31.1	97.160	-0.150	-0.070	0.860
2020/01/31 16:12:31.2	97.130	-0.140	-0.090	0.840
2020/01/31 16:12:31.3	97.100	-0.140	-0.110	0.830
2020/01/31 16:12:31.4	97.060	-0.130	-0.130	0.820
2020/01/31 16:12:31.5	97.030	-0.130	-0.150	0.810
2020/01/31 16:12:31.6	96.990	-0.130	-0.160	0.800
2020/01/31 16:12:31.7	96.960	-0.120	-0.170	0.790
2020/01/31 16:12:31.8	96.920	-0.120	-0.180	0.780
2020/01/31 16:12:31.9	96.880	-0.110	-0.180	0.770
2020/01/31 16:12:32.0	96.850	-0.110	-0.190	0.760
2020/01/31 16:12:32.1	96.810	-0.110	-0.190	0.760
2020/01/31 16:12:32.2	96.770	-0.100	-0.190	0.760
2020/01/31 16:12:32.3	96.730	-0.100	-0.180	0.760
2020/01/31 16:12:32.4	96.700	-0.100	-0.180	0.760
2020/01/31 16:12:32.5	96.660	-0.090	-0.170	0.760
2020/01/31 16:12:32.6	96.620	-0.090	-0.170	0.770
2020/01/31 16:12:32.7	96.590	-0.090	-0.160	0.770
2020/01/31 16:12:32.8	96.560	-0.080	-0.160	0.780
2020/01/31 16:12:32.9	96.520	-0.080	-0.150	0.790
2020/01/31 16:12:33.0	96.490	-0.070	-0.150	0.790
2020/01/31 16:12:33.1	96.460	-0.070	-0.150	0.800
2020/01/31 16:12:33.2	96.420	-0.060	-0.150	0.810
2020/01/31 16:12:33.3	96.390	-0.060	-0.150	0.820
2020/01/31 16:12:33.4	96.360	-0.050	-0.150	0.830
2020/01/31 16:12:33.5	96.330	-0.040	-0.150	0.840
2020/01/31 16:12:33.6	96.310	-0.030	-0.160	0.840
2020/01/31 16:12:33.7	96.290	-0.030	-0.170	0.850
2020/01/31 16:12:33.8	96.260	-0.020	-0.180	0.850
2020/01/31 16:12:33.9	96.240	-0.010	-0.190	0.850
2020/01/31 16:12:34.0	96.210	0.000	-0.210	0.840
2020/01/31 16:12:34.1	96.190	0.010	-0.220	0.830
2020/01/31 16:12:34.2	96.170	0.020	-0.240	0.820
2020/01/31 16:12:34.3	96.140	0.030	-0.260	0.810
2020/01/31 16:12:34.4	96.120	0.040	-0.280	0.790
2020/01/31 16:12:34.5	96.100	0.050	-0.300	0.770
2020/01/31 16:12:34.6	96.080	0.060	-0.320	0.740
2020/01/31 16:12:34.7	96.070	0.070	-0.330	0.710
2020/01/31 16:12:34.8	96.060	0.070	-0.350	0.680
2020/01/31 16:12:34.9	96.040	0.080	-0.360	0.650
2020/01/31 16:12:35.0	96.020	0.090	-0.380	0.620
2020/01/31 16:12:35.1	96.010	0.090	-0.390	0.580
2020/01/31 16:12:35.2	95.990	0.100	-0.400	0.550
2020/01/31 16:12:35.3	95.970	0.100	-0.400	0.520
2020/01/31 16:12:35.4	95.960	0.100	-0.410	0.480
2020/01/31 16:12:35.5	95.940	0.110	-0.400	0.450
2020/01/31 16:12:35.6	95.930	0.110	-0.400	0.420
2020/01/31 16:12:35.7	95.920	0.100	-0.390	0.390
2020/01/31 16:12:35.8	95.900	0.100	-0.380	0.370
2020/01/31 16:12:35.9	95.880	0.100	-0.360	0.340
2020/01/31 16:12:36.0	95.870	0.090	-0.340	0.320
2020/01/31 16:12:36.1	95.850	0.090	-0.320	0.310
2020/01/31 16:12:36.2	95.830	0.080	-0.290	0.290
2020/01/31 16:12:36.3	95.810	0.080	-0.260	0.280
2020/01/31 16:12:36.4	95.780	0.070	-0.230	0.270
2020/01/31 16:12:36.5	95.760	0.060	-0.200	0.270
2020/01/31 16:12:36.6	95.730	0.050	-0.160	0.270
2020/01/31 16:12:36.7	95.710	0.050	-0.130	0.270
2020/01/31 16:12:36.8	95.690	0.040	-0.090	0.270
2020/01/31 16:12:36.9	95.660	0.030	-0.060	0.280
2020/01/31 16:12:37.0	95.630	0.020	-0.030	0.290
2020/01/31 16:12:37.1	95.600	0.010	0.000	0.300
2020/01/31 16:12:37.2	95.570	0.010	0.030	0.310
2020/01/31 16:12:37.3	95.540	-0.000	0.060	0.320
2020/01/31 16:12:37.4	95.510	-0.010	0.080	0.340
2020/01/31 16:12:37.5	95.480	-0.010	0.090	0.350
2020/01/31 16:12:37.6	95.440	-0.020	0.110	0.370
2020/01/31 16:12:37.7	95.420	-0.020	0.120	0.380
2020/01/31 16:12:37.8	95.380	-0.020	0.120	0.400
2020/01/31 16:12:37.9	95.350	-0.020	0.120	0.410
2020/01/31 16:12:38.0	95.320	-0.020	0.110	0.420
2020/01/31 16:12:38.1	95.290	-0.020	0.100	0.430
2020/01/31 16:12:38.2	95.260	-0.020	0.080	0.450
2020/01/31 16:12:38.3	95.220	-0.010	0.050	0.450
2020/01/31 16:12:38.4	95.190	-0.010	0.020	0.460
2020/01/31 16:12:38.5	95.160	-0.000	-0.010	0.470
2020/01/31 16:12:38.6	95.130	0.000	-0.050	0.480
2020/01/31 16:12:38.7	95.100	0.010	-0.090	0.490
2020/01/31 16:12:38.8	95.070	0.020	-0.130	0.500
2020/01/31 16:12:38.9	95.050	0.030	-0.180	0.510
2020/01/31 16:12:39.0	95.020	0.030	-0.220	0.520
2020/01/31 16:12:39.1	94.990	0.040	-0.270	0.540
2020/01/31 16:12:39.2	94.960	0.050	-0.320	0.550
2020/01/31 16:12:39.3	94.930	0.060	-0.360	0.570
2020/01/31 16:12:39.4	94.900	0.070	-0.410	0.590
2020/01/31 16:12:39.5	94.870	0.080	-0.450	0.610
2020/01/31 16:12:39.6	94.840	0.090	-0.490	0.640
2020/01/31 16:12:39.7	94.810	0.100	-0.530	0.660
2020/01/31 16:12:39.8	94.790	0.110	-0.560	0.690
2020/01/31 16:12:39.9	94.760	0.110	-0.590	0.720
2020/01/31 16:12:40.0	94.730	0.120	-0.610	0.750
2020/01/31 16:12:40.1	94.700	0.130	-0.630	0.790
2020/01/31 16:12:40.2	94.670	0.130	-0.640	0.820
2020/01/31 16:12:40.3	94.650	0.130	-0.650	0.860
2020/01/31 16:12:40.4	94.620	0.140	-0.650	0.900
2020/01/31 16:12:40.5	94.590	0.140	-0.650	0.930
2020/01/31 16:12:40.6	94.570	0.140	-0.640	0.970
2020/01/31 16:12:40.7	94.540	0.140	-0.620	1.000
2020/01/31 16:12:40.8	94.520	0.130	-0.610	1.040
2020/01/31 16:12:40.9	94.490	0.130	-0.580	1.070
2020/01/31 16:12:41.0	94.470	0.120	-0.560	1.090
2020/01/31 16:12:41.1	94.450	0.110	-0.530	1.120
2020/01/31 16:12:41.2	94.430	0.110	-0.500	1.140
2020/01/31 16:12:41.3	94.400	0.090	-0.460	1.160
2020/01/31 16:12:41.4	94.380	0.080	-0.420	1.180
2020/01/31 16:12:41.5	94.370	0.070	-0.380	1.190
2020/01/31 16:12:41.6	94.350	0.050	-0.340	1.210
2020/01/31 16:12:41.7	94.330	0.040	-0.300	1.210
2020/01/31 16:12:41.8	94.310	0.020	-0.250	1.220
2020/01/31 16:12:41.9	94.300	-0.000	-0.210	1.220
2020/01/31 16:12:42.0	94.280	-0.020	-0.170	1.220
2020/01/31 16:12:42.1	94.260	-0.040	-0.130	1.220
2020/01/31 16:12:42.2	94.250	-0.070	-0.090	1.220
2020/01/31 16:12:42.3	94.230	-0.090	-0.050	1.220
2020/01/31 16:12:42.4	94.220	-0.110	-0.010	1.210
2020/01/31 16:12:42.5	94.200	-0.140	0.030	1.200
2020/01/31 16:12:42.6	94.190	-0.170	0.070	1.200
2020/01/31 16:12:42.7	94.160	-0.190	0.100	1.190
2020/01/31 16:12:42.8	94.140	-0.220	0.130	1.180
2020/01/31 16:12:42.9	94.130	-0.240	0.160	1.170
2020/01/31 16:12:43.0	94.120	-0.270	0.190	1.150
2020/01/31 16:12:43.1	94.100	-0.290	0.210	1.140
2020/01/31 16:12:43.2	94.090	-0.320	0.230	1.130
2020/01/31 16:12:43.3	94.080	-0.340	0.250	1.120
2020/01/31 16:12:43.4	94.060	-0.360	0.270	1.100
2020/01/31 16:12:43.5	94.050	-0.390	0.290	1.090
2020/01/31 16:12:43.6	94.040	-0.410	0.300	1.070
2020/01/31 16:12:43.7	94.040	-0.430	0.310	1.050
2020/01/31 16:12:43.8	94.020	-0.450	0.320	1.030
2020/01/31 16:12:43.9	94.010	-0.460	0.330	1.020
2020/01/31 16:12:44.0	94.000	-0.480	0.340	1.000
2020/01/31 16:12:44.1	93.990	-0.490	0.340	0.970
2020/01/31 16:12:44.2	93.980	-0.500	0.340	0.950
2020/01/31 16:12:44.3	93.970	-0.510	0.340	0.930
2020/01/31 16:12:44.4	93.960	-0.520	0.340	0.910
2020/01/31 16:12:44.5	93.950	-0.530	0.340	0.890
2020/01/31 16:12:44.6	93.940	-0.530	0.330	0.860
2020/01/31 16:12:44.7	93.920	-0.530	0.320	0.840
2020/01/31 16:12:44.8	93.910	-0.530	0.300	0.820
2020/01/31 16:12:44.9	93.900	-0.520	0.280	0.790
2020/01/31 16:12:45.0	93.890	-0.520	0.260	0.770
2020/01/31 16:12:45.1	93.870	-0.510	0.240	0.750
2020/01/31 16:12:45.2	93.860	-0.500	0.210	0.720
2020/01/31 16:12:45.3	93.850	-0.480	0.180	0.700
2020/01/31 16:12:45.4	93.840	-0.460	0.140	0.680
2020/01/31 16:12:45.5	93.820	-0.440	0.110	0.650
2020/01/31 16:12:45.6	93.810	-0.420	0.070	0.630
2020/01/31 16:12:45.7	93.790	-0.400	0.020	0.610
2020/01/31 16:12:45.8	93.770	-0.370	-0.030	0.590
2020/01/31 16:12:45.9	93.760	-0.340	-0.080	0.570
2020/01/31 16:12:46.0	93.740	-0.310	-0.130	0.540
2020/01/31 16:12:46.1	93.730	-0.270	-0.180	0.520
2020/01/31 16:12:46.2	93.710	-0.240	-0.230	0.500
2020/01/31 16:12:46.3	93.700	-0.200	-0.290	0.480
2020/01/31 16:12:46.4	93.680	-0.160	-0.340	0.460
2020/01/31 16:12:46.5	93.660	-0.120	-0.400	0.440
2020/01/31 16:12:46.6	93.650	-0.080	-0.450	0.420
2020/01/31 16:12:46.7	93.630	-0.040	-0.500	0.400
2020/01/31 16:12:46.8	93.600	0.010	-0.550	0.380
2020/01/31 16:12:46.9	93.580	0.050	-0.590	0.360
2020/01/31 16:12:47.0	93.560	0.090	-0.640	0.340
2020/01/31 16:12:47.1	93.540	0.130	-0.680	0.320
2020/01/31 16:12:47.2	93.510	0.180	-0.720	0.310
2020/01/31 16:12:47.3	93.480	0.220	-0.750	0.290
2020/01/31 16:12:47.4	93.450	0.260	-0.780	0.270
2020/01/31 16:12:47.5	93.430	0.300	-0.810	0.250
2020/01/31 16:12:47.6	93.400	0.330	-0.830	0.230
2020/01/31 16:12:47.7	93.370	0.370	-0.850	0.210
2020/01/31 16:12:47.8	93.330	0.410	-0.860	0.200
2020/01/31 16:12:47.9	93.300	0.440	-0.870	0.180
2020/01/31 16:12:48.0	93.270	0.470	-0.880	0.160
2020/01/31 16:12:48.1	93.230	0.500	-0.870	0.150
2020/01/31 16:12:48.2	93.200	0.530	-0.870	0.140
2020/01/31 16:12:48.3	93.160	0.560	-0.860	0.120
2020/01/31 16:12:48.4	93.130	0.580	-0.850	0.110
2020/01/31 16:12:48.5	93.090	0.610	-0.830	0.100
2020/01/31 16:12:48.6	93.060	0.630	-0.810	0.100
2020/01/31 16:12:48.7	93.030	0.650	-0.780	0.090
2020/01/31 16:12:48.8	92.990	0.660	-0.760	0.080
2020/01/31 16:12:48.9	92.960	0.680	-0.730	0.080
2020/01/31 16:12:49.0	92.930	0.690	-0.690	0.080
2020/01/31 16:12:49.1	92.900	0.700	-0.660	0.070
2020/01/31 16:12:49.2	92.870	0.710	-0.620	0.070
2020/01/31 16:12:49.3	92.840	0.720	-0.590	0.070
2020/01/31 16:12:49.4	92.810	0.720	-0.550	0.070
2020/01/31 16:12:49.5	92.780	0.720	-0.510	0.070
2020/01/31 16:12:49.6	92.750	0.720	-0.470	0.070
2020/01/31 16:12:49.7	92.730	0.710	-0.430	0.070
2020/01/31 16:12:49.8	92.710	0.710	-0.390	0.070
2020/01/31 16:12:49.9	92.690	0.700	-0.350	0.080
2020/01/31 16:12:50.0	92.660	0.690	-0.310	0.080
2020/01/31 16:12:50.1	92.640	0.670	-0.270	0.090
2020/01/31 16:12:50.2	92.620	0.650	-0.230	0.090
2020/01/31 16:12:50.3	92.600	0.630	-0.190	0.100
2020/01/31 16:12:50.4	92.580	0.610	-0.150	0.110
2020/01/31 16:12:50.5	92.560	0.580	-0.110	0.120
2020/01/31 16:12:50.6	92.540	0.550	-0.070	0.130
2020/01/31 16:12:50.7	92.520	0.520	-0.030	0.150
2020/01/31 16:12:50.8	92.500	0.480	0.010	0.160
2020/01/31 16:12:50.9	92.480	0.440	0.040	0.170
2020/01/31 16:12:51.0	92.460	0.400	0.080	0.190
2020/01/31 16:12:51.1	92.440	0.360	0.120	0.200
2020/01/31 16:12:51.2	92.420	0.310	0.150	0.220
2020/01/31 16:12:51.3	92.400	0.270	0.190	0.240
2020/01/31 16:12:51.4	92.380	0.220	0.230	0.250
2020/01/31 16:12:51.5	92.360	0.170	0.260	0.270
2020/01/31 16:12:51.6	92.340	0.110	0.290	0.290
2020/01/31 16:12:51.7	92.320	0.060	0.330	0.300
2020/01/31 16:12:51.8	92.300	0.010	0.360	0.320
2020/01/31 16:12:51.9	92.280	-0.040	0.380	0.340
2020/01/31 16:12:52.0	92.260	-0.100	0.410	0.350
2020/01/31 16:12:52.1	92.250	-0.150	0.440	0.370
2020/01/31 16:12:52.2	92.230	-0.200	0.460	0.390
2020/01/31 16:12:52.3	92.210	-0.250	0.480	0.400
2020/01/31 16:12:52.4	92.190	-0.300	0.490	0.420
2020/01/31 16:12:52.5	92.180	-0.340	0.510	0.440
2020/01/31 16:12:52.6	92.160	-0.380	0.510	0.460
2020/01/31 16:12:52.7	92.140	-0.420	0.520	0.470
2020/01/31 16:12:52.8	92.120	-0.460	0.520	0.490
2020/01/31 16:12:52.9	92.110	-0.490	0.520	0.510
2020/01/31 16:12:53.0	92.090	-0.520	0.510	0.530
2020/01/31 16:12:53.1	92.080	-0.540	0.500	0.560
2020/01/31 16:12:53.2	92.060	-0.560	0.480	0.580
2020/01/31 16:12:53.3	92.050	-0.580	0.460	0.600
2020/01/31 16:12:53.4	92.030	-0.590	0.430	0.630
2020/01/31 16:12:53.5	92.020	-0.600	0.400	0.660
2020/01/31 16:12:53.6	92.010	-0.600	0.370	0.690
2020/01/31 16:12:53.7	91.990	-0.600	0.330	0.720
2020/01/31 16:12:53.8	91.980	-0.590	0.290	0.750
2020/01/31 16:12:53.9	91.960	-0.580	0.240	0.790
2020/01/31 16:12:54.0	91.950	-0.570	0.190	0.830
2020/01/31 16:12:54.1	91.930	-0.550	0.140	0.870
2020/01/31 16:12:54.2	91.910	-0.530	0.080	0.910
2020/01/31 16:12:54.3	91.880	-0.510	0.030	0.950
2020/01/31 16:12:54.4	91.860	-0.490	-0.030	1.000
2020/01/31 16:12:54.5	91.830	-0.470	-0.090	1.050
2020/01/31 16:12:54.6	91.800	-0.440	-0.150	1.100
2020/01/31 16:12:54.7	91.760	-0.420	-0.210	1.150
2020/01/31 16:12:54.8	91.730	-0.390	-0.270	1.200
2020/01/31 16:12:54.9	91.700	-0.360	-0.330	1.240
2020/01/31 16:12:55.0	91.660	-0.340	-0.390	1.290
2020/01/31 16:12:55.1	91.620	-0.310	-0.450	1.330
2020/01/31 16:12:55.2	91.580	-0.280	-0.500	1.370
2020/01/31 16:12:55.3	91.540	-0.260	-0.560	1.410
2020/01/31 16:12:55.4	91.490	-0.240	-0.610	1.440
2020/01/31 16:12:55.5	91.450	-0.220	-0.660	1.470
2020/01/31 16:12:55.6	91.410	-0.200	-0.710	1.500
2020/01/31 16:12:55.7	91.360	-0.180	-0.750	1.510
2020/01/31 16:12:55.8	91.310	-0.160	-0.790	1.530
2020/01/31 16:12:55.9	91.270	-0.150	-0.820	1.540
2020/01/31 16:12:56.0	91.220	-0.140	-0.850	1.540
2020/01/31 16:12:56.1	91.180	-0.130	-0.880	1.540
2020/01/31 16:12:56.2	91.140	-0.120	-0.890	1.540
2020/01/31 16:12:56.3	91.100	-0.120	-0.900	1.530
2020/01/31 16:12:56.4	91.060	-0.110	-0.910	1.510
2020/01/31 16:12:56.5	91.020	-0.110	-0.910	1.500
2020/01/31 16:12:56.6	90.980	-0.110	-0.900	1.480
2020/01/31 16:12:56.7	90.940	-0.110	-0.890	1.450
2020/01/31 16:12:56.8	90.910	-0.110	-0.860	1.430
2020/01/31 16:12:56.9	90.870	-0.120	-0.830	1.400
2020/01/31 16:12:57.0	90.840	-0.120	-0.800	1.380
2020/01/31 16:12:57.1	90.810	-0.130	-0.750	1.350
2020/01/31 16:12:57.2	90.770	-0.140	-0.710	1.320
2020/01/31 16:12:57.3	90.740	-0.140	-0.650	1.300
2020/01/31 16:12:57.4	90.720	-0.150	-0.590	1.270
2020/01/31 16:12:57.5	90.690	-0.160	-0.530	1.240
2020/01/31 16:12:57.6	90.660	-0.170	-0.460	1.220
2020/01/31 16:12:57.7	90.630	-0.180	-0.390	1.200
2020/01/31 16:12:57.8	90.610	-0.190	-0.320	1.170
2020/01/31 16:12:57.9	90.580	-0.200	-0.240	1.150
2020/01/31 16:12:58.0	90.560	-0.200	-0.170	1.130
2020/01/31 16:12:58.1	90.530	-0.210	-0.100	1.100
2020/01/31 16:12:58.2	90.510	-0.220	-0.030	1.080
2020/01/31 16:12:58.3	90.480	-0.220	0.040	1.060
2020/01/31 16:12:58.4	90.450	-0.230	0.100	1.040
2020/01/31 16:12:58.5	90.430	-0.230	0.160	1.020
2020/01/31 16:12:58.6	90.400	-0.230	0.210	1.000
2020/01/31 16:12:58.7	90.370	-0.230	0.260	0.980
2020/01/31 16:12:58.8	90.350	-0.220	0.300	0.960
2020/01/31 16:12:58.9	90.320	-0.220	0.330	0.930
2020/01/31 16:12:59.0	90.300	-0.210	0.360	0.910
2020/01/31 16:12:59.1	90.270	-0.200	0.370	0.880
2020/01/31 16:12:59.2	90.240	-0.180	0.380	0.850
2020/01/31 16:12:59.3	90.220	-0.160	0.380	0.820
2020/01/31 16:12:59.4	90.200	-0.140	0.370	0.780
2020/01/31 16:12:59.5	90.170	-0.120	0.350	0.740
2020/01/31 16:12:59.6	90.150	-0.090	0.330	0.700
2020/01/31 16:12:59.7	90.120	-0.070	0.290	0.650
2020/01/31 16:12:59.8	90.100	-0.030	0.250	0.600
2020/01/31 16:12:59.9	90.080	-0.000	0.210	0.560
2020/01/31 16:13:00.0	90.060	0.030	0.160	0.500
2020/01/31 16:13:00.1	90.050	0.070	0.100	0.450
2020/01/31 16:13:00.2	90.040	0.110	0.040	0.400
2020/01/31 16:13:00.3	90.020	0.150	-0.020	0.350
2020/01/31 16:13:00.4	90.010	0.190	-0.080	0.290
2020/01/31 16:13:00.5	90.000	0.240	-0.150	0.240
2020/01/31 16:13:00.6	89.990	0.280	-0.210	0.190
2020/01/31 16:13:00.7	89.970	0.320	-0.280	0.130
2020/01/31 16:13:00.8	89.970	0.360	-0.340	0.080
2020/01/31 16:13:00.9	89.960	0.400	-0.400	0.030
2020/01/31 16:13:01.0	89.950	0.440	-0.450	-0.010
2020/01/31 16:13:01.1	89.940	0.480	-0.500	-0.060
2020/01/31 16:13:01.2	89.930	0.510	-0.550	-0.100
2020/01/31 16:13:01.3	89.920	0.550	-0.590	-0.140
2020/01/31 16:13:01.4	89.910	0.580	-0.630	-0.180
2020/01/31 16:13:01.5	89.900	0.610	-0.660	-0.210
2020/01/31 16:13:01.6	89.890	0.630	-0.680	-0.240
2020/01/31 16:13:01.7	89.870	0.650	-0.700	-0.260
2020/01/31 16:13:01.8	89.860	0.670	-0.710	-0.280
2020/01/31 16:13:01.9	89.850	0.680	-0.710	-0.300
2020/01/31 16:13:02.0	89.830	0.690	-0.710	-0.310
2020/01/31 16:13:02.1	89.810	0.700	-0.710	-0.320
2020/01/31 16:13:02.2	89.800	0.700	-0.690	-0.320
2020/01/31 16:13:02.3	89.780	0.690	-0.670	-0.320
2020/01/31 16:13:02.4	89.750	0.690	-0.650	-0.310
2020/01/31 16:13:02.5	89.730	0.670	-0.620	-0.290
2020/01/31 16:13:02.6	89.710	0.660	-0.590	-0.270
2020/01/31 16:13:02.7	89.670	0.640	-0.560	-0.240
2020/01/31 16:13:02.8	89.650	0.620	-0.510	-0.210
2020/01/31 16:13:02.9	89.620	0.590	-0.470	-0.170
2020/01/31 16:13:03.0	89.590	0.560	-0.420	-0.130
2020/01/31 16:13:03.1	89.550	0.530	-0.370	-0.090
2020/01/31 16:13:03.2	89.520	0.490	-0.320	-0.040
2020/01/31 16:13:03.3	89.480	0.450	-0.260	0.000
2020/01/31 16:13:03.4	89.450	0.400	-0.210	0.050
2020/01/31 16:13:03.5	89.410	0.360	-0.150	0.110
2020/01/31 16:13:03.6	89.370	0.310	-0.090	0.160
2020/01/31 16:13:03.7	89.340	0.260	-0.030	0.210
2020/01/31 16:13:03.8	89.300	0.200	0.030	0.260
2020/01/31 16:13:03.9	89.260	0.150	0.080	0.310
2020/01/31 16:13:04.0	89.220	0.090	0.140	0.360
2020/01/31 16:13:04.1	89.180	0.040	0.190	0.410
2020/01/31 16:13:04.2	89.140	-0.020	0.240	0.460
2020/01/31 16:13:04.3	89.090	-0.080	0.290	0.500
2020/01/31 16:13:04.4	89.050	-0.140	0.340	0.540
2020/01/31 16:13:04.5	89.010	-0.190	0.380	0.580
2020/01/31 16:13:04.6	88.970	-0.250	0.410	0.610
2020/01/31 16:13:04.7	88.940	-0.300	0.440	0.650
2020/01/31 16:13:04.8	88.900	-0.350	0.470	0.670
2020/01/31 16:13:04.9	88.850	-0.400	0.490	0.700
2020/01/31 16:13:05.0	88.810	-0.450	0.510	0.720
2020/01/31 16:13:05.1	88.780	-0.490	0.510	0.740
2020/01/31 16:13:05.2	88.740	-0.530	0.520	0.760
2020/01/31 16:13:05.3	88.700	-0.560	0.520	0.770
2020/01/31 16:13:05.4	88.660	-0.600	0.510	0.780
2020/01/31 16:13:05.5	88.620	-0.620	0.500	0.790
2020/01/31 16:13:05.6	88.580	-0.650	0.480	0.800
2020/01/31 16:13:05.7	88.540	-0.670	0.450	0.800
2020/01/31 16:13:05.8	88.510	-0.680	0.420	0.800
2020/01/31 16:13:05.9	88.470	-0.690	0.390	0.800
2020/01/31 16:13:06.0	88.440	-0.690	0.350	0.800
2020/01/31 16:13:06.1	88.410	-0.690	0.310	0.800
2020/01/31 16:13:06.2	88.380	-0.690	0.260	0.800
2020/01/31 16:13:06.3	88.350	-0.670	0.210	0.800
2020/01/31 16:13:06.4	88.320	-0.660	0.160	0.800
2020/01/31 16:13:06.5	88.300	-0.630	0.100	0.800
2020/01/31 16:13:06.6	88.280	-0.610	0.040	0.800
2020/01/31 16:13:06.7	88.250	-0.580	-0.020	0.800
2020/01/31 16:13:06.8	88.230	-0.540	-0.090	0.800
2020/01/31 16:13:06.9	88.220	-0.500	-0.150	0.800
2020/01/31 16:13:07.0	88.200	-0.460	-0.220	0.810
2020/01/31 16:13:07.1	88.190	-0.410	-0.280	0.810
2020/01/31 16:13:07.2	88.180	-0.370	-0.350	0.810
2020/01/31 16:13:07.3	88.170	-0.320	-0.420	0.820
2020/01/31 16:13:07.4	88.160	-0.260	-0.480	0.830
2020/01/31 16:13:07.5	88.150	-0.210	-0.540	0.830
2020/01/31 16:13:07.6	88.140	-0.150	-0.610	0.840
2020/01/31 16:13:07.7	88.140	-0.100	-0.670	0.850
2020/01/31 16:13:07.8	88.130	-0.050	-0.720	0.850
2020/01/31 16:13:07.9	88.120	0.010	-0.780	0.860
2020/01/31 16:13:08.0	88.110	0.060	-0.830	0.870
2020/01/31 16:13:08.1	88.110	0.110	-0.870	0.880
2020/01/31 16:13:08.2	88.100	0.160	-0.910	0.880
2020/01/31 16:13:08.3	88.090	0.210	-0.950	0.890
2020/01/31 16:13:08.4	88.080	0.250	-0.980	0.890
2020/01/31 16:13:08.5	88.070	0.300	-1.000	0.890
2020/01/31 16:13:08.6	88.050	0.330	-1.020	0.890
2020/01/31 16:13:08.7	88.040	0.370	-1.040	0.890
2020/01/31 16:13:08.8	88.030	0.400	-1.050	0.890
2020/01/31 16:13:08.9	88.010	0.430	-1.050	0.880
2020/01/31 16:13:09.0	87.990	0.450	-1.040	0.870
2020/01/31 16:13:09.1	87.970	0.470	-1.030	0.860
2020/01/31 16:13:09.2	87.950	0.490	-1.020	0.850
2020/01/31 16:13:09.3	87.930	0.500	-0.990	0.830
2020/01/31 16:13:09.4	87.910	0.510	-0.960	0.810
2020/01/31 16:13:09.5	87.880	0.510	-0.920	0.800
2020/01/31 16:13:09.6	87.860	0.510	-0.880	0.780
2020/01/31 16:13:09.7	87.830	0.500	-0.830	0.760
2020/01/31 16:13:09.8	87.810	0.500	-0.770	0.740
2020/01/31 16:13:09.9	87.780	0.490	-0.710	0.720
2020/01/31 16:13:10.0	87.750	0.470	-0.650	0.710
2020/01/31 16:13:10.1	87.730	0.450	-0.580	0.690
2020/01/31 16:13:10.2	87.700	0.430	-0.500	0.680
2020/01/31 16:13:10.3	87.670	0.410	-0.430	0.670
2020/01/31 16:13:10.4	87.640	0.380	-0.350	0.660
2020/01/31 16:13:10.5	87.610	0.350	-0.260	0.660
2020/01/31 16:13:10.6	87.580	0.320	-0.180	0.660
2020/01/31 16:13:10.7	87.550	0.290	-0.090	0.660
2020/01/31 16:13:10.8	87.520	0.260	-0.000	0.660
2020/01/31 16:13:10.9	87.490	0.220	0.080	0.660
2020/01/31 16:13:11.0	87.460	0.190	0.160	0.670
2020/01/31 16:13:11.1	87.420	0.150	0.240	0.680
2020/01/31 16:13:11.2	87.390	0.110	0.320	0.690
2020/01/31 16:13:11.3	87.360	0.070	0.390	0.700
2020/01/31 16:13:11.4	87.320	0.040	0.460	0.710
2020/01/31 16:13:11.5	87.290	-0.000	0.530	0.720
2020/01/31 16:13:11.6	87.260	-0.040	0.580	0.740
2020/01/31 16:13:11.7	87.220	-0.070	0.630	0.750
2020/01/31 16:13:11.8	87.190	-0.110	0.670	0.760
2020/01/31 16:13:11.9	87.160	-0.140	0.710	0.770
2020/01/31 16:13:12.0	87.130	-0.170	0.730	0.780
2020/01/31 16:13:12.1	87.100	-0.200	0.750	0.790
2020/01/31 16:13:12.2	87.070	-0.230	0.760	0.800
2020/01/31 16:13:12.3	87.040	-0.260	0.760	0.800
2020/01/31 16:13:12.4	87.020	-0.280	0.760	0.800
2020/01/31 16:13:12.5	86.990	-0.300	0.740	0.800
2020/01/31 16:13:12.6	86.970	-0.320	0.720	0.800
2020/01/31 16:13:12.7	86.940	-0.340	0.690	0.790
2020/01/31 16:13:12.8	86.920	-0.350	0.650	0.770
2020/01/31 16:13:12.9	86.900	-0.360	0.610	0.750
2020/01/31 16:13:13.0	86.880	-0.370	0.560	0.730
2020/01/31 16:13:13.1	86.870	-0.380	0.510	0.710
2020/01/31 16:13:13.2	86.850	-0.380	0.460	0.670
2020/01/31 16:13:13.3	86.840	-0.390	0.390	0.640
2020/01/31 16:13:13.4	86.830	-0.380	0.330	0.600
2020/01/31 16:13:13.5	86.810	-0.380	0.270	0.560
2020/01/31 16:13:13.6	86.800	-0.380	0.200	0.520
2020/01/31 16:13:13.7	86.780	-0.370	0.130	0.470
2020/01/31 16:13:13.8	86.770	-0.360	0.060	0.430
2020/01/31 16:13:13.9	86.760	-0.340	-0.000	0.390
2020/01/31 16:13:14.0	86.750	-0.330	-0.070	0.340
2020/01/31 16:13:14.1	86.740	-0.310	-0.130	0.300
2020/01/31 16:13:14.2	86.720	-0.290	-0.190	0.260
2020/01/31 16:13:14.3	86.710	-0.270	-0.250	0.230
2020/01/31 16:13:14.4	86.700	-0.250	-0.310	0.190
2020/01/31 16:13:14.5	86.680	-0.220	-0.360	0.160
2020/01/31 16:13:14.6	86.670	-0.190	-0.400	0.140
2020/01/31 16:13:14.7	86.650	-0.170	-0.450	0.110
2020/01/31 16:13:14.8	86.630	-0.140	-0.490	0.090
2020/01/31 16:13:14.9	86.610	-0.110	-0.520	0.080
2020/01/31 16:13:15.0	86.590	-0.080	-0.550	0.070
2020/01/31 16:13:15.1	86.560	-0.050	-0.580	0.070
2020/01/31 16:13:15.2	86.540	-0.020	-0.600	0.070
2020/01/31 16:13:15.3	86.510	0.010	-0.620	0.080
2020/01/31 16:13:15.4	86.490	0.040	-0.640	0.090
2020/01/31 16:13:15.5	86.460	0.070	-0.650	0.100
2020/01/31 16:13:15.6	86.430	0.090	-0.660	0.120
2020/01/31 16:13:15.7	86.400	0.120	-0.670	0.140
2020/01/31 16:13:15.8	86.370	0.150	-0.680	0.170
2020/01/31 16:13:15.9	86.340	0.170	-0.680	0.190
2020/01/31 16:13:16.0	86.310	0.190	-0.690	0.220
2020/01/31 16:13:16.1	86.280	0.210	-0.690	0.250
2020/01/31 16:13:16.2	86.240	0.230	-0.690	0.290
2020/01/31 16:13:16.3	86.210	0.250	-0.690	0.320
2020/01/31 16:13:16.4	86.180	0.270	-0.690	0.360
2020/01/31 16:13:16.5	86.150	0.280	-0.690	0.390
2020/01/31 16:13:16.6	86.120	0.290	-0.690	0.430
2020/01/31 16:13:16.7	86.090	0.300	-0.690	0.460
2020/01/31 16:13:16.8	86.060	0.310	-0.680	0.500
2020/01/31 16:13:16.9	86.030	0.310	-0.680	0.530
2020/01/31 16:13:17.0	86.000	0.320	-0.680	0.560
2020/01/31 16:13:17.1	85.970	0.320	-0.670	0.600
2020/01/31 16:13:17.2	85.940	0.310	-0.660	0.630
2020/01/31 16:13:17.3	85.910	0.310	-0.650	0.660
2020/01/31 16:13:17.4	85.870	0.300	-0.640	0.680
2020/01/31 16:13:17.5	85.840	0.290	-0.630	0.710
2020/01/31 16:13:17.6	85.810	0.280	-0.620	0.730
2020/01/31 16:13:17.7	85.780	0.260	-0.600	0.750
2020/01/31 16:13:17.8	85.750	0.240	-0.580	0.760
2020/01/31 16:13:17.9	85.720	0.230	-0.560	0.780
2020/01/31 16:13:18.0	85.680	0.200	-0.530	0.790
2020/01/31 16:13:18.1	85.650	0.180	-0.500	0.800
2020/01/31 16:13:18.2	85.610	0.160	-0.470	0.800
2020/01/31 16:13:18.3	85.580	0.130	-0.440	0.810
2020/01/31 16:13:18.4	85.550	0.100	-0.400	0.810
2020/01/31 16:13:18.5	85.510	0.080	-0.360	0.810
2020/01/31 16:13:18.6	85.480	0.050	-0.320	0.810
2020/01/31 16:13:18.7	85.440	0.020	-0.270	0.810
2020/01/31 16:13:18.8	85.410	-0.010	-0.220	0.810
2020/01/31 16:13:18.9	85.370	-0.030	-0.170	0.810
2020/01/31 16:13:19.0	85.340	-0.060	-0.120	0.810
2020/01/31 16:13:19.1	85.310	-0.090	-0.070	0.800
2020/01/31 16:13:19.2	85.280	-0.110	-0.020	0.800
2020/01/31 16:13:19.3	85.260	-0.140	0.030	0.800
2020/01/31 16:13:19.4	85.230	-0.160	0.080	0.800
2020/01/31 16:13:19.5	85.210	-0.180	0.130	0.790
2020/01/31 16:13:19.6	85.190	-0.200	0.170	0.790
2020/01/31 16:13:19.7	85.170	-0.210	0.210	0.780
2020/01/31 16:13:19.8	85.160	-0.230	0.250	0.770
2020/01/31 16:13:19.9	85.140	-0.240	0.280	0.760
2020/01/31 16:13:20.0	85.130	-0.250	0.310	0.750
2020/01/31 16:13:20.1	85.110	-0.250	0.330	0.740
2020/01/31 16:13:20.2	85.100	-0.250	0.350	0.730
2020/01/31 16:13:20.3	85.090	-0.250	0.360	0.710
2020/01/31 16:13:20.4	85.080	-0.250	0.360	0.700
2020/01/31 16:13:20.5	85.070	-0.240	0.360	0.680
2020/01/31 16:13:20.6	85.060	-0.240	0.360	0.660
2020/01/31 16:13:20.7	85.050	-0.230	0.340	0.650
2020/01/31 16:13:20.8	85.040	-0.210	0.330	0.630
2020/01/31 16:13:20.9	85.020	-0.200	0.300	0.610
2020/01/31 16:13:21.0	85.010	-0.180	0.280	0.590
2020/01/31 16:13:21.1	85.000	-0.160	0.250	0.580
2020/01/31 16:13:21.2	84.980	-0.140	0.210	0.560
2020/01/31 16:13:21.3	84.960	-0.130	0.180	0.550
2020/01/31 16:13:21.4	84.940	-0.110	0.140	0.530
2020/01/31 16:13:21.5	84.920	-0.090	0.100	0.520
2020/01/31 16:13:21.6	84.900	-0.070	0.060	0.510
2020/01/31 16:13:21.7	84.870	-0.050	0.020	0.500
2020/01/31 16:13:21.8	84.840	-0.030	-0.020	0.490
2020/01/31 16:13:21.9	84.820	-0.020	-0.060	0.480
2020/01/31 16:13:22.0	84.790	-0.000	-0.090	0.470
2020/01/31 16:13:22.1	84.760	0.010	-0.130	0.470
2020/01/31 16:13:22.2	84.730	0.020	-0.160	0.460
2020/01/31 16:13:22.3	84.700	0.030	-0.190	0.460
2020/01/31 16:13:22.4	84.670	0.030	-0.210	0.450
2020/01/31 16:13:22.5	84.630	0.040	-0.240	0.450
2020/01/31 16:13:22.6	84.600	0.040	-0.260	0.440
2020/01/31 16:13:22.7	84.560	0.040	-0.270	0.440
2020/01/31 16:13:22.8	84.530	0.030	-0.280	0.430
2020/01/31 16:13:22.9	84.500	0.030	-0.290	0.430
2020/01/31 16:13:23.0	84.460	0.020	-0.300	0.420
2020/01/31 16:13:23.1	84.430	0.020	-0.300	0.420
2020/01/31 16:13:23.2	84.400	0.010	-0.310	0.410
2020/01/31 16:13:23.3	84.370	-0.000	-0.300	0.410
2020/01/31 16:13:23.4	84.340	-0.010	-0.300	0.400
2020/01/31 16:13:23.5	84.310	-0.020	-0.300	0.400
2020/01/31 16:13:23.6	84.280	-0.030	-0.290	0.390
2020/01/31 16:13:23.7	84.250	-0.040	-0.280	0.380
2020/01/31 16:13:23.8	84.220	-0.050	-0.270	0.370
2020/01/31 16:13:23.9	84.190	-0.060	-0.260	0.360
2020/01/31 16:13:24.0	84.160	-0.070	-0.250	0.350
2020/01/31 16:13:24.1	84.130	-0.080	-0.240	0.350
2020/01/31 16:13:24.2	84.100	-0.080	-0.230	0.340
2020/01/31 16:13:24.3	84.080	-0.090	-0.220	0.340
2020/01/31 16:13:24.4	84.050	-0.090	-0.210	0.330
2020/01/31 16:13:24.5	84.020	-0.090	-0.200	0.330
2020/01/31 16:13:24.6	83.990	-0.090	-0.200	0.320
2020/01/31 16:13:24.7	83.960	-0.080	-0.190	0.320
2020/01/31 16:13:24.8	83.930	-0.080	-0.180	0.320
2020/01/31 16:13:24.9	83.900	-0.070	-0.180	0.320
2020/01/31 16:13:25.0	83.870	-0.060	-0.180	0.310
2020/01/31 16:13:25.1	83.840	-0.050	-0.180	0.310
2020/01/31 16:13:25.2	83.810	-0.040	-0.190	0.310
2020/01/31 16:13:25.3	83.780	-0.020	-0.190	0.310
2020/01/31 16:13:25.4	83.750	-0.000	-0.200	0.310
2020/01/31 16:13:25.5	83.720	0.010	-0.210	0.310
2020/01/31 16:13:25.6	83.690	0.030	-0.230	0.310
2020/01/31 16:13:25.7	83.670	0.050	-0.250	0.310
2020/01/31 16:13:25.8	83.640	0.080	-0.260	0.310
2020/01/31 16:13:25.9	83.610	0.100	-0.280	0.310
2020/01/31 16:13:26.0	83.590	0.120	-0.310	0.310
2020/01/31 16:13:26.1	83.560	0.150	-0.330	0.310
2020/01/31 16:13:26.2	83.540	0.170	-0.350	0.310
2020/01/31 16:13:26.3	83.510	0.200	-0.380	0.310
2020/01/31 16:13:26.4	83.490	0.220	-0.400	0.310
2020/01/31 16:13:26.5	83.470	0.240	-0.420	0.310
2020/01/31 16:13:26.6	83.450	0.260	-0.450	0.320
2020/01/31 16:13:26.7	83.430	0.290	-0.470	0.320
2020/01/31 16:13:26.8	83.400	0.300	-0.490	0.320
2020/01/31 16:13:26.9	83.380	0.320	-0.510	0.330
2020/01/31 16:13:27.0	83.360	0.340	-0.520	0.330
2020/01/31 16:13:27.1	83.330	0.350	-0.530	0.340
2020/01/31 16:13:27.2	83.310	0.360	-0.540	0.350
2020/01/31 16:13:27.3	83.280	0.370	-0.540	0.360
2020/01/31 16:13:27.4	83.260	0.380	-0.540	0.370
2020/01/31 16:13:27.5	83.230	0.380	-0.540	0.390
2020/01/31 16:13:27.6	83.190	0.380	-0.520	0.400
2020/01/31 16:13:27.7	83.160	0.370	-0.510	0.420
2020/01/31 16:13:27.8	83.120	0.360	-0.480	0.430
2020/01/31 16:13:27.9	83.080	0.350	-0.460	0.450
2020/01/31 16:13:28.0	83.050	0.340	-0.420	0.470
2020/01/31 16:13:28.1	83.000	0.320	-0.390	0.490
2020/01/31 16:13:28.2	82.960	0.300	-0.350	0.510
2020/01/31 16:13:28.3	82.910	0.280	-0.300	0.540
2020/01/31 16:13:28.4	82.870	0.250	-0.250	0.560
2020/01/31 16:13:28.5	82.820	0.220	-0.200	0.580
2020/01/31 16:13:28.6	82.770	0.190	-0.140	0.600
2020/01/31 16:13:28.7	82.710	0.150	-0.080	0.620
2020/01/31 16:13:28.8	82.670	0.120	-0.030	0.640
2020/01/31 16:13:28.9	82.620	0.080	0.030	0.660
2020/01/31 16:13:29.0	82.570	0.040	0.090	0.690
2020/01/31 16:13:29.1	82.520	0.000	0.140	0.710
2020/01/31 16:13:29.2	82.480	-0.040	0.200	0.720
2020/01/31 16:13:29.3	82.430	-0.080	0.250	0.740
2020/01/31 16:13:29.4	82.390	-0.120	0.300	0.760
2020/01/31 16:13:29.5	82.350	-0.160	0.340	0.780
2020/01/31 16:13:29.6	82.310	-0.200	0.380	0.790
2020/01/31 16:13:29.7	82.280	-0.230	0.420	0.800
2020/01/31 16:13:29.8	82.240	-0.270	0.450	0.820
2020/01/31 16:13:29.9	82.210	-0.300	0.470	0.830
2020/01/31 16:13:30.0	82.180	-0.330	0.490	0.840
2020/01/31 16:13:30.1	82.150	-0.350	0.500	0.850
2020/01/31 16:13:30.2	82.120	-0.380	0.500	0.850
2020/01/31 16:13:30.3	82.100	-0.390	0.490	0.860
2020/01/31 16:13:30.4	82.070	-0.410	0.480	0.860
2020/01/31 16:13:30.5	82.050	-0.420	0.450	0.860
2020/01/31 16:13:30.6	82.040	-0.420	0.420	0.860
2020/01/31 16:13:30.7	82.020	-0.430	0.390	0.850
2020/01/31 16:13:30.8	82.010	-0.420	0.340	0.840
2020/01/31 16:13:30.9	82.000	-0.410	0.290	0.830
2020/01/31 16:13:31.0	81.990	-0.400	0.230	0.820
2020/01/31 16:13:31.1	81.980	-0.380	0.160	0.810
2020/01/31 16:13:31.2	81.980	-0.360	0.090	0.800
2020/01/31 16:13:31.3	81.970	-0.340	0.020	0.790
2020/01/31 16:13:31.4	81.960	-0.310	-0.050	0.780
2020/01/31 16:13:31.5	81.960	-0.270	-0.130	0.770
2020/01/31 16:13:31.6	81.950	-0.240	-0.210	0.760
2020/01/31 16:13:31.7	81.930	-0.200	-0.290	0.760
2020/01/31 16:13:31.8	81.920	-0.160	-0.370	0.760
2020/01/31 16:13:31.9	81.910	-0.120	-0.450	0.760
2020/01/31 16:13:32.0	81.890	-0.070	-0.520	0.760
2020/01/31 16:13:32.1	81.870	-0.030	-0.590	0.770
2020/01/31 16:13:32.2	81.850	0.010	-0.660	0.770
2020/01/31 16:13:32.3	81.830	0.060	-0.720	0.780
2020/01/31 16:13:32.4	81.800	0.100	-0.780	0.800
2020/01/31 16:13:32.5	81.770	0.140	-0.830	0.810
2020/01/31 16:13:32.6	81.740	0.180	-0.870	0.820
2020/01/31 16:13:32.7	81.700	0.220	-0.920	0.840
2020/01/31 16:13:32.8	81.670	0.250	-0.950	0.850
2020/01/31 16:13:32.9	81.630	0.280	-0.970	0.870
2020/01/31 16:13:33.0	81.600	0.310	-0.980	0.880
2020/01/31 16:13:33.1	81.560	0.330	-0.990	0.900
2020/01/31 16:13:33.2	81.530	0.350	-0.990	0.910
2020/01/31 16:13:33.3	81.490	0.360	-0.980	0.920
2020/01/31 16:13:33.4	81.450	0.370	-0.970	0.930
2020/01/31 16:13:33.5	81.410	0.370	-0.950	0.940
2020/01/31 16:13:33.6	81.380	0.370	-0.910	0.940
2020/01/31 16:13:33.7	81.340	0.360	-0.870	0.950
2020/01/31 16:13:33.8	81.300	0.350	-0.830	0.950
2020/01/31 16:13:33.9	81.270	0.330	-0.770	0.950
2020/01/31 16:13:34.0	81.230	0.310	-0.720	0.950
2020/01/31 16:13:34.1	81.190	0.280	-0.650	0.940
2020/01/31 16:13:34.2	81.150	0.250	-0.590	0.930
2020/01/31 16:13:34.3	81.110	0.220	-0.510	0.930
2020/01/31 16:13:34.4	81.080	0.180	-0.440	0.920
2020/01/31 16:13:34.5	81.040	0.140	-0.360	0.910
2020/01/31 16:13:34.6	80.990	0.090	-0.270	0.890
2020/01/31 16:13:34.7	80.960	0.050	-0.190	0.880
2020/01/31 16:13:34.8	80.920	-0.000	-0.100	0.870
2020/01/31 16:13:34.9	80.870	-0.050	-0.010	0.860
2020/01/31 16:13:35.0	80.820	-0.100	0.080	0.840
2020/01/31 16:13:35.1	80.780	-0.150	0.160	0.830
2020/01/31 16:13:35.2	80.730	-0.200	0.250	0.810
2020/01/31 16:13:35.3	80.670	-0.250	0.330	0.800
2020/01/31 16:13:35.4	80.620	-0.300	0.410	0.780
2020/01/31 16:13:35.5	80.570	-0.340	0.490	0.770
2020/01/31 16:13:35.6	80.520	-0.380	0.560	0.750
2020/01/31 16:13:35.7	80.470	-0.420	0.630	0.730
2020/01/31 16:13:35.8	80.420	-0.450	0.690	0.710
2020/01/31 16:13:35.9	80.360	-0.480	0.740	0.690
2020/01/31 16:13:36.0	80.310	-0.510	0.780	0.670
2020/01/31 16:13:36.1	80.260	-0.530	0.810	0.640
2020/01/31 16:13:36.2	80.210	-0.540	0.840	0.620
2020/01/31 16:13:36.3	80.170	-0.550	0.850	0.590
2020/01/31 16:13:36.4	80.120	-0.550	0.860	0.550
2020/01/31 16:13:36.5	80.080	-0.550	0.850	0.520
2020/01/31 16:13:36.6	80.040	-0.540	0.830	0.480
2020/01/31 16:13:36.7	80.000	-0.530	0.800	0.440
2020/01/31 16:13:36.8	79.970	-0.510	0.760	0.390
2020/01/31 16:13:36.9	79.940	-0.490	0.710	0.350
2020/01/31 16:13:37.0	79.910	-0.460	0.650	0.300
2020/01/31 16:13:37.1	79.880	-0.420	0.580	0.250
2020/01/31 16:13:37.2	79.860	-0.380	0.500	0.200
2020/01/31 16:13:37.3	79.840	-0.340	0.420	0.150
2020/01/31 16:13:37.4	79.820	-0.290	0.320	0.100
2020/01/31 16:13:37.5	79.810	-0.240	0.220	0.050
2020/01/31 16:13:37.6	79.800	-0.190	0.120	-0.000
2020/01/31 16:13:37.7	79.790	-0.130	0.010	-0.060
2020/01/31 16:13:37.8	79.780	-0.070	-0.110	-0.110
2020/01/31 16:13:37.9	79.780	-0.010	-0.230	-0.160
2020/01/31 16:13:38.0	79.770	0.050	-0.340	-0.210
2020/01/31 16:13:38.1	79.770	0.110	-0.460	-0.250
2020/01/31 16:13:38.2	79.760	0.170	-0.580	-0.300
2020/01/31 16:13:38.3	79.760	0.230	-0.690	-0.340
2020/01/31 16:13:38.4	79.760	0.290	-0.810	-0.370
2020/01/31 16:13:38.5	79.750	0.350	-0.910	-0.410
2020/01/31 16:13:38.6	79.750	0.410	-1.010	-0.430
2020/01/31 16:13:38.7	79.770	0.460	-1.110	-0.460
2020/01/31 16:13:38.8	79.770	0.510	-1.200	-0.480
2020/01/31 16:13:38.9	79.760	0.550	-1.270	-0.490
2020/01/31 16:13:39.0	79.760	0.590	-1.330	-0.490
2020/01/31 16:13:39.1	79.750	0.630	-1.390	-0.490
2020/01/31 16:13:39.2	79.740	0.660	-1.430	-0.490
2020/01/31 16:13:39.3	79.730	0.690	-1.450	-0.470
2020/01/31 16:13:39.4	79.710	0.710	-1.470	-0.450
2020/01/31 16:13:39.5	79.700	0.720	-1.470	-0.420
2020/01/31 16:13:39.6	79.680	0.730	-1.450	-0.390
2020/01/31 16:13:39.7	79.670	0.730	-1.420	-0.350
2020/01/31 16:13:39.8	79.640	0.720	-1.380	-0.310
2020/01/31 16:13:39.9	79.620	0.710	-1.330	-0.260
2020/01/31 16:13:40.0	79.590	0.690	-1.260	-0.210
2020/01/31 16:13:40.1	79.560	0.670	-1.180	-0.160
2020/01/31 16:13:40.2	79.530	0.640	-1.090	-0.110
2020/01/31 16:13:40.3	79.490	0.600	-1.000	-0.050
2020/01/31 16:13:40.4	79.460	0.560	-0.890	0.010
2020/01/31 16:13:40.5	79.420	0.510	-0.780	0.070
2020/01/31 16:13:40.6	79.390	0.460	-0.660	0.130
2020/01/31 16:13:40.7	79.360	0.410	-0.540	0.190
2020/01/31 16:13:40.8	79.320	0.350	-0.410	0.250
2020/01/31 16:13:40.9	79.280	0.280	-0.290	0.310
2020/01/31 16:13:41.0	79.240	0.220	-0.170	0.360
2020/01/31 16:13:41.1	79.200	0.150	-0.040	0.420
2020/01/31 16:13:41.2	79.160	0.080	0.080	0.470
2020/01/31 16:13:41.3	79.120	0.010	0.190	0.520
2020/01/31 16:13:41.4	79.080	-0.060	0.300	0.570
2020/01/31 16:13:41.5	79.050	-0.130	0.410	0.620
2020/01/31 16:13:41.6	79.010	-0.200	0.500	0.660
2020/01/31 16:13:41.7	78.960	-0.260	0.590	0.700
2020/01/31 16:13:41.8	78.920	-0.330	0.670	0.740
2020/01/31 16:13:41.9	78.890	-0.390	0.740	0.780
2020/01/31 16:13:42.0	78.850	-0.450	0.800	0.810
2020/01/31 16:13:42.1	78.820	-0.500	0.850	0.840
2020/01/31 16:13:42.2	78.780	-0.550	0.890	0.860
2020/01/31 16:13:42.3	78.750	-0.590	0.920	0.890
2020/01/31 16:13:42.4	78.720	-0.630	0.930	0.910
2020/01/31 16:13:42.5	78.690	-0.670	0.940	0.930
2020/01/31 16:13:42.6	78.660	-0.700	0.940	0.940
2020/01/31 16:13:42.7	78.620	-0.720	0.930	0.950
2020/01/31 16:13:42.8	78.590	-0.730	0.900	0.960
2020/01/31 16:13:42.9	78.560	-0.750	0.880	0.970
2020/01/31 16:13:43.0	78.530	-0.750	0.840	0.970
2020/01/31 16:13:43.1	78.510	-0.750	0.790	0.970
2020/01/31 16:13:43.2	78.480	-0.740	0.740	0.970
2020/01/31 16:13:43.3	78.450	-0.730	0.680	0.970
2020/01/31 16:13:43.4	78.430	-0.710	0.620	0.960
2020/01/31 16:13:43.5	78.400	-0.690	0.550	0.950
2020/01/31 16:13:43.6	78.380	-0.660	0.480	0.940
2020/01/31 16:13:43.7	78.350	-0.630	0.400	0.920
2020/01/31 16:13:43.8	78.320	-0.590	0.330	0.900
2020/01/31 16:13:43.9	78.300	-0.550	0.250	0.890
2020/01/31 16:13:44.0	78.280	-0.500	0.170	0.870
2020/01/31 16:13:44.1	78.260	-0.450	0.090	0.840
2020/01/31 16:13:44.2	78.240	-0.400	0.000	0.820
2020/01/31 16:13:44.3	78.230	-0.340	-0.080	0.790
2020/01/31 16:13:44.4	78.210	-0.290	-0.160	0.770
2020/01/31 16:13:44.5	78.190	-0.230	-0.230	0.740
2020/01/31 16:13:44.6	78.180	-0.170	-0.310	0.710
2020/01/31 16:13:44.7	78.170	-0.110	-0.380	0.680
2020/01/31 16:13:44.8	78.160	-0.050	-0.450	0.660
2020/01/31 16:13:44.9	78.150	0.010	-0.510	0.630
2020/01/31 16:13:45.0	78.130	0.070	-0.570	0.610
2020/01/31 16:13:45.1	78.120	0.120	-0.630	0.590
2020/01/31 16:13:45.2	78.110	0.180	-0.680	0.570
2020/01/31 16:13:45.3	78.100	0.230	-0.720	0.550
2020/01/31 16:13:45.4	78.080	0.280	-0.760	0.540
2020/01/31 16:13:45.5	78.060	0.320	-0.800	0.530
2020/01/31 16:13:45.6	78.050	0.360	-0.820	0.520
2020/01/31 16:13:45.7	78.030	0.400	-0.850	0.510
2020/01/31 16:13:45.8	78.010	0.430	-0.870	0.510
2020/01/31 16:13:45.9	77.980	0.460	-0.880	0.510
2020/01/31 16:13:46.0	77.960	0.490	-0.880	0.520
2020/01/31 16:13:46.1	77.940	0.510	-0.880	0.520
2020/01/31 16:13:46.2	77.910	0.520	-0.870	0.530
2020/01/31 16:13:46.3	77.880	0.530	-0.860	0.540
2020/01/31 16:13:46.4	77.850	0.530	-0.850	0.550
2020/01/31 16:13:46.5	77.820	0.530	-0.830	0.560
2020/01/31 16:13:46.6	77.790	0.530	-0.800	0.580
2020/01/31 16:13:46.7	77.750	0.520	-0.770	0.590
2020/01/31 16:13:46.8	77.710	0.510	-0.740	0.600
2020/01/31 16:13:46.9	77.680	0.490	-0.710	0.610
2020/01/31 16:13:47.0	77.640	0.470	-0.670	0.610
2020/01/31 16:13:47.1	77.600	0.440	-0.640	0.620
2020/01/31 16:13:47.2	77.560	0.420	-0.600	0.620
2020/01/31 16:13:47.3	77.520	0.390	-0.560	0.620
2020/01/31 16:13:47.4	77.480	0.360	-0.530	0.610
2020/01/31 16:13:47.5	77.440	0.330	-0.490	0.600
2020/01/31 16:13:47.6	77.400	0.290	-0.450	0.590
2020/01/31 16:13:47.7	77.360	0.260	-0.410	0.580
2020/01/31 16:13:47.8	77.320	0.230	-0.370	0.560
2020/01/31 16:13:47.9	77.290	0.190	-0.330	0.540
2020/01/31 16:13:48.0	77.250	0.160	-0.300	0.520
2020/01/31 16:13:48.1	77.210	0.130	-0.260	0.500
2020/01/31 16:13:48.2	77.180	0.100	-0.220	0.480
2020/01/31 16:13:48.3	77.140	0.070	-0.190	0.450
2020/01/31 16:13:48.4	77.110	0.050	-0.150	0.430
2020/01/31 16:13:48.5	77.080	0.030	-0.120	0.410
2020/01/31 16:13:48.6	77.050	0.010	-0.080	0.380
2020/01/31 16:13:48.7	77.020	-0.010	-0.050	0.360
2020/01/31 16:13:48.8	77.000	-0.030	-0.010	0.340
2020/01/31 16:13:48.9	76.970	-0.040	0.020	0.320
2020/01/31 16:13:49.0	76.950	-0.050	0.050	0.300
2020/01/31 16:13:49.1	76.930	-0.050	0.080	0.280
2020/01/31 16:13:49.2	76.900	-0.060	0.110	0.270
2020/01/31 16:13:49.3	76.880	-0.060	0.140	0.260
2020/01/31 16:13:49.4	76.860	-0.060	0.170	0.250
2020/01/31 16:13:49.5	76.840	-0.060	0.190	0.240
2020/01/31 16:13:49.6	76.820	-0.060	0.210	0.230
2020/01/31 16:13:49.7	76.800	-0.050	0.240	0.230
2020/01/31 16:13:49.8	76.780	-0.050	0.260	0.220
2020/01/31 16:13:49.9	76.760	-0.040	0.270	0.220
2020/01/31 16:13:50.0	76.740	-0.040	0.290	0.220
2020/01/31 16:13:50.1	76.710	-0.030	0.300	0.220
2020/01/31 16:13:50.2	76.690	-0.030	0.310	0.220
2020/01/31 16:13:50.3	76.670	-0.020	0.310	0.220
2020/01/31 16:13:50.4	76.640	-0.020	0.310	0.220
2020/01/31 16:13:50.5	76.620	-0.010	0.310	0.210
2020/01/31 16:13:50.6	76.600	-0.010	0.300	0.210
2020/01/31 16:13:50.7	76.570	-0.010	0.290	0.200
2020/01/31 16:13:50.8	76.540	-0.000	0.280	0.190
2020/01/31 16:13:50.9	76.520	-0.000	0.260	0.180
2020/01/31 16:13:51.0	76.490	-0.000	0.240	0.170
2020/01/31 16:13:51.1	76.470	-0.000	0.210	0.150
2020/01/31 16:13:51.2	76.450	-0.000	0.180	0.140
2020/01/31 16:13:51.3	76.420	-0.000	0.150	0.120
2020/01/31 16:13:51.4	76.400	-0.010	0.110	0.100
2020/01/31 16:13:51.5	76.380	-0.010	0.070	0.070
2020/01/31 16:13:51.6	76.360	-0.010	0.030	0.050
2020/01/31 16:13:51.7	76.330	-0.020	-0.020	0.020
2020/01/31 16:13:51.8	76.310	-0.020	-0.060	-0.000
2020/01/31 16:13:51.9	76.300	-0.020	-0.100	-0.030
2020/01/31 16:13:52.0	76.280	-0.030	-0.150	-0.050
2020/01/31 16:13:52.1	76.270	-0.030	-0.190	-0.070
2020/01/31 16:13:52.2	76.250	-0.030	-0.240	-0.090
2020/01/31 16:13:52.3	76.240	-0.040	-0.280	-0.110
2020/01/31 16:13:52.4	76.220	-0.040	-0.320	-0.120
2020/01/31 16:13:52.5	76.210	-0.040	-0.360	-0.140
2020/01/31 16:13:52.6	76.200	-0.050	-0.400	-0.150
2020/01/31 16:13:52.7	76.180	-0.050	-0.430	-0.160
2020/01/31 16:13:52.8	76.170	-0.050	-0.450	-0.160
2020/01/31 16:13:52.9	76.150	-0.050	-0.480	-0.160
2020/01/31 16:13:53.0	76.130	-0.060	-0.500	-0.150
2020/01/31 16:13:53.1	76.110	-0.060	-0.520	-0.140
2020/01/31 16:13:53.2	76.090	-0.060	-0.530	-0.130
2020/01/31 16:13:53.3	76.070	-0.060	-0.540	-0.110
2020/01/31 16:13:53.4	76.040	-0.060	-0.540	-0.090
2020/01/31 16:13:53.5	76.020	-0.060	-0.540	-0.070
2020/01/31 16:13:53.6	75.990	-0.060	-0.540	-0.040
2020/01/31 16:13:53.7	75.960	-0.060	-0.530	-0.010
2020/01/31 16:13:53.8	75.930	-0.060	-0.520	0.020
2020/01/31 16:13:53.9	75.900	-0.070	-0.510	0.060
2020/01/31 16:13:54.0	75.860	-0.070	-0.490	0.090
2020/01/31 16:13:54.1	75.830	-0.070	-0.470	0.130
2020/01/31 16:13:54.2	75.790	-0.070	-0.450	0.170
2020/01/31 16:13:54.3	75.760	-0.080	-0.420	0.210
2020/01/31 16:13:54.4	75.720	-0.080	-0.400	0.240
2020/01/31 16:13:54.5	75.680	-0.090	-0.370	0.280
2020/01/31 16:13:54.6	75.640	-0.090	-0.340	0.320
2020/01/31 16:13:54.7	75.600	-0.100	-0.310	0.350
2020/01/31 16:13:54.8	75.560	-0.100	-0.290	0.390
2020/01/31 16:13:54.9	75.520	-0.110	-0.260	0.420
2020/01/31 16:13:55.0	75.480	-0.120	-0.230	0.450
2020/01/31 16:13:55.1	75.430	-0.130	-0.200	0.480
2020/01/31 16:13:55.2	75.390	-0.130	-0.180	0.500
2020/01/31 16:13:55.3	75.340	-0.140	-0.150	0.530
2020/01/31 16:13:55.4	75.290	-0.150	-0.120	0.550
2020/01/31 16:13:55.5	75.250	-0.160	-0.100	0.580
2020/01/31 16:13:55.6	75.200	-0.170	-0.080	0.600
2020/01/31 16:13:55.7	75.150	-0.170	-0.060	0.610
2020/01/31 16:13:55.8	75.100	-0.180	-0.040	0.620
2020/01/31 16:13:55.9	75.050	-0.180	-0.020	0.640
2020/01/31 16:13:56.0	75.000	-0.190	-0.010	0.650
2020/01/31 16:13:56.1	74.950	-0.190	0.000	0.660
2020/01/31 16:13:56.2	74.900	-0.190	0.010	0.670
2020/01/31 16:13:56.3	74.850	-0.190	0.020	0.670
2020/01/31 16:13:56.4	74.810	-0.190	0.020	0.680
2020/01/31 16:13:56.5	74.770	-0.190	0.020	0.680
2020/01/31 16:13:56.6	74.730	-0.180	0.010	0.680
2020/01/31 16:13:56.7	74.690	-0.180	0.000	0.680
2020/01/31 16:13:56.8	74.660	-0.160	-0.020	0.670
2020/01/31 16:13:56.9	74.620	-0.150	-0.040	0.660
2020/01/31 16:13:57.0	74.600	-0.130	-0.060	0.660
2020/01/31 16:13:57.1	74.570	-0.110	-0.090	0.650
2020/01/31 16:13:57.2	74.550	-0.090	-0.120	0.630
2020/01/31 16:13:57.3	74.530	-0.060	-0.160	0.620
2020/01/31 16:13:57.4	74.520	-0.040	-0.200	0.600
2020/01/31 16:13:57.5	74.510	-0.000	-0.240	0.580
2020/01/31 16:13:57.6	74.500	0.030	-0.290	0.560
2020/01/31 16:13:57.7	74.490	0.060	-0.340	0.540
2020/01/31 16:13:57.8	74.480	0.100	-0.380	0.510
2020/01/31 16:13:57.9	74.480	0.140	-0.430	0.490
2020/01/31 16:13:58.0	74.480	0.180	-0.480	0.460
2020/01/31 16:13:58.1	74.490	0.220	-0.530	0.440
2020/01/31 16:13:58.2	74.490	0.260	-0.570	0.410
2020/01/31 16:13:58.3	74.490	0.310	-0.620	0.380
2020/01/31 16:13:58.4	74.490	0.350	-0.660	0.360
2020/01/31 16:13:58.5	74.500	0.390	-0.690	0.330
2020/01/31 16:13:58.6	74.490	0.420	-0.720	0.310
2020/01/31 16:13:58.7	74.500	0.460	-0.740	0.290
2020/01/31 16:13:58.8	74.500	0.490	-0.760	0.270
2020/01/31 16:13:58.9	74.490	0.520	-0.770	0.250
2020/01/31 16:13:59.0	74.470	0.550	-0.770	0.240
2020/01/31 16:13:59.1	74.460	0.570	-0.770	0.230
2020/01/31 16:13:59.2	74.440	0.590	-0.750	0.220
2020/01/31 16:13:59.3	74.410	0.600	-0.730	0.210
2020/01/31 16:13:59.4	74.380	0.600	-0.700	0.200
2020/01/31 16:13:59.5	74.350	0.610	-0.660	0.190
2020/01/31 16:13:59.6	74.310	0.600	-0.620	0.190
2020/01/31 16:13:59.7	74.260	0.590	-0.560	0.180
2020/01/31 16:13:59.8	74.220	0.570	-0.500	0.180
2020/01/31 16:13:59.9	74.170	0.550	-0.440	0.180
2020/01/31 16:14:00.0	74.120	0.520	-0.370	0.180
2020/01/31 16:14:00.1	74.060	0.490	-0.290	0.180
2020/01/31 16:14:00.2	74.000	0.450	-0.210	0.180
2020/01/31 16:14:00.3	73.940	0.410	-0.120	0.180
2020/01/31 16:14:00.4	73.880	0.360	-0.040	0.180
2020/01/31 16:14:00.5	73.820	0.300	0.050	0.190
2020/01/31 16:14:00.6	73.750	0.250	0.140	0.190
2020/01/31 16:14:00.7	73.680	0.190	0.230	0.190
2020/01/31 16:14:00.8	73.610	0.130	0.310	0.200
2020/01/31 16:14:00.9	73.550	0.060	0.400	0.210
2020/01/31 16:14:01.0	73.480	-0.000	0.480	0.210
2020/01/31 16:14:01.1	73.410	-0.070	0.560	0.220
2020/01/31 16:14:01.2	73.340	-0.140	0.630	0.230
2020/01/31 16:14:01.3	73.270	-0.200	0.700	0.240
2020/01/31 16:14:01.4	73.210	-0.260	0.750	0.250
2020/01/31 16:14:01.5	73.140	-0.320	0.810	0.260
2020/01/31 16:14:01.6	73.080	-0.380	0.850	0.270
2020/01/31 16:14:01.7	73.010	-0.440	0.880	0.280
2020/01/31 16:14:01.8	72.960	-0.490	0.910	0.290
2020/01/31 16:14:01.9	72.900	-0.530	0.920	0.300
2020/01/31 16:14:02.0	72.850	-0.570	0.920	0.300
2020/01/31 16:14:02.1	72.800	-0.600	0.920	0.310
2020/01/31 16:14:02.2	72.760	-0.630	0.900	0.310
2020/01/31 16:14:02.3	72.720	-0.650	0.870	0.310
2020/01/31 16:14:02.4	72.680	-0.660	0.830	0.310
2020/01/31 16:14:02.5	72.650	-0.670	0.780	0.300
2020/01/31 16:14:02.6	72.620	-0.670	0.710	0.290
2020/01/31 16:14:02.7	72.570	-0.660	0.640	0.270
2020/01/31 16:14:02.8	72.550	-0.650	0.560	0.260
2020/01/31 16:14:02.9	72.540	-0.630	0.470	0.240
2020/01/31 16:14:03.0	72.520	-0.600	0.370	0.220
2020/01/31 16:14:03.1	72.510	-0.570	0.270	0.200
2020/01/31 16:14:03.2	72.510	-0.530	0.160	0.170
2020/01/31 16:14:03.3	72.510	-0.490	0.040	0.150
2020/01/31 16:14:03.4	72.510	-0.450	-0.080	0.120
2020/01/31 16:14:03.5	72.510	-0.400	-0.190	0.090
2020/01/31 16:14:03.6	72.520	-0.340	-0.310	0.060
2020/01/31 16:14:03.7	72.520	-0.290	-0.430	0.030
2020/01/31 16:14:03.8	72.530	-0.230	-0.550	-0.000
2020/01/31 16:14:03.9	72.530	-0.170	-0.660	-0.030
2020/01/31 16:14:04.0	72.540	-0.110	-0.770	-0.060
2020/01/31 16:14:04.1	72.550	-0.060	-0.870	-0.080
2020/01/31 16:14:04.2	72.550	0.000	-0.960	-0.100
2020/01/31 16:14:04.3	72.560	0.060	-1.050	-0.120
2020/01/31 16:14:04.4	72.560	0.110	-1.120	-0.140
2020/01/31 16:14:04.5	72.560	0.160	-1.180	-0.150
2020/01/31 16:14:04.6	72.550	0.210	-1.240	-0.160
2020/01/31 16:14:04.7	72.550	0.250	-1.280	-0.170
2020/01/31 16:14:04.8	72.540	0.290	-1.310	-0.170
2020/01/31 16:14:04.9	72.520	0.330	-1.330	-0.160
2020/01/31 16:14:05.0	72.500	0.360	-1.340	-0.150
2020/01/31 16:14:05.1	72.480	0.380	-1.330	-0.130
2020/01/31 16:14:05.2	72.450	0.400	-1.310	-0.110
2020/01/31 16:14:05.3	72.410	0.420	-1.280	-0.080
2020/01/31 16:14:05.4	72.380	0.430	-1.240	-0.050
2020/01/31 16:14:05.5	72.330	0.440	-1.180	-0.010
2020/01/31 16:14:05.6	72.290	0.440	-1.120	0.030
2020/01/31 16:14:05.7	72.240	0.440	-1.050	0.080
2020/01/31 16:14:05.8	72.190	0.430	-0.970	0.130
2020/01/31 16:14:05.9	72.140	0.420	-0.890	0.190
2020/01/31 16:14:06.0	72.080	0.400	-0.810	0.240
2020/01/31 16:14:06.1	72.020	0.380	-0.720	0.300
2020/01/31 16:14:06.2	71.970	0.360	-0.630	0.360
2020/01/31 16:14:06.3	71.900	0.330	-0.530	0.430
2020/01/31 16:14:06.4	71.840	0.310	-0.440	0.490
2020/01/31 16:14:06.5	71.780	0.280	-0.350	0.550
2020/01/31 16:14:06.6	71.720	0.240	-0.260	0.610
2020/01/31 16:14:06.7	71.650	0.210	-0.180	0.670
2020/01/31 16:14:06.8	71.580	0.180	-0.100	0.730
2020/01/31 16:14:06.9	71.520	0.140	-0.020	0.790
2020/01/31 16:14:07.0	71.460	0.110	0.050	0.840
2020/01/31 16:14:07.1	71.400	0.070	0.120	0.880
2020/01/31 16:14:07.2	71.340	0.040	0.180	0.930
2020/01/31 16:14:07.3	71.280	0.000	0.230	0.960
2020/01/31 16:14:07.4	71.220	-0.030	0.280	1.000
2020/01/31 16:14:07.5	71.170	-0.060	0.320	1.020
2020/01/31 16:14:07.6	71.110	-0.090	0.350	1.040
2020/01/31 16:14:07.7	71.060	-0.110	0.380	1.050
2020/01/31 16:14:07.8	71.010	-0.140	0.400	1.060
2020/01/31 16:14:07.9	70.960	-0.160	0.410	1.060
2020/01/31 16:14:08.0	70.920	-0.180	0.420	1.050
2020/01/31 16:14:08.1	70.880	-0.200	0.420	1.040
2020/01/31 16:14:08.2	70.830	-0.210	0.420	1.020
2020/01/31 16:14:08.3	70.790	-0.230	0.410	1.000
2020/01/31 16:14:08.4	70.750	-0.240	0.400	0.970
2020/01/31 16:14:08.5	70.720	-0.250	0.380	0.940
2020/01/31 16:14:08.6	70.680	-0.260	0.360	0.910
2020/01/31 16:14:08.7	70.650	-0.260	0.340	0.870
2020/01/31 16:14:08.8	70.610	-0.260	0.310	0.820
2020/01/31 16:14:08.9	70.580	-0.260	0.280	0.780
2020/01/31 16:14:09.0	70.550	-0.260	0.260	0.730
2020/01/31 16:14:09.1	70.530	-0.260	0.230	0.670
2020/01/31 16:14:09.2	70.500	-0.260	0.190	0.620
2020/01/31 16:14:09.3	70.470	-0.250	0.160	0.560
2020/01/31 16:14:09.4	70.450	-0.250	0.130	0.510
2020/01/31 16:14:09.5	70.430	-0.240	0.100	0.450
2020/01/31 16:14:09.6	70.410	-0.230	0.070	0.400
2020/01/31 16:14:09.7	70.390	-0.220	0.030	0.340
2020/01/31 16:14:09.8	70.370	-0.220	0.000	0.280
2020/01/31 16:14:09.9	70.350	-0.210	-0.030	0.230
2020/01/31 16:14:10.0	70.340	-0.200	-0.050	0.180
2020/01/31 16:14:10.1	70.320	-0.180	-0.080	0.130
2020/01/31 16:14:10.2	70.300	-0.170	-0.110	0.080
2020/01/31 16:14:10.3	70.290	-0.160	-0.130	0.030
2020/01/31 16:14:10.4	70.270	-0.150	-0.160	-0.010
2020/01/31 16:14:10.5	70.260	-0.140	-0.180	-0.050
2020/01/31 16:14:10.6	70.250	-0.120	-0.200	-0.090
2020/01/31 16:14:10.7	70.230	-0.110	-0.220	-0.120
2020/01/31 16:14:10.8	70.220	-0.100	-0.240	-0.150
2020/01/31 16:14:10.9	70.210	-0.080	-0.260	-0.180
2020/01/31 16:14:11.0	70.190	-0.070	-0.280	-0.200
2020/01/31 16:14:11.1	70.180	-0.050	-0.300	-0.220
2020/01/31 16:14:11.2	70.170	-0.040	-0.310	-0.240
2020/01/31 16:14:11.3	70.150	-0.020	-0.330	-0.250
2020/01/31 16:14:11.4	70.140	-0.000	-0.340	-0.260
2020/01/31 16:14:11.5	70.130	0.020	-0.360	-0.260
2020/01/31 16:14:11.6	70.120	0.040	-0.370	-0.260
2020/01/31 16:14:11.7	70.100	0.060	-0.380	-0.260
2020/01/31 16:14:11.8	70.090	0.080	-0.390	-0.250
2020/01/31 16:14:11.9	70.070	0.100	-0.410	-0.240
2020/01/31 16:14:12.0	70.050	0.120	-0.420	-0.230
2020/01/31 16:14:12.1	70.040	0.140	-0.430	-0.210
2020/01/31 16:14:12.2	70.020	0.170	-0.440	-0.190
2020/01/31 16:14:12.3	70.000	0.190	-0.450	-0.160
2020/01/31 16:14:12.4	69.980	0.210	-0.460	-0.140
2020/01/31 16:14:12.5	69.950	0.230	-0.470	-0.100
2020/01/31 16:14:12.6	69.930	0.260	-0.470	-0.070
2020/01/31 16:14:12.7	69.890	0.280	-0.490	-0.040
2020/01/31 16:14:12.8	69.870	0.300	-0.490	0.000
2020/01/31 16:14:12.9	69.840	0.320	-0.500	0.040
2020/01/31 16:14:13.0	69.810	0.340	-0.500	0.080
2020/01/31 16:14:13.1	69.780	0.360	-0.510	0.120
2020/01/31 16:14:13.2	69.750	0.380	-0.510	0.160
2020/01/31 16:14:13.3	69.720	0.390	-0.520	0.200
2020/01/31 16:14:13.4	69.690	0.410	-0.520	0.240
2020/01/31 16:14:13.5	69.660	0.420	-0.520	0.290
2020/01/31 16:14:13.6	69.630	0.430	-0.520	0.330
2020/01/31 16:14:13.7	69.590	0.440	-0.520	0.370
2020/01/31 16:14:13.8	69.550	0.440	-0.520	0.410
2020/01/31 16:14:13.9	69.520	0.450	-0.520	0.450
2020/01/31 16:14:14.0	69.490	0.450	-0.510	0.490
2020/01/31 16:14:14.1	69.460	0.450	-0.510	0.520
2020/01/31 16:14:14.2	69.430	0.440	-0.500	0.560
2020/01/31 16:14:14.3	69.400	0.430	-0.480	0.590
2020/01/31 16:14:14.4	69.370	0.420	-0.470	0.630
2020/01/31 16:14:14.5	69.340	0.410	-0.450	0.660
2020/01/31 16:14:14.6	69.310	0.390	-0.430	0.690
2020/01/31 16:14:14.7	69.280	0.370	-0.410	0.710
2020/01/31 16:14:14.8	69.250	0.340	-0.380	0.740
2020/01/31 16:14:14.9	69.220	0.310	-0.350	0.760
2020/01/31 16:14:15.0	69.190	0.280	-0.310	0.780
2020/01/31 16:14:15.1	69.160	0.240	-0.270	0.790
2020/01/31 16:14:15.2	69.130	0.200	-0.230	0.800
2020/01/31 16:14:15.3	69.100	0.160	-0.190	0.810
2020/01/31 16:14:15.4	69.070	0.120	-0.140	0.810
2020/01/31 16:14:15.5	69.040	0.070	-0.090	0.820
2020/01/31 16:14:15.6	69.010	0.020	-0.040	0.810
2020/01/31 16:14:15.7	68.990	-0.030	0.010	0.810
2020/01/31 16:14:15.8	68.960	-0.080	0.060	0.800
2020/01/31 16:14:15.9	68.930	-0.130	0.120	0.790
2020/01/31 16:14:16.0	68.900	-0.180	0.170	0.770
2020/01/31 16:14:16.1	68.860	-0.230	0.220	0.760
2020/01/31 16:14:16.2	68.830	-0.280	0.270	0.740
2020/01/31 16:14:16.3	68.800	-0.330	0.320	0.720
2020/01/31 16:14:16.4	68.760	-0.380	0.370	0.700
2020/01/31 16:14:16.5	68.730	-0.420	0.410	0.680
2020/01/31 16:14:16.6	68.700	-0.470	0.460	0.660
2020/01/31 16:14:16.7	68.660	-0.510	0.490	0.640
2020/01/31 16:14:16.8	68.630	-0.540	0.530	0.620
2020/01/31 16:14:16.9	68.600	-0.570	0.550	0.590
2020/01/31 16:14:17.0	68.570	-0.600	0.570	0.570
2020/01/31 16:14:17.1	68.540	-0.620	0.580	0.550
2020/01/31 16:14:17.2	68.510	-0.640	0.590	0.530
2020/01/31 16:14:17.3	68.480	-0.660	0.590	0.500
2020/01/31 16:14:17.4	68.450	-0.660	0.580	0.480
2020/01/31 16:14:17.5	68.420	-0.670	0.570	0.450
2020/01/31 16:14:17.6	68.390	-0.660	0.540	0.420
2020/01/31 16:14:17.7	68.360	-0.660	0.510	0.400
2020/01/31 16:14:17.8	68.330	-0.640	0.470	0.370
2020/01/31 16:14:17.9	68.300	-0.620	0.430	0.340
2020/01/31 16:14:18.0	68.270	-0.600	0.370	0.310
2020/01/31 16:14:18.1	68.250	-0.570	0.320	0.280
2020/01/31 16:14:18.2	68.220	-0.540	0.250	0.250
2020/01/31 16:14:18.3	68.200	-0.500	0.190	0.210
2020/01/31 16:14:18.4	68.170	-0.460	0.110	0.180
2020/01/31 16:14:18.5	68.150	-0.410	0.040	0.150
2020/01/31 16:14:18.6	68.130	-0.370	-0.040	0.110
2020/01/31 16:14:18.7	68.110	-0.320	-0.120	0.080
2020/01/31 16:14:18.8	68.090	-0.260	-0.200	0.040
2020/01/31 16:14:18.9	68.070	-0.210	-0.280	0.010
2020/01/31 16:14:19.0	68.050	-0.150	-0.360	-0.020
2020/01/31 16:14:19.1	68.030	-0.090	-0.440	-0.050
2020/01/31 16:14:19.2	68.020	-0.030	-0.520	-0.080
2020/01/31 16:14:19.3	68.010	0.020	-0.590	-0.110
2020/01/31 16:14:19.4	68.000	0.080	-0.660	-0.130
2020/01/31 16:14:19.5	67.990	0.140	-0.730	-0.150
2020/01/31 16:14:19.6	67.980	0.190	-0.790	-0.170
2020/01/31 16:14:19.7	67.970	0.250	-0.850	-0.190
2020/01/31 16:14:19.8	67.960	0.300	-0.900	-0.210
2020/01/31 16:14:19.9	67.960	0.350	-0.940	-0.220
2020/01/31 16:14:20.0	67.950	0.390	-0.980	-0.230
2020/01/31 16:14:20.1	67.950	0.440	-1.010	-0.240
2020/01/31 16:14:20.2	67.950	0.480	-1.040	-0.240
2020/01/31 16:14:20.3	67.950	0.510	-1.060	-0.240
2020/01/31 16:14:20.4	67.940	0.540	-1.070	-0.240
2020/01/31 16:14:20.5	67.940	0.570	-1.080	-0.240
2020/01/31 16:14:20.6	67.940	0.590	-1.080	-0.240
2020/01/31 16:14:20.7	67.940	0.610	-1.070	-0.230
2020/01/31 16:14:20.8	67.940	0.630	-1.060	-0.220
2020/01/31 16:14:20.9	67.930	0.630	-1.040	-0.210
2020/01/31 16:14:21.0	67.920	0.640	-1.010	-0.190
2020/01/31 16:14:21.1	67.910	0.640	-0.970	-0.170
2020/01/31 16:14:21.2	67.890	0.640	-0.930	-0.150
2020/01/31 16:14:21.3	67.870	0.630	-0.890	-0.130
2020/01/31 16:14:21.4	67.860	0.610	-0.840	-0.100
2020/01/31 16:14:21.5	67.830	0.600	-0.780	-0.080
2020/01/31 16:14:21.6	67.810	0.570	-0.720	-0.050
2020/01/31 16:14:21.7	67.780	0.550	-0.650	-0.020
2020/01/31 16:14:21.8	67.750	0.520	-0.580	0.020
2020/01/31 16:14:21.9	67.720	0.490	-0.500	0.050
2020/01/31 16:14:22.0	67.690	0.450	-0.430	0.090
2020/01/31 16:14:22.1	67.650	0.410	-0.350	0.120
2020/01/31 16:14:22.2	67.620	0.370	-0.270	0.160
2020/01/31 16:14:22.3	67.580	0.330	-0.190	0.190
2020/01/31 16:14:22.4	67.540	0.280	-0.110	0.230
2020/01/31 16:14:22.5	67.490	0.240	-0.030	0.260
2020/01/31 16:14:22.6	67.450	0.190	0.050	0.290
2020/01/31 16:14:22.7	67.410	0.140	0.130	0.320
2020/01/31 16:14:22.8	67.360	0.090	0.200	0.350
2020/01/31 16:14:22.9	67.310	0.040	0.270	0.380
2020/01/31 16:14:23.0	67.260	-0.010	0.340	0.400
2020/01/31 16:14:23.1	67.210	-0.070	0.400	0.420
2020/01/31 16:14:23.2	67.160	-0.120	0.460	0.440
2020/01/31 16:14:23.3	67.110	-0.160	0.510	0.450
2020/01/31 16:14:23.4	67.060	-0.210	0.550	0.460
2020/01/31 16:14:23.5	67.010	-0.260	0.590	0.470
2020/01/31 16:14:23.6	66.960	-0.300	0.620	0.470
2020/01/31 16:14:23.7	66.920	-0.340	0.640	0.470
2020/01/31 16:14:23.8	66.870	-0.380	0.650	0.470
2020/01/31 16:14:23.9	66.820	-0.420	0.660	0.470
2020/01/31 16:14:24.0	66.770	-0.450	0.650	0.460
2020/01/31 16:14:24.1	66.720	-0.480	0.640	0.460
2020/01/31 16:14:24.2	66.670	-0.510	0.630	0.450
2020/01/31 16:14:24.3	66.630	-0.530	0.600	0.440
2020/01/31 16:14:24.4	66.580	-0.550	0.570	0.430
2020/01/31 16:14:24.5	66.530	-0.570	0.530	0.420
2020/01/31 16:14:24.6	66.490	-0.580	0.490	0.410
2020/01/31 16:14:24.7	66.450	-0.580	0.430	0.400
2020/01/31 16:14:24.8	66.410	-0.590	0.380	0.390
2020/01/31 16:14:24.9	66.360	-0.590	0.320	0.380
2020/01/31 16:14:25.0	66.320	-0.580	0.260	0.370
2020/01/31 16:14:25.1	66.290	-0.570	0.200	0.360
2020/01/31 16:14:25.2	66.250	-0.560	0.130	0.350
2020/01/31 16:14:25.3	66.220	-0.550	0.070	0.340
2020/01/31 16:14:25.4	66.180	-0.530	0.000	0.330
2020/01/31 16:14:25.5	66.150	-0.500	-0.060	0.310
2020/01/31 16:14:25.6	66.120	-0.480	-0.130	0.300
2020/01/31 16:14:25.7	66.100	-0.450	-0.190	0.280
2020/01/31 16:14:25.8	66.070	-0.420	-0.250	0.260
2020/01/31 16:14:25.9	66.050	-0.390	-0.300	0.250
2020/01/31 16:14:26.0	66.030	-0.360	-0.360	0.230
2020/01/31 16:14:26.1	66.010	-0.320	-0.410	0.210
2020/01/31 16:14:26.2	65.990	-0.280	-0.460	0.190
2020/01/31 16:14:26.3	65.980	-0.250	-0.500	0.170
2020/01/31 16:14:26.4	65.960	-0.210	-0.540	0.150
2020/01/31 16:14:26.5	65.950	-0.170	-0.570	0.130
2020/01/31 16:14:26.6	65.940	-0.130	-0.600	0.110
2020/01/31 16:14:26.7	65.940	-0.090	-0.630	0.090
2020/01/31 16:14:26.8	65.940	-0.040	-0.650	0.080
2020/01/31 16:14:26.9	65.930	-0.000	-0.660	0.060
2020/01/31 16:14:27.0	65.930	0.040	-0.680	0.040
2020/01/31 16:14:27.1	65.920	0.080	-0.680	0.030
2020/01/31 16:14:27.2	65.920	0.120	-0.690	0.020
2020/01/31 16:14:27.3	65.920	0.160	-0.690	0.010
2020/01/31 16:14:27.4	65.920	0.190	-0.690	0.000
2020/01/31 16:14:27.5	65.930	0.230	-0.690	-0.010
2020/01/31 16:14:27.6	65.930	0.260	-0.680	-0.010
2020/01/31 16:14:27.7	65.940	0.300	-0.670	-0.010
2020/01/31 16:14:27.8	65.940	0.330	-0.660	-0.010
2020/01/31 16:14:27.9	65.950	0.360	-0.650	-0.010
2020/01/31 16:14:28.0	65.950	0.390	-0.640	-0.010
2020/01/31 16:14:28.1	65.950	0.410	-0.630	-0.000
2020/01/31 16:14:28.2	65.960	0.430	-0.610	0.010
2020/01/31 16:14:28.3	65.960	0.450	-0.600	0.010
2020/01/31 16:14:28.4	65.960	0.470	-0.580	0.030
2020/01/31 16:14:28.5	65.960	0.480	-0.560	0.040
2020/01/31 16:14:28.6	65.960	0.500	-0.540	0.060
2020/01/31 16:14:28.7	65.960	0.500	-0.520	0.070
2020/01/31 16:14:28.8	65.950	0.510	-0.500	0.090
2020/01/31 16:14:28.9	65.940	0.510	-0.480	0.120
2020/01/31 16:14:29.0	65.930	0.510	-0.450	0.140
2020/01/31 16:14:29.1	65.910	0.510	-0.420	0.170
2020/01/31 16:14:29.2	65.880	0.500	-0.390	0.200
2020/01/31 16:14:29.3	65.860	0.490	-0.360	0.230
2020/01/31 16:14:29.4	65.830	0.470	-0.320	0.270
2020/01/31 16:14:29.5	65.790	0.460	-0.290	0.300
2020/01/31 16:14:29.6	65.750	0.440	-0.250	0.340
2020/01/31 16:14:29.7	65.690	0.410	-0.210	0.380
2020/01/31 16:14:29.8	65.640	0.390	-0.160	0.410
2020/01/31 16:14:29.9	65.590	0.360	-0.120	0.450
2020/01/31 16:14:30.0	65.530	0.330	-0.070	0.490
2020/01/31 16:14:30.1	65.470	0.290	-0.020	0.530
2020/01/31 16:14:30.2	65.410	0.250	0.020	0.570
2020/01/31 16:14:30.3	65.340	0.220	0.080	0.610
2020/01/31 16:14:30.4	65.280	0.170	0.130	0.640
2020/01/31 16:14:30.5	65.210	0.130	0.180	0.680
2020/01/31 16:14:30.6	65.140	0.090	0.230	0.710
2020/01/31 16:14:30.7	65.080	0.040	0.270	0.730
2020/01/31 16:14:30.8	65.010	-0.010	0.320	0.760
2020/01/31 16:14:30.9	64.940	-0.060	0.370	0.780
2020/01/31 16:14:31.0	64.870	-0.100	0.410	0.800
2020/01/31 16:14:31.1	64.800	-0.150	0.450	0.810
2020/01/31 16:14:31.2	64.740	-0.200	0.490	0.820
2020/01/31 16:14:31.3	64.670	-0.250	0.530	0.820
2020/01/31 16:14:31.4	64.600	-0.300	0.550	0.810
2020/01/31 16:14:31.5	64.540	-0.340	0.580	0.800
2020/01/31 16:14:31.6	64.480	-0.390	0.600	0.780
2020/01/31 16:14:31.7	64.420	-0.430	0.610	0.760
2020/01/31 16:14:31.8	64.360	-0.470	0.610	0.730
2020/01/31 16:14:31.9	64.310	-0.510	0.610	0.690
2020/01/31 16:14:32.0	64.260	-0.540	0.610	0.650
2020/01/31 16:14:32.1	64.210	-0.560	0.590	0.610
2020/01/31 16:14:32.2	64.170	-0.590	0.570	0.560
2020/01/31 16:14:32.3	64.130	-0.610	0.540	0.500
2020/01/31 16:14:32.4	64.100	-0.620	0.500	0.440
2020/01/31 16:14:32.5	64.070	-0.620	0.450	0.380
2020/01/31 16:14:32.6	64.040	-0.620	0.400	0.320
2020/01/31 16:14:32.7	64.020	-0.620	0.340	0.240
2020/01/31 16:14:32.8	64.000	-0.610	0.270	0.180
2020/01/31 16:14:32.9	63.980	-0.590	0.190	0.110
2020/01/31 16:14:33.0	63.980	-0.560	0.100	0.040
2020/01/31 16:14:33.1	63.970	-0.530	0.010	-0.030
2020/01/31 16:14:33.2	63.970	-0.490	-0.080	-0.100
2020/01/31 16:14:33.3	63.960	-0.450	-0.180	-0.170
2020/01/31 16:14:33.4	63.970	-0.400	-0.280	-0.230
2020/01/31 16:14:33.5	63.970	-0.340	-0.390	-0.290
2020/01/31 16:14:33.6	63.980	-0.290	-0.490	-0.350
2020/01/31 16:14:33.7	63.960	-0.220	-0.590	-0.410
2020/01/31 16:14:33.8	63.970	-0.160	-0.700	-0.460
2020/01/31 16:14:33.9	63.980	-0.090	-0.790	-0.500
2020/01/31 16:14:34.0	63.980	-0.030	-0.880	-0.540
2020/01/31 16:14:34.1	63.980	0.040	-0.970	-0.580
2020/01/31 16:14:34.2	63.990	0.110	-1.050	-0.610
2020/01/31 16:14:34.3	63.990	0.180	-1.130	-0.630
2020/01/31 16:14:34.4	63.980	0.240	-1.190	-0.650
2020/01/31 16:14:34.5	63.980	0.310	-1.250	-0.670
2020/01/31 16:14:34.6	63.970	0.370	-1.300	-0.680
2020/01/31 16:14:34.7	63.970	0.430	-1.340	-0.680
2020/01/31 16:14:34.8	63.960	0.480	-1.360	-0.690
2020/01/31 16:14:34.9	63.940	0.530	-1.380	-0.690
2020/01/31 16:14:35.0	63.920	0.570	-1.390	-0.690
2020/01/31 16:14:35.1	63.900	0.610	-1.390	-0.680
2020/01/31 16:14:35.2	63.880	0.640	-1.370	-0.680
2020/01/31 16:14:35.3	63.860	0.670	-1.350	-0.670
2020/01/31 16:14:35.4	63.830	0.690	-1.320	-0.650
2020/01/31 16:14:35.5	63.800	0.700	-1.280	-0.640
2020/01/31 16:14:35.6	63.760	0.710	-1.220	-0.620
2020/01/31 16:14:35.7	63.740	0.710	-1.160	-0.600
2020/01/31 16:14:35.8	63.700	0.710	-1.100	-0.580
2020/01/31 16:14:35.9	63.660	0.700	-1.020	-0.550
2020/01/31 16:14:36.0	63.620	0.680	-0.940	-0.520
2020/01/31 16:14:36.1	63.570	0.660	-0.860	-0.490
2020/01/31 16:14:36.2	63.530	0.630	-0.770	-0.460
2020/01/31 16:14:36.3	63.490	0.600	-0.670	-0.420
2020/01/31 16:14:36.4	63.440	0.560	-0.570	-0.380
2020/01/31 16:14:36.5	63.390	0.520	-0.470	-0.340
2020/01/31 16:14:36.6	63.340	0.470	-0.370	-0.300
2020/01/31 16:14:36.7	63.290	0.430	-0.260	-0.260
2020/01/31 16:14:36.8	63.230	0.370	-0.160	-0.210
2020/01/31 16:14:36.9	63.180	0.320	-0.050	-0.160
2020/01/31 16:14:37.0	63.130	0.260	0.060	-0.110
2020/01/31 16:14:37.1	63.070	0.210	0.160	-0.050
2020/01/31 16:14:37.2	63.020	0.150	0.260	0.010
2020/01/31 16:14:37.3	62.960	0.090	0.360	0.070
2020/01/31 16:14:37.4	62.910	0.030	0.460	0.130
2020/01/31 16:14:37.5	62.850	-0.030	0.550	0.190
2020/01/31 16:14:37.6	62.790	-0.090	0.640	0.250
2020/01/31 16:14:37.7	62.730	-0.150	0.720	0.300
2020/01/31 16:14:37.8	62.680	-0.210	0.800	0.360
2020/01/31 16:14:37.9	62.620	-0.260	0.870	0.410
2020/01/31 16:14:38.0	62.570	-0.320	0.930	0.470
2020/01/31 16:14:38.1	62.520	-0.370	0.980	0.510
2020/01/31 16:14:38.2	62.470	-0.420	1.020	0.560
2020/01/31 16:14:38.3	62.420	-0.460	1.050	0.590
2020/01/31 16:14:38.4	62.380	-0.500	1.070	0.630
2020/01/31 16:14:38.5	62.330	-0.540	1.080	0.650
2020/01/31 16:14:38.6	62.290	-0.570	1.080	0.670
2020/01/31 16:14:38.7	62.240	-0.600	1.070	0.680
2020/01/31 16:14:38.8	62.210	-0.620	1.050	0.690
2020/01/31 16:14:38.9	62.180	-0.640	1.020	0.690
2020/01/31 16:14:39.0	62.150	-0.660	0.970	0.680
2020/01/31 16:14:39.1	62.130	-0.670	0.920	0.670
2020/01/31 16:14:39.2	62.110	-0.670	0.860	0.650
2020/01/31 16:14:39.3	62.090	-0.670	0.780	0.630
2020/01/31 16:14:39.4	62.070	-0.670	0.700	0.600
2020/01/31 16:14:39.5	62.060	-0.660	0.620	0.570
2020/01/31 16:14:39.6	62.050	-0.650	0.520	0.530
2020/01/31 16:14:39.7	62.040	-0.630	0.420	0.490
2020/01/31 16:14:39.8	62.040	-0.610	0.320	0.450
2020/01/31 16:14:39.9	62.030	-0.580	0.220	0.410
2020/01/31 16:14:40.0	62.020	-0.550	0.110	0.370
2020/01/31 16:14:40.1	62.020	-0.520	0.000	0.320
2020/01/31 16:14:40.2	62.010	-0.480	-0.100	0.280
2020/01/31 16:14:40.3	62.010	-0.440	-0.210	0.240
2020/01/31 16:14:40.4	62.000	-0.400	-0.310	0.210
2020/01/31 16:14:40.5	62.000	-0.360	-0.400	0.170
2020/01/31 16:14:40.6	61.990	-0.310	-0.490	0.140
2020/01/31 16:14:40.7	61.980	-0.270	-0.580	0.120
2020/01/31 16:14:40.8	61.970	-0.220	-0.650	0.100
2020/01/31 16:14:40.9	61.960	-0.170	-0.720	0.080
2020/01/31 16:14:41.0	61.950	-0.130	-0.780	0.070
2020/01/31 16:14:41.1	61.940	-0.080	-0.840	0.060
2020/01/31 16:14:41.2	61.920	-0.040	-0.880	0.060
2020/01/31 16:14:41.3	61.900	-0.000	-0.910	0.070
2020/01/31 16:14:41.4	61.880	0.040	-0.940	0.080
2020/01/31 16:14:41.5	61.860	0.080	-0.950	0.090
2020/01/31 16:14:41.6	61.830	0.110	-0.960	0.110
2020/01/31 16:14:41.7	61.810	0.140	-0.960	0.130
2020/01/31 16:14:41.8	61.780	0.170	-0.950	0.160
2020/01/31 16:14:41.9	61.750	0.190	-0.930	0.180
2020/01/31 16:14:42.0	61.720	0.210	-0.910	0.210
2020/01/31 16:14:42.1	61.690	0.230	-0.880	0.250
2020/01/31 16:14:42.2	61.660	0.240	-0.840	0.280
2020/01/31 16:14:42.3	61.620	0.250	-0.810	0.310
2020/01/31 16:14:42.4	61.580	0.260	-0.760	0.340
2020/01/31 16:14:42.5	61.550	0.260	-0.720	0.370
2020/01/31 16:14:42.6	61.510	0.260	-0.670	0.400
2020/01/31 16:14:42.7	61.460	0.260	-0.620	0.430
2020/01/31 16:14:42.8	61.420	0.250	-0.570	0.450
2020/01/31 16:14:42.9	61.380	0.250	-0.520	0.480
2020/01/31 16:14:43.0	61.340	0.240	-0.470	0.490
2020/01/31 16:14:43.1	61.300	0.230	-0.420	0.510
2020/01/31 16:14:43.2	61.260	0.220	-0.370	0.520
2020/01/31 16:14:43.3	61.220	0.200	-0.330	0.530
2020/01/31 16:14:43.4	61.180	0.190	-0.290	0.540
2020/01/31 16:14:43.5	61.140	0.180	-0.260	0.540
2020/01/31 16:14:43.6	61.100	0.160	-0.230	0.540
2020/01/31 16:14:43.7	61.060	0.150	-0.200	0.530
2020/01/31 16:14:43.8	61.020	0.140	-0.180	0.530
2020/01/31 16:14:43.9	60.980	0.130	-0.160	0.520
2020/01/31 16:14:44.0	60.940	0.120	-0.140	0.520
2020/01/31 16:14:44.1	60.900	0.110	-0.130	0.510
2020/01/31 16:14:44.2	60.860	0.100	-0.120	0.500
2020/01/31 16:14:44.3	60.820	0.100	-0.110	0.490
2020/01/31 16:14:44.4	60.790	0.090	-0.110	0.480
2020/01/31 16:14:44.5	60.750	0.090	-0.110	0.480
2020/01/31 16:14:44.6	60.710	0.090	-0.110	0.470
2020/01/31 16:14:44.7	60.680	0.090	-0.110	0.460
2020/01/31 16:14:44.8	60.650	0.100	-0.110	0.450
2020/01/31 16:14:44.9	60.620	0.100	-0.120	0.440
2020/01/31 16:14:45.0	60.600	0.110	-0.130	0.430
2020/01/31 16:14:45.1	60.570	0.110	-0.150	0.420
2020/01/31 16:14:45.2	60.550	0.120	-0.160	0.410
2020/01/31 16:14:45.3	60.530	0.130	-0.180	0.400
2020/01/31 16:14:45.4	60.510	0.140	-0.200	0.380
2020/01/31 16:14:45.5	60.500	0.160	-0.220	0.370
2020/01/31 16:14:45.6	60.480	0.170	-0.240	0.350
2020/01/31 16:14:45.7	60.470	0.180	-0.260	0.330
2020/01/31 16:14:45.8	60.460	0.190	-0.280	0.300
2020/01/31 16:14:45.9	60.460	0.200	-0.310	0.280
2020/01/31 16:14:46.0	60.450	0.210	-0.330	0.250
2020/01/31 16:14:46.1	60.450	0.230	-0.360	0.220
2020/01/31 16:14:46.2	60.450	0.240	-0.380	0.180
2020/01/31 16:14:46.3	60.440	0.250	-0.410	0.140
2020/01/31 16:14:46.4	60.440	0.250	-0.430	0.110
2020/01/31 16:14:46.5	60.440	0.260	-0.450	0.060
2020/01/31 16:14:46.6	60.440	0.270	-0.470	0.020
2020/01/31 16:14:46.7	60.440	0.270	-0.490	-0.030
2020/01/31 16:14:46.8	60.440	0.280	-0.510	-0.080
2020/01/31 16:14:46.9	60.440	0.280	-0.520	-0.120
2020/01/31 16:14:47.0	60.430	0.280	-0.530	-0.170
2020/01/31 16:14:47.1	60.430	0.290	-0.530	-0.210
2020/01/31 16:14:47.2	60.420	0.280	-0.540	-0.260
2020/01/31 16:14:47.3	60.410	0.280	-0.530	-0.290
2020/01/31 16:14:47.4	60.400	0.280	-0.520	-0.330
2020/01/31 16:14:47.5	60.380	0.280	-0.500	-0.360
2020/01/31 16:14:47.6	60.360	0.270	-0.480	-0.380
2020/01/31 16:14:47.7	60.360	0.260	-0.450	-0.400
2020/01/31 16:14:47.8	60.340	0.250	-0.410	-0.420
2020/01/31 16:14:47.9	60.310	0.240	-0.370	-0.420
2020/01/31 16:14:48.0	60.280	0.230	-0.330	-0.430
2020/01/31 16:14:48.1	60.250	0.210	-0.270	-0.420
2020/01/31 16:14:48.2	60.210	0.200	-0.220	-0.410
2020/01/31 16:14:48.3	60.180	0.180	-0.150	-0.400
2020/01/31 16:14:48.4	60.140	0.160	-0.090	-0.380
2020/01/31 16:14:48.5	60.100	0.140	-0.020	-0.350
2020/01/31 16:14:48.6	60.060	0.110	0.050	-0.320
2020/01/31 16:14:48.7	60.030	0.090	0.120	-0.290
2020/01/31 16:14:48.8	59.990	0.060	0.190	-0.260
2020/01/31 16:14:48.9	59.950	0.040	0.260	-0.220
2020/01/31 16:14:49.0	59.920	0.010	0.330	-0.190
2020/01/31 16:14:49.1	59.880	-0.020	0.390	-0.150
2020/01/31 16:14:49.2	59.840	-0.050	0.450	-0.110
2020/01/31 16:14:49.3	59.810	-0.080	0.510	-0.080
2020/01/31 16:14:49.4	59.770	-0.110	0.560	-0.050
2020/01/31 16:14:49.5	59.740	-0.140	0.610	-0.010
2020/01/31 16:14:49.6	59.710	-0.170	0.650	0.020
2020/01/31 16:14:49.7	59.690	-0.190	0.680	0.040
2020/01/31 16:14:49.8	59.660	-0.220	0.710	0.070
2020/01/31 16:14:49.9	59.640	-0.250	0.720	0.090
2020/01/31 16:14:50.0	59.610	-0.270	0.730	0.110
2020/01/31 16:14:50.1	59.590	-0.300	0.730	0.120
2020/01/31 16:14:50.2	59.570	-0.320	0.730	0.140
2020/01/31 16:14:50.3	59.550	-0.340	0.720	0.150
2020/01/31 16:14:50.4	59.530	-0.360	0.690	0.150
2020/01/31 16:14:50.5	59.510	-0.380	0.670	0.160
2020/01/31 16:14:50.6	59.490	-0.400	0.630	0.160
2020/01/31 16:14:50.7	59.470	-0.410	0.590	0.150
2020/01/31 16:14:50.8	59.450	-0.420	0.540	0.150
2020/01/31 16:14:50.9	59.430	-0.430	0.490	0.140
2020/01/31 16:14:51.0	59.420	-0.430	0.430	0.130
2020/01/31 16:14:51.1	59.400	-0.440	0.370	0.120
2020/01/31 16:14:51.2	59.380	-0.440	0.310	0.110
2020/01/31 16:14:51.3	59.360	-0.440	0.240	0.100
2020/01/31 16:14:51.4	59.340	-0.430	0.170	0.090
2020/01/31 16:14:51.5	59.320	-0.430	0.100	0.070
2020/01/31 16:14:51.6	59.300	-0.420	0.030	0.060
2020/01/31 16:14:51.7	59.290	-0.400	-0.040	0.040
2020/01/31 16:14:51.8	59.270	-0.390	-0.120	0.030
2020/01/31 16:14:51.9	59.250	-0.370	-0.190	0.010
2020/01/31 16:14:52.0	59.230	-0.350	-0.260	-0.000
2020/01/31 16:14:52.1	59.210	-0.330	-0.330	-0.010
2020/01/31 16:14:52.2	59.200	-0.310	-0.390	-0.030
2020/01/31 16:14:52.3	59.180	-0.280	-0.460	-0.040
2020/01/31 16:14:52.4	59.160	-0.250	-0.520	-0.060
2020/01/31 16:14:52.5	59.150	-0.220	-0.580	-0.070
2020/01/31 16:14:52.6	59.130	-0.190	-0.640	-0.080
2020/01/31 16:14:52.7	59.110	-0.160	-0.690	-0.090
2020/01/31 16:14:52.8	59.100	-0.120	-0.750	-0.100
2020/01/31 16:14:52.9	59.080	-0.090	-0.800	-0.110
2020/01/31 16:14:53.0	59.070	-0.050	-0.840	-0.120
2020/01/31 16:14:53.1	59.050	-0.020	-0.880	-0.120
2020/01/31 16:14:53.2	59.040	0.020	-0.920	-0.120
2020/01/31 16:14:53.3	59.020	0.050	-0.960	-0.130
2020/01/31 16:14:53.4	59.000	0.090	-0.990	-0.130
2020/01/31 16:14:53.5	58.980	0.120	-1.020	-0.130
2020/01/31 16:14:53.6	58.960	0.160	-1.040	-0.130
2020/01/31 16:14:53.7	58.930	0.190	-1.060	-0.130
2020/01/31 16:14:53.8	58.900	0.220	-1.080	-0.120
2020/01/31 16:14:53.9	58.880	0.240	-1.090	-0.120
2020/01/31 16:14:54.0	58.850	0.270	-1.090	-0.120
2020/01/31 16:14:54.1	58.820	0.290	-1.090	-0.110
2020/01/31 16:14:54.2	58.790	0.310	-1.090	-0.110
2020/01/31 16:14:54.3	58.760	0.320	-1.080	-0.110
2020/01/31 16:14:54.4	58.730	0.340	-1.070	-0.110
2020/01/31 16:14:54.5	58.700	0.350	-1.050	-0.110
2020/01/31 16:14:54.6	58.660	0.350	-1.030	-0.110
2020/01/31 16:14:54.7	58.620	0.360	-1.000	-0.110
2020/01/31 16:14:54.8	58.590	0.360	-0.970	-0.110
2020/01/31 16:14:54.9	58.560	0.350	-0.940	-0.110
2020/01/31 16:14:55.0	58.530	0.350	-0.900	-0.120
2020/01/31 16:14:55.1	58.500	0.340	-0.860	-0.120
2020/01/31 16:14:55.2	58.470	0.330	-0.810	-0.120
2020/01/31 16:14:55.3	58.440	0.310	-0.760	-0.130
2020/01/31 16:14:55.4	58.410	0.290	-0.710	-0.130
2020/01/31 16:14:55.5	58.380	0.280	-0.650	-0.140
2020/01/31 16:14:55.6	58.350	0.260	-0.590	-0.140
2020/01/31 16:14:55.7	58.320	0.240	-0.530	-0.150
2020/01/31 16:14:55.8	58.290	0.210	-0.460	-0.150
2020/01/31 16:14:55.9	58.260	0.190	-0.400	-0.160
2020/01/31 16:14:56.0	58.240	0.170	-0.330	-0.160
2020/01/31 16:14:56.1	58.210	0.140	-0.270	-0.150
2020/01/31 16:14:56.2	58.180	0.120	-0.200	-0.150
2020/01/31 16:14:56.3	58.150	0.100	-0.130	-0.140
2020/01/31 16:14:56.4	58.120	0.070	-0.060	-0.130
2020/01/31 16:14:56.5	58.090	0.050	0.000	-0.120
2020/01/31 16:14:56.6	58.070	0.030	0.070	-0.100
2020/01/31 16:14:56.7	58.020	0.010	0.130	-0.090
2020/01/31 16:14:56.8	57.990	-0.010	0.190	-0.070
2020/01/31 16:14:56.9	57.960	-0.020	0.250	-0.040
2020/01/31 16:14:57.0	57.920	-0.040	0.300	-0.010
2020/01/31 16:14:57.1	57.890	-0.050	0.350	0.020
2020/01/31 16:14:57.2	57.860	-0.070	0.400	0.050
2020/01/31 16:14:57.3	57.830	-0.080	0.440	0.080
2020/01/31 16:14:57.4	57.800	-0.080	0.480	0.110
2020/01/31 16:14:57.5	57.770	-0.090	0.510	0.150
2020/01/31 16:14:57.6	57.740	-0.100	0.540	0.180
2020/01/31 16:14:57.7	57.700	-0.100	0.560	0.210
2020/01/31 16:14:57.8	57.670	-0.110	0.580	0.240
2020/01/31 16:14:57.9	57.640	-0.110	0.590	0.270
2020/01/31 16:14:58.0	57.610	-0.110	0.600	0.300
2020/01/31 16:14:58.1	57.580	-0.110	0.610	0.320
2020/01/31 16:14:58.2	57.550	-0.110	0.610	0.350
2020/01/31 16:14:58.3	57.530	-0.110	0.610	0.360
2020/01/31 16:14:58.4	57.500	-0.110	0.600	0.380
2020/01/31 16:14:58.5	57.470	-0.110	0.590	0.390
2020/01/31 16:14:58.6	57.450	-0.110	0.570	0.400
2020/01/31 16:14:58.7	57.410	-0.110	0.550	0.410
2020/01/31 16:14:58.8	57.380	-0.120	0.530	0.420
2020/01/31 16:14:58.9	57.350	-0.120	0.500	0.420
2020/01/31 16:14:59.0	57.320	-0.120	0.470	0.420
2020/01/31 16:14:59.1	57.290	-0.120	0.440	0.420
2020/01/31 16:14:59.2	57.260	-0.120	0.410	0.420
2020/01/31 16:14:59.3	57.220	-0.120	0.380	0.420
2020/01/31 16:14:59.4	57.190	-0.120	0.340	0.420
2020/01/31 16:14:59.5	57.150	-0.120	0.300	0.420
2020/01/31 16:14:59.6	57.120	-0.120	0.260	0.410
2020/01/31 16:14:59.7	57.080	-0.120	0.220	0.410
2020/01/31 16:14:59.8	57.040	-0.120	0.180	0.410
2020/01/31 16:14:59.9	57.000	-0.130	0.130	0.400
2020/01/31 16:15:00.0	56.960	-0.130	0.090	0.400
2020/01/31 16:15:00.1	56.920	-0.130	0.040	0.390
2020/01/31 16:15:00.2	56.880	-0.130	-0.010	0.390
2020/01/31 16:15:00.3	56.840	-0.130	-0.060	0.380
2020/01/31 16:15:00.4	56.800	-0.130	-0.110	0.370
2020/01/31 16:15:00.5	56.760	-0.130	-0.160	0.360
2020/01/31 16:15:00.6	56.730	-0.120	-0.210	0.350
2020/01/31 16:15:00.7	56.710	-0.120	-0.260	0.330
2020/01/31 16:15:00.8	56.670	-0.120	-0.320	0.320
2020/01/31 16:15:00.9	56.640	-0.110	-0.370	0.290
2020/01/31 16:15:01.0	56.610	-0.110	-0.430	0.270
2020/01/31 16:15:01.1	56.580	-0.100	-0.490	0.250
2020/01/31 16:15:01.2	56.560	-0.090	-0.540	0.220
2020/01/31 16:15:01.3	56.530	-0.080	-0.600	0.180
2020/01/31 16:15:01.4	56.510	-0.070	-0.660	0.150
2020/01/31 16:15:01.5	56.490	-0.060	-0.710	0.110
2020/01/31 16:15:01.6	56.470	-0.040	-0.770	0.080
2020/01/31 16:15:01.7	56.480	-0.030	-0.820	0.030
2020/01/31 16:15:01.8	56.460	-0.010	-0.870	-0.010
2020/01/31 16:15:01.9	56.450	0.010	-0.920	-0.050
2020/01/31 16:15:02.0	56.430	0.030	-0.960	-0.090
2020/01/31 16:15:02.1	56.420	0.050	-1.010	-0.130
2020/01/31 16:15:02.2	56.410	0.070	-1.040	-0.170
2020/01/31 16:15:02.3	56.390	0.090	-1.080	-0.210
2020/01/31 16:15:02.4	56.380	0.120	-1.100	-0.240
2020/01/31 16:15:02.5	56.370	0.150	-1.130	-0.280
2020/01/31 16:15:02.6	56.350	0.170	-1.140	-0.300
2020/01/31 16:15:02.7	56.330	0.200	-1.150	-0.330
2020/01/31 16:15:02.8	56.310	0.220	-1.150	-0.360
2020/01/31 16:15:02.9	56.290	0.250	-1.150	-0.370
2020/01/31 16:15:03.0	56.270	0.280	-1.140	-0.390
2020/01/31 16:15:03.1	56.250	0.300	-1.120	-0.400
2020/01/31 16:15:03.2	56.230	0.320	-1.090	-0.410
2020/01/31 16:15:03.3	56.210	0.350	-1.060	-0.410
2020/01/31 16:15:03.4	56.180	0.370	-1.020	-0.410
2020/01/31 16:15:03.5	56.150	0.380	-0.970	-0.410
2020/01/31 16:15:03.6	56.120	0.400	-0.910	-0.400
2020/01/31 16:15:03.7	56.100	0.410	-0.850	-0.390
2020/01/31 16:15:03.8	56.070	0.420	-0.780	-0.370
2020/01/31 16:15:03.9	56.030	0.430	-0.700	-0.350
2020/01/31 16:15:04.0	56.000	0.430	-0.620	-0.320
2020/01/31 16:15:04.1	55.960	0.430	-0.530	-0.290
2020/01/31 16:15:04.2	55.920	0.420	-0.440	-0.260
2020/01/31 16:15:04.3	55.870	0.410	-0.350	-0.220
2020/01/31 16:15:04.4	55.830	0.400	-0.250	-0.180
2020/01/31 16:15:04.5	55.780	0.380	-0.150	-0.140
2020/01/31 16:15:04.6	55.740	0.360	-0.050	-0.100
2020/01/31 16:15:04.7	55.670	0.340	0.050	-0.050
2020/01/31 16:15:04.8	55.620	0.310	0.150	0.000
2020/01/31 16:15:04.9	55.570	0.280	0.250	0.050
2020/01/31 16:15:05.0	55.520	0.250	0.340	0.100
2020/01/31 16:15:05.1	55.470	0.210	0.430	0.150
2020/01/31 16:15:05.2	55.420	0.170	0.520	0.200
2020/01/31 16:15:05.3	55.370	0.130	0.600	0.250
2020/01/31 16:15:05.4	55.320	0.090	0.670	0.290
2020/01/31 16:15:05.5	55.270	0.050	0.740	0.340
2020/01/31 16:15:05.6	55.220	0.000	0.800	0.380
2020/01/31 16:15:05.7	55.170	-0.040	0.850	0.420
2020/01/31 16:15:05.8	55.120	-0.090	0.890	0.450
2020/01/31 16:15:05.9	55.070	-0.130	0.920	0.480
2020/01/31 16:15:06.0	55.030	-0.170	0.940	0.510
2020/01/31 16:15:06.1	54.990	-0.210	0.950	0.530
2020/01/31 16:15:06.2	54.950	-0.250	0.950	0.550
2020/01/31 16:15:06.3	54.910	-0.290	0.950	0.560
2020/01/31 16:15:06.4	54.870	-0.330	0.930	0.570
2020/01/31 16:15:06.5	54.840	-0.360	0.900	0.570
2020/01/31 16:15:06.6	54.810	-0.390	0.860	0.570
2020/01/31 16:15:06.7	54.760	-0.410	0.820	0.560
2020/01/31 16:15:06.8	54.730	-0.440	0.760	0.550
2020/01/31 16:15:06.9	54.710	-0.460	0.700	0.540
2020/01/31 16:15:07.0	54.690	-0.470	0.630	0.520
2020/01/31 16:15:07.1	54.670	-0.480	0.560	0.500
2020/01/31 16:15:07.2	54.660	-0.490	0.480	0.480
2020/01/31 16:15:07.3	54.640	-0.490	0.400	0.450
2020/01/31 16:15:07.4	54.630	-0.490	0.310	0.430
2020/01/31 16:15:07.5	54.620	-0.480	0.220	0.400
2020/01/31 16:15:07.6	54.620	-0.470	0.130	0.370
2020/01/31 16:15:07.7	54.610	-0.460	0.030	0.340
2020/01/31 16:15:07.8	54.600	-0.440	-0.060	0.310
2020/01/31 16:15:07.9	54.600	-0.420	-0.150	0.280
2020/01/31 16:15:08.0	54.600	-0.390	-0.240	0.240
2020/01/31 16:15:08.1	54.590	-0.370	-0.330	0.210
2020/01/31 16:15:08.2	54.590	-0.340	-0.410	0.180
2020/01/31 16:15:08.3	54.580	-0.300	-0.490	0.150
2020/01/31 16:15:08.4	54.580	-0.270	-0.560	0.120
2020/01/31 16:15:08.5	54.570	-0.230	-0.630	0.090
2020/01/31 16:15:08.6	54.560	-0.200	-0.700	0.070
2020/01/31 16:15:08.7	54.550	-0.160	-0.760	0.040
2020/01/31 16:15:08.8	54.540	-0.120	-0.810	0.020
2020/01/31 16:15:08.9	54.520	-0.080	-0.850	-0.000
2020/01/31 16:15:09.0	54.510	-0.050	-0.890	-0.020
2020/01/31 16:15:09.1	54.480	-0.010	-0.910	-0.030
2020/01/31 16:15:09.2	54.460	0.030	-0.940	-0.040
2020/01/31 16:15:09.3	54.430	0.060	-0.950	-0.050
2020/01/31 16:15:09.4	54.400	0.090	-0.950	-0.050
2020/01/31 16:15:09.5	54.370	0.120	-0.950	-0.050
2020/01/31 16:15:09.6	54.330	0.150	-0.940	-0.050
2020/01/31 16:15:09.7	54.280	0.170	-0.930	-0.040
2020/01/31 16:15:09.8	54.240	0.190	-0.910	-0.030
2020/01/31 16:15:09.9	54.190	0.210	-0.880	-0.010
2020/01/31 16:15:10.0	54.140	0.220	-0.850	0.000
2020/01/31 16:15:10.1	54.090	0.230	-0.810	0.020
2020/01/31 16:15:10.2	54.040	0.240	-0.770	0.040
2020/01/31 16:15:10.3	53.980	0.240	-0.730	0.060
2020/01/31 16:15:10.4	53.920	0.240	-0.680	0.090
2020/01/31 16:15:10.5	53.870	0.230	-0.630	0.110
2020/01/31 16:15:10.6	53.810	0.230	-0.580	0.130
2020/01/31 16:15:10.7	53.750	0.210	-0.530	0.150
2020/01/31 16:15:10.8	53.690	0.200	-0.480	0.170
2020/01/31 16:15:10.9	53.630	0.180	-0.430	0.190
2020/01/31 16:15:11.0	53.570	0.160	-0.370	0.200
2020/01/31 16:15:11.1	53.510	0.130	-0.330	0.220
2020/01/31 16:15:11.2	53.460	0.110	-0.280	0.220
2020/01/31 16:15:11.3	53.400	0.080	-0.230	0.230
2020/01/31 16:15:11.4	53.350	0.050	-0.190	0.230
2020/01/31 16:15:11.5	53.300	0.020	-0.160	0.230
2020/01/31 16:15:11.6	53.250	-0.000	-0.120	0.220
2020/01/31 16:15:11.7	53.210	-0.030	-0.090	0.210
2020/01/31 16:15:11.8	53.160	-0.060	-0.070	0.190
2020/01/31 16:15:11.9	53.120	-0.080	-0.050	0.170
2020/01/31 16:15:12.0	53.090	-0.110	-0.040	0.150
2020/01/31 16:15:12.1	53.050	-0.130	-0.030	0.130
2020/01/31 16:15:12.2	53.020	-0.140	-0.030	0.110
2020/01/31 16:15:12.3	52.990	-0.160	-0.030	0.080
2020/01/31 16:15:12.4	52.970	-0.170	-0.030	0.050
2020/01/31 16:15:12.5	52.950	-0.170	-0.040	0.030
2020/01/31 16:15:12.6	52.930	-0.180	-0.060	0.000
2020/01/31 16:15:12.7	52.930	-0.170	-0.070	-0.030
2020/01/31 16:15:12.8	52.920	-0.170	-0.090	-0.050
2020/01/31 16:15:12.9	52.910	-0.150	-0.110	-0.070
2020/01/31 16:15:13.0	52.900	-0.140	-0.130	-0.090
2020/01/31 16:15:13.1	52.900	-0.120	-0.160	-0.110
2020/01/31 16:15:13.2	52.890	-0.100	-0.180	-0.130
2020/01/31 16:15:13.3	52.890	-0.070	-0.210	-0.140
2020/01/31 16:15:13.4	52.890	-0.040	-0.230	-0.150
2020/01/31 16:15:13.5	52.880	-0.010	-0.250	-0.160
2020/01/31 16:15:13.6	52.880	0.030	-0.270	-0.170
2020/01/31 16:15:13.7	52.880	0.060	-0.290	-0.170
2020/01/31 16:15:13.8	52.880	0.100	-0.300	-0.170
2020/01/31 16:15:13.9	52.870	0.140	-0.320	-0.180
2020/01/31 16:15:14.0	52.870	0.170	-0.320	-0.180
2020/01/31 16:15:14.1	52.860	0.210	-0.330	-0.180
2020/01/31 16:15:14.2	52.850	0.250	-0.330	-0.170
2020/01/31 16:15:14.3	52.840	0.280	-0.330	-0.170
2020/01/31 16:15:14.4	52.830	0.310	-0.330	-0.170
2020/01/31 16:15:14.5	52.820	0.340	-0.320	-0.160
2020/01/31 16:15:14.6	52.800	0.370	-0.310	-0.160
2020/01/31 16:15:14.7	52.780	0.390	-0.290	-0.160
2020/01/31 16:15:14.8	52.760	0.410	-0.270	-0.150
2020/01/31 16:15:14.9	52.730	0.420	-0.250	-0.140
2020/01/31 16:15:15.0	52.700	0.430	-0.220	-0.130
2020/01/31 16:15:15.1	52.670	0.440	-0.200	-0.120
2020/01/31 16:15:15.2	52.640	0.440	-0.170	-0.100
2020/01/31 16:15:15.3	52.610	0.430	-0.130	-0.090
2020/01/31 16:15:15.4	52.570	0.420	-0.100	-0.080
2020/01/31 16:15:15.5	52.530	0.410	-0.070	-0.060
2020/01/31 16:15:15.6	52.490	0.390	-0.030	-0.040
2020/01/31 16:15:15.7	52.440	0.360	-0.000	-0.020
2020/01/31 16:15:15.8	52.390	0.340	0.030	-0.000
2020/01/31 16:15:15.9	52.340	0.300	0.060	0.020
2020/01/31 16:15:16.0	52.290	0.270	0.100	0.040
2020/01/31 16:15:16.1	52.230	0.230	0.130	0.070
2020/01/31 16:15:16.2	52.170	0.180	0.160	0.090
2020/01/31 16:15:16.3	52.120	0.140	0.180	0.110
2020/01/31 16:15:16.4	52.060	0.090	0.210	0.140
2020/01/31 16:15:16.5	51.990	0.040	0.230	0.160
2020/01/31 16:15:16.6	51.930	-0.010	0.250	0.180
2020/01/31 16:15:16.7	51.860	-0.070	0.270	0.200
2020/01/31 16:15:16.8	51.790	-0.120	0.280	0.220
2020/01/31 16:15:16.9	51.730	-0.170	0.300	0.240
2020/01/31 16:15:17.0	51.660	-0.230	0.310	0.250
2020/01/31 16:15:17.1	51.590	-0.280	0.310	0.260
2020/01/31 16:15:17.2	51.530	-0.330	0.310	0.270
2020/01/31 16:15:17.3	51.460	-0.380	0.310	0.270
2020/01/31 16:15:17.4	51.400	-0.420	0.300	0.270
2020/01/31 16:15:17.5	51.340	-0.460	0.280	0.260
2020/01/31 16:15:17.6	51.280	-0.500	0.270	0.250
2020/01/31 16:15:17.7	51.230	-0.530	0.240	0.230
2020/01/31 16:15:17.8	51.180	-0.550	0.210	0.210
2020/01/31 16:15:17.9	51.130	-0.570	0.180	0.180
2020/01/31 16:15:18.0	51.080	-0.580	0.140	0.150
2020/01/31 16:15:18.1	51.030	-0.590	0.090	0.110
2020/01/31 16:15:18.2	50.990	-0.590	0.040	0.070
2020/01/31 16:15:18.3	50.960	-0.580	-0.010	0.020
2020/01/31 16:15:18.4	50.920	-0.570	-0.080	-0.020
2020/01/31 16:15:18.5	50.890	-0.550	-0.140	-0.070
2020/01/31 16:15:18.6	50.870	-0.520	-0.210	-0.120
2020/01/31 16:15:18.7	50.860	-0.490	-0.280	-0.180
2020/01/31 16:15:18.8	50.840	-0.450	-0.350	-0.230
2020/01/31 16:15:18.9	50.820	-0.400	-0.420	-0.280
2020/01/31 16:15:19.0	50.810	-0.350	-0.490	-0.320
2020/01/31 16:15:19.1	50.800	-0.300	-0.560	-0.370
2020/01/31 16:15:19.2	50.790	-0.240	-0.630	-0.410
2020/01/31 16:15:19.3	50.780	-0.180	-0.690	-0.440
2020/01/31 16:15:19.4	50.780	-0.120	-0.750	-0.480
2020/01/31 16:15:19.5	50.770	-0.050	-0.810	-0.510
2020/01/31 16:15:19.6	50.770	0.010	-0.860	-0.530
2020/01/31 16:15:19.7	50.760	0.080	-0.900	-0.560
2020/01/31 16:15:19.8	50.760	0.140	-0.940	-0.580
2020/01/31 16:15:19.9	50.760	0.200	-0.980	-0.590
2020/01/31 16:15:20.0	50.750	0.260	-1.000	-0.610
2020/01/31 16:15:20.1	50.750	0.320	-1.020	-0.620
2020/01/31 16:15:20.2	50.750	0.370	-1.030	-0.620
2020/01/31 16:15:20.3	50.740	0.420	-1.040	-0.630
2020/01/31 16:15:20.4	50.740	0.470	-1.030	-0.630
2020/01/31 16:15:20.5	50.740	0.500	-1.020	-0.630
2020/01/31 16:15:20.6	50.730	0.540	-1.000	-0.630
2020/01/31 16:15:20.7	50.720	0.560	-0.980	-0.630
2020/01/31 16:15:20.8	50.720	0.580	-0.940	-0.620
2020/01/31 16:15:20.9	50.710	0.600	-0.890	-0.610
2020/01/31 16:15:21.0	50.690	0.600	-0.840	-0.590
2020/01/31 16:15:21.1	50.680	0.610	-0.780	-0.580
2020/01/31 16:15:21.2	50.670	0.600	-0.710	-0.550
2020/01/31 16:15:21.3	50.650	0.590	-0.630	-0.530
2020/01/31 16:15:21.4	50.640	0.570	-0.550	-0.500
2020/01/31 16:15:21.5	50.620	0.540	-0.470	-0.460
2020/01/31 16:15:21.6	50.590	0.510	-0.370	-0.430
2020/01/31 16:15:21.7	50.570	0.480	-0.280	-0.390
2020/01/31 16:15:21.8	50.540	0.440	-0.180	-0.340
2020/01/31 16:15:21.9	50.510	0.400	-0.080	-0.290
2020/01/31 16:15:22.0	50.480	0.350	0.020	-0.230
2020/01/31 16:15:22.1	50.450	0.300	0.130	-0.170
2020/01/31 16:15:22.2	50.410	0.250	0.230	-0.100
2020/01/31 16:15:22.3	50.370	0.190	0.340	-0.040
2020/01/31 16:15:22.4	50.330	0.130	0.440	0.040
2020/01/31 16:15:22.5	50.290	0.080	0.540	0.110
2020/01/31 16:15:22.6	50.240	0.020	0.640	0.180
2020/01/31 16:15:22.7	50.200	-0.040	0.730	0.260
2020/01/31 16:15:22.8	50.150	-0.090	0.810	0.330
2020/01/31 16:15:22.9	50.100	-0.150	0.890	0.400
2020/01/31 16:15:23.0	50.040	-0.200	0.960	0.480
2020/01/31 16:15:23.1	49.990	-0.250	1.020	0.550
2020/01/31 16:15:23.2	49.940	-0.290	1.070	0.610
2020/01/31 16:15:23.3	49.880	-0.340	1.110	0.670
2020/01/31 16:15:23.4	49.830	-0.370	1.130	0.730
2020/01/31 16:15:23.5	49.770	-0.410	1.150	0.780
2020/01/31 16:15:23.6	49.720	-0.430	1.150	0.830
2020/01/31 16:15:23.7	49.650	-0.460	1.130	0.870
2020/01/31 16:15:23.8	49.600	-0.470	1.100	0.910
2020/01/31 16:15:23.9	49.550	-0.480	1.060	0.940
2020/01/31 16:15:24.0	49.500	-0.490	1.010	0.960
2020/01/31 16:15:24.1	49.450	-0.490	0.940	0.980
2020/01/31 16:15:24.2	49.400	-0.490	0.860	0.990
2020/01/31 16:15:24.3	49.360	-0.480	0.770	1.000
2020/01/31 16:15:24.4	49.320	-0.460	0.670	1.000
2020/01/31 16:15:24.5	49.280	-0.440	0.560	0.990
2020/01/31 16:15:24.6	49.240	-0.420	0.430	0.970
2020/01/31 16:15:24.7	49.220	-0.390	0.300	0.960
2020/01/31 16:15:24.8	49.190	-0.370	0.170	0.930
2020/01/31 16:15:24.9	49.160	-0.330	0.030	0.900
2020/01/31 16:15:25.0	49.130	-0.300	-0.110	0.870
2020/01/31 16:15:25.1	49.100	-0.270	-0.260	0.830
2020/01/31 16:15:25.2	49.080	-0.230	-0.400	0.790
2020/01/31 16:15:25.3	49.060	-0.200	-0.550	0.740
2020/01/31 16:15:25.4	49.040	-0.160	-0.690	0.690
2020/01/31 16:15:25.5	49.020	-0.130	-0.820	0.640
2020/01/31 16:15:25.6	49.010	-0.090	-0.950	0.580
2020/01/31 16:15:25.7	49.010	-0.060	-1.080	0.510
2020/01/31 16:15:25.8	48.990	-0.030	-1.200	0.450
2020/01/31 16:15:25.9	48.980	-0.000	-1.300	0.380
2020/01/31 16:15:26.0	48.970	0.020	-1.390	0.310
2020/01/31 16:15:26.1	48.960	0.040	-1.480	0.230
2020/01/31 16:15:26.2	48.940	0.060	-1.550	0.160
2020/01/31 16:15:26.3	48.930	0.080	-1.600	0.090
2020/01/31 16:15:26.4	48.920	0.090	-1.640	0.010
2020/01/31 16:15:26.5	48.910	0.100	-1.670	-0.060
2020/01/31 16:15:26.6	48.900	0.110	-1.680	-0.130
2020/01/31 16:15:26.7	48.870	0.110	-1.680	-0.210
2020/01/31 16:15:26.8	48.860	0.110	-1.660	-0.270
2020/01/31 16:15:26.9	48.850	0.100	-1.630	-0.330
2020/01/31 16:15:27.0	48.830	0.100	-1.590	-0.390
2020/01/31 16:15:27.1	48.820	0.090	-1.530	-0.440
2020/01/31 16:15:27.2	48.800	0.080	-1.470	-0.490
2020/01/31 16:15:27.3	48.780	0.060	-1.390	-0.520
2020/01/31 16:15:27.4	48.760	0.050	-1.300	-0.560
2020/01/31 16:15:27.5	48.740	0.030	-1.200	-0.590
2020/01/31 16:15:27.6	48.720	0.020	-1.100	-0.610
2020/01/31 16:15:27.7	48.690	-0.000	-0.980	-0.630
2020/01/31 16:15:27.8	48.670	-0.020	-0.860	-0.630
2020/01/31 16:15:27.9	48.640	-0.040	-0.740	-0.640
2020/01/31 16:15:28.0	48.610	-0.060	-0.620	-0.640
2020/01/31 16:15:28.1	48.580	-0.080	-0.490	-0.630
2020/01/31 16:15:28.2	48.550	-0.100	-0.360	-0.610
2020/01/31 16:15:28.3	48.510	-0.120	-0.230	-0.600
2020/01/31 16:15:28.4	48.470	-0.140	-0.110	-0.570
2020/01/31 16:15:28.5	48.440	-0.160	0.010	-0.550
2020/01/31 16:15:28.6	48.400	-0.170	0.140	-0.520
2020/01/31 16:15:28.7	48.350	-0.190	0.250	-0.490
2020/01/31 16:15:28.8	48.310	-0.200	0.360	-0.460
2020/01/31 16:15:28.9	48.260	-0.210	0.460	-0.420
2020/01/31 16:15:29.0	48.220	-0.220	0.560	-0.390
2020/01/31 16:15:29.1	48.170	-0.230	0.640	-0.350
2020/01/31 16:15:29.2	48.130	-0.240	0.720	-0.310
2020/01/31 16:15:29.3	48.090	-0.240	0.790	-0.280
2020/01/31 16:15:29.4	48.040	-0.240	0.850	-0.240
2020/01/31 16:15:29.5	48.000	-0.230	0.890	-0.210
2020/01/31 16:15:29.6	47.960	-0.230	0.930	-0.180
2020/01/31 16:15:29.7	47.920	-0.220	0.950	-0.150
2020/01/31 16:15:29.8	47.880	-0.210	0.960	-0.120
2020/01/31 16:15:29.9	47.840	-0.190	0.960	-0.100
2020/01/31 16:15:30.0	47.800	-0.170	0.940	-0.080
2020/01/31 16:15:30.1	47.770	-0.150	0.920	-0.060
2020/01/31 16:15:30.2	47.730	-0.130	0.880	-0.040
2020/01/31 16:15:30.3	47.700	-0.100	0.830	-0.030
2020/01/31 16:15:30.4	47.670	-0.070	0.770	-0.020
2020/01/31 16:15:30.5	47.630	-0.040	0.700	-0.010
2020/01/31 16:15:30.6	47.600	-0.010	0.630	-0.010
2020/01/31 16:15:30.7	47.570	0.020	0.540	-0.000
2020/01/31 16:15:30.8	47.540	0.060	0.450	0.000
2020/01/31 16:15:30.9	47.510	0.100	0.350	0.000
2020/01/31 16:15:31.0	47.480	0.130	0.250	0.000
2020/01/31 16:15:31.1	47.450	0.170	0.150	0.000
2020/01/31 16:15:31.2	47.420	0.210	0.040	0.000
2020/01/31 16:15:31.3	47.390	0.240	-0.060	0.000
2020/01/31 16:15:31.4	47.360	0.280	-0.170	0.000
2020/01/31 16:15:31.5	47.330	0.310	-0.270	-0.000
2020/01/31 16:15:31.6	47.300	0.350	-0.370	-0.000
2020/01/31 16:15:31.7	47.260	0.380	-0.470	-0.010
2020/01/31 16:15:31.8	47.230	0.410	-0.560	-0.010
2020/01/31 16:15:31.9	47.190	0.440	-0.650	-0.010
2020/01/31 16:15:32.0	47.160	0.460	-0.730	-0.010
2020/01/31 16:15:32.1	47.120	0.490	-0.800	-0.010
2020/01/31 16:15:32.2	47.090	0.510	-0.870	-0.010
2020/01/31 16:15:32.3	47.050	0.530	-0.930	-0.010
2020/01/31 16:15:32.4	47.010	0.540	-0.970	-0.010
2020/01/31 16:15:32.5	46.970	0.550	-1.010	-0.010
2020/01/31 16:15:32.6	46.940	0.560	-1.050	-0.010
2020/01/31 16:15:32.7	46.910	0.560	-1.070	-0.010
2020/01/31 16:15:32.8	46.870	0.560	-1.080	-0.010
2020/01/31 16:15:32.9	46.830	0.560	-1.080	-0.010
2020/01/31 16:15:33.0	46.790	0.550	-1.070	-0.010
2020/01/31 16:15:33.1	46.760	0.540	-1.060	-0.010
2020/01/31 16:15:33.2	46.720	0.530	-1.030	-0.000
2020/01/31 16:15:33.3	46.690	0.510	-1.000	-0.000
2020/01/31 16:15:33.4	46.650	0.490	-0.960	-0.000
2020/01/31 16:15:33.5	46.620	0.470	-0.920	0.000
2020/01/31 16:15:33.6	46.590	0.450	-0.870	0.000
2020/01/31 16:15:33.7	46.580	0.420	-0.810	0.000
2020/01/31 16:15:33.8	46.550	0.390	-0.750	0.000
2020/01/31 16:15:33.9	46.520	0.360	-0.680	0.000
2020/01/31 16:15:34.0	46.500	0.320	-0.620	0.000
2020/01/31 16:15:34.1	46.480	0.290	-0.550	-0.000
2020/01/31 16:15:34.2	46.460	0.250	-0.480	-0.010
2020/01/31 16:15:34.3	46.440	0.210	-0.410	-0.010
2020/01/31 16:15:34.4	46.420	0.170	-0.340	-0.020
2020/01/31 16:15:34.5	46.410	0.140	-0.270	-0.030
2020/01/31 16:15:34.6	46.390	0.100	-0.200	-0.030
2020/01/31 16:15:34.7	46.380	0.060	-0.140	-0.050
2020/01/31 16:15:34.8	46.360	0.020	-0.070	-0.060
2020/01/31 16:15:34.9	46.350	-0.020	-0.010	-0.070
2020/01/31 16:15:35.0	46.330	-0.060	0.050	-0.080
2020/01/31 16:15:35.1	46.320	-0.090	0.100	-0.090
2020/01/31 16:15:35.2	46.300	-0.130	0.160	-0.100
2020/01/31 16:15:35.3	46.280	-0.160	0.210	-0.110
2020/01/31 16:15:35.4	46.260	-0.200	0.250	-0.120
2020/01/31 16:15:35.5	46.240	-0.230	0.300	-0.120
2020/01/31 16:15:35.6	46.220	-0.260	0.340	-0.130
2020/01/31 16:15:35.7	46.190	-0.290	0.380	-0.130
2020/01/31 16:15:35.8	46.170	-0.310	0.410	-0.130
2020/01/31 16:15:35.9	46.140	-0.340	0.440	-0.130
2020/01/31 16:15:36.0	46.120	-0.360	0.470	-0.130
2020/01/31 16:15:36.1	46.090	-0.380	0.490	-0.130
2020/01/31 16:15:36.2	46.070	-0.390	0.510	-0.120
2020/01/31 16:15:36.3	46.040	-0.410	0.530	-0.120
2020/01/31 16:15:36.4	46.020	-0.420	0.540	-0.110
2020/01/31 16:15:36.5	45.990	-0.430	0.550	-0.100
2020/01/31 16:15:36.6	45.970	-0.440	0.550	-0.100
2020/01/31 16:15:36.7	45.930	-0.440	0.540	-0.090
2020/01/31 16:15:36.8	45.910	-0.450	0.530	-0.090
2020/01/31 16:15:36.9	45.890	-0.450	0.520	-0.080
2020/01/31 16:15:37.0	45.870	-0.440	0.500	-0.080
2020/01/31 16:15:37.1	45.840	-0.440	0.480	-0.070
2020/01/31 16:15:37.2	45.830	-0.430	0.450	-0.070
2020/01/31 16:15:37.3	45.810	-0.420	0.420	-0.060
2020/01/31 16:15:37.4	45.790	-0.410	0.380	-0.060
2020/01/31 16:15:37.5	45.770	-0.400	0.340	-0.060
2020/01/31 16:15:37.6	45.760	-0.380	0.290	-0.060
2020/01/31 16:15:37.7	45.740	-0.360	0.240	-0.060
2020/01/31 16:15:37.8	45.730	-0.340	0.190	-0.060
2020/01/31 16:15:37.9	45.710	-0.320	0.140	-0.060
2020/01/31 16:15:38.0	45.700	-0.290	0.080	-0.060
2020/01/31 16:15:38.1	45.680	-0.270	0.020	-0.050
2020/01/31 16:15:38.2	45.670	-0.240	-0.040	-0.050
2020/01/31 16:15:38.3	45.650	-0.210	-0.100	-0.040
2020/01/31 16:15:38.4	45.640	-0.190	-0.160	-0.040
2020/01/31 16:15:38.5	45.620	-0.160	-0.220	-0.030
2020/01/31 16:15:38.6	45.600	-0.130	-0.270	-0.020
2020/01/31 16:15:38.7	45.590	-0.100	-0.330	-0.000
2020/01/31 16:15:38.8	45.570	-0.070	-0.380	0.010
2020/01/31 16:15:38.9	45.550	-0.040	-0.420	0.030
2020/01/31 16:15:39.0	45.520	-0.020	-0.460	0.050
2020/01/31 16:15:39.1	45.500	0.010	-0.500	0.080
2020/01/31 16:15:39.2	45.470	0.040	-0.530	0.100
2020/01/31 16:15:39.3	45.440	0.060	-0.560	0.130
2020/01/31 16:15:39.4	45.400	0.080	-0.580	0.160
2020/01/31 16:15:39.5	45.370	0.100	-0.590	0.190
2020/01/31 16:15:39.6	45.330	0.110	-0.610	0.230
2020/01/31 16:15:39.7	45.300	0.130	-0.610	0.260
2020/01/31 16:15:39.8	45.250	0.140	-0.620	0.300
2020/01/31 16:15:39.9	45.210	0.140	-0.620	0.330
2020/01/31 16:15:40.0	45.160	0.150	-0.620	0.360
2020/01/31 16:15:40.1	45.110	0.150	-0.610	0.390
2020/01/31 16:15:40.2	45.060	0.150	-0.600	0.420
2020/01/31 16:15:40.3	45.010	0.140	-0.590	0.440
2020/01/31 16:15:40.4	44.960	0.140	-0.570	0.470
2020/01/31 16:15:40.5	44.900	0.130	-0.560	0.480
2020/01/31 16:15:40.6	44.850	0.110	-0.540	0.500
2020/01/31 16:15:40.7	44.790	0.100	-0.520	0.510
2020/01/31 16:15:40.8	44.730	0.080	-0.500	0.510
2020/01/31 16:15:40.9	44.670	0.060	-0.480	0.520
2020/01/31 16:15:41.0	44.620	0.040	-0.460	0.520
2020/01/31 16:15:41.1	44.560	0.010	-0.430	0.510
2020/01/31 16:15:41.2	44.500	-0.010	-0.410	0.500
2020/01/31 16:15:41.3	44.450	-0.040	-0.390	0.490
2020/01/31 16:15:41.4	44.390	-0.060	-0.370	0.470
2020/01/31 16:15:41.5	44.330	-0.090	-0.340	0.450
2020/01/31 16:15:41.6	44.280	-0.120	-0.320	0.420
2020/01/31 16:15:41.7	44.220	-0.150	-0.300	0.390
2020/01/31 16:15:41.8	44.170	-0.170	-0.270	0.360
2020/01/31 16:15:41.9	44.120	-0.200	-0.250	0.330
2020/01/31 16:15:42.0	44.080	-0.220	-0.230	0.290
2020/01/31 16:15:42.1	44.030	-0.250	-0.220	0.260
2020/01/31 16:15:42.2	43.980	-0.270	-0.200	0.220
2020/01/31 16:15:42.3	43.940	-0.290	-0.180	0.180
2020/01/31 16:15:42.4	43.900	-0.310	-0.170	0.140
2020/01/31 16:15:42.5	43.860	-0.320	-0.160	0.110
2020/01/31 16:15:42.6	43.830	-0.330	-0.150	0.070
2020/01/31 16:15:42.7	43.790	-0.340	-0.140	0.020
2020/01/31 16:15:42.8	43.750	-0.350	-0.140	-0.020
2020/01/31 16:15:42.9	43.720	-0.350	-0.130	-0.060
2020/01/31 16:15:43.0	43.700	-0.350	-0.130	-0.100
2020/01/31 16:15:43.1	43.670	-0.340	-0.140	-0.140
2020/01/31 16:15:43.2	43.650	-0.340	-0.140	-0.180
2020/01/31 16:15:43.3	43.630	-0.330	-0.150	-0.220
2020/01/31 16:15:43.4	43.620	-0.310	-0.160	-0.260
2020/01/31 16:15:43.5	43.600	-0.290	-0.180	-0.300
2020/01/31 16:15:43.6	43.590	-0.270	-0.190	-0.340
2020/01/31 16:15:43.7	43.570	-0.250	-0.210	-0.390
2020/01/31 16:15:43.8	43.560	-0.220	-0.230	-0.430
2020/01/31 16:15:43.9	43.560	-0.190	-0.250	-0.470
2020/01/31 16:15:44.0	43.550	-0.160	-0.270	-0.500
2020/01/31 16:15:44.1	43.550	-0.120	-0.290	-0.540
2020/01/31 16:15:44.2	43.550	-0.080	-0.320	-0.580
2020/01/31 16:15:44.3	43.550	-0.040	-0.340	-0.610
2020/01/31 16:15:44.4	43.550	0.010	-0.360	-0.640
2020/01/31 16:15:44.5	43.550	0.050	-0.390	-0.670
2020/01/31 16:15:44.6	43.550	0.100	-0.410	-0.690
2020/01/31 16:15:44.7	43.550	0.150	-0.430	-0.710
2020/01/31 16:15:44.8	43.550	0.200	-0.450	-0.730
2020/01/31 16:15:44.9	43.550	0.250	-0.460	-0.750
2020/01/31 16:15:45.0	43.550	0.300	-0.480	-0.750
2020/01/31 16:15:45.1	43.550	0.350	-0.490	-0.760
2020/01/31 16:15:45.2	43.540	0.400	-0.500	-0.760
2020/01/31 16:15:45.3	43.540	0.450	-0.510	-0.750
2020/01/31 16:15:45.4	43.530	0.500	-0.510	-0.740
2020/01/31 16:15:45.5	43.520	0.540	-0.510	-0.720
2020/01/31 16:15:45.6	43.510	0.580	-0.510	-0.700
2020/01/31 16:15:45.7	43.490	0.620	-0.510	-0.670
2020/01/31 16:15:45.8	43.470	0.660	-0.500	-0.630
2020/01/31 16:15:45.9	43.450	0.690	-0.480	-0.600
2020/01/31 16:15:46.0	43.420	0.720	-0.470	-0.550
2020/01/31 16:15:46.1	43.390	0.740	-0.450	-0.510
2020/01/31 16:15:46.2	43.360	0.760	-0.430	-0.460
2020/01/31 16:15:46.3	43.320	0.770	-0.410	-0.400
2020/01/31 16:15:46.4	43.290	0.780	-0.380	-0.350
2020/01/31 16:15:46.5	43.240	0.790	-0.360	-0.290
2020/01/31 16:15:46.6	43.200	0.790	-0.330	-0.240
2020/01/31 16:15:46.7	43.170	0.780	-0.300	-0.180
2020/01/31 16:15:46.8	43.120	0.770	-0.270	-0.130
2020/01/31 16:15:46.9	43.070	0.750	-0.240	-0.070
2020/01/31 16:15:47.0	43.020	0.730	-0.220	-0.020
2020/01/31 16:15:47.1	42.970	0.700	-0.190	0.030
2020/01/31 16:15:47.2	42.920	0.670	-0.160	0.080
2020/01/31 16:15:47.3	42.870	0.630	-0.140	0.120
2020/01/31 16:15:47.4	42.820	0.590	-0.110	0.160
2020/01/31 16:15:47.5	42.770	0.550	-0.090	0.190
2020/01/31 16:15:47.6	42.710	0.500	-0.060	0.220
2020/01/31 16:15:47.7	42.660	0.450	-0.040	0.250
2020/01/31 16:15:47.8	42.610	0.400	-0.020	0.270
2020/01/31 16:15:47.9	42.560	0.350	-0.010	0.290
2020/01/31 16:15:48.0	42.520	0.290	0.010	0.300
2020/01/31 16:15:48.1	42.470	0.230	0.030	0.310
2020/01/31 16:15:48.2	42.420	0.170	0.050	0.310
2020/01/31 16:15:48.3	42.380	0.110	0.060	0.310
2020/01/31 16:15:48.4	42.330	0.060	0.080	0.310
2020/01/31 16:15:48.5	42.280	-0.000	0.090	0.310
2020/01/31 16:15:48.6	42.240	-0.060	0.110	0.300
2020/01/31 16:15:48.7	42.190	-0.110	0.130	0.280
2020/01/31 16:15:48.8	42.150	-0.170	0.140	0.270
2020/01/31 16:15:48.9	42.100	-0.220	0.160	0.260
2020/01/31 16:15:49.0	42.060	-0.270	0.180	0.240
2020/01/31 16:15:49.1	42.020	-0.310	0.190	0.230
2020/01/31 16:15:49.2	41.970	-0.360	0.210	0.210
2020/01/31 16:15:49.3	41.930	-0.400	0.220	0.190
2020/01/31 16:15:49.4	41.890	-0.430	0.230	0.160
2020/01/31 16:15:49.5	41.850	-0.460	0.240	0.140
2020/01/31 16:15:49.6	41.820	-0.490	0.250	0.110
2020/01/31 16:15:49.7	41.770	-0.510	0.250	0.080
2020/01/31 16:15:49.8	41.740	-0.530	0.250	0.050
2020/01/31 16:15:49.9	41.700	-0.540	0.240	0.020
2020/01/31 16:15:50.0	41.680	-0.550	0.240	-0.010
2020/01/31 16:15:50.1	41.650	-0.550	0.230	-0.040
2020/01/31 16:15:50.2	41.620	-0.550	0.210	-0.070
2020/01/31 16:15:50.3	41.600	-0.540	0.190	-0.100
2020/01/31 16:15:50.4	41.580	-0.530	0.170	-0.130
2020/01/31 16:15:50.5	41.560	-0.510	0.140	-0.160
2020/01/31 16:15:50.6	41.540	-0.500	0.110	-0.190
2020/01/31 16:15:50.7	41.520	-0.470	0.080	-0.230
2020/01/31 16:15:50.8	41.510	-0.450	0.040	-0.250
2020/01/31 16:15:50.9	41.500	-0.420	0.010	-0.280
2020/01/31 16:15:51.0	41.490	-0.390	-0.030	-0.310
2020/01/31 16:15:51.1	41.480	-0.360	-0.070	-0.330
2020/01/31 16:15:51.2	41.470	-0.320	-0.120	-0.360
2020/01/31 16:15:51.3	41.460	-0.290	-0.160	-0.380
2020/01/31 16:15:51.4	41.460	-0.250	-0.200	-0.400
2020/01/31 16:15:51.5	41.450	-0.220	-0.230	-0.410
2020/01/31 16:15:51.6	41.440	-0.180	-0.270	-0.430
2020/01/31 16:15:51.7	41.430	-0.150	-0.300	-0.450
2020/01/31 16:15:51.8	41.420	-0.110	-0.330	-0.460
2020/01/31 16:15:51.9	41.410	-0.080	-0.360	-0.460
2020/01/31 16:15:52.0	41.400	-0.050	-0.380	-0.470
2020/01/31 16:15:52.1	41.390	-0.030	-0.390	-0.470
2020/01/31 16:15:52.2	41.380	-0.000	-0.410	-0.470
2020/01/31 16:15:52.3	41.360	0.020	-0.410	-0.460
2020/01/31 16:15:52.4	41.350	0.040	-0.410	-0.450
2020/01/31 16:15:52.5	41.330	0.050	-0.410	-0.440
2020/01/31 16:15:52.6	41.310	0.060	-0.400	-0.420
2020/01/31 16:15:52.7	41.280	0.070	-0.380	-0.400
2020/01/31 16:15:52.8	41.260	0.080	-0.360	-0.380
2020/01/31 16:15:52.9	41.230	0.080	-0.330	-0.350
2020/01/31 16:15:53.0	41.210	0.080	-0.300	-0.320
2020/01/31 16:15:53.1	41.180	0.070	-0.270	-0.290
2020/01/31 16:15:53.2	41.150	0.060	-0.230	-0.250
2020/01/31 16:15:53.3	41.110	0.050	-0.190	-0.220
2020/01/31 16:15:53.4	41.080	0.040	-0.150	-0.180
2020/01/31 16:15:53.5	41.040	0.020	-0.110	-0.140
2020/01/31 16:15:53.6	41.010	0.010	-0.070	-0.100
2020/01/31 16:15:53.7	40.970	-0.010	-0.030	-0.060
2020/01/31 16:15:53.8	40.930	-0.030	0.010	-0.020
2020/01/31 16:15:53.9	40.890	-0.050	0.050	0.010
2020/01/31 16:15:54.0	40.850	-0.080	0.080	0.050
2020/01/31 16:15:54.1	40.820	-0.100	0.110	0.090
2020/01/31 16:15:54.2	40.780	-0.120	0.140	0.120
2020/01/31 16:15:54.3	40.740	-0.140	0.160	0.160
2020/01/31 16:15:54.4	40.700	-0.160	0.180	0.190
2020/01/31 16:15:54.5	40.660	-0.180	0.190	0.220
2020/01/31 16:15:54.6	40.620	-0.200	0.190	0.250
2020/01/31 16:15:54.7	40.570	-0.220	0.190	0.280
2020/01/31 16:15:54.8	40.530	-0.230	0.180	0.310
2020/01/31 16:15:54.9	40.490	-0.240	0.160	0.340
2020/01/31 16:15:55.0	40.440	-0.250	0.140	0.360
2020/01/31 16:15:55.1	40.400	-0.260	0.110	0.390
2020/01/31 16:15:55.2	40.350	-0.270	0.080	0.410
2020/01/31 16:15:55.3	40.300	-0.270	0.040	0.440
2020/01/31 16:15:55.4	40.260	-0.270	-0.000	0.460
2020/01/31 16:15:55.5	40.210	-0.270	-0.050	0.480
2020/01/31 16:15:55.6	40.160	-0.270	-0.110	0.500
2020/01/31 16:15:55.7	40.110	-0.260	-0.170	0.520
2020/01/31 16:15:55.8	40.060	-0.250	-0.220	0.530
2020/01/31 16:15:55.9	40.010	-0.240	-0.290	0.540
2020/01/31 16:15:56.0	39.960	-0.230	-0.350	0.550
2020/01/31 16:15:56.1	39.910	-0.210	-0.420	0.560
2020/01/31 16:15:56.2	39.860	-0.200	-0.480	0.560
2020/01/31 16:15:56.3	39.810	-0.180	-0.550	0.570
2020/01/31 16:15:56.4	39.760	-0.160	-0.610	0.560
2020/01/31 16:15:56.5	39.720	-0.140	-0.680	0.560
2020/01/31 16:15:56.6	39.670	-0.120	-0.740	0.550
2020/01/31 16:15:56.7	39.630	-0.100	-0.800	0.540
2020/01/31 16:15:56.8	39.590	-0.080	-0.860	0.520
2020/01/31 16:15:56.9	39.550	-0.060	-0.910	0.500
2020/01/31 16:15:57.0	39.510	-0.030	-0.960	0.480
2020/01/31 16:15:57.1	39.470	-0.010	-1.010	0.460
2020/01/31 16:15:57.2	39.430	0.010	-1.050	0.430
2020/01/31 16:15:57.3	39.400	0.030	-1.090	0.400
2020/01/31 16:15:57.4	39.370	0.060	-1.120	0.370
2020/01/31 16:15:57.5	39.340	0.080	-1.140	0.340
2020/01/31 16:15:57.6	39.310	0.100	-1.160	0.310
2020/01/31 16:15:57.7	39.270	0.120	-1.170	0.270
2020/01/31 16:15:57.8	39.240	0.140	-1.180	0.230
2020/01/31 16:15:57.9	39.220	0.160	-1.170	0.190
2020/01/31 16:15:58.0	39.190	0.180	-1.160	0.160
2020/01/31 16:15:58.1	39.170	0.200	-1.150	0.120
2020/01/31 16:15:58.2	39.150	0.220	-1.130	0.080
2020/01/31 16:15:58.3	39.130	0.240	-1.100	0.050
2020/01/31 16:15:58.4	39.110	0.260	-1.060	0.010
2020/01/31 16:15:58.5	39.100	0.270	-1.020	-0.020
2020/01/31 16:15:58.6	39.080	0.290	-0.970	-0.050
2020/01/31 16:15:58.7	39.070	0.310	-0.910	-0.080
2020/01/31 16:15:58.8	39.050	0.330	-0.860	-0.100
2020/01/31 16:15:58.9	39.040	0.340	-0.790	-0.120
2020/01/31 16:15:59.0	39.020	0.360	-0.720	-0.140
2020/01/31 16:15:59.1	39.010	0.380	-0.650	-0.160
2020/01/31 16:15:59.2	38.990	0.390	-0.570	-0.170
2020/01/31 16:15:59.3	38.970	0.410	-0.500	-0.170
2020/01/31 16:15:59.4	38.950	0.420	-0.420	-0.180
2020/01/31 16:15:59.5	38.940	0.430	-0.330	-0.180
2020/01/31 16:15:59.6	38.920	0.440	-0.250	-0.170
2020/01/31 16:15:59.7	38.890	0.460	-0.170	-0.170
2020/01/31 16:15:59.8	38.870	0.470	-0.090	-0.160
2020/01/31 16:15:59.9	38.850	0.470	-0.010	-0.150
2020/01/31 16:16:00.0	38.830	0.480	0.070	-0.130
2020/01/31 16:16:00.1	38.810	0.490	0.140	-0.120
2020/01/31 16:16:00.2	38.790	0.490	0.210	-0.100
2020/01/31 16:16:00.3	38.770	0.490	0.280	-0.080
2020/01/31 16:16:00.4	38.740	0.500	0.340	-0.070
2020/01/31 16:16:00.5	38.720	0.500	0.390	-0.050
2020/01/31 16:16:00.6	38.710	0.490	0.440	-0.030
2020/01/31 16:16:00.7	38.690	0.490	0.490	-0.010
2020/01/31 16:16:00.8	38.670	0.490	0.530	0.000
2020/01/31 16:16:00.9	38.650	0.480	0.560	0.020
2020/01/31 16:16:01.0	38.620	0.470	0.580	0.040
2020/01/31 16:16:01.1	38.600	0.460	0.600	0.050
2020/01/31 16:16:01.2	38.570	0.440	0.620	0.070
2020/01/31 16:16:01.3	38.550	0.430	0.620	0.080
2020/01/31 16:16:01.4	38.520	0.410	0.630	0.100
2020/01/31 16:16:01.5	38.490	0.390	0.620	0.110
2020/01/31 16:16:01.6	38.450	0.370	0.620	0.130
2020/01/31 16:16:01.7	38.420	0.350	0.600	0.140
2020/01/31 16:16:01.8	38.380	0.320	0.590	0.150
2020/01/31 16:16:01.9	38.340	0.290	0.580	0.160
2020/01/31 16:16:02.0	38.290	0.260	0.560	0.170
2020/01/31 16:16:02.1	38.240	0.230	0.540	0.180
2020/01/31 16:16:02.2	38.190	0.190	0.520	0.190
2020/01/31 16:16:02.3	38.130	0.160	0.500	0.210
2020/01/31 16:16:02.4	38.080	0.120	0.480	0.220
2020/01/31 16:16:02.5	38.010	0.080	0.460	0.230
2020/01/31 16:16:02.6	37.950	0.040	0.440	0.230
2020/01/31 16:16:02.7	37.870	-0.000	0.420	0.240
2020/01/31 16:16:02.8	37.800	-0.040	0.410	0.250
2020/01/31 16:16:02.9	37.730	-0.090	0.390	0.250
2020/01/31 16:16:03.0	37.660	-0.130	0.380	0.260
2020/01/31 16:16:03.1	37.590	-0.180	0.370	0.260
2020/01/31 16:16:03.2	37.520	-0.220	0.350	0.270
2020/01/31 16:16:03.3	37.450	-0.260	0.340	0.270
2020/01/31 16:16:03.4	37.380	-0.300	0.330	0.270
2020/01/31 16:16:03.5	37.310	-0.350	0.320	0.270
2020/01/31 16:16:03.6	37.240	-0.380	0.310	0.270
2020/01/31 16:16:03.7	37.180	-0.420	0.290	0.260
2020/01/31 16:16:03.8	37.120	-0.460	0.270	0.260
2020/01/31 16:16:03.9	37.060	-0.490	0.260	0.250
2020/01/31 16:16:04.0	37.010	-0.520	0.230	0.240
2020/01/31 16:16:04.1	36.960	-0.540	0.200	0.220
2020/01/31 16:16:04.2	36.920	-0.560	0.170	0.210
2020/01/31 16:16:04.3	36.880	-0.580	0.130	0.180
2020/01/31 16:16:04.4	36.850	-0.600	0.090	0.160
2020/01/31 16:16:04.5	36.820	-0.610	0.040	0.130
2020/01/31 16:16:04.6	36.800	-0.610	-0.010	0.100
2020/01/31 16:16:04.7	36.780	-0.610	-0.070	0.060
2020/01/31 16:16:04.8	36.770	-0.610	-0.130	0.020
2020/01/31 16:16:04.9	36.760	-0.600	-0.200	-0.020
2020/01/31 16:16:05.0	36.750	-0.590	-0.270	-0.060
2020/01/31 16:16:05.1	36.750	-0.570	-0.340	-0.110
2020/01/31 16:16:05.2	36.750	-0.550	-0.420	-0.150
2020/01/31 16:16:05.3	36.760	-0.530	-0.500	-0.200
2020/01/31 16:16:05.4	36.760	-0.500	-0.580	-0.250
2020/01/31 16:16:05.5	36.770	-0.480	-0.660	-0.290
2020/01/31 16:16:05.6	36.770	-0.450	-0.730	-0.330
2020/01/31 16:16:05.7	36.780	-0.410	-0.810	-0.380
2020/01/31 16:16:05.8	36.790	-0.380	-0.880	-0.420
2020/01/31 16:16:05.9	36.790	-0.350	-0.950	-0.460
2020/01/31 16:16:06.0	36.790	-0.320	-1.010	-0.490
2020/01/31 16:16:06.1	36.790	-0.280	-1.060	-0.530
2020/01/31 16:16:06.2	36.790	-0.250	-1.110	-0.560
2020/01/31 16:16:06.3	36.780	-0.220	-1.150	-0.590
2020/01/31 16:16:06.4	36.770	-0.190	-1.180	-0.610
2020/01/31 16:16:06.5	36.760	-0.160	-1.210	-0.630
2020/01/31 16:16:06.6	36.740	-0.130	-1.220	-0.640
2020/01/31 16:16:06.7	36.730	-0.110	-1.230	-0.650
2020/01/31 16:16:06.8	36.700	-0.080	-1.230	-0.650
2020/01/31 16:16:06.9	36.680	-0.060	-1.210	-0.650
2020/01/31 16:16:07.0	36.640	-0.040	-1.190	-0.650
2020/01/31 16:16:07.1	36.610	-0.030	-1.160	-0.640
2020/01/31 16:16:07.2	36.570	-0.010	-1.120	-0.620
2020/01/31 16:16:07.3	36.530	0.000	-1.080	-0.600
2020/01/31 16:16:07.4	36.490	0.010	-1.020	-0.580
2020/01/31 16:16:07.5	36.450	0.020	-0.960	-0.550
2020/01/31 16:16:07.6	36.400	0.020	-0.900	-0.520
2020/01/31 16:16:07.7	36.360	0.030	-0.820	-0.490
2020/01/31 16:16:07.8	36.310	0.030	-0.750	-0.450
2020/01/31 16:16:07.9	36.260	0.030	-0.670	-0.410
2020/01/31 16:16:08.0	36.200	0.030	-0.600	-0.370
2020/01/31 16:16:08.1	36.150	0.030	-0.520	-0.330
2020/01/31 16:16:08.2	36.100	0.030	-0.440	-0.290
2020/01/31 16:16:08.3	36.050	0.030	-0.360	-0.250
2020/01/31 16:16:08.4	36.000	0.030	-0.290	-0.210
2020/01/31 16:16:08.5	35.950	0.020	-0.220	-0.170
2020/01/31 16:16:08.6	35.900	0.020	-0.150	-0.130
2020/01/31 16:16:08.7	35.860	0.020	-0.090	-0.090
2020/01/31 16:16:08.8	35.810	0.020	-0.030	-0.050
2020/01/31 16:16:08.9	35.770	0.030	0.020	-0.020
2020/01/31 16:16:09.0	35.730	0.030	0.060	0.010
2020/01/31 16:16:09.1	35.690	0.040	0.100	0.050
2020/01/31 16:16:09.2	35.650	0.040	0.130	0.080
2020/01/31 16:16:09.3	35.620	0.050	0.150	0.110
2020/01/31 16:16:09.4	35.580	0.060	0.160	0.130
2020/01/31 16:16:09.5	35.550	0.080	0.170	0.160
2020/01/31 16:16:09.6	35.510	0.090	0.170	0.190
2020/01/31 16:16:09.7	35.480	0.110	0.160	0.210
2020/01/31 16:16:09.8	35.450	0.120	0.150	0.230
2020/01/31 16:16:09.9	35.420	0.140	0.130	0.250
2020/01/31 16:16:10.0	35.390	0.160	0.110	0.270
2020/01/31 16:16:10.1	35.360	0.180	0.080	0.290
2020/01/31 16:16:10.2	35.340	0.200	0.050	0.310
2020/01/31 16:16:10.3	35.310	0.220	0.010	0.320
2020/01/31 16:16:10.4	35.280	0.250	-0.020	0.330
2020/01/31 16:16:10.5	35.260	0.270	-0.060	0.340
2020/01/31 16:16:10.6	35.230	0.290	-0.100	0.350
2020/01/31 16:16:10.7	35.210	0.310	-0.140	0.350
2020/01/31 16:16:10.8	35.190	0.330	-0.180	0.360
2020/01/31 16:16:10.9	35.160	0.350	-0.210	0.360
2020/01/31 16:16:11.0	35.130	0.360	-0.240	0.360
2020/01/31 16:16:11.1	35.100	0.380	-0.270	0.350
2020/01/31 16:16:11.2	35.070	0.390	-0.300	0.350
2020/01/31 16:16:11.3	35.040	0.400	-0.320	0.350
2020/01/31 16:16:11.4	35.010	0.400	-0.330	0.340
2020/01/31 16:16:11.5	34.970	0.410	-0.340	0.340
2020/01/31 16:16:11.6	34.930	0.410	-0.340	0.330
2020/01/31 16:16:11.7	34.890	0.410	-0.330	0.320
2020/01/31 16:16:11.8	34.850	0.410	-0.320	0.320
2020/01/31 16:16:11.9	34.800	0.400	-0.300	0.320
2020/01/31 16:16:12.0	34.760	0.390	-0.280	0.320
2020/01/31 16:16:12.1	34.710	0.380	-0.240	0.320
2020/01/31 16:16:12.2	34.660	0.360	-0.200	0.320
2020/01/31 16:16:12.3	34.600	0.340	-0.160	0.320
2020/01/31 16:16:12.4	34.540	0.320	-0.110	0.320
2020/01/31 16:16:12.5	34.480	0.300	-0.050	0.330
2020/01/31 16:16:12.6	34.420	0.270	0.010	0.340
2020/01/31 16:16:12.7	34.350	0.240	0.070	0.340
2020/01/31 16:16:12.8	34.280	0.210	0.130	0.350
2020/01/31 16:16:12.9	34.220	0.180	0.200	0.360
2020/01/31 16:16:13.0	34.150	0.140	0.260	0.370
2020/01/31 16:16:13.1	34.090	0.110	0.320	0.380
2020/01/31 16:16:13.2	34.020	0.070	0.380	0.390
2020/01/31 16:16:13.3	33.960	0.030	0.440	0.400
2020/01/31 16:16:13.4	33.900	-0.000	0.490	0.400
2020/01/31 16:16:13.5	33.840	-0.040	0.540	0.410
2020/01/31 16:16:13.6	33.780	-0.070	0.580	0.410
2020/01/31 16:16:13.7	33.730	-0.110	0.610	0.400
2020/01/31 16:16:13.8	33.680	-0.140	0.630	0.400
2020/01/31 16:16:13.9	33.630	-0.170	0.650	0.390
2020/01/31 16:16:14.0	33.590	-0.200	0.650	0.370
2020/01/31 16:16:14.1	33.550	-0.230	0.650	0.350
2020/01/31 16:16:14.2	33.510	-0.250	0.640	0.330
2020/01/31 16:16:14.3	33.470	-0.270	0.620	0.300
2020/01/31 16:16:14.4	33.440	-0.280	0.580	0.270
2020/01/31 16:16:14.5	33.420	-0.300	0.540	0.240
2020/01/31 16:16:14.6	33.390	-0.310	0.490	0.200
2020/01/31 16:16:14.7	33.370	-0.310	0.430	0.160
2020/01/31 16:16:14.8	33.350	-0.310	0.370	0.120
2020/01/31 16:16:14.9	33.340	-0.310	0.290	0.070
2020/01/31 16:16:15.0	33.320	-0.300	0.220	0.030
2020/01/31 16:16:15.1	33.310	-0.290	0.130	-0.010
2020/01/31 16:16:15.2	33.290	-0.280	0.040	-0.050
2020/01/31 16:16:15.3	33.280	-0.260	-0.050	-0.090
2020/01/31 16:16:15.4	33.270	-0.240	-0.140	-0.130
2020/01/31 16:16:15.5	33.260	-0.220	-0.230	-0.170
2020/01/31 16:16:15.6	33.250	-0.190	-0.330	-0.200
2020/01/31 16:16:15.7	33.240	-0.170	-0.420	-0.240
2020/01/31 16:16:15.8	33.240	-0.140	-0.510	-0.270
2020/01/31 16:16:15.9	33.230	-0.110	-0.600	-0.300
2020/01/31 16:16:16.0	33.220	-0.080	-0.680	-0.330
2020/01/31 16:16:16.1	33.220	-0.050	-0.760	-0.350
2020/01/31 16:16:16.2	33.210	-0.020	-0.840	-0.370
2020/01/31 16:16:16.3	33.200	0.010	-0.900	-0.390
2020/01/31 16:16:16.4	33.200	0.040	-0.970	-0.410
2020/01/31 16:16:16.5	33.190	0.060	-1.020	-0.420
2020/01/31 16:16:16.6	33.190	0.090	-1.070	-0.440
2020/01/31 16:16:16.7	33.170	0.110	-1.110	-0.450
2020/01/31 16:16:16.8	33.170	0.130	-1.140	-0.450
2020/01/31 16:16:16.9	33.160	0.150	-1.160	-0.460
2020/01/31 16:16:17.0	33.160	0.170	-1.180	-0.460
2020/01/31 16:16:17.1	33.150	0.180	-1.190	-0.450
2020/01/31 16:16:17.2	33.140	0.190	-1.190	-0.450
2020/01/31 16:16:17.3	33.140	0.200	-1.180	-0.440
2020/01/31 16:16:17.4	33.130	0.200	-1.160	-0.420
2020/01/31 16:16:17.5	33.120	0.200	-1.140	-0.410
2020/01/31 16:16:17.6	33.110	0.200	-1.110	-0.390
2020/01/31 16:16:17.7	33.110	0.190	-1.070	-0.370
2020/01/31 16:16:17.8	33.090	0.180	-1.030	-0.340
2020/01/31 16:16:17.9	33.080	0.170	-0.980	-0.320
2020/01/31 16:16:18.0	33.060	0.150	-0.920	-0.290
2020/01/31 16:16:18.1	33.030	0.130	-0.860	-0.260
2020/01/31 16:16:18.2	33.010	0.110	-0.790	-0.230
2020/01/31 16:16:18.3	32.980	0.080	-0.720	-0.190
2020/01/31 16:16:18.4	32.950	0.060	-0.650	-0.150
2020/01/31 16:16:18.5	32.910	0.030	-0.570	-0.120
2020/01/31 16:16:18.6	32.870	-0.010	-0.490	-0.080
2020/01/31 16:16:18.7	32.830	-0.040	-0.400	-0.040
2020/01/31 16:16:18.8	32.780	-0.080	-0.320	0.000
2020/01/31 16:16:18.9	32.740	-0.110	-0.230	0.040
2020/01/31 16:16:19.0	32.690	-0.150	-0.150	0.080
2020/01/31 16:16:19.1	32.640	-0.190	-0.060	0.120
2020/01/31 16:16:19.2	32.590	-0.230	0.020	0.160
2020/01/31 16:16:19.3	32.530	-0.260	0.090	0.200
2020/01/31 16:16:19.4	32.480	-0.300	0.170	0.230
2020/01/31 16:16:19.5	32.430	-0.330	0.240	0.260
2020/01/31 16:16:19.6	32.370	-0.370	0.300	0.290
2020/01/31 16:16:19.7	32.310	-0.400	0.360	0.320
2020/01/31 16:16:19.8	32.260	-0.430	0.410	0.350
2020/01/31 16:16:19.9	32.200	-0.450	0.460	0.370
2020/01/31 16:16:20.0	32.150	-0.480	0.490	0.390
2020/01/31 16:16:20.1	32.100	-0.490	0.520	0.420
2020/01/31 16:16:20.2	32.040	-0.510	0.550	0.440
2020/01/31 16:16:20.3	31.990	-0.520	0.560	0.450
2020/01/31 16:16:20.4	31.940	-0.530	0.570	0.460
2020/01/31 16:16:20.5	31.890	-0.530	0.570	0.480
2020/01/31 16:16:20.6	31.840	-0.530	0.560	0.480
2020/01/31 16:16:20.7	31.800	-0.520	0.540	0.490
2020/01/31 16:16:20.8	31.750	-0.510	0.510	0.490
2020/01/31 16:16:20.9	31.710	-0.490	0.480	0.490
2020/01/31 16:16:21.0	31.670	-0.470	0.450	0.490
2020/01/31 16:16:21.1	31.620	-0.440	0.400	0.490
2020/01/31 16:16:21.2	31.580	-0.410	0.360	0.490
2020/01/31 16:16:21.3	31.540	-0.380	0.300	0.480
2020/01/31 16:16:21.4	31.500	-0.340	0.250	0.470
2020/01/31 16:16:21.5	31.460	-0.300	0.200	0.470
2020/01/31 16:16:21.6	31.420	-0.260	0.140	0.460
2020/01/31 16:16:21.7	31.380	-0.210	0.080	0.450
2020/01/31 16:16:21.8	31.340	-0.160	0.030	0.440
2020/01/31 16:16:21.9	31.300	-0.110	-0.020	0.430
2020/01/31 16:16:22.0	31.260	-0.060	-0.080	0.420
2020/01/31 16:16:22.1	31.220	-0.010	-0.130	0.410
2020/01/31 16:16:22.2	31.180	0.050	-0.170	0.400
2020/01/31 16:16:22.3	31.140	0.100	-0.220	0.400
2020/01/31 16:16:22.4	31.100	0.150	-0.260	0.390
2020/01/31 16:16:22.5	31.050	0.210	-0.290	0.380
2020/01/31 16:16:22.6	31.010	0.260	-0.320	0.380
2020/01/31 16:16:22.7	30.970	0.310	-0.350	0.380
2020/01/31 16:16:22.8	30.930	0.360	-0.370	0.380
2020/01/31 16:16:22.9	30.880	0.410	-0.390	0.390
2020/01/31 16:16:23.0	30.830	0.450	-0.410	0.390
2020/01/31 16:16:23.1	30.770	0.500	-0.420	0.410
2020/01/31 16:16:23.2	30.720	0.540	-0.430	0.420
2020/01/31 16:16:23.3	30.660	0.570	-0.430	0.440
2020/01/31 16:16:23.4	30.600	0.600	-0.430	0.450
2020/01/31 16:16:23.5	30.540	0.630	-0.440	0.470
2020/01/31 16:16:23.6	30.480	0.650	-0.430	0.500
2020/01/31 16:16:23.7	30.430	0.670	-0.430	0.520
2020/01/31 16:16:23.8	30.370	0.690	-0.430	0.540
2020/01/31 16:16:23.9	30.310	0.700	-0.430	0.560
2020/01/31 16:16:24.0	30.250	0.710	-0.430	0.570
2020/01/31 16:16:24.1	30.190	0.710	-0.430	0.590
2020/01/31 16:16:24.2	30.140	0.710	-0.430	0.600
2020/01/31 16:16:24.3	30.090	0.700	-0.430	0.600
2020/01/31 16:16:24.4	30.050	0.690	-0.440	0.600
2020/01/31 16:16:24.5	30.000	0.680	-0.450	0.590
2020/01/31 16:16:24.6	29.970	0.660	-0.460	0.580
2020/01/31 16:16:24.7	29.930	0.640	-0.470	0.560
2020/01/31 16:16:24.8	29.900	0.620	-0.490	0.530
2020/01/31 16:16:24.9	29.880	0.590	-0.500	0.500
2020/01/31 16:16:25.0	29.860	0.570	-0.520	0.460
2020/01/31 16:16:25.1	29.850	0.540	-0.550	0.410
2020/01/31 16:16:25.2	29.850	0.510	-0.570	0.350
2020/01/31 16:16:25.3	29.840	0.470	-0.600	0.290
2020/01/31 16:16:25.4	29.850	0.440	-0.630	0.220
2020/01/31 16:16:25.5	29.860	0.400	-0.660	0.150
2020/01/31 16:16:25.6	29.870	0.370	-0.680	0.070
2020/01/31 16:16:25.7	29.880	0.330	-0.710	-0.010
2020/01/31 16:16:25.8	29.900	0.290	-0.730	-0.100
2020/01/31 16:16:25.9	29.920	0.260	-0.760	-0.180
2020/01/31 16:16:26.0	29.950	0.220	-0.780	-0.260
2020/01/31 16:16:26.1	29.980	0.180	-0.800	-0.340
2020/01/31 16:16:26.2	30.010	0.140	-0.810	-0.420
2020/01/31 16:16:26.3	30.040	0.100	-0.820	-0.500
2020/01/31 16:16:26.4	30.070	0.070	-0.820	-0.570
2020/01/31 16:16:26.5	30.110	0.030	-0.810	-0.640
2020/01/31 16:16:26.6	30.140	-0.010	-0.800	-0.700
2020/01/31 16:16:26.7	30.160	-0.050	-0.770	-0.760
2020/01/31 16:16:26.8	30.190	-0.080	-0.750	-0.820
2020/01/31 16:16:26.9	30.220	-0.120	-0.710	-0.860
2020/01/31 16:16:27.0	30.240	-0.160	-0.660	-0.900
2020/01/31 16:16:27.1	30.260	-0.190	-0.610	-0.930
2020/01/31 16:16:27.2	30.280	-0.230	-0.550	-0.960
2020/01/31 16:16:27.3	30.300	-0.260	-0.490	-0.980
2020/01/31 16:16:27.4	30.310	-0.290	-0.420	-1.000
2020/01/31 16:16:27.5	30.320	-0.330	-0.340	-1.010
2020/01/31 16:16:27.6	30.320	-0.360	-0.260	-1.010
2020/01/31 16:16:27.7	30.320	-0.390	-0.180	-1.010
2020/01/31 16:16:27.8	30.310	-0.420	-0.100	-1.000
2020/01/31 16:16:27.9	30.300	-0.440	-0.010	-0.980
2020/01/31 16:16:28.0	30.280	-0.470	0.080	-0.960
2020/01/31 16:16:28.1	30.260	-0.490	0.170	-0.930
2020/01/31 16:16:28.2	30.230	-0.510	0.250	-0.900
2020/01/31 16:16:28.3	30.190	-0.530	0.340	-0.850
2020/01/31 16:16:28.4	30.150	-0.550	0.420	-0.810
2020/01/31 16:16:28.5	30.100	-0.570	0.500	-0.760
2020/01/31 16:16:28.6	30.040	-0.580	0.580	-0.700
2020/01/31 16:16:28.7	29.980	-0.590	0.650	-0.640
2020/01/31 16:16:28.8	29.910	-0.600	0.720	-0.570
2020/01/31 16:16:28.9	29.840	-0.610	0.780	-0.500
2020/01/31 16:16:29.0	29.770	-0.620	0.840	-0.430
2020/01/31 16:16:29.1	29.690	-0.620	0.880	-0.360
2020/01/31 16:16:29.2	29.610	-0.620	0.920	-0.290
2020/01/31 16:16:29.3	29.530	-0.620	0.950	-0.210
2020/01/31 16:16:29.4	29.440	-0.620	0.980	-0.130
2020/01/31 16:16:29.5	29.350	-0.620	0.990	-0.060
2020/01/31 16:16:29.6	29.260	-0.610	1.000	0.020
2020/01/31 16:16:29.7	29.170	-0.610	0.990	0.090
2020/01/31 16:16:29.8	29.080	-0.600	0.980	0.160
2020/01/31 16:16:29.9	28.990	-0.590	0.960	0.230
2020/01/31 16:16:30.0	28.900	-0.580	0.930	0.290
2020/01/31 16:16:30.1	28.810	-0.560	0.900	0.350
2020/01/31 16:16:30.2	28.720	-0.550	0.850	0.400
2020/01/31 16:16:30.3	28.630	-0.530	0.800	0.440
2020/01/31 16:16:30.4	28.550	-0.510	0.740	0.490
2020/01/31 16:16:30.5	28.460	-0.490	0.680	0.520
2020/01/31 16:16:30.6	28.380	-0.470	0.600	0.550
2020/01/31 16:16:30.7	28.300	-0.440	0.530	0.570
2020/01/31 16:16:30.8	28.220	-0.420	0.440	0.590
2020/01/31 16:16:30.9	28.150	-0.390	0.350	0.590
2020/01/31 16:16:31.0	28.080	-0.360	0.260	0.600
2020/01/31 16:16:31.1	28.010	-0.320	0.160	0.590
2020/01/31 16:16:31.2	27.950	-0.290	0.060	0.580
2020/01/31 16:16:31.3	27.890	-0.250	-0.050	0.570
2020/01/31 16:16:31.4	27.830	-0.210	-0.160	0.550
2020/01/31 16:16:31.5	27.780	-0.170	-0.260	0.530
2020/01/31 16:16:31.6	27.730	-0.130	-0.370	0.500
2020/01/31 16:16:31.7	27.700	-0.090	-0.480	0.470
2020/01/31 16:16:31.8	27.670	-0.040	-0.590	0.440
2020/01/31 16:16:31.9	27.630	0.010	-0.700	0.410
2020/01/31 16:16:32.0	27.610	0.060	-0.800	0.370
2020/01/31 16:16:32.1	27.580	0.110	-0.900	0.330
2020/01/31 16:16:32.2	27.570	0.160	-1.000	0.290
2020/01/31 16:16:32.3	27.550	0.210	-1.090	0.260
2020/01/31 16:16:32.4	27.550	0.260	-1.170	0.220
2020/01/31 16:16:32.5	27.540	0.310	-1.250	0.180
2020/01/31 16:16:32.6	27.540	0.370	-1.320	0.140
2020/01/31 16:16:32.7	27.540	0.420	-1.390	0.100
2020/01/31 16:16:32.8	27.550	0.460	-1.440	0.060
2020/01/31 16:16:32.9	27.550	0.510	-1.480	0.020
2020/01/31 16:16:33.0	27.570	0.560	-1.520	-0.010
2020/01/31 16:16:33.1	27.580	0.600	-1.540	-0.050
2020/01/31 16:16:33.2	27.590	0.640	-1.560	-0.080
2020/01/31 16:16:33.3	27.610	0.670	-1.560	-0.110
2020/01/31 16:16:33.4	27.630	0.700	-1.550	-0.140
2020/01/31 16:16:33.5	27.640	0.730	-1.530	-0.160
2020/01/31 16:16:33.6	27.660	0.750	-1.500	-0.180
2020/01/31 16:16:33.7	27.670	0.770	-1.460	-0.210
2020/01/31 16:16:33.8	27.690	0.780	-1.410	-0.220
2020/01/31 16:16:33.9	27.700	0.790	-1.350	-0.240
2020/01/31 16:16:34.0	27.710	0.790	-1.280	-0.250
2020/01/31 16:16:34.1	27.720	0.790	-1.200	-0.260
2020/01/31 16:16:34.2	27.730	0.780	-1.110	-0.260
2020/01/31 16:16:34.3	27.740	0.770	-1.020	-0.260
2020/01/31 16:16:34.4	27.750	0.750	-0.920	-0.250
2020/01/31 16:16:34.5	27.750	0.730	-0.820	-0.240
2020/01/31 16:16:34.6	27.750	0.700	-0.720	-0.230
2020/01/31 16:16:34.7	27.740	0.660	-0.610	-0.210
2020/01/31 16:16:34.8	27.740	0.630	-0.500	-0.190
2020/01/31 16:16:34.9	27.730	0.590	-0.390	-0.170
2020/01/31 16:16:35.0	27.720	0.540	-0.280	-0.140
2020/01/31 16:16:35.1	27.700	0.490	-0.170	-0.110
2020/01/31 16:16:35.2	27.690	0.440	-0.070	-0.080
2020/01/31 16:16:35.3	27.670	0.390	0.030	-0.050
2020/01/31 16:16:35.4	27.650	0.330	0.120	-0.010
2020/01/31 16:16:35.5	27.630	0.270	0.210	0.020
2020/01/31 16:16:35.6	27.600	0.210	0.290	0.060
2020/01/31 16:16:35.7	27.580	0.150	0.370	0.090
2020/01/31 16:16:35.8	27.550	0.090	0.430	0.120
2020/01/31 16:16:35.9	27.530	0.030	0.490	0.150
2020/01/31 16:16:36.0	27.500	-0.030	0.540	0.180
2020/01/31 16:16:36.1	27.470	-0.090	0.580	0.200
2020/01/31 16:16:36.2	27.430	-0.150	0.610	0.220
2020/01/31 16:16:36.3	27.400	-0.200	0.630	0.240
2020/01/31 16:16:36.4	27.360	-0.260	0.650	0.250
2020/01/31 16:16:36.5	27.330	-0.310	0.650	0.260
2020/01/31 16:16:36.6	27.290	-0.360	0.650	0.270
2020/01/31 16:16:36.7	27.240	-0.400	0.640	0.270
2020/01/31 16:16:36.8	27.200	-0.450	0.630	0.270
2020/01/31 16:16:36.9	27.160	-0.480	0.610	0.270
2020/01/31 16:16:37.0	27.120	-0.520	0.580	0.270
2020/01/31 16:16:37.1	27.080	-0.550	0.550	0.260
2020/01/31 16:16:37.2	27.030	-0.570	0.510	0.250
2020/01/31 16:16:37.3	26.990	-0.600	0.470	0.240
2020/01/31 16:16:37.4	26.940	-0.610	0.430	0.230
2020/01/31 16:16:37.5	26.890	-0.620	0.390	0.210
2020/01/31 16:16:37.6	26.840	-0.630	0.350	0.200
2020/01/31 16:16:37.7	26.770	-0.640	0.310	0.180
2020/01/31 16:16:37.8	26.720	-0.640	0.260	0.170
2020/01/31 16:16:37.9	26.660	-0.630	0.220	0.160
2020/01/31 16:16:38.0	26.600	-0.620	0.170	0.150
2020/01/31 16:16:38.1	26.540	-0.610	0.130	0.140
2020/01/31 16:16:38.2	26.480	-0.600	0.090	0.130
2020/01/31 16:16:38.3	26.420	-0.580	0.050	0.120
2020/01/31 16:16:38.4	26.360	-0.560	0.010	0.110
2020/01/31 16:16:38.5	26.290	-0.530	-0.030	0.110
2020/01/31 16:16:38.6	26.230	-0.510	-0.070	0.100
2020/01/31 16:16:38.7	26.160	-0.480	-0.100	0.100
2020/01/31 16:16:38.8	26.100	-0.450	-0.130	0.090
2020/01/31 16:16:38.9	26.030	-0.420	-0.160	0.090
2020/01/31 16:16:39.0	25.970	-0.390	-0.190	0.080
2020/01/31 16:16:39.1	25.900	-0.350	-0.220	0.080
2020/01/31 16:16:39.2	25.840	-0.320	-0.240	0.080
2020/01/31 16:16:39.3	25.780	-0.290	-0.270	0.070
2020/01/31 16:16:39.4	25.720	-0.250	-0.290	0.070
2020/01/31 16:16:39.5	25.660	-0.220	-0.310	0.060
2020/01/31 16:16:39.6	25.600	-0.180	-0.320	0.050
2020/01/31 16:16:39.7	25.550	-0.150	-0.340	0.050
2020/01/31 16:16:39.8	25.500	-0.120	-0.350	0.040
2020/01/31 16:16:39.9	25.440	-0.080	-0.370	0.040
2020/01/31 16:16:40.0	25.390	-0.050	-0.380	0.030
2020/01/31 16:16:40.1	25.350	-0.020	-0.390	0.020
2020/01/31 16:16:40.2	25.300	0.010	-0.400	0.010
2020/01/31 16:16:40.3	25.260	0.040	-0.410	0.000
2020/01/31 16:16:40.4	25.220	0.070	-0.420	-0.010
2020/01/31 16:16:40.5	25.180	0.100	-0.420	-0.010
2020/01/31 16:16:40.6	25.150	0.130	-0.430	-0.020
2020/01/31 16:16:40.7	25.110	0.160	-0.440	-0.030
2020/01/31 16:16:40.8	25.080	0.190	-0.450	-0.040
2020/01/31 16:16:40.9	25.050	0.220	-0.460	-0.050
2020/01/31 16:16:41.0	25.030	0.250	-0.470	-0.060
2020/01/31 16:16:41.1	25.010	0.280	-0.480	-0.070
2020/01/31 16:16:41.2	25.000	0.310	-0.490	-0.070
2020/01/31 16:16:41.3	24.980	0.340	-0.500	-0.080
2020/01/31 16:16:41.4	24.980	0.370	-0.510	-0.090
2020/01/31 16:16:41.5	24.970	0.400	-0.520	-0.090
2020/01/31 16:16:41.6	24.970	0.430	-0.530	-0.100
2020/01/31 16:16:41.7	24.970	0.460	-0.540	-0.110
2020/01/31 16:16:41.8	24.970	0.480	-0.550	-0.110
2020/01/31 16:16:41.9	24.980	0.510	-0.560	-0.120
2020/01/31 16:16:42.0	24.990	0.540	-0.570	-0.130
2020/01/31 16:16:42.1	24.990	0.560	-0.580	-0.130
2020/01/31 16:16:42.2	25.000	0.580	-0.580	-0.130
2020/01/31 16:16:42.3	25.020	0.600	-0.590	-0.140
2020/01/31 16:16:42.4	25.030	0.620	-0.590	-0.130
2020/01/31 16:16:42.5	25.030	0.640	-0.590	-0.130
2020/01/31 16:16:42.6	25.040	0.650	-0.580	-0.130
2020/01/31 16:16:42.7	25.050	0.660	-0.570	-0.120
2020/01/31 16:16:42.8	25.050	0.660	-0.560	-0.110
2020/01/31 16:16:42.9	25.050	0.670	-0.540	-0.090
2020/01/31 16:16:43.0	25.050	0.660	-0.520	-0.080
2020/01/31 16:16:43.1	25.040	0.660	-0.500	-0.060
2020/01/31 16:16:43.2	25.030	0.640	-0.470	-0.040
2020/01/31 16:16:43.3	25.010	0.630	-0.430	-0.020
2020/01/31 16:16:43.4	24.990	0.600	-0.400	0.000
2020/01/31 16:16:43.5	24.970	0.570	-0.350	0.030
2020/01/31 16:16:43.6	24.940	0.540	-0.310	0.050
2020/01/31 16:16:43.7	24.910	0.500	-0.260	0.080
2020/01/31 16:16:43.8	24.880	0.460	-0.210	0.100
2020/01/31 16:16:43.9	24.840	0.410	-0.150	0.120
2020/01/31 16:16:44.0	24.800	0.350	-0.100	0.140
2020/01/31 16:16:44.1	24.760	0.290	-0.040	0.160
2020/01/31 16:16:44.2	24.710	0.230	0.010	0.180
2020/01/31 16:16:44.3	24.660	0.170	0.070	0.200
2020/01/31 16:16:44.4	24.620	0.100	0.120	0.210
2020/01/31 16:16:44.5	24.560	0.020	0.170	0.230
2020/01/31 16:16:44.6	24.510	-0.050	0.230	0.240
2020/01/31 16:16:44.7	24.460	-0.130	0.270	0.250
2020/01/31 16:16:44.8	24.410	-0.210	0.310	0.250
2020/01/31 16:16:44.9	24.360	-0.280	0.350	0.260
2020/01/31 16:16:45.0	24.300	-0.360	0.390	0.260
2020/01/31 16:16:45.1	24.250	-0.440	0.420	0.250
2020/01/31 16:16:45.2	24.200	-0.510	0.440	0.250
2020/01/31 16:16:45.3	24.140	-0.590	0.460	0.240
2020/01/31 16:16:45.4	24.090	-0.650	0.470	0.230
2020/01/31 16:16:45.5	24.050	-0.720	0.470	0.210
2020/01/31 16:16:45.6	24.000	-0.780	0.470	0.190
2020/01/31 16:16:45.7	23.960	-0.840	0.460	0.170
2020/01/31 16:16:45.8	23.910	-0.890	0.440	0.140
2020/01/31 16:16:45.9	23.880	-0.940	0.420	0.110
2020/01/31 16:16:46.0	23.840	-0.980	0.390	0.080
2020/01/31 16:16:46.1	23.800	-1.010	0.360	0.040
2020/01/31 16:16:46.2	23.770	-1.030	0.320	0.010
2020/01/31 16:16:46.3	23.740	-1.050	0.280	-0.030
2020/01/31 16:16:46.4	23.710	-1.060	0.230	-0.070
2020/01/31 16:16:46.5	23.680	-1.070	0.180	-0.100
2020/01/31 16:16:46.6	23.650	-1.060	0.120	-0.140
2020/01/31 16:16:46.7	23.610	-1.050	0.070	-0.180
2020/01/31 16:16:46.8	23.580	-1.030	0.010	-0.210
2020/01/31 16:16:46.9	23.540	-1.010	-0.040	-0.240
2020/01/31 16:16:47.0	23.510	-0.970	-0.100	-0.260
2020/01/31 16:16:47.1	23.470	-0.930	-0.150	-0.280
2020/01/31 16:16:47.2	23.430	-0.890	-0.200	-0.300
2020/01/31 16:16:47.3	23.390	-0.840	-0.250	-0.310
2020/01/31 16:16:47.4	23.350	-0.780	-0.300	-0.320
2020/01/31 16:16:47.5	23.310	-0.720	-0.340	-0.330
2020/01/31 16:16:47.6	23.270	-0.660	-0.380	-0.330
2020/01/31 16:16:47.7	23.210	-0.590	-0.420	-0.330
2020/01/31 16:16:47.8	23.170	-0.520	-0.450	-0.330
2020/01/31 16:16:47.9	23.120	-0.450	-0.480	-0.330
2020/01/31 16:16:48.0	23.080	-0.380	-0.510	-0.320
2020/01/31 16:16:48.1	23.030	-0.310	-0.530	-0.300
2020/01/31 16:16:48.2	22.980	-0.230	-0.550	-0.290
2020/01/31 16:16:48.3	22.940	-0.160	-0.570	-0.270
2020/01/31 16:16:48.4	22.890	-0.080	-0.580	-0.250
2020/01/31 16:16:48.5	22.850	-0.010	-0.590	-0.220
2020/01/31 16:16:48.6	22.800	0.060	-0.590	-0.190
2020/01/31 16:16:48.7	22.750	0.130	-0.590	-0.160
2020/01/31 16:16:48.8	22.700	0.200	-0.590	-0.120
2020/01/31 16:16:48.9	22.660	0.270	-0.590	-0.080
2020/01/31 16:16:49.0	22.620	0.330	-0.590	-0.040
2020/01/31 16:16:49.1	22.570	0.390	-0.580	0.010
2020/01/31 16:16:49.2	22.530	0.450	-0.570	0.050
2020/01/31 16:16:49.3	22.490	0.500	-0.560	0.100
2020/01/31 16:16:49.4	22.450	0.550	-0.550	0.150
2020/01/31 16:16:49.5	22.420	0.600	-0.540	0.200
2020/01/31 16:16:49.6	22.380	0.640	-0.530	0.250
2020/01/31 16:16:49.7	22.330	0.680	-0.520	0.300
2020/01/31 16:16:49.8	22.300	0.720	-0.510	0.350
2020/01/31 16:16:49.9	22.270	0.750	-0.510	0.400
2020/01/31 16:16:50.0	22.230	0.780	-0.500	0.450
2020/01/31 16:16:50.1	22.200	0.800	-0.490	0.500
2020/01/31 16:16:50.2	22.170	0.820	-0.480	0.550
2020/01/31 16:16:50.3	22.140	0.840	-0.480	0.600
2020/01/31 16:16:50.4	22.110	0.850	-0.470	0.640
2020/01/31 16:16:50.5	22.080	0.850	-0.470	0.680
2020/01/31 16:16:50.6	22.050	0.860	-0.460	0.720
2020/01/31 16:16:50.7	22.020	0.860	-0.460	0.760
2020/01/31 16:16:50.8	21.990	0.850	-0.450	0.800
2020/01/31 16:16:50.9	21.960	0.840	-0.450	0.830
2020/01/31 16:16:51.0	21.920	0.830	-0.440	0.860
2020/01/31 16:16:51.1	21.890	0.810	-0.430	0.880
2020/01/31 16:16:51.2	21.860	0.790	-0.420	0.910
2020/01/31 16:16:51.3	21.820	0.770	-0.410	0.920
2020/01/31 16:16:51.4	21.780	0.740	-0.390	0.940
2020/01/31 16:16:51.5	21.740	0.710	-0.370	0.950
2020/01/31 16:16:51.6	21.700	0.680	-0.350	0.960
2020/01/31 16:16:51.7	21.660	0.640	-0.330	0.960
2020/01/31 16:16:51.8	21.610	0.600	-0.310	0.960
2020/01/31 16:16:51.9	21.560	0.560	-0.280	0.960
2020/01/31 16:16:52.0	21.510	0.510	-0.260	0.950
2020/01/31 16:16:52.1	21.460	0.460	-0.230	0.940
2020/01/31 16:16:52.2	21.410	0.410	-0.200	0.920
2020/01/31 16:16:52.3	21.360	0.360	-0.170	0.900
2020/01/31 16:16:52.4	21.310	0.310	-0.140	0.870
2020/01/31 16:16:52.5	21.260	0.260	-0.110	0.840
2020/01/31 16:16:52.6	21.200	0.200	-0.080	0.800
2020/01/31 16:16:52.7	21.150	0.150	-0.050	0.750
2020/01/31 16:16:52.8	21.100	0.090	-0.030	0.710
2020/01/31 16:16:52.9	21.050	0.030	-0.000	0.660
2020/01/31 16:16:53.0	21.000	-0.020	0.020	0.600
2020/01/31 16:16:53.1	20.960	-0.080	0.040	0.540
2020/01/31 16:16:53.2	20.920	-0.130	0.050	0.480
2020/01/31 16:16:53.3	20.880	-0.180	0.070	0.410
2020/01/31 16:16:53.4	20.840	-0.230	0.080	0.340
2020/01/31 16:16:53.5	20.810	-0.280	0.080	0.270
2020/01/31 16:16:53.6	20.780	-0.330	0.090	0.190
2020/01/31 16:16:53.7	20.750	-0.380	0.090	0.110
2020/01/31 16:16:53.8	20.730	-0.420	0.090	0.030
2020/01/31 16:16:53.9	20.710	-0.460	0.080	-0.050
2020/01/31 16:16:54.0	20.690	-0.490	0.070	-0.130
2020/01/31 16:16:54.1	20.680	-0.520	0.050	-0.220
2020/01/31 16:16:54.2	20.670	-0.550	0.040	-0.300
2020/01/31 16:16:54.3	20.660	-0.580	0.020	-0.380
2020/01/31 16:16:54.4	20.660	-0.600	-0.000	-0.460
2020/01/31 16:16:54.5	20.650	-0.620	-0.030	-0.540
2020/01/31 16:16:54.6	20.650	-0.630	-0.050	-0.620
2020/01/31 16:16:54.7	20.660	-0.640	-0.080	-0.690
2020/01/31 16:16:54.8	20.660	-0.640	-0.100	-0.770
2020/01/31 16:16:54.9	20.660	-0.650	-0.130	-0.830
2020/01/31 16:16:55.0	20.660	-0.640	-0.160	-0.900
2020/01/31 16:16:55.1	20.660	-0.640	-0.180	-0.950
2020/01/31 16:16:55.2	20.650	-0.630	-0.210	-1.010
2020/01/31 16:16:55.3	20.650	-0.620	-0.230	-1.060
2020/01/31 16:16:55.4	20.640	-0.600	-0.250	-1.100
2020/01/31 16:16:55.5	20.630	-0.580	-0.270	-1.130
2020/01/31 16:16:55.6	20.620	-0.560	-0.290	-1.150
2020/01/31 16:16:55.7	20.610	-0.540	-0.300	-1.180
2020/01/31 16:16:55.8	20.590	-0.510	-0.310	-1.180
2020/01/31 16:16:55.9	20.570	-0.480	-0.320	-1.180
2020/01/31 16:16:56.0	20.550	-0.450	-0.320	-1.170
2020/01/31 16:16:56.1	20.520	-0.420	-0.320	-1.160
2020/01/31 16:16:56.2	20.490	-0.390	-0.310	-1.130
2020/01/31 16:16:56.3	20.460	-0.350	-0.300	-1.100
2020/01/31 16:16:56.4	20.420	-0.320	-0.290	-1.060
2020/01/31 16:16:56.5	20.380	-0.280	-0.270	-1.010
2020/01/31 16:16:56.6	20.340	-0.250	-0.250	-0.960
2020/01/31 16:16:56.7	20.310	-0.210	-0.230	-0.900
2020/01/31 16:16:56.8	20.260	-0.180	-0.210	-0.830
2020/01/31 16:16:56.9	20.210	-0.140	-0.180	-0.760
2020/01/31 16:16:57.0	20.160	-0.110	-0.150	-0.690
2020/01/31 16:16:57.1	20.100	-0.070	-0.120	-0.610
2020/01/31 16:16:57.2	20.050	-0.040	-0.090	-0.530
2020/01/31 16:16:57.3	19.990	-0.010	-0.060	-0.450
2020/01/31 16:16:57.4	19.930	0.020	-0.030	-0.360
2020/01/31 16:16:57.5	19.870	0.050	0.000	-0.270
2020/01/31 16:16:57.6	19.800	0.080	0.030	-0.190
2020/01/31 16:16:57.7	19.750	0.110	0.060	-0.090
2020/01/31 16:16:57.8	19.690	0.130	0.090	-0.000
2020/01/31 16:16:57.9	19.620	0.160	0.110	0.080
2020/01/31 16:16:58.0	19.560	0.180	0.130	0.170
2020/01/31 16:16:58.1	19.500	0.210	0.150	0.250
2020/01/31 16:16:58.2	19.430	0.230	0.160	0.330
2020/01/31 16:16:58.3	19.370	0.250	0.170	0.410
2020/01/31 16:16:58.4	19.310	0.270	0.170	0.490
2020/01/31 16:16:58.5	19.250	0.290	0.170	0.560
2020/01/31 16:16:58.6	19.200	0.310	0.170	0.620
2020/01/31 16:16:58.7	19.140	0.330	0.160	0.680
2020/01/31 16:16:58.8	19.090	0.350	0.140	0.740
2020/01/31 16:16:58.9	19.040	0.370	0.120	0.780
2020/01/31 16:16:59.0	19.000	0.380	0.100	0.830
2020/01/31 16:16:59.1	18.950	0.400	0.070	0.860
2020/01/31 16:16:59.2	18.910	0.420	0.030	0.890
2020/01/31 16:16:59.3	18.880	0.430	-0.010	0.920
2020/01/31 16:16:59.4	18.850	0.440	-0.060	0.940
2020/01/31 16:16:59.5	18.820	0.460	-0.100	0.960
2020/01/31 16:16:59.6	18.790	0.470	-0.150	0.970
2020/01/31 16:16:59.7	18.760	0.480	-0.200	0.980
2020/01/31 16:16:59.8	18.740	0.490	-0.260	0.980
2020/01/31 16:16:59.9	18.720	0.490	-0.310	0.990
2020/01/31 16:17:00.0	18.690	0.500	-0.360	0.990
2020/01/31 16:17:00.1	18.670	0.500	-0.420	0.980
2020/01/31 16:17:00.2	18.650	0.500	-0.470	0.970
2020/01/31 16:17:00.3	18.640	0.500	-0.520	0.960
2020/01/31 16:17:00.4	18.620	0.500	-0.570	0.950
2020/01/31 16:17:00.5	18.600	0.490	-0.610	0.930
2020/01/31 16:17:00.6	18.580	0.480	-0.650	0.910
2020/01/31 16:17:00.7	18.560	0.470	-0.690	0.880
2020/01/31 16:17:00.8	18.550	0.450	-0.720	0.850
2020/01/31 16:17:00.9	18.530	0.430	-0.740	0.820
2020/01/31 16:17:01.0	18.500	0.410	-0.770	0.790
2020/01/31 16:17:01.1	18.480	0.390	-0.780	0.750
2020/01/31 16:17:01.2	18.460	0.360	-0.790	0.720
2020/01/31 16:17:01.3	18.430	0.330	-0.800	0.670
2020/01/31 16:17:01.4	18.410	0.290	-0.800	0.630
2020/01/31 16:17:01.5	18.380	0.260	-0.790	0.590
2020/01/31 16:17:01.6	18.350	0.220	-0.770	0.540
2020/01/31 16:17:01.7	18.330	0.180	-0.760	0.490
2020/01/31 16:17:01.8	18.300	0.140	-0.730	0.450
2020/01/31 16:17:01.9	18.260	0.100	-0.700	0.400
2020/01/31 16:17:02.0	18.220	0.060	-0.660	0.360
2020/01/31 16:17:02.1	18.180	0.010	-0.620	0.320
2020/01/31 16:17:02.2	18.140	-0.030	-0.570	0.280
2020/01/31 16:17:02.3	18.090	-0.070	-0.520	0.240
2020/01/31 16:17:02.4	18.050	-0.120	-0.470	0.200
2020/01/31 16:17:02.5	18.010	-0.160	-0.420	0.160
2020/01/31 16:17:02.6	17.960	-0.200	-0.370	0.120
2020/01/31 16:17:02.7	17.930	-0.250	-0.310	0.080
2020/01/31 16:17:02.8	17.880	-0.290	-0.250	0.040
2020/01/31 16:17:02.9	17.840	-0.320	-0.200	0.000
2020/01/31 16:17:03.0	17.800	-0.360	-0.160	-0.030
2020/01/31 16:17:03.1	17.770	-0.390	-0.110	-0.070
2020/01/31 16:17:03.2	17.730	-0.420	-0.070	-0.110
2020/01/31 16:17:03.3	17.700	-0.450	-0.040	-0.150
2020/01/31 16:17:03.4	17.670	-0.470	-0.010	-0.190
2020/01/31 16:17:03.5	17.650	-0.490	0.010	-0.230
2020/01/31 16:17:03.6	17.620	-0.500	0.030	-0.270
2020/01/31 16:17:03.7	17.600	-0.510	0.040	-0.310
2020/01/31 16:17:03.8	17.580	-0.520	0.050	-0.350
2020/01/31 16:17:03.9	17.560	-0.530	0.060	-0.390
2020/01/31 16:17:04.0	17.540	-0.530	0.060	-0.420
2020/01/31 16:17:04.1	17.530	-0.520	0.050	-0.460
2020/01/31 16:17:04.2	17.510	-0.520	0.040	-0.490
2020/01/31 16:17:04.3	17.490	-0.510	0.030	-0.520
2020/01/31 16:17:04.4	17.470	-0.500	0.020	-0.550
2020/01/31 16:17:04.5	17.460	-0.490	0.000	-0.580
2020/01/31 16:17:04.6	17.430	-0.470	-0.010	-0.600
2020/01/31 16:17:04.7	17.420	-0.460	-0.030	-0.620
2020/01/31 16:17:04.8	17.400	-0.440	-0.050	-0.630
2020/01/31 16:17:04.9	17.370	-0.420	-0.070	-0.650
2020/01/31 16:17:05.0	17.350	-0.400	-0.090	-0.660
2020/01/31 16:17:05.1	17.320	-0.380	-0.110	-0.660
2020/01/31 16:17:05.2	17.290	-0.350	-0.120	-0.660
2020/01/31 16:17:05.3	17.260	-0.330	-0.140	-0.660
2020/01/31 16:17:05.4	17.230	-0.300	-0.160	-0.660
2020/01/31 16:17:05.5	17.200	-0.280	-0.180	-0.650
2020/01/31 16:17:05.6	17.160	-0.250	-0.190	-0.630
2020/01/31 16:17:05.7	17.130	-0.220	-0.200	-0.620
2020/01/31 16:17:05.8	17.090	-0.200	-0.210	-0.600
2020/01/31 16:17:05.9	17.050	-0.170	-0.220	-0.570
2020/01/31 16:17:06.0	17.010	-0.150	-0.230	-0.550
2020/01/31 16:17:06.1	16.960	-0.120	-0.240	-0.520
2020/01/31 16:17:06.2	16.920	-0.100	-0.240	-0.490
2020/01/31 16:17:06.3	16.880	-0.070	-0.240	-0.460
2020/01/31 16:17:06.4	16.830	-0.050	-0.250	-0.430
2020/01/31 16:17:06.5	16.780	-0.020	-0.250	-0.390
2020/01/31 16:17:06.6	16.740	0.000	-0.240	-0.360
2020/01/31 16:17:06.7	16.690	0.020	-0.240	-0.320
2020/01/31 16:17:06.8	16.640	0.040	-0.240	-0.290
2020/01/31 16:17:06.9	16.600	0.070	-0.230	-0.250
2020/01/31 16:17:07.0	16.550	0.090	-0.220	-0.220
2020/01/31 16:17:07.1	16.510	0.110	-0.210	-0.180
2020/01/31 16:17:07.2	16.460	0.120	-0.210	-0.150
2020/01/31 16:17:07.3	16.410	0.140	-0.190	-0.110
2020/01/31 16:17:07.4	16.370	0.160	-0.180	-0.070
2020/01/31 16:17:07.5	16.320	0.180	-0.170	-0.040
2020/01/31 16:17:07.6	16.280	0.190	-0.160	-0.000
2020/01/31 16:17:07.7	16.230	0.210	-0.140	0.030
2020/01/31 16:17:07.8	16.180	0.220	-0.130	0.060
2020/01/31 16:17:07.9	16.140	0.240	-0.120	0.090
2020/01/31 16:17:08.0	16.100	0.250	-0.110	0.130
2020/01/31 16:17:08.1	16.050	0.260	-0.100	0.160
2020/01/31 16:17:08.2	16.010	0.270	-0.090	0.180
2020/01/31 16:17:08.3	15.970	0.280	-0.080	0.210
2020/01/31 16:17:08.4	15.920	0.280	-0.070	0.240
2020/01/31 16:17:08.5	15.880	0.290	-0.060	0.260
2020/01/31 16:17:08.6	15.840	0.300	-0.050	0.290
2020/01/31 16:17:08.7	15.800	0.300	-0.040	0.310
2020/01/31 16:17:08.8	15.750	0.300	-0.040	0.330
2020/01/31 16:17:08.9	15.710	0.300	-0.040	0.350
2020/01/31 16:17:09.0	15.670	0.300	-0.030	0.370
2020/01/31 16:17:09.1	15.630	0.300	-0.030	0.380
2020/01/31 16:17:09.2	15.590	0.300	-0.040	0.400
2020/01/31 16:17:09.3	15.550	0.300	-0.040	0.410
2020/01/31 16:17:09.4	15.510	0.300	-0.040	0.420
2020/01/31 16:17:09.5	15.480	0.290	-0.050	0.430
2020/01/31 16:17:09.6	15.440	0.280	-0.050	0.440
2020/01/31 16:17:09.7	15.400	0.280	-0.060	0.450
2020/01/31 16:17:09.8	15.360	0.270	-0.070	0.450
2020/01/31 16:17:09.9	15.330	0.260	-0.080	0.450
2020/01/31 16:17:10.0	15.290	0.260	-0.090	0.460
2020/01/31 16:17:10.1	15.260	0.250	-0.100	0.460
2020/01/31 16:17:10.2	15.230	0.240	-0.110	0.450
2020/01/31 16:17:10.3	15.200	0.230	-0.130	0.450
2020/01/31 16:17:10.4	15.170	0.220	-0.140	0.450
2020/01/31 16:17:10.5	15.140	0.210	-0.160	0.440
2020/01/31 16:17:10.6	15.110	0.200	-0.180	0.440
2020/01/31 16:17:10.7	15.080	0.190	-0.190	0.430
2020/01/31 16:17:10.8	15.050	0.180	-0.210	0.420
2020/01/31 16:17:10.9	15.020	0.170	-0.220	0.410
2020/01/31 16:17:11.0	14.990	0.160	-0.240	0.400
2020/01/31 16:17:11.1	14.960	0.150	-0.260	0.390
2020/01/31 16:17:11.2	14.940	0.140	-0.270	0.380
2020/01/31 16:17:11.3	14.910	0.130	-0.290	0.380
2020/01/31 16:17:11.4	14.880	0.120	-0.300	0.370
2020/01/31 16:17:11.5	14.840	0.110	-0.310	0.360
2020/01/31 16:17:11.6	14.810	0.100	-0.320	0.350
2020/01/31 16:17:11.7	14.780	0.090	-0.340	0.340
2020/01/31 16:17:11.8	14.740	0.080	-0.350	0.340
2020/01/31 16:17:11.9	14.700	0.080	-0.350	0.340
2020/01/31 16:17:12.0	14.660	0.070	-0.360	0.330
2020/01/31 16:17:12.1	14.620	0.060	-0.370	0.330
2020/01/31 16:17:12.2	14.570	0.050	-0.370	0.330
2020/01/31 16:17:12.3	14.520	0.050	-0.380	0.330
2020/01/31 16:17:12.4	14.480	0.040	-0.380	0.330
2020/01/31 16:17:12.5	14.430	0.030	-0.380	0.330
2020/01/31 16:17:12.6	14.380	0.030	-0.390	0.330
2020/01/31 16:17:12.7	14.350	0.020	-0.380	0.330
2020/01/31 16:17:12.8	14.300	0.010	-0.390	0.330
2020/01/31 16:17:12.9	14.250	0.010	-0.390	0.330
2020/01/31 16:17:13.0	14.210	0.000	-0.390	0.320
2020/01/31 16:17:13.1	14.160	-0.000	-0.390	0.320
2020/01/31 16:17:13.2	14.120	-0.010	-0.390	0.310
2020/01/31 16:17:13.3	14.090	-0.010	-0.400	0.300
2020/01/31 16:17:13.4	14.050	-0.020	-0.400	0.290
2020/01/31 16:17:13.5	14.020	-0.020	-0.410	0.270
2020/01/31 16:17:13.6	13.990	-0.030	-0.420	0.250
2020/01/31 16:17:13.7	13.980	-0.030	-0.420	0.230
2020/01/31 16:17:13.8	13.960	-0.030	-0.430	0.200
2020/01/31 16:17:13.9	13.940	-0.040	-0.440	0.170
2020/01/31 16:17:14.0	13.930	-0.040	-0.450	0.130
2020/01/31 16:17:14.1	13.920	-0.040	-0.460	0.090
2020/01/31 16:17:14.2	13.920	-0.050	-0.470	0.050
2020/01/31 16:17:14.3	13.920	-0.050	-0.480	0.010
2020/01/31 16:17:14.4	13.920	-0.050	-0.490	-0.040
2020/01/31 16:17:14.5	13.920	-0.060	-0.500	-0.090
2020/01/31 16:17:14.6	13.920	-0.060	-0.510	-0.140
2020/01/31 16:17:14.7	13.930	-0.070	-0.520	-0.200
2020/01/31 16:17:14.8	13.930	-0.070	-0.520	-0.250
2020/01/31 16:17:14.9	13.940	-0.080	-0.520	-0.300
2020/01/31 16:17:15.0	13.940	-0.090	-0.520	-0.350
2020/01/31 16:17:15.1	13.940	-0.100	-0.510	-0.400
2020/01/31 16:17:15.2	13.940	-0.110	-0.510	-0.440
2020/01/31 16:17:15.3	13.940	-0.120	-0.500	-0.490
2020/01/31 16:17:15.4	13.940	-0.130	-0.480	-0.530
2020/01/31 16:17:15.5	13.930	-0.140	-0.460	-0.560
2020/01/31 16:17:15.6	13.920	-0.160	-0.440	-0.600
2020/01/31 16:17:15.7	13.910	-0.170	-0.410	-0.630
2020/01/31 16:17:15.8	13.900	-0.190	-0.380	-0.660
2020/01/31 16:17:15.9	13.880	-0.200	-0.350	-0.680
2020/01/31 16:17:16.0	13.850	-0.220	-0.310	-0.690
2020/01/31 16:17:16.1	13.830	-0.230	-0.270	-0.700
2020/01/31 16:17:16.2	13.790	-0.250	-0.220	-0.700
2020/01/31 16:17:16.3	13.760	-0.270	-0.170	-0.700
2020/01/31 16:17:16.4	13.720	-0.280	-0.120	-0.690
2020/01/31 16:17:16.5	13.680	-0.300	-0.070	-0.670
2020/01/31 16:17:16.6	13.630	-0.310	-0.010	-0.650
2020/01/31 16:17:16.7	13.580	-0.330	0.040	-0.620
2020/01/31 16:17:16.8	13.530	-0.340	0.100	-0.590
2020/01/31 16:17:16.9	13.470	-0.350	0.150	-0.560
2020/01/31 16:17:17.0	13.420	-0.360	0.210	-0.520
2020/01/31 16:17:17.1	13.360	-0.370	0.260	-0.470
2020/01/31 16:17:17.2	13.290	-0.380	0.310	-0.430
2020/01/31 16:17:17.3	13.230	-0.380	0.360	-0.380
2020/01/31 16:17:17.4	13.160	-0.380	0.410	-0.330
2020/01/31 16:17:17.5	13.090	-0.380	0.450	-0.280
2020/01/31 16:17:17.6	13.030	-0.380	0.490	-0.220
2020/01/31 16:17:17.7	12.960	-0.370	0.520	-0.170
2020/01/31 16:17:17.8	12.890	-0.370	0.540	-0.110
2020/01/31 16:17:17.9	12.810	-0.360	0.560	-0.060
2020/01/31 16:17:18.0	12.740	-0.340	0.580	-0.000
2020/01/31 16:17:18.1	12.670	-0.330	0.580	0.050
2020/01/31 16:17:18.2	12.600	-0.310	0.580	0.100
2020/01/31 16:17:18.3	12.530	-0.290	0.570	0.150
2020/01/31 16:17:18.4	12.460	-0.260	0.560	0.200
2020/01/31 16:17:18.5	12.400	-0.240	0.540	0.250
2020/01/31 16:17:18.6	12.330	-0.210	0.510	0.290
2020/01/31 16:17:18.7	12.280	-0.170	0.480	0.330
2020/01/31 16:17:18.8	12.210	-0.140	0.430	0.370
2020/01/31 16:17:18.9	12.150	-0.110	0.390	0.410
2020/01/31 16:17:19.0	12.090	-0.070	0.330	0.440
2020/01/31 16:17:19.1	12.040	-0.030	0.280	0.480
2020/01/31 16:17:19.2	11.980	0.010	0.210	0.500
2020/01/31 16:17:19.3	11.930	0.050	0.150	0.530
2020/01/31 16:17:19.4	11.880	0.090	0.080	0.550
2020/01/31 16:17:19.5	11.820	0.130	0.000	0.560
2020/01/31 16:17:19.6	11.770	0.160	-0.070	0.580
2020/01/31 16:17:19.7	11.730	0.200	-0.150	0.590
2020/01/31 16:17:19.8	11.690	0.240	-0.220	0.590
2020/01/31 16:17:19.9	11.640	0.270	-0.300	0.600
2020/01/31 16:17:20.0	11.590	0.300	-0.370	0.600
2020/01/31 16:17:20.1	11.550	0.330	-0.440	0.600
2020/01/31 16:17:20.2	11.500	0.350	-0.510	0.590
2020/01/31 16:17:20.3	11.460	0.380	-0.570	0.580
2020/01/31 16:17:20.4	11.420	0.390	-0.630	0.570
2020/01/31 16:17:20.5	11.370	0.410	-0.690	0.560
2020/01/31 16:17:20.6	11.330	0.420	-0.740	0.550
2020/01/31 16:17:20.7	11.290	0.420	-0.790	0.530
2020/01/31 16:17:20.8	11.260	0.430	-0.830	0.520
2020/01/31 16:17:20.9	11.220	0.420	-0.860	0.500
2020/01/31 16:17:21.0	11.180	0.420	-0.890	0.480
2020/01/31 16:17:21.1	11.150	0.410	-0.910	0.460
2020/01/31 16:17:21.2	11.110	0.390	-0.930	0.440
2020/01/31 16:17:21.3	11.080	0.370	-0.940	0.410
2020/01/31 16:17:21.4	11.040	0.350	-0.950	0.390
2020/01/31 16:17:21.5	11.010	0.330	-0.950	0.360
2020/01/31 16:17:21.6	10.980	0.300	-0.940	0.340
2020/01/31 16:17:21.7	10.950	0.270	-0.920	0.310
2020/01/31 16:17:21.8	10.920	0.230	-0.910	0.280
2020/01/31 16:17:21.9	10.890	0.200	-0.890	0.250
2020/01/31 16:17:22.0	10.860	0.160	-0.860	0.220
2020/01/31 16:17:22.1	10.830	0.130	-0.830	0.200
2020/01/31 16:17:22.2	10.810	0.090	-0.800	0.170
2020/01/31 16:17:22.3	10.780	0.050	-0.760	0.140
2020/01/31 16:17:22.4	10.760	0.010	-0.720	0.110
2020/01/31 16:17:22.5	10.740	-0.020	-0.680	0.090
2020/01/31 16:17:22.6	10.720	-0.060	-0.640	0.060
2020/01/31 16:17:22.7	10.700	-0.090	-0.600	0.030
2020/01/31 16:17:22.8	10.690	-0.120	-0.560	0.000
2020/01/31 16:17:22.9	10.670	-0.140	-0.520	-0.020
2020/01/31 16:17:23.0	10.660	-0.170	-0.480	-0.050
2020/01/31 16:17:23.1	10.650	-0.190	-0.440	-0.070
2020/01/31 16:17:23.2	10.640	-0.200	-0.400	-0.100
2020/01/31 16:17:23.3	10.630	-0.220	-0.370	-0.120
2020/01/31 16:17:23.4	10.630	-0.230	-0.340	-0.140
2020/01/31 16:17:23.5	10.630	-0.230	-0.310	-0.160
2020/01/31 16:17:23.6	10.630	-0.230	-0.280	-0.180
2020/01/31 16:17:23.7	10.620	-0.220	-0.260	-0.200
2020/01/31 16:17:23.8	10.630	-0.220	-0.240	-0.220
2020/01/31 16:17:23.9	10.630	-0.200	-0.220	-0.240
2020/01/31 16:17:24.0	10.640	-0.190	-0.200	-0.250
2020/01/31 16:17:24.1	10.640	-0.170	-0.190	-0.270
2020/01/31 16:17:24.2	10.650	-0.150	-0.170	-0.280
2020/01/31 16:17:24.3	10.650	-0.120	-0.160	-0.290
2020/01/31 16:17:24.4	10.660	-0.100	-0.150	-0.300
2020/01/31 16:17:24.5	10.660	-0.070	-0.140	-0.300
2020/01/31 16:17:24.6	10.660	-0.040	-0.130	-0.310
2020/01/31 16:17:24.7	10.640	-0.010	-0.120	-0.310
2020/01/31 16:17:24.8	10.630	0.020	-0.110	-0.310
2020/01/31 16:17:24.9	10.620	0.050	-0.100	-0.310
2020/01/31 16:17:25.0	10.610	0.080	-0.090	-0.300
2020/01/31 16:17:25.1	10.590	0.110	-0.080	-0.300
2020/01/31 16:17:25.2	10.570	0.140	-0.070	-0.290
2020/01/31 16:17:25.3	10.550	0.170	-0.050	-0.270
2020/01/31 16:17:25.4	10.520	0.190	-0.040	-0.260
2020/01/31 16:17:25.5	10.490	0.210	-0.020	-0.240
2020/01/31 16:17:25.6	10.450	0.230	-0.010	-0.210
2020/01/31 16:17:25.7	10.410	0.250	0.010	-0.190
2020/01/31 16:17:25.8	10.370	0.260	0.020	-0.160
2020/01/31 16:17:25.9	10.320	0.270	0.040	-0.130
2020/01/31 16:17:26.0	10.270	0.280	0.060	-0.100
2020/01/31 16:17:26.1	10.220	0.280	0.080	-0.060
2020/01/31 16:17:26.2	10.160	0.280	0.090	-0.030
2020/01/31 16:17:26.3	10.100	0.280	0.110	0.010
2020/01/31 16:17:26.4	10.040	0.270	0.130	0.050
2020/01/31 16:17:26.5	9.970	0.260	0.140	0.080
2020/01/31 16:17:26.6	9.910	0.240	0.160	0.120
2020/01/31 16:17:26.7	9.830	0.220	0.170	0.160
2020/01/31 16:17:26.8	9.760	0.200	0.180	0.190
2020/01/31 16:17:26.9	9.700	0.180	0.190	0.220
2020/01/31 16:17:27.0	9.630	0.150	0.190	0.260
2020/01/31 16:17:27.1	9.560	0.120	0.200	0.280
2020/01/31 16:17:27.2	9.490	0.090	0.190	0.310
2020/01/31 16:17:27.3	9.420	0.060	0.190	0.330
2020/01/31 16:17:27.4	9.360	0.030	0.180	0.350
2020/01/31 16:17:27.5	9.300	-0.010	0.160	0.360
2020/01/31 16:17:27.6	9.240	-0.040	0.150	0.370
2020/01/31 16:17:27.7	9.180	-0.070	0.130	0.370
2020/01/31 16:17:27.8	9.130	-0.100	0.100	0.360
2020/01/31 16:17:27.9	9.070	-0.130	0.070	0.350
2020/01/31 16:17:28.0	9.020	-0.160	0.040	0.340
2020/01/31 16:17:28.1	8.970	-0.190	0.010	0.320
2020/01/31 16:17:28.2	8.930	-0.210	-0.030	0.300
2020/01/31 16:17:28.3	8.880	-0.230	-0.070	0.270
2020/01/31 16:17:28.4	8.840	-0.250	-0.100	0.240
2020/01/31 16:17:28.5	8.800	-0.270	-0.140	0.210
2020/01/31 16:17:28.6	8.760	-0.280	-0.180	0.170
2020/01/31 16:17:28.7	8.730	-0.290	-0.220	0.130
2020/01/31 16:17:28.8	8.690	-0.300	-0.260	0.100
2020/01/31 16:17:28.9	8.660	-0.300	-0.290	0.060
2020/01/31 16:17:29.0	8.620	-0.310	-0.330	0.030
2020/01/31 16:17:29.1	8.580	-0.310	-0.360	-0.010
2020/01/31 16:17:29.2	8.540	-0.300	-0.380	-0.040
2020/01/31 16:17:29.3	8.500	-0.300	-0.400	-0.070
2020/01/31 16:17:29.4	8.460	-0.290	-0.410	-0.090
2020/01/31 16:17:29.5	8.420	-0.290	-0.420	-0.120
2020/01/31 16:17:29.6	8.380	-0.280	-0.420	-0.140
2020/01/31 16:17:29.7	8.330	-0.270	-0.420	-0.150
2020/01/31 16:17:29.8	8.280	-0.260	-0.410	-0.170
2020/01/31 16:17:29.9	8.230	-0.250	-0.400	-0.180
2020/01/31 16:17:30.0	8.180	-0.240	-0.370	-0.180
2020/01/31 16:17:30.1	8.130	-0.240	-0.350	-0.190
2020/01/31 16:17:30.2	8.080	-0.230	-0.320	-0.190
2020/01/31 16:17:30.3	8.030	-0.220	-0.280	-0.190
2020/01/31 16:17:30.4	7.980	-0.220	-0.240	-0.180
2020/01/31 16:17:30.5	7.940	-0.210	-0.200	-0.180
2020/01/31 16:17:30.6	7.890	-0.210	-0.160	-0.170
2020/01/31 16:17:30.7	7.830	-0.200	-0.110	-0.160
2020/01/31 16:17:30.8	7.780	-0.200	-0.070	-0.150
2020/01/31 16:17:30.9	7.740	-0.200	-0.030	-0.130
2020/01/31 16:17:31.0	7.690	-0.200	0.000	-0.120
2020/01/31 16:17:31.1	7.650	-0.200	0.040	-0.100
2020/01/31 16:17:31.2	7.610	-0.200	0.060	-0.090
2020/01/31 16:17:31.3	7.570	-0.200	0.090	-0.070
2020/01/31 16:17:31.4	7.530	-0.200	0.110	-0.060
2020/01/31 16:17:31.5	7.500	-0.200	0.120	-0.050
2020/01/31 16:17:31.6	7.460	-0.200	0.130	-0.030
2020/01/31 16:17:31.7	7.430	-0.200	0.120	-0.020
2020/01/31 16:17:31.8	7.400	-0.200	0.120	-0.010
2020/01/31 16:17:31.9	7.370	-0.200	0.110	0.000
2020/01/31 16:17:32.0	7.340	-0.200	0.090	0.020
2020/01/31 16:17:32.1	7.310	-0.190	0.070	0.030
2020/01/31 16:17:32.2	7.280	-0.180	0.040	0.050
2020/01/31 16:17:32.3	7.260	-0.180	0.000	0.060
2020/01/31 16:17:32.4	7.240	-0.160	-0.030	0.080
2020/01/31 16:17:32.5	7.210	-0.150	-0.080	0.090
2020/01/31 16:17:32.6	7.190	-0.130	-0.120	0.110
2020/01/31 16:17:32.7	7.170	-0.120	-0.170	0.120
2020/01/31 16:17:32.8	7.150	-0.090	-0.220	0.140
2020/01/31 16:17:32.9	7.140	-0.070	-0.270	0.150
2020/01/31 16:17:33.0	7.120	-0.040	-0.320	0.170
2020/01/31 16:17:33.1	7.110	-0.010	-0.370	0.180
2020/01/31 16:17:33.2	7.100	0.020	-0.420	0.200
2020/01/31 16:17:33.3	7.090	0.050	-0.470	0.220
2020/01/31 16:17:33.4	7.080	0.090	-0.520	0.230
2020/01/31 16:17:33.5	7.070	0.120	-0.570	0.250
2020/01/31 16:17:33.6	7.060	0.160	-0.610	0.260
2020/01/31 16:17:33.7	7.070	0.200	-0.650	0.270
2020/01/31 16:17:33.8	7.060	0.240	-0.690	0.290
2020/01/31 16:17:33.9	7.050	0.280	-0.720	0.300
2020/01/31 16:17:34.0	7.040	0.330	-0.750	0.320
2020/01/31 16:17:34.1	7.030	0.370	-0.780	0.330
2020/01/31 16:17:34.2	7.020	0.410	-0.790	0.350
2020/01/31 16:17:34.3	7.010	0.450	-0.810	0.370
2020/01/31 16:17:34.4	7.000	0.480	-0.820	0.390
2020/01/31 16:17:34.5	6.980	0.520	-0.830	0.410
2020/01/31 16:17:34.6	6.970	0.550	-0.830	0.430
2020/01/31 16:17:34.7	6.940	0.580	-0.830	0.450
2020/01/31 16:17:34.8	6.920	0.610	-0.830	0.460
2020/01/31 16:17:34.9	6.900	0.640	-0.830	0.480
2020/01/31 16:17:35.0	6.880	0.660	-0.820	0.500
2020/01/31 16:17:35.1	6.870	0.670	-0.810	0.510
2020/01/31 16:17:35.2	6.850	0.690	-0.800	0.520
2020/01/31 16:17:35.3	6.830	0.700	-0.790	0.530
2020/01/31 16:17:35.4	6.810	0.700	-0.780	0.540
2020/01/31 16:17:35.5	6.790	0.710	-0.760	0.540
2020/01/31 16:17:35.6	6.780	0.700	-0.740	0.540
2020/01/31 16:17:35.7	6.770	0.700	-0.730	0.530
2020/01/31 16:17:35.8	6.760	0.680	-0.710	0.520
2020/01/31 16:17:35.9	6.740	0.670	-0.700	0.510
2020/01/31 16:17:36.0	6.730	0.650	-0.680	0.490
2020/01/31 16:17:36.1	6.720	0.630	-0.660	0.460
2020/01/31 16:17:36.2	6.700	0.600	-0.630	0.430
2020/01/31 16:17:36.3	6.690	0.570	-0.610	0.400
2020/01/31 16:17:36.4	6.680	0.530	-0.580	0.370
2020/01/31 16:17:36.5	6.670	0.490	-0.560	0.330
2020/01/31 16:17:36.6	6.650	0.450	-0.530	0.280
2020/01/31 16:17:36.7	6.620	0.400	-0.490	0.230
2020/01/31 16:17:36.8	6.610	0.360	-0.460	0.190
2020/01/31 16:17:36.9	6.590	0.300	-0.430	0.140
2020/01/31 16:17:37.0	6.570	0.250	-0.390	0.090
2020/01/31 16:17:37.1	6.540	0.190	-0.350	0.040
2020/01/31 16:17:37.2	6.520	0.140	-0.310	-0.000
2020/01/31 16:17:37.3	6.480	0.070	-0.260	-0.050
2020/01/31 16:17:37.4	6.450	0.010	-0.210	-0.100
2020/01/31 16:17:37.5	6.410	-0.050	-0.150	-0.140
2020/01/31 16:17:37.6	6.370	-0.120	-0.100	-0.190
2020/01/31 16:17:37.7	6.320	-0.180	-0.040	-0.230
2020/01/31 16:17:37.8	6.270	-0.250	0.030	-0.270
2020/01/31 16:17:37.9	6.210	-0.320	0.100	-0.310
2020/01/31 16:17:38.0	6.150	-0.390	0.170	-0.340
2020/01/31 16:17:38.1	6.090	-0.450	0.240	-0.370
2020/01/31 16:17:38.2	6.020	-0.520	0.310	-0.400
2020/01/31 16:17:38.3	5.950	-0.580	0.390	-0.430
2020/01/31 16:17:38.4	5.880	-0.640	0.470	-0.450
2020/01/31 16:17:38.5	5.800	-0.700	0.540	-0.470
2020/01/31 16:17:38.6	5.720	-0.760	0.620	-0.480
2020/01/31 16:17:38.7	5.630	-0.810	0.690	-0.500
2020/01/31 16:17:38.8	5.540	-0.860	0.760	-0.500
2020/01/31 16:17:38.9	5.460	-0.910	0.840	-0.500
2020/01/31 16:17:39.0	5.370	-0.940	0.900	-0.490
2020/01/31 16:17:39.1	5.280	-0.980	0.960	-0.480
2020/01/31 16:17:39.2	5.190	-1.010	1.020	-0.460
2020/01/31 16:17:39.3	5.100	-1.030	1.070	-0.440
2020/01/31 16:17:39.4	5.000	-1.050	1.120	-0.420
2020/01/31 16:17:39.5	4.910	-1.060	1.150	-0.390
2020/01/31 16:17:39.6	4.820	-1.060	1.180	-0.350
2020/01/31 16:17:39.7	4.720	-1.060	1.200	-0.320
2020/01/31 16:17:39.8	4.630	-1.040	1.210	-0.280
2020/01/31 16:17:39.9	4.540	-1.030	1.210	-0.250
2020/01/31 16:17:40.0	4.460	-1.000	1.190	-0.210
2020/01/31 16:17:40.1	4.380	-0.960	1.170	-0.170
2020/01/31 16:17:40.2	4.300	-0.920	1.130	-0.130
2020/01/31 16:17:40.3	4.220	-0.870	1.080	-0.090
2020/01/31 16:17:40.4	4.150	-0.820	1.020	-0.060
2020/01/31 16:17:40.5	4.080	-0.760	0.950	-0.020
2020/01/31 16:17:40.6	4.020	-0.690	0.870	0.020
2020/01/31 16:17:40.7	3.930	-0.610	0.780	0.040
2020/01/31 16:17:40.8	3.880	-0.540	0.670	0.080
2020/01/31 16:17:40.9	3.820	-0.450	0.570	0.110
2020/01/31 16:17:41.0	3.770	-0.360	0.450	0.140
2020/01/31 16:17:41.1	3.720	-0.270	0.330	0.160
2020/01/31 16:17:41.2	3.680	-0.180	0.200	0.180
2020/01/31 16:17:41.3	3.640	-0.080	0.060	0.210
2020/01/31 16:17:41.4	3.610	0.010	-0.070	0.220
2020/01/31 16:17:41.5	3.570	0.110	-0.210	0.240
2020/01/31 16:17:41.6	3.540	0.200	-0.350	0.250
2020/01/31 16:17:41.7	3.500	0.300	-0.490	0.260
2020/01/31 16:17:41.8	3.480	0.380	-0.620	0.270
2020/01/31 16:17:41.9	3.460	0.470	-0.760	0.280
2020/01/31 16:17:42.0	3.440	0.550	-0.890	0.280
2020/01/31 16:17:42.1	3.430	0.630	-1.010	0.280
2020/01/31 16:17:42.2	3.420	0.700	-1.130	0.280
2020/01/31 16:17:42.3	3.410	0.760	-1.240	0.270
2020/01/31 16:17:42.4	3.400	0.820	-1.340	0.260
2020/01/31 16:17:42.5	3.400	0.870	-1.440	0.250
2020/01/31 16:17:42.6	3.400	0.910	-1.530	0.240
2020/01/31 16:17:42.7	3.390	0.940	-1.600	0.220
2020/01/31 16:17:42.8	3.390	0.960	-1.660	0.200
2020/01/31 16:17:42.9	3.400	0.970	-1.720	0.180
2020/01/31 16:17:43.0	3.410	0.980	-1.760	0.150
2020/01/31 16:17:43.1	3.420	0.970	-1.800	0.130
2020/01/31 16:17:43.2	3.430	0.960	-1.820	0.100
2020/01/31 16:17:43.3	3.440	0.930	-1.830	0.070
2020/01/31 16:17:43.4	3.460	0.900	-1.830	0.040
2020/01/31 16:17:43.5	3.470	0.860	-1.820	0.000
2020/01/31 16:17:43.6	3.490	0.820	-1.800	-0.030
2020/01/31 16:17:43.7	3.500	0.760	-1.770	-0.060
2020/01/31 16:17:43.8	3.520	0.700	-1.730	-0.100
2020/01/31 16:17:43.9	3.540	0.640	-1.680	-0.140
2020/01/31 16:17:44.0	3.560	0.570	-1.620	-0.180
2020/01/31 16:17:44.1	3.570	0.490	-1.560	-0.220
2020/01/31 16:17:44.2	3.590	0.420	-1.490	-0.260
2020/01/31 16:17:44.3	3.610	0.330	-1.410	-0.290
2020/01/31 16:17:44.4	3.630	0.250	-1.320	-0.330
2020/01/31 16:17:44.5	3.640	0.170	-1.240	-0.370
2020/01/31 16:17:44.6	3.660	0.080	-1.140	-0.400
2020/01/31 16:17:44.7	3.640	-0.000	-1.040	-0.440
2020/01/31 16:17:44.8	3.650	-0.080	-0.940	-0.460
2020/01/31 16:17:44.9	3.660	-0.160	-0.840	-0.490
2020/01/31 16:17:45.0	3.660	-0.240	-0.730	-0.500
2020/01/31 16:17:45.1	3.660	-0.320	-0.620	-0.520
2020/01/31 16:17:45.2	3.650	-0.390	-0.510	-0.530
2020/01/31 16:17:45.3	3.640	-0.460	-0.400	-0.530
2020/01/31 16:17:45.4	3.630	-0.520	-0.290	-0.520
2020/01/31 16:17:45.5	3.610	-0.570	-0.180	-0.520
2020/01/31 16:17:45.6	3.580	-0.620	-0.060	-0.500
2020/01/31 16:17:45.7	3.540	-0.660	0.040	-0.480
2020/01/31 16:17:45.8	3.510	-0.700	0.150	-0.450
2020/01/31 16:17:45.9	3.470	-0.730	0.250	-0.420
2020/01/31 16:17:46.0	3.420	-0.750	0.350	-0.380
2020/01/31 16:17:46.1	3.370	-0.760	0.440	-0.330
2020/01/31 16:17:46.2	3.320	-0.770	0.530	-0.290
2020/01/31 16:17:46.3	3.270	-0.770	0.610	-0.240
2020/01/31 16:17:46.4	3.210	-0.760	0.680	-0.180
2020/01/31 16:17:46.5	3.140	-0.740	0.750	-0.120
2020/01/31 16:17:46.6	3.080	-0.720	0.800	-0.060
2020/01/31 16:17:46.7	3.000	-0.690	0.850	-0.000
2020/01/31 16:17:46.8	2.930	-0.650	0.900	0.060
2020/01/31 16:17:46.9	2.860	-0.610	0.930	0.130
2020/01/31 16:17:47.0	2.780	-0.560	0.950	0.200
2020/01/31 16:17:47.1	2.700	-0.510	0.970	0.270
2020/01/31 16:17:47.2	2.620	-0.450	0.980	0.340
2020/01/31 16:17:47.3	2.540	-0.390	0.980	0.410
2020/01/31 16:17:47.4	2.450	-0.330	0.970	0.490
2020/01/31 16:17:47.5	2.370	-0.270	0.960	0.560
2020/01/31 16:17:47.6	2.280	-0.200	0.930	0.630
2020/01/31 16:17:47.7	2.190	-0.130	0.900	0.700
2020/01/31 16:17:47.8	2.100	-0.060	0.860	0.770
2020/01/31 16:17:47.9	2.010	0.010	0.820	0.840
2020/01/31 16:17:48.0	1.930	0.080	0.770	0.910
2020/01/31 16:17:48.1	1.840	0.150	0.720	0.970
2020/01/31 16:17:48.2	1.760	0.210	0.660	1.030
2020/01/31 16:17:48.3	1.680	0.280	0.600	1.090
2020/01/31 16:17:48.4	1.610	0.340	0.540	1.150
2020/01/31 16:17:48.5	1.530	0.390	0.480	1.200
2020/01/31 16:17:48.6	1.460	0.450	0.410	1.250
2020/01/31 16:17:48.7	1.380	0.500	0.350	1.290
2020/01/31 16:17:48.8	1.320	0.540	0.280	1.330
2020/01/31 16:17:48.9	1.260	0.580	0.210	1.370
2020/01/31 16:17:49.0	1.200	0.620	0.140	1.400
2020/01/31 16:17:49.1	1.150	0.650	0.070	1.420
2020/01/31 16:17:49.2	1.100	0.670	-0.000	1.440
2020/01/31 16:17:49.3	1.060	0.690	-0.070	1.460
2020/01/31 16:17:49.4	1.030	0.710	-0.130	1.470
2020/01/31 16:17:49.5	1.000	0.720	-0.200	1.470
2020/01/31 16:17:49.6	0.970	0.720	-0.260	1.470
2020/01/31 16:17:49.7	0.940	0.720	-0.320	1.460
2020/01/31 16:17:49.8	0.930	0.720	-0.370	1.450
2020/01/31 16:17:49.9	0.910	0.710	-0.420	1.430
2020/01/31 16:17:50.0	0.900	0.690	-0.470	1.410
2020/01/31 16:17:50.1	0.890	0.670	-0.510	1.380
2020/01/31 16:17:50.2	0.890	0.640	-0.550	1.360
2020/01/31 16:17:50.3	0.880	0.620	-0.580	1.330
2020/01/31 16:17:50.4	0.880	0.580	-0.610	1.290
2020/01/31 16:17:50.5	0.870	0.550	-0.630	1.250
2020/01/31 16:17:50.6	0.870	0.500	-0.640	1.210
2020/01/31 16:17:50.7	0.870	0.460	-0.650	1.160
2020/01/31 16:17:50.8	0.870	0.420	-0.650	1.110
2020/01/31 16:17:50.9	0.870	0.370	-0.650	1.060
2020/01/31 16:17:51.0	0.880	0.320	-0.650	1.010
2020/01/31 16:17:51.1	0.880	0.270	-0.640	0.950
2020/01/31 16:17:51.2	0.890	0.210	-0.630	0.890
2020/01/31 16:17:51.3	0.900	0.160	-0.610	0.830
2020/01/31 16:17:51.4	0.900	0.110	-0.590	0.760
2020/01/31 16:17:51.5	0.910	0.060	-0.580	0.690
2020/01/31 16:17:51.6	0.930	0.010	-0.560	0.620
2020/01/31 16:17:51.7	0.940	-0.050	-0.540	0.530
2020/01/31 16:17:51.8	0.950	-0.090	-0.520	0.460
2020/01/31 16:17:51.9	0.970	-0.140	-0.510	0.380
2020/01/31 16:17:52.0	0.990	-0.180	-0.490	0.300
2020/01/31 16:17:52.1	1.010	-0.230	-0.480	0.210
2020/01/31 16:17:52.2	1.030	-0.270	-0.470	0.130
2020/01/31 16:17:52.3	1.060	-0.300	-0.460	0.050
2020/01/31 16:17:52.4	1.080	-0.330	-0.460	-0.040
2020/01/31 16:17:52.5	1.110	-0.360	-0.460	-0.120
2020/01/31 16:17:52.6	1.140	-0.390	-0.460	-0.200
2020/01/31 16:17:52.7	1.170	-0.410	-0.470	-0.280
2020/01/31 16:17:52.8	1.200	-0.430	-0.480	-0.350
2020/01/31 16:17:52.9	1.230	-0.440	-0.490	-0.430
2020/01/31 16:17:53.0	1.260	-0.460	-0.500	-0.490
2020/01/31 16:17:53.1	1.290	-0.460	-0.520	-0.560
2020/01/31 16:17:53.2	1.330	-0.470	-0.530	-0.620
2020/01/31 16:17:53.3	1.360	-0.470	-0.550	-0.680
2020/01/31 16:17:53.4	1.390	-0.470	-0.570	-0.730
2020/01/31 16:17:53.5	1.420	-0.460	-0.590	-0.780
2020/01/31 16:17:53.6	1.450	-0.460	-0.610	-0.820
2020/01/31 16:17:53.7	1.480	-0.450	-0.620	-0.860
2020/01/31 16:17:53.8	1.500	-0.440	-0.630	-0.900
2020/01/31 16:17:53.9	1.530	-0.420	-0.650	-0.930
2020/01/31 16:17:54.0	1.560	-0.410	-0.660	-0.960
2020/01/31 16:17:54.1	1.580	-0.390	-0.670	-0.980
2020/01/31 16:17:54.2	1.610	-0.380	-0.680	-1.000
2020/01/31 16:17:54.3	1.630	-0.360	-0.680	-1.020
2020/01/31 16:17:54.4	1.640	-0.340	-0.680	-1.030
2020/01/31 16:17:54.5	1.660	-0.330	-0.670	-1.040
2020/01/31 16:17:54.6	1.670	-0.310	-0.660	-1.050
2020/01/31 16:17:54.7	1.690	-0.290	-0.650	-1.050
2020/01/31 16:17:54.8	1.690	-0.270	-0.630	-1.050
2020/01/31 16:17:54.9	1.700	-0.260	-0.600	-1.040
2020/01/31 16:17:55.0	1.700	-0.240	-0.570	-1.030
2020/01/31 16:17:55.1	1.700	-0.220	-0.530	-1.020
2020/01/31 16:17:55.2	1.690	-0.210	-0.490	-1.000
2020/01/31 16:17:55.3	1.680	-0.190	-0.450	-0.970
2020/01/31 16:17:55.4	1.660	-0.180	-0.390	-0.940
2020/01/31 16:17:55.5	1.640	-0.170	-0.340	-0.900
2020/01/31 16:17:55.6	1.620	-0.150	-0.280	-0.860
2020/01/31 16:17:55.7	1.590	-0.140	-0.210	-0.810
2020/01/31 16:17:55.8	1.550	-0.130	-0.140	-0.760
2020/01/31 16:17:55.9	1.520	-0.120	-0.070	-0.700
2020/01/31 16:17:56.0	1.480	-0.110	0.000	-0.630
2020/01/31 16:17:56.1	1.440	-0.100	0.080	-0.560
2020/01/31 16:17:56.2	1.390	-0.090	0.150	-0.480
2020/01/31 16:17:56.3	1.340	-0.080	0.220	-0.400
2020/01/31 16:17:56.4	1.290	-0.070	0.300	-0.320
2020/01/31 16:17:56.5	1.230	-0.060	0.370	-0.230
2020/01/31 16:17:56.6	1.170	-0.060	0.440	-0.140
2020/01/31 16:17:56.7	1.110	-0.050	0.500	-0.040
2020/01/31 16:17:56.8	1.040	-0.040	0.570	0.050
2020/01/31 16:17:56.9	0.980	-0.030	0.620	0.150
2020/01/31 16:17:57.0	0.910	-0.030	0.670	0.240
2020/01/31 16:17:57.1	0.850	-0.020	0.710	0.330
2020/01/31 16:17:57.2	0.780	-0.010	0.750	0.420
2020/01/31 16:17:57.3	0.720	-0.000	0.770	0.500
2020/01/31 16:17:57.4	0.650	0.000	0.790	0.580
2020/01/31 16:17:57.5	0.590	0.010	0.790	0.650
2020/01/31 16:17:57.6	0.540	0.020	0.790	0.720
2020/01/31 16:17:57.7	0.480	0.030	0.780	0.780
2020/01/31 16:17:57.8	0.430	0.050	0.760	0.830
2020/01/31 16:17:57.9	0.380	0.060	0.720	0.870
2020/01/31 16:17:58.0	0.340	0.070	0.680	0.900
2020/01/31 16:17:58.1	0.300	0.090	0.620	0.930
2020/01/31 16:17:58.2	0.260	0.100	0.560	0.940
2020/01/31 16:17:58.3	0.230	0.120	0.490	0.950
2020/01/31 16:17:58.4	0.200	0.140	0.410	0.950
2020/01/31 16:17:58.5	0.180	0.160	0.320	0.940
2020/01/31 16:17:58.6	0.160	0.180	0.230	0.930
2020/01/31 16:17:58.7	0.130	0.200	0.130	0.910
2020/01/31 16:17:58.8	0.120	0.220	0.030	0.880
2020/01/31 16:17:58.9	0.110	0.240	-0.070	0.860
2020/01/31 16:17:59.0	0.100	0.260	-0.170	0.830
2020/01/31 16:17:59.1	0.090	0.280	-0.270	0.790
2020/01/31 16:17:59.2	0.090	0.300	-0.370	0.760
2020/01/31 16:17:59.3	0.080	0.310	-0.470	0.720
2020/01/31 16:17:59.4	0.080	0.330	-0.560	0.680
2020/01/31 16:17:59.5	0.090	0.350	-0.640	0.630
2020/01/31 16:17:59.6	0.090	0.360	-0.730	0.590
2020/01/31 16:17:59.7	0.100	0.370	-0.800	0.540
2020/01/31 16:17:59.8	0.110	0.380	-0.870	0.490
2020/01/31 16:17:59.9	0.120	0.390	-0.940	0.430
2020/01/31 16:18:00.0	0.140	0.390	-0.990	0.380
2020/01/31 16:18:00.1	0.160	0.400	-1.040	0.320
2020/01/31 16:18:00.2	0.180	0.400	-1.090	0.260
2020/01/31 16:18:00.3	0.200	0.400	-1.130	0.200
2020/01/31 16:18:00.4	0.230	0.390	-1.160	0.140
2020/01/31 16:18:00.5	0.260	0.390	-1.180	0.070
2020/01/31 16:18:00.6	0.290	0.380	-1.200	0.010
2020/01/31 16:18:00.7	0.330	0.370	-1.210	-0.070
2020/01/31 16:18:00.8	0.370	0.360	-1.210	-0.140
2020/01/31 16:18:00.9	0.410	0.340	-1.210	-0.210
2020/01/31 16:18:01.0	0.450	0.330	-1.200	-0.270
2020/01/31 16:18:01.1	0.490	0.310	-1.180	-0.340
2020/01/31 16:18:01.2	0.540	0.290	-1.160	-0.410
2020/01/31 16:18:01.3	0.590	0.280	-1.140	-0.480
2020/01/31 16:18:01.4	0.630	0.250	-1.100	-0.540
2020/01/31 16:18:01.5	0.680	0.230	-1.070	-0.600
2020/01/31 16:18:01.6	0.720	0.210	-1.030	-0.660
2020/01/31 16:18:01.7	0.770	0.190	-0.980	-0.710
2020/01/31 16:18:01.8	0.810	0.160	-0.930	-0.760
2020/01/31 16:18:01.9	0.840	0.140	-0.870	-0.800
2020/01/31 16:18:02.0	0.880	0.110	-0.810	-0.830
2020/01/31 16:18:02.1	0.910	0.080	-0.750	-0.860
2020/01/31 16:18:02.2	0.930	0.060	-0.680	-0.890
2020/01/31 16:18:02.3	0.950	0.030	-0.610	-0.900
2020/01/31 16:18:02.4	0.970	0.000	-0.530	-0.920
2020/01/31 16:18:02.5	0.980	-0.020	-0.460	-0.920
2020/01/31 16:18:02.6	0.990	-0.050	-0.380	-0.920
2020/01/31 16:18:02.7	0.980	-0.080	-0.300	-0.910
2020/01/31 16:18:02.8	0.980	-0.100	-0.210	-0.900
2020/01/31 16:18:02.9	0.980	-0.130	-0.130	-0.880
2020/01/31 16:18:03.0	0.970	-0.150	-0.050	-0.860
2020/01/31 16:18:03.1	0.950	-0.180	0.040	-0.830
2020/01/31 16:18:03.2	0.930	-0.200	0.120	-0.800
2020/01/31 16:18:03.3	0.910	-0.220	0.200	-0.770
2020/01/31 16:18:03.4	0.880	-0.240	0.270	-0.730
2020/01/31 16:18:03.5	0.860	-0.260	0.340	-0.690
2020/01/31 16:18:03.6	0.820	-0.280	0.410	-0.650
2020/01/31 16:18:03.7	0.780	-0.300	0.470	-0.610
2020/01/31 16:18:03.8	0.750	-0.310	0.530	-0.560
2020/01/31 16:18:03.9	0.710	-0.330	0.580	-0.520
2020/01/31 16:18:04.0	0.670	-0.340	0.620	-0.480
2020/01/31 16:18:04.1	0.640	-0.350	0.650	-0.440
2020/01/31 16:18:04.2	0.600	-0.360	0.670	-0.400
2020/01/31 16:18:04.3	0.560	-0.360	0.690	-0.360
2020/01/31 16:18:04.4	0.530	-0.370	0.700	-0.320
2020/01/31 16:18:04.5	0.490	-0.370	0.700	-0.290
2020/01/31 16:18:04.6	0.460	-0.370	0.690	-0.260
2020/01/31 16:18:04.7	0.420	-0.370	0.670	-0.230
2020/01/31 16:18:04.8	0.390	-0.370	0.640	-0.210
2020/01/31 16:18:04.9	0.370	-0.360	0.610	-0.190
2020/01/31 16:18:05.0	0.340	-0.360	0.570	-0.170
2020/01/31 16:18:05.1	0.320	-0.350	0.520	-0.160
2020/01/31 16:18:05.2	0.300	-0.340	0.460	-0.150
2020/01/31 16:18:05.3	0.280	-0.330	0.400	-0.140
2020/01/31 16:18:05.4	0.270	-0.320	0.340	-0.140
2020/01/31 16:18:05.5	0.250	-0.310	0.270	-0.140
2020/01/31 16:18:05.6	0.240	-0.290	0.200	-0.140
2020/01/31 16:18:05.7	0.230	-0.280	0.140	-0.150
2020/01/31 16:18:05.8	0.220	-0.260	0.070	-0.160
2020/01/31 16:18:05.9	0.210	-0.250	-0.000	-0.170
2020/01/31 16:18:06.0	0.200	-0.230	-0.070	-0.180
2020/01/31 16:18:06.1	0.190	-0.220	-0.140	-0.190
2020/01/31 16:18:06.2	0.180	-0.200	-0.200	-0.200
2020/01/31 16:18:06.3	0.170	-0.190	-0.270	-0.210
2020/01/31 16:18:06.4	0.160	-0.170	-0.320	-0.220
2020/01/31 16:18:06.5	0.150	-0.160	-0.370	-0.230
2020/01/31 16:18:06.6	0.140	-0.140	-0.420	-0.230
2020/01/31 16:18:06.7	0.130	-0.130	-0.460	-0.240
2020/01/31 16:18:06.8	0.110	-0.110	-0.490	-0.240
2020/01/31 16:18:06.9	0.100	-0.100	-0.520	-0.240
2020/01/31 16:18:07.0	0.080	-0.090	-0.550	-0.230
2020/01/31 16:18:07.1	0.060	-0.080	-0.560	-0.230
2020/01/31 16:18:07.2	0.050	-0.060	-0.570	-0.220
2020/01/31 16:18:07.3	0.030	-0.050	-0.580	-0.210
2020/01/31 16:18:07.4	0.010	-0.040	-0.580	-0.200
2020/01/31 16:18:07.5	359.990	-0.030	-0.580	-0.180
2020/01/31 16:18:07.6	359.970	-0.010	-0.570	-0.160
2020/01/31 16:18:07.7	359.940	-0.000	-0.560	-0.140
2020/01/31 16:18:07.8	359.920	0.010	-0.550	-0.120
2020/01/31 16:18:07.9	359.900	0.020	-0.530	-0.090
2020/01/31 16:18:08.0	359.880	0.030	-0.510	-0.060
2020/01/31 16:18:08.1	359.850	0.050	-0.500	-0.030
2020/01/31 16:18:08.2	359.830	0.060	-0.480	0.000
2020/01/31 16:18:08.3	359.810	0.070	-0.460	0.030
2020/01/31 16:18:08.4	359.790	0.090	-0.440	0.070
2020/01/31 16:18:08.5	359.770	0.100	-0.420	0.100
2020/01/31 16:18:08.6	359.750	0.120	-0.410	0.130
2020/01/31 16:18:08.7	359.730	0.130	-0.390	0.160
2020/01/31 16:18:08.8	359.710	0.150	-0.380	0.190
2020/01/31 16:18:08.9	359.700	0.170	-0.370	0.210
2020/01/31 16:18:09.0	359.680	0.180	-0.360	0.240
2020/01/31 16:18:09.1	359.670	0.200	-0.360	0.260
2020/01/31 16:18:09.2	359.670	0.220	-0.360	0.280
2020/01/31 16:18:09.3	359.660	0.240	-0.350	0.290
2020/01/31 16:18:09.4	359.660	0.260	-0.360	0.310
2020/01/31 16:18:09.5	359.660	0.270	-0.360	0.320
2020/01/31 16:18:09.6	359.650	0.290	-0.360	0.330
2020/01/31 16:18:09.7	359.660	0.310	-0.370	0.330
2020/01/31 16:18:09.8	359.660	0.330	-0.380	0.340
2020/01/31 16:18:09.9	359.660	0.350	-0.380	0.340
2020/01/31 16:18:10.0	359.660	0.370	-0.390	0.350
2020/01/31 16:18:10.1	359.670	0.380	-0.400	0.350
2020/01/31 16:18:10.2	359.670	0.400	-0.400	0.350
2020/01/31 16:18:10.3	359.670	0.410	-0.410	0.350
2020/01/31 16:18:10.4	359.670	0.430	-0.410	0.350
2020/01/31 16:18:10.5	359.680	0.440	-0.410	0.350
2020/01/31 16:18:10.6	359.680	0.450	-0.420	0.350
2020/01/31 16:18:10.7	359.670	0.450	-0.420	0.340
2020/01/31 16:18:10.8	359.670	0.460	-0.410	0.340
2020/01/31 16:18:10.9	359.670	0.460	-0.410	0.340
2020/01/31 16:18:11.0	359.670	0.460	-0.410	0.330
2020/01/31 16:18:11.1	359.670	0.460	-0.400	0.320
2020/01/31 16:18:11.2	359.670	0.460	-0.390	0.320
2020/01/31 16:18:11.3	359.680	0.450	-0.380	0.310
2020/01/31 16:18:11.4	359.680	0.440	-0.370	0.300
2020/01/31 16:18:11.5	359.680	0.430	-0.360	0.290
2020/01/31 16:18:11.6	359.690	0.410	-0.350	0.280
2020/01/31 16:18:11.7	359.700	0.400	-0.340	0.260
2020/01/31 16:18:11.8	359.710	0.380	-0.320	0.250
2020/01/31 16:18:11.9	359.720	0.350	-0.310	0.230
2020/01/31 16:18:12.0	359.740	0.330	-0.300	0.210
2020/01/31 16:18:12.1	359.750	0.300	-0.280	0.190
2020/01/31 16:18:12.2	359.760	0.270	-0.270	0.170
2020/01/31 16:18:12.3	359.780	0.240	-0.250	0.140
2020/01/31 16:18:12.4	359.800	0.210	-0.240	0.120
2020/01/31 16:18:12.5	359.820	0.180	-0.220	0.090
2020/01/31 16:18:12.6	359.840	0.140	-0.210	0.070
2020/01/31 16:18:12.7	359.850	0.100	-0.190	0.040
2020/01/31 16:18:12.8	359.870	0.070	-0.180	0.020
2020/01/31 16:18:12.9	359.880	0.030	-0.160	-0.010
2020/01/31 16:18:13.0	359.900	-0.010	-0.150	-0.030
2020/01/31 16:18:13.1	359.910	-0.050	-0.130	-0.050
2020/01/31 16:18:13.2	359.920	-0.090	-0.110	-0.070
2020/01/31 16:18:13.3	359.940	-0.140	-0.100	-0.090
2020/01/31 16:18:13.4	359.940	-0.180	-0.080	-0.110
2020/01/31 16:18:13.5	359.950	-0.210	-0.060	-0.130
2020/01/31 16:18:13.6	359.950	-0.250	-0.050	-0.150
2020/01/31 16:18:13.7	359.960	-0.290	-0.030	-0.170
2020/01/31 16:18:13.8	359.960	-0.330	-0.010	-0.180
2020/01/31 16:18:13.9	359.960	-0.360	0.000	-0.190
2020/01/31 16:18:14.0	359.950	-0.390	0.020	-0.210
2020/01/31 16:18:14.1	359.940	-0.420	0.030	-0.210
2020/01/31 16:18:14.2	359.930	-0.450	0.050	-0.220
2020/01/31 16:18:14.3	359.910	-0.470	0.060	-0.230
2020/01/31 16:18:14.4	359.900	-0.500	0.080	-0.230
2020/01/31 16:18:14.5	359.880	-0.510	0.090	-0.230
2020/01/31 16:18:14.6	359.860	-0.530	0.100	-0.230
2020/01/31 16:18:14.7	359.830	-0.540	0.110	-0.230
2020/01/31 16:18:14.8	359.810	-0.550	0.120	-0.230
2020/01/31 16:18:14.9	359.780	-0.560	0.130	-0.220
2020/01/31 16:18:15.0	359.750	-0.560	0.140	-0.210
2020/01/31 16:18:15.1	359.720	-0.560	0.150	-0.210
2020/01/31 16:18:15.2	359.690	-0.560	0.150	-0.200
2020/01/31 16:18:15.3	359.660	-0.550	0.150	-0.190
2020/01/31 16:18:15.4	359.630	-0.540	0.150	-0.180
2020/01/31 16:18:15.5	359.600	-0.530	0.150	-0.160
2020/01/31 16:18:15.6	359.560	-0.510	0.150	-0.150
2020/01/31 16:18:15.7	359.530	-0.490	0.150	-0.140
2020/01/31 16:18:15.8	359.500	-0.470	0.140	-0.130
2020/01/31 16:18:15.9	359.470	-0.440	0.130	-0.120
2020/01/31 16:18:16.0	359.440	-0.410	0.120	-0.100
2020/01/31 16:18:16.1	359.410	-0.380	0.100	-0.090
2020/01/31 16:18:16.2	359.380	-0.350	0.080	-0.070
2020/01/31 16:18:16.3	359.350	-0.310	0.070	-0.060
2020/01/31 16:18:16.4	359.330	-0.280	0.040	-0.040
2020/01/31 16:18:16.5	359.300	-0.240	0.020	-0.030
2020/01/31 16:18:16.6	359.280	-0.200	-0.000	-0.010
2020/01/31 16:18:16.7	359.260	-0.150	-0.030	0.010
2020/01/31 16:18:16.8	359.240	-0.110	-0.060	0.030
2020/01/31 16:18:16.9	359.220	-0.070	-0.090	0.050
2020/01/31 16:18:17.0	359.200	-0.020	-0.120	0.070
2020/01/31 16:18:17.1	359.180	0.020	-0.150	0.100
2020/01/31 16:18:17.2	359.160	0.070	-0.180	0.120
2020/01/31 16:18:17.3	359.140	0.110	-0.210	0.150
2020/01/31 16:18:17.4	359.130	0.150	-0.240	0.180
2020/01/31 16:18:17.5	359.110	0.200	-0.270	0.210
2020/01/31 16:18:17.6	359.090	0.240	-0.300	0.240
2020/01/31 16:18:17.7	359.080	0.280	-0.330	0.270
2020/01/31 16:18:17.8	359.070	0.310	-0.360	0.310
2020/01/31 16:18:17.9	359.050	0.350	-0.390	0.340
2020/01/31 16:18:18.0	359.040	0.380	-0.410	0.380
2020/01/31 16:18:18.1	359.030	0.410	-0.440	0.410
2020/01/31 16:18:18.2	359.020	0.440	-0.460	0.450
2020/01/31 16:18:18.3	359.010	0.460	-0.480	0.480
2020/01/31 16:18:18.4	359.000	0.480	-0.500	0.510
2020/01/31 16:18:18.5	358.990	0.500	-0.510	0.540
2020/01/31 16:18:18.6	358.990	0.510	-0.530	0.560
2020/01/31 16:18:18.7	358.970	0.520	-0.540	0.590
2020/01/31 16:18:18.8	358.970	0.530	-0.550	0.610
2020/01/31 16:18:18.9	358.970	0.530	-0.560	0.620
2020/01/31 16:18:19.0	358.980	0.530	-0.560	0.630
2020/01/31 16:18:19.1	358.980	0.530	-0.570	0.630
2020/01/31 16:18:19.2	358.990	0.520	-0.570	0.630
2020/01/31 16:18:19.3	359.000	0.510	-0.580	0.620
2020/01/31 16:18:19.4	359.020	0.490	-0.580	0.600
2020/01/31 16:18:19.5	359.040	0.470	-0.580	0.580
2020/01/31 16:18:19.6	359.060	0.450	-0.580	0.560
2020/01/31 16:18:19.7	359.080	0.420	-0.570	0.520
2020/01/31 16:18:19.8	359.100	0.390	-0.570	0.480
2020/01/31 16:18:19.9	359.130	0.360	-0.570	0.430
2020/01/31 16:18:20.0	359.160	0.320	-0.560	0.390
2020/01/31 16:18:20.1	359.190	0.280	-0.560	0.330
2020/01/31 16:18:20.2	359.220	0.240	-0.550	0.280
2020/01/31 16:18:20.3	359.250	0.200	-0.550	0.220
2020/01/31 16:18:20.4	359.280	0.150	-0.540	0.160
2020/01/31 16:18:20.5	359.310	0.110	-0.530	0.100
2020/01/31 16:18:20.6	359.340	0.060	-0.520	0.040
2020/01/31 16:18:20.7	359.390	0.010	-0.510	-0.020
2020/01/31 16:18:20.8	359.420	-0.040	-0.490	-0.080
2020/01/31 16:18:20.9	359.450	-0.090	-0.480	-0.140
2020/01/31 16:18:21.0	359.470	-0.140	-0.460	-0.190
2020/01/31 16:18:21.1	359.500	-0.180	-0.440	-0.240
2020/01/31 16:18:21.2	359.520	-0.230	-0.420	-0.290
2020/01/31 16:18:21.3	359.540	-0.280	-0.400	-0.340
2020/01/31 16:18:21.4	359.560	-0.320	-0.380	-0.390
2020/01/31 16:18:21.5	359.580	-0.370	-0.360	-0.430
2020/01/31 16:18:21.6	359.600	-0.410	-0.340	-0.470
2020/01/31 16:18:21.7	359.630	-0.440	-0.310	-0.510
2020/01/31 16:18:21.8	359.650	-0.480	-0.290	-0.540
2020/01/31 16:18:21.9	359.660	-0.510	-0.260	-0.570
2020/01/31 16:18:22.0	359.680	-0.540	-0.240	-0.600
2020/01/31 16:18:22.1	359.700	-0.560	-0.220	-0.620
2020/01/31 16:18:22.2	359.720	-0.580	-0.200	-0.640
2020/01/31 16:18:22.3	359.740	-0.600	-0.180	-0.660
2020/01/31 16:18:22.4	359.750	-0.610	-0.160	-0.680
2020/01/31 16:18:22.5	359.770	-0.610	-0.140	-0.690
2020/01/31 16:18:22.6	359.790	-0.610	-0.130	-0.700
2020/01/31 16:18:22.7	359.800	-0.610	-0.110	-0.700
2020/01/31 16:18:22.8	359.820	-0.600	-0.100	-0.710
2020/01/31 16:18:22.9	359.830	-0.590	-0.090	-0.710
2020/01/31 16:18:23.0	359.850	-0.570	-0.080	-0.710
2020/01/31 16:18:23.1	359.860	-0.550	-0.080	-0.700
2020/01/31 16:18:23.2	359.870	-0.520	-0.080	-0.690
2020/01/31 16:18:23.3	359.880	-0.490	-0.070	-0.680
2020/01/31 16:18:23.4	359.890	-0.460	-0.070	-0.660
2020/01/31 16:18:23.5	359.900	-0.420	-0.080	-0.640
2020/01/31 16:18:23.6	359.910	-0.380	-0.080	-0.620
2020/01/31 16:18:23.7	359.910	-0.330	-0.080	-0.600
2020/01/31 16:18:23.8	359.910	-0.290	-0.090	-0.560
2020/01/31 16:18:23.9	359.910	-0.230	-0.090	-0.530
2020/01/31 16:18:24.0	359.910	-0.180	-0.100	-0.490
2020/01/31 16:18:24.1	359.910	-0.130	-0.110	-0.450
2020/01/31 16:18:24.2	359.910	-0.070	-0.110	-0.410
2020/01/31 16:18:24.3	359.900	-0.010	-0.120	-0.370
2020/01/31 16:18:24.4	359.900	0.040	-0.130	-0.320
2020/01/31 16:18:24.5	359.900	0.100	-0.130	-0.270
2020/01/31 16:18:24.6	359.890	0.160	-0.140	-0.220
2020/01/31 16:18:24.7	359.890	0.220	-0.140	-0.170
2020/01/31 16:18:24.8	359.890	0.270	-0.150	-0.120
2020/01/31 16:18:24.9	359.880	0.320	-0.150	-0.070
2020/01/31 16:18:25.0	359.870	0.380	-0.160	-0.020
2020/01/31 16:18:25.1	359.870	0.420	-0.160	0.030
2020/01/31 16:18:25.2	359.860	0.470	-0.160	0.080
2020/01/31 16:18:25.3	359.850	0.510	-0.160	0.140
2020/01/31 16:18:25.4	359.840	0.550	-0.160	0.180
2020/01/31 16:18:25.5	359.830	0.590	-0.160	0.230
2020/01/31 16:18:25.6	359.820	0.620	-0.160	0.280
2020/01/31 16:18:25.7	359.810	0.640	-0.160	0.330
2020/01/31 16:18:25.8	359.790	0.660	-0.150	0.370
2020/01/31 16:18:25.9	359.780	0.680	-0.150	0.410
2020/01/31 16:18:26.0	359.760	0.690	-0.140	0.440
2020/01/31 16:18:26.1	359.740	0.690	-0.130	0.480
2020/01/31 16:18:26.2	359.710	0.690	-0.120	0.510
2020/01/31 16:18:26.3	359.690	0.690	-0.110	0.530
2020/01/31 16:18:26.4	359.670	0.680	-0.100	0.550
2020/01/31 16:18:26.5	359.640	0.670	-0.090	0.570
2020/01/31 16:18:26.6	359.620	0.650	-0.070	0.580
2020/01/31 16:18:26.7	359.590	0.630	-0.060	0.580
2020/01/31 16:18:26.8	359.560	0.600	-0.040	0.580
2020/01/31 16:18:26.9	359.530	0.580	-0.030	0.570
2020/01/31 16:18:27.0	359.510	0.550	-0.020	0.560
2020/01/31 16:18:27.1	359.480	0.510	-0.010	0.550
2020/01/31 16:18:27.2	359.460	0.480	0.000	0.530
2020/01/31 16:18:27.3	359.430	0.440	0.010	0.500
2020/01/31 16:18:27.4	359.410	0.400	0.020	0.470
2020/01/31 16:18:27.5	359.390	0.360	0.030	0.440
2020/01/31 16:18:27.6	359.370	0.320	0.040	0.400
2020/01/31 16:18:27.7	359.350	0.280	0.040	0.360
2020/01/31 16:18:27.8	359.340	0.240	0.040	0.320
2020/01/31 16:18:27.9	359.330	0.200	0.040	0.280
2020/01/31 16:18:28.0	359.320	0.160	0.050	0.230
2020/01/31 16:18:28.1	359.310	0.130	0.040	0.190
2020/01/31 16:18:28.2	359.310	0.090	0.040	0.140
2020/01/31 16:18:28.3	359.310	0.060	0.040	0.100
2020/01/31 16:18:28.4	359.310	0.030	0.030	0.050
2020/01/31 16:18:28.5	359.320	0.000	0.020	0.010
2020/01/31 16:18:28.6	359.330	-0.020	0.010	-0.040
2020/01/31 16:18:28.7	359.340	-0.040	-0.010	-0.090
2020/01/31 16:18:28.8	359.350	-0.060	-0.020	-0.140
2020/01/31 16:18:28.9	359.370	-0.080	-0.040	-0.190
2020/01/31 16:18:29.0	359.390	-0.090	-0.060	-0.240
2020/01/31 16:18:29.1	359.420	-0.110	-0.080	-0.290
2020/01/31 16:18:29.2	359.440	-0.120	-0.110	-0.340
2020/01/31 16:18:29.3	359.470	-0.130	-0.130	-0.380
2020/01/31 16:18:29.4	359.500	-0.140	-0.160	-0.430
2020/01/31 16:18:29.5	359.530	-0.150	-0.180	-0.480
2020/01/31 16:18:29.6	359.570	-0.150	-0.210	-0.530
2020/01/31 16:18:29.7	359.600	-0.160	-0.240	-0.580
2020/01/31 16:18:29.8	359.640	-0.160	-0.270	-0.630
2020/01/31 16:18:29.9	359.670	-0.170	-0.300	-0.670
2020/01/31 16:18:30.0	359.710	-0.170	-0.330	-0.720
2020/01/31 16:18:30.1	359.750	-0.180	-0.360	-0.760
2020/01/31 16:18:30.2	359.790	-0.180	-0.390	-0.800
2020/01/31 16:18:30.3	359.820	-0.190	-0.420	-0.830
2020/01/31 16:18:30.4	359.860	-0.190	-0.440	-0.870
2020/01/31 16:18:30.5	359.900	-0.200	-0.470	-0.900
2020/01/31 16:18:30.6	359.940	-0.200	-0.490	-0.930
2020/01/31 16:18:30.7	359.980	-0.210	-0.510	-0.960
2020/01/31 16:18:30.8	0.010	-0.210	-0.530	-0.980
2020/01/31 16:18:30.9	0.050	-0.220	-0.550	-1.000
2020/01/31 16:18:31.0	0.090	-0.230	-0.570	-1.020
2020/01/31 16:18:31.1	0.130	-0.240	-0.580	-1.040
2020/01/31 16:18:31.2	0.160	-0.250	-0.590	-1.060
2020/01/31 16:18:31.3	0.200	-0.260	-0.600	-1.070
2020/01/31 16:18:31.4	0.230	-0.270	-0.600	-1.090
2020/01/31 16:18:31.5	0.270	-0.280	-0.610	-1.100
2020/01/31 16:18:31.6	0.300	-0.300	-0.610	-1.110
2020/01/31 16:18:31.7	0.320	-0.310	-0.600	-1.110
2020/01/31 16:18:31.8	0.340	-0.320	-0.600	-1.120
2020/01/31 16:18:31.9	0.370	-0.330	-0.590	-1.120
2020/01/31 16:18:32.0	0.390	-0.350	-0.590	-1.120
2020/01/31 16:18:32.1	0.410	-0.360	-0.570	-1.120
2020/01/31 16:18:32.2	0.430	-0.370	-0.560	-1.110
2020/01/31 16:18:32.3	0.440	-0.380	-0.550	-1.110
2020/01/31 16:18:32.4	0.450	-0.400	-0.530	-1.100
2020/01/31 16:18:32.5	0.460	-0.410	-0.510	-1.100
2020/01/31 16:18:32.6	0.460	-0.410	-0.490	-1.090
2020/01/31 16:18:32.7	0.470	-0.420	-0.470	-1.080
2020/01/31 16:18:32.8	0.470	-0.430	-0.440	-1.060
2020/01/31 16:18:32.9	0.460	-0.430	-0.420	-1.050
2020/01/31 16:18:33.0	0.460	-0.430	-0.390	-1.040
2020/01/31 16:18:33.1	0.450	-0.430	-0.370	-1.020
2020/01/31 16:18:33.2	0.430	-0.430	-0.340	-1.000
2020/01/31 16:18:33.3	0.420	-0.420	-0.310	-0.980
2020/01/31 16:18:33.4	0.400	-0.420	-0.280	-0.960
2020/01/31 16:18:33.5	0.390	-0.410	-0.250	-0.930
2020/01/31 16:18:33.6	0.370	-0.390	-0.230	-0.910
2020/01/31 16:18:33.7	0.340	-0.380	-0.200	-0.880
2020/01/31 16:18:33.8	0.320	-0.360	-0.170	-0.860
2020/01/31 16:18:33.9	0.300	-0.340	-0.150	-0.830
2020/01/31 16:18:34.0	0.270	-0.310	-0.120	-0.800
2020/01/31 16:18:34.1	0.250	-0.290	-0.100	-0.770
2020/01/31 16:18:34.2	0.230	-0.260	-0.090	-0.740
2020/01/31 16:18:34.3	0.210	-0.230	-0.070	-0.710
2020/01/31 16:18:34.4	0.190	-0.190	-0.060	-0.680
2020/01/31 16:18:34.5	0.180	-0.160	-0.050	-0.650
2020/01/31 16:18:34.6	0.160	-0.120	-0.050	-0.630
2020/01/31 16:18:34.7	0.150	-0.080	-0.050	-0.600
2020/01/31 16:18:34.8	0.140	-0.040	-0.060	-0.580
2020/01/31 16:18:34.9	0.130	0.000	-0.060	-0.550
2020/01/31 16:18:35.0	0.130	0.050	-0.070	-0.530
2020/01/31 16:18:35.1	0.120	0.090	-0.080	-0.510
2020/01/31 16:18:35.2	0.110	0.130	-0.100	-0.480
2020/01/31 16:18:35.3	0.100	0.170	-0.110	-0.460
2020/01/31 16:18:35.4	0.090	0.210	-0.130	-0.440
2020/01/31 16:18:35.5	0.080	0.250	-0.150	-0.410
2020/01/31 16:18:35.6	0.070	0.290	-0.170	-0.390
2020/01/31 16:18:35.7	0.050	0.330	-0.180	-0.370
2020/01/31 16:18:35.8	0.030	0.360	-0.200	-0.350
2020/01/31 16:18:35.9	0.020	0.390	-0.220	-0.330
2020/01/31 16:18:36.0	0.000	0.420	-0.230	-0.310
2020/01/31 16:18:36.1	359.980	0.440	-0.250	-0.290
2020/01/31 16:18:36.2	359.960	0.460	-0.260	-0.270
2020/01/31 16:18:36.3	359.940	0.470	-0.270	-0.250
2020/01/31 16:18:36.4	359.910	0.480	-0.280	-0.240
2020/01/31 16:18:36.5	359.890	0.490	-0.280	-0.220
2020/01/31 16:18:36.6	359.860	0.490	-0.280	-0.200
2020/01/31 16:18:36.7	359.830	0.490	-0.280	-0.190
2020/01/31 16:18:36.8	359.800	0.490	-0.280	-0.180
2020/01/31 16:18:36.9	359.780	0.480	-0.280	-0.170
2020/01/31 16:18:37.0	359.750	0.470	-0.270	-0.150
2020/01/31 16:18:37.1	359.730	0.450	-0.260	-0.140
2020/01/31 16:18:37.2	359.700	0.430	-0.250	-0.130
2020/01/31 16:18:37.3	359.680	0.410	-0.240	-0.130
2020/01/31 16:18:37.4	359.660	0.380	-0.230	-0.120
2020/01/31 16:18:37.5	359.640	0.360	-0.220	-0.110
2020/01/31 16:18:37.6	359.630	0.330	-0.200	-0.110
2020/01/31 16:18:37.7	359.610	0.290	-0.190	-0.110
2020/01/31 16:18:37.8	359.600	0.260	-0.180	-0.110
2020/01/31 16:18:37.9	359.590	0.220	-0.170	-0.120
2020/01/31 16:18:38.0	359.580	0.190	-0.160	-0.130
2020/01/31 16:18:38.1	359.580	0.150	-0.150	-0.130
2020/01/31 16:18:38.2	359.580	0.110	-0.140	-0.150
2020/01/31 16:18:38.3	359.580	0.080	-0.130	-0.160
2020/01/31 16:18:38.4	359.590	0.040	-0.130	-0.180
2020/01/31 16:18:38.5	359.600	0.000	-0.120	-0.200
2020/01/31 16:18:38.6	359.600	-0.030	-0.120	-0.220
2020/01/31 16:18:38.7	359.610	-0.070	-0.120	-0.250
2020/01/31 16:18:38.8	359.620	-0.100	-0.120	-0.280
2020/01/31 16:18:38.9	359.630	-0.130	-0.120	-0.310
2020/01/31 16:18:39.0	359.640	-0.160	-0.120	-0.330
2020/01/31 16:18:39.1	359.650	-0.190	-0.130	-0.370
2020/01/31 16:18:39.2	359.670	-0.210	-0.130	-0.400
2020/01/31 16:18:39.3	359.680	-0.230	-0.140	-0.430
2020/01/31 16:18:39.4	359.690	-0.250	-0.140	-0.460
2020/01/31 16:18:39.5	359.700	-0.270	-0.150	-0.490
2020/01/31 16:18:39.6	359.710	-0.280	-0.150	-0.520
2020/01/31 16:18:39.7	359.730	-0.290	-0.160	-0.550
2020/01/31 16:18:39.8	359.740	-0.300	-0.170	-0.580
2020/01/31 16:18:39.9	359.750	-0.300	-0.170	-0.610
2020/01/31 16:18:40.0	359.760	-0.300	-0.180	-0.640
2020/01/31 16:18:40.1	359.770	-0.300	-0.190	-0.660
2020/01/31 16:18:40.2	359.780	-0.290	-0.200	-0.680
2020/01/31 16:18:40.3	359.790	-0.280	-0.200	-0.710
2020/01/31 16:18:40.4	359.790	-0.270	-0.210	-0.720
2020/01/31 16:18:40.5	359.800	-0.250	-0.210	-0.740
2020/01/31 16:18:40.6	359.810	-0.230	-0.210	-0.750
2020/01/31 16:18:40.7	359.810	-0.210	-0.220	-0.760
2020/01/31 16:18:40.8	359.820	-0.190	-0.220	-0.770
2020/01/31 16:18:40.9	359.820	-0.160	-0.220	-0.770
2020/01/31 16:18:41.0	359.830	-0.140	-0.210	-0.770
2020/01/31 16:18:41.1	359.830	-0.110	-0.210	-0.760
2020/01/31 16:18:41.2	359.830	-0.080	-0.200	-0.750
2020/01/31 16:18:41.3	359.840	-0.050	-0.190	-0.740
2020/01/31 16:18:41.4	359.840	-0.010	-0.180	-0.720
2020/01/31 16:18:41.5	359.830	0.020	-0.170	-0.700
2020/01/31 16:18:41.6	359.830	0.050	-0.160	-0.680
2020/01/31 16:18:41.7	359.810	0.080	-0.140	-0.650
2020/01/31 16:18:41.8	359.800	0.110	-0.120	-0.620
2020/01/31 16:18:41.9	359.790	0.140	-0.110	-0.580
2020/01/31 16:18:42.0	359.770	0.170	-0.090	-0.540
2020/01/31 16:18:42.1	359.750	0.200	-0.070	-0.500
2020/01/31 16:18:42.2	359.730	0.220	-0.050	-0.460
2020/01/31 16:18:42.3	359.710	0.240	-0.040	-0.410
2020/01/31 16:18:42.4	359.680	0.260	-0.020	-0.370
2020/01/31 16:18:42.5	359.650	0.280	-0.010	-0.320
2020/01/31 16:18:42.6	359.620	0.290	0.000	-0.280
2020/01/31 16:18:42.7	359.600	0.300	0.010	-0.240
2020/01/31 16:18:42.8	359.570	0.300	0.020	-0.200
2020/01/31 16:18:42.9	359.530	0.310	0.020	-0.160
2020/01/31 16:18:43.0	359.500	0.310	0.020	-0.130
2020/01/31 16:18:43.1	359.470	0.300	0.020	-0.100
2020/01/31 16:18:43.2	359.430	0.290	0.010	-0.070
2020/01/31 16:18:43.3	359.400	0.280	-0.000	-0.050
2020/01/31 16:18:43.4	359.370	0.270	-0.010	-0.030
2020/01/31 16:18:43.5	359.340	0.250	-0.030	-0.020
2020/01/31 16:18:43.6	359.310	0.230	-0.050	-0.010
2020/01/31 16:18:43.7	359.290	0.210	-0.070	-0.010
2020/01/31 16:18:43.8	359.270	0.190	-0.100	-0.010
2020/01/31 16:18:43.9	359.240	0.160	-0.130	-0.010
2020/01/31 16:18:44.0	359.230	0.140	-0.160	-0.020
2020/01/31 16:18:44.1	359.210	0.110	-0.190	-0.040
2020/01/31 16:18:44.2	359.200	0.080	-0.230	-0.050
2020/01/31 16:18:44.3	359.180	0.050	-0.270	-0.080
2020/01/31 16:18:44.4	359.180	0.020	-0.300	-0.100
2020/01/31 16:18:44.5	359.170	-0.010	-0.350	-0.130
2020/01/31 16:18:44.6	359.170	-0.040	-0.390	-0.160
2020/01/31 16:18:44.7	359.150	-0.070	-0.430	-0.200
2020/01/31 16:18:44.8	359.160	-0.100	-0.470	-0.240
2020/01/31 16:18:44.9	359.160	-0.120	-0.510	-0.280
2020/01/31 16:18:45.0	359.170	-0.150	-0.550	-0.320
2020/01/31 16:18:45.1	359.180	-0.170	-0.590	-0.360
2020/01/31 16:18:45.2	359.190	-0.200	-0.620	-0.410
2020/01/31 16:18:45.3	359.210	-0.220	-0.660	-0.450
2020/01/31 16:18:45.4	359.220	-0.230	-0.690	-0.500
2020/01/31 16:18:45.5	359.240	-0.250	-0.720	-0.550
2020/01/31 16:18:45.6	359.260	-0.260	-0.750	-0.600
2020/01/31 16:18:45.7	359.280	-0.270	-0.770	-0.650
2020/01/31 16:18:45.8	359.300	-0.280	-0.800	-0.690
2020/01/31 16:18:45.9	359.320	-0.290	-0.820	-0.740
2020/01/31 16:18:46.0	359.340	-0.290	-0.830	-0.790
2020/01/31 16:18:46.1	359.370	-0.290	-0.850	-0.830
2020/01/31 16:18:46.2	359.390	-0.290	-0.860	-0.870
2020/01/31 16:18:46.3	359.420	-0.290	-0.860	-0.910
2020/01/31 16:18:46.4	359.450	-0.290	-0.870	-0.940
2020/01/31 16:18:46.5	359.470	-0.280	-0.860	-0.980
2020/01/31 16:18:46.6	359.500	-0.270	-0.860	-1.010
2020/01/31 16:18:46.7	359.530	-0.260	-0.850	-1.040
2020/01/31 16:18:46.8	359.560	-0.250	-0.830	-1.060
2020/01/31 16:18:46.9	359.580	-0.240	-0.820	-1.080
2020/01/31 16:18:47.0	359.610	-0.230	-0.790	-1.100
2020/01/31 16:18:47.1	359.640	-0.210	-0.760	-1.110
2020/01/31 16:18:47.2	359.660	-0.200	-0.730	-1.120
2020/01/31 16:18:47.3	359.680	-0.190	-0.700	-1.130
2020/01/31 16:18:47.4	359.700	-0.170	-0.660	-1.130
2020/01/31 16:18:47.5	359.720	-0.150	-0.620	-1.130
2020/01/31 16:18:47.6	359.740	-0.140	-0.570	-1.120
2020/01/31 16:18:47.7	359.760	-0.120	-0.530	-1.110
2020/01/31 16:18:47.8	359.780	-0.110	-0.480	-1.100
2020/01/31 16:18:47.9	359.790	-0.090	-0.420	-1.080
2020/01/31 16:18:48.0	359.800	-0.080	-0.370	-1.050
2020/01/31 16:18:48.1	359.800	-0.060	-0.320	-1.020
2020/01/31 16:18:48.2	359.810	-0.050	-0.260	-0.990
2020/01/31 16:18:48.3	359.810	-0.030	-0.200	-0.950
2020/01/31 16:18:48.4	359.810	-0.020	-0.150	-0.910
2020/01/31 16:18:48.5	359.800	-0.010	-0.090	-0.860
2020/01/31 16:18:48.6	359.790	0.010	-0.030	-0.810
2020/01/31 16:18:48.7	359.780	0.020	0.020	-0.760
2020/01/31 16:18:48.8	359.770	0.030	0.080	-0.700
2020/01/31 16:18:48.9	359.760	0.040	0.130	-0.640
2020/01/31 16:18:49.0	359.740	0.050	0.180	-0.580
2020/01/31 16:18:49.1	359.720	0.070	0.230	-0.510
2020/01/31 16:18:49.2	359.700	0.080	0.280	-0.440
2020/01/31 16:18:49.3	359.680	0.090	0.320	-0.370
2020/01/31 16:18:49.4	359.660	0.100	0.370	-0.300
2020/01/31 16:18:49.5	359.640	0.110	0.410	-0.220
2020/01/31 16:18:49.6	359.610	0.120	0.440	-0.150
2020/01/31 16:18:49.7	359.580	0.140	0.470	-0.080
2020/01/31 16:18:49.8	359.560	0.150	0.500	-0.000
2020/01/31 16:18:49.9	359.530	0.160	0.520	0.070
2020/01/31 16:18:50.0	359.510	0.170	0.540	0.140
2020/01/31 16:18:50.1	359.480	0.180	0.550	0.210
2020/01/31 16:18:50.2	359.460	0.190	0.560	0.280
2020/01/31 16:18:50.3	359.440	0.200	0.560	0.350
2020/01/31 16:18:50.4	359.410	0.210	0.560	0.410
2020/01/31 16:18:50.5	359.390	0.220	0.550	0.470
2020/01/31 16:18:50.6	359.360	0.230	0.540	0.520
2020/01/31 16:18:50.7	359.350	0.240	0.520	0.570
2020/01/31 16:18:50.8	359.320	0.240	0.500	0.610
2020/01/31 16:18:50.9	359.300	0.250	0.470	0.650
2020/01/31 16:18:51.0	359.290	0.250	0.440	0.680
2020/01/31 16:18:51.1	359.270	0.250	0.410	0.700
2020/01/31 16:18:51.2	359.250	0.260	0.370	0.710
2020/01/31 16:18:51.3	359.240	0.250	0.320	0.720
2020/01/31 16:18:51.4	359.230	0.250	0.280	0.720
2020/01/31 16:18:51.5	359.220	0.250	0.230	0.710
2020/01/31 16:18:51.6	359.210	0.240	0.170	0.700
2020/01/31 16:18:51.7	359.200	0.230	0.120	0.680
2020/01/31 16:18:51.8	359.190	0.220	0.060	0.660
2020/01/31 16:18:51.9	359.190	0.210	0.010	0.630
2020/01/31 16:18:52.0	359.190	0.190	-0.050	0.590
2020/01/31 16:18:52.1	359.180	0.170	-0.110	0.560
2020/01/31 16:18:52.2	359.190	0.160	-0.170	0.520
2020/01/31 16:18:52.3	359.190	0.140	-0.230	0.470
2020/01/31 16:18:52.4	359.190	0.110	-0.290	0.430
2020/01/31 16:18:52.5	359.190	0.090	-0.340	0.380
2020/01/31 16:18:52.6	359.200	0.070	-0.400	0.320
2020/01/31 16:18:52.7	359.210	0.040	-0.440	0.270
2020/01/31 16:18:52.8	359.210	0.010	-0.490	0.210
2020/01/31 16:18:52.9	359.220	-0.010	-0.540	0.160
2020/01/31 16:18:53.0	359.220	-0.040	-0.580	0.100
2020/01/31 16:18:53.1	359.230	-0.070	-0.620	0.050
2020/01/31 16:18:53.2	359.240	-0.090	-0.650	-0.010
2020/01/31 16:18:53.3	359.240	-0.120	-0.680	-0.070
2020/01/31 16:18:53.4	359.250	-0.150	-0.710	-0.130
2020/01/31 16:18:53.5	359.260	-0.170	-0.730	-0.190
2020/01/31 16:18:53.6	359.260	-0.200	-0.750	-0.250
2020/01/31 16:18:53.7	359.270	-0.220	-0.760	-0.320
2020/01/31 16:18:53.8	359.280	-0.240	-0.770	-0.380
2020/01/31 16:18:53.9	359.290	-0.260	-0.780	-0.440
2020/01/31 16:18:54.0	359.300	-0.280	-0.780	-0.500
2020/01/31 16:18:54.1	359.310	-0.290	-0.780	-0.560
2020/01/31 16:18:54.2	359.320	-0.300	-0.780	-0.620
2020/01/31 16:18:54.3	359.330	-0.310	-0.780	-0.670
2020/01/31 16:18:54.4	359.340	-0.310	-0.770	-0.720
2020/01/31 16:18:54.5	359.360	-0.310	-0.760	-0.770
2020/01/31 16:18:54.6	359.370	-0.310	-0.750	-0.820
2020/01/31 16:18:54.7	359.400	-0.310	-0.740	-0.860
2020/01/31 16:18:54.8	359.420	-0.300	-0.730	-0.900
2020/01/31 16:18:54.9	359.440	-0.290	-0.720	-0.940
2020/01/31 16:18:55.0	359.450	-0.270	-0.710	-0.970
2020/01/31 16:18:55.1	359.470	-0.250	-0.690	-1.000
2020/01/31 16:18:55.2	359.490	-0.230	-0.680	-1.020
2020/01/31 16:18:55.3	359.500	-0.210	-0.660	-1.040
2020/01/31 16:18:55.4	359.520	-0.190	-0.650	-1.050
2020/01/31 16:18:55.5	359.530	-0.160	-0.630	-1.060
2020/01/31 16:18:55.6	359.540	-0.130	-0.610	-1.060
2020/01/31 16:18:55.7	359.560	-0.110	-0.600	-1.060
2020/01/31 16:18:55.8	359.570	-0.080	-0.580	-1.060
2020/01/31 16:18:55.9	359.570	-0.050	-0.560	-1.050
2020/01/31 16:18:56.0	359.580	-0.020	-0.530	-1.040
2020/01/31 16:18:56.1	359.580	0.010	-0.510	-1.020
2020/01/31 16:18:56.2	359.580	0.040	-0.480	-1.000
2020/01/31 16:18:56.3	359.580	0.060	-0.460	-0.980
2020/01/31 16:18:56.4	359.580	0.080	-0.430	-0.950
2020/01/31 16:18:56.5	359.580	0.110	-0.400	-0.930
2020/01/31 16:18:56.6	359.570	0.130	-0.370	-0.900
2020/01/31 16:18:56.7	359.570	0.140	-0.340	-0.860
2020/01/31 16:18:56.8	359.560	0.160	-0.300	-0.830
2020/01/31 16:18:56.9	359.550	0.170	-0.270	-0.800
2020/01/31 16:18:57.0	359.530	0.180	-0.230	-0.770
2020/01/31 16:18:57.1	359.520	0.190	-0.200	-0.730
2020/01/31 16:18:57.2	359.510	0.190	-0.160	-0.700
2020/01/31 16:18:57.3	359.490	0.190	-0.130	-0.660
2020/01/31 16:18:57.4	359.480	0.190	-0.100	-0.630
2020/01/31 16:18:57.5	359.470	0.190	-0.070	-0.590
2020/01/31 16:18:57.6	359.450	0.180	-0.040	-0.550
2020/01/31 16:18:57.7	359.430	0.180	-0.010	-0.520
2020/01/31 16:18:57.8	359.420	0.170	0.020	-0.480
2020/01/31 16:18:57.9	359.410	0.160	0.040	-0.450
2020/01/31 16:18:58.0	359.400	0.140	0.060	-0.410
2020/01/31 16:18:58.1	359.390	0.130	0.070	-0.370
2020/01/31 16:18:58.2	359.380	0.120	0.080	-0.340
2020/01/31 16:18:58.3	359.380	0.100	0.090	-0.300
2020/01/31 16:18:58.4	359.370	0.090	0.090	-0.270
2020/01/31 16:18:58.5	359.370	0.070	0.090	-0.240
2020/01/31 16:18:58.6	359.370	0.060	0.090	-0.210
2020/01/31 16:18:58.7	359.370	0.040	0.080	-0.190
2020/01/31 16:18:58.8	359.370	0.030	0.060	-0.170
2020/01/31 16:18:58.9	359.370	0.010	0.050	-0.150
2020/01/31 16:18:59.0	359.380	-0.000	0.030	-0.130
2020/01/31 16:18:59.1	359.390	-0.010	0.000	-0.120
2020/01/31 16:18:59.2	359.400	-0.020	-0.030	-0.110
2020/01/31 16:18:59.3	359.410	-0.030	-0.050	-0.110
2020/01/31 16:18:59.4	359.430	-0.040	-0.090	-0.100
2020/01/31 16:18:59.5	359.440	-0.040	-0.120	-0.110
2020/01/31 16:18:59.6	359.460	-0.050	-0.150	-0.110
2020/01/31 16:18:59.7	359.480	-0.050	-0.190	-0.120
2020/01/31 16:18:59.8	359.490	-0.050	-0.220	-0.120
2020/01/31 16:18:59.9	359.510	-0.050	-0.250	-0.130
2020/01/31 16:19:00.0	359.530	-0.050	-0.290	-0.140
2020/01/31 16:19:00.1	359.540	-0.040	-0.320	-0.150
2020/01/31 16:19:00.2	359.550	-0.040	-0.340	-0.160
2020/01/31 16:19:00.3	359.560	-0.030	-0.370	-0.170
2020/01/31 16:19:00.4	359.570	-0.020	-0.390	-0.170
2020/01/31 16:19:00.5	359.580	-0.010	-0.400	-0.170
2020/01/31 16:19:00.6	359.580	0.000	-0.410	-0.170
2020/01/31 16:19:00.7	359.570	0.010	-0.420	-0.180
2020/01/31 16:19:00.8	359.570	0.020	-0.420	-0.180
2020/01/31 16:19:00.9	359.570	0.040	-0.420	-0.170
2020/01/31 16:19:01.0	359.560	0.050	-0.420	-0.160
2020/01/31 16:19:01.1	359.550	0.060	-0.410	-0.150
2020/01/31 16:19:01.2	359.540	0.070	-0.390	-0.140
2020/01/31 16:19:01.3	359.530	0.090	-0.380	-0.130
2020/01/31 16:19:01.4	359.510	0.100	-0.350	-0.120
2020/01/31 16:19:01.5	359.490	0.110	-0.330	-0.100
2020/01/31 16:19:01.6	359.470	0.120	-0.300	-0.090
2020/01/31 16:19:01.7	359.460	0.130	-0.280	-0.060
2020/01/31 16:19:01.8	359.430	0.140	-0.250	-0.040
2020/01/31 16:19:01.9	359.410	0.140	-0.220	-0.020
2020/01/31 16:19:02.0	359.380	0.150	-0.180	-0.000
2020/01/31 16:19:02.1	359.360	0.160	-0.150	0.020
2020/01/31 16:19:02.2	359.330	0.160	-0.120	0.040
2020/01/31 16:19:02.3	359.300	0.160	-0.080	0.060
2020/01/31 16:19:02.4	359.270	0.170	-0.050	0.080
2020/01/31 16:19:02.5	359.240	0.170	-0.020	0.100
2020/01/31 16:19:02.6	359.220	0.170	0.010	0.120
2020/01/31 16:19:02.7	359.180	0.170	0.040	0.140
2020/01/31 16:19:02.8	359.150	0.170	0.070	0.150
2020/01/31 16:19:02.9	359.120	0.160	0.090	0.170
2020/01/31 16:19:03.0	359.100	0.160	0.110	0.180
2020/01/31 16:19:03.1	359.070	0.160	0.130	0.200
2020/01/31 16:19:03.2	359.050	0.150	0.140	0.210
2020/01/31 16:19:03.3	359.030	0.150	0.150	0.210
2020/01/31 16:19:03.4	359.010	0.150	0.160	0.220
2020/01/31 16:19:03.5	358.990	0.140	0.170	0.220
2020/01/31 16:19:03.6	358.970	0.130	0.170	0.230
2020/01/31 16:19:03.7	358.940	0.130	0.160	0.230
2020/01/31 16:19:03.8	358.930	0.120	0.160	0.220
2020/01/31 16:19:03.9	358.910	0.110	0.150	0.220
2020/01/31 16:19:04.0	358.900	0.100	0.140	0.210
2020/01/31 16:19:04.1	358.880	0.090	0.130	0.200
2020/01/31 16:19:04.2	358.870	0.080	0.110	0.190
2020/01/31 16:19:04.3	358.860	0.070	0.100	0.170
2020/01/31 16:19:04.4	358.850	0.060	0.080	0.160
2020/01/31 16:19:04.5	358.840	0.040	0.070	0.140
2020/01/31 16:19:04.6	358.830	0.030	0.050	0.120
2020/01/31 16:19:04.7	358.820	0.010	0.030	0.100
2020/01/31 16:19:04.8	358.810	-0.010	0.020	0.080
2020/01/31 16:19:04.9	358.800	-0.030	0.000	0.050
2020/01/31 16:19:05.0	358.790	-0.050	-0.010	0.030
2020/01/31 16:19:05.1	358.780	-0.070	-0.030	0.010
2020/01/31 16:19:05.2	358.770	-0.090	-0.040	-0.020
2020/01/31 16:19:05.3	358.760	-0.120	-0.060	-0.040
2020/01/31 16:19:05.4	358.750	-0.140	-0.070	-0.070
2020/01/31 16:19:05.5	358.740	-0.170	-0.090	-0.100
2020/01/31 16:19:05.6	358.730	-0.190	-0.100	-0.130
2020/01/31 16:19:05.7	358.730	-0.220	-0.110	-0.150
2020/01/31 16:19:05.8	358.730	-0.240	-0.130	-0.180
2020/01/31 16:19:05.9	358.720	-0.260	-0.140	-0.210
2020/01/31 16:19:06.0	358.720	-0.290	-0.160	-0.240
2020/01/31 16:19:06.1	358.720	-0.310	-0.180	-0.270
2020/01/31 16:19:06.2	358.720	-0.330	-0.200	-0.300
2020/01/31 16:19:06.3	358.730	-0.350	-0.220	-0.340
2020/01/31 16:19:06.4	358.730	-0.360	-0.240	-0.370
2020/01/31 16:19:06.5	358.740	-0.380	-0.270	-0.400
2020/01/31 16:19:06.6	358.750	-0.390	-0.300	-0.430
2020/01/31 16:19:06.7	358.750	-0.400	-0.330	-0.470
2020/01/31 16:19:06.8	358.770	-0.400	-0.360	-0.510
2020/01/31 16:19:06.9	358.780	-0.400	-0.400	-0.540
2020/01/31 16:19:07.0	358.800	-0.400	-0.440	-0.570
2020/01/31 16:19:07.1	358.830	-0.390	-0.480	-0.610
2020/01/31 16:19:07.2	358.850	-0.380	-0.520	-0.640
2020/01/31 16:19:07.3	358.880	-0.370	-0.560	-0.670
2020/01/31 16:19:07.4	358.910	-0.350	-0.600	-0.710
2020/01/31 16:19:07.5	358.930	-0.330	-0.640	-0.740
2020/01/31 16:19:07.6	358.960	-0.310	-0.690	-0.770
2020/01/31 16:19:07.7	359.000	-0.280	-0.730	-0.800
2020/01/31 16:19:07.8	359.030	-0.250	-0.770	-0.820
2020/01/31 16:19:07.9	359.060	-0.220	-0.810	-0.850
2020/01/31 16:19:08.0	359.090	-0.180	-0.850	-0.870
2020/01/31 16:19:08.1	359.120	-0.150	-0.880	-0.890
2020/01/31 16:19:08.2	359.150	-0.110	-0.910	-0.910
2020/01/31 16:19:08.3	359.170	-0.070	-0.930	-0.920
2020/01/31 16:19:08.4	359.190	-0.020	-0.950	-0.920
2020/01/31 16:19:08.5	359.220	0.020	-0.970	-0.930
2020/01/31 16:19:08.6	359.230	0.060	-0.980	-0.930
2020/01/31 16:19:08.7	359.240	0.100	-0.990	-0.920
2020/01/31 16:19:08.8	359.260	0.140	-0.980	-0.910
2020/01/31 16:19:08.9	359.270	0.180	-0.980	-0.900
2020/01/31 16:19:09.0	359.280	0.220	-0.970	-0.880
2020/01/31 16:19:09.1	359.280	0.260	-0.950	-0.860
2020/01/31 16:19:09.2	359.290	0.290	-0.930	-0.830
2020/01/31 16:19:09.3	359.290	0.320	-0.900	-0.800
2020/01/31 16:19:09.4	359.290	0.350	-0.870	-0.760
2020/01/31 16:19:09.5	359.280	0.370	-0.830	-0.720
2020/01/31 16:19:09.6	359.280	0.390	-0.790	-0.690
2020/01/31 16:19:09.7	359.270	0.400	-0.740	-0.640
2020/01/31 16:19:09.8	359.260	0.410	-0.700	-0.600
2020/01/31 16:19:09.9	359.250	0.420	-0.650	-0.550
2020/01/31 16:19:10.0	359.240	0.420	-0.600	-0.510
2020/01/31 16:19:10.1	359.230	0.420	-0.550	-0.470
2020/01/31 16:19:10.2	359.220	0.410	-0.490	-0.430
2020/01/31 16:19:10.3	359.210	0.400	-0.440	-0.380
2020/01/31 16:19:10.4	359.190	0.380	-0.380	-0.350
2020/01/31 16:19:10.5	359.180	0.360	-0.330	-0.310
2020/01/31 16:19:10.6	359.170	0.340	-0.270	-0.280
2020/01/31 16:19:10.7	359.160	0.310	-0.220	-0.250
2020/01/31 16:19:10.8	359.140	0.280	-0.170	-0.220
2020/01/31 16:19:10.9	359.130	0.250	-0.120	-0.190
2020/01/31 16:19:11.0	359.120	0.210	-0.070	-0.170
2020/01/31 16:19:11.1	359.110	0.170	-0.020	-0.150
2020/01/31 16:19:11.2	359.100	0.130	0.020	-0.140
2020/01/31 16:19:11.3	359.090	0.090	0.070	-0.130
2020/01/31 16:19:11.4	359.090	0.050	0.110	-0.120
2020/01/31 16:19:11.5	359.080	0.010	0.150	-0.120
2020/01/31 16:19:11.6	359.070	-0.030	0.190	-0.120
2020/01/31 16:19:11.7	359.060	-0.070	0.230	-0.120
2020/01/31 16:19:11.8	359.050	-0.110	0.260	-0.130
2020/01/31 16:19:11.9	359.040	-0.150	0.290	-0.130
2020/01/31 16:19:12.0	359.030	-0.180	0.330	-0.130
2020/01/31 16:19:12.1	359.020	-0.220	0.360	-0.130
2020/01/31 16:19:12.2	359.010	-0.250	0.390	-0.130
2020/01/31 16:19:12.3	359.000	-0.280	0.420	-0.130
2020/01/31 16:19:12.4	358.980	-0.300	0.450	-0.130
2020/01/31 16:19:12.5	358.970	-0.320	0.480	-0.120
2020/01/31 16:19:12.6	358.960	-0.340	0.510	-0.120
2020/01/31 16:19:12.7	358.940	-0.350	0.530	-0.110
2020/01/31 16:19:12.8	358.930	-0.360	0.560	-0.100
2020/01/31 16:19:12.9	358.910	-0.370	0.580	-0.080
2020/01/31 16:19:13.0	358.900	-0.370	0.600	-0.070
2020/01/31 16:19:13.1	358.880	-0.370	0.610	-0.050
2020/01/31 16:19:13.2	358.870	-0.360	0.620	-0.040
2020/01/31 16:19:13.3	358.850	-0.350	0.630	-0.020
2020/01/31 16:19:13.4	358.840	-0.340	0.630	-0.000
2020/01/31 16:19:13.5	358.830	-0.320	0.630	0.010
2020/01/31 16:19:13.6	358.820	-0.300	0.620	0.030
2020/01/31 16:19:13.7	358.810	-0.270	0.600	0.050
2020/01/31 16:19:13.8	358.800	-0.240	0.580	0.060
2020/01/31 16:19:13.9	358.790	-0.210	0.550	0.080
2020/01/31 16:19:14.0	358.790	-0.180	0.520	0.100
2020/01/31 16:19:14.1	358.780	-0.140	0.480	0.110
2020/01/31 16:19:14.2	358.770	-0.110	0.440	0.120
2020/01/31 16:19:14.3	358.770	-0.070	0.390	0.130
2020/01/31 16:19:14.4	358.760	-0.030	0.330	0.140
2020/01/31 16:19:14.5	358.760	0.010	0.270	0.140
2020/01/31 16:19:14.6	358.750	0.050	0.200	0.140
2020/01/31 16:19:14.7	358.750	0.090	0.130	0.140
2020/01/31 16:19:14.8	358.740	0.120	0.060	0.130
2020/01/31 16:19:14.9	358.740	0.160	-0.020	0.120
2020/01/31 16:19:15.0	358.740	0.190	-0.100	0.110
2020/01/31 16:19:15.1	358.740	0.230	-0.180	0.090
2020/01/31 16:19:15.2	358.740	0.260	-0.260	0.070
2020/01/31 16:19:15.3	358.740	0.290	-0.340	0.040
2020/01/31 16:19:15.4	358.740	0.320	-0.430	0.010
2020/01/31 16:19:15.5	358.740	0.340	-0.510	-0.020
2020/01/31 16:19:15.6	358.740	0.360	-0.590	-0.050
2020/01/31 16:19:15.7	358.740	0.380	-0.670	-0.090
2020/01/31 16:19:15.8	358.740	0.400	-0.750	-0.130
2020/01/31 16:19:15.9	358.750	0.410	-0.820	-0.170
2020/01/31 16:19:16.0	358.760	0.420	-0.890	-0.210
2020/01/31 16:19:16.1	358.760	0.430	-0.950	-0.250
2020/01/31 16:19:16.2	358.770	0.430	-1.010	-0.290
2020/01/31 16:19:16.3	358.780	0.430	-1.060	-0.330
2020/01/31 16:19:16.4	358.790	0.430	-1.110	-0.360
2020/01/31 16:19:16.5	358.800	0.430	-1.150	-0.400
2020/01/31 16:19:16.6	358.810	0.420	-1.180	-0.440
2020/01/31 16:19:16.7	358.820	0.410	-1.200	-0.470
2020/01/31 16:19:16.8	358.830	0.390	-1.220	-0.500
2020/01/31 16:19:16.9	358.840	0.380	-1.230	-0.530
2020/01/31 16:19:17.0	358.850	0.360	-1.230	-0.560
2020/01/31 16:19:17.1	358.860	0.340	-1.220	-0.580
2020/01/31 16:19:17.2	358.860	0.320	-1.210	-0.600
2020/01/31 16:19:17.3	358.870	0.290	-1.180	-0.620
2020/01/31 16:19:17.4	358.870	0.270	-1.150	-0.640
2020/01/31 16:19:17.5	358.870	0.240	-1.120	-0.660
2020/01/31 16:19:17.6	358.870	0.210	-1.080	-0.680
2020/01/31 16:19:17.7	358.870	0.180	-1.030	-0.690
2020/01/31 16:19:17.8	358.870	0.140	-0.970	-0.710
2020/01/31 16:19:17.9	358.870	0.110	-0.910	-0.720
2020/01/31 16:19:18.0	358.870	0.080	-0.850	-0.730
2020/01/31 16:19:18.1	358.870	0.040	-0.780	-0.740
2020/01/31 16:19:18.2	358.860	0.010	-0.710	-0.750
2020/01/31 16:19:18.3	358.860	-0.020	-0.640	-0.750
2020/01/31 16:19:18.4	358.860	-0.060	-0.560	-0.760
2020/01/31 16:19:18.5	358.850	-0.090	-0.490	-0.760
2020/01/31 16:19:18.6	358.850	-0.120	-0.410	-0.770
2020/01/31 16:19:18.7	358.830	-0.150	-0.330	-0.770
2020/01/31 16:19:18.8	358.830	-0.170	-0.260	-0.770
2020/01/31 16:19:18.9	358.830	-0.200	-0.180	-0.770
2020/01/31 16:19:19.0	358.830	-0.220	-0.110	-0.760
2020/01/31 16:19:19.1	358.830	-0.240	-0.040	-0.760
2020/01/31 16:19:19.2	358.840	-0.260	0.020	-0.750
2020/01/31 16:19:19.3	358.840	-0.280	0.080	-0.750
2020/01/31 16:19:19.4	358.850	-0.300	0.140	-0.740
2020/01/31 16:19:19.5	358.860	-0.310	0.190	-0.730
2020/01/31 16:19:19.6	358.870	-0.320	0.240	-0.720
2020/01/31 16:19:19.7	358.890	-0.330	0.280	-0.710
2020/01/31 16:19:19.8	358.900	-0.340	0.320	-0.700
2020/01/31 16:19:19.9	358.910	-0.340	0.340	-0.690
2020/01/31 16:19:20.0	358.930	-0.350	0.370	-0.680
2020/01/31 16:19:20.1	358.940	-0.350	0.390	-0.660
2020/01/31 16:19:20.2	358.960	-0.350	0.400	-0.650
2020/01/31 16:19:20.3	358.970	-0.350	0.400	-0.630
2020/01/31 16:19:20.4	358.990	-0.340	0.400	-0.620
2020/01/31 16:19:20.5	359.000	-0.340	0.400	-0.600
2020/01/31 16:19:20.6	359.010	-0.340	0.390	-0.590
2020/01/31 16:19:20.7	359.020	-0.330	0.380	-0.570
2020/01/31 16:19:20.8	359.030	-0.330	0.360	-0.560
2020/01/31 16:19:20.9	359.040	-0.320	0.330	-0.540
2020/01/31 16:19:21.0	359.050	-0.310	0.310	-0.530
2020/01/31 16:19:21.1	359.060	-0.310	0.280	-0.520
2020/01/31 16:19:21.2	359.070	-0.300	0.240	-0.510
2020/01/31 16:19:21.3	359.080	-0.290	0.200	-0.500
2020/01/31 16:19:21.4	359.080	-0.280	0.170	-0.490
2020/01/31 16:19:21.5	359.080	-0.280	0.130	-0.480
2020/01/31 16:19:21.6	359.080	-0.270	0.080	-0.470
2020/01/31 16:19:21.7	359.090	-0.260	0.040	-0.460
2020/01/31 16:19:21.8	359.090	-0.250	0.000	-0.440
2020/01/31 16:19:21.9	359.080	-0.240	-0.040	-0.430
2020/01/31 16:19:22.0	359.080	-0.230	-0.080	-0.420
2020/01/31 16:19:22.1	359.070	-0.220	-0.120	-0.400
2020/01/31 16:19:22.2	359.070	-0.210	-0.160	-0.380
2020/01/31 16:19:22.3	359.060	-0.200	-0.200	-0.370
2020/01/31 16:19:22.4	359.060	-0.180	-0.240	-0.350
2020/01/31 16:19:22.5	359.050	-0.170	-0.270	-0.330
2020/01/31 16:19:22.6	359.040	-0.150	-0.300	-0.310
2020/01/31 16:19:22.7	359.050	-0.140	-0.330	-0.290
2020/01/31 16:19:22.8	359.040	-0.120	-0.360	-0.270
2020/01/31 16:19:22.9	359.040	-0.110	-0.390	-0.250
2020/01/31 16:19:23.0	359.030	-0.090	-0.410	-0.230
2020/01/31 16:19:23.1	359.030	-0.070	-0.430	-0.200
2020/01/31 16:19:23.2	359.030	-0.040	-0.450	-0.180
2020/01/31 16:19:23.3	359.020	-0.020	-0.470	-0.160
2020/01/31 16:19:23.4	359.020	0.000	-0.490	-0.140
2020/01/31 16:19:23.5	359.020	0.030	-0.500	-0.110
2020/01/31 16:19:23.6	359.030	0.050	-0.510	-0.090
2020/01/31 16:19:23.7	359.030	0.080	-0.520	-0.070
2020/01/31 16:19:23.8	359.030	0.110	-0.530	-0.050
2020/01/31 16:19:23.9	359.030	0.130	-0.540	-0.030
2020/01/31 16:19:24.0	359.030	0.160	-0.540	-0.010
2020/01/31 16:19:24.1	359.030	0.190	-0.540	0.020
2020/01/31 16:19:24.2	359.030	0.220	-0.540	0.040
2020/01/31 16:19:24.3	359.030	0.250	-0.540	0.050
2020/01/31 16:19:24.4	359.030	0.270	-0.530	0.070
2020/01/31 16:19:24.5	359.030	0.300	-0.520	0.090
2020/01/31 16:19:24.6	359.030	0.320	-0.510	0.100
2020/01/31 16:19:24.7	359.030	0.350	-0.500	0.110
2020/01/31 16:19:24.8	359.020	0.370	-0.490	0.120
2020/01/31 16:19:24.9	359.020	0.390	-0.470	0.130
2020/01/31 16:19:25.0	359.010	0.410	-0.450	0.140
2020/01/31 16:19:25.1	359.000	0.420	-0.430	0.140
2020/01/31 16:19:25.2	358.990	0.430	-0.410	0.150
2020/01/31 16:19:25.3	358.980	0.440	-0.380	0.150
2020/01/31 16:19:25.4	358.970	0.450	-0.360	0.150
2020/01/31 16:19:25.5	358.950	0.450	-0.330	0.140
2020/01/31 16:19:25.6	358.940	0.450	-0.300	0.140
2020/01/31 16:19:25.7	358.930	0.450	-0.260	0.130
2020/01/31 16:19:25.8	358.910	0.440	-0.220	0.120
2020/01/31 16:19:25.9	358.890	0.430	-0.190	0.110
2020/01/31 16:19:26.0	358.860	0.410	-0.150	0.100
2020/01/31 16:19:26.1	358.840	0.400	-0.110	0.080
2020/01/31 16:19:26.2	358.820	0.370	-0.070	0.070
2020/01/31 16:19:26.3	358.790	0.350	-0.030	0.040
2020/01/31 16:19:26.4	358.770	0.320	0.000	0.020
2020/01/31 16:19:26.5	358.740	0.290	0.040	-0.000
2020/01/31 16:19:26.6	358.720	0.260	0.080	-0.030
2020/01/31 16:19:26.7	358.690	0.220	0.110	-0.070
2020/01/31 16:19:26.8	358.670	0.180	0.140	-0.100
2020/01/31 16:19:26.9	358.640	0.140	0.170	-0.130
2020/01/31 16:19:27.0	358.620	0.100	0.190	-0.170
2020/01/31 16:19:27.1	358.610	0.060	0.210	-0.210
2020/01/31 16:19:27.2	358.590	0.020	0.230	-0.250
2020/01/31 16:19:27.3	358.580	-0.020	0.240	-0.290
2020/01/31 16:19:27.4	358.570	-0.070	0.250	-0.340
2020/01/31 16:19:27.5	358.560	-0.110	0.250	-0.390
2020/01/31 16:19:27.6	358.550	-0.150	0.250	-0.440
2020/01/31 16:19:27.7	358.550	-0.180	0.250	-0.490
2020/01/31 16:19:27.8	358.550	-0.220	0.230	-0.540
2020/01/31 16:19:27.9	358.550	-0.250	0.220	-0.590
2020/01/31 16:19:28.0	358.560	-0.290	0.190	-0.640
2020/01/31 16:19:28.1	358.570	-0.310	0.170	-0.690
2020/01/31 16:19:28.2	358.580	-0.340	0.130	-0.740
2020/01/31 16:19:28.3	358.590	-0.360	0.100	-0.790
2020/01/31 16:19:28.4	358.600	-0.380	0.060	-0.840
2020/01/31 16:19:28.5	358.610	-0.390	0.020	-0.890
2020/01/31 16:19:28.6	358.620	-0.400	-0.030	-0.930
2020/01/31 16:19:28.7	358.640	-0.410	-0.070	-0.970
2020/01/31 16:19:28.8	358.650	-0.410	-0.120	-1.010
2020/01/31 16:19:28.9	358.660	-0.410	-0.170	-1.040
2020/01/31 16:19:29.0	358.680	-0.410	-0.220	-1.070
2020/01/31 16:19:29.1	358.690	-0.400	-0.270	-1.090
2020/01/31 16:19:29.2	358.700	-0.390	-0.320	-1.110
2020/01/31 16:19:29.3	358.710	-0.370	-0.360	-1.130
2020/01/31 16:19:29.4	358.720	-0.360	-0.410	-1.140
2020/01/31 16:19:29.5	358.730	-0.340	-0.450	-1.150
2020/01/31 16:19:29.6	358.740	-0.310	-0.490	-1.150
2020/01/31 16:19:29.7	358.740	-0.290	-0.530	-1.150
2020/01/31 16:19:29.8	358.750	-0.260	-0.570	-1.150
2020/01/31 16:19:29.9	358.760	-0.240	-0.600	-1.140
2020/01/31 16:19:30.0	358.770	-0.210	-0.630	-1.130
2020/01/31 16:19:30.1	358.780	-0.180	-0.660	-1.120
2020/01/31 16:19:30.2	358.790	-0.150	-0.680	-1.100
2020/01/31 16:19:30.3	358.800	-0.120	-0.700	-1.080
2020/01/31 16:19:30.4	358.810	-0.090	-0.720	-1.060
2020/01/31 16:19:30.5	358.830	-0.060	-0.730	-1.040
2020/01/31 16:19:30.6	358.840	-0.030	-0.740	-1.020
2020/01/31 16:19:30.7	358.860	0.000	-0.750	-0.990
2020/01/31 16:19:30.8	358.880	0.030	-0.750	-0.970
2020/01/31 16:19:30.9	358.890	0.060	-0.750	-0.940
2020/01/31 16:19:31.0	358.910	0.090	-0.750	-0.910
2020/01/31 16:19:31.1	358.920	0.110	-0.750	-0.890
2020/01/31 16:19:31.2	358.940	0.140	-0.740	-0.860
2020/01/31 16:19:31.3	358.950	0.160	-0.740	-0.830
2020/01/31 16:19:31.4	358.960	0.180	-0.720	-0.800
2020/01/31 16:19:31.5	358.980	0.200	-0.710	-0.770
2020/01/31 16:19:31.6	358.990	0.220	-0.690	-0.740
2020/01/31 16:19:31.7	359.000	0.230	-0.670	-0.720
2020/01/31 16:19:31.8	359.010	0.250	-0.650	-0.690
2020/01/31 16:19:31.9	359.020	0.260	-0.630	-0.650
2020/01/31 16:19:32.0	359.030	0.270	-0.610	-0.620
2020/01/31 16:19:32.1	359.040	0.270	-0.580	-0.590
2020/01/31 16:19:32.2	359.040	0.280	-0.550	-0.560
2020/01/31 16:19:32.3	359.040	0.280	-0.520	-0.520
2020/01/31 16:19:32.4	359.050	0.280	-0.500	-0.490
2020/01/31 16:19:32.5	359.050	0.280	-0.470	-0.450
2020/01/31 16:19:32.6	359.050	0.280	-0.440	-0.410
2020/01/31 16:19:32.7	359.050	0.280	-0.410	-0.370
2020/01/31 16:19:32.8	359.050	0.280	-0.380	-0.340
2020/01/31 16:19:32.9	359.050	0.270	-0.360	-0.300
2020/01/31 16:19:33.0	359.050	0.270	-0.330	-0.270
2020/01/31 16:19:33.1	359.050	0.260	-0.310	-0.240
2020/01/31 16:19:33.2	359.050	0.250	-0.290	-0.210
2020/01/31 16:19:33.3	359.050	0.240	-0.270	-0.180
2020/01/31 16:19:33.4	359.050	0.230	-0.250	-0.150
2020/01/31 16:19:33.5	359.050	0.220	-0.230	-0.130
2020/01/31 16:19:33.6	359.060	0.210	-0.220	-0.110
2020/01/31 16:19:33.7	359.060	0.200	-0.210	-0.100
2020/01/31 16:19:33.8	359.060	0.190	-0.200	-0.090
2020/01/31 16:19:33.9	359.070	0.170	-0.190	-0.080
2020/01/31 16:19:34.0	359.080	0.160	-0.190	-0.080
2020/01/31 16:19:34.1	359.090	0.150	-0.180	-0.080
2020/01/31 16:19:34.2	359.100	0.140	-0.180	-0.090
2020/01/31 16:19:34.3	359.110	0.120	-0.180	-0.100
2020/01/31 16:19:34.4	359.120	0.110	-0.180	-0.110
2020/01/31 16:19:34.5	359.130	0.100	-0.180	-0.130
2020/01/31 16:19:34.6	359.150	0.080	-0.180	-0.150
2020/01/31 16:19:34.7	359.170	0.070	-0.180	-0.170
2020/01/31 16:19:34.8	359.190	0.050	-0.180	-0.200
2020/01/31 16:19:34.9	359.200	0.040	-0.170	-0.220
2020/01/31 16:19:35.0	359.210	0.030	-0.170	-0.250
2020/01/31 16:19:35.1	359.220	0.010	-0.160	-0.280
2020/01/31 16:19:35.2	359.230	-0.010	-0.160	-0.300
2020/01/31 16:19:35.3	359.230	-0.020	-0.150	-0.320
2020/01/31 16:19:35.4	359.240	-0.040	-0.130	-0.350
2020/01/31 16:19:35.5	359.240	-0.060	-0.120	-0.370
2020/01/31 16:19:35.6	359.250	-0.080	-0.100	-0.380
2020/01/31 16:19:35.7	359.240	-0.090	-0.080	-0.400
2020/01/31 16:19:35.8	359.240	-0.110	-0.050	-0.420
2020/01/31 16:19:35.9	359.240	-0.130	-0.020	-0.430
2020/01/31 16:19:36.0	359.230	-0.150	0.010	-0.440
2020/01/31 16:19:36.1	359.220	-0.170	0.040	-0.440
2020/01/31 16:19:36.2	359.210	-0.200	0.080	-0.440
2020/01/31 16:19:36.3	359.200	-0.220	0.110	-0.440
2020/01/31 16:19:36.4	359.190	-0.240	0.150	-0.440
2020/01/31 16:19:36.5	359.170	-0.260	0.190	-0.440
2020/01/31 16:19:36.6	359.150	-0.280	0.230	-0.430
2020/01/31 16:19:36.7	359.130	-0.310	0.270	-0.420
2020/01/31 16:19:36.8	359.110	-0.330	0.310	-0.410
2020/01/31 16:19:36.9	359.080	-0.350	0.350	-0.400
2020/01/31 16:19:37.0	359.060	-0.370	0.390	-0.380
2020/01/31 16:19:37.1	359.030	-0.390	0.420	-0.370
2020/01/31 16:19:37.2	359.000	-0.410	0.450	-0.350
2020/01/31 16:19:37.3	358.980	-0.430	0.490	-0.330
2020/01/31 16:19:37.4	358.950	-0.440	0.510	-0.310
2020/01/31 16:19:37.5	358.910	-0.460	0.540	-0.290
2020/01/31 16:19:37.6	358.880	-0.470	0.560	-0.270
2020/01/31 16:19:37.7	358.840	-0.480	0.580	-0.250
2020/01/31 16:19:37.8	358.800	-0.490	0.590	-0.220
2020/01/31 16:19:37.9	358.770	-0.490	0.600	-0.200
2020/01/31 16:19:38.0	358.730	-0.490	0.600	-0.170
2020/01/31 16:19:38.1	358.700	-0.490	0.600	-0.150
2020/01/31 16:19:38.2	358.660	-0.490	0.590	-0.120
2020/01/31 16:19:38.3	358.630	-0.480	0.580	-0.090
2020/01/31 16:19:38.4	358.590	-0.470	0.560	-0.070
2020/01/31 16:19:38.5	358.560	-0.450	0.540	-0.040
2020/01/31 16:19:38.6	358.530	-0.430	0.510	-0.010
2020/01/31 16:19:38.7	358.500	-0.410	0.470	0.010
2020/01/31 16:19:38.8	358.470	-0.380	0.430	0.040
2020/01/31 16:19:38.9	358.440	-0.350	0.390	0.060
2020/01/31 16:19:39.0	358.420	-0.320	0.340	0.080
2020/01/31 16:19:39.1	358.390	-0.280	0.280	0.100
2020/01/31 16:19:39.2	358.370	-0.240	0.220	0.120
2020/01/31 16:19:39.3	358.350	-0.200	0.160	0.140
2020/01/31 16:19:39.4	358.330	-0.160	0.090	0.150
2020/01/31 16:19:39.5	358.310	-0.110	0.020	0.160
2020/01/31 16:19:39.6	358.290	-0.060	-0.060	0.170
2020/01/31 16:19:39.7	358.280	-0.010	-0.130	0.170
2020/01/31 16:19:39.8	358.270	0.040	-0.210	0.170
2020/01/31 16:19:39.9	358.260	0.090	-0.290	0.170
2020/01/31 16:19:40.0	358.250	0.140	-0.370	0.170
2020/01/31 16:19:40.1	358.240	0.190	-0.450	0.160
2020/01/31 16:19:40.2	358.230	0.240	-0.530	0.150
2020/01/31 16:19:40.3	358.230	0.290	-0.610	0.140
2020/01/31 16:19:40.4	358.230	0.340	-0.690	0.130
2020/01/31 16:19:40.5	358.230	0.390	-0.770	0.110
2020/01/31 16:19:40.6	358.240	0.430	-0.840	0.090
2020/01/31 16:19:40.7	358.230	0.470	-0.910	0.060
2020/01/31 16:19:40.8	358.240	0.510	-0.980	0.030
2020/01/31 16:19:40.9	358.260	0.550	-1.050	-0.000
2020/01/31 16:19:41.0	358.270	0.580	-1.100	-0.030
2020/01/31 16:19:41.1	358.290	0.610	-1.160	-0.070
2020/01/31 16:19:41.2	358.310	0.640	-1.210	-0.100
2020/01/31 16:19:41.3	358.330	0.660	-1.260	-0.140
2020/01/31 16:19:41.4	358.350	0.670	-1.300	-0.180
2020/01/31 16:19:41.5	358.380	0.690	-1.330	-0.220
2020/01/31 16:19:41.6	358.410	0.700	-1.360	-0.260
2020/01/31 16:19:41.7	358.430	0.710	-1.390	-0.300
2020/01/31 16:19:41.8	358.460	0.710	-1.400	-0.340
2020/01/31 16:19:41.9	358.490	0.710	-1.410	-0.370
2020/01/31 16:19:42.0	358.520	0.700	-1.420	-0.410
2020/01/31 16:19:42.1	358.550	0.690	-1.410	-0.450
2020/01/31 16:19:42.2	358.580	0.680	-1.400	-0.480
2020/01/31 16:19:42.3	358.610	0.660	-1.390	-0.510
2020/01/31 16:19:42.4	358.640	0.640	-1.370	-0.550
2020/01/31 16:19:42.5	358.680	0.620	-1.340	-0.580
2020/01/31 16:19:42.6	358.710	0.600	-1.310	-0.610
2020/01/31 16:19:42.7	358.730	0.570	-1.270	-0.640
2020/01/31 16:19:42.8	358.770	0.540	-1.230	-0.660
2020/01/31 16:19:42.9	358.800	0.510	-1.180	-0.690
2020/01/31 16:19:43.0	358.830	0.480	-1.130	-0.710
2020/01/31 16:19:43.1	358.870	0.440	-1.080	-0.730
2020/01/31 16:19:43.2	358.900	0.410	-1.020	-0.750
2020/01/31 16:19:43.3	358.930	0.370	-0.960	-0.760
2020/01/31 16:19:43.4	358.970	0.340	-0.890	-0.770
2020/01/31 16:19:43.5	359.000	0.300	-0.830	-0.780
2020/01/31 16:19:43.6	359.030	0.270	-0.760	-0.790
2020/01/31 16:19:43.7	359.050	0.230	-0.690	-0.800
2020/01/31 16:19:43.8	359.080	0.200	-0.620	-0.800
2020/01/31 16:19:43.9	359.110	0.160	-0.540	-0.800
2020/01/31 16:19:44.0	359.130	0.130	-0.470	-0.800
2020/01/31 16:19:44.1	359.160	0.090	-0.390	-0.790
2020/01/31 16:19:44.2	359.180	0.050	-0.310	-0.780
2020/01/31 16:19:44.3	359.200	0.020	-0.240	-0.760
2020/01/31 16:19:44.4	359.220	-0.020	-0.160	-0.750
2020/01/31 16:19:44.5	359.230	-0.050	-0.080	-0.730
2020/01/31 16:19:44.6	359.240	-0.090	-0.010	-0.710
2020/01/31 16:19:44.7	359.260	-0.120	0.060	-0.680
2020/01/31 16:19:44.8	359.270	-0.160	0.130	-0.660
2020/01/31 16:19:44.9	359.280	-0.200	0.200	-0.640
2020/01/31 16:19:45.0	359.280	-0.230	0.270	-0.610
2020/01/31 16:19:45.1	359.280	-0.270	0.340	-0.590
2020/01/31 16:19:45.2	359.280	-0.310	0.400	-0.560
2020/01/31 16:19:45.3	359.280	-0.340	0.450	-0.530
2020/01/31 16:19:45.4	359.270	-0.380	0.510	-0.510
2020/01/31 16:19:45.5	359.270	-0.410	0.550	-0.480
2020/01/31 16:19:45.6	359.260	-0.440	0.600	-0.460
2020/01/31 16:19:45.7	359.250	-0.480	0.640	-0.440
2020/01/31 16:19:45.8	359.240	-0.510	0.670	-0.410
2020/01/31 16:19:45.9	359.220	-0.540	0.700	-0.390
2020/01/31 16:19:46.0	359.200	-0.570	0.720	-0.370
2020/01/31 16:19:46.1	359.180	-0.590	0.740	-0.350
2020/01/31 16:19:46.2	359.160	-0.620	0.750	-0.330
2020/01/31 16:19:46.3	359.140	-0.640	0.750	-0.310
2020/01/31 16:19:46.4	359.120	-0.660	0.750	-0.290
2020/01/31 16:19:46.5	359.090	-0.670	0.750	-0.280
2020/01/31 16:19:46.6	359.070	-0.680	0.730	-0.260
2020/01/31 16:19:46.7	359.040	-0.690	0.710	-0.250
2020/01/31 16:19:46.8	359.020	-0.700	0.690	-0.240
2020/01/31 16:19:46.9	358.990	-0.700	0.660	-0.230
2020/01/31 16:19:47.0	358.970	-0.700	0.630	-0.220
2020/01/31 16:19:47.1	358.950	-0.700	0.590	-0.220
2020/01/31 16:19:47.2	358.930	-0.690	0.550	-0.210
2020/01/31 16:19:47.3	358.910	-0.670	0.510	-0.200
2020/01/31 16:19:47.4	358.890	-0.650	0.460	-0.200
2020/01/31 16:19:47.5	358.870	-0.630	0.410	-0.200
2020/01/31 16:19:47.6	358.850	-0.600	0.370	-0.190
2020/01/31 16:19:47.7	358.840	-0.570	0.320	-0.190
2020/01/31 16:19:47.8	358.830	-0.540	0.270	-0.190
2020/01/31 16:19:47.9	358.820	-0.500	0.220	-0.180
2020/01/31 16:19:48.0	358.800	-0.450	0.170	-0.170
2020/01/31 16:19:48.1	358.790	-0.400	0.120	-0.160
2020/01/31 16:19:48.2	358.780	-0.350	0.070	-0.140
2020/01/31 16:19:48.3	358.770	-0.300	0.030	-0.130
2020/01/31 16:19:48.4	358.750	-0.240	-0.010	-0.110
2020/01/31 16:19:48.5	358.740	-0.190	-0.050	-0.090
2020/01/31 16:19:48.6	358.720	-0.130	-0.090	-0.070
2020/01/31 16:19:48.7	358.690	-0.070	-0.120	-0.040
2020/01/31 16:19:48.8	358.670	-0.020	-0.140	-0.020
2020/01/31 16:19:48.9	358.650	0.040	-0.170	0.010
2020/01/31 16:19:49.0	358.620	0.090	-0.180	0.040
2020/01/31 16:19:49.1	358.590	0.140	-0.200	0.060
2020/01/31 16:19:49.2	358.560	0.190	-0.210	0.090
2020/01/31 16:19:49.3	358.520	0.240	-0.220	0.110
2020/01/31 16:19:49.4	358.490	0.280	-0.230	0.130
2020/01/31 16:19:49.5	358.460	0.320	-0.230	0.150
2020/01/31 16:19:49.6	358.420	0.350	-0.230	0.170
2020/01/31 16:19:49.7	358.380	0.380	-0.240	0.180
2020/01/31 16:19:49.8	358.350	0.410	-0.240	0.190
2020/01/31 16:19:49.9	358.310	0.430	-0.240	0.200
2020/01/31 16:19:50.0	358.280	0.440	-0.250	0.200
2020/01/31 16:19:50.1	358.250	0.460	-0.260	0.200
2020/01/31 16:19:50.2	358.230	0.460	-0.260	0.200
2020/01/31 16:19:50.3	358.200	0.470	-0.270	0.190
2020/01/31 16:19:50.4	358.180	0.470	-0.290	0.180
2020/01/31 16:19:50.5	358.160	0.460	-0.300	0.160
2020/01/31 16:19:50.6	358.150	0.450	-0.320	0.140
2020/01/31 16:19:50.7	358.140	0.440	-0.340	0.110
2020/01/31 16:19:50.8	358.140	0.430	-0.370	0.080
2020/01/31 16:19:50.9	358.140	0.410	-0.400	0.040
2020/01/31 16:19:51.0	358.140	0.400	-0.430	-0.000
2020/01/31 16:19:51.1	358.150	0.380	-0.470	-0.050
2020/01/31 16:19:51.2	358.160	0.360	-0.510	-0.100
2020/01/31 16:19:51.3	358.180	0.330	-0.550	-0.160
2020/01/31 16:19:51.4	358.200	0.310	-0.590	-0.220
2020/01/31 16:19:51.5	358.220	0.290	-0.640	-0.290
2020/01/31 16:19:51.6	358.250	0.260	-0.680	-0.350
2020/01/31 16:19:51.7	358.280	0.240	-0.730	-0.430
2020/01/31 16:19:51.8	358.310	0.220	-0.780	-0.500
2020/01/31 16:19:51.9	358.340	0.200	-0.820	-0.570
2020/01/31 16:19:52.0	358.370	0.180	-0.870	-0.640
2020/01/31 16:19:52.1	358.400	0.160	-0.910	-0.710
2020/01/31 16:19:52.2	358.430	0.140	-0.950	-0.780
2020/01/31 16:19:52.3	358.470	0.120	-0.990	-0.850
2020/01/31 16:19:52.4	358.500	0.110	-1.020	-0.910
2020/01/31 16:19:52.5	358.530	0.100	-1.040	-0.980
2020/01/31 16:19:52.6	358.560	0.090	-1.060	-1.040
2020/01/31 16:19:52.7	358.610	0.080	-1.080	-1.100
2020/01/31 16:19:52.8	358.640	0.070	-1.090	-1.150
2020/01/31 16:19:52.9	358.670	0.070	-1.090	-1.200
2020/01/31 16:19:53.0	358.700	0.060	-1.090	-1.240
2020/01/31 16:19:53.1	358.730	0.060	-1.080	-1.280
2020/01/31 16:19:53.2	358.760	0.060	-1.060	-1.310
2020/01/31 16:19:53.3	358.790	0.060	-1.040	-1.340
2020/01/31 16:19:53.4	358.820	0.060	-1.010	-1.360
2020/01/31 16:19:53.5	358.850	0.070	-0.980	-1.380
2020/01/31 16:19:53.6	358.880	0.070	-0.940	-1.390
2020/01/31 16:19:53.7	358.910	0.070	-0.890	-1.390
2020/01/31 16:19:53.8	358.940	0.080	-0.850	-1.400
2020/01/31 16:19:53.9	358.970	0.080	-0.790	-1.390
2020/01/31 16:19:54.0	359.000	0.090	-0.740	-1.390
2020/01/31 16:19:54.1	359.030	0.090	-0.680	-1.380
2020/01/31 16:19:54.2	359.060	0.090	-0.620	-1.360
2020/01/31 16:19:54.3	359.090	0.100	-0.560	-1.340
2020/01/31 16:19:54.4	359.120	0.100	-0.500	-1.320
2020/01/31 16:19:54.5	359.140	0.090	-0.440	-1.300
2020/01/31 16:19:54.6	359.170	0.090	-0.370	-1.270
2020/01/31 16:19:54.7	359.210	0.090	-0.310	-1.240
2020/01/31 16:19:54.8	359.230	0.080	-0.250	-1.210
2020/01/31 16:19:54.9	359.250	0.070	-0.190	-1.180
2020/01/31 16:19:55.0	359.280	0.060	-0.130	-1.140
2020/01/31 16:19:55.1	359.300	0.050	-0.070	-1.100
2020/01/31 16:19:55.2	359.320	0.040	-0.010	-1.060
2020/01/31 16:19:55.3	359.330	0.020	0.050	-1.020
2020/01/31 16:19:55.4	359.350	0.010	0.100	-0.980
2020/01/31 16:19:55.5	359.360	-0.010	0.150	-0.930
2020/01/31 16:19:55.6	359.370	-0.030	0.200	-0.890
2020/01/31 16:19:55.7	359.370	-0.050	0.250	-0.840
2020/01/31 16:19:55.8	359.370	-0.080	0.290	-0.790
2020/01/31 16:19:55.9	359.370	-0.100	0.330	-0.740
2020/01/31 16:19:56.0	359.370	-0.120	0.370	-0.690
2020/01/31 16:19:56.1	359.370	-0.150	0.400	-0.640
2020/01/31 16:19:56.2	359.360	-0.170	0.440	-0.580
2020/01/31 16:19:56.3	359.350	-0.190	0.460	-0.530
2020/01/31 16:19:56.4	359.340	-0.220	0.490	-0.470
2020/01/31 16:19:56.5	359.320	-0.240	0.510	-0.410
2020/01/31 16:19:56.6	359.300	-0.260	0.530	-0.360
2020/01/31 16:19:56.7	359.280	-0.280	0.550	-0.300
2020/01/31 16:19:56.8	359.250	-0.300	0.560	-0.240
2020/01/31 16:19:56.9	359.230	-0.320	0.570	-0.180
2020/01/31 16:19:57.0	359.200	-0.330	0.570	-0.120
2020/01/31 16:19:57.1	359.170	-0.340	0.570	-0.070
2020/01/31 16:19:57.2	359.140	-0.350	0.570	-0.010
2020/01/31 16:19:57.3	359.110	-0.360	0.560	0.040
2020/01/31 16:19:57.4	359.080	-0.360	0.550	0.100
2020/01/31 16:19:57.5	359.050	-0.360	0.530	0.150
2020/01/31 16:19:57.6	359.010	-0.350	0.510	0.200
2020/01/31 16:19:57.7	358.980	-0.350	0.480	0.240
2020/01/31 16:19:57.8	358.950	-0.330	0.450	0.290
2020/01/31 16:19:57.9	358.920	-0.320	0.410	0.330
2020/01/31 16:19:58.0	358.890	-0.300	0.370	0.360
2020/01/31 16:19:58.1	358.860	-0.280	0.320	0.390
2020/01/31 16:19:58.2	358.840	-0.260	0.270	0.420
2020/01/31 16:19:58.3	358.810	-0.230	0.220	0.440
2020/01/31 16:19:58.4	358.790	-0.200	0.160	0.460
2020/01/31 16:19:58.5	358.770	-0.170	0.100	0.470
2020/01/31 16:19:58.6	358.750	-0.130	0.040	0.480
2020/01/31 16:19:58.7	358.730	-0.100	-0.030	0.480
2020/01/31 16:19:58.8	358.710	-0.060	-0.100	0.480
2020/01/31 16:19:58.9	358.690	-0.020	-0.170	0.470
2020/01/31 16:19:59.0	358.670	0.020	-0.230	0.460
2020/01/31 16:19:59.1	358.660	0.050	-0.300	0.450
2020/01/31 16:19:59.2	358.640	0.090	-0.370	0.430
2020/01/31 16:19:59.3	358.620	0.130	-0.430	0.410
2020/01/31 16:19:59.4	358.610	0.160	-0.490	0.380
2020/01/31 16:19:59.5	358.590	0.190	-0.550	0.360
2020/01/31 16:19:59.6	358.580	0.220	-0.610	0.320
2020/01/31 16:19:59.7	358.570	0.250	-0.660	0.290
2020/01/31 16:19:59.8	358.560	0.270	-0.710	0.250
2020/01/31 16:19:59.9	358.550	0.290	-0.760	0.210
2020/01/31 16:20:00.0	358.540	0.310	-0.800	0.170
2020/01/31 16:20:00.1	358.530	0.320	-0.830	0.130
2020/01/31 16:20:00.2	358.530	0.330	-0.860	0.080
2020/01/31 16:20:00.3	358.530	0.340	-0.890	0.030
2020/01/31 16:20:00.4	358.530	0.340	-0.910	-0.020
2020/01/31 16:20:00.5	358.530	0.340	-0.930	-0.070
2020/01/31 16:20:00.6	358.540	0.340	-0.940	-0.120
2020/01/31 16:20:00.7	358.550	0.330	-0.950	-0.180
2020/01/31 16:20:00.8	358.560	0.320	-0.960	-0.230
2020/01/31 16:20:00.9	358.570	0.300	-0.960	-0.290
2020/01/31 16:20:01.0	358.590	0.280	-0.950	-0.340
2020/01/31 16:20:01.1	358.600	0.260	-0.940	-0.400
2020/01/31 16:20:01.2	358.630	0.240	-0.930	-0.450
2020/01/31 16:20:01.3	358.650	0.220	-0.910	-0.500
2020/01/31 16:20:01.4	358.670	0.190	-0.890	-0.560
2020/01/31 16:20:01.5	358.700	0.160	-0.870	-0.610
2020/01/31 16:20:01.6	358.720	0.130	-0.840	-0.660
2020/01/31 16:20:01.7	358.750	0.100	-0.810	-0.710
2020/01/31 16:20:01.8	358.780	0.070	-0.780	-0.760
2020/01/31 16:20:01.9	358.810	0.040	-0.740	-0.800
2020/01/31 16:20:02.0	358.840	0.010	-0.700	-0.850
2020/01/31 16:20:02.1	358.870	-0.020	-0.650	-0.890
2020/01/31 16:20:02.2	358.900	-0.040	-0.610	-0.920
2020/01/31 16:20:02.3	358.930	-0.070	-0.560	-0.960
2020/01/31 16:20:02.4	358.950	-0.100	-0.510	-0.990
2020/01/31 16:20:02.5	358.980	-0.120	-0.450	-1.010
2020/01/31 16:20:02.6	359.000	-0.140	-0.400	-1.030
2020/01/31 16:20:02.7	359.020	-0.160	-0.340	-1.050
2020/01/31 16:20:02.8	359.040	-0.180	-0.290	-1.060
2020/01/31 16:20:02.9	359.060	-0.200	-0.230	-1.070
2020/01/31 16:20:03.0	359.070	-0.210	-0.170	-1.070
2020/01/31 16:20:03.1	359.090	-0.220	-0.110	-1.060
2020/01/31 16:20:03.2	359.100	-0.220	-0.060	-1.050
2020/01/31 16:20:03.3	359.110	-0.230	-0.000	-1.030
2020/01/31 16:20:03.4	359.110	-0.230	0.050	-1.000
2020/01/31 16:20:03.5	359.120	-0.230	0.110	-0.980
2020/01/31 16:20:03.6	359.120	-0.220	0.150	-0.940
2020/01/31 16:20:03.7	359.110	-0.220	0.200	-0.910
2020/01/31 16:20:03.8	359.110	-0.210	0.240	-0.870
2020/01/31 16:20:03.9	359.110	-0.200	0.280	-0.830
2020/01/31 16:20:04.0	359.100	-0.190	0.310	-0.790
2020/01/31 16:20:04.1	359.100	-0.170	0.340	-0.740
2020/01/31 16:20:04.2	359.090	-0.160	0.360	-0.690
2020/01/31 16:20:04.3	359.080	-0.140	0.380	-0.650
2020/01/31 16:20:04.4	359.080	-0.120	0.390	-0.600
2020/01/31 16:20:04.5	359.070	-0.100	0.400	-0.550
2020/01/31 16:20:04.6	359.060	-0.090	0.400	-0.500
2020/01/31 16:20:04.7	359.050	-0.070	0.390	-0.450
2020/01/31 16:20:04.8	359.050	-0.050	0.380	-0.400
2020/01/31 16:20:04.9	359.040	-0.030	0.370	-0.350
2020/01/31 16:20:05.0	359.030	-0.020	0.350	-0.310
2020/01/31 16:20:05.1	359.030	-0.000	0.320	-0.260
2020/01/31 16:20:05.2	359.020	0.010	0.300	-0.220
2020/01/31 16:20:05.3	359.010	0.020	0.260	-0.180
2020/01/31 16:20:05.4	359.010	0.030	0.230	-0.140
2020/01/31 16:20:05.5	359.000	0.040	0.190	-0.110
2020/01/31 16:20:05.6	359.000	0.040	0.150	-0.080
2020/01/31 16:20:05.7	359.000	0.050	0.110	-0.050
2020/01/31 16:20:05.8	358.990	0.050	0.070	-0.020
2020/01/31 16:20:05.9	358.990	0.050	0.020	0.000
2020/01/31 16:20:06.0	358.980	0.040	-0.030	0.020
2020/01/31 16:20:06.1	358.980	0.040	-0.070	0.030
2020/01/31 16:20:06.2	358.980	0.030	-0.120	0.040
2020/01/31 16:20:06.3	358.980	0.020	-0.170	0.050
2020/01/31 16:20:06.4	358.980	0.020	-0.210	0.060
2020/01/31 16:20:06.5	358.970	0.000	-0.250	0.060
2020/01/31 16:20:06.6	358.970	-0.010	-0.290	0.050
2020/01/31 16:20:06.7	358.970	-0.020	-0.330	0.040
2020/01/31 16:20:06.8	358.970	-0.030	-0.370	0.030
2020/01/31 16:20:06.9	358.970	-0.050	-0.400	0.030
2020/01/31 16:20:07.0	358.980	-0.060	-0.430	0.010
2020/01/31 16:20:07.1	358.980	-0.070	-0.450	0.000
2020/01/31 16:20:07.2	358.980	-0.080	-0.480	-0.010
2020/01/31 16:20:07.3	358.980	-0.100	-0.490	-0.030
2020/01/31 16:20:07.4	358.980	-0.110	-0.510	-0.040
2020/01/31 16:20:07.5	358.980	-0.120	-0.520	-0.060
2020/01/31 16:20:07.6	358.980	-0.130	-0.520	-0.080
2020/01/31 16:20:07.7	358.980	-0.130	-0.530	-0.100
2020/01/31 16:20:07.8	358.980	-0.140	-0.530	-0.110
2020/01/31 16:20:07.9	358.980	-0.140	-0.520	-0.130
2020/01/31 16:20:08.0	358.980	-0.140	-0.520	-0.150
2020/01/31 16:20:08.1	358.980	-0.150	-0.510	-0.160
2020/01/31 16:20:08.2	358.980	-0.140	-0.500	-0.180
2020/01/31 16:20:08.3	358.980	-0.140	-0.480	-0.200
2020/01/31 16:20:08.4	358.980	-0.140	-0.470	-0.220
2020/01/31 16:20:08.5	358.970	-0.130	-0.450	-0.240
2020/01/31 16:20:08.6	358.970	-0.120	-0.430	-0.260
2020/01/31 16:20:08.7	358.970	-0.110	-0.410	-0.280
2020/01/31 16:20:08.8	358.970	-0.100	-0.390	-0.300
2020/01/31 16:20:08.9	358.960	-0.090	-0.360	-0.320
2020/01/31 16:20:09.0	358.950	-0.080	-0.340	-0.340
2020/01/31 16:20:09.1	358.950	-0.070	-0.320	-0.360
2020/01/31 16:20:09.2	358.940	-0.050	-0.300	-0.380
2020/01/31 16:20:09.3	358.940	-0.040	-0.280	-0.400
2020/01/31 16:20:09.4	358.930	-0.020	-0.270	-0.430
2020/01/31 16:20:09.5	358.920	-0.000	-0.250	-0.450
2020/01/31 16:20:09.6	358.920	0.010	-0.240	-0.470
2020/01/31 16:20:09.7	358.920	0.030	-0.230	-0.500
2020/01/31 16:20:09.8	358.910	0.050	-0.230	-0.520
2020/01/31 16:20:09.9	358.910	0.070	-0.220	-0.550
2020/01/31 16:20:10.0	358.910	0.090	-0.220	-0.570
2020/01/31 16:20:10.1	358.910	0.110	-0.220	-0.590
2020/01/31 16:20:10.2	358.920	0.120	-0.220	-0.620
2020/01/31 16:20:10.3	358.920	0.140	-0.230	-0.640
2020/01/31 16:20:10.4	358.930	0.160	-0.240	-0.670
2020/01/31 16:20:10.5	358.940	0.170	-0.250	-0.690
2020/01/31 16:20:10.6	358.950	0.190	-0.260	-0.710
2020/01/31 16:20:10.7	358.970	0.210	-0.280	-0.740
2020/01/31 16:20:10.8	358.980	0.220	-0.300	-0.760
2020/01/31 16:20:10.9	359.000	0.230	-0.320	-0.780
2020/01/31 16:20:11.0	359.020	0.250	-0.340	-0.800
2020/01/31 16:20:11.1	359.030	0.260	-0.370	-0.820
2020/01/31 16:20:11.2	359.050	0.270	-0.390	-0.840
2020/01/31 16:20:11.3	359.070	0.280	-0.410	-0.860
2020/01/31 16:20:11.4	359.090	0.280	-0.440	-0.870
2020/01/31 16:20:11.5	359.110	0.290	-0.460	-0.880
2020/01/31 16:20:11.6	359.120	0.290	-0.480	-0.890
2020/01/31 16:20:11.7	359.140	0.290	-0.500	-0.900
2020/01/31 16:20:11.8	359.160	0.290	-0.520	-0.910
2020/01/31 16:20:11.9	359.170	0.290	-0.530	-0.910
2020/01/31 16:20:12.0	359.180	0.290	-0.550	-0.920
2020/01/31 16:20:12.1	359.180	0.280	-0.550	-0.920
2020/01/31 16:20:12.2	359.190	0.270	-0.560	-0.920
2020/01/31 16:20:12.3	359.190	0.260	-0.560	-0.920
2020/01/31 16:20:12.4	359.190	0.250	-0.560	-0.920
2020/01/31 16:20:12.5	359.190	0.240	-0.550	-0.920
2020/01/31 16:20:12.6	359.190	0.220	-0.540	-0.910
2020/01/31 16:20:12.7	359.170	0.210	-0.520	-0.910
2020/01/31 16:20:12.8	359.160	0.190	-0.500	-0.890
2020/01/31 16:20:12.9	359.150	0.170	-0.480	-0.880
2020/01/31 16:20:13.0	359.130	0.150	-0.450	-0.860
2020/01/31 16:20:13.1	359.110	0.130	-0.420	-0.830
2020/01/31 16:20:13.2	359.100	0.120	-0.390	-0.810
2020/01/31 16:20:13.3	359.070	0.100	-0.350	-0.780
2020/01/31 16:20:13.4	359.050	0.080	-0.310	-0.740
2020/01/31 16:20:13.5	359.030	0.060	-0.270	-0.700
2020/01/31 16:20:13.6	359.000	0.040	-0.230	-0.660
2020/01/31 16:20:13.7	358.980	0.020	-0.180	-0.620
2020/01/31 16:20:13.8	358.950	-0.000	-0.140	-0.570
2020/01/31 16:20:13.9	358.920	-0.020	-0.100	-0.530
2020/01/31 16:20:14.0	358.900	-0.040	-0.050	-0.480
2020/01/31 16:20:14.1	358.870	-0.050	-0.010	-0.430
2020/01/31 16:20:14.2	358.850	-0.060	0.030	-0.380
2020/01/31 16:20:14.3	358.830	-0.080	0.060	-0.340
2020/01/31 16:20:14.4	358.800	-0.090	0.090	-0.290
2020/01/31 16:20:14.5	358.780	-0.100	0.120	-0.250
2020/01/31 16:20:14.6	358.770	-0.100	0.140	-0.200
2020/01/31 16:20:14.7	358.760	-0.110	0.160	-0.160
2020/01/31 16:20:14.8	358.750	-0.110	0.170	-0.130
2020/01/31 16:20:14.9	358.740	-0.110	0.180	-0.090
2020/01/31 16:20:15.0	358.740	-0.100	0.180	-0.060
2020/01/31 16:20:15.1	358.740	-0.100	0.170	-0.030
2020/01/31 16:20:15.2	358.740	-0.090	0.160	-0.010
2020/01/31 16:20:15.3	358.740	-0.080	0.150	0.010
2020/01/31 16:20:15.4	358.750	-0.060	0.130	0.030
2020/01/31 16:20:15.5	358.760	-0.050	0.110	0.040
2020/01/31 16:20:15.6	358.770	-0.030	0.080	0.060
2020/01/31 16:20:15.7	358.790	-0.010	0.050	0.060
2020/01/31 16:20:15.8	358.800	0.010	0.020	0.070
2020/01/31 16:20:15.9	358.820	0.030	-0.020	0.070
2020/01/31 16:20:16.0	358.830	0.050	-0.050	0.070
2020/01/31 16:20:16.1	358.850	0.070	-0.080	0.070
2020/01/31 16:20:16.2	358.870	0.090	-0.120	0.080
2020/01/31 16:20:16.3	358.890	0.110	-0.150	0.070
2020/01/31 16:20:16.4	358.900	0.130	-0.180	0.070
2020/01/31 16:20:16.5	358.920	0.140	-0.210	0.070
2020/01/31 16:20:16.6	358.940	0.160	-0.240	0.070
2020/01/31 16:20:16.7	358.950	0.170	-0.260	0.060
2020/01/31 16:20:16.8	358.970	0.180	-0.280	0.060
2020/01/31 16:20:16.9	358.980	0.190	-0.300	0.050
2020/01/31 16:20:17.0	359.000	0.200	-0.320	0.050
2020/01/31 16:20:17.1	359.010	0.200	-0.330	0.040
2020/01/31 16:20:17.2	359.030	0.200	-0.330	0.040
2020/01/31 16:20:17.3	359.040	0.200	-0.330	0.030
2020/01/31 16:20:17.4	359.050	0.190	-0.330	0.030
2020/01/31 16:20:17.5	359.060	0.180	-0.330	0.020
2020/01/31 16:20:17.6	359.070	0.170	-0.320	0.010
2020/01/31 16:20:17.7	359.080	0.150	-0.310	0.000
2020/01/31 16:20:17.8	359.080	0.120	-0.290	-0.000
2020/01/31 16:20:17.9	359.090	0.100	-0.280	-0.010
2020/01/31 16:20:18.0	359.090	0.070	-0.260	-0.020
2020/01/31 16:20:18.1	359.090	0.030	-0.240	-0.040
2020/01/31 16:20:18.2	359.090	-0.010	-0.220	-0.050
2020/01/31 16:20:18.3	359.090	-0.050	-0.200	-0.070
2020/01/31 16:20:18.4	359.090	-0.090	-0.180	-0.090
2020/01/31 16:20:18.5	359.090	-0.140	-0.160	-0.120
2020/01/31 16:20:18.6	359.090	-0.190	-0.140	-0.150
2020/01/31 16:20:18.7	359.100	-0.240	-0.120	-0.180
2020/01/31 16:20:18.8	359.100	-0.290	-0.110	-0.210
2020/01/31 16:20:18.9	359.100	-0.350	-0.090	-0.250
2020/01/31 16:20:19.0	359.090	-0.400	-0.080	-0.300
2020/01/31 16:20:19.1	359.090	-0.450	-0.070	-0.340
2020/01/31 16:20:19.2	359.090	-0.510	-0.060	-0.380
2020/01/31 16:20:19.3	359.090	-0.560	-0.060	-0.430
2020/01/31 16:20:19.4	359.090	-0.600	-0.050	-0.480
2020/01/31 16:20:19.5	359.090	-0.650	-0.050	-0.530
2020/01/31 16:20:19.6	359.090	-0.690	-0.050	-0.580
2020/01/31 16:20:19.7	359.100	-0.730	-0.050	-0.630
2020/01/31 16:20:19.8	359.100	-0.770	-0.050	-0.680
2020/01/31 16:20:19.9	359.100	-0.800	-0.060	-0.730
2020/01/31 16:20:20.0	359.100	-0.820	-0.070	-0.770
2020/01/31 16:20:20.1	359.100	-0.840	-0.080	-0.810
2020/01/31 16:20:20.2	359.100	-0.850	-0.080	-0.850
2020/01/31 16:20:20.3	359.090	-0.860	-0.090	-0.880
2020/01/31 16:20:20.4	359.090	-0.860	-0.100	-0.910
2020/01/31 16:20:20.5	359.080	-0.860	-0.110	-0.930
2020/01/31 16:20:20.6	359.070	-0.850	-0.120	-0.950
2020/01/31 16:20:20.7	359.040	-0.830	-0.140	-0.970
2020/01/31 16:20:20.8	359.030	-0.810	-0.140	-0.970
2020/01/31 16:20:20.9	359.020	-0.780	-0.150	-0.980
2020/01/31 16:20:21.0	359.000	-0.740	-0.160	-0.980
2020/01/31 16:20:21.1	358.980	-0.700	-0.170	-0.970
2020/01/31 16:20:21.2	358.960	-0.660	-0.180	-0.960
2020/01/31 16:20:21.3	358.940	-0.610	-0.190	-0.940
2020/01/31 16:20:21.4	358.920	-0.550	-0.210	-0.920
2020/01/31 16:20:21.5	358.890	-0.490	-0.220	-0.900
2020/01/31 16:20:21.6	358.870	-0.430	-0.230	-0.880
2020/01/31 16:20:21.7	358.850	-0.370	-0.240	-0.850
2020/01/31 16:20:21.8	358.820	-0.300	-0.260	-0.830
2020/01/31 16:20:21.9	358.800	-0.230	-0.280	-0.800
2020/01/31 16:20:22.0	358.780	-0.160	-0.300	-0.770
2020/01/31 16:20:22.1	358.760	-0.090	-0.320	-0.750
2020/01/31 16:20:22.2	358.740	-0.020	-0.340	-0.720
2020/01/31 16:20:22.3	358.720	0.060	-0.370	-0.690
2020/01/31 16:20:22.4	358.710	0.130	-0.400	-0.660
2020/01/31 16:20:22.5	358.690	0.200	-0.420	-0.630
2020/01/31 16:20:22.6	358.680	0.270	-0.450	-0.610
2020/01/31 16:20:22.7	358.670	0.330	-0.480	-0.580
2020/01/31 16:20:22.8	358.660	0.400	-0.510	-0.550
2020/01/31 16:20:22.9	358.660	0.460	-0.540	-0.520
2020/01/31 16:20:23.0	358.650	0.520	-0.570	-0.490
2020/01/31 16:20:23.1	358.650	0.570	-0.600	-0.470
2020/01/31 16:20:23.2	358.650	0.620	-0.630	-0.440
2020/01/31 16:20:23.3	358.650	0.670	-0.660	-0.410
2020/01/31 16:20:23.4	358.660	0.710	-0.680	-0.390
2020/01/31 16:20:23.5	358.670	0.750	-0.700	-0.370
2020/01/31 16:20:23.6	358.680	0.780	-0.730	-0.340
2020/01/31 16:20:23.7	358.680	0.810	-0.740	-0.320
2020/01/31 16:20:23.8	358.690	0.840	-0.760	-0.300
2020/01/31 16:20:23.9	358.700	0.860	-0.770	-0.280
2020/01/31 16:20:24.0	358.720	0.870	-0.780	-0.250
2020/01/31 16:20:24.1	358.740	0.880	-0.780	-0.230
2020/01/31 16:20:24.2	358.760	0.890	-0.780	-0.210
2020/01/31 16:20:24.3	358.780	0.890	-0.770	-0.190
2020/01/31 16:20:24.4	358.800	0.890	-0.760	-0.180
2020/01/31 16:20:24.5	358.820	0.890	-0.740	-0.160
2020/01/31 16:20:24.6	358.840	0.880	-0.720	-0.140
2020/01/31 16:20:24.7	358.860	0.870	-0.700	-0.130
2020/01/31 16:20:24.8	358.880	0.860	-0.660	-0.110
2020/01/31 16:20:24.9	358.900	0.850	-0.630	-0.090
2020/01/31 16:20:25.0	358.920	0.830	-0.590	-0.070
2020/01/31 16:20:25.1	358.940	0.810	-0.540	-0.050
2020/01/31 16:20:25.2	358.950	0.790	-0.490	-0.030
2020/01/31 16:20:25.3	358.970	0.760	-0.440	-0.010
2020/01/31 16:20:25.4	358.980	0.740	-0.380	0.020
2020/01/31 16:20:25.5	359.000	0.710	-0.320	0.040
2020/01/31 16:20:25.6	359.010	0.680	-0.260	0.060
2020/01/31 16:20:25.7	359.020	0.650	-0.200	0.090
2020/01/31 16:20:25.8	359.030	0.620	-0.130	0.110
2020/01/31 16:20:25.9	359.040	0.580	-0.070	0.130
2020/01/31 16:20:26.0	359.040	0.550	-0.010	0.140
2020/01/31 16:20:26.1	359.050	0.510	0.050	0.160
2020/01/31 16:20:26.2	359.060	0.480	0.110	0.170
2020/01/31 16:20:26.3	359.060	0.440	0.160	0.180
2020/01/31 16:20:26.4	359.060	0.400	0.210	0.190
2020/01/31 16:20:26.5	359.070	0.360	0.260	0.200
2020/01/31 16:20:26.6	359.070	0.320	0.300	0.200
2020/01/31 16:20:26.7	359.070	0.280	0.340	0.200
2020/01/31 16:20:26.8	359.060	0.240	0.370	0.200
2020/01/31 16:20:26.9	359.060	0.190	0.400	0.200
2020/01/31 16:20:27.0	359.060	0.150	0.420	0.190
2020/01/31 16:20:27.1	359.050	0.110	0.430	0.170
2020/01/31 16:20:27.2	359.050	0.060	0.440	0.160
2020/01/31 16:20:27.3	359.040	0.020	0.440	0.140
2020/01/31 16:20:27.4	359.040	-0.030	0.440	0.120
2020/01/31 16:20:27.5	359.030	-0.070	0.430	0.090
2020/01/31 16:20:27.6	359.020	-0.120	0.410	0.060
2020/01/31 16:20:27.7	359.020	-0.170	0.390	0.030
2020/01/31 16:20:27.8	359.020	-0.210	0.360	-0.010
2020/01/31 16:20:27.9	359.010	-0.250	0.330	-0.040
2020/01/31 16:20:28.0	359.010	-0.300	0.290	-0.080
2020/01/31 16:20:28.1	359.010	-0.340	0.260	-0.120
2020/01/31 16:20:28.2	359.000	-0.380	0.210	-0.160
2020/01/31 16:20:28.3	359.000	-0.420	0.170	-0.210
2020/01/31 16:20:28.4	358.990	-0.460	0.120	-0.250
2020/01/31 16:20:28.5	358.990	-0.500	0.070	-0.290
2020/01/31 16:20:28.6	358.990	-0.540	0.020	-0.340
2020/01/31 16:20:28.7	358.980	-0.580	-0.030	-0.390
2020/01/31 16:20:28.8	358.970	-0.610	-0.090	-0.430
2020/01/31 16:20:28.9	358.960	-0.640	-0.140	-0.480
2020/01/31 16:20:29.0	358.950	-0.670	-0.190	-0.520
2020/01/31 16:20:29.1	358.950	-0.700	-0.240	-0.570
2020/01/31 16:20:29.2	358.940	-0.730	-0.290	-0.610
2020/01/31 16:20:29.3	358.930	-0.750	-0.330	-0.660
2020/01/31 16:20:29.4	358.920	-0.770	-0.380	-0.700
2020/01/31 16:20:29.5	358.910	-0.790	-0.420	-0.740
2020/01/31 16:20:29.6	358.900	-0.810	-0.450	-0.790
2020/01/31 16:20:29.7	358.890	-0.820	-0.480	-0.830
2020/01/31 16:20:29.8	358.880	-0.830	-0.510	-0.870
2020/01/31 16:20:29.9	358.870	-0.840	-0.530	-0.900
2020/01/31 16:20:30.0	358.860	-0.840	-0.550	-0.930
2020/01/31 16:20:30.1	358.860	-0.840	-0.560	-0.960
2020/01/31 16:20:30.2	358.850	-0.840	-0.570	-0.990
2020/01/31 16:20:30.3	358.840	-0.830	-0.580	-1.010
2020/01/31 16:20:30.4	358.840	-0.820	-0.580	-1.030
2020/01/31 16:20:30.5	358.840	-0.810	-0.580	-1.040
2020/01/31 16:20:30.6	358.840	-0.790	-0.570	-1.060
2020/01/31 16:20:30.7	358.840	-0.770	-0.560	-1.070
2020/01/31 16:20:30.8	358.840	-0.750	-0.550	-1.080
2020/01/31 16:20:30.9	358.850	-0.720	-0.530	-1.080
2020/01/31 16:20:31.0	358.860	-0.690	-0.520	-1.080
2020/01/31 16:20:31.1	358.870	-0.650	-0.500	-1.080
2020/01/31 16:20:31.2	358.880	-0.620	-0.480	-1.080
2020/01/31 16:20:31.3	358.900	-0.580	-0.460	-1.070
2020/01/31 16:20:31.4	358.920	-0.530	-0.440	-1.060
2020/01/31 16:20:31.5	358.940	-0.490	-0.410	-1.050
2020/01/31 16:20:31.6	358.960	-0.440	-0.390	-1.040
2020/01/31 16:20:31.7	358.990	-0.390	-0.370	-1.020
2020/01/31 16:20:31.8	359.010	-0.340	-0.350	-1.000
2020/01/31 16:20:31.9	359.040	-0.290	-0.330	-0.980
2020/01/31 16:20:32.0	359.070	-0.240	-0.310	-0.960
2020/01/31 16:20:32.1	359.090	-0.190	-0.290	-0.930
2020/01/31 16:20:32.2	359.120	-0.130	-0.270	-0.900
2020/01/31 16:20:32.3	359.150	-0.080	-0.250	-0.860
2020/01/31 16:20:32.4	359.170	-0.030	-0.240	-0.820
2020/01/31 16:20:32.5	359.200	0.020	-0.220	-0.780
2020/01/31 16:20:32.6	359.220	0.070	-0.210	-0.740
2020/01/31 16:20:32.7	359.240	0.120	-0.200	-0.690
2020/01/31 16:20:32.8	359.260	0.160	-0.180	-0.650
2020/01/31 16:20:32.9	359.280	0.210	-0.170	-0.600
2020/01/31 16:20:33.0	359.290	0.250	-0.160	-0.550
2020/01/31 16:20:33.1	359.300	0.290	-0.150	-0.490
2020/01/31 16:20:33.2	359.310	0.320	-0.140	-0.440
2020/01/31 16:20:33.3	359.320	0.350	-0.130	-0.380
2020/01/31 16:20:33.4	359.320	0.380	-0.120	-0.320
2020/01/31 16:20:33.5	359.320	0.410	-0.110	-0.260
2020/01/31 16:20:33.6	359.310	0.430	-0.110	-0.200
2020/01/31 16:20:33.7	359.300	0.450	-0.100	-0.150
2020/01/31 16:20:33.8	359.290	0.460	-0.100	-0.090
2020/01/31 16:20:33.9	359.270	0.470	-0.100	-0.030
2020/01/31 16:20:34.0	359.260	0.480	-0.090	0.030
2020/01/31 16:20:34.1	359.240	0.490	-0.090	0.090
2020/01/31 16:20:34.2	359.220	0.490	-0.090	0.140
2020/01/31 16:20:34.3	359.190	0.490	-0.090	0.190
2020/01/31 16:20:34.4	359.170	0.480	-0.090	0.240
2020/01/31 16:20:34.5	359.140	0.480	-0.100	0.280
2020/01/31 16:20:34.6	359.110	0.470	-0.100	0.330
2020/01/31 16:20:34.7	359.090	0.460	-0.110	0.360
2020/01/31 16:20:34.8	359.060	0.440	-0.110	0.390
2020/01/31 16:20:34.9	359.030	0.430	-0.120	0.420
2020/01/31 16:20:35.0	359.000	0.410	-0.130	0.450
2020/01/31 16:20:35.1	358.980	0.400	-0.140	0.470
2020/01/31 16:20:35.2	358.950	0.380	-0.150	0.480
2020/01/31 16:20:35.3	358.920	0.360	-0.170	0.490
2020/01/31 16:20:35.4	358.900	0.350	-0.180	0.490
2020/01/31 16:20:35.5	358.870	0.330	-0.200	0.500
2020/01/31 16:20:35.6	358.850	0.310	-0.210	0.490
2020/01/31 16:20:35.7	358.830	0.300	-0.240	0.480
2020/01/31 16:20:35.8	358.810	0.280	-0.260	0.470
2020/01/31 16:20:35.9	358.790	0.270	-0.280	0.450
2020/01/31 16:20:36.0	358.770	0.250	-0.300	0.430
2020/01/31 16:20:36.1	358.760	0.240	-0.320	0.410
2020/01/31 16:20:36.2	358.750	0.230	-0.340	0.380
2020/01/31 16:20:36.3	358.740	0.220	-0.370	0.350
2020/01/31 16:20:36.4	358.730	0.220	-0.390	0.310
2020/01/31 16:20:36.5	358.730	0.210	-0.420	0.270
2020/01/31 16:20:36.6	358.730	0.210	-0.450	0.230
2020/01/31 16:20:36.7	358.730	0.200	-0.470	0.180
2020/01/31 16:20:36.8	358.740	0.200	-0.490	0.130
2020/01/31 16:20:36.9	358.750	0.200	-0.520	0.070
2020/01/31 16:20:37.0	358.760	0.200	-0.540	0.020
2020/01/31 16:20:37.1	358.770	0.200	-0.570	-0.040
2020/01/31 16:20:37.2	358.780	0.200	-0.590	-0.100
2020/01/31 16:20:37.3	358.800	0.200	-0.610	-0.170
2020/01/31 16:20:37.4	358.820	0.200	-0.620	-0.230
2020/01/31 16:20:37.5	358.840	0.200	-0.640	-0.300
2020/01/31 16:20:37.6	358.860	0.200	-0.650	-0.360
2020/01/31 16:20:37.7	358.880	0.200	-0.660	-0.430
2020/01/31 16:20:37.8	358.910	0.190	-0.670	-0.500
2020/01/31 16:20:37.9	358.930	0.190	-0.670	-0.560
2020/01/31 16:20:38.0	358.950	0.180	-0.670	-0.620
2020/01/31 16:20:38.1	358.970	0.170	-0.660	-0.680
2020/01/31 16:20:38.2	358.990	0.160	-0.650	-0.740
2020/01/31 16:20:38.3	359.010	0.140	-0.640	-0.790
2020/01/31 16:20:38.4	359.030	0.120	-0.620	-0.840
2020/01/31 16:20:38.5	359.050	0.100	-0.600	-0.890
2020/01/31 16:20:38.6	359.060	0.080	-0.570	-0.940
2020/01/31 16:20:38.7	359.080	0.060	-0.540	-0.980
2020/01/31 16:20:38.8	359.090	0.030	-0.500	-1.010
2020/01/31 16:20:38.9	359.100	0.000	-0.470	-1.040
2020/01/31 16:20:39.0	359.110	-0.030	-0.420	-1.070
2020/01/31 16:20:39.1	359.120	-0.060	-0.380	-1.090
2020/01/31 16:20:39.2	359.130	-0.090	-0.330	-1.110
2020/01/31 16:20:39.3	359.130	-0.120	-0.290	-1.120
2020/01/31 16:20:39.4	359.140	-0.160	-0.240	-1.130
2020/01/31 16:20:39.5	359.140	-0.200	-0.190	-1.140
2020/01/31 16:20:39.6	359.150	-0.230	-0.140	-1.140
2020/01/31 16:20:39.7	359.140	-0.270	-0.090	-1.130
2020/01/31 16:20:39.8	359.140	-0.300	-0.030	-1.130
2020/01/31 16:20:39.9	359.140	-0.340	0.020	-1.120
2020/01/31 16:20:40.0	359.140	-0.370	0.070	-1.100
2020/01/31 16:20:40.1	359.140	-0.400	0.120	-1.090
2020/01/31 16:20:40.2	359.140	-0.430	0.170	-1.070
2020/01/31 16:20:40.3	359.140	-0.450	0.210	-1.050
2020/01/31 16:20:40.4	359.140	-0.480	0.250	-1.020
2020/01/31 16:20:40.5	359.140	-0.500	0.290	-1.000
2020/01/31 16:20:40.6	359.130	-0.520	0.330	-0.970
2020/01/31 16:20:40.7	359.120	-0.530	0.370	-0.940
2020/01/31 16:20:40.8	359.120	-0.540	0.400	-0.900
2020/01/31 16:20:40.9	359.110	-0.550	0.430	-0.860
2020/01/31 16:20:41.0	359.100	-0.550	0.450	-0.820
2020/01/31 16:20:41.1	359.090	-0.550	0.470	-0.780
2020/01/31 16:20:41.2	359.080	-0.540	0.480	-0.730
2020/01/31 16:20:41.3	359.070	-0.530	0.500	-0.690
2020/01/31 16:20:41.4	359.050	-0.520	0.500	-0.640
2020/01/31 16:20:41.5	359.040	-0.510	0.510	-0.580
2020/01/31 16:20:41.6	359.020	-0.490	0.500	-0.530
2020/01/31 16:20:41.7	359.010	-0.460	0.500	-0.470
2020/01/31 16:20:41.8	358.990	-0.440	0.490	-0.410
2020/01/31 16:20:41.9	358.960	-0.410	0.470	-0.360
2020/01/31 16:20:42.0	358.940	-0.380	0.450	-0.300
2020/01/31 16:20:42.1	358.920	-0.350	0.430	-0.240
2020/01/31 16:20:42.2	358.890	-0.310	0.400	-0.190
2020/01/31 16:20:42.3	358.860	-0.280	0.370	-0.130
2020/01/31 16:20:42.4	358.840	-0.240	0.330	-0.080
2020/01/31 16:20:42.5	358.810	-0.200	0.290	-0.030
2020/01/31 16:20:42.6	358.780	-0.170	0.250	0.020
2020/01/31 16:20:42.7	358.750	-0.130	0.200	0.070
2020/01/31 16:20:42.8	358.720	-0.090	0.160	0.110
2020/01/31 16:20:42.9	358.690	-0.050	0.100	0.150
2020/01/31 16:20:43.0	358.660	-0.020	0.050	0.190
2020/01/31 16:20:43.1	358.620	0.020	-0.000	0.230
2020/01/31 16:20:43.2	358.590	0.050	-0.060	0.260
2020/01/31 16:20:43.3	358.560	0.080	-0.120	0.290
2020/01/31 16:20:43.4	358.530	0.110	-0.170	0.320
2020/01/31 16:20:43.5	358.500	0.140	-0.230	0.340
2020/01/31 16:20:43.6	358.470	0.170	-0.290	0.360
2020/01/31 16:20:43.7	358.440	0.200	-0.340	0.370
2020/01/31 16:20:43.8	358.410	0.220	-0.400	0.380
2020/01/31 16:20:43.9	358.380	0.240	-0.450	0.390
2020/01/31 16:20:44.0	358.360	0.260	-0.510	0.390
2020/01/31 16:20:44.1	358.340	0.280	-0.560	0.390
2020/01/31 16:20:44.2	358.320	0.300	-0.610	0.390
2020/01/31 16:20:44.3	358.300	0.310	-0.660	0.380
2020/01/31 16:20:44.4	358.290	0.320	-0.710	0.370
2020/01/31 16:20:44.5	358.270	0.330	-0.760	0.350
2020/01/31 16:20:44.6	358.270	0.340	-0.800	0.330
2020/01/31 16:20:44.7	358.260	0.350	-0.850	0.300
2020/01/31 16:20:44.8	358.260	0.360	-0.890	0.270
2020/01/31 16:20:44.9	358.260	0.360	-0.930	0.240
2020/01/31 16:20:45.0	358.270	0.370	-0.960	0.200
2020/01/31 16:20:45.1	358.280	0.370	-1.000	0.170
2020/01/31 16:20:45.2	358.290	0.380	-1.030	0.130
2020/01/31 16:20:45.3	358.310	0.380	-1.060	0.080
2020/01/31 16:20:45.4	358.320	0.380	-1.080	0.040
2020/01/31 16:20:45.5	358.340	0.380	-1.100	-0.000
2020/01/31 16:20:45.6	358.370	0.380	-1.120	-0.050
2020/01/31 16:20:45.7	358.380	0.380	-1.130	-0.090
2020/01/31 16:20:45.8	358.410	0.380	-1.140	-0.140
2020/01/31 16:20:45.9	358.440	0.380	-1.140	-0.180
2020/01/31 16:20:46.0	358.470	0.380	-1.140	-0.220
2020/01/31 16:20:46.1	358.500	0.370	-1.140	-0.270
2020/01/31 16:20:46.2	358.530	0.370	-1.130	-0.310
2020/01/31 16:20:46.3	358.560	0.360	-1.110	-0.350
2020/01/31 16:20:46.4	358.590	0.350	-1.090	-0.390
2020/01/31 16:20:46.5	358.620	0.350	-1.060	-0.420
2020/01/31 16:20:46.6	358.650	0.330	-1.040	-0.460
2020/01/31 16:20:46.7	358.670	0.320	-1.000	-0.500
2020/01/31 16:20:46.8	358.700	0.310	-0.970	-0.540
2020/01/31 16:20:46.9	358.720	0.290	-0.930	-0.570
2020/01/31 16:20:47.0	358.750	0.270	-0.880	-0.600
2020/01/31 16:20:47.1	358.770	0.250	-0.830	-0.620
2020/01/31 16:20:47.2	358.790	0.230	-0.780	-0.650
2020/01/31 16:20:47.3	358.810	0.200	-0.730	-0.670
2020/01/31 16:20:47.4	358.820	0.180	-0.670	-0.690
2020/01/31 16:20:47.5	358.830	0.150	-0.610	-0.700
2020/01/31 16:20:47.6	358.840	0.120	-0.550	-0.720
2020/01/31 16:20:47.7	358.860	0.090	-0.490	-0.730
2020/01/31 16:20:47.8	358.870	0.060	-0.430	-0.740
2020/01/31 16:20:47.9	358.870	0.020	-0.360	-0.740
2020/01/31 16:20:48.0	358.880	-0.010	-0.300	-0.740
2020/01/31 16:20:48.1	358.880	-0.040	-0.230	-0.740
2020/01/31 16:20:48.2	358.880	-0.080	-0.170	-0.740
2020/01/31 16:20:48.3	358.890	-0.110	-0.110	-0.730
2020/01/31 16:20:48.4	358.890	-0.140	-0.050	-0.730
2020/01/31 16:20:48.5	358.890	-0.170	0.010	-0.720
2020/01/31 16:20:48.6	358.900	-0.200	0.060	-0.700
2020/01/31 16:20:48.7	358.890	-0.230	0.110	-0.700
2020/01/31 16:20:48.8	358.900	-0.260	0.160	-0.680
2020/01/31 16:20:48.9	358.900	-0.280	0.210	-0.670
2020/01/31 16:20:49.0	358.910	-0.310	0.250	-0.650
2020/01/31 16:20:49.1	358.910	-0.330	0.290	-0.630
2020/01/31 16:20:49.2	358.920	-0.340	0.330	-0.620
2020/01/31 16:20:49.3	358.920	-0.360	0.360	-0.600
2020/01/31 16:20:49.4	358.930	-0.370	0.390	-0.580
2020/01/31 16:20:49.5	358.930	-0.380	0.410	-0.560
2020/01/31 16:20:49.6	358.940	-0.390	0.440	-0.540
2020/01/31 16:20:49.7	358.930	-0.390	0.450	-0.520
2020/01/31 16:20:49.8	358.940	-0.390	0.470	-0.500
2020/01/31 16:20:49.9	358.940	-0.390	0.480	-0.480
2020/01/31 16:20:50.0	358.940	-0.390	0.490	-0.460
2020/01/31 16:20:50.1	358.940	-0.380	0.500	-0.440
2020/01/31 16:20:50.2	358.940	-0.370	0.500	-0.410
2020/01/31 16:20:50.3	358.940	-0.360	0.510	-0.380
2020/01/31 16:20:50.4	358.930	-0.350	0.510	-0.360
2020/01/31 16:20:50.5	358.920	-0.340	0.510	-0.320
2020/01/31 16:20:50.6	358.910	-0.320	0.510	-0.290
2020/01/31 16:20:50.7	358.890	-0.310	0.510	-0.250
2020/01/31 16:20:50.8	358.880	-0.290	0.510	-0.220
2020/01/31 16:20:50.9	358.850	-0.270	0.510	-0.180
2020/01/31 16:20:51.0	358.830	-0.260	0.510	-0.140
2020/01/31 16:20:51.1	358.800	-0.240	0.510	-0.090
2020/01/31 16:20:51.2	358.760	-0.220	0.510	-0.050
2020/01/31 16:20:51.3	358.720	-0.210	0.500	-0.010
2020/01/31 16:20:51.4	358.680	-0.190	0.500	0.040
2020/01/31 16:20:51.5	358.640	-0.180	0.500	0.080
2020/01/31 16:20:51.6	358.590	-0.170	0.500	0.120
2020/01/31 16:20:51.7	358.550	-0.160	0.490	0.160
2020/01/31 16:20:51.8	358.500	-0.150	0.480	0.200
2020/01/31 16:20:51.9	358.450	-0.140	0.480	0.240
2020/01/31 16:20:52.0	358.400	-0.130	0.470	0.280
2020/01/31 16:20:52.1	358.340	-0.120	0.450	0.310
2020/01/31 16:20:52.2	358.290	-0.110	0.440	0.340
2020/01/31 16:20:52.3	358.230	-0.110	0.420	0.370
2020/01/31 16:20:52.4	358.180	-0.100	0.390	0.400
2020/01/31 16:20:52.5	358.130	-0.100	0.370	0.420
2020/01/31 16:20:52.6	358.080	-0.090	0.330	0.440
2020/01/31 16:20:52.7	358.020	-0.090	0.300	0.460
2020/01/31 16:20:52.8	357.970	-0.080	0.260	0.470
2020/01/31 16:20:52.9	357.930	-0.080	0.210	0.480
2020/01/31 16:20:53.0	357.890	-0.070	0.170	0.490
2020/01/31 16:20:53.1	357.850	-0.070	0.110	0.490
2020/01/31 16:20:53.2	357.810	-0.060	0.050	0.480
2020/01/31 16:20:53.3	357.780	-0.050	-0.010	0.470
2020/01/31 16:20:53.4	357.750	-0.040	-0.080	0.460
2020/01/31 16:20:53.5	357.730	-0.030	-0.150	0.440
2020/01/31 16:20:53.6	357.710	-0.010	-0.230	0.410
2020/01/31 16:20:53.7	357.710	0.000	-0.310	0.380
2020/01/31 16:20:53.8	357.700	0.020	-0.390	0.340
2020/01/31 16:20:53.9	357.700	0.040	-0.480	0.300
2020/01/31 16:20:54.0	357.700	0.060	-0.560	0.250
2020/01/31 16:20:54.1	357.710	0.080	-0.650	0.200
2020/01/31 16:20:54.2	357.720	0.100	-0.740	0.140
2020/01/31 16:20:54.3	357.740	0.130	-0.820	0.080
2020/01/31 16:20:54.4	357.760	0.160	-0.910	0.020
2020/01/31 16:20:54.5	357.790	0.190	-0.990	-0.050
2020/01/31 16:20:54.6	357.820	0.210	-1.070	-0.110
2020/01/31 16:20:54.7	357.840	0.240	-1.150	-0.190
2020/01/31 16:20:54.8	357.870	0.280	-1.220	-0.260
2020/01/31 16:20:54.9	357.920	0.310	-1.290	-0.330
2020/01/31 16:20:55.0	357.960	0.340	-1.350	-0.400
2020/01/31 16:20:55.1	358.010	0.370	-1.400	-0.460
2020/01/31 16:20:55.2	358.060	0.400	-1.440	-0.530
2020/01/31 16:20:55.3	358.100	0.430	-1.480	-0.590
2020/01/31 16:20:55.4	358.160	0.450	-1.510	-0.640
2020/01/31 16:20:55.5	358.210	0.480	-1.530	-0.700
2020/01/31 16:20:55.6	358.260	0.500	-1.540	-0.740
2020/01/31 16:20:55.7	358.300	0.520	-1.540	-0.790
2020/01/31 16:20:55.8	358.350	0.540	-1.530	-0.830
2020/01/31 16:20:55.9	358.400	0.560	-1.510	-0.860
2020/01/31 16:20:56.0	358.450	0.570	-1.480	-0.890
2020/01/31 16:20:56.1	358.490	0.580	-1.440	-0.910
2020/01/31 16:20:56.2	358.530	0.580	-1.400	-0.930
2020/01/31 16:20:56.3	358.570	0.580	-1.340	-0.940
2020/01/31 16:20:56.4	358.610	0.570	-1.280	-0.940
2020/01/31 16:20:56.5	358.640	0.560	-1.210	-0.940
2020/01/31 16:20:56.6	358.670	0.550	-1.140	-0.930
2020/01/31 16:20:56.7	358.700	0.530	-1.060	-0.910
2020/01/31 16:20:56.8	358.730	0.510	-0.970	-0.900
2020/01/31 16:20:56.9	358.750	0.480	-0.880	-0.880
2020/01/31 16:20:57.0	358.760	0.450	-0.790	-0.850
2020/01/31 16:20:57.1	358.770	0.410	-0.690	-0.820
2020/01/31 16:20:57.2	358.780	0.370	-0.590	-0.790
2020/01/31 16:20:57.3	358.790	0.330	-0.490	-0.750
2020/01/31 16:20:57.4	358.790	0.280	-0.390	-0.710
2020/01/31 16:20:57.5	358.790	0.230	-0.290	-0.670
2020/01/31 16:20:57.6	358.780	0.170	-0.190	-0.620
2020/01/31 16:20:57.7	358.770	0.120	-0.100	-0.580
2020/01/31 16:20:57.8	358.760	0.060	-0.010	-0.540
2020/01/31 16:20:57.9	358.740	-0.000	0.080	-0.490
2020/01/31 16:20:58.0	358.730	-0.070	0.160	-0.450
2020/01/31 16:20:58.1	358.700	-0.130	0.240	-0.400
2020/01/31 16:20:58.2	358.680	-0.190	0.300	-0.360
2020/01/31 16:20:58.3	358.650	-0.250	0.370	-0.320
2020/01/31 16:20:58.4	358.630	-0.310	0.420	-0.280
2020/01/31 16:20:58.5	358.600	-0.370	0.470	-0.240
2020/01/31 16:20:58.6	358.570	-0.420	0.510	-0.200
2020/01/31 16:20:58.7	358.560	-0.480	0.540	-0.170
2020/01/31 16:20:58.8	358.520	-0.520	0.570	-0.140
2020/01/31 16:20:58.9	358.490	-0.570	0.580	-0.110
2020/01/31 16:20:59.0	358.460	-0.610	0.590	-0.080
2020/01/31 16:20:59.1	358.420	-0.650	0.600	-0.060
2020/01/31 16:20:59.2	358.390	-0.680	0.590	-0.040
2020/01/31 16:20:59.3	358.360	-0.700	0.580	-0.030
2020/01/31 16:20:59.4	358.320	-0.720	0.560	-0.020
2020/01/31 16:20:59.5	358.290	-0.730	0.530	-0.010
2020/01/31 16:20:59.6	358.270	-0.740	0.500	-0.010
2020/01/31 16:20:59.7	358.240	-0.740	0.460	-0.020
2020/01/31 16:20:59.8	358.220	-0.730	0.420	-0.020
2020/01/31 16:20:59.9	358.200	-0.720	0.370	-0.030
2020/01/31 16:21:00.0	358.180	-0.700	0.320	-0.040
2020/01/31 16:21:00.1	358.160	-0.680	0.260	-0.060
2020/01/31 16:21:00.2	358.150	-0.650	0.210	-0.070
2020/01/31 16:21:00.3	358.140	-0.620	0.150	-0.090
2020/01/31 16:21:00.4	358.140	-0.580	0.090	-0.110
2020/01/31 16:21:00.5	358.130	-0.530	0.030	-0.130
2020/01/31 16:21:00.6	358.130	-0.490	-0.030	-0.150
2020/01/31 16:21:00.7	358.110	-0.440	-0.090	-0.180
2020/01/31 16:21:00.8	358.110	-0.390	-0.150	-0.200
2020/01/31 16:21:00.9	358.120	-0.330	-0.200	-0.220
2020/01/31 16:21:01.0	358.120	-0.270	-0.250	-0.230
2020/01/31 16:21:01.1	358.130	-0.220	-0.290	-0.250
2020/01/31 16:21:01.2	358.140	-0.160	-0.330	-0.260
2020/01/31 16:21:01.3	358.150	-0.100	-0.370	-0.280
2020/01/31 16:21:01.4	358.160	-0.050	-0.400	-0.290
2020/01/31 16:21:01.5	358.170	0.010	-0.430	-0.300
2020/01/31 16:21:01.6	358.180	0.060	-0.450	-0.300
2020/01/31 16:21:01.7	358.190	0.110	-0.460	-0.310
2020/01/31 16:21:01.8	358.200	0.160	-0.470	-0.320
2020/01/31 16:21:01.9	358.210	0.200	-0.480	-0.320
2020/01/31 16:21:02.0	358.220	0.250	-0.480	-0.320
2020/01/31 16:21:02.1	358.230	0.280	-0.480	-0.320
2020/01/31 16:21:02.2	358.240	0.320	-0.470	-0.320
2020/01/31 16:21:02.3	358.250	0.350	-0.460	-0.320
2020/01/31 16:21:02.4	358.260	0.370	-0.440	-0.310
2020/01/31 16:21:02.5	358.270	0.400	-0.420	-0.310
2020/01/31 16:21:02.6	358.280	0.410	-0.400	-0.300
2020/01/31 16:21:02.7	358.290	0.430	-0.370	-0.290
2020/01/31 16:21:02.8	358.290	0.440	-0.340	-0.280
2020/01/31 16:21:02.9	358.300	0.440	-0.310	-0.260
2020/01/31 16:21:03.0	358.310	0.450	-0.280	-0.250
2020/01/31 16:21:03.1	358.310	0.440	-0.250	-0.230
2020/01/31 16:21:03.2	358.320	0.440	-0.220	-0.210
2020/01/31 16:21:03.3	358.320	0.430	-0.180	-0.190
2020/01/31 16:21:03.4	358.330	0.420	-0.150	-0.160
2020/01/31 16:21:03.5	358.330	0.410	-0.120	-0.140
2020/01/31 16:21:03.6	358.330	0.390	-0.080	-0.120
2020/01/31 16:21:03.7	358.340	0.370	-0.050	-0.090
2020/01/31 16:21:03.8	358.330	0.350	-0.020	-0.060
2020/01/31 16:21:03.9	358.330	0.330	0.000	-0.040
2020/01/31 16:21:04.0	358.330	0.300	0.030	-0.010
2020/01/31 16:21:04.1	358.330	0.280	0.060	0.020
2020/01/31 16:21:04.2	358.320	0.250	0.080	0.040
2020/01/31 16:21:04.3	358.310	0.220	0.090	0.060
2020/01/31 16:21:04.4	358.310	0.200	0.110	0.090
2020/01/31 16:21:04.5	358.300	0.170	0.120	0.110
2020/01/31 16:21:04.6	358.290	0.140	0.130	0.130
2020/01/31 16:21:04.7	358.280	0.110	0.140	0.150
2020/01/31 16:21:04.8	358.270	0.090	0.140	0.160
2020/01/31 16:21:04.9	358.250	0.060	0.140	0.170
2020/01/31 16:21:05.0	358.230	0.040	0.130	0.180
2020/01/31 16:21:05.1	358.220	0.020	0.120	0.190
2020/01/31 16:21:05.2	358.200	-0.000	0.110	0.200
2020/01/31 16:21:05.3	358.180	-0.020	0.090	0.210
2020/01/31 16:21:05.4	358.160	-0.040	0.080	0.210
2020/01/31 16:21:05.5	358.140	-0.050	0.060	0.210
2020/01/31 16:21:05.6	358.120	-0.060	0.030	0.210
2020/01/31 16:21:05.7	358.080	-0.070	0.010	0.210
2020/01/31 16:21:05.8	358.060	-0.080	-0.020	0.200
2020/01/31 16:21:05.9	358.040	-0.090	-0.050	0.200
2020/01/31 16:21:06.0	358.020	-0.090	-0.080	0.200
2020/01/31 16:21:06.1	358.000	-0.090	-0.110	0.190
2020/01/31 16:21:06.2	357.980	-0.080	-0.140	0.190
2020/01/31 16:21:06.3	357.960	-0.080	-0.170	0.180
2020/01/31 16:21:06.4	357.940	-0.070	-0.210	0.170
2020/01/31 16:21:06.5	357.920	-0.060	-0.240	0.160
2020/01/31 16:21:06.6	357.910	-0.050	-0.270	0.150
2020/01/31 16:21:06.7	357.900	-0.040	-0.300	0.140
2020/01/31 16:21:06.8	357.880	-0.030	-0.330	0.130
2020/01/31 16:21:06.9	357.870	-0.010	-0.360	0.120
2020/01/31 16:21:07.0	357.860	0.000	-0.390	0.100
2020/01/31 16:21:07.1	357.850	0.020	-0.420	0.090
2020/01/31 16:21:07.2	357.840	0.040	-0.450	0.070
2020/01/31 16:21:07.3	357.830	0.050	-0.470	0.050
2020/01/31 16:21:07.4	357.820	0.070	-0.500	0.040
2020/01/31 16:21:07.5	357.820	0.090	-0.520	0.020
2020/01/31 16:21:07.6	357.810	0.100	-0.540	-0.000
2020/01/31 16:21:07.7	357.810	0.110	-0.560	-0.030
2020/01/31 16:21:07.8	357.810	0.130	-0.570	-0.050
2020/01/31 16:21:07.9	357.810	0.140	-0.590	-0.070
2020/01/31 16:21:08.0	357.810	0.150	-0.600	-0.100
2020/01/31 16:21:08.1	357.810	0.150	-0.610	-0.130
2020/01/31 16:21:08.2	357.820	0.160	-0.620	-0.160
2020/01/31 16:21:08.3	357.820	0.160	-0.630	-0.190
2020/01/31 16:21:08.4	357.830	0.160	-0.640	-0.220
2020/01/31 16:21:08.5	357.830	0.160	-0.640	-0.250
2020/01/31 16:21:08.6	357.840	0.160	-0.640	-0.290
2020/01/31 16:21:08.7	357.850	0.160	-0.640	-0.320
2020/01/31 16:21:08.8	357.860	0.150	-0.640	-0.350
2020/01/31 16:21:08.9	357.870	0.140	-0.640	-0.390
2020/01/31 16:21:09.0	357.890	0.130	-0.640	-0.420
2020/01/31 16:21:09.1	357.900	0.110	-0.630	-0.450
2020/01/31 16:21:09.2	357.920	0.100	-0.630	-0.480
2020/01/31 16:21:09.3	357.930	0.080	-0.620	-0.510
2020/01/31 16:21:09.4	357.950	0.070	-0.610	-0.540
2020/01/31 16:21:09.5	357.970	0.050	-0.600	-0.570
2020/01/31 16:21:09.6	357.990	0.030	-0.590	-0.600
2020/01/31 16:21:09.7	358.000	0.010	-0.590	-0.640
2020/01/31 16:21:09.8	358.030	-0.010	-0.570	-0.660
2020/01/31 16:21:09.9	358.050	-0.030	-0.560	-0.690
2020/01/31 16:21:10.0	358.070	-0.060	-0.550	-0.710
2020/01/31 16:21:10.1	358.090	-0.080	-0.530	-0.740
2020/01/31 16:21:10.2	358.120	-0.100	-0.520	-0.760
2020/01/31 16:21:10.3	358.140	-0.120	-0.500	-0.780
2020/01/31 16:21:10.4	358.160	-0.140	-0.490	-0.800
2020/01/31 16:21:10.5	358.190	-0.160	-0.470	-0.820
2020/01/31 16:21:10.6	358.210	-0.170	-0.450	-0.840
2020/01/31 16:21:10.7	358.230	-0.190	-0.440	-0.850
2020/01/31 16:21:10.8	358.250	-0.200	-0.420	-0.860
2020/01/31 16:21:10.9	358.270	-0.210	-0.400	-0.880
2020/01/31 16:21:11.0	358.300	-0.230	-0.380	-0.890
2020/01/31 16:21:11.1	358.320	-0.230	-0.360	-0.900
2020/01/31 16:21:11.2	358.340	-0.240	-0.340	-0.900
2020/01/31 16:21:11.3	358.370	-0.250	-0.320	-0.910
2020/01/31 16:21:11.4	358.390	-0.250	-0.300	-0.910
2020/01/31 16:21:11.5	358.410	-0.250	-0.280	-0.910
2020/01/31 16:21:11.6	358.430	-0.250	-0.260	-0.900
2020/01/31 16:21:11.7	358.450	-0.240	-0.240	-0.890
2020/01/31 16:21:11.8	358.470	-0.240	-0.210	-0.870
2020/01/31 16:21:11.9	358.480	-0.230	-0.190	-0.850
2020/01/31 16:21:12.0	358.490	-0.220	-0.160	-0.830
2020/01/31 16:21:12.1	358.510	-0.210	-0.140	-0.800
2020/01/31 16:21:12.2	358.510	-0.200	-0.110	-0.770
2020/01/31 16:21:12.3	358.520	-0.190	-0.090	-0.740
2020/01/31 16:21:12.4	358.530	-0.180	-0.060	-0.700
2020/01/31 16:21:12.5	358.530	-0.160	-0.040	-0.660
2020/01/31 16:21:12.6	358.540	-0.150	-0.010	-0.620
2020/01/31 16:21:12.7	358.530	-0.130	0.010	-0.580
2020/01/31 16:21:12.8	358.530	-0.120	0.030	-0.540
2020/01/31 16:21:12.9	358.530	-0.100	0.050	-0.500
2020/01/31 16:21:13.0	358.530	-0.090	0.070	-0.460
2020/01/31 16:21:13.1	358.530	-0.070	0.080	-0.420
2020/01/31 16:21:13.2	358.530	-0.060	0.100	-0.380
2020/01/31 16:21:13.3	358.520	-0.050	0.110	-0.340
2020/01/31 16:21:13.4	358.520	-0.030	0.110	-0.300
2020/01/31 16:21:13.5	358.520	-0.020	0.120	-0.260
2020/01/31 16:21:13.6	358.510	-0.010	0.120	-0.230
2020/01/31 16:21:13.7	358.500	0.010	0.110	-0.190
2020/01/31 16:21:13.8	358.500	0.020	0.110	-0.150
2020/01/31 16:21:13.9	358.490	0.030	0.100	-0.120
2020/01/31 16:21:14.0	358.480	0.040	0.090	-0.090
2020/01/31 16:21:14.1	358.480	0.040	0.080	-0.060
2020/01/31 16:21:14.2	358.470	0.050	0.070	-0.030
2020/01/31 16:21:14.3	358.460	0.060	0.050	0.000
2020/01/31 16:21:14.4	358.440	0.060	0.030	0.030
2020/01/31 16:21:14.5	358.430	0.070	0.010	0.060
2020/01/31 16:21:14.6	358.420	0.070	-0.010	0.080
2020/01/31 16:21:14.7	358.410	0.070	-0.020	0.110
2020/01/31 16:21:14.8	358.390	0.080	-0.040	0.130
2020/01/31 16:21:14.9	358.370	0.080	-0.060	0.160
2020/01/31 16:21:15.0	358.350	0.080	-0.080	0.180
2020/01/31 16:21:15.1	358.330	0.080	-0.100	0.200
2020/01/31 16:21:15.2	358.300	0.080	-0.120	0.230
2020/01/31 16:21:15.3	358.280	0.080	-0.140	0.250
2020/01/31 16:21:15.4	358.250	0.080	-0.160	0.270
2020/01/31 16:21:15.5	358.220	0.080	-0.170	0.290
2020/01/31 16:21:15.6	358.190	0.080	-0.180	0.310
2020/01/31 16:21:15.7	358.160	0.080	-0.200	0.330
2020/01/31 16:21:15.8	358.130	0.080	-0.210	0.340
2020/01/31 16:21:15.9	358.100	0.080	-0.210	0.360
2020/01/31 16:21:16.0	358.070	0.090	-0.220	0.370
2020/01/31 16:21:16.1	358.040	0.090	-0.220	0.380
2020/01/31 16:21:16.2	358.010	0.090	-0.230	0.380
2020/01/31 16:21:16.3	357.980	0.090	-0.230	0.380
2020/01/31 16:21:16.4	357.950	0.100	-0.230	0.380
2020/01/31 16:21:16.5	357.930	0.100	-0.230	0.380
2020/01/31 16:21:16.6	357.900	0.110	-0.230	0.370
2020/01/31 16:21:16.7	357.880	0.110	-0.220	0.360
2020/01/31 16:21:16.8	357.870	0.120	-0.220	0.350
2020/01/31 16:21:16.9	357.850	0.120	-0.230	0.330
2020/01/31 16:21:17.0	357.830	0.130	-0.230	0.310
2020/01/31 16:21:17.1	357.820	0.140	-0.230	0.290
2020/01/31 16:21:17.2	357.810	0.140	-0.230	0.270
2020/01/31 16:21:17.3	357.790	0.150	-0.230	0.250
2020/01/31 16:21:17.4	357.780	0.160	-0.230	0.230
2020/01/31 16:21:17.5	357.770	0.160	-0.230	0.200
2020/01/31 16:21:17.6	357.760	0.170	-0.240	0.180
2020/01/31 16:21:17.7	357.750	0.170	-0.250	0.150
2020/01/31 16:21:17.8	357.740	0.180	-0.250	0.120
2020/01/31 16:21:17.9	357.730	0.180	-0.250	0.090
2020/01/31 16:21:18.0	357.720	0.180	-0.250	0.060
2020/01/31 16:21:18.1	357.710	0.180	-0.250	0.030
2020/01/31 16:21:18.2	357.700	0.170	-0.260	-0.010
2020/01/31 16:21:18.3	357.690	0.170	-0.260	-0.050
2020/01/31 16:21:18.4	357.690	0.160	-0.260	-0.090
2020/01/31 16:21:18.5	357.680	0.160	-0.270	-0.130
2020/01/31 16:21:18.6	357.680	0.150	-0.270	-0.170
2020/01/31 16:21:18.7	357.680	0.140	-0.270	-0.220
2020/01/31 16:21:18.8	357.690	0.130	-0.280	-0.270
2020/01/31 16:21:18.9	357.690	0.120	-0.280	-0.320
2020/01/31 16:21:19.0	357.700	0.100	-0.290	-0.360
2020/01/31 16:21:19.1	357.710	0.090	-0.300	-0.420
2020/01/31 16:21:19.2	357.730	0.070	-0.310	-0.470
2020/01/31 16:21:19.3	357.740	0.060	-0.310	-0.520
2020/01/31 16:21:19.4	357.760	0.040	-0.320	-0.570
2020/01/31 16:21:19.5	357.790	0.030	-0.330	-0.620
2020/01/31 16:21:19.6	357.810	0.010	-0.350	-0.680
2020/01/31 16:21:19.7	357.830	-0.010	-0.360	-0.730
2020/01/31 16:21:19.8	357.860	-0.020	-0.370	-0.770
2020/01/31 16:21:19.9	357.890	-0.040	-0.380	-0.820
2020/01/31 16:21:20.0	357.920	-0.050	-0.390	-0.860
2020/01/31 16:21:20.1	357.950	-0.070	-0.400	-0.900
2020/01/31 16:21:20.2	357.980	-0.080	-0.400	-0.940
2020/01/31 16:21:20.3	358.010	-0.090	-0.410	-0.970
2020/01/31 16:21:20.4	358.040	-0.100	-0.410	-1.000
2020/01/31 16:21:20.5	358.070	-0.120	-0.410	-1.020
2020/01/31 16:21:20.6	358.100	-0.130	-0.410	-1.040
2020/01/31 16:21:20.7	358.130	-0.140	-0.410	-1.050
2020/01/31 16:21:20.8	358.150	-0.140	-0.400	-1.060
2020/01/31 16:21:20.9	358.170	-0.150	-0.390	-1.050
2020/01/31 16:21:21.0	358.190	-0.160	-0.380	-1.050
2020/01/31 16:21:21.1	358.200	-0.170	-0.370	-1.040
2020/01/31 16:21:21.2	358.220	-0.170	-0.360	-1.020
2020/01/31 16:21:21.3	358.230	-0.180	-0.340	-1.000
2020/01/31 16:21:21.4	358.230	-0.180	-0.320	-0.970
2020/01/31 16:21:21.5	358.240	-0.190	-0.310	-0.940
2020/01/31 16:21:21.6	358.240	-0.190	-0.290	-0.910
2020/01/31 16:21:21.7	358.240	-0.200	-0.270	-0.870
2020/01/31 16:21:21.8	358.230	-0.200	-0.250	-0.830
2020/01/31 16:21:21.9	358.230	-0.210	-0.230	-0.800
2020/01/31 16:21:22.0	358.220	-0.210	-0.210	-0.760
2020/01/31 16:21:22.1	358.220	-0.210	-0.190	-0.720
2020/01/31 16:21:22.2	358.210	-0.220	-0.180	-0.670
2020/01/31 16:21:22.3	358.200	-0.220	-0.160	-0.630
2020/01/31 16:21:22.4	358.180	-0.230	-0.140	-0.590
2020/01/31 16:21:22.5	358.170	-0.230	-0.130	-0.550
2020/01/31 16:21:22.6	358.160	-0.230	-0.110	-0.510
2020/01/31 16:21:22.7	358.140	-0.240	-0.100	-0.470
2020/01/31 16:21:22.8	358.120	-0.240	-0.090	-0.440
2020/01/31 16:21:22.9	358.110	-0.240	-0.080	-0.400
2020/01/31 16:21:23.0	358.090	-0.240	-0.080	-0.360
2020/01/31 16:21:23.1	358.080	-0.240	-0.080	-0.330
2020/01/31 16:21:23.2	358.070	-0.240	-0.080	-0.290
2020/01/31 16:21:23.3	358.050	-0.230	-0.080	-0.260
2020/01/31 16:21:23.4	358.040	-0.230	-0.090	-0.230
2020/01/31 16:21:23.5	358.030	-0.220	-0.100	-0.200
2020/01/31 16:21:23.6	358.020	-0.210	-0.120	-0.170
2020/01/31 16:21:23.7	358.000	-0.200	-0.130	-0.140
2020/01/31 16:21:23.8	358.000	-0.190	-0.150	-0.120
2020/01/31 16:21:23.9	357.990	-0.180	-0.170	-0.090
2020/01/31 16:21:24.0	357.980	-0.160	-0.190	-0.070
2020/01/31 16:21:24.1	357.970	-0.150	-0.220	-0.040
2020/01/31 16:21:24.2	357.960	-0.130	-0.240	-0.020
2020/01/31 16:21:24.3	357.960	-0.110	-0.270	-0.000
2020/01/31 16:21:24.4	357.950	-0.090	-0.300	0.020
2020/01/31 16:21:24.5	357.950	-0.070	-0.320	0.030
2020/01/31 16:21:24.6	357.940	-0.040	-0.350	0.040
2020/01/31 16:21:24.7	357.940	-0.020	-0.380	0.050
2020/01/31 16:21:24.8	357.940	0.010	-0.410	0.060
2020/01/31 16:21:24.9	357.940	0.030	-0.440	0.070
2020/01/31 16:21:25.0	357.930	0.060	-0.470	0.070
2020/01/31 16:21:25.1	357.930	0.090	-0.490	0.060
2020/01/31 16:21:25.2	357.930	0.120	-0.520	0.060
2020/01/31 16:21:25.3	357.940	0.150	-0.540	0.050
2020/01/31 16:21:25.4	357.940	0.180	-0.570	0.040
2020/01/31 16:21:25.5	357.940	0.210	-0.590	0.030
2020/01/31 16:21:25.6	357.950	0.240	-0.610	0.020
2020/01/31 16:21:25.7	357.950	0.270	-0.620	0.010
2020/01/31 16:21:25.8	357.950	0.300	-0.640	-0.010
2020/01/31 16:21:25.9	357.960	0.330	-0.650	-0.020
2020/01/31 16:21:26.0	357.970	0.360	-0.660	-0.030
2020/01/31 16:21:26.1	357.980	0.380	-0.670	-0.040
2020/01/31 16:21:26.2	357.990	0.410	-0.670	-0.050
2020/01/31 16:21:26.3	358.000	0.430	-0.670	-0.060
2020/01/31 16:21:26.4	358.000	0.450	-0.660	-0.070
2020/01/31 16:21:26.5	358.010	0.470	-0.650	-0.080
2020/01/31 16:21:26.6	358.010	0.480	-0.630	-0.090
2020/01/31 16:21:26.7	358.020	0.490	-0.610	-0.090
2020/01/31 16:21:26.8	358.020	0.500	-0.590	-0.090
2020/01/31 16:21:26.9	358.010	0.500	-0.560	-0.090
2020/01/31 16:21:27.0	358.010	0.500	-0.520	-0.100
2020/01/31 16:21:27.1	358.000	0.490	-0.490	-0.100
2020/01/31 16:21:27.2	357.990	0.480	-0.440	-0.100
2020/01/31 16:21:27.3	357.970	0.460	-0.400	-0.100
2020/01/31 16:21:27.4	357.960	0.440	-0.350	-0.100
2020/01/31 16:21:27.5	357.940	0.420	-0.300	-0.100
2020/01/31 16:21:27.6	357.920	0.390	-0.250	-0.100
2020/01/31 16:21:27.7	357.900	0.360	-0.190	-0.100
2020/01/31 16:21:27.8	357.880	0.320	-0.140	-0.100
2020/01/31 16:21:27.9	357.860	0.280	-0.080	-0.100
2020/01/31 16:21:28.0	357.840	0.240	-0.020	-0.100
2020/01/31 16:21:28.1	357.820	0.200	0.040	-0.100
2020/01/31 16:21:28.2	357.790	0.150	0.100	-0.110
2020/01/31 16:21:28.3	357.770	0.100	0.150	-0.110
2020/01/31 16:21:28.4	357.740	0.050	0.210	-0.110
2020/01/31 16:21:28.5	357.720	-0.010	0.260	-0.110
2020/01/31 16:21:28.6	357.700	-0.060	0.310	-0.110
2020/01/31 16:21:28.7	357.670	-0.110	0.350	-0.120
2020/01/31 16:21:28.8	357.650	-0.160	0.390	-0.120
2020/01/31 16:21:28.9	357.630	-0.210	0.420	-0.130
2020/01/31 16:21:29.0	357.620	-0.260	0.450	-0.140
2020/01/31 16:21:29.1	357.600	-0.310	0.480	-0.150
2020/01/31 16:21:29.2	357.580	-0.350	0.490	-0.160
2020/01/31 16:21:29.3	357.570	-0.390	0.510	-0.170
2020/01/31 16:21:29.4	357.560	-0.430	0.510	-0.180
2020/01/31 16:21:29.5	357.550	-0.460	0.510	-0.190
2020/01/31 16:21:29.6	357.540	-0.490	0.500	-0.210
2020/01/31 16:21:29.7	357.530	-0.510	0.490	-0.230
2020/01/31 16:21:29.8	357.530	-0.530	0.470	-0.240
2020/01/31 16:21:29.9	357.520	-0.540	0.450	-0.260
2020/01/31 16:21:30.0	357.520	-0.550	0.410	-0.280
2020/01/31 16:21:30.1	357.520	-0.560	0.380	-0.300
2020/01/31 16:21:30.2	357.520	-0.550	0.330	-0.320
2020/01/31 16:21:30.3	357.520	-0.550	0.290	-0.340
2020/01/31 16:21:30.4	357.530	-0.530	0.230	-0.360
2020/01/31 16:21:30.5	357.530	-0.520	0.180	-0.380
2020/01/31 16:21:30.6	357.540	-0.490	0.120	-0.400
2020/01/31 16:21:30.7	357.560	-0.470	0.060	-0.430
2020/01/31 16:21:30.8	357.580	-0.440	-0.010	-0.450
2020/01/31 16:21:30.9	357.590	-0.400	-0.080	-0.480
2020/01/31 16:21:31.0	357.600	-0.360	-0.150	-0.500
2020/01/31 16:21:31.1	357.620	-0.320	-0.220	-0.520
2020/01/31 16:21:31.2	357.640	-0.280	-0.300	-0.540
2020/01/31 16:21:31.3	357.660	-0.230	-0.370	-0.560
2020/01/31 16:21:31.4	357.680	-0.180	-0.440	-0.570
2020/01/31 16:21:31.5	357.700	-0.130	-0.510	-0.590
2020/01/31 16:21:31.6	357.720	-0.080	-0.580	-0.610
2020/01/31 16:21:31.7	357.740	-0.030	-0.650	-0.620
2020/01/31 16:21:31.8	357.760	0.020	-0.710	-0.630
2020/01/31 16:21:31.9	357.780	0.070	-0.770	-0.640
2020/01/31 16:21:32.0	357.800	0.110	-0.820	-0.650
2020/01/31 16:21:32.1	357.820	0.160	-0.870	-0.650
2020/01/31 16:21:32.2	357.840	0.200	-0.910	-0.650
2020/01/31 16:21:32.3	357.850	0.240	-0.940	-0.650
2020/01/31 16:21:32.4	357.870	0.270	-0.970	-0.650
2020/01/31 16:21:32.5	357.880	0.310	-0.990	-0.640
2020/01/31 16:21:32.6	357.890	0.330	-1.000	-0.630
2020/01/31 16:21:32.7	357.890	0.360	-1.000	-0.620
2020/01/31 16:21:32.8	357.890	0.370	-1.000	-0.600
2020/01/31 16:21:32.9	357.890	0.390	-0.990	-0.580
2020/01/31 16:21:33.0	357.890	0.400	-0.970	-0.560
2020/01/31 16:21:33.1	357.890	0.400	-0.940	-0.530
2020/01/31 16:21:33.2	357.880	0.400	-0.900	-0.500
2020/01/31 16:21:33.3	357.870	0.390	-0.860	-0.470
2020/01/31 16:21:33.4	357.860	0.380	-0.810	-0.440
2020/01/31 16:21:33.5	357.850	0.370	-0.760	-0.410
2020/01/31 16:21:33.6	357.830	0.340	-0.700	-0.370
2020/01/31 16:21:33.7	357.810	0.320	-0.630	-0.330
2020/01/31 16:21:33.8	357.790	0.290	-0.570	-0.300
2020/01/31 16:21:33.9	357.770	0.260	-0.500	-0.260
2020/01/31 16:21:34.0	357.750	0.220	-0.420	-0.220
2020/01/31 16:21:34.1	357.720	0.180	-0.350	-0.190
2020/01/31 16:21:34.2	357.700	0.140	-0.270	-0.150
2020/01/31 16:21:34.3	357.670	0.100	-0.200	-0.120
2020/01/31 16:21:34.4	357.640	0.060	-0.120	-0.080
2020/01/31 16:21:34.5	357.610	0.010	-0.050	-0.050
2020/01/31 16:21:34.6	357.590	-0.030	0.020	-0.020
2020/01/31 16:21:34.7	357.570	-0.080	0.090	0.010
2020/01/31 16:21:34.8	357.550	-0.130	0.160	0.030
2020/01/31 16:21:34.9	357.520	-0.170	0.220	0.050
2020/01/31 16:21:35.0	357.500	-0.210	0.270	0.070
2020/01/31 16:21:35.1	357.470	-0.250	0.320	0.080
2020/01/31 16:21:35.2	357.450	-0.290	0.370	0.090
2020/01/31 16:21:35.3	357.430	-0.320	0.410	0.090
2020/01/31 16:21:35.4	357.420	-0.350	0.440	0.090
2020/01/31 16:21:35.5	357.400	-0.380	0.460	0.080
2020/01/31 16:21:35.6	357.390	-0.400	0.480	0.070
2020/01/31 16:21:35.7	357.370	-0.420	0.490	0.060
2020/01/31 16:21:35.8	357.370	-0.440	0.490	0.040
2020/01/31 16:21:35.9	357.360	-0.450	0.490	0.020
2020/01/31 16:21:36.0	357.360	-0.450	0.480	-0.000
2020/01/31 16:21:36.1	357.360	-0.450	0.460	-0.030
2020/01/31 16:21:36.2	357.360	-0.450	0.430	-0.060
2020/01/31 16:21:36.3	357.370	-0.440	0.400	-0.090
2020/01/31 16:21:36.4	357.380	-0.420	0.360	-0.120
2020/01/31 16:21:36.5	357.390	-0.400	0.310	-0.160
2020/01/31 16:21:36.6	357.400	-0.380	0.260	-0.190
2020/01/31 16:21:36.7	357.410	-0.350	0.200	-0.230
2020/01/31 16:21:36.8	357.430	-0.320	0.140	-0.270
2020/01/31 16:21:36.9	357.450	-0.290	0.080	-0.310
2020/01/31 16:21:37.0	357.470	-0.260	0.010	-0.350
2020/01/31 16:21:37.1	357.500	-0.220	-0.060	-0.390
2020/01/31 16:21:37.2	357.530	-0.180	-0.140	-0.430
2020/01/31 16:21:37.3	357.550	-0.140	-0.210	-0.470
2020/01/31 16:21:37.4	357.580	-0.090	-0.290	-0.510
2020/01/31 16:21:37.5	357.610	-0.050	-0.360	-0.550
2020/01/31 16:21:37.6	357.640	-0.000	-0.440	-0.580
2020/01/31 16:21:37.7	357.670	0.040	-0.510	-0.620
2020/01/31 16:21:37.8	357.690	0.080	-0.580	-0.650
2020/01/31 16:21:37.9	357.720	0.130	-0.640	-0.670
2020/01/31 16:21:38.0	357.750	0.170	-0.710	-0.700
2020/01/31 16:21:38.1	357.770	0.210	-0.760	-0.720
2020/01/31 16:21:38.2	357.790	0.250	-0.820	-0.740
2020/01/31 16:21:38.3	357.810	0.280	-0.860	-0.750
2020/01/31 16:21:38.4	357.830	0.320	-0.910	-0.770
2020/01/31 16:21:38.5	357.850	0.350	-0.940	-0.770
2020/01/31 16:21:38.6	357.860	0.370	-0.970	-0.780
2020/01/31 16:21:38.7	357.860	0.400	-1.000	-0.780
2020/01/31 16:21:38.8	357.870	0.420	-1.010	-0.770
2020/01/31 16:21:38.9	357.880	0.440	-1.020	-0.770
2020/01/31 16:21:39.0	357.880	0.460	-1.030	-0.760
2020/01/31 16:21:39.1	357.880	0.470	-1.020	-0.740
2020/01/31 16:21:39.2	357.880	0.480	-1.010	-0.720
2020/01/31 16:21:39.3	357.870	0.480	-1.000	-0.700
2020/01/31 16:21:39.4	357.870	0.490	-0.980	-0.680
2020/01/31 16:21:39.5	357.860	0.490	-0.950	-0.650
2020/01/31 16:21:39.6	357.850	0.490	-0.920	-0.620
2020/01/31 16:21:39.7	357.820	0.480	-0.880	-0.590
2020/01/31 16:21:39.8	357.810	0.480	-0.840	-0.560
2020/01/31 16:21:39.9	357.800	0.470	-0.800	-0.530
2020/01/31 16:21:40.0	357.790	0.450	-0.750	-0.490
2020/01/31 16:21:40.1	357.780	0.440	-0.700	-0.460
2020/01/31 16:21:40.2	357.770	0.430	-0.650	-0.430
2020/01/31 16:21:40.3	357.750	0.410	-0.590	-0.390
2020/01/31 16:21:40.4	357.740	0.390	-0.540	-0.360
2020/01/31 16:21:40.5	357.720	0.370	-0.480	-0.330
2020/01/31 16:21:40.6	357.710	0.350	-0.430	-0.300
2020/01/31 16:21:40.7	357.690	0.320	-0.370	-0.270
2020/01/31 16:21:40.8	357.670	0.300	-0.310	-0.240
2020/01/31 16:21:40.9	357.650	0.270	-0.250	-0.210
2020/01/31 16:21:41.0	357.630	0.240	-0.200	-0.180
2020/01/31 16:21:41.1	357.610	0.210	-0.140	-0.150
2020/01/31 16:21:41.2	357.590	0.180	-0.090	-0.130
2020/01/31 16:21:41.3	357.560	0.150	-0.030	-0.110
2020/01/31 16:21:41.4	357.540	0.120	0.020	-0.090
2020/01/31 16:21:41.5	357.520	0.090	0.070	-0.070
2020/01/31 16:21:41.6	357.490	0.050	0.110	-0.050
2020/01/31 16:21:41.7	357.480	0.020	0.150	-0.040
2020/01/31 16:21:41.8	357.460	-0.010	0.190	-0.030
2020/01/31 16:21:41.9	357.440	-0.040	0.230	-0.020
2020/01/31 16:21:42.0	357.420	-0.070	0.260	-0.020
2020/01/31 16:21:42.1	357.400	-0.100	0.280	-0.020
2020/01/31 16:21:42.2	357.390	-0.130	0.300	-0.030
2020/01/31 16:21:42.3	357.380	-0.160	0.320	-0.040
2020/01/31 16:21:42.4	357.380	-0.190	0.330	-0.060
2020/01/31 16:21:42.5	357.370	-0.210	0.340	-0.080
2020/01/31 16:21:42.6	357.370	-0.230	0.340	-0.100
2020/01/31 16:21:42.7	357.370	-0.250	0.340	-0.140
2020/01/31 16:21:42.8	357.380	-0.270	0.330	-0.170
2020/01/31 16:21:42.9	357.380	-0.290	0.310	-0.200
2020/01/31 16:21:43.0	357.390	-0.300	0.300	-0.230
2020/01/31 16:21:43.1	357.410	-0.310	0.280	-0.270
2020/01/31 16:21:43.2	357.420	-0.320	0.250	-0.300
2020/01/31 16:21:43.3	357.430	-0.330	0.230	-0.340
2020/01/31 16:21:43.4	357.440	-0.330	0.200	-0.370
2020/01/31 16:21:43.5	357.450	-0.330	0.170	-0.400
2020/01/31 16:21:43.6	357.470	-0.330	0.140	-0.430
2020/01/31 16:21:43.7	357.480	-0.330	0.100	-0.460
2020/01/31 16:21:43.8	357.490	-0.330	0.070	-0.490
2020/01/31 16:21:43.9	357.500	-0.320	0.040	-0.520
2020/01/31 16:21:44.0	357.510	-0.310	0.000	-0.550
2020/01/31 16:21:44.1	357.520	-0.300	-0.030	-0.570
2020/01/31 16:21:44.2	357.540	-0.290	-0.060	-0.590
2020/01/31 16:21:44.3	357.550	-0.280	-0.090	-0.610
2020/01/31 16:21:44.4	357.560	-0.270	-0.120	-0.630
2020/01/31 16:21:44.5	357.580	-0.260	-0.150	-0.650
2020/01/31 16:21:44.6	357.590	-0.240	-0.170	-0.670
2020/01/31 16:21:44.7	357.610	-0.230	-0.200	-0.680
2020/01/31 16:21:44.8	357.620	-0.210	-0.220	-0.700
2020/01/31 16:21:44.9	357.640	-0.200	-0.240	-0.710
2020/01/31 16:21:45.0	357.650	-0.180	-0.250	-0.710
2020/01/31 16:21:45.1	357.670	-0.170	-0.270	-0.720
2020/01/31 16:21:45.2	357.690	-0.150	-0.280	-0.730
2020/01/31 16:21:45.3	357.710	-0.130	-0.290	-0.730
2020/01/31 16:21:45.4	357.730	-0.120	-0.300	-0.730
2020/01/31 16:21:45.5	357.740	-0.110	-0.300	-0.730
2020/01/31 16:21:45.6	357.760	-0.090	-0.300	-0.720
2020/01/31 16:21:45.7	357.770	-0.080	-0.300	-0.720
2020/01/31 16:21:45.8	357.790	-0.070	-0.300	-0.710
2020/01/31 16:21:45.9	357.800	-0.060	-0.290	-0.700
2020/01/31 16:21:46.0	357.810	-0.050	-0.290	-0.680
2020/01/31 16:21:46.1	357.820	-0.040	-0.280	-0.660
2020/01/31 16:21:46.2	357.830	-0.030	-0.260	-0.640
2020/01/31 16:21:46.3	357.830	-0.030	-0.250	-0.620
2020/01/31 16:21:46.4	357.830	-0.020	-0.230	-0.600
2020/01/31 16:21:46.5	357.830	-0.020	-0.210	-0.570
2020/01/31 16:21:46.6	357.820	-0.020	-0.190	-0.540
2020/01/31 16:21:46.7	357.820	-0.020	-0.170	-0.510
2020/01/31 16:21:46.8	357.810	-0.030	-0.150	-0.470
2020/01/31 16:21:46.9	357.800	-0.030	-0.130	-0.440
2020/01/31 16:21:47.0	357.780	-0.040	-0.110	-0.400
2020/01/31 16:21:47.1	357.760	-0.040	-0.090	-0.370
2020/01/31 16:21:47.2	357.740	-0.050	-0.070	-0.330
2020/01/31 16:21:47.3	357.720	-0.060	-0.050	-0.300
2020/01/31 16:21:47.4	357.700	-0.070	-0.040	-0.260
2020/01/31 16:21:47.5	357.670	-0.080	-0.030	-0.230
2020/01/31 16:21:47.6	357.650	-0.090	-0.020	-0.190
2020/01/31 16:21:47.7	357.630	-0.100	-0.010	-0.160
2020/01/31 16:21:47.8	357.600	-0.110	-0.010	-0.130
2020/01/31 16:21:47.9	357.580	-0.120	-0.020	-0.100
2020/01/31 16:21:48.0	357.560	-0.130	-0.020	-0.080
2020/01/31 16:21:48.1	357.540	-0.140	-0.040	-0.050
2020/01/31 16:21:48.2	357.520	-0.150	-0.050	-0.030
2020/01/31 16:21:48.3	357.500	-0.150	-0.070	-0.020
2020/01/31 16:21:48.4	357.480	-0.160	-0.100	-0.010
2020/01/31 16:21:48.5	357.470	-0.160	-0.130	0.000
2020/01/31 16:21:48.6	357.460	-0.160	-0.160	0.000
2020/01/31 16:21:48.7	357.460	-0.160	-0.190	-0.000
2020/01/31 16:21:48.8	357.450	-0.160	-0.230	-0.010
2020/01/31 16:21:48.9	357.450	-0.150	-0.270	-0.020
2020/01/31 16:21:49.0	357.450	-0.150	-0.310	-0.030
2020/01/31 16:21:49.1	357.450	-0.140	-0.350	-0.050
2020/01/31 16:21:49.2	357.450	-0.130	-0.390	-0.060
2020/01/31 16:21:49.3	357.460	-0.110	-0.440	-0.090
2020/01/31 16:21:49.4	357.460	-0.100	-0.480	-0.110
2020/01/31 16:21:49.5	357.470	-0.080	-0.520	-0.130
2020/01/31 16:21:49.6	357.470	-0.060	-0.560	-0.160
2020/01/31 16:21:49.7	357.470	-0.040	-0.600	-0.190
2020/01/31 16:21:49.8	357.480	-0.020	-0.640	-0.210
2020/01/31 16:21:49.9	357.490	0.000	-0.670	-0.230
2020/01/31 16:21:50.0	357.490	0.030	-0.700	-0.250
2020/01/31 16:21:50.1	357.500	0.050	-0.720	-0.270
2020/01/31 16:21:50.2	357.500	0.080	-0.740	-0.280
2020/01/31 16:21:50.3	357.510	0.100	-0.760	-0.290
2020/01/31 16:21:50.4	357.510	0.130	-0.780	-0.300
2020/01/31 16:21:50.5	357.510	0.150	-0.780	-0.310
2020/01/31 16:21:50.6	357.510	0.180	-0.790	-0.310
2020/01/31 16:21:50.7	357.500	0.200	-0.790	-0.310
2020/01/31 16:21:50.8	357.500	0.220	-0.790	-0.310
2020/01/31 16:21:50.9	357.490	0.250	-0.790	-0.310
2020/01/31 16:21:51.0	357.490	0.260	-0.780	-0.310
2020/01/31 16:21:51.1	357.480	0.280	-0.770	-0.310
2020/01/31 16:21:51.2	357.480	0.300	-0.750	-0.300
2020/01/31 16:21:51.3	357.470	0.310	-0.740	-0.300
2020/01/31 16:21:51.4	357.470	0.320	-0.720	-0.300
2020/01/31 16:21:51.5	357.470	0.330	-0.700	-0.300
2020/01/31 16:21:51.6	357.460	0.340	-0.680	-0.290
2020/01/31 16:21:51.7	357.460	0.340	-0.650	-0.300
2020/01/31 16:21:51.8	357.460	0.340	-0.630	-0.300
2020/01/31 16:21:51.9	357.450	0.340	-0.610	-0.300
2020/01/31 16:21:52.0	357.450	0.340	-0.580	-0.300
2020/01/31 16:21:52.1	357.460	0.340	-0.560	-0.300
2020/01/31 16:21:52.2	357.460	0.330	-0.530	-0.310
2020/01/31 16:21:52.3	357.460	0.320	-0.510	-0.310
2020/01/31 16:21:52.4	357.470	0.310	-0.480	-0.320
2020/01/31 16:21:52.5	357.480	0.300	-0.460	-0.320
2020/01/31 16:21:52.6	357.480	0.290	-0.430	-0.330
2020/01/31 16:21:52.7	357.500	0.280	-0.410	-0.340
2020/01/31 16:21:52.8	357.510	0.270	-0.390	-0.350
2020/01/31 16:21:52.9	357.530	0.260	-0.370	-0.360
2020/01/31 16:21:53.0	357.550	0.250	-0.360	-0.370
2020/01/31 16:21:53.1	357.570	0.240	-0.340	-0.370
2020/01/31 16:21:53.2	357.600	0.220	-0.320	-0.380
2020/01/31 16:21:53.3	357.620	0.210	-0.310	-0.390
2020/01/31 16:21:53.4	357.650	0.200	-0.300	-0.400
2020/01/31 16:21:53.5	357.680	0.190	-0.290	-0.410
2020/01/31 16:21:53.6	357.720	0.190	-0.270	-0.420
2020/01/31 16:21:53.7	357.740	0.180	-0.260	-0.440
2020/01/31 16:21:53.8	357.780	0.170	-0.250	-0.450
2020/01/31 16:21:53.9	357.820	0.160	-0.240	-0.460
2020/01/31 16:21:54.0	357.860	0.160	-0.230	-0.470
2020/01/31 16:21:54.1	357.890	0.150	-0.220	-0.480
2020/01/31 16:21:54.2	357.930	0.150	-0.210	-0.490
2020/01/31 16:21:54.3	357.970	0.150	-0.200	-0.500
2020/01/31 16:21:54.4	358.010	0.140	-0.180	-0.510
2020/01/31 16:21:54.5	358.050	0.140	-0.170	-0.520
2020/01/31 16:21:54.6	358.080	0.140	-0.150	-0.520
2020/01/31 16:21:54.7	358.120	0.130	-0.130	-0.530
2020/01/31 16:21:54.8	358.150	0.130	-0.110	-0.530
2020/01/31 16:21:54.9	358.180	0.120	-0.090	-0.530
2020/01/31 16:21:55.0	358.210	0.120	-0.070	-0.520
2020/01/31 16:21:55.1	358.230	0.110	-0.040	-0.520
2020/01/31 16:21:55.2	358.260	0.110	-0.020	-0.510
2020/01/31 16:21:55.3	358.280	0.100	0.010	-0.490
2020/01/31 16:21:55.4	358.290	0.090	0.030	-0.480
2020/01/31 16:21:55.5	358.310	0.080	0.050	-0.460
2020/01/31 16:21:55.6	358.320	0.070	0.080	-0.450
2020/01/31 16:21:55.7	358.330	0.060	0.100	-0.420
2020/01/31 16:21:55.8	358.330	0.050	0.120	-0.400
2020/01/31 16:21:55.9	358.330	0.030	0.140	-0.380
2020/01/31 16:21:56.0	358.330	0.020	0.160	-0.360
2020/01/31 16:21:56.1	358.330	0.000	0.180	-0.330
2020/01/31 16:21:56.2	358.320	-0.010	0.190	-0.300
2020/01/31 16:21:56.3	358.310	-0.030	0.200	-0.280
2020/01/31 16:21:56.4	358.300	-0.050	0.210	-0.250
2020/01/31 16:21:56.5	358.290	-0.070	0.220	-0.220
2020/01/31 16:21:56.6	358.270	-0.090	0.230	-0.190
2020/01/31 16:21:56.7	358.240	-0.110	0.230	-0.170
2020/01/31 16:21:56.8	358.220	-0.130	0.230	-0.140
2020/01/31 16:21:56.9	358.200	-0.150	0.230	-0.120
2020/01/31 16:21:57.0	358.170	-0.170	0.230	-0.090
2020/01/31 16:21:57.1	358.140	-0.190	0.220	-0.080
2020/01/31 16:21:57.2	358.110	-0.210	0.210	-0.060
2020/01/31 16:21:57.3	358.080	-0.230	0.200	-0.050
2020/01/31 16:21:57.4	358.040	-0.250	0.180	-0.040
2020/01/31 16:21:57.5	358.010	-0.260	0.170	-0.030
2020/01/31 16:21:57.6	357.970	-0.280	0.150	-0.020
2020/01/31 16:21:57.7	357.930	-0.290	0.130	-0.030
2020/01/31 16:21:57.8	357.900	-0.310	0.110	-0.030
2020/01/31 16:21:57.9	357.860	-0.320	0.090	-0.030
2020/01/31 16:21:58.0	357.820	-0.330	0.070	-0.040
2020/01/31 16:21:58.1	357.780	-0.340	0.050	-0.050
2020/01/31 16:21:58.2	357.740	-0.340	0.030	-0.050
2020/01/31 16:21:58.3	357.700	-0.350	0.010	-0.060
2020/01/31 16:21:58.4	357.660	-0.350	-0.010	-0.080
2020/01/31 16:21:58.5	357.620	-0.350	-0.030	-0.090
2020/01/31 16:21:58.6	357.580	-0.340	-0.050	-0.100
2020/01/31 16:21:58.7	357.540	-0.340	-0.060	-0.120
2020/01/31 16:21:58.8	357.500	-0.330	-0.080	-0.130
2020/01/31 16:21:58.9	357.470	-0.330	-0.090	-0.150
2020/01/31 16:21:59.0	357.430	-0.320	-0.100	-0.170
2020/01/31 16:21:59.1	357.400	-0.300	-0.110	-0.180
2020/01/31 16:21:59.2	357.370	-0.290	-0.120	-0.200
2020/01/31 16:21:59.3	357.330	-0.280	-0.130	-0.220
2020/01/31 16:21:59.4	357.310	-0.260	-0.140	-0.240
2020/01/31 16:21:59.5	357.280	-0.250	-0.140	-0.260
2020/01/31 16:21:59.6	357.250	-0.230	-0.140	-0.280
2020/01/31 16:21:59.7	357.230	-0.210	-0.150	-0.300
2020/01/31 16:21:59.8	357.210	-0.190	-0.150	-0.320
2020/01/31 16:21:59.9	357.190	-0.170	-0.150	-0.340
2020/01/31 16:22:00.0	357.170	-0.160	-0.150	-0.360
2020/01/31 16:22:00.1	357.160	-0.140	-0.150	-0.370
2020/01/31 16:22:00.2	357.150	-0.120	-0.150	-0.390
2020/01/31 16:22:00.3	357.140	-0.100	-0.150	-0.410
2020/01/31 16:22:00.4	357.130	-0.080	-0.150	-0.430
2020/01/31 16:22:00.5	357.130	-0.060	-0.150	-0.440
2020/01/31 16:22:00.6	357.120	-0.040	-0.150	-0.460
2020/01/31 16:22:00.7	357.120	-0.030	-0.150	-0.470
2020/01/31 16:22:00.8	357.120	-0.010	-0.150	-0.490
2020/01/31 16:22:00.9	357.120	0.010	-0.160	-0.500
2020/01/31 16:22:01.0	357.130	0.020	-0.160	-0.510
2020/01/31 16:22:01.1	357.130	0.040	-0.170	-0.520
2020/01/31 16:22:01.2	357.140	0.060	-0.180	-0.530
2020/01/31 16:22:01.3	357.150	0.070	-0.190	-0.540
2020/01/31 16:22:01.4	357.170	0.080	-0.210	-0.550
2020/01/31 16:22:01.5	357.180	0.100	-0.220	-0.560
2020/01/31 16:22:01.6	357.200	0.110	-0.240	-0.570
2020/01/31 16:22:01.7	357.210	0.130	-0.260	-0.580
2020/01/31 16:22:01.8	357.230	0.140	-0.290	-0.590
2020/01/31 16:22:01.9	357.250	0.150	-0.310	-0.600
2020/01/31 16:22:02.0	357.280	0.160	-0.340	-0.610
2020/01/31 16:22:02.1	357.300	0.180	-0.370	-0.620
2020/01/31 16:22:02.2	357.320	0.190	-0.410	-0.630
2020/01/31 16:22:02.3	357.350	0.200	-0.440	-0.630
2020/01/31 16:22:02.4	357.370	0.210	-0.480	-0.640
2020/01/31 16:22:02.5	357.400	0.220	-0.520	-0.650
2020/01/31 16:22:02.6	357.430	0.230	-0.560	-0.660
2020/01/31 16:22:02.7	357.460	0.240	-0.600	-0.660
2020/01/31 16:22:02.8	357.490	0.250	-0.640	-0.670
2020/01/31 16:22:02.9	357.510	0.260	-0.680	-0.680
2020/01/31 16:22:03.0	357.550	0.270	-0.720	-0.690
2020/01/31 16:22:03.1	357.580	0.280	-0.770	-0.700
2020/01/31 16:22:03.2	357.610	0.280	-0.810	-0.710
2020/01/31 16:22:03.3	357.640	0.290	-0.850	-0.720
2020/01/31 16:22:03.4	357.670	0.290	-0.890	-0.740
2020/01/31 16:22:03.5	357.710	0.300	-0.930	-0.750
2020/01/31 16:22:03.6	357.740	0.300	-0.970	-0.770
2020/01/31 16:22:03.7	357.770	0.300	-1.000	-0.790
2020/01/31 16:22:03.8	357.800	0.300	-1.040	-0.800
2020/01/31 16:22:03.9	357.830	0.290	-1.060	-0.820
2020/01/31 16:22:04.0	357.860	0.290	-1.090	-0.840
2020/01/31 16:22:04.1	357.890	0.280	-1.110	-0.860
2020/01/31 16:22:04.2	357.920	0.270	-1.130	-0.880
2020/01/31 16:22:04.3	357.950	0.260	-1.140	-0.890
2020/01/31 16:22:04.4	357.980	0.250	-1.150	-0.910
2020/01/31 16:22:04.5	358.010	0.240	-1.150	-0.930
2020/01/31 16:22:04.6	358.030	0.220	-1.150	-0.950
2020/01/31 16:22:04.7	358.050	0.210	-1.140	-0.960
2020/01/31 16:22:04.8	358.070	0.190	-1.120	-0.980
2020/01/31 16:22:04.9	358.100	0.170	-1.110	-0.990
2020/01/31 16:22:05.0	358.120	0.150	-1.080	-1.000
2020/01/31 16:22:05.1	358.140	0.130	-1.050	-1.010
2020/01/31 16:22:05.2	358.160	0.110	-1.020	-1.010
2020/01/31 16:22:05.3	358.180	0.090	-0.970	-1.010
2020/01/31 16:22:05.4	358.190	0.070	-0.930	-1.010
2020/01/31 16:22:05.5	358.210	0.040	-0.880	-1.010
2020/01/31 16:22:05.6	358.220	0.020	-0.820	-1.010
2020/01/31 16:22:05.7	358.230	-0.000	-0.760	-1.000
2020/01/31 16:22:05.8	358.240	-0.030	-0.700	-0.990
2020/01/31 16:22:05.9	358.250	-0.050	-0.640	-0.970
2020/01/31 16:22:06.0	358.260	-0.070	-0.570	-0.960
2020/01/31 16:22:06.1	358.270	-0.090	-0.500	-0.940
2020/01/31 16:22:06.2	358.270	-0.110	-0.420	-0.920
2020/01/31 16:22:06.3	358.270	-0.130	-0.350	-0.890
2020/01/31 16:22:06.4	358.280	-0.150	-0.280	-0.870
2020/01/31 16:22:06.5	358.280	-0.160	-0.200	-0.840
2020/01/31 16:22:06.6	358.280	-0.180	-0.130	-0.810
2020/01/31 16:22:06.7	358.270	-0.190	-0.050	-0.770
2020/01/31 16:22:06.8	358.270	-0.200	0.020	-0.740
2020/01/31 16:22:06.9	358.260	-0.210	0.090	-0.700
2020/01/31 16:22:07.0	358.260	-0.210	0.160	-0.660
2020/01/31 16:22:07.1	358.250	-0.220	0.230	-0.620
2020/01/31 16:22:07.2	358.240	-0.220	0.300	-0.570
2020/01/31 16:22:07.3	358.230	-0.220	0.360	-0.530
2020/01/31 16:22:07.4	358.220	-0.220	0.420	-0.480
2020/01/31 16:22:07.5	358.210	-0.210	0.470	-0.440
2020/01/31 16:22:07.6	358.200	-0.210	0.520	-0.390
2020/01/31 16:22:07.7	358.190	-0.200	0.570	-0.340
2020/01/31 16:22:07.8	358.180	-0.190	0.610	-0.300
2020/01/31 16:22:07.9	358.160	-0.180	0.650	-0.250
2020/01/31 16:22:08.0	358.150	-0.170	0.680	-0.200
2020/01/31 16:22:08.1	358.130	-0.150	0.710	-0.150
2020/01/31 16:22:08.2	358.110	-0.140	0.740	-0.110
2020/01/31 16:22:08.3	358.090	-0.130	0.760	-0.060
2020/01/31 16:22:08.4	358.080	-0.110	0.770	-0.010
2020/01/31 16:22:08.5	358.060	-0.100	0.780	0.040
2020/01/31 16:22:08.6	358.030	-0.080	0.790	0.080
2020/01/31 16:22:08.7	358.010	-0.070	0.790	0.130
2020/01/31 16:22:08.8	357.980	-0.050	0.790	0.170
2020/01/31 16:22:08.9	357.960	-0.040	0.780	0.220
2020/01/31 16:22:09.0	357.930	-0.030	0.770	0.260
2020/01/31 16:22:09.1	357.910	-0.020	0.760	0.300
2020/01/31 16:22:09.2	357.880	-0.010	0.740	0.340
2020/01/31 16:22:09.3	357.850	0.000	0.720	0.370
2020/01/31 16:22:09.4	357.830	0.010	0.690	0.400
2020/01/31 16:22:09.5	357.800	0.020	0.660	0.430
2020/01/31 16:22:09.6	357.770	0.020	0.630	0.460
2020/01/31 16:22:09.7	357.730	0.020	0.590	0.480
2020/01/31 16:22:09.8	357.700	0.030	0.550	0.490
2020/01/31 16:22:09.9	357.660	0.020	0.500	0.500
2020/01/31 16:22:10.0	357.630	0.020	0.460	0.510
2020/01/31 16:22:10.1	357.600	0.020	0.410	0.510
2020/01/31 16:22:10.2	357.560	0.010	0.360	0.510
2020/01/31 16:22:10.3	357.530	0.010	0.300	0.510
2020/01/31 16:22:10.4	357.490	-0.000	0.250	0.500
2020/01/31 16:22:10.5	357.460	-0.010	0.190	0.480
2020/01/31 16:22:10.6	357.420	-0.020	0.130	0.460
2020/01/31 16:22:10.7	357.390	-0.030	0.070	0.440
2020/01/31 16:22:10.8	357.360	-0.040	0.010	0.410
2020/01/31 16:22:10.9	357.330	-0.050	-0.050	0.390
2020/01/31 16:22:11.0	357.300	-0.060	-0.110	0.360
2020/01/31 16:22:11.1	357.270	-0.060	-0.170	0.330
2020/01/31 16:22:11.2	357.240	-0.070	-0.230	0.300
2020/01/31 16:22:11.3	357.220	-0.080	-0.290	0.260
2020/01/31 16:22:11.4	357.200	-0.090	-0.350	0.220
2020/01/31 16:22:11.5	357.180	-0.090	-0.410	0.180
2020/01/31 16:22:11.6	357.170	-0.090	-0.470	0.140
2020/01/31 16:22:11.7	357.150	-0.090	-0.530	0.100
2020/01/31 16:22:11.8	357.150	-0.090	-0.590	0.050
2020/01/31 16:22:11.9	357.150	-0.090	-0.650	-0.000
2020/01/31 16:22:12.0	357.150	-0.080	-0.700	-0.060
2020/01/31 16:22:12.1	357.160	-0.070	-0.760	-0.110
2020/01/31 16:22:12.2	357.170	-0.060	-0.810	-0.170
2020/01/31 16:22:12.3	357.190	-0.050	-0.870	-0.230
2020/01/31 16:22:12.4	357.210	-0.030	-0.920	-0.290
2020/01/31 16:22:12.5	357.240	-0.020	-0.960	-0.360
2020/01/31 16:22:12.6	357.260	-0.000	-1.010	-0.420
2020/01/31 16:22:12.7	357.300	0.020	-1.050	-0.490
2020/01/31 16:22:12.8	357.330	0.040	-1.080	-0.560
2020/01/31 16:22:12.9	357.360	0.060	-1.120	-0.620
2020/01/31 16:22:13.0	357.400	0.070	-1.140	-0.690
2020/01/31 16:22:13.1	357.440	0.090	-1.170	-0.750
2020/01/31 16:22:13.2	357.480	0.110	-1.180	-0.810
2020/01/31 16:22:13.3	357.520	0.130	-1.190	-0.870
2020/01/31 16:22:13.4	357.550	0.150	-1.200	-0.930
2020/01/31 16:22:13.5	357.590	0.160	-1.200	-0.980
2020/01/31 16:22:13.6	357.630	0.170	-1.190	-1.030
2020/01/31 16:22:13.7	357.660	0.190	-1.180	-1.080
2020/01/31 16:22:13.8	357.690	0.200	-1.160	-1.120
2020/01/31 16:22:13.9	357.730	0.200	-1.130	-1.150
2020/01/31 16:22:14.0	357.760	0.210	-1.100	-1.190
2020/01/31 16:22:14.1	357.790	0.210	-1.070	-1.210
2020/01/31 16:22:14.2	357.820	0.210	-1.030	-1.240
2020/01/31 16:22:14.3	357.850	0.210	-0.990	-1.250
2020/01/31 16:22:14.4	357.880	0.210	-0.940	-1.270
2020/01/31 16:22:14.5	357.900	0.200	-0.890	-1.280
2020/01/31 16:22:14.6	357.930	0.190	-0.840	-1.280
2020/01/31 16:22:14.7	357.950	0.180	-0.780	-1.280
2020/01/31 16:22:14.8	357.970	0.170	-0.720	-1.270
2020/01/31 16:22:14.9	358.000	0.160	-0.660	-1.270
2020/01/31 16:22:15.0	358.020	0.140	-0.610	-1.250
2020/01/31 16:22:15.1	358.050	0.130	-0.550	-1.240
2020/01/31 16:22:15.2	358.070	0.110	-0.490	-1.220
2020/01/31 16:22:15.3	358.090	0.090	-0.430	-1.200
2020/01/31 16:22:15.4	358.120	0.080	-0.370	-1.180
2020/01/31 16:22:15.5	358.140	0.060	-0.310	-1.150
2020/01/31 16:22:15.6	358.160	0.040	-0.260	-1.120
2020/01/31 16:22:15.7	358.190	0.020	-0.210	-1.090
2020/01/31 16:22:15.8	358.210	0.000	-0.160	-1.050
2020/01/31 16:22:15.9	358.230	-0.010	-0.110	-1.020
2020/01/31 16:22:16.0	358.250	-0.030	-0.070	-0.980
2020/01/31 16:22:16.1	358.260	-0.050	-0.020	-0.940
2020/01/31 16:22:16.2	358.280	-0.060	0.010	-0.900
2020/01/31 16:22:16.3	358.290	-0.080	0.050	-0.860
2020/01/31 16:22:16.4	358.300	-0.090	0.080	-0.810
2020/01/31 16:22:16.5	358.300	-0.100	0.100	-0.770
2020/01/31 16:22:16.6	358.310	-0.110	0.130	-0.730
2020/01/31 16:22:16.7	358.310	-0.130	0.140	-0.680
2020/01/31 16:22:16.8	358.310	-0.140	0.160	-0.630
2020/01/31 16:22:16.9	358.300	-0.150	0.170	-0.590
2020/01/31 16:22:17.0	358.300	-0.150	0.180	-0.550
2020/01/31 16:22:17.1	358.290	-0.160	0.180	-0.510
2020/01/31 16:22:17.2	358.280	-0.170	0.180	-0.470
2020/01/31 16:22:17.3	358.270	-0.170	0.180	-0.430
2020/01/31 16:22:17.4	358.250	-0.180	0.170	-0.390
2020/01/31 16:22:17.5	358.240	-0.180	0.170	-0.350
2020/01/31 16:22:17.6	358.220	-0.190	0.160	-0.310
2020/01/31 16:22:17.7	358.210	-0.190	0.150	-0.280
2020/01/31 16:22:17.8	358.190	-0.190	0.140	-0.250
2020/01/31 16:22:17.9	358.170	-0.190	0.120	-0.210
2020/01/31 16:22:18.0	358.150	-0.180	0.110	-0.180
2020/01/31 16:22:18.1	358.130	-0.180	0.100	-0.150
2020/01/31 16:22:18.2	358.110	-0.180	0.080	-0.120
2020/01/31 16:22:18.3	358.080	-0.170	0.070	-0.090
2020/01/31 16:22:18.4	358.060	-0.170	0.050	-0.060
2020/01/31 16:22:18.5	358.040	-0.160	0.040	-0.030
2020/01/31 16:22:18.6	358.020	-0.150	0.020	0.000
2020/01/31 16:22:18.7	358.000	-0.140	0.010	0.030
2020/01/31 16:22:18.8	357.980	-0.130	-0.000	0.060
2020/01/31 16:22:18.9	357.960	-0.120	-0.010	0.080
2020/01/31 16:22:19.0	357.940	-0.110	-0.020	0.110
2020/01/31 16:22:19.1	357.920	-0.100	-0.030	0.130
2020/01/31 16:22:19.2	357.900	-0.090	-0.040	0.140
2020/01/31 16:22:19.3	357.880	-0.080	-0.040	0.160
2020/01/31 16:22:19.4	357.860	-0.070	-0.050	0.170
2020/01/31 16:22:19.5	357.850	-0.060	-0.050	0.180
2020/01/31 16:22:19.6	357.830	-0.050	-0.060	0.180
2020/01/31 16:22:19.7	357.830	-0.040	-0.060	0.180
2020/01/31 16:22:19.8	357.810	-0.030	-0.060	0.180
2020/01/31 16:22:19.9	357.800	-0.020	-0.070	0.180
2020/01/31 16:22:20.0	357.790	-0.010	-0.070	0.170
2020/01/31 16:22:20.1	357.780	0.000	-0.070	0.160
2020/01/31 16:22:20.2	357.770	0.010	-0.070	0.140
2020/01/31 16:22:20.3	357.760	0.020	-0.070	0.130
2020/01/31 16:22:20.4	357.750	0.020	-0.080	0.110
2020/01/31 16:22:20.5	357.750	0.030	-0.080	0.100
2020/01/31 16:22:20.6	357.740	0.040	-0.080	0.080
2020/01/31 16:22:20.7	357.730	0.040	-0.080	0.050
2020/01/31 16:22:20.8	357.720	0.050	-0.080	0.030
2020/01/31 16:22:20.9	357.710	0.050	-0.090	0.010
2020/01/31 16:22:21.0	357.700	0.060	-0.090	-0.010
2020/01/31 16:22:21.1	357.690	0.060	-0.090	-0.030
2020/01/31 16:22:21.2	357.690	0.060	-0.090	-0.040
2020/01/31 16:22:21.3	357.680	0.070	-0.090	-0.060
2020/01/31 16:22:21.4	357.670	0.070	-0.090	-0.080
2020/01/31 16:22:21.5	357.660	0.070	-0.090	-0.100
2020/01/31 16:22:21.6	357.650	0.070	-0.090	-0.110
2020/01/31 16:22:21.7	357.630	0.070	-0.090	-0.130
2020/01/31 16:22:21.8	357.620	0.070	-0.090	-0.150
2020/01/31 16:22:21.9	357.610	0.070	-0.090	-0.160
2020/01/31 16:22:22.0	357.600	0.070	-0.090	-0.170
2020/01/31 16:22:22.1	357.580	0.070	-0.090	-0.180
2020/01/31 16:22:22.2	357.570	0.070	-0.090	-0.180
2020/01/31 16:22:22.3	357.560	0.070	-0.080	-0.190
2020/01/31 16:22:22.4	357.550	0.070	-0.080	-0.200
2020/01/31 16:22:22.5	357.540	0.070	-0.090	-0.200
2020/01/31 16:22:22.6	357.530	0.070	-0.090	-0.210
2020/01/31 16:22:22.7	357.530	0.070	-0.090	-0.210
2020/01/31 16:22:22.8	357.520	0.080	-0.100	-0.210
2020/01/31 16:22:22.9	357.510	0.080	-0.110	-0.220
2020/01/31 16:22:23.0	357.510	0.090	-0.120	-0.220
2020/01/31 16:22:23.1	357.500	0.090	-0.130	-0.230
2020/01/31 16:22:23.2	357.500	0.100	-0.150	-0.240
2020/01/31 16:22:23.3	357.500	0.110	-0.180	-0.240
2020/01/31 16:22:23.4	357.500	0.120	-0.200	-0.250
2020/01/31 16:22:23.5	357.510	0.130	-0.230	-0.260
2020/01/31 16:22:23.6	357.520	0.140	-0.270	-0.270
2020/01/31 16:22:23.7	357.530	0.150	-0.310	-0.280
2020/01/31 16:22:23.8	357.540	0.160	-0.350	-0.300
2020/01/31 16:22:23.9	357.560	0.180	-0.390	-0.320
2020/01/31 16:22:24.0	357.570	0.190	-0.430	-0.330
2020/01/31 16:22:24.1	357.590	0.210	-0.480	-0.350
2020/01/31 16:22:24.2	357.610	0.220	-0.530	-0.370
2020/01/31 16:22:24.3	357.630	0.240	-0.580	-0.390
2020/01/31 16:22:24.4	357.660	0.250	-0.630	-0.410
2020/01/31 16:22:24.5	357.680	0.270	-0.680	-0.430
2020/01/31 16:22:24.6	357.710	0.280	-0.730	-0.450
2020/01/31 16:22:24.7	357.730	0.290	-0.780	-0.480
2020/01/31 16:22:24.8	357.750	0.300	-0.830	-0.500
2020/01/31 16:22:24.9	357.780	0.310	-0.870	-0.520
2020/01/31 16:22:25.0	357.800	0.320	-0.910	-0.540
2020/01/31 16:22:25.1	357.830	0.320	-0.950	-0.560
2020/01/31 16:22:25.2	357.850	0.330	-0.990	-0.570
2020/01/31 16:22:25.3	357.870	0.330	-1.020	-0.590
2020/01/31 16:22:25.4	357.890	0.330	-1.040	-0.610
2020/01/31 16:22:25.5	357.910	0.320	-1.060	-0.620
2020/01/31 16:22:25.6	357.920	0.310	-1.070	-0.630
2020/01/31 16:22:25.7	357.940	0.300	-1.080	-0.650
2020/01/31 16:22:25.8	357.950	0.290	-1.080	-0.660
2020/01/31 16:22:25.9	357.960	0.270	-1.070	-0.670
2020/01/31 16:22:26.0	357.970	0.250	-1.060	-0.680
2020/01/31 16:22:26.1	357.980	0.230	-1.040	-0.680
2020/01/31 16:22:26.2	357.980	0.200	-1.010	-0.690
2020/01/31 16:22:26.3	357.990	0.170	-0.980	-0.700
2020/01/31 16:22:26.4	357.990	0.130	-0.940	-0.710
2020/01/31 16:22:26.5	358.000	0.100	-0.900	-0.720
2020/01/31 16:22:26.6	358.000	0.060	-0.840	-0.720
2020/01/31 16:22:26.7	358.000	0.010	-0.790	-0.730
2020/01/31 16:22:26.8	358.010	-0.030	-0.730	-0.740
2020/01/31 16:22:26.9	358.010	-0.080	-0.660	-0.740
2020/01/31 16:22:27.0	358.010	-0.130	-0.590	-0.750
2020/01/31 16:22:27.1	358.010	-0.180	-0.520	-0.760
2020/01/31 16:22:27.2	358.010	-0.230	-0.450	-0.760
2020/01/31 16:22:27.3	358.020	-0.280	-0.370	-0.770
2020/01/31 16:22:27.4	358.020	-0.330	-0.300	-0.780
2020/01/31 16:22:27.5	358.030	-0.380	-0.220	-0.780
2020/01/31 16:22:27.6	358.030	-0.420	-0.140	-0.780
2020/01/31 16:22:27.7	358.030	-0.470	-0.070	-0.790
2020/01/31 16:22:27.8	358.040	-0.520	0.010	-0.790
2020/01/31 16:22:27.9	358.050	-0.560	0.080	-0.790
2020/01/31 16:22:28.0	358.060	-0.600	0.160	-0.790
2020/01/31 16:22:28.1	358.060	-0.640	0.230	-0.780
2020/01/31 16:22:28.2	358.070	-0.670	0.290	-0.780
2020/01/31 16:22:28.3	358.080	-0.700	0.360	-0.770
2020/01/31 16:22:28.4	358.090	-0.730	0.420	-0.760
2020/01/31 16:22:28.5	358.100	-0.750	0.480	-0.750
2020/01/31 16:22:28.6	358.110	-0.770	0.530	-0.740
2020/01/31 16:22:28.7	358.120	-0.780	0.580	-0.730
2020/01/31 16:22:28.8	358.130	-0.790	0.630	-0.710
2020/01/31 16:22:28.9	358.130	-0.800	0.670	-0.700
2020/01/31 16:22:29.0	358.140	-0.790	0.700	-0.680
2020/01/31 16:22:29.1	358.140	-0.790	0.730	-0.660
2020/01/31 16:22:29.2	358.150	-0.780	0.750	-0.640
2020/01/31 16:22:29.3	358.150	-0.760	0.770	-0.620
2020/01/31 16:22:29.4	358.160	-0.740	0.780	-0.610
2020/01/31 16:22:29.5	358.160	-0.720	0.780	-0.590
2020/01/31 16:22:29.6	358.160	-0.690	0.770	-0.570
2020/01/31 16:22:29.7	358.160	-0.650	0.760	-0.550
2020/01/31 16:22:29.8	358.170	-0.610	0.740	-0.530
2020/01/31 16:22:29.9	358.170	-0.570	0.720	-0.510
2020/01/31 16:22:30.0	358.170	-0.520	0.690	-0.490
2020/01/31 16:22:30.1	358.170	-0.470	0.650	-0.460
2020/01/31 16:22:30.2	358.160	-0.420	0.610	-0.440
2020/01/31 16:22:30.3	358.160	-0.360	0.560	-0.410
2020/01/31 16:22:30.4	358.150	-0.300	0.510	-0.380
2020/01/31 16:22:30.5	358.140	-0.240	0.450	-0.350
2020/01/31 16:22:30.6	358.130	-0.180	0.390	-0.310
2020/01/31 16:22:30.7	358.120	-0.120	0.330	-0.270
2020/01/31 16:22:30.8	358.100	-0.060	0.270	-0.230
2020/01/31 16:22:30.9	358.070	0.010	0.200	-0.180
2020/01/31 16:22:31.0	358.050	0.070	0.140	-0.140
2020/01/31 16:22:31.1	358.020	0.130	0.070	-0.090
2020/01/31 16:22:31.2	357.990	0.190	0.010	-0.040
2020/01/31 16:22:31.3	357.950	0.250	-0.060	0.010
2020/01/31 16:22:31.4	357.920	0.310	-0.120	0.060
2020/01/31 16:22:31.5	357.880	0.370	-0.180	0.110
2020/01/31 16:22:31.6	357.830	0.420	-0.240	0.160
2020/01/31 16:22:31.7	357.780	0.470	-0.290	0.220
2020/01/31 16:22:31.8	357.740	0.520	-0.350	0.270
2020/01/31 16:22:31.9	357.690	0.570	-0.410	0.320
2020/01/31 16:22:32.0	357.640	0.610	-0.460	0.360
2020/01/31 16:22:32.1	357.590	0.650	-0.510	0.410
2020/01/31 16:22:32.2	357.540	0.690	-0.560	0.450
2020/01/31 16:22:32.3	357.490	0.720	-0.600	0.500
2020/01/31 16:22:32.4	357.450	0.750	-0.640	0.540
2020/01/31 16:22:32.5	357.400	0.780	-0.690	0.570
2020/01/31 16:22:32.6	357.350	0.800	-0.720	0.600
2020/01/31 16:22:32.7	357.320	0.820	-0.760	0.630
2020/01/31 16:22:32.8	357.280	0.840	-0.790	0.650
2020/01/31 16:22:32.9	357.240	0.860	-0.820	0.670
2020/01/31 16:22:33.0	357.210	0.870	-0.850	0.680
2020/01/31 16:22:33.1	357.170	0.880	-0.880	0.690
2020/01/31 16:22:33.2	357.150	0.890	-0.910	0.690
2020/01/31 16:22:33.3	357.120	0.890	-0.930	0.690
2020/01/31 16:22:33.4	357.100	0.900	-0.950	0.680
2020/01/31 16:22:33.5	357.080	0.900	-0.970	0.660
2020/01/31 16:22:33.6	357.070	0.890	-0.980	0.640
2020/01/31 16:22:33.7	357.060	0.890	-1.000	0.610
2020/01/31 16:22:33.8	357.060	0.880	-1.010	0.580
2020/01/31 16:22:33.9	357.060	0.870	-1.020	0.530
2020/01/31 16:22:34.0	357.070	0.860	-1.030	0.480
2020/01/31 16:22:34.1	357.080	0.850	-1.040	0.420
2020/01/31 16:22:34.2	357.100	0.830	-1.040	0.360
2020/01/31 16:22:34.3	357.120	0.810	-1.040	0.290
2020/01/31 16:22:34.4	357.150	0.790	-1.040	0.220
2020/01/31 16:22:34.5	357.180	0.770	-1.040	0.130
2020/01/31 16:22:34.6	357.210	0.740	-1.030	0.050
2020/01/31 16:22:34.7	357.250	0.710	-1.020	-0.050
2020/01/31 16:22:34.8	357.290	0.670	-1.010	-0.140
2020/01/31 16:22:34.9	357.330	0.630	-0.990	-0.240
2020/01/31 16:22:35.0	357.380	0.580	-0.960	-0.340
2020/01/31 16:22:35.1	357.420	0.540	-0.940	-0.440
2020/01/31 16:22:35.2	357.470	0.480	-0.910	-0.550
2020/01/31 16:22:35.3	357.510	0.420	-0.870	-0.660
2020/01/31 16:22:35.4	357.560	0.360	-0.830	-0.760
2020/01/31 16:22:35.5	357.610	0.300	-0.780	-0.870
2020/01/31 16:22:35.6	357.650	0.230	-0.730	-0.970
2020/01/31 16:22:35.7	357.690	0.150	-0.680	-1.070
2020/01/31 16:22:35.8	357.730	0.070	-0.620	-1.170
2020/01/31 16:22:35.9	357.770	-0.010	-0.560	-1.270
2020/01/31 16:22:36.0	357.810	-0.090	-0.500	-1.360
2020/01/31 16:22:36.1	357.850	-0.180	-0.430	-1.440
2020/01/31 16:22:36.2	357.880	-0.270	-0.360	-1.520
2020/01/31 16:22:36.3	357.920	-0.360	-0.290	-1.590
2020/01/31 16:22:36.4	357.940	-0.450	-0.220	-1.650
2020/01/31 16:22:36.5	357.970	-0.540	-0.150	-1.710
2020/01/31 16:22:36.6	357.990	-0.630	-0.070	-1.760
2020/01/31 16:22:36.7	358.000	-0.720	0.000	-1.800
2020/01/31 16:22:36.8	358.020	-0.810	0.070	-1.840
2020/01/31 16:22:36.9	358.030	-0.890	0.150	-1.870
2020/01/31 16:22:37.0	358.050	-0.980	0.220	-1.900
2020/01/31 16:22:37.1	358.060	-1.060	0.280	-1.920
2020/01/31 16:22:37.2	358.070	-1.130	0.340	-1.930
2020/01/31 16:22:37.3	358.080	-1.200	0.400	-1.940
2020/01/31 16:22:37.4	358.080	-1.270	0.460	-1.940
2020/01/31 16:22:37.5	358.090	-1.330	0.510	-1.940
2020/01/31 16:22:37.6	358.090	-1.380	0.560	-1.930
2020/01/31 16:22:37.7	358.080	-1.430	0.600	-1.930
2020/01/31 16:22:37.8	358.080	-1.470	0.630	-1.910
2020/01/31 16:22:37.9	358.070	-1.500	0.660	-1.900
2020/01/31 16:22:38.0	358.070	-1.520	0.680	-1.870
2020/01/31 16:22:38.1	358.070	-1.540	0.690	-1.850
2020/01/31 16:22:38.2	358.060	-1.540	0.700	-1.820
2020/01/31 16:22:38.3	358.060	-1.540	0.700	-1.790
2020/01/31 16:22:38.4	358.050	-1.530	0.700	-1.750
2020/01/31 16:22:38.5	358.040	-1.500	0.680	-1.710
2020/01/31 16:22:38.6	358.030	-1.470	0.660	-1.670
2020/01/31 16:22:38.7	358.020	-1.430	0.640	-1.620
2020/01/31 16:22:38.8	358.010	-1.380	0.610	-1.570
2020/01/31 16:22:38.9	358.000	-1.320	0.570	-1.520
2020/01/31 16:22:39.0	357.990	-1.260	0.530	-1.470
2020/01/31 16:22:39.1	357.980	-1.180	0.480	-1.410
2020/01/31 16:22:39.2	357.970	-1.100	0.430	-1.350
2020/01/31 16:22:39.3	357.950	-1.020	0.380	-1.290
2020/01/31 16:22:39.4	357.940	-0.920	0.320	-1.220
2020/01/31 16:22:39.5	357.930	-0.820	0.260	-1.160
2020/01/31 16:22:39.6	357.910	-0.720	0.210	-1.090
2020/01/31 16:22:39.7	357.900	-0.610	0.150	-1.010
2020/01/31 16:22:39.8	357.880	-0.500	0.080	-0.940
2020/01/31 16:22:39.9	357.870	-0.390	0.030	-0.860
2020/01/31 16:22:40.0	357.850	-0.280	-0.030	-0.780
2020/01/31 16:22:40.1	357.840	-0.160	-0.090	-0.710
2020/01/31 16:22:40.2	357.820	-0.050	-0.150	-0.630
2020/01/31 16:22:40.3	357.800	0.060	-0.200	-0.540
2020/01/31 16:22:40.4	357.780	0.180	-0.250	-0.460
2020/01/31 16:22:40.5	357.760	0.280	-0.300	-0.380
2020/01/31 16:22:40.6	357.740	0.390	-0.350	-0.300
2020/01/31 16:22:40.7	357.730	0.490	-0.390	-0.210
2020/01/31 16:22:40.8	357.710	0.590	-0.430	-0.140
2020/01/31 16:22:40.9	357.690	0.680	-0.470	-0.060
2020/01/31 16:22:41.0	357.660	0.770	-0.500	0.020
2020/01/31 16:22:41.1	357.640	0.850	-0.530	0.090
2020/01/31 16:22:41.2	357.610	0.930	-0.550	0.160
2020/01/31 16:22:41.3	357.590	1.000	-0.570	0.230
2020/01/31 16:22:41.4	357.570	1.060	-0.590	0.290
2020/01/31 16:22:41.5	357.540	1.110	-0.600	0.350
2020/01/31 16:22:41.6	357.520	1.160	-0.610	0.410
2020/01/31 16:22:41.7	357.490	1.200	-0.620	0.460
2020/01/31 16:22:41.8	357.470	1.230	-0.630	0.500
2020/01/31 16:22:41.9	357.440	1.260	-0.630	0.540
2020/01/31 16:22:42.0	357.420	1.270	-0.630	0.580
2020/01/31 16:22:42.1	357.400	1.290	-0.630	0.610
2020/01/31 16:22:42.2	357.380	1.290	-0.620	0.630
2020/01/31 16:22:42.3	357.370	1.290	-0.620	0.640
2020/01/31 16:22:42.4	357.350	1.280	-0.620	0.650
2020/01/31 16:22:42.5	357.340	1.260	-0.610	0.650
2020/01/31 16:22:42.6	357.330	1.240	-0.610	0.640
2020/01/31 16:22:42.7	357.320	1.210	-0.600	0.620
2020/01/31 16:22:42.8	357.310	1.180	-0.600	0.600
2020/01/31 16:22:42.9	357.300	1.140	-0.590	0.580
2020/01/31 16:22:43.0	357.300	1.100	-0.590	0.540
2020/01/31 16:22:43.1	357.300	1.060	-0.590	0.510
2020/01/31 16:22:43.2	357.300	1.010	-0.590	0.460
2020/01/31 16:22:43.3	357.300	0.960	-0.590	0.410
2020/01/31 16:22:43.4	357.300	0.900	-0.590	0.350
2020/01/31 16:22:43.5	357.310	0.850	-0.590	0.290
2020/01/31 16:22:43.6	357.320	0.790	-0.590	0.220
2020/01/31 16:22:43.7	357.330	0.730	-0.590	0.140
2020/01/31 16:22:43.8	357.350	0.670	-0.600	0.060
2020/01/31 16:22:43.9	357.370	0.610	-0.600	-0.020
2020/01/31 16:22:44.0	357.390	0.550	-0.610	-0.110
2020/01/31 16:22:44.1	357.410	0.490	-0.610	-0.200
2020/01/31 16:22:44.2	357.440	0.420	-0.620	-0.300
2020/01/31 16:22:44.3	357.470	0.360	-0.630	-0.400
2020/01/31 16:22:44.4	357.500	0.300	-0.640	-0.510
2020/01/31 16:22:44.5	357.540	0.250	-0.650	-0.610
2020/01/31 16:22:44.6	357.580	0.190	-0.660	-0.720
2020/01/31 16:22:44.7	357.620	0.130	-0.660	-0.830
2020/01/31 16:22:44.8	357.660	0.080	-0.670	-0.930
2020/01/31 16:22:44.9	357.700	0.020	-0.670	-1.040
2020/01/31 16:22:45.0	357.750	-0.030	-0.680	-1.140
2020/01/31 16:22:45.1	357.800	-0.080	-0.680	-1.240
2020/01/31 16:22:45.2	357.840	-0.130	-0.670	-1.330
2020/01/31 16:22:45.3	357.890	-0.170	-0.660	-1.420
2020/01/31 16:22:45.4	357.940	-0.220	-0.650	-1.510
2020/01/31 16:22:45.5	357.990	-0.260	-0.640	-1.590
2020/01/31 16:22:45.6	358.040	-0.300	-0.620	-1.660
2020/01/31 16:22:45.7	358.090	-0.340	-0.600	-1.730
2020/01/31 16:22:45.8	358.130	-0.380	-0.570	-1.790
2020/01/31 16:22:45.9	358.180	-0.410	-0.540	-1.840
2020/01/31 16:22:46.0	358.220	-0.450	-0.510	-1.890
2020/01/31 16:22:46.1	358.250	-0.480	-0.470	-1.930
2020/01/31 16:22:46.2	358.290	-0.520	-0.430	-1.960
2020/01/31 16:22:46.3	358.320	-0.550	-0.380	-1.980
2020/01/31 16:22:46.4	358.350	-0.580	-0.330	-1.990
2020/01/31 16:22:46.5	358.380	-0.600	-0.280	-2.000
2020/01/31 16:22:46.6	358.410	-0.630	-0.230	-2.000
2020/01/31 16:22:46.7	358.430	-0.650	-0.170	-1.990
2020/01/31 16:22:46.8	358.450	-0.680	-0.110	-1.970
2020/01/31 16:22:46.9	358.460	-0.700	-0.050	-1.950
2020/01/31 16:22:47.0	358.470	-0.720	0.010	-1.920
2020/01/31 16:22:47.1	358.480	-0.730	0.070	-1.890
2020/01/31 16:22:47.2	358.480	-0.750	0.130	-1.840
2020/01/31 16:22:47.3	358.480	-0.760	0.190	-1.800
2020/01/31 16:22:47.4	358.470	-0.770	0.250	-1.740
2020/01/31 16:22:47.5	358.460	-0.780	0.310	-1.680
2020/01/31 16:22:47.6	358.450	-0.780	0.360	-1.620
2020/01/31 16:22:47.7	358.420	-0.790	0.410	-1.550
2020/01/31 16:22:47.8	358.400	-0.790	0.460	-1.480
2020/01/31 16:22:47.9	358.380	-0.780	0.500	-1.400
2020/01/31 16:22:48.0	358.370	-0.770	0.540	-1.320
2020/01/31 16:22:48.1	358.350	-0.760	0.580	-1.240
2020/01/31 16:22:48.2	358.320	-0.750	0.600	-1.160
2020/01/31 16:22:48.3	358.300	-0.730	0.630	-1.070
2020/01/31 16:22:48.4	358.280	-0.710	0.640	-0.980
2020/01/31 16:22:48.5	358.260	-0.690	0.650	-0.900
2020/01/31 16:22:48.6	358.240	-0.660	0.660	-0.810
2020/01/31 16:22:48.7	358.200	-0.630	0.650	-0.730
2020/01/31 16:22:48.8	358.180	-0.600	0.650	-0.640
2020/01/31 16:22:48.9	358.160	-0.560	0.630	-0.550
2020/01/31 16:22:49.0	358.140	-0.520	0.610	-0.460
2020/01/31 16:22:49.1	358.120	-0.480	0.590	-0.380
2020/01/31 16:22:49.2	358.090	-0.430	0.560	-0.290
2020/01/31 16:22:49.3	358.070	-0.380	0.530	-0.210
2020/01/31 16:22:49.4	358.050	-0.330	0.490	-0.130
2020/01/31 16:22:49.5	358.030	-0.280	0.440	-0.050
2020/01/31 16:22:49.6	358.020	-0.230	0.390	0.020
2020/01/31 16:22:49.7	358.010	-0.170	0.340	0.100
2020/01/31 16:22:49.8	357.990	-0.110	0.280	0.170
2020/01/31 16:22:49.9	357.980	-0.060	0.220	0.230
2020/01/31 16:22:50.0	357.960	0.000	0.160	0.290
2020/01/31 16:22:50.1	357.950	0.060	0.090	0.340
2020/01/31 16:22:50.2	357.940	0.120	0.030	0.380
2020/01/31 16:22:50.3	357.930	0.170	-0.040	0.420
2020/01/31 16:22:50.4	357.930	0.230	-0.110	0.460
2020/01/31 16:22:50.5	357.920	0.280	-0.180	0.480
2020/01/31 16:22:50.6	357.910	0.330	-0.260	0.500
2020/01/31 16:22:50.7	357.920	0.380	-0.330	0.520
2020/01/31 16:22:50.8	357.920	0.430	-0.400	0.530
2020/01/31 16:22:50.9	357.920	0.470	-0.460	0.540
2020/01/31 16:22:51.0	357.910	0.510	-0.530	0.540
2020/01/31 16:22:51.1	357.910	0.550	-0.590	0.530
2020/01/31 16:22:51.2	357.910	0.590	-0.660	0.530
2020/01/31 16:22:51.3	357.920	0.620	-0.720	0.520
2020/01/31 16:22:51.4	357.920	0.640	-0.770	0.500
2020/01/31 16:22:51.5	357.920	0.660	-0.820	0.490
2020/01/31 16:22:51.6	357.930	0.680	-0.870	0.470
2020/01/31 16:22:51.7	357.920	0.690	-0.910	0.440
2020/01/31 16:22:51.8	357.930	0.700	-0.950	0.410
2020/01/31 16:22:51.9	357.940	0.700	-0.990	0.370
2020/01/31 16:22:52.0	357.950	0.700	-1.020	0.330
2020/01/31 16:22:52.1	357.960	0.690	-1.040	0.290
2020/01/31 16:22:52.2	357.970	0.680	-1.070	0.240
2020/01/31 16:22:52.3	357.990	0.670	-1.080	0.190
2020/01/31 16:22:52.4	358.000	0.650	-1.100	0.130
2020/01/31 16:22:52.5	358.020	0.620	-1.110	0.070
2020/01/31 16:22:52.6	358.040	0.590	-1.110	0.000
2020/01/31 16:22:52.7	358.060	0.560	-1.120	-0.070
2020/01/31 16:22:52.8	358.080	0.530	-1.110	-0.150
2020/01/31 16:22:52.9	358.100	0.490	-1.110	-0.230
2020/01/31 16:22:53.0	358.130	0.450	-1.090	-0.310
2020/01/31 16:22:53.1	358.150	0.400	-1.080	-0.390
2020/01/31 16:22:53.2	358.180	0.350	-1.060	-0.480
2020/01/31 16:22:53.3	358.210	0.310	-1.030	-0.570
2020/01/31 16:22:53.4	358.240	0.250	-1.010	-0.660
2020/01/31 16:22:53.5	358.260	0.200	-0.970	-0.740
2020/01/31 16:22:53.6	358.290	0.150	-0.940	-0.830
2020/01/31 16:22:53.7	358.310	0.090	-0.900	-0.920
2020/01/31 16:22:53.8	358.340	0.030	-0.850	-1.000
2020/01/31 16:22:53.9	358.360	-0.020	-0.800	-1.090
2020/01/31 16:22:54.0	358.380	-0.080	-0.750	-1.160
2020/01/31 16:22:54.1	358.410	-0.140	-0.690	-1.240
2020/01/31 16:22:54.2	358.420	-0.190	-0.630	-1.300
2020/01/31 16:22:54.3	358.440	-0.250	-0.570	-1.370
2020/01/31 16:22:54.4	358.450	-0.310	-0.510	-1.420
2020/01/31 16:22:54.5	358.470	-0.360	-0.440	-1.480
2020/01/31 16:22:54.6	358.480	-0.410	-0.370	-1.520
2020/01/31 16:22:54.7	358.490	-0.460	-0.310	-1.560
2020/01/31 16:22:54.8	358.500	-0.510	-0.240	-1.590
2020/01/31 16:22:54.9	358.510	-0.550	-0.170	-1.620
2020/01/31 16:22:55.0	358.510	-0.590	-0.100	-1.640
2020/01/31 16:22:55.1	358.510	-0.630	-0.030	-1.650
2020/01/31 16:22:55.2	358.510	-0.660	0.030	-1.660
2020/01/31 16:22:55.3	358.510	-0.690	0.100	-1.660
2020/01/31 16:22:55.4	358.510	-0.710	0.160	-1.660
2020/01/31 16:22:55.5	358.510	-0.730	0.220	-1.650
2020/01/31 16:22:55.6	358.500	-0.740	0.280	-1.630
2020/01/31 16:22:55.7	358.490	-0.750	0.340	-1.610
2020/01/31 16:22:55.8	358.480	-0.750	0.390	-1.580
2020/01/31 16:22:55.9	358.470	-0.750	0.430	-1.550
2020/01/31 16:22:56.0	358.460	-0.740	0.470	-1.510
2020/01/31 16:22:56.1	358.450	-0.720	0.510	-1.460
2020/01/31 16:22:56.2	358.440	-0.700	0.550	-1.410
2020/01/31 16:22:56.3	358.420	-0.670	0.580	-1.350
2020/01/31 16:22:56.4	358.410	-0.630	0.600	-1.280
2020/01/31 16:22:56.5	358.390	-0.590	0.620	-1.210
2020/01/31 16:22:56.6	358.370	-0.550	0.640	-1.140
2020/01/31 16:22:56.7	358.340	-0.490	0.650	-1.060
2020/01/31 16:22:56.8	358.320	-0.430	0.650	-0.970
2020/01/31 16:22:56.9	358.290	-0.370	0.650	-0.880
2020/01/31 16:22:57.0	358.270	-0.300	0.650	-0.790
2020/01/31 16:22:57.1	358.250	-0.220	0.640	-0.690
2020/01/31 16:22:57.2	358.220	-0.140	0.630	-0.590
2020/01/31 16:22:57.3	358.200	-0.060	0.610	-0.490
2020/01/31 16:22:57.4	358.180	0.020	0.590	-0.380
2020/01/31 16:22:57.5	358.150	0.110	0.560	-0.280
2020/01/31 16:22:57.6	358.130	0.200	0.530	-0.170
2020/01/31 16:22:57.7	358.090	0.280	0.490	-0.060
2020/01/31 16:22:57.8	358.070	0.370	0.450	0.040
2020/01/31 16:22:57.9	358.040	0.460	0.400	0.140
2020/01/31 16:22:58.0	358.020	0.540	0.350	0.230
2020/01/31 16:22:58.1	357.990	0.620	0.300	0.320
2020/01/31 16:22:58.2	357.970	0.700	0.240	0.410
2020/01/31 16:22:58.3	357.940	0.780	0.180	0.490
2020/01/31 16:22:58.4	357.920	0.850	0.110	0.560
2020/01/31 16:22:58.5	357.900	0.910	0.040	0.620
2020/01/31 16:22:58.6	357.870	0.970	-0.030	0.670
2020/01/31 16:22:58.7	357.870	1.020	-0.100	0.720
2020/01/31 16:22:58.8	357.850	1.070	-0.180	0.760
2020/01/31 16:22:58.9	357.840	1.110	-0.250	0.790
2020/01/31 16:22:59.0	357.820	1.140	-0.330	0.810
2020/01/31 16:22:59.1	357.800	1.160	-0.410	0.830
2020/01/31 16:22:59.2	357.790	1.180	-0.490	0.830
2020/01/31 16:22:59.3	357.780	1.180	-0.570	0.830
2020/01/31 16:22:59.4	357.770	1.180	-0.650	0.820
2020/01/31 16:22:59.5	357.760	1.180	-0.720	0.810
2020/01/31 16:22:59.6	357.760	1.160	-0.800	0.780
2020/01/31 16:22:59.7	357.760	1.140	-0.860	0.750
2020/01/31 16:22:59.8	357.770	1.110	-0.930	0.710
2020/01/31 16:22:59.9	357.770	1.070	-0.990	0.670
2020/01/31 16:23:00.0	357.780	1.020	-1.050	0.610
2020/01/31 16:23:00.1	357.790	0.970	-1.100	0.560
2020/01/31 16:23:00.2	357.800	0.910	-1.140	0.490
2020/01/31 16:23:00.3	357.810	0.850	-1.180	0.420
2020/01/31 16:23:00.4	357.830	0.780	-1.220	0.350
2020/01/31 16:23:00.5	357.860	0.700	-1.240	0.270
2020/01/31 16:23:00.6	357.880	0.620	-1.260	0.190
2020/01/31 16:23:00.7	357.910	0.540	-1.270	0.090
2020/01/31 16:23:00.8	357.940	0.460	-1.280	0.000
2020/01/31 16:23:00.9	357.970	0.370	-1.280	-0.090
2020/01/31 16:23:01.0	358.010	0.290	-1.270	-0.190
2020/01/31 16:23:01.1	358.050	0.200	-1.250	-0.290
2020/01/31 16:23:01.2	358.090	0.110	-1.230	-0.390
2020/01/31 16:23:01.3	358.140	0.020	-1.200	-0.490
2020/01/31 16:23:01.4	358.180	-0.070	-1.170	-0.600
2020/01/31 16:23:01.5	358.230	-0.150	-1.130	-0.700
2020/01/31 16:23:01.6	358.280	-0.230	-1.080	-0.800
2020/01/31 16:23:01.7	358.330	-0.320	-1.030	-0.900
2020/01/31 16:23:01.8	358.380	-0.390	-0.970	-1.000
2020/01/31 16:23:01.9	358.430	-0.470	-0.910	-1.100
2020/01/31 16:23:02.0	358.480	-0.540	-0.840	-1.190
2020/01/31 16:23:02.1	358.530	-0.600	-0.770	-1.280
2020/01/31 16:23:02.2	358.580	-0.660	-0.700	-1.370
2020/01/31 16:23:02.3	358.620	-0.720	-0.620	-1.450
2020/01/31 16:23:02.4	358.670	-0.770	-0.540	-1.520
2020/01/31 16:23:02.5	358.710	-0.820	-0.460	-1.590
2020/01/31 16:23:02.6	358.750	-0.860	-0.380	-1.660
2020/01/31 16:23:02.7	358.780	-0.890	-0.290	-1.720
2020/01/31 16:23:02.8	358.810	-0.920	-0.210	-1.770
2020/01/31 16:23:02.9	358.840	-0.950	-0.120	-1.810
2020/01/31 16:23:03.0	358.860	-0.970	-0.040	-1.850
2020/01/31 16:23:03.1	358.880	-0.980	0.040	-1.870
2020/01/31 16:23:03.2	358.900	-0.990	0.120	-1.890
2020/01/31 16:23:03.3	358.910	-1.000	0.200	-1.900
2020/01/31 16:23:03.4	358.920	-1.000	0.280	-1.900
2020/01/31 16:23:03.5	358.920	-0.990	0.350	-1.890
2020/01/31 16:23:03.6	358.920	-0.990	0.420	-1.880
2020/01/31 16:23:03.7	358.900	-0.970	0.480	-1.860
2020/01/31 16:23:03.8	358.890	-0.960	0.540	-1.840
2020/01/31 16:23:03.9	358.880	-0.940	0.590	-1.810
2020/01/31 16:23:04.0	358.860	-0.910	0.640	-1.770
2020/01/31 16:23:04.1	358.840	-0.890	0.680	-1.730
2020/01/31 16:23:04.2	358.820	-0.860	0.710	-1.690
2020/01/31 16:23:04.3	358.800	-0.830	0.740	-1.640
2020/01/31 16:23:04.4	358.770	-0.790	0.750	-1.590
2020/01/31 16:23:04.5	358.740	-0.760	0.760	-1.530
2020/01/31 16:23:04.6	358.710	-0.720	0.760	-1.470
2020/01/31 16:23:04.7	358.680	-0.680	0.760	-1.400
2020/01/31 16:23:04.8	358.640	-0.640	0.750	-1.340
2020/01/31 16:23:04.9	358.610	-0.600	0.730	-1.270
2020/01/31 16:23:05.0	358.570	-0.550	0.700	-1.210
2020/01/31 16:23:05.1	358.540	-0.510	0.660	-1.140
2020/01/31 16:23:05.2	358.500	-0.460	0.620	-1.080
2020/01/31 16:23:05.3	358.470	-0.420	0.570	-1.010
2020/01/31 16:23:05.4	358.440	-0.370	0.520	-0.940
2020/01/31 16:23:05.5	358.410	-0.320	0.460	-0.880
2020/01/31 16:23:05.6	358.380	-0.280	0.390	-0.810
2020/01/31 16:23:05.7	358.350	-0.230	0.330	-0.750
2020/01/31 16:23:05.8	358.320	-0.180	0.260	-0.680
2020/01/31 16:23:05.9	358.300	-0.130	0.180	-0.620
2020/01/31 16:23:06.0	358.280	-0.090	0.110	-0.560
2020/01/31 16:23:06.1	358.260	-0.040	0.030	-0.500
2020/01/31 16:23:06.2	358.240	0.010	-0.040	-0.440
2020/01/31 16:23:06.3	358.220	0.050	-0.120	-0.380
2020/01/31 16:23:06.4	358.200	0.100	-0.190	-0.320
2020/01/31 16:23:06.5	358.190	0.140	-0.260	-0.270
2020/01/31 16:23:06.6	358.180	0.190	-0.330	-0.210
2020/01/31 16:23:06.7	358.160	0.230	-0.390	-0.160
2020/01/31 16:23:06.8	358.150	0.270	-0.460	-0.100
2020/01/31 16:23:06.9	358.140	0.310	-0.510	-0.050
2020/01/31 16:23:07.0	358.130	0.350	-0.560	-0.010
2020/01/31 16:23:07.1	358.120	0.390	-0.610	0.040
2020/01/31 16:23:07.2	358.110	0.430	-0.650	0.090
2020/01/31 16:23:07.3	358.110	0.460	-0.680	0.130
2020/01/31 16:23:07.4	358.100	0.490	-0.710	0.170
2020/01/31 16:23:07.5	358.090	0.520	-0.730	0.210
2020/01/31 16:23:07.6	358.080	0.550	-0.750	0.250
2020/01/31 16:23:07.7	358.060	0.570	-0.760	0.280
2020/01/31 16:23:07.8	358.050	0.590	-0.760	0.310
2020/01/31 16:23:07.9	358.040	0.610	-0.760	0.340
2020/01/31 16:23:08.0	358.040	0.630	-0.750	0.370
2020/01/31 16:23:08.1	358.030	0.640	-0.740	0.390
2020/01/31 16:23:08.2	358.020	0.660	-0.720	0.410
2020/01/31 16:23:08.3	358.020	0.670	-0.700	0.430
2020/01/31 16:23:08.4	358.010	0.670	-0.680	0.450
2020/01/31 16:23:08.5	358.010	0.680	-0.660	0.460
2020/01/31 16:23:08.6	358.010	0.680	-0.630	0.470
2020/01/31 16:23:08.7	358.020	0.680	-0.600	0.480
2020/01/31 16:23:08.8	358.020	0.670	-0.570	0.480
2020/01/31 16:23:08.9	358.020	0.670	-0.550	0.480
2020/01/31 16:23:09.0	358.030	0.660	-0.520	0.480
2020/01/31 16:23:09.1	358.040	0.650	-0.490	0.470
2020/01/31 16:23:09.2	358.050	0.640	-0.470	0.460
2020/01/31 16:23:09.3	358.060	0.630	-0.440	0.450
2020/01/31 16:23:09.4	358.080	0.620	-0.420	0.440
2020/01/31 16:23:09.5	358.090	0.600	-0.400	0.430
2020/01/31 16:23:09.6	358.110	0.590	-0.390	0.410
2020/01/31 16:23:09.7	358.120	0.570	-0.370	0.390
2020/01/31 16:23:09.8	358.140	0.550	-0.360	0.370
2020/01/31 16:23:09.9	358.150	0.530	-0.350	0.350
2020/01/31 16:23:10.0	358.170	0.510	-0.340	0.330
2020/01/31 16:23:10.1	358.180	0.490	-0.340	0.300
2020/01/31 16:23:10.2	358.200	0.470	-0.340	0.280
2020/01/31 16:23:10.3	358.210	0.440	-0.340	0.250
2020/01/31 16:23:10.4	358.230	0.420	-0.340	0.220
2020/01/31 16:23:10.5	358.240	0.390	-0.340	0.190
2020/01/31 16:23:10.6	358.250	0.360	-0.340	0.150
2020/01/31 16:23:10.7	358.270	0.340	-0.340	0.120
2020/01/31 16:23:10.8	358.280	0.310	-0.350	0.080
2020/01/31 16:23:10.9	358.290	0.280	-0.350	0.040
2020/01/31 16:23:11.0	358.290	0.250	-0.360	0.000
2020/01/31 16:23:11.1	358.300	0.210	-0.360	-0.040
2020/01/31 16:23:11.2	358.310	0.180	-0.370	-0.080
2020/01/31 16:23:11.3	358.310	0.150	-0.370	-0.130
2020/01/31 16:23:11.4	358.320	0.110	-0.380	-0.170
2020/01/31 16:23:11.5	358.330	0.080	-0.380	-0.220
2020/01/31 16:23:11.6	358.330	0.040	-0.380	-0.270
2020/01/31 16:23:11.7	358.340	0.010	-0.390	-0.320
2020/01/31 16:23:11.8	358.340	-0.030	-0.390	-0.360
2020/01/31 16:23:11.9	358.350	-0.070	-0.390	-0.410
2020/01/31 16:23:12.0	358.360	-0.100	-0.400	-0.460
2020/01/31 16:23:12.1	358.370	-0.140	-0.400	-0.500
2020/01/31 16:23:12.2	358.380	-0.170	-0.400	-0.550
2020/01/31 16:23:12.3	358.390	-0.210	-0.400	-0.600
2020/01/31 16:23:12.4	358.400	-0.250	-0.400	-0.640
2020/01/31 16:23:12.5	358.410	-0.280	-0.390	-0.690
2020/01/31 16:23:12.6	358.430	-0.310	-0.390	-0.730
2020/01/31 16:23:12.7	358.440	-0.350	-0.390	-0.780
2020/01/31 16:23:12.8	358.450	-0.380	-0.380	-0.830
2020/01/31 16:23:12.9	358.470	-0.410	-0.370	-0.870
2020/01/31 16:23:13.0	358.480	-0.440	-0.360	-0.910
2020/01/31 16:23:13.1	358.490	-0.470	-0.350	-0.950
2020/01/31 16:23:13.2	358.510	-0.500	-0.330	-0.980
2020/01/31 16:23:13.3	358.520	-0.520	-0.320	-1.020
2020/01/31 16:23:13.4	358.530	-0.540	-0.300	-1.050
2020/01/31 16:23:13.5	358.540	-0.570	-0.270	-1.080
2020/01/31 16:23:13.6	358.550	-0.580	-0.250	-1.100
2020/01/31 16:23:13.7	358.560	-0.600	-0.210	-1.120
2020/01/31 16:23:13.8	358.560	-0.620	-0.180	-1.140
2020/01/31 16:23:13.9	358.560	-0.630	-0.150	-1.150
2020/01/31 16:23:14.0	358.560	-0.640	-0.110	-1.160
2020/01/31 16:23:14.1	358.560	-0.640	-0.070	-1.160
2020/01/31 16:23:14.2	358.550	-0.640	-0.020	-1.150
2020/01/31 16:23:14.3	358.530	-0.640	0.020	-1.140
2020/01/31 16:23:14.4	358.520	-0.640	0.070	-1.120
2020/01/31 16:23:14.5	358.500	-0.630	0.120	-1.100
2020/01/31 16:23:14.6	358.480	-0.610	0.170	-1.070
2020/01/31 16:23:14.7	358.450	-0.600	0.220	-1.030
2020/01/31 16:23:14.8	358.430	-0.580	0.270	-0.990
2020/01/31 16:23:14.9	358.400	-0.550	0.320	-0.940
2020/01/31 16:23:15.0	358.370	-0.530	0.360	-0.880
2020/01/31 16:23:15.1	358.330	-0.500	0.410	-0.830
2020/01/31 16:23:15.2	358.300	-0.460	0.450	-0.770
2020/01/31 16:23:15.3	358.260	-0.430	0.480	-0.710
2020/01/31 16:23:15.4	358.230	-0.390	0.510	-0.640
2020/01/31 16:23:15.5	358.200	-0.350	0.540	-0.580
2020/01/31 16:23:15.6	358.160	-0.300	0.550	-0.510
2020/01/31 16:23:15.7	358.120	-0.260	0.570	-0.450
2020/01/31 16:23:15.8	358.090	-0.210	0.570	-0.380
2020/01/31 16:23:15.9	358.060	-0.160	0.570	-0.320
2020/01/31 16:23:16.0	358.030	-0.110	0.560	-0.260
2020/01/31 16:23:16.1	358.000	-0.060	0.540	-0.200
2020/01/31 16:23:16.2	357.970	-0.010	0.510	-0.140
2020/01/31 16:23:16.3	357.950	0.040	0.480	-0.080
2020/01/31 16:23:16.4	357.930	0.100	0.440	-0.030
2020/01/31 16:23:16.5	357.910	0.150	0.380	0.020
2020/01/31 16:23:16.6	357.890	0.200	0.330	0.060
2020/01/31 16:23:16.7	357.890	0.250	0.260	0.110
2020/01/31 16:23:16.8	357.880	0.300	0.190	0.140
2020/01/31 16:23:16.9	357.880	0.350	0.110	0.180
2020/01/31 16:23:17.0	357.870	0.400	0.030	0.200
2020/01/31 16:23:17.1	357.870	0.440	-0.060	0.230
2020/01/31 16:23:17.2	357.870	0.480	-0.150	0.240
2020/01/31 16:23:17.3	357.870	0.520	-0.240	0.250
2020/01/31 16:23:17.4	357.880	0.560	-0.330	0.260
2020/01/31 16:23:17.5	357.890	0.590	-0.430	0.270
2020/01/31 16:23:17.6	357.900	0.620	-0.530	0.270
2020/01/31 16:23:17.7	357.910	0.650	-0.620	0.260
2020/01/31 16:23:17.8	357.930	0.670	-0.710	0.250
2020/01/31 16:23:17.9	357.940	0.690	-0.800	0.240
2020/01/31 16:23:18.0	357.970	0.710	-0.890	0.230
2020/01/31 16:23:18.1	357.990	0.720	-0.970	0.220
2020/01/31 16:23:18.2	358.010	0.730	-1.040	0.200
2020/01/31 16:23:18.3	358.040	0.730	-1.110	0.180
2020/01/31 16:23:18.4	358.060	0.730	-1.170	0.160
2020/01/31 16:23:18.5	358.090	0.720	-1.220	0.130
2020/01/31 16:23:18.6	358.120	0.710	-1.270	0.110
2020/01/31 16:23:18.7	358.150	0.700	-1.300	0.080
2020/01/31 16:23:18.8	358.180	0.680	-1.330	0.050
2020/01/31 16:23:18.9	358.210	0.660	-1.350	0.020
2020/01/31 16:23:19.0	358.240	0.630	-1.350	-0.000
2020/01/31 16:23:19.1	358.270	0.600	-1.360	-0.030
2020/01/31 16:23:19.2	358.300	0.570	-1.350	-0.060
2020/01/31 16:23:19.3	358.330	0.540	-1.330	-0.090
2020/01/31 16:23:19.4	358.360	0.500	-1.300	-0.110
2020/01/31 16:23:19.5	358.390	0.460	-1.260	-0.140
2020/01/31 16:23:19.6	358.410	0.410	-1.220	-0.170
2020/01/31 16:23:19.7	358.440	0.370	-1.170	-0.190
2020/01/31 16:23:19.8	358.460	0.320	-1.110	-0.210
2020/01/31 16:23:19.9	358.480	0.270	-1.040	-0.230
2020/01/31 16:23:20.0	358.500	0.220	-0.960	-0.250
2020/01/31 16:23:20.1	358.520	0.170	-0.880	-0.270
2020/01/31 16:23:20.2	358.530	0.110	-0.790	-0.290
2020/01/31 16:23:20.3	358.540	0.060	-0.700	-0.300
2020/01/31 16:23:20.4	358.550	0.010	-0.610	-0.310
2020/01/31 16:23:20.5	358.560	-0.050	-0.510	-0.320
2020/01/31 16:23:20.6	358.560	-0.100	-0.410	-0.330
2020/01/31 16:23:20.7	358.560	-0.150	-0.310	-0.340
2020/01/31 16:23:20.8	358.560	-0.200	-0.210	-0.350
2020/01/31 16:23:20.9	358.550	-0.250	-0.120	-0.360
2020/01/31 16:23:21.0	358.550	-0.300	-0.020	-0.360
2020/01/31 16:23:21.1	358.540	-0.350	0.070	-0.370
2020/01/31 16:23:21.2	358.530	-0.390	0.150	-0.370
2020/01/31 16:23:21.3	358.510	-0.430	0.240	-0.380
2020/01/31 16:23:21.4	358.500	-0.470	0.310	-0.380
2020/01/31 16:23:21.5	358.480	-0.510	0.380	-0.390
2020/01/31 16:23:21.6	358.470	-0.540	0.450	-0.400
2020/01/31 16:23:21.7	358.450	-0.560	0.500	-0.410
2020/01/31 16:23:21.8	358.430	-0.590	0.550	-0.420
2020/01/31 16:23:21.9	358.410	-0.610	0.590	-0.430
2020/01/31 16:23:22.0	358.390	-0.630	0.620	-0.440
2020/01/31 16:23:22.1	358.370	-0.640	0.650	-0.450
2020/01/31 16:23:22.2	358.350	-0.650	0.660	-0.470
2020/01/31 16:23:22.3	358.330	-0.650	0.670	-0.480
2020/01/31 16:23:22.4	358.310	-0.650	0.670	-0.490
2020/01/31 16:23:22.5	358.290	-0.640	0.660	-0.500
2020/01/31 16:23:22.6	358.280	-0.630	0.650	-0.520
2020/01/31 16:23:22.7	358.240	-0.620	0.630	-0.540
2020/01/31 16:23:22.8	358.220	-0.600	0.600	-0.550
2020/01/31 16:23:22.9	358.210	-0.580	0.560	-0.560
2020/01/31 16:23:23.0	358.190	-0.560	0.520	-0.570
2020/01/31 16:23:23.1	358.180	-0.530	0.480	-0.580
2020/01/31 16:23:23.2	358.170	-0.490	0.430	-0.590
2020/01/31 16:23:23.3	358.150	-0.460	0.380	-0.600
2020/01/31 16:23:23.4	358.140	-0.420	0.320	-0.610
2020/01/31 16:23:23.5	358.130	-0.380	0.270	-0.610
2020/01/31 16:23:23.6	358.120	-0.340	0.210	-0.610
2020/01/31 16:23:23.7	358.120	-0.290	0.150	-0.620
2020/01/31 16:23:23.8	358.120	-0.250	0.090	-0.610
2020/01/31 16:23:23.9	358.110	-0.200	0.030	-0.610
2020/01/31 16:23:24.0	358.100	-0.150	-0.020	-0.600
2020/01/31 16:23:24.1	358.100	-0.100	-0.080	-0.590
2020/01/31 16:23:24.2	358.100	-0.060	-0.130	-0.580
2020/01/31 16:23:24.3	358.100	-0.010	-0.180	-0.570
2020/01/31 16:23:24.4	358.100	0.040	-0.230	-0.560
2020/01/31 16:23:24.5	358.100	0.080	-0.270	-0.540
2020/01/31 16:23:24.6	358.100	0.120	-0.310	-0.530
2020/01/31 16:23:24.7	358.100	0.170	-0.350	-0.510
2020/01/31 16:23:24.8	358.100	0.200	-0.390	-0.500
2020/01/31 16:23:24.9	358.110	0.240	-0.410	-0.480
2020/01/31 16:23:25.0	358.110	0.270	-0.440	-0.460
2020/01/31 16:23:25.1	358.120	0.300	-0.460	-0.450
2020/01/31 16:23:25.2	358.120	0.330	-0.480	-0.430
2020/01/31 16:23:25.3	358.130	0.350	-0.490	-0.410
2020/01/31 16:23:25.4	358.140	0.370	-0.500	-0.390
2020/01/31 16:23:25.5	358.150	0.390	-0.500	-0.370
2020/01/31 16:23:25.6	358.160	0.400	-0.500	-0.350
2020/01/31 16:23:25.7	358.160	0.410	-0.500	-0.330
2020/01/31 16:23:25.8	358.170	0.410	-0.490	-0.300
2020/01/31 16:23:25.9	358.180	0.420	-0.480	-0.280
2020/01/31 16:23:26.0	358.190	0.410	-0.470	-0.250
2020/01/31 16:23:26.1	358.200	0.410	-0.450	-0.230
2020/01/31 16:23:26.2	358.210	0.400	-0.440	-0.200
2020/01/31 16:23:26.3	358.220	0.390	-0.420	-0.170
2020/01/31 16:23:26.4	358.230	0.380	-0.400	-0.150
2020/01/31 16:23:26.5	358.240	0.360	-0.380	-0.120
2020/01/31 16:23:26.6	358.250	0.350	-0.360	-0.090
2020/01/31 16:23:26.7	358.250	0.330	-0.340	-0.060
2020/01/31 16:23:26.8	358.260	0.310	-0.320	-0.030
2020/01/31 16:23:26.9	358.260	0.280	-0.300	-0.010
2020/01/31 16:23:27.0	358.260	0.260	-0.280	0.020
2020/01/31 16:23:27.1	358.270	0.240	-0.270	0.040
2020/01/31 16:23:27.2	358.270	0.210	-0.250	0.060
2020/01/31 16:23:27.3	358.270	0.180	-0.240	0.080
2020/01/31 16:23:27.4	358.270	0.160	-0.240	0.100
2020/01/31 16:23:27.5	358.270	0.130	-0.230	0.110
2020/01/31 16:23:27.6	358.280	0.110	-0.230	0.120
2020/01/31 16:23:27.7	358.280	0.080	-0.230	0.120
2020/01/31 16:23:27.8	358.290	0.060	-0.240	0.120
2020/01/31 16:23:27.9	358.290	0.030	-0.250	0.120
2020/01/31 16:23:28.0	358.290	0.010	-0.270	0.110
2020/01/31 16:23:28.1	358.300	-0.010	-0.280	0.100
2020/01/31 16:23:28.2	358.310	-0.030	-0.300	0.080
2020/01/31 16:23:28.3	358.320	-0.050	-0.330	0.050
2020/01/31 16:23:28.4	358.330	-0.070	-0.350	0.020
2020/01/31 16:23:28.5	358.340	-0.090	-0.380	-0.010
2020/01/31 16:23:28.6	358.350	-0.100	-0.410	-0.050
2020/01/31 16:23:28.7	358.360	-0.110	-0.440	-0.090
2020/01/31 16:23:28.8	358.370	-0.130	-0.470	-0.130
2020/01/31 16:23:28.9	358.390	-0.130	-0.500	-0.180
2020/01/31 16:23:29.0	358.400	-0.140	-0.530	-0.230
2020/01/31 16:23:29.1	358.420	-0.150	-0.560	-0.270
2020/01/31 16:23:29.2	358.430	-0.150	-0.590	-0.320
2020/01/31 16:23:29.3	358.450	-0.160	-0.610	-0.370
2020/01/31 16:23:29.4	358.460	-0.160	-0.630	-0.410
2020/01/31 16:23:29.5	358.470	-0.160	-0.650	-0.450
2020/01/31 16:23:29.6	358.470	-0.170	-0.670	-0.490
2020/01/31 16:23:29.7	358.460	-0.170	-0.680	-0.530
2020/01/31 16:23:29.8	358.470	-0.170	-0.690	-0.560
2020/01/31 16:23:29.9	358.460	-0.170	-0.700	-0.590
2020/01/31 16:23:30.0	358.460	-0.170	-0.700	-0.620
2020/01/31 16:23:30.1	358.460	-0.170	-0.700	-0.650
2020/01/31 16:23:30.2	358.450	-0.170	-0.700	-0.670
2020/01/31 16:23:30.3	358.450	-0.170	-0.690	-0.700
2020/01/31 16:23:30.4	358.440	-0.170	-0.680	-0.720
2020/01/31 16:23:30.5	358.440	-0.170	-0.670	-0.750
2020/01/31 16:23:30.6	358.430	-0.160	-0.650	-0.770
2020/01/31 16:23:30.7	358.430	-0.160	-0.630	-0.800
2020/01/31 16:23:30.8	358.420	-0.160	-0.610	-0.820
2020/01/31 16:23:30.9	358.410	-0.160	-0.590	-0.840
2020/01/31 16:23:31.0	358.410	-0.160	-0.560	-0.860
2020/01/31 16:23:31.1	358.400	-0.160	-0.540	-0.880
2020/01/31 16:23:31.2	358.400	-0.150	-0.510	-0.900
2020/01/31 16:23:31.3	358.400	-0.150	-0.490	-0.920
2020/01/31 16:23:31.4	358.400	-0.140	-0.460	-0.930
2020/01/31 16:23:31.5	358.400	-0.140	-0.430	-0.950
2020/01/31 16:23:31.6	358.400	-0.130	-0.410	-0.960
2020/01/31 16:23:31.7	358.400	-0.120	-0.380	-0.980
2020/01/31 16:23:31.8	358.410	-0.110	-0.360	-0.990
2020/01/31 16:23:31.9	358.420	-0.100	-0.340	-1.000
2020/01/31 16:23:32.0	358.430	-0.080	-0.320	-1.000
2020/01/31 16:23:32.1	358.440	-0.070	-0.300	-1.010
2020/01/31 16:23:32.2	358.450	-0.050	-0.280	-1.010
2020/01/31 16:23:32.3	358.470	-0.030	-0.260	-1.020
2020/01/31 16:23:32.4	358.480	-0.020	-0.250	-1.010
2020/01/31 16:23:32.5	358.500	0.000	-0.230	-1.010
2020/01/31 16:23:32.6	358.520	0.020	-0.220	-1.010
2020/01/31 16:23:32.7	358.540	0.040	-0.200	-1.000
2020/01/31 16:23:32.8	358.560	0.070	-0.190	-0.990
2020/01/31 16:23:32.9	358.580	0.090	-0.170	-0.980
2020/01/31 16:23:33.0	358.600	0.110	-0.150	-0.960
2020/01/31 16:23:33.1	358.610	0.130	-0.140	-0.940
2020/01/31 16:23:33.2	358.630	0.150	-0.120	-0.920
2020/01/31 16:23:33.3	358.650	0.160	-0.100	-0.900
2020/01/31 16:23:33.4	358.660	0.180	-0.080	-0.870
2020/01/31 16:23:33.5	358.670	0.200	-0.050	-0.840
2020/01/31 16:23:33.6	358.690	0.210	-0.020	-0.810
2020/01/31 16:23:33.7	358.700	0.220	0.000	-0.770
2020/01/31 16:23:33.8	358.710	0.230	0.040	-0.740
2020/01/31 16:23:33.9	358.720	0.230	0.070	-0.700
2020/01/31 16:23:34.0	358.720	0.230	0.110	-0.650
2020/01/31 16:23:34.1	358.720	0.230	0.150	-0.610
2020/01/31 16:23:34.2	358.720	0.230	0.190	-0.560
2020/01/31 16:23:34.3	358.720	0.220	0.230	-0.510
2020/01/31 16:23:34.4	358.710	0.210	0.280	-0.460
2020/01/31 16:23:34.5	358.700	0.200	0.330	-0.410
2020/01/31 16:23:34.6	358.700	0.190	0.380	-0.350
2020/01/31 16:23:34.7	358.690	0.170	0.430	-0.300
2020/01/31 16:23:34.8	358.670	0.150	0.480	-0.240
2020/01/31 16:23:34.9	358.660	0.130	0.530	-0.180
2020/01/31 16:23:35.0	358.640	0.110	0.580	-0.120
2020/01/31 16:23:35.1	358.630	0.080	0.620	-0.060
2020/01/31 16:23:35.2	358.610	0.060	0.670	-0.000
2020/01/31 16:23:35.3	358.590	0.030	0.710	0.050
2020/01/31 16:23:35.4	358.570	0.010	0.750	0.110
2020/01/31 16:23:35.5	358.550	-0.020	0.780	0.160
2020/01/31 16:23:35.6	358.530	-0.050	0.810	0.210
2020/01/31 16:23:35.7	358.520	-0.070	0.830	0.270
2020/01/31 16:23:35.8	358.500	-0.100	0.850	0.310
2020/01/31 16:23:35.9	358.480	-0.130	0.860	0.360
2020/01/31 16:23:36.0	358.460	-0.150	0.860	0.400
2020/01/31 16:23:36.1	358.430	-0.170	0.850	0.430
2020/01/31 16:23:36.2	358.410	-0.190	0.840	0.470
2020/01/31 16:23:36.3	358.390	-0.210	0.810	0.490
2020/01/31 16:23:36.4	358.370	-0.220	0.780	0.510
2020/01/31 16:23:36.5	358.350	-0.240	0.740	0.530
2020/01/31 16:23:36.6	358.330	-0.250	0.680	0.540
2020/01/31 16:23:36.7	358.320	-0.260	0.620	0.530
2020/01/31 16:23:36.8	358.300	-0.260	0.550	0.530
2020/01/31 16:23:36.9	358.290	-0.260	0.470	0.510
2020/01/31 16:23:37.0	358.280	-0.260	0.380	0.490
2020/01/31 16:23:37.1	358.270	-0.260	0.280	0.450
2020/01/31 16:23:37.2	358.260	-0.250	0.170	0.420
2020/01/31 16:23:37.3	358.250	-0.240	0.060	0.370
2020/01/31 16:23:37.4	358.250	-0.230	-0.070	0.320
2020/01/31 16:23:37.5	358.250	-0.220	-0.190	0.260
2020/01/31 16:23:37.6	358.250	-0.200	-0.320	0.190
2020/01/31 16:23:37.7	358.270	-0.180	-0.460	0.130
2020/01/31 16:23:37.8	358.270	-0.160	-0.600	0.050
2020/01/31 16:23:37.9	358.280	-0.140	-0.730	-0.030
2020/01/31 16:23:38.0	358.290	-0.120	-0.870	-0.110
2020/01/31 16:23:38.1	358.310	-0.090	-1.010	-0.200
2020/01/31 16:23:38.2	358.320	-0.070	-1.140	-0.290
2020/01/31 16:23:38.3	358.340	-0.040	-1.270	-0.380
2020/01/31 16:23:38.4	358.350	-0.010	-1.390	-0.480
2020/01/31 16:23:38.5	358.370	0.010	-1.510	-0.570
2020/01/31 16:23:38.6	358.390	0.040	-1.620	-0.670
2020/01/31 16:23:38.7	358.410	0.060	-1.720	-0.780
2020/01/31 16:23:38.8	358.430	0.090	-1.810	-0.870
2020/01/31 16:23:38.9	358.450	0.110	-1.890	-0.960
2020/01/31 16:23:39.0	358.470	0.130	-1.950	-1.050
2020/01/31 16:23:39.1	358.490	0.150	-2.010	-1.140
2020/01/31 16:23:39.2	358.510	0.170	-2.050	-1.220
2020/01/31 16:23:39.3	358.540	0.190	-2.080	-1.300
2020/01/31 16:23:39.4	358.560	0.200	-2.090	-1.370
2020/01/31 16:23:39.5	358.580	0.210	-2.090	-1.440
2020/01/31 16:23:39.6	358.600	0.220	-2.070	-1.500
2020/01/31 16:23:39.7	358.610	0.230	-2.040	-1.550
2020/01/31 16:23:39.8	358.630	0.230	-2.000	-1.600
2020/01/31 16:23:39.9	358.650	0.230	-1.940	-1.650
2020/01/31 16:23:40.0	358.680	0.230	-1.880	-1.680
2020/01/31 16:23:40.1	358.690	0.230	-1.800	-1.710
2020/01/31 16:23:40.2	358.710	0.230	-1.710	-1.730
2020/01/31 16:23:40.3	358.740	0.220	-1.610	-1.750
2020/01/31 16:23:40.4	358.760	0.220	-1.500	-1.760
2020/01/31 16:23:40.5	358.780	0.210	-1.390	-1.760
2020/01/31 16:23:40.6	358.800	0.200	-1.270	-1.760
2020/01/31 16:23:40.7	358.830	0.190	-1.140	-1.750
2020/01/31 16:23:40.8	358.850	0.170	-1.010	-1.740
2020/01/31 16:23:40.9	358.870	0.160	-0.880	-1.720
2020/01/31 16:23:41.0	358.890	0.140	-0.750	-1.690
2020/01/31 16:23:41.1	358.900	0.120	-0.610	-1.660
2020/01/31 16:23:41.2	358.920	0.110	-0.480	-1.630
2020/01/31 16:23:41.3	358.930	0.090	-0.340	-1.590
2020/01/31 16:23:41.4	358.940	0.060	-0.210	-1.540
2020/01/31 16:23:41.5	358.950	0.040	-0.080	-1.500
2020/01/31 16:23:41.6	358.950	0.020	0.050	-1.450
2020/01/31 16:23:41.7	358.940	-0.010	0.170	-1.390
2020/01/31 16:23:41.8	358.940	-0.030	0.290	-1.340
2020/01/31 16:23:41.9	358.930	-0.060	0.400	-1.280
2020/01/31 16:23:42.0	358.930	-0.080	0.500	-1.230
2020/01/31 16:23:42.1	358.920	-0.110	0.600	-1.170
2020/01/31 16:23:42.2	358.910	-0.130	0.690	-1.110
2020/01/31 16:23:42.3	358.900	-0.160	0.770	-1.060
2020/01/31 16:23:42.4	358.890	-0.180	0.840	-1.000
2020/01/31 16:23:42.5	358.870	-0.200	0.900	-0.950
2020/01/31 16:23:42.6	358.860	-0.230	0.960	-0.900
2020/01/31 16:23:42.7	358.850	-0.250	1.000	-0.850
2020/01/31 16:23:42.8	358.840	-0.270	1.040	-0.800
2020/01/31 16:23:42.9	358.830	-0.280	1.060	-0.750
2020/01/31 16:23:43.0	358.820	-0.300	1.070	-0.700
2020/01/31 16:23:43.1	358.810	-0.310	1.080	-0.660
2020/01/31 16:23:43.2	358.800	-0.320	1.080	-0.620
2020/01/31 16:23:43.3	358.800	-0.320	1.060	-0.570
2020/01/31 16:23:43.4	358.800	-0.330	1.040	-0.530
2020/01/31 16:23:43.5	358.800	-0.330	1.010	-0.500
2020/01/31 16:23:43.6	358.800	-0.330	0.970	-0.460
2020/01/31 16:23:43.7	358.810	-0.320	0.920	-0.430
2020/01/31 16:23:43.8	358.810	-0.310	0.870	-0.400
2020/01/31 16:23:43.9	358.820	-0.300	0.810	-0.370
2020/01/31 16:23:44.0	358.820	-0.290	0.740	-0.340
2020/01/31 16:23:44.1	358.830	-0.270	0.660	-0.320
2020/01/31 16:23:44.2	358.840	-0.260	0.580	-0.290
2020/01/31 16:23:44.3	358.850	-0.240	0.500	-0.270
2020/01/31 16:23:44.4	358.850	-0.210	0.420	-0.250
2020/01/31 16:23:44.5	358.860	-0.190	0.330	-0.240
2020/01/31 16:23:44.6	358.870	-0.160	0.240	-0.220
2020/01/31 16:23:44.7	358.880	-0.140	0.150	-0.210
2020/01/31 16:23:44.8	358.880	-0.110	0.060	-0.200
2020/01/31 16:23:44.9	358.890	-0.080	-0.030	-0.190
2020/01/31 16:23:45.0	358.900	-0.060	-0.110	-0.190
2020/01/31 16:23:45.1	358.910	-0.030	-0.200	-0.180
2020/01/31 16:23:45.2	358.910	-0.000	-0.270	-0.180
2020/01/31 16:23:45.3	358.920	0.020	-0.350	-0.170
2020/01/31 16:23:45.4	358.920	0.050	-0.420	-0.170
2020/01/31 16:23:45.5	358.920	0.070	-0.480	-0.170
2020/01/31 16:23:45.6	358.910	0.090	-0.540	-0.170
2020/01/31 16:23:45.7	358.910	0.110	-0.590	-0.170
2020/01/31 16:23:45.8	358.900	0.130	-0.630	-0.170
2020/01/31 16:23:45.9	358.890	0.150	-0.670	-0.170
2020/01/31 16:23:46.0	358.880	0.160	-0.710	-0.170
2020/01/31 16:23:46.1	358.860	0.170	-0.730	-0.170
2020/01/31 16:23:46.2	358.850	0.180	-0.750	-0.160
2020/01/31 16:23:46.3	358.830	0.180	-0.760	-0.160
2020/01/31 16:23:46.4	358.810	0.190	-0.770	-0.160
2020/01/31 16:23:46.5	358.780	0.190	-0.770	-0.160
2020/01/31 16:23:46.6	358.760	0.180	-0.760	-0.160
2020/01/31 16:23:46.7	358.730	0.180	-0.750	-0.150
2020/01/31 16:23:46.8	358.700	0.170	-0.730	-0.150
2020/01/31 16:23:46.9	358.670	0.160	-0.700	-0.150
2020/01/31 16:23:47.0	358.640	0.150	-0.680	-0.150
2020/01/31 16:23:47.1	358.610	0.140	-0.640	-0.140
2020/01/31 16:23:47.2	358.580	0.120	-0.610	-0.140
2020/01/31 16:23:47.3	358.550	0.100	-0.570	-0.140
2020/01/31 16:23:47.4	358.520	0.090	-0.530	-0.130
2020/01/31 16:23:47.5	358.490	0.070	-0.490	-0.130
2020/01/31 16:23:47.6	358.450	0.050	-0.440	-0.120
2020/01/31 16:23:47.7	358.410	0.030	-0.400	-0.120
2020/01/31 16:23:47.8	358.380	0.010	-0.350	-0.120
2020/01/31 16:23:47.9	358.340	-0.010	-0.300	-0.110
2020/01/31 16:23:48.0	358.310	-0.030	-0.260	-0.110
2020/01/31 16:23:48.1	358.280	-0.050	-0.220	-0.110
2020/01/31 16:23:48.2	358.250	-0.070	-0.170	-0.110
2020/01/31 16:23:48.3	358.220	-0.090	-0.130	-0.110
2020/01/31 16:23:48.4	358.190	-0.100	-0.090	-0.110
2020/01/31 16:23:48.5	358.160	-0.120	-0.060	-0.110
2020/01/31 16:23:48.6	358.130	-0.130	-0.020	-0.120
2020/01/31 16:23:48.7	358.100	-0.140	0.010	-0.120
2020/01/31 16:23:48.8	358.080	-0.150	0.040	-0.130
2020/01/31 16:23:48.9	358.060	-0.150	0.060	-0.140
2020/01/31 16:23:49.0	358.040	-0.160	0.080	-0.150
2020/01/31 16:23:49.1	358.020	-0.160	0.100	-0.160
2020/01/31 16:23:49.2	358.010	-0.160	0.110	-0.180
2020/01/31 16:23:49.3	357.990	-0.160	0.120	-0.190
2020/01/31 16:23:49.4	357.990	-0.150	0.130	-0.210
2020/01/31 16:23:49.5	357.980	-0.150	0.130	-0.230
2020/01/31 16:23:49.6	357.970	-0.140	0.130	-0.250
2020/01/31 16:23:49.7	357.960	-0.130	0.120	-0.280
2020/01/31 16:23:49.8	357.960	-0.120	0.110	-0.300
2020/01/31 16:23:49.9	357.970	-0.100	0.100	-0.320
2020/01/31 16:23:50.0	357.970	-0.090	0.080	-0.350
2020/01/31 16:23:50.1	357.980	-0.070	0.050	-0.380
2020/01/31 16:23:50.2	357.990	-0.050	0.030	-0.410
2020/01/31 16:23:50.3	358.010	-0.040	-0.000	-0.440
2020/01/31 16:23:50.4	358.020	-0.020	-0.040	-0.470
2020/01/31 16:23:50.5	358.040	-0.000	-0.080	-0.500
2020/01/31 16:23:50.6	358.060	0.020	-0.120	-0.530
2020/01/31 16:23:50.7	358.090	0.030	-0.160	-0.570
2020/01/31 16:23:50.8	358.110	0.050	-0.210	-0.600
2020/01/31 16:23:50.9	358.140	0.070	-0.260	-0.640
2020/01/31 16:23:51.0	358.160	0.080	-0.310	-0.680
2020/01/31 16:23:51.1	358.190	0.100	-0.360	-0.710
2020/01/31 16:23:51.2	358.220	0.110	-0.400	-0.750
2020/01/31 16:23:51.3	358.240	0.120	-0.450	-0.780
2020/01/31 16:23:51.4	358.270	0.130	-0.500	-0.820
2020/01/31 16:23:51.5	358.300	0.130	-0.550	-0.850
2020/01/31 16:23:51.6	358.320	0.140	-0.590	-0.880
2020/01/31 16:23:51.7	358.350	0.140	-0.630	-0.900
2020/01/31 16:23:51.8	358.370	0.140	-0.670	-0.930
2020/01/31 16:23:51.9	358.390	0.140	-0.700	-0.950
2020/01/31 16:23:52.0	358.410	0.130	-0.730	-0.970
2020/01/31 16:23:52.1	358.430	0.130	-0.760	-0.990
2020/01/31 16:23:52.2	358.450	0.120	-0.780	-1.010
2020/01/31 16:23:52.3	358.460	0.110	-0.800	-1.020
2020/01/31 16:23:52.4	358.480	0.110	-0.820	-1.030
2020/01/31 16:23:52.5	358.490	0.100	-0.830	-1.040
2020/01/31 16:23:52.6	358.500	0.090	-0.840	-1.040
2020/01/31 16:23:52.7	358.510	0.070	-0.840	-1.040
2020/01/31 16:23:52.8	358.520	0.060	-0.840	-1.030
2020/01/31 16:23:52.9	358.530	0.050	-0.830	-1.020
2020/01/31 16:23:53.0	358.540	0.040	-0.820	-1.010
2020/01/31 16:23:53.1	358.540	0.030	-0.800	-0.990
2020/01/31 16:23:53.2	358.550	0.030	-0.780	-0.970
2020/01/31 16:23:53.3	358.550	0.020	-0.750	-0.940
2020/01/31 16:23:53.4	358.550	0.010	-0.720	-0.910
2020/01/31 16:23:53.5	358.550	0.010	-0.690	-0.880
2020/01/31 16:23:53.6	358.550	0.010	-0.660	-0.840
2020/01/31 16:23:53.7	358.550	0.010	-0.620	-0.800
2020/01/31 16:23:53.8	358.550	0.010	-0.590	-0.760
2020/01/31 16:23:53.9	358.540	0.010	-0.550	-0.710
2020/01/31 16:23:54.0	358.540	0.020	-0.510	-0.670
2020/01/31 16:23:54.1	358.530	0.020	-0.470	-0.620
2020/01/31 16:23:54.2	358.530	0.030	-0.430	-0.570
2020/01/31 16:23:54.3	358.520	0.040	-0.400	-0.520
2020/01/31 16:23:54.4	358.510	0.050	-0.360	-0.470
2020/01/31 16:23:54.5	358.500	0.060	-0.330	-0.420
2020/01/31 16:23:54.6	358.490	0.060	-0.300	-0.380
2020/01/31 16:23:54.7	358.480	0.070	-0.270	-0.330
2020/01/31 16:23:54.8	358.470	0.080	-0.240	-0.290
2020/01/31 16:23:54.9	358.460	0.090	-0.220	-0.250
2020/01/31 16:23:55.0	358.450	0.090	-0.200	-0.220
2020/01/31 16:23:55.1	358.440	0.100	-0.180	-0.190
2020/01/31 16:23:55.2	358.430	0.100	-0.170	-0.170
2020/01/31 16:23:55.3	358.420	0.100	-0.160	-0.150
2020/01/31 16:23:55.4	358.410	0.100	-0.150	-0.130
2020/01/31 16:23:55.5	358.410	0.100	-0.150	-0.120
2020/01/31 16:23:55.6	358.400	0.090	-0.150	-0.120
2020/01/31 16:23:55.7	358.400	0.080	-0.150	-0.120
2020/01/31 16:23:55.8	358.390	0.080	-0.160	-0.120
2020/01/31 16:23:55.9	358.390	0.070	-0.160	-0.130
2020/01/31 16:23:56.0	358.390	0.050	-0.170	-0.150
2020/01/31 16:23:56.1	358.380	0.040	-0.180	-0.160
2020/01/31 16:23:56.2	358.390	0.020	-0.190	-0.180
2020/01/31 16:23:56.3	358.390	0.010	-0.200	-0.210
2020/01/31 16:23:56.4	358.390	-0.010	-0.210	-0.240
2020/01/31 16:23:56.5	358.400	-0.030	-0.220	-0.270
2020/01/31 16:23:56.6	358.410	-0.050	-0.240	-0.300
2020/01/31 16:23:56.7	358.420	-0.080	-0.240	-0.340
2020/01/31 16:23:56.8	358.430	-0.100	-0.250	-0.370
2020/01/31 16:23:56.9	358.450	-0.120	-0.260	-0.410
2020/01/31 16:23:57.0	358.460	-0.140	-0.270	-0.450
2020/01/31 16:23:57.1	358.470	-0.170	-0.270	-0.490
2020/01/31 16:23:57.2	358.490	-0.190	-0.270	-0.520
2020/01/31 16:23:57.3	358.500	-0.210	-0.270	-0.560
2020/01/31 16:23:57.4	358.520	-0.230	-0.260	-0.600
2020/01/31 16:23:57.5	358.530	-0.250	-0.250	-0.630
2020/01/31 16:23:57.6	358.550	-0.260	-0.240	-0.660
2020/01/31 16:23:57.7	358.560	-0.280	-0.220	-0.690
2020/01/31 16:23:57.8	358.580	-0.290	-0.200	-0.710
2020/01/31 16:23:57.9	358.590	-0.300	-0.170	-0.720
2020/01/31 16:23:58.0	358.590	-0.310	-0.140	-0.740
2020/01/31 16:23:58.1	358.600	-0.310	-0.100	-0.740
2020/01/31 16:23:58.2	358.600	-0.320	-0.060	-0.740
2020/01/31 16:23:58.3	358.600	-0.320	-0.010	-0.730
2020/01/31 16:23:58.4	358.600	-0.310	0.030	-0.720
2020/01/31 16:23:58.5	358.590	-0.310	0.080	-0.700
2020/01/31 16:23:58.6	358.580	-0.300	0.130	-0.680
2020/01/31 16:23:58.7	358.570	-0.290	0.190	-0.650
2020/01/31 16:23:58.8	358.550	-0.270	0.240	-0.620
2020/01/31 16:23:58.9	358.540	-0.250	0.290	-0.580
2020/01/31 16:23:59.0	358.520	-0.230	0.340	-0.550
2020/01/31 16:23:59.1	358.500	-0.210	0.390	-0.500
2020/01/31 16:23:59.2	358.480	-0.180	0.430	-0.460
2020/01/31 16:23:59.3	358.460	-0.160	0.470	-0.410
2020/01/31 16:23:59.4	358.430	-0.130	0.510	-0.370
2020/01/31 16:23:59.5	358.410	-0.100	0.540	-0.320
2020/01/31 16:23:59.6	358.380	-0.060	0.570	-0.270
2020/01/31 16:23:59.7	358.350	-0.030	0.580	-0.230
2020/01/31 16:23:59.8	358.320	0.000	0.600	-0.190
2020/01/31 16:23:59.9	358.290	0.040	0.600	-0.140
2020/01/31 16:24:00.0	358.260	0.070	0.610	-0.100
2020/01/31 16:24:00.1	358.240	0.110	0.600	-0.060
2020/01/31 16:24:00.2	358.210	0.140	0.590	-0.030
2020/01/31 16:24:00.3	358.180	0.170	0.570	0.010
2020/01/31 16:24:00.4	358.160	0.210	0.540	0.040
2020/01/31 16:24:00.5	358.130	0.240	0.510	0.070
2020/01/31 16:24:00.6	358.110	0.270	0.470	0.100
2020/01/31 16:24:00.7	358.100	0.300	0.420	0.130
2020/01/31 16:24:00.8	358.090	0.320	0.370	0.150
2020/01/31 16:24:00.9	358.070	0.350	0.310	0.170
2020/01/31 16:24:01.0	358.050	0.370	0.250	0.190
2020/01/31 16:24:01.1	358.040	0.390	0.190	0.210
2020/01/31 16:24:01.2	358.030	0.410	0.120	0.220
2020/01/31 16:24:01.3	358.020	0.420	0.050	0.230
2020/01/31 16:24:01.4	358.020	0.430	-0.030	0.240
2020/01/31 16:24:01.5	358.010	0.440	-0.110	0.240
2020/01/31 16:24:01.6	358.010	0.440	-0.180	0.250
2020/01/31 16:24:01.7	358.010	0.450	-0.260	0.240
2020/01/31 16:24:01.8	358.010	0.440	-0.340	0.240
2020/01/31 16:24:01.9	358.010	0.440	-0.420	0.230
2020/01/31 16:24:02.0	358.010	0.430	-0.490	0.220
2020/01/31 16:24:02.1	358.010	0.420	-0.560	0.200
2020/01/31 16:24:02.2	358.020	0.410	-0.630	0.190
2020/01/31 16:24:02.3	358.020	0.390	-0.690	0.160
2020/01/31 16:24:02.4	358.030	0.370	-0.750	0.140
2020/01/31 16:24:02.5	358.030	0.350	-0.810	0.110
2020/01/31 16:24:02.6	358.030	0.320	-0.860	0.080
2020/01/31 16:24:02.7	358.050	0.300	-0.900	0.040
2020/01/31 16:24:02.8	358.060	0.270	-0.940	0.010
2020/01/31 16:24:02.9	358.060	0.240	-0.970	-0.030
2020/01/31 16:24:03.0	358.070	0.210	-0.990	-0.070
2020/01/31 16:24:03.1	358.070	0.180	-1.010	-0.100
2020/01/31 16:24:03.2	358.080	0.140	-1.020	-0.140
2020/01/31 16:24:03.3	358.080	0.110	-1.020	-0.180
2020/01/31 16:24:03.4	358.090	0.080	-1.020	-0.230
2020/01/31 16:24:03.5	358.100	0.050	-1.010	-0.270
2020/01/31 16:24:03.6	358.110	0.020	-1.000	-0.310
2020/01/31 16:24:03.7	358.120	-0.010	-0.980	-0.360
2020/01/31 16:24:03.8	358.130	-0.040	-0.960	-0.400
2020/01/31 16:24:03.9	358.140	-0.070	-0.940	-0.440
2020/01/31 16:24:04.0	358.160	-0.100	-0.920	-0.490
2020/01/31 16:24:04.1	358.180	-0.130	-0.890	-0.530
2020/01/31 16:24:04.2	358.200	-0.150	-0.860	-0.580
2020/01/31 16:24:04.3	358.230	-0.170	-0.840	-0.620
2020/01/31 16:24:04.4	358.250	-0.190	-0.810	-0.670
2020/01/31 16:24:04.5	358.280	-0.210	-0.780	-0.720
2020/01/31 16:24:04.6	358.320	-0.230	-0.750	-0.760
2020/01/31 16:24:04.7	358.340	-0.240	-0.730	-0.810
2020/01/31 16:24:04.8	358.380	-0.250	-0.700	-0.860
2020/01/31 16:24:04.9	358.410	-0.260	-0.680	-0.900
2020/01/31 16:24:05.0	358.450	-0.270	-0.650	-0.940
2020/01/31 16:24:05.1	358.480	-0.280	-0.630	-0.990
2020/01/31 16:24:05.2	358.520	-0.280	-0.610	-1.020
2020/01/31 16:24:05.3	358.550	-0.280	-0.590	-1.060
2020/01/31 16:24:05.4	358.580	-0.290	-0.560	-1.090
2020/01/31 16:24:05.5	358.610	-0.290	-0.540	-1.130
2020/01/31 16:24:05.6	358.640	-0.290	-0.520	-1.160
2020/01/31 16:24:05.7	358.650	-0.290	-0.510	-1.190
2020/01/31 16:24:05.8	358.680	-0.290	-0.490	-1.220
2020/01/31 16:24:05.9	358.700	-0.280	-0.460	-1.250
2020/01/31 16:24:06.0	358.720	-0.280	-0.440	-1.270
2020/01/31 16:24:06.1	358.740	-0.280	-0.420	-1.300
2020/01/31 16:24:06.2	358.760	-0.270	-0.400	-1.320
2020/01/31 16:24:06.3	358.770	-0.260	-0.380	-1.330
2020/01/31 16:24:06.4	358.780	-0.260	-0.360	-1.350
2020/01/31 16:24:06.5	358.790	-0.250	-0.330	-1.360
2020/01/31 16:24:06.6	358.790	-0.240	-0.310	-1.360
2020/01/31 16:24:06.7	358.800	-0.240	-0.290	-1.360
2020/01/31 16:24:06.8	358.800	-0.230	-0.260	-1.360
2020/01/31 16:24:06.9	358.810	-0.220	-0.240	-1.350
2020/01/31 16:24:07.0	358.810	-0.210	-0.210	-1.330
2020/01/31 16:24:07.1	358.810	-0.200	-0.190	-1.310
2020/01/31 16:24:07.2	358.800	-0.200	-0.160	-1.290
2020/01/31 16:24:07.3	358.800	-0.190	-0.140	-1.260
2020/01/31 16:24:07.4	358.800	-0.180	-0.110	-1.230
2020/01/31 16:24:07.5	358.800	-0.170	-0.090	-1.190
2020/01/31 16:24:07.6	358.800	-0.160	-0.070	-1.160
2020/01/31 16:24:07.7	358.800	-0.150	-0.050	-1.120
2020/01/31 16:24:07.8	358.800	-0.140	-0.020	-1.080
2020/01/31 16:24:07.9	358.800	-0.140	-0.010	-1.040
2020/01/31 16:24:08.0	358.800	-0.130	0.010	-1.000
2020/01/31 16:24:08.1	358.810	-0.120	0.030	-0.960
2020/01/31 16:24:08.2	358.810	-0.110	0.040	-0.920
2020/01/31 16:24:08.3	358.810	-0.110	0.060	-0.880
2020/01/31 16:24:08.4	358.820	-0.100	0.070	-0.850
2020/01/31 16:24:08.5	358.820	-0.090	0.080	-0.810
2020/01/31 16:24:08.6	358.820	-0.090	0.090	-0.780
2020/01/31 16:24:08.7	358.820	-0.080	0.100	-0.750
2020/01/31 16:24:08.8	358.820	-0.080	0.110	-0.720
2020/01/31 16:24:08.9	358.820	-0.080	0.120	-0.690
2020/01/31 16:24:09.0	358.810	-0.070	0.120	-0.660
2020/01/31 16:24:09.1	358.800	-0.070	0.130	-0.630
2020/01/31 16:24:09.2	358.790	-0.070	0.130	-0.610
2020/01/31 16:24:09.3	358.780	-0.070	0.140	-0.580
2020/01/31 16:24:09.4	358.770	-0.080	0.140	-0.560
2020/01/31 16:24:09.5	358.760	-0.080	0.140	-0.540
2020/01/31 16:24:09.6	358.740	-0.080	0.150	-0.510
2020/01/31 16:24:09.7	358.720	-0.080	0.150	-0.490
2020/01/31 16:24:09.8	358.700	-0.090	0.150	-0.470
2020/01/31 16:24:09.9	358.680	-0.090	0.150	-0.450
2020/01/31 16:24:10.0	358.660	-0.100	0.150	-0.420
2020/01/31 16:24:10.1	358.640	-0.100	0.150	-0.400
2020/01/31 16:24:10.2	358.620	-0.110	0.150	-0.380
2020/01/31 16:24:10.3	358.600	-0.110	0.150	-0.350
2020/01/31 16:24:10.4	358.580	-0.110	0.140	-0.330
2020/01/31 16:24:10.5	358.550	-0.110	0.140	-0.300
2020/01/31 16:24:10.6	358.530	-0.120	0.130	-0.270
2020/01/31 16:24:10.7	358.500	-0.120	0.130	-0.250
2020/01/31 16:24:10.8	358.470	-0.120	0.120	-0.220
2020/01/31 16:24:10.9	358.450	-0.110	0.110	-0.200
2020/01/31 16:24:11.0	358.420	-0.110	0.090	-0.170
2020/01/31 16:24:11.1	358.400	-0.110	0.080	-0.140
2020/01/31 16:24:11.2	358.370	-0.100	0.060	-0.120
2020/01/31 16:24:11.3	358.350	-0.090	0.040	-0.090
2020/01/31 16:24:11.4	358.320	-0.080	0.020	-0.060
2020/01/31 16:24:11.5	358.300	-0.070	-0.000	-0.040
2020/01/31 16:24:11.6	358.270	-0.050	-0.030	-0.010
2020/01/31 16:24:11.7	358.250	-0.040	-0.060	0.010
2020/01/31 16:24:11.8	358.230	-0.020	-0.090	0.040
2020/01/31 16:24:11.9	358.210	0.000	-0.120	0.060
2020/01/31 16:24:12.0	358.190	0.020	-0.160	0.080
2020/01/31 16:24:12.1	358.170	0.050	-0.200	0.090
2020/01/31 16:24:12.2	358.150	0.080	-0.240	0.110
2020/01/31 16:24:12.3	358.130	0.110	-0.280	0.120
2020/01/31 16:24:12.4	358.120	0.140	-0.320	0.130
2020/01/31 16:24:12.5	358.100	0.170	-0.360	0.140
2020/01/31 16:24:12.6	358.090	0.200	-0.400	0.150
2020/01/31 16:24:12.7	358.080	0.240	-0.450	0.150
2020/01/31 16:24:12.8	358.080	0.280	-0.490	0.150
2020/01/31 16:24:12.9	358.070	0.310	-0.530	0.150
2020/01/31 16:24:13.0	358.060	0.350	-0.570	0.140
2020/01/31 16:24:13.1	358.060	0.390	-0.600	0.130
2020/01/31 16:24:13.2	358.060	0.430	-0.640	0.120
2020/01/31 16:24:13.3	358.060	0.470	-0.670	0.110
2020/01/31 16:24:13.4	358.060	0.510	-0.700	0.100
2020/01/31 16:24:13.5	358.060	0.550	-0.720	0.090
2020/01/31 16:24:13.6	358.070	0.580	-0.740	0.070
2020/01/31 16:24:13.7	358.070	0.620	-0.750	0.060
2020/01/31 16:24:13.8	358.080	0.650	-0.760	0.040
2020/01/31 16:24:13.9	358.090	0.680	-0.770	0.030
2020/01/31 16:24:14.0	358.100	0.710	-0.770	0.010
2020/01/31 16:24:14.1	358.110	0.730	-0.760	-0.010
2020/01/31 16:24:14.2	358.120	0.750	-0.750	-0.020
2020/01/31 16:24:14.3	358.130	0.770	-0.740	-0.040
2020/01/31 16:24:14.4	358.150	0.790	-0.720	-0.060
2020/01/31 16:24:14.5	358.160	0.800	-0.690	-0.080
2020/01/31 16:24:14.6	358.170	0.800	-0.660	-0.100
2020/01/31 16:24:14.7	358.190	0.800	-0.630	-0.130
2020/01/31 16:24:14.8	358.210	0.800	-0.600	-0.150
2020/01/31 16:24:14.9	358.230	0.790	-0.560	-0.180
2020/01/31 16:24:15.0	358.250	0.770	-0.520	-0.200
2020/01/31 16:24:15.1	358.270	0.750	-0.470	-0.230
2020/01/31 16:24:15.2	358.290	0.730	-0.430	-0.260
2020/01/31 16:24:15.3	358.310	0.700	-0.380	-0.300
2020/01/31 16:24:15.4	358.340	0.670	-0.330	-0.330
2020/01/31 16:24:15.5	358.360	0.630	-0.280	-0.370
2020/01/31 16:24:15.6	358.390	0.590	-0.240	-0.400
2020/01/31 16:24:15.7	358.430	0.540	-0.190	-0.440
2020/01/31 16:24:15.8	358.450	0.490	-0.140	-0.480
2020/01/31 16:24:15.9	358.490	0.440	-0.100	-0.530
2020/01/31 16:24:16.0	358.520	0.380	-0.060	-0.570
2020/01/31 16:24:16.1	358.550	0.320	-0.020	-0.610
2020/01/31 16:24:16.2	358.580	0.260	0.010	-0.660
2020/01/31 16:24:16.3	358.610	0.200	0.050	-0.700
2020/01/31 16:24:16.4	358.650	0.130	0.080	-0.750
2020/01/31 16:24:16.5	358.680	0.060	0.100	-0.790
2020/01/31 16:24:16.6	358.710	-0.010	0.130	-0.830
2020/01/31 16:24:16.7	358.720	-0.080	0.140	-0.880
2020/01/31 16:24:16.8	358.750	-0.150	0.160	-0.910
2020/01/31 16:24:16.9	358.770	-0.220	0.180	-0.950
2020/01/31 16:24:17.0	358.790	-0.300	0.190	-0.990
2020/01/31 16:24:17.1	358.810	-0.370	0.210	-1.020
2020/01/31 16:24:17.2	358.820	-0.440	0.220	-1.050
2020/01/31 16:24:17.3	358.830	-0.510	0.230	-1.080
2020/01/31 16:24:17.4	358.840	-0.580	0.230	-1.100
2020/01/31 16:24:17.5	358.840	-0.640	0.240	-1.120
2020/01/31 16:24:17.6	358.840	-0.710	0.240	-1.140
2020/01/31 16:24:17.7	358.830	-0.770	0.250	-1.160
2020/01/31 16:24:17.8	358.820	-0.830	0.250	-1.170
2020/01/31 16:24:17.9	358.810	-0.880	0.250	-1.180
2020/01/31 16:24:18.0	358.800	-0.940	0.250	-1.190
2020/01/31 16:24:18.1	358.780	-0.990	0.240	-1.190
2020/01/31 16:24:18.2	358.760	-1.030	0.240	-1.190
2020/01/31 16:24:18.3	358.730	-1.070	0.230	-1.190
2020/01/31 16:24:18.4	358.710	-1.110	0.210	-1.180
2020/01/31 16:24:18.5	358.680	-1.140	0.200	-1.180
2020/01/31 16:24:18.6	358.650	-1.170	0.180	-1.170
2020/01/31 16:24:18.7	358.630	-1.190	0.160	-1.160
2020/01/31 16:24:18.8	358.600	-1.200	0.130	-1.160
2020/01/31 16:24:18.9	358.570	-1.210	0.100	-1.150
2020/01/31 16:24:19.0	358.540	-1.220	0.070	-1.140
2020/01/31 16:24:19.1	358.510	-1.220	0.040	-1.140
2020/01/31 16:24:19.2	358.480	-1.210	-0.000	-1.130
2020/01/31 16:24:19.3	358.450	-1.200	-0.040	-1.120
2020/01/31 16:24:19.4	358.430	-1.180	-0.090	-1.120
2020/01/31 16:24:19.5	358.400	-1.160	-0.140	-1.110
2020/01/31 16:24:19.6	358.380	-1.130	-0.190	-1.110
2020/01/31 16:24:19.7	358.350	-1.090	-0.250	-1.100
2020/01/31 16:24:19.8	358.330	-1.050	-0.300	-1.100
2020/01/31 16:24:19.9	358.310	-1.010	-0.360	-1.090
2020/01/31 16:24:20.0	358.300	-0.950	-0.420	-1.080
2020/01/31 16:24:20.1	358.290	-0.900	-0.480	-1.070
2020/01/31 16:24:20.2	358.280	-0.830	-0.540	-1.060
2020/01/31 16:24:20.3	358.280	-0.760	-0.590	-1.050
2020/01/31 16:24:20.4	358.280	-0.690	-0.650	-1.040
2020/01/31 16:24:20.5	358.280	-0.610	-0.710	-1.030
2020/01/31 16:24:20.6	358.280	-0.530	-0.760	-1.010
2020/01/31 16:24:20.7	358.290	-0.450	-0.810	-0.990
2020/01/31 16:24:20.8	358.300	-0.360	-0.860	-0.970
2020/01/31 16:24:20.9	358.310	-0.270	-0.900	-0.950
2020/01/31 16:24:21.0	358.320	-0.180	-0.940	-0.930
2020/01/31 16:24:21.1	358.340	-0.090	-0.970	-0.910
2020/01/31 16:24:21.2	358.360	0.000	-1.000	-0.880
2020/01/31 16:24:21.3	358.380	0.090	-1.030	-0.860
2020/01/31 16:24:21.4	358.410	0.190	-1.050	-0.830
2020/01/31 16:24:21.5	358.430	0.280	-1.060	-0.810
2020/01/31 16:24:21.6	358.460	0.370	-1.070	-0.780
2020/01/31 16:24:21.7	358.490	0.450	-1.070	-0.750
2020/01/31 16:24:21.8	358.520	0.540	-1.070	-0.730
2020/01/31 16:24:21.9	358.560	0.620	-1.070	-0.700
2020/01/31 16:24:22.0	358.590	0.700	-1.060	-0.660
2020/01/31 16:24:22.1	358.630	0.770	-1.040	-0.630
2020/01/31 16:24:22.2	358.670	0.840	-1.020	-0.600
2020/01/31 16:24:22.3	358.700	0.900	-0.990	-0.560
2020/01/31 16:24:22.4	358.740	0.960	-0.960	-0.520
2020/01/31 16:24:22.5	358.770	1.000	-0.920	-0.480
2020/01/31 16:24:22.6	358.800	1.050	-0.880	-0.430
2020/01/31 16:24:22.7	358.820	1.080	-0.830	-0.380
2020/01/31 16:24:22.8	358.850	1.110	-0.770	-0.330
2020/01/31 16:24:22.9	358.860	1.130	-0.710	-0.280
2020/01/31 16:24:23.0	358.880	1.140	-0.650	-0.230
2020/01/31 16:24:23.1	358.890	1.140	-0.580	-0.170
2020/01/31 16:24:23.2	358.890	1.130	-0.510	-0.120
2020/01/31 16:24:23.3	358.890	1.120	-0.440	-0.070
2020/01/31 16:24:23.4	358.890	1.100	-0.360	-0.010
2020/01/31 16:24:23.5	358.880	1.070	-0.280	0.040
2020/01/31 16:24:23.6	358.870	1.040	-0.210	0.090
2020/01/31 16:24:23.7	358.850	1.000	-0.130	0.140
2020/01/31 16:24:23.8	358.830	0.950	-0.050	0.190
2020/01/31 16:24:23.9	358.810	0.890	0.030	0.230
2020/01/31 16:24:24.0	358.790	0.840	0.100	0.270
2020/01/31 16:24:24.1	358.760	0.770	0.180	0.300
2020/01/31 16:24:24.2	358.740	0.700	0.250	0.340
2020/01/31 16:24:24.3	358.710	0.630	0.320	0.360
2020/01/31 16:24:24.4	358.670	0.560	0.380	0.380
2020/01/31 16:24:24.5	358.640	0.490	0.440	0.400
2020/01/31 16:24:24.6	358.610	0.410	0.500	0.410
2020/01/31 16:24:24.7	358.590	0.330	0.550	0.410
2020/01/31 16:24:24.8	358.550	0.260	0.590	0.420
2020/01/31 16:24:24.9	358.520	0.180	0.630	0.410
2020/01/31 16:24:25.0	358.480	0.110	0.670	0.400
2020/01/31 16:24:25.1	358.450	0.040	0.690	0.390
2020/01/31 16:24:25.2	358.410	-0.030	0.710	0.370
2020/01/31 16:24:25.3	358.380	-0.100	0.720	0.350
2020/01/31 16:24:25.4	358.340	-0.160	0.730	0.320
2020/01/31 16:24:25.5	358.310	-0.210	0.730	0.290
2020/01/31 16:24:25.6	358.280	-0.260	0.720	0.260
2020/01/31 16:24:25.7	358.240	-0.310	0.710	0.220
2020/01/31 16:24:25.8	358.210	-0.350	0.690	0.190
2020/01/31 16:24:25.9	358.180	-0.380	0.660	0.150
2020/01/31 16:24:26.0	358.160	-0.410	0.630	0.100
2020/01/31 16:24:26.1	358.130	-0.440	0.590	0.060
2020/01/31 16:24:26.2	358.110	-0.460	0.540	0.010
2020/01/31 16:24:26.3	358.090	-0.470	0.490	-0.040
2020/01/31 16:24:26.4	358.080	-0.480	0.430	-0.100
2020/01/31 16:24:26.5	358.070	-0.480	0.370	-0.150
2020/01/31 16:24:26.6	358.060	-0.480	0.310	-0.210
2020/01/31 16:24:26.7	358.060	-0.470	0.240	-0.270
2020/01/31 16:24:26.8	358.060	-0.460	0.160	-0.340
2020/01/31 16:24:26.9	358.060	-0.450	0.090	-0.400
2020/01/31 16:24:27.0	358.060	-0.430	0.010	-0.470
2020/01/31 16:24:27.1	358.070	-0.410	-0.060	-0.530
2020/01/31 16:24:27.2	358.080	-0.390	-0.140	-0.600
2020/01/31 16:24:27.3	358.090	-0.360	-0.220	-0.670
2020/01/31 16:24:27.4	358.100	-0.330	-0.300	-0.740
2020/01/31 16:24:27.5	358.120	-0.310	-0.370	-0.810
2020/01/31 16:24:27.6	358.140	-0.280	-0.440	-0.880
2020/01/31 16:24:27.7	358.160	-0.250	-0.510	-0.950
2020/01/31 16:24:27.8	358.180	-0.220	-0.580	-1.010
2020/01/31 16:24:27.9	358.200	-0.190	-0.640	-1.070
2020/01/31 16:24:28.0	358.220	-0.170	-0.700	-1.130
2020/01/31 16:24:28.1	358.240	-0.140	-0.750	-1.190
2020/01/31 16:24:28.2	358.260	-0.120	-0.790	-1.240
2020/01/31 16:24:28.3	358.280	-0.090	-0.830	-1.290
2020/01/31 16:24:28.4	358.300	-0.070	-0.870	-1.330
2020/01/31 16:24:28.5	358.320	-0.050	-0.900	-1.370
2020/01/31 16:24:28.6	358.340	-0.040	-0.920	-1.400
2020/01/31 16:24:28.7	358.360	-0.020	-0.930	-1.430
2020/01/31 16:24:28.8	358.380	-0.010	-0.940	-1.450
2020/01/31 16:24:28.9	358.400	-0.000	-0.940	-1.460
2020/01/31 16:24:29.0	358.410	0.000	-0.930	-1.470
2020/01/31 16:24:29.1	358.430	0.000	-0.920	-1.480
2020/01/31 16:24:29.2	358.440	0.010	-0.900	-1.470
2020/01/31 16:24:29.3	358.450	0.010	-0.870	-1.470
2020/01/31 16:24:29.4	358.470	0.000	-0.840	-1.460
2020/01/31 16:24:29.5	358.480	-0.000	-0.810	-1.440
2020/01/31 16:24:29.6	358.500	-0.010	-0.770	-1.430
2020/01/31 16:24:29.7	358.500	-0.020	-0.730	-1.410
2020/01/31 16:24:29.8	358.520	-0.030	-0.690	-1.380
2020/01/31 16:24:29.9	358.530	-0.040	-0.640	-1.360
2020/01/31 16:24:30.0	358.550	-0.050	-0.600	-1.330
2020/01/31 16:24:30.1	358.560	-0.060	-0.560	-1.310
2020/01/31 16:24:30.2	358.580	-0.070	-0.510	-1.280
2020/01/31 16:24:30.3	358.590	-0.080	-0.470	-1.240
2020/01/31 16:24:30.4	358.600	-0.090	-0.420	-1.210
2020/01/31 16:24:30.5	358.620	-0.100	-0.380	-1.170
2020/01/31 16:24:30.6	358.630	-0.110	-0.340	-1.140
2020/01/31 16:24:30.7	358.640	-0.120	-0.300	-1.100
2020/01/31 16:24:30.8	358.650	-0.120	-0.260	-1.050
2020/01/31 16:24:30.9	358.660	-0.130	-0.230	-1.010
2020/01/31 16:24:31.0	358.670	-0.130	-0.200	-0.960
2020/01/31 16:24:31.1	358.670	-0.130	-0.170	-0.910
2020/01/31 16:24:31.2	358.670	-0.130	-0.140	-0.850
2020/01/31 16:24:31.3	358.670	-0.130	-0.110	-0.800
2020/01/31 16:24:31.4	358.670	-0.130	-0.090	-0.740
2020/01/31 16:24:31.5	358.670	-0.120	-0.070	-0.680
2020/01/31 16:24:31.6	358.660	-0.110	-0.050	-0.620
2020/01/31 16:24:31.7	358.650	-0.100	-0.030	-0.550
2020/01/31 16:24:31.8	358.640	-0.090	-0.020	-0.480
2020/01/31 16:24:31.9	358.630	-0.080	-0.010	-0.420
2020/01/31 16:24:32.0	358.620	-0.070	-0.000	-0.350
2020/01/31 16:24:32.1	358.610	-0.050	0.000	-0.280
2020/01/31 16:24:32.2	358.590	-0.040	0.000	-0.220
2020/01/31 16:24:32.3	358.580	-0.020	0.000	-0.150
2020/01/31 16:24:32.4	358.570	-0.000	-0.000	-0.090
2020/01/31 16:24:32.5	358.550	0.020	-0.010	-0.030
2020/01/31 16:24:32.6	358.540	0.040	-0.020	0.020
2020/01/31 16:24:32.7	358.520	0.060	-0.030	0.070
2020/01/31 16:24:32.8	358.510	0.070	-0.050	0.120
2020/01/31 16:24:32.9	358.500	0.090	-0.070	0.160
2020/01/31 16:24:33.0	358.490	0.110	-0.090	0.200
2020/01/31 16:24:33.1	358.490	0.130	-0.110	0.230
2020/01/31 16:24:33.2	358.480	0.150	-0.130	0.260
2020/01/31 16:24:33.3	358.480	0.170	-0.160	0.280
2020/01/31 16:24:33.4	358.480	0.180	-0.190	0.300
2020/01/31 16:24:33.5	358.480	0.200	-0.220	0.310
2020/01/31 16:24:33.6	358.480	0.210	-0.250	0.310
2020/01/31 16:24:33.7	358.490	0.220	-0.280	0.310
2020/01/31 16:24:33.8	358.490	0.230	-0.310	0.310
2020/01/31 16:24:33.9	358.490	0.240	-0.340	0.300
2020/01/31 16:24:34.0	358.490	0.250	-0.370	0.290
2020/01/31 16:24:34.1	358.490	0.250	-0.400	0.270
2020/01/31 16:24:34.2	358.490	0.250	-0.430	0.250
2020/01/31 16:24:34.3	358.500	0.250	-0.450	0.230
2020/01/31 16:24:34.4	358.500	0.240	-0.470	0.210
2020/01/31 16:24:34.5	358.500	0.240	-0.490	0.180
2020/01/31 16:24:34.6	358.500	0.230	-0.510	0.150
2020/01/31 16:24:34.7	358.500	0.220	-0.520	0.110
2020/01/31 16:24:34.8	358.500	0.200	-0.530	0.080
2020/01/31 16:24:34.9	358.500	0.190	-0.530	0.040
2020/01/31 16:24:35.0	358.500	0.170	-0.530	0.000
2020/01/31 16:24:35.1	358.500	0.150	-0.530	-0.040
2020/01/31 16:24:35.2	358.500	0.130	-0.530	-0.080
2020/01/31 16:24:35.3	358.500	0.100	-0.520	-0.120
2020/01/31 16:24:35.4	358.500	0.080	-0.510	-0.170
2020/01/31 16:24:35.5	358.500	0.060	-0.490	-0.210
2020/01/31 16:24:35.6	358.500	0.030	-0.470	-0.250
2020/01/31 16:24:35.7	358.500	0.010	-0.450	-0.300
2020/01/31 16:24:35.8	358.500	-0.020	-0.430	-0.350
2020/01/31 16:24:35.9	358.510	-0.040	-0.410	-0.390
2020/01/31 16:24:36.0	358.510	-0.070	-0.380	-0.440
2020/01/31 16:24:36.1	358.520	-0.090	-0.350	-0.480
2020/01/31 16:24:36.2	358.530	-0.110	-0.320	-0.530
2020/01/31 16:24:36.3	358.530	-0.130	-0.300	-0.570
2020/01/31 16:24:36.4	358.540	-0.150	-0.270	-0.610
2020/01/31 16:24:36.5	358.550	-0.170	-0.240	-0.660
2020/01/31 16:24:36.6	358.560	-0.180	-0.210	-0.700
2020/01/31 16:24:36.7	358.570	-0.190	-0.180	-0.740
2020/01/31 16:24:36.8	358.580	-0.200	-0.150	-0.770
2020/01/31 16:24:36.9	358.590	-0.210	-0.120	-0.810
2020/01/31 16:24:37.0	358.600	-0.210	-0.090	-0.840
2020/01/31 16:24:37.1	358.610	-0.220	-0.070	-0.870
2020/01/31 16:24:37.2	358.620	-0.220	-0.040	-0.900
2020/01/31 16:24:37.3	358.620	-0.210	-0.020	-0.920
2020/01/31 16:24:37.4	358.630	-0.210	0.010	-0.940
2020/01/31 16:24:37.5	358.630	-0.200	0.030	-0.950
2020/01/31 16:24:37.6	358.640	-0.190	0.060	-0.960
2020/01/31 16:24:37.7	358.630	-0.180	0.080	-0.970
2020/01/31 16:24:37.8	358.630	-0.160	0.100	-0.970
2020/01/31 16:24:37.9	358.620	-0.150	0.120	-0.970
2020/01/31 16:24:38.0	358.620	-0.130	0.140	-0.960
2020/01/31 16:24:38.1	358.620	-0.110	0.160	-0.950
2020/01/31 16:24:38.2	358.610	-0.090	0.180	-0.930
2020/01/31 16:24:38.3	358.600	-0.070	0.190	-0.910
2020/01/31 16:24:38.4	358.590	-0.050	0.210	-0.890
2020/01/31 16:24:38.5	358.580	-0.030	0.220	-0.860
2020/01/31 16:24:38.6	358.570	-0.010	0.230	-0.830
2020/01/31 16:24:38.7	358.560	0.020	0.240	-0.790
2020/01/31 16:24:38.8	358.550	0.040	0.240	-0.760
2020/01/31 16:24:38.9	358.540	0.060	0.250	-0.720
2020/01/31 16:24:39.0	358.520	0.080	0.250	-0.680
2020/01/31 16:24:39.1	358.510	0.110	0.240	-0.640
2020/01/31 16:24:39.2	358.500	0.130	0.240	-0.600
2020/01/31 16:24:39.3	358.480	0.150	0.230	-0.560
2020/01/31 16:24:39.4	358.470	0.160	0.220	-0.520
2020/01/31 16:24:39.5	358.450	0.180	0.200	-0.480
2020/01/31 16:24:39.6	358.430	0.200	0.190	-0.430
2020/01/31 16:24:39.7	358.420	0.210	0.170	-0.390
2020/01/31 16:24:39.8	358.400	0.230	0.150	-0.340
2020/01/31 16:24:39.9	358.380	0.240	0.120	-0.300
2020/01/31 16:24:40.0	358.360	0.250	0.100	-0.250
2020/01/31 16:24:40.1	358.340	0.260	0.070	-0.210
2020/01/31 16:24:40.2	358.320	0.270	0.040	-0.170
2020/01/31 16:24:40.3	358.290	0.280	0.010	-0.120
2020/01/31 16:24:40.4	358.270	0.280	-0.020	-0.080
2020/01/31 16:24:40.5	358.250	0.290	-0.060	-0.040
2020/01/31 16:24:40.6	358.230	0.290	-0.090	0.000
2020/01/31 16:24:40.7	358.220	0.290	-0.120	0.040
2020/01/31 16:24:40.8	358.190	0.290	-0.160	0.080
2020/01/31 16:24:40.9	358.170	0.290	-0.190	0.120
2020/01/31 16:24:41.0	358.150	0.280	-0.230	0.150
2020/01/31 16:24:41.1	358.130	0.280	-0.270	0.180
2020/01/31 16:24:41.2	358.110	0.270	-0.300	0.210
2020/01/31 16:24:41.3	358.100	0.260	-0.340	0.230
2020/01/31 16:24:41.4	358.080	0.250	-0.370	0.250
2020/01/31 16:24:41.5	358.070	0.240	-0.410	0.260
2020/01/31 16:24:41.6	358.060	0.220	-0.440	0.270
2020/01/31 16:24:41.7	358.060	0.210	-0.480	0.280
2020/01/31 16:24:41.8	358.050	0.190	-0.510	0.270
2020/01/31 16:24:41.9	358.050	0.170	-0.550	0.260
2020/01/31 16:24:42.0	358.050	0.160	-0.580	0.250
2020/01/31 16:24:42.1	358.060	0.140	-0.610	0.230
2020/01/31 16:24:42.2	358.070	0.120	-0.650	0.200
2020/01/31 16:24:42.3	358.080	0.100	-0.680	0.170
2020/01/31 16:24:42.4	358.100	0.080	-0.720	0.130
2020/01/31 16:24:42.5	358.120	0.060	-0.750	0.080
2020/01/31 16:24:42.6	358.150	0.040	-0.790	0.030
2020/01/31 16:24:42.7	358.170	0.020	-0.830	-0.030
2020/01/31 16:24:42.8	358.200	0.000	-0.860	-0.090
2020/01/31 16:24:42.9	358.230	-0.020	-0.900	-0.150
2020/01/31 16:24:43.0	358.260	-0.040	-0.940	-0.220
2020/01/31 16:24:43.1	358.300	-0.050	-0.970	-0.290
2020/01/31 16:24:43.2	358.340	-0.070	-1.010	-0.360
2020/01/31 16:24:43.3	358.380	-0.080	-1.040	-0.430
2020/01/31 16:24:43.4	358.420	-0.100	-1.070	-0.500
2020/01/31 16:24:43.5	358.460	-0.110	-1.100	-0.580
2020/01/31 16:24:43.6	358.500	-0.120	-1.130	-0.650
2020/01/31 16:24:43.7	358.550	-0.130	-1.150	-0.720
2020/01/31 16:24:43.8	358.590	-0.140	-1.170	-0.790
2020/01/31 16:24:43.9	358.630	-0.150	-1.180	-0.860
2020/01/31 16:24:44.0	358.670	-0.150	-1.190	-0.930
2020/01/31 16:24:44.1	358.710	-0.160	-1.200	-1.000
2020/01/31 16:24:44.2	358.750	-0.170	-1.190	-1.060
2020/01/31 16:24:44.3	358.790	-0.170	-1.190	-1.120
2020/01/31 16:24:44.4	358.820	-0.170	-1.170	-1.170
2020/01/31 16:24:44.5	358.860	-0.180	-1.150	-1.230
2020/01/31 16:24:44.6	358.890	-0.180	-1.120	-1.270
2020/01/31 16:24:44.7	358.930	-0.180	-1.090	-1.320
2020/01/31 16:24:44.8	358.960	-0.180	-1.050	-1.360
2020/01/31 16:24:44.9	358.990	-0.180	-1.000	-1.390
2020/01/31 16:24:45.0	359.010	-0.180	-0.950	-1.420
2020/01/31 16:24:45.1	359.040	-0.180	-0.890	-1.440
2020/01/31 16:24:45.2	359.060	-0.180	-0.820	-1.460
2020/01/31 16:24:45.3	359.070	-0.180	-0.750	-1.460
2020/01/31 16:24:45.4	359.090	-0.180	-0.680	-1.470
2020/01/31 16:24:45.5	359.100	-0.180	-0.600	-1.460
2020/01/31 16:24:45.6	359.110	-0.180	-0.510	-1.450
2020/01/31 16:24:45.7	359.110	-0.180	-0.420	-1.430
2020/01/31 16:24:45.8	359.110	-0.180	-0.330	-1.410
2020/01/31 16:24:45.9	359.110	-0.180	-0.230	-1.380
2020/01/31 16:24:46.0	359.100	-0.180	-0.130	-1.340
2020/01/31 16:24:46.1	359.100	-0.180	-0.040	-1.300
2020/01/31 16:24:46.2	359.090	-0.180	0.060	-1.260
2020/01/31 16:24:46.3	359.070	-0.180	0.160	-1.200
2020/01/31 16:24:46.4	359.060	-0.180	0.260	-1.150
2020/01/31 16:24:46.5	359.040	-0.180	0.360	-1.090
2020/01/31 16:24:46.6	359.020	-0.180	0.450	-1.030
2020/01/31 16:24:46.7	359.000	-0.170	0.540	-0.960
2020/01/31 16:24:46.8	358.980	-0.170	0.620	-0.890
2020/01/31 16:24:46.9	358.950	-0.170	0.700	-0.820
2020/01/31 16:24:47.0	358.920	-0.160	0.780	-0.740
2020/01/31 16:24:47.1	358.890	-0.160	0.850	-0.670
2020/01/31 16:24:47.2	358.860	-0.150	0.910	-0.590
2020/01/31 16:24:47.3	358.820	-0.140	0.970	-0.510
2020/01/31 16:24:47.4	358.780	-0.130	1.010	-0.440
2020/01/31 16:24:47.5	358.750	-0.120	1.050	-0.360
2020/01/31 16:24:47.6	358.700	-0.110	1.080	-0.280
2020/01/31 16:24:47.7	358.670	-0.100	1.110	-0.200
2020/01/31 16:24:47.8	358.620	-0.080	1.120	-0.130
2020/01/31 16:24:47.9	358.580	-0.070	1.130	-0.050
2020/01/31 16:24:48.0	358.530	-0.050	1.130	0.020
2020/01/31 16:24:48.1	358.480	-0.040	1.110	0.090
2020/01/31 16:24:48.2	358.430	-0.020	1.090	0.160
2020/01/31 16:24:48.3	358.380	0.000	1.070	0.230
2020/01/31 16:24:48.4	358.330	0.020	1.030	0.300
2020/01/31 16:24:48.5	358.270	0.040	0.990	0.360
2020/01/31 16:24:48.6	358.220	0.070	0.940	0.420
2020/01/31 16:24:48.7	358.160	0.090	0.880	0.470
2020/01/31 16:24:48.8	358.110	0.110	0.820	0.530
2020/01/31 16:24:48.9	358.060	0.140	0.750	0.570
2020/01/31 16:24:49.0	358.010	0.160	0.670	0.620
2020/01/31 16:24:49.1	357.960	0.180	0.590	0.650
2020/01/31 16:24:49.2	357.910	0.210	0.500	0.680
2020/01/31 16:24:49.3	357.870	0.230	0.410	0.710
2020/01/31 16:24:49.4	357.820	0.250	0.320	0.730
2020/01/31 16:24:49.5	357.780	0.270	0.230	0.740
2020/01/31 16:24:49.6	357.750	0.290	0.130	0.750
2020/01/31 16:24:49.7	357.720	0.310	0.030	0.740
2020/01/31 16:24:49.8	357.690	0.320	-0.070	0.730
2020/01/31 16:24:49.9	357.660	0.340	-0.170	0.720
2020/01/31 16:24:50.0	357.640	0.350	-0.270	0.700
2020/01/31 16:24:50.1	357.620	0.360	-0.370	0.670
2020/01/31 16:24:50.2	357.600	0.370	-0.470	0.640
2020/01/31 16:24:50.3	357.590	0.380	-0.560	0.600
2020/01/31 16:24:50.4	357.580	0.390	-0.650	0.560
2020/01/31 16:24:50.5	357.570	0.390	-0.740	0.510
2020/01/31 16:24:50.6	357.570	0.390	-0.820	0.460
2020/01/31 16:24:50.7	357.570	0.390	-0.910	0.400
2020/01/31 16:24:50.8	357.580	0.380	-0.980	0.350
2020/01/31 16:24:50.9	357.580	0.380	-1.050	0.290
2020/01/31 16:24:51.0	357.600	0.370	-1.110	0.220
2020/01/31 16:24:51.1	357.610	0.360	-1.160	0.160
2020/01/31 16:24:51.2	357.630	0.340	-1.210	0.090
2020/01/31 16:24:51.3	357.650	0.330	-1.250	0.020
2020/01/31 16:24:51.4	357.680	0.310	-1.280	-0.050
2020/01/31 16:24:51.5	357.700	0.290	-1.300	-0.120
2020/01/31 16:24:51.6	357.730	0.270	-1.320	-0.190
2020/01/31 16:24:51.7	357.780	0.240	-1.320	-0.270
2020/01/31 16:24:51.8	357.810	0.220	-1.330	-0.350
2020/01/31 16:24:51.9	357.850	0.190	-1.320	-0.420
2020/01/31 16:24:52.0	357.890	0.160	-1.320	-0.500
2020/01/31 16:24:52.1	357.930	0.130	-1.300	-0.570
2020/01/31 16:24:52.2	357.970	0.100	-1.280	-0.650
2020/01/31 16:24:52.3	358.020	0.070	-1.260	-0.720
2020/01/31 16:24:52.4	358.060	0.040	-1.230	-0.790
2020/01/31 16:24:52.5	358.110	0.000	-1.200	-0.870
2020/01/31 16:24:52.6	358.150	-0.030	-1.170	-0.940
2020/01/31 16:24:52.7	358.200	-0.060	-1.130	-1.010
2020/01/31 16:24:52.8	358.250	-0.090	-1.100	-1.080
2020/01/31 16:24:52.9	358.290	-0.120	-1.060	-1.150
2020/01/31 16:24:53.0	358.340	-0.150	-1.010	-1.210
2020/01/31 16:24:53.1	358.390	-0.180	-0.970	-1.280
2020/01/31 16:24:53.2	358.430	-0.210	-0.930	-1.340
2020/01/31 16:24:53.3	358.480	-0.230	-0.890	-1.390
2020/01/31 16:24:53.4	358.520	-0.260	-0.840	-1.450
2020/01/31 16:24:53.5	358.570	-0.280	-0.800	-1.490
2020/01/31 16:24:53.6	358.610	-0.300	-0.760	-1.540
2020/01/31 16:24:53.7	358.650	-0.320	-0.710	-1.580
2020/01/31 16:24:53.8	358.690	-0.330	-0.670	-1.610
2020/01/31 16:24:53.9	358.720	-0.350	-0.620	-1.640
2020/01/31 16:24:54.0	358.750	-0.360	-0.580	-1.660
2020/01/31 16:24:54.1	358.780	-0.370	-0.540	-1.670
2020/01/31 16:24:54.2	358.810	-0.380	-0.500	-1.680
2020/01/31 16:24:54.3	358.830	-0.380	-0.450	-1.670
2020/01/31 16:24:54.4	358.850	-0.390	-0.410	-1.670
2020/01/31 16:24:54.5	358.870	-0.390	-0.370	-1.660
2020/01/31 16:24:54.6	358.880	-0.390	-0.320	-1.640
2020/01/31 16:24:54.7	358.890	-0.390	-0.280	-1.610
2020/01/31 16:24:54.8	358.900	-0.380	-0.240	-1.580
2020/01/31 16:24:54.9	358.900	-0.380	-0.190	-1.540
2020/01/31 16:24:55.0	358.890	-0.370	-0.150	-1.500
2020/01/31 16:24:55.1	358.880	-0.370	-0.100	-1.450
2020/01/31 16:24:55.2	358.870	-0.360	-0.050	-1.400
2020/01/31 16:24:55.3	358.850	-0.340	-0.010	-1.340
2020/01/31 16:24:55.4	358.830	-0.330	0.040	-1.280
2020/01/31 16:24:55.5	358.800	-0.320	0.090	-1.210
2020/01/31 16:24:55.6	358.770	-0.310	0.140	-1.130
2020/01/31 16:24:55.7	358.730	-0.290	0.190	-1.060
2020/01/31 16:24:55.8	358.680	-0.270	0.240	-0.970
2020/01/31 16:24:55.9	358.640	-0.260	0.290	-0.890
2020/01/31 16:24:56.0	358.590	-0.240	0.340	-0.790
2020/01/31 16:24:56.1	358.540	-0.220	0.390	-0.700
2020/01/31 16:24:56.2	358.480	-0.200	0.440	-0.610
2020/01/31 16:24:56.3	358.420	-0.180	0.490	-0.510
2020/01/31 16:24:56.4	358.360	-0.160	0.530	-0.410
2020/01/31 16:24:56.5	358.300	-0.130	0.580	-0.310
2020/01/31 16:24:56.6	358.240	-0.110	0.610	-0.210
2020/01/31 16:24:56.7	358.190	-0.090	0.650	-0.110
2020/01/31 16:24:56.8	358.130	-0.070	0.680	-0.020
2020/01/31 16:24:56.9	358.070	-0.040	0.700	0.070
2020/01/31 16:24:57.0	358.010	-0.020	0.720	0.160
2020/01/31 16:24:57.1	357.950	0.000	0.730	0.250
2020/01/31 16:24:57.2	357.890	0.030	0.740	0.330
2020/01/31 16:24:57.3	357.840	0.050	0.740	0.410
2020/01/31 16:24:57.4	357.780	0.070	0.730	0.480
2020/01/31 16:24:57.5	357.730	0.100	0.710	0.540
2020/01/31 16:24:57.6	357.690	0.120	0.690	0.600
2020/01/31 16:24:57.7	357.650	0.140	0.660	0.650
2020/01/31 16:24:57.8	357.610	0.170	0.620	0.690
2020/01/31 16:24:57.9	357.580	0.190	0.570	0.720
2020/01/31 16:24:58.0	357.550	0.210	0.520	0.740
2020/01/31 16:24:58.1	357.520	0.240	0.460	0.760
2020/01/31 16:24:58.2	357.500	0.260	0.390	0.760
2020/01/31 16:24:58.3	357.480	0.280	0.320	0.760
2020/01/31 16:24:58.4	357.470	0.300	0.240	0.750
2020/01/31 16:24:58.5	357.460	0.320	0.160	0.730
2020/01/31 16:24:58.6	357.450	0.340	0.070	0.710
2020/01/31 16:24:58.7	357.460	0.360	-0.020	0.680
2020/01/31 16:24:58.8	357.460	0.370	-0.110	0.640
2020/01/31 16:24:58.9	357.470	0.390	-0.200	0.600
2020/01/31 16:24:59.0	357.480	0.400	-0.300	0.550
2020/01/31 16:24:59.1	357.490	0.410	-0.390	0.500
2020/01/31 16:24:59.2	357.500	0.420	-0.480	0.450
2020/01/31 16:24:59.3	357.520	0.420	-0.570	0.390
2020/01/31 16:24:59.4	357.530	0.430	-0.650	0.330
2020/01/31 16:24:59.5	357.550	0.420	-0.730	0.280
2020/01/31 16:24:59.6	357.570	0.420	-0.800	0.220
2020/01/31 16:24:59.7	357.570	0.410	-0.870	0.160
2020/01/31 16:24:59.8	357.590	0.400	-0.930	0.100
2020/01/31 16:24:59.9	357.610	0.390	-0.980	0.040
2020/01/31 16:25:00.0	357.620	0.370	-1.020	-0.020
2020/01/31 16:25:00.1	357.640	0.350	-1.060	-0.070
2020/01/31 16:25:00.2	357.650	0.320	-1.080	-0.130
2020/01/31 16:25:00.3	357.660	0.290	-1.100	-0.190
2020/01/31 16:25:00.4	357.670	0.260	-1.120	-0.250
2020/01/31 16:25:00.5	357.690	0.230	-1.120	-0.310
2020/01/31 16:25:00.6	357.700	0.190	-1.120	-0.370
2020/01/31 16:25:00.7	357.710	0.150	-1.110	-0.430
2020/01/31 16:25:00.8	357.720	0.110	-1.090	-0.490
2020/01/31 16:25:00.9	357.730	0.070	-1.070	-0.540
2020/01/31 16:25:01.0	357.740	0.030	-1.040	-0.600
2020/01/31 16:25:01.1	357.750	-0.020	-1.010	-0.660
2020/01/31 16:25:01.2	357.760	-0.060	-0.970	-0.710
2020/01/31 16:25:01.3	357.770	-0.100	-0.930	-0.760
2020/01/31 16:25:01.4	357.790	-0.140	-0.880	-0.820
2020/01/31 16:25:01.5	357.800	-0.180	-0.840	-0.860
2020/01/31 16:25:01.6	357.810	-0.220	-0.790	-0.910
2020/01/31 16:25:01.7	357.820	-0.260	-0.740	-0.960
2020/01/31 16:25:01.8	357.840	-0.290	-0.690	-1.000
2020/01/31 16:25:01.9	357.850	-0.320	-0.630	-1.030
2020/01/31 16:25:02.0	357.860	-0.350	-0.580	-1.060
2020/01/31 16:25:02.1	357.880	-0.370	-0.520	-1.090
2020/01/31 16:25:02.2	357.890	-0.390	-0.470	-1.110
2020/01/31 16:25:02.3	357.900	-0.410	-0.410	-1.120
2020/01/31 16:25:02.4	357.910	-0.420	-0.350	-1.130
2020/01/31 16:25:02.5	357.920	-0.430	-0.290	-1.130
2020/01/31 16:25:02.6	357.930	-0.430	-0.240	-1.130
2020/01/31 16:25:02.7	357.930	-0.430	-0.180	-1.120
2020/01/31 16:25:02.8	357.930	-0.420	-0.120	-1.100
2020/01/31 16:25:02.9	357.940	-0.420	-0.070	-1.080
2020/01/31 16:25:03.0	357.930	-0.410	-0.010	-1.060
2020/01/31 16:25:03.1	357.930	-0.390	0.040	-1.030
2020/01/31 16:25:03.2	357.930	-0.370	0.090	-0.990
2020/01/31 16:25:03.3	357.920	-0.350	0.140	-0.960
2020/01/31 16:25:03.4	357.910	-0.330	0.190	-0.920
2020/01/31 16:25:03.5	357.910	-0.300	0.230	-0.870
2020/01/31 16:25:03.6	357.890	-0.270	0.270	-0.830
2020/01/31 16:25:03.7	357.880	-0.240	0.300	-0.780
2020/01/31 16:25:03.8	357.860	-0.210	0.330	-0.730
2020/01/31 16:25:03.9	357.850	-0.180	0.350	-0.680
2020/01/31 16:25:04.0	357.840	-0.140	0.370	-0.630
2020/01/31 16:25:04.1	357.830	-0.110	0.380	-0.580
2020/01/31 16:25:04.2	357.810	-0.070	0.390	-0.530
2020/01/31 16:25:04.3	357.800	-0.040	0.390	-0.480
2020/01/31 16:25:04.4	357.790	0.000	0.380	-0.430
2020/01/31 16:25:04.5	357.770	0.040	0.370	-0.390
2020/01/31 16:25:04.6	357.760	0.070	0.350	-0.340
2020/01/31 16:25:04.7	357.740	0.110	0.330	-0.300
2020/01/31 16:25:04.8	357.730	0.140	0.300	-0.260
2020/01/31 16:25:04.9	357.720	0.170	0.260	-0.220
2020/01/31 16:25:05.0	357.710	0.200	0.220	-0.190
2020/01/31 16:25:05.1	357.700	0.230	0.180	-0.160
2020/01/31 16:25:05.2	357.690	0.260	0.130	-0.130
2020/01/31 16:25:05.3	357.680	0.280	0.080	-0.100
2020/01/31 16:25:05.4	357.670	0.310	0.020	-0.080
2020/01/31 16:25:05.5	357.660	0.330	-0.040	-0.060
2020/01/31 16:25:05.6	357.660	0.340	-0.100	-0.050
2020/01/31 16:25:05.7	357.660	0.360	-0.160	-0.040
2020/01/31 16:25:05.8	357.650	0.370	-0.220	-0.040
2020/01/31 16:25:05.9	357.650	0.380	-0.290	-0.040
2020/01/31 16:25:06.0	357.660	0.390	-0.350	-0.040
2020/01/31 16:25:06.1	357.660	0.390	-0.410	-0.050
2020/01/31 16:25:06.2	357.670	0.390	-0.470	-0.060
2020/01/31 16:25:06.3	357.670	0.390	-0.530	-0.070
2020/01/31 16:25:06.4	357.680	0.380	-0.580	-0.090
2020/01/31 16:25:06.5	357.690	0.380	-0.640	-0.110
2020/01/31 16:25:06.6	357.710	0.370	-0.680	-0.130
2020/01/31 16:25:06.7	357.730	0.360	-0.730	-0.150
2020/01/31 16:25:06.8	357.750	0.340	-0.760	-0.180
2020/01/31 16:25:06.9	357.760	0.330	-0.800	-0.200
2020/01/31 16:25:07.0	357.780	0.310	-0.820	-0.230
2020/01/31 16:25:07.1	357.790	0.290	-0.840	-0.250
2020/01/31 16:25:07.2	357.810	0.270	-0.850	-0.280
2020/01/31 16:25:07.3	357.820	0.250	-0.860	-0.310
2020/01/31 16:25:07.4	357.840	0.220	-0.850	-0.330
2020/01/31 16:25:07.5	357.850	0.200	-0.840	-0.360
2020/01/31 16:25:07.6	357.860	0.170	-0.820	-0.380
2020/01/31 16:25:07.7	357.870	0.140	-0.790	-0.410
2020/01/31 16:25:07.8	357.870	0.110	-0.760	-0.430
2020/01/31 16:25:07.9	357.880	0.070	-0.710	-0.450
2020/01/31 16:25:08.0	357.880	0.040	-0.660	-0.460
2020/01/31 16:25:08.1	357.880	0.010	-0.610	-0.480
2020/01/31 16:25:08.2	357.870	-0.030	-0.540	-0.490
2020/01/31 16:25:08.3	357.860	-0.060	-0.480	-0.500
2020/01/31 16:25:08.4	357.860	-0.090	-0.400	-0.500
2020/01/31 16:25:08.5	357.840	-0.130	-0.330	-0.500
2020/01/31 16:25:08.6	357.830	-0.160	-0.250	-0.500
2020/01/31 16:25:08.7	357.820	-0.200	-0.160	-0.490
2020/01/31 16:25:08.8	357.800	-0.230	-0.080	-0.490
2020/01/31 16:25:08.9	357.780	-0.260	-0.000	-0.470
2020/01/31 16:25:09.0	357.760	-0.290	0.080	-0.460
2020/01/31 16:25:09.1	357.740	-0.320	0.160	-0.440
2020/01/31 16:25:09.2	357.720	-0.350	0.230	-0.430
2020/01/31 16:25:09.3	357.700	-0.370	0.300	-0.410
2020/01/31 16:25:09.4	357.670	-0.390	0.370	-0.390
2020/01/31 16:25:09.5	357.650	-0.420	0.420	-0.370
2020/01/31 16:25:09.6	357.630	-0.430	0.470	-0.350
2020/01/31 16:25:09.7	357.600	-0.450	0.520	-0.330
2020/01/31 16:25:09.8	357.580	-0.460	0.550	-0.310
2020/01/31 16:25:09.9	357.560	-0.470	0.580	-0.290
2020/01/31 16:25:10.0	357.540	-0.480	0.600	-0.270
2020/01/31 16:25:10.1	357.520	-0.490	0.600	-0.260
2020/01/31 16:25:10.2	357.500	-0.490	0.600	-0.250
2020/01/31 16:25:10.3	357.490	-0.490	0.590	-0.240
2020/01/31 16:25:10.4	357.470	-0.480	0.570	-0.230
2020/01/31 16:25:10.5	357.450	-0.480	0.540	-0.220
2020/01/31 16:25:10.6	357.440	-0.470	0.510	-0.220
2020/01/31 16:25:10.7	357.420	-0.450	0.460	-0.220
2020/01/31 16:25:10.8	357.410	-0.440	0.410	-0.220
2020/01/31 16:25:10.9	357.400	-0.420	0.350	-0.230
2020/01/31 16:25:11.0	357.380	-0.400	0.290	-0.230
2020/01/31 16:25:11.1	357.370	-0.370	0.220	-0.240
2020/01/31 16:25:11.2	357.360	-0.340	0.140	-0.250
2020/01/31 16:25:11.3	357.360	-0.310	0.060	-0.260
2020/01/31 16:25:11.4	357.350	-0.280	-0.020	-0.270
2020/01/31 16:25:11.5	357.340	-0.240	-0.110	-0.280
2020/01/31 16:25:11.6	357.340	-0.200	-0.190	-0.300
2020/01/31 16:25:11.7	357.340	-0.160	-0.280	-0.320
2020/01/31 16:25:11.8	357.340	-0.120	-0.370	-0.340
2020/01/31 16:25:11.9	357.350	-0.080	-0.460	-0.350
2020/01/31 16:25:12.0	357.350	-0.040	-0.540	-0.380
2020/01/31 16:25:12.1	357.360	0.000	-0.630	-0.400
2020/01/31 16:25:12.2	357.370	0.050	-0.720	-0.420
2020/01/31 16:25:12.3	357.380	0.090	-0.800	-0.440
2020/01/31 16:25:12.4	357.390	0.130	-0.880	-0.470
2020/01/31 16:25:12.5	357.410	0.170	-0.950	-0.490
2020/01/31 16:25:12.6	357.430	0.220	-1.020	-0.510
2020/01/31 16:25:12.7	357.460	0.250	-1.090	-0.540
2020/01/31 16:25:12.8	357.480	0.290	-1.150	-0.560
2020/01/31 16:25:12.9	357.510	0.330	-1.200	-0.580
2020/01/31 16:25:13.0	357.530	0.360	-1.250	-0.600
2020/01/31 16:25:13.1	357.560	0.390	-1.280	-0.620
2020/01/31 16:25:13.2	357.590	0.410	-1.320	-0.640
2020/01/31 16:25:13.3	357.620	0.440	-1.340	-0.650
2020/01/31 16:25:13.4	357.640	0.460	-1.350	-0.670
2020/01/31 16:25:13.5	357.670	0.470	-1.360	-0.680
2020/01/31 16:25:13.6	357.700	0.480	-1.360	-0.700
2020/01/31 16:25:13.7	357.730	0.490	-1.350	-0.710
2020/01/31 16:25:13.8	357.750	0.500	-1.340	-0.720
2020/01/31 16:25:13.9	357.780	0.500	-1.310	-0.730
2020/01/31 16:25:14.0	357.810	0.500	-1.280	-0.730
2020/01/31 16:25:14.1	357.840	0.490	-1.240	-0.740
2020/01/31 16:25:14.2	357.870	0.480	-1.190	-0.740
2020/01/31 16:25:14.3	357.890	0.470	-1.140	-0.740
2020/01/31 16:25:14.4	357.920	0.450	-1.080	-0.730
2020/01/31 16:25:14.5	357.940	0.430	-1.020	-0.730
2020/01/31 16:25:14.6	357.970	0.410	-0.950	-0.720
2020/01/31 16:25:14.7	358.000	0.390	-0.870	-0.710
2020/01/31 16:25:14.8	358.020	0.370	-0.790	-0.700
2020/01/31 16:25:14.9	358.040	0.340	-0.710	-0.680
2020/01/31 16:25:15.0	358.060	0.310	-0.630	-0.660
2020/01/31 16:25:15.1	358.080	0.290	-0.540	-0.640
2020/01/31 16:25:15.2	358.100	0.260	-0.450	-0.620
2020/01/31 16:25:15.3	358.120	0.230	-0.360	-0.590
2020/01/31 16:25:15.4	358.130	0.200	-0.270	-0.570
2020/01/31 16:25:15.5	358.140	0.170	-0.180	-0.540
2020/01/31 16:25:15.6	358.150	0.140	-0.090	-0.500
2020/01/31 16:25:15.7	358.150	0.110	-0.000	-0.470
2020/01/31 16:25:15.8	358.160	0.080	0.080	-0.440
2020/01/31 16:25:15.9	358.170	0.050	0.170	-0.400
2020/01/31 16:25:16.0	358.170	0.020	0.250	-0.370
2020/01/31 16:25:16.1	358.170	-0.010	0.320	-0.330
2020/01/31 16:25:16.2	358.170	-0.030	0.400	-0.290
2020/01/31 16:25:16.3	358.170	-0.060	0.460	-0.260
2020/01/31 16:25:16.4	358.170	-0.080	0.530	-0.220
2020/01/31 16:25:16.5	358.160	-0.110	0.580	-0.190
2020/01/31 16:25:16.6	358.160	-0.130	0.640	-0.160
2020/01/31 16:25:16.7	358.140	-0.150	0.690	-0.120
2020/01/31 16:25:16.8	358.130	-0.170	0.730	-0.100
2020/01/31 16:25:16.9	358.120	-0.190	0.760	-0.070
2020/01/31 16:25:17.0	358.110	-0.200	0.790	-0.050
2020/01/31 16:25:17.1	358.100	-0.220	0.810	-0.030
2020/01/31 16:25:17.2	358.090	-0.240	0.830	-0.020
2020/01/31 16:25:17.3	358.080	-0.250	0.830	-0.000
2020/01/31 16:25:17.4	358.070	-0.260	0.840	0.010
2020/01/31 16:25:17.5	358.060	-0.270	0.830	0.020
2020/01/31 16:25:17.6	358.040	-0.280	0.830	0.030
2020/01/31 16:25:17.7	358.020	-0.290	0.820	0.030
2020/01/31 16:25:17.8	358.010	-0.300	0.800	0.030
2020/01/31 16:25:17.9	357.990	-0.310	0.770	0.040
2020/01/31 16:25:18.0	357.980	-0.310	0.750	0.040
2020/01/31 16:25:18.1	357.960	-0.320	0.720	0.040
2020/01/31 16:25:18.2	357.940	-0.320	0.680	0.040
2020/01/31 16:25:18.3	357.930	-0.320	0.640	0.050
2020/01/31 16:25:18.4	357.910	-0.320	0.600	0.050
2020/01/31 16:25:18.5	357.890	-0.320	0.550	0.050
2020/01/31 16:25:18.6	357.870	-0.320	0.510	0.050
2020/01/31 16:25:18.7	357.840	-0.320	0.450	0.050
2020/01/31 16:25:18.8	357.820	-0.320	0.400	0.050
2020/01/31 16:25:18.9	357.790	-0.310	0.350	0.050
2020/01/31 16:25:19.0	357.770	-0.310	0.290	0.050
2020/01/31 16:25:19.1	357.740	-0.300	0.230	0.050
2020/01/31 16:25:19.2	357.710	-0.290	0.180	0.050
2020/01/31 16:25:19.3	357.680	-0.280	0.120	0.050
2020/01/31 16:25:19.4	357.650	-0.270	0.060	0.050
2020/01/31 16:25:19.5	357.620	-0.260	0.000	0.050
2020/01/31 16:25:19.6	357.590	-0.250	-0.060	0.050
2020/01/31 16:25:19.7	357.560	-0.230	-0.110	0.050
2020/01/31 16:25:19.8	357.530	-0.210	-0.160	0.040
2020/01/31 16:25:19.9	357.500	-0.200	-0.220	0.030
2020/01/31 16:25:20.0	357.470	-0.180	-0.270	0.030
2020/01/31 16:25:20.1	357.440	-0.160	-0.320	0.020
2020/01/31 16:25:20.2	357.410	-0.130	-0.370	0.010
2020/01/31 16:25:20.3	357.380	-0.110	-0.420	0.000
2020/01/31 16:25:20.4	357.350	-0.080	-0.460	-0.010
2020/01/31 16:25:20.5	357.320	-0.050	-0.500	-0.020
2020/01/31 16:25:20.6	357.290	-0.030	-0.540	-0.020
2020/01/31 16:25:20.7	357.270	0.010	-0.580	-0.040
2020/01/31 16:25:20.8	357.250	0.040	-0.620	-0.050
2020/01/31 16:25:20.9	357.230	0.070	-0.650	-0.050
2020/01/31 16:25:21.0	357.210	0.100	-0.680	-0.060
2020/01/31 16:25:21.1	357.200	0.140	-0.710	-0.070
2020/01/31 16:25:21.2	357.180	0.170	-0.730	-0.080
2020/01/31 16:25:21.3	357.170	0.210	-0.750	-0.080
2020/01/31 16:25:21.4	357.160	0.250	-0.780	-0.090
2020/01/31 16:25:21.5	357.160	0.280	-0.790	-0.100
2020/01/31 16:25:21.6	357.150	0.320	-0.810	-0.110
2020/01/31 16:25:21.7	357.160	0.350	-0.820	-0.110
2020/01/31 16:25:21.8	357.160	0.380	-0.840	-0.120
2020/01/31 16:25:21.9	357.170	0.410	-0.850	-0.130
2020/01/31 16:25:22.0	357.170	0.440	-0.860	-0.140
2020/01/31 16:25:22.1	357.180	0.470	-0.870	-0.150
2020/01/31 16:25:22.2	357.190	0.490	-0.880	-0.160
2020/01/31 16:25:22.3	357.200	0.510	-0.880	-0.170
2020/01/31 16:25:22.4	357.220	0.530	-0.890	-0.190
2020/01/31 16:25:22.5	357.240	0.540	-0.890	-0.200
2020/01/31 16:25:22.6	357.260	0.550	-0.890	-0.220
2020/01/31 16:25:22.7	357.270	0.560	-0.900	-0.240
2020/01/31 16:25:22.8	357.300	0.560	-0.900	-0.260
2020/01/31 16:25:22.9	357.320	0.560	-0.900	-0.280
2020/01/31 16:25:23.0	357.350	0.550	-0.900	-0.310
2020/01/31 16:25:23.1	357.380	0.540	-0.900	-0.330
2020/01/31 16:25:23.2	357.410	0.520	-0.890	-0.360
2020/01/31 16:25:23.3	357.440	0.500	-0.890	-0.390
2020/01/31 16:25:23.4	357.480	0.480	-0.890	-0.430
2020/01/31 16:25:23.5	357.510	0.450	-0.880	-0.460
2020/01/31 16:25:23.6	357.550	0.420	-0.880	-0.500
2020/01/31 16:25:23.7	357.580	0.390	-0.870	-0.540
2020/01/31 16:25:23.8	357.620	0.350	-0.870	-0.580
2020/01/31 16:25:23.9	357.660	0.310	-0.860	-0.620
2020/01/31 16:25:24.0	357.700	0.270	-0.860	-0.660
2020/01/31 16:25:24.1	357.750	0.220	-0.850	-0.710
2020/01/31 16:25:24.2	357.790	0.170	-0.850	-0.760
2020/01/31 16:25:24.3	357.840	0.120	-0.840	-0.800
2020/01/31 16:25:24.4	357.880	0.070	-0.830	-0.850
2020/01/31 16:25:24.5	357.930	0.020	-0.830	-0.900
2020/01/31 16:25:24.6	357.980	-0.030	-0.820	-0.950
2020/01/31 16:25:24.7	358.040	-0.080	-0.810	-1.000
2020/01/31 16:25:24.8	358.090	-0.130	-0.800	-1.040
2020/01/31 16:25:24.9	358.140	-0.180	-0.790	-1.090
2020/01/31 16:25:25.0	358.190	-0.230	-0.770	-1.130
2020/01/31 16:25:25.1	358.240	-0.270	-0.760	-1.180
2020/01/31 16:25:25.2	358.280	-0.320	-0.740	-1.220
2020/01/31 16:25:25.3	358.330	-0.360	-0.720	-1.250
2020/01/31 16:25:25.4	358.370	-0.400	-0.700	-1.280
2020/01/31 16:25:25.5	358.410	-0.440	-0.670	-1.310
2020/01/31 16:25:25.6	358.450	-0.480	-0.640	-1.330
2020/01/31 16:25:25.7	358.480	-0.510	-0.600	-1.360
2020/01/31 16:25:25.8	358.510	-0.540	-0.560	-1.370
2020/01/31 16:25:25.9	358.540	-0.570	-0.520	-1.380
2020/01/31 16:25:26.0	358.560	-0.590	-0.470	-1.380
2020/01/31 16:25:26.1	358.580	-0.610	-0.410	-1.380
2020/01/31 16:25:26.2	358.590	-0.620	-0.350	-1.370
2020/01/31 16:25:26.3	358.610	-0.630	-0.290	-1.360
2020/01/31 16:25:26.4	358.610	-0.640	-0.220	-1.340
2020/01/31 16:25:26.5	358.610	-0.640	-0.150	-1.310
2020/01/31 16:25:26.6	358.610	-0.640	-0.080	-1.280
2020/01/31 16:25:26.7	358.600	-0.630	0.000	-1.250
2020/01/31 16:25:26.8	358.590	-0.620	0.080	-1.210
2020/01/31 16:25:26.9	358.570	-0.610	0.160	-1.160
2020/01/31 16:25:27.0	358.560	-0.590	0.240	-1.110
2020/01/31 16:25:27.1	358.530	-0.570	0.330	-1.050
2020/01/31 16:25:27.2	358.510	-0.550	0.410	-0.990
2020/01/31 16:25:27.3	358.480	-0.520	0.490	-0.930
2020/01/31 16:25:27.4	358.440	-0.500	0.570	-0.860
2020/01/31 16:25:27.5	358.410	-0.460	0.650	-0.790
2020/01/31 16:25:27.6	358.370	-0.430	0.720	-0.720
2020/01/31 16:25:27.7	358.310	-0.390	0.780	-0.640
2020/01/31 16:25:27.8	358.260	-0.360	0.850	-0.560
2020/01/31 16:25:27.9	358.210	-0.320	0.910	-0.480
2020/01/31 16:25:28.0	358.160	-0.280	0.960	-0.390
2020/01/31 16:25:28.1	358.110	-0.240	1.010	-0.310
2020/01/31 16:25:28.2	358.060	-0.200	1.050	-0.220
2020/01/31 16:25:28.3	358.000	-0.150	1.080	-0.140
2020/01/31 16:25:28.4	357.940	-0.110	1.100	-0.050
2020/01/31 16:25:28.5	357.890	-0.070	1.120	0.030
2020/01/31 16:25:28.6	357.830	-0.030	1.120	0.110
2020/01/31 16:25:28.7	357.770	0.010	1.120	0.180
2020/01/31 16:25:28.8	357.720	0.060	1.110	0.250
2020/01/31 16:25:28.9	357.670	0.100	1.090	0.310
2020/01/31 16:25:29.0	357.620	0.140	1.060	0.370
2020/01/31 16:25:29.1	357.580	0.170	1.010	0.420
2020/01/31 16:25:29.2	357.530	0.210	0.960	0.460
2020/01/31 16:25:29.3	357.490	0.250	0.900	0.500
2020/01/31 16:25:29.4	357.460	0.280	0.830	0.530
2020/01/31 16:25:29.5	357.430	0.320	0.760	0.550
2020/01/31 16:25:29.6	357.400	0.350	0.670	0.570
2020/01/31 16:25:29.7	357.370	0.380	0.580	0.580
2020/01/31 16:25:29.8	357.350	0.400	0.480	0.580
2020/01/31 16:25:29.9	357.330	0.430	0.380	0.570
2020/01/31 16:25:30.0	357.310	0.450	0.280	0.560
2020/01/31 16:25:30.1	357.300	0.470	0.170	0.550
2020/01/31 16:25:30.2	357.290	0.490	0.060	0.530
2020/01/31 16:25:30.3	357.280	0.510	-0.050	0.500
2020/01/31 16:25:30.4	357.280	0.520	-0.160	0.470
2020/01/31 16:25:30.5	357.280	0.530	-0.270	0.440
2020/01/31 16:25:30.6	357.270	0.540	-0.370	0.410
2020/01/31 16:25:30.7	357.280	0.550	-0.470	0.370
2020/01/31 16:25:30.8	357.280	0.550	-0.570	0.340
2020/01/31 16:25:30.9	357.290	0.540	-0.660	0.300
2020/01/31 16:25:31.0	357.290	0.540	-0.740	0.260
2020/01/31 16:25:31.1	357.290	0.530	-0.820	0.220
2020/01/31 16:25:31.2	357.290	0.510	-0.890	0.190
2020/01/31 16:25:31.3	357.290	0.500	-0.950	0.150
2020/01/31 16:25:31.4	357.300	0.480	-1.010	0.110
2020/01/31 16:25:31.5	357.300	0.450	-1.050	0.060
2020/01/31 16:25:31.6	357.300	0.430	-1.090	0.020
2020/01/31 16:25:31.7	357.320	0.400	-1.120	-0.010
2020/01/31 16:25:31.8	357.320	0.370	-1.140	-0.050
2020/01/31 16:25:31.9	357.330	0.330	-1.150	-0.100
2020/01/31 16:25:32.0	357.330	0.300	-1.160	-0.140
2020/01/31 16:25:32.1	357.340	0.260	-1.160	-0.180
2020/01/31 16:25:32.2	357.350	0.220	-1.150	-0.220
2020/01/31 16:25:32.3	357.350	0.180	-1.140	-0.270
2020/01/31 16:25:32.4	357.370	0.140	-1.120	-0.310
2020/01/31 16:25:32.5	357.380	0.100	-1.110	-0.360
2020/01/31 16:25:32.6	357.390	0.060	-1.080	-0.400
2020/01/31 16:25:32.7	357.410	0.030	-1.060	-0.450
2020/01/31 16:25:32.8	357.430	-0.010	-1.030	-0.500
2020/01/31 16:25:32.9	357.440	-0.050	-1.000	-0.550
2020/01/31 16:25:33.0	357.460	-0.090	-0.970	-0.590
2020/01/31 16:25:33.1	357.480	-0.120	-0.930	-0.640
2020/01/31 16:25:33.2	357.510	-0.150	-0.900	-0.680
2020/01/31 16:25:33.3	357.530	-0.180	-0.870	-0.720
2020/01/31 16:25:33.4	357.550	-0.210	-0.840	-0.770
2020/01/31 16:25:33.5	357.580	-0.230	-0.800	-0.810
2020/01/31 16:25:33.6	357.610	-0.250	-0.770	-0.850
2020/01/31 16:25:33.7	357.640	-0.270	-0.740	-0.890
2020/01/31 16:25:33.8	357.670	-0.290	-0.720	-0.930
2020/01/31 16:25:33.9	357.710	-0.300	-0.690	-0.970
2020/01/31 16:25:34.0	357.740	-0.310	-0.660	-1.010
2020/01/31 16:25:34.1	357.780	-0.320	-0.640	-1.050
2020/01/31 16:25:34.2	357.810	-0.320	-0.620	-1.090
2020/01/31 16:25:34.3	357.850	-0.320	-0.600	-1.130
2020/01/31 16:25:34.4	357.890	-0.320	-0.580	-1.160
2020/01/31 16:25:34.5	357.940	-0.320	-0.570	-1.200
2020/01/31 16:25:34.6	357.980	-0.310	-0.550	-1.240
2020/01/31 16:25:34.7	358.010	-0.300	-0.540	-1.280
2020/01/31 16:25:34.8	358.050	-0.290	-0.530	-1.310
2020/01/31 16:25:34.9	358.100	-0.280	-0.520	-1.340
2020/01/31 16:25:35.0	358.140	-0.270	-0.510	-1.370
2020/01/31 16:25:35.1	358.180	-0.250	-0.510	-1.400
2020/01/31 16:25:35.2	358.220	-0.240	-0.500	-1.430
2020/01/31 16:25:35.3	358.260	-0.220	-0.490	-1.450
2020/01/31 16:25:35.4	358.290	-0.210	-0.480	-1.470
2020/01/31 16:25:35.5	358.320	-0.190	-0.470	-1.480
2020/01/31 16:25:35.6	358.350	-0.180	-0.450	-1.490
2020/01/31 16:25:35.7	358.400	-0.170	-0.440	-1.490
2020/01/31 16:25:35.8	358.420	-0.150	-0.420	-1.490
2020/01/31 16:25:35.9	358.440	-0.140	-0.400	-1.480
2020/01/31 16:25:36.0	358.460	-0.130	-0.380	-1.460
2020/01/31 16:25:36.1	358.470	-0.120	-0.350	-1.440
2020/01/31 16:25:36.2	358.480	-0.110	-0.330	-1.420
2020/01/31 16:25:36.3	358.480	-0.100	-0.290	-1.380
2020/01/31 16:25:36.4	358.480	-0.090	-0.260	-1.350
2020/01/31 16:25:36.5	358.480	-0.090	-0.220	-1.300
2020/01/31 16:25:36.6	358.480	-0.080	-0.180	-1.260
2020/01/31 16:25:36.7	358.470	-0.080	-0.140	-1.200
2020/01/31 16:25:36.8	358.450	-0.080	-0.100	-1.150
2020/01/31 16:25:36.9	358.440	-0.080	-0.050	-1.090
2020/01/31 16:25:37.0	358.420	-0.080	-0.010	-1.020
2020/01/31 16:25:37.1	358.400	-0.090	0.040	-0.960
2020/01/31 16:25:37.2	358.380	-0.090	0.090	-0.890
2020/01/31 16:25:37.3	358.360	-0.100	0.130	-0.820
2020/01/31 16:25:37.4	358.330	-0.100	0.180	-0.750
2020/01/31 16:25:37.5	358.300	-0.110	0.220	-0.680
2020/01/31 16:25:37.6	358.270	-0.110	0.260	-0.610
2020/01/31 16:25:37.7	358.230	-0.120	0.310	-0.540
2020/01/31 16:25:37.8	358.200	-0.130	0.350	-0.470
2020/01/31 16:25:37.9	358.160	-0.130	0.380	-0.390
2020/01/31 16:25:38.0	358.120	-0.140	0.410	-0.320
2020/01/31 16:25:38.1	358.080	-0.140	0.440	-0.250
2020/01/31 16:25:38.2	358.030	-0.150	0.460	-0.180
2020/01/31 16:25:38.3	357.980	-0.150	0.480	-0.110
2020/01/31 16:25:38.4	357.930	-0.150	0.500	-0.050
2020/01/31 16:25:38.5	357.880	-0.150	0.510	0.020
2020/01/31 16:25:38.6	357.830	-0.150	0.510	0.080
2020/01/31 16:25:38.7	357.770	-0.150	0.510	0.140
2020/01/31 16:25:38.8	357.720	-0.140	0.510	0.200
2020/01/31 16:25:38.9	357.670	-0.130	0.500	0.250
2020/01/31 16:25:39.0	357.620	-0.120	0.480	0.300
2020/01/31 16:25:39.1	357.570	-0.110	0.460	0.350
2020/01/31 16:25:39.2	357.520	-0.100	0.440	0.390
2020/01/31 16:25:39.3	357.470	-0.080	0.410	0.440
2020/01/31 16:25:39.4	357.420	-0.060	0.370	0.470
2020/01/31 16:25:39.5	357.380	-0.040	0.330	0.510
2020/01/31 16:25:39.6	357.340	-0.010	0.290	0.530
2020/01/31 16:25:39.7	357.310	0.010	0.240	0.550
2020/01/31 16:25:39.8	357.280	0.040	0.190	0.570
2020/01/31 16:25:39.9	357.250	0.070	0.130	0.580
2020/01/31 16:25:40.0	357.230	0.100	0.070	0.590
2020/01/31 16:25:40.1	357.200	0.130	0.010	0.590
2020/01/31 16:25:40.2	357.180	0.160	-0.060	0.590
2020/01/31 16:25:40.3	357.170	0.190	-0.120	0.590
2020/01/31 16:25:40.4	357.150	0.220	-0.190	0.570
2020/01/31 16:25:40.5	357.140	0.260	-0.260	0.560
2020/01/31 16:25:40.6	357.130	0.290	-0.330	0.540
2020/01/31 16:25:40.7	357.130	0.320	-0.400	0.510
2020/01/31 16:25:40.8	357.130	0.340	-0.470	0.480
2020/01/31 16:25:40.9	357.130	0.370	-0.540	0.440
2020/01/31 16:25:41.0	357.130	0.400	-0.600	0.400
2020/01/31 16:25:41.1	357.140	0.420	-0.660	0.360
2020/01/31 16:25:41.2	357.150	0.440	-0.720	0.310
2020/01/31 16:25:41.3	357.160	0.460	-0.770	0.260
2020/01/31 16:25:41.4	357.170	0.480	-0.820	0.210
2020/01/31 16:25:41.5	357.190	0.490	-0.860	0.160
2020/01/31 16:25:41.6	357.210	0.500	-0.900	0.100
2020/01/31 16:25:41.7	357.230	0.510	-0.930	0.040
2020/01/31 16:25:41.8	357.250	0.520	-0.960	-0.010
2020/01/31 16:25:41.9	357.270	0.520	-0.980	-0.060
2020/01/31 16:25:42.0	357.300	0.520	-0.990	-0.110
2020/01/31 16:25:42.1	357.320	0.520	-1.000	-0.160
2020/01/31 16:25:42.2	357.340	0.510	-1.000	-0.210
2020/01/31 16:25:42.3	357.370	0.500	-0.990	-0.250
2020/01/31 16:25:42.4	357.390	0.490	-0.970	-0.290
2020/01/31 16:25:42.5	357.420	0.470	-0.950	-0.330
2020/01/31 16:25:42.6	357.440	0.450	-0.920	-0.370
2020/01/31 16:25:42.7	357.470	0.430	-0.880	-0.400
2020/01/31 16:25:42.8	357.490	0.410	-0.840	-0.430
2020/01/31 16:25:42.9	357.510	0.390	-0.790	-0.460
2020/01/31 16:25:43.0	357.530	0.360	-0.740	-0.480
2020/01/31 16:25:43.1	357.550	0.330	-0.680	-0.500
2020/01/31 16:25:43.2	357.580	0.300	-0.620	-0.520
2020/01/31 16:25:43.3	357.590	0.270	-0.560	-0.530
2020/01/31 16:25:43.4	357.610	0.240	-0.490	-0.540
2020/01/31 16:25:43.5	357.630	0.200	-0.420	-0.550
2020/01/31 16:25:43.6	357.650	0.170	-0.360	-0.560
2020/01/31 16:25:43.7	357.660	0.140	-0.290	-0.560
2020/01/31 16:25:43.8	357.670	0.100	-0.220	-0.560
2020/01/31 16:25:43.9	357.690	0.070	-0.160	-0.560
2020/01/31 16:25:44.0	357.700	0.040	-0.090	-0.560
2020/01/31 16:25:44.1	357.710	0.000	-0.030	-0.560
2020/01/31 16:25:44.2	357.720	-0.030	0.030	-0.550
2020/01/31 16:25:44.3	357.730	-0.060	0.080	-0.550
2020/01/31 16:25:44.4	357.740	-0.090	0.140	-0.540
2020/01/31 16:25:44.5	357.750	-0.120	0.190	-0.530
2020/01/31 16:25:44.6	357.750	-0.160	0.230	-0.530
2020/01/31 16:25:44.7	357.750	-0.180	0.270	-0.520
2020/01/31 16:25:44.8	357.750	-0.210	0.300	-0.510
2020/01/31 16:25:44.9	357.750	-0.240	0.330	-0.500
2020/01/31 16:25:45.0	357.750	-0.270	0.350	-0.500
2020/01/31 16:25:45.1	357.750	-0.300	0.370	-0.490
2020/01/31 16:25:45.2	357.750	-0.320	0.390	-0.490
2020/01/31 16:25:45.3	357.740	-0.340	0.390	-0.480
2020/01/31 16:25:45.4	357.740	-0.370	0.400	-0.480
2020/01/31 16:25:45.5	357.730	-0.390	0.390	-0.470
2020/01/31 16:25:45.6	357.720	-0.410	0.380	-0.470
2020/01/31 16:25:45.7	357.710	-0.430	0.370	-0.460
2020/01/31 16:25:45.8	357.710	-0.440	0.350	-0.460
2020/01/31 16:25:45.9	357.700	-0.460	0.330	-0.460
2020/01/31 16:25:46.0	357.690	-0.480	0.300	-0.450
2020/01/31 16:25:46.1	357.680	-0.490	0.270	-0.450
2020/01/31 16:25:46.2	357.670	-0.500	0.230	-0.450
2020/01/31 16:25:46.3	357.660	-0.510	0.200	-0.450
2020/01/31 16:25:46.4	357.650	-0.520	0.150	-0.450
2020/01/31 16:25:46.5	357.640	-0.530	0.110	-0.450
2020/01/31 16:25:46.6	357.630	-0.540	0.060	-0.460
2020/01/31 16:25:46.7	357.600	-0.540	0.010	-0.460
2020/01/31 16:25:46.8	357.590	-0.550	-0.040	-0.470
2020/01/31 16:25:46.9	357.580	-0.550	-0.090	-0.480
2020/01/31 16:25:47.0	357.570	-0.550	-0.150	-0.490
2020/01/31 16:25:47.1	357.560	-0.550	-0.200	-0.500
2020/01/31 16:25:47.2	357.540	-0.540	-0.250	-0.510
2020/01/31 16:25:47.3	357.530	-0.540	-0.300	-0.520
2020/01/31 16:25:47.4	357.520	-0.530	-0.350	-0.540
2020/01/31 16:25:47.5	357.510	-0.520	-0.400	-0.550
2020/01/31 16:25:47.6	357.500	-0.510	-0.450	-0.570
2020/01/31 16:25:47.7	357.480	-0.490	-0.490	-0.580
2020/01/31 16:25:47.8	357.480	-0.470	-0.540	-0.600
2020/01/31 16:25:47.9	357.470	-0.450	-0.580	-0.610
2020/01/31 16:25:48.0	357.460	-0.430	-0.610	-0.630
2020/01/31 16:25:48.1	357.460	-0.400	-0.650	-0.640
2020/01/31 16:25:48.2	357.460	-0.380	-0.680	-0.650
2020/01/31 16:25:48.3	357.450	-0.350	-0.700	-0.660
2020/01/31 16:25:48.4	357.450	-0.310	-0.720	-0.660
2020/01/31 16:25:48.5	357.450	-0.280	-0.740	-0.660
2020/01/31 16:25:48.6	357.450	-0.240	-0.750	-0.660
2020/01/31 16:25:48.7	357.450	-0.200	-0.750	-0.670
2020/01/31 16:25:48.8	357.460	-0.150	-0.750	-0.660
2020/01/31 16:25:48.9	357.460	-0.110	-0.750	-0.650
2020/01/31 16:25:49.0	357.470	-0.060	-0.740	-0.640
2020/01/31 16:25:49.1	357.470	-0.010	-0.720	-0.620
2020/01/31 16:25:49.2	357.480	0.040	-0.700	-0.610
2020/01/31 16:25:49.3	357.490	0.090	-0.680	-0.590
2020/01/31 16:25:49.4	357.490	0.140	-0.650	-0.560
2020/01/31 16:25:49.5	357.500	0.190	-0.620	-0.540
2020/01/31 16:25:49.6	357.510	0.240	-0.590	-0.510
2020/01/31 16:25:49.7	357.510	0.290	-0.560	-0.480
2020/01/31 16:25:49.8	357.520	0.340	-0.520	-0.440
2020/01/31 16:25:49.9	357.520	0.380	-0.480	-0.410
2020/01/31 16:25:50.0	357.530	0.430	-0.450	-0.380
2020/01/31 16:25:50.1	357.540	0.470	-0.410	-0.340
2020/01/31 16:25:50.2	357.540	0.510	-0.370	-0.300
2020/01/31 16:25:50.3	357.550	0.550	-0.340	-0.270
2020/01/31 16:25:50.4	357.560	0.590	-0.310	-0.230
2020/01/31 16:25:50.5	357.560	0.620	-0.270	-0.190
2020/01/31 16:25:50.6	357.570	0.650	-0.240	-0.150
2020/01/31 16:25:50.7	357.570	0.680	-0.210	-0.120
2020/01/31 16:25:50.8	357.580	0.700	-0.190	-0.080
2020/01/31 16:25:50.9	357.580	0.720	-0.160	-0.040
2020/01/31 16:25:51.0	357.580	0.730	-0.140	-0.010
2020/01/31 16:25:51.1	357.580	0.740	-0.120	0.030
2020/01/31 16:25:51.2	357.580	0.750	-0.110	0.060
2020/01/31 16:25:51.3	357.580	0.750	-0.090	0.090
2020/01/31 16:25:51.4	357.580	0.750	-0.080	0.120
2020/01/31 16:25:51.5	357.570	0.740	-0.070	0.140
2020/01/31 16:25:51.6	357.570	0.730	-0.070	0.170
2020/01/31 16:25:51.7	357.550	0.710	-0.070	0.190
2020/01/31 16:25:51.8	357.550	0.690	-0.060	0.200
2020/01/31 16:25:51.9	357.540	0.670	-0.060	0.220
2020/01/31 16:25:52.0	357.530	0.640	-0.060	0.220
2020/01/31 16:25:52.1	357.520	0.610	-0.060	0.230
2020/01/31 16:25:52.2	357.510	0.570	-0.060	0.230
2020/01/31 16:25:52.3	357.500	0.530	-0.070	0.230
2020/01/31 16:25:52.4	357.490	0.490	-0.070	0.220
2020/01/31 16:25:52.5	357.480	0.440	-0.070	0.220
2020/01/31 16:25:52.6	357.460	0.390	-0.080	0.200
2020/01/31 16:25:52.7	357.440	0.340	-0.080	0.180
2020/01/31 16:25:52.8	357.430	0.290	-0.080	0.160
2020/01/31 16:25:52.9	357.420	0.240	-0.090	0.140
2020/01/31 16:25:53.0	357.410	0.180	-0.090	0.120
2020/01/31 16:25:53.1	357.400	0.130	-0.090	0.090
2020/01/31 16:25:53.2	357.390	0.070	-0.100	0.060
2020/01/31 16:25:53.3	357.390	0.010	-0.100	0.030
2020/01/31 16:25:53.4	357.380	-0.040	-0.100	0.000
2020/01/31 16:25:53.5	357.370	-0.100	-0.110	-0.030
2020/01/31 16:25:53.6	357.370	-0.150	-0.110	-0.070
2020/01/31 16:25:53.7	357.360	-0.200	-0.110	-0.110
2020/01/31 16:25:53.8	357.360	-0.260	-0.120	-0.150
2020/01/31 16:25:53.9	357.350	-0.310	-0.130	-0.190
2020/01/31 16:25:54.0	357.350	-0.350	-0.130	-0.240
2020/01/31 16:25:54.1	357.350	-0.400	-0.140	-0.290
2020/01/31 16:25:54.2	357.350	-0.440	-0.150	-0.340
2020/01/31 16:25:54.3	357.360	-0.480	-0.160	-0.390
2020/01/31 16:25:54.4	357.360	-0.520	-0.180	-0.440
2020/01/31 16:25:54.5	357.370	-0.550	-0.190	-0.490
2020/01/31 16:25:54.6	357.380	-0.580	-0.210	-0.550
2020/01/31 16:25:54.7	357.390	-0.610	-0.230	-0.610
2020/01/31 16:25:54.8	357.410	-0.630	-0.250	-0.670
2020/01/31 16:25:54.9	357.420	-0.650	-0.270	-0.730
2020/01/31 16:25:55.0	357.430	-0.660	-0.290	-0.790
2020/01/31 16:25:55.1	357.450	-0.670	-0.320	-0.840
2020/01/31 16:25:55.2	357.470	-0.680	-0.340	-0.900
2020/01/31 16:25:55.3	357.490	-0.690	-0.360	-0.950
2020/01/31 16:25:55.4	357.510	-0.690	-0.390	-1.000
2020/01/31 16:25:55.5	357.530	-0.680	-0.410	-1.050
2020/01/31 16:25:55.6	357.550	-0.680	-0.430	-1.100
2020/01/31 16:25:55.7	357.580	-0.670	-0.450	-1.140
2020/01/31 16:25:55.8	357.600	-0.660	-0.470	-1.180
2020/01/31 16:25:55.9	357.630	-0.640	-0.490	-1.210
2020/01/31 16:25:56.0	357.650	-0.620	-0.500	-1.240
2020/01/31 16:25:56.1	357.670	-0.600	-0.510	-1.260
2020/01/31 16:25:56.2	357.700	-0.580	-0.520	-1.280
2020/01/31 16:25:56.3	357.720	-0.560	-0.530	-1.300
2020/01/31 16:25:56.4	357.740	-0.530	-0.530	-1.310
2020/01/31 16:25:56.5	357.760	-0.510	-0.520	-1.310
2020/01/31 16:25:56.6	357.790	-0.480	-0.520	-1.310
2020/01/31 16:25:56.7	357.790	-0.450	-0.510	-1.310
2020/01/31 16:25:56.8	357.810	-0.420	-0.500	-1.300
2020/01/31 16:25:56.9	357.830	-0.380	-0.480	-1.290
2020/01/31 16:25:57.0	357.850	-0.350	-0.470	-1.270
2020/01/31 16:25:57.1	357.860	-0.320	-0.440	-1.240
2020/01/31 16:25:57.2	357.880	-0.280	-0.420	-1.220
2020/01/31 16:25:57.3	357.890	-0.240	-0.390	-1.180
2020/01/31 16:25:57.4	357.900	-0.210	-0.360	-1.150
2020/01/31 16:25:57.5	357.900	-0.170	-0.330	-1.100
2020/01/31 16:25:57.6	357.910	-0.130	-0.300	-1.060
2020/01/31 16:25:57.7	357.920	-0.090	-0.270	-1.000
2020/01/31 16:25:57.8	357.920	-0.050	-0.230	-0.950
2020/01/31 16:25:57.9	357.920	-0.010	-0.200	-0.890
2020/01/31 16:25:58.0	357.920	0.020	-0.160	-0.830
2020/01/31 16:25:58.1	357.920	0.060	-0.120	-0.760
2020/01/31 16:25:58.2	357.920	0.100	-0.090	-0.690
2020/01/31 16:25:58.3	357.910	0.140	-0.060	-0.620
2020/01/31 16:25:58.4	357.910	0.180	-0.020	-0.540
2020/01/31 16:25:58.5	357.900	0.220	0.010	-0.460
2020/01/31 16:25:58.6	357.900	0.260	0.040	-0.390
2020/01/31 16:25:58.7	357.890	0.290	0.060	-0.310
2020/01/31 16:25:58.8	357.880	0.330	0.080	-0.230
2020/01/31 16:25:58.9	357.870	0.360	0.100	-0.160
2020/01/31 16:25:59.0	357.860	0.400	0.120	-0.080
2020/01/31 16:25:59.1	357.850	0.430	0.130	-0.010
2020/01/31 16:25:59.2	357.830	0.460	0.140	0.060
2020/01/31 16:25:59.3	357.820	0.480	0.140	0.120
2020/01/31 16:25:59.4	357.800	0.510	0.140	0.180
2020/01/31 16:25:59.5	357.790	0.530	0.130	0.240
2020/01/31 16:25:59.6	357.780	0.550	0.120	0.290
2020/01/31 16:25:59.7	357.760	0.570	0.110	0.340
2020/01/31 16:25:59.8	357.750	0.580	0.090	0.380
2020/01/31 16:25:59.9	357.730	0.600	0.060	0.410
2020/01/31 16:26:00.0	357.720	0.610	0.030	0.430
2020/01/31 16:26:00.1	357.710	0.610	0.000	0.450
2020/01/31 16:26:00.2	357.700	0.620	-0.030	0.470
2020/01/31 16:26:00.3	357.690	0.620	-0.070	0.480
2020/01/31 16:26:00.4	357.680	0.620	-0.110	0.480
2020/01/31 16:26:00.5	357.670	0.620	-0.150	0.480
2020/01/31 16:26:00.6	357.660	0.610	-0.190	0.470
2020/01/31 16:26:00.7	357.660	0.610	-0.230	0.460
2020/01/31 16:26:00.8	357.650	0.600	-0.270	0.450
2020/01/31 16:26:00.9	357.650	0.590	-0.310	0.430
2020/01/31 16:26:01.0	357.640	0.570	-0.350	0.420
2020/01/31 16:26:01.1	357.630	0.560	-0.390	0.400
2020/01/31 16:26:01.2	357.630	0.540	-0.420	0.380
2020/01/31 16:26:01.3	357.620	0.520	-0.450	0.360
2020/01/31 16:26:01.4	357.610	0.500	-0.480	0.340
2020/01/31 16:26:01.5	357.610	0.470	-0.500	0.320
2020/01/31 16:26:01.6	357.600	0.450	-0.520	0.300
2020/01/31 16:26:01.7	357.590	0.420	-0.540	0.270
2020/01/31 16:26:01.8	357.580	0.390	-0.550	0.250
2020/01/31 16:26:01.9	357.580	0.360	-0.560	0.220
2020/01/31 16:26:02.0	357.570	0.330	-0.560	0.190
2020/01/31 16:26:02.1	357.570	0.300	-0.560	0.160
2020/01/31 16:26:02.2	357.560	0.270	-0.560	0.130
2020/01/31 16:26:02.3	357.560	0.230	-0.560	0.100
2020/01/31 16:26:02.4	357.560	0.200	-0.550	0.070
2020/01/31 16:26:02.5	357.560	0.160	-0.540	0.030
2020/01/31 16:26:02.6	357.560	0.130	-0.520	-0.000
2020/01/31 16:26:02.7	357.570	0.090	-0.510	-0.040
2020/01/31 16:26:02.8	357.570	0.060	-0.490	-0.080
2020/01/31 16:26:02.9	357.580	0.020	-0.470	-0.120
2020/01/31 16:26:03.0	357.580	-0.010	-0.450	-0.160
2020/01/31 16:26:03.1	357.590	-0.050	-0.430	-0.190
2020/01/31 16:26:03.2	357.590	-0.080	-0.410	-0.230
2020/01/31 16:26:03.3	357.600	-0.120	-0.390	-0.270
2020/01/31 16:26:03.4	357.610	-0.150	-0.360	-0.310
2020/01/31 16:26:03.5	357.610	-0.180	-0.340	-0.340
2020/01/31 16:26:03.6	357.620	-0.210	-0.320	-0.380
2020/01/31 16:26:03.7	357.630	-0.240	-0.300	-0.410
2020/01/31 16:26:03.8	357.630	-0.260	-0.280	-0.440
2020/01/31 16:26:03.9	357.640	-0.290	-0.270	-0.470
2020/01/31 16:26:04.0	357.650	-0.310	-0.250	-0.500
2020/01/31 16:26:04.1	357.650	-0.330	-0.240	-0.530
2020/01/31 16:26:04.2	357.660	-0.350	-0.220	-0.550
2020/01/31 16:26:04.3	357.660	-0.370	-0.210	-0.580
2020/01/31 16:26:04.4	357.670	-0.380	-0.200	-0.600
2020/01/31 16:26:04.5	357.670	-0.390	-0.190	-0.610
2020/01/31 16:26:04.6	357.670	-0.400	-0.180	-0.630
2020/01/31 16:26:04.7	357.660	-0.410	-0.180	-0.650
2020/01/31 16:26:04.8	357.660	-0.420	-0.170	-0.660
2020/01/31 16:26:04.9	357.660	-0.420	-0.160	-0.670
2020/01/31 16:26:05.0	357.660	-0.420	-0.160	-0.670
2020/01/31 16:26:05.1	357.660	-0.420	-0.150	-0.680
2020/01/31 16:26:05.2	357.660	-0.420	-0.150	-0.680
2020/01/31 16:26:05.3	357.650	-0.410	-0.150	-0.690
2020/01/31 16:26:05.4	357.650	-0.410	-0.150	-0.690
2020/01/31 16:26:05.5	357.650	-0.400	-0.150	-0.690
2020/01/31 16:26:05.6	357.650	-0.390	-0.150	-0.690
2020/01/31 16:26:05.7	357.640	-0.380	-0.150	-0.690
2020/01/31 16:26:05.8	357.640	-0.360	-0.150	-0.690
2020/01/31 16:26:05.9	357.640	-0.350	-0.160	-0.690
2020/01/31 16:26:06.0	357.640	-0.340	-0.160	-0.690
2020/01/31 16:26:06.1	357.650	-0.320	-0.170	-0.690
2020/01/31 16:26:06.2	357.660	-0.300	-0.180	-0.690
2020/01/31 16:26:06.3	357.670	-0.290	-0.190	-0.690
2020/01/31 16:26:06.4	357.680	-0.270	-0.200	-0.690
2020/01/31 16:26:06.5	357.690	-0.250	-0.220	-0.690
2020/01/31 16:26:06.6	357.710	-0.230	-0.230	-0.700
2020/01/31 16:26:06.7	357.730	-0.220	-0.250	-0.700
2020/01/31 16:26:06.8	357.750	-0.200	-0.260	-0.710
2020/01/31 16:26:06.9	357.780	-0.180	-0.280	-0.710
2020/01/31 16:26:07.0	357.810	-0.170	-0.300	-0.720
2020/01/31 16:26:07.1	357.840	-0.150	-0.310	-0.730
2020/01/31 16:26:07.2	357.870	-0.130	-0.330	-0.740
2020/01/31 16:26:07.3	357.910	-0.120	-0.350	-0.750
2020/01/31 16:26:07.4	357.940	-0.100	-0.370	-0.760
2020/01/31 16:26:07.5	357.980	-0.090	-0.390	-0.770
2020/01/31 16:26:07.6	358.020	-0.080	-0.400	-0.780
2020/01/31 16:26:07.7	358.050	-0.060	-0.420	-0.780
2020/01/31 16:26:07.8	358.090	-0.050	-0.430	-0.780
2020/01/31 16:26:07.9	358.120	-0.040	-0.430	-0.780
2020/01/31 16:26:08.0	358.150	-0.040	-0.440	-0.780
2020/01/31 16:26:08.1	358.180	-0.030	-0.440	-0.770
2020/01/31 16:26:08.2	358.210	-0.020	-0.440	-0.760
2020/01/31 16:26:08.3	358.230	-0.020	-0.430	-0.740
2020/01/31 16:26:08.4	358.250	-0.020	-0.420	-0.720
2020/01/31 16:26:08.5	358.260	-0.020	-0.410	-0.700
2020/01/31 16:26:08.6	358.270	-0.020	-0.390	-0.670
2020/01/31 16:26:08.7	358.270	-0.020	-0.370	-0.640
2020/01/31 16:26:08.8	358.270	-0.020	-0.350	-0.610
2020/01/31 16:26:08.9	358.270	-0.020	-0.320	-0.570
2020/01/31 16:26:09.0	358.260	-0.030	-0.290	-0.530
2020/01/31 16:26:09.1	358.260	-0.030	-0.260	-0.490
2020/01/31 16:26:09.2	358.240	-0.030	-0.220	-0.440
2020/01/31 16:26:09.3	358.230	-0.040	-0.190	-0.400
2020/01/31 16:26:09.4	358.210	-0.050	-0.150	-0.350
2020/01/31 16:26:09.5	358.190	-0.050	-0.120	-0.300
2020/01/31 16:26:09.6	358.160	-0.060	-0.080	-0.250
2020/01/31 16:26:09.7	358.140	-0.060	-0.050	-0.190
2020/01/31 16:26:09.8	358.110	-0.070	-0.010	-0.140
2020/01/31 16:26:09.9	358.080	-0.070	0.020	-0.090
2020/01/31 16:26:10.0	358.040	-0.070	0.050	-0.030
2020/01/31 16:26:10.1	358.010	-0.070	0.070	0.020
2020/01/31 16:26:10.2	357.970	-0.070	0.100	0.070
2020/01/31 16:26:10.3	357.940	-0.070	0.120	0.120
2020/01/31 16:26:10.4	357.900	-0.070	0.130	0.170
2020/01/31 16:26:10.5	357.860	-0.070	0.150	0.220
2020/01/31 16:26:10.6	357.820	-0.060	0.150	0.260
2020/01/31 16:26:10.7	357.790	-0.060	0.160	0.300
2020/01/31 16:26:10.8	357.750	-0.050	0.160	0.340
2020/01/31 16:26:10.9	357.710	-0.040	0.160	0.370
2020/01/31 16:26:11.0	357.670	-0.030	0.150	0.400
2020/01/31 16:26:11.1	357.630	-0.010	0.140	0.420
2020/01/31 16:26:11.2	357.590	0.000	0.130	0.440
2020/01/31 16:26:11.3	357.560	0.020	0.110	0.460
2020/01/31 16:26:11.4	357.520	0.040	0.090	0.470
2020/01/31 16:26:11.5	357.490	0.050	0.070	0.480
2020/01/31 16:26:11.6	357.460	0.080	0.040	0.480
2020/01/31 16:26:11.7	357.420	0.100	0.020	0.470
2020/01/31 16:26:11.8	357.390	0.120	-0.010	0.460
2020/01/31 16:26:11.9	357.360	0.140	-0.040	0.460
2020/01/31 16:26:12.0	357.330	0.160	-0.080	0.440
2020/01/31 16:26:12.1	357.310	0.190	-0.110	0.430
2020/01/31 16:26:12.2	357.290	0.210	-0.140	0.410
2020/01/31 16:26:12.3	357.270	0.240	-0.170	0.390
2020/01/31 16:26:12.4	357.250	0.260	-0.200	0.370
2020/01/31 16:26:12.5	357.230	0.280	-0.230	0.350
2020/01/31 16:26:12.6	357.220	0.300	-0.250	0.330
2020/01/31 16:26:12.7	357.200	0.330	-0.280	0.300
2020/01/31 16:26:12.8	357.190	0.350	-0.300	0.280
2020/01/31 16:26:12.9	357.180	0.370	-0.320	0.250
2020/01/31 16:26:13.0	357.170	0.380	-0.340	0.220
2020/01/31 16:26:13.1	357.170	0.400	-0.360	0.190
2020/01/31 16:26:13.2	357.170	0.420	-0.370	0.160
2020/01/31 16:26:13.3	357.170	0.430	-0.380	0.130
2020/01/31 16:26:13.4	357.170	0.440	-0.390	0.100
2020/01/31 16:26:13.5	357.180	0.450	-0.390	0.060
2020/01/31 16:26:13.6	357.190	0.460	-0.400	0.030
2020/01/31 16:26:13.7	357.200	0.460	-0.400	-0.010
2020/01/31 16:26:13.8	357.210	0.470	-0.400	-0.050
2020/01/31 16:26:13.9	357.230	0.470	-0.400	-0.080
2020/01/31 16:26:14.0	357.240	0.470	-0.400	-0.120
2020/01/31 16:26:14.1	357.250	0.460	-0.400	-0.150
2020/01/31 16:26:14.2	357.270	0.460	-0.400	-0.190
2020/01/31 16:26:14.3	357.290	0.450	-0.390	-0.220
2020/01/31 16:26:14.4	357.310	0.440	-0.390	-0.260
2020/01/31 16:26:14.5	357.330	0.430	-0.390	-0.290
2020/01/31 16:26:14.6	357.350	0.410	-0.390	-0.320
2020/01/31 16:26:14.7	357.370	0.400	-0.400	-0.350
2020/01/31 16:26:14.8	357.390	0.380	-0.400	-0.380
2020/01/31 16:26:14.9	357.420	0.360	-0.400	-0.410
2020/01/31 16:26:15.0	357.440	0.340	-0.410	-0.440
2020/01/31 16:26:15.1	357.470	0.310	-0.410	-0.470
2020/01/31 16:26:15.2	357.490	0.290	-0.420	-0.490
2020/01/31 16:26:15.3	357.520	0.260	-0.430	-0.520
2020/01/31 16:26:15.4	357.540	0.230	-0.440	-0.550
2020/01/31 16:26:15.5	357.570	0.200	-0.450	-0.570
2020/01/31 16:26:15.6	357.590	0.160	-0.460	-0.590
2020/01/31 16:26:15.7	357.610	0.130	-0.480	-0.610
2020/01/31 16:26:15.8	357.630	0.090	-0.490	-0.640
2020/01/31 16:26:15.9	357.640	0.060	-0.500	-0.660
2020/01/31 16:26:16.0	357.650	0.020	-0.510	-0.680
2020/01/31 16:26:16.1	357.670	-0.020	-0.530	-0.700
2020/01/31 16:26:16.2	357.680	-0.060	-0.540	-0.710
2020/01/31 16:26:16.3	357.680	-0.100	-0.550	-0.730
2020/01/31 16:26:16.4	357.690	-0.130	-0.560	-0.750
2020/01/31 16:26:16.5	357.690	-0.170	-0.570	-0.760
2020/01/31 16:26:16.6	357.690	-0.210	-0.580	-0.780
2020/01/31 16:26:16.7	357.700	-0.250	-0.580	-0.790
2020/01/31 16:26:16.8	357.700	-0.280	-0.580	-0.800
2020/01/31 16:26:16.9	357.700	-0.310	-0.580	-0.810
2020/01/31 16:26:17.0	357.690	-0.350	-0.580	-0.810
2020/01/31 16:26:17.1	357.680	-0.370	-0.580	-0.820
2020/01/31 16:26:17.2	357.670	-0.400	-0.570	-0.810
2020/01/31 16:26:17.3	357.660	-0.430	-0.550	-0.800
2020/01/31 16:26:17.4	357.650	-0.450	-0.540	-0.790
2020/01/31 16:26:17.5	357.640	-0.470	-0.520	-0.780
2020/01/31 16:26:17.6	357.620	-0.480	-0.500	-0.760
2020/01/31 16:26:17.7	357.600	-0.490	-0.470	-0.740
2020/01/31 16:26:17.8	357.590	-0.500	-0.440	-0.710
2020/01/31 16:26:17.9	357.570	-0.510	-0.410	-0.680
2020/01/31 16:26:18.0	357.560	-0.510	-0.380	-0.650
2020/01/31 16:26:18.1	357.540	-0.510	-0.340	-0.620
2020/01/31 16:26:18.2	357.530	-0.510	-0.300	-0.580
2020/01/31 16:26:18.3	357.510	-0.500	-0.260	-0.540
2020/01/31 16:26:18.4	357.500	-0.490	-0.220	-0.500
2020/01/31 16:26:18.5	357.490	-0.480	-0.180	-0.460
2020/01/31 16:26:18.6	357.480	-0.460	-0.140	-0.430
2020/01/31 16:26:18.7	357.480	-0.440	-0.090	-0.390
2020/01/31 16:26:18.8	357.480	-0.420	-0.050	-0.350
2020/01/31 16:26:18.9	357.470	-0.400	-0.010	-0.320
2020/01/31 16:26:19.0	357.470	-0.370	0.020	-0.280
2020/01/31 16:26:19.1	357.470	-0.350	0.060	-0.250
2020/01/31 16:26:19.2	357.470	-0.320	0.090	-0.220
2020/01/31 16:26:19.3	357.470	-0.290	0.120	-0.190
2020/01/31 16:26:19.4	357.470	-0.260	0.140	-0.170
2020/01/31 16:26:19.5	357.470	-0.230	0.160	-0.140
2020/01/31 16:26:19.6	357.480	-0.200	0.180	-0.120
2020/01/31 16:26:19.7	357.480	-0.170	0.190	-0.110
2020/01/31 16:26:19.8	357.490	-0.140	0.200	-0.090
2020/01/31 16:26:19.9	357.500	-0.110	0.210	-0.080
2020/01/31 16:26:20.0	357.510	-0.080	0.210	-0.070
2020/01/31 16:26:20.1	357.520	-0.050	0.200	-0.060
2020/01/31 16:26:20.2	357.530	-0.020	0.190	-0.050
2020/01/31 16:26:20.3	357.540	0.000	0.180	-0.040
2020/01/31 16:26:20.4	357.560	0.030	0.160	-0.040
2020/01/31 16:26:20.5	357.570	0.050	0.140	-0.040
2020/01/31 16:26:20.6	357.580	0.070	0.110	-0.040
2020/01/31 16:26:20.7	357.590	0.090	0.080	-0.040
2020/01/31 16:26:20.8	357.610	0.110	0.050	-0.040
2020/01/31 16:26:20.9	357.620	0.120	0.020	-0.050
2020/01/31 16:26:21.0	357.640	0.140	-0.020	-0.060
2020/01/31 16:26:21.1	357.650	0.140	-0.060	-0.060
2020/01/31 16:26:21.2	357.670	0.150	-0.100	-0.080
2020/01/31 16:26:21.3	357.680	0.160	-0.140	-0.090
2020/01/31 16:26:21.4	357.690	0.160	-0.180	-0.100
2020/01/31 16:26:21.5	357.710	0.160	-0.220	-0.120
2020/01/31 16:26:21.6	357.720	0.160	-0.260	-0.130
2020/01/31 16:26:21.7	357.740	0.150	-0.300	-0.150
2020/01/31 16:26:21.8	357.750	0.150	-0.330	-0.170
2020/01/31 16:26:21.9	357.760	0.140	-0.370	-0.190
2020/01/31 16:26:22.0	357.770	0.130	-0.400	-0.210
2020/01/31 16:26:22.1	357.770	0.120	-0.420	-0.230
2020/01/31 16:26:22.2	357.780	0.110	-0.450	-0.250
2020/01/31 16:26:22.3	357.780	0.090	-0.470	-0.270
2020/01/31 16:26:22.4	357.790	0.080	-0.480	-0.300
2020/01/31 16:26:22.5	357.790	0.070	-0.490	-0.310
2020/01/31 16:26:22.6	357.790	0.050	-0.500	-0.330
2020/01/31 16:26:22.7	357.790	0.040	-0.500	-0.350
2020/01/31 16:26:22.8	357.780	0.020	-0.490	-0.370
2020/01/31 16:26:22.9	357.770	0.010	-0.480	-0.380
2020/01/31 16:26:23.0	357.760	-0.010	-0.460	-0.390
2020/01/31 16:26:23.1	357.750	-0.020	-0.440	-0.390
2020/01/31 16:26:23.2	357.730	-0.030	-0.420	-0.390
2020/01/31 16:26:23.3	357.710	-0.050	-0.380	-0.390
2020/01/31 16:26:23.4	357.690	-0.060	-0.350	-0.390
2020/01/31 16:26:23.5	357.670	-0.060	-0.310	-0.390
2020/01/31 16:26:23.6	357.650	-0.070	-0.270	-0.380
2020/01/31 16:26:23.7	357.630	-0.080	-0.230	-0.370
2020/01/31 16:26:23.8	357.610	-0.080	-0.180	-0.350
2020/01/31 16:26:23.9	357.580	-0.080	-0.140	-0.340
2020/01/31 16:26:24.0	357.560	-0.080	-0.100	-0.320
2020/01/31 16:26:24.1	357.530	-0.080	-0.050	-0.310
2020/01/31 16:26:24.2	357.510	-0.080	-0.010	-0.290
2020/01/31 16:26:24.3	357.490	-0.070	0.030	-0.270
2020/01/31 16:26:24.4	357.460	-0.060	0.060	-0.250
2020/01/31 16:26:24.5	357.440	-0.050	0.100	-0.230
2020/01/31 16:26:24.6	357.420	-0.040	0.130	-0.210
2020/01/31 16:26:24.7	357.380	-0.030	0.150	-0.190
2020/01/31 16:26:24.8	357.360	-0.010	0.170	-0.170
2020/01/31 16:26:24.9	357.340	0.010	0.190	-0.140
2020/01/31 16:26:25.0	357.320	0.020	0.200	-0.120
2020/01/31 16:26:25.1	357.290	0.040	0.200	-0.100
2020/01/31 16:26:25.2	357.270	0.070	0.210	-0.080
2020/01/31 16:26:25.3	357.250	0.090	0.200	-0.060
2020/01/31 16:26:25.4	357.230	0.110	0.190	-0.040
2020/01/31 16:26:25.5	357.210	0.140	0.180	-0.020
2020/01/31 16:26:25.6	357.190	0.160	0.160	-0.010
2020/01/31 16:26:25.7	357.170	0.180	0.140	0.010
2020/01/31 16:26:25.8	357.150	0.210	0.110	0.020
2020/01/31 16:26:25.9	357.130	0.230	0.080	0.030
2020/01/31 16:26:26.0	357.110	0.250	0.050	0.050
2020/01/31 16:26:26.1	357.100	0.280	0.010	0.060
2020/01/31 16:26:26.2	357.080	0.300	-0.020	0.070
2020/01/31 16:26:26.3	357.070	0.320	-0.070	0.080
2020/01/31 16:26:26.4	357.050	0.340	-0.110	0.090
2020/01/31 16:26:26.5	357.040	0.360	-0.160	0.090
2020/01/31 16:26:26.6	357.020	0.370	-0.200	0.100
2020/01/31 16:26:26.7	357.010	0.380	-0.250	0.100
2020/01/31 16:26:26.8	357.000	0.400	-0.300	0.110
2020/01/31 16:26:26.9	356.990	0.410	-0.350	0.110
2020/01/31 16:26:27.0	356.980	0.410	-0.400	0.110
2020/01/31 16:26:27.1	356.980	0.420	-0.450	0.100
2020/01/31 16:26:27.2	356.970	0.420	-0.500	0.090
2020/01/31 16:26:27.3	356.970	0.420	-0.550	0.090
2020/01/31 16:26:27.4	356.970	0.420	-0.600	0.070
2020/01/31 16:26:27.5	356.980	0.410	-0.650	0.060
2020/01/31 16:26:27.6	356.980	0.400	-0.700	0.040
2020/01/31 16:26:27.7	357.000	0.390	-0.740	0.020
2020/01/31 16:26:27.8	357.010	0.380	-0.780	-0.010
2020/01/31 16:26:27.9	357.020	0.370	-0.820	-0.030
2020/01/31 16:26:28.0	357.040	0.350	-0.860	-0.060
2020/01/31 16:26:28.1	357.060	0.340	-0.890	-0.100
2020/01/31 16:26:28.2	357.080	0.320	-0.930	-0.130
2020/01/31 16:26:28.3	357.100	0.300	-0.960	-0.170
2020/01/31 16:26:28.4	357.130	0.280	-0.980	-0.210
2020/01/31 16:26:28.5	357.160	0.250	-1.000	-0.250
2020/01/31 16:26:28.6	357.190	0.230	-1.020	-0.290
2020/01/31 16:26:28.7	357.230	0.200	-1.030	-0.330
2020/01/31 16:26:28.8	357.260	0.180	-1.040	-0.370
2020/01/31 16:26:28.9	357.290	0.150	-1.040	-0.410
2020/01/31 16:26:29.0	357.320	0.120	-1.040	-0.450
2020/01/31 16:26:29.1	357.350	0.100	-1.030	-0.490
2020/01/31 16:26:29.2	357.380	0.070	-1.020	-0.520
2020/01/31 16:26:29.3	357.420	0.040	-1.000	-0.560
2020/01/31 16:26:29.4	357.450	0.010	-0.970	-0.590
2020/01/31 16:26:29.5	357.480	-0.020	-0.940	-0.630
2020/01/31 16:26:29.6	357.510	-0.040	-0.910	-0.660
2020/01/31 16:26:29.7	357.550	-0.070	-0.870	-0.690
2020/01/31 16:26:29.8	357.580	-0.100	-0.830	-0.720
2020/01/31 16:26:29.9	357.610	-0.120	-0.780	-0.740
2020/01/31 16:26:30.0	357.640	-0.150	-0.740	-0.770
2020/01/31 16:26:30.1	357.670	-0.170	-0.680	-0.790
2020/01/31 16:26:30.2	357.700	-0.200	-0.630	-0.800
2020/01/31 16:26:30.3	357.720	-0.220	-0.570	-0.820
2020/01/31 16:26:30.4	357.750	-0.240	-0.520	-0.830
2020/01/31 16:26:30.5	357.770	-0.270	-0.460	-0.830
2020/01/31 16:26:30.6	357.790	-0.290	-0.400	-0.840
2020/01/31 16:26:30.7	357.810	-0.310	-0.340	-0.840
2020/01/31 16:26:30.8	357.830	-0.330	-0.280	-0.830
2020/01/31 16:26:30.9	357.840	-0.350	-0.210	-0.830
2020/01/31 16:26:31.0	357.860	-0.360	-0.150	-0.820
2020/01/31 16:26:31.1	357.870	-0.380	-0.090	-0.810
2020/01/31 16:26:31.2	357.880	-0.400	-0.030	-0.800
2020/01/31 16:26:31.3	357.890	-0.410	0.020	-0.780
2020/01/31 16:26:31.4	357.900	-0.420	0.080	-0.770
2020/01/31 16:26:31.5	357.910	-0.440	0.130	-0.750
2020/01/31 16:26:31.6	357.910	-0.450	0.180	-0.730
2020/01/31 16:26:31.7	357.900	-0.460	0.230	-0.720
2020/01/31 16:26:31.8	357.910	-0.470	0.270	-0.700
2020/01/31 16:26:31.9	357.910	-0.470	0.310	-0.680
2020/01/31 16:26:32.0	357.910	-0.480	0.350	-0.660
2020/01/31 16:26:32.1	357.910	-0.480	0.380	-0.640
2020/01/31 16:26:32.2	357.910	-0.480	0.410	-0.620
2020/01/31 16:26:32.3	357.910	-0.480	0.440	-0.600
2020/01/31 16:26:32.4	357.910	-0.480	0.460	-0.570
2020/01/31 16:26:32.5	357.910	-0.470	0.480	-0.550
2020/01/31 16:26:32.6	357.900	-0.470	0.500	-0.530
2020/01/31 16:26:32.7	357.890	-0.460	0.510	-0.500
2020/01/31 16:26:32.8	357.880	-0.450	0.520	-0.480
2020/01/31 16:26:32.9	357.870	-0.430	0.520	-0.450
2020/01/31 16:26:33.0	357.860	-0.420	0.530	-0.420
2020/01/31 16:26:33.1	357.850	-0.400	0.530	-0.390
2020/01/31 16:26:33.2	357.840	-0.380	0.520	-0.360
2020/01/31 16:26:33.3	357.830	-0.360	0.520	-0.320
2020/01/31 16:26:33.4	357.820	-0.340	0.510	-0.290
2020/01/31 16:26:33.5	357.810	-0.320	0.500	-0.250
2020/01/31 16:26:33.6	357.790	-0.290	0.490	-0.210
2020/01/31 16:26:33.7	357.770	-0.270	0.470	-0.180
2020/01/31 16:26:33.8	357.750	-0.250	0.460	-0.140
2020/01/31 16:26:33.9	357.730	-0.220	0.440	-0.100
2020/01/31 16:26:34.0	357.710	-0.200	0.420	-0.060
2020/01/31 16:26:34.1	357.690	-0.180	0.400	-0.030
2020/01/31 16:26:34.2	357.660	-0.150	0.380	0.010
2020/01/31 16:26:34.3	357.640	-0.130	0.360	0.040
2020/01/31 16:26:34.4	357.610	-0.110	0.330	0.070
2020/01/31 16:26:34.5	357.580	-0.090	0.310	0.100
2020/01/31 16:26:34.6	357.550	-0.070	0.280	0.130
2020/01/31 16:26:34.7	357.510	-0.050	0.260	0.160
2020/01/31 16:26:34.8	357.480	-0.030	0.230	0.180
2020/01/31 16:26:34.9	357.450	-0.020	0.200	0.200
2020/01/31 16:26:35.0	357.420	-0.000	0.170	0.220
2020/01/31 16:26:35.1	357.380	0.010	0.130	0.230
2020/01/31 16:26:35.2	357.350	0.020	0.100	0.240
2020/01/31 16:26:35.3	357.310	0.030	0.060	0.250
2020/01/31 16:26:35.4	357.280	0.050	0.030	0.260
2020/01/31 16:26:35.5	357.250	0.060	-0.010	0.260
2020/01/31 16:26:35.6	357.210	0.070	-0.050	0.270
2020/01/31 16:26:35.7	357.190	0.080	-0.090	0.260
2020/01/31 16:26:35.8	357.160	0.090	-0.140	0.260
2020/01/31 16:26:35.9	357.130	0.100	-0.180	0.250
2020/01/31 16:26:36.0	357.100	0.100	-0.230	0.240
2020/01/31 16:26:36.1	357.080	0.110	-0.280	0.220
2020/01/31 16:26:36.2	357.050	0.130	-0.330	0.210
2020/01/31 16:26:36.3	357.030	0.140	-0.390	0.190
2020/01/31 16:26:36.4	357.010	0.150	-0.440	0.170
2020/01/31 16:26:36.5	356.990	0.160	-0.500	0.150
2020/01/31 16:26:36.6	356.980	0.170	-0.550	0.130
2020/01/31 16:26:36.7	356.970	0.180	-0.610	0.100
2020/01/31 16:26:36.8	356.950	0.200	-0.660	0.070
2020/01/31 16:26:36.9	356.940	0.210	-0.720	0.040
2020/01/31 16:26:37.0	356.930	0.220	-0.780	0.010
2020/01/31 16:26:37.1	356.920	0.240	-0.840	-0.020
2020/01/31 16:26:37.2	356.910	0.250	-0.890	-0.060
2020/01/31 16:26:37.3	356.900	0.270	-0.940	-0.090
2020/01/31 16:26:37.4	356.890	0.280	-1.000	-0.130
2020/01/31 16:26:37.5	356.890	0.300	-1.050	-0.170
2020/01/31 16:26:37.6	356.890	0.310	-1.090	-0.210
2020/01/31 16:26:37.7	356.900	0.330	-1.140	-0.260
2020/01/31 16:26:37.8	356.900	0.340	-1.180	-0.300
2020/01/31 16:26:37.9	356.900	0.360	-1.210	-0.340
2020/01/31 16:26:38.0	356.910	0.370	-1.250	-0.380
2020/01/31 16:26:38.1	356.910	0.380	-1.270	-0.430
2020/01/31 16:26:38.2	356.920	0.390	-1.290	-0.470
2020/01/31 16:26:38.3	356.940	0.410	-1.310	-0.520
2020/01/31 16:26:38.4	356.950	0.420	-1.320	-0.560
2020/01/31 16:26:38.5	356.970	0.420	-1.330	-0.600
2020/01/31 16:26:38.6	356.990	0.430	-1.330	-0.640
2020/01/31 16:26:38.7	357.010	0.440	-1.320	-0.690
2020/01/31 16:26:38.8	357.030	0.440	-1.310	-0.730
2020/01/31 16:26:38.9	357.060	0.450	-1.290	-0.760
2020/01/31 16:26:39.0	357.080	0.450	-1.270	-0.800
2020/01/31 16:26:39.1	357.110	0.450	-1.240	-0.840
2020/01/31 16:26:39.2	357.150	0.450	-1.210	-0.870
2020/01/31 16:26:39.3	357.180	0.440	-1.170	-0.900
2020/01/31 16:26:39.4	357.220	0.440	-1.120	-0.930
2020/01/31 16:26:39.5	357.250	0.430	-1.080	-0.950
2020/01/31 16:26:39.6	357.290	0.420	-1.020	-0.970
2020/01/31 16:26:39.7	357.320	0.410	-0.960	-1.000
2020/01/31 16:26:39.8	357.360	0.400	-0.900	-1.010
2020/01/31 16:26:39.9	357.390	0.380	-0.830	-1.020
2020/01/31 16:26:40.0	357.430	0.370	-0.760	-1.030
2020/01/31 16:26:40.1	357.460	0.350	-0.690	-1.030
2020/01/31 16:26:40.2	357.500	0.330	-0.610	-1.020
2020/01/31 16:26:40.3	357.530	0.310	-0.530	-1.010
2020/01/31 16:26:40.4	357.550	0.290	-0.440	-0.990
2020/01/31 16:26:40.5	357.580	0.270	-0.360	-0.970
2020/01/31 16:26:40.6	357.600	0.250	-0.270	-0.940
2020/01/31 16:26:40.7	357.610	0.230	-0.180	-0.910
2020/01/31 16:26:40.8	357.630	0.200	-0.090	-0.870
2020/01/31 16:26:40.9	357.640	0.180	0.000	-0.830
2020/01/31 16:26:41.0	357.660	0.150	0.090	-0.780
2020/01/31 16:26:41.1	357.670	0.130	0.180	-0.730
2020/01/31 16:26:41.2	357.670	0.110	0.270	-0.680
2020/01/31 16:26:41.3	357.680	0.080	0.350	-0.620
2020/01/31 16:26:41.4	357.680	0.060	0.430	-0.560
2020/01/31 16:26:41.5	357.680	0.030	0.500	-0.500
2020/01/31 16:26:41.6	357.680	0.010	0.570	-0.440
2020/01/31 16:26:41.7	357.670	-0.010	0.640	-0.380
2020/01/31 16:26:41.8	357.670	-0.030	0.700	-0.320
2020/01/31 16:26:41.9	357.670	-0.050	0.750	-0.270
2020/01/31 16:26:42.0	357.660	-0.080	0.790	-0.210
2020/01/31 16:26:42.1	357.660	-0.090	0.830	-0.150
2020/01/31 16:26:42.2	357.660	-0.110	0.860	-0.100
2020/01/31 16:26:42.3	357.650	-0.130	0.880	-0.050
2020/01/31 16:26:42.4	357.650	-0.150	0.900	-0.010
2020/01/31 16:26:42.5	357.640	-0.170	0.900	0.030
2020/01/31 16:26:42.6	357.640	-0.180	0.900	0.070
2020/01/31 16:26:42.7	357.630	-0.200	0.890	0.110
2020/01/31 16:26:42.8	357.620	-0.210	0.870	0.140
2020/01/31 16:26:42.9	357.620	-0.220	0.850	0.160
2020/01/31 16:26:43.0	357.610	-0.240	0.810	0.180
2020/01/31 16:26:43.1	357.600	-0.250	0.770	0.200
2020/01/31 16:26:43.2	357.590	-0.260	0.730	0.210
2020/01/31 16:26:43.3	357.580	-0.270	0.680	0.220
2020/01/31 16:26:43.4	357.570	-0.280	0.620	0.220
2020/01/31 16:26:43.5	357.560	-0.300	0.560	0.220
2020/01/31 16:26:43.6	357.550	-0.310	0.490	0.210
2020/01/31 16:26:43.7	357.540	-0.320	0.420	0.210
2020/01/31 16:26:43.8	357.530	-0.330	0.350	0.190
2020/01/31 16:26:43.9	357.520	-0.340	0.270	0.180
2020/01/31 16:26:44.0	357.510	-0.350	0.200	0.160
2020/01/31 16:26:44.1	357.500	-0.360	0.120	0.140
2020/01/31 16:26:44.2	357.490	-0.380	0.040	0.120
2020/01/31 16:26:44.3	357.480	-0.390	-0.030	0.100
2020/01/31 16:26:44.4	357.470	-0.400	-0.110	0.070
2020/01/31 16:26:44.5	357.460	-0.410	-0.180	0.040
2020/01/31 16:26:44.6	357.460	-0.420	-0.260	0.010
2020/01/31 16:26:44.7	357.450	-0.430	-0.330	-0.020
2020/01/31 16:26:44.8	357.440	-0.440	-0.400	-0.060
2020/01/31 16:26:44.9	357.440	-0.450	-0.470	-0.090
2020/01/31 16:26:45.0	357.430	-0.460	-0.530	-0.130
2020/01/31 16:26:45.1	357.430	-0.470	-0.590	-0.170
2020/01/31 16:26:45.2	357.430	-0.470	-0.640	-0.200
2020/01/31 16:26:45.3	357.430	-0.480	-0.700	-0.240
2020/01/31 16:26:45.4	357.430	-0.490	-0.740	-0.280
2020/01/31 16:26:45.5	357.430	-0.500	-0.790	-0.320
2020/01/31 16:26:45.6	357.430	-0.500	-0.820	-0.370
2020/01/31 16:26:45.7	357.440	-0.510	-0.850	-0.410
2020/01/31 16:26:45.8	357.440	-0.510	-0.880	-0.450
2020/01/31 16:26:45.9	357.440	-0.510	-0.900	-0.490
2020/01/31 16:26:46.0	357.440	-0.510	-0.910	-0.530
2020/01/31 16:26:46.1	357.450	-0.510	-0.920	-0.570
2020/01/31 16:26:46.2	357.450	-0.510	-0.920	-0.610
2020/01/31 16:26:46.3	357.450	-0.510	-0.920	-0.640
2020/01/31 16:26:46.4	357.450	-0.500	-0.910	-0.670
2020/01/31 16:26:46.5	357.440	-0.490	-0.890	-0.700
2020/01/31 16:26:46.6	357.440	-0.480	-0.870	-0.730
2020/01/31 16:26:46.7	357.440	-0.470	-0.850	-0.760
2020/01/31 16:26:46.8	357.430	-0.460	-0.810	-0.780
2020/01/31 16:26:46.9	357.430	-0.440	-0.780	-0.790
2020/01/31 16:26:47.0	357.430	-0.430	-0.730	-0.800
2020/01/31 16:26:47.1	357.430	-0.410	-0.690	-0.800
2020/01/31 16:26:47.2	357.420	-0.380	-0.640	-0.800
2020/01/31 16:26:47.3	357.420	-0.360	-0.590	-0.800
2020/01/31 16:26:47.4	357.420	-0.330	-0.530	-0.790
2020/01/31 16:26:47.5	357.410	-0.300	-0.480	-0.780
2020/01/31 16:26:47.6	357.410	-0.270	-0.420	-0.760
2020/01/31 16:26:47.7	357.400	-0.240	-0.360	-0.740
2020/01/31 16:26:47.8	357.400	-0.210	-0.300	-0.710
2020/01/31 16:26:47.9	357.400	-0.170	-0.240	-0.680
2020/01/31 16:26:48.0	357.390	-0.140	-0.190	-0.650
2020/01/31 16:26:48.1	357.390	-0.100	-0.140	-0.620
2020/01/31 16:26:48.2	357.390	-0.060	-0.090	-0.580
2020/01/31 16:26:48.3	357.390	-0.020	-0.040	-0.540
2020/01/31 16:26:48.4	357.390	0.010	0.000	-0.500
2020/01/31 16:26:48.5	357.380	0.050	0.040	-0.460
2020/01/31 16:26:48.6	357.380	0.090	0.070	-0.420
2020/01/31 16:26:48.7	357.370	0.130	0.100	-0.380
2020/01/31 16:26:48.8	357.370	0.170	0.120	-0.340
2020/01/31 16:26:48.9	357.370	0.200	0.140	-0.290
2020/01/31 16:26:49.0	357.360	0.240	0.160	-0.250
2020/01/31 16:26:49.1	357.360	0.270	0.170	-0.200
2020/01/31 16:26:49.2	357.350	0.300	0.180	-0.150
2020/01/31 16:26:49.3	357.330	0.330	0.180	-0.100
2020/01/31 16:26:49.4	357.320	0.350	0.180	-0.050
2020/01/31 16:26:49.5	357.300	0.380	0.180	-0.000
2020/01/31 16:26:49.6	357.290	0.400	0.170	0.050
2020/01/31 16:26:49.7	357.270	0.420	0.160	0.100
2020/01/31 16:26:49.8	357.250	0.440	0.140	0.150
2020/01/31 16:26:49.9	357.230	0.450	0.120	0.200
2020/01/31 16:26:50.0	357.210	0.470	0.090	0.240
2020/01/31 16:26:50.1	357.190	0.480	0.060	0.290
2020/01/31 16:26:50.2	357.170	0.480	0.030	0.330
2020/01/31 16:26:50.3	357.150	0.490	-0.000	0.360
2020/01/31 16:26:50.4	357.130	0.490	-0.040	0.400
2020/01/31 16:26:50.5	357.110	0.500	-0.090	0.430
2020/01/31 16:26:50.6	357.090	0.500	-0.130	0.450
2020/01/31 16:26:50.7	357.080	0.500	-0.180	0.480
2020/01/31 16:26:50.8	357.060	0.500	-0.230	0.500
2020/01/31 16:26:50.9	357.050	0.500	-0.280	0.510
2020/01/31 16:26:51.0	357.040	0.490	-0.340	0.520
2020/01/31 16:26:51.1	357.030	0.490	-0.390	0.530
2020/01/31 16:26:51.2	357.020	0.490	-0.450	0.540
2020/01/31 16:26:51.3	357.010	0.490	-0.500	0.540
2020/01/31 16:26:51.4	357.010	0.480	-0.560	0.540
2020/01/31 16:26:51.5	357.000	0.480	-0.610	0.540
2020/01/31 16:26:51.6	357.000	0.480	-0.660	0.530
2020/01/31 16:26:51.7	357.010	0.480	-0.710	0.520
2020/01/31 16:26:51.8	357.010	0.480	-0.750	0.510
2020/01/31 16:26:51.9	357.020	0.480	-0.800	0.500
2020/01/31 16:26:52.0	357.020	0.480	-0.840	0.490
2020/01/31 16:26:52.1	357.030	0.490	-0.870	0.470
2020/01/31 16:26:52.2	357.030	0.490	-0.900	0.450
2020/01/31 16:26:52.3	357.040	0.490	-0.930	0.430
2020/01/31 16:26:52.4	357.050	0.500	-0.960	0.410
2020/01/31 16:26:52.5	357.070	0.500	-0.970	0.380
2020/01/31 16:26:52.6	357.080	0.510	-0.990	0.350
2020/01/31 16:26:52.7	357.100	0.510	-1.000	0.310
2020/01/31 16:26:52.8	357.120	0.520	-1.010	0.280
2020/01/31 16:26:52.9	357.140	0.520	-1.010	0.240
2020/01/31 16:26:53.0	357.160	0.530	-1.010	0.200
2020/01/31 16:26:53.1	357.190	0.530	-1.000	0.160
2020/01/31 16:26:53.2	357.210	0.530	-0.990	0.110
2020/01/31 16:26:53.3	357.240	0.530	-0.980	0.070
2020/01/31 16:26:53.4	357.270	0.530	-0.960	0.020
2020/01/31 16:26:53.5	357.300	0.530	-0.940	-0.030
2020/01/31 16:26:53.6	357.330	0.520	-0.910	-0.080
2020/01/31 16:26:53.7	357.360	0.510	-0.880	-0.140
2020/01/31 16:26:53.8	357.400	0.500	-0.850	-0.190
2020/01/31 16:26:53.9	357.430	0.490	-0.820	-0.240
2020/01/31 16:26:54.0	357.470	0.470	-0.780	-0.290
2020/01/31 16:26:54.1	357.510	0.450	-0.740	-0.340
2020/01/31 16:26:54.2	357.550	0.430	-0.700	-0.390
2020/01/31 16:26:54.3	357.590	0.400	-0.650	-0.440
2020/01/31 16:26:54.4	357.630	0.370	-0.610	-0.490
2020/01/31 16:26:54.5	357.670	0.340	-0.560	-0.540
2020/01/31 16:26:54.6	357.710	0.300	-0.510	-0.590
2020/01/31 16:26:54.7	357.750	0.260	-0.460	-0.640
2020/01/31 16:26:54.8	357.790	0.210	-0.400	-0.680
2020/01/31 16:26:54.9	357.830	0.170	-0.350	-0.720
2020/01/31 16:26:55.0	357.860	0.110	-0.290	-0.760
2020/01/31 16:26:55.1	357.900	0.060	-0.230	-0.800
2020/01/31 16:26:55.2	357.930	0.000	-0.170	-0.840
2020/01/31 16:26:55.3	357.960	-0.060	-0.110	-0.870
2020/01/31 16:26:55.4	357.990	-0.120	-0.050	-0.900
2020/01/31 16:26:55.5	358.010	-0.190	0.010	-0.930
2020/01/31 16:26:55.6	358.030	-0.250	0.070	-0.960
2020/01/31 16:26:55.7	358.060	-0.320	0.130	-0.990
2020/01/31 16:26:55.8	358.070	-0.390	0.190	-1.010
2020/01/31 16:26:55.9	358.090	-0.460	0.250	-1.030
2020/01/31 16:26:56.0	358.100	-0.530	0.310	-1.050
2020/01/31 16:26:56.1	358.100	-0.600	0.370	-1.060
2020/01/31 16:26:56.2	358.110	-0.660	0.420	-1.070
2020/01/31 16:26:56.3	358.110	-0.730	0.470	-1.080
2020/01/31 16:26:56.4	358.110	-0.800	0.530	-1.080
2020/01/31 16:26:56.5	358.100	-0.860	0.570	-1.080
2020/01/31 16:26:56.6	358.090	-0.920	0.620	-1.070
2020/01/31 16:26:56.7	358.090	-0.970	0.660	-1.060
2020/01/31 16:26:56.8	358.070	-1.030	0.690	-1.050
2020/01/31 16:26:56.9	358.060	-1.080	0.730	-1.040
2020/01/31 16:26:57.0	358.040	-1.120	0.750	-1.020
2020/01/31 16:26:57.1	358.020	-1.160	0.780	-1.000
2020/01/31 16:26:57.2	357.990	-1.200	0.800	-0.980
2020/01/31 16:26:57.3	357.970	-1.220	0.810	-0.950
2020/01/31 16:26:57.4	357.940	-1.250	0.820	-0.930
2020/01/31 16:26:57.5	357.910	-1.270	0.820	-0.900
2020/01/31 16:26:57.6	357.880	-1.280	0.820	-0.870
2020/01/31 16:26:57.7	357.830	-1.280	0.810	-0.840
2020/01/31 16:26:57.8	357.800	-1.280	0.800	-0.800
2020/01/31 16:26:57.9	357.760	-1.280	0.780	-0.770
2020/01/31 16:26:58.0	357.720	-1.260	0.760	-0.730
2020/01/31 16:26:58.1	357.670	-1.250	0.730	-0.680
2020/01/31 16:26:58.2	357.630	-1.220	0.700	-0.640
2020/01/31 16:26:58.3	357.580	-1.190	0.670	-0.590
2020/01/31 16:26:58.4	357.530	-1.150	0.630	-0.540
2020/01/31 16:26:58.5	357.480	-1.100	0.590	-0.490
2020/01/31 16:26:58.6	357.430	-1.050	0.550	-0.430
2020/01/31 16:26:58.7	357.380	-1.000	0.510	-0.370
2020/01/31 16:26:58.8	357.330	-0.940	0.460	-0.320
2020/01/31 16:26:58.9	357.280	-0.870	0.410	-0.260
2020/01/31 16:26:59.0	357.230	-0.800	0.360	-0.200
2020/01/31 16:26:59.1	357.180	-0.730	0.310	-0.140
2020/01/31 16:26:59.2	357.130	-0.650	0.250	-0.080
2020/01/31 16:26:59.3	357.090	-0.570	0.200	-0.020
2020/01/31 16:26:59.4	357.040	-0.480	0.150	0.040
2020/01/31 16:26:59.5	357.000	-0.400	0.090	0.090
2020/01/31 16:26:59.6	356.970	-0.310	0.030	0.140
2020/01/31 16:26:59.7	356.940	-0.220	-0.020	0.200
2020/01/31 16:26:59.8	356.900	-0.130	-0.080	0.250
2020/01/31 16:26:59.9	356.870	-0.040	-0.140	0.300
2020/01/31 16:27:00.0	356.840	0.050	-0.190	0.340
2020/01/31 16:27:00.1	356.810	0.150	-0.250	0.390
2020/01/31 16:27:00.2	356.790	0.230	-0.300	0.430
2020/01/31 16:27:00.3	356.760	0.320	-0.360	0.470
2020/01/31 16:27:00.4	356.740	0.410	-0.410	0.510
2020/01/31 16:27:00.5	356.710	0.490	-0.460	0.540
2020/01/31 16:27:00.6	356.690	0.570	-0.510	0.580
2020/01/31 16:27:00.7	356.680	0.650	-0.560	0.620
2020/01/31 16:27:00.8	356.660	0.720	-0.600	0.650
2020/01/31 16:27:00.9	356.640	0.780	-0.650	0.680
2020/01/31 16:27:01.0	356.620	0.850	-0.690	0.710
2020/01/31 16:27:01.1	356.610	0.900	-0.730	0.740
2020/01/31 16:27:01.2	356.590	0.960	-0.760	0.760
2020/01/31 16:27:01.3	356.570	1.000	-0.790	0.790
2020/01/31 16:27:01.4	356.550	1.040	-0.820	0.800
2020/01/31 16:27:01.5	356.540	1.070	-0.850	0.820
2020/01/31 16:27:01.6	356.530	1.100	-0.880	0.830
2020/01/31 16:27:01.7	356.530	1.120	-0.900	0.840
2020/01/31 16:27:01.8	356.520	1.140	-0.920	0.850
2020/01/31 16:27:01.9	356.510	1.150	-0.940	0.850
2020/01/31 16:27:02.0	356.500	1.150	-0.950	0.840
2020/01/31 16:27:02.1	356.490	1.150	-0.960	0.830
2020/01/31 16:27:02.2	356.490	1.140	-0.970	0.820
2020/01/31 16:27:02.3	356.490	1.120	-0.980	0.800
2020/01/31 16:27:02.4	356.490	1.100	-0.990	0.780
2020/01/31 16:27:02.5	356.500	1.080	-0.990	0.750
2020/01/31 16:27:02.6	356.510	1.050	-1.000	0.710
2020/01/31 16:27:02.7	356.530	1.010	-1.000	0.670
2020/01/31 16:27:02.8	356.540	0.980	-1.000	0.630
2020/01/31 16:27:02.9	356.560	0.930	-1.000	0.580
2020/01/31 16:27:03.0	356.580	0.890	-1.010	0.520
2020/01/31 16:27:03.1	356.610	0.840	-1.010	0.460
2020/01/31 16:27:03.2	356.640	0.790	-1.000	0.400
2020/01/31 16:27:03.3	356.670	0.740	-1.000	0.330
2020/01/31 16:27:03.4	356.700	0.680	-1.000	0.260
2020/01/31 16:27:03.5	356.740	0.620	-0.990	0.190
2020/01/31 16:27:03.6	356.780	0.570	-0.990	0.110
2020/01/31 16:27:03.7	356.810	0.510	-0.980	0.030
2020/01/31 16:27:03.8	356.850	0.450	-0.970	-0.050
2020/01/31 16:27:03.9	356.900	0.380	-0.960	-0.130
2020/01/31 16:27:04.0	356.940	0.320	-0.940	-0.200
2020/01/31 16:27:04.1	356.990	0.260	-0.930	-0.290
2020/01/31 16:27:04.2	357.040	0.200	-0.910	-0.360
2020/01/31 16:27:04.3	357.090	0.140	-0.890	-0.440
2020/01/31 16:27:04.4	357.130	0.080	-0.870	-0.520
2020/01/31 16:27:04.5	357.190	0.030	-0.850	-0.600
2020/01/31 16:27:04.6	357.240	-0.030	-0.820	-0.680
2020/01/31 16:27:04.7	357.280	-0.080	-0.800	-0.760
2020/01/31 16:27:04.8	357.330	-0.140	-0.770	-0.830
2020/01/31 16:27:04.9	357.380	-0.190	-0.740	-0.900
2020/01/31 16:27:05.0	357.440	-0.230	-0.710	-0.970
2020/01/31 16:27:05.1	357.490	-0.280	-0.680	-1.040
2020/01/31 16:27:05.2	357.540	-0.320	-0.640	-1.100
2020/01/31 16:27:05.3	357.600	-0.360	-0.610	-1.160
2020/01/31 16:27:05.4	357.650	-0.400	-0.570	-1.220
2020/01/31 16:27:05.5	357.700	-0.430	-0.540	-1.270
2020/01/31 16:27:05.6	357.760	-0.460	-0.500	-1.330
2020/01/31 16:27:05.7	357.810	-0.480	-0.470	-1.380
2020/01/31 16:27:05.8	357.860	-0.510	-0.430	-1.420
2020/01/31 16:27:05.9	357.920	-0.530	-0.400	-1.460
2020/01/31 16:27:06.0	357.970	-0.550	-0.360	-1.500
2020/01/31 16:27:06.1	358.020	-0.560	-0.330	-1.530
2020/01/31 16:27:06.2	358.070	-0.570	-0.290	-1.560
2020/01/31 16:27:06.3	358.120	-0.580	-0.260	-1.580
2020/01/31 16:27:06.4	358.160	-0.590	-0.220	-1.600
2020/01/31 16:27:06.5	358.200	-0.590	-0.190	-1.610
2020/01/31 16:27:06.6	358.240	-0.590	-0.150	-1.610
2020/01/31 16:27:06.7	358.270	-0.590	-0.120	-1.610
2020/01/31 16:27:06.8	358.300	-0.590	-0.080	-1.600
2020/01/31 16:27:06.9	358.330	-0.580	-0.050	-1.590
2020/01/31 16:27:07.0	358.350	-0.580	-0.010	-1.580
2020/01/31 16:27:07.1	358.380	-0.570	0.020	-1.560
2020/01/31 16:27:07.2	358.390	-0.560	0.060	-1.540
2020/01/31 16:27:07.3	358.410	-0.560	0.090	-1.510
2020/01/31 16:27:07.4	358.420	-0.540	0.130	-1.480
2020/01/31 16:27:07.5	358.420	-0.530	0.160	-1.440
2020/01/31 16:27:07.6	358.430	-0.520	0.200	-1.400
2020/01/31 16:27:07.7	358.420	-0.510	0.230	-1.360
2020/01/31 16:27:07.8	358.410	-0.490	0.270	-1.310
2020/01/31 16:27:07.9	358.400	-0.480	0.300	-1.260
2020/01/31 16:27:08.0	358.390	-0.460	0.330	-1.210
2020/01/31 16:27:08.1	358.380	-0.440	0.360	-1.150
2020/01/31 16:27:08.2	358.360	-0.430	0.390	-1.090
2020/01/31 16:27:08.3	358.340	-0.410	0.420	-1.030
2020/01/31 16:27:08.4	358.310	-0.390	0.450	-0.960
2020/01/31 16:27:08.5	358.290	-0.370	0.480	-0.890
2020/01/31 16:27:08.6	358.260	-0.340	0.510	-0.820
2020/01/31 16:27:08.7	358.200	-0.320	0.530	-0.750
2020/01/31 16:27:08.8	358.170	-0.300	0.550	-0.670
2020/01/31 16:27:08.9	358.130	-0.270	0.570	-0.590
2020/01/31 16:27:09.0	358.080	-0.250	0.590	-0.510
2020/01/31 16:27:09.1	358.040	-0.220	0.600	-0.430
2020/01/31 16:27:09.2	357.990	-0.190	0.610	-0.340
2020/01/31 16:27:09.3	357.940	-0.160	0.620	-0.260
2020/01/31 16:27:09.4	357.890	-0.130	0.630	-0.170
2020/01/31 16:27:09.5	357.840	-0.100	0.630	-0.090
2020/01/31 16:27:09.6	357.790	-0.070	0.630	-0.010
2020/01/31 16:27:09.7	357.730	-0.040	0.630	0.080
2020/01/31 16:27:09.8	357.680	-0.010	0.620	0.160
2020/01/31 16:27:09.9	357.620	0.020	0.610	0.240
2020/01/31 16:27:10.0	357.560	0.050	0.590	0.310
2020/01/31 16:27:10.1	357.510	0.090	0.570	0.380
2020/01/31 16:27:10.2	357.450	0.120	0.550	0.450
2020/01/31 16:27:10.3	357.400	0.150	0.520	0.510
2020/01/31 16:27:10.4	357.340	0.180	0.490	0.570
2020/01/31 16:27:10.5	357.290	0.220	0.450	0.630
2020/01/31 16:27:10.6	357.240	0.250	0.410	0.670
2020/01/31 16:27:10.7	357.180	0.280	0.360	0.720
2020/01/31 16:27:10.8	357.130	0.300	0.310	0.760
2020/01/31 16:27:10.9	357.080	0.330	0.260	0.790
2020/01/31 16:27:11.0	357.030	0.350	0.200	0.810
2020/01/31 16:27:11.1	356.990	0.380	0.140	0.830
2020/01/31 16:27:11.2	356.940	0.400	0.080	0.840
2020/01/31 16:27:11.3	356.890	0.420	0.020	0.850
2020/01/31 16:27:11.4	356.850	0.430	-0.040	0.850
2020/01/31 16:27:11.5	356.800	0.440	-0.100	0.840
2020/01/31 16:27:11.6	356.760	0.450	-0.160	0.830
2020/01/31 16:27:11.7	356.730	0.460	-0.210	0.810
2020/01/31 16:27:11.8	356.690	0.460	-0.270	0.790
2020/01/31 16:27:11.9	356.650	0.460	-0.330	0.760
2020/01/31 16:27:12.0	356.620	0.460	-0.380	0.730
2020/01/31 16:27:12.1	356.580	0.450	-0.430	0.690
2020/01/31 16:27:12.2	356.550	0.440	-0.480	0.650
2020/01/31 16:27:12.3	356.520	0.430	-0.530	0.600
2020/01/31 16:27:12.4	356.490	0.410	-0.570	0.550
2020/01/31 16:27:12.5	356.460	0.390	-0.600	0.500
2020/01/31 16:27:12.6	356.430	0.370	-0.640	0.450
2020/01/31 16:27:12.7	356.430	0.350	-0.670	0.380
2020/01/31 16:27:12.8	356.410	0.320	-0.690	0.330
2020/01/31 16:27:12.9	356.400	0.300	-0.710	0.270
2020/01/31 16:27:13.0	356.380	0.270	-0.730	0.200
2020/01/31 16:27:13.1	356.370	0.240	-0.740	0.140
2020/01/31 16:27:13.2	356.370	0.210	-0.760	0.080
2020/01/31 16:27:13.3	356.370	0.180	-0.760	0.010
2020/01/31 16:27:13.4	356.370	0.140	-0.770	-0.060
2020/01/31 16:27:13.5	356.370	0.110	-0.780	-0.130
2020/01/31 16:27:13.6	356.380	0.080	-0.780	-0.200
2020/01/31 16:27:13.7	356.400	0.050	-0.780	-0.270
2020/01/31 16:27:13.8	356.420	0.020	-0.780	-0.340
2020/01/31 16:27:13.9	356.440	-0.010	-0.780	-0.410
2020/01/31 16:27:14.0	356.460	-0.040	-0.780	-0.480
2020/01/31 16:27:14.1	356.490	-0.060	-0.780	-0.550
2020/01/31 16:27:14.2	356.520	-0.090	-0.780	-0.620
2020/01/31 16:27:14.3	356.560	-0.110	-0.780	-0.680
2020/01/31 16:27:14.4	356.600	-0.130	-0.770	-0.750
2020/01/31 16:27:14.5	356.640	-0.150	-0.770	-0.810
2020/01/31 16:27:14.6	356.680	-0.160	-0.770	-0.870
2020/01/31 16:27:14.7	356.730	-0.180	-0.770	-0.940
2020/01/31 16:27:14.8	356.790	-0.190	-0.770	-1.000
2020/01/31 16:27:14.9	356.840	-0.200	-0.770	-1.050
2020/01/31 16:27:15.0	356.890	-0.210	-0.760	-1.110
2020/01/31 16:27:15.1	356.950	-0.210	-0.760	-1.160
2020/01/31 16:27:15.2	357.010	-0.220	-0.760	-1.210
2020/01/31 16:27:15.3	357.070	-0.220	-0.750	-1.260
2020/01/31 16:27:15.4	357.130	-0.220	-0.740	-1.310
2020/01/31 16:27:15.5	357.190	-0.220	-0.740	-1.350
2020/01/31 16:27:15.6	357.250	-0.220	-0.730	-1.390
2020/01/31 16:27:15.7	357.320	-0.210	-0.720	-1.420
2020/01/31 16:27:15.8	357.380	-0.210	-0.700	-1.450
2020/01/31 16:27:15.9	357.440	-0.200	-0.690	-1.480
2020/01/31 16:27:16.0	357.500	-0.190	-0.670	-1.490
2020/01/31 16:27:16.1	357.560	-0.180	-0.650	-1.510
2020/01/31 16:27:16.2	357.620	-0.180	-0.630	-1.510
2020/01/31 16:27:16.3	357.670	-0.170	-0.610	-1.510
2020/01/31 16:27:16.4	357.730	-0.160	-0.580	-1.510
2020/01/31 16:27:16.5	357.780	-0.150	-0.550	-1.490
2020/01/31 16:27:16.6	357.820	-0.140	-0.520	-1.480
2020/01/31 16:27:16.7	357.870	-0.130	-0.490	-1.450
2020/01/31 16:27:16.8	357.910	-0.120	-0.460	-1.420
2020/01/31 16:27:16.9	357.950	-0.120	-0.420	-1.390
2020/01/31 16:27:17.0	357.980	-0.110	-0.380	-1.350
2020/01/31 16:27:17.1	358.010	-0.110	-0.350	-1.310
2020/01/31 16:27:17.2	358.030	-0.110	-0.310	-1.270
2020/01/31 16:27:17.3	358.060	-0.100	-0.270	-1.220
2020/01/31 16:27:17.4	358.080	-0.100	-0.240	-1.170
2020/01/31 16:27:17.5	358.090	-0.100	-0.200	-1.120
2020/01/31 16:27:17.6	358.100	-0.110	-0.170	-1.070
2020/01/31 16:27:17.7	358.100	-0.110	-0.140	-1.020
2020/01/31 16:27:17.8	358.110	-0.120	-0.110	-0.970
2020/01/31 16:27:17.9	358.110	-0.120	-0.090	-0.920
2020/01/31 16:27:18.0	358.110	-0.130	-0.070	-0.870
2020/01/31 16:27:18.1	358.110	-0.140	-0.050	-0.820
2020/01/31 16:27:18.2	358.110	-0.150	-0.040	-0.780
2020/01/31 16:27:18.3	358.100	-0.150	-0.030	-0.730
2020/01/31 16:27:18.4	358.100	-0.160	-0.020	-0.700
2020/01/31 16:27:18.5	358.090	-0.170	-0.030	-0.660
2020/01/31 16:27:18.6	358.080	-0.180	-0.030	-0.630
2020/01/31 16:27:18.7	358.050	-0.190	-0.040	-0.600
2020/01/31 16:27:18.8	358.040	-0.190	-0.060	-0.570
2020/01/31 16:27:18.9	358.020	-0.200	-0.070	-0.540
2020/01/31 16:27:19.0	358.010	-0.210	-0.090	-0.520
2020/01/31 16:27:19.1	357.990	-0.210	-0.120	-0.500
2020/01/31 16:27:19.2	357.970	-0.210	-0.140	-0.480
2020/01/31 16:27:19.3	357.960	-0.210	-0.170	-0.470
2020/01/31 16:27:19.4	357.930	-0.210	-0.200	-0.450
2020/01/31 16:27:19.5	357.910	-0.210	-0.220	-0.440
2020/01/31 16:27:19.6	357.890	-0.210	-0.250	-0.430
2020/01/31 16:27:19.7	357.860	-0.200	-0.270	-0.420
2020/01/31 16:27:19.8	357.840	-0.190	-0.300	-0.410
2020/01/31 16:27:19.9	357.810	-0.180	-0.320	-0.400
2020/01/31 16:27:20.0	357.790	-0.170	-0.350	-0.390
2020/01/31 16:27:20.1	357.760	-0.160	-0.360	-0.380
2020/01/31 16:27:20.2	357.730	-0.140	-0.380	-0.370
2020/01/31 16:27:20.3	357.700	-0.130	-0.390	-0.360
2020/01/31 16:27:20.4	357.670	-0.110	-0.400	-0.350
2020/01/31 16:27:20.5	357.640	-0.090	-0.400	-0.340
2020/01/31 16:27:20.6	357.610	-0.070	-0.400	-0.320
2020/01/31 16:27:20.7	357.570	-0.040	-0.400	-0.300
2020/01/31 16:27:20.8	357.530	-0.020	-0.380	-0.290
2020/01/31 16:27:20.9	357.490	0.010	-0.370	-0.260
2020/01/31 16:27:21.0	357.450	0.030	-0.340	-0.240
2020/01/31 16:27:21.1	357.400	0.060	-0.320	-0.210
2020/01/31 16:27:21.2	357.350	0.090	-0.280	-0.180
2020/01/31 16:27:21.3	357.300	0.110	-0.240	-0.140
2020/01/31 16:27:21.4	357.250	0.140	-0.200	-0.100
2020/01/31 16:27:21.5	357.200	0.170	-0.150	-0.060
2020/01/31 16:27:21.6	357.140	0.200	-0.100	-0.010
2020/01/31 16:27:21.7	357.090	0.220	-0.040	0.030
2020/01/31 16:27:21.8	357.030	0.250	0.020	0.080
2020/01/31 16:27:21.9	356.970	0.270	0.080	0.140
2020/01/31 16:27:22.0	356.900	0.300	0.140	0.190
2020/01/31 16:27:22.1	356.840	0.320	0.200	0.250
2020/01/31 16:27:22.2	356.780	0.350	0.260	0.310
2020/01/31 16:27:22.3	356.720	0.370	0.320	0.360
2020/01/31 16:27:22.4	356.670	0.390	0.380	0.420
2020/01/31 16:27:22.5	356.610	0.410	0.440	0.470
2020/01/31 16:27:22.6	356.560	0.430	0.490	0.520
2020/01/31 16:27:22.7	356.520	0.450	0.540	0.570
2020/01/31 16:27:22.8	356.470	0.460	0.580	0.620
2020/01/31 16:27:22.9	356.430	0.480	0.620	0.660
2020/01/31 16:27:23.0	356.400	0.490	0.650	0.700
2020/01/31 16:27:23.1	356.370	0.510	0.670	0.730
2020/01/31 16:27:23.2	356.340	0.520	0.690	0.750
2020/01/31 16:27:23.3	356.320	0.530	0.690	0.770
2020/01/31 16:27:23.4	356.300	0.540	0.690	0.780
2020/01/31 16:27:23.5	356.290	0.550	0.690	0.780
2020/01/31 16:27:23.6	356.290	0.550	0.670	0.780
2020/01/31 16:27:23.7	356.290	0.560	0.650	0.770
2020/01/31 16:27:23.8	356.300	0.570	0.620	0.760
2020/01/31 16:27:23.9	356.310	0.570	0.580	0.730
2020/01/31 16:27:24.0	356.320	0.570	0.530	0.710
2020/01/31 16:27:24.1	356.340	0.570	0.480	0.670
2020/01/31 16:27:24.2	356.360	0.560	0.420	0.640
2020/01/31 16:27:24.3	356.390	0.560	0.360	0.590
2020/01/31 16:27:24.4	356.420	0.550	0.300	0.550
2020/01/31 16:27:24.5	356.450	0.540	0.230	0.500
2020/01/31 16:27:24.6	356.480	0.520	0.160	0.440
2020/01/31 16:27:24.7	356.520	0.500	0.080	0.380
2020/01/31 16:27:24.8	356.550	0.480	0.010	0.320
2020/01/31 16:27:24.9	356.590	0.450	-0.070	0.250
2020/01/31 16:27:25.0	356.620	0.420	-0.140	0.190
2020/01/31 16:27:25.1	356.660	0.390	-0.210	0.120
2020/01/31 16:27:25.2	356.690	0.350	-0.280	0.050
2020/01/31 16:27:25.3	356.730	0.310	-0.350	-0.010
2020/01/31 16:27:25.4	356.760	0.270	-0.420	-0.080
2020/01/31 16:27:25.5	356.800	0.220	-0.490	-0.150
2020/01/31 16:27:25.6	356.830	0.170	-0.550	-0.210
2020/01/31 16:27:25.7	356.880	0.120	-0.610	-0.280
2020/01/31 16:27:25.8	356.910	0.060	-0.660	-0.350
2020/01/31 16:27:25.9	356.950	0.000	-0.710	-0.410
2020/01/31 16:27:26.0	356.980	-0.060	-0.760	-0.470
2020/01/31 16:27:26.1	357.010	-0.120	-0.800	-0.540
2020/01/31 16:27:26.2	357.040	-0.180	-0.840	-0.600
2020/01/31 16:27:26.3	357.070	-0.240	-0.870	-0.660
2020/01/31 16:27:26.4	357.110	-0.300	-0.900	-0.720
2020/01/31 16:27:26.5	357.140	-0.370	-0.930	-0.770
2020/01/31 16:27:26.6	357.170	-0.430	-0.950	-0.830
2020/01/31 16:27:26.7	357.200	-0.490	-0.960	-0.890
2020/01/31 16:27:26.8	357.230	-0.550	-0.970	-0.940
2020/01/31 16:27:26.9	357.260	-0.600	-0.980	-0.990
2020/01/31 16:27:27.0	357.290	-0.650	-0.990	-1.040
2020/01/31 16:27:27.1	357.320	-0.700	-0.990	-1.080
2020/01/31 16:27:27.2	357.350	-0.750	-0.990	-1.130
2020/01/31 16:27:27.3	357.390	-0.790	-0.990	-1.170
2020/01/31 16:27:27.4	357.420	-0.830	-0.980	-1.220
2020/01/31 16:27:27.5	357.450	-0.860	-0.970	-1.260
2020/01/31 16:27:27.6	357.480	-0.880	-0.960	-1.290
2020/01/31 16:27:27.7	357.490	-0.900	-0.960	-1.330
2020/01/31 16:27:27.8	357.520	-0.910	-0.940	-1.360
2020/01/31 16:27:27.9	357.550	-0.920	-0.920	-1.380
2020/01/31 16:27:28.0	357.580	-0.920	-0.910	-1.400
2020/01/31 16:27:28.1	357.600	-0.910	-0.890	-1.420
2020/01/31 16:27:28.2	357.630	-0.890	-0.860	-1.420
2020/01/31 16:27:28.3	357.650	-0.870	-0.840	-1.420
2020/01/31 16:27:28.4	357.680	-0.840	-0.820	-1.410
2020/01/31 16:27:28.5	357.700	-0.800	-0.790	-1.400
2020/01/31 16:27:28.6	357.720	-0.760	-0.760	-1.380
2020/01/31 16:27:28.7	357.730	-0.710	-0.730	-1.350
2020/01/31 16:27:28.8	357.750	-0.660	-0.710	-1.320
2020/01/31 16:27:28.9	357.760	-0.610	-0.680	-1.280
2020/01/31 16:27:29.0	357.760	-0.550	-0.650	-1.240
2020/01/31 16:27:29.1	357.770	-0.490	-0.620	-1.190
2020/01/31 16:27:29.2	357.770	-0.420	-0.590	-1.140
2020/01/31 16:27:29.3	357.770	-0.350	-0.560	-1.080
2020/01/31 16:27:29.4	357.760	-0.290	-0.530	-1.020
2020/01/31 16:27:29.5	357.760	-0.220	-0.500	-0.960
2020/01/31 16:27:29.6	357.750	-0.150	-0.480	-0.900
2020/01/31 16:27:29.7	357.730	-0.080	-0.450	-0.840
2020/01/31 16:27:29.8	357.720	-0.020	-0.430	-0.770
2020/01/31 16:27:29.9	357.700	0.050	-0.410	-0.710
2020/01/31 16:27:30.0	357.680	0.110	-0.380	-0.650
2020/01/31 16:27:30.1	357.660	0.170	-0.360	-0.590
2020/01/31 16:27:30.2	357.640	0.230	-0.340	-0.530
2020/01/31 16:27:30.3	357.620	0.280	-0.330	-0.470
2020/01/31 16:27:30.4	357.600	0.330	-0.310	-0.410
2020/01/31 16:27:30.5	357.580	0.370	-0.300	-0.350
2020/01/31 16:27:30.6	357.550	0.420	-0.280	-0.300
2020/01/31 16:27:30.7	357.530	0.450	-0.270	-0.240
2020/01/31 16:27:30.8	357.510	0.480	-0.260	-0.200
2020/01/31 16:27:30.9	357.490	0.510	-0.250	-0.150
2020/01/31 16:27:31.0	357.470	0.530	-0.240	-0.110
2020/01/31 16:27:31.1	357.450	0.550	-0.230	-0.070
2020/01/31 16:27:31.2	357.430	0.560	-0.210	-0.040
2020/01/31 16:27:31.3	357.410	0.570	-0.200	-0.000
2020/01/31 16:27:31.4	357.400	0.570	-0.190	0.020
2020/01/31 16:27:31.5	357.380	0.570	-0.180	0.050
2020/01/31 16:27:31.6	357.360	0.560	-0.160	0.070
2020/01/31 16:27:31.7	357.350	0.550	-0.150	0.090
2020/01/31 16:27:31.8	357.330	0.530	-0.130	0.100
2020/01/31 16:27:31.9	357.320	0.510	-0.110	0.110
2020/01/31 16:27:32.0	357.310	0.490	-0.090	0.120
2020/01/31 16:27:32.1	357.290	0.470	-0.060	0.120
2020/01/31 16:27:32.2	357.280	0.440	-0.030	0.120
2020/01/31 16:27:32.3	357.270	0.410	-0.000	0.120
2020/01/31 16:27:32.4	357.260	0.380	0.030	0.120
2020/01/31 16:27:32.5	357.250	0.350	0.070	0.120
2020/01/31 16:27:32.6	357.250	0.320	0.110	0.120
2020/01/31 16:27:32.7	357.230	0.290	0.150	0.110
2020/01/31 16:27:32.8	357.220	0.260	0.190	0.100
2020/01/31 16:27:32.9	357.220	0.230	0.230	0.100
2020/01/31 16:27:33.0	357.220	0.200	0.270	0.090
2020/01/31 16:27:33.1	357.220	0.170	0.310	0.090
2020/01/31 16:27:33.2	357.220	0.150	0.350	0.080
2020/01/31 16:27:33.3	357.220	0.120	0.390	0.070
2020/01/31 16:27:33.4	357.230	0.100	0.430	0.070
2020/01/31 16:27:33.5	357.230	0.080	0.460	0.060
2020/01/31 16:27:33.6	357.240	0.070	0.490	0.050
2020/01/31 16:27:33.7	357.260	0.050	0.520	0.040
2020/01/31 16:27:33.8	357.270	0.050	0.540	0.030
2020/01/31 16:27:33.9	357.280	0.040	0.560	0.010
2020/01/31 16:27:34.0	357.290	0.040	0.570	0.000
2020/01/31 16:27:34.1	357.310	0.040	0.570	-0.010
2020/01/31 16:27:34.2	357.330	0.040	0.570	-0.030
2020/01/31 16:27:34.3	357.340	0.050	0.570	-0.050
2020/01/31 16:27:34.4	357.360	0.060	0.560	-0.060
2020/01/31 16:27:34.5	357.380	0.070	0.540	-0.080
2020/01/31 16:27:34.6	357.390	0.090	0.520	-0.100
2020/01/31 16:27:34.7	357.420	0.110	0.500	-0.120
2020/01/31 16:27:34.8	357.430	0.120	0.470	-0.140
2020/01/31 16:27:34.9	357.450	0.140	0.430	-0.160
2020/01/31 16:27:35.0	357.460	0.160	0.390	-0.180
2020/01/31 16:27:35.1	357.470	0.180	0.350	-0.200
2020/01/31 16:27:35.2	357.480	0.200	0.310	-0.220
2020/01/31 16:27:35.3	357.480	0.220	0.260	-0.240
2020/01/31 16:27:35.4	357.480	0.240	0.210	-0.250
2020/01/31 16:27:35.5	357.480	0.250	0.150	-0.270
2020/01/31 16:27:35.6	357.480	0.270	0.100	-0.290
2020/01/31 16:27:35.7	357.470	0.280	0.040	-0.300
2020/01/31 16:27:35.8	357.460	0.290	-0.010	-0.310
2020/01/31 16:27:35.9	357.450	0.290	-0.070	-0.320
2020/01/31 16:27:36.0	357.430	0.290	-0.120	-0.330
2020/01/31 16:27:36.1	357.420	0.290	-0.180	-0.340
2020/01/31 16:27:36.2	357.400	0.290	-0.230	-0.360
2020/01/31 16:27:36.3	357.380	0.280	-0.290	-0.370
2020/01/31 16:27:36.4	357.360	0.270	-0.340	-0.380
2020/01/31 16:27:36.5	357.330	0.250	-0.390	-0.400
2020/01/31 16:27:36.6	357.310	0.230	-0.440	-0.420
2020/01/31 16:27:36.7	357.300	0.200	-0.490	-0.440
2020/01/31 16:27:36.8	357.280	0.170	-0.530	-0.470
2020/01/31 16:27:36.9	357.260	0.140	-0.580	-0.500
2020/01/31 16:27:37.0	357.240	0.110	-0.620	-0.530
2020/01/31 16:27:37.1	357.230	0.070	-0.650	-0.570
2020/01/31 16:27:37.2	357.220	0.030	-0.690	-0.610
2020/01/31 16:27:37.3	357.210	-0.010	-0.720	-0.650
2020/01/31 16:27:37.4	357.200	-0.060	-0.750	-0.690
2020/01/31 16:27:37.5	357.190	-0.110	-0.780	-0.740
2020/01/31 16:27:37.6	357.190	-0.150	-0.800	-0.790
2020/01/31 16:27:37.7	357.200	-0.200	-0.820	-0.850
2020/01/31 16:27:37.8	357.200	-0.250	-0.840	-0.900
2020/01/31 16:27:37.9	357.210	-0.300	-0.850	-0.960
2020/01/31 16:27:38.0	357.230	-0.340	-0.870	-1.020
2020/01/31 16:27:38.1	357.240	-0.390	-0.880	-1.070
2020/01/31 16:27:38.2	357.260	-0.430	-0.890	-1.130
2020/01/31 16:27:38.3	357.280	-0.470	-0.890	-1.180
2020/01/31 16:27:38.4	357.310	-0.510	-0.890	-1.230
2020/01/31 16:27:38.5	357.330	-0.540	-0.890	-1.280
2020/01/31 16:27:38.6	357.360	-0.570	-0.890	-1.320
2020/01/31 16:27:38.7	357.380	-0.590	-0.880	-1.370
2020/01/31 16:27:38.8	357.410	-0.620	-0.870	-1.410
2020/01/31 16:27:38.9	357.440	-0.630	-0.850	-1.440
2020/01/31 16:27:39.0	357.470	-0.640	-0.830	-1.460
2020/01/31 16:27:39.1	357.500	-0.650	-0.810	-1.480
2020/01/31 16:27:39.2	357.540	-0.660	-0.780	-1.490
2020/01/31 16:27:39.3	357.570	-0.660	-0.740	-1.490
2020/01/31 16:27:39.4	357.600	-0.650	-0.710	-1.490
2020/01/31 16:27:39.5	357.630	-0.640	-0.670	-1.490
2020/01/31 16:27:39.6	357.650	-0.630	-0.630	-1.480
2020/01/31 16:27:39.7	357.680	-0.610	-0.590	-1.460
2020/01/31 16:27:39.8	357.700	-0.590	-0.540	-1.440
2020/01/31 16:27:39.9	357.730	-0.570	-0.490	-1.410
2020/01/31 16:27:40.0	357.760	-0.550	-0.440	-1.380
2020/01/31 16:27:40.1	357.780	-0.520	-0.400	-1.350
2020/01/31 16:27:40.2	357.800	-0.490	-0.350	-1.310
2020/01/31 16:27:40.3	357.830	-0.460	-0.300	-1.280
2020/01/31 16:27:40.4	357.850	-0.420	-0.250	-1.230
2020/01/31 16:27:40.5	357.870	-0.390	-0.200	-1.190
2020/01/31 16:27:40.6	357.890	-0.350	-0.160	-1.140
2020/01/31 16:27:40.7	357.900	-0.310	-0.120	-1.100
2020/01/31 16:27:40.8	357.920	-0.280	-0.080	-1.050
2020/01/31 16:27:40.9	357.930	-0.240	-0.040	-1.000
2020/01/31 16:27:41.0	357.950	-0.200	-0.010	-0.940
2020/01/31 16:27:41.1	357.960	-0.160	0.010	-0.890
2020/01/31 16:27:41.2	357.980	-0.130	0.040	-0.830
2020/01/31 16:27:41.3	357.990	-0.090	0.050	-0.770
2020/01/31 16:27:41.4	358.000	-0.050	0.070	-0.720
2020/01/31 16:27:41.5	358.010	-0.020	0.080	-0.660
2020/01/31 16:27:41.6	358.020	0.010	0.080	-0.600
2020/01/31 16:27:41.7	358.020	0.050	0.070	-0.540
2020/01/31 16:27:41.8	358.030	0.080	0.070	-0.480
2020/01/31 16:27:41.9	358.040	0.110	0.060	-0.430
2020/01/31 16:27:42.0	358.040	0.130	0.040	-0.370
2020/01/31 16:27:42.1	358.050	0.160	0.020	-0.320
2020/01/31 16:27:42.2	358.050	0.180	0.000	-0.270
2020/01/31 16:27:42.3	358.060	0.210	-0.030	-0.220
2020/01/31 16:27:42.4	358.070	0.230	-0.060	-0.180
2020/01/31 16:27:42.5	358.070	0.250	-0.090	-0.140
2020/01/31 16:27:42.6	358.080	0.260	-0.130	-0.100
2020/01/31 16:27:42.7	358.080	0.280	-0.160	-0.070
2020/01/31 16:27:42.8	358.090	0.290	-0.200	-0.040
2020/01/31 16:27:42.9	358.100	0.300	-0.240	-0.010
2020/01/31 16:27:43.0	358.110	0.320	-0.280	0.010
2020/01/31 16:27:43.1	358.110	0.330	-0.320	0.030
2020/01/31 16:27:43.2	358.120	0.330	-0.360	0.040
2020/01/31 16:27:43.3	358.130	0.340	-0.400	0.050
2020/01/31 16:27:43.4	358.140	0.340	-0.440	0.060
2020/01/31 16:27:43.5	358.140	0.350	-0.470	0.060
2020/01/31 16:27:43.6	358.150	0.350	-0.500	0.060
2020/01/31 16:27:43.7	358.150	0.350	-0.530	0.050
2020/01/31 16:27:43.8	358.150	0.350	-0.550	0.050
2020/01/31 16:27:43.9	358.150	0.350	-0.570	0.050
2020/01/31 16:27:44.0	358.150	0.350	-0.580	0.050
2020/01/31 16:27:44.1	358.150	0.350	-0.580	0.040
2020/01/31 16:27:44.2	358.150	0.340	-0.580	0.040
2020/01/31 16:27:44.3	358.140	0.340	-0.580	0.040
2020/01/31 16:27:44.4	358.140	0.330	-0.560	0.030
2020/01/31 16:27:44.5	358.130	0.320	-0.550	0.030
2020/01/31 16:27:44.6	358.110	0.320	-0.520	0.030
2020/01/31 16:27:44.7	358.090	0.310	-0.500	0.020
2020/01/31 16:27:44.8	358.070	0.290	-0.470	0.020
2020/01/31 16:27:44.9	358.050	0.280	-0.430	0.020
2020/01/31 16:27:45.0	358.030	0.270	-0.390	0.010
2020/01/31 16:27:45.1	358.010	0.250	-0.350	0.010
2020/01/31 16:27:45.2	357.990	0.240	-0.300	0.000
2020/01/31 16:27:45.3	357.960	0.220	-0.250	-0.000
2020/01/31 16:27:45.4	357.930	0.210	-0.210	-0.010
2020/01/31 16:27:45.5	357.900	0.190	-0.160	-0.010
2020/01/31 16:27:45.6	357.880	0.170	-0.110	-0.020
2020/01/31 16:27:45.7	357.850	0.160	-0.060	-0.030
2020/01/31 16:27:45.8	357.820	0.140	-0.010	-0.030
2020/01/31 16:27:45.9	357.790	0.120	0.040	-0.040
2020/01/31 16:27:46.0	357.760	0.110	0.080	-0.050
2020/01/31 16:27:46.1	357.730	0.090	0.120	-0.060
2020/01/31 16:27:46.2	357.700	0.080	0.160	-0.080
2020/01/31 16:27:46.3	357.680	0.060	0.190	-0.090
2020/01/31 16:27:46.4	357.650	0.050	0.220	-0.110
2020/01/31 16:27:46.5	357.630	0.040	0.250	-0.130
2020/01/31 16:27:46.6	357.610	0.030	0.270	-0.150
2020/01/31 16:27:46.7	357.590	0.030	0.280	-0.180
2020/01/31 16:27:46.8	357.580	0.020	0.290	-0.200
2020/01/31 16:27:46.9	357.570	0.020	0.300	-0.230
2020/01/31 16:27:47.0	357.570	0.020	0.300	-0.260
2020/01/31 16:27:47.1	357.560	0.030	0.300	-0.290
2020/01/31 16:27:47.2	357.570	0.030	0.290	-0.320
2020/01/31 16:27:47.3	357.570	0.040	0.270	-0.350
2020/01/31 16:27:47.4	357.580	0.050	0.250	-0.380
2020/01/31 16:27:47.5	357.590	0.060	0.230	-0.410
2020/01/31 16:27:47.6	357.600	0.080	0.200	-0.450
2020/01/31 16:27:47.7	357.610	0.100	0.170	-0.480
2020/01/31 16:27:47.8	357.620	0.120	0.140	-0.510
2020/01/31 16:27:47.9	357.640	0.140	0.100	-0.540
2020/01/31 16:27:48.0	357.660	0.160	0.060	-0.560
2020/01/31 16:27:48.1	357.680	0.180	0.020	-0.580
2020/01/31 16:27:48.2	357.700	0.210	-0.020	-0.600
2020/01/31 16:27:48.3	357.710	0.230	-0.060	-0.610
2020/01/31 16:27:48.4	357.730	0.250	-0.100	-0.620
2020/01/31 16:27:48.5	357.750	0.270	-0.140	-0.620
2020/01/31 16:27:48.6	357.760	0.290	-0.180	-0.630
2020/01/31 16:27:48.7	357.780	0.310	-0.220	-0.620
2020/01/31 16:27:48.8	357.790	0.320	-0.250	-0.620
2020/01/31 16:27:48.9	357.790	0.330	-0.290	-0.620
2020/01/31 16:27:49.0	357.800	0.340	-0.320	-0.610
2020/01/31 16:27:49.1	357.800	0.350	-0.340	-0.600
2020/01/31 16:27:49.2	357.810	0.350	-0.370	-0.590
2020/01/31 16:27:49.3	357.810	0.350	-0.390	-0.570
2020/01/31 16:27:49.4	357.810	0.340	-0.410	-0.560
2020/01/31 16:27:49.5	357.800	0.330	-0.430	-0.550
2020/01/31 16:27:49.6	357.800	0.320	-0.440	-0.530
2020/01/31 16:27:49.7	357.800	0.300	-0.450	-0.510
2020/01/31 16:27:49.8	357.790	0.280	-0.460	-0.490
2020/01/31 16:27:49.9	357.780	0.260	-0.460	-0.480
2020/01/31 16:27:50.0	357.770	0.230	-0.470	-0.460
2020/01/31 16:27:50.1	357.760	0.200	-0.470	-0.450
2020/01/31 16:27:50.2	357.750	0.170	-0.480	-0.430
2020/01/31 16:27:50.3	357.740	0.130	-0.480	-0.420
2020/01/31 16:27:50.4	357.730	0.100	-0.480	-0.400
2020/01/31 16:27:50.5	357.730	0.060	-0.470	-0.390
2020/01/31 16:27:50.6	357.720	0.020	-0.470	-0.380
2020/01/31 16:27:50.7	357.700	-0.020	-0.470	-0.380
2020/01/31 16:27:50.8	357.690	-0.060	-0.470	-0.370
2020/01/31 16:27:50.9	357.690	-0.110	-0.470	-0.360
2020/01/31 16:27:51.0	357.680	-0.150	-0.460	-0.360
2020/01/31 16:27:51.1	357.670	-0.190	-0.460	-0.360
2020/01/31 16:27:51.2	357.670	-0.230	-0.460	-0.360
2020/01/31 16:27:51.3	357.660	-0.270	-0.450	-0.360
2020/01/31 16:27:51.4	357.660	-0.310	-0.450	-0.360
2020/01/31 16:27:51.5	357.650	-0.350	-0.450	-0.370
2020/01/31 16:27:51.6	357.650	-0.380	-0.450	-0.380
2020/01/31 16:27:51.7	357.650	-0.420	-0.450	-0.390
2020/01/31 16:27:51.8	357.650	-0.450	-0.450	-0.410
2020/01/31 16:27:51.9	357.650	-0.480	-0.450	-0.430
2020/01/31 16:27:52.0	357.650	-0.500	-0.450	-0.450
2020/01/31 16:27:52.1	357.660	-0.520	-0.450	-0.470
2020/01/31 16:27:52.2	357.660	-0.540	-0.450	-0.490
2020/01/31 16:27:52.3	357.670	-0.560	-0.450	-0.520
2020/01/31 16:27:52.4	357.680	-0.570	-0.460	-0.550
2020/01/31 16:27:52.5	357.700	-0.580	-0.460	-0.580
2020/01/31 16:27:52.6	357.710	-0.590	-0.460	-0.620
2020/01/31 16:27:52.7	357.720	-0.600	-0.470	-0.660
2020/01/31 16:27:52.8	357.740	-0.600	-0.470	-0.690
2020/01/31 16:27:52.9	357.760	-0.600	-0.470	-0.730
2020/01/31 16:27:53.0	357.790	-0.600	-0.480	-0.770
2020/01/31 16:27:53.1	357.820	-0.600	-0.480	-0.810
2020/01/31 16:27:53.2	357.850	-0.590	-0.480	-0.850
2020/01/31 16:27:53.3	357.880	-0.580	-0.480	-0.890
2020/01/31 16:27:53.4	357.910	-0.570	-0.470	-0.930
2020/01/31 16:27:53.5	357.950	-0.560	-0.470	-0.970
2020/01/31 16:27:53.6	357.980	-0.550	-0.460	-1.010
2020/01/31 16:27:53.7	358.030	-0.540	-0.450	-1.050
2020/01/31 16:27:53.8	358.070	-0.520	-0.440	-1.080
2020/01/31 16:27:53.9	358.100	-0.510	-0.430	-1.120
2020/01/31 16:27:54.0	358.140	-0.490	-0.410	-1.150
2020/01/31 16:27:54.1	358.180	-0.480	-0.390	-1.170
2020/01/31 16:27:54.2	358.210	-0.470	-0.370	-1.190
2020/01/31 16:27:54.3	358.240	-0.450	-0.350	-1.210
2020/01/31 16:27:54.4	358.270	-0.430	-0.320	-1.220
2020/01/31 16:27:54.5	358.300	-0.420	-0.290	-1.230
2020/01/31 16:27:54.6	358.330	-0.400	-0.260	-1.230
2020/01/31 16:27:54.7	358.350	-0.390	-0.230	-1.220
2020/01/31 16:27:54.8	358.370	-0.370	-0.190	-1.210
2020/01/31 16:27:54.9	358.390	-0.360	-0.150	-1.190
2020/01/31 16:27:55.0	358.410	-0.340	-0.110	-1.170
2020/01/31 16:27:55.1	358.420	-0.320	-0.080	-1.140
2020/01/31 16:27:55.2	358.430	-0.300	-0.040	-1.110
2020/01/31 16:27:55.3	358.430	-0.290	-0.000	-1.070
2020/01/31 16:27:55.4	358.440	-0.270	0.040	-1.030
2020/01/31 16:27:55.5	358.430	-0.250	0.070	-0.980
2020/01/31 16:27:55.6	358.430	-0.220	0.110	-0.930
2020/01/31 16:27:55.7	358.430	-0.200	0.140	-0.870
2020/01/31 16:27:55.8	358.420	-0.180	0.170	-0.810
2020/01/31 16:27:55.9	358.410	-0.150	0.190	-0.740
2020/01/31 16:27:56.0	358.390	-0.120	0.210	-0.670
2020/01/31 16:27:56.1	358.370	-0.090	0.230	-0.600
2020/01/31 16:27:56.2	358.350	-0.060	0.250	-0.520
2020/01/31 16:27:56.3	358.320	-0.020	0.260	-0.440
2020/01/31 16:27:56.4	358.300	0.010	0.270	-0.360
2020/01/31 16:27:56.5	358.260	0.050	0.270	-0.280
2020/01/31 16:27:56.6	358.230	0.090	0.260	-0.190
2020/01/31 16:27:56.7	358.190	0.140	0.260	-0.110
2020/01/31 16:27:56.8	358.150	0.180	0.250	-0.020
2020/01/31 16:27:56.9	358.110	0.230	0.230	0.070
2020/01/31 16:27:57.0	358.060	0.270	0.210	0.160
2020/01/31 16:27:57.1	358.020	0.320	0.190	0.240
2020/01/31 16:27:57.2	357.970	0.370	0.160	0.330
2020/01/31 16:27:57.3	357.920	0.420	0.130	0.410
2020/01/31 16:27:57.4	357.870	0.470	0.100	0.490
2020/01/31 16:27:57.5	357.820	0.520	0.070	0.560
2020/01/31 16:27:57.6	357.770	0.570	0.030	0.630
2020/01/31 16:27:57.7	357.710	0.610	-0.010	0.700
2020/01/31 16:27:57.8	357.660	0.660	-0.040	0.760
2020/01/31 16:27:57.9	357.610	0.700	-0.080	0.820
2020/01/31 16:27:58.0	357.560	0.740	-0.120	0.870
2020/01/31 16:27:58.1	357.510	0.780	-0.160	0.920
2020/01/31 16:27:58.2	357.460	0.820	-0.200	0.960
2020/01/31 16:27:58.3	357.410	0.850	-0.240	0.990
2020/01/31 16:27:58.4	357.360	0.880	-0.280	1.020
2020/01/31 16:27:58.5	357.320	0.900	-0.320	1.040
2020/01/31 16:27:58.6	357.290	0.930	-0.360	1.050
2020/01/31 16:27:58.7	357.270	0.940	-0.400	1.050
2020/01/31 16:27:58.8	357.240	0.960	-0.430	1.050
2020/01/31 16:27:58.9	357.210	0.970	-0.470	1.050
2020/01/31 16:27:59.0	357.200	0.980	-0.500	1.030
2020/01/31 16:27:59.1	357.180	0.980	-0.530	1.020
2020/01/31 16:27:59.2	357.170	0.980	-0.570	0.990
2020/01/31 16:27:59.3	357.170	0.970	-0.590	0.960
2020/01/31 16:27:59.4	357.170	0.960	-0.620	0.920
2020/01/31 16:27:59.5	357.180	0.950	-0.640	0.880
2020/01/31 16:27:59.6	357.190	0.930	-0.660	0.830
2020/01/31 16:27:59.7	357.210	0.910	-0.680	0.770
2020/01/31 16:27:59.8	357.230	0.880	-0.690	0.720
2020/01/31 16:27:59.9	357.250	0.840	-0.710	0.650
2020/01/31 16:28:00.0	357.270	0.810	-0.710	0.580
2020/01/31 16:28:00.1	357.300	0.770	-0.720	0.510
2020/01/31 16:28:00.2	357.320	0.720	-0.720	0.430
2020/01/31 16:28:00.3	357.350	0.670	-0.720	0.350
2020/01/31 16:28:00.4	357.380	0.620	-0.710	0.260
2020/01/31 16:28:00.5	357.410	0.560	-0.700	0.170
2020/01/31 16:28:00.6	357.440	0.510	-0.680	0.080
2020/01/31 16:28:00.7	357.470	0.440	-0.670	-0.010
2020/01/31 16:28:00.8	357.490	0.380	-0.650	-0.110
2020/01/31 16:28:00.9	357.520	0.310	-0.620	-0.200
2020/01/31 16:28:01.0	357.550	0.240	-0.600	-0.300
2020/01/31 16:28:01.1	357.580	0.170	-0.570	-0.390
2020/01/31 16:28:01.2	357.610	0.100	-0.540	-0.490
2020/01/31 16:28:01.3	357.630	0.030	-0.510	-0.590
2020/01/31 16:28:01.4	357.660	-0.040	-0.470	-0.680
2020/01/31 16:28:01.5	357.680	-0.110	-0.440	-0.770
2020/01/31 16:28:01.6	357.710	-0.180	-0.400	-0.860
2020/01/31 16:28:01.7	357.730	-0.250	-0.360	-0.950
2020/01/31 16:28:01.8	357.750	-0.320	-0.330	-1.030
2020/01/31 16:28:01.9	357.780	-0.390	-0.290	-1.110
2020/01/31 16:28:02.0	357.800	-0.450	-0.260	-1.180
2020/01/31 16:28:02.1	357.820	-0.510	-0.230	-1.250
2020/01/31 16:28:02.2	357.840	-0.570	-0.200	-1.310
2020/01/31 16:28:02.3	357.850	-0.620	-0.170	-1.360
2020/01/31 16:28:02.4	357.870	-0.680	-0.140	-1.410
2020/01/31 16:28:02.5	357.880	-0.720	-0.110	-1.450
2020/01/31 16:28:02.6	357.890	-0.770	-0.090	-1.480
2020/01/31 16:28:02.7	357.890	-0.800	-0.070	-1.510
2020/01/31 16:28:02.8	357.890	-0.840	-0.050	-1.530
2020/01/31 16:28:02.9	357.900	-0.870	-0.030	-1.540
2020/01/31 16:28:03.0	357.900	-0.890	-0.020	-1.550
2020/01/31 16:28:03.1	357.900	-0.920	-0.010	-1.550
2020/01/31 16:28:03.2	357.900	-0.930	-0.010	-1.550
2020/01/31 16:28:03.3	357.900	-0.940	-0.010	-1.540
2020/01/31 16:28:03.4	357.900	-0.950	-0.010	-1.530
2020/01/31 16:28:03.5	357.890	-0.950	-0.010	-1.520
2020/01/31 16:28:03.6	357.890	-0.950	-0.020	-1.510
2020/01/31 16:28:03.7	357.890	-0.950	-0.030	-1.490
2020/01/31 16:28:03.8	357.890	-0.940	-0.050	-1.470
2020/01/31 16:28:03.9	357.880	-0.920	-0.060	-1.450
2020/01/31 16:28:04.0	357.880	-0.900	-0.080	-1.420
2020/01/31 16:28:04.1	357.880	-0.880	-0.110	-1.400
2020/01/31 16:28:04.2	357.890	-0.850	-0.130	-1.370
2020/01/31 16:28:04.3	357.890	-0.820	-0.160	-1.340
2020/01/31 16:28:04.4	357.890	-0.790	-0.180	-1.310
2020/01/31 16:28:04.5	357.890	-0.750	-0.210	-1.270
2020/01/31 16:28:04.6	357.900	-0.710	-0.240	-1.240
2020/01/31 16:28:04.7	357.890	-0.670	-0.270	-1.200
2020/01/31 16:28:04.8	357.900	-0.630	-0.290	-1.160
2020/01/31 16:28:04.9	357.900	-0.580	-0.320	-1.110
2020/01/31 16:28:05.0	357.900	-0.530	-0.340	-1.060
2020/01/31 16:28:05.1	357.910	-0.480	-0.360	-1.010
2020/01/31 16:28:05.2	357.910	-0.420	-0.380	-0.950
2020/01/31 16:28:05.3	357.910	-0.370	-0.390	-0.900
2020/01/31 16:28:05.4	357.920	-0.320	-0.400	-0.830
2020/01/31 16:28:05.5	357.920	-0.260	-0.410	-0.770
2020/01/31 16:28:05.6	357.920	-0.210	-0.410	-0.700
2020/01/31 16:28:05.7	357.910	-0.150	-0.400	-0.620
2020/01/31 16:28:05.8	357.910	-0.090	-0.400	-0.550
2020/01/31 16:28:05.9	357.900	-0.040	-0.390	-0.470
2020/01/31 16:28:06.0	357.900	0.010	-0.380	-0.390
2020/01/31 16:28:06.1	357.890	0.070	-0.360	-0.310
2020/01/31 16:28:06.2	357.890	0.120	-0.340	-0.230
2020/01/31 16:28:06.3	357.880	0.170	-0.320	-0.140
2020/01/31 16:28:06.4	357.880	0.220	-0.290	-0.060
2020/01/31 16:28:06.5	357.870	0.260	-0.270	0.020
2020/01/31 16:28:06.6	357.870	0.310	-0.240	0.100
2020/01/31 16:28:06.7	357.870	0.350	-0.210	0.180
2020/01/31 16:28:06.8	357.870	0.390	-0.180	0.260
2020/01/31 16:28:06.9	357.860	0.430	-0.150	0.330
2020/01/31 16:28:07.0	357.850	0.460	-0.120	0.400
2020/01/31 16:28:07.1	357.850	0.490	-0.090	0.470
2020/01/31 16:28:07.2	357.840	0.520	-0.070	0.530
2020/01/31 16:28:07.3	357.840	0.540	-0.040	0.580
2020/01/31 16:28:07.4	357.830	0.570	-0.020	0.640
2020/01/31 16:28:07.5	357.820	0.590	0.010	0.680
2020/01/31 16:28:07.6	357.820	0.600	0.030	0.730
2020/01/31 16:28:07.7	357.820	0.620	0.050	0.760
2020/01/31 16:28:07.8	357.810	0.620	0.060	0.790
2020/01/31 16:28:07.9	357.800	0.630	0.070	0.820
2020/01/31 16:28:08.0	357.790	0.630	0.080	0.840
2020/01/31 16:28:08.1	357.790	0.630	0.090	0.850
2020/01/31 16:28:08.2	357.780	0.630	0.090	0.860
2020/01/31 16:28:08.3	357.770	0.620	0.090	0.870
2020/01/31 16:28:08.4	357.770	0.610	0.090	0.870
2020/01/31 16:28:08.5	357.760	0.600	0.090	0.860
2020/01/31 16:28:08.6	357.750	0.580	0.090	0.850
2020/01/31 16:28:08.7	357.760	0.560	0.080	0.840
2020/01/31 16:28:08.8	357.760	0.540	0.070	0.820
2020/01/31 16:28:08.9	357.750	0.510	0.060	0.800
2020/01/31 16:28:09.0	357.740	0.480	0.050	0.780
2020/01/31 16:28:09.1	357.740	0.450	0.040	0.750
2020/01/31 16:28:09.2	357.730	0.420	0.020	0.710
2020/01/31 16:28:09.3	357.730	0.390	0.010	0.680
2020/01/31 16:28:09.4	357.730	0.350	-0.010	0.640
2020/01/31 16:28:09.5	357.730	0.320	-0.030	0.590
2020/01/31 16:28:09.6	357.730	0.280	-0.040	0.540
2020/01/31 16:28:09.7	357.720	0.240	-0.060	0.490
2020/01/31 16:28:09.8	357.730	0.200	-0.090	0.430
2020/01/31 16:28:09.9	357.730	0.160	-0.110	0.380
2020/01/31 16:28:10.0	357.730	0.120	-0.130	0.320
2020/01/31 16:28:10.1	357.730	0.090	-0.150	0.260
2020/01/31 16:28:10.2	357.730	0.050	-0.180	0.200
2020/01/31 16:28:10.3	357.730	0.010	-0.200	0.150
2020/01/31 16:28:10.4	357.740	-0.030	-0.220	0.090
2020/01/31 16:28:10.5	357.740	-0.060	-0.240	0.040
2020/01/31 16:28:10.6	357.740	-0.100	-0.270	-0.020
2020/01/31 16:28:10.7	357.740	-0.130	-0.280	-0.070
2020/01/31 16:28:10.8	357.730	-0.160	-0.300	-0.130
2020/01/31 16:28:10.9	357.730	-0.190	-0.320	-0.170
2020/01/31 16:28:11.0	357.720	-0.220	-0.340	-0.220
2020/01/31 16:28:11.1	357.720	-0.240	-0.350	-0.270
2020/01/31 16:28:11.2	357.710	-0.260	-0.370	-0.310
2020/01/31 16:28:11.3	357.700	-0.290	-0.380	-0.350
2020/01/31 16:28:11.4	357.690	-0.300	-0.390	-0.390
2020/01/31 16:28:11.5	357.680	-0.320	-0.390	-0.420
2020/01/31 16:28:11.6	357.670	-0.340	-0.400	-0.460
2020/01/31 16:28:11.7	357.650	-0.350	-0.410	-0.500
2020/01/31 16:28:11.8	357.640	-0.360	-0.410	-0.530
2020/01/31 16:28:11.9	357.630	-0.360	-0.410	-0.560
2020/01/31 16:28:12.0	357.620	-0.370	-0.410	-0.590
2020/01/31 16:28:12.1	357.610	-0.370	-0.410	-0.610
2020/01/31 16:28:12.2	357.600	-0.360	-0.410	-0.630
2020/01/31 16:28:12.3	357.590	-0.360	-0.410	-0.660
2020/01/31 16:28:12.4	357.580	-0.350	-0.410	-0.680
2020/01/31 16:28:12.5	357.570	-0.340	-0.410	-0.690
2020/01/31 16:28:12.6	357.570	-0.330	-0.410	-0.710
2020/01/31 16:28:12.7	357.570	-0.320	-0.410	-0.720
2020/01/31 16:28:12.8	357.560	-0.300	-0.410	-0.740
2020/01/31 16:28:12.9	357.570	-0.280	-0.410	-0.740
2020/01/31 16:28:13.0	357.570	-0.260	-0.420	-0.750
2020/01/31 16:28:13.1	357.570	-0.230	-0.420	-0.760
2020/01/31 16:28:13.2	357.580	-0.210	-0.430	-0.760
2020/01/31 16:28:13.3	357.590	-0.180	-0.440	-0.760
2020/01/31 16:28:13.4	357.600	-0.150	-0.450	-0.760
2020/01/31 16:28:13.5	357.620	-0.120	-0.460	-0.760
2020/01/31 16:28:13.6	357.640	-0.090	-0.480	-0.760
2020/01/31 16:28:13.7	357.640	-0.060	-0.500	-0.760
2020/01/31 16:28:13.8	357.660	-0.030	-0.510	-0.750
2020/01/31 16:28:13.9	357.680	0.000	-0.530	-0.750
2020/01/31 16:28:14.0	357.710	0.030	-0.540	-0.740
2020/01/31 16:28:14.1	357.730	0.060	-0.560	-0.740
2020/01/31 16:28:14.2	357.760	0.090	-0.580	-0.730
2020/01/31 16:28:14.3	357.780	0.120	-0.590	-0.720
2020/01/31 16:28:14.4	357.810	0.150	-0.610	-0.720
2020/01/31 16:28:14.5	357.830	0.170	-0.620	-0.710
2020/01/31 16:28:14.6	357.860	0.200	-0.630	-0.700
2020/01/31 16:28:14.7	357.880	0.220	-0.640	-0.690
2020/01/31 16:28:14.8	357.900	0.240	-0.650	-0.680
2020/01/31 16:28:14.9	357.920	0.250	-0.650	-0.670
2020/01/31 16:28:15.0	357.940	0.270	-0.650	-0.660
2020/01/31 16:28:15.1	357.960	0.280	-0.650	-0.640
2020/01/31 16:28:15.2	357.980	0.290	-0.650	-0.630
2020/01/31 16:28:15.3	358.000	0.300	-0.640	-0.610
2020/01/31 16:28:15.4	358.010	0.300	-0.620	-0.590
2020/01/31 16:28:15.5	358.030	0.300	-0.610	-0.570
2020/01/31 16:28:15.6	358.040	0.300	-0.590	-0.550
2020/01/31 16:28:15.7	358.050	0.300	-0.570	-0.530
2020/01/31 16:28:15.8	358.050	0.290	-0.540	-0.500
2020/01/31 16:28:15.9	358.060	0.290	-0.510	-0.480
2020/01/31 16:28:16.0	358.070	0.280	-0.480	-0.450
2020/01/31 16:28:16.1	358.080	0.270	-0.450	-0.420
2020/01/31 16:28:16.2	358.090	0.260	-0.410	-0.390
2020/01/31 16:28:16.3	358.090	0.240	-0.380	-0.360
2020/01/31 16:28:16.4	358.100	0.230	-0.340	-0.340
2020/01/31 16:28:16.5	358.110	0.220	-0.300	-0.310
2020/01/31 16:28:16.6	358.110	0.200	-0.260	-0.280
2020/01/31 16:28:16.7	358.130	0.180	-0.220	-0.260
2020/01/31 16:28:16.8	358.140	0.170	-0.180	-0.230
2020/01/31 16:28:16.9	358.150	0.150	-0.140	-0.210
2020/01/31 16:28:17.0	358.160	0.140	-0.110	-0.190
2020/01/31 16:28:17.1	358.170	0.120	-0.070	-0.170
2020/01/31 16:28:17.2	358.180	0.100	-0.040	-0.150
2020/01/31 16:28:17.3	358.190	0.090	-0.010	-0.140
2020/01/31 16:28:17.4	358.190	0.070	0.010	-0.130
2020/01/31 16:28:17.5	358.200	0.060	0.040	-0.120
2020/01/31 16:28:17.6	358.210	0.040	0.060	-0.110
2020/01/31 16:28:17.7	358.220	0.030	0.080	-0.110
2020/01/31 16:28:17.8	358.230	0.010	0.100	-0.100
2020/01/31 16:28:17.9	358.230	-0.000	0.110	-0.100
2020/01/31 16:28:18.0	358.240	-0.020	0.120	-0.100
2020/01/31 16:28:18.1	358.240	-0.030	0.130	-0.110
2020/01/31 16:28:18.2	358.240	-0.040	0.140	-0.110
2020/01/31 16:28:18.3	358.240	-0.060	0.150	-0.120
2020/01/31 16:28:18.4	358.250	-0.070	0.150	-0.130
2020/01/31 16:28:18.5	358.250	-0.090	0.150	-0.140
2020/01/31 16:28:18.6	358.250	-0.100	0.150	-0.150
2020/01/31 16:28:18.7	358.240	-0.110	0.150	-0.160
2020/01/31 16:28:18.8	358.240	-0.130	0.150	-0.180
2020/01/31 16:28:18.9	358.240	-0.140	0.150	-0.190
2020/01/31 16:28:19.0	358.240	-0.160	0.140	-0.210
2020/01/31 16:28:19.1	358.230	-0.170	0.140	-0.230
2020/01/31 16:28:19.2	358.230	-0.190	0.130	-0.240
2020/01/31 16:28:19.3	358.230	-0.200	0.120	-0.260
2020/01/31 16:28:19.4	358.230	-0.220	0.110	-0.280
2020/01/31 16:28:19.5	358.230	-0.230	0.100	-0.300
2020/01/31 16:28:19.6	358.220	-0.250	0.090	-0.320
2020/01/31 16:28:19.7	358.210	-0.260	0.080	-0.350
2020/01/31 16:28:19.8	358.200	-0.270	0.070	-0.370
2020/01/31 16:28:19.9	358.200	-0.290	0.060	-0.390
2020/01/31 16:28:20.0	358.190	-0.300	0.050	-0.410
2020/01/31 16:28:20.1	358.190	-0.310	0.030	-0.430
2020/01/31 16:28:20.2	358.180	-0.320	0.020	-0.440
2020/01/31 16:28:20.3	358.180	-0.330	0.010	-0.460
2020/01/31 16:28:20.4	358.170	-0.340	-0.000	-0.470
2020/01/31 16:28:20.5	358.170	-0.350	-0.020	-0.480
2020/01/31 16:28:20.6	358.160	-0.350	-0.030	-0.490
2020/01/31 16:28:20.7	358.150	-0.350	-0.040	-0.500
2020/01/31 16:28:20.8	358.140	-0.360	-0.050	-0.510
2020/01/31 16:28:20.9	358.130	-0.360	-0.060	-0.510
2020/01/31 16:28:21.0	358.120	-0.350	-0.070	-0.510
2020/01/31 16:28:21.1	358.110	-0.350	-0.080	-0.500
2020/01/31 16:28:21.2	358.100	-0.340	-0.090	-0.500
2020/01/31 16:28:21.3	358.080	-0.330	-0.100	-0.490
2020/01/31 16:28:21.4	358.070	-0.320	-0.100	-0.480
2020/01/31 16:28:21.5	358.050	-0.310	-0.110	-0.460
2020/01/31 16:28:21.6	358.030	-0.300	-0.120	-0.450
2020/01/31 16:28:21.7	358.010	-0.280	-0.120	-0.430
2020/01/31 16:28:21.8	357.990	-0.270	-0.130	-0.410
2020/01/31 16:28:21.9	357.970	-0.250	-0.140	-0.390
2020/01/31 16:28:22.0	357.950	-0.230	-0.140	-0.370
2020/01/31 16:28:22.1	357.930	-0.210	-0.150	-0.350
2020/01/31 16:28:22.2	357.910	-0.180	-0.150	-0.320
2020/01/31 16:28:22.3	357.880	-0.160	-0.160	-0.300
2020/01/31 16:28:22.4	357.860	-0.130	-0.170	-0.280
2020/01/31 16:28:22.5	357.840	-0.110	-0.180	-0.250
2020/01/31 16:28:22.6	357.820	-0.080	-0.190	-0.230
2020/01/31 16:28:22.7	357.800	-0.050	-0.210	-0.200
2020/01/31 16:28:22.8	357.790	-0.020	-0.220	-0.180
2020/01/31 16:28:22.9	357.770	0.000	-0.240	-0.160
2020/01/31 16:28:23.0	357.750	0.030	-0.260	-0.140
2020/01/31 16:28:23.1	357.740	0.060	-0.280	-0.120
2020/01/31 16:28:23.2	357.730	0.090	-0.310	-0.100
2020/01/31 16:28:23.3	357.720	0.120	-0.340	-0.080
2020/01/31 16:28:23.4	357.710	0.150	-0.370	-0.070
2020/01/31 16:28:23.5	357.710	0.180	-0.400	-0.060
2020/01/31 16:28:23.6	357.710	0.200	-0.430	-0.050
2020/01/31 16:28:23.7	357.710	0.230	-0.470	-0.050
2020/01/31 16:28:23.8	357.720	0.260	-0.510	-0.050
2020/01/31 16:28:23.9	357.730	0.280	-0.540	-0.060
2020/01/31 16:28:24.0	357.750	0.300	-0.580	-0.060
2020/01/31 16:28:24.1	357.770	0.330	-0.620	-0.080
2020/01/31 16:28:24.2	357.790	0.350	-0.650	-0.090
2020/01/31 16:28:24.3	357.810	0.360	-0.690	-0.110
2020/01/31 16:28:24.4	357.840	0.380	-0.720	-0.140
2020/01/31 16:28:24.5	357.870	0.400	-0.760	-0.160
2020/01/31 16:28:24.6	357.910	0.410	-0.790	-0.200
2020/01/31 16:28:24.7	357.950	0.420	-0.810	-0.230
2020/01/31 16:28:24.8	357.990	0.430	-0.840	-0.270
2020/01/31 16:28:24.9	358.030	0.430	-0.860	-0.310
2020/01/31 16:28:25.0	358.070	0.440	-0.870	-0.350
2020/01/31 16:28:25.1	358.120	0.440	-0.880	-0.390
2020/01/31 16:28:25.2	358.160	0.440	-0.890	-0.420
2020/01/31 16:28:25.3	358.200	0.430	-0.880	-0.460
2020/01/31 16:28:25.4	358.250	0.430	-0.880	-0.500
2020/01/31 16:28:25.5	358.290	0.420	-0.860	-0.530
2020/01/31 16:28:25.6	358.330	0.410	-0.840	-0.560
2020/01/31 16:28:25.7	358.360	0.400	-0.810	-0.590
2020/01/31 16:28:25.8	358.400	0.380	-0.780	-0.610
2020/01/31 16:28:25.9	358.430	0.370	-0.740	-0.630
2020/01/31 16:28:26.0	358.460	0.350	-0.690	-0.640
2020/01/31 16:28:26.1	358.480	0.320	-0.630	-0.650
2020/01/31 16:28:26.2	358.500	0.300	-0.570	-0.650
2020/01/31 16:28:26.3	358.520	0.280	-0.500	-0.650
2020/01/31 16:28:26.4	358.540	0.250	-0.430	-0.640
2020/01/31 16:28:26.5	358.550	0.220	-0.360	-0.620
2020/01/31 16:28:26.6	358.550	0.200	-0.280	-0.600
2020/01/31 16:28:26.7	358.570	0.170	-0.200	-0.570
2020/01/31 16:28:26.8	358.570	0.140	-0.120	-0.540
2020/01/31 16:28:26.9	358.570	0.110	-0.040	-0.510
2020/01/31 16:28:27.0	358.560	0.080	0.040	-0.470
2020/01/31 16:28:27.1	358.560	0.040	0.120	-0.440
2020/01/31 16:28:27.2	358.550	0.010	0.200	-0.400
2020/01/31 16:28:27.3	358.540	-0.020	0.270	-0.360
2020/01/31 16:28:27.4	358.530	-0.050	0.330	-0.320
2020/01/31 16:28:27.5	358.520	-0.080	0.390	-0.280
2020/01/31 16:28:27.6	358.510	-0.100	0.440	-0.250
2020/01/31 16:28:27.7	358.500	-0.130	0.480	-0.210
2020/01/31 16:28:27.8	358.480	-0.160	0.520	-0.180
2020/01/31 16:28:27.9	358.470	-0.180	0.550	-0.150
2020/01/31 16:28:28.0	358.450	-0.200	0.570	-0.120
2020/01/31 16:28:28.1	358.430	-0.230	0.580	-0.100
2020/01/31 16:28:28.2	358.410	-0.240	0.580	-0.070
2020/01/31 16:28:28.3	358.390	-0.260	0.580	-0.050
2020/01/31 16:28:28.4	358.370	-0.270	0.560	-0.030
2020/01/31 16:28:28.5	358.350	-0.290	0.540	-0.020
2020/01/31 16:28:28.6	358.330	-0.290	0.510	-0.010
2020/01/31 16:28:28.7	358.310	-0.300	0.470	-0.000
2020/01/31 16:28:28.8	358.290	-0.310	0.430	0.000
2020/01/31 16:28:28.9	358.270	-0.310	0.380	0.010
2020/01/31 16:28:29.0	358.250	-0.310	0.320	0.000
2020/01/31 16:28:29.1	358.230	-0.300	0.260	0.000
2020/01/31 16:28:29.2	358.210	-0.300	0.190	-0.010
2020/01/31 16:28:29.3	358.190	-0.290	0.120	-0.020
2020/01/31 16:28:29.4	358.170	-0.280	0.050	-0.030
2020/01/31 16:28:29.5	358.160	-0.270	-0.030	-0.050
2020/01/31 16:28:29.6	358.150	-0.260	-0.110	-0.070
2020/01/31 16:28:29.7	358.140	-0.250	-0.180	-0.090
2020/01/31 16:28:29.8	358.130	-0.230	-0.260	-0.120
2020/01/31 16:28:29.9	358.120	-0.220	-0.340	-0.140
2020/01/31 16:28:30.0	358.110	-0.200	-0.410	-0.170
2020/01/31 16:28:30.1	358.110	-0.190	-0.490	-0.200
2020/01/31 16:28:30.2	358.110	-0.170	-0.560	-0.230
2020/01/31 16:28:30.3	358.110	-0.160	-0.620	-0.260
2020/01/31 16:28:30.4	358.110	-0.150	-0.680	-0.290
2020/01/31 16:28:30.5	358.110	-0.130	-0.740	-0.330
2020/01/31 16:28:30.6	358.110	-0.120	-0.790	-0.360
2020/01/31 16:28:30.7	358.110	-0.110	-0.840	-0.400
2020/01/31 16:28:30.8	358.110	-0.100	-0.880	-0.430
2020/01/31 16:28:30.9	358.120	-0.090	-0.920	-0.470
2020/01/31 16:28:31.0	358.120	-0.090	-0.940	-0.500
2020/01/31 16:28:31.1	358.130	-0.080	-0.960	-0.540
2020/01/31 16:28:31.2	358.140	-0.080	-0.980	-0.570
2020/01/31 16:28:31.3	358.150	-0.080	-0.990	-0.600
2020/01/31 16:28:31.4	358.160	-0.080	-0.990	-0.630
2020/01/31 16:28:31.5	358.170	-0.080	-0.980	-0.660
2020/01/31 16:28:31.6	358.170	-0.080	-0.970	-0.680
2020/01/31 16:28:31.7	358.180	-0.080	-0.960	-0.710
2020/01/31 16:28:31.8	358.190	-0.090	-0.930	-0.730
2020/01/31 16:28:31.9	358.200	-0.090	-0.910	-0.750
2020/01/31 16:28:32.0	358.220	-0.100	-0.870	-0.760
2020/01/31 16:28:32.1	358.230	-0.110	-0.840	-0.780
2020/01/31 16:28:32.2	358.240	-0.110	-0.800	-0.790
2020/01/31 16:28:32.3	358.250	-0.120	-0.750	-0.790
2020/01/31 16:28:32.4	358.260	-0.120	-0.700	-0.790
2020/01/31 16:28:32.5	358.270	-0.130	-0.650	-0.790
2020/01/31 16:28:32.6	358.280	-0.130	-0.600	-0.790
2020/01/31 16:28:32.7	358.290	-0.130	-0.540	-0.780
2020/01/31 16:28:32.8	358.300	-0.130	-0.490	-0.770
2020/01/31 16:28:32.9	358.320	-0.130	-0.430	-0.750
2020/01/31 16:28:33.0	358.330	-0.130	-0.380	-0.740
2020/01/31 16:28:33.1	358.340	-0.120	-0.320	-0.720
2020/01/31 16:28:33.2	358.350	-0.120	-0.270	-0.700
2020/01/31 16:28:33.3	358.360	-0.110	-0.220	-0.670
2020/01/31 16:28:33.4	358.370	-0.100	-0.170	-0.650
2020/01/31 16:28:33.5	358.380	-0.080	-0.120	-0.620
2020/01/31 16:28:33.6	358.390	-0.070	-0.080	-0.600
2020/01/31 16:28:33.7	358.400	-0.050	-0.040	-0.570
2020/01/31 16:28:33.8	358.410	-0.030	-0.000	-0.540
2020/01/31 16:28:33.9	358.420	-0.000	0.030	-0.510
2020/01/31 16:28:34.0	358.430	0.020	0.060	-0.480
2020/01/31 16:28:34.1	358.440	0.050	0.080	-0.460
2020/01/31 16:28:34.2	358.450	0.080	0.100	-0.430
2020/01/31 16:28:34.3	358.460	0.110	0.110	-0.400
2020/01/31 16:28:34.4	358.470	0.140	0.120	-0.380
2020/01/31 16:28:34.5	358.470	0.170	0.130	-0.350
2020/01/31 16:28:34.6	358.480	0.200	0.130	-0.320
2020/01/31 16:28:34.7	358.480	0.240	0.120	-0.300
2020/01/31 16:28:34.8	358.490	0.270	0.120	-0.270
2020/01/31 16:28:34.9	358.490	0.300	0.110	-0.250
2020/01/31 16:28:35.0	358.500	0.340	0.100	-0.220
2020/01/31 16:28:35.1	358.500	0.370	0.080	-0.190
2020/01/31 16:28:35.2	358.500	0.400	0.060	-0.170
2020/01/31 16:28:35.3	358.500	0.420	0.050	-0.140
2020/01/31 16:28:35.4	358.500	0.450	0.030	-0.120
2020/01/31 16:28:35.5	358.500	0.470	0.010	-0.090
2020/01/31 16:28:35.6	358.500	0.490	-0.010	-0.070
2020/01/31 16:28:35.7	358.500	0.500	-0.030	-0.050
2020/01/31 16:28:35.8	358.490	0.520	-0.050	-0.020
2020/01/31 16:28:35.9	358.490	0.520	-0.070	-0.000
2020/01/31 16:28:36.0	358.480	0.530	-0.090	0.010
2020/01/31 16:28:36.1	358.470	0.520	-0.110	0.030
2020/01/31 16:28:36.2	358.460	0.520	-0.120	0.040
2020/01/31 16:28:36.3	358.450	0.510	-0.130	0.040
2020/01/31 16:28:36.4	358.440	0.490	-0.140	0.050
2020/01/31 16:28:36.5	358.430	0.470	-0.150	0.050
2020/01/31 16:28:36.6	358.420	0.440	-0.160	0.050
2020/01/31 16:28:36.7	358.400	0.410	-0.160	0.040
2020/01/31 16:28:36.8	358.380	0.380	-0.170	0.030
2020/01/31 16:28:36.9	358.370	0.340	-0.160	0.020
2020/01/31 16:28:37.0	358.350	0.300	-0.160	0.010
2020/01/31 16:28:37.1	358.340	0.250	-0.150	-0.010
2020/01/31 16:28:37.2	358.320	0.210	-0.150	-0.020
2020/01/31 16:28:37.3	358.310	0.150	-0.130	-0.040
2020/01/31 16:28:37.4	358.290	0.100	-0.120	-0.060
2020/01/31 16:28:37.5	358.280	0.040	-0.110	-0.080
2020/01/31 16:28:37.6	358.270	-0.010	-0.090	-0.100
2020/01/31 16:28:37.7	358.250	-0.070	-0.070	-0.120
2020/01/31 16:28:37.8	358.240	-0.130	-0.050	-0.140
2020/01/31 16:28:37.9	358.230	-0.180	-0.030	-0.160
2020/01/31 16:28:38.0	358.230	-0.240	-0.010	-0.190
2020/01/31 16:28:38.1	358.220	-0.300	0.010	-0.210
2020/01/31 16:28:38.2	358.220	-0.350	0.020	-0.230
2020/01/31 16:28:38.3	358.220	-0.400	0.040	-0.260
2020/01/31 16:28:38.4	358.220	-0.450	0.060	-0.280
2020/01/31 16:28:38.5	358.220	-0.500	0.070	-0.310
2020/01/31 16:28:38.6	358.220	-0.540	0.080	-0.340
2020/01/31 16:28:38.7	358.220	-0.580	0.090	-0.370
2020/01/31 16:28:38.8	358.220	-0.620	0.090	-0.410
2020/01/31 16:28:38.9	358.230	-0.650	0.100	-0.440
2020/01/31 16:28:39.0	358.240	-0.680	0.100	-0.470
2020/01/31 16:28:39.1	358.240	-0.700	0.100	-0.510
2020/01/31 16:28:39.2	358.250	-0.720	0.090	-0.540
2020/01/31 16:28:39.3	358.250	-0.740	0.080	-0.570
2020/01/31 16:28:39.4	358.260	-0.750	0.070	-0.610
2020/01/31 16:28:39.5	358.260	-0.750	0.060	-0.640
2020/01/31 16:28:39.6	358.270	-0.750	0.040	-0.670
2020/01/31 16:28:39.7	358.290	-0.750	0.020	-0.700
2020/01/31 16:28:39.8	358.290	-0.740	-0.010	-0.730
2020/01/31 16:28:39.9	358.290	-0.720	-0.030	-0.750
2020/01/31 16:28:40.0	358.290	-0.700	-0.060	-0.770
2020/01/31 16:28:40.1	358.290	-0.680	-0.090	-0.790
2020/01/31 16:28:40.2	358.280	-0.650	-0.130	-0.810
2020/01/31 16:28:40.3	358.280	-0.610	-0.160	-0.820
2020/01/31 16:28:40.4	358.270	-0.570	-0.190	-0.830
2020/01/31 16:28:40.5	358.270	-0.530	-0.230	-0.830
2020/01/31 16:28:40.6	358.260	-0.480	-0.270	-0.830
2020/01/31 16:28:40.7	358.250	-0.430	-0.300	-0.830
2020/01/31 16:28:40.8	358.240	-0.370	-0.340	-0.820
2020/01/31 16:28:40.9	358.230	-0.320	-0.370	-0.800
2020/01/31 16:28:41.0	358.220	-0.260	-0.410	-0.780
2020/01/31 16:28:41.1	358.210	-0.190	-0.440	-0.760
2020/01/31 16:28:41.2	358.190	-0.130	-0.470	-0.730
2020/01/31 16:28:41.3	358.180	-0.060	-0.500	-0.700
2020/01/31 16:28:41.4	358.170	0.000	-0.520	-0.660
2020/01/31 16:28:41.5	358.150	0.070	-0.550	-0.620
2020/01/31 16:28:41.6	358.130	0.140	-0.570	-0.570
2020/01/31 16:28:41.7	358.110	0.200	-0.590	-0.530
2020/01/31 16:28:41.8	358.090	0.270	-0.600	-0.480
2020/01/31 16:28:41.9	358.060	0.330	-0.620	-0.420
2020/01/31 16:28:42.0	358.040	0.400	-0.630	-0.360
2020/01/31 16:28:42.1	358.010	0.450	-0.630	-0.300
2020/01/31 16:28:42.2	357.990	0.510	-0.640	-0.240
2020/01/31 16:28:42.3	357.960	0.560	-0.640	-0.180
2020/01/31 16:28:42.4	357.940	0.610	-0.630	-0.120
2020/01/31 16:28:42.5	357.910	0.650	-0.630	-0.060
2020/01/31 16:28:42.6	357.880	0.690	-0.620	0.000
2020/01/31 16:28:42.7	357.870	0.730	-0.620	0.060
2020/01/31 16:28:42.8	357.840	0.760	-0.610	0.120
2020/01/31 16:28:42.9	357.820	0.790	-0.600	0.160
2020/01/31 16:28:43.0	357.800	0.810	-0.590	0.210
2020/01/31 16:28:43.1	357.780	0.820	-0.580	0.250
2020/01/31 16:28:43.2	357.770	0.830	-0.560	0.280
2020/01/31 16:28:43.3	357.750	0.830	-0.550	0.310
2020/01/31 16:28:43.4	357.740	0.830	-0.540	0.330
2020/01/31 16:28:43.5	357.740	0.830	-0.530	0.340
2020/01/31 16:28:43.6	357.730	0.820	-0.530	0.350
2020/01/31 16:28:43.7	357.740	0.800	-0.520	0.340
2020/01/31 16:28:43.8	357.740	0.780	-0.510	0.340
2020/01/31 16:28:43.9	357.750	0.760	-0.510	0.320
2020/01/31 16:28:44.0	357.760	0.730	-0.500	0.300
2020/01/31 16:28:44.1	357.770	0.700	-0.500	0.280
2020/01/31 16:28:44.2	357.790	0.660	-0.500	0.250
2020/01/31 16:28:44.3	357.810	0.620	-0.500	0.210
2020/01/31 16:28:44.4	357.830	0.580	-0.510	0.170
2020/01/31 16:28:44.5	357.850	0.540	-0.510	0.130
2020/01/31 16:28:44.6	357.880	0.500	-0.510	0.080
2020/01/31 16:28:44.7	357.920	0.450	-0.510	0.020
2020/01/31 16:28:44.8	357.960	0.400	-0.520	-0.030
2020/01/31 16:28:44.9	357.990	0.350	-0.520	-0.090
2020/01/31 16:28:45.0	358.030	0.300	-0.520	-0.140
2020/01/31 16:28:45.1	358.070	0.250	-0.520	-0.200
2020/01/31 16:28:45.2	358.110	0.200	-0.520	-0.250
2020/01/31 16:28:45.3	358.150	0.150	-0.510	-0.310
2020/01/31 16:28:45.4	358.190	0.090	-0.500	-0.370
2020/01/31 16:28:45.5	358.230	0.040	-0.500	-0.420
2020/01/31 16:28:45.6	358.270	-0.010	-0.480	-0.480
2020/01/31 16:28:45.7	358.300	-0.060	-0.470	-0.530
2020/01/31 16:28:45.8	358.340	-0.110	-0.450	-0.590
2020/01/31 16:28:45.9	358.380	-0.160	-0.440	-0.640
2020/01/31 16:28:46.0	358.420	-0.210	-0.420	-0.680
2020/01/31 16:28:46.1	358.450	-0.250	-0.400	-0.730
2020/01/31 16:28:46.2	358.480	-0.300	-0.370	-0.770
2020/01/31 16:28:46.3	358.510	-0.340	-0.350	-0.810
2020/01/31 16:28:46.4	358.540	-0.390	-0.320	-0.850
2020/01/31 16:28:46.5	358.570	-0.430	-0.290	-0.880
2020/01/31 16:28:46.6	358.590	-0.470	-0.270	-0.910
2020/01/31 16:28:46.7	358.610	-0.500	-0.240	-0.940
2020/01/31 16:28:46.8	358.620	-0.540	-0.210	-0.960
2020/01/31 16:28:46.9	358.640	-0.570	-0.180	-0.980
2020/01/31 16:28:47.0	358.650	-0.600	-0.160	-1.000
2020/01/31 16:28:47.1	358.660	-0.620	-0.130	-1.010
2020/01/31 16:28:47.2	358.670	-0.640	-0.100	-1.020
2020/01/31 16:28:47.3	358.670	-0.660	-0.070	-1.030
2020/01/31 16:28:47.4	358.670	-0.680	-0.050	-1.030
2020/01/31 16:28:47.5	358.680	-0.690	-0.020	-1.020
2020/01/31 16:28:47.6	358.680	-0.700	-0.000	-1.020
2020/01/31 16:28:47.7	358.670	-0.710	0.020	-1.010
2020/01/31 16:28:47.8	358.670	-0.710	0.040	-1.000
2020/01/31 16:28:47.9	358.670	-0.710	0.060	-0.980
2020/01/31 16:28:48.0	358.660	-0.710	0.070	-0.960
2020/01/31 16:28:48.1	358.660	-0.700	0.090	-0.940
2020/01/31 16:28:48.2	358.650	-0.690	0.100	-0.910
2020/01/31 16:28:48.3	358.640	-0.680	0.110	-0.880
2020/01/31 16:28:48.4	358.630	-0.660	0.110	-0.850
2020/01/31 16:28:48.5	358.620	-0.640	0.120	-0.820
2020/01/31 16:28:48.6	358.610	-0.620	0.120	-0.790
2020/01/31 16:28:48.7	358.600	-0.600	0.120	-0.750
2020/01/31 16:28:48.8	358.590	-0.570	0.120	-0.720
2020/01/31 16:28:48.9	358.570	-0.540	0.110	-0.680
2020/01/31 16:28:49.0	358.560	-0.510	0.110	-0.640
2020/01/31 16:28:49.1	358.540	-0.480	0.100	-0.610
2020/01/31 16:28:49.2	358.530	-0.450	0.090	-0.570
2020/01/31 16:28:49.3	358.510	-0.410	0.090	-0.530
2020/01/31 16:28:49.4	358.490	-0.380	0.080	-0.490
2020/01/31 16:28:49.5	358.470	-0.340	0.070	-0.450
2020/01/31 16:28:49.6	358.450	-0.300	0.060	-0.410
2020/01/31 16:28:49.7	358.440	-0.260	0.050	-0.380
2020/01/31 16:28:49.8	358.420	-0.220	0.040	-0.340
2020/01/31 16:28:49.9	358.400	-0.190	0.030	-0.300
2020/01/31 16:28:50.0	358.380	-0.150	0.030	-0.260
2020/01/31 16:28:50.1	358.360	-0.110	0.030	-0.220
2020/01/31 16:28:50.2	358.340	-0.070	0.030	-0.190
2020/01/31 16:28:50.3	358.320	-0.030	0.030	-0.150
2020/01/31 16:28:50.4	358.300	0.000	0.030	-0.110
2020/01/31 16:28:50.5	358.270	0.040	0.030	-0.070
2020/01/31 16:28:50.6	358.250	0.070	0.040	-0.040
2020/01/31 16:28:50.7	358.240	0.100	0.050	0.000
2020/01/31 16:28:50.8	358.220	0.130	0.060	0.040
2020/01/31 16:28:50.9	358.190	0.160	0.070	0.080
2020/01/31 16:28:51.0	358.170	0.190	0.090	0.110
2020/01/31 16:28:51.1	358.150	0.220	0.100	0.150
2020/01/31 16:28:51.2	358.120	0.240	0.120	0.190
2020/01/31 16:28:51.3	358.100	0.260	0.130	0.230
2020/01/31 16:28:51.4	358.080	0.280	0.150	0.260
2020/01/31 16:28:51.5	358.050	0.300	0.170	0.300
2020/01/31 16:28:51.6	358.030	0.310	0.180	0.330
2020/01/31 16:28:51.7	357.990	0.320	0.200	0.360
2020/01/31 16:28:51.8	357.970	0.340	0.210	0.400
2020/01/31 16:28:51.9	357.950	0.340	0.220	0.430
2020/01/31 16:28:52.0	357.920	0.350	0.230	0.460
2020/01/31 16:28:52.1	357.900	0.360	0.240	0.490
2020/01/31 16:28:52.2	357.880	0.360	0.240	0.510
2020/01/31 16:28:52.3	357.860	0.360	0.240	0.530
2020/01/31 16:28:52.4	357.840	0.360	0.230	0.550
2020/01/31 16:28:52.5	357.830	0.360	0.230	0.570
2020/01/31 16:28:52.6	357.810	0.350	0.210	0.580
2020/01/31 16:28:52.7	357.790	0.350	0.190	0.590
2020/01/31 16:28:52.8	357.780	0.340	0.170	0.590
2020/01/31 16:28:52.9	357.770	0.340	0.140	0.590
2020/01/31 16:28:53.0	357.760	0.330	0.110	0.590
2020/01/31 16:28:53.1	357.750	0.330	0.070	0.580
2020/01/31 16:28:53.2	357.740	0.320	0.030	0.570
2020/01/31 16:28:53.3	357.740	0.310	-0.020	0.560
2020/01/31 16:28:53.4	357.730	0.310	-0.070	0.540
2020/01/31 16:28:53.5	357.730	0.300	-0.130	0.520
2020/01/31 16:28:53.6	357.730	0.300	-0.190	0.500
2020/01/31 16:28:53.7	357.730	0.290	-0.250	0.470
2020/01/31 16:28:53.8	357.730	0.290	-0.320	0.440
2020/01/31 16:28:53.9	357.740	0.290	-0.380	0.400
2020/01/31 16:28:54.0	357.750	0.280	-0.450	0.370
2020/01/31 16:28:54.1	357.770	0.280	-0.520	0.330
2020/01/31 16:28:54.2	357.780	0.280	-0.590	0.290
2020/01/31 16:28:54.3	357.800	0.290	-0.650	0.250
2020/01/31 16:28:54.4	357.820	0.290	-0.720	0.210
2020/01/31 16:28:54.5	357.840	0.290	-0.780	0.160
2020/01/31 16:28:54.6	357.870	0.290	-0.840	0.110
2020/01/31 16:28:54.7	357.890	0.290	-0.900	0.060
2020/01/31 16:28:54.8	357.910	0.300	-0.950	0.010
2020/01/31 16:28:54.9	357.930	0.300	-0.990	-0.040
2020/01/31 16:28:55.0	357.960	0.300	-1.030	-0.090
2020/01/31 16:28:55.1	357.980	0.300	-1.060	-0.140
2020/01/31 16:28:55.2	358.000	0.300	-1.090	-0.190
2020/01/31 16:28:55.3	358.020	0.300	-1.110	-0.230
2020/01/31 16:28:55.4	358.040	0.300	-1.130	-0.280
2020/01/31 16:28:55.5	358.050	0.290	-1.140	-0.330
2020/01/31 16:28:55.6	358.070	0.290	-1.140	-0.380
2020/01/31 16:28:55.7	358.100	0.280	-1.140	-0.420
2020/01/31 16:28:55.8	358.110	0.270	-1.140	-0.470
2020/01/31 16:28:55.9	358.130	0.260	-1.130	-0.510
2020/01/31 16:28:56.0	358.150	0.250	-1.110	-0.560
2020/01/31 16:28:56.1	358.160	0.240	-1.100	-0.600
2020/01/31 16:28:56.2	358.180	0.220	-1.070	-0.640
2020/01/31 16:28:56.3	358.200	0.210	-1.050	-0.670
2020/01/31 16:28:56.4	358.210	0.190	-1.020	-0.710
2020/01/31 16:28:56.5	358.230	0.170	-0.990	-0.740
2020/01/31 16:28:56.6	358.240	0.150	-0.960	-0.780
2020/01/31 16:28:56.7	358.270	0.130	-0.920	-0.810
2020/01/31 16:28:56.8	358.280	0.110	-0.890	-0.840
2020/01/31 16:28:56.9	358.300	0.080	-0.850	-0.860
2020/01/31 16:28:57.0	358.310	0.060	-0.820	-0.880
2020/01/31 16:28:57.1	358.330	0.030	-0.780	-0.910
2020/01/31 16:28:57.2	358.340	0.010	-0.740	-0.930
2020/01/31 16:28:57.3	358.360	-0.020	-0.710	-0.940
2020/01/31 16:28:57.4	358.370	-0.040	-0.670	-0.960
2020/01/31 16:28:57.5	358.380	-0.070	-0.640	-0.970
2020/01/31 16:28:57.6	358.400	-0.090	-0.600	-0.990
2020/01/31 16:28:57.7	358.410	-0.120	-0.570	-1.000
2020/01/31 16:28:57.8	358.430	-0.140	-0.530	-1.010
2020/01/31 16:28:57.9	358.440	-0.170	-0.500	-1.020
2020/01/31 16:28:58.0	358.450	-0.190	-0.470	-1.020
2020/01/31 16:28:58.1	358.460	-0.220	-0.430	-1.030
2020/01/31 16:28:58.2	358.470	-0.240	-0.400	-1.030
2020/01/31 16:28:58.3	358.480	-0.270	-0.370	-1.040
2020/01/31 16:28:58.4	358.490	-0.290	-0.340	-1.040
2020/01/31 16:28:58.5	358.490	-0.310	-0.320	-1.040
2020/01/31 16:28:58.6	358.500	-0.330	-0.290	-1.030
2020/01/31 16:28:58.7	358.500	-0.360	-0.260	-1.030
2020/01/31 16:28:58.8	358.500	-0.380	-0.230	-1.020
2020/01/31 16:28:58.9	358.500	-0.390	-0.200	-1.010
2020/01/31 16:28:59.0	358.500	-0.410	-0.170	-1.000
2020/01/31 16:28:59.1	358.490	-0.430	-0.150	-0.990
2020/01/31 16:28:59.2	358.490	-0.440	-0.120	-0.970
2020/01/31 16:28:59.3	358.490	-0.460	-0.090	-0.950
2020/01/31 16:28:59.4	358.480	-0.470	-0.060	-0.930
2020/01/31 16:28:59.5	358.470	-0.480	-0.030	-0.900
2020/01/31 16:28:59.6	358.470	-0.490	-0.010	-0.880
2020/01/31 16:28:59.7	358.450	-0.500	0.020	-0.860
2020/01/31 16:28:59.8	358.440	-0.500	0.050	-0.830
2020/01/31 16:28:59.9	358.430	-0.510	0.080	-0.800
2020/01/31 16:29:00.0	358.420	-0.510	0.100	-0.770
2020/01/31 16:29:00.1	358.420	-0.510	0.130	-0.740
2020/01/31 16:29:00.2	358.410	-0.510	0.150	-0.710
2020/01/31 16:29:00.3	358.400	-0.500	0.180	-0.680
2020/01/31 16:29:00.4	358.400	-0.500	0.200	-0.650
2020/01/31 16:29:00.5	358.390	-0.490	0.220	-0.620
2020/01/31 16:29:00.6	358.380	-0.480	0.240	-0.590
2020/01/31 16:29:00.7	358.380	-0.460	0.270	-0.560
2020/01/31 16:29:00.8	358.370	-0.440	0.280	-0.520
2020/01/31 16:29:00.9	358.370	-0.420	0.300	-0.490
2020/01/31 16:29:01.0	358.370	-0.400	0.320	-0.460
2020/01/31 16:29:01.1	358.360	-0.380	0.330	-0.430
2020/01/31 16:29:01.2	358.360	-0.350	0.340	-0.390
2020/01/31 16:29:01.3	358.350	-0.320	0.350	-0.360
2020/01/31 16:29:01.4	358.350	-0.290	0.360	-0.320
2020/01/31 16:29:01.5	358.340	-0.260	0.370	-0.290
2020/01/31 16:29:01.6	358.340	-0.220	0.380	-0.250
2020/01/31 16:29:01.7	358.340	-0.180	0.380	-0.220
2020/01/31 16:29:01.8	358.330	-0.140	0.390	-0.180
2020/01/31 16:29:01.9	358.330	-0.100	0.390	-0.130
2020/01/31 16:29:02.0	358.320	-0.060	0.390	-0.090
2020/01/31 16:29:02.1	358.310	-0.020	0.390	-0.050
2020/01/31 16:29:02.2	358.310	0.020	0.390	-0.000
2020/01/31 16:29:02.3	358.300	0.070	0.390	0.040
2020/01/31 16:29:02.4	358.290	0.110	0.390	0.090
2020/01/31 16:29:02.5	358.270	0.150	0.390	0.140
2020/01/31 16:29:02.6	358.260	0.190	0.390	0.190
2020/01/31 16:29:02.7	358.240	0.230	0.380	0.240
2020/01/31 16:29:02.8	358.220	0.270	0.380	0.290
2020/01/31 16:29:02.9	358.210	0.310	0.370	0.340
2020/01/31 16:29:03.0	358.180	0.340	0.370	0.390
2020/01/31 16:29:03.1	358.160	0.370	0.360	0.440
2020/01/31 16:29:03.2	358.140	0.400	0.350	0.490
2020/01/31 16:29:03.3	358.110	0.430	0.340	0.530
2020/01/31 16:29:03.4	358.080	0.460	0.320	0.570
2020/01/31 16:29:03.5	358.050	0.480	0.310	0.610
2020/01/31 16:29:03.6	358.030	0.490	0.290	0.650
2020/01/31 16:29:03.7	358.000	0.510	0.270	0.680
2020/01/31 16:29:03.8	357.970	0.520	0.250	0.710
2020/01/31 16:29:03.9	357.950	0.530	0.230	0.730
2020/01/31 16:29:04.0	357.920	0.530	0.200	0.750
2020/01/31 16:29:04.1	357.890	0.530	0.170	0.760
2020/01/31 16:29:04.2	357.860	0.530	0.140	0.770
2020/01/31 16:29:04.3	357.830	0.520	0.110	0.770
2020/01/31 16:29:04.4	357.800	0.510	0.070	0.770
2020/01/31 16:29:04.5	357.780	0.500	0.030	0.760
2020/01/31 16:29:04.6	357.760	0.480	-0.010	0.740
2020/01/31 16:29:04.7	357.730	0.460	-0.050	0.720
2020/01/31 16:29:04.8	357.710	0.440	-0.100	0.700
2020/01/31 16:29:04.9	357.700	0.410	-0.150	0.670
2020/01/31 16:29:05.0	357.680	0.390	-0.200	0.630
2020/01/31 16:29:05.1	357.670	0.360	-0.250	0.590
2020/01/31 16:29:05.2	357.660	0.330	-0.300	0.540
2020/01/31 16:29:05.3	357.660	0.300	-0.360	0.490
2020/01/31 16:29:05.4	357.650	0.270	-0.420	0.430
2020/01/31 16:29:05.5	357.660	0.230	-0.480	0.370
2020/01/31 16:29:05.6	357.660	0.200	-0.530	0.300
2020/01/31 16:29:05.7	357.670	0.170	-0.590	0.220
2020/01/31 16:29:05.8	357.680	0.130	-0.650	0.150
2020/01/31 16:29:05.9	357.690	0.100	-0.710	0.080
2020/01/31 16:29:06.0	357.710	0.070	-0.770	-0.000
2020/01/31 16:29:06.1	357.730	0.040	-0.830	-0.080
2020/01/31 16:29:06.2	357.750	0.010	-0.880	-0.170
2020/01/31 16:29:06.3	357.780	-0.020	-0.940	-0.250
2020/01/31 16:29:06.4	357.800	-0.050	-0.990	-0.330
2020/01/31 16:29:06.5	357.830	-0.080	-1.040	-0.410
2020/01/31 16:29:06.6	357.860	-0.110	-1.080	-0.500
2020/01/31 16:29:06.7	357.880	-0.130	-1.120	-0.580
2020/01/31 16:29:06.8	357.910	-0.160	-1.160	-0.660
2020/01/31 16:29:06.9	357.940	-0.180	-1.190	-0.740
2020/01/31 16:29:07.0	357.970	-0.200	-1.210	-0.810
2020/01/31 16:29:07.1	358.000	-0.220	-1.230	-0.880
2020/01/31 16:29:07.2	358.030	-0.240	-1.240	-0.950
2020/01/31 16:29:07.3	358.060	-0.250	-1.250	-1.010
2020/01/31 16:29:07.4	358.090	-0.270	-1.250	-1.070
2020/01/31 16:29:07.5	358.110	-0.280	-1.250	-1.130
2020/01/31 16:29:07.6	358.140	-0.290	-1.230	-1.180
2020/01/31 16:29:07.7	358.160	-0.300	-1.220	-1.230
2020/01/31 16:29:07.8	358.190	-0.310	-1.190	-1.270
2020/01/31 16:29:07.9	358.210	-0.320	-1.160	-1.310
2020/01/31 16:29:08.0	358.230	-0.320	-1.130	-1.340
2020/01/31 16:29:08.1	358.250	-0.330	-1.090	-1.370
2020/01/31 16:29:08.2	358.260	-0.330	-1.040	-1.390
2020/01/31 16:29:08.3	358.280	-0.330	-0.990	-1.410
2020/01/31 16:29:08.4	358.290	-0.330	-0.940	-1.420
2020/01/31 16:29:08.5	358.300	-0.320	-0.880	-1.430
2020/01/31 16:29:08.6	358.310	-0.320	-0.820	-1.430
2020/01/31 16:29:08.7	358.330	-0.310	-0.760	-1.430
2020/01/31 16:29:08.8	358.340	-0.300	-0.700	-1.420
2020/01/31 16:29:08.9	358.340	-0.290	-0.640	-1.400
2020/01/31 16:29:09.0	358.350	-0.280	-0.570	-1.390
2020/01/31 16:29:09.1	358.350	-0.270	-0.510	-1.370
2020/01/31 16:29:09.2	358.360	-0.250	-0.450	-1.340
2020/01/31 16:29:09.3	358.360	-0.240	-0.390	-1.320
2020/01/31 16:29:09.4	358.370	-0.220	-0.330	-1.290
2020/01/31 16:29:09.5	358.370	-0.200	-0.280	-1.250
2020/01/31 16:29:09.6	358.380	-0.180	-0.230	-1.220
2020/01/31 16:29:09.7	358.390	-0.150	-0.180	-1.180
2020/01/31 16:29:09.8	358.400	-0.130	-0.140	-1.150
2020/01/31 16:29:09.9	358.400	-0.100	-0.100	-1.110
2020/01/31 16:29:10.0	358.410	-0.080	-0.070	-1.070
2020/01/31 16:29:10.1	358.420	-0.050	-0.040	-1.030
2020/01/31 16:29:10.2	358.430	-0.020	-0.020	-0.990
2020/01/31 16:29:10.3	358.450	0.010	-0.000	-0.950
2020/01/31 16:29:10.4	358.460	0.040	0.010	-0.910
2020/01/31 16:29:10.5	358.470	0.070	0.020	-0.870
2020/01/31 16:29:10.6	358.480	0.100	0.020	-0.830
2020/01/31 16:29:10.7	358.500	0.140	0.020	-0.780
2020/01/31 16:29:10.8	358.510	0.170	0.020	-0.740
2020/01/31 16:29:10.9	358.520	0.200	0.010	-0.700
2020/01/31 16:29:11.0	358.530	0.230	0.010	-0.650
2020/01/31 16:29:11.1	358.530	0.250	-0.000	-0.600
2020/01/31 16:29:11.2	358.540	0.280	-0.010	-0.560
2020/01/31 16:29:11.3	358.540	0.310	-0.020	-0.510
2020/01/31 16:29:11.4	358.540	0.330	-0.030	-0.460
2020/01/31 16:29:11.5	358.540	0.350	-0.040	-0.400
2020/01/31 16:29:11.6	358.540	0.370	-0.050	-0.350
2020/01/31 16:29:11.7	358.520	0.390	-0.050	-0.300
2020/01/31 16:29:11.8	358.510	0.400	-0.060	-0.240
2020/01/31 16:29:11.9	358.490	0.420	-0.060	-0.190
2020/01/31 16:29:12.0	358.480	0.420	-0.060	-0.130
2020/01/31 16:29:12.1	358.460	0.430	-0.060	-0.070
2020/01/31 16:29:12.2	358.440	0.430	-0.050	-0.020
2020/01/31 16:29:12.3	358.420	0.420	-0.040	0.030
2020/01/31 16:29:12.4	358.390	0.420	-0.030	0.090
2020/01/31 16:29:12.5	358.370	0.410	-0.020	0.140
2020/01/31 16:29:12.6	358.340	0.390	-0.000	0.180
2020/01/31 16:29:12.7	358.310	0.370	0.010	0.230
2020/01/31 16:29:12.8	358.280	0.350	0.030	0.270
2020/01/31 16:29:12.9	358.250	0.320	0.050	0.310
2020/01/31 16:29:13.0	358.230	0.290	0.060	0.340
2020/01/31 16:29:13.1	358.200	0.260	0.080	0.370
2020/01/31 16:29:13.2	358.170	0.230	0.100	0.400
2020/01/31 16:29:13.3	358.150	0.190	0.110	0.410
2020/01/31 16:29:13.4	358.130	0.150	0.130	0.430
2020/01/31 16:29:13.5	358.110	0.100	0.140	0.430
2020/01/31 16:29:13.6	358.090	0.060	0.150	0.430
2020/01/31 16:29:13.7	358.070	0.020	0.160	0.420
2020/01/31 16:29:13.8	358.060	-0.030	0.160	0.410
2020/01/31 16:29:13.9	358.060	-0.080	0.160	0.390
2020/01/31 16:29:14.0	358.050	-0.120	0.160	0.370
2020/01/31 16:29:14.1	358.050	-0.170	0.160	0.340
2020/01/31 16:29:14.2	358.050	-0.210	0.150	0.310
2020/01/31 16:29:14.3	358.050	-0.260	0.140	0.270
2020/01/31 16:29:14.4	358.050	-0.300	0.130	0.230
2020/01/31 16:29:14.5	358.060	-0.340	0.120	0.190
2020/01/31 16:29:14.6	358.060	-0.370	0.100	0.140
2020/01/31 16:29:14.7	358.070	-0.410	0.080	0.090
2020/01/31 16:29:14.8	358.080	-0.440	0.060	0.040
2020/01/31 16:29:14.9	358.080	-0.460	0.040	-0.010
2020/01/31 16:29:15.0	358.090	-0.490	0.020	-0.060
2020/01/31 16:29:15.1	358.100	-0.510	0.000	-0.110
2020/01/31 16:29:15.2	358.100	-0.520	-0.010	-0.150
2020/01/31 16:29:15.3	358.100	-0.540	-0.030	-0.200
2020/01/31 16:29:15.4	358.100	-0.540	-0.050	-0.230
2020/01/31 16:29:15.5	358.100	-0.550	-0.060	-0.270
2020/01/31 16:29:15.6	358.100	-0.550	-0.080	-0.300
2020/01/31 16:29:15.7	358.100	-0.540	-0.080	-0.330
2020/01/31 16:29:15.8	358.090	-0.530	-0.090	-0.340
2020/01/31 16:29:15.9	358.080	-0.520	-0.100	-0.360
2020/01/31 16:29:16.0	358.060	-0.500	-0.100	-0.370
2020/01/31 16:29:16.1	358.040	-0.490	-0.100	-0.370
2020/01/31 16:29:16.2	358.020	-0.460	-0.100	-0.370
2020/01/31 16:29:16.3	358.000	-0.440	-0.100	-0.360
2020/01/31 16:29:16.4	357.980	-0.410	-0.100	-0.350
2020/01/31 16:29:16.5	357.950	-0.380	-0.090	-0.330
2020/01/31 16:29:16.6	357.920	-0.350	-0.080	-0.320
2020/01/31 16:29:16.7	357.880	-0.320	-0.080	-0.300
2020/01/31 16:29:16.8	357.850	-0.290	-0.080	-0.270
2020/01/31 16:29:16.9	357.820	-0.250	-0.070	-0.240
2020/01/31 16:29:17.0	357.780	-0.220	-0.070	-0.220
2020/01/31 16:29:17.1	357.750	-0.180	-0.070	-0.190
2020/01/31 16:29:17.2	357.720	-0.150	-0.060	-0.160
2020/01/31 16:29:17.3	357.680	-0.110	-0.070	-0.130
2020/01/31 16:29:17.4	357.650	-0.080	-0.070	-0.110
2020/01/31 16:29:17.5	357.620	-0.040	-0.080	-0.080
2020/01/31 16:29:17.6	357.600	-0.000	-0.090	-0.060
2020/01/31 16:29:17.7	357.570	0.030	-0.110	-0.040
2020/01/31 16:29:17.8	357.550	0.060	-0.130	-0.020
2020/01/31 16:29:17.9	357.540	0.100	-0.150	-0.010
2020/01/31 16:29:18.0	357.520	0.130	-0.180	-0.000
2020/01/31 16:29:18.1	357.510	0.160	-0.210	0.010
2020/01/31 16:29:18.2	357.510	0.190	-0.250	0.010
2020/01/31 16:29:18.3	357.500	0.220	-0.290	0.010
2020/01/31 16:29:18.4	357.500	0.240	-0.330	0.000
2020/01/31 16:29:18.5	357.510	0.270	-0.380	-0.000
2020/01/31 16:29:18.6	357.520	0.290	-0.430	-0.010
2020/01/31 16:29:18.7	357.540	0.310	-0.480	-0.030
2020/01/31 16:29:18.8	357.560	0.330	-0.530	-0.050
2020/01/31 16:29:18.9	357.580	0.350	-0.580	-0.060
2020/01/31 16:29:19.0	357.600	0.360	-0.630	-0.080
2020/01/31 16:29:19.1	357.630	0.380	-0.680	-0.100
2020/01/31 16:29:19.2	357.650	0.390	-0.730	-0.120
2020/01/31 16:29:19.3	357.680	0.390	-0.780	-0.140
2020/01/31 16:29:19.4	357.720	0.400	-0.820	-0.160
2020/01/31 16:29:19.5	357.750	0.400	-0.860	-0.180
2020/01/31 16:29:19.6	357.780	0.400	-0.900	-0.200
2020/01/31 16:29:19.7	357.800	0.400	-0.930	-0.220
2020/01/31 16:29:19.8	357.830	0.400	-0.960	-0.240
2020/01/31 16:29:19.9	357.860	0.390	-0.980	-0.250
2020/01/31 16:29:20.0	357.890	0.380	-1.000	-0.270
2020/01/31 16:29:20.1	357.920	0.380	-1.010	-0.280
2020/01/31 16:29:20.2	357.940	0.360	-1.020	-0.290
2020/01/31 16:29:20.3	357.970	0.350	-1.020	-0.300
2020/01/31 16:29:20.4	357.990	0.340	-1.020	-0.300
2020/01/31 16:29:20.5	358.010	0.320	-1.010	-0.300
2020/01/31 16:29:20.6	358.020	0.310	-1.000	-0.310
2020/01/31 16:29:20.7	358.050	0.290	-0.980	-0.310
2020/01/31 16:29:20.8	358.060	0.270	-0.950	-0.310
2020/01/31 16:29:20.9	358.080	0.250	-0.930	-0.310
2020/01/31 16:29:21.0	358.090	0.230	-0.900	-0.310
2020/01/31 16:29:21.1	358.100	0.220	-0.860	-0.310
2020/01/31 16:29:21.2	358.110	0.200	-0.830	-0.310
2020/01/31 16:29:21.3	358.130	0.180	-0.790	-0.310
2020/01/31 16:29:21.4	358.140	0.170	-0.750	-0.310
2020/01/31 16:29:21.5	358.150	0.150	-0.710	-0.310
2020/01/31 16:29:21.6	358.160	0.140	-0.660	-0.310
2020/01/31 16:29:21.7	358.170	0.120	-0.620	-0.310
2020/01/31 16:29:21.8	358.180	0.110	-0.580	-0.310
2020/01/31 16:29:21.9	358.200	0.100	-0.530	-0.310
2020/01/31 16:29:22.0	358.210	0.090	-0.490	-0.310
2020/01/31 16:29:22.1	358.220	0.080	-0.450	-0.320
2020/01/31 16:29:22.2	358.230	0.070	-0.410	-0.320
2020/01/31 16:29:22.3	358.240	0.060	-0.360	-0.320
2020/01/31 16:29:22.4	358.240	0.060	-0.320	-0.320
2020/01/31 16:29:22.5	358.240	0.050	-0.280	-0.320
2020/01/31 16:29:22.6	358.250	0.050	-0.240	-0.310
2020/01/31 16:29:22.7	358.240	0.040	-0.200	-0.320
2020/01/31 16:29:22.8	358.240	0.030	-0.160	-0.320
2020/01/31 16:29:22.9	358.230	0.030	-0.120	-0.310
2020/01/31 16:29:23.0	358.220	0.020	-0.080	-0.310
2020/01/31 16:29:23.1	358.210	0.020	-0.040	-0.310
2020/01/31 16:29:23.2	358.190	0.010	-0.000	-0.310
2020/01/31 16:29:23.3	358.170	0.010	0.040	-0.310
2020/01/31 16:29:23.4	358.150	-0.000	0.070	-0.310
2020/01/31 16:29:23.5	358.130	-0.010	0.110	-0.310
2020/01/31 16:29:23.6	358.110	-0.020	0.150	-0.310
2020/01/31 16:29:23.7	358.070	-0.020	0.180	-0.310
2020/01/31 16:29:23.8	358.050	-0.030	0.210	-0.310
2020/01/31 16:29:23.9	358.020	-0.040	0.240	-0.310
2020/01/31 16:29:24.0	357.980	-0.050	0.270	-0.300
2020/01/31 16:29:24.1	357.950	-0.060	0.300	-0.300
2020/01/31 16:29:24.2	357.920	-0.070	0.330	-0.290
2020/01/31 16:29:24.3	357.880	-0.080	0.350	-0.280
2020/01/31 16:29:24.4	357.850	-0.090	0.370	-0.270
2020/01/31 16:29:24.5	357.820	-0.100	0.390	-0.260
2020/01/31 16:29:24.6	357.780	-0.110	0.410	-0.240
2020/01/31 16:29:24.7	357.740	-0.120	0.420	-0.230
2020/01/31 16:29:24.8	357.710	-0.130	0.430	-0.210
2020/01/31 16:29:24.9	357.680	-0.140	0.430	-0.190
2020/01/31 16:29:25.0	357.660	-0.150	0.430	-0.180
2020/01/31 16:29:25.1	357.630	-0.150	0.430	-0.160
2020/01/31 16:29:25.2	357.610	-0.160	0.420	-0.140
2020/01/31 16:29:25.3	357.590	-0.160	0.410	-0.120
2020/01/31 16:29:25.4	357.570	-0.170	0.390	-0.100
2020/01/31 16:29:25.5	357.550	-0.170	0.370	-0.090
2020/01/31 16:29:25.6	357.540	-0.170	0.350	-0.070
2020/01/31 16:29:25.7	357.540	-0.170	0.320	-0.050
2020/01/31 16:29:25.8	357.530	-0.170	0.290	-0.040
2020/01/31 16:29:25.9	357.520	-0.170	0.260	-0.030
2020/01/31 16:29:26.0	357.510	-0.170	0.230	-0.010
2020/01/31 16:29:26.1	357.510	-0.170	0.200	-0.000
2020/01/31 16:29:26.2	357.500	-0.170	0.160	0.010
2020/01/31 16:29:26.3	357.500	-0.170	0.130	0.020
2020/01/31 16:29:26.4	357.490	-0.160	0.090	0.030
2020/01/31 16:29:26.5	357.480	-0.160	0.060	0.040
2020/01/31 16:29:26.6	357.480	-0.160	0.030	0.040
2020/01/31 16:29:26.7	357.470	-0.160	0.000	0.040
2020/01/31 16:29:26.8	357.460	-0.160	-0.020	0.050
2020/01/31 16:29:26.9	357.450	-0.170	-0.050	0.050
2020/01/31 16:29:27.0	357.450	-0.170	-0.070	0.050
2020/01/31 16:29:27.1	357.440	-0.170	-0.090	0.050
2020/01/31 16:29:27.2	357.430	-0.180	-0.110	0.050
2020/01/31 16:29:27.3	357.420	-0.190	-0.130	0.050
2020/01/31 16:29:27.4	357.410	-0.190	-0.150	0.040
2020/01/31 16:29:27.5	357.400	-0.200	-0.160	0.040
2020/01/31 16:29:27.6	357.390	-0.210	-0.180	0.040
2020/01/31 16:29:27.7	357.400	-0.230	-0.190	0.030
2020/01/31 16:29:27.8	357.390	-0.240	-0.200	0.030
2020/01/31 16:29:27.9	357.380	-0.250	-0.210	0.030
2020/01/31 16:29:28.0	357.370	-0.270	-0.220	0.020
2020/01/31 16:29:28.1	357.370	-0.280	-0.230	0.020
2020/01/31 16:29:28.2	357.360	-0.300	-0.240	0.020
2020/01/31 16:29:28.3	357.350	-0.310	-0.250	0.020
2020/01/31 16:29:28.4	357.350	-0.330	-0.270	0.020
2020/01/31 16:29:28.5	357.340	-0.340	-0.280	0.020
2020/01/31 16:29:28.6	357.340	-0.360	-0.290	0.010
2020/01/31 16:29:28.7	357.340	-0.370	-0.300	0.010
2020/01/31 16:29:28.8	357.330	-0.380	-0.320	0.000
2020/01/31 16:29:28.9	357.340	-0.390	-0.340	-0.000
2020/01/31 16:29:29.0	357.340	-0.400	-0.360	-0.010
2020/01/31 16:29:29.1	357.340	-0.410	-0.380	-0.020
2020/01/31 16:29:29.2	357.350	-0.410	-0.400	-0.030
2020/01/31 16:29:29.3	357.360	-0.410	-0.430	-0.040
2020/01/31 16:29:29.4	357.370	-0.410	-0.460	-0.060
2020/01/31 16:29:29.5	357.380	-0.410	-0.490	-0.070
2020/01/31 16:29:29.6	357.400	-0.400	-0.530	-0.090
2020/01/31 16:29:29.7	357.420	-0.390	-0.560	-0.110
2020/01/31 16:29:29.8	357.440	-0.370	-0.600	-0.140
2020/01/31 16:29:29.9	357.460	-0.350	-0.640	-0.160
2020/01/31 16:29:30.0	357.490	-0.330	-0.680	-0.180
2020/01/31 16:29:30.1	357.510	-0.300	-0.720	-0.200
2020/01/31 16:29:30.2	357.540	-0.270	-0.760	-0.230
2020/01/31 16:29:30.3	357.560	-0.230	-0.800	-0.250
2020/01/31 16:29:30.4	357.590	-0.190	-0.840	-0.270
2020/01/31 16:29:30.5	357.620	-0.150	-0.870	-0.290
2020/01/31 16:29:30.6	357.640	-0.100	-0.910	-0.310
2020/01/31 16:29:30.7	357.680	-0.050	-0.940	-0.330
2020/01/31 16:29:30.8	357.700	-0.000	-0.970	-0.350
2020/01/31 16:29:30.9	357.730	0.050	-0.990	-0.360
2020/01/31 16:29:31.0	357.750	0.100	-1.000	-0.360
2020/01/31 16:29:31.1	357.770	0.160	-1.010	-0.370
2020/01/31 16:29:31.2	357.790	0.220	-1.020	-0.370
2020/01/31 16:29:31.3	357.810	0.270	-1.020	-0.370
2020/01/31 16:29:31.4	357.830	0.330	-1.010	-0.370
2020/01/31 16:29:31.5	357.840	0.380	-1.000	-0.360
2020/01/31 16:29:31.6	357.860	0.440	-0.980	-0.350
2020/01/31 16:29:31.7	357.860	0.490	-0.950	-0.340
2020/01/31 16:29:31.8	357.870	0.540	-0.910	-0.320
2020/01/31 16:29:31.9	357.870	0.580	-0.880	-0.300
2020/01/31 16:29:32.0	357.880	0.620	-0.830	-0.280
2020/01/31 16:29:32.1	357.880	0.660	-0.790	-0.250
2020/01/31 16:29:32.2	357.880	0.700	-0.730	-0.220
2020/01/31 16:29:32.3	357.880	0.720	-0.680	-0.190
2020/01/31 16:29:32.4	357.870	0.750	-0.620	-0.160
2020/01/31 16:29:32.5	357.870	0.770	-0.550	-0.130
2020/01/31 16:29:32.6	357.860	0.780	-0.490	-0.090
2020/01/31 16:29:32.7	357.850	0.790	-0.420	-0.050
2020/01/31 16:29:32.8	357.840	0.800	-0.350	-0.020
2020/01/31 16:29:32.9	357.820	0.800	-0.290	0.020
2020/01/31 16:29:33.0	357.810	0.790	-0.220	0.060
2020/01/31 16:29:33.1	357.800	0.780	-0.150	0.100
2020/01/31 16:29:33.2	357.780	0.760	-0.090	0.130
2020/01/31 16:29:33.3	357.770	0.740	-0.020	0.160
2020/01/31 16:29:33.4	357.750	0.720	0.040	0.190
2020/01/31 16:29:33.5	357.730	0.690	0.090	0.220
2020/01/31 16:29:33.6	357.720	0.660	0.150	0.250
2020/01/31 16:29:33.7	357.700	0.620	0.200	0.260
2020/01/31 16:29:33.8	357.690	0.580	0.240	0.270
2020/01/31 16:29:33.9	357.670	0.540	0.280	0.280
2020/01/31 16:29:34.0	357.660	0.500	0.310	0.290
2020/01/31 16:29:34.1	357.650	0.450	0.340	0.280
2020/01/31 16:29:34.2	357.630	0.400	0.360	0.270
2020/01/31 16:29:34.3	357.620	0.360	0.380	0.260
2020/01/31 16:29:34.4	357.620	0.310	0.390	0.240
2020/01/31 16:29:34.5	357.610	0.260	0.390	0.210
2020/01/31 16:29:34.6	357.600	0.220	0.390	0.180
2020/01/31 16:29:34.7	357.590	0.170	0.390	0.150
2020/01/31 16:29:34.8	357.590	0.130	0.370	0.110
2020/01/31 16:29:34.9	357.580	0.080	0.360	0.070
2020/01/31 16:29:35.0	357.580	0.040	0.330	0.030
2020/01/31 16:29:35.1	357.580	0.010	0.310	-0.020
2020/01/31 16:29:35.2	357.570	-0.030	0.280	-0.060
2020/01/31 16:29:35.3	357.570	-0.060	0.240	-0.100
2020/01/31 16:29:35.4	357.570	-0.090	0.210	-0.150
2020/01/31 16:29:35.5	357.570	-0.120	0.170	-0.190
2020/01/31 16:29:35.6	357.570	-0.140	0.120	-0.240
2020/01/31 16:29:35.7	357.560	-0.160	0.080	-0.280
2020/01/31 16:29:35.8	357.560	-0.180	0.030	-0.330
2020/01/31 16:29:35.9	357.560	-0.200	-0.010	-0.370
2020/01/31 16:29:36.0	357.570	-0.210	-0.060	-0.410
2020/01/31 16:29:36.1	357.570	-0.220	-0.110	-0.460
2020/01/31 16:29:36.2	357.570	-0.230	-0.150	-0.500
2020/01/31 16:29:36.3	357.580	-0.240	-0.190	-0.540
2020/01/31 16:29:36.4	357.580	-0.250	-0.240	-0.580
2020/01/31 16:29:36.5	357.590	-0.250	-0.280	-0.620
2020/01/31 16:29:36.6	357.600	-0.250	-0.320	-0.670
2020/01/31 16:29:36.7	357.610	-0.260	-0.350	-0.710
2020/01/31 16:29:36.8	357.620	-0.260	-0.380	-0.750
2020/01/31 16:29:36.9	357.630	-0.260	-0.420	-0.790
2020/01/31 16:29:37.0	357.640	-0.260	-0.440	-0.830
2020/01/31 16:29:37.1	357.650	-0.260	-0.470	-0.860
2020/01/31 16:29:37.2	357.660	-0.260	-0.490	-0.900
2020/01/31 16:29:37.3	357.670	-0.260	-0.510	-0.930
2020/01/31 16:29:37.4	357.680	-0.260	-0.520	-0.950
2020/01/31 16:29:37.5	357.690	-0.260	-0.520	-0.980
2020/01/31 16:29:37.6	357.700	-0.260	-0.530	-1.000
2020/01/31 16:29:37.7	357.700	-0.260	-0.530	-1.010
2020/01/31 16:29:37.8	357.710	-0.260	-0.520	-1.020
2020/01/31 16:29:37.9	357.710	-0.270	-0.510	-1.030
2020/01/31 16:29:38.0	357.710	-0.270	-0.500	-1.030
2020/01/31 16:29:38.1	357.710	-0.280	-0.480	-1.020
2020/01/31 16:29:38.2	357.710	-0.280	-0.460	-1.020
2020/01/31 16:29:38.3	357.710	-0.290	-0.430	-1.000
2020/01/31 16:29:38.4	357.710	-0.300	-0.400	-0.990
2020/01/31 16:29:38.5	357.700	-0.300	-0.370	-0.970
2020/01/31 16:29:38.6	357.700	-0.310	-0.340	-0.950
2020/01/31 16:29:38.7	357.700	-0.320	-0.310	-0.920
2020/01/31 16:29:38.8	357.690	-0.330	-0.270	-0.900
2020/01/31 16:29:38.9	357.690	-0.340	-0.230	-0.870
2020/01/31 16:29:39.0	357.680	-0.350	-0.200	-0.840
2020/01/31 16:29:39.1	357.670	-0.360	-0.160	-0.810
2020/01/31 16:29:39.2	357.670	-0.370	-0.130	-0.780
2020/01/31 16:29:39.3	357.660	-0.380	-0.090	-0.740
2020/01/31 16:29:39.4	357.650	-0.390	-0.060	-0.710
2020/01/31 16:29:39.5	357.640	-0.400	-0.030	-0.680
2020/01/31 16:29:39.6	357.640	-0.410	-0.000	-0.650
2020/01/31 16:29:39.7	357.620	-0.420	0.020	-0.620
2020/01/31 16:29:39.8	357.620	-0.420	0.040	-0.590
2020/01/31 16:29:39.9	357.610	-0.420	0.060	-0.560
2020/01/31 16:29:40.0	357.610	-0.430	0.070	-0.540
2020/01/31 16:29:40.1	357.600	-0.430	0.080	-0.510
2020/01/31 16:29:40.2	357.600	-0.430	0.090	-0.490
2020/01/31 16:29:40.3	357.600	-0.420	0.090	-0.460
2020/01/31 16:29:40.4	357.600	-0.420	0.090	-0.440
2020/01/31 16:29:40.5	357.600	-0.410	0.080	-0.420
2020/01/31 16:29:40.6	357.600	-0.400	0.070	-0.400
2020/01/31 16:29:40.7	357.600	-0.390	0.050	-0.380
2020/01/31 16:29:40.8	357.600	-0.370	0.030	-0.360
2020/01/31 16:29:40.9	357.610	-0.360	0.010	-0.350
2020/01/31 16:29:41.0	357.610	-0.340	-0.020	-0.340
2020/01/31 16:29:41.1	357.620	-0.320	-0.050	-0.330
2020/01/31 16:29:41.2	357.630	-0.290	-0.080	-0.320
2020/01/31 16:29:41.3	357.640	-0.270	-0.120	-0.310
2020/01/31 16:29:41.4	357.650	-0.240	-0.150	-0.310
2020/01/31 16:29:41.5	357.660	-0.220	-0.190	-0.310
2020/01/31 16:29:41.6	357.680	-0.190	-0.230	-0.310
2020/01/31 16:29:41.7	357.690	-0.160	-0.270	-0.310
2020/01/31 16:29:41.8	357.710	-0.130	-0.310	-0.310
2020/01/31 16:29:41.9	357.730	-0.090	-0.350	-0.310
2020/01/31 16:29:42.0	357.750	-0.060	-0.390	-0.320
2020/01/31 16:29:42.1	357.770	-0.030	-0.430	-0.320
2020/01/31 16:29:42.2	357.790	0.000	-0.460	-0.320
2020/01/31 16:29:42.3	357.800	0.040	-0.490	-0.330
2020/01/31 16:29:42.4	357.820	0.070	-0.520	-0.330
2020/01/31 16:29:42.5	357.840	0.100	-0.550	-0.330
2020/01/31 16:29:42.6	357.860	0.130	-0.570	-0.330
2020/01/31 16:29:42.7	357.880	0.160	-0.580	-0.330
2020/01/31 16:29:42.8	357.890	0.190	-0.600	-0.320
2020/01/31 16:29:42.9	357.910	0.210	-0.610	-0.320
2020/01/31 16:29:43.0	357.920	0.240	-0.610	-0.310
2020/01/31 16:29:43.1	357.940	0.260	-0.610	-0.300
2020/01/31 16:29:43.2	357.950	0.280	-0.610	-0.280
2020/01/31 16:29:43.3	357.950	0.300	-0.600	-0.270
2020/01/31 16:29:43.4	357.960	0.310	-0.590	-0.260
2020/01/31 16:29:43.5	357.960	0.330	-0.580	-0.240
2020/01/31 16:29:43.6	357.970	0.340	-0.560	-0.230
2020/01/31 16:29:43.7	357.950	0.350	-0.540	-0.210
2020/01/31 16:29:43.8	357.950	0.350	-0.520	-0.200
2020/01/31 16:29:43.9	357.950	0.360	-0.490	-0.180
2020/01/31 16:29:44.0	357.940	0.360	-0.470	-0.170
2020/01/31 16:29:44.1	357.930	0.360	-0.440	-0.150
2020/01/31 16:29:44.2	357.920	0.360	-0.410	-0.140
2020/01/31 16:29:44.3	357.910	0.350	-0.390	-0.130
2020/01/31 16:29:44.4	357.900	0.350	-0.360	-0.120
2020/01/31 16:29:44.5	357.880	0.340	-0.330	-0.110
2020/01/31 16:29:44.6	357.870	0.330	-0.310	-0.100
2020/01/31 16:29:44.7	357.860	0.320	-0.280	-0.090
2020/01/31 16:29:44.8	357.850	0.310	-0.260	-0.090
2020/01/31 16:29:44.9	357.830	0.300	-0.240	-0.080
2020/01/31 16:29:45.0	357.810	0.290	-0.230	-0.070
2020/01/31 16:29:45.1	357.800	0.280	-0.210	-0.070
2020/01/31 16:29:45.2	357.780	0.260	-0.200	-0.060
2020/01/31 16:29:45.3	357.770	0.250	-0.200	-0.060
2020/01/31 16:29:45.4	357.750	0.240	-0.190	-0.060
2020/01/31 16:29:45.5	357.740	0.230	-0.190	-0.060
2020/01/31 16:29:45.6	357.730	0.210	-0.190	-0.060
2020/01/31 16:29:45.7	357.710	0.200	-0.200	-0.070
2020/01/31 16:29:45.8	357.700	0.190	-0.210	-0.080
2020/01/31 16:29:45.9	357.690	0.180	-0.210	-0.090
2020/01/31 16:29:46.0	357.690	0.170	-0.230	-0.100
2020/01/31 16:29:46.1	357.680	0.150	-0.240	-0.110
2020/01/31 16:29:46.2	357.670	0.140	-0.250	-0.130
2020/01/31 16:29:46.3	357.670	0.130	-0.260	-0.150
2020/01/31 16:29:46.4	357.670	0.120	-0.280	-0.170
2020/01/31 16:29:46.5	357.660	0.110	-0.290	-0.190
2020/01/31 16:29:46.6	357.660	0.110	-0.310	-0.220
2020/01/31 16:29:46.7	357.660	0.100	-0.320	-0.250
2020/01/31 16:29:46.8	357.660	0.090	-0.330	-0.280
2020/01/31 16:29:46.9	357.660	0.080	-0.350	-0.300
2020/01/31 16:29:47.0	357.670	0.080	-0.360	-0.330
2020/01/31 16:29:47.1	357.670	0.070	-0.360	-0.360
2020/01/31 16:29:47.2	357.670	0.060	-0.370	-0.390
2020/01/31 16:29:47.3	357.670	0.060	-0.370	-0.410
2020/01/31 16:29:47.4	357.670	0.050	-0.370	-0.430
2020/01/31 16:29:47.5	357.670	0.050	-0.360	-0.450
2020/01/31 16:29:47.6	357.670	0.040	-0.360	-0.470
2020/01/31 16:29:47.7	357.670	0.040	-0.350	-0.490
2020/01/31 16:29:47.8	357.670	0.030	-0.330	-0.500
2020/01/31 16:29:47.9	357.670	0.030	-0.320	-0.510
2020/01/31 16:29:48.0	357.670	0.020	-0.300	-0.520
2020/01/31 16:29:48.1	357.680	0.020	-0.270	-0.520
2020/01/31 16:29:48.2	357.680	0.020	-0.250	-0.520
2020/01/31 16:29:48.3	357.680	0.020	-0.220	-0.520
2020/01/31 16:29:48.4	357.680	0.010	-0.200	-0.520
2020/01/31 16:29:48.5	357.690	0.010	-0.170	-0.520
2020/01/31 16:29:48.6	357.690	0.010	-0.150	-0.520
2020/01/31 16:29:48.7	357.710	0.010	-0.120	-0.520
2020/01/31 16:29:48.8	357.720	0.000	-0.100	-0.510
2020/01/31 16:29:48.9	357.720	0.000	-0.080	-0.510
2020/01/31 16:29:49.0	357.730	0.000	-0.060	-0.510
2020/01/31 16:29:49.1	357.740	-0.000	-0.040	-0.510
2020/01/31 16:29:49.2	357.750	-0.000	-0.030	-0.510
2020/01/31 16:29:49.3	357.750	-0.010	-0.020	-0.510
2020/01/31 16:29:49.4	357.760	-0.010	-0.010	-0.510
2020/01/31 16:29:49.5	357.770	-0.010	-0.000	-0.510
2020/01/31 16:29:49.6	357.780	-0.020	0.000	-0.510
2020/01/31 16:29:49.7	357.790	-0.020	0.000	-0.520
2020/01/31 16:29:49.8	357.800	-0.020	0.000	-0.530
2020/01/31 16:29:49.9	357.810	-0.030	0.000	-0.530
2020/01/31 16:29:50.0	357.820	-0.030	-0.000	-0.540
2020/01/31 16:29:50.1	357.830	-0.040	-0.010	-0.550
2020/01/31 16:29:50.2	357.830	-0.040	-0.010	-0.560
2020/01/31 16:29:50.3	357.840	-0.050	-0.020	-0.570
2020/01/31 16:29:50.4	357.850	-0.050	-0.030	-0.580
2020/01/31 16:29:50.5	357.860	-0.060	-0.040	-0.590
2020/01/31 16:29:50.6	357.860	-0.070	-0.050	-0.600
2020/01/31 16:29:50.7	357.880	-0.080	-0.050	-0.610
2020/01/31 16:29:50.8	357.880	-0.080	-0.060	-0.610
2020/01/31 16:29:50.9	357.890	-0.090	-0.070	-0.620
2020/01/31 16:29:51.0	357.890	-0.100	-0.080	-0.630
2020/01/31 16:29:51.1	357.900	-0.110	-0.080	-0.630
2020/01/31 16:29:51.2	357.900	-0.120	-0.090	-0.640
2020/01/31 16:29:51.3	357.910	-0.130	-0.100	-0.640
2020/01/31 16:29:51.4	357.910	-0.140	-0.100	-0.640
2020/01/31 16:29:51.5	357.910	-0.150	-0.110	-0.650
2020/01/31 16:29:51.6	357.920	-0.170	-0.110	-0.650
2020/01/31 16:29:51.7	357.920	-0.180	-0.110	-0.650
2020/01/31 16:29:51.8	357.920	-0.190	-0.120	-0.650
2020/01/31 16:29:51.9	357.920	-0.200	-0.120	-0.640
2020/01/31 16:29:52.0	357.920	-0.210	-0.130	-0.640
2020/01/31 16:29:52.1	357.920	-0.220	-0.130	-0.630
2020/01/31 16:29:52.2	357.920	-0.230	-0.140	-0.620
2020/01/31 16:29:52.3	357.910	-0.240	-0.150	-0.610
2020/01/31 16:29:52.4	357.910	-0.250	-0.150	-0.600
2020/01/31 16:29:52.5	357.900	-0.260	-0.160	-0.580
2020/01/31 16:29:52.6	357.900	-0.270	-0.170	-0.570
2020/01/31 16:29:52.7	357.900	-0.270	-0.180	-0.550
2020/01/31 16:29:52.8	357.890	-0.280	-0.190	-0.530
2020/01/31 16:29:52.9	357.870	-0.290	-0.210	-0.510
2020/01/31 16:29:53.0	357.860	-0.290	-0.220	-0.490
2020/01/31 16:29:53.1	357.850	-0.290	-0.240	-0.470
2020/01/31 16:29:53.2	357.840	-0.290	-0.260	-0.450
2020/01/31 16:29:53.3	357.820	-0.290	-0.270	-0.430
2020/01/31 16:29:53.4	357.810	-0.290	-0.290	-0.410
2020/01/31 16:29:53.5	357.800	-0.290	-0.310	-0.390
2020/01/31 16:29:53.6	357.780	-0.290	-0.330	-0.370
2020/01/31 16:29:53.7	357.750	-0.280	-0.350	-0.360
2020/01/31 16:29:53.8	357.740	-0.270	-0.370	-0.350
2020/01/31 16:29:53.9	357.720	-0.260	-0.400	-0.330
2020/01/31 16:29:54.0	357.710	-0.250	-0.420	-0.320
2020/01/31 16:29:54.1	357.700	-0.240	-0.440	-0.310
2020/01/31 16:29:54.2	357.690	-0.230	-0.460	-0.300
2020/01/31 16:29:54.3	357.680	-0.220	-0.480	-0.300
2020/01/31 16:29:54.4	357.680	-0.200	-0.510	-0.290
2020/01/31 16:29:54.5	357.680	-0.180	-0.530	-0.290
2020/01/31 16:29:54.6	357.680	-0.170	-0.550	-0.290
2020/01/31 16:29:54.7	357.680	-0.150	-0.560	-0.290
2020/01/31 16:29:54.8	357.680	-0.130	-0.580	-0.290
2020/01/31 16:29:54.9	357.690	-0.110	-0.600	-0.290
2020/01/31 16:29:55.0	357.700	-0.080	-0.610	-0.290
2020/01/31 16:29:55.1	357.710	-0.060	-0.630	-0.290
2020/01/31 16:29:55.2	357.720	-0.040	-0.640	-0.290
2020/01/31 16:29:55.3	357.730	-0.010	-0.650	-0.290
2020/01/31 16:29:55.4	357.750	0.010	-0.650	-0.290
2020/01/31 16:29:55.5	357.760	0.040	-0.660	-0.300
2020/01/31 16:29:55.6	357.780	0.060	-0.650	-0.290
2020/01/31 16:29:55.7	357.800	0.080	-0.650	-0.290
2020/01/31 16:29:55.8	357.810	0.110	-0.640	-0.290
2020/01/31 16:29:55.9	357.830	0.130	-0.630	-0.280
2020/01/31 16:29:56.0	357.850	0.150	-0.620	-0.280
2020/01/31 16:29:56.1	357.870	0.170	-0.600	-0.270
2020/01/31 16:29:56.2	357.890	0.180	-0.570	-0.260
2020/01/31 16:29:56.3	357.910	0.200	-0.550	-0.250
2020/01/31 16:29:56.4	357.920	0.220	-0.520	-0.240
2020/01/31 16:29:56.5	357.940	0.230	-0.490	-0.230
2020/01/31 16:29:56.6	357.960	0.240	-0.450	-0.220
2020/01/31 16:29:56.7	357.990	0.250	-0.410	-0.210
2020/01/31 16:29:56.8	358.010	0.260	-0.380	-0.200
2020/01/31 16:29:56.9	358.030	0.260	-0.340	-0.190
2020/01/31 16:29:57.0	358.050	0.260	-0.300	-0.190
2020/01/31 16:29:57.1	358.070	0.270	-0.260	-0.180
2020/01/31 16:29:57.2	358.090	0.270	-0.210	-0.170
2020/01/31 16:29:57.3	358.110	0.260	-0.170	-0.170
2020/01/31 16:29:57.4	358.120	0.260	-0.130	-0.160
2020/01/31 16:29:57.5	358.140	0.260	-0.100	-0.160
2020/01/31 16:29:57.6	358.160	0.250	-0.060	-0.160
2020/01/31 16:29:57.7	358.160	0.250	-0.020	-0.150
2020/01/31 16:29:57.8	358.180	0.240	0.010	-0.150
2020/01/31 16:29:57.9	358.190	0.230	0.040	-0.140
2020/01/31 16:29:58.0	358.200	0.220	0.070	-0.140
2020/01/31 16:29:58.1	358.200	0.210	0.100	-0.130
2020/01/31 16:29:58.2	358.200	0.200	0.130	-0.120
2020/01/31 16:29:58.3	358.200	0.190	0.160	-0.100
2020/01/31 16:29:58.4	358.200	0.180	0.180	-0.090
2020/01/31 16:29:58.5	358.190	0.170	0.200	-0.070
2020/01/31 16:29:58.6	358.170	0.160	0.230	-0.050
2020/01/31 16:29:58.7	358.150	0.150	0.240	-0.040
2020/01/31 16:29:58.8	358.130	0.140	0.260	-0.010
2020/01/31 16:29:58.9	358.100	0.120	0.270	0.010
2020/01/31 16:29:59.0	358.070	0.110	0.280	0.030
2020/01/31 16:29:59.1	358.050	0.100	0.280	0.060
2020/01/31 16:29:59.2	358.010	0.080	0.290	0.080
2020/01/31 16:29:59.3	357.980	0.070	0.290	0.100
2020/01/31 16:29:59.4	357.940	0.060	0.280	0.110
2020/01/31 16:29:59.5	357.910	0.050	0.270	0.130
2020/01/31 16:29:59.6	357.870	0.040	0.260	0.140
2020/01/31 16:29:59.7	357.850	0.020	0.240	0.150
2020/01/31 16:29:59.8	357.810	0.010	0.220	0.150
2020/01/31 16:29:59.9	357.770	0.000	0.190	0.150
2020/01/31 16:30:00.0	357.740	-0.000	0.160	0.140
2020/01/31 16:30:00.1	357.710	-0.010	0.130	0.130
2020/01/31 16:30:00.2	357.680	-0.020	0.090	0.120
2020/01/31 16:30:00.3	357.650	-0.020	0.040	0.100
2020/01/31 16:30:00.4	357.630	-0.020	-0.010	0.070
2020/01/31 16:30:00.5	357.610	-0.020	-0.060	0.040
2020/01/31 16:30:00.6	357.590	-0.020	-0.110	0.010
2020/01/31 16:30:00.7	357.580	-0.010	-0.170	-0.040
2020/01/31 16:30:00.8	357.570	-0.010	-0.230	-0.080
2020/01/31 16:30:00.9	357.560	-0.000	-0.280	-0.120
2020/01/31 16:30:01.0	357.560	0.010	-0.340	-0.160
2020/01/31 16:30:01.1	357.560	0.020	-0.400	-0.210
2020/01/31 16:30:01.2	357.560	0.030	-0.460	-0.250
2020/01/31 16:30:01.3	357.560	0.040	-0.510	-0.290
2020/01/31 16:30:01.4	357.560	0.060	-0.560	-0.330
2020/01/31 16:30:01.5	357.560	0.070	-0.610	-0.380
2020/01/31 16:30:01.6	357.570	0.090	-0.650	-0.410
2020/01/31 16:30:01.7	357.570	0.100	-0.690	-0.450
2020/01/31 16:30:01.8	357.570	0.120	-0.720	-0.490
2020/01/31 16:30:01.9	357.570	0.130	-0.750	-0.520
2020/01/31 16:30:02.0	357.570	0.140	-0.770	-0.550
2020/01/31 16:30:02.1	357.560	0.150	-0.780	-0.580
2020/01/31 16:30:02.2	357.560	0.160	-0.780	-0.610
2020/01/31 16:30:02.3	357.550	0.160	-0.780	-0.630
2020/01/31 16:30:02.4	357.550	0.160	-0.770	-0.660
2020/01/31 16:30:02.5	357.540	0.160	-0.760	-0.680
2020/01/31 16:30:02.6	357.540	0.150	-0.740	-0.700
2020/01/31 16:30:02.7	357.530	0.140	-0.720	-0.730
2020/01/31 16:30:02.8	357.530	0.130	-0.690	-0.750
2020/01/31 16:30:02.9	357.530	0.110	-0.660	-0.770
2020/01/31 16:30:03.0	357.520	0.090	-0.630	-0.790
2020/01/31 16:30:03.1	357.520	0.070	-0.590	-0.810
2020/01/31 16:30:03.2	357.520	0.040	-0.560	-0.830
2020/01/31 16:30:03.3	357.530	0.010	-0.520	-0.850
2020/01/31 16:30:03.4	357.530	-0.020	-0.490	-0.870
2020/01/31 16:30:03.5	357.540	-0.060	-0.450	-0.880
2020/01/31 16:30:03.6	357.550	-0.090	-0.410	-0.900
2020/01/31 16:30:03.7	357.560	-0.130	-0.380	-0.920
2020/01/31 16:30:03.8	357.580	-0.170	-0.350	-0.940
2020/01/31 16:30:03.9	357.600	-0.210	-0.320	-0.950
2020/01/31 16:30:04.0	357.620	-0.250	-0.290	-0.960
2020/01/31 16:30:04.1	357.640	-0.290	-0.270	-0.980
2020/01/31 16:30:04.2	357.670	-0.320	-0.250	-0.990
2020/01/31 16:30:04.3	357.690	-0.360	-0.230	-1.000
2020/01/31 16:30:04.4	357.720	-0.390	-0.210	-1.010
2020/01/31 16:30:04.5	357.760	-0.430	-0.200	-1.020
2020/01/31 16:30:04.6	357.790	-0.450	-0.200	-1.030
2020/01/31 16:30:04.7	357.830	-0.480	-0.190	-1.040
2020/01/31 16:30:04.8	357.870	-0.500	-0.190	-1.040
2020/01/31 16:30:04.9	357.910	-0.520	-0.190	-1.050
2020/01/31 16:30:05.0	357.950	-0.530	-0.190	-1.050
2020/01/31 16:30:05.1	357.990	-0.540	-0.200	-1.060
2020/01/31 16:30:05.2	358.030	-0.540	-0.210	-1.050
2020/01/31 16:30:05.3	358.080	-0.540	-0.220	-1.050
2020/01/31 16:30:05.4	358.120	-0.540	-0.220	-1.050
2020/01/31 16:30:05.5	358.160	-0.530	-0.230	-1.040
2020/01/31 16:30:05.6	358.210	-0.510	-0.240	-1.030
2020/01/31 16:30:05.7	358.230	-0.490	-0.240	-1.010
2020/01/31 16:30:05.8	358.270	-0.470	-0.240	-1.000
2020/01/31 16:30:05.9	358.310	-0.440	-0.240	-0.970
2020/01/31 16:30:06.0	358.340	-0.410	-0.240	-0.950
2020/01/31 16:30:06.1	358.370	-0.380	-0.230	-0.920
2020/01/31 16:30:06.2	358.400	-0.340	-0.230	-0.890
2020/01/31 16:30:06.3	358.430	-0.310	-0.210	-0.850
2020/01/31 16:30:06.4	358.450	-0.270	-0.200	-0.810
2020/01/31 16:30:06.5	358.460	-0.230	-0.180	-0.770
2020/01/31 16:30:06.6	358.480	-0.190	-0.160	-0.730
2020/01/31 16:30:06.7	358.490	-0.150	-0.140	-0.680
2020/01/31 16:30:06.8	358.490	-0.110	-0.110	-0.620
2020/01/31 16:30:06.9	358.500	-0.070	-0.080	-0.570
2020/01/31 16:30:07.0	358.500	-0.030	-0.060	-0.510
2020/01/31 16:30:07.1	358.490	0.000	-0.030	-0.450
2020/01/31 16:30:07.2	358.490	0.040	0.000	-0.390
2020/01/31 16:30:07.3	358.480	0.070	0.030	-0.320
2020/01/31 16:30:07.4	358.460	0.100	0.060	-0.260
2020/01/31 16:30:07.5	358.450	0.130	0.090	-0.190
2020/01/31 16:30:07.6	358.430	0.160	0.110	-0.130
2020/01/31 16:30:07.7	358.410	0.180	0.140	-0.070
2020/01/31 16:30:07.8	358.380	0.200	0.160	-0.000
2020/01/31 16:30:07.9	358.360	0.220	0.170	0.060
2020/01/31 16:30:08.0	358.330	0.230	0.180	0.110
2020/01/31 16:30:08.1	358.310	0.240	0.190	0.170
2020/01/31 16:30:08.2	358.280	0.250	0.200	0.220
2020/01/31 16:30:08.3	358.250	0.260	0.200	0.270
2020/01/31 16:30:08.4	358.220	0.270	0.200	0.310
2020/01/31 16:30:08.5	358.200	0.270	0.190	0.350
2020/01/31 16:30:08.6	358.170	0.270	0.180	0.380
2020/01/31 16:30:08.7	358.140	0.270	0.160	0.410
2020/01/31 16:30:08.8	358.110	0.270	0.140	0.430
2020/01/31 16:30:08.9	358.080	0.260	0.120	0.450
2020/01/31 16:30:09.0	358.050	0.260	0.090	0.460
2020/01/31 16:30:09.1	358.020	0.250	0.060	0.460
2020/01/31 16:30:09.2	357.990	0.250	0.020	0.460
2020/01/31 16:30:09.3	357.970	0.240	-0.020	0.460
2020/01/31 16:30:09.4	357.940	0.240	-0.060	0.450
2020/01/31 16:30:09.5	357.910	0.230	-0.100	0.430
2020/01/31 16:30:09.6	357.890	0.230	-0.150	0.400
2020/01/31 16:30:09.7	357.870	0.220	-0.190	0.370
2020/01/31 16:30:09.8	357.850	0.220	-0.240	0.330
2020/01/31 16:30:09.9	357.840	0.220	-0.290	0.290
2020/01/31 16:30:10.0	357.830	0.220	-0.340	0.250
2020/01/31 16:30:10.1	357.820	0.220	-0.400	0.200
2020/01/31 16:30:10.2	357.810	0.220	-0.450	0.150
2020/01/31 16:30:10.3	357.810	0.230	-0.500	0.090
2020/01/31 16:30:10.4	357.810	0.230	-0.550	0.030
2020/01/31 16:30:10.5	357.810	0.240	-0.600	-0.030
2020/01/31 16:30:10.6	357.820	0.250	-0.650	-0.100
2020/01/31 16:30:10.7	357.830	0.270	-0.700	-0.170
2020/01/31 16:30:10.8	357.840	0.280	-0.750	-0.240
2020/01/31 16:30:10.9	357.860	0.290	-0.790	-0.310
2020/01/31 16:30:11.0	357.880	0.310	-0.830	-0.380
2020/01/31 16:30:11.1	357.900	0.330	-0.870	-0.450
2020/01/31 16:30:11.2	357.920	0.350	-0.900	-0.510
2020/01/31 16:30:11.3	357.950	0.370	-0.930	-0.580
2020/01/31 16:30:11.4	357.980	0.390	-0.960	-0.640
2020/01/31 16:30:11.5	358.010	0.410	-0.980	-0.700
2020/01/31 16:30:11.6	358.040	0.430	-0.990	-0.750
2020/01/31 16:30:11.7	358.070	0.440	-1.000	-0.810
2020/01/31 16:30:11.8	358.100	0.460	-1.010	-0.850
2020/01/31 16:30:11.9	358.130	0.480	-1.010	-0.900
2020/01/31 16:30:12.0	358.160	0.490	-1.000	-0.930
2020/01/31 16:30:12.1	358.200	0.500	-0.980	-0.970
2020/01/31 16:30:12.2	358.230	0.510	-0.970	-1.000
2020/01/31 16:30:12.3	358.260	0.520	-0.940	-1.020
2020/01/31 16:30:12.4	358.290	0.530	-0.910	-1.040
2020/01/31 16:30:12.5	358.320	0.530	-0.880	-1.060
2020/01/31 16:30:12.6	358.340	0.520	-0.840	-1.070
2020/01/31 16:30:12.7	358.380	0.510	-0.790	-1.080
2020/01/31 16:30:12.8	358.400	0.500	-0.740	-1.080
2020/01/31 16:30:12.9	358.420	0.490	-0.690	-1.080
2020/01/31 16:30:13.0	358.450	0.470	-0.630	-1.080
2020/01/31 16:30:13.1	358.470	0.440	-0.570	-1.070
2020/01/31 16:30:13.2	358.480	0.410	-0.500	-1.070
2020/01/31 16:30:13.3	358.500	0.380	-0.440	-1.050
2020/01/31 16:30:13.4	358.510	0.340	-0.360	-1.040
2020/01/31 16:30:13.5	358.520	0.300	-0.290	-1.020
2020/01/31 16:30:13.6	358.530	0.260	-0.220	-1.010
2020/01/31 16:30:13.7	358.530	0.210	-0.140	-0.980
2020/01/31 16:30:13.8	358.530	0.150	-0.070	-0.960
2020/01/31 16:30:13.9	358.530	0.100	0.010	-0.930
2020/01/31 16:30:14.0	358.520	0.040	0.090	-0.900
2020/01/31 16:30:14.1	358.510	-0.020	0.170	-0.870
2020/01/31 16:30:14.2	358.500	-0.090	0.250	-0.840
2020/01/31 16:30:14.3	358.490	-0.150	0.330	-0.810
2020/01/31 16:30:14.4	358.480	-0.220	0.400	-0.770
2020/01/31 16:30:14.5	358.460	-0.290	0.470	-0.740
2020/01/31 16:30:14.6	358.440	-0.350	0.540	-0.700
2020/01/31 16:30:14.7	358.430	-0.420	0.600	-0.670
2020/01/31 16:30:14.8	358.410	-0.480	0.670	-0.630
2020/01/31 16:30:14.9	358.390	-0.550	0.720	-0.600
2020/01/31 16:30:15.0	358.360	-0.610	0.770	-0.560
2020/01/31 16:30:15.1	358.340	-0.670	0.820	-0.530
2020/01/31 16:30:15.2	358.320	-0.730	0.860	-0.490
2020/01/31 16:30:15.3	358.300	-0.780	0.890	-0.460
2020/01/31 16:30:15.4	358.280	-0.830	0.910	-0.430
2020/01/31 16:30:15.5	358.250	-0.880	0.930	-0.400
2020/01/31 16:30:15.6	358.230	-0.920	0.930	-0.370
2020/01/31 16:30:15.7	358.220	-0.950	0.930	-0.350
2020/01/31 16:30:15.8	358.200	-0.980	0.920	-0.330
2020/01/31 16:30:15.9	358.190	-1.010	0.900	-0.310
2020/01/31 16:30:16.0	358.170	-1.030	0.870	-0.290
2020/01/31 16:30:16.1	358.160	-1.040	0.830	-0.280
2020/01/31 16:30:16.2	358.150	-1.040	0.780	-0.270
2020/01/31 16:30:16.3	358.150	-1.040	0.720	-0.260
2020/01/31 16:30:16.4	358.140	-1.030	0.650	-0.260
2020/01/31 16:30:16.5	358.140	-1.020	0.570	-0.260
2020/01/31 16:30:16.6	358.140	-1.000	0.480	-0.260
2020/01/31 16:30:16.7	358.140	-0.970	0.390	-0.270
2020/01/31 16:30:16.8	358.140	-0.930	0.290	-0.280
2020/01/31 16:30:16.9	358.150	-0.890	0.180	-0.280
2020/01/31 16:30:17.0	358.150	-0.850	0.070	-0.300
2020/01/31 16:30:17.1	358.160	-0.800	-0.040	-0.310
2020/01/31 16:30:17.2	358.160	-0.740	-0.150	-0.320
2020/01/31 16:30:17.3	358.170	-0.680	-0.270	-0.340
2020/01/31 16:30:17.4	358.180	-0.620	-0.380	-0.350
2020/01/31 16:30:17.5	358.190	-0.550	-0.500	-0.370
2020/01/31 16:30:17.6	358.200	-0.480	-0.610	-0.390
2020/01/31 16:30:17.7	358.210	-0.400	-0.720	-0.410
2020/01/31 16:30:17.8	358.220	-0.330	-0.820	-0.430
2020/01/31 16:30:17.9	358.220	-0.250	-0.920	-0.440
2020/01/31 16:30:18.0	358.230	-0.180	-1.010	-0.460
2020/01/31 16:30:18.1	358.240	-0.100	-1.100	-0.480
2020/01/31 16:30:18.2	358.240	-0.020	-1.180	-0.490
2020/01/31 16:30:18.3	358.250	0.050	-1.250	-0.500
2020/01/31 16:30:18.4	358.250	0.120	-1.310	-0.520
2020/01/31 16:30:18.5	358.250	0.190	-1.360	-0.520
2020/01/31 16:30:18.6	358.240	0.260	-1.400	-0.530
2020/01/31 16:30:18.7	358.230	0.330	-1.430	-0.540
2020/01/31 16:30:18.8	358.220	0.390	-1.450	-0.540
2020/01/31 16:30:18.9	358.220	0.440	-1.450	-0.540
2020/01/31 16:30:19.0	358.210	0.490	-1.450	-0.540
2020/01/31 16:30:19.1	358.200	0.540	-1.440	-0.530
2020/01/31 16:30:19.2	358.180	0.580	-1.410	-0.530
2020/01/31 16:30:19.3	358.170	0.620	-1.380	-0.520
2020/01/31 16:30:19.4	358.160	0.650	-1.340	-0.510
2020/01/31 16:30:19.5	358.140	0.670	-1.280	-0.500
2020/01/31 16:30:19.6	358.130	0.690	-1.220	-0.480
2020/01/31 16:30:19.7	358.100	0.710	-1.160	-0.470
2020/01/31 16:30:19.8	358.090	0.720	-1.080	-0.460
2020/01/31 16:30:19.9	358.070	0.720	-1.010	-0.440
2020/01/31 16:30:20.0	358.060	0.720	-0.930	-0.420
2020/01/31 16:30:20.1	358.040	0.720	-0.840	-0.400
2020/01/31 16:30:20.2	358.030	0.710	-0.760	-0.380
2020/01/31 16:30:20.3	358.020	0.690	-0.670	-0.370
2020/01/31 16:30:20.4	358.010	0.670	-0.580	-0.350
2020/01/31 16:30:20.5	358.000	0.650	-0.500	-0.330
2020/01/31 16:30:20.6	358.000	0.630	-0.410	-0.320
2020/01/31 16:30:20.7	357.990	0.600	-0.330	-0.300
2020/01/31 16:30:20.8	357.990	0.580	-0.260	-0.290
2020/01/31 16:30:20.9	357.990	0.550	-0.180	-0.280
2020/01/31 16:30:21.0	358.000	0.520	-0.120	-0.270
2020/01/31 16:30:21.1	358.010	0.480	-0.050	-0.270
2020/01/31 16:30:21.2	358.020	0.450	0.010	-0.260
2020/01/31 16:30:21.3	358.040	0.420	0.060	-0.260
2020/01/31 16:30:21.4	358.060	0.390	0.100	-0.250
2020/01/31 16:30:21.5	358.080	0.360	0.140	-0.260
2020/01/31 16:30:21.6	358.100	0.330	0.180	-0.260
2020/01/31 16:30:21.7	358.130	0.300	0.200	-0.260
2020/01/31 16:30:21.8	358.160	0.270	0.230	-0.260
2020/01/31 16:30:21.9	358.180	0.250	0.250	-0.260
2020/01/31 16:30:22.0	358.200	0.220	0.260	-0.260
2020/01/31 16:30:22.1	358.230	0.200	0.270	-0.260
2020/01/31 16:30:22.2	358.250	0.180	0.280	-0.260
2020/01/31 16:30:22.3	358.260	0.150	0.290	-0.250
2020/01/31 16:30:22.4	358.280	0.130	0.290	-0.250
2020/01/31 16:30:22.5	358.290	0.120	0.290	-0.240
2020/01/31 16:30:22.6	358.300	0.100	0.290	-0.230
2020/01/31 16:30:22.7	358.320	0.080	0.290	-0.210
2020/01/31 16:30:22.8	358.320	0.070	0.290	-0.200
2020/01/31 16:30:22.9	358.320	0.050	0.280	-0.180
2020/01/31 16:30:23.0	358.320	0.040	0.270	-0.170
2020/01/31 16:30:23.1	358.320	0.030	0.270	-0.150
2020/01/31 16:30:23.2	358.310	0.020	0.260	-0.130
2020/01/31 16:30:23.3	358.300	0.010	0.240	-0.110
2020/01/31 16:30:23.4	358.290	-0.000	0.230	-0.100
2020/01/31 16:30:23.5	358.280	-0.010	0.210	-0.080
2020/01/31 16:30:23.6	358.270	-0.020	0.200	-0.070
2020/01/31 16:30:23.7	358.250	-0.030	0.180	-0.060
2020/01/31 16:30:23.8	358.240	-0.030	0.160	-0.050
2020/01/31 16:30:23.9	358.230	-0.040	0.140	-0.040
2020/01/31 16:30:24.0	358.220	-0.050	0.110	-0.030
2020/01/31 16:30:24.1	358.200	-0.050	0.090	-0.030
2020/01/31 16:30:24.2	358.190	-0.060	0.060	-0.030
2020/01/31 16:30:24.3	358.180	-0.060	0.030	-0.040
2020/01/31 16:30:24.4	358.170	-0.060	0.000	-0.040
2020/01/31 16:30:24.5	358.160	-0.070	-0.030	-0.050
2020/01/31 16:30:24.6	358.150	-0.070	-0.060	-0.060
2020/01/31 16:30:24.7	358.140	-0.070	-0.100	-0.070
2020/01/31 16:30:24.8	358.130	-0.080	-0.130	-0.090
2020/01/31 16:30:24.9	358.120	-0.080	-0.170	-0.100
2020/01/31 16:30:25.0	358.110	-0.080	-0.200	-0.120
2020/01/31 16:30:25.1	358.100	-0.080	-0.230	-0.140
2020/01/31 16:30:25.2	358.090	-0.080	-0.270	-0.160
2020/01/31 16:30:25.3	358.080	-0.080	-0.300	-0.180
2020/01/31 16:30:25.4	358.070	-0.090	-0.330	-0.200
2020/01/31 16:30:25.5	358.060	-0.090	-0.360	-0.220
2020/01/31 16:30:25.6	358.050	-0.090	-0.390	-0.240
2020/01/31 16:30:25.7	358.030	-0.090	-0.420	-0.260
2020/01/31 16:30:25.8	358.020	-0.090	-0.440	-0.280
2020/01/31 16:30:25.9	358.010	-0.090	-0.460	-0.310
2020/01/31 16:30:26.0	358.000	-0.090	-0.470	-0.330
2020/01/31 16:30:26.1	358.000	-0.090	-0.490	-0.350
2020/01/31 16:30:26.2	357.990	-0.090	-0.500	-0.370
2020/01/31 16:30:26.3	357.980	-0.090	-0.510	-0.400
2020/01/31 16:30:26.4	357.970	-0.090	-0.510	-0.420
2020/01/31 16:30:26.5	357.970	-0.100	-0.510	-0.440
2020/01/31 16:30:26.6	357.960	-0.100	-0.510	-0.460
2020/01/31 16:30:26.7	357.950	-0.100	-0.500	-0.490
2020/01/31 16:30:26.8	357.950	-0.100	-0.490	-0.510
2020/01/31 16:30:26.9	357.950	-0.100	-0.480	-0.520
2020/01/31 16:30:27.0	357.950	-0.100	-0.460	-0.540
2020/01/31 16:30:27.1	357.940	-0.100	-0.440	-0.550
2020/01/31 16:30:27.2	357.940	-0.100	-0.420	-0.570
2020/01/31 16:30:27.3	357.940	-0.090	-0.390	-0.580
2020/01/31 16:30:27.4	357.940	-0.090	-0.370	-0.590
2020/01/31 16:30:27.5	357.940	-0.090	-0.340	-0.600
2020/01/31 16:30:27.6	357.940	-0.090	-0.300	-0.600
2020/01/31 16:30:27.7	357.940	-0.090	-0.270	-0.610
2020/01/31 16:30:27.8	357.940	-0.090	-0.230	-0.610
2020/01/31 16:30:27.9	357.940	-0.090	-0.200	-0.610
2020/01/31 16:30:28.0	357.940	-0.090	-0.160	-0.610
2020/01/31 16:30:28.1	357.940	-0.090	-0.130	-0.600
2020/01/31 16:30:28.2	357.940	-0.090	-0.090	-0.600
2020/01/31 16:30:28.3	357.940	-0.090	-0.060	-0.590
2020/01/31 16:30:28.4	357.940	-0.090	-0.030	-0.580
2020/01/31 16:30:28.5	357.940	-0.090	0.000	-0.570
2020/01/31 16:30:28.6	357.940	-0.090	0.030	-0.570
2020/01/31 16:30:28.7	357.940	-0.100	0.050	-0.560
2020/01/31 16:30:28.8	357.940	-0.100	0.080	-0.550
2020/01/31 16:30:28.9	357.940	-0.100	0.090	-0.540
2020/01/31 16:30:29.0	357.950	-0.100	0.110	-0.530
2020/01/31 16:30:29.1	357.950	-0.100	0.120	-0.520
2020/01/31 16:30:29.2	357.950	-0.100	0.120	-0.520
2020/01/31 16:30:29.3	357.960	-0.100	0.120	-0.510
2020/01/31 16:30:29.4	357.960	-0.110	0.120	-0.510
2020/01/31 16:30:29.5	357.970	-0.110	0.110	-0.500
2020/01/31 16:30:29.6	357.980	-0.110	0.090	-0.500
2020/01/31 16:30:29.7	357.980	-0.110	0.070	-0.500
2020/01/31 16:30:29.8	357.990	-0.110	0.050	-0.500
2020/01/31 16:30:29.9	358.010	-0.110	0.020	-0.500
2020/01/31 16:30:30.0	358.020	-0.110	-0.010	-0.510
2020/01/31 16:30:30.1	358.030	-0.110	-0.050	-0.510
2020/01/31 16:30:30.2	358.050	-0.120	-0.090	-0.520
2020/01/31 16:30:30.3	358.070	-0.110	-0.140	-0.530
2020/01/31 16:30:30.4	358.080	-0.110	-0.190	-0.540
2020/01/31 16:30:30.5	358.100	-0.110	-0.240	-0.550
2020/01/31 16:30:30.6	358.120	-0.110	-0.290	-0.570
2020/01/31 16:30:30.7	358.150	-0.110	-0.340	-0.580
2020/01/31 16:30:30.8	358.180	-0.100	-0.400	-0.600
2020/01/31 16:30:30.9	358.200	-0.100	-0.450	-0.620
2020/01/31 16:30:31.0	358.230	-0.090	-0.510	-0.630
2020/01/31 16:30:31.1	358.250	-0.080	-0.560	-0.650
2020/01/31 16:30:31.2	358.280	-0.080	-0.610	-0.670
2020/01/31 16:30:31.3	358.310	-0.070	-0.660	-0.680
2020/01/31 16:30:31.4	358.330	-0.060	-0.710	-0.700
2020/01/31 16:30:31.5	358.360	-0.050	-0.760	-0.710
2020/01/31 16:30:31.6	358.390	-0.040	-0.790	-0.720
2020/01/31 16:30:31.7	358.410	-0.030	-0.830	-0.740
2020/01/31 16:30:31.8	358.430	-0.020	-0.860	-0.740
2020/01/31 16:30:31.9	358.460	-0.010	-0.890	-0.750
2020/01/31 16:30:32.0	358.480	0.010	-0.900	-0.750
2020/01/31 16:30:32.1	358.500	0.020	-0.920	-0.750
2020/01/31 16:30:32.2	358.520	0.030	-0.920	-0.750
2020/01/31 16:30:32.3	358.540	0.050	-0.920	-0.740
2020/01/31 16:30:32.4	358.550	0.060	-0.920	-0.730
2020/01/31 16:30:32.5	358.560	0.070	-0.900	-0.720
2020/01/31 16:30:32.6	358.580	0.080	-0.890	-0.700
2020/01/31 16:30:32.7	358.580	0.090	-0.860	-0.690
2020/01/31 16:30:32.8	358.590	0.100	-0.830	-0.660
2020/01/31 16:30:32.9	358.600	0.110	-0.800	-0.640
2020/01/31 16:30:33.0	358.600	0.120	-0.760	-0.610
2020/01/31 16:30:33.1	358.610	0.130	-0.710	-0.570
2020/01/31 16:30:33.2	358.610	0.140	-0.670	-0.540
2020/01/31 16:30:33.3	358.610	0.140	-0.620	-0.500
2020/01/31 16:30:33.4	358.610	0.150	-0.560	-0.470
2020/01/31 16:30:33.5	358.600	0.150	-0.510	-0.430
2020/01/31 16:30:33.6	358.600	0.150	-0.450	-0.380
2020/01/31 16:30:33.7	358.590	0.150	-0.400	-0.340
2020/01/31 16:30:33.8	358.580	0.150	-0.340	-0.300
2020/01/31 16:30:33.9	358.580	0.150	-0.280	-0.250
2020/01/31 16:30:34.0	358.570	0.150	-0.220	-0.210
2020/01/31 16:30:34.1	358.560	0.140	-0.160	-0.170
2020/01/31 16:30:34.2	358.550	0.140	-0.100	-0.120
2020/01/31 16:30:34.3	358.540	0.130	-0.050	-0.080
2020/01/31 16:30:34.4	358.530	0.120	0.010	-0.040
2020/01/31 16:30:34.5	358.510	0.110	0.060	0.010
2020/01/31 16:30:34.6	358.500	0.110	0.100	0.050
2020/01/31 16:30:34.7	358.500	0.100	0.150	0.080
2020/01/31 16:30:34.8	358.490	0.090	0.190	0.120
2020/01/31 16:30:34.9	358.480	0.080	0.230	0.160
2020/01/31 16:30:35.0	358.470	0.070	0.270	0.190
2020/01/31 16:30:35.1	358.460	0.060	0.300	0.220
2020/01/31 16:30:35.2	358.450	0.050	0.320	0.240
2020/01/31 16:30:35.3	358.450	0.050	0.350	0.260
2020/01/31 16:30:35.4	358.440	0.040	0.360	0.280
2020/01/31 16:30:35.5	358.430	0.030	0.380	0.300
2020/01/31 16:30:35.6	358.420	0.030	0.390	0.310
2020/01/31 16:30:35.7	358.410	0.020	0.390	0.310
2020/01/31 16:30:35.8	358.400	0.020	0.390	0.320
2020/01/31 16:30:35.9	358.390	0.020	0.390	0.320
2020/01/31 16:30:36.0	358.380	0.020	0.380	0.320
2020/01/31 16:30:36.1	358.370	0.010	0.370	0.320
2020/01/31 16:30:36.2	358.360	0.020	0.360	0.320
2020/01/31 16:30:36.3	358.340	0.020	0.340	0.310
2020/01/31 16:30:36.4	358.330	0.020	0.320	0.300
2020/01/31 16:30:36.5	358.310	0.020	0.300	0.290
2020/01/31 16:30:36.6	358.300	0.030	0.280	0.280
2020/01/31 16:30:36.7	358.280	0.030	0.250	0.270
2020/01/31 16:30:36.8	358.260	0.040	0.220	0.250
2020/01/31 16:30:36.9	358.250	0.040	0.190	0.240
2020/01/31 16:30:37.0	358.230	0.050	0.160	0.220
2020/01/31 16:30:37.1	358.220	0.060	0.130	0.200
2020/01/31 16:30:37.2	358.200	0.070	0.100	0.180
2020/01/31 16:30:37.3	358.190	0.080	0.060	0.160
2020/01/31 16:30:37.4	358.180	0.090	0.020	0.140
2020/01/31 16:30:37.5	358.170	0.090	-0.020	0.110
2020/01/31 16:30:37.6	358.170	0.100	-0.050	0.080
2020/01/31 16:30:37.7	358.160	0.110	-0.100	0.050
2020/01/31 16:30:37.8	358.160	0.120	-0.140	0.010
2020/01/31 16:30:37.9	358.160	0.130	-0.180	-0.030
2020/01/31 16:30:38.0	358.160	0.140	-0.220	-0.060
2020/01/31 16:30:38.1	358.170	0.150	-0.270	-0.110
2020/01/31 16:30:38.2	358.180	0.160	-0.320	-0.150
2020/01/31 16:30:38.3	358.190	0.160	-0.360	-0.200
2020/01/31 16:30:38.4	358.210	0.170	-0.410	-0.250
2020/01/31 16:30:38.5	358.230	0.180	-0.460	-0.300
2020/01/31 16:30:38.6	358.250	0.190	-0.500	-0.360
2020/01/31 16:30:38.7	358.280	0.200	-0.550	-0.420
2020/01/31 16:30:38.8	358.310	0.200	-0.600	-0.470
2020/01/31 16:30:38.9	358.340	0.210	-0.650	-0.530
2020/01/31 16:30:39.0	358.380	0.220	-0.700	-0.590
2020/01/31 16:30:39.1	358.420	0.220	-0.740	-0.640
2020/01/31 16:30:39.2	358.460	0.230	-0.780	-0.700
2020/01/31 16:30:39.3	358.500	0.230	-0.830	-0.750
2020/01/31 16:30:39.4	358.540	0.230	-0.860	-0.810
2020/01/31 16:30:39.5	358.580	0.240	-0.890	-0.860
2020/01/31 16:30:39.6	358.620	0.240	-0.920	-0.900
2020/01/31 16:30:39.7	358.650	0.240	-0.950	-0.950
2020/01/31 16:30:39.8	358.690	0.240	-0.960	-0.990
2020/01/31 16:30:39.9	358.730	0.230	-0.970	-1.030
2020/01/31 16:30:40.0	358.760	0.230	-0.980	-1.060
2020/01/31 16:30:40.1	358.790	0.220	-0.980	-1.090
2020/01/31 16:30:40.2	358.820	0.210	-0.970	-1.110
2020/01/31 16:30:40.3	358.840	0.190	-0.950	-1.130
2020/01/31 16:30:40.4	358.860	0.180	-0.930	-1.140
2020/01/31 16:30:40.5	358.880	0.160	-0.900	-1.150
2020/01/31 16:30:40.6	358.890	0.140	-0.860	-1.150
2020/01/31 16:30:40.7	358.890	0.120	-0.820	-1.150
2020/01/31 16:30:40.8	358.900	0.100	-0.770	-1.140
2020/01/31 16:30:40.9	358.890	0.070	-0.710	-1.130
2020/01/31 16:30:41.0	358.890	0.040	-0.650	-1.120
2020/01/31 16:30:41.1	358.880	0.010	-0.580	-1.100
2020/01/31 16:30:41.2	358.860	-0.020	-0.500	-1.080
2020/01/31 16:30:41.3	358.850	-0.050	-0.430	-1.050
2020/01/31 16:30:41.4	358.830	-0.090	-0.350	-1.020
2020/01/31 16:30:41.5	358.800	-0.120	-0.270	-0.990
2020/01/31 16:30:41.6	358.780	-0.160	-0.180	-0.950
2020/01/31 16:30:41.7	358.750	-0.190	-0.100	-0.910
2020/01/31 16:30:41.8	358.720	-0.230	-0.020	-0.880
2020/01/31 16:30:41.9	358.700	-0.260	0.060	-0.840
2020/01/31 16:30:42.0	358.670	-0.300	0.140	-0.800
2020/01/31 16:30:42.1	358.640	-0.330	0.210	-0.760
2020/01/31 16:30:42.2	358.620	-0.370	0.280	-0.720
2020/01/31 16:30:42.3	358.590	-0.400	0.340	-0.680
2020/01/31 16:30:42.4	358.570	-0.430	0.400	-0.650
2020/01/31 16:30:42.5	358.540	-0.450	0.450	-0.620
2020/01/31 16:30:42.6	358.520	-0.480	0.490	-0.580
2020/01/31 16:30:42.7	358.510	-0.500	0.520	-0.560
2020/01/31 16:30:42.8	358.500	-0.520	0.550	-0.530
2020/01/31 16:30:42.9	358.480	-0.530	0.560	-0.510
2020/01/31 16:30:43.0	358.470	-0.550	0.570	-0.490
2020/01/31 16:30:43.1	358.470	-0.550	0.570	-0.480
2020/01/31 16:30:43.2	358.460	-0.560	0.560	-0.470
2020/01/31 16:30:43.3	358.460	-0.560	0.540	-0.460
2020/01/31 16:30:43.4	358.450	-0.560	0.520	-0.450
2020/01/31 16:30:43.5	358.450	-0.550	0.480	-0.450
2020/01/31 16:30:43.6	358.460	-0.540	0.440	-0.460
2020/01/31 16:30:43.7	358.460	-0.530	0.400	-0.460
2020/01/31 16:30:43.8	358.460	-0.520	0.340	-0.470
2020/01/31 16:30:43.9	358.470	-0.500	0.280	-0.480
2020/01/31 16:30:44.0	358.480	-0.470	0.220	-0.500
2020/01/31 16:30:44.1	358.490	-0.450	0.160	-0.510
2020/01/31 16:30:44.2	358.510	-0.420	0.090	-0.530
2020/01/31 16:30:44.3	358.520	-0.390	0.020	-0.550
2020/01/31 16:30:44.4	358.540	-0.360	-0.050	-0.570
2020/01/31 16:30:44.5	358.560	-0.320	-0.120	-0.590
2020/01/31 16:30:44.6	358.580	-0.290	-0.190	-0.620
2020/01/31 16:30:44.7	358.600	-0.250	-0.270	-0.650
2020/01/31 16:30:44.8	358.630	-0.220	-0.330	-0.670
2020/01/31 16:30:44.9	358.650	-0.180	-0.390	-0.690
2020/01/31 16:30:45.0	358.670	-0.140	-0.450	-0.720
2020/01/31 16:30:45.1	358.700	-0.100	-0.510	-0.740
2020/01/31 16:30:45.2	358.730	-0.060	-0.560	-0.760
2020/01/31 16:30:45.3	358.750	-0.020	-0.610	-0.780
2020/01/31 16:30:45.4	358.770	0.010	-0.650	-0.800
2020/01/31 16:30:45.5	358.800	0.050	-0.680	-0.810
2020/01/31 16:30:45.6	358.820	0.080	-0.710	-0.820
2020/01/31 16:30:45.7	358.830	0.110	-0.730	-0.830
2020/01/31 16:30:45.8	358.850	0.150	-0.750	-0.830
2020/01/31 16:30:45.9	358.860	0.170	-0.760	-0.830
2020/01/31 16:30:46.0	358.880	0.200	-0.760	-0.820
2020/01/31 16:30:46.1	358.890	0.220	-0.760	-0.810
2020/01/31 16:30:46.2	358.900	0.240	-0.760	-0.800
2020/01/31 16:30:46.3	358.910	0.260	-0.750	-0.790
2020/01/31 16:30:46.4	358.910	0.280	-0.740	-0.770
2020/01/31 16:30:46.5	358.920	0.290	-0.720	-0.740
2020/01/31 16:30:46.6	358.920	0.300	-0.700	-0.710
2020/01/31 16:30:46.7	358.920	0.310	-0.680	-0.680
2020/01/31 16:30:46.8	358.910	0.320	-0.650	-0.650
2020/01/31 16:30:46.9	358.910	0.320	-0.620	-0.610
2020/01/31 16:30:47.0	358.900	0.320	-0.590	-0.570
2020/01/31 16:30:47.1	358.890	0.320	-0.560	-0.530
2020/01/31 16:30:47.2	358.870	0.320	-0.530	-0.490
2020/01/31 16:30:47.3	358.860	0.320	-0.500	-0.450
2020/01/31 16:30:47.4	358.840	0.310	-0.470	-0.410
2020/01/31 16:30:47.5	358.830	0.310	-0.430	-0.370
2020/01/31 16:30:47.6	358.810	0.300	-0.400	-0.330
2020/01/31 16:30:47.7	358.790	0.290	-0.370	-0.290
2020/01/31 16:30:47.8	358.770	0.280	-0.340	-0.250
2020/01/31 16:30:47.9	358.750	0.270	-0.300	-0.210
2020/01/31 16:30:48.0	358.730	0.260	-0.270	-0.170
2020/01/31 16:30:48.1	358.700	0.250	-0.240	-0.130
2020/01/31 16:30:48.2	358.680	0.240	-0.220	-0.100
2020/01/31 16:30:48.3	358.660	0.230	-0.190	-0.060
2020/01/31 16:30:48.4	358.640	0.220	-0.170	-0.030
2020/01/31 16:30:48.5	358.620	0.210	-0.140	-0.000
2020/01/31 16:30:48.6	358.600	0.210	-0.120	0.020
2020/01/31 16:30:48.7	358.590	0.200	-0.110	0.040
2020/01/31 16:30:48.8	358.570	0.190	-0.090	0.070
2020/01/31 16:30:48.9	358.560	0.190	-0.080	0.080
2020/01/31 16:30:49.0	358.540	0.180	-0.060	0.100
2020/01/31 16:30:49.1	358.530	0.180	-0.060	0.110
2020/01/31 16:30:49.2	358.530	0.170	-0.050	0.110
2020/01/31 16:30:49.3	358.520	0.170	-0.050	0.110
2020/01/31 16:30:49.4	358.520	0.170	-0.050	0.110
2020/01/31 16:30:49.5	358.520	0.170	-0.050	0.110
2020/01/31 16:30:49.6	358.520	0.170	-0.060	0.100
2020/01/31 16:30:49.7	358.530	0.170	-0.060	0.080
2020/01/31 16:30:49.8	358.530	0.160	-0.070	0.070
2020/01/31 16:30:49.9	358.540	0.160	-0.080	0.050
2020/01/31 16:30:50.0	358.550	0.160	-0.100	0.030
2020/01/31 16:30:50.1	358.560	0.160	-0.110	0.000
2020/01/31 16:30:50.2	358.580	0.160	-0.130	-0.020
2020/01/31 16:30:50.3	358.590	0.150	-0.150	-0.050
2020/01/31 16:30:50.4	358.600	0.150	-0.160	-0.080
2020/01/31 16:30:50.5	358.610	0.140	-0.180	-0.100
2020/01/31 16:30:50.6	358.630	0.140	-0.200	-0.130
2020/01/31 16:30:50.7	358.650	0.130	-0.220	-0.160
2020/01/31 16:30:50.8	358.660	0.120	-0.240	-0.190
2020/01/31 16:30:50.9	358.670	0.120	-0.260	-0.230
2020/01/31 16:30:51.0	358.690	0.110	-0.270	-0.260
2020/01/31 16:30:51.1	358.700	0.100	-0.290	-0.290
2020/01/31 16:30:51.2	358.720	0.090	-0.300	-0.320
2020/01/31 16:30:51.3	358.730	0.080	-0.320	-0.350
2020/01/31 16:30:51.4	358.750	0.060	-0.330	-0.380
2020/01/31 16:30:51.5	358.760	0.050	-0.340	-0.410
2020/01/31 16:30:51.6	358.780	0.040	-0.350	-0.440
2020/01/31 16:30:51.7	358.780	0.030	-0.360	-0.470
2020/01/31 16:30:51.8	358.790	0.020	-0.360	-0.490
2020/01/31 16:30:51.9	358.800	0.010	-0.370	-0.520
2020/01/31 16:30:52.0	358.820	-0.010	-0.370	-0.540
2020/01/31 16:30:52.1	358.830	-0.020	-0.370	-0.560
2020/01/31 16:30:52.2	358.840	-0.030	-0.360	-0.580
2020/01/31 16:30:52.3	358.850	-0.040	-0.360	-0.600
2020/01/31 16:30:52.4	358.860	-0.040	-0.350	-0.610
2020/01/31 16:30:52.5	358.870	-0.050	-0.340	-0.630
2020/01/31 16:30:52.6	358.870	-0.060	-0.330	-0.640
2020/01/31 16:30:52.7	358.880	-0.060	-0.310	-0.650
2020/01/31 16:30:52.8	358.880	-0.070	-0.300	-0.650
2020/01/31 16:30:52.9	358.890	-0.070	-0.280	-0.650
2020/01/31 16:30:53.0	358.890	-0.080	-0.260	-0.650
2020/01/31 16:30:53.1	358.890	-0.080	-0.240	-0.650
2020/01/31 16:30:53.2	358.890	-0.080	-0.220	-0.650
2020/01/31 16:30:53.3	358.890	-0.080	-0.200	-0.640
2020/01/31 16:30:53.4	358.890	-0.080	-0.180	-0.630
2020/01/31 16:30:53.5	358.890	-0.080	-0.160	-0.620
2020/01/31 16:30:53.6	358.890	-0.080	-0.140	-0.610
2020/01/31 16:30:53.7	358.880	-0.080	-0.120	-0.590
2020/01/31 16:30:53.8	358.880	-0.080	-0.110	-0.580
2020/01/31 16:30:53.9	358.880	-0.070	-0.090	-0.570
2020/01/31 16:30:54.0	358.870	-0.070	-0.070	-0.550
2020/01/31 16:30:54.1	358.870	-0.070	-0.060	-0.540
2020/01/31 16:30:54.2	358.860	-0.070	-0.040	-0.520
2020/01/31 16:30:54.3	358.850	-0.070	-0.030	-0.510
2020/01/31 16:30:54.4	358.850	-0.070	-0.020	-0.490
2020/01/31 16:30:54.5	358.840	-0.080	-0.010	-0.480
2020/01/31 16:30:54.6	358.830	-0.080	-0.000	-0.470
2020/01/31 16:30:54.7	358.830	-0.080	0.000	-0.460
2020/01/31 16:30:54.8	358.820	-0.090	0.010	-0.460
2020/01/31 16:30:54.9	358.810	-0.090	0.010	-0.450
2020/01/31 16:30:55.0	358.800	-0.100	0.010	-0.440
2020/01/31 16:30:55.1	358.790	-0.100	0.010	-0.430
2020/01/31 16:30:55.2	358.780	-0.110	0.000	-0.430
2020/01/31 16:30:55.3	358.770	-0.120	-0.000	-0.430
2020/01/31 16:30:55.4	358.760	-0.130	-0.010	-0.430
2020/01/31 16:30:55.5	358.750	-0.130	-0.020	-0.430
2020/01/31 16:30:55.6	358.750	-0.140	-0.030	-0.430
2020/01/31 16:30:55.7	358.740	-0.150	-0.050	-0.430
2020/01/31 16:30:55.8	358.730	-0.160	-0.070	-0.440
2020/01/31 16:30:55.9	358.730	-0.170	-0.090	-0.440
2020/01/31 16:30:56.0	358.720	-0.180	-0.110	-0.450
2020/01/31 16:30:56.1	358.720	-0.180	-0.130	-0.460
2020/01/31 16:30:56.2	358.720	-0.190	-0.160	-0.480
2020/01/31 16:30:56.3	358.720	-0.200	-0.190	-0.490
2020/01/31 16:30:56.4	358.720	-0.200	-0.220	-0.510
2020/01/31 16:30:56.5	358.730	-0.200	-0.250	-0.530
2020/01/31 16:30:56.6	358.740	-0.210	-0.280	-0.550
2020/01/31 16:30:56.7	358.760	-0.210	-0.310	-0.580
2020/01/31 16:30:56.8	358.770	-0.210	-0.340	-0.600
2020/01/31 16:30:56.9	358.790	-0.200	-0.370	-0.620
2020/01/31 16:30:57.0	358.800	-0.200	-0.400	-0.650
2020/01/31 16:30:57.1	358.820	-0.190	-0.430	-0.670
2020/01/31 16:30:57.2	358.840	-0.190	-0.460	-0.690
2020/01/31 16:30:57.3	358.860	-0.180	-0.480	-0.710
2020/01/31 16:30:57.4	358.870	-0.170	-0.500	-0.730
2020/01/31 16:30:57.5	358.890	-0.160	-0.520	-0.740
2020/01/31 16:30:57.6	358.910	-0.140	-0.540	-0.750
2020/01/31 16:30:57.7	358.930	-0.130	-0.550	-0.760
2020/01/31 16:30:57.8	358.950	-0.120	-0.550	-0.760
2020/01/31 16:30:57.9	358.960	-0.100	-0.550	-0.760
2020/01/31 16:30:58.0	358.970	-0.090	-0.550	-0.760
2020/01/31 16:30:58.1	358.970	-0.070	-0.540	-0.760
2020/01/31 16:30:58.2	358.980	-0.060	-0.520	-0.750
2020/01/31 16:30:58.3	358.980	-0.040	-0.500	-0.730
2020/01/31 16:30:58.4	358.980	-0.020	-0.480	-0.710
2020/01/31 16:30:58.5	358.970	-0.010	-0.450	-0.690
2020/01/31 16:30:58.6	358.970	0.010	-0.420	-0.670
2020/01/31 16:30:58.7	358.960	0.020	-0.390	-0.640
2020/01/31 16:30:58.8	358.950	0.030	-0.350	-0.610
2020/01/31 16:30:58.9	358.930	0.050	-0.310	-0.570
2020/01/31 16:30:59.0	358.920	0.060	-0.270	-0.530
2020/01/31 16:30:59.1	358.890	0.070	-0.230	-0.480
2020/01/31 16:30:59.2	358.870	0.080	-0.180	-0.440
2020/01/31 16:30:59.3	358.850	0.090	-0.140	-0.390
2020/01/31 16:30:59.4	358.820	0.100	-0.100	-0.330
2020/01/31 16:30:59.5	358.790	0.110	-0.050	-0.280
2020/01/31 16:30:59.6	358.750	0.110	-0.010	-0.220
2020/01/31 16:30:59.7	358.720	0.120	0.020	-0.160
2020/01/31 16:30:59.8	358.690	0.130	0.060	-0.100
2020/01/31 16:30:59.9	358.650	0.130	0.090	-0.040
2020/01/31 16:31:00.0	358.620	0.130	0.120	0.020
2020/01/31 16:31:00.1	358.580	0.140	0.140	0.070
2020/01/31 16:31:00.2	358.540	0.140	0.160	0.130
2020/01/31 16:31:00.3	358.510	0.140	0.180	0.180
2020/01/31 16:31:00.4	358.470	0.140	0.190	0.230
2020/01/31 16:31:00.5	358.440	0.140	0.190	0.280
2020/01/31 16:31:00.6	358.410	0.140	0.190	0.320
2020/01/31 16:31:00.7	358.380	0.140	0.180	0.360
2020/01/31 16:31:00.8	358.360	0.140	0.170	0.390
2020/01/31 16:31:00.9	358.340	0.150	0.150	0.410
2020/01/31 16:31:01.0	358.320	0.150	0.120	0.430
2020/01/31 16:31:01.1	358.310	0.150	0.090	0.450
2020/01/31 16:31:01.2	358.300	0.150	0.050	0.450
2020/01/31 16:31:01.3	358.300	0.150	0.010	0.450
2020/01/31 16:31:01.4	358.300	0.150	-0.030	0.440
2020/01/31 16:31:01.5	358.300	0.160	-0.080	0.430
2020/01/31 16:31:01.6	358.310	0.160	-0.140	0.410
2020/01/31 16:31:01.7	358.320	0.170	-0.190	0.380
2020/01/31 16:31:01.8	358.340	0.170	-0.250	0.350
2020/01/31 16:31:01.9	358.360	0.180	-0.310	0.310
2020/01/31 16:31:02.0	358.380	0.190	-0.380	0.280
2020/01/31 16:31:02.1	358.410	0.200	-0.440	0.240
2020/01/31 16:31:02.2	358.440	0.200	-0.500	0.200
2020/01/31 16:31:02.3	358.460	0.210	-0.560	0.160
2020/01/31 16:31:02.4	358.500	0.220	-0.620	0.110
2020/01/31 16:31:02.5	358.530	0.230	-0.680	0.070
2020/01/31 16:31:02.6	358.560	0.240	-0.740	0.030
2020/01/31 16:31:02.7	358.600	0.250	-0.790	-0.020
2020/01/31 16:31:02.8	358.630	0.250	-0.840	-0.060
2020/01/31 16:31:02.9	358.670	0.260	-0.880	-0.100
2020/01/31 16:31:03.0	358.700	0.270	-0.920	-0.140
2020/01/31 16:31:03.1	358.740	0.270	-0.960	-0.180
2020/01/31 16:31:03.2	358.780	0.270	-0.990	-0.220
2020/01/31 16:31:03.3	358.810	0.280	-1.010	-0.260
2020/01/31 16:31:03.4	358.850	0.280	-1.030	-0.300
2020/01/31 16:31:03.5	358.880	0.280	-1.050	-0.340
2020/01/31 16:31:03.6	358.920	0.270	-1.050	-0.370
2020/01/31 16:31:03.7	358.930	0.270	-1.060	-0.410
2020/01/31 16:31:03.8	358.960	0.260	-1.050	-0.440
2020/01/31 16:31:03.9	358.990	0.250	-1.040	-0.480
2020/01/31 16:31:04.0	359.020	0.240	-1.030	-0.510
2020/01/31 16:31:04.1	359.050	0.230	-1.010	-0.540
2020/01/31 16:31:04.2	359.080	0.220	-0.990	-0.570
2020/01/31 16:31:04.3	359.100	0.200	-0.960	-0.600
2020/01/31 16:31:04.4	359.120	0.180	-0.920	-0.630
2020/01/31 16:31:04.5	359.140	0.160	-0.880	-0.650
2020/01/31 16:31:04.6	359.160	0.140	-0.840	-0.680
2020/01/31 16:31:04.7	359.180	0.110	-0.800	-0.700
2020/01/31 16:31:04.8	359.190	0.090	-0.740	-0.720
2020/01/31 16:31:04.9	359.200	0.060	-0.690	-0.740
2020/01/31 16:31:05.0	359.210	0.030	-0.630	-0.760
2020/01/31 16:31:05.1	359.220	0.000	-0.570	-0.770
2020/01/31 16:31:05.2	359.220	-0.030	-0.500	-0.790
2020/01/31 16:31:05.3	359.220	-0.060	-0.430	-0.800
2020/01/31 16:31:05.4	359.210	-0.090	-0.360	-0.810
2020/01/31 16:31:05.5	359.210	-0.130	-0.290	-0.810
2020/01/31 16:31:05.6	359.200	-0.160	-0.220	-0.820
2020/01/31 16:31:05.7	359.190	-0.200	-0.140	-0.820
2020/01/31 16:31:05.8	359.170	-0.230	-0.070	-0.810
2020/01/31 16:31:05.9	359.150	-0.270	0.010	-0.810
2020/01/31 16:31:06.0	359.130	-0.300	0.090	-0.800
2020/01/31 16:31:06.1	359.100	-0.330	0.160	-0.790
2020/01/31 16:31:06.2	359.070	-0.360	0.240	-0.770
2020/01/31 16:31:06.3	359.040	-0.400	0.320	-0.760
2020/01/31 16:31:06.4	359.000	-0.420	0.390	-0.730
2020/01/31 16:31:06.5	358.970	-0.450	0.460	-0.710
2020/01/31 16:31:06.6	358.930	-0.480	0.530	-0.680
2020/01/31 16:31:06.7	358.890	-0.500	0.590	-0.660
2020/01/31 16:31:06.8	358.850	-0.520	0.650	-0.630
2020/01/31 16:31:06.9	358.800	-0.540	0.710	-0.600
2020/01/31 16:31:07.0	358.760	-0.560	0.760	-0.570
2020/01/31 16:31:07.1	358.710	-0.570	0.810	-0.540
2020/01/31 16:31:07.2	358.660	-0.580	0.850	-0.500
2020/01/31 16:31:07.3	358.610	-0.590	0.880	-0.470
2020/01/31 16:31:07.4	358.570	-0.590	0.910	-0.430
2020/01/31 16:31:07.5	358.520	-0.590	0.930	-0.390
2020/01/31 16:31:07.6	358.470	-0.580	0.940	-0.360
2020/01/31 16:31:07.7	358.420	-0.570	0.950	-0.320
2020/01/31 16:31:07.8	358.380	-0.560	0.950	-0.280
2020/01/31 16:31:07.9	358.330	-0.540	0.940	-0.250
2020/01/31 16:31:08.0	358.290	-0.510	0.920	-0.210
2020/01/31 16:31:08.1	358.250	-0.490	0.900	-0.180
2020/01/31 16:31:08.2	358.210	-0.450	0.860	-0.140
2020/01/31 16:31:08.3	358.170	-0.420	0.820	-0.110
2020/01/31 16:31:08.4	358.140	-0.370	0.780	-0.080
2020/01/31 16:31:08.5	358.100	-0.330	0.720	-0.050
2020/01/31 16:31:08.6	358.070	-0.280	0.660	-0.020
2020/01/31 16:31:08.7	358.040	-0.230	0.600	0.000
2020/01/31 16:31:08.8	358.020	-0.170	0.520	0.030
2020/01/31 16:31:08.9	357.990	-0.110	0.450	0.050
2020/01/31 16:31:09.0	357.970	-0.050	0.370	0.080
2020/01/31 16:31:09.1	357.940	0.010	0.280	0.100
2020/01/31 16:31:09.2	357.920	0.070	0.190	0.120
2020/01/31 16:31:09.3	357.900	0.140	0.110	0.140
2020/01/31 16:31:09.4	357.890	0.200	0.020	0.160
2020/01/31 16:31:09.5	357.870	0.260	-0.080	0.170
2020/01/31 16:31:09.6	357.860	0.320	-0.170	0.190
2020/01/31 16:31:09.7	357.840	0.380	-0.260	0.200
2020/01/31 16:31:09.8	357.830	0.440	-0.340	0.220
2020/01/31 16:31:09.9	357.830	0.490	-0.430	0.230
2020/01/31 16:31:10.0	357.820	0.540	-0.510	0.240
2020/01/31 16:31:10.1	357.820	0.580	-0.590	0.250
2020/01/31 16:31:10.2	357.820	0.620	-0.670	0.260
2020/01/31 16:31:10.3	357.820	0.660	-0.740	0.270
2020/01/31 16:31:10.4	357.820	0.690	-0.800	0.280
2020/01/31 16:31:10.5	357.830	0.710	-0.860	0.280
2020/01/31 16:31:10.6	357.840	0.730	-0.920	0.290
2020/01/31 16:31:10.7	357.840	0.740	-0.970	0.290
2020/01/31 16:31:10.8	357.850	0.740	-1.020	0.290
2020/01/31 16:31:10.9	357.870	0.740	-1.050	0.290
2020/01/31 16:31:11.0	357.880	0.730	-1.090	0.290
2020/01/31 16:31:11.1	357.900	0.710	-1.110	0.290
2020/01/31 16:31:11.2	357.920	0.690	-1.130	0.280
2020/01/31 16:31:11.3	357.930	0.670	-1.150	0.280
2020/01/31 16:31:11.4	357.950	0.630	-1.160	0.270
2020/01/31 16:31:11.5	357.970	0.590	-1.160	0.260
2020/01/31 16:31:11.6	357.990	0.550	-1.160	0.240
2020/01/31 16:31:11.7	358.010	0.500	-1.150	0.220
2020/01/31 16:31:11.8	358.030	0.440	-1.140	0.210
2020/01/31 16:31:11.9	358.060	0.390	-1.130	0.180
2020/01/31 16:31:12.0	358.080	0.330	-1.110	0.160
2020/01/31 16:31:12.1	358.100	0.260	-1.080	0.130
2020/01/31 16:31:12.2	358.130	0.200	-1.060	0.100
2020/01/31 16:31:12.3	358.150	0.130	-1.020	0.070
2020/01/31 16:31:12.4	358.180	0.070	-0.990	0.030
2020/01/31 16:31:12.5	358.210	-0.000	-0.960	-0.010
2020/01/31 16:31:12.6	358.240	-0.070	-0.920	-0.060
2020/01/31 16:31:12.7	358.260	-0.130	-0.880	-0.110
2020/01/31 16:31:12.8	358.290	-0.200	-0.840	-0.170
2020/01/31 16:31:12.9	358.320	-0.260	-0.800	-0.220
2020/01/31 16:31:13.0	358.350	-0.310	-0.760	-0.280
2020/01/31 16:31:13.1	358.380	-0.370	-0.720	-0.340
2020/01/31 16:31:13.2	358.420	-0.420	-0.680	-0.400
2020/01/31 16:31:13.3	358.450	-0.460	-0.640	-0.450
2020/01/31 16:31:13.4	358.480	-0.500	-0.600	-0.510
2020/01/31 16:31:13.5	358.510	-0.540	-0.560	-0.570
2020/01/31 16:31:13.6	358.530	-0.570	-0.520	-0.620
2020/01/31 16:31:13.7	358.560	-0.600	-0.480	-0.670
2020/01/31 16:31:13.8	358.580	-0.620	-0.450	-0.720
2020/01/31 16:31:13.9	358.600	-0.640	-0.410	-0.760
2020/01/31 16:31:14.0	358.610	-0.660	-0.380	-0.800
2020/01/31 16:31:14.1	358.620	-0.670	-0.340	-0.830
2020/01/31 16:31:14.2	358.630	-0.670	-0.310	-0.870
2020/01/31 16:31:14.3	358.640	-0.670	-0.280	-0.900
2020/01/31 16:31:14.4	358.640	-0.670	-0.250	-0.920
2020/01/31 16:31:14.5	358.650	-0.670	-0.220	-0.940
2020/01/31 16:31:14.6	358.650	-0.660	-0.200	-0.960
2020/01/31 16:31:14.7	358.640	-0.640	-0.180	-0.970
2020/01/31 16:31:14.8	358.640	-0.630	-0.150	-0.990
2020/01/31 16:31:14.9	358.630	-0.610	-0.130	-0.990
2020/01/31 16:31:15.0	358.620	-0.590	-0.110	-1.000
2020/01/31 16:31:15.1	358.620	-0.560	-0.100	-1.000
2020/01/31 16:31:15.2	358.610	-0.540	-0.080	-0.990
2020/01/31 16:31:15.3	358.590	-0.510	-0.070	-0.990
2020/01/31 16:31:15.4	358.580	-0.480	-0.060	-0.980
2020/01/31 16:31:15.5	358.570	-0.440	-0.050	-0.970
2020/01/31 16:31:15.6	358.560	-0.410	-0.040	-0.950
2020/01/31 16:31:15.7	358.550	-0.380	-0.030	-0.940
2020/01/31 16:31:15.8	358.540	-0.340	-0.020	-0.920
2020/01/31 16:31:15.9	358.530	-0.300	-0.020	-0.900
2020/01/31 16:31:16.0	358.520	-0.260	-0.020	-0.870
2020/01/31 16:31:16.1	358.510	-0.220	-0.020	-0.840
2020/01/31 16:31:16.2	358.490	-0.180	-0.010	-0.810
2020/01/31 16:31:16.3	358.480	-0.140	-0.010	-0.780
2020/01/31 16:31:16.4	358.470	-0.100	-0.010	-0.740
2020/01/31 16:31:16.5	358.460	-0.060	-0.010	-0.700
2020/01/31 16:31:16.6	358.450	-0.020	-0.010	-0.660
2020/01/31 16:31:16.7	358.450	0.020	-0.010	-0.620
2020/01/31 16:31:16.8	358.440	0.060	-0.010	-0.570
2020/01/31 16:31:16.9	358.430	0.100	-0.010	-0.520
2020/01/31 16:31:17.0	358.420	0.150	-0.010	-0.470
2020/01/31 16:31:17.1	358.410	0.190	-0.010	-0.420
2020/01/31 16:31:17.2	358.390	0.230	-0.000	-0.360
2020/01/31 16:31:17.3	358.380	0.270	0.000	-0.300
2020/01/31 16:31:17.4	358.370	0.300	0.010	-0.240
2020/01/31 16:31:17.5	358.350	0.340	0.010	-0.180
2020/01/31 16:31:17.6	358.330	0.380	0.020	-0.120
2020/01/31 16:31:17.7	358.320	0.410	0.030	-0.060
2020/01/31 16:31:17.8	358.300	0.440	0.040	0.010
2020/01/31 16:31:17.9	358.280	0.470	0.050	0.070
2020/01/31 16:31:18.0	358.260	0.500	0.060	0.140
2020/01/31 16:31:18.1	358.240	0.530	0.070	0.210
2020/01/31 16:31:18.2	358.210	0.550	0.080	0.280
2020/01/31 16:31:18.3	358.180	0.570	0.090	0.340
2020/01/31 16:31:18.4	358.160	0.590	0.100	0.410
2020/01/31 16:31:18.5	358.130	0.600	0.110	0.470
2020/01/31 16:31:18.6	358.100	0.610	0.120	0.530
2020/01/31 16:31:18.7	358.080	0.620	0.120	0.590
2020/01/31 16:31:18.8	358.050	0.620	0.130	0.640
2020/01/31 16:31:18.9	358.020	0.620	0.130	0.680
2020/01/31 16:31:19.0	357.990	0.620	0.140	0.730
2020/01/31 16:31:19.1	357.960	0.610	0.140	0.760
2020/01/31 16:31:19.2	357.940	0.600	0.140	0.790
2020/01/31 16:31:19.3	357.910	0.580	0.130	0.810
2020/01/31 16:31:19.4	357.890	0.570	0.130	0.830
2020/01/31 16:31:19.5	357.870	0.550	0.120	0.840
2020/01/31 16:31:19.6	357.850	0.520	0.110	0.840
2020/01/31 16:31:19.7	357.820	0.500	0.090	0.830
2020/01/31 16:31:19.8	357.800	0.470	0.080	0.820
2020/01/31 16:31:19.9	357.790	0.440	0.060	0.800
2020/01/31 16:31:20.0	357.770	0.400	0.040	0.780
2020/01/31 16:31:20.1	357.760	0.370	0.020	0.750
2020/01/31 16:31:20.2	357.750	0.330	-0.000	0.720
2020/01/31 16:31:20.3	357.750	0.290	-0.020	0.680
2020/01/31 16:31:20.4	357.740	0.250	-0.050	0.640
2020/01/31 16:31:20.5	357.730	0.210	-0.070	0.590
2020/01/31 16:31:20.6	357.730	0.170	-0.090	0.550
2020/01/31 16:31:20.7	357.710	0.130	-0.110	0.490
2020/01/31 16:31:20.8	357.710	0.090	-0.130	0.440
2020/01/31 16:31:20.9	357.710	0.050	-0.150	0.390
2020/01/31 16:31:21.0	357.700	0.010	-0.160	0.330
2020/01/31 16:31:21.1	357.700	-0.030	-0.170	0.280
2020/01/31 16:31:21.2	357.700	-0.070	-0.180	0.220
2020/01/31 16:31:21.3	357.690	-0.110	-0.190	0.170
2020/01/31 16:31:21.4	357.690	-0.150	-0.200	0.120
2020/01/31 16:31:21.5	357.690	-0.180	-0.200	0.060
2020/01/31 16:31:21.6	357.690	-0.220	-0.200	0.010
2020/01/31 16:31:21.7	357.680	-0.250	-0.200	-0.050
2020/01/31 16:31:21.8	357.680	-0.280	-0.200	-0.110
2020/01/31 16:31:21.9	357.680	-0.310	-0.190	-0.160
2020/01/31 16:31:22.0	357.690	-0.330	-0.190	-0.210
2020/01/31 16:31:22.1	357.690	-0.360	-0.180	-0.260
2020/01/31 16:31:22.2	357.700	-0.380	-0.170	-0.320
2020/01/31 16:31:22.3	357.710	-0.400	-0.170	-0.370
2020/01/31 16:31:22.4	357.720	-0.420	-0.160	-0.420
2020/01/31 16:31:22.5	357.730	-0.430	-0.160	-0.470
2020/01/31 16:31:22.6	357.740	-0.440	-0.150	-0.520
2020/01/31 16:31:22.7	357.760	-0.450	-0.160	-0.570
2020/01/31 16:31:22.8	357.770	-0.460	-0.160	-0.620
2020/01/31 16:31:22.9	357.790	-0.470	-0.170	-0.660
2020/01/31 16:31:23.0	357.810	-0.470	-0.180	-0.710
2020/01/31 16:31:23.1	357.820	-0.470	-0.190	-0.750
2020/01/31 16:31:23.2	357.840	-0.470	-0.210	-0.790
2020/01/31 16:31:23.3	357.860	-0.470	-0.230	-0.830
2020/01/31 16:31:23.4	357.880	-0.470	-0.260	-0.870
2020/01/31 16:31:23.5	357.900	-0.460	-0.290	-0.900
2020/01/31 16:31:23.6	357.930	-0.450	-0.320	-0.930
2020/01/31 16:31:23.7	357.950	-0.440	-0.360	-0.960
2020/01/31 16:31:23.8	357.970	-0.430	-0.400	-0.990
2020/01/31 16:31:23.9	357.990	-0.420	-0.450	-1.010
2020/01/31 16:31:24.0	358.020	-0.410	-0.500	-1.040
2020/01/31 16:31:24.1	358.040	-0.390	-0.550	-1.060
2020/01/31 16:31:24.2	358.070	-0.370	-0.600	-1.070
2020/01/31 16:31:24.3	358.090	-0.360	-0.660	-1.090
2020/01/31 16:31:24.4	358.120	-0.340	-0.720	-1.100
2020/01/31 16:31:24.5	358.150	-0.320	-0.770	-1.120
2020/01/31 16:31:24.6	358.180	-0.300	-0.830	-1.130
2020/01/31 16:31:24.7	358.210	-0.280	-0.890	-1.130
2020/01/31 16:31:24.8	358.240	-0.260	-0.950	-1.140
2020/01/31 16:31:24.9	358.270	-0.240	-1.000	-1.150
2020/01/31 16:31:25.0	358.300	-0.220	-1.050	-1.160
2020/01/31 16:31:25.1	358.340	-0.190	-1.100	-1.160
2020/01/31 16:31:25.2	358.370	-0.170	-1.150	-1.170
2020/01/31 16:31:25.3	358.400	-0.150	-1.190	-1.170
2020/01/31 16:31:25.4	358.430	-0.120	-1.220	-1.180
2020/01/31 16:31:25.5	358.470	-0.100	-1.250	-1.180
2020/01/31 16:31:25.6	358.500	-0.070	-1.280	-1.180
2020/01/31 16:31:25.7	358.530	-0.050	-1.290	-1.190
2020/01/31 16:31:25.8	358.570	-0.020	-1.310	-1.180
2020/01/31 16:31:25.9	358.600	0.000	-1.310	-1.180
2020/01/31 16:31:26.0	358.630	0.030	-1.300	-1.170
2020/01/31 16:31:26.1	358.670	0.050	-1.290	-1.170
2020/01/31 16:31:26.2	358.700	0.080	-1.270	-1.150
2020/01/31 16:31:26.3	358.730	0.100	-1.240	-1.140
2020/01/31 16:31:26.4	358.760	0.120	-1.210	-1.120
2020/01/31 16:31:26.5	358.780	0.150	-1.160	-1.090
2020/01/31 16:31:26.6	358.810	0.170	-1.110	-1.060
2020/01/31 16:31:26.7	358.820	0.190	-1.050	-1.020
2020/01/31 16:31:26.8	358.840	0.210	-0.980	-0.980
2020/01/31 16:31:26.9	358.860	0.230	-0.900	-0.930
2020/01/31 16:31:27.0	358.870	0.250	-0.820	-0.880
2020/01/31 16:31:27.1	358.870	0.260	-0.730	-0.830
2020/01/31 16:31:27.2	358.880	0.280	-0.640	-0.770
2020/01/31 16:31:27.3	358.880	0.290	-0.540	-0.710
2020/01/31 16:31:27.4	358.870	0.300	-0.440	-0.640
2020/01/31 16:31:27.5	358.870	0.300	-0.340	-0.570
2020/01/31 16:31:27.6	358.850	0.310	-0.230	-0.500
2020/01/31 16:31:27.7	358.860	0.310	-0.130	-0.430
2020/01/31 16:31:27.8	358.840	0.310	-0.020	-0.350
2020/01/31 16:31:27.9	358.820	0.310	0.080	-0.280
2020/01/31 16:31:28.0	358.800	0.300	0.180	-0.200
2020/01/31 16:31:28.1	358.770	0.300	0.290	-0.130
2020/01/31 16:31:28.2	358.750	0.290	0.380	-0.060
2020/01/31 16:31:28.3	358.720	0.280	0.470	0.010
2020/01/31 16:31:28.4	358.690	0.270	0.560	0.080
2020/01/31 16:31:28.5	358.650	0.260	0.640	0.150
2020/01/31 16:31:28.6	358.620	0.240	0.710	0.210
2020/01/31 16:31:28.7	358.590	0.230	0.780	0.270
2020/01/31 16:31:28.8	358.560	0.210	0.840	0.320
2020/01/31 16:31:28.9	358.520	0.190	0.890	0.370
2020/01/31 16:31:29.0	358.480	0.170	0.940	0.420
2020/01/31 16:31:29.1	358.440	0.160	0.970	0.460
2020/01/31 16:31:29.2	358.400	0.140	1.000	0.500
2020/01/31 16:31:29.3	358.360	0.120	1.020	0.530
2020/01/31 16:31:29.4	358.320	0.100	1.030	0.560
2020/01/31 16:31:29.5	358.280	0.080	1.030	0.580
2020/01/31 16:31:29.6	358.240	0.070	1.020	0.590
2020/01/31 16:31:29.7	358.200	0.050	1.000	0.610
2020/01/31 16:31:29.8	358.170	0.040	0.980	0.610
2020/01/31 16:31:29.9	358.130	0.030	0.950	0.620
2020/01/31 16:31:30.0	358.100	0.010	0.910	0.620
2020/01/31 16:31:30.1	358.060	0.000	0.860	0.620
2020/01/31 16:31:30.2	358.030	-0.010	0.810	0.610
2020/01/31 16:31:30.3	358.000	-0.010	0.750	0.600
2020/01/31 16:31:30.4	357.980	-0.020	0.690	0.590
2020/01/31 16:31:30.5	357.950	-0.020	0.620	0.570
2020/01/31 16:31:30.6	357.930	-0.030	0.550	0.550
2020/01/31 16:31:30.7	357.890	-0.030	0.470	0.520
2020/01/31 16:31:30.8	357.880	-0.030	0.390	0.500
2020/01/31 16:31:30.9	357.860	-0.030	0.310	0.470
2020/01/31 16:31:31.0	357.850	-0.030	0.230	0.440
2020/01/31 16:31:31.1	357.840	-0.030	0.140	0.400
2020/01/31 16:31:31.2	357.840	-0.030	0.060	0.370
2020/01/31 16:31:31.3	357.840	-0.030	-0.030	0.330
2020/01/31 16:31:31.4	357.840	-0.020	-0.110	0.280
2020/01/31 16:31:31.5	357.840	-0.020	-0.190	0.240
2020/01/31 16:31:31.6	357.840	-0.020	-0.280	0.190
2020/01/31 16:31:31.7	357.840	-0.020	-0.350	0.130
2020/01/31 16:31:31.8	357.850	-0.020	-0.430	0.080
2020/01/31 16:31:31.9	357.860	-0.020	-0.500	0.030
2020/01/31 16:31:32.0	357.870	-0.020	-0.570	-0.030
2020/01/31 16:31:32.1	357.880	-0.020	-0.640	-0.080
2020/01/31 16:31:32.2	357.900	-0.030	-0.700	-0.140
2020/01/31 16:31:32.3	357.910	-0.030	-0.750	-0.200
2020/01/31 16:31:32.4	357.930	-0.040	-0.800	-0.260
2020/01/31 16:31:32.5	357.940	-0.040	-0.850	-0.320
2020/01/31 16:31:32.6	357.960	-0.050	-0.890	-0.370
2020/01/31 16:31:32.7	357.970	-0.060	-0.920	-0.430
2020/01/31 16:31:32.8	357.990	-0.080	-0.950	-0.480
2020/01/31 16:31:32.9	358.000	-0.090	-0.980	-0.540
2020/01/31 16:31:33.0	358.010	-0.100	-0.990	-0.590
2020/01/31 16:31:33.1	358.020	-0.120	-1.010	-0.640
2020/01/31 16:31:33.2	358.030	-0.140	-1.010	-0.690
2020/01/31 16:31:33.3	358.040	-0.150	-1.020	-0.740
2020/01/31 16:31:33.4	358.050	-0.170	-1.020	-0.790
2020/01/31 16:31:33.5	358.060	-0.190	-1.010	-0.830
2020/01/31 16:31:33.6	358.070	-0.200	-1.000	-0.870
2020/01/31 16:31:33.7	358.080	-0.220	-0.990	-0.920
2020/01/31 16:31:33.8	358.090	-0.240	-0.980	-0.960
2020/01/31 16:31:33.9	358.100	-0.250	-0.960	-1.000
2020/01/31 16:31:34.0	358.120	-0.260	-0.950	-1.040
2020/01/31 16:31:34.1	358.130	-0.270	-0.930	-1.070
2020/01/31 16:31:34.2	358.150	-0.280	-0.910	-1.110
2020/01/31 16:31:34.3	358.160	-0.290	-0.890	-1.140
2020/01/31 16:31:34.4	358.180	-0.290	-0.870	-1.170
2020/01/31 16:31:34.5	358.200	-0.290	-0.850	-1.190
2020/01/31 16:31:34.6	358.230	-0.290	-0.830	-1.220
2020/01/31 16:31:34.7	358.260	-0.280	-0.810	-1.240
2020/01/31 16:31:34.8	358.290	-0.270	-0.790	-1.260
2020/01/31 16:31:34.9	358.320	-0.250	-0.770	-1.280
2020/01/31 16:31:35.0	358.350	-0.230	-0.750	-1.290
2020/01/31 16:31:35.1	358.380	-0.210	-0.730	-1.290
2020/01/31 16:31:35.2	358.410	-0.180	-0.720	-1.290
2020/01/31 16:31:35.3	358.450	-0.150	-0.690	-1.290
2020/01/31 16:31:35.4	358.480	-0.120	-0.670	-1.270
2020/01/31 16:31:35.5	358.510	-0.090	-0.650	-1.260
2020/01/31 16:31:35.6	358.530	-0.050	-0.630	-1.230
2020/01/31 16:31:35.7	358.550	-0.010	-0.610	-1.210
2020/01/31 16:31:35.8	358.570	0.030	-0.580	-1.170
2020/01/31 16:31:35.9	358.590	0.070	-0.550	-1.130
2020/01/31 16:31:36.0	358.610	0.120	-0.520	-1.090
2020/01/31 16:31:36.1	358.630	0.160	-0.490	-1.040
2020/01/31 16:31:36.2	358.640	0.200	-0.450	-0.990
2020/01/31 16:31:36.3	358.650	0.240	-0.410	-0.930
2020/01/31 16:31:36.4	358.660	0.280	-0.370	-0.870
2020/01/31 16:31:36.5	358.660	0.320	-0.330	-0.810
2020/01/31 16:31:36.6	358.660	0.360	-0.290	-0.740
2020/01/31 16:31:36.7	358.660	0.390	-0.250	-0.670
2020/01/31 16:31:36.8	358.660	0.420	-0.200	-0.600
2020/01/31 16:31:36.9	358.650	0.450	-0.160	-0.530
2020/01/31 16:31:37.0	358.640	0.470	-0.110	-0.460
2020/01/31 16:31:37.1	358.630	0.490	-0.070	-0.390
2020/01/31 16:31:37.2	358.620	0.510	-0.020	-0.320
2020/01/31 16:31:37.3	358.610	0.520	0.020	-0.250
2020/01/31 16:31:37.4	358.590	0.530	0.070	-0.170
2020/01/31 16:31:37.5	358.570	0.530	0.110	-0.100
2020/01/31 16:31:37.6	358.550	0.530	0.160	-0.030
2020/01/31 16:31:37.7	358.530	0.520	0.200	0.040
2020/01/31 16:31:37.8	358.510	0.510	0.250	0.110
2020/01/31 16:31:37.9	358.480	0.490	0.290	0.180
2020/01/31 16:31:38.0	358.450	0.470	0.330	0.240
2020/01/31 16:31:38.1	358.410	0.450	0.360	0.300
2020/01/31 16:31:38.2	358.380	0.420	0.400	0.360
2020/01/31 16:31:38.3	358.340	0.390	0.440	0.420
2020/01/31 16:31:38.4	358.300	0.350	0.470	0.470
2020/01/31 16:31:38.5	358.250	0.310	0.500	0.520
2020/01/31 16:31:38.6	358.210	0.260	0.530	0.570
2020/01/31 16:31:38.7	358.150	0.220	0.550	0.610
2020/01/31 16:31:38.8	358.100	0.170	0.580	0.650
2020/01/31 16:31:38.9	358.050	0.120	0.600	0.680
2020/01/31 16:31:39.0	357.990	0.070	0.610	0.710
2020/01/31 16:31:39.1	357.940	0.010	0.630	0.730
2020/01/31 16:31:39.2	357.880	-0.040	0.640	0.750
2020/01/31 16:31:39.3	357.830	-0.090	0.640	0.770
2020/01/31 16:31:39.4	357.770	-0.140	0.640	0.780
2020/01/31 16:31:39.5	357.720	-0.190	0.640	0.780
2020/01/31 16:31:39.6	357.660	-0.240	0.630	0.780
2020/01/31 16:31:39.7	357.630	-0.290	0.620	0.770
2020/01/31 16:31:39.8	357.580	-0.340	0.600	0.760
2020/01/31 16:31:39.9	357.530	-0.380	0.580	0.750
2020/01/31 16:31:40.0	357.490	-0.410	0.540	0.730
2020/01/31 16:31:40.1	357.440	-0.450	0.510	0.700
2020/01/31 16:31:40.2	357.410	-0.480	0.460	0.670
2020/01/31 16:31:40.3	357.380	-0.500	0.410	0.630
2020/01/31 16:31:40.4	357.350	-0.520	0.350	0.580
2020/01/31 16:31:40.5	357.330	-0.540	0.280	0.530
2020/01/31 16:31:40.6	357.310	-0.550	0.200	0.470
2020/01/31 16:31:40.7	357.290	-0.550	0.120	0.400
2020/01/31 16:31:40.8	357.280	-0.550	0.030	0.320
2020/01/31 16:31:40.9	357.290	-0.550	-0.070	0.240
2020/01/31 16:31:41.0	357.290	-0.540	-0.170	0.160
2020/01/31 16:31:41.1	357.310	-0.520	-0.280	0.070
2020/01/31 16:31:41.2	357.330	-0.500	-0.390	-0.030
2020/01/31 16:31:41.3	357.350	-0.480	-0.510	-0.130
2020/01/31 16:31:41.4	357.380	-0.450	-0.630	-0.230
2020/01/31 16:31:41.5	357.410	-0.420	-0.750	-0.330
2020/01/31 16:31:41.6	357.450	-0.390	-0.870	-0.440
2020/01/31 16:31:41.7	357.480	-0.350	-0.980	-0.550
2020/01/31 16:31:41.8	357.520	-0.320	-1.100	-0.650
2020/01/31 16:31:41.9	357.560	-0.280	-1.210	-0.760
2020/01/31 16:31:42.0	357.600	-0.240	-1.310	-0.860
2020/01/31 16:31:42.1	357.650	-0.200	-1.410	-0.960
2020/01/31 16:31:42.2	357.690	-0.170	-1.510	-1.060
2020/01/31 16:31:42.3	357.740	-0.130	-1.590	-1.150
2020/01/31 16:31:42.4	357.780	-0.090	-1.670	-1.240
2020/01/31 16:31:42.5	357.830	-0.050	-1.740	-1.320
2020/01/31 16:31:42.6	357.870	-0.020	-1.790	-1.400
2020/01/31 16:31:42.7	357.910	0.010	-1.840	-1.470
2020/01/31 16:31:42.8	357.950	0.040	-1.870	-1.540
2020/01/31 16:31:42.9	358.000	0.070	-1.890	-1.600
2020/01/31 16:31:43.0	358.040	0.100	-1.900	-1.650
2020/01/31 16:31:43.1	358.080	0.120	-1.900	-1.690
2020/01/31 16:31:43.2	358.110	0.140	-1.880	-1.730
2020/01/31 16:31:43.3	358.150	0.160	-1.850	-1.760
2020/01/31 16:31:43.4	358.180	0.180	-1.810	-1.780
2020/01/31 16:31:43.5	358.210	0.190	-1.760	-1.790
2020/01/31 16:31:43.6	358.240	0.200	-1.690	-1.790
2020/01/31 16:31:43.7	358.270	0.200	-1.610	-1.790
2020/01/31 16:31:43.8	358.300	0.210	-1.520	-1.780
2020/01/31 16:31:43.9	358.320	0.210	-1.420	-1.760
2020/01/31 16:31:44.0	358.340	0.210	-1.320	-1.730
2020/01/31 16:31:44.1	358.360	0.210	-1.200	-1.700
2020/01/31 16:31:44.2	358.380	0.200	-1.080	-1.660
2020/01/31 16:31:44.3	358.390	0.200	-0.950	-1.610
2020/01/31 16:31:44.4	358.400	0.190	-0.810	-1.560
2020/01/31 16:31:44.5	358.410	0.180	-0.670	-1.500
2020/01/31 16:31:44.6	358.420	0.170	-0.530	-1.440
2020/01/31 16:31:44.7	358.430	0.160	-0.380	-1.360
2020/01/31 16:31:44.8	358.440	0.150	-0.240	-1.290
2020/01/31 16:31:44.9	358.440	0.140	-0.090	-1.210
2020/01/31 16:31:45.0	358.440	0.130	0.050	-1.120
2020/01/31 16:31:45.1	358.440	0.130	0.190	-1.030
2020/01/31 16:31:45.2	358.430	0.120	0.320	-0.940
2020/01/31 16:31:45.3	358.430	0.110	0.450	-0.840
2020/01/31 16:31:45.4	358.420	0.100	0.580	-0.740
2020/01/31 16:31:45.5	358.410	0.100	0.700	-0.640
2020/01/31 16:31:45.6	358.400	0.090	0.810	-0.540
2020/01/31 16:31:45.7	358.400	0.090	0.910	-0.440
2020/01/31 16:31:45.8	358.380	0.090	1.000	-0.330
2020/01/31 16:31:45.9	358.370	0.090	1.090	-0.230
2020/01/31 16:31:46.0	358.350	0.090	1.160	-0.130
2020/01/31 16:31:46.1	358.330	0.090	1.230	-0.040
2020/01/31 16:31:46.2	358.320	0.090	1.290	0.060
2020/01/31 16:31:46.3	358.300	0.100	1.330	0.150
2020/01/31 16:31:46.4	358.280	0.100	1.370	0.230
2020/01/31 16:31:46.5	358.260	0.110	1.400	0.310
2020/01/31 16:31:46.6	358.240	0.110	1.410	0.390
2020/01/31 16:31:46.7	358.220	0.120	1.420	0.460
2020/01/31 16:31:46.8	358.200	0.130	1.420	0.530
2020/01/31 16:31:46.9	358.170	0.140	1.400	0.590
2020/01/31 16:31:47.0	358.150	0.140	1.380	0.650
2020/01/31 16:31:47.1	358.120	0.150	1.360	0.710
2020/01/31 16:31:47.2	358.090	0.150	1.320	0.760
2020/01/31 16:31:47.3	358.060	0.160	1.280	0.810
2020/01/31 16:31:47.4	358.030	0.160	1.230	0.860
2020/01/31 16:31:47.5	357.990	0.160	1.170	0.910
2020/01/31 16:31:47.6	357.950	0.160	1.110	0.950
2020/01/31 16:31:47.7	357.900	0.160	1.050	0.990
2020/01/31 16:31:47.8	357.860	0.160	0.980	1.020
2020/01/31 16:31:47.9	357.810	0.150	0.900	1.050
2020/01/31 16:31:48.0	357.760	0.150	0.820	1.070
2020/01/31 16:31:48.1	357.710	0.140	0.740	1.100
2020/01/31 16:31:48.2	357.660	0.130	0.650	1.110
2020/01/31 16:31:48.3	357.610	0.110	0.560	1.120
2020/01/31 16:31:48.4	357.560	0.090	0.460	1.120
2020/01/31 16:31:48.5	357.510	0.070	0.370	1.120
2020/01/31 16:31:48.6	357.460	0.050	0.260	1.110
2020/01/31 16:31:48.7	357.400	0.030	0.160	1.090
2020/01/31 16:31:48.8	357.350	0.010	0.050	1.060
2020/01/31 16:31:48.9	357.310	-0.020	-0.050	1.020
2020/01/31 16:31:49.0	357.260	-0.050	-0.170	0.970
2020/01/31 16:31:49.1	357.220	-0.080	-0.280	0.920
2020/01/31 16:31:49.2	357.180	-0.110	-0.390	0.860
2020/01/31 16:31:49.3	357.150	-0.140	-0.500	0.790
2020/01/31 16:31:49.4	357.110	-0.170	-0.620	0.710
2020/01/31 16:31:49.5	357.080	-0.200	-0.730	0.620
2020/01/31 16:31:49.6	357.060	-0.230	-0.840	0.530
2020/01/31 16:31:49.7	357.020	-0.250	-0.950	0.430
2020/01/31 16:31:49.8	357.010	-0.280	-1.060	0.320
2020/01/31 16:31:49.9	356.990	-0.310	-1.160	0.220
2020/01/31 16:31:50.0	356.980	-0.330	-1.260	0.110
2020/01/31 16:31:50.1	356.970	-0.350	-1.350	0.000
2020/01/31 16:31:50.2	356.970	-0.370	-1.440	-0.110
2020/01/31 16:31:50.3	356.970	-0.380	-1.520	-0.220
2020/01/31 16:31:50.4	356.970	-0.390	-1.590	-0.330
2020/01/31 16:31:50.5	356.980	-0.400	-1.660	-0.440
2020/01/31 16:31:50.6	356.990	-0.410	-1.720	-0.550
2020/01/31 16:31:50.7	357.010	-0.410	-1.760	-0.660
2020/01/31 16:31:50.8	357.030	-0.400	-1.810	-0.760
2020/01/31 16:31:50.9	357.050	-0.400	-1.840	-0.860
2020/01/31 16:31:51.0	357.080	-0.390	-1.870	-0.960
2020/01/31 16:31:51.1	357.110	-0.370	-1.900	-1.060
2020/01/31 16:31:51.2	357.150	-0.360	-1.910	-1.160
2020/01/31 16:31:51.3	357.190	-0.340	-1.920	-1.250
2020/01/31 16:31:51.4	357.240	-0.310	-1.920	-1.340
2020/01/31 16:31:51.5	357.290	-0.280	-1.910	-1.420
2020/01/31 16:31:51.6	357.340	-0.250	-1.900	-1.500
2020/01/31 16:31:51.7	357.390	-0.220	-1.880	-1.580
2020/01/31 16:31:51.8	357.450	-0.190	-1.850	-1.650
2020/01/31 16:31:51.9	357.510	-0.150	-1.820	-1.710
2020/01/31 16:31:52.0	357.580	-0.110	-1.770	-1.770
2020/01/31 16:31:52.1	357.640	-0.070	-1.730	-1.830
2020/01/31 16:31:52.2	357.710	-0.030	-1.670	-1.870
2020/01/31 16:31:52.3	357.780	0.010	-1.610	-1.910
2020/01/31 16:31:52.4	357.850	0.050	-1.550	-1.940
2020/01/31 16:31:52.5	357.920	0.090	-1.480	-1.960
2020/01/31 16:31:52.6	357.990	0.130	-1.400	-1.980
2020/01/31 16:31:52.7	358.060	0.170	-1.320	-1.980
2020/01/31 16:31:52.8	358.120	0.210	-1.240	-1.980
2020/01/31 16:31:52.9	358.190	0.240	-1.150	-1.970
2020/01/31 16:31:53.0	358.250	0.270	-1.060	-1.960
2020/01/31 16:31:53.1	358.310	0.300	-0.960	-1.930
2020/01/31 16:31:53.2	358.360	0.330	-0.870	-1.900
2020/01/31 16:31:53.3	358.420	0.360	-0.770	-1.860
2020/01/31 16:31:53.4	358.470	0.380	-0.660	-1.810
2020/01/31 16:31:53.5	358.510	0.400	-0.560	-1.760
2020/01/31 16:31:53.6	358.550	0.410	-0.460	-1.700
2020/01/31 16:31:53.7	358.590	0.420	-0.360	-1.630
2020/01/31 16:31:53.8	358.630	0.430	-0.250	-1.560
2020/01/31 16:31:53.9	358.660	0.430	-0.150	-1.480
2020/01/31 16:31:54.0	358.680	0.430	-0.060	-1.400
2020/01/31 16:31:54.1	358.710	0.430	0.040	-1.320
2020/01/31 16:31:54.2	358.720	0.420	0.130	-1.230
2020/01/31 16:31:54.3	358.740	0.410	0.220	-1.140
2020/01/31 16:31:54.4	358.750	0.400	0.300	-1.050
2020/01/31 16:31:54.5	358.760	0.380	0.380	-0.960
2020/01/31 16:31:54.6	358.760	0.360	0.450	-0.870
2020/01/31 16:31:54.7	358.760	0.340	0.520	-0.780
2020/01/31 16:31:54.8	358.760	0.310	0.580	-0.690
2020/01/31 16:31:54.9	358.760	0.280	0.630	-0.600
2020/01/31 16:31:55.0	358.750	0.260	0.680	-0.510
2020/01/31 16:31:55.1	358.740	0.230	0.720	-0.430
2020/01/31 16:31:55.2	358.730	0.190	0.760	-0.350
2020/01/31 16:31:55.3	358.710	0.160	0.790	-0.270
2020/01/31 16:31:55.4	358.700	0.130	0.810	-0.200
2020/01/31 16:31:55.5	358.680	0.090	0.830	-0.130
2020/01/31 16:31:55.6	358.660	0.050	0.840	-0.060
2020/01/31 16:31:55.7	358.630	0.020	0.840	0.000
2020/01/31 16:31:55.8	358.600	-0.020	0.850	0.060
2020/01/31 16:31:55.9	358.570	-0.050	0.850	0.120
2020/01/31 16:31:56.0	358.540	-0.090	0.840	0.170
2020/01/31 16:31:56.1	358.500	-0.120	0.840	0.220
2020/01/31 16:31:56.2	358.470	-0.160	0.830	0.260
2020/01/31 16:31:56.3	358.420	-0.190	0.820	0.300
2020/01/31 16:31:56.4	358.380	-0.220	0.810	0.340
2020/01/31 16:31:56.5	358.330	-0.250	0.800	0.370
2020/01/31 16:31:56.6	358.280	-0.280	0.780	0.400
2020/01/31 16:31:56.7	358.230	-0.300	0.770	0.420
2020/01/31 16:31:56.8	358.170	-0.330	0.760	0.450
2020/01/31 16:31:56.9	358.110	-0.350	0.740	0.460
2020/01/31 16:31:57.0	358.060	-0.370	0.730	0.480
2020/01/31 16:31:57.1	357.990	-0.390	0.720	0.500
2020/01/31 16:31:57.2	357.930	-0.400	0.700	0.510
2020/01/31 16:31:57.3	357.870	-0.410	0.690	0.520
2020/01/31 16:31:57.4	357.800	-0.420	0.680	0.530
2020/01/31 16:31:57.5	357.730	-0.430	0.670	0.540
2020/01/31 16:31:57.6	357.660	-0.430	0.650	0.550
2020/01/31 16:31:57.7	357.580	-0.430	0.640	0.550
2020/01/31 16:31:57.8	357.510	-0.430	0.630	0.560
2020/01/31 16:31:57.9	357.440	-0.430	0.610	0.570
2020/01/31 16:31:58.0	357.360	-0.420	0.600	0.570
2020/01/31 16:31:58.1	357.290	-0.410	0.580	0.580
2020/01/31 16:31:58.2	357.220	-0.400	0.560	0.580
2020/01/31 16:31:58.3	357.150	-0.380	0.530	0.580
2020/01/31 16:31:58.4	357.080	-0.360	0.510	0.590
2020/01/31 16:31:58.5	357.010	-0.340	0.480	0.580
2020/01/31 16:31:58.6	356.950	-0.320	0.450	0.580
2020/01/31 16:31:58.7	356.880	-0.290	0.410	0.570
2020/01/31 16:31:58.8	356.830	-0.270	0.370	0.560
2020/01/31 16:31:58.9	356.770	-0.240	0.330	0.550
2020/01/31 16:31:59.0	356.720	-0.210	0.280	0.540
2020/01/31 16:31:59.1	356.680	-0.170	0.220	0.520
2020/01/31 16:31:59.2	356.640	-0.140	0.160	0.500
2020/01/31 16:31:59.3	356.610	-0.100	0.100	0.470
2020/01/31 16:31:59.4	356.580	-0.060	0.030	0.440
2020/01/31 16:31:59.5	356.550	-0.030	-0.040	0.410
2020/01/31 16:31:59.6	356.540	0.010	-0.110	0.370
2020/01/31 16:31:59.7	356.500	0.050	-0.190	0.330
2020/01/31 16:31:59.8	356.500	0.090	-0.280	0.290
2020/01/31 16:31:59.9	356.490	0.130	-0.360	0.240
2020/01/31 16:32:00.0	356.500	0.170	-0.450	0.200
2020/01/31 16:32:00.1	356.510	0.200	-0.540	0.150
2020/01/31 16:32:00.2	356.520	0.240	-0.630	0.100
2020/01/31 16:32:00.3	356.540	0.280	-0.720	0.040
2020/01/31 16:32:00.4	356.560	0.310	-0.810	-0.010
2020/01/31 16:32:00.5	356.580	0.340	-0.900	-0.070
2020/01/31 16:32:00.6	356.610	0.370	-0.990	-0.120
2020/01/31 16:32:00.7	356.640	0.400	-1.080	-0.180
2020/01/31 16:32:00.8	356.670	0.420	-1.160	-0.230
2020/01/31 16:32:00.9	356.710	0.440	-1.230	-0.290
2020/01/31 16:32:01.0	356.740	0.460	-1.300	-0.340
2020/01/31 16:32:01.1	356.780	0.470	-1.370	-0.400
2020/01/31 16:32:01.2	356.820	0.480	-1.430	-0.450
2020/01/31 16:32:01.3	356.860	0.490	-1.480	-0.500
2020/01/31 16:32:01.4	356.900	0.490	-1.520	-0.560
2020/01/31 16:32:01.5	356.950	0.490	-1.560	-0.610
2020/01/31 16:32:01.6	356.990	0.480	-1.590	-0.660
2020/01/31 16:32:01.7	357.050	0.470	-1.620	-0.720
2020/01/31 16:32:01.8	357.090	0.460	-1.630	-0.770
2020/01/31 16:32:01.9	357.130	0.440	-1.640	-0.820
2020/01/31 16:32:02.0	357.170	0.420	-1.640	-0.870
2020/01/31 16:32:02.1	357.210	0.390	-1.630	-0.910
2020/01/31 16:32:02.2	357.250	0.370	-1.620	-0.960
2020/01/31 16:32:02.3	357.290	0.340	-1.600	-1.010
2020/01/31 16:32:02.4	357.330	0.310	-1.570	-1.050
2020/01/31 16:32:02.5	357.370	0.270	-1.540	-1.090
2020/01/31 16:32:02.6	357.410	0.240	-1.500	-1.130
2020/01/31 16:32:02.7	357.450	0.200	-1.450	-1.160
2020/01/31 16:32:02.8	357.480	0.170	-1.410	-1.200
2020/01/31 16:32:02.9	357.520	0.130	-1.350	-1.230
2020/01/31 16:32:03.0	357.560	0.090	-1.300	-1.260
2020/01/31 16:32:03.1	357.600	0.050	-1.240	-1.280
2020/01/31 16:32:03.2	357.640	0.020	-1.180	-1.310
2020/01/31 16:32:03.3	357.680	-0.020	-1.120	-1.330
2020/01/31 16:32:03.4	357.720	-0.050	-1.060	-1.350
2020/01/31 16:32:03.5	357.770	-0.080	-0.990	-1.370
2020/01/31 16:32:03.6	357.810	-0.110	-0.930	-1.390
2020/01/31 16:32:03.7	357.860	-0.140	-0.870	-1.400
2020/01/31 16:32:03.8	357.900	-0.160	-0.810	-1.410
2020/01/31 16:32:03.9	357.940	-0.180	-0.750	-1.420
2020/01/31 16:32:04.0	357.980	-0.200	-0.700	-1.420
2020/01/31 16:32:04.1	358.020	-0.220	-0.640	-1.420
2020/01/31 16:32:04.2	358.060	-0.230	-0.580	-1.420
2020/01/31 16:32:04.3	358.100	-0.240	-0.530	-1.420
2020/01/31 16:32:04.4	358.130	-0.250	-0.470	-1.410
2020/01/31 16:32:04.5	358.160	-0.260	-0.420	-1.400
2020/01/31 16:32:04.6	358.190	-0.260	-0.370	-1.380
2020/01/31 16:32:04.7	358.230	-0.260	-0.320	-1.360
2020/01/31 16:32:04.8	358.250	-0.260	-0.270	-1.340
2020/01/31 16:32:04.9	358.270	-0.260	-0.220	-1.310
2020/01/31 16:32:05.0	358.280	-0.260	-0.170	-1.280
2020/01/31 16:32:05.1	358.300	-0.260	-0.120	-1.250
2020/01/31 16:32:05.2	358.300	-0.250	-0.070	-1.210
2020/01/31 16:32:05.3	358.310	-0.240	-0.030	-1.170
2020/01/31 16:32:05.4	358.310	-0.230	0.020	-1.130
2020/01/31 16:32:05.5	358.310	-0.220	0.070	-1.080
2020/01/31 16:32:05.6	358.310	-0.210	0.120	-1.030
2020/01/31 16:32:05.7	358.290	-0.200	0.170	-0.980
2020/01/31 16:32:05.8	358.280	-0.190	0.220	-0.930
2020/01/31 16:32:05.9	358.270	-0.180	0.270	-0.880
2020/01/31 16:32:06.0	358.250	-0.170	0.310	-0.820
2020/01/31 16:32:06.1	358.230	-0.160	0.360	-0.760
2020/01/31 16:32:06.2	358.210	-0.150	0.410	-0.700
2020/01/31 16:32:06.3	358.190	-0.140	0.460	-0.640
2020/01/31 16:32:06.4	358.160	-0.130	0.510	-0.580
2020/01/31 16:32:06.5	358.140	-0.120	0.560	-0.520
2020/01/31 16:32:06.6	358.110	-0.110	0.610	-0.450
2020/01/31 16:32:06.7	358.070	-0.100	0.650	-0.390
2020/01/31 16:32:06.8	358.040	-0.100	0.700	-0.330
2020/01/31 16:32:06.9	358.000	-0.090	0.740	-0.260
2020/01/31 16:32:07.0	357.960	-0.090	0.790	-0.190
2020/01/31 16:32:07.1	357.920	-0.080	0.830	-0.130
2020/01/31 16:32:07.2	357.870	-0.080	0.870	-0.060
2020/01/31 16:32:07.3	357.820	-0.080	0.910	0.010
2020/01/31 16:32:07.4	357.770	-0.080	0.950	0.080
2020/01/31 16:32:07.5	357.710	-0.080	0.980	0.140
2020/01/31 16:32:07.6	357.650	-0.090	1.020	0.210
2020/01/31 16:32:07.7	357.590	-0.090	1.040	0.270
2020/01/31 16:32:07.8	357.530	-0.090	1.070	0.330
2020/01/31 16:32:07.9	357.460	-0.100	1.090	0.380
2020/01/31 16:32:08.0	357.400	-0.110	1.110	0.430
2020/01/31 16:32:08.1	357.330	-0.120	1.120	0.480
2020/01/31 16:32:08.2	357.270	-0.130	1.120	0.530
2020/01/31 16:32:08.3	357.200	-0.140	1.120	0.560
2020/01/31 16:32:08.4	357.130	-0.150	1.120	0.600
2020/01/31 16:32:08.5	357.060	-0.160	1.110	0.630
2020/01/31 16:32:08.6	357.000	-0.170	1.090	0.650
2020/01/31 16:32:08.7	356.920	-0.180	1.060	0.660
2020/01/31 16:32:08.8	356.850	-0.190	1.030	0.670
2020/01/31 16:32:08.9	356.790	-0.200	0.990	0.680
2020/01/31 16:32:09.0	356.740	-0.210	0.950	0.680
2020/01/31 16:32:09.1	356.680	-0.220	0.890	0.680
2020/01/31 16:32:09.2	356.630	-0.220	0.830	0.670
2020/01/31 16:32:09.3	356.580	-0.230	0.770	0.660
2020/01/31 16:32:09.4	356.530	-0.230	0.700	0.640
2020/01/31 16:32:09.5	356.490	-0.230	0.620	0.620
2020/01/31 16:32:09.6	356.450	-0.230	0.530	0.600
2020/01/31 16:32:09.7	356.410	-0.230	0.450	0.570
2020/01/31 16:32:09.8	356.380	-0.220	0.360	0.540
2020/01/31 16:32:09.9	356.350	-0.210	0.260	0.510
2020/01/31 16:32:10.0	356.330	-0.200	0.160	0.480
2020/01/31 16:32:10.1	356.310	-0.180	0.060	0.440
2020/01/31 16:32:10.2	356.300	-0.160	-0.050	0.410
2020/01/31 16:32:10.3	356.290	-0.140	-0.150	0.370
2020/01/31 16:32:10.4	356.280	-0.110	-0.260	0.330
2020/01/31 16:32:10.5	356.290	-0.080	-0.370	0.290
2020/01/31 16:32:10.6	356.290	-0.050	-0.480	0.240
2020/01/31 16:32:10.7	356.300	-0.020	-0.590	0.190
2020/01/31 16:32:10.8	356.320	0.020	-0.700	0.140
2020/01/31 16:32:10.9	356.340	0.060	-0.810	0.090
2020/01/31 16:32:11.0	356.360	0.100	-0.920	0.030
2020/01/31 16:32:11.1	356.390	0.150	-1.030	-0.020
2020/01/31 16:32:11.2	356.420	0.190	-1.130	-0.080
2020/01/31 16:32:11.3	356.450	0.240	-1.230	-0.140
2020/01/31 16:32:11.4	356.490	0.280	-1.330	-0.200
2020/01/31 16:32:11.5	356.520	0.330	-1.420	-0.270
2020/01/31 16:32:11.6	356.570	0.370	-1.510	-0.330
2020/01/31 16:32:11.7	356.610	0.420	-1.590	-0.400
2020/01/31 16:32:11.8	356.650	0.460	-1.670	-0.460
2020/01/31 16:32:11.9	356.700	0.500	-1.740	-0.530
2020/01/31 16:32:12.0	356.750	0.540	-1.800	-0.590
2020/01/31 16:32:12.1	356.800	0.570	-1.860	-0.660
2020/01/31 16:32:12.2	356.850	0.610	-1.910	-0.720
2020/01/31 16:32:12.3	356.900	0.630	-1.950	-0.780
2020/01/31 16:32:12.4	356.960	0.660	-1.980	-0.850
2020/01/31 16:32:12.5	357.010	0.680	-2.010	-0.910
2020/01/31 16:32:12.6	357.060	0.690	-2.030	-0.970
2020/01/31 16:32:12.7	357.130	0.700	-2.040	-1.020
2020/01/31 16:32:12.8	357.190	0.700	-2.040	-1.080
2020/01/31 16:32:12.9	357.250	0.700	-2.030	-1.130
2020/01/31 16:32:13.0	357.300	0.700	-2.020	-1.180
2020/01/31 16:32:13.1	357.360	0.690	-1.990	-1.230
2020/01/31 16:32:13.2	357.420	0.670	-1.960	-1.280
2020/01/31 16:32:13.3	357.470	0.650	-1.920	-1.320
2020/01/31 16:32:13.4	357.530	0.630	-1.880	-1.360
2020/01/31 16:32:13.5	357.580	0.600	-1.820	-1.390
2020/01/31 16:32:13.6	357.640	0.570	-1.760	-1.420
2020/01/31 16:32:13.7	357.670	0.530	-1.690	-1.450
2020/01/31 16:32:13.8	357.720	0.490	-1.610	-1.460
2020/01/31 16:32:13.9	357.770	0.440	-1.530	-1.480
2020/01/31 16:32:14.0	357.810	0.390	-1.440	-1.490
2020/01/31 16:32:14.1	357.850	0.340	-1.350	-1.490
2020/01/31 16:32:14.2	357.880	0.280	-1.240	-1.490
2020/01/31 16:32:14.3	357.920	0.220	-1.140	-1.490
2020/01/31 16:32:14.4	357.940	0.160	-1.030	-1.470
2020/01/31 16:32:14.5	357.960	0.100	-0.910	-1.460
2020/01/31 16:32:14.6	357.980	0.040	-0.790	-1.440
2020/01/31 16:32:14.7	358.020	-0.020	-0.670	-1.420
2020/01/31 16:32:14.8	358.030	-0.080	-0.540	-1.390
2020/01/31 16:32:14.9	358.030	-0.150	-0.410	-1.360
2020/01/31 16:32:15.0	358.040	-0.210	-0.270	-1.330
2020/01/31 16:32:15.1	358.040	-0.270	-0.140	-1.300
2020/01/31 16:32:15.2	358.030	-0.320	-0.000	-1.260
2020/01/31 16:32:15.3	358.030	-0.380	0.130	-1.220
2020/01/31 16:32:15.4	358.020	-0.430	0.270	-1.170
2020/01/31 16:32:15.5	358.000	-0.480	0.400	-1.130
2020/01/31 16:32:15.6	357.990	-0.520	0.530	-1.080
2020/01/31 16:32:15.7	357.980	-0.560	0.660	-1.030
2020/01/31 16:32:15.8	357.960	-0.600	0.780	-0.970
2020/01/31 16:32:15.9	357.940	-0.630	0.900	-0.920
2020/01/31 16:32:16.0	357.920	-0.650	1.010	-0.850
2020/01/31 16:32:16.1	357.890	-0.670	1.110	-0.790
2020/01/31 16:32:16.2	357.870	-0.680	1.200	-0.730
2020/01/31 16:32:16.3	357.840	-0.690	1.290	-0.660
2020/01/31 16:32:16.4	357.820	-0.690	1.360	-0.600
2020/01/31 16:32:16.5	357.790	-0.690	1.420	-0.530
2020/01/31 16:32:16.6	357.770	-0.680	1.480	-0.460
2020/01/31 16:32:16.7	357.750	-0.660	1.510	-0.390
2020/01/31 16:32:16.8	357.720	-0.640	1.540	-0.330
2020/01/31 16:32:16.9	357.690	-0.610	1.560	-0.260
2020/01/31 16:32:17.0	357.670	-0.580	1.570	-0.190
2020/01/31 16:32:17.1	357.640	-0.550	1.560	-0.130
2020/01/31 16:32:17.2	357.610	-0.510	1.540	-0.060
2020/01/31 16:32:17.3	357.580	-0.470	1.520	-0.000
2020/01/31 16:32:17.4	357.550	-0.420	1.480	0.060
2020/01/31 16:32:17.5	357.520	-0.370	1.430	0.120
2020/01/31 16:32:17.6	357.490	-0.320	1.370	0.170
2020/01/31 16:32:17.7	357.460	-0.270	1.300	0.220
2020/01/31 16:32:17.8	357.420	-0.220	1.220	0.270
2020/01/31 16:32:17.9	357.380	-0.170	1.140	0.310
2020/01/31 16:32:18.0	357.340	-0.120	1.050	0.350
2020/01/31 16:32:18.1	357.300	-0.070	0.950	0.390
2020/01/31 16:32:18.2	357.260	-0.020	0.850	0.420
2020/01/31 16:32:18.3	357.220	0.030	0.740	0.440
2020/01/31 16:32:18.4	357.170	0.070	0.630	0.460
2020/01/31 16:32:18.5	357.130	0.120	0.520	0.480
2020/01/31 16:32:18.6	357.080	0.160	0.410	0.490
2020/01/31 16:32:18.7	357.030	0.200	0.300	0.490
2020/01/31 16:32:18.8	356.980	0.230	0.180	0.490
2020/01/31 16:32:18.9	356.940	0.260	0.070	0.490
2020/01/31 16:32:19.0	356.900	0.290	-0.040	0.480
2020/01/31 16:32:19.1	356.860	0.310	-0.140	0.470
2020/01/31 16:32:19.2	356.820	0.330	-0.240	0.450
2020/01/31 16:32:19.3	356.780	0.340	-0.340	0.430
2020/01/31 16:32:19.4	356.750	0.350	-0.440	0.400
2020/01/31 16:32:19.5	356.720	0.360	-0.530	0.370
2020/01/31 16:32:19.6	356.690	0.360	-0.620	0.340
2020/01/31 16:32:19.7	356.650	0.360	-0.690	0.300
2020/01/31 16:32:19.8	356.630	0.360	-0.770	0.260
2020/01/31 16:32:19.9	356.620	0.350	-0.840	0.210
2020/01/31 16:32:20.0	356.610	0.340	-0.900	0.170
2020/01/31 16:32:20.1	356.600	0.330	-0.960	0.120
2020/01/31 16:32:20.2	356.600	0.310	-1.010	0.070
2020/01/31 16:32:20.3	356.600	0.290	-1.060	0.020
2020/01/31 16:32:20.4	356.610	0.270	-1.090	-0.040
2020/01/31 16:32:20.5	356.620	0.250	-1.130	-0.100
2020/01/31 16:32:20.6	356.630	0.220	-1.150	-0.150
2020/01/31 16:32:20.7	356.630	0.200	-1.170	-0.220
2020/01/31 16:32:20.8	356.650	0.170	-1.190	-0.280
2020/01/31 16:32:20.9	356.670	0.150	-1.200	-0.340
2020/01/31 16:32:21.0	356.690	0.120	-1.200	-0.400
2020/01/31 16:32:21.1	356.720	0.090	-1.190	-0.460
2020/01/31 16:32:21.2	356.750	0.060	-1.180	-0.520
2020/01/31 16:32:21.3	356.780	0.040	-1.170	-0.580
2020/01/31 16:32:21.4	356.810	0.010	-1.150	-0.640
2020/01/31 16:32:21.5	356.840	-0.020	-1.120	-0.690
2020/01/31 16:32:21.6	356.880	-0.040	-1.090	-0.750
2020/01/31 16:32:21.7	356.920	-0.060	-1.060	-0.800
2020/01/31 16:32:21.8	356.960	-0.090	-1.020	-0.850
2020/01/31 16:32:21.9	356.990	-0.110	-0.980	-0.890
2020/01/31 16:32:22.0	357.020	-0.120	-0.930	-0.930
2020/01/31 16:32:22.1	357.060	-0.140	-0.880	-0.970
2020/01/31 16:32:22.2	357.090	-0.160	-0.830	-1.000
2020/01/31 16:32:22.3	357.120	-0.170	-0.770	-1.020
2020/01/31 16:32:22.4	357.150	-0.180	-0.720	-1.040
2020/01/31 16:32:22.5	357.170	-0.190	-0.660	-1.060
2020/01/31 16:32:22.6	357.200	-0.200	-0.600	-1.070
2020/01/31 16:32:22.7	357.210	-0.210	-0.540	-1.080
2020/01/31 16:32:22.8	357.240	-0.210	-0.480	-1.080
2020/01/31 16:32:22.9	357.260	-0.210	-0.420	-1.080
2020/01/31 16:32:23.0	357.280	-0.220	-0.360	-1.070
2020/01/31 16:32:23.1	357.300	-0.220	-0.310	-1.060
2020/01/31 16:32:23.2	357.320	-0.210	-0.250	-1.040
2020/01/31 16:32:23.3	357.330	-0.210	-0.200	-1.030
2020/01/31 16:32:23.4	357.350	-0.210	-0.150	-1.010
2020/01/31 16:32:23.5	357.360	-0.200	-0.110	-0.990
2020/01/31 16:32:23.6	357.370	-0.190	-0.070	-0.960
2020/01/31 16:32:23.7	357.380	-0.190	-0.040	-0.940
2020/01/31 16:32:23.8	357.390	-0.180	-0.010	-0.910
2020/01/31 16:32:23.9	357.400	-0.170	0.020	-0.880
2020/01/31 16:32:24.0	357.410	-0.160	0.040	-0.850
2020/01/31 16:32:24.1	357.420	-0.150	0.060	-0.820
2020/01/31 16:32:24.2	357.430	-0.140	0.070	-0.790
2020/01/31 16:32:24.3	357.440	-0.120	0.070	-0.760
2020/01/31 16:32:24.4	357.450	-0.110	0.070	-0.730
2020/01/31 16:32:24.5	357.450	-0.100	0.070	-0.700
2020/01/31 16:32:24.6	357.460	-0.090	0.060	-0.670
2020/01/31 16:32:24.7	357.470	-0.070	0.050	-0.640
2020/01/31 16:32:24.8	357.470	-0.060	0.040	-0.610
2020/01/31 16:32:24.9	357.480	-0.040	0.020	-0.580
2020/01/31 16:32:25.0	357.480	-0.030	-0.000	-0.540
2020/01/31 16:32:25.1	357.480	-0.020	-0.020	-0.520
2020/01/31 16:32:25.2	357.490	-0.000	-0.040	-0.480
2020/01/31 16:32:25.3	357.480	0.010	-0.070	-0.450
2020/01/31 16:32:25.4	357.480	0.020	-0.090	-0.420
2020/01/31 16:32:25.5	357.480	0.040	-0.110	-0.390
2020/01/31 16:32:25.6	357.470	0.050	-0.140	-0.360
2020/01/31 16:32:25.7	357.460	0.060	-0.160	-0.340
2020/01/31 16:32:25.8	357.450	0.070	-0.170	-0.310
2020/01/31 16:32:25.9	357.440	0.090	-0.190	-0.280
2020/01/31 16:32:26.0	357.430	0.100	-0.210	-0.250
2020/01/31 16:32:26.1	357.420	0.110	-0.220	-0.220
2020/01/31 16:32:26.2	357.400	0.120	-0.230	-0.200
2020/01/31 16:32:26.3	357.390	0.120	-0.240	-0.170
2020/01/31 16:32:26.4	357.370	0.130	-0.240	-0.140
2020/01/31 16:32:26.5	357.360	0.140	-0.250	-0.110
2020/01/31 16:32:26.6	357.340	0.150	-0.250	-0.090
2020/01/31 16:32:26.7	357.330	0.160	-0.250	-0.060
2020/01/31 16:32:26.8	357.320	0.170	-0.250	-0.040
2020/01/31 16:32:26.9	357.310	0.170	-0.260	-0.020
2020/01/31 16:32:27.0	357.300	0.180	-0.260	0.010
2020/01/31 16:32:27.1	357.290	0.190	-0.260	0.030
2020/01/31 16:32:27.2	357.290	0.200	-0.270	0.050
2020/01/31 16:32:27.3	357.290	0.210	-0.270	0.060
2020/01/31 16:32:27.4	357.290	0.220	-0.280	0.080
2020/01/31 16:32:27.5	357.290	0.230	-0.290	0.090
2020/01/31 16:32:27.6	357.290	0.240	-0.300	0.100
2020/01/31 16:32:27.7	357.300	0.250	-0.310	0.100
2020/01/31 16:32:27.8	357.310	0.260	-0.320	0.100
2020/01/31 16:32:27.9	357.330	0.270	-0.330	0.100
2020/01/31 16:32:28.0	357.340	0.280	-0.350	0.090
2020/01/31 16:32:28.1	357.360	0.290	-0.370	0.080
2020/01/31 16:32:28.2	357.380	0.300	-0.390	0.070
2020/01/31 16:32:28.3	357.390	0.310	-0.410	0.060
2020/01/31 16:32:28.4	357.410	0.320	-0.430	0.040
2020/01/31 16:32:28.5	357.430	0.330	-0.440	0.020
2020/01/31 16:32:28.6	357.450	0.340	-0.460	0.010
2020/01/31 16:32:28.7	357.460	0.340	-0.490	-0.020
2020/01/31 16:32:28.8	357.470	0.350	-0.500	-0.040
2020/01/31 16:32:28.9	357.480	0.350	-0.520	-0.060
2020/01/31 16:32:29.0	357.490	0.350	-0.530	-0.080
2020/01/31 16:32:29.1	357.500	0.350	-0.550	-0.100
2020/01/31 16:32:29.2	357.500	0.350	-0.560	-0.130
2020/01/31 16:32:29.3	357.510	0.350	-0.560	-0.150
2020/01/31 16:32:29.4	357.510	0.340	-0.570	-0.180
2020/01/31 16:32:29.5	357.520	0.340	-0.570	-0.200
2020/01/31 16:32:29.6	357.520	0.330	-0.580	-0.230
2020/01/31 16:32:29.7	357.530	0.320	-0.570	-0.260
2020/01/31 16:32:29.8	357.530	0.310	-0.570	-0.280
2020/01/31 16:32:29.9	357.530	0.290	-0.560	-0.300
2020/01/31 16:32:30.0	357.530	0.280	-0.540	-0.320
2020/01/31 16:32:30.1	357.520	0.260	-0.530	-0.340
2020/01/31 16:32:30.2	357.520	0.240	-0.510	-0.360
2020/01/31 16:32:30.3	357.520	0.220	-0.490	-0.380
2020/01/31 16:32:30.4	357.510	0.190	-0.460	-0.400
2020/01/31 16:32:30.5	357.510	0.170	-0.440	-0.410
2020/01/31 16:32:30.6	357.510	0.150	-0.410	-0.430
2020/01/31 16:32:30.7	357.500	0.120	-0.380	-0.450
2020/01/31 16:32:30.8	357.490	0.090	-0.350	-0.460
2020/01/31 16:32:30.9	357.490	0.070	-0.310	-0.470
2020/01/31 16:32:31.0	357.490	0.040	-0.270	-0.480
2020/01/31 16:32:31.1	357.480	0.010	-0.240	-0.490
2020/01/31 16:32:31.2	357.480	-0.010	-0.200	-0.500
2020/01/31 16:32:31.3	357.470	-0.040	-0.160	-0.500
2020/01/31 16:32:31.4	357.470	-0.070	-0.120	-0.510
2020/01/31 16:32:31.5	357.460	-0.100	-0.080	-0.510
2020/01/31 16:32:31.6	357.450	-0.120	-0.030	-0.510
2020/01/31 16:32:31.7	357.440	-0.150	0.010	-0.510
2020/01/31 16:32:31.8	357.420	-0.180	0.050	-0.510
2020/01/31 16:32:31.9	357.410	-0.200	0.090	-0.510
2020/01/31 16:32:32.0	357.390	-0.220	0.140	-0.500
2020/01/31 16:32:32.1	357.370	-0.250	0.180	-0.500
2020/01/31 16:32:32.2	357.350	-0.270	0.220	-0.490
2020/01/31 16:32:32.3	357.330	-0.290	0.250	-0.480
2020/01/31 16:32:32.4	357.310	-0.310	0.290	-0.470
2020/01/31 16:32:32.5	357.280	-0.320	0.320	-0.450
2020/01/31 16:32:32.6	357.260	-0.330	0.360	-0.440
2020/01/31 16:32:32.7	357.230	-0.350	0.380	-0.420
2020/01/31 16:32:32.8	357.210	-0.360	0.400	-0.410
2020/01/31 16:32:32.9	357.190	-0.360	0.420	-0.390
2020/01/31 16:32:33.0	357.170	-0.370	0.440	-0.370
2020/01/31 16:32:33.1	357.150	-0.370	0.450	-0.350
2020/01/31 16:32:33.2	357.130	-0.370	0.460	-0.330
2020/01/31 16:32:33.3	357.120	-0.360	0.460	-0.310
2020/01/31 16:32:33.4	357.110	-0.350	0.450	-0.300
2020/01/31 16:32:33.5	357.100	-0.340	0.440	-0.280
2020/01/31 16:32:33.6	357.100	-0.330	0.430	-0.270
2020/01/31 16:32:33.7	357.100	-0.320	0.410	-0.260
2020/01/31 16:32:33.8	357.110	-0.300	0.380	-0.250
2020/01/31 16:32:33.9	357.110	-0.280	0.350	-0.240
2020/01/31 16:32:34.0	357.120	-0.260	0.320	-0.230
2020/01/31 16:32:34.1	357.120	-0.230	0.280	-0.220
2020/01/31 16:32:34.2	357.140	-0.210	0.240	-0.220
2020/01/31 16:32:34.3	357.150	-0.180	0.190	-0.220
2020/01/31 16:32:34.4	357.170	-0.160	0.140	-0.220
2020/01/31 16:32:34.5	357.180	-0.130	0.090	-0.220
2020/01/31 16:32:34.6	357.200	-0.100	0.040	-0.230
2020/01/31 16:32:34.7	357.230	-0.070	-0.010	-0.240
2020/01/31 16:32:34.8	357.250	-0.050	-0.060	-0.240
2020/01/31 16:32:34.9	357.270	-0.020	-0.110	-0.250
2020/01/31 16:32:35.0	357.290	0.000	-0.160	-0.250
2020/01/31 16:32:35.1	357.310	0.020	-0.210	-0.260
2020/01/31 16:32:35.2	357.330	0.040	-0.250	-0.260
2020/01/31 16:32:35.3	357.350	0.060	-0.290	-0.270
2020/01/31 16:32:35.4	357.360	0.080	-0.330	-0.270
2020/01/31 16:32:35.5	357.370	0.090	-0.370	-0.280
2020/01/31 16:32:35.6	357.390	0.110	-0.400	-0.280
2020/01/31 16:32:35.7	357.390	0.120	-0.430	-0.280
2020/01/31 16:32:35.8	357.400	0.120	-0.450	-0.290
2020/01/31 16:32:35.9	357.410	0.130	-0.470	-0.290
2020/01/31 16:32:36.0	357.410	0.130	-0.490	-0.290
2020/01/31 16:32:36.1	357.410	0.130	-0.500	-0.280
2020/01/31 16:32:36.2	357.410	0.120	-0.510	-0.280
2020/01/31 16:32:36.3	357.410	0.110	-0.510	-0.280
2020/01/31 16:32:36.4	357.400	0.100	-0.510	-0.280
2020/01/31 16:32:36.5	357.400	0.090	-0.510	-0.270
2020/01/31 16:32:36.6	357.390	0.080	-0.500	-0.270
2020/01/31 16:32:36.7	357.380	0.060	-0.490	-0.260
2020/01/31 16:32:36.8	357.380	0.050	-0.480	-0.260
2020/01/31 16:32:36.9	357.370	0.030	-0.470	-0.250
2020/01/31 16:32:37.0	357.360	0.010	-0.450	-0.250
2020/01/31 16:32:37.1	357.350	-0.010	-0.440	-0.250
2020/01/31 16:32:37.2	357.350	-0.030	-0.430	-0.240
2020/01/31 16:32:37.3	357.340	-0.050	-0.420	-0.240
2020/01/31 16:32:37.4	357.340	-0.070	-0.410	-0.240
2020/01/31 16:32:37.5	357.330	-0.090	-0.410	-0.250
2020/01/31 16:32:37.6	357.330	-0.110	-0.400	-0.250
2020/01/31 16:32:37.7	357.330	-0.130	-0.400	-0.260
2020/01/31 16:32:37.8	357.340	-0.140	-0.410	-0.270
2020/01/31 16:32:37.9	357.340	-0.160	-0.410	-0.280
2020/01/31 16:32:38.0	357.340	-0.170	-0.420	-0.300
2020/01/31 16:32:38.1	357.350	-0.180	-0.440	-0.320
2020/01/31 16:32:38.2	357.360	-0.190	-0.450	-0.340
2020/01/31 16:32:38.3	357.370	-0.200	-0.480	-0.360
2020/01/31 16:32:38.4	357.380	-0.200	-0.500	-0.390
2020/01/31 16:32:38.5	357.400	-0.210	-0.520	-0.420
2020/01/31 16:32:38.6	357.410	-0.210	-0.550	-0.440
2020/01/31 16:32:38.7	357.430	-0.200	-0.580	-0.480
2020/01/31 16:32:38.8	357.440	-0.200	-0.610	-0.500
2020/01/31 16:32:38.9	357.460	-0.190	-0.640	-0.530
2020/01/31 16:32:39.0	357.470	-0.180	-0.670	-0.550
2020/01/31 16:32:39.1	357.490	-0.170	-0.700	-0.580
2020/01/31 16:32:39.2	357.500	-0.150	-0.730	-0.600
2020/01/31 16:32:39.3	357.510	-0.140	-0.760	-0.620
2020/01/31 16:32:39.4	357.520	-0.120	-0.780	-0.640
2020/01/31 16:32:39.5	357.540	-0.100	-0.800	-0.650
2020/01/31 16:32:39.6	357.550	-0.080	-0.820	-0.670
2020/01/31 16:32:39.7	357.570	-0.050	-0.840	-0.680
2020/01/31 16:32:39.8	357.580	-0.030	-0.850	-0.690
2020/01/31 16:32:39.9	357.590	-0.000	-0.860	-0.700
2020/01/31 16:32:40.0	357.600	0.020	-0.870	-0.710
2020/01/31 16:32:40.1	357.610	0.050	-0.880	-0.720
2020/01/31 16:32:40.2	357.630	0.080	-0.880	-0.720
2020/01/31 16:32:40.3	357.640	0.110	-0.880	-0.730
2020/01/31 16:32:40.4	357.650	0.130	-0.870	-0.740
2020/01/31 16:32:40.5	357.670	0.160	-0.860	-0.740
2020/01/31 16:32:40.6	357.680	0.190	-0.850	-0.750
2020/01/31 16:32:40.7	357.700	0.220	-0.840	-0.760
2020/01/31 16:32:40.8	357.710	0.240	-0.820	-0.770
2020/01/31 16:32:40.9	357.730	0.270	-0.800	-0.770
2020/01/31 16:32:41.0	357.750	0.290	-0.780	-0.780
2020/01/31 16:32:41.1	357.770	0.320	-0.750	-0.780
2020/01/31 16:32:41.2	357.800	0.340	-0.730	-0.780
2020/01/31 16:32:41.3	357.820	0.360	-0.700	-0.780
2020/01/31 16:32:41.4	357.840	0.380	-0.670	-0.780
2020/01/31 16:32:41.5	357.860	0.400	-0.630	-0.780
2020/01/31 16:32:41.6	357.890	0.420	-0.590	-0.770
2020/01/31 16:32:41.7	357.900	0.440	-0.550	-0.760
2020/01/31 16:32:41.8	357.920	0.450	-0.510	-0.750
2020/01/31 16:32:41.9	357.930	0.460	-0.460	-0.730
2020/01/31 16:32:42.0	357.940	0.470	-0.410	-0.710
2020/01/31 16:32:42.1	357.950	0.480	-0.360	-0.680
2020/01/31 16:32:42.2	357.960	0.480	-0.310	-0.660
2020/01/31 16:32:42.3	357.960	0.480	-0.250	-0.630
2020/01/31 16:32:42.4	357.960	0.480	-0.190	-0.590
2020/01/31 16:32:42.5	357.950	0.480	-0.130	-0.560
2020/01/31 16:32:42.6	357.950	0.470	-0.070	-0.530
2020/01/31 16:32:42.7	357.940	0.460	-0.010	-0.490
2020/01/31 16:32:42.8	357.930	0.450	0.050	-0.460
2020/01/31 16:32:42.9	357.920	0.430	0.110	-0.420
2020/01/31 16:32:43.0	357.900	0.410	0.170	-0.390
2020/01/31 16:32:43.1	357.880	0.390	0.230	-0.350
2020/01/31 16:32:43.2	357.860	0.370	0.290	-0.320
2020/01/31 16:32:43.3	357.850	0.340	0.350	-0.290
2020/01/31 16:32:43.4	357.820	0.310	0.400	-0.270
2020/01/31 16:32:43.5	357.800	0.280	0.450	-0.240
2020/01/31 16:32:43.6	357.780	0.250	0.500	-0.220
2020/01/31 16:32:43.7	357.760	0.220	0.550	-0.200
2020/01/31 16:32:43.8	357.740	0.190	0.590	-0.180
2020/01/31 16:32:43.9	357.720	0.160	0.630	-0.170
2020/01/31 16:32:44.0	357.700	0.120	0.660	-0.160
2020/01/31 16:32:44.1	357.680	0.090	0.700	-0.140
2020/01/31 16:32:44.2	357.660	0.060	0.720	-0.140
2020/01/31 16:32:44.3	357.640	0.020	0.750	-0.130
2020/01/31 16:32:44.4	357.620	-0.010	0.770	-0.120
2020/01/31 16:32:44.5	357.600	-0.040	0.780	-0.120
2020/01/31 16:32:44.6	357.580	-0.070	0.790	-0.110
2020/01/31 16:32:44.7	357.540	-0.100	0.800	-0.110
2020/01/31 16:32:44.8	357.520	-0.120	0.810	-0.110
2020/01/31 16:32:44.9	357.500	-0.150	0.800	-0.100
2020/01/31 16:32:45.0	357.480	-0.170	0.800	-0.100
2020/01/31 16:32:45.1	357.450	-0.200	0.790	-0.100
2020/01/31 16:32:45.2	357.430	-0.220	0.780	-0.090
2020/01/31 16:32:45.3	357.410	-0.240	0.760	-0.090
2020/01/31 16:32:45.4	357.380	-0.260	0.740	-0.080
2020/01/31 16:32:45.5	357.360	-0.270	0.710	-0.080
2020/01/31 16:32:45.6	357.340	-0.290	0.680	-0.070
2020/01/31 16:32:45.7	357.310	-0.300	0.640	-0.070
2020/01/31 16:32:45.8	357.280	-0.320	0.600	-0.070
2020/01/31 16:32:45.9	357.260	-0.330	0.560	-0.070
2020/01/31 16:32:46.0	357.240	-0.340	0.510	-0.070
2020/01/31 16:32:46.1	357.220	-0.350	0.450	-0.080
2020/01/31 16:32:46.2	357.200	-0.350	0.390	-0.080
2020/01/31 16:32:46.3	357.180	-0.360	0.330	-0.090
2020/01/31 16:32:46.4	357.170	-0.370	0.260	-0.110
2020/01/31 16:32:46.5	357.160	-0.370	0.190	-0.120
2020/01/31 16:32:46.6	357.140	-0.380	0.110	-0.140
2020/01/31 16:32:46.7	357.140	-0.380	0.030	-0.170
2020/01/31 16:32:46.8	357.130	-0.380	-0.050	-0.200
2020/01/31 16:32:46.9	357.130	-0.380	-0.140	-0.230
2020/01/31 16:32:47.0	357.140	-0.380	-0.230	-0.270
2020/01/31 16:32:47.1	357.140	-0.380	-0.320	-0.310
2020/01/31 16:32:47.2	357.150	-0.380	-0.410	-0.350
2020/01/31 16:32:47.3	357.160	-0.380	-0.500	-0.400
2020/01/31 16:32:47.4	357.180	-0.370	-0.600	-0.450
2020/01/31 16:32:47.5	357.200	-0.370	-0.690	-0.510
2020/01/31 16:32:47.6	357.220	-0.360	-0.780	-0.560
2020/01/31 16:32:47.7	357.240	-0.360	-0.870	-0.620
2020/01/31 16:32:47.8	357.270	-0.350	-0.960	-0.680
2020/01/31 16:32:47.9	357.300	-0.340	-1.050	-0.740
2020/01/31 16:32:48.0	357.340	-0.340	-1.130	-0.800
2020/01/31 16:32:48.1	357.380	-0.330	-1.210	-0.850
2020/01/31 16:32:48.2	357.420	-0.320	-1.280	-0.910
2020/01/31 16:32:48.3	357.460	-0.310	-1.350	-0.970
2020/01/31 16:32:48.4	357.500	-0.300	-1.410	-1.020
2020/01/31 16:32:48.5	357.550	-0.290	-1.460	-1.070
2020/01/31 16:32:48.6	357.590	-0.280	-1.500	-1.110
2020/01/31 16:32:48.7	357.630	-0.270	-1.540	-1.160
2020/01/31 16:32:48.8	357.670	-0.260	-1.570	-1.200
2020/01/31 16:32:48.9	357.720	-0.250	-1.590	-1.230
2020/01/31 16:32:49.0	357.760	-0.250	-1.600	-1.260
2020/01/31 16:32:49.1	357.800	-0.240	-1.610	-1.290
2020/01/31 16:32:49.2	357.840	-0.230	-1.600	-1.310
2020/01/31 16:32:49.3	357.870	-0.220	-1.580	-1.330
2020/01/31 16:32:49.4	357.910	-0.210	-1.560	-1.340
2020/01/31 16:32:49.5	357.940	-0.200	-1.530	-1.340
2020/01/31 16:32:49.6	357.970	-0.190	-1.480	-1.340
2020/01/31 16:32:49.7	358.000	-0.190	-1.440	-1.330
2020/01/31 16:32:49.8	358.030	-0.180	-1.380	-1.320
2020/01/31 16:32:49.9	358.050	-0.170	-1.320	-1.300
2020/01/31 16:32:50.0	358.070	-0.160	-1.250	-1.280
2020/01/31 16:32:50.1	358.090	-0.150	-1.170	-1.250
2020/01/31 16:32:50.2	358.100	-0.140	-1.090	-1.220
2020/01/31 16:32:50.3	358.110	-0.130	-1.000	-1.190
2020/01/31 16:32:50.4	358.120	-0.120	-0.910	-1.140
2020/01/31 16:32:50.5	358.120	-0.110	-0.810	-1.100
2020/01/31 16:32:50.6	358.130	-0.090	-0.720	-1.050
2020/01/31 16:32:50.7	358.130	-0.080	-0.620	-1.000
2020/01/31 16:32:50.8	358.130	-0.060	-0.520	-0.940
2020/01/31 16:32:50.9	358.120	-0.050	-0.420	-0.880
2020/01/31 16:32:51.0	358.120	-0.030	-0.330	-0.810
2020/01/31 16:32:51.1	358.110	-0.010	-0.230	-0.750
2020/01/31 16:32:51.2	358.100	0.000	-0.140	-0.680
2020/01/31 16:32:51.3	358.080	0.020	-0.050	-0.600
2020/01/31 16:32:51.4	358.070	0.050	0.030	-0.530
2020/01/31 16:32:51.5	358.050	0.070	0.110	-0.460
2020/01/31 16:32:51.6	358.040	0.090	0.180	-0.380
2020/01/31 16:32:51.7	358.010	0.120	0.250	-0.310
2020/01/31 16:32:51.8	358.000	0.140	0.310	-0.240
2020/01/31 16:32:51.9	357.980	0.170	0.360	-0.160
2020/01/31 16:32:52.0	357.970	0.200	0.400	-0.090
2020/01/31 16:32:52.1	357.950	0.230	0.440	-0.020
2020/01/31 16:32:52.2	357.940	0.260	0.470	0.040
2020/01/31 16:32:52.3	357.930	0.290	0.490	0.110
2020/01/31 16:32:52.4	357.920	0.330	0.500	0.170
2020/01/31 16:32:52.5	357.910	0.360	0.510	0.220
2020/01/31 16:32:52.6	357.900	0.390	0.510	0.280
2020/01/31 16:32:52.7	357.900	0.420	0.500	0.320
2020/01/31 16:32:52.8	357.890	0.460	0.480	0.370
2020/01/31 16:32:52.9	357.890	0.490	0.460	0.410
2020/01/31 16:32:53.0	357.890	0.520	0.440	0.440
2020/01/31 16:32:53.1	357.880	0.550	0.410	0.470
2020/01/31 16:32:53.2	357.880	0.580	0.370	0.490
2020/01/31 16:32:53.3	357.880	0.610	0.340	0.510
2020/01/31 16:32:53.4	357.890	0.630	0.300	0.530
2020/01/31 16:32:53.5	357.890	0.660	0.250	0.540
2020/01/31 16:32:53.6	357.890	0.680	0.210	0.540
2020/01/31 16:32:53.7	357.890	0.700	0.170	0.540
2020/01/31 16:32:53.8	357.890	0.710	0.130	0.550
2020/01/31 16:32:53.9	357.890	0.720	0.080	0.540
2020/01/31 16:32:54.0	357.890	0.730	0.040	0.540
2020/01/31 16:32:54.1	357.890	0.740	0.000	0.540
2020/01/31 16:32:54.2	357.890	0.730	-0.030	0.530
2020/01/31 16:32:54.3	357.890	0.730	-0.070	0.520
2020/01/31 16:32:54.4	357.880	0.720	-0.100	0.510
2020/01/31 16:32:54.5	357.870	0.710	-0.130	0.490
2020/01/31 16:32:54.6	357.870	0.690	-0.150	0.470
2020/01/31 16:32:54.7	357.860	0.670	-0.170	0.460
2020/01/31 16:32:54.8	357.850	0.640	-0.190	0.430
2020/01/31 16:32:54.9	357.840	0.610	-0.200	0.410
2020/01/31 16:32:55.0	357.830	0.570	-0.210	0.380
2020/01/31 16:32:55.1	357.820	0.530	-0.220	0.360
2020/01/31 16:32:55.2	357.810	0.490	-0.220	0.320
2020/01/31 16:32:55.3	357.800	0.440	-0.230	0.290
2020/01/31 16:32:55.4	357.790	0.400	-0.230	0.260
2020/01/31 16:32:55.5	357.780	0.340	-0.220	0.220
2020/01/31 16:32:55.6	357.770	0.290	-0.220	0.180
2020/01/31 16:32:55.7	357.760	0.240	-0.220	0.130
2020/01/31 16:32:55.8	357.760	0.180	-0.210	0.080
2020/01/31 16:32:55.9	357.750	0.120	-0.210	0.040
2020/01/31 16:32:56.0	357.740	0.070	-0.200	-0.010
2020/01/31 16:32:56.1	357.740	0.010	-0.200	-0.060
2020/01/31 16:32:56.2	357.730	-0.050	-0.190	-0.110
2020/01/31 16:32:56.3	357.730	-0.100	-0.190	-0.160
2020/01/31 16:32:56.4	357.730	-0.150	-0.180	-0.210
2020/01/31 16:32:56.5	357.730	-0.210	-0.180	-0.260
2020/01/31 16:32:56.6	357.740	-0.250	-0.180	-0.320
2020/01/31 16:32:56.7	357.740	-0.300	-0.180	-0.370
2020/01/31 16:32:56.8	357.750	-0.340	-0.170	-0.420
2020/01/31 16:32:56.9	357.750	-0.380	-0.170	-0.470
2020/01/31 16:32:57.0	357.750	-0.420	-0.170	-0.510
2020/01/31 16:32:57.1	357.750	-0.450	-0.170	-0.550
2020/01/31 16:32:57.2	357.750	-0.480	-0.160	-0.590
2020/01/31 16:32:57.3	357.750	-0.510	-0.160	-0.630
2020/01/31 16:32:57.4	357.750	-0.530	-0.150	-0.670
2020/01/31 16:32:57.5	357.750	-0.550	-0.150	-0.700
2020/01/31 16:32:57.6	357.740	-0.570	-0.140	-0.720
2020/01/31 16:32:57.7	357.730	-0.580	-0.130	-0.750
2020/01/31 16:32:57.8	357.720	-0.590	-0.120	-0.770
2020/01/31 16:32:57.9	357.710	-0.600	-0.110	-0.790
2020/01/31 16:32:58.0	357.700	-0.600	-0.100	-0.800
2020/01/31 16:32:58.1	357.690	-0.610	-0.090	-0.820
2020/01/31 16:32:58.2	357.670	-0.610	-0.080	-0.830
2020/01/31 16:32:58.3	357.650	-0.610	-0.060	-0.830
2020/01/31 16:32:58.4	357.640	-0.600	-0.050	-0.830
2020/01/31 16:32:58.5	357.620	-0.600	-0.040	-0.830
2020/01/31 16:32:58.6	357.600	-0.590	-0.030	-0.820
2020/01/31 16:32:58.7	357.580	-0.580	-0.020	-0.820
2020/01/31 16:32:58.8	357.560	-0.570	-0.010	-0.800
2020/01/31 16:32:58.9	357.540	-0.560	0.000	-0.780
2020/01/31 16:32:59.0	357.520	-0.550	0.010	-0.760
2020/01/31 16:32:59.1	357.500	-0.540	0.010	-0.740
2020/01/31 16:32:59.2	357.480	-0.520	0.010	-0.720
2020/01/31 16:32:59.3	357.460	-0.500	0.000	-0.690
2020/01/31 16:32:59.4	357.440	-0.490	-0.000	-0.660
2020/01/31 16:32:59.5	357.430	-0.470	-0.020	-0.630
2020/01/31 16:32:59.6	357.410	-0.450	-0.030	-0.600
2020/01/31 16:32:59.7	357.410	-0.430	-0.050	-0.570
2020/01/31 16:32:59.8	357.400	-0.400	-0.080	-0.530
2020/01/31 16:32:59.9	357.400	-0.380	-0.110	-0.500
2020/01/31 16:33:00.0	357.400	-0.360	-0.140	-0.470
2020/01/31 16:33:00.1	357.400	-0.330	-0.180	-0.450
2020/01/31 16:33:00.2	357.400	-0.310	-0.230	-0.420
2020/01/31 16:33:00.3	357.410	-0.280	-0.270	-0.400
2020/01/31 16:33:00.4	357.420	-0.250	-0.320	-0.380
2020/01/31 16:33:00.5	357.430	-0.220	-0.380	-0.360
2020/01/31 16:33:00.6	357.450	-0.190	-0.440	-0.350
2020/01/31 16:33:00.7	357.470	-0.170	-0.500	-0.350
2020/01/31 16:33:00.8	357.500	-0.130	-0.560	-0.340
2020/01/31 16:33:00.9	357.520	-0.100	-0.620	-0.340
2020/01/31 16:33:01.0	357.550	-0.070	-0.690	-0.350
2020/01/31 16:33:01.1	357.580	-0.040	-0.750	-0.360
2020/01/31 16:33:01.2	357.610	-0.010	-0.810	-0.370
2020/01/31 16:33:01.3	357.650	0.020	-0.880	-0.380
2020/01/31 16:33:01.4	357.690	0.050	-0.940	-0.400
2020/01/31 16:33:01.5	357.730	0.080	-0.990	-0.420
2020/01/31 16:33:01.6	357.770	0.110	-1.050	-0.450
2020/01/31 16:33:01.7	357.810	0.140	-1.100	-0.470
2020/01/31 16:33:01.8	357.860	0.170	-1.150	-0.500
2020/01/31 16:33:01.9	357.900	0.190	-1.190	-0.530
2020/01/31 16:33:02.0	357.950	0.220	-1.230	-0.560
2020/01/31 16:33:02.1	358.000	0.240	-1.260	-0.590
2020/01/31 16:33:02.2	358.040	0.260	-1.280	-0.620
2020/01/31 16:33:02.3	358.090	0.280	-1.300	-0.650
2020/01/31 16:33:02.4	358.140	0.290	-1.310	-0.680
2020/01/31 16:33:02.5	358.190	0.310	-1.310	-0.710
2020/01/31 16:33:02.6	358.230	0.320	-1.310	-0.740
2020/01/31 16:33:02.7	358.270	0.330	-1.300	-0.770
2020/01/31 16:33:02.8	358.310	0.330	-1.280	-0.790
2020/01/31 16:33:02.9	358.350	0.340	-1.250	-0.810
2020/01/31 16:33:03.0	358.390	0.340	-1.210	-0.830
2020/01/31 16:33:03.1	358.420	0.330	-1.160	-0.840
2020/01/31 16:33:03.2	358.450	0.330	-1.110	-0.850
2020/01/31 16:33:03.3	358.480	0.320	-1.050	-0.850
2020/01/31 16:33:03.4	358.500	0.310	-0.980	-0.860
2020/01/31 16:33:03.5	358.510	0.300	-0.900	-0.850
2020/01/31 16:33:03.6	358.530	0.280	-0.820	-0.850
2020/01/31 16:33:03.7	358.530	0.260	-0.730	-0.830
2020/01/31 16:33:03.8	358.540	0.240	-0.640	-0.820
2020/01/31 16:33:03.9	358.530	0.220	-0.540	-0.790
2020/01/31 16:33:04.0	358.530	0.190	-0.430	-0.770
2020/01/31 16:33:04.1	358.510	0.160	-0.320	-0.740
2020/01/31 16:33:04.2	358.500	0.130	-0.210	-0.700
2020/01/31 16:33:04.3	358.470	0.100	-0.100	-0.660
2020/01/31 16:33:04.4	358.450	0.070	0.010	-0.620
2020/01/31 16:33:04.5	358.410	0.040	0.130	-0.580
2020/01/31 16:33:04.6	358.380	0.010	0.240	-0.530
2020/01/31 16:33:04.7	358.340	-0.030	0.350	-0.480
2020/01/31 16:33:04.8	358.300	-0.060	0.450	-0.430
2020/01/31 16:33:04.9	358.250	-0.090	0.550	-0.380
2020/01/31 16:33:05.0	358.210	-0.120	0.650	-0.330
2020/01/31 16:33:05.1	358.160	-0.150	0.740	-0.290
2020/01/31 16:33:05.2	358.110	-0.180	0.820	-0.240
2020/01/31 16:33:05.3	358.060	-0.210	0.890	-0.190
2020/01/31 16:33:05.4	358.010	-0.230	0.950	-0.140
2020/01/31 16:33:05.5	357.960	-0.250	1.010	-0.100
2020/01/31 16:33:05.6	357.910	-0.270	1.050	-0.060
2020/01/31 16:33:05.7	357.860	-0.280	1.080	-0.030
2020/01/31 16:33:05.8	357.810	-0.290	1.110	0.010
2020/01/31 16:33:05.9	357.760	-0.300	1.120	0.040
2020/01/31 16:33:06.0	357.720	-0.300	1.120	0.070
2020/01/31 16:33:06.1	357.670	-0.300	1.110	0.100
2020/01/31 16:33:06.2	357.630	-0.300	1.090	0.120
2020/01/31 16:33:06.3	357.590	-0.280	1.050	0.140
2020/01/31 16:33:06.4	357.550	-0.270	1.010	0.160
2020/01/31 16:33:06.5	357.520	-0.250	0.960	0.180
2020/01/31 16:33:06.6	357.480	-0.220	0.900	0.190
2020/01/31 16:33:06.7	357.450	-0.200	0.830	0.200
2020/01/31 16:33:06.8	357.420	-0.160	0.760	0.210
2020/01/31 16:33:06.9	357.390	-0.130	0.680	0.220
2020/01/31 16:33:07.0	357.360	-0.090	0.590	0.220
2020/01/31 16:33:07.1	357.340	-0.040	0.500	0.230
2020/01/31 16:33:07.2	357.310	0.000	0.400	0.240
2020/01/31 16:33:07.3	357.290	0.050	0.300	0.240
2020/01/31 16:33:07.4	357.270	0.100	0.210	0.240
2020/01/31 16:33:07.5	357.250	0.150	0.110	0.250
2020/01/31 16:33:07.6	357.230	0.200	0.010	0.250
2020/01/31 16:33:07.7	357.210	0.250	-0.080	0.250
2020/01/31 16:33:07.8	357.190	0.310	-0.180	0.250
2020/01/31 16:33:07.9	357.170	0.360	-0.260	0.250
2020/01/31 16:33:08.0	357.160	0.410	-0.350	0.250
2020/01/31 16:33:08.1	357.140	0.450	-0.430	0.250
2020/01/31 16:33:08.2	357.130	0.500	-0.510	0.250
2020/01/31 16:33:08.3	357.120	0.540	-0.580	0.250
2020/01/31 16:33:08.4	357.110	0.580	-0.640	0.250
2020/01/31 16:33:08.5	357.100	0.610	-0.700	0.240
2020/01/31 16:33:08.6	357.090	0.640	-0.750	0.230
2020/01/31 16:33:08.7	357.080	0.660	-0.800	0.220
2020/01/31 16:33:08.8	357.070	0.680	-0.830	0.210
2020/01/31 16:33:08.9	357.070	0.690	-0.870	0.200
2020/01/31 16:33:09.0	357.070	0.700	-0.890	0.180
2020/01/31 16:33:09.1	357.070	0.700	-0.910	0.160
2020/01/31 16:33:09.2	357.080	0.690	-0.930	0.140
2020/01/31 16:33:09.3	357.080	0.680	-0.940	0.110
2020/01/31 16:33:09.4	357.090	0.670	-0.940	0.090
2020/01/31 16:33:09.5	357.100	0.640	-0.940	0.060
2020/01/31 16:33:09.6	357.120	0.620	-0.940	0.030
2020/01/31 16:33:09.7	357.130	0.580	-0.920	-0.020
2020/01/31 16:33:09.8	357.160	0.550	-0.910	-0.050
2020/01/31 16:33:09.9	357.180	0.500	-0.900	-0.090
2020/01/31 16:33:10.0	357.210	0.460	-0.880	-0.140
2020/01/31 16:33:10.1	357.240	0.410	-0.860	-0.180
2020/01/31 16:33:10.2	357.280	0.360	-0.830	-0.230
2020/01/31 16:33:10.3	357.310	0.300	-0.810	-0.280
2020/01/31 16:33:10.4	357.350	0.240	-0.780	-0.330
2020/01/31 16:33:10.5	357.400	0.180	-0.750	-0.380
2020/01/31 16:33:10.6	357.440	0.120	-0.720	-0.430
2020/01/31 16:33:10.7	357.500	0.060	-0.700	-0.490
2020/01/31 16:33:10.8	357.550	-0.000	-0.670	-0.540
2020/01/31 16:33:10.9	357.600	-0.060	-0.640	-0.600
2020/01/31 16:33:11.0	357.650	-0.120	-0.610	-0.650
2020/01/31 16:33:11.1	357.700	-0.180	-0.580	-0.700
2020/01/31 16:33:11.2	357.750	-0.230	-0.540	-0.750
2020/01/31 16:33:11.3	357.790	-0.290	-0.510	-0.790
2020/01/31 16:33:11.4	357.840	-0.340	-0.480	-0.840
2020/01/31 16:33:11.5	357.890	-0.390	-0.440	-0.870
2020/01/31 16:33:11.6	357.930	-0.430	-0.410	-0.910
2020/01/31 16:33:11.7	357.970	-0.470	-0.370	-0.940
2020/01/31 16:33:11.8	358.010	-0.510	-0.340	-0.970
2020/01/31 16:33:11.9	358.050	-0.540	-0.300	-0.990
2020/01/31 16:33:12.0	358.080	-0.570	-0.270	-1.000
2020/01/31 16:33:12.1	358.100	-0.590	-0.230	-1.010
2020/01/31 16:33:12.2	358.130	-0.610	-0.200	-1.010
2020/01/31 16:33:12.3	358.150	-0.630	-0.160	-1.010
2020/01/31 16:33:12.4	358.170	-0.640	-0.130	-1.010
2020/01/31 16:33:12.5	358.180	-0.650	-0.100	-1.000
2020/01/31 16:33:12.6	358.190	-0.660	-0.070	-0.990
2020/01/31 16:33:12.7	358.200	-0.660	-0.040	-0.970
2020/01/31 16:33:12.8	358.210	-0.660	-0.020	-0.950
2020/01/31 16:33:12.9	358.210	-0.650	0.000	-0.920
2020/01/31 16:33:13.0	358.210	-0.650	0.020	-0.900
2020/01/31 16:33:13.1	358.210	-0.640	0.030	-0.870
2020/01/31 16:33:13.2	358.200	-0.620	0.050	-0.840
2020/01/31 16:33:13.3	358.190	-0.610	0.060	-0.810
2020/01/31 16:33:13.4	358.180	-0.590	0.060	-0.780
2020/01/31 16:33:13.5	358.170	-0.580	0.060	-0.740
2020/01/31 16:33:13.6	358.160	-0.560	0.060	-0.710
2020/01/31 16:33:13.7	358.160	-0.530	0.060	-0.670
2020/01/31 16:33:13.8	358.140	-0.510	0.050	-0.640
2020/01/31 16:33:13.9	358.130	-0.490	0.040	-0.600
2020/01/31 16:33:14.0	358.120	-0.460	0.020	-0.560
2020/01/31 16:33:14.1	358.110	-0.440	0.010	-0.530
2020/01/31 16:33:14.2	358.100	-0.410	-0.010	-0.490
2020/01/31 16:33:14.3	358.090	-0.390	-0.040	-0.460
2020/01/31 16:33:14.4	358.080	-0.360	-0.060	-0.420
2020/01/31 16:33:14.5	358.070	-0.330	-0.090	-0.390
2020/01/31 16:33:14.6	358.060	-0.310	-0.110	-0.360
2020/01/31 16:33:14.7	358.060	-0.280	-0.140	-0.330
2020/01/31 16:33:14.8	358.050	-0.250	-0.160	-0.300
2020/01/31 16:33:14.9	358.050	-0.230	-0.190	-0.270
2020/01/31 16:33:15.0	358.040	-0.200	-0.210	-0.240
2020/01/31 16:33:15.1	358.030	-0.180	-0.240	-0.220
2020/01/31 16:33:15.2	358.030	-0.160	-0.260	-0.190
2020/01/31 16:33:15.3	358.020	-0.130	-0.280	-0.160
2020/01/31 16:33:15.4	358.010	-0.110	-0.290	-0.140
2020/01/31 16:33:15.5	358.010	-0.090	-0.310	-0.110
2020/01/31 16:33:15.6	358.000	-0.070	-0.320	-0.090
2020/01/31 16:33:15.7	357.990	-0.050	-0.330	-0.070
2020/01/31 16:33:15.8	357.990	-0.040	-0.340	-0.050
2020/01/31 16:33:15.9	357.990	-0.020	-0.350	-0.040
2020/01/31 16:33:16.0	357.990	-0.000	-0.360	-0.030
2020/01/31 16:33:16.1	357.990	0.010	-0.360	-0.020
2020/01/31 16:33:16.2	358.000	0.020	-0.370	-0.010
2020/01/31 16:33:16.3	358.010	0.030	-0.370	-0.010
2020/01/31 16:33:16.4	358.010	0.050	-0.380	-0.000
2020/01/31 16:33:16.5	358.020	0.050	-0.380	-0.010
2020/01/31 16:33:16.6	358.040	0.060	-0.380	-0.010
2020/01/31 16:33:16.7	358.050	0.070	-0.380	-0.020
2020/01/31 16:33:16.8	358.060	0.080	-0.380	-0.030
2020/01/31 16:33:16.9	358.080	0.090	-0.390	-0.050
2020/01/31 16:33:17.0	358.090	0.090	-0.390	-0.060
2020/01/31 16:33:17.1	358.110	0.100	-0.390	-0.080
2020/01/31 16:33:17.2	358.120	0.100	-0.380	-0.100
2020/01/31 16:33:17.3	358.140	0.110	-0.380	-0.120
2020/01/31 16:33:17.4	358.150	0.120	-0.380	-0.140
2020/01/31 16:33:17.5	358.170	0.120	-0.380	-0.170
2020/01/31 16:33:17.6	358.180	0.130	-0.370	-0.190
2020/01/31 16:33:17.7	358.200	0.130	-0.370	-0.220
2020/01/31 16:33:17.8	358.210	0.140	-0.360	-0.240
2020/01/31 16:33:17.9	358.210	0.140	-0.350	-0.260
2020/01/31 16:33:18.0	358.220	0.150	-0.340	-0.280
2020/01/31 16:33:18.1	358.220	0.160	-0.330	-0.290
2020/01/31 16:33:18.2	358.210	0.170	-0.320	-0.300
2020/01/31 16:33:18.3	358.200	0.170	-0.300	-0.310
2020/01/31 16:33:18.4	358.190	0.180	-0.290	-0.320
2020/01/31 16:33:18.5	358.180	0.190	-0.270	-0.320
2020/01/31 16:33:18.6	358.170	0.200	-0.250	-0.310
2020/01/31 16:33:18.7	358.150	0.220	-0.230	-0.310
2020/01/31 16:33:18.8	358.130	0.230	-0.210	-0.300
2020/01/31 16:33:18.9	358.110	0.240	-0.180	-0.280
2020/01/31 16:33:19.0	358.080	0.260	-0.160	-0.260
2020/01/31 16:33:19.1	358.060	0.270	-0.130	-0.240
2020/01/31 16:33:19.2	358.030	0.290	-0.110	-0.220
2020/01/31 16:33:19.3	358.000	0.300	-0.080	-0.190
2020/01/31 16:33:19.4	357.970	0.320	-0.060	-0.160
2020/01/31 16:33:19.5	357.940	0.330	-0.040	-0.130
2020/01/31 16:33:19.6	357.910	0.350	-0.020	-0.100
2020/01/31 16:33:19.7	357.870	0.360	-0.000	-0.070
2020/01/31 16:33:19.8	357.850	0.380	0.010	-0.040
2020/01/31 16:33:19.9	357.820	0.400	0.030	-0.010
2020/01/31 16:33:20.0	357.790	0.410	0.040	0.020
2020/01/31 16:33:20.1	357.770	0.430	0.040	0.040
2020/01/31 16:33:20.2	357.750	0.440	0.050	0.070
2020/01/31 16:33:20.3	357.730	0.460	0.050	0.090
2020/01/31 16:33:20.4	357.710	0.470	0.040	0.110
2020/01/31 16:33:20.5	357.690	0.480	0.040	0.130
2020/01/31 16:33:20.6	357.670	0.490	0.030	0.140
2020/01/31 16:33:20.7	357.650	0.500	0.020	0.150
2020/01/31 16:33:20.8	357.640	0.510	0.000	0.160
2020/01/31 16:33:20.9	357.620	0.510	-0.010	0.160
2020/01/31 16:33:21.0	357.610	0.510	-0.030	0.160
2020/01/31 16:33:21.1	357.600	0.510	-0.050	0.150
2020/01/31 16:33:21.2	357.590	0.510	-0.070	0.140
2020/01/31 16:33:21.3	357.580	0.500	-0.090	0.130
2020/01/31 16:33:21.4	357.570	0.490	-0.110	0.120
2020/01/31 16:33:21.5	357.570	0.480	-0.130	0.100
2020/01/31 16:33:21.6	357.560	0.460	-0.160	0.080
2020/01/31 16:33:21.7	357.570	0.440	-0.180	0.050
2020/01/31 16:33:21.8	357.570	0.420	-0.200	0.020
2020/01/31 16:33:21.9	357.570	0.390	-0.220	-0.000
2020/01/31 16:33:22.0	357.570	0.370	-0.240	-0.040
2020/01/31 16:33:22.1	357.580	0.340	-0.270	-0.070
2020/01/31 16:33:22.2	357.590	0.310	-0.280	-0.100
2020/01/31 16:33:22.3	357.600	0.270	-0.300	-0.140
2020/01/31 16:33:22.4	357.610	0.240	-0.320	-0.170
2020/01/31 16:33:22.5	357.620	0.200	-0.340	-0.210
2020/01/31 16:33:22.6	357.640	0.160	-0.350	-0.240
2020/01/31 16:33:22.7	357.650	0.120	-0.370	-0.280
2020/01/31 16:33:22.8	357.670	0.080	-0.380	-0.320
2020/01/31 16:33:22.9	357.700	0.040	-0.390	-0.360
2020/01/31 16:33:23.0	357.720	0.000	-0.400	-0.400
2020/01/31 16:33:23.1	357.750	-0.040	-0.410	-0.430
2020/01/31 16:33:23.2	357.790	-0.070	-0.420	-0.470
2020/01/31 16:33:23.3	357.820	-0.110	-0.430	-0.510
2020/01/31 16:33:23.4	357.860	-0.150	-0.430	-0.540
2020/01/31 16:33:23.5	357.900	-0.180	-0.440	-0.580
2020/01/31 16:33:23.6	357.940	-0.210	-0.440	-0.610
2020/01/31 16:33:23.7	357.980	-0.240	-0.440	-0.650
2020/01/31 16:33:23.8	358.030	-0.270	-0.440	-0.680
2020/01/31 16:33:23.9	358.070	-0.290	-0.430	-0.710
2020/01/31 16:33:24.0	358.120	-0.320	-0.430	-0.740
2020/01/31 16:33:24.1	358.160	-0.340	-0.420	-0.760
2020/01/31 16:33:24.2	358.210	-0.350	-0.410	-0.780
2020/01/31 16:33:24.3	358.250	-0.370	-0.400	-0.800
2020/01/31 16:33:24.4	358.290	-0.380	-0.380	-0.820
2020/01/31 16:33:24.5	358.330	-0.390	-0.370	-0.830
2020/01/31 16:33:24.6	358.370	-0.390	-0.350	-0.840
2020/01/31 16:33:24.7	358.410	-0.400	-0.330	-0.840
2020/01/31 16:33:24.8	358.440	-0.400	-0.300	-0.840
2020/01/31 16:33:24.9	358.470	-0.400	-0.280	-0.830
2020/01/31 16:33:25.0	358.490	-0.400	-0.250	-0.820
2020/01/31 16:33:25.1	358.510	-0.390	-0.230	-0.800
2020/01/31 16:33:25.2	358.530	-0.390	-0.200	-0.780
2020/01/31 16:33:25.3	358.540	-0.380	-0.170	-0.760
2020/01/31 16:33:25.4	358.550	-0.370	-0.140	-0.730
2020/01/31 16:33:25.5	358.560	-0.370	-0.120	-0.700
2020/01/31 16:33:25.6	358.560	-0.360	-0.090	-0.670
2020/01/31 16:33:25.7	358.570	-0.350	-0.070	-0.640
2020/01/31 16:33:25.8	358.570	-0.340	-0.050	-0.610
2020/01/31 16:33:25.9	358.570	-0.330	-0.030	-0.570
2020/01/31 16:33:26.0	358.560	-0.320	-0.020	-0.540
2020/01/31 16:33:26.1	358.550	-0.310	-0.010	-0.510
2020/01/31 16:33:26.2	358.550	-0.300	-0.000	-0.480
2020/01/31 16:33:26.3	358.540	-0.290	-0.000	-0.450
2020/01/31 16:33:26.4	358.530	-0.280	-0.010	-0.420
2020/01/31 16:33:26.5	358.520	-0.270	-0.010	-0.390
2020/01/31 16:33:26.6	358.510	-0.260	-0.030	-0.370
2020/01/31 16:33:26.7	358.500	-0.250	-0.050	-0.350
2020/01/31 16:33:26.8	358.490	-0.250	-0.070	-0.340
2020/01/31 16:33:26.9	358.480	-0.240	-0.100	-0.320
2020/01/31 16:33:27.0	358.460	-0.230	-0.130	-0.310
2020/01/31 16:33:27.1	358.450	-0.220	-0.170	-0.300
2020/01/31 16:33:27.2	358.430	-0.210	-0.210	-0.300
2020/01/31 16:33:27.3	358.420	-0.210	-0.250	-0.290
2020/01/31 16:33:27.4	358.400	-0.200	-0.290	-0.290
2020/01/31 16:33:27.5	358.390	-0.190	-0.340	-0.300
2020/01/31 16:33:27.6	358.370	-0.190	-0.380	-0.300
2020/01/31 16:33:27.7	358.350	-0.180	-0.430	-0.310
2020/01/31 16:33:27.8	358.330	-0.170	-0.480	-0.310
2020/01/31 16:33:27.9	358.310	-0.170	-0.520	-0.320
2020/01/31 16:33:28.0	358.290	-0.160	-0.570	-0.340
2020/01/31 16:33:28.1	358.270	-0.150	-0.610	-0.350
2020/01/31 16:33:28.2	358.250	-0.140	-0.650	-0.370
2020/01/31 16:33:28.3	358.230	-0.140	-0.680	-0.380
2020/01/31 16:33:28.4	358.210	-0.130	-0.710	-0.400
2020/01/31 16:33:28.5	358.190	-0.120	-0.740	-0.420
2020/01/31 16:33:28.6	358.180	-0.120	-0.760	-0.440
2020/01/31 16:33:28.7	358.160	-0.110	-0.770	-0.470
2020/01/31 16:33:28.8	358.140	-0.100	-0.780	-0.500
2020/01/31 16:33:28.9	358.130	-0.090	-0.790	-0.520
2020/01/31 16:33:29.0	358.110	-0.080	-0.790	-0.550
2020/01/31 16:33:29.1	358.100	-0.080	-0.780	-0.570
2020/01/31 16:33:29.2	358.090	-0.070	-0.770	-0.590
2020/01/31 16:33:29.3	358.080	-0.060	-0.760	-0.620
2020/01/31 16:33:29.4	358.070	-0.050	-0.740	-0.640
2020/01/31 16:33:29.5	358.070	-0.040	-0.710	-0.660
2020/01/31 16:33:29.6	358.060	-0.030	-0.680	-0.680
2020/01/31 16:33:29.7	358.070	-0.020	-0.650	-0.700
2020/01/31 16:33:29.8	358.070	-0.020	-0.620	-0.720
2020/01/31 16:33:29.9	358.070	-0.010	-0.580	-0.730
2020/01/31 16:33:30.0	358.070	0.000	-0.540	-0.740
2020/01/31 16:33:30.1	358.080	0.010	-0.500	-0.750
2020/01/31 16:33:30.2	358.090	0.020	-0.450	-0.760
2020/01/31 16:33:30.3	358.090	0.030	-0.410	-0.770
2020/01/31 16:33:30.4	358.100	0.040	-0.360	-0.770
2020/01/31 16:33:30.5	358.110	0.050	-0.310	-0.780
2020/01/31 16:33:30.6	358.120	0.060	-0.260	-0.780
2020/01/31 16:33:30.7	358.130	0.070	-0.220	-0.780
2020/01/31 16:33:30.8	358.130	0.070	-0.170	-0.770
2020/01/31 16:33:30.9	358.140	0.080	-0.120	-0.760
2020/01/31 16:33:31.0	358.150	0.080	-0.070	-0.750
2020/01/31 16:33:31.1	358.150	0.090	-0.020	-0.740
2020/01/31 16:33:31.2	358.160	0.090	0.020	-0.720
2020/01/31 16:33:31.3	358.160	0.090	0.070	-0.710
2020/01/31 16:33:31.4	358.160	0.100	0.110	-0.690
2020/01/31 16:33:31.5	358.160	0.100	0.160	-0.670
2020/01/31 16:33:31.6	358.160	0.100	0.200	-0.640
2020/01/31 16:33:31.7	358.160	0.100	0.230	-0.620
2020/01/31 16:33:31.8	358.150	0.100	0.270	-0.600
2020/01/31 16:33:31.9	358.150	0.100	0.300	-0.570
2020/01/31 16:33:32.0	358.150	0.090	0.330	-0.540
2020/01/31 16:33:32.1	358.150	0.090	0.350	-0.510
2020/01/31 16:33:32.2	358.150	0.090	0.370	-0.480
2020/01/31 16:33:32.3	358.140	0.090	0.380	-0.450
2020/01/31 16:33:32.4	358.140	0.090	0.390	-0.420
2020/01/31 16:33:32.5	358.140	0.090	0.390	-0.390
2020/01/31 16:33:32.6	358.130	0.090	0.390	-0.350
2020/01/31 16:33:32.7	358.120	0.090	0.380	-0.320
2020/01/31 16:33:32.8	358.120	0.100	0.370	-0.280
2020/01/31 16:33:32.9	358.110	0.100	0.350	-0.250
2020/01/31 16:33:33.0	358.110	0.100	0.330	-0.210
2020/01/31 16:33:33.1	358.100	0.110	0.300	-0.170
2020/01/31 16:33:33.2	358.090	0.110	0.280	-0.120
2020/01/31 16:33:33.3	358.080	0.120	0.240	-0.080
2020/01/31 16:33:33.4	358.080	0.130	0.210	-0.040
2020/01/31 16:33:33.5	358.070	0.140	0.180	0.000
2020/01/31 16:33:33.6	358.060	0.150	0.140	0.050
2020/01/31 16:33:33.7	358.040	0.160	0.100	0.090
2020/01/31 16:33:33.8	358.030	0.180	0.060	0.130
2020/01/31 16:33:33.9	358.020	0.190	0.020	0.170
2020/01/31 16:33:34.0	358.010	0.210	-0.020	0.210
2020/01/31 16:33:34.1	357.990	0.230	-0.060	0.250
2020/01/31 16:33:34.2	357.980	0.240	-0.100	0.290
2020/01/31 16:33:34.3	357.960	0.260	-0.130	0.320
2020/01/31 16:33:34.4	357.950	0.280	-0.170	0.350
2020/01/31 16:33:34.5	357.930	0.300	-0.200	0.380
2020/01/31 16:33:34.6	357.920	0.320	-0.240	0.400
2020/01/31 16:33:34.7	357.900	0.340	-0.260	0.420
2020/01/31 16:33:34.8	357.890	0.360	-0.290	0.440
2020/01/31 16:33:34.9	357.870	0.380	-0.320	0.460
2020/01/31 16:33:35.0	357.860	0.400	-0.350	0.470
2020/01/31 16:33:35.1	357.840	0.420	-0.370	0.490
2020/01/31 16:33:35.2	357.830	0.430	-0.390	0.500
2020/01/31 16:33:35.3	357.820	0.450	-0.410	0.500
2020/01/31 16:33:35.4	357.810	0.470	-0.430	0.500
2020/01/31 16:33:35.5	357.800	0.480	-0.450	0.500
2020/01/31 16:33:35.6	357.790	0.490	-0.470	0.500
2020/01/31 16:33:35.7	357.780	0.500	-0.490	0.490
2020/01/31 16:33:35.8	357.770	0.510	-0.500	0.480
2020/01/31 16:33:35.9	357.770	0.510	-0.520	0.470
2020/01/31 16:33:36.0	357.770	0.510	-0.530	0.450
2020/01/31 16:33:36.1	357.770	0.510	-0.540	0.420
2020/01/31 16:33:36.2	357.770	0.500	-0.550	0.400
2020/01/31 16:33:36.3	357.770	0.490	-0.570	0.360
2020/01/31 16:33:36.4	357.780	0.480	-0.580	0.320
2020/01/31 16:33:36.5	357.790	0.460	-0.590	0.280
2020/01/31 16:33:36.6	357.800	0.440	-0.590	0.230
2020/01/31 16:33:36.7	357.820	0.420	-0.600	0.170
2020/01/31 16:33:36.8	357.830	0.390	-0.610	0.120
2020/01/31 16:33:36.9	357.850	0.360	-0.610	0.050
2020/01/31 16:33:37.0	357.880	0.330	-0.620	-0.010
2020/01/31 16:33:37.1	357.900	0.290	-0.620	-0.080
2020/01/31 16:33:37.2	357.930	0.250	-0.620	-0.160
2020/01/31 16:33:37.3	357.950	0.210	-0.620	-0.230
2020/01/31 16:33:37.4	357.980	0.170	-0.620	-0.310
2020/01/31 16:33:37.5	358.020	0.120	-0.620	-0.390
2020/01/31 16:33:37.6	358.050	0.070	-0.610	-0.470
2020/01/31 16:33:37.7	358.080	0.030	-0.610	-0.550
2020/01/31 16:33:37.8	358.120	-0.020	-0.600	-0.630
2020/01/31 16:33:37.9	358.150	-0.070	-0.590	-0.710
2020/01/31 16:33:38.0	358.190	-0.120	-0.580	-0.790
2020/01/31 16:33:38.1	358.220	-0.170	-0.560	-0.860
2020/01/31 16:33:38.2	358.260	-0.220	-0.550	-0.930
2020/01/31 16:33:38.3	358.290	-0.270	-0.530	-0.990
2020/01/31 16:33:38.4	358.320	-0.320	-0.510	-1.050
2020/01/31 16:33:38.5	358.360	-0.360	-0.480	-1.110
2020/01/31 16:33:38.6	358.380	-0.410	-0.460	-1.160
2020/01/31 16:33:38.7	358.410	-0.450	-0.430	-1.200
2020/01/31 16:33:38.8	358.440	-0.500	-0.400	-1.240
2020/01/31 16:33:38.9	358.460	-0.540	-0.370	-1.270
2020/01/31 16:33:39.0	358.480	-0.570	-0.340	-1.300
2020/01/31 16:33:39.1	358.500	-0.610	-0.300	-1.320
2020/01/31 16:33:39.2	358.520	-0.640	-0.270	-1.330
2020/01/31 16:33:39.3	358.530	-0.670	-0.230	-1.340
2020/01/31 16:33:39.4	358.550	-0.690	-0.200	-1.350
2020/01/31 16:33:39.5	358.560	-0.720	-0.170	-1.350
2020/01/31 16:33:39.6	358.560	-0.740	-0.140	-1.350
2020/01/31 16:33:39.7	358.560	-0.750	-0.110	-1.340
2020/01/31 16:33:39.8	358.570	-0.770	-0.080	-1.330
2020/01/31 16:33:39.9	358.570	-0.780	-0.050	-1.310
2020/01/31 16:33:40.0	358.570	-0.780	-0.030	-1.300
2020/01/31 16:33:40.1	358.570	-0.790	-0.010	-1.280
2020/01/31 16:33:40.2	358.570	-0.790	0.010	-1.250
2020/01/31 16:33:40.3	358.570	-0.790	0.020	-1.230
2020/01/31 16:33:40.4	358.570	-0.780	0.030	-1.200
2020/01/31 16:33:40.5	358.560	-0.770	0.040	-1.170
2020/01/31 16:33:40.6	358.550	-0.760	0.040	-1.130
2020/01/31 16:33:40.7	358.530	-0.750	0.040	-1.100
2020/01/31 16:33:40.8	358.520	-0.740	0.040	-1.060
2020/01/31 16:33:40.9	358.510	-0.720	0.040	-1.020
2020/01/31 16:33:41.0	358.490	-0.700	0.040	-0.980
2020/01/31 16:33:41.1	358.470	-0.680	0.030	-0.930
2020/01/31 16:33:41.2	358.460	-0.660	0.020	-0.890
2020/01/31 16:33:41.3	358.440	-0.640	0.010	-0.840
2020/01/31 16:33:41.4	358.420	-0.620	0.000	-0.800
2020/01/31 16:33:41.5	358.390	-0.600	-0.010	-0.750
2020/01/31 16:33:41.6	358.370	-0.570	-0.020	-0.700
2020/01/31 16:33:41.7	358.350	-0.550	-0.040	-0.650
2020/01/31 16:33:41.8	358.320	-0.520	-0.050	-0.610
2020/01/31 16:33:41.9	358.300	-0.490	-0.070	-0.560
2020/01/31 16:33:42.0	358.270	-0.470	-0.090	-0.510
2020/01/31 16:33:42.1	358.250	-0.440	-0.100	-0.470
2020/01/31 16:33:42.2	358.220	-0.410	-0.120	-0.420
2020/01/31 16:33:42.3	358.200	-0.380	-0.140	-0.380
2020/01/31 16:33:42.4	358.170	-0.350	-0.160	-0.340
2020/01/31 16:33:42.5	358.150	-0.310	-0.180	-0.290
2020/01/31 16:33:42.6	358.130	-0.280	-0.200	-0.250
2020/01/31 16:33:42.7	358.100	-0.240	-0.220	-0.220
2020/01/31 16:33:42.8	358.080	-0.210	-0.240	-0.180
2020/01/31 16:33:42.9	358.070	-0.170	-0.250	-0.140
2020/01/31 16:33:43.0	358.050	-0.130	-0.270	-0.110
2020/01/31 16:33:43.1	358.040	-0.090	-0.300	-0.080
2020/01/31 16:33:43.2	358.030	-0.050	-0.320	-0.050
2020/01/31 16:33:43.3	358.020	-0.000	-0.340	-0.020
2020/01/31 16:33:43.4	358.020	0.040	-0.360	-0.000
2020/01/31 16:33:43.5	358.020	0.090	-0.380	0.020
2020/01/31 16:33:43.6	358.020	0.140	-0.400	0.040
2020/01/31 16:33:43.7	358.020	0.190	-0.420	0.060
2020/01/31 16:33:43.8	358.030	0.250	-0.440	0.070
2020/01/31 16:33:43.9	358.040	0.300	-0.460	0.090
2020/01/31 16:33:44.0	358.050	0.360	-0.480	0.100
2020/01/31 16:33:44.1	358.060	0.410	-0.490	0.110
2020/01/31 16:33:44.2	358.070	0.470	-0.500	0.130
2020/01/31 16:33:44.3	358.080	0.520	-0.510	0.140
2020/01/31 16:33:44.4	358.090	0.570	-0.510	0.160
2020/01/31 16:33:44.5	358.100	0.620	-0.510	0.170
2020/01/31 16:33:44.6	358.110	0.670	-0.500	0.190
2020/01/31 16:33:44.7	358.120	0.720	-0.490	0.200
2020/01/31 16:33:44.8	358.130	0.760	-0.480	0.220
2020/01/31 16:33:44.9	358.130	0.800	-0.460	0.240
2020/01/31 16:33:45.0	358.130	0.840	-0.430	0.260
2020/01/31 16:33:45.1	358.120	0.870	-0.400	0.290
2020/01/31 16:33:45.2	358.120	0.900	-0.370	0.310
2020/01/31 16:33:45.3	358.110	0.920	-0.330	0.340
2020/01/31 16:33:45.4	358.100	0.940	-0.290	0.360
2020/01/31 16:33:45.5	358.090	0.950	-0.250	0.390
2020/01/31 16:33:45.6	358.070	0.960	-0.200	0.410
2020/01/31 16:33:45.7	358.050	0.960	-0.160	0.440
2020/01/31 16:33:45.8	358.040	0.960	-0.120	0.460
2020/01/31 16:33:45.9	358.020	0.950	-0.080	0.480
2020/01/31 16:33:46.0	358.000	0.940	-0.040	0.500
2020/01/31 16:33:46.1	357.980	0.920	-0.000	0.510
2020/01/31 16:33:46.2	357.960	0.890	0.030	0.520
2020/01/31 16:33:46.3	357.940	0.870	0.060	0.530
2020/01/31 16:33:46.4	357.910	0.830	0.080	0.530
2020/01/31 16:33:46.5	357.890	0.790	0.100	0.530
2020/01/31 16:33:46.6	357.880	0.750	0.120	0.520
2020/01/31 16:33:46.7	357.850	0.700	0.130	0.500
2020/01/31 16:33:46.8	357.840	0.650	0.130	0.480
2020/01/31 16:33:46.9	357.820	0.590	0.130	0.450
2020/01/31 16:33:47.0	357.810	0.540	0.130	0.420
2020/01/31 16:33:47.1	357.800	0.480	0.120	0.380
2020/01/31 16:33:47.2	357.790	0.420	0.100	0.330
2020/01/31 16:33:47.3	357.790	0.350	0.080	0.280
2020/01/31 16:33:47.4	357.780	0.290	0.060	0.220
2020/01/31 16:33:47.5	357.780	0.230	0.030	0.150
2020/01/31 16:33:47.6	357.780	0.160	-0.000	0.080
2020/01/31 16:33:47.7	357.780	0.100	-0.040	0.000
2020/01/31 16:33:47.8	357.790	0.040	-0.080	-0.070
2020/01/31 16:33:47.9	357.800	-0.020	-0.120	-0.150
2020/01/31 16:33:48.0	357.810	-0.080	-0.160	-0.240
2020/01/31 16:33:48.1	357.820	-0.130	-0.200	-0.320
2020/01/31 16:33:48.2	357.840	-0.180	-0.250	-0.410
2020/01/31 16:33:48.3	357.850	-0.230	-0.290	-0.490
2020/01/31 16:33:48.4	357.870	-0.270	-0.340	-0.580
2020/01/31 16:33:48.5	357.880	-0.310	-0.380	-0.660
2020/01/31 16:33:48.6	357.900	-0.350	-0.420	-0.740
2020/01/31 16:33:48.7	357.920	-0.380	-0.460	-0.830
2020/01/31 16:33:48.8	357.940	-0.410	-0.500	-0.910
2020/01/31 16:33:48.9	357.970	-0.430	-0.540	-0.980
2020/01/31 16:33:49.0	357.990	-0.450	-0.580	-1.060
2020/01/31 16:33:49.1	358.010	-0.460	-0.610	-1.130
2020/01/31 16:33:49.2	358.030	-0.480	-0.640	-1.200
2020/01/31 16:33:49.3	358.060	-0.490	-0.670	-1.270
2020/01/31 16:33:49.4	358.090	-0.490	-0.700	-1.340
2020/01/31 16:33:49.5	358.110	-0.500	-0.730	-1.410
2020/01/31 16:33:49.6	358.140	-0.500	-0.750	-1.470
2020/01/31 16:33:49.7	358.180	-0.490	-0.770	-1.540
2020/01/31 16:33:49.8	358.210	-0.490	-0.790	-1.590
2020/01/31 16:33:49.9	358.240	-0.480	-0.800	-1.650
2020/01/31 16:33:50.0	358.270	-0.480	-0.820	-1.700
2020/01/31 16:33:50.1	358.310	-0.470	-0.830	-1.740
2020/01/31 16:33:50.2	358.340	-0.460	-0.840	-1.780
2020/01/31 16:33:50.3	358.380	-0.450	-0.840	-1.820
2020/01/31 16:33:50.4	358.410	-0.440	-0.840	-1.850
2020/01/31 16:33:50.5	358.450	-0.420	-0.840	-1.880
2020/01/31 16:33:50.6	358.490	-0.410	-0.840	-1.900
2020/01/31 16:33:50.7	358.520	-0.400	-0.840	-1.910
2020/01/31 16:33:50.8	358.560	-0.390	-0.830	-1.920
2020/01/31 16:33:50.9	358.590	-0.370	-0.820	-1.930
2020/01/31 16:33:51.0	358.630	-0.360	-0.800	-1.930
2020/01/31 16:33:51.1	358.660	-0.350	-0.780	-1.920
2020/01/31 16:33:51.2	358.700	-0.340	-0.760	-1.910
2020/01/31 16:33:51.3	358.730	-0.330	-0.740	-1.900
2020/01/31 16:33:51.4	358.760	-0.310	-0.710	-1.880
2020/01/31 16:33:51.5	358.800	-0.300	-0.680	-1.860
2020/01/31 16:33:51.6	358.830	-0.300	-0.650	-1.830
2020/01/31 16:33:51.7	358.860	-0.290	-0.610	-1.800
2020/01/31 16:33:51.8	358.890	-0.280	-0.580	-1.770
2020/01/31 16:33:51.9	358.910	-0.270	-0.530	-1.730
2020/01/31 16:33:52.0	358.940	-0.260	-0.490	-1.690
2020/01/31 16:33:52.1	358.960	-0.260	-0.440	-1.640
2020/01/31 16:33:52.2	358.980	-0.250	-0.390	-1.590
2020/01/31 16:33:52.3	359.000	-0.240	-0.330	-1.530
2020/01/31 16:33:52.4	359.010	-0.230	-0.270	-1.470
2020/01/31 16:33:52.5	359.020	-0.230	-0.220	-1.410
2020/01/31 16:33:52.6	359.030	-0.220	-0.150	-1.340
2020/01/31 16:33:52.7	359.040	-0.210	-0.090	-1.270
2020/01/31 16:33:52.8	359.040	-0.200	-0.020	-1.190
2020/01/31 16:33:52.9	359.040	-0.190	0.050	-1.110
2020/01/31 16:33:53.0	359.030	-0.190	0.120	-1.020
2020/01/31 16:33:53.1	359.020	-0.180	0.190	-0.930
2020/01/31 16:33:53.2	359.010	-0.170	0.260	-0.840
2020/01/31 16:33:53.3	358.990	-0.160	0.330	-0.740
2020/01/31 16:33:53.4	358.970	-0.150	0.390	-0.640
2020/01/31 16:33:53.5	358.950	-0.140	0.460	-0.540
2020/01/31 16:33:53.6	358.920	-0.140	0.520	-0.440
2020/01/31 16:33:53.7	358.880	-0.130	0.580	-0.330
2020/01/31 16:33:53.8	358.850	-0.120	0.640	-0.230
2020/01/31 16:33:53.9	358.820	-0.110	0.690	-0.130
2020/01/31 16:33:54.0	358.790	-0.100	0.740	-0.030
2020/01/31 16:33:54.1	358.750	-0.090	0.780	0.070
2020/01/31 16:33:54.2	358.720	-0.090	0.810	0.160
2020/01/31 16:33:54.3	358.680	-0.080	0.840	0.250
2020/01/31 16:33:54.4	358.650	-0.070	0.850	0.340
2020/01/31 16:33:54.5	358.610	-0.060	0.870	0.410
2020/01/31 16:33:54.6	358.580	-0.050	0.870	0.490
2020/01/31 16:33:54.7	358.540	-0.040	0.870	0.550
2020/01/31 16:33:54.8	358.510	-0.030	0.850	0.610
2020/01/31 16:33:54.9	358.480	-0.020	0.830	0.660
2020/01/31 16:33:55.0	358.450	-0.020	0.800	0.700
2020/01/31 16:33:55.1	358.420	-0.010	0.760	0.740
2020/01/31 16:33:55.2	358.400	0.000	0.710	0.760
2020/01/31 16:33:55.3	358.380	0.010	0.660	0.780
2020/01/31 16:33:55.4	358.360	0.020	0.600	0.790
2020/01/31 16:33:55.5	358.340	0.030	0.530	0.790
2020/01/31 16:33:55.6	358.330	0.040	0.460	0.780
2020/01/31 16:33:55.7	358.310	0.050	0.380	0.770
2020/01/31 16:33:55.8	358.300	0.070	0.300	0.750
2020/01/31 16:33:55.9	358.290	0.080	0.220	0.730
2020/01/31 16:33:56.0	358.280	0.080	0.130	0.700
2020/01/31 16:33:56.1	358.270	0.090	0.040	0.670
2020/01/31 16:33:56.2	358.270	0.100	-0.040	0.630
2020/01/31 16:33:56.3	358.260	0.110	-0.130	0.590
2020/01/31 16:33:56.4	358.250	0.120	-0.210	0.540
2020/01/31 16:33:56.5	358.250	0.130	-0.290	0.500
2020/01/31 16:33:56.6	358.240	0.130	-0.370	0.450
2020/01/31 16:33:56.7	358.210	0.140	-0.440	0.390
2020/01/31 16:33:56.8	358.200	0.140	-0.510	0.340
2020/01/31 16:33:56.9	358.190	0.140	-0.570	0.290
2020/01/31 16:33:57.0	358.170	0.150	-0.630	0.230
2020/01/31 16:33:57.1	358.160	0.150	-0.690	0.180
2020/01/31 16:33:57.2	358.140	0.150	-0.740	0.120
2020/01/31 16:33:57.3	358.130	0.150	-0.780	0.060
2020/01/31 16:33:57.4	358.110	0.150	-0.830	0.010
2020/01/31 16:33:57.5	358.090	0.150	-0.860	-0.050
2020/01/31 16:33:57.6	358.080	0.150	-0.900	-0.110
2020/01/31 16:33:57.7	358.070	0.150	-0.930	-0.170
2020/01/31 16:33:57.8	358.050	0.150	-0.950	-0.220
2020/01/31 16:33:57.9	358.040	0.150	-0.970	-0.270
2020/01/31 16:33:58.0	358.030	0.150	-0.990	-0.330
2020/01/31 16:33:58.1	358.010	0.150	-1.000	-0.380
2020/01/31 16:33:58.2	358.010	0.150	-1.010	-0.430
2020/01/31 16:33:58.3	358.000	0.150	-1.020	-0.480
2020/01/31 16:33:58.4	357.990	0.150	-1.030	-0.530
2020/01/31 16:33:58.5	357.990	0.150	-1.030	-0.580
2020/01/31 16:33:58.6	357.990	0.160	-1.040	-0.630
2020/01/31 16:33:58.7	358.000	0.170	-1.050	-0.680
2020/01/31 16:33:58.8	358.000	0.170	-1.050	-0.730
2020/01/31 16:33:58.9	358.010	0.180	-1.050	-0.770
2020/01/31 16:33:59.0	358.020	0.190	-1.060	-0.820
2020/01/31 16:33:59.1	358.040	0.200	-1.060	-0.860
2020/01/31 16:33:59.2	358.060	0.210	-1.060	-0.900
2020/01/31 16:33:59.3	358.080	0.230	-1.070	-0.950
2020/01/31 16:33:59.4	358.100	0.240	-1.070	-0.990
2020/01/31 16:33:59.5	358.120	0.250	-1.080	-1.020
2020/01/31 16:33:59.6	358.150	0.270	-1.080	-1.060
2020/01/31 16:33:59.7	358.170	0.280	-1.080	-1.100
2020/01/31 16:33:59.8	358.210	0.290	-1.080	-1.140
2020/01/31 16:33:59.9	358.240	0.300	-1.080	-1.170
2020/01/31 16:34:00.0	358.280	0.310	-1.080	-1.200
2020/01/31 16:34:00.1	358.320	0.320	-1.080	-1.230
2020/01/31 16:34:00.2	358.360	0.330	-1.080	-1.260
2020/01/31 16:34:00.3	358.400	0.340	-1.070	-1.290
2020/01/31 16:34:00.4	358.450	0.340	-1.060	-1.320
2020/01/31 16:34:00.5	358.490	0.340	-1.050	-1.340
2020/01/31 16:34:00.6	358.540	0.340	-1.040	-1.370
2020/01/31 16:34:00.7	358.600	0.340	-1.020	-1.390
2020/01/31 16:34:00.8	358.650	0.340	-1.000	-1.410
2020/01/31 16:34:00.9	358.700	0.330	-0.980	-1.430
2020/01/31 16:34:01.0	358.750	0.320	-0.950	-1.440
2020/01/31 16:34:01.1	358.810	0.300	-0.920	-1.460
2020/01/31 16:34:01.2	358.860	0.290	-0.880	-1.470
2020/01/31 16:34:01.3	358.920	0.270	-0.840	-1.470
2020/01/31 16:34:01.4	358.970	0.250	-0.790	-1.470
2020/01/31 16:34:01.5	359.020	0.220	-0.740	-1.470
2020/01/31 16:34:01.6	359.070	0.200	-0.690	-1.470
2020/01/31 16:34:01.7	359.120	0.170	-0.620	-1.460
2020/01/31 16:34:01.8	359.160	0.140	-0.560	-1.440
2020/01/31 16:34:01.9	359.210	0.110	-0.490	-1.420
2020/01/31 16:34:02.0	359.240	0.070	-0.410	-1.390
2020/01/31 16:34:02.1	359.270	0.030	-0.330	-1.360
2020/01/31 16:34:02.2	359.300	-0.000	-0.250	-1.320
2020/01/31 16:34:02.3	359.320	-0.040	-0.170	-1.280
2020/01/31 16:34:02.4	359.340	-0.090	-0.080	-1.230
2020/01/31 16:34:02.5	359.350	-0.130	0.020	-1.180
2020/01/31 16:34:02.6	359.360	-0.170	0.110	-1.120
2020/01/31 16:34:02.7	359.360	-0.210	0.200	-1.060
2020/01/31 16:34:02.8	359.360	-0.260	0.290	-1.000
2020/01/31 16:34:02.9	359.350	-0.300	0.380	-0.940
2020/01/31 16:34:03.0	359.340	-0.340	0.470	-0.880
2020/01/31 16:34:03.1	359.330	-0.380	0.560	-0.810
2020/01/31 16:34:03.2	359.320	-0.420	0.640	-0.760
2020/01/31 16:34:03.3	359.300	-0.460	0.710	-0.700
2020/01/31 16:34:03.4	359.280	-0.500	0.780	-0.640
2020/01/31 16:34:03.5	359.260	-0.530	0.850	-0.580
2020/01/31 16:34:03.6	359.230	-0.560	0.900	-0.530
2020/01/31 16:34:03.7	359.210	-0.590	0.950	-0.480
2020/01/31 16:34:03.8	359.180	-0.610	0.990	-0.430
2020/01/31 16:34:03.9	359.150	-0.630	1.030	-0.380
2020/01/31 16:34:04.0	359.120	-0.640	1.050	-0.330
2020/01/31 16:34:04.1	359.080	-0.650	1.060	-0.280
2020/01/31 16:34:04.2	359.050	-0.660	1.070	-0.230
2020/01/31 16:34:04.3	359.010	-0.660	1.070	-0.190
2020/01/31 16:34:04.4	358.970	-0.660	1.060	-0.140
2020/01/31 16:34:04.5	358.930	-0.650	1.040	-0.090
2020/01/31 16:34:04.6	358.880	-0.640	1.020	-0.050
2020/01/31 16:34:04.7	358.840	-0.630	0.990	-0.010
2020/01/31 16:34:04.8	358.790	-0.610	0.950	0.040
2020/01/31 16:34:04.9	358.740	-0.580	0.910	0.080
2020/01/31 16:34:05.0	358.690	-0.550	0.860	0.120
2020/01/31 16:34:05.1	358.640	-0.520	0.810	0.160
2020/01/31 16:34:05.2	358.590	-0.490	0.760	0.200
2020/01/31 16:34:05.3	358.530	-0.450	0.700	0.240
2020/01/31 16:34:05.4	358.480	-0.410	0.640	0.270
2020/01/31 16:34:05.5	358.420	-0.360	0.580	0.300
2020/01/31 16:34:05.6	358.370	-0.320	0.520	0.340
2020/01/31 16:34:05.7	358.320	-0.270	0.460	0.370
2020/01/31 16:34:05.8	358.270	-0.220	0.390	0.390
2020/01/31 16:34:05.9	358.220	-0.170	0.320	0.420
2020/01/31 16:34:06.0	358.160	-0.120	0.260	0.440
2020/01/31 16:34:06.1	358.110	-0.060	0.190	0.460
2020/01/31 16:34:06.2	358.060	-0.010	0.120	0.480
2020/01/31 16:34:06.3	358.020	0.040	0.060	0.490
2020/01/31 16:34:06.4	357.970	0.100	-0.010	0.500
2020/01/31 16:34:06.5	357.930	0.150	-0.070	0.500
2020/01/31 16:34:06.6	357.880	0.200	-0.130	0.500
2020/01/31 16:34:06.7	357.840	0.250	-0.190	0.490
2020/01/31 16:34:06.8	357.800	0.290	-0.250	0.490
2020/01/31 16:34:06.9	357.770	0.340	-0.300	0.480
2020/01/31 16:34:07.0	357.740	0.380	-0.360	0.460
2020/01/31 16:34:07.1	357.700	0.420	-0.400	0.450
2020/01/31 16:34:07.2	357.670	0.450	-0.450	0.430
2020/01/31 16:34:07.3	357.650	0.480	-0.490	0.410
2020/01/31 16:34:07.4	357.620	0.510	-0.530	0.380
2020/01/31 16:34:07.5	357.590	0.530	-0.570	0.360
2020/01/31 16:34:07.6	357.570	0.550	-0.600	0.330
2020/01/31 16:34:07.7	357.550	0.570	-0.630	0.300
2020/01/31 16:34:07.8	357.520	0.580	-0.660	0.270
2020/01/31 16:34:07.9	357.500	0.590	-0.680	0.240
2020/01/31 16:34:08.0	357.480	0.590	-0.700	0.200
2020/01/31 16:34:08.1	357.470	0.590	-0.720	0.170
2020/01/31 16:34:08.2	357.450	0.590	-0.740	0.130
2020/01/31 16:34:08.3	357.430	0.580	-0.750	0.090
2020/01/31 16:34:08.4	357.420	0.560	-0.760	0.050
2020/01/31 16:34:08.5	357.410	0.550	-0.770	0.010
2020/01/31 16:34:08.6	357.400	0.530	-0.780	-0.030
2020/01/31 16:34:08.7	357.400	0.510	-0.790	-0.080
2020/01/31 16:34:08.8	357.390	0.480	-0.800	-0.120
2020/01/31 16:34:08.9	357.390	0.450	-0.810	-0.170
2020/01/31 16:34:09.0	357.390	0.420	-0.820	-0.220
2020/01/31 16:34:09.1	357.390	0.390	-0.820	-0.270
2020/01/31 16:34:09.2	357.400	0.360	-0.830	-0.330
2020/01/31 16:34:09.3	357.410	0.320	-0.840	-0.380
2020/01/31 16:34:09.4	357.430	0.290	-0.850	-0.440
2020/01/31 16:34:09.5	357.440	0.250	-0.860	-0.500
2020/01/31 16:34:09.6	357.460	0.220	-0.880	-0.550
2020/01/31 16:34:09.7	357.490	0.180	-0.890	-0.620
2020/01/31 16:34:09.8	357.520	0.150	-0.900	-0.680
2020/01/31 16:34:09.9	357.560	0.120	-0.920	-0.740
2020/01/31 16:34:10.0	357.590	0.090	-0.930	-0.800
2020/01/31 16:34:10.1	357.630	0.060	-0.950	-0.870
2020/01/31 16:34:10.2	357.680	0.030	-0.970	-0.930
2020/01/31 16:34:10.3	357.720	0.000	-0.980	-0.990
2020/01/31 16:34:10.4	357.770	-0.020	-1.000	-1.040
2020/01/31 16:34:10.5	357.820	-0.050	-1.010	-1.100
2020/01/31 16:34:10.6	357.870	-0.070	-1.020	-1.160
2020/01/31 16:34:10.7	357.930	-0.090	-1.030	-1.210
2020/01/31 16:34:10.8	357.980	-0.110	-1.040	-1.260
2020/01/31 16:34:10.9	358.040	-0.120	-1.050	-1.300
2020/01/31 16:34:11.0	358.090	-0.140	-1.050	-1.350
2020/01/31 16:34:11.1	358.140	-0.150	-1.050	-1.390
2020/01/31 16:34:11.2	358.200	-0.160	-1.040	-1.430
2020/01/31 16:34:11.3	358.250	-0.170	-1.030	-1.460
2020/01/31 16:34:11.4	358.300	-0.180	-1.010	-1.490
2020/01/31 16:34:11.5	358.350	-0.190	-1.000	-1.510
2020/01/31 16:34:11.6	358.400	-0.200	-0.970	-1.530
2020/01/31 16:34:11.7	358.460	-0.200	-0.940	-1.550
2020/01/31 16:34:11.8	358.500	-0.210	-0.910	-1.560
2020/01/31 16:34:11.9	358.550	-0.210	-0.870	-1.570
2020/01/31 16:34:12.0	358.590	-0.210	-0.830	-1.560
2020/01/31 16:34:12.1	358.640	-0.210	-0.780	-1.560
2020/01/31 16:34:12.2	358.680	-0.210	-0.730	-1.540
2020/01/31 16:34:12.3	358.720	-0.210	-0.670	-1.530
2020/01/31 16:34:12.4	358.760	-0.210	-0.610	-1.500
2020/01/31 16:34:12.5	358.790	-0.200	-0.550	-1.470
2020/01/31 16:34:12.6	358.830	-0.200	-0.490	-1.440
2020/01/31 16:34:12.7	358.860	-0.190	-0.420	-1.390
2020/01/31 16:34:12.8	358.890	-0.190	-0.350	-1.340
2020/01/31 16:34:12.9	358.920	-0.180	-0.280	-1.290
2020/01/31 16:34:13.0	358.940	-0.170	-0.210	-1.240
2020/01/31 16:34:13.1	358.970	-0.170	-0.140	-1.170
2020/01/31 16:34:13.2	358.990	-0.160	-0.070	-1.110
2020/01/31 16:34:13.3	359.000	-0.150	0.000	-1.040
2020/01/31 16:34:13.4	359.020	-0.140	0.070	-0.970
2020/01/31 16:34:13.5	359.030	-0.140	0.140	-0.890
2020/01/31 16:34:13.6	359.040	-0.130	0.200	-0.810
2020/01/31 16:34:13.7	359.040	-0.120	0.260	-0.730
2020/01/31 16:34:13.8	359.050	-0.120	0.310	-0.660
2020/01/31 16:34:13.9	359.050	-0.110	0.360	-0.580
2020/01/31 16:34:14.0	359.050	-0.110	0.410	-0.500
2020/01/31 16:34:14.1	359.050	-0.100	0.450	-0.420
2020/01/31 16:34:14.2	359.040	-0.100	0.490	-0.350
2020/01/31 16:34:14.3	359.040	-0.090	0.520	-0.280
2020/01/31 16:34:14.4	359.030	-0.090	0.550	-0.210
2020/01/31 16:34:14.5	359.020	-0.080	0.570	-0.150
2020/01/31 16:34:14.6	359.000	-0.080	0.580	-0.090
2020/01/31 16:34:14.7	358.990	-0.080	0.600	-0.030
2020/01/31 16:34:14.8	358.970	-0.070	0.600	0.020
2020/01/31 16:34:14.9	358.940	-0.070	0.600	0.070
2020/01/31 16:34:15.0	358.920	-0.070	0.600	0.110
2020/01/31 16:34:15.1	358.890	-0.070	0.600	0.150
2020/01/31 16:34:15.2	358.860	-0.060	0.590	0.180
2020/01/31 16:34:15.3	358.820	-0.060	0.580	0.210
2020/01/31 16:34:15.4	358.790	-0.060	0.560	0.240
2020/01/31 16:34:15.5	358.750	-0.070	0.550	0.260
2020/01/31 16:34:15.6	358.700	-0.070	0.530	0.270
2020/01/31 16:34:15.7	358.660	-0.070	0.510	0.290
2020/01/31 16:34:15.8	358.610	-0.080	0.490	0.290
2020/01/31 16:34:15.9	358.550	-0.080	0.470	0.300
2020/01/31 16:34:16.0	358.500	-0.090	0.440	0.300
2020/01/31 16:34:16.1	358.440	-0.100	0.420	0.300
2020/01/31 16:34:16.2	358.370	-0.110	0.400	0.300
2020/01/31 16:34:16.3	358.310	-0.120	0.370	0.300
2020/01/31 16:34:16.4	358.240	-0.130	0.350	0.290
2020/01/31 16:34:16.5	358.180	-0.140	0.330	0.280
2020/01/31 16:34:16.6	358.110	-0.150	0.300	0.260
2020/01/31 16:34:16.7	358.050	-0.160	0.270	0.240
2020/01/31 16:34:16.8	357.980	-0.170	0.250	0.220
2020/01/31 16:34:16.9	357.920	-0.190	0.220	0.190
2020/01/31 16:34:17.0	357.850	-0.200	0.190	0.160
2020/01/31 16:34:17.1	357.790	-0.210	0.160	0.130
2020/01/31 16:34:17.2	357.730	-0.220	0.130	0.100
2020/01/31 16:34:17.3	357.670	-0.230	0.100	0.060
2020/01/31 16:34:17.4	357.620	-0.240	0.070	0.020
2020/01/31 16:34:17.5	357.570	-0.250	0.030	-0.020
2020/01/31 16:34:17.6	357.520	-0.250	-0.010	-0.070
2020/01/31 16:34:17.7	357.480	-0.250	-0.050	-0.130
2020/01/31 16:34:17.8	357.440	-0.250	-0.090	-0.180
2020/01/31 16:34:17.9	357.410	-0.250	-0.140	-0.230
2020/01/31 16:34:18.0	357.380	-0.250	-0.190	-0.290
2020/01/31 16:34:18.1	357.350	-0.240	-0.240	-0.350
2020/01/31 16:34:18.2	357.340	-0.230	-0.290	-0.410
2020/01/31 16:34:18.3	357.320	-0.210	-0.350	-0.470
2020/01/31 16:34:18.4	357.320	-0.200	-0.410	-0.530
2020/01/31 16:34:18.5	357.310	-0.180	-0.470	-0.590
2020/01/31 16:34:18.6	357.310	-0.150	-0.530	-0.650
2020/01/31 16:34:18.7	357.320	-0.130	-0.590	-0.720
2020/01/31 16:34:18.8	357.330	-0.100	-0.650	-0.770
2020/01/31 16:34:18.9	357.340	-0.070	-0.710	-0.830
2020/01/31 16:34:19.0	357.360	-0.030	-0.760	-0.880
2020/01/31 16:34:19.1	357.370	0.000	-0.820	-0.930
2020/01/31 16:34:19.2	357.390	0.040	-0.870	-0.970
2020/01/31 16:34:19.3	357.410	0.080	-0.920	-1.010
2020/01/31 16:34:19.4	357.440	0.120	-0.960	-1.050
2020/01/31 16:34:19.5	357.460	0.170	-1.000	-1.080
2020/01/31 16:34:19.6	357.490	0.210	-1.030	-1.110
2020/01/31 16:34:19.7	357.520	0.250	-1.070	-1.140
2020/01/31 16:34:19.8	357.550	0.300	-1.090	-1.160
2020/01/31 16:34:19.9	357.580	0.340	-1.100	-1.170
2020/01/31 16:34:20.0	357.610	0.390	-1.110	-1.180
2020/01/31 16:34:20.1	357.640	0.430	-1.110	-1.180
2020/01/31 16:34:20.2	357.670	0.470	-1.100	-1.180
2020/01/31 16:34:20.3	357.700	0.510	-1.090	-1.170
2020/01/31 16:34:20.4	357.730	0.550	-1.070	-1.160
2020/01/31 16:34:20.5	357.760	0.580	-1.040	-1.140
2020/01/31 16:34:20.6	357.790	0.610	-1.010	-1.110
2020/01/31 16:34:20.7	357.830	0.640	-0.970	-1.080
2020/01/31 16:34:20.8	357.850	0.670	-0.930	-1.050
2020/01/31 16:34:20.9	357.880	0.700	-0.880	-1.010
2020/01/31 16:34:21.0	357.900	0.720	-0.830	-0.960
2020/01/31 16:34:21.1	357.920	0.730	-0.780	-0.910
2020/01/31 16:34:21.2	357.950	0.750	-0.730	-0.860
2020/01/31 16:34:21.3	357.970	0.760	-0.670	-0.810
2020/01/31 16:34:21.4	357.990	0.760	-0.610	-0.760
2020/01/31 16:34:21.5	358.000	0.770	-0.560	-0.700
2020/01/31 16:34:21.6	358.020	0.760	-0.500	-0.640
2020/01/31 16:34:21.7	358.040	0.760	-0.450	-0.580
2020/01/31 16:34:21.8	358.060	0.750	-0.400	-0.520
2020/01/31 16:34:21.9	358.080	0.730	-0.350	-0.470
2020/01/31 16:34:22.0	358.090	0.710	-0.300	-0.410
2020/01/31 16:34:22.1	358.110	0.690	-0.250	-0.360
2020/01/31 16:34:22.2	358.130	0.670	-0.210	-0.310
2020/01/31 16:34:22.3	358.140	0.630	-0.170	-0.270
2020/01/31 16:34:22.4	358.160	0.600	-0.130	-0.230
2020/01/31 16:34:22.5	358.180	0.560	-0.100	-0.200
2020/01/31 16:34:22.6	358.200	0.520	-0.070	-0.170
2020/01/31 16:34:22.7	358.210	0.480	-0.050	-0.140
2020/01/31 16:34:22.8	358.230	0.430	-0.020	-0.120
2020/01/31 16:34:22.9	358.250	0.380	-0.000	-0.110
2020/01/31 16:34:23.0	358.270	0.330	0.010	-0.100
2020/01/31 16:34:23.1	358.280	0.280	0.030	-0.090
2020/01/31 16:34:23.2	358.300	0.220	0.040	-0.090
2020/01/31 16:34:23.3	358.320	0.170	0.050	-0.090
2020/01/31 16:34:23.4	358.330	0.110	0.050	-0.100
2020/01/31 16:34:23.5	358.340	0.050	0.060	-0.100
2020/01/31 16:34:23.6	358.360	-0.010	0.060	-0.110
2020/01/31 16:34:23.7	358.370	-0.070	0.060	-0.130
2020/01/31 16:34:23.8	358.380	-0.130	0.070	-0.140
2020/01/31 16:34:23.9	358.390	-0.200	0.070	-0.160
2020/01/31 16:34:24.0	358.390	-0.260	0.070	-0.170
2020/01/31 16:34:24.1	358.400	-0.320	0.070	-0.190
2020/01/31 16:34:24.2	358.400	-0.380	0.080	-0.210
2020/01/31 16:34:24.3	358.400	-0.440	0.080	-0.230
2020/01/31 16:34:24.4	358.400	-0.500	0.080	-0.260
2020/01/31 16:34:24.5	358.400	-0.550	0.080	-0.280
2020/01/31 16:34:24.6	358.400	-0.610	0.090	-0.300
2020/01/31 16:34:24.7	358.390	-0.660	0.090	-0.330
2020/01/31 16:34:24.8	358.390	-0.710	0.100	-0.360
2020/01/31 16:34:24.9	358.380	-0.750	0.100	-0.380
2020/01/31 16:34:25.0	358.380	-0.800	0.100	-0.410
2020/01/31 16:34:25.1	358.370	-0.840	0.110	-0.430
2020/01/31 16:34:25.2	358.370	-0.870	0.110	-0.460
2020/01/31 16:34:25.3	358.360	-0.900	0.110	-0.480
2020/01/31 16:34:25.4	358.360	-0.930	0.110	-0.510
2020/01/31 16:34:25.5	358.350	-0.950	0.110	-0.530
2020/01/31 16:34:25.6	358.340	-0.970	0.110	-0.550
2020/01/31 16:34:25.7	358.330	-0.980	0.110	-0.570
2020/01/31 16:34:25.8	358.320	-0.980	0.100	-0.590
2020/01/31 16:34:25.9	358.310	-0.990	0.090	-0.610
2020/01/31 16:34:26.0	358.300	-0.980	0.080	-0.630
2020/01/31 16:34:26.1	358.300	-0.970	0.060	-0.650
2020/01/31 16:34:26.2	358.290	-0.960	0.040	-0.670
2020/01/31 16:34:26.3	358.280	-0.940	0.020	-0.680
2020/01/31 16:34:26.4	358.280	-0.920	-0.000	-0.700
2020/01/31 16:34:26.5	358.280	-0.890	-0.030	-0.720
2020/01/31 16:34:26.6	358.270	-0.850	-0.060	-0.740
2020/01/31 16:34:26.7	358.270	-0.820	-0.090	-0.760
2020/01/31 16:34:26.8	358.270	-0.770	-0.120	-0.770
2020/01/31 16:34:26.9	358.270	-0.730	-0.160	-0.790
2020/01/31 16:34:27.0	358.270	-0.680	-0.200	-0.800
2020/01/31 16:34:27.1	358.280	-0.620	-0.240	-0.810
2020/01/31 16:34:27.2	358.280	-0.560	-0.280	-0.820
2020/01/31 16:34:27.3	358.290	-0.500	-0.320	-0.830
2020/01/31 16:34:27.4	358.300	-0.440	-0.370	-0.830
2020/01/31 16:34:27.5	358.300	-0.380	-0.410	-0.830
2020/01/31 16:34:27.6	358.310	-0.310	-0.450	-0.830
2020/01/31 16:34:27.7	358.330	-0.240	-0.480	-0.820
2020/01/31 16:34:27.8	358.340	-0.180	-0.520	-0.810
2020/01/31 16:34:27.9	358.340	-0.110	-0.550	-0.800
2020/01/31 16:34:28.0	358.350	-0.040	-0.580	-0.780
2020/01/31 16:34:28.1	358.360	0.030	-0.610	-0.760
2020/01/31 16:34:28.2	358.370	0.090	-0.630	-0.730
2020/01/31 16:34:28.3	358.370	0.160	-0.650	-0.700
2020/01/31 16:34:28.4	358.380	0.220	-0.660	-0.660
2020/01/31 16:34:28.5	358.380	0.280	-0.670	-0.620
2020/01/31 16:34:28.6	358.380	0.330	-0.680	-0.580
2020/01/31 16:34:28.7	358.380	0.380	-0.670	-0.530
2020/01/31 16:34:28.8	358.370	0.430	-0.670	-0.490
2020/01/31 16:34:28.9	358.370	0.470	-0.650	-0.440
2020/01/31 16:34:29.0	358.360	0.510	-0.640	-0.390
2020/01/31 16:34:29.1	358.350	0.540	-0.620	-0.340
2020/01/31 16:34:29.2	358.330	0.570	-0.590	-0.290
2020/01/31 16:34:29.3	358.320	0.600	-0.560	-0.240
2020/01/31 16:34:29.4	358.300	0.610	-0.530	-0.190
2020/01/31 16:34:29.5	358.280	0.630	-0.490	-0.140
2020/01/31 16:34:29.6	358.260	0.640	-0.460	-0.090
2020/01/31 16:34:29.7	358.230	0.640	-0.420	-0.050
2020/01/31 16:34:29.8	358.210	0.640	-0.370	-0.010
2020/01/31 16:34:29.9	358.190	0.630	-0.330	0.040
2020/01/31 16:34:30.0	358.160	0.630	-0.290	0.070
2020/01/31 16:34:30.1	358.140	0.610	-0.250	0.110
2020/01/31 16:34:30.2	358.120	0.600	-0.210	0.150
2020/01/31 16:34:30.3	358.090	0.580	-0.170	0.180
2020/01/31 16:34:30.4	358.070	0.550	-0.130	0.210
2020/01/31 16:34:30.5	358.050	0.530	-0.090	0.230
2020/01/31 16:34:30.6	358.020	0.500	-0.060	0.260
2020/01/31 16:34:30.7	358.000	0.470	-0.020	0.280
2020/01/31 16:34:30.8	357.980	0.440	0.010	0.290
2020/01/31 16:34:30.9	357.960	0.410	0.030	0.310
2020/01/31 16:34:31.0	357.950	0.380	0.050	0.310
2020/01/31 16:34:31.1	357.930	0.350	0.060	0.320
2020/01/31 16:34:31.2	357.920	0.320	0.070	0.320
2020/01/31 16:34:31.3	357.910	0.280	0.080	0.310
2020/01/31 16:34:31.4	357.900	0.250	0.080	0.310
2020/01/31 16:34:31.5	357.890	0.230	0.080	0.300
2020/01/31 16:34:31.6	357.880	0.200	0.070	0.280
2020/01/31 16:34:31.7	357.880	0.170	0.050	0.260
2020/01/31 16:34:31.8	357.880	0.150	0.040	0.240
2020/01/31 16:34:31.9	357.880	0.130	0.020	0.220
2020/01/31 16:34:32.0	357.880	0.110	-0.010	0.200
2020/01/31 16:34:32.1	357.890	0.100	-0.030	0.170
2020/01/31 16:34:32.2	357.890	0.080	-0.060	0.150
2020/01/31 16:34:32.3	357.900	0.070	-0.100	0.120
2020/01/31 16:34:32.4	357.910	0.060	-0.130	0.100
2020/01/31 16:34:32.5	357.920	0.060	-0.160	0.070
2020/01/31 16:34:32.6	357.930	0.050	-0.200	0.040
2020/01/31 16:34:32.7	357.940	0.050	-0.230	0.010
2020/01/31 16:34:32.8	357.950	0.050	-0.260	-0.020
2020/01/31 16:34:32.9	357.970	0.060	-0.300	-0.040
2020/01/31 16:34:33.0	357.980	0.060	-0.330	-0.070
2020/01/31 16:34:33.1	358.000	0.070	-0.370	-0.100
2020/01/31 16:34:33.2	358.020	0.070	-0.400	-0.130
2020/01/31 16:34:33.3	358.030	0.080	-0.430	-0.170
2020/01/31 16:34:33.4	358.050	0.090	-0.450	-0.200
2020/01/31 16:34:33.5	358.080	0.100	-0.480	-0.230
2020/01/31 16:34:33.6	358.100	0.110	-0.500	-0.260
2020/01/31 16:34:33.7	358.130	0.120	-0.520	-0.290
2020/01/31 16:34:33.8	358.160	0.130	-0.530	-0.330
2020/01/31 16:34:33.9	358.180	0.140	-0.550	-0.360
2020/01/31 16:34:34.0	358.210	0.150	-0.550	-0.390
2020/01/31 16:34:34.1	358.240	0.160	-0.560	-0.420
2020/01/31 16:34:34.2	358.270	0.160	-0.560	-0.450
2020/01/31 16:34:34.3	358.310	0.170	-0.560	-0.480
2020/01/31 16:34:34.4	358.340	0.170	-0.560	-0.500
2020/01/31 16:34:34.5	358.380	0.170	-0.550	-0.530
2020/01/31 16:34:34.6	358.410	0.170	-0.540	-0.560
2020/01/31 16:34:34.7	358.440	0.170	-0.520	-0.580
2020/01/31 16:34:34.8	358.480	0.170	-0.510	-0.600
2020/01/31 16:34:34.9	358.510	0.160	-0.490	-0.620
2020/01/31 16:34:35.0	358.550	0.150	-0.470	-0.640
2020/01/31 16:34:35.1	358.580	0.140	-0.440	-0.650
2020/01/31 16:34:35.2	358.610	0.120	-0.420	-0.660
2020/01/31 16:34:35.3	358.640	0.100	-0.390	-0.670
2020/01/31 16:34:35.4	358.670	0.090	-0.360	-0.670
2020/01/31 16:34:35.5	358.700	0.060	-0.330	-0.670
2020/01/31 16:34:35.6	358.720	0.040	-0.300	-0.670
2020/01/31 16:34:35.7	358.740	0.010	-0.270	-0.670
2020/01/31 16:34:35.8	358.760	-0.020	-0.240	-0.670
2020/01/31 16:34:35.9	358.780	-0.050	-0.210	-0.660
2020/01/31 16:34:36.0	358.790	-0.080	-0.180	-0.650
2020/01/31 16:34:36.1	358.800	-0.110	-0.150	-0.640
2020/01/31 16:34:36.2	358.810	-0.140	-0.120	-0.630
2020/01/31 16:34:36.3	358.820	-0.180	-0.090	-0.620
2020/01/31 16:34:36.4	358.820	-0.210	-0.070	-0.600
2020/01/31 16:34:36.5	358.820	-0.250	-0.050	-0.590
2020/01/31 16:34:36.6	358.820	-0.280	-0.030	-0.580
2020/01/31 16:34:36.7	358.810	-0.310	-0.010	-0.560
2020/01/31 16:34:36.8	358.800	-0.350	0.000	-0.550
2020/01/31 16:34:36.9	358.800	-0.380	0.020	-0.530
2020/01/31 16:34:37.0	358.780	-0.410	0.020	-0.520
2020/01/31 16:34:37.1	358.770	-0.430	0.030	-0.500
2020/01/31 16:34:37.2	358.760	-0.460	0.040	-0.490
2020/01/31 16:34:37.3	358.740	-0.480	0.040	-0.470
2020/01/31 16:34:37.4	358.720	-0.500	0.040	-0.460
2020/01/31 16:34:37.5	358.710	-0.520	0.030	-0.440
2020/01/31 16:34:37.6	358.690	-0.530	0.030	-0.430
2020/01/31 16:34:37.7	358.670	-0.540	0.020	-0.420
2020/01/31 16:34:37.8	358.640	-0.540	0.010	-0.400
2020/01/31 16:34:37.9	358.620	-0.550	0.000	-0.390
2020/01/31 16:34:38.0	358.600	-0.550	-0.010	-0.380
2020/01/31 16:34:38.1	358.580	-0.540	-0.020	-0.370
2020/01/31 16:34:38.2	358.550	-0.530	-0.040	-0.360
2020/01/31 16:34:38.3	358.530	-0.520	-0.060	-0.350
2020/01/31 16:34:38.4	358.510	-0.500	-0.070	-0.340
2020/01/31 16:34:38.5	358.490	-0.490	-0.090	-0.330
2020/01/31 16:34:38.6	358.480	-0.460	-0.110	-0.330
2020/01/31 16:34:38.7	358.460	-0.440	-0.130	-0.330
2020/01/31 16:34:38.8	358.440	-0.410	-0.150	-0.330
2020/01/31 16:34:38.9	358.430	-0.380	-0.170	-0.320
2020/01/31 16:34:39.0	358.420	-0.340	-0.190	-0.320
2020/01/31 16:34:39.1	358.410	-0.310	-0.210	-0.320
2020/01/31 16:34:39.2	358.400	-0.270	-0.230	-0.320
2020/01/31 16:34:39.3	358.390	-0.230	-0.250	-0.320
2020/01/31 16:34:39.4	358.390	-0.190	-0.270	-0.320
2020/01/31 16:34:39.5	358.380	-0.150	-0.280	-0.310
2020/01/31 16:34:39.6	358.380	-0.110	-0.300	-0.310
2020/01/31 16:34:39.7	358.380	-0.060	-0.310	-0.300
2020/01/31 16:34:39.8	358.380	-0.020	-0.320	-0.300
2020/01/31 16:34:39.9	358.370	0.020	-0.330	-0.290
2020/01/31 16:34:40.0	358.360	0.060	-0.340	-0.280
2020/01/31 16:34:40.1	358.350	0.100	-0.340	-0.260
2020/01/31 16:34:40.2	358.350	0.140	-0.340	-0.250
2020/01/31 16:34:40.3	358.340	0.170	-0.340	-0.230
2020/01/31 16:34:40.4	358.320	0.210	-0.340	-0.210
2020/01/31 16:34:40.5	358.310	0.230	-0.340	-0.200
2020/01/31 16:34:40.6	358.300	0.260	-0.330	-0.180
2020/01/31 16:34:40.7	358.280	0.280	-0.320	-0.160
2020/01/31 16:34:40.8	358.270	0.300	-0.310	-0.140
2020/01/31 16:34:40.9	358.250	0.320	-0.290	-0.120
2020/01/31 16:34:41.0	358.230	0.330	-0.280	-0.100
2020/01/31 16:34:41.1	358.210	0.340	-0.270	-0.080
2020/01/31 16:34:41.2	358.190	0.340	-0.250	-0.060
2020/01/31 16:34:41.3	358.160	0.340	-0.230	-0.050
2020/01/31 16:34:41.4	358.140	0.340	-0.220	-0.030
2020/01/31 16:34:41.5	358.120	0.330	-0.200	-0.020
2020/01/31 16:34:41.6	358.100	0.330	-0.180	-0.000
2020/01/31 16:34:41.7	358.070	0.310	-0.170	0.010
2020/01/31 16:34:41.8	358.050	0.300	-0.160	0.020
2020/01/31 16:34:41.9	358.040	0.290	-0.140	0.030
2020/01/31 16:34:42.0	358.020	0.270	-0.130	0.030
2020/01/31 16:34:42.1	358.000	0.250	-0.120	0.040
2020/01/31 16:34:42.2	357.990	0.230	-0.120	0.040
2020/01/31 16:34:42.3	357.970	0.210	-0.110	0.040
2020/01/31 16:34:42.4	357.960	0.190	-0.110	0.040
2020/01/31 16:34:42.5	357.960	0.170	-0.110	0.040
2020/01/31 16:34:42.6	357.950	0.150	-0.120	0.030
2020/01/31 16:34:42.7	357.950	0.130	-0.120	0.020
2020/01/31 16:34:42.8	357.950	0.110	-0.130	0.000
2020/01/31 16:34:42.9	357.950	0.090	-0.140	-0.010
2020/01/31 16:34:43.0	357.960	0.080	-0.160	-0.030
2020/01/31 16:34:43.1	357.960	0.060	-0.180	-0.050
2020/01/31 16:34:43.2	357.970	0.050	-0.200	-0.070
2020/01/31 16:34:43.3	357.980	0.040	-0.220	-0.100
2020/01/31 16:34:43.4	358.000	0.040	-0.250	-0.120
2020/01/31 16:34:43.5	358.010	0.030	-0.280	-0.150
2020/01/31 16:34:43.6	358.030	0.030	-0.310	-0.180
2020/01/31 16:34:43.7	358.040	0.030	-0.330	-0.210
2020/01/31 16:34:43.8	358.060	0.030	-0.370	-0.250
2020/01/31 16:34:43.9	358.080	0.030	-0.400	-0.280
2020/01/31 16:34:44.0	358.100	0.040	-0.440	-0.310
2020/01/31 16:34:44.1	358.120	0.050	-0.470	-0.340
2020/01/31 16:34:44.2	358.140	0.050	-0.510	-0.370
2020/01/31 16:34:44.3	358.170	0.060	-0.540	-0.400
2020/01/31 16:34:44.4	358.190	0.080	-0.570	-0.430
2020/01/31 16:34:44.5	358.200	0.090	-0.600	-0.460
2020/01/31 16:34:44.6	358.220	0.100	-0.630	-0.480
2020/01/31 16:34:44.7	358.240	0.110	-0.660	-0.510
2020/01/31 16:34:44.8	358.250	0.120	-0.680	-0.530
2020/01/31 16:34:44.9	358.270	0.140	-0.700	-0.550
2020/01/31 16:34:45.0	358.280	0.150	-0.710	-0.560
2020/01/31 16:34:45.1	358.290	0.160	-0.720	-0.580
2020/01/31 16:34:45.2	358.300	0.170	-0.730	-0.590
2020/01/31 16:34:45.3	358.310	0.180	-0.730	-0.600
2020/01/31 16:34:45.4	358.320	0.190	-0.730	-0.610
2020/01/31 16:34:45.5	358.330	0.190	-0.720	-0.620
2020/01/31 16:34:45.6	358.330	0.200	-0.710	-0.630
2020/01/31 16:34:45.7	358.340	0.200	-0.690	-0.640
2020/01/31 16:34:45.8	358.340	0.200	-0.680	-0.640
2020/01/31 16:34:45.9	358.340	0.200	-0.650	-0.650
2020/01/31 16:34:46.0	358.340	0.190	-0.620	-0.650
2020/01/31 16:34:46.1	358.340	0.190	-0.590	-0.650
2020/01/31 16:34:46.2	358.340	0.180	-0.560	-0.650
2020/01/31 16:34:46.3	358.340	0.170	-0.520	-0.640
2020/01/31 16:34:46.4	358.340	0.160	-0.480	-0.640
2020/01/31 16:34:46.5	358.330	0.150	-0.440	-0.630
2020/01/31 16:34:46.6	358.330	0.140	-0.400	-0.620
2020/01/31 16:34:46.7	358.330	0.120	-0.360	-0.610
2020/01/31 16:34:46.8	358.320	0.110	-0.320	-0.590
2020/01/31 16:34:46.9	358.310	0.090	-0.270	-0.570
2020/01/31 16:34:47.0	358.310	0.070	-0.230	-0.560
2020/01/31 16:34:47.1	358.300	0.050	-0.190	-0.540
2020/01/31 16:34:47.2	358.300	0.040	-0.150	-0.510
2020/01/31 16:34:47.3	358.290	0.020	-0.110	-0.490
2020/01/31 16:34:47.4	358.290	-0.000	-0.070	-0.470
2020/01/31 16:34:47.5	358.280	-0.020	-0.030	-0.450
2020/01/31 16:34:47.6	358.280	-0.040	0.000	-0.420
2020/01/31 16:34:47.7	358.270	-0.060	0.040	-0.400
2020/01/31 16:34:47.8	358.260	-0.070	0.070	-0.380
2020/01/31 16:34:47.9	358.260	-0.090	0.090	-0.360
2020/01/31 16:34:48.0	358.250	-0.100	0.110	-0.340
2020/01/31 16:34:48.1	358.240	-0.120	0.130	-0.320
2020/01/31 16:34:48.2	358.240	-0.130	0.150	-0.300
2020/01/31 16:34:48.3	358.230	-0.140	0.160	-0.280
2020/01/31 16:34:48.4	358.230	-0.150	0.170	-0.270
2020/01/31 16:34:48.5	358.230	-0.160	0.180	-0.250
2020/01/31 16:34:48.6	358.220	-0.170	0.180	-0.240
2020/01/31 16:34:48.7	358.210	-0.170	0.180	-0.230
2020/01/31 16:34:48.8	358.210	-0.180	0.180	-0.210
2020/01/31 16:34:48.9	358.200	-0.180	0.170	-0.200
2020/01/31 16:34:49.0	358.200	-0.180	0.160	-0.190
2020/01/31 16:34:49.1	358.200	-0.180	0.150	-0.180
2020/01/31 16:34:49.2	358.190	-0.180	0.140	-0.180
2020/01/31 16:34:49.3	358.190	-0.170	0.120	-0.170
2020/01/31 16:34:49.4	358.180	-0.170	0.110	-0.160
2020/01/31 16:34:49.5	358.180	-0.170	0.090	-0.150
2020/01/31 16:34:49.6	358.170	-0.160	0.070	-0.150
2020/01/31 16:34:49.7	358.160	-0.150	0.050	-0.140
2020/01/31 16:34:49.8	358.160	-0.150	0.030	-0.130
2020/01/31 16:34:49.9	358.150	-0.140	0.020	-0.130
2020/01/31 16:34:50.0	358.140	-0.140	-0.000	-0.120
2020/01/31 16:34:50.1	358.140	-0.130	-0.020	-0.120
2020/01/31 16:34:50.2	358.130	-0.130	-0.030	-0.110
2020/01/31 16:34:50.3	358.120	-0.120	-0.040	-0.110
2020/01/31 16:34:50.4	358.110	-0.120	-0.050	-0.100
2020/01/31 16:34:50.5	358.100	-0.110	-0.060	-0.100
2020/01/31 16:34:50.6	358.100	-0.110	-0.070	-0.100
2020/01/31 16:34:50.7	358.090	-0.110	-0.070	-0.100
2020/01/31 16:34:50.8	358.080	-0.110	-0.070	-0.090
2020/01/31 16:34:50.9	358.080	-0.110	-0.070	-0.090
2020/01/31 16:34:51.0	358.070	-0.120	-0.070	-0.090
2020/01/31 16:34:51.1	358.060	-0.120	-0.060	-0.090
2020/01/31 16:34:51.2	358.060	-0.120	-0.060	-0.080
2020/01/31 16:34:51.3	358.050	-0.130	-0.050	-0.080
2020/01/31 16:34:51.4	358.040	-0.130	-0.050	-0.080
2020/01/31 16:34:51.5	358.040	-0.140	-0.040	-0.070
2020/01/31 16:34:51.6	358.040	-0.150	-0.040	-0.070
2020/01/31 16:34:51.7	358.030	-0.150	-0.040	-0.060
2020/01/31 16:34:51.8	358.030	-0.160	-0.040	-0.060
2020/01/31 16:34:51.9	358.030	-0.170	-0.040	-0.050
2020/01/31 16:34:52.0	358.030	-0.170	-0.040	-0.050
2020/01/31 16:34:52.1	358.030	-0.180	-0.040	-0.040
2020/01/31 16:34:52.2	358.030	-0.180	-0.040	-0.040
2020/01/31 16:34:52.3	358.030	-0.190	-0.050	-0.030
2020/01/31 16:34:52.4	358.040	-0.190	-0.060	-0.030
2020/01/31 16:34:52.5	358.040	-0.200	-0.080	-0.030
2020/01/31 16:34:52.6	358.050	-0.200	-0.090	-0.020
2020/01/31 16:34:52.7	358.060	-0.200	-0.110	-0.020
2020/01/31 16:34:52.8	358.070	-0.190	-0.130	-0.020
2020/01/31 16:34:52.9	358.080	-0.190	-0.150	-0.030
2020/01/31 16:34:53.0	358.090	-0.180	-0.170	-0.030
2020/01/31 16:34:53.1	358.100	-0.180	-0.190	-0.030
2020/01/31 16:34:53.2	358.100	-0.170	-0.220	-0.030
2020/01/31 16:34:53.3	358.110	-0.160	-0.250	-0.030
2020/01/31 16:34:53.4	358.120	-0.140	-0.270	-0.040
2020/01/31 16:34:53.5	358.130	-0.120	-0.300	-0.040
2020/01/31 16:34:53.6	358.130	-0.110	-0.320	-0.040
2020/01/31 16:34:53.7	358.140	-0.090	-0.350	-0.040
2020/01/31 16:34:53.8	358.140	-0.060	-0.370	-0.040
2020/01/31 16:34:53.9	358.140	-0.040	-0.390	-0.030
2020/01/31 16:34:54.0	358.140	-0.020	-0.420	-0.030
2020/01/31 16:34:54.1	358.130	0.010	-0.440	-0.020
2020/01/31 16:34:54.2	358.120	0.030	-0.460	-0.010
2020/01/31 16:34:54.3	358.110	0.060	-0.480	-0.010
2020/01/31 16:34:54.4	358.100	0.090	-0.490	0.000
2020/01/31 16:34:54.5	358.090	0.110	-0.510	0.010
2020/01/31 16:34:54.6	358.070	0.140	-0.530	0.020
2020/01/31 16:34:54.7	358.040	0.160	-0.540	0.030
2020/01/31 16:34:54.8	358.020	0.180	-0.560	0.030
2020/01/31 16:34:54.9	358.000	0.200	-0.570	0.030
2020/01/31 16:34:55.0	357.980	0.220	-0.590	0.030
2020/01/31 16:34:55.1	357.960	0.240	-0.600	0.030
2020/01/31 16:34:55.2	357.940	0.250	-0.610	0.020
2020/01/31 16:34:55.3	357.920	0.270	-0.630	0.010
2020/01/31 16:34:55.4	357.900	0.280	-0.640	0.000
2020/01/31 16:34:55.5	357.890	0.290	-0.650	-0.010
2020/01/31 16:34:55.6	357.880	0.300	-0.670	-0.030
2020/01/31 16:34:55.7	357.870	0.300	-0.680	-0.060
2020/01/31 16:34:55.8	357.860	0.310	-0.690	-0.090
2020/01/31 16:34:55.9	357.860	0.310	-0.700	-0.120
2020/01/31 16:34:56.0	357.860	0.310	-0.720	-0.150
2020/01/31 16:34:56.1	357.860	0.310	-0.730	-0.190
2020/01/31 16:34:56.2	357.870	0.310	-0.750	-0.230
2020/01/31 16:34:56.3	357.880	0.310	-0.760	-0.280
2020/01/31 16:34:56.4	357.900	0.310	-0.780	-0.320
2020/01/31 16:34:56.5	357.910	0.300	-0.790	-0.370
2020/01/31 16:34:56.6	357.940	0.300	-0.810	-0.420
2020/01/31 16:34:56.7	357.960	0.300	-0.820	-0.470
2020/01/31 16:34:56.8	357.990	0.300	-0.830	-0.520
2020/01/31 16:34:56.9	358.020	0.300	-0.840	-0.570
2020/01/31 16:34:57.0	358.050	0.300	-0.840	-0.610
2020/01/31 16:34:57.1	358.080	0.300	-0.850	-0.660
2020/01/31 16:34:57.2	358.110	0.300	-0.850	-0.700
2020/01/31 16:34:57.3	358.140	0.300	-0.840	-0.740
2020/01/31 16:34:57.4	358.170	0.300	-0.840	-0.770
2020/01/31 16:34:57.5	358.200	0.300	-0.820	-0.800
2020/01/31 16:34:57.6	358.230	0.310	-0.810	-0.830
2020/01/31 16:34:57.7	358.260	0.310	-0.790	-0.860
2020/01/31 16:34:57.8	358.290	0.310	-0.760	-0.880
2020/01/31 16:34:57.9	358.310	0.320	-0.730	-0.890
2020/01/31 16:34:58.0	358.330	0.320	-0.700	-0.900
2020/01/31 16:34:58.1	358.350	0.330	-0.660	-0.900
2020/01/31 16:34:58.2	358.370	0.330	-0.610	-0.900
2020/01/31 16:34:58.3	358.380	0.330	-0.560	-0.890
2020/01/31 16:34:58.4	358.390	0.330	-0.510	-0.870
2020/01/31 16:34:58.5	358.400	0.340	-0.460	-0.860
2020/01/31 16:34:58.6	358.410	0.340	-0.400	-0.830
2020/01/31 16:34:58.7	358.420	0.330	-0.330	-0.810
2020/01/31 16:34:58.8	358.430	0.330	-0.270	-0.780
2020/01/31 16:34:58.9	358.440	0.320	-0.210	-0.750
2020/01/31 16:34:59.0	358.440	0.320	-0.140	-0.710
2020/01/31 16:34:59.1	358.440	0.310	-0.080	-0.680
2020/01/31 16:34:59.2	358.450	0.290	-0.020	-0.640
2020/01/31 16:34:59.3	358.450	0.280	0.040	-0.610
2020/01/31 16:34:59.4	358.450	0.260	0.100	-0.570
2020/01/31 16:34:59.5	358.460	0.240	0.160	-0.530
2020/01/31 16:34:59.6	358.460	0.220	0.220	-0.500
2020/01/31 16:34:59.7	358.460	0.190	0.260	-0.460
2020/01/31 16:34:59.8	358.470	0.160	0.310	-0.420
2020/01/31 16:34:59.9	358.470	0.130	0.350	-0.390
2020/01/31 16:35:00.0	358.480	0.100	0.390	-0.360
2020/01/31 16:35:00.1	358.480	0.060	0.430	-0.330
2020/01/31 16:35:00.2	358.490	0.030	0.460	-0.310
2020/01/31 16:35:00.3	358.500	-0.010	0.480	-0.290
2020/01/31 16:35:00.4	358.500	-0.050	0.500	-0.270
2020/01/31 16:35:00.5	358.510	-0.090	0.520	-0.250
2020/01/31 16:35:00.6	358.530	-0.130	0.530	-0.240
2020/01/31 16:35:00.7	358.530	-0.170	0.530	-0.230
2020/01/31 16:35:00.8	358.540	-0.220	0.530	-0.220
2020/01/31 16:35:00.9	358.560	-0.260	0.520	-0.220
2020/01/31 16:35:01.0	358.570	-0.300	0.510	-0.210
2020/01/31 16:35:01.1	358.580	-0.340	0.500	-0.210
2020/01/31 16:35:01.2	358.590	-0.380	0.480	-0.210
2020/01/31 16:35:01.3	358.600	-0.420	0.460	-0.220
2020/01/31 16:35:01.4	358.610	-0.460	0.430	-0.220
2020/01/31 16:35:01.5	358.620	-0.500	0.400	-0.230
2020/01/31 16:35:01.6	358.630	-0.530	0.370	-0.230
2020/01/31 16:35:01.7	358.640	-0.560	0.340	-0.240
2020/01/31 16:35:01.8	358.640	-0.600	0.310	-0.250
2020/01/31 16:35:01.9	358.650	-0.620	0.270	-0.260
2020/01/31 16:35:02.0	358.650	-0.650	0.230	-0.270
2020/01/31 16:35:02.1	358.650	-0.670	0.200	-0.280
2020/01/31 16:35:02.2	358.650	-0.700	0.160	-0.290
2020/01/31 16:35:02.3	358.640	-0.710	0.130	-0.300
2020/01/31 16:35:02.4	358.640	-0.730	0.090	-0.310
2020/01/31 16:35:02.5	358.630	-0.740	0.060	-0.330
2020/01/31 16:35:02.6	358.620	-0.750	0.030	-0.340
2020/01/31 16:35:02.7	358.610	-0.750	-0.010	-0.360
2020/01/31 16:35:02.8	358.610	-0.760	-0.040	-0.370
2020/01/31 16:35:02.9	358.600	-0.750	-0.070	-0.380
2020/01/31 16:35:03.0	358.580	-0.750	-0.090	-0.400
2020/01/31 16:35:03.1	358.570	-0.740	-0.120	-0.410
2020/01/31 16:35:03.2	358.560	-0.730	-0.140	-0.420
2020/01/31 16:35:03.3	358.550	-0.710	-0.170	-0.430
2020/01/31 16:35:03.4	358.540	-0.690	-0.190	-0.440
2020/01/31 16:35:03.5	358.530	-0.670	-0.210	-0.440
2020/01/31 16:35:03.6	358.530	-0.640	-0.230	-0.450
2020/01/31 16:35:03.7	358.510	-0.610	-0.240	-0.460
2020/01/31 16:35:03.8	358.510	-0.580	-0.260	-0.460
2020/01/31 16:35:03.9	358.500	-0.540	-0.270	-0.460
2020/01/31 16:35:04.0	358.490	-0.500	-0.290	-0.450
2020/01/31 16:35:04.1	358.480	-0.460	-0.300	-0.450
2020/01/31 16:35:04.2	358.480	-0.410	-0.310	-0.440
2020/01/31 16:35:04.3	358.470	-0.370	-0.320	-0.430
2020/01/31 16:35:04.4	358.460	-0.320	-0.330	-0.410
2020/01/31 16:35:04.5	358.450	-0.270	-0.330	-0.400
2020/01/31 16:35:04.6	358.440	-0.230	-0.340	-0.380
2020/01/31 16:35:04.7	358.420	-0.180	-0.340	-0.350
2020/01/31 16:35:04.8	358.410	-0.130	-0.340	-0.330
2020/01/31 16:35:04.9	358.390	-0.080	-0.340	-0.300
2020/01/31 16:35:05.0	358.370	-0.030	-0.340	-0.270
2020/01/31 16:35:05.1	358.350	0.010	-0.330	-0.240
2020/01/31 16:35:05.2	358.320	0.060	-0.330	-0.200
2020/01/31 16:35:05.3	358.300	0.100	-0.320	-0.170
2020/01/31 16:35:05.4	358.270	0.140	-0.320	-0.130
2020/01/31 16:35:05.5	358.240	0.180	-0.310	-0.090
2020/01/31 16:35:05.6	358.210	0.220	-0.300	-0.060
2020/01/31 16:35:05.7	358.180	0.260	-0.290	-0.020
2020/01/31 16:35:05.8	358.140	0.290	-0.290	0.020
2020/01/31 16:35:05.9	358.110	0.320	-0.280	0.060
2020/01/31 16:35:06.0	358.070	0.350	-0.280	0.100
2020/01/31 16:35:06.1	358.030	0.380	-0.270	0.130
2020/01/31 16:35:06.2	357.990	0.400	-0.270	0.170
2020/01/31 16:35:06.3	357.950	0.420	-0.270	0.200
2020/01/31 16:35:06.4	357.910	0.450	-0.280	0.240
2020/01/31 16:35:06.5	357.880	0.460	-0.280	0.270
2020/01/31 16:35:06.6	357.840	0.480	-0.290	0.300
2020/01/31 16:35:06.7	357.800	0.490	-0.300	0.330
2020/01/31 16:35:06.8	357.760	0.510	-0.310	0.350
2020/01/31 16:35:06.9	357.730	0.520	-0.330	0.380
2020/01/31 16:35:07.0	357.700	0.530	-0.350	0.390
2020/01/31 16:35:07.1	357.670	0.540	-0.370	0.410
2020/01/31 16:35:07.2	357.640	0.540	-0.390	0.420
2020/01/31 16:35:07.3	357.620	0.550	-0.420	0.420
2020/01/31 16:35:07.4	357.600	0.550	-0.450	0.420
2020/01/31 16:35:07.5	357.580	0.550	-0.480	0.420
2020/01/31 16:35:07.6	357.570	0.560	-0.520	0.410
2020/01/31 16:35:07.7	357.560	0.560	-0.560	0.390
2020/01/31 16:35:07.8	357.560	0.560	-0.600	0.360
2020/01/31 16:35:07.9	357.560	0.560	-0.640	0.330
2020/01/31 16:35:08.0	357.570	0.560	-0.680	0.300
2020/01/31 16:35:08.1	357.580	0.560	-0.730	0.250
2020/01/31 16:35:08.2	357.600	0.560	-0.780	0.200
2020/01/31 16:35:08.3	357.620	0.560	-0.820	0.150
2020/01/31 16:35:08.4	357.650	0.550	-0.870	0.090
2020/01/31 16:35:08.5	357.680	0.550	-0.920	0.030
2020/01/31 16:35:08.6	357.710	0.550	-0.960	-0.030
2020/01/31 16:35:08.7	357.760	0.550	-1.000	-0.100
2020/01/31 16:35:08.8	357.800	0.550	-1.040	-0.170
2020/01/31 16:35:08.9	357.840	0.550	-1.080	-0.240
2020/01/31 16:35:09.0	357.890	0.540	-1.110	-0.300
2020/01/31 16:35:09.1	357.940	0.540	-1.140	-0.370
2020/01/31 16:35:09.2	358.000	0.530	-1.160	-0.430
2020/01/31 16:35:09.3	358.050	0.530	-1.180	-0.490
2020/01/31 16:35:09.4	358.100	0.520	-1.190	-0.540
2020/01/31 16:35:09.5	358.150	0.510	-1.190	-0.600
2020/01/31 16:35:09.6	358.210	0.500	-1.190	-0.640
2020/01/31 16:35:09.7	358.270	0.490	-1.180	-0.690
2020/01/31 16:35:09.8	358.320	0.480	-1.170	-0.730
2020/01/31 16:35:09.9	358.370	0.460	-1.140	-0.760
2020/01/31 16:35:10.0	358.420	0.450	-1.120	-0.790
2020/01/31 16:35:10.1	358.470	0.430	-1.080	-0.820
2020/01/31 16:35:10.2	358.510	0.400	-1.050	-0.850
2020/01/31 16:35:10.3	358.560	0.380	-1.000	-0.870
2020/01/31 16:35:10.4	358.600	0.350	-0.950	-0.890
2020/01/31 16:35:10.5	358.650	0.320	-0.900	-0.900
2020/01/31 16:35:10.6	358.690	0.290	-0.850	-0.910
2020/01/31 16:35:10.7	358.730	0.260	-0.790	-0.930
2020/01/31 16:35:10.8	358.770	0.220	-0.720	-0.930
2020/01/31 16:35:10.9	358.810	0.180	-0.660	-0.940
2020/01/31 16:35:11.0	358.840	0.140	-0.590	-0.950
2020/01/31 16:35:11.1	358.880	0.100	-0.520	-0.950
2020/01/31 16:35:11.2	358.910	0.050	-0.450	-0.950
2020/01/31 16:35:11.3	358.940	0.010	-0.380	-0.950
2020/01/31 16:35:11.4	358.970	-0.040	-0.310	-0.950
2020/01/31 16:35:11.5	358.990	-0.090	-0.240	-0.940
2020/01/31 16:35:11.6	359.010	-0.130	-0.160	-0.940
2020/01/31 16:35:11.7	359.030	-0.180	-0.090	-0.920
2020/01/31 16:35:11.8	359.040	-0.230	-0.020	-0.910
2020/01/31 16:35:11.9	359.050	-0.280	0.050	-0.890
2020/01/31 16:35:12.0	359.060	-0.320	0.130	-0.870
2020/01/31 16:35:12.1	359.060	-0.370	0.200	-0.840
2020/01/31 16:35:12.2	359.060	-0.420	0.260	-0.820
2020/01/31 16:35:12.3	359.060	-0.460	0.330	-0.780
2020/01/31 16:35:12.4	359.050	-0.500	0.400	-0.750
2020/01/31 16:35:12.5	359.040	-0.550	0.460	-0.710
2020/01/31 16:35:12.6	359.020	-0.590	0.520	-0.670
2020/01/31 16:35:12.7	359.000	-0.630	0.580	-0.620
2020/01/31 16:35:12.8	358.970	-0.660	0.640	-0.580
2020/01/31 16:35:12.9	358.950	-0.700	0.690	-0.530
2020/01/31 16:35:13.0	358.920	-0.730	0.740	-0.490
2020/01/31 16:35:13.1	358.890	-0.760	0.780	-0.440
2020/01/31 16:35:13.2	358.860	-0.790	0.820	-0.390
2020/01/31 16:35:13.3	358.820	-0.810	0.860	-0.340
2020/01/31 16:35:13.4	358.790	-0.840	0.890	-0.300
2020/01/31 16:35:13.5	358.750	-0.860	0.920	-0.250
2020/01/31 16:35:13.6	358.710	-0.870	0.940	-0.210
2020/01/31 16:35:13.7	358.660	-0.890	0.960	-0.170
2020/01/31 16:35:13.8	358.620	-0.900	0.970	-0.130
2020/01/31 16:35:13.9	358.580	-0.900	0.980	-0.090
2020/01/31 16:35:14.0	358.530	-0.910	0.980	-0.050
2020/01/31 16:35:14.1	358.490	-0.910	0.980	-0.020
2020/01/31 16:35:14.2	358.450	-0.910	0.970	0.010
2020/01/31 16:35:14.3	358.400	-0.900	0.960	0.040
2020/01/31 16:35:14.4	358.350	-0.890	0.940	0.070
2020/01/31 16:35:14.5	358.300	-0.880	0.920	0.100
2020/01/31 16:35:14.6	358.250	-0.860	0.900	0.120
2020/01/31 16:35:14.7	358.200	-0.850	0.870	0.140
2020/01/31 16:35:14.8	358.140	-0.820	0.840	0.160
2020/01/31 16:35:14.9	358.080	-0.800	0.800	0.180
2020/01/31 16:35:15.0	358.030	-0.770	0.770	0.200
2020/01/31 16:35:15.1	357.960	-0.740	0.730	0.220
2020/01/31 16:35:15.2	357.900	-0.710	0.690	0.240
2020/01/31 16:35:15.3	357.840	-0.670	0.640	0.260
2020/01/31 16:35:15.4	357.780	-0.630	0.600	0.280
2020/01/31 16:35:15.5	357.710	-0.590	0.550	0.290
2020/01/31 16:35:15.6	357.650	-0.540	0.500	0.310
2020/01/31 16:35:15.7	357.580	-0.500	0.450	0.320
2020/01/31 16:35:15.8	357.520	-0.450	0.390	0.340
2020/01/31 16:35:15.9	357.450	-0.400	0.340	0.350
2020/01/31 16:35:16.0	357.390	-0.340	0.280	0.360
2020/01/31 16:35:16.1	357.330	-0.290	0.220	0.370
2020/01/31 16:35:16.2	357.270	-0.230	0.160	0.370
2020/01/31 16:35:16.3	357.210	-0.170	0.090	0.380
2020/01/31 16:35:16.4	357.150	-0.120	0.020	0.380
2020/01/31 16:35:16.5	357.100	-0.060	-0.050	0.380
2020/01/31 16:35:16.6	357.050	0.010	-0.120	0.380
2020/01/31 16:35:16.7	357.000	0.070	-0.190	0.370
2020/01/31 16:35:16.8	356.960	0.130	-0.260	0.370
2020/01/31 16:35:16.9	356.930	0.200	-0.340	0.360
2020/01/31 16:35:17.0	356.890	0.260	-0.410	0.340
2020/01/31 16:35:17.1	356.870	0.320	-0.490	0.330
2020/01/31 16:35:17.2	356.840	0.380	-0.570	0.310
2020/01/31 16:35:17.3	356.830	0.450	-0.640	0.290
2020/01/31 16:35:17.4	356.810	0.510	-0.720	0.270
2020/01/31 16:35:17.5	356.800	0.570	-0.790	0.250
2020/01/31 16:35:17.6	356.800	0.620	-0.870	0.220
2020/01/31 16:35:17.7	356.790	0.680	-0.940	0.200
2020/01/31 16:35:17.8	356.790	0.730	-1.010	0.170
2020/01/31 16:35:17.9	356.800	0.780	-1.070	0.140
2020/01/31 16:35:18.0	356.810	0.830	-1.130	0.120
2020/01/31 16:35:18.1	356.820	0.870	-1.190	0.090
2020/01/31 16:35:18.2	356.830	0.910	-1.250	0.070
2020/01/31 16:35:18.3	356.850	0.950	-1.290	0.040
2020/01/31 16:35:18.4	356.860	0.980	-1.340	0.020
2020/01/31 16:35:18.5	356.880	1.010	-1.380	-0.000
2020/01/31 16:35:18.6	356.900	1.030	-1.410	-0.030
2020/01/31 16:35:18.7	356.920	1.050	-1.430	-0.050
2020/01/31 16:35:18.8	356.950	1.070	-1.450	-0.070
2020/01/31 16:35:18.9	356.970	1.080	-1.470	-0.090
2020/01/31 16:35:19.0	357.000	1.080	-1.470	-0.110
2020/01/31 16:35:19.1	357.030	1.080	-1.470	-0.130
2020/01/31 16:35:19.2	357.060	1.070	-1.470	-0.150
2020/01/31 16:35:19.3	357.090	1.060	-1.460	-0.170
2020/01/31 16:35:19.4	357.130	1.040	-1.440	-0.180
2020/01/31 16:35:19.5	357.160	1.020	-1.420	-0.200
2020/01/31 16:35:19.6	357.190	0.990	-1.390	-0.220
2020/01/31 16:35:19.7	357.240	0.960	-1.360	-0.240
2020/01/31 16:35:19.8	357.280	0.920	-1.320	-0.260
2020/01/31 16:35:19.9	357.320	0.880	-1.280	-0.290
2020/01/31 16:35:20.0	357.360	0.840	-1.240	-0.310
2020/01/31 16:35:20.1	357.400	0.790	-1.190	-0.330
2020/01/31 16:35:20.2	357.440	0.730	-1.140	-0.360
2020/01/31 16:35:20.3	357.480	0.680	-1.090	-0.380
2020/01/31 16:35:20.4	357.530	0.620	-1.040	-0.410
2020/01/31 16:35:20.5	357.570	0.560	-0.980	-0.440
2020/01/31 16:35:20.6	357.620	0.500	-0.930	-0.470
2020/01/31 16:35:20.7	357.680	0.440	-0.880	-0.500
2020/01/31 16:35:20.8	357.730	0.370	-0.820	-0.530
2020/01/31 16:35:20.9	357.780	0.310	-0.770	-0.570
2020/01/31 16:35:21.0	357.820	0.240	-0.720	-0.600
2020/01/31 16:35:21.1	357.870	0.170	-0.670	-0.640
2020/01/31 16:35:21.2	357.920	0.110	-0.620	-0.670
2020/01/31 16:35:21.3	357.970	0.040	-0.570	-0.700
2020/01/31 16:35:21.4	358.020	-0.030	-0.520	-0.740
2020/01/31 16:35:21.5	358.060	-0.090	-0.470	-0.770
2020/01/31 16:35:21.6	358.100	-0.160	-0.430	-0.790
2020/01/31 16:35:21.7	358.140	-0.220	-0.380	-0.820
2020/01/31 16:35:21.8	358.180	-0.280	-0.340	-0.850
2020/01/31 16:35:21.9	358.210	-0.340	-0.290	-0.870
2020/01/31 16:35:22.0	358.240	-0.400	-0.250	-0.890
2020/01/31 16:35:22.1	358.260	-0.460	-0.210	-0.900
2020/01/31 16:35:22.2	358.280	-0.510	-0.160	-0.910
2020/01/31 16:35:22.3	358.300	-0.560	-0.120	-0.920
2020/01/31 16:35:22.4	358.310	-0.610	-0.080	-0.920
2020/01/31 16:35:22.5	358.320	-0.650	-0.040	-0.920
2020/01/31 16:35:22.6	358.330	-0.690	0.000	-0.910
2020/01/31 16:35:22.7	358.330	-0.730	0.050	-0.910
2020/01/31 16:35:22.8	358.330	-0.760	0.090	-0.890
2020/01/31 16:35:22.9	358.320	-0.790	0.130	-0.880
2020/01/31 16:35:23.0	358.310	-0.820	0.170	-0.860
2020/01/31 16:35:23.1	358.290	-0.840	0.210	-0.830
2020/01/31 16:35:23.2	358.270	-0.860	0.250	-0.800
2020/01/31 16:35:23.3	358.250	-0.870	0.290	-0.770
2020/01/31 16:35:23.4	358.220	-0.880	0.330	-0.730
2020/01/31 16:35:23.5	358.190	-0.890	0.370	-0.690
2020/01/31 16:35:23.6	358.150	-0.890	0.410	-0.640
2020/01/31 16:35:23.7	358.110	-0.890	0.450	-0.590
2020/01/31 16:35:23.8	358.060	-0.880	0.490	-0.530
2020/01/31 16:35:23.9	358.020	-0.870	0.520	-0.480
2020/01/31 16:35:24.0	357.970	-0.850	0.560	-0.420
2020/01/31 16:35:24.1	357.920	-0.830	0.590	-0.350
2020/01/31 16:35:24.2	357.870	-0.810	0.620	-0.290
2020/01/31 16:35:24.3	357.810	-0.780	0.650	-0.220
2020/01/31 16:35:24.4	357.760	-0.750	0.670	-0.160
2020/01/31 16:35:24.5	357.700	-0.720	0.690	-0.090
2020/01/31 16:35:24.6	357.650	-0.680	0.710	-0.020
2020/01/31 16:35:24.7	357.600	-0.650	0.730	0.040
2020/01/31 16:35:24.8	357.540	-0.610	0.740	0.100
2020/01/31 16:35:24.9	357.480	-0.560	0.740	0.160
2020/01/31 16:35:25.0	357.430	-0.520	0.740	0.220
2020/01/31 16:35:25.1	357.370	-0.480	0.740	0.280
2020/01/31 16:35:25.2	357.320	-0.430	0.730	0.330
2020/01/31 16:35:25.3	357.270	-0.380	0.710	0.370
2020/01/31 16:35:25.4	357.220	-0.330	0.690	0.420
2020/01/31 16:35:25.5	357.180	-0.280	0.670	0.460
2020/01/31 16:35:25.6	357.130	-0.240	0.640	0.500
2020/01/31 16:35:25.7	357.090	-0.190	0.610	0.530
2020/01/31 16:35:25.8	357.040	-0.140	0.570	0.560
2020/01/31 16:35:25.9	357.010	-0.090	0.530	0.590
2020/01/31 16:35:26.0	356.970	-0.040	0.490	0.620
2020/01/31 16:35:26.1	356.930	0.000	0.440	0.640
2020/01/31 16:35:26.2	356.900	0.050	0.400	0.660
2020/01/31 16:35:26.3	356.870	0.090	0.350	0.680
2020/01/31 16:35:26.4	356.840	0.140	0.300	0.700
2020/01/31 16:35:26.5	356.810	0.180	0.240	0.710
2020/01/31 16:35:26.6	356.780	0.220	0.190	0.720
2020/01/31 16:35:26.7	356.750	0.260	0.140	0.730
2020/01/31 16:35:26.8	356.720	0.300	0.090	0.730
2020/01/31 16:35:26.9	356.700	0.330	0.040	0.740
2020/01/31 16:35:27.0	356.690	0.360	-0.010	0.740
2020/01/31 16:35:27.1	356.670	0.390	-0.060	0.740
2020/01/31 16:35:27.2	356.650	0.420	-0.110	0.730
2020/01/31 16:35:27.3	356.640	0.450	-0.160	0.730
2020/01/31 16:35:27.4	356.630	0.470	-0.200	0.720
2020/01/31 16:35:27.5	356.620	0.490	-0.240	0.710
2020/01/31 16:35:27.6	356.610	0.510	-0.280	0.700
2020/01/31 16:35:27.7	356.610	0.530	-0.310	0.690
2020/01/31 16:35:27.8	356.600	0.540	-0.350	0.680
2020/01/31 16:35:27.9	356.600	0.560	-0.380	0.660
2020/01/31 16:35:28.0	356.590	0.570	-0.400	0.650
2020/01/31 16:35:28.1	356.590	0.570	-0.430	0.640
2020/01/31 16:35:28.2	356.590	0.580	-0.450	0.620
2020/01/31 16:35:28.3	356.590	0.580	-0.470	0.610
2020/01/31 16:35:28.4	356.590	0.580	-0.490	0.590
2020/01/31 16:35:28.5	356.590	0.570	-0.510	0.570
2020/01/31 16:35:28.6	356.590	0.570	-0.520	0.550
2020/01/31 16:35:28.7	356.590	0.560	-0.540	0.530
2020/01/31 16:35:28.8	356.590	0.550	-0.550	0.510
2020/01/31 16:35:28.9	356.590	0.530	-0.560	0.490
2020/01/31 16:35:29.0	356.600	0.520	-0.570	0.470
2020/01/31 16:35:29.1	356.600	0.500	-0.590	0.440
2020/01/31 16:35:29.2	356.610	0.480	-0.600	0.410
2020/01/31 16:35:29.3	356.610	0.450	-0.610	0.380
2020/01/31 16:35:29.4	356.620	0.430	-0.620	0.340
2020/01/31 16:35:29.5	356.630	0.400	-0.640	0.310
2020/01/31 16:35:29.6	356.640	0.370	-0.650	0.270
2020/01/31 16:35:29.7	356.650	0.340	-0.670	0.220
2020/01/31 16:35:29.8	356.660	0.310	-0.680	0.170
2020/01/31 16:35:29.9	356.680	0.280	-0.700	0.120
2020/01/31 16:35:30.0	356.700	0.250	-0.720	0.060
2020/01/31 16:35:30.1	356.720	0.220	-0.740	0.000
2020/01/31 16:35:30.2	356.740	0.190	-0.760	-0.060
2020/01/31 16:35:30.3	356.770	0.160	-0.790	-0.120
2020/01/31 16:35:30.4	356.800	0.120	-0.810	-0.190
2020/01/31 16:35:30.5	356.830	0.090	-0.840	-0.250
2020/01/31 16:35:30.6	356.860	0.070	-0.870	-0.320
2020/01/31 16:35:30.7	356.900	0.040	-0.890	-0.390
2020/01/31 16:35:30.8	356.940	0.010	-0.920	-0.460
2020/01/31 16:35:30.9	356.980	-0.010	-0.950	-0.530
2020/01/31 16:35:31.0	357.020	-0.040	-0.980	-0.600
2020/01/31 16:35:31.1	357.060	-0.060	-1.010	-0.670
2020/01/31 16:35:31.2	357.100	-0.080	-1.040	-0.740
2020/01/31 16:35:31.3	357.150	-0.090	-1.070	-0.800
2020/01/31 16:35:31.4	357.200	-0.110	-1.090	-0.870
2020/01/31 16:35:31.5	357.240	-0.130	-1.110	-0.930
2020/01/31 16:35:31.6	357.290	-0.140	-1.130	-1.000
2020/01/31 16:35:31.7	357.350	-0.150	-1.150	-1.060
2020/01/31 16:35:31.8	357.400	-0.160	-1.160	-1.110
2020/01/31 16:35:31.9	357.450	-0.170	-1.170	-1.170
2020/01/31 16:35:32.0	357.500	-0.180	-1.180	-1.220
2020/01/31 16:35:32.1	357.540	-0.190	-1.180	-1.270
2020/01/31 16:35:32.2	357.590	-0.190	-1.170	-1.310
2020/01/31 16:35:32.3	357.630	-0.200	-1.160	-1.350
2020/01/31 16:35:32.4	357.670	-0.200	-1.150	-1.390
2020/01/31 16:35:32.5	357.710	-0.210	-1.130	-1.410
2020/01/31 16:35:32.6	357.750	-0.210	-1.100	-1.440
2020/01/31 16:35:32.7	357.790	-0.210	-1.070	-1.460
2020/01/31 16:35:32.8	357.820	-0.210	-1.030	-1.470
2020/01/31 16:35:32.9	357.850	-0.210	-0.980	-1.470
2020/01/31 16:35:33.0	357.870	-0.210	-0.930	-1.470
2020/01/31 16:35:33.1	357.890	-0.210	-0.870	-1.460
2020/01/31 16:35:33.2	357.910	-0.200	-0.800	-1.440
2020/01/31 16:35:33.3	357.920	-0.200	-0.720	-1.410
2020/01/31 16:35:33.4	357.930	-0.200	-0.650	-1.370
2020/01/31 16:35:33.5	357.930	-0.190	-0.560	-1.330
2020/01/31 16:35:33.6	357.930	-0.190	-0.470	-1.270
2020/01/31 16:35:33.7	357.940	-0.180	-0.370	-1.210
2020/01/31 16:35:33.8	357.930	-0.180	-0.280	-1.140
2020/01/31 16:35:33.9	357.910	-0.170	-0.170	-1.070
2020/01/31 16:35:34.0	357.900	-0.170	-0.070	-0.990
2020/01/31 16:35:34.1	357.870	-0.160	0.040	-0.900
2020/01/31 16:35:34.2	357.850	-0.160	0.150	-0.810
2020/01/31 16:35:34.3	357.820	-0.150	0.260	-0.710
2020/01/31 16:35:34.4	357.790	-0.140	0.370	-0.610
2020/01/31 16:35:34.5	357.750	-0.140	0.470	-0.500
2020/01/31 16:35:34.6	357.710	-0.130	0.580	-0.390
2020/01/31 16:35:34.7	357.670	-0.130	0.680	-0.280
2020/01/31 16:35:34.8	357.620	-0.120	0.780	-0.170
2020/01/31 16:35:34.9	357.580	-0.120	0.870	-0.060
2020/01/31 16:35:35.0	357.530	-0.110	0.960	0.050
2020/01/31 16:35:35.1	357.470	-0.110	1.030	0.150
2020/01/31 16:35:35.2	357.420	-0.110	1.110	0.250
2020/01/31 16:35:35.3	357.370	-0.100	1.170	0.350
2020/01/31 16:35:35.4	357.320	-0.100	1.220	0.440
2020/01/31 16:35:35.5	357.270	-0.100	1.250	0.530
2020/01/31 16:35:35.6	357.220	-0.090	1.280	0.610
2020/01/31 16:35:35.7	357.170	-0.090	1.290	0.680
2020/01/31 16:35:35.8	357.120	-0.080	1.300	0.750
2020/01/31 16:35:35.9	357.080	-0.080	1.290	0.800
2020/01/31 16:35:36.0	357.040	-0.070	1.260	0.840
2020/01/31 16:35:36.1	357.000	-0.060	1.220	0.880
2020/01/31 16:35:36.2	356.970	-0.050	1.170	0.910
2020/01/31 16:35:36.3	356.940	-0.040	1.110	0.930
2020/01/31 16:35:36.4	356.920	-0.030	1.030	0.940
2020/01/31 16:35:36.5	356.900	-0.020	0.940	0.940
2020/01/31 16:35:36.6	356.890	-0.000	0.840	0.930
2020/01/31 16:35:36.7	356.870	0.010	0.740	0.910
2020/01/31 16:35:36.8	356.870	0.030	0.610	0.890
2020/01/31 16:35:36.9	356.870	0.050	0.490	0.860
2020/01/31 16:35:37.0	356.880	0.070	0.350	0.820
2020/01/31 16:35:37.1	356.890	0.100	0.210	0.780
2020/01/31 16:35:37.2	356.900	0.120	0.060	0.730
2020/01/31 16:35:37.3	356.920	0.140	-0.080	0.670
2020/01/31 16:35:37.4	356.950	0.170	-0.230	0.610
2020/01/31 16:35:37.5	356.970	0.190	-0.380	0.550
2020/01/31 16:35:37.6	357.000	0.220	-0.520	0.490
2020/01/31 16:35:37.7	357.030	0.240	-0.660	0.420
2020/01/31 16:35:37.8	357.060	0.260	-0.790	0.350
2020/01/31 16:35:37.9	357.090	0.280	-0.910	0.280
2020/01/31 16:35:38.0	357.120	0.300	-1.020	0.220
2020/01/31 16:35:38.1	357.150	0.320	-1.130	0.150
2020/01/31 16:35:38.2	357.180	0.340	-1.210	0.090
2020/01/31 16:35:38.3	357.200	0.350	-1.290	0.030
2020/01/31 16:35:38.4	357.230	0.360	-1.350	-0.020
2020/01/31 16:35:38.5	357.250	0.360	-1.390	-0.070
2020/01/31 16:35:38.6	357.270	0.370	-1.420	-0.120
2020/01/31 16:35:38.7	357.280	0.370	-1.430	-0.170
2020/01/31 16:35:38.8	357.300	0.360	-1.430	-0.210
2020/01/31 16:35:38.9	357.300	0.350	-1.410	-0.240
2020/01/31 16:35:39.0	357.310	0.340	-1.380	-0.260
2020/01/31 16:35:39.1	357.310	0.320	-1.330	-0.280
2020/01/31 16:35:39.2	357.310	0.300	-1.270	-0.300
2020/01/31 16:35:39.3	357.300	0.270	-1.200	-0.310
2020/01/31 16:35:39.4	357.290	0.240	-1.120	-0.310
2020/01/31 16:35:39.5	357.280	0.210	-1.030	-0.310
2020/01/31 16:35:39.6	357.260	0.170	-0.930	-0.310
2020/01/31 16:35:39.7	357.250	0.130	-0.830	-0.300
2020/01/31 16:35:39.8	357.230	0.090	-0.720	-0.290
2020/01/31 16:35:39.9	357.200	0.040	-0.610	-0.280
2020/01/31 16:35:40.0	357.180	-0.000	-0.510	-0.270
2020/01/31 16:35:40.1	357.160	-0.050	-0.400	-0.260
2020/01/31 16:35:40.2	357.140	-0.100	-0.300	-0.250
2020/01/31 16:35:40.3	357.120	-0.150	-0.200	-0.240
2020/01/31 16:35:40.4	357.100	-0.200	-0.100	-0.230
2020/01/31 16:35:40.5	357.080	-0.250	-0.020	-0.230
2020/01/31 16:35:40.6	357.070	-0.300	0.060	-0.230
2020/01/31 16:35:40.7	357.050	-0.340	0.130	-0.230
2020/01/31 16:35:40.8	357.040	-0.390	0.190	-0.240
2020/01/31 16:35:40.9	357.040	-0.430	0.240	-0.250
2020/01/31 16:35:41.0	357.030	-0.460	0.280	-0.260
2020/01/31 16:35:41.1	357.030	-0.500	0.310	-0.280
2020/01/31 16:35:41.2	357.030	-0.530	0.320	-0.300
2020/01/31 16:35:41.3	357.030	-0.550	0.330	-0.330
2020/01/31 16:35:41.4	357.040	-0.570	0.330	-0.360
2020/01/31 16:35:41.5	357.050	-0.580	0.310	-0.390
2020/01/31 16:35:41.6	357.050	-0.590	0.290	-0.430
2020/01/31 16:35:41.7	357.060	-0.600	0.260	-0.470
2020/01/31 16:35:41.8	357.060	-0.590	0.220	-0.510
2020/01/31 16:35:41.9	357.070	-0.590	0.180	-0.540
2020/01/31 16:35:42.0	357.080	-0.570	0.130	-0.580
2020/01/31 16:35:42.1	357.090	-0.560	0.080	-0.620
2020/01/31 16:35:42.2	357.100	-0.530	0.020	-0.650
2020/01/31 16:35:42.3	357.110	-0.500	-0.040	-0.680
2020/01/31 16:35:42.4	357.110	-0.470	-0.100	-0.700
2020/01/31 16:35:42.5	357.120	-0.430	-0.150	-0.730
2020/01/31 16:35:42.6	357.120	-0.390	-0.210	-0.740
2020/01/31 16:35:42.7	357.110	-0.340	-0.260	-0.760
2020/01/31 16:35:42.8	357.100	-0.290	-0.320	-0.760
2020/01/31 16:35:42.9	357.100	-0.240	-0.370	-0.760
2020/01/31 16:35:43.0	357.090	-0.190	-0.410	-0.750
2020/01/31 16:35:43.1	357.070	-0.130	-0.450	-0.740
2020/01/31 16:35:43.2	357.060	-0.070	-0.490	-0.720
2020/01/31 16:35:43.3	357.040	-0.010	-0.520	-0.700
2020/01/31 16:35:43.4	357.030	0.050	-0.540	-0.680
2020/01/31 16:35:43.5	357.010	0.110	-0.560	-0.650
2020/01/31 16:35:43.6	356.990	0.160	-0.580	-0.620
2020/01/31 16:35:43.7	356.970	0.220	-0.590	-0.580
2020/01/31 16:35:43.8	356.950	0.280	-0.590	-0.540
2020/01/31 16:35:43.9	356.940	0.330	-0.590	-0.500
2020/01/31 16:35:44.0	356.920	0.380	-0.590	-0.460
2020/01/31 16:35:44.1	356.900	0.430	-0.590	-0.420
2020/01/31 16:35:44.2	356.890	0.480	-0.580	-0.380
2020/01/31 16:35:44.3	356.880	0.520	-0.570	-0.340
2020/01/31 16:35:44.4	356.870	0.560	-0.550	-0.300
2020/01/31 16:35:44.5	356.860	0.600	-0.540	-0.260
2020/01/31 16:35:44.6	356.860	0.630	-0.520	-0.220
2020/01/31 16:35:44.7	356.860	0.660	-0.510	-0.190
2020/01/31 16:35:44.8	356.860	0.690	-0.500	-0.150
2020/01/31 16:35:44.9	356.870	0.710	-0.480	-0.120
2020/01/31 16:35:45.0	356.880	0.720	-0.470	-0.090
2020/01/31 16:35:45.1	356.900	0.740	-0.460	-0.070
2020/01/31 16:35:45.2	356.910	0.740	-0.450	-0.040
2020/01/31 16:35:45.3	356.940	0.750	-0.440	-0.020
2020/01/31 16:35:45.4	356.960	0.750	-0.440	-0.010
2020/01/31 16:35:45.5	356.980	0.740	-0.430	0.010
2020/01/31 16:35:45.6	357.010	0.730	-0.430	0.020
2020/01/31 16:35:45.7	357.050	0.720	-0.420	0.030
2020/01/31 16:35:45.8	357.080	0.700	-0.420	0.040
2020/01/31 16:35:45.9	357.110	0.680	-0.420	0.050
2020/01/31 16:35:46.0	357.140	0.650	-0.420	0.050
2020/01/31 16:35:46.1	357.170	0.620	-0.420	0.060
2020/01/31 16:35:46.2	357.200	0.590	-0.420	0.060
2020/01/31 16:35:46.3	357.230	0.550	-0.420	0.060
2020/01/31 16:35:46.4	357.260	0.520	-0.420	0.060
2020/01/31 16:35:46.5	357.290	0.480	-0.410	0.060
2020/01/31 16:35:46.6	357.310	0.430	-0.410	0.060
2020/01/31 16:35:46.7	357.330	0.390	-0.400	0.060
2020/01/31 16:35:46.8	357.350	0.340	-0.390	0.060
2020/01/31 16:35:46.9	357.370	0.290	-0.380	0.050
2020/01/31 16:35:47.0	357.390	0.250	-0.360	0.050
2020/01/31 16:35:47.1	357.400	0.200	-0.340	0.050
2020/01/31 16:35:47.2	357.410	0.150	-0.320	0.050
2020/01/31 16:35:47.3	357.420	0.100	-0.290	0.050
2020/01/31 16:35:47.4	357.430	0.050	-0.260	0.050
2020/01/31 16:35:47.5	357.430	0.000	-0.230	0.050
2020/01/31 16:35:47.6	357.430	-0.050	-0.200	0.050
2020/01/31 16:35:47.7	357.430	-0.090	-0.160	0.050
2020/01/31 16:35:47.8	357.420	-0.140	-0.120	0.060
2020/01/31 16:35:47.9	357.420	-0.180	-0.080	0.060
2020/01/31 16:35:48.0	357.410	-0.220	-0.040	0.060
2020/01/31 16:35:48.1	357.390	-0.260	-0.000	0.060
2020/01/31 16:35:48.2	357.380	-0.300	0.040	0.070
2020/01/31 16:35:48.3	357.360	-0.340	0.080	0.070
2020/01/31 16:35:48.4	357.340	-0.370	0.120	0.070
2020/01/31 16:35:48.5	357.320	-0.410	0.150	0.070
2020/01/31 16:35:48.6	357.300	-0.440	0.190	0.080
2020/01/31 16:35:48.7	357.270	-0.470	0.220	0.070
2020/01/31 16:35:48.8	357.250	-0.490	0.250	0.070
2020/01/31 16:35:48.9	357.230	-0.520	0.280	0.070
2020/01/31 16:35:49.0	357.200	-0.540	0.300	0.070
2020/01/31 16:35:49.1	357.180	-0.560	0.320	0.060
2020/01/31 16:35:49.2	357.160	-0.570	0.340	0.060
2020/01/31 16:35:49.3	357.130	-0.580	0.350	0.050
2020/01/31 16:35:49.4	357.110	-0.600	0.360	0.040
2020/01/31 16:35:49.5	357.090	-0.600	0.360	0.030
2020/01/31 16:35:49.6	357.070	-0.610	0.360	0.010
2020/01/31 16:35:49.7	357.050	-0.610	0.360	0.000
2020/01/31 16:35:49.8	357.030	-0.610	0.340	-0.020
2020/01/31 16:35:49.9	357.010	-0.610	0.330	-0.040
2020/01/31 16:35:50.0	357.000	-0.600	0.310	-0.060
2020/01/31 16:35:50.1	356.980	-0.600	0.280	-0.080
2020/01/31 16:35:50.2	356.970	-0.590	0.250	-0.110
2020/01/31 16:35:50.3	356.960	-0.570	0.220	-0.140
2020/01/31 16:35:50.4	356.950	-0.560	0.180	-0.170
2020/01/31 16:35:50.5	356.950	-0.540	0.140	-0.200
2020/01/31 16:35:50.6	356.950	-0.520	0.090	-0.230
2020/01/31 16:35:50.7	356.950	-0.500	0.050	-0.270
2020/01/31 16:35:50.8	356.950	-0.480	-0.000	-0.310
2020/01/31 16:35:50.9	356.960	-0.450	-0.050	-0.350
2020/01/31 16:35:51.0	356.960	-0.420	-0.110	-0.380
2020/01/31 16:35:51.1	356.980	-0.390	-0.160	-0.420
2020/01/31 16:35:51.2	356.990	-0.360	-0.220	-0.460
2020/01/31 16:35:51.3	357.010	-0.330	-0.270	-0.490
2020/01/31 16:35:51.4	357.020	-0.300	-0.320	-0.530
2020/01/31 16:35:51.5	357.040	-0.270	-0.380	-0.560
2020/01/31 16:35:51.6	357.060	-0.240	-0.430	-0.600
2020/01/31 16:35:51.7	357.080	-0.200	-0.470	-0.630
2020/01/31 16:35:51.8	357.110	-0.170	-0.520	-0.660
2020/01/31 16:35:51.9	357.130	-0.140	-0.560	-0.680
2020/01/31 16:35:52.0	357.150	-0.110	-0.600	-0.710
2020/01/31 16:35:52.1	357.170	-0.080	-0.630	-0.730
2020/01/31 16:35:52.2	357.190	-0.050	-0.660	-0.760
2020/01/31 16:35:52.3	357.210	-0.030	-0.690	-0.770
2020/01/31 16:35:52.4	357.220	-0.000	-0.710	-0.790
2020/01/31 16:35:52.5	357.240	0.020	-0.720	-0.800
2020/01/31 16:35:52.6	357.250	0.040	-0.730	-0.810
2020/01/31 16:35:52.7	357.270	0.060	-0.740	-0.820
2020/01/31 16:35:52.8	357.280	0.080	-0.740	-0.820
2020/01/31 16:35:52.9	357.290	0.090	-0.730	-0.820
2020/01/31 16:35:53.0	357.290	0.110	-0.720	-0.810
2020/01/31 16:35:53.1	357.300	0.120	-0.710	-0.800
2020/01/31 16:35:53.2	357.300	0.130	-0.690	-0.790
2020/01/31 16:35:53.3	357.310	0.140	-0.670	-0.770
2020/01/31 16:35:53.4	357.310	0.150	-0.650	-0.750
2020/01/31 16:35:53.5	357.310	0.160	-0.620	-0.720
2020/01/31 16:35:53.6	357.310	0.160	-0.590	-0.700
2020/01/31 16:35:53.7	357.320	0.170	-0.560	-0.670
2020/01/31 16:35:53.8	357.320	0.170	-0.530	-0.630
2020/01/31 16:35:53.9	357.320	0.180	-0.490	-0.600
2020/01/31 16:35:54.0	357.330	0.190	-0.460	-0.560
2020/01/31 16:35:54.1	357.330	0.190	-0.420	-0.520
2020/01/31 16:35:54.2	357.330	0.200	-0.390	-0.480
2020/01/31 16:35:54.3	357.330	0.200	-0.350	-0.440
2020/01/31 16:35:54.4	357.330	0.210	-0.320	-0.400
2020/01/31 16:35:54.5	357.330	0.210	-0.280	-0.360
2020/01/31 16:35:54.6	357.330	0.220	-0.250	-0.320
2020/01/31 16:35:54.7	357.330	0.230	-0.220	-0.280
2020/01/31 16:35:54.8	357.320	0.230	-0.190	-0.230
2020/01/31 16:35:54.9	357.320	0.240	-0.160	-0.190
2020/01/31 16:35:55.0	357.310	0.250	-0.130	-0.150
2020/01/31 16:35:55.1	357.300	0.250	-0.100	-0.110
2020/01/31 16:35:55.2	357.290	0.260	-0.080	-0.060
2020/01/31 16:35:55.3	357.280	0.270	-0.050	-0.020
2020/01/31 16:35:55.4	357.260	0.280	-0.030	0.020
2020/01/31 16:35:55.5	357.240	0.290	-0.010	0.060
2020/01/31 16:35:55.6	357.230	0.300	0.010	0.110
2020/01/31 16:35:55.7	357.210	0.310	0.020	0.140
2020/01/31 16:35:55.8	357.190	0.330	0.040	0.180
2020/01/31 16:35:55.9	357.170	0.340	0.050	0.220
2020/01/31 16:35:56.0	357.150	0.350	0.060	0.260
2020/01/31 16:35:56.1	357.130	0.360	0.070	0.290
2020/01/31 16:35:56.2	357.100	0.370	0.070	0.330
2020/01/31 16:35:56.3	357.080	0.390	0.080	0.360
2020/01/31 16:35:56.4	357.060	0.400	0.080	0.390
2020/01/31 16:35:56.5	357.040	0.410	0.070	0.420
2020/01/31 16:35:56.6	357.010	0.420	0.070	0.450
2020/01/31 16:35:56.7	356.990	0.430	0.060	0.470
2020/01/31 16:35:56.8	356.970	0.440	0.040	0.490
2020/01/31 16:35:56.9	356.950	0.450	0.020	0.510
2020/01/31 16:35:57.0	356.930	0.460	0.000	0.520
2020/01/31 16:35:57.1	356.910	0.470	-0.020	0.530
2020/01/31 16:35:57.2	356.890	0.480	-0.050	0.530
2020/01/31 16:35:57.3	356.880	0.480	-0.080	0.530
2020/01/31 16:35:57.4	356.870	0.480	-0.120	0.520
2020/01/31 16:35:57.5	356.860	0.480	-0.150	0.510
2020/01/31 16:35:57.6	356.850	0.480	-0.190	0.490
2020/01/31 16:35:57.7	356.840	0.480	-0.230	0.470
2020/01/31 16:35:57.8	356.830	0.480	-0.280	0.440
2020/01/31 16:35:57.9	356.830	0.470	-0.330	0.410
2020/01/31 16:35:58.0	356.840	0.460	-0.380	0.370
2020/01/31 16:35:58.1	356.840	0.450	-0.430	0.330
2020/01/31 16:35:58.2	356.850	0.440	-0.480	0.290
2020/01/31 16:35:58.3	356.860	0.430	-0.530	0.240
2020/01/31 16:35:58.4	356.880	0.410	-0.580	0.190
2020/01/31 16:35:58.5	356.890	0.390	-0.630	0.130
2020/01/31 16:35:58.6	356.910	0.370	-0.680	0.080
2020/01/31 16:35:58.7	356.940	0.350	-0.720	0.010
2020/01/31 16:35:58.8	356.960	0.320	-0.760	-0.050
2020/01/31 16:35:58.9	356.990	0.300	-0.800	-0.110
2020/01/31 16:35:59.0	357.020	0.270	-0.830	-0.180
2020/01/31 16:35:59.1	357.050	0.240	-0.860	-0.240
2020/01/31 16:35:59.2	357.090	0.210	-0.890	-0.310
2020/01/31 16:35:59.3	357.120	0.180	-0.910	-0.380
2020/01/31 16:35:59.4	357.160	0.140	-0.920	-0.440
2020/01/31 16:35:59.5	357.190	0.110	-0.930	-0.510
2020/01/31 16:35:59.6	357.230	0.070	-0.930	-0.580
2020/01/31 16:35:59.7	357.270	0.030	-0.930	-0.640
2020/01/31 16:35:59.8	357.310	-0.010	-0.920	-0.700
2020/01/31 16:35:59.9	357.350	-0.050	-0.900	-0.760
2020/01/31 16:36:00.0	357.380	-0.090	-0.880	-0.820
2020/01/31 16:36:00.1	357.410	-0.130	-0.850	-0.870
2020/01/31 16:36:00.2	357.450	-0.170	-0.810	-0.920
2020/01/31 16:36:00.3	357.480	-0.210	-0.770	-0.970
2020/01/31 16:36:00.4	357.500	-0.250	-0.730	-1.000
2020/01/31 16:36:00.5	357.530	-0.290	-0.680	-1.040
2020/01/31 16:36:00.6	357.550	-0.330	-0.630	-1.070
2020/01/31 16:36:00.7	357.580	-0.370	-0.570	-1.100
2020/01/31 16:36:00.8	357.600	-0.410	-0.500	-1.120
2020/01/31 16:36:00.9	357.610	-0.440	-0.440	-1.130
2020/01/31 16:36:01.0	357.630	-0.470	-0.380	-1.140
2020/01/31 16:36:01.1	357.640	-0.500	-0.310	-1.140
2020/01/31 16:36:01.2	357.650	-0.530	-0.240	-1.140
2020/01/31 16:36:01.3	357.660	-0.560	-0.170	-1.130
2020/01/31 16:36:01.4	357.670	-0.580	-0.100	-1.120
2020/01/31 16:36:01.5	357.680	-0.600	-0.030	-1.110
2020/01/31 16:36:01.6	357.680	-0.620	0.030	-1.090
2020/01/31 16:36:01.7	357.690	-0.640	0.100	-1.060
2020/01/31 16:36:01.8	357.690	-0.650	0.160	-1.040
2020/01/31 16:36:01.9	357.690	-0.660	0.220	-1.010
2020/01/31 16:36:02.0	357.680	-0.660	0.280	-0.970
2020/01/31 16:36:02.1	357.670	-0.670	0.340	-0.930
2020/01/31 16:36:02.2	357.660	-0.670	0.390	-0.890
2020/01/31 16:36:02.3	357.650	-0.660	0.440	-0.840
2020/01/31 16:36:02.4	357.630	-0.660	0.490	-0.800
2020/01/31 16:36:02.5	357.610	-0.650	0.530	-0.750
2020/01/31 16:36:02.6	357.590	-0.640	0.570	-0.700
2020/01/31 16:36:02.7	357.560	-0.630	0.600	-0.650
2020/01/31 16:36:02.8	357.540	-0.620	0.630	-0.600
2020/01/31 16:36:02.9	357.510	-0.600	0.660	-0.540
2020/01/31 16:36:03.0	357.480	-0.580	0.670	-0.490
2020/01/31 16:36:03.1	357.450	-0.570	0.690	-0.440
2020/01/31 16:36:03.2	357.410	-0.550	0.700	-0.390
2020/01/31 16:36:03.3	357.380	-0.530	0.700	-0.340
2020/01/31 16:36:03.4	357.350	-0.500	0.700	-0.290
2020/01/31 16:36:03.5	357.310	-0.480	0.690	-0.240
2020/01/31 16:36:03.6	357.280	-0.460	0.670	-0.190
2020/01/31 16:36:03.7	357.240	-0.440	0.650	-0.140
2020/01/31 16:36:03.8	357.210	-0.410	0.630	-0.100
2020/01/31 16:36:03.9	357.180	-0.390	0.590	-0.060
2020/01/31 16:36:04.0	357.150	-0.360	0.560	-0.010
2020/01/31 16:36:04.1	357.120	-0.340	0.510	0.020
2020/01/31 16:36:04.2	357.090	-0.310	0.470	0.060
2020/01/31 16:36:04.3	357.070	-0.290	0.410	0.100
2020/01/31 16:36:04.4	357.040	-0.260	0.360	0.130
2020/01/31 16:36:04.5	357.020	-0.240	0.300	0.160
2020/01/31 16:36:04.6	357.000	-0.210	0.230	0.190
2020/01/31 16:36:04.7	356.980	-0.190	0.170	0.220
2020/01/31 16:36:04.8	356.960	-0.160	0.100	0.240
2020/01/31 16:36:04.9	356.940	-0.140	0.020	0.260
2020/01/31 16:36:05.0	356.930	-0.110	-0.050	0.270
2020/01/31 16:36:05.1	356.910	-0.090	-0.130	0.280
2020/01/31 16:36:05.2	356.900	-0.060	-0.200	0.290
2020/01/31 16:36:05.3	356.890	-0.040	-0.280	0.290
2020/01/31 16:36:05.4	356.880	-0.020	-0.360	0.290
2020/01/31 16:36:05.5	356.880	0.010	-0.440	0.290
2020/01/31 16:36:05.6	356.870	0.030	-0.520	0.280
2020/01/31 16:36:05.7	356.870	0.060	-0.590	0.270
2020/01/31 16:36:05.8	356.870	0.080	-0.670	0.250
2020/01/31 16:36:05.9	356.880	0.110	-0.740	0.240
2020/01/31 16:36:06.0	356.880	0.130	-0.810	0.220
2020/01/31 16:36:06.1	356.890	0.160	-0.880	0.200
2020/01/31 16:36:06.2	356.900	0.190	-0.940	0.180
2020/01/31 16:36:06.3	356.910	0.210	-1.000	0.150
2020/01/31 16:36:06.4	356.930	0.240	-1.060	0.130
2020/01/31 16:36:06.5	356.950	0.270	-1.110	0.110
2020/01/31 16:36:06.6	356.970	0.290	-1.160	0.080
2020/01/31 16:36:06.7	356.990	0.320	-1.200	0.050
2020/01/31 16:36:06.8	357.020	0.340	-1.240	0.030
2020/01/31 16:36:06.9	357.040	0.370	-1.270	0.010
2020/01/31 16:36:07.0	357.070	0.390	-1.290	-0.010
2020/01/31 16:36:07.1	357.090	0.410	-1.310	-0.040
2020/01/31 16:36:07.2	357.120	0.440	-1.320	-0.050
2020/01/31 16:36:07.3	357.140	0.450	-1.320	-0.070
2020/01/31 16:36:07.4	357.170	0.470	-1.320	-0.090
2020/01/31 16:36:07.5	357.200	0.490	-1.300	-0.100
2020/01/31 16:36:07.6	357.220	0.500	-1.280	-0.120
2020/01/31 16:36:07.7	357.240	0.510	-1.260	-0.130
2020/01/31 16:36:07.8	357.260	0.520	-1.220	-0.140
2020/01/31 16:36:07.9	357.280	0.520	-1.180	-0.140
2020/01/31 16:36:08.0	357.300	0.520	-1.130	-0.150
2020/01/31 16:36:08.1	357.320	0.520	-1.070	-0.150
2020/01/31 16:36:08.2	357.330	0.520	-1.010	-0.160
2020/01/31 16:36:08.3	357.340	0.510	-0.940	-0.150
2020/01/31 16:36:08.4	357.350	0.500	-0.860	-0.150
2020/01/31 16:36:08.5	357.350	0.490	-0.780	-0.150
2020/01/31 16:36:08.6	357.350	0.480	-0.700	-0.140
2020/01/31 16:36:08.7	357.340	0.460	-0.610	-0.140
2020/01/31 16:36:08.8	357.340	0.440	-0.520	-0.130
2020/01/31 16:36:08.9	357.330	0.420	-0.420	-0.120
2020/01/31 16:36:09.0	357.320	0.400	-0.330	-0.110
2020/01/31 16:36:09.1	357.310	0.370	-0.230	-0.090
2020/01/31 16:36:09.2	357.290	0.350	-0.140	-0.080
2020/01/31 16:36:09.3	357.280	0.320	-0.050	-0.060
2020/01/31 16:36:09.4	357.260	0.290	0.040	-0.040
2020/01/31 16:36:09.5	357.240	0.270	0.130	-0.020
2020/01/31 16:36:09.6	357.220	0.240	0.210	-0.000
2020/01/31 16:36:09.7	357.200	0.210	0.280	0.020
2020/01/31 16:36:09.8	357.180	0.180	0.350	0.040
2020/01/31 16:36:09.9	357.160	0.160	0.410	0.060
2020/01/31 16:36:10.0	357.140	0.130	0.470	0.080
2020/01/31 16:36:10.1	357.120	0.110	0.520	0.090
2020/01/31 16:36:10.2	357.100	0.090	0.560	0.110
2020/01/31 16:36:10.3	357.080	0.070	0.590	0.130
2020/01/31 16:36:10.4	357.060	0.060	0.610	0.140
2020/01/31 16:36:10.5	357.050	0.050	0.620	0.150
2020/01/31 16:36:10.6	357.040	0.040	0.620	0.160
2020/01/31 16:36:10.7	357.020	0.030	0.620	0.170
2020/01/31 16:36:10.8	357.010	0.030	0.600	0.180
2020/01/31 16:36:10.9	357.000	0.020	0.580	0.180
2020/01/31 16:36:11.0	356.990	0.020	0.550	0.180
2020/01/31 16:36:11.1	356.980	0.030	0.510	0.180
2020/01/31 16:36:11.2	356.970	0.040	0.470	0.170
2020/01/31 16:36:11.3	356.970	0.040	0.420	0.170
2020/01/31 16:36:11.4	356.960	0.050	0.360	0.160
2020/01/31 16:36:11.5	356.960	0.070	0.300	0.150
2020/01/31 16:36:11.6	356.960	0.080	0.230	0.130
2020/01/31 16:36:11.7	356.960	0.100	0.170	0.120
2020/01/31 16:36:11.8	356.960	0.110	0.090	0.100
2020/01/31 16:36:11.9	356.960	0.130	0.020	0.080
2020/01/31 16:36:12.0	356.960	0.150	-0.060	0.060
2020/01/31 16:36:12.1	356.960	0.170	-0.130	0.040
2020/01/31 16:36:12.2	356.970	0.180	-0.200	0.020
2020/01/31 16:36:12.3	356.980	0.200	-0.280	-0.000
2020/01/31 16:36:12.4	356.980	0.220	-0.350	-0.030
2020/01/31 16:36:12.5	356.990	0.230	-0.420	-0.050
2020/01/31 16:36:12.6	357.000	0.240	-0.480	-0.070
2020/01/31 16:36:12.7	357.010	0.250	-0.540	-0.100
2020/01/31 16:36:12.8	357.020	0.260	-0.590	-0.130
2020/01/31 16:36:12.9	357.030	0.270	-0.640	-0.150
2020/01/31 16:36:13.0	357.050	0.270	-0.690	-0.170
2020/01/31 16:36:13.1	357.060	0.270	-0.730	-0.200
2020/01/31 16:36:13.2	357.070	0.260	-0.760	-0.220
2020/01/31 16:36:13.3	357.090	0.250	-0.780	-0.240
2020/01/31 16:36:13.4	357.100	0.240	-0.800	-0.260
2020/01/31 16:36:13.5	357.110	0.230	-0.810	-0.280
2020/01/31 16:36:13.6	357.130	0.210	-0.810	-0.300
2020/01/31 16:36:13.7	357.140	0.190	-0.810	-0.320
2020/01/31 16:36:13.8	357.150	0.160	-0.800	-0.340
2020/01/31 16:36:13.9	357.160	0.130	-0.780	-0.350
2020/01/31 16:36:14.0	357.160	0.090	-0.760	-0.360
2020/01/31 16:36:14.1	357.170	0.060	-0.730	-0.380
2020/01/31 16:36:14.2	357.180	0.020	-0.690	-0.390
2020/01/31 16:36:14.3	357.180	-0.030	-0.650	-0.390
2020/01/31 16:36:14.4	357.180	-0.070	-0.600	-0.400
2020/01/31 16:36:14.5	357.180	-0.120	-0.550	-0.410
2020/01/31 16:36:14.6	357.180	-0.170	-0.490	-0.410
2020/01/31 16:36:14.7	357.180	-0.220	-0.430	-0.410
2020/01/31 16:36:14.8	357.170	-0.280	-0.360	-0.410
2020/01/31 16:36:14.9	357.170	-0.330	-0.300	-0.410
2020/01/31 16:36:15.0	357.160	-0.380	-0.230	-0.410
2020/01/31 16:36:15.1	357.160	-0.440	-0.170	-0.400
2020/01/31 16:36:15.2	357.150	-0.490	-0.100	-0.400
2020/01/31 16:36:15.3	357.140	-0.540	-0.030	-0.390
2020/01/31 16:36:15.4	357.130	-0.590	0.030	-0.390
2020/01/31 16:36:15.5	357.120	-0.640	0.090	-0.380
2020/01/31 16:36:15.6	357.110	-0.690	0.150	-0.380
2020/01/31 16:36:15.7	357.090	-0.740	0.200	-0.380
2020/01/31 16:36:15.8	357.080	-0.780	0.260	-0.370
2020/01/31 16:36:15.9	357.060	-0.810	0.300	-0.360
2020/01/31 16:36:16.0	357.050	-0.850	0.350	-0.360
2020/01/31 16:36:16.1	357.030	-0.880	0.380	-0.350
2020/01/31 16:36:16.2	357.020	-0.900	0.420	-0.340
2020/01/31 16:36:16.3	357.010	-0.920	0.440	-0.330
2020/01/31 16:36:16.4	356.990	-0.930	0.460	-0.330
2020/01/31 16:36:16.5	356.980	-0.940	0.470	-0.320
2020/01/31 16:36:16.6	356.970	-0.940	0.480	-0.310
2020/01/31 16:36:16.7	356.970	-0.940	0.480	-0.300
2020/01/31 16:36:16.8	356.960	-0.930	0.470	-0.290
2020/01/31 16:36:16.9	356.950	-0.910	0.460	-0.280
2020/01/31 16:36:17.0	356.950	-0.890	0.440	-0.260
2020/01/31 16:36:17.1	356.950	-0.860	0.410	-0.250
2020/01/31 16:36:17.2	356.940	-0.830	0.380	-0.230
2020/01/31 16:36:17.3	356.940	-0.790	0.340	-0.220
2020/01/31 16:36:17.4	356.940	-0.750	0.300	-0.200
2020/01/31 16:36:17.5	356.940	-0.700	0.250	-0.180
2020/01/31 16:36:17.6	356.940	-0.640	0.200	-0.150
2020/01/31 16:36:17.7	356.930	-0.590	0.140	-0.130
2020/01/31 16:36:17.8	356.930	-0.530	0.090	-0.100
2020/01/31 16:36:17.9	356.920	-0.460	0.030	-0.070
2020/01/31 16:36:18.0	356.920	-0.400	-0.030	-0.040
2020/01/31 16:36:18.1	356.910	-0.330	-0.080	-0.010
2020/01/31 16:36:18.2	356.900	-0.260	-0.140	0.020
2020/01/31 16:36:18.3	356.900	-0.190	-0.200	0.050
2020/01/31 16:36:18.4	356.880	-0.120	-0.260	0.080
2020/01/31 16:36:18.5	356.870	-0.050	-0.310	0.110
2020/01/31 16:36:18.6	356.860	0.020	-0.370	0.140
2020/01/31 16:36:18.7	356.840	0.080	-0.420	0.170
2020/01/31 16:36:18.8	356.830	0.150	-0.470	0.200
2020/01/31 16:36:18.9	356.820	0.210	-0.520	0.220
2020/01/31 16:36:19.0	356.800	0.270	-0.570	0.240
2020/01/31 16:36:19.1	356.790	0.330	-0.620	0.260
2020/01/31 16:36:19.2	356.780	0.380	-0.670	0.270
2020/01/31 16:36:19.3	356.770	0.430	-0.710	0.280
2020/01/31 16:36:19.4	356.760	0.470	-0.750	0.300
2020/01/31 16:36:19.5	356.740	0.520	-0.790	0.300
2020/01/31 16:36:19.6	356.730	0.550	-0.830	0.310
2020/01/31 16:36:19.7	356.720	0.580	-0.860	0.310
2020/01/31 16:36:19.8	356.710	0.610	-0.890	0.310
2020/01/31 16:36:19.9	356.700	0.640	-0.920	0.310
2020/01/31 16:36:20.0	356.690	0.650	-0.940	0.310
2020/01/31 16:36:20.1	356.680	0.670	-0.960	0.300
2020/01/31 16:36:20.2	356.680	0.680	-0.980	0.290
2020/01/31 16:36:20.3	356.680	0.680	-1.000	0.280
2020/01/31 16:36:20.4	356.670	0.690	-1.010	0.260
2020/01/31 16:36:20.5	356.680	0.680	-1.010	0.240
2020/01/31 16:36:20.6	356.680	0.680	-1.020	0.220
2020/01/31 16:36:20.7	356.680	0.670	-1.010	0.200
2020/01/31 16:36:20.8	356.690	0.660	-1.010	0.180
2020/01/31 16:36:20.9	356.700	0.640	-1.000	0.150
2020/01/31 16:36:21.0	356.710	0.630	-0.980	0.130
2020/01/31 16:36:21.1	356.730	0.610	-0.970	0.100
2020/01/31 16:36:21.2	356.740	0.590	-0.940	0.070
2020/01/31 16:36:21.3	356.760	0.570	-0.910	0.050
2020/01/31 16:36:21.4	356.780	0.550	-0.880	0.020
2020/01/31 16:36:21.5	356.800	0.520	-0.850	-0.010
2020/01/31 16:36:21.6	356.830	0.500	-0.810	-0.030
2020/01/31 16:36:21.7	356.840	0.480	-0.770	-0.060
2020/01/31 16:36:21.8	356.870	0.450	-0.720	-0.090
2020/01/31 16:36:21.9	356.890	0.430	-0.670	-0.110
2020/01/31 16:36:22.0	356.920	0.410	-0.620	-0.130
2020/01/31 16:36:22.1	356.940	0.380	-0.560	-0.160
2020/01/31 16:36:22.2	356.970	0.360	-0.500	-0.170
2020/01/31 16:36:22.3	356.990	0.340	-0.440	-0.190
2020/01/31 16:36:22.4	357.020	0.320	-0.380	-0.200
2020/01/31 16:36:22.5	357.040	0.300	-0.310	-0.210
2020/01/31 16:36:22.6	357.060	0.280	-0.240	-0.220
2020/01/31 16:36:22.7	357.080	0.260	-0.170	-0.230
2020/01/31 16:36:22.8	357.090	0.240	-0.110	-0.230
2020/01/31 16:36:22.9	357.110	0.220	-0.040	-0.230
2020/01/31 16:36:23.0	357.120	0.200	0.030	-0.230
2020/01/31 16:36:23.1	357.130	0.190	0.100	-0.220
2020/01/31 16:36:23.2	357.140	0.170	0.160	-0.210
2020/01/31 16:36:23.3	357.150	0.150	0.230	-0.200
2020/01/31 16:36:23.4	357.160	0.130	0.290	-0.190
2020/01/31 16:36:23.5	357.160	0.110	0.340	-0.180
2020/01/31 16:36:23.6	357.160	0.100	0.390	-0.170
2020/01/31 16:36:23.7	357.160	0.080	0.440	-0.160
2020/01/31 16:36:23.8	357.160	0.060	0.480	-0.150
2020/01/31 16:36:23.9	357.160	0.040	0.510	-0.130
2020/01/31 16:36:24.0	357.160	0.020	0.540	-0.120
2020/01/31 16:36:24.1	357.150	-0.000	0.570	-0.110
2020/01/31 16:36:24.2	357.140	-0.030	0.580	-0.100
2020/01/31 16:36:24.3	357.130	-0.050	0.590	-0.090
2020/01/31 16:36:24.4	357.110	-0.070	0.590	-0.080
2020/01/31 16:36:24.5	357.100	-0.090	0.590	-0.070
2020/01/31 16:36:24.6	357.080	-0.120	0.580	-0.060
2020/01/31 16:36:24.7	357.060	-0.140	0.560	-0.050
2020/01/31 16:36:24.8	357.040	-0.160	0.540	-0.050
2020/01/31 16:36:24.9	357.020	-0.190	0.510	-0.050
2020/01/31 16:36:25.0	357.000	-0.210	0.470	-0.050
2020/01/31 16:36:25.1	356.980	-0.230	0.420	-0.050
2020/01/31 16:36:25.2	356.960	-0.260	0.380	-0.050
2020/01/31 16:36:25.3	356.940	-0.280	0.320	-0.060
2020/01/31 16:36:25.4	356.920	-0.300	0.260	-0.070
2020/01/31 16:36:25.5	356.900	-0.320	0.200	-0.090
2020/01/31 16:36:25.6	356.890	-0.340	0.130	-0.100
2020/01/31 16:36:25.7	356.880	-0.360	0.060	-0.130
2020/01/31 16:36:25.8	356.870	-0.380	-0.010	-0.150
2020/01/31 16:36:25.9	356.860	-0.390	-0.090	-0.180
2020/01/31 16:36:26.0	356.860	-0.410	-0.170	-0.210
2020/01/31 16:36:26.1	356.870	-0.420	-0.240	-0.240
2020/01/31 16:36:26.2	356.870	-0.430	-0.320	-0.280
2020/01/31 16:36:26.3	356.880	-0.440	-0.390	-0.320
2020/01/31 16:36:26.4	356.890	-0.450	-0.460	-0.360
2020/01/31 16:36:26.5	356.910	-0.450	-0.530	-0.400
2020/01/31 16:36:26.6	356.930	-0.450	-0.600	-0.440
2020/01/31 16:36:26.7	356.960	-0.450	-0.660	-0.490
2020/01/31 16:36:26.8	356.980	-0.450	-0.720	-0.530
2020/01/31 16:36:26.9	357.010	-0.450	-0.770	-0.570
2020/01/31 16:36:27.0	357.040	-0.440	-0.820	-0.610
2020/01/31 16:36:27.1	357.080	-0.430	-0.850	-0.650
2020/01/31 16:36:27.2	357.110	-0.420	-0.890	-0.680
2020/01/31 16:36:27.3	357.150	-0.410	-0.910	-0.710
2020/01/31 16:36:27.4	357.180	-0.390	-0.930	-0.740
2020/01/31 16:36:27.5	357.210	-0.380	-0.930	-0.760
2020/01/31 16:36:27.6	357.250	-0.360	-0.930	-0.770
2020/01/31 16:36:27.7	357.280	-0.340	-0.920	-0.780
2020/01/31 16:36:27.8	357.310	-0.320	-0.910	-0.780
2020/01/31 16:36:27.9	357.330	-0.290	-0.880	-0.780
2020/01/31 16:36:28.0	357.360	-0.270	-0.850	-0.770
2020/01/31 16:36:28.1	357.380	-0.240	-0.810	-0.750
2020/01/31 16:36:28.2	357.400	-0.220	-0.760	-0.730
2020/01/31 16:36:28.3	357.410	-0.190	-0.710	-0.700
2020/01/31 16:36:28.4	357.430	-0.170	-0.660	-0.660
2020/01/31 16:36:28.5	357.440	-0.140	-0.600	-0.630
2020/01/31 16:36:28.6	357.450	-0.110	-0.540	-0.580
2020/01/31 16:36:28.7	357.450	-0.090	-0.480	-0.540
2020/01/31 16:36:28.8	357.460	-0.060	-0.410	-0.490
2020/01/31 16:36:28.9	357.460	-0.030	-0.340	-0.440
2020/01/31 16:36:29.0	357.460	-0.010	-0.280	-0.390
2020/01/31 16:36:29.1	357.460	0.020	-0.220	-0.340
2020/01/31 16:36:29.2	357.460	0.040	-0.150	-0.290
2020/01/31 16:36:29.3	357.450	0.060	-0.100	-0.240
2020/01/31 16:36:29.4	357.450	0.090	-0.040	-0.190
2020/01/31 16:36:29.5	357.450	0.110	0.010	-0.140
2020/01/31 16:36:29.6	357.440	0.130	0.050	-0.090
2020/01/31 16:36:29.7	357.440	0.150	0.100	-0.050
2020/01/31 16:36:29.8	357.430	0.170	0.130	-0.000
2020/01/31 16:36:29.9	357.430	0.190	0.160	0.040
2020/01/31 16:36:30.0	357.420	0.200	0.180	0.090
2020/01/31 16:36:30.1	357.420	0.220	0.200	0.130
2020/01/31 16:36:30.2	357.410	0.230	0.210	0.170
2020/01/31 16:36:30.3	357.400	0.250	0.210	0.200
2020/01/31 16:36:30.4	357.400	0.260	0.210	0.240
2020/01/31 16:36:30.5	357.390	0.270	0.200	0.270
2020/01/31 16:36:30.6	357.380	0.280	0.190	0.300
2020/01/31 16:36:30.7	357.370	0.290	0.180	0.320
2020/01/31 16:36:30.8	357.360	0.300	0.160	0.350
2020/01/31 16:36:30.9	357.360	0.300	0.130	0.370
2020/01/31 16:36:31.0	357.350	0.310	0.110	0.390
2020/01/31 16:36:31.1	357.330	0.310	0.080	0.400
2020/01/31 16:36:31.2	357.320	0.310	0.050	0.410
2020/01/31 16:36:31.3	357.310	0.310	0.020	0.420
2020/01/31 16:36:31.4	357.300	0.310	-0.010	0.420
2020/01/31 16:36:31.5	357.290	0.310	-0.040	0.420
2020/01/31 16:36:31.6	357.280	0.310	-0.070	0.420
2020/01/31 16:36:31.7	357.270	0.310	-0.100	0.410
2020/01/31 16:36:31.8	357.260	0.300	-0.130	0.390
2020/01/31 16:36:31.9	357.250	0.290	-0.160	0.380
2020/01/31 16:36:32.0	357.240	0.290	-0.180	0.360
2020/01/31 16:36:32.1	357.230	0.280	-0.210	0.340
2020/01/31 16:36:32.2	357.220	0.270	-0.230	0.310
2020/01/31 16:36:32.3	357.210	0.260	-0.250	0.290
2020/01/31 16:36:32.4	357.200	0.250	-0.270	0.260
2020/01/31 16:36:32.5	357.190	0.240	-0.290	0.230
2020/01/31 16:36:32.6	357.190	0.230	-0.300	0.200
2020/01/31 16:36:32.7	357.190	0.220	-0.310	0.160
2020/01/31 16:36:32.8	357.180	0.200	-0.320	0.130
2020/01/31 16:36:32.9	357.180	0.190	-0.330	0.090
2020/01/31 16:36:33.0	357.190	0.170	-0.340	0.050
2020/01/31 16:36:33.1	357.190	0.160	-0.350	0.010
2020/01/31 16:36:33.2	357.200	0.140	-0.350	-0.030
2020/01/31 16:36:33.3	357.210	0.120	-0.360	-0.070
2020/01/31 16:36:33.4	357.220	0.100	-0.360	-0.120
2020/01/31 16:36:33.5	357.230	0.080	-0.370	-0.160
2020/01/31 16:36:33.6	357.250	0.060	-0.370	-0.210
2020/01/31 16:36:33.7	357.260	0.040	-0.370	-0.260
2020/01/31 16:36:33.8	357.280	0.020	-0.370	-0.310
2020/01/31 16:36:33.9	357.300	-0.010	-0.380	-0.360
2020/01/31 16:36:34.0	357.320	-0.030	-0.380	-0.420
2020/01/31 16:36:34.1	357.340	-0.060	-0.380	-0.470
2020/01/31 16:36:34.2	357.370	-0.080	-0.380	-0.520
2020/01/31 16:36:34.3	357.390	-0.110	-0.390	-0.580
2020/01/31 16:36:34.4	357.410	-0.140	-0.390	-0.630
2020/01/31 16:36:34.5	357.440	-0.160	-0.390	-0.680
2020/01/31 16:36:34.6	357.460	-0.190	-0.390	-0.730
2020/01/31 16:36:34.7	357.490	-0.220	-0.390	-0.780
2020/01/31 16:36:34.8	357.520	-0.240	-0.390	-0.830
2020/01/31 16:36:34.9	357.540	-0.270	-0.390	-0.880
2020/01/31 16:36:35.0	357.560	-0.290	-0.390	-0.920
2020/01/31 16:36:35.1	357.580	-0.320	-0.390	-0.960
2020/01/31 16:36:35.2	357.600	-0.340	-0.390	-0.990
2020/01/31 16:36:35.3	357.620	-0.370	-0.390	-1.030
2020/01/31 16:36:35.4	357.640	-0.390	-0.390	-1.060
2020/01/31 16:36:35.5	357.660	-0.410	-0.390	-1.080
2020/01/31 16:36:35.6	357.670	-0.430	-0.380	-1.110
2020/01/31 16:36:35.7	357.690	-0.440	-0.380	-1.130
2020/01/31 16:36:35.8	357.700	-0.460	-0.380	-1.140
2020/01/31 16:36:35.9	357.710	-0.470	-0.380	-1.150
2020/01/31 16:36:36.0	357.720	-0.480	-0.370	-1.150
2020/01/31 16:36:36.1	357.720	-0.490	-0.370	-1.150
2020/01/31 16:36:36.2	357.730	-0.490	-0.360	-1.150
2020/01/31 16:36:36.3	357.730	-0.490	-0.350	-1.140
2020/01/31 16:36:36.4	357.730	-0.490	-0.350	-1.120
2020/01/31 16:36:36.5	357.720	-0.490	-0.340	-1.100
2020/01/31 16:36:36.6	357.720	-0.480	-0.330	-1.070
2020/01/31 16:36:36.7	357.710	-0.470	-0.320	-1.040
2020/01/31 16:36:36.8	357.700	-0.460	-0.310	-1.000
2020/01/31 16:36:36.9	357.690	-0.450	-0.310	-0.960
2020/01/31 16:36:37.0	357.670	-0.430	-0.300	-0.920
2020/01/31 16:36:37.1	357.660	-0.400	-0.300	-0.870
2020/01/31 16:36:37.2	357.640	-0.380	-0.300	-0.820
2020/01/31 16:36:37.3	357.630	-0.350	-0.300	-0.770
2020/01/31 16:36:37.4	357.610	-0.320	-0.300	-0.710
2020/01/31 16:36:37.5	357.600	-0.290	-0.310	-0.650
2020/01/31 16:36:37.6	357.580	-0.250	-0.310	-0.590
2020/01/31 16:36:37.7	357.560	-0.210	-0.330	-0.530
2020/01/31 16:36:37.8	357.540	-0.170	-0.340	-0.470
2020/01/31 16:36:37.9	357.530	-0.130	-0.350	-0.410
2020/01/31 16:36:38.0	357.520	-0.090	-0.370	-0.350
2020/01/31 16:36:38.1	357.510	-0.040	-0.390	-0.300
2020/01/31 16:36:38.2	357.500	0.010	-0.410	-0.240
2020/01/31 16:36:38.3	357.490	0.060	-0.430	-0.180
2020/01/31 16:36:38.4	357.480	0.110	-0.450	-0.130
2020/01/31 16:36:38.5	357.480	0.160	-0.480	-0.080
2020/01/31 16:36:38.6	357.480	0.210	-0.500	-0.030
2020/01/31 16:36:38.7	357.470	0.260	-0.520	0.020
2020/01/31 16:36:38.8	357.470	0.310	-0.550	0.060
2020/01/31 16:36:38.9	357.480	0.360	-0.570	0.100
2020/01/31 16:36:39.0	357.490	0.400	-0.590	0.140
2020/01/31 16:36:39.1	357.500	0.450	-0.610	0.170
2020/01/31 16:36:39.2	357.510	0.490	-0.630	0.200
2020/01/31 16:36:39.3	357.530	0.540	-0.650	0.230
2020/01/31 16:36:39.4	357.540	0.580	-0.660	0.260
2020/01/31 16:36:39.5	357.570	0.610	-0.670	0.280
2020/01/31 16:36:39.6	357.590	0.640	-0.670	0.290
2020/01/31 16:36:39.7	357.610	0.670	-0.670	0.310
2020/01/31 16:36:39.8	357.640	0.700	-0.660	0.320
2020/01/31 16:36:39.9	357.660	0.720	-0.650	0.330
2020/01/31 16:36:40.0	357.690	0.740	-0.640	0.340
2020/01/31 16:36:40.1	357.720	0.750	-0.610	0.350
2020/01/31 16:36:40.2	357.740	0.760	-0.590	0.360
2020/01/31 16:36:40.3	357.760	0.760	-0.550	0.370
2020/01/31 16:36:40.4	357.790	0.760	-0.510	0.370
2020/01/31 16:36:40.5	357.810	0.750	-0.470	0.380
2020/01/31 16:36:40.6	357.830	0.730	-0.420	0.380
2020/01/31 16:36:40.7	357.840	0.710	-0.360	0.390
2020/01/31 16:36:40.8	357.850	0.680	-0.300	0.390
2020/01/31 16:36:40.9	357.870	0.640	-0.230	0.380
2020/01/31 16:36:41.0	357.870	0.600	-0.170	0.380
2020/01/31 16:36:41.1	357.880	0.550	-0.100	0.370
2020/01/31 16:36:41.2	357.880	0.500	-0.020	0.370
2020/01/31 16:36:41.3	357.880	0.440	0.050	0.360
2020/01/31 16:36:41.4	357.870	0.380	0.130	0.340
2020/01/31 16:36:41.5	357.860	0.310	0.200	0.320
2020/01/31 16:36:41.6	357.850	0.240	0.280	0.300
2020/01/31 16:36:41.7	357.840	0.160	0.350	0.280
2020/01/31 16:36:41.8	357.820	0.080	0.420	0.250
2020/01/31 16:36:41.9	357.810	-0.000	0.490	0.220
2020/01/31 16:36:42.0	357.780	-0.090	0.550	0.190
2020/01/31 16:36:42.1	357.760	-0.180	0.600	0.150
2020/01/31 16:36:42.2	357.740	-0.260	0.660	0.120
2020/01/31 16:36:42.3	357.710	-0.350	0.700	0.080
2020/01/31 16:36:42.4	357.680	-0.440	0.740	0.030
2020/01/31 16:36:42.5	357.650	-0.520	0.770	-0.010
2020/01/31 16:36:42.6	357.620	-0.600	0.790	-0.060
2020/01/31 16:36:42.7	357.590	-0.680	0.810	-0.100
2020/01/31 16:36:42.8	357.560	-0.760	0.810	-0.150
2020/01/31 16:36:42.9	357.530	-0.830	0.810	-0.200
2020/01/31 16:36:43.0	357.500	-0.890	0.800	-0.260
2020/01/31 16:36:43.1	357.480	-0.950	0.780	-0.310
2020/01/31 16:36:43.2	357.450	-1.000	0.750	-0.370
2020/01/31 16:36:43.3	357.430	-1.050	0.710	-0.420
2020/01/31 16:36:43.4	357.410	-1.080	0.660	-0.480
2020/01/31 16:36:43.5	357.390	-1.110	0.610	-0.530
2020/01/31 16:36:43.6	357.370	-1.130	0.550	-0.590
2020/01/31 16:36:43.7	357.350	-1.140	0.480	-0.650
2020/01/31 16:36:43.8	357.340	-1.140	0.400	-0.710
2020/01/31 16:36:43.9	357.340	-1.130	0.320	-0.760
2020/01/31 16:36:44.0	357.330	-1.120	0.230	-0.810
2020/01/31 16:36:44.1	357.330	-1.090	0.140	-0.860
2020/01/31 16:36:44.2	357.330	-1.050	0.040	-0.900
2020/01/31 16:36:44.3	357.330	-1.000	-0.060	-0.940
2020/01/31 16:36:44.4	357.330	-0.950	-0.160	-0.970
2020/01/31 16:36:44.5	357.330	-0.890	-0.260	-1.000
2020/01/31 16:36:44.6	357.330	-0.820	-0.360	-1.030
2020/01/31 16:36:44.7	357.340	-0.740	-0.460	-1.050
2020/01/31 16:36:44.8	357.340	-0.660	-0.560	-1.060
2020/01/31 16:36:44.9	357.350	-0.570	-0.650	-1.070
2020/01/31 16:36:45.0	357.350	-0.480	-0.740	-1.070
2020/01/31 16:36:45.1	357.360	-0.380	-0.820	-1.070
2020/01/31 16:36:45.2	357.360	-0.280	-0.900	-1.060
2020/01/31 16:36:45.3	357.370	-0.180	-0.970	-1.050
2020/01/31 16:36:45.4	357.370	-0.080	-1.030	-1.030
2020/01/31 16:36:45.5	357.380	0.020	-1.080	-1.000
2020/01/31 16:36:45.6	357.380	0.120	-1.120	-0.970
2020/01/31 16:36:45.7	357.390	0.210	-1.160	-0.930
2020/01/31 16:36:45.8	357.390	0.310	-1.180	-0.890
2020/01/31 16:36:45.9	357.390	0.400	-1.200	-0.850
2020/01/31 16:36:46.0	357.390	0.480	-1.210	-0.800
2020/01/31 16:36:46.1	357.390	0.560	-1.210	-0.750
2020/01/31 16:36:46.2	357.380	0.640	-1.200	-0.690
2020/01/31 16:36:46.3	357.370	0.700	-1.170	-0.640
2020/01/31 16:36:46.4	357.360	0.760	-1.150	-0.570
2020/01/31 16:36:46.5	357.340	0.810	-1.110	-0.510
2020/01/31 16:36:46.6	357.330	0.860	-1.060	-0.450
2020/01/31 16:36:46.7	357.310	0.890	-1.010	-0.380
2020/01/31 16:36:46.8	357.280	0.920	-0.950	-0.310
2020/01/31 16:36:46.9	357.260	0.940	-0.890	-0.240
2020/01/31 16:36:47.0	357.240	0.950	-0.820	-0.170
2020/01/31 16:36:47.1	357.210	0.950	-0.740	-0.110
2020/01/31 16:36:47.2	357.190	0.950	-0.670	-0.040
2020/01/31 16:36:47.3	357.160	0.940	-0.590	0.030
2020/01/31 16:36:47.4	357.140	0.920	-0.510	0.090
2020/01/31 16:36:47.5	357.110	0.890	-0.430	0.150
2020/01/31 16:36:47.6	357.090	0.860	-0.360	0.220
2020/01/31 16:36:47.7	357.070	0.820	-0.280	0.280
2020/01/31 16:36:47.8	357.050	0.780	-0.210	0.330
2020/01/31 16:36:47.9	357.030	0.740	-0.140	0.380
2020/01/31 16:36:48.0	357.020	0.690	-0.080	0.430
2020/01/31 16:36:48.1	357.010	0.630	-0.020	0.470
2020/01/31 16:36:48.2	357.010	0.580	0.030	0.510
2020/01/31 16:36:48.3	357.010	0.520	0.070	0.530
2020/01/31 16:36:48.4	357.020	0.470	0.110	0.560
2020/01/31 16:36:48.5	357.030	0.410	0.140	0.570
2020/01/31 16:36:48.6	357.050	0.350	0.160	0.570
2020/01/31 16:36:48.7	357.070	0.290	0.170	0.570
2020/01/31 16:36:48.8	357.100	0.240	0.170	0.560
2020/01/31 16:36:48.9	357.130	0.180	0.170	0.540
2020/01/31 16:36:49.0	357.160	0.130	0.160	0.520
2020/01/31 16:36:49.1	357.200	0.080	0.140	0.490
2020/01/31 16:36:49.2	357.230	0.040	0.110	0.460
2020/01/31 16:36:49.3	357.270	-0.010	0.080	0.420
2020/01/31 16:36:49.4	357.320	-0.050	0.040	0.370
2020/01/31 16:36:49.5	357.360	-0.090	-0.000	0.320
2020/01/31 16:36:49.6	357.400	-0.120	-0.050	0.270
2020/01/31 16:36:49.7	357.440	-0.160	-0.090	0.220
2020/01/31 16:36:49.8	357.490	-0.190	-0.140	0.170
2020/01/31 16:36:49.9	357.530	-0.220	-0.180	0.120
2020/01/31 16:36:50.0	357.570	-0.240	-0.230	0.070
2020/01/31 16:36:50.1	357.610	-0.260	-0.280	0.020
2020/01/31 16:36:50.2	357.640	-0.280	-0.320	-0.030
2020/01/31 16:36:50.3	357.670	-0.300	-0.360	-0.070
2020/01/31 16:36:50.4	357.700	-0.310	-0.390	-0.120
2020/01/31 16:36:50.5	357.730	-0.330	-0.420	-0.150
2020/01/31 16:36:50.6	357.750	-0.340	-0.440	-0.190
2020/01/31 16:36:50.7	357.770	-0.350	-0.470	-0.220
2020/01/31 16:36:50.8	357.790	-0.350	-0.480	-0.250
2020/01/31 16:36:50.9	357.800	-0.360	-0.490	-0.270
2020/01/31 16:36:51.0	357.800	-0.370	-0.490	-0.290
2020/01/31 16:36:51.1	357.800	-0.370	-0.490	-0.310
2020/01/31 16:36:51.2	357.800	-0.380	-0.480	-0.320
2020/01/31 16:36:51.3	357.790	-0.380	-0.470	-0.340
2020/01/31 16:36:51.4	357.780	-0.380	-0.450	-0.350
2020/01/31 16:36:51.5	357.770	-0.380	-0.430	-0.360
2020/01/31 16:36:51.6	357.760	-0.390	-0.410	-0.360
2020/01/31 16:36:51.7	357.740	-0.390	-0.380	-0.370
2020/01/31 16:36:51.8	357.720	-0.390	-0.350	-0.380
2020/01/31 16:36:51.9	357.700	-0.390	-0.320	-0.380
2020/01/31 16:36:52.0	357.670	-0.390	-0.280	-0.380
2020/01/31 16:36:52.1	357.650	-0.390	-0.250	-0.380
2020/01/31 16:36:52.2	357.630	-0.380	-0.220	-0.380
2020/01/31 16:36:52.3	357.600	-0.380	-0.180	-0.380
2020/01/31 16:36:52.4	357.580	-0.380	-0.150	-0.380
2020/01/31 16:36:52.5	357.550	-0.370	-0.120	-0.380
2020/01/31 16:36:52.6	357.530	-0.370	-0.090	-0.380
2020/01/31 16:36:52.7	357.510	-0.360	-0.070	-0.370
2020/01/31 16:36:52.8	357.490	-0.350	-0.040	-0.370
2020/01/31 16:36:52.9	357.470	-0.340	-0.020	-0.360
2020/01/31 16:36:53.0	357.450	-0.330	-0.010	-0.350
2020/01/31 16:36:53.1	357.430	-0.320	0.010	-0.350
2020/01/31 16:36:53.2	357.400	-0.310	0.020	-0.340
2020/01/31 16:36:53.3	357.380	-0.290	0.030	-0.330
2020/01/31 16:36:53.4	357.360	-0.270	0.040	-0.320
2020/01/31 16:36:53.5	357.340	-0.260	0.040	-0.310
2020/01/31 16:36:53.6	357.320	-0.240	0.040	-0.300
2020/01/31 16:36:53.7	357.300	-0.210	0.030	-0.300
2020/01/31 16:36:53.8	357.280	-0.190	0.030	-0.290
2020/01/31 16:36:53.9	357.260	-0.170	0.020	-0.280
2020/01/31 16:36:54.0	357.250	-0.140	0.010	-0.270
2020/01/31 16:36:54.1	357.230	-0.110	-0.010	-0.260
2020/01/31 16:36:54.2	357.220	-0.080	-0.020	-0.260
2020/01/31 16:36:54.3	357.210	-0.050	-0.040	-0.250
2020/01/31 16:36:54.4	357.190	-0.020	-0.060	-0.250
2020/01/31 16:36:54.5	357.180	0.010	-0.080	-0.240
2020/01/31 16:36:54.6	357.170	0.050	-0.100	-0.240
2020/01/31 16:36:54.7	357.170	0.080	-0.120	-0.230
2020/01/31 16:36:54.8	357.160	0.110	-0.140	-0.230
2020/01/31 16:36:54.9	357.150	0.150	-0.160	-0.220
2020/01/31 16:36:55.0	357.150	0.180	-0.180	-0.220
2020/01/31 16:36:55.1	357.140	0.220	-0.200	-0.210
2020/01/31 16:36:55.2	357.140	0.250	-0.210	-0.200
2020/01/31 16:36:55.3	357.130	0.280	-0.230	-0.190
2020/01/31 16:36:55.4	357.130	0.310	-0.240	-0.180
2020/01/31 16:36:55.5	357.120	0.340	-0.260	-0.170
2020/01/31 16:36:55.6	357.120	0.360	-0.270	-0.150
2020/01/31 16:36:55.7	357.120	0.390	-0.270	-0.130
2020/01/31 16:36:55.8	357.110	0.410	-0.280	-0.120
2020/01/31 16:36:55.9	357.110	0.430	-0.280	-0.100
2020/01/31 16:36:56.0	357.100	0.450	-0.280	-0.080
2020/01/31 16:36:56.1	357.090	0.460	-0.280	-0.060
2020/01/31 16:36:56.2	357.090	0.470	-0.280	-0.030
2020/01/31 16:36:56.3	357.080	0.480	-0.280	-0.010
2020/01/31 16:36:56.4	357.070	0.480	-0.270	0.020
2020/01/31 16:36:56.5	357.060	0.480	-0.260	0.040
2020/01/31 16:36:56.6	357.050	0.470	-0.250	0.070
2020/01/31 16:36:56.7	357.040	0.470	-0.240	0.090
2020/01/31 16:36:56.8	357.030	0.450	-0.230	0.110
2020/01/31 16:36:56.9	357.030	0.440	-0.220	0.140
2020/01/31 16:36:57.0	357.020	0.420	-0.210	0.160
2020/01/31 16:36:57.1	357.010	0.400	-0.200	0.180
2020/01/31 16:36:57.2	357.010	0.370	-0.190	0.200
2020/01/31 16:36:57.3	357.000	0.340	-0.180	0.210
2020/01/31 16:36:57.4	357.000	0.310	-0.170	0.220
2020/01/31 16:36:57.5	357.000	0.280	-0.170	0.230
2020/01/31 16:36:57.6	357.000	0.240	-0.160	0.230
2020/01/31 16:36:57.7	357.000	0.200	-0.160	0.230
2020/01/31 16:36:57.8	357.010	0.170	-0.160	0.220
2020/01/31 16:36:57.9	357.020	0.130	-0.160	0.210
2020/01/31 16:36:58.0	357.020	0.090	-0.160	0.200
2020/01/31 16:36:58.1	357.040	0.050	-0.160	0.180
2020/01/31 16:36:58.2	357.050	0.010	-0.170	0.160
2020/01/31 16:36:58.3	357.060	-0.030	-0.180	0.130
2020/01/31 16:36:58.4	357.070	-0.070	-0.190	0.100
2020/01/31 16:36:58.5	357.090	-0.110	-0.200	0.070
2020/01/31 16:36:58.6	357.110	-0.150	-0.210	0.040
2020/01/31 16:36:58.7	357.120	-0.180	-0.230	0.000
2020/01/31 16:36:58.8	357.140	-0.210	-0.240	-0.030
2020/01/31 16:36:58.9	357.150	-0.240	-0.260	-0.060
2020/01/31 16:36:59.0	357.160	-0.270	-0.270	-0.100
2020/01/31 16:36:59.1	357.180	-0.300	-0.290	-0.130
2020/01/31 16:36:59.2	357.190	-0.320	-0.300	-0.170
2020/01/31 16:36:59.3	357.200	-0.340	-0.310	-0.200
2020/01/31 16:36:59.4	357.210	-0.360	-0.320	-0.230
2020/01/31 16:36:59.5	357.220	-0.380	-0.340	-0.260
2020/01/31 16:36:59.6	357.230	-0.390	-0.350	-0.300
2020/01/31 16:36:59.7	357.240	-0.410	-0.350	-0.330
2020/01/31 16:36:59.8	357.250	-0.410	-0.360	-0.360
2020/01/31 16:36:59.9	357.250	-0.420	-0.370	-0.390
2020/01/31 16:37:00.0	357.260	-0.420	-0.380	-0.430
2020/01/31 16:37:00.1	357.270	-0.420	-0.390	-0.460
2020/01/31 16:37:00.2	357.280	-0.420	-0.400	-0.490
2020/01/31 16:37:00.3	357.290	-0.420	-0.420	-0.520
2020/01/31 16:37:00.4	357.310	-0.410	-0.430	-0.560
2020/01/31 16:37:00.5	357.320	-0.400	-0.440	-0.590
2020/01/31 16:37:00.6	357.340	-0.380	-0.450	-0.630
2020/01/31 16:37:00.7	357.350	-0.370	-0.470	-0.670
2020/01/31 16:37:00.8	357.370	-0.350	-0.490	-0.710
2020/01/31 16:37:00.9	357.390	-0.330	-0.500	-0.740
2020/01/31 16:37:01.0	357.410	-0.300	-0.520	-0.780
2020/01/31 16:37:01.1	357.430	-0.280	-0.540	-0.820
2020/01/31 16:37:01.2	357.460	-0.250	-0.560	-0.870
2020/01/31 16:37:01.3	357.490	-0.220	-0.580	-0.910
2020/01/31 16:37:01.4	357.520	-0.180	-0.600	-0.950
2020/01/31 16:37:01.5	357.560	-0.150	-0.620	-0.990
2020/01/31 16:37:01.6	357.590	-0.110	-0.650	-1.020
2020/01/31 16:37:01.7	357.620	-0.070	-0.660	-1.060
2020/01/31 16:37:01.8	357.660	-0.030	-0.680	-1.090
2020/01/31 16:37:01.9	357.690	0.010	-0.700	-1.120
2020/01/31 16:37:02.0	357.730	0.050	-0.710	-1.150
2020/01/31 16:37:02.1	357.760	0.090	-0.720	-1.160
2020/01/31 16:37:02.2	357.790	0.130	-0.720	-1.170
2020/01/31 16:37:02.3	357.820	0.170	-0.730	-1.180
2020/01/31 16:37:02.4	357.850	0.200	-0.720	-1.180
2020/01/31 16:37:02.5	357.870	0.240	-0.710	-1.170
2020/01/31 16:37:02.6	357.890	0.270	-0.700	-1.150
2020/01/31 16:37:02.7	357.910	0.310	-0.680	-1.120
2020/01/31 16:37:02.8	357.920	0.340	-0.650	-1.090
2020/01/31 16:37:02.9	357.930	0.360	-0.620	-1.050
2020/01/31 16:37:03.0	357.940	0.390	-0.580	-1.010
2020/01/31 16:37:03.1	357.940	0.410	-0.530	-0.960
2020/01/31 16:37:03.2	357.940	0.430	-0.490	-0.910
2020/01/31 16:37:03.3	357.930	0.440	-0.430	-0.850
2020/01/31 16:37:03.4	357.920	0.450	-0.380	-0.790
2020/01/31 16:37:03.5	357.900	0.460	-0.320	-0.730
2020/01/31 16:37:03.6	357.890	0.460	-0.250	-0.660
2020/01/31 16:37:03.7	357.870	0.460	-0.190	-0.600
2020/01/31 16:37:03.8	357.840	0.450	-0.130	-0.530
2020/01/31 16:37:03.9	357.810	0.440	-0.060	-0.460
2020/01/31 16:37:04.0	357.780	0.430	0.010	-0.400
2020/01/31 16:37:04.1	357.750	0.410	0.070	-0.330
2020/01/31 16:37:04.2	357.720	0.390	0.130	-0.260
2020/01/31 16:37:04.3	357.680	0.370	0.190	-0.200
2020/01/31 16:37:04.4	357.640	0.350	0.250	-0.140
2020/01/31 16:37:04.5	357.610	0.320	0.300	-0.090
2020/01/31 16:37:04.6	357.570	0.290	0.350	-0.040
2020/01/31 16:37:04.7	357.530	0.250	0.400	0.010
2020/01/31 16:37:04.8	357.490	0.220	0.430	0.060
2020/01/31 16:37:04.9	357.460	0.190	0.460	0.090
2020/01/31 16:37:05.0	357.420	0.150	0.490	0.120
2020/01/31 16:37:05.1	357.390	0.110	0.510	0.150
2020/01/31 16:37:05.2	357.350	0.070	0.520	0.170
2020/01/31 16:37:05.3	357.320	0.040	0.520	0.190
2020/01/31 16:37:05.4	357.300	0.000	0.520	0.200
2020/01/31 16:37:05.5	357.270	-0.040	0.510	0.200
2020/01/31 16:37:05.6	357.250	-0.070	0.490	0.200
2020/01/31 16:37:05.7	357.230	-0.110	0.470	0.190
2020/01/31 16:37:05.8	357.220	-0.140	0.450	0.180
2020/01/31 16:37:05.9	357.200	-0.170	0.410	0.160
2020/01/31 16:37:06.0	357.200	-0.200	0.370	0.140
2020/01/31 16:37:06.1	357.190	-0.230	0.330	0.110
2020/01/31 16:37:06.2	357.190	-0.250	0.290	0.070
2020/01/31 16:37:06.3	357.190	-0.280	0.230	0.040
2020/01/31 16:37:06.4	357.190	-0.300	0.180	-0.010
2020/01/31 16:37:06.5	357.200	-0.310	0.130	-0.050
2020/01/31 16:37:06.6	357.220	-0.330	0.070	-0.110
2020/01/31 16:37:06.7	357.230	-0.340	0.010	-0.160
2020/01/31 16:37:06.8	357.250	-0.350	-0.050	-0.220
2020/01/31 16:37:06.9	357.270	-0.350	-0.110	-0.280
2020/01/31 16:37:07.0	357.300	-0.360	-0.170	-0.340
2020/01/31 16:37:07.1	357.330	-0.360	-0.240	-0.400
2020/01/31 16:37:07.2	357.350	-0.360	-0.290	-0.460
2020/01/31 16:37:07.3	357.380	-0.350	-0.350	-0.520
2020/01/31 16:37:07.4	357.410	-0.350	-0.410	-0.580
2020/01/31 16:37:07.5	357.440	-0.340	-0.460	-0.630
2020/01/31 16:37:07.6	357.470	-0.330	-0.510	-0.680
2020/01/31 16:37:07.7	357.490	-0.320	-0.560	-0.730
2020/01/31 16:37:07.8	357.520	-0.310	-0.600	-0.780
2020/01/31 16:37:07.9	357.540	-0.300	-0.640	-0.820
2020/01/31 16:37:08.0	357.570	-0.280	-0.670	-0.850
2020/01/31 16:37:08.1	357.590	-0.270	-0.700	-0.890
2020/01/31 16:37:08.2	357.610	-0.250	-0.730	-0.920
2020/01/31 16:37:08.3	357.640	-0.240	-0.750	-0.940
2020/01/31 16:37:08.4	357.660	-0.220	-0.760	-0.960
2020/01/31 16:37:08.5	357.680	-0.210	-0.770	-0.980
2020/01/31 16:37:08.6	357.700	-0.190	-0.780	-1.000
2020/01/31 16:37:08.7	357.720	-0.180	-0.780	-1.010
2020/01/31 16:37:08.8	357.740	-0.160	-0.770	-1.010
2020/01/31 16:37:08.9	357.760	-0.150	-0.770	-1.020
2020/01/31 16:37:09.0	357.780	-0.130	-0.750	-1.020
2020/01/31 16:37:09.1	357.810	-0.120	-0.740	-1.020
2020/01/31 16:37:09.2	357.830	-0.100	-0.720	-1.010
2020/01/31 16:37:09.3	357.850	-0.090	-0.700	-1.010
2020/01/31 16:37:09.4	357.870	-0.080	-0.670	-1.000
2020/01/31 16:37:09.5	357.890	-0.070	-0.650	-0.990
2020/01/31 16:37:09.6	357.910	-0.060	-0.620	-0.970
2020/01/31 16:37:09.7	357.940	-0.050	-0.580	-0.950
2020/01/31 16:37:09.8	357.960	-0.040	-0.550	-0.930
2020/01/31 16:37:09.9	357.970	-0.030	-0.510	-0.910
2020/01/31 16:37:10.0	357.990	-0.020	-0.470	-0.880
2020/01/31 16:37:10.1	358.000	-0.020	-0.430	-0.840
2020/01/31 16:37:10.2	358.000	-0.010	-0.390	-0.810
2020/01/31 16:37:10.3	358.010	-0.010	-0.340	-0.770
2020/01/31 16:37:10.4	358.010	-0.000	-0.300	-0.720
2020/01/31 16:37:10.5	358.000	0.000	-0.250	-0.670
2020/01/31 16:37:10.6	358.000	0.010	-0.200	-0.620
2020/01/31 16:37:10.7	357.990	0.010	-0.160	-0.570
2020/01/31 16:37:10.8	357.970	0.010	-0.110	-0.520
2020/01/31 16:37:10.9	357.960	0.020	-0.070	-0.460
2020/01/31 16:37:11.0	357.940	0.020	-0.020	-0.400
2020/01/31 16:37:11.1	357.910	0.030	0.020	-0.340
2020/01/31 16:37:11.2	357.890	0.030	0.060	-0.280
2020/01/31 16:37:11.3	357.860	0.040	0.100	-0.220
2020/01/31 16:37:11.4	357.830	0.040	0.140	-0.160
2020/01/31 16:37:11.5	357.800	0.050	0.170	-0.100
2020/01/31 16:37:11.6	357.770	0.060	0.200	-0.040
2020/01/31 16:37:11.7	357.740	0.060	0.220	0.010
2020/01/31 16:37:11.8	357.710	0.070	0.240	0.070
2020/01/31 16:37:11.9	357.680	0.080	0.250	0.120
2020/01/31 16:37:12.0	357.650	0.100	0.260	0.170
2020/01/31 16:37:12.1	357.620	0.110	0.260	0.210
2020/01/31 16:37:12.2	357.600	0.120	0.250	0.250
2020/01/31 16:37:12.3	357.580	0.140	0.240	0.280
2020/01/31 16:37:12.4	357.560	0.160	0.220	0.310
2020/01/31 16:37:12.5	357.540	0.180	0.190	0.330
2020/01/31 16:37:12.6	357.530	0.200	0.160	0.340
2020/01/31 16:37:12.7	357.520	0.220	0.120	0.350
2020/01/31 16:37:12.8	357.520	0.240	0.070	0.350
2020/01/31 16:37:12.9	357.520	0.260	0.020	0.340
2020/01/31 16:37:13.0	357.520	0.290	-0.040	0.330
2020/01/31 16:37:13.1	357.530	0.310	-0.110	0.320
2020/01/31 16:37:13.2	357.540	0.330	-0.180	0.300
2020/01/31 16:37:13.3	357.550	0.360	-0.250	0.280
2020/01/31 16:37:13.4	357.570	0.380	-0.330	0.250
2020/01/31 16:37:13.5	357.590	0.400	-0.400	0.220
2020/01/31 16:37:13.6	357.610	0.420	-0.480	0.190
2020/01/31 16:37:13.7	357.630	0.440	-0.560	0.150
2020/01/31 16:37:13.8	357.650	0.460	-0.630	0.120
2020/01/31 16:37:13.9	357.670	0.480	-0.710	0.080
2020/01/31 16:37:14.0	357.700	0.490	-0.780	0.050
2020/01/31 16:37:14.1	357.720	0.500	-0.850	0.010
2020/01/31 16:37:14.2	357.750	0.510	-0.910	-0.030
2020/01/31 16:37:14.3	357.770	0.510	-0.970	-0.070
2020/01/31 16:37:14.4	357.790	0.510	-1.020	-0.110
2020/01/31 16:37:14.5	357.820	0.510	-1.060	-0.150
2020/01/31 16:37:14.6	357.840	0.500	-1.100	-0.190
2020/01/31 16:37:14.7	357.860	0.490	-1.130	-0.230
2020/01/31 16:37:14.8	357.880	0.480	-1.150	-0.280
2020/01/31 16:37:14.9	357.910	0.460	-1.160	-0.320
2020/01/31 16:37:15.0	357.930	0.430	-1.160	-0.370
2020/01/31 16:37:15.1	357.950	0.400	-1.160	-0.410
2020/01/31 16:37:15.2	357.970	0.370	-1.140	-0.460
2020/01/31 16:37:15.3	357.990	0.340	-1.120	-0.500
2020/01/31 16:37:15.4	358.000	0.300	-1.090	-0.550
2020/01/31 16:37:15.5	358.020	0.260	-1.050	-0.600
2020/01/31 16:37:15.6	358.040	0.220	-1.000	-0.640
2020/01/31 16:37:15.7	358.060	0.170	-0.950	-0.690
2020/01/31 16:37:15.8	358.070	0.120	-0.890	-0.730
2020/01/31 16:37:15.9	358.090	0.080	-0.820	-0.770
2020/01/31 16:37:16.0	358.100	0.030	-0.750	-0.800
2020/01/31 16:37:16.1	358.110	-0.020	-0.670	-0.840
2020/01/31 16:37:16.2	358.120	-0.070	-0.590	-0.870
2020/01/31 16:37:16.3	358.130	-0.120	-0.510	-0.890
2020/01/31 16:37:16.4	358.130	-0.170	-0.420	-0.920
2020/01/31 16:37:16.5	358.140	-0.220	-0.340	-0.940
2020/01/31 16:37:16.6	358.150	-0.270	-0.250	-0.960
2020/01/31 16:37:16.7	358.150	-0.310	-0.160	-0.980
2020/01/31 16:37:16.8	358.150	-0.350	-0.080	-0.990
2020/01/31 16:37:16.9	358.160	-0.390	0.010	-1.000
2020/01/31 16:37:17.0	358.160	-0.430	0.090	-1.010
2020/01/31 16:37:17.1	358.170	-0.460	0.160	-1.010
2020/01/31 16:37:17.2	358.170	-0.480	0.240	-1.010
2020/01/31 16:37:17.3	358.180	-0.510	0.310	-1.010
2020/01/31 16:37:17.4	358.190	-0.520	0.370	-1.010
2020/01/31 16:37:17.5	358.190	-0.540	0.430	-1.000
2020/01/31 16:37:17.6	358.200	-0.540	0.480	-0.990
2020/01/31 16:37:17.7	358.210	-0.550	0.530	-0.980
2020/01/31 16:37:17.8	358.210	-0.550	0.570	-0.960
2020/01/31 16:37:17.9	358.220	-0.540	0.600	-0.950
2020/01/31 16:37:18.0	358.220	-0.530	0.630	-0.930
2020/01/31 16:37:18.1	358.230	-0.520	0.660	-0.900
2020/01/31 16:37:18.2	358.240	-0.500	0.670	-0.880
2020/01/31 16:37:18.3	358.240	-0.480	0.690	-0.850
2020/01/31 16:37:18.4	358.250	-0.460	0.690	-0.820
2020/01/31 16:37:18.5	358.250	-0.430	0.700	-0.780
2020/01/31 16:37:18.6	358.250	-0.400	0.690	-0.740
2020/01/31 16:37:18.7	358.240	-0.370	0.680	-0.710
2020/01/31 16:37:18.8	358.240	-0.330	0.670	-0.660
2020/01/31 16:37:18.9	358.240	-0.290	0.660	-0.610
2020/01/31 16:37:19.0	358.230	-0.260	0.640	-0.560
2020/01/31 16:37:19.1	358.220	-0.220	0.620	-0.510
2020/01/31 16:37:19.2	358.210	-0.180	0.600	-0.450
2020/01/31 16:37:19.3	358.200	-0.140	0.570	-0.400
2020/01/31 16:37:19.4	358.180	-0.110	0.540	-0.330
2020/01/31 16:37:19.5	358.170	-0.070	0.510	-0.270
2020/01/31 16:37:19.6	358.150	-0.030	0.480	-0.200
2020/01/31 16:37:19.7	358.110	0.000	0.450	-0.130
2020/01/31 16:37:19.8	358.090	0.030	0.420	-0.060
2020/01/31 16:37:19.9	358.060	0.060	0.380	0.010
2020/01/31 16:37:20.0	358.030	0.090	0.350	0.080
2020/01/31 16:37:20.1	357.990	0.110	0.310	0.150
2020/01/31 16:37:20.2	357.960	0.140	0.270	0.210
2020/01/31 16:37:20.3	357.920	0.160	0.230	0.270
2020/01/31 16:37:20.4	357.890	0.170	0.190	0.330
2020/01/31 16:37:20.5	357.850	0.190	0.150	0.390
2020/01/31 16:37:20.6	357.810	0.200	0.100	0.430
2020/01/31 16:37:20.7	357.770	0.210	0.060	0.480
2020/01/31 16:37:20.8	357.740	0.210	0.010	0.510
2020/01/31 16:37:20.9	357.700	0.220	-0.050	0.540
2020/01/31 16:37:21.0	357.670	0.220	-0.100	0.560
2020/01/31 16:37:21.1	357.640	0.220	-0.160	0.580
2020/01/31 16:37:21.2	357.620	0.220	-0.220	0.580
2020/01/31 16:37:21.3	357.600	0.210	-0.290	0.580
2020/01/31 16:37:21.4	357.580	0.210	-0.350	0.570
2020/01/31 16:37:21.5	357.570	0.200	-0.420	0.550
2020/01/31 16:37:21.6	357.560	0.190	-0.490	0.530
2020/01/31 16:37:21.7	357.560	0.190	-0.560	0.500
2020/01/31 16:37:21.8	357.550	0.180	-0.630	0.460
2020/01/31 16:37:21.9	357.560	0.170	-0.700	0.420
2020/01/31 16:37:22.0	357.560	0.170	-0.770	0.370
2020/01/31 16:37:22.1	357.580	0.160	-0.840	0.320
2020/01/31 16:37:22.2	357.590	0.150	-0.910	0.260
2020/01/31 16:37:22.3	357.610	0.140	-0.970	0.200
2020/01/31 16:37:22.4	357.630	0.140	-1.030	0.140
2020/01/31 16:37:22.5	357.650	0.130	-1.090	0.070
2020/01/31 16:37:22.6	357.680	0.130	-1.150	0.010
2020/01/31 16:37:22.7	357.710	0.120	-1.200	-0.070
2020/01/31 16:37:22.8	357.740	0.120	-1.240	-0.140
2020/01/31 16:37:22.9	357.770	0.120	-1.280	-0.210
2020/01/31 16:37:23.0	357.800	0.110	-1.310	-0.270
2020/01/31 16:37:23.1	357.830	0.110	-1.330	-0.340
2020/01/31 16:37:23.2	357.860	0.110	-1.350	-0.410
2020/01/31 16:37:23.3	357.890	0.100	-1.360	-0.470
2020/01/31 16:37:23.4	357.910	0.100	-1.360	-0.530
2020/01/31 16:37:23.5	357.940	0.090	-1.350	-0.590
2020/01/31 16:37:23.6	357.960	0.090	-1.330	-0.640
2020/01/31 16:37:23.7	357.990	0.080	-1.310	-0.690
2020/01/31 16:37:23.8	358.010	0.080	-1.270	-0.740
2020/01/31 16:37:23.9	358.030	0.070	-1.230	-0.790
2020/01/31 16:37:24.0	358.050	0.060	-1.190	-0.830
2020/01/31 16:37:24.1	358.070	0.050	-1.140	-0.860
2020/01/31 16:37:24.2	358.090	0.040	-1.080	-0.900
2020/01/31 16:37:24.3	358.100	0.030	-1.010	-0.930
2020/01/31 16:37:24.4	358.120	0.020	-0.950	-0.950
2020/01/31 16:37:24.5	358.140	0.000	-0.870	-0.980
2020/01/31 16:37:24.6	358.150	-0.010	-0.800	-0.990
2020/01/31 16:37:24.7	358.170	-0.030	-0.730	-1.010
2020/01/31 16:37:24.8	358.190	-0.040	-0.650	-1.020
2020/01/31 16:37:24.9	358.200	-0.060	-0.570	-1.030
2020/01/31 16:37:25.0	358.220	-0.080	-0.500	-1.030
2020/01/31 16:37:25.1	358.230	-0.090	-0.420	-1.030
2020/01/31 16:37:25.2	358.250	-0.110	-0.350	-1.030
2020/01/31 16:37:25.3	358.270	-0.120	-0.280	-1.030
2020/01/31 16:37:25.4	358.280	-0.140	-0.220	-1.020
2020/01/31 16:37:25.5	358.300	-0.150	-0.160	-1.010
2020/01/31 16:37:25.6	358.310	-0.170	-0.100	-1.000
2020/01/31 16:37:25.7	358.320	-0.180	-0.050	-0.990
2020/01/31 16:37:25.8	358.340	-0.190	0.000	-0.970
2020/01/31 16:37:25.9	358.350	-0.210	0.040	-0.950
2020/01/31 16:37:26.0	358.360	-0.220	0.080	-0.930
2020/01/31 16:37:26.1	358.370	-0.220	0.120	-0.910
2020/01/31 16:37:26.2	358.380	-0.230	0.150	-0.880
2020/01/31 16:37:26.3	358.380	-0.240	0.180	-0.850
2020/01/31 16:37:26.4	358.390	-0.240	0.200	-0.820
2020/01/31 16:37:26.5	358.400	-0.240	0.220	-0.790
2020/01/31 16:37:26.6	358.400	-0.240	0.230	-0.760
2020/01/31 16:37:26.7	358.400	-0.240	0.240	-0.730
2020/01/31 16:37:26.8	358.400	-0.230	0.250	-0.700
2020/01/31 16:37:26.9	358.400	-0.220	0.250	-0.660
2020/01/31 16:37:27.0	358.400	-0.210	0.250	-0.620
2020/01/31 16:37:27.1	358.400	-0.200	0.250	-0.590
2020/01/31 16:37:27.2	358.390	-0.190	0.240	-0.550
2020/01/31 16:37:27.3	358.390	-0.170	0.240	-0.510
2020/01/31 16:37:27.4	358.390	-0.150	0.230	-0.470
2020/01/31 16:37:27.5	358.380	-0.120	0.220	-0.430
2020/01/31 16:37:27.6	358.380	-0.100	0.210	-0.380
2020/01/31 16:37:27.7	358.380	-0.070	0.190	-0.340
2020/01/31 16:37:27.8	358.370	-0.040	0.180	-0.300
2020/01/31 16:37:27.9	358.370	-0.000	0.160	-0.260
2020/01/31 16:37:28.0	358.360	0.030	0.150	-0.210
2020/01/31 16:37:28.1	358.360	0.070	0.130	-0.170
2020/01/31 16:37:28.2	358.350	0.110	0.120	-0.120
2020/01/31 16:37:28.3	358.350	0.140	0.100	-0.080
2020/01/31 16:37:28.4	358.340	0.180	0.080	-0.040
2020/01/31 16:37:28.5	358.340	0.220	0.060	0.010
2020/01/31 16:37:28.6	358.330	0.260	0.050	0.050
2020/01/31 16:37:28.7	358.320	0.300	0.030	0.090
2020/01/31 16:37:28.8	358.320	0.340	0.010	0.130
2020/01/31 16:37:28.9	358.310	0.380	-0.010	0.170
2020/01/31 16:37:29.0	358.310	0.410	-0.030	0.200
2020/01/31 16:37:29.1	358.310	0.440	-0.040	0.240
2020/01/31 16:37:29.2	358.300	0.470	-0.060	0.270
2020/01/31 16:37:29.3	358.300	0.500	-0.080	0.290
2020/01/31 16:37:29.4	358.300	0.520	-0.100	0.320
2020/01/31 16:37:29.5	358.300	0.540	-0.110	0.340
2020/01/31 16:37:29.6	358.300	0.560	-0.130	0.360
2020/01/31 16:37:29.7	358.300	0.570	-0.150	0.370
2020/01/31 16:37:29.8	358.300	0.580	-0.170	0.390
2020/01/31 16:37:29.9	358.310	0.590	-0.190	0.400
2020/01/31 16:37:30.0	358.310	0.590	-0.200	0.410
2020/01/31 16:37:30.1	358.310	0.590	-0.220	0.410
2020/01/31 16:37:30.2	358.320	0.580	-0.240	0.410
2020/01/31 16:37:30.3	358.320	0.570	-0.260	0.410
2020/01/31 16:37:30.4	358.320	0.560	-0.280	0.400
2020/01/31 16:37:30.5	358.330	0.540	-0.290	0.390
2020/01/31 16:37:30.6	358.330	0.520	-0.310	0.380
2020/01/31 16:37:30.7	358.330	0.490	-0.320	0.360
2020/01/31 16:37:30.8	358.330	0.460	-0.340	0.340
2020/01/31 16:37:30.9	358.330	0.430	-0.350	0.320
2020/01/31 16:37:31.0	358.330	0.390	-0.350	0.300
2020/01/31 16:37:31.1	358.330	0.350	-0.360	0.270
2020/01/31 16:37:31.2	358.320	0.310	-0.360	0.240
2020/01/31 16:37:31.3	358.310	0.270	-0.360	0.210
2020/01/31 16:37:31.4	358.300	0.220	-0.360	0.180
2020/01/31 16:37:31.5	358.290	0.180	-0.350	0.150
2020/01/31 16:37:31.6	358.270	0.130	-0.340	0.110
2020/01/31 16:37:31.7	358.250	0.080	-0.330	0.080
2020/01/31 16:37:31.8	358.230	0.030	-0.310	0.050
2020/01/31 16:37:31.9	358.200	-0.020	-0.290	0.010
2020/01/31 16:37:32.0	358.170	-0.070	-0.260	-0.020
2020/01/31 16:37:32.1	358.150	-0.120	-0.240	-0.050
2020/01/31 16:37:32.2	358.110	-0.180	-0.210	-0.080
2020/01/31 16:37:32.3	358.080	-0.230	-0.180	-0.110
2020/01/31 16:37:32.4	358.040	-0.270	-0.150	-0.140
2020/01/31 16:37:32.5	358.000	-0.320	-0.110	-0.170
2020/01/31 16:37:32.6	357.970	-0.370	-0.080	-0.200
2020/01/31 16:37:32.7	357.930	-0.420	-0.050	-0.230
2020/01/31 16:37:32.8	357.890	-0.460	-0.010	-0.270
2020/01/31 16:37:32.9	357.850	-0.500	0.010	-0.300
2020/01/31 16:37:33.0	357.820	-0.540	0.040	-0.340
2020/01/31 16:37:33.1	357.780	-0.580	0.070	-0.380
2020/01/31 16:37:33.2	357.750	-0.610	0.090	-0.420
2020/01/31 16:37:33.3	357.720	-0.640	0.110	-0.460
2020/01/31 16:37:33.4	357.690	-0.670	0.120	-0.500
2020/01/31 16:37:33.5	357.670	-0.700	0.130	-0.550
2020/01/31 16:37:33.6	357.650	-0.720	0.130	-0.590
2020/01/31 16:37:33.7	357.630	-0.730	0.130	-0.640
2020/01/31 16:37:33.8	357.610	-0.750	0.120	-0.690
2020/01/31 16:37:33.9	357.600	-0.760	0.110	-0.740
2020/01/31 16:37:34.0	357.600	-0.760	0.090	-0.790
2020/01/31 16:37:34.1	357.600	-0.760	0.070	-0.850
2020/01/31 16:37:34.2	357.600	-0.760	0.040	-0.900
2020/01/31 16:37:34.3	357.610	-0.750	0.010	-0.950
2020/01/31 16:37:34.4	357.620	-0.740	-0.020	-0.990
2020/01/31 16:37:34.5	357.630	-0.720	-0.060	-1.040
2020/01/31 16:37:34.6	357.650	-0.700	-0.100	-1.080
2020/01/31 16:37:34.7	357.670	-0.680	-0.150	-1.130
2020/01/31 16:37:34.8	357.690	-0.650	-0.190	-1.170
2020/01/31 16:37:34.9	357.720	-0.620	-0.240	-1.200
2020/01/31 16:37:35.0	357.740	-0.590	-0.280	-1.230
2020/01/31 16:37:35.1	357.770	-0.550	-0.330	-1.250
2020/01/31 16:37:35.2	357.790	-0.510	-0.370	-1.270
2020/01/31 16:37:35.3	357.820	-0.470	-0.410	-1.280
2020/01/31 16:37:35.4	357.850	-0.430	-0.450	-1.290
2020/01/31 16:37:35.5	357.880	-0.380	-0.490	-1.300
2020/01/31 16:37:35.6	357.900	-0.340	-0.520	-1.300
2020/01/31 16:37:35.7	357.940	-0.290	-0.550	-1.290
2020/01/31 16:37:35.8	357.960	-0.240	-0.570	-1.280
2020/01/31 16:37:35.9	357.990	-0.190	-0.600	-1.260
2020/01/31 16:37:36.0	358.010	-0.140	-0.610	-1.240
2020/01/31 16:37:36.1	358.040	-0.100	-0.630	-1.220
2020/01/31 16:37:36.2	358.060	-0.050	-0.640	-1.190
2020/01/31 16:37:36.3	358.080	-0.000	-0.650	-1.150
2020/01/31 16:37:36.4	358.100	0.050	-0.650	-1.120
2020/01/31 16:37:36.5	358.120	0.090	-0.650	-1.070
2020/01/31 16:37:36.6	358.140	0.130	-0.650	-1.030
2020/01/31 16:37:36.7	358.160	0.180	-0.640	-0.980
2020/01/31 16:37:36.8	358.180	0.220	-0.640	-0.930
2020/01/31 16:37:36.9	358.200	0.250	-0.630	-0.880
2020/01/31 16:37:37.0	358.210	0.290	-0.620	-0.820
2020/01/31 16:37:37.1	358.230	0.320	-0.610	-0.760
2020/01/31 16:37:37.2	358.240	0.360	-0.600	-0.700
2020/01/31 16:37:37.3	358.250	0.380	-0.590	-0.640
2020/01/31 16:37:37.4	358.270	0.410	-0.590	-0.580
2020/01/31 16:37:37.5	358.280	0.430	-0.580	-0.530
2020/01/31 16:37:37.6	358.290	0.450	-0.570	-0.470
2020/01/31 16:37:37.7	358.300	0.470	-0.570	-0.410
2020/01/31 16:37:37.8	358.310	0.480	-0.570	-0.350
2020/01/31 16:37:37.9	358.330	0.490	-0.570	-0.300
2020/01/31 16:37:38.0	358.340	0.500	-0.570	-0.250
2020/01/31 16:37:38.1	358.350	0.510	-0.570	-0.200
2020/01/31 16:37:38.2	358.370	0.510	-0.580	-0.160
2020/01/31 16:37:38.3	358.380	0.510	-0.580	-0.120
2020/01/31 16:37:38.4	358.400	0.510	-0.590	-0.090
2020/01/31 16:37:38.5	358.410	0.510	-0.600	-0.060
2020/01/31 16:37:38.6	358.430	0.500	-0.610	-0.030
2020/01/31 16:37:38.7	358.450	0.490	-0.620	-0.010
2020/01/31 16:37:38.8	358.460	0.480	-0.630	0.010
2020/01/31 16:37:38.9	358.480	0.470	-0.640	0.020
2020/01/31 16:37:39.0	358.490	0.460	-0.650	0.030
2020/01/31 16:37:39.1	358.510	0.440	-0.660	0.040
2020/01/31 16:37:39.2	358.520	0.430	-0.670	0.050
2020/01/31 16:37:39.3	358.540	0.420	-0.680	0.050
2020/01/31 16:37:39.4	358.550	0.400	-0.690	0.050
2020/01/31 16:37:39.5	358.570	0.380	-0.690	0.040
2020/01/31 16:37:39.6	358.580	0.370	-0.690	0.040
2020/01/31 16:37:39.7	358.590	0.350	-0.690	0.030
2020/01/31 16:37:39.8	358.600	0.330	-0.690	0.020
2020/01/31 16:37:39.9	358.610	0.320	-0.680	0.020
2020/01/31 16:37:40.0	358.620	0.300	-0.670	0.010
2020/01/31 16:37:40.1	358.630	0.280	-0.650	0.010
2020/01/31 16:37:40.2	358.630	0.270	-0.630	-0.000
2020/01/31 16:37:40.3	358.630	0.250	-0.610	-0.010
2020/01/31 16:37:40.4	358.630	0.230	-0.580	-0.010
2020/01/31 16:37:40.5	358.630	0.220	-0.550	-0.020
2020/01/31 16:37:40.6	358.630	0.200	-0.510	-0.020
2020/01/31 16:37:40.7	358.620	0.190	-0.470	-0.030
2020/01/31 16:37:40.8	358.610	0.170	-0.420	-0.030
2020/01/31 16:37:40.9	358.600	0.150	-0.370	-0.030
2020/01/31 16:37:41.0	358.580	0.140	-0.320	-0.040
2020/01/31 16:37:41.1	358.570	0.120	-0.260	-0.040
2020/01/31 16:37:41.2	358.550	0.110	-0.200	-0.040
2020/01/31 16:37:41.3	358.540	0.090	-0.140	-0.040
2020/01/31 16:37:41.4	358.520	0.070	-0.080	-0.040
2020/01/31 16:37:41.5	358.490	0.060	-0.010	-0.040
2020/01/31 16:37:41.6	358.470	0.040	0.060	-0.040
2020/01/31 16:37:41.7	358.440	0.030	0.120	-0.040
2020/01/31 16:37:41.8	358.410	0.010	0.190	-0.040
2020/01/31 16:37:41.9	358.380	0.000	0.260	-0.030
2020/01/31 16:37:42.0	358.350	-0.010	0.330	-0.030
2020/01/31 16:37:42.1	358.320	-0.030	0.390	-0.020
2020/01/31 16:37:42.2	358.290	-0.040	0.450	-0.020
2020/01/31 16:37:42.3	358.260	-0.050	0.510	-0.010
2020/01/31 16:37:42.4	358.230	-0.060	0.570	0.000
2020/01/31 16:37:42.5	358.190	-0.070	0.620	0.010
2020/01/31 16:37:42.6	358.160	-0.080	0.670	0.020
2020/01/31 16:37:42.7	358.120	-0.090	0.710	0.030
2020/01/31 16:37:42.8	358.090	-0.100	0.750	0.050
2020/01/31 16:37:42.9	358.050	-0.110	0.790	0.060
2020/01/31 16:37:43.0	358.010	-0.110	0.820	0.070
2020/01/31 16:37:43.1	357.970	-0.120	0.840	0.090
2020/01/31 16:37:43.2	357.930	-0.120	0.860	0.100
2020/01/31 16:37:43.3	357.900	-0.130	0.870	0.120
2020/01/31 16:37:43.4	357.860	-0.130	0.870	0.130
2020/01/31 16:37:43.5	357.830	-0.130	0.870	0.140
2020/01/31 16:37:43.6	357.800	-0.130	0.860	0.150
2020/01/31 16:37:43.7	357.770	-0.130	0.840	0.150
2020/01/31 16:37:43.8	357.740	-0.130	0.810	0.160
2020/01/31 16:37:43.9	357.720	-0.120	0.780	0.160
2020/01/31 16:37:44.0	357.700	-0.120	0.740	0.160
2020/01/31 16:37:44.1	357.680	-0.110	0.690	0.150
2020/01/31 16:37:44.2	357.670	-0.100	0.640	0.140
2020/01/31 16:37:44.3	357.660	-0.100	0.580	0.130
2020/01/31 16:37:44.4	357.650	-0.090	0.510	0.120
2020/01/31 16:37:44.5	357.650	-0.080	0.440	0.100
2020/01/31 16:37:44.6	357.650	-0.070	0.370	0.080
2020/01/31 16:37:44.7	357.650	-0.060	0.290	0.050
2020/01/31 16:37:44.8	357.660	-0.050	0.210	0.030
2020/01/31 16:37:44.9	357.670	-0.040	0.120	0.000
2020/01/31 16:37:45.0	357.680	-0.030	0.040	-0.030
2020/01/31 16:37:45.1	357.690	-0.020	-0.040	-0.060
2020/01/31 16:37:45.2	357.710	-0.020	-0.130	-0.080
2020/01/31 16:37:45.3	357.730	-0.010	-0.210	-0.110
2020/01/31 16:37:45.4	357.740	-0.010	-0.280	-0.140
2020/01/31 16:37:45.5	357.760	-0.010	-0.360	-0.170
2020/01/31 16:37:45.6	357.780	-0.020	-0.430	-0.200
2020/01/31 16:37:45.7	357.790	-0.020	-0.500	-0.230
2020/01/31 16:37:45.8	357.810	-0.030	-0.560	-0.260
2020/01/31 16:37:45.9	357.830	-0.040	-0.610	-0.290
2020/01/31 16:37:46.0	357.840	-0.050	-0.670	-0.320
2020/01/31 16:37:46.1	357.860	-0.070	-0.710	-0.340
2020/01/31 16:37:46.2	357.880	-0.090	-0.750	-0.370
2020/01/31 16:37:46.3	357.900	-0.110	-0.790	-0.400
2020/01/31 16:37:46.4	357.910	-0.130	-0.820	-0.420
2020/01/31 16:37:46.5	357.930	-0.160	-0.850	-0.440
2020/01/31 16:37:46.6	357.950	-0.180	-0.870	-0.470
2020/01/31 16:37:46.7	357.970	-0.210	-0.890	-0.490
2020/01/31 16:37:46.8	357.990	-0.240	-0.900	-0.510
2020/01/31 16:37:46.9	358.000	-0.270	-0.910	-0.530
2020/01/31 16:37:47.0	358.020	-0.300	-0.920	-0.550
2020/01/31 16:37:47.1	358.040	-0.330	-0.920	-0.560
2020/01/31 16:37:47.2	358.050	-0.360	-0.920	-0.580
2020/01/31 16:37:47.3	358.070	-0.390	-0.910	-0.590
2020/01/31 16:37:47.4	358.090	-0.420	-0.910	-0.610
2020/01/31 16:37:47.5	358.110	-0.450	-0.900	-0.620
2020/01/31 16:37:47.6	358.130	-0.470	-0.890	-0.630
2020/01/31 16:37:47.7	358.140	-0.500	-0.880	-0.650
2020/01/31 16:37:47.8	358.160	-0.520	-0.870	-0.660
2020/01/31 16:37:47.9	358.170	-0.530	-0.850	-0.660
2020/01/31 16:37:48.0	358.190	-0.550	-0.840	-0.670
2020/01/31 16:37:48.1	358.210	-0.560	-0.830	-0.670
2020/01/31 16:37:48.2	358.230	-0.560	-0.810	-0.670
2020/01/31 16:37:48.3	358.240	-0.560	-0.800	-0.670
2020/01/31 16:37:48.4	358.260	-0.560	-0.780	-0.670
2020/01/31 16:37:48.5	358.270	-0.550	-0.770	-0.660
2020/01/31 16:37:48.6	358.280	-0.540	-0.750	-0.660
2020/01/31 16:37:48.7	358.300	-0.530	-0.740	-0.640
2020/01/31 16:37:48.8	358.310	-0.500	-0.730	-0.630
2020/01/31 16:37:48.9	358.320	-0.480	-0.720	-0.620
2020/01/31 16:37:49.0	358.330	-0.440	-0.700	-0.600
2020/01/31 16:37:49.1	358.340	-0.410	-0.690	-0.580
2020/01/31 16:37:49.2	358.350	-0.370	-0.680	-0.560
2020/01/31 16:37:49.3	358.370	-0.320	-0.670	-0.530
2020/01/31 16:37:49.4	358.380	-0.270	-0.670	-0.500
2020/01/31 16:37:49.5	358.390	-0.220	-0.660	-0.470
2020/01/31 16:37:49.6	358.400	-0.160	-0.650	-0.440
2020/01/31 16:37:49.7	358.420	-0.100	-0.650	-0.410
2020/01/31 16:37:49.8	358.430	-0.040	-0.640	-0.380
2020/01/31 16:37:49.9	358.440	0.030	-0.630	-0.340
2020/01/31 16:37:50.0	358.450	0.090	-0.630	-0.310
2020/01/31 16:37:50.1	358.470	0.160	-0.620	-0.270
2020/01/31 16:37:50.2	358.480	0.230	-0.610	-0.230
2020/01/31 16:37:50.3	358.490	0.290	-0.610	-0.190
2020/01/31 16:37:50.4	358.500	0.360	-0.590	-0.140
2020/01/31 16:37:50.5	358.500	0.420	-0.580	-0.100
2020/01/31 16:37:50.6	358.510	0.480	-0.570	-0.060
2020/01/31 16:37:50.7	358.500	0.530	-0.560	-0.010
2020/01/31 16:37:50.8	358.500	0.590	-0.540	0.040
2020/01/31 16:37:50.9	358.500	0.640	-0.510	0.090
2020/01/31 16:37:51.0	358.490	0.680	-0.490	0.130
2020/01/31 16:37:51.1	358.480	0.720	-0.460	0.180
2020/01/31 16:37:51.2	358.470	0.750	-0.430	0.230
2020/01/31 16:37:51.3	358.450	0.770	-0.400	0.270
2020/01/31 16:37:51.4	358.430	0.790	-0.360	0.310
2020/01/31 16:37:51.5	358.410	0.810	-0.330	0.350
2020/01/31 16:37:51.6	358.390	0.810	-0.290	0.380
2020/01/31 16:37:51.7	358.360	0.810	-0.250	0.410
2020/01/31 16:37:51.8	358.340	0.800	-0.210	0.430
2020/01/31 16:37:51.9	358.310	0.790	-0.170	0.450
2020/01/31 16:37:52.0	358.280	0.770	-0.130	0.470
2020/01/31 16:37:52.1	358.250	0.740	-0.090	0.480
2020/01/31 16:37:52.2	358.220	0.700	-0.050	0.480
2020/01/31 16:37:52.3	358.190	0.660	-0.010	0.480
2020/01/31 16:37:52.4	358.160	0.620	0.030	0.470
2020/01/31 16:37:52.5	358.130	0.570	0.060	0.460
2020/01/31 16:37:52.6	358.110	0.510	0.100	0.440
2020/01/31 16:37:52.7	358.080	0.460	0.130	0.410
2020/01/31 16:37:52.8	358.060	0.390	0.160	0.380
2020/01/31 16:37:52.9	358.040	0.330	0.180	0.350
2020/01/31 16:37:53.0	358.020	0.270	0.200	0.310
2020/01/31 16:37:53.1	358.000	0.200	0.220	0.270
2020/01/31 16:37:53.2	357.990	0.130	0.240	0.220
2020/01/31 16:37:53.3	357.980	0.070	0.260	0.170
2020/01/31 16:37:53.4	357.970	0.000	0.270	0.120
2020/01/31 16:37:53.5	357.970	-0.060	0.280	0.060
2020/01/31 16:37:53.6	357.960	-0.130	0.280	0.010
2020/01/31 16:37:53.7	357.960	-0.180	0.290	-0.060
2020/01/31 16:37:53.8	357.960	-0.240	0.290	-0.120
2020/01/31 16:37:53.9	357.970	-0.290	0.290	-0.180
2020/01/31 16:37:54.0	357.970	-0.340	0.290	-0.240
2020/01/31 16:37:54.1	357.980	-0.380	0.280	-0.300
2020/01/31 16:37:54.2	357.990	-0.420	0.280	-0.360
2020/01/31 16:37:54.3	357.990	-0.450	0.270	-0.420
2020/01/31 16:37:54.4	358.000	-0.480	0.260	-0.480
2020/01/31 16:37:54.5	358.010	-0.500	0.250	-0.540
2020/01/31 16:37:54.6	358.030	-0.510	0.230	-0.590
2020/01/31 16:37:54.7	358.030	-0.520	0.220	-0.640
2020/01/31 16:37:54.8	358.040	-0.520	0.210	-0.690
2020/01/31 16:37:54.9	358.050	-0.520	0.190	-0.730
2020/01/31 16:37:55.0	358.060	-0.510	0.170	-0.770
2020/01/31 16:37:55.1	358.080	-0.500	0.160	-0.800
2020/01/31 16:37:55.2	358.090	-0.480	0.140	-0.830
2020/01/31 16:37:55.3	358.100	-0.460	0.120	-0.850
2020/01/31 16:37:55.4	358.110	-0.430	0.100	-0.870
2020/01/31 16:37:55.5	358.120	-0.390	0.080	-0.880
2020/01/31 16:37:55.6	358.130	-0.360	0.060	-0.890
2020/01/31 16:37:55.7	358.130	-0.320	0.040	-0.890
2020/01/31 16:37:55.8	358.140	-0.280	0.010	-0.890
2020/01/31 16:37:55.9	358.150	-0.230	-0.010	-0.880
2020/01/31 16:37:56.0	358.150	-0.180	-0.030	-0.860
2020/01/31 16:37:56.1	358.160	-0.140	-0.060	-0.840
2020/01/31 16:37:56.2	358.160	-0.090	-0.080	-0.820
2020/01/31 16:37:56.3	358.170	-0.040	-0.110	-0.800
2020/01/31 16:37:56.4	358.170	0.010	-0.130	-0.770
2020/01/31 16:37:56.5	358.170	0.060	-0.160	-0.730
2020/01/31 16:37:56.6	358.170	0.100	-0.180	-0.700
2020/01/31 16:37:56.7	358.170	0.150	-0.210	-0.660
2020/01/31 16:37:56.8	358.170	0.190	-0.240	-0.610
2020/01/31 16:37:56.9	358.170	0.230	-0.260	-0.570
2020/01/31 16:37:57.0	358.160	0.270	-0.280	-0.520
2020/01/31 16:37:57.1	358.160	0.300	-0.300	-0.470
2020/01/31 16:37:57.2	358.150	0.330	-0.320	-0.420
2020/01/31 16:37:57.3	358.150	0.360	-0.340	-0.370
2020/01/31 16:37:57.4	358.140	0.380	-0.360	-0.310
2020/01/31 16:37:57.5	358.130	0.400	-0.370	-0.260
2020/01/31 16:37:57.6	358.120	0.420	-0.380	-0.200
2020/01/31 16:37:57.7	358.110	0.430	-0.400	-0.140
2020/01/31 16:37:57.8	358.100	0.430	-0.400	-0.090
2020/01/31 16:37:57.9	358.090	0.440	-0.410	-0.040
2020/01/31 16:37:58.0	358.080	0.430	-0.410	0.010
2020/01/31 16:37:58.1	358.070	0.420	-0.420	0.060
2020/01/31 16:37:58.2	358.060	0.410	-0.420	0.100
2020/01/31 16:37:58.3	358.050	0.390	-0.410	0.140
2020/01/31 16:37:58.4	358.040	0.370	-0.410	0.180
2020/01/31 16:37:58.5	358.030	0.350	-0.400	0.210
2020/01/31 16:37:58.6	358.020	0.320	-0.400	0.230
2020/01/31 16:37:58.7	357.990	0.290	-0.390	0.250
2020/01/31 16:37:58.8	357.990	0.250	-0.380	0.270
2020/01/31 16:37:58.9	357.980	0.210	-0.360	0.280
2020/01/31 16:37:59.0	357.970	0.170	-0.350	0.290
2020/01/31 16:37:59.1	357.960	0.130	-0.330	0.290
2020/01/31 16:37:59.2	357.950	0.080	-0.320	0.280
2020/01/31 16:37:59.3	357.950	0.040	-0.300	0.280
2020/01/31 16:37:59.4	357.940	-0.010	-0.290	0.260
2020/01/31 16:37:59.5	357.940	-0.060	-0.270	0.250
2020/01/31 16:37:59.6	357.930	-0.110	-0.260	0.230
2020/01/31 16:37:59.7	357.930	-0.160	-0.240	0.200
2020/01/31 16:37:59.8	357.930	-0.210	-0.230	0.180
2020/01/31 16:37:59.9	357.930	-0.260	-0.230	0.150
2020/01/31 16:38:00.0	357.940	-0.310	-0.220	0.110
2020/01/31 16:38:00.1	357.950	-0.350	-0.210	0.080
2020/01/31 16:38:00.2	357.960	-0.390	-0.210	0.040
2020/01/31 16:38:00.3	357.970	-0.430	-0.210	0.000
2020/01/31 16:38:00.4	357.990	-0.470	-0.210	-0.040
2020/01/31 16:38:00.5	358.000	-0.500	-0.220	-0.080
2020/01/31 16:38:00.6	358.020	-0.530	-0.230	-0.130
2020/01/31 16:38:00.7	358.050	-0.560	-0.240	-0.180
2020/01/31 16:38:00.8	358.070	-0.580	-0.250	-0.220
2020/01/31 16:38:00.9	358.100	-0.600	-0.260	-0.270
2020/01/31 16:38:01.0	358.130	-0.610	-0.280	-0.320
2020/01/31 16:38:01.1	358.160	-0.610	-0.300	-0.370
2020/01/31 16:38:01.2	358.190	-0.620	-0.320	-0.420
2020/01/31 16:38:01.3	358.220	-0.610	-0.350	-0.470
2020/01/31 16:38:01.4	358.250	-0.610	-0.370	-0.520
2020/01/31 16:38:01.5	358.280	-0.600	-0.400	-0.560
2020/01/31 16:38:01.6	358.310	-0.580	-0.420	-0.600
2020/01/31 16:38:01.7	358.340	-0.560	-0.450	-0.650
2020/01/31 16:38:01.8	358.370	-0.530	-0.470	-0.680
2020/01/31 16:38:01.9	358.400	-0.500	-0.490	-0.720
2020/01/31 16:38:02.0	358.430	-0.470	-0.520	-0.750
2020/01/31 16:38:02.1	358.450	-0.440	-0.540	-0.770
2020/01/31 16:38:02.2	358.470	-0.400	-0.560	-0.790
2020/01/31 16:38:02.3	358.490	-0.360	-0.570	-0.810
2020/01/31 16:38:02.4	358.510	-0.320	-0.590	-0.820
2020/01/31 16:38:02.5	358.530	-0.270	-0.600	-0.830
2020/01/31 16:38:02.6	358.540	-0.230	-0.610	-0.830
2020/01/31 16:38:02.7	358.550	-0.180	-0.620	-0.830
2020/01/31 16:38:02.8	358.560	-0.140	-0.620	-0.820
2020/01/31 16:38:02.9	358.570	-0.090	-0.630	-0.810
2020/01/31 16:38:03.0	358.570	-0.050	-0.630	-0.800
2020/01/31 16:38:03.1	358.570	-0.000	-0.630	-0.780
2020/01/31 16:38:03.2	358.570	0.040	-0.630	-0.760
2020/01/31 16:38:03.3	358.570	0.080	-0.620	-0.740
2020/01/31 16:38:03.4	358.570	0.120	-0.620	-0.720
2020/01/31 16:38:03.5	358.560	0.150	-0.610	-0.690
2020/01/31 16:38:03.6	358.550	0.180	-0.600	-0.660
2020/01/31 16:38:03.7	358.540	0.210	-0.580	-0.630
2020/01/31 16:38:03.8	358.530	0.240	-0.570	-0.600
2020/01/31 16:38:03.9	358.520	0.260	-0.560	-0.560
2020/01/31 16:38:04.0	358.500	0.290	-0.540	-0.530
2020/01/31 16:38:04.1	358.480	0.300	-0.520	-0.490
2020/01/31 16:38:04.2	358.460	0.320	-0.500	-0.450
2020/01/31 16:38:04.3	358.440	0.330	-0.480	-0.420
2020/01/31 16:38:04.4	358.420	0.340	-0.460	-0.380
2020/01/31 16:38:04.5	358.400	0.340	-0.440	-0.340
2020/01/31 16:38:04.6	358.370	0.340	-0.410	-0.300
2020/01/31 16:38:04.7	358.340	0.340	-0.390	-0.250
2020/01/31 16:38:04.8	358.310	0.330	-0.360	-0.220
2020/01/31 16:38:04.9	358.290	0.320	-0.330	-0.180
2020/01/31 16:38:05.0	358.260	0.310	-0.300	-0.140
2020/01/31 16:38:05.1	358.240	0.300	-0.280	-0.100
2020/01/31 16:38:05.2	358.210	0.280	-0.250	-0.070
2020/01/31 16:38:05.3	358.190	0.270	-0.220	-0.040
2020/01/31 16:38:05.4	358.170	0.250	-0.190	-0.010
2020/01/31 16:38:05.5	358.150	0.230	-0.160	0.020
2020/01/31 16:38:05.6	358.130	0.210	-0.140	0.040
2020/01/31 16:38:05.7	358.120	0.180	-0.110	0.050
2020/01/31 16:38:05.8	358.110	0.160	-0.090	0.070
2020/01/31 16:38:05.9	358.100	0.140	-0.070	0.080
2020/01/31 16:38:06.0	358.100	0.120	-0.050	0.080
2020/01/31 16:38:06.1	358.100	0.100	-0.040	0.080
2020/01/31 16:38:06.2	358.100	0.070	-0.030	0.080
2020/01/31 16:38:06.3	358.100	0.060	-0.020	0.070
2020/01/31 16:38:06.4	358.110	0.040	-0.020	0.050
2020/01/31 16:38:06.5	358.120	0.020	-0.020	0.040
2020/01/31 16:38:06.6	358.140	0.010	-0.020	0.020
2020/01/31 16:38:06.7	358.150	-0.010	-0.030	-0.010
2020/01/31 16:38:06.8	358.170	-0.020	-0.030	-0.030
2020/01/31 16:38:06.9	358.190	-0.030	-0.040	-0.060
2020/01/31 16:38:07.0	358.200	-0.030	-0.050	-0.090
2020/01/31 16:38:07.1	358.220	-0.040	-0.060	-0.110
2020/01/31 16:38:07.2	358.240	-0.040	-0.070	-0.140
2020/01/31 16:38:07.3	358.260	-0.050	-0.070	-0.160
2020/01/31 16:38:07.4	358.270	-0.050	-0.080	-0.190
2020/01/31 16:38:07.5	358.280	-0.050	-0.090	-0.210
2020/01/31 16:38:07.6	358.300	-0.050	-0.090	-0.230
2020/01/31 16:38:07.7	358.300	-0.040	-0.100	-0.250
2020/01/31 16:38:07.8	358.310	-0.040	-0.100	-0.260
2020/01/31 16:38:07.9	358.310	-0.030	-0.100	-0.270
2020/01/31 16:38:08.0	358.310	-0.030	-0.090	-0.270
2020/01/31 16:38:08.1	358.310	-0.020	-0.080	-0.270
2020/01/31 16:38:08.2	358.300	-0.020	-0.080	-0.270
2020/01/31 16:38:08.3	358.300	-0.010	-0.060	-0.260
2020/01/31 16:38:08.4	358.280	-0.010	-0.050	-0.250
2020/01/31 16:38:08.5	358.270	0.000	-0.030	-0.230
2020/01/31 16:38:08.6	358.250	0.010	-0.010	-0.210
2020/01/31 16:38:08.7	358.230	0.010	0.010	-0.190
2020/01/31 16:38:08.8	358.210	0.020	0.030	-0.160
2020/01/31 16:38:08.9	358.190	0.020	0.060	-0.130
2020/01/31 16:38:09.0	358.160	0.020	0.080	-0.100
2020/01/31 16:38:09.1	358.140	0.030	0.110	-0.070
2020/01/31 16:38:09.2	358.110	0.030	0.140	-0.040
2020/01/31 16:38:09.3	358.080	0.030	0.160	-0.000
2020/01/31 16:38:09.4	358.050	0.030	0.180	0.030
2020/01/31 16:38:09.5	358.020	0.030	0.210	0.060
2020/01/31 16:38:09.6	358.000	0.030	0.230	0.090
2020/01/31 16:38:09.7	357.960	0.030	0.250	0.120
2020/01/31 16:38:09.8	357.940	0.030	0.260	0.150
2020/01/31 16:38:09.9	357.920	0.030	0.270	0.170
2020/01/31 16:38:10.0	357.900	0.030	0.270	0.190
2020/01/31 16:38:10.1	357.880	0.030	0.270	0.200
2020/01/31 16:38:10.2	357.870	0.030	0.260	0.210
2020/01/31 16:38:10.3	357.860	0.030	0.250	0.210
2020/01/31 16:38:10.4	357.850	0.030	0.230	0.200
2020/01/31 16:38:10.5	357.850	0.030	0.210	0.190
2020/01/31 16:38:10.6	357.850	0.040	0.180	0.180
2020/01/31 16:38:10.7	357.850	0.040	0.140	0.150
2020/01/31 16:38:10.8	357.850	0.040	0.100	0.130
2020/01/31 16:38:10.9	357.860	0.040	0.050	0.090
2020/01/31 16:38:11.0	357.860	0.050	0.000	0.060
2020/01/31 16:38:11.1	357.870	0.050	-0.050	0.020
2020/01/31 16:38:11.2	357.880	0.050	-0.110	-0.020
2020/01/31 16:38:11.3	357.890	0.050	-0.170	-0.060
2020/01/31 16:38:11.4	357.900	0.050	-0.230	-0.100
2020/01/31 16:38:11.5	357.910	0.060	-0.290	-0.150
2020/01/31 16:38:11.6	357.920	0.060	-0.350	-0.190
2020/01/31 16:38:11.7	357.920	0.050	-0.400	-0.240
2020/01/31 16:38:11.8	357.930	0.050	-0.460	-0.280
2020/01/31 16:38:11.9	357.940	0.050	-0.520	-0.320
2020/01/31 16:38:12.0	357.950	0.050	-0.570	-0.360
2020/01/31 16:38:12.1	357.950	0.040	-0.620	-0.400
2020/01/31 16:38:12.2	357.960	0.040	-0.660	-0.440
2020/01/31 16:38:12.3	357.970	0.030	-0.710	-0.480
2020/01/31 16:38:12.4	357.980	0.030	-0.750	-0.520
2020/01/31 16:38:12.5	357.990	0.020	-0.780	-0.550
2020/01/31 16:38:12.6	358.010	0.010	-0.810	-0.590
2020/01/31 16:38:12.7	358.020	0.000	-0.840	-0.620
2020/01/31 16:38:12.8	358.030	-0.000	-0.860	-0.650
2020/01/31 16:38:12.9	358.050	-0.010	-0.880	-0.680
2020/01/31 16:38:13.0	358.070	-0.020	-0.900	-0.710
2020/01/31 16:38:13.1	358.090	-0.030	-0.910	-0.740
2020/01/31 16:38:13.2	358.110	-0.040	-0.920	-0.770
2020/01/31 16:38:13.3	358.140	-0.050	-0.920	-0.800
2020/01/31 16:38:13.4	358.160	-0.060	-0.930	-0.820
2020/01/31 16:38:13.5	358.190	-0.060	-0.930	-0.840
2020/01/31 16:38:13.6	358.220	-0.070	-0.920	-0.860
2020/01/31 16:38:13.7	358.250	-0.080	-0.910	-0.880
2020/01/31 16:38:13.8	358.280	-0.080	-0.900	-0.900
2020/01/31 16:38:13.9	358.310	-0.080	-0.890	-0.910
2020/01/31 16:38:14.0	358.340	-0.090	-0.870	-0.920
2020/01/31 16:38:14.1	358.370	-0.090	-0.850	-0.920
2020/01/31 16:38:14.2	358.400	-0.090	-0.820	-0.920
2020/01/31 16:38:14.3	358.430	-0.080	-0.800	-0.920
2020/01/31 16:38:14.4	358.460	-0.080	-0.770	-0.910
2020/01/31 16:38:14.5	358.490	-0.080	-0.730	-0.900
2020/01/31 16:38:14.6	358.520	-0.070	-0.700	-0.890
2020/01/31 16:38:14.7	358.560	-0.060	-0.660	-0.860
2020/01/31 16:38:14.8	358.580	-0.060	-0.620	-0.840
2020/01/31 16:38:14.9	358.610	-0.050	-0.570	-0.810
2020/01/31 16:38:15.0	358.630	-0.040	-0.530	-0.780
2020/01/31 16:38:15.1	358.650	-0.030	-0.480	-0.740
2020/01/31 16:38:15.2	358.670	-0.020	-0.430	-0.700
2020/01/31 16:38:15.3	358.680	-0.010	-0.370	-0.650
2020/01/31 16:38:15.4	358.690	-0.000	-0.320	-0.600
2020/01/31 16:38:15.5	358.700	0.010	-0.260	-0.550
2020/01/31 16:38:15.6	358.690	0.010	-0.200	-0.480
2020/01/31 16:38:15.7	358.680	0.020	-0.140	-0.420
2020/01/31 16:38:15.8	358.670	0.030	-0.080	-0.350
2020/01/31 16:38:15.9	358.650	0.030	-0.010	-0.280
2020/01/31 16:38:16.0	358.630	0.030	0.050	-0.210
2020/01/31 16:38:16.1	358.600	0.030	0.110	-0.140
2020/01/31 16:38:16.2	358.570	0.030	0.170	-0.070
2020/01/31 16:38:16.3	358.540	0.030	0.230	0.010
2020/01/31 16:38:16.4	358.500	0.020	0.290	0.070
2020/01/31 16:38:16.5	358.450	0.020	0.340	0.140
2020/01/31 16:38:16.6	358.410	0.010	0.390	0.210
2020/01/31 16:38:16.7	358.350	-0.000	0.430	0.270
2020/01/31 16:38:16.8	358.300	-0.010	0.470	0.330
2020/01/31 16:38:16.9	358.250	-0.020	0.510	0.380
2020/01/31 16:38:17.0	358.200	-0.040	0.540	0.430
2020/01/31 16:38:17.1	358.140	-0.050	0.570	0.470
2020/01/31 16:38:17.2	358.090	-0.060	0.590	0.510
2020/01/31 16:38:17.3	358.030	-0.080	0.600	0.540
2020/01/31 16:38:17.4	357.980	-0.090	0.610	0.570
2020/01/31 16:38:17.5	357.930	-0.100	0.610	0.590
2020/01/31 16:38:17.6	357.880	-0.110	0.600	0.600
2020/01/31 16:38:17.7	357.820	-0.130	0.590	0.610
2020/01/31 16:38:17.8	357.780	-0.140	0.570	0.620
2020/01/31 16:38:17.9	357.730	-0.150	0.540	0.620
2020/01/31 16:38:18.0	357.690	-0.150	0.510	0.610
2020/01/31 16:38:18.1	357.650	-0.160	0.470	0.600
2020/01/31 16:38:18.2	357.610	-0.160	0.430	0.590
2020/01/31 16:38:18.3	357.580	-0.160	0.380	0.570
2020/01/31 16:38:18.4	357.550	-0.160	0.330	0.540
2020/01/31 16:38:18.5	357.520	-0.160	0.270	0.510
2020/01/31 16:38:18.6	357.500	-0.160	0.210	0.480
2020/01/31 16:38:18.7	357.490	-0.150	0.140	0.430
2020/01/31 16:38:18.8	357.480	-0.140	0.070	0.390
2020/01/31 16:38:18.9	357.470	-0.130	0.000	0.340
2020/01/31 16:38:19.0	357.460	-0.120	-0.080	0.290
2020/01/31 16:38:19.1	357.460	-0.100	-0.160	0.230
2020/01/31 16:38:19.2	357.470	-0.090	-0.240	0.170
2020/01/31 16:38:19.3	357.470	-0.070	-0.320	0.100
2020/01/31 16:38:19.4	357.480	-0.050	-0.410	0.030
2020/01/31 16:38:19.5	357.500	-0.030	-0.490	-0.040
2020/01/31 16:38:19.6	357.520	-0.010	-0.570	-0.110
2020/01/31 16:38:19.7	357.550	0.020	-0.660	-0.190
2020/01/31 16:38:19.8	357.570	0.040	-0.740	-0.270
2020/01/31 16:38:19.9	357.600	0.060	-0.820	-0.350
2020/01/31 16:38:20.0	357.640	0.080	-0.900	-0.430
2020/01/31 16:38:20.1	357.670	0.100	-0.970	-0.510
2020/01/31 16:38:20.2	357.710	0.130	-1.040	-0.590
2020/01/31 16:38:20.3	357.740	0.150	-1.100	-0.670
2020/01/31 16:38:20.4	357.780	0.160	-1.160	-0.740
2020/01/31 16:38:20.5	357.820	0.180	-1.210	-0.810
2020/01/31 16:38:20.6	357.860	0.200	-1.250	-0.880
2020/01/31 16:38:20.7	357.900	0.210	-1.280	-0.940
2020/01/31 16:38:20.8	357.940	0.220	-1.310	-1.000
2020/01/31 16:38:20.9	357.970	0.230	-1.330	-1.060
2020/01/31 16:38:21.0	358.010	0.240	-1.340	-1.100
2020/01/31 16:38:21.1	358.050	0.250	-1.340	-1.140
2020/01/31 16:38:21.2	358.080	0.250	-1.330	-1.180
2020/01/31 16:38:21.3	358.110	0.250	-1.320	-1.210
2020/01/31 16:38:21.4	358.140	0.250	-1.290	-1.230
2020/01/31 16:38:21.5	358.170	0.240	-1.260	-1.250
2020/01/31 16:38:21.6	358.200	0.240	-1.220	-1.260
2020/01/31 16:38:21.7	358.240	0.230	-1.170	-1.270
2020/01/31 16:38:21.8	358.270	0.210	-1.120	-1.270
2020/01/31 16:38:21.9	358.290	0.200	-1.050	-1.270
2020/01/31 16:38:22.0	358.320	0.190	-0.990	-1.270
2020/01/31 16:38:22.1	358.340	0.170	-0.920	-1.260
2020/01/31 16:38:22.2	358.370	0.150	-0.850	-1.240
2020/01/31 16:38:22.3	358.390	0.130	-0.770	-1.230
2020/01/31 16:38:22.4	358.420	0.110	-0.690	-1.210
2020/01/31 16:38:22.5	358.440	0.090	-0.610	-1.200
2020/01/31 16:38:22.6	358.460	0.060	-0.540	-1.180
2020/01/31 16:38:22.7	358.490	0.040	-0.460	-1.150
2020/01/31 16:38:22.8	358.510	0.020	-0.380	-1.130
2020/01/31 16:38:22.9	358.530	-0.000	-0.310	-1.100
2020/01/31 16:38:23.0	358.550	-0.020	-0.230	-1.080
2020/01/31 16:38:23.1	358.580	-0.040	-0.160	-1.050
2020/01/31 16:38:23.2	358.600	-0.060	-0.090	-1.020
2020/01/31 16:38:23.3	358.610	-0.080	-0.020	-1.000
2020/01/31 16:38:23.4	358.630	-0.100	0.040	-0.960
2020/01/31 16:38:23.5	358.650	-0.110	0.100	-0.930
2020/01/31 16:38:23.6	358.660	-0.130	0.160	-0.900
2020/01/31 16:38:23.7	358.670	-0.140	0.210	-0.870
2020/01/31 16:38:23.8	358.680	-0.150	0.270	-0.840
2020/01/31 16:38:23.9	358.690	-0.160	0.320	-0.800
2020/01/31 16:38:24.0	358.700	-0.170	0.370	-0.760
2020/01/31 16:38:24.1	358.700	-0.180	0.420	-0.720
2020/01/31 16:38:24.2	358.700	-0.190	0.460	-0.680
2020/01/31 16:38:24.3	358.700	-0.200	0.500	-0.640
2020/01/31 16:38:24.4	358.700	-0.200	0.540	-0.600
2020/01/31 16:38:24.5	358.690	-0.210	0.580	-0.560
2020/01/31 16:38:24.6	358.680	-0.210	0.620	-0.520
2020/01/31 16:38:24.7	358.670	-0.220	0.650	-0.470
2020/01/31 16:38:24.8	358.650	-0.220	0.680	-0.420
2020/01/31 16:38:24.9	358.630	-0.230	0.710	-0.380
2020/01/31 16:38:25.0	358.610	-0.230	0.740	-0.330
2020/01/31 16:38:25.1	358.580	-0.240	0.760	-0.280
2020/01/31 16:38:25.2	358.550	-0.240	0.770	-0.230
2020/01/31 16:38:25.3	358.520	-0.240	0.790	-0.180
2020/01/31 16:38:25.4	358.480	-0.250	0.800	-0.130
2020/01/31 16:38:25.5	358.430	-0.250	0.810	-0.070
2020/01/31 16:38:25.6	358.390	-0.250	0.810	-0.020
2020/01/31 16:38:25.7	358.330	-0.260	0.810	0.040
2020/01/31 16:38:25.8	358.280	-0.260	0.810	0.090
2020/01/31 16:38:25.9	358.220	-0.260	0.800	0.140
2020/01/31 16:38:26.0	358.170	-0.260	0.780	0.190
2020/01/31 16:38:26.1	358.110	-0.270	0.770	0.240
2020/01/31 16:38:26.2	358.050	-0.270	0.740	0.280
2020/01/31 16:38:26.3	357.990	-0.270	0.720	0.330
2020/01/31 16:38:26.4	357.930	-0.270	0.680	0.360
2020/01/31 16:38:26.5	357.870	-0.260	0.650	0.400
2020/01/31 16:38:26.6	357.810	-0.260	0.610	0.430
2020/01/31 16:38:26.7	357.740	-0.250	0.560	0.450
2020/01/31 16:38:26.8	357.680	-0.250	0.510	0.470
2020/01/31 16:38:26.9	357.630	-0.240	0.460	0.490
2020/01/31 16:38:27.0	357.570	-0.220	0.400	0.510
2020/01/31 16:38:27.1	357.520	-0.210	0.330	0.510
2020/01/31 16:38:27.2	357.470	-0.190	0.270	0.520
2020/01/31 16:38:27.3	357.420	-0.170	0.200	0.520
2020/01/31 16:38:27.4	357.380	-0.150	0.130	0.520
2020/01/31 16:38:27.5	357.330	-0.120	0.050	0.510
2020/01/31 16:38:27.6	357.300	-0.100	-0.030	0.490
2020/01/31 16:38:27.7	357.260	-0.070	-0.110	0.470
2020/01/31 16:38:27.8	357.230	-0.030	-0.200	0.450
2020/01/31 16:38:27.9	357.210	0.000	-0.290	0.430
2020/01/31 16:38:28.0	357.190	0.040	-0.380	0.400
2020/01/31 16:38:28.1	357.180	0.080	-0.470	0.370
2020/01/31 16:38:28.2	357.170	0.120	-0.570	0.330
2020/01/31 16:38:28.3	357.170	0.160	-0.660	0.290
2020/01/31 16:38:28.4	357.170	0.200	-0.760	0.250
2020/01/31 16:38:28.5	357.180	0.240	-0.850	0.210
2020/01/31 16:38:28.6	357.190	0.280	-0.950	0.160
2020/01/31 16:38:28.7	357.210	0.320	-1.050	0.100
2020/01/31 16:38:28.8	357.230	0.360	-1.140	0.050
2020/01/31 16:38:28.9	357.260	0.400	-1.230	-0.010
2020/01/31 16:38:29.0	357.290	0.430	-1.310	-0.060
2020/01/31 16:38:29.1	357.330	0.470	-1.390	-0.130
2020/01/31 16:38:29.2	357.370	0.500	-1.470	-0.190
2020/01/31 16:38:29.3	357.420	0.530	-1.540	-0.260
2020/01/31 16:38:29.4	357.460	0.560	-1.610	-0.320
2020/01/31 16:38:29.5	357.510	0.590	-1.670	-0.390
2020/01/31 16:38:29.6	357.570	0.610	-1.720	-0.460
2020/01/31 16:38:29.7	357.630	0.630	-1.760	-0.530
2020/01/31 16:38:29.8	357.680	0.640	-1.800	-0.600
2020/01/31 16:38:29.9	357.740	0.650	-1.830	-0.670
2020/01/31 16:38:30.0	357.790	0.660	-1.840	-0.730
2020/01/31 16:38:30.1	357.850	0.660	-1.850	-0.800
2020/01/31 16:38:30.2	357.910	0.660	-1.850	-0.860
2020/01/31 16:38:30.3	357.960	0.650	-1.830	-0.920
2020/01/31 16:38:30.4	358.020	0.640	-1.810	-0.980
2020/01/31 16:38:30.5	358.070	0.630	-1.770	-1.030
2020/01/31 16:38:30.6	358.120	0.610	-1.730	-1.080
2020/01/31 16:38:30.7	358.180	0.590	-1.670	-1.120
2020/01/31 16:38:30.8	358.230	0.560	-1.610	-1.160
2020/01/31 16:38:30.9	358.280	0.530	-1.530	-1.190
2020/01/31 16:38:31.0	358.320	0.500	-1.450	-1.220
2020/01/31 16:38:31.1	358.360	0.460	-1.360	-1.240
2020/01/31 16:38:31.2	358.400	0.420	-1.260	-1.260
2020/01/31 16:38:31.3	358.430	0.370	-1.150	-1.280
2020/01/31 16:38:31.4	358.470	0.320	-1.030	-1.280
2020/01/31 16:38:31.5	358.490	0.280	-0.920	-1.280
2020/01/31 16:38:31.6	358.520	0.220	-0.790	-1.280
2020/01/31 16:38:31.7	358.540	0.170	-0.670	-1.270
2020/01/31 16:38:31.8	358.560	0.120	-0.540	-1.260
2020/01/31 16:38:31.9	358.570	0.060	-0.410	-1.240
2020/01/31 16:38:32.0	358.580	0.000	-0.280	-1.220
2020/01/31 16:38:32.1	358.580	-0.060	-0.150	-1.190
2020/01/31 16:38:32.2	358.580	-0.110	-0.020	-1.160
2020/01/31 16:38:32.3	358.580	-0.170	0.110	-1.120
2020/01/31 16:38:32.4	358.570	-0.230	0.230	-1.090
2020/01/31 16:38:32.5	358.550	-0.280	0.350	-1.050
2020/01/31 16:38:32.6	358.540	-0.340	0.460	-1.000
2020/01/31 16:38:32.7	358.510	-0.390	0.570	-0.960
2020/01/31 16:38:32.8	358.490	-0.440	0.670	-0.910
2020/01/31 16:38:32.9	358.460	-0.490	0.760	-0.860
2020/01/31 16:38:33.0	358.430	-0.540	0.850	-0.810
2020/01/31 16:38:33.1	358.400	-0.580	0.920	-0.760
2020/01/31 16:38:33.2	358.370	-0.620	0.990	-0.710
2020/01/31 16:38:33.3	358.340	-0.650	1.040	-0.660
2020/01/31 16:38:33.4	358.300	-0.680	1.090	-0.600
2020/01/31 16:38:33.5	358.270	-0.710	1.130	-0.550
2020/01/31 16:38:33.6	358.230	-0.730	1.160	-0.500
2020/01/31 16:38:33.7	358.190	-0.740	1.170	-0.440
2020/01/31 16:38:33.8	358.150	-0.750	1.180	-0.390
2020/01/31 16:38:33.9	358.120	-0.760	1.180	-0.340
2020/01/31 16:38:34.0	358.080	-0.760	1.170	-0.290
2020/01/31 16:38:34.1	358.040	-0.750	1.150	-0.230
2020/01/31 16:38:34.2	358.010	-0.740	1.120	-0.180
2020/01/31 16:38:34.3	357.980	-0.720	1.090	-0.130
2020/01/31 16:38:34.4	357.950	-0.700	1.050	-0.080
2020/01/31 16:38:34.5	357.910	-0.680	1.000	-0.030
2020/01/31 16:38:34.6	357.890	-0.650	0.950	0.010
2020/01/31 16:38:34.7	357.860	-0.610	0.890	0.060
2020/01/31 16:38:34.8	357.830	-0.570	0.830	0.100
2020/01/31 16:38:34.9	357.800	-0.530	0.760	0.150
2020/01/31 16:38:35.0	357.780	-0.480	0.700	0.190
2020/01/31 16:38:35.1	357.760	-0.430	0.630	0.230
2020/01/31 16:38:35.2	357.730	-0.380	0.560	0.270
2020/01/31 16:38:35.3	357.710	-0.330	0.490	0.310
2020/01/31 16:38:35.4	357.690	-0.270	0.420	0.350
2020/01/31 16:38:35.5	357.670	-0.210	0.350	0.380
2020/01/31 16:38:35.6	357.650	-0.160	0.290	0.420
2020/01/31 16:38:35.7	357.620	-0.100	0.220	0.450
2020/01/31 16:38:35.8	357.600	-0.050	0.160	0.480
2020/01/31 16:38:35.9	357.580	0.010	0.100	0.510
2020/01/31 16:38:36.0	357.560	0.060	0.040	0.540
2020/01/31 16:38:36.1	357.540	0.110	-0.020	0.570
2020/01/31 16:38:36.2	357.530	0.160	-0.080	0.590
2020/01/31 16:38:36.3	357.510	0.200	-0.130	0.610
2020/01/31 16:38:36.4	357.490	0.240	-0.190	0.620
2020/01/31 16:38:36.5	357.480	0.280	-0.240	0.630
2020/01/31 16:38:36.6	357.470	0.310	-0.290	0.640
2020/01/31 16:38:36.7	357.460	0.340	-0.340	0.640
2020/01/31 16:38:36.8	357.450	0.370	-0.390	0.640
2020/01/31 16:38:36.9	357.440	0.390	-0.440	0.630
2020/01/31 16:38:37.0	357.440	0.410	-0.490	0.620
2020/01/31 16:38:37.1	357.450	0.420	-0.530	0.600
2020/01/31 16:38:37.2	357.450	0.430	-0.580	0.570
2020/01/31 16:38:37.3	357.460	0.430	-0.630	0.540
2020/01/31 16:38:37.4	357.470	0.430	-0.670	0.500
2020/01/31 16:38:37.5	357.490	0.430	-0.720	0.450
2020/01/31 16:38:37.6	357.510	0.420	-0.760	0.400
2020/01/31 16:38:37.7	357.530	0.410	-0.810	0.340
2020/01/31 16:38:37.8	357.560	0.390	-0.850	0.270
2020/01/31 16:38:37.9	357.580	0.370	-0.890	0.210
2020/01/31 16:38:38.0	357.610	0.340	-0.930	0.130
2020/01/31 16:38:38.1	357.640	0.320	-0.960	0.060
2020/01/31 16:38:38.2	357.680	0.290	-1.000	-0.020
2020/01/31 16:38:38.3	357.710	0.250	-1.030	-0.100
2020/01/31 16:38:38.4	357.750	0.220	-1.050	-0.180
2020/01/31 16:38:38.5	357.780	0.180	-1.070	-0.260
2020/01/31 16:38:38.6	357.820	0.140	-1.090	-0.340
2020/01/31 16:38:38.7	357.850	0.100	-1.100	-0.430
2020/01/31 16:38:38.8	357.890	0.060	-1.110	-0.500
2020/01/31 16:38:38.9	357.920	0.010	-1.110	-0.580
2020/01/31 16:38:39.0	357.950	-0.030	-1.100	-0.650
2020/01/31 16:38:39.1	357.980	-0.070	-1.090	-0.730
2020/01/31 16:38:39.2	358.010	-0.120	-1.070	-0.790
2020/01/31 16:38:39.3	358.040	-0.160	-1.050	-0.860
2020/01/31 16:38:39.4	358.070	-0.210	-1.020	-0.920
2020/01/31 16:38:39.5	358.090	-0.250	-0.980	-0.980
2020/01/31 16:38:39.6	358.120	-0.290	-0.940	-1.030
2020/01/31 16:38:39.7	358.140	-0.330	-0.900	-1.090
2020/01/31 16:38:39.8	358.160	-0.370	-0.850	-1.140
2020/01/31 16:38:39.9	358.180	-0.400	-0.790	-1.180
2020/01/31 16:38:40.0	358.200	-0.430	-0.740	-1.220
2020/01/31 16:38:40.1	358.210	-0.460	-0.680	-1.260
2020/01/31 16:38:40.2	358.230	-0.490	-0.620	-1.290
2020/01/31 16:38:40.3	358.240	-0.510	-0.560	-1.310
2020/01/31 16:38:40.4	358.260	-0.520	-0.500	-1.330
2020/01/31 16:38:40.5	358.270	-0.540	-0.430	-1.340
2020/01/31 16:38:40.6	358.280	-0.540	-0.370	-1.340
2020/01/31 16:38:40.7	358.290	-0.550	-0.310	-1.340
2020/01/31 16:38:40.8	358.300	-0.540	-0.250	-1.340
2020/01/31 16:38:40.9	358.300	-0.530	-0.190	-1.320
2020/01/31 16:38:41.0	358.310	-0.520	-0.130	-1.310
2020/01/31 16:38:41.1	358.320	-0.500	-0.080	-1.290
2020/01/31 16:38:41.2	358.320	-0.480	-0.040	-1.260
2020/01/31 16:38:41.3	358.320	-0.450	0.010	-1.230
2020/01/31 16:38:41.4	358.330	-0.410	0.040	-1.190
2020/01/31 16:38:41.5	358.330	-0.380	0.080	-1.150
2020/01/31 16:38:41.6	358.330	-0.330	0.110	-1.110
2020/01/31 16:38:41.7	358.320	-0.280	0.130	-1.060
2020/01/31 16:38:41.8	358.320	-0.230	0.140	-1.010
2020/01/31 16:38:41.9	358.310	-0.170	0.160	-0.950
2020/01/31 16:38:42.0	358.310	-0.110	0.160	-0.890
2020/01/31 16:38:42.1	358.300	-0.050	0.160	-0.830
2020/01/31 16:38:42.2	358.300	0.020	0.160	-0.760
2020/01/31 16:38:42.3	358.290	0.080	0.150	-0.700
2020/01/31 16:38:42.4	358.280	0.150	0.130	-0.630
2020/01/31 16:38:42.5	358.270	0.220	0.110	-0.560
2020/01/31 16:38:42.6	358.260	0.290	0.090	-0.490
2020/01/31 16:38:42.7	358.240	0.370	0.060	-0.420
2020/01/31 16:38:42.8	358.230	0.440	0.030	-0.350
2020/01/31 16:38:42.9	358.220	0.500	-0.010	-0.270
2020/01/31 16:38:43.0	358.210	0.570	-0.040	-0.200
2020/01/31 16:38:43.1	358.200	0.640	-0.080	-0.140
2020/01/31 16:38:43.2	358.190	0.700	-0.130	-0.070
2020/01/31 16:38:43.3	358.180	0.760	-0.170	-0.000
2020/01/31 16:38:43.4	358.170	0.810	-0.210	0.060
2020/01/31 16:38:43.5	358.170	0.860	-0.250	0.120
2020/01/31 16:38:43.6	358.160	0.910	-0.300	0.180
2020/01/31 16:38:43.7	358.160	0.950	-0.340	0.230
2020/01/31 16:38:43.8	358.150	0.980	-0.380	0.280
2020/01/31 16:38:43.9	358.150	1.010	-0.420	0.320
2020/01/31 16:38:44.0	358.150	1.030	-0.450	0.360
2020/01/31 16:38:44.1	358.150	1.040	-0.480	0.400
2020/01/31 16:38:44.2	358.150	1.050	-0.510	0.430
2020/01/31 16:38:44.3	358.150	1.050	-0.530	0.460
2020/01/31 16:38:44.4	358.150	1.040	-0.550	0.480
2020/01/31 16:38:44.5	358.160	1.020	-0.560	0.490
2020/01/31 16:38:44.6	358.160	1.000	-0.570	0.500
2020/01/31 16:38:44.7	358.160	0.970	-0.570	0.510
2020/01/31 16:38:44.8	358.160	0.940	-0.570	0.510
2020/01/31 16:38:44.9	358.160	0.900	-0.560	0.510
2020/01/31 16:38:45.0	358.160	0.850	-0.550	0.500
2020/01/31 16:38:45.1	358.160	0.790	-0.530	0.490
2020/01/31 16:38:45.2	358.160	0.740	-0.510	0.470
2020/01/31 16:38:45.3	358.160	0.670	-0.480	0.460
2020/01/31 16:38:45.4	358.150	0.600	-0.450	0.430
2020/01/31 16:38:45.5	358.140	0.530	-0.410	0.410
2020/01/31 16:38:45.6	358.140	0.460	-0.370	0.380
2020/01/31 16:38:45.7	358.130	0.380	-0.320	0.340
2020/01/31 16:38:45.8	358.120	0.300	-0.270	0.310
2020/01/31 16:38:45.9	358.110	0.220	-0.220	0.280
2020/01/31 16:38:46.0	358.100	0.140	-0.170	0.240
2020/01/31 16:38:46.1	358.080	0.060	-0.120	0.200
2020/01/31 16:38:46.2	358.070	-0.020	-0.070	0.160
2020/01/31 16:38:46.3	358.060	-0.100	-0.020	0.110
2020/01/31 16:38:46.4	358.050	-0.180	0.030	0.060
2020/01/31 16:38:46.5	358.040	-0.250	0.080	0.010
2020/01/31 16:38:46.6	358.030	-0.320	0.130	-0.040
2020/01/31 16:38:46.7	358.020	-0.390	0.170	-0.090
2020/01/31 16:38:46.8	358.010	-0.450	0.210	-0.140
2020/01/31 16:38:46.9	358.010	-0.510	0.240	-0.200
2020/01/31 16:38:47.0	358.000	-0.560	0.270	-0.260
2020/01/31 16:38:47.1	358.010	-0.610	0.290	-0.320
2020/01/31 16:38:47.2	358.010	-0.650	0.310	-0.380
2020/01/31 16:38:47.3	358.020	-0.680	0.320	-0.450
2020/01/31 16:38:47.4	358.030	-0.710	0.320	-0.510
2020/01/31 16:38:47.5	358.040	-0.730	0.320	-0.580
2020/01/31 16:38:47.6	358.050	-0.750	0.310	-0.640
2020/01/31 16:38:47.7	358.070	-0.760	0.280	-0.720
2020/01/31 16:38:47.8	358.090	-0.760	0.260	-0.780
2020/01/31 16:38:47.9	358.110	-0.760	0.240	-0.840
2020/01/31 16:38:48.0	358.120	-0.750	0.200	-0.900
2020/01/31 16:38:48.1	358.140	-0.740	0.170	-0.960
2020/01/31 16:38:48.2	358.160	-0.730	0.130	-1.020
2020/01/31 16:38:48.3	358.180	-0.700	0.090	-1.070
2020/01/31 16:38:48.4	358.200	-0.680	0.050	-1.120
2020/01/31 16:38:48.5	358.220	-0.650	0.000	-1.160
2020/01/31 16:38:48.6	358.240	-0.620	-0.040	-1.190
2020/01/31 16:38:48.7	358.250	-0.590	-0.080	-1.230
2020/01/31 16:38:48.8	358.260	-0.560	-0.120	-1.250
2020/01/31 16:38:48.9	358.270	-0.530	-0.160	-1.270
2020/01/31 16:38:49.0	358.270	-0.490	-0.200	-1.280
2020/01/31 16:38:49.1	358.280	-0.460	-0.240	-1.290
2020/01/31 16:38:49.2	358.280	-0.430	-0.270	-1.290
2020/01/31 16:38:49.3	358.270	-0.400	-0.300	-1.280
2020/01/31 16:38:49.4	358.270	-0.370	-0.320	-1.270
2020/01/31 16:38:49.5	358.260	-0.340	-0.340	-1.260
2020/01/31 16:38:49.6	358.250	-0.310	-0.360	-1.240
2020/01/31 16:38:49.7	358.240	-0.280	-0.370	-1.220
2020/01/31 16:38:49.8	358.230	-0.260	-0.380	-1.190
2020/01/31 16:38:49.9	358.210	-0.240	-0.380	-1.160
2020/01/31 16:38:50.0	358.190	-0.230	-0.380	-1.130
2020/01/31 16:38:50.1	358.160	-0.210	-0.370	-1.100
2020/01/31 16:38:50.2	358.140	-0.200	-0.360	-1.060
2020/01/31 16:38:50.3	358.110	-0.190	-0.350	-1.020
2020/01/31 16:38:50.4	358.080	-0.190	-0.330	-0.970
2020/01/31 16:38:50.5	358.050	-0.180	-0.310	-0.930
2020/01/31 16:38:50.6	358.020	-0.180	-0.290	-0.880
2020/01/31 16:38:50.7	357.980	-0.180	-0.270	-0.820
2020/01/31 16:38:50.8	357.950	-0.180	-0.240	-0.770
2020/01/31 16:38:50.9	357.920	-0.180	-0.220	-0.720
2020/01/31 16:38:51.0	357.890	-0.190	-0.190	-0.660
2020/01/31 16:38:51.1	357.860	-0.190	-0.170	-0.600
2020/01/31 16:38:51.2	357.830	-0.190	-0.150	-0.550
2020/01/31 16:38:51.3	357.800	-0.200	-0.130	-0.490
2020/01/31 16:38:51.4	357.780	-0.200	-0.110	-0.430
2020/01/31 16:38:51.5	357.750	-0.200	-0.090	-0.370
2020/01/31 16:38:51.6	357.720	-0.200	-0.080	-0.300
2020/01/31 16:38:51.7	357.700	-0.200	-0.060	-0.240
2020/01/31 16:38:51.8	357.680	-0.200	-0.060	-0.190
2020/01/31 16:38:51.9	357.660	-0.200	-0.050	-0.130
2020/01/31 16:38:52.0	357.640	-0.190	-0.050	-0.080
2020/01/31 16:38:52.1	357.620	-0.180	-0.060	-0.030
2020/01/31 16:38:52.2	357.610	-0.170	-0.070	0.020
2020/01/31 16:38:52.3	357.590	-0.160	-0.090	0.070
2020/01/31 16:38:52.4	357.580	-0.140	-0.110	0.110
2020/01/31 16:38:52.5	357.580	-0.120	-0.130	0.150
2020/01/31 16:38:52.6	357.570	-0.100	-0.160	0.180
2020/01/31 16:38:52.7	357.560	-0.070	-0.200	0.210
2020/01/31 16:38:52.8	357.560	-0.040	-0.230	0.230
2020/01/31 16:38:52.9	357.560	-0.010	-0.270	0.250
2020/01/31 16:38:53.0	357.570	0.030	-0.320	0.270
2020/01/31 16:38:53.1	357.580	0.070	-0.370	0.280
2020/01/31 16:38:53.2	357.590	0.110	-0.420	0.290
2020/01/31 16:38:53.3	357.600	0.150	-0.470	0.300
2020/01/31 16:38:53.4	357.610	0.200	-0.520	0.300
2020/01/31 16:38:53.5	357.630	0.240	-0.580	0.300
2020/01/31 16:38:53.6	357.650	0.290	-0.630	0.300
2020/01/31 16:38:53.7	357.670	0.340	-0.680	0.290
2020/01/31 16:38:53.8	357.690	0.380	-0.740	0.280
2020/01/31 16:38:53.9	357.720	0.430	-0.790	0.280
2020/01/31 16:38:54.0	357.740	0.480	-0.830	0.270
2020/01/31 16:38:54.1	357.760	0.520	-0.880	0.260
2020/01/31 16:38:54.2	357.780	0.560	-0.920	0.250
2020/01/31 16:38:54.3	357.800	0.600	-0.960	0.240
2020/01/31 16:38:54.4	357.820	0.640	-0.990	0.230
2020/01/31 16:38:54.5	357.840	0.670	-1.020	0.210
2020/01/31 16:38:54.6	357.860	0.700	-1.040	0.200
2020/01/31 16:38:54.7	357.880	0.730	-1.050	0.190
2020/01/31 16:38:54.8	357.890	0.750	-1.060	0.170
2020/01/31 16:38:54.9	357.910	0.770	-1.070	0.160
2020/01/31 16:38:55.0	357.920	0.780	-1.070	0.140
2020/01/31 16:38:55.1	357.940	0.780	-1.060	0.120
2020/01/31 16:38:55.2	357.950	0.790	-1.040	0.100
2020/01/31 16:38:55.3	357.960	0.780	-1.020	0.080
2020/01/31 16:38:55.4	357.970	0.770	-0.990	0.060
2020/01/31 16:38:55.5	357.980	0.760	-0.960	0.040
2020/01/31 16:38:55.6	357.980	0.740	-0.920	0.020
2020/01/31 16:38:55.7	357.990	0.720	-0.880	-0.000
2020/01/31 16:38:55.8	358.000	0.690	-0.830	-0.020
2020/01/31 16:38:55.9	358.010	0.660	-0.770	-0.040
2020/01/31 16:38:56.0	358.010	0.620	-0.720	-0.060
2020/01/31 16:38:56.1	358.020	0.580	-0.660	-0.090
2020/01/31 16:38:56.2	358.020	0.540	-0.590	-0.110
2020/01/31 16:38:56.3	358.030	0.490	-0.520	-0.120
2020/01/31 16:38:56.4	358.030	0.440	-0.460	-0.140
2020/01/31 16:38:56.5	358.030	0.390	-0.390	-0.160
2020/01/31 16:38:56.6	358.030	0.330	-0.310	-0.180
2020/01/31 16:38:56.7	358.030	0.270	-0.240	-0.210
2020/01/31 16:38:56.8	358.030	0.220	-0.170	-0.230
2020/01/31 16:38:56.9	358.030	0.160	-0.100	-0.250
2020/01/31 16:38:57.0	358.030	0.100	-0.030	-0.270
2020/01/31 16:38:57.1	358.020	0.040	0.040	-0.290
2020/01/31 16:38:57.2	358.020	-0.020	0.110	-0.310
2020/01/31 16:38:57.3	358.010	-0.070	0.170	-0.340
2020/01/31 16:38:57.4	358.010	-0.130	0.240	-0.360
2020/01/31 16:38:57.5	358.000	-0.180	0.300	-0.380
2020/01/31 16:38:57.6	357.990	-0.230	0.350	-0.400
2020/01/31 16:38:57.7	357.970	-0.280	0.400	-0.420
2020/01/31 16:38:57.8	357.960	-0.320	0.450	-0.440
2020/01/31 16:38:57.9	357.940	-0.370	0.500	-0.460
2020/01/31 16:38:58.0	357.930	-0.410	0.540	-0.470
2020/01/31 16:38:58.1	357.910	-0.440	0.580	-0.480
2020/01/31 16:38:58.2	357.890	-0.470	0.610	-0.490
2020/01/31 16:38:58.3	357.870	-0.500	0.640	-0.500
2020/01/31 16:38:58.4	357.850	-0.520	0.670	-0.510
2020/01/31 16:38:58.5	357.830	-0.540	0.680	-0.510
2020/01/31 16:38:58.6	357.810	-0.560	0.700	-0.510
2020/01/31 16:38:58.7	357.790	-0.570	0.710	-0.520
2020/01/31 16:38:58.8	357.760	-0.580	0.710	-0.520
2020/01/31 16:38:58.9	357.740	-0.580	0.710	-0.520
2020/01/31 16:38:59.0	357.720	-0.580	0.700	-0.520
2020/01/31 16:38:59.1	357.700	-0.570	0.680	-0.520
2020/01/31 16:38:59.2	357.680	-0.560	0.660	-0.520
2020/01/31 16:38:59.3	357.670	-0.550	0.630	-0.520
2020/01/31 16:38:59.4	357.650	-0.530	0.600	-0.520
2020/01/31 16:38:59.5	357.630	-0.520	0.570	-0.510
2020/01/31 16:38:59.6	357.620	-0.490	0.530	-0.510
2020/01/31 16:38:59.7	357.610	-0.470	0.480	-0.510
2020/01/31 16:38:59.8	357.600	-0.440	0.430	-0.500
2020/01/31 16:38:59.9	357.590	-0.410	0.380	-0.490
2020/01/31 16:39:00.0	357.570	-0.380	0.320	-0.480
2020/01/31 16:39:00.1	357.560	-0.340	0.260	-0.470
2020/01/31 16:39:00.2	357.550	-0.310	0.200	-0.460
2020/01/31 16:39:00.3	357.540	-0.270	0.140	-0.440
2020/01/31 16:39:00.4	357.520	-0.230	0.080	-0.420
2020/01/31 16:39:00.5	357.510	-0.200	0.020	-0.400
2020/01/31 16:39:00.6	357.490	-0.160	-0.040	-0.380
2020/01/31 16:39:00.7	357.470	-0.120	-0.110	-0.350
2020/01/31 16:39:00.8	357.450	-0.080	-0.170	-0.320
2020/01/31 16:39:00.9	357.430	-0.040	-0.220	-0.280
2020/01/31 16:39:01.0	357.410	-0.010	-0.280	-0.250
2020/01/31 16:39:01.1	357.390	0.030	-0.330	-0.210
2020/01/31 16:39:01.2	357.370	0.060	-0.380	-0.170
2020/01/31 16:39:01.3	357.350	0.090	-0.430	-0.130
2020/01/31 16:39:01.4	357.330	0.130	-0.470	-0.090
2020/01/31 16:39:01.5	357.310	0.160	-0.510	-0.050
2020/01/31 16:39:01.6	357.290	0.180	-0.550	-0.010
2020/01/31 16:39:01.7	357.270	0.210	-0.580	0.020
2020/01/31 16:39:01.8	357.250	0.230	-0.610	0.060
2020/01/31 16:39:01.9	357.240	0.250	-0.630	0.100
2020/01/31 16:39:02.0	357.230	0.270	-0.650	0.130
2020/01/31 16:39:02.1	357.220	0.290	-0.660	0.170
2020/01/31 16:39:02.2	357.220	0.310	-0.680	0.200
2020/01/31 16:39:02.3	357.220	0.320	-0.690	0.230
2020/01/31 16:39:02.4	357.220	0.330	-0.690	0.260
2020/01/31 16:39:02.5	357.220	0.340	-0.690	0.280
2020/01/31 16:39:02.6	357.230	0.340	-0.690	0.300
2020/01/31 16:39:02.7	357.240	0.340	-0.690	0.320
2020/01/31 16:39:02.8	357.260	0.350	-0.690	0.330
2020/01/31 16:39:02.9	357.280	0.350	-0.680	0.340
2020/01/31 16:39:03.0	357.300	0.340	-0.680	0.340
2020/01/31 16:39:03.1	357.320	0.340	-0.670	0.340
2020/01/31 16:39:03.2	357.350	0.330	-0.650	0.340
2020/01/31 16:39:03.3	357.380	0.320	-0.640	0.330
2020/01/31 16:39:03.4	357.410	0.310	-0.630	0.320
2020/01/31 16:39:03.5	357.430	0.300	-0.610	0.310
2020/01/31 16:39:03.6	357.460	0.280	-0.600	0.290
2020/01/31 16:39:03.7	357.490	0.260	-0.580	0.270
2020/01/31 16:39:03.8	357.520	0.240	-0.560	0.260
2020/01/31 16:39:03.9	357.550	0.220	-0.540	0.240
2020/01/31 16:39:04.0	357.580	0.200	-0.520	0.220
2020/01/31 16:39:04.1	357.600	0.180	-0.500	0.190
2020/01/31 16:39:04.2	357.630	0.150	-0.480	0.170
2020/01/31 16:39:04.3	357.660	0.120	-0.460	0.140
2020/01/31 16:39:04.4	357.680	0.100	-0.440	0.110
2020/01/31 16:39:04.5	357.700	0.070	-0.430	0.080
2020/01/31 16:39:04.6	357.730	0.040	-0.410	0.050
2020/01/31 16:39:04.7	357.740	0.010	-0.390	0.020
2020/01/31 16:39:04.8	357.760	-0.020	-0.380	-0.020
2020/01/31 16:39:04.9	357.780	-0.050	-0.370	-0.050
2020/01/31 16:39:05.0	357.800	-0.070	-0.350	-0.090
2020/01/31 16:39:05.1	357.820	-0.100	-0.340	-0.130
2020/01/31 16:39:05.2	357.830	-0.130	-0.340	-0.170
2020/01/31 16:39:05.3	357.840	-0.150	-0.330	-0.200
2020/01/31 16:39:05.4	357.850	-0.170	-0.320	-0.240
2020/01/31 16:39:05.5	357.860	-0.190	-0.320	-0.280
2020/01/31 16:39:05.6	357.870	-0.210	-0.310	-0.320
2020/01/31 16:39:05.7	357.880	-0.230	-0.310	-0.360
2020/01/31 16:39:05.8	357.880	-0.250	-0.310	-0.390
2020/01/31 16:39:05.9	357.880	-0.260	-0.310	-0.420
2020/01/31 16:39:06.0	357.880	-0.270	-0.320	-0.450
2020/01/31 16:39:06.1	357.870	-0.280	-0.320	-0.480
2020/01/31 16:39:06.2	357.860	-0.280	-0.320	-0.510
2020/01/31 16:39:06.3	357.850	-0.290	-0.330	-0.530
2020/01/31 16:39:06.4	357.840	-0.290	-0.330	-0.550
2020/01/31 16:39:06.5	357.830	-0.290	-0.340	-0.560
2020/01/31 16:39:06.6	357.810	-0.280	-0.350	-0.570
2020/01/31 16:39:06.7	357.780	-0.280	-0.350	-0.580
2020/01/31 16:39:06.8	357.760	-0.270	-0.360	-0.590
2020/01/31 16:39:06.9	357.740	-0.260	-0.370	-0.590
2020/01/31 16:39:07.0	357.720	-0.250	-0.380	-0.590
2020/01/31 16:39:07.1	357.700	-0.230	-0.390	-0.580
2020/01/31 16:39:07.2	357.670	-0.220	-0.400	-0.580
2020/01/31 16:39:07.3	357.650	-0.200	-0.410	-0.570
2020/01/31 16:39:07.4	357.630	-0.180	-0.420	-0.560
2020/01/31 16:39:07.5	357.600	-0.160	-0.430	-0.540
2020/01/31 16:39:07.6	357.580	-0.140	-0.440	-0.530
2020/01/31 16:39:07.7	357.560	-0.110	-0.450	-0.520
2020/01/31 16:39:07.8	357.540	-0.090	-0.460	-0.500
2020/01/31 16:39:07.9	357.530	-0.060	-0.470	-0.490
2020/01/31 16:39:08.0	357.510	-0.040	-0.470	-0.480
2020/01/31 16:39:08.1	357.500	-0.020	-0.480	-0.460
2020/01/31 16:39:08.2	357.490	0.010	-0.480	-0.450
2020/01/31 16:39:08.3	357.480	0.030	-0.490	-0.430
2020/01/31 16:39:08.4	357.470	0.060	-0.490	-0.420
2020/01/31 16:39:08.5	357.470	0.080	-0.480	-0.400
2020/01/31 16:39:08.6	357.460	0.100	-0.480	-0.390
2020/01/31 16:39:08.7	357.460	0.120	-0.470	-0.380
2020/01/31 16:39:08.8	357.460	0.140	-0.460	-0.370
2020/01/31 16:39:08.9	357.460	0.160	-0.440	-0.350
2020/01/31 16:39:09.0	357.460	0.180	-0.420	-0.340
2020/01/31 16:39:09.1	357.460	0.190	-0.400	-0.320
2020/01/31 16:39:09.2	357.470	0.200	-0.380	-0.310
2020/01/31 16:39:09.3	357.470	0.220	-0.340	-0.290
2020/01/31 16:39:09.4	357.470	0.230	-0.310	-0.270
2020/01/31 16:39:09.5	357.480	0.230	-0.270	-0.260
2020/01/31 16:39:09.6	357.480	0.240	-0.230	-0.230
2020/01/31 16:39:09.7	357.490	0.240	-0.190	-0.210
2020/01/31 16:39:09.8	357.490	0.240	-0.140	-0.190
2020/01/31 16:39:09.9	357.500	0.240	-0.090	-0.170
2020/01/31 16:39:10.0	357.500	0.240	-0.030	-0.140
2020/01/31 16:39:10.1	357.510	0.240	0.020	-0.120
2020/01/31 16:39:10.2	357.510	0.230	0.070	-0.090
2020/01/31 16:39:10.3	357.520	0.220	0.130	-0.060
2020/01/31 16:39:10.4	357.520	0.210	0.180	-0.040
2020/01/31 16:39:10.5	357.530	0.200	0.240	-0.010
2020/01/31 16:39:10.6	357.540	0.190	0.290	0.020
2020/01/31 16:39:10.7	357.550	0.180	0.340	0.040
2020/01/31 16:39:10.8	357.560	0.170	0.390	0.070
2020/01/31 16:39:10.9	357.560	0.150	0.430	0.100
2020/01/31 16:39:11.0	357.570	0.140	0.470	0.120
2020/01/31 16:39:11.1	357.580	0.120	0.510	0.150
2020/01/31 16:39:11.2	357.580	0.110	0.540	0.180
2020/01/31 16:39:11.3	357.590	0.090	0.570	0.210
2020/01/31 16:39:11.4	357.590	0.080	0.590	0.240
2020/01/31 16:39:11.5	357.590	0.070	0.610	0.270
2020/01/31 16:39:11.6	357.590	0.060	0.620	0.290
2020/01/31 16:39:11.7	357.600	0.050	0.630	0.320
2020/01/31 16:39:11.8	357.600	0.040	0.630	0.350
2020/01/31 16:39:11.9	357.600	0.030	0.620	0.370
2020/01/31 16:39:12.0	357.600	0.020	0.610	0.390
2020/01/31 16:39:12.1	357.600	0.010	0.590	0.420
2020/01/31 16:39:12.2	357.590	0.010	0.560	0.440
2020/01/31 16:39:12.3	357.590	0.010	0.530	0.460
2020/01/31 16:39:12.4	357.590	0.010	0.500	0.470
2020/01/31 16:39:12.5	357.590	0.010	0.450	0.490
2020/01/31 16:39:12.6	357.580	0.010	0.410	0.500
2020/01/31 16:39:12.7	357.580	0.010	0.350	0.510
2020/01/31 16:39:12.8	357.580	0.020	0.290	0.510
2020/01/31 16:39:12.9	357.570	0.020	0.230	0.520
2020/01/31 16:39:13.0	357.570	0.030	0.170	0.520
2020/01/31 16:39:13.1	357.560	0.040	0.100	0.510
2020/01/31 16:39:13.2	357.560	0.050	0.030	0.500
2020/01/31 16:39:13.3	357.550	0.050	-0.050	0.490
2020/01/31 16:39:13.4	357.550	0.060	-0.120	0.470
2020/01/31 16:39:13.5	357.540	0.070	-0.200	0.450
2020/01/31 16:39:13.6	357.540	0.070	-0.280	0.430
2020/01/31 16:39:13.7	357.540	0.080	-0.350	0.390
2020/01/31 16:39:13.8	357.530	0.090	-0.430	0.360
2020/01/31 16:39:13.9	357.530	0.090	-0.510	0.330
2020/01/31 16:39:14.0	357.530	0.090	-0.580	0.290
2020/01/31 16:39:14.1	357.530	0.090	-0.650	0.240
2020/01/31 16:39:14.2	357.530	0.090	-0.730	0.200
2020/01/31 16:39:14.3	357.530	0.080	-0.790	0.150
2020/01/31 16:39:14.4	357.530	0.080	-0.860	0.100
2020/01/31 16:39:14.5	357.530	0.070	-0.920	0.040
2020/01/31 16:39:14.6	357.530	0.060	-0.970	-0.010
2020/01/31 16:39:14.7	357.520	0.050	-1.020	-0.070
2020/01/31 16:39:14.8	357.530	0.030	-1.070	-0.130
2020/01/31 16:39:14.9	357.530	0.010	-1.110	-0.200
2020/01/31 16:39:15.0	357.540	-0.010	-1.140	-0.260
2020/01/31 16:39:15.1	357.550	-0.030	-1.170	-0.330
2020/01/31 16:39:15.2	357.550	-0.060	-1.190	-0.390
2020/01/31 16:39:15.3	357.560	-0.080	-1.210	-0.460
2020/01/31 16:39:15.4	357.570	-0.110	-1.210	-0.530
2020/01/31 16:39:15.5	357.580	-0.140	-1.220	-0.600
2020/01/31 16:39:15.6	357.590	-0.170	-1.210	-0.670
2020/01/31 16:39:15.7	357.610	-0.200	-1.200	-0.740
2020/01/31 16:39:15.8	357.620	-0.230	-1.180	-0.800
2020/01/31 16:39:15.9	357.630	-0.260	-1.160	-0.860
2020/01/31 16:39:16.0	357.650	-0.290	-1.130	-0.920
2020/01/31 16:39:16.1	357.660	-0.320	-1.100	-0.980
2020/01/31 16:39:16.2	357.680	-0.350	-1.060	-1.030
2020/01/31 16:39:16.3	357.690	-0.380	-1.010	-1.070
2020/01/31 16:39:16.4	357.700	-0.410	-0.960	-1.120
2020/01/31 16:39:16.5	357.720	-0.430	-0.900	-1.150
2020/01/31 16:39:16.6	357.730	-0.460	-0.850	-1.180
2020/01/31 16:39:16.7	357.750	-0.480	-0.790	-1.210
2020/01/31 16:39:16.8	357.760	-0.490	-0.720	-1.240
2020/01/31 16:39:16.9	357.770	-0.510	-0.650	-1.250
2020/01/31 16:39:17.0	357.790	-0.520	-0.590	-1.270
2020/01/31 16:39:17.1	357.810	-0.530	-0.520	-1.280
2020/01/31 16:39:17.2	357.820	-0.530	-0.450	-1.280
2020/01/31 16:39:17.3	357.840	-0.530	-0.380	-1.290
2020/01/31 16:39:17.4	357.860	-0.520	-0.310	-1.290
2020/01/31 16:39:17.5	357.870	-0.510	-0.250	-1.280
2020/01/31 16:39:17.6	357.890	-0.500	-0.180	-1.270
2020/01/31 16:39:17.7	357.910	-0.480	-0.120	-1.260
2020/01/31 16:39:17.8	357.930	-0.460	-0.060	-1.240
2020/01/31 16:39:17.9	357.950	-0.430	-0.010	-1.220
2020/01/31 16:39:18.0	357.970	-0.400	0.040	-1.200
2020/01/31 16:39:18.1	357.990	-0.370	0.090	-1.170
2020/01/31 16:39:18.2	358.000	-0.330	0.130	-1.130
2020/01/31 16:39:18.3	358.020	-0.290	0.180	-1.090
2020/01/31 16:39:18.4	358.030	-0.250	0.210	-1.050
2020/01/31 16:39:18.5	358.040	-0.210	0.250	-1.000
2020/01/31 16:39:18.6	358.050	-0.160	0.280	-0.950
2020/01/31 16:39:18.7	358.060	-0.120	0.310	-0.900
2020/01/31 16:39:18.8	358.060	-0.070	0.330	-0.840
2020/01/31 16:39:18.9	358.050	-0.030	0.350	-0.770
2020/01/31 16:39:19.0	358.050	0.020	0.370	-0.710
2020/01/31 16:39:19.1	358.040	0.060	0.380	-0.640
2020/01/31 16:39:19.2	358.030	0.100	0.390	-0.570
2020/01/31 16:39:19.3	358.010	0.140	0.400	-0.500
2020/01/31 16:39:19.4	357.990	0.180	0.410	-0.420
2020/01/31 16:39:19.5	357.970	0.220	0.410	-0.350
2020/01/31 16:39:19.6	357.940	0.250	0.410	-0.270
2020/01/31 16:39:19.7	357.910	0.280	0.400	-0.200
2020/01/31 16:39:19.8	357.880	0.310	0.400	-0.120
2020/01/31 16:39:19.9	357.850	0.330	0.390	-0.050
2020/01/31 16:39:20.0	357.820	0.350	0.380	0.020
2020/01/31 16:39:20.1	357.780	0.360	0.360	0.080
2020/01/31 16:39:20.2	357.750	0.370	0.340	0.140
2020/01/31 16:39:20.3	357.710	0.380	0.320	0.200
2020/01/31 16:39:20.4	357.680	0.390	0.290	0.260
2020/01/31 16:39:20.5	357.640	0.390	0.270	0.310
2020/01/31 16:39:20.6	357.610	0.380	0.230	0.360
2020/01/31 16:39:20.7	357.570	0.380	0.200	0.410
2020/01/31 16:39:20.8	357.540	0.370	0.170	0.450
2020/01/31 16:39:20.9	357.510	0.360	0.130	0.480
2020/01/31 16:39:21.0	357.480	0.350	0.080	0.510
2020/01/31 16:39:21.1	357.450	0.330	0.040	0.530
2020/01/31 16:39:21.2	357.430	0.310	-0.010	0.550
2020/01/31 16:39:21.3	357.410	0.300	-0.060	0.570
2020/01/31 16:39:21.4	357.390	0.280	-0.110	0.580
2020/01/31 16:39:21.5	357.370	0.260	-0.160	0.580
2020/01/31 16:39:21.6	357.350	0.240	-0.210	0.580
2020/01/31 16:39:21.7	357.350	0.230	-0.260	0.570
2020/01/31 16:39:21.8	357.340	0.210	-0.310	0.570
2020/01/31 16:39:21.9	357.330	0.190	-0.370	0.550
2020/01/31 16:39:22.0	357.320	0.180	-0.420	0.540
2020/01/31 16:39:22.1	357.320	0.160	-0.470	0.520
2020/01/31 16:39:22.2	357.320	0.150	-0.520	0.500
2020/01/31 16:39:22.3	357.310	0.140	-0.570	0.470
2020/01/31 16:39:22.4	357.310	0.130	-0.620	0.440
2020/01/31 16:39:22.5	357.320	0.120	-0.660	0.410
2020/01/31 16:39:22.6	357.320	0.110	-0.700	0.370
2020/01/31 16:39:22.7	357.330	0.110	-0.740	0.330
2020/01/31 16:39:22.8	357.330	0.100	-0.780	0.290
2020/01/31 16:39:22.9	357.340	0.100	-0.810	0.250
2020/01/31 16:39:23.0	357.350	0.100	-0.840	0.200
2020/01/31 16:39:23.1	357.360	0.100	-0.870	0.150
2020/01/31 16:39:23.2	357.370	0.110	-0.890	0.100
2020/01/31 16:39:23.3	357.390	0.110	-0.910	0.040
2020/01/31 16:39:23.4	357.400	0.110	-0.930	-0.010
2020/01/31 16:39:23.5	357.420	0.120	-0.940	-0.070
2020/01/31 16:39:23.6	357.440	0.120	-0.950	-0.130
2020/01/31 16:39:23.7	357.450	0.130	-0.950	-0.190
2020/01/31 16:39:23.8	357.470	0.140	-0.950	-0.250
2020/01/31 16:39:23.9	357.500	0.140	-0.950	-0.310
2020/01/31 16:39:24.0	357.520	0.150	-0.940	-0.370
2020/01/31 16:39:24.1	357.550	0.160	-0.930	-0.430
2020/01/31 16:39:24.2	357.570	0.160	-0.910	-0.490
2020/01/31 16:39:24.3	357.600	0.160	-0.890	-0.540
2020/01/31 16:39:24.4	357.630	0.170	-0.870	-0.600
2020/01/31 16:39:24.5	357.650	0.170	-0.840	-0.650
2020/01/31 16:39:24.6	357.680	0.170	-0.810	-0.690
2020/01/31 16:39:24.7	357.710	0.170	-0.780	-0.740
2020/01/31 16:39:24.8	357.730	0.160	-0.740	-0.780
2020/01/31 16:39:24.9	357.750	0.160	-0.700	-0.810
2020/01/31 16:39:25.0	357.770	0.150	-0.660	-0.840
2020/01/31 16:39:25.1	357.790	0.140	-0.620	-0.860
2020/01/31 16:39:25.2	357.800	0.120	-0.570	-0.890
2020/01/31 16:39:25.3	357.820	0.110	-0.520	-0.900
2020/01/31 16:39:25.4	357.830	0.090	-0.460	-0.920
2020/01/31 16:39:25.5	357.840	0.070	-0.410	-0.920
2020/01/31 16:39:25.6	357.850	0.050	-0.350	-0.930
2020/01/31 16:39:25.7	357.860	0.030	-0.290	-0.930
2020/01/31 16:39:25.8	357.870	0.000	-0.230	-0.920
2020/01/31 16:39:25.9	357.870	-0.030	-0.170	-0.920
2020/01/31 16:39:26.0	357.880	-0.060	-0.100	-0.900
2020/01/31 16:39:26.1	357.880	-0.080	-0.040	-0.890
2020/01/31 16:39:26.2	357.890	-0.120	0.020	-0.870
2020/01/31 16:39:26.3	357.890	-0.150	0.080	-0.840
2020/01/31 16:39:26.4	357.890	-0.180	0.140	-0.820
2020/01/31 16:39:26.5	357.890	-0.210	0.200	-0.790
2020/01/31 16:39:26.6	357.890	-0.240	0.260	-0.760
2020/01/31 16:39:26.7	357.880	-0.270	0.320	-0.720
2020/01/31 16:39:26.8	357.870	-0.300	0.370	-0.690
2020/01/31 16:39:26.9	357.870	-0.330	0.420	-0.650
2020/01/31 16:39:27.0	357.860	-0.360	0.470	-0.610
2020/01/31 16:39:27.1	357.860	-0.380	0.510	-0.560
2020/01/31 16:39:27.2	357.850	-0.400	0.550	-0.520
2020/01/31 16:39:27.3	357.830	-0.420	0.590	-0.470
2020/01/31 16:39:27.4	357.820	-0.440	0.620	-0.430
2020/01/31 16:39:27.5	357.810	-0.460	0.650	-0.380
2020/01/31 16:39:27.6	357.800	-0.470	0.670	-0.330
2020/01/31 16:39:27.7	357.780	-0.480	0.680	-0.290
2020/01/31 16:39:27.8	357.760	-0.480	0.680	-0.240
2020/01/31 16:39:27.9	357.750	-0.490	0.680	-0.190
2020/01/31 16:39:28.0	357.730	-0.490	0.670	-0.150
2020/01/31 16:39:28.1	357.710	-0.480	0.660	-0.110
2020/01/31 16:39:28.2	357.700	-0.470	0.640	-0.070
2020/01/31 16:39:28.3	357.680	-0.460	0.610	-0.030
2020/01/31 16:39:28.4	357.660	-0.450	0.570	0.010
2020/01/31 16:39:28.5	357.650	-0.430	0.520	0.050
2020/01/31 16:39:28.6	357.630	-0.410	0.470	0.080
2020/01/31 16:39:28.7	357.610	-0.380	0.420	0.110
2020/01/31 16:39:28.8	357.600	-0.350	0.360	0.140
2020/01/31 16:39:28.9	357.580	-0.320	0.290	0.170
2020/01/31 16:39:29.0	357.560	-0.290	0.220	0.200
2020/01/31 16:39:29.1	357.540	-0.260	0.140	0.220
2020/01/31 16:39:29.2	357.530	-0.220	0.060	0.240
2020/01/31 16:39:29.3	357.510	-0.190	-0.020	0.260
2020/01/31 16:39:29.4	357.490	-0.150	-0.100	0.280
2020/01/31 16:39:29.5	357.480	-0.110	-0.180	0.290
2020/01/31 16:39:29.6	357.470	-0.070	-0.270	0.300
2020/01/31 16:39:29.7	357.450	-0.030	-0.360	0.310
2020/01/31 16:39:29.8	357.440	0.010	-0.440	0.310
2020/01/31 16:39:29.9	357.430	0.050	-0.520	0.310
2020/01/31 16:39:30.0	357.420	0.080	-0.600	0.310
2020/01/31 16:39:30.1	357.410	0.120	-0.680	0.300
2020/01/31 16:39:30.2	357.410	0.150	-0.750	0.290
2020/01/31 16:39:30.3	357.400	0.180	-0.820	0.280
2020/01/31 16:39:30.4	357.400	0.210	-0.880	0.260
2020/01/31 16:39:30.5	357.400	0.240	-0.940	0.240
2020/01/31 16:39:30.6	357.410	0.270	-1.000	0.220
2020/01/31 16:39:30.7	357.410	0.290	-1.040	0.190
2020/01/31 16:39:30.8	357.420	0.310	-1.080	0.160
2020/01/31 16:39:30.9	357.420	0.320	-1.110	0.130
2020/01/31 16:39:31.0	357.430	0.330	-1.140	0.100
2020/01/31 16:39:31.1	357.440	0.340	-1.160	0.070
2020/01/31 16:39:31.2	357.450	0.350	-1.170	0.040
2020/01/31 16:39:31.3	357.460	0.350	-1.170	0.010
2020/01/31 16:39:31.4	357.470	0.350	-1.170	-0.020
2020/01/31 16:39:31.5	357.480	0.340	-1.150	-0.050
2020/01/31 16:39:31.6	357.490	0.330	-1.130	-0.090
2020/01/31 16:39:31.7	357.490	0.320	-1.100	-0.120
2020/01/31 16:39:31.8	357.500	0.310	-1.060	-0.150
2020/01/31 16:39:31.9	357.510	0.290	-1.020	-0.180
2020/01/31 16:39:32.0	357.520	0.270	-0.970	-0.210
2020/01/31 16:39:32.1	357.530	0.250	-0.910	-0.230
2020/01/31 16:39:32.2	357.530	0.220	-0.850	-0.260
2020/01/31 16:39:32.3	357.540	0.190	-0.780	-0.280
2020/01/31 16:39:32.4	357.540	0.160	-0.710	-0.310
2020/01/31 16:39:32.5	357.550	0.130	-0.640	-0.330
2020/01/31 16:39:32.6	357.550	0.100	-0.560	-0.350
2020/01/31 16:39:32.7	357.560	0.070	-0.490	-0.370
2020/01/31 16:39:32.8	357.560	0.040	-0.410	-0.390
2020/01/31 16:39:32.9	357.560	0.000	-0.330	-0.410
2020/01/31 16:39:33.0	357.560	-0.030	-0.260	-0.420
2020/01/31 16:39:33.1	357.570	-0.060	-0.180	-0.440
2020/01/31 16:39:33.2	357.570	-0.090	-0.110	-0.450
2020/01/31 16:39:33.3	357.570	-0.110	-0.050	-0.460
2020/01/31 16:39:33.4	357.570	-0.140	0.020	-0.470
2020/01/31 16:39:33.5	357.580	-0.160	0.080	-0.470
2020/01/31 16:39:33.6	357.580	-0.180	0.140	-0.470
2020/01/31 16:39:33.7	357.580	-0.200	0.190	-0.470
2020/01/31 16:39:33.8	357.580	-0.210	0.240	-0.470
2020/01/31 16:39:33.9	357.580	-0.230	0.280	-0.460
2020/01/31 16:39:34.0	357.580	-0.240	0.320	-0.450
2020/01/31 16:39:34.1	357.570	-0.240	0.350	-0.430
2020/01/31 16:39:34.2	357.560	-0.250	0.380	-0.410
2020/01/31 16:39:34.3	357.550	-0.250	0.400	-0.390
2020/01/31 16:39:34.4	357.540	-0.240	0.420	-0.370
2020/01/31 16:39:34.5	357.520	-0.240	0.430	-0.350
2020/01/31 16:39:34.6	357.510	-0.230	0.440	-0.320
2020/01/31 16:39:34.7	357.490	-0.230	0.440	-0.290
2020/01/31 16:39:34.8	357.470	-0.220	0.440	-0.270
2020/01/31 16:39:34.9	357.450	-0.200	0.440	-0.240
2020/01/31 16:39:35.0	357.430	-0.190	0.430	-0.210
2020/01/31 16:39:35.1	357.410	-0.180	0.410	-0.190
2020/01/31 16:39:35.2	357.390	-0.160	0.390	-0.170
2020/01/31 16:39:35.3	357.370	-0.140	0.370	-0.140
2020/01/31 16:39:35.4	357.350	-0.130	0.340	-0.120
2020/01/31 16:39:35.5	357.320	-0.110	0.310	-0.110
2020/01/31 16:39:35.6	357.310	-0.090	0.270	-0.090
2020/01/31 16:39:35.7	357.290	-0.070	0.230	-0.080
2020/01/31 16:39:35.8	357.270	-0.050	0.190	-0.070
2020/01/31 16:39:35.9	357.260	-0.030	0.140	-0.060
2020/01/31 16:39:36.0	357.240	-0.010	0.090	-0.050
2020/01/31 16:39:36.1	357.230	0.010	0.040	-0.050
2020/01/31 16:39:36.2	357.220	0.030	-0.020	-0.050
2020/01/31 16:39:36.3	357.220	0.050	-0.080	-0.050
2020/01/31 16:39:36.4	357.210	0.080	-0.140	-0.050
2020/01/31 16:39:36.5	357.210	0.100	-0.200	-0.050
2020/01/31 16:39:36.6	357.210	0.120	-0.260	-0.050
2020/01/31 16:39:36.7	357.220	0.140	-0.320	-0.060
2020/01/31 16:39:36.8	357.220	0.160	-0.390	-0.060
2020/01/31 16:39:36.9	357.230	0.170	-0.450	-0.070
2020/01/31 16:39:37.0	357.230	0.190	-0.510	-0.070
2020/01/31 16:39:37.1	357.240	0.210	-0.570	-0.080
2020/01/31 16:39:37.2	357.250	0.220	-0.620	-0.090
2020/01/31 16:39:37.3	357.260	0.240	-0.680	-0.100
2020/01/31 16:39:37.4	357.270	0.250	-0.730	-0.110
2020/01/31 16:39:37.5	357.290	0.260	-0.780	-0.120
2020/01/31 16:39:37.6	357.300	0.270	-0.830	-0.140
2020/01/31 16:39:37.7	357.320	0.280	-0.870	-0.160
2020/01/31 16:39:37.8	357.340	0.290	-0.910	-0.180
2020/01/31 16:39:37.9	357.360	0.290	-0.940	-0.200
2020/01/31 16:39:38.0	357.380	0.300	-0.970	-0.230
2020/01/31 16:39:38.1	357.400	0.300	-0.990	-0.250
2020/01/31 16:39:38.2	357.430	0.300	-1.010	-0.280
2020/01/31 16:39:38.3	357.450	0.300	-1.020	-0.310
2020/01/31 16:39:38.4	357.470	0.300	-1.030	-0.340
2020/01/31 16:39:38.5	357.500	0.290	-1.030	-0.370
2020/01/31 16:39:38.6	357.520	0.280	-1.020	-0.410
2020/01/31 16:39:38.7	357.540	0.280	-1.010	-0.440
2020/01/31 16:39:38.8	357.560	0.270	-0.990	-0.470
2020/01/31 16:39:38.9	357.580	0.250	-0.960	-0.500
2020/01/31 16:39:39.0	357.590	0.240	-0.930	-0.520
2020/01/31 16:39:39.1	357.610	0.230	-0.880	-0.550
2020/01/31 16:39:39.2	357.620	0.210	-0.840	-0.570
2020/01/31 16:39:39.3	357.630	0.190	-0.790	-0.580
2020/01/31 16:39:39.4	357.640	0.170	-0.730	-0.590
2020/01/31 16:39:39.5	357.640	0.150	-0.660	-0.600
2020/01/31 16:39:39.6	357.640	0.130	-0.600	-0.600
2020/01/31 16:39:39.7	357.640	0.100	-0.530	-0.600
2020/01/31 16:39:39.8	357.640	0.080	-0.450	-0.590
2020/01/31 16:39:39.9	357.630	0.050	-0.380	-0.580
2020/01/31 16:39:40.0	357.620	0.020	-0.300	-0.570
2020/01/31 16:39:40.1	357.610	-0.000	-0.220	-0.550
2020/01/31 16:39:40.2	357.600	-0.030	-0.140	-0.520
2020/01/31 16:39:40.3	357.580	-0.060	-0.060	-0.500
2020/01/31 16:39:40.4	357.570	-0.090	0.010	-0.470
2020/01/31 16:39:40.5	357.550	-0.120	0.080	-0.440
2020/01/31 16:39:40.6	357.540	-0.140	0.150	-0.400
2020/01/31 16:39:40.7	357.520	-0.170	0.220	-0.370
2020/01/31 16:39:40.8	357.500	-0.190	0.280	-0.330
2020/01/31 16:39:40.9	357.490	-0.210	0.330	-0.300
2020/01/31 16:39:41.0	357.480	-0.230	0.380	-0.270
2020/01/31 16:39:41.1	357.470	-0.250	0.420	-0.240
2020/01/31 16:39:41.2	357.460	-0.270	0.450	-0.210
2020/01/31 16:39:41.3	357.450	-0.280	0.470	-0.180
2020/01/31 16:39:41.4	357.440	-0.290	0.490	-0.160
2020/01/31 16:39:41.5	357.430	-0.300	0.500	-0.140
2020/01/31 16:39:41.6	357.430	-0.300	0.500	-0.120
2020/01/31 16:39:41.7	357.430	-0.310	0.490	-0.110
2020/01/31 16:39:41.8	357.430	-0.310	0.470	-0.100
2020/01/31 16:39:41.9	357.420	-0.300	0.450	-0.090
2020/01/31 16:39:42.0	357.420	-0.300	0.430	-0.090
2020/01/31 16:39:42.1	357.420	-0.290	0.400	-0.080
2020/01/31 16:39:42.2	357.420	-0.280	0.370	-0.080
2020/01/31 16:39:42.3	357.410	-0.270	0.330	-0.070
2020/01/31 16:39:42.4	357.410	-0.260	0.300	-0.070
2020/01/31 16:39:42.5	357.400	-0.240	0.260	-0.070
2020/01/31 16:39:42.6	357.390	-0.230	0.220	-0.060
2020/01/31 16:39:42.7	357.390	-0.210	0.180	-0.060
2020/01/31 16:39:42.8	357.380	-0.190	0.140	-0.050
2020/01/31 16:39:42.9	357.360	-0.170	0.110	-0.050
2020/01/31 16:39:43.0	357.350	-0.150	0.070	-0.040
2020/01/31 16:39:43.1	357.330	-0.140	0.040	-0.030
2020/01/31 16:39:43.2	357.320	-0.120	0.010	-0.020
2020/01/31 16:39:43.3	357.300	-0.100	-0.020	-0.010
2020/01/31 16:39:43.4	357.280	-0.080	-0.050	0.000
2020/01/31 16:39:43.5	357.260	-0.060	-0.070	0.010
2020/01/31 16:39:43.6	357.250	-0.050	-0.090	0.020
2020/01/31 16:39:43.7	357.230	-0.030	-0.110	0.030
2020/01/31 16:39:43.8	357.210	-0.010	-0.130	0.040
2020/01/31 16:39:43.9	357.190	0.000	-0.150	0.050
2020/01/31 16:39:44.0	357.170	0.010	-0.160	0.060
2020/01/31 16:39:44.1	357.160	0.030	-0.170	0.070
2020/01/31 16:39:44.2	357.140	0.040	-0.190	0.070
2020/01/31 16:39:44.3	357.130	0.050	-0.200	0.080
2020/01/31 16:39:44.4	357.120	0.060	-0.210	0.080
2020/01/31 16:39:44.5	357.110	0.070	-0.220	0.080
2020/01/31 16:39:44.6	357.100	0.080	-0.230	0.080
2020/01/31 16:39:44.7	357.090	0.090	-0.250	0.080
2020/01/31 16:39:44.8	357.090	0.100	-0.270	0.070
2020/01/31 16:39:44.9	357.090	0.110	-0.290	0.070
2020/01/31 16:39:45.0	357.090	0.120	-0.310	0.060
2020/01/31 16:39:45.1	357.090	0.130	-0.330	0.050
2020/01/31 16:39:45.2	357.100	0.130	-0.350	0.040
2020/01/31 16:39:45.3	357.110	0.140	-0.380	0.030
2020/01/31 16:39:45.4	357.120	0.150	-0.410	0.010
2020/01/31 16:39:45.5	357.130	0.160	-0.440	-0.000
2020/01/31 16:39:45.6	357.140	0.170	-0.470	-0.020
2020/01/31 16:39:45.7	357.150	0.180	-0.510	-0.050
2020/01/31 16:39:45.8	357.170	0.180	-0.550	-0.070
2020/01/31 16:39:45.9	357.180	0.190	-0.580	-0.090
2020/01/31 16:39:46.0	357.200	0.200	-0.620	-0.110
2020/01/31 16:39:46.1	357.220	0.200	-0.660	-0.140
2020/01/31 16:39:46.2	357.240	0.210	-0.700	-0.160
2020/01/31 16:39:46.3	357.250	0.210	-0.730	-0.190
2020/01/31 16:39:46.4	357.270	0.220	-0.770	-0.210
2020/01/31 16:39:46.5	357.290	0.220	-0.800	-0.240
2020/01/31 16:39:46.6	357.310	0.220	-0.840	-0.270
2020/01/31 16:39:46.7	357.310	0.220	-0.870	-0.300
2020/01/31 16:39:46.8	357.330	0.220	-0.890	-0.330
2020/01/31 16:39:46.9	357.350	0.210	-0.920	-0.350
2020/01/31 16:39:47.0	357.370	0.210	-0.940	-0.390
2020/01/31 16:39:47.1	357.390	0.200	-0.960	-0.420
2020/01/31 16:39:47.2	357.410	0.190	-0.970	-0.450
2020/01/31 16:39:47.3	357.420	0.180	-0.980	-0.480
2020/01/31 16:39:47.4	357.440	0.170	-0.980	-0.510
2020/01/31 16:39:47.5	357.460	0.160	-0.980	-0.530
2020/01/31 16:39:47.6	357.480	0.140	-0.970	-0.560
2020/01/31 16:39:47.7	357.490	0.130	-0.960	-0.590
2020/01/31 16:39:47.8	357.510	0.110	-0.940	-0.620
2020/01/31 16:39:47.9	357.530	0.090	-0.910	-0.640
2020/01/31 16:39:48.0	357.540	0.070	-0.880	-0.660
2020/01/31 16:39:48.1	357.560	0.050	-0.850	-0.680
2020/01/31 16:39:48.2	357.570	0.030	-0.810	-0.690
2020/01/31 16:39:48.3	357.590	0.010	-0.770	-0.710
2020/01/31 16:39:48.4	357.600	-0.010	-0.720	-0.720
2020/01/31 16:39:48.5	357.610	-0.030	-0.670	-0.730
2020/01/31 16:39:48.6	357.620	-0.060	-0.620	-0.740
2020/01/31 16:39:48.7	357.630	-0.080	-0.560	-0.740
2020/01/31 16:39:48.8	357.640	-0.100	-0.500	-0.740
2020/01/31 16:39:48.9	357.650	-0.130	-0.440	-0.750
2020/01/31 16:39:49.0	357.650	-0.150	-0.370	-0.750
2020/01/31 16:39:49.1	357.660	-0.170	-0.310	-0.740
2020/01/31 16:39:49.2	357.660	-0.190	-0.240	-0.740
2020/01/31 16:39:49.3	357.670	-0.210	-0.170	-0.730
2020/01/31 16:39:49.4	357.670	-0.230	-0.100	-0.720
2020/01/31 16:39:49.5	357.670	-0.250	-0.040	-0.710
2020/01/31 16:39:49.6	357.670	-0.270	0.030	-0.700
2020/01/31 16:39:49.7	357.670	-0.280	0.100	-0.680
2020/01/31 16:39:49.8	357.670	-0.300	0.160	-0.660
2020/01/31 16:39:49.9	357.660	-0.310	0.230	-0.640
2020/01/31 16:39:50.0	357.660	-0.320	0.290	-0.620
2020/01/31 16:39:50.1	357.660	-0.330	0.350	-0.590
2020/01/31 16:39:50.2	357.650	-0.330	0.400	-0.560
2020/01/31 16:39:50.3	357.650	-0.330	0.460	-0.530
2020/01/31 16:39:50.4	357.640	-0.330	0.510	-0.500
2020/01/31 16:39:50.5	357.640	-0.330	0.550	-0.470
2020/01/31 16:39:50.6	357.630	-0.330	0.590	-0.430
2020/01/31 16:39:50.7	357.620	-0.320	0.630	-0.390
2020/01/31 16:39:50.8	357.610	-0.310	0.660	-0.360
2020/01/31 16:39:50.9	357.600	-0.300	0.690	-0.320
2020/01/31 16:39:51.0	357.590	-0.290	0.710	-0.280
2020/01/31 16:39:51.1	357.580	-0.280	0.730	-0.230
2020/01/31 16:39:51.2	357.560	-0.260	0.740	-0.190
2020/01/31 16:39:51.3	357.550	-0.240	0.750	-0.150
2020/01/31 16:39:51.4	357.530	-0.230	0.750	-0.110
2020/01/31 16:39:51.5	357.510	-0.210	0.740	-0.060
2020/01/31 16:39:51.6	357.490	-0.190	0.730	-0.020
2020/01/31 16:39:51.7	357.470	-0.170	0.710	0.030
2020/01/31 16:39:51.8	357.450	-0.150	0.690	0.070
2020/01/31 16:39:51.9	357.420	-0.130	0.660	0.110
2020/01/31 16:39:52.0	357.390	-0.110	0.630	0.150
2020/01/31 16:39:52.1	357.360	-0.090	0.590	0.190
2020/01/31 16:39:52.2	357.330	-0.080	0.540	0.220
2020/01/31 16:39:52.3	357.290	-0.060	0.490	0.260
2020/01/31 16:39:52.4	357.260	-0.040	0.430	0.290
2020/01/31 16:39:52.5	357.230	-0.020	0.370	0.310
2020/01/31 16:39:52.6	357.200	-0.010	0.310	0.340
2020/01/31 16:39:52.7	357.160	0.010	0.240	0.360
2020/01/31 16:39:52.8	357.130	0.020	0.160	0.380
2020/01/31 16:39:52.9	357.110	0.030	0.090	0.390
2020/01/31 16:39:53.0	357.080	0.040	0.010	0.400
2020/01/31 16:39:53.1	357.050	0.050	-0.070	0.410
2020/01/31 16:39:53.2	357.030	0.060	-0.150	0.410
2020/01/31 16:39:53.3	357.010	0.070	-0.230	0.410
2020/01/31 16:39:53.4	356.990	0.080	-0.320	0.400
2020/01/31 16:39:53.5	356.980	0.090	-0.400	0.390
2020/01/31 16:39:53.6	356.970	0.090	-0.480	0.370
2020/01/31 16:39:53.7	356.950	0.100	-0.570	0.350
2020/01/31 16:39:53.8	356.950	0.110	-0.650	0.320
2020/01/31 16:39:53.9	356.940	0.110	-0.730	0.290
2020/01/31 16:39:54.0	356.940	0.120	-0.810	0.260
2020/01/31 16:39:54.1	356.940	0.120	-0.880	0.230
2020/01/31 16:39:54.2	356.950	0.130	-0.950	0.200
2020/01/31 16:39:54.3	356.950	0.130	-1.010	0.160
2020/01/31 16:39:54.4	356.960	0.130	-1.070	0.130
2020/01/31 16:39:54.5	356.970	0.140	-1.130	0.090
2020/01/31 16:39:54.6	356.980	0.140	-1.180	0.050
2020/01/31 16:39:54.7	356.990	0.150	-1.220	0.010
2020/01/31 16:39:54.8	357.010	0.150	-1.260	-0.030
2020/01/31 16:39:54.9	357.020	0.160	-1.300	-0.070
2020/01/31 16:39:55.0	357.040	0.170	-1.320	-0.110
2020/01/31 16:39:55.1	357.060	0.170	-1.340	-0.150
2020/01/31 16:39:55.2	357.080	0.180	-1.360	-0.190
2020/01/31 16:39:55.3	357.100	0.190	-1.360	-0.230
2020/01/31 16:39:55.4	357.130	0.190	-1.360	-0.270
2020/01/31 16:39:55.5	357.160	0.200	-1.360	-0.310
2020/01/31 16:39:55.6	357.180	0.210	-1.350	-0.350
2020/01/31 16:39:55.7	357.210	0.220	-1.330	-0.390
2020/01/31 16:39:55.8	357.250	0.230	-1.310	-0.430
2020/01/31 16:39:55.9	357.280	0.240	-1.280	-0.470
2020/01/31 16:39:56.0	357.320	0.250	-1.240	-0.500
2020/01/31 16:39:56.1	357.360	0.260	-1.200	-0.530
2020/01/31 16:39:56.2	357.400	0.280	-1.150	-0.560
2020/01/31 16:39:56.3	357.440	0.290	-1.100	-0.590
2020/01/31 16:39:56.4	357.480	0.300	-1.050	-0.610
2020/01/31 16:39:56.5	357.520	0.310	-0.990	-0.640
2020/01/31 16:39:56.6	357.560	0.320	-0.920	-0.650
2020/01/31 16:39:56.7	357.600	0.330	-0.860	-0.670
2020/01/31 16:39:56.8	357.640	0.340	-0.780	-0.680
2020/01/31 16:39:56.9	357.680	0.350	-0.710	-0.690
2020/01/31 16:39:57.0	357.710	0.360	-0.630	-0.690
2020/01/31 16:39:57.1	357.740	0.360	-0.550	-0.690
2020/01/31 16:39:57.2	357.780	0.370	-0.470	-0.690
2020/01/31 16:39:57.3	357.800	0.370	-0.390	-0.680
2020/01/31 16:39:57.4	357.830	0.380	-0.310	-0.670
2020/01/31 16:39:57.5	357.860	0.380	-0.230	-0.650
2020/01/31 16:39:57.6	357.880	0.380	-0.150	-0.630
2020/01/31 16:39:57.7	357.900	0.370	-0.070	-0.610
2020/01/31 16:39:57.8	357.920	0.370	0.010	-0.580
2020/01/31 16:39:57.9	357.930	0.360	0.090	-0.550
2020/01/31 16:39:58.0	357.940	0.350	0.160	-0.520
2020/01/31 16:39:58.1	357.940	0.340	0.240	-0.480
2020/01/31 16:39:58.2	357.940	0.330	0.300	-0.440
2020/01/31 16:39:58.3	357.940	0.310	0.370	-0.400
2020/01/31 16:39:58.4	357.930	0.290	0.430	-0.350
2020/01/31 16:39:58.5	357.920	0.270	0.490	-0.310
2020/01/31 16:39:58.6	357.910	0.250	0.540	-0.260
2020/01/31 16:39:58.7	357.900	0.220	0.580	-0.210
2020/01/31 16:39:58.8	357.880	0.190	0.620	-0.170
2020/01/31 16:39:58.9	357.860	0.160	0.660	-0.120
2020/01/31 16:39:59.0	357.840	0.130	0.690	-0.080
2020/01/31 16:39:59.1	357.810	0.100	0.710	-0.040
2020/01/31 16:39:59.2	357.790	0.070	0.730	-0.010
2020/01/31 16:39:59.3	357.760	0.030	0.740	0.030
2020/01/31 16:39:59.4	357.730	-0.000	0.740	0.060
2020/01/31 16:39:59.5	357.700	-0.040	0.740	0.080
2020/01/31 16:39:59.6	357.670	-0.080	0.740	0.110
2020/01/31 16:39:59.7	357.640	-0.110	0.730	0.130
2020/01/31 16:39:59.8	357.610	-0.150	0.710	0.140
2020/01/31 16:39:59.9	357.580	-0.190	0.680	0.160
2020/01/31 16:40:00.0	357.540	-0.220	0.660	0.160
2020/01/31 16:40:00.1	357.510	-0.260	0.620	0.170
2020/01/31 16:40:00.2	357.470	-0.290	0.580	0.170
2020/01/31 16:40:00.3	357.430	-0.330	0.540	0.170
2020/01/31 16:40:00.4	357.390	-0.360	0.500	0.160
2020/01/31 16:40:00.5	357.350	-0.390	0.450	0.160
2020/01/31 16:40:00.6	357.310	-0.420	0.400	0.150
2020/01/31 16:40:00.7	357.270	-0.440	0.340	0.140
2020/01/31 16:40:00.8	357.230	-0.460	0.290	0.130
2020/01/31 16:40:00.9	357.190	-0.490	0.230	0.120
2020/01/31 16:40:01.0	357.150	-0.500	0.170	0.110
2020/01/31 16:40:01.1	357.100	-0.520	0.110	0.100
2020/01/31 16:40:01.2	357.060	-0.530	0.050	0.090
2020/01/31 16:40:01.3	357.020	-0.540	-0.020	0.080
2020/01/31 16:40:01.4	356.980	-0.550	-0.080	0.070
2020/01/31 16:40:01.5	356.940	-0.550	-0.140	0.060
2020/01/31 16:40:01.6	356.910	-0.550	-0.200	0.040
2020/01/31 16:40:01.7	356.870	-0.550	-0.260	0.020
2020/01/31 16:40:01.8	356.840	-0.550	-0.320	0.010
2020/01/31 16:40:01.9	356.810	-0.540	-0.380	-0.010
2020/01/31 16:40:02.0	356.780	-0.530	-0.430	-0.030
2020/01/31 16:40:02.1	356.750	-0.520	-0.490	-0.050
2020/01/31 16:40:02.2	356.730	-0.510	-0.540	-0.080
2020/01/31 16:40:02.3	356.710	-0.490	-0.590	-0.100
2020/01/31 16:40:02.4	356.690	-0.470	-0.640	-0.130
2020/01/31 16:40:02.5	356.680	-0.450	-0.680	-0.160
2020/01/31 16:40:02.6	356.670	-0.430	-0.720	-0.190
2020/01/31 16:40:02.7	356.660	-0.400	-0.770	-0.230
2020/01/31 16:40:02.8	356.660	-0.370	-0.800	-0.260
2020/01/31 16:40:02.9	356.660	-0.350	-0.840	-0.300
2020/01/31 16:40:03.0	356.670	-0.320	-0.870	-0.330
2020/01/31 16:40:03.1	356.680	-0.290	-0.900	-0.370
2020/01/31 16:40:03.2	356.690	-0.260	-0.930	-0.400
2020/01/31 16:40:03.3	356.710	-0.220	-0.950	-0.440
2020/01/31 16:40:03.4	356.730	-0.190	-0.970	-0.480
2020/01/31 16:40:03.5	356.760	-0.160	-0.980	-0.510
2020/01/31 16:40:03.6	356.790	-0.120	-1.000	-0.540
2020/01/31 16:40:03.7	356.820	-0.090	-1.000	-0.580
2020/01/31 16:40:03.8	356.850	-0.060	-1.010	-0.610
2020/01/31 16:40:03.9	356.890	-0.020	-1.010	-0.630
2020/01/31 16:40:04.0	356.930	0.010	-1.000	-0.660
2020/01/31 16:40:04.1	356.970	0.040	-1.000	-0.680
2020/01/31 16:40:04.2	357.010	0.070	-0.980	-0.690
2020/01/31 16:40:04.3	357.050	0.090	-0.960	-0.710
2020/01/31 16:40:04.4	357.090	0.120	-0.940	-0.720
2020/01/31 16:40:04.5	357.130	0.150	-0.920	-0.720
2020/01/31 16:40:04.6	357.170	0.170	-0.880	-0.730
2020/01/31 16:40:04.7	357.220	0.190	-0.850	-0.720
2020/01/31 16:40:04.8	357.250	0.210	-0.810	-0.720
2020/01/31 16:40:04.9	357.290	0.220	-0.770	-0.710
2020/01/31 16:40:05.0	357.320	0.230	-0.720	-0.690
2020/01/31 16:40:05.1	357.350	0.240	-0.670	-0.670
2020/01/31 16:40:05.2	357.380	0.250	-0.610	-0.650
2020/01/31 16:40:05.3	357.410	0.250	-0.560	-0.630
2020/01/31 16:40:05.4	357.430	0.250	-0.500	-0.600
2020/01/31 16:40:05.5	357.450	0.250	-0.440	-0.570
2020/01/31 16:40:05.6	357.460	0.250	-0.380	-0.540
2020/01/31 16:40:05.7	357.480	0.240	-0.320	-0.500
2020/01/31 16:40:05.8	357.490	0.230	-0.260	-0.470
2020/01/31 16:40:05.9	357.500	0.220	-0.210	-0.440
2020/01/31 16:40:06.0	357.510	0.210	-0.160	-0.410
2020/01/31 16:40:06.1	357.510	0.200	-0.100	-0.370
2020/01/31 16:40:06.2	357.510	0.180	-0.060	-0.340
2020/01/31 16:40:06.3	357.510	0.160	-0.010	-0.310
2020/01/31 16:40:06.4	357.510	0.150	0.030	-0.280
2020/01/31 16:40:06.5	357.510	0.130	0.060	-0.250
2020/01/31 16:40:06.6	357.510	0.110	0.100	-0.220
2020/01/31 16:40:06.7	357.510	0.090	0.120	-0.200
2020/01/31 16:40:06.8	357.500	0.070	0.140	-0.170
2020/01/31 16:40:06.9	357.500	0.060	0.160	-0.150
2020/01/31 16:40:07.0	357.490	0.040	0.180	-0.130
2020/01/31 16:40:07.1	357.480	0.030	0.190	-0.100
2020/01/31 16:40:07.2	357.480	0.010	0.190	-0.080
2020/01/31 16:40:07.3	357.470	0.000	0.190	-0.070
2020/01/31 16:40:07.4	357.460	-0.010	0.190	-0.050
2020/01/31 16:40:07.5	357.450	-0.010	0.180	-0.030
2020/01/31 16:40:07.6	357.440	-0.020	0.170	-0.020
2020/01/31 16:40:07.7	357.430	-0.020	0.170	-0.000
2020/01/31 16:40:07.8	357.430	-0.020	0.150	0.010
2020/01/31 16:40:07.9	357.420	-0.010	0.140	0.020
2020/01/31 16:40:08.0	357.410	-0.010	0.120	0.040
2020/01/31 16:40:08.1	357.400	0.000	0.110	0.050
2020/01/31 16:40:08.2	357.390	0.010	0.090	0.060
2020/01/31 16:40:08.3	357.380	0.030	0.070	0.070
2020/01/31 16:40:08.4	357.370	0.040	0.050	0.090
2020/01/31 16:40:08.5	357.360	0.060	0.030	0.090
2020/01/31 16:40:08.6	357.350	0.080	0.020	0.100
2020/01/31 16:40:08.7	357.330	0.100	-0.000	0.110
2020/01/31 16:40:08.8	357.320	0.120	-0.020	0.120
2020/01/31 16:40:08.9	357.310	0.150	-0.030	0.120
2020/01/31 16:40:09.0	357.300	0.170	-0.040	0.120
2020/01/31 16:40:09.1	357.290	0.190	-0.060	0.120
2020/01/31 16:40:09.2	357.280	0.210	-0.070	0.120
2020/01/31 16:40:09.3	357.270	0.240	-0.080	0.120
2020/01/31 16:40:09.4	357.260	0.260	-0.090	0.110
2020/01/31 16:40:09.5	357.250	0.280	-0.100	0.100
2020/01/31 16:40:09.6	357.240	0.300	-0.110	0.090
2020/01/31 16:40:09.7	357.230	0.320	-0.120	0.080
2020/01/31 16:40:09.8	357.220	0.330	-0.130	0.070
2020/01/31 16:40:09.9	357.210	0.350	-0.140	0.060
2020/01/31 16:40:10.0	357.200	0.360	-0.150	0.040
2020/01/31 16:40:10.1	357.200	0.370	-0.160	0.020
2020/01/31 16:40:10.2	357.190	0.380	-0.180	0.010
2020/01/31 16:40:10.3	357.180	0.380	-0.190	-0.010
2020/01/31 16:40:10.4	357.180	0.380	-0.200	-0.030
2020/01/31 16:40:10.5	357.170	0.380	-0.210	-0.050
2020/01/31 16:40:10.6	357.160	0.370	-0.230	-0.070
2020/01/31 16:40:10.7	357.170	0.360	-0.240	-0.100
2020/01/31 16:40:10.8	357.160	0.350	-0.250	-0.120
2020/01/31 16:40:10.9	357.150	0.340	-0.260	-0.140
2020/01/31 16:40:11.0	357.150	0.320	-0.270	-0.170
2020/01/31 16:40:11.1	357.140	0.300	-0.280	-0.190
2020/01/31 16:40:11.2	357.140	0.280	-0.290	-0.220
2020/01/31 16:40:11.3	357.130	0.250	-0.300	-0.250
2020/01/31 16:40:11.4	357.120	0.220	-0.310	-0.280
2020/01/31 16:40:11.5	357.120	0.190	-0.310	-0.300
2020/01/31 16:40:11.6	357.110	0.160	-0.320	-0.330
2020/01/31 16:40:11.7	357.100	0.120	-0.320	-0.360
2020/01/31 16:40:11.8	357.100	0.090	-0.320	-0.390
2020/01/31 16:40:11.9	357.090	0.050	-0.320	-0.410
2020/01/31 16:40:12.0	357.080	0.010	-0.320	-0.440
2020/01/31 16:40:12.1	357.070	-0.020	-0.320	-0.460
2020/01/31 16:40:12.2	357.060	-0.060	-0.320	-0.480
2020/01/31 16:40:12.3	357.050	-0.100	-0.320	-0.500
2020/01/31 16:40:12.4	357.040	-0.140	-0.320	-0.520
2020/01/31 16:40:12.5	357.030	-0.170	-0.320	-0.550
2020/01/31 16:40:12.6	357.020	-0.210	-0.320	-0.570
2020/01/31 16:40:12.7	357.010	-0.240	-0.320	-0.590
2020/01/31 16:40:12.8	357.000	-0.270	-0.320	-0.600
2020/01/31 16:40:12.9	356.990	-0.300	-0.310	-0.620
2020/01/31 16:40:13.0	356.980	-0.330	-0.310	-0.640
2020/01/31 16:40:13.1	356.970	-0.360	-0.300	-0.660
2020/01/31 16:40:13.2	356.970	-0.380	-0.300	-0.670
2020/01/31 16:40:13.3	356.960	-0.400	-0.290	-0.690
2020/01/31 16:40:13.4	356.960	-0.420	-0.290	-0.700
2020/01/31 16:40:13.5	356.950	-0.440	-0.280	-0.710
2020/01/31 16:40:13.6	356.950	-0.450	-0.270	-0.720
2020/01/31 16:40:13.7	356.950	-0.460	-0.270	-0.740
2020/01/31 16:40:13.8	356.950	-0.460	-0.260	-0.750
2020/01/31 16:40:13.9	356.950	-0.470	-0.250	-0.750
2020/01/31 16:40:14.0	356.960	-0.470	-0.250	-0.750
2020/01/31 16:40:14.1	356.960	-0.470	-0.240	-0.760
2020/01/31 16:40:14.2	356.960	-0.460	-0.230	-0.760
2020/01/31 16:40:14.3	356.970	-0.460	-0.220	-0.750
2020/01/31 16:40:14.4	356.970	-0.450	-0.220	-0.750
2020/01/31 16:40:14.5	356.980	-0.440	-0.210	-0.740
2020/01/31 16:40:14.6	356.980	-0.430	-0.200	-0.730
2020/01/31 16:40:14.7	356.980	-0.410	-0.200	-0.710
2020/01/31 16:40:14.8	356.990	-0.400	-0.190	-0.700
2020/01/31 16:40:14.9	356.990	-0.380	-0.190	-0.680
2020/01/31 16:40:15.0	357.000	-0.370	-0.190	-0.660
2020/01/31 16:40:15.1	357.000	-0.350	-0.180	-0.640
2020/01/31 16:40:15.2	357.010	-0.330	-0.180	-0.620
2020/01/31 16:40:15.3	357.010	-0.310	-0.190	-0.600
2020/01/31 16:40:15.4	357.020	-0.290	-0.190	-0.580
2020/01/31 16:40:15.5	357.030	-0.270	-0.200	-0.550
2020/01/31 16:40:15.6	357.040	-0.250	-0.200	-0.530
2020/01/31 16:40:15.7	357.050	-0.230	-0.220	-0.510
2020/01/31 16:40:15.8	357.060	-0.210	-0.230	-0.490
2020/01/31 16:40:15.9	357.080	-0.190	-0.240	-0.460
2020/01/31 16:40:16.0	357.090	-0.170	-0.260	-0.440
2020/01/31 16:40:16.1	357.110	-0.150	-0.280	-0.420
2020/01/31 16:40:16.2	357.130	-0.130	-0.300	-0.400
2020/01/31 16:40:16.3	357.150	-0.110	-0.320	-0.390
2020/01/31 16:40:16.4	357.170	-0.090	-0.350	-0.370
2020/01/31 16:40:16.5	357.190	-0.080	-0.380	-0.350
2020/01/31 16:40:16.6	357.220	-0.060	-0.410	-0.340
2020/01/31 16:40:16.7	357.240	-0.040	-0.430	-0.330
2020/01/31 16:40:16.8	357.270	-0.020	-0.460	-0.310
2020/01/31 16:40:16.9	357.290	0.010	-0.500	-0.300
2020/01/31 16:40:17.0	357.320	0.030	-0.530	-0.280
2020/01/31 16:40:17.1	357.350	0.050	-0.560	-0.270
2020/01/31 16:40:17.2	357.380	0.070	-0.590	-0.250
2020/01/31 16:40:17.3	357.410	0.090	-0.620	-0.240
2020/01/31 16:40:17.4	357.440	0.110	-0.650	-0.230
2020/01/31 16:40:17.5	357.460	0.130	-0.680	-0.210
2020/01/31 16:40:17.6	357.490	0.150	-0.700	-0.190
2020/01/31 16:40:17.7	357.520	0.170	-0.720	-0.180
2020/01/31 16:40:17.8	357.550	0.190	-0.740	-0.160
2020/01/31 16:40:17.9	357.570	0.210	-0.760	-0.140
2020/01/31 16:40:18.0	357.590	0.230	-0.770	-0.120
2020/01/31 16:40:18.1	357.620	0.250	-0.780	-0.100
2020/01/31 16:40:18.2	357.640	0.270	-0.780	-0.080
2020/01/31 16:40:18.3	357.660	0.290	-0.780	-0.060
2020/01/31 16:40:18.4	357.670	0.310	-0.780	-0.040
2020/01/31 16:40:18.5	357.690	0.320	-0.770	-0.020
2020/01/31 16:40:18.6	357.700	0.340	-0.750	0.010
2020/01/31 16:40:18.7	357.700	0.350	-0.730	0.040
2020/01/31 16:40:18.8	357.710	0.370	-0.710	0.060
2020/01/31 16:40:18.9	357.710	0.380	-0.680	0.090
2020/01/31 16:40:19.0	357.710	0.390	-0.640	0.110
2020/01/31 16:40:19.1	357.710	0.390	-0.610	0.140
2020/01/31 16:40:19.2	357.700	0.400	-0.570	0.160
2020/01/31 16:40:19.3	357.700	0.400	-0.520	0.190
2020/01/31 16:40:19.4	357.680	0.400	-0.480	0.210
2020/01/31 16:40:19.5	357.670	0.400	-0.430	0.230
2020/01/31 16:40:19.6	357.650	0.390	-0.380	0.250
2020/01/31 16:40:19.7	357.630	0.380	-0.320	0.270
2020/01/31 16:40:19.8	357.610	0.370	-0.270	0.290
2020/01/31 16:40:19.9	357.580	0.360	-0.210	0.300
2020/01/31 16:40:20.0	357.560	0.340	-0.160	0.310
2020/01/31 16:40:20.1	357.540	0.320	-0.100	0.320
2020/01/31 16:40:20.2	357.510	0.300	-0.050	0.320
2020/01/31 16:40:20.3	357.490	0.280	0.010	0.320
2020/01/31 16:40:20.4	357.460	0.250	0.060	0.320
2020/01/31 16:40:20.5	357.430	0.230	0.120	0.320
2020/01/31 16:40:20.6	357.410	0.200	0.170	0.310
2020/01/31 16:40:20.7	357.390	0.160	0.210	0.290
2020/01/31 16:40:20.8	357.360	0.130	0.260	0.270
2020/01/31 16:40:20.9	357.340	0.100	0.300	0.250
2020/01/31 16:40:21.0	357.320	0.060	0.340	0.230
2020/01/31 16:40:21.1	357.290	0.020	0.380	0.200
2020/01/31 16:40:21.2	357.270	-0.020	0.410	0.170
2020/01/31 16:40:21.3	357.250	-0.050	0.440	0.130
2020/01/31 16:40:21.4	357.230	-0.090	0.460	0.090
2020/01/31 16:40:21.5	357.210	-0.130	0.480	0.060
2020/01/31 16:40:21.6	357.200	-0.160	0.490	0.010
2020/01/31 16:40:21.7	357.190	-0.200	0.500	-0.030
2020/01/31 16:40:21.8	357.170	-0.230	0.510	-0.070
2020/01/31 16:40:21.9	357.160	-0.270	0.510	-0.120
2020/01/31 16:40:22.0	357.140	-0.300	0.510	-0.160
2020/01/31 16:40:22.1	357.130	-0.330	0.500	-0.200
2020/01/31 16:40:22.2	357.120	-0.350	0.490	-0.250
2020/01/31 16:40:22.3	357.100	-0.370	0.470	-0.290
2020/01/31 16:40:22.4	357.090	-0.390	0.450	-0.330
2020/01/31 16:40:22.5	357.080	-0.410	0.430	-0.370
2020/01/31 16:40:22.6	357.080	-0.430	0.400	-0.420
2020/01/31 16:40:22.7	357.070	-0.440	0.370	-0.460
2020/01/31 16:40:22.8	357.070	-0.440	0.340	-0.490
2020/01/31 16:40:22.9	357.060	-0.450	0.310	-0.530
2020/01/31 16:40:23.0	357.060	-0.450	0.270	-0.560
2020/01/31 16:40:23.1	357.050	-0.440	0.230	-0.600
2020/01/31 16:40:23.2	357.050	-0.440	0.190	-0.630
2020/01/31 16:40:23.3	357.050	-0.430	0.150	-0.650
2020/01/31 16:40:23.4	357.040	-0.410	0.110	-0.670
2020/01/31 16:40:23.5	357.040	-0.390	0.070	-0.690
2020/01/31 16:40:23.6	357.040	-0.370	0.030	-0.710
2020/01/31 16:40:23.7	357.030	-0.350	-0.010	-0.720
2020/01/31 16:40:23.8	357.030	-0.320	-0.050	-0.720
2020/01/31 16:40:23.9	357.020	-0.290	-0.090	-0.720
2020/01/31 16:40:24.0	357.010	-0.260	-0.130	-0.710
2020/01/31 16:40:24.1	357.010	-0.230	-0.170	-0.700
2020/01/31 16:40:24.2	357.000	-0.190	-0.200	-0.680
2020/01/31 16:40:24.3	356.980	-0.150	-0.230	-0.660
2020/01/31 16:40:24.4	356.970	-0.110	-0.260	-0.640
2020/01/31 16:40:24.5	356.960	-0.070	-0.290	-0.610
2020/01/31 16:40:24.6	356.940	-0.030	-0.320	-0.570
2020/01/31 16:40:24.7	356.930	0.010	-0.350	-0.540
2020/01/31 16:40:24.8	356.910	0.050	-0.370	-0.500
2020/01/31 16:40:24.9	356.890	0.100	-0.400	-0.460
2020/01/31 16:40:25.0	356.880	0.140	-0.420	-0.420
2020/01/31 16:40:25.1	356.860	0.180	-0.440	-0.380
2020/01/31 16:40:25.2	356.850	0.220	-0.470	-0.340
2020/01/31 16:40:25.3	356.830	0.260	-0.490	-0.300
2020/01/31 16:40:25.4	356.810	0.300	-0.510	-0.260
2020/01/31 16:40:25.5	356.800	0.330	-0.530	-0.230
2020/01/31 16:40:25.6	356.790	0.370	-0.560	-0.190
2020/01/31 16:40:25.7	356.780	0.400	-0.580	-0.160
2020/01/31 16:40:25.8	356.770	0.430	-0.600	-0.130
2020/01/31 16:40:25.9	356.760	0.450	-0.630	-0.100
2020/01/31 16:40:26.0	356.750	0.470	-0.660	-0.080
2020/01/31 16:40:26.1	356.750	0.490	-0.680	-0.060
2020/01/31 16:40:26.2	356.750	0.510	-0.710	-0.050
2020/01/31 16:40:26.3	356.750	0.520	-0.740	-0.030
2020/01/31 16:40:26.4	356.750	0.530	-0.760	-0.030
2020/01/31 16:40:26.5	356.760	0.530	-0.790	-0.020
2020/01/31 16:40:26.6	356.770	0.530	-0.820	-0.020
2020/01/31 16:40:26.7	356.780	0.530	-0.850	-0.020
2020/01/31 16:40:26.8	356.800	0.520	-0.870	-0.030
2020/01/31 16:40:26.9	356.820	0.510	-0.890	-0.050
2020/01/31 16:40:27.0	356.840	0.490	-0.920	-0.060
2020/01/31 16:40:27.1	356.860	0.470	-0.940	-0.090
2020/01/31 16:40:27.2	356.880	0.450	-0.950	-0.110
2020/01/31 16:40:27.3	356.910	0.420	-0.970	-0.140
2020/01/31 16:40:27.4	356.940	0.390	-0.980	-0.170
2020/01/31 16:40:27.5	356.970	0.350	-0.990	-0.200
2020/01/31 16:40:27.6	357.010	0.310	-0.990	-0.240
2020/01/31 16:40:27.7	357.040	0.270	-0.990	-0.280
2020/01/31 16:40:27.8	357.080	0.230	-0.990	-0.320
2020/01/31 16:40:27.9	357.120	0.180	-0.980	-0.360
2020/01/31 16:40:28.0	357.150	0.130	-0.970	-0.400
2020/01/31 16:40:28.1	357.190	0.080	-0.950	-0.440
2020/01/31 16:40:28.2	357.230	0.030	-0.930	-0.480
2020/01/31 16:40:28.3	357.270	-0.030	-0.900	-0.520
2020/01/31 16:40:28.4	357.310	-0.080	-0.860	-0.560
2020/01/31 16:40:28.5	357.350	-0.130	-0.830	-0.590
2020/01/31 16:40:28.6	357.380	-0.190	-0.780	-0.620
2020/01/31 16:40:28.7	357.410	-0.240	-0.730	-0.650
2020/01/31 16:40:28.8	357.440	-0.290	-0.670	-0.670
2020/01/31 16:40:28.9	357.470	-0.350	-0.620	-0.690
2020/01/31 16:40:29.0	357.500	-0.400	-0.550	-0.700
2020/01/31 16:40:29.1	357.520	-0.440	-0.490	-0.710
2020/01/31 16:40:29.2	357.540	-0.490	-0.420	-0.720
2020/01/31 16:40:29.3	357.560	-0.530	-0.350	-0.720
2020/01/31 16:40:29.4	357.580	-0.570	-0.270	-0.720
2020/01/31 16:40:29.5	357.590	-0.610	-0.200	-0.720
2020/01/31 16:40:29.6	357.610	-0.640	-0.130	-0.710
2020/01/31 16:40:29.7	357.620	-0.680	-0.050	-0.700
2020/01/31 16:40:29.8	357.630	-0.700	0.020	-0.680
2020/01/31 16:40:29.9	357.630	-0.730	0.090	-0.660
2020/01/31 16:40:30.0	357.640	-0.750	0.160	-0.640
2020/01/31 16:40:30.1	357.640	-0.760	0.230	-0.610
2020/01/31 16:40:30.2	357.630	-0.770	0.290	-0.580
2020/01/31 16:40:30.3	357.630	-0.780	0.350	-0.550
2020/01/31 16:40:30.4	357.620	-0.780	0.410	-0.520
2020/01/31 16:40:30.5	357.610	-0.780	0.460	-0.490
2020/01/31 16:40:30.6	357.600	-0.770	0.500	-0.450
2020/01/31 16:40:30.7	357.590	-0.760	0.540	-0.410
2020/01/31 16:40:30.8	357.570	-0.750	0.580	-0.370
2020/01/31 16:40:30.9	357.550	-0.720	0.610	-0.320
2020/01/31 16:40:31.0	357.530	-0.700	0.640	-0.280
2020/01/31 16:40:31.1	357.500	-0.670	0.660	-0.230
2020/01/31 16:40:31.2	357.470	-0.630	0.680	-0.180
2020/01/31 16:40:31.3	357.450	-0.600	0.690	-0.130
2020/01/31 16:40:31.4	357.410	-0.550	0.700	-0.080
2020/01/31 16:40:31.5	357.380	-0.510	0.700	-0.030
2020/01/31 16:40:31.6	357.350	-0.460	0.690	0.020
2020/01/31 16:40:31.7	357.310	-0.410	0.680	0.070
2020/01/31 16:40:31.8	357.280	-0.360	0.670	0.130
2020/01/31 16:40:31.9	357.240	-0.300	0.650	0.180
2020/01/31 16:40:32.0	357.200	-0.240	0.630	0.230
2020/01/31 16:40:32.1	357.170	-0.180	0.600	0.280
2020/01/31 16:40:32.2	357.130	-0.120	0.560	0.320
2020/01/31 16:40:32.3	357.100	-0.060	0.520	0.370
2020/01/31 16:40:32.4	357.060	-0.000	0.480	0.410
2020/01/31 16:40:32.5	357.030	0.060	0.430	0.450
2020/01/31 16:40:32.6	357.000	0.120	0.380	0.480
2020/01/31 16:40:32.7	356.960	0.180	0.320	0.510
2020/01/31 16:40:32.8	356.930	0.240	0.260	0.540
2020/01/31 16:40:32.9	356.910	0.290	0.190	0.560
2020/01/31 16:40:33.0	356.880	0.340	0.130	0.580
2020/01/31 16:40:33.1	356.860	0.400	0.060	0.590
2020/01/31 16:40:33.2	356.840	0.450	-0.020	0.600
2020/01/31 16:40:33.3	356.830	0.490	-0.090	0.610
2020/01/31 16:40:33.4	356.820	0.540	-0.170	0.610
2020/01/31 16:40:33.5	356.810	0.580	-0.240	0.610
2020/01/31 16:40:33.6	356.800	0.610	-0.320	0.600
2020/01/31 16:40:33.7	356.790	0.650	-0.390	0.590
2020/01/31 16:40:33.8	356.780	0.680	-0.470	0.580
2020/01/31 16:40:33.9	356.780	0.710	-0.550	0.570
2020/01/31 16:40:34.0	356.780	0.730	-0.620	0.550
2020/01/31 16:40:34.1	356.780	0.750	-0.690	0.530
2020/01/31 16:40:34.2	356.780	0.760	-0.760	0.510
2020/01/31 16:40:34.3	356.790	0.780	-0.830	0.480
2020/01/31 16:40:34.4	356.800	0.780	-0.890	0.450
2020/01/31 16:40:34.5	356.810	0.790	-0.950	0.420
2020/01/31 16:40:34.6	356.820	0.790	-1.000	0.380
2020/01/31 16:40:34.7	356.820	0.790	-1.060	0.340
2020/01/31 16:40:34.8	356.830	0.780	-1.100	0.300
2020/01/31 16:40:34.9	356.840	0.770	-1.140	0.260
2020/01/31 16:40:35.0	356.850	0.760	-1.170	0.220
2020/01/31 16:40:35.1	356.860	0.740	-1.190	0.180
2020/01/31 16:40:35.2	356.880	0.720	-1.210	0.140
2020/01/31 16:40:35.3	356.890	0.700	-1.220	0.100
2020/01/31 16:40:35.4	356.900	0.670	-1.220	0.050
2020/01/31 16:40:35.5	356.910	0.640	-1.220	0.010
2020/01/31 16:40:35.6	356.920	0.610	-1.210	-0.030
2020/01/31 16:40:35.7	356.920	0.580	-1.190	-0.080
2020/01/31 16:40:35.8	356.940	0.540	-1.160	-0.120
2020/01/31 16:40:35.9	356.950	0.500	-1.130	-0.170
2020/01/31 16:40:36.0	356.960	0.460	-1.090	-0.210
2020/01/31 16:40:36.1	356.970	0.420	-1.050	-0.250
2020/01/31 16:40:36.2	356.980	0.370	-1.000	-0.300
2020/01/31 16:40:36.3	356.990	0.330	-0.940	-0.340
2020/01/31 16:40:36.4	357.000	0.280	-0.880	-0.380
2020/01/31 16:40:36.5	357.000	0.230	-0.820	-0.420
2020/01/31 16:40:36.6	357.010	0.180	-0.760	-0.460
2020/01/31 16:40:36.7	357.020	0.120	-0.690	-0.500
2020/01/31 16:40:36.8	357.020	0.070	-0.610	-0.540
2020/01/31 16:40:36.9	357.030	0.010	-0.540	-0.580
2020/01/31 16:40:37.0	357.030	-0.040	-0.470	-0.620
2020/01/31 16:40:37.1	357.040	-0.100	-0.390	-0.650
2020/01/31 16:40:37.2	357.040	-0.150	-0.320	-0.690
2020/01/31 16:40:37.3	357.040	-0.200	-0.250	-0.730
2020/01/31 16:40:37.4	357.040	-0.260	-0.180	-0.760
2020/01/31 16:40:37.5	357.050	-0.310	-0.110	-0.790
2020/01/31 16:40:37.6	357.050	-0.360	-0.040	-0.830
2020/01/31 16:40:37.7	357.050	-0.410	0.020	-0.860
2020/01/31 16:40:37.8	357.050	-0.450	0.080	-0.890
2020/01/31 16:40:37.9	357.050	-0.490	0.130	-0.920
2020/01/31 16:40:38.0	357.060	-0.530	0.190	-0.950
2020/01/31 16:40:38.1	357.060	-0.570	0.230	-0.970
2020/01/31 16:40:38.2	357.070	-0.600	0.280	-0.990
2020/01/31 16:40:38.3	357.080	-0.630	0.320	-1.010
2020/01/31 16:40:38.4	357.090	-0.650	0.350	-1.030
2020/01/31 16:40:38.5	357.100	-0.670	0.380	-1.040
2020/01/31 16:40:38.6	357.110	-0.690	0.410	-1.050
2020/01/31 16:40:38.7	357.120	-0.700	0.430	-1.050
2020/01/31 16:40:38.8	357.130	-0.700	0.440	-1.050
2020/01/31 16:40:38.9	357.150	-0.700	0.450	-1.050
2020/01/31 16:40:39.0	357.160	-0.700	0.460	-1.050
2020/01/31 16:40:39.1	357.180	-0.690	0.460	-1.040
2020/01/31 16:40:39.2	357.190	-0.680	0.460	-1.020
2020/01/31 16:40:39.3	357.200	-0.660	0.450	-1.000
2020/01/31 16:40:39.4	357.220	-0.640	0.440	-0.980
2020/01/31 16:40:39.5	357.230	-0.620	0.420	-0.960
2020/01/31 16:40:39.6	357.240	-0.600	0.400	-0.930
2020/01/31 16:40:39.7	357.250	-0.570	0.380	-0.890
2020/01/31 16:40:39.8	357.250	-0.540	0.360	-0.860
2020/01/31 16:40:39.9	357.260	-0.510	0.330	-0.820
2020/01/31 16:40:40.0	357.260	-0.480	0.290	-0.780
2020/01/31 16:40:40.1	357.260	-0.450	0.260	-0.740
2020/01/31 16:40:40.2	357.260	-0.420	0.220	-0.700
2020/01/31 16:40:40.3	357.250	-0.380	0.180	-0.660
2020/01/31 16:40:40.4	357.250	-0.350	0.140	-0.610
2020/01/31 16:40:40.5	357.240	-0.310	0.100	-0.560
2020/01/31 16:40:40.6	357.230	-0.280	0.060	-0.510
2020/01/31 16:40:40.7	357.210	-0.240	0.010	-0.460
2020/01/31 16:40:40.8	357.200	-0.210	-0.030	-0.410
2020/01/31 16:40:40.9	357.180	-0.170	-0.070	-0.360
2020/01/31 16:40:41.0	357.160	-0.140	-0.120	-0.310
2020/01/31 16:40:41.1	357.150	-0.100	-0.160	-0.270
2020/01/31 16:40:41.2	357.130	-0.070	-0.210	-0.220
2020/01/31 16:40:41.3	357.110	-0.040	-0.250	-0.170
2020/01/31 16:40:41.4	357.090	-0.010	-0.290	-0.130
2020/01/31 16:40:41.5	357.070	0.020	-0.330	-0.080
2020/01/31 16:40:41.6	357.060	0.050	-0.370	-0.040
2020/01/31 16:40:41.7	357.050	0.080	-0.400	0.000
2020/01/31 16:40:41.8	357.030	0.110	-0.430	0.040
2020/01/31 16:40:41.9	357.020	0.130	-0.470	0.080
2020/01/31 16:40:42.0	357.010	0.160	-0.500	0.110
2020/01/31 16:40:42.1	357.010	0.180	-0.520	0.140
2020/01/31 16:40:42.2	357.000	0.210	-0.550	0.160
2020/01/31 16:40:42.3	357.000	0.230	-0.570	0.190
2020/01/31 16:40:42.4	357.000	0.260	-0.590	0.210
2020/01/31 16:40:42.5	357.010	0.280	-0.610	0.220
2020/01/31 16:40:42.6	357.020	0.300	-0.630	0.240
2020/01/31 16:40:42.7	357.030	0.320	-0.640	0.240
2020/01/31 16:40:42.8	357.040	0.340	-0.650	0.250
2020/01/31 16:40:42.9	357.050	0.350	-0.660	0.260
2020/01/31 16:40:43.0	357.060	0.370	-0.660	0.260
2020/01/31 16:40:43.1	357.070	0.380	-0.660	0.260
2020/01/31 16:40:43.2	357.080	0.400	-0.660	0.260
2020/01/31 16:40:43.3	357.090	0.410	-0.650	0.260
2020/01/31 16:40:43.4	357.090	0.410	-0.640	0.260
2020/01/31 16:40:43.5	357.100	0.420	-0.630	0.260
2020/01/31 16:40:43.6	357.100	0.420	-0.610	0.260
2020/01/31 16:40:43.7	357.090	0.420	-0.590	0.260
2020/01/31 16:40:43.8	357.080	0.420	-0.560	0.260
2020/01/31 16:40:43.9	357.070	0.410	-0.530	0.250
2020/01/31 16:40:44.0	357.060	0.400	-0.490	0.250
2020/01/31 16:40:44.1	357.050	0.390	-0.460	0.250
2020/01/31 16:40:44.2	357.040	0.380	-0.420	0.240
2020/01/31 16:40:44.3	357.020	0.360	-0.380	0.240
2020/01/31 16:40:44.4	357.010	0.350	-0.330	0.240
2020/01/31 16:40:44.5	356.990	0.330	-0.290	0.230
2020/01/31 16:40:44.6	356.980	0.310	-0.250	0.220
2020/01/31 16:40:44.7	356.960	0.290	-0.200	0.210
2020/01/31 16:40:44.8	356.940	0.260	-0.160	0.200
2020/01/31 16:40:44.9	356.930	0.240	-0.120	0.190
2020/01/31 16:40:45.0	356.910	0.210	-0.080	0.180
2020/01/31 16:40:45.1	356.900	0.190	-0.050	0.170
2020/01/31 16:40:45.2	356.890	0.170	-0.020	0.150
2020/01/31 16:40:45.3	356.880	0.140	0.010	0.130
2020/01/31 16:40:45.4	356.870	0.120	0.030	0.110
2020/01/31 16:40:45.5	356.870	0.100	0.050	0.090
2020/01/31 16:40:45.6	356.860	0.080	0.060	0.060
2020/01/31 16:40:45.7	356.870	0.060	0.070	0.030
2020/01/31 16:40:45.8	356.870	0.050	0.070	-0.000
2020/01/31 16:40:45.9	356.870	0.030	0.070	-0.040
2020/01/31 16:40:46.0	356.880	0.020	0.060	-0.070
2020/01/31 16:40:46.1	356.890	0.010	0.050	-0.110
2020/01/31 16:40:46.2	356.900	0.010	0.030	-0.140
2020/01/31 16:40:46.3	356.910	0.000	0.010	-0.180
2020/01/31 16:40:46.4	356.920	0.000	-0.020	-0.220
2020/01/31 16:40:46.5	356.930	0.000	-0.050	-0.260
2020/01/31 16:40:46.6	356.940	0.010	-0.080	-0.290
2020/01/31 16:40:46.7	356.950	0.010	-0.120	-0.330
2020/01/31 16:40:46.8	356.960	0.020	-0.150	-0.360
2020/01/31 16:40:46.9	356.970	0.020	-0.180	-0.390
2020/01/31 16:40:47.0	356.970	0.030	-0.220	-0.420
2020/01/31 16:40:47.1	356.980	0.040	-0.250	-0.450
2020/01/31 16:40:47.2	356.980	0.050	-0.280	-0.470
2020/01/31 16:40:47.3	356.980	0.060	-0.310	-0.490
2020/01/31 16:40:47.4	356.980	0.070	-0.330	-0.520
2020/01/31 16:40:47.5	356.980	0.080	-0.360	-0.540
2020/01/31 16:40:47.6	356.970	0.090	-0.380	-0.550
2020/01/31 16:40:47.7	356.960	0.090	-0.400	-0.570
2020/01/31 16:40:47.8	356.950	0.100	-0.410	-0.590
2020/01/31 16:40:47.9	356.940	0.100	-0.430	-0.600
2020/01/31 16:40:48.0	356.930	0.100	-0.440	-0.620
2020/01/31 16:40:48.1	356.920	0.100	-0.450	-0.630
2020/01/31 16:40:48.2	356.900	0.090	-0.460	-0.640
2020/01/31 16:40:48.3	356.890	0.090	-0.460	-0.650
2020/01/31 16:40:48.4	356.870	0.080	-0.460	-0.660
2020/01/31 16:40:48.5	356.860	0.070	-0.470	-0.680
2020/01/31 16:40:48.6	356.850	0.050	-0.470	-0.690
2020/01/31 16:40:48.7	356.830	0.040	-0.470	-0.690
2020/01/31 16:40:48.8	356.820	0.020	-0.470	-0.700
2020/01/31 16:40:48.9	356.810	0.010	-0.460	-0.710
2020/01/31 16:40:49.0	356.800	-0.010	-0.460	-0.720
2020/01/31 16:40:49.1	356.800	-0.030	-0.460	-0.730
2020/01/31 16:40:49.2	356.790	-0.060	-0.460	-0.740
2020/01/31 16:40:49.3	356.790	-0.080	-0.450	-0.740
2020/01/31 16:40:49.4	356.790	-0.100	-0.450	-0.750
2020/01/31 16:40:49.5	356.790	-0.120	-0.450	-0.760
2020/01/31 16:40:49.6	356.790	-0.140	-0.450	-0.770
2020/01/31 16:40:49.7	356.810	-0.160	-0.450	-0.780
2020/01/31 16:40:49.8	356.820	-0.180	-0.450	-0.790
2020/01/31 16:40:49.9	356.830	-0.190	-0.450	-0.790
2020/01/31 16:40:50.0	356.850	-0.210	-0.450	-0.800
2020/01/31 16:40:50.1	356.870	-0.220	-0.450	-0.810
2020/01/31 16:40:50.2	356.890	-0.230	-0.460	-0.820
2020/01/31 16:40:50.3	356.920	-0.240	-0.460	-0.830
2020/01/31 16:40:50.4	356.940	-0.240	-0.470	-0.840
2020/01/31 16:40:50.5	356.970	-0.250	-0.470	-0.850
2020/01/31 16:40:50.6	357.000	-0.250	-0.470	-0.860
2020/01/31 16:40:50.7	357.030	-0.240	-0.470	-0.870
2020/01/31 16:40:50.8	357.070	-0.240	-0.480	-0.880
2020/01/31 16:40:50.9	357.100	-0.230	-0.480	-0.880
2020/01/31 16:40:51.0	357.130	-0.220	-0.480	-0.880
2020/01/31 16:40:51.1	357.160	-0.210	-0.470	-0.870
2020/01/31 16:40:51.2	357.200	-0.200	-0.470	-0.860
2020/01/31 16:40:51.3	357.230	-0.180	-0.460	-0.850
2020/01/31 16:40:51.4	357.260	-0.170	-0.450	-0.840
2020/01/31 16:40:51.5	357.280	-0.150	-0.440	-0.810
2020/01/31 16:40:51.6	357.310	-0.130	-0.420	-0.790
2020/01/31 16:40:51.7	357.340	-0.110	-0.400	-0.760
2020/01/31 16:40:51.8	357.360	-0.090	-0.380	-0.720
2020/01/31 16:40:51.9	357.380	-0.080	-0.350	-0.690
2020/01/31 16:40:52.0	357.400	-0.060	-0.320	-0.650
2020/01/31 16:40:52.1	357.410	-0.040	-0.280	-0.600
2020/01/31 16:40:52.2	357.430	-0.020	-0.250	-0.560
2020/01/31 16:40:52.3	357.440	-0.010	-0.210	-0.510
2020/01/31 16:40:52.4	357.450	0.000	-0.170	-0.460
2020/01/31 16:40:52.5	357.450	0.020	-0.120	-0.410
2020/01/31 16:40:52.6	357.460	0.030	-0.080	-0.360
2020/01/31 16:40:52.7	357.450	0.030	-0.030	-0.310
2020/01/31 16:40:52.8	357.450	0.040	0.010	-0.260
2020/01/31 16:40:52.9	357.450	0.040	0.060	-0.200
2020/01/31 16:40:53.0	357.450	0.040	0.100	-0.150
2020/01/31 16:40:53.1	357.440	0.040	0.150	-0.100
2020/01/31 16:40:53.2	357.440	0.040	0.190	-0.050
2020/01/31 16:40:53.3	357.430	0.040	0.230	-0.000
2020/01/31 16:40:53.4	357.420	0.030	0.260	0.040
2020/01/31 16:40:53.5	357.410	0.030	0.300	0.090
2020/01/31 16:40:53.6	357.400	0.020	0.330	0.130
2020/01/31 16:40:53.7	357.390	0.010	0.350	0.160
2020/01/31 16:40:53.8	357.380	-0.000	0.370	0.200
2020/01/31 16:40:53.9	357.360	-0.010	0.390	0.230
2020/01/31 16:40:54.0	357.350	-0.020	0.400	0.260
2020/01/31 16:40:54.1	357.330	-0.040	0.410	0.290
2020/01/31 16:40:54.2	357.320	-0.050	0.410	0.310
2020/01/31 16:40:54.3	357.300	-0.060	0.400	0.330
2020/01/31 16:40:54.4	357.290	-0.070	0.400	0.340
2020/01/31 16:40:54.5	357.270	-0.090	0.390	0.350
2020/01/31 16:40:54.6	357.250	-0.100	0.370	0.360
2020/01/31 16:40:54.7	357.240	-0.110	0.350	0.360
2020/01/31 16:40:54.8	357.220	-0.120	0.320	0.360
2020/01/31 16:40:54.9	357.200	-0.130	0.300	0.350
2020/01/31 16:40:55.0	357.190	-0.140	0.260	0.340
2020/01/31 16:40:55.1	357.170	-0.150	0.230	0.320
2020/01/31 16:40:55.2	357.160	-0.160	0.190	0.300
2020/01/31 16:40:55.3	357.150	-0.160	0.140	0.280
2020/01/31 16:40:55.4	357.140	-0.160	0.090	0.250
2020/01/31 16:40:55.5	357.130	-0.170	0.040	0.220
2020/01/31 16:40:55.6	357.130	-0.170	-0.010	0.180
2020/01/31 16:40:55.7	357.120	-0.170	-0.070	0.130
2020/01/31 16:40:55.8	357.120	-0.160	-0.130	0.080
2020/01/31 16:40:55.9	357.120	-0.160	-0.190	0.040
2020/01/31 16:40:56.0	357.120	-0.150	-0.260	-0.020
2020/01/31 16:40:56.1	357.130	-0.140	-0.330	-0.070
2020/01/31 16:40:56.2	357.140	-0.130	-0.390	-0.130
2020/01/31 16:40:56.3	357.140	-0.120	-0.460	-0.190
2020/01/31 16:40:56.4	357.160	-0.100	-0.520	-0.240
2020/01/31 16:40:56.5	357.170	-0.090	-0.590	-0.300
2020/01/31 16:40:56.6	357.180	-0.070	-0.650	-0.360
2020/01/31 16:40:56.7	357.190	-0.050	-0.720	-0.420
2020/01/31 16:40:56.8	357.200	-0.030	-0.770	-0.480
2020/01/31 16:40:56.9	357.210	-0.010	-0.820	-0.530
2020/01/31 16:40:57.0	357.220	0.010	-0.870	-0.580
2020/01/31 16:40:57.1	357.230	0.030	-0.910	-0.630
2020/01/31 16:40:57.2	357.240	0.060	-0.950	-0.680
2020/01/31 16:40:57.3	357.250	0.080	-0.980	-0.720
2020/01/31 16:40:57.4	357.260	0.110	-1.000	-0.760
2020/01/31 16:40:57.5	357.270	0.130	-1.010	-0.790
2020/01/31 16:40:57.6	357.270	0.160	-1.020	-0.820
2020/01/31 16:40:57.7	357.270	0.180	-1.020	-0.850
2020/01/31 16:40:57.8	357.270	0.210	-1.010	-0.870
2020/01/31 16:40:57.9	357.270	0.230	-1.000	-0.880
2020/01/31 16:40:58.0	357.270	0.260	-0.980	-0.890
2020/01/31 16:40:58.1	357.260	0.280	-0.950	-0.890
2020/01/31 16:40:58.2	357.260	0.300	-0.910	-0.890
2020/01/31 16:40:58.3	357.250	0.320	-0.870	-0.880
2020/01/31 16:40:58.4	357.240	0.350	-0.830	-0.860
2020/01/31 16:40:58.5	357.230	0.360	-0.780	-0.840
2020/01/31 16:40:58.6	357.220	0.380	-0.720	-0.810
2020/01/31 16:40:58.7	357.200	0.400	-0.670	-0.780
2020/01/31 16:40:58.8	357.190	0.410	-0.600	-0.750
2020/01/31 16:40:58.9	357.180	0.430	-0.540	-0.710
2020/01/31 16:40:59.0	357.170	0.440	-0.470	-0.670
2020/01/31 16:40:59.1	357.150	0.450	-0.410	-0.630
2020/01/31 16:40:59.2	357.140	0.450	-0.340	-0.590
2020/01/31 16:40:59.3	357.130	0.460	-0.280	-0.540
2020/01/31 16:40:59.4	357.120	0.460	-0.210	-0.500
2020/01/31 16:40:59.5	357.110	0.460	-0.150	-0.450
2020/01/31 16:40:59.6	357.100	0.450	-0.090	-0.410
2020/01/31 16:40:59.7	357.100	0.450	-0.040	-0.360
2020/01/31 16:40:59.8	357.090	0.440	0.010	-0.320
2020/01/31 16:40:59.9	357.080	0.430	0.060	-0.270
2020/01/31 16:41:00.0	357.080	0.420	0.100	-0.230
2020/01/31 16:41:00.1	357.080	0.400	0.130	-0.190
2020/01/31 16:41:00.2	357.080	0.390	0.160	-0.160
2020/01/31 16:41:00.3	357.080	0.370	0.190	-0.130
2020/01/31 16:41:00.4	357.080	0.350	0.210	-0.100
2020/01/31 16:41:00.5	357.090	0.320	0.220	-0.070
2020/01/31 16:41:00.6	357.100	0.300	0.230	-0.050
2020/01/31 16:41:00.7	357.110	0.270	0.230	-0.030
2020/01/31 16:41:00.8	357.120	0.240	0.230	-0.020
2020/01/31 16:41:00.9	357.140	0.210	0.220	-0.010
2020/01/31 16:41:01.0	357.150	0.180	0.210	-0.010
2020/01/31 16:41:01.1	357.170	0.150	0.190	-0.010
2020/01/31 16:41:01.2	357.190	0.110	0.170	-0.010
2020/01/31 16:41:01.3	357.210	0.080	0.140	-0.020
2020/01/31 16:41:01.4	357.240	0.050	0.110	-0.040
2020/01/31 16:41:01.5	357.260	0.010	0.080	-0.060
2020/01/31 16:41:01.6	357.290	-0.020	0.050	-0.080
2020/01/31 16:41:01.7	357.330	-0.050	0.020	-0.110
2020/01/31 16:41:01.8	357.360	-0.090	-0.020	-0.130
2020/01/31 16:41:01.9	357.390	-0.120	-0.060	-0.160
2020/01/31 16:41:02.0	357.420	-0.150	-0.100	-0.190
2020/01/31 16:41:02.1	357.450	-0.180	-0.130	-0.220
2020/01/31 16:41:02.2	357.480	-0.210	-0.170	-0.250
2020/01/31 16:41:02.3	357.520	-0.230	-0.200	-0.280
2020/01/31 16:41:02.4	357.550	-0.260	-0.230	-0.310
2020/01/31 16:41:02.5	357.580	-0.280	-0.260	-0.340
2020/01/31 16:41:02.6	357.610	-0.310	-0.280	-0.360
2020/01/31 16:41:02.7	357.640	-0.330	-0.310	-0.390
2020/01/31 16:41:02.8	357.660	-0.340	-0.330	-0.410
2020/01/31 16:41:02.9	357.690	-0.360	-0.340	-0.440
2020/01/31 16:41:03.0	357.710	-0.370	-0.350	-0.450
2020/01/31 16:41:03.1	357.730	-0.390	-0.350	-0.470
2020/01/31 16:41:03.2	357.750	-0.400	-0.360	-0.480
2020/01/31 16:41:03.3	357.760	-0.410	-0.360	-0.500
2020/01/31 16:41:03.4	357.770	-0.420	-0.350	-0.510
2020/01/31 16:41:03.5	357.790	-0.420	-0.350	-0.520
2020/01/31 16:41:03.6	357.800	-0.430	-0.340	-0.530
2020/01/31 16:41:03.7	357.800	-0.430	-0.330	-0.530
2020/01/31 16:41:03.8	357.810	-0.430	-0.330	-0.540
2020/01/31 16:41:03.9	357.820	-0.430	-0.320	-0.550
2020/01/31 16:41:04.0	357.820	-0.430	-0.320	-0.560
2020/01/31 16:41:04.1	357.830	-0.430	-0.310	-0.580
2020/01/31 16:41:04.2	357.840	-0.430	-0.310	-0.590
2020/01/31 16:41:04.3	357.840	-0.420	-0.320	-0.600
2020/01/31 16:41:04.4	357.850	-0.410	-0.320	-0.620
2020/01/31 16:41:04.5	357.860	-0.410	-0.330	-0.640
2020/01/31 16:41:04.6	357.870	-0.400	-0.330	-0.660
2020/01/31 16:41:04.7	357.880	-0.390	-0.350	-0.690
2020/01/31 16:41:04.8	357.890	-0.370	-0.360	-0.710
2020/01/31 16:41:04.9	357.900	-0.360	-0.380	-0.730
2020/01/31 16:41:05.0	357.920	-0.340	-0.400	-0.760
2020/01/31 16:41:05.1	357.930	-0.330	-0.410	-0.780
2020/01/31 16:41:05.2	357.940	-0.310	-0.430	-0.810
2020/01/31 16:41:05.3	357.950	-0.290	-0.450	-0.840
2020/01/31 16:41:05.4	357.960	-0.270	-0.470	-0.860
2020/01/31 16:41:05.5	357.970	-0.250	-0.480	-0.880
2020/01/31 16:41:05.6	357.980	-0.230	-0.500	-0.900
2020/01/31 16:41:05.7	357.990	-0.210	-0.500	-0.930
2020/01/31 16:41:05.8	358.000	-0.180	-0.510	-0.940
2020/01/31 16:41:05.9	358.000	-0.160	-0.520	-0.960
2020/01/31 16:41:06.0	358.000	-0.140	-0.520	-0.970
2020/01/31 16:41:06.1	358.000	-0.120	-0.510	-0.970
2020/01/31 16:41:06.2	358.000	-0.090	-0.500	-0.980
2020/01/31 16:41:06.3	357.990	-0.070	-0.490	-0.970
2020/01/31 16:41:06.4	357.990	-0.050	-0.470	-0.960
2020/01/31 16:41:06.5	357.970	-0.030	-0.450	-0.950
2020/01/31 16:41:06.6	357.960	-0.010	-0.420	-0.930
2020/01/31 16:41:06.7	357.940	0.020	-0.400	-0.910
2020/01/31 16:41:06.8	357.920	0.030	-0.370	-0.880
2020/01/31 16:41:06.9	357.900	0.050	-0.330	-0.850
2020/01/31 16:41:07.0	357.880	0.070	-0.290	-0.810
2020/01/31 16:41:07.1	357.850	0.090	-0.250	-0.770
2020/01/31 16:41:07.2	357.820	0.100	-0.200	-0.720
2020/01/31 16:41:07.3	357.800	0.120	-0.160	-0.680
2020/01/31 16:41:07.4	357.770	0.130	-0.120	-0.630
2020/01/31 16:41:07.5	357.740	0.140	-0.080	-0.580
2020/01/31 16:41:07.6	357.720	0.150	-0.040	-0.530
2020/01/31 16:41:07.7	357.700	0.160	0.000	-0.470
2020/01/31 16:41:07.8	357.680	0.170	0.030	-0.420
2020/01/31 16:41:07.9	357.660	0.180	0.060	-0.370
2020/01/31 16:41:08.0	357.650	0.190	0.090	-0.330
2020/01/31 16:41:08.1	357.630	0.190	0.110	-0.280
2020/01/31 16:41:08.2	357.620	0.200	0.120	-0.240
2020/01/31 16:41:08.3	357.620	0.210	0.130	-0.200
2020/01/31 16:41:08.4	357.610	0.210	0.130	-0.160
2020/01/31 16:41:08.5	357.610	0.220	0.130	-0.130
2020/01/31 16:41:08.6	357.610	0.220	0.120	-0.100
2020/01/31 16:41:08.7	357.620	0.230	0.110	-0.080
2020/01/31 16:41:08.8	357.630	0.230	0.100	-0.060
2020/01/31 16:41:08.9	357.640	0.240	0.080	-0.040
2020/01/31 16:41:09.0	357.650	0.240	0.050	-0.030
2020/01/31 16:41:09.1	357.660	0.240	0.020	-0.030
2020/01/31 16:41:09.2	357.680	0.250	-0.010	-0.020
2020/01/31 16:41:09.3	357.690	0.250	-0.050	-0.020
2020/01/31 16:41:09.4	357.710	0.250	-0.080	-0.030
2020/01/31 16:41:09.5	357.730	0.260	-0.120	-0.040
2020/01/31 16:41:09.6	357.750	0.260	-0.160	-0.050
2020/01/31 16:41:09.7	357.770	0.260	-0.200	-0.060
2020/01/31 16:41:09.8	357.780	0.260	-0.230	-0.070
2020/01/31 16:41:09.9	357.800	0.260	-0.270	-0.080
2020/01/31 16:41:10.0	357.820	0.260	-0.300	-0.090
2020/01/31 16:41:10.1	357.830	0.260	-0.320	-0.090
2020/01/31 16:41:10.2	357.840	0.260	-0.350	-0.100
2020/01/31 16:41:10.3	357.840	0.250	-0.370	-0.100
2020/01/31 16:41:10.4	357.850	0.250	-0.380	-0.100
2020/01/31 16:41:10.5	357.850	0.240	-0.380	-0.100
2020/01/31 16:41:10.6	357.850	0.230	-0.390	-0.100
2020/01/31 16:41:10.7	357.850	0.220	-0.380	-0.100
2020/01/31 16:41:10.8	357.850	0.200	-0.370	-0.100
2020/01/31 16:41:10.9	357.840	0.190	-0.360	-0.100
2020/01/31 16:41:11.0	357.840	0.170	-0.340	-0.090
2020/01/31 16:41:11.1	357.830	0.150	-0.320	-0.090
2020/01/31 16:41:11.2	357.820	0.130	-0.290	-0.090
2020/01/31 16:41:11.3	357.810	0.110	-0.260	-0.090
2020/01/31 16:41:11.4	357.800	0.090	-0.230	-0.090
2020/01/31 16:41:11.5	357.790	0.060	-0.200	-0.090
2020/01/31 16:41:11.6	357.790	0.040	-0.160	-0.100
2020/01/31 16:41:11.7	357.780	0.010	-0.120	-0.110
2020/01/31 16:41:11.8	357.780	-0.010	-0.090	-0.110
2020/01/31 16:41:11.9	357.770	-0.040	-0.060	-0.120
2020/01/31 16:41:12.0	357.770	-0.070	-0.030	-0.130
2020/01/31 16:41:12.1	357.760	-0.090	0.000	-0.150
2020/01/31 16:41:12.2	357.760	-0.120	0.020	-0.160
2020/01/31 16:41:12.3	357.770	-0.140	0.040	-0.180
2020/01/31 16:41:12.4	357.770	-0.170	0.060	-0.200
2020/01/31 16:41:12.5	357.770	-0.190	0.070	-0.220
2020/01/31 16:41:12.6	357.780	-0.210	0.070	-0.240
2020/01/31 16:41:12.7	357.790	-0.220	0.070	-0.270
2020/01/31 16:41:12.8	357.800	-0.240	0.070	-0.290
2020/01/31 16:41:12.9	357.820	-0.250	0.050	-0.320
2020/01/31 16:41:13.0	357.830	-0.260	0.030	-0.350
2020/01/31 16:41:13.1	357.850	-0.270	0.010	-0.380
2020/01/31 16:41:13.2	357.870	-0.270	-0.020	-0.410
2020/01/31 16:41:13.3	357.890	-0.270	-0.050	-0.440
2020/01/31 16:41:13.4	357.910	-0.270	-0.090	-0.470
2020/01/31 16:41:13.5	357.930	-0.270	-0.130	-0.500
2020/01/31 16:41:13.6	357.950	-0.260	-0.180	-0.530
2020/01/31 16:41:13.7	357.980	-0.250	-0.230	-0.560
2020/01/31 16:41:13.8	358.000	-0.240	-0.270	-0.590
2020/01/31 16:41:13.9	358.020	-0.230	-0.330	-0.610
2020/01/31 16:41:14.0	358.040	-0.210	-0.380	-0.640
2020/01/31 16:41:14.1	358.060	-0.190	-0.430	-0.660
2020/01/31 16:41:14.2	358.080	-0.170	-0.480	-0.680
2020/01/31 16:41:14.3	358.100	-0.160	-0.530	-0.700
2020/01/31 16:41:14.4	358.110	-0.130	-0.580	-0.720
2020/01/31 16:41:14.5	358.130	-0.110	-0.630	-0.740
2020/01/31 16:41:14.6	358.140	-0.090	-0.680	-0.760
2020/01/31 16:41:14.7	358.160	-0.070	-0.720	-0.770
2020/01/31 16:41:14.8	358.170	-0.040	-0.760	-0.790
2020/01/31 16:41:14.9	358.180	-0.020	-0.800	-0.800
2020/01/31 16:41:15.0	358.190	0.000	-0.830	-0.810
2020/01/31 16:41:15.1	358.200	0.030	-0.860	-0.820
2020/01/31 16:41:15.2	358.210	0.050	-0.890	-0.830
2020/01/31 16:41:15.3	358.220	0.070	-0.910	-0.840
2020/01/31 16:41:15.4	358.230	0.100	-0.930	-0.840
2020/01/31 16:41:15.5	358.250	0.120	-0.950	-0.850
2020/01/31 16:41:15.6	358.260	0.140	-0.960	-0.850
2020/01/31 16:41:15.7	358.270	0.160	-0.960	-0.850
2020/01/31 16:41:15.8	358.280	0.180	-0.970	-0.850
2020/01/31 16:41:15.9	358.300	0.200	-0.970	-0.850
2020/01/31 16:41:16.0	358.320	0.210	-0.960	-0.840
2020/01/31 16:41:16.1	358.340	0.230	-0.960	-0.840
2020/01/31 16:41:16.2	358.360	0.240	-0.950	-0.830
2020/01/31 16:41:16.3	358.390	0.260	-0.930	-0.830
2020/01/31 16:41:16.4	358.410	0.270	-0.910	-0.820
2020/01/31 16:41:16.5	358.440	0.280	-0.890	-0.810
2020/01/31 16:41:16.6	358.460	0.290	-0.870	-0.800
2020/01/31 16:41:16.7	358.480	0.290	-0.840	-0.790
2020/01/31 16:41:16.8	358.510	0.300	-0.810	-0.780
2020/01/31 16:41:16.9	358.530	0.300	-0.780	-0.770
2020/01/31 16:41:17.0	358.560	0.300	-0.730	-0.750
2020/01/31 16:41:17.1	358.580	0.300	-0.690	-0.740
2020/01/31 16:41:17.2	358.600	0.290	-0.640	-0.720
2020/01/31 16:41:17.3	358.620	0.280	-0.590	-0.700
2020/01/31 16:41:17.4	358.640	0.270	-0.530	-0.690
2020/01/31 16:41:17.5	358.650	0.250	-0.470	-0.670
2020/01/31 16:41:17.6	358.670	0.240	-0.410	-0.650
2020/01/31 16:41:17.7	358.680	0.220	-0.330	-0.620
2020/01/31 16:41:17.8	358.690	0.200	-0.260	-0.600
2020/01/31 16:41:17.9	358.690	0.170	-0.190	-0.570
2020/01/31 16:41:18.0	358.690	0.140	-0.110	-0.550
2020/01/31 16:41:18.1	358.690	0.120	-0.030	-0.520
2020/01/31 16:41:18.2	358.690	0.080	0.050	-0.490
2020/01/31 16:41:18.3	358.680	0.050	0.130	-0.460
2020/01/31 16:41:18.4	358.670	0.020	0.220	-0.420
2020/01/31 16:41:18.5	358.660	-0.020	0.300	-0.390
2020/01/31 16:41:18.6	358.640	-0.060	0.390	-0.350
2020/01/31 16:41:18.7	358.630	-0.100	0.460	-0.310
2020/01/31 16:41:18.8	358.600	-0.140	0.540	-0.280
2020/01/31 16:41:18.9	358.580	-0.170	0.620	-0.240
2020/01/31 16:41:19.0	358.550	-0.210	0.700	-0.200
2020/01/31 16:41:19.1	358.530	-0.250	0.770	-0.160
2020/01/31 16:41:19.2	358.490	-0.290	0.830	-0.120
2020/01/31 16:41:19.3	358.460	-0.330	0.890	-0.080
2020/01/31 16:41:19.4	358.430	-0.370	0.940	-0.040
2020/01/31 16:41:19.5	358.390	-0.400	0.990	-0.000
2020/01/31 16:41:19.6	358.350	-0.430	1.030	0.030
2020/01/31 16:41:19.7	358.320	-0.460	1.060	0.070
2020/01/31 16:41:19.8	358.280	-0.490	1.080	0.090
2020/01/31 16:41:19.9	358.240	-0.520	1.090	0.120
2020/01/31 16:41:20.0	358.200	-0.540	1.090	0.140
2020/01/31 16:41:20.1	358.160	-0.560	1.080	0.160
2020/01/31 16:41:20.2	358.120	-0.580	1.060	0.180
2020/01/31 16:41:20.3	358.080	-0.590	1.040	0.180
2020/01/31 16:41:20.4	358.050	-0.600	1.000	0.190
2020/01/31 16:41:20.5	358.010	-0.600	0.950	0.180
2020/01/31 16:41:20.6	357.980	-0.600	0.890	0.180
2020/01/31 16:41:20.7	357.940	-0.600	0.820	0.170
2020/01/31 16:41:20.8	357.910	-0.590	0.740	0.150
2020/01/31 16:41:20.9	357.890	-0.580	0.660	0.130
2020/01/31 16:41:21.0	357.870	-0.560	0.560	0.100
2020/01/31 16:41:21.1	357.850	-0.540	0.470	0.070
2020/01/31 16:41:21.2	357.830	-0.510	0.360	0.040
2020/01/31 16:41:21.3	357.820	-0.480	0.250	-0.000
2020/01/31 16:41:21.4	357.810	-0.450	0.140	-0.040
2020/01/31 16:41:21.5	357.810	-0.410	0.030	-0.080
2020/01/31 16:41:21.6	357.800	-0.370	-0.090	-0.120
2020/01/31 16:41:21.7	357.800	-0.330	-0.210	-0.170
2020/01/31 16:41:21.8	357.800	-0.280	-0.320	-0.210
2020/01/31 16:41:21.9	357.810	-0.230	-0.430	-0.250
2020/01/31 16:41:22.0	357.820	-0.180	-0.540	-0.290
2020/01/31 16:41:22.1	357.820	-0.130	-0.650	-0.320
2020/01/31 16:41:22.2	357.830	-0.080	-0.750	-0.360
2020/01/31 16:41:22.3	357.840	-0.030	-0.840	-0.390
2020/01/31 16:41:22.4	357.850	0.030	-0.930	-0.420
2020/01/31 16:41:22.5	357.870	0.080	-1.010	-0.440
2020/01/31 16:41:22.6	357.880	0.130	-1.080	-0.470
2020/01/31 16:41:22.7	357.880	0.180	-1.150	-0.480
2020/01/31 16:41:22.8	357.890	0.230	-1.200	-0.500
2020/01/31 16:41:22.9	357.900	0.270	-1.240	-0.510
2020/01/31 16:41:23.0	357.910	0.310	-1.280	-0.530
2020/01/31 16:41:23.1	357.910	0.350	-1.300	-0.530
2020/01/31 16:41:23.2	357.920	0.390	-1.320	-0.540
2020/01/31 16:41:23.3	357.930	0.420	-1.330	-0.540
2020/01/31 16:41:23.4	357.940	0.450	-1.330	-0.540
2020/01/31 16:41:23.5	357.950	0.480	-1.320	-0.530
2020/01/31 16:41:23.6	357.960	0.500	-1.310	-0.530
2020/01/31 16:41:23.7	357.970	0.520	-1.280	-0.520
2020/01/31 16:41:23.8	357.990	0.540	-1.260	-0.510
2020/01/31 16:41:23.9	358.000	0.550	-1.230	-0.500
2020/01/31 16:41:24.0	358.020	0.560	-1.190	-0.490
2020/01/31 16:41:24.1	358.040	0.560	-1.150	-0.480
2020/01/31 16:41:24.2	358.060	0.570	-1.120	-0.460
2020/01/31 16:41:24.3	358.080	0.570	-1.070	-0.450
2020/01/31 16:41:24.4	358.110	0.560	-1.030	-0.440
2020/01/31 16:41:24.5	358.140	0.560	-0.990	-0.430
2020/01/31 16:41:24.6	358.170	0.550	-0.950	-0.430
2020/01/31 16:41:24.7	358.200	0.540	-0.910	-0.420
2020/01/31 16:41:24.8	358.230	0.530	-0.880	-0.410
2020/01/31 16:41:24.9	358.270	0.520	-0.840	-0.410
2020/01/31 16:41:25.0	358.310	0.510	-0.810	-0.410
2020/01/31 16:41:25.1	358.350	0.490	-0.770	-0.410
2020/01/31 16:41:25.2	358.390	0.480	-0.750	-0.410
2020/01/31 16:41:25.3	358.430	0.460	-0.720	-0.410
2020/01/31 16:41:25.4	358.470	0.440	-0.690	-0.410
2020/01/31 16:41:25.5	358.510	0.430	-0.670	-0.410
2020/01/31 16:41:25.6	358.550	0.410	-0.650	-0.410
2020/01/31 16:41:25.7	358.590	0.390	-0.630	-0.410
2020/01/31 16:41:25.8	358.630	0.370	-0.610	-0.420
2020/01/31 16:41:25.9	358.670	0.350	-0.590	-0.420
2020/01/31 16:41:26.0	358.700	0.330	-0.580	-0.430
2020/01/31 16:41:26.1	358.740	0.310	-0.560	-0.430
2020/01/31 16:41:26.2	358.770	0.290	-0.540	-0.440
2020/01/31 16:41:26.3	358.800	0.270	-0.520	-0.450
2020/01/31 16:41:26.4	358.830	0.250	-0.500	-0.450
2020/01/31 16:41:26.5	358.850	0.230	-0.470	-0.460
2020/01/31 16:41:26.6	358.880	0.200	-0.450	-0.460
2020/01/31 16:41:26.7	358.900	0.180	-0.420	-0.460
2020/01/31 16:41:26.8	358.910	0.160	-0.380	-0.470
2020/01/31 16:41:26.9	358.930	0.140	-0.350	-0.470
2020/01/31 16:41:27.0	358.940	0.110	-0.310	-0.470
2020/01/31 16:41:27.1	358.950	0.090	-0.270	-0.470
2020/01/31 16:41:27.2	358.950	0.060	-0.220	-0.470
2020/01/31 16:41:27.3	358.960	0.040	-0.170	-0.470
2020/01/31 16:41:27.4	358.960	0.010	-0.120	-0.470
2020/01/31 16:41:27.5	358.950	-0.010	-0.070	-0.470
2020/01/31 16:41:27.6	358.950	-0.040	-0.010	-0.460
2020/01/31 16:41:27.7	358.940	-0.060	0.050	-0.460
2020/01/31 16:41:27.8	358.930	-0.090	0.110	-0.450
2020/01/31 16:41:27.9	358.910	-0.120	0.170	-0.450
2020/01/31 16:41:28.0	358.900	-0.140	0.230	-0.440
2020/01/31 16:41:28.1	358.880	-0.170	0.290	-0.440
2020/01/31 16:41:28.2	358.860	-0.200	0.350	-0.430
2020/01/31 16:41:28.3	358.840	-0.220	0.410	-0.420
2020/01/31 16:41:28.4	358.810	-0.250	0.470	-0.410
2020/01/31 16:41:28.5	358.790	-0.270	0.520	-0.410
2020/01/31 16:41:28.6	358.760	-0.300	0.570	-0.400
2020/01/31 16:41:28.7	358.750	-0.320	0.620	-0.390
2020/01/31 16:41:28.8	358.720	-0.350	0.660	-0.390
2020/01/31 16:41:28.9	358.690	-0.370	0.700	-0.380
2020/01/31 16:41:29.0	358.660	-0.390	0.740	-0.370
2020/01/31 16:41:29.1	358.620	-0.410	0.770	-0.370
2020/01/31 16:41:29.2	358.580	-0.420	0.790	-0.360
2020/01/31 16:41:29.3	358.550	-0.440	0.810	-0.350
2020/01/31 16:41:29.4	358.510	-0.450	0.820	-0.350
2020/01/31 16:41:29.5	358.470	-0.460	0.830	-0.340
2020/01/31 16:41:29.6	358.430	-0.470	0.830	-0.330
2020/01/31 16:41:29.7	358.380	-0.470	0.830	-0.320
2020/01/31 16:41:29.8	358.330	-0.480	0.820	-0.320
2020/01/31 16:41:29.9	358.290	-0.480	0.810	-0.310
2020/01/31 16:41:30.0	358.240	-0.470	0.790	-0.300
2020/01/31 16:41:30.1	358.200	-0.470	0.760	-0.290
2020/01/31 16:41:30.2	358.150	-0.460	0.730	-0.280
2020/01/31 16:41:30.3	358.100	-0.450	0.690	-0.270
2020/01/31 16:41:30.4	358.050	-0.440	0.650	-0.260
2020/01/31 16:41:30.5	358.000	-0.430	0.600	-0.250
2020/01/31 16:41:30.6	357.950	-0.410	0.550	-0.240
2020/01/31 16:41:30.7	357.900	-0.390	0.500	-0.230
2020/01/31 16:41:30.8	357.850	-0.380	0.440	-0.220
2020/01/31 16:41:30.9	357.800	-0.350	0.380	-0.210
2020/01/31 16:41:31.0	357.750	-0.330	0.310	-0.200
2020/01/31 16:41:31.1	357.700	-0.310	0.250	-0.200
2020/01/31 16:41:31.2	357.650	-0.280	0.180	-0.190
2020/01/31 16:41:31.3	357.600	-0.260	0.110	-0.190
2020/01/31 16:41:31.4	357.550	-0.230	0.040	-0.180
2020/01/31 16:41:31.5	357.510	-0.210	-0.030	-0.180
2020/01/31 16:41:31.6	357.470	-0.180	-0.100	-0.180
2020/01/31 16:41:31.7	357.420	-0.150	-0.170	-0.190
2020/01/31 16:41:31.8	357.390	-0.130	-0.240	-0.190
2020/01/31 16:41:31.9	357.360	-0.100	-0.310	-0.200
2020/01/31 16:41:32.0	357.330	-0.070	-0.370	-0.200
2020/01/31 16:41:32.1	357.310	-0.050	-0.440	-0.210
2020/01/31 16:41:32.2	357.290	-0.020	-0.510	-0.220
2020/01/31 16:41:32.3	357.280	0.010	-0.570	-0.240
2020/01/31 16:41:32.4	357.270	0.030	-0.640	-0.250
2020/01/31 16:41:32.5	357.270	0.060	-0.700	-0.270
2020/01/31 16:41:32.6	357.280	0.080	-0.760	-0.300
2020/01/31 16:41:32.7	357.290	0.110	-0.830	-0.320
2020/01/31 16:41:32.8	357.320	0.130	-0.890	-0.350
2020/01/31 16:41:32.9	357.340	0.160	-0.950	-0.390
2020/01/31 16:41:33.0	357.380	0.180	-1.000	-0.430
2020/01/31 16:41:33.1	357.420	0.200	-1.060	-0.470
2020/01/31 16:41:33.2	357.460	0.220	-1.110	-0.510
2020/01/31 16:41:33.3	357.510	0.240	-1.160	-0.550
2020/01/31 16:41:33.4	357.570	0.260	-1.210	-0.600
2020/01/31 16:41:33.5	357.620	0.270	-1.250	-0.640
2020/01/31 16:41:33.6	357.680	0.280	-1.290	-0.690
2020/01/31 16:41:33.7	357.730	0.300	-1.320	-0.740
2020/01/31 16:41:33.8	357.790	0.300	-1.340	-0.780
2020/01/31 16:41:33.9	357.860	0.310	-1.360	-0.820
2020/01/31 16:41:34.0	357.920	0.310	-1.370	-0.870
2020/01/31 16:41:34.1	357.980	0.310	-1.380	-0.910
2020/01/31 16:41:34.2	358.040	0.310	-1.380	-0.950
2020/01/31 16:41:34.3	358.100	0.310	-1.370	-0.980
2020/01/31 16:41:34.4	358.160	0.300	-1.360	-1.020
2020/01/31 16:41:34.5	358.210	0.290	-1.340	-1.050
2020/01/31 16:41:34.6	358.270	0.280	-1.310	-1.080
2020/01/31 16:41:34.7	358.320	0.260	-1.280	-1.100
2020/01/31 16:41:34.8	358.370	0.250	-1.240	-1.120
2020/01/31 16:41:34.9	358.410	0.230	-1.190	-1.140
2020/01/31 16:41:35.0	358.450	0.210	-1.140	-1.160
2020/01/31 16:41:35.1	358.490	0.190	-1.090	-1.160
2020/01/31 16:41:35.2	358.520	0.170	-1.030	-1.170
2020/01/31 16:41:35.3	358.550	0.150	-0.960	-1.170
2020/01/31 16:41:35.4	358.580	0.120	-0.900	-1.160
2020/01/31 16:41:35.5	358.600	0.100	-0.830	-1.150
2020/01/31 16:41:35.6	358.620	0.080	-0.750	-1.140
2020/01/31 16:41:35.7	358.640	0.050	-0.680	-1.120
2020/01/31 16:41:35.8	358.650	0.030	-0.600	-1.100
2020/01/31 16:41:35.9	358.660	0.010	-0.520	-1.070
2020/01/31 16:41:36.0	358.660	-0.020	-0.450	-1.030
2020/01/31 16:41:36.1	358.650	-0.040	-0.370	-1.000
2020/01/31 16:41:36.2	358.640	-0.060	-0.290	-0.960
2020/01/31 16:41:36.3	358.630	-0.080	-0.220	-0.920
2020/01/31 16:41:36.4	358.610	-0.100	-0.140	-0.870
2020/01/31 16:41:36.5	358.590	-0.110	-0.070	-0.820
2020/01/31 16:41:36.6	358.570	-0.130	0.010	-0.770
2020/01/31 16:41:36.7	358.530	-0.140	0.080	-0.720
2020/01/31 16:41:36.8	358.500	-0.150	0.140	-0.660
2020/01/31 16:41:36.9	358.460	-0.160	0.210	-0.610
2020/01/31 16:41:37.0	358.430	-0.160	0.270	-0.550
2020/01/31 16:41:37.1	358.380	-0.170	0.330	-0.500
2020/01/31 16:41:37.2	358.340	-0.170	0.390	-0.440
2020/01/31 16:41:37.3	358.290	-0.160	0.440	-0.380
2020/01/31 16:41:37.4	358.240	-0.160	0.490	-0.320
2020/01/31 16:41:37.5	358.190	-0.160	0.530	-0.260
2020/01/31 16:41:37.6	358.130	-0.150	0.570	-0.200
2020/01/31 16:41:37.7	358.090	-0.140	0.600	-0.150
2020/01/31 16:41:37.8	358.040	-0.120	0.630	-0.090
2020/01/31 16:41:37.9	357.990	-0.110	0.650	-0.040
2020/01/31 16:41:38.0	357.930	-0.090	0.670	0.010
2020/01/31 16:41:38.1	357.880	-0.080	0.680	0.060
2020/01/31 16:41:38.2	357.830	-0.060	0.690	0.110
2020/01/31 16:41:38.3	357.780	-0.030	0.690	0.150
2020/01/31 16:41:38.4	357.730	-0.010	0.690	0.180
2020/01/31 16:41:38.5	357.690	0.010	0.680	0.220
2020/01/31 16:41:38.6	357.650	0.030	0.670	0.250
2020/01/31 16:41:38.7	357.610	0.060	0.650	0.270
2020/01/31 16:41:38.8	357.570	0.080	0.630	0.290
2020/01/31 16:41:38.9	357.530	0.110	0.600	0.300
2020/01/31 16:41:39.0	357.500	0.130	0.570	0.310
2020/01/31 16:41:39.1	357.480	0.160	0.530	0.320
2020/01/31 16:41:39.2	357.450	0.180	0.490	0.320
2020/01/31 16:41:39.3	357.430	0.210	0.450	0.320
2020/01/31 16:41:39.4	357.410	0.230	0.400	0.320
2020/01/31 16:41:39.5	357.390	0.250	0.350	0.310
2020/01/31 16:41:39.6	357.370	0.270	0.290	0.300
2020/01/31 16:41:39.7	357.360	0.280	0.230	0.290
2020/01/31 16:41:39.8	357.340	0.300	0.180	0.280
2020/01/31 16:41:39.9	357.330	0.310	0.120	0.270
2020/01/31 16:41:40.0	357.320	0.320	0.060	0.250
2020/01/31 16:41:40.1	357.310	0.330	-0.010	0.230
2020/01/31 16:41:40.2	357.300	0.330	-0.070	0.210
2020/01/31 16:41:40.3	357.300	0.340	-0.130	0.180
2020/01/31 16:41:40.4	357.300	0.340	-0.200	0.150
2020/01/31 16:41:40.5	357.300	0.330	-0.260	0.120
2020/01/31 16:41:40.6	357.300	0.330	-0.320	0.080
2020/01/31 16:41:40.7	357.310	0.320	-0.380	0.040
2020/01/31 16:41:40.8	357.320	0.310	-0.440	-0.000
2020/01/31 16:41:40.9	357.330	0.300	-0.510	-0.050
2020/01/31 16:41:41.0	357.350	0.280	-0.560	-0.100
2020/01/31 16:41:41.1	357.370	0.260	-0.620	-0.150
2020/01/31 16:41:41.2	357.390	0.250	-0.680	-0.210
2020/01/31 16:41:41.3	357.420	0.220	-0.730	-0.260
2020/01/31 16:41:41.4	357.450	0.200	-0.780	-0.320
2020/01/31 16:41:41.5	357.480	0.180	-0.830	-0.380
2020/01/31 16:41:41.6	357.520	0.160	-0.870	-0.440
2020/01/31 16:41:41.7	357.540	0.130	-0.910	-0.510
2020/01/31 16:41:41.8	357.580	0.100	-0.950	-0.570
2020/01/31 16:41:41.9	357.620	0.080	-0.980	-0.630
2020/01/31 16:41:42.0	357.670	0.050	-1.000	-0.690
2020/01/31 16:41:42.1	357.710	0.020	-1.020	-0.740
2020/01/31 16:41:42.2	357.750	-0.010	-1.030	-0.790
2020/01/31 16:41:42.3	357.790	-0.030	-1.030	-0.840
2020/01/31 16:41:42.4	357.830	-0.060	-1.030	-0.890
2020/01/31 16:41:42.5	357.860	-0.090	-1.020	-0.920
2020/01/31 16:41:42.6	357.900	-0.120	-1.000	-0.960
2020/01/31 16:41:42.7	357.930	-0.140	-0.980	-0.990
2020/01/31 16:41:42.8	357.960	-0.170	-0.950	-1.020
2020/01/31 16:41:42.9	357.990	-0.200	-0.910	-1.040
2020/01/31 16:41:43.0	358.010	-0.220	-0.860	-1.050
2020/01/31 16:41:43.1	358.030	-0.240	-0.810	-1.060
2020/01/31 16:41:43.2	358.050	-0.270	-0.750	-1.060
2020/01/31 16:41:43.3	358.060	-0.290	-0.690	-1.060
2020/01/31 16:41:43.4	358.070	-0.300	-0.630	-1.060
2020/01/31 16:41:43.5	358.080	-0.320	-0.560	-1.050
2020/01/31 16:41:43.6	358.090	-0.330	-0.490	-1.030
2020/01/31 16:41:43.7	358.100	-0.340	-0.420	-1.020
2020/01/31 16:41:43.8	358.100	-0.350	-0.350	-0.990
2020/01/31 16:41:43.9	358.110	-0.360	-0.280	-0.970
2020/01/31 16:41:44.0	358.110	-0.360	-0.210	-0.940
2020/01/31 16:41:44.1	358.110	-0.360	-0.140	-0.910
2020/01/31 16:41:44.2	358.110	-0.360	-0.080	-0.880
2020/01/31 16:41:44.3	358.110	-0.350	-0.020	-0.850
2020/01/31 16:41:44.4	358.110	-0.340	0.040	-0.820
2020/01/31 16:41:44.5	358.120	-0.330	0.090	-0.780
2020/01/31 16:41:44.6	358.120	-0.310	0.130	-0.750
2020/01/31 16:41:44.7	358.130	-0.300	0.170	-0.710
2020/01/31 16:41:44.8	358.130	-0.280	0.200	-0.670
2020/01/31 16:41:44.9	358.140	-0.250	0.220	-0.640
2020/01/31 16:41:45.0	358.140	-0.230	0.240	-0.600
2020/01/31 16:41:45.1	358.140	-0.200	0.260	-0.570
2020/01/31 16:41:45.2	358.150	-0.180	0.260	-0.530
2020/01/31 16:41:45.3	358.150	-0.150	0.260	-0.500
2020/01/31 16:41:45.4	358.160	-0.120	0.260	-0.470
2020/01/31 16:41:45.5	358.160	-0.090	0.250	-0.440
2020/01/31 16:41:45.6	358.160	-0.060	0.230	-0.410
2020/01/31 16:41:45.7	358.170	-0.020	0.210	-0.380
2020/01/31 16:41:45.8	358.170	0.010	0.190	-0.350
2020/01/31 16:41:45.9	358.170	0.030	0.160	-0.320
2020/01/31 16:41:46.0	358.160	0.060	0.130	-0.300
2020/01/31 16:41:46.1	358.160	0.090	0.100	-0.270
2020/01/31 16:41:46.2	358.150	0.110	0.070	-0.250
2020/01/31 16:41:46.3	358.140	0.130	0.030	-0.230
2020/01/31 16:41:46.4	358.140	0.150	-0.000	-0.210
2020/01/31 16:41:46.5	358.130	0.170	-0.040	-0.190
2020/01/31 16:41:46.6	358.110	0.180	-0.080	-0.180
2020/01/31 16:41:46.7	358.090	0.200	-0.120	-0.170
2020/01/31 16:41:46.8	358.080	0.200	-0.150	-0.160
2020/01/31 16:41:46.9	358.060	0.210	-0.190	-0.150
2020/01/31 16:41:47.0	358.050	0.210	-0.220	-0.150
2020/01/31 16:41:47.1	358.040	0.210	-0.260	-0.150
2020/01/31 16:41:47.2	358.030	0.210	-0.290	-0.160
2020/01/31 16:41:47.3	358.020	0.200	-0.320	-0.160
2020/01/31 16:41:47.4	358.010	0.190	-0.350	-0.180
2020/01/31 16:41:47.5	358.000	0.180	-0.380	-0.190
2020/01/31 16:41:47.6	357.990	0.160	-0.400	-0.200
2020/01/31 16:41:47.7	357.980	0.140	-0.420	-0.230
2020/01/31 16:41:47.8	357.970	0.120	-0.440	-0.250
2020/01/31 16:41:47.9	357.970	0.100	-0.460	-0.270
2020/01/31 16:41:48.0	357.960	0.080	-0.480	-0.300
2020/01/31 16:41:48.1	357.960	0.060	-0.490	-0.330
2020/01/31 16:41:48.2	357.960	0.030	-0.510	-0.360
2020/01/31 16:41:48.3	357.960	0.010	-0.520	-0.400
2020/01/31 16:41:48.4	357.960	-0.020	-0.530	-0.430
2020/01/31 16:41:48.5	357.960	-0.050	-0.530	-0.470
2020/01/31 16:41:48.6	357.970	-0.070	-0.540	-0.510
2020/01/31 16:41:48.7	357.970	-0.090	-0.540	-0.550
2020/01/31 16:41:48.8	357.980	-0.120	-0.550	-0.590
2020/01/31 16:41:48.9	357.990	-0.140	-0.550	-0.630
2020/01/31 16:41:49.0	358.000	-0.160	-0.550	-0.670
2020/01/31 16:41:49.1	358.020	-0.170	-0.550	-0.710
2020/01/31 16:41:49.2	358.030	-0.190	-0.550	-0.750
2020/01/31 16:41:49.3	358.040	-0.200	-0.550	-0.790
2020/01/31 16:41:49.4	358.060	-0.210	-0.550	-0.830
2020/01/31 16:41:49.5	358.080	-0.210	-0.540	-0.870
2020/01/31 16:41:49.6	358.090	-0.210	-0.540	-0.900
2020/01/31 16:41:49.7	358.120	-0.210	-0.540	-0.930
2020/01/31 16:41:49.8	358.130	-0.200	-0.530	-0.960
2020/01/31 16:41:49.9	358.150	-0.200	-0.520	-0.990
2020/01/31 16:41:50.0	358.170	-0.180	-0.510	-1.010
2020/01/31 16:41:50.1	358.180	-0.170	-0.500	-1.030
2020/01/31 16:41:50.2	358.200	-0.150	-0.480	-1.040
2020/01/31 16:41:50.3	358.220	-0.130	-0.470	-1.050
2020/01/31 16:41:50.4	358.230	-0.110	-0.450	-1.060
2020/01/31 16:41:50.5	358.250	-0.080	-0.430	-1.060
2020/01/31 16:41:50.6	358.270	-0.050	-0.410	-1.060
2020/01/31 16:41:50.7	358.290	-0.030	-0.390	-1.060
2020/01/31 16:41:50.8	358.300	0.000	-0.360	-1.050
2020/01/31 16:41:50.9	358.320	0.030	-0.340	-1.040
2020/01/31 16:41:51.0	358.340	0.060	-0.310	-1.030
2020/01/31 16:41:51.1	358.360	0.090	-0.290	-1.020
2020/01/31 16:41:51.2	358.380	0.120	-0.260	-1.000
2020/01/31 16:41:51.3	358.400	0.150	-0.240	-0.990
2020/01/31 16:41:51.4	358.420	0.170	-0.210	-0.970
2020/01/31 16:41:51.5	358.440	0.200	-0.180	-0.940
2020/01/31 16:41:51.6	358.450	0.220	-0.160	-0.920
2020/01/31 16:41:51.7	358.470	0.240	-0.130	-0.890
2020/01/31 16:41:51.8	358.480	0.260	-0.110	-0.870
2020/01/31 16:41:51.9	358.500	0.280	-0.080	-0.840
2020/01/31 16:41:52.0	358.510	0.290	-0.060	-0.800
2020/01/31 16:41:52.1	358.520	0.300	-0.040	-0.770
2020/01/31 16:41:52.2	358.520	0.300	-0.020	-0.740
2020/01/31 16:41:52.3	358.520	0.300	0.000	-0.700
2020/01/31 16:41:52.4	358.520	0.300	0.020	-0.660
2020/01/31 16:41:52.5	358.520	0.300	0.040	-0.620
2020/01/31 16:41:52.6	358.520	0.290	0.050	-0.590
2020/01/31 16:41:52.7	358.510	0.280	0.060	-0.550
2020/01/31 16:41:52.8	358.500	0.270	0.070	-0.510
2020/01/31 16:41:52.9	358.490	0.260	0.080	-0.470
2020/01/31 16:41:53.0	358.480	0.240	0.090	-0.430
2020/01/31 16:41:53.1	358.470	0.220	0.100	-0.390
2020/01/31 16:41:53.2	358.460	0.200	0.100	-0.350
2020/01/31 16:41:53.3	358.440	0.180	0.100	-0.320
2020/01/31 16:41:53.4	358.430	0.150	0.110	-0.280
2020/01/31 16:41:53.5	358.410	0.130	0.110	-0.250
2020/01/31 16:41:53.6	358.390	0.110	0.100	-0.220
2020/01/31 16:41:53.7	358.380	0.080	0.100	-0.180
2020/01/31 16:41:53.8	358.360	0.060	0.100	-0.160
2020/01/31 16:41:53.9	358.340	0.030	0.090	-0.130
2020/01/31 16:41:54.0	358.320	0.010	0.090	-0.110
2020/01/31 16:41:54.1	358.310	-0.010	0.080	-0.080
2020/01/31 16:41:54.2	358.290	-0.030	0.070	-0.060
2020/01/31 16:41:54.3	358.270	-0.050	0.060	-0.050
2020/01/31 16:41:54.4	358.250	-0.070	0.050	-0.030
2020/01/31 16:41:54.5	358.230	-0.080	0.040	-0.010
2020/01/31 16:41:54.6	358.220	-0.100	0.020	-0.000
2020/01/31 16:41:54.7	358.210	-0.110	0.010	0.010
2020/01/31 16:41:54.8	358.200	-0.110	-0.000	0.010
2020/01/31 16:41:54.9	358.180	-0.120	-0.020	0.020
2020/01/31 16:41:55.0	358.170	-0.120	-0.040	0.030
2020/01/31 16:41:55.1	358.160	-0.120	-0.050	0.030
2020/01/31 16:41:55.2	358.150	-0.120	-0.070	0.040
2020/01/31 16:41:55.3	358.140	-0.120	-0.090	0.040
2020/01/31 16:41:55.4	358.130	-0.110	-0.120	0.040
2020/01/31 16:41:55.5	358.120	-0.100	-0.140	0.040
2020/01/31 16:41:55.6	358.120	-0.090	-0.160	0.030
2020/01/31 16:41:55.7	358.110	-0.080	-0.190	0.030
2020/01/31 16:41:55.8	358.110	-0.070	-0.210	0.020
2020/01/31 16:41:55.9	358.110	-0.060	-0.240	0.010
2020/01/31 16:41:56.0	358.110	-0.040	-0.270	0.000
2020/01/31 16:41:56.1	358.110	-0.030	-0.300	-0.010
2020/01/31 16:41:56.2	358.120	-0.010	-0.330	-0.030
2020/01/31 16:41:56.3	358.120	0.010	-0.350	-0.050
2020/01/31 16:41:56.4	358.130	0.020	-0.380	-0.070
2020/01/31 16:41:56.5	358.140	0.040	-0.420	-0.090
2020/01/31 16:41:56.6	358.150	0.050	-0.450	-0.120
2020/01/31 16:41:56.7	358.160	0.070	-0.480	-0.150
2020/01/31 16:41:56.8	358.170	0.080	-0.510	-0.180
2020/01/31 16:41:56.9	358.190	0.100	-0.540	-0.210
2020/01/31 16:41:57.0	358.210	0.110	-0.570	-0.250
2020/01/31 16:41:57.1	358.230	0.120	-0.600	-0.290
2020/01/31 16:41:57.2	358.250	0.130	-0.630	-0.330
2020/01/31 16:41:57.3	358.280	0.140	-0.650	-0.370
2020/01/31 16:41:57.4	358.300	0.140	-0.680	-0.410
2020/01/31 16:41:57.5	358.330	0.150	-0.700	-0.460
2020/01/31 16:41:57.6	358.360	0.150	-0.730	-0.500
2020/01/31 16:41:57.7	358.400	0.150	-0.750	-0.550
2020/01/31 16:41:57.8	358.430	0.150	-0.760	-0.600
2020/01/31 16:41:57.9	358.460	0.140	-0.780	-0.640
2020/01/31 16:41:58.0	358.490	0.140	-0.790	-0.690
2020/01/31 16:41:58.1	358.530	0.130	-0.800	-0.730
2020/01/31 16:41:58.2	358.560	0.120	-0.810	-0.770
2020/01/31 16:41:58.3	358.590	0.110	-0.810	-0.800
2020/01/31 16:41:58.4	358.620	0.090	-0.810	-0.840
2020/01/31 16:41:58.5	358.650	0.080	-0.810	-0.870
2020/01/31 16:41:58.6	358.680	0.060	-0.800	-0.910
2020/01/31 16:41:58.7	358.710	0.040	-0.790	-0.930
2020/01/31 16:41:58.8	358.740	0.020	-0.780	-0.960
2020/01/31 16:41:58.9	358.770	-0.010	-0.760	-0.990
2020/01/31 16:41:59.0	358.790	-0.030	-0.740	-1.010
2020/01/31 16:41:59.1	358.820	-0.060	-0.720	-1.030
2020/01/31 16:41:59.2	358.840	-0.080	-0.690	-1.040
2020/01/31 16:41:59.3	358.860	-0.110	-0.660	-1.060
2020/01/31 16:41:59.4	358.880	-0.140	-0.630	-1.070
2020/01/31 16:41:59.5	358.900	-0.160	-0.590	-1.080
2020/01/31 16:41:59.6	358.910	-0.190	-0.550	-1.080
2020/01/31 16:41:59.7	358.930	-0.220	-0.510	-1.090
2020/01/31 16:41:59.8	358.940	-0.240	-0.460	-1.090
2020/01/31 16:41:59.9	358.940	-0.270	-0.420	-1.080
2020/01/31 16:42:00.0	358.950	-0.290	-0.370	-1.080
2020/01/31 16:42:00.1	358.950	-0.320	-0.320	-1.070
2020/01/31 16:42:00.2	358.950	-0.340	-0.270	-1.060
2020/01/31 16:42:00.3	358.940	-0.360	-0.210	-1.040
2020/01/31 16:42:00.4	358.940	-0.370	-0.160	-1.030
2020/01/31 16:42:00.5	358.930	-0.390	-0.110	-1.010
2020/01/31 16:42:00.6	358.920	-0.400	-0.050	-0.990
2020/01/31 16:42:00.7	358.910	-0.420	0.000	-0.960
2020/01/31 16:42:00.8	358.890	-0.420	0.050	-0.930
2020/01/31 16:42:00.9	358.880	-0.430	0.100	-0.900
2020/01/31 16:42:01.0	358.860	-0.430	0.150	-0.870
2020/01/31 16:42:01.1	358.840	-0.430	0.190	-0.830
2020/01/31 16:42:01.2	358.830	-0.430	0.230	-0.790
2020/01/31 16:42:01.3	358.810	-0.420	0.270	-0.750
2020/01/31 16:42:01.4	358.790	-0.410	0.310	-0.710
2020/01/31 16:42:01.5	358.780	-0.400	0.340	-0.670
2020/01/31 16:42:01.6	358.760	-0.380	0.360	-0.630
2020/01/31 16:42:01.7	358.750	-0.360	0.380	-0.580
2020/01/31 16:42:01.8	358.730	-0.340	0.400	-0.540
2020/01/31 16:42:01.9	358.720	-0.320	0.410	-0.490
2020/01/31 16:42:02.0	358.710	-0.290	0.410	-0.450
2020/01/31 16:42:02.1	358.700	-0.260	0.410	-0.400
2020/01/31 16:42:02.2	358.700	-0.220	0.400	-0.360
2020/01/31 16:42:02.3	358.690	-0.180	0.390	-0.320
2020/01/31 16:42:02.4	358.690	-0.150	0.370	-0.280
2020/01/31 16:42:02.5	358.690	-0.110	0.350	-0.240
2020/01/31 16:42:02.6	358.680	-0.070	0.330	-0.200
2020/01/31 16:42:02.7	358.690	-0.020	0.300	-0.170
2020/01/31 16:42:02.8	358.690	0.020	0.260	-0.140
2020/01/31 16:42:02.9	358.690	0.060	0.230	-0.110
2020/01/31 16:42:03.0	358.690	0.100	0.190	-0.080
2020/01/31 16:42:03.1	358.700	0.150	0.150	-0.050
2020/01/31 16:42:03.2	358.700	0.190	0.110	-0.020
2020/01/31 16:42:03.3	358.700	0.230	0.060	-0.000
2020/01/31 16:42:03.4	358.700	0.260	0.020	0.020
2020/01/31 16:42:03.5	358.700	0.300	-0.020	0.040
2020/01/31 16:42:03.6	358.710	0.330	-0.060	0.050
2020/01/31 16:42:03.7	358.710	0.360	-0.110	0.070
2020/01/31 16:42:03.8	358.700	0.390	-0.140	0.080
2020/01/31 16:42:03.9	358.700	0.420	-0.180	0.090
2020/01/31 16:42:04.0	358.690	0.440	-0.210	0.100
2020/01/31 16:42:04.1	358.690	0.460	-0.240	0.110
2020/01/31 16:42:04.2	358.680	0.470	-0.260	0.110
2020/01/31 16:42:04.3	358.670	0.480	-0.290	0.120
2020/01/31 16:42:04.4	358.660	0.490	-0.310	0.120
2020/01/31 16:42:04.5	358.650	0.490	-0.320	0.120
2020/01/31 16:42:04.6	358.640	0.480	-0.340	0.120
2020/01/31 16:42:04.7	358.630	0.480	-0.350	0.120
2020/01/31 16:42:04.8	358.620	0.470	-0.360	0.120
2020/01/31 16:42:04.9	358.610	0.450	-0.360	0.110
2020/01/31 16:42:05.0	358.590	0.430	-0.370	0.100
2020/01/31 16:42:05.1	358.580	0.410	-0.380	0.090
2020/01/31 16:42:05.2	358.570	0.390	-0.380	0.080
2020/01/31 16:42:05.3	358.570	0.360	-0.390	0.060
2020/01/31 16:42:05.4	358.560	0.320	-0.390	0.040
2020/01/31 16:42:05.5	358.550	0.290	-0.400	0.010
2020/01/31 16:42:05.6	358.550	0.250	-0.400	-0.020
2020/01/31 16:42:05.7	358.540	0.220	-0.410	-0.050
2020/01/31 16:42:05.8	358.540	0.180	-0.420	-0.080
2020/01/31 16:42:05.9	358.540	0.140	-0.430	-0.130
2020/01/31 16:42:06.0	358.550	0.100	-0.440	-0.170
2020/01/31 16:42:06.1	358.550	0.060	-0.450	-0.220
2020/01/31 16:42:06.2	358.560	0.020	-0.460	-0.270
2020/01/31 16:42:06.3	358.570	-0.020	-0.480	-0.320
2020/01/31 16:42:06.4	358.580	-0.060	-0.490	-0.380
2020/01/31 16:42:06.5	358.600	-0.100	-0.510	-0.440
2020/01/31 16:42:06.6	358.610	-0.130	-0.530	-0.500
2020/01/31 16:42:06.7	358.620	-0.170	-0.540	-0.570
2020/01/31 16:42:06.8	358.640	-0.200	-0.560	-0.640
2020/01/31 16:42:06.9	358.660	-0.220	-0.580	-0.700
2020/01/31 16:42:07.0	358.690	-0.250	-0.610	-0.770
2020/01/31 16:42:07.1	358.710	-0.270	-0.630	-0.840
2020/01/31 16:42:07.2	358.730	-0.280	-0.650	-0.900
2020/01/31 16:42:07.3	358.750	-0.300	-0.670	-0.960
2020/01/31 16:42:07.4	358.780	-0.310	-0.680	-1.030
2020/01/31 16:42:07.5	358.800	-0.310	-0.700	-1.090
2020/01/31 16:42:07.6	358.830	-0.320	-0.710	-1.140
2020/01/31 16:42:07.7	358.860	-0.310	-0.730	-1.200
2020/01/31 16:42:07.8	358.880	-0.310	-0.730	-1.250
2020/01/31 16:42:07.9	358.910	-0.300	-0.740	-1.290
2020/01/31 16:42:08.0	358.930	-0.290	-0.740	-1.330
2020/01/31 16:42:08.1	358.950	-0.270	-0.740	-1.370
2020/01/31 16:42:08.2	358.970	-0.260	-0.730	-1.390
2020/01/31 16:42:08.3	358.980	-0.240	-0.720	-1.420
2020/01/31 16:42:08.4	359.000	-0.210	-0.710	-1.440
2020/01/31 16:42:08.5	359.010	-0.190	-0.690	-1.450
2020/01/31 16:42:08.6	359.030	-0.160	-0.670	-1.460
2020/01/31 16:42:08.7	359.040	-0.130	-0.640	-1.450
2020/01/31 16:42:08.8	359.050	-0.100	-0.610	-1.450
2020/01/31 16:42:08.9	359.060	-0.070	-0.590	-1.440
2020/01/31 16:42:09.0	359.070	-0.040	-0.550	-1.420
2020/01/31 16:42:09.1	359.080	-0.010	-0.520	-1.400
2020/01/31 16:42:09.2	359.090	0.020	-0.480	-1.370
2020/01/31 16:42:09.3	359.090	0.050	-0.440	-1.340
2020/01/31 16:42:09.4	359.100	0.080	-0.410	-1.300
2020/01/31 16:42:09.5	359.110	0.110	-0.370	-1.260
2020/01/31 16:42:09.6	359.120	0.140	-0.330	-1.220
2020/01/31 16:42:09.7	359.120	0.170	-0.290	-1.170
2020/01/31 16:42:09.8	359.120	0.200	-0.260	-1.130
2020/01/31 16:42:09.9	359.130	0.220	-0.220	-1.080
2020/01/31 16:42:10.0	359.140	0.240	-0.190	-1.020
2020/01/31 16:42:10.1	359.140	0.270	-0.150	-0.970
2020/01/31 16:42:10.2	359.140	0.280	-0.120	-0.920
2020/01/31 16:42:10.3	359.150	0.300	-0.090	-0.860
2020/01/31 16:42:10.4	359.150	0.310	-0.060	-0.800
2020/01/31 16:42:10.5	359.150	0.320	-0.040	-0.750
2020/01/31 16:42:10.6	359.150	0.330	-0.010	-0.690
2020/01/31 16:42:10.7	359.150	0.330	0.010	-0.630
2020/01/31 16:42:10.8	359.150	0.340	0.030	-0.570
2020/01/31 16:42:10.9	359.150	0.330	0.050	-0.520
2020/01/31 16:42:11.0	359.140	0.330	0.060	-0.460
2020/01/31 16:42:11.1	359.140	0.320	0.080	-0.410
2020/01/31 16:42:11.2	359.130	0.310	0.090	-0.360
2020/01/31 16:42:11.3	359.120	0.290	0.100	-0.310
2020/01/31 16:42:11.4	359.120	0.270	0.110	-0.270
2020/01/31 16:42:11.5	359.110	0.250	0.120	-0.220
2020/01/31 16:42:11.6	359.100	0.230	0.120	-0.180
2020/01/31 16:42:11.7	359.080	0.200	0.130	-0.140
2020/01/31 16:42:11.8	359.070	0.170	0.130	-0.110
2020/01/31 16:42:11.9	359.060	0.140	0.140	-0.080
2020/01/31 16:42:12.0	359.050	0.110	0.140	-0.050
2020/01/31 16:42:12.1	359.040	0.070	0.140	-0.030
2020/01/31 16:42:12.2	359.030	0.040	0.140	-0.010
2020/01/31 16:42:12.3	359.020	0.000	0.150	0.010
2020/01/31 16:42:12.4	359.010	-0.040	0.150	0.020
2020/01/31 16:42:12.5	359.010	-0.080	0.150	0.040
2020/01/31 16:42:12.6	359.000	-0.120	0.150	0.050
2020/01/31 16:42:12.7	358.990	-0.160	0.150	0.050
2020/01/31 16:42:12.8	358.980	-0.190	0.150	0.060
2020/01/31 16:42:12.9	358.970	-0.230	0.150	0.060
2020/01/31 16:42:13.0	358.970	-0.270	0.150	0.060
2020/01/31 16:42:13.1	358.960	-0.310	0.150	0.050
2020/01/31 16:42:13.2	358.960	-0.340	0.150	0.040
2020/01/31 16:42:13.3	358.950	-0.370	0.140	0.040
2020/01/31 16:42:13.4	358.950	-0.400	0.140	0.030
2020/01/31 16:42:13.5	358.950	-0.430	0.140	0.020
2020/01/31 16:42:13.6	358.940	-0.460	0.130	0.000
2020/01/31 16:42:13.7	358.940	-0.480	0.130	-0.020
2020/01/31 16:42:13.8	358.930	-0.500	0.120	-0.030
2020/01/31 16:42:13.9	358.930	-0.520	0.110	-0.050
2020/01/31 16:42:14.0	358.930	-0.530	0.100	-0.060
2020/01/31 16:42:14.1	358.930	-0.540	0.090	-0.080
2020/01/31 16:42:14.2	358.930	-0.550	0.070	-0.100
2020/01/31 16:42:14.3	358.930	-0.550	0.050	-0.110
2020/01/31 16:42:14.4	358.930	-0.550	0.030	-0.130
2020/01/31 16:42:14.5	358.930	-0.550	0.010	-0.140
2020/01/31 16:42:14.6	358.930	-0.540	-0.020	-0.160
2020/01/31 16:42:14.7	358.930	-0.530	-0.040	-0.170
2020/01/31 16:42:14.8	358.920	-0.520	-0.070	-0.190
2020/01/31 16:42:14.9	358.920	-0.500	-0.110	-0.200
2020/01/31 16:42:15.0	358.920	-0.480	-0.140	-0.210
2020/01/31 16:42:15.1	358.910	-0.460	-0.180	-0.220
2020/01/31 16:42:15.2	358.910	-0.430	-0.220	-0.230
2020/01/31 16:42:15.3	358.900	-0.400	-0.260	-0.240
2020/01/31 16:42:15.4	358.900	-0.370	-0.300	-0.240
2020/01/31 16:42:15.5	358.890	-0.340	-0.340	-0.250
2020/01/31 16:42:15.6	358.880	-0.310	-0.380	-0.250
2020/01/31 16:42:15.7	358.880	-0.270	-0.420	-0.260
2020/01/31 16:42:15.8	358.870	-0.230	-0.470	-0.260
2020/01/31 16:42:15.9	358.860	-0.190	-0.510	-0.260
2020/01/31 16:42:16.0	358.860	-0.150	-0.550	-0.260
2020/01/31 16:42:16.1	358.850	-0.110	-0.590	-0.260
2020/01/31 16:42:16.2	358.840	-0.070	-0.630	-0.260
2020/01/31 16:42:16.3	358.830	-0.030	-0.670	-0.260
2020/01/31 16:42:16.4	358.830	0.020	-0.710	-0.250
2020/01/31 16:42:16.5	358.820	0.060	-0.740	-0.250
2020/01/31 16:42:16.6	358.810	0.100	-0.770	-0.250
2020/01/31 16:42:16.7	358.800	0.140	-0.800	-0.240
2020/01/31 16:42:16.8	358.800	0.180	-0.820	-0.230
2020/01/31 16:42:16.9	358.790	0.220	-0.840	-0.230
2020/01/31 16:42:17.0	358.780	0.260	-0.860	-0.220
2020/01/31 16:42:17.1	358.780	0.290	-0.870	-0.210
2020/01/31 16:42:17.2	358.770	0.330	-0.880	-0.200
2020/01/31 16:42:17.3	358.760	0.370	-0.880	-0.190
2020/01/31 16:42:17.4	358.760	0.400	-0.870	-0.180
2020/01/31 16:42:17.5	358.750	0.430	-0.870	-0.160
2020/01/31 16:42:17.6	358.750	0.460	-0.850	-0.150
2020/01/31 16:42:17.7	358.740	0.490	-0.840	-0.130
2020/01/31 16:42:17.8	358.740	0.510	-0.820	-0.110
2020/01/31 16:42:17.9	358.740	0.540	-0.790	-0.090
2020/01/31 16:42:18.0	358.740	0.560	-0.760	-0.080
2020/01/31 16:42:18.1	358.740	0.580	-0.730	-0.060
2020/01/31 16:42:18.2	358.740	0.600	-0.700	-0.040
2020/01/31 16:42:18.3	358.740	0.620	-0.660	-0.020
2020/01/31 16:42:18.4	358.750	0.630	-0.630	-0.010
2020/01/31 16:42:18.5	358.760	0.640	-0.590	0.010
2020/01/31 16:42:18.6	358.760	0.650	-0.550	0.020
2020/01/31 16:42:18.7	358.770	0.660	-0.510	0.030
2020/01/31 16:42:18.8	358.780	0.660	-0.480	0.040
2020/01/31 16:42:18.9	358.800	0.660	-0.440	0.050
2020/01/31 16:42:19.0	358.810	0.660	-0.410	0.050
2020/01/31 16:42:19.1	358.820	0.660	-0.380	0.060
2020/01/31 16:42:19.2	358.840	0.650	-0.350	0.050
2020/01/31 16:42:19.3	358.850	0.640	-0.320	0.050
2020/01/31 16:42:19.4	358.860	0.620	-0.300	0.040
2020/01/31 16:42:19.5	358.880	0.610	-0.270	0.030
2020/01/31 16:42:19.6	358.890	0.590	-0.250	0.020
2020/01/31 16:42:19.7	358.900	0.560	-0.240	0.000
2020/01/31 16:42:19.8	358.920	0.540	-0.220	-0.020
2020/01/31 16:42:19.9	358.930	0.510	-0.210	-0.050
2020/01/31 16:42:20.0	358.950	0.480	-0.200	-0.070
2020/01/31 16:42:20.1	358.970	0.440	-0.190	-0.110
2020/01/31 16:42:20.2	358.980	0.410	-0.180	-0.140
2020/01/31 16:42:20.3	359.000	0.370	-0.170	-0.180
2020/01/31 16:42:20.4	359.020	0.330	-0.170	-0.220
2020/01/31 16:42:20.5	359.040	0.280	-0.170	-0.270
2020/01/31 16:42:20.6	359.060	0.240	-0.170	-0.310
2020/01/31 16:42:20.7	359.080	0.190	-0.170	-0.370
2020/01/31 16:42:20.8	359.100	0.140	-0.160	-0.410
2020/01/31 16:42:20.9	359.120	0.100	-0.160	-0.460
2020/01/31 16:42:21.0	359.140	0.050	-0.160	-0.510
2020/01/31 16:42:21.1	359.160	-0.000	-0.160	-0.560
2020/01/31 16:42:21.2	359.170	-0.050	-0.150	-0.600
2020/01/31 16:42:21.3	359.190	-0.100	-0.150	-0.640
2020/01/31 16:42:21.4	359.210	-0.140	-0.140	-0.680
2020/01/31 16:42:21.5	359.230	-0.190	-0.140	-0.720
2020/01/31 16:42:21.6	359.240	-0.230	-0.130	-0.750
2020/01/31 16:42:21.7	359.270	-0.270	-0.110	-0.770
2020/01/31 16:42:21.8	359.280	-0.310	-0.100	-0.790
2020/01/31 16:42:21.9	359.290	-0.350	-0.080	-0.800
2020/01/31 16:42:22.0	359.290	-0.390	-0.060	-0.810
2020/01/31 16:42:22.1	359.290	-0.420	-0.040	-0.810
2020/01/31 16:42:22.2	359.290	-0.450	-0.010	-0.810
2020/01/31 16:42:22.3	359.280	-0.480	0.020	-0.800
2020/01/31 16:42:22.4	359.270	-0.500	0.050	-0.780
2020/01/31 16:42:22.5	359.260	-0.520	0.080	-0.760
2020/01/31 16:42:22.6	359.250	-0.540	0.110	-0.740
2020/01/31 16:42:22.7	359.230	-0.550	0.150	-0.700
2020/01/31 16:42:22.8	359.210	-0.560	0.180	-0.670
2020/01/31 16:42:22.9	359.190	-0.570	0.220	-0.630
2020/01/31 16:42:23.0	359.160	-0.570	0.260	-0.590
2020/01/31 16:42:23.1	359.130	-0.570	0.290	-0.550
2020/01/31 16:42:23.2	359.110	-0.570	0.320	-0.510
2020/01/31 16:42:23.3	359.080	-0.560	0.350	-0.470
2020/01/31 16:42:23.4	359.050	-0.560	0.380	-0.430
2020/01/31 16:42:23.5	359.020	-0.540	0.400	-0.380
2020/01/31 16:42:23.6	358.990	-0.530	0.420	-0.340
2020/01/31 16:42:23.7	358.960	-0.510	0.440	-0.300
2020/01/31 16:42:23.8	358.930	-0.490	0.450	-0.260
2020/01/31 16:42:23.9	358.900	-0.470	0.460	-0.220
2020/01/31 16:42:24.0	358.860	-0.440	0.470	-0.180
2020/01/31 16:42:24.1	358.830	-0.410	0.460	-0.140
2020/01/31 16:42:24.2	358.800	-0.380	0.460	-0.110
2020/01/31 16:42:24.3	358.770	-0.350	0.450	-0.070
2020/01/31 16:42:24.4	358.740	-0.320	0.430	-0.030
2020/01/31 16:42:24.5	358.720	-0.290	0.410	0.010
2020/01/31 16:42:24.6	358.690	-0.250	0.380	0.050
2020/01/31 16:42:24.7	358.650	-0.220	0.350	0.080
2020/01/31 16:42:24.8	358.630	-0.190	0.310	0.120
2020/01/31 16:42:24.9	358.600	-0.150	0.270	0.150
2020/01/31 16:42:25.0	358.580	-0.120	0.230	0.180
2020/01/31 16:42:25.1	358.550	-0.080	0.180	0.210
2020/01/31 16:42:25.2	358.530	-0.050	0.130	0.240
2020/01/31 16:42:25.3	358.510	-0.020	0.080	0.270
2020/01/31 16:42:25.4	358.490	0.020	0.020	0.290
2020/01/31 16:42:25.5	358.470	0.050	-0.040	0.310
2020/01/31 16:42:25.6	358.460	0.080	-0.100	0.320
2020/01/31 16:42:25.7	358.440	0.110	-0.160	0.340
2020/01/31 16:42:25.8	358.430	0.130	-0.230	0.340
2020/01/31 16:42:25.9	358.420	0.160	-0.290	0.340
2020/01/31 16:42:26.0	358.420	0.180	-0.350	0.340
2020/01/31 16:42:26.1	358.420	0.210	-0.420	0.330
2020/01/31 16:42:26.2	358.420	0.230	-0.480	0.310
2020/01/31 16:42:26.3	358.420	0.250	-0.550	0.290
2020/01/31 16:42:26.4	358.430	0.270	-0.610	0.270
2020/01/31 16:42:26.5	358.430	0.280	-0.680	0.240
2020/01/31 16:42:26.6	358.440	0.300	-0.740	0.210
2020/01/31 16:42:26.7	358.440	0.310	-0.800	0.170
2020/01/31 16:42:26.8	358.450	0.330	-0.850	0.130
2020/01/31 16:42:26.9	358.460	0.340	-0.910	0.090
2020/01/31 16:42:27.0	358.480	0.350	-0.960	0.050
2020/01/31 16:42:27.1	358.490	0.360	-1.010	0.000
2020/01/31 16:42:27.2	358.510	0.370	-1.050	-0.040
2020/01/31 16:42:27.3	358.530	0.370	-1.090	-0.090
2020/01/31 16:42:27.4	358.550	0.380	-1.120	-0.130
2020/01/31 16:42:27.5	358.560	0.380	-1.150	-0.180
2020/01/31 16:42:27.6	358.580	0.380	-1.170	-0.220
2020/01/31 16:42:27.7	358.600	0.380	-1.190	-0.270
2020/01/31 16:42:27.8	358.620	0.380	-1.200	-0.310
2020/01/31 16:42:27.9	358.640	0.380	-1.200	-0.350
2020/01/31 16:42:28.0	358.660	0.380	-1.200	-0.390
2020/01/31 16:42:28.1	358.680	0.380	-1.190	-0.430
2020/01/31 16:42:28.2	358.700	0.370	-1.170	-0.460
2020/01/31 16:42:28.3	358.720	0.360	-1.150	-0.500
2020/01/31 16:42:28.4	358.740	0.350	-1.120	-0.530
2020/01/31 16:42:28.5	358.750	0.340	-1.080	-0.550
2020/01/31 16:42:28.6	358.770	0.320	-1.040	-0.580
2020/01/31 16:42:28.7	358.780	0.300	-0.990	-0.600
2020/01/31 16:42:28.8	358.790	0.290	-0.940	-0.620
2020/01/31 16:42:28.9	358.800	0.260	-0.880	-0.640
2020/01/31 16:42:29.0	358.810	0.240	-0.830	-0.660
2020/01/31 16:42:29.1	358.830	0.210	-0.760	-0.670
2020/01/31 16:42:29.2	358.840	0.190	-0.700	-0.690
2020/01/31 16:42:29.3	358.850	0.160	-0.640	-0.700
2020/01/31 16:42:29.4	358.860	0.130	-0.570	-0.710
2020/01/31 16:42:29.5	358.870	0.100	-0.510	-0.720
2020/01/31 16:42:29.6	358.880	0.060	-0.440	-0.730
2020/01/31 16:42:29.7	358.890	0.030	-0.380	-0.740
2020/01/31 16:42:29.8	358.900	-0.000	-0.320	-0.750
2020/01/31 16:42:29.9	358.920	-0.040	-0.260	-0.760
2020/01/31 16:42:30.0	358.930	-0.070	-0.200	-0.760
2020/01/31 16:42:30.1	358.940	-0.100	-0.150	-0.760
2020/01/31 16:42:30.2	358.950	-0.130	-0.100	-0.760
2020/01/31 16:42:30.3	358.960	-0.160	-0.050	-0.760
2020/01/31 16:42:30.4	358.980	-0.190	-0.010	-0.760
2020/01/31 16:42:30.5	358.990	-0.220	0.030	-0.750
2020/01/31 16:42:30.6	359.000	-0.250	0.070	-0.740
2020/01/31 16:42:30.7	359.010	-0.270	0.110	-0.730
2020/01/31 16:42:30.8	359.020	-0.300	0.140	-0.710
2020/01/31 16:42:30.9	359.030	-0.320	0.170	-0.690
2020/01/31 16:42:31.0	359.030	-0.330	0.190	-0.680
2020/01/31 16:42:31.1	359.040	-0.350	0.210	-0.660
2020/01/31 16:42:31.2	359.050	-0.360	0.230	-0.630
2020/01/31 16:42:31.3	359.060	-0.380	0.250	-0.610
2020/01/31 16:42:31.4	359.060	-0.380	0.270	-0.590
2020/01/31 16:42:31.5	359.070	-0.390	0.280	-0.560
2020/01/31 16:42:31.6	359.070	-0.390	0.290	-0.540
2020/01/31 16:42:31.7	359.080	-0.400	0.290	-0.510
2020/01/31 16:42:31.8	359.090	-0.400	0.300	-0.480
2020/01/31 16:42:31.9	359.090	-0.390	0.300	-0.460
2020/01/31 16:42:32.0	359.100	-0.390	0.300	-0.430
2020/01/31 16:42:32.1	359.100	-0.380	0.300	-0.410
2020/01/31 16:42:32.2	359.110	-0.370	0.290	-0.380
2020/01/31 16:42:32.3	359.110	-0.360	0.280	-0.350
2020/01/31 16:42:32.4	359.110	-0.340	0.270	-0.330
2020/01/31 16:42:32.5	359.120	-0.330	0.260	-0.300
2020/01/31 16:42:32.6	359.120	-0.310	0.250	-0.270
2020/01/31 16:42:32.7	359.130	-0.290	0.230	-0.240
2020/01/31 16:42:32.8	359.130	-0.270	0.220	-0.220
2020/01/31 16:42:32.9	359.130	-0.250	0.200	-0.190
2020/01/31 16:42:33.0	359.120	-0.230	0.180	-0.160
2020/01/31 16:42:33.1	359.120	-0.200	0.160	-0.130
2020/01/31 16:42:33.2	359.110	-0.180	0.130	-0.110
2020/01/31 16:42:33.3	359.090	-0.150	0.110	-0.080
2020/01/31 16:42:33.4	359.080	-0.130	0.090	-0.050
2020/01/31 16:42:33.5	359.070	-0.100	0.070	-0.030
2020/01/31 16:42:33.6	359.050	-0.080	0.040	-0.000
2020/01/31 16:42:33.7	359.030	-0.050	0.020	0.020
2020/01/31 16:42:33.8	359.010	-0.030	-0.010	0.040
2020/01/31 16:42:33.9	358.980	0.000	-0.030	0.060
2020/01/31 16:42:34.0	358.960	0.030	-0.050	0.080
2020/01/31 16:42:34.1	358.940	0.050	-0.070	0.100
2020/01/31 16:42:34.2	358.910	0.070	-0.090	0.120
2020/01/31 16:42:34.3	358.880	0.100	-0.120	0.140
2020/01/31 16:42:34.4	358.860	0.120	-0.140	0.150
2020/01/31 16:42:34.5	358.830	0.140	-0.150	0.170
2020/01/31 16:42:34.6	358.790	0.160	-0.170	0.190
2020/01/31 16:42:34.7	358.770	0.180	-0.190	0.200
2020/01/31 16:42:34.8	358.740	0.200	-0.200	0.220
2020/01/31 16:42:34.9	358.710	0.220	-0.220	0.230
2020/01/31 16:42:35.0	358.670	0.230	-0.230	0.240
2020/01/31 16:42:35.1	358.640	0.250	-0.250	0.250
2020/01/31 16:42:35.2	358.610	0.260	-0.260	0.260
2020/01/31 16:42:35.3	358.580	0.270	-0.280	0.260
2020/01/31 16:42:35.4	358.550	0.280	-0.290	0.260
2020/01/31 16:42:35.5	358.520	0.290	-0.300	0.260
2020/01/31 16:42:35.6	358.490	0.290	-0.320	0.250
2020/01/31 16:42:35.7	358.460	0.300	-0.330	0.240
2020/01/31 16:42:35.8	358.430	0.300	-0.340	0.220
2020/01/31 16:42:35.9	358.410	0.300	-0.360	0.200
2020/01/31 16:42:36.0	358.390	0.300	-0.370	0.180
2020/01/31 16:42:36.1	358.370	0.300	-0.390	0.150
2020/01/31 16:42:36.2	358.360	0.290	-0.400	0.120
2020/01/31 16:42:36.3	358.350	0.280	-0.410	0.080
2020/01/31 16:42:36.4	358.340	0.280	-0.430	0.040
2020/01/31 16:42:36.5	358.330	0.270	-0.440	0.000
2020/01/31 16:42:36.6	358.330	0.260	-0.460	-0.040
2020/01/31 16:42:36.7	358.320	0.250	-0.470	-0.090
2020/01/31 16:42:36.8	358.320	0.230	-0.480	-0.140
2020/01/31 16:42:36.9	358.320	0.220	-0.490	-0.190
2020/01/31 16:42:37.0	358.330	0.200	-0.500	-0.240
2020/01/31 16:42:37.1	358.340	0.190	-0.510	-0.290
2020/01/31 16:42:37.2	358.350	0.170	-0.520	-0.330
2020/01/31 16:42:37.3	358.360	0.160	-0.530	-0.380
2020/01/31 16:42:37.4	358.370	0.140	-0.530	-0.420
2020/01/31 16:42:37.5	358.390	0.120	-0.540	-0.460
2020/01/31 16:42:37.6	358.400	0.100	-0.540	-0.500
2020/01/31 16:42:37.7	358.410	0.090	-0.540	-0.540
2020/01/31 16:42:37.8	358.430	0.070	-0.530	-0.580
2020/01/31 16:42:37.9	358.450	0.050	-0.530	-0.610
2020/01/31 16:42:38.0	358.460	0.030	-0.520	-0.630
2020/01/31 16:42:38.1	358.480	0.010	-0.510	-0.660
2020/01/31 16:42:38.2	358.500	-0.010	-0.490	-0.680
2020/01/31 16:42:38.3	358.520	-0.020	-0.480	-0.700
2020/01/31 16:42:38.4	358.530	-0.040	-0.460	-0.720
2020/01/31 16:42:38.5	358.550	-0.060	-0.440	-0.730
2020/01/31 16:42:38.6	358.560	-0.080	-0.420	-0.750
2020/01/31 16:42:38.7	358.590	-0.100	-0.400	-0.750
2020/01/31 16:42:38.8	358.600	-0.110	-0.370	-0.760
2020/01/31 16:42:38.9	358.610	-0.130	-0.340	-0.760
2020/01/31 16:42:39.0	358.620	-0.150	-0.320	-0.760
2020/01/31 16:42:39.1	358.630	-0.160	-0.290	-0.750
2020/01/31 16:42:39.2	358.630	-0.170	-0.260	-0.740
2020/01/31 16:42:39.3	358.640	-0.190	-0.240	-0.730
2020/01/31 16:42:39.4	358.640	-0.200	-0.210	-0.720
2020/01/31 16:42:39.5	358.640	-0.210	-0.180	-0.700
2020/01/31 16:42:39.6	358.640	-0.220	-0.150	-0.680
2020/01/31 16:42:39.7	358.650	-0.220	-0.130	-0.660
2020/01/31 16:42:39.8	358.650	-0.230	-0.110	-0.640
2020/01/31 16:42:39.9	358.640	-0.230	-0.090	-0.620
2020/01/31 16:42:40.0	358.630	-0.240	-0.070	-0.590
2020/01/31 16:42:40.1	358.620	-0.240	-0.060	-0.570
2020/01/31 16:42:40.2	358.610	-0.240	-0.050	-0.540
2020/01/31 16:42:40.3	358.600	-0.230	-0.040	-0.520
2020/01/31 16:42:40.4	358.590	-0.230	-0.040	-0.490
2020/01/31 16:42:40.5	358.580	-0.220	-0.040	-0.470
2020/01/31 16:42:40.6	358.570	-0.220	-0.040	-0.450
2020/01/31 16:42:40.7	358.560	-0.200	-0.050	-0.430
2020/01/31 16:42:40.8	358.550	-0.190	-0.060	-0.410
2020/01/31 16:42:40.9	358.540	-0.180	-0.080	-0.400
2020/01/31 16:42:41.0	358.530	-0.160	-0.100	-0.390
2020/01/31 16:42:41.1	358.530	-0.140	-0.130	-0.380
2020/01/31 16:42:41.2	358.530	-0.120	-0.160	-0.370
2020/01/31 16:42:41.3	358.520	-0.100	-0.190	-0.370
2020/01/31 16:42:41.4	358.520	-0.080	-0.220	-0.370
2020/01/31 16:42:41.5	358.520	-0.050	-0.260	-0.360
2020/01/31 16:42:41.6	358.530	-0.020	-0.300	-0.360
2020/01/31 16:42:41.7	358.520	0.000	-0.340	-0.360
2020/01/31 16:42:41.8	358.530	0.030	-0.380	-0.360
2020/01/31 16:42:41.9	358.530	0.060	-0.410	-0.360
2020/01/31 16:42:42.0	358.530	0.090	-0.450	-0.350
2020/01/31 16:42:42.1	358.540	0.120	-0.490	-0.350
2020/01/31 16:42:42.2	358.540	0.150	-0.520	-0.350
2020/01/31 16:42:42.3	358.550	0.180	-0.560	-0.340
2020/01/31 16:42:42.4	358.550	0.210	-0.590	-0.340
2020/01/31 16:42:42.5	358.560	0.230	-0.610	-0.340
2020/01/31 16:42:42.6	358.560	0.260	-0.630	-0.330
2020/01/31 16:42:42.7	358.570	0.280	-0.650	-0.330
2020/01/31 16:42:42.8	358.570	0.310	-0.670	-0.320
2020/01/31 16:42:42.9	358.580	0.320	-0.670	-0.320
2020/01/31 16:42:43.0	358.580	0.340	-0.680	-0.320
2020/01/31 16:42:43.1	358.590	0.360	-0.680	-0.310
2020/01/31 16:42:43.2	358.590	0.370	-0.670	-0.310
2020/01/31 16:42:43.3	358.600	0.380	-0.660	-0.300
2020/01/31 16:42:43.4	358.600	0.380	-0.640	-0.300
2020/01/31 16:42:43.5	358.600	0.380	-0.620	-0.290
2020/01/31 16:42:43.6	358.610	0.380	-0.590	-0.280
2020/01/31 16:42:43.7	358.600	0.380	-0.560	-0.270
2020/01/31 16:42:43.8	358.600	0.370	-0.530	-0.270
2020/01/31 16:42:43.9	358.600	0.360	-0.490	-0.260
2020/01/31 16:42:44.0	358.610	0.350	-0.450	-0.250
2020/01/31 16:42:44.1	358.610	0.330	-0.400	-0.240
2020/01/31 16:42:44.2	358.610	0.310	-0.360	-0.230
2020/01/31 16:42:44.3	358.610	0.290	-0.310	-0.220
2020/01/31 16:42:44.4	358.610	0.260	-0.260	-0.210
2020/01/31 16:42:44.5	358.610	0.230	-0.200	-0.200
2020/01/31 16:42:44.6	358.610	0.200	-0.150	-0.190
2020/01/31 16:42:44.7	358.600	0.160	-0.090	-0.180
2020/01/31 16:42:44.8	358.600	0.120	-0.040	-0.180
2020/01/31 16:42:44.9	358.600	0.090	0.020	-0.170
2020/01/31 16:42:45.0	358.590	0.040	0.070	-0.160
2020/01/31 16:42:45.1	358.590	0.000	0.120	-0.160
2020/01/31 16:42:45.2	358.580	-0.040	0.170	-0.160
2020/01/31 16:42:45.3	358.580	-0.080	0.210	-0.150
2020/01/31 16:42:45.4	358.570	-0.130	0.250	-0.150
2020/01/31 16:42:45.5	358.560	-0.170	0.290	-0.150
2020/01/31 16:42:45.6	358.550	-0.220	0.330	-0.150
2020/01/31 16:42:45.7	358.530	-0.260	0.360	-0.150
2020/01/31 16:42:45.8	358.520	-0.300	0.390	-0.150
2020/01/31 16:42:45.9	358.500	-0.340	0.410	-0.160
2020/01/31 16:42:46.0	358.480	-0.380	0.430	-0.160
2020/01/31 16:42:46.1	358.470	-0.410	0.440	-0.160
2020/01/31 16:42:46.2	358.450	-0.440	0.450	-0.160
2020/01/31 16:42:46.3	358.430	-0.470	0.460	-0.170
2020/01/31 16:42:46.4	358.410	-0.500	0.460	-0.170
2020/01/31 16:42:46.5	358.380	-0.520	0.450	-0.170
2020/01/31 16:42:46.6	358.360	-0.530	0.440	-0.170
2020/01/31 16:42:46.7	358.350	-0.550	0.420	-0.180
2020/01/31 16:42:46.8	358.330	-0.560	0.400	-0.180
2020/01/31 16:42:46.9	358.310	-0.560	0.380	-0.180
2020/01/31 16:42:47.0	358.290	-0.560	0.340	-0.190
2020/01/31 16:42:47.1	358.280	-0.560	0.310	-0.190
2020/01/31 16:42:47.2	358.260	-0.550	0.270	-0.200
2020/01/31 16:42:47.3	358.250	-0.540	0.220	-0.200
2020/01/31 16:42:47.4	358.240	-0.520	0.170	-0.210
2020/01/31 16:42:47.5	358.230	-0.500	0.110	-0.220
2020/01/31 16:42:47.6	358.220	-0.470	0.050	-0.230
2020/01/31 16:42:47.7	358.220	-0.440	-0.010	-0.250
2020/01/31 16:42:47.8	358.210	-0.410	-0.070	-0.260
2020/01/31 16:42:47.9	358.210	-0.380	-0.130	-0.270
2020/01/31 16:42:48.0	358.200	-0.340	-0.200	-0.290
2020/01/31 16:42:48.1	358.200	-0.300	-0.270	-0.300
2020/01/31 16:42:48.2	358.190	-0.260	-0.330	-0.310
2020/01/31 16:42:48.3	358.190	-0.220	-0.400	-0.330
2020/01/31 16:42:48.4	358.180	-0.180	-0.460	-0.340
2020/01/31 16:42:48.5	358.170	-0.140	-0.520	-0.360
2020/01/31 16:42:48.6	358.160	-0.100	-0.580	-0.370
2020/01/31 16:42:48.7	358.160	-0.060	-0.640	-0.390
2020/01/31 16:42:48.8	358.150	-0.030	-0.690	-0.400
2020/01/31 16:42:48.9	358.140	0.010	-0.730	-0.420
2020/01/31 16:42:49.0	358.130	0.050	-0.780	-0.430
2020/01/31 16:42:49.1	358.110	0.080	-0.810	-0.450
2020/01/31 16:42:49.2	358.100	0.110	-0.840	-0.460
2020/01/31 16:42:49.3	358.090	0.140	-0.870	-0.480
2020/01/31 16:42:49.4	358.080	0.160	-0.880	-0.490
2020/01/31 16:42:49.5	358.070	0.180	-0.900	-0.510
2020/01/31 16:42:49.6	358.060	0.200	-0.900	-0.520
2020/01/31 16:42:49.7	358.040	0.210	-0.910	-0.540
2020/01/31 16:42:49.8	358.030	0.230	-0.900	-0.560
2020/01/31 16:42:49.9	358.030	0.230	-0.890	-0.580
2020/01/31 16:42:50.0	358.020	0.240	-0.880	-0.590
2020/01/31 16:42:50.1	358.020	0.240	-0.860	-0.610
2020/01/31 16:42:50.2	358.020	0.240	-0.840	-0.620
2020/01/31 16:42:50.3	358.020	0.230	-0.820	-0.640
2020/01/31 16:42:50.4	358.030	0.230	-0.790	-0.650
2020/01/31 16:42:50.5	358.040	0.220	-0.760	-0.670
2020/01/31 16:42:50.6	358.050	0.210	-0.720	-0.690
2020/01/31 16:42:50.7	358.050	0.200	-0.690	-0.700
2020/01/31 16:42:50.8	358.060	0.180	-0.650	-0.710
2020/01/31 16:42:50.9	358.080	0.170	-0.610	-0.730
2020/01/31 16:42:51.0	358.100	0.150	-0.580	-0.740
2020/01/31 16:42:51.1	358.120	0.140	-0.540	-0.760
2020/01/31 16:42:51.2	358.140	0.120	-0.500	-0.770
2020/01/31 16:42:51.3	358.160	0.110	-0.460	-0.780
2020/01/31 16:42:51.4	358.190	0.100	-0.430	-0.790
2020/01/31 16:42:51.5	358.210	0.090	-0.390	-0.800
2020/01/31 16:42:51.6	358.240	0.080	-0.360	-0.800
2020/01/31 16:42:51.7	358.270	0.070	-0.330	-0.810
2020/01/31 16:42:51.8	358.300	0.060	-0.290	-0.810
2020/01/31 16:42:51.9	358.330	0.060	-0.260	-0.810
2020/01/31 16:42:52.0	358.350	0.050	-0.230	-0.800
2020/01/31 16:42:52.1	358.370	0.050	-0.200	-0.790
2020/01/31 16:42:52.2	358.400	0.050	-0.180	-0.780
2020/01/31 16:42:52.3	358.420	0.060	-0.150	-0.760
2020/01/31 16:42:52.4	358.440	0.060	-0.130	-0.740
2020/01/31 16:42:52.5	358.460	0.070	-0.100	-0.720
2020/01/31 16:42:52.6	358.470	0.080	-0.080	-0.690
2020/01/31 16:42:52.7	358.500	0.090	-0.060	-0.650
2020/01/31 16:42:52.8	358.510	0.100	-0.030	-0.620
2020/01/31 16:42:52.9	358.520	0.120	-0.010	-0.580
2020/01/31 16:42:53.0	358.520	0.130	0.010	-0.530
2020/01/31 16:42:53.1	358.530	0.140	0.020	-0.480
2020/01/31 16:42:53.2	358.530	0.160	0.040	-0.430
2020/01/31 16:42:53.3	358.530	0.170	0.050	-0.380
2020/01/31 16:42:53.4	358.520	0.190	0.070	-0.330
2020/01/31 16:42:53.5	358.520	0.200	0.080	-0.270
2020/01/31 16:42:53.6	358.510	0.220	0.090	-0.220
2020/01/31 16:42:53.7	358.490	0.230	0.100	-0.160
2020/01/31 16:42:53.8	358.480	0.240	0.110	-0.100
2020/01/31 16:42:53.9	358.460	0.250	0.120	-0.040
2020/01/31 16:42:54.0	358.440	0.260	0.120	0.010
2020/01/31 16:42:54.1	358.420	0.260	0.130	0.070
2020/01/31 16:42:54.2	358.400	0.270	0.130	0.120
2020/01/31 16:42:54.3	358.370	0.270	0.140	0.180
2020/01/31 16:42:54.4	358.340	0.270	0.140	0.230
2020/01/31 16:42:54.5	358.310	0.260	0.140	0.280
2020/01/31 16:42:54.6	358.280	0.260	0.140	0.330
2020/01/31 16:42:54.7	358.260	0.250	0.140	0.370
2020/01/31 16:42:54.8	358.230	0.250	0.130	0.410
2020/01/31 16:42:54.9	358.190	0.240	0.130	0.450
2020/01/31 16:42:55.0	358.150	0.220	0.120	0.480
2020/01/31 16:42:55.1	358.120	0.210	0.110	0.510
2020/01/31 16:42:55.2	358.080	0.200	0.100	0.540
2020/01/31 16:42:55.3	358.040	0.180	0.090	0.560
2020/01/31 16:42:55.4	358.000	0.160	0.070	0.570
2020/01/31 16:42:55.5	357.960	0.140	0.050	0.590
2020/01/31 16:42:55.6	357.920	0.120	0.040	0.590
2020/01/31 16:42:55.7	357.890	0.100	0.010	0.600
2020/01/31 16:42:55.8	357.850	0.080	-0.010	0.590
2020/01/31 16:42:55.9	357.810	0.060	-0.040	0.590
2020/01/31 16:42:56.0	357.780	0.040	-0.070	0.570
2020/01/31 16:42:56.1	357.750	0.020	-0.100	0.560
2020/01/31 16:42:56.2	357.720	0.000	-0.130	0.540
2020/01/31 16:42:56.3	357.700	-0.020	-0.160	0.510
2020/01/31 16:42:56.4	357.670	-0.030	-0.200	0.490
2020/01/31 16:42:56.5	357.650	-0.050	-0.240	0.450
2020/01/31 16:42:56.6	357.630	-0.070	-0.280	0.420
2020/01/31 16:42:56.7	357.600	-0.090	-0.320	0.370
2020/01/31 16:42:56.8	357.590	-0.100	-0.360	0.330
2020/01/31 16:42:56.9	357.580	-0.110	-0.400	0.280
2020/01/31 16:42:57.0	357.580	-0.130	-0.440	0.230
2020/01/31 16:42:57.1	357.580	-0.140	-0.480	0.170
2020/01/31 16:42:57.2	357.590	-0.150	-0.530	0.110
2020/01/31 16:42:57.3	357.590	-0.160	-0.570	0.050
2020/01/31 16:42:57.4	357.610	-0.160	-0.610	-0.020
2020/01/31 16:42:57.5	357.620	-0.170	-0.650	-0.090
2020/01/31 16:42:57.6	357.640	-0.180	-0.680	-0.160
2020/01/31 16:42:57.7	357.670	-0.180	-0.720	-0.230
2020/01/31 16:42:57.8	357.700	-0.180	-0.750	-0.310
2020/01/31 16:42:57.9	357.720	-0.190	-0.770	-0.380
2020/01/31 16:42:58.0	357.750	-0.190	-0.800	-0.450
2020/01/31 16:42:58.1	357.780	-0.190	-0.820	-0.520
2020/01/31 16:42:58.2	357.810	-0.190	-0.830	-0.580
2020/01/31 16:42:58.3	357.840	-0.190	-0.830	-0.650
2020/01/31 16:42:58.4	357.870	-0.200	-0.840	-0.710
2020/01/31 16:42:58.5	357.900	-0.200	-0.830	-0.760
2020/01/31 16:42:58.6	357.920	-0.200	-0.820	-0.810
2020/01/31 16:42:58.7	357.950	-0.200	-0.800	-0.860
2020/01/31 16:42:58.8	357.970	-0.210	-0.780	-0.900
2020/01/31 16:42:58.9	357.990	-0.210	-0.740	-0.930
2020/01/31 16:42:59.0	358.010	-0.210	-0.710	-0.960
2020/01/31 16:42:59.1	358.020	-0.220	-0.660	-0.980
2020/01/31 16:42:59.2	358.030	-0.220	-0.610	-0.990
2020/01/31 16:42:59.3	358.040	-0.230	-0.560	-0.990
2020/01/31 16:42:59.4	358.050	-0.240	-0.500	-0.990
2020/01/31 16:42:59.5	358.050	-0.250	-0.430	-0.990
2020/01/31 16:42:59.6	358.050	-0.250	-0.370	-0.980
2020/01/31 16:42:59.7	358.060	-0.260	-0.310	-0.960
2020/01/31 16:42:59.8	358.060	-0.270	-0.240	-0.950
2020/01/31 16:42:59.9	358.060	-0.280	-0.170	-0.920
2020/01/31 16:43:00.0	358.060	-0.280	-0.110	-0.900
2020/01/31 16:43:00.1	358.050	-0.290	-0.050	-0.870
2020/01/31 16:43:00.2	358.050	-0.300	0.010	-0.840
2020/01/31 16:43:00.3	358.050	-0.300	0.070	-0.810
2020/01/31 16:43:00.4	358.040	-0.300	0.120	-0.780
2020/01/31 16:43:00.5	358.040	-0.300	0.160	-0.750
2020/01/31 16:43:00.6	358.040	-0.300	0.200	-0.720
2020/01/31 16:43:00.7	358.040	-0.300	0.230	-0.690
2020/01/31 16:43:00.8	358.040	-0.290	0.250	-0.660
2020/01/31 16:43:00.9	358.050	-0.280	0.270	-0.630
2020/01/31 16:43:01.0	358.060	-0.270	0.280	-0.600
2020/01/31 16:43:01.1	358.060	-0.260	0.280	-0.570
2020/01/31 16:43:01.2	358.070	-0.240	0.270	-0.550
2020/01/31 16:43:01.3	358.080	-0.220	0.250	-0.520
2020/01/31 16:43:01.4	358.100	-0.190	0.240	-0.500
2020/01/31 16:43:01.5	358.110	-0.170	0.210	-0.470
2020/01/31 16:43:01.6	358.120	-0.140	0.180	-0.450
2020/01/31 16:43:01.7	358.130	-0.110	0.140	-0.420
2020/01/31 16:43:01.8	358.140	-0.070	0.110	-0.390
2020/01/31 16:43:01.9	358.150	-0.040	0.070	-0.360
2020/01/31 16:43:02.0	358.160	-0.000	0.030	-0.330
2020/01/31 16:43:02.1	358.170	0.040	-0.020	-0.300
2020/01/31 16:43:02.2	358.170	0.080	-0.060	-0.270
2020/01/31 16:43:02.3	358.170	0.120	-0.100	-0.230
2020/01/31 16:43:02.4	358.170	0.150	-0.140	-0.190
2020/01/31 16:43:02.5	358.170	0.190	-0.180	-0.160
2020/01/31 16:43:02.6	358.160	0.230	-0.220	-0.120
2020/01/31 16:43:02.7	358.150	0.270	-0.250	-0.080
2020/01/31 16:43:02.8	358.140	0.300	-0.280	-0.040
2020/01/31 16:43:02.9	358.130	0.340	-0.320	0.000
2020/01/31 16:43:03.0	358.110	0.370	-0.340	0.040
2020/01/31 16:43:03.1	358.100	0.400	-0.370	0.070
2020/01/31 16:43:03.2	358.080	0.420	-0.390	0.110
2020/01/31 16:43:03.3	358.050	0.440	-0.410	0.140
2020/01/31 16:43:03.4	358.030	0.460	-0.430	0.170
2020/01/31 16:43:03.5	358.000	0.480	-0.440	0.200
2020/01/31 16:43:03.6	357.970	0.490	-0.450	0.230
2020/01/31 16:43:03.7	357.910	0.490	-0.460	0.260
2020/01/31 16:43:03.8	357.880	0.490	-0.460	0.270
2020/01/31 16:43:03.9	357.840	0.490	-0.460	0.290
2020/01/31 16:43:04.0	357.800	0.480	-0.460	0.300
2020/01/31 16:43:04.1	357.760	0.470	-0.460	0.300
2020/01/31 16:43:04.2	357.720	0.460	-0.450	0.300
2020/01/31 16:43:04.3	357.670	0.440	-0.450	0.300
2020/01/31 16:43:04.4	357.630	0.420	-0.440	0.290
2020/01/31 16:43:04.5	357.590	0.390	-0.430	0.270
2020/01/31 16:43:04.6	357.540	0.370	-0.410	0.250
2020/01/31 16:43:04.7	357.500	0.340	-0.400	0.220
2020/01/31 16:43:04.8	357.460	0.300	-0.380	0.200
2020/01/31 16:43:04.9	357.420	0.270	-0.370	0.160
2020/01/31 16:43:05.0	357.380	0.230	-0.350	0.130
2020/01/31 16:43:05.1	357.340	0.200	-0.340	0.090
2020/01/31 16:43:05.2	357.300	0.160	-0.320	0.060
2020/01/31 16:43:05.3	357.270	0.120	-0.310	0.010
2020/01/31 16:43:05.4	357.240	0.090	-0.290	-0.030
2020/01/31 16:43:05.5	357.210	0.050	-0.280	-0.080
2020/01/31 16:43:05.6	357.180	0.020	-0.270	-0.120
2020/01/31 16:43:05.7	357.160	-0.010	-0.260	-0.180
2020/01/31 16:43:05.8	357.140	-0.040	-0.250	-0.230
2020/01/31 16:43:05.9	357.120	-0.070	-0.250	-0.280
2020/01/31 16:43:06.0	357.110	-0.090	-0.240	-0.330
2020/01/31 16:43:06.1	357.110	-0.120	-0.240	-0.390
2020/01/31 16:43:06.2	357.100	-0.130	-0.250	-0.450
2020/01/31 16:43:06.3	357.100	-0.150	-0.250	-0.500
2020/01/31 16:43:06.4	357.110	-0.160	-0.260	-0.560
2020/01/31 16:43:06.5	357.110	-0.170	-0.270	-0.620
2020/01/31 16:43:06.6	357.130	-0.170	-0.280	-0.680
2020/01/31 16:43:06.7	357.130	-0.170	-0.290	-0.740
2020/01/31 16:43:06.8	357.140	-0.170	-0.310	-0.790
2020/01/31 16:43:06.9	357.160	-0.170	-0.320	-0.850
2020/01/31 16:43:07.0	357.190	-0.170	-0.340	-0.900
2020/01/31 16:43:07.1	357.210	-0.160	-0.350	-0.950
2020/01/31 16:43:07.2	357.230	-0.150	-0.370	-1.000
2020/01/31 16:43:07.3	357.260	-0.140	-0.380	-1.050
2020/01/31 16:43:07.4	357.280	-0.130	-0.400	-1.090
2020/01/31 16:43:07.5	357.310	-0.120	-0.410	-1.130
2020/01/31 16:43:07.6	357.340	-0.110	-0.420	-1.170
2020/01/31 16:43:07.7	357.360	-0.100	-0.430	-1.200
2020/01/31 16:43:07.8	357.390	-0.090	-0.440	-1.230
2020/01/31 16:43:07.9	357.410	-0.080	-0.440	-1.250
2020/01/31 16:43:08.0	357.430	-0.070	-0.440	-1.270
2020/01/31 16:43:08.1	357.460	-0.060	-0.430	-1.280
2020/01/31 16:43:08.2	357.480	-0.050	-0.430	-1.280
2020/01/31 16:43:08.3	357.500	-0.040	-0.420	-1.290
2020/01/31 16:43:08.4	357.520	-0.040	-0.410	-1.280
2020/01/31 16:43:08.5	357.540	-0.030	-0.390	-1.270
2020/01/31 16:43:08.6	357.560	-0.030	-0.370	-1.260
2020/01/31 16:43:08.7	357.560	-0.030	-0.360	-1.240
2020/01/31 16:43:08.8	357.580	-0.030	-0.330	-1.220
2020/01/31 16:43:08.9	357.590	-0.040	-0.310	-1.190
2020/01/31 16:43:09.0	357.600	-0.040	-0.280	-1.160
2020/01/31 16:43:09.1	357.620	-0.050	-0.250	-1.130
2020/01/31 16:43:09.2	357.630	-0.060	-0.220	-1.100
2020/01/31 16:43:09.3	357.630	-0.070	-0.190	-1.060
2020/01/31 16:43:09.4	357.640	-0.080	-0.160	-1.020
2020/01/31 16:43:09.5	357.650	-0.090	-0.120	-0.980
2020/01/31 16:43:09.6	357.650	-0.100	-0.090	-0.940
2020/01/31 16:43:09.7	357.660	-0.120	-0.060	-0.900
2020/01/31 16:43:09.8	357.670	-0.130	-0.020	-0.860
2020/01/31 16:43:09.9	357.670	-0.150	0.010	-0.810
2020/01/31 16:43:10.0	357.660	-0.160	0.030	-0.770
2020/01/31 16:43:10.1	357.660	-0.180	0.060	-0.720
2020/01/31 16:43:10.2	357.660	-0.190	0.090	-0.670
2020/01/31 16:43:10.3	357.650	-0.210	0.110	-0.630
2020/01/31 16:43:10.4	357.640	-0.220	0.130	-0.580
2020/01/31 16:43:10.5	357.630	-0.230	0.150	-0.540
2020/01/31 16:43:10.6	357.630	-0.240	0.160	-0.490
2020/01/31 16:43:10.7	357.610	-0.260	0.160	-0.440
2020/01/31 16:43:10.8	357.600	-0.270	0.170	-0.400
2020/01/31 16:43:10.9	357.580	-0.270	0.170	-0.360
2020/01/31 16:43:11.0	357.570	-0.280	0.170	-0.310
2020/01/31 16:43:11.1	357.560	-0.280	0.170	-0.270
2020/01/31 16:43:11.2	357.540	-0.290	0.160	-0.220
2020/01/31 16:43:11.3	357.530	-0.290	0.140	-0.180
2020/01/31 16:43:11.4	357.510	-0.290	0.130	-0.140
2020/01/31 16:43:11.5	357.490	-0.280	0.110	-0.090
2020/01/31 16:43:11.6	357.480	-0.280	0.080	-0.050
2020/01/31 16:43:11.7	357.460	-0.270	0.060	-0.010
2020/01/31 16:43:11.8	357.440	-0.260	0.030	0.030
2020/01/31 16:43:11.9	357.420	-0.250	-0.000	0.070
2020/01/31 16:43:12.0	357.400	-0.240	-0.040	0.110
2020/01/31 16:43:12.1	357.380	-0.230	-0.070	0.150
2020/01/31 16:43:12.2	357.360	-0.210	-0.110	0.180
2020/01/31 16:43:12.3	357.340	-0.190	-0.150	0.220
2020/01/31 16:43:12.4	357.320	-0.180	-0.190	0.250
2020/01/31 16:43:12.5	357.300	-0.160	-0.230	0.280
2020/01/31 16:43:12.6	357.280	-0.140	-0.270	0.310
2020/01/31 16:43:12.7	357.270	-0.110	-0.310	0.330
2020/01/31 16:43:12.8	357.250	-0.090	-0.350	0.350
2020/01/31 16:43:12.9	357.240	-0.070	-0.390	0.370
2020/01/31 16:43:13.0	357.230	-0.050	-0.430	0.380
2020/01/31 16:43:13.1	357.220	-0.020	-0.470	0.390
2020/01/31 16:43:13.2	357.210	0.000	-0.500	0.390
2020/01/31 16:43:13.3	357.210	0.030	-0.540	0.390
2020/01/31 16:43:13.4	357.200	0.050	-0.570	0.380
2020/01/31 16:43:13.5	357.200	0.080	-0.610	0.370
2020/01/31 16:43:13.6	357.210	0.100	-0.630	0.360
2020/01/31 16:43:13.7	357.200	0.130	-0.660	0.340
2020/01/31 16:43:13.8	357.210	0.150	-0.690	0.320
2020/01/31 16:43:13.9	357.220	0.180	-0.710	0.300
2020/01/31 16:43:14.0	357.230	0.200	-0.730	0.280
2020/01/31 16:43:14.1	357.240	0.230	-0.740	0.260
2020/01/31 16:43:14.2	357.260	0.250	-0.750	0.240
2020/01/31 16:43:14.3	357.270	0.270	-0.750	0.220
2020/01/31 16:43:14.4	357.290	0.290	-0.750	0.200
2020/01/31 16:43:14.5	357.300	0.310	-0.740	0.190
2020/01/31 16:43:14.6	357.310	0.330	-0.730	0.170
2020/01/31 16:43:14.7	357.320	0.340	-0.710	0.150
2020/01/31 16:43:14.8	357.330	0.350	-0.690	0.140
2020/01/31 16:43:14.9	357.340	0.370	-0.670	0.130
2020/01/31 16:43:15.0	357.340	0.370	-0.630	0.120
2020/01/31 16:43:15.1	357.350	0.380	-0.600	0.110
2020/01/31 16:43:15.2	357.350	0.380	-0.560	0.100
2020/01/31 16:43:15.3	357.350	0.380	-0.520	0.100
2020/01/31 16:43:15.4	357.340	0.380	-0.470	0.090
2020/01/31 16:43:15.5	357.340	0.380	-0.420	0.090
2020/01/31 16:43:15.6	357.330	0.370	-0.370	0.080
2020/01/31 16:43:15.7	357.320	0.360	-0.320	0.080
2020/01/31 16:43:15.8	357.310	0.350	-0.260	0.080
2020/01/31 16:43:15.9	357.290	0.340	-0.210	0.080
2020/01/31 16:43:16.0	357.270	0.320	-0.150	0.080
2020/01/31 16:43:16.1	357.260	0.310	-0.090	0.080
2020/01/31 16:43:16.2	357.230	0.290	-0.030	0.090
2020/01/31 16:43:16.3	357.210	0.260	0.020	0.090
2020/01/31 16:43:16.4	357.180	0.240	0.070	0.100
2020/01/31 16:43:16.5	357.150	0.220	0.130	0.110
2020/01/31 16:43:16.6	357.120	0.190	0.170	0.110
2020/01/31 16:43:16.7	357.090	0.170	0.220	0.120
2020/01/31 16:43:16.8	357.060	0.140	0.260	0.130
2020/01/31 16:43:16.9	357.020	0.110	0.300	0.140
2020/01/31 16:43:17.0	356.990	0.090	0.330	0.160
2020/01/31 16:43:17.1	356.950	0.060	0.360	0.170
2020/01/31 16:43:17.2	356.920	0.030	0.380	0.180
2020/01/31 16:43:17.3	356.890	0.010	0.400	0.190
2020/01/31 16:43:17.4	356.860	-0.020	0.410	0.200
2020/01/31 16:43:17.5	356.820	-0.040	0.410	0.210
2020/01/31 16:43:17.6	356.800	-0.060	0.410	0.210
2020/01/31 16:43:17.7	356.760	-0.080	0.400	0.220
2020/01/31 16:43:17.8	356.740	-0.100	0.380	0.220
2020/01/31 16:43:17.9	356.710	-0.120	0.350	0.220
2020/01/31 16:43:18.0	356.690	-0.130	0.320	0.210
2020/01/31 16:43:18.1	356.670	-0.150	0.280	0.200
2020/01/31 16:43:18.2	356.660	-0.160	0.240	0.190
2020/01/31 16:43:18.3	356.640	-0.160	0.180	0.170
2020/01/31 16:43:18.4	356.630	-0.170	0.130	0.150
2020/01/31 16:43:18.5	356.630	-0.170	0.060	0.130
2020/01/31 16:43:18.6	356.620	-0.170	-0.010	0.100
2020/01/31 16:43:18.7	356.630	-0.170	-0.080	0.060
2020/01/31 16:43:18.8	356.630	-0.170	-0.160	0.020
2020/01/31 16:43:18.9	356.640	-0.170	-0.240	-0.020
2020/01/31 16:43:19.0	356.650	-0.160	-0.320	-0.060
2020/01/31 16:43:19.1	356.650	-0.150	-0.410	-0.110
2020/01/31 16:43:19.2	356.670	-0.140	-0.490	-0.160
2020/01/31 16:43:19.3	356.680	-0.130	-0.570	-0.220
2020/01/31 16:43:19.4	356.700	-0.120	-0.660	-0.270
2020/01/31 16:43:19.5	356.710	-0.110	-0.730	-0.320
2020/01/31 16:43:19.6	356.730	-0.100	-0.810	-0.380
2020/01/31 16:43:19.7	356.740	-0.090	-0.880	-0.440
2020/01/31 16:43:19.8	356.770	-0.080	-0.950	-0.500
2020/01/31 16:43:19.9	356.790	-0.060	-1.010	-0.550
2020/01/31 16:43:20.0	356.820	-0.050	-1.060	-0.610
2020/01/31 16:43:20.1	356.840	-0.050	-1.110	-0.660
2020/01/31 16:43:20.2	356.870	-0.040	-1.150	-0.710
2020/01/31 16:43:20.3	356.900	-0.030	-1.180	-0.770
2020/01/31 16:43:20.4	356.930	-0.030	-1.210	-0.820
2020/01/31 16:43:20.5	356.960	-0.020	-1.220	-0.860
2020/01/31 16:43:20.6	357.000	-0.020	-1.230	-0.910
2020/01/31 16:43:20.7	357.030	-0.020	-1.230	-0.960
2020/01/31 16:43:20.8	357.070	-0.020	-1.220	-1.000
2020/01/31 16:43:20.9	357.110	-0.030	-1.200	-1.030
2020/01/31 16:43:21.0	357.150	-0.030	-1.170	-1.070
2020/01/31 16:43:21.1	357.190	-0.040	-1.140	-1.100
2020/01/31 16:43:21.2	357.230	-0.050	-1.090	-1.130
2020/01/31 16:43:21.3	357.270	-0.060	-1.040	-1.160
2020/01/31 16:43:21.4	357.320	-0.070	-0.990	-1.180
2020/01/31 16:43:21.5	357.360	-0.080	-0.930	-1.200
2020/01/31 16:43:21.6	357.410	-0.090	-0.860	-1.210
2020/01/31 16:43:21.7	357.450	-0.110	-0.790	-1.220
2020/01/31 16:43:21.8	357.490	-0.120	-0.710	-1.220
2020/01/31 16:43:21.9	357.540	-0.140	-0.630	-1.220
2020/01/31 16:43:22.0	357.570	-0.150	-0.550	-1.210
2020/01/31 16:43:22.1	357.610	-0.170	-0.470	-1.200
2020/01/31 16:43:22.2	357.650	-0.190	-0.380	-1.180
2020/01/31 16:43:22.3	357.680	-0.200	-0.290	-1.150
2020/01/31 16:43:22.4	357.700	-0.220	-0.210	-1.120
2020/01/31 16:43:22.5	357.730	-0.230	-0.120	-1.080
2020/01/31 16:43:22.6	357.740	-0.250	-0.030	-1.030
2020/01/31 16:43:22.7	357.770	-0.260	0.060	-0.980
2020/01/31 16:43:22.8	357.780	-0.280	0.140	-0.930
2020/01/31 16:43:22.9	357.780	-0.290	0.230	-0.870
2020/01/31 16:43:23.0	357.780	-0.300	0.310	-0.810
2020/01/31 16:43:23.1	357.770	-0.310	0.380	-0.750
2020/01/31 16:43:23.2	357.760	-0.320	0.450	-0.680
2020/01/31 16:43:23.3	357.740	-0.330	0.520	-0.610
2020/01/31 16:43:23.4	357.720	-0.330	0.580	-0.540
2020/01/31 16:43:23.5	357.690	-0.330	0.640	-0.470
2020/01/31 16:43:23.6	357.660	-0.340	0.690	-0.390
2020/01/31 16:43:23.7	357.630	-0.330	0.740	-0.310
2020/01/31 16:43:23.8	357.590	-0.330	0.780	-0.240
2020/01/31 16:43:23.9	357.550	-0.330	0.810	-0.160
2020/01/31 16:43:24.0	357.500	-0.320	0.830	-0.090
2020/01/31 16:43:24.1	357.450	-0.310	0.850	-0.010
2020/01/31 16:43:24.2	357.400	-0.300	0.860	0.060
2020/01/31 16:43:24.3	357.350	-0.280	0.860	0.130
2020/01/31 16:43:24.4	357.300	-0.260	0.850	0.190
2020/01/31 16:43:24.5	357.250	-0.240	0.830	0.260
2020/01/31 16:43:24.6	357.200	-0.220	0.800	0.320
2020/01/31 16:43:24.7	357.160	-0.200	0.770	0.370
2020/01/31 16:43:24.8	357.110	-0.170	0.730	0.420
2020/01/31 16:43:24.9	357.070	-0.150	0.680	0.470
2020/01/31 16:43:25.0	357.020	-0.120	0.620	0.510
2020/01/31 16:43:25.1	356.980	-0.090	0.560	0.540
2020/01/31 16:43:25.2	356.940	-0.060	0.490	0.570
2020/01/31 16:43:25.3	356.900	-0.030	0.410	0.590
2020/01/31 16:43:25.4	356.860	0.000	0.330	0.610
2020/01/31 16:43:25.5	356.830	0.030	0.250	0.620
2020/01/31 16:43:25.6	356.800	0.070	0.170	0.620
2020/01/31 16:43:25.7	356.780	0.100	0.070	0.630
2020/01/31 16:43:25.8	356.750	0.130	-0.020	0.620
2020/01/31 16:43:25.9	356.730	0.160	-0.110	0.610
2020/01/31 16:43:26.0	356.710	0.190	-0.200	0.590
2020/01/31 16:43:26.1	356.700	0.210	-0.290	0.570
2020/01/31 16:43:26.2	356.680	0.240	-0.370	0.540
2020/01/31 16:43:26.3	356.670	0.270	-0.460	0.510
2020/01/31 16:43:26.4	356.670	0.290	-0.540	0.480
2020/01/31 16:43:26.5	356.660	0.310	-0.610	0.440
2020/01/31 16:43:26.6	356.660	0.330	-0.680	0.400
2020/01/31 16:43:26.7	356.660	0.350	-0.740	0.360
2020/01/31 16:43:26.8	356.660	0.370	-0.790	0.320
2020/01/31 16:43:26.9	356.660	0.380	-0.850	0.280
2020/01/31 16:43:27.0	356.670	0.390	-0.890	0.230
2020/01/31 16:43:27.1	356.680	0.400	-0.920	0.190
2020/01/31 16:43:27.2	356.680	0.410	-0.950	0.150
2020/01/31 16:43:27.3	356.690	0.420	-0.980	0.100
2020/01/31 16:43:27.4	356.710	0.420	-0.990	0.060
2020/01/31 16:43:27.5	356.720	0.420	-1.000	0.020
2020/01/31 16:43:27.6	356.730	0.420	-1.000	-0.030
2020/01/31 16:43:27.7	356.720	0.410	-0.990	-0.070
2020/01/31 16:43:27.8	356.740	0.410	-0.980	-0.110
2020/01/31 16:43:27.9	356.750	0.400	-0.970	-0.150
2020/01/31 16:43:28.0	356.760	0.390	-0.940	-0.190
2020/01/31 16:43:28.1	356.770	0.380	-0.920	-0.220
2020/01/31 16:43:28.2	356.780	0.360	-0.890	-0.250
2020/01/31 16:43:28.3	356.790	0.340	-0.850	-0.290
2020/01/31 16:43:28.4	356.800	0.330	-0.810	-0.320
2020/01/31 16:43:28.5	356.810	0.310	-0.780	-0.340
2020/01/31 16:43:28.6	356.810	0.290	-0.730	-0.370
2020/01/31 16:43:28.7	356.820	0.270	-0.690	-0.400
2020/01/31 16:43:28.8	356.830	0.240	-0.650	-0.420
2020/01/31 16:43:28.9	356.830	0.220	-0.600	-0.440
2020/01/31 16:43:29.0	356.830	0.200	-0.560	-0.460
2020/01/31 16:43:29.1	356.840	0.170	-0.520	-0.480
2020/01/31 16:43:29.2	356.840	0.150	-0.480	-0.490
2020/01/31 16:43:29.3	356.840	0.130	-0.440	-0.510
2020/01/31 16:43:29.4	356.840	0.100	-0.400	-0.520
2020/01/31 16:43:29.5	356.840	0.080	-0.370	-0.530
2020/01/31 16:43:29.6	356.850	0.060	-0.340	-0.540
2020/01/31 16:43:29.7	356.860	0.040	-0.310	-0.550
2020/01/31 16:43:29.8	356.860	0.020	-0.290	-0.560
2020/01/31 16:43:29.9	356.870	0.010	-0.270	-0.570
2020/01/31 16:43:30.0	356.870	-0.010	-0.250	-0.570
2020/01/31 16:43:30.1	356.870	-0.020	-0.230	-0.580
2020/01/31 16:43:30.2	356.880	-0.030	-0.220	-0.580
2020/01/31 16:43:30.3	356.890	-0.050	-0.210	-0.590
2020/01/31 16:43:30.4	356.890	-0.050	-0.210	-0.590
2020/01/31 16:43:30.5	356.910	-0.060	-0.210	-0.600
2020/01/31 16:43:30.6	356.920	-0.070	-0.210	-0.600
2020/01/31 16:43:30.7	356.920	-0.070	-0.210	-0.600
2020/01/31 16:43:30.8	356.940	-0.080	-0.220	-0.610
2020/01/31 16:43:30.9	356.960	-0.080	-0.230	-0.610
2020/01/31 16:43:31.0	356.980	-0.080	-0.240	-0.620
2020/01/31 16:43:31.1	357.000	-0.070	-0.260	-0.620
2020/01/31 16:43:31.2	357.020	-0.070	-0.280	-0.630
2020/01/31 16:43:31.3	357.050	-0.070	-0.300	-0.640
2020/01/31 16:43:31.4	357.080	-0.060	-0.320	-0.640
2020/01/31 16:43:31.5	357.110	-0.050	-0.340	-0.650
2020/01/31 16:43:31.6	357.140	-0.050	-0.370	-0.660
2020/01/31 16:43:31.7	357.180	-0.040	-0.390	-0.670
2020/01/31 16:43:31.8	357.210	-0.030	-0.420	-0.670
2020/01/31 16:43:31.9	357.250	-0.020	-0.440	-0.680
2020/01/31 16:43:32.0	357.280	-0.010	-0.460	-0.680
2020/01/31 16:43:32.1	357.320	-0.000	-0.480	-0.690
2020/01/31 16:43:32.2	357.360	0.010	-0.490	-0.690
2020/01/31 16:43:32.3	357.390	0.010	-0.510	-0.700
2020/01/31 16:43:32.4	357.430	0.020	-0.520	-0.700
2020/01/31 16:43:32.5	357.470	0.030	-0.520	-0.700
2020/01/31 16:43:32.6	357.500	0.030	-0.520	-0.700
2020/01/31 16:43:32.7	357.550	0.040	-0.510	-0.690
2020/01/31 16:43:32.8	357.580	0.040	-0.500	-0.690
2020/01/31 16:43:32.9	357.610	0.040	-0.490	-0.680
2020/01/31 16:43:33.0	357.640	0.040	-0.470	-0.670
2020/01/31 16:43:33.1	357.660	0.040	-0.440	-0.660
2020/01/31 16:43:33.2	357.680	0.030	-0.410	-0.640
2020/01/31 16:43:33.3	357.700	0.030	-0.370	-0.620
2020/01/31 16:43:33.4	357.710	0.020	-0.330	-0.600
2020/01/31 16:43:33.5	357.720	0.010	-0.280	-0.580
2020/01/31 16:43:33.6	357.730	-0.000	-0.230	-0.560
2020/01/31 16:43:33.7	357.730	-0.020	-0.180	-0.530
2020/01/31 16:43:33.8	357.730	-0.040	-0.120	-0.500
2020/01/31 16:43:33.9	357.730	-0.050	-0.060	-0.470
2020/01/31 16:43:34.0	357.720	-0.070	-0.000	-0.440
2020/01/31 16:43:34.1	357.710	-0.100	0.050	-0.410
2020/01/31 16:43:34.2	357.700	-0.120	0.110	-0.390
2020/01/31 16:43:34.3	357.690	-0.140	0.170	-0.360
2020/01/31 16:43:34.4	357.670	-0.170	0.220	-0.330
2020/01/31 16:43:34.5	357.660	-0.200	0.280	-0.310
2020/01/31 16:43:34.6	357.640	-0.220	0.320	-0.290
2020/01/31 16:43:34.7	357.630	-0.250	0.370	-0.270
2020/01/31 16:43:34.8	357.610	-0.280	0.410	-0.240
2020/01/31 16:43:34.9	357.580	-0.310	0.440	-0.230
2020/01/31 16:43:35.0	357.550	-0.340	0.470	-0.210
2020/01/31 16:43:35.1	357.530	-0.370	0.500	-0.190
2020/01/31 16:43:35.2	357.500	-0.400	0.520	-0.180
2020/01/31 16:43:35.3	357.470	-0.420	0.540	-0.170
2020/01/31 16:43:35.4	357.430	-0.450	0.550	-0.160
2020/01/31 16:43:35.5	357.400	-0.470	0.550	-0.160
2020/01/31 16:43:35.6	357.370	-0.500	0.550	-0.160
2020/01/31 16:43:35.7	357.340	-0.520	0.550	-0.160
2020/01/31 16:43:35.8	357.300	-0.540	0.540	-0.160
2020/01/31 16:43:35.9	357.270	-0.550	0.530	-0.170
2020/01/31 16:43:36.0	357.230	-0.560	0.510	-0.170
2020/01/31 16:43:36.1	357.190	-0.580	0.490	-0.180
2020/01/31 16:43:36.2	357.150	-0.580	0.470	-0.180
2020/01/31 16:43:36.3	357.110	-0.590	0.450	-0.190
2020/01/31 16:43:36.4	357.060	-0.590	0.420	-0.200
2020/01/31 16:43:36.5	357.020	-0.590	0.400	-0.210
2020/01/31 16:43:36.6	356.980	-0.580	0.370	-0.210
2020/01/31 16:43:36.7	356.940	-0.580	0.340	-0.220
2020/01/31 16:43:36.8	356.890	-0.560	0.310	-0.230
2020/01/31 16:43:36.9	356.850	-0.550	0.270	-0.230
2020/01/31 16:43:37.0	356.800	-0.530	0.240	-0.230
2020/01/31 16:43:37.1	356.760	-0.510	0.210	-0.230
2020/01/31 16:43:37.2	356.710	-0.480	0.170	-0.230
2020/01/31 16:43:37.3	356.670	-0.450	0.140	-0.230
2020/01/31 16:43:37.4	356.630	-0.420	0.100	-0.230
2020/01/31 16:43:37.5	356.590	-0.390	0.060	-0.220
2020/01/31 16:43:37.6	356.550	-0.350	0.030	-0.220
2020/01/31 16:43:37.7	356.500	-0.310	-0.020	-0.210
2020/01/31 16:43:37.8	356.470	-0.270	-0.060	-0.200
2020/01/31 16:43:37.9	356.440	-0.230	-0.100	-0.200
2020/01/31 16:43:38.0	356.420	-0.180	-0.140	-0.190
2020/01/31 16:43:38.1	356.400	-0.140	-0.190	-0.180
2020/01/31 16:43:38.2	356.380	-0.090	-0.240	-0.170
2020/01/31 16:43:38.3	356.370	-0.040	-0.290	-0.170
2020/01/31 16:43:38.4	356.360	0.010	-0.340	-0.170
2020/01/31 16:43:38.5	356.360	0.060	-0.400	-0.170
2020/01/31 16:43:38.6	356.360	0.110	-0.460	-0.170
2020/01/31 16:43:38.7	356.350	0.160	-0.520	-0.180
2020/01/31 16:43:38.8	356.360	0.210	-0.580	-0.190
2020/01/31 16:43:38.9	356.380	0.260	-0.650	-0.200
2020/01/31 16:43:39.0	356.400	0.310	-0.710	-0.230
2020/01/31 16:43:39.1	356.420	0.360	-0.780	-0.250
2020/01/31 16:43:39.2	356.450	0.400	-0.850	-0.280
2020/01/31 16:43:39.3	356.490	0.450	-0.920	-0.310
2020/01/31 16:43:39.4	356.520	0.490	-0.990	-0.350
2020/01/31 16:43:39.5	356.560	0.540	-1.060	-0.390
2020/01/31 16:43:39.6	356.610	0.580	-1.130	-0.430
2020/01/31 16:43:39.7	356.650	0.610	-1.200	-0.470
2020/01/31 16:43:39.8	356.700	0.650	-1.270	-0.510
2020/01/31 16:43:39.9	356.750	0.680	-1.330	-0.550
2020/01/31 16:43:40.0	356.800	0.710	-1.380	-0.590
2020/01/31 16:43:40.1	356.850	0.740	-1.430	-0.620
2020/01/31 16:43:40.2	356.900	0.770	-1.480	-0.660
2020/01/31 16:43:40.3	356.960	0.790	-1.510	-0.690
2020/01/31 16:43:40.4	357.010	0.810	-1.540	-0.710
2020/01/31 16:43:40.5	357.060	0.820	-1.560	-0.730
2020/01/31 16:43:40.6	357.110	0.830	-1.570	-0.750
2020/01/31 16:43:40.7	357.160	0.840	-1.570	-0.770
2020/01/31 16:43:40.8	357.210	0.840	-1.560	-0.780
2020/01/31 16:43:40.9	357.250	0.840	-1.530	-0.780
2020/01/31 16:43:41.0	357.290	0.830	-1.500	-0.790
2020/01/31 16:43:41.1	357.330	0.820	-1.460	-0.780
2020/01/31 16:43:41.2	357.370	0.810	-1.400	-0.780
2020/01/31 16:43:41.3	357.400	0.790	-1.340	-0.770
2020/01/31 16:43:41.4	357.430	0.770	-1.270	-0.760
2020/01/31 16:43:41.5	357.460	0.740	-1.180	-0.750
2020/01/31 16:43:41.6	357.490	0.710	-1.090	-0.730
2020/01/31 16:43:41.7	357.510	0.670	-0.990	-0.720
2020/01/31 16:43:41.8	357.530	0.640	-0.890	-0.700
2020/01/31 16:43:41.9	357.550	0.590	-0.780	-0.680
2020/01/31 16:43:42.0	357.570	0.550	-0.670	-0.660
2020/01/31 16:43:42.1	357.580	0.500	-0.560	-0.650
2020/01/31 16:43:42.2	357.600	0.460	-0.450	-0.630
2020/01/31 16:43:42.3	357.610	0.410	-0.330	-0.610
2020/01/31 16:43:42.4	357.630	0.350	-0.220	-0.590
2020/01/31 16:43:42.5	357.640	0.300	-0.110	-0.580
2020/01/31 16:43:42.6	357.650	0.250	0.000	-0.560
2020/01/31 16:43:42.7	357.660	0.190	0.100	-0.540
2020/01/31 16:43:42.8	357.670	0.140	0.200	-0.520
2020/01/31 16:43:42.9	357.670	0.090	0.300	-0.510
2020/01/31 16:43:43.0	357.680	0.030	0.390	-0.490
2020/01/31 16:43:43.1	357.680	-0.020	0.470	-0.470
2020/01/31 16:43:43.2	357.680	-0.070	0.540	-0.460
2020/01/31 16:43:43.3	357.680	-0.120	0.600	-0.440
2020/01/31 16:43:43.4	357.680	-0.170	0.660	-0.430
2020/01/31 16:43:43.5	357.670	-0.220	0.710	-0.420
2020/01/31 16:43:43.6	357.670	-0.260	0.750	-0.400
2020/01/31 16:43:43.7	357.660	-0.310	0.780	-0.390
2020/01/31 16:43:43.8	357.650	-0.350	0.800	-0.380
2020/01/31 16:43:43.9	357.650	-0.380	0.820	-0.380
2020/01/31 16:43:44.0	357.640	-0.420	0.820	-0.380
2020/01/31 16:43:44.1	357.630	-0.450	0.820	-0.380
2020/01/31 16:43:44.2	357.620	-0.480	0.800	-0.390
2020/01/31 16:43:44.3	357.610	-0.510	0.790	-0.390
2020/01/31 16:43:44.4	357.600	-0.530	0.760	-0.400
2020/01/31 16:43:44.5	357.590	-0.550	0.730	-0.420
2020/01/31 16:43:44.6	357.580	-0.570	0.690	-0.430
2020/01/31 16:43:44.7	357.580	-0.580	0.650	-0.460
2020/01/31 16:43:44.8	357.570	-0.590	0.600	-0.480
2020/01/31 16:43:44.9	357.560	-0.600	0.550	-0.510
2020/01/31 16:43:45.0	357.550	-0.600	0.500	-0.530
2020/01/31 16:43:45.1	357.540	-0.600	0.450	-0.560
2020/01/31 16:43:45.2	357.530	-0.600	0.400	-0.590
2020/01/31 16:43:45.3	357.520	-0.600	0.350	-0.610
2020/01/31 16:43:45.4	357.510	-0.590	0.300	-0.630
2020/01/31 16:43:45.5	357.490	-0.590	0.250	-0.660
2020/01/31 16:43:45.6	357.480	-0.570	0.200	-0.670
2020/01/31 16:43:45.7	357.470	-0.560	0.160	-0.680
2020/01/31 16:43:45.8	357.460	-0.550	0.120	-0.700
2020/01/31 16:43:45.9	357.440	-0.530	0.080	-0.700
2020/01/31 16:43:46.0	357.420	-0.520	0.050	-0.700
2020/01/31 16:43:46.1	357.400	-0.500	0.010	-0.700
2020/01/31 16:43:46.2	357.380	-0.480	-0.010	-0.690
2020/01/31 16:43:46.3	357.350	-0.460	-0.040	-0.670
2020/01/31 16:43:46.4	357.330	-0.440	-0.060	-0.650
2020/01/31 16:43:46.5	357.310	-0.420	-0.080	-0.630
2020/01/31 16:43:46.6	357.280	-0.400	-0.100	-0.600
2020/01/31 16:43:46.7	357.260	-0.380	-0.110	-0.570
2020/01/31 16:43:46.8	357.230	-0.360	-0.120	-0.540
2020/01/31 16:43:46.9	357.210	-0.340	-0.140	-0.510
2020/01/31 16:43:47.0	357.180	-0.330	-0.150	-0.480
2020/01/31 16:43:47.1	357.160	-0.310	-0.160	-0.440
2020/01/31 16:43:47.2	357.130	-0.290	-0.170	-0.410
2020/01/31 16:43:47.3	357.110	-0.280	-0.190	-0.380
2020/01/31 16:43:47.4	357.090	-0.260	-0.200	-0.350
2020/01/31 16:43:47.5	357.070	-0.240	-0.220	-0.330
2020/01/31 16:43:47.6	357.050	-0.230	-0.230	-0.310
2020/01/31 16:43:47.7	357.040	-0.220	-0.250	-0.290
2020/01/31 16:43:47.8	357.020	-0.200	-0.270	-0.280
2020/01/31 16:43:47.9	357.010	-0.190	-0.300	-0.270
2020/01/31 16:43:48.0	357.010	-0.170	-0.320	-0.260
2020/01/31 16:43:48.1	357.000	-0.160	-0.350	-0.260
2020/01/31 16:43:48.2	357.000	-0.140	-0.380	-0.260
2020/01/31 16:43:48.3	357.000	-0.130	-0.410	-0.270
2020/01/31 16:43:48.4	357.000	-0.110	-0.440	-0.270
2020/01/31 16:43:48.5	357.010	-0.090	-0.470	-0.280
2020/01/31 16:43:48.6	357.010	-0.070	-0.500	-0.290
2020/01/31 16:43:48.7	357.010	-0.060	-0.530	-0.300
2020/01/31 16:43:48.8	357.020	-0.040	-0.560	-0.310
2020/01/31 16:43:48.9	357.020	-0.020	-0.590	-0.320
2020/01/31 16:43:49.0	357.030	0.000	-0.620	-0.330
2020/01/31 16:43:49.1	357.040	0.020	-0.640	-0.330
2020/01/31 16:43:49.2	357.050	0.040	-0.660	-0.340
2020/01/31 16:43:49.3	357.060	0.070	-0.680	-0.340
2020/01/31 16:43:49.4	357.070	0.090	-0.690	-0.340
2020/01/31 16:43:49.5	357.080	0.110	-0.700	-0.330
2020/01/31 16:43:49.6	357.090	0.140	-0.710	-0.330
2020/01/31 16:43:49.7	357.090	0.160	-0.710	-0.320
2020/01/31 16:43:49.8	357.100	0.190	-0.710	-0.310
2020/01/31 16:43:49.9	357.120	0.210	-0.710	-0.300
2020/01/31 16:43:50.0	357.130	0.240	-0.700	-0.290
2020/01/31 16:43:50.1	357.150	0.260	-0.700	-0.280
2020/01/31 16:43:50.2	357.160	0.290	-0.690	-0.270
2020/01/31 16:43:50.3	357.180	0.320	-0.680	-0.260
2020/01/31 16:43:50.4	357.210	0.340	-0.660	-0.250
2020/01/31 16:43:50.5	357.230	0.370	-0.650	-0.250
2020/01/31 16:43:50.6	357.250	0.400	-0.640	-0.240
2020/01/31 16:43:50.7	357.290	0.420	-0.630	-0.240
2020/01/31 16:43:50.8	357.320	0.450	-0.610	-0.240
2020/01/31 16:43:50.9	357.350	0.470	-0.600	-0.240
2020/01/31 16:43:51.0	357.390	0.490	-0.590	-0.250
2020/01/31 16:43:51.1	357.420	0.510	-0.580	-0.260
2020/01/31 16:43:51.2	357.460	0.530	-0.570	-0.270
2020/01/31 16:43:51.3	357.500	0.550	-0.560	-0.280
2020/01/31 16:43:51.4	357.540	0.560	-0.550	-0.300
2020/01/31 16:43:51.5	357.580	0.580	-0.550	-0.320
2020/01/31 16:43:51.6	357.620	0.590	-0.540	-0.340
2020/01/31 16:43:51.7	357.660	0.590	-0.530	-0.360
2020/01/31 16:43:51.8	357.700	0.600	-0.530	-0.380
2020/01/31 16:43:51.9	357.740	0.600	-0.520	-0.400
2020/01/31 16:43:52.0	357.780	0.590	-0.510	-0.420
2020/01/31 16:43:52.1	357.820	0.580	-0.510	-0.450
2020/01/31 16:43:52.2	357.850	0.570	-0.500	-0.470
2020/01/31 16:43:52.3	357.890	0.550	-0.490	-0.490
2020/01/31 16:43:52.4	357.920	0.530	-0.470	-0.510
2020/01/31 16:43:52.5	357.950	0.510	-0.460	-0.540
2020/01/31 16:43:52.6	357.970	0.480	-0.440	-0.560
2020/01/31 16:43:52.7	357.990	0.440	-0.420	-0.580
2020/01/31 16:43:52.8	358.020	0.400	-0.390	-0.600
2020/01/31 16:43:52.9	358.030	0.360	-0.360	-0.620
2020/01/31 16:43:53.0	358.050	0.320	-0.330	-0.640
2020/01/31 16:43:53.1	358.060	0.270	-0.300	-0.650
2020/01/31 16:43:53.2	358.070	0.210	-0.260	-0.670
2020/01/31 16:43:53.3	358.070	0.160	-0.230	-0.680
2020/01/31 16:43:53.4	358.070	0.100	-0.190	-0.700
2020/01/31 16:43:53.5	358.070	0.040	-0.140	-0.710
2020/01/31 16:43:53.6	358.060	-0.020	-0.100	-0.720
2020/01/31 16:43:53.7	358.060	-0.080	-0.060	-0.720
2020/01/31 16:43:53.8	358.050	-0.140	-0.010	-0.730
2020/01/31 16:43:53.9	358.040	-0.200	0.030	-0.730
2020/01/31 16:43:54.0	358.020	-0.260	0.080	-0.730
2020/01/31 16:43:54.1	358.000	-0.320	0.120	-0.730
2020/01/31 16:43:54.2	357.980	-0.380	0.160	-0.720
2020/01/31 16:43:54.3	357.960	-0.430	0.200	-0.720
2020/01/31 16:43:54.4	357.940	-0.480	0.240	-0.710
2020/01/31 16:43:54.5	357.920	-0.520	0.270	-0.700
2020/01/31 16:43:54.6	357.900	-0.570	0.300	-0.690
2020/01/31 16:43:54.7	357.880	-0.600	0.330	-0.680
2020/01/31 16:43:54.8	357.860	-0.630	0.350	-0.670
2020/01/31 16:43:54.9	357.840	-0.650	0.370	-0.660
2020/01/31 16:43:55.0	357.820	-0.670	0.370	-0.640
2020/01/31 16:43:55.1	357.800	-0.680	0.370	-0.630
2020/01/31 16:43:55.2	357.790	-0.690	0.370	-0.620
2020/01/31 16:43:55.3	357.780	-0.680	0.350	-0.610
2020/01/31 16:43:55.4	357.770	-0.670	0.330	-0.600
2020/01/31 16:43:55.5	357.760	-0.650	0.310	-0.590
2020/01/31 16:43:55.6	357.750	-0.620	0.270	-0.580
2020/01/31 16:43:55.7	357.740	-0.590	0.230	-0.570
2020/01/31 16:43:55.8	357.740	-0.550	0.180	-0.550
2020/01/31 16:43:55.9	357.730	-0.510	0.130	-0.540
2020/01/31 16:43:56.0	357.720	-0.460	0.080	-0.520
2020/01/31 16:43:56.1	357.710	-0.400	0.030	-0.500
2020/01/31 16:43:56.2	357.700	-0.340	-0.030	-0.490
2020/01/31 16:43:56.3	357.690	-0.280	-0.090	-0.460
2020/01/31 16:43:56.4	357.670	-0.210	-0.150	-0.440
2020/01/31 16:43:56.5	357.650	-0.140	-0.210	-0.410
2020/01/31 16:43:56.6	357.640	-0.070	-0.270	-0.380
2020/01/31 16:43:56.7	357.610	-0.000	-0.330	-0.350
2020/01/31 16:43:56.8	357.590	0.070	-0.380	-0.320
2020/01/31 16:43:56.9	357.560	0.140	-0.430	-0.280
2020/01/31 16:43:57.0	357.530	0.200	-0.480	-0.250
2020/01/31 16:43:57.1	357.500	0.270	-0.520	-0.210
2020/01/31 16:43:57.2	357.470	0.320	-0.560	-0.170
2020/01/31 16:43:57.3	357.430	0.380	-0.590	-0.130
2020/01/31 16:43:57.4	357.400	0.430	-0.620	-0.100
2020/01/31 16:43:57.5	357.360	0.480	-0.640	-0.060
2020/01/31 16:43:57.6	357.330	0.520	-0.660	-0.020
2020/01/31 16:43:57.7	357.280	0.550	-0.670	0.010
2020/01/31 16:43:57.8	357.250	0.580	-0.680	0.040
2020/01/31 16:43:57.9	357.220	0.610	-0.680	0.070
2020/01/31 16:43:58.0	357.180	0.620	-0.680	0.100
2020/01/31 16:43:58.1	357.150	0.630	-0.670	0.120
2020/01/31 16:43:58.2	357.120	0.640	-0.660	0.140
2020/01/31 16:43:58.3	357.100	0.640	-0.640	0.160
2020/01/31 16:43:58.4	357.070	0.630	-0.630	0.170
2020/01/31 16:43:58.5	357.050	0.620	-0.610	0.180
2020/01/31 16:43:58.6	357.040	0.600	-0.580	0.190
2020/01/31 16:43:58.7	357.010	0.570	-0.560	0.180
2020/01/31 16:43:58.8	357.010	0.550	-0.530	0.180
2020/01/31 16:43:58.9	357.000	0.520	-0.500	0.170
2020/01/31 16:43:59.0	357.000	0.480	-0.470	0.160
2020/01/31 16:43:59.1	357.010	0.450	-0.450	0.140
2020/01/31 16:43:59.2	357.020	0.410	-0.420	0.110
2020/01/31 16:43:59.3	357.030	0.370	-0.390	0.090
2020/01/31 16:43:59.4	357.050	0.320	-0.360	0.060
2020/01/31 16:43:59.5	357.070	0.280	-0.340	0.030
2020/01/31 16:43:59.6	357.090	0.240	-0.310	-0.010
2020/01/31 16:43:59.7	357.120	0.190	-0.290	-0.050
2020/01/31 16:43:59.8	357.150	0.150	-0.260	-0.080
2020/01/31 16:43:59.9	357.180	0.100	-0.230	-0.120
2020/01/31 16:44:00.0	357.220	0.060	-0.210	-0.170
2020/01/31 16:44:00.1	357.250	0.020	-0.190	-0.210
2020/01/31 16:44:00.2	357.290	-0.020	-0.160	-0.250
2020/01/31 16:44:00.3	357.330	-0.060	-0.140	-0.290
2020/01/31 16:44:00.4	357.370	-0.090	-0.110	-0.330
2020/01/31 16:44:00.5	357.400	-0.130	-0.090	-0.370
2020/01/31 16:44:00.6	357.440	-0.160	-0.060	-0.400
2020/01/31 16:44:00.7	357.480	-0.190	-0.040	-0.440
2020/01/31 16:44:00.8	357.510	-0.220	-0.020	-0.470
2020/01/31 16:44:00.9	357.550	-0.240	0.010	-0.500
2020/01/31 16:44:01.0	357.580	-0.260	0.030	-0.530
2020/01/31 16:44:01.1	357.620	-0.280	0.050	-0.550
2020/01/31 16:44:01.2	357.650	-0.290	0.070	-0.570
2020/01/31 16:44:01.3	357.680	-0.310	0.090	-0.590
2020/01/31 16:44:01.4	357.710	-0.320	0.110	-0.600
2020/01/31 16:44:01.5	357.740	-0.330	0.120	-0.610
2020/01/31 16:44:01.6	357.760	-0.330	0.140	-0.620
2020/01/31 16:44:01.7	357.790	-0.340	0.150	-0.620
2020/01/31 16:44:01.8	357.810	-0.340	0.160	-0.630
2020/01/31 16:44:01.9	357.840	-0.340	0.160	-0.630
2020/01/31 16:44:02.0	357.860	-0.340	0.160	-0.630
2020/01/31 16:44:02.1	357.880	-0.330	0.160	-0.620
2020/01/31 16:44:02.2	357.900	-0.330	0.160	-0.620
2020/01/31 16:44:02.3	357.920	-0.320	0.150	-0.620
2020/01/31 16:44:02.4	357.930	-0.320	0.140	-0.610
2020/01/31 16:44:02.5	357.950	-0.310	0.120	-0.600
2020/01/31 16:44:02.6	357.960	-0.300	0.110	-0.600
2020/01/31 16:44:02.7	357.980	-0.300	0.090	-0.590
2020/01/31 16:44:02.8	357.990	-0.290	0.070	-0.580
2020/01/31 16:44:02.9	358.000	-0.290	0.040	-0.580
2020/01/31 16:44:03.0	358.000	-0.280	0.010	-0.570
2020/01/31 16:44:03.1	358.010	-0.270	-0.020	-0.560
2020/01/31 16:44:03.2	358.010	-0.270	-0.050	-0.560
2020/01/31 16:44:03.3	358.020	-0.260	-0.080	-0.550
2020/01/31 16:44:03.4	358.020	-0.260	-0.120	-0.550
2020/01/31 16:44:03.5	358.020	-0.250	-0.150	-0.550
2020/01/31 16:44:03.6	358.010	-0.250	-0.190	-0.550
2020/01/31 16:44:03.7	358.000	-0.240	-0.220	-0.550
2020/01/31 16:44:03.8	358.000	-0.240	-0.260	-0.550
2020/01/31 16:44:03.9	358.000	-0.230	-0.300	-0.550
2020/01/31 16:44:04.0	357.990	-0.230	-0.330	-0.560
2020/01/31 16:44:04.1	357.980	-0.220	-0.370	-0.560
2020/01/31 16:44:04.2	357.980	-0.220	-0.400	-0.570
2020/01/31 16:44:04.3	357.970	-0.210	-0.430	-0.570
2020/01/31 16:44:04.4	357.960	-0.210	-0.460	-0.570
2020/01/31 16:44:04.5	357.950	-0.200	-0.490	-0.570
2020/01/31 16:44:04.6	357.940	-0.190	-0.510	-0.570
2020/01/31 16:44:04.7	357.930	-0.180	-0.540	-0.570
2020/01/31 16:44:04.8	357.910	-0.180	-0.550	-0.570
2020/01/31 16:44:04.9	357.890	-0.170	-0.570	-0.560
2020/01/31 16:44:05.0	357.870	-0.160	-0.580	-0.550
2020/01/31 16:44:05.1	357.860	-0.150	-0.590	-0.540
2020/01/31 16:44:05.2	357.830	-0.130	-0.590	-0.530
2020/01/31 16:44:05.3	357.810	-0.120	-0.590	-0.520
2020/01/31 16:44:05.4	357.790	-0.110	-0.590	-0.500
2020/01/31 16:44:05.5	357.760	-0.090	-0.580	-0.490
2020/01/31 16:44:05.6	357.740	-0.080	-0.570	-0.470
2020/01/31 16:44:05.7	357.700	-0.060	-0.560	-0.450
2020/01/31 16:44:05.8	357.670	-0.050	-0.540	-0.430
2020/01/31 16:44:05.9	357.650	-0.030	-0.530	-0.410
2020/01/31 16:44:06.0	357.620	-0.010	-0.510	-0.390
2020/01/31 16:44:06.1	357.600	0.010	-0.480	-0.370
2020/01/31 16:44:06.2	357.570	0.030	-0.460	-0.350
2020/01/31 16:44:06.3	357.550	0.040	-0.440	-0.330
2020/01/31 16:44:06.4	357.530	0.060	-0.420	-0.310
2020/01/31 16:44:06.5	357.510	0.080	-0.400	-0.290
2020/01/31 16:44:06.6	357.490	0.100	-0.380	-0.270
2020/01/31 16:44:06.7	357.470	0.120	-0.360	-0.260
2020/01/31 16:44:06.8	357.460	0.140	-0.350	-0.240
2020/01/31 16:44:06.9	357.440	0.150	-0.330	-0.230
2020/01/31 16:44:07.0	357.430	0.170	-0.320	-0.220
2020/01/31 16:44:07.1	357.420	0.190	-0.310	-0.210
2020/01/31 16:44:07.2	357.410	0.200	-0.300	-0.200
2020/01/31 16:44:07.3	357.400	0.220	-0.290	-0.200
2020/01/31 16:44:07.4	357.400	0.230	-0.280	-0.190
2020/01/31 16:44:07.5	357.390	0.240	-0.280	-0.190
2020/01/31 16:44:07.6	357.390	0.260	-0.280	-0.200
2020/01/31 16:44:07.7	357.410	0.270	-0.270	-0.200
2020/01/31 16:44:07.8	357.410	0.280	-0.280	-0.210
2020/01/31 16:44:07.9	357.420	0.280	-0.280	-0.220
2020/01/31 16:44:08.0	357.420	0.290	-0.280	-0.230
2020/01/31 16:44:08.1	357.430	0.300	-0.280	-0.240
2020/01/31 16:44:08.2	357.440	0.300	-0.290	-0.260
2020/01/31 16:44:08.3	357.450	0.300	-0.290	-0.270
2020/01/31 16:44:08.4	357.460	0.300	-0.300	-0.290
2020/01/31 16:44:08.5	357.480	0.310	-0.300	-0.310
2020/01/31 16:44:08.6	357.500	0.310	-0.300	-0.320
2020/01/31 16:44:08.7	357.520	0.300	-0.310	-0.340
2020/01/31 16:44:08.8	357.540	0.300	-0.310	-0.360
2020/01/31 16:44:08.9	357.560	0.300	-0.310	-0.380
2020/01/31 16:44:09.0	357.580	0.300	-0.310	-0.390
2020/01/31 16:44:09.1	357.610	0.290	-0.300	-0.410
2020/01/31 16:44:09.2	357.640	0.290	-0.300	-0.420
2020/01/31 16:44:09.3	357.670	0.280	-0.290	-0.440
2020/01/31 16:44:09.4	357.700	0.270	-0.290	-0.450
2020/01/31 16:44:09.5	357.730	0.270	-0.280	-0.460
2020/01/31 16:44:09.6	357.760	0.260	-0.260	-0.470
2020/01/31 16:44:09.7	357.790	0.250	-0.250	-0.490
2020/01/31 16:44:09.8	357.820	0.250	-0.230	-0.500
2020/01/31 16:44:09.9	357.850	0.240	-0.220	-0.510
2020/01/31 16:44:10.0	357.880	0.230	-0.200	-0.510
2020/01/31 16:44:10.1	357.920	0.220	-0.180	-0.520
2020/01/31 16:44:10.2	357.950	0.210	-0.160	-0.520
2020/01/31 16:44:10.3	357.980	0.210	-0.140	-0.530
2020/01/31 16:44:10.4	358.000	0.200	-0.120	-0.530
2020/01/31 16:44:10.5	358.030	0.190	-0.100	-0.530
2020/01/31 16:44:10.6	358.060	0.180	-0.080	-0.530
2020/01/31 16:44:10.7	358.070	0.170	-0.060	-0.530
2020/01/31 16:44:10.8	358.090	0.160	-0.040	-0.520
2020/01/31 16:44:10.9	358.110	0.150	-0.020	-0.520
2020/01/31 16:44:11.0	358.120	0.150	-0.000	-0.510
2020/01/31 16:44:11.1	358.140	0.140	0.010	-0.510
2020/01/31 16:44:11.2	358.150	0.120	0.030	-0.500
2020/01/31 16:44:11.3	358.160	0.110	0.040	-0.490
2020/01/31 16:44:11.4	358.160	0.100	0.050	-0.480
2020/01/31 16:44:11.5	358.170	0.090	0.060	-0.470
2020/01/31 16:44:11.6	358.170	0.080	0.060	-0.460
2020/01/31 16:44:11.7	358.170	0.060	0.060	-0.440
2020/01/31 16:44:11.8	358.170	0.050	0.070	-0.430
2020/01/31 16:44:11.9	358.170	0.030	0.060	-0.420
2020/01/31 16:44:12.0	358.160	0.020	0.060	-0.400
2020/01/31 16:44:12.1	358.160	0.000	0.050	-0.380
2020/01/31 16:44:12.2	358.150	-0.010	0.050	-0.360
2020/01/31 16:44:12.3	358.140	-0.030	0.030	-0.340
2020/01/31 16:44:12.4	358.130	-0.050	0.020	-0.320
2020/01/31 16:44:12.5	358.120	-0.060	0.010	-0.300
2020/01/31 16:44:12.6	358.100	-0.080	-0.010	-0.270
2020/01/31 16:44:12.7	358.080	-0.100	-0.030	-0.250
2020/01/31 16:44:12.8	358.060	-0.120	-0.050	-0.230
2020/01/31 16:44:12.9	358.040	-0.130	-0.070	-0.200
2020/01/31 16:44:13.0	358.010	-0.150	-0.090	-0.170
2020/01/31 16:44:13.1	357.990	-0.170	-0.110	-0.150
2020/01/31 16:44:13.2	357.970	-0.180	-0.130	-0.130
2020/01/31 16:44:13.3	357.940	-0.200	-0.160	-0.110
2020/01/31 16:44:13.4	357.920	-0.210	-0.180	-0.090
2020/01/31 16:44:13.5	357.890	-0.230	-0.210	-0.080
2020/01/31 16:44:13.6	357.870	-0.240	-0.240	-0.070
2020/01/31 16:44:13.7	357.840	-0.250	-0.270	-0.060
2020/01/31 16:44:13.8	357.830	-0.260	-0.300	-0.060
2020/01/31 16:44:13.9	357.810	-0.270	-0.330	-0.070
2020/01/31 16:44:14.0	357.790	-0.270	-0.360	-0.080
2020/01/31 16:44:14.1	357.780	-0.280	-0.400	-0.090
2020/01/31 16:44:14.2	357.780	-0.280	-0.430	-0.110
2020/01/31 16:44:14.3	357.770	-0.270	-0.470	-0.130
2020/01/31 16:44:14.4	357.770	-0.270	-0.510	-0.160
2020/01/31 16:44:14.5	357.780	-0.260	-0.540	-0.190
2020/01/31 16:44:14.6	357.790	-0.250	-0.580	-0.220
2020/01/31 16:44:14.7	357.800	-0.230	-0.620	-0.260
2020/01/31 16:44:14.8	357.820	-0.220	-0.650	-0.300
2020/01/31 16:44:14.9	357.840	-0.200	-0.690	-0.340
2020/01/31 16:44:15.0	357.860	-0.180	-0.730	-0.380
2020/01/31 16:44:15.1	357.890	-0.150	-0.760	-0.420
2020/01/31 16:44:15.2	357.920	-0.120	-0.790	-0.450
2020/01/31 16:44:15.3	357.950	-0.090	-0.820	-0.490
2020/01/31 16:44:15.4	357.980	-0.060	-0.840	-0.520
2020/01/31 16:44:15.5	358.020	-0.030	-0.870	-0.550
2020/01/31 16:44:15.6	358.050	-0.000	-0.880	-0.580
2020/01/31 16:44:15.7	358.090	0.030	-0.900	-0.610
2020/01/31 16:44:15.8	358.130	0.060	-0.910	-0.630
2020/01/31 16:44:15.9	358.160	0.090	-0.910	-0.650
2020/01/31 16:44:16.0	358.190	0.120	-0.910	-0.670
2020/01/31 16:44:16.1	358.230	0.140	-0.900	-0.680
2020/01/31 16:44:16.2	358.260	0.170	-0.880	-0.700
2020/01/31 16:44:16.3	358.290	0.190	-0.860	-0.700
2020/01/31 16:44:16.4	358.310	0.210	-0.830	-0.710
2020/01/31 16:44:16.5	358.340	0.220	-0.790	-0.710
2020/01/31 16:44:16.6	358.360	0.230	-0.750	-0.710
2020/01/31 16:44:16.7	358.390	0.240	-0.700	-0.710
2020/01/31 16:44:16.8	358.410	0.240	-0.640	-0.700
2020/01/31 16:44:16.9	358.420	0.240	-0.580	-0.690
2020/01/31 16:44:17.0	358.430	0.230	-0.520	-0.670
2020/01/31 16:44:17.1	358.430	0.220	-0.450	-0.660
2020/01/31 16:44:17.2	358.430	0.200	-0.370	-0.640
2020/01/31 16:44:17.3	358.430	0.180	-0.290	-0.610
2020/01/31 16:44:17.4	358.420	0.160	-0.210	-0.590
2020/01/31 16:44:17.5	358.410	0.130	-0.130	-0.560
2020/01/31 16:44:17.6	358.400	0.100	-0.040	-0.530
2020/01/31 16:44:17.7	358.370	0.070	0.040	-0.500
2020/01/31 16:44:17.8	358.350	0.030	0.130	-0.460
2020/01/31 16:44:17.9	358.330	-0.010	0.220	-0.430
2020/01/31 16:44:18.0	358.300	-0.050	0.310	-0.390
2020/01/31 16:44:18.1	358.280	-0.090	0.390	-0.350
2020/01/31 16:44:18.2	358.250	-0.130	0.470	-0.310
2020/01/31 16:44:18.3	358.220	-0.180	0.540	-0.270
2020/01/31 16:44:18.4	358.200	-0.220	0.610	-0.230
2020/01/31 16:44:18.5	358.170	-0.260	0.680	-0.190
2020/01/31 16:44:18.6	358.140	-0.300	0.740	-0.150
2020/01/31 16:44:18.7	358.120	-0.340	0.790	-0.110
2020/01/31 16:44:18.8	358.090	-0.380	0.830	-0.080
2020/01/31 16:44:18.9	358.070	-0.410	0.870	-0.050
2020/01/31 16:44:19.0	358.050	-0.450	0.890	-0.020
2020/01/31 16:44:19.1	358.020	-0.470	0.910	0.010
2020/01/31 16:44:19.2	358.010	-0.500	0.920	0.030
2020/01/31 16:44:19.3	357.990	-0.510	0.910	0.050
2020/01/31 16:44:19.4	357.970	-0.530	0.900	0.070
2020/01/31 16:44:19.5	357.960	-0.540	0.880	0.080
2020/01/31 16:44:19.6	357.950	-0.540	0.850	0.090
2020/01/31 16:44:19.7	357.940	-0.540	0.820	0.100
2020/01/31 16:44:19.8	357.930	-0.530	0.770	0.100
2020/01/31 16:44:19.9	357.920	-0.520	0.720	0.100
2020/01/31 16:44:20.0	357.910	-0.500	0.660	0.100
2020/01/31 16:44:20.1	357.900	-0.480	0.590	0.100
2020/01/31 16:44:20.2	357.900	-0.450	0.520	0.090
2020/01/31 16:44:20.3	357.890	-0.410	0.450	0.090
2020/01/31 16:44:20.4	357.880	-0.370	0.370	0.080
2020/01/31 16:44:20.5	357.870	-0.330	0.290	0.070
2020/01/31 16:44:20.6	357.860	-0.280	0.200	0.070
2020/01/31 16:44:20.7	357.850	-0.230	0.120	0.060
2020/01/31 16:44:20.8	357.840	-0.180	0.030	0.050
2020/01/31 16:44:20.9	357.830	-0.130	-0.050	0.040
2020/01/31 16:44:21.0	357.810	-0.070	-0.140	0.040
2020/01/31 16:44:21.1	357.800	-0.010	-0.220	0.030
2020/01/31 16:44:21.2	357.790	0.050	-0.300	0.020
2020/01/31 16:44:21.3	357.780	0.110	-0.390	0.020
2020/01/31 16:44:21.4	357.770	0.160	-0.470	0.010
2020/01/31 16:44:21.5	357.750	0.220	-0.540	0.000
2020/01/31 16:44:21.6	357.750	0.280	-0.620	-0.010
2020/01/31 16:44:21.7	357.730	0.330	-0.700	-0.010
2020/01/31 16:44:21.8	357.730	0.380	-0.770	-0.030
2020/01/31 16:44:21.9	357.720	0.430	-0.840	-0.040
2020/01/31 16:44:22.0	357.720	0.480	-0.900	-0.050
2020/01/31 16:44:22.1	357.720	0.520	-0.970	-0.070
2020/01/31 16:44:22.2	357.720	0.560	-1.030	-0.090
2020/01/31 16:44:22.3	357.720	0.590	-1.090	-0.110
2020/01/31 16:44:22.4	357.730	0.620	-1.140	-0.130
2020/01/31 16:44:22.5	357.730	0.650	-1.190	-0.150
2020/01/31 16:44:22.6	357.740	0.670	-1.240	-0.180
2020/01/31 16:44:22.7	357.760	0.690	-1.270	-0.210
2020/01/31 16:44:22.8	357.770	0.700	-1.310	-0.240
2020/01/31 16:44:22.9	357.790	0.710	-1.350	-0.270
2020/01/31 16:44:23.0	357.800	0.710	-1.370	-0.300
2020/01/31 16:44:23.1	357.820	0.710	-1.400	-0.340
2020/01/31 16:44:23.2	357.840	0.710	-1.410	-0.380
2020/01/31 16:44:23.3	357.860	0.700	-1.420	-0.420
2020/01/31 16:44:23.4	357.880	0.680	-1.430	-0.460
2020/01/31 16:44:23.5	357.910	0.660	-1.430	-0.510
2020/01/31 16:44:23.6	357.930	0.640	-1.420	-0.550
2020/01/31 16:44:23.7	357.950	0.610	-1.410	-0.600
2020/01/31 16:44:23.8	357.970	0.580	-1.390	-0.640
2020/01/31 16:44:23.9	358.000	0.550	-1.370	-0.690
2020/01/31 16:44:24.0	358.020	0.520	-1.330	-0.740
2020/01/31 16:44:24.1	358.050	0.480	-1.290	-0.790
2020/01/31 16:44:24.2	358.080	0.440	-1.250	-0.830
2020/01/31 16:44:24.3	358.110	0.400	-1.200	-0.880
2020/01/31 16:44:24.4	358.140	0.350	-1.140	-0.930
2020/01/31 16:44:24.5	358.170	0.310	-1.080	-0.970
2020/01/31 16:44:24.6	358.200	0.270	-1.010	-1.020
2020/01/31 16:44:24.7	358.240	0.220	-0.940	-1.060
2020/01/31 16:44:24.8	358.270	0.180	-0.870	-1.100
2020/01/31 16:44:24.9	358.310	0.130	-0.790	-1.140
2020/01/31 16:44:25.0	358.340	0.090	-0.710	-1.180
2020/01/31 16:44:25.1	358.370	0.040	-0.630	-1.210
2020/01/31 16:44:25.2	358.400	0.000	-0.550	-1.240
2020/01/31 16:44:25.3	358.430	-0.040	-0.470	-1.260
2020/01/31 16:44:25.4	358.460	-0.080	-0.390	-1.280
2020/01/31 16:44:25.5	358.480	-0.120	-0.300	-1.290
2020/01/31 16:44:25.6	358.510	-0.160	-0.220	-1.300
2020/01/31 16:44:25.7	358.540	-0.190	-0.150	-1.310
2020/01/31 16:44:25.8	358.560	-0.230	-0.070	-1.310
2020/01/31 16:44:25.9	358.580	-0.260	0.010	-1.300
2020/01/31 16:44:26.0	358.590	-0.290	0.080	-1.290
2020/01/31 16:44:26.1	358.600	-0.320	0.150	-1.280
2020/01/31 16:44:26.2	358.610	-0.350	0.220	-1.260
2020/01/31 16:44:26.3	358.620	-0.370	0.280	-1.240
2020/01/31 16:44:26.4	358.630	-0.390	0.340	-1.220
2020/01/31 16:44:26.5	358.630	-0.420	0.390	-1.200
2020/01/31 16:44:26.6	358.640	-0.440	0.440	-1.170
2020/01/31 16:44:26.7	358.640	-0.450	0.480	-1.140
2020/01/31 16:44:26.8	358.630	-0.470	0.520	-1.110
2020/01/31 16:44:26.9	358.630	-0.490	0.560	-1.080
2020/01/31 16:44:27.0	358.630	-0.500	0.590	-1.040
2020/01/31 16:44:27.1	358.620	-0.510	0.610	-1.010
2020/01/31 16:44:27.2	358.610	-0.520	0.630	-0.970
2020/01/31 16:44:27.3	358.600	-0.530	0.650	-0.930
2020/01/31 16:44:27.4	358.580	-0.530	0.660	-0.890
2020/01/31 16:44:27.5	358.570	-0.540	0.670	-0.840
2020/01/31 16:44:27.6	358.550	-0.540	0.670	-0.800
2020/01/31 16:44:27.7	358.520	-0.540	0.670	-0.750
2020/01/31 16:44:27.8	358.500	-0.540	0.670	-0.700
2020/01/31 16:44:27.9	358.480	-0.530	0.660	-0.650
2020/01/31 16:44:28.0	358.460	-0.530	0.650	-0.600
2020/01/31 16:44:28.1	358.430	-0.520	0.630	-0.550
2020/01/31 16:44:28.2	358.410	-0.510	0.610	-0.500
2020/01/31 16:44:28.3	358.380	-0.500	0.590	-0.440
2020/01/31 16:44:28.4	358.360	-0.490	0.570	-0.390
2020/01/31 16:44:28.5	358.340	-0.470	0.540	-0.340
2020/01/31 16:44:28.6	358.310	-0.460	0.520	-0.290
2020/01/31 16:44:28.7	358.290	-0.440	0.490	-0.240
2020/01/31 16:44:28.8	358.270	-0.420	0.450	-0.190
2020/01/31 16:44:28.9	358.250	-0.400	0.420	-0.140
2020/01/31 16:44:29.0	358.230	-0.370	0.380	-0.100
2020/01/31 16:44:29.1	358.210	-0.340	0.350	-0.050
2020/01/31 16:44:29.2	358.190	-0.320	0.310	-0.010
2020/01/31 16:44:29.3	358.180	-0.290	0.270	0.030
2020/01/31 16:44:29.4	358.160	-0.250	0.220	0.060
2020/01/31 16:44:29.5	358.150	-0.220	0.180	0.100
2020/01/31 16:44:29.6	358.140	-0.180	0.130	0.130
2020/01/31 16:44:29.7	358.130	-0.150	0.080	0.160
2020/01/31 16:44:29.8	358.130	-0.110	0.040	0.180
2020/01/31 16:44:29.9	358.120	-0.070	-0.010	0.200
2020/01/31 16:44:30.0	358.120	-0.030	-0.060	0.220
2020/01/31 16:44:30.1	358.120	0.020	-0.110	0.230
2020/01/31 16:44:30.2	358.130	0.060	-0.160	0.240
2020/01/31 16:44:30.3	358.130	0.100	-0.210	0.250
2020/01/31 16:44:30.4	358.140	0.140	-0.260	0.250
2020/01/31 16:44:30.5	358.150	0.190	-0.310	0.250
2020/01/31 16:44:30.6	358.160	0.230	-0.350	0.250
2020/01/31 16:44:30.7	358.180	0.270	-0.400	0.240
2020/01/31 16:44:30.8	358.190	0.310	-0.440	0.230
2020/01/31 16:44:30.9	358.200	0.350	-0.480	0.230
2020/01/31 16:44:31.0	358.220	0.380	-0.510	0.220
2020/01/31 16:44:31.1	358.230	0.420	-0.550	0.210
2020/01/31 16:44:31.2	358.240	0.450	-0.570	0.200
2020/01/31 16:44:31.3	358.240	0.470	-0.600	0.190
2020/01/31 16:44:31.4	358.250	0.500	-0.620	0.180
2020/01/31 16:44:31.5	358.260	0.520	-0.640	0.170
2020/01/31 16:44:31.6	358.260	0.530	-0.650	0.160
2020/01/31 16:44:31.7	358.250	0.540	-0.660	0.150
2020/01/31 16:44:31.8	358.250	0.550	-0.660	0.140
2020/01/31 16:44:31.9	358.240	0.550	-0.670	0.130
2020/01/31 16:44:32.0	358.230	0.550	-0.660	0.120
2020/01/31 16:44:32.1	358.220	0.540	-0.660	0.110
2020/01/31 16:44:32.2	358.210	0.530	-0.650	0.090
2020/01/31 16:44:32.3	358.190	0.510	-0.630	0.080
2020/01/31 16:44:32.4	358.170	0.490	-0.620	0.070
2020/01/31 16:44:32.5	358.150	0.470	-0.600	0.050
2020/01/31 16:44:32.6	358.130	0.440	-0.580	0.040
2020/01/31 16:44:32.7	358.100	0.410	-0.560	0.020
2020/01/31 16:44:32.8	358.080	0.370	-0.540	0.000
2020/01/31 16:44:32.9	358.060	0.340	-0.510	-0.010
2020/01/31 16:44:33.0	358.030	0.300	-0.490	-0.030
2020/01/31 16:44:33.1	358.000	0.250	-0.460	-0.050
2020/01/31 16:44:33.2	357.980	0.210	-0.440	-0.080
2020/01/31 16:44:33.3	357.960	0.160	-0.410	-0.100
2020/01/31 16:44:33.4	357.930	0.110	-0.390	-0.130
2020/01/31 16:44:33.5	357.910	0.070	-0.370	-0.150
2020/01/31 16:44:33.6	357.890	0.020	-0.350	-0.180
2020/01/31 16:44:33.7	357.860	-0.030	-0.330	-0.220
2020/01/31 16:44:33.8	357.850	-0.080	-0.310	-0.250
2020/01/31 16:44:33.9	357.840	-0.120	-0.300	-0.290
2020/01/31 16:44:34.0	357.830	-0.170	-0.290	-0.330
2020/01/31 16:44:34.1	357.820	-0.210	-0.270	-0.370
2020/01/31 16:44:34.2	357.820	-0.250	-0.270	-0.420
2020/01/31 16:44:34.3	357.820	-0.280	-0.260	-0.470
2020/01/31 16:44:34.4	357.820	-0.320	-0.260	-0.520
2020/01/31 16:44:34.5	357.830	-0.350	-0.260	-0.570
2020/01/31 16:44:34.6	357.830	-0.370	-0.270	-0.620
2020/01/31 16:44:34.7	357.840	-0.390	-0.280	-0.680
2020/01/31 16:44:34.8	357.860	-0.410	-0.290	-0.730
2020/01/31 16:44:34.9	357.870	-0.420	-0.300	-0.790
2020/01/31 16:44:35.0	357.890	-0.430	-0.320	-0.840
2020/01/31 16:44:35.1	357.910	-0.440	-0.330	-0.890
2020/01/31 16:44:35.2	357.930	-0.430	-0.360	-0.950
2020/01/31 16:44:35.3	357.960	-0.430	-0.380	-1.000
2020/01/31 16:44:35.4	357.990	-0.420	-0.410	-1.040
2020/01/31 16:44:35.5	358.010	-0.400	-0.430	-1.090
2020/01/31 16:44:35.6	358.040	-0.390	-0.460	-1.130
2020/01/31 16:44:35.7	358.070	-0.360	-0.490	-1.170
2020/01/31 16:44:35.8	358.100	-0.330	-0.520	-1.200
2020/01/31 16:44:35.9	358.130	-0.300	-0.550	-1.230
2020/01/31 16:44:36.0	358.160	-0.270	-0.580	-1.250
2020/01/31 16:44:36.1	358.190	-0.230	-0.610	-1.270
2020/01/31 16:44:36.2	358.220	-0.190	-0.640	-1.280
2020/01/31 16:44:36.3	358.250	-0.150	-0.670	-1.280
2020/01/31 16:44:36.4	358.280	-0.110	-0.700	-1.280
2020/01/31 16:44:36.5	358.310	-0.060	-0.720	-1.280
2020/01/31 16:44:36.6	358.340	-0.020	-0.750	-1.270
2020/01/31 16:44:36.7	358.380	0.030	-0.770	-1.250
2020/01/31 16:44:36.8	358.410	0.070	-0.790	-1.240
2020/01/31 16:44:36.9	358.440	0.120	-0.800	-1.220
2020/01/31 16:44:37.0	358.470	0.160	-0.810	-1.190
2020/01/31 16:44:37.1	358.500	0.200	-0.820	-1.170
2020/01/31 16:44:37.2	358.530	0.240	-0.820	-1.140
2020/01/31 16:44:37.3	358.560	0.280	-0.820	-1.110
2020/01/31 16:44:37.4	358.590	0.310	-0.820	-1.080
2020/01/31 16:44:37.5	358.620	0.340	-0.810	-1.050
2020/01/31 16:44:37.6	358.650	0.370	-0.800	-1.020
2020/01/31 16:44:37.7	358.680	0.390	-0.780	-0.980
2020/01/31 16:44:37.8	358.710	0.410	-0.760	-0.950
2020/01/31 16:44:37.9	358.740	0.430	-0.740	-0.910
2020/01/31 16:44:38.0	358.770	0.440	-0.710	-0.870
2020/01/31 16:44:38.1	358.790	0.450	-0.680	-0.830
2020/01/31 16:44:38.2	358.810	0.450	-0.640	-0.790
2020/01/31 16:44:38.3	358.830	0.450	-0.600	-0.750
2020/01/31 16:44:38.4	358.850	0.440	-0.560	-0.700
2020/01/31 16:44:38.5	358.860	0.430	-0.510	-0.660
2020/01/31 16:44:38.6	358.870	0.420	-0.460	-0.610
2020/01/31 16:44:38.7	358.880	0.400	-0.410	-0.570
2020/01/31 16:44:38.8	358.880	0.370	-0.350	-0.520
2020/01/31 16:44:38.9	358.880	0.340	-0.290	-0.480
2020/01/31 16:44:39.0	358.880	0.310	-0.230	-0.430
2020/01/31 16:44:39.1	358.880	0.270	-0.170	-0.390
2020/01/31 16:44:39.2	358.870	0.230	-0.110	-0.350
2020/01/31 16:44:39.3	358.860	0.190	-0.040	-0.320
2020/01/31 16:44:39.4	358.850	0.140	0.020	-0.280
2020/01/31 16:44:39.5	358.840	0.100	0.090	-0.250
2020/01/31 16:44:39.6	358.830	0.050	0.150	-0.230
2020/01/31 16:44:39.7	358.810	-0.000	0.220	-0.200
2020/01/31 16:44:39.8	358.790	-0.050	0.280	-0.180
2020/01/31 16:44:39.9	358.770	-0.110	0.340	-0.160
2020/01/31 16:44:40.0	358.750	-0.160	0.400	-0.140
2020/01/31 16:44:40.1	358.730	-0.210	0.450	-0.130
2020/01/31 16:44:40.2	358.700	-0.250	0.500	-0.120
2020/01/31 16:44:40.3	358.680	-0.300	0.550	-0.110
2020/01/31 16:44:40.4	358.660	-0.350	0.600	-0.100
2020/01/31 16:44:40.5	358.630	-0.390	0.640	-0.100
2020/01/31 16:44:40.6	358.600	-0.430	0.670	-0.100
2020/01/31 16:44:40.7	358.580	-0.460	0.700	-0.100
2020/01/31 16:44:40.8	358.560	-0.500	0.730	-0.100
2020/01/31 16:44:40.9	358.540	-0.520	0.750	-0.110
2020/01/31 16:44:41.0	358.510	-0.550	0.760	-0.110
2020/01/31 16:44:41.1	358.490	-0.570	0.770	-0.120
2020/01/31 16:44:41.2	358.470	-0.580	0.770	-0.130
2020/01/31 16:44:41.3	358.450	-0.590	0.770	-0.140
2020/01/31 16:44:41.4	358.440	-0.600	0.760	-0.150
2020/01/31 16:44:41.5	358.420	-0.600	0.750	-0.160
2020/01/31 16:44:41.6	358.400	-0.600	0.730	-0.170
2020/01/31 16:44:41.7	358.390	-0.590	0.710	-0.180
2020/01/31 16:44:41.8	358.380	-0.580	0.680	-0.190
2020/01/31 16:44:41.9	358.360	-0.560	0.650	-0.200
2020/01/31 16:44:42.0	358.350	-0.540	0.610	-0.200
2020/01/31 16:44:42.1	358.330	-0.520	0.570	-0.210
2020/01/31 16:44:42.2	358.310	-0.490	0.520	-0.210
2020/01/31 16:44:42.3	358.290	-0.460	0.480	-0.210
2020/01/31 16:44:42.4	358.270	-0.430	0.430	-0.200
2020/01/31 16:44:42.5	358.250	-0.390	0.380	-0.190
2020/01/31 16:44:42.6	358.230	-0.360	0.330	-0.180
2020/01/31 16:44:42.7	358.190	-0.320	0.270	-0.160
2020/01/31 16:44:42.8	358.160	-0.280	0.220	-0.140
2020/01/31 16:44:42.9	358.130	-0.250	0.170	-0.120
2020/01/31 16:44:43.0	358.100	-0.210	0.120	-0.100
2020/01/31 16:44:43.1	358.060	-0.170	0.070	-0.070
2020/01/31 16:44:43.2	358.020	-0.130	0.010	-0.040
2020/01/31 16:44:43.3	357.990	-0.090	-0.040	-0.010
2020/01/31 16:44:43.4	357.950	-0.050	-0.090	0.020
2020/01/31 16:44:43.5	357.910	-0.010	-0.140	0.050
2020/01/31 16:44:43.6	357.880	0.030	-0.190	0.080
2020/01/31 16:44:43.7	357.840	0.060	-0.240	0.110
2020/01/31 16:44:43.8	357.810	0.100	-0.290	0.130
2020/01/31 16:44:43.9	357.780	0.130	-0.340	0.160
2020/01/31 16:44:44.0	357.750	0.160	-0.390	0.180
2020/01/31 16:44:44.1	357.720	0.190	-0.440	0.200
2020/01/31 16:44:44.2	357.700	0.220	-0.490	0.220
2020/01/31 16:44:44.3	357.680	0.240	-0.530	0.230
2020/01/31 16:44:44.4	357.660	0.270	-0.580	0.240
2020/01/31 16:44:44.5	357.650	0.290	-0.630	0.240
2020/01/31 16:44:44.6	357.640	0.310	-0.670	0.250
2020/01/31 16:44:44.7	357.620	0.330	-0.720	0.250
2020/01/31 16:44:44.8	357.620	0.350	-0.760	0.240
2020/01/31 16:44:44.9	357.620	0.370	-0.800	0.230
2020/01/31 16:44:45.0	357.630	0.390	-0.850	0.220
2020/01/31 16:44:45.1	357.640	0.400	-0.890	0.200
2020/01/31 16:44:45.2	357.650	0.420	-0.930	0.190
2020/01/31 16:44:45.3	357.670	0.430	-0.960	0.170
2020/01/31 16:44:45.4	357.690	0.440	-1.000	0.140
2020/01/31 16:44:45.5	357.710	0.450	-1.030	0.110
2020/01/31 16:44:45.6	357.730	0.450	-1.060	0.080
2020/01/31 16:44:45.7	357.750	0.460	-1.090	0.050
2020/01/31 16:44:45.8	357.780	0.460	-1.110	0.020
2020/01/31 16:44:45.9	357.810	0.460	-1.130	-0.020
2020/01/31 16:44:46.0	357.840	0.460	-1.150	-0.060
2020/01/31 16:44:46.1	357.870	0.460	-1.160	-0.100
2020/01/31 16:44:46.2	357.910	0.460	-1.170	-0.150
2020/01/31 16:44:46.3	357.940	0.450	-1.180	-0.190
2020/01/31 16:44:46.4	357.980	0.440	-1.180	-0.240
2020/01/31 16:44:46.5	358.020	0.430	-1.180	-0.280
2020/01/31 16:44:46.6	358.050	0.420	-1.170	-0.330
2020/01/31 16:44:46.7	358.100	0.410	-1.150	-0.380
2020/01/31 16:44:46.8	358.140	0.390	-1.140	-0.430
2020/01/31 16:44:46.9	358.180	0.370	-1.120	-0.470
2020/01/31 16:44:47.0	358.220	0.360	-1.090	-0.520
2020/01/31 16:44:47.1	358.260	0.340	-1.070	-0.560
2020/01/31 16:44:47.2	358.310	0.320	-1.030	-0.610
2020/01/31 16:44:47.3	358.350	0.290	-1.000	-0.650
2020/01/31 16:44:47.4	358.400	0.270	-0.960	-0.680
2020/01/31 16:44:47.5	358.440	0.250	-0.920	-0.720
2020/01/31 16:44:47.6	358.490	0.220	-0.870	-0.750
2020/01/31 16:44:47.7	358.540	0.200	-0.830	-0.780
2020/01/31 16:44:47.8	358.590	0.170	-0.780	-0.810
2020/01/31 16:44:47.9	358.640	0.150	-0.730	-0.840
2020/01/31 16:44:48.0	358.680	0.120	-0.680	-0.870
2020/01/31 16:44:48.1	358.730	0.100	-0.630	-0.890
2020/01/31 16:44:48.2	358.770	0.070	-0.570	-0.910
2020/01/31 16:44:48.3	358.820	0.050	-0.520	-0.920
2020/01/31 16:44:48.4	358.860	0.020	-0.470	-0.940
2020/01/31 16:44:48.5	358.900	0.000	-0.420	-0.950
2020/01/31 16:44:48.6	358.940	-0.020	-0.370	-0.960
2020/01/31 16:44:48.7	358.970	-0.050	-0.310	-0.970
2020/01/31 16:44:48.8	359.010	-0.070	-0.270	-0.970
2020/01/31 16:44:48.9	359.040	-0.090	-0.220	-0.970
2020/01/31 16:44:49.0	359.070	-0.110	-0.170	-0.970
2020/01/31 16:44:49.1	359.100	-0.130	-0.130	-0.970
2020/01/31 16:44:49.2	359.120	-0.150	-0.080	-0.960
2020/01/31 16:44:49.3	359.150	-0.170	-0.040	-0.960
2020/01/31 16:44:49.4	359.160	-0.190	-0.000	-0.950
2020/01/31 16:44:49.5	359.180	-0.210	0.030	-0.930
2020/01/31 16:44:49.6	359.190	-0.230	0.070	-0.920
2020/01/31 16:44:49.7	359.190	-0.240	0.100	-0.900
2020/01/31 16:44:49.8	359.190	-0.260	0.130	-0.880
2020/01/31 16:44:49.9	359.190	-0.270	0.150	-0.860
2020/01/31 16:44:50.0	359.190	-0.280	0.180	-0.830
2020/01/31 16:44:50.1	359.180	-0.290	0.210	-0.810
2020/01/31 16:44:50.2	359.170	-0.300	0.230	-0.780
2020/01/31 16:44:50.3	359.160	-0.310	0.250	-0.750
2020/01/31 16:44:50.4	359.140	-0.320	0.280	-0.720
2020/01/31 16:44:50.5	359.120	-0.320	0.300	-0.680
2020/01/31 16:44:50.6	359.100	-0.330	0.310	-0.640
2020/01/31 16:44:50.7	359.080	-0.330	0.330	-0.600
2020/01/31 16:44:50.8	359.050	-0.330	0.350	-0.560
2020/01/31 16:44:50.9	359.020	-0.330	0.370	-0.520
2020/01/31 16:44:51.0	358.990	-0.330	0.380	-0.470
2020/01/31 16:44:51.1	358.950	-0.330	0.400	-0.430
2020/01/31 16:44:51.2	358.910	-0.330	0.410	-0.380
2020/01/31 16:44:51.3	358.880	-0.320	0.420	-0.330
2020/01/31 16:44:51.4	358.830	-0.320	0.430	-0.280
2020/01/31 16:44:51.5	358.790	-0.310	0.440	-0.230
2020/01/31 16:44:51.6	358.750	-0.300	0.440	-0.180
2020/01/31 16:44:51.7	358.700	-0.290	0.450	-0.130
2020/01/31 16:44:51.8	358.650	-0.270	0.450	-0.080
2020/01/31 16:44:51.9	358.610	-0.260	0.450	-0.030
2020/01/31 16:44:52.0	358.570	-0.240	0.450	0.020
2020/01/31 16:44:52.1	358.530	-0.220	0.440	0.070
2020/01/31 16:44:52.2	358.480	-0.210	0.440	0.110
2020/01/31 16:44:52.3	358.440	-0.190	0.430	0.150
2020/01/31 16:44:52.4	358.400	-0.170	0.420	0.200
2020/01/31 16:44:52.5	358.360	-0.140	0.400	0.240
2020/01/31 16:44:52.6	358.320	-0.120	0.390	0.270
2020/01/31 16:44:52.7	358.280	-0.100	0.370	0.310
2020/01/31 16:44:52.8	358.240	-0.080	0.350	0.340
2020/01/31 16:44:52.9	358.200	-0.050	0.330	0.370
2020/01/31 16:44:53.0	358.160	-0.030	0.300	0.390
2020/01/31 16:44:53.1	358.120	-0.010	0.270	0.410
2020/01/31 16:44:53.2	358.080	0.010	0.240	0.430
2020/01/31 16:44:53.3	358.050	0.040	0.210	0.440
2020/01/31 16:44:53.4	358.010	0.060	0.180	0.450
2020/01/31 16:44:53.5	357.980	0.080	0.140	0.460
2020/01/31 16:44:53.6	357.950	0.100	0.100	0.460
2020/01/31 16:44:53.7	357.910	0.110	0.060	0.460
2020/01/31 16:44:53.8	357.880	0.130	0.010	0.450
2020/01/31 16:44:53.9	357.850	0.150	-0.030	0.440
2020/01/31 16:44:54.0	357.820	0.160	-0.080	0.420
2020/01/31 16:44:54.1	357.800	0.170	-0.130	0.400
2020/01/31 16:44:54.2	357.780	0.180	-0.180	0.370
2020/01/31 16:44:54.3	357.770	0.190	-0.230	0.340
2020/01/31 16:44:54.4	357.750	0.190	-0.280	0.310
2020/01/31 16:44:54.5	357.740	0.200	-0.330	0.270
2020/01/31 16:44:54.6	357.740	0.200	-0.380	0.220
2020/01/31 16:44:54.7	357.730	0.200	-0.440	0.170
2020/01/31 16:44:54.8	357.730	0.200	-0.490	0.120
2020/01/31 16:44:54.9	357.730	0.200	-0.540	0.060
2020/01/31 16:44:55.0	357.730	0.200	-0.590	0.010
2020/01/31 16:44:55.1	357.740	0.190	-0.630	-0.050
2020/01/31 16:44:55.2	357.760	0.190	-0.670	-0.110
2020/01/31 16:44:55.3	357.770	0.180	-0.720	-0.180
2020/01/31 16:44:55.4	357.790	0.170	-0.750	-0.240
2020/01/31 16:44:55.5	357.810	0.170	-0.790	-0.300
2020/01/31 16:44:55.6	357.840	0.160	-0.820	-0.370
2020/01/31 16:44:55.7	357.870	0.150	-0.850	-0.430
2020/01/31 16:44:55.8	357.900	0.140	-0.870	-0.500
2020/01/31 16:44:55.9	357.930	0.130	-0.890	-0.560
2020/01/31 16:44:56.0	357.960	0.120	-0.910	-0.620
2020/01/31 16:44:56.1	357.990	0.110	-0.920	-0.680
2020/01/31 16:44:56.2	358.030	0.100	-0.920	-0.730
2020/01/31 16:44:56.3	358.060	0.090	-0.920	-0.790
2020/01/31 16:44:56.4	358.090	0.090	-0.920	-0.840
2020/01/31 16:44:56.5	358.130	0.080	-0.910	-0.880
2020/01/31 16:44:56.6	358.160	0.070	-0.900	-0.930
2020/01/31 16:44:56.7	358.190	0.060	-0.880	-0.970
2020/01/31 16:44:56.8	358.220	0.050	-0.850	-1.000
2020/01/31 16:44:56.9	358.260	0.040	-0.820	-1.030
2020/01/31 16:44:57.0	358.290	0.030	-0.790	-1.050
2020/01/31 16:44:57.1	358.320	0.020	-0.760	-1.080
2020/01/31 16:44:57.2	358.340	0.010	-0.720	-1.090
2020/01/31 16:44:57.3	358.370	0.000	-0.670	-1.100
2020/01/31 16:44:57.4	358.390	-0.010	-0.630	-1.100
2020/01/31 16:44:57.5	358.420	-0.020	-0.580	-1.100
2020/01/31 16:44:57.6	358.430	-0.030	-0.530	-1.100
2020/01/31 16:44:57.7	358.450	-0.040	-0.480	-1.080
2020/01/31 16:44:57.8	358.460	-0.050	-0.420	-1.070
2020/01/31 16:44:57.9	358.470	-0.060	-0.370	-1.040
2020/01/31 16:44:58.0	358.480	-0.070	-0.320	-1.020
2020/01/31 16:44:58.1	358.490	-0.080	-0.270	-0.990
2020/01/31 16:44:58.2	358.490	-0.090	-0.220	-0.950
2020/01/31 16:44:58.3	358.490	-0.090	-0.180	-0.920
2020/01/31 16:44:58.4	358.490	-0.100	-0.140	-0.880
2020/01/31 16:44:58.5	358.490	-0.110	-0.100	-0.840
2020/01/31 16:44:58.6	358.490	-0.120	-0.060	-0.790
2020/01/31 16:44:58.7	358.480	-0.130	-0.030	-0.740
2020/01/31 16:44:58.8	358.480	-0.140	-0.000	-0.700
2020/01/31 16:44:58.9	358.480	-0.140	0.020	-0.650
2020/01/31 16:44:59.0	358.470	-0.150	0.030	-0.610
2020/01/31 16:44:59.1	358.470	-0.150	0.050	-0.560
2020/01/31 16:44:59.2	358.460	-0.150	0.060	-0.520
2020/01/31 16:44:59.3	358.460	-0.160	0.060	-0.480
2020/01/31 16:44:59.4	358.460	-0.160	0.050	-0.440
2020/01/31 16:44:59.5	358.460	-0.160	0.050	-0.400
2020/01/31 16:44:59.6	358.460	-0.150	0.030	-0.370
2020/01/31 16:44:59.7	358.460	-0.150	0.020	-0.340
2020/01/31 16:44:59.8	358.460	-0.150	-0.000	-0.310
2020/01/31 16:44:59.9	358.470	-0.140	-0.030	-0.280
2020/01/31 16:45:00.0	358.470	-0.130	-0.060	-0.260
2020/01/31 16:45:00.1	358.480	-0.120	-0.090	-0.240
2020/01/31 16:45:00.2	358.480	-0.110	-0.130	-0.230
2020/01/31 16:45:00.3	358.490	-0.090	-0.170	-0.210
2020/01/31 16:45:00.4	358.500	-0.080	-0.210	-0.200
2020/01/31 16:45:00.5	358.510	-0.060	-0.250	-0.190
2020/01/31 16:45:00.6	358.520	-0.040	-0.290	-0.180
2020/01/31 16:45:00.7	358.540	-0.020	-0.340	-0.170
2020/01/31 16:45:00.8	358.550	-0.000	-0.380	-0.170
2020/01/31 16:45:00.9	358.570	0.020	-0.420	-0.170
2020/01/31 16:45:01.0	358.580	0.040	-0.460	-0.160
2020/01/31 16:45:01.1	358.600	0.060	-0.490	-0.160
2020/01/31 16:45:01.2	358.620	0.080	-0.520	-0.160
2020/01/31 16:45:01.3	358.630	0.100	-0.550	-0.160
2020/01/31 16:45:01.4	358.650	0.120	-0.580	-0.160
2020/01/31 16:45:01.5	358.670	0.140	-0.600	-0.160
2020/01/31 16:45:01.6	358.690	0.150	-0.610	-0.160
2020/01/31 16:45:01.7	358.710	0.160	-0.620	-0.160
2020/01/31 16:45:01.8	358.720	0.180	-0.630	-0.160
2020/01/31 16:45:01.9	358.740	0.180	-0.630	-0.160
2020/01/31 16:45:02.0	358.750	0.190	-0.620	-0.160
2020/01/31 16:45:02.1	358.760	0.190	-0.610	-0.170
2020/01/31 16:45:02.2	358.780	0.190	-0.600	-0.170
2020/01/31 16:45:02.3	358.790	0.190	-0.580	-0.170
2020/01/31 16:45:02.4	358.800	0.180	-0.550	-0.180
2020/01/31 16:45:02.5	358.810	0.180	-0.520	-0.180
2020/01/31 16:45:02.6	358.810	0.160	-0.490	-0.190
2020/01/31 16:45:02.7	358.820	0.150	-0.450	-0.190
2020/01/31 16:45:02.8	358.820	0.130	-0.410	-0.200
2020/01/31 16:45:02.9	358.820	0.110	-0.370	-0.200
2020/01/31 16:45:03.0	358.820	0.090	-0.320	-0.210
2020/01/31 16:45:03.1	358.820	0.070	-0.280	-0.220
2020/01/31 16:45:03.2	358.820	0.040	-0.230	-0.220
2020/01/31 16:45:03.3	358.810	0.020	-0.180	-0.230
2020/01/31 16:45:03.4	358.800	-0.010	-0.130	-0.240
2020/01/31 16:45:03.5	358.790	-0.040	-0.080	-0.240
2020/01/31 16:45:03.6	358.780	-0.060	-0.030	-0.250
2020/01/31 16:45:03.7	358.750	-0.090	0.020	-0.260
2020/01/31 16:45:03.8	358.740	-0.120	0.060	-0.260
2020/01/31 16:45:03.9	358.720	-0.140	0.110	-0.260
2020/01/31 16:45:04.0	358.700	-0.170	0.150	-0.270
2020/01/31 16:45:04.1	358.680	-0.190	0.180	-0.270
2020/01/31 16:45:04.2	358.660	-0.210	0.220	-0.270
2020/01/31 16:45:04.3	358.640	-0.230	0.250	-0.270
2020/01/31 16:45:04.4	358.620	-0.250	0.280	-0.270
2020/01/31 16:45:04.5	358.600	-0.260	0.300	-0.270
2020/01/31 16:45:04.6	358.580	-0.270	0.310	-0.270
2020/01/31 16:45:04.7	358.570	-0.270	0.320	-0.270
2020/01/31 16:45:04.8	358.550	-0.270	0.330	-0.260
2020/01/31 16:45:04.9	358.530	-0.270	0.330	-0.260
2020/01/31 16:45:05.0	358.510	-0.260	0.330	-0.250
2020/01/31 16:45:05.1	358.490	-0.250	0.320	-0.250
2020/01/31 16:45:05.2	358.470	-0.230	0.300	-0.240
2020/01/31 16:45:05.3	358.450	-0.210	0.290	-0.230
2020/01/31 16:45:05.4	358.430	-0.190	0.270	-0.220
2020/01/31 16:45:05.5	358.410	-0.160	0.240	-0.210
2020/01/31 16:45:05.6	358.380	-0.140	0.210	-0.200
2020/01/31 16:45:05.7	358.360	-0.100	0.190	-0.190
2020/01/31 16:45:05.8	358.330	-0.070	0.160	-0.180
2020/01/31 16:45:05.9	358.300	-0.030	0.130	-0.170
2020/01/31 16:45:06.0	358.270	0.000	0.090	-0.150
2020/01/31 16:45:06.1	358.230	0.040	0.060	-0.140
2020/01/31 16:45:06.2	358.200	0.080	0.030	-0.120
2020/01/31 16:45:06.3	358.160	0.120	-0.000	-0.110
2020/01/31 16:45:06.4	358.130	0.160	-0.040	-0.090
2020/01/31 16:45:06.5	358.090	0.190	-0.070	-0.080
2020/01/31 16:45:06.6	358.050	0.230	-0.100	-0.060
2020/01/31 16:45:06.7	358.030	0.270	-0.130	-0.030
2020/01/31 16:45:06.8	357.990	0.300	-0.150	-0.010
2020/01/31 16:45:06.9	357.960	0.330	-0.180	0.010
2020/01/31 16:45:07.0	357.920	0.360	-0.200	0.030
2020/01/31 16:45:07.1	357.890	0.390	-0.220	0.050
2020/01/31 16:45:07.2	357.860	0.410	-0.240	0.080
2020/01/31 16:45:07.3	357.830	0.430	-0.260	0.100
2020/01/31 16:45:07.4	357.800	0.450	-0.280	0.130
2020/01/31 16:45:07.5	357.780	0.470	-0.300	0.150
2020/01/31 16:45:07.6	357.760	0.480	-0.320	0.170
2020/01/31 16:45:07.7	357.740	0.490	-0.340	0.190
2020/01/31 16:45:07.8	357.720	0.500	-0.350	0.200
2020/01/31 16:45:07.9	357.720	0.500	-0.370	0.220
2020/01/31 16:45:08.0	357.710	0.500	-0.380	0.230
2020/01/31 16:45:08.1	357.710	0.490	-0.400	0.240
2020/01/31 16:45:08.2	357.710	0.490	-0.410	0.250
2020/01/31 16:45:08.3	357.720	0.480	-0.430	0.250
2020/01/31 16:45:08.4	357.720	0.460	-0.450	0.240
2020/01/31 16:45:08.5	357.740	0.450	-0.460	0.240
2020/01/31 16:45:08.6	357.750	0.430	-0.480	0.220
2020/01/31 16:45:08.7	357.770	0.400	-0.490	0.210
2020/01/31 16:45:08.8	357.790	0.380	-0.500	0.190
2020/01/31 16:45:08.9	357.820	0.350	-0.520	0.160
2020/01/31 16:45:09.0	357.840	0.320	-0.530	0.130
2020/01/31 16:45:09.1	357.870	0.290	-0.540	0.090
2020/01/31 16:45:09.2	357.900	0.250	-0.550	0.060
2020/01/31 16:45:09.3	357.930	0.220	-0.570	0.020
2020/01/31 16:45:09.4	357.970	0.180	-0.570	-0.020
2020/01/31 16:45:09.5	358.000	0.150	-0.580	-0.060
2020/01/31 16:45:09.6	358.030	0.110	-0.580	-0.100
2020/01/31 16:45:09.7	358.070	0.070	-0.590	-0.140
2020/01/31 16:45:09.8	358.100	0.030	-0.580	-0.180
2020/01/31 16:45:09.9	358.120	-0.010	-0.580	-0.210
2020/01/31 16:45:10.0	358.150	-0.050	-0.570	-0.240
2020/01/31 16:45:10.1	358.170	-0.090	-0.560	-0.270
2020/01/31 16:45:10.2	358.190	-0.120	-0.540	-0.300
2020/01/31 16:45:10.3	358.210	-0.160	-0.530	-0.320
2020/01/31 16:45:10.4	358.220	-0.200	-0.510	-0.330
2020/01/31 16:45:10.5	358.230	-0.240	-0.480	-0.340
2020/01/31 16:45:10.6	358.240	-0.270	-0.460	-0.350
2020/01/31 16:45:10.7	358.240	-0.300	-0.440	-0.360
2020/01/31 16:45:10.8	358.240	-0.330	-0.410	-0.360
2020/01/31 16:45:10.9	358.240	-0.360	-0.390	-0.370
2020/01/31 16:45:11.0	358.240	-0.390	-0.360	-0.370
2020/01/31 16:45:11.1	358.240	-0.410	-0.340	-0.370
2020/01/31 16:45:11.2	358.230	-0.440	-0.320	-0.360
2020/01/31 16:45:11.3	358.230	-0.450	-0.310	-0.360
2020/01/31 16:45:11.4	358.230	-0.470	-0.290	-0.360
2020/01/31 16:45:11.5	358.230	-0.480	-0.280	-0.360
2020/01/31 16:45:11.6	358.230	-0.490	-0.280	-0.360
2020/01/31 16:45:11.7	358.220	-0.490	-0.280	-0.360
2020/01/31 16:45:11.8	358.220	-0.490	-0.280	-0.360
2020/01/31 16:45:11.9	358.230	-0.480	-0.290	-0.370
2020/01/31 16:45:12.0	358.240	-0.480	-0.300	-0.370
2020/01/31 16:45:12.1	358.250	-0.460	-0.320	-0.380
2020/01/31 16:45:12.2	358.270	-0.440	-0.340	-0.390
2020/01/31 16:45:12.3	358.290	-0.420	-0.370	-0.400
2020/01/31 16:45:12.4	358.310	-0.390	-0.410	-0.410
2020/01/31 16:45:12.5	358.340	-0.360	-0.440	-0.430
2020/01/31 16:45:12.6	358.360	-0.320	-0.490	-0.440
2020/01/31 16:45:12.7	358.390	-0.280	-0.530	-0.460
2020/01/31 16:45:12.8	358.430	-0.240	-0.570	-0.470
2020/01/31 16:45:12.9	358.460	-0.190	-0.620	-0.490
2020/01/31 16:45:13.0	358.500	-0.150	-0.670	-0.500
2020/01/31 16:45:13.1	358.530	-0.100	-0.720	-0.520
2020/01/31 16:45:13.2	358.570	-0.040	-0.760	-0.530
2020/01/31 16:45:13.3	358.600	0.010	-0.800	-0.530
2020/01/31 16:45:13.4	358.630	0.060	-0.840	-0.540
2020/01/31 16:45:13.5	358.660	0.110	-0.870	-0.540
2020/01/31 16:45:13.6	358.690	0.160	-0.900	-0.550
2020/01/31 16:45:13.7	358.700	0.200	-0.920	-0.540
2020/01/31 16:45:13.8	358.720	0.250	-0.930	-0.540
2020/01/31 16:45:13.9	358.740	0.290	-0.930	-0.530
2020/01/31 16:45:14.0	358.750	0.320	-0.920	-0.520
2020/01/31 16:45:14.1	358.760	0.350	-0.910	-0.500
2020/01/31 16:45:14.2	358.760	0.380	-0.880	-0.480
2020/01/31 16:45:14.3	358.760	0.400	-0.850	-0.460
2020/01/31 16:45:14.4	358.750	0.420	-0.800	-0.430
2020/01/31 16:45:14.5	358.740	0.430	-0.750	-0.410
2020/01/31 16:45:14.6	358.730	0.430	-0.690	-0.380
2020/01/31 16:45:14.7	358.710	0.430	-0.610	-0.340
2020/01/31 16:45:14.8	358.690	0.420	-0.530	-0.310
2020/01/31 16:45:14.9	358.660	0.400	-0.450	-0.270
2020/01/31 16:45:15.0	358.630	0.380	-0.360	-0.240
2020/01/31 16:45:15.1	358.600	0.350	-0.260	-0.200
2020/01/31 16:45:15.2	358.560	0.310	-0.150	-0.160
2020/01/31 16:45:15.3	358.520	0.270	-0.050	-0.120
2020/01/31 16:45:15.4	358.480	0.230	0.060	-0.080
2020/01/31 16:45:15.5	358.430	0.180	0.170	-0.040
2020/01/31 16:45:15.6	358.380	0.130	0.280	-0.000
2020/01/31 16:45:15.7	358.340	0.070	0.390	0.030
2020/01/31 16:45:15.8	358.290	0.010	0.490	0.070
2020/01/31 16:45:15.9	358.240	-0.050	0.600	0.110
2020/01/31 16:45:16.0	358.190	-0.120	0.700	0.140
2020/01/31 16:45:16.1	358.140	-0.180	0.790	0.170
2020/01/31 16:45:16.2	358.090	-0.240	0.880	0.200
2020/01/31 16:45:16.3	358.040	-0.310	0.950	0.230
2020/01/31 16:45:16.4	357.990	-0.370	1.030	0.250
2020/01/31 16:45:16.5	357.950	-0.430	1.090	0.270
2020/01/31 16:45:16.6	357.910	-0.490	1.140	0.280
2020/01/31 16:45:16.7	357.870	-0.540	1.180	0.290
2020/01/31 16:45:16.8	357.830	-0.590	1.210	0.290
2020/01/31 16:45:16.9	357.800	-0.640	1.230	0.290
2020/01/31 16:45:17.0	357.760	-0.680	1.240	0.290
2020/01/31 16:45:17.1	357.730	-0.720	1.240	0.280
2020/01/31 16:45:17.2	357.700	-0.740	1.230	0.260
2020/01/31 16:45:17.3	357.670	-0.770	1.210	0.240
2020/01/31 16:45:17.4	357.640	-0.780	1.180	0.220
2020/01/31 16:45:17.5	357.610	-0.790	1.140	0.200
2020/01/31 16:45:17.6	357.580	-0.790	1.080	0.170
2020/01/31 16:45:17.7	357.560	-0.790	1.030	0.150
2020/01/31 16:45:17.8	357.530	-0.780	0.960	0.120
2020/01/31 16:45:17.9	357.510	-0.760	0.890	0.090
2020/01/31 16:45:18.0	357.490	-0.730	0.810	0.060
2020/01/31 16:45:18.1	357.460	-0.700	0.720	0.040
2020/01/31 16:45:18.2	357.440	-0.660	0.630	0.010
2020/01/31 16:45:18.3	357.420	-0.610	0.540	-0.010
2020/01/31 16:45:18.4	357.390	-0.560	0.440	-0.030
2020/01/31 16:45:18.5	357.370	-0.500	0.350	-0.040
2020/01/31 16:45:18.6	357.350	-0.430	0.250	-0.060
2020/01/31 16:45:18.7	357.330	-0.370	0.140	-0.070
2020/01/31 16:45:18.8	357.310	-0.300	0.040	-0.080
2020/01/31 16:45:18.9	357.280	-0.220	-0.050	-0.080
2020/01/31 16:45:19.0	357.260	-0.140	-0.150	-0.090
2020/01/31 16:45:19.1	357.240	-0.070	-0.250	-0.090
2020/01/31 16:45:19.2	357.220	0.020	-0.340	-0.080
2020/01/31 16:45:19.3	357.200	0.100	-0.440	-0.080
2020/01/31 16:45:19.4	357.180	0.180	-0.530	-0.070
2020/01/31 16:45:19.5	357.170	0.260	-0.610	-0.060
2020/01/31 16:45:19.6	357.160	0.340	-0.700	-0.050
2020/01/31 16:45:19.7	357.150	0.410	-0.780	-0.040
2020/01/31 16:45:19.8	357.140	0.490	-0.860	-0.030
2020/01/31 16:45:19.9	357.140	0.560	-0.940	-0.020
2020/01/31 16:45:20.0	357.130	0.630	-1.010	-0.020
2020/01/31 16:45:20.1				
2020/01/31 16:45:20.2	357.130	0.700	-1.080	-0.010
2020/01/31 16:45:20.3	357.140	0.810	-1.210	-0.000
2020/01/31 16:45:20.4	357.150	0.860	-1.270	0.000
2020/01/31 16:45:20.5	357.160	0.910	-1.320	0.000
2020/01/31 16:45:20.6	357.180	0.950	-1.370	-0.000
2020/01/31 16:45:20.7	357.200	0.990	-1.420	-0.000
2020/01/31 16:45:20.8	357.220	1.020	-1.460	-0.010
2020/01/31 16:45:20.9	357.240	1.040	-1.500	-0.020
2020/01/31 16:45:21.0	357.260	1.060	-1.530	-0.030
2020/01/31 16:45:21.1	357.290	1.070	-1.560	-0.040
2020/01/31 16:45:21.2	357.320	1.070	-1.580	-0.060
2020/01/31 16:45:21.3	357.340	1.070	-1.600	-0.080
2020/01/31 16:45:21.4	357.370	1.070	-1.610	-0.100
2020/01/31 16:45:21.5	357.400	1.050	-1.610	-0.120
2020/01/31 16:45:21.6	357.430	1.030	-1.610	-0.150
2020/01/31 16:45:21.7	357.460	1.000	-1.610	-0.180
2020/01/31 16:45:21.8	357.490	0.970	-1.590	-0.210
2020/01/31 16:45:21.9	357.520	0.930	-1.570	-0.240
2020/01/31 16:45:22.0	357.560	0.890	-1.550	-0.280
2020/01/31 16:45:22.1	357.590	0.840	-1.520	-0.320
2020/01/31 16:45:22.2	357.620	0.780	-1.480	-0.360
2020/01/31 16:45:22.3	357.650	0.720	-1.440	-0.400
2020/01/31 16:45:22.4	357.690	0.660	-1.390	-0.450
2020/01/31 16:45:22.5	357.720	0.590	-1.340	-0.500
2020/01/31 16:45:22.6	357.750	0.520	-1.290	-0.550
2020/01/31 16:45:22.7	357.800	0.450	-1.230	-0.590
2020/01/31 16:45:22.8	357.830	0.370	-1.160	-0.640
2020/01/31 16:45:22.9	357.860	0.290	-1.090	-0.690
2020/01/31 16:45:23.0	357.900	0.210	-1.020	-0.740
2020/01/31 16:45:23.1	357.930	0.130	-0.950	-0.780
2020/01/31 16:45:23.2	357.960	0.050	-0.870	-0.830
2020/01/31 16:45:23.3	358.000	-0.030	-0.790	-0.870
2020/01/31 16:45:23.4	358.030	-0.110	-0.710	-0.920
2020/01/31 16:45:23.5	358.060	-0.190	-0.630	-0.960
2020/01/31 16:45:23.6	358.100	-0.260	-0.550	-1.000
2020/01/31 16:45:23.7	358.150	-0.340	-0.470	-1.040
2020/01/31 16:45:23.8	358.180	-0.410	-0.380	-1.070
2020/01/31 16:45:23.9	358.210	-0.480	-0.300	-1.100
2020/01/31 16:45:24.0	358.240	-0.550	-0.220	-1.120
2020/01/31 16:45:24.1	358.270	-0.610	-0.130	-1.150
2020/01/31 16:45:24.2	358.300	-0.670	-0.050	-1.170
2020/01/31 16:45:24.3	358.330	-0.720	0.030	-1.180
2020/01/31 16:45:24.4	358.360	-0.770	0.110	-1.200
2020/01/31 16:45:24.5	358.390	-0.810	0.190	-1.210
2020/01/31 16:45:24.6	358.420	-0.850	0.270	-1.210
2020/01/31 16:45:24.7	358.440	-0.880	0.340	-1.210
2020/01/31 16:45:24.8	358.460	-0.910	0.410	-1.210
2020/01/31 16:45:24.9	358.480	-0.930	0.480	-1.200
2020/01/31 16:45:25.0	358.490	-0.950	0.550	-1.180
2020/01/31 16:45:25.1	358.500	-0.960	0.610	-1.160
2020/01/31 16:45:25.2	358.510	-0.960	0.670	-1.130
2020/01/31 16:45:25.3	358.510	-0.960	0.730	-1.090
2020/01/31 16:45:25.4	358.510	-0.960	0.790	-1.040
2020/01/31 16:45:25.5	358.500	-0.950	0.840	-0.990
2020/01/31 16:45:25.6	358.490	-0.930	0.890	-0.930
2020/01/31 16:45:25.7	358.460	-0.910	0.940	-0.860
2020/01/31 16:45:25.8	358.440	-0.890	0.980	-0.790
2020/01/31 16:45:25.9	358.410	-0.860	1.020	-0.710
2020/01/31 16:45:26.0	358.380	-0.830	1.060	-0.630
2020/01/31 16:45:26.1	358.340	-0.800	1.100	-0.550
2020/01/31 16:45:26.2	358.290	-0.770	1.130	-0.460
2020/01/31 16:45:26.3	358.240	-0.730	1.150	-0.360
2020/01/31 16:45:26.4	358.190	-0.690	1.170	-0.270
2020/01/31 16:45:26.5	358.140	-0.650	1.190	-0.170
2020/01/31 16:45:26.6	358.080	-0.610	1.200	-0.080
2020/01/31 16:45:26.7	358.010	-0.570	1.200	0.020
2020/01/31 16:45:26.8	357.940	-0.520	1.200	0.110
2020/01/31 16:45:26.9	357.880	-0.480	1.190	0.210
2020/01/31 16:45:27.0	357.820	-0.430	1.180	0.300
2020/01/31 16:45:27.1	357.750	-0.390	1.160	0.380
2020/01/31 16:45:27.2	357.690	-0.340	1.130	0.470
2020/01/31 16:45:27.3	357.630	-0.290	1.090	0.550
2020/01/31 16:45:27.4	357.560	-0.250	1.040	0.620
2020/01/31 16:45:27.5	357.500	-0.200	0.990	0.690
2020/01/31 16:45:27.6	357.440	-0.160	0.930	0.750
2020/01/31 16:45:27.7	357.390	-0.110	0.860	0.810
2020/01/31 16:45:27.8	357.340	-0.070	0.790	0.860
2020/01/31 16:45:27.9	357.280	-0.030	0.700	0.900
2020/01/31 16:45:28.0	357.240	0.020	0.610	0.930
2020/01/31 16:45:28.1	357.190	0.060	0.510	0.960
2020/01/31 16:45:28.2	357.150	0.100	0.410	0.980
2020/01/31 16:45:28.3	357.110	0.140	0.300	0.980
2020/01/31 16:45:28.4	357.080	0.180	0.190	0.990
2020/01/31 16:45:28.5	357.050	0.220	0.070	0.980
2020/01/31 16:45:28.6	357.020	0.260	-0.050	0.970
2020/01/31 16:45:28.7	356.990	0.300	-0.180	0.950
2020/01/31 16:45:28.8	356.970	0.330	-0.310	0.930
2020/01/31 16:45:28.9	356.950	0.370	-0.430	0.890
2020/01/31 16:45:29.0	356.940	0.400	-0.560	0.860
2020/01/31 16:45:29.1	356.930	0.430	-0.690	0.810
2020/01/31 16:45:29.2	356.930	0.460	-0.810	0.760
2020/01/31 16:45:29.3	356.930	0.490	-0.930	0.710
2020/01/31 16:45:29.4	356.930	0.510	-1.050	0.650
2020/01/31 16:45:29.5	356.940	0.530	-1.160	0.580
2020/01/31 16:45:29.6	356.950	0.550	-1.270	0.520
2020/01/31 16:45:29.7	356.960	0.570	-1.370	0.440
2020/01/31 16:45:29.8	356.970	0.590	-1.460	0.370
2020/01/31 16:45:29.9	356.990	0.600	-1.540	0.300
2020/01/31 16:45:30.0	357.010	0.610	-1.620	0.220
2020/01/31 16:45:30.1	357.030	0.610	-1.680	0.150
2020/01/31 16:45:30.2	357.050	0.610	-1.740	0.070
2020/01/31 16:45:30.3	357.070	0.610	-1.790	-0.010
2020/01/31 16:45:30.4	357.100	0.610	-1.830	-0.090
2020/01/31 16:45:30.5	357.130	0.600	-1.860	-0.170
2020/01/31 16:45:30.6	357.160	0.590	-1.880	-0.240
2020/01/31 16:45:30.7	357.200	0.580	-1.880	-0.320
2020/01/31 16:45:30.8	357.230	0.560	-1.880	-0.400
2020/01/31 16:45:30.9	357.270	0.540	-1.880	-0.470
2020/01/31 16:45:31.0	357.300	0.520	-1.860	-0.550
2020/01/31 16:45:31.1	357.340	0.490	-1.830	-0.620
2020/01/31 16:45:31.2	357.380	0.460	-1.800	-0.690
2020/01/31 16:45:31.3	357.420	0.430	-1.760	-0.760
2020/01/31 16:45:31.4	357.460	0.400	-1.710	-0.830
2020/01/31 16:45:31.5	357.500	0.370	-1.650	-0.890
2020/01/31 16:45:31.6	357.540	0.330	-1.590	-0.960
2020/01/31 16:45:31.7	357.580	0.290	-1.520	-1.020
2020/01/31 16:45:31.8	357.620	0.250	-1.450	-1.080
2020/01/31 16:45:31.9	357.660	0.210	-1.370	-1.140
2020/01/31 16:45:32.0	357.700	0.170	-1.290	-1.190
2020/01/31 16:45:32.1	357.750	0.130	-1.210	-1.240
2020/01/31 16:45:32.2	357.790	0.090	-1.120	-1.280
2020/01/31 16:45:32.3	357.830	0.060	-1.030	-1.320
2020/01/31 16:45:32.4	357.870	0.020	-0.940	-1.360
2020/01/31 16:45:32.5	357.920	-0.020	-0.840	-1.390
2020/01/31 16:45:32.6	357.960	-0.050	-0.750	-1.420
2020/01/31 16:45:32.7	358.010	-0.090	-0.650	-1.440
2020/01/31 16:45:32.8	358.050	-0.120	-0.550	-1.460
2020/01/31 16:45:32.9	358.080	-0.150	-0.460	-1.470
2020/01/31 16:45:33.0	358.110	-0.170	-0.360	-1.470
2020/01/31 16:45:33.1	358.140	-0.190	-0.260	-1.460
2020/01/31 16:45:33.2	358.170	-0.220	-0.170	-1.450
2020/01/31 16:45:33.3	358.190	-0.230	-0.070	-1.430
2020/01/31 16:45:33.4	358.210	-0.250	0.020	-1.400
2020/01/31 16:45:33.5	358.220	-0.260	0.120	-1.360
2020/01/31 16:45:33.6	358.230	-0.270	0.210	-1.320
2020/01/31 16:45:33.7	358.240	-0.280	0.300	-1.260
2020/01/31 16:45:33.8	358.230	-0.280	0.390	-1.210
2020/01/31 16:45:33.9	358.220	-0.280	0.480	-1.140
2020/01/31 16:45:34.0	358.200	-0.280	0.560	-1.070
2020/01/31 16:45:34.1	358.180	-0.280	0.640	-0.990
2020/01/31 16:45:34.2	358.150	-0.270	0.720	-0.910
2020/01/31 16:45:34.3	358.110	-0.270	0.790	-0.820
2020/01/31 16:45:34.4	358.070	-0.260	0.860	-0.730
2020/01/31 16:45:34.5	358.030	-0.250	0.920	-0.630
2020/01/31 16:45:34.6	357.980	-0.240	0.980	-0.530
2020/01/31 16:45:34.7	357.920	-0.230	1.030	-0.430
2020/01/31 16:45:34.8	357.870	-0.210	1.070	-0.340
2020/01/31 16:45:34.9	357.810	-0.200	1.110	-0.240
2020/01/31 16:45:35.0	357.760	-0.180	1.130	-0.140
2020/01/31 16:45:35.1	357.700	-0.170	1.150	-0.050
2020/01/31 16:45:35.2	357.640	-0.150	1.150	0.040
2020/01/31 16:45:35.3	357.590	-0.140	1.150	0.130
2020/01/31 16:45:35.4	357.540	-0.120	1.140	0.210
2020/01/31 16:45:35.5	357.490	-0.100	1.120	0.290
2020/01/31 16:45:35.6	357.440	-0.090	1.080	0.360
2020/01/31 16:45:35.7	357.390	-0.070	1.040	0.420
2020/01/31 16:45:35.8	357.350	-0.050	0.990	0.480
2020/01/31 16:45:35.9	357.310	-0.040	0.930	0.530
2020/01/31 16:45:36.0	357.280	-0.020	0.860	0.570
2020/01/31 16:45:36.1	357.250	-0.000	0.780	0.610
2020/01/31 16:45:36.2	357.220	0.010	0.700	0.640
2020/01/31 16:45:36.3	357.200	0.030	0.610	0.660
2020/01/31 16:45:36.4	357.180	0.040	0.520	0.680
2020/01/31 16:45:36.5	357.160	0.050	0.420	0.690
2020/01/31 16:45:36.6	357.140	0.070	0.320	0.700
2020/01/31 16:45:36.7	357.120	0.080	0.230	0.700
2020/01/31 16:45:36.8	357.110	0.090	0.130	0.690
2020/01/31 16:45:36.9	357.100	0.100	0.030	0.690
2020/01/31 16:45:37.0	357.090	0.100	-0.070	0.680
2020/01/31 16:45:37.1	357.080	0.110	-0.160	0.670
2020/01/31 16:45:37.2	357.070	0.110	-0.250	0.650
2020/01/31 16:45:37.3	357.060	0.120	-0.340	0.640
2020/01/31 16:45:37.4	357.050	0.120	-0.420	0.620
2020/01/31 16:45:37.5	357.050	0.120	-0.490	0.590
2020/01/31 16:45:37.6	357.040	0.110	-0.560	0.570
2020/01/31 16:45:37.7	357.030	0.110	-0.620	0.540
2020/01/31 16:45:37.8	357.030	0.110	-0.670	0.510
2020/01/31 16:45:37.9	357.030	0.100	-0.720	0.480
2020/01/31 16:45:38.0	357.030	0.090	-0.760	0.450
2020/01/31 16:45:38.1	357.040	0.080	-0.800	0.410
2020/01/31 16:45:38.2	357.040	0.070	-0.840	0.370
2020/01/31 16:45:38.3	357.050	0.060	-0.870	0.320
2020/01/31 16:45:38.4	357.070	0.050	-0.890	0.280
2020/01/31 16:45:38.5	357.090	0.040	-0.920	0.220
2020/01/31 16:45:38.6	357.110	0.030	-0.940	0.170
2020/01/31 16:45:38.7	357.140	0.010	-0.950	0.110
2020/01/31 16:45:38.8	357.170	0.000	-0.970	0.040
2020/01/31 16:45:38.9	357.200	-0.010	-0.990	-0.020
2020/01/31 16:45:39.0	357.240	-0.020	-1.000	-0.090
2020/01/31 16:45:39.1	357.280	-0.030	-1.010	-0.160
2020/01/31 16:45:39.2	357.320	-0.040	-1.020	-0.240
2020/01/31 16:45:39.3	357.360	-0.050	-1.030	-0.310
2020/01/31 16:45:39.4	357.400	-0.060	-1.040	-0.390
2020/01/31 16:45:39.5	357.450	-0.070	-1.050	-0.460
2020/01/31 16:45:39.6	357.490	-0.080	-1.050	-0.530
2020/01/31 16:45:39.7	357.530	-0.080	-1.060	-0.610
2020/01/31 16:45:39.8	357.570	-0.080	-1.060	-0.680
2020/01/31 16:45:39.9	357.610	-0.090	-1.070	-0.750
2020/01/31 16:45:40.0	357.650	-0.090	-1.070	-0.810
2020/01/31 16:45:40.1	357.690	-0.090	-1.060	-0.870
2020/01/31 16:45:40.2	357.720	-0.090	-1.060	-0.920
2020/01/31 16:45:40.3	357.750	-0.080	-1.050	-0.970
2020/01/31 16:45:40.4	357.780	-0.080	-1.030	-1.010
2020/01/31 16:45:40.5	357.810	-0.070	-1.010	-1.050
2020/01/31 16:45:40.6	357.830	-0.070	-0.990	-1.080
2020/01/31 16:45:40.7	357.860	-0.060	-0.960	-1.110
2020/01/31 16:45:40.8	357.870	-0.050	-0.930	-1.130
2020/01/31 16:45:40.9	357.890	-0.050	-0.890	-1.140
2020/01/31 16:45:41.0	357.900	-0.040	-0.850	-1.150
2020/01/31 16:45:41.1	357.910	-0.030	-0.800	-1.150
2020/01/31 16:45:41.2	357.910	-0.020	-0.750	-1.140
2020/01/31 16:45:41.3	357.910	-0.010	-0.700	-1.130
2020/01/31 16:45:41.4	357.910	0.000	-0.630	-1.110
2020/01/31 16:45:41.5	357.910	0.010	-0.570	-1.090
2020/01/31 16:45:41.6	357.910	0.020	-0.500	-1.060
2020/01/31 16:45:41.7	357.900	0.030	-0.430	-1.020
2020/01/31 16:45:41.8	357.890	0.040	-0.350	-0.980
2020/01/31 16:45:41.9	357.880	0.050	-0.280	-0.940
2020/01/31 16:45:42.0	357.870	0.060	-0.200	-0.900
2020/01/31 16:45:42.1	357.860	0.060	-0.120	-0.850
2020/01/31 16:45:42.2	357.840	0.070	-0.040	-0.800
2020/01/31 16:45:42.3	357.820	0.070	0.040	-0.750
2020/01/31 16:45:42.4	357.800	0.080	0.120	-0.690
2020/01/31 16:45:42.5	357.780	0.080	0.190	-0.630
2020/01/31 16:45:42.6	357.750	0.080	0.270	-0.570
2020/01/31 16:45:42.7	357.720	0.080	0.340	-0.510
2020/01/31 16:45:42.8	357.690	0.080	0.410	-0.440
2020/01/31 16:45:42.9	357.660	0.080	0.470	-0.380
2020/01/31 16:45:43.0	357.620	0.080	0.530	-0.310
2020/01/31 16:45:43.1	357.590	0.070	0.590	-0.250
2020/01/31 16:45:43.2	357.550	0.070	0.640	-0.180
2020/01/31 16:45:43.3	357.510	0.060	0.680	-0.110
2020/01/31 16:45:43.4	357.470	0.060	0.720	-0.050
2020/01/31 16:45:43.5	357.430	0.050	0.750	0.020
2020/01/31 16:45:43.6	357.390	0.040	0.780	0.080
2020/01/31 16:45:43.7	357.350	0.030	0.800	0.140
2020/01/31 16:45:43.8	357.310	0.020	0.810	0.200
2020/01/31 16:45:43.9	357.260	0.010	0.810	0.260
2020/01/31 16:45:44.0				
2020/01/31 16:45:44.1	357.220	-0.010	0.800	0.320
2020/01/31 16:45:44.2	357.130	-0.030	0.770	0.410
2020/01/31 16:45:44.3	357.080	-0.040	0.740	0.460
2020/01/31 16:45:44.4	357.040	-0.060	0.710	0.490
2020/01/31 16:45:44.5	357.000	-0.070	0.660	0.530
2020/01/31 16:45:44.6	356.960	-0.080	0.610	0.550
2020/01/31 16:45:44.7	356.910	-0.100	0.560	0.580
2020/01/31 16:45:44.8	356.870	-0.110	0.490	0.590
2020/01/31 16:45:44.9	356.840	-0.120	0.420	0.600
2020/01/31 16:45:45.0	356.810	-0.130	0.350	0.600
2020/01/31 16:45:45.1	356.780	-0.140	0.270	0.600
2020/01/31 16:45:45.2	356.760	-0.150	0.180	0.590
2020/01/31 16:45:45.3	356.730	-0.150	0.100	0.580
2020/01/31 16:45:45.4	356.720	-0.160	0.000	0.560
2020/01/31 16:45:45.5	356.700	-0.160	-0.090	0.530
2020/01/31 16:45:45.6	356.690	-0.160	-0.190	0.510
2020/01/31 16:45:45.7	356.680	-0.160	-0.290	0.470
2020/01/31 16:45:45.8	356.670	-0.150	-0.390	0.430
2020/01/31 16:45:45.9	356.670	-0.150	-0.490	0.400
2020/01/31 16:45:46.0	356.680	-0.140	-0.580	0.360
2020/01/31 16:45:46.1				
2020/01/31 16:45:46.2	356.680	-0.130	-0.680	0.320
2020/01/31 16:45:46.3	356.700	-0.090	-0.860	0.230
2020/01/31 16:45:46.4	356.720	-0.070	-0.950	0.190
2020/01/31 16:45:46.5	356.740	-0.050	-1.030	0.140
2020/01/31 16:45:46.6	356.760	-0.020	-1.110	0.100
2020/01/31 16:45:46.7	356.780	0.000	-1.180	0.050
2020/01/31 16:45:46.8	356.810	0.030	-1.240	0.000
2020/01/31 16:45:46.9	356.840	0.060	-1.300	-0.040
2020/01/31 16:45:47.0	356.880	0.100	-1.360	-0.090
2020/01/31 16:45:47.1	356.910	0.130	-1.400	-0.130
2020/01/31 16:45:47.2	356.950	0.170	-1.440	-0.180
2020/01/31 16:45:47.3	357.000	0.210	-1.470	-0.230
2020/01/31 16:45:47.4	357.040	0.250	-1.500	-0.270
2020/01/31 16:45:47.5	357.090	0.280	-1.510	-0.320
2020/01/31 16:45:47.6	357.140	0.320	-1.520	-0.360
2020/01/31 16:45:47.7	357.190	0.360	-1.520	-0.400
2020/01/31 16:45:47.8	357.240	0.400	-1.510	-0.440
2020/01/31 16:45:47.9	357.290	0.430	-1.490	-0.480
2020/01/31 16:45:48.0	357.340	0.460	-1.470	-0.520
2020/01/31 16:45:48.1	357.390	0.490	-1.440	-0.560
2020/01/31 16:45:48.2				
2020/01/31 16:45:48.3	357.450	0.520	-1.400	-0.590
2020/01/31 16:45:48.4	357.550	0.560	-1.300	-0.660
2020/01/31 16:45:48.5	357.590	0.580	-1.240	-0.690
2020/01/31 16:45:48.6	357.640	0.590	-1.180	-0.720
2020/01/31 16:45:48.7	357.690	0.590	-1.110	-0.750
2020/01/31 16:45:48.8	357.730	0.590	-1.030	-0.770
2020/01/31 16:45:48.9	357.770	0.590	-0.950	-0.790
2020/01/31 16:45:49.0	357.810	0.580	-0.870	-0.810
2020/01/31 16:45:49.1	357.840	0.560	-0.780	-0.820
2020/01/31 16:45:49.2	357.870	0.540	-0.680	-0.830
2020/01/31 16:45:49.3	357.900	0.520	-0.590	-0.830
2020/01/31 16:45:49.4	357.930	0.490	-0.490	-0.830
2020/01/31 16:45:49.5	357.950	0.450	-0.390	-0.830
2020/01/31 16:45:49.6	357.970	0.410	-0.290	-0.820
2020/01/31 16:45:49.7	357.990	0.370	-0.190	-0.800
2020/01/31 16:45:49.8	358.010	0.320	-0.090	-0.790
2020/01/31 16:45:49.9	358.010	0.270	0.020	-0.770
2020/01/31 16:45:50.0	358.020	0.210	0.120	-0.740
2020/01/31 16:45:50.1	358.020	0.150	0.220	-0.710
2020/01/31 16:45:50.2	358.010	0.090	0.320	-0.680
2020/01/31 16:45:50.3				
2020/01/31 16:45:50.4	358.000	0.030	0.410	-0.650
2020/01/31 16:45:50.5	357.970	-0.100	0.600	-0.580
2020/01/31 16:45:50.6	357.950	-0.170	0.690	-0.540
2020/01/31 16:45:50.7	357.940	-0.240	0.770	-0.500
2020/01/31 16:45:50.8	357.910	-0.300	0.850	-0.450
2020/01/31 16:45:50.9	357.880	-0.370	0.920	-0.410
2020/01/31 16:45:51.0	357.840	-0.430	0.990	-0.370
2020/01/31 16:45:51.1	357.810	-0.500	1.050	-0.320
2020/01/31 16:45:51.2	357.760	-0.560	1.100	-0.280
2020/01/31 16:45:51.3	357.720	-0.610	1.150	-0.230
2020/01/31 16:45:51.4	357.680	-0.670	1.190	-0.190
2020/01/31 16:45:51.5	357.630	-0.720	1.220	-0.150
2020/01/31 16:45:51.6	357.580	-0.760	1.240	-0.100
2020/01/31 16:45:51.7	357.530	-0.800	1.260	-0.070
2020/01/31 16:45:51.8	357.480	-0.840	1.270	-0.020
2020/01/31 16:45:51.9	357.420	-0.870	1.280	0.020
2020/01/31 16:45:52.0	357.370	-0.890	1.270	0.050
2020/01/31 16:45:52.1	357.320	-0.910	1.260	0.090
2020/01/31 16:45:52.2	357.260	-0.920	1.240	0.130
2020/01/31 16:45:52.3	357.210	-0.930	1.210	0.160
2020/01/31 16:45:52.4				
2020/01/31 16:45:52.5	357.150	-0.940	1.170	0.200
2020/01/31 16:45:52.6	357.050	-0.930	1.070	0.260
2020/01/31 16:45:52.7	356.990	-0.910	1.010	0.280
2020/01/31 16:45:52.8	356.940	-0.900	0.950	0.300
2020/01/31 16:45:52.9	356.890	-0.880	0.870	0.320
2020/01/31 16:45:53.0	356.850	-0.850	0.800	0.330
2020/01/31 16:45:53.1	356.800	-0.820	0.710	0.340
2020/01/31 16:45:53.2	356.760	-0.780	0.620	0.340
2020/01/31 16:45:53.3	356.720	-0.750	0.520	0.340
2020/01/31 16:45:53.4	356.680	-0.710	0.420	0.330
2020/01/31 16:45:53.5	356.650	-0.660	0.320	0.320
2020/01/31 16:45:53.6	356.620	-0.610	0.210	0.300
2020/01/31 16:45:53.7	356.600	-0.560	0.100	0.280
2020/01/31 16:45:53.8	356.580	-0.510	-0.010	0.250
2020/01/31 16:45:53.9	356.570	-0.460	-0.130	0.220
2020/01/31 16:45:54.0	356.550	-0.400	-0.240	0.180
2020/01/31 16:45:54.1	356.550	-0.340	-0.360	0.150
2020/01/31 16:45:54.2	356.550	-0.280	-0.480	0.100
2020/01/31 16:45:54.3	356.550	-0.220	-0.600	0.060
2020/01/31 16:45:54.4	356.560	-0.160	-0.720	0.010
2020/01/31 16:45:54.5	356.570	-0.100	-0.840	-0.040
2020/01/31 16:45:54.6	356.590	-0.040	-0.950	-0.090
2020/01/31 16:45:54.7	356.610	0.030	-1.060	-0.150
2020/01/31 16:45:54.8	356.640	0.090	-1.170	-0.200
2020/01/31 16:45:54.9	356.670	0.150	-1.270	-0.260
2020/01/31 16:45:55.0	356.710	0.210	-1.370	-0.320
2020/01/31 16:45:55.1	356.750	0.270	-1.460	-0.380
2020/01/31 16:45:55.2	356.800	0.330	-1.550	-0.430
2020/01/31 16:45:55.3	356.850	0.390	-1.630	-0.490
2020/01/31 16:45:55.4	356.900	0.440	-1.700	-0.540
2020/01/31 16:45:55.5	356.950	0.500	-1.770	-0.600
2020/01/31 16:45:55.6	357.010	0.550	-1.820	-0.650
2020/01/31 16:45:55.7	357.060	0.590	-1.870	-0.700
2020/01/31 16:45:55.8	357.120	0.640	-1.910	-0.750
2020/01/31 16:45:55.9	357.170	0.680	-1.940	-0.790
2020/01/31 16:45:56.0	357.230	0.720	-1.950	-0.830
2020/01/31 16:45:56.1	357.280	0.760	-1.960	-0.860
2020/01/31 16:45:56.2	357.330	0.790	-1.960	-0.890
2020/01/31 16:45:56.3	357.370	0.810	-1.950	-0.910
2020/01/31 16:45:56.4	357.420	0.840	-1.920	-0.930
2020/01/31 16:45:56.5	357.450	0.860	-1.890	-0.940
2020/01/31 16:45:56.6				
2020/01/31 16:45:56.7	357.490	0.870	-1.850	-0.940
2020/01/31 16:45:56.8	357.540	0.890	-1.730	-0.930
2020/01/31 16:45:56.9	357.560	0.890	-1.650	-0.920
2020/01/31 16:45:57.0	357.570	0.890	-1.570	-0.900
2020/01/31 16:45:57.1	357.580	0.880	-1.480	-0.880
2020/01/31 16:45:57.2	357.580	0.870	-1.380	-0.860
2020/01/31 16:45:57.3	357.590	0.850	-1.280	-0.830
2020/01/31 16:45:57.4	357.580	0.830	-1.170	-0.800
2020/01/31 16:45:57.5	357.580	0.810	-1.050	-0.760
2020/01/31 16:45:57.6	357.570	0.780	-0.930	-0.720
2020/01/31 16:45:57.7	357.560	0.750	-0.810	-0.680
2020/01/31 16:45:57.8	357.540	0.710	-0.680	-0.640
2020/01/31 16:45:57.9	357.520	0.680	-0.550	-0.600
2020/01/31 16:45:58.0	357.500	0.640	-0.420	-0.560
2020/01/31 16:45:58.1	357.480	0.590	-0.300	-0.510
2020/01/31 16:45:58.2	357.460	0.550	-0.170	-0.470
2020/01/31 16:45:58.3	357.440	0.500	-0.050	-0.430
2020/01/31 16:45:58.4	357.420	0.450	0.070	-0.390
2020/01/31 16:45:58.5	357.400	0.410	0.190	-0.350
2020/01/31 16:45:58.6	357.380	0.360	0.300	-0.310
2020/01/31 16:45:58.7				
2020/01/31 16:45:58.8	357.370	0.310	0.400	-0.280
2020/01/31 16:45:58.9	357.340	0.210	0.590	-0.220
2020/01/31 16:45:59.0	357.330	0.160	0.680	-0.190
2020/01/31 16:45:59.1	357.320	0.120	0.750	-0.170
2020/01/31 16:45:59.2	357.310	0.070	0.820	-0.150
2020/01/31 16:45:59.3	357.300	0.030	0.870	-0.130
2020/01/31 16:45:59.4	357.290	-0.010	0.920	-0.110
2020/01/31 16:45:59.5	357.290	-0.050	0.960	-0.100
2020/01/31 16:45:59.6	357.280	-0.090	0.990	-0.090
2020/01/31 16:45:59.7	357.280	-0.130	1.010	-0.080
2020/01/31 16:45:59.8	357.270	-0.160	1.020	-0.080
2020/01/31 16:45:59.9	357.270	-0.190	1.020	-0.080
2020/01/31 16:46:00.0	357.270	-0.220	1.010	-0.080
2020/01/31 16:46:00.1	357.270	-0.250	0.990	-0.090
2020/01/31 16:46:00.2	357.270	-0.270	0.970	-0.090
2020/01/31 16:46:00.3	357.270	-0.290	0.940	-0.100
2020/01/31 16:46:00.4	357.280	-0.310	0.900	-0.110
2020/01/31 16:46:00.5	357.280	-0.320	0.850	-0.120
2020/01/31 16:46:00.6	357.280	-0.340	0.800	-0.130
2020/01/31 16:46:00.7	357.290	-0.350	0.750	-0.140
2020/01/31 16:46:00.8				
2020/01/31 16:46:00.9	357.290	-0.350	0.690	-0.150
2020/01/31 16:46:01.0	357.300	-0.360	0.570	-0.170
2020/01/31 16:46:01.1	357.310	-0.360	0.500	-0.190
2020/01/31 16:46:01.2	357.320	-0.360	0.430	-0.200
2020/01/31 16:46:01.3	357.330	-0.360	0.360	-0.210
2020/01/31 16:46:01.4	357.340	-0.350	0.290	-0.230
2020/01/31 16:46:01.5	357.350	-0.350	0.220	-0.250
2020/01/31 16:46:01.6	357.370	-0.340	0.150	-0.260
2020/01/31 16:46:01.7	357.380	-0.330	0.080	-0.280
2020/01/31 16:46:01.8	357.390	-0.320	0.010	-0.300
2020/01/31 16:46:01.9	357.410	-0.310	-0.050	-0.320
2020/01/31 16:46:02.0	357.420	-0.300	-0.120	-0.340
2020/01/31 16:46:02.1	357.430	-0.290	-0.180	-0.360
2020/01/31 16:46:02.2	357.450	-0.280	-0.240	-0.380
2020/01/31 16:46:02.3	357.460	-0.270	-0.300	-0.400
2020/01/31 16:46:02.4	357.470	-0.260	-0.350	-0.410
2020/01/31 16:46:02.5	357.480	-0.250	-0.400	-0.430
2020/01/31 16:46:02.6	357.490	-0.240	-0.450	-0.440
2020/01/31 16:46:02.7	357.510	-0.230	-0.490	-0.460
2020/01/31 16:46:02.8	357.520	-0.220	-0.530	-0.470
2020/01/31 16:46:02.9	357.520	-0.220	-0.570	-0.470
2020/01/31 16:46:03.0	357.520	-0.210	-0.600	-0.480
2020/01/31 16:46:03.1	357.520	-0.200	-0.630	-0.480
2020/01/31 16:46:03.2	357.510	-0.200	-0.650	-0.480
2020/01/31 16:46:03.3	357.510	-0.190	-0.670	-0.480
2020/01/31 16:46:03.4	357.500	-0.190	-0.680	-0.470
2020/01/31 16:46:03.5	357.490	-0.190	-0.690	-0.470
2020/01/31 16:46:03.6	357.480	-0.190	-0.700	-0.460
2020/01/31 16:46:03.7	357.470	-0.190	-0.700	-0.450
2020/01/31 16:46:03.8	357.460	-0.190	-0.700	-0.440
2020/01/31 16:46:03.9	357.440	-0.190	-0.690	-0.430
2020/01/31 16:46:04.0	357.430	-0.190	-0.680	-0.420
2020/01/31 16:46:04.1	357.410	-0.200	-0.670	-0.410
2020/01/31 16:46:04.2	357.400	-0.200	-0.650	-0.400
2020/01/31 16:46:04.3	357.380	-0.200	-0.630	-0.390
2020/01/31 16:46:04.4	357.370	-0.210	-0.610	-0.380
2020/01/31 16:46:04.5	357.350	-0.210	-0.590	-0.380
2020/01/31 16:46:04.6	357.330	-0.210	-0.560	-0.370
2020/01/31 16:46:04.7	357.310	-0.210	-0.540	-0.360
2020/01/31 16:46:04.8	357.290	-0.220	-0.510	-0.360
2020/01/31 16:46:04.9	357.270	-0.220	-0.480	-0.350
2020/01/31 16:46:05.0				
2020/01/31 16:46:05.1	357.260	-0.220	-0.450	-0.350
2020/01/31 16:46:05.2	357.220	-0.220	-0.390	-0.350
2020/01/31 16:46:05.3	357.200	-0.210	-0.370	-0.350
2020/01/31 16:46:05.4	357.190	-0.210	-0.340	-0.340
2020/01/31 16:46:05.5	357.170	-0.200	-0.310	-0.340
2020/01/31 16:46:05.6	357.150	-0.200	-0.280	-0.340
2020/01/31 16:46:05.7	357.140	-0.190	-0.260	-0.330
2020/01/31 16:46:05.8	357.120	-0.180	-0.230	-0.320
2020/01/31 16:46:05.9	357.100	-0.170	-0.210	-0.310
2020/01/31 16:46:06.0	357.080	-0.160	-0.180	-0.300
2020/01/31 16:46:06.1	357.060	-0.150	-0.160	-0.290
2020/01/31 16:46:06.2	357.040	-0.130	-0.140	-0.270
2020/01/31 16:46:06.3	357.020	-0.120	-0.120	-0.250
2020/01/31 16:46:06.4	357.000	-0.110	-0.090	-0.230
2020/01/31 16:46:06.5	356.980	-0.090	-0.080	-0.210
2020/01/31 16:46:06.6	356.960	-0.070	-0.060	-0.190
2020/01/31 16:46:06.7	356.950	-0.060	-0.040	-0.170
2020/01/31 16:46:06.8	356.930	-0.040	-0.030	-0.140
2020/01/31 16:46:06.9	356.910	-0.020	-0.010	-0.120
2020/01/31 16:46:07.0	356.900	-0.000	-0.000	-0.100
2020/01/31 16:46:07.1				
2020/01/31 16:46:07.2	356.880	0.020	0.000	-0.070
2020/01/31 16:46:07.3	356.860	0.050	0.010	-0.030
2020/01/31 16:46:07.4	356.850	0.070	0.010	-0.010
2020/01/31 16:46:07.5	356.850	0.090	0.000	0.000
2020/01/31 16:46:07.6	356.840	0.110	-0.010	0.020
2020/01/31 16:46:07.7	356.830	0.130	-0.020	0.030
2020/01/31 16:46:07.8	356.830	0.140	-0.040	0.030
2020/01/31 16:46:07.9	356.840	0.160	-0.060	0.040
2020/01/31 16:46:08.0	356.840	0.180	-0.080	0.040
2020/01/31 16:46:08.1	356.850	0.190	-0.110	0.040
2020/01/31 16:46:08.2	356.860	0.210	-0.140	0.040
2020/01/31 16:46:08.3	356.870	0.220	-0.170	0.040
2020/01/31 16:46:08.4	356.880	0.240	-0.200	0.030
2020/01/31 16:46:08.5	356.890	0.250	-0.240	0.020
2020/01/31 16:46:08.6	356.900	0.260	-0.270	0.020
2020/01/31 16:46:08.7	356.910	0.270	-0.310	0.000
2020/01/31 16:46:08.8	356.930	0.280	-0.350	-0.010
2020/01/31 16:46:08.9	356.950	0.290	-0.380	-0.020
2020/01/31 16:46:09.0	356.970	0.300	-0.420	-0.030
2020/01/31 16:46:09.1	356.990	0.310	-0.460	-0.050
2020/01/31 16:46:09.2				
2020/01/31 16:46:09.3	357.010	0.320	-0.490	-0.060
2020/01/31 16:46:09.4	357.060	0.330	-0.560	-0.090
2020/01/31 16:46:09.5	357.090	0.330	-0.590	-0.100
2020/01/31 16:46:09.6	357.110	0.340	-0.620	-0.120
2020/01/31 16:46:09.7	357.140	0.340	-0.650	-0.130
2020/01/31 16:46:09.8	357.170	0.340	-0.670	-0.150
2020/01/31 16:46:09.9	357.200	0.340	-0.690	-0.170
2020/01/31 16:46:10.0	357.230	0.340	-0.710	-0.190
2020/01/31 16:46:10.1	357.270	0.330	-0.730	-0.220
2020/01/31 16:46:10.2	357.300	0.330	-0.740	-0.240
2020/01/31 16:46:10.3	357.330	0.330	-0.750	-0.260
2020/01/31 16:46:10.4	357.360	0.320	-0.760	-0.290
2020/01/31 16:46:10.5	357.390	0.310	-0.760	-0.310
2020/01/31 16:46:10.6	357.420	0.300	-0.760	-0.330
2020/01/31 16:46:10.7	357.450	0.290	-0.760	-0.360
2020/01/31 16:46:10.8	357.470	0.280	-0.760	-0.380
2020/01/31 16:46:10.9	357.500	0.270	-0.750	-0.400
2020/01/31 16:46:11.0	357.520	0.260	-0.740	-0.430
2020/01/31 16:46:11.1	357.550	0.240	-0.720	-0.450
2020/01/31 16:46:11.2	357.570	0.220	-0.710	-0.470
2020/01/31 16:46:11.3				
2020/01/31 16:46:11.4	357.590	0.210	-0.690	-0.490
2020/01/31 16:46:11.5	357.630	0.170	-0.640	-0.520
2020/01/31 16:46:11.6	357.650	0.150	-0.620	-0.540
2020/01/31 16:46:11.7	357.660	0.130	-0.590	-0.550
2020/01/31 16:46:11.8	357.670	0.110	-0.560	-0.570
2020/01/31 16:46:11.9	357.690	0.090	-0.530	-0.580
2020/01/31 16:46:12.0	357.700	0.060	-0.500	-0.590
2020/01/31 16:46:12.1	357.710	0.040	-0.460	-0.600
2020/01/31 16:46:12.2	357.720	0.020	-0.430	-0.600
2020/01/31 16:46:12.3	357.730	0.000	-0.390	-0.610
2020/01/31 16:46:12.4	357.730	-0.020	-0.350	-0.610
2020/01/31 16:46:12.5	357.740	-0.040	-0.310	-0.620
2020/01/31 16:46:12.6	357.740	-0.060	-0.270	-0.620
2020/01/31 16:46:12.7	357.730	-0.080	-0.230	-0.620
2020/01/31 16:46:12.8	357.740	-0.090	-0.190	-0.620
2020/01/31 16:46:12.9	357.740	-0.110	-0.150	-0.610
2020/01/31 16:46:13.0	357.740	-0.120	-0.110	-0.600
2020/01/31 16:46:13.1	357.730	-0.140	-0.070	-0.590
2020/01/31 16:46:13.2	357.730	-0.150	-0.030	-0.580
2020/01/31 16:46:13.3	357.720	-0.160	0.010	-0.560
2020/01/31 16:46:13.4	357.710	-0.160	0.050	-0.550
2020/01/31 16:46:13.5	357.700	-0.170	0.080	-0.520
2020/01/31 16:46:13.6	357.690	-0.170	0.120	-0.500
2020/01/31 16:46:13.7	357.670	-0.170	0.150	-0.470
2020/01/31 16:46:13.8	357.650	-0.170	0.190	-0.440
2020/01/31 16:46:13.9	357.620	-0.170	0.220	-0.400
2020/01/31 16:46:14.0	357.590	-0.170	0.250	-0.360
2020/01/31 16:46:14.1	357.560	-0.170	0.280	-0.310
2020/01/31 16:46:14.2	357.530	-0.160	0.310	-0.270
2020/01/31 16:46:14.3	357.490	-0.160	0.340	-0.220
2020/01/31 16:46:14.4	357.450	-0.150	0.360	-0.170
2020/01/31 16:46:14.5	357.410	-0.140	0.390	-0.120
2020/01/31 16:46:14.6	357.360	-0.130	0.410	-0.070
2020/01/31 16:46:14.7	357.310	-0.130	0.420	-0.020
2020/01/31 16:46:14.8	357.260	-0.120	0.440	0.030
2020/01/31 16:46:14.9	357.210	-0.110	0.440	0.070
2020/01/31 16:46:15.0	357.160	-0.100	0.450	0.110
2020/01/31 16:46:15.1	357.110	-0.090	0.450	0.150
2020/01/31 16:46:15.2	357.070	-0.080	0.440	0.180
2020/01/31 16:46:15.3	357.020	-0.070	0.430	0.210
2020/01/31 16:46:15.4	356.980	-0.060	0.420	0.240
2020/01/31 16:46:15.5				
2020/01/31 16:46:15.6	356.930	-0.050	0.400	0.260
2020/01/31 16:46:15.7	356.880	-0.030	0.350	0.280
2020/01/31 16:46:15.8	356.840	-0.020	0.320	0.280
2020/01/31 16:46:15.9	356.810	-0.010	0.280	0.280
2020/01/31 16:46:16.0	356.790	-0.000	0.240	0.280
2020/01/31 16:46:16.1	356.770	0.010	0.190	0.260
2020/01/31 16:46:16.2	356.750	0.020	0.140	0.250
2020/01/31 16:46:16.3	356.740	0.030	0.090	0.230
2020/01/31 16:46:16.4	356.730	0.040	0.040	0.200
2020/01/31 16:46:16.5	356.720	0.050	-0.020	0.180
2020/01/31 16:46:16.6	356.720	0.060	-0.080	0.150
2020/01/31 16:46:16.7	356.730	0.070	-0.140	0.110
2020/01/31 16:46:16.8	356.740	0.080	-0.200	0.080
2020/01/31 16:46:16.9	356.740	0.090	-0.260	0.050
2020/01/31 16:46:17.0	356.750	0.100	-0.310	0.020
2020/01/31 16:46:17.1	356.760	0.110	-0.370	-0.020
2020/01/31 16:46:17.2	356.770	0.120	-0.420	-0.050
2020/01/31 16:46:17.3	356.780	0.130	-0.470	-0.080
2020/01/31 16:46:17.4	356.800	0.140	-0.510	-0.120
2020/01/31 16:46:17.5	356.810	0.140	-0.550	-0.150
2020/01/31 16:46:17.6				
2020/01/31 16:46:17.7	356.830	0.150	-0.580	-0.180
2020/01/31 16:46:17.8	356.860	0.160	-0.640	-0.240
2020/01/31 16:46:17.9	356.880	0.160	-0.660	-0.270
2020/01/31 16:46:18.0	356.900	0.160	-0.670	-0.300
2020/01/31 16:46:18.1	356.920	0.150	-0.680	-0.330
2020/01/31 16:46:18.2	356.940	0.150	-0.680	-0.350
2020/01/31 16:46:18.3	356.960	0.150	-0.680	-0.380
2020/01/31 16:46:18.4	356.990	0.140	-0.680	-0.400
2020/01/31 16:46:18.5	357.010	0.130	-0.670	-0.430
2020/01/31 16:46:18.6	357.030	0.120	-0.650	-0.450
2020/01/31 16:46:18.7	357.060	0.110	-0.640	-0.470
2020/01/31 16:46:18.8	357.090	0.100	-0.620	-0.490
2020/01/31 16:46:18.9	357.110	0.090	-0.600	-0.510
2020/01/31 16:46:19.0	357.140	0.080	-0.580	-0.530
2020/01/31 16:46:19.1	357.170	0.060	-0.560	-0.550
2020/01/31 16:46:19.2	357.200	0.050	-0.530	-0.560
2020/01/31 16:46:19.3	357.230	0.030	-0.510	-0.580
2020/01/31 16:46:19.4	357.260	0.010	-0.490	-0.590
2020/01/31 16:46:19.5	357.290	-0.000	-0.470	-0.610
2020/01/31 16:46:19.6	357.330	-0.020	-0.450	-0.620
2020/01/31 16:46:19.7				
2020/01/31 16:46:19.8	357.370	-0.040	-0.430	-0.630
2020/01/31 16:46:19.9	357.440	-0.070	-0.400	-0.660
2020/01/31 16:46:20.0	357.480	-0.090	-0.390	-0.670
2020/01/31 16:46:20.1	357.510	-0.100	-0.390	-0.680
2020/01/31 16:46:20.2	357.550	-0.120	-0.380	-0.690
2020/01/31 16:46:20.3	357.580	-0.140	-0.380	-0.700
2020/01/31 16:46:20.4	357.610	-0.150	-0.380	-0.710
2020/01/31 16:46:20.5	357.650	-0.170	-0.380	-0.720
2020/01/31 16:46:20.6	357.680	-0.180	-0.390	-0.730
2020/01/31 16:46:20.7	357.700	-0.200	-0.390	-0.740
2020/01/31 16:46:20.8	357.730	-0.210	-0.400	-0.750
2020/01/31 16:46:20.9	357.760	-0.220	-0.410	-0.760
2020/01/31 16:46:21.0	357.780	-0.240	-0.420	-0.770
2020/01/31 16:46:21.1	357.800	-0.250	-0.430	-0.770
2020/01/31 16:46:21.2	357.820	-0.260	-0.440	-0.780
2020/01/31 16:46:21.3	357.830	-0.270	-0.440	-0.790
2020/01/31 16:46:21.4	357.850	-0.280	-0.450	-0.790
2020/01/31 16:46:21.5	357.860	-0.280	-0.460	-0.790
2020/01/31 16:46:21.6	357.870	-0.290	-0.460	-0.790
2020/01/31 16:46:21.7	357.880	-0.290	-0.470	-0.790
2020/01/31 16:46:21.8				
2020/01/31 16:46:21.9	357.880	-0.300	-0.470	-0.780
2020/01/31 16:46:22.0	357.880	-0.300	-0.470	-0.770
2020/01/31 16:46:22.1	357.870	-0.300	-0.460	-0.750
2020/01/31 16:46:22.2	357.870	-0.290	-0.460	-0.740
2020/01/31 16:46:22.3	357.860	-0.290	-0.440	-0.720
2020/01/31 16:46:22.4	357.850	-0.280	-0.430	-0.690
2020/01/31 16:46:22.5	357.830	-0.280	-0.420	-0.670
2020/01/31 16:46:22.6	357.820	-0.270	-0.400	-0.640
2020/01/31 16:46:22.7	357.800	-0.250	-0.370	-0.600
2020/01/31 16:46:22.8	357.790	-0.240	-0.350	-0.570
2020/01/31 16:46:22.9	357.770	-0.230	-0.320	-0.530
2020/01/31 16:46:23.0	357.740	-0.210	-0.300	-0.490
2020/01/31 16:46:23.1	357.720	-0.190	-0.270	-0.440
2020/01/31 16:46:23.2	357.700	-0.170	-0.240	-0.400
2020/01/31 16:46:23.3	357.670	-0.150	-0.200	-0.350
2020/01/31 16:46:23.4	357.640	-0.130	-0.170	-0.300
2020/01/31 16:46:23.5	357.610	-0.100	-0.130	-0.250
2020/01/31 16:46:23.6	357.580	-0.080	-0.100	-0.190
2020/01/31 16:46:23.7	357.560	-0.050	-0.070	-0.140
2020/01/31 16:46:23.8	357.520	-0.020	-0.030	-0.090
2020/01/31 16:46:23.9				
2020/01/31 16:46:24.0	357.490	0.010	0.000	-0.030
2020/01/31 16:46:24.1	357.420	0.070	0.060	0.080
2020/01/31 16:46:24.2	357.380	0.100	0.090	0.140
2020/01/31 16:46:24.3	357.340	0.130	0.120	0.190
2020/01/31 16:46:24.4	357.300	0.160	0.140	0.240
2020/01/31 16:46:24.5	357.260	0.190	0.170	0.290
2020/01/31 16:46:24.6	357.230	0.220	0.180	0.340
2020/01/31 16:46:24.7	357.170	0.250	0.200	0.390
2020/01/31 16:46:24.8	357.130	0.270	0.210	0.430
2020/01/31 16:46:24.9	357.100	0.300	0.220	0.470
2020/01/31 16:46:25.0	357.060	0.320	0.230	0.510
2020/01/31 16:46:25.1	357.020	0.350	0.230	0.540
2020/01/31 16:46:25.2	356.990	0.370	0.230	0.570
2020/01/31 16:46:25.3	356.960	0.390	0.220	0.590
2020/01/31 16:46:25.4	356.930	0.400	0.210	0.620
2020/01/31 16:46:25.5	356.900	0.420	0.200	0.630
2020/01/31 16:46:25.6	356.870	0.430	0.180	0.640
2020/01/31 16:46:25.7	356.830	0.440	0.160	0.650
2020/01/31 16:46:25.8	356.810	0.450	0.130	0.650
2020/01/31 16:46:25.9	356.790	0.450	0.110	0.650
2020/01/31 16:46:26.0				
2020/01/31 16:46:26.1	356.780	0.450	0.070	0.640
2020/01/31 16:46:26.2	356.760	0.450	0.000	0.600
2020/01/31 16:46:26.3	356.760	0.440	-0.040	0.580
2020/01/31 16:46:26.4	356.760	0.440	-0.080	0.550
2020/01/31 16:46:26.5	356.760	0.420	-0.130	0.510
2020/01/31 16:46:26.6	356.760	0.410	-0.170	0.470
2020/01/31 16:46:26.7	356.790	0.390	-0.220	0.430
2020/01/31 16:46:26.8	356.800	0.370	-0.270	0.380
2020/01/31 16:46:26.9	356.820	0.350	-0.310	0.320
2020/01/31 16:46:27.0	356.840	0.330	-0.360	0.260
2020/01/31 16:46:27.1	356.860	0.300	-0.410	0.200
2020/01/31 16:46:27.2	356.880	0.270	-0.460	0.130
2020/01/31 16:46:27.3	356.910	0.240	-0.500	0.060
2020/01/31 16:46:27.4	356.930	0.210	-0.550	-0.010
2020/01/31 16:46:27.5	356.960	0.180	-0.590	-0.090
2020/01/31 16:46:27.6	356.990	0.140	-0.630	-0.160
2020/01/31 16:46:27.7	357.020	0.110	-0.660	-0.240
2020/01/31 16:46:27.8	357.060	0.070	-0.690	-0.320
2020/01/31 16:46:27.9	357.090	0.030	-0.720	-0.390
2020/01/31 16:46:28.0	357.120	-0.010	-0.750	-0.470
2020/01/31 16:46:28.1				
2020/01/31 16:46:28.2	357.150	-0.050	-0.760	-0.540
2020/01/31 16:46:28.3	357.210	-0.120	-0.790	-0.680
2020/01/31 16:46:28.4	357.240	-0.160	-0.790	-0.740
2020/01/31 16:46:28.5	357.270	-0.200	-0.790	-0.800
2020/01/31 16:46:28.6	357.290	-0.230	-0.780	-0.850
2020/01/31 16:46:28.7	357.320	-0.270	-0.770	-0.910
2020/01/31 16:46:28.8	357.340	-0.300	-0.760	-0.950
2020/01/31 16:46:28.9	357.360	-0.330	-0.740	-1.000
2020/01/31 16:46:29.0	357.390	-0.360	-0.720	-1.040
2020/01/31 16:46:29.1	357.410	-0.380	-0.690	-1.070
2020/01/31 16:46:29.2	357.430	-0.410	-0.660	-1.100
2020/01/31 16:46:29.3	357.450	-0.430	-0.630	-1.130
2020/01/31 16:46:29.4	357.470	-0.450	-0.600	-1.160
2020/01/31 16:46:29.5	357.490	-0.470	-0.560	-1.180
2020/01/31 16:46:29.6	357.510	-0.480	-0.530	-1.200
2020/01/31 16:46:29.7	357.530	-0.490	-0.490	-1.210
2020/01/31 16:46:29.8	357.550	-0.500	-0.460	-1.220
2020/01/31 16:46:29.9	357.570	-0.500	-0.420	-1.240
2020/01/31 16:46:30.0	357.590	-0.500	-0.390	-1.240
2020/01/31 16:46:30.1	357.610	-0.500	-0.360	-1.250
2020/01/31 16:46:30.2				
2020/01/31 16:46:30.3	357.620	-0.500	-0.320	-1.250
2020/01/31 16:46:30.4	357.650	-0.480	-0.270	-1.250
2020/01/31 16:46:30.5	357.660	-0.470	-0.240	-1.240
2020/01/31 16:46:30.6	357.670	-0.450	-0.210	-1.230
2020/01/31 16:46:30.7	357.670	-0.440	-0.180	-1.220
2020/01/31 16:46:30.8	357.680	-0.420	-0.160	-1.200
2020/01/31 16:46:30.9	357.680	-0.400	-0.130	-1.180
2020/01/31 16:46:31.0	357.680	-0.380	-0.110	-1.150
2020/01/31 16:46:31.1	357.670	-0.350	-0.090	-1.120
2020/01/31 16:46:31.2	357.670	-0.330	-0.060	-1.090
2020/01/31 16:46:31.3	357.660	-0.300	-0.040	-1.050
2020/01/31 16:46:31.4	357.650	-0.280	-0.020	-1.010
2020/01/31 16:46:31.5	357.640	-0.250	0.000	-0.970
2020/01/31 16:46:31.6	357.630	-0.230	0.020	-0.930
2020/01/31 16:46:31.7	357.610	-0.200	0.040	-0.880
2020/01/31 16:46:31.8	357.590	-0.180	0.060	-0.830
2020/01/31 16:46:31.9	357.570	-0.150	0.070	-0.770
2020/01/31 16:46:32.0	357.550	-0.130	0.090	-0.720
2020/01/31 16:46:32.1	357.530	-0.100	0.110	-0.660
2020/01/31 16:46:32.2	357.500	-0.080	0.120	-0.600
2020/01/31 16:46:32.3				
2020/01/31 16:46:32.4	357.480	-0.060	0.130	-0.540
2020/01/31 16:46:32.5	357.430	-0.010	0.140	-0.430
2020/01/31 16:46:32.6	357.410	0.010	0.140	-0.370
2020/01/31 16:46:32.7	357.370	0.030	0.140	-0.320
2020/01/31 16:46:32.8	357.350	0.050	0.140	-0.270
2020/01/31 16:46:32.9	357.330	0.070	0.130	-0.220
2020/01/31 16:46:33.0	357.310	0.080	0.120	-0.180
2020/01/31 16:46:33.1	357.300	0.100	0.100	-0.140
2020/01/31 16:46:33.2	357.280	0.120	0.090	-0.100
2020/01/31 16:46:33.3	357.270	0.140	0.060	-0.060
2020/01/31 16:46:33.4	357.260	0.150	0.040	-0.030
2020/01/31 16:46:33.5	357.250	0.170	0.020	0.000
2020/01/31 16:46:33.6	357.240	0.180	-0.010	0.030
2020/01/31 16:46:33.7	357.230	0.200	-0.040	0.050
2020/01/31 16:46:33.8	357.230	0.210	-0.070	0.070
2020/01/31 16:46:33.9	357.220	0.230	-0.100	0.090
2020/01/31 16:46:34.0	357.220	0.240	-0.130	0.100
2020/01/31 16:46:34.1	357.220	0.250	-0.170	0.120
2020/01/31 16:46:34.2	357.220	0.270	-0.190	0.130
2020/01/31 16:46:34.3	357.220	0.280	-0.220	0.140
2020/01/31 16:46:34.4				
2020/01/31 16:46:34.5	357.220	0.290	-0.250	0.150
2020/01/31 16:46:34.6	357.230	0.310	-0.290	0.170
2020/01/31 16:46:34.7	357.230	0.320	-0.310	0.180
2020/01/31 16:46:34.8	357.230	0.330	-0.320	0.190
2020/01/31 16:46:34.9	357.230	0.330	-0.330	0.200
2020/01/31 16:46:35.0	357.230	0.340	-0.330	0.220
2020/01/31 16:46:35.1	357.240	0.340	-0.330	0.230
2020/01/31 16:46:35.2	357.240	0.340	-0.330	0.250
2020/01/31 16:46:35.3	357.240	0.340	-0.320	0.260
2020/01/31 16:46:35.4	357.240	0.340	-0.310	0.280
2020/01/31 16:46:35.5	357.230	0.340	-0.300	0.300
2020/01/31 16:46:35.6	357.230	0.330	-0.280	0.320
2020/01/31 16:46:35.7	357.230	0.330	-0.260	0.340
2020/01/31 16:46:35.8	357.230	0.320	-0.240	0.360
2020/01/31 16:46:35.9	357.220	0.310	-0.220	0.380
2020/01/31 16:46:36.0	357.210	0.300	-0.200	0.400
2020/01/31 16:46:36.1	357.190	0.290	-0.170	0.420
2020/01/31 16:46:36.2	357.180	0.280	-0.150	0.440
2020/01/31 16:46:36.3	357.170	0.270	-0.130	0.470
2020/01/31 16:46:36.4	357.150	0.260	-0.110	0.490
2020/01/31 16:46:36.5				
2020/01/31 16:46:36.6	357.130	0.250	-0.100	0.510
2020/01/31 16:46:36.7	357.100	0.220	-0.070	0.540
2020/01/31 16:46:36.8	357.080	0.210	-0.070	0.550
2020/01/31 16:46:36.9	357.060	0.200	-0.060	0.570
2020/01/31 16:46:37.0	357.040	0.190	-0.060	0.570
2020/01/31 16:46:37.1	357.020	0.180	-0.060	0.580
2020/01/31 16:46:37.2	357.000	0.170	-0.060	0.580
2020/01/31 16:46:37.3	356.990	0.160	-0.070	0.580
2020/01/31 16:46:37.4	356.970	0.150	-0.090	0.580
2020/01/31 16:46:37.5	356.960	0.150	-0.110	0.570
2020/01/31 16:46:37.6	356.950	0.140	-0.130	0.550
2020/01/31 16:46:37.7	356.950	0.140	-0.150	0.530
2020/01/31 16:46:37.8	356.950	0.140	-0.180	0.510
2020/01/31 16:46:37.9	356.950	0.140	-0.220	0.480
2020/01/31 16:46:38.0	356.950	0.140	-0.260	0.440
2020/01/31 16:46:38.1				
2020/01/31 16:46:38.2	356.960	0.140	-0.300	0.400
2020/01/31 16:46:38.3	357.000	0.150	-0.400	0.290
2020/01/31 16:46:38.4	357.020	0.150	-0.460	0.230
2020/01/31 16:46:38.5	357.050	0.160	-0.510	0.170
2020/01/31 16:46:38.6				
2020/01/31 16:46:38.7	357.080	0.170	-0.570	0.090
2020/01/31 16:46:38.8	357.150	0.180	-0.690	-0.060
2020/01/31 16:46:38.9	357.190	0.180	-0.740	-0.150
2020/01/31 16:46:39.0	357.230	0.180	-0.790	-0.230
2020/01/31 16:46:39.1	357.270	0.180	-0.850	-0.310
2020/01/31 16:46:39.2	357.310	0.180	-0.890	-0.390
2020/01/31 16:46:39.3	357.340	0.170	-0.930	-0.470
2020/01/31 16:46:39.4	357.380	0.170	-0.970	-0.550
2020/01/31 16:46:39.5				
2020/01/31 16:46:39.6	357.410	0.160	-1.000	-0.620
2020/01/31 16:46:39.7	357.470	0.130	-1.040	-0.760
2020/01/31 16:46:39.8	357.500	0.110	-1.050	-0.830
2020/01/31 16:46:39.9	357.530	0.090	-1.060	-0.890
2020/01/31 16:46:40.0	357.560	0.070	-1.060	-0.950
2020/01/31 16:46:40.1	357.580	0.040	-1.050	-1.000
2020/01/31 16:46:40.2	357.600	0.010	-1.030	-1.050
2020/01/31 16:46:40.3	357.620	-0.020	-1.010	-1.090
2020/01/31 16:46:40.4	357.640	-0.060	-0.980	-1.130
2020/01/31 16:46:40.5	357.660	-0.090	-0.950	-1.160
2020/01/31 16:46:40.6	357.670	-0.130	-0.900	-1.190
2020/01/31 16:46:40.7				
2020/01/31 16:46:40.8	357.680	-0.170	-0.860	-1.220
2020/01/31 16:46:40.9	357.700	-0.250	-0.750	-1.260
2020/01/31 16:46:41.0	357.710	-0.300	-0.690	-1.270
2020/01/31 16:46:41.1	357.710	-0.340	-0.630	-1.280
2020/01/31 16:46:41.2	357.720	-0.380	-0.570	-1.290
2020/01/31 16:46:41.3	357.720	-0.420	-0.510	-1.290
2020/01/31 16:46:41.4	357.720	-0.460	-0.440	-1.300
2020/01/31 16:46:41.5	357.720	-0.500	-0.380	-1.300
2020/01/31 16:46:41.6	357.720	-0.530	-0.310	-1.300
2020/01/31 16:46:41.7	357.720	-0.570	-0.250	-1.290
2020/01/31 16:46:41.8	357.720	-0.600	-0.190	-1.290
2020/01/31 16:46:41.9				
2020/01/31 16:46:42.0	357.720	-0.630	-0.130	-1.280
2020/01/31 16:46:42.1	357.720	-0.670	-0.020	-1.260
2020/01/31 16:46:42.2	357.710	-0.690	0.030	-1.240
2020/01/31 16:46:42.3	357.710	-0.700	0.080	-1.230
2020/01/31 16:46:42.4	357.710	-0.710	0.120	-1.210
2020/01/31 16:46:42.5	357.710	-0.720	0.160	-1.190
2020/01/31 16:46:42.6	357.710	-0.720	0.200	-1.160
2020/01/31 16:46:42.7	357.720	-0.720	0.240	-1.140
2020/01/31 16:46:42.8				
2020/01/31 16:46:42.9	357.720	-0.710	0.270	-1.110
2020/01/31 16:46:43.0	357.710	-0.680	0.320	-1.050
2020/01/31 16:46:43.1	357.710	-0.670	0.340	-1.020
2020/01/31 16:46:43.2	357.700	-0.650	0.360	-0.980
2020/01/31 16:46:43.3	357.700	-0.620	0.380	-0.950
2020/01/31 16:46:43.4	357.690	-0.600	0.390	-0.910
2020/01/31 16:46:43.5	357.680	-0.570	0.400	-0.870
2020/01/31 16:46:43.6	357.670	-0.540	0.420	-0.830
2020/01/31 16:46:43.7	357.650	-0.510	0.420	-0.780
2020/01/31 16:46:43.8	357.640	-0.480	0.430	-0.740
2020/01/31 16:46:43.9	357.620	-0.440	0.440	-0.690
2020/01/31 16:46:44.0	357.610	-0.410	0.440	-0.650
2020/01/31 16:46:44.1	357.590	-0.370	0.450	-0.600
2020/01/31 16:46:44.2	357.570	-0.330	0.450	-0.560
2020/01/31 16:46:44.3				
2020/01/31 16:46:44.4	357.550	-0.300	0.450	-0.510
2020/01/31 16:46:44.5	357.510	-0.220	0.450	-0.420
2020/01/31 16:46:44.6	357.480	-0.180	0.450	-0.370
2020/01/31 16:46:44.7	357.450	-0.150	0.450	-0.320
2020/01/31 16:46:44.8	357.420	-0.110	0.440	-0.280
2020/01/31 16:46:44.9				
2020/01/31 16:46:45.0	357.400	-0.080	0.440	-0.230
2020/01/31 16:46:45.1	357.350	-0.010	0.410	-0.120
2020/01/31 16:46:45.2	357.330	0.030	0.400	-0.070
2020/01/31 16:46:45.3	357.300	0.060	0.390	-0.020
2020/01/31 16:46:45.4	357.280	0.090	0.370	0.030
2020/01/31 16:46:45.5	357.250	0.120	0.350	0.080
2020/01/31 16:46:45.6	357.230	0.150	0.320	0.140
2020/01/31 16:46:45.7	357.220	0.180	0.290	0.190
2020/01/31 16:46:45.8	357.200	0.210	0.260	0.240
2020/01/31 16:46:45.9	357.180	0.240	0.230	0.280
2020/01/31 16:46:46.0	357.160	0.270	0.190	0.320
2020/01/31 16:46:46.1	357.140	0.290	0.160	0.370
2020/01/31 16:46:46.2	357.130	0.320	0.120	0.400
2020/01/31 16:46:46.3	357.110	0.340	0.080	0.440
2020/01/31 16:46:46.4				
2020/01/31 16:46:46.5	357.100	0.360	0.030	0.470
2020/01/31 16:46:46.6	357.080	0.400	-0.060	0.510
2020/01/31 16:46:46.7	357.070	0.420	-0.110	0.520
2020/01/31 16:46:46.8	357.070	0.440	-0.160	0.530
2020/01/31 16:46:46.9				
2020/01/31 16:46:47.0	357.070	0.450	-0.220	0.540
2020/01/31 16:46:47.1	357.070	0.470	-0.270	0.540
2020/01/31 16:46:47.2	357.070	0.480	-0.320	0.530
2020/01/31 16:46:47.3	357.090	0.510	-0.440	0.510
2020/01/31 16:46:47.4	357.100	0.520	-0.490	0.490
2020/01/31 16:46:47.5	357.110	0.530	-0.550	0.470
2020/01/31 16:46:47.6				
2020/01/31 16:46:47.7	357.120	0.540	-0.610	0.450
2020/01/31 16:46:47.8	357.140	0.560	-0.720	0.390
2020/01/31 16:46:47.9	357.160	0.570	-0.770	0.360
2020/01/31 16:46:48.0	357.180	0.580	-0.820	0.320
2020/01/31 16:46:48.1	357.200	0.580	-0.870	0.290
2020/01/31 16:46:48.2				
2020/01/31 16:46:48.3	357.220	0.590	-0.910	0.250
2020/01/31 16:46:48.4				
2020/01/31 16:46:48.5	357.260	0.600	-0.990	0.180
2020/01/31 16:46:48.6	357.280	0.600	-1.020	0.140
2020/01/31 16:46:48.7	357.300	0.600	-1.050	0.100
2020/01/31 16:46:48.8	357.340	0.600	-1.100	0.020
2020/01/31 16:46:48.9				
2020/01/31 16:46:49.0	357.370	0.590	-1.120	-0.020
2020/01/31 16:46:49.1				
2020/01/31 16:46:49.2	357.400	0.580	-1.130	-0.100
2020/01/31 16:46:49.3	357.440	0.550	-1.130	-0.180
2020/01/31 16:46:49.4	357.460	0.540	-1.120	-0.230
2020/01/31 16:46:49.5	357.470	0.520	-1.110	-0.270
2020/01/31 16:46:49.6				
2020/01/31 16:46:49.7	357.490	0.500	-1.090	-0.310
2020/01/31 16:46:49.8	357.510	0.450	-1.040	-0.400
2020/01/31 16:46:49.9	357.520	0.420	-1.010	-0.440
2020/01/31 16:46:50.0	357.540	0.390	-0.980	-0.480
2020/01/31 16:46:50.1				
2020/01/31 16:46:50.2	357.550	0.360	-0.950	-0.530
2020/01/31 16:46:50.3	357.580	0.290	-0.870	-0.610
2020/01/31 16:46:50.4	357.600	0.250	-0.830	-0.650
2020/01/31 16:46:50.5	357.620	0.200	-0.790	-0.700
2020/01/31 16:46:50.6	357.630	0.160	-0.750	-0.740
2020/01/31 16:46:50.7	357.650	0.120	-0.710	-0.780
2020/01/31 16:46:50.8				
2020/01/31 16:46:50.9	357.670	0.070	-0.670	-0.820
2020/01/31 16:46:51.0	357.720	-0.020	-0.580	-0.890
2020/01/31 16:46:51.1				
2020/01/31 16:46:51.2	357.740	-0.070	-0.540	-0.930
2020/01/31 16:46:51.3	357.770	-0.110	-0.500	-0.960
2020/01/31 16:46:51.4	357.820	-0.200	-0.410	-1.030
2020/01/31 16:46:51.5	357.850	-0.250	-0.370	-1.060
2020/01/31 16:46:51.6	357.880	-0.290	-0.330	-1.090
2020/01/31 16:46:51.7				
2020/01/31 16:46:51.8	357.900	-0.330	-0.290	-1.110
2020/01/31 16:46:51.9	357.960	-0.410	-0.220	-1.160
2020/01/31 16:46:52.0				
2020/01/31 16:46:52.1	357.990	-0.440	-0.180	-1.180
2020/01/31 16:46:52.2	358.020	-0.470	-0.140	-1.200
2020/01/31 16:46:52.3	358.080	-0.530	-0.070	-1.220
2020/01/31 16:46:52.4	358.100	-0.550	-0.030	-1.230
2020/01/31 16:46:52.5	358.120	-0.570	0.010	-1.230
2020/01/31 16:46:52.6	358.140	-0.590	0.050	-1.230
2020/01/31 16:46:52.7				
2020/01/31 16:46:52.8	358.140	-0.600	0.080	-1.230
2020/01/31 16:46:52.9	358.170	-0.620	0.160	-1.200
2020/01/31 16:46:53.0				
2020/01/31 16:46:53.1	358.170	-0.630	0.200	-1.180
2020/01/31 16:46:53.2	358.170	-0.630	0.240	-1.150
2020/01/31 16:46:53.3				
2020/01/31 16:46:53.4	358.160	-0.630	0.320	-1.080
2020/01/31 16:46:53.5	358.150	-0.620	0.350	-1.050
2020/01/31 16:46:53.6	358.120	-0.600	0.430	-0.960
2020/01/31 16:46:53.7				
2020/01/31 16:46:53.8	358.100	-0.590	0.460	-0.910
2020/01/31 16:46:53.9	358.050	-0.550	0.530	-0.810
2020/01/31 16:46:54.0	358.030	-0.530	0.560	-0.750
2020/01/31 16:46:54.1				
2020/01/31 16:46:54.2	358.000	-0.510	0.580	-0.690
2020/01/31 16:46:54.3	357.950	-0.470	0.620	-0.570
2020/01/31 16:46:54.4	357.920	-0.440	0.640	-0.510
2020/01/31 16:46:54.5	357.890	-0.410	0.640	-0.440
2020/01/31 16:46:54.6	357.860	-0.380	0.650	-0.380
2020/01/31 16:46:54.7	357.830	-0.350	0.650	-0.310
2020/01/31 16:46:54.8				
2020/01/31 16:46:54.9	357.800	-0.320	0.640	-0.240
2020/01/31 16:46:55.0				
2020/01/31 16:46:55.1	357.740	-0.260	0.620	-0.110
2020/01/31 16:46:55.2	357.680	-0.200	0.570	0.010
2020/01/31 16:46:55.3	357.650	-0.170	0.540	0.070
2020/01/31 16:46:55.4				
2020/01/31 16:46:55.5	357.620	-0.130	0.500	0.130
2020/01/31 16:46:55.6	357.570	-0.070	0.410	0.240
2020/01/31 16:46:55.7	357.540	-0.040	0.360	0.290
2020/01/31 16:46:55.8				
2020/01/31 16:46:55.9	357.520	-0.010	0.310	0.330
2020/01/31 16:46:56.0	357.470	0.040	0.190	0.410
2020/01/31 16:46:56.1				
2020/01/31 16:46:56.2	357.450	0.070	0.130	0.440
2020/01/31 16:46:56.3	357.420	0.120	-0.010	0.490
2020/01/31 16:46:56.4				
2020/01/31 16:46:56.5	357.410	0.140	-0.080	0.500
2020/01/31 16:46:56.6	357.400	0.170	-0.150	0.510
2020/01/31 16:46:56.7	357.400	0.190	-0.220	0.520
2020/01/31 16:46:56.8				
2020/01/31 16:46:56.9	357.380	0.220	-0.370	0.510
2020/01/31 16:46:57.0	357.380	0.240	-0.440	0.500
2020/01/31 16:46:57.1	357.390	0.270	-0.580	0.470
2020/01/31 16:46:57.2				
2020/01/31 16:46:57.3	357.400	0.290	-0.640	0.450
2020/01/31 16:46:57.4	357.430	0.310	-0.770	0.390
2020/01/31 16:46:57.5				
2020/01/31 16:46:57.6	357.450	0.320	-0.830	0.350
2020/01/31 16:46:57.7				
2020/01/31 16:46:57.8	357.490	0.330	-0.940	0.270
2020/01/31 16:46:57.9	357.520	0.330	-0.990	0.220
2020/01/31 16:46:58.0	357.570	0.330	-1.080	0.120
2020/01/31 16:46:58.1				
2020/01/31 16:46:58.2	357.610	0.330	-1.110	0.070
2020/01/31 16:46:58.3	357.640	0.330	-1.150	0.010
2020/01/31 16:46:58.4				
2020/01/31 16:46:58.5	357.710	0.320	-1.190	-0.100
2020/01/31 16:46:58.6	357.740	0.310	-1.210	-0.160
2020/01/31 16:46:58.7	357.780	0.300	-1.220	-0.210
2020/01/31 16:46:58.8	357.820	0.290	-1.230	-0.270
2020/01/31 16:46:58.9	357.890	0.260	-1.220	-0.380
2020/01/31 16:46:59.0				
2020/01/31 16:46:59.1	357.930	0.250	-1.210	-0.430
2020/01/31 16:46:59.2	357.960	0.230	-1.190	-0.480
2020/01/31 16:46:59.3	358.020	0.190	-1.140	-0.580
2020/01/31 16:46:59.4				
2020/01/31 16:46:59.5	358.050	0.180	-1.100	-0.620
2020/01/31 16:46:59.6	358.080	0.160	-1.060	-0.660
2020/01/31 16:46:59.7	358.110	0.140	-1.020	-0.700
2020/01/31 16:46:59.8				
2020/01/31 16:46:59.9	358.150	0.100	-0.920	-0.760
2020/01/31 16:47:00.0				
2020/01/31 16:47:00.1	358.190	0.060	-0.800	-0.810
2020/01/31 16:47:00.2	358.210	0.040	-0.740	-0.820
2020/01/31 16:47:00.3	358.230	0.010	-0.600	-0.840
2020/01/31 16:47:00.4				
2020/01/31 16:47:00.5	358.240	-0.000	-0.530	-0.840
2020/01/31 16:47:00.6	358.250	-0.010	-0.460	-0.830
2020/01/31 16:47:00.7	358.250	-0.020	-0.380	-0.820
2020/01/31 16:47:00.8				
2020/01/31 16:47:00.9	358.270	-0.040	-0.240	-0.790
2020/01/31 16:47:01.0	358.270	-0.040	-0.160	-0.760
2020/01/31 16:47:01.1				
2020/01/31 16:47:01.2	358.260	-0.040	-0.020	-0.700
2020/01/31 16:47:01.3	358.250	-0.040	0.040	-0.670
2020/01/31 16:47:01.4	358.250	-0.040	0.110	-0.630
2020/01/31 16:47:01.5	358.230	-0.020	0.220	-0.560
2020/01/31 16:47:01.6	358.220	-0.010	0.270	-0.520
2020/01/31 16:47:01.7				
2020/01/31 16:47:01.8	358.210	0.000	0.320	-0.480
2020/01/31 16:47:01.9	358.190	0.030	0.400	-0.400
2020/01/31 16:47:02.0	358.180	0.050	0.430	-0.370
2020/01/31 16:47:02.1				
2020/01/31 16:47:02.2	358.170	0.060	0.450	-0.330
2020/01/31 16:47:02.3	358.160	0.080	0.460	-0.300
2020/01/31 16:47:02.4	358.150	0.100	0.470	-0.270
2020/01/31 16:47:02.5	358.130	0.130	0.470	-0.210
2020/01/31 16:47:02.6	358.120	0.140	0.460	-0.190
2020/01/31 16:47:02.7				
2020/01/31 16:47:02.8	358.120	0.160	0.440	-0.170
2020/01/31 16:47:02.9	358.110	0.170	0.420	-0.150
2020/01/31 16:47:03.0	358.100	0.180	0.400	-0.140
2020/01/31 16:47:03.1	358.080	0.200	0.340	-0.120
2020/01/31 16:47:03.2				
2020/01/31 16:47:03.3	358.070	0.200	0.300	-0.110
2020/01/31 16:47:03.4	358.060	0.200	0.260	-0.110
2020/01/31 16:47:03.5	358.050	0.190	0.180	-0.120
2020/01/31 16:47:03.6	358.040	0.190	0.130	-0.120
2020/01/31 16:47:03.7				
2020/01/31 16:47:03.8	358.020	0.180	0.090	-0.140
2020/01/31 16:47:03.9	358.010	0.160	0.050	-0.150
2020/01/31 16:47:04.0	358.000	0.130	-0.040	-0.190
2020/01/31 16:47:04.1				
2020/01/31 16:47:04.2	357.990	0.100	-0.080	-0.220
2020/01/31 16:47:04.3	357.980	0.080	-0.130	-0.240
2020/01/31 16:47:04.4	357.970	0.020	-0.200	-0.300
2020/01/31 16:47:04.5	357.960	-0.010	-0.240	-0.330
2020/01/31 16:47:04.6	357.960	-0.040	-0.270	-0.360
2020/01/31 16:47:04.7				
2020/01/31 16:47:04.8	357.940	-0.070	-0.290	-0.400
2020/01/31 16:47:04.9	357.940	-0.140	-0.340	-0.460
2020/01/31 16:47:05.0	357.930	-0.180	-0.350	-0.500
2020/01/31 16:47:05.1				
2020/01/31 16:47:05.2	357.930	-0.210	-0.370	-0.530
2020/01/31 16:47:05.3	357.930	-0.240	-0.380	-0.560
2020/01/31 16:47:05.4	357.930	-0.280	-0.380	-0.590
2020/01/31 16:47:05.5	357.930	-0.310	-0.380	-0.610
2020/01/31 16:47:05.6	357.940	-0.340	-0.380	-0.640
2020/01/31 16:47:05.7	357.940	-0.370	-0.380	-0.660
2020/01/31 16:47:05.8	357.960	-0.390	-0.370	-0.690
2020/01/31 16:47:05.9				
2020/01/31 16:47:06.0	357.980	-0.440	-0.350	-0.730
2020/01/31 16:47:06.1	357.990	-0.460	-0.340	-0.750
2020/01/31 16:47:06.2	358.000	-0.470	-0.330	-0.770
2020/01/31 16:47:06.3	358.030	-0.500	-0.300	-0.800
2020/01/31 16:47:06.4	358.050	-0.500	-0.290	-0.820
2020/01/31 16:47:06.5	358.070	-0.510	-0.280	-0.830
2020/01/31 16:47:06.6				
2020/01/31 16:47:06.7	358.080	-0.510	-0.270	-0.850
2020/01/31 16:47:06.8	358.100	-0.510	-0.260	-0.860
2020/01/31 16:47:06.9	358.140	-0.490	-0.250	-0.880
2020/01/31 16:47:07.0	358.170	-0.480	-0.240	-0.890
2020/01/31 16:47:07.1				
2020/01/31 16:47:07.2	358.190	-0.470	-0.240	-0.890
2020/01/31 16:47:07.3	358.210	-0.450	-0.230	-0.900
2020/01/31 16:47:07.4	358.230	-0.430	-0.230	-0.900
2020/01/31 16:47:07.5				
2020/01/31 16:47:07.6	358.260	-0.390	-0.230	-0.890
2020/01/31 16:47:07.7				
2020/01/31 16:47:07.8	358.290	-0.340	-0.240	-0.870
2020/01/31 16:47:07.9	358.310	-0.310	-0.240	-0.850
2020/01/31 16:47:08.0				
2020/01/31 16:47:08.1	358.330	-0.250	-0.250	-0.810
2020/01/31 16:47:08.2	358.340	-0.220	-0.260	-0.780
2020/01/31 16:47:08.3	358.340	-0.190	-0.270	-0.750
2020/01/31 16:47:08.4	358.350	-0.120	-0.290	-0.680
2020/01/31 16:47:08.5	358.350	-0.090	-0.300	-0.640
2020/01/31 16:47:08.6	358.350	-0.050	-0.310	-0.590
2020/01/31 16:47:08.7	358.330	-0.020	-0.310	-0.540
2020/01/31 16:47:08.8				
2020/01/31 16:47:08.9	358.330	0.010	-0.320	-0.500
2020/01/31 16:47:09.0	358.320	0.050	-0.330	-0.450
2020/01/31 16:47:09.1	358.320	0.080	-0.340	-0.400
2020/01/31 16:47:09.2	358.310	0.110	-0.350	-0.350
2020/01/31 16:47:09.3	358.280	0.180	-0.360	-0.250
2020/01/31 16:47:09.4	358.270	0.210	-0.370	-0.200
2020/01/31 16:47:09.5	358.260	0.240	-0.380	-0.150
2020/01/31 16:47:09.6				
2020/01/31 16:47:09.7	358.240	0.270	-0.390	-0.100
2020/01/31 16:47:09.8	358.230	0.300	-0.390	-0.050
2020/01/31 16:47:09.9	358.220	0.320	-0.400	-0.000
2020/01/31 16:47:10.0	358.200	0.350	-0.410	0.040
2020/01/31 16:47:10.1				
2020/01/31 16:47:10.2	358.180	0.410	-0.420	0.130
2020/01/31 16:47:10.3				
2020/01/31 16:47:10.4	358.150	0.460	-0.440	0.200
2020/01/31 16:47:10.5	358.130	0.510	-0.460	0.270
2020/01/31 16:47:10.6	358.120	0.530	-0.470	0.290
2020/01/31 16:47:10.7				
2020/01/31 16:47:10.8	358.120	0.550	-0.480	0.320
2020/01/31 16:47:10.9	358.110	0.570	-0.490	0.340
2020/01/31 16:47:11.0				
2020/01/31 16:47:11.1	358.100	0.610	-0.520	0.360
2020/01/31 16:47:11.2				
2020/01/31 16:47:11.3	358.100	0.640	-0.540	0.370
2020/01/31 16:47:11.4	358.100	0.650	-0.560	0.370
2020/01/31 16:47:11.5	358.100	0.670	-0.580	0.360
2020/01/31 16:47:11.6				
2020/01/31 16:47:11.7	358.110	0.680	-0.590	0.350
2020/01/31 16:47:11.8	358.100	0.680	-0.600	0.340
2020/01/31 16:47:11.9	358.100	0.680	-0.610	0.320
2020/01/31 16:47:12.0	358.110	0.680	-0.630	0.270
2020/01/31 16:47:12.1				
2020/01/31 16:47:12.2	358.120	0.670	-0.630	0.240
2020/01/31 16:47:12.3	358.130	0.660	-0.630	0.200
2020/01/31 16:47:12.4				
2020/01/31 16:47:12.5	358.140	0.630	-0.630	0.120
2020/01/31 16:47:12.6				
2020/01/31 16:47:12.7	358.170	0.590	-0.620	0.040
2020/01/31 16:47:12.8	358.180	0.570	-0.620	-0.020
2020/01/31 16:47:12.9	358.200	0.510	-0.590	-0.120
2020/01/31 16:47:13.0				
2020/01/31 16:47:13.1	358.220	0.470	-0.580	-0.170
2020/01/31 16:47:13.2	358.230	0.440	-0.560	-0.230
2020/01/31 16:47:13.3	358.270	0.360	-0.520	-0.340
2020/01/31 16:47:13.4				
2020/01/31 16:47:13.5	358.280	0.320	-0.490	-0.390
2020/01/31 16:47:13.6				
2020/01/31 16:47:13.7	358.320	0.220	-0.440	-0.490
2020/01/31 16:47:13.8	358.340	0.180	-0.400	-0.550
2020/01/31 16:47:13.9	358.360	0.130	-0.370	-0.590
2020/01/31 16:47:14.0	358.400	0.030	-0.300	-0.680
2020/01/31 16:47:14.1				
2020/01/31 16:47:14.2	358.410	-0.020	-0.270	-0.710
2020/01/31 16:47:14.3	358.430	-0.070	-0.230	-0.750
2020/01/31 16:47:14.4	358.450	-0.120	-0.190	-0.780
2020/01/31 16:47:14.5				
2020/01/31 16:47:14.6	358.470	-0.210	-0.110	-0.830
2020/01/31 16:47:14.7	358.490	-0.260	-0.070	-0.850
2020/01/31 16:47:14.8	358.500	-0.310	-0.030	-0.860
2020/01/31 16:47:14.9	358.510	-0.350	0.010	-0.870
2020/01/31 16:47:15.0				
2020/01/31 16:47:15.1	358.520	-0.430	0.080	-0.880
2020/01/31 16:47:15.2	358.530	-0.470	0.120	-0.880
2020/01/31 16:47:15.3				
2020/01/31 16:47:15.4	358.540	-0.540	0.190	-0.870
2020/01/31 16:47:15.5	358.540	-0.560	0.220	-0.860
2020/01/31 16:47:15.6	358.540	-0.590	0.250	-0.850
2020/01/31 16:47:15.7	358.540	-0.610	0.280	-0.830
2020/01/31 16:47:15.8	358.530	-0.630	0.310	-0.820
2020/01/31 16:47:15.9	358.530	-0.650	0.330	-0.800
2020/01/31 16:47:16.0				
2020/01/31 16:47:16.1	358.520	-0.670	0.370	-0.760
2020/01/31 16:47:16.2	358.520	-0.670	0.390	-0.730
2020/01/31 16:47:16.3	358.510	-0.670	0.400	-0.710
2020/01/31 16:47:16.4				
2020/01/31 16:47:16.5	358.500	-0.660	0.420	-0.660
2020/01/31 16:47:16.6	358.490	-0.650	0.430	-0.630
2020/01/31 16:47:16.7				
2020/01/31 16:47:16.8	358.470	-0.620	0.440	-0.580
2020/01/31 16:47:16.9				
2020/01/31 16:47:17.0	358.460	-0.580	0.440	-0.520
2020/01/31 16:47:17.1	358.450	-0.550	0.430	-0.490
2020/01/31 16:47:17.2	358.440	-0.520	0.430	-0.460
2020/01/31 16:47:17.3	358.430	-0.490	0.420	-0.430
2020/01/31 16:47:17.4	358.420	-0.460	0.420	-0.390
2020/01/31 16:47:17.5	358.410	-0.430	0.410	-0.360
2020/01/31 16:47:17.6	358.390	-0.400	0.400	-0.320
2020/01/31 16:47:17.7	358.380	-0.370	0.390	-0.290
2020/01/31 16:47:17.8	358.370	-0.330	0.380	-0.250
2020/01/31 16:47:17.9	358.350	-0.300	0.370	-0.220
2020/01/31 16:47:18.0	358.340	-0.270	0.360	-0.180
2020/01/31 16:47:18.1	358.320	-0.240	0.340	-0.150
2020/01/31 16:47:18.2	358.300	-0.210	0.320	-0.120
2020/01/31 16:47:18.3	358.280	-0.190	0.300	-0.090
2020/01/31 16:47:18.4	358.260	-0.160	0.280	-0.070
2020/01/31 16:47:18.5	358.230	-0.140	0.260	-0.050
2020/01/31 16:47:18.6	358.210	-0.120	0.230	-0.030
2020/01/31 16:47:18.7	358.190	-0.100	0.200	-0.010
2020/01/31 16:47:18.8	358.160	-0.080	0.160	0.000
2020/01/31 16:47:18.9	358.140	-0.070	0.120	0.010
2020/01/31 16:47:19.0	358.110	-0.050	0.080	0.010
2020/01/31 16:47:19.1				
2020/01/31 16:47:19.2	358.070	-0.040	-0.010	0.010
2020/01/31 16:47:19.3	358.060	-0.030	-0.060	-0.000
2020/01/31 16:47:19.4	358.040	-0.020	-0.120	-0.010
2020/01/31 16:47:19.5	358.030	-0.020	-0.180	-0.030
2020/01/31 16:47:19.6	358.010	-0.020	-0.240	-0.050
2020/01/31 16:47:19.7	358.000	-0.020	-0.300	-0.080
2020/01/31 16:47:19.8	358.010	-0.020	-0.360	-0.110
2020/01/31 16:47:19.9	358.010	-0.010	-0.430	-0.140
2020/01/31 16:47:20.0	358.000	-0.010	-0.500	-0.180
2020/01/31 16:47:20.1	358.000	-0.010	-0.570	-0.210
2020/01/31 16:47:20.2	358.000	-0.010	-0.640	-0.250
2020/01/31 16:47:20.3	358.000	-0.010	-0.710	-0.290
2020/01/31 16:47:20.4	358.000	-0.010	-0.780	-0.330
2020/01/31 16:47:20.5	358.010	-0.010	-0.850	-0.370
2020/01/31 16:47:20.6	358.020	-0.000	-0.910	-0.420
2020/01/31 16:47:20.7	358.020	0.000	-0.970	-0.460
2020/01/31 16:47:20.8	358.040	0.010	-1.030	-0.500
2020/01/31 16:47:20.9	358.050	0.020	-1.090	-0.550
2020/01/31 16:47:21.0	358.060	0.040	-1.140	-0.590
2020/01/31 16:47:21.1	358.080	0.050	-1.190	-0.630
2020/01/31 16:47:21.2	358.100	0.070	-1.240	-0.670
2020/01/31 16:47:21.3	358.120	0.090	-1.270	-0.710
2020/01/31 16:47:21.4	358.140	0.110	-1.310	-0.740
2020/01/31 16:47:21.5	358.170	0.130	-1.340	-0.780
2020/01/31 16:47:21.6	358.190	0.160	-1.360	-0.810
2020/01/31 16:47:21.7	358.220	0.190	-1.370	-0.830
2020/01/31 16:47:21.8	358.250	0.220	-1.380	-0.860
2020/01/31 16:47:21.9	358.280	0.250	-1.380	-0.880
2020/01/31 16:47:22.0	358.300	0.290	-1.380	-0.900
2020/01/31 16:47:22.1	358.330	0.320	-1.370	-0.910
2020/01/31 16:47:22.2	358.360	0.360	-1.350	-0.920
2020/01/31 16:47:22.3	358.390	0.390	-1.320	-0.920
2020/01/31 16:47:22.4	358.410	0.420	-1.290	-0.920
2020/01/31 16:47:22.5	358.440	0.450	-1.260	-0.920
2020/01/31 16:47:22.6	358.460	0.480	-1.210	-0.920
2020/01/31 16:47:22.7	358.490	0.510	-1.160	-0.910
2020/01/31 16:47:22.8	358.500	0.530	-1.110	-0.890
2020/01/31 16:47:22.9	358.520	0.550	-1.050	-0.880
2020/01/31 16:47:23.0	358.540	0.570	-0.990	-0.860
2020/01/31 16:47:23.1	358.560	0.580	-0.920	-0.840
2020/01/31 16:47:23.2	358.580	0.590	-0.850	-0.820
2020/01/31 16:47:23.3	358.590	0.600	-0.780	-0.800
2020/01/31 16:47:23.4	358.610	0.600	-0.710	-0.780
2020/01/31 16:47:23.5	358.620	0.590	-0.630	-0.750
2020/01/31 16:47:23.6	358.630	0.580	-0.550	-0.730
2020/01/31 16:47:23.7	358.640	0.560	-0.470	-0.700
2020/01/31 16:47:23.8	358.650	0.540	-0.390	-0.670
2020/01/31 16:47:23.9	358.660	0.510	-0.310	-0.650
2020/01/31 16:47:24.0	358.660	0.480	-0.230	-0.620
2020/01/31 16:47:24.1	358.670	0.440	-0.160	-0.590
2020/01/31 16:47:24.2	358.670	0.400	-0.080	-0.560
2020/01/31 16:47:24.3	358.670	0.360	-0.000	-0.530
2020/01/31 16:47:24.4	358.670	0.310	0.070	-0.500
2020/01/31 16:47:24.5	358.660	0.260	0.140	-0.470
2020/01/31 16:47:24.6	358.660	0.200	0.200	-0.440
2020/01/31 16:47:24.7	358.660	0.150	0.270	-0.410
2020/01/31 16:47:24.8	358.640	0.090	0.330	-0.380
2020/01/31 16:47:24.9	358.630	0.030	0.380	-0.360
2020/01/31 16:47:25.0	358.630	-0.030	0.430	-0.330
2020/01/31 16:47:25.1	358.620	-0.100	0.470	-0.310
2020/01/31 16:47:25.2	358.610	-0.160	0.510	-0.280
2020/01/31 16:47:25.3	358.600	-0.220	0.550	-0.260
2020/01/31 16:47:25.4	358.600	-0.270	0.580	-0.240
2020/01/31 16:47:25.5	358.590	-0.330	0.600	-0.220
2020/01/31 16:47:25.6	358.580	-0.380	0.620	-0.210
2020/01/31 16:47:25.7	358.580	-0.430	0.630	-0.200
2020/01/31 16:47:25.8	358.570	-0.480	0.640	-0.190
2020/01/31 16:47:25.9	358.560	-0.520	0.630	-0.180
2020/01/31 16:47:26.0	358.560	-0.550	0.630	-0.180
2020/01/31 16:47:26.1	358.560	-0.580	0.610	-0.170
2020/01/31 16:47:26.2	358.560	-0.600	0.590	-0.170
2020/01/31 16:47:26.3	358.560	-0.620	0.560	-0.170
2020/01/31 16:47:26.4	358.560	-0.630	0.530	-0.170
2020/01/31 16:47:26.5	358.560	-0.640	0.490	-0.180
2020/01/31 16:47:26.6	358.560	-0.640	0.450	-0.190
2020/01/31 16:47:26.7	358.570	-0.630	0.400	-0.190
2020/01/31 16:47:26.8	358.580	-0.610	0.340	-0.200
2020/01/31 16:47:26.9	358.580	-0.590	0.280	-0.210
2020/01/31 16:47:27.0	358.590	-0.560	0.220	-0.220
2020/01/31 16:47:27.1	358.600	-0.530	0.160	-0.230
2020/01/31 16:47:27.2	358.610	-0.490	0.100	-0.230
2020/01/31 16:47:27.3	358.620	-0.450	0.030	-0.240
2020/01/31 16:47:27.4	358.620	-0.400	-0.040	-0.240
2020/01/31 16:47:27.5	358.630	-0.350	-0.100	-0.240
2020/01/31 16:47:27.6	358.640	-0.290	-0.170	-0.250
2020/01/31 16:47:27.7	358.650	-0.240	-0.230	-0.250
2020/01/31 16:47:27.8	358.650	-0.180	-0.290	-0.250
2020/01/31 16:47:27.9	358.650	-0.120	-0.350	-0.240
2020/01/31 16:47:28.0	358.660	-0.060	-0.410	-0.240
2020/01/31 16:47:28.1	358.660	0.000	-0.460	-0.230
2020/01/31 16:47:28.2	358.660	0.060	-0.500	-0.220
2020/01/31 16:47:28.3	358.660	0.120	-0.540	-0.210
2020/01/31 16:47:28.4	358.660	0.170	-0.580	-0.200
2020/01/31 16:47:28.5	358.660	0.230	-0.610	-0.190
2020/01/31 16:47:28.6	358.650	0.280	-0.630	-0.170
2020/01/31 16:47:28.7	358.640	0.330	-0.650	-0.150
2020/01/31 16:47:28.8	358.620	0.370	-0.660	-0.130
2020/01/31 16:47:28.9	358.610	0.410	-0.670	-0.110
2020/01/31 16:47:29.0	358.600	0.440	-0.660	-0.090
2020/01/31 16:47:29.1	358.580	0.470	-0.660	-0.070
2020/01/31 16:47:29.2	358.560	0.500	-0.640	-0.050
2020/01/31 16:47:29.3	358.540	0.520	-0.620	-0.020
2020/01/31 16:47:29.4	358.520	0.540	-0.590	0.000
2020/01/31 16:47:29.5	358.490	0.550	-0.560	0.030
2020/01/31 16:47:29.6	358.460	0.550	-0.530	0.050
2020/01/31 16:47:29.7	358.430	0.550	-0.490	0.080
2020/01/31 16:47:29.8	358.400	0.540	-0.440	0.110
2020/01/31 16:47:29.9	358.370	0.530	-0.390	0.130
2020/01/31 16:47:30.0	358.330	0.520	-0.340	0.160
2020/01/31 16:47:30.1	358.300	0.500	-0.290	0.180
2020/01/31 16:47:30.2	358.260	0.480	-0.230	0.200
2020/01/31 16:47:30.3	358.230	0.450	-0.180	0.220
2020/01/31 16:47:30.4	358.190	0.420	-0.130	0.240
2020/01/31 16:47:30.5	358.160	0.390	-0.080	0.250
2020/01/31 16:47:30.6	358.130	0.350	-0.030	0.260
2020/01/31 16:47:30.7	358.100	0.320	0.020	0.270
2020/01/31 16:47:30.8	358.080	0.280	0.060	0.270
2020/01/31 16:47:30.9	358.060	0.240	0.100	0.270
2020/01/31 16:47:31.0	358.040	0.200	0.130	0.270
2020/01/31 16:47:31.1	358.020	0.160	0.160	0.260
2020/01/31 16:47:31.2	358.010	0.130	0.180	0.250
2020/01/31 16:47:31.3	358.000	0.090	0.200	0.230
2020/01/31 16:47:31.4	358.000	0.060	0.210	0.200
2020/01/31 16:47:31.5	358.000	0.030	0.210	0.170
2020/01/31 16:47:31.6	358.000	-0.000	0.200	0.140
2020/01/31 16:47:31.7	358.010	-0.030	0.190	0.090
2020/01/31 16:47:31.8	358.020	-0.050	0.170	0.050
2020/01/31 16:47:31.9	358.040	-0.070	0.140	-0.000
2020/01/31 16:47:32.0	358.060	-0.090	0.110	-0.050
2020/01/31 16:47:32.1	358.070	-0.100	0.070	-0.110
2020/01/31 16:47:32.2	358.090	-0.110	0.020	-0.160
2020/01/31 16:47:32.3	358.120	-0.120	-0.020	-0.220
2020/01/31 16:47:32.4	358.140	-0.130	-0.080	-0.270
2020/01/31 16:47:32.5	358.160	-0.130	-0.130	-0.330
2020/01/31 16:47:32.6	358.180	-0.140	-0.180	-0.390
2020/01/31 16:47:32.7	358.200	-0.140	-0.240	-0.450
2020/01/31 16:47:32.8	358.220	-0.140	-0.300	-0.500
2020/01/31 16:47:32.9	358.240	-0.140	-0.350	-0.560
2020/01/31 16:47:33.0	358.250	-0.140	-0.400	-0.620
2020/01/31 16:47:33.1	358.270	-0.140	-0.450	-0.670
2020/01/31 16:47:33.2	358.290	-0.140	-0.500	-0.730
2020/01/31 16:47:33.3	358.300	-0.140	-0.540	-0.780
2020/01/31 16:47:33.4	358.320	-0.140	-0.580	-0.840
2020/01/31 16:47:33.5	358.330	-0.140	-0.620	-0.890
2020/01/31 16:47:33.6	358.340	-0.150	-0.650	-0.940
2020/01/31 16:47:33.7	358.360	-0.150	-0.670	-0.990
2020/01/31 16:47:33.8	358.380	-0.160	-0.680	-1.030
2020/01/31 16:47:33.9	358.390	-0.170	-0.700	-1.070
2020/01/31 16:47:34.0	358.400	-0.180	-0.700	-1.110
2020/01/31 16:47:34.1	358.410	-0.190	-0.710	-1.150
2020/01/31 16:47:34.2	358.420	-0.210	-0.700	-1.180
2020/01/31 16:47:34.3	358.440	-0.220	-0.690	-1.210
2020/01/31 16:47:34.4	358.450	-0.240	-0.680	-1.230
2020/01/31 16:47:34.5	358.460	-0.250	-0.660	-1.250
2020/01/31 16:47:34.6	358.470	-0.270	-0.640	-1.270
2020/01/31 16:47:34.7	358.480	-0.290	-0.620	-1.280
2020/01/31 16:47:34.8	358.500	-0.310	-0.590	-1.290
2020/01/31 16:47:34.9	358.510	-0.340	-0.560	-1.290
2020/01/31 16:47:35.0	358.520	-0.360	-0.530	-1.290
2020/01/31 16:47:35.1	358.540	-0.380	-0.490	-1.290
2020/01/31 16:47:35.2	358.550	-0.400	-0.460	-1.280
2020/01/31 16:47:35.3	358.560	-0.420	-0.420	-1.260
2020/01/31 16:47:35.4	358.570	-0.440	-0.390	-1.250
2020/01/31 16:47:35.5	358.580	-0.460	-0.360	-1.220
2020/01/31 16:47:35.6	358.580	-0.470	-0.320	-1.200
2020/01/31 16:47:35.7	358.590	-0.490	-0.290	-1.170
2020/01/31 16:47:35.8	358.590	-0.500	-0.260	-1.140
2020/01/31 16:47:35.9	358.590	-0.510	-0.230	-1.100
2020/01/31 16:47:36.0	358.600	-0.520	-0.210	-1.060
2020/01/31 16:47:36.1	358.600	-0.520	-0.190	-1.020
2020/01/31 16:47:36.2	358.600	-0.520	-0.170	-0.980
2020/01/31 16:47:36.3	358.610	-0.520	-0.150	-0.940
2020/01/31 16:47:36.4	358.610	-0.510	-0.140	-0.890
2020/01/31 16:47:36.5	358.610	-0.500	-0.130	-0.850
2020/01/31 16:47:36.6	358.610	-0.490	-0.130	-0.800
2020/01/31 16:47:36.7	358.610	-0.470	-0.130	-0.750
2020/01/31 16:47:36.8	358.620	-0.450	-0.130	-0.710
2020/01/31 16:47:36.9	358.620	-0.420	-0.140	-0.660
2020/01/31 16:47:37.0	358.620	-0.400	-0.150	-0.620
2020/01/31 16:47:37.1	358.620	-0.360	-0.160	-0.570
2020/01/31 16:47:37.2	358.630	-0.330	-0.180	-0.530
2020/01/31 16:47:37.3	358.630	-0.290	-0.200	-0.490
2020/01/31 16:47:37.4	358.640	-0.250	-0.220	-0.450
2020/01/31 16:47:37.5	358.650	-0.200	-0.240	-0.410
2020/01/31 16:47:37.6	358.660	-0.160	-0.260	-0.380
2020/01/31 16:47:37.7	358.660	-0.110	-0.290	-0.340
2020/01/31 16:47:37.8	358.660	-0.060	-0.310	-0.310
2020/01/31 16:47:37.9	358.670	-0.010	-0.340	-0.280
2020/01/31 16:47:38.0	358.680	0.040	-0.360	-0.250
2020/01/31 16:47:38.1	358.690	0.090	-0.390	-0.220
2020/01/31 16:47:38.2	358.700	0.140	-0.410	-0.190
2020/01/31 16:47:38.3	358.710	0.180	-0.430	-0.170
2020/01/31 16:47:38.4	358.710	0.230	-0.450	-0.140
2020/01/31 16:47:38.5	358.720	0.280	-0.460	-0.110
2020/01/31 16:47:38.6	358.720	0.320	-0.480	-0.080
2020/01/31 16:47:38.7	358.720	0.360	-0.480	-0.040
2020/01/31 16:47:38.8	358.700	0.390	-0.490	-0.010
2020/01/31 16:47:38.9	358.700	0.420	-0.480	0.020
2020/01/31 16:47:39.0	358.690	0.450	-0.480	0.060
2020/01/31 16:47:39.1	358.670	0.480	-0.460	0.100
2020/01/31 16:47:39.2	358.660	0.490	-0.440	0.140
2020/01/31 16:47:39.3	358.630	0.510	-0.420	0.180
2020/01/31 16:47:39.4	358.610	0.520	-0.390	0.210
2020/01/31 16:47:39.5	358.580	0.520	-0.360	0.250
2020/01/31 16:47:39.6	358.560	0.530	-0.320	0.290
2020/01/31 16:47:39.7	358.530	0.520	-0.280	0.320
2020/01/31 16:47:39.8	358.500	0.510	-0.240	0.350
2020/01/31 16:47:39.9	358.460	0.500	-0.190	0.380
2020/01/31 16:47:40.0	358.430	0.490	-0.140	0.400
2020/01/31 16:47:40.1	358.390	0.470	-0.090	0.420
2020/01/31 16:47:40.2	358.350	0.450	-0.040	0.440
2020/01/31 16:47:40.3	358.310	0.420	0.010	0.460
2020/01/31 16:47:40.4	358.270	0.400	0.060	0.470
2020/01/31 16:47:40.5	358.240	0.370	0.110	0.480
2020/01/31 16:47:40.6	358.200	0.340	0.150	0.480
2020/01/31 16:47:40.7	358.160	0.310	0.190	0.480
2020/01/31 16:47:40.8	358.130	0.280	0.230	0.470
2020/01/31 16:47:40.9	358.100	0.250	0.260	0.460
2020/01/31 16:47:41.0	358.070	0.230	0.290	0.440
2020/01/31 16:47:41.1	358.050	0.200	0.310	0.420
2020/01/31 16:47:41.2	358.020	0.170	0.330	0.400
2020/01/31 16:47:41.3	358.000	0.150	0.340	0.370
2020/01/31 16:47:41.4	357.980	0.130	0.350	0.330
2020/01/31 16:47:41.5	357.970	0.110	0.350	0.300
2020/01/31 16:47:41.6	357.950	0.100	0.340	0.260
2020/01/31 16:47:41.7	357.940	0.080	0.330	0.220
2020/01/31 16:47:41.8	357.930	0.070	0.310	0.180
2020/01/31 16:47:41.9	357.920	0.060	0.290	0.140
2020/01/31 16:47:42.0	357.910	0.060	0.260	0.090
2020/01/31 16:47:42.1	357.900	0.060	0.230	0.050
2020/01/31 16:47:42.2	357.890	0.050	0.200	0.010
2020/01/31 16:47:42.3	357.890	0.060	0.160	-0.040
2020/01/31 16:47:42.4	357.880	0.060	0.120	-0.080
2020/01/31 16:47:42.5	357.870	0.070	0.070	-0.130
2020/01/31 16:47:42.6	357.870	0.080	0.030	-0.170
2020/01/31 16:47:42.7	357.860	0.080	-0.030	-0.220
2020/01/31 16:47:42.8	357.860	0.100	-0.080	-0.270
2020/01/31 16:47:42.9	357.860	0.110	-0.130	-0.310
2020/01/31 16:47:43.0	357.860	0.120	-0.190	-0.360
2020/01/31 16:47:43.1	357.860	0.130	-0.250	-0.410
2020/01/31 16:47:43.2	357.860	0.150	-0.310	-0.460
2020/01/31 16:47:43.3	357.860	0.160	-0.370	-0.510
2020/01/31 16:47:43.4	357.870	0.170	-0.430	-0.560
2020/01/31 16:47:43.5	357.870	0.190	-0.490	-0.610
2020/01/31 16:47:43.6	357.880	0.200	-0.550	-0.660
2020/01/31 16:47:43.7	357.890	0.210	-0.610	-0.710
2020/01/31 16:47:43.8	357.940	0.220	-0.660	-0.760
2020/01/31 16:47:43.9	357.950	0.230	-0.720	-0.800
2020/01/31 16:47:44.0	357.970	0.240	-0.770	-0.850
2020/01/31 16:47:44.1	357.990	0.250	-0.830	-0.900
2020/01/31 16:47:44.2	358.010	0.250	-0.870	-0.950
2020/01/31 16:47:44.3	358.030	0.260	-0.920	-0.990
2020/01/31 16:47:44.4	358.050	0.260	-0.960	-1.040
2020/01/31 16:47:44.5	358.080	0.260	-1.000	-1.080
2020/01/31 16:47:44.6	358.110	0.250	-1.030	-1.120
2020/01/31 16:47:44.7	358.130	0.250	-1.050	-1.160
2020/01/31 16:47:44.8	358.170	0.240	-1.080	-1.200
2020/01/31 16:47:44.9	358.200	0.230	-1.090	-1.230
2020/01/31 16:47:45.0	358.240	0.210	-1.100	-1.270
2020/01/31 16:47:45.1	358.270	0.190	-1.110	-1.300
2020/01/31 16:47:45.2	358.300	0.170	-1.100	-1.330
2020/01/31 16:47:45.3	358.340	0.150	-1.090	-1.360
2020/01/31 16:47:45.4	358.370	0.130	-1.080	-1.390
2020/01/31 16:47:45.5	358.400	0.100	-1.060	-1.410
2020/01/31 16:47:45.6	358.440	0.070	-1.030	-1.430
2020/01/31 16:47:45.7	358.470	0.040	-0.990	-1.440
2020/01/31 16:47:45.8	358.510	0.010	-0.950	-1.460
2020/01/31 16:47:45.9	358.540	-0.030	-0.900	-1.470
2020/01/31 16:47:46.0	358.570	-0.060	-0.850	-1.480
2020/01/31 16:47:46.1	358.600	-0.100	-0.790	-1.480
2020/01/31 16:47:46.2	358.630	-0.140	-0.730	-1.480
2020/01/31 16:47:46.3	358.660	-0.180	-0.660	-1.470
2020/01/31 16:47:46.4	358.680	-0.220	-0.590	-1.470
2020/01/31 16:47:46.5	358.710	-0.260	-0.520	-1.450
2020/01/31 16:47:46.6	358.730	-0.310	-0.440	-1.440
2020/01/31 16:47:46.7	358.750	-0.350	-0.360	-1.420
2020/01/31 16:47:46.8	358.760	-0.390	-0.280	-1.400
2020/01/31 16:47:46.9	358.780	-0.430	-0.200	-1.380
2020/01/31 16:47:47.0	358.790	-0.470	-0.120	-1.350
2020/01/31 16:47:47.1	358.800	-0.510	-0.040	-1.320
2020/01/31 16:47:47.2	358.810	-0.550	0.050	-1.280
2020/01/31 16:47:47.3	358.820	-0.590	0.130	-1.250
2020/01/31 16:47:47.4	358.820	-0.620	0.200	-1.210
2020/01/31 16:47:47.5	358.820	-0.650	0.280	-1.170
2020/01/31 16:47:47.6	358.820	-0.680	0.350	-1.120
2020/01/31 16:47:47.7	358.820	-0.710	0.420	-1.070
2020/01/31 16:47:47.8	358.800	-0.730	0.480	-1.020
2020/01/31 16:47:47.9	358.790	-0.750	0.540	-0.960
2020/01/31 16:47:48.0	358.770	-0.770	0.600	-0.910
2020/01/31 16:47:48.1	358.750	-0.790	0.640	-0.840
2020/01/31 16:47:48.2	358.730	-0.800	0.690	-0.780
2020/01/31 16:47:48.3	358.710	-0.800	0.720	-0.710
2020/01/31 16:47:48.4	358.680	-0.810	0.760	-0.630
2020/01/31 16:47:48.5	358.650	-0.800	0.780	-0.560
2020/01/31 16:47:48.6	358.610	-0.800	0.800	-0.480
2020/01/31 16:47:48.7	358.580	-0.780	0.810	-0.400
2020/01/31 16:47:48.8	358.510	-0.770	0.810	-0.320
2020/01/31 16:47:48.9	358.470	-0.750	0.810	-0.240
2020/01/31 16:47:49.0	358.430	-0.720	0.800	-0.150
2020/01/31 16:47:49.1	358.390	-0.690	0.790	-0.070
2020/01/31 16:47:49.2	358.350	-0.650	0.770	0.020
2020/01/31 16:47:49.3	358.310	-0.610	0.740	0.100
2020/01/31 16:47:49.4	358.270	-0.570	0.700	0.180
2020/01/31 16:47:49.5	358.230	-0.510	0.660	0.260
2020/01/31 16:47:49.6	358.190	-0.460	0.620	0.340
2020/01/31 16:47:49.7	358.160	-0.400	0.560	0.420
2020/01/31 16:47:49.8	358.120	-0.330	0.510	0.490
2020/01/31 16:47:49.9	358.090	-0.260	0.440	0.560
2020/01/31 16:47:50.0	358.060	-0.190	0.380	0.630
2020/01/31 16:47:50.1	358.030	-0.120	0.300	0.690
2020/01/31 16:47:50.2	358.000	-0.040	0.230	0.750
2020/01/31 16:47:50.3	357.980	0.040	0.150	0.810
2020/01/31 16:47:50.4	357.960	0.120	0.060	0.860
2020/01/31 16:47:50.5	357.940	0.210	-0.020	0.900
2020/01/31 16:47:50.6	357.920	0.290	-0.100	0.940
2020/01/31 16:47:50.7	357.900	0.370	-0.190	0.980
2020/01/31 16:47:50.8	357.880	0.450	-0.270	1.010
2020/01/31 16:47:50.9	357.870	0.530	-0.350	1.040
2020/01/31 16:47:51.0	357.850	0.610	-0.430	1.070
2020/01/31 16:47:51.1	357.840	0.680	-0.510	1.100
2020/01/31 16:47:51.2	357.820	0.750	-0.580	1.110
2020/01/31 16:47:51.3	357.810	0.810	-0.650	1.130
2020/01/31 16:47:51.4	357.790	0.870	-0.720	1.140
2020/01/31 16:47:51.5	357.780	0.920	-0.780	1.140
2020/01/31 16:47:51.6	357.770	0.970	-0.830	1.140
2020/01/31 16:47:51.7	357.760	1.000	-0.880	1.130
2020/01/31 16:47:51.8	357.760	1.030	-0.920	1.120
2020/01/31 16:47:51.9	357.760	1.050	-0.960	1.100
2020/01/31 16:47:52.0	357.750	1.070	-1.000	1.070
2020/01/31 16:47:52.1	357.750	1.070	-1.020	1.030
2020/01/31 16:47:52.2	357.750	1.070	-1.050	0.990
2020/01/31 16:47:52.3	357.750	1.060	-1.060	0.930
2020/01/31 16:47:52.4	357.760	1.040	-1.080	0.870
2020/01/31 16:47:52.5	357.760	1.010	-1.080	0.800
2020/01/31 16:47:52.6	357.770	0.980	-1.090	0.730
2020/01/31 16:47:52.7	357.790	0.940	-1.090	0.640
2020/01/31 16:47:52.8	357.810	0.890	-1.080	0.550
2020/01/31 16:47:52.9	357.820	0.840	-1.060	0.450
2020/01/31 16:47:53.0	357.840	0.780	-1.050	0.350
2020/01/31 16:47:53.1	357.860	0.710	-1.030	0.250
2020/01/31 16:47:53.2	357.890	0.640	-1.010	0.140
2020/01/31 16:47:53.3	357.910	0.570	-0.990	0.030
2020/01/31 16:47:53.4	357.940	0.500	-0.960	-0.090
2020/01/31 16:47:53.5	357.970	0.420	-0.930	-0.200
2020/01/31 16:47:53.6	358.000	0.340	-0.900	-0.320
2020/01/31 16:47:53.7	358.030	0.260	-0.860	-0.430
2020/01/31 16:47:53.8	358.060	0.180	-0.830	-0.550
2020/01/31 16:47:53.9	358.090	0.100	-0.800	-0.660
2020/01/31 16:47:54.0	358.120	0.020	-0.760	-0.780
2020/01/31 16:47:54.1	358.160	-0.050	-0.720	-0.880
2020/01/31 16:47:54.2	358.190	-0.130	-0.680	-0.990
2020/01/31 16:47:54.3	358.220	-0.200	-0.640	-1.090
2020/01/31 16:47:54.4	358.260	-0.270	-0.600	-1.190
2020/01/31 16:47:54.5	358.290	-0.330	-0.560	-1.280
2020/01/31 16:47:54.6	358.320	-0.390	-0.520	-1.370
2020/01/31 16:47:54.7	358.360	-0.450	-0.480	-1.450
2020/01/31 16:47:54.8	358.400	-0.500	-0.440	-1.530
2020/01/31 16:47:54.9	358.430	-0.540	-0.400	-1.610
2020/01/31 16:47:55.0	358.460	-0.580	-0.360	-1.680
2020/01/31 16:47:55.1	358.500	-0.620	-0.320	-1.740
2020/01/31 16:47:55.2	358.530	-0.650	-0.290	-1.800
2020/01/31 16:47:55.3	358.560	-0.670	-0.250	-1.860
2020/01/31 16:47:55.4	358.590	-0.690	-0.220	-1.910
2020/01/31 16:47:55.5	358.620	-0.710	-0.190	-1.950
2020/01/31 16:47:55.6	358.650	-0.710	-0.160	-2.000
2020/01/31 16:47:55.7	358.680	-0.720	-0.130	-2.030
2020/01/31 16:47:55.8	358.710	-0.720	-0.100	-2.070
2020/01/31 16:47:55.9	358.740	-0.710	-0.080	-2.090
2020/01/31 16:47:56.0	358.780	-0.700	-0.060	-2.120
2020/01/31 16:47:56.1	358.810	-0.690	-0.040	-2.140
2020/01/31 16:47:56.2	358.840	-0.670	-0.020	-2.150
2020/01/31 16:47:56.3	358.870	-0.640	-0.010	-2.160
2020/01/31 16:47:56.4	358.900	-0.620	0.000	-2.160
2020/01/31 16:47:56.5	358.930	-0.590	0.010	-2.160
2020/01/31 16:47:56.6	358.960	-0.560	0.020	-2.150
2020/01/31 16:47:56.7	358.980	-0.530	0.030	-2.140
2020/01/31 16:47:56.8	359.000	-0.490	0.040	-2.120
2020/01/31 16:47:56.9	359.020	-0.460	0.040	-2.100
2020/01/31 16:47:57.0	359.040	-0.420	0.050	-2.070
2020/01/31 16:47:57.1	359.060	-0.380	0.060	-2.030
2020/01/31 16:47:57.2	359.080	-0.340	0.060	-1.990
2020/01/31 16:47:57.3	359.090	-0.310	0.070	-1.940
2020/01/31 16:47:57.4	359.100	-0.270	0.070	-1.880
2020/01/31 16:47:57.5	359.100	-0.230	0.080	-1.820
2020/01/31 16:47:57.6	359.110	-0.200	0.090	-1.750
2020/01/31 16:47:57.7	359.110	-0.170	0.090	-1.680
2020/01/31 16:47:57.8	359.100	-0.140	0.100	-1.600
2020/01/31 16:47:57.9	359.100	-0.110	0.110	-1.520
2020/01/31 16:47:58.0	359.090	-0.080	0.120	-1.430
2020/01/31 16:47:58.1	359.080	-0.050	0.130	-1.340
2020/01/31 16:47:58.2	359.060	-0.030	0.140	-1.250
2020/01/31 16:47:58.3	359.040	-0.010	0.150	-1.150
2020/01/31 16:47:58.4	359.020	0.010	0.160	-1.060
2020/01/31 16:47:58.5	358.990	0.020	0.160	-0.960
2020/01/31 16:47:58.6	358.960	0.040	0.170	-0.860
2020/01/31 16:47:58.7	358.930	0.050	0.180	-0.760
2020/01/31 16:47:58.8	358.890	0.060	0.180	-0.660
2020/01/31 16:47:58.9	358.860	0.070	0.190	-0.560
2020/01/31 16:47:59.0	358.820	0.070	0.190	-0.470
2020/01/31 16:47:59.1	358.780	0.080	0.200	-0.380
2020/01/31 16:47:59.2	358.740	0.080	0.200	-0.290
2020/01/31 16:47:59.3	358.700	0.090	0.200	-0.200
2020/01/31 16:47:59.4	358.660	0.090	0.200	-0.120
2020/01/31 16:47:59.5	358.620	0.090	0.190	-0.030
2020/01/31 16:47:59.6	358.580	0.090	0.190	0.040
2020/01/31 16:47:59.7	358.530	0.100	0.180	0.120
2020/01/31 16:47:59.8	358.500	0.100	0.180	0.180
2020/01/31 16:47:59.9	358.460	0.100	0.170	0.250
2020/01/31 16:48:00.0	358.420	0.110	0.160	0.310
2020/01/31 16:48:00.1	358.380	0.110	0.140	0.370
2020/01/31 16:48:00.2	358.350	0.120	0.120	0.430
2020/01/31 16:48:00.3	358.310	0.120	0.110	0.480
2020/01/31 16:48:00.4	358.280	0.130	0.090	0.520
2020/01/31 16:48:00.5	358.250	0.140	0.060	0.570
2020/01/31 16:48:00.6	358.230	0.150	0.040	0.600
2020/01/31 16:48:00.7	358.200	0.160	0.010	0.630
2020/01/31 16:48:00.8	358.180	0.180	-0.010	0.660
2020/01/31 16:48:00.9	358.160	0.190	-0.040	0.680
2020/01/31 16:48:01.0	358.140	0.210	-0.070	0.700
2020/01/31 16:48:01.1	358.120	0.220	-0.100	0.720
2020/01/31 16:48:01.2	358.110	0.240	-0.130	0.720
2020/01/31 16:48:01.3	358.100	0.260	-0.170	0.730
2020/01/31 16:48:01.4	358.090	0.280	-0.200	0.730
2020/01/31 16:48:01.5	358.080	0.300	-0.230	0.730
2020/01/31 16:48:01.6	358.070	0.320	-0.270	0.720
2020/01/31 16:48:01.7	358.060	0.330	-0.300	0.710
2020/01/31 16:48:01.8	358.050	0.350	-0.330	0.700
2020/01/31 16:48:01.9	358.040	0.370	-0.360	0.680
2020/01/31 16:48:02.0	358.030	0.380	-0.400	0.670
2020/01/31 16:48:02.1	358.020	0.400	-0.430	0.650
2020/01/31 16:48:02.2	358.010	0.410	-0.460	0.630
2020/01/31 16:48:02.3	358.000	0.420	-0.490	0.600
2020/01/31 16:48:02.4	357.990	0.430	-0.520	0.570
2020/01/31 16:48:02.5	357.980	0.440	-0.550	0.540
2020/01/31 16:48:02.6	357.980	0.440	-0.580	0.510
2020/01/31 16:48:02.7	357.970	0.440	-0.610	0.470
2020/01/31 16:48:02.8	357.970	0.440	-0.640	0.430
2020/01/31 16:48:02.9	357.970	0.440	-0.670	0.380
2020/01/31 16:48:03.0	357.970	0.440	-0.700	0.340
2020/01/31 16:48:03.1	357.970	0.430	-0.720	0.280
2020/01/31 16:48:03.2	357.980	0.420	-0.750	0.230
2020/01/31 16:48:03.3	357.980	0.410	-0.770	0.180
2020/01/31 16:48:03.4	358.000	0.400	-0.800	0.120
2020/01/31 16:48:03.5	358.010	0.390	-0.820	0.050
2020/01/31 16:48:03.6	358.030	0.370	-0.850	-0.010
2020/01/31 16:48:03.7	358.060	0.360	-0.870	-0.080
2020/01/31 16:48:03.8	358.090	0.340	-0.890	-0.160
2020/01/31 16:48:03.9	358.120	0.320	-0.920	-0.230
2020/01/31 16:48:04.0	358.160	0.300	-0.940	-0.310
2020/01/31 16:48:04.1	358.200	0.270	-0.970	-0.390
2020/01/31 16:48:04.2	358.250	0.250	-0.990	-0.470
2020/01/31 16:48:04.3	358.300	0.230	-1.010	-0.550
2020/01/31 16:48:04.4	358.350	0.200	-1.030	-0.630
2020/01/31 16:48:04.5	358.400	0.180	-1.050	-0.710
2020/01/31 16:48:04.6	358.460	0.150	-1.070	-0.790
2020/01/31 16:48:04.7	358.520	0.120	-1.080	-0.880
2020/01/31 16:48:04.8	358.590	0.090	-1.090	-0.960
2020/01/31 16:48:04.9	358.650	0.060	-1.100	-1.040
2020/01/31 16:48:05.0	358.710	0.030	-1.090	-1.120
2020/01/31 16:48:05.1	358.770	-0.000	-1.090	-1.190
2020/01/31 16:48:05.2	358.830	-0.040	-1.070	-1.270
2020/01/31 16:48:05.3	358.890	-0.070	-1.050	-1.340
2020/01/31 16:48:05.4	358.940	-0.110	-1.030	-1.410
2020/01/31 16:48:05.5	359.000	-0.150	-0.990	-1.470
2020/01/31 16:48:05.6	359.050	-0.190	-0.950	-1.530
2020/01/31 16:48:05.7	359.100	-0.230	-0.900	-1.590
2020/01/31 16:48:05.8	359.130	-0.270	-0.850	-1.640
2020/01/31 16:48:05.9	359.170	-0.310	-0.790	-1.680
2020/01/31 16:48:06.0	359.210	-0.350	-0.720	-1.720
2020/01/31 16:48:06.1	359.240	-0.400	-0.650	-1.750
2020/01/31 16:48:06.2	359.270	-0.440	-0.570	-1.770
2020/01/31 16:48:06.3	359.290	-0.480	-0.480	-1.790
2020/01/31 16:48:06.4	359.310	-0.530	-0.400	-1.800
2020/01/31 16:48:06.5	359.320	-0.570	-0.300	-1.800
2020/01/31 16:48:06.6	359.330	-0.610	-0.210	-1.800
2020/01/31 16:48:06.7	359.330	-0.650	-0.120	-1.790
2020/01/31 16:48:06.8	359.340	-0.690	-0.020	-1.770
2020/01/31 16:48:06.9	359.340	-0.730	0.080	-1.760
2020/01/31 16:48:07.0	359.330	-0.770	0.170	-1.730
2020/01/31 16:48:07.1	359.320	-0.800	0.260	-1.710
2020/01/31 16:48:07.2	359.310	-0.830	0.350	-1.680
2020/01/31 16:48:07.3	359.300	-0.860	0.430	-1.640
2020/01/31 16:48:07.4	359.280	-0.890	0.510	-1.610
2020/01/31 16:48:07.5	359.270	-0.910	0.580	-1.570
2020/01/31 16:48:07.6	359.250	-0.930	0.650	-1.530
2020/01/31 16:48:07.7	359.230	-0.940	0.700	-1.490
2020/01/31 16:48:07.8	359.200	-0.950	0.750	-1.450
2020/01/31 16:48:07.9	359.180	-0.950	0.800	-1.400
2020/01/31 16:48:08.0	359.150	-0.950	0.830	-1.360
2020/01/31 16:48:08.1	359.130	-0.940	0.860	-1.310
2020/01/31 16:48:08.2	359.100	-0.930	0.880	-1.260
2020/01/31 16:48:08.3	359.080	-0.910	0.890	-1.200
2020/01/31 16:48:08.4	359.050	-0.890	0.900	-1.150
2020/01/31 16:48:08.5	359.020	-0.860	0.890	-1.090
2020/01/31 16:48:08.6	358.990	-0.820	0.880	-1.030
2020/01/31 16:48:08.7	358.960	-0.780	0.870	-0.970
2020/01/31 16:48:08.8	358.920	-0.740	0.850	-0.910
2020/01/31 16:48:08.9	358.890	-0.680	0.820	-0.840
2020/01/31 16:48:09.0	358.860	-0.620	0.780	-0.770
2020/01/31 16:48:09.1	358.820	-0.560	0.740	-0.700
2020/01/31 16:48:09.2	358.790	-0.490	0.690	-0.630
2020/01/31 16:48:09.3	358.750	-0.420	0.640	-0.550
2020/01/31 16:48:09.4	358.710	-0.340	0.590	-0.470
2020/01/31 16:48:09.5	358.680	-0.260	0.530	-0.390
2020/01/31 16:48:09.6	358.640	-0.180	0.480	-0.300
2020/01/31 16:48:09.7	358.600	-0.090	0.420	-0.210
2020/01/31 16:48:09.8	358.560	-0.000	0.350	-0.130
2020/01/31 16:48:09.9	358.520	0.090	0.290	-0.040
2020/01/31 16:48:10.0	358.480	0.180	0.230	0.050
2020/01/31 16:48:10.1	358.430	0.260	0.180	0.140
2020/01/31 16:48:10.2	358.380	0.350	0.120	0.240
2020/01/31 16:48:10.3	358.340	0.440	0.060	0.330
2020/01/31 16:48:10.4	358.290	0.520	0.010	0.420
2020/01/31 16:48:10.5	358.240	0.610	-0.040	0.510
2020/01/31 16:48:10.6	358.190	0.680	-0.090	0.590
2020/01/31 16:48:10.7	358.140	0.760	-0.130	0.680
2020/01/31 16:48:10.8	358.070	0.830	-0.170	0.760
2020/01/31 16:48:10.9	358.020	0.890	-0.210	0.840
2020/01/31 16:48:11.0	357.970	0.950	-0.250	0.910
2020/01/31 16:48:11.1	357.920	1.010	-0.280	0.980
2020/01/31 16:48:11.2	357.870	1.050	-0.320	1.050
2020/01/31 16:48:11.3	357.820	1.090	-0.350	1.110
2020/01/31 16:48:11.4	357.770	1.130	-0.380	1.160
2020/01/31 16:48:11.5	357.730	1.150	-0.400	1.210
2020/01/31 16:48:11.6	357.690	1.180	-0.430	1.250
2020/01/31 16:48:11.7	357.650	1.190	-0.450	1.280
2020/01/31 16:48:11.8	357.610	1.200	-0.480	1.310
2020/01/31 16:48:11.9	357.580	1.200	-0.510	1.320
2020/01/31 16:48:12.0	357.550	1.190	-0.530	1.330
2020/01/31 16:48:12.1	357.530	1.180	-0.560	1.320
2020/01/31 16:48:12.2	357.510	1.160	-0.580	1.310
2020/01/31 16:48:12.3	357.490	1.130	-0.610	1.290
2020/01/31 16:48:12.4	357.480	1.100	-0.640	1.260
2020/01/31 16:48:12.5	357.480	1.070	-0.670	1.220
2020/01/31 16:48:12.6	357.480	1.030	-0.690	1.170
2020/01/31 16:48:12.7	357.490	0.990	-0.720	1.110
2020/01/31 16:48:12.8	357.500	0.940	-0.750	1.040
2020/01/31 16:48:12.9	357.510	0.890	-0.780	0.970
2020/01/31 16:48:13.0	357.530	0.840	-0.810	0.890
2020/01/31 16:48:13.1	357.560	0.780	-0.840	0.800
2020/01/31 16:48:13.2	357.590	0.720	-0.880	0.700
2020/01/31 16:48:13.3	357.620	0.660	-0.910	0.600
2020/01/31 16:48:13.4	357.660	0.600	-0.940	0.490
2020/01/31 16:48:13.5	357.700	0.540	-0.970	0.370
2020/01/31 16:48:13.6	357.750	0.480	-1.000	0.250
2020/01/31 16:48:13.7	357.800	0.420	-1.030	0.130
2020/01/31 16:48:13.8	357.860	0.360	-1.060	0.000
2020/01/31 16:48:13.9	357.920	0.290	-1.090	-0.120
2020/01/31 16:48:14.0	357.970	0.230	-1.110	-0.250
2020/01/31 16:48:14.1	358.030	0.170	-1.130	-0.380
2020/01/31 16:48:14.2	358.090	0.110	-1.140	-0.510
2020/01/31 16:48:14.3	358.150	0.060	-1.150	-0.630
2020/01/31 16:48:14.4	358.210	0.000	-1.160	-0.750
2020/01/31 16:48:14.5	358.270	-0.050	-1.160	-0.870
2020/01/31 16:48:14.6	358.320	-0.110	-1.150	-0.990
2020/01/31 16:48:14.7	358.380	-0.160	-1.140	-1.100
2020/01/31 16:48:14.8	358.430	-0.210	-1.130	-1.210
2020/01/31 16:48:14.9	358.480	-0.260	-1.110	-1.300
2020/01/31 16:48:15.0	358.530	-0.310	-1.080	-1.400
2020/01/31 16:48:15.1	358.570	-0.360	-1.050	-1.480
2020/01/31 16:48:15.2	358.610	-0.400	-1.010	-1.560
2020/01/31 16:48:15.3	358.650	-0.450	-0.970	-1.640
2020/01/31 16:48:15.4	358.690	-0.490	-0.920	-1.710
2020/01/31 16:48:15.5	358.730	-0.530	-0.870	-1.770
2020/01/31 16:48:15.6	358.760	-0.570	-0.820	-1.820
2020/01/31 16:48:15.7	358.790	-0.610	-0.760	-1.870
2020/01/31 16:48:15.8	358.820	-0.640	-0.710	-1.920
2020/01/31 16:48:15.9	358.840	-0.680	-0.650	-1.960
2020/01/31 16:48:16.0	358.870	-0.710	-0.580	-1.990
2020/01/31 16:48:16.1	358.900	-0.740	-0.520	-2.020
2020/01/31 16:48:16.2	358.920	-0.770	-0.460	-2.040
2020/01/31 16:48:16.3	358.940	-0.790	-0.400	-2.060
2020/01/31 16:48:16.4	358.970	-0.820	-0.340	-2.070
2020/01/31 16:48:16.5	358.990	-0.840	-0.280	-2.080
2020/01/31 16:48:16.6	359.010	-0.860	-0.230	-2.090
2020/01/31 16:48:16.7	359.030	-0.880	-0.170	-2.090
2020/01/31 16:48:16.8	359.050	-0.890	-0.120	-2.080
2020/01/31 16:48:16.9	359.070	-0.900	-0.070	-2.070
2020/01/31 16:48:17.0	359.080	-0.910	-0.020	-2.060
2020/01/31 16:48:17.1	359.100	-0.910	0.020	-2.040
2020/01/31 16:48:17.2	359.110	-0.910	0.060	-2.010
2020/01/31 16:48:17.3	359.120	-0.910	0.100	-1.980
2020/01/31 16:48:17.4	359.130	-0.910	0.140	-1.940
2020/01/31 16:48:17.5	359.140	-0.900	0.170	-1.900
2020/01/31 16:48:17.6	359.140	-0.890	0.200	-1.850
2020/01/31 16:48:17.7	359.140	-0.870	0.240	-1.790
2020/01/31 16:48:17.8	359.130	-0.850	0.270	-1.720
2020/01/31 16:48:17.9	359.130	-0.830	0.300	-1.650
2020/01/31 16:48:18.0	359.110	-0.810	0.330	-1.570
2020/01/31 16:48:18.1	359.090	-0.780	0.360	-1.480
2020/01/31 16:48:18.2	359.070	-0.750	0.390	-1.390
2020/01/31 16:48:18.3	359.040	-0.720	0.420	-1.290
2020/01/31 16:48:18.4	359.010	-0.690	0.450	-1.180
2020/01/31 16:48:18.5	358.970	-0.650	0.480	-1.070
2020/01/31 16:48:18.6	358.930	-0.620	0.510	-0.950
2020/01/31 16:48:18.7	358.880	-0.580	0.540	-0.830
2020/01/31 16:48:18.8	358.820	-0.540	0.570	-0.710
2020/01/31 16:48:18.9	358.770	-0.500	0.600	-0.580
2020/01/31 16:48:19.0	358.710	-0.450	0.630	-0.450
2020/01/31 16:48:19.1	358.650	-0.410	0.650	-0.330
2020/01/31 16:48:19.2	358.590	-0.370	0.670	-0.200
2020/01/31 16:48:19.3	358.530	-0.320	0.680	-0.080
2020/01/31 16:48:19.4	358.470	-0.270	0.700	0.050
2020/01/31 16:48:19.5	358.400	-0.230	0.700	0.160
2020/01/31 16:48:19.6	358.340	-0.180	0.700	0.280
2020/01/31 16:48:19.7	358.280	-0.130	0.700	0.390
2020/01/31 16:48:19.8	358.230	-0.080	0.680	0.500
2020/01/31 16:48:19.9	358.170	-0.040	0.670	0.590
2020/01/31 16:48:20.0	358.110	0.010	0.640	0.680
2020/01/31 16:48:20.1	358.060	0.060	0.610	0.770
2020/01/31 16:48:20.2	358.020	0.110	0.580	0.840
2020/01/31 16:48:20.3	357.970	0.160	0.530	0.910
2020/01/31 16:48:20.4	357.930	0.210	0.480	0.960
2020/01/31 16:48:20.5	357.900	0.260	0.420	1.010
2020/01/31 16:48:20.6	357.870	0.310	0.360	1.050
2020/01/31 16:48:20.7	357.840	0.360	0.290	1.080
2020/01/31 16:48:20.8	357.820	0.400	0.220	1.100
2020/01/31 16:48:20.9	357.800	0.450	0.140	1.120
2020/01/31 16:48:21.0	357.790	0.500	0.060	1.120
2020/01/31 16:48:21.1	357.780	0.540	-0.030	1.120
2020/01/31 16:48:21.2	357.770	0.580	-0.120	1.120
2020/01/31 16:48:21.3	357.770	0.620	-0.200	1.110
2020/01/31 16:48:21.4	357.770	0.660	-0.290	1.090
2020/01/31 16:48:21.5	357.780	0.690	-0.370	1.060
2020/01/31 16:48:21.6	357.790	0.720	-0.460	1.030
2020/01/31 16:48:21.7	357.800	0.750	-0.540	1.000
2020/01/31 16:48:21.8	357.810	0.780	-0.620	0.950
2020/01/31 16:48:21.9	357.830	0.800	-0.690	0.910
2020/01/31 16:48:22.0	357.850	0.820	-0.760	0.860
2020/01/31 16:48:22.1	357.880	0.830	-0.830	0.800
2020/01/31 16:48:22.2	357.900	0.840	-0.880	0.740
2020/01/31 16:48:22.3	357.930	0.850	-0.930	0.680
2020/01/31 16:48:22.4	357.960	0.850	-0.980	0.620
2020/01/31 16:48:22.5	357.990	0.840	-1.010	0.560
2020/01/31 16:48:22.6	358.020	0.840	-1.040	0.490
2020/01/31 16:48:22.7	358.050	0.820	-1.060	0.420
2020/01/31 16:48:22.8	358.090	0.810	-1.070	0.350
2020/01/31 16:48:22.9	358.120	0.790	-1.070	0.280
2020/01/31 16:48:23.0	358.150	0.760	-1.070	0.210
2020/01/31 16:48:23.1	358.180	0.740	-1.060	0.150
2020/01/31 16:48:23.2	358.210	0.710	-1.040	0.080
2020/01/31 16:48:23.3	358.240	0.670	-1.010	0.020
2020/01/31 16:48:23.4	358.270	0.630	-0.980	-0.040
2020/01/31 16:48:23.5	358.290	0.590	-0.940	-0.100
2020/01/31 16:48:23.6	358.320	0.550	-0.890	-0.160
2020/01/31 16:48:23.7	358.340	0.500	-0.840	-0.210
2020/01/31 16:48:23.8	358.360	0.460	-0.790	-0.270
2020/01/31 16:48:23.9	358.380	0.410	-0.730	-0.310
2020/01/31 16:48:24.0	358.390	0.360	-0.660	-0.360
2020/01/31 16:48:24.1	358.400	0.310	-0.600	-0.400
2020/01/31 16:48:24.2	358.410	0.260	-0.530	-0.440
2020/01/31 16:48:24.3	358.410	0.210	-0.460	-0.470
2020/01/31 16:48:24.4	358.410	0.160	-0.390	-0.500
2020/01/31 16:48:24.5	358.410	0.110	-0.320	-0.530
2020/01/31 16:48:24.6	358.410	0.060	-0.250	-0.550
2020/01/31 16:48:24.7	358.400	0.010	-0.190	-0.570
2020/01/31 16:48:24.8	358.400	-0.030	-0.120	-0.580
2020/01/31 16:48:24.9	358.390	-0.070	-0.060	-0.590
2020/01/31 16:48:25.0	358.370	-0.110	-0.010	-0.600
2020/01/31 16:48:25.1	358.350	-0.150	0.040	-0.610
2020/01/31 16:48:25.2	358.330	-0.190	0.090	-0.610
2020/01/31 16:48:25.3	358.310	-0.220	0.130	-0.610
2020/01/31 16:48:25.4	358.290	-0.240	0.160	-0.610
2020/01/31 16:48:25.5	358.260	-0.270	0.190	-0.610
2020/01/31 16:48:25.6	358.240	-0.290	0.210	-0.610
2020/01/31 16:48:25.7	358.220	-0.300	0.220	-0.600
2020/01/31 16:48:25.8	358.190	-0.310	0.230	-0.600
2020/01/31 16:48:25.9	358.170	-0.320	0.230	-0.600
2020/01/31 16:48:26.0	358.150	-0.320	0.220	-0.600
2020/01/31 16:48:26.1	358.130	-0.320	0.200	-0.600
2020/01/31 16:48:26.2	358.110	-0.320	0.180	-0.590
2020/01/31 16:48:26.3	358.090	-0.310	0.150	-0.600
2020/01/31 16:48:26.4	358.080	-0.300	0.120	-0.600
2020/01/31 16:48:26.5	358.060	-0.280	0.080	-0.600
2020/01/31 16:48:26.6	358.050	-0.260	0.030	-0.600
2020/01/31 16:48:26.7	358.040	-0.240	-0.020	-0.600
2020/01/31 16:48:26.8	358.040	-0.210	-0.080	-0.610
2020/01/31 16:48:26.9	358.040	-0.190	-0.140	-0.620
2020/01/31 16:48:27.0	358.040	-0.160	-0.210	-0.620
2020/01/31 16:48:27.1	358.040	-0.130	-0.270	-0.630
2020/01/31 16:48:27.2	358.040	-0.100	-0.340	-0.640
2020/01/31 16:48:27.3	358.050	-0.060	-0.410	-0.650
2020/01/31 16:48:27.4	358.060	-0.030	-0.480	-0.660
2020/01/31 16:48:27.5	358.070	0.000	-0.560	-0.680
2020/01/31 16:48:27.6	358.090	0.030	-0.620	-0.690
2020/01/31 16:48:27.7	358.110	0.060	-0.690	-0.710
2020/01/31 16:48:27.8	358.130	0.090	-0.750	-0.730
2020/01/31 16:48:27.9	358.150	0.120	-0.810	-0.750
2020/01/31 16:48:28.0	358.180	0.150	-0.870	-0.770
2020/01/31 16:48:28.1	358.210	0.170	-0.920	-0.790
2020/01/31 16:48:28.2	358.240	0.190	-0.960	-0.810
2020/01/31 16:48:28.3	358.280	0.210	-1.000	-0.820
2020/01/31 16:48:28.4	358.310	0.220	-1.030	-0.840
2020/01/31 16:48:28.5	358.350	0.230	-1.050	-0.850
2020/01/31 16:48:28.6	358.380	0.240	-1.060	-0.860
2020/01/31 16:48:28.7	358.410	0.240	-1.060	-0.870
2020/01/31 16:48:28.8	358.440	0.240	-1.060	-0.880
2020/01/31 16:48:28.9	358.470	0.230	-1.040	-0.890
2020/01/31 16:48:29.0	358.500	0.220	-1.020	-0.890
2020/01/31 16:48:29.1	358.530	0.210	-0.980	-0.890
2020/01/31 16:48:29.2	358.560	0.190	-0.940	-0.880
2020/01/31 16:48:29.3	358.580	0.160	-0.890	-0.880
2020/01/31 16:48:29.4	358.610	0.140	-0.830	-0.870
2020/01/31 16:48:29.5	358.630	0.110	-0.760	-0.860
2020/01/31 16:48:29.6	358.650	0.070	-0.690	-0.850
2020/01/31 16:48:29.7	358.670	0.030	-0.620	-0.830
2020/01/31 16:48:29.8	358.690	-0.010	-0.540	-0.820
2020/01/31 16:48:29.9	358.700	-0.050	-0.450	-0.800
2020/01/31 16:48:30.0	358.720	-0.090	-0.360	-0.780
2020/01/31 16:48:30.1	358.730	-0.140	-0.270	-0.760
2020/01/31 16:48:30.2	358.740	-0.190	-0.190	-0.740
2020/01/31 16:48:30.3	358.750	-0.240	-0.100	-0.720
2020/01/31 16:48:30.4	358.750	-0.290	-0.010	-0.700
2020/01/31 16:48:30.5	358.760	-0.340	0.080	-0.670
2020/01/31 16:48:30.6	358.760	-0.390	0.160	-0.650
2020/01/31 16:48:30.7	358.760	-0.440	0.240	-0.620
2020/01/31 16:48:30.8	358.760	-0.480	0.320	-0.600
2020/01/31 16:48:30.9	358.760	-0.530	0.390	-0.570
2020/01/31 16:48:31.0	358.750	-0.570	0.460	-0.540
2020/01/31 16:48:31.1	358.740	-0.610	0.520	-0.520
2020/01/31 16:48:31.2	358.730	-0.650	0.570	-0.490
2020/01/31 16:48:31.3	358.720	-0.680	0.620	-0.460
2020/01/31 16:48:31.4	358.700	-0.710	0.670	-0.430
2020/01/31 16:48:31.5	358.690	-0.730	0.710	-0.400
2020/01/31 16:48:31.6	358.660	-0.750	0.740	-0.370
2020/01/31 16:48:31.7	358.640	-0.770	0.770	-0.340
2020/01/31 16:48:31.8	358.610	-0.780	0.790	-0.310
2020/01/31 16:48:31.9	358.580	-0.790	0.810	-0.270
2020/01/31 16:48:32.0	358.550	-0.790	0.820	-0.230
2020/01/31 16:48:32.1	358.520	-0.790	0.830	-0.200
2020/01/31 16:48:32.2	358.480	-0.780	0.830	-0.160
2020/01/31 16:48:32.3	358.450	-0.770	0.830	-0.120
2020/01/31 16:48:32.4	358.410	-0.750	0.820	-0.070
2020/01/31 16:48:32.5	358.360	-0.730	0.810	-0.030
2020/01/31 16:48:32.6	358.320	-0.700	0.790	0.010
2020/01/31 16:48:32.7	358.280	-0.670	0.770	0.060
2020/01/31 16:48:32.8	358.230	-0.630	0.750	0.100
2020/01/31 16:48:32.9	358.190	-0.590	0.710	0.150
2020/01/31 16:48:33.0	358.140	-0.540	0.680	0.190
2020/01/31 16:48:33.1	358.100	-0.490	0.630	0.230
2020/01/31 16:48:33.2	358.060	-0.440	0.590	0.280
2020/01/31 16:48:33.3	358.020	-0.380	0.530	0.320
2020/01/31 16:48:33.4	357.980	-0.320	0.470	0.360
2020/01/31 16:48:33.5	357.950	-0.250	0.410	0.390
2020/01/31 16:48:33.6	357.920	-0.180	0.340	0.420
2020/01/31 16:48:33.7	357.890	-0.110	0.270	0.450
2020/01/31 16:48:33.8	357.860	-0.040	0.200	0.480
2020/01/31 16:48:33.9	357.840	0.030	0.120	0.500
2020/01/31 16:48:34.0	357.820	0.110	0.030	0.520
2020/01/31 16:48:34.1	357.810	0.190	-0.050	0.530
2020/01/31 16:48:34.2	357.800	0.260	-0.140	0.540
2020/01/31 16:48:34.3	357.800	0.340	-0.240	0.540
2020/01/31 16:48:34.4	357.800	0.420	-0.330	0.540
2020/01/31 16:48:34.5	357.810	0.500	-0.430	0.530
2020/01/31 16:48:34.6	357.820	0.570	-0.520	0.530
2020/01/31 16:48:34.7	357.830	0.640	-0.610	0.520
2020/01/31 16:48:34.8	357.860	0.710	-0.710	0.500
2020/01/31 16:48:34.9	357.880	0.780	-0.800	0.480
2020/01/31 16:48:35.0	357.900	0.840	-0.890	0.460
2020/01/31 16:48:35.1	357.920	0.900	-0.970	0.440
2020/01/31 16:48:35.2	357.940	0.960	-1.050	0.420
2020/01/31 16:48:35.3	357.970	1.000	-1.120	0.390
2020/01/31 16:48:35.4	357.990	1.050	-1.190	0.360
2020/01/31 16:48:35.5	358.010	1.080	-1.250	0.330
2020/01/31 16:48:35.6	358.040	1.110	-1.300	0.300
2020/01/31 16:48:35.7	358.060	1.130	-1.340	0.260
2020/01/31 16:48:35.8	358.090	1.150	-1.380	0.220
2020/01/31 16:48:35.9	358.110	1.160	-1.410	0.180
2020/01/31 16:48:36.0	358.130	1.160	-1.430	0.140
2020/01/31 16:48:36.1	358.150	1.150	-1.430	0.090
2020/01/31 16:48:36.2	358.160	1.130	-1.430	0.040
2020/01/31 16:48:36.3	358.180	1.110	-1.420	-0.010
2020/01/31 16:48:36.4	358.190	1.070	-1.410	-0.060
2020/01/31 16:48:36.5	358.200	1.030	-1.380	-0.110
2020/01/31 16:48:36.6	358.210	0.990	-1.340	-0.160
2020/01/31 16:48:36.7	358.220	0.930	-1.300	-0.210
2020/01/31 16:48:36.8	358.240	0.870	-1.250	-0.270
2020/01/31 16:48:36.9	358.240	0.810	-1.190	-0.320
2020/01/31 16:48:37.0	358.250	0.740	-1.130	-0.370
2020/01/31 16:48:37.1	358.250	0.660	-1.060	-0.420
2020/01/31 16:48:37.2	358.250	0.590	-0.980	-0.470
2020/01/31 16:48:37.3	358.260	0.500	-0.910	-0.520
2020/01/31 16:48:37.4	358.260	0.420	-0.830	-0.570
2020/01/31 16:48:37.5	358.260	0.330	-0.740	-0.620
2020/01/31 16:48:37.6	358.260	0.240	-0.660	-0.660
2020/01/31 16:48:37.7	358.270	0.160	-0.570	-0.710
2020/01/31 16:48:37.8	358.270	0.070	-0.490	-0.760
2020/01/31 16:48:37.9	358.280	-0.020	-0.400	-0.800
2020/01/31 16:48:38.0	358.280	-0.100	-0.320	-0.840
2020/01/31 16:48:38.1	358.290	-0.180	-0.240	-0.890
2020/01/31 16:48:38.2	358.290	-0.260	-0.170	-0.930
2020/01/31 16:48:38.3	358.300	-0.340	-0.090	-0.970
2020/01/31 16:48:38.4	358.310	-0.410	-0.030	-1.020
2020/01/31 16:48:38.5	358.320	-0.470	0.040	-1.050
2020/01/31 16:48:38.6	358.330	-0.540	0.090	-1.090
2020/01/31 16:48:38.7	358.340	-0.590	0.150	-1.130
2020/01/31 16:48:38.8	358.350	-0.640	0.190	-1.170
2020/01/31 16:48:38.9	358.360	-0.680	0.240	-1.200
2020/01/31 16:48:39.0	358.370	-0.720	0.270	-1.230
2020/01/31 16:48:39.1	358.380	-0.750	0.300	-1.250
2020/01/31 16:48:39.2	358.390	-0.770	0.330	-1.280
2020/01/31 16:48:39.3	358.390	-0.790	0.350	-1.300
2020/01/31 16:48:39.4	358.400	-0.800	0.360	-1.310
2020/01/31 16:48:39.5	358.410	-0.800	0.380	-1.330
2020/01/31 16:48:39.6	358.410	-0.800	0.380	-1.330
2020/01/31 16:48:39.7	358.410	-0.790	0.390	-1.330
2020/01/31 16:48:39.8	358.420	-0.780	0.390	-1.340
2020/01/31 16:48:39.9	358.420	-0.750	0.380	-1.330
2020/01/31 16:48:40.0	358.420	-0.730	0.380	-1.310
2020/01/31 16:48:40.1	358.410	-0.690	0.370	-1.300
2020/01/31 16:48:40.2	358.410	-0.660	0.360	-1.270
2020/01/31 16:48:40.3	358.410	-0.610	0.340	-1.240
2020/01/31 16:48:40.4	358.400	-0.570	0.330	-1.210
2020/01/31 16:48:40.5	358.390	-0.520	0.310	-1.160
2020/01/31 16:48:40.6	358.390	-0.470	0.290	-1.120
2020/01/31 16:48:40.7	358.380	-0.420	0.270	-1.070
2020/01/31 16:48:40.8	358.360	-0.360	0.250	-1.010
2020/01/31 16:48:40.9	358.350	-0.310	0.220	-0.960
2020/01/31 16:48:41.0	358.340	-0.250	0.200	-0.900
2020/01/31 16:48:41.1	358.330	-0.190	0.180	-0.830
2020/01/31 16:48:41.2	358.310	-0.140	0.150	-0.770
2020/01/31 16:48:41.3	358.300	-0.080	0.130	-0.700
2020/01/31 16:48:41.4	358.290	-0.030	0.110	-0.640
2020/01/31 16:48:41.5	358.270	0.030	0.080	-0.570
2020/01/31 16:48:41.6	358.260	0.070	0.060	-0.500
2020/01/31 16:48:41.7	358.250	0.120	0.030	-0.430
2020/01/31 16:48:41.8	358.230	0.170	0.010	-0.370
2020/01/31 16:48:41.9	358.220	0.210	-0.010	-0.300
2020/01/31 16:48:42.0	358.210	0.240	-0.030	-0.240
2020/01/31 16:48:42.1	358.200	0.280	-0.050	-0.180
2020/01/31 16:48:42.2	358.190	0.310	-0.080	-0.120
2020/01/31 16:48:42.3	358.180	0.330	-0.100	-0.060
2020/01/31 16:48:42.4	358.170	0.350	-0.120	0.000
2020/01/31 16:48:42.5	358.160	0.370	-0.140	0.060
2020/01/31 16:48:42.6	358.160	0.390	-0.150	0.110
2020/01/31 16:48:42.7	358.150	0.400	-0.170	0.160
2020/01/31 16:48:42.8	358.140	0.400	-0.190	0.210
2020/01/31 16:48:42.9	358.130	0.400	-0.210	0.250
2020/01/31 16:48:43.0	358.130	0.400	-0.220	0.290
2020/01/31 16:48:43.1	358.120	0.400	-0.240	0.320
2020/01/31 16:48:43.2	358.120	0.390	-0.250	0.360
2020/01/31 16:48:43.3	358.110	0.370	-0.270	0.380
2020/01/31 16:48:43.4	358.110	0.350	-0.280	0.400
2020/01/31 16:48:43.5	358.110	0.330	-0.290	0.420
2020/01/31 16:48:43.6	358.110	0.310	-0.310	0.430
2020/01/31 16:48:43.7	358.110	0.290	-0.320	0.430
2020/01/31 16:48:43.8	358.120	0.260	-0.340	0.430
2020/01/31 16:48:43.9	358.120	0.230	-0.360	0.420
2020/01/31 16:48:44.0	358.130	0.190	-0.370	0.400
2020/01/31 16:48:44.1	358.140	0.160	-0.390	0.380
2020/01/31 16:48:44.2	358.140	0.130	-0.410	0.350
2020/01/31 16:48:44.3	358.150	0.090	-0.430	0.320
2020/01/31 16:48:44.4	358.160	0.060	-0.460	0.290
2020/01/31 16:48:44.5	358.170	0.020	-0.480	0.250
2020/01/31 16:48:44.6	358.180	-0.020	-0.500	0.210
2020/01/31 16:48:44.7	358.200	-0.050	-0.530	0.160
2020/01/31 16:48:44.8	358.210	-0.090	-0.550	0.110
2020/01/31 16:48:44.9	358.230	-0.120	-0.570	0.060
2020/01/31 16:48:45.0	358.240	-0.160	-0.600	0.000
2020/01/31 16:48:45.1	358.250	-0.190	-0.620	-0.060
2020/01/31 16:48:45.2	358.270	-0.220	-0.640	-0.120
2020/01/31 16:48:45.3	358.280	-0.250	-0.660	-0.180
2020/01/31 16:48:45.4	358.290	-0.280	-0.680	-0.240
2020/01/31 16:48:45.5	358.310	-0.300	-0.700	-0.310
2020/01/31 16:48:45.6	358.320	-0.330	-0.710	-0.380
2020/01/31 16:48:45.7	358.340	-0.350	-0.720	-0.440
2020/01/31 16:48:45.8	358.340	-0.370	-0.730	-0.520
2020/01/31 16:48:45.9	358.360	-0.390	-0.740	-0.580
2020/01/31 16:48:46.0	358.370	-0.410	-0.740	-0.650
2020/01/31 16:48:46.1	358.390	-0.420	-0.740	-0.710
2020/01/31 16:48:46.2	358.400	-0.430	-0.740	-0.780
2020/01/31 16:48:46.3	358.410	-0.440	-0.730	-0.840
2020/01/31 16:48:46.4	358.430	-0.440	-0.720	-0.890
2020/01/31 16:48:46.5	358.440	-0.450	-0.700	-0.950
2020/01/31 16:48:46.6	358.450	-0.450	-0.680	-0.990
2020/01/31 16:48:46.7	358.460	-0.450	-0.660	-1.040
2020/01/31 16:48:46.8	358.480	-0.440	-0.640	-1.080
2020/01/31 16:48:46.9	358.490	-0.430	-0.610	-1.110
2020/01/31 16:48:47.0	358.490	-0.420	-0.570	-1.140
2020/01/31 16:48:47.1	358.500	-0.410	-0.530	-1.150
2020/01/31 16:48:47.2	358.500	-0.400	-0.490	-1.160
2020/01/31 16:48:47.3	358.500	-0.380	-0.450	-1.170
2020/01/31 16:48:47.4	358.490	-0.360	-0.400	-1.160
2020/01/31 16:48:47.5	358.480	-0.340	-0.350	-1.150
2020/01/31 16:48:47.6	358.480	-0.320	-0.290	-1.130
2020/01/31 16:48:47.7	358.470	-0.300	-0.240	-1.110
2020/01/31 16:48:47.8	358.450	-0.280	-0.180	-1.080
2020/01/31 16:48:47.9	358.430	-0.250	-0.120	-1.050
2020/01/31 16:48:48.0	358.420	-0.220	-0.060	-1.010
2020/01/31 16:48:48.1	358.400	-0.200	-0.010	-0.970
2020/01/31 16:48:48.2	358.380	-0.170	0.050	-0.920
2020/01/31 16:48:48.3	358.370	-0.140	0.100	-0.880
2020/01/31 16:48:48.4	358.350	-0.110	0.150	-0.830
2020/01/31 16:48:48.5	358.340	-0.070	0.200	-0.770
2020/01/31 16:48:48.6	358.320	-0.040	0.240	-0.720
2020/01/31 16:48:48.7	358.310	-0.010	0.280	-0.660
2020/01/31 16:48:48.8	358.300	0.020	0.310	-0.610
2020/01/31 16:48:48.9	358.290	0.060	0.340	-0.550
2020/01/31 16:48:49.0	358.280	0.090	0.360	-0.500
2020/01/31 16:48:49.1	358.270	0.120	0.380	-0.440
2020/01/31 16:48:49.2	358.260	0.160	0.390	-0.380
2020/01/31 16:48:49.3	358.260	0.190	0.400	-0.330
2020/01/31 16:48:49.4	358.250	0.230	0.400	-0.270
2020/01/31 16:48:49.5	358.250	0.260	0.390	-0.220
2020/01/31 16:48:49.6	358.240	0.290	0.380	-0.160
2020/01/31 16:48:49.7	358.240	0.320	0.360	-0.110
2020/01/31 16:48:49.8	358.220	0.360	0.350	-0.050
2020/01/31 16:48:49.9	358.220	0.390	0.320	-0.000
2020/01/31 16:48:50.0	358.210	0.410	0.290	0.050
2020/01/31 16:48:50.1	358.200	0.440	0.260	0.110
2020/01/31 16:48:50.2	358.200	0.470	0.220	0.160
2020/01/31 16:48:50.3	358.190	0.490	0.180	0.210
2020/01/31 16:48:50.4	358.180	0.510	0.140	0.260
2020/01/31 16:48:50.5	358.170	0.530	0.100	0.310
2020/01/31 16:48:50.6	358.150	0.550	0.050	0.350
2020/01/31 16:48:50.7	358.140	0.560	0.000	0.400
2020/01/31 16:48:50.8	358.130	0.570	-0.050	0.450
2020/01/31 16:48:50.9	358.110	0.580	-0.090	0.490
2020/01/31 16:48:51.0	358.100	0.590	-0.140	0.530
2020/01/31 16:48:51.1	358.080	0.590	-0.180	0.560
2020/01/31 16:48:51.2	358.070	0.590	-0.230	0.590
2020/01/31 16:48:51.3	358.060	0.590	-0.270	0.620
2020/01/31 16:48:51.4	358.040	0.590	-0.320	0.650
2020/01/31 16:48:51.5	358.030	0.580	-0.360	0.670
2020/01/31 16:48:51.6	358.030	0.570	-0.400	0.680
2020/01/31 16:48:51.7	358.020	0.560	-0.440	0.690
2020/01/31 16:48:51.8	358.030	0.540	-0.470	0.690
2020/01/31 16:48:51.9	358.030	0.530	-0.510	0.690
2020/01/31 16:48:52.0	358.030	0.510	-0.540	0.690
2020/01/31 16:48:52.1	358.040	0.490	-0.580	0.670
2020/01/31 16:48:52.2	358.050	0.470	-0.610	0.660
2020/01/31 16:48:52.3	358.060	0.440	-0.640	0.630
2020/01/31 16:48:52.4	358.080	0.420	-0.660	0.600
2020/01/31 16:48:52.5	358.100	0.390	-0.690	0.570
2020/01/31 16:48:52.6	358.110	0.360	-0.710	0.540
2020/01/31 16:48:52.7	358.130	0.330	-0.730	0.500
2020/01/31 16:48:52.8	358.170	0.300	-0.740	0.460
2020/01/31 16:48:52.9	358.190	0.270	-0.760	0.420
2020/01/31 16:48:53.0	358.210	0.240	-0.760	0.380
2020/01/31 16:48:53.1	358.220	0.210	-0.770	0.340
2020/01/31 16:48:53.2	358.240	0.170	-0.760	0.290
2020/01/31 16:48:53.3	358.250	0.130	-0.760	0.250
2020/01/31 16:48:53.4	358.260	0.100	-0.750	0.210
2020/01/31 16:48:53.5	358.260	0.060	-0.730	0.160
2020/01/31 16:48:53.6	358.270	0.020	-0.720	0.120
2020/01/31 16:48:53.7	358.270	-0.010	-0.700	0.080
2020/01/31 16:48:53.8	358.270	-0.050	-0.670	0.030
2020/01/31 16:48:53.9	358.260	-0.090	-0.640	-0.010
2020/01/31 16:48:54.0	358.260	-0.130	-0.610	-0.050
2020/01/31 16:48:54.1	358.250	-0.170	-0.580	-0.100
2020/01/31 16:48:54.2	358.240	-0.200	-0.550	-0.140
2020/01/31 16:48:54.3	358.220	-0.240	-0.520	-0.190
2020/01/31 16:48:54.4	358.210	-0.280	-0.480	-0.230
2020/01/31 16:48:54.5	358.200	-0.310	-0.450	-0.280
2020/01/31 16:48:54.6	358.180	-0.350	-0.410	-0.330
2020/01/31 16:48:54.7	358.170	-0.380	-0.380	-0.370
2020/01/31 16:48:54.8	358.160	-0.410	-0.350	-0.420
2020/01/31 16:48:54.9	358.150	-0.440	-0.320	-0.470
2020/01/31 16:48:55.0	358.140	-0.460	-0.290	-0.520
2020/01/31 16:48:55.1	358.120	-0.490	-0.270	-0.560
2020/01/31 16:48:55.2	358.110	-0.510	-0.250	-0.610
2020/01/31 16:48:55.3	358.100	-0.530	-0.230	-0.650
2020/01/31 16:48:55.4	358.090	-0.540	-0.210	-0.700
2020/01/31 16:48:55.5	358.090	-0.550	-0.200	-0.740
2020/01/31 16:48:55.6	358.080	-0.560	-0.180	-0.780
2020/01/31 16:48:55.7	358.080	-0.570	-0.180	-0.810
2020/01/31 16:48:55.8	358.080	-0.570	-0.170	-0.850
2020/01/31 16:48:55.9	358.080	-0.570	-0.170	-0.880
2020/01/31 16:48:56.0	358.080	-0.570	-0.160	-0.900
2020/01/31 16:48:56.1	358.080	-0.560	-0.160	-0.930
2020/01/31 16:48:56.2	358.080	-0.550	-0.170	-0.950
2020/01/31 16:48:56.3	358.080	-0.530	-0.170	-0.970
2020/01/31 16:48:56.4	358.080	-0.510	-0.170	-0.980
2020/01/31 16:48:56.5	358.090	-0.490	-0.180	-0.990
2020/01/31 16:48:56.6	358.090	-0.470	-0.180	-1.000
2020/01/31 16:48:56.7	358.100	-0.450	-0.180	-1.010
2020/01/31 16:48:56.8	358.100	-0.420	-0.190	-1.010
2020/01/31 16:48:56.9	358.110	-0.390	-0.190	-1.010
2020/01/31 16:48:57.0	358.120	-0.360	-0.200	-1.010
2020/01/31 16:48:57.1	358.130	-0.320	-0.200	-1.010
2020/01/31 16:48:57.2	358.140	-0.290	-0.200	-1.000
2020/01/31 16:48:57.3	358.150	-0.250	-0.210	-1.000
2020/01/31 16:48:57.4	358.160	-0.220	-0.210	-0.990
2020/01/31 16:48:57.5	358.170	-0.180	-0.210	-0.970
2020/01/31 16:48:57.6	358.190	-0.140	-0.210	-0.960
2020/01/31 16:48:57.7	358.200	-0.110	-0.210	-0.940
2020/01/31 16:48:57.8	358.220	-0.070	-0.210	-0.920
2020/01/31 16:48:57.9	358.230	-0.040	-0.210	-0.900
2020/01/31 16:48:58.0	358.240	-0.010	-0.210	-0.880
2020/01/31 16:48:58.1	358.250	0.020	-0.200	-0.860
2020/01/31 16:48:58.2	358.260	0.050	-0.200	-0.840
2020/01/31 16:48:58.3	358.270	0.070	-0.190	-0.810
2020/01/31 16:48:58.4	358.270	0.100	-0.180	-0.790
2020/01/31 16:48:58.5	358.280	0.120	-0.170	-0.760
2020/01/31 16:48:58.6	358.280	0.130	-0.160	-0.740
2020/01/31 16:48:58.7	358.280	0.150	-0.150	-0.710
2020/01/31 16:48:58.8	358.290	0.160	-0.130	-0.680
2020/01/31 16:48:58.9	358.290	0.160	-0.120	-0.660
2020/01/31 16:48:59.0	358.290	0.170	-0.110	-0.640
2020/01/31 16:48:59.1	358.290	0.170	-0.090	-0.620
2020/01/31 16:48:59.2	358.290	0.170	-0.080	-0.600
2020/01/31 16:48:59.3	358.280	0.160	-0.060	-0.580
2020/01/31 16:48:59.4	358.280	0.160	-0.050	-0.560
2020/01/31 16:48:59.5	358.280	0.150	-0.030	-0.530
2020/01/31 16:48:59.6	358.270	0.130	-0.020	-0.510
2020/01/31 16:48:59.7	358.270	0.120	-0.010	-0.490
2020/01/31 16:48:59.8	358.260	0.100	0.010	-0.460
2020/01/31 16:48:59.9	358.250	0.090	0.020	-0.440
2020/01/31 16:49:00.0	358.240	0.070	0.030	-0.410
2020/01/31 16:49:00.1	358.230	0.050	0.040	-0.380
2020/01/31 16:49:00.2	358.220	0.030	0.050	-0.340
2020/01/31 16:49:00.3	358.210	0.010	0.070	-0.310
2020/01/31 16:49:00.4	358.190	-0.010	0.080	-0.270
2020/01/31 16:49:00.5	358.170	-0.030	0.090	-0.240
2020/01/31 16:49:00.6	358.150	-0.050	0.100	-0.200
2020/01/31 16:49:00.7	358.130	-0.070	0.100	-0.160
2020/01/31 16:49:00.8	358.120	-0.090	0.110	-0.120
2020/01/31 16:49:00.9	358.100	-0.110	0.120	-0.070
2020/01/31 16:49:01.0	358.070	-0.120	0.130	-0.030
2020/01/31 16:49:01.1	358.050	-0.140	0.130	0.010
2020/01/31 16:49:01.2	358.020	-0.150	0.140	0.050
2020/01/31 16:49:01.3	358.000	-0.160	0.140	0.100
2020/01/31 16:49:01.4	357.970	-0.170	0.140	0.140
2020/01/31 16:49:01.5	357.940	-0.170	0.150	0.180
2020/01/31 16:49:01.6	357.910	-0.180	0.150	0.220
2020/01/31 16:49:01.7	357.880	-0.180	0.140	0.260
2020/01/31 16:49:01.8	357.840	-0.180	0.140	0.300
2020/01/31 16:49:01.9	357.810	-0.180	0.130	0.330
2020/01/31 16:49:02.0	357.780	-0.170	0.130	0.370
2020/01/31 16:49:02.1	357.750	-0.160	0.120	0.410
2020/01/31 16:49:02.2	357.710	-0.150	0.100	0.440
2020/01/31 16:49:02.3	357.680	-0.140	0.090	0.470
2020/01/31 16:49:02.4	357.650	-0.120	0.070	0.500
2020/01/31 16:49:02.5	357.620	-0.110	0.050	0.530
2020/01/31 16:49:02.6	357.590	-0.090	0.020	0.550
2020/01/31 16:49:02.7	357.560	-0.070	-0.010	0.570
2020/01/31 16:49:02.8	357.530	-0.050	-0.050	0.590
2020/01/31 16:49:02.9	357.500	-0.020	-0.090	0.600
2020/01/31 16:49:03.0	357.480	0.000	-0.130	0.610
2020/01/31 16:49:03.1	357.470	0.030	-0.180	0.610
2020/01/31 16:49:03.2	357.450	0.050	-0.230	0.610
2020/01/31 16:49:03.3	357.440	0.080	-0.280	0.600
2020/01/31 16:49:03.4	357.430	0.110	-0.340	0.590
2020/01/31 16:49:03.5	357.430	0.140	-0.400	0.570
2020/01/31 16:49:03.6	357.430	0.160	-0.460	0.550
2020/01/31 16:49:03.7	357.430	0.190	-0.520	0.520
2020/01/31 16:49:03.8	357.430	0.220	-0.580	0.480
2020/01/31 16:49:03.9	357.450	0.250	-0.650	0.450
2020/01/31 16:49:04.0	357.460	0.280	-0.710	0.400
2020/01/31 16:49:04.1	357.480	0.310	-0.770	0.360
2020/01/31 16:49:04.2	357.500	0.330	-0.830	0.310
2020/01/31 16:49:04.3	357.530	0.360	-0.880	0.260
2020/01/31 16:49:04.4	357.550	0.380	-0.940	0.200
2020/01/31 16:49:04.5	357.580	0.410	-0.990	0.150
2020/01/31 16:49:04.6	357.610	0.430	-1.030	0.090
2020/01/31 16:49:04.7	357.650	0.450	-1.070	0.040
2020/01/31 16:49:04.8	357.690	0.470	-1.100	-0.030
2020/01/31 16:49:04.9	357.720	0.480	-1.130	-0.080
2020/01/31 16:49:05.0	357.760	0.500	-1.150	-0.140
2020/01/31 16:49:05.1	357.790	0.510	-1.170	-0.190
2020/01/31 16:49:05.2	357.830	0.520	-1.180	-0.240
2020/01/31 16:49:05.3	357.860	0.520	-1.180	-0.290
2020/01/31 16:49:05.4	357.900	0.530	-1.170	-0.340
2020/01/31 16:49:05.5	357.940	0.530	-1.160	-0.390
2020/01/31 16:49:05.6	357.970	0.530	-1.140	-0.430
2020/01/31 16:49:05.7	358.010	0.520	-1.120	-0.470
2020/01/31 16:49:05.8	358.040	0.520	-1.090	-0.520
2020/01/31 16:49:05.9	358.080	0.510	-1.050	-0.560
2020/01/31 16:49:06.0	358.120	0.500	-1.010	-0.590
2020/01/31 16:49:06.1	358.150	0.480	-0.960	-0.630
2020/01/31 16:49:06.2	358.190	0.460	-0.910	-0.660
2020/01/31 16:49:06.3	358.220	0.440	-0.860	-0.690
2020/01/31 16:49:06.4	358.250	0.420	-0.800	-0.720
2020/01/31 16:49:06.5	358.280	0.390	-0.740	-0.750
2020/01/31 16:49:06.6	358.310	0.370	-0.670	-0.780
2020/01/31 16:49:06.7	358.340	0.330	-0.610	-0.800
2020/01/31 16:49:06.8	358.360	0.300	-0.540	-0.830
2020/01/31 16:49:06.9	358.380	0.260	-0.470	-0.850
2020/01/31 16:49:07.0	358.400	0.230	-0.400	-0.870
2020/01/31 16:49:07.1	358.420	0.190	-0.330	-0.880
2020/01/31 16:49:07.2	358.440	0.150	-0.260	-0.900
2020/01/31 16:49:07.3	358.450	0.100	-0.190	-0.910
2020/01/31 16:49:07.4	358.460	0.060	-0.120	-0.920
2020/01/31 16:49:07.5	358.470	0.010	-0.050	-0.920
2020/01/31 16:49:07.6	358.480	-0.030	0.020	-0.930
2020/01/31 16:49:07.7	358.480	-0.080	0.090	-0.930
2020/01/31 16:49:07.8	358.470	-0.130	0.150	-0.930
2020/01/31 16:49:07.9	358.470	-0.180	0.220	-0.920
2020/01/31 16:49:08.0	358.460	-0.220	0.280	-0.920
2020/01/31 16:49:08.1	358.460	-0.270	0.340	-0.910
2020/01/31 16:49:08.2	358.450	-0.320	0.390	-0.900
2020/01/31 16:49:08.3	358.430	-0.360	0.450	-0.880
2020/01/31 16:49:08.4	358.420	-0.410	0.500	-0.870
2020/01/31 16:49:08.5	358.400	-0.450	0.540	-0.850
2020/01/31 16:49:08.6	358.390	-0.490	0.590	-0.840
2020/01/31 16:49:08.7	358.370	-0.530	0.630	-0.820
2020/01/31 16:49:08.8	358.340	-0.570	0.660	-0.790
2020/01/31 16:49:08.9	358.320	-0.600	0.690	-0.770
2020/01/31 16:49:09.0	358.290	-0.640	0.710	-0.750
2020/01/31 16:49:09.1	358.260	-0.670	0.730	-0.720
2020/01/31 16:49:09.2	358.230	-0.690	0.750	-0.700
2020/01/31 16:49:09.3	358.200	-0.720	0.760	-0.670
2020/01/31 16:49:09.4	358.170	-0.740	0.760	-0.640
2020/01/31 16:49:09.5	358.140	-0.760	0.760	-0.620
2020/01/31 16:49:09.6	358.110	-0.770	0.750	-0.590
2020/01/31 16:49:09.7	358.080	-0.790	0.730	-0.560
2020/01/31 16:49:09.8	358.040	-0.790	0.710	-0.530
2020/01/31 16:49:09.9	358.000	-0.800	0.690	-0.510
2020/01/31 16:49:10.0	357.970	-0.800	0.650	-0.480
2020/01/31 16:49:10.1	357.940	-0.800	0.620	-0.450
2020/01/31 16:49:10.2	357.900	-0.790	0.570	-0.420
2020/01/31 16:49:10.3	357.870	-0.780	0.530	-0.400
2020/01/31 16:49:10.4	357.840	-0.770	0.470	-0.370
2020/01/31 16:49:10.5	357.810	-0.750	0.420	-0.350
2020/01/31 16:49:10.6	357.780	-0.730	0.360	-0.320
2020/01/31 16:49:10.7	357.750	-0.700	0.290	-0.300
2020/01/31 16:49:10.8	357.730	-0.670	0.230	-0.280
2020/01/31 16:49:10.9	357.710	-0.640	0.160	-0.260
2020/01/31 16:49:11.0	357.680	-0.610	0.090	-0.240
2020/01/31 16:49:11.1	357.660	-0.570	0.020	-0.220
2020/01/31 16:49:11.2	357.640	-0.530	-0.060	-0.210
2020/01/31 16:49:11.3	357.620	-0.480	-0.130	-0.190
2020/01/31 16:49:11.4	357.610	-0.440	-0.200	-0.170
2020/01/31 16:49:11.5	357.600	-0.390	-0.280	-0.160
2020/01/31 16:49:11.6	357.590	-0.330	-0.350	-0.140
2020/01/31 16:49:11.7	357.580	-0.280	-0.420	-0.120
2020/01/31 16:49:11.8	357.580	-0.220	-0.490	-0.110
2020/01/31 16:49:11.9	357.580	-0.170	-0.560	-0.090
2020/01/31 16:49:12.0	357.570	-0.110	-0.620	-0.080
2020/01/31 16:49:12.1	357.570	-0.050	-0.690	-0.060
2020/01/31 16:49:12.2	357.570	0.010	-0.750	-0.040
2020/01/31 16:49:12.3	357.580	0.070	-0.800	-0.030
2020/01/31 16:49:12.4	357.580	0.130	-0.860	-0.010
2020/01/31 16:49:12.5	357.580	0.190	-0.900	0.000
2020/01/31 16:49:12.6	357.590	0.240	-0.950	0.020
2020/01/31 16:49:12.7	357.600	0.300	-0.990	0.030
2020/01/31 16:49:12.8	357.610	0.360	-1.030	0.040
2020/01/31 16:49:12.9	357.620	0.410	-1.060	0.040
2020/01/31 16:49:13.0	357.640	0.460	-1.090	0.050
2020/01/31 16:49:13.1	357.650	0.510	-1.110	0.050
2020/01/31 16:49:13.2	357.670	0.560	-1.130	0.060
2020/01/31 16:49:13.3	357.690	0.600	-1.140	0.050
2020/01/31 16:49:13.4	357.710	0.640	-1.150	0.050
2020/01/31 16:49:13.5	357.730	0.680	-1.160	0.050
2020/01/31 16:49:13.6	357.750	0.720	-1.160	0.040
2020/01/31 16:49:13.7	357.780	0.750	-1.150	0.030
2020/01/31 16:49:13.8	357.810	0.780	-1.150	0.030
2020/01/31 16:49:13.9	357.840	0.800	-1.130	0.020
2020/01/31 16:49:14.0	357.860	0.820	-1.110	0.010
2020/01/31 16:49:14.1	357.890	0.840	-1.080	-0.010
2020/01/31 16:49:14.2	357.920	0.850	-1.050	-0.010
2020/01/31 16:49:14.3	357.950	0.860	-1.020	-0.020
2020/01/31 16:49:14.4	357.970	0.860	-0.980	-0.030
2020/01/31 16:49:14.5	358.000	0.860	-0.930	-0.040
2020/01/31 16:49:14.6	358.030	0.860	-0.880	-0.050
2020/01/31 16:49:14.7	358.050	0.850	-0.830	-0.050
2020/01/31 16:49:14.8	358.080	0.830	-0.780	-0.060
2020/01/31 16:49:14.9	358.110	0.820	-0.720	-0.070
2020/01/31 16:49:15.0	358.130	0.790	-0.660	-0.070
2020/01/31 16:49:15.1	358.160	0.770	-0.590	-0.080
2020/01/31 16:49:15.2	358.180	0.740	-0.530	-0.080
2020/01/31 16:49:15.3	358.200	0.700	-0.460	-0.090
2020/01/31 16:49:15.4	358.230	0.670	-0.400	-0.090
2020/01/31 16:49:15.5	358.250	0.630	-0.330	-0.100
2020/01/31 16:49:15.6	358.270	0.580	-0.270	-0.100
2020/01/31 16:49:15.7	358.290	0.540	-0.200	-0.100
2020/01/31 16:49:15.8	358.290	0.490	-0.140	-0.110
2020/01/31 16:49:15.9	358.310	0.430	-0.080	-0.110
2020/01/31 16:49:16.0	358.330	0.380	-0.020	-0.120
2020/01/31 16:49:16.1	358.350	0.320	0.030	-0.130
2020/01/31 16:49:16.2	358.360	0.270	0.080	-0.140
2020/01/31 16:49:16.3	358.380	0.210	0.140	-0.140
2020/01/31 16:49:16.4	358.390	0.150	0.180	-0.150
2020/01/31 16:49:16.5	358.410	0.090	0.230	-0.170
2020/01/31 16:49:16.6	358.420	0.020	0.270	-0.180
2020/01/31 16:49:16.7	358.430	-0.040	0.310	-0.190
2020/01/31 16:49:16.8	358.430	-0.100	0.350	-0.210
2020/01/31 16:49:16.9	358.440	-0.160	0.380	-0.230
2020/01/31 16:49:17.0	358.440	-0.230	0.410	-0.250
2020/01/31 16:49:17.1	358.440	-0.290	0.430	-0.270
2020/01/31 16:49:17.2	358.440	-0.350	0.450	-0.300
2020/01/31 16:49:17.3	358.440	-0.400	0.470	-0.320
2020/01/31 16:49:17.4	358.430	-0.460	0.490	-0.340
2020/01/31 16:49:17.5	358.420	-0.510	0.500	-0.360
2020/01/31 16:49:17.6	358.410	-0.570	0.510	-0.390
2020/01/31 16:49:17.7	358.400	-0.610	0.520	-0.410
2020/01/31 16:49:17.8	358.380	-0.660	0.520	-0.430
2020/01/31 16:49:17.9	358.360	-0.700	0.520	-0.460
2020/01/31 16:49:18.0	358.340	-0.740	0.520	-0.480
2020/01/31 16:49:18.1	358.320	-0.780	0.520	-0.490
2020/01/31 16:49:18.2	358.300	-0.810	0.510	-0.510
2020/01/31 16:49:18.3	358.280	-0.840	0.500	-0.530
2020/01/31 16:49:18.4	358.260	-0.870	0.490	-0.550
2020/01/31 16:49:18.5	358.240	-0.890	0.470	-0.560
2020/01/31 16:49:18.6	358.220	-0.900	0.460	-0.580
2020/01/31 16:49:18.7	358.190	-0.910	0.440	-0.590
2020/01/31 16:49:18.8	358.180	-0.920	0.410	-0.600
2020/01/31 16:49:18.9	358.160	-0.920	0.390	-0.610
2020/01/31 16:49:19.0	358.140	-0.920	0.360	-0.620
2020/01/31 16:49:19.1	358.110	-0.920	0.340	-0.620
2020/01/31 16:49:19.2	358.090	-0.910	0.310	-0.630
2020/01/31 16:49:19.3	358.070	-0.890	0.280	-0.630
2020/01/31 16:49:19.4	358.050	-0.880	0.240	-0.630
2020/01/31 16:49:19.5	358.020	-0.850	0.210	-0.630
2020/01/31 16:49:19.6	358.000	-0.830	0.170	-0.630
2020/01/31 16:49:19.7	357.970	-0.800	0.140	-0.630
2020/01/31 16:49:19.8	357.940	-0.760	0.100	-0.620
2020/01/31 16:49:19.9	357.910	-0.730	0.070	-0.610
2020/01/31 16:49:20.0	357.890	-0.690	0.030	-0.600
2020/01/31 16:49:20.1	357.860	-0.640	-0.010	-0.590
2020/01/31 16:49:20.2	357.840	-0.600	-0.050	-0.570
2020/01/31 16:49:20.3	357.810	-0.550	-0.090	-0.550
2020/01/31 16:49:20.4	357.790	-0.500	-0.130	-0.530
2020/01/31 16:49:20.5	357.760	-0.450	-0.170	-0.510
2020/01/31 16:49:20.6	357.740	-0.400	-0.210	-0.480
2020/01/31 16:49:20.7	357.710	-0.340	-0.250	-0.460
2020/01/31 16:49:20.8	357.690	-0.290	-0.290	-0.430
2020/01/31 16:49:20.9	357.670	-0.230	-0.340	-0.400
2020/01/31 16:49:21.0	357.650	-0.170	-0.380	-0.360
2020/01/31 16:49:21.1	357.630	-0.120	-0.420	-0.330
2020/01/31 16:49:21.2	357.610	-0.060	-0.470	-0.300
2020/01/31 16:49:21.3	357.600	-0.000	-0.510	-0.270
2020/01/31 16:49:21.4	357.580	0.060	-0.560	-0.240
2020/01/31 16:49:21.5	357.580	0.110	-0.600	-0.210
2020/01/31 16:49:21.6	357.570	0.170	-0.650	-0.180
2020/01/31 16:49:21.7	357.570	0.230	-0.700	-0.160
2020/01/31 16:49:21.8	357.570	0.280	-0.750	-0.130
2020/01/31 16:49:21.9	357.580	0.340	-0.800	-0.110
2020/01/31 16:49:22.0	357.590	0.390	-0.850	-0.100
2020/01/31 16:49:22.1	357.600	0.440	-0.900	-0.080
2020/01/31 16:49:22.2	357.620	0.490	-0.950	-0.070
2020/01/31 16:49:22.3	357.640	0.540	-0.990	-0.060
2020/01/31 16:49:22.4	357.660	0.590	-1.040	-0.050
2020/01/31 16:49:22.5	357.690	0.630	-1.090	-0.050
2020/01/31 16:49:22.6	357.720	0.670	-1.130	-0.050
2020/01/31 16:49:22.7	357.750	0.710	-1.170	-0.050
2020/01/31 16:49:22.8	357.800	0.740	-1.200	-0.050
2020/01/31 16:49:22.9	357.840	0.780	-1.230	-0.060
2020/01/31 16:49:23.0	357.880	0.810	-1.260	-0.070
2020/01/31 16:49:23.1	357.920	0.830	-1.280	-0.080
2020/01/31 16:49:23.2	357.960	0.850	-1.290	-0.090
2020/01/31 16:49:23.3	358.000	0.870	-1.300	-0.100
2020/01/31 16:49:23.4	358.040	0.890	-1.300	-0.110
2020/01/31 16:49:23.5	358.080	0.900	-1.290	-0.130
2020/01/31 16:49:23.6	358.120	0.900	-1.270	-0.140
2020/01/31 16:49:23.7	358.150	0.900	-1.240	-0.150
2020/01/31 16:49:23.8	358.190	0.900	-1.210	-0.150
2020/01/31 16:49:23.9	358.220	0.890	-1.160	-0.160
2020/01/31 16:49:24.0	358.250	0.880	-1.110	-0.160
2020/01/31 16:49:24.1	358.280	0.860	-1.060	-0.160
2020/01/31 16:49:24.2	358.310	0.840	-0.990	-0.160
2020/01/31 16:49:24.3	358.330	0.810	-0.920	-0.160
2020/01/31 16:49:24.4	358.350	0.780	-0.840	-0.150
2020/01/31 16:49:24.5	358.370	0.740	-0.760	-0.140
2020/01/31 16:49:24.6	358.380	0.700	-0.670	-0.130
2020/01/31 16:49:24.7	358.390	0.660	-0.580	-0.120
2020/01/31 16:49:24.8	358.410	0.610	-0.490	-0.110
2020/01/31 16:49:24.9	358.410	0.560	-0.390	-0.090
2020/01/31 16:49:25.0	358.410	0.510	-0.290	-0.080
2020/01/31 16:49:25.1	358.410	0.450	-0.200	-0.070
2020/01/31 16:49:25.2	358.410	0.390	-0.100	-0.060
2020/01/31 16:49:25.3	358.400	0.330	-0.010	-0.050
2020/01/31 16:49:25.4	358.390	0.270	0.090	-0.040
2020/01/31 16:49:25.5	358.380	0.200	0.180	-0.030
2020/01/31 16:49:25.6	358.370	0.140	0.260	-0.030
2020/01/31 16:49:25.7	358.350	0.070	0.350	-0.020
2020/01/31 16:49:25.8	358.320	0.010	0.430	-0.020
2020/01/31 16:49:25.9	358.300	-0.060	0.500	-0.020
2020/01/31 16:49:26.0	358.280	-0.120	0.570	-0.020
2020/01/31 16:49:26.1	358.260	-0.180	0.630	-0.030
2020/01/31 16:49:26.2	358.230	-0.240	0.680	-0.030
2020/01/31 16:49:26.3	358.210	-0.300	0.730	-0.040
2020/01/31 16:49:26.4	358.180	-0.350	0.770	-0.050
2020/01/31 16:49:26.5	358.160	-0.400	0.810	-0.060
2020/01/31 16:49:26.6	358.130	-0.450	0.840	-0.070
2020/01/31 16:49:26.7	358.100	-0.490	0.860	-0.080
2020/01/31 16:49:26.8	358.060	-0.530	0.870	-0.090
2020/01/31 16:49:26.9	358.030	-0.560	0.870	-0.110
2020/01/31 16:49:27.0	358.000	-0.590	0.870	-0.120
2020/01/31 16:49:27.1	357.960	-0.620	0.860	-0.130
2020/01/31 16:49:27.2	357.930	-0.640	0.850	-0.140
2020/01/31 16:49:27.3	357.890	-0.660	0.830	-0.150
2020/01/31 16:49:27.4	357.860	-0.670	0.800	-0.160
2020/01/31 16:49:27.5	357.820	-0.670	0.760	-0.170
2020/01/31 16:49:27.6	357.780	-0.670	0.720	-0.180
2020/01/31 16:49:27.7	357.750	-0.660	0.680	-0.190
2020/01/31 16:49:27.8	357.710	-0.650	0.630	-0.200
2020/01/31 16:49:27.9	357.680	-0.640	0.570	-0.200
2020/01/31 16:49:28.0	357.650	-0.620	0.510	-0.210
2020/01/31 16:49:28.1	357.620	-0.590	0.440	-0.220
2020/01/31 16:49:28.2	357.600	-0.570	0.370	-0.230
2020/01/31 16:49:28.3	357.570	-0.530	0.300	-0.230
2020/01/31 16:49:28.4	357.550	-0.500	0.220	-0.240
2020/01/31 16:49:28.5	357.530	-0.460	0.140	-0.250
2020/01/31 16:49:28.6	357.520	-0.420	0.060	-0.270
2020/01/31 16:49:28.7	357.500	-0.380	-0.030	-0.280
2020/01/31 16:49:28.8	357.490	-0.330	-0.120	-0.300
2020/01/31 16:49:28.9	357.480	-0.280	-0.210	-0.310
2020/01/31 16:49:29.0	357.480	-0.240	-0.290	-0.330
2020/01/31 16:49:29.1	357.480	-0.190	-0.380	-0.350
2020/01/31 16:49:29.2	357.490	-0.140	-0.470	-0.380
2020/01/31 16:49:29.3	357.490	-0.100	-0.550	-0.400
2020/01/31 16:49:29.4	357.500	-0.050	-0.630	-0.430
2020/01/31 16:49:29.5	357.510	-0.010	-0.710	-0.450
2020/01/31 16:49:29.6	357.530	0.030	-0.780	-0.480
2020/01/31 16:49:29.7	357.540	0.070	-0.850	-0.500
2020/01/31 16:49:29.8	357.560	0.100	-0.910	-0.530
2020/01/31 16:49:29.9	357.580	0.130	-0.960	-0.550
2020/01/31 16:49:30.0	357.590	0.160	-1.000	-0.570
2020/01/31 16:49:30.1	357.610	0.180	-1.040	-0.590
2020/01/31 16:49:30.2	357.630	0.200	-1.070	-0.610
2020/01/31 16:49:30.3	357.650	0.220	-1.080	-0.620
2020/01/31 16:49:30.4	357.660	0.230	-1.090	-0.640
2020/01/31 16:49:30.5	357.680	0.230	-1.090	-0.640
2020/01/31 16:49:30.6	357.700	0.230	-1.080	-0.650
2020/01/31 16:49:30.7	357.710	0.230	-1.060	-0.650
2020/01/31 16:49:30.8	357.730	0.220	-1.030	-0.650
2020/01/31 16:49:30.9	357.750	0.210	-1.000	-0.640
2020/01/31 16:49:31.0	357.760	0.190	-0.950	-0.630
2020/01/31 16:49:31.1	357.780	0.170	-0.900	-0.620
2020/01/31 16:49:31.2	357.800	0.150	-0.850	-0.610
2020/01/31 16:49:31.3	357.810	0.130	-0.790	-0.590
2020/01/31 16:49:31.4	357.830	0.100	-0.720	-0.570
2020/01/31 16:49:31.5	357.840	0.070	-0.650	-0.550
2020/01/31 16:49:31.6	357.860	0.030	-0.590	-0.540
2020/01/31 16:49:31.7	357.880	-0.000	-0.520	-0.520
2020/01/31 16:49:31.8	357.910	-0.040	-0.440	-0.490
2020/01/31 16:49:31.9	357.930	-0.070	-0.380	-0.470
2020/01/31 16:49:32.0	357.950	-0.110	-0.310	-0.450
2020/01/31 16:49:32.1	357.970	-0.140	-0.250	-0.430
2020/01/31 16:49:32.2	357.990	-0.180	-0.190	-0.420
2020/01/31 16:49:32.3	358.020	-0.210	-0.130	-0.400
2020/01/31 16:49:32.4	358.040	-0.240	-0.090	-0.390
2020/01/31 16:49:32.5	358.060	-0.270	-0.040	-0.370
2020/01/31 16:49:32.6	358.080	-0.290	-0.000	-0.360
2020/01/31 16:49:32.7	358.110	-0.310	0.030	-0.350
2020/01/31 16:49:32.8	358.130	-0.330	0.050	-0.350
2020/01/31 16:49:32.9	358.150	-0.340	0.060	-0.340
2020/01/31 16:49:33.0	358.180	-0.340	0.080	-0.340
2020/01/31 16:49:33.1	358.210	-0.350	0.080	-0.340
2020/01/31 16:49:33.2	358.230	-0.340	0.080	-0.340
2020/01/31 16:49:33.3	358.260	-0.340	0.070	-0.340
2020/01/31 16:49:33.4	358.290	-0.330	0.060	-0.340
2020/01/31 16:49:33.5	358.310	-0.310	0.040	-0.340
2020/01/31 16:49:33.6	358.330	-0.290	0.020	-0.340
2020/01/31 16:49:33.7	358.360	-0.270	-0.010	-0.350
2020/01/31 16:49:33.8	358.370	-0.240	-0.030	-0.350
2020/01/31 16:49:33.9	358.380	-0.210	-0.060	-0.340
2020/01/31 16:49:34.0	358.400	-0.170	-0.090	-0.340
2020/01/31 16:49:34.1	358.410	-0.130	-0.120	-0.330
2020/01/31 16:49:34.2	358.410	-0.090	-0.150	-0.330
2020/01/31 16:49:34.3	358.410	-0.050	-0.180	-0.320
2020/01/31 16:49:34.4	358.410	-0.010	-0.200	-0.300
2020/01/31 16:49:34.5	358.410	0.030	-0.230	-0.290
2020/01/31 16:49:34.6	358.400	0.080	-0.250	-0.270
2020/01/31 16:49:34.7	358.380	0.120	-0.270	-0.250
2020/01/31 16:49:34.8	358.360	0.160	-0.280	-0.230
2020/01/31 16:49:34.9	358.340	0.200	-0.300	-0.210
2020/01/31 16:49:35.0	358.310	0.240	-0.300	-0.180
2020/01/31 16:49:35.1	358.280	0.280	-0.310	-0.160
2020/01/31 16:49:35.2	358.250	0.310	-0.310	-0.130
2020/01/31 16:49:35.3	358.220	0.350	-0.310	-0.100
2020/01/31 16:49:35.4	358.180	0.370	-0.300	-0.060
2020/01/31 16:49:35.5	358.140	0.400	-0.290	-0.030
2020/01/31 16:49:35.6	358.100	0.420	-0.280	-0.000
2020/01/31 16:49:35.7	358.060	0.440	-0.270	0.030
2020/01/31 16:49:35.8	358.030	0.450	-0.250	0.060
2020/01/31 16:49:35.9	357.990	0.460	-0.240	0.090
2020/01/31 16:49:36.0	357.940	0.460	-0.220	0.110
2020/01/31 16:49:36.1	357.900	0.460	-0.210	0.130
2020/01/31 16:49:36.2	357.860	0.460	-0.190	0.150
2020/01/31 16:49:36.3	357.820	0.450	-0.180	0.160
2020/01/31 16:49:36.4	357.790	0.440	-0.170	0.170
2020/01/31 16:49:36.5	357.750	0.420	-0.160	0.170
2020/01/31 16:49:36.6	357.720	0.400	-0.150	0.170
2020/01/31 16:49:36.7	357.690	0.380	-0.140	0.150
2020/01/31 16:49:36.8	357.670	0.350	-0.130	0.140
2020/01/31 16:49:36.9	357.650	0.320	-0.130	0.120
2020/01/31 16:49:37.0	357.630	0.290	-0.130	0.090
2020/01/31 16:49:37.1	357.610	0.260	-0.130	0.050
2020/01/31 16:49:37.2	357.600	0.220	-0.140	0.010
2020/01/31 16:49:37.3	357.590	0.190	-0.150	-0.030
2020/01/31 16:49:37.4	357.590	0.150	-0.160	-0.080
2020/01/31 16:49:37.5	357.590	0.120	-0.170	-0.130
2020/01/31 16:49:37.6	357.590	0.080	-0.190	-0.190
2020/01/31 16:49:37.7	357.600	0.050	-0.200	-0.240
2020/01/31 16:49:37.8	357.610	0.020	-0.220	-0.300
2020/01/31 16:49:37.9	357.620	-0.010	-0.240	-0.360
2020/01/31 16:49:38.0	357.630	-0.040	-0.260	-0.410
2020/01/31 16:49:38.1	357.650	-0.060	-0.280	-0.460
2020/01/31 16:49:38.2	357.660	-0.080	-0.300	-0.510
2020/01/31 16:49:38.3	357.680	-0.100	-0.310	-0.560
2020/01/31 16:49:38.4	357.690	-0.120	-0.330	-0.600
2020/01/31 16:49:38.5	357.710	-0.130	-0.350	-0.630
2020/01/31 16:49:38.6	357.720	-0.140	-0.360	-0.670
2020/01/31 16:49:38.7	357.740	-0.150	-0.370	-0.690
2020/01/31 16:49:38.8	357.750	-0.150	-0.380	-0.720
2020/01/31 16:49:38.9	357.770	-0.150	-0.390	-0.740
2020/01/31 16:49:39.0	357.790	-0.140	-0.400	-0.760
2020/01/31 16:49:39.1	357.810	-0.130	-0.410	-0.770
2020/01/31 16:49:39.2	357.830	-0.120	-0.420	-0.780
2020/01/31 16:49:39.3	357.850	-0.110	-0.420	-0.780
2020/01/31 16:49:39.4	357.870	-0.100	-0.430	-0.790
2020/01/31 16:49:39.5	357.890	-0.080	-0.430	-0.790
2020/01/31 16:49:39.6	357.910	-0.060	-0.440	-0.790
2020/01/31 16:49:39.7	357.930	-0.040	-0.440	-0.790
2020/01/31 16:49:39.8	357.950	-0.020	-0.440	-0.780
2020/01/31 16:49:39.9	357.980	0.000	-0.450	-0.780
2020/01/31 16:49:40.0	358.000	0.020	-0.450	-0.770
2020/01/31 16:49:40.1	358.020	0.050	-0.450	-0.760
2020/01/31 16:49:40.2	358.050	0.070	-0.450	-0.750
2020/01/31 16:49:40.3	358.070	0.090	-0.450	-0.740
2020/01/31 16:49:40.4	358.090	0.110	-0.450	-0.730
2020/01/31 16:49:40.5	358.120	0.130	-0.450	-0.720
2020/01/31 16:49:40.6	358.140	0.150	-0.450	-0.710
2020/01/31 16:49:40.7	358.160	0.160	-0.440	-0.690
2020/01/31 16:49:40.8	358.180	0.180	-0.430	-0.680
2020/01/31 16:49:40.9	358.200	0.190	-0.430	-0.660
2020/01/31 16:49:41.0	358.220	0.200	-0.420	-0.650
2020/01/31 16:49:41.1	358.240	0.200	-0.410	-0.630
2020/01/31 16:49:41.2	358.250	0.210	-0.390	-0.610
2020/01/31 16:49:41.3	358.270	0.210	-0.380	-0.590
2020/01/31 16:49:41.4	358.280	0.210	-0.360	-0.570
2020/01/31 16:49:41.5	358.290	0.200	-0.350	-0.550
2020/01/31 16:49:41.6	358.300	0.200	-0.330	-0.530
2020/01/31 16:49:41.7	358.310	0.190	-0.310	-0.500
2020/01/31 16:49:41.8	358.320	0.170	-0.280	-0.480
2020/01/31 16:49:41.9	358.330	0.160	-0.260	-0.460
2020/01/31 16:49:42.0	358.330	0.140	-0.230	-0.430
2020/01/31 16:49:42.1	358.340	0.120	-0.200	-0.410
2020/01/31 16:49:42.2	358.340	0.100	-0.180	-0.390
2020/01/31 16:49:42.3	358.340	0.080	-0.150	-0.360
2020/01/31 16:49:42.4	358.340	0.050	-0.120	-0.340
2020/01/31 16:49:42.5	358.340	0.030	-0.090	-0.320
2020/01/31 16:49:42.6	358.350	0.000	-0.060	-0.310
2020/01/31 16:49:42.7	358.350	-0.020	-0.030	-0.290
2020/01/31 16:49:42.8	358.350	-0.050	-0.000	-0.270
2020/01/31 16:49:42.9	358.350	-0.080	0.020	-0.260
2020/01/31 16:49:43.0	358.350	-0.110	0.040	-0.240
2020/01/31 16:49:43.1	358.350	-0.130	0.060	-0.230
2020/01/31 16:49:43.2	358.350	-0.160	0.080	-0.230
2020/01/31 16:49:43.3	358.340	-0.190	0.090	-0.220
2020/01/31 16:49:43.4	358.350	-0.210	0.100	-0.220
2020/01/31 16:49:43.5	358.350	-0.230	0.110	-0.210
2020/01/31 16:49:43.6	358.350	-0.260	0.120	-0.210
2020/01/31 16:49:43.7	358.350	-0.280	0.120	-0.220
2020/01/31 16:49:43.8	358.360	-0.290	0.110	-0.230
2020/01/31 16:49:43.9	358.360	-0.310	0.110	-0.230
2020/01/31 16:49:44.0	358.360	-0.320	0.100	-0.240
2020/01/31 16:49:44.1	358.360	-0.330	0.080	-0.250
2020/01/31 16:49:44.2	358.360	-0.340	0.070	-0.260
2020/01/31 16:49:44.3	358.370	-0.350	0.040	-0.280
2020/01/31 16:49:44.4	358.370	-0.350	0.020	-0.300
2020/01/31 16:49:44.5	358.370	-0.350	-0.000	-0.310
2020/01/31 16:49:44.6	358.370	-0.350	-0.030	-0.330
2020/01/31 16:49:44.7	358.380	-0.340	-0.060	-0.350
2020/01/31 16:49:44.8	358.380	-0.330	-0.090	-0.370
2020/01/31 16:49:44.9	358.380	-0.320	-0.120	-0.390
2020/01/31 16:49:45.0	358.380	-0.310	-0.150	-0.410
2020/01/31 16:49:45.1	358.380	-0.300	-0.180	-0.430
2020/01/31 16:49:45.2	358.380	-0.280	-0.210	-0.450
2020/01/31 16:49:45.3	358.370	-0.260	-0.230	-0.470
2020/01/31 16:49:45.4	358.370	-0.230	-0.260	-0.480
2020/01/31 16:49:45.5	358.360	-0.210	-0.290	-0.490
2020/01/31 16:49:45.6	358.350	-0.180	-0.310	-0.500
2020/01/31 16:49:45.7	358.340	-0.160	-0.330	-0.510
2020/01/31 16:49:45.8	358.310	-0.130	-0.350	-0.510
2020/01/31 16:49:45.9	358.300	-0.100	-0.360	-0.520
2020/01/31 16:49:46.0	358.280	-0.070	-0.380	-0.510
2020/01/31 16:49:46.1	358.270	-0.040	-0.390	-0.510
2020/01/31 16:49:46.2	358.250	-0.010	-0.400	-0.500
2020/01/31 16:49:46.3	358.230	0.020	-0.400	-0.490
2020/01/31 16:49:46.4	358.200	0.040	-0.400	-0.480
2020/01/31 16:49:46.5	358.180	0.070	-0.400	-0.460
2020/01/31 16:49:46.6	358.160	0.100	-0.400	-0.450
2020/01/31 16:49:46.7	358.130	0.120	-0.400	-0.430
2020/01/31 16:49:46.8	358.120	0.140	-0.390	-0.410
2020/01/31 16:49:46.9	358.100	0.160	-0.390	-0.380
2020/01/31 16:49:47.0	358.070	0.180	-0.380	-0.360
2020/01/31 16:49:47.1	358.050	0.190	-0.370	-0.340
2020/01/31 16:49:47.2	358.030	0.210	-0.360	-0.310
2020/01/31 16:49:47.3	358.010	0.220	-0.350	-0.290
2020/01/31 16:49:47.4	357.990	0.230	-0.340	-0.260
2020/01/31 16:49:47.5	357.970	0.230	-0.330	-0.240
2020/01/31 16:49:47.6	357.960	0.230	-0.320	-0.210
2020/01/31 16:49:47.7	357.950	0.230	-0.310	-0.190
2020/01/31 16:49:47.8	357.920	0.230	-0.310	-0.170
2020/01/31 16:49:47.9	357.920	0.230	-0.300	-0.150
2020/01/31 16:49:48.0	357.910	0.220	-0.290	-0.130
2020/01/31 16:49:48.1	357.910	0.210	-0.290	-0.120
2020/01/31 16:49:48.2	357.900	0.200	-0.280	-0.110
2020/01/31 16:49:48.3	357.900	0.180	-0.280	-0.090
2020/01/31 16:49:48.4	357.900	0.160	-0.270	-0.080
2020/01/31 16:49:48.5	357.900	0.150	-0.270	-0.070
2020/01/31 16:49:48.6	357.900	0.130	-0.270	-0.060
2020/01/31 16:49:48.7	357.900	0.110	-0.260	-0.060
2020/01/31 16:49:48.8	357.910	0.080	-0.250	-0.050
2020/01/31 16:49:48.9	357.910	0.060	-0.250	-0.050
2020/01/31 16:49:49.0	357.900	0.030	-0.250	-0.040
2020/01/31 16:49:49.1	357.900	0.010	-0.240	-0.040
2020/01/31 16:49:49.2	357.900	-0.020	-0.240	-0.040
2020/01/31 16:49:49.3	357.900	-0.040	-0.230	-0.040
2020/01/31 16:49:49.4	357.900	-0.070	-0.230	-0.040
2020/01/31 16:49:49.5	357.900	-0.100	-0.220	-0.050
2020/01/31 16:49:49.6	357.900	-0.120	-0.220	-0.060
2020/01/31 16:49:49.7	357.900	-0.150	-0.210	-0.070
2020/01/31 16:49:49.8	357.890	-0.170	-0.210	-0.090
2020/01/31 16:49:49.9	357.900	-0.190	-0.210	-0.100
2020/01/31 16:49:50.0	357.900	-0.210	-0.210	-0.120
2020/01/31 16:49:50.1	357.910	-0.230	-0.210	-0.140
2020/01/31 16:49:50.2	357.910	-0.250	-0.210	-0.170
2020/01/31 16:49:50.3	357.930	-0.260	-0.220	-0.190
2020/01/31 16:49:50.4	357.940	-0.270	-0.220	-0.220
2020/01/31 16:49:50.5	357.950	-0.280	-0.230	-0.250
2020/01/31 16:49:50.6	357.970	-0.280	-0.240	-0.280
2020/01/31 16:49:50.7	357.980	-0.280	-0.250	-0.310
2020/01/31 16:49:50.8	358.000	-0.280	-0.260	-0.350
2020/01/31 16:49:50.9	358.020	-0.280	-0.270	-0.380
2020/01/31 16:49:51.0	358.030	-0.270	-0.280	-0.400
2020/01/31 16:49:51.1	358.050	-0.260	-0.300	-0.430
2020/01/31 16:49:51.2	358.070	-0.240	-0.310	-0.450
2020/01/31 16:49:51.3	358.090	-0.220	-0.330	-0.470
2020/01/31 16:49:51.4	358.110	-0.200	-0.340	-0.490
2020/01/31 16:49:51.5	358.120	-0.180	-0.360	-0.500
2020/01/31 16:49:51.6	358.140	-0.150	-0.370	-0.520
2020/01/31 16:49:51.7	358.150	-0.120	-0.390	-0.530
2020/01/31 16:49:51.8	358.170	-0.090	-0.400	-0.530
2020/01/31 16:49:51.9	358.190	-0.060	-0.420	-0.540
2020/01/31 16:49:52.0	358.200	-0.020	-0.430	-0.540
2020/01/31 16:49:52.1	358.210	0.010	-0.440	-0.530
2020/01/31 16:49:52.2	358.210	0.050	-0.450	-0.530
2020/01/31 16:49:52.3	358.220	0.090	-0.460	-0.520
2020/01/31 16:49:52.4	358.220	0.130	-0.470	-0.510
2020/01/31 16:49:52.5	358.230	0.170	-0.480	-0.490
2020/01/31 16:49:52.6	358.230	0.210	-0.480	-0.470
2020/01/31 16:49:52.7	358.230	0.250	-0.490	-0.450
2020/01/31 16:49:52.8	358.230	0.290	-0.490	-0.430
2020/01/31 16:49:52.9	358.230	0.330	-0.490	-0.400
2020/01/31 16:49:53.0	358.220	0.360	-0.490	-0.370
2020/01/31 16:49:53.1	358.220	0.400	-0.490	-0.340
2020/01/31 16:49:53.2	358.210	0.430	-0.480	-0.310
2020/01/31 16:49:53.3	358.210	0.460	-0.470	-0.280
2020/01/31 16:49:53.4	358.200	0.490	-0.460	-0.250
2020/01/31 16:49:53.5	358.200	0.520	-0.450	-0.210
2020/01/31 16:49:53.6	358.190	0.540	-0.440	-0.180
2020/01/31 16:49:53.7	358.180	0.560	-0.430	-0.150
2020/01/31 16:49:53.8	358.180	0.580	-0.410	-0.110
2020/01/31 16:49:53.9	358.180	0.590	-0.400	-0.080
2020/01/31 16:49:54.0	358.170	0.600	-0.380	-0.050
2020/01/31 16:49:54.1	358.170	0.610	-0.360	-0.020
2020/01/31 16:49:54.2	358.160	0.610	-0.350	0.010
2020/01/31 16:49:54.3	358.160	0.610	-0.330	0.040
2020/01/31 16:49:54.4	358.160	0.600	-0.320	0.060
2020/01/31 16:49:54.5	358.160	0.590	-0.300	0.080
2020/01/31 16:49:54.6	358.160	0.580	-0.290	0.090
2020/01/31 16:49:54.7	358.160	0.560	-0.280	0.110
2020/01/31 16:49:54.8	358.170	0.540	-0.270	0.120
2020/01/31 16:49:54.9	358.170	0.520	-0.260	0.130
2020/01/31 16:49:55.0	358.180	0.490	-0.260	0.130
2020/01/31 16:49:55.1	358.180	0.460	-0.250	0.130
2020/01/31 16:49:55.2	358.190	0.420	-0.240	0.120
2020/01/31 16:49:55.3	358.190	0.380	-0.240	0.110
2020/01/31 16:49:55.4	358.190	0.340	-0.230	0.100
2020/01/31 16:49:55.5	358.200	0.300	-0.220	0.080
2020/01/31 16:49:55.6	358.200	0.250	-0.220	0.060
2020/01/31 16:49:55.7	358.210	0.200	-0.210	0.040
2020/01/31 16:49:55.8	358.210	0.150	-0.210	0.010
2020/01/31 16:49:55.9	358.210	0.100	-0.200	-0.030
2020/01/31 16:49:56.0	358.220	0.050	-0.190	-0.070
2020/01/31 16:49:56.1	358.220	-0.010	-0.180	-0.110
2020/01/31 16:49:56.2	358.220	-0.060	-0.170	-0.150
2020/01/31 16:49:56.3	358.230	-0.120	-0.160	-0.200
2020/01/31 16:49:56.4	358.230	-0.170	-0.150	-0.240
2020/01/31 16:49:56.5	358.230	-0.230	-0.130	-0.290
2020/01/31 16:49:56.6	358.240	-0.280	-0.120	-0.340
2020/01/31 16:49:56.7	358.240	-0.330	-0.100	-0.390
2020/01/31 16:49:56.8	358.240	-0.380	-0.080	-0.440
2020/01/31 16:49:56.9	358.240	-0.430	-0.060	-0.480
2020/01/31 16:49:57.0	358.240	-0.480	-0.040	-0.530
2020/01/31 16:49:57.1	358.240	-0.520	-0.010	-0.570
2020/01/31 16:49:57.2	358.230	-0.570	0.020	-0.610
2020/01/31 16:49:57.3	358.230	-0.610	0.040	-0.640
2020/01/31 16:49:57.4	358.230	-0.640	0.070	-0.670
2020/01/31 16:49:57.5	358.220	-0.680	0.100	-0.700
2020/01/31 16:49:57.6	358.210	-0.710	0.140	-0.720
2020/01/31 16:49:57.7	358.210	-0.730	0.170	-0.740
2020/01/31 16:49:57.8	358.210	-0.750	0.200	-0.760
2020/01/31 16:49:57.9	358.200	-0.770	0.230	-0.770
2020/01/31 16:49:58.0	358.190	-0.790	0.260	-0.780
2020/01/31 16:49:58.1	358.180	-0.800	0.300	-0.780
2020/01/31 16:49:58.2	358.160	-0.810	0.320	-0.780
2020/01/31 16:49:58.3	358.150	-0.810	0.350	-0.780
2020/01/31 16:49:58.4	358.140	-0.810	0.380	-0.770
2020/01/31 16:49:58.5	358.130	-0.800	0.400	-0.750
2020/01/31 16:49:58.6	358.110	-0.800	0.420	-0.740
2020/01/31 16:49:58.7	358.100	-0.780	0.440	-0.710
2020/01/31 16:49:58.8	358.080	-0.770	0.450	-0.690
2020/01/31 16:49:58.9	358.060	-0.750	0.460	-0.660
2020/01/31 16:49:59.0	358.050	-0.720	0.460	-0.620
2020/01/31 16:49:59.1	358.030	-0.690	0.460	-0.580
2020/01/31 16:49:59.2	358.010	-0.660	0.460	-0.540
2020/01/31 16:49:59.3	357.990	-0.630	0.450	-0.490
2020/01/31 16:49:59.4	357.970	-0.590	0.440	-0.440
2020/01/31 16:49:59.5	357.940	-0.540	0.420	-0.390
2020/01/31 16:49:59.6	357.920	-0.500	0.390	-0.340
2020/01/31 16:49:59.7	357.900	-0.450	0.360	-0.280
2020/01/31 16:49:59.8	357.880	-0.400	0.330	-0.220
2020/01/31 16:49:59.9	357.870	-0.350	0.280	-0.170
2020/01/31 16:50:00.0	357.850	-0.290	0.240	-0.120
2020/01/31 16:50:00.1	357.840	-0.240	0.180	-0.060
2020/01/31 16:50:00.2	357.820	-0.180	0.120	-0.020
2020/01/31 16:50:00.3	357.810	-0.120	0.050	0.030
2020/01/31 16:50:00.4	357.810	-0.060	-0.020	0.070
2020/01/31 16:50:00.5	357.800	-0.000	-0.100	0.110
2020/01/31 16:50:00.6	357.800	0.060	-0.180	0.140
2020/01/31 16:50:00.7	357.800	0.120	-0.270	0.170
2020/01/31 16:50:00.8	357.800	0.180	-0.360	0.190
2020/01/31 16:50:00.9	357.810	0.240	-0.450	0.210
2020/01/31 16:50:01.0	357.810	0.300	-0.540	0.220
2020/01/31 16:50:01.1	357.820	0.350	-0.630	0.230
2020/01/31 16:50:01.2	357.840	0.410	-0.730	0.230
2020/01/31 16:50:01.3	357.850	0.460	-0.820	0.230
2020/01/31 16:50:01.4	357.860	0.510	-0.910	0.230
2020/01/31 16:50:01.5	357.880	0.550	-0.990	0.220
2020/01/31 16:50:01.6	357.890	0.590	-1.070	0.210
2020/01/31 16:50:01.7	357.900	0.630	-1.150	0.200
2020/01/31 16:50:01.8	357.910	0.660	-1.220	0.190
2020/01/31 16:50:01.9	357.920	0.690	-1.280	0.180
2020/01/31 16:50:02.0	357.930	0.720	-1.340	0.160
2020/01/31 16:50:02.1	357.940	0.740	-1.380	0.150
2020/01/31 16:50:02.2	357.950	0.750	-1.420	0.130
2020/01/31 16:50:02.3	357.950	0.760	-1.450	0.120
2020/01/31 16:50:02.4	357.960	0.760	-1.470	0.100
2020/01/31 16:50:02.5	357.960	0.760	-1.480	0.080
2020/01/31 16:50:02.6	357.960	0.750	-1.480	0.070
2020/01/31 16:50:02.7	357.960	0.740	-1.460	0.050
2020/01/31 16:50:02.8	357.950	0.720	-1.440	0.030
2020/01/31 16:50:02.9	357.950	0.700	-1.410	0.010
2020/01/31 16:50:03.0	357.940	0.680	-1.370	-0.010
2020/01/31 16:50:03.1	357.940	0.650	-1.320	-0.030
2020/01/31 16:50:03.2	357.930	0.610	-1.260	-0.050
2020/01/31 16:50:03.3	357.920	0.570	-1.200	-0.070
2020/01/31 16:50:03.4	357.910	0.530	-1.130	-0.090
2020/01/31 16:50:03.5	357.900	0.480	-1.050	-0.120
2020/01/31 16:50:03.6	357.900	0.440	-0.970	-0.140
2020/01/31 16:50:03.7	357.890	0.390	-0.880	-0.170
2020/01/31 16:50:03.8	357.880	0.340	-0.800	-0.190
2020/01/31 16:50:03.9	357.880	0.280	-0.710	-0.220
2020/01/31 16:50:04.0	357.880	0.230	-0.620	-0.250
2020/01/31 16:50:04.1	357.870	0.170	-0.530	-0.280
2020/01/31 16:50:04.2	357.870	0.120	-0.440	-0.310
2020/01/31 16:50:04.3	357.880	0.070	-0.350	-0.350
2020/01/31 16:50:04.4	357.880	0.010	-0.270	-0.380
2020/01/31 16:50:04.5	357.890	-0.040	-0.190	-0.420
2020/01/31 16:50:04.6	357.900	-0.090	-0.120	-0.450
2020/01/31 16:50:04.7	357.910	-0.130	-0.040	-0.490
2020/01/31 16:50:04.8	357.920	-0.180	0.030	-0.530
2020/01/31 16:50:04.9	357.930	-0.220	0.090	-0.570
2020/01/31 16:50:05.0	357.950	-0.260	0.140	-0.600
2020/01/31 16:50:05.1	357.960	-0.300	0.190	-0.640
2020/01/31 16:50:05.2	357.980	-0.330	0.240	-0.670
2020/01/31 16:50:05.3	357.990	-0.360	0.280	-0.710
2020/01/31 16:50:05.4	358.010	-0.380	0.310	-0.740
2020/01/31 16:50:05.5	358.020	-0.400	0.340	-0.770
2020/01/31 16:50:05.6	358.040	-0.420	0.360	-0.800
2020/01/31 16:50:05.7	358.050	-0.430	0.370	-0.830
2020/01/31 16:50:05.8	358.080	-0.440	0.390	-0.850
2020/01/31 16:50:05.9	358.090	-0.440	0.390	-0.870
2020/01/31 16:50:06.0	358.110	-0.440	0.390	-0.890
2020/01/31 16:50:06.1	358.120	-0.440	0.390	-0.900
2020/01/31 16:50:06.2	358.130	-0.430	0.380	-0.910
2020/01/31 16:50:06.3	358.150	-0.410	0.370	-0.910
2020/01/31 16:50:06.4	358.160	-0.400	0.360	-0.910
2020/01/31 16:50:06.5	358.170	-0.370	0.350	-0.910
2020/01/31 16:50:06.6	358.180	-0.350	0.330	-0.900
2020/01/31 16:50:06.7	358.190	-0.320	0.310	-0.880
2020/01/31 16:50:06.8	358.200	-0.290	0.290	-0.860
2020/01/31 16:50:06.9	358.210	-0.260	0.260	-0.840
2020/01/31 16:50:07.0	358.220	-0.220	0.240	-0.810
2020/01/31 16:50:07.1	358.230	-0.180	0.220	-0.780
2020/01/31 16:50:07.2	358.230	-0.140	0.190	-0.750
2020/01/31 16:50:07.3	358.240	-0.100	0.170	-0.710
2020/01/31 16:50:07.4	358.240	-0.060	0.140	-0.660
2020/01/31 16:50:07.5	358.240	-0.020	0.120	-0.620
2020/01/31 16:50:07.6	358.240	0.010	0.100	-0.560
2020/01/31 16:50:07.7	358.230	0.050	0.070	-0.510
2020/01/31 16:50:07.8	358.230	0.090	0.050	-0.450
2020/01/31 16:50:07.9	358.220	0.120	0.030	-0.390
2020/01/31 16:50:08.0	358.210	0.150	0.010	-0.340
2020/01/31 16:50:08.1	358.200	0.180	-0.000	-0.280
2020/01/31 16:50:08.2	358.190	0.200	-0.020	-0.220
2020/01/31 16:50:08.3	358.170	0.220	-0.030	-0.170
2020/01/31 16:50:08.4	358.160	0.240	-0.040	-0.110
2020/01/31 16:50:08.5	358.140	0.250	-0.060	-0.050
2020/01/31 16:50:08.6	358.120	0.260	-0.070	-0.000
2020/01/31 16:50:08.7	358.100	0.260	-0.080	0.050
2020/01/31 16:50:08.8	358.070	0.260	-0.080	0.100
2020/01/31 16:50:08.9	358.050	0.260	-0.090	0.140
2020/01/31 16:50:09.0	358.030	0.250	-0.090	0.180
2020/01/31 16:50:09.1	358.010	0.240	-0.100	0.220
2020/01/31 16:50:09.2	357.990	0.220	-0.100	0.250
2020/01/31 16:50:09.3	357.970	0.210	-0.110	0.270
2020/01/31 16:50:09.4	357.950	0.180	-0.110	0.290
2020/01/31 16:50:09.5	357.930	0.160	-0.120	0.300
2020/01/31 16:50:09.6	357.910	0.130	-0.120	0.310
2020/01/31 16:50:09.7	357.890	0.100	-0.130	0.310
2020/01/31 16:50:09.8	357.870	0.070	-0.130	0.300
2020/01/31 16:50:09.9	357.860	0.030	-0.140	0.290
2020/01/31 16:50:10.0	357.840	-0.000	-0.150	0.280
2020/01/31 16:50:10.1	357.830	-0.040	-0.150	0.260
2020/01/31 16:50:10.2	357.820	-0.080	-0.160	0.240
2020/01/31 16:50:10.3	357.810	-0.110	-0.170	0.220
2020/01/31 16:50:10.4	357.800	-0.150	-0.180	0.190
2020/01/31 16:50:10.5	357.790	-0.180	-0.190	0.150
2020/01/31 16:50:10.6	357.780	-0.210	-0.200	0.120
2020/01/31 16:50:10.7	357.780	-0.250	-0.210	0.090
2020/01/31 16:50:10.8	357.780	-0.270	-0.230	0.040
2020/01/31 16:50:10.9	357.780	-0.300	-0.240	0.000
2020/01/31 16:50:11.0	357.770	-0.330	-0.250	-0.040
2020/01/31 16:50:11.1	357.770	-0.350	-0.260	-0.080
2020/01/31 16:50:11.2	357.770	-0.370	-0.280	-0.120
2020/01/31 16:50:11.3	357.770	-0.380	-0.290	-0.160
2020/01/31 16:50:11.4	357.770	-0.400	-0.300	-0.210
2020/01/31 16:50:11.5	357.770	-0.400	-0.310	-0.250
2020/01/31 16:50:11.6	357.780	-0.410	-0.320	-0.290
2020/01/31 16:50:11.7	357.780	-0.410	-0.330	-0.340
2020/01/31 16:50:11.8	357.790	-0.410	-0.330	-0.380
2020/01/31 16:50:11.9	357.800	-0.410	-0.340	-0.420
2020/01/31 16:50:12.0	357.800	-0.400	-0.350	-0.460
2020/01/31 16:50:12.1	357.810	-0.390	-0.360	-0.500
2020/01/31 16:50:12.2	357.810	-0.370	-0.360	-0.540
2020/01/31 16:50:12.3	357.820	-0.360	-0.370	-0.570
2020/01/31 16:50:12.4	357.820	-0.340	-0.370	-0.600
2020/01/31 16:50:12.5	357.830	-0.310	-0.380	-0.620
2020/01/31 16:50:12.6	357.830	-0.290	-0.380	-0.640
2020/01/31 16:50:12.7	357.830	-0.260	-0.380	-0.650
2020/01/31 16:50:12.8	357.840	-0.230	-0.380	-0.660
2020/01/31 16:50:12.9	357.830	-0.200	-0.380	-0.660
2020/01/31 16:50:13.0	357.830	-0.160	-0.380	-0.660
2020/01/31 16:50:13.1	357.830	-0.130	-0.380	-0.650
2020/01/31 16:50:13.2	357.820	-0.090	-0.380	-0.630
2020/01/31 16:50:13.3	357.810	-0.060	-0.380	-0.610
2020/01/31 16:50:13.4	357.810	-0.020	-0.380	-0.590
2020/01/31 16:50:13.5	357.800	0.020	-0.380	-0.560
2020/01/31 16:50:13.6	357.790	0.060	-0.380	-0.530
2020/01/31 16:50:13.7	357.780	0.090	-0.390	-0.500
2020/01/31 16:50:13.8	357.770	0.130	-0.390	-0.460
2020/01/31 16:50:13.9	357.760	0.160	-0.400	-0.430
2020/01/31 16:50:14.0	357.750	0.200	-0.400	-0.390
2020/01/31 16:50:14.1	357.740	0.230	-0.410	-0.360
2020/01/31 16:50:14.2	357.730	0.260	-0.430	-0.330
2020/01/31 16:50:14.3	357.730	0.290	-0.440	-0.300
2020/01/31 16:50:14.4	357.720	0.320	-0.460	-0.270
2020/01/31 16:50:14.5	357.710	0.350	-0.470	-0.240
2020/01/31 16:50:14.6	357.710	0.370	-0.490	-0.220
2020/01/31 16:50:14.7	357.710	0.390	-0.520	-0.190
2020/01/31 16:50:14.8	357.710	0.410	-0.540	-0.170
2020/01/31 16:50:14.9	357.720	0.430	-0.560	-0.160
2020/01/31 16:50:15.0	357.720	0.450	-0.590	-0.140
2020/01/31 16:50:15.1	357.730	0.460	-0.620	-0.130
2020/01/31 16:50:15.2	357.730	0.470	-0.640	-0.130
2020/01/31 16:50:15.3	357.740	0.480	-0.670	-0.130
2020/01/31 16:50:15.4	357.760	0.490	-0.700	-0.130
2020/01/31 16:50:15.5	357.770	0.490	-0.720	-0.130
2020/01/31 16:50:15.6	357.790	0.490	-0.750	-0.140
2020/01/31 16:50:15.7	357.810	0.490	-0.770	-0.150
2020/01/31 16:50:15.8	357.820	0.490	-0.790	-0.160
2020/01/31 16:50:15.9	357.840	0.490	-0.810	-0.180
2020/01/31 16:50:16.0	357.870	0.480	-0.820	-0.200
2020/01/31 16:50:16.1	357.890	0.470	-0.830	-0.220
2020/01/31 16:50:16.2	357.920	0.460	-0.830	-0.240
2020/01/31 16:50:16.3	357.950	0.440	-0.830	-0.260
2020/01/31 16:50:16.4	357.990	0.430	-0.830	-0.280
2020/01/31 16:50:16.5	358.020	0.410	-0.820	-0.300
2020/01/31 16:50:16.6	358.050	0.390	-0.810	-0.320
2020/01/31 16:50:16.7	358.080	0.360	-0.790	-0.340
2020/01/31 16:50:16.8	358.100	0.340	-0.760	-0.360
2020/01/31 16:50:16.9	358.130	0.310	-0.730	-0.380
2020/01/31 16:50:17.0	358.150	0.270	-0.700	-0.390
2020/01/31 16:50:17.1	358.180	0.240	-0.660	-0.410
2020/01/31 16:50:17.2	358.200	0.200	-0.620	-0.420
2020/01/31 16:50:17.3	358.220	0.160	-0.570	-0.430
2020/01/31 16:50:17.4	358.240	0.120	-0.520	-0.440
2020/01/31 16:50:17.5	358.260	0.080	-0.460	-0.450
2020/01/31 16:50:17.6	358.270	0.040	-0.410	-0.460
2020/01/31 16:50:17.7	358.280	-0.010	-0.350	-0.460
2020/01/31 16:50:17.8	358.280	-0.060	-0.290	-0.470
2020/01/31 16:50:17.9	358.290	-0.110	-0.230	-0.470
2020/01/31 16:50:18.0	358.290	-0.160	-0.170	-0.470
2020/01/31 16:50:18.1	358.300	-0.200	-0.100	-0.480
2020/01/31 16:50:18.2	358.300	-0.250	-0.040	-0.480
2020/01/31 16:50:18.3	358.300	-0.300	0.010	-0.480
2020/01/31 16:50:18.4	358.300	-0.350	0.070	-0.480
2020/01/31 16:50:18.5	358.290	-0.400	0.120	-0.480
2020/01/31 16:50:18.6	358.290	-0.440	0.170	-0.480
2020/01/31 16:50:18.7	358.280	-0.490	0.210	-0.480
2020/01/31 16:50:18.8	358.280	-0.530	0.260	-0.480
2020/01/31 16:50:18.9	358.280	-0.570	0.290	-0.480
2020/01/31 16:50:19.0	358.270	-0.600	0.320	-0.480
2020/01/31 16:50:19.1	358.260	-0.630	0.350	-0.480
2020/01/31 16:50:19.2	358.260	-0.660	0.370	-0.480
2020/01/31 16:50:19.3	358.250	-0.690	0.390	-0.490
2020/01/31 16:50:19.4	358.240	-0.710	0.400	-0.490
2020/01/31 16:50:19.5	358.230	-0.720	0.410	-0.490
2020/01/31 16:50:19.6	358.230	-0.730	0.410	-0.490
2020/01/31 16:50:19.7	358.220	-0.740	0.410	-0.500
2020/01/31 16:50:19.8	358.220	-0.740	0.400	-0.500
2020/01/31 16:50:19.9	358.210	-0.730	0.390	-0.500
2020/01/31 16:50:20.0	358.200	-0.720	0.380	-0.500
2020/01/31 16:50:20.1	358.200	-0.710	0.360	-0.500
2020/01/31 16:50:20.2	358.190	-0.690	0.340	-0.490
2020/01/31 16:50:20.3	358.180	-0.660	0.320	-0.480
2020/01/31 16:50:20.4	358.170	-0.630	0.300	-0.470
2020/01/31 16:50:20.5	358.160	-0.590	0.270	-0.460
2020/01/31 16:50:20.6	358.140	-0.550	0.250	-0.440
2020/01/31 16:50:20.7	358.130	-0.500	0.220	-0.410
2020/01/31 16:50:20.8	358.120	-0.450	0.200	-0.390
2020/01/31 16:50:20.9	358.110	-0.400	0.180	-0.360
2020/01/31 16:50:21.0	358.090	-0.340	0.150	-0.320
2020/01/31 16:50:21.1	358.070	-0.280	0.130	-0.280
2020/01/31 16:50:21.2	358.050	-0.220	0.110	-0.240
2020/01/31 16:50:21.3	358.030	-0.150	0.090	-0.190
2020/01/31 16:50:21.4	358.010	-0.090	0.080	-0.140
2020/01/31 16:50:21.5	357.990	-0.020	0.060	-0.090
2020/01/31 16:50:21.6	357.970	0.050	0.050	-0.040
2020/01/31 16:50:21.7	357.940	0.120	0.040	0.020
2020/01/31 16:50:21.8	357.920	0.180	0.030	0.080
2020/01/31 16:50:21.9	357.890	0.250	0.020	0.130
2020/01/31 16:50:22.0	357.870	0.310	0.010	0.190
2020/01/31 16:50:22.1	357.840	0.380	0.000	0.250
2020/01/31 16:50:22.2	357.820	0.440	-0.000	0.310
2020/01/31 16:50:22.3	357.790	0.490	-0.010	0.360
2020/01/31 16:50:22.4	357.770	0.550	-0.020	0.420
2020/01/31 16:50:22.5	357.740	0.600	-0.030	0.470
2020/01/31 16:50:22.6	357.720	0.650	-0.030	0.520
2020/01/31 16:50:22.7	357.700	0.690	-0.040	0.560
2020/01/31 16:50:22.8	357.670	0.730	-0.050	0.610
2020/01/31 16:50:22.9	357.640	0.760	-0.070	0.640
2020/01/31 16:50:23.0	357.630	0.790	-0.080	0.680
2020/01/31 16:50:23.1	357.610	0.810	-0.100	0.710
2020/01/31 16:50:23.2	357.590	0.830	-0.120	0.730
2020/01/31 16:50:23.3	357.570	0.840	-0.140	0.750
2020/01/31 16:50:23.4	357.560	0.850	-0.160	0.770
2020/01/31 16:50:23.5	357.540	0.850	-0.180	0.780
2020/01/31 16:50:23.6	357.530	0.840	-0.210	0.790
2020/01/31 16:50:23.7	357.510	0.840	-0.240	0.790
2020/01/31 16:50:23.8	357.510	0.820	-0.270	0.800
2020/01/31 16:50:23.9	357.500	0.800	-0.300	0.790
2020/01/31 16:50:24.0	357.490	0.780	-0.330	0.770
2020/01/31 16:50:24.1	357.470	0.750	-0.360	0.750
2020/01/31 16:50:24.2	357.460	0.710	-0.400	0.720
2020/01/31 16:50:24.3	357.450	0.670	-0.430	0.690
2020/01/31 16:50:24.4	357.450	0.630	-0.470	0.650
2020/01/31 16:50:24.5	357.440	0.580	-0.500	0.610
2020/01/31 16:50:24.6	357.430	0.530	-0.530	0.560
2020/01/31 16:50:24.7	357.430	0.480	-0.570	0.500
2020/01/31 16:50:24.8	357.420	0.430	-0.600	0.440
2020/01/31 16:50:24.9	357.420	0.370	-0.630	0.370
2020/01/31 16:50:25.0	357.420	0.310	-0.660	0.300
2020/01/31 16:50:25.1	357.420	0.250	-0.690	0.220
2020/01/31 16:50:25.2	357.430	0.180	-0.720	0.150
2020/01/31 16:50:25.3	357.440	0.120	-0.740	0.060
2020/01/31 16:50:25.4	357.450	0.060	-0.760	-0.020
2020/01/31 16:50:25.5	357.460	-0.000	-0.780	-0.110
2020/01/31 16:50:25.6	357.480	-0.070	-0.800	-0.200
2020/01/31 16:50:25.7	357.500	-0.130	-0.820	-0.300
2020/01/31 16:50:25.8	357.520	-0.190	-0.840	-0.390
2020/01/31 16:50:25.9	357.550	-0.240	-0.840	-0.490
2020/01/31 16:50:26.0	357.570	-0.300	-0.850	-0.580
2020/01/31 16:50:26.1	357.600	-0.350	-0.850	-0.670
2020/01/31 16:50:26.2	357.630	-0.400	-0.850	-0.760
2020/01/31 16:50:26.3	357.660	-0.450	-0.850	-0.840
2020/01/31 16:50:26.4	357.690	-0.490	-0.840	-0.930
2020/01/31 16:50:26.5	357.720	-0.530	-0.830	-1.010
2020/01/31 16:50:26.6	357.750	-0.570	-0.820	-1.080
2020/01/31 16:50:26.7	357.780	-0.600	-0.800	-1.160
2020/01/31 16:50:26.8	357.830	-0.630	-0.790	-1.230
2020/01/31 16:50:26.9	357.870	-0.650	-0.780	-1.300
2020/01/31 16:50:27.0	357.900	-0.670	-0.760	-1.370
2020/01/31 16:50:27.1	357.940	-0.680	-0.740	-1.430
2020/01/31 16:50:27.2	357.980	-0.690	-0.720	-1.500
2020/01/31 16:50:27.3	358.020	-0.700	-0.700	-1.550
2020/01/31 16:50:27.4	358.060	-0.700	-0.690	-1.610
2020/01/31 16:50:27.5	358.100	-0.690	-0.670	-1.660
2020/01/31 16:50:27.6	358.140	-0.680	-0.660	-1.710
2020/01/31 16:50:27.7	358.190	-0.670	-0.640	-1.750
2020/01/31 16:50:27.8	358.220	-0.650	-0.620	-1.790
2020/01/31 16:50:27.9	358.260	-0.630	-0.610	-1.830
2020/01/31 16:50:28.0	358.310	-0.600	-0.600	-1.860
2020/01/31 16:50:28.1	358.350	-0.570	-0.590	-1.880
2020/01/31 16:50:28.2	358.400	-0.540	-0.580	-1.910
2020/01/31 16:50:28.3	358.440	-0.500	-0.570	-1.920
2020/01/31 16:50:28.4	358.490	-0.460	-0.560	-1.930
2020/01/31 16:50:28.5	358.530	-0.420	-0.550	-1.930
2020/01/31 16:50:28.6	358.560	-0.380	-0.530	-1.930
2020/01/31 16:50:28.7	358.600	-0.340	-0.520	-1.920
2020/01/31 16:50:28.8	358.640	-0.300	-0.510	-1.900
2020/01/31 16:50:28.9	358.670	-0.250	-0.500	-1.880
2020/01/31 16:50:29.0	358.700	-0.210	-0.480	-1.850
2020/01/31 16:50:29.1	358.710	-0.170	-0.460	-1.810
2020/01/31 16:50:29.2	358.720	-0.130	-0.440	-1.760
2020/01/31 16:50:29.3	358.730	-0.090	-0.420	-1.710
2020/01/31 16:50:29.4	358.730	-0.060	-0.390	-1.650
2020/01/31 16:50:29.5	358.720	-0.030	-0.360	-1.590
2020/01/31 16:50:29.6	358.710	0.000	-0.330	-1.520
2020/01/31 16:50:29.7	358.690	0.030	-0.290	-1.440
2020/01/31 16:50:29.8	358.670	0.050	-0.250	-1.350
2020/01/31 16:50:29.9	358.640	0.080	-0.210	-1.270
2020/01/31 16:50:30.0	358.600	0.090	-0.170	-1.180
2020/01/31 16:50:30.1	358.570	0.110	-0.130	-1.090
2020/01/31 16:50:30.2	358.520	0.120	-0.080	-0.990
2020/01/31 16:50:30.3	358.480	0.120	-0.040	-0.900
2020/01/31 16:50:30.4	358.430	0.130	0.010	-0.800
2020/01/31 16:50:30.5	358.370	0.130	0.050	-0.710
2020/01/31 16:50:30.6	358.320	0.130	0.100	-0.610
2020/01/31 16:50:30.7	358.270	0.120	0.140	-0.520
2020/01/31 16:50:30.8	358.210	0.110	0.180	-0.420
2020/01/31 16:50:30.9	358.150	0.110	0.220	-0.340
2020/01/31 16:50:31.0	358.100	0.100	0.260	-0.250
2020/01/31 16:50:31.1	358.050	0.090	0.290	-0.170
2020/01/31 16:50:31.2	358.000	0.080	0.320	-0.090
2020/01/31 16:50:31.3	357.960	0.070	0.350	-0.020
2020/01/31 16:50:31.4	357.910	0.050	0.370	0.050
2020/01/31 16:50:31.5	357.870	0.040	0.390	0.110
2020/01/31 16:50:31.6	357.830	0.040	0.400	0.170
2020/01/31 16:50:31.7	357.800	0.030	0.410	0.220
2020/01/31 16:50:31.8	357.770	0.020	0.420	0.270
2020/01/31 16:50:31.9	357.730	0.020	0.420	0.310
2020/01/31 16:50:32.0	357.710	0.020	0.420	0.350
2020/01/31 16:50:32.1	357.680	0.020	0.420	0.390
2020/01/31 16:50:32.2	357.660	0.020	0.410	0.420
2020/01/31 16:50:32.3	357.630	0.030	0.400	0.450
2020/01/31 16:50:32.4	357.610	0.040	0.380	0.480
2020/01/31 16:50:32.5	357.590	0.050	0.370	0.500
2020/01/31 16:50:32.6	357.570	0.060	0.350	0.520
2020/01/31 16:50:32.7	357.550	0.070	0.330	0.550
2020/01/31 16:50:32.8	357.520	0.090	0.310	0.570
2020/01/31 16:50:32.9	357.500	0.110	0.290	0.590
2020/01/31 16:50:33.0	357.480	0.130	0.270	0.600
2020/01/31 16:50:33.1	357.460	0.150	0.240	0.620
2020/01/31 16:50:33.2	357.450	0.170	0.220	0.630
2020/01/31 16:50:33.3	357.430	0.190	0.200	0.640
2020/01/31 16:50:33.4	357.410	0.210	0.170	0.640
2020/01/31 16:50:33.5	357.400	0.230	0.140	0.640
2020/01/31 16:50:33.6	357.390	0.260	0.110	0.640
2020/01/31 16:50:33.7	357.380	0.280	0.080	0.640
2020/01/31 16:50:33.8	357.370	0.290	0.050	0.630
2020/01/31 16:50:33.9	357.370	0.310	0.020	0.610
2020/01/31 16:50:34.0	357.360	0.330	-0.010	0.600
2020/01/31 16:50:34.1	357.350	0.340	-0.050	0.580
2020/01/31 16:50:34.2	357.350	0.350	-0.080	0.560
2020/01/31 16:50:34.3	357.350	0.360	-0.120	0.530
2020/01/31 16:50:34.4	357.350	0.370	-0.160	0.500
2020/01/31 16:50:34.5	357.350	0.380	-0.190	0.480
2020/01/31 16:50:34.6	357.350	0.380	-0.230	0.440
2020/01/31 16:50:34.7	357.350	0.380	-0.270	0.410
2020/01/31 16:50:34.8	357.360	0.370	-0.310	0.370
2020/01/31 16:50:34.9	357.360	0.370	-0.340	0.340
2020/01/31 16:50:35.0	357.370	0.360	-0.380	0.300
2020/01/31 16:50:35.1	357.370	0.340	-0.410	0.260
2020/01/31 16:50:35.2	357.380	0.330	-0.450	0.220
2020/01/31 16:50:35.3	357.380	0.310	-0.480	0.180
2020/01/31 16:50:35.4	357.390	0.290	-0.510	0.140
2020/01/31 16:50:35.5	357.400	0.260	-0.540	0.090
2020/01/31 16:50:35.6	357.400	0.240	-0.570	0.050
2020/01/31 16:50:35.7	357.410	0.210	-0.590	0.000
2020/01/31 16:50:35.8	357.420	0.180	-0.620	-0.050
2020/01/31 16:50:35.9	357.430	0.150	-0.640	-0.100
2020/01/31 16:50:36.0	357.440	0.110	-0.660	-0.150
2020/01/31 16:50:36.1	357.440	0.080	-0.670	-0.190
2020/01/31 16:50:36.2	357.450	0.050	-0.680	-0.240
2020/01/31 16:50:36.3	357.450	0.010	-0.690	-0.290
2020/01/31 16:50:36.4	357.460	-0.020	-0.700	-0.340
2020/01/31 16:50:36.5	357.460	-0.060	-0.700	-0.390
2020/01/31 16:50:36.6	357.470	-0.090	-0.700	-0.440
2020/01/31 16:50:36.7	357.470	-0.130	-0.700	-0.480
2020/01/31 16:50:36.8	357.480	-0.160	-0.690	-0.530
2020/01/31 16:50:36.9	357.490	-0.190	-0.680	-0.570
2020/01/31 16:50:37.0	357.500	-0.220	-0.670	-0.610
2020/01/31 16:50:37.1	357.500	-0.250	-0.660	-0.650
2020/01/31 16:50:37.2	357.510	-0.270	-0.640	-0.690
2020/01/31 16:50:37.3	357.520	-0.290	-0.620	-0.720
2020/01/31 16:50:37.4	357.530	-0.310	-0.600	-0.750
2020/01/31 16:50:37.5	357.530	-0.330	-0.580	-0.780
2020/01/31 16:50:37.6	357.540	-0.350	-0.560	-0.810
2020/01/31 16:50:37.7	357.550	-0.360	-0.530	-0.830
2020/01/31 16:50:37.8	357.560	-0.370	-0.500	-0.860
2020/01/31 16:50:37.9	357.570	-0.380	-0.480	-0.870
2020/01/31 16:50:38.0	357.580	-0.380	-0.450	-0.890
2020/01/31 16:50:38.1	357.590	-0.380	-0.420	-0.900
2020/01/31 16:50:38.2	357.600	-0.380	-0.390	-0.900
2020/01/31 16:50:38.3	357.610	-0.370	-0.360	-0.900
2020/01/31 16:50:38.4	357.620	-0.360	-0.330	-0.900
2020/01/31 16:50:38.5	357.620	-0.350	-0.300	-0.900
2020/01/31 16:50:38.6	357.630	-0.340	-0.270	-0.890
2020/01/31 16:50:38.7	357.640	-0.320	-0.250	-0.870
2020/01/31 16:50:38.8	357.650	-0.300	-0.220	-0.850
2020/01/31 16:50:38.9	357.660	-0.280	-0.190	-0.830
2020/01/31 16:50:39.0	357.660	-0.250	-0.170	-0.800
2020/01/31 16:50:39.1	357.660	-0.230	-0.150	-0.780
2020/01/31 16:50:39.2	357.670	-0.200	-0.130	-0.740
2020/01/31 16:50:39.3	357.670	-0.170	-0.120	-0.710
2020/01/31 16:50:39.4	357.670	-0.140	-0.110	-0.670
2020/01/31 16:50:39.5	357.680	-0.100	-0.100	-0.630
2020/01/31 16:50:39.6	357.680	-0.070	-0.100	-0.600
2020/01/31 16:50:39.7	357.680	-0.030	-0.100	-0.560
2020/01/31 16:50:39.8	357.680	0.000	-0.100	-0.520
2020/01/31 16:50:39.9	357.690	0.040	-0.110	-0.480
2020/01/31 16:50:40.0	357.690	0.070	-0.120	-0.450
2020/01/31 16:50:40.1	357.700	0.110	-0.130	-0.410
2020/01/31 16:50:40.2	357.700	0.140	-0.150	-0.380
2020/01/31 16:50:40.3	357.710	0.170	-0.170	-0.350
2020/01/31 16:50:40.4	357.720	0.210	-0.190	-0.330
2020/01/31 16:50:40.5	357.730	0.240	-0.220	-0.310
2020/01/31 16:50:40.6	357.740	0.270	-0.250	-0.290
2020/01/31 16:50:40.7	357.760	0.290	-0.280	-0.270
2020/01/31 16:50:40.8	357.760	0.320	-0.310	-0.260
2020/01/31 16:50:40.9	357.780	0.340	-0.340	-0.250
2020/01/31 16:50:41.0	357.790	0.360	-0.380	-0.240
2020/01/31 16:50:41.1	357.810	0.380	-0.420	-0.240
2020/01/31 16:50:41.2	357.820	0.390	-0.450	-0.230
2020/01/31 16:50:41.3	357.840	0.400	-0.490	-0.230
2020/01/31 16:50:41.4	357.850	0.410	-0.520	-0.230
2020/01/31 16:50:41.5	357.860	0.410	-0.550	-0.230
2020/01/31 16:50:41.6	357.880	0.420	-0.580	-0.230
2020/01/31 16:50:41.7	357.890	0.410	-0.610	-0.230
2020/01/31 16:50:41.8	357.910	0.410	-0.630	-0.230
2020/01/31 16:50:41.9	357.920	0.400	-0.650	-0.230
2020/01/31 16:50:42.0	357.930	0.390	-0.670	-0.230
2020/01/31 16:50:42.1	357.940	0.370	-0.680	-0.230
2020/01/31 16:50:42.2	357.940	0.360	-0.690	-0.240
2020/01/31 16:50:42.3	357.950	0.340	-0.700	-0.240
2020/01/31 16:50:42.4	357.950	0.310	-0.700	-0.240
2020/01/31 16:50:42.5	357.950	0.290	-0.690	-0.240
2020/01/31 16:50:42.6	357.950	0.260	-0.680	-0.250
2020/01/31 16:50:42.7	357.950	0.220	-0.660	-0.250
2020/01/31 16:50:42.8	357.950	0.190	-0.640	-0.250
2020/01/31 16:50:42.9	357.940	0.160	-0.620	-0.250
2020/01/31 16:50:43.0	357.930	0.120	-0.590	-0.260
2020/01/31 16:50:43.1	357.920	0.080	-0.560	-0.260
2020/01/31 16:50:43.2	357.910	0.040	-0.520	-0.260
2020/01/31 16:50:43.3	357.900	0.010	-0.480	-0.260
2020/01/31 16:50:43.4	357.880	-0.030	-0.430	-0.260
2020/01/31 16:50:43.5	357.860	-0.070	-0.390	-0.260
2020/01/31 16:50:43.6	357.840	-0.110	-0.340	-0.260
2020/01/31 16:50:43.7	357.820	-0.140	-0.280	-0.260
2020/01/31 16:50:43.8	357.800	-0.180	-0.230	-0.260
2020/01/31 16:50:43.9	357.780	-0.210	-0.170	-0.250
2020/01/31 16:50:44.0	357.750	-0.240	-0.120	-0.250
2020/01/31 16:50:44.1	357.730	-0.270	-0.070	-0.240
2020/01/31 16:50:44.2	357.700	-0.290	-0.010	-0.240
2020/01/31 16:50:44.3	357.680	-0.310	0.040	-0.240
2020/01/31 16:50:44.4	357.650	-0.330	0.090	-0.240
2020/01/31 16:50:44.5	357.630	-0.350	0.130	-0.240
2020/01/31 16:50:44.6	357.610	-0.360	0.170	-0.240
2020/01/31 16:50:44.7	357.590	-0.370	0.210	-0.240
2020/01/31 16:50:44.8	357.560	-0.380	0.240	-0.240
2020/01/31 16:50:44.9	357.540	-0.380	0.280	-0.240
2020/01/31 16:50:45.0	357.520	-0.380	0.300	-0.250
2020/01/31 16:50:45.1	357.510	-0.380	0.320	-0.260
2020/01/31 16:50:45.2	357.490	-0.370	0.340	-0.260
2020/01/31 16:50:45.3	357.480	-0.360	0.350	-0.270
2020/01/31 16:50:45.4	357.470	-0.340	0.360	-0.280
2020/01/31 16:50:45.5	357.460	-0.320	0.360	-0.280
2020/01/31 16:50:45.6	357.450	-0.300	0.360	-0.290
2020/01/31 16:50:45.7	357.440	-0.280	0.360	-0.300
2020/01/31 16:50:45.8	357.430	-0.260	0.350	-0.300
2020/01/31 16:50:45.9	357.420	-0.230	0.340	-0.300
2020/01/31 16:50:46.0	357.420	-0.200	0.320	-0.310
2020/01/31 16:50:46.1	357.410	-0.170	0.310	-0.310
2020/01/31 16:50:46.2	357.400	-0.140	0.290	-0.300
2020/01/31 16:50:46.3	357.400	-0.110	0.270	-0.300
2020/01/31 16:50:46.4	357.390	-0.080	0.250	-0.290
2020/01/31 16:50:46.5	357.390	-0.050	0.220	-0.280
2020/01/31 16:50:46.6	357.380	-0.030	0.200	-0.270
2020/01/31 16:50:46.7	357.380	0.000	0.170	-0.260
2020/01/31 16:50:46.8	357.370	0.030	0.140	-0.240
2020/01/31 16:50:46.9	357.370	0.050	0.110	-0.230
2020/01/31 16:50:47.0	357.370	0.080	0.090	-0.210
2020/01/31 16:50:47.1	357.370	0.100	0.060	-0.190
2020/01/31 16:50:47.2	357.380	0.120	0.030	-0.180
2020/01/31 16:50:47.3	357.380	0.130	-0.000	-0.160
2020/01/31 16:50:47.4	357.390	0.150	-0.030	-0.140
2020/01/31 16:50:47.5	357.390	0.160	-0.060	-0.120
2020/01/31 16:50:47.6	357.400	0.170	-0.090	-0.110
2020/01/31 16:50:47.7	357.410	0.170	-0.120	-0.090
2020/01/31 16:50:47.8	357.410	0.180	-0.160	-0.080
2020/01/31 16:50:47.9	357.420	0.180	-0.180	-0.060
2020/01/31 16:50:48.0	357.430	0.170	-0.210	-0.050
2020/01/31 16:50:48.1	357.440	0.170	-0.240	-0.040
2020/01/31 16:50:48.2	357.450	0.160	-0.270	-0.030
2020/01/31 16:50:48.3	357.460	0.150	-0.300	-0.020
2020/01/31 16:50:48.4	357.470	0.140	-0.320	-0.020
2020/01/31 16:50:48.5	357.480	0.130	-0.350	-0.010
2020/01/31 16:50:48.6	357.500	0.110	-0.380	-0.010
2020/01/31 16:50:48.7	357.510	0.090	-0.400	-0.010
2020/01/31 16:50:48.8	357.530	0.080	-0.420	-0.010
2020/01/31 16:50:48.9	357.540	0.060	-0.440	-0.020
2020/01/31 16:50:49.0	357.560	0.040	-0.460	-0.030
2020/01/31 16:50:49.1	357.570	0.020	-0.480	-0.040
2020/01/31 16:50:49.2	357.590	-0.000	-0.490	-0.050
2020/01/31 16:50:49.3	357.600	-0.020	-0.510	-0.060
2020/01/31 16:50:49.4	357.620	-0.040	-0.520	-0.070
2020/01/31 16:50:49.5	357.640	-0.060	-0.530	-0.090
2020/01/31 16:50:49.6	357.650	-0.080	-0.540	-0.110
2020/01/31 16:50:49.7	357.670	-0.100	-0.550	-0.120
2020/01/31 16:50:49.8	357.670	-0.120	-0.560	-0.140
2020/01/31 16:50:49.9	357.690	-0.130	-0.560	-0.160
2020/01/31 16:50:50.0	357.700	-0.150	-0.560	-0.180
2020/01/31 16:50:50.1	357.720	-0.160	-0.560	-0.200
2020/01/31 16:50:50.2	357.730	-0.170	-0.560	-0.220
2020/01/31 16:50:50.3	357.740	-0.180	-0.560	-0.230
2020/01/31 16:50:50.4	357.760	-0.190	-0.550	-0.250
2020/01/31 16:50:50.5	357.770	-0.190	-0.550	-0.260
2020/01/31 16:50:50.6	357.780	-0.200	-0.540	-0.280
2020/01/31 16:50:50.7	357.790	-0.200	-0.530	-0.290
2020/01/31 16:50:50.8	357.780	-0.200	-0.520	-0.300
2020/01/31 16:50:50.9	357.790	-0.200	-0.510	-0.310
2020/01/31 16:50:51.0	357.800	-0.190	-0.500	-0.320
2020/01/31 16:50:51.1	357.800	-0.180	-0.490	-0.320
2020/01/31 16:50:51.2	357.810	-0.170	-0.480	-0.330
2020/01/31 16:50:51.3	357.810	-0.160	-0.470	-0.330
2020/01/31 16:50:51.4	357.810	-0.150	-0.460	-0.330
2020/01/31 16:50:51.5	357.810	-0.140	-0.450	-0.330
2020/01/31 16:50:51.6	357.800	-0.120	-0.440	-0.320
2020/01/31 16:50:51.7	357.800	-0.100	-0.430	-0.320
2020/01/31 16:50:51.8	357.800	-0.090	-0.420	-0.320
2020/01/31 16:50:51.9	357.790	-0.070	-0.410	-0.310
2020/01/31 16:50:52.0	357.780	-0.050	-0.400	-0.310
2020/01/31 16:50:52.1	357.770	-0.020	-0.390	-0.300
2020/01/31 16:50:52.2	357.760	0.000	-0.390	-0.300
2020/01/31 16:50:52.3	357.750	0.020	-0.390	-0.290
2020/01/31 16:50:52.4	357.740	0.050	-0.380	-0.280
2020/01/31 16:50:52.5	357.720	0.070	-0.380	-0.270
2020/01/31 16:50:52.6	357.710	0.100	-0.380	-0.270
2020/01/31 16:50:52.7	357.700	0.130	-0.380	-0.260
2020/01/31 16:50:52.8	357.690	0.150	-0.390	-0.250
2020/01/31 16:50:52.9	357.690	0.180	-0.390	-0.240
2020/01/31 16:50:53.0	357.680	0.200	-0.400	-0.230
2020/01/31 16:50:53.1	357.670	0.230	-0.410	-0.230
2020/01/31 16:50:53.2	357.670	0.260	-0.420	-0.220
2020/01/31 16:50:53.3	357.670	0.280	-0.430	-0.210
2020/01/31 16:50:53.4	357.680	0.310	-0.440	-0.200
2020/01/31 16:50:53.5	357.680	0.330	-0.460	-0.200
2020/01/31 16:50:53.6	357.690	0.360	-0.470	-0.200
2020/01/31 16:50:53.7	357.700	0.380	-0.490	-0.190
2020/01/31 16:50:53.8	357.730	0.400	-0.510	-0.190
2020/01/31 16:50:53.9	357.740	0.420	-0.520	-0.190
2020/01/31 16:50:54.0	357.760	0.440	-0.540	-0.190
2020/01/31 16:50:54.1	357.780	0.450	-0.550	-0.190
2020/01/31 16:50:54.2	357.800	0.460	-0.560	-0.190
2020/01/31 16:50:54.3	357.820	0.470	-0.570	-0.190
2020/01/31 16:50:54.4	357.840	0.480	-0.580	-0.190
2020/01/31 16:50:54.5	357.860	0.480	-0.580	-0.190
2020/01/31 16:50:54.6	357.880	0.490	-0.580	-0.190
2020/01/31 16:50:54.7	357.900	0.480	-0.570	-0.190
2020/01/31 16:50:54.8	357.910	0.480	-0.560	-0.190
2020/01/31 16:50:54.9	357.930	0.470	-0.550	-0.190
2020/01/31 16:50:55.0	357.940	0.460	-0.520	-0.180
2020/01/31 16:50:55.1	357.950	0.450	-0.500	-0.180
2020/01/31 16:50:55.2	357.960	0.430	-0.460	-0.170
2020/01/31 16:50:55.3	357.970	0.410	-0.420	-0.160
2020/01/31 16:50:55.4	357.970	0.390	-0.380	-0.150
2020/01/31 16:50:55.5	357.970	0.360	-0.330	-0.140
2020/01/31 16:50:55.6	357.970	0.330	-0.270	-0.120
2020/01/31 16:50:55.7	357.960	0.300	-0.210	-0.090
2020/01/31 16:50:55.8	357.960	0.270	-0.140	-0.070
2020/01/31 16:50:55.9	357.950	0.240	-0.080	-0.040
2020/01/31 16:50:56.0	357.940	0.210	-0.000	-0.010
2020/01/31 16:50:56.1	357.920	0.170	0.070	0.020
2020/01/31 16:50:56.2	357.900	0.130	0.150	0.060
2020/01/31 16:50:56.3	357.880	0.090	0.230	0.090
2020/01/31 16:50:56.4	357.860	0.060	0.300	0.130
2020/01/31 16:50:56.5	357.840	0.020	0.370	0.160
2020/01/31 16:50:56.6	357.820	-0.020	0.440	0.200
2020/01/31 16:50:56.7	357.790	-0.060	0.510	0.230
2020/01/31 16:50:56.8	357.770	-0.100	0.570	0.270
2020/01/31 16:50:56.9	357.740	-0.130	0.620	0.300
2020/01/31 16:50:57.0	357.720	-0.160	0.670	0.320
2020/01/31 16:50:57.1	357.700	-0.200	0.710	0.340
2020/01/31 16:50:57.2	357.690	-0.230	0.750	0.360
2020/01/31 16:50:57.3	357.670	-0.260	0.770	0.380
2020/01/31 16:50:57.4	357.650	-0.280	0.780	0.390
2020/01/31 16:50:57.5	357.640	-0.310	0.790	0.390
2020/01/31 16:50:57.6	357.620	-0.330	0.780	0.400
2020/01/31 16:50:57.7	357.610	-0.340	0.770	0.400
2020/01/31 16:50:57.8	357.600	-0.360	0.740	0.390
2020/01/31 16:50:57.9	357.580	-0.370	0.710	0.380
2020/01/31 16:50:58.0	357.570	-0.380	0.670	0.380
2020/01/31 16:50:58.1	357.560	-0.390	0.620	0.370
2020/01/31 16:50:58.2	357.540	-0.390	0.560	0.350
2020/01/31 16:50:58.3	357.530	-0.390	0.500	0.340
2020/01/31 16:50:58.4	357.520	-0.390	0.430	0.320
2020/01/31 16:50:58.5	357.500	-0.390	0.350	0.300
2020/01/31 16:50:58.6	357.490	-0.380	0.270	0.270
2020/01/31 16:50:58.7	357.480	-0.370	0.180	0.240
2020/01/31 16:50:58.8	357.480	-0.360	0.080	0.210
2020/01/31 16:50:58.9	357.470	-0.350	-0.010	0.170
2020/01/31 16:50:59.0	357.470	-0.340	-0.110	0.130
2020/01/31 16:50:59.1	357.470	-0.320	-0.210	0.080
2020/01/31 16:50:59.2	357.470	-0.300	-0.310	0.040
2020/01/31 16:50:59.3	357.480	-0.280	-0.420	-0.010
2020/01/31 16:50:59.4	357.480	-0.260	-0.520	-0.070
2020/01/31 16:50:59.5	357.490	-0.240	-0.620	-0.120
2020/01/31 16:50:59.6	357.500	-0.220	-0.710	-0.180
2020/01/31 16:50:59.7	357.520	-0.200	-0.800	-0.230
2020/01/31 16:50:59.8	357.540	-0.170	-0.890	-0.290
2020/01/31 16:50:59.9	357.560	-0.150	-0.970	-0.350
2020/01/31 16:51:00.0	357.580	-0.130	-1.050	-0.410
2020/01/31 16:51:00.1	357.610	-0.110	-1.110	-0.460
2020/01/31 16:51:00.2	357.630	-0.080	-1.170	-0.520
2020/01/31 16:51:00.3	357.650	-0.060	-1.230	-0.570
2020/01/31 16:51:00.4	357.680	-0.050	-1.270	-0.620
2020/01/31 16:51:00.5	357.700	-0.030	-1.300	-0.660
2020/01/31 16:51:00.6	357.730	-0.010	-1.320	-0.700
2020/01/31 16:51:00.7	357.750	-0.000	-1.340	-0.740
2020/01/31 16:51:00.8	357.770	0.010	-1.340	-0.780
2020/01/31 16:51:00.9	357.790	0.020	-1.330	-0.810
2020/01/31 16:51:01.0	357.820	0.030	-1.320	-0.830
2020/01/31 16:51:01.1	357.840	0.030	-1.290	-0.860
2020/01/31 16:51:01.2	357.870	0.030	-1.260	-0.870
2020/01/31 16:51:01.3	357.890	0.030	-1.220	-0.890
2020/01/31 16:51:01.4	357.910	0.030	-1.170	-0.900
2020/01/31 16:51:01.5	357.940	0.030	-1.120	-0.900
2020/01/31 16:51:01.6	357.960	0.020	-1.060	-0.900
2020/01/31 16:51:01.7	357.990	0.020	-1.000	-0.900
2020/01/31 16:51:01.8	358.020	0.010	-0.930	-0.900
2020/01/31 16:51:01.9	358.050	-0.000	-0.860	-0.900
2020/01/31 16:51:02.0	358.080	-0.020	-0.790	-0.890
2020/01/31 16:51:02.1	358.110	-0.030	-0.720	-0.880
2020/01/31 16:51:02.2	358.130	-0.040	-0.650	-0.870
2020/01/31 16:51:02.3	358.160	-0.060	-0.580	-0.860
2020/01/31 16:51:02.4	358.190	-0.070	-0.510	-0.850
2020/01/31 16:51:02.5	358.220	-0.090	-0.450	-0.840
2020/01/31 16:51:02.6	358.250	-0.100	-0.380	-0.830
2020/01/31 16:51:02.7	358.270	-0.120	-0.320	-0.820
2020/01/31 16:51:02.8	358.300	-0.130	-0.260	-0.800
2020/01/31 16:51:02.9	358.320	-0.150	-0.200	-0.780
2020/01/31 16:51:03.0	358.340	-0.160	-0.140	-0.760
2020/01/31 16:51:03.1	358.360	-0.170	-0.090	-0.730
2020/01/31 16:51:03.2	358.370	-0.180	-0.040	-0.710
2020/01/31 16:51:03.3	358.380	-0.190	0.000	-0.680
2020/01/31 16:51:03.4	358.390	-0.190	0.050	-0.640
2020/01/31 16:51:03.5	358.390	-0.200	0.090	-0.610
2020/01/31 16:51:03.6	358.390	-0.200	0.130	-0.570
2020/01/31 16:51:03.7	358.390	-0.200	0.160	-0.520
2020/01/31 16:51:03.8	358.370	-0.200	0.200	-0.480
2020/01/31 16:51:03.9	358.360	-0.200	0.230	-0.430
2020/01/31 16:51:04.0	358.350	-0.200	0.260	-0.370
2020/01/31 16:51:04.1	358.340	-0.190	0.280	-0.320
2020/01/31 16:51:04.2	358.320	-0.180	0.310	-0.270
2020/01/31 16:51:04.3	358.300	-0.180	0.330	-0.210
2020/01/31 16:51:04.4	358.280	-0.170	0.350	-0.150
2020/01/31 16:51:04.5	358.250	-0.160	0.360	-0.100
2020/01/31 16:51:04.6	358.230	-0.140	0.380	-0.040
2020/01/31 16:51:04.7	358.200	-0.130	0.390	0.010
2020/01/31 16:51:04.8	358.160	-0.110	0.400	0.060
2020/01/31 16:51:04.9	358.130	-0.100	0.400	0.110
2020/01/31 16:51:05.0	358.100	-0.080	0.400	0.160
2020/01/31 16:51:05.1	358.070	-0.060	0.400	0.210
2020/01/31 16:51:05.2	358.040	-0.050	0.390	0.250
2020/01/31 16:51:05.3	358.010	-0.030	0.380	0.290
2020/01/31 16:51:05.4	357.980	-0.010	0.360	0.320
2020/01/31 16:51:05.5	357.950	0.010	0.340	0.350
2020/01/31 16:51:05.6	357.920	0.030	0.320	0.380
2020/01/31 16:51:05.7	357.890	0.050	0.300	0.400
2020/01/31 16:51:05.8	357.850	0.070	0.270	0.420
2020/01/31 16:51:05.9	357.820	0.090	0.240	0.440
2020/01/31 16:51:06.0	357.800	0.110	0.200	0.460
2020/01/31 16:51:06.1	357.770	0.130	0.160	0.470
2020/01/31 16:51:06.2	357.740	0.150	0.120	0.480
2020/01/31 16:51:06.3	357.710	0.170	0.080	0.490
2020/01/31 16:51:06.4	357.680	0.190	0.040	0.490
2020/01/31 16:51:06.5	357.650	0.200	-0.010	0.490
2020/01/31 16:51:06.6	357.630	0.220	-0.050	0.480
2020/01/31 16:51:06.7	357.600	0.240	-0.100	0.470
2020/01/31 16:51:06.8	357.570	0.250	-0.150	0.460
2020/01/31 16:51:06.9	357.550	0.270	-0.200	0.450
2020/01/31 16:51:07.0	357.530	0.280	-0.250	0.420
2020/01/31 16:51:07.1	357.520	0.290	-0.300	0.400
2020/01/31 16:51:07.2	357.510	0.300	-0.340	0.370
2020/01/31 16:51:07.3	357.500	0.320	-0.390	0.340
2020/01/31 16:51:07.4	357.490	0.330	-0.440	0.300
2020/01/31 16:51:07.5	357.490	0.340	-0.490	0.260
2020/01/31 16:51:07.6	357.490	0.350	-0.530	0.210
2020/01/31 16:51:07.7	357.490	0.350	-0.580	0.170
2020/01/31 16:51:07.8	357.520	0.360	-0.620	0.110
2020/01/31 16:51:07.9	357.530	0.370	-0.660	0.060
2020/01/31 16:51:08.0	357.540	0.370	-0.690	0.000
2020/01/31 16:51:08.1	357.550	0.380	-0.730	-0.050
2020/01/31 16:51:08.2	357.570	0.380	-0.760	-0.110
2020/01/31 16:51:08.3	357.590	0.390	-0.780	-0.170
2020/01/31 16:51:08.4	357.610	0.390	-0.810	-0.220
2020/01/31 16:51:08.5	357.630	0.390	-0.820	-0.280
2020/01/31 16:51:08.6	357.660	0.390	-0.840	-0.330
2020/01/31 16:51:08.7	357.680	0.390	-0.840	-0.380
2020/01/31 16:51:08.8	357.710	0.390	-0.850	-0.420
2020/01/31 16:51:08.9	357.730	0.380	-0.840	-0.470
2020/01/31 16:51:09.0	357.760	0.380	-0.830	-0.510
2020/01/31 16:51:09.1	357.790	0.370	-0.820	-0.540
2020/01/31 16:51:09.2	357.810	0.360	-0.800	-0.570
2020/01/31 16:51:09.3	357.840	0.350	-0.770	-0.600
2020/01/31 16:51:09.4	357.860	0.330	-0.740	-0.620
2020/01/31 16:51:09.5	357.880	0.320	-0.700	-0.630
2020/01/31 16:51:09.6	357.900	0.300	-0.650	-0.640
2020/01/31 16:51:09.7	357.920	0.280	-0.600	-0.650
2020/01/31 16:51:09.8	357.950	0.250	-0.540	-0.650
2020/01/31 16:51:09.9	357.960	0.230	-0.480	-0.650
2020/01/31 16:51:10.0	357.970	0.200	-0.420	-0.640
2020/01/31 16:51:10.1	357.980	0.170	-0.360	-0.630
2020/01/31 16:51:10.2	357.990	0.140	-0.290	-0.620
2020/01/31 16:51:10.3	358.000	0.110	-0.220	-0.600
2020/01/31 16:51:10.4	358.010	0.070	-0.150	-0.590
2020/01/31 16:51:10.5	358.010	0.040	-0.080	-0.570
2020/01/31 16:51:10.6	358.010	0.000	-0.020	-0.550
2020/01/31 16:51:10.7	358.020	-0.040	0.050	-0.530
2020/01/31 16:51:10.8	358.020	-0.070	0.110	-0.510
2020/01/31 16:51:10.9	358.020	-0.110	0.160	-0.490
2020/01/31 16:51:11.0	358.020	-0.150	0.220	-0.470
2020/01/31 16:51:11.1	358.020	-0.180	0.270	-0.450
2020/01/31 16:51:11.2	358.020	-0.220	0.310	-0.430
2020/01/31 16:51:11.3	358.020	-0.250	0.350	-0.410
2020/01/31 16:51:11.4	358.020	-0.280	0.380	-0.390
2020/01/31 16:51:11.5	358.020	-0.310	0.400	-0.380
2020/01/31 16:51:11.6	358.020	-0.340	0.420	-0.360
2020/01/31 16:51:11.7	358.020	-0.360	0.430	-0.350
2020/01/31 16:51:11.8	358.020	-0.390	0.430	-0.330
2020/01/31 16:51:11.9	358.020	-0.410	0.420	-0.320
2020/01/31 16:51:12.0	358.010	-0.430	0.410	-0.310
2020/01/31 16:51:12.1	358.010	-0.450	0.390	-0.300
2020/01/31 16:51:12.2	358.010	-0.460	0.370	-0.300
2020/01/31 16:51:12.3	358.010	-0.470	0.330	-0.290
2020/01/31 16:51:12.4	358.010	-0.480	0.290	-0.290
2020/01/31 16:51:12.5	358.000	-0.490	0.250	-0.290
2020/01/31 16:51:12.6	358.000	-0.500	0.190	-0.300
2020/01/31 16:51:12.7	358.000	-0.500	0.130	-0.310
2020/01/31 16:51:12.8	358.010	-0.500	0.070	-0.330
2020/01/31 16:51:12.9	358.010	-0.500	0.000	-0.340
2020/01/31 16:51:13.0	358.010	-0.500	-0.070	-0.360
2020/01/31 16:51:13.1	358.010	-0.500	-0.150	-0.390
2020/01/31 16:51:13.2	358.010	-0.490	-0.230	-0.420
2020/01/31 16:51:13.3	358.020	-0.480	-0.310	-0.450
2020/01/31 16:51:13.4	358.020	-0.470	-0.390	-0.490
2020/01/31 16:51:13.5	358.030	-0.460	-0.470	-0.520
2020/01/31 16:51:13.6	358.040	-0.450	-0.550	-0.560
2020/01/31 16:51:13.7	358.040	-0.430	-0.630	-0.600
2020/01/31 16:51:13.8	358.060	-0.420	-0.710	-0.650
2020/01/31 16:51:13.9	358.070	-0.400	-0.790	-0.690
2020/01/31 16:51:14.0	358.080	-0.380	-0.860	-0.730
2020/01/31 16:51:14.1	358.090	-0.370	-0.920	-0.770
2020/01/31 16:51:14.2	358.100	-0.350	-0.980	-0.810
2020/01/31 16:51:14.3	358.110	-0.330	-1.040	-0.850
2020/01/31 16:51:14.4	358.120	-0.310	-1.090	-0.880
2020/01/31 16:51:14.5	358.120	-0.290	-1.130	-0.910
2020/01/31 16:51:14.6	358.130	-0.260	-1.160	-0.940
2020/01/31 16:51:14.7	358.130	-0.240	-1.180	-0.960
2020/01/31 16:51:14.8	358.120	-0.220	-1.190	-0.990
2020/01/31 16:51:14.9	358.120	-0.200	-1.200	-1.010
2020/01/31 16:51:15.0	358.120	-0.180	-1.200	-1.020
2020/01/31 16:51:15.1	358.120	-0.160	-1.180	-1.030
2020/01/31 16:51:15.2	358.120	-0.140	-1.160	-1.040
2020/01/31 16:51:15.3	358.110	-0.120	-1.130	-1.040
2020/01/31 16:51:15.4	358.110	-0.100	-1.100	-1.040
2020/01/31 16:51:15.5	358.100	-0.080	-1.050	-1.040
2020/01/31 16:51:15.6	358.090	-0.060	-1.000	-1.030
2020/01/31 16:51:15.7	358.070	-0.050	-0.940	-1.020
2020/01/31 16:51:15.8	358.060	-0.030	-0.870	-1.000
2020/01/31 16:51:15.9	358.050	-0.010	-0.800	-0.980
2020/01/31 16:51:16.0	358.030	0.000	-0.720	-0.950
2020/01/31 16:51:16.1	358.010	0.020	-0.640	-0.920
2020/01/31 16:51:16.2	357.990	0.030	-0.550	-0.890
2020/01/31 16:51:16.3	357.970	0.050	-0.470	-0.850
2020/01/31 16:51:16.4	357.950	0.060	-0.380	-0.810
2020/01/31 16:51:16.5	357.940	0.080	-0.290	-0.770
2020/01/31 16:51:16.6	357.920	0.090	-0.210	-0.720
2020/01/31 16:51:16.7	357.900	0.110	-0.120	-0.680
2020/01/31 16:51:16.8	357.880	0.120	-0.040	-0.630
2020/01/31 16:51:16.9	357.870	0.140	0.030	-0.580
2020/01/31 16:51:17.0	357.850	0.160	0.110	-0.520
2020/01/31 16:51:17.1	357.830	0.170	0.180	-0.470
2020/01/31 16:51:17.2	357.810	0.190	0.240	-0.410
2020/01/31 16:51:17.3	357.790	0.210	0.300	-0.350
2020/01/31 16:51:17.4	357.780	0.230	0.360	-0.290
2020/01/31 16:51:17.5	357.760	0.250	0.410	-0.230
2020/01/31 16:51:17.6	357.740	0.270	0.450	-0.160
2020/01/31 16:51:17.7	357.720	0.290	0.490	-0.100
2020/01/31 16:51:17.8	357.710	0.310	0.520	-0.040
2020/01/31 16:51:17.9	357.690	0.330	0.540	0.030
2020/01/31 16:51:18.0	357.670	0.350	0.560	0.090
2020/01/31 16:51:18.1	357.660	0.370	0.570	0.150
2020/01/31 16:51:18.2	357.640	0.390	0.580	0.210
2020/01/31 16:51:18.3	357.620	0.410	0.580	0.270
2020/01/31 16:51:18.4	357.600	0.430	0.580	0.320
2020/01/31 16:51:18.5	357.580	0.450	0.570	0.380
2020/01/31 16:51:18.6	357.560	0.470	0.560	0.430
2020/01/31 16:51:18.7	357.540	0.480	0.540	0.480
2020/01/31 16:51:18.8	357.520	0.500	0.530	0.520
2020/01/31 16:51:18.9	357.510	0.510	0.500	0.570
2020/01/31 16:51:19.0	357.490	0.520	0.470	0.610
2020/01/31 16:51:19.1	357.470	0.530	0.440	0.640
2020/01/31 16:51:19.2	357.460	0.530	0.410	0.670
2020/01/31 16:51:19.3	357.450	0.530	0.370	0.700
2020/01/31 16:51:19.4	357.430	0.530	0.330	0.720
2020/01/31 16:51:19.5	357.420	0.530	0.290	0.740
2020/01/31 16:51:19.6	357.410	0.530	0.240	0.750
2020/01/31 16:51:19.7	357.410	0.520	0.190	0.760
2020/01/31 16:51:19.8	357.390	0.510	0.140	0.760
2020/01/31 16:51:19.9	357.390	0.490	0.090	0.750
2020/01/31 16:51:20.0	357.390	0.480	0.040	0.740
2020/01/31 16:51:20.1	357.390	0.460	-0.020	0.730
2020/01/31 16:51:20.2	357.390	0.430	-0.070	0.700
2020/01/31 16:51:20.3	357.390	0.410	-0.130	0.680
2020/01/31 16:51:20.4	357.390	0.380	-0.180	0.650
2020/01/31 16:51:20.5	357.400	0.350	-0.240	0.620
2020/01/31 16:51:20.6	357.410	0.320	-0.290	0.580
2020/01/31 16:51:20.7	357.410	0.290	-0.350	0.540
2020/01/31 16:51:20.8	357.420	0.260	-0.400	0.500
2020/01/31 16:51:20.9	357.430	0.220	-0.450	0.460
2020/01/31 16:51:21.0	357.440	0.180	-0.490	0.410
2020/01/31 16:51:21.1	357.450	0.140	-0.540	0.360
2020/01/31 16:51:21.2	357.460	0.100	-0.580	0.320
2020/01/31 16:51:21.3	357.460	0.060	-0.610	0.270
2020/01/31 16:51:21.4	357.470	0.020	-0.640	0.220
2020/01/31 16:51:21.5	357.480	-0.020	-0.670	0.160
2020/01/31 16:51:21.6	357.480	-0.060	-0.700	0.110
2020/01/31 16:51:21.7	357.490	-0.100	-0.720	0.060
2020/01/31 16:51:21.8	357.500	-0.140	-0.730	0.010
2020/01/31 16:51:21.9	357.500	-0.180	-0.740	-0.040
2020/01/31 16:51:22.0	357.500	-0.210	-0.740	-0.090
2020/01/31 16:51:22.1	357.500	-0.250	-0.750	-0.140
2020/01/31 16:51:22.2	357.490	-0.290	-0.740	-0.190
2020/01/31 16:51:22.3	357.490	-0.320	-0.740	-0.230
2020/01/31 16:51:22.4	357.490	-0.350	-0.730	-0.280
2020/01/31 16:51:22.5	357.480	-0.380	-0.720	-0.330
2020/01/31 16:51:22.6	357.470	-0.410	-0.700	-0.380
2020/01/31 16:51:22.7	357.470	-0.440	-0.680	-0.420
2020/01/31 16:51:22.8	357.470	-0.460	-0.670	-0.470
2020/01/31 16:51:22.9	357.460	-0.480	-0.640	-0.520
2020/01/31 16:51:23.0	357.450	-0.500	-0.620	-0.570
2020/01/31 16:51:23.1	357.450	-0.520	-0.600	-0.610
2020/01/31 16:51:23.2	357.450	-0.540	-0.580	-0.660
2020/01/31 16:51:23.3	357.450	-0.550	-0.560	-0.700
2020/01/31 16:51:23.4	357.450	-0.560	-0.540	-0.750
2020/01/31 16:51:23.5	357.450	-0.570	-0.520	-0.790
2020/01/31 16:51:23.6	357.450	-0.580	-0.500	-0.840
2020/01/31 16:51:23.7	357.460	-0.580	-0.490	-0.880
2020/01/31 16:51:23.8	357.470	-0.580	-0.470	-0.920
2020/01/31 16:51:23.9	357.480	-0.580	-0.460	-0.960
2020/01/31 16:51:24.0	357.500	-0.570	-0.450	-1.000
2020/01/31 16:51:24.1	357.510	-0.570	-0.440	-1.030
2020/01/31 16:51:24.2	357.530	-0.560	-0.440	-1.060
2020/01/31 16:51:24.3	357.540	-0.550	-0.440	-1.090
2020/01/31 16:51:24.4	357.560	-0.530	-0.430	-1.120
2020/01/31 16:51:24.5	357.580	-0.520	-0.430	-1.140
2020/01/31 16:51:24.6	357.600	-0.500	-0.430	-1.160
2020/01/31 16:51:24.7	357.630	-0.480	-0.440	-1.180
2020/01/31 16:51:24.8	357.650	-0.460	-0.440	-1.190
2020/01/31 16:51:24.9	357.680	-0.440	-0.440	-1.200
2020/01/31 16:51:25.0	357.700	-0.420	-0.450	-1.210
2020/01/31 16:51:25.1	357.730	-0.390	-0.450	-1.210
2020/01/31 16:51:25.2	357.760	-0.370	-0.450	-1.210
2020/01/31 16:51:25.3	357.790	-0.340	-0.460	-1.210
2020/01/31 16:51:25.4	357.820	-0.320	-0.460	-1.200
2020/01/31 16:51:25.5	357.850	-0.290	-0.460	-1.190
2020/01/31 16:51:25.6	357.880	-0.260	-0.460	-1.180
2020/01/31 16:51:25.7	357.910	-0.230	-0.450	-1.160
2020/01/31 16:51:25.8	357.950	-0.200	-0.450	-1.140
2020/01/31 16:51:25.9	357.980	-0.170	-0.440	-1.120
2020/01/31 16:51:26.0	358.020	-0.140	-0.440	-1.100
2020/01/31 16:51:26.1	358.050	-0.110	-0.430	-1.070
2020/01/31 16:51:26.2	358.080	-0.080	-0.420	-1.030
2020/01/31 16:51:26.3	358.100	-0.050	-0.400	-0.990
2020/01/31 16:51:26.4	358.130	-0.030	-0.380	-0.950
2020/01/31 16:51:26.5	358.150	0.000	-0.370	-0.900
2020/01/31 16:51:26.6	358.170	0.030	-0.340	-0.850
2020/01/31 16:51:26.7	358.180	0.060	-0.320	-0.790
2020/01/31 16:51:26.8	358.200	0.080	-0.290	-0.720
2020/01/31 16:51:26.9	358.200	0.100	-0.260	-0.660
2020/01/31 16:51:27.0	358.200	0.130	-0.230	-0.580
2020/01/31 16:51:27.1	358.200	0.150	-0.200	-0.510
2020/01/31 16:51:27.2	358.190	0.170	-0.170	-0.430
2020/01/31 16:51:27.3	358.180	0.190	-0.130	-0.350
2020/01/31 16:51:27.4	358.170	0.200	-0.100	-0.260
2020/01/31 16:51:27.5	358.140	0.220	-0.060	-0.180
2020/01/31 16:51:27.6	358.120	0.230	-0.030	-0.090
2020/01/31 16:51:27.7	358.090	0.250	0.010	0.000
2020/01/31 16:51:27.8	358.050	0.260	0.040	0.090
2020/01/31 16:51:27.9	358.010	0.270	0.070	0.180
2020/01/31 16:51:28.0	357.970	0.270	0.100	0.260
2020/01/31 16:51:28.1	357.930	0.280	0.130	0.350
2020/01/31 16:51:28.2	357.890	0.280	0.160	0.430
2020/01/31 16:51:28.3	357.840	0.290	0.180	0.500
2020/01/31 16:51:28.4	357.800	0.290	0.190	0.570
2020/01/31 16:51:28.5	357.750	0.290	0.210	0.640
2020/01/31 16:51:28.6	357.700	0.290	0.220	0.690
2020/01/31 16:51:28.7	357.660	0.290	0.230	0.750
2020/01/31 16:51:28.8	357.610	0.290	0.230	0.790
2020/01/31 16:51:28.9	357.560	0.280	0.230	0.830
2020/01/31 16:51:29.0	357.520	0.280	0.220	0.860
2020/01/31 16:51:29.1	357.480	0.270	0.210	0.880
2020/01/31 16:51:29.2	357.450	0.270	0.190	0.890
2020/01/31 16:51:29.3	357.410	0.270	0.170	0.900
2020/01/31 16:51:29.4	357.380	0.260	0.150	0.900
2020/01/31 16:51:29.5	357.350	0.260	0.120	0.900
2020/01/31 16:51:29.6	357.320	0.260	0.090	0.890
2020/01/31 16:51:29.7	357.300	0.250	0.050	0.870
2020/01/31 16:51:29.8	357.280	0.250	0.010	0.850
2020/01/31 16:51:29.9	357.260	0.250	-0.030	0.820
2020/01/31 16:51:30.0	357.250	0.250	-0.070	0.790
2020/01/31 16:51:30.1	357.230	0.250	-0.110	0.760
2020/01/31 16:51:30.2	357.220	0.250	-0.160	0.720
2020/01/31 16:51:30.3	357.210	0.250	-0.200	0.680
2020/01/31 16:51:30.4	357.210	0.250	-0.250	0.630
2020/01/31 16:51:30.5	357.210	0.260	-0.290	0.580
2020/01/31 16:51:30.6	357.210	0.260	-0.330	0.530
2020/01/31 16:51:30.7	357.210	0.260	-0.370	0.480
2020/01/31 16:51:30.8	357.220	0.270	-0.400	0.420
2020/01/31 16:51:30.9	357.230	0.270	-0.440	0.370
2020/01/31 16:51:31.0	357.230	0.280	-0.470	0.310
2020/01/31 16:51:31.1	357.250	0.280	-0.500	0.250
2020/01/31 16:51:31.2	357.260	0.290	-0.520	0.200
2020/01/31 16:51:31.3	357.270	0.290	-0.540	0.140
2020/01/31 16:51:31.4	357.290	0.290	-0.550	0.080
2020/01/31 16:51:31.5	357.310	0.300	-0.560	0.020
2020/01/31 16:51:31.6	357.320	0.300	-0.570	-0.030
2020/01/31 16:51:31.7	357.340	0.300	-0.570	-0.090
2020/01/31 16:51:31.8	357.350	0.300	-0.570	-0.150
2020/01/31 16:51:31.9	357.370	0.290	-0.570	-0.210
2020/01/31 16:51:32.0	357.390	0.290	-0.560	-0.260
2020/01/31 16:51:32.1	357.410	0.280	-0.550	-0.320
2020/01/31 16:51:32.2	357.430	0.270	-0.530	-0.370
2020/01/31 16:51:32.3	357.450	0.260	-0.510	-0.430
2020/01/31 16:51:32.4	357.470	0.250	-0.490	-0.480
2020/01/31 16:51:32.5	357.490	0.240	-0.470	-0.530
2020/01/31 16:51:32.6	357.510	0.220	-0.440	-0.580
2020/01/31 16:51:32.7	357.530	0.200	-0.420	-0.630
2020/01/31 16:51:32.8	357.530	0.180	-0.390	-0.680
2020/01/31 16:51:32.9	357.550	0.150	-0.360	-0.730
2020/01/31 16:51:33.0	357.570	0.130	-0.340	-0.770
2020/01/31 16:51:33.1	357.590	0.100	-0.310	-0.820
2020/01/31 16:51:33.2	357.610	0.070	-0.280	-0.860
2020/01/31 16:51:33.3	357.620	0.040	-0.260	-0.890
2020/01/31 16:51:33.4	357.640	0.010	-0.230	-0.930
2020/01/31 16:51:33.5	357.660	-0.020	-0.210	-0.960
2020/01/31 16:51:33.6	357.680	-0.050	-0.190	-0.990
2020/01/31 16:51:33.7	357.700	-0.080	-0.170	-1.010
2020/01/31 16:51:33.8	357.730	-0.110	-0.150	-1.030
2020/01/31 16:51:33.9	357.750	-0.140	-0.140	-1.050
2020/01/31 16:51:34.0	357.770	-0.180	-0.130	-1.070
2020/01/31 16:51:34.1	357.790	-0.210	-0.120	-1.080
2020/01/31 16:51:34.2	357.810	-0.230	-0.110	-1.090
2020/01/31 16:51:34.3	357.830	-0.260	-0.110	-1.100
2020/01/31 16:51:34.4	357.850	-0.290	-0.110	-1.110
2020/01/31 16:51:34.5	357.870	-0.310	-0.110	-1.110
2020/01/31 16:51:34.6	357.890	-0.330	-0.110	-1.110
2020/01/31 16:51:34.7	357.910	-0.350	-0.110	-1.100
2020/01/31 16:51:34.8	357.930	-0.360	-0.110	-1.100
2020/01/31 16:51:34.9	357.950	-0.380	-0.120	-1.090
2020/01/31 16:51:35.0	357.960	-0.390	-0.120	-1.080
2020/01/31 16:51:35.1	357.980	-0.390	-0.130	-1.070
2020/01/31 16:51:35.2	357.990	-0.400	-0.130	-1.050
2020/01/31 16:51:35.3	358.000	-0.400	-0.140	-1.030
2020/01/31 16:51:35.4	358.010	-0.400	-0.140	-1.010
2020/01/31 16:51:35.5	358.010	-0.400	-0.150	-0.990
2020/01/31 16:51:35.6	358.010	-0.390	-0.150	-0.960
2020/01/31 16:51:35.7	358.020	-0.380	-0.150	-0.930
2020/01/31 16:51:35.8	358.030	-0.370	-0.160	-0.900
2020/01/31 16:51:35.9	358.020	-0.360	-0.160	-0.860
2020/01/31 16:51:36.0	358.020	-0.340	-0.160	-0.820
2020/01/31 16:51:36.1	358.010	-0.330	-0.160	-0.770
2020/01/31 16:51:36.2	358.000	-0.310	-0.150	-0.730
2020/01/31 16:51:36.3	357.980	-0.290	-0.150	-0.670
2020/01/31 16:51:36.4	357.970	-0.270	-0.140	-0.620
2020/01/31 16:51:36.5	357.950	-0.240	-0.140	-0.560
2020/01/31 16:51:36.6	357.930	-0.220	-0.130	-0.500
2020/01/31 16:51:36.7	357.910	-0.200	-0.130	-0.440
2020/01/31 16:51:36.8	357.890	-0.180	-0.120	-0.380
2020/01/31 16:51:36.9	357.870	-0.150	-0.120	-0.310
2020/01/31 16:51:37.0	357.840	-0.130	-0.110	-0.250
2020/01/31 16:51:37.1	357.820	-0.110	-0.110	-0.190
2020/01/31 16:51:37.2	357.800	-0.090	-0.110	-0.130
2020/01/31 16:51:37.3	357.770	-0.070	-0.110	-0.070
2020/01/31 16:51:37.4	357.750	-0.050	-0.110	-0.010
2020/01/31 16:51:37.5	357.730	-0.030	-0.110	0.050
2020/01/31 16:51:37.6	357.710	-0.020	-0.110	0.100
2020/01/31 16:51:37.7	357.690	-0.000	-0.110	0.150
2020/01/31 16:51:37.8	357.670	0.010	-0.120	0.190
2020/01/31 16:51:37.9	357.650	0.020	-0.130	0.240
2020/01/31 16:51:38.0	357.640	0.030	-0.140	0.270
2020/01/31 16:51:38.1	357.620	0.040	-0.150	0.300
2020/01/31 16:51:38.2	357.610	0.050	-0.160	0.330
2020/01/31 16:51:38.3	357.600	0.060	-0.180	0.350
2020/01/31 16:51:38.4	357.590	0.060	-0.200	0.370
2020/01/31 16:51:38.5	357.580	0.060	-0.210	0.380
2020/01/31 16:51:38.6	357.570	0.070	-0.230	0.390
2020/01/31 16:51:38.7	357.570	0.070	-0.260	0.400
2020/01/31 16:51:38.8	357.570	0.070	-0.270	0.400
2020/01/31 16:51:38.9	357.570	0.060	-0.300	0.390
2020/01/31 16:51:39.0	357.570	0.060	-0.320	0.390
2020/01/31 16:51:39.1	357.570	0.060	-0.350	0.380
2020/01/31 16:51:39.2	357.570	0.050	-0.370	0.370
2020/01/31 16:51:39.3	357.570	0.050	-0.400	0.350
2020/01/31 16:51:39.4	357.570	0.040	-0.420	0.340
2020/01/31 16:51:39.5	357.570	0.030	-0.450	0.320
2020/01/31 16:51:39.6	357.570	0.020	-0.470	0.310
2020/01/31 16:51:39.7	357.560	0.010	-0.490	0.290
2020/01/31 16:51:39.8	357.540	-0.000	-0.510	0.270
2020/01/31 16:51:39.9	357.530	-0.020	-0.530	0.240
2020/01/31 16:51:40.0	357.520	-0.030	-0.550	0.220
2020/01/31 16:51:40.1	357.510	-0.040	-0.560	0.190
2020/01/31 16:51:40.2	357.500	-0.060	-0.580	0.160
2020/01/31 16:51:40.3	357.490	-0.070	-0.590	0.130
2020/01/31 16:51:40.4	357.480	-0.080	-0.600	0.090
2020/01/31 16:51:40.5	357.470	-0.100	-0.610	0.050
2020/01/31 16:51:40.6	357.460	-0.110	-0.620	0.010
2020/01/31 16:51:40.7	357.450	-0.120	-0.630	-0.030
2020/01/31 16:51:40.8	357.430	-0.130	-0.630	-0.080
2020/01/31 16:51:40.9	357.420	-0.140	-0.640	-0.120
2020/01/31 16:51:41.0	357.420	-0.150	-0.650	-0.170
2020/01/31 16:51:41.1	357.420	-0.150	-0.650	-0.220
2020/01/31 16:51:41.2	357.420	-0.160	-0.660	-0.270
2020/01/31 16:51:41.3	357.420	-0.160	-0.660	-0.330
2020/01/31 16:51:41.4	357.430	-0.150	-0.670	-0.380
2020/01/31 16:51:41.5	357.440	-0.150	-0.670	-0.430
2020/01/31 16:51:41.6	357.450	-0.140	-0.680	-0.480
2020/01/31 16:51:41.7	357.470	-0.130	-0.680	-0.540
2020/01/31 16:51:41.8	357.500	-0.110	-0.690	-0.590
2020/01/31 16:51:41.9	357.520	-0.090	-0.690	-0.640
2020/01/31 16:51:42.0	357.550	-0.070	-0.690	-0.690
2020/01/31 16:51:42.1	357.580	-0.050	-0.690	-0.730
2020/01/31 16:51:42.2	357.610	-0.020	-0.690	-0.780
2020/01/31 16:51:42.3	357.640	0.010	-0.680	-0.810
2020/01/31 16:51:42.4	357.670	0.040	-0.680	-0.840
2020/01/31 16:51:42.5	357.700	0.070	-0.660	-0.870
2020/01/31 16:51:42.6	357.730	0.110	-0.650	-0.890
2020/01/31 16:51:42.7	357.760	0.140	-0.630	-0.900
2020/01/31 16:51:42.8	357.800	0.180	-0.600	-0.900
2020/01/31 16:51:42.9	357.820	0.210	-0.560	-0.900
2020/01/31 16:51:43.0	357.830	0.240	-0.530	-0.880
2020/01/31 16:51:43.1	357.850	0.270	-0.480	-0.870
2020/01/31 16:51:43.2	357.850	0.300	-0.440	-0.840
2020/01/31 16:51:43.3	357.860	0.330	-0.380	-0.810
2020/01/31 16:51:43.4	357.860	0.350	-0.320	-0.780
2020/01/31 16:51:43.5	357.860	0.380	-0.260	-0.740
2020/01/31 16:51:43.6	357.850	0.390	-0.200	-0.700
2020/01/31 16:51:43.7	357.840	0.410	-0.130	-0.650
2020/01/31 16:51:43.8	357.840	0.420	-0.060	-0.600
2020/01/31 16:51:43.9	357.830	0.430	0.010	-0.550
2020/01/31 16:51:44.0	357.810	0.430	0.080	-0.500
2020/01/31 16:51:44.1	357.790	0.430	0.150	-0.440
2020/01/31 16:51:44.2	357.770	0.430	0.220	-0.390
2020/01/31 16:51:44.3	357.740	0.420	0.290	-0.340
2020/01/31 16:51:44.4	357.720	0.400	0.350	-0.280
2020/01/31 16:51:44.5	357.700	0.390	0.410	-0.230
2020/01/31 16:51:44.6	357.670	0.370	0.470	-0.180
2020/01/31 16:51:44.7	357.650	0.350	0.520	-0.140
2020/01/31 16:51:44.8	357.620	0.320	0.560	-0.090
2020/01/31 16:51:44.9	357.600	0.300	0.600	-0.050
2020/01/31 16:51:45.0	357.580	0.270	0.630	-0.010
2020/01/31 16:51:45.1	357.570	0.230	0.650	0.020
2020/01/31 16:51:45.2	357.550	0.200	0.660	0.050
2020/01/31 16:51:45.3	357.540	0.170	0.670	0.070
2020/01/31 16:51:45.4	357.530	0.130	0.670	0.090
2020/01/31 16:51:45.5	357.530	0.090	0.650	0.110
2020/01/31 16:51:45.6	357.530	0.060	0.630	0.110
2020/01/31 16:51:45.7	357.530	0.020	0.600	0.110
2020/01/31 16:51:45.8	357.530	-0.020	0.560	0.110
2020/01/31 16:51:45.9	357.540	-0.050	0.520	0.090
2020/01/31 16:51:46.0	357.550	-0.090	0.460	0.070
2020/01/31 16:51:46.1	357.560	-0.120	0.400	0.050
2020/01/31 16:51:46.2	357.580	-0.150	0.330	0.020
2020/01/31 16:51:46.3	357.590	-0.180	0.260	-0.020
2020/01/31 16:51:46.4	357.610	-0.210	0.180	-0.050
2020/01/31 16:51:46.5	357.640	-0.240	0.100	-0.100
2020/01/31 16:51:46.6	357.660	-0.260	0.020	-0.140
2020/01/31 16:51:46.7	357.680	-0.280	-0.070	-0.190
2020/01/31 16:51:46.8	357.700	-0.310	-0.160	-0.240
2020/01/31 16:51:46.9	357.720	-0.320	-0.240	-0.290
2020/01/31 16:51:47.0	357.740	-0.340	-0.330	-0.340
2020/01/31 16:51:47.1	357.760	-0.350	-0.410	-0.380
2020/01/31 16:51:47.2	357.780	-0.360	-0.490	-0.430
2020/01/31 16:51:47.3	357.800	-0.370	-0.560	-0.470
2020/01/31 16:51:47.4	357.810	-0.380	-0.630	-0.510
2020/01/31 16:51:47.5	357.820	-0.380	-0.690	-0.550
2020/01/31 16:51:47.6	357.830	-0.380	-0.740	-0.580
2020/01/31 16:51:47.7	357.840	-0.380	-0.790	-0.610
2020/01/31 16:51:47.8	357.840	-0.370	-0.830	-0.630
2020/01/31 16:51:47.9	357.840	-0.370	-0.860	-0.650
2020/01/31 16:51:48.0	357.840	-0.360	-0.880	-0.660
2020/01/31 16:51:48.1	357.830	-0.350	-0.890	-0.660
2020/01/31 16:51:48.2	357.820	-0.330	-0.890	-0.660
2020/01/31 16:51:48.3	357.800	-0.320	-0.890	-0.650
2020/01/31 16:51:48.4	357.780	-0.300	-0.880	-0.640
2020/01/31 16:51:48.5	357.760	-0.280	-0.860	-0.620
2020/01/31 16:51:48.6	357.740	-0.260	-0.830	-0.600
2020/01/31 16:51:48.7	357.720	-0.230	-0.800	-0.570
2020/01/31 16:51:48.8	357.700	-0.210	-0.770	-0.530
2020/01/31 16:51:48.9	357.680	-0.180	-0.730	-0.500
2020/01/31 16:51:49.0	357.650	-0.150	-0.680	-0.460
2020/01/31 16:51:49.1	357.620	-0.120	-0.640	-0.420
2020/01/31 16:51:49.2	357.600	-0.090	-0.590	-0.380
2020/01/31 16:51:49.3	357.570	-0.060	-0.540	-0.340
2020/01/31 16:51:49.4	357.550	-0.030	-0.500	-0.290
2020/01/31 16:51:49.5	357.530	0.010	-0.450	-0.250
2020/01/31 16:51:49.6	357.500	0.040	-0.410	-0.200
2020/01/31 16:51:49.7	357.480	0.080	-0.370	-0.160
2020/01/31 16:51:49.8	357.460	0.110	-0.330	-0.120
2020/01/31 16:51:49.9	357.440	0.150	-0.290	-0.070
2020/01/31 16:51:50.0	357.420	0.180	-0.260	-0.030
2020/01/31 16:51:50.1	357.400	0.220	-0.230	0.000
2020/01/31 16:51:50.2	357.380	0.250	-0.200	0.040
2020/01/31 16:51:50.3	357.370	0.280	-0.180	0.080
2020/01/31 16:51:50.4	357.350	0.310	-0.160	0.110
2020/01/31 16:51:50.5	357.340	0.340	-0.150	0.130
2020/01/31 16:51:50.6	357.320	0.370	-0.130	0.160
2020/01/31 16:51:50.7	357.310	0.390	-0.130	0.180
2020/01/31 16:51:50.8	357.290	0.410	-0.130	0.200
2020/01/31 16:51:50.9	357.280	0.430	-0.130	0.210
2020/01/31 16:51:51.0	357.270	0.450	-0.130	0.220
2020/01/31 16:51:51.1	357.260	0.460	-0.140	0.230
2020/01/31 16:51:51.2	357.250	0.470	-0.150	0.240
2020/01/31 16:51:51.3	357.240	0.470	-0.160	0.240
2020/01/31 16:51:51.4	357.230	0.480	-0.180	0.240
2020/01/31 16:51:51.5	357.220	0.470	-0.200	0.230
2020/01/31 16:51:51.6	357.210	0.470	-0.220	0.220
2020/01/31 16:51:51.7	357.210	0.460	-0.240	0.210
2020/01/31 16:51:51.8	357.210	0.450	-0.260	0.190
2020/01/31 16:51:51.9	357.210	0.440	-0.290	0.170
2020/01/31 16:51:52.0	357.220	0.420	-0.310	0.150
2020/01/31 16:51:52.1	357.220	0.400	-0.340	0.120
2020/01/31 16:51:52.2	357.230	0.380	-0.370	0.090
2020/01/31 16:51:52.3	357.250	0.350	-0.400	0.060
2020/01/31 16:51:52.4	357.270	0.330	-0.430	0.020
2020/01/31 16:51:52.5	357.290	0.300	-0.460	-0.010
2020/01/31 16:51:52.6	357.310	0.270	-0.480	-0.050
2020/01/31 16:51:52.7	357.340	0.240	-0.510	-0.100
2020/01/31 16:51:52.8	357.350	0.210	-0.540	-0.150
2020/01/31 16:51:52.9	357.380	0.180	-0.560	-0.200
2020/01/31 16:51:53.0	357.420	0.140	-0.580	-0.250
2020/01/31 16:51:53.1	357.450	0.110	-0.600	-0.300
2020/01/31 16:51:53.2	357.490	0.080	-0.620	-0.350
2020/01/31 16:51:53.3	357.530	0.040	-0.630	-0.400
2020/01/31 16:51:53.4	357.570	0.010	-0.640	-0.450
2020/01/31 16:51:53.5	357.600	-0.020	-0.640	-0.510
2020/01/31 16:51:53.6	357.640	-0.060	-0.640	-0.560
2020/01/31 16:51:53.7	357.680	-0.090	-0.640	-0.600
2020/01/31 16:51:53.8	357.720	-0.120	-0.630	-0.650
2020/01/31 16:51:53.9	357.750	-0.150	-0.610	-0.700
2020/01/31 16:51:54.0	357.770	-0.180	-0.590	-0.740
2020/01/31 16:51:54.1	357.800	-0.210	-0.560	-0.780
2020/01/31 16:51:54.2	357.820	-0.240	-0.520	-0.810
2020/01/31 16:51:54.3	357.840	-0.270	-0.480	-0.840
2020/01/31 16:51:54.4	357.850	-0.300	-0.440	-0.870
2020/01/31 16:51:54.5	357.870	-0.330	-0.390	-0.890
2020/01/31 16:51:54.6	357.880	-0.350	-0.340	-0.910
2020/01/31 16:51:54.7	357.880	-0.380	-0.280	-0.930
2020/01/31 16:51:54.8	357.900	-0.400	-0.220	-0.940
2020/01/31 16:51:54.9	357.900	-0.420	-0.160	-0.940
2020/01/31 16:51:55.0	357.910	-0.440	-0.100	-0.950
2020/01/31 16:51:55.1	357.910	-0.450	-0.040	-0.950
2020/01/31 16:51:55.2	357.900	-0.470	0.020	-0.940
2020/01/31 16:51:55.3	357.900	-0.480	0.080	-0.940
2020/01/31 16:51:55.4	357.900	-0.490	0.130	-0.930
2020/01/31 16:51:55.5	357.900	-0.500	0.180	-0.920
2020/01/31 16:51:55.6	357.890	-0.500	0.230	-0.900
2020/01/31 16:51:55.7	357.890	-0.510	0.280	-0.890
2020/01/31 16:51:55.8	357.890	-0.510	0.310	-0.870
2020/01/31 16:51:55.9	357.890	-0.500	0.350	-0.850
2020/01/31 16:51:56.0	357.880	-0.500	0.380	-0.830
2020/01/31 16:51:56.1	357.880	-0.490	0.400	-0.810
2020/01/31 16:51:56.2	357.880	-0.480	0.410	-0.790
2020/01/31 16:51:56.3	357.870	-0.470	0.430	-0.760
2020/01/31 16:51:56.4	357.870	-0.450	0.430	-0.740
2020/01/31 16:51:56.5	357.870	-0.440	0.430	-0.710
2020/01/31 16:51:56.6	357.860	-0.420	0.430	-0.680
2020/01/31 16:51:56.7	357.850	-0.390	0.420	-0.650
2020/01/31 16:51:56.8	357.850	-0.370	0.410	-0.620
2020/01/31 16:51:56.9	357.840	-0.350	0.390	-0.580
2020/01/31 16:51:57.0	357.830	-0.320	0.360	-0.550
2020/01/31 16:51:57.1	357.810	-0.290	0.340	-0.520
2020/01/31 16:51:57.2	357.800	-0.270	0.310	-0.480
2020/01/31 16:51:57.3	357.780	-0.240	0.270	-0.450
2020/01/31 16:51:57.4	357.770	-0.210	0.240	-0.410
2020/01/31 16:51:57.5	357.750	-0.180	0.200	-0.380
2020/01/31 16:51:57.6	357.730	-0.150	0.160	-0.350
2020/01/31 16:51:57.7	357.710	-0.120	0.120	-0.310
2020/01/31 16:51:57.8	357.700	-0.090	0.080	-0.280
2020/01/31 16:51:57.9	357.680	-0.060	0.040	-0.250
2020/01/31 16:51:58.0	357.660	-0.030	0.000	-0.220
2020/01/31 16:51:58.1	357.640	0.000	-0.040	-0.180
2020/01/31 16:51:58.2	357.620	0.030	-0.070	-0.150
2020/01/31 16:51:58.3	357.610	0.060	-0.110	-0.120
2020/01/31 16:51:58.4	357.590	0.090	-0.140	-0.090
2020/01/31 16:51:58.5	357.570	0.120	-0.170	-0.050
2020/01/31 16:51:58.6	357.560	0.140	-0.200	-0.020
2020/01/31 16:51:58.7	357.540	0.170	-0.220	0.010
2020/01/31 16:51:58.8	357.510	0.190	-0.240	0.050
2020/01/31 16:51:58.9	357.500	0.220	-0.270	0.080
2020/01/31 16:51:59.0	357.480	0.240	-0.280	0.120
2020/01/31 16:51:59.1	357.470	0.260	-0.300	0.150
2020/01/31 16:51:59.2	357.450	0.270	-0.320	0.190
2020/01/31 16:51:59.3	357.440	0.290	-0.330	0.220
2020/01/31 16:51:59.4	357.420	0.300	-0.340	0.260
2020/01/31 16:51:59.5	357.410	0.320	-0.360	0.290
2020/01/31 16:51:59.6	357.390	0.330	-0.370	0.320
2020/01/31 16:51:59.7	357.380	0.330	-0.380	0.350
2020/01/31 16:51:59.8	357.370	0.340	-0.390	0.370
2020/01/31 16:51:59.9	357.350	0.340	-0.410	0.390
2020/01/31 16:52:00.0	357.340	0.340	-0.420	0.410
2020/01/31 16:52:00.1	357.340	0.340	-0.430	0.420
2020/01/31 16:52:00.2	357.330	0.340	-0.450	0.430
2020/01/31 16:52:00.3	357.320	0.330	-0.470	0.430
2020/01/31 16:52:00.4	357.320	0.320	-0.480	0.420
2020/01/31 16:52:00.5	357.320	0.310	-0.500	0.410
2020/01/31 16:52:00.6	357.310	0.300	-0.520	0.390
2020/01/31 16:52:00.7	357.310	0.290	-0.550	0.360
2020/01/31 16:52:00.8	357.300	0.270	-0.570	0.330
2020/01/31 16:52:00.9	357.310	0.260	-0.600	0.290
2020/01/31 16:52:01.0	357.310	0.240	-0.620	0.250
2020/01/31 16:52:01.1	357.320	0.220	-0.650	0.190
2020/01/31 16:52:01.2	357.330	0.200	-0.680	0.140
2020/01/31 16:52:01.3	357.340	0.180	-0.710	0.080
2020/01/31 16:52:01.4	357.350	0.160	-0.740	0.020
2020/01/31 16:52:01.5	357.370	0.140	-0.770	-0.050
2020/01/31 16:52:01.6	357.380	0.120	-0.800	-0.110
2020/01/31 16:52:01.7	357.400	0.100	-0.820	-0.180
2020/01/31 16:52:01.8	357.420	0.080	-0.850	-0.260
2020/01/31 16:52:01.9	357.440	0.060	-0.880	-0.330
2020/01/31 16:52:02.0	357.460	0.040	-0.900	-0.400
2020/01/31 16:52:02.1	357.480	0.020	-0.930	-0.470
2020/01/31 16:52:02.2	357.500	0.010	-0.950	-0.540
2020/01/31 16:52:02.3	357.520	-0.010	-0.970	-0.610
2020/01/31 16:52:02.4	357.550	-0.030	-0.990	-0.670
2020/01/31 16:52:02.5	357.570	-0.040	-1.000	-0.740
2020/01/31 16:52:02.6	357.590	-0.050	-1.010	-0.800
2020/01/31 16:52:02.7	357.620	-0.070	-1.020	-0.870
2020/01/31 16:52:02.8	357.640	-0.080	-1.020	-0.920
2020/01/31 16:52:02.9	357.660	-0.080	-1.020	-0.980
2020/01/31 16:52:03.0	357.690	-0.090	-1.020	-1.040
2020/01/31 16:52:03.1	357.720	-0.100	-1.010	-1.090
2020/01/31 16:52:03.2	357.740	-0.100	-1.000	-1.140
2020/01/31 16:52:03.3	357.770	-0.100	-0.980	-1.190
2020/01/31 16:52:03.4	357.800	-0.100	-0.960	-1.240
2020/01/31 16:52:03.5	357.830	-0.100	-0.930	-1.280
2020/01/31 16:52:03.6	357.860	-0.090	-0.910	-1.320
2020/01/31 16:52:03.7	357.900	-0.080	-0.870	-1.350
2020/01/31 16:52:03.8	357.920	-0.080	-0.840	-1.390
2020/01/31 16:52:03.9	357.960	-0.060	-0.800	-1.410
2020/01/31 16:52:04.0	357.990	-0.050	-0.760	-1.440
2020/01/31 16:52:04.1	358.020	-0.040	-0.720	-1.450
2020/01/31 16:52:04.2	358.050	-0.020	-0.670	-1.460
2020/01/31 16:52:04.3	358.080	0.000	-0.620	-1.460
2020/01/31 16:52:04.4	358.110	0.020	-0.570	-1.460
2020/01/31 16:52:04.5	358.130	0.040	-0.510	-1.450
2020/01/31 16:52:04.6	358.160	0.070	-0.460	-1.430
2020/01/31 16:52:04.7	358.180	0.090	-0.400	-1.410
2020/01/31 16:52:04.8	358.200	0.110	-0.340	-1.380
2020/01/31 16:52:04.9	358.220	0.140	-0.270	-1.340
2020/01/31 16:52:05.0	358.230	0.170	-0.210	-1.300
2020/01/31 16:52:05.1	358.250	0.190	-0.140	-1.260
2020/01/31 16:52:05.2	358.260	0.220	-0.070	-1.200
2020/01/31 16:52:05.3	358.270	0.240	-0.000	-1.150
2020/01/31 16:52:05.4	358.280	0.270	0.060	-1.090
2020/01/31 16:52:05.5	358.290	0.290	0.130	-1.030
2020/01/31 16:52:05.6	358.290	0.310	0.200	-0.960
2020/01/31 16:52:05.7	358.290	0.330	0.270	-0.890
2020/01/31 16:52:05.8	358.280	0.350	0.330	-0.810
2020/01/31 16:52:05.9	358.280	0.370	0.390	-0.740
2020/01/31 16:52:06.0	358.280	0.380	0.450	-0.670
2020/01/31 16:52:06.1	358.270	0.400	0.510	-0.590
2020/01/31 16:52:06.2	358.260	0.400	0.570	-0.520
2020/01/31 16:52:06.3	358.250	0.410	0.620	-0.440
2020/01/31 16:52:06.4	358.240	0.410	0.660	-0.370
2020/01/31 16:52:06.5	358.230	0.420	0.700	-0.300
2020/01/31 16:52:06.6	358.220	0.410	0.740	-0.230
2020/01/31 16:52:06.7	358.210	0.410	0.760	-0.170
2020/01/31 16:52:06.8	358.210	0.400	0.790	-0.110
2020/01/31 16:52:06.9	358.200	0.380	0.800	-0.050
2020/01/31 16:52:07.0	358.190	0.370	0.810	-0.000
2020/01/31 16:52:07.1	358.180	0.350	0.820	0.040
2020/01/31 16:52:07.2	358.180	0.330	0.810	0.080
2020/01/31 16:52:07.3	358.170	0.300	0.800	0.110
2020/01/31 16:52:07.4	358.170	0.270	0.780	0.130
2020/01/31 16:52:07.5	358.170	0.240	0.760	0.160
2020/01/31 16:52:07.6	358.160	0.210	0.730	0.170
2020/01/31 16:52:07.7	358.160	0.170	0.700	0.180
2020/01/31 16:52:07.8	358.160	0.130	0.660	0.190
2020/01/31 16:52:07.9	358.150	0.090	0.610	0.190
2020/01/31 16:52:08.0	358.140	0.040	0.570	0.190
2020/01/31 16:52:08.1	358.140	-0.000	0.520	0.190
2020/01/31 16:52:08.2	358.130	-0.050	0.470	0.180
2020/01/31 16:52:08.3	358.120	-0.100	0.410	0.170
2020/01/31 16:52:08.4	358.110	-0.150	0.360	0.150
2020/01/31 16:52:08.5	358.090	-0.200	0.300	0.130
2020/01/31 16:52:08.6	358.080	-0.250	0.250	0.110
2020/01/31 16:52:08.7	358.060	-0.300	0.190	0.090
2020/01/31 16:52:08.8	358.040	-0.350	0.140	0.060
2020/01/31 16:52:08.9	358.020	-0.400	0.080	0.040
2020/01/31 16:52:09.0	357.990	-0.450	0.030	0.010
2020/01/31 16:52:09.1	357.970	-0.500	-0.020	-0.020
2020/01/31 16:52:09.2	357.940	-0.540	-0.070	-0.050
2020/01/31 16:52:09.3	357.910	-0.590	-0.110	-0.080
2020/01/31 16:52:09.4	357.880	-0.630	-0.150	-0.120
2020/01/31 16:52:09.5	357.850	-0.670	-0.190	-0.150
2020/01/31 16:52:09.6	357.820	-0.700	-0.230	-0.180
2020/01/31 16:52:09.7	357.790	-0.730	-0.260	-0.220
2020/01/31 16:52:09.8	357.750	-0.760	-0.290	-0.250
2020/01/31 16:52:09.9	357.710	-0.780	-0.320	-0.280
2020/01/31 16:52:10.0	357.680	-0.800	-0.350	-0.320
2020/01/31 16:52:10.1	357.650	-0.820	-0.370	-0.350
2020/01/31 16:52:10.2	357.610	-0.830	-0.400	-0.380
2020/01/31 16:52:10.3	357.580	-0.830	-0.420	-0.410
2020/01/31 16:52:10.4	357.550	-0.830	-0.440	-0.430
2020/01/31 16:52:10.5	357.520	-0.830	-0.460	-0.460
2020/01/31 16:52:10.6	357.500	-0.820	-0.480	-0.490
2020/01/31 16:52:10.7	357.470	-0.800	-0.490	-0.510
2020/01/31 16:52:10.8	357.440	-0.780	-0.510	-0.540
2020/01/31 16:52:10.9	357.420	-0.750	-0.530	-0.560
2020/01/31 16:52:11.0	357.400	-0.720	-0.550	-0.580
2020/01/31 16:52:11.1	357.390	-0.680	-0.570	-0.600
2020/01/31 16:52:11.2	357.380	-0.640	-0.590	-0.610
2020/01/31 16:52:11.3	357.370	-0.600	-0.610	-0.630
2020/01/31 16:52:11.4	357.360	-0.550	-0.640	-0.640
2020/01/31 16:52:11.5	357.360	-0.490	-0.660	-0.660
2020/01/31 16:52:11.6	357.360	-0.440	-0.690	-0.670
2020/01/31 16:52:11.7	357.360	-0.370	-0.720	-0.680
2020/01/31 16:52:11.8	357.370	-0.310	-0.750	-0.690
2020/01/31 16:52:11.9	357.380	-0.250	-0.780	-0.700
2020/01/31 16:52:12.0	357.390	-0.180	-0.810	-0.700
2020/01/31 16:52:12.1	357.400	-0.110	-0.840	-0.710
2020/01/31 16:52:12.2	357.420	-0.040	-0.870	-0.710
2020/01/31 16:52:12.3	357.430	0.020	-0.900	-0.710
2020/01/31 16:52:12.4	357.450	0.090	-0.930	-0.710
2020/01/31 16:52:12.5	357.470	0.150	-0.960	-0.700
2020/01/31 16:52:12.6	357.490	0.220	-0.990	-0.700
2020/01/31 16:52:12.7	357.510	0.280	-1.010	-0.690
2020/01/31 16:52:12.8	357.540	0.340	-1.030	-0.680
2020/01/31 16:52:12.9	357.560	0.390	-1.050	-0.670
2020/01/31 16:52:13.0	357.580	0.440	-1.070	-0.660
2020/01/31 16:52:13.1	357.610	0.490	-1.090	-0.650
2020/01/31 16:52:13.2	357.630	0.530	-1.100	-0.640
2020/01/31 16:52:13.3	357.650	0.570	-1.110	-0.620
2020/01/31 16:52:13.4	357.670	0.600	-1.110	-0.610
2020/01/31 16:52:13.5	357.690	0.630	-1.120	-0.590
2020/01/31 16:52:13.6	357.710	0.650	-1.110	-0.570
2020/01/31 16:52:13.7	357.730	0.670	-1.110	-0.550
2020/01/31 16:52:13.8	357.750	0.680	-1.100	-0.530
2020/01/31 16:52:13.9	357.770	0.690	-1.080	-0.510
2020/01/31 16:52:14.0	357.790	0.690	-1.070	-0.480
2020/01/31 16:52:14.1	357.800	0.690	-1.040	-0.460
2020/01/31 16:52:14.2	357.820	0.680	-1.020	-0.430
2020/01/31 16:52:14.3	357.840	0.670	-0.990	-0.410
2020/01/31 16:52:14.4	357.860	0.660	-0.950	-0.380
2020/01/31 16:52:14.5	357.880	0.640	-0.910	-0.350
2020/01/31 16:52:14.6	357.890	0.610	-0.870	-0.320
2020/01/31 16:52:14.7	357.910	0.590	-0.830	-0.290
2020/01/31 16:52:14.8	357.940	0.560	-0.780	-0.260
2020/01/31 16:52:14.9	357.950	0.530	-0.730	-0.230
2020/01/31 16:52:15.0	357.970	0.500	-0.680	-0.200
2020/01/31 16:52:15.1	357.980	0.460	-0.620	-0.170
2020/01/31 16:52:15.2	357.990	0.420	-0.560	-0.140
2020/01/31 16:52:15.3	358.010	0.380	-0.510	-0.110
2020/01/31 16:52:15.4	358.020	0.340	-0.450	-0.090
2020/01/31 16:52:15.5	358.030	0.300	-0.390	-0.070
2020/01/31 16:52:15.6	358.040	0.250	-0.330	-0.050
2020/01/31 16:52:15.7	358.050	0.210	-0.270	-0.030
2020/01/31 16:52:15.8	358.070	0.170	-0.220	-0.010
2020/01/31 16:52:15.9	358.080	0.130	-0.160	0.000
2020/01/31 16:52:16.0	358.090	0.080	-0.110	0.010
2020/01/31 16:52:16.1	358.100	0.040	-0.060	0.020
2020/01/31 16:52:16.2	358.110	0.000	-0.010	0.020
2020/01/31 16:52:16.3	358.110	-0.030	0.040	0.020
2020/01/31 16:52:16.4	358.120	-0.070	0.090	0.030
2020/01/31 16:52:16.5	358.120	-0.100	0.130	0.020
2020/01/31 16:52:16.6	358.130	-0.130	0.170	0.020
2020/01/31 16:52:16.7	358.130	-0.160	0.210	0.020
2020/01/31 16:52:16.8	358.140	-0.180	0.250	0.010
2020/01/31 16:52:16.9	358.140	-0.200	0.280	0.010
2020/01/31 16:52:17.0	358.150	-0.220	0.310	0.000
2020/01/31 16:52:17.1	358.150	-0.240	0.330	-0.000
2020/01/31 16:52:17.2	358.150	-0.250	0.360	-0.000
2020/01/31 16:52:17.3	358.150	-0.260	0.380	-0.000
2020/01/31 16:52:17.4	358.140	-0.260	0.400	-0.000
2020/01/31 16:52:17.5	358.140	-0.270	0.410	-0.000
2020/01/31 16:52:17.6	358.130	-0.270	0.430	0.000
2020/01/31 16:52:17.7	358.120	-0.260	0.440	0.010
2020/01/31 16:52:17.8	358.120	-0.260	0.450	0.020
2020/01/31 16:52:17.9	358.110	-0.250	0.460	0.030
2020/01/31 16:52:18.0	358.090	-0.240	0.460	0.040
2020/01/31 16:52:18.1	358.080	-0.230	0.470	0.050
2020/01/31 16:52:18.2	358.060	-0.220	0.470	0.070
2020/01/31 16:52:18.3	358.030	-0.210	0.470	0.090
2020/01/31 16:52:18.4	358.010	-0.190	0.470	0.110
2020/01/31 16:52:18.5	357.990	-0.180	0.470	0.120
2020/01/31 16:52:18.6	357.960	-0.160	0.470	0.140
2020/01/31 16:52:18.7	357.940	-0.150	0.470	0.150
2020/01/31 16:52:18.8	357.900	-0.130	0.460	0.170
2020/01/31 16:52:18.9	357.870	-0.110	0.450	0.180
2020/01/31 16:52:19.0	357.840	-0.100	0.440	0.180
2020/01/31 16:52:19.1	357.820	-0.080	0.430	0.190
2020/01/31 16:52:19.2	357.790	-0.060	0.420	0.190
2020/01/31 16:52:19.3	357.760	-0.050	0.400	0.190
2020/01/31 16:52:19.4	357.740	-0.030	0.380	0.190
2020/01/31 16:52:19.5	357.710	-0.020	0.360	0.180
2020/01/31 16:52:19.6	357.690	-0.000	0.340	0.170
2020/01/31 16:52:19.7	357.670	0.010	0.310	0.160
2020/01/31 16:52:19.8	357.630	0.030	0.290	0.150
2020/01/31 16:52:19.9	357.610	0.040	0.260	0.130
2020/01/31 16:52:20.0	357.600	0.050	0.220	0.110
2020/01/31 16:52:20.1	357.580	0.070	0.190	0.100
2020/01/31 16:52:20.2	357.570	0.080	0.160	0.080
2020/01/31 16:52:20.3	357.560	0.090	0.120	0.060
2020/01/31 16:52:20.4	357.540	0.090	0.090	0.040
2020/01/31 16:52:20.5	357.540	0.100	0.050	0.020
2020/01/31 16:52:20.6	357.530	0.110	0.020	-0.000
2020/01/31 16:52:20.7	357.520	0.110	-0.010	-0.020
2020/01/31 16:52:20.8	357.520	0.120	-0.050	-0.040
2020/01/31 16:52:20.9	357.510	0.120	-0.080	-0.060
2020/01/31 16:52:21.0	357.500	0.120	-0.110	-0.080
2020/01/31 16:52:21.1	357.490	0.120	-0.130	-0.100
2020/01/31 16:52:21.2	357.480	0.110	-0.160	-0.120
2020/01/31 16:52:21.3	357.470	0.110	-0.180	-0.130
2020/01/31 16:52:21.4	357.460	0.100	-0.200	-0.150
2020/01/31 16:52:21.5	357.450	0.090	-0.220	-0.170
2020/01/31 16:52:21.6	357.440	0.080	-0.240	-0.190
2020/01/31 16:52:21.7	357.420	0.070	-0.250	-0.200
2020/01/31 16:52:21.8	357.400	0.060	-0.270	-0.210
2020/01/31 16:52:21.9	357.390	0.040	-0.280	-0.230
2020/01/31 16:52:22.0	357.370	0.030	-0.290	-0.250
2020/01/31 16:52:22.1	357.360	0.010	-0.300	-0.260
2020/01/31 16:52:22.2	357.340	-0.000	-0.310	-0.280
2020/01/31 16:52:22.3	357.330	-0.020	-0.320	-0.290
2020/01/31 16:52:22.4	357.310	-0.030	-0.330	-0.310
2020/01/31 16:52:22.5	357.300	-0.050	-0.340	-0.320
2020/01/31 16:52:22.6	357.280	-0.060	-0.350	-0.330
2020/01/31 16:52:22.7	357.270	-0.070	-0.360	-0.350
2020/01/31 16:52:22.8	357.260	-0.080	-0.370	-0.370
2020/01/31 16:52:22.9	357.260	-0.100	-0.380	-0.380
2020/01/31 16:52:23.0	357.250	-0.100	-0.390	-0.400
2020/01/31 16:52:23.1	357.250	-0.110	-0.410	-0.410
2020/01/31 16:52:23.2	357.250	-0.120	-0.430	-0.430
2020/01/31 16:52:23.3	357.250	-0.120	-0.450	-0.450
2020/01/31 16:52:23.4	357.250	-0.130	-0.470	-0.460
2020/01/31 16:52:23.5	357.260	-0.130	-0.500	-0.480
2020/01/31 16:52:23.6	357.270	-0.130	-0.530	-0.500
2020/01/31 16:52:23.7	357.280	-0.120	-0.550	-0.520
2020/01/31 16:52:23.8	357.290	-0.120	-0.580	-0.530
2020/01/31 16:52:23.9	357.310	-0.110	-0.610	-0.550
2020/01/31 16:52:24.0	357.320	-0.110	-0.640	-0.570
2020/01/31 16:52:24.1	357.330	-0.100	-0.670	-0.580
2020/01/31 16:52:24.2	357.350	-0.090	-0.700	-0.600
2020/01/31 16:52:24.3	357.370	-0.080	-0.730	-0.610
2020/01/31 16:52:24.4	357.380	-0.070	-0.760	-0.630
2020/01/31 16:52:24.5	357.400	-0.060	-0.790	-0.640
2020/01/31 16:52:24.6	357.420	-0.040	-0.820	-0.660
2020/01/31 16:52:24.7	357.440	-0.030	-0.850	-0.670
2020/01/31 16:52:24.8	357.460	-0.020	-0.870	-0.690
2020/01/31 16:52:24.9	357.480	-0.000	-0.900	-0.700
2020/01/31 16:52:25.0	357.500	0.010	-0.920	-0.710
2020/01/31 16:52:25.1	357.520	0.020	-0.940	-0.710
2020/01/31 16:52:25.2	357.550	0.040	-0.950	-0.720
2020/01/31 16:52:25.3	357.570	0.050	-0.970	-0.730
2020/01/31 16:52:25.4	357.590	0.060	-0.980	-0.730
2020/01/31 16:52:25.5	357.610	0.070	-0.990	-0.730
2020/01/31 16:52:25.6	357.640	0.080	-0.990	-0.740
2020/01/31 16:52:25.7	357.660	0.090	-1.000	-0.740
2020/01/31 16:52:25.8	357.690	0.100	-1.000	-0.740
2020/01/31 16:52:25.9	357.710	0.110	-0.990	-0.730
2020/01/31 16:52:26.0	357.740	0.120	-0.990	-0.730
2020/01/31 16:52:26.1	357.770	0.120	-0.980	-0.730
2020/01/31 16:52:26.2	357.800	0.130	-0.970	-0.720
2020/01/31 16:52:26.3	357.830	0.140	-0.960	-0.720
2020/01/31 16:52:26.4	357.860	0.140	-0.940	-0.710
2020/01/31 16:52:26.5	357.890	0.140	-0.920	-0.700
2020/01/31 16:52:26.6	357.920	0.140	-0.900	-0.680
2020/01/31 16:52:26.7	357.950	0.140	-0.880	-0.670
2020/01/31 16:52:26.8	357.980	0.140	-0.850	-0.650
2020/01/31 16:52:26.9	358.010	0.140	-0.820	-0.620
2020/01/31 16:52:27.0	358.030	0.140	-0.790	-0.590
2020/01/31 16:52:27.1	358.050	0.130	-0.750	-0.560
2020/01/31 16:52:27.2	358.060	0.130	-0.710	-0.530
2020/01/31 16:52:27.3	358.080	0.120	-0.670	-0.490
2020/01/31 16:52:27.4	358.090	0.110	-0.630	-0.450
2020/01/31 16:52:27.5	358.100	0.110	-0.580	-0.410
2020/01/31 16:52:27.6	358.100	0.100	-0.530	-0.370
2020/01/31 16:52:27.7	358.100	0.090	-0.480	-0.320
2020/01/31 16:52:27.8	358.110	0.080	-0.420	-0.270
2020/01/31 16:52:27.9	358.100	0.060	-0.370	-0.220
2020/01/31 16:52:28.0	358.100	0.050	-0.310	-0.180
2020/01/31 16:52:28.1	358.080	0.040	-0.250	-0.130
2020/01/31 16:52:28.2	358.070	0.030	-0.190	-0.080
2020/01/31 16:52:28.3	358.050	0.020	-0.130	-0.030
2020/01/31 16:52:28.4	358.040	0.010	-0.070	0.020
2020/01/31 16:52:28.5	358.010	-0.010	-0.020	0.070
2020/01/31 16:52:28.6	357.990	-0.020	0.040	0.110
2020/01/31 16:52:28.7	357.970	-0.030	0.100	0.160
2020/01/31 16:52:28.8	357.930	-0.040	0.160	0.200
2020/01/31 16:52:28.9	357.910	-0.040	0.210	0.250
2020/01/31 16:52:29.0	357.880	-0.050	0.260	0.290
2020/01/31 16:52:29.1	357.850	-0.060	0.310	0.320
2020/01/31 16:52:29.2	357.820	-0.070	0.350	0.360
2020/01/31 16:52:29.3	357.800	-0.070	0.400	0.390
2020/01/31 16:52:29.4	357.770	-0.080	0.440	0.410
2020/01/31 16:52:29.5	357.740	-0.080	0.470	0.430
2020/01/31 16:52:29.6	357.720	-0.090	0.500	0.450
2020/01/31 16:52:29.7	357.700	-0.090	0.530	0.460
2020/01/31 16:52:29.8	357.680	-0.090	0.550	0.460
2020/01/31 16:52:29.9	357.660	-0.090	0.560	0.460
2020/01/31 16:52:30.0	357.640	-0.090	0.570	0.450
2020/01/31 16:52:30.1	357.630	-0.090	0.580	0.430
2020/01/31 16:52:30.2	357.620	-0.090	0.580	0.410
2020/01/31 16:52:30.3	357.620	-0.090	0.580	0.390
2020/01/31 16:52:30.4	357.610	-0.090	0.570	0.360
2020/01/31 16:52:30.5	357.610	-0.090	0.560	0.320
2020/01/31 16:52:30.6	357.610	-0.090	0.550	0.280
2020/01/31 16:52:30.7	357.610	-0.090	0.530	0.240
2020/01/31 16:52:30.8	357.600	-0.090	0.510	0.200
2020/01/31 16:52:30.9	357.600	-0.100	0.480	0.150
2020/01/31 16:52:31.0	357.600	-0.100	0.460	0.100
2020/01/31 16:52:31.1	357.610	-0.100	0.430	0.060
2020/01/31 16:52:31.2	357.610	-0.100	0.400	0.010
2020/01/31 16:52:31.3	357.610	-0.110	0.370	-0.040
2020/01/31 16:52:31.4	357.610	-0.110	0.340	-0.080
2020/01/31 16:52:31.5	357.610	-0.120	0.310	-0.120
2020/01/31 16:52:31.6	357.610	-0.130	0.280	-0.170
2020/01/31 16:52:31.7	357.610	-0.130	0.250	-0.200
2020/01/31 16:52:31.8	357.600	-0.140	0.220	-0.240
2020/01/31 16:52:31.9	357.590	-0.150	0.190	-0.270
2020/01/31 16:52:32.0	357.590	-0.160	0.160	-0.300
2020/01/31 16:52:32.1	357.580	-0.170	0.130	-0.330
2020/01/31 16:52:32.2	357.570	-0.180	0.100	-0.350
2020/01/31 16:52:32.3	357.560	-0.180	0.080	-0.370
2020/01/31 16:52:32.4	357.540	-0.190	0.050	-0.390
2020/01/31 16:52:32.5	357.530	-0.200	0.030	-0.400
2020/01/31 16:52:32.6	357.510	-0.210	0.010	-0.410
2020/01/31 16:52:32.7	357.500	-0.210	-0.020	-0.410
2020/01/31 16:52:32.8	357.480	-0.210	-0.040	-0.420
2020/01/31 16:52:32.9	357.470	-0.220	-0.060	-0.420
2020/01/31 16:52:33.0	357.450	-0.220	-0.080	-0.410
2020/01/31 16:52:33.1	357.430	-0.210	-0.100	-0.410
2020/01/31 16:52:33.2	357.420	-0.210	-0.120	-0.400
2020/01/31 16:52:33.3	357.400	-0.200	-0.150	-0.380
2020/01/31 16:52:33.4	357.380	-0.190	-0.170	-0.370
2020/01/31 16:52:33.5	357.370	-0.180	-0.200	-0.350
2020/01/31 16:52:33.6	357.350	-0.160	-0.220	-0.330
2020/01/31 16:52:33.7	357.330	-0.140	-0.250	-0.310
2020/01/31 16:52:33.8	357.320	-0.120	-0.280	-0.280
2020/01/31 16:52:33.9	357.300	-0.090	-0.300	-0.260
2020/01/31 16:52:34.0	357.280	-0.070	-0.330	-0.230
2020/01/31 16:52:34.1	357.270	-0.040	-0.360	-0.200
2020/01/31 16:52:34.2	357.250	-0.010	-0.390	-0.180
2020/01/31 16:52:34.3	357.240	0.030	-0.420	-0.150
2020/01/31 16:52:34.4	357.220	0.060	-0.450	-0.120
2020/01/31 16:52:34.5	357.210	0.090	-0.480	-0.090
2020/01/31 16:52:34.6	357.190	0.130	-0.520	-0.070
2020/01/31 16:52:34.7	357.170	0.160	-0.550	-0.040
2020/01/31 16:52:34.8	357.160	0.190	-0.580	-0.010
2020/01/31 16:52:34.9	357.140	0.230	-0.610	0.010
2020/01/31 16:52:35.0	357.130	0.260	-0.630	0.030
2020/01/31 16:52:35.1	357.110	0.290	-0.660	0.050
2020/01/31 16:52:35.2	357.100	0.320	-0.690	0.060
2020/01/31 16:52:35.3	357.090	0.340	-0.720	0.080
2020/01/31 16:52:35.4	357.080	0.370	-0.750	0.080
2020/01/31 16:52:35.5	357.070	0.390	-0.770	0.090
2020/01/31 16:52:35.6	357.070	0.410	-0.800	0.100
2020/01/31 16:52:35.7	357.060	0.430	-0.820	0.100
2020/01/31 16:52:35.8	357.060	0.450	-0.850	0.090
2020/01/31 16:52:35.9	357.060	0.460	-0.870	0.090
2020/01/31 16:52:36.0	357.070	0.470	-0.890	0.080
2020/01/31 16:52:36.1	357.070	0.480	-0.910	0.070
2020/01/31 16:52:36.2	357.080	0.480	-0.930	0.060
2020/01/31 16:52:36.3	357.100	0.490	-0.940	0.040
2020/01/31 16:52:36.4	357.110	0.490	-0.960	0.030
2020/01/31 16:52:36.5	357.130	0.490	-0.970	0.010
2020/01/31 16:52:36.6	357.150	0.480	-0.980	-0.010
2020/01/31 16:52:36.7	357.180	0.470	-0.990	-0.030
2020/01/31 16:52:36.8	357.200	0.470	-0.990	-0.050
2020/01/31 16:52:36.9	357.230	0.450	-1.000	-0.080
2020/01/31 16:52:37.0	357.260	0.440	-0.990	-0.100
2020/01/31 16:52:37.1	357.290	0.420	-0.990	-0.130
2020/01/31 16:52:37.2	357.330	0.410	-0.980	-0.160
2020/01/31 16:52:37.3	357.370	0.390	-0.970	-0.190
2020/01/31 16:52:37.4	357.410	0.360	-0.950	-0.220
2020/01/31 16:52:37.5	357.450	0.340	-0.930	-0.260
2020/01/31 16:52:37.6	357.490	0.310	-0.910	-0.290
2020/01/31 16:52:37.7	357.530	0.280	-0.880	-0.330
2020/01/31 16:52:37.8	357.570	0.250	-0.850	-0.370
2020/01/31 16:52:37.9	357.620	0.220	-0.820	-0.400
2020/01/31 16:52:38.0	357.660	0.190	-0.780	-0.440
2020/01/31 16:52:38.1	357.690	0.150	-0.740	-0.480
2020/01/31 16:52:38.2	357.730	0.120	-0.700	-0.510
2020/01/31 16:52:38.3	357.770	0.080	-0.650	-0.550
2020/01/31 16:52:38.4	357.800	0.040	-0.600	-0.580
2020/01/31 16:52:38.5	357.830	0.010	-0.550	-0.610
2020/01/31 16:52:38.6	357.860	-0.030	-0.490	-0.640
2020/01/31 16:52:38.7	357.880	-0.070	-0.430	-0.670
2020/01/31 16:52:38.8	357.900	-0.110	-0.370	-0.690
2020/01/31 16:52:38.9	357.920	-0.150	-0.300	-0.710
2020/01/31 16:52:39.0	357.930	-0.190	-0.240	-0.730
2020/01/31 16:52:39.1	357.940	-0.220	-0.170	-0.740
2020/01/31 16:52:39.2	357.950	-0.260	-0.100	-0.750
2020/01/31 16:52:39.3	357.950	-0.290	-0.040	-0.750
2020/01/31 16:52:39.4	357.950	-0.330	0.030	-0.750
2020/01/31 16:52:39.5	357.940	-0.360	0.100	-0.740
2020/01/31 16:52:39.6	357.930	-0.390	0.160	-0.730
2020/01/31 16:52:39.7	357.920	-0.420	0.230	-0.720
2020/01/31 16:52:39.8	357.900	-0.450	0.290	-0.700
2020/01/31 16:52:39.9	357.880	-0.470	0.350	-0.680
2020/01/31 16:52:40.0	357.860	-0.490	0.400	-0.650
2020/01/31 16:52:40.1	357.830	-0.510	0.460	-0.620
2020/01/31 16:52:40.2	357.800	-0.530	0.510	-0.580
2020/01/31 16:52:40.3	357.770	-0.550	0.550	-0.550
2020/01/31 16:52:40.4	357.740	-0.560	0.590	-0.510
2020/01/31 16:52:40.5	357.700	-0.570	0.630	-0.470
2020/01/31 16:52:40.6	357.660	-0.580	0.660	-0.430
2020/01/31 16:52:40.7	357.620	-0.580	0.680	-0.380
2020/01/31 16:52:40.8	357.580	-0.590	0.700	-0.340
2020/01/31 16:52:40.9	357.530	-0.590	0.720	-0.290
2020/01/31 16:52:41.0	357.490	-0.590	0.730	-0.250
2020/01/31 16:52:41.1	357.440	-0.580	0.730	-0.200
2020/01/31 16:52:41.2	357.390	-0.570	0.720	-0.160
2020/01/31 16:52:41.3	357.340	-0.560	0.710	-0.110
2020/01/31 16:52:41.4	357.290	-0.550	0.700	-0.070
2020/01/31 16:52:41.5	357.250	-0.530	0.670	-0.030
2020/01/31 16:52:41.6	357.200	-0.520	0.650	0.010
2020/01/31 16:52:41.7	357.150	-0.490	0.610	0.050
2020/01/31 16:52:41.8	357.100	-0.470	0.570	0.090
2020/01/31 16:52:41.9	357.060	-0.440	0.530	0.120
2020/01/31 16:52:42.0	357.020	-0.410	0.480	0.160
2020/01/31 16:52:42.1	356.980	-0.380	0.420	0.190
2020/01/31 16:52:42.2	356.940	-0.350	0.360	0.220
2020/01/31 16:52:42.3	356.910	-0.310	0.290	0.250
2020/01/31 16:52:42.4	356.880	-0.270	0.220	0.280
2020/01/31 16:52:42.5	356.850	-0.220	0.150	0.300
2020/01/31 16:52:42.6	356.830	-0.180	0.080	0.320
2020/01/31 16:52:42.7	356.810	-0.130	0.000	0.330
2020/01/31 16:52:42.8	356.790	-0.080	-0.070	0.350
2020/01/31 16:52:42.9	356.780	-0.040	-0.150	0.360
2020/01/31 16:52:43.0	356.770	0.010	-0.230	0.370
2020/01/31 16:52:43.1	356.760	0.060	-0.300	0.370
2020/01/31 16:52:43.2	356.760	0.120	-0.380	0.370
2020/01/31 16:52:43.3	356.770	0.170	-0.450	0.360
2020/01/31 16:52:43.4	356.770	0.220	-0.520	0.360
2020/01/31 16:52:43.5	356.780	0.270	-0.580	0.340
2020/01/31 16:52:43.6	356.800	0.320	-0.650	0.330
2020/01/31 16:52:43.7	356.810	0.360	-0.710	0.310
2020/01/31 16:52:43.8	356.840	0.410	-0.760	0.290
2020/01/31 16:52:43.9	356.860	0.450	-0.810	0.270
2020/01/31 16:52:44.0	356.890	0.490	-0.860	0.240
2020/01/31 16:52:44.1	356.910	0.530	-0.910	0.220
2020/01/31 16:52:44.2	356.940	0.560	-0.940	0.190
2020/01/31 16:52:44.3	356.970	0.590	-0.980	0.160
2020/01/31 16:52:44.4	357.010	0.620	-1.000	0.130
2020/01/31 16:52:44.5	357.040	0.650	-1.030	0.110
2020/01/31 16:52:44.6	357.070	0.670	-1.040	0.080
2020/01/31 16:52:44.7	357.110	0.680	-1.050	0.050
2020/01/31 16:52:44.8	357.140	0.690	-1.060	0.020
2020/01/31 16:52:44.9	357.170	0.700	-1.060	-0.010
2020/01/31 16:52:45.0	357.210	0.700	-1.050	-0.040
2020/01/31 16:52:45.1	357.240	0.690	-1.040	-0.060
2020/01/31 16:52:45.2	357.270	0.690	-1.020	-0.090
2020/01/31 16:52:45.3	357.300	0.670	-0.990	-0.110
2020/01/31 16:52:45.4	357.330	0.650	-0.960	-0.130
2020/01/31 16:52:45.5	357.360	0.630	-0.920	-0.150
2020/01/31 16:52:45.6	357.380	0.600	-0.880	-0.170
2020/01/31 16:52:45.7	357.400	0.570	-0.840	-0.190
2020/01/31 16:52:45.8	357.440	0.530	-0.790	-0.210
2020/01/31 16:52:45.9	357.450	0.490	-0.730	-0.230
2020/01/31 16:52:46.0	357.470	0.450	-0.680	-0.240
2020/01/31 16:52:46.1	357.480	0.400	-0.620	-0.260
2020/01/31 16:52:46.2	357.490	0.350	-0.560	-0.270
2020/01/31 16:52:46.3	357.500	0.300	-0.490	-0.290
2020/01/31 16:52:46.4	357.500	0.240	-0.430	-0.300
2020/01/31 16:52:46.5	357.500	0.190	-0.370	-0.310
2020/01/31 16:52:46.6	357.500	0.130	-0.300	-0.320
2020/01/31 16:52:46.7	357.500	0.070	-0.240	-0.330
2020/01/31 16:52:46.8	357.490	0.020	-0.180	-0.340
2020/01/31 16:52:46.9	357.480	-0.040	-0.120	-0.350
2020/01/31 16:52:47.0	357.480	-0.100	-0.060	-0.350
2020/01/31 16:52:47.1	357.470	-0.150	-0.010	-0.360
2020/01/31 16:52:47.2	357.460	-0.200	0.040	-0.360
2020/01/31 16:52:47.3	357.450	-0.250	0.090	-0.370
2020/01/31 16:52:47.4	357.440	-0.300	0.130	-0.370
2020/01/31 16:52:47.5	357.420	-0.340	0.170	-0.370
2020/01/31 16:52:47.6	357.410	-0.380	0.200	-0.370
2020/01/31 16:52:47.7	357.390	-0.420	0.220	-0.370
2020/01/31 16:52:47.8	357.380	-0.450	0.240	-0.370
2020/01/31 16:52:47.9	357.360	-0.470	0.260	-0.360
2020/01/31 16:52:48.0	357.340	-0.500	0.270	-0.350
2020/01/31 16:52:48.1	357.320	-0.510	0.280	-0.340
2020/01/31 16:52:48.2	357.300	-0.530	0.290	-0.330
2020/01/31 16:52:48.3	357.280	-0.530	0.290	-0.320
2020/01/31 16:52:48.4	357.250	-0.530	0.290	-0.300
2020/01/31 16:52:48.5	357.220	-0.530	0.290	-0.280
2020/01/31 16:52:48.6	357.200	-0.520	0.280	-0.250
2020/01/31 16:52:48.7	357.170	-0.510	0.280	-0.220
2020/01/31 16:52:48.8	357.130	-0.490	0.270	-0.200
2020/01/31 16:52:48.9	357.100	-0.470	0.260	-0.170
2020/01/31 16:52:49.0	357.070	-0.440	0.250	-0.130
2020/01/31 16:52:49.1	357.040	-0.410	0.230	-0.100
2020/01/31 16:52:49.2	357.000	-0.380	0.220	-0.060
2020/01/31 16:52:49.3	356.970	-0.340	0.200	-0.030
2020/01/31 16:52:49.4	356.940	-0.310	0.190	0.010
2020/01/31 16:52:49.5	356.910	-0.270	0.170	0.050
2020/01/31 16:52:49.6	356.880	-0.220	0.150	0.080
2020/01/31 16:52:49.7	356.850	-0.180	0.130	0.120
2020/01/31 16:52:49.8	356.810	-0.140	0.110	0.160
2020/01/31 16:52:49.9	356.790	-0.100	0.090	0.190
2020/01/31 16:52:50.0	356.760	-0.050	0.070	0.220
2020/01/31 16:52:50.1	356.740	-0.010	0.050	0.250
2020/01/31 16:52:50.2	356.720	0.030	0.020	0.280
2020/01/31 16:52:50.3	356.710	0.070	-0.000	0.300
2020/01/31 16:52:50.4	356.690	0.100	-0.030	0.330
2020/01/31 16:52:50.5	356.680	0.140	-0.050	0.350
2020/01/31 16:52:50.6	356.670	0.170	-0.080	0.370
2020/01/31 16:52:50.7	356.660	0.200	-0.110	0.380
2020/01/31 16:52:50.8	356.640	0.220	-0.130	0.390
2020/01/31 16:52:50.9	356.630	0.240	-0.160	0.400
2020/01/31 16:52:51.0	356.630	0.260	-0.190	0.410
2020/01/31 16:52:51.1	356.630	0.270	-0.210	0.410
2020/01/31 16:52:51.2	356.630	0.280	-0.240	0.410
2020/01/31 16:52:51.3	356.630	0.280	-0.270	0.410
2020/01/31 16:52:51.4	356.640	0.290	-0.290	0.400
2020/01/31 16:52:51.5	356.650	0.280	-0.320	0.400
2020/01/31 16:52:51.6	356.650	0.280	-0.350	0.380
2020/01/31 16:52:51.7	356.660	0.270	-0.370	0.370
2020/01/31 16:52:51.8	356.670	0.250	-0.400	0.350
2020/01/31 16:52:51.9	356.690	0.240	-0.430	0.330
2020/01/31 16:52:52.0	356.700	0.220	-0.460	0.300
2020/01/31 16:52:52.1	356.720	0.200	-0.490	0.270
2020/01/31 16:52:52.2	356.740	0.180	-0.520	0.250
2020/01/31 16:52:52.3	356.770	0.160	-0.550	0.210
2020/01/31 16:52:52.4	356.790	0.140	-0.580	0.180
2020/01/31 16:52:52.5	356.820	0.110	-0.610	0.140
2020/01/31 16:52:52.6	356.850	0.090	-0.640	0.100
2020/01/31 16:52:52.7	356.880	0.060	-0.670	0.060
2020/01/31 16:52:52.8	356.920	0.040	-0.690	0.010
2020/01/31 16:52:52.9	356.950	0.020	-0.720	-0.040
2020/01/31 16:52:53.0	356.980	-0.010	-0.750	-0.090
2020/01/31 16:52:53.1	357.020	-0.030	-0.780	-0.140
2020/01/31 16:52:53.2	357.050	-0.050	-0.800	-0.190
2020/01/31 16:52:53.3	357.090	-0.070	-0.820	-0.240
2020/01/31 16:52:53.4	357.120	-0.090	-0.840	-0.300
2020/01/31 16:52:53.5	357.160	-0.100	-0.860	-0.350
2020/01/31 16:52:53.6	357.190	-0.120	-0.870	-0.410
2020/01/31 16:52:53.7	357.220	-0.130	-0.880	-0.460
2020/01/31 16:52:53.8	357.250	-0.140	-0.890	-0.510
2020/01/31 16:52:53.9	357.280	-0.160	-0.890	-0.560
2020/01/31 16:52:54.0	357.300	-0.170	-0.890	-0.610
2020/01/31 16:52:54.1	357.330	-0.170	-0.890	-0.660
2020/01/31 16:52:54.2	357.350	-0.180	-0.880	-0.710
2020/01/31 16:52:54.3	357.370	-0.190	-0.860	-0.760
2020/01/31 16:52:54.4	357.390	-0.190	-0.850	-0.800
2020/01/31 16:52:54.5	357.410	-0.200	-0.830	-0.840
2020/01/31 16:52:54.6	357.420	-0.200	-0.800	-0.880
2020/01/31 16:52:54.7	357.440	-0.200	-0.770	-0.920
2020/01/31 16:52:54.8	357.470	-0.200	-0.740	-0.950
2020/01/31 16:52:54.9	357.480	-0.210	-0.700	-0.990
2020/01/31 16:52:55.0	357.480	-0.210	-0.670	-1.020
2020/01/31 16:52:55.1	357.490	-0.210	-0.630	-1.040
2020/01/31 16:52:55.2	357.490	-0.210	-0.580	-1.060
2020/01/31 16:52:55.3	357.500	-0.210	-0.540	-1.080
2020/01/31 16:52:55.4	357.500	-0.210	-0.490	-1.090
2020/01/31 16:52:55.5	357.500	-0.210	-0.440	-1.100
2020/01/31 16:52:55.6	357.500	-0.200	-0.390	-1.100
2020/01/31 16:52:55.7	357.500	-0.200	-0.340	-1.100
2020/01/31 16:52:55.8	357.510	-0.200	-0.290	-1.100
2020/01/31 16:52:55.9	357.510	-0.190	-0.240	-1.080
2020/01/31 16:52:56.0	357.510	-0.190	-0.190	-1.070
2020/01/31 16:52:56.1	357.500	-0.180	-0.140	-1.050
2020/01/31 16:52:56.2	357.500	-0.180	-0.090	-1.030
2020/01/31 16:52:56.3	357.490	-0.170	-0.040	-1.000
2020/01/31 16:52:56.4	357.490	-0.160	0.010	-0.970
2020/01/31 16:52:56.5	357.480	-0.150	0.050	-0.940
2020/01/31 16:52:56.6	357.480	-0.140	0.090	-0.900
2020/01/31 16:52:56.7	357.470	-0.130	0.130	-0.860
2020/01/31 16:52:56.8	357.460	-0.120	0.170	-0.810
2020/01/31 16:52:56.9	357.450	-0.100	0.210	-0.770
2020/01/31 16:52:57.0	357.440	-0.090	0.240	-0.720
2020/01/31 16:52:57.1	357.430	-0.070	0.270	-0.670
2020/01/31 16:52:57.2	357.420	-0.060	0.300	-0.620
2020/01/31 16:52:57.3	357.410	-0.040	0.330	-0.570
2020/01/31 16:52:57.4	357.390	-0.020	0.350	-0.520
2020/01/31 16:52:57.5	357.370	-0.000	0.370	-0.460
2020/01/31 16:52:57.6	357.350	0.020	0.390	-0.410
2020/01/31 16:52:57.7	357.330	0.040	0.400	-0.350
2020/01/31 16:52:57.8	357.300	0.060	0.410	-0.300
2020/01/31 16:52:57.9	357.270	0.080	0.420	-0.230
2020/01/31 16:52:58.0	357.250	0.100	0.430	-0.170
2020/01/31 16:52:58.1	357.220	0.120	0.430	-0.110
2020/01/31 16:52:58.2	357.190	0.150	0.430	-0.050
2020/01/31 16:52:58.3	357.160	0.170	0.430	0.020
2020/01/31 16:52:58.4	357.130	0.190	0.420	0.080
2020/01/31 16:52:58.5	357.090	0.210	0.410	0.150
2020/01/31 16:52:58.6	357.060	0.230	0.400	0.210
2020/01/31 16:52:58.7	357.030	0.250	0.380	0.270
2020/01/31 16:52:58.8	356.990	0.270	0.360	0.340
2020/01/31 16:52:58.9	356.960	0.290	0.340	0.390
2020/01/31 16:52:59.0	356.920	0.300	0.320	0.450
2020/01/31 16:52:59.1	356.890	0.320	0.290	0.500
2020/01/31 16:52:59.2	356.870	0.330	0.260	0.550
2020/01/31 16:52:59.3	356.840	0.340	0.230	0.590
2020/01/31 16:52:59.4	356.810	0.350	0.190	0.630
2020/01/31 16:52:59.5	356.790	0.360	0.160	0.670
2020/01/31 16:52:59.6	356.770	0.370	0.120	0.700
2020/01/31 16:52:59.7	356.760	0.380	0.080	0.720
2020/01/31 16:52:59.8	356.750	0.380	0.030	0.740
2020/01/31 16:52:59.9	356.730	0.390	-0.010	0.750
2020/01/31 16:53:00.0	356.720	0.390	-0.050	0.760
2020/01/31 16:53:00.1	356.720	0.390	-0.100	0.760
2020/01/31 16:53:00.2	356.710	0.390	-0.140	0.750
2020/01/31 16:53:00.3	356.710	0.390	-0.190	0.750
2020/01/31 16:53:00.4	356.710	0.390	-0.230	0.730
2020/01/31 16:53:00.5	356.710	0.380	-0.280	0.720
2020/01/31 16:53:00.6	356.710	0.380	-0.320	0.700
2020/01/31 16:53:00.7	356.720	0.370	-0.360	0.680
2020/01/31 16:53:00.8	356.710	0.360	-0.400	0.650
2020/01/31 16:53:00.9	356.710	0.360	-0.430	0.620
2020/01/31 16:53:01.0	356.720	0.350	-0.470	0.590
2020/01/31 16:53:01.1	356.730	0.330	-0.500	0.560
2020/01/31 16:53:01.2	356.740	0.320	-0.530	0.530
2020/01/31 16:53:01.3	356.750	0.310	-0.560	0.490
2020/01/31 16:53:01.4	356.770	0.300	-0.580	0.450
2020/01/31 16:53:01.5	356.780	0.280	-0.610	0.410
2020/01/31 16:53:01.6	356.800	0.260	-0.630	0.370
2020/01/31 16:53:01.7	356.820	0.250	-0.650	0.330
2020/01/31 16:53:01.8	356.840	0.230	-0.670	0.280
2020/01/31 16:53:01.9	356.860	0.210	-0.680	0.230
2020/01/31 16:53:02.0	356.890	0.190	-0.700	0.180
2020/01/31 16:53:02.1	356.910	0.180	-0.710	0.130
2020/01/31 16:53:02.2	356.940	0.160	-0.730	0.080
2020/01/31 16:53:02.3	356.960	0.140	-0.740	0.020
2020/01/31 16:53:02.4	356.990	0.120	-0.750	-0.030
2020/01/31 16:53:02.5	357.020	0.100	-0.760	-0.080
2020/01/31 16:53:02.6	357.040	0.080	-0.770	-0.130
2020/01/31 16:53:02.7	357.070	0.060	-0.770	-0.180
2020/01/31 16:53:02.8	357.100	0.040	-0.780	-0.240
2020/01/31 16:53:02.9	357.120	0.020	-0.780	-0.290
2020/01/31 16:53:03.0	357.140	0.010	-0.780	-0.340
2020/01/31 16:53:03.1	357.160	-0.010	-0.790	-0.380
2020/01/31 16:53:03.2	357.180	-0.030	-0.790	-0.430
2020/01/31 16:53:03.3	357.190	-0.050	-0.780	-0.480
2020/01/31 16:53:03.4	357.210	-0.070	-0.780	-0.520
2020/01/31 16:53:03.5	357.220	-0.090	-0.780	-0.570
2020/01/31 16:53:03.6	357.240	-0.110	-0.770	-0.610
2020/01/31 16:53:03.7	357.250	-0.120	-0.760	-0.650
2020/01/31 16:53:03.8	357.260	-0.140	-0.740	-0.690
2020/01/31 16:53:03.9	357.270	-0.160	-0.730	-0.730
2020/01/31 16:53:04.0	357.280	-0.180	-0.710	-0.770
2020/01/31 16:53:04.1	357.280	-0.190	-0.690	-0.810
2020/01/31 16:53:04.2	357.290	-0.210	-0.670	-0.840
2020/01/31 16:53:04.3	357.290	-0.230	-0.650	-0.870
2020/01/31 16:53:04.4	357.290	-0.250	-0.620	-0.900
2020/01/31 16:53:04.5	357.300	-0.260	-0.590	-0.930
2020/01/31 16:53:04.6	357.300	-0.280	-0.550	-0.950
2020/01/31 16:53:04.7	357.300	-0.300	-0.520	-0.970
2020/01/31 16:53:04.8	357.310	-0.320	-0.480	-0.990
2020/01/31 16:53:04.9	357.310	-0.340	-0.440	-1.010
2020/01/31 16:53:05.0	357.310	-0.360	-0.390	-1.020
2020/01/31 16:53:05.1	357.300	-0.380	-0.350	-1.030
2020/01/31 16:53:05.2	357.300	-0.400	-0.300	-1.030
2020/01/31 16:53:05.3	357.290	-0.420	-0.250	-1.030
2020/01/31 16:53:05.4	357.280	-0.440	-0.200	-1.030
2020/01/31 16:53:05.5	357.270	-0.460	-0.150	-1.020
2020/01/31 16:53:05.6	357.260	-0.480	-0.100	-1.010
2020/01/31 16:53:05.7	357.250	-0.500	-0.050	-1.000
2020/01/31 16:53:05.8	357.250	-0.520	0.000	-0.980
2020/01/31 16:53:05.9	357.240	-0.540	0.060	-0.950
2020/01/31 16:53:06.0	357.220	-0.560	0.110	-0.930
2020/01/31 16:53:06.1	357.200	-0.580	0.160	-0.900
2020/01/31 16:53:06.2	357.180	-0.600	0.200	-0.870
2020/01/31 16:53:06.3	357.160	-0.620	0.250	-0.840
2020/01/31 16:53:06.4	357.140	-0.640	0.290	-0.810
2020/01/31 16:53:06.5	357.110	-0.650	0.330	-0.780
2020/01/31 16:53:06.6	357.090	-0.670	0.360	-0.740
2020/01/31 16:53:06.7	357.070	-0.680	0.390	-0.700
2020/01/31 16:53:06.8	357.040	-0.690	0.410	-0.660
2020/01/31 16:53:06.9	357.010	-0.690	0.430	-0.620
2020/01/31 16:53:07.0	356.990	-0.690	0.440	-0.580
2020/01/31 16:53:07.1	356.970	-0.690	0.450	-0.540
2020/01/31 16:53:07.2	356.940	-0.690	0.450	-0.490
2020/01/31 16:53:07.3	356.920	-0.680	0.440	-0.450
2020/01/31 16:53:07.4	356.900	-0.670	0.430	-0.400
2020/01/31 16:53:07.5	356.880	-0.650	0.410	-0.360
2020/01/31 16:53:07.6	356.850	-0.630	0.390	-0.310
2020/01/31 16:53:07.7	356.830	-0.600	0.360	-0.270
2020/01/31 16:53:07.8	356.810	-0.570	0.320	-0.220
2020/01/31 16:53:07.9	356.790	-0.530	0.280	-0.180
2020/01/31 16:53:08.0	356.780	-0.490	0.230	-0.130
2020/01/31 16:53:08.1	356.760	-0.450	0.180	-0.090
2020/01/31 16:53:08.2	356.740	-0.400	0.130	-0.040
2020/01/31 16:53:08.3	356.730	-0.340	0.070	0.000
2020/01/31 16:53:08.4	356.720	-0.290	0.020	0.050
2020/01/31 16:53:08.5	356.710	-0.230	-0.050	0.090
2020/01/31 16:53:08.6	356.700	-0.160	-0.110	0.130
2020/01/31 16:53:08.7	356.690	-0.090	-0.170	0.170
2020/01/31 16:53:08.8	356.660	-0.020	-0.240	0.210
2020/01/31 16:53:08.9	356.660	0.050	-0.300	0.240
2020/01/31 16:53:09.0	356.660	0.130	-0.370	0.270
2020/01/31 16:53:09.1	356.670	0.200	-0.430	0.300
2020/01/31 16:53:09.2	356.670	0.280	-0.490	0.330
2020/01/31 16:53:09.3	356.680	0.360	-0.550	0.360
2020/01/31 16:53:09.4	356.690	0.430	-0.610	0.380
2020/01/31 16:53:09.5	356.700	0.510	-0.670	0.400
2020/01/31 16:53:09.6	356.720	0.580	-0.720	0.420
2020/01/31 16:53:09.7	356.730	0.650	-0.770	0.440
2020/01/31 16:53:09.8	356.750	0.720	-0.810	0.450
2020/01/31 16:53:09.9	356.770	0.780	-0.850	0.460
2020/01/31 16:53:10.0	356.790	0.850	-0.890	0.470
2020/01/31 16:53:10.1	356.810	0.900	-0.920	0.480
2020/01/31 16:53:10.2	356.830	0.950	-0.940	0.480
2020/01/31 16:53:10.3	356.850	1.000	-0.960	0.480
2020/01/31 16:53:10.4	356.870	1.040	-0.970	0.480
2020/01/31 16:53:10.5	356.890	1.070	-0.980	0.480
2020/01/31 16:53:10.6	356.910	1.100	-0.980	0.480
2020/01/31 16:53:10.7	356.930	1.110	-0.980	0.480
2020/01/31 16:53:10.8	356.960	1.130	-0.960	0.480
2020/01/31 16:53:10.9	356.980	1.130	-0.940	0.470
2020/01/31 16:53:11.0	356.990	1.130	-0.920	0.460
2020/01/31 16:53:11.1	357.010	1.120	-0.880	0.460
2020/01/31 16:53:11.2	357.020	1.100	-0.850	0.450
2020/01/31 16:53:11.3	357.020	1.070	-0.800	0.440
2020/01/31 16:53:11.4	357.020	1.040	-0.750	0.420
2020/01/31 16:53:11.5	357.020	1.000	-0.690	0.410
2020/01/31 16:53:11.6	357.020	0.950	-0.630	0.390
2020/01/31 16:53:11.7	357.010	0.890	-0.560	0.370
2020/01/31 16:53:11.8	357.010	0.830	-0.500	0.350
2020/01/31 16:53:11.9	357.000	0.760	-0.420	0.320
2020/01/31 16:53:12.0	356.980	0.690	-0.350	0.290
2020/01/31 16:53:12.1	356.960	0.610	-0.270	0.270
2020/01/31 16:53:12.2	356.940	0.530	-0.190	0.230
2020/01/31 16:53:12.3	356.920	0.450	-0.110	0.200
2020/01/31 16:53:12.4	356.900	0.360	-0.030	0.160
2020/01/31 16:53:12.5	356.870	0.270	0.050	0.120
2020/01/31 16:53:12.6	356.840	0.170	0.130	0.080
2020/01/31 16:53:12.7	356.810	0.080	0.200	0.040
2020/01/31 16:53:12.8	356.780	-0.010	0.270	-0.010
2020/01/31 16:53:12.9	356.750	-0.110	0.340	-0.060
2020/01/31 16:53:13.0	356.710	-0.200	0.400	-0.110
2020/01/31 16:53:13.1	356.680	-0.290	0.450	-0.170
2020/01/31 16:53:13.2	356.650	-0.380	0.500	-0.220
2020/01/31 16:53:13.3	356.620	-0.460	0.540	-0.270
2020/01/31 16:53:13.4	356.590	-0.540	0.580	-0.320
2020/01/31 16:53:13.5	356.560	-0.610	0.600	-0.380
2020/01/31 16:53:13.6	356.530	-0.680	0.620	-0.430
2020/01/31 16:53:13.7	356.500	-0.750	0.630	-0.480
2020/01/31 16:53:13.8	356.470	-0.800	0.640	-0.540
2020/01/31 16:53:13.9	356.450	-0.850	0.630	-0.590
2020/01/31 16:53:14.0	356.430	-0.900	0.620	-0.640
2020/01/31 16:53:14.1	356.410	-0.930	0.600	-0.680
2020/01/31 16:53:14.2	356.390	-0.960	0.570	-0.730
2020/01/31 16:53:14.3	356.370	-0.980	0.530	-0.770
2020/01/31 16:53:14.4	356.350	-0.990	0.490	-0.810
2020/01/31 16:53:14.5	356.340	-0.990	0.440	-0.840
2020/01/31 16:53:14.6	356.330	-0.980	0.390	-0.870
2020/01/31 16:53:14.7	356.320	-0.970	0.330	-0.900
2020/01/31 16:53:14.8	356.320	-0.950	0.270	-0.930
2020/01/31 16:53:14.9	356.320	-0.920	0.200	-0.950
2020/01/31 16:53:15.0	356.320	-0.880	0.130	-0.970
2020/01/31 16:53:15.1	356.320	-0.840	0.060	-0.990
2020/01/31 16:53:15.2	356.320	-0.790	-0.010	-1.000
2020/01/31 16:53:15.3	356.330	-0.730	-0.080	-1.010
2020/01/31 16:53:15.4	356.340	-0.670	-0.150	-1.010
2020/01/31 16:53:15.5	356.350	-0.610	-0.220	-1.010
2020/01/31 16:53:15.6	356.360	-0.540	-0.290	-1.010
2020/01/31 16:53:15.7	356.370	-0.460	-0.350	-1.010
2020/01/31 16:53:15.8	356.400	-0.390	-0.420	-1.000
2020/01/31 16:53:15.9	356.420	-0.310	-0.470	-0.990
2020/01/31 16:53:16.0	356.440	-0.230	-0.530	-0.980
2020/01/31 16:53:16.1	356.450	-0.160	-0.580	-0.960
2020/01/31 16:53:16.2	356.470	-0.080	-0.620	-0.940
2020/01/31 16:53:16.3	356.490	0.000	-0.670	-0.920
2020/01/31 16:53:16.4	356.510	0.080	-0.700	-0.900
2020/01/31 16:53:16.5	356.520	0.150	-0.730	-0.870
2020/01/31 16:53:16.6	356.540	0.220	-0.760	-0.840
2020/01/31 16:53:16.7	356.560	0.290	-0.780	-0.800
2020/01/31 16:53:16.8	356.570	0.350	-0.790	-0.760
2020/01/31 16:53:16.9	356.580	0.410	-0.810	-0.720
2020/01/31 16:53:17.0	356.590	0.470	-0.810	-0.680
2020/01/31 16:53:17.1	356.610	0.520	-0.810	-0.630
2020/01/31 16:53:17.2	356.620	0.560	-0.810	-0.590
2020/01/31 16:53:17.3	356.630	0.600	-0.810	-0.540
2020/01/31 16:53:17.4	356.640	0.640	-0.800	-0.490
2020/01/31 16:53:17.5	356.650	0.660	-0.790	-0.440
2020/01/31 16:53:17.6	356.670	0.680	-0.770	-0.390
2020/01/31 16:53:17.7	356.680	0.700	-0.750	-0.350
2020/01/31 16:53:17.8	356.690	0.710	-0.740	-0.300
2020/01/31 16:53:17.9	356.700	0.710	-0.710	-0.250
2020/01/31 16:53:18.0	356.710	0.700	-0.690	-0.210
2020/01/31 16:53:18.1	356.720	0.690	-0.670	-0.170
2020/01/31 16:53:18.2	356.730	0.680	-0.650	-0.130
2020/01/31 16:53:18.3	356.750	0.660	-0.620	-0.100
2020/01/31 16:53:18.4	356.760	0.630	-0.600	-0.070
2020/01/31 16:53:18.5	356.770	0.600	-0.580	-0.040
2020/01/31 16:53:18.6	356.780	0.560	-0.560	-0.010
2020/01/31 16:53:18.7	356.790	0.520	-0.540	0.010
2020/01/31 16:53:18.8	356.780	0.480	-0.510	0.020
2020/01/31 16:53:18.9	356.790	0.430	-0.490	0.040
2020/01/31 16:53:19.0	356.790	0.380	-0.470	0.050
2020/01/31 16:53:19.1	356.800	0.320	-0.450	0.060
2020/01/31 16:53:19.2	356.800	0.270	-0.430	0.070
2020/01/31 16:53:19.3	356.790	0.210	-0.410	0.070
2020/01/31 16:53:19.4	356.790	0.150	-0.390	0.070
2020/01/31 16:53:19.5	356.790	0.090	-0.370	0.080
2020/01/31 16:53:19.6	356.780	0.030	-0.350	0.080
2020/01/31 16:53:19.7	356.770	-0.030	-0.330	0.070
2020/01/31 16:53:19.8	356.760	-0.090	-0.310	0.070
2020/01/31 16:53:19.9	356.750	-0.150	-0.290	0.070
2020/01/31 16:53:20.0	356.740	-0.210	-0.260	0.060
2020/01/31 16:53:20.1	356.730	-0.270	-0.240	0.050
2020/01/31 16:53:20.2	356.710	-0.330	-0.220	0.040
2020/01/31 16:53:20.3	356.700	-0.380	-0.190	0.020
2020/01/31 16:53:20.4	356.690	-0.430	-0.170	0.010
2020/01/31 16:53:20.5	356.670	-0.480	-0.140	-0.010
2020/01/31 16:53:20.6	356.660	-0.520	-0.120	-0.030
2020/01/31 16:53:20.7	356.650	-0.570	-0.090	-0.050
2020/01/31 16:53:20.8	356.630	-0.610	-0.070	-0.080
2020/01/31 16:53:20.9	356.620	-0.640	-0.040	-0.100
2020/01/31 16:53:21.0	356.600	-0.670	-0.020	-0.120
2020/01/31 16:53:21.1	356.590	-0.700	0.000	-0.140
2020/01/31 16:53:21.2	356.580	-0.720	0.030	-0.170
2020/01/31 16:53:21.3	356.570	-0.730	0.050	-0.190
2020/01/31 16:53:21.4	356.560	-0.740	0.070	-0.210
2020/01/31 16:53:21.5	356.550	-0.750	0.080	-0.220
2020/01/31 16:53:21.6	356.530	-0.750	0.100	-0.240
2020/01/31 16:53:21.7	356.520	-0.750	0.120	-0.250
2020/01/31 16:53:21.8	356.520	-0.740	0.130	-0.260
2020/01/31 16:53:21.9	356.500	-0.730	0.150	-0.270
2020/01/31 16:53:22.0	356.490	-0.710	0.160	-0.280
2020/01/31 16:53:22.1	356.480	-0.690	0.170	-0.280
2020/01/31 16:53:22.2	356.460	-0.670	0.180	-0.280
2020/01/31 16:53:22.3	356.450	-0.640	0.180	-0.270
2020/01/31 16:53:22.4	356.440	-0.600	0.190	-0.270
2020/01/31 16:53:22.5	356.420	-0.570	0.190	-0.260
2020/01/31 16:53:22.6	356.410	-0.530	0.190	-0.260
2020/01/31 16:53:22.7	356.400	-0.490	0.180	-0.250
2020/01/31 16:53:22.8	356.390	-0.440	0.180	-0.230
2020/01/31 16:53:22.9	356.390	-0.400	0.170	-0.220
2020/01/31 16:53:23.0	356.380	-0.350	0.150	-0.200
2020/01/31 16:53:23.1	356.370	-0.300	0.140	-0.190
2020/01/31 16:53:23.2	356.370	-0.250	0.120	-0.170
2020/01/31 16:53:23.3	356.360	-0.190	0.090	-0.160
2020/01/31 16:53:23.4	356.360	-0.140	0.070	-0.140
2020/01/31 16:53:23.5	356.360	-0.090	0.040	-0.120
2020/01/31 16:53:23.6	356.360	-0.030	0.000	-0.100
2020/01/31 16:53:23.7	356.370	0.020	-0.030	-0.080
2020/01/31 16:53:23.8	356.370	0.080	-0.070	-0.060
2020/01/31 16:53:23.9	356.370	0.130	-0.110	-0.030
2020/01/31 16:53:24.0	356.370	0.180	-0.150	-0.000
2020/01/31 16:53:24.1	356.370	0.230	-0.190	0.020
2020/01/31 16:53:24.2	356.380	0.280	-0.230	0.050
2020/01/31 16:53:24.3	356.380	0.330	-0.280	0.080
2020/01/31 16:53:24.4	356.390	0.380	-0.320	0.110
2020/01/31 16:53:24.5	356.390	0.420	-0.370	0.130
2020/01/31 16:53:24.6	356.400	0.470	-0.410	0.160
2020/01/31 16:53:24.7	356.400	0.510	-0.450	0.180
2020/01/31 16:53:24.8	356.410	0.550	-0.490	0.220
2020/01/31 16:53:24.9	356.420	0.580	-0.530	0.240
2020/01/31 16:53:25.0	356.430	0.620	-0.570	0.260
2020/01/31 16:53:25.1	356.440	0.650	-0.610	0.280
2020/01/31 16:53:25.2	356.450	0.680	-0.640	0.300
2020/01/31 16:53:25.3	356.460	0.700	-0.670	0.320
2020/01/31 16:53:25.4	356.470	0.730	-0.690	0.330
2020/01/31 16:53:25.5	356.480	0.750	-0.720	0.350
2020/01/31 16:53:25.6	356.490	0.770	-0.730	0.360
2020/01/31 16:53:25.7	356.500	0.780	-0.750	0.370
2020/01/31 16:53:25.8	356.520	0.790	-0.760	0.370
2020/01/31 16:53:25.9	356.530	0.800	-0.760	0.380
2020/01/31 16:53:26.0	356.540	0.810	-0.760	0.380
2020/01/31 16:53:26.1	356.550	0.810	-0.750	0.390
2020/01/31 16:53:26.2	356.560	0.800	-0.740	0.390
2020/01/31 16:53:26.3	356.570	0.790	-0.730	0.390
2020/01/31 16:53:26.4	356.580	0.780	-0.710	0.380
2020/01/31 16:53:26.5	356.580	0.760	-0.680	0.380
2020/01/31 16:53:26.6	356.590	0.740	-0.650	0.370
2020/01/31 16:53:26.7	356.590	0.710	-0.620	0.350
2020/01/31 16:53:26.8	356.590	0.680	-0.590	0.340
2020/01/31 16:53:26.9	356.590	0.650	-0.550	0.320
2020/01/31 16:53:27.0	356.590	0.600	-0.510	0.300
2020/01/31 16:53:27.1	356.590	0.560	-0.460	0.280
2020/01/31 16:53:27.2	356.590	0.510	-0.420	0.250
2020/01/31 16:53:27.3	356.590	0.450	-0.370	0.220
2020/01/31 16:53:27.4	356.580	0.400	-0.330	0.190
2020/01/31 16:53:27.5	356.580	0.340	-0.280	0.150
2020/01/31 16:53:27.6	356.580	0.270	-0.240	0.120
2020/01/31 16:53:27.7	356.570	0.210	-0.190	0.080
2020/01/31 16:53:27.8	356.570	0.140	-0.150	0.030
2020/01/31 16:53:27.9	356.570	0.070	-0.110	-0.010
2020/01/31 16:53:28.0	356.570	-0.000	-0.070	-0.060
2020/01/31 16:53:28.1	356.560	-0.070	-0.030	-0.100
2020/01/31 16:53:28.2	356.560	-0.140	0.010	-0.150
2020/01/31 16:53:28.3	356.560	-0.210	0.040	-0.200
2020/01/31 16:53:28.4	356.560	-0.280	0.070	-0.250
2020/01/31 16:53:28.5	356.560	-0.350	0.090	-0.300
2020/01/31 16:53:28.6	356.560	-0.410	0.110	-0.340
2020/01/31 16:53:28.7	356.570	-0.480	0.130	-0.390
2020/01/31 16:53:28.8	356.580	-0.530	0.150	-0.440
2020/01/31 16:53:28.9	356.580	-0.590	0.160	-0.490
2020/01/31 16:53:29.0	356.590	-0.640	0.160	-0.540
2020/01/31 16:53:29.1	356.600	-0.680	0.160	-0.580
2020/01/31 16:53:29.2	356.610	-0.720	0.160	-0.630
2020/01/31 16:53:29.3	356.620	-0.750	0.160	-0.670
2020/01/31 16:53:29.4	356.630	-0.780	0.150	-0.710
2020/01/31 16:53:29.5	356.650	-0.800	0.140	-0.750
2020/01/31 16:53:29.6	356.660	-0.820	0.120	-0.790
2020/01/31 16:53:29.7	356.680	-0.830	0.100	-0.820
2020/01/31 16:53:29.8	356.690	-0.830	0.080	-0.860
2020/01/31 16:53:29.9	356.710	-0.820	0.050	-0.890
2020/01/31 16:53:30.0	356.720	-0.810	0.030	-0.910
2020/01/31 16:53:30.1	356.740	-0.790	-0.010	-0.940
2020/01/31 16:53:30.2	356.760	-0.760	-0.040	-0.960
2020/01/31 16:53:30.3	356.770	-0.730	-0.070	-0.970
2020/01/31 16:53:30.4	356.780	-0.690	-0.110	-0.980
2020/01/31 16:53:30.5	356.790	-0.650	-0.150	-0.980
2020/01/31 16:53:30.6	356.800	-0.600	-0.190	-0.980
2020/01/31 16:53:30.7	356.810	-0.550	-0.230	-0.970
2020/01/31 16:53:30.8	356.810	-0.490	-0.260	-0.950
2020/01/31 16:53:30.9	356.810	-0.430	-0.300	-0.930
2020/01/31 16:53:31.0	356.810	-0.370	-0.340	-0.910
2020/01/31 16:53:31.1	356.810	-0.300	-0.380	-0.880
2020/01/31 16:53:31.2	356.810	-0.230	-0.410	-0.850
2020/01/31 16:53:31.3	356.800	-0.170	-0.450	-0.820
2020/01/31 16:53:31.4	356.800	-0.100	-0.480	-0.780
2020/01/31 16:53:31.5	356.790	-0.030	-0.510	-0.750
2020/01/31 16:53:31.6	356.780	0.040	-0.540	-0.710
2020/01/31 16:53:31.7	356.770	0.100	-0.560	-0.670
2020/01/31 16:53:31.8	356.760	0.160	-0.590	-0.630
2020/01/31 16:53:31.9	356.760	0.220	-0.610	-0.590
2020/01/31 16:53:32.0	356.750	0.280	-0.620	-0.560
2020/01/31 16:53:32.1	356.740	0.330	-0.630	-0.520
2020/01/31 16:53:32.2	356.740	0.380	-0.640	-0.490
2020/01/31 16:53:32.3	356.730	0.420	-0.650	-0.450
2020/01/31 16:53:32.4	356.730	0.460	-0.650	-0.420
2020/01/31 16:53:32.5	356.720	0.500	-0.650	-0.390
2020/01/31 16:53:32.6	356.720	0.520	-0.640	-0.360
2020/01/31 16:53:32.7	356.710	0.550	-0.630	-0.340
2020/01/31 16:53:32.8	356.710	0.560	-0.620	-0.310
2020/01/31 16:53:32.9	356.710	0.580	-0.600	-0.290
2020/01/31 16:53:33.0	356.700	0.580	-0.570	-0.270
2020/01/31 16:53:33.1	356.700	0.580	-0.550	-0.250
2020/01/31 16:53:33.2	356.700	0.570	-0.510	-0.230
2020/01/31 16:53:33.3	356.690	0.560	-0.480	-0.210
2020/01/31 16:53:33.4	356.690	0.550	-0.440	-0.190
2020/01/31 16:53:33.5	356.690	0.520	-0.390	-0.170
2020/01/31 16:53:33.6	356.680	0.500	-0.350	-0.150
2020/01/31 16:53:33.7	356.680	0.470	-0.300	-0.130
2020/01/31 16:53:33.8	356.680	0.430	-0.240	-0.110
2020/01/31 16:53:33.9	356.680	0.390	-0.190	-0.090
2020/01/31 16:53:34.0	356.670	0.350	-0.130	-0.070
2020/01/31 16:53:34.1	356.670	0.310	-0.070	-0.050
2020/01/31 16:53:34.2	356.660	0.260	-0.010	-0.030
2020/01/31 16:53:34.3	356.650	0.210	0.050	-0.000
2020/01/31 16:53:34.4	356.640	0.160	0.110	0.020
2020/01/31 16:53:34.5	356.630	0.110	0.170	0.050
2020/01/31 16:53:34.6	356.620	0.070	0.230	0.080
2020/01/31 16:53:34.7	356.610	0.020	0.290	0.100
2020/01/31 16:53:34.8	356.580	-0.030	0.340	0.130
2020/01/31 16:53:34.9	356.570	-0.080	0.390	0.150
2020/01/31 16:53:35.0	356.550	-0.130	0.440	0.170
2020/01/31 16:53:35.1	356.540	-0.170	0.480	0.190
2020/01/31 16:53:35.2	356.520	-0.210	0.520	0.210
2020/01/31 16:53:35.3	356.510	-0.250	0.550	0.220
2020/01/31 16:53:35.4	356.490	-0.290	0.580	0.230
2020/01/31 16:53:35.5	356.480	-0.320	0.590	0.240
2020/01/31 16:53:35.6	356.470	-0.340	0.600	0.240
2020/01/31 16:53:35.7	356.460	-0.370	0.600	0.230
2020/01/31 16:53:35.8	356.440	-0.390	0.600	0.220
2020/01/31 16:53:35.9	356.440	-0.400	0.580	0.210
2020/01/31 16:53:36.0	356.430	-0.410	0.560	0.200
2020/01/31 16:53:36.1	356.420	-0.410	0.520	0.180
2020/01/31 16:53:36.2	356.420	-0.410	0.480	0.160
2020/01/31 16:53:36.3	356.420	-0.410	0.430	0.140
2020/01/31 16:53:36.4	356.420	-0.400	0.370	0.110
2020/01/31 16:53:36.5	356.430	-0.380	0.300	0.090
2020/01/31 16:53:36.6	356.440	-0.360	0.220	0.060
2020/01/31 16:53:36.7	356.450	-0.340	0.140	0.030
2020/01/31 16:53:36.8	356.460	-0.310	0.060	-0.010
2020/01/31 16:53:36.9	356.470	-0.280	-0.030	-0.040
2020/01/31 16:53:37.0	356.490	-0.240	-0.130	-0.070
2020/01/31 16:53:37.1	356.510	-0.210	-0.230	-0.110
2020/01/31 16:53:37.2	356.540	-0.170	-0.340	-0.140
2020/01/31 16:53:37.3	356.560	-0.130	-0.440	-0.180
2020/01/31 16:53:37.4	356.590	-0.090	-0.550	-0.220
2020/01/31 16:53:37.5	356.620	-0.040	-0.660	-0.260
2020/01/31 16:53:37.6	356.660	-0.000	-0.760	-0.310
2020/01/31 16:53:37.7	356.690	0.040	-0.860	-0.350
2020/01/31 16:53:37.8	356.740	0.080	-0.970	-0.400
2020/01/31 16:53:37.9	356.780	0.120	-1.060	-0.450
2020/01/31 16:53:38.0	356.820	0.160	-1.150	-0.490
2020/01/31 16:53:38.1	356.860	0.200	-1.230	-0.540
2020/01/31 16:53:38.2	356.900	0.230	-1.310	-0.590
2020/01/31 16:53:38.3	356.940	0.260	-1.380	-0.640
2020/01/31 16:53:38.4	356.980	0.290	-1.440	-0.690
2020/01/31 16:53:38.5	357.020	0.310	-1.490	-0.730
2020/01/31 16:53:38.6	357.070	0.330	-1.520	-0.780
2020/01/31 16:53:38.7	357.110	0.350	-1.550	-0.820
2020/01/31 16:53:38.8	357.150	0.360	-1.570	-0.850
2020/01/31 16:53:38.9	357.190	0.370	-1.570	-0.890
2020/01/31 16:53:39.0	357.220	0.370	-1.570	-0.920
2020/01/31 16:53:39.1	357.250	0.370	-1.550	-0.940
2020/01/31 16:53:39.2	357.280	0.370	-1.520	-0.960
2020/01/31 16:53:39.3	357.310	0.360	-1.480	-0.970
2020/01/31 16:53:39.4	357.330	0.340	-1.420	-0.980
2020/01/31 16:53:39.5	357.360	0.320	-1.360	-0.980
2020/01/31 16:53:39.6	357.380	0.300	-1.290	-0.980
2020/01/31 16:53:39.7	357.390	0.280	-1.210	-0.980
2020/01/31 16:53:39.8	357.410	0.250	-1.120	-0.970
2020/01/31 16:53:39.9	357.420	0.220	-1.020	-0.950
2020/01/31 16:53:40.0	357.430	0.180	-0.920	-0.940
2020/01/31 16:53:40.1	357.440	0.150	-0.810	-0.920
2020/01/31 16:53:40.2	357.450	0.110	-0.700	-0.890
2020/01/31 16:53:40.3	357.450	0.070	-0.590	-0.870
2020/01/31 16:53:40.4	357.450	0.030	-0.480	-0.840
2020/01/31 16:53:40.5	357.450	-0.010	-0.370	-0.810
2020/01/31 16:53:40.6	357.450	-0.050	-0.260	-0.780
2020/01/31 16:53:40.7	357.450	-0.090	-0.150	-0.760
2020/01/31 16:53:40.8	357.460	-0.130	-0.050	-0.720
2020/01/31 16:53:40.9	357.460	-0.170	0.050	-0.700
2020/01/31 16:53:41.0	357.450	-0.200	0.140	-0.670
2020/01/31 16:53:41.1	357.450	-0.240	0.220	-0.640
2020/01/31 16:53:41.2	357.450	-0.270	0.300	-0.620
2020/01/31 16:53:41.3	357.440	-0.290	0.370	-0.590
2020/01/31 16:53:41.4	357.440	-0.320	0.430	-0.570
2020/01/31 16:53:41.5	357.440	-0.340	0.480	-0.550
2020/01/31 16:53:41.6	357.430	-0.350	0.520	-0.530
2020/01/31 16:53:41.7	357.430	-0.370	0.560	-0.510
2020/01/31 16:53:41.8	357.420	-0.370	0.580	-0.490
2020/01/31 16:53:41.9	357.420	-0.380	0.600	-0.470
2020/01/31 16:53:42.0	357.410	-0.380	0.610	-0.450
2020/01/31 16:53:42.1	357.400	-0.370	0.610	-0.420
2020/01/31 16:53:42.2	357.400	-0.370	0.610	-0.400
2020/01/31 16:53:42.3	357.390	-0.350	0.600	-0.380
2020/01/31 16:53:42.4	357.370	-0.340	0.590	-0.350
2020/01/31 16:53:42.5	357.360	-0.320	0.570	-0.330
2020/01/31 16:53:42.6	357.340	-0.300	0.550	-0.300
2020/01/31 16:53:42.7	357.320	-0.280	0.520	-0.260
2020/01/31 16:53:42.8	357.290	-0.250	0.490	-0.230
2020/01/31 16:53:42.9	357.270	-0.220	0.460	-0.190
2020/01/31 16:53:43.0	357.240	-0.190	0.430	-0.150
2020/01/31 16:53:43.1	357.210	-0.160	0.400	-0.110
2020/01/31 16:53:43.2	357.170	-0.130	0.370	-0.070
2020/01/31 16:53:43.3	357.130	-0.100	0.340	-0.030
2020/01/31 16:53:43.4	357.090	-0.070	0.310	0.010
2020/01/31 16:53:43.5	357.050	-0.040	0.280	0.050
2020/01/31 16:53:43.6	357.010	-0.010	0.250	0.090
2020/01/31 16:53:43.7	356.970	0.020	0.220	0.130
2020/01/31 16:53:43.8	356.920	0.040	0.190	0.170
2020/01/31 16:53:43.9	356.880	0.070	0.170	0.200
2020/01/31 16:53:44.0	356.840	0.090	0.140	0.230
2020/01/31 16:53:44.1	356.800	0.120	0.110	0.260
2020/01/31 16:53:44.2	356.770	0.140	0.080	0.280
2020/01/31 16:53:44.3	356.730	0.160	0.050	0.310
2020/01/31 16:53:44.4	356.700	0.170	0.030	0.330
2020/01/31 16:53:44.5	356.670	0.190	0.000	0.340
2020/01/31 16:53:44.6	356.640	0.200	-0.020	0.350
2020/01/31 16:53:44.7	356.620	0.220	-0.050	0.360
2020/01/31 16:53:44.8	356.600	0.230	-0.080	0.360
2020/01/31 16:53:44.9	356.590	0.240	-0.100	0.360
2020/01/31 16:53:45.0	356.570	0.250	-0.130	0.360
2020/01/31 16:53:45.1	356.570	0.250	-0.150	0.350
2020/01/31 16:53:45.2	356.560	0.260	-0.180	0.340
2020/01/31 16:53:45.3	356.560	0.260	-0.200	0.320
2020/01/31 16:53:45.4	356.570	0.270	-0.230	0.310
2020/01/31 16:53:45.5	356.570	0.270	-0.250	0.290
2020/01/31 16:53:45.6	356.580	0.270	-0.280	0.260
2020/01/31 16:53:45.7	356.600	0.280	-0.300	0.240
2020/01/31 16:53:45.8	356.620	0.280	-0.330	0.210
2020/01/31 16:53:45.9	356.640	0.280	-0.350	0.180
2020/01/31 16:53:46.0	356.670	0.280	-0.370	0.150
2020/01/31 16:53:46.1	356.690	0.280	-0.390	0.110
2020/01/31 16:53:46.2	356.720	0.280	-0.410	0.080
2020/01/31 16:53:46.3	356.750	0.280	-0.430	0.040
2020/01/31 16:53:46.4	356.780	0.280	-0.440	0.010
2020/01/31 16:53:46.5	356.820	0.280	-0.450	-0.030
2020/01/31 16:53:46.6	356.850	0.270	-0.460	-0.070
2020/01/31 16:53:46.7	356.880	0.270	-0.470	-0.100
2020/01/31 16:53:46.8	356.920	0.260	-0.480	-0.140
2020/01/31 16:53:46.9	356.950	0.260	-0.480	-0.180
2020/01/31 16:53:47.0	356.980	0.250	-0.490	-0.210
2020/01/31 16:53:47.1	357.020	0.230	-0.490	-0.250
2020/01/31 16:53:47.2	357.050	0.220	-0.480	-0.290
2020/01/31 16:53:47.3	357.080	0.200	-0.480	-0.330
2020/01/31 16:53:47.4	357.110	0.190	-0.480	-0.370
2020/01/31 16:53:47.5	357.130	0.170	-0.470	-0.410
2020/01/31 16:53:47.6	357.160	0.140	-0.470	-0.450
2020/01/31 16:53:47.7	357.190	0.120	-0.470	-0.490
2020/01/31 16:53:47.8	357.220	0.090	-0.460	-0.530
2020/01/31 16:53:47.9	357.250	0.060	-0.450	-0.570
2020/01/31 16:53:48.0	357.270	0.030	-0.450	-0.610
2020/01/31 16:53:48.1	357.290	0.000	-0.450	-0.650
2020/01/31 16:53:48.2	357.310	-0.030	-0.450	-0.690
2020/01/31 16:53:48.3	357.330	-0.070	-0.450	-0.740
2020/01/31 16:53:48.4	357.350	-0.100	-0.450	-0.770
2020/01/31 16:53:48.5	357.370	-0.140	-0.450	-0.810
2020/01/31 16:53:48.6	357.390	-0.170	-0.450	-0.850
2020/01/31 16:53:48.7	357.410	-0.210	-0.460	-0.890
2020/01/31 16:53:48.8	357.440	-0.240	-0.470	-0.920
2020/01/31 16:53:48.9	357.450	-0.270	-0.470	-0.960
2020/01/31 16:53:49.0	357.470	-0.310	-0.480	-0.990
2020/01/31 16:53:49.1	357.490	-0.340	-0.490	-1.020
2020/01/31 16:53:49.2	357.510	-0.370	-0.500	-1.050
2020/01/31 16:53:49.3	357.530	-0.390	-0.510	-1.080
2020/01/31 16:53:49.4	357.550	-0.420	-0.530	-1.100
2020/01/31 16:53:49.5	357.570	-0.440	-0.540	-1.120
2020/01/31 16:53:49.6	357.590	-0.450	-0.550	-1.140
2020/01/31 16:53:49.7	357.610	-0.470	-0.570	-1.160
2020/01/31 16:53:49.8	357.640	-0.480	-0.580	-1.180
2020/01/31 16:53:49.9	357.650	-0.490	-0.590	-1.190
2020/01/31 16:53:50.0	357.670	-0.490	-0.600	-1.190
2020/01/31 16:53:50.1	357.670	-0.490	-0.620	-1.190
2020/01/31 16:53:50.2	357.680	-0.480	-0.630	-1.190
2020/01/31 16:53:50.3	357.690	-0.480	-0.640	-1.180
2020/01/31 16:53:50.4	357.690	-0.460	-0.640	-1.170
2020/01/31 16:53:50.5	357.690	-0.440	-0.650	-1.150
2020/01/31 16:53:50.6	357.690	-0.420	-0.650	-1.120
2020/01/31 16:53:50.7	357.680	-0.400	-0.650	-1.090
2020/01/31 16:53:50.8	357.660	-0.370	-0.650	-1.050
2020/01/31 16:53:50.9	357.650	-0.340	-0.650	-1.010
2020/01/31 16:53:51.0	357.640	-0.300	-0.640	-0.960
2020/01/31 16:53:51.1	357.620	-0.260	-0.630	-0.910
2020/01/31 16:53:51.2	357.610	-0.220	-0.620	-0.860
2020/01/31 16:53:51.3	357.590	-0.180	-0.610	-0.800
2020/01/31 16:53:51.4	357.570	-0.130	-0.590	-0.740
2020/01/31 16:53:51.5	357.540	-0.090	-0.570	-0.670
2020/01/31 16:53:51.6	357.520	-0.040	-0.550	-0.610
2020/01/31 16:53:51.7	357.500	0.010	-0.530	-0.540
2020/01/31 16:53:51.8	357.470	0.060	-0.500	-0.470
2020/01/31 16:53:51.9	357.450	0.100	-0.480	-0.400
2020/01/31 16:53:52.0	357.420	0.150	-0.450	-0.330
2020/01/31 16:53:52.1	357.390	0.190	-0.420	-0.260
2020/01/31 16:53:52.2	357.370	0.240	-0.400	-0.190
2020/01/31 16:53:52.3	357.350	0.280	-0.370	-0.120
2020/01/31 16:53:52.4	357.320	0.320	-0.340	-0.050
2020/01/31 16:53:52.5	357.300	0.360	-0.320	0.020
2020/01/31 16:53:52.6	357.280	0.390	-0.290	0.080
2020/01/31 16:53:52.7	357.260	0.430	-0.270	0.140
2020/01/31 16:53:52.8	357.240	0.450	-0.250	0.200
2020/01/31 16:53:52.9	357.230	0.480	-0.220	0.260
2020/01/31 16:53:53.0	357.210	0.500	-0.200	0.310
2020/01/31 16:53:53.1	357.200	0.520	-0.180	0.350
2020/01/31 16:53:53.2	357.190	0.530	-0.150	0.400
2020/01/31 16:53:53.3	357.180	0.540	-0.130	0.440
2020/01/31 16:53:53.4	357.170	0.540	-0.110	0.470
2020/01/31 16:53:53.5	357.160	0.540	-0.090	0.500
2020/01/31 16:53:53.6	357.150	0.530	-0.060	0.530
2020/01/31 16:53:53.7	357.140	0.520	-0.040	0.550
2020/01/31 16:53:53.8	357.130	0.510	-0.010	0.560
2020/01/31 16:53:53.9	357.120	0.490	0.020	0.570
2020/01/31 16:53:54.0	357.120	0.460	0.040	0.570
2020/01/31 16:53:54.1	357.110	0.440	0.070	0.570
2020/01/31 16:53:54.2	357.110	0.400	0.100	0.560
2020/01/31 16:53:54.3	357.100	0.370	0.130	0.540
2020/01/31 16:53:54.4	357.100	0.330	0.160	0.530
2020/01/31 16:53:54.5	357.100	0.290	0.190	0.500
2020/01/31 16:53:54.6	357.100	0.250	0.220	0.480
2020/01/31 16:53:54.7	357.100	0.210	0.250	0.450
2020/01/31 16:53:54.8	357.100	0.160	0.280	0.410
2020/01/31 16:53:54.9	357.100	0.110	0.310	0.370
2020/01/31 16:53:55.0	357.110	0.070	0.330	0.330
2020/01/31 16:53:55.1	357.120	0.020	0.360	0.300
2020/01/31 16:53:55.2	357.130	-0.020	0.390	0.250
2020/01/31 16:53:55.3	357.140	-0.060	0.410	0.210
2020/01/31 16:53:55.4	357.150	-0.110	0.430	0.170
2020/01/31 16:53:55.5	357.170	-0.150	0.450	0.130
2020/01/31 16:53:55.6	357.180	-0.180	0.460	0.090
2020/01/31 16:53:55.7	357.200	-0.220	0.480	0.050
2020/01/31 16:53:55.8	357.210	-0.250	0.490	0.010
2020/01/31 16:53:55.9	357.230	-0.280	0.490	-0.030
2020/01/31 16:53:56.0	357.250	-0.300	0.500	-0.070
2020/01/31 16:53:56.1	357.260	-0.330	0.490	-0.100
2020/01/31 16:53:56.2	357.280	-0.340	0.490	-0.140
2020/01/31 16:53:56.3	357.300	-0.350	0.470	-0.170
2020/01/31 16:53:56.4	357.320	-0.360	0.460	-0.200
2020/01/31 16:53:56.5	357.330	-0.370	0.430	-0.240
2020/01/31 16:53:56.6	357.350	-0.370	0.410	-0.270
2020/01/31 16:53:56.7	357.370	-0.360	0.370	-0.290
2020/01/31 16:53:56.8	357.390	-0.350	0.340	-0.320
2020/01/31 16:53:56.9	357.410	-0.340	0.300	-0.350
2020/01/31 16:53:57.0	357.420	-0.320	0.250	-0.370
2020/01/31 16:53:57.1	357.430	-0.300	0.200	-0.400
2020/01/31 16:53:57.2	357.440	-0.270	0.150	-0.420
2020/01/31 16:53:57.3	357.450	-0.240	0.090	-0.440
2020/01/31 16:53:57.4	357.460	-0.210	0.030	-0.450
2020/01/31 16:53:57.5	357.460	-0.180	-0.040	-0.470
2020/01/31 16:53:57.6	357.470	-0.140	-0.100	-0.480
2020/01/31 16:53:57.7	357.470	-0.110	-0.170	-0.500
2020/01/31 16:53:57.8	357.470	-0.070	-0.240	-0.500
2020/01/31 16:53:57.9	357.470	-0.030	-0.310	-0.520
2020/01/31 16:53:58.0	357.470	0.000	-0.380	-0.530
2020/01/31 16:53:58.1	357.470	0.040	-0.450	-0.530
2020/01/31 16:53:58.2	357.460	0.070	-0.510	-0.540
2020/01/31 16:53:58.3	357.450	0.110	-0.580	-0.550
2020/01/31 16:53:58.4	357.440	0.140	-0.640	-0.550
2020/01/31 16:53:58.5	357.430	0.170	-0.710	-0.550
2020/01/31 16:53:58.6	357.420	0.190	-0.770	-0.560
2020/01/31 16:53:58.7	357.410	0.210	-0.820	-0.560
2020/01/31 16:53:58.8	357.400	0.230	-0.870	-0.560
2020/01/31 16:53:58.9	357.390	0.240	-0.920	-0.560
2020/01/31 16:53:59.0	357.370	0.250	-0.970	-0.560
2020/01/31 16:53:59.1	357.360	0.260	-1.010	-0.570
2020/01/31 16:53:59.2	357.340	0.260	-1.050	-0.570
2020/01/31 16:53:59.3	357.330	0.260	-1.080	-0.580
2020/01/31 16:53:59.4	357.310	0.250	-1.110	-0.590
2020/01/31 16:53:59.5	357.300	0.240	-1.140	-0.590
2020/01/31 16:53:59.6	357.290	0.220	-1.150	-0.600
2020/01/31 16:53:59.7	357.280	0.200	-1.170	-0.620
2020/01/31 16:53:59.8	357.270	0.180	-1.170	-0.630
2020/01/31 16:53:59.9	357.260	0.150	-1.180	-0.650
2020/01/31 16:54:00.0	357.260	0.120	-1.170	-0.660
2020/01/31 16:54:00.1	357.260	0.090	-1.160	-0.680
2020/01/31 16:54:00.2	357.260	0.060	-1.150	-0.700
2020/01/31 16:54:00.3	357.260	0.020	-1.130	-0.720
2020/01/31 16:54:00.4	357.260	-0.020	-1.110	-0.740
2020/01/31 16:54:00.5	357.270	-0.050	-1.080	-0.760
2020/01/31 16:54:00.6	357.280	-0.090	-1.050	-0.780
2020/01/31 16:54:00.7	357.290	-0.130	-1.010	-0.800
2020/01/31 16:54:00.8	357.300	-0.160	-0.960	-0.830
2020/01/31 16:54:00.9	357.320	-0.200	-0.910	-0.840
2020/01/31 16:54:01.0	357.330	-0.230	-0.860	-0.860
2020/01/31 16:54:01.1	357.340	-0.260	-0.810	-0.870
2020/01/31 16:54:01.2	357.360	-0.290	-0.750	-0.880
2020/01/31 16:54:01.3	357.370	-0.310	-0.690	-0.880
2020/01/31 16:54:01.4	357.390	-0.330	-0.620	-0.880
2020/01/31 16:54:01.5	357.400	-0.350	-0.560	-0.880
2020/01/31 16:54:01.6	357.410	-0.360	-0.490	-0.870
2020/01/31 16:54:01.7	357.420	-0.370	-0.410	-0.860
2020/01/31 16:54:01.8	357.440	-0.380	-0.350	-0.840
2020/01/31 16:54:01.9	357.450	-0.380	-0.270	-0.820
2020/01/31 16:54:02.0	357.450	-0.380	-0.200	-0.790
2020/01/31 16:54:02.1	357.460	-0.370	-0.130	-0.760
2020/01/31 16:54:02.2	357.470	-0.360	-0.060	-0.720
2020/01/31 16:54:02.3	357.480	-0.350	0.010	-0.680
2020/01/31 16:54:02.4	357.480	-0.330	0.080	-0.640
2020/01/31 16:54:02.5	357.490	-0.310	0.140	-0.600
2020/01/31 16:54:02.6	357.490	-0.280	0.210	-0.550
2020/01/31 16:54:02.7	357.490	-0.260	0.260	-0.510
2020/01/31 16:54:02.8	357.500	-0.230	0.320	-0.450
2020/01/31 16:54:02.9	357.500	-0.200	0.370	-0.400
2020/01/31 16:54:03.0	357.510	-0.170	0.410	-0.360
2020/01/31 16:54:03.1	357.510	-0.130	0.450	-0.310
2020/01/31 16:54:03.2	357.510	-0.100	0.480	-0.260
2020/01/31 16:54:03.3	357.510	-0.070	0.510	-0.210
2020/01/31 16:54:03.4	357.520	-0.030	0.530	-0.170
2020/01/31 16:54:03.5	357.520	0.000	0.550	-0.120
2020/01/31 16:54:03.6	357.520	0.040	0.560	-0.080
2020/01/31 16:54:03.7	357.520	0.070	0.560	-0.040
2020/01/31 16:54:03.8	357.540	0.100	0.550	-0.000
2020/01/31 16:54:03.9	357.540	0.130	0.540	0.030
2020/01/31 16:54:04.0	357.550	0.160	0.530	0.070
2020/01/31 16:54:04.1	357.550	0.190	0.500	0.100
2020/01/31 16:54:04.2	357.550	0.210	0.470	0.120
2020/01/31 16:54:04.3	357.560	0.240	0.440	0.150
2020/01/31 16:54:04.4	357.570	0.260	0.400	0.170
2020/01/31 16:54:04.5	357.570	0.280	0.360	0.180
2020/01/31 16:54:04.6	357.580	0.290	0.310	0.200
2020/01/31 16:54:04.7	357.590	0.310	0.250	0.210
2020/01/31 16:54:04.8	357.590	0.320	0.200	0.220
2020/01/31 16:54:04.9	357.600	0.330	0.140	0.220
2020/01/31 16:54:05.0	357.610	0.330	0.070	0.220
2020/01/31 16:54:05.1	357.620	0.330	0.010	0.220
2020/01/31 16:54:05.2	357.630	0.330	-0.060	0.220
2020/01/31 16:54:05.3	357.650	0.330	-0.130	0.220
2020/01/31 16:54:05.4	357.660	0.330	-0.200	0.210
2020/01/31 16:54:05.5	357.670	0.320	-0.270	0.190
2020/01/31 16:54:05.6	357.690	0.310	-0.340	0.180
2020/01/31 16:54:05.7	357.700	0.300	-0.410	0.160
2020/01/31 16:54:05.8	357.710	0.290	-0.470	0.130
2020/01/31 16:54:05.9	357.720	0.270	-0.540	0.110
2020/01/31 16:54:06.0	357.740	0.260	-0.600	0.080
2020/01/31 16:54:06.1	357.750	0.240	-0.660	0.050
2020/01/31 16:54:06.2	357.770	0.220	-0.710	0.020
2020/01/31 16:54:06.3	357.790	0.200	-0.760	-0.010
2020/01/31 16:54:06.4	357.800	0.180	-0.810	-0.050
2020/01/31 16:54:06.5	357.820	0.170	-0.850	-0.080
2020/01/31 16:54:06.6	357.830	0.150	-0.880	-0.120
2020/01/31 16:54:06.7	357.850	0.130	-0.900	-0.150
2020/01/31 16:54:06.8	357.850	0.110	-0.920	-0.190
2020/01/31 16:54:06.9	357.860	0.090	-0.930	-0.220
2020/01/31 16:54:07.0	357.860	0.080	-0.930	-0.250
2020/01/31 16:54:07.1	357.870	0.060	-0.920	-0.270
2020/01/31 16:54:07.2	357.860	0.050	-0.910	-0.290
2020/01/31 16:54:07.3	357.860	0.030	-0.880	-0.300
2020/01/31 16:54:07.4	357.850	0.020	-0.850	-0.320
2020/01/31 16:54:07.5	357.840	0.010	-0.820	-0.330
2020/01/31 16:54:07.6	357.820	-0.000	-0.770	-0.330
2020/01/31 16:54:07.7	357.800	-0.010	-0.720	-0.340
2020/01/31 16:54:07.8	357.780	-0.020	-0.670	-0.340
2020/01/31 16:54:07.9	357.760	-0.030	-0.610	-0.340
2020/01/31 16:54:08.0	357.730	-0.040	-0.550	-0.340
2020/01/31 16:54:08.1	357.700	-0.050	-0.480	-0.340
2020/01/31 16:54:08.2	357.680	-0.060	-0.420	-0.340
2020/01/31 16:54:08.3	357.650	-0.070	-0.350	-0.340
2020/01/31 16:54:08.4	357.620	-0.080	-0.280	-0.330
2020/01/31 16:54:08.5	357.590	-0.090	-0.210	-0.340
2020/01/31 16:54:08.6	357.560	-0.100	-0.150	-0.340
2020/01/31 16:54:08.7	357.530	-0.110	-0.090	-0.340
2020/01/31 16:54:08.8	357.490	-0.110	-0.030	-0.350
2020/01/31 16:54:08.9	357.460	-0.120	0.030	-0.350
2020/01/31 16:54:09.0	357.440	-0.130	0.080	-0.360
2020/01/31 16:54:09.1	357.410	-0.140	0.130	-0.370
2020/01/31 16:54:09.2	357.390	-0.140	0.170	-0.380
2020/01/31 16:54:09.3	357.370	-0.150	0.210	-0.390
2020/01/31 16:54:09.4	357.350	-0.150	0.240	-0.400
2020/01/31 16:54:09.5	357.340	-0.160	0.270	-0.410
2020/01/31 16:54:09.6	357.330	-0.160	0.290	-0.430
2020/01/31 16:54:09.7	357.320	-0.160	0.300	-0.440
2020/01/31 16:54:09.8	357.330	-0.160	0.310	-0.460
2020/01/31 16:54:09.9	357.320	-0.160	0.310	-0.480
2020/01/31 16:54:10.0	357.320	-0.150	0.310	-0.490
2020/01/31 16:54:10.1	357.330	-0.150	0.300	-0.510
2020/01/31 16:54:10.2	357.330	-0.140	0.280	-0.520
2020/01/31 16:54:10.3	357.340	-0.130	0.260	-0.540
2020/01/31 16:54:10.4	357.350	-0.120	0.230	-0.550
2020/01/31 16:54:10.5	357.360	-0.110	0.190	-0.570
2020/01/31 16:54:10.6	357.380	-0.100	0.160	-0.580
2020/01/31 16:54:10.7	357.400	-0.080	0.120	-0.590
2020/01/31 16:54:10.8	357.400	-0.070	0.070	-0.600
2020/01/31 16:54:10.9	357.430	-0.050	0.020	-0.610
2020/01/31 16:54:11.0	357.450	-0.040	-0.030	-0.620
2020/01/31 16:54:11.1	357.470	-0.020	-0.080	-0.630
2020/01/31 16:54:11.2	357.490	-0.000	-0.130	-0.640
2020/01/31 16:54:11.3	357.520	0.020	-0.190	-0.640
2020/01/31 16:54:11.4	357.540	0.040	-0.240	-0.640
2020/01/31 16:54:11.5	357.570	0.060	-0.300	-0.650
2020/01/31 16:54:11.6	357.590	0.080	-0.350	-0.650
2020/01/31 16:54:11.7	357.610	0.100	-0.400	-0.640
2020/01/31 16:54:11.8	357.640	0.110	-0.450	-0.640
2020/01/31 16:54:11.9	357.660	0.130	-0.500	-0.630
2020/01/31 16:54:12.0	357.680	0.150	-0.540	-0.630
2020/01/31 16:54:12.1	357.710	0.170	-0.580	-0.620
2020/01/31 16:54:12.2	357.730	0.190	-0.620	-0.610
2020/01/31 16:54:12.3	357.750	0.200	-0.650	-0.590
2020/01/31 16:54:12.4	357.770	0.220	-0.670	-0.580
2020/01/31 16:54:12.5	357.800	0.230	-0.700	-0.560
2020/01/31 16:54:12.6	357.820	0.240	-0.710	-0.540
2020/01/31 16:54:12.7	357.840	0.250	-0.720	-0.510
2020/01/31 16:54:12.8	357.860	0.260	-0.730	-0.490
2020/01/31 16:54:12.9	357.870	0.270	-0.730	-0.460
2020/01/31 16:54:13.0	357.890	0.280	-0.720	-0.430
2020/01/31 16:54:13.1	357.900	0.280	-0.710	-0.400
2020/01/31 16:54:13.2	357.910	0.290	-0.700	-0.360
2020/01/31 16:54:13.3	357.920	0.290	-0.680	-0.330
2020/01/31 16:54:13.4	357.930	0.280	-0.650	-0.290
2020/01/31 16:54:13.5	357.940	0.280	-0.620	-0.250
2020/01/31 16:54:13.6	357.950	0.270	-0.590	-0.210
2020/01/31 16:54:13.7	357.950	0.260	-0.550	-0.170
2020/01/31 16:54:13.8	357.960	0.250	-0.500	-0.130
2020/01/31 16:54:13.9	357.970	0.240	-0.460	-0.080
2020/01/31 16:54:14.0	357.960	0.220	-0.410	-0.040
2020/01/31 16:54:14.1	357.960	0.200	-0.360	-0.000
2020/01/31 16:54:14.2	357.960	0.180	-0.310	0.040
2020/01/31 16:54:14.3	357.950	0.160	-0.260	0.070
2020/01/31 16:54:14.4	357.940	0.130	-0.210	0.110
2020/01/31 16:54:14.5	357.930	0.100	-0.160	0.140
2020/01/31 16:54:14.6	357.920	0.070	-0.110	0.170
2020/01/31 16:54:14.7	357.910	0.040	-0.070	0.200
2020/01/31 16:54:14.8	357.900	0.000	-0.020	0.230
2020/01/31 16:54:14.9	357.890	-0.030	0.020	0.250
2020/01/31 16:54:15.0	357.870	-0.070	0.060	0.260
2020/01/31 16:54:15.1	357.860	-0.100	0.100	0.270
2020/01/31 16:54:15.2	357.840	-0.140	0.130	0.280
2020/01/31 16:54:15.3	357.820	-0.180	0.160	0.280
2020/01/31 16:54:15.4	357.810	-0.210	0.190	0.280
2020/01/31 16:54:15.5	357.800	-0.250	0.210	0.270
2020/01/31 16:54:15.6	357.780	-0.280	0.220	0.260
2020/01/31 16:54:15.7	357.770	-0.310	0.240	0.250
2020/01/31 16:54:15.8	357.750	-0.350	0.240	0.220
2020/01/31 16:54:15.9	357.740	-0.370	0.250	0.200
2020/01/31 16:54:16.0	357.730	-0.400	0.240	0.170
2020/01/31 16:54:16.1	357.720	-0.420	0.240	0.140
2020/01/31 16:54:16.2	357.710	-0.440	0.220	0.110
2020/01/31 16:54:16.3	357.710	-0.460	0.210	0.070
2020/01/31 16:54:16.4	357.700	-0.480	0.190	0.040
2020/01/31 16:54:16.5	357.700	-0.490	0.170	-0.000
2020/01/31 16:54:16.6	357.690	-0.490	0.140	-0.040
2020/01/31 16:54:16.7	357.690	-0.500	0.110	-0.080
2020/01/31 16:54:16.8	357.680	-0.500	0.080	-0.110
2020/01/31 16:54:16.9	357.680	-0.490	0.040	-0.150
2020/01/31 16:54:17.0	357.670	-0.480	0.010	-0.180
2020/01/31 16:54:17.1	357.670	-0.470	-0.030	-0.210
2020/01/31 16:54:17.2	357.670	-0.460	-0.070	-0.240
2020/01/31 16:54:17.3	357.660	-0.440	-0.100	-0.270
2020/01/31 16:54:17.4	357.660	-0.420	-0.140	-0.300
2020/01/31 16:54:17.5	357.660	-0.390	-0.180	-0.320
2020/01/31 16:54:17.6	357.660	-0.360	-0.220	-0.340
2020/01/31 16:54:17.7	357.660	-0.330	-0.270	-0.360
2020/01/31 16:54:17.8	357.660	-0.300	-0.300	-0.390
2020/01/31 16:54:17.9	357.660	-0.260	-0.350	-0.410
2020/01/31 16:54:18.0	357.670	-0.220	-0.390	-0.430
2020/01/31 16:54:18.1	357.680	-0.180	-0.430	-0.450
2020/01/31 16:54:18.2	357.690	-0.140	-0.480	-0.480
2020/01/31 16:54:18.3	357.700	-0.100	-0.520	-0.500
2020/01/31 16:54:18.4	357.720	-0.050	-0.560	-0.530
2020/01/31 16:54:18.5	357.740	-0.010	-0.600	-0.560
2020/01/31 16:54:18.6	357.760	0.030	-0.640	-0.580
2020/01/31 16:54:18.7	357.780	0.080	-0.680	-0.610
2020/01/31 16:54:18.8	357.820	0.120	-0.720	-0.640
2020/01/31 16:54:18.9	357.850	0.160	-0.760	-0.670
2020/01/31 16:54:19.0	357.880	0.200	-0.790	-0.700
2020/01/31 16:54:19.1	357.910	0.240	-0.820	-0.730
2020/01/31 16:54:19.2	357.950	0.280	-0.850	-0.750
2020/01/31 16:54:19.3	357.980	0.320	-0.870	-0.780
2020/01/31 16:54:19.4	358.020	0.350	-0.890	-0.800
2020/01/31 16:54:19.5	358.050	0.390	-0.910	-0.810
2020/01/31 16:54:19.6	358.090	0.410	-0.920	-0.830
2020/01/31 16:54:19.7	358.120	0.440	-0.920	-0.840
2020/01/31 16:54:19.8	358.160	0.460	-0.930	-0.840
2020/01/31 16:54:19.9	358.190	0.480	-0.920	-0.840
2020/01/31 16:54:20.0	358.210	0.500	-0.910	-0.840
2020/01/31 16:54:20.1	358.240	0.510	-0.890	-0.830
2020/01/31 16:54:20.2	358.260	0.510	-0.860	-0.810
2020/01/31 16:54:20.3	358.280	0.510	-0.830	-0.790
2020/01/31 16:54:20.4	358.290	0.510	-0.790	-0.770
2020/01/31 16:54:20.5	358.300	0.500	-0.750	-0.740
2020/01/31 16:54:20.6	358.310	0.490	-0.690	-0.710
2020/01/31 16:54:20.7	358.310	0.470	-0.640	-0.680
2020/01/31 16:54:20.8	358.310	0.450	-0.580	-0.640
2020/01/31 16:54:20.9	358.300	0.420	-0.510	-0.600
2020/01/31 16:54:21.0	358.290	0.390	-0.440	-0.560
2020/01/31 16:54:21.1	358.280	0.360	-0.370	-0.520
2020/01/31 16:54:21.2	358.260	0.320	-0.300	-0.470
2020/01/31 16:54:21.3	358.240	0.280	-0.230	-0.430
2020/01/31 16:54:21.4	358.220	0.240	-0.160	-0.390
2020/01/31 16:54:21.5	358.190	0.190	-0.090	-0.350
2020/01/31 16:54:21.6	358.160	0.150	-0.020	-0.310
2020/01/31 16:54:21.7	358.130	0.100	0.050	-0.270
2020/01/31 16:54:21.8	358.110	0.050	0.110	-0.230
2020/01/31 16:54:21.9	358.070	0.000	0.160	-0.190
2020/01/31 16:54:22.0	358.040	-0.050	0.220	-0.150
2020/01/31 16:54:22.1	358.000	-0.090	0.270	-0.120
2020/01/31 16:54:22.2	357.970	-0.140	0.310	-0.090
2020/01/31 16:54:22.3	357.930	-0.180	0.340	-0.060
2020/01/31 16:54:22.4	357.900	-0.220	0.370	-0.030
2020/01/31 16:54:22.5	357.870	-0.260	0.390	-0.000
2020/01/31 16:54:22.6	357.830	-0.290	0.410	0.020
2020/01/31 16:54:22.7	357.800	-0.320	0.410	0.040
2020/01/31 16:54:22.8	357.770	-0.340	0.420	0.060
2020/01/31 16:54:22.9	357.740	-0.360	0.410	0.080
2020/01/31 16:54:23.0	357.710	-0.370	0.390	0.090
2020/01/31 16:54:23.1	357.680	-0.380	0.370	0.100
2020/01/31 16:54:23.2	357.660	-0.390	0.350	0.110
2020/01/31 16:54:23.3	357.630	-0.380	0.310	0.120
2020/01/31 16:54:23.4	357.610	-0.380	0.280	0.120
2020/01/31 16:54:23.5	357.590	-0.370	0.240	0.130
2020/01/31 16:54:23.6	357.560	-0.350	0.190	0.120
2020/01/31 16:54:23.7	357.550	-0.330	0.140	0.120
2020/01/31 16:54:23.8	357.530	-0.300	0.090	0.110
2020/01/31 16:54:23.9	357.520	-0.270	0.040	0.100
2020/01/31 16:54:24.0	357.510	-0.240	-0.020	0.090
2020/01/31 16:54:24.1	357.500	-0.210	-0.070	0.070
2020/01/31 16:54:24.2	357.490	-0.170	-0.130	0.060
2020/01/31 16:54:24.3	357.480	-0.130	-0.180	0.040
2020/01/31 16:54:24.4	357.480	-0.090	-0.240	0.010
2020/01/31 16:54:24.5	357.490	-0.040	-0.290	-0.010
2020/01/31 16:54:24.6	357.490	-0.000	-0.340	-0.040
2020/01/31 16:54:24.7	357.500	0.040	-0.390	-0.070
2020/01/31 16:54:24.8	357.520	0.080	-0.440	-0.100
2020/01/31 16:54:24.9	357.540	0.120	-0.480	-0.140
2020/01/31 16:54:25.0	357.560	0.160	-0.520	-0.170
2020/01/31 16:54:25.1	357.580	0.200	-0.560	-0.210
2020/01/31 16:54:25.2	357.610	0.230	-0.590	-0.250
2020/01/31 16:54:25.3	357.630	0.270	-0.610	-0.290
2020/01/31 16:54:25.4	357.660	0.290	-0.630	-0.320
2020/01/31 16:54:25.5	357.690	0.320	-0.650	-0.360
2020/01/31 16:54:25.6	357.730	0.340	-0.660	-0.390
2020/01/31 16:54:25.7	357.760	0.360	-0.660	-0.420
2020/01/31 16:54:25.8	357.780	0.370	-0.660	-0.460
2020/01/31 16:54:25.9	357.810	0.370	-0.660	-0.480
2020/01/31 16:54:26.0	357.840	0.380	-0.640	-0.510
2020/01/31 16:54:26.1	357.870	0.370	-0.630	-0.530
2020/01/31 16:54:26.2	357.900	0.360	-0.610	-0.550
2020/01/31 16:54:26.3	357.920	0.350	-0.580	-0.560
2020/01/31 16:54:26.4	357.950	0.330	-0.550	-0.580
2020/01/31 16:54:26.5	357.970	0.310	-0.520	-0.590
2020/01/31 16:54:26.6	357.990	0.290	-0.480	-0.600
2020/01/31 16:54:26.7	358.020	0.260	-0.450	-0.610
2020/01/31 16:54:26.8	358.030	0.220	-0.410	-0.620
2020/01/31 16:54:26.9	358.050	0.190	-0.360	-0.620
2020/01/31 16:54:27.0	358.060	0.150	-0.320	-0.630
2020/01/31 16:54:27.1	358.080	0.110	-0.280	-0.630
2020/01/31 16:54:27.2	358.090	0.070	-0.240	-0.630
2020/01/31 16:54:27.3	358.110	0.020	-0.190	-0.630
2020/01/31 16:54:27.4	358.120	-0.020	-0.150	-0.630
2020/01/31 16:54:27.5	358.130	-0.070	-0.110	-0.620
2020/01/31 16:54:27.6	358.140	-0.110	-0.070	-0.620
2020/01/31 16:54:27.7	358.140	-0.150	-0.030	-0.610
2020/01/31 16:54:27.8	358.140	-0.200	0.000	-0.610
2020/01/31 16:54:27.9	358.140	-0.240	0.030	-0.590
2020/01/31 16:54:28.0	358.140	-0.270	0.070	-0.580
2020/01/31 16:54:28.1	358.140	-0.310	0.090	-0.570
2020/01/31 16:54:28.2	358.130	-0.340	0.120	-0.550
2020/01/31 16:54:28.3	358.130	-0.370	0.140	-0.530
2020/01/31 16:54:28.4	358.120	-0.400	0.160	-0.510
2020/01/31 16:54:28.5	358.110	-0.420	0.180	-0.490
2020/01/31 16:54:28.6	358.090	-0.440	0.190	-0.460
2020/01/31 16:54:28.7	358.080	-0.460	0.200	-0.440
2020/01/31 16:54:28.8	358.070	-0.470	0.210	-0.410
2020/01/31 16:54:28.9	358.050	-0.480	0.210	-0.380
2020/01/31 16:54:29.0	358.030	-0.480	0.210	-0.360
2020/01/31 16:54:29.1	358.010	-0.490	0.200	-0.330
2020/01/31 16:54:29.2	357.990	-0.490	0.190	-0.310
2020/01/31 16:54:29.3	357.970	-0.480	0.180	-0.280
2020/01/31 16:54:29.4	357.940	-0.480	0.160	-0.260
2020/01/31 16:54:29.5	357.920	-0.470	0.140	-0.240
2020/01/31 16:54:29.6	357.890	-0.450	0.120	-0.220
2020/01/31 16:54:29.7	357.870	-0.440	0.090	-0.200
2020/01/31 16:54:29.8	357.840	-0.420	0.060	-0.190
2020/01/31 16:54:29.9	357.820	-0.410	0.030	-0.170
2020/01/31 16:54:30.0	357.800	-0.390	-0.000	-0.170
2020/01/31 16:54:30.1	357.780	-0.370	-0.040	-0.160
2020/01/31 16:54:30.2	357.760	-0.340	-0.080	-0.150
2020/01/31 16:54:30.3	357.740	-0.320	-0.120	-0.150
2020/01/31 16:54:30.4	357.720	-0.290	-0.150	-0.150
2020/01/31 16:54:30.5	357.710	-0.270	-0.190	-0.150
2020/01/31 16:54:30.6	357.690	-0.240	-0.230	-0.160
2020/01/31 16:54:30.7	357.680	-0.210	-0.270	-0.160
2020/01/31 16:54:30.8	357.680	-0.190	-0.300	-0.170
2020/01/31 16:54:30.9	357.670	-0.160	-0.340	-0.180
2020/01/31 16:54:31.0	357.660	-0.130	-0.370	-0.190
2020/01/31 16:54:31.1	357.650	-0.100	-0.400	-0.200
2020/01/31 16:54:31.2	357.640	-0.070	-0.430	-0.200
2020/01/31 16:54:31.3	357.630	-0.050	-0.450	-0.210
2020/01/31 16:54:31.4	357.630	-0.020	-0.470	-0.210
2020/01/31 16:54:31.5	357.620	0.010	-0.490	-0.210
2020/01/31 16:54:31.6	357.610	0.040	-0.510	-0.210
2020/01/31 16:54:31.7	357.610	0.060	-0.520	-0.210
2020/01/31 16:54:31.8	357.600	0.090	-0.530	-0.200
2020/01/31 16:54:31.9	357.600	0.120	-0.530	-0.190
2020/01/31 16:54:32.0	357.590	0.140	-0.530	-0.180
2020/01/31 16:54:32.1	357.580	0.170	-0.520	-0.170
2020/01/31 16:54:32.2	357.580	0.190	-0.520	-0.150
2020/01/31 16:54:32.3	357.570	0.210	-0.510	-0.130
2020/01/31 16:54:32.4	357.560	0.240	-0.500	-0.110
2020/01/31 16:54:32.5	357.560	0.260	-0.480	-0.090
2020/01/31 16:54:32.6	357.550	0.280	-0.470	-0.070
2020/01/31 16:54:32.7	357.550	0.300	-0.450	-0.040
2020/01/31 16:54:32.8	357.540	0.320	-0.430	-0.020
2020/01/31 16:54:32.9	357.530	0.330	-0.420	0.010
2020/01/31 16:54:33.0	357.530	0.350	-0.410	0.030
2020/01/31 16:54:33.1	357.530	0.360	-0.390	0.060
2020/01/31 16:54:33.2	357.540	0.380	-0.380	0.080
2020/01/31 16:54:33.3	357.540	0.390	-0.370	0.100
2020/01/31 16:54:33.4	357.550	0.400	-0.370	0.120
2020/01/31 16:54:33.5	357.560	0.400	-0.360	0.130
2020/01/31 16:54:33.6	357.570	0.410	-0.360	0.150
2020/01/31 16:54:33.7	357.580	0.410	-0.370	0.160
2020/01/31 16:54:33.8	357.590	0.420	-0.370	0.160
2020/01/31 16:54:33.9	357.600	0.420	-0.380	0.170
2020/01/31 16:54:34.0	357.620	0.420	-0.390	0.160
2020/01/31 16:54:34.1	357.640	0.420	-0.410	0.160
2020/01/31 16:54:34.2	357.660	0.410	-0.420	0.150
2020/01/31 16:54:34.3	357.680	0.410	-0.440	0.140
2020/01/31 16:54:34.4	357.710	0.400	-0.460	0.120
2020/01/31 16:54:34.5	357.730	0.390	-0.480	0.100
2020/01/31 16:54:34.6	357.750	0.380	-0.510	0.080
2020/01/31 16:54:34.7	357.780	0.370	-0.530	0.050
2020/01/31 16:54:34.8	357.800	0.350	-0.560	0.030
2020/01/31 16:54:34.9	357.830	0.340	-0.580	-0.000
2020/01/31 16:54:35.0	357.850	0.320	-0.600	-0.030
2020/01/31 16:54:35.1	357.880	0.300	-0.620	-0.060
2020/01/31 16:54:35.2	357.910	0.290	-0.640	-0.090
2020/01/31 16:54:35.3	357.930	0.270	-0.660	-0.120
2020/01/31 16:54:35.4	357.960	0.250	-0.680	-0.160
2020/01/31 16:54:35.5	357.980	0.220	-0.690	-0.190
2020/01/31 16:54:35.6	358.010	0.200	-0.700	-0.220
2020/01/31 16:54:35.7	358.030	0.180	-0.700	-0.250
2020/01/31 16:54:35.8	358.070	0.150	-0.700	-0.280
2020/01/31 16:54:35.9	358.090	0.130	-0.700	-0.300
2020/01/31 16:54:36.0	358.110	0.110	-0.690	-0.330
2020/01/31 16:54:36.1	358.140	0.080	-0.680	-0.360
2020/01/31 16:54:36.2	358.170	0.060	-0.670	-0.380
2020/01/31 16:54:36.3	358.190	0.030	-0.660	-0.410
2020/01/31 16:54:36.4	358.220	0.010	-0.640	-0.430
2020/01/31 16:54:36.5	358.240	-0.010	-0.610	-0.460
2020/01/31 16:54:36.6	358.260	-0.030	-0.590	-0.480
2020/01/31 16:54:36.7	358.290	-0.060	-0.560	-0.500
2020/01/31 16:54:36.8	358.300	-0.080	-0.530	-0.510
2020/01/31 16:54:36.9	358.330	-0.100	-0.500	-0.530
2020/01/31 16:54:37.0	358.350	-0.120	-0.470	-0.550
2020/01/31 16:54:37.1	358.370	-0.130	-0.440	-0.560
2020/01/31 16:54:37.2	358.390	-0.150	-0.400	-0.570
2020/01/31 16:54:37.3	358.410	-0.160	-0.360	-0.580
2020/01/31 16:54:37.4	358.420	-0.180	-0.330	-0.590
2020/01/31 16:54:37.5	358.440	-0.190	-0.290	-0.590
2020/01/31 16:54:37.6	358.450	-0.200	-0.250	-0.590
2020/01/31 16:54:37.7	358.460	-0.210	-0.210	-0.590
2020/01/31 16:54:37.8	358.480	-0.220	-0.180	-0.590
2020/01/31 16:54:37.9	358.490	-0.220	-0.140	-0.590
2020/01/31 16:54:38.0	358.500	-0.230	-0.100	-0.580
2020/01/31 16:54:38.1	358.500	-0.230	-0.060	-0.560
2020/01/31 16:54:38.2	358.500	-0.230	-0.020	-0.550
2020/01/31 16:54:38.3	358.510	-0.230	0.020	-0.530
2020/01/31 16:54:38.4	358.510	-0.230	0.050	-0.510
2020/01/31 16:54:38.5	358.510	-0.230	0.090	-0.480
2020/01/31 16:54:38.6	358.500	-0.220	0.120	-0.460
2020/01/31 16:54:38.7	358.500	-0.220	0.160	-0.430
2020/01/31 16:54:38.8	358.510	-0.220	0.190	-0.400
2020/01/31 16:54:38.9	358.500	-0.210	0.220	-0.380
2020/01/31 16:54:39.0	358.490	-0.200	0.250	-0.350
2020/01/31 16:54:39.1	358.480	-0.200	0.270	-0.320
2020/01/31 16:54:39.2	358.470	-0.190	0.300	-0.290
2020/01/31 16:54:39.3	358.460	-0.180	0.320	-0.260
2020/01/31 16:54:39.4	358.440	-0.180	0.340	-0.240
2020/01/31 16:54:39.5	358.430	-0.170	0.350	-0.210
2020/01/31 16:54:39.6	358.410	-0.160	0.370	-0.180
2020/01/31 16:54:39.7	358.390	-0.160	0.380	-0.160
2020/01/31 16:54:39.8	358.380	-0.160	0.390	-0.130
2020/01/31 16:54:39.9	358.350	-0.150	0.400	-0.110
2020/01/31 16:54:40.0	358.330	-0.150	0.400	-0.090
2020/01/31 16:54:40.1	358.310	-0.150	0.400	-0.080
2020/01/31 16:54:40.2	358.280	-0.150	0.400	-0.060
2020/01/31 16:54:40.3	358.260	-0.150	0.400	-0.050
2020/01/31 16:54:40.4	358.230	-0.150	0.400	-0.050
2020/01/31 16:54:40.5	358.200	-0.160	0.390	-0.040
2020/01/31 16:54:40.6	358.180	-0.160	0.380	-0.040
2020/01/31 16:54:40.7	358.150	-0.160	0.370	-0.040
2020/01/31 16:54:40.8	358.130	-0.170	0.360	-0.050
2020/01/31 16:54:40.9	358.100	-0.180	0.340	-0.060
2020/01/31 16:54:41.0	358.080	-0.180	0.320	-0.060
2020/01/31 16:54:41.1	358.060	-0.190	0.310	-0.080
2020/01/31 16:54:41.2	358.040	-0.200	0.290	-0.090
2020/01/31 16:54:41.3	358.020	-0.200	0.270	-0.100
2020/01/31 16:54:41.4	358.010	-0.210	0.240	-0.120
2020/01/31 16:54:41.5	357.990	-0.210	0.220	-0.140
2020/01/31 16:54:41.6	357.980	-0.220	0.200	-0.150
2020/01/31 16:54:41.7	357.970	-0.220	0.170	-0.170
2020/01/31 16:54:41.8	357.950	-0.220	0.150	-0.190
2020/01/31 16:54:41.9	357.950	-0.220	0.120	-0.210
2020/01/31 16:54:42.0	357.940	-0.220	0.090	-0.220
2020/01/31 16:54:42.1	357.930	-0.220	0.070	-0.230
2020/01/31 16:54:42.2	357.930	-0.220	0.040	-0.250
2020/01/31 16:54:42.3	357.930	-0.210	0.010	-0.260
2020/01/31 16:54:42.4	357.920	-0.210	-0.020	-0.270
2020/01/31 16:54:42.5	357.920	-0.200	-0.050	-0.280
2020/01/31 16:54:42.6	357.920	-0.190	-0.070	-0.290
2020/01/31 16:54:42.7	357.910	-0.180	-0.100	-0.300
2020/01/31 16:54:42.8	357.910	-0.170	-0.130	-0.310
2020/01/31 16:54:42.9	357.910	-0.160	-0.160	-0.320
2020/01/31 16:54:43.0	357.900	-0.150	-0.190	-0.330
2020/01/31 16:54:43.1	357.900	-0.140	-0.220	-0.330
2020/01/31 16:54:43.2	357.900	-0.130	-0.250	-0.340
2020/01/31 16:54:43.3	357.900	-0.110	-0.280	-0.350
2020/01/31 16:54:43.4	357.890	-0.100	-0.320	-0.350
2020/01/31 16:54:43.5	357.890	-0.080	-0.350	-0.360
2020/01/31 16:54:43.6	357.890	-0.070	-0.380	-0.370
2020/01/31 16:54:43.7	357.890	-0.050	-0.410	-0.380
2020/01/31 16:54:43.8	357.870	-0.040	-0.440	-0.380
2020/01/31 16:54:43.9	357.880	-0.020	-0.470	-0.390
2020/01/31 16:54:44.0	357.880	-0.010	-0.500	-0.400
2020/01/31 16:54:44.1	357.880	0.010	-0.540	-0.410
2020/01/31 16:54:44.2	357.880	0.020	-0.570	-0.420
2020/01/31 16:54:44.3	357.890	0.030	-0.600	-0.430
2020/01/31 16:54:44.4	357.890	0.050	-0.630	-0.440
2020/01/31 16:54:44.5	357.900	0.060	-0.660	-0.450
2020/01/31 16:54:44.6	357.910	0.070	-0.680	-0.460
2020/01/31 16:54:44.7	357.910	0.090	-0.710	-0.460
2020/01/31 16:54:44.8	357.920	0.100	-0.730	-0.470
2020/01/31 16:54:44.9	357.930	0.110	-0.750	-0.470
2020/01/31 16:54:45.0	357.940	0.120	-0.770	-0.480
2020/01/31 16:54:45.1	357.950	0.130	-0.790	-0.480
2020/01/31 16:54:45.2	357.960	0.140	-0.800	-0.480
2020/01/31 16:54:45.3	357.970	0.140	-0.810	-0.480
2020/01/31 16:54:45.4	357.980	0.150	-0.820	-0.480
2020/01/31 16:54:45.5	358.000	0.160	-0.830	-0.470
2020/01/31 16:54:45.6	358.010	0.160	-0.830	-0.470
2020/01/31 16:54:45.7	358.030	0.170	-0.840	-0.470
2020/01/31 16:54:45.8	358.040	0.180	-0.840	-0.470
2020/01/31 16:54:45.9	358.060	0.180	-0.840	-0.480
2020/01/31 16:54:46.0	358.080	0.190	-0.840	-0.480
2020/01/31 16:54:46.1	358.110	0.190	-0.830	-0.480
2020/01/31 16:54:46.2	358.130	0.200	-0.830	-0.490
2020/01/31 16:54:46.3	358.160	0.200	-0.830	-0.490
2020/01/31 16:54:46.4	358.190	0.210	-0.820	-0.500
2020/01/31 16:54:46.5	358.220	0.210	-0.820	-0.510
2020/01/31 16:54:46.6	358.260	0.220	-0.810	-0.510
2020/01/31 16:54:46.7	358.290	0.230	-0.810	-0.520
2020/01/31 16:54:46.8	358.310	0.240	-0.800	-0.530
2020/01/31 16:54:46.9	358.350	0.240	-0.790	-0.540
2020/01/31 16:54:47.0	358.380	0.250	-0.780	-0.540
2020/01/31 16:54:47.1	358.410	0.260	-0.780	-0.540
2020/01/31 16:54:47.2	358.440	0.280	-0.770	-0.540
2020/01/31 16:54:47.3	358.470	0.290	-0.750	-0.530
2020/01/31 16:54:47.4	358.500	0.300	-0.740	-0.530
2020/01/31 16:54:47.5	358.530	0.320	-0.720	-0.520
2020/01/31 16:54:47.6	358.550	0.330	-0.710	-0.500
2020/01/31 16:54:47.7	358.570	0.340	-0.690	-0.480
2020/01/31 16:54:47.8	358.590	0.360	-0.670	-0.450
2020/01/31 16:54:47.9	358.600	0.370	-0.640	-0.430
2020/01/31 16:54:48.0	358.610	0.390	-0.620	-0.400
2020/01/31 16:54:48.1	358.630	0.400	-0.590	-0.370
2020/01/31 16:54:48.2	358.630	0.410	-0.560	-0.330
2020/01/31 16:54:48.3	358.640	0.420	-0.530	-0.300
2020/01/31 16:54:48.4	358.640	0.430	-0.500	-0.260
2020/01/31 16:54:48.5	358.650	0.440	-0.470	-0.230
2020/01/31 16:54:48.6	358.650	0.450	-0.440	-0.190
2020/01/31 16:54:48.7	358.650	0.460	-0.410	-0.150
2020/01/31 16:54:48.8	358.650	0.460	-0.370	-0.120
2020/01/31 16:54:48.9	358.650	0.460	-0.340	-0.090
2020/01/31 16:54:49.0	358.650	0.460	-0.320	-0.060
2020/01/31 16:54:49.1	358.640	0.450	-0.290	-0.030
2020/01/31 16:54:49.2	358.640	0.450	-0.260	-0.010
2020/01/31 16:54:49.3	358.630	0.440	-0.240	0.020
2020/01/31 16:54:49.4	358.620	0.420	-0.220	0.030
2020/01/31 16:54:49.5	358.610	0.400	-0.190	0.050
2020/01/31 16:54:49.6	358.600	0.380	-0.170	0.060
2020/01/31 16:54:49.7	358.590	0.360	-0.160	0.070
2020/01/31 16:54:49.8	358.570	0.330	-0.140	0.070
2020/01/31 16:54:49.9	358.560	0.300	-0.130	0.070
2020/01/31 16:54:50.0	358.540	0.260	-0.110	0.070
2020/01/31 16:54:50.1	358.530	0.230	-0.100	0.060
2020/01/31 16:54:50.2	358.510	0.190	-0.080	0.040
2020/01/31 16:54:50.3	358.490	0.140	-0.070	0.030
2020/01/31 16:54:50.4	358.480	0.100	-0.060	0.000
2020/01/31 16:54:50.5	358.460	0.050	-0.050	-0.020
2020/01/31 16:54:50.6	358.440	-0.000	-0.030	-0.050
2020/01/31 16:54:50.7	358.430	-0.050	-0.020	-0.090
2020/01/31 16:54:50.8	358.430	-0.110	-0.010	-0.130
2020/01/31 16:54:50.9	358.420	-0.160	0.010	-0.170
2020/01/31 16:54:51.0	358.410	-0.210	0.020	-0.210
2020/01/31 16:54:51.1	358.400	-0.260	0.030	-0.250
2020/01/31 16:54:51.2	358.390	-0.310	0.050	-0.300
2020/01/31 16:54:51.3	358.380	-0.370	0.060	-0.340
2020/01/31 16:54:51.4	358.380	-0.410	0.080	-0.390
2020/01/31 16:54:51.5	358.370	-0.460	0.090	-0.440
2020/01/31 16:54:51.6	358.370	-0.500	0.110	-0.490
2020/01/31 16:54:51.7	358.380	-0.540	0.130	-0.540
2020/01/31 16:54:51.8	358.370	-0.580	0.150	-0.590
2020/01/31 16:54:51.9	358.380	-0.610	0.170	-0.640
2020/01/31 16:54:52.0	358.390	-0.640	0.190	-0.690
2020/01/31 16:54:52.1	358.400	-0.670	0.200	-0.740
2020/01/31 16:54:52.2	358.410	-0.690	0.220	-0.780
2020/01/31 16:54:52.3	358.420	-0.700	0.240	-0.820
2020/01/31 16:54:52.4	358.430	-0.710	0.260	-0.860
2020/01/31 16:54:52.5	358.440	-0.720	0.280	-0.900
2020/01/31 16:54:52.6	358.450	-0.720	0.300	-0.930
2020/01/31 16:54:52.7	358.460	-0.720	0.320	-0.950
2020/01/31 16:54:52.8	358.460	-0.710	0.330	-0.980
2020/01/31 16:54:52.9	358.470	-0.700	0.350	-0.990
2020/01/31 16:54:53.0	358.470	-0.690	0.370	-1.000
2020/01/31 16:54:53.1	358.470	-0.670	0.380	-1.010
2020/01/31 16:54:53.2	358.470	-0.650	0.400	-1.010
2020/01/31 16:54:53.3	358.470	-0.630	0.410	-1.000
2020/01/31 16:54:53.4	358.460	-0.600	0.420	-0.990
2020/01/31 16:54:53.5	358.460	-0.570	0.430	-0.980
2020/01/31 16:54:53.6	358.450	-0.540	0.430	-0.960
2020/01/31 16:54:53.7	358.440	-0.510	0.430	-0.930
2020/01/31 16:54:53.8	358.410	-0.480	0.440	-0.900
2020/01/31 16:54:53.9	358.400	-0.440	0.430	-0.870
2020/01/31 16:54:54.0	358.380	-0.400	0.420	-0.830
2020/01/31 16:54:54.1	358.360	-0.370	0.410	-0.790
2020/01/31 16:54:54.2	358.350	-0.330	0.400	-0.750
2020/01/31 16:54:54.3	358.330	-0.290	0.380	-0.710
2020/01/31 16:54:54.4	358.310	-0.250	0.350	-0.660
2020/01/31 16:54:54.5	358.290	-0.220	0.320	-0.610
2020/01/31 16:54:54.6	358.270	-0.180	0.290	-0.570
2020/01/31 16:54:54.7	358.260	-0.140	0.260	-0.520
2020/01/31 16:54:54.8	358.250	-0.110	0.220	-0.470
2020/01/31 16:54:54.9	358.230	-0.080	0.170	-0.430
2020/01/31 16:54:55.0	358.210	-0.040	0.130	-0.390
2020/01/31 16:54:55.1	358.200	-0.010	0.080	-0.350
2020/01/31 16:54:55.2	358.180	0.020	0.020	-0.310
2020/01/31 16:54:55.3	358.170	0.040	-0.030	-0.270
2020/01/31 16:54:55.4	358.150	0.070	-0.090	-0.240
2020/01/31 16:54:55.5	358.140	0.090	-0.140	-0.210
2020/01/31 16:54:55.6	358.130	0.120	-0.200	-0.180
2020/01/31 16:54:55.7	358.120	0.140	-0.260	-0.160
2020/01/31 16:54:55.8	358.100	0.160	-0.320	-0.140
2020/01/31 16:54:55.9	358.100	0.170	-0.380	-0.120
2020/01/31 16:54:56.0	358.090	0.190	-0.440	-0.110
2020/01/31 16:54:56.1	358.080	0.200	-0.490	-0.100
2020/01/31 16:54:56.2	358.080	0.210	-0.550	-0.090
2020/01/31 16:54:56.3	358.070	0.220	-0.600	-0.080
2020/01/31 16:54:56.4	358.070	0.230	-0.640	-0.070
2020/01/31 16:54:56.5	358.070	0.240	-0.680	-0.070
2020/01/31 16:54:56.6	358.070	0.250	-0.720	-0.060
2020/01/31 16:54:56.7	358.070	0.250	-0.750	-0.060
2020/01/31 16:54:56.8	358.070	0.250	-0.780	-0.060
2020/01/31 16:54:56.9	358.080	0.260	-0.800	-0.060
2020/01/31 16:54:57.0	358.080	0.260	-0.820	-0.060
2020/01/31 16:54:57.1	358.090	0.260	-0.830	-0.070
2020/01/31 16:54:57.2	358.100	0.260	-0.840	-0.070
2020/01/31 16:54:57.3	358.110	0.260	-0.840	-0.070
2020/01/31 16:54:57.4	358.120	0.260	-0.840	-0.070
2020/01/31 16:54:57.5	358.130	0.250	-0.830	-0.080
2020/01/31 16:54:57.6	358.150	0.250	-0.830	-0.080
2020/01/31 16:54:57.7	358.160	0.250	-0.810	-0.090
2020/01/31 16:54:57.8	358.180	0.240	-0.800	-0.100
2020/01/31 16:54:57.9	358.190	0.240	-0.780	-0.100
2020/01/31 16:54:58.0	358.210	0.240	-0.770	-0.110
2020/01/31 16:54:58.1	358.220	0.230	-0.750	-0.120
2020/01/31 16:54:58.2	358.240	0.220	-0.730	-0.130
2020/01/31 16:54:58.3	358.250	0.220	-0.710	-0.140
2020/01/31 16:54:58.4	358.260	0.210	-0.690	-0.150
2020/01/31 16:54:58.5	358.280	0.200	-0.670	-0.160
2020/01/31 16:54:58.6	358.280	0.200	-0.650	-0.170
2020/01/31 16:54:58.7	358.290	0.190	-0.630	-0.180
2020/01/31 16:54:58.8	358.320	0.180	-0.610	-0.190
2020/01/31 16:54:58.9	358.320	0.170	-0.590	-0.210
2020/01/31 16:54:59.0	358.330	0.160	-0.570	-0.220
2020/01/31 16:54:59.1	358.330	0.150	-0.560	-0.240
2020/01/31 16:54:59.2	358.340	0.140	-0.540	-0.250
2020/01/31 16:54:59.3	358.340	0.130	-0.530	-0.270
2020/01/31 16:54:59.4	358.350	0.120	-0.520	-0.290
2020/01/31 16:54:59.5	358.350	0.110	-0.510	-0.310
2020/01/31 16:54:59.6	358.350	0.100	-0.500	-0.330
2020/01/31 16:54:59.7	358.360	0.090	-0.500	-0.350
2020/01/31 16:54:59.8	358.370	0.080	-0.500	-0.380
2020/01/31 16:54:59.9	358.370	0.070	-0.500	-0.400
2020/01/31 16:55:00.0	358.380	0.060	-0.500	-0.430
2020/01/31 16:55:00.1	358.390	0.060	-0.500	-0.460
2020/01/31 16:55:00.2	358.400	0.050	-0.510	-0.490
2020/01/31 16:55:00.3	358.410	0.040	-0.520	-0.520
2020/01/31 16:55:00.4	358.420	0.040	-0.520	-0.550
2020/01/31 16:55:00.5	358.440	0.030	-0.530	-0.580
2020/01/31 16:55:00.6	358.450	0.030	-0.550	-0.610
2020/01/31 16:55:00.7	358.460	0.020	-0.560	-0.630
2020/01/31 16:55:00.8	358.480	0.020	-0.560	-0.660
2020/01/31 16:55:00.9	358.490	0.020	-0.570	-0.690
2020/01/31 16:55:01.0	358.510	0.020	-0.580	-0.710
2020/01/31 16:55:01.1	358.520	0.010	-0.590	-0.730
2020/01/31 16:55:01.2	358.530	0.010	-0.590	-0.750
2020/01/31 16:55:01.3	358.540	0.010	-0.590	-0.770
2020/01/31 16:55:01.4	358.550	0.010	-0.590	-0.780
2020/01/31 16:55:01.5	358.560	0.010	-0.590	-0.790
2020/01/31 16:55:01.6	358.570	0.010	-0.590	-0.790
2020/01/31 16:55:01.7	358.580	0.000	-0.580	-0.800
2020/01/31 16:55:01.8	358.580	0.000	-0.570	-0.800
2020/01/31 16:55:01.9	358.590	0.000	-0.560	-0.800
2020/01/31 16:55:02.0	358.590	-0.000	-0.540	-0.800
2020/01/31 16:55:02.1	358.600	-0.000	-0.530	-0.800
2020/01/31 16:55:02.2	358.610	-0.000	-0.500	-0.790
2020/01/31 16:55:02.3	358.610	-0.010	-0.480	-0.780
2020/01/31 16:55:02.4	358.620	-0.010	-0.450	-0.780
2020/01/31 16:55:02.5	358.630	-0.010	-0.420	-0.770
2020/01/31 16:55:02.6	358.640	-0.010	-0.390	-0.760
2020/01/31 16:55:02.7	358.650	-0.010	-0.360	-0.750
2020/01/31 16:55:02.8	358.650	-0.010	-0.320	-0.740
2020/01/31 16:55:02.9	358.660	-0.010	-0.280	-0.720
2020/01/31 16:55:03.0	358.660	-0.010	-0.240	-0.710
2020/01/31 16:55:03.1	358.670	-0.020	-0.200	-0.690
2020/01/31 16:55:03.2	358.670	-0.010	-0.150	-0.670
2020/01/31 16:55:03.3	358.680	-0.010	-0.110	-0.650
2020/01/31 16:55:03.4	358.680	-0.010	-0.060	-0.630
2020/01/31 16:55:03.5	358.680	-0.010	-0.010	-0.600
2020/01/31 16:55:03.6	358.680	-0.010	0.030	-0.570
2020/01/31 16:55:03.7	358.680	-0.010	0.080	-0.540
2020/01/31 16:55:03.8	358.680	-0.010	0.130	-0.500
2020/01/31 16:55:03.9	358.680	-0.000	0.180	-0.470
2020/01/31 16:55:04.0	358.670	-0.000	0.220	-0.430
2020/01/31 16:55:04.1	358.660	0.000	0.270	-0.390
2020/01/31 16:55:04.2	358.650	0.000	0.320	-0.350
2020/01/31 16:55:04.3	358.640	0.000	0.360	-0.300
2020/01/31 16:55:04.4	358.630	0.000	0.400	-0.260
2020/01/31 16:55:04.5	358.610	0.000	0.440	-0.210
2020/01/31 16:55:04.6	358.590	0.000	0.470	-0.170
2020/01/31 16:55:04.7	358.570	-0.000	0.500	-0.120
2020/01/31 16:55:04.8	358.550	-0.000	0.530	-0.070
2020/01/31 16:55:04.9	358.520	-0.010	0.560	-0.030
2020/01/31 16:55:05.0	358.500	-0.020	0.580	0.020
2020/01/31 16:55:05.1	358.470	-0.020	0.590	0.060
2020/01/31 16:55:05.2	358.440	-0.030	0.600	0.100
2020/01/31 16:55:05.3	358.410	-0.040	0.610	0.130
2020/01/31 16:55:05.4	358.380	-0.060	0.610	0.170
2020/01/31 16:55:05.5	358.350	-0.070	0.610	0.200
2020/01/31 16:55:05.6	358.310	-0.080	0.600	0.230
2020/01/31 16:55:05.7	358.280	-0.100	0.590	0.250
2020/01/31 16:55:05.8	358.250	-0.110	0.570	0.270
2020/01/31 16:55:05.9	358.210	-0.120	0.540	0.290
2020/01/31 16:55:06.0	358.180	-0.140	0.520	0.310
2020/01/31 16:55:06.1	358.150	-0.150	0.480	0.310
2020/01/31 16:55:06.2	358.130	-0.170	0.440	0.320
2020/01/31 16:55:06.3	358.100	-0.180	0.400	0.320
2020/01/31 16:55:06.4	358.070	-0.190	0.350	0.320
2020/01/31 16:55:06.5	358.050	-0.200	0.300	0.310
2020/01/31 16:55:06.6	358.030	-0.210	0.240	0.300
2020/01/31 16:55:06.7	358.010	-0.220	0.180	0.280
2020/01/31 16:55:06.8	358.010	-0.220	0.110	0.260
2020/01/31 16:55:06.9	357.990	-0.230	0.040	0.240
2020/01/31 16:55:07.0	357.980	-0.230	-0.020	0.210
2020/01/31 16:55:07.1	357.980	-0.230	-0.100	0.180
2020/01/31 16:55:07.2	357.970	-0.230	-0.170	0.150
2020/01/31 16:55:07.3	357.970	-0.220	-0.240	0.120
2020/01/31 16:55:07.4	357.970	-0.220	-0.310	0.080
2020/01/31 16:55:07.5	357.980	-0.210	-0.390	0.040
2020/01/31 16:55:07.6	357.980	-0.200	-0.460	0.000
2020/01/31 16:55:07.7	357.990	-0.190	-0.520	-0.040
2020/01/31 16:55:07.8	358.000	-0.170	-0.590	-0.080
2020/01/31 16:55:07.9	358.000	-0.160	-0.660	-0.130
2020/01/31 16:55:08.0	358.010	-0.140	-0.710	-0.170
2020/01/31 16:55:08.1	358.030	-0.130	-0.770	-0.210
2020/01/31 16:55:08.2	358.040	-0.110	-0.820	-0.260
2020/01/31 16:55:08.3	358.050	-0.090	-0.870	-0.300
2020/01/31 16:55:08.4	358.060	-0.080	-0.910	-0.340
2020/01/31 16:55:08.5	358.070	-0.060	-0.940	-0.380
2020/01/31 16:55:08.6	358.080	-0.040	-0.970	-0.420
2020/01/31 16:55:08.7	358.100	-0.020	-0.990	-0.460
2020/01/31 16:55:08.8	358.110	-0.000	-1.020	-0.500
2020/01/31 16:55:08.9	358.120	0.010	-1.030	-0.540
2020/01/31 16:55:09.0	358.130	0.030	-1.030	-0.580
2020/01/31 16:55:09.1	358.140	0.050	-1.030	-0.610
2020/01/31 16:55:09.2	358.160	0.060	-1.030	-0.650
2020/01/31 16:55:09.3	358.170	0.070	-1.010	-0.680
2020/01/31 16:55:09.4	358.180	0.080	-1.000	-0.710
2020/01/31 16:55:09.5	358.190	0.090	-0.970	-0.740
2020/01/31 16:55:09.6	358.210	0.100	-0.950	-0.770
2020/01/31 16:55:09.7	358.220	0.110	-0.920	-0.790
2020/01/31 16:55:09.8	358.230	0.120	-0.880	-0.820
2020/01/31 16:55:09.9	358.240	0.120	-0.840	-0.830
2020/01/31 16:55:10.0	358.260	0.130	-0.800	-0.850
2020/01/31 16:55:10.1	358.270	0.130	-0.760	-0.850
2020/01/31 16:55:10.2	358.290	0.140	-0.710	-0.860
2020/01/31 16:55:10.3	358.300	0.140	-0.660	-0.860
2020/01/31 16:55:10.4	358.320	0.140	-0.610	-0.850
2020/01/31 16:55:10.5	358.330	0.140	-0.560	-0.840
2020/01/31 16:55:10.6	358.340	0.140	-0.510	-0.820
2020/01/31 16:55:10.7	358.350	0.140	-0.450	-0.800
2020/01/31 16:55:10.8	358.360	0.140	-0.400	-0.770
2020/01/31 16:55:10.9	358.370	0.130	-0.350	-0.740
2020/01/31 16:55:11.0	358.380	0.130	-0.290	-0.710
2020/01/31 16:55:11.1	358.380	0.130	-0.240	-0.670
2020/01/31 16:55:11.2	358.380	0.120	-0.180	-0.630
2020/01/31 16:55:11.3	358.380	0.120	-0.130	-0.590
2020/01/31 16:55:11.4	358.380	0.110	-0.070	-0.540
2020/01/31 16:55:11.5	358.370	0.110	-0.020	-0.490
2020/01/31 16:55:11.6	358.360	0.100	0.030	-0.440
2020/01/31 16:55:11.7	358.360	0.090	0.080	-0.390
2020/01/31 16:55:11.8	358.350	0.090	0.120	-0.330
2020/01/31 16:55:11.9	358.340	0.080	0.170	-0.280
2020/01/31 16:55:12.0	358.320	0.080	0.210	-0.220
2020/01/31 16:55:12.1	358.310	0.070	0.240	-0.170
2020/01/31 16:55:12.2	358.290	0.070	0.280	-0.110
2020/01/31 16:55:12.3	358.270	0.060	0.310	-0.050
2020/01/31 16:55:12.4	358.250	0.060	0.330	-0.000
2020/01/31 16:55:12.5	358.230	0.060	0.350	0.050
2020/01/31 16:55:12.6	358.210	0.060	0.370	0.100
2020/01/31 16:55:12.7	358.190	0.050	0.380	0.150
2020/01/31 16:55:12.8	358.170	0.050	0.380	0.200
2020/01/31 16:55:12.9	358.140	0.050	0.380	0.240
2020/01/31 16:55:13.0	358.120	0.050	0.380	0.280
2020/01/31 16:55:13.1	358.100	0.050	0.360	0.320
2020/01/31 16:55:13.2	358.070	0.050	0.350	0.350
2020/01/31 16:55:13.3	358.050	0.050	0.330	0.380
2020/01/31 16:55:13.4	358.030	0.050	0.300	0.410
2020/01/31 16:55:13.5	358.010	0.050	0.270	0.430
2020/01/31 16:55:13.6	357.990	0.050	0.240	0.450
2020/01/31 16:55:13.7	357.970	0.060	0.190	0.460
2020/01/31 16:55:13.8	357.940	0.060	0.150	0.460
2020/01/31 16:55:13.9	357.930	0.060	0.100	0.460
2020/01/31 16:55:14.0	357.910	0.060	0.050	0.450
2020/01/31 16:55:14.1	357.900	0.060	-0.010	0.440
2020/01/31 16:55:14.2	357.890	0.060	-0.070	0.420
2020/01/31 16:55:14.3	357.880	0.060	-0.130	0.400
2020/01/31 16:55:14.4	357.870	0.070	-0.190	0.370
2020/01/31 16:55:14.5	357.870	0.070	-0.260	0.330
2020/01/31 16:55:14.6	357.870	0.070	-0.330	0.290
2020/01/31 16:55:14.7	357.870	0.070	-0.400	0.240
2020/01/31 16:55:14.8	357.880	0.070	-0.470	0.190
2020/01/31 16:55:14.9	357.890	0.070	-0.530	0.130
2020/01/31 16:55:15.0	357.910	0.070	-0.600	0.070
2020/01/31 16:55:15.1	357.930	0.060	-0.670	0.010
2020/01/31 16:55:15.2	357.950	0.060	-0.740	-0.060
2020/01/31 16:55:15.3	357.970	0.060	-0.800	-0.130
2020/01/31 16:55:15.4	358.000	0.060	-0.860	-0.210
2020/01/31 16:55:15.5	358.030	0.050	-0.920	-0.280
2020/01/31 16:55:15.6	358.060	0.050	-0.970	-0.360
2020/01/31 16:55:15.7	358.100	0.040	-1.020	-0.440
2020/01/31 16:55:15.8	358.130	0.040	-1.060	-0.510
2020/01/31 16:55:15.9	358.160	0.030	-1.090	-0.590
2020/01/31 16:55:16.0	358.200	0.030	-1.120	-0.660
2020/01/31 16:55:16.1	358.240	0.020	-1.150	-0.720
2020/01/31 16:55:16.2	358.270	0.010	-1.160	-0.790
2020/01/31 16:55:16.3	358.300	-0.000	-1.170	-0.840
2020/01/31 16:55:16.4	358.330	-0.010	-1.170	-0.890
2020/01/31 16:55:16.5	358.360	-0.020	-1.160	-0.940
2020/01/31 16:55:16.6	358.390	-0.040	-1.150	-0.980
2020/01/31 16:55:16.7	358.410	-0.050	-1.120	-1.020
2020/01/31 16:55:16.8	358.430	-0.070	-1.090	-1.050
2020/01/31 16:55:16.9	358.450	-0.080	-1.050	-1.080
2020/01/31 16:55:17.0	358.460	-0.100	-1.010	-1.100
2020/01/31 16:55:17.1	358.470	-0.120	-0.950	-1.110
2020/01/31 16:55:17.2	358.480	-0.140	-0.900	-1.120
2020/01/31 16:55:17.3	358.490	-0.150	-0.830	-1.130
2020/01/31 16:55:17.4	358.490	-0.170	-0.760	-1.130
2020/01/31 16:55:17.5	358.490	-0.190	-0.690	-1.130
2020/01/31 16:55:17.6	358.490	-0.210	-0.620	-1.120
2020/01/31 16:55:17.7	358.480	-0.230	-0.540	-1.120
2020/01/31 16:55:17.8	358.490	-0.250	-0.470	-1.110
2020/01/31 16:55:17.9	358.480	-0.260	-0.390	-1.100
2020/01/31 16:55:18.0	358.470	-0.280	-0.310	-1.090
2020/01/31 16:55:18.1	358.460	-0.290	-0.240	-1.070
2020/01/31 16:55:18.2	358.450	-0.300	-0.160	-1.060
2020/01/31 16:55:18.3	358.450	-0.310	-0.090	-1.040
2020/01/31 16:55:18.4	358.440	-0.320	-0.020	-1.020
2020/01/31 16:55:18.5	358.430	-0.330	0.040	-1.000
2020/01/31 16:55:18.6	358.420	-0.330	0.100	-0.980
2020/01/31 16:55:18.7	358.410	-0.330	0.160	-0.950
2020/01/31 16:55:18.8	358.390	-0.320	0.210	-0.930
2020/01/31 16:55:18.9	358.380	-0.320	0.250	-0.900
2020/01/31 16:55:19.0	358.380	-0.310	0.290	-0.870
2020/01/31 16:55:19.1	358.370	-0.300	0.320	-0.840
2020/01/31 16:55:19.2	358.360	-0.280	0.350	-0.810
2020/01/31 16:55:19.3	358.360	-0.260	0.380	-0.770
2020/01/31 16:55:19.4	358.350	-0.240	0.390	-0.740
2020/01/31 16:55:19.5	358.350	-0.210	0.400	-0.700
2020/01/31 16:55:19.6	358.340	-0.180	0.410	-0.660
2020/01/31 16:55:19.7	358.340	-0.150	0.410	-0.620
2020/01/31 16:55:19.8	358.350	-0.120	0.410	-0.580
2020/01/31 16:55:19.9	358.340	-0.080	0.410	-0.530
2020/01/31 16:55:20.0	358.340	-0.040	0.400	-0.490
2020/01/31 16:55:20.1	358.330	-0.000	0.390	-0.440
2020/01/31 16:55:20.2	358.330	0.040	0.380	-0.390
2020/01/31 16:55:20.3	358.320	0.080	0.370	-0.340
2020/01/31 16:55:20.4	358.310	0.120	0.350	-0.290
2020/01/31 16:55:20.5	358.290	0.160	0.340	-0.230
2020/01/31 16:55:20.6	358.280	0.200	0.320	-0.180
2020/01/31 16:55:20.7	358.260	0.240	0.310	-0.120
2020/01/31 16:55:20.8	358.240	0.270	0.300	-0.060
2020/01/31 16:55:20.9	358.220	0.310	0.290	0.000
2020/01/31 16:55:21.0	358.190	0.340	0.280	0.060
2020/01/31 16:55:21.1	358.160	0.370	0.270	0.130
2020/01/31 16:55:21.2	358.130	0.400	0.260	0.190
2020/01/31 16:55:21.3	358.090	0.420	0.250	0.250
2020/01/31 16:55:21.4	358.060	0.440	0.240	0.310
2020/01/31 16:55:21.5	358.020	0.460	0.240	0.370
2020/01/31 16:55:21.6	357.980	0.470	0.230	0.430
2020/01/31 16:55:21.7	357.940	0.480	0.220	0.480
2020/01/31 16:55:21.8	357.900	0.490	0.210	0.530
2020/01/31 16:55:21.9	357.860	0.490	0.200	0.580
2020/01/31 16:55:22.0	357.820	0.490	0.190	0.620
2020/01/31 16:55:22.1	357.780	0.480	0.170	0.660
2020/01/31 16:55:22.2	357.740	0.470	0.150	0.690
2020/01/31 16:55:22.3	357.700	0.460	0.130	0.710
2020/01/31 16:55:22.4	357.670	0.440	0.110	0.730
2020/01/31 16:55:22.5	357.640	0.420	0.080	0.740
2020/01/31 16:55:22.6	357.610	0.400	0.050	0.740
2020/01/31 16:55:22.7	357.580	0.380	0.020	0.730
2020/01/31 16:55:22.8	357.550	0.350	-0.020	0.720
2020/01/31 16:55:22.9	357.530	0.320	-0.060	0.700
2020/01/31 16:55:23.0	357.510	0.290	-0.100	0.680
2020/01/31 16:55:23.1	357.500	0.260	-0.150	0.640
2020/01/31 16:55:23.2	357.480	0.220	-0.200	0.600
2020/01/31 16:55:23.3	357.470	0.190	-0.250	0.560
2020/01/31 16:55:23.4	357.470	0.160	-0.310	0.510
2020/01/31 16:55:23.5	357.460	0.120	-0.360	0.450
2020/01/31 16:55:23.6	357.460	0.090	-0.420	0.390
2020/01/31 16:55:23.7	357.470	0.050	-0.480	0.330
2020/01/31 16:55:23.8	357.470	0.020	-0.530	0.250
2020/01/31 16:55:23.9	357.480	-0.010	-0.590	0.180
2020/01/31 16:55:24.0	357.490	-0.050	-0.640	0.100
2020/01/31 16:55:24.1	357.500	-0.080	-0.690	0.020
2020/01/31 16:55:24.2	357.520	-0.110	-0.740	-0.060
2020/01/31 16:55:24.3	357.540	-0.140	-0.790	-0.150
2020/01/31 16:55:24.4	357.560	-0.170	-0.830	-0.240
2020/01/31 16:55:24.5	357.580	-0.190	-0.870	-0.320
2020/01/31 16:55:24.6	357.610	-0.220	-0.910	-0.410
2020/01/31 16:55:24.7	357.630	-0.240	-0.940	-0.500
2020/01/31 16:55:24.8	357.660	-0.260	-0.970	-0.590
2020/01/31 16:55:24.9	357.690	-0.280	-0.990	-0.680
2020/01/31 16:55:25.0	357.720	-0.300	-1.010	-0.760
2020/01/31 16:55:25.1	357.750	-0.320	-1.030	-0.840
2020/01/31 16:55:25.2	357.790	-0.330	-1.040	-0.920
2020/01/31 16:55:25.3	357.820	-0.350	-1.050	-1.000
2020/01/31 16:55:25.4	357.860	-0.360	-1.050	-1.080
2020/01/31 16:55:25.5	357.900	-0.370	-1.050	-1.150
2020/01/31 16:55:25.6	357.930	-0.370	-1.040	-1.210
2020/01/31 16:55:25.7	357.970	-0.380	-1.030	-1.280
2020/01/31 16:55:25.8	358.000	-0.380	-1.020	-1.340
2020/01/31 16:55:25.9	358.040	-0.380	-1.010	-1.390
2020/01/31 16:55:26.0	358.080	-0.380	-0.990	-1.440
2020/01/31 16:55:26.1	358.120	-0.380	-0.960	-1.480
2020/01/31 16:55:26.2	358.160	-0.370	-0.940	-1.520
2020/01/31 16:55:26.3	358.200	-0.370	-0.910	-1.550
2020/01/31 16:55:26.4	358.230	-0.360	-0.870	-1.570
2020/01/31 16:55:26.5	358.270	-0.350	-0.840	-1.590
2020/01/31 16:55:26.6	358.310	-0.340	-0.800	-1.600
2020/01/31 16:55:26.7	358.350	-0.330	-0.760	-1.600
2020/01/31 16:55:26.8	358.370	-0.310	-0.710	-1.600
2020/01/31 16:55:26.9	358.410	-0.300	-0.670	-1.600
2020/01/31 16:55:27.0	358.440	-0.280	-0.620	-1.590
2020/01/31 16:55:27.1	358.460	-0.260	-0.570	-1.570
2020/01/31 16:55:27.2	358.490	-0.240	-0.510	-1.550
2020/01/31 16:55:27.3	358.510	-0.220	-0.460	-1.520
2020/01/31 16:55:27.4	358.520	-0.200	-0.400	-1.480
2020/01/31 16:55:27.5	358.540	-0.180	-0.350	-1.440
2020/01/31 16:55:27.6	358.540	-0.160	-0.290	-1.400
2020/01/31 16:55:27.7	358.550	-0.140	-0.230	-1.340
2020/01/31 16:55:27.8	358.550	-0.120	-0.180	-1.280
2020/01/31 16:55:27.9	358.540	-0.100	-0.120	-1.220
2020/01/31 16:55:28.0	358.530	-0.080	-0.070	-1.150
2020/01/31 16:55:28.1	358.520	-0.060	-0.010	-1.070
2020/01/31 16:55:28.2	358.500	-0.040	0.040	-0.990
2020/01/31 16:55:28.3	358.480	-0.020	0.090	-0.910
2020/01/31 16:55:28.4	358.450	-0.000	0.130	-0.830
2020/01/31 16:55:28.5	358.420	0.010	0.180	-0.740
2020/01/31 16:55:28.6	358.390	0.030	0.220	-0.650
2020/01/31 16:55:28.7	358.360	0.050	0.250	-0.570
2020/01/31 16:55:28.8	358.320	0.060	0.280	-0.470
2020/01/31 16:55:28.9	358.280	0.080	0.300	-0.390
2020/01/31 16:55:29.0	358.250	0.090	0.320	-0.310
2020/01/31 16:55:29.1	358.210	0.100	0.340	-0.230
2020/01/31 16:55:29.2	358.170	0.110	0.350	-0.150
2020/01/31 16:55:29.3	358.130	0.120	0.350	-0.080
2020/01/31 16:55:29.4	358.090	0.130	0.350	-0.010
2020/01/31 16:55:29.5	358.050	0.140	0.340	0.050
2020/01/31 16:55:29.6	358.020	0.150	0.330	0.100
2020/01/31 16:55:29.7	357.990	0.160	0.320	0.150
2020/01/31 16:55:29.8	357.960	0.170	0.290	0.190
2020/01/31 16:55:29.9	357.930	0.180	0.270	0.230
2020/01/31 16:55:30.0	357.900	0.180	0.240	0.260
2020/01/31 16:55:30.1	357.870	0.190	0.200	0.280
2020/01/31 16:55:30.2	357.840	0.190	0.170	0.300
2020/01/31 16:55:30.3	357.820	0.200	0.130	0.310
2020/01/31 16:55:30.4	357.800	0.200	0.080	0.310
2020/01/31 16:55:30.5	357.770	0.210	0.040	0.310
2020/01/31 16:55:30.6	357.750	0.210	-0.010	0.310
2020/01/31 16:55:30.7	357.730	0.210	-0.050	0.310
2020/01/31 16:55:30.8	357.710	0.220	-0.090	0.300
2020/01/31 16:55:30.9	357.680	0.220	-0.140	0.290
2020/01/31 16:55:31.0	357.660	0.220	-0.180	0.270
2020/01/31 16:55:31.1	357.650	0.220	-0.230	0.260
2020/01/31 16:55:31.2	357.630	0.220	-0.270	0.240
2020/01/31 16:55:31.3	357.610	0.220	-0.310	0.220
2020/01/31 16:55:31.4	357.600	0.220	-0.340	0.210
2020/01/31 16:55:31.5	357.590	0.220	-0.370	0.190
2020/01/31 16:55:31.6	357.580	0.220	-0.400	0.160
2020/01/31 16:55:31.7	357.570	0.220	-0.430	0.140
2020/01/31 16:55:31.8	357.560	0.210	-0.450	0.120
2020/01/31 16:55:31.9	357.560	0.210	-0.470	0.100
2020/01/31 16:55:32.0	357.550	0.200	-0.490	0.080
2020/01/31 16:55:32.1	357.550	0.200	-0.500	0.060
2020/01/31 16:55:32.2	357.550	0.190	-0.510	0.040
2020/01/31 16:55:32.3	357.550	0.190	-0.520	0.020
2020/01/31 16:55:32.4	357.560	0.180	-0.520	-0.010
2020/01/31 16:55:32.5	357.560	0.170	-0.520	-0.030
2020/01/31 16:55:32.6	357.570	0.160	-0.510	-0.060
2020/01/31 16:55:32.7	357.580	0.150	-0.500	-0.080
2020/01/31 16:55:32.8	357.590	0.140	-0.490	-0.110
2020/01/31 16:55:32.9	357.600	0.120	-0.480	-0.140
2020/01/31 16:55:33.0	357.610	0.110	-0.460	-0.170
2020/01/31 16:55:33.1	357.620	0.090	-0.440	-0.200
2020/01/31 16:55:33.2	357.640	0.070	-0.410	-0.230
2020/01/31 16:55:33.3	357.650	0.060	-0.390	-0.260
2020/01/31 16:55:33.4	357.660	0.040	-0.360	-0.290
2020/01/31 16:55:33.5	357.670	0.020	-0.330	-0.320
2020/01/31 16:55:33.6	357.690	-0.000	-0.310	-0.360
2020/01/31 16:55:33.7	357.700	-0.020	-0.280	-0.390
2020/01/31 16:55:33.8	357.720	-0.040	-0.250	-0.420
2020/01/31 16:55:33.9	357.740	-0.060	-0.220	-0.440
2020/01/31 16:55:34.0	357.750	-0.080	-0.200	-0.470
2020/01/31 16:55:34.1	357.760	-0.110	-0.170	-0.490
2020/01/31 16:55:34.2	357.770	-0.130	-0.150	-0.500
2020/01/31 16:55:34.3	357.780	-0.150	-0.120	-0.520
2020/01/31 16:55:34.4	357.780	-0.160	-0.100	-0.530
2020/01/31 16:55:34.5	357.790	-0.180	-0.090	-0.530
2020/01/31 16:55:34.6	357.790	-0.200	-0.070	-0.530
2020/01/31 16:55:34.7	357.790	-0.210	-0.060	-0.530
2020/01/31 16:55:34.8	357.780	-0.230	-0.050	-0.520
2020/01/31 16:55:34.9	357.780	-0.240	-0.040	-0.510
2020/01/31 16:55:35.0	357.780	-0.250	-0.040	-0.500
2020/01/31 16:55:35.1	357.770	-0.260	-0.040	-0.490
2020/01/31 16:55:35.2	357.770	-0.260	-0.040	-0.470
2020/01/31 16:55:35.3	357.770	-0.270	-0.050	-0.450
2020/01/31 16:55:35.4	357.760	-0.270	-0.060	-0.430
2020/01/31 16:55:35.5	357.760	-0.260	-0.070	-0.410
2020/01/31 16:55:35.6	357.750	-0.260	-0.090	-0.380
2020/01/31 16:55:35.7	357.750	-0.250	-0.110	-0.360
2020/01/31 16:55:35.8	357.750	-0.250	-0.130	-0.340
2020/01/31 16:55:35.9	357.750	-0.230	-0.160	-0.320
2020/01/31 16:55:36.0	357.750	-0.220	-0.190	-0.310
2020/01/31 16:55:36.1	357.750	-0.210	-0.220	-0.290
2020/01/31 16:55:36.2	357.740	-0.190	-0.250	-0.280
2020/01/31 16:55:36.3	357.740	-0.170	-0.280	-0.260
2020/01/31 16:55:36.4	357.740	-0.150	-0.320	-0.250
2020/01/31 16:55:36.5	357.740	-0.120	-0.350	-0.240
2020/01/31 16:55:36.6	357.740	-0.100	-0.390	-0.230
2020/01/31 16:55:36.7	357.740	-0.070	-0.420	-0.230
2020/01/31 16:55:36.8	357.740	-0.050	-0.450	-0.220
2020/01/31 16:55:36.9	357.740	-0.020	-0.480	-0.210
2020/01/31 16:55:37.0	357.750	0.000	-0.500	-0.210
2020/01/31 16:55:37.1	357.750	0.030	-0.520	-0.210
2020/01/31 16:55:37.2	357.750	0.050	-0.540	-0.210
2020/01/31 16:55:37.3	357.760	0.070	-0.560	-0.210
2020/01/31 16:55:37.4	357.760	0.090	-0.570	-0.210
2020/01/31 16:55:37.5	357.760	0.110	-0.570	-0.210
2020/01/31 16:55:37.6	357.760	0.130	-0.570	-0.210
2020/01/31 16:55:37.7	357.760	0.140	-0.570	-0.220
2020/01/31 16:55:37.8	357.760	0.150	-0.560	-0.220
2020/01/31 16:55:37.9	357.760	0.160	-0.550	-0.220
2020/01/31 16:55:38.0	357.760	0.170	-0.530	-0.230
2020/01/31 16:55:38.1	357.760	0.170	-0.500	-0.230
2020/01/31 16:55:38.2	357.750	0.170	-0.470	-0.230
2020/01/31 16:55:38.3	357.750	0.160	-0.440	-0.230
2020/01/31 16:55:38.4	357.740	0.160	-0.410	-0.230
2020/01/31 16:55:38.5	357.740	0.150	-0.370	-0.220
2020/01/31 16:55:38.6	357.730	0.140	-0.320	-0.220
2020/01/31 16:55:38.7	357.730	0.120	-0.280	-0.220
2020/01/31 16:55:38.8	357.720	0.110	-0.230	-0.210
2020/01/31 16:55:38.9	357.720	0.090	-0.190	-0.200
2020/01/31 16:55:39.0	357.710	0.070	-0.140	-0.190
2020/01/31 16:55:39.1	357.700	0.040	-0.090	-0.180
2020/01/31 16:55:39.2	357.680	0.020	-0.050	-0.170
2020/01/31 16:55:39.3	357.670	-0.000	-0.000	-0.160
2020/01/31 16:55:39.4	357.660	-0.030	0.040	-0.150
2020/01/31 16:55:39.5	357.640	-0.050	0.080	-0.140
2020/01/31 16:55:39.6	357.630	-0.080	0.120	-0.130
2020/01/31 16:55:39.7	357.610	-0.100	0.160	-0.110
2020/01/31 16:55:39.8	357.600	-0.120	0.180	-0.100
2020/01/31 16:55:39.9	357.580	-0.140	0.210	-0.090
2020/01/31 16:55:40.0	357.560	-0.160	0.240	-0.080
2020/01/31 16:55:40.1	357.540	-0.180	0.250	-0.060
2020/01/31 16:55:40.2	357.510	-0.190	0.270	-0.050
2020/01/31 16:55:40.3	357.490	-0.200	0.280	-0.040
2020/01/31 16:55:40.4	357.470	-0.210	0.280	-0.030
2020/01/31 16:55:40.5	357.450	-0.220	0.270	-0.020
2020/01/31 16:55:40.6	357.430	-0.220	0.260	-0.010
2020/01/31 16:55:40.7	357.410	-0.220	0.250	-0.000
2020/01/31 16:55:40.8	357.400	-0.210	0.230	0.000
2020/01/31 16:55:40.9	357.380	-0.200	0.200	0.010
2020/01/31 16:55:41.0	357.370	-0.190	0.160	0.010
2020/01/31 16:55:41.1	357.360	-0.170	0.120	0.000
2020/01/31 16:55:41.2	357.350	-0.160	0.070	0.000
2020/01/31 16:55:41.3	357.340	-0.130	0.010	-0.010
2020/01/31 16:55:41.4	357.330	-0.110	-0.050	-0.010
2020/01/31 16:55:41.5	357.330	-0.080	-0.110	-0.030
2020/01/31 16:55:41.6	357.320	-0.050	-0.180	-0.040
2020/01/31 16:55:41.7	357.320	-0.020	-0.250	-0.050
2020/01/31 16:55:41.8	357.320	0.020	-0.330	-0.070
2020/01/31 16:55:41.9	357.320	0.050	-0.410	-0.090
2020/01/31 16:55:42.0	357.330	0.090	-0.480	-0.110
2020/01/31 16:55:42.1	357.330	0.120	-0.560	-0.130
2020/01/31 16:55:42.2	357.330	0.160	-0.630	-0.150
2020/01/31 16:55:42.3	357.340	0.190	-0.700	-0.170
2020/01/31 16:55:42.4	357.340	0.230	-0.770	-0.190
2020/01/31 16:55:42.5	357.340	0.260	-0.830	-0.210
2020/01/31 16:55:42.6	357.350	0.290	-0.890	-0.240
2020/01/31 16:55:42.7	357.350	0.320	-0.940	-0.260
2020/01/31 16:55:42.8	357.340	0.340	-0.980	-0.280
2020/01/31 16:55:42.9	357.350	0.360	-1.010	-0.310
2020/01/31 16:55:43.0	357.350	0.380	-1.040	-0.330
2020/01/31 16:55:43.1	357.350	0.390	-1.060	-0.360
2020/01/31 16:55:43.2	357.350	0.410	-1.070	-0.380
2020/01/31 16:55:43.3	357.350	0.410	-1.080	-0.400
2020/01/31 16:55:43.4	357.360	0.420	-1.070	-0.420
2020/01/31 16:55:43.5	357.360	0.410	-1.050	-0.440
2020/01/31 16:55:43.6	357.360	0.410	-1.030	-0.460
2020/01/31 16:55:43.7	357.360	0.400	-1.000	-0.480
2020/01/31 16:55:43.8	357.360	0.390	-0.960	-0.490
2020/01/31 16:55:43.9	357.360	0.370	-0.920	-0.510
2020/01/31 16:55:44.0	357.370	0.350	-0.870	-0.520
2020/01/31 16:55:44.1	357.380	0.330	-0.810	-0.530
2020/01/31 16:55:44.2	357.390	0.300	-0.750	-0.540
2020/01/31 16:55:44.3	357.400	0.270	-0.680	-0.550
2020/01/31 16:55:44.4	357.410	0.240	-0.620	-0.560
2020/01/31 16:55:44.5	357.430	0.210	-0.550	-0.570
2020/01/31 16:55:44.6	357.440	0.170	-0.470	-0.580
2020/01/31 16:55:44.7	357.460	0.140	-0.400	-0.580
2020/01/31 16:55:44.8	357.490	0.100	-0.330	-0.580
2020/01/31 16:55:44.9	357.510	0.060	-0.260	-0.590
2020/01/31 16:55:45.0	357.530	0.020	-0.190	-0.590
2020/01/31 16:55:45.1	357.540	-0.010	-0.120	-0.590
2020/01/31 16:55:45.2	357.560	-0.050	-0.050	-0.590
2020/01/31 16:55:45.3	357.580	-0.090	0.010	-0.590
2020/01/31 16:55:45.4	357.600	-0.120	0.070	-0.590
2020/01/31 16:55:45.5	357.620	-0.160	0.130	-0.590
2020/01/31 16:55:45.6	357.640	-0.190	0.180	-0.580
2020/01/31 16:55:45.7	357.660	-0.220	0.230	-0.580
2020/01/31 16:55:45.8	357.690	-0.250	0.260	-0.570
2020/01/31 16:55:45.9	357.710	-0.280	0.300	-0.570
2020/01/31 16:55:46.0	357.720	-0.310	0.330	-0.560
2020/01/31 16:55:46.1	357.740	-0.330	0.350	-0.550
2020/01/31 16:55:46.2	357.750	-0.350	0.370	-0.540
2020/01/31 16:55:46.3	357.770	-0.360	0.390	-0.530
2020/01/31 16:55:46.4	357.780	-0.380	0.400	-0.520
2020/01/31 16:55:46.5	357.790	-0.390	0.400	-0.510
2020/01/31 16:55:46.6	357.800	-0.390	0.400	-0.500
2020/01/31 16:55:46.7	357.810	-0.400	0.400	-0.480
2020/01/31 16:55:46.8	357.820	-0.400	0.400	-0.470
2020/01/31 16:55:46.9	357.820	-0.400	0.390	-0.450
2020/01/31 16:55:47.0	357.820	-0.400	0.370	-0.430
2020/01/31 16:55:47.1	357.820	-0.390	0.350	-0.410
2020/01/31 16:55:47.2	357.810	-0.380	0.340	-0.390
2020/01/31 16:55:47.3	357.810	-0.370	0.310	-0.370
2020/01/31 16:55:47.4	357.800	-0.360	0.290	-0.340
2020/01/31 16:55:47.5	357.780	-0.350	0.270	-0.320
2020/01/31 16:55:47.6	357.770	-0.340	0.240	-0.290
2020/01/31 16:55:47.7	357.750	-0.320	0.210	-0.260
2020/01/31 16:55:47.8	357.740	-0.310	0.180	-0.230
2020/01/31 16:55:47.9	357.710	-0.290	0.150	-0.200
2020/01/31 16:55:48.0	357.680	-0.270	0.120	-0.170
2020/01/31 16:55:48.1	357.650	-0.260	0.100	-0.140
2020/01/31 16:55:48.2	357.620	-0.240	0.070	-0.110
2020/01/31 16:55:48.3	357.580	-0.220	0.040	-0.080
2020/01/31 16:55:48.4	357.540	-0.200	0.010	-0.050
2020/01/31 16:55:48.5	357.500	-0.190	-0.010	-0.030
2020/01/31 16:55:48.6	357.450	-0.170	-0.040	0.000
2020/01/31 16:55:48.7	357.410	-0.150	-0.060	0.030
2020/01/31 16:55:48.8	357.360	-0.130	-0.080	0.060
2020/01/31 16:55:48.9	357.310	-0.120	-0.100	0.090
2020/01/31 16:55:49.0	357.260	-0.100	-0.130	0.120
2020/01/31 16:55:49.1	357.200	-0.090	-0.150	0.160
2020/01/31 16:55:49.2	357.150	-0.070	-0.160	0.190
2020/01/31 16:55:49.3	357.100	-0.050	-0.180	0.210
2020/01/31 16:55:49.4	357.040	-0.040	-0.200	0.240
2020/01/31 16:55:49.5	356.990	-0.020	-0.220	0.270
2020/01/31 16:55:49.6	356.940	-0.010	-0.230	0.300
2020/01/31 16:55:49.7	356.890	0.010	-0.250	0.320
2020/01/31 16:55:49.8	356.830	0.020	-0.270	0.340
2020/01/31 16:55:49.9	356.780	0.040	-0.280	0.360
2020/01/31 16:55:50.0	356.740	0.050	-0.300	0.370
2020/01/31 16:55:50.1	356.700	0.070	-0.320	0.390
2020/01/31 16:55:50.2	356.670	0.080	-0.330	0.400
2020/01/31 16:55:50.3	356.630	0.100	-0.350	0.400
2020/01/31 16:55:50.4	356.600	0.110	-0.370	0.400
2020/01/31 16:55:50.5	356.580	0.130	-0.390	0.400
2020/01/31 16:55:50.6	356.560	0.140	-0.410	0.400
2020/01/31 16:55:50.7	356.550	0.160	-0.430	0.390
2020/01/31 16:55:50.8	356.520	0.180	-0.460	0.370
2020/01/31 16:55:50.9	356.520	0.190	-0.480	0.360
2020/01/31 16:55:51.0	356.520	0.210	-0.510	0.340
2020/01/31 16:55:51.1	356.520	0.230	-0.540	0.320
2020/01/31 16:55:51.2	356.530	0.250	-0.570	0.290
2020/01/31 16:55:51.3	356.540	0.260	-0.590	0.260
2020/01/31 16:55:51.4	356.550	0.280	-0.620	0.240
2020/01/31 16:55:51.5	356.570	0.300	-0.650	0.210
2020/01/31 16:55:51.6	356.590	0.310	-0.670	0.180
2020/01/31 16:55:51.7	356.620	0.330	-0.690	0.150
2020/01/31 16:55:51.8	356.650	0.350	-0.710	0.110
2020/01/31 16:55:51.9	356.680	0.360	-0.730	0.080
2020/01/31 16:55:52.0	356.710	0.370	-0.750	0.050
2020/01/31 16:55:52.1	356.740	0.380	-0.760	0.020
2020/01/31 16:55:52.2	356.780	0.390	-0.770	-0.010
2020/01/31 16:55:52.3	356.810	0.400	-0.770	-0.040
2020/01/31 16:55:52.4	356.850	0.400	-0.770	-0.060
2020/01/31 16:55:52.5	356.880	0.410	-0.770	-0.090
2020/01/31 16:55:52.6	356.920	0.410	-0.770	-0.120
2020/01/31 16:55:52.7	356.960	0.410	-0.760	-0.150
2020/01/31 16:55:52.8	357.000	0.400	-0.740	-0.170
2020/01/31 16:55:52.9	357.030	0.390	-0.730	-0.190
2020/01/31 16:55:53.0	357.060	0.380	-0.710	-0.210
2020/01/31 16:55:53.1	357.080	0.370	-0.680	-0.230
2020/01/31 16:55:53.2	357.100	0.350	-0.650	-0.240
2020/01/31 16:55:53.3	357.120	0.340	-0.620	-0.260
2020/01/31 16:55:53.4	357.130	0.310	-0.590	-0.270
2020/01/31 16:55:53.5	357.140	0.290	-0.550	-0.280
2020/01/31 16:55:53.6	357.140	0.260	-0.520	-0.290
2020/01/31 16:55:53.7	357.140	0.230	-0.480	-0.290
2020/01/31 16:55:53.8	357.140	0.200	-0.450	-0.300
2020/01/31 16:55:53.9	357.130	0.170	-0.420	-0.310
2020/01/31 16:55:54.0	357.130	0.130	-0.380	-0.310
2020/01/31 16:55:54.1	357.130	0.100	-0.350	-0.330
2020/01/31 16:55:54.2	357.120	0.060	-0.320	-0.340
2020/01/31 16:55:54.3	357.120	0.020	-0.290	-0.350
2020/01/31 16:55:54.4	357.120	-0.020	-0.270	-0.370
2020/01/31 16:55:54.5	357.110	-0.050	-0.250	-0.390
2020/01/31 16:55:54.6	357.110	-0.090	-0.230	-0.410
2020/01/31 16:55:54.7	357.110	-0.130	-0.210	-0.440
2020/01/31 16:55:54.8	357.120	-0.160	-0.200	-0.470
2020/01/31 16:55:54.9	357.120	-0.190	-0.190	-0.500
2020/01/31 16:55:55.0	357.130	-0.220	-0.180	-0.530
2020/01/31 16:55:55.1	357.130	-0.250	-0.180	-0.560
2020/01/31 16:55:55.2	357.140	-0.280	-0.180	-0.600
2020/01/31 16:55:55.3	357.160	-0.300	-0.190	-0.640
2020/01/31 16:55:55.4	357.170	-0.320	-0.200	-0.680
2020/01/31 16:55:55.5	357.180	-0.330	-0.210	-0.710
2020/01/31 16:55:55.6	357.200	-0.340	-0.220	-0.750
2020/01/31 16:55:55.7	357.210	-0.350	-0.240	-0.790
2020/01/31 16:55:55.8	357.230	-0.360	-0.250	-0.820
2020/01/31 16:55:55.9	357.240	-0.360	-0.270	-0.860
2020/01/31 16:55:56.0	357.250	-0.360	-0.280	-0.880
2020/01/31 16:55:56.1	357.260	-0.360	-0.280	-0.910
2020/01/31 16:55:56.2	357.270	-0.350	-0.290	-0.930
2020/01/31 16:55:56.3	357.280	-0.350	-0.290	-0.940
2020/01/31 16:55:56.4	357.280	-0.340	-0.280	-0.950
2020/01/31 16:55:56.5	357.280	-0.320	-0.270	-0.960
2020/01/31 16:55:56.6	357.280	-0.310	-0.250	-0.960
2020/01/31 16:55:56.7	357.270	-0.300	-0.230	-0.950
2020/01/31 16:55:56.8	357.270	-0.280	-0.210	-0.940
2020/01/31 16:55:56.9	357.260	-0.270	-0.180	-0.920
2020/01/31 16:55:57.0	357.250	-0.250	-0.150	-0.900
2020/01/31 16:55:57.1	357.230	-0.240	-0.110	-0.880
2020/01/31 16:55:57.2	357.210	-0.220	-0.070	-0.860
2020/01/31 16:55:57.3	357.200	-0.200	-0.030	-0.830
2020/01/31 16:55:57.4	357.180	-0.190	0.010	-0.800
2020/01/31 16:55:57.5	357.160	-0.170	0.050	-0.770
2020/01/31 16:55:57.6	357.140	-0.160	0.090	-0.730
2020/01/31 16:55:57.7	357.130	-0.140	0.130	-0.700
2020/01/31 16:55:57.8	357.110	-0.130	0.170	-0.670
2020/01/31 16:55:57.9	357.100	-0.120	0.200	-0.640
2020/01/31 16:55:58.0	357.080	-0.100	0.240	-0.600
2020/01/31 16:55:58.1	357.070	-0.090	0.270	-0.570
2020/01/31 16:55:58.2	357.060	-0.080	0.300	-0.540
2020/01/31 16:55:58.3	357.050	-0.070	0.320	-0.510
2020/01/31 16:55:58.4	357.040	-0.060	0.350	-0.470
2020/01/31 16:55:58.5	357.030	-0.050	0.360	-0.440
2020/01/31 16:55:58.6	357.020	-0.040	0.380	-0.420
2020/01/31 16:55:58.7	357.010	-0.030	0.390	-0.390
2020/01/31 16:55:58.8	357.000	-0.020	0.390	-0.360
2020/01/31 16:55:58.9	357.000	-0.000	0.400	-0.330
2020/01/31 16:55:59.0	356.990	0.010	0.400	-0.300
2020/01/31 16:55:59.1	356.980	0.020	0.400	-0.260
2020/01/31 16:55:59.2	356.970	0.030	0.390	-0.230
2020/01/31 16:55:59.3	356.960	0.040	0.380	-0.190
2020/01/31 16:55:59.4	356.950	0.060	0.370	-0.150
2020/01/31 16:55:59.5	356.930	0.070	0.360	-0.110
2020/01/31 16:55:59.6	356.910	0.090	0.350	-0.070
2020/01/31 16:55:59.7	356.890	0.100	0.330	-0.020
2020/01/31 16:55:59.8	356.870	0.110	0.320	0.030
2020/01/31 16:55:59.9	356.840	0.130	0.300	0.080
2020/01/31 16:56:00.0	356.810	0.140	0.280	0.130
2020/01/31 16:56:00.1	356.780	0.160	0.250	0.190
2020/01/31 16:56:00.2	356.750	0.170	0.230	0.240
2020/01/31 16:56:00.3	356.720	0.180	0.200	0.290
2020/01/31 16:56:00.4	356.680	0.190	0.170	0.330
2020/01/31 16:56:00.5	356.650	0.200	0.140	0.380
2020/01/31 16:56:00.6	356.610	0.210	0.100	0.410
2020/01/31 16:56:00.7	356.580	0.220	0.060	0.450
2020/01/31 16:56:00.8	356.540	0.220	0.020	0.480
2020/01/31 16:56:00.9	356.510	0.230	-0.030	0.500
2020/01/31 16:56:01.0	356.490	0.230	-0.090	0.510
2020/01/31 16:56:01.1	356.460	0.230	-0.140	0.520
2020/01/31 16:56:01.2	356.440	0.230	-0.210	0.510
2020/01/31 16:56:01.3	356.420	0.220	-0.270	0.500
2020/01/31 16:56:01.4	356.410	0.220	-0.340	0.480
2020/01/31 16:56:01.5	356.400	0.210	-0.410	0.460
2020/01/31 16:56:01.6	356.390	0.200	-0.480	0.420
2020/01/31 16:56:01.7	356.400	0.190	-0.560	0.380
2020/01/31 16:56:01.8	356.390	0.180	-0.640	0.330
2020/01/31 16:56:01.9	356.400	0.170	-0.720	0.280
2020/01/31 16:56:02.0	356.410	0.160	-0.790	0.230
2020/01/31 16:56:02.1	356.430	0.140	-0.870	0.170
2020/01/31 16:56:02.2	356.450	0.130	-0.950	0.100
2020/01/31 16:56:02.3	356.470	0.110	-1.020	0.040
2020/01/31 16:56:02.4	356.490	0.090	-1.090	-0.030
2020/01/31 16:56:02.5	356.520	0.080	-1.150	-0.090
2020/01/31 16:56:02.6	356.540	0.060	-1.210	-0.160
2020/01/31 16:56:02.7	356.570	0.040	-1.260	-0.220
2020/01/31 16:56:02.8	356.580	0.020	-1.300	-0.290
2020/01/31 16:56:02.9	356.600	-0.000	-1.340	-0.350
2020/01/31 16:56:03.0	356.630	-0.020	-1.370	-0.420
2020/01/31 16:56:03.1	356.650	-0.040	-1.390	-0.480
2020/01/31 16:56:03.2	356.680	-0.060	-1.410	-0.540
2020/01/31 16:56:03.3	356.700	-0.080	-1.410	-0.590
2020/01/31 16:56:03.4	356.730	-0.100	-1.410	-0.650
2020/01/31 16:56:03.5	356.750	-0.120	-1.390	-0.700
2020/01/31 16:56:03.6	356.770	-0.140	-1.370	-0.750
2020/01/31 16:56:03.7	356.800	-0.160	-1.340	-0.790
2020/01/31 16:56:03.8	356.820	-0.180	-1.310	-0.840
2020/01/31 16:56:03.9	356.850	-0.200	-1.260	-0.880
2020/01/31 16:56:04.0	356.870	-0.210	-1.210	-0.910
2020/01/31 16:56:04.1	356.890	-0.230	-1.150	-0.950
2020/01/31 16:56:04.2	356.920	-0.240	-1.090	-0.980
2020/01/31 16:56:04.3	356.940	-0.250	-1.020	-1.010
2020/01/31 16:56:04.4	356.960	-0.250	-0.950	-1.030
2020/01/31 16:56:04.5	356.980	-0.260	-0.880	-1.060
2020/01/31 16:56:04.6	357.010	-0.260	-0.800	-1.070
2020/01/31 16:56:04.7	357.030	-0.260	-0.730	-1.090
2020/01/31 16:56:04.8	357.050	-0.260	-0.640	-1.100
2020/01/31 16:56:04.9	357.070	-0.260	-0.560	-1.110
2020/01/31 16:56:05.0	357.090	-0.250	-0.490	-1.110
2020/01/31 16:56:05.1	357.110	-0.240	-0.410	-1.110
2020/01/31 16:56:05.2	357.130	-0.230	-0.330	-1.100
2020/01/31 16:56:05.3	357.150	-0.220	-0.260	-1.090
2020/01/31 16:56:05.4	357.170	-0.200	-0.190	-1.080
2020/01/31 16:56:05.5	357.180	-0.180	-0.120	-1.060
2020/01/31 16:56:05.6	357.200	-0.160	-0.050	-1.040
2020/01/31 16:56:05.7	357.210	-0.140	0.010	-1.020
2020/01/31 16:56:05.8	357.250	-0.120	0.060	-0.990
2020/01/31 16:56:05.9	357.260	-0.090	0.110	-0.960
2020/01/31 16:56:06.0	357.270	-0.070	0.160	-0.930
2020/01/31 16:56:06.1	357.280	-0.040	0.200	-0.890
2020/01/31 16:56:06.2	357.290	-0.010	0.240	-0.860
2020/01/31 16:56:06.3	357.300	0.010	0.280	-0.820
2020/01/31 16:56:06.4	357.310	0.040	0.310	-0.780
2020/01/31 16:56:06.5	357.320	0.070	0.330	-0.740
2020/01/31 16:56:06.6	357.320	0.100	0.350	-0.700
2020/01/31 16:56:06.7	357.320	0.130	0.370	-0.660
2020/01/31 16:56:06.8	357.330	0.160	0.390	-0.610
2020/01/31 16:56:06.9	357.330	0.180	0.390	-0.570
2020/01/31 16:56:07.0	357.330	0.210	0.400	-0.530
2020/01/31 16:56:07.1	357.330	0.230	0.400	-0.500
2020/01/31 16:56:07.2	357.320	0.260	0.400	-0.460
2020/01/31 16:56:07.3	357.320	0.280	0.390	-0.420
2020/01/31 16:56:07.4	357.320	0.300	0.390	-0.380
2020/01/31 16:56:07.5	357.310	0.310	0.380	-0.350
2020/01/31 16:56:07.6	357.300	0.330	0.370	-0.310
2020/01/31 16:56:07.7	357.290	0.340	0.350	-0.280
2020/01/31 16:56:07.8	357.290	0.350	0.340	-0.250
2020/01/31 16:56:07.9	357.280	0.350	0.330	-0.220
2020/01/31 16:56:08.0	357.260	0.360	0.310	-0.200
2020/01/31 16:56:08.1	357.250	0.360	0.290	-0.170
2020/01/31 16:56:08.2	357.230	0.350	0.270	-0.150
2020/01/31 16:56:08.3	357.220	0.340	0.250	-0.120
2020/01/31 16:56:08.4	357.200	0.330	0.230	-0.100
2020/01/31 16:56:08.5	357.180	0.320	0.210	-0.080
2020/01/31 16:56:08.6	357.170	0.300	0.190	-0.070
2020/01/31 16:56:08.7	357.150	0.280	0.170	-0.060
2020/01/31 16:56:08.8	357.130	0.250	0.150	-0.050
2020/01/31 16:56:08.9	357.110	0.230	0.130	-0.040
2020/01/31 16:56:09.0	357.090	0.190	0.100	-0.050
2020/01/31 16:56:09.1	357.070	0.160	0.080	-0.050
2020/01/31 16:56:09.2	357.050	0.130	0.050	-0.060
2020/01/31 16:56:09.3	357.030	0.090	0.020	-0.080
2020/01/31 16:56:09.4	357.010	0.050	-0.000	-0.100
2020/01/31 16:56:09.5	357.000	0.000	-0.030	-0.120
2020/01/31 16:56:09.6	356.980	-0.040	-0.060	-0.150
2020/01/31 16:56:09.7	356.960	-0.080	-0.090	-0.180
2020/01/31 16:56:09.8	356.940	-0.130	-0.120	-0.210
2020/01/31 16:56:09.9	356.920	-0.170	-0.140	-0.250
2020/01/31 16:56:10.0	356.900	-0.210	-0.170	-0.290
2020/01/31 16:56:10.1	356.880	-0.260	-0.200	-0.330
2020/01/31 16:56:10.2	356.860	-0.300	-0.220	-0.370
2020/01/31 16:56:10.3	356.840	-0.340	-0.250	-0.410
2020/01/31 16:56:10.4	356.820	-0.380	-0.270	-0.450
2020/01/31 16:56:10.5	356.800	-0.410	-0.290	-0.490
2020/01/31 16:56:10.6	356.780	-0.450	-0.300	-0.530
2020/01/31 16:56:10.7	356.750	-0.480	-0.320	-0.560
2020/01/31 16:56:10.8	356.720	-0.500	-0.320	-0.600
2020/01/31 16:56:10.9	356.700	-0.530	-0.330	-0.620
2020/01/31 16:56:11.0	356.680	-0.550	-0.340	-0.650
2020/01/31 16:56:11.1	356.650	-0.560	-0.340	-0.660
2020/01/31 16:56:11.2	356.620	-0.570	-0.340	-0.680
2020/01/31 16:56:11.3	356.600	-0.580	-0.340	-0.690
2020/01/31 16:56:11.4	356.570	-0.580	-0.330	-0.700
2020/01/31 16:56:11.5	356.540	-0.580	-0.330	-0.700
2020/01/31 16:56:11.6	356.510	-0.570	-0.320	-0.700
2020/01/31 16:56:11.7	356.490	-0.560	-0.320	-0.690
2020/01/31 16:56:11.8	356.480	-0.540	-0.320	-0.680
2020/01/31 16:56:11.9	356.450	-0.520	-0.310	-0.670
2020/01/31 16:56:12.0	356.430	-0.500	-0.310	-0.650
2020/01/31 16:56:12.1	356.410	-0.470	-0.300	-0.640
2020/01/31 16:56:12.2	356.390	-0.430	-0.300	-0.620
2020/01/31 16:56:12.3	356.380	-0.390	-0.300	-0.600
2020/01/31 16:56:12.4	356.360	-0.350	-0.300	-0.570
2020/01/31 16:56:12.5	356.350	-0.310	-0.310	-0.550
2020/01/31 16:56:12.6	356.340	-0.260	-0.320	-0.520
2020/01/31 16:56:12.7	356.340	-0.210	-0.330	-0.500
2020/01/31 16:56:12.8	356.330	-0.160	-0.340	-0.470
2020/01/31 16:56:12.9	356.330	-0.100	-0.350	-0.450
2020/01/31 16:56:13.0	356.330	-0.050	-0.360	-0.420
2020/01/31 16:56:13.1	356.330	0.010	-0.380	-0.390
2020/01/31 16:56:13.2	356.330	0.060	-0.400	-0.370
2020/01/31 16:56:13.3	356.340	0.110	-0.420	-0.340
2020/01/31 16:56:13.4	356.340	0.170	-0.430	-0.310
2020/01/31 16:56:13.5	356.340	0.220	-0.450	-0.280
2020/01/31 16:56:13.6	356.350	0.270	-0.470	-0.250
2020/01/31 16:56:13.7	356.350	0.310	-0.490	-0.220
2020/01/31 16:56:13.8	356.360	0.350	-0.510	-0.190
2020/01/31 16:56:13.9	356.370	0.390	-0.530	-0.160
2020/01/31 16:56:14.0	356.370	0.430	-0.550	-0.130
2020/01/31 16:56:14.1	356.380	0.460	-0.570	-0.110
2020/01/31 16:56:14.2	356.390	0.490	-0.580	-0.080
2020/01/31 16:56:14.3	356.410	0.510	-0.600	-0.060
2020/01/31 16:56:14.4	356.420	0.530	-0.620	-0.030
2020/01/31 16:56:14.5	356.430	0.540	-0.630	-0.010
2020/01/31 16:56:14.6	356.450	0.550	-0.650	0.010
2020/01/31 16:56:14.7	356.470	0.560	-0.660	0.020
2020/01/31 16:56:14.8	356.480	0.560	-0.670	0.040
2020/01/31 16:56:14.9	356.500	0.550	-0.690	0.050
2020/01/31 16:56:15.0	356.530	0.540	-0.700	0.050
2020/01/31 16:56:15.1	356.550	0.530	-0.710	0.060
2020/01/31 16:56:15.2	356.570	0.510	-0.720	0.050
2020/01/31 16:56:15.3	356.600	0.490	-0.730	0.050
2020/01/31 16:56:15.4	356.620	0.460	-0.730	0.040
2020/01/31 16:56:15.5	356.650	0.430	-0.740	0.020
2020/01/31 16:56:15.6	356.680	0.400	-0.740	0.000
2020/01/31 16:56:15.7	356.710	0.370	-0.740	-0.020
2020/01/31 16:56:15.8	356.740	0.330	-0.750	-0.050
2020/01/31 16:56:15.9	356.770	0.300	-0.740	-0.090
2020/01/31 16:56:16.0	356.810	0.260	-0.740	-0.120
2020/01/31 16:56:16.1	356.840	0.210	-0.730	-0.160
2020/01/31 16:56:16.2	356.870	0.170	-0.730	-0.200
2020/01/31 16:56:16.3	356.910	0.130	-0.710	-0.240
2020/01/31 16:56:16.4	356.940	0.090	-0.700	-0.280
2020/01/31 16:56:16.5	356.980	0.040	-0.680	-0.330
2020/01/31 16:56:16.6	357.010	0.000	-0.660	-0.370
2020/01/31 16:56:16.7	357.040	-0.040	-0.640	-0.410
2020/01/31 16:56:16.8	357.080	-0.080	-0.610	-0.450
2020/01/31 16:56:16.9	357.110	-0.120	-0.580	-0.490
2020/01/31 16:56:17.0	357.140	-0.160	-0.540	-0.530
2020/01/31 16:56:17.1	357.160	-0.200	-0.500	-0.560
2020/01/31 16:56:17.2	357.180	-0.230	-0.460	-0.590
2020/01/31 16:56:17.3	357.200	-0.270	-0.420	-0.620
2020/01/31 16:56:17.4	357.210	-0.300	-0.370	-0.650
2020/01/31 16:56:17.5	357.230	-0.330	-0.320	-0.670
2020/01/31 16:56:17.6	357.230	-0.360	-0.270	-0.690
2020/01/31 16:56:17.7	357.240	-0.380	-0.210	-0.710
2020/01/31 16:56:17.8	357.250	-0.400	-0.150	-0.720
2020/01/31 16:56:17.9	357.240	-0.420	-0.100	-0.730
2020/01/31 16:56:18.0	357.240	-0.440	-0.040	-0.740
2020/01/31 16:56:18.1	357.230	-0.450	0.020	-0.750
2020/01/31 16:56:18.2	357.220	-0.460	0.080	-0.750
2020/01/31 16:56:18.3	357.200	-0.470	0.140	-0.750
2020/01/31 16:56:18.4	357.190	-0.480	0.190	-0.750
2020/01/31 16:56:18.5	357.170	-0.480	0.250	-0.740
2020/01/31 16:56:18.6	357.150	-0.480	0.300	-0.740
2020/01/31 16:56:18.7	357.120	-0.480	0.340	-0.730
2020/01/31 16:56:18.8	357.100	-0.480	0.380	-0.710
2020/01/31 16:56:18.9	357.070	-0.470	0.420	-0.700
2020/01/31 16:56:19.0	357.040	-0.460	0.450	-0.680
2020/01/31 16:56:19.1	357.010	-0.450	0.480	-0.670
2020/01/31 16:56:19.2	356.970	-0.430	0.500	-0.640
2020/01/31 16:56:19.3	356.940	-0.420	0.510	-0.620
2020/01/31 16:56:19.4	356.900	-0.400	0.520	-0.600
2020/01/31 16:56:19.5	356.860	-0.370	0.520	-0.570
2020/01/31 16:56:19.6	356.820	-0.350	0.520	-0.540
2020/01/31 16:56:19.7	356.780	-0.320	0.510	-0.510
2020/01/31 16:56:19.8	356.740	-0.290	0.500	-0.470
2020/01/31 16:56:19.9	356.700	-0.260	0.480	-0.440
2020/01/31 16:56:20.0	356.660	-0.230	0.450	-0.400
2020/01/31 16:56:20.1	356.620	-0.200	0.420	-0.360
2020/01/31 16:56:20.2	356.580	-0.160	0.380	-0.330
2020/01/31 16:56:20.3	356.550	-0.120	0.350	-0.290
2020/01/31 16:56:20.4	356.510	-0.090	0.300	-0.250
2020/01/31 16:56:20.5	356.480	-0.050	0.260	-0.210
2020/01/31 16:56:20.6	356.440	-0.010	0.210	-0.180
2020/01/31 16:56:20.7	356.410	0.030	0.160	-0.140
2020/01/31 16:56:20.8	356.380	0.070	0.110	-0.100
2020/01/31 16:56:20.9	356.350	0.120	0.060	-0.070
2020/01/31 16:56:21.0	356.320	0.160	0.010	-0.030
2020/01/31 16:56:21.1	356.290	0.200	-0.040	-0.000
2020/01/31 16:56:21.2	356.270	0.240	-0.090	0.030
2020/01/31 16:56:21.3	356.250	0.270	-0.140	0.060
2020/01/31 16:56:21.4	356.230	0.310	-0.180	0.090
2020/01/31 16:56:21.5	356.210	0.350	-0.220	0.120
2020/01/31 16:56:21.6	356.190	0.380	-0.260	0.140
2020/01/31 16:56:21.7	356.170	0.420	-0.300	0.170
2020/01/31 16:56:21.8	356.150	0.450	-0.320	0.200
2020/01/31 16:56:21.9	356.130	0.480	-0.350	0.230
2020/01/31 16:56:22.0	356.120	0.510	-0.370	0.260
2020/01/31 16:56:22.1	356.110	0.540	-0.380	0.290
2020/01/31 16:56:22.2	356.090	0.560	-0.390	0.320
2020/01/31 16:56:22.3	356.080	0.580	-0.400	0.360
2020/01/31 16:56:22.4	356.070	0.600	-0.400	0.390
2020/01/31 16:56:22.5	356.060	0.620	-0.400	0.420
2020/01/31 16:56:22.6	356.050	0.630	-0.400	0.450
2020/01/31 16:56:22.7	356.040	0.640	-0.390	0.480
2020/01/31 16:56:22.8	356.030	0.640	-0.380	0.510
2020/01/31 16:56:22.9	356.020	0.650	-0.360	0.530
2020/01/31 16:56:23.0	356.020	0.640	-0.350	0.560
2020/01/31 16:56:23.1	356.020	0.640	-0.330	0.580
2020/01/31 16:56:23.2	356.010	0.630	-0.320	0.590
2020/01/31 16:56:23.3	356.020	0.620	-0.300	0.600
2020/01/31 16:56:23.4	356.020	0.610	-0.280	0.610
2020/01/31 16:56:23.5	356.020	0.590	-0.270	0.610
2020/01/31 16:56:23.6	356.030	0.570	-0.260	0.610
2020/01/31 16:56:23.7	356.040	0.540	-0.250	0.600
2020/01/31 16:56:23.8	356.050	0.520	-0.250	0.590
2020/01/31 16:56:23.9	356.070	0.490	-0.250	0.570
2020/01/31 16:56:24.0	356.090	0.460	-0.250	0.550
2020/01/31 16:56:24.1	356.110	0.420	-0.250	0.520
2020/01/31 16:56:24.2	356.140	0.390	-0.270	0.480
2020/01/31 16:56:24.3	356.170	0.350	-0.280	0.440
2020/01/31 16:56:24.4	356.200	0.310	-0.300	0.390
2020/01/31 16:56:24.5	356.230	0.270	-0.320	0.340
2020/01/31 16:56:24.6	356.270	0.230	-0.350	0.290
2020/01/31 16:56:24.7	356.300	0.190	-0.380	0.230
2020/01/31 16:56:24.8	356.340	0.150	-0.420	0.170
2020/01/31 16:56:24.9	356.380	0.110	-0.450	0.110
2020/01/31 16:56:25.0	356.420	0.070	-0.490	0.040
2020/01/31 16:56:25.1	356.460	0.030	-0.530	-0.030
2020/01/31 16:56:25.2	356.500	-0.020	-0.570	-0.100
2020/01/31 16:56:25.3	356.540	-0.060	-0.610	-0.170
2020/01/31 16:56:25.4	356.580	-0.100	-0.650	-0.240
2020/01/31 16:56:25.5	356.620	-0.130	-0.690	-0.310
2020/01/31 16:56:25.6	356.660	-0.170	-0.730	-0.380
2020/01/31 16:56:25.7	356.700	-0.210	-0.770	-0.450
2020/01/31 16:56:25.8	356.740	-0.240	-0.790	-0.520
2020/01/31 16:56:25.9	356.780	-0.280	-0.820	-0.590
2020/01/31 16:56:26.0	356.810	-0.310	-0.840	-0.650
2020/01/31 16:56:26.1	356.840	-0.340	-0.860	-0.710
2020/01/31 16:56:26.2	356.870	-0.370	-0.880	-0.760
2020/01/31 16:56:26.3	356.900	-0.400	-0.880	-0.810
2020/01/31 16:56:26.4	356.920	-0.420	-0.890	-0.860
2020/01/31 16:56:26.5	356.940	-0.450	-0.880	-0.910
2020/01/31 16:56:26.6	356.970	-0.470	-0.880	-0.950
2020/01/31 16:56:26.7	356.990	-0.490	-0.860	-0.980
2020/01/31 16:56:26.8	357.020	-0.500	-0.850	-1.010
2020/01/31 16:56:26.9	357.040	-0.520	-0.830	-1.040
2020/01/31 16:56:27.0	357.060	-0.540	-0.810	-1.070
2020/01/31 16:56:27.1	357.080	-0.550	-0.780	-1.100
2020/01/31 16:56:27.2	357.100	-0.560	-0.750	-1.120
2020/01/31 16:56:27.3	357.120	-0.570	-0.720	-1.140
2020/01/31 16:56:27.4	357.140	-0.580	-0.680	-1.160
2020/01/31 16:56:27.5	357.150	-0.590	-0.640	-1.170
2020/01/31 16:56:27.6	357.170	-0.590	-0.600	-1.190
2020/01/31 16:56:27.7	357.180	-0.600	-0.560	-1.200
2020/01/31 16:56:27.8	357.190	-0.600	-0.520	-1.210
2020/01/31 16:56:27.9	357.200	-0.610	-0.470	-1.220
2020/01/31 16:56:28.0	357.200	-0.610	-0.420	-1.220
2020/01/31 16:56:28.1	357.210	-0.610	-0.380	-1.220
2020/01/31 16:56:28.2	357.210	-0.610	-0.320	-1.220
2020/01/31 16:56:28.3	357.210	-0.610	-0.270	-1.220
2020/01/31 16:56:28.4	357.200	-0.610	-0.220	-1.220
2020/01/31 16:56:28.5	357.190	-0.610	-0.170	-1.220
2020/01/31 16:56:28.6	357.180	-0.610	-0.120	-1.210
2020/01/31 16:56:28.7	357.170	-0.610	-0.060	-1.200
2020/01/31 16:56:28.8	357.150	-0.610	-0.010	-1.180
2020/01/31 16:56:28.9	357.140	-0.600	0.040	-1.170
2020/01/31 16:56:29.0	357.120	-0.600	0.090	-1.150
2020/01/31 16:56:29.1	357.090	-0.590	0.140	-1.120
2020/01/31 16:56:29.2	357.070	-0.580	0.200	-1.090
2020/01/31 16:56:29.3	357.040	-0.570	0.250	-1.060
2020/01/31 16:56:29.4	357.010	-0.560	0.290	-1.030
2020/01/31 16:56:29.5	356.970	-0.550	0.340	-0.990
2020/01/31 16:56:29.6	356.940	-0.530	0.390	-0.940
2020/01/31 16:56:29.7	356.900	-0.520	0.430	-0.900
2020/01/31 16:56:29.8	356.890	-0.500	0.470	-0.850
2020/01/31 16:56:29.9	356.850	-0.480	0.510	-0.800
2020/01/31 16:56:30.0	356.820	-0.460	0.540	-0.750
2020/01/31 16:56:30.1	356.780	-0.430	0.570	-0.690
2020/01/31 16:56:30.2	356.740	-0.400	0.590	-0.630
2020/01/31 16:56:30.3	356.710	-0.370	0.610	-0.570
2020/01/31 16:56:30.4	356.670	-0.340	0.630	-0.520
2020/01/31 16:56:30.5	356.640	-0.300	0.630	-0.460
2020/01/31 16:56:30.6	356.610	-0.260	0.640	-0.400
2020/01/31 16:56:30.7	356.580	-0.220	0.630	-0.350
2020/01/31 16:56:30.8	356.560	-0.170	0.620	-0.290
2020/01/31 16:56:30.9	356.540	-0.120	0.600	-0.240
2020/01/31 16:56:31.0	356.520	-0.070	0.570	-0.190
2020/01/31 16:56:31.1	356.500	-0.020	0.540	-0.140
2020/01/31 16:56:31.2	356.480	0.040	0.500	-0.090
2020/01/31 16:56:31.3	356.470	0.100	0.450	-0.050
2020/01/31 16:56:31.4	356.460	0.160	0.400	-0.000
2020/01/31 16:56:31.5	356.440	0.220	0.340	0.040
2020/01/31 16:56:31.6	356.430	0.290	0.280	0.080
2020/01/31 16:56:31.7	356.420	0.350	0.220	0.130
2020/01/31 16:56:31.8	356.390	0.420	0.160	0.170
2020/01/31 16:56:31.9	356.370	0.480	0.090	0.220
2020/01/31 16:56:32.0	356.360	0.540	0.030	0.270
2020/01/31 16:56:32.1	356.340	0.600	-0.040	0.320
2020/01/31 16:56:32.2	356.320	0.660	-0.100	0.360
2020/01/31 16:56:32.3	356.290	0.720	-0.160	0.410
2020/01/31 16:56:32.4	356.270	0.780	-0.220	0.460
2020/01/31 16:56:32.5	356.250	0.830	-0.270	0.510
2020/01/31 16:56:32.6	356.220	0.880	-0.330	0.560
2020/01/31 16:56:32.7	356.200	0.930	-0.370	0.600
2020/01/31 16:56:32.8	356.170	0.970	-0.420	0.650
2020/01/31 16:56:32.9	356.140	1.010	-0.460	0.690
2020/01/31 16:56:33.0	356.120	1.040	-0.500	0.730
2020/01/31 16:56:33.1	356.090	1.070	-0.530	0.760
2020/01/31 16:56:33.2	356.070	1.090	-0.560	0.790
2020/01/31 16:56:33.3	356.050	1.110	-0.590	0.820
2020/01/31 16:56:33.4	356.030	1.120	-0.620	0.840
2020/01/31 16:56:33.5	356.010	1.130	-0.640	0.860
2020/01/31 16:56:33.6	355.990	1.140	-0.660	0.870
2020/01/31 16:56:33.7	355.980	1.130	-0.680	0.870
2020/01/31 16:56:33.8	355.960	1.130	-0.700	0.870
2020/01/31 16:56:33.9	355.950	1.120	-0.720	0.860
2020/01/31 16:56:34.0	355.950	1.100	-0.730	0.840
2020/01/31 16:56:34.1	355.950	1.080	-0.750	0.820
2020/01/31 16:56:34.2	355.950	1.050	-0.760	0.780
2020/01/31 16:56:34.3	355.950	1.020	-0.780	0.740
2020/01/31 16:56:34.4	355.960	0.990	-0.790	0.700
2020/01/31 16:56:34.5	355.970	0.950	-0.800	0.640
2020/01/31 16:56:34.6	355.990	0.910	-0.820	0.580
2020/01/31 16:56:34.7	356.010	0.860	-0.830	0.510
2020/01/31 16:56:34.8	356.020	0.810	-0.840	0.440
2020/01/31 16:56:34.9	356.040	0.760	-0.850	0.360
2020/01/31 16:56:35.0	356.070	0.700	-0.860	0.280
2020/01/31 16:56:35.1	356.100	0.640	-0.870	0.190
2020/01/31 16:56:35.2	356.140	0.580	-0.880	0.100
2020/01/31 16:56:35.3	356.180	0.520	-0.890	0.010
2020/01/31 16:56:35.4	356.220	0.450	-0.900	-0.090
2020/01/31 16:56:35.5	356.260	0.390	-0.900	-0.180
2020/01/31 16:56:35.6	356.300	0.320	-0.900	-0.280
2020/01/31 16:56:35.7	356.350	0.250	-0.900	-0.380
2020/01/31 16:56:35.8	356.390	0.180	-0.900	-0.470
2020/01/31 16:56:35.9	356.440	0.100	-0.890	-0.570
2020/01/31 16:56:36.0	356.490	0.030	-0.880	-0.670
2020/01/31 16:56:36.1	356.540	-0.040	-0.870	-0.760
2020/01/31 16:56:36.2	356.590	-0.120	-0.850	-0.850
2020/01/31 16:56:36.3	356.630	-0.190	-0.830	-0.950
2020/01/31 16:56:36.4	356.680	-0.260	-0.810	-1.040
2020/01/31 16:56:36.5	356.730	-0.330	-0.780	-1.120
2020/01/31 16:56:36.6	356.780	-0.410	-0.750	-1.210
2020/01/31 16:56:36.7	356.820	-0.470	-0.720	-1.290
2020/01/31 16:56:36.8	356.870	-0.540	-0.690	-1.370
2020/01/31 16:56:36.9	356.910	-0.610	-0.650	-1.450
2020/01/31 16:56:37.0	356.960	-0.670	-0.610	-1.520
2020/01/31 16:56:37.1	357.000	-0.730	-0.570	-1.590
2020/01/31 16:56:37.2	357.040	-0.790	-0.530	-1.660
2020/01/31 16:56:37.3	357.080	-0.840	-0.490	-1.720
2020/01/31 16:56:37.4	357.120	-0.890	-0.440	-1.770
2020/01/31 16:56:37.5	357.160	-0.940	-0.400	-1.820
2020/01/31 16:56:37.6	357.200	-0.980	-0.350	-1.860
2020/01/31 16:56:37.7	357.230	-1.010	-0.300	-1.890
2020/01/31 16:56:37.8	357.270	-1.050	-0.250	-1.920
2020/01/31 16:56:37.9	357.300	-1.080	-0.200	-1.940
2020/01/31 16:56:38.0	357.320	-1.100	-0.150	-1.950
2020/01/31 16:56:38.1	357.340	-1.120	-0.100	-1.950
2020/01/31 16:56:38.2	357.350	-1.130	-0.050	-1.950
2020/01/31 16:56:38.3	357.360	-1.140	-0.000	-1.940
2020/01/31 16:56:38.4	357.370	-1.140	0.050	-1.920
2020/01/31 16:56:38.5	357.370	-1.140	0.100	-1.890
2020/01/31 16:56:38.6	357.360	-1.130	0.140	-1.850
2020/01/31 16:56:38.7	357.350	-1.120	0.190	-1.810
2020/01/31 16:56:38.8	357.340	-1.100	0.230	-1.750
2020/01/31 16:56:38.9	357.330	-1.080	0.270	-1.700
2020/01/31 16:56:39.0	357.310	-1.050	0.310	-1.640
2020/01/31 16:56:39.1	357.280	-1.020	0.350	-1.570
2020/01/31 16:56:39.2	357.260	-0.980	0.380	-1.500
2020/01/31 16:56:39.3	357.230	-0.950	0.410	-1.420
2020/01/31 16:56:39.4	357.200	-0.900	0.440	-1.340
2020/01/31 16:56:39.5	357.170	-0.860	0.470	-1.260
2020/01/31 16:56:39.6	357.130	-0.810	0.490	-1.170
2020/01/31 16:56:39.7	357.100	-0.760	0.500	-1.090
2020/01/31 16:56:39.8	357.080	-0.700	0.510	-1.000
2020/01/31 16:56:39.9	357.040	-0.650	0.520	-0.920
2020/01/31 16:56:40.0	357.000	-0.590	0.520	-0.830
2020/01/31 16:56:40.1	356.970	-0.530	0.520	-0.750
2020/01/31 16:56:40.2	356.930	-0.470	0.510	-0.670
2020/01/31 16:56:40.3	356.900	-0.400	0.490	-0.590
2020/01/31 16:56:40.4	356.860	-0.340	0.480	-0.510
2020/01/31 16:56:40.5	356.830	-0.280	0.450	-0.430
2020/01/31 16:56:40.6	356.790	-0.210	0.430	-0.360
2020/01/31 16:56:40.7	356.760	-0.150	0.400	-0.280
2020/01/31 16:56:40.8	356.730	-0.080	0.370	-0.210
2020/01/31 16:56:40.9	356.700	-0.020	0.330	-0.140
2020/01/31 16:56:41.0	356.660	0.040	0.300	-0.070
2020/01/31 16:56:41.1	356.630	0.100	0.260	0.000
2020/01/31 16:56:41.2	356.600	0.160	0.220	0.070
2020/01/31 16:56:41.3	356.570	0.220	0.180	0.130
2020/01/31 16:56:41.4	356.530	0.270	0.140	0.190
2020/01/31 16:56:41.5	356.500	0.320	0.100	0.250
2020/01/31 16:56:41.6	356.470	0.370	0.060	0.300
2020/01/31 16:56:41.7	356.450	0.420	0.020	0.350
2020/01/31 16:56:41.8	356.410	0.470	-0.010	0.400
2020/01/31 16:56:41.9	356.390	0.510	-0.050	0.450
2020/01/31 16:56:42.0	356.370	0.550	-0.080	0.490
2020/01/31 16:56:42.1	356.340	0.580	-0.120	0.520
2020/01/31 16:56:42.2	356.330	0.610	-0.150	0.550
2020/01/31 16:56:42.3	356.310	0.640	-0.180	0.570
2020/01/31 16:56:42.4	356.290	0.660	-0.210	0.590
2020/01/31 16:56:42.5	356.280	0.680	-0.240	0.610
2020/01/31 16:56:42.6	356.270	0.700	-0.260	0.620
2020/01/31 16:56:42.7	356.260	0.710	-0.290	0.630
2020/01/31 16:56:42.8	356.250	0.720	-0.310	0.630
2020/01/31 16:56:42.9	356.250	0.730	-0.330	0.630
2020/01/31 16:56:43.0	356.240	0.730	-0.350	0.630
2020/01/31 16:56:43.1	356.240	0.730	-0.360	0.620
2020/01/31 16:56:43.2	356.240	0.730	-0.380	0.620
2020/01/31 16:56:43.3	356.230	0.720	-0.390	0.610
2020/01/31 16:56:43.4	356.230	0.710	-0.400	0.600
2020/01/31 16:56:43.5	356.230	0.700	-0.410	0.590
2020/01/31 16:56:43.6	356.220	0.680	-0.410	0.570
2020/01/31 16:56:43.7	356.220	0.660	-0.420	0.560
2020/01/31 16:56:43.8	356.210	0.640	-0.420	0.540
2020/01/31 16:56:43.9	356.210	0.620	-0.420	0.520
2020/01/31 16:56:44.0	356.200	0.590	-0.420	0.510
2020/01/31 16:56:44.1	356.200	0.560	-0.410	0.490
2020/01/31 16:56:44.2	356.190	0.530	-0.410	0.460
2020/01/31 16:56:44.3	356.180	0.500	-0.400	0.440
2020/01/31 16:56:44.4	356.170	0.470	-0.390	0.410
2020/01/31 16:56:44.5	356.170	0.430	-0.390	0.390
2020/01/31 16:56:44.6	356.160	0.400	-0.380	0.360
2020/01/31 16:56:44.7	356.150	0.360	-0.380	0.330
2020/01/31 16:56:44.8	356.150	0.330	-0.370	0.290
2020/01/31 16:56:44.9	356.140	0.290	-0.370	0.250
2020/01/31 16:56:45.0	356.140	0.260	-0.370	0.210
2020/01/31 16:56:45.1	356.130	0.220	-0.370	0.170
2020/01/31 16:56:45.2	356.130	0.190	-0.380	0.130
2020/01/31 16:56:45.3	356.120	0.150	-0.390	0.080
2020/01/31 16:56:45.4	356.120	0.120	-0.400	0.030
2020/01/31 16:56:45.5	356.120	0.100	-0.420	-0.010
2020/01/31 16:56:45.6	356.120	0.070	-0.430	-0.070
2020/01/31 16:56:45.7	356.120	0.040	-0.460	-0.120
2020/01/31 16:56:45.8	356.120	0.020	-0.480	-0.180
2020/01/31 16:56:45.9	356.130	0.000	-0.510	-0.230
2020/01/31 16:56:46.0	356.140	-0.010	-0.550	-0.290
2020/01/31 16:56:46.1	356.150	-0.030	-0.580	-0.350
2020/01/31 16:56:46.2	356.170	-0.040	-0.620	-0.410
2020/01/31 16:56:46.3	356.180	-0.040	-0.660	-0.470
2020/01/31 16:56:46.4	356.210	-0.050	-0.710	-0.530
2020/01/31 16:56:46.5	356.230	-0.050	-0.750	-0.590
2020/01/31 16:56:46.6	356.250	-0.050	-0.790	-0.650
2020/01/31 16:56:46.7	356.280	-0.040	-0.840	-0.710
2020/01/31 16:56:46.8	356.310	-0.040	-0.880	-0.770
2020/01/31 16:56:46.9	356.340	-0.030	-0.920	-0.830
2020/01/31 16:56:47.0	356.370	-0.020	-0.960	-0.890
2020/01/31 16:56:47.1	356.410	-0.010	-1.000	-0.950
2020/01/31 16:56:47.2	356.440	0.010	-1.040	-1.000
2020/01/31 16:56:47.3	356.480	0.020	-1.070	-1.060
2020/01/31 16:56:47.4	356.510	0.040	-1.100	-1.110
2020/01/31 16:56:47.5	356.550	0.060	-1.120	-1.150
2020/01/31 16:56:47.6	356.590	0.070	-1.140	-1.200
2020/01/31 16:56:47.7	356.620	0.090	-1.150	-1.230
2020/01/31 16:56:47.8	356.660	0.100	-1.150	-1.270
2020/01/31 16:56:47.9	356.700	0.120	-1.160	-1.300
2020/01/31 16:56:48.0	356.730	0.130	-1.150	-1.320
2020/01/31 16:56:48.1	356.770	0.150	-1.140	-1.350
2020/01/31 16:56:48.2	356.800	0.160	-1.120	-1.360
2020/01/31 16:56:48.3	356.830	0.170	-1.100	-1.370
2020/01/31 16:56:48.4	356.870	0.180	-1.070	-1.380
2020/01/31 16:56:48.5	356.900	0.190	-1.040	-1.380
2020/01/31 16:56:48.6	356.930	0.190	-1.000	-1.380
2020/01/31 16:56:48.7	356.950	0.190	-0.950	-1.370
2020/01/31 16:56:48.8	356.990	0.190	-0.900	-1.350
2020/01/31 16:56:48.9	357.020	0.190	-0.840	-1.330
2020/01/31 16:56:49.0	357.040	0.180	-0.780	-1.310
2020/01/31 16:56:49.1	357.060	0.180	-0.720	-1.280
2020/01/31 16:56:49.2	357.080	0.170	-0.650	-1.250
2020/01/31 16:56:49.3	357.100	0.150	-0.570	-1.210
2020/01/31 16:56:49.4	357.120	0.140	-0.490	-1.170
2020/01/31 16:56:49.5	357.130	0.120	-0.410	-1.120
2020/01/31 16:56:49.6	357.150	0.100	-0.330	-1.080
2020/01/31 16:56:49.7	357.160	0.080	-0.250	-1.020
2020/01/31 16:56:49.8	357.170	0.050	-0.160	-0.970
2020/01/31 16:56:49.9	357.180	0.030	-0.080	-0.910
2020/01/31 16:56:50.0	357.180	-0.000	0.010	-0.850
2020/01/31 16:56:50.1	357.180	-0.030	0.090	-0.790
2020/01/31 16:56:50.2	357.180	-0.060	0.170	-0.730
2020/01/31 16:56:50.3	357.180	-0.090	0.260	-0.660
2020/01/31 16:56:50.4	357.170	-0.130	0.330	-0.600
2020/01/31 16:56:50.5	357.170	-0.160	0.410	-0.540
2020/01/31 16:56:50.6	357.160	-0.190	0.480	-0.480
2020/01/31 16:56:50.7	357.150	-0.230	0.550	-0.420
2020/01/31 16:56:50.8	357.160	-0.260	0.610	-0.350
2020/01/31 16:56:50.9	357.140	-0.290	0.670	-0.290
2020/01/31 16:56:51.0	357.130	-0.320	0.730	-0.240
2020/01/31 16:56:51.1	357.110	-0.350	0.780	-0.180
2020/01/31 16:56:51.2	357.090	-0.380	0.820	-0.120
2020/01/31 16:56:51.3	357.070	-0.410	0.860	-0.070
2020/01/31 16:56:51.4	357.050	-0.430	0.890	-0.010
2020/01/31 16:56:51.5	357.030	-0.450	0.920	0.040
2020/01/31 16:56:51.6	357.010	-0.470	0.940	0.090
2020/01/31 16:56:51.7	356.980	-0.490	0.960	0.140
2020/01/31 16:56:51.8	356.940	-0.510	0.970	0.190
2020/01/31 16:56:51.9	356.910	-0.520	0.980	0.240
2020/01/31 16:56:52.0	356.880	-0.530	0.980	0.280
2020/01/31 16:56:52.1	356.840	-0.530	0.980	0.330
2020/01/31 16:56:52.2	356.810	-0.540	0.970	0.370
2020/01/31 16:56:52.3	356.770	-0.540	0.960	0.410
2020/01/31 16:56:52.4	356.730	-0.530	0.940	0.460
2020/01/31 16:56:52.5	356.690	-0.530	0.920	0.490
2020/01/31 16:56:52.6	356.650	-0.520	0.900	0.530
2020/01/31 16:56:52.7	356.600	-0.510	0.870	0.570
2020/01/31 16:56:52.8	356.550	-0.490	0.830	0.600
2020/01/31 16:56:52.9	356.510	-0.480	0.790	0.630
2020/01/31 16:56:53.0	356.460	-0.460	0.750	0.660
2020/01/31 16:56:53.1	356.410	-0.440	0.700	0.680
2020/01/31 16:56:53.2	356.370	-0.410	0.650	0.700
2020/01/31 16:56:53.3	356.320	-0.390	0.600	0.720
2020/01/31 16:56:53.4	356.270	-0.360	0.540	0.740
2020/01/31 16:56:53.5	356.220	-0.330	0.480	0.750
2020/01/31 16:56:53.6	356.180	-0.300	0.420	0.760
2020/01/31 16:56:53.7	356.130	-0.270	0.350	0.770
2020/01/31 16:56:53.8	356.080	-0.230	0.280	0.780
2020/01/31 16:56:53.9	356.030	-0.200	0.210	0.780
2020/01/31 16:56:54.0	355.980	-0.160	0.140	0.780
2020/01/31 16:56:54.1	355.930	-0.120	0.070	0.780
2020/01/31 16:56:54.2	355.880	-0.090	-0.010	0.770
2020/01/31 16:56:54.3	355.840	-0.050	-0.080	0.770
2020/01/31 16:56:54.4	355.790	-0.010	-0.160	0.760
2020/01/31 16:56:54.5	355.740	0.020	-0.230	0.740
2020/01/31 16:56:54.6	355.700	0.060	-0.310	0.730
2020/01/31 16:56:54.7	355.660	0.100	-0.380	0.710
2020/01/31 16:56:54.8	355.610	0.130	-0.450	0.680
2020/01/31 16:56:54.9	355.570	0.170	-0.530	0.650
2020/01/31 16:56:55.0	355.530	0.200	-0.600	0.620
2020/01/31 16:56:55.1	355.500	0.240	-0.670	0.590
2020/01/31 16:56:55.2	355.470	0.270	-0.740	0.550
2020/01/31 16:56:55.3	355.440	0.300	-0.800	0.510
2020/01/31 16:56:55.4	355.410	0.330	-0.860	0.460
2020/01/31 16:56:55.5	355.390	0.350	-0.920	0.420
2020/01/31 16:56:55.6	355.380	0.380	-0.980	0.360
2020/01/31 16:56:55.7	355.360	0.400	-1.030	0.310
2020/01/31 16:56:55.8	355.340	0.420	-1.080	0.250
2020/01/31 16:56:55.9	355.340	0.440	-1.130	0.190
2020/01/31 16:56:56.0	355.340	0.460	-1.170	0.130
2020/01/31 16:56:56.1	355.340	0.470	-1.210	0.060
2020/01/31 16:56:56.2	355.350	0.480	-1.240	-0.000
2020/01/31 16:56:56.3	355.370	0.500	-1.270	-0.070
2020/01/31 16:56:56.4	355.390	0.500	-1.300	-0.140
2020/01/31 16:56:56.5	355.410	0.510	-1.320	-0.220
2020/01/31 16:56:56.6	355.440	0.520	-1.340	-0.290
2020/01/31 16:56:56.7	355.470	0.520	-1.360	-0.370
2020/01/31 16:56:56.8	355.490	0.520	-1.360	-0.440
2020/01/31 16:56:56.9	355.530	0.520	-1.370	-0.520
2020/01/31 16:56:57.0	355.570	0.520	-1.370	-0.590
2020/01/31 16:56:57.1	355.620	0.510	-1.360	-0.660
2020/01/31 16:56:57.2	355.670	0.500	-1.350	-0.740
2020/01/31 16:56:57.3	355.720	0.500	-1.340	-0.810
2020/01/31 16:56:57.4	355.770	0.490	-1.320	-0.870
2020/01/31 16:56:57.5	355.830	0.480	-1.290	-0.940
2020/01/31 16:56:57.6	355.880	0.460	-1.270	-1.000
2020/01/31 16:56:57.7	355.940	0.450	-1.230	-1.060
2020/01/31 16:56:57.8	356.000	0.440	-1.200	-1.120
2020/01/31 16:56:57.9	356.060	0.420	-1.160	-1.170
2020/01/31 16:56:58.0	356.120	0.400	-1.120	-1.220
2020/01/31 16:56:58.1	356.180	0.390	-1.070	-1.260
2020/01/31 16:56:58.2	356.240	0.370	-1.020	-1.290
2020/01/31 16:56:58.3	356.300	0.350	-0.970	-1.330
2020/01/31 16:56:58.4	356.360	0.330	-0.910	-1.350
2020/01/31 16:56:58.5	356.420	0.310	-0.850	-1.370
2020/01/31 16:56:58.6	356.480	0.290	-0.800	-1.390
2020/01/31 16:56:58.7	356.530	0.270	-0.740	-1.400
2020/01/31 16:56:58.8	356.600	0.250	-0.680	-1.390
2020/01/31 16:56:58.9	356.650	0.230	-0.610	-1.390
2020/01/31 16:56:59.0	356.700	0.210	-0.550	-1.380
2020/01/31 16:56:59.1	356.740	0.180	-0.490	-1.360
2020/01/31 16:56:59.2	356.780	0.160	-0.420	-1.340
2020/01/31 16:56:59.3	356.810	0.140	-0.360	-1.310
2020/01/31 16:56:59.4	356.840	0.120	-0.300	-1.280
2020/01/31 16:56:59.5	356.870	0.090	-0.240	-1.240
2020/01/31 16:56:59.6	356.890	0.070	-0.180	-1.200
2020/01/31 16:56:59.7	356.910	0.050	-0.120	-1.160
2020/01/31 16:56:59.8	356.930	0.030	-0.060	-1.110
2020/01/31 16:56:59.9	356.950	0.010	-0.010	-1.070
2020/01/31 16:57:00.0	356.960	-0.020	0.040	-1.020
2020/01/31 16:57:00.1	356.960	-0.040	0.090	-0.970
2020/01/31 16:57:00.2	356.960	-0.060	0.130	-0.920
2020/01/31 16:57:00.3	356.960	-0.080	0.170	-0.870
2020/01/31 16:57:00.4	356.950	-0.100	0.210	-0.810
2020/01/31 16:57:00.5	356.940	-0.120	0.240	-0.760
2020/01/31 16:57:00.6	356.930	-0.130	0.280	-0.710
2020/01/31 16:57:00.7	356.910	-0.150	0.300	-0.650
2020/01/31 16:57:00.8	356.880	-0.170	0.330	-0.600
2020/01/31 16:57:00.9	356.860	-0.180	0.350	-0.540
2020/01/31 16:57:01.0	356.830	-0.200	0.370	-0.490
2020/01/31 16:57:01.1	356.790	-0.210	0.390	-0.430
2020/01/31 16:57:01.2	356.750	-0.220	0.400	-0.380
2020/01/31 16:57:01.3	356.710	-0.240	0.410	-0.320
2020/01/31 16:57:01.4	356.670	-0.250	0.420	-0.270
2020/01/31 16:57:01.5	356.620	-0.260	0.430	-0.220
2020/01/31 16:57:01.6	356.570	-0.270	0.440	-0.170
2020/01/31 16:57:01.7	356.520	-0.280	0.440	-0.130
2020/01/31 16:57:01.8	356.480	-0.280	0.440	-0.080
2020/01/31 16:57:01.9	356.430	-0.290	0.440	-0.040
2020/01/31 16:57:02.0	356.380	-0.300	0.430	-0.000
2020/01/31 16:57:02.1	356.320	-0.300	0.420	0.030
2020/01/31 16:57:02.2	356.270	-0.300	0.410	0.060
2020/01/31 16:57:02.3	356.220	-0.310	0.400	0.090
2020/01/31 16:57:02.4	356.160	-0.310	0.390	0.120
2020/01/31 16:57:02.5	356.110	-0.310	0.370	0.140
2020/01/31 16:57:02.6	356.060	-0.310	0.360	0.150
2020/01/31 16:57:02.7	356.010	-0.300	0.340	0.170
2020/01/31 16:57:02.8	355.950	-0.300	0.310	0.180
2020/01/31 16:57:02.9	355.900	-0.290	0.290	0.190
2020/01/31 16:57:03.0	355.850	-0.280	0.270	0.200
2020/01/31 16:57:03.1	355.810	-0.270	0.250	0.200
2020/01/31 16:57:03.2	355.760	-0.260	0.220	0.200
2020/01/31 16:57:03.3	355.720	-0.250	0.190	0.200
2020/01/31 16:57:03.4	355.680	-0.230	0.170	0.200
2020/01/31 16:57:03.5	355.640	-0.220	0.140	0.190
2020/01/31 16:57:03.6	355.600	-0.200	0.110	0.190
2020/01/31 16:57:03.7	355.560	-0.180	0.080	0.180
2020/01/31 16:57:03.8	355.530	-0.160	0.060	0.170
2020/01/31 16:57:03.9	355.490	-0.140	0.030	0.160
2020/01/31 16:57:04.0	355.460	-0.120	0.010	0.160
2020/01/31 16:57:04.1	355.430	-0.090	-0.020	0.150
2020/01/31 16:57:04.2	355.410	-0.070	-0.040	0.140
2020/01/31 16:57:04.3	355.380	-0.050	-0.060	0.140
2020/01/31 16:57:04.4	355.360	-0.020	-0.090	0.130
2020/01/31 16:57:04.5	355.340	0.000	-0.110	0.120
2020/01/31 16:57:04.6	355.320	0.020	-0.120	0.120
2020/01/31 16:57:04.7	355.300	0.050	-0.140	0.110
2020/01/31 16:57:04.8	355.280	0.070	-0.160	0.110
2020/01/31 16:57:04.9	355.260	0.090	-0.170	0.100
2020/01/31 16:57:05.0	355.250	0.110	-0.180	0.100
2020/01/31 16:57:05.1	355.230	0.130	-0.190	0.090
2020/01/31 16:57:05.2	355.230	0.150	-0.200	0.080
2020/01/31 16:57:05.3	355.220	0.160	-0.210	0.070
2020/01/31 16:57:05.4	355.210	0.180	-0.220	0.060
2020/01/31 16:57:05.5	355.210	0.190	-0.230	0.050
2020/01/31 16:57:05.6	355.210	0.200	-0.230	0.040
2020/01/31 16:57:05.7	355.210	0.210	-0.240	0.030
2020/01/31 16:57:05.8	355.220	0.210	-0.250	0.010
2020/01/31 16:57:05.9	355.220	0.220	-0.260	-0.000
2020/01/31 16:57:06.0	355.230	0.220	-0.270	-0.020
2020/01/31 16:57:06.1	355.250	0.220	-0.280	-0.040
2020/01/31 16:57:06.2	355.260	0.220	-0.300	-0.060
2020/01/31 16:57:06.3	355.280	0.220	-0.310	-0.080
2020/01/31 16:57:06.4	355.300	0.210	-0.330	-0.100
2020/01/31 16:57:06.5	355.320	0.200	-0.340	-0.120
2020/01/31 16:57:06.6	355.340	0.200	-0.360	-0.150
2020/01/31 16:57:06.7	355.360	0.190	-0.380	-0.180
2020/01/31 16:57:06.8	355.380	0.180	-0.400	-0.200
2020/01/31 16:57:06.9	355.410	0.160	-0.430	-0.240
2020/01/31 16:57:07.0	355.440	0.150	-0.450	-0.270
2020/01/31 16:57:07.1	355.470	0.140	-0.480	-0.310
2020/01/31 16:57:07.2	355.510	0.130	-0.500	-0.350
2020/01/31 16:57:07.3	355.540	0.110	-0.530	-0.390
2020/01/31 16:57:07.4	355.580	0.100	-0.550	-0.430
2020/01/31 16:57:07.5	355.620	0.090	-0.580	-0.470
2020/01/31 16:57:07.6	355.660	0.070	-0.610	-0.510
2020/01/31 16:57:07.7	355.700	0.060	-0.630	-0.560
2020/01/31 16:57:07.8	355.760	0.050	-0.650	-0.600
2020/01/31 16:57:07.9	355.800	0.040	-0.670	-0.640
2020/01/31 16:57:08.0	355.850	0.030	-0.690	-0.680
2020/01/31 16:57:08.1	355.890	0.020	-0.700	-0.720
2020/01/31 16:57:08.2	355.930	0.020	-0.720	-0.750
2020/01/31 16:57:08.3	355.970	0.010	-0.730	-0.780
2020/01/31 16:57:08.4	356.010	0.010	-0.730	-0.810
2020/01/31 16:57:08.5	356.050	0.010	-0.730	-0.830
2020/01/31 16:57:08.6	356.090	0.000	-0.730	-0.850
2020/01/31 16:57:08.7	356.120	0.000	-0.730	-0.870
2020/01/31 16:57:08.8	356.160	0.010	-0.720	-0.880
2020/01/31 16:57:08.9	356.190	0.010	-0.710	-0.890
2020/01/31 16:57:09.0	356.220	0.010	-0.700	-0.890
2020/01/31 16:57:09.1	356.250	0.010	-0.690	-0.890
2020/01/31 16:57:09.2	356.270	0.020	-0.670	-0.890
2020/01/31 16:57:09.3	356.290	0.020	-0.650	-0.880
2020/01/31 16:57:09.4	356.310	0.020	-0.630	-0.870
2020/01/31 16:57:09.5	356.330	0.030	-0.610	-0.860
2020/01/31 16:57:09.6	356.340	0.030	-0.590	-0.850
2020/01/31 16:57:09.7	356.350	0.030	-0.560	-0.830
2020/01/31 16:57:09.8	356.360	0.030	-0.540	-0.810
2020/01/31 16:57:09.9	356.370	0.040	-0.510	-0.790
2020/01/31 16:57:10.0	356.370	0.040	-0.490	-0.770
2020/01/31 16:57:10.1	356.370	0.040	-0.460	-0.760
2020/01/31 16:57:10.2	356.360	0.040	-0.440	-0.740
2020/01/31 16:57:10.3	356.360	0.040	-0.410	-0.720
2020/01/31 16:57:10.4	356.350	0.040	-0.390	-0.700
2020/01/31 16:57:10.5	356.340	0.030	-0.370	-0.690
2020/01/31 16:57:10.6	356.330	0.030	-0.350	-0.670
2020/01/31 16:57:10.7	356.320	0.030	-0.320	-0.660
2020/01/31 16:57:10.8	356.310	0.020	-0.310	-0.640
2020/01/31 16:57:10.9	356.300	0.020	-0.290	-0.620
2020/01/31 16:57:11.0	356.280	0.010	-0.270	-0.610
2020/01/31 16:57:11.1	356.270	0.010	-0.250	-0.590
2020/01/31 16:57:11.2	356.250	0.000	-0.230	-0.580
2020/01/31 16:57:11.3	356.230	-0.000	-0.220	-0.560
2020/01/31 16:57:11.4	356.210	-0.010	-0.200	-0.540
2020/01/31 16:57:11.5	356.190	-0.020	-0.190	-0.530
2020/01/31 16:57:11.6	356.180	-0.020	-0.180	-0.510
2020/01/31 16:57:11.7	356.160	-0.030	-0.160	-0.490
2020/01/31 16:57:11.8	356.140	-0.030	-0.150	-0.470
2020/01/31 16:57:11.9	356.120	-0.040	-0.140	-0.450
2020/01/31 16:57:12.0	356.100	-0.040	-0.130	-0.420
2020/01/31 16:57:12.1	356.080	-0.040	-0.120	-0.400
2020/01/31 16:57:12.2	356.070	-0.050	-0.120	-0.370
2020/01/31 16:57:12.3	356.050	-0.050	-0.110	-0.350
2020/01/31 16:57:12.4	356.030	-0.050	-0.100	-0.320
2020/01/31 16:57:12.5	356.010	-0.050	-0.090	-0.300
2020/01/31 16:57:12.6	355.990	-0.050	-0.090	-0.270
2020/01/31 16:57:12.7	355.970	-0.060	-0.080	-0.250
2020/01/31 16:57:12.8	355.940	-0.060	-0.070	-0.220
2020/01/31 16:57:12.9	355.920	-0.060	-0.070	-0.200
2020/01/31 16:57:13.0	355.900	-0.060	-0.060	-0.170
2020/01/31 16:57:13.1	355.880	-0.060	-0.050	-0.150
2020/01/31 16:57:13.2	355.860	-0.060	-0.050	-0.130
2020/01/31 16:57:13.3	355.840	-0.060	-0.040	-0.110
2020/01/31 16:57:13.4	355.820	-0.060	-0.040	-0.100
2020/01/31 16:57:13.5	355.800	-0.060	-0.030	-0.080
2020/01/31 16:57:13.6	355.790	-0.050	-0.030	-0.070
2020/01/31 16:57:13.7	355.770	-0.050	-0.020	-0.050
2020/01/31 16:57:13.8	355.750	-0.050	-0.020	-0.040
2020/01/31 16:57:13.9	355.740	-0.050	-0.010	-0.030
2020/01/31 16:57:14.0	355.730	-0.050	-0.010	-0.030
2020/01/31 16:57:14.1	355.720	-0.040	-0.010	-0.020
2020/01/31 16:57:14.2	355.710	-0.040	-0.020	-0.020
2020/01/31 16:57:14.3	355.710	-0.040	-0.020	-0.010
2020/01/31 16:57:14.4	355.700	-0.030	-0.030	-0.010
2020/01/31 16:57:14.5	355.710	-0.030	-0.040	-0.020
2020/01/31 16:57:14.6	355.710	-0.020	-0.050	-0.020
2020/01/31 16:57:14.7	355.720	-0.020	-0.060	-0.030
2020/01/31 16:57:14.8	355.730	-0.010	-0.070	-0.040
2020/01/31 16:57:14.9	355.750	-0.000	-0.090	-0.050
2020/01/31 16:57:15.0	355.760	0.000	-0.110	-0.060
2020/01/31 16:57:15.1	355.780	0.010	-0.130	-0.080
2020/01/31 16:57:15.2	355.800	0.020	-0.150	-0.090
2020/01/31 16:57:15.3	355.820	0.030	-0.180	-0.110
2020/01/31 16:57:15.4	355.850	0.030	-0.200	-0.130
2020/01/31 16:57:15.5	355.880	0.040	-0.230	-0.150
2020/01/31 16:57:15.6	355.900	0.050	-0.250	-0.170
2020/01/31 16:57:15.7	355.930	0.050	-0.270	-0.200
2020/01/31 16:57:15.8	355.960	0.060	-0.290	-0.210
2020/01/31 16:57:15.9	355.990	0.060	-0.310	-0.240
2020/01/31 16:57:16.0	356.020	0.060	-0.330	-0.260
2020/01/31 16:57:16.1	356.040	0.070	-0.340	-0.280
2020/01/31 16:57:16.2	356.070	0.070	-0.350	-0.290
2020/01/31 16:57:16.3	356.090	0.060	-0.360	-0.310
2020/01/31 16:57:16.4	356.120	0.060	-0.370	-0.330
2020/01/31 16:57:16.5	356.130	0.060	-0.370	-0.340
2020/01/31 16:57:16.6	356.150	0.050	-0.360	-0.350
2020/01/31 16:57:16.7	356.160	0.040	-0.360	-0.360
2020/01/31 16:57:16.8	356.180	0.030	-0.350	-0.370
2020/01/31 16:57:16.9	356.180	0.020	-0.330	-0.380
2020/01/31 16:57:17.0	356.190	0.010	-0.310	-0.380
2020/01/31 16:57:17.1	356.190	-0.000	-0.290	-0.380
2020/01/31 16:57:17.2	356.190	-0.010	-0.260	-0.380
2020/01/31 16:57:17.3	356.180	-0.030	-0.230	-0.370
2020/01/31 16:57:17.4	356.170	-0.040	-0.200	-0.360
2020/01/31 16:57:17.5	356.160	-0.060	-0.170	-0.350
2020/01/31 16:57:17.6	356.150	-0.070	-0.130	-0.340
2020/01/31 16:57:17.7	356.140	-0.090	-0.090	-0.330
2020/01/31 16:57:17.8	356.120	-0.110	-0.050	-0.310
2020/01/31 16:57:17.9	356.110	-0.120	-0.020	-0.300
2020/01/31 16:57:18.0	356.090	-0.140	0.020	-0.280
2020/01/31 16:57:18.1	356.070	-0.150	0.060	-0.260
2020/01/31 16:57:18.2	356.050	-0.160	0.090	-0.240
2020/01/31 16:57:18.3	356.030	-0.170	0.120	-0.220
2020/01/31 16:57:18.4	356.010	-0.190	0.150	-0.200
2020/01/31 16:57:18.5	356.000	-0.200	0.170	-0.180
2020/01/31 16:57:18.6	355.980	-0.200	0.190	-0.160
2020/01/31 16:57:18.7	355.960	-0.210	0.200	-0.150
2020/01/31 16:57:18.8	355.940	-0.210	0.210	-0.130
2020/01/31 16:57:18.9	355.920	-0.220	0.220	-0.120
2020/01/31 16:57:19.0	355.910	-0.220	0.220	-0.110
2020/01/31 16:57:19.1	355.900	-0.220	0.210	-0.100
2020/01/31 16:57:19.2	355.890	-0.210	0.200	-0.100
2020/01/31 16:57:19.3	355.880	-0.210	0.190	-0.090
2020/01/31 16:57:19.4	355.870	-0.200	0.170	-0.090
2020/01/31 16:57:19.5	355.860	-0.200	0.140	-0.100
2020/01/31 16:57:19.6	355.860	-0.190	0.110	-0.100
2020/01/31 16:57:19.7	355.850	-0.170	0.070	-0.110
2020/01/31 16:57:19.8	355.870	-0.160	0.040	-0.130
2020/01/31 16:57:19.9	355.870	-0.150	-0.010	-0.140
2020/01/31 16:57:20.0	355.870	-0.130	-0.060	-0.160
2020/01/31 16:57:20.1	355.870	-0.110	-0.110	-0.180
2020/01/31 16:57:20.2	355.880	-0.090	-0.160	-0.200
2020/01/31 16:57:20.3	355.890	-0.080	-0.220	-0.220
2020/01/31 16:57:20.4	355.900	-0.060	-0.270	-0.250
2020/01/31 16:57:20.5	355.910	-0.030	-0.330	-0.280
2020/01/31 16:57:20.6	355.930	-0.010	-0.390	-0.300
2020/01/31 16:57:20.7	355.940	0.010	-0.450	-0.330
2020/01/31 16:57:20.8	355.970	0.030	-0.510	-0.360
2020/01/31 16:57:20.9	355.990	0.050	-0.570	-0.390
2020/01/31 16:57:21.0	356.010	0.070	-0.620	-0.420
2020/01/31 16:57:21.1	356.030	0.090	-0.680	-0.440
2020/01/31 16:57:21.2	356.050	0.110	-0.730	-0.470
2020/01/31 16:57:21.3	356.070	0.130	-0.780	-0.500
2020/01/31 16:57:21.4	356.090	0.150	-0.830	-0.520
2020/01/31 16:57:21.5	356.120	0.170	-0.870	-0.550
2020/01/31 16:57:21.6	356.140	0.190	-0.910	-0.570
2020/01/31 16:57:21.7	356.170	0.200	-0.940	-0.590
2020/01/31 16:57:21.8	356.190	0.220	-0.970	-0.610
2020/01/31 16:57:21.9	356.220	0.230	-1.000	-0.630
2020/01/31 16:57:22.0	356.250	0.240	-1.020	-0.650
2020/01/31 16:57:22.1	356.270	0.250	-1.030	-0.670
2020/01/31 16:57:22.2	356.300	0.260	-1.040	-0.680
2020/01/31 16:57:22.3	356.320	0.260	-1.050	-0.690
2020/01/31 16:57:22.4	356.350	0.270	-1.050	-0.700
2020/01/31 16:57:22.5	356.380	0.270	-1.040	-0.710
2020/01/31 16:57:22.6	356.400	0.270	-1.030	-0.720
2020/01/31 16:57:22.7	356.430	0.270	-1.010	-0.720
2020/01/31 16:57:22.8	356.460	0.270	-0.990	-0.730
2020/01/31 16:57:22.9	356.480	0.260	-0.960	-0.730
2020/01/31 16:57:23.0	356.510	0.260	-0.920	-0.730
2020/01/31 16:57:23.1	356.530	0.250	-0.890	-0.730
2020/01/31 16:57:23.2	356.560	0.240	-0.850	-0.730
2020/01/31 16:57:23.3	356.580	0.230	-0.800	-0.730
2020/01/31 16:57:23.4	356.600	0.220	-0.750	-0.720
2020/01/31 16:57:23.5	356.620	0.210	-0.700	-0.720
2020/01/31 16:57:23.6	356.650	0.200	-0.650	-0.710
2020/01/31 16:57:23.7	356.670	0.180	-0.590	-0.700
2020/01/31 16:57:23.8	356.690	0.170	-0.530	-0.680
2020/01/31 16:57:23.9	356.710	0.150	-0.470	-0.670
2020/01/31 16:57:24.0	356.720	0.130	-0.410	-0.660
2020/01/31 16:57:24.1	356.740	0.120	-0.350	-0.640
2020/01/31 16:57:24.2	356.750	0.100	-0.290	-0.620
2020/01/31 16:57:24.3	356.760	0.080	-0.230	-0.600
2020/01/31 16:57:24.4	356.770	0.060	-0.170	-0.580
2020/01/31 16:57:24.5	356.780	0.050	-0.110	-0.550
2020/01/31 16:57:24.6	356.780	0.030	-0.060	-0.530
2020/01/31 16:57:24.7	356.790	0.010	-0.010	-0.500
2020/01/31 16:57:24.8	356.780	-0.010	0.050	-0.480
2020/01/31 16:57:24.9	356.780	-0.020	0.100	-0.450
2020/01/31 16:57:25.0	356.780	-0.040	0.140	-0.420
2020/01/31 16:57:25.1	356.780	-0.050	0.180	-0.390
2020/01/31 16:57:25.2	356.770	-0.070	0.220	-0.350
2020/01/31 16:57:25.3	356.760	-0.080	0.260	-0.320
2020/01/31 16:57:25.4	356.750	-0.090	0.290	-0.290
2020/01/31 16:57:25.5	356.740	-0.100	0.320	-0.260
2020/01/31 16:57:25.6	356.730	-0.110	0.340	-0.220
2020/01/31 16:57:25.7	356.710	-0.120	0.370	-0.190
2020/01/31 16:57:25.8	356.700	-0.120	0.390	-0.150
2020/01/31 16:57:25.9	356.680	-0.130	0.400	-0.110
2020/01/31 16:57:26.0	356.660	-0.130	0.410	-0.080
2020/01/31 16:57:26.1	356.630	-0.130	0.420	-0.050
2020/01/31 16:57:26.2	356.610	-0.130	0.430	-0.010
2020/01/31 16:57:26.3	356.590	-0.130	0.430	0.020
2020/01/31 16:57:26.4	356.560	-0.120	0.430	0.050
2020/01/31 16:57:26.5	356.530	-0.120	0.420	0.080
2020/01/31 16:57:26.6	356.510	-0.110	0.420	0.120
2020/01/31 16:57:26.7	356.480	-0.100	0.410	0.150
2020/01/31 16:57:26.8	356.450	-0.090	0.400	0.180
2020/01/31 16:57:26.9	356.420	-0.080	0.390	0.210
2020/01/31 16:57:27.0	356.390	-0.070	0.370	0.240
2020/01/31 16:57:27.1	356.360	-0.060	0.350	0.270
2020/01/31 16:57:27.2	356.320	-0.040	0.330	0.300
2020/01/31 16:57:27.3	356.290	-0.030	0.310	0.330
2020/01/31 16:57:27.4	356.260	-0.010	0.290	0.360
2020/01/31 16:57:27.5	356.230	0.000	0.270	0.380
2020/01/31 16:57:27.6	356.200	0.020	0.240	0.400
2020/01/31 16:57:27.7	356.170	0.030	0.210	0.420
2020/01/31 16:57:27.8	356.130	0.050	0.180	0.440
2020/01/31 16:57:27.9	356.110	0.070	0.140	0.450
2020/01/31 16:57:28.0	356.090	0.080	0.110	0.460
2020/01/31 16:57:28.1	356.070	0.100	0.070	0.460
2020/01/31 16:57:28.2	356.050	0.110	0.020	0.460
2020/01/31 16:57:28.3	356.040	0.130	-0.020	0.450
2020/01/31 16:57:28.4	356.030	0.140	-0.070	0.440
2020/01/31 16:57:28.5	356.030	0.160	-0.120	0.420
2020/01/31 16:57:28.6	356.030	0.170	-0.170	0.390
2020/01/31 16:57:28.7	356.030	0.180	-0.220	0.350
2020/01/31 16:57:28.8	356.040	0.190	-0.270	0.310
2020/01/31 16:57:28.9	356.050	0.200	-0.330	0.270
2020/01/31 16:57:29.0	356.060	0.210	-0.380	0.220
2020/01/31 16:57:29.1	356.080	0.210	-0.440	0.170
2020/01/31 16:57:29.2	356.100	0.220	-0.490	0.110
2020/01/31 16:57:29.3	356.120	0.220	-0.540	0.050
2020/01/31 16:57:29.4	356.150	0.220	-0.590	-0.010
2020/01/31 16:57:29.5	356.170	0.220	-0.640	-0.070
2020/01/31 16:57:29.6	356.190	0.210	-0.680	-0.140
2020/01/31 16:57:29.7	356.220	0.200	-0.720	-0.200
2020/01/31 16:57:29.8	356.250	0.190	-0.760	-0.270
2020/01/31 16:57:29.9	356.270	0.180	-0.800	-0.330
2020/01/31 16:57:30.0	356.290	0.170	-0.820	-0.400
2020/01/31 16:57:30.1	356.320	0.150	-0.840	-0.460
2020/01/31 16:57:30.2	356.340	0.130	-0.860	-0.520
2020/01/31 16:57:30.3	356.360	0.110	-0.870	-0.580
2020/01/31 16:57:30.4	356.380	0.090	-0.870	-0.630
2020/01/31 16:57:30.5	356.400	0.060	-0.870	-0.690
2020/01/31 16:57:30.6	356.420	0.030	-0.870	-0.740
2020/01/31 16:57:30.7	356.440	0.000	-0.850	-0.790
2020/01/31 16:57:30.8	356.470	-0.030	-0.830	-0.840
2020/01/31 16:57:30.9	356.490	-0.060	-0.810	-0.890
2020/01/31 16:57:31.0	356.510	-0.090	-0.790	-0.930
2020/01/31 16:57:31.1	356.530	-0.120	-0.760	-0.970
2020/01/31 16:57:31.2	356.550	-0.160	-0.740	-1.010
2020/01/31 16:57:31.3	356.570	-0.190	-0.700	-1.050
2020/01/31 16:57:31.4	356.580	-0.220	-0.670	-1.080
2020/01/31 16:57:31.5	356.600	-0.260	-0.640	-1.110
2020/01/31 16:57:31.6	356.620	-0.290	-0.600	-1.140
2020/01/31 16:57:31.7	356.640	-0.320	-0.570	-1.170
2020/01/31 16:57:31.8	356.660	-0.350	-0.540	-1.190
2020/01/31 16:57:31.9	356.670	-0.380	-0.510	-1.220
2020/01/31 16:57:32.0	356.690	-0.410	-0.480	-1.240
2020/01/31 16:57:32.1	356.710	-0.440	-0.450	-1.260
2020/01/31 16:57:32.2	356.730	-0.460	-0.420	-1.270
2020/01/31 16:57:32.3	356.750	-0.480	-0.390	-1.290
2020/01/31 16:57:32.4	356.770	-0.500	-0.370	-1.300
2020/01/31 16:57:32.5	356.790	-0.510	-0.350	-1.310
2020/01/31 16:57:32.6	356.810	-0.530	-0.330	-1.320
2020/01/31 16:57:32.7	356.830	-0.540	-0.310	-1.320
2020/01/31 16:57:32.8	356.850	-0.540	-0.290	-1.330
2020/01/31 16:57:32.9	356.870	-0.550	-0.280	-1.330
2020/01/31 16:57:33.0	356.890	-0.550	-0.270	-1.320
2020/01/31 16:57:33.1	356.900	-0.550	-0.260	-1.320
2020/01/31 16:57:33.2	356.920	-0.550	-0.260	-1.310
2020/01/31 16:57:33.3	356.930	-0.540	-0.250	-1.300
2020/01/31 16:57:33.4	356.950	-0.530	-0.250	-1.290
2020/01/31 16:57:33.5	356.960	-0.520	-0.240	-1.270
2020/01/31 16:57:33.6	356.970	-0.500	-0.240	-1.250
2020/01/31 16:57:33.7	356.980	-0.490	-0.240	-1.230
2020/01/31 16:57:33.8	357.000	-0.470	-0.230	-1.190
2020/01/31 16:57:33.9	357.000	-0.450	-0.230	-1.160
2020/01/31 16:57:34.0	357.010	-0.430	-0.220	-1.130
2020/01/31 16:57:34.1	357.010	-0.400	-0.220	-1.090
2020/01/31 16:57:34.2	357.010	-0.380	-0.210	-1.050
2020/01/31 16:57:34.3	357.010	-0.350	-0.200	-1.010
2020/01/31 16:57:34.4	357.010	-0.320	-0.190	-0.960
2020/01/31 16:57:34.5	357.000	-0.290	-0.180	-0.900
2020/01/31 16:57:34.6	357.000	-0.260	-0.160	-0.850
2020/01/31 16:57:34.7	356.990	-0.230	-0.150	-0.790
2020/01/31 16:57:34.8	356.980	-0.200	-0.130	-0.730
2020/01/31 16:57:34.9	356.970	-0.160	-0.110	-0.660
2020/01/31 16:57:35.0	356.950	-0.130	-0.090	-0.600
2020/01/31 16:57:35.1	356.940	-0.100	-0.070	-0.530
2020/01/31 16:57:35.2	356.920	-0.060	-0.050	-0.460
2020/01/31 16:57:35.3	356.910	-0.030	-0.030	-0.390
2020/01/31 16:57:35.4	356.890	0.010	-0.010	-0.320
2020/01/31 16:57:35.5	356.870	0.040	0.020	-0.250
2020/01/31 16:57:35.6	356.860	0.070	0.040	-0.170
2020/01/31 16:57:35.7	356.840	0.110	0.050	-0.100
2020/01/31 16:57:35.8	356.840	0.140	0.070	-0.030
2020/01/31 16:57:35.9	356.820	0.170	0.080	0.040
2020/01/31 16:57:36.0	356.810	0.210	0.100	0.110
2020/01/31 16:57:36.1	356.790	0.240	0.110	0.170
2020/01/31 16:57:36.2	356.780	0.270	0.120	0.240
2020/01/31 16:57:36.3	356.770	0.300	0.130	0.300
2020/01/31 16:57:36.4	356.750	0.330	0.140	0.360
2020/01/31 16:57:36.5	356.740	0.370	0.140	0.420
2020/01/31 16:57:36.6	356.720	0.390	0.140	0.480
2020/01/31 16:57:36.7	356.700	0.420	0.150	0.530
2020/01/31 16:57:36.8	356.690	0.450	0.150	0.590
2020/01/31 16:57:36.9	356.670	0.480	0.150	0.640
2020/01/31 16:57:37.0	356.650	0.500	0.140	0.680
2020/01/31 16:57:37.1	356.630	0.520	0.140	0.730
2020/01/31 16:57:37.2	356.600	0.550	0.130	0.760
2020/01/31 16:57:37.3	356.580	0.570	0.130	0.800
2020/01/31 16:57:37.4	356.560	0.580	0.120	0.830
2020/01/31 16:57:37.5	356.530	0.600	0.110	0.860
2020/01/31 16:57:37.6	356.510	0.620	0.090	0.880
2020/01/31 16:57:37.7	356.480	0.630	0.080	0.890
2020/01/31 16:57:37.8	356.440	0.640	0.070	0.900
2020/01/31 16:57:37.9	356.420	0.650	0.050	0.910
2020/01/31 16:57:38.0	356.400	0.650	0.030	0.900
2020/01/31 16:57:38.1	356.380	0.650	0.010	0.900
2020/01/31 16:57:38.2	356.360	0.660	-0.010	0.890
2020/01/31 16:57:38.3	356.340	0.650	-0.040	0.870
2020/01/31 16:57:38.4	356.330	0.650	-0.060	0.850
2020/01/31 16:57:38.5	356.320	0.640	-0.090	0.820
2020/01/31 16:57:38.6	356.310	0.630	-0.120	0.790
2020/01/31 16:57:38.7	356.300	0.620	-0.150	0.750
2020/01/31 16:57:38.8	356.290	0.600	-0.190	0.710
2020/01/31 16:57:38.9	356.290	0.590	-0.220	0.660
2020/01/31 16:57:39.0	356.280	0.560	-0.260	0.610
2020/01/31 16:57:39.1	356.280	0.540	-0.300	0.550
2020/01/31 16:57:39.2	356.280	0.520	-0.340	0.490
2020/01/31 16:57:39.3	356.290	0.490	-0.380	0.420
2020/01/31 16:57:39.4	356.290	0.450	-0.420	0.350
2020/01/31 16:57:39.5	356.290	0.420	-0.460	0.270
2020/01/31 16:57:39.6	356.300	0.380	-0.510	0.200
2020/01/31 16:57:39.7	356.310	0.350	-0.550	0.120
2020/01/31 16:57:39.8	356.320	0.310	-0.590	0.030
2020/01/31 16:57:39.9	356.330	0.260	-0.630	-0.050
2020/01/31 16:57:40.0	356.340	0.220	-0.670	-0.140
2020/01/31 16:57:40.1	356.350	0.180	-0.710	-0.230
2020/01/31 16:57:40.2	356.370	0.130	-0.750	-0.320
2020/01/31 16:57:40.3	356.390	0.090	-0.790	-0.410
2020/01/31 16:57:40.4	356.410	0.040	-0.820	-0.500
2020/01/31 16:57:40.5	356.430	-0.010	-0.850	-0.590
2020/01/31 16:57:40.6	356.450	-0.050	-0.880	-0.680
2020/01/31 16:57:40.7	356.470	-0.100	-0.900	-0.770
2020/01/31 16:57:40.8	356.490	-0.140	-0.920	-0.860
2020/01/31 16:57:40.9	356.520	-0.190	-0.940	-0.950
2020/01/31 16:57:41.0	356.540	-0.230	-0.950	-1.030
2020/01/31 16:57:41.1	356.570	-0.270	-0.960	-1.110
2020/01/31 16:57:41.2	356.600	-0.310	-0.960	-1.180
2020/01/31 16:57:41.3	356.640	-0.350	-0.960	-1.250
2020/01/31 16:57:41.4	356.670	-0.380	-0.950	-1.320
2020/01/31 16:57:41.5	356.700	-0.410	-0.950	-1.390
2020/01/31 16:57:41.6	356.740	-0.440	-0.930	-1.450
2020/01/31 16:57:41.7	356.770	-0.470	-0.910	-1.510
2020/01/31 16:57:41.8	356.820	-0.490	-0.890	-1.560
2020/01/31 16:57:41.9	356.860	-0.510	-0.870	-1.610
2020/01/31 16:57:42.0	356.890	-0.530	-0.840	-1.660
2020/01/31 16:57:42.1	356.930	-0.550	-0.810	-1.700
2020/01/31 16:57:42.2	356.970	-0.560	-0.770	-1.730
2020/01/31 16:57:42.3	357.000	-0.570	-0.730	-1.760
2020/01/31 16:57:42.4	357.040	-0.570	-0.690	-1.790
2020/01/31 16:57:42.5	357.080	-0.570	-0.640	-1.800
2020/01/31 16:57:42.6	357.110	-0.570	-0.600	-1.820
2020/01/31 16:57:42.7	357.150	-0.570	-0.550	-1.820
2020/01/31 16:57:42.8	357.180	-0.560	-0.500	-1.820
2020/01/31 16:57:42.9	357.220	-0.550	-0.450	-1.820
2020/01/31 16:57:43.0	357.250	-0.540	-0.390	-1.800
2020/01/31 16:57:43.1	357.280	-0.520	-0.340	-1.790
2020/01/31 16:57:43.2	357.310	-0.510	-0.290	-1.760
2020/01/31 16:57:43.3	357.330	-0.490	-0.230	-1.730
2020/01/31 16:57:43.4	357.360	-0.470	-0.170	-1.700
2020/01/31 16:57:43.5	357.380	-0.450	-0.120	-1.650
2020/01/31 16:57:43.6	357.400	-0.430	-0.060	-1.600
2020/01/31 16:57:43.7	357.420	-0.410	-0.010	-1.550
2020/01/31 16:57:43.8	357.450	-0.380	0.040	-1.490
2020/01/31 16:57:43.9	357.460	-0.360	0.090	-1.420
2020/01/31 16:57:44.0	357.460	-0.340	0.150	-1.350
2020/01/31 16:57:44.1	357.460	-0.320	0.200	-1.280
2020/01/31 16:57:44.2	357.460	-0.300	0.240	-1.200
2020/01/31 16:57:44.3	357.460	-0.280	0.290	-1.120
2020/01/31 16:57:44.4	357.450	-0.260	0.330	-1.030
2020/01/31 16:57:44.5	357.440	-0.240	0.370	-0.950
2020/01/31 16:57:44.6	357.420	-0.220	0.410	-0.860
2020/01/31 16:57:44.7	357.410	-0.210	0.440	-0.770
2020/01/31 16:57:44.8	357.390	-0.190	0.480	-0.670
2020/01/31 16:57:44.9	357.370	-0.180	0.510	-0.580
2020/01/31 16:57:45.0	357.350	-0.170	0.530	-0.490
2020/01/31 16:57:45.1	357.320	-0.150	0.550	-0.400
2020/01/31 16:57:45.2	357.290	-0.150	0.560	-0.320
2020/01/31 16:57:45.3	357.260	-0.140	0.570	-0.230
2020/01/31 16:57:45.4	357.220	-0.130	0.580	-0.140
2020/01/31 16:57:45.5	357.190	-0.120	0.580	-0.060
2020/01/31 16:57:45.6	357.150	-0.120	0.580	0.030
2020/01/31 16:57:45.7	357.110	-0.110	0.570	0.110
2020/01/31 16:57:45.8	357.070	-0.110	0.560	0.200
2020/01/31 16:57:45.9	357.030	-0.110	0.550	0.280
2020/01/31 16:57:46.0	356.980	-0.100	0.530	0.360
2020/01/31 16:57:46.1	356.930	-0.100	0.500	0.430
2020/01/31 16:57:46.2	356.880	-0.100	0.480	0.500
2020/01/31 16:57:46.3	356.830	-0.100	0.440	0.570
2020/01/31 16:57:46.4	356.780	-0.100	0.410	0.630
2020/01/31 16:57:46.5	356.730	-0.100	0.370	0.680
2020/01/31 16:57:46.6	356.680	-0.090	0.320	0.730
2020/01/31 16:57:46.7	356.630	-0.090	0.280	0.780
2020/01/31 16:57:46.8	356.580	-0.090	0.230	0.810
2020/01/31 16:57:46.9	356.530	-0.080	0.180	0.840
2020/01/31 16:57:47.0	356.490	-0.080	0.120	0.870
2020/01/31 16:57:47.1	356.450	-0.070	0.060	0.880
2020/01/31 16:57:47.2	356.410	-0.060	-0.000	0.890
2020/01/31 16:57:47.3	356.380	-0.050	-0.060	0.890
2020/01/31 16:57:47.4	356.350	-0.040	-0.130	0.880
2020/01/31 16:57:47.5	356.320	-0.020	-0.190	0.870
2020/01/31 16:57:47.6	356.300	-0.010	-0.260	0.850
2020/01/31 16:57:47.7	356.280	0.010	-0.330	0.830
2020/01/31 16:57:47.8	356.260	0.030	-0.400	0.790
2020/01/31 16:57:47.9	356.250	0.050	-0.470	0.760
2020/01/31 16:57:48.0	356.240	0.070	-0.540	0.720
2020/01/31 16:57:48.1	356.240	0.100	-0.610	0.670
2020/01/31 16:57:48.2	356.240	0.120	-0.680	0.620
2020/01/31 16:57:48.3	356.250	0.150	-0.750	0.570
2020/01/31 16:57:48.4	356.260	0.180	-0.810	0.520
2020/01/31 16:57:48.5	356.280	0.210	-0.880	0.460
2020/01/31 16:57:48.6	356.300	0.240	-0.940	0.400
2020/01/31 16:57:48.7	356.320	0.270	-1.000	0.330
2020/01/31 16:57:48.8	356.330	0.300	-1.050	0.270
2020/01/31 16:57:48.9	356.360	0.320	-1.100	0.210
2020/01/31 16:57:49.0	356.390	0.350	-1.150	0.140
2020/01/31 16:57:49.1	356.420	0.380	-1.190	0.070
2020/01/31 16:57:49.2	356.450	0.400	-1.230	0.000
2020/01/31 16:57:49.3	356.490	0.430	-1.260	-0.070
2020/01/31 16:57:49.4	356.530	0.450	-1.280	-0.130
2020/01/31 16:57:49.5	356.560	0.470	-1.300	-0.200
2020/01/31 16:57:49.6	356.600	0.480	-1.310	-0.270
2020/01/31 16:57:49.7	356.640	0.500	-1.320	-0.340
2020/01/31 16:57:49.8	356.680	0.510	-1.320	-0.400
2020/01/31 16:57:49.9	356.720	0.510	-1.320	-0.470
2020/01/31 16:57:50.0	356.760	0.520	-1.300	-0.520
2020/01/31 16:57:50.1	356.790	0.520	-1.280	-0.580
2020/01/31 16:57:50.2	356.830	0.520	-1.260	-0.640
2020/01/31 16:57:50.3	356.870	0.510	-1.230	-0.690
2020/01/31 16:57:50.4	356.900	0.500	-1.190	-0.730
2020/01/31 16:57:50.5	356.930	0.490	-1.150	-0.770
2020/01/31 16:57:50.6	356.960	0.470	-1.100	-0.810
2020/01/31 16:57:50.7	356.990	0.450	-1.040	-0.840
2020/01/31 16:57:50.8	357.000	0.430	-0.980	-0.860
2020/01/31 16:57:50.9	357.030	0.400	-0.920	-0.880
2020/01/31 16:57:51.0	357.040	0.380	-0.850	-0.890
2020/01/31 16:57:51.1	357.060	0.350	-0.780	-0.900
2020/01/31 16:57:51.2	357.070	0.310	-0.700	-0.910
2020/01/31 16:57:51.3	357.070	0.280	-0.620	-0.910
2020/01/31 16:57:51.4	357.080	0.240	-0.540	-0.900
2020/01/31 16:57:51.5	357.080	0.200	-0.450	-0.890
2020/01/31 16:57:51.6	357.080	0.160	-0.370	-0.880
2020/01/31 16:57:51.7	357.070	0.120	-0.280	-0.860
2020/01/31 16:57:51.8	357.060	0.080	-0.200	-0.840
2020/01/31 16:57:51.9	357.050	0.040	-0.110	-0.820
2020/01/31 16:57:52.0	357.040	-0.000	-0.030	-0.800
2020/01/31 16:57:52.1	357.030	-0.040	0.050	-0.770
2020/01/31 16:57:52.2	357.010	-0.080	0.130	-0.740
2020/01/31 16:57:52.3	356.990	-0.120	0.210	-0.710
2020/01/31 16:57:52.4	356.970	-0.160	0.280	-0.680
2020/01/31 16:57:52.5	356.950	-0.200	0.350	-0.650
2020/01/31 16:57:52.6	356.930	-0.230	0.410	-0.610
2020/01/31 16:57:52.7	356.910	-0.270	0.470	-0.580
2020/01/31 16:57:52.8	356.880	-0.300	0.520	-0.540
2020/01/31 16:57:52.9	356.860	-0.330	0.570	-0.510
2020/01/31 16:57:53.0	356.840	-0.350	0.610	-0.480
2020/01/31 16:57:53.1	356.820	-0.370	0.640	-0.440
2020/01/31 16:57:53.2	356.800	-0.390	0.670	-0.410
2020/01/31 16:57:53.3	356.780	-0.400	0.690	-0.380
2020/01/31 16:57:53.4	356.760	-0.410	0.700	-0.340
2020/01/31 16:57:53.5	356.740	-0.420	0.710	-0.310
2020/01/31 16:57:53.6	356.720	-0.430	0.710	-0.280
2020/01/31 16:57:53.7	356.700	-0.430	0.700	-0.250
2020/01/31 16:57:53.8	356.680	-0.420	0.690	-0.220
2020/01/31 16:57:53.9	356.660	-0.410	0.670	-0.200
2020/01/31 16:57:54.0	356.650	-0.400	0.650	-0.170
2020/01/31 16:57:54.1	356.630	-0.390	0.620	-0.150
2020/01/31 16:57:54.2	356.610	-0.370	0.580	-0.120
2020/01/31 16:57:54.3	356.600	-0.350	0.550	-0.100
2020/01/31 16:57:54.4	356.580	-0.330	0.500	-0.080
2020/01/31 16:57:54.5	356.570	-0.300	0.460	-0.070
2020/01/31 16:57:54.6	356.560	-0.270	0.410	-0.050
2020/01/31 16:57:54.7	356.550	-0.240	0.360	-0.040
2020/01/31 16:57:54.8	356.550	-0.210	0.310	-0.030
2020/01/31 16:57:54.9	356.540	-0.170	0.250	-0.020
2020/01/31 16:57:55.0	356.540	-0.140	0.200	-0.010
2020/01/31 16:57:55.1	356.540	-0.100	0.140	-0.010
2020/01/31 16:57:55.2	356.530	-0.070	0.090	-0.010
2020/01/31 16:57:55.3	356.530	-0.030	0.040	-0.010
2020/01/31 16:57:55.4	356.530	0.000	-0.020	-0.020
2020/01/31 16:57:55.5	356.530	0.040	-0.070	-0.020
2020/01/31 16:57:55.6	356.540	0.070	-0.120	-0.030
2020/01/31 16:57:55.7	356.540	0.090	-0.160	-0.030
2020/01/31 16:57:55.8	356.540	0.120	-0.210	-0.040
2020/01/31 16:57:55.9	356.540	0.140	-0.250	-0.050
2020/01/31 16:57:56.0	356.540	0.160	-0.290	-0.050
2020/01/31 16:57:56.1	356.550	0.180	-0.320	-0.060
2020/01/31 16:57:56.2	356.550	0.190	-0.350	-0.070
2020/01/31 16:57:56.3	356.550	0.200	-0.380	-0.070
2020/01/31 16:57:56.4	356.550	0.200	-0.410	-0.080
2020/01/31 16:57:56.5	356.540	0.200	-0.430	-0.090
2020/01/31 16:57:56.6	356.540	0.200	-0.450	-0.090
2020/01/31 16:57:56.7	356.540	0.190	-0.470	-0.100
2020/01/31 16:57:56.8	356.530	0.180	-0.480	-0.100
2020/01/31 16:57:56.9	356.520	0.160	-0.490	-0.110
2020/01/31 16:57:57.0	356.510	0.140	-0.500	-0.110
2020/01/31 16:57:57.1	356.510	0.120	-0.500	-0.120
2020/01/31 16:57:57.2	356.500	0.090	-0.510	-0.120
2020/01/31 16:57:57.3	356.480	0.060	-0.510	-0.130
2020/01/31 16:57:57.4	356.470	0.030	-0.500	-0.130
2020/01/31 16:57:57.5	356.460	-0.010	-0.500	-0.140
2020/01/31 16:57:57.6	356.450	-0.050	-0.500	-0.140
2020/01/31 16:57:57.7	356.430	-0.080	-0.490	-0.150
2020/01/31 16:57:57.8	356.420	-0.120	-0.480	-0.150
2020/01/31 16:57:57.9	356.400	-0.160	-0.470	-0.150
2020/01/31 16:57:58.0	356.390	-0.200	-0.460	-0.160
2020/01/31 16:57:58.1	356.370	-0.240	-0.450	-0.160
2020/01/31 16:57:58.2	356.360	-0.270	-0.440	-0.170
2020/01/31 16:57:58.3	356.350	-0.310	-0.440	-0.180
2020/01/31 16:57:58.4	356.340	-0.340	-0.430	-0.190
2020/01/31 16:57:58.5	356.330	-0.370	-0.430	-0.200
2020/01/31 16:57:58.6	356.320	-0.390	-0.430	-0.210
2020/01/31 16:57:58.7	356.310	-0.410	-0.430	-0.220
2020/01/31 16:57:58.8	356.290	-0.430	-0.430	-0.230
2020/01/31 16:57:58.9	356.290	-0.450	-0.430	-0.240
2020/01/31 16:57:59.0	356.290	-0.450	-0.440	-0.260
2020/01/31 16:57:59.1	356.280	-0.460	-0.450	-0.270
2020/01/31 16:57:59.2	356.280	-0.460	-0.460	-0.290
2020/01/31 16:57:59.3	356.290	-0.450	-0.470	-0.300
2020/01/31 16:57:59.4	356.290	-0.440	-0.490	-0.320
2020/01/31 16:57:59.5	356.300	-0.420	-0.510	-0.340
2020/01/31 16:57:59.6	356.300	-0.400	-0.530	-0.360
2020/01/31 16:57:59.7	356.310	-0.370	-0.550	-0.370
2020/01/31 16:57:59.8	356.310	-0.340	-0.570	-0.390
2020/01/31 16:57:59.9	356.320	-0.300	-0.590	-0.410
2020/01/31 16:58:00.0	356.330	-0.260	-0.610	-0.420
2020/01/31 16:58:00.1	356.350	-0.220	-0.630	-0.440
2020/01/31 16:58:00.2	356.360	-0.170	-0.650	-0.450
2020/01/31 16:58:00.3	356.370	-0.120	-0.670	-0.460
2020/01/31 16:58:00.4	356.390	-0.070	-0.690	-0.460
2020/01/31 16:58:00.5	356.400	-0.010	-0.710	-0.470
2020/01/31 16:58:00.6	356.420	0.040	-0.720	-0.480
2020/01/31 16:58:00.7	356.440	0.100	-0.740	-0.480
2020/01/31 16:58:00.8	356.450	0.150	-0.750	-0.480
2020/01/31 16:58:00.9	356.470	0.210	-0.760	-0.480
2020/01/31 16:58:01.0	356.490	0.260	-0.760	-0.480
2020/01/31 16:58:01.1	356.510	0.310	-0.770	-0.480
2020/01/31 16:58:01.2	356.530	0.360	-0.770	-0.470
2020/01/31 16:58:01.3	356.550	0.410	-0.770	-0.470
2020/01/31 16:58:01.4	356.570	0.450	-0.760	-0.460
2020/01/31 16:58:01.5	356.600	0.490	-0.750	-0.460
2020/01/31 16:58:01.6	356.620	0.530	-0.740	-0.450
2020/01/31 16:58:01.7	356.640	0.560	-0.730	-0.440
2020/01/31 16:58:01.8	356.660	0.580	-0.720	-0.420
2020/01/31 16:58:01.9	356.670	0.600	-0.700	-0.410
2020/01/31 16:58:02.0	356.690	0.620	-0.670	-0.390
2020/01/31 16:58:02.1	356.710	0.630	-0.640	-0.370
2020/01/31 16:58:02.2	356.720	0.630	-0.610	-0.350
2020/01/31 16:58:02.3	356.740	0.630	-0.580	-0.330
2020/01/31 16:58:02.4	356.750	0.620	-0.540	-0.310
2020/01/31 16:58:02.5	356.760	0.610	-0.500	-0.290
2020/01/31 16:58:02.6	356.760	0.590	-0.450	-0.260
2020/01/31 16:58:02.7	356.770	0.570	-0.400	-0.240
2020/01/31 16:58:02.8	356.770	0.540	-0.350	-0.210
2020/01/31 16:58:02.9	356.770	0.510	-0.290	-0.190
2020/01/31 16:58:03.0	356.770	0.470	-0.240	-0.160
2020/01/31 16:58:03.1	356.760	0.430	-0.180	-0.130
2020/01/31 16:58:03.2	356.760	0.380	-0.120	-0.110
2020/01/31 16:58:03.3	356.750	0.330	-0.050	-0.080
2020/01/31 16:58:03.4	356.730	0.280	0.010	-0.060
2020/01/31 16:58:03.5	356.720	0.230	0.070	-0.040
2020/01/31 16:58:03.6	356.700	0.180	0.130	-0.010
2020/01/31 16:58:03.7	356.690	0.120	0.200	0.000
2020/01/31 16:58:03.8	356.680	0.070	0.260	0.030
2020/01/31 16:58:03.9	356.660	0.010	0.310	0.040
2020/01/31 16:58:04.0	356.640	-0.050	0.370	0.060
2020/01/31 16:58:04.1	356.620	-0.100	0.420	0.070
2020/01/31 16:58:04.2	356.600	-0.150	0.470	0.070
2020/01/31 16:58:04.3	356.580	-0.200	0.510	0.080
2020/01/31 16:58:04.4	356.560	-0.250	0.550	0.080
2020/01/31 16:58:04.5	356.540	-0.290	0.590	0.080
2020/01/31 16:58:04.6	356.530	-0.340	0.620	0.080
2020/01/31 16:58:04.7	356.510	-0.370	0.640	0.080
2020/01/31 16:58:04.8	356.490	-0.410	0.650	0.070
2020/01/31 16:58:04.9	356.480	-0.430	0.660	0.060
2020/01/31 16:58:05.0	356.470	-0.460	0.670	0.050
2020/01/31 16:58:05.1	356.460	-0.480	0.660	0.030
2020/01/31 16:58:05.2	356.450	-0.490	0.650	0.020
2020/01/31 16:58:05.3	356.440	-0.500	0.630	-0.000
2020/01/31 16:58:05.4	356.440	-0.510	0.610	-0.030
2020/01/31 16:58:05.5	356.440	-0.510	0.580	-0.050
2020/01/31 16:58:05.6	356.440	-0.500	0.540	-0.080
2020/01/31 16:58:05.7	356.440	-0.500	0.500	-0.100
2020/01/31 16:58:05.8	356.460	-0.480	0.450	-0.130
2020/01/31 16:58:05.9	356.460	-0.460	0.400	-0.160
2020/01/31 16:58:06.0	356.460	-0.440	0.350	-0.190
2020/01/31 16:58:06.1	356.470	-0.420	0.290	-0.210
2020/01/31 16:58:06.2	356.470	-0.390	0.220	-0.240
2020/01/31 16:58:06.3	356.470	-0.360	0.160	-0.270
2020/01/31 16:58:06.4	356.480	-0.330	0.090	-0.290
2020/01/31 16:58:06.5	356.480	-0.290	0.030	-0.320
2020/01/31 16:58:06.6	356.490	-0.250	-0.040	-0.340
2020/01/31 16:58:06.7	356.490	-0.210	-0.110	-0.360
2020/01/31 16:58:06.8	356.500	-0.170	-0.180	-0.370
2020/01/31 16:58:06.9	356.500	-0.130	-0.250	-0.390
2020/01/31 16:58:07.0	356.500	-0.080	-0.310	-0.400
2020/01/31 16:58:07.1	356.510	-0.040	-0.370	-0.400
2020/01/31 16:58:07.2	356.510	0.010	-0.430	-0.400
2020/01/31 16:58:07.3	356.510	0.050	-0.480	-0.400
2020/01/31 16:58:07.4	356.510	0.090	-0.540	-0.390
2020/01/31 16:58:07.5	356.510	0.130	-0.580	-0.380
2020/01/31 16:58:07.6	356.510	0.170	-0.630	-0.360
2020/01/31 16:58:07.7	356.510	0.210	-0.670	-0.340
2020/01/31 16:58:07.8	356.500	0.250	-0.700	-0.320
2020/01/31 16:58:07.9	356.500	0.280	-0.730	-0.300
2020/01/31 16:58:08.0	356.500	0.310	-0.760	-0.270
2020/01/31 16:58:08.1	356.500	0.340	-0.780	-0.240
2020/01/31 16:58:08.2	356.500	0.360	-0.800	-0.220
2020/01/31 16:58:08.3	356.500	0.380	-0.810	-0.190
2020/01/31 16:58:08.4	356.500	0.400	-0.820	-0.160
2020/01/31 16:58:08.5	356.500	0.410	-0.830	-0.140
2020/01/31 16:58:08.6	356.500	0.420	-0.830	-0.120
2020/01/31 16:58:08.7	356.510	0.420	-0.830	-0.100
2020/01/31 16:58:08.8	356.510	0.420	-0.830	-0.080
2020/01/31 16:58:08.9	356.510	0.420	-0.820	-0.060
2020/01/31 16:58:09.0	356.520	0.410	-0.810	-0.050
2020/01/31 16:58:09.1	356.520	0.400	-0.790	-0.040
2020/01/31 16:58:09.2	356.520	0.380	-0.780	-0.040
2020/01/31 16:58:09.3	356.530	0.360	-0.750	-0.040
2020/01/31 16:58:09.4	356.530	0.330	-0.730	-0.040
2020/01/31 16:58:09.5	356.540	0.300	-0.700	-0.050
2020/01/31 16:58:09.6	356.540	0.270	-0.680	-0.050
2020/01/31 16:58:09.7	356.550	0.240	-0.650	-0.070
2020/01/31 16:58:09.8	356.560	0.200	-0.620	-0.080
2020/01/31 16:58:09.9	356.560	0.160	-0.580	-0.100
2020/01/31 16:58:10.0	356.560	0.110	-0.550	-0.120
2020/01/31 16:58:10.1	356.570	0.070	-0.510	-0.150
2020/01/31 16:58:10.2	356.570	0.020	-0.480	-0.170
2020/01/31 16:58:10.3	356.580	-0.030	-0.440	-0.200
2020/01/31 16:58:10.4	356.580	-0.080	-0.400	-0.230
2020/01/31 16:58:10.5	356.580	-0.120	-0.360	-0.260
2020/01/31 16:58:10.6	356.590	-0.170	-0.330	-0.300
2020/01/31 16:58:10.7	356.590	-0.220	-0.290	-0.330
2020/01/31 16:58:10.8	356.590	-0.270	-0.260	-0.360
2020/01/31 16:58:10.9	356.600	-0.310	-0.220	-0.390
2020/01/31 16:58:11.0	356.600	-0.350	-0.190	-0.430
2020/01/31 16:58:11.1	356.610	-0.390	-0.160	-0.460
2020/01/31 16:58:11.2	356.620	-0.430	-0.130	-0.490
2020/01/31 16:58:11.3	356.630	-0.460	-0.100	-0.520
2020/01/31 16:58:11.4	356.630	-0.490	-0.080	-0.550
2020/01/31 16:58:11.5	356.640	-0.510	-0.060	-0.580
2020/01/31 16:58:11.6	356.650	-0.530	-0.040	-0.610
2020/01/31 16:58:11.7	356.660	-0.550	-0.030	-0.640
2020/01/31 16:58:11.8	356.670	-0.560	-0.020	-0.660
2020/01/31 16:58:11.9	356.680	-0.560	-0.010	-0.690
2020/01/31 16:58:12.0	356.690	-0.560	-0.010	-0.710
2020/01/31 16:58:12.1	356.710	-0.550	-0.010	-0.730
2020/01/31 16:58:12.2	356.720	-0.540	-0.020	-0.750
2020/01/31 16:58:12.3	356.740	-0.530	-0.030	-0.770
2020/01/31 16:58:12.4	356.750	-0.500	-0.040	-0.790
2020/01/31 16:58:12.5	356.770	-0.480	-0.060	-0.800
2020/01/31 16:58:12.6	356.790	-0.450	-0.080	-0.810
2020/01/31 16:58:12.7	356.800	-0.410	-0.100	-0.820
2020/01/31 16:58:12.8	356.810	-0.370	-0.120	-0.820
2020/01/31 16:58:12.9	356.830	-0.320	-0.150	-0.820
2020/01/31 16:58:13.0	356.840	-0.280	-0.180	-0.820
2020/01/31 16:58:13.1	356.860	-0.230	-0.210	-0.810
2020/01/31 16:58:13.2	356.870	-0.170	-0.240	-0.790
2020/01/31 16:58:13.3	356.880	-0.120	-0.270	-0.770
2020/01/31 16:58:13.4	356.880	-0.060	-0.290	-0.740
2020/01/31 16:58:13.5	356.880	-0.010	-0.320	-0.710
2020/01/31 16:58:13.6	356.890	0.050	-0.340	-0.680
2020/01/31 16:58:13.7	356.880	0.100	-0.360	-0.640
2020/01/31 16:58:13.8	356.880	0.160	-0.380	-0.590
2020/01/31 16:58:13.9	356.870	0.210	-0.390	-0.550
2020/01/31 16:58:14.0	356.860	0.260	-0.400	-0.500
2020/01/31 16:58:14.1	356.850	0.300	-0.410	-0.450
2020/01/31 16:58:14.2	356.830	0.350	-0.410	-0.400
2020/01/31 16:58:14.3	356.820	0.390	-0.410	-0.350
2020/01/31 16:58:14.4	356.800	0.420	-0.410	-0.300
2020/01/31 16:58:14.5	356.780	0.460	-0.400	-0.250
2020/01/31 16:58:14.6	356.760	0.480	-0.380	-0.200
2020/01/31 16:58:14.7	356.740	0.510	-0.370	-0.140
2020/01/31 16:58:14.8	356.720	0.530	-0.350	-0.090
2020/01/31 16:58:14.9	356.700	0.540	-0.330	-0.040
2020/01/31 16:58:15.0	356.680	0.550	-0.310	0.010
2020/01/31 16:58:15.1	356.660	0.560	-0.290	0.050
2020/01/31 16:58:15.2	356.640	0.560	-0.270	0.100
2020/01/31 16:58:15.3	356.630	0.560	-0.250	0.140
2020/01/31 16:58:15.4	356.610	0.560	-0.230	0.170
2020/01/31 16:58:15.5	356.600	0.550	-0.210	0.210
2020/01/31 16:58:15.6	356.590	0.540	-0.190	0.240
2020/01/31 16:58:15.7	356.590	0.530	-0.170	0.270
2020/01/31 16:58:15.8	356.580	0.510	-0.160	0.290
2020/01/31 16:58:15.9	356.580	0.490	-0.140	0.310
2020/01/31 16:58:16.0	356.580	0.470	-0.130	0.320
2020/01/31 16:58:16.1	356.580	0.450	-0.130	0.330
2020/01/31 16:58:16.2	356.590	0.420	-0.120	0.330
2020/01/31 16:58:16.3	356.590	0.400	-0.120	0.330
2020/01/31 16:58:16.4	356.600	0.370	-0.120	0.320
2020/01/31 16:58:16.5	356.620	0.340	-0.120	0.310
2020/01/31 16:58:16.6	356.630	0.310	-0.130	0.290
2020/01/31 16:58:16.7	356.650	0.290	-0.140	0.270
2020/01/31 16:58:16.8	356.670	0.260	-0.150	0.240
2020/01/31 16:58:16.9	356.690	0.230	-0.160	0.200
2020/01/31 16:58:17.0	356.710	0.200	-0.170	0.170
2020/01/31 16:58:17.1	356.740	0.170	-0.190	0.120
2020/01/31 16:58:17.2	356.760	0.140	-0.200	0.080
2020/01/31 16:58:17.3	356.780	0.120	-0.220	0.030
2020/01/31 16:58:17.4	356.810	0.090	-0.230	-0.010
2020/01/31 16:58:17.5	356.830	0.060	-0.250	-0.060
2020/01/31 16:58:17.6	356.850	0.030	-0.260	-0.110
2020/01/31 16:58:17.7	356.870	0.000	-0.270	-0.160
2020/01/31 16:58:17.8	356.890	-0.030	-0.270	-0.210
2020/01/31 16:58:17.9	356.900	-0.060	-0.280	-0.250
2020/01/31 16:58:18.0	356.910	-0.090	-0.280	-0.300
2020/01/31 16:58:18.1	356.920	-0.120	-0.290	-0.340
2020/01/31 16:58:18.2	356.930	-0.150	-0.280	-0.380
2020/01/31 16:58:18.3	356.940	-0.180	-0.280	-0.410
2020/01/31 16:58:18.4	356.940	-0.210	-0.270	-0.440
2020/01/31 16:58:18.5	356.940	-0.240	-0.260	-0.470
2020/01/31 16:58:18.6	356.930	-0.270	-0.250	-0.500
2020/01/31 16:58:18.7	356.930	-0.300	-0.240	-0.520
2020/01/31 16:58:18.8	356.920	-0.330	-0.230	-0.540
2020/01/31 16:58:18.9	356.920	-0.360	-0.210	-0.560
2020/01/31 16:58:19.0	356.910	-0.390	-0.190	-0.570
2020/01/31 16:58:19.1	356.900	-0.420	-0.170	-0.590
2020/01/31 16:58:19.2	356.890	-0.450	-0.150	-0.600
2020/01/31 16:58:19.3	356.880	-0.470	-0.120	-0.610
2020/01/31 16:58:19.4	356.880	-0.500	-0.100	-0.610
2020/01/31 16:58:19.5	356.870	-0.520	-0.080	-0.620
2020/01/31 16:58:19.6	356.870	-0.540	-0.060	-0.620
2020/01/31 16:58:19.7	356.860	-0.560	-0.040	-0.630
2020/01/31 16:58:19.8	356.870	-0.580	-0.020	-0.630
2020/01/31 16:58:19.9	356.870	-0.590	-0.000	-0.630
2020/01/31 16:58:20.0	356.870	-0.600	0.010	-0.630
2020/01/31 16:58:20.1	356.870	-0.610	0.020	-0.620
2020/01/31 16:58:20.2	356.880	-0.610	0.030	-0.620
2020/01/31 16:58:20.3	356.880	-0.610	0.040	-0.620
2020/01/31 16:58:20.4	356.890	-0.600	0.040	-0.620
2020/01/31 16:58:20.5	356.900	-0.590	0.040	-0.620
2020/01/31 16:58:20.6	356.910	-0.570	0.040	-0.610
2020/01/31 16:58:20.7	356.930	-0.550	0.040	-0.610
2020/01/31 16:58:20.8	356.940	-0.520	0.030	-0.600
2020/01/31 16:58:20.9	356.950	-0.490	0.020	-0.580
2020/01/31 16:58:21.0	356.960	-0.460	0.010	-0.570
2020/01/31 16:58:21.1	356.960	-0.420	0.000	-0.550
2020/01/31 16:58:21.2	356.970	-0.380	-0.010	-0.520
2020/01/31 16:58:21.3	356.970	-0.340	-0.030	-0.500
2020/01/31 16:58:21.4	356.970	-0.290	-0.040	-0.470
2020/01/31 16:58:21.5	356.970	-0.240	-0.060	-0.440
2020/01/31 16:58:21.6	356.970	-0.190	-0.080	-0.410
2020/01/31 16:58:21.7	356.960	-0.140	-0.100	-0.370
2020/01/31 16:58:21.8	356.970	-0.080	-0.120	-0.330
2020/01/31 16:58:21.9	356.960	-0.030	-0.140	-0.290
2020/01/31 16:58:22.0	356.950	0.020	-0.160	-0.260
2020/01/31 16:58:22.1	356.930	0.080	-0.190	-0.220
2020/01/31 16:58:22.2	356.910	0.130	-0.210	-0.180
2020/01/31 16:58:22.3	356.890	0.180	-0.230	-0.140
2020/01/31 16:58:22.4	356.870	0.220	-0.260	-0.100
2020/01/31 16:58:22.5	356.840	0.270	-0.280	-0.060
2020/01/31 16:58:22.6	356.820	0.310	-0.300	-0.020
2020/01/31 16:58:22.7	356.790	0.350	-0.330	0.020
2020/01/31 16:58:22.8	356.750	0.380	-0.350	0.060
2020/01/31 16:58:22.9	356.720	0.420	-0.380	0.100
2020/01/31 16:58:23.0	356.690	0.450	-0.400	0.130
2020/01/31 16:58:23.1	356.650	0.470	-0.420	0.170
2020/01/31 16:58:23.2	356.620	0.490	-0.440	0.200
2020/01/31 16:58:23.3	356.590	0.510	-0.460	0.230
2020/01/31 16:58:23.4	356.560	0.530	-0.490	0.250
2020/01/31 16:58:23.5	356.530	0.540	-0.500	0.280
2020/01/31 16:58:23.6	356.500	0.550	-0.520	0.300
2020/01/31 16:58:23.7	356.470	0.550	-0.540	0.320
2020/01/31 16:58:23.8	356.440	0.550	-0.550	0.330
2020/01/31 16:58:23.9	356.420	0.550	-0.560	0.350
2020/01/31 16:58:24.0	356.390	0.540	-0.580	0.360
2020/01/31 16:58:24.1	356.370	0.540	-0.580	0.370
2020/01/31 16:58:24.2	356.340	0.530	-0.590	0.380
2020/01/31 16:58:24.3	356.320	0.510	-0.600	0.380
2020/01/31 16:58:24.4	356.310	0.500	-0.600	0.380
2020/01/31 16:58:24.5	356.290	0.480	-0.600	0.380
2020/01/31 16:58:24.6	356.280	0.460	-0.600	0.370
2020/01/31 16:58:24.7	356.270	0.450	-0.600	0.360
2020/01/31 16:58:24.8	356.270	0.430	-0.590	0.350
2020/01/31 16:58:24.9	356.270	0.410	-0.590	0.330
2020/01/31 16:58:25.0	356.270	0.380	-0.580	0.310
2020/01/31 16:58:25.1	356.270	0.360	-0.570	0.280
2020/01/31 16:58:25.2	356.280	0.340	-0.570	0.250
2020/01/31 16:58:25.3	356.280	0.320	-0.560	0.220
2020/01/31 16:58:25.4	356.290	0.290	-0.540	0.190
2020/01/31 16:58:25.5	356.310	0.270	-0.530	0.150
2020/01/31 16:58:25.6	356.320	0.250	-0.520	0.100
2020/01/31 16:58:25.7	356.340	0.220	-0.500	0.060
2020/01/31 16:58:25.8	356.360	0.200	-0.490	0.010
2020/01/31 16:58:25.9	356.380	0.170	-0.470	-0.040
2020/01/31 16:58:26.0	356.410	0.140	-0.460	-0.090
2020/01/31 16:58:26.1	356.430	0.120	-0.440	-0.150
2020/01/31 16:58:26.2	356.460	0.090	-0.430	-0.210
2020/01/31 16:58:26.3	356.490	0.060	-0.410	-0.270
2020/01/31 16:58:26.4	356.520	0.030	-0.400	-0.330
2020/01/31 16:58:26.5	356.560	-0.000	-0.380	-0.400
2020/01/31 16:58:26.6	356.590	-0.030	-0.370	-0.470
2020/01/31 16:58:26.7	356.630	-0.060	-0.360	-0.540
2020/01/31 16:58:26.8	356.670	-0.090	-0.350	-0.610
2020/01/31 16:58:26.9	356.710	-0.120	-0.340	-0.690
2020/01/31 16:58:27.0	356.750	-0.150	-0.330	-0.760
2020/01/31 16:58:27.1	356.790	-0.180	-0.330	-0.840
2020/01/31 16:58:27.2	356.840	-0.210	-0.320	-0.910
2020/01/31 16:58:27.3	356.890	-0.240	-0.320	-0.990
2020/01/31 16:58:27.4	356.930	-0.270	-0.310	-1.060
2020/01/31 16:58:27.5	356.980	-0.300	-0.310	-1.130
2020/01/31 16:58:27.6	357.020	-0.330	-0.300	-1.190
2020/01/31 16:58:27.7	357.060	-0.350	-0.300	-1.250
2020/01/31 16:58:27.8	357.110	-0.380	-0.290	-1.310
2020/01/31 16:58:27.9	357.140	-0.400	-0.280	-1.360
2020/01/31 16:58:28.0	357.170	-0.430	-0.270	-1.400
2020/01/31 16:58:28.1	357.200	-0.450	-0.260	-1.440
2020/01/31 16:58:28.2	357.230	-0.470	-0.240	-1.470
2020/01/31 16:58:28.3	357.250	-0.490	-0.230	-1.490
2020/01/31 16:58:28.4	357.270	-0.500	-0.210	-1.500
2020/01/31 16:58:28.5	357.280	-0.520	-0.190	-1.510
2020/01/31 16:58:28.6	357.290	-0.530	-0.160	-1.510
2020/01/31 16:58:28.7	357.300	-0.540	-0.140	-1.510
2020/01/31 16:58:28.8	357.310	-0.550	-0.110	-1.490
2020/01/31 16:58:28.9	357.310	-0.550	-0.090	-1.470
2020/01/31 16:58:29.0	357.300	-0.560	-0.060	-1.450
2020/01/31 16:58:29.1	357.300	-0.560	-0.030	-1.420
2020/01/31 16:58:29.2	357.290	-0.550	-0.000	-1.390
2020/01/31 16:58:29.3	357.280	-0.550	0.030	-1.350
2020/01/31 16:58:29.4	357.270	-0.540	0.050	-1.310
2020/01/31 16:58:29.5	357.250	-0.530	0.080	-1.270
2020/01/31 16:58:29.6	357.230	-0.520	0.110	-1.220
2020/01/31 16:58:29.7	357.210	-0.500	0.130	-1.180
2020/01/31 16:58:29.8	357.200	-0.480	0.150	-1.120
2020/01/31 16:58:29.9	357.180	-0.460	0.170	-1.070
2020/01/31 16:58:30.0	357.160	-0.430	0.180	-1.020
2020/01/31 16:58:30.1	357.140	-0.400	0.190	-0.960
2020/01/31 16:58:30.2	357.120	-0.370	0.200	-0.900
2020/01/31 16:58:30.3	357.090	-0.340	0.200	-0.840
2020/01/31 16:58:30.4	357.070	-0.300	0.200	-0.780
2020/01/31 16:58:30.5	357.050	-0.260	0.190	-0.720
2020/01/31 16:58:30.6	357.030	-0.220	0.180	-0.660
2020/01/31 16:58:30.7	357.010	-0.180	0.170	-0.590
2020/01/31 16:58:30.8	356.980	-0.130	0.150	-0.520
2020/01/31 16:58:30.9	356.960	-0.080	0.130	-0.460
2020/01/31 16:58:31.0	356.940	-0.030	0.110	-0.390
2020/01/31 16:58:31.1	356.920	0.020	0.080	-0.320
2020/01/31 16:58:31.2	356.890	0.060	0.060	-0.260
2020/01/31 16:58:31.3	356.870	0.110	0.030	-0.190
2020/01/31 16:58:31.4	356.850	0.160	0.010	-0.120
2020/01/31 16:58:31.5	356.820	0.210	-0.020	-0.060
2020/01/31 16:58:31.6	356.800	0.250	-0.040	0.000
2020/01/31 16:58:31.7	356.770	0.290	-0.060	0.060
2020/01/31 16:58:31.8	356.740	0.330	-0.080	0.120
2020/01/31 16:58:31.9	356.710	0.370	-0.100	0.180
2020/01/31 16:58:32.0	356.680	0.410	-0.120	0.240
2020/01/31 16:58:32.1	356.650	0.440	-0.130	0.290
2020/01/31 16:58:32.2	356.610	0.460	-0.140	0.340
2020/01/31 16:58:32.3	356.580	0.490	-0.150	0.380
2020/01/31 16:58:32.4	356.540	0.510	-0.160	0.430
2020/01/31 16:58:32.5	356.510	0.530	-0.160	0.470
2020/01/31 16:58:32.6	356.470	0.540	-0.160	0.500
2020/01/31 16:58:32.7	356.440	0.550	-0.170	0.540
2020/01/31 16:58:32.8	356.400	0.550	-0.160	0.570
2020/01/31 16:58:32.9	356.360	0.550	-0.160	0.600
2020/01/31 16:58:33.0	356.330	0.550	-0.160	0.620
2020/01/31 16:58:33.1	356.300	0.540	-0.160	0.640
2020/01/31 16:58:33.2	356.270	0.530	-0.150	0.660
2020/01/31 16:58:33.3	356.250	0.520	-0.160	0.670
2020/01/31 16:58:33.4	356.230	0.500	-0.160	0.670
2020/01/31 16:58:33.5	356.210	0.490	-0.160	0.670
2020/01/31 16:58:33.6	356.190	0.470	-0.170	0.670
2020/01/31 16:58:33.7	356.180	0.440	-0.180	0.660
2020/01/31 16:58:33.8	356.170	0.420	-0.200	0.640
2020/01/31 16:58:33.9	356.160	0.400	-0.210	0.620
2020/01/31 16:58:34.0	356.160	0.370	-0.240	0.590
2020/01/31 16:58:34.1	356.160	0.350	-0.260	0.550
2020/01/31 16:58:34.2	356.170	0.320	-0.290	0.510
2020/01/31 16:58:34.3	356.180	0.290	-0.330	0.470
2020/01/31 16:58:34.4	356.190	0.270	-0.360	0.410
2020/01/31 16:58:34.5	356.210	0.240	-0.400	0.360
2020/01/31 16:58:34.6	356.230	0.220	-0.440	0.300
2020/01/31 16:58:34.7	356.260	0.190	-0.490	0.230
2020/01/31 16:58:34.8	356.260	0.170	-0.530	0.170
2020/01/31 16:58:34.9	356.300	0.150	-0.580	0.100
2020/01/31 16:58:35.0	356.330	0.120	-0.630	0.020
2020/01/31 16:58:35.1	356.360	0.100	-0.670	-0.050
2020/01/31 16:58:35.2	356.400	0.080	-0.710	-0.130
2020/01/31 16:58:35.3	356.440	0.060	-0.750	-0.210
2020/01/31 16:58:35.4	356.480	0.050	-0.790	-0.290
2020/01/31 16:58:35.5	356.520	0.030	-0.820	-0.370
2020/01/31 16:58:35.6	356.550	0.010	-0.850	-0.450
2020/01/31 16:58:35.7	356.590	-0.000	-0.880	-0.520
2020/01/31 16:58:35.8	356.620	-0.020	-0.900	-0.600
2020/01/31 16:58:35.9	356.660	-0.030	-0.910	-0.670
2020/01/31 16:58:36.0	356.700	-0.050	-0.920	-0.740
2020/01/31 16:58:36.1	356.730	-0.060	-0.920	-0.810
2020/01/31 16:58:36.2	356.770	-0.070	-0.910	-0.870
2020/01/31 16:58:36.3	356.800	-0.080	-0.900	-0.930
2020/01/31 16:58:36.4	356.830	-0.100	-0.890	-0.980
2020/01/31 16:58:36.5	356.860	-0.110	-0.860	-1.030
2020/01/31 16:58:36.6	356.890	-0.120	-0.840	-1.070
2020/01/31 16:58:36.7	356.920	-0.130	-0.800	-1.110
2020/01/31 16:58:36.8	356.950	-0.140	-0.770	-1.140
2020/01/31 16:58:36.9	356.980	-0.150	-0.720	-1.160
2020/01/31 16:58:37.0	357.000	-0.160	-0.680	-1.180
2020/01/31 16:58:37.1	357.030	-0.170	-0.630	-1.200
2020/01/31 16:58:37.2	357.050	-0.180	-0.580	-1.210
2020/01/31 16:58:37.3	357.070	-0.190	-0.520	-1.220
2020/01/31 16:58:37.4	357.100	-0.200	-0.470	-1.220
2020/01/31 16:58:37.5	357.120	-0.210	-0.410	-1.210
2020/01/31 16:58:37.6	357.140	-0.220	-0.360	-1.210
2020/01/31 16:58:37.7	357.160	-0.230	-0.300	-1.200
2020/01/31 16:58:37.8	357.180	-0.240	-0.240	-1.190
2020/01/31 16:58:37.9	357.200	-0.250	-0.190	-1.180
2020/01/31 16:58:38.0	357.210	-0.260	-0.140	-1.160
2020/01/31 16:58:38.1	357.230	-0.270	-0.080	-1.150
2020/01/31 16:58:38.2	357.250	-0.280	-0.040	-1.130
2020/01/31 16:58:38.3	357.270	-0.290	0.010	-1.120
2020/01/31 16:58:38.4	357.290	-0.290	0.050	-1.100
2020/01/31 16:58:38.5	357.310	-0.300	0.090	-1.080
2020/01/31 16:58:38.6	357.330	-0.300	0.120	-1.070
2020/01/31 16:58:38.7	357.350	-0.300	0.150	-1.050
2020/01/31 16:58:38.8	357.390	-0.300	0.170	-1.030
2020/01/31 16:58:38.9	357.410	-0.300	0.190	-1.010
2020/01/31 16:58:39.0	357.430	-0.300	0.200	-1.000
2020/01/31 16:58:39.1	357.440	-0.290	0.210	-0.980
2020/01/31 16:58:39.2	357.460	-0.290	0.220	-0.960
2020/01/31 16:58:39.3	357.470	-0.280	0.220	-0.940
2020/01/31 16:58:39.4	357.480	-0.270	0.220	-0.920
2020/01/31 16:58:39.5	357.490	-0.260	0.220	-0.890
2020/01/31 16:58:39.6	357.500	-0.240	0.220	-0.870
2020/01/31 16:58:39.7	357.500	-0.230	0.210	-0.840
2020/01/31 16:58:39.8	357.510	-0.210	0.200	-0.810
2020/01/31 16:58:39.9	357.510	-0.200	0.190	-0.780
2020/01/31 16:58:40.0	357.510	-0.180	0.170	-0.750
2020/01/31 16:58:40.1	357.500	-0.160	0.150	-0.710
2020/01/31 16:58:40.2	357.500	-0.140	0.130	-0.680
2020/01/31 16:58:40.3	357.490	-0.120	0.110	-0.650
2020/01/31 16:58:40.4	357.480	-0.100	0.090	-0.620
2020/01/31 16:58:40.5	357.470	-0.080	0.070	-0.580
2020/01/31 16:58:40.6	357.450	-0.060	0.040	-0.550
2020/01/31 16:58:40.7	357.440	-0.040	0.010	-0.520
2020/01/31 16:58:40.8	357.430	-0.020	-0.010	-0.480
2020/01/31 16:58:40.9	357.410	-0.000	-0.040	-0.450
2020/01/31 16:58:41.0	357.390	0.020	-0.070	-0.420
2020/01/31 16:58:41.1	357.370	0.030	-0.100	-0.390
2020/01/31 16:58:41.2	357.350	0.050	-0.130	-0.360
2020/01/31 16:58:41.3	357.330	0.060	-0.160	-0.330
2020/01/31 16:58:41.4	357.310	0.070	-0.190	-0.310
2020/01/31 16:58:41.5	357.280	0.080	-0.220	-0.280
2020/01/31 16:58:41.6	357.260	0.090	-0.250	-0.260
2020/01/31 16:58:41.7	357.230	0.090	-0.270	-0.240
2020/01/31 16:58:41.8	357.210	0.100	-0.290	-0.220
2020/01/31 16:58:41.9	357.190	0.100	-0.310	-0.200
2020/01/31 16:58:42.0	357.160	0.100	-0.330	-0.190
2020/01/31 16:58:42.1	357.130	0.100	-0.350	-0.170
2020/01/31 16:58:42.2	357.100	0.100	-0.370	-0.160
2020/01/31 16:58:42.3	357.070	0.100	-0.380	-0.150
2020/01/31 16:58:42.4	357.040	0.090	-0.390	-0.140
2020/01/31 16:58:42.5	357.010	0.090	-0.400	-0.140
2020/01/31 16:58:42.6	356.980	0.080	-0.400	-0.140
2020/01/31 16:58:42.7	356.950	0.070	-0.400	-0.140
2020/01/31 16:58:42.8	356.930	0.070	-0.400	-0.130
2020/01/31 16:58:42.9	356.900	0.060	-0.400	-0.140
2020/01/31 16:58:43.0	356.880	0.050	-0.390	-0.140
2020/01/31 16:58:43.1	356.850	0.040	-0.390	-0.150
2020/01/31 16:58:43.2	356.830	0.040	-0.380	-0.160
2020/01/31 16:58:43.3	356.810	0.030	-0.370	-0.160
2020/01/31 16:58:43.4	356.790	0.030	-0.350	-0.170
2020/01/31 16:58:43.5	356.770	0.030	-0.340	-0.180
2020/01/31 16:58:43.6	356.750	0.020	-0.320	-0.190
2020/01/31 16:58:43.7	356.730	0.020	-0.310	-0.200
2020/01/31 16:58:43.8	356.710	0.030	-0.290	-0.220
2020/01/31 16:58:43.9	356.700	0.030	-0.270	-0.220
2020/01/31 16:58:44.0	356.690	0.040	-0.250	-0.230
2020/01/31 16:58:44.1	356.680	0.050	-0.240	-0.230
2020/01/31 16:58:44.2	356.670	0.060	-0.220	-0.240
2020/01/31 16:58:44.3	356.660	0.070	-0.200	-0.240
2020/01/31 16:58:44.4	356.660	0.090	-0.180	-0.240
2020/01/31 16:58:44.5	356.660	0.110	-0.170	-0.240
2020/01/31 16:58:44.6	356.650	0.130	-0.150	-0.240
2020/01/31 16:58:44.7	356.660	0.150	-0.140	-0.240
2020/01/31 16:58:44.8	356.650	0.170	-0.120	-0.240
2020/01/31 16:58:44.9	356.650	0.190	-0.110	-0.240
2020/01/31 16:58:45.0	356.660	0.220	-0.110	-0.240
2020/01/31 16:58:45.1	356.670	0.240	-0.100	-0.230
2020/01/31 16:58:45.2	356.670	0.260	-0.100	-0.230
2020/01/31 16:58:45.3	356.680	0.290	-0.090	-0.230
2020/01/31 16:58:45.4	356.690	0.310	-0.090	-0.230
2020/01/31 16:58:45.5	356.710	0.330	-0.100	-0.230
2020/01/31 16:58:45.6	356.720	0.350	-0.100	-0.230
2020/01/31 16:58:45.7	356.740	0.360	-0.110	-0.230
2020/01/31 16:58:45.8	356.750	0.380	-0.130	-0.240
2020/01/31 16:58:45.9	356.770	0.390	-0.140	-0.240
2020/01/31 16:58:46.0	356.790	0.400	-0.160	-0.250
2020/01/31 16:58:46.1	356.820	0.410	-0.180	-0.270
2020/01/31 16:58:46.2	356.850	0.410	-0.200	-0.280
2020/01/31 16:58:46.3	356.880	0.410	-0.230	-0.300
2020/01/31 16:58:46.4	356.910	0.400	-0.260	-0.320
2020/01/31 16:58:46.5	356.950	0.400	-0.290	-0.350
2020/01/31 16:58:46.6	356.980	0.380	-0.330	-0.380
2020/01/31 16:58:46.7	357.020	0.370	-0.360	-0.410
2020/01/31 16:58:46.8	357.060	0.350	-0.400	-0.440
2020/01/31 16:58:46.9	357.100	0.330	-0.430	-0.470
2020/01/31 16:58:47.0	357.140	0.310	-0.470	-0.510
2020/01/31 16:58:47.1	357.180	0.280	-0.510	-0.540
2020/01/31 16:58:47.2	357.210	0.250	-0.550	-0.580
2020/01/31 16:58:47.3	357.250	0.210	-0.590	-0.610
2020/01/31 16:58:47.4	357.280	0.180	-0.620	-0.650
2020/01/31 16:58:47.5	357.320	0.140	-0.650	-0.680
2020/01/31 16:58:47.6	357.350	0.100	-0.680	-0.710
2020/01/31 16:58:47.7	357.370	0.060	-0.710	-0.750
2020/01/31 16:58:47.8	357.400	0.020	-0.730	-0.780
2020/01/31 16:58:47.9	357.430	-0.030	-0.750	-0.810
2020/01/31 16:58:48.0	357.450	-0.070	-0.760	-0.840
2020/01/31 16:58:48.1	357.470	-0.110	-0.770	-0.870
2020/01/31 16:58:48.2	357.490	-0.150	-0.780	-0.890
2020/01/31 16:58:48.3	357.500	-0.190	-0.780	-0.910
2020/01/31 16:58:48.4	357.520	-0.230	-0.770	-0.930
2020/01/31 16:58:48.5	357.530	-0.270	-0.760	-0.940
2020/01/31 16:58:48.6	357.540	-0.300	-0.740	-0.960
2020/01/31 16:58:48.7	357.560	-0.340	-0.720	-0.970
2020/01/31 16:58:48.8	357.570	-0.360	-0.690	-0.970
2020/01/31 16:58:48.9	357.580	-0.390	-0.660	-0.980
2020/01/31 16:58:49.0	357.590	-0.410	-0.630	-0.980
2020/01/31 16:58:49.1	357.600	-0.430	-0.590	-0.970
2020/01/31 16:58:49.2	357.610	-0.440	-0.560	-0.970
2020/01/31 16:58:49.3	357.620	-0.450	-0.520	-0.960
2020/01/31 16:58:49.4	357.630	-0.460	-0.470	-0.950
2020/01/31 16:58:49.5	357.640	-0.460	-0.430	-0.940
2020/01/31 16:58:49.6	357.650	-0.450	-0.390	-0.930
2020/01/31 16:58:49.7	357.660	-0.440	-0.340	-0.910
2020/01/31 16:58:49.8	357.670	-0.430	-0.300	-0.890
2020/01/31 16:58:49.9	357.680	-0.420	-0.260	-0.860
2020/01/31 16:58:50.0	357.690	-0.400	-0.210	-0.840
2020/01/31 16:58:50.1	357.690	-0.370	-0.170	-0.810
2020/01/31 16:58:50.2	357.690	-0.350	-0.130	-0.770
2020/01/31 16:58:50.3	357.700	-0.320	-0.090	-0.740
2020/01/31 16:58:50.4	357.700	-0.290	-0.050	-0.700
2020/01/31 16:58:50.5	357.690	-0.250	-0.020	-0.670
2020/01/31 16:58:50.6	357.690	-0.220	0.020	-0.630
2020/01/31 16:58:50.7	357.690	-0.180	0.050	-0.590
2020/01/31 16:58:50.8	357.690	-0.150	0.090	-0.550
2020/01/31 16:58:50.9	357.680	-0.110	0.120	-0.510
2020/01/31 16:58:51.0	357.670	-0.080	0.150	-0.470
2020/01/31 16:58:51.1	357.650	-0.040	0.170	-0.430
2020/01/31 16:58:51.2	357.640	-0.010	0.200	-0.390
2020/01/31 16:58:51.3	357.620	0.020	0.220	-0.350
2020/01/31 16:58:51.4	357.600	0.050	0.240	-0.310
2020/01/31 16:58:51.5	357.580	0.080	0.250	-0.280
2020/01/31 16:58:51.6	357.560	0.100	0.270	-0.240
2020/01/31 16:58:51.7	357.530	0.120	0.280	-0.200
2020/01/31 16:58:51.8	357.510	0.140	0.290	-0.170
2020/01/31 16:58:51.9	357.490	0.160	0.290	-0.130
2020/01/31 16:58:52.0	357.470	0.180	0.300	-0.100
2020/01/31 16:58:52.1	357.440	0.190	0.300	-0.070
2020/01/31 16:58:52.2	357.420	0.190	0.290	-0.050
2020/01/31 16:58:52.3	357.400	0.200	0.290	-0.020
2020/01/31 16:58:52.4	357.370	0.200	0.280	-0.000
2020/01/31 16:58:52.5	357.350	0.200	0.270	0.020
2020/01/31 16:58:52.6	357.330	0.200	0.260	0.030
2020/01/31 16:58:52.7	357.310	0.190	0.250	0.040
2020/01/31 16:58:52.8	357.290	0.180	0.230	0.050
2020/01/31 16:58:52.9	357.280	0.170	0.210	0.060
2020/01/31 16:58:53.0	357.260	0.160	0.180	0.060
2020/01/31 16:58:53.1	357.250	0.140	0.160	0.060
2020/01/31 16:58:53.2	357.240	0.130	0.130	0.060
2020/01/31 16:58:53.3	357.230	0.110	0.100	0.050
2020/01/31 16:58:53.4	357.220	0.100	0.070	0.040
2020/01/31 16:58:53.5	357.210	0.080	0.040	0.020
2020/01/31 16:58:53.6	357.210	0.060	0.010	0.000
2020/01/31 16:58:53.7	357.200	0.040	-0.030	-0.020
2020/01/31 16:58:53.8	357.200	0.020	-0.060	-0.040
2020/01/31 16:58:53.9	357.190	0.000	-0.100	-0.060
2020/01/31 16:58:54.0	357.180	-0.020	-0.130	-0.080
2020/01/31 16:58:54.1	357.180	-0.040	-0.160	-0.110
2020/01/31 16:58:54.2	357.170	-0.050	-0.190	-0.130
2020/01/31 16:58:54.3	357.170	-0.070	-0.220	-0.160
2020/01/31 16:58:54.4	357.160	-0.080	-0.250	-0.180
2020/01/31 16:58:54.5	357.150	-0.100	-0.280	-0.210
2020/01/31 16:58:54.6	357.150	-0.110	-0.300	-0.230
2020/01/31 16:58:54.7	357.140	-0.120	-0.330	-0.260
2020/01/31 16:58:54.8	357.140	-0.130	-0.350	-0.280
2020/01/31 16:58:54.9	357.130	-0.130	-0.370	-0.300
2020/01/31 16:58:55.0	357.130	-0.130	-0.390	-0.320
2020/01/31 16:58:55.1	357.120	-0.130	-0.410	-0.340
2020/01/31 16:58:55.2	357.120	-0.130	-0.430	-0.360
2020/01/31 16:58:55.3	357.120	-0.130	-0.450	-0.380
2020/01/31 16:58:55.4	357.120	-0.120	-0.470	-0.400
2020/01/31 16:58:55.5	357.120	-0.110	-0.490	-0.410
2020/01/31 16:58:55.6	357.130	-0.100	-0.510	-0.430
2020/01/31 16:58:55.7	357.140	-0.090	-0.530	-0.460
2020/01/31 16:58:55.8	357.150	-0.070	-0.550	-0.480
2020/01/31 16:58:55.9	357.170	-0.050	-0.570	-0.500
2020/01/31 16:58:56.0	357.180	-0.030	-0.600	-0.530
2020/01/31 16:58:56.1	357.200	-0.010	-0.620	-0.550
2020/01/31 16:58:56.2	357.230	0.010	-0.640	-0.580
2020/01/31 16:58:56.3	357.250	0.030	-0.660	-0.610
2020/01/31 16:58:56.4	357.280	0.050	-0.690	-0.640
2020/01/31 16:58:56.5	357.300	0.080	-0.710	-0.680
2020/01/31 16:58:56.6	357.330	0.100	-0.730	-0.710
2020/01/31 16:58:56.7	357.370	0.120	-0.750	-0.740
2020/01/31 16:58:56.8	357.400	0.140	-0.770	-0.780
2020/01/31 16:58:56.9	357.430	0.170	-0.790	-0.810
2020/01/31 16:58:57.0	357.470	0.180	-0.800	-0.850
2020/01/31 16:58:57.1	357.500	0.200	-0.810	-0.880
2020/01/31 16:58:57.2	357.530	0.220	-0.820	-0.910
2020/01/31 16:58:57.3	357.560	0.240	-0.820	-0.940
2020/01/31 16:58:57.4	357.590	0.250	-0.820	-0.960
2020/01/31 16:58:57.5	357.620	0.260	-0.820	-0.980
2020/01/31 16:58:57.6	357.650	0.270	-0.810	-1.000
2020/01/31 16:58:57.7	357.670	0.270	-0.800	-1.010
2020/01/31 16:58:57.8	357.690	0.280	-0.780	-1.020
2020/01/31 16:58:57.9	357.710	0.280	-0.760	-1.030
2020/01/31 16:58:58.0	357.730	0.270	-0.730	-1.030
2020/01/31 16:58:58.1	357.750	0.270	-0.700	-1.020
2020/01/31 16:58:58.2	357.760	0.260	-0.660	-1.020
2020/01/31 16:58:58.3	357.780	0.250	-0.620	-1.000
2020/01/31 16:58:58.4	357.790	0.230	-0.580	-0.990
2020/01/31 16:58:58.5	357.800	0.220	-0.530	-0.970
2020/01/31 16:58:58.6	357.810	0.200	-0.480	-0.960
2020/01/31 16:58:58.7	357.820	0.170	-0.430	-0.940
2020/01/31 16:58:58.8	357.810	0.150	-0.380	-0.910
2020/01/31 16:58:58.9	357.820	0.120	-0.330	-0.890
2020/01/31 16:58:59.0	357.830	0.100	-0.270	-0.870
2020/01/31 16:58:59.1	357.830	0.070	-0.220	-0.850
2020/01/31 16:58:59.2	357.840	0.040	-0.170	-0.830
2020/01/31 16:58:59.3	357.840	0.000	-0.120	-0.810
2020/01/31 16:58:59.4	357.850	-0.030	-0.070	-0.790
2020/01/31 16:58:59.5	357.850	-0.060	-0.020	-0.770
2020/01/31 16:58:59.6	357.860	-0.090	0.020	-0.760
2020/01/31 16:58:59.7	357.860	-0.130	0.060	-0.740
2020/01/31 16:58:59.8	357.870	-0.160	0.100	-0.720
2020/01/31 16:58:59.9	357.870	-0.190	0.140	-0.700
2020/01/31 16:59:00.0	357.870	-0.220	0.170	-0.690
2020/01/31 16:59:00.1	357.880	-0.250	0.200	-0.670
2020/01/31 16:59:00.2	357.880	-0.280	0.220	-0.650
2020/01/31 16:59:00.3	357.880	-0.300	0.240	-0.630
2020/01/31 16:59:00.4	357.880	-0.320	0.260	-0.610
2020/01/31 16:59:00.5	357.880	-0.340	0.270	-0.590
2020/01/31 16:59:00.6	357.880	-0.360	0.280	-0.570
2020/01/31 16:59:00.7	357.880	-0.370	0.290	-0.550
2020/01/31 16:59:00.8	357.880	-0.390	0.290	-0.530
2020/01/31 16:59:00.9	357.880	-0.390	0.290	-0.500
2020/01/31 16:59:01.0	357.870	-0.400	0.290	-0.480
2020/01/31 16:59:01.1	357.870	-0.400	0.280	-0.450
2020/01/31 16:59:01.2	357.870	-0.390	0.270	-0.420
2020/01/31 16:59:01.3	357.860	-0.390	0.250	-0.390
2020/01/31 16:59:01.4	357.850	-0.380	0.240	-0.360
2020/01/31 16:59:01.5	357.850	-0.360	0.220	-0.330
2020/01/31 16:59:01.6	357.840	-0.350	0.190	-0.300
2020/01/31 16:59:01.7	357.830	-0.320	0.170	-0.270
2020/01/31 16:59:01.8	357.820	-0.300	0.140	-0.240
2020/01/31 16:59:01.9	357.810	-0.270	0.110	-0.210
2020/01/31 16:59:02.0	357.800	-0.240	0.070	-0.180
2020/01/31 16:59:02.1	357.790	-0.210	0.040	-0.150
2020/01/31 16:59:02.2	357.780	-0.180	0.000	-0.120
2020/01/31 16:59:02.3	357.770	-0.140	-0.040	-0.090
2020/01/31 16:59:02.4	357.760	-0.100	-0.080	-0.060
2020/01/31 16:59:02.5	357.750	-0.060	-0.120	-0.040
2020/01/31 16:59:02.6	357.730	-0.020	-0.160	-0.010
2020/01/31 16:59:02.7	357.720	0.030	-0.200	0.020
2020/01/31 16:59:02.8	357.710	0.070	-0.240	0.040
2020/01/31 16:59:02.9	357.700	0.110	-0.280	0.060
2020/01/31 16:59:03.0	357.680	0.160	-0.320	0.090
2020/01/31 16:59:03.1	357.660	0.200	-0.360	0.110
2020/01/31 16:59:03.2	357.640	0.250	-0.400	0.120
2020/01/31 16:59:03.3	357.620	0.290	-0.440	0.140
2020/01/31 16:59:03.4	357.610	0.330	-0.480	0.150
2020/01/31 16:59:03.5	357.590	0.370	-0.510	0.170
2020/01/31 16:59:03.6	357.580	0.410	-0.540	0.180
2020/01/31 16:59:03.7	357.560	0.450	-0.570	0.180
2020/01/31 16:59:03.8	357.550	0.480	-0.600	0.190
2020/01/31 16:59:03.9	357.540	0.510	-0.630	0.190
2020/01/31 16:59:04.0	357.530	0.540	-0.650	0.190
2020/01/31 16:59:04.1	357.530	0.570	-0.670	0.180
2020/01/31 16:59:04.2	357.520	0.590	-0.690	0.180
2020/01/31 16:59:04.3	357.520	0.610	-0.710	0.170
2020/01/31 16:59:04.4	357.530	0.630	-0.730	0.150
2020/01/31 16:59:04.5	357.530	0.640	-0.740	0.130
2020/01/31 16:59:04.6	357.540	0.650	-0.750	0.110
2020/01/31 16:59:04.7	357.550	0.650	-0.750	0.090
2020/01/31 16:59:04.8	357.550	0.650	-0.760	0.070
2020/01/31 16:59:04.9	357.570	0.650	-0.760	0.040
2020/01/31 16:59:05.0	357.580	0.640	-0.760	0.010
2020/01/31 16:59:05.1	357.600	0.630	-0.750	-0.020
2020/01/31 16:59:05.2	357.620	0.620	-0.740	-0.060
2020/01/31 16:59:05.3	357.630	0.600	-0.730	-0.090
2020/01/31 16:59:05.4	357.650	0.580	-0.710	-0.120
2020/01/31 16:59:05.5	357.670	0.550	-0.690	-0.160
2020/01/31 16:59:05.6	357.680	0.520	-0.670	-0.200
2020/01/31 16:59:05.7	357.700	0.480	-0.640	-0.230
2020/01/31 16:59:05.8	357.700	0.440	-0.610	-0.270
2020/01/31 16:59:05.9	357.720	0.400	-0.570	-0.300
2020/01/31 16:59:06.0	357.720	0.350	-0.540	-0.340
2020/01/31 16:59:06.1	357.730	0.300	-0.500	-0.370
2020/01/31 16:59:06.2	357.730	0.250	-0.450	-0.410
2020/01/31 16:59:06.3	357.740	0.190	-0.410	-0.450
2020/01/31 16:59:06.4	357.740	0.130	-0.360	-0.480
2020/01/31 16:59:06.5	357.740	0.070	-0.300	-0.520
2020/01/31 16:59:06.6	357.740	0.010	-0.250	-0.550
2020/01/31 16:59:06.7	357.740	-0.060	-0.200	-0.590
2020/01/31 16:59:06.8	357.740	-0.120	-0.140	-0.630
2020/01/31 16:59:06.9	357.740	-0.190	-0.090	-0.660
2020/01/31 16:59:07.0	357.740	-0.250	-0.030	-0.700
2020/01/31 16:59:07.1	357.740	-0.310	0.030	-0.730
2020/01/31 16:59:07.2	357.740	-0.380	0.080	-0.760
2020/01/31 16:59:07.3	357.740	-0.440	0.140	-0.790
2020/01/31 16:59:07.4	357.740	-0.500	0.190	-0.810
2020/01/31 16:59:07.5	357.740	-0.550	0.240	-0.840
2020/01/31 16:59:07.6	357.750	-0.610	0.290	-0.860
2020/01/31 16:59:07.7	357.750	-0.660	0.340	-0.890
2020/01/31 16:59:07.8	357.760	-0.700	0.380	-0.910
2020/01/31 16:59:07.9	357.770	-0.740	0.420	-0.930
2020/01/31 16:59:08.0	357.780	-0.780	0.450	-0.940
2020/01/31 16:59:08.1	357.790	-0.810	0.480	-0.960
2020/01/31 16:59:08.2	357.800	-0.840	0.500	-0.970
2020/01/31 16:59:08.3	357.810	-0.860	0.520	-0.980
2020/01/31 16:59:08.4	357.830	-0.880	0.530	-0.980
2020/01/31 16:59:08.5	357.840	-0.890	0.540	-0.980
2020/01/31 16:59:08.6	357.850	-0.890	0.540	-0.980
2020/01/31 16:59:08.7	357.860	-0.890	0.540	-0.970
2020/01/31 16:59:08.8	357.860	-0.890	0.540	-0.960
2020/01/31 16:59:08.9	357.860	-0.870	0.520	-0.950
2020/01/31 16:59:09.0	357.870	-0.860	0.500	-0.930
2020/01/31 16:59:09.1	357.870	-0.830	0.480	-0.910
2020/01/31 16:59:09.2	357.870	-0.800	0.450	-0.880
2020/01/31 16:59:09.3	357.870	-0.770	0.420	-0.850
2020/01/31 16:59:09.4	357.870	-0.730	0.380	-0.810
2020/01/31 16:59:09.5	357.860	-0.690	0.340	-0.770
2020/01/31 16:59:09.6	357.850	-0.640	0.300	-0.730
2020/01/31 16:59:09.7	357.840	-0.590	0.250	-0.690
2020/01/31 16:59:09.8	357.830	-0.530	0.200	-0.650
2020/01/31 16:59:09.9	357.810	-0.480	0.140	-0.600
2020/01/31 16:59:10.0	357.800	-0.420	0.080	-0.560
2020/01/31 16:59:10.1	357.790	-0.350	0.020	-0.520
2020/01/31 16:59:10.2	357.770	-0.290	-0.040	-0.470
2020/01/31 16:59:10.3	357.760	-0.230	-0.110	-0.430
2020/01/31 16:59:10.4	357.750	-0.160	-0.180	-0.380
2020/01/31 16:59:10.5	357.730	-0.090	-0.250	-0.340
2020/01/31 16:59:10.6	357.720	-0.030	-0.320	-0.300
2020/01/31 16:59:10.7	357.710	0.040	-0.390	-0.260
2020/01/31 16:59:10.8	357.720	0.100	-0.460	-0.230
2020/01/31 16:59:10.9	357.710	0.160	-0.530	-0.190
2020/01/31 16:59:11.0	357.710	0.230	-0.610	-0.160
2020/01/31 16:59:11.1	357.710	0.290	-0.680	-0.140
2020/01/31 16:59:11.2	357.720	0.340	-0.750	-0.110
2020/01/31 16:59:11.3	357.720	0.400	-0.810	-0.090
2020/01/31 16:59:11.4	357.730	0.450	-0.880	-0.070
2020/01/31 16:59:11.5	357.740	0.490	-0.940	-0.060
2020/01/31 16:59:11.6	357.750	0.540	-1.000	-0.050
2020/01/31 16:59:11.7	357.760	0.580	-1.060	-0.040
2020/01/31 16:59:11.8	357.780	0.610	-1.100	-0.040
2020/01/31 16:59:11.9	357.800	0.640	-1.150	-0.040
2020/01/31 16:59:12.0	357.820	0.670	-1.190	-0.040
2020/01/31 16:59:12.1	357.840	0.690	-1.220	-0.050
2020/01/31 16:59:12.2	357.850	0.700	-1.250	-0.060
2020/01/31 16:59:12.3	357.880	0.710	-1.270	-0.070
2020/01/31 16:59:12.4	357.900	0.720	-1.280	-0.090
2020/01/31 16:59:12.5	357.920	0.720	-1.280	-0.110
2020/01/31 16:59:12.6	357.940	0.720	-1.280	-0.130
2020/01/31 16:59:12.7	357.970	0.710	-1.270	-0.150
2020/01/31 16:59:12.8	357.990	0.690	-1.240	-0.180
2020/01/31 16:59:12.9	358.010	0.670	-1.210	-0.200
2020/01/31 16:59:13.0	358.030	0.650	-1.170	-0.220
2020/01/31 16:59:13.1	358.050	0.630	-1.120	-0.250
2020/01/31 16:59:13.2	358.070	0.590	-1.070	-0.270
2020/01/31 16:59:13.3	358.090	0.560	-1.000	-0.300
2020/01/31 16:59:13.4	358.110	0.520	-0.930	-0.320
2020/01/31 16:59:13.5	358.120	0.480	-0.840	-0.340
2020/01/31 16:59:13.6	358.140	0.440	-0.760	-0.360
2020/01/31 16:59:13.7	358.150	0.400	-0.660	-0.370
2020/01/31 16:59:13.8	358.170	0.350	-0.560	-0.390
2020/01/31 16:59:13.9	358.180	0.300	-0.460	-0.400
2020/01/31 16:59:14.0	358.180	0.250	-0.350	-0.410
2020/01/31 16:59:14.1	358.180	0.200	-0.250	-0.420
2020/01/31 16:59:14.2	358.180	0.150	-0.140	-0.430
2020/01/31 16:59:14.3	358.180	0.100	-0.030	-0.430
2020/01/31 16:59:14.4	358.180	0.050	0.070	-0.430
2020/01/31 16:59:14.5	358.170	-0.000	0.170	-0.430
2020/01/31 16:59:14.6	358.160	-0.050	0.270	-0.430
2020/01/31 16:59:14.7	358.150	-0.100	0.360	-0.430
2020/01/31 16:59:14.8	358.150	-0.140	0.440	-0.430
2020/01/31 16:59:14.9	358.140	-0.180	0.510	-0.430
2020/01/31 16:59:15.0	358.130	-0.220	0.580	-0.420
2020/01/31 16:59:15.1	358.120	-0.260	0.640	-0.420
2020/01/31 16:59:15.2	358.110	-0.290	0.690	-0.420
2020/01/31 16:59:15.3	358.100	-0.320	0.730	-0.410
2020/01/31 16:59:15.4	358.090	-0.350	0.760	-0.410
2020/01/31 16:59:15.5	358.080	-0.370	0.780	-0.400
2020/01/31 16:59:15.6	358.080	-0.380	0.780	-0.400
2020/01/31 16:59:15.7	358.070	-0.400	0.780	-0.390
2020/01/31 16:59:15.8	358.060	-0.400	0.770	-0.390
2020/01/31 16:59:15.9	358.050	-0.410	0.750	-0.380
2020/01/31 16:59:16.0	358.040	-0.400	0.710	-0.380
2020/01/31 16:59:16.1	358.030	-0.400	0.670	-0.370
2020/01/31 16:59:16.2	358.030	-0.380	0.620	-0.360
2020/01/31 16:59:16.3	358.020	-0.370	0.560	-0.350
2020/01/31 16:59:16.4	358.010	-0.350	0.500	-0.340
2020/01/31 16:59:16.5	358.010	-0.320	0.430	-0.330
2020/01/31 16:59:16.6	358.000	-0.300	0.350	-0.320
2020/01/31 16:59:16.7	357.990	-0.270	0.270	-0.310
2020/01/31 16:59:16.8	357.990	-0.230	0.190	-0.290
2020/01/31 16:59:16.9	357.990	-0.200	0.110	-0.280
2020/01/31 16:59:17.0	357.980	-0.160	0.020	-0.270
2020/01/31 16:59:17.1	357.970	-0.120	-0.060	-0.260
2020/01/31 16:59:17.2	357.970	-0.080	-0.150	-0.240
2020/01/31 16:59:17.3	357.970	-0.040	-0.230	-0.230
2020/01/31 16:59:17.4	357.960	0.000	-0.310	-0.210
2020/01/31 16:59:17.5	357.960	0.050	-0.380	-0.200
2020/01/31 16:59:17.6	357.960	0.090	-0.460	-0.190
2020/01/31 16:59:17.7	357.960	0.130	-0.520	-0.170
2020/01/31 16:59:17.8	357.950	0.160	-0.580	-0.160
2020/01/31 16:59:17.9	357.950	0.200	-0.640	-0.140
2020/01/31 16:59:18.0	357.950	0.230	-0.690	-0.130
2020/01/31 16:59:18.1	357.950	0.260	-0.730	-0.120
2020/01/31 16:59:18.2	357.950	0.290	-0.770	-0.100
2020/01/31 16:59:18.3	357.960	0.310	-0.810	-0.090
2020/01/31 16:59:18.4	357.960	0.330	-0.830	-0.080
2020/01/31 16:59:18.5	357.970	0.350	-0.850	-0.070
2020/01/31 16:59:18.6	357.970	0.360	-0.860	-0.060
2020/01/31 16:59:18.7	357.970	0.370	-0.870	-0.050
2020/01/31 16:59:18.8	357.990	0.370	-0.870	-0.040
2020/01/31 16:59:18.9	357.990	0.370	-0.870	-0.030
2020/01/31 16:59:19.0	358.000	0.370	-0.850	-0.020
2020/01/31 16:59:19.1	358.000	0.360	-0.840	-0.020
2020/01/31 16:59:19.2	358.000	0.340	-0.820	-0.010
2020/01/31 16:59:19.3	358.000	0.330	-0.790	-0.010
2020/01/31 16:59:19.4	358.010	0.310	-0.760	-0.000
2020/01/31 16:59:19.5	358.010	0.280	-0.730	-0.000
2020/01/31 16:59:19.6	358.010	0.250	-0.690	-0.000
2020/01/31 16:59:19.7	358.020	0.220	-0.650	-0.000
2020/01/31 16:59:19.8	358.030	0.190	-0.610	-0.010
2020/01/31 16:59:19.9	358.030	0.150	-0.570	-0.010
2020/01/31 16:59:20.0	358.040	0.120	-0.530	-0.020
2020/01/31 16:59:20.1	358.050	0.080	-0.490	-0.030
2020/01/31 16:59:20.2	358.060	0.040	-0.440	-0.040
2020/01/31 16:59:20.3	358.080	0.010	-0.400	-0.050
2020/01/31 16:59:20.4	358.090	-0.030	-0.360	-0.070
2020/01/31 16:59:20.5	358.110	-0.070	-0.320	-0.090
2020/01/31 16:59:20.6	358.120	-0.100	-0.290	-0.110
2020/01/31 16:59:20.7	358.140	-0.130	-0.250	-0.130
2020/01/31 16:59:20.8	358.160	-0.160	-0.220	-0.160
2020/01/31 16:59:20.9	358.180	-0.190	-0.190	-0.190
2020/01/31 16:59:21.0	358.210	-0.220	-0.160	-0.220
2020/01/31 16:59:21.1	358.230	-0.240	-0.140	-0.250
2020/01/31 16:59:21.2	358.250	-0.260	-0.120	-0.280
2020/01/31 16:59:21.3	358.280	-0.280	-0.100	-0.320
2020/01/31 16:59:21.4	358.300	-0.290	-0.080	-0.350
2020/01/31 16:59:21.5	358.330	-0.300	-0.070	-0.380
2020/01/31 16:59:21.6	358.350	-0.300	-0.060	-0.420
2020/01/31 16:59:21.7	358.380	-0.310	-0.050	-0.460
2020/01/31 16:59:21.8	358.400	-0.310	-0.050	-0.490
2020/01/31 16:59:21.9	358.430	-0.300	-0.050	-0.530
2020/01/31 16:59:22.0	358.450	-0.290	-0.050	-0.570
2020/01/31 16:59:22.1	358.470	-0.280	-0.060	-0.600
2020/01/31 16:59:22.2	358.490	-0.270	-0.070	-0.640
2020/01/31 16:59:22.3	358.510	-0.250	-0.080	-0.670
2020/01/31 16:59:22.4	358.520	-0.240	-0.090	-0.700
2020/01/31 16:59:22.5	358.540	-0.220	-0.100	-0.730
2020/01/31 16:59:22.6	358.550	-0.200	-0.120	-0.760
2020/01/31 16:59:22.7	358.560	-0.180	-0.130	-0.780
2020/01/31 16:59:22.8	358.580	-0.150	-0.140	-0.800
2020/01/31 16:59:22.9	358.590	-0.130	-0.150	-0.810
2020/01/31 16:59:23.0	358.590	-0.110	-0.170	-0.830
2020/01/31 16:59:23.1	358.590	-0.090	-0.180	-0.840
2020/01/31 16:59:23.2	358.580	-0.060	-0.200	-0.850
2020/01/31 16:59:23.3	358.580	-0.040	-0.210	-0.850
2020/01/31 16:59:23.4	358.570	-0.020	-0.220	-0.850
2020/01/31 16:59:23.5	358.560	-0.000	-0.230	-0.850
2020/01/31 16:59:23.6	358.540	0.010	-0.240	-0.850
2020/01/31 16:59:23.7	358.530	0.030	-0.250	-0.850
2020/01/31 16:59:23.8	358.520	0.040	-0.250	-0.840
2020/01/31 16:59:23.9	358.500	0.060	-0.260	-0.830
2020/01/31 16:59:24.0	358.480	0.060	-0.260	-0.820
2020/01/31 16:59:24.1	358.460	0.070	-0.260	-0.810
2020/01/31 16:59:24.2	358.430	0.080	-0.260	-0.800
2020/01/31 16:59:24.3	358.400	0.080	-0.250	-0.790
2020/01/31 16:59:24.4	358.380	0.080	-0.250	-0.780
2020/01/31 16:59:24.5	358.350	0.080	-0.240	-0.760
2020/01/31 16:59:24.6	358.320	0.080	-0.230	-0.750
2020/01/31 16:59:24.7	358.290	0.080	-0.220	-0.730
2020/01/31 16:59:24.8	358.240	0.070	-0.200	-0.710
2020/01/31 16:59:24.9	358.210	0.070	-0.190	-0.700
2020/01/31 16:59:25.0	358.180	0.060	-0.170	-0.680
2020/01/31 16:59:25.1	358.150	0.050	-0.150	-0.660
2020/01/31 16:59:25.2	358.120	0.040	-0.130	-0.630
2020/01/31 16:59:25.3	358.100	0.030	-0.120	-0.610
2020/01/31 16:59:25.4	358.070	0.030	-0.100	-0.590
2020/01/31 16:59:25.5	358.040	0.020	-0.080	-0.560
2020/01/31 16:59:25.6	358.020	0.010	-0.060	-0.540
2020/01/31 16:59:25.7	358.000	0.000	-0.040	-0.510
2020/01/31 16:59:25.8	357.980	-0.010	-0.030	-0.490
2020/01/31 16:59:25.9	357.960	-0.010	-0.020	-0.460
2020/01/31 16:59:26.0	357.940	-0.020	-0.000	-0.440
2020/01/31 16:59:26.1	357.930	-0.020	0.010	-0.410
2020/01/31 16:59:26.2	357.920	-0.030	0.010	-0.390
2020/01/31 16:59:26.3	357.910	-0.030	0.020	-0.370
2020/01/31 16:59:26.4	357.900	-0.030	0.020	-0.340
2020/01/31 16:59:26.5	357.890	-0.030	0.020	-0.320
2020/01/31 16:59:26.6	357.890	-0.030	0.020	-0.290
2020/01/31 16:59:26.7	357.890	-0.030	0.020	-0.270
2020/01/31 16:59:26.8	357.880	-0.020	0.020	-0.250
2020/01/31 16:59:26.9	357.880	-0.020	0.010	-0.220
2020/01/31 16:59:27.0	357.870	-0.010	0.000	-0.200
2020/01/31 16:59:27.1	357.870	-0.010	-0.010	-0.180
2020/01/31 16:59:27.2	357.870	-0.000	-0.020	-0.160
2020/01/31 16:59:27.3	357.860	0.000	-0.030	-0.140
2020/01/31 16:59:27.4	357.860	0.010	-0.040	-0.120
2020/01/31 16:59:27.5	357.850	0.020	-0.060	-0.100
2020/01/31 16:59:27.6	357.840	0.020	-0.070	-0.090
2020/01/31 16:59:27.7	357.840	0.030	-0.090	-0.070
2020/01/31 16:59:27.8	357.820	0.040	-0.100	-0.060
2020/01/31 16:59:27.9	357.810	0.040	-0.120	-0.050
2020/01/31 16:59:28.0	357.800	0.050	-0.130	-0.040
2020/01/31 16:59:28.1	357.790	0.050	-0.150	-0.030
2020/01/31 16:59:28.2	357.780	0.050	-0.170	-0.020
2020/01/31 16:59:28.3	357.760	0.060	-0.190	-0.020
2020/01/31 16:59:28.4	357.750	0.060	-0.210	-0.020
2020/01/31 16:59:28.5	357.740	0.060	-0.230	-0.020
2020/01/31 16:59:28.6	357.730	0.060	-0.250	-0.020
2020/01/31 16:59:28.7	357.720	0.060	-0.270	-0.020
2020/01/31 16:59:28.8	357.720	0.060	-0.290	-0.020
2020/01/31 16:59:28.9	357.710	0.060	-0.320	-0.020
2020/01/31 16:59:29.0	357.710	0.060	-0.340	-0.030
2020/01/31 16:59:29.1	357.710	0.050	-0.370	-0.030
2020/01/31 16:59:29.2	357.710	0.050	-0.400	-0.040
2020/01/31 16:59:29.3	357.710	0.050	-0.430	-0.050
2020/01/31 16:59:29.4	357.720	0.050	-0.460	-0.060
2020/01/31 16:59:29.5	357.730	0.040	-0.500	-0.070
2020/01/31 16:59:29.6	357.740	0.040	-0.530	-0.080
2020/01/31 16:59:29.7	357.750	0.030	-0.560	-0.100
2020/01/31 16:59:29.8	357.780	0.030	-0.590	-0.120
2020/01/31 16:59:29.9	357.800	0.030	-0.630	-0.140
2020/01/31 16:59:30.0	357.820	0.020	-0.660	-0.160
2020/01/31 16:59:30.1	357.850	0.020	-0.690	-0.180
2020/01/31 16:59:30.2	357.870	0.020	-0.720	-0.210
2020/01/31 16:59:30.3	357.910	0.010	-0.750	-0.240
2020/01/31 16:59:30.4	357.940	0.010	-0.780	-0.270
2020/01/31 16:59:30.5	357.980	0.010	-0.800	-0.300
2020/01/31 16:59:30.6	358.010	0.010	-0.820	-0.330
2020/01/31 16:59:30.7	358.050	0.000	-0.840	-0.370
2020/01/31 16:59:30.8	358.080	0.000	-0.850	-0.400
2020/01/31 16:59:30.9	358.120	-0.000	-0.870	-0.440
2020/01/31 16:59:31.0	358.170	-0.000	-0.870	-0.470
2020/01/31 16:59:31.1	358.210	-0.010	-0.870	-0.510
2020/01/31 16:59:31.2	358.250	-0.010	-0.870	-0.540
2020/01/31 16:59:31.3	358.300	-0.010	-0.860	-0.580
2020/01/31 16:59:31.4	358.340	-0.010	-0.850	-0.610
2020/01/31 16:59:31.5	358.390	-0.020	-0.830	-0.640
2020/01/31 16:59:31.6	358.430	-0.020	-0.810	-0.670
2020/01/31 16:59:31.7	358.470	-0.020	-0.790	-0.700
2020/01/31 16:59:31.8	358.510	-0.030	-0.750	-0.730
2020/01/31 16:59:31.9	358.550	-0.030	-0.720	-0.750
2020/01/31 16:59:32.0	358.580	-0.040	-0.680	-0.770
2020/01/31 16:59:32.1	358.600	-0.050	-0.630	-0.780
2020/01/31 16:59:32.2	358.630	-0.060	-0.580	-0.790
2020/01/31 16:59:32.3	358.650	-0.070	-0.530	-0.800
2020/01/31 16:59:32.4	358.670	-0.080	-0.470	-0.810
2020/01/31 16:59:32.5	358.680	-0.090	-0.410	-0.810
2020/01/31 16:59:32.6	358.690	-0.100	-0.350	-0.810
2020/01/31 16:59:32.7	358.700	-0.120	-0.290	-0.810
2020/01/31 16:59:32.8	358.700	-0.130	-0.230	-0.800
2020/01/31 16:59:32.9	358.700	-0.140	-0.160	-0.800
2020/01/31 16:59:33.0	358.690	-0.160	-0.100	-0.780
2020/01/31 16:59:33.1	358.680	-0.170	-0.030	-0.760
2020/01/31 16:59:33.2	358.660	-0.180	0.030	-0.740
2020/01/31 16:59:33.3	358.640	-0.200	0.100	-0.720
2020/01/31 16:59:33.4	358.620	-0.210	0.160	-0.690
2020/01/31 16:59:33.5	358.600	-0.220	0.220	-0.660
2020/01/31 16:59:33.6	358.570	-0.230	0.270	-0.630
2020/01/31 16:59:33.7	358.530	-0.240	0.330	-0.600
2020/01/31 16:59:33.8	358.500	-0.250	0.370	-0.560
2020/01/31 16:59:33.9	358.460	-0.250	0.420	-0.520
2020/01/31 16:59:34.0	358.420	-0.260	0.460	-0.480
2020/01/31 16:59:34.1	358.370	-0.260	0.490	-0.440
2020/01/31 16:59:34.2	358.320	-0.260	0.520	-0.400
2020/01/31 16:59:34.3	358.270	-0.250	0.540	-0.350
2020/01/31 16:59:34.4	358.220	-0.250	0.560	-0.310
2020/01/31 16:59:34.5	358.170	-0.240	0.570	-0.260
2020/01/31 16:59:34.6	358.110	-0.230	0.580	-0.220
2020/01/31 16:59:34.7	358.050	-0.210	0.570	-0.170
2020/01/31 16:59:34.8	357.990	-0.190	0.570	-0.130
2020/01/31 16:59:34.9	357.930	-0.170	0.550	-0.080
2020/01/31 16:59:35.0	357.880	-0.150	0.530	-0.040
2020/01/31 16:59:35.1	357.820	-0.120	0.500	-0.000
2020/01/31 16:59:35.2	357.760	-0.090	0.470	0.040
2020/01/31 16:59:35.3	357.710	-0.060	0.430	0.070
2020/01/31 16:59:35.4	357.650	-0.020	0.390	0.110
2020/01/31 16:59:35.5	357.600	0.010	0.340	0.140
2020/01/31 16:59:35.6	357.550	0.050	0.290	0.170
2020/01/31 16:59:35.7	357.500	0.100	0.230	0.200
2020/01/31 16:59:35.8	357.440	0.140	0.170	0.230
2020/01/31 16:59:35.9	357.390	0.180	0.110	0.260
2020/01/31 16:59:36.0	357.350	0.230	0.050	0.280
2020/01/31 16:59:36.1	357.300	0.280	-0.020	0.300
2020/01/31 16:59:36.2	357.260	0.320	-0.080	0.320
2020/01/31 16:59:36.3	357.220	0.370	-0.140	0.330
2020/01/31 16:59:36.4	357.180	0.410	-0.210	0.340
2020/01/31 16:59:36.5	357.150	0.450	-0.270	0.350
2020/01/31 16:59:36.6	357.120	0.500	-0.330	0.350
2020/01/31 16:59:36.7	357.090	0.530	-0.390	0.350
2020/01/31 16:59:36.8	357.060	0.570	-0.440	0.350
2020/01/31 16:59:36.9	357.040	0.600	-0.500	0.330
2020/01/31 16:59:37.0	357.020	0.630	-0.550	0.320
2020/01/31 16:59:37.1	357.000	0.650	-0.600	0.300
2020/01/31 16:59:37.2	356.990	0.670	-0.640	0.270
2020/01/31 16:59:37.3	356.990	0.690	-0.680	0.240
2020/01/31 16:59:37.4	356.990	0.700	-0.720	0.210
2020/01/31 16:59:37.5	356.990	0.710	-0.760	0.170
2020/01/31 16:59:37.6	357.000	0.710	-0.800	0.130
2020/01/31 16:59:37.7	357.020	0.700	-0.830	0.090
2020/01/31 16:59:37.8	357.050	0.700	-0.850	0.040
2020/01/31 16:59:37.9	357.070	0.690	-0.880	-0.020
2020/01/31 16:59:38.0	357.100	0.670	-0.900	-0.070
2020/01/31 16:59:38.1	357.140	0.650	-0.920	-0.130
2020/01/31 16:59:38.2	357.180	0.620	-0.940	-0.190
2020/01/31 16:59:38.3	357.220	0.590	-0.960	-0.250
2020/01/31 16:59:38.4	357.270	0.560	-0.970	-0.320
2020/01/31 16:59:38.5	357.320	0.520	-0.970	-0.380
2020/01/31 16:59:38.6	357.370	0.480	-0.980	-0.440
2020/01/31 16:59:38.7	357.420	0.430	-0.970	-0.510
2020/01/31 16:59:38.8	357.480	0.380	-0.970	-0.570
2020/01/31 16:59:38.9	357.530	0.330	-0.950	-0.630
2020/01/31 16:59:39.0	357.580	0.270	-0.930	-0.680
2020/01/31 16:59:39.1	357.630	0.210	-0.900	-0.740
2020/01/31 16:59:39.2	357.680	0.140	-0.870	-0.790
2020/01/31 16:59:39.3	357.720	0.080	-0.830	-0.840
2020/01/31 16:59:39.4	357.760	0.010	-0.780	-0.890
2020/01/31 16:59:39.5	357.800	-0.060	-0.730	-0.930
2020/01/31 16:59:39.6	357.840	-0.140	-0.670	-0.970
2020/01/31 16:59:39.7	357.870	-0.210	-0.600	-1.000
2020/01/31 16:59:39.8	357.910	-0.280	-0.540	-1.040
2020/01/31 16:59:39.9	357.940	-0.360	-0.460	-1.070
2020/01/31 16:59:40.0	357.960	-0.430	-0.390	-1.090
2020/01/31 16:59:40.1	357.980	-0.500	-0.310	-1.110
2020/01/31 16:59:40.2	358.000	-0.570	-0.230	-1.120
2020/01/31 16:59:40.3	358.010	-0.640	-0.150	-1.140
2020/01/31 16:59:40.4	358.020	-0.710	-0.070	-1.140
2020/01/31 16:59:40.5	358.030	-0.770	0.010	-1.140
2020/01/31 16:59:40.6	358.040	-0.820	0.090	-1.140
2020/01/31 16:59:40.7	358.040	-0.880	0.170	-1.130
2020/01/31 16:59:40.8	358.030	-0.930	0.240	-1.130
2020/01/31 16:59:40.9	358.030	-0.970	0.300	-1.110
2020/01/31 16:59:41.0	358.030	-1.010	0.360	-1.100
2020/01/31 16:59:41.1	358.020	-1.040	0.420	-1.080
2020/01/31 16:59:41.2	358.020	-1.060	0.460	-1.060
2020/01/31 16:59:41.3	358.010	-1.080	0.500	-1.040
2020/01/31 16:59:41.4	358.000	-1.100	0.530	-1.020
2020/01/31 16:59:41.5	357.990	-1.100	0.550	-1.000
2020/01/31 16:59:41.6	357.980	-1.100	0.570	-0.970
2020/01/31 16:59:41.7	357.970	-1.090	0.570	-0.950
2020/01/31 16:59:41.8	357.950	-1.080	0.560	-0.920
2020/01/31 16:59:41.9	357.930	-1.060	0.550	-0.890
2020/01/31 16:59:42.0	357.920	-1.030	0.530	-0.870
2020/01/31 16:59:42.1	357.900	-0.990	0.500	-0.840
2020/01/31 16:59:42.2	357.890	-0.950	0.470	-0.820
2020/01/31 16:59:42.3	357.870	-0.900	0.430	-0.790
2020/01/31 16:59:42.4	357.860	-0.850	0.380	-0.760
2020/01/31 16:59:42.5	357.840	-0.790	0.330	-0.730
2020/01/31 16:59:42.6	357.820	-0.730	0.270	-0.700
2020/01/31 16:59:42.7	357.810	-0.660	0.210	-0.670
2020/01/31 16:59:42.8	357.790	-0.590	0.150	-0.640
2020/01/31 16:59:42.9	357.770	-0.510	0.090	-0.600
2020/01/31 16:59:43.0	357.750	-0.430	0.020	-0.570
2020/01/31 16:59:43.1	357.730	-0.350	-0.040	-0.530
2020/01/31 16:59:43.2	357.710	-0.270	-0.110	-0.490
2020/01/31 16:59:43.3	357.690	-0.190	-0.180	-0.450
2020/01/31 16:59:43.4	357.670	-0.110	-0.240	-0.410
2020/01/31 16:59:43.5	357.640	-0.030	-0.300	-0.370
2020/01/31 16:59:43.6	357.620	0.060	-0.360	-0.330
2020/01/31 16:59:43.7	357.600	0.140	-0.420	-0.290
2020/01/31 16:59:43.8	357.580	0.210	-0.470	-0.240
2020/01/31 16:59:43.9	357.560	0.290	-0.520	-0.200
2020/01/31 16:59:44.0	357.540	0.360	-0.570	-0.160
2020/01/31 16:59:44.1	357.520	0.430	-0.610	-0.120
2020/01/31 16:59:44.2	357.500	0.500	-0.640	-0.080
2020/01/31 16:59:44.3	357.480	0.560	-0.670	-0.050
2020/01/31 16:59:44.4	357.460	0.610	-0.700	-0.010
2020/01/31 16:59:44.5	357.450	0.660	-0.720	0.020
2020/01/31 16:59:44.6	357.430	0.710	-0.730	0.050
2020/01/31 16:59:44.7	357.420	0.750	-0.740	0.080
2020/01/31 16:59:44.8	357.400	0.790	-0.750	0.100
2020/01/31 16:59:44.9	357.390	0.820	-0.750	0.130
2020/01/31 16:59:45.0	357.370	0.850	-0.740	0.150
2020/01/31 16:59:45.1	357.360	0.870	-0.730	0.180
2020/01/31 16:59:45.2	357.350	0.880	-0.720	0.200
2020/01/31 16:59:45.3	357.350	0.890	-0.700	0.220
2020/01/31 16:59:45.4	357.340	0.900	-0.680	0.230
2020/01/31 16:59:45.5	357.330	0.900	-0.660	0.250
2020/01/31 16:59:45.6	357.320	0.890	-0.630	0.270
2020/01/31 16:59:45.7	357.310	0.880	-0.600	0.280
2020/01/31 16:59:45.8	357.310	0.870	-0.570	0.300
2020/01/31 16:59:45.9	357.300	0.850	-0.540	0.320
2020/01/31 16:59:46.0	357.300	0.830	-0.510	0.330
2020/01/31 16:59:46.1	357.290	0.810	-0.470	0.340
2020/01/31 16:59:46.2	357.280	0.780	-0.440	0.350
2020/01/31 16:59:46.3	357.280	0.750	-0.410	0.360
2020/01/31 16:59:46.4	357.270	0.720	-0.380	0.360
2020/01/31 16:59:46.5	357.260	0.680	-0.340	0.360
2020/01/31 16:59:46.6	357.260	0.650	-0.310	0.360
2020/01/31 16:59:46.7	357.260	0.610	-0.290	0.360
2020/01/31 16:59:46.8	357.250	0.570	-0.260	0.350
2020/01/31 16:59:46.9	357.250	0.530	-0.240	0.340
2020/01/31 16:59:47.0	357.250	0.490	-0.220	0.320
2020/01/31 16:59:47.1	357.260	0.450	-0.200	0.300
2020/01/31 16:59:47.2	357.260	0.410	-0.190	0.270
2020/01/31 16:59:47.3	357.270	0.370	-0.170	0.250
2020/01/31 16:59:47.4	357.270	0.330	-0.160	0.210
2020/01/31 16:59:47.5	357.280	0.290	-0.150	0.180
2020/01/31 16:59:47.6	357.290	0.250	-0.150	0.140
2020/01/31 16:59:47.7	357.300	0.220	-0.140	0.100
2020/01/31 16:59:47.8	357.320	0.180	-0.140	0.050
2020/01/31 16:59:47.9	357.330	0.150	-0.140	0.010
2020/01/31 16:59:48.0	357.350	0.110	-0.140	-0.040
2020/01/31 16:59:48.1	357.360	0.080	-0.140	-0.080
2020/01/31 16:59:48.2	357.370	0.050	-0.140	-0.130
2020/01/31 16:59:48.3	357.380	0.020	-0.140	-0.170
2020/01/31 16:59:48.4	357.400	-0.010	-0.140	-0.220
2020/01/31 16:59:48.5	357.410	-0.040	-0.130	-0.260
2020/01/31 16:59:48.6	357.420	-0.070	-0.130	-0.300
2020/01/31 16:59:48.7	357.430	-0.090	-0.130	-0.340
2020/01/31 16:59:48.8	357.420	-0.120	-0.120	-0.370
2020/01/31 16:59:48.9	357.430	-0.140	-0.110	-0.410
2020/01/31 16:59:49.0	357.430	-0.170	-0.100	-0.440
2020/01/31 16:59:49.1	357.430	-0.190	-0.090	-0.470
2020/01/31 16:59:49.2	357.430	-0.220	-0.070	-0.500
2020/01/31 16:59:49.3	357.420	-0.240	-0.060	-0.520
2020/01/31 16:59:49.4	357.420	-0.260	-0.040	-0.540
2020/01/31 16:59:49.5	357.410	-0.290	-0.020	-0.570
2020/01/31 16:59:49.6	357.400	-0.310	-0.000	-0.590
2020/01/31 16:59:49.7	357.390	-0.340	0.020	-0.610
2020/01/31 16:59:49.8	357.370	-0.360	0.040	-0.630
2020/01/31 16:59:49.9	357.360	-0.390	0.060	-0.640
2020/01/31 16:59:50.0	357.350	-0.410	0.080	-0.660
2020/01/31 16:59:50.1	357.340	-0.440	0.090	-0.680
2020/01/31 16:59:50.2	357.330	-0.470	0.110	-0.690
2020/01/31 16:59:50.3	357.320	-0.490	0.120	-0.710
2020/01/31 16:59:50.4	357.320	-0.520	0.120	-0.730
2020/01/31 16:59:50.5	357.310	-0.540	0.130	-0.740
2020/01/31 16:59:50.6	357.310	-0.570	0.130	-0.760
2020/01/31 16:59:50.7	357.310	-0.590	0.120	-0.780
2020/01/31 16:59:50.8	357.310	-0.610	0.110	-0.790
2020/01/31 16:59:50.9	357.310	-0.640	0.100	-0.810
2020/01/31 16:59:51.0	357.320	-0.660	0.090	-0.830
2020/01/31 16:59:51.1	357.330	-0.680	0.070	-0.840
2020/01/31 16:59:51.2	357.340	-0.690	0.040	-0.850
2020/01/31 16:59:51.3	357.350	-0.710	0.010	-0.870
2020/01/31 16:59:51.4	357.360	-0.720	-0.020	-0.880
2020/01/31 16:59:51.5	357.370	-0.730	-0.050	-0.890
2020/01/31 16:59:51.6	357.390	-0.740	-0.090	-0.900
2020/01/31 16:59:51.7	357.400	-0.750	-0.130	-0.900
2020/01/31 16:59:51.8	357.430	-0.750	-0.180	-0.910
2020/01/31 16:59:51.9	357.450	-0.750	-0.220	-0.910
2020/01/31 16:59:52.0	357.470	-0.750	-0.270	-0.910
2020/01/31 16:59:52.1	357.480	-0.740	-0.310	-0.910
2020/01/31 16:59:52.2	357.500	-0.730	-0.360	-0.910
2020/01/31 16:59:52.3	357.530	-0.710	-0.410	-0.900
2020/01/31 16:59:52.4	357.550	-0.690	-0.450	-0.900
2020/01/31 16:59:52.5	357.570	-0.670	-0.500	-0.890
2020/01/31 16:59:52.6	357.590	-0.640	-0.540	-0.870
2020/01/31 16:59:52.7	357.610	-0.610	-0.580	-0.860
2020/01/31 16:59:52.8	357.620	-0.580	-0.610	-0.840
2020/01/31 16:59:52.9	357.640	-0.540	-0.640	-0.810
2020/01/31 16:59:53.0	357.660	-0.500	-0.670	-0.790
2020/01/31 16:59:53.1	357.680	-0.450	-0.690	-0.760
2020/01/31 16:59:53.2	357.700	-0.400	-0.710	-0.730
2020/01/31 16:59:53.3	357.720	-0.340	-0.730	-0.690
2020/01/31 16:59:53.4	357.730	-0.290	-0.740	-0.650
2020/01/31 16:59:53.5	357.750	-0.230	-0.740	-0.610
2020/01/31 16:59:53.6	357.760	-0.170	-0.740	-0.560
2020/01/31 16:59:53.7	357.770	-0.110	-0.730	-0.510
2020/01/31 16:59:53.8	357.790	-0.040	-0.730	-0.460
2020/01/31 16:59:53.9	357.790	0.020	-0.710	-0.400
2020/01/31 16:59:54.0	357.790	0.090	-0.690	-0.340
2020/01/31 16:59:54.1	357.790	0.150	-0.670	-0.290
2020/01/31 16:59:54.2	357.790	0.210	-0.640	-0.230
2020/01/31 16:59:54.3	357.790	0.270	-0.610	-0.170
2020/01/31 16:59:54.4	357.790	0.330	-0.580	-0.100
2020/01/31 16:59:54.5	357.780	0.390	-0.540	-0.040
2020/01/31 16:59:54.6	357.770	0.440	-0.510	0.020
2020/01/31 16:59:54.7	357.760	0.490	-0.470	0.080
2020/01/31 16:59:54.8	357.750	0.540	-0.430	0.150
2020/01/31 16:59:54.9	357.730	0.580	-0.400	0.210
2020/01/31 16:59:55.0	357.720	0.620	-0.360	0.270
2020/01/31 16:59:55.1	357.710	0.660	-0.320	0.330
2020/01/31 16:59:55.2	357.690	0.690	-0.290	0.390
2020/01/31 16:59:55.3	357.670	0.710	-0.260	0.450
2020/01/31 16:59:55.4	357.650	0.730	-0.230	0.500
2020/01/31 16:59:55.5	357.630	0.740	-0.200	0.550
2020/01/31 16:59:55.6	357.610	0.750	-0.180	0.600
2020/01/31 16:59:55.7	357.590	0.760	-0.150	0.640
2020/01/31 16:59:55.8	357.580	0.760	-0.140	0.680
2020/01/31 16:59:55.9	357.570	0.750	-0.120	0.710
2020/01/31 16:59:56.0	357.550	0.740	-0.110	0.740
2020/01/31 16:59:56.1	357.530	0.730	-0.100	0.760
2020/01/31 16:59:56.2	357.520	0.710	-0.090	0.780
2020/01/31 16:59:56.3	357.500	0.690	-0.090	0.790
2020/01/31 16:59:56.4	357.490	0.660	-0.080	0.790
2020/01/31 16:59:56.5	357.480	0.630	-0.090	0.790
2020/01/31 16:59:56.6	357.470	0.600	-0.090	0.780
2020/01/31 16:59:56.7	357.470	0.570	-0.090	0.760
2020/01/31 16:59:56.8	357.460	0.530	-0.100	0.740
2020/01/31 16:59:56.9	357.460	0.500	-0.100	0.720
2020/01/31 16:59:57.0	357.460	0.460	-0.110	0.690
2020/01/31 16:59:57.1	357.460	0.420	-0.120	0.660
2020/01/31 16:59:57.2	357.460	0.380	-0.130	0.620
2020/01/31 16:59:57.3	357.460	0.340	-0.130	0.580
2020/01/31 16:59:57.4	357.470	0.310	-0.140	0.540
2020/01/31 16:59:57.5	357.470	0.270	-0.150	0.500
2020/01/31 16:59:57.6	357.480	0.230	-0.150	0.450
2020/01/31 16:59:57.7	357.490	0.200	-0.150	0.400
2020/01/31 16:59:57.8	357.490	0.160	-0.160	0.350
2020/01/31 16:59:57.9	357.500	0.130	-0.160	0.300
2020/01/31 16:59:58.0	357.520	0.100	-0.150	0.250
2020/01/31 16:59:58.1	357.530	0.070	-0.150	0.200
2020/01/31 16:59:58.2	357.530	0.040	-0.140	0.150
2020/01/31 16:59:58.3	357.540	0.020	-0.140	0.090
2020/01/31 16:59:58.4	357.550	-0.010	-0.130	0.040
2020/01/31 16:59:58.5	357.560	-0.030	-0.120	-0.010
2020/01/31 16:59:58.6	357.570	-0.050	-0.110	-0.060
2020/01/31 16:59:58.7	357.570	-0.070	-0.090	-0.110
2020/01/31 16:59:58.8	357.570	-0.090	-0.080	-0.160
2020/01/31 16:59:58.9	357.570	-0.110	-0.070	-0.210
2020/01/31 16:59:59.0	357.570	-0.130	-0.050	-0.250
2020/01/31 16:59:59.1	357.570	-0.140	-0.040	-0.290
2020/01/31 16:59:59.2	357.570	-0.160	-0.020	-0.330
2020/01/31 16:59:59.3	357.570	-0.170	-0.010	-0.370
2020/01/31 16:59:59.4	357.560	-0.180	0.000	-0.410
2020/01/31 16:59:59.5	357.550	-0.190	0.010	-0.440
2020/01/31 16:59:59.6	357.550	-0.200	0.020	-0.470
2020/01/31 16:59:59.7	357.540	-0.210	0.030	-0.490
2020/01/31 16:59:59.8	357.520	-0.220	0.030	-0.520
2020/01/31 16:59:59.9	357.510	-0.230	0.030	-0.540
2020/01/31 17:00:00.0	357.490	-0.230	0.030	-0.560
2020/01/31 17:00:00.1	357.480	-0.240	0.020	-0.580
2020/01/31 17:00:00.2	357.470	-0.240	0.010	-0.590
2020/01/31 17:00:00.3	357.460	-0.240	0.000	-0.600
2020/01/31 17:00:00.4	357.440	-0.250	-0.020	-0.610
2020/01/31 17:00:00.5	357.430	-0.250	-0.040	-0.620
2020/01/31 17:00:00.6	357.420	-0.240	-0.060	-0.630
2020/01/31 17:00:00.7	357.410	-0.240	-0.090	-0.630
2020/01/31 17:00:00.8	357.390	-0.230	-0.130	-0.630
2020/01/31 17:00:00.9	357.390	-0.230	-0.160	-0.640
2020/01/31 17:00:01.0	357.390	-0.220	-0.210	-0.640
2020/01/31 17:00:01.1	357.380	-0.210	-0.250	-0.650
2020/01/31 17:00:01.2	357.390	-0.200	-0.300	-0.650
2020/01/31 17:00:01.3	357.390	-0.180	-0.350	-0.650
2020/01/31 17:00:01.4	357.400	-0.160	-0.400	-0.660
2020/01/31 17:00:01.5	357.410	-0.150	-0.450	-0.670
2020/01/31 17:00:01.6	357.420	-0.130	-0.500	-0.680
2020/01/31 17:00:01.7	357.440	-0.110	-0.560	-0.690
2020/01/31 17:00:01.8	357.450	-0.080	-0.610	-0.700
2020/01/31 17:00:01.9	357.470	-0.060	-0.660	-0.710
2020/01/31 17:00:02.0	357.500	-0.040	-0.710	-0.720
2020/01/31 17:00:02.1	357.520	-0.010	-0.760	-0.730
2020/01/31 17:00:02.2	357.550	0.010	-0.800	-0.740
2020/01/31 17:00:02.3	357.570	0.040	-0.840	-0.750
2020/01/31 17:00:02.4	357.600	0.060	-0.880	-0.760
2020/01/31 17:00:02.5	357.630	0.090	-0.910	-0.770
2020/01/31 17:00:02.6	357.650	0.110	-0.930	-0.770
2020/01/31 17:00:02.7	357.680	0.130	-0.950	-0.780
2020/01/31 17:00:02.8	357.710	0.150	-0.960	-0.770
2020/01/31 17:00:02.9	357.730	0.170	-0.960	-0.770
2020/01/31 17:00:03.0	357.750	0.180	-0.950	-0.760
2020/01/31 17:00:03.1	357.770	0.200	-0.940	-0.750
2020/01/31 17:00:03.2	357.790	0.210	-0.920	-0.740
2020/01/31 17:00:03.3	357.810	0.220	-0.890	-0.730
2020/01/31 17:00:03.4	357.820	0.220	-0.850	-0.710
2020/01/31 17:00:03.5	357.840	0.220	-0.800	-0.690
2020/01/31 17:00:03.6	357.850	0.220	-0.750	-0.670
2020/01/31 17:00:03.7	357.860	0.210	-0.700	-0.640
2020/01/31 17:00:03.8	357.870	0.200	-0.640	-0.610
2020/01/31 17:00:03.9	357.890	0.190	-0.580	-0.590
2020/01/31 17:00:04.0	357.900	0.170	-0.510	-0.560
2020/01/31 17:00:04.1	357.910	0.150	-0.440	-0.540
2020/01/31 17:00:04.2	357.920	0.130	-0.370	-0.510
2020/01/31 17:00:04.3	357.930	0.100	-0.300	-0.480
2020/01/31 17:00:04.4	357.950	0.070	-0.240	-0.460
2020/01/31 17:00:04.5	357.960	0.040	-0.170	-0.440
2020/01/31 17:00:04.6	357.980	0.010	-0.110	-0.420
2020/01/31 17:00:04.7	357.990	-0.030	-0.050	-0.400
2020/01/31 17:00:04.8	358.010	-0.060	0.010	-0.380
2020/01/31 17:00:04.9	358.030	-0.100	0.060	-0.360
2020/01/31 17:00:05.0	358.050	-0.130	0.110	-0.350
2020/01/31 17:00:05.1	358.070	-0.170	0.150	-0.340
2020/01/31 17:00:05.2	358.090	-0.200	0.190	-0.330
2020/01/31 17:00:05.3	358.110	-0.240	0.220	-0.320
2020/01/31 17:00:05.4	358.130	-0.270	0.250	-0.320
2020/01/31 17:00:05.5	358.140	-0.300	0.270	-0.310
2020/01/31 17:00:05.6	358.160	-0.330	0.290	-0.310
2020/01/31 17:00:05.7	358.180	-0.360	0.300	-0.310
2020/01/31 17:00:05.8	358.190	-0.390	0.310	-0.300
2020/01/31 17:00:05.9	358.210	-0.410	0.320	-0.300
2020/01/31 17:00:06.0	358.210	-0.430	0.330	-0.290
2020/01/31 17:00:06.1	358.220	-0.450	0.330	-0.290
2020/01/31 17:00:06.2	358.210	-0.460	0.330	-0.280
2020/01/31 17:00:06.3	358.210	-0.480	0.330	-0.270
2020/01/31 17:00:06.4	358.200	-0.480	0.330	-0.260
2020/01/31 17:00:06.5	358.180	-0.490	0.330	-0.240
2020/01/31 17:00:06.6	358.160	-0.490	0.330	-0.230
2020/01/31 17:00:06.7	358.130	-0.490	0.340	-0.210
2020/01/31 17:00:06.8	358.110	-0.490	0.340	-0.190
2020/01/31 17:00:06.9	358.070	-0.480	0.340	-0.170
2020/01/31 17:00:07.0	358.030	-0.480	0.340	-0.150
2020/01/31 17:00:07.1	357.990	-0.460	0.340	-0.130
2020/01/31 17:00:07.2	357.940	-0.450	0.340	-0.100
2020/01/31 17:00:07.3	357.890	-0.430	0.340	-0.080
2020/01/31 17:00:07.4	357.840	-0.410	0.340	-0.050
2020/01/31 17:00:07.5	357.780	-0.390	0.340	-0.030
2020/01/31 17:00:07.6	357.730	-0.360	0.340	-0.000
2020/01/31 17:00:07.7	357.670	-0.340	0.330	0.030
2020/01/31 17:00:07.8	357.630	-0.310	0.320	0.060
2020/01/31 17:00:07.9	357.570	-0.280	0.310	0.080
2020/01/31 17:00:08.0	357.520	-0.250	0.300	0.110
2020/01/31 17:00:08.1	357.470	-0.210	0.280	0.130
2020/01/31 17:00:08.2	357.420	-0.180	0.260	0.150
2020/01/31 17:00:08.3	357.370	-0.140	0.230	0.170
2020/01/31 17:00:08.4	357.320	-0.100	0.200	0.180
2020/01/31 17:00:08.5	357.280	-0.060	0.160	0.200
2020/01/31 17:00:08.6	357.240	-0.020	0.120	0.210
2020/01/31 17:00:08.7	357.200	0.030	0.080	0.220
2020/01/31 17:00:08.8	357.170	0.070	0.030	0.220
2020/01/31 17:00:08.9	357.140	0.110	-0.020	0.220
2020/01/31 17:00:09.0	357.110	0.160	-0.080	0.220
2020/01/31 17:00:09.1	357.090	0.200	-0.140	0.220
2020/01/31 17:00:09.2	357.070	0.250	-0.200	0.220
2020/01/31 17:00:09.3	357.050	0.290	-0.270	0.210
2020/01/31 17:00:09.4	357.040	0.330	-0.340	0.200
2020/01/31 17:00:09.5	357.030	0.370	-0.410	0.190
2020/01/31 17:00:09.6	357.020	0.420	-0.480	0.180
2020/01/31 17:00:09.7	357.010	0.450	-0.540	0.160
2020/01/31 17:00:09.8	357.010	0.490	-0.610	0.140
2020/01/31 17:00:09.9	357.010	0.530	-0.680	0.120
2020/01/31 17:00:10.0	357.010	0.560	-0.740	0.100
2020/01/31 17:00:10.1	357.020	0.590	-0.800	0.080
2020/01/31 17:00:10.2	357.020	0.610	-0.860	0.050
2020/01/31 17:00:10.3	357.030	0.640	-0.910	0.020
2020/01/31 17:00:10.4	357.040	0.660	-0.960	-0.000
2020/01/31 17:00:10.5	357.040	0.670	-1.000	-0.030
2020/01/31 17:00:10.6	357.060	0.680	-1.030	-0.060
2020/01/31 17:00:10.7	357.070	0.690	-1.060	-0.090
2020/01/31 17:00:10.8	357.070	0.700	-1.080	-0.120
2020/01/31 17:00:10.9	357.080	0.700	-1.100	-0.160
2020/01/31 17:00:11.0	357.100	0.690	-1.110	-0.190
2020/01/31 17:00:11.1	357.110	0.680	-1.120	-0.220
2020/01/31 17:00:11.2	357.130	0.670	-1.120	-0.260
2020/01/31 17:00:11.3	357.150	0.650	-1.120	-0.290
2020/01/31 17:00:11.4	357.180	0.630	-1.110	-0.330
2020/01/31 17:00:11.5	357.200	0.600	-1.100	-0.360
2020/01/31 17:00:11.6	357.230	0.580	-1.080	-0.400
2020/01/31 17:00:11.7	357.260	0.540	-1.070	-0.440
2020/01/31 17:00:11.8	357.290	0.510	-1.050	-0.470
2020/01/31 17:00:11.9	357.320	0.470	-1.030	-0.510
2020/01/31 17:00:12.0	357.360	0.430	-1.000	-0.550
2020/01/31 17:00:12.1	357.390	0.380	-0.970	-0.590
2020/01/31 17:00:12.2	357.420	0.340	-0.940	-0.620
2020/01/31 17:00:12.3	357.460	0.290	-0.910	-0.660
2020/01/31 17:00:12.4	357.490	0.240	-0.880	-0.700
2020/01/31 17:00:12.5	357.520	0.190	-0.850	-0.730
2020/01/31 17:00:12.6	357.550	0.130	-0.810	-0.770
2020/01/31 17:00:12.7	357.590	0.080	-0.780	-0.800
2020/01/31 17:00:12.8	357.620	0.030	-0.730	-0.840
2020/01/31 17:00:12.9	357.650	-0.030	-0.700	-0.870
2020/01/31 17:00:13.0	357.680	-0.080	-0.660	-0.900
2020/01/31 17:00:13.1	357.720	-0.130	-0.620	-0.940
2020/01/31 17:00:13.2	357.750	-0.180	-0.580	-0.970
2020/01/31 17:00:13.3	357.780	-0.230	-0.540	-1.000
2020/01/31 17:00:13.4	357.810	-0.280	-0.500	-1.030
2020/01/31 17:00:13.5	357.840	-0.320	-0.460	-1.070
2020/01/31 17:00:13.6	357.870	-0.360	-0.420	-1.090
2020/01/31 17:00:13.7	357.900	-0.400	-0.390	-1.120
2020/01/31 17:00:13.8	357.930	-0.430	-0.350	-1.150
2020/01/31 17:00:13.9	357.960	-0.460	-0.310	-1.170
2020/01/31 17:00:14.0	357.990	-0.490	-0.260	-1.190
2020/01/31 17:00:14.1	358.010	-0.510	-0.220	-1.200
2020/01/31 17:00:14.2	358.040	-0.530	-0.180	-1.210
2020/01/31 17:00:14.3	358.060	-0.550	-0.140	-1.210
2020/01/31 17:00:14.4	358.080	-0.560	-0.100	-1.210
2020/01/31 17:00:14.5	358.100	-0.560	-0.050	-1.210
2020/01/31 17:00:14.6	358.110	-0.560	-0.010	-1.190
2020/01/31 17:00:14.7	358.120	-0.560	0.040	-1.170
2020/01/31 17:00:14.8	358.120	-0.550	0.080	-1.140
2020/01/31 17:00:14.9	358.120	-0.540	0.130	-1.110
2020/01/31 17:00:15.0	358.120	-0.530	0.170	-1.070
2020/01/31 17:00:15.1	358.110	-0.510	0.220	-1.020
2020/01/31 17:00:15.2	358.100	-0.490	0.260	-0.960
2020/01/31 17:00:15.3	358.090	-0.460	0.310	-0.910
2020/01/31 17:00:15.4	358.070	-0.430	0.350	-0.840
2020/01/31 17:00:15.5	358.050	-0.410	0.400	-0.780
2020/01/31 17:00:15.6	358.020	-0.370	0.440	-0.710
2020/01/31 17:00:15.7	357.990	-0.340	0.480	-0.630
2020/01/31 17:00:15.8	357.970	-0.310	0.510	-0.560
2020/01/31 17:00:15.9	357.930	-0.270	0.550	-0.480
2020/01/31 17:00:16.0	357.900	-0.240	0.580	-0.400
2020/01/31 17:00:16.1	357.860	-0.200	0.600	-0.320
2020/01/31 17:00:16.2	357.810	-0.160	0.620	-0.240
2020/01/31 17:00:16.3	357.770	-0.130	0.640	-0.160
2020/01/31 17:00:16.4	357.720	-0.090	0.650	-0.090
2020/01/31 17:00:16.5	357.670	-0.060	0.660	-0.010
2020/01/31 17:00:16.6	357.620	-0.030	0.660	0.060
2020/01/31 17:00:16.7	357.570	0.000	0.660	0.130
2020/01/31 17:00:16.8	357.500	0.030	0.640	0.210
2020/01/31 17:00:16.9	357.450	0.060	0.630	0.270
2020/01/31 17:00:17.0	357.400	0.090	0.610	0.330
2020/01/31 17:00:17.1	357.340	0.110	0.580	0.390
2020/01/31 17:00:17.2	357.290	0.140	0.540	0.440
2020/01/31 17:00:17.3	357.240	0.160	0.500	0.480
2020/01/31 17:00:17.4	357.200	0.170	0.460	0.520
2020/01/31 17:00:17.5	357.150	0.190	0.410	0.550
2020/01/31 17:00:17.6	357.110	0.210	0.360	0.580
2020/01/31 17:00:17.7	357.070	0.220	0.300	0.600
2020/01/31 17:00:17.8	357.040	0.230	0.240	0.610
2020/01/31 17:00:17.9	357.000	0.240	0.180	0.620
2020/01/31 17:00:18.0	356.980	0.240	0.110	0.620
2020/01/31 17:00:18.1	356.950	0.250	0.040	0.620
2020/01/31 17:00:18.2	356.930	0.260	-0.030	0.610
2020/01/31 17:00:18.3	356.910	0.260	-0.100	0.590
2020/01/31 17:00:18.4	356.900	0.260	-0.170	0.570
2020/01/31 17:00:18.5	356.900	0.260	-0.250	0.550
2020/01/31 17:00:18.6	356.890	0.260	-0.320	0.520
2020/01/31 17:00:18.7	356.900	0.260	-0.390	0.490
2020/01/31 17:00:18.8	356.900	0.270	-0.460	0.460
2020/01/31 17:00:18.9	356.910	0.270	-0.530	0.420
2020/01/31 17:00:19.0	356.920	0.270	-0.590	0.380
2020/01/31 17:00:19.1	356.940	0.270	-0.650	0.330
2020/01/31 17:00:19.2	356.960	0.270	-0.710	0.290
2020/01/31 17:00:19.3	356.980	0.270	-0.760	0.240
2020/01/31 17:00:19.4	357.000	0.260	-0.800	0.190
2020/01/31 17:00:19.5	357.030	0.260	-0.840	0.150
2020/01/31 17:00:19.6	357.050	0.260	-0.870	0.100
2020/01/31 17:00:19.7	357.070	0.260	-0.900	0.050
2020/01/31 17:00:19.8	357.100	0.260	-0.920	0.010
2020/01/31 17:00:19.9	357.120	0.260	-0.930	-0.030
2020/01/31 17:00:20.0	357.150	0.260	-0.930	-0.070
2020/01/31 17:00:20.1	357.170	0.250	-0.920	-0.110
2020/01/31 17:00:20.2	357.190	0.250	-0.910	-0.150
2020/01/31 17:00:20.3	357.200	0.240	-0.890	-0.180
2020/01/31 17:00:20.4	357.220	0.240	-0.860	-0.210
2020/01/31 17:00:20.5	357.230	0.230	-0.830	-0.240
2020/01/31 17:00:20.6	357.250	0.220	-0.790	-0.260
2020/01/31 17:00:20.7	357.260	0.210	-0.740	-0.280
2020/01/31 17:00:20.8	357.260	0.200	-0.690	-0.300
2020/01/31 17:00:20.9	357.270	0.190	-0.640	-0.310
2020/01/31 17:00:21.0	357.270	0.180	-0.590	-0.320
2020/01/31 17:00:21.1	357.270	0.160	-0.540	-0.330
2020/01/31 17:00:21.2	357.270	0.140	-0.480	-0.340
2020/01/31 17:00:21.3	357.260	0.120	-0.430	-0.340
2020/01/31 17:00:21.4	357.260	0.100	-0.370	-0.340
2020/01/31 17:00:21.5	357.250	0.080	-0.320	-0.340
2020/01/31 17:00:21.6	357.240	0.060	-0.270	-0.340
2020/01/31 17:00:21.7	357.230	0.030	-0.220	-0.330
2020/01/31 17:00:21.8	357.210	0.010	-0.190	-0.320
2020/01/31 17:00:21.9	357.200	-0.020	-0.150	-0.320
2020/01/31 17:00:22.0	357.180	-0.050	-0.120	-0.320
2020/01/31 17:00:22.1	357.170	-0.080	-0.090	-0.320
2020/01/31 17:00:22.2	357.150	-0.110	-0.070	-0.330
2020/01/31 17:00:22.3	357.140	-0.150	-0.060	-0.340
2020/01/31 17:00:22.4	357.120	-0.180	-0.060	-0.350
2020/01/31 17:00:22.5	357.110	-0.210	-0.060	-0.370
2020/01/31 17:00:22.6	357.100	-0.240	-0.060	-0.390
2020/01/31 17:00:22.7	357.090	-0.280	-0.080	-0.420
2020/01/31 17:00:22.8	357.090	-0.310	-0.090	-0.460
2020/01/31 17:00:22.9	357.080	-0.340	-0.120	-0.490
2020/01/31 17:00:23.0	357.080	-0.370	-0.150	-0.540
2020/01/31 17:00:23.1	357.090	-0.410	-0.190	-0.580
2020/01/31 17:00:23.2	357.100	-0.430	-0.220	-0.630
2020/01/31 17:00:23.3	357.110	-0.460	-0.270	-0.690
2020/01/31 17:00:23.4	357.120	-0.490	-0.310	-0.740
2020/01/31 17:00:23.5	357.130	-0.510	-0.360	-0.800
2020/01/31 17:00:23.6	357.150	-0.530	-0.410	-0.860
2020/01/31 17:00:23.7	357.170	-0.550	-0.460	-0.910
2020/01/31 17:00:23.8	357.180	-0.570	-0.500	-0.970
2020/01/31 17:00:23.9	357.200	-0.580	-0.550	-1.030
2020/01/31 17:00:24.0	357.220	-0.600	-0.590	-1.080
2020/01/31 17:00:24.1	357.250	-0.600	-0.630	-1.130
2020/01/31 17:00:24.2	357.270	-0.610	-0.660	-1.180
2020/01/31 17:00:24.3	357.300	-0.620	-0.690	-1.220
2020/01/31 17:00:24.4	357.320	-0.620	-0.710	-1.260
2020/01/31 17:00:24.5	357.350	-0.610	-0.730	-1.290
2020/01/31 17:00:24.6	357.380	-0.610	-0.740	-1.320
2020/01/31 17:00:24.7	357.400	-0.600	-0.750	-1.350
2020/01/31 17:00:24.8	357.430	-0.590	-0.750	-1.370
2020/01/31 17:00:24.9	357.460	-0.570	-0.740	-1.380
2020/01/31 17:00:25.0	357.490	-0.560	-0.730	-1.390
2020/01/31 17:00:25.1	357.520	-0.540	-0.710	-1.390
2020/01/31 17:00:25.2	357.540	-0.510	-0.680	-1.380
2020/01/31 17:00:25.3	357.570	-0.490	-0.650	-1.370
2020/01/31 17:00:25.4	357.600	-0.460	-0.620	-1.350
2020/01/31 17:00:25.5	357.630	-0.430	-0.590	-1.330
2020/01/31 17:00:25.6	357.660	-0.390	-0.550	-1.300
2020/01/31 17:00:25.7	357.690	-0.360	-0.510	-1.270
2020/01/31 17:00:25.8	357.710	-0.320	-0.460	-1.220
2020/01/31 17:00:25.9	357.740	-0.280	-0.420	-1.180
2020/01/31 17:00:26.0	357.760	-0.230	-0.380	-1.140
2020/01/31 17:00:26.1	357.780	-0.190	-0.330	-1.080
2020/01/31 17:00:26.2	357.810	-0.140	-0.290	-1.030
2020/01/31 17:00:26.3	357.830	-0.090	-0.250	-0.970
2020/01/31 17:00:26.4	357.850	-0.050	-0.210	-0.910
2020/01/31 17:00:26.5	357.870	0.000	-0.180	-0.850
2020/01/31 17:00:26.6	357.880	0.050	-0.150	-0.790
2020/01/31 17:00:26.7	357.900	0.100	-0.120	-0.730
2020/01/31 17:00:26.8	357.920	0.150	-0.100	-0.660
2020/01/31 17:00:26.9	357.930	0.200	-0.080	-0.590
2020/01/31 17:00:27.0	357.940	0.250	-0.060	-0.530
2020/01/31 17:00:27.1	357.940	0.300	-0.040	-0.470
2020/01/31 17:00:27.2	357.950	0.350	-0.030	-0.400
2020/01/31 17:00:27.3	357.950	0.390	-0.020	-0.340
2020/01/31 17:00:27.4	357.950	0.440	-0.010	-0.280
2020/01/31 17:00:27.5	357.950	0.480	-0.010	-0.210
2020/01/31 17:00:27.6	357.940	0.520	-0.000	-0.150
2020/01/31 17:00:27.7	357.930	0.550	-0.000	-0.080
2020/01/31 17:00:27.8	357.920	0.590	0.000	-0.010
2020/01/31 17:00:27.9	357.900	0.620	0.000	0.060
2020/01/31 17:00:28.0	357.880	0.640	0.010	0.120
2020/01/31 17:00:28.1	357.850	0.670	0.010	0.190
2020/01/31 17:00:28.2	357.810	0.680	0.010	0.260
2020/01/31 17:00:28.3	357.780	0.700	0.020	0.320
2020/01/31 17:00:28.4	357.730	0.710	0.030	0.390
2020/01/31 17:00:28.5	357.690	0.710	0.040	0.460
2020/01/31 17:00:28.6	357.640	0.710	0.050	0.520
2020/01/31 17:00:28.7	357.590	0.710	0.060	0.580
2020/01/31 17:00:28.8	357.540	0.700	0.070	0.630
2020/01/31 17:00:28.9	357.480	0.690	0.090	0.680
2020/01/31 17:00:29.0	357.430	0.670	0.100	0.730
2020/01/31 17:00:29.1	357.380	0.650	0.120	0.770
2020/01/31 17:00:29.2	357.320	0.620	0.130	0.800
2020/01/31 17:00:29.3	357.270	0.590	0.150	0.830
2020/01/31 17:00:29.4	357.210	0.560	0.170	0.850
2020/01/31 17:00:29.5	357.160	0.520	0.180	0.870
2020/01/31 17:00:29.6	357.110	0.490	0.200	0.870
2020/01/31 17:00:29.7	357.060	0.440	0.210	0.870
2020/01/31 17:00:29.8	357.020	0.400	0.210	0.860
2020/01/31 17:00:29.9	356.970	0.350	0.220	0.840
2020/01/31 17:00:30.0	356.930	0.310	0.230	0.820
2020/01/31 17:00:30.1	356.880	0.260	0.240	0.790
2020/01/31 17:00:30.2	356.840	0.210	0.240	0.760
2020/01/31 17:00:30.3	356.810	0.170	0.240	0.720
2020/01/31 17:00:30.4	356.770	0.120	0.240	0.680
2020/01/31 17:00:30.5	356.740	0.070	0.240	0.630
2020/01/31 17:00:30.6	356.700	0.030	0.230	0.580
2020/01/31 17:00:30.7	356.670	-0.010	0.220	0.530
2020/01/31 17:00:30.8	356.650	-0.050	0.210	0.470
2020/01/31 17:00:30.9	356.620	-0.090	0.190	0.410
2020/01/31 17:00:31.0	356.600	-0.130	0.170	0.350
2020/01/31 17:00:31.1	356.570	-0.160	0.150	0.290
2020/01/31 17:00:31.2	356.550	-0.190	0.120	0.230
2020/01/31 17:00:31.3	356.530	-0.220	0.090	0.160
2020/01/31 17:00:31.4	356.520	-0.240	0.050	0.100
2020/01/31 17:00:31.5	356.510	-0.270	0.020	0.030
2020/01/31 17:00:31.6	356.500	-0.280	-0.020	-0.040
2020/01/31 17:00:31.7	356.490	-0.300	-0.060	-0.120
2020/01/31 17:00:31.8	356.480	-0.310	-0.110	-0.190
2020/01/31 17:00:31.9	356.490	-0.320	-0.150	-0.270
2020/01/31 17:00:32.0	356.490	-0.320	-0.200	-0.340
2020/01/31 17:00:32.1	356.510	-0.330	-0.250	-0.420
2020/01/31 17:00:32.2	356.520	-0.320	-0.300	-0.500
2020/01/31 17:00:32.3	356.540	-0.320	-0.350	-0.580
2020/01/31 17:00:32.4	356.570	-0.310	-0.410	-0.660
2020/01/31 17:00:32.5	356.600	-0.300	-0.460	-0.730
2020/01/31 17:00:32.6	356.630	-0.290	-0.520	-0.810
2020/01/31 17:00:32.7	356.670	-0.280	-0.570	-0.890
2020/01/31 17:00:32.8	356.710	-0.260	-0.630	-0.960
2020/01/31 17:00:32.9	356.760	-0.240	-0.680	-1.030
2020/01/31 17:00:33.0	356.810	-0.220	-0.730	-1.100
2020/01/31 17:00:33.1	356.860	-0.200	-0.780	-1.160
2020/01/31 17:00:33.2	356.920	-0.180	-0.830	-1.220
2020/01/31 17:00:33.3	356.970	-0.160	-0.880	-1.280
2020/01/31 17:00:33.4	357.030	-0.140	-0.920	-1.330
2020/01/31 17:00:33.5	357.090	-0.120	-0.950	-1.380
2020/01/31 17:00:33.6	357.150	-0.100	-0.980	-1.420
2020/01/31 17:00:33.7	357.210	-0.080	-1.010	-1.460
2020/01/31 17:00:33.8	357.270	-0.070	-1.030	-1.490
2020/01/31 17:00:33.9	357.330	-0.050	-1.050	-1.510
2020/01/31 17:00:34.0	357.390	-0.040	-1.060	-1.540
2020/01/31 17:00:34.1	357.450	-0.030	-1.070	-1.560
2020/01/31 17:00:34.2	357.500	-0.020	-1.080	-1.570
2020/01/31 17:00:34.3	357.550	-0.010	-1.070	-1.590
2020/01/31 17:00:34.4	357.600	-0.010	-1.070	-1.590
2020/01/31 17:00:34.5	357.650	-0.010	-1.060	-1.600
2020/01/31 17:00:34.6	357.690	-0.010	-1.040	-1.600
2020/01/31 17:00:34.7	357.730	-0.010	-1.020	-1.590
2020/01/31 17:00:34.8	357.760	-0.020	-0.990	-1.580
2020/01/31 17:00:34.9	357.780	-0.030	-0.960	-1.560
2020/01/31 17:00:35.0	357.800	-0.040	-0.920	-1.540
2020/01/31 17:00:35.1	357.820	-0.060	-0.880	-1.510
2020/01/31 17:00:35.2	357.820	-0.080	-0.830	-1.480
2020/01/31 17:00:35.3	357.820	-0.100	-0.780	-1.440
2020/01/31 17:00:35.4	357.820	-0.120	-0.730	-1.400
2020/01/31 17:00:35.5	357.810	-0.140	-0.670	-1.360
2020/01/31 17:00:35.6	357.790	-0.170	-0.610	-1.310
2020/01/31 17:00:35.7	357.770	-0.200	-0.540	-1.250
2020/01/31 17:00:35.8	357.740	-0.220	-0.480	-1.190
2020/01/31 17:00:35.9	357.710	-0.250	-0.410	-1.130
2020/01/31 17:00:36.0	357.670	-0.280	-0.350	-1.070
2020/01/31 17:00:36.1	357.630	-0.300	-0.280	-1.010
2020/01/31 17:00:36.2	357.590	-0.330	-0.210	-0.940
2020/01/31 17:00:36.3	357.550	-0.360	-0.150	-0.880
2020/01/31 17:00:36.4	357.500	-0.380	-0.090	-0.820
2020/01/31 17:00:36.5	357.450	-0.400	-0.030	-0.750
2020/01/31 17:00:36.6	357.400	-0.420	0.030	-0.690
2020/01/31 17:00:36.7	357.350	-0.440	0.080	-0.630
2020/01/31 17:00:36.8	357.290	-0.450	0.130	-0.560
2020/01/31 17:00:36.9	357.240	-0.470	0.180	-0.510
2020/01/31 17:00:37.0	357.200	-0.470	0.210	-0.450
2020/01/31 17:00:37.1	357.160	-0.480	0.240	-0.400
2020/01/31 17:00:37.2	357.120	-0.480	0.270	-0.360
2020/01/31 17:00:37.3	357.090	-0.470	0.280	-0.320
2020/01/31 17:00:37.4	357.060	-0.470	0.290	-0.280
2020/01/31 17:00:37.5	357.030	-0.450	0.300	-0.250
2020/01/31 17:00:37.6	357.010	-0.430	0.290	-0.230
2020/01/31 17:00:37.7	356.990	-0.410	0.280	-0.200
2020/01/31 17:00:37.8	356.980	-0.380	0.260	-0.190
2020/01/31 17:00:37.9	356.970	-0.350	0.240	-0.170
2020/01/31 17:00:38.0	356.970	-0.310	0.210	-0.160
2020/01/31 17:00:38.1	356.960	-0.270	0.170	-0.150
2020/01/31 17:00:38.2	356.960	-0.230	0.140	-0.140
2020/01/31 17:00:38.3	356.960	-0.180	0.100	-0.130
2020/01/31 17:00:38.4	356.960	-0.130	0.050	-0.130
2020/01/31 17:00:38.5	356.960	-0.080	0.010	-0.120
2020/01/31 17:00:38.6	356.970	-0.020	-0.030	-0.120
2020/01/31 17:00:38.7	356.970	0.030	-0.070	-0.110
2020/01/31 17:00:38.8	356.980	0.090	-0.120	-0.100
2020/01/31 17:00:38.9	356.980	0.150	-0.150	-0.090
2020/01/31 17:00:39.0	356.980	0.210	-0.190	-0.070
2020/01/31 17:00:39.1	356.980	0.260	-0.220	-0.050
2020/01/31 17:00:39.2	356.980	0.320	-0.250	-0.030
2020/01/31 17:00:39.3	356.970	0.370	-0.270	-0.010
2020/01/31 17:00:39.4	356.970	0.430	-0.280	0.010
2020/01/31 17:00:39.5	356.960	0.480	-0.290	0.040
2020/01/31 17:00:39.6	356.950	0.520	-0.300	0.070
2020/01/31 17:00:39.7	356.930	0.570	-0.290	0.100
2020/01/31 17:00:39.8	356.910	0.610	-0.280	0.130
2020/01/31 17:00:39.9	356.900	0.640	-0.270	0.170
2020/01/31 17:00:40.0	356.870	0.670	-0.250	0.200
2020/01/31 17:00:40.1	356.850	0.700	-0.230	0.240
2020/01/31 17:00:40.2	356.820	0.720	-0.210	0.270
2020/01/31 17:00:40.3	356.800	0.740	-0.180	0.310
2020/01/31 17:00:40.4	356.770	0.750	-0.150	0.340
2020/01/31 17:00:40.5	356.740	0.760	-0.120	0.370
2020/01/31 17:00:40.6	356.710	0.760	-0.080	0.410
2020/01/31 17:00:40.7	356.690	0.750	-0.050	0.440
2020/01/31 17:00:40.8	356.650	0.740	-0.020	0.470
2020/01/31 17:00:40.9	356.630	0.730	0.010	0.490
2020/01/31 17:00:41.0	356.600	0.710	0.040	0.520
2020/01/31 17:00:41.1	356.580	0.680	0.060	0.530
2020/01/31 17:00:41.2	356.550	0.660	0.080	0.550
2020/01/31 17:00:41.3	356.530	0.620	0.100	0.560
2020/01/31 17:00:41.4	356.510	0.590	0.120	0.560
2020/01/31 17:00:41.5	356.490	0.550	0.130	0.560
2020/01/31 17:00:41.6	356.470	0.510	0.130	0.550
2020/01/31 17:00:41.7	356.460	0.460	0.140	0.540
2020/01/31 17:00:41.8	356.450	0.410	0.140	0.520
2020/01/31 17:00:41.9	356.440	0.370	0.130	0.490
2020/01/31 17:00:42.0	356.430	0.320	0.120	0.460
2020/01/31 17:00:42.1	356.420	0.260	0.110	0.430
2020/01/31 17:00:42.2	356.420	0.210	0.100	0.390
2020/01/31 17:00:42.3	356.420	0.160	0.080	0.350
2020/01/31 17:00:42.4	356.420	0.110	0.050	0.310
2020/01/31 17:00:42.5	356.420	0.060	0.030	0.260
2020/01/31 17:00:42.6	356.420	0.010	0.000	0.210
2020/01/31 17:00:42.7	356.430	-0.040	-0.030	0.160
2020/01/31 17:00:42.8	356.450	-0.090	-0.060	0.110
2020/01/31 17:00:42.9	356.450	-0.130	-0.090	0.050
2020/01/31 17:00:43.0	356.460	-0.180	-0.120	0.000
2020/01/31 17:00:43.1	356.470	-0.220	-0.160	-0.050
2020/01/31 17:00:43.2	356.480	-0.260	-0.190	-0.110
2020/01/31 17:00:43.3	356.490	-0.300	-0.220	-0.160
2020/01/31 17:00:43.4	356.500	-0.330	-0.250	-0.220
2020/01/31 17:00:43.5	356.510	-0.370	-0.280	-0.270
2020/01/31 17:00:43.6	356.520	-0.400	-0.310	-0.330
2020/01/31 17:00:43.7	356.530	-0.430	-0.340	-0.380
2020/01/31 17:00:43.8	356.540	-0.460	-0.370	-0.430
2020/01/31 17:00:43.9	356.560	-0.480	-0.400	-0.490
2020/01/31 17:00:44.0	356.570	-0.500	-0.420	-0.540
2020/01/31 17:00:44.1	356.580	-0.520	-0.450	-0.590
2020/01/31 17:00:44.2	356.590	-0.540	-0.470	-0.650
2020/01/31 17:00:44.3	356.600	-0.550	-0.490	-0.700
2020/01/31 17:00:44.4	356.610	-0.570	-0.510	-0.750
2020/01/31 17:00:44.5	356.630	-0.570	-0.540	-0.790
2020/01/31 17:00:44.6	356.640	-0.580	-0.560	-0.840
2020/01/31 17:00:44.7	356.650	-0.580	-0.570	-0.890
2020/01/31 17:00:44.8	356.650	-0.580	-0.590	-0.930
2020/01/31 17:00:44.9	356.670	-0.580	-0.610	-0.970
2020/01/31 17:00:45.0	356.680	-0.570	-0.630	-1.010
2020/01/31 17:00:45.1	356.700	-0.570	-0.650	-1.050
2020/01/31 17:00:45.2	356.710	-0.550	-0.670	-1.080
2020/01/31 17:00:45.3	356.730	-0.540	-0.690	-1.110
2020/01/31 17:00:45.4	356.750	-0.520	-0.710	-1.140
2020/01/31 17:00:45.5	356.770	-0.500	-0.730	-1.160
2020/01/31 17:00:45.6	356.800	-0.470	-0.740	-1.180
2020/01/31 17:00:45.7	356.830	-0.450	-0.760	-1.200
2020/01/31 17:00:45.8	356.860	-0.420	-0.790	-1.220
2020/01/31 17:00:45.9	356.890	-0.380	-0.800	-1.230
2020/01/31 17:00:46.0	356.920	-0.350	-0.820	-1.240
2020/01/31 17:00:46.1	356.960	-0.310	-0.840	-1.250
2020/01/31 17:00:46.2	356.990	-0.270	-0.850	-1.260
2020/01/31 17:00:46.3	357.030	-0.230	-0.870	-1.260
2020/01/31 17:00:46.4	357.070	-0.190	-0.880	-1.260
2020/01/31 17:00:46.5	357.120	-0.140	-0.890	-1.250
2020/01/31 17:00:46.6	357.160	-0.100	-0.900	-1.240
2020/01/31 17:00:46.7	357.200	-0.050	-0.900	-1.230
2020/01/31 17:00:46.8	357.250	-0.010	-0.900	-1.210
2020/01/31 17:00:46.9	357.290	0.030	-0.900	-1.200
2020/01/31 17:00:47.0	357.330	0.080	-0.890	-1.180
2020/01/31 17:00:47.1	357.370	0.120	-0.880	-1.150
2020/01/31 17:00:47.2	357.400	0.160	-0.860	-1.130
2020/01/31 17:00:47.3	357.440	0.200	-0.840	-1.100
2020/01/31 17:00:47.4	357.470	0.240	-0.810	-1.070
2020/01/31 17:00:47.5	357.500	0.280	-0.780	-1.030
2020/01/31 17:00:47.6	357.520	0.310	-0.740	-1.000
2020/01/31 17:00:47.7	357.540	0.340	-0.700	-0.960
2020/01/31 17:00:47.8	357.560	0.370	-0.660	-0.910
2020/01/31 17:00:47.9	357.570	0.400	-0.600	-0.860
2020/01/31 17:00:48.0	357.580	0.420	-0.550	-0.800
2020/01/31 17:00:48.1	357.580	0.440	-0.480	-0.740
2020/01/31 17:00:48.2	357.580	0.460	-0.420	-0.680
2020/01/31 17:00:48.3	357.580	0.470	-0.340	-0.620
2020/01/31 17:00:48.4	357.570	0.480	-0.270	-0.550
2020/01/31 17:00:48.5	357.550	0.480	-0.190	-0.480
2020/01/31 17:00:48.6	357.540	0.490	-0.110	-0.410
2020/01/31 17:00:48.7	357.510	0.480	-0.030	-0.330
2020/01/31 17:00:48.8	357.490	0.480	0.040	-0.250
2020/01/31 17:00:48.9	357.460	0.470	0.120	-0.180
2020/01/31 17:00:49.0	357.430	0.450	0.200	-0.110
2020/01/31 17:00:49.1	357.410	0.440	0.280	-0.030
2020/01/31 17:00:49.2	357.370	0.420	0.350	0.030
2020/01/31 17:00:49.3	357.340	0.400	0.410	0.100
2020/01/31 17:00:49.4	357.310	0.370	0.480	0.160
2020/01/31 17:00:49.5	357.280	0.340	0.530	0.220
2020/01/31 17:00:49.6	357.250	0.310	0.580	0.270
2020/01/31 17:00:49.7	357.210	0.280	0.620	0.320
2020/01/31 17:00:49.8	357.180	0.240	0.660	0.370
2020/01/31 17:00:49.9	357.150	0.210	0.690	0.410
2020/01/31 17:00:50.0	357.120	0.170	0.710	0.440
2020/01/31 17:00:50.1	357.090	0.130	0.720	0.470
2020/01/31 17:00:50.2	357.060	0.090	0.720	0.500
2020/01/31 17:00:50.3	357.020	0.060	0.710	0.520
2020/01/31 17:00:50.4	356.990	0.020	0.700	0.530
2020/01/31 17:00:50.5	356.960	-0.020	0.670	0.540
2020/01/31 17:00:50.6	356.930	-0.050	0.650	0.540
2020/01/31 17:00:50.7	356.890	-0.090	0.610	0.540
2020/01/31 17:00:50.8	356.870	-0.120	0.560	0.530
2020/01/31 17:00:50.9	356.830	-0.150	0.510	0.520
2020/01/31 17:00:51.0	356.800	-0.180	0.460	0.500
2020/01/31 17:00:51.1	356.770	-0.200	0.400	0.480
2020/01/31 17:00:51.2	356.740	-0.230	0.330	0.460
2020/01/31 17:00:51.3	356.710	-0.250	0.270	0.440
2020/01/31 17:00:51.4	356.690	-0.260	0.200	0.410
2020/01/31 17:00:51.5	356.660	-0.270	0.130	0.380
2020/01/31 17:00:51.6	356.630	-0.280	0.060	0.350
2020/01/31 17:00:51.7	356.610	-0.280	-0.020	0.320
2020/01/31 17:00:51.8	356.580	-0.280	-0.080	0.290
2020/01/31 17:00:51.9	356.560	-0.280	-0.160	0.250
2020/01/31 17:00:52.0	356.540	-0.270	-0.230	0.220
2020/01/31 17:00:52.1	356.530	-0.260	-0.300	0.180
2020/01/31 17:00:52.2	356.510	-0.250	-0.360	0.140
2020/01/31 17:00:52.3	356.500	-0.230	-0.430	0.100
2020/01/31 17:00:52.4	356.500	-0.210	-0.490	0.060
2020/01/31 17:00:52.5	356.490	-0.180	-0.550	0.020
2020/01/31 17:00:52.6	356.490	-0.160	-0.610	-0.020
2020/01/31 17:00:52.7	356.500	-0.130	-0.660	-0.060
2020/01/31 17:00:52.8	356.510	-0.100	-0.710	-0.100
2020/01/31 17:00:52.9	356.520	-0.060	-0.760	-0.140
2020/01/31 17:00:53.0	356.530	-0.030	-0.800	-0.180
2020/01/31 17:00:53.1	356.550	0.000	-0.840	-0.220
2020/01/31 17:00:53.2	356.570	0.040	-0.870	-0.260
2020/01/31 17:00:53.3	356.590	0.070	-0.890	-0.300
2020/01/31 17:00:53.4	356.620	0.110	-0.910	-0.340
2020/01/31 17:00:53.5	356.640	0.140	-0.930	-0.370
2020/01/31 17:00:53.6	356.670	0.170	-0.940	-0.410
2020/01/31 17:00:53.7	356.700	0.200	-0.950	-0.440
2020/01/31 17:00:53.8	356.730	0.230	-0.940	-0.470
2020/01/31 17:00:53.9	356.760	0.250	-0.940	-0.500
2020/01/31 17:00:54.0	356.790	0.280	-0.930	-0.520
2020/01/31 17:00:54.1	356.820	0.290	-0.910	-0.540
2020/01/31 17:00:54.2	356.840	0.310	-0.890	-0.560
2020/01/31 17:00:54.3	356.870	0.320	-0.870	-0.580
2020/01/31 17:00:54.4	356.890	0.330	-0.840	-0.590
2020/01/31 17:00:54.5	356.920	0.340	-0.800	-0.600
2020/01/31 17:00:54.6	356.940	0.340	-0.770	-0.610
2020/01/31 17:00:54.7	356.960	0.340	-0.730	-0.610
2020/01/31 17:00:54.8	356.970	0.340	-0.690	-0.610
2020/01/31 17:00:54.9	356.990	0.330	-0.640	-0.610
2020/01/31 17:00:55.0	357.000	0.320	-0.600	-0.600
2020/01/31 17:00:55.1	357.020	0.310	-0.550	-0.590
2020/01/31 17:00:55.2	357.030	0.290	-0.500	-0.580
2020/01/31 17:00:55.3	357.040	0.270	-0.450	-0.560
2020/01/31 17:00:55.4	357.050	0.250	-0.400	-0.550
2020/01/31 17:00:55.5	357.060	0.220	-0.350	-0.530
2020/01/31 17:00:55.6	357.060	0.200	-0.310	-0.520
2020/01/31 17:00:55.7	357.070	0.170	-0.260	-0.500
2020/01/31 17:00:55.8	357.070	0.140	-0.220	-0.480
2020/01/31 17:00:55.9	357.080	0.110	-0.180	-0.470
2020/01/31 17:00:56.0	357.090	0.080	-0.140	-0.460
2020/01/31 17:00:56.1	357.090	0.050	-0.110	-0.450
2020/01/31 17:00:56.2	357.100	0.020	-0.080	-0.440
2020/01/31 17:00:56.3	357.110	-0.010	-0.050	-0.430
2020/01/31 17:00:56.4	357.110	-0.040	-0.030	-0.430
2020/01/31 17:00:56.5	357.120	-0.070	-0.010	-0.430
2020/01/31 17:00:56.6	357.130	-0.100	0.010	-0.430
2020/01/31 17:00:56.7	357.130	-0.130	0.020	-0.430
2020/01/31 17:00:56.8	357.140	-0.150	0.030	-0.430
2020/01/31 17:00:56.9	357.150	-0.170	0.040	-0.440
2020/01/31 17:00:57.0	357.150	-0.190	0.040	-0.440
2020/01/31 17:00:57.1	357.160	-0.210	0.040	-0.450
2020/01/31 17:00:57.2	357.160	-0.230	0.040	-0.450
2020/01/31 17:00:57.3	357.170	-0.250	0.040	-0.460
2020/01/31 17:00:57.4	357.170	-0.260	0.030	-0.460
2020/01/31 17:00:57.5	357.170	-0.280	0.020	-0.470
2020/01/31 17:00:57.6	357.180	-0.290	0.010	-0.480
2020/01/31 17:00:57.7	357.180	-0.300	-0.000	-0.490
2020/01/31 17:00:57.8	357.190	-0.310	-0.020	-0.500
2020/01/31 17:00:57.9	357.190	-0.320	-0.030	-0.510
2020/01/31 17:00:58.0	357.200	-0.320	-0.040	-0.520
2020/01/31 17:00:58.1	357.200	-0.330	-0.060	-0.530
2020/01/31 17:00:58.2	357.200	-0.330	-0.080	-0.540
2020/01/31 17:00:58.3	357.210	-0.330	-0.090	-0.560
2020/01/31 17:00:58.4	357.210	-0.330	-0.110	-0.570
2020/01/31 17:00:58.5	357.220	-0.330	-0.120	-0.580
2020/01/31 17:00:58.6	357.220	-0.330	-0.130	-0.590
2020/01/31 17:00:58.7	357.230	-0.320	-0.140	-0.610
2020/01/31 17:00:58.8	357.230	-0.320	-0.150	-0.610
2020/01/31 17:00:58.9	357.240	-0.310	-0.160	-0.620
2020/01/31 17:00:59.0	357.250	-0.300	-0.170	-0.630
2020/01/31 17:00:59.1	357.250	-0.290	-0.170	-0.640
2020/01/31 17:00:59.2	357.260	-0.290	-0.170	-0.650
2020/01/31 17:00:59.3	357.260	-0.280	-0.170	-0.650
2020/01/31 17:00:59.4	357.260	-0.270	-0.170	-0.650
2020/01/31 17:00:59.5	357.260	-0.250	-0.160	-0.650
2020/01/31 17:00:59.6	357.260	-0.240	-0.160	-0.650
2020/01/31 17:00:59.7	357.260	-0.230	-0.150	-0.640
2020/01/31 17:00:59.8	357.250	-0.220	-0.130	-0.640
2020/01/31 17:00:59.9	357.240	-0.210	-0.120	-0.620
2020/01/31 17:01:00.0	357.230	-0.190	-0.100	-0.610
2020/01/31 17:01:00.1	357.210	-0.180	-0.090	-0.590
2020/01/31 17:01:00.2	357.200	-0.160	-0.070	-0.570
2020/01/31 17:01:00.3	357.180	-0.150	-0.050	-0.550
2020/01/31 17:01:00.4	357.150	-0.130	-0.030	-0.520
2020/01/31 17:01:00.5	357.130	-0.120	-0.010	-0.490
2020/01/31 17:01:00.6	357.100	-0.100	0.010	-0.450
2020/01/31 17:01:00.7	357.060	-0.080	0.030	-0.420
2020/01/31 17:01:00.8	357.020	-0.060	0.040	-0.370
2020/01/31 17:01:00.9	356.980	-0.040	0.060	-0.320
2020/01/31 17:01:01.0	356.940	-0.020	0.080	-0.270
2020/01/31 17:01:01.1	356.900	-0.000	0.090	-0.220
2020/01/31 17:01:01.2	356.850	0.020	0.100	-0.170
2020/01/31 17:01:01.3	356.810	0.040	0.110	-0.110
2020/01/31 17:01:01.4	356.760	0.070	0.110	-0.060
2020/01/31 17:01:01.5	356.710	0.090	0.120	-0.000
2020/01/31 17:01:01.6	356.660	0.120	0.110	0.050
2020/01/31 17:01:01.7	356.620	0.140	0.110	0.110
2020/01/31 17:01:01.8	356.560	0.170	0.100	0.160
2020/01/31 17:01:01.9	356.520	0.200	0.080	0.220
2020/01/31 17:01:02.0	356.480	0.220	0.060	0.260
2020/01/31 17:01:02.1	356.440	0.250	0.030	0.310
2020/01/31 17:01:02.2	356.410	0.280	-0.000	0.340
2020/01/31 17:01:02.3	356.380	0.310	-0.040	0.380
2020/01/31 17:01:02.4	356.350	0.340	-0.080	0.400
2020/01/31 17:01:02.5	356.330	0.360	-0.130	0.430
2020/01/31 17:01:02.6	356.310	0.390	-0.180	0.440
2020/01/31 17:01:02.7	356.290	0.420	-0.240	0.450
2020/01/31 17:01:02.8	356.290	0.440	-0.290	0.450
2020/01/31 17:01:02.9	356.280	0.460	-0.360	0.450
2020/01/31 17:01:03.0	356.270	0.490	-0.420	0.440
2020/01/31 17:01:03.1	356.270	0.510	-0.480	0.420
2020/01/31 17:01:03.2	356.270	0.520	-0.550	0.400
2020/01/31 17:01:03.3	356.270	0.540	-0.610	0.370
2020/01/31 17:01:03.4	356.270	0.560	-0.680	0.340
2020/01/31 17:01:03.5	356.280	0.570	-0.740	0.310
2020/01/31 17:01:03.6	356.290	0.580	-0.800	0.270
2020/01/31 17:01:03.7	356.300	0.580	-0.850	0.230
2020/01/31 17:01:03.8	356.310	0.590	-0.900	0.180
2020/01/31 17:01:03.9	356.320	0.580	-0.950	0.140
2020/01/31 17:01:04.0	356.340	0.580	-0.980	0.090
2020/01/31 17:01:04.1	356.360	0.570	-1.020	0.040
2020/01/31 17:01:04.2	356.370	0.560	-1.040	-0.000
2020/01/31 17:01:04.3	356.390	0.550	-1.060	-0.050
2020/01/31 17:01:04.4	356.410	0.530	-1.070	-0.100
2020/01/31 17:01:04.5	356.430	0.510	-1.070	-0.140
2020/01/31 17:01:04.6	356.450	0.490	-1.060	-0.190
2020/01/31 17:01:04.7	356.470	0.460	-1.050	-0.230
2020/01/31 17:01:04.8	356.480	0.430	-1.030	-0.270
2020/01/31 17:01:04.9	356.490	0.400	-1.000	-0.310
2020/01/31 17:01:05.0	356.510	0.360	-0.960	-0.350
2020/01/31 17:01:05.1	356.530	0.320	-0.910	-0.380
2020/01/31 17:01:05.2	356.540	0.280	-0.860	-0.420
2020/01/31 17:01:05.3	356.560	0.230	-0.810	-0.450
2020/01/31 17:01:05.4	356.570	0.180	-0.750	-0.480
2020/01/31 17:01:05.5	356.590	0.140	-0.690	-0.510
2020/01/31 17:01:05.6	356.600	0.090	-0.620	-0.530
2020/01/31 17:01:05.7	356.620	0.040	-0.560	-0.560
2020/01/31 17:01:05.8	356.640	-0.010	-0.500	-0.580
2020/01/31 17:01:05.9	356.650	-0.060	-0.430	-0.600
2020/01/31 17:01:06.0	356.670	-0.110	-0.370	-0.620
2020/01/31 17:01:06.1	356.680	-0.160	-0.310	-0.630
2020/01/31 17:01:06.2	356.700	-0.210	-0.250	-0.650
2020/01/31 17:01:06.3	356.710	-0.260	-0.190	-0.670
2020/01/31 17:01:06.4	356.730	-0.300	-0.140	-0.680
2020/01/31 17:01:06.5	356.750	-0.350	-0.100	-0.700
2020/01/31 17:01:06.6	356.770	-0.390	-0.060	-0.710
2020/01/31 17:01:06.7	356.790	-0.430	-0.030	-0.730
2020/01/31 17:01:06.8	356.810	-0.460	-0.000	-0.750
2020/01/31 17:01:06.9	356.830	-0.490	0.020	-0.760
2020/01/31 17:01:07.0	356.850	-0.520	0.030	-0.780
2020/01/31 17:01:07.1	356.880	-0.540	0.040	-0.800
2020/01/31 17:01:07.2	356.900	-0.560	0.040	-0.820
2020/01/31 17:01:07.3	356.930	-0.580	0.040	-0.840
2020/01/31 17:01:07.4	356.960	-0.590	0.030	-0.860
2020/01/31 17:01:07.5	356.990	-0.600	0.020	-0.880
2020/01/31 17:01:07.6	357.020	-0.610	-0.000	-0.890
2020/01/31 17:01:07.7	357.050	-0.610	-0.020	-0.910
2020/01/31 17:01:07.8	357.090	-0.600	-0.050	-0.930
2020/01/31 17:01:07.9	357.120	-0.600	-0.070	-0.940
2020/01/31 17:01:08.0	357.160	-0.590	-0.100	-0.960
2020/01/31 17:01:08.1	357.190	-0.570	-0.130	-0.970
2020/01/31 17:01:08.2	357.230	-0.560	-0.150	-0.970
2020/01/31 17:01:08.3	357.260	-0.540	-0.180	-0.980
2020/01/31 17:01:08.4	357.290	-0.520	-0.200	-0.970
2020/01/31 17:01:08.5	357.320	-0.500	-0.220	-0.970
2020/01/31 17:01:08.6	357.340	-0.470	-0.230	-0.960
2020/01/31 17:01:08.7	357.360	-0.450	-0.240	-0.940
2020/01/31 17:01:08.8	357.380	-0.420	-0.250	-0.910
2020/01/31 17:01:08.9	357.390	-0.400	-0.250	-0.880
2020/01/31 17:01:09.0	357.400	-0.370	-0.240	-0.840
2020/01/31 17:01:09.1	357.400	-0.350	-0.230	-0.800
2020/01/31 17:01:09.2	357.400	-0.320	-0.210	-0.750
2020/01/31 17:01:09.3	357.390	-0.300	-0.190	-0.690
2020/01/31 17:01:09.4	357.380	-0.280	-0.150	-0.630
2020/01/31 17:01:09.5	357.360	-0.260	-0.120	-0.570
2020/01/31 17:01:09.6	357.330	-0.240	-0.070	-0.500
2020/01/31 17:01:09.7	357.300	-0.220	-0.020	-0.440
2020/01/31 17:01:09.8	357.270	-0.200	0.030	-0.360
2020/01/31 17:01:09.9	357.230	-0.190	0.090	-0.290
2020/01/31 17:01:10.0	357.190	-0.180	0.150	-0.220
2020/01/31 17:01:10.1	357.140	-0.170	0.210	-0.140
2020/01/31 17:01:10.2	357.100	-0.160	0.270	-0.070
2020/01/31 17:01:10.3	357.040	-0.150	0.330	0.010
2020/01/31 17:01:10.4	356.990	-0.140	0.390	0.080
2020/01/31 17:01:10.5	356.930	-0.140	0.450	0.150
2020/01/31 17:01:10.6	356.880	-0.140	0.510	0.220
2020/01/31 17:01:10.7	356.820	-0.130	0.560	0.280
2020/01/31 17:01:10.8	356.770	-0.130	0.600	0.340
2020/01/31 17:01:10.9	356.710	-0.130	0.640	0.400
2020/01/31 17:01:11.0	356.660	-0.130	0.680	0.450
2020/01/31 17:01:11.1	356.610	-0.130	0.700	0.500
2020/01/31 17:01:11.2	356.560	-0.120	0.720	0.530
2020/01/31 17:01:11.3	356.510	-0.120	0.730	0.570
2020/01/31 17:01:11.4	356.470	-0.110	0.720	0.590
2020/01/31 17:01:11.5	356.440	-0.100	0.710	0.600
2020/01/31 17:01:11.6	356.400	-0.080	0.690	0.610
2020/01/31 17:01:11.7	356.370	-0.070	0.660	0.620
2020/01/31 17:01:11.8	356.350	-0.050	0.620	0.620
2020/01/31 17:01:11.9	356.330	-0.030	0.560	0.610
2020/01/31 17:01:12.0	356.310	-0.000	0.500	0.600
2020/01/31 17:01:12.1	356.290	0.020	0.430	0.580
2020/01/31 17:01:12.2	356.280	0.050	0.350	0.560
2020/01/31 17:01:12.3	356.270	0.090	0.270	0.540
2020/01/31 17:01:12.4	356.250	0.130	0.180	0.520
2020/01/31 17:01:12.5	356.240	0.160	0.090	0.490
2020/01/31 17:01:12.6	356.230	0.210	-0.010	0.470
2020/01/31 17:01:12.7	356.220	0.250	-0.110	0.440
2020/01/31 17:01:12.8	356.200	0.290	-0.210	0.410
2020/01/31 17:01:12.9	356.190	0.340	-0.310	0.380
2020/01/31 17:01:13.0	356.190	0.380	-0.400	0.350
2020/01/31 17:01:13.1	356.180	0.430	-0.500	0.320
2020/01/31 17:01:13.2	356.170	0.480	-0.590	0.290
2020/01/31 17:01:13.3	356.170	0.520	-0.680	0.260
2020/01/31 17:01:13.4	356.160	0.570	-0.770	0.230
2020/01/31 17:01:13.5	356.160	0.610	-0.850	0.200
2020/01/31 17:01:13.6	356.160	0.650	-0.920	0.170
2020/01/31 17:01:13.7	356.160	0.690	-0.990	0.140
2020/01/31 17:01:13.8	356.160	0.730	-1.050	0.110
2020/01/31 17:01:13.9	356.160	0.760	-1.110	0.080
2020/01/31 17:01:14.0	356.160	0.790	-1.160	0.050
2020/01/31 17:01:14.1	356.170	0.820	-1.210	0.020
2020/01/31 17:01:14.2	356.180	0.840	-1.250	-0.000
2020/01/31 17:01:14.3	356.190	0.860	-1.280	-0.030
2020/01/31 17:01:14.4	356.200	0.870	-1.310	-0.060
2020/01/31 17:01:14.5	356.210	0.880	-1.330	-0.080
2020/01/31 17:01:14.6	356.220	0.890	-1.340	-0.110
2020/01/31 17:01:14.7	356.230	0.890	-1.350	-0.140
2020/01/31 17:01:14.8	356.240	0.880	-1.350	-0.160
2020/01/31 17:01:14.9	356.260	0.870	-1.350	-0.180
2020/01/31 17:01:15.0	356.270	0.860	-1.340	-0.210
2020/01/31 17:01:15.1	356.290	0.830	-1.320	-0.230
2020/01/31 17:01:15.2	356.300	0.810	-1.290	-0.260
2020/01/31 17:01:15.3	356.310	0.780	-1.260	-0.290
2020/01/31 17:01:15.4	356.320	0.740	-1.220	-0.310
2020/01/31 17:01:15.5	356.340	0.700	-1.180	-0.340
2020/01/31 17:01:15.6	356.350	0.650	-1.130	-0.360
2020/01/31 17:01:15.7	356.360	0.600	-1.080	-0.390
2020/01/31 17:01:15.8	356.370	0.550	-1.020	-0.420
2020/01/31 17:01:15.9	356.390	0.490	-0.960	-0.450
2020/01/31 17:01:16.0	356.400	0.430	-0.890	-0.480
2020/01/31 17:01:16.1	356.410	0.370	-0.820	-0.500
2020/01/31 17:01:16.2	356.420	0.300	-0.750	-0.530
2020/01/31 17:01:16.3	356.430	0.230	-0.680	-0.560
2020/01/31 17:01:16.4	356.450	0.170	-0.610	-0.590
2020/01/31 17:01:16.5	356.460	0.100	-0.540	-0.610
2020/01/31 17:01:16.6	356.470	0.030	-0.470	-0.640
2020/01/31 17:01:16.7	356.490	-0.040	-0.400	-0.670
2020/01/31 17:01:16.8	356.510	-0.110	-0.330	-0.690
2020/01/31 17:01:16.9	356.530	-0.180	-0.260	-0.720
2020/01/31 17:01:17.0	356.550	-0.250	-0.200	-0.750
2020/01/31 17:01:17.1	356.570	-0.310	-0.140	-0.770
2020/01/31 17:01:17.2	356.600	-0.380	-0.080	-0.800
2020/01/31 17:01:17.3	356.620	-0.440	-0.030	-0.830
2020/01/31 17:01:17.4	356.650	-0.490	0.020	-0.850
2020/01/31 17:01:17.5	356.680	-0.550	0.060	-0.880
2020/01/31 17:01:17.6	356.700	-0.600	0.100	-0.910
2020/01/31 17:01:17.7	356.730	-0.650	0.140	-0.940
2020/01/31 17:01:17.8	356.760	-0.690	0.170	-0.960
2020/01/31 17:01:17.9	356.790	-0.730	0.200	-0.990
2020/01/31 17:01:18.0	356.810	-0.770	0.220	-1.010
2020/01/31 17:01:18.1	356.840	-0.800	0.240	-1.040
2020/01/31 17:01:18.2	356.870	-0.830	0.260	-1.060
2020/01/31 17:01:18.3	356.890	-0.850	0.280	-1.080
2020/01/31 17:01:18.4	356.910	-0.870	0.290	-1.090
2020/01/31 17:01:18.5	356.930	-0.890	0.300	-1.100
2020/01/31 17:01:18.6	356.950	-0.900	0.300	-1.110
2020/01/31 17:01:18.7	356.970	-0.910	0.310	-1.120
2020/01/31 17:01:18.8	356.980	-0.910	0.310	-1.120
2020/01/31 17:01:18.9	356.990	-0.910	0.320	-1.110
2020/01/31 17:01:19.0	357.000	-0.900	0.320	-1.110
2020/01/31 17:01:19.1	357.010	-0.890	0.310	-1.100
2020/01/31 17:01:19.2	357.020	-0.880	0.310	-1.080
2020/01/31 17:01:19.3	357.020	-0.860	0.310	-1.070
2020/01/31 17:01:19.4	357.020	-0.840	0.300	-1.040
2020/01/31 17:01:19.5	357.020	-0.810	0.290	-1.020
2020/01/31 17:01:19.6	357.020	-0.780	0.280	-0.990
2020/01/31 17:01:19.7	357.020	-0.750	0.270	-0.950
2020/01/31 17:01:19.8	357.010	-0.720	0.260	-0.910
2020/01/31 17:01:19.9	357.000	-0.680	0.250	-0.870
2020/01/31 17:01:20.0	356.990	-0.640	0.230	-0.830
2020/01/31 17:01:20.1	356.980	-0.600	0.210	-0.780
2020/01/31 17:01:20.2	356.970	-0.560	0.200	-0.740
2020/01/31 17:01:20.3	356.960	-0.510	0.180	-0.690
2020/01/31 17:01:20.4	356.950	-0.470	0.150	-0.640
2020/01/31 17:01:20.5	356.940	-0.420	0.130	-0.600
2020/01/31 17:01:20.6	356.930	-0.370	0.110	-0.550
2020/01/31 17:01:20.7	356.920	-0.320	0.080	-0.500
2020/01/31 17:01:20.8	356.910	-0.270	0.060	-0.450
2020/01/31 17:01:20.9	356.890	-0.220	0.030	-0.410
2020/01/31 17:01:21.0	356.880	-0.170	0.000	-0.360
2020/01/31 17:01:21.1	356.870	-0.120	-0.030	-0.320
2020/01/31 17:01:21.2	356.860	-0.070	-0.060	-0.280
2020/01/31 17:01:21.3	356.850	-0.020	-0.090	-0.230
2020/01/31 17:01:21.4	356.840	0.040	-0.120	-0.190
2020/01/31 17:01:21.5	356.830	0.080	-0.150	-0.150
2020/01/31 17:01:21.6	356.820	0.130	-0.170	-0.110
2020/01/31 17:01:21.7	356.810	0.180	-0.200	-0.070
2020/01/31 17:01:21.8	356.780	0.220	-0.230	-0.020
2020/01/31 17:01:21.9	356.770	0.270	-0.250	0.020
2020/01/31 17:01:22.0	356.750	0.310	-0.270	0.060
2020/01/31 17:01:22.1	356.720	0.340	-0.290	0.100
2020/01/31 17:01:22.2	356.700	0.380	-0.310	0.140
2020/01/31 17:01:22.3	356.670	0.410	-0.320	0.170
2020/01/31 17:01:22.4	356.640	0.430	-0.330	0.200
2020/01/31 17:01:22.5	356.610	0.460	-0.340	0.240
2020/01/31 17:01:22.6	356.570	0.470	-0.350	0.260
2020/01/31 17:01:22.7	356.530	0.490	-0.350	0.290
2020/01/31 17:01:22.8	356.490	0.500	-0.350	0.310
2020/01/31 17:01:22.9	356.450	0.500	-0.350	0.330
2020/01/31 17:01:23.0	356.410	0.500	-0.350	0.340
2020/01/31 17:01:23.1	356.360	0.500	-0.340	0.350
2020/01/31 17:01:23.2	356.320	0.490	-0.340	0.360
2020/01/31 17:01:23.3	356.270	0.480	-0.330	0.360
2020/01/31 17:01:23.4	356.230	0.470	-0.330	0.350
2020/01/31 17:01:23.5	356.190	0.450	-0.320	0.340
2020/01/31 17:01:23.6	356.140	0.430	-0.320	0.330
2020/01/31 17:01:23.7	356.100	0.400	-0.310	0.310
2020/01/31 17:01:23.8	356.070	0.380	-0.310	0.290
2020/01/31 17:01:23.9	356.030	0.350	-0.310	0.270
2020/01/31 17:01:24.0	355.990	0.320	-0.310	0.240
2020/01/31 17:01:24.1	355.960	0.290	-0.310	0.210
2020/01/31 17:01:24.2	355.930	0.260	-0.310	0.170
2020/01/31 17:01:24.3	355.910	0.230	-0.320	0.130
2020/01/31 17:01:24.4	355.890	0.200	-0.320	0.090
2020/01/31 17:01:24.5	355.870	0.170	-0.330	0.050
2020/01/31 17:01:24.6	355.860	0.150	-0.340	0.000
2020/01/31 17:01:24.7	355.850	0.130	-0.350	-0.050
2020/01/31 17:01:24.8	355.850	0.100	-0.360	-0.100
2020/01/31 17:01:24.9	355.850	0.090	-0.380	-0.150
2020/01/31 17:01:25.0	355.850	0.070	-0.390	-0.200
2020/01/31 17:01:25.1	355.850	0.060	-0.410	-0.250
2020/01/31 17:01:25.2	355.860	0.050	-0.430	-0.300
2020/01/31 17:01:25.3	355.870	0.050	-0.450	-0.350
2020/01/31 17:01:25.4	355.880	0.050	-0.470	-0.390
2020/01/31 17:01:25.5	355.900	0.050	-0.490	-0.440
2020/01/31 17:01:25.6	355.910	0.050	-0.510	-0.480
2020/01/31 17:01:25.7	355.940	0.060	-0.520	-0.520
2020/01/31 17:01:25.8	355.970	0.070	-0.540	-0.560
2020/01/31 17:01:25.9	355.990	0.090	-0.560	-0.600
2020/01/31 17:01:26.0	356.020	0.100	-0.570	-0.630
2020/01/31 17:01:26.1	356.050	0.120	-0.580	-0.660
2020/01/31 17:01:26.2	356.080	0.140	-0.580	-0.690
2020/01/31 17:01:26.3	356.110	0.150	-0.580	-0.710
2020/01/31 17:01:26.4	356.140	0.170	-0.580	-0.730
2020/01/31 17:01:26.5	356.170	0.190	-0.580	-0.750
2020/01/31 17:01:26.6	356.210	0.210	-0.570	-0.770
2020/01/31 17:01:26.7	356.240	0.220	-0.560	-0.780
2020/01/31 17:01:26.8	356.290	0.240	-0.540	-0.790
2020/01/31 17:01:26.9	356.320	0.250	-0.520	-0.800
2020/01/31 17:01:27.0	356.350	0.260	-0.500	-0.800
2020/01/31 17:01:27.1	356.390	0.270	-0.480	-0.800
2020/01/31 17:01:27.2	356.420	0.280	-0.460	-0.800
2020/01/31 17:01:27.3	356.450	0.280	-0.430	-0.790
2020/01/31 17:01:27.4	356.490	0.280	-0.400	-0.780
2020/01/31 17:01:27.5	356.520	0.280	-0.380	-0.770
2020/01/31 17:01:27.6	356.540	0.270	-0.350	-0.750
2020/01/31 17:01:27.7	356.570	0.260	-0.320	-0.730
2020/01/31 17:01:27.8	356.590	0.250	-0.290	-0.700
2020/01/31 17:01:27.9	356.610	0.240	-0.260	-0.670
2020/01/31 17:01:28.0	356.630	0.220	-0.230	-0.640
2020/01/31 17:01:28.1	356.650	0.200	-0.200	-0.610
2020/01/31 17:01:28.2	356.670	0.180	-0.180	-0.580
2020/01/31 17:01:28.3	356.690	0.150	-0.160	-0.540
2020/01/31 17:01:28.4	356.710	0.130	-0.140	-0.510
2020/01/31 17:01:28.5	356.720	0.100	-0.120	-0.470
2020/01/31 17:01:28.6	356.740	0.070	-0.110	-0.440
2020/01/31 17:01:28.7	356.760	0.040	-0.100	-0.410
2020/01/31 17:01:28.8	356.770	0.010	-0.100	-0.370
2020/01/31 17:01:28.9	356.780	-0.020	-0.090	-0.340
2020/01/31 17:01:29.0	356.800	-0.050	-0.090	-0.320
2020/01/31 17:01:29.1	356.820	-0.080	-0.100	-0.290
2020/01/31 17:01:29.2	356.830	-0.100	-0.100	-0.270
2020/01/31 17:01:29.3	356.850	-0.130	-0.110	-0.260
2020/01/31 17:01:29.4	356.860	-0.160	-0.130	-0.240
2020/01/31 17:01:29.5	356.880	-0.180	-0.140	-0.230
2020/01/31 17:01:29.6	356.890	-0.200	-0.160	-0.230
2020/01/31 17:01:29.7	356.910	-0.220	-0.180	-0.230
2020/01/31 17:01:29.8	356.920	-0.240	-0.200	-0.220
2020/01/31 17:01:29.9	356.930	-0.250	-0.220	-0.230
2020/01/31 17:01:30.0	356.940	-0.260	-0.250	-0.230
2020/01/31 17:01:30.1	356.950	-0.270	-0.270	-0.240
2020/01/31 17:01:30.2	356.960	-0.270	-0.290	-0.240
2020/01/31 17:01:30.3	356.970	-0.270	-0.320	-0.250
2020/01/31 17:01:30.4	356.980	-0.270	-0.340	-0.260
2020/01/31 17:01:30.5	356.980	-0.260	-0.360	-0.260
2020/01/31 17:01:30.6	356.990	-0.250	-0.380	-0.270
2020/01/31 17:01:30.7	356.990	-0.240	-0.400	-0.280
2020/01/31 17:01:30.8	356.990	-0.230	-0.420	-0.290
2020/01/31 17:01:30.9	356.990	-0.220	-0.430	-0.300
2020/01/31 17:01:31.0	357.000	-0.200	-0.440	-0.310
2020/01/31 17:01:31.1	357.000	-0.180	-0.460	-0.320
2020/01/31 17:01:31.2	357.000	-0.170	-0.460	-0.330
2020/01/31 17:01:31.3	357.000	-0.150	-0.470	-0.340
2020/01/31 17:01:31.4	357.000	-0.130	-0.480	-0.350
2020/01/31 17:01:31.5	357.000	-0.110	-0.480	-0.360
2020/01/31 17:01:31.6	356.990	-0.090	-0.480	-0.370
2020/01/31 17:01:31.7	356.990	-0.070	-0.470	-0.380
2020/01/31 17:01:31.8	356.980	-0.050	-0.470	-0.390
2020/01/31 17:01:31.9	356.970	-0.040	-0.460	-0.400
2020/01/31 17:01:32.0	356.960	-0.020	-0.450	-0.420
2020/01/31 17:01:32.1	356.950	-0.010	-0.430	-0.430
2020/01/31 17:01:32.2	356.940	0.000	-0.410	-0.440
2020/01/31 17:01:32.3	356.920	0.010	-0.390	-0.450
2020/01/31 17:01:32.4	356.910	0.020	-0.360	-0.470
2020/01/31 17:01:32.5	356.890	0.030	-0.330	-0.480
2020/01/31 17:01:32.6	356.870	0.030	-0.300	-0.490
2020/01/31 17:01:32.7	356.840	0.030	-0.260	-0.500
2020/01/31 17:01:32.8	356.810	0.030	-0.220	-0.510
2020/01/31 17:01:32.9	356.780	0.030	-0.180	-0.510
2020/01/31 17:01:33.0	356.750	0.020	-0.140	-0.520
2020/01/31 17:01:33.1	356.720	0.020	-0.090	-0.520
2020/01/31 17:01:33.2	356.690	0.010	-0.040	-0.530
2020/01/31 17:01:33.3	356.650	-0.000	0.010	-0.530
2020/01/31 17:01:33.4	356.620	-0.020	0.060	-0.520
2020/01/31 17:01:33.5	356.580	-0.030	0.120	-0.520
2020/01/31 17:01:33.6	356.540	-0.050	0.170	-0.510
2020/01/31 17:01:33.7	356.510	-0.060	0.230	-0.500
2020/01/31 17:01:33.8	356.470	-0.080	0.280	-0.490
2020/01/31 17:01:33.9	356.430	-0.100	0.330	-0.470
2020/01/31 17:01:34.0	356.390	-0.120	0.390	-0.460
2020/01/31 17:01:34.1	356.350	-0.140	0.440	-0.440
2020/01/31 17:01:34.2	356.320	-0.150	0.490	-0.420
2020/01/31 17:01:34.3	356.280	-0.170	0.530	-0.400
2020/01/31 17:01:34.4	356.240	-0.190	0.570	-0.380
2020/01/31 17:01:34.5	356.210	-0.210	0.610	-0.360
2020/01/31 17:01:34.6	356.180	-0.230	0.640	-0.340
2020/01/31 17:01:34.7	356.150	-0.240	0.660	-0.320
2020/01/31 17:01:34.8	356.120	-0.260	0.680	-0.300
2020/01/31 17:01:34.9	356.100	-0.270	0.690	-0.280
2020/01/31 17:01:35.0	356.070	-0.280	0.700	-0.260
2020/01/31 17:01:35.1	356.050	-0.290	0.700	-0.240
2020/01/31 17:01:35.2	356.030	-0.300	0.690	-0.220
2020/01/31 17:01:35.3	356.010	-0.310	0.670	-0.210
2020/01/31 17:01:35.4	355.990	-0.310	0.650	-0.190
2020/01/31 17:01:35.5	355.970	-0.310	0.620	-0.180
2020/01/31 17:01:35.6	355.960	-0.310	0.580	-0.170
2020/01/31 17:01:35.7	355.950	-0.310	0.540	-0.160
2020/01/31 17:01:35.8	355.960	-0.310	0.490	-0.150
2020/01/31 17:01:35.9	355.950	-0.300	0.430	-0.150
2020/01/31 17:01:36.0	355.950	-0.290	0.370	-0.150
2020/01/31 17:01:36.1	355.960	-0.280	0.300	-0.150
2020/01/31 17:01:36.2	355.960	-0.270	0.220	-0.150
2020/01/31 17:01:36.3	355.970	-0.250	0.140	-0.150
2020/01/31 17:01:36.4	355.980	-0.230	0.060	-0.150
2020/01/31 17:01:36.5	355.990	-0.210	-0.030	-0.160
2020/01/31 17:01:36.6	356.010	-0.190	-0.120	-0.170
2020/01/31 17:01:36.7	356.020	-0.160	-0.220	-0.180
2020/01/31 17:01:36.8	356.040	-0.130	-0.310	-0.180
2020/01/31 17:01:36.9	356.060	-0.100	-0.410	-0.190
2020/01/31 17:01:37.0	356.080	-0.070	-0.500	-0.190
2020/01/31 17:01:37.1	356.100	-0.030	-0.600	-0.200
2020/01/31 17:01:37.2	356.110	0.000	-0.690	-0.200
2020/01/31 17:01:37.3	356.130	0.040	-0.780	-0.200
2020/01/31 17:01:37.4	356.150	0.080	-0.870	-0.190
2020/01/31 17:01:37.5	356.160	0.110	-0.960	-0.190
2020/01/31 17:01:37.6	356.180	0.150	-1.040	-0.190
2020/01/31 17:01:37.7	356.190	0.190	-1.110	-0.180
2020/01/31 17:01:37.8	356.210	0.230	-1.190	-0.170
2020/01/31 17:01:37.9	356.220	0.270	-1.260	-0.170
2020/01/31 17:01:38.0	356.240	0.310	-1.320	-0.160
2020/01/31 17:01:38.1	356.260	0.350	-1.380	-0.150
2020/01/31 17:01:38.2	356.280	0.390	-1.430	-0.140
2020/01/31 17:01:38.3	356.300	0.420	-1.470	-0.140
2020/01/31 17:01:38.4	356.320	0.460	-1.510	-0.130
2020/01/31 17:01:38.5	356.340	0.490	-1.550	-0.120
2020/01/31 17:01:38.6	356.370	0.520	-1.570	-0.120
2020/01/31 17:01:38.7	356.390	0.550	-1.590	-0.120
2020/01/31 17:01:38.8	356.430	0.570	-1.600	-0.110
2020/01/31 17:01:38.9	356.460	0.600	-1.610	-0.110
2020/01/31 17:01:39.0	356.480	0.610	-1.600	-0.110
2020/01/31 17:01:39.1	356.510	0.630	-1.600	-0.110
2020/01/31 17:01:39.2	356.540	0.640	-1.580	-0.110
2020/01/31 17:01:39.3	356.570	0.650	-1.560	-0.110
2020/01/31 17:01:39.4	356.600	0.650	-1.530	-0.110
2020/01/31 17:01:39.5	356.620	0.650	-1.490	-0.110
2020/01/31 17:01:39.6	356.650	0.640	-1.450	-0.110
2020/01/31 17:01:39.7	356.680	0.640	-1.400	-0.120
2020/01/31 17:01:39.8	356.700	0.620	-1.340	-0.120
2020/01/31 17:01:39.9	356.720	0.600	-1.280	-0.130
2020/01/31 17:01:40.0	356.740	0.580	-1.210	-0.140
2020/01/31 17:01:40.1	356.760	0.550	-1.140	-0.150
2020/01/31 17:01:40.2	356.780	0.520	-1.060	-0.170
2020/01/31 17:01:40.3	356.800	0.480	-0.980	-0.190
2020/01/31 17:01:40.4	356.820	0.440	-0.890	-0.210
2020/01/31 17:01:40.5	356.830	0.400	-0.810	-0.240
2020/01/31 17:01:40.6	356.850	0.350	-0.710	-0.270
2020/01/31 17:01:40.7	356.860	0.300	-0.620	-0.300
2020/01/31 17:01:40.8	356.870	0.250	-0.530	-0.330
2020/01/31 17:01:40.9	356.880	0.190	-0.430	-0.370
2020/01/31 17:01:41.0	356.890	0.130	-0.330	-0.410
2020/01/31 17:01:41.1	356.890	0.070	-0.240	-0.440
2020/01/31 17:01:41.2	356.900	0.010	-0.140	-0.480
2020/01/31 17:01:41.3	356.900	-0.060	-0.040	-0.520
2020/01/31 17:01:41.4	356.900	-0.120	0.050	-0.550
2020/01/31 17:01:41.5	356.900	-0.180	0.150	-0.580
2020/01/31 17:01:41.6	356.890	-0.250	0.240	-0.610
2020/01/31 17:01:41.7	356.880	-0.310	0.330	-0.640
2020/01/31 17:01:41.8	356.870	-0.370	0.410	-0.670
2020/01/31 17:01:41.9	356.860	-0.430	0.490	-0.690
2020/01/31 17:01:42.0	356.840	-0.490	0.570	-0.710
2020/01/31 17:01:42.1	356.830	-0.550	0.640	-0.720
2020/01/31 17:01:42.2	356.810	-0.600	0.710	-0.740
2020/01/31 17:01:42.3	356.790	-0.650	0.780	-0.750
2020/01/31 17:01:42.4	356.770	-0.690	0.840	-0.750
2020/01/31 17:01:42.5	356.750	-0.730	0.890	-0.760
2020/01/31 17:01:42.6	356.730	-0.770	0.940	-0.760
2020/01/31 17:01:42.7	356.710	-0.800	0.980	-0.760
2020/01/31 17:01:42.8	356.700	-0.820	1.020	-0.760
2020/01/31 17:01:42.9	356.680	-0.840	1.040	-0.750
2020/01/31 17:01:43.0	356.660	-0.860	1.060	-0.750
2020/01/31 17:01:43.1	356.650	-0.870	1.070	-0.740
2020/01/31 17:01:43.2	356.630	-0.870	1.080	-0.730
2020/01/31 17:01:43.3	356.620	-0.870	1.070	-0.720
2020/01/31 17:01:43.4	356.610	-0.860	1.060	-0.710
2020/01/31 17:01:43.5	356.600	-0.850	1.040	-0.700
2020/01/31 17:01:43.6	356.590	-0.830	1.020	-0.680
2020/01/31 17:01:43.7	356.580	-0.810	0.990	-0.670
2020/01/31 17:01:43.8	356.590	-0.780	0.950	-0.640
2020/01/31 17:01:43.9	356.580	-0.750	0.910	-0.620
2020/01/31 17:01:44.0	356.570	-0.710	0.860	-0.600
2020/01/31 17:01:44.1	356.560	-0.670	0.810	-0.570
2020/01/31 17:01:44.2	356.540	-0.630	0.760	-0.540
2020/01/31 17:01:44.3	356.530	-0.580	0.710	-0.510
2020/01/31 17:01:44.4	356.520	-0.530	0.650	-0.470
2020/01/31 17:01:44.5	356.500	-0.480	0.590	-0.440
2020/01/31 17:01:44.6	356.480	-0.430	0.530	-0.400
2020/01/31 17:01:44.7	356.470	-0.370	0.470	-0.360
2020/01/31 17:01:44.8	356.450	-0.320	0.410	-0.310
2020/01/31 17:01:44.9	356.430	-0.260	0.350	-0.270
2020/01/31 17:01:45.0	356.410	-0.200	0.280	-0.220
2020/01/31 17:01:45.1	356.390	-0.150	0.220	-0.180
2020/01/31 17:01:45.2	356.370	-0.090	0.160	-0.130
2020/01/31 17:01:45.3	356.350	-0.040	0.100	-0.080
2020/01/31 17:01:45.4	356.330	0.010	0.040	-0.040
2020/01/31 17:01:45.5	356.310	0.070	-0.020	0.010
2020/01/31 17:01:45.6	356.290	0.120	-0.080	0.060
2020/01/31 17:01:45.7	356.270	0.170	-0.130	0.100
2020/01/31 17:01:45.8	356.250	0.220	-0.190	0.150
2020/01/31 17:01:45.9	356.240	0.260	-0.250	0.190
2020/01/31 17:01:46.0	356.230	0.310	-0.300	0.240
2020/01/31 17:01:46.1	356.220	0.350	-0.350	0.280
2020/01/31 17:01:46.2	356.210	0.390	-0.410	0.310
2020/01/31 17:01:46.3	356.200	0.430	-0.460	0.350
2020/01/31 17:01:46.4	356.200	0.460	-0.510	0.390
2020/01/31 17:01:46.5	356.200	0.490	-0.550	0.420
2020/01/31 17:01:46.6	356.200	0.520	-0.600	0.450
2020/01/31 17:01:46.7	356.200	0.550	-0.640	0.480
2020/01/31 17:01:46.8	356.190	0.570	-0.680	0.510
2020/01/31 17:01:46.9	356.190	0.590	-0.720	0.530
2020/01/31 17:01:47.0	356.180	0.610	-0.750	0.550
2020/01/31 17:01:47.1	356.180	0.630	-0.790	0.570
2020/01/31 17:01:47.2	356.180	0.640	-0.820	0.590
2020/01/31 17:01:47.3	356.180	0.650	-0.840	0.610
2020/01/31 17:01:47.4	356.170	0.650	-0.870	0.620
2020/01/31 17:01:47.5	356.170	0.660	-0.890	0.620
2020/01/31 17:01:47.6	356.170	0.650	-0.910	0.630
2020/01/31 17:01:47.7	356.170	0.650	-0.930	0.620
2020/01/31 17:01:47.8	356.180	0.650	-0.950	0.620
2020/01/31 17:01:47.9	356.180	0.640	-0.960	0.610
2020/01/31 17:01:48.0	356.190	0.630	-0.970	0.590
2020/01/31 17:01:48.1	356.190	0.610	-0.980	0.560
2020/01/31 17:01:48.2	356.200	0.600	-0.990	0.540
2020/01/31 17:01:48.3	356.200	0.580	-1.000	0.500
2020/01/31 17:01:48.4	356.210	0.560	-1.000	0.460
2020/01/31 17:01:48.5	356.230	0.540	-1.000	0.420
2020/01/31 17:01:48.6	356.240	0.520	-1.000	0.370
2020/01/31 17:01:48.7	356.250	0.490	-0.990	0.320
2020/01/31 17:01:48.8	356.260	0.470	-0.990	0.270
2020/01/31 17:01:48.9	356.280	0.440	-0.980	0.210
2020/01/31 17:01:49.0	356.290	0.410	-0.970	0.150
2020/01/31 17:01:49.1	356.310	0.380	-0.960	0.090
2020/01/31 17:01:49.2	356.330	0.350	-0.950	0.030
2020/01/31 17:01:49.3	356.350	0.320	-0.930	-0.030
2020/01/31 17:01:49.4	356.360	0.290	-0.910	-0.090
2020/01/31 17:01:49.5	356.380	0.260	-0.890	-0.150
2020/01/31 17:01:49.6	356.390	0.220	-0.860	-0.210
2020/01/31 17:01:49.7	356.410	0.190	-0.840	-0.280
2020/01/31 17:01:49.8	356.430	0.160	-0.810	-0.340
2020/01/31 17:01:49.9	356.450	0.120	-0.780	-0.400
2020/01/31 17:01:50.0	356.460	0.090	-0.750	-0.460
2020/01/31 17:01:50.1	356.480	0.050	-0.720	-0.510
2020/01/31 17:01:50.2	356.490	0.020	-0.690	-0.570
2020/01/31 17:01:50.3	356.510	-0.020	-0.650	-0.630
2020/01/31 17:01:50.4	356.520	-0.050	-0.620	-0.680
2020/01/31 17:01:50.5	356.530	-0.090	-0.590	-0.730
2020/01/31 17:01:50.6	356.550	-0.120	-0.560	-0.790
2020/01/31 17:01:50.7	356.560	-0.150	-0.530	-0.840
2020/01/31 17:01:50.8	356.570	-0.180	-0.500	-0.880
2020/01/31 17:01:50.9	356.580	-0.210	-0.470	-0.930
2020/01/31 17:01:51.0	356.600	-0.240	-0.440	-0.980
2020/01/31 17:01:51.1	356.610	-0.270	-0.410	-1.020
2020/01/31 17:01:51.2	356.630	-0.290	-0.390	-1.050
2020/01/31 17:01:51.3	356.640	-0.320	-0.360	-1.090
2020/01/31 17:01:51.4	356.650	-0.340	-0.330	-1.120
2020/01/31 17:01:51.5	356.660	-0.360	-0.310	-1.150
2020/01/31 17:01:51.6	356.670	-0.380	-0.280	-1.170
2020/01/31 17:01:51.7	356.680	-0.400	-0.260	-1.190
2020/01/31 17:01:51.8	356.690	-0.410	-0.230	-1.210
2020/01/31 17:01:51.9	356.690	-0.420	-0.210	-1.220
2020/01/31 17:01:52.0	356.700	-0.430	-0.190	-1.220
2020/01/31 17:01:52.1	356.710	-0.440	-0.160	-1.220
2020/01/31 17:01:52.2	356.720	-0.450	-0.140	-1.210
2020/01/31 17:01:52.3	356.720	-0.450	-0.120	-1.200
2020/01/31 17:01:52.4	356.730	-0.450	-0.100	-1.190
2020/01/31 17:01:52.5	356.730	-0.450	-0.080	-1.170
2020/01/31 17:01:52.6	356.740	-0.440	-0.070	-1.150
2020/01/31 17:01:52.7	356.740	-0.440	-0.050	-1.120
2020/01/31 17:01:52.8	356.750	-0.430	-0.040	-1.090
2020/01/31 17:01:52.9	356.750	-0.420	-0.020	-1.060
2020/01/31 17:01:53.0	356.760	-0.400	-0.010	-1.020
2020/01/31 17:01:53.1	356.760	-0.390	0.000	-0.980
2020/01/31 17:01:53.2	356.760	-0.370	0.010	-0.940
2020/01/31 17:01:53.3	356.770	-0.350	0.020	-0.890
2020/01/31 17:01:53.4	356.770	-0.330	0.030	-0.840
2020/01/31 17:01:53.5	356.770	-0.300	0.040	-0.790
2020/01/31 17:01:53.6	356.770	-0.280	0.040	-0.730
2020/01/31 17:01:53.7	356.770	-0.250	0.050	-0.680
2020/01/31 17:01:53.8	356.760	-0.230	0.050	-0.610
2020/01/31 17:01:53.9	356.760	-0.200	0.050	-0.560
2020/01/31 17:01:54.0	356.760	-0.170	0.050	-0.500
2020/01/31 17:01:54.1	356.760	-0.140	0.050	-0.440
2020/01/31 17:01:54.2	356.760	-0.110	0.050	-0.380
2020/01/31 17:01:54.3	356.750	-0.080	0.050	-0.320
2020/01/31 17:01:54.4	356.750	-0.050	0.050	-0.260
2020/01/31 17:01:54.5	356.750	-0.020	0.040	-0.200
2020/01/31 17:01:54.6	356.760	0.010	0.040	-0.150
2020/01/31 17:01:54.7	356.760	0.040	0.030	-0.100
2020/01/31 17:01:54.8	356.760	0.060	0.030	-0.040
2020/01/31 17:01:54.9	356.770	0.090	0.020	0.010
2020/01/31 17:01:55.0	356.770	0.110	0.010	0.050
2020/01/31 17:01:55.1	356.780	0.140	0.000	0.090
2020/01/31 17:01:55.2	356.800	0.160	-0.010	0.130
2020/01/31 17:01:55.3	356.810	0.180	-0.020	0.160
2020/01/31 17:01:55.4	356.820	0.200	-0.030	0.190
2020/01/31 17:01:55.5	356.840	0.210	-0.040	0.210
2020/01/31 17:01:55.6	356.860	0.220	-0.050	0.230
2020/01/31 17:01:55.7	356.870	0.230	-0.060	0.250
2020/01/31 17:01:55.8	356.880	0.240	-0.070	0.270
2020/01/31 17:01:55.9	356.900	0.240	-0.080	0.280
2020/01/31 17:01:56.0	356.910	0.240	-0.080	0.290
2020/01/31 17:01:56.1	356.930	0.240	-0.080	0.290
2020/01/31 17:01:56.2	356.940	0.240	-0.080	0.300
2020/01/31 17:01:56.3	356.950	0.230	-0.080	0.300
2020/01/31 17:01:56.4	356.960	0.220	-0.070	0.300
2020/01/31 17:01:56.5	356.970	0.200	-0.060	0.300
2020/01/31 17:01:56.6	356.980	0.180	-0.050	0.310
2020/01/31 17:01:56.7	356.980	0.160	-0.030	0.310
2020/01/31 17:01:56.8	356.990	0.140	-0.000	0.320
2020/01/31 17:01:56.9	356.990	0.110	0.020	0.320
2020/01/31 17:01:57.0	356.990	0.090	0.060	0.320
2020/01/31 17:01:57.1	356.980	0.060	0.090	0.330
2020/01/31 17:01:57.2	356.980	0.030	0.130	0.340
2020/01/31 17:01:57.3	356.970	-0.010	0.170	0.350
2020/01/31 17:01:57.4	356.960	-0.040	0.220	0.350
2020/01/31 17:01:57.5	356.950	-0.080	0.260	0.360
2020/01/31 17:01:57.6	356.930	-0.110	0.310	0.370
2020/01/31 17:01:57.7	356.920	-0.150	0.360	0.380
2020/01/31 17:01:57.8	356.910	-0.180	0.400	0.400
2020/01/31 17:01:57.9	356.890	-0.220	0.450	0.410
2020/01/31 17:01:58.0	356.860	-0.260	0.490	0.420
2020/01/31 17:01:58.1	356.840	-0.290	0.530	0.430
2020/01/31 17:01:58.2	356.820	-0.320	0.570	0.440
2020/01/31 17:01:58.3	356.790	-0.350	0.600	0.450
2020/01/31 17:01:58.4	356.760	-0.380	0.630	0.460
2020/01/31 17:01:58.5	356.730	-0.410	0.650	0.470
2020/01/31 17:01:58.6	356.700	-0.440	0.670	0.480
2020/01/31 17:01:58.7	356.670	-0.460	0.680	0.490
2020/01/31 17:01:58.8	356.650	-0.480	0.680	0.500
2020/01/31 17:01:58.9	356.610	-0.500	0.670	0.500
2020/01/31 17:01:59.0	356.570	-0.510	0.660	0.510
2020/01/31 17:01:59.1	356.530	-0.530	0.640	0.510
2020/01/31 17:01:59.2	356.490	-0.540	0.610	0.510
2020/01/31 17:01:59.3	356.450	-0.540	0.570	0.510
2020/01/31 17:01:59.4	356.410	-0.540	0.530	0.500
2020/01/31 17:01:59.5	356.360	-0.540	0.480	0.490
2020/01/31 17:01:59.6	356.320	-0.530	0.410	0.480
2020/01/31 17:01:59.7	356.280	-0.520	0.350	0.460
2020/01/31 17:01:59.8	356.230	-0.510	0.270	0.440
2020/01/31 17:01:59.9	356.190	-0.490	0.190	0.410
2020/01/31 17:02:00.0	356.150	-0.470	0.100	0.380
2020/01/31 17:02:00.1	356.120	-0.450	0.000	0.350
2020/01/31 17:02:00.2	356.080	-0.420	-0.100	0.310
2020/01/31 17:02:00.3	356.050	-0.390	-0.210	0.270
2020/01/31 17:02:00.4	356.020	-0.350	-0.320	0.230
2020/01/31 17:02:00.5	355.990	-0.310	-0.430	0.180
2020/01/31 17:02:00.6	355.970	-0.270	-0.550	0.130
2020/01/31 17:02:00.7	355.950	-0.220	-0.670	0.070
2020/01/31 17:02:00.8	355.930	-0.170	-0.790	0.010
2020/01/31 17:02:00.9	355.920	-0.120	-0.920	-0.050
2020/01/31 17:02:01.0	355.910	-0.060	-1.040	-0.110
2020/01/31 17:02:01.1	355.900	-0.010	-1.160	-0.180
2020/01/31 17:02:01.2	355.900	0.050	-1.280	-0.240
2020/01/31 17:02:01.3	355.900	0.110	-1.400	-0.310
2020/01/31 17:02:01.4	355.910	0.180	-1.520	-0.370
2020/01/31 17:02:01.5	355.910	0.240	-1.630	-0.440
2020/01/31 17:02:01.6	355.930	0.300	-1.740	-0.500
2020/01/31 17:02:01.7	355.940	0.370	-1.840	-0.560
2020/01/31 17:02:01.8	355.960	0.430	-1.930	-0.620
2020/01/31 17:02:01.9	355.980	0.500	-2.020	-0.690
2020/01/31 17:02:02.0	356.010	0.560	-2.100	-0.750
2020/01/31 17:02:02.1	356.050	0.620	-2.170	-0.810
2020/01/31 17:02:02.2	356.090	0.680	-2.230	-0.870
2020/01/31 17:02:02.3	356.130	0.740	-2.280	-0.930
2020/01/31 17:02:02.4	356.180	0.790	-2.320	-0.980
2020/01/31 17:02:02.5	356.230	0.840	-2.350	-1.040
2020/01/31 17:02:02.6	356.280	0.890	-2.370	-1.090
2020/01/31 17:02:02.7	356.340	0.930	-2.370	-1.140
2020/01/31 17:02:02.8	356.400	0.970	-2.370	-1.190
2020/01/31 17:02:02.9	356.460	1.000	-2.350	-1.240
2020/01/31 17:02:03.0	356.530	1.020	-2.320	-1.280
2020/01/31 17:02:03.1	356.600	1.050	-2.280	-1.320
2020/01/31 17:02:03.2	356.670	1.060	-2.230	-1.360
2020/01/31 17:02:03.3	356.740	1.070	-2.160	-1.400
2020/01/31 17:02:03.4	356.810	1.070	-2.080	-1.420
2020/01/31 17:02:03.5	356.880	1.070	-2.000	-1.450
2020/01/31 17:02:03.6	356.950	1.050	-1.900	-1.470
2020/01/31 17:02:03.7	357.020	1.040	-1.790	-1.480
2020/01/31 17:02:03.8	357.100	1.010	-1.670	-1.480
2020/01/31 17:02:03.9	357.160	0.980	-1.550	-1.480
2020/01/31 17:02:04.0	357.230	0.940	-1.410	-1.480
2020/01/31 17:02:04.1	357.290	0.900	-1.270	-1.470
2020/01/31 17:02:04.2	357.350	0.850	-1.120	-1.450
2020/01/31 17:02:04.3	357.410	0.790	-0.970	-1.430
2020/01/31 17:02:04.4	357.460	0.730	-0.810	-1.400
2020/01/31 17:02:04.5	357.510	0.660	-0.650	-1.360
2020/01/31 17:02:04.6	357.550	0.590	-0.480	-1.330
2020/01/31 17:02:04.7	357.600	0.520	-0.320	-1.290
2020/01/31 17:02:04.8	357.640	0.440	-0.150	-1.240
2020/01/31 17:02:04.9	357.680	0.360	0.010	-1.190
2020/01/31 17:02:05.0	357.710	0.280	0.180	-1.140
2020/01/31 17:02:05.1	357.740	0.190	0.340	-1.090
2020/01/31 17:02:05.2	357.760	0.110	0.490	-1.040
2020/01/31 17:02:05.3	357.780	0.020	0.640	-0.980
2020/01/31 17:02:05.4	357.790	-0.070	0.790	-0.930
2020/01/31 17:02:05.5	357.800	-0.150	0.930	-0.870
2020/01/31 17:02:05.6	357.810	-0.240	1.060	-0.810
2020/01/31 17:02:05.7	357.810	-0.320	1.180	-0.750
2020/01/31 17:02:05.8	357.820	-0.400	1.300	-0.690
2020/01/31 17:02:05.9	357.810	-0.470	1.400	-0.620
2020/01/31 17:02:06.0	357.800	-0.550	1.500	-0.560
2020/01/31 17:02:06.1	357.780	-0.620	1.590	-0.500
2020/01/31 17:02:06.2	357.760	-0.680	1.670	-0.440
2020/01/31 17:02:06.3	357.730	-0.740	1.740	-0.380
2020/01/31 17:02:06.4	357.700	-0.790	1.800	-0.310
2020/01/31 17:02:06.5	357.670	-0.840	1.850	-0.250
2020/01/31 17:02:06.6	357.630	-0.880	1.900	-0.190
2020/01/31 17:02:06.7	357.590	-0.920	1.930	-0.120
2020/01/31 17:02:06.8	357.540	-0.950	1.960	-0.050
2020/01/31 17:02:06.9	357.490	-0.970	1.970	0.010
2020/01/31 17:02:07.0	357.440	-0.990	1.980	0.080
2020/01/31 17:02:07.1	357.380	-1.000	1.980	0.150
2020/01/31 17:02:07.2	357.320	-1.010	1.970	0.210
2020/01/31 17:02:07.3	357.250	-1.010	1.960	0.280
2020/01/31 17:02:07.4	357.180	-1.000	1.940	0.350
2020/01/31 17:02:07.5	357.110	-0.990	1.900	0.410
2020/01/31 17:02:07.6	357.040	-0.970	1.870	0.480
2020/01/31 17:02:07.7	356.960	-0.950	1.820	0.540
2020/01/31 17:02:07.8	356.890	-0.920	1.770	0.610
2020/01/31 17:02:07.9	356.810	-0.890	1.710	0.670
2020/01/31 17:02:08.0	356.730	-0.850	1.650	0.720
2020/01/31 17:02:08.1	356.650	-0.810	1.580	0.770
2020/01/31 17:02:08.2	356.560	-0.770	1.500	0.820
2020/01/31 17:02:08.3	356.480	-0.730	1.420	0.870
2020/01/31 17:02:08.4	356.400	-0.680	1.330	0.910
2020/01/31 17:02:08.5	356.310	-0.630	1.230	0.950
2020/01/31 17:02:08.6	356.220	-0.580	1.130	0.980
2020/01/31 17:02:08.7	356.140	-0.530	1.030	1.010
2020/01/31 17:02:08.8	356.060	-0.480	0.920	1.030
2020/01/31 17:02:08.9	355.980	-0.420	0.810	1.050
2020/01/31 17:02:09.0	355.890	-0.370	0.690	1.060
2020/01/31 17:02:09.1	355.810	-0.320	0.570	1.070
2020/01/31 17:02:09.2	355.730	-0.270	0.450	1.060
2020/01/31 17:02:09.3	355.660	-0.220	0.330	1.050
2020/01/31 17:02:09.4	355.590	-0.170	0.200	1.040
2020/01/31 17:02:09.5	355.520	-0.120	0.080	1.020
2020/01/31 17:02:09.6	355.450	-0.070	-0.050	0.990
2020/01/31 17:02:09.7	355.400	-0.020	-0.180	0.950
2020/01/31 17:02:09.8	355.350	0.020	-0.310	0.910
2020/01/31 17:02:09.9	355.300	0.060	-0.430	0.860
2020/01/31 17:02:10.0	355.250	0.100	-0.560	0.800
2020/01/31 17:02:10.1	355.210	0.140	-0.680	0.740
2020/01/31 17:02:10.2	355.180	0.170	-0.810	0.680
2020/01/31 17:02:10.3	355.150	0.200	-0.930	0.610
2020/01/31 17:02:10.4	355.130	0.230	-1.050	0.530
2020/01/31 17:02:10.5	355.120	0.260	-1.160	0.440
2020/01/31 17:02:10.6	355.110	0.290	-1.270	0.360
2020/01/31 17:02:10.7	355.110	0.310	-1.380	0.260
2020/01/31 17:02:10.8	355.120	0.330	-1.480	0.160
2020/01/31 17:02:10.9	355.130	0.350	-1.590	0.060
2020/01/31 17:02:11.0	355.150	0.370	-1.680	-0.040
2020/01/31 17:02:11.1	355.180	0.390	-1.770	-0.150
2020/01/31 17:02:11.2	355.220	0.400	-1.860	-0.260
2020/01/31 17:02:11.3	355.260	0.410	-1.940	-0.380
2020/01/31 17:02:11.4	355.310	0.420	-2.010	-0.490
2020/01/31 17:02:11.5	355.370	0.430	-2.080	-0.600
2020/01/31 17:02:11.6	355.430	0.440	-2.140	-0.720
2020/01/31 17:02:11.7	355.500	0.450	-2.200	-0.830
2020/01/31 17:02:11.8	355.570	0.450	-2.250	-0.950
2020/01/31 17:02:11.9	355.650	0.460	-2.290	-1.060
2020/01/31 17:02:12.0	355.720	0.460	-2.320	-1.170
2020/01/31 17:02:12.1	355.810	0.460	-2.340	-1.270
2020/01/31 17:02:12.2	355.890	0.460	-2.360	-1.370
2020/01/31 17:02:12.3	355.970	0.460	-2.360	-1.470
2020/01/31 17:02:12.4	356.060	0.460	-2.360	-1.560
2020/01/31 17:02:12.5	356.150	0.450	-2.350	-1.650
2020/01/31 17:02:12.6	356.240	0.440	-2.330	-1.730
2020/01/31 17:02:12.7	356.330	0.440	-2.300	-1.810
2020/01/31 17:02:12.8	356.420	0.420	-2.270	-1.870
2020/01/31 17:02:12.9	356.510	0.410	-2.220	-1.940
2020/01/31 17:02:13.0	356.600	0.400	-2.170	-2.000
2020/01/31 17:02:13.1	356.690	0.380	-2.110	-2.050
2020/01/31 17:02:13.2	356.770	0.370	-2.040	-2.100
2020/01/31 17:02:13.3	356.850	0.350	-1.970	-2.140
2020/01/31 17:02:13.4	356.940	0.330	-1.890	-2.170
2020/01/31 17:02:13.5	357.020	0.300	-1.810	-2.200
2020/01/31 17:02:13.6	357.090	0.280	-1.710	-2.220
2020/01/31 17:02:13.7	357.170	0.250	-1.620	-2.230
2020/01/31 17:02:13.8	357.250	0.230	-1.510	-2.240
2020/01/31 17:02:13.9	357.320	0.200	-1.410	-2.230
2020/01/31 17:02:14.0	357.390	0.170	-1.300	-2.230
2020/01/31 17:02:14.1	357.450	0.140	-1.190	-2.210
2020/01/31 17:02:14.2	357.510	0.110	-1.070	-2.190
2020/01/31 17:02:14.3	357.570	0.080	-0.950	-2.160
2020/01/31 17:02:14.4	357.620	0.050	-0.830	-2.130
2020/01/31 17:02:14.5	357.670	0.020	-0.700	-2.080
2020/01/31 17:02:14.6	357.710	-0.020	-0.580	-2.030
2020/01/31 17:02:14.7	357.740	-0.050	-0.450	-1.970
2020/01/31 17:02:14.8	357.780	-0.080	-0.330	-1.900
2020/01/31 17:02:14.9	357.800	-0.110	-0.200	-1.830
2020/01/31 17:02:15.0	357.820	-0.130	-0.060	-1.740
2020/01/31 17:02:15.1	357.830	-0.160	0.070	-1.650
2020/01/31 17:02:15.2	357.830	-0.190	0.200	-1.560
2020/01/31 17:02:15.3	357.830	-0.210	0.330	-1.450
2020/01/31 17:02:15.4	357.820	-0.240	0.460	-1.350
2020/01/31 17:02:15.5	357.810	-0.260	0.590	-1.230
2020/01/31 17:02:15.6	357.790	-0.280	0.710	-1.110
2020/01/31 17:02:15.7	357.760	-0.300	0.840	-0.990
2020/01/31 17:02:15.8	357.730	-0.310	0.970	-0.850
2020/01/31 17:02:15.9	357.690	-0.330	1.080	-0.720
2020/01/31 17:02:16.0	357.640	-0.340	1.190	-0.590
2020/01/31 17:02:16.1	357.590	-0.350	1.300	-0.450
2020/01/31 17:02:16.2	357.530	-0.360	1.390	-0.320
2020/01/31 17:02:16.3	357.470	-0.360	1.480	-0.180
2020/01/31 17:02:16.4	357.400	-0.360	1.560	-0.050
2020/01/31 17:02:16.5	357.330	-0.360	1.630	0.080
2020/01/31 17:02:16.6	357.260	-0.360	1.700	0.210
2020/01/31 17:02:16.7	357.180	-0.350	1.750	0.340
2020/01/31 17:02:16.8	357.100	-0.340	1.780	0.460
2020/01/31 17:02:16.9	357.020	-0.330	1.810	0.570
2020/01/31 17:02:17.0	356.930	-0.320	1.830	0.670
2020/01/31 17:02:17.1	356.850	-0.300	1.840	0.770
2020/01/31 17:02:17.2	356.760	-0.280	1.830	0.860
2020/01/31 17:02:17.3	356.680	-0.260	1.810	0.930
2020/01/31 17:02:17.4	356.590	-0.230	1.780	1.000
2020/01/31 17:02:17.5	356.510	-0.210	1.740	1.060
2020/01/31 17:02:17.6	356.430	-0.180	1.680	1.110
2020/01/31 17:02:17.7	356.350	-0.150	1.620	1.150
2020/01/31 17:02:17.8	356.280	-0.110	1.550	1.180
2020/01/31 17:02:17.9	356.200	-0.080	1.460	1.210
2020/01/31 17:02:18.0	356.130	-0.040	1.370	1.220
2020/01/31 17:02:18.1	356.060	-0.000	1.260	1.230
2020/01/31 17:02:18.2	355.990	0.040	1.150	1.230
2020/01/31 17:02:18.3	355.930	0.080	1.030	1.220
2020/01/31 17:02:18.4	355.870	0.120	0.910	1.210
2020/01/31 17:02:18.5	355.820	0.160	0.780	1.190
2020/01/31 17:02:18.6	355.770	0.200	0.640	1.160
2020/01/31 17:02:18.7	355.730	0.240	0.510	1.130
2020/01/31 17:02:18.8	355.680	0.280	0.360	1.090
2020/01/31 17:02:18.9	355.640	0.320	0.220	1.040
2020/01/31 17:02:19.0	355.620	0.350	0.080	0.990
2020/01/31 17:02:19.1	355.600	0.390	-0.060	0.930
2020/01/31 17:02:19.2	355.580	0.420	-0.200	0.860
2020/01/31 17:02:19.3	355.570	0.450	-0.340	0.790
2020/01/31 17:02:19.4	355.570	0.480	-0.480	0.710
2020/01/31 17:02:19.5	355.580	0.500	-0.610	0.630
2020/01/31 17:02:19.6	355.580	0.520	-0.730	0.540
2020/01/31 17:02:19.7	355.600	0.540	-0.850	0.450
2020/01/31 17:02:19.8	355.620	0.550	-0.950	0.360
2020/01/31 17:02:19.9	355.650	0.560	-1.060	0.260
2020/01/31 17:02:20.0	355.670	0.560	-1.150	0.160
2020/01/31 17:02:20.1	355.700	0.560	-1.230	0.060
2020/01/31 17:02:20.2	355.730	0.550	-1.310	-0.050
2020/01/31 17:02:20.3	355.770	0.540	-1.370	-0.150
2020/01/31 17:02:20.4	355.810	0.520	-1.430	-0.250
2020/01/31 17:02:20.5	355.850	0.500	-1.470	-0.360
2020/01/31 17:02:20.6	355.890	0.470	-1.500	-0.460
2020/01/31 17:02:20.7	355.940	0.440	-1.520	-0.570
2020/01/31 17:02:20.8	355.980	0.400	-1.540	-0.670
2020/01/31 17:02:20.9	356.030	0.360	-1.540	-0.770
2020/01/31 17:02:21.0	356.090	0.320	-1.540	-0.870
2020/01/31 17:02:21.1	356.140	0.270	-1.530	-0.970
2020/01/31 17:02:21.2	356.200	0.210	-1.500	-1.070
2020/01/31 17:02:21.3	356.260	0.160	-1.470	-1.160
2020/01/31 17:02:21.4	356.320	0.100	-1.440	-1.240
2020/01/31 17:02:21.5	356.380	0.040	-1.400	-1.330
2020/01/31 17:02:21.6	356.440	-0.020	-1.350	-1.410
2020/01/31 17:02:21.7	356.500	-0.080	-1.300	-1.480
2020/01/31 17:02:21.8	356.570	-0.140	-1.240	-1.550
2020/01/31 17:02:21.9	356.630	-0.200	-1.180	-1.620
2020/01/31 17:02:22.0	356.700	-0.260	-1.120	-1.680
2020/01/31 17:02:22.1	356.760	-0.320	-1.060	-1.730
2020/01/31 17:02:22.2	356.830	-0.370	-0.990	-1.780
2020/01/31 17:02:22.3	356.890	-0.430	-0.930	-1.820
2020/01/31 17:02:22.4	356.950	-0.480	-0.860	-1.860
2020/01/31 17:02:22.5	357.010	-0.530	-0.800	-1.890
2020/01/31 17:02:22.6	357.070	-0.570	-0.730	-1.910
2020/01/31 17:02:22.7	357.130	-0.620	-0.660	-1.930
2020/01/31 17:02:22.8	357.180	-0.650	-0.600	-1.930
2020/01/31 17:02:22.9	357.230	-0.690	-0.530	-1.940
2020/01/31 17:02:23.0	357.270	-0.720	-0.470	-1.940
2020/01/31 17:02:23.1	357.320	-0.740	-0.400	-1.930
2020/01/31 17:02:23.2	357.360	-0.770	-0.340	-1.920
2020/01/31 17:02:23.3	357.400	-0.780	-0.280	-1.910
2020/01/31 17:02:23.4	357.430	-0.790	-0.220	-1.890
2020/01/31 17:02:23.5	357.460	-0.800	-0.170	-1.860
2020/01/31 17:02:23.6	357.480	-0.810	-0.120	-1.830
2020/01/31 17:02:23.7	357.510	-0.800	-0.070	-1.800
2020/01/31 17:02:23.8	357.520	-0.800	-0.020	-1.760
2020/01/31 17:02:23.9	357.530	-0.790	0.030	-1.710
2020/01/31 17:02:24.0	357.540	-0.770	0.070	-1.660
2020/01/31 17:02:24.1	357.540	-0.750	0.100	-1.610
2020/01/31 17:02:24.2	357.540	-0.730	0.140	-1.550
2020/01/31 17:02:24.3	357.530	-0.700	0.170	-1.480
2020/01/31 17:02:24.4	357.520	-0.660	0.190	-1.410
2020/01/31 17:02:24.5	357.500	-0.630	0.210	-1.340
2020/01/31 17:02:24.6	357.490	-0.590	0.230	-1.260
2020/01/31 17:02:24.7	357.470	-0.540	0.240	-1.180
2020/01/31 17:02:24.8	357.440	-0.500	0.250	-1.090
2020/01/31 17:02:24.9	357.410	-0.450	0.250	-1.010
2020/01/31 17:02:25.0	357.380	-0.390	0.250	-0.920
2020/01/31 17:02:25.1	357.360	-0.340	0.240	-0.830
2020/01/31 17:02:25.2	357.330	-0.280	0.230	-0.750
2020/01/31 17:02:25.3	357.300	-0.220	0.210	-0.660
2020/01/31 17:02:25.4	357.270	-0.170	0.190	-0.580
2020/01/31 17:02:25.5	357.240	-0.110	0.170	-0.500
2020/01/31 17:02:25.6	357.220	-0.040	0.140	-0.420
2020/01/31 17:02:25.7	357.190	0.020	0.100	-0.350
2020/01/31 17:02:25.8	357.160	0.080	0.070	-0.270
2020/01/31 17:02:25.9	357.140	0.140	0.020	-0.200
2020/01/31 17:02:26.0	357.120	0.200	-0.020	-0.140
2020/01/31 17:02:26.1	357.100	0.260	-0.070	-0.080
2020/01/31 17:02:26.2	357.090	0.320	-0.110	-0.030
2020/01/31 17:02:26.3	357.070	0.380	-0.160	0.020
2020/01/31 17:02:26.4	357.060	0.440	-0.210	0.070
2020/01/31 17:02:26.5	357.040	0.490	-0.260	0.110
2020/01/31 17:02:26.6	357.030	0.540	-0.300	0.140
2020/01/31 17:02:26.7	357.010	0.590	-0.350	0.170
2020/01/31 17:02:26.8	357.010	0.630	-0.390	0.190
2020/01/31 17:02:26.9	357.000	0.670	-0.420	0.210
2020/01/31 17:02:27.0	356.990	0.710	-0.460	0.220
2020/01/31 17:02:27.1	356.980	0.740	-0.490	0.220
2020/01/31 17:02:27.2	356.970	0.770	-0.520	0.220
2020/01/31 17:02:27.3	356.960	0.790	-0.540	0.210
2020/01/31 17:02:27.4	356.940	0.810	-0.560	0.200
2020/01/31 17:02:27.5	356.940	0.820	-0.570	0.190
2020/01/31 17:02:27.6	356.930	0.830	-0.580	0.160
2020/01/31 17:02:27.7	356.920	0.830	-0.590	0.140
2020/01/31 17:02:27.8	356.900	0.830	-0.590	0.110
2020/01/31 17:02:27.9	356.900	0.820	-0.590	0.080
2020/01/31 17:02:28.0	356.890	0.810	-0.580	0.050
2020/01/31 17:02:28.1	356.890	0.800	-0.570	0.010
2020/01/31 17:02:28.2	356.880	0.780	-0.550	-0.030
2020/01/31 17:02:28.3	356.880	0.750	-0.540	-0.070
2020/01/31 17:02:28.4	356.880	0.730	-0.520	-0.110
2020/01/31 17:02:28.5	356.880	0.700	-0.490	-0.150
2020/01/31 17:02:28.6	356.880	0.660	-0.470	-0.190
2020/01/31 17:02:28.7	356.880	0.630	-0.440	-0.230
2020/01/31 17:02:28.8	356.870	0.590	-0.410	-0.280
2020/01/31 17:02:28.9	356.870	0.550	-0.380	-0.320
2020/01/31 17:02:29.0	356.880	0.510	-0.360	-0.370
2020/01/31 17:02:29.1	356.880	0.460	-0.330	-0.410
2020/01/31 17:02:29.2	356.890	0.420	-0.300	-0.460
2020/01/31 17:02:29.3	356.900	0.380	-0.270	-0.500
2020/01/31 17:02:29.4	356.910	0.330	-0.240	-0.540
2020/01/31 17:02:29.5	356.920	0.290	-0.210	-0.590
2020/01/31 17:02:29.6	356.940	0.250	-0.190	-0.630
2020/01/31 17:02:29.7	356.950	0.200	-0.160	-0.680
2020/01/31 17:02:29.8	356.960	0.160	-0.140	-0.720
2020/01/31 17:02:29.9	356.970	0.120	-0.110	-0.760
2020/01/31 17:02:30.0	356.990	0.080	-0.090	-0.810
2020/01/31 17:02:30.1	357.000	0.040	-0.070	-0.850
2020/01/31 17:02:30.2	357.020	0.010	-0.050	-0.890
2020/01/31 17:02:30.3	357.040	-0.020	-0.030	-0.930
2020/01/31 17:02:30.4	357.050	-0.060	-0.010	-0.960
2020/01/31 17:02:30.5	357.070	-0.090	0.010	-1.000
2020/01/31 17:02:30.6	357.080	-0.110	0.020	-1.030
2020/01/31 17:02:30.7	357.100	-0.140	0.040	-1.050
2020/01/31 17:02:30.8	357.110	-0.160	0.060	-1.080
2020/01/31 17:02:30.9	357.120	-0.190	0.070	-1.100
2020/01/31 17:02:31.0	357.140	-0.210	0.090	-1.120
2020/01/31 17:02:31.1	357.150	-0.230	0.110	-1.130
2020/01/31 17:02:31.2	357.160	-0.240	0.120	-1.140
2020/01/31 17:02:31.3	357.170	-0.260	0.140	-1.140
2020/01/31 17:02:31.4	357.180	-0.270	0.150	-1.150
2020/01/31 17:02:31.5	357.190	-0.290	0.160	-1.140
2020/01/31 17:02:31.6	357.190	-0.300	0.170	-1.140
2020/01/31 17:02:31.7	357.200	-0.310	0.180	-1.130
2020/01/31 17:02:31.8	357.200	-0.320	0.180	-1.110
2020/01/31 17:02:31.9	357.210	-0.330	0.190	-1.100
2020/01/31 17:02:32.0	357.210	-0.330	0.180	-1.090
2020/01/31 17:02:32.1	357.220	-0.340	0.180	-1.070
2020/01/31 17:02:32.2	357.230	-0.340	0.170	-1.060
2020/01/31 17:02:32.3	357.230	-0.350	0.160	-1.040
2020/01/31 17:02:32.4	357.240	-0.350	0.150	-1.030
2020/01/31 17:02:32.5	357.250	-0.350	0.130	-1.010
2020/01/31 17:02:32.6	357.260	-0.350	0.110	-1.000
2020/01/31 17:02:32.7	357.270	-0.350	0.080	-0.990
2020/01/31 17:02:32.8	357.270	-0.350	0.050	-0.970
2020/01/31 17:02:32.9	357.280	-0.340	0.020	-0.960
2020/01/31 17:02:33.0	357.290	-0.340	-0.010	-0.950
2020/01/31 17:02:33.1	357.300	-0.330	-0.050	-0.940
2020/01/31 17:02:33.2	357.310	-0.330	-0.080	-0.920
2020/01/31 17:02:33.3	357.330	-0.320	-0.120	-0.910
2020/01/31 17:02:33.4	357.340	-0.310	-0.160	-0.900
2020/01/31 17:02:33.5	357.350	-0.300	-0.200	-0.890
2020/01/31 17:02:33.6	357.360	-0.290	-0.230	-0.870
2020/01/31 17:02:33.7	357.370	-0.280	-0.270	-0.860
2020/01/31 17:02:33.8	357.380	-0.270	-0.300	-0.840
2020/01/31 17:02:33.9	357.390	-0.260	-0.340	-0.830
2020/01/31 17:02:34.0	357.400	-0.250	-0.370	-0.810
2020/01/31 17:02:34.1	357.410	-0.230	-0.400	-0.800
2020/01/31 17:02:34.2	357.410	-0.220	-0.420	-0.780
2020/01/31 17:02:34.3	357.420	-0.210	-0.450	-0.770
2020/01/31 17:02:34.4	357.430	-0.200	-0.470	-0.750
2020/01/31 17:02:34.5	357.430	-0.190	-0.480	-0.730
2020/01/31 17:02:34.6	357.440	-0.180	-0.500	-0.720
2020/01/31 17:02:34.7	357.440	-0.160	-0.510	-0.700
2020/01/31 17:02:34.8	357.470	-0.150	-0.520	-0.680
2020/01/31 17:02:34.9	357.470	-0.140	-0.520	-0.660
2020/01/31 17:02:35.0	357.470	-0.130	-0.520	-0.630
2020/01/31 17:02:35.1	357.470	-0.120	-0.520	-0.610
2020/01/31 17:02:35.2	357.470	-0.110	-0.520	-0.590
2020/01/31 17:02:35.3	357.480	-0.110	-0.510	-0.560
2020/01/31 17:02:35.4	357.480	-0.100	-0.500	-0.540
2020/01/31 17:02:35.5	357.480	-0.090	-0.490	-0.510
2020/01/31 17:02:35.6	357.480	-0.080	-0.480	-0.490
2020/01/31 17:02:35.7	357.480	-0.080	-0.470	-0.470
2020/01/31 17:02:35.8	357.490	-0.070	-0.460	-0.440
2020/01/31 17:02:35.9	357.490	-0.060	-0.450	-0.420
2020/01/31 17:02:36.0	357.500	-0.060	-0.430	-0.390
2020/01/31 17:02:36.1	357.500	-0.050	-0.420	-0.370
2020/01/31 17:02:36.2	357.510	-0.040	-0.410	-0.350
2020/01/31 17:02:36.3	357.510	-0.040	-0.400	-0.340
2020/01/31 17:02:36.4	357.520	-0.030	-0.390	-0.320
2020/01/31 17:02:36.5	357.530	-0.020	-0.390	-0.310
2020/01/31 17:02:36.6	357.540	-0.010	-0.380	-0.300
2020/01/31 17:02:36.7	357.550	-0.000	-0.380	-0.290
2020/01/31 17:02:36.8	357.580	0.010	-0.380	-0.280
2020/01/31 17:02:36.9	357.600	0.020	-0.380	-0.280
2020/01/31 17:02:37.0	357.610	0.030	-0.380	-0.280
2020/01/31 17:02:37.1	357.630	0.040	-0.390	-0.290
2020/01/31 17:02:37.2	357.650	0.050	-0.390	-0.300
2020/01/31 17:02:37.3	357.670	0.060	-0.400	-0.300
2020/01/31 17:02:37.4	357.690	0.070	-0.410	-0.320
2020/01/31 17:02:37.5	357.710	0.080	-0.420	-0.330
2020/01/31 17:02:37.6	357.730	0.090	-0.430	-0.350
2020/01/31 17:02:37.7	357.750	0.110	-0.450	-0.370
2020/01/31 17:02:37.8	357.770	0.120	-0.460	-0.390
2020/01/31 17:02:37.9	357.790	0.130	-0.470	-0.400
2020/01/31 17:02:38.0	357.810	0.140	-0.490	-0.420
2020/01/31 17:02:38.1	357.830	0.150	-0.500	-0.440
2020/01/31 17:02:38.2	357.850	0.160	-0.520	-0.460
2020/01/31 17:02:38.3	357.870	0.170	-0.530	-0.480
2020/01/31 17:02:38.4	357.880	0.180	-0.540	-0.490
2020/01/31 17:02:38.5	357.900	0.190	-0.550	-0.510
2020/01/31 17:02:38.6	357.910	0.200	-0.550	-0.520
2020/01/31 17:02:38.7	357.910	0.200	-0.550	-0.530
2020/01/31 17:02:38.8	357.920	0.210	-0.550	-0.540
2020/01/31 17:02:38.9	357.920	0.210	-0.550	-0.550
2020/01/31 17:02:39.0	357.920	0.210	-0.540	-0.560
2020/01/31 17:02:39.1	357.920	0.210	-0.530	-0.560
2020/01/31 17:02:39.2	357.910	0.210	-0.520	-0.570
2020/01/31 17:02:39.3	357.900	0.210	-0.500	-0.580
2020/01/31 17:02:39.4	357.890	0.200	-0.480	-0.580
2020/01/31 17:02:39.5	357.880	0.190	-0.460	-0.590
2020/01/31 17:02:39.6	357.870	0.190	-0.430	-0.590
2020/01/31 17:02:39.7	357.860	0.180	-0.400	-0.600
2020/01/31 17:02:39.8	357.850	0.170	-0.370	-0.590
2020/01/31 17:02:39.9	357.840	0.150	-0.340	-0.600
2020/01/31 17:02:40.0	357.820	0.140	-0.300	-0.600
2020/01/31 17:02:40.1	357.810	0.130	-0.270	-0.600
2020/01/31 17:02:40.2	357.790	0.110	-0.230	-0.590
2020/01/31 17:02:40.3	357.780	0.100	-0.190	-0.590
2020/01/31 17:02:40.4	357.760	0.080	-0.150	-0.580
2020/01/31 17:02:40.5	357.750	0.070	-0.110	-0.570
2020/01/31 17:02:40.6	357.730	0.050	-0.080	-0.560
2020/01/31 17:02:40.7	357.720	0.040	-0.040	-0.550
2020/01/31 17:02:40.8	357.710	0.020	-0.010	-0.540
2020/01/31 17:02:40.9	357.700	0.010	0.020	-0.530
2020/01/31 17:02:41.0	357.690	0.000	0.050	-0.510
2020/01/31 17:02:41.1	357.690	-0.010	0.080	-0.490
2020/01/31 17:02:41.2	357.680	-0.020	0.110	-0.470
2020/01/31 17:02:41.3	357.670	-0.020	0.130	-0.450
2020/01/31 17:02:41.4	357.660	-0.030	0.150	-0.430
2020/01/31 17:02:41.5	357.660	-0.030	0.170	-0.410
2020/01/31 17:02:41.6	357.650	-0.030	0.180	-0.380
2020/01/31 17:02:41.7	357.640	-0.030	0.190	-0.360
2020/01/31 17:02:41.8	357.640	-0.030	0.200	-0.330
2020/01/31 17:02:41.9	357.630	-0.030	0.210	-0.300
2020/01/31 17:02:42.0	357.620	-0.020	0.210	-0.280
2020/01/31 17:02:42.1	357.610	-0.020	0.210	-0.250
2020/01/31 17:02:42.2	357.600	-0.010	0.210	-0.230
2020/01/31 17:02:42.3	357.580	0.000	0.210	-0.200
2020/01/31 17:02:42.4	357.570	0.010	0.200	-0.170
2020/01/31 17:02:42.5	357.560	0.030	0.190	-0.150
2020/01/31 17:02:42.6	357.540	0.040	0.180	-0.130
2020/01/31 17:02:42.7	357.530	0.060	0.170	-0.100
2020/01/31 17:02:42.8	357.500	0.070	0.150	-0.080
2020/01/31 17:02:42.9	357.490	0.090	0.130	-0.060
2020/01/31 17:02:43.0	357.480	0.110	0.110	-0.040
2020/01/31 17:02:43.1	357.460	0.130	0.090	-0.020
2020/01/31 17:02:43.2	357.450	0.150	0.060	-0.010
2020/01/31 17:02:43.3	357.440	0.180	0.030	0.000
2020/01/31 17:02:43.4	357.440	0.200	0.000	0.010
2020/01/31 17:02:43.5	357.430	0.220	-0.030	0.020
2020/01/31 17:02:43.6	357.430	0.240	-0.060	0.020
2020/01/31 17:02:43.7	357.430	0.260	-0.100	0.020
2020/01/31 17:02:43.8	357.430	0.280	-0.140	0.010
2020/01/31 17:02:43.9	357.430	0.300	-0.180	0.000
2020/01/31 17:02:44.0	357.440	0.320	-0.220	-0.010
2020/01/31 17:02:44.1	357.460	0.330	-0.260	-0.030
2020/01/31 17:02:44.2	357.470	0.350	-0.300	-0.050
2020/01/31 17:02:44.3	357.490	0.360	-0.340	-0.070
2020/01/31 17:02:44.4	357.520	0.380	-0.390	-0.100
2020/01/31 17:02:44.5	357.540	0.390	-0.430	-0.130
2020/01/31 17:02:44.6	357.570	0.390	-0.470	-0.170
2020/01/31 17:02:44.7	357.610	0.400	-0.500	-0.200
2020/01/31 17:02:44.8	357.640	0.400	-0.540	-0.240
2020/01/31 17:02:44.9	357.680	0.400	-0.570	-0.280
2020/01/31 17:02:45.0	357.710	0.400	-0.600	-0.320
2020/01/31 17:02:45.1	357.750	0.390	-0.620	-0.360
2020/01/31 17:02:45.2	357.790	0.380	-0.640	-0.400
2020/01/31 17:02:45.3	357.830	0.370	-0.660	-0.440
2020/01/31 17:02:45.4	357.870	0.350	-0.670	-0.480
2020/01/31 17:02:45.5	357.900	0.330	-0.670	-0.520
2020/01/31 17:02:45.6	357.940	0.310	-0.670	-0.560
2020/01/31 17:02:45.7	357.970	0.280	-0.660	-0.600
2020/01/31 17:02:45.8	358.000	0.250	-0.650	-0.630
2020/01/31 17:02:45.9	358.030	0.210	-0.630	-0.670
2020/01/31 17:02:46.0	358.060	0.180	-0.600	-0.700
2020/01/31 17:02:46.1	358.080	0.140	-0.570	-0.730
2020/01/31 17:02:46.2	358.110	0.090	-0.530	-0.760
2020/01/31 17:02:46.3	358.130	0.050	-0.490	-0.780
2020/01/31 17:02:46.4	358.150	0.000	-0.450	-0.810
2020/01/31 17:02:46.5	358.160	-0.050	-0.400	-0.830
2020/01/31 17:02:46.6	358.180	-0.100	-0.350	-0.850
2020/01/31 17:02:46.7	358.190	-0.150	-0.300	-0.870
2020/01/31 17:02:46.8	358.200	-0.200	-0.240	-0.880
2020/01/31 17:02:46.9	358.200	-0.260	-0.190	-0.890
2020/01/31 17:02:47.0	358.210	-0.310	-0.130	-0.910
2020/01/31 17:02:47.1	358.210	-0.360	-0.080	-0.920
2020/01/31 17:02:47.2	358.220	-0.410	-0.020	-0.930
2020/01/31 17:02:47.3	358.220	-0.460	0.030	-0.940
2020/01/31 17:02:47.4	358.220	-0.510	0.080	-0.940
2020/01/31 17:02:47.5	358.220	-0.560	0.120	-0.950
2020/01/31 17:02:47.6	358.220	-0.600	0.160	-0.950
2020/01/31 17:02:47.7	358.210	-0.640	0.200	-0.950
2020/01/31 17:02:47.8	358.210	-0.680	0.230	-0.950
2020/01/31 17:02:47.9	358.210	-0.710	0.260	-0.950
2020/01/31 17:02:48.0	358.200	-0.740	0.280	-0.940
2020/01/31 17:02:48.1	358.190	-0.770	0.300	-0.940
2020/01/31 17:02:48.2	358.180	-0.790	0.310	-0.930
2020/01/31 17:02:48.3	358.170	-0.810	0.310	-0.920
2020/01/31 17:02:48.4	358.160	-0.820	0.310	-0.900
2020/01/31 17:02:48.5	358.140	-0.830	0.300	-0.880
2020/01/31 17:02:48.6	358.120	-0.830	0.290	-0.860
2020/01/31 17:02:48.7	358.100	-0.830	0.270	-0.840
2020/01/31 17:02:48.8	358.080	-0.830	0.250	-0.810
2020/01/31 17:02:48.9	358.060	-0.810	0.220	-0.780
2020/01/31 17:02:49.0	358.030	-0.800	0.190	-0.750
2020/01/31 17:02:49.1	358.010	-0.770	0.150	-0.710
2020/01/31 17:02:49.2	357.980	-0.750	0.110	-0.680
2020/01/31 17:02:49.3	357.950	-0.710	0.070	-0.640
2020/01/31 17:02:49.4	357.920	-0.670	0.030	-0.600
2020/01/31 17:02:49.5	357.890	-0.630	-0.020	-0.550
2020/01/31 17:02:49.6	357.850	-0.590	-0.070	-0.510
2020/01/31 17:02:49.7	357.820	-0.530	-0.120	-0.460
2020/01/31 17:02:49.8	357.790	-0.480	-0.170	-0.410
2020/01/31 17:02:49.9	357.750	-0.420	-0.220	-0.360
2020/01/31 17:02:50.0	357.710	-0.360	-0.270	-0.310
2020/01/31 17:02:50.1	357.680	-0.290	-0.320	-0.260
2020/01/31 17:02:50.2	357.640	-0.230	-0.380	-0.210
2020/01/31 17:02:50.3	357.600	-0.160	-0.430	-0.160
2020/01/31 17:02:50.4	357.560	-0.090	-0.480	-0.110
2020/01/31 17:02:50.5	357.520	-0.010	-0.540	-0.060
2020/01/31 17:02:50.6	357.490	0.060	-0.590	-0.010
2020/01/31 17:02:50.7	357.460	0.130	-0.640	0.040
2020/01/31 17:02:50.8	357.420	0.200	-0.690	0.090
2020/01/31 17:02:50.9	357.390	0.270	-0.730	0.130
2020/01/31 17:02:51.0	357.370	0.340	-0.780	0.160
2020/01/31 17:02:51.1	357.340	0.410	-0.820	0.190
2020/01/31 17:02:51.2	357.320	0.470	-0.860	0.220
2020/01/31 17:02:51.3	357.310	0.530	-0.890	0.250
2020/01/31 17:02:51.4	357.290	0.590	-0.920	0.270
2020/01/31 17:02:51.5	357.290	0.650	-0.950	0.280
2020/01/31 17:02:51.6	357.280	0.700	-0.980	0.300
2020/01/31 17:02:51.7	357.280	0.740	-1.000	0.300
2020/01/31 17:02:51.8	357.290	0.790	-1.010	0.300
2020/01/31 17:02:51.9	357.300	0.820	-1.030	0.300
2020/01/31 17:02:52.0	357.310	0.860	-1.040	0.300
2020/01/31 17:02:52.1	357.330	0.880	-1.040	0.290
2020/01/31 17:02:52.2	357.350	0.910	-1.040	0.280
2020/01/31 17:02:52.3	357.370	0.920	-1.030	0.270
2020/01/31 17:02:52.4	357.400	0.940	-1.020	0.250
2020/01/31 17:02:52.5	357.430	0.940	-1.010	0.240
2020/01/31 17:02:52.6	357.460	0.950	-0.990	0.220
2020/01/31 17:02:52.7	357.500	0.940	-0.960	0.200
2020/01/31 17:02:52.8	357.540	0.940	-0.940	0.180
2020/01/31 17:02:52.9	357.580	0.920	-0.900	0.160
2020/01/31 17:02:53.0	357.620	0.910	-0.860	0.130
2020/01/31 17:02:53.1	357.670	0.890	-0.820	0.110
2020/01/31 17:02:53.2	357.710	0.860	-0.770	0.090
2020/01/31 17:02:53.3	357.760	0.830	-0.720	0.060
2020/01/31 17:02:53.4	357.800	0.800	-0.660	0.040
2020/01/31 17:02:53.5	357.850	0.760	-0.600	0.020
2020/01/31 17:02:53.6	357.900	0.720	-0.540	-0.010
2020/01/31 17:02:53.7	357.950	0.670	-0.480	-0.030
2020/01/31 17:02:53.8	358.000	0.630	-0.410	-0.050
2020/01/31 17:02:53.9	358.040	0.580	-0.340	-0.070
2020/01/31 17:02:54.0	358.090	0.530	-0.270	-0.090
2020/01/31 17:02:54.1	358.130	0.480	-0.190	-0.100
2020/01/31 17:02:54.2	358.170	0.420	-0.120	-0.120
2020/01/31 17:02:54.3	358.210	0.360	-0.040	-0.130
2020/01/31 17:02:54.4	358.240	0.310	0.030	-0.150
2020/01/31 17:02:54.5	358.270	0.250	0.110	-0.160
2020/01/31 17:02:54.6	358.300	0.190	0.180	-0.170
2020/01/31 17:02:54.7	358.330	0.140	0.250	-0.170
2020/01/31 17:02:54.8	358.350	0.080	0.320	-0.180
2020/01/31 17:02:54.9	358.370	0.020	0.390	-0.180
2020/01/31 17:02:55.0	358.380	-0.040	0.450	-0.180
2020/01/31 17:02:55.1	358.390	-0.090	0.510	-0.180
2020/01/31 17:02:55.2	358.400	-0.150	0.570	-0.180
2020/01/31 17:02:55.3	358.410	-0.200	0.620	-0.180
2020/01/31 17:02:55.4	358.410	-0.250	0.670	-0.170
2020/01/31 17:02:55.5	358.410	-0.300	0.710	-0.170
2020/01/31 17:02:55.6	358.410	-0.350	0.750	-0.170
2020/01/31 17:02:55.7	358.400	-0.390	0.780	-0.160
2020/01/31 17:02:55.8	358.400	-0.440	0.810	-0.160
2020/01/31 17:02:55.9	358.390	-0.480	0.820	-0.150
2020/01/31 17:02:56.0	358.380	-0.520	0.830	-0.160
2020/01/31 17:02:56.1	358.360	-0.550	0.830	-0.160
2020/01/31 17:02:56.2	358.350	-0.580	0.830	-0.160
2020/01/31 17:02:56.3	358.340	-0.610	0.820	-0.170
2020/01/31 17:02:56.4	358.330	-0.640	0.800	-0.180
2020/01/31 17:02:56.5	358.310	-0.660	0.770	-0.190
2020/01/31 17:02:56.6	358.300	-0.680	0.740	-0.200
2020/01/31 17:02:56.7	358.280	-0.690	0.700	-0.220
2020/01/31 17:02:56.8	358.270	-0.710	0.650	-0.230
2020/01/31 17:02:56.9	358.250	-0.720	0.600	-0.250
2020/01/31 17:02:57.0	358.230	-0.720	0.540	-0.270
2020/01/31 17:02:57.1	358.210	-0.720	0.480	-0.280
2020/01/31 17:02:57.2	358.190	-0.720	0.410	-0.300
2020/01/31 17:02:57.3	358.170	-0.720	0.350	-0.330
2020/01/31 17:02:57.4	358.140	-0.710	0.280	-0.350
2020/01/31 17:02:57.5	358.120	-0.700	0.200	-0.370
2020/01/31 17:02:57.6	358.090	-0.690	0.130	-0.390
2020/01/31 17:02:57.7	358.070	-0.680	0.050	-0.410
2020/01/31 17:02:57.8	358.030	-0.660	-0.020	-0.440
2020/01/31 17:02:57.9	358.000	-0.640	-0.100	-0.460
2020/01/31 17:02:58.0	357.970	-0.610	-0.170	-0.490
2020/01/31 17:02:58.1	357.940	-0.590	-0.250	-0.510
2020/01/31 17:02:58.2	357.910	-0.560	-0.320	-0.530
2020/01/31 17:02:58.3	357.870	-0.530	-0.390	-0.550
2020/01/31 17:02:58.4	357.840	-0.500	-0.460	-0.580
2020/01/31 17:02:58.5	357.800	-0.470	-0.520	-0.600
2020/01/31 17:02:58.6	357.760	-0.440	-0.580	-0.610
2020/01/31 17:02:58.7	357.730	-0.400	-0.640	-0.630
2020/01/31 17:02:58.8	357.670	-0.370	-0.690	-0.650
2020/01/31 17:02:58.9	357.630	-0.330	-0.740	-0.660
2020/01/31 17:02:59.0	357.600	-0.300	-0.780	-0.680
2020/01/31 17:02:59.1	357.560	-0.260	-0.820	-0.690
2020/01/31 17:02:59.2	357.530	-0.230	-0.850	-0.710
2020/01/31 17:02:59.3	357.500	-0.190	-0.880	-0.720
2020/01/31 17:02:59.4	357.470	-0.160	-0.910	-0.730
2020/01/31 17:02:59.5	357.440	-0.120	-0.920	-0.740
2020/01/31 17:02:59.6	357.420	-0.090	-0.940	-0.750
2020/01/31 17:02:59.7	357.400	-0.060	-0.950	-0.760
2020/01/31 17:02:59.8	357.380	-0.030	-0.950	-0.760
2020/01/31 17:02:59.9	357.360	0.000	-0.950	-0.770
2020/01/31 17:03:00.0	357.350	0.030	-0.950	-0.780
2020/01/31 17:03:00.1	357.340	0.060	-0.940	-0.780
2020/01/31 17:03:00.2	357.340	0.090	-0.940	-0.790
2020/01/31 17:03:00.3	357.340	0.120	-0.930	-0.800
2020/01/31 17:03:00.4	357.350	0.140	-0.910	-0.810
2020/01/31 17:03:00.5	357.360	0.170	-0.900	-0.820
2020/01/31 17:03:00.6	357.380	0.190	-0.890	-0.830
2020/01/31 17:03:00.7	357.400	0.210	-0.880	-0.840
2020/01/31 17:03:00.8	357.430	0.240	-0.860	-0.850
2020/01/31 17:03:00.9	357.470	0.260	-0.850	-0.870
2020/01/31 17:03:01.0	357.500	0.280	-0.840	-0.890
2020/01/31 17:03:01.1	357.540	0.300	-0.820	-0.900
2020/01/31 17:03:01.2	357.590	0.320	-0.810	-0.920
2020/01/31 17:03:01.3	357.640	0.340	-0.800	-0.930
2020/01/31 17:03:01.4	357.690	0.350	-0.780	-0.950
2020/01/31 17:03:01.5	357.740	0.370	-0.770	-0.960
2020/01/31 17:03:01.6	357.790	0.380	-0.750	-0.970
2020/01/31 17:03:01.7	357.850	0.400	-0.730	-0.980
2020/01/31 17:03:01.8	357.900	0.410	-0.710	-0.980
2020/01/31 17:03:01.9	357.960	0.420	-0.680	-0.980
2020/01/31 17:03:02.0	358.010	0.430	-0.650	-0.980
2020/01/31 17:03:02.1	358.060	0.430	-0.620	-0.980
2020/01/31 17:03:02.2	358.110	0.440	-0.580	-0.970
2020/01/31 17:03:02.3	358.160	0.440	-0.540	-0.950
2020/01/31 17:03:02.4	358.210	0.440	-0.500	-0.940
2020/01/31 17:03:02.5	358.250	0.440	-0.450	-0.920
2020/01/31 17:03:02.6	358.290	0.440	-0.400	-0.890
2020/01/31 17:03:02.7	358.330	0.430	-0.340	-0.860
2020/01/31 17:03:02.8	358.370	0.420	-0.280	-0.830
2020/01/31 17:03:02.9	358.400	0.410	-0.230	-0.790
2020/01/31 17:03:03.0	358.420	0.400	-0.170	-0.760
2020/01/31 17:03:03.1	358.450	0.390	-0.100	-0.710
2020/01/31 17:03:03.2	358.470	0.380	-0.040	-0.670
2020/01/31 17:03:03.3	358.480	0.360	0.020	-0.620
2020/01/31 17:03:03.4	358.490	0.340	0.090	-0.570
2020/01/31 17:03:03.5	358.500	0.320	0.150	-0.520
2020/01/31 17:03:03.6	358.510	0.310	0.210	-0.470
2020/01/31 17:03:03.7	358.510	0.280	0.270	-0.410
2020/01/31 17:03:03.8	358.520	0.260	0.320	-0.350
2020/01/31 17:03:03.9	358.510	0.240	0.370	-0.290
2020/01/31 17:03:04.0	358.500	0.220	0.420	-0.240
2020/01/31 17:03:04.1	358.490	0.200	0.470	-0.180
2020/01/31 17:03:04.2	358.480	0.170	0.510	-0.130
2020/01/31 17:03:04.3	358.460	0.150	0.540	-0.080
2020/01/31 17:03:04.4	358.440	0.130	0.570	-0.030
2020/01/31 17:03:04.5	358.420	0.100	0.590	0.020
2020/01/31 17:03:04.6	358.400	0.080	0.610	0.060
2020/01/31 17:03:04.7	358.370	0.060	0.620	0.100
2020/01/31 17:03:04.8	358.360	0.040	0.620	0.130
2020/01/31 17:03:04.9	358.330	0.020	0.620	0.160
2020/01/31 17:03:05.0	358.310	-0.000	0.610	0.190
2020/01/31 17:03:05.1	358.290	-0.020	0.590	0.210
2020/01/31 17:03:05.2	358.260	-0.030	0.560	0.230
2020/01/31 17:03:05.3	358.240	-0.050	0.530	0.240
2020/01/31 17:03:05.4	358.220	-0.060	0.490	0.250
2020/01/31 17:03:05.5	358.200	-0.070	0.450	0.250
2020/01/31 17:03:05.6	358.180	-0.080	0.400	0.250
2020/01/31 17:03:05.7	358.150	-0.090	0.350	0.250
2020/01/31 17:03:05.8	358.130	-0.100	0.290	0.240
2020/01/31 17:03:05.9	358.110	-0.100	0.230	0.230
2020/01/31 17:03:06.0	358.090	-0.110	0.170	0.220
2020/01/31 17:03:06.1	358.080	-0.110	0.100	0.200
2020/01/31 17:03:06.2	358.060	-0.110	0.040	0.180
2020/01/31 17:03:06.3	358.040	-0.110	-0.030	0.160
2020/01/31 17:03:06.4	358.010	-0.110	-0.100	0.140
2020/01/31 17:03:06.5	358.000	-0.110	-0.160	0.110
2020/01/31 17:03:06.6	357.980	-0.110	-0.230	0.080
2020/01/31 17:03:06.7	357.960	-0.100	-0.290	0.050
2020/01/31 17:03:06.8	357.940	-0.100	-0.340	0.020
2020/01/31 17:03:06.9	357.920	-0.100	-0.400	-0.010
2020/01/31 17:03:07.0	357.900	-0.100	-0.450	-0.040
2020/01/31 17:03:07.1	357.890	-0.100	-0.500	-0.080
2020/01/31 17:03:07.2	357.870	-0.100	-0.550	-0.110
2020/01/31 17:03:07.3	357.860	-0.090	-0.590	-0.150
2020/01/31 17:03:07.4	357.850	-0.100	-0.630	-0.190
2020/01/31 17:03:07.5	357.840	-0.100	-0.660	-0.230
2020/01/31 17:03:07.6	357.830	-0.100	-0.690	-0.270
2020/01/31 17:03:07.7	357.820	-0.100	-0.710	-0.310
2020/01/31 17:03:07.8	357.810	-0.100	-0.740	-0.360
2020/01/31 17:03:07.9	357.810	-0.110	-0.750	-0.400
2020/01/31 17:03:08.0	357.810	-0.110	-0.770	-0.450
2020/01/31 17:03:08.1	357.810	-0.120	-0.780	-0.490
2020/01/31 17:03:08.2	357.810	-0.130	-0.780	-0.540
2020/01/31 17:03:08.3	357.820	-0.130	-0.790	-0.590
2020/01/31 17:03:08.4	357.820	-0.140	-0.790	-0.640
2020/01/31 17:03:08.5	357.830	-0.150	-0.790	-0.690
2020/01/31 17:03:08.6	357.840	-0.160	-0.780	-0.740
2020/01/31 17:03:08.7	357.850	-0.170	-0.780	-0.790
2020/01/31 17:03:08.8	357.840	-0.180	-0.770	-0.830
2020/01/31 17:03:08.9	357.850	-0.190	-0.760	-0.880
2020/01/31 17:03:09.0	357.870	-0.210	-0.750	-0.920
2020/01/31 17:03:09.1	357.880	-0.220	-0.740	-0.970
2020/01/31 17:03:09.2	357.890	-0.230	-0.720	-1.010
2020/01/31 17:03:09.3	357.910	-0.240	-0.710	-1.050
2020/01/31 17:03:09.4	357.920	-0.250	-0.690	-1.080
2020/01/31 17:03:09.5	357.940	-0.260	-0.670	-1.120
2020/01/31 17:03:09.6	357.960	-0.270	-0.650	-1.150
2020/01/31 17:03:09.7	357.980	-0.270	-0.630	-1.180
2020/01/31 17:03:09.8	358.000	-0.280	-0.610	-1.220
2020/01/31 17:03:09.9	358.020	-0.280	-0.590	-1.240
2020/01/31 17:03:10.0	358.040	-0.290	-0.570	-1.270
2020/01/31 17:03:10.1	358.070	-0.290	-0.550	-1.300
2020/01/31 17:03:10.2	358.090	-0.290	-0.530	-1.320
2020/01/31 17:03:10.3	358.120	-0.290	-0.510	-1.340
2020/01/31 17:03:10.4	358.140	-0.290	-0.500	-1.350
2020/01/31 17:03:10.5	358.170	-0.280	-0.480	-1.370
2020/01/31 17:03:10.6	358.190	-0.270	-0.460	-1.380
2020/01/31 17:03:10.7	358.220	-0.270	-0.440	-1.390
2020/01/31 17:03:10.8	358.250	-0.260	-0.420	-1.390
2020/01/31 17:03:10.9	358.280	-0.240	-0.400	-1.390
2020/01/31 17:03:11.0	358.310	-0.230	-0.390	-1.390
2020/01/31 17:03:11.1	358.330	-0.210	-0.370	-1.380
2020/01/31 17:03:11.2	358.360	-0.200	-0.350	-1.380
2020/01/31 17:03:11.3	358.390	-0.180	-0.340	-1.370
2020/01/31 17:03:11.4	358.420	-0.160	-0.320	-1.350
2020/01/31 17:03:11.5	358.440	-0.130	-0.310	-1.330
2020/01/31 17:03:11.6	358.470	-0.110	-0.300	-1.310
2020/01/31 17:03:11.7	358.500	-0.090	-0.280	-1.290
2020/01/31 17:03:11.8	358.550	-0.060	-0.270	-1.250
2020/01/31 17:03:11.9	358.580	-0.030	-0.260	-1.220
2020/01/31 17:03:12.0	358.610	-0.010	-0.250	-1.190
2020/01/31 17:03:12.1	358.630	0.020	-0.240	-1.150
2020/01/31 17:03:12.2	358.660	0.050	-0.220	-1.110
2020/01/31 17:03:12.3	358.680	0.080	-0.210	-1.060
2020/01/31 17:03:12.4	358.710	0.110	-0.200	-1.020
2020/01/31 17:03:12.5	358.730	0.140	-0.180	-0.970
2020/01/31 17:03:12.6	358.750	0.160	-0.170	-0.910
2020/01/31 17:03:12.7	358.770	0.190	-0.150	-0.860
2020/01/31 17:03:12.8	358.800	0.220	-0.140	-0.790
2020/01/31 17:03:12.9	358.810	0.240	-0.120	-0.730
2020/01/31 17:03:13.0	358.820	0.270	-0.100	-0.670
2020/01/31 17:03:13.1	358.830	0.290	-0.080	-0.600
2020/01/31 17:03:13.2	358.830	0.310	-0.060	-0.530
2020/01/31 17:03:13.3	358.840	0.330	-0.030	-0.460
2020/01/31 17:03:13.4	358.840	0.350	-0.010	-0.390
2020/01/31 17:03:13.5	358.830	0.370	0.010	-0.320
2020/01/31 17:03:13.6	358.830	0.380	0.030	-0.250
2020/01/31 17:03:13.7	358.830	0.390	0.060	-0.180
2020/01/31 17:03:13.8	358.820	0.400	0.080	-0.100
2020/01/31 17:03:13.9	358.810	0.410	0.100	-0.030
2020/01/31 17:03:14.0	358.800	0.410	0.120	0.040
2020/01/31 17:03:14.1	358.780	0.420	0.140	0.100
2020/01/31 17:03:14.2	358.770	0.420	0.160	0.160
2020/01/31 17:03:14.3	358.750	0.420	0.180	0.220
2020/01/31 17:03:14.4	358.730	0.410	0.190	0.280
2020/01/31 17:03:14.5	358.710	0.400	0.210	0.340
2020/01/31 17:03:14.6	358.690	0.400	0.220	0.380
2020/01/31 17:03:14.7	358.660	0.380	0.230	0.430
2020/01/31 17:03:14.8	358.650	0.370	0.230	0.480
2020/01/31 17:03:14.9	358.620	0.350	0.240	0.510
2020/01/31 17:03:15.0	358.590	0.340	0.240	0.540
2020/01/31 17:03:15.1	358.550	0.320	0.240	0.560
2020/01/31 17:03:15.2	358.520	0.290	0.240	0.580
2020/01/31 17:03:15.3	358.480	0.270	0.240	0.590
2020/01/31 17:03:15.4	358.450	0.240	0.230	0.600
2020/01/31 17:03:15.5	358.410	0.220	0.230	0.600
2020/01/31 17:03:15.6	358.370	0.190	0.220	0.590
2020/01/31 17:03:15.7	358.330	0.160	0.210	0.580
2020/01/31 17:03:15.8	358.290	0.130	0.190	0.550
2020/01/31 17:03:15.9	358.260	0.090	0.180	0.530
2020/01/31 17:03:16.0	358.220	0.060	0.160	0.490
2020/01/31 17:03:16.1	358.190	0.030	0.150	0.450
2020/01/31 17:03:16.2	358.160	-0.010	0.130	0.410
2020/01/31 17:03:16.3	358.130	-0.040	0.100	0.360
2020/01/31 17:03:16.4	358.110	-0.070	0.080	0.300
2020/01/31 17:03:16.5	358.090	-0.110	0.060	0.240
2020/01/31 17:03:16.6	358.070	-0.140	0.030	0.170
2020/01/31 17:03:16.7	358.060	-0.170	0.000	0.100
2020/01/31 17:03:16.8	358.040	-0.200	-0.030	0.020
2020/01/31 17:03:16.9	358.040	-0.230	-0.060	-0.060
2020/01/31 17:03:17.0	358.040	-0.260	-0.090	-0.150
2020/01/31 17:03:17.1	358.040	-0.280	-0.130	-0.230
2020/01/31 17:03:17.2	358.050	-0.310	-0.160	-0.330
2020/01/31 17:03:17.3	358.070	-0.330	-0.200	-0.420
2020/01/31 17:03:17.4	358.090	-0.350	-0.230	-0.510
2020/01/31 17:03:17.5	358.110	-0.370	-0.270	-0.600
2020/01/31 17:03:17.6	358.130	-0.380	-0.310	-0.690
2020/01/31 17:03:17.7	358.160	-0.390	-0.350	-0.780
2020/01/31 17:03:17.8	358.190	-0.400	-0.380	-0.880
2020/01/31 17:03:17.9	358.220	-0.410	-0.420	-0.960
2020/01/31 17:03:18.0	358.260	-0.410	-0.460	-1.040
2020/01/31 17:03:18.1	358.300	-0.410	-0.490	-1.110
2020/01/31 17:03:18.2	358.330	-0.410	-0.530	-1.180
2020/01/31 17:03:18.3	358.370	-0.400	-0.560	-1.240
2020/01/31 17:03:18.4	358.410	-0.400	-0.600	-1.300
2020/01/31 17:03:18.5	358.450	-0.390	-0.630	-1.350
2020/01/31 17:03:18.6	358.500	-0.370	-0.660	-1.400
2020/01/31 17:03:18.7	358.540	-0.360	-0.680	-1.440
2020/01/31 17:03:18.8	358.580	-0.340	-0.710	-1.460
2020/01/31 17:03:18.9	358.620	-0.320	-0.730	-1.490
2020/01/31 17:03:19.0	358.650	-0.300	-0.750	-1.510
2020/01/31 17:03:19.1	358.690	-0.270	-0.760	-1.520
2020/01/31 17:03:19.2	358.730	-0.250	-0.780	-1.520
2020/01/31 17:03:19.3	358.760	-0.220	-0.790	-1.520
2020/01/31 17:03:19.4	358.790	-0.190	-0.800	-1.510
2020/01/31 17:03:19.5	358.820	-0.170	-0.800	-1.500
2020/01/31 17:03:19.6	358.840	-0.140	-0.800	-1.480
2020/01/31 17:03:19.7	358.870	-0.110	-0.800	-1.460
2020/01/31 17:03:19.8	358.890	-0.090	-0.790	-1.430
2020/01/31 17:03:19.9	358.910	-0.060	-0.780	-1.400
2020/01/31 17:03:20.0	358.920	-0.040	-0.770	-1.360
2020/01/31 17:03:20.1	358.940	-0.020	-0.760	-1.320
2020/01/31 17:03:20.2	358.950	0.010	-0.740	-1.280
2020/01/31 17:03:20.3	358.960	0.030	-0.730	-1.240
2020/01/31 17:03:20.4	358.970	0.040	-0.700	-1.200
2020/01/31 17:03:20.5	358.970	0.060	-0.680	-1.150
2020/01/31 17:03:20.6	358.980	0.080	-0.660	-1.100
2020/01/31 17:03:20.7	358.980	0.090	-0.630	-1.050
2020/01/31 17:03:20.8	358.980	0.100	-0.600	-1.000
2020/01/31 17:03:20.9	358.980	0.110	-0.570	-0.940
2020/01/31 17:03:21.0	358.970	0.120	-0.540	-0.890
2020/01/31 17:03:21.1	358.970	0.120	-0.510	-0.830
2020/01/31 17:03:21.2	358.960	0.130	-0.480	-0.770
2020/01/31 17:03:21.3	358.960	0.130	-0.440	-0.720
2020/01/31 17:03:21.4	358.940	0.130	-0.410	-0.660
2020/01/31 17:03:21.5	358.930	0.120	-0.370	-0.600
2020/01/31 17:03:21.6	358.910	0.120	-0.340	-0.540
2020/01/31 17:03:21.7	358.900	0.110	-0.300	-0.490
2020/01/31 17:03:21.8	358.880	0.100	-0.270	-0.420
2020/01/31 17:03:21.9	358.860	0.090	-0.230	-0.370
2020/01/31 17:03:22.0	358.840	0.070	-0.200	-0.320
2020/01/31 17:03:22.1	358.820	0.060	-0.170	-0.280
2020/01/31 17:03:22.2	358.800	0.050	-0.140	-0.240
2020/01/31 17:03:22.3	358.790	0.030	-0.120	-0.200
2020/01/31 17:03:22.4	358.770	0.020	-0.090	-0.170
2020/01/31 17:03:22.5	358.750	0.000	-0.070	-0.150
2020/01/31 17:03:22.6	358.740	-0.010	-0.060	-0.130
2020/01/31 17:03:22.7	358.730	-0.030	-0.040	-0.120
2020/01/31 17:03:22.8	358.720	-0.040	-0.030	-0.110
2020/01/31 17:03:22.9	358.720	-0.050	-0.020	-0.110
2020/01/31 17:03:23.0	358.710	-0.060	-0.020	-0.110
2020/01/31 17:03:23.1	358.710	-0.070	-0.020	-0.120
2020/01/31 17:03:23.2	358.720	-0.070	-0.030	-0.130
2020/01/31 17:03:23.3	358.720	-0.070	-0.040	-0.150
2020/01/31 17:03:23.4	358.730	-0.070	-0.050	-0.170
2020/01/31 17:03:23.5	358.740	-0.070	-0.070	-0.190
2020/01/31 17:03:23.6	358.750	-0.060	-0.090	-0.220
2020/01/31 17:03:23.7	358.760	-0.050	-0.110	-0.240
2020/01/31 17:03:23.8	358.770	-0.040	-0.130	-0.270
2020/01/31 17:03:23.9	358.780	-0.030	-0.160	-0.290
2020/01/31 17:03:24.0	358.800	-0.010	-0.180	-0.310
2020/01/31 17:03:24.1	358.810	0.010	-0.210	-0.340
2020/01/31 17:03:24.2	358.830	0.030	-0.230	-0.360
2020/01/31 17:03:24.3	358.840	0.060	-0.250	-0.380
2020/01/31 17:03:24.4	358.860	0.080	-0.280	-0.400
2020/01/31 17:03:24.5	358.870	0.110	-0.300	-0.420
2020/01/31 17:03:24.6	358.890	0.140	-0.310	-0.430
2020/01/31 17:03:24.7	358.900	0.170	-0.330	-0.450
2020/01/31 17:03:24.8	358.900	0.200	-0.340	-0.460
2020/01/31 17:03:24.9	358.910	0.230	-0.360	-0.470
2020/01/31 17:03:25.0	358.920	0.270	-0.370	-0.470
2020/01/31 17:03:25.1	358.930	0.300	-0.380	-0.470
2020/01/31 17:03:25.2	358.940	0.330	-0.380	-0.470
2020/01/31 17:03:25.3	358.950	0.350	-0.390	-0.470
2020/01/31 17:03:25.4	358.960	0.380	-0.390	-0.470
2020/01/31 17:03:25.5	358.970	0.400	-0.380	-0.470
2020/01/31 17:03:25.6	358.980	0.430	-0.380	-0.460
2020/01/31 17:03:25.7	358.980	0.440	-0.370	-0.450
2020/01/31 17:03:25.8	358.980	0.460	-0.360	-0.440
2020/01/31 17:03:25.9	358.980	0.470	-0.350	-0.430
2020/01/31 17:03:26.0	358.980	0.480	-0.340	-0.420
2020/01/31 17:03:26.1	358.980	0.480	-0.320	-0.410
2020/01/31 17:03:26.2	358.980	0.480	-0.300	-0.390
2020/01/31 17:03:26.3	358.970	0.480	-0.270	-0.380
2020/01/31 17:03:26.4	358.960	0.470	-0.250	-0.360
2020/01/31 17:03:26.5	358.950	0.460	-0.220	-0.340
2020/01/31 17:03:26.6	358.940	0.440	-0.190	-0.330
2020/01/31 17:03:26.7	358.930	0.420	-0.160	-0.300
2020/01/31 17:03:26.8	358.910	0.390	-0.120	-0.280
2020/01/31 17:03:26.9	358.890	0.360	-0.090	-0.250
2020/01/31 17:03:27.0	358.870	0.330	-0.050	-0.230
2020/01/31 17:03:27.1	358.850	0.290	-0.010	-0.210
2020/01/31 17:03:27.2	358.820	0.250	0.030	-0.180
2020/01/31 17:03:27.3	358.800	0.210	0.060	-0.160
2020/01/31 17:03:27.4	358.770	0.160	0.100	-0.130
2020/01/31 17:03:27.5	358.740	0.110	0.140	-0.110
2020/01/31 17:03:27.6	358.720	0.060	0.180	-0.090
2020/01/31 17:03:27.7	358.690	0.010	0.210	-0.070
2020/01/31 17:03:27.8	358.660	-0.050	0.250	-0.050
2020/01/31 17:03:27.9	358.640	-0.100	0.270	-0.040
2020/01/31 17:03:28.0	358.610	-0.150	0.300	-0.030
2020/01/31 17:03:28.1	358.590	-0.210	0.320	-0.020
2020/01/31 17:03:28.2	358.570	-0.260	0.330	-0.020
2020/01/31 17:03:28.3	358.550	-0.310	0.340	-0.020
2020/01/31 17:03:28.4	358.540	-0.360	0.340	-0.030
2020/01/31 17:03:28.5	358.520	-0.410	0.330	-0.040
2020/01/31 17:03:28.6	358.510	-0.450	0.320	-0.060
2020/01/31 17:03:28.7	358.500	-0.490	0.300	-0.070
2020/01/31 17:03:28.8	358.490	-0.530	0.280	-0.100
2020/01/31 17:03:28.9	358.490	-0.560	0.250	-0.130
2020/01/31 17:03:29.0	358.490	-0.580	0.210	-0.160
2020/01/31 17:03:29.1	358.490	-0.600	0.160	-0.190
2020/01/31 17:03:29.2	358.490	-0.620	0.110	-0.220
2020/01/31 17:03:29.3	358.500	-0.630	0.060	-0.260
2020/01/31 17:03:29.4	358.500	-0.640	0.000	-0.300
2020/01/31 17:03:29.5	358.510	-0.640	-0.060	-0.330
2020/01/31 17:03:29.6	358.520	-0.630	-0.120	-0.370
2020/01/31 17:03:29.7	358.530	-0.620	-0.190	-0.400
2020/01/31 17:03:29.8	358.550	-0.610	-0.250	-0.440
2020/01/31 17:03:29.9	358.560	-0.580	-0.310	-0.470
2020/01/31 17:03:30.0	358.570	-0.560	-0.370	-0.500
2020/01/31 17:03:30.1	358.590	-0.530	-0.430	-0.530
2020/01/31 17:03:30.2	358.600	-0.500	-0.490	-0.560
2020/01/31 17:03:30.3	358.610	-0.460	-0.540	-0.580
2020/01/31 17:03:30.4	358.630	-0.420	-0.590	-0.600
2020/01/31 17:03:30.5	358.640	-0.380	-0.630	-0.620
2020/01/31 17:03:30.6	358.650	-0.340	-0.670	-0.640
2020/01/31 17:03:30.7	358.660	-0.290	-0.700	-0.650
2020/01/31 17:03:30.8	358.670	-0.250	-0.730	-0.660
2020/01/31 17:03:30.9	358.680	-0.200	-0.750	-0.660
2020/01/31 17:03:31.0	358.690	-0.160	-0.760	-0.670
2020/01/31 17:03:31.1	358.710	-0.110	-0.770	-0.670
2020/01/31 17:03:31.2	358.720	-0.070	-0.770	-0.670
2020/01/31 17:03:31.3	358.730	-0.030	-0.770	-0.660
2020/01/31 17:03:31.4	358.740	0.010	-0.760	-0.650
2020/01/31 17:03:31.5	358.750	0.050	-0.740	-0.640
2020/01/31 17:03:31.6	358.760	0.080	-0.720	-0.620
2020/01/31 17:03:31.7	358.770	0.110	-0.690	-0.600
2020/01/31 17:03:31.8	358.790	0.140	-0.660	-0.580
2020/01/31 17:03:31.9	358.800	0.170	-0.620	-0.550
2020/01/31 17:03:32.0	358.800	0.190	-0.580	-0.520
2020/01/31 17:03:32.1	358.810	0.200	-0.540	-0.490
2020/01/31 17:03:32.2	358.820	0.220	-0.490	-0.450
2020/01/31 17:03:32.3	358.830	0.230	-0.450	-0.420
2020/01/31 17:03:32.4	358.830	0.230	-0.400	-0.380
2020/01/31 17:03:32.5	358.830	0.230	-0.350	-0.340
2020/01/31 17:03:32.6	358.840	0.230	-0.300	-0.300
2020/01/31 17:03:32.7	358.840	0.220	-0.250	-0.260
2020/01/31 17:03:32.8	358.840	0.220	-0.200	-0.210
2020/01/31 17:03:32.9	358.840	0.200	-0.150	-0.170
2020/01/31 17:03:33.0	358.840	0.190	-0.100	-0.130
2020/01/31 17:03:33.1	358.840	0.170	-0.060	-0.090
2020/01/31 17:03:33.2	358.830	0.150	-0.010	-0.050
2020/01/31 17:03:33.3	358.830	0.130	0.020	-0.020
2020/01/31 17:03:33.4	358.820	0.100	0.060	0.010
2020/01/31 17:03:33.5	358.820	0.080	0.090	0.040
2020/01/31 17:03:33.6	358.820	0.050	0.110	0.060
2020/01/31 17:03:33.7	358.810	0.030	0.130	0.080
2020/01/31 17:03:33.8	358.820	0.010	0.140	0.100
2020/01/31 17:03:33.9	358.820	-0.020	0.150	0.110
2020/01/31 17:03:34.0	358.810	-0.040	0.150	0.120
2020/01/31 17:03:34.1	358.810	-0.060	0.150	0.120
2020/01/31 17:03:34.2	358.810	-0.080	0.140	0.120
2020/01/31 17:03:34.3	358.800	-0.100	0.130	0.120
2020/01/31 17:03:34.4	358.800	-0.110	0.110	0.110
2020/01/31 17:03:34.5	358.790	-0.120	0.080	0.100
2020/01/31 17:03:34.6	358.790	-0.130	0.060	0.090
2020/01/31 17:03:34.7	358.780	-0.140	0.030	0.080
2020/01/31 17:03:34.8	358.790	-0.140	-0.010	0.060
2020/01/31 17:03:34.9	358.790	-0.140	-0.040	0.050
2020/01/31 17:03:35.0	358.780	-0.140	-0.080	0.030
2020/01/31 17:03:35.1	358.780	-0.130	-0.120	0.010
2020/01/31 17:03:35.2	358.770	-0.120	-0.160	-0.010
2020/01/31 17:03:35.3	358.770	-0.110	-0.210	-0.040
2020/01/31 17:03:35.4	358.770	-0.090	-0.250	-0.060
2020/01/31 17:03:35.5	358.760	-0.080	-0.300	-0.080
2020/01/31 17:03:35.6	358.760	-0.060	-0.350	-0.110
2020/01/31 17:03:35.7	358.750	-0.030	-0.390	-0.130
2020/01/31 17:03:35.8	358.740	-0.010	-0.440	-0.160
2020/01/31 17:03:35.9	358.740	0.020	-0.480	-0.190
2020/01/31 17:03:36.0	358.740	0.040	-0.530	-0.210
2020/01/31 17:03:36.1	358.730	0.070	-0.580	-0.240
2020/01/31 17:03:36.2	358.730	0.100	-0.620	-0.270
2020/01/31 17:03:36.3	358.730	0.130	-0.670	-0.300
2020/01/31 17:03:36.4	358.730	0.160	-0.720	-0.330
2020/01/31 17:03:36.5	358.730	0.190	-0.760	-0.360
2020/01/31 17:03:36.6	358.730	0.220	-0.800	-0.400
2020/01/31 17:03:36.7	358.740	0.250	-0.840	-0.430
2020/01/31 17:03:36.8	358.740	0.280	-0.880	-0.470
2020/01/31 17:03:36.9	358.740	0.300	-0.910	-0.500
2020/01/31 17:03:37.0	358.750	0.330	-0.940	-0.540
2020/01/31 17:03:37.1	358.750	0.350	-0.960	-0.570
2020/01/31 17:03:37.2	358.760	0.380	-0.980	-0.610
2020/01/31 17:03:37.3	358.760	0.400	-1.000	-0.640
2020/01/31 17:03:37.4	358.770	0.420	-1.010	-0.670
2020/01/31 17:03:37.5	358.780	0.430	-1.010	-0.700
2020/01/31 17:03:37.6	358.790	0.450	-1.010	-0.730
2020/01/31 17:03:37.7	358.800	0.460	-1.000	-0.750
2020/01/31 17:03:37.8	358.810	0.470	-0.990	-0.770
2020/01/31 17:03:37.9	358.820	0.480	-0.970	-0.780
2020/01/31 17:03:38.0	358.830	0.480	-0.940	-0.790
2020/01/31 17:03:38.1	358.830	0.480	-0.900	-0.800
2020/01/31 17:03:38.2	358.840	0.480	-0.860	-0.800
2020/01/31 17:03:38.3	358.840	0.480	-0.810	-0.800
2020/01/31 17:03:38.4	358.840	0.470	-0.760	-0.800
2020/01/31 17:03:38.5	358.850	0.470	-0.690	-0.780
2020/01/31 17:03:38.6	358.850	0.460	-0.630	-0.770
2020/01/31 17:03:38.7	358.840	0.440	-0.560	-0.750
2020/01/31 17:03:38.8	358.840	0.430	-0.490	-0.720
2020/01/31 17:03:38.9	358.830	0.410	-0.410	-0.690
2020/01/31 17:03:39.0	358.820	0.390	-0.330	-0.660
2020/01/31 17:03:39.1	358.810	0.370	-0.250	-0.620
2020/01/31 17:03:39.2	358.800	0.350	-0.160	-0.580
2020/01/31 17:03:39.3	358.790	0.330	-0.080	-0.540
2020/01/31 17:03:39.4	358.770	0.300	0.000	-0.500
2020/01/31 17:03:39.5	358.750	0.280	0.080	-0.450
2020/01/31 17:03:39.6	358.730	0.250	0.160	-0.410
2020/01/31 17:03:39.7	358.710	0.220	0.240	-0.360
2020/01/31 17:03:39.8	358.690	0.200	0.310	-0.300
2020/01/31 17:03:39.9	358.670	0.170	0.380	-0.260
2020/01/31 17:03:40.0	358.650	0.140	0.440	-0.210
2020/01/31 17:03:40.1	358.620	0.110	0.500	-0.160
2020/01/31 17:03:40.2	358.600	0.080	0.550	-0.120
2020/01/31 17:03:40.3	358.580	0.060	0.600	-0.070
2020/01/31 17:03:40.4	358.560	0.030	0.630	-0.030
2020/01/31 17:03:40.5	358.540	0.000	0.660	0.010
2020/01/31 17:03:40.6	358.520	-0.020	0.690	0.040
2020/01/31 17:03:40.7	358.500	-0.050	0.700	0.070
2020/01/31 17:03:40.8	358.490	-0.070	0.710	0.100
2020/01/31 17:03:40.9	358.480	-0.100	0.710	0.130
2020/01/31 17:03:41.0	358.460	-0.120	0.700	0.150
2020/01/31 17:03:41.1	358.460	-0.140	0.690	0.160
2020/01/31 17:03:41.2	358.450	-0.160	0.660	0.180
2020/01/31 17:03:41.3	358.450	-0.180	0.630	0.180
2020/01/31 17:03:41.4	358.450	-0.190	0.600	0.190
2020/01/31 17:03:41.5	358.440	-0.210	0.550	0.180
2020/01/31 17:03:41.6	358.450	-0.220	0.500	0.180
2020/01/31 17:03:41.7	358.450	-0.240	0.450	0.170
2020/01/31 17:03:41.8	358.450	-0.250	0.400	0.150
2020/01/31 17:03:41.9	358.460	-0.260	0.340	0.130
2020/01/31 17:03:42.0	358.470	-0.280	0.270	0.110
2020/01/31 17:03:42.1	358.480	-0.290	0.210	0.090
2020/01/31 17:03:42.2	358.490	-0.300	0.140	0.060
2020/01/31 17:03:42.3	358.500	-0.310	0.070	0.030
2020/01/31 17:03:42.4	358.510	-0.320	0.010	-0.010
2020/01/31 17:03:42.5	358.520	-0.330	-0.060	-0.040
2020/01/31 17:03:42.6	358.540	-0.330	-0.130	-0.080
2020/01/31 17:03:42.7	358.550	-0.340	-0.190	-0.120
2020/01/31 17:03:42.8	358.550	-0.350	-0.250	-0.160
2020/01/31 17:03:42.9	358.570	-0.360	-0.300	-0.200
2020/01/31 17:03:43.0	358.580	-0.360	-0.360	-0.240
2020/01/31 17:03:43.1	358.600	-0.370	-0.410	-0.290
2020/01/31 17:03:43.2	358.610	-0.380	-0.450	-0.330
2020/01/31 17:03:43.3	358.630	-0.380	-0.490	-0.370
2020/01/31 17:03:43.4	358.650	-0.390	-0.530	-0.410
2020/01/31 17:03:43.5	358.660	-0.390	-0.560	-0.450
2020/01/31 17:03:43.6	358.680	-0.400	-0.590	-0.490
2020/01/31 17:03:43.7	358.690	-0.400	-0.610	-0.520
2020/01/31 17:03:43.8	358.700	-0.410	-0.630	-0.560
2020/01/31 17:03:43.9	358.720	-0.410	-0.650	-0.600
2020/01/31 17:03:44.0	358.730	-0.420	-0.660	-0.630
2020/01/31 17:03:44.1	358.750	-0.420	-0.670	-0.660
2020/01/31 17:03:44.2	358.760	-0.420	-0.670	-0.690
2020/01/31 17:03:44.3	358.770	-0.420	-0.670	-0.720
2020/01/31 17:03:44.4	358.790	-0.430	-0.670	-0.750
2020/01/31 17:03:44.5	358.800	-0.430	-0.670	-0.770
2020/01/31 17:03:44.6	358.810	-0.420	-0.660	-0.790
2020/01/31 17:03:44.7	358.820	-0.420	-0.650	-0.810
2020/01/31 17:03:44.8	358.850	-0.420	-0.640	-0.830
2020/01/31 17:03:44.9	358.860	-0.410	-0.630	-0.850
2020/01/31 17:03:45.0	358.870	-0.410	-0.620	-0.860
2020/01/31 17:03:45.1	358.890	-0.400	-0.610	-0.870
2020/01/31 17:03:45.2	358.900	-0.390	-0.600	-0.880
2020/01/31 17:03:45.3	358.910	-0.370	-0.580	-0.890
2020/01/31 17:03:45.4	358.920	-0.360	-0.570	-0.890
2020/01/31 17:03:45.5	358.930	-0.340	-0.560	-0.900
2020/01/31 17:03:45.6	358.940	-0.320	-0.540	-0.890
2020/01/31 17:03:45.7	358.950	-0.300	-0.530	-0.890
2020/01/31 17:03:45.8	358.970	-0.280	-0.510	-0.880
2020/01/31 17:03:45.9	358.970	-0.250	-0.500	-0.860
2020/01/31 17:03:46.0	358.980	-0.220	-0.480	-0.850
2020/01/31 17:03:46.1	358.990	-0.200	-0.460	-0.820
2020/01/31 17:03:46.2	358.990	-0.170	-0.440	-0.800
2020/01/31 17:03:46.3	358.990	-0.130	-0.420	-0.770
2020/01/31 17:03:46.4	358.980	-0.100	-0.400	-0.730
2020/01/31 17:03:46.5	358.970	-0.070	-0.380	-0.690
2020/01/31 17:03:46.6	358.960	-0.040	-0.350	-0.650
2020/01/31 17:03:46.7	358.940	-0.010	-0.330	-0.600
2020/01/31 17:03:46.8	358.910	0.020	-0.310	-0.550
2020/01/31 17:03:46.9	358.890	0.040	-0.280	-0.500
2020/01/31 17:03:47.0	358.860	0.070	-0.250	-0.450
2020/01/31 17:03:47.1	358.820	0.090	-0.220	-0.400
2020/01/31 17:03:47.2	358.790	0.110	-0.190	-0.350
2020/01/31 17:03:47.3	358.750	0.130	-0.160	-0.310
2020/01/31 17:03:47.4	358.700	0.150	-0.130	-0.260
2020/01/31 17:03:47.5	358.660	0.160	-0.110	-0.210
2020/01/31 17:03:47.6	358.620	0.180	-0.080	-0.160
2020/01/31 17:03:47.7	358.570	0.190	-0.060	-0.120
2020/01/31 17:03:47.8	358.520	0.190	-0.030	-0.070
2020/01/31 17:03:47.9	358.480	0.200	-0.020	-0.030
2020/01/31 17:03:48.0	358.430	0.200	-0.000	0.000
2020/01/31 17:03:48.1	358.390	0.200	0.010	0.040
2020/01/31 17:03:48.2	358.350	0.200	0.020	0.070
2020/01/31 17:03:48.3	358.310	0.200	0.020	0.090
2020/01/31 17:03:48.4	358.280	0.200	0.020	0.120
2020/01/31 17:03:48.5	358.240	0.190	0.020	0.140
2020/01/31 17:03:48.6	358.220	0.190	0.010	0.150
2020/01/31 17:03:48.7	358.190	0.180	-0.000	0.160
2020/01/31 17:03:48.8	358.170	0.180	-0.020	0.170
2020/01/31 17:03:48.9	358.150	0.170	-0.040	0.170
2020/01/31 17:03:49.0	358.130	0.170	-0.070	0.170
2020/01/31 17:03:49.1	358.120	0.170	-0.090	0.160
2020/01/31 17:03:49.2	358.110	0.170	-0.130	0.150
2020/01/31 17:03:49.3	358.100	0.170	-0.160	0.140
2020/01/31 17:03:49.4	358.100	0.170	-0.200	0.120
2020/01/31 17:03:49.5	358.090	0.170	-0.230	0.110
2020/01/31 17:03:49.6	358.090	0.180	-0.270	0.100
2020/01/31 17:03:49.7	358.090	0.190	-0.310	0.080
2020/01/31 17:03:49.8	358.090	0.200	-0.340	0.060
2020/01/31 17:03:49.9	358.090	0.210	-0.380	0.050
2020/01/31 17:03:50.0	358.100	0.220	-0.410	0.040
2020/01/31 17:03:50.1	358.100	0.240	-0.440	0.030
2020/01/31 17:03:50.2	358.100	0.250	-0.470	0.020
2020/01/31 17:03:50.3	358.100	0.270	-0.500	0.010
2020/01/31 17:03:50.4	358.100	0.290	-0.520	-0.000
2020/01/31 17:03:50.5	358.100	0.310	-0.540	-0.010
2020/01/31 17:03:50.6	358.100	0.320	-0.560	-0.020
2020/01/31 17:03:50.7	358.100	0.340	-0.570	-0.030
2020/01/31 17:03:50.8	358.080	0.360	-0.580	-0.030
2020/01/31 17:03:50.9	358.080	0.380	-0.590	-0.040
2020/01/31 17:03:51.0	358.090	0.400	-0.600	-0.060
2020/01/31 17:03:51.1	358.090	0.410	-0.600	-0.070
2020/01/31 17:03:51.2	358.090	0.430	-0.600	-0.080
2020/01/31 17:03:51.3	358.100	0.440	-0.600	-0.100
2020/01/31 17:03:51.4	358.100	0.450	-0.590	-0.120
2020/01/31 17:03:51.5	358.110	0.460	-0.590	-0.140
2020/01/31 17:03:51.6	358.110	0.460	-0.580	-0.160
2020/01/31 17:03:51.7	358.120	0.470	-0.580	-0.180
2020/01/31 17:03:51.8	358.130	0.470	-0.570	-0.200
2020/01/31 17:03:51.9	358.140	0.470	-0.560	-0.220
2020/01/31 17:03:52.0	358.150	0.470	-0.550	-0.250
2020/01/31 17:03:52.1	358.160	0.460	-0.530	-0.270
2020/01/31 17:03:52.2	358.170	0.450	-0.520	-0.290
2020/01/31 17:03:52.3	358.190	0.440	-0.510	-0.320
2020/01/31 17:03:52.4	358.200	0.430	-0.500	-0.340
2020/01/31 17:03:52.5	358.220	0.420	-0.480	-0.360
2020/01/31 17:03:52.6	358.240	0.400	-0.470	-0.380
2020/01/31 17:03:52.7	358.250	0.380	-0.450	-0.400
2020/01/31 17:03:52.8	358.280	0.360	-0.430	-0.410
2020/01/31 17:03:52.9	358.300	0.330	-0.420	-0.430
2020/01/31 17:03:53.0	358.320	0.310	-0.400	-0.440
2020/01/31 17:03:53.1	358.340	0.280	-0.380	-0.460
2020/01/31 17:03:53.2	358.360	0.250	-0.360	-0.470
2020/01/31 17:03:53.3	358.380	0.220	-0.330	-0.480
2020/01/31 17:03:53.4	358.400	0.190	-0.310	-0.490
2020/01/31 17:03:53.5	358.410	0.150	-0.280	-0.500
2020/01/31 17:03:53.6	358.430	0.120	-0.260	-0.500
2020/01/31 17:03:53.7	358.450	0.080	-0.230	-0.510
2020/01/31 17:03:53.8	358.470	0.050	-0.200	-0.510
2020/01/31 17:03:53.9	358.490	0.010	-0.160	-0.510
2020/01/31 17:03:54.0	358.500	-0.030	-0.130	-0.510
2020/01/31 17:03:54.1	358.510	-0.070	-0.090	-0.510
2020/01/31 17:03:54.2	358.520	-0.110	-0.060	-0.510
2020/01/31 17:03:54.3	358.530	-0.150	-0.020	-0.510
2020/01/31 17:03:54.4	358.540	-0.190	0.020	-0.500
2020/01/31 17:03:54.5	358.540	-0.230	0.060	-0.500
2020/01/31 17:03:54.6	358.540	-0.270	0.100	-0.490
2020/01/31 17:03:54.7	358.540	-0.310	0.140	-0.490
2020/01/31 17:03:54.8	358.530	-0.350	0.180	-0.480
2020/01/31 17:03:54.9	358.520	-0.380	0.220	-0.470
2020/01/31 17:03:55.0	358.520	-0.420	0.260	-0.470
2020/01/31 17:03:55.1	358.520	-0.460	0.300	-0.460
2020/01/31 17:03:55.2	358.510	-0.490	0.330	-0.450
2020/01/31 17:03:55.3	358.500	-0.520	0.360	-0.440
2020/01/31 17:03:55.4	358.500	-0.550	0.390	-0.430
2020/01/31 17:03:55.5	358.490	-0.580	0.410	-0.420
2020/01/31 17:03:55.6	358.480	-0.610	0.430	-0.410
2020/01/31 17:03:55.7	358.470	-0.630	0.450	-0.400
2020/01/31 17:03:55.8	358.460	-0.650	0.460	-0.390
2020/01/31 17:03:55.9	358.450	-0.670	0.460	-0.370
2020/01/31 17:03:56.0	358.430	-0.680	0.460	-0.360
2020/01/31 17:03:56.1	358.420	-0.690	0.460	-0.340
2020/01/31 17:03:56.2	358.400	-0.700	0.450	-0.320
2020/01/31 17:03:56.3	358.380	-0.700	0.440	-0.300
2020/01/31 17:03:56.4	358.360	-0.710	0.420	-0.280
2020/01/31 17:03:56.5	358.340	-0.700	0.400	-0.250
2020/01/31 17:03:56.6	358.320	-0.700	0.370	-0.220
2020/01/31 17:03:56.7	358.290	-0.690	0.340	-0.200
2020/01/31 17:03:56.8	358.260	-0.680	0.310	-0.170
2020/01/31 17:03:56.9	358.230	-0.660	0.270	-0.140
2020/01/31 17:03:57.0	358.190	-0.640	0.230	-0.110
2020/01/31 17:03:57.1	358.160	-0.620	0.180	-0.080
2020/01/31 17:03:57.2	358.130	-0.590	0.140	-0.050
2020/01/31 17:03:57.3	358.090	-0.560	0.090	-0.030
2020/01/31 17:03:57.4	358.050	-0.530	0.040	-0.000
2020/01/31 17:03:57.5	358.020	-0.500	-0.020	0.020
2020/01/31 17:03:57.6	357.980	-0.460	-0.070	0.040
2020/01/31 17:03:57.7	357.940	-0.420	-0.120	0.060
2020/01/31 17:03:57.8	357.900	-0.370	-0.180	0.080
2020/01/31 17:03:57.9	357.870	-0.330	-0.230	0.100
2020/01/31 17:03:58.0	357.830	-0.280	-0.290	0.120
2020/01/31 17:03:58.1	357.790	-0.230	-0.340	0.130
2020/01/31 17:03:58.2	357.760	-0.180	-0.400	0.140
2020/01/31 17:03:58.3	357.730	-0.120	-0.450	0.150
2020/01/31 17:03:58.4	357.700	-0.070	-0.500	0.160
2020/01/31 17:03:58.5	357.670	-0.010	-0.550	0.170
2020/01/31 17:03:58.6	357.640	0.040	-0.600	0.170
2020/01/31 17:03:58.7	357.620	0.100	-0.650	0.180
2020/01/31 17:03:58.8	357.580	0.150	-0.690	0.180
2020/01/31 17:03:58.9	357.560	0.200	-0.730	0.180
2020/01/31 17:03:59.0	357.540	0.250	-0.770	0.180
2020/01/31 17:03:59.1	357.530	0.300	-0.810	0.180
2020/01/31 17:03:59.2	357.510	0.350	-0.840	0.170
2020/01/31 17:03:59.3	357.500	0.390	-0.870	0.160
2020/01/31 17:03:59.4	357.490	0.430	-0.900	0.150
2020/01/31 17:03:59.5	357.490	0.470	-0.920	0.140
2020/01/31 17:03:59.6	357.480	0.510	-0.940	0.130
2020/01/31 17:03:59.7	357.480	0.540	-0.950	0.110
2020/01/31 17:03:59.8	357.480	0.570	-0.960	0.090
2020/01/31 17:03:59.9	357.480	0.590	-0.960	0.070
2020/01/31 17:04:00.0	357.490	0.610	-0.960	0.050
2020/01/31 17:04:00.1	357.490	0.620	-0.960	0.030
2020/01/31 17:04:00.2	357.500	0.630	-0.950	0.010
2020/01/31 17:04:00.3	357.520	0.640	-0.950	-0.010
2020/01/31 17:04:00.4	357.530	0.640	-0.930	-0.040
2020/01/31 17:04:00.5	357.540	0.640	-0.910	-0.060
2020/01/31 17:04:00.6	357.560	0.630	-0.890	-0.080
2020/01/31 17:04:00.7	357.580	0.620	-0.870	-0.110
2020/01/31 17:04:00.8	357.590	0.600	-0.840	-0.120
2020/01/31 17:04:00.9	357.610	0.580	-0.810	-0.140
2020/01/31 17:04:01.0	357.630	0.560	-0.770	-0.160
2020/01/31 17:04:01.1	357.640	0.540	-0.730	-0.180
2020/01/31 17:04:01.2	357.660	0.510	-0.690	-0.190
2020/01/31 17:04:01.3	357.670	0.470	-0.650	-0.210
2020/01/31 17:04:01.4	357.690	0.440	-0.600	-0.220
2020/01/31 17:04:01.5	357.700	0.400	-0.550	-0.230
2020/01/31 17:04:01.6	357.720	0.360	-0.500	-0.240
2020/01/31 17:04:01.7	357.730	0.320	-0.450	-0.250
2020/01/31 17:04:01.8	357.750	0.280	-0.390	-0.260
2020/01/31 17:04:01.9	357.760	0.230	-0.340	-0.270
2020/01/31 17:04:02.0	357.770	0.190	-0.290	-0.270
2020/01/31 17:04:02.1	357.780	0.140	-0.230	-0.280
2020/01/31 17:04:02.2	357.790	0.100	-0.180	-0.290
2020/01/31 17:04:02.3	357.800	0.050	-0.130	-0.290
2020/01/31 17:04:02.4	357.810	0.010	-0.080	-0.300
2020/01/31 17:04:02.5	357.820	-0.040	-0.030	-0.300
2020/01/31 17:04:02.6	357.820	-0.080	0.020	-0.310
2020/01/31 17:04:02.7	357.830	-0.120	0.060	-0.310
2020/01/31 17:04:02.8	357.840	-0.160	0.100	-0.320
2020/01/31 17:04:02.9	357.850	-0.190	0.140	-0.320
2020/01/31 17:04:03.0	357.860	-0.230	0.170	-0.320
2020/01/31 17:04:03.1	357.860	-0.260	0.200	-0.330
2020/01/31 17:04:03.2	357.870	-0.290	0.230	-0.330
2020/01/31 17:04:03.3	357.870	-0.310	0.250	-0.330
2020/01/31 17:04:03.4	357.870	-0.330	0.270	-0.340
2020/01/31 17:04:03.5	357.880	-0.350	0.280	-0.340
2020/01/31 17:04:03.6	357.880	-0.370	0.290	-0.340
2020/01/31 17:04:03.7	357.880	-0.380	0.300	-0.340
2020/01/31 17:04:03.8	357.890	-0.390	0.300	-0.330
2020/01/31 17:04:03.9	357.890	-0.390	0.300	-0.330
2020/01/31 17:04:04.0	357.890	-0.390	0.290	-0.330
2020/01/31 17:04:04.1	357.890	-0.390	0.290	-0.320
2020/01/31 17:04:04.2	357.890	-0.390	0.280	-0.320
2020/01/31 17:04:04.3	357.890	-0.380	0.260	-0.320
2020/01/31 17:04:04.4	357.880	-0.370	0.250	-0.310
2020/01/31 17:04:04.5	357.880	-0.360	0.230	-0.300
2020/01/31 17:04:04.6	357.870	-0.350	0.210	-0.300
2020/01/31 17:04:04.7	357.870	-0.330	0.190	-0.290
2020/01/31 17:04:04.8	357.850	-0.320	0.170	-0.280
2020/01/31 17:04:04.9	357.850	-0.300	0.140	-0.270
2020/01/31 17:04:05.0	357.840	-0.280	0.110	-0.250
2020/01/31 17:04:05.1	357.830	-0.260	0.090	-0.240
2020/01/31 17:04:05.2	357.820	-0.230	0.060	-0.220
2020/01/31 17:04:05.3	357.810	-0.210	0.030	-0.210
2020/01/31 17:04:05.4	357.790	-0.190	-0.000	-0.190
2020/01/31 17:04:05.5	357.780	-0.160	-0.030	-0.170
2020/01/31 17:04:05.6	357.760	-0.140	-0.060	-0.150
2020/01/31 17:04:05.7	357.750	-0.110	-0.090	-0.120
2020/01/31 17:04:05.8	357.730	-0.090	-0.120	-0.100
2020/01/31 17:04:05.9	357.710	-0.070	-0.140	-0.070
2020/01/31 17:04:06.0	357.690	-0.050	-0.170	-0.040
2020/01/31 17:04:06.1	357.670	-0.020	-0.190	-0.020
2020/01/31 17:04:06.2	357.650	-0.000	-0.220	0.010
2020/01/31 17:04:06.3	357.620	0.010	-0.240	0.040
2020/01/31 17:04:06.4	357.600	0.030	-0.260	0.060
2020/01/31 17:04:06.5	357.570	0.050	-0.280	0.090
2020/01/31 17:04:06.6	357.550	0.060	-0.300	0.120
2020/01/31 17:04:06.7	357.520	0.080	-0.320	0.140
2020/01/31 17:04:06.8	357.500	0.090	-0.330	0.160
2020/01/31 17:04:06.9	357.470	0.100	-0.350	0.190
2020/01/31 17:04:07.0	357.450	0.110	-0.360	0.210
2020/01/31 17:04:07.1	357.420	0.120	-0.370	0.230
2020/01/31 17:04:07.2	357.390	0.130	-0.380	0.240
2020/01/31 17:04:07.3	357.360	0.140	-0.400	0.260
2020/01/31 17:04:07.4	357.340	0.150	-0.410	0.270
2020/01/31 17:04:07.5	357.310	0.150	-0.410	0.280
2020/01/31 17:04:07.6	357.290	0.160	-0.420	0.290
2020/01/31 17:04:07.7	357.260	0.160	-0.430	0.290
2020/01/31 17:04:07.8	357.240	0.170	-0.440	0.300
2020/01/31 17:04:07.9	357.220	0.170	-0.450	0.300
2020/01/31 17:04:08.0	357.200	0.170	-0.460	0.290
2020/01/31 17:04:08.1	357.180	0.170	-0.470	0.280
2020/01/31 17:04:08.2	357.170	0.170	-0.470	0.270
2020/01/31 17:04:08.3	357.160	0.170	-0.480	0.250
2020/01/31 17:04:08.4	357.150	0.170	-0.490	0.230
2020/01/31 17:04:08.5	357.150	0.170	-0.500	0.210
2020/01/31 17:04:08.6	357.150	0.160	-0.510	0.180
2020/01/31 17:04:08.7	357.150	0.160	-0.520	0.150
2020/01/31 17:04:08.8	357.150	0.150	-0.530	0.110
2020/01/31 17:04:08.9	357.150	0.150	-0.540	0.070
2020/01/31 17:04:09.0	357.160	0.140	-0.550	0.030
2020/01/31 17:04:09.1	357.180	0.130	-0.570	-0.020
2020/01/31 17:04:09.2	357.190	0.130	-0.580	-0.060
2020/01/31 17:04:09.3	357.210	0.120	-0.590	-0.110
2020/01/31 17:04:09.4	357.230	0.110	-0.600	-0.160
2020/01/31 17:04:09.5	357.250	0.110	-0.610	-0.210
2020/01/31 17:04:09.6	357.280	0.100	-0.620	-0.270
2020/01/31 17:04:09.7	357.310	0.090	-0.630	-0.320
2020/01/31 17:04:09.8	357.340	0.080	-0.640	-0.380
2020/01/31 17:04:09.9	357.370	0.070	-0.650	-0.430
2020/01/31 17:04:10.0	357.400	0.070	-0.650	-0.490
2020/01/31 17:04:10.1	357.430	0.060	-0.660	-0.540
2020/01/31 17:04:10.2	357.460	0.050	-0.660	-0.600
2020/01/31 17:04:10.3	357.490	0.040	-0.650	-0.650
2020/01/31 17:04:10.4	357.520	0.040	-0.650	-0.700
2020/01/31 17:04:10.5	357.550	0.030	-0.640	-0.750
2020/01/31 17:04:10.6	357.580	0.030	-0.620	-0.790
2020/01/31 17:04:10.7	357.600	0.020	-0.610	-0.830
2020/01/31 17:04:10.8	357.630	0.020	-0.590	-0.870
2020/01/31 17:04:10.9	357.650	0.010	-0.560	-0.900
2020/01/31 17:04:11.0	357.670	0.010	-0.530	-0.930
2020/01/31 17:04:11.1	357.690	0.010	-0.500	-0.960
2020/01/31 17:04:11.2	357.710	0.010	-0.470	-0.980
2020/01/31 17:04:11.3	357.730	0.000	-0.430	-0.990
2020/01/31 17:04:11.4	357.740	0.000	-0.400	-1.000
2020/01/31 17:04:11.5	357.760	0.000	-0.350	-1.000
2020/01/31 17:04:11.6	357.770	0.000	-0.310	-1.000
2020/01/31 17:04:11.7	357.780	0.000	-0.270	-1.000
2020/01/31 17:04:11.8	357.790	0.000	-0.220	-0.980
2020/01/31 17:04:11.9	357.800	0.000	-0.170	-0.970
2020/01/31 17:04:12.0	357.800	0.010	-0.130	-0.950
2020/01/31 17:04:12.1	357.800	0.010	-0.080	-0.930
2020/01/31 17:04:12.2	357.800	0.010	-0.030	-0.900
2020/01/31 17:04:12.3	357.790	0.010	0.010	-0.870
2020/01/31 17:04:12.4	357.790	0.010	0.060	-0.840
2020/01/31 17:04:12.5	357.780	0.010	0.100	-0.800
2020/01/31 17:04:12.6	357.770	0.020	0.140	-0.770
2020/01/31 17:04:12.7	357.760	0.020	0.180	-0.730
2020/01/31 17:04:12.8	357.740	0.020	0.220	-0.680
2020/01/31 17:04:12.9	357.730	0.020	0.250	-0.630
2020/01/31 17:04:13.0	357.710	0.020	0.290	-0.590
2020/01/31 17:04:13.1	357.690	0.020	0.320	-0.540
2020/01/31 17:04:13.2	357.670	0.020	0.350	-0.490
2020/01/31 17:04:13.3	357.640	0.030	0.370	-0.430
2020/01/31 17:04:13.4	357.620	0.030	0.390	-0.380
2020/01/31 17:04:13.5	357.590	0.030	0.420	-0.330
2020/01/31 17:04:13.6	357.570	0.030	0.430	-0.270
2020/01/31 17:04:13.7	357.540	0.030	0.450	-0.220
2020/01/31 17:04:13.8	357.500	0.030	0.460	-0.160
2020/01/31 17:04:13.9	357.470	0.030	0.470	-0.110
2020/01/31 17:04:14.0	357.440	0.030	0.470	-0.060
2020/01/31 17:04:14.1	357.410	0.030	0.470	-0.010
2020/01/31 17:04:14.2	357.380	0.030	0.460	0.040
2020/01/31 17:04:14.3	357.350	0.020	0.460	0.090
2020/01/31 17:04:14.4	357.320	0.020	0.440	0.130
2020/01/31 17:04:14.5	357.290	0.020	0.430	0.180
2020/01/31 17:04:14.6	357.260	0.020	0.400	0.220
2020/01/31 17:04:14.7	357.230	0.010	0.380	0.250
2020/01/31 17:04:14.8	357.200	0.010	0.350	0.290
2020/01/31 17:04:14.9	357.180	0.000	0.310	0.310
2020/01/31 17:04:15.0	357.150	-0.000	0.280	0.340
2020/01/31 17:04:15.1	357.120	-0.010	0.230	0.360
2020/01/31 17:04:15.2	357.090	-0.020	0.190	0.370
2020/01/31 17:04:15.3	357.070	-0.030	0.140	0.380
2020/01/31 17:04:15.4	357.040	-0.040	0.090	0.380
2020/01/31 17:04:15.5	357.020	-0.050	0.040	0.380
2020/01/31 17:04:15.6	357.000	-0.060	-0.010	0.370
2020/01/31 17:04:15.7	356.980	-0.070	-0.070	0.360
2020/01/31 17:04:15.8	356.960	-0.090	-0.130	0.350
2020/01/31 17:04:15.9	356.940	-0.100	-0.190	0.330
2020/01/31 17:04:16.0	356.930	-0.120	-0.240	0.300
2020/01/31 17:04:16.1	356.910	-0.140	-0.300	0.280
2020/01/31 17:04:16.2	356.900	-0.150	-0.360	0.250
2020/01/31 17:04:16.3	356.890	-0.170	-0.410	0.210
2020/01/31 17:04:16.4	356.890	-0.190	-0.470	0.180
2020/01/31 17:04:16.5	356.890	-0.210	-0.520	0.140
2020/01/31 17:04:16.6	356.880	-0.230	-0.570	0.100
2020/01/31 17:04:16.7	356.890	-0.250	-0.620	0.060
2020/01/31 17:04:16.8	356.890	-0.270	-0.670	0.020
2020/01/31 17:04:16.9	356.890	-0.280	-0.710	-0.020
2020/01/31 17:04:17.0	356.900	-0.300	-0.750	-0.070
2020/01/31 17:04:17.1	356.920	-0.320	-0.790	-0.110
2020/01/31 17:04:17.2	356.930	-0.330	-0.830	-0.160
2020/01/31 17:04:17.3	356.950	-0.340	-0.870	-0.210
2020/01/31 17:04:17.4	356.970	-0.350	-0.900	-0.250
2020/01/31 17:04:17.5	356.990	-0.360	-0.920	-0.300
2020/01/31 17:04:17.6	357.010	-0.370	-0.950	-0.350
2020/01/31 17:04:17.7	357.040	-0.380	-0.970	-0.400
2020/01/31 17:04:17.8	357.060	-0.380	-0.980	-0.450
2020/01/31 17:04:17.9	357.090	-0.380	-1.000	-0.490
2020/01/31 17:04:18.0	357.120	-0.370	-1.000	-0.530
2020/01/31 17:04:18.1	357.150	-0.370	-1.000	-0.570
2020/01/31 17:04:18.2	357.180	-0.360	-1.000	-0.610
2020/01/31 17:04:18.3	357.200	-0.350	-1.000	-0.640
2020/01/31 17:04:18.4	357.230	-0.340	-0.990	-0.660
2020/01/31 17:04:18.5	357.260	-0.320	-0.970	-0.690
2020/01/31 17:04:18.6	357.280	-0.300	-0.950	-0.710
2020/01/31 17:04:18.7	357.310	-0.280	-0.930	-0.720
2020/01/31 17:04:18.8	357.330	-0.260	-0.900	-0.730
2020/01/31 17:04:18.9	357.360	-0.230	-0.870	-0.740
2020/01/31 17:04:19.0	357.380	-0.210	-0.840	-0.740
2020/01/31 17:04:19.1	357.400	-0.180	-0.800	-0.740
2020/01/31 17:04:19.2	357.430	-0.150	-0.770	-0.740
2020/01/31 17:04:19.3	357.450	-0.110	-0.730	-0.740
2020/01/31 17:04:19.4	357.470	-0.080	-0.690	-0.730
2020/01/31 17:04:19.5	357.500	-0.050	-0.650	-0.720
2020/01/31 17:04:19.6	357.520	-0.010	-0.610	-0.720
2020/01/31 17:04:19.7	357.540	0.020	-0.570	-0.710
2020/01/31 17:04:19.8	357.570	0.060	-0.530	-0.700
2020/01/31 17:04:19.9	357.600	0.100	-0.500	-0.690
2020/01/31 17:04:20.0	357.630	0.130	-0.460	-0.680
2020/01/31 17:04:20.1	357.650	0.170	-0.420	-0.670
2020/01/31 17:04:20.2	357.680	0.200	-0.380	-0.660
2020/01/31 17:04:20.3	357.710	0.240	-0.350	-0.650
2020/01/31 17:04:20.4	357.730	0.270	-0.310	-0.640
2020/01/31 17:04:20.5	357.760	0.300	-0.280	-0.620
2020/01/31 17:04:20.6	357.780	0.330	-0.250	-0.610
2020/01/31 17:04:20.7	357.800	0.360	-0.220	-0.600
2020/01/31 17:04:20.8	357.830	0.390	-0.190	-0.570
2020/01/31 17:04:20.9	357.850	0.410	-0.160	-0.550
2020/01/31 17:04:21.0	357.860	0.430	-0.140	-0.530
2020/01/31 17:04:21.1	357.880	0.450	-0.110	-0.510
2020/01/31 17:04:21.2	357.890	0.470	-0.090	-0.480
2020/01/31 17:04:21.3	357.890	0.480	-0.060	-0.450
2020/01/31 17:04:21.4	357.900	0.500	-0.040	-0.420
2020/01/31 17:04:21.5	357.900	0.500	-0.020	-0.390
2020/01/31 17:04:21.6	357.900	0.510	0.000	-0.350
2020/01/31 17:04:21.7	357.890	0.510	0.030	-0.320
2020/01/31 17:04:21.8	357.890	0.510	0.050	-0.280
2020/01/31 17:04:21.9	357.870	0.510	0.070	-0.240
2020/01/31 17:04:22.0	357.860	0.500	0.090	-0.200
2020/01/31 17:04:22.1	357.840	0.490	0.110	-0.160
2020/01/31 17:04:22.2	357.820	0.480	0.130	-0.130
2020/01/31 17:04:22.3	357.790	0.460	0.150	-0.090
2020/01/31 17:04:22.4	357.760	0.450	0.170	-0.050
2020/01/31 17:04:22.5	357.730	0.430	0.190	-0.020
2020/01/31 17:04:22.6	357.690	0.400	0.210	0.010
2020/01/31 17:04:22.7	357.660	0.380	0.220	0.050
2020/01/31 17:04:22.8	357.620	0.350	0.240	0.080
2020/01/31 17:04:22.9	357.580	0.320	0.250	0.110
2020/01/31 17:04:23.0	357.540	0.300	0.260	0.140
2020/01/31 17:04:23.1	357.500	0.260	0.270	0.160
2020/01/31 17:04:23.2	357.450	0.230	0.270	0.190
2020/01/31 17:04:23.3	357.400	0.200	0.280	0.210
2020/01/31 17:04:23.4	357.360	0.170	0.280	0.230
2020/01/31 17:04:23.5	357.310	0.140	0.280	0.250
2020/01/31 17:04:23.6	357.260	0.110	0.270	0.260
2020/01/31 17:04:23.7	357.210	0.070	0.270	0.280
2020/01/31 17:04:23.8	357.160	0.040	0.260	0.290
2020/01/31 17:04:23.9	357.110	0.020	0.250	0.300
2020/01/31 17:04:24.0	357.060	-0.010	0.240	0.300
2020/01/31 17:04:24.1	357.020	-0.040	0.220	0.310
2020/01/31 17:04:24.2	356.980	-0.060	0.200	0.310
2020/01/31 17:04:24.3	356.930	-0.090	0.180	0.310
2020/01/31 17:04:24.4	356.890	-0.110	0.150	0.300
2020/01/31 17:04:24.5	356.850	-0.130	0.130	0.300
2020/01/31 17:04:24.6	356.810	-0.150	0.100	0.290
2020/01/31 17:04:24.7	356.770	-0.160	0.060	0.280
2020/01/31 17:04:24.8	356.740	-0.180	0.030	0.270
2020/01/31 17:04:24.9	356.700	-0.190	-0.010	0.260
2020/01/31 17:04:25.0	356.670	-0.200	-0.040	0.240
2020/01/31 17:04:25.1	356.630	-0.210	-0.080	0.230
2020/01/31 17:04:25.2	356.600	-0.210	-0.120	0.210
2020/01/31 17:04:25.3	356.570	-0.220	-0.150	0.200
2020/01/31 17:04:25.4	356.540	-0.220	-0.190	0.180
2020/01/31 17:04:25.5	356.510	-0.220	-0.230	0.160
2020/01/31 17:04:25.6	356.480	-0.230	-0.270	0.140
2020/01/31 17:04:25.7	356.460	-0.220	-0.310	0.110
2020/01/31 17:04:25.8	356.430	-0.220	-0.350	0.090
2020/01/31 17:04:25.9	356.420	-0.220	-0.390	0.060
2020/01/31 17:04:26.0	356.400	-0.210	-0.430	0.030
2020/01/31 17:04:26.1	356.390	-0.210	-0.470	-0.010
2020/01/31 17:04:26.2	356.390	-0.200	-0.510	-0.050
2020/01/31 17:04:26.3	356.390	-0.190	-0.550	-0.090
2020/01/31 17:04:26.4	356.390	-0.180	-0.590	-0.130
2020/01/31 17:04:26.5	356.400	-0.160	-0.630	-0.180
2020/01/31 17:04:26.6	356.420	-0.150	-0.670	-0.230
2020/01/31 17:04:26.7	356.440	-0.140	-0.710	-0.290
2020/01/31 17:04:26.8	356.460	-0.120	-0.740	-0.340
2020/01/31 17:04:26.9	356.490	-0.100	-0.780	-0.400
2020/01/31 17:04:27.0	356.520	-0.080	-0.820	-0.460
2020/01/31 17:04:27.1	356.560	-0.070	-0.850	-0.520
2020/01/31 17:04:27.2	356.600	-0.050	-0.890	-0.580
2020/01/31 17:04:27.3	356.640	-0.030	-0.920	-0.630
2020/01/31 17:04:27.4	356.690	-0.010	-0.940	-0.690
2020/01/31 17:04:27.5	356.730	0.010	-0.970	-0.740
2020/01/31 17:04:27.6	356.780	0.030	-0.990	-0.790
2020/01/31 17:04:27.7	356.830	0.050	-1.000	-0.830
2020/01/31 17:04:27.8	356.860	0.070	-1.010	-0.870
2020/01/31 17:04:27.9	356.910	0.090	-1.020	-0.900
2020/01/31 17:04:28.0	356.960	0.110	-1.020	-0.930
2020/01/31 17:04:28.1	357.000	0.120	-1.010	-0.950
2020/01/31 17:04:28.2	357.050	0.130	-1.000	-0.980
2020/01/31 17:04:28.3	357.090	0.140	-0.980	-0.990
2020/01/31 17:04:28.4	357.130	0.150	-0.960	-1.010
2020/01/31 17:04:28.5	357.170	0.160	-0.930	-1.020
2020/01/31 17:04:28.6	357.220	0.160	-0.890	-1.030
2020/01/31 17:04:28.7	357.260	0.170	-0.850	-1.030
2020/01/31 17:04:28.8	357.300	0.170	-0.800	-1.030
2020/01/31 17:04:28.9	357.340	0.160	-0.750	-1.040
2020/01/31 17:04:29.0	357.370	0.160	-0.700	-1.040
2020/01/31 17:04:29.1	357.410	0.150	-0.640	-1.030
2020/01/31 17:04:29.2	357.440	0.130	-0.580	-1.030
2020/01/31 17:04:29.3	357.470	0.120	-0.510	-1.020
2020/01/31 17:04:29.4	357.490	0.100	-0.440	-1.010
2020/01/31 17:04:29.5	357.520	0.080	-0.370	-1.000
2020/01/31 17:04:29.6	357.540	0.060	-0.300	-0.990
2020/01/31 17:04:29.7	357.560	0.040	-0.220	-0.970
2020/01/31 17:04:29.8	357.580	0.010	-0.140	-0.950
2020/01/31 17:04:29.9	357.590	-0.020	-0.070	-0.920
2020/01/31 17:04:30.0	357.600	-0.050	0.010	-0.900
2020/01/31 17:04:30.1	357.600	-0.080	0.090	-0.870
2020/01/31 17:04:30.2	357.600	-0.120	0.160	-0.830
2020/01/31 17:04:30.3	357.600	-0.150	0.240	-0.790
2020/01/31 17:04:30.4	357.590	-0.190	0.320	-0.750
2020/01/31 17:04:30.5	357.580	-0.230	0.390	-0.710
2020/01/31 17:04:30.6	357.560	-0.260	0.460	-0.660
2020/01/31 17:04:30.7	357.540	-0.300	0.530	-0.620
2020/01/31 17:04:30.8	357.530	-0.340	0.600	-0.560
2020/01/31 17:04:30.9	357.500	-0.380	0.660	-0.510
2020/01/31 17:04:31.0	357.470	-0.420	0.720	-0.460
2020/01/31 17:04:31.1	357.430	-0.450	0.770	-0.410
2020/01/31 17:04:31.2	357.390	-0.490	0.810	-0.350
2020/01/31 17:04:31.3	357.350	-0.530	0.850	-0.300
2020/01/31 17:04:31.4	357.300	-0.560	0.880	-0.250
2020/01/31 17:04:31.5	357.260	-0.590	0.910	-0.200
2020/01/31 17:04:31.6	357.210	-0.620	0.920	-0.150
2020/01/31 17:04:31.7	357.160	-0.640	0.930	-0.100
2020/01/31 17:04:31.8	357.120	-0.660	0.930	-0.060
2020/01/31 17:04:31.9	357.060	-0.680	0.930	-0.020
2020/01/31 17:04:32.0	357.010	-0.700	0.910	0.020
2020/01/31 17:04:32.1	356.960	-0.710	0.880	0.050
2020/01/31 17:04:32.2	356.900	-0.710	0.840	0.070
2020/01/31 17:04:32.3	356.850	-0.710	0.800	0.100
2020/01/31 17:04:32.4	356.800	-0.710	0.740	0.110
2020/01/31 17:04:32.5	356.750	-0.700	0.680	0.120
2020/01/31 17:04:32.6	356.700	-0.690	0.610	0.130
2020/01/31 17:04:32.7	356.660	-0.670	0.540	0.140
2020/01/31 17:04:32.8	356.610	-0.640	0.450	0.140
2020/01/31 17:04:32.9	356.560	-0.610	0.360	0.130
2020/01/31 17:04:33.0	356.530	-0.570	0.270	0.130
2020/01/31 17:04:33.1	356.490	-0.530	0.170	0.120
2020/01/31 17:04:33.2	356.450	-0.480	0.070	0.110
2020/01/31 17:04:33.3	356.420	-0.430	-0.040	0.100
2020/01/31 17:04:33.4	356.390	-0.370	-0.140	0.090
2020/01/31 17:04:33.5	356.350	-0.310	-0.250	0.090
2020/01/31 17:04:33.6	356.320	-0.240	-0.350	0.080
2020/01/31 17:04:33.7	356.290	-0.180	-0.450	0.070
2020/01/31 17:04:33.8	356.250	-0.110	-0.550	0.070
2020/01/31 17:04:33.9	356.230	-0.030	-0.650	0.060
2020/01/31 17:04:34.0	356.200	0.040	-0.740	0.060
2020/01/31 17:04:34.1	356.170	0.120	-0.830	0.060
2020/01/31 17:04:34.2	356.150	0.190	-0.910	0.060
2020/01/31 17:04:34.3	356.130	0.270	-0.990	0.060
2020/01/31 17:04:34.4	356.110	0.340	-1.050	0.060
2020/01/31 17:04:34.5	356.090	0.410	-1.120	0.070
2020/01/31 17:04:34.6	356.070	0.480	-1.170	0.070
2020/01/31 17:04:34.7	356.050	0.550	-1.220	0.070
2020/01/31 17:04:34.8	356.050	0.610	-1.260	0.080
2020/01/31 17:04:34.9	356.030	0.670	-1.290	0.090
2020/01/31 17:04:35.0	356.030	0.730	-1.310	0.090
2020/01/31 17:04:35.1	356.020	0.780	-1.320	0.100
2020/01/31 17:04:35.2	356.020	0.830	-1.330	0.100
2020/01/31 17:04:35.3	356.020	0.870	-1.330	0.110
2020/01/31 17:04:35.4	356.020	0.900	-1.320	0.110
2020/01/31 17:04:35.5	356.030	0.930	-1.310	0.120
2020/01/31 17:04:35.6	356.030	0.950	-1.290	0.120
2020/01/31 17:04:35.7	356.050	0.970	-1.260	0.130
2020/01/31 17:04:35.8	356.060	0.980	-1.220	0.140
2020/01/31 17:04:35.9	356.070	0.990	-1.190	0.140
2020/01/31 17:04:36.0	356.090	0.990	-1.150	0.140
2020/01/31 17:04:36.1	356.120	0.980	-1.110	0.140
2020/01/31 17:04:36.2	356.140	0.970	-1.060	0.150
2020/01/31 17:04:36.3	356.170	0.950	-1.010	0.150
2020/01/31 17:04:36.4	356.200	0.930	-0.960	0.150
2020/01/31 17:04:36.5	356.230	0.910	-0.900	0.140
2020/01/31 17:04:36.6	356.260	0.870	-0.850	0.140
2020/01/31 17:04:36.7	356.290	0.840	-0.790	0.140
2020/01/31 17:04:36.8	356.330	0.800	-0.740	0.130
2020/01/31 17:04:36.9	356.360	0.750	-0.690	0.120
2020/01/31 17:04:37.0	356.390	0.710	-0.630	0.120
2020/01/31 17:04:37.1	356.430	0.660	-0.580	0.110
2020/01/31 17:04:37.2	356.470	0.610	-0.530	0.090
2020/01/31 17:04:37.3	356.500	0.550	-0.470	0.080
2020/01/31 17:04:37.4	356.540	0.500	-0.420	0.060
2020/01/31 17:04:37.5	356.580	0.440	-0.370	0.040
2020/01/31 17:04:37.6	356.610	0.380	-0.330	0.030
2020/01/31 17:04:37.7	356.650	0.330	-0.280	0.000
2020/01/31 17:04:37.8	356.660	0.270	-0.240	-0.010
2020/01/31 17:04:37.9	356.690	0.210	-0.200	-0.040
2020/01/31 17:04:38.0	356.720	0.150	-0.160	-0.060
2020/01/31 17:04:38.1	356.750	0.090	-0.120	-0.080
2020/01/31 17:04:38.2	356.780	0.030	-0.080	-0.110
2020/01/31 17:04:38.3	356.810	-0.020	-0.050	-0.130
2020/01/31 17:04:38.4	356.830	-0.080	-0.020	-0.160
2020/01/31 17:04:38.5	356.850	-0.130	0.010	-0.180
2020/01/31 17:04:38.6	356.870	-0.180	0.040	-0.200
2020/01/31 17:04:38.7	356.890	-0.230	0.060	-0.230
2020/01/31 17:04:38.8	356.910	-0.280	0.100	-0.250
2020/01/31 17:04:38.9	356.920	-0.330	0.120	-0.270
2020/01/31 17:04:39.0	356.930	-0.370	0.140	-0.290
2020/01/31 17:04:39.1	356.940	-0.410	0.160	-0.300
2020/01/31 17:04:39.2	356.950	-0.450	0.170	-0.320
2020/01/31 17:04:39.3	356.960	-0.490	0.190	-0.340
2020/01/31 17:04:39.4	356.960	-0.530	0.200	-0.350
2020/01/31 17:04:39.5	356.970	-0.560	0.210	-0.370
2020/01/31 17:04:39.6	356.970	-0.590	0.220	-0.380
2020/01/31 17:04:39.7	356.970	-0.610	0.230	-0.390
2020/01/31 17:04:39.8	356.970	-0.640	0.240	-0.400
2020/01/31 17:04:39.9	356.970	-0.660	0.250	-0.410
2020/01/31 17:04:40.0	356.960	-0.680	0.250	-0.420
2020/01/31 17:04:40.1	356.960	-0.690	0.250	-0.430
2020/01/31 17:04:40.2	356.960	-0.710	0.260	-0.440
2020/01/31 17:04:40.3	356.960	-0.720	0.260	-0.440
2020/01/31 17:04:40.4	356.950	-0.720	0.260	-0.450
2020/01/31 17:04:40.5	356.950	-0.730	0.250	-0.450
2020/01/31 17:04:40.6	356.940	-0.730	0.250	-0.450
2020/01/31 17:04:40.7	356.930	-0.720	0.250	-0.450
2020/01/31 17:04:40.8	356.920	-0.720	0.250	-0.440
2020/01/31 17:04:40.9	356.900	-0.710	0.250	-0.430
2020/01/31 17:04:41.0	356.890	-0.700	0.240	-0.420
2020/01/31 17:04:41.1	356.870	-0.680	0.240	-0.410
2020/01/31 17:04:41.2	356.850	-0.670	0.230	-0.390
2020/01/31 17:04:41.3	356.830	-0.640	0.230	-0.370
2020/01/31 17:04:41.4	356.800	-0.620	0.220	-0.350
2020/01/31 17:04:41.5	356.780	-0.590	0.220	-0.330
2020/01/31 17:04:41.6	356.750	-0.570	0.210	-0.300
2020/01/31 17:04:41.7	356.720	-0.530	0.200	-0.270
2020/01/31 17:04:41.8	356.700	-0.500	0.200	-0.240
2020/01/31 17:04:41.9	356.680	-0.460	0.190	-0.200
2020/01/31 17:04:42.0	356.650	-0.420	0.180	-0.170
2020/01/31 17:04:42.1	356.620	-0.380	0.170	-0.130
2020/01/31 17:04:42.2	356.600	-0.340	0.160	-0.090
2020/01/31 17:04:42.3	356.570	-0.300	0.140	-0.050
2020/01/31 17:04:42.4	356.550	-0.250	0.130	-0.020
2020/01/31 17:04:42.5	356.520	-0.210	0.110	0.020
2020/01/31 17:04:42.6	356.500	-0.160	0.090	0.060
2020/01/31 17:04:42.7	356.480	-0.110	0.070	0.090
2020/01/31 17:04:42.8	356.450	-0.060	0.050	0.130
2020/01/31 17:04:42.9	356.430	-0.010	0.020	0.170
2020/01/31 17:04:43.0	356.420	0.040	-0.000	0.200
2020/01/31 17:04:43.1	356.400	0.080	-0.030	0.230
2020/01/31 17:04:43.2	356.380	0.130	-0.060	0.260
2020/01/31 17:04:43.3	356.370	0.180	-0.090	0.290
2020/01/31 17:04:43.4	356.350	0.220	-0.110	0.320
2020/01/31 17:04:43.5	356.330	0.270	-0.140	0.340
2020/01/31 17:04:43.6	356.320	0.310	-0.170	0.370
2020/01/31 17:04:43.7	356.300	0.340	-0.200	0.390
2020/01/31 17:04:43.8	356.300	0.380	-0.230	0.410
2020/01/31 17:04:43.9	356.280	0.410	-0.260	0.430
2020/01/31 17:04:44.0	356.270	0.440	-0.280	0.440
2020/01/31 17:04:44.1	356.260	0.470	-0.310	0.460
2020/01/31 17:04:44.2	356.240	0.490	-0.330	0.460
2020/01/31 17:04:44.3	356.230	0.510	-0.350	0.470
2020/01/31 17:04:44.4	356.210	0.520	-0.380	0.470
2020/01/31 17:04:44.5	356.200	0.530	-0.400	0.470
2020/01/31 17:04:44.6	356.190	0.540	-0.410	0.470
2020/01/31 17:04:44.7	356.180	0.540	-0.430	0.460
2020/01/31 17:04:44.8	356.180	0.540	-0.450	0.460
2020/01/31 17:04:44.9	356.170	0.530	-0.470	0.440
2020/01/31 17:04:45.0	356.170	0.520	-0.480	0.430
2020/01/31 17:04:45.1	356.160	0.510	-0.490	0.410
2020/01/31 17:04:45.2	356.160	0.490	-0.510	0.390
2020/01/31 17:04:45.3	356.160	0.470	-0.520	0.360
2020/01/31 17:04:45.4	356.160	0.450	-0.530	0.330
2020/01/31 17:04:45.5	356.170	0.420	-0.540	0.300
2020/01/31 17:04:45.6	356.180	0.390	-0.550	0.270
2020/01/31 17:04:45.7	356.190	0.360	-0.560	0.230
2020/01/31 17:04:45.8	356.200	0.330	-0.570	0.190
2020/01/31 17:04:45.9	356.210	0.290	-0.580	0.140
2020/01/31 17:04:46.0	356.230	0.260	-0.590	0.100
2020/01/31 17:04:46.1	356.250	0.220	-0.600	0.050
2020/01/31 17:04:46.2	356.280	0.180	-0.610	-0.000
2020/01/31 17:04:46.3	356.300	0.150	-0.620	-0.050
2020/01/31 17:04:46.4	356.330	0.110	-0.630	-0.110
2020/01/31 17:04:46.5	356.370	0.070	-0.640	-0.170
2020/01/31 17:04:46.6	356.400	0.040	-0.650	-0.230
2020/01/31 17:04:46.7	356.440	0.000	-0.660	-0.290
2020/01/31 17:04:46.8	356.490	-0.030	-0.670	-0.350
2020/01/31 17:04:46.9	356.530	-0.060	-0.670	-0.410
2020/01/31 17:04:47.0	356.580	-0.090	-0.680	-0.470
2020/01/31 17:04:47.1	356.620	-0.120	-0.680	-0.530
2020/01/31 17:04:47.2	356.660	-0.150	-0.680	-0.590
2020/01/31 17:04:47.3	356.700	-0.170	-0.680	-0.640
2020/01/31 17:04:47.4	356.740	-0.190	-0.680	-0.680
2020/01/31 17:04:47.5	356.770	-0.210	-0.670	-0.730
2020/01/31 17:04:47.6	356.800	-0.220	-0.660	-0.760
2020/01/31 17:04:47.7	356.830	-0.240	-0.640	-0.790
2020/01/31 17:04:47.8	356.880	-0.250	-0.620	-0.810
2020/01/31 17:04:47.9	356.900	-0.260	-0.590	-0.830
2020/01/31 17:04:48.0	356.920	-0.270	-0.570	-0.840
2020/01/31 17:04:48.1	356.930	-0.280	-0.530	-0.840
2020/01/31 17:04:48.2	356.940	-0.290	-0.500	-0.840
2020/01/31 17:04:48.3	356.950	-0.290	-0.460	-0.840
2020/01/31 17:04:48.4	356.950	-0.300	-0.420	-0.830
2020/01/31 17:04:48.5	356.950	-0.300	-0.370	-0.810
2020/01/31 17:04:48.6	356.940	-0.300	-0.330	-0.800
2020/01/31 17:04:48.7	356.930	-0.300	-0.280	-0.780
2020/01/31 17:04:48.8	356.930	-0.300	-0.240	-0.760
2020/01/31 17:04:48.9	356.920	-0.300	-0.190	-0.740
2020/01/31 17:04:49.0	356.900	-0.300	-0.140	-0.720
2020/01/31 17:04:49.1	356.880	-0.300	-0.100	-0.690
2020/01/31 17:04:49.2	356.860	-0.300	-0.050	-0.670
2020/01/31 17:04:49.3	356.840	-0.290	-0.010	-0.650
2020/01/31 17:04:49.4	356.820	-0.290	0.030	-0.620
2020/01/31 17:04:49.5	356.790	-0.280	0.060	-0.600
2020/01/31 17:04:49.6	356.770	-0.270	0.100	-0.570
2020/01/31 17:04:49.7	356.750	-0.260	0.130	-0.540
2020/01/31 17:04:49.8	356.730	-0.250	0.150	-0.520
2020/01/31 17:04:49.9	356.710	-0.230	0.170	-0.490
2020/01/31 17:04:50.0	356.690	-0.220	0.190	-0.460
2020/01/31 17:04:50.1	356.670	-0.200	0.200	-0.430
2020/01/31 17:04:50.2	356.650	-0.180	0.200	-0.400
2020/01/31 17:04:50.3	356.630	-0.160	0.200	-0.370
2020/01/31 17:04:50.4	356.620	-0.130	0.190	-0.340
2020/01/31 17:04:50.5	356.600	-0.100	0.170	-0.310
2020/01/31 17:04:50.6	356.590	-0.070	0.150	-0.290
2020/01/31 17:04:50.7	356.590	-0.040	0.120	-0.260
2020/01/31 17:04:50.8	356.590	-0.000	0.090	-0.230
2020/01/31 17:04:50.9	356.590	0.030	0.050	-0.210
2020/01/31 17:04:51.0	356.590	0.070	0.010	-0.190
2020/01/31 17:04:51.1	356.590	0.110	-0.050	-0.170
2020/01/31 17:04:51.2	356.600	0.150	-0.100	-0.160
2020/01/31 17:04:51.3	356.600	0.190	-0.160	-0.150
2020/01/31 17:04:51.4	356.610	0.240	-0.220	-0.140
2020/01/31 17:04:51.5	356.620	0.280	-0.290	-0.140
2020/01/31 17:04:51.6	356.630	0.320	-0.350	-0.140
2020/01/31 17:04:51.7	356.640	0.360	-0.410	-0.140
2020/01/31 17:04:51.8	356.640	0.400	-0.480	-0.140
2020/01/31 17:04:51.9	356.650	0.430	-0.540	-0.150
2020/01/31 17:04:52.0	356.660	0.470	-0.600	-0.160
2020/01/31 17:04:52.1	356.670	0.500	-0.650	-0.170
2020/01/31 17:04:52.2	356.670	0.520	-0.700	-0.180
2020/01/31 17:04:52.3	356.680	0.550	-0.740	-0.200
2020/01/31 17:04:52.4	356.690	0.570	-0.780	-0.220
2020/01/31 17:04:52.5	356.690	0.580	-0.810	-0.230
2020/01/31 17:04:52.6	356.690	0.590	-0.840	-0.250
2020/01/31 17:04:52.7	356.700	0.600	-0.850	-0.270
2020/01/31 17:04:52.8	356.680	0.600	-0.860	-0.290
2020/01/31 17:04:52.9	356.680	0.590	-0.860	-0.310
2020/01/31 17:04:53.0	356.680	0.580	-0.860	-0.330
2020/01/31 17:04:53.1	356.680	0.560	-0.840	-0.350
2020/01/31 17:04:53.2	356.680	0.540	-0.820	-0.360
2020/01/31 17:04:53.3	356.670	0.510	-0.800	-0.380
2020/01/31 17:04:53.4	356.670	0.480	-0.760	-0.390
2020/01/31 17:04:53.5	356.670	0.440	-0.720	-0.410
2020/01/31 17:04:53.6	356.660	0.400	-0.680	-0.420
2020/01/31 17:04:53.7	356.660	0.360	-0.630	-0.430
2020/01/31 17:04:53.8	356.660	0.310	-0.570	-0.430
2020/01/31 17:04:53.9	356.660	0.260	-0.510	-0.440
2020/01/31 17:04:54.0	356.660	0.200	-0.450	-0.440
2020/01/31 17:04:54.1	356.660	0.140	-0.380	-0.450
2020/01/31 17:04:54.2	356.650	0.090	-0.320	-0.450
2020/01/31 17:04:54.3	356.650	0.030	-0.250	-0.450
2020/01/31 17:04:54.4	356.650	-0.040	-0.180	-0.450
2020/01/31 17:04:54.5	356.650	-0.100	-0.110	-0.450
2020/01/31 17:04:54.6	356.650	-0.160	-0.040	-0.450
2020/01/31 17:04:54.7	356.650	-0.220	0.030	-0.440
2020/01/31 17:04:54.8	356.630	-0.270	0.100	-0.440
2020/01/31 17:04:54.9	356.630	-0.330	0.170	-0.430
2020/01/31 17:04:55.0	356.630	-0.380	0.230	-0.430
2020/01/31 17:04:55.1	356.620	-0.430	0.300	-0.420
2020/01/31 17:04:55.2	356.620	-0.480	0.360	-0.410
2020/01/31 17:04:55.3	356.610	-0.520	0.420	-0.390
2020/01/31 17:04:55.4	356.600	-0.560	0.470	-0.380
2020/01/31 17:04:55.5	356.590	-0.600	0.530	-0.370
2020/01/31 17:04:55.6	356.580	-0.630	0.580	-0.350
2020/01/31 17:04:55.7	356.570	-0.660	0.620	-0.330
2020/01/31 17:04:55.8	356.560	-0.680	0.660	-0.310
2020/01/31 17:04:55.9	356.540	-0.700	0.700	-0.290
2020/01/31 17:04:56.0	356.520	-0.710	0.730	-0.270
2020/01/31 17:04:56.1	356.500	-0.720	0.760	-0.240
2020/01/31 17:04:56.2	356.480	-0.720	0.780	-0.210
2020/01/31 17:04:56.3	356.450	-0.720	0.800	-0.190
2020/01/31 17:04:56.4	356.430	-0.710	0.810	-0.160
2020/01/31 17:04:56.5	356.400	-0.700	0.810	-0.130
2020/01/31 17:04:56.6	356.370	-0.690	0.810	-0.090
2020/01/31 17:04:56.7	356.340	-0.670	0.800	-0.060
2020/01/31 17:04:56.8	356.320	-0.650	0.790	-0.020
2020/01/31 17:04:56.9	356.290	-0.630	0.760	0.010
2020/01/31 17:04:57.0	356.260	-0.600	0.730	0.040
2020/01/31 17:04:57.1	356.230	-0.570	0.690	0.080
2020/01/31 17:04:57.2	356.200	-0.540	0.640	0.110
2020/01/31 17:04:57.3	356.170	-0.500	0.580	0.140
2020/01/31 17:04:57.4	356.140	-0.470	0.520	0.170
2020/01/31 17:04:57.5	356.120	-0.430	0.450	0.200
2020/01/31 17:04:57.6	356.090	-0.390	0.370	0.220
2020/01/31 17:04:57.7	356.070	-0.350	0.280	0.250
2020/01/31 17:04:57.8	356.040	-0.310	0.190	0.270
2020/01/31 17:04:57.9	356.020	-0.260	0.090	0.290
2020/01/31 17:04:58.0	356.010	-0.220	-0.010	0.300
2020/01/31 17:04:58.1	356.000	-0.180	-0.110	0.300
2020/01/31 17:04:58.2	355.990	-0.130	-0.220	0.300
2020/01/31 17:04:58.3	355.980	-0.090	-0.330	0.300
2020/01/31 17:04:58.4	355.980	-0.050	-0.450	0.290
2020/01/31 17:04:58.5	355.980	-0.000	-0.570	0.270
2020/01/31 17:04:58.6	355.980	0.040	-0.680	0.250
2020/01/31 17:04:58.7	355.990	0.080	-0.800	0.220
2020/01/31 17:04:58.8	355.990	0.120	-0.910	0.190
2020/01/31 17:04:58.9	356.010	0.160	-1.020	0.150
2020/01/31 17:04:59.0	356.020	0.200	-1.130	0.110
2020/01/31 17:04:59.1	356.050	0.240	-1.230	0.070
2020/01/31 17:04:59.2	356.070	0.280	-1.330	0.020
2020/01/31 17:04:59.3	356.110	0.310	-1.430	-0.020
2020/01/31 17:04:59.4	356.140	0.350	-1.510	-0.070
2020/01/31 17:04:59.5	356.180	0.380	-1.590	-0.120
2020/01/31 17:04:59.6	356.220	0.420	-1.660	-0.160
2020/01/31 17:04:59.7	356.270	0.450	-1.720	-0.210
2020/01/31 17:04:59.8	356.320	0.480	-1.770	-0.250
2020/01/31 17:04:59.9	356.370	0.510	-1.810	-0.290
2020/01/31 17:05:00.0	356.420	0.540	-1.840	-0.330
2020/01/31 17:05:00.1	356.480	0.560	-1.850	-0.370
2020/01/31 17:05:00.2	356.540	0.580	-1.860	-0.400
2020/01/31 17:05:00.3	356.590	0.600	-1.850	-0.430
2020/01/31 17:05:00.4	356.650	0.620	-1.830	-0.450
2020/01/31 17:05:00.5	356.710	0.640	-1.800	-0.470
2020/01/31 17:05:00.6	356.760	0.650	-1.760	-0.490
2020/01/31 17:05:00.7	356.810	0.660	-1.700	-0.500
2020/01/31 17:05:00.8	356.880	0.670	-1.640	-0.500
2020/01/31 17:05:00.9	356.930	0.670	-1.560	-0.500
2020/01/31 17:05:01.0	356.970	0.680	-1.470	-0.500
2020/01/31 17:05:01.1	357.010	0.670	-1.380	-0.480
2020/01/31 17:05:01.2	357.050	0.670	-1.270	-0.470
2020/01/31 17:05:01.3	357.080	0.660	-1.160	-0.440
2020/01/31 17:05:01.4	357.100	0.650	-1.040	-0.420
2020/01/31 17:05:01.5	357.120	0.630	-0.910	-0.380
2020/01/31 17:05:01.6	357.130	0.610	-0.770	-0.350
2020/01/31 17:05:01.7	357.140	0.590	-0.640	-0.310
2020/01/31 17:05:01.8	357.140	0.560	-0.500	-0.270
2020/01/31 17:05:01.9	357.130	0.540	-0.360	-0.220
2020/01/31 17:05:02.0	357.130	0.500	-0.210	-0.170
2020/01/31 17:05:02.1	357.120	0.470	-0.070	-0.120
2020/01/31 17:05:02.2	357.100	0.430	0.070	-0.070
2020/01/31 17:05:02.3	357.080	0.400	0.210	-0.020
2020/01/31 17:05:02.4	357.060	0.360	0.350	0.030
2020/01/31 17:05:02.5	357.030	0.320	0.480	0.080
2020/01/31 17:05:02.6	357.000	0.270	0.600	0.130
2020/01/31 17:05:02.7	356.970	0.230	0.720	0.180
2020/01/31 17:05:02.8	356.950	0.180	0.830	0.240
2020/01/31 17:05:02.9	356.920	0.140	0.930	0.280
2020/01/31 17:05:03.0	356.890	0.090	1.020	0.320
2020/01/31 17:05:03.1	356.860	0.040	1.100	0.360
2020/01/31 17:05:03.2	356.820	-0.000	1.170	0.390
2020/01/31 17:05:03.3	356.790	-0.050	1.230	0.420
2020/01/31 17:05:03.4	356.760	-0.090	1.270	0.440
2020/01/31 17:05:03.5	356.740	-0.130	1.300	0.460
2020/01/31 17:05:03.6	356.710	-0.170	1.320	0.470
2020/01/31 17:05:03.7	356.690	-0.210	1.330	0.470
2020/01/31 17:05:03.8	356.670	-0.250	1.320	0.470
2020/01/31 17:05:03.9	356.650	-0.290	1.300	0.460
2020/01/31 17:05:04.0	356.630	-0.320	1.270	0.450
2020/01/31 17:05:04.1	356.610	-0.360	1.230	0.440
2020/01/31 17:05:04.2	356.590	-0.390	1.180	0.420
2020/01/31 17:05:04.3	356.570	-0.420	1.120	0.390
2020/01/31 17:05:04.4	356.560	-0.440	1.060	0.360
2020/01/31 17:05:04.5	356.540	-0.470	0.980	0.330
2020/01/31 17:05:04.6	356.530	-0.490	0.900	0.290
2020/01/31 17:05:04.7	356.520	-0.510	0.810	0.250
2020/01/31 17:05:04.8	356.520	-0.530	0.720	0.210
2020/01/31 17:05:04.9	356.510	-0.550	0.620	0.160
2020/01/31 17:05:05.0	356.500	-0.560	0.520	0.110
2020/01/31 17:05:05.1	356.490	-0.570	0.420	0.050
2020/01/31 17:05:05.2	356.480	-0.580	0.320	-0.000
2020/01/31 17:05:05.3	356.480	-0.580	0.210	-0.060
2020/01/31 17:05:05.4	356.480	-0.590	0.110	-0.110
2020/01/31 17:05:05.5	356.470	-0.590	0.010	-0.170
2020/01/31 17:05:05.6	356.470	-0.590	-0.090	-0.230
2020/01/31 17:05:05.7	356.470	-0.580	-0.190	-0.280
2020/01/31 17:05:05.8	356.470	-0.570	-0.270	-0.340
2020/01/31 17:05:05.9	356.470	-0.560	-0.360	-0.390
2020/01/31 17:05:06.0	356.470	-0.550	-0.450	-0.440
2020/01/31 17:05:06.1	356.470	-0.540	-0.530	-0.490
2020/01/31 17:05:06.2	356.470	-0.520	-0.610	-0.530
2020/01/31 17:05:06.3	356.470	-0.500	-0.690	-0.570
2020/01/31 17:05:06.4	356.470	-0.480	-0.750	-0.610
2020/01/31 17:05:06.5	356.470	-0.460	-0.820	-0.640
2020/01/31 17:05:06.6	356.460	-0.430	-0.880	-0.680
2020/01/31 17:05:06.7	356.460	-0.400	-0.930	-0.700
2020/01/31 17:05:06.8	356.460	-0.370	-0.980	-0.720
2020/01/31 17:05:06.9	356.460	-0.340	-1.020	-0.740
2020/01/31 17:05:07.0	356.450	-0.310	-1.060	-0.760
2020/01/31 17:05:07.1	356.450	-0.280	-1.090	-0.770
2020/01/31 17:05:07.2	356.450	-0.240	-1.120	-0.780
2020/01/31 17:05:07.3	356.440	-0.210	-1.150	-0.780
2020/01/31 17:05:07.4	356.440	-0.170	-1.170	-0.780
2020/01/31 17:05:07.5	356.440	-0.140	-1.190	-0.780
2020/01/31 17:05:07.6	356.430	-0.100	-1.200	-0.770
2020/01/31 17:05:07.7	356.430	-0.060	-1.210	-0.760
2020/01/31 17:05:07.8	356.420	-0.020	-1.210	-0.750
2020/01/31 17:05:07.9	356.420	0.020	-1.210	-0.740
2020/01/31 17:05:08.0	356.420	0.050	-1.210	-0.720
2020/01/31 17:05:08.1	356.420	0.090	-1.210	-0.700
2020/01/31 17:05:08.2	356.420	0.130	-1.210	-0.680
2020/01/31 17:05:08.3	356.430	0.170	-1.200	-0.660
2020/01/31 17:05:08.4	356.440	0.210	-1.190	-0.630
2020/01/31 17:05:08.5	356.450	0.240	-1.170	-0.610
2020/01/31 17:05:08.6	356.460	0.280	-1.160	-0.580
2020/01/31 17:05:08.7	356.470	0.310	-1.140	-0.550
2020/01/31 17:05:08.8	356.490	0.340	-1.110	-0.510
2020/01/31 17:05:08.9	356.510	0.380	-1.090	-0.480
2020/01/31 17:05:09.0	356.530	0.410	-1.060	-0.450
2020/01/31 17:05:09.1	356.540	0.430	-1.020	-0.410
2020/01/31 17:05:09.2	356.560	0.460	-0.990	-0.380
2020/01/31 17:05:09.3	356.580	0.480	-0.950	-0.340
2020/01/31 17:05:09.4	356.600	0.500	-0.910	-0.310
2020/01/31 17:05:09.5	356.620	0.520	-0.860	-0.270
2020/01/31 17:05:09.6	356.640	0.530	-0.810	-0.230
2020/01/31 17:05:09.7	356.660	0.540	-0.760	-0.190
2020/01/31 17:05:09.8	356.680	0.550	-0.710	-0.150
2020/01/31 17:05:09.9	356.700	0.550	-0.650	-0.120
2020/01/31 17:05:10.0	356.720	0.550	-0.590	-0.080
2020/01/31 17:05:10.1	356.730	0.540	-0.530	-0.050
2020/01/31 17:05:10.2	356.750	0.540	-0.460	-0.020
2020/01/31 17:05:10.3	356.770	0.520	-0.400	0.010
2020/01/31 17:05:10.4	356.790	0.510	-0.330	0.040
2020/01/31 17:05:10.5	356.810	0.490	-0.270	0.060
2020/01/31 17:05:10.6	356.820	0.460	-0.200	0.090
2020/01/31 17:05:10.7	356.840	0.440	-0.130	0.110
2020/01/31 17:05:10.8	356.860	0.410	-0.070	0.130
2020/01/31 17:05:10.9	356.870	0.370	-0.010	0.150
2020/01/31 17:05:11.0	356.880	0.340	0.060	0.170
2020/01/31 17:05:11.1	356.900	0.300	0.120	0.180
2020/01/31 17:05:11.2	356.910	0.260	0.180	0.200
2020/01/31 17:05:11.3	356.920	0.220	0.240	0.210
2020/01/31 17:05:11.4	356.920	0.170	0.290	0.220
2020/01/31 17:05:11.5	356.930	0.130	0.340	0.230
2020/01/31 17:05:11.6	356.940	0.090	0.390	0.230
2020/01/31 17:05:11.7	356.940	0.040	0.430	0.240
2020/01/31 17:05:11.8	356.940	-0.000	0.480	0.250
2020/01/31 17:05:11.9	356.930	-0.050	0.510	0.260
2020/01/31 17:05:12.0	356.930	-0.090	0.550	0.270
2020/01/31 17:05:12.1	356.920	-0.140	0.570	0.280
2020/01/31 17:05:12.2	356.910	-0.180	0.600	0.290
2020/01/31 17:05:12.3	356.900	-0.220	0.620	0.300
2020/01/31 17:05:12.4	356.890	-0.250	0.630	0.310
2020/01/31 17:05:12.5	356.870	-0.290	0.640	0.310
2020/01/31 17:05:12.6	356.860	-0.320	0.650	0.320
2020/01/31 17:05:12.7	356.840	-0.350	0.650	0.320
2020/01/31 17:05:12.8	356.820	-0.370	0.640	0.330
2020/01/31 17:05:12.9	356.810	-0.400	0.630	0.330
2020/01/31 17:05:13.0	356.790	-0.410	0.620	0.320
2020/01/31 17:05:13.1	356.770	-0.430	0.600	0.320
2020/01/31 17:05:13.2	356.760	-0.430	0.570	0.310
2020/01/31 17:05:13.3	356.740	-0.440	0.540	0.300
2020/01/31 17:05:13.4	356.730	-0.440	0.510	0.290
2020/01/31 17:05:13.5	356.710	-0.430	0.470	0.270
2020/01/31 17:05:13.6	356.700	-0.420	0.430	0.260
2020/01/31 17:05:13.7	356.690	-0.400	0.390	0.240
2020/01/31 17:05:13.8	356.680	-0.380	0.340	0.220
2020/01/31 17:05:13.9	356.670	-0.360	0.290	0.200
2020/01/31 17:05:14.0	356.660	-0.330	0.240	0.190
2020/01/31 17:05:14.1	356.650	-0.290	0.180	0.170
2020/01/31 17:05:14.2	356.640	-0.250	0.130	0.150
2020/01/31 17:05:14.3	356.630	-0.210	0.070	0.140
2020/01/31 17:05:14.4	356.630	-0.170	0.010	0.120
2020/01/31 17:05:14.5	356.620	-0.120	-0.040	0.110
2020/01/31 17:05:14.6	356.610	-0.070	-0.100	0.100
2020/01/31 17:05:14.7	356.600	-0.020	-0.150	0.080
2020/01/31 17:05:14.8	356.570	0.030	-0.210	0.070
2020/01/31 17:05:14.9	356.560	0.080	-0.260	0.060
2020/01/31 17:05:15.0	356.550	0.130	-0.310	0.060
2020/01/31 17:05:15.1	356.540	0.180	-0.360	0.050
2020/01/31 17:05:15.2	356.530	0.230	-0.400	0.050
2020/01/31 17:05:15.3	356.520	0.270	-0.450	0.040
2020/01/31 17:05:15.4	356.510	0.320	-0.490	0.040
2020/01/31 17:05:15.5	356.500	0.360	-0.520	0.040
2020/01/31 17:05:15.6	356.490	0.400	-0.560	0.040
2020/01/31 17:05:15.7	356.470	0.430	-0.590	0.030
2020/01/31 17:05:15.8	356.450	0.460	-0.620	0.040
2020/01/31 17:05:15.9	356.440	0.490	-0.640	0.040
2020/01/31 17:05:16.0	356.420	0.510	-0.670	0.040
2020/01/31 17:05:16.1	356.410	0.530	-0.690	0.040
2020/01/31 17:05:16.2	356.400	0.540	-0.710	0.040
2020/01/31 17:05:16.3	356.390	0.550	-0.720	0.040
2020/01/31 17:05:16.4	356.380	0.550	-0.740	0.030
2020/01/31 17:05:16.5	356.360	0.550	-0.750	0.030
2020/01/31 17:05:16.6	356.350	0.550	-0.760	0.020
2020/01/31 17:05:16.7	356.340	0.540	-0.760	0.010
2020/01/31 17:05:16.8	356.350	0.520	-0.770	0.010
2020/01/31 17:05:16.9	356.340	0.500	-0.770	-0.000
2020/01/31 17:05:17.0	356.330	0.470	-0.770	-0.020
2020/01/31 17:05:17.1	356.320	0.450	-0.760	-0.030
2020/01/31 17:05:17.2	356.310	0.410	-0.760	-0.050
2020/01/31 17:05:17.3	356.300	0.380	-0.740	-0.070
2020/01/31 17:05:17.4	356.290	0.340	-0.730	-0.090
2020/01/31 17:05:17.5	356.280	0.290	-0.720	-0.120
2020/01/31 17:05:17.6	356.280	0.250	-0.700	-0.140
2020/01/31 17:05:17.7	356.270	0.200	-0.680	-0.170
2020/01/31 17:05:17.8	356.260	0.150	-0.650	-0.200
2020/01/31 17:05:17.9	356.250	0.100	-0.620	-0.230
2020/01/31 17:05:18.0	356.240	0.050	-0.590	-0.250
2020/01/31 17:05:18.1	356.230	0.000	-0.560	-0.280
2020/01/31 17:05:18.2	356.220	-0.050	-0.530	-0.310
2020/01/31 17:05:18.3	356.220	-0.100	-0.490	-0.330
2020/01/31 17:05:18.4	356.210	-0.150	-0.460	-0.350
2020/01/31 17:05:18.5	356.200	-0.200	-0.420	-0.370
2020/01/31 17:05:18.6	356.190	-0.240	-0.380	-0.390
2020/01/31 17:05:18.7	356.190	-0.290	-0.340	-0.410
2020/01/31 17:05:18.8	356.190	-0.330	-0.300	-0.430
2020/01/31 17:05:18.9	356.180	-0.360	-0.270	-0.440
2020/01/31 17:05:19.0	356.180	-0.400	-0.230	-0.450
2020/01/31 17:05:19.1	356.180	-0.430	-0.190	-0.460
2020/01/31 17:05:19.2	356.190	-0.450	-0.160	-0.470
2020/01/31 17:05:19.3	356.190	-0.480	-0.130	-0.480
2020/01/31 17:05:19.4	356.200	-0.490	-0.100	-0.490
2020/01/31 17:05:19.5	356.210	-0.510	-0.070	-0.500
2020/01/31 17:05:19.6	356.220	-0.520	-0.050	-0.510
2020/01/31 17:05:19.7	356.240	-0.520	-0.030	-0.520
2020/01/31 17:05:19.8	356.260	-0.520	-0.020	-0.530
2020/01/31 17:05:19.9	356.290	-0.520	-0.010	-0.540
2020/01/31 17:05:20.0	356.310	-0.510	-0.000	-0.550
2020/01/31 17:05:20.1	356.330	-0.490	-0.000	-0.560
2020/01/31 17:05:20.2	356.360	-0.470	-0.000	-0.560
2020/01/31 17:05:20.3	356.380	-0.450	-0.010	-0.570
2020/01/31 17:05:20.4	356.410	-0.430	-0.010	-0.580
2020/01/31 17:05:20.5	356.440	-0.400	-0.020	-0.590
2020/01/31 17:05:20.6	356.470	-0.370	-0.040	-0.590
2020/01/31 17:05:20.7	356.500	-0.340	-0.050	-0.600
2020/01/31 17:05:20.8	356.530	-0.300	-0.060	-0.600
2020/01/31 17:05:20.9	356.570	-0.260	-0.080	-0.600
2020/01/31 17:05:21.0	356.600	-0.230	-0.100	-0.600
2020/01/31 17:05:21.1	356.630	-0.190	-0.120	-0.600
2020/01/31 17:05:21.2	356.660	-0.150	-0.140	-0.600
2020/01/31 17:05:21.3	356.700	-0.110	-0.160	-0.600
2020/01/31 17:05:21.4	356.730	-0.070	-0.180	-0.600
2020/01/31 17:05:21.5	356.760	-0.040	-0.200	-0.590
2020/01/31 17:05:21.6	356.780	-0.000	-0.220	-0.580
2020/01/31 17:05:21.7	356.810	0.030	-0.240	-0.570
2020/01/31 17:05:21.8	356.820	0.060	-0.250	-0.560
2020/01/31 17:05:21.9	356.850	0.090	-0.270	-0.540
2020/01/31 17:05:22.0	356.870	0.110	-0.280	-0.530
2020/01/31 17:05:22.1	356.890	0.130	-0.290	-0.510
2020/01/31 17:05:22.2	356.910	0.140	-0.300	-0.490
2020/01/31 17:05:22.3	356.920	0.150	-0.300	-0.470
2020/01/31 17:05:22.4	356.940	0.160	-0.310	-0.440
2020/01/31 17:05:22.5	356.950	0.160	-0.310	-0.420
2020/01/31 17:05:22.6	356.960	0.160	-0.310	-0.400
2020/01/31 17:05:22.7	356.960	0.150	-0.310	-0.370
2020/01/31 17:05:22.8	356.980	0.140	-0.310	-0.350
2020/01/31 17:05:22.9	356.980	0.120	-0.310	-0.320
2020/01/31 17:05:23.0	356.980	0.100	-0.300	-0.300
2020/01/31 17:05:23.1	356.980	0.070	-0.300	-0.280
2020/01/31 17:05:23.2	356.970	0.050	-0.290	-0.260
2020/01/31 17:05:23.3	356.960	0.010	-0.290	-0.250
2020/01/31 17:05:23.4	356.950	-0.020	-0.290	-0.240
2020/01/31 17:05:23.5	356.940	-0.060	-0.280	-0.230
2020/01/31 17:05:23.6	356.930	-0.100	-0.280	-0.220
2020/01/31 17:05:23.7	356.920	-0.130	-0.270	-0.220
2020/01/31 17:05:23.8	356.910	-0.180	-0.270	-0.210
2020/01/31 17:05:23.9	356.900	-0.220	-0.270	-0.210
2020/01/31 17:05:24.0	356.890	-0.260	-0.260	-0.220
2020/01/31 17:05:24.1	356.870	-0.290	-0.260	-0.220
2020/01/31 17:05:24.2	356.860	-0.330	-0.260	-0.230
2020/01/31 17:05:24.3	356.840	-0.370	-0.260	-0.240
2020/01/31 17:05:24.4	356.830	-0.400	-0.260	-0.250
2020/01/31 17:05:24.5	356.810	-0.430	-0.250	-0.250
2020/01/31 17:05:24.6	356.800	-0.450	-0.250	-0.260
2020/01/31 17:05:24.7	356.780	-0.470	-0.250	-0.270
2020/01/31 17:05:24.8	356.770	-0.480	-0.250	-0.290
2020/01/31 17:05:24.9	356.760	-0.490	-0.250	-0.300
2020/01/31 17:05:25.0	356.740	-0.490	-0.250	-0.300
2020/01/31 17:05:25.1	356.730	-0.490	-0.250	-0.310
2020/01/31 17:05:25.2	356.710	-0.480	-0.250	-0.320
2020/01/31 17:05:25.3	356.700	-0.470	-0.260	-0.320
2020/01/31 17:05:25.4	356.690	-0.450	-0.260	-0.320
2020/01/31 17:05:25.5	356.680	-0.420	-0.270	-0.330
2020/01/31 17:05:25.6	356.660	-0.390	-0.270	-0.330
2020/01/31 17:05:25.7	356.650	-0.350	-0.280	-0.320
2020/01/31 17:05:25.8	356.650	-0.310	-0.290	-0.320
2020/01/31 17:05:25.9	356.640	-0.260	-0.300	-0.310
2020/01/31 17:05:26.0	356.620	-0.210	-0.310	-0.310
2020/01/31 17:05:26.1	356.610	-0.150	-0.320	-0.300
2020/01/31 17:05:26.2	356.600	-0.090	-0.340	-0.290
2020/01/31 17:05:26.3	356.590	-0.030	-0.350	-0.290
2020/01/31 17:05:26.4	356.580	0.030	-0.360	-0.280
2020/01/31 17:05:26.5	356.570	0.100	-0.370	-0.270
2020/01/31 17:05:26.6	356.560	0.170	-0.380	-0.260
2020/01/31 17:05:26.7	356.550	0.230	-0.390	-0.240
2020/01/31 17:05:26.8	356.540	0.300	-0.400	-0.230
2020/01/31 17:05:26.9	356.530	0.370	-0.410	-0.220
2020/01/31 17:05:27.0	356.520	0.430	-0.420	-0.200
2020/01/31 17:05:27.1	356.510	0.500	-0.420	-0.190
2020/01/31 17:05:27.2	356.500	0.550	-0.420	-0.180
2020/01/31 17:05:27.3	356.490	0.610	-0.420	-0.160
2020/01/31 17:05:27.4	356.490	0.660	-0.420	-0.150
2020/01/31 17:05:27.5	356.480	0.710	-0.410	-0.130
2020/01/31 17:05:27.6	356.470	0.760	-0.400	-0.110
2020/01/31 17:05:27.7	356.470	0.800	-0.380	-0.090
2020/01/31 17:05:27.8	356.460	0.830	-0.370	-0.080
2020/01/31 17:05:27.9	356.450	0.860	-0.340	-0.060
2020/01/31 17:05:28.0	356.450	0.880	-0.320	-0.040
2020/01/31 17:05:28.1	356.440	0.890	-0.290	-0.010
2020/01/31 17:05:28.2	356.440	0.900	-0.260	0.010
2020/01/31 17:05:28.3	356.430	0.910	-0.220	0.030
2020/01/31 17:05:28.4	356.430	0.900	-0.180	0.060
2020/01/31 17:05:28.5	356.420	0.890	-0.140	0.080
2020/01/31 17:05:28.6	356.420	0.880	-0.100	0.100
2020/01/31 17:05:28.7	356.410	0.850	-0.050	0.130
2020/01/31 17:05:28.8	356.410	0.830	-0.010	0.160
2020/01/31 17:05:28.9	356.410	0.790	0.040	0.180
2020/01/31 17:05:29.0	356.400	0.750	0.080	0.200
2020/01/31 17:05:29.1	356.390	0.710	0.130	0.220
2020/01/31 17:05:29.2	356.390	0.660	0.170	0.240
2020/01/31 17:05:29.3	356.380	0.610	0.210	0.260
2020/01/31 17:05:29.4	356.370	0.550	0.250	0.270
2020/01/31 17:05:29.5	356.370	0.490	0.290	0.290
2020/01/31 17:05:29.6	356.370	0.420	0.320	0.290
2020/01/31 17:05:29.7	356.360	0.360	0.350	0.300
2020/01/31 17:05:29.8	356.370	0.290	0.370	0.300
2020/01/31 17:05:29.9	356.370	0.220	0.390	0.300
2020/01/31 17:05:30.0	356.370	0.150	0.410	0.300
2020/01/31 17:05:30.1	356.370	0.090	0.410	0.290
2020/01/31 17:05:30.2	356.370	0.020	0.420	0.280
2020/01/31 17:05:30.3	356.370	-0.050	0.420	0.260
2020/01/31 17:05:30.4	356.380	-0.110	0.410	0.250
2020/01/31 17:05:30.5	356.380	-0.180	0.390	0.230
2020/01/31 17:05:30.6	356.390	-0.240	0.370	0.200
2020/01/31 17:05:30.7	356.400	-0.290	0.350	0.170
2020/01/31 17:05:30.8	356.400	-0.350	0.320	0.140
2020/01/31 17:05:30.9	356.420	-0.390	0.280	0.110
2020/01/31 17:05:31.0	356.430	-0.440	0.240	0.080
2020/01/31 17:05:31.1	356.440	-0.480	0.200	0.050
2020/01/31 17:05:31.2	356.460	-0.510	0.150	0.010
2020/01/31 17:05:31.3	356.480	-0.540	0.090	-0.020
2020/01/31 17:05:31.4	356.490	-0.570	0.040	-0.050
2020/01/31 17:05:31.5	356.510	-0.590	-0.020	-0.090
2020/01/31 17:05:31.6	356.530	-0.600	-0.080	-0.120
2020/01/31 17:05:31.7	356.550	-0.620	-0.150	-0.160
2020/01/31 17:05:31.8	356.570	-0.620	-0.210	-0.190
2020/01/31 17:05:31.9	356.590	-0.620	-0.270	-0.220
2020/01/31 17:05:32.0	356.610	-0.620	-0.340	-0.260
2020/01/31 17:05:32.1	356.640	-0.620	-0.400	-0.290
2020/01/31 17:05:32.2	356.660	-0.610	-0.460	-0.320
2020/01/31 17:05:32.3	356.690	-0.590	-0.530	-0.360
2020/01/31 17:05:32.4	356.710	-0.580	-0.590	-0.390
2020/01/31 17:05:32.5	356.740	-0.560	-0.650	-0.420
2020/01/31 17:05:32.6	356.760	-0.540	-0.710	-0.450
2020/01/31 17:05:32.7	356.790	-0.520	-0.760	-0.490
2020/01/31 17:05:32.8	356.820	-0.500	-0.810	-0.520
2020/01/31 17:05:32.9	356.850	-0.480	-0.860	-0.550
2020/01/31 17:05:33.0	356.880	-0.450	-0.910	-0.580
2020/01/31 17:05:33.1	356.910	-0.430	-0.950	-0.610
2020/01/31 17:05:33.2	356.940	-0.400	-0.990	-0.650
2020/01/31 17:05:33.3	356.970	-0.380	-1.030	-0.680
2020/01/31 17:05:33.4	357.000	-0.350	-1.060	-0.710
2020/01/31 17:05:33.5	357.030	-0.330	-1.090	-0.740
2020/01/31 17:05:33.6	357.060	-0.310	-1.110	-0.770
2020/01/31 17:05:33.7	357.090	-0.280	-1.130	-0.800
2020/01/31 17:05:33.8	357.120	-0.260	-1.150	-0.820
2020/01/31 17:05:33.9	357.150	-0.240	-1.150	-0.850
2020/01/31 17:05:34.0	357.180	-0.230	-1.160	-0.870
2020/01/31 17:05:34.1	357.210	-0.210	-1.150	-0.890
2020/01/31 17:05:34.2	357.230	-0.200	-1.150	-0.910
2020/01/31 17:05:34.3	357.260	-0.180	-1.130	-0.930
2020/01/31 17:05:34.4	357.290	-0.170	-1.110	-0.940
2020/01/31 17:05:34.5	357.320	-0.160	-1.090	-0.950
2020/01/31 17:05:34.6	357.340	-0.150	-1.060	-0.960
2020/01/31 17:05:34.7	357.360	-0.150	-1.030	-0.960
2020/01/31 17:05:34.8	357.390	-0.140	-0.990	-0.960
2020/01/31 17:05:34.9	357.410	-0.140	-0.950	-0.960
2020/01/31 17:05:35.0	357.420	-0.130	-0.900	-0.950
2020/01/31 17:05:35.1	357.440	-0.130	-0.850	-0.940
2020/01/31 17:05:35.2	357.450	-0.130	-0.800	-0.930
2020/01/31 17:05:35.3	357.460	-0.130	-0.740	-0.910
2020/01/31 17:05:35.4	357.470	-0.120	-0.680	-0.900
2020/01/31 17:05:35.5	357.480	-0.120	-0.620	-0.880
2020/01/31 17:05:35.6	357.490	-0.120	-0.550	-0.850
2020/01/31 17:05:35.7	357.490	-0.120	-0.490	-0.830
2020/01/31 17:05:35.8	357.510	-0.120	-0.420	-0.790
2020/01/31 17:05:35.9	357.510	-0.110	-0.360	-0.760
2020/01/31 17:05:36.0	357.510	-0.110	-0.290	-0.730
2020/01/31 17:05:36.1	357.500	-0.110	-0.220	-0.690
2020/01/31 17:05:36.2	357.500	-0.100	-0.160	-0.660
2020/01/31 17:05:36.3	357.490	-0.090	-0.090	-0.620
2020/01/31 17:05:36.4	357.480	-0.080	-0.030	-0.580
2020/01/31 17:05:36.5	357.470	-0.070	0.040	-0.530
2020/01/31 17:05:36.6	357.450	-0.060	0.100	-0.490
2020/01/31 17:05:36.7	357.440	-0.040	0.160	-0.440
2020/01/31 17:05:36.8	357.430	-0.030	0.220	-0.390
2020/01/31 17:05:36.9	357.410	-0.010	0.270	-0.340
2020/01/31 17:05:37.0	357.380	0.010	0.320	-0.280
2020/01/31 17:05:37.1	357.360	0.030	0.370	-0.230
2020/01/31 17:05:37.2	357.330	0.050	0.410	-0.180
2020/01/31 17:05:37.3	357.310	0.070	0.450	-0.120
2020/01/31 17:05:37.4	357.280	0.090	0.480	-0.070
2020/01/31 17:05:37.5	357.250	0.110	0.510	-0.010
2020/01/31 17:05:37.6	357.220	0.140	0.540	0.040
2020/01/31 17:05:37.7	357.190	0.160	0.560	0.100
2020/01/31 17:05:37.8	357.170	0.180	0.580	0.150
2020/01/31 17:05:37.9	357.140	0.210	0.590	0.210
2020/01/31 17:05:38.0	357.110	0.230	0.600	0.260
2020/01/31 17:05:38.1	357.090	0.260	0.600	0.300
2020/01/31 17:05:38.2	357.060	0.280	0.590	0.350
2020/01/31 17:05:38.3	357.030	0.300	0.580	0.390
2020/01/31 17:05:38.4	357.010	0.320	0.570	0.430
2020/01/31 17:05:38.5	356.980	0.350	0.550	0.460
2020/01/31 17:05:38.6	356.960	0.360	0.520	0.490
2020/01/31 17:05:38.7	356.940	0.380	0.490	0.520
2020/01/31 17:05:38.8	356.920	0.400	0.460	0.550
2020/01/31 17:05:38.9	356.900	0.420	0.410	0.570
2020/01/31 17:05:39.0	356.890	0.430	0.370	0.580
2020/01/31 17:05:39.1	356.880	0.440	0.320	0.590
2020/01/31 17:05:39.2	356.870	0.450	0.270	0.590
2020/01/31 17:05:39.3	356.860	0.460	0.210	0.590
2020/01/31 17:05:39.4	356.860	0.470	0.150	0.580
2020/01/31 17:05:39.5	356.860	0.480	0.090	0.570
2020/01/31 17:05:39.6	356.860	0.480	0.030	0.550
2020/01/31 17:05:39.7	356.860	0.480	-0.040	0.540
2020/01/31 17:05:39.8	356.860	0.480	-0.100	0.510
2020/01/31 17:05:39.9	356.860	0.480	-0.170	0.490
2020/01/31 17:05:40.0	356.870	0.480	-0.230	0.460
2020/01/31 17:05:40.1	356.880	0.470	-0.300	0.430
2020/01/31 17:05:40.2	356.900	0.460	-0.360	0.410
2020/01/31 17:05:40.3	356.910	0.460	-0.420	0.380
2020/01/31 17:05:40.4	356.930	0.440	-0.480	0.340
2020/01/31 17:05:40.5	356.940	0.430	-0.530	0.310
2020/01/31 17:05:40.6	356.960	0.420	-0.580	0.280
2020/01/31 17:05:40.7	356.980	0.400	-0.630	0.240
2020/01/31 17:05:40.8	356.980	0.390	-0.670	0.200
2020/01/31 17:05:40.9	357.000	0.370	-0.710	0.170
2020/01/31 17:05:41.0	357.030	0.350	-0.740	0.130
2020/01/31 17:05:41.1	357.050	0.330	-0.770	0.090
2020/01/31 17:05:41.2	357.070	0.310	-0.800	0.060
2020/01/31 17:05:41.3	357.100	0.280	-0.810	0.020
2020/01/31 17:05:41.4	357.120	0.260	-0.830	-0.020
2020/01/31 17:05:41.5	357.140	0.230	-0.840	-0.050
2020/01/31 17:05:41.6	357.170	0.210	-0.840	-0.090
2020/01/31 17:05:41.7	357.190	0.180	-0.840	-0.120
2020/01/31 17:05:41.8	357.220	0.160	-0.830	-0.150
2020/01/31 17:05:41.9	357.250	0.130	-0.820	-0.190
2020/01/31 17:05:42.0	357.270	0.100	-0.810	-0.230
2020/01/31 17:05:42.1	357.290	0.080	-0.790	-0.260
2020/01/31 17:05:42.2	357.320	0.050	-0.770	-0.290
2020/01/31 17:05:42.3	357.340	0.020	-0.750	-0.330
2020/01/31 17:05:42.4	357.360	-0.000	-0.730	-0.360
2020/01/31 17:05:42.5	357.390	-0.030	-0.700	-0.390
2020/01/31 17:05:42.6	357.410	-0.050	-0.670	-0.430
2020/01/31 17:05:42.7	357.430	-0.080	-0.650	-0.460
2020/01/31 17:05:42.8	357.450	-0.100	-0.620	-0.490
2020/01/31 17:05:42.9	357.470	-0.120	-0.590	-0.520
2020/01/31 17:05:43.0	357.500	-0.140	-0.560	-0.560
2020/01/31 17:05:43.1	357.520	-0.160	-0.530	-0.590
2020/01/31 17:05:43.2	357.550	-0.180	-0.500	-0.620
2020/01/31 17:05:43.3	357.570	-0.200	-0.480	-0.650
2020/01/31 17:05:43.4	357.600	-0.210	-0.450	-0.680
2020/01/31 17:05:43.5	357.620	-0.230	-0.420	-0.700
2020/01/31 17:05:43.6	357.640	-0.240	-0.400	-0.730
2020/01/31 17:05:43.7	357.660	-0.250	-0.380	-0.760
2020/01/31 17:05:43.8	357.700	-0.270	-0.350	-0.780
2020/01/31 17:05:43.9	357.720	-0.280	-0.330	-0.800
2020/01/31 17:05:44.0	357.740	-0.280	-0.320	-0.820
2020/01/31 17:05:44.1	357.760	-0.290	-0.300	-0.840
2020/01/31 17:05:44.2	357.770	-0.300	-0.280	-0.860
2020/01/31 17:05:44.3	357.780	-0.310	-0.260	-0.880
2020/01/31 17:05:44.4	357.790	-0.310	-0.250	-0.890
2020/01/31 17:05:44.5	357.800	-0.320	-0.240	-0.910
2020/01/31 17:05:44.6	357.810	-0.320	-0.220	-0.920
2020/01/31 17:05:44.7	357.810	-0.330	-0.210	-0.930
2020/01/31 17:05:44.8	357.820	-0.330	-0.190	-0.940
2020/01/31 17:05:44.9	357.820	-0.340	-0.180	-0.950
2020/01/31 17:05:45.0	357.820	-0.340	-0.170	-0.960
2020/01/31 17:05:45.1	357.820	-0.350	-0.150	-0.970
2020/01/31 17:05:45.2	357.820	-0.350	-0.140	-0.970
2020/01/31 17:05:45.3	357.810	-0.350	-0.130	-0.980
2020/01/31 17:05:45.4	357.810	-0.360	-0.120	-0.980
2020/01/31 17:05:45.5	357.800	-0.360	-0.110	-0.980
2020/01/31 17:05:45.6	357.790	-0.370	-0.090	-0.980
2020/01/31 17:05:45.7	357.780	-0.370	-0.080	-0.980
2020/01/31 17:05:45.8	357.780	-0.380	-0.070	-0.980
2020/01/31 17:05:45.9	357.770	-0.380	-0.050	-0.970
2020/01/31 17:05:46.0	357.750	-0.380	-0.040	-0.970
2020/01/31 17:05:46.1	357.740	-0.390	-0.030	-0.960
2020/01/31 17:05:46.2	357.730	-0.390	-0.010	-0.950
2020/01/31 17:05:46.3	357.720	-0.390	-0.000	-0.930
2020/01/31 17:05:46.4	357.700	-0.390	0.010	-0.920
2020/01/31 17:05:46.5	357.690	-0.390	0.030	-0.900
2020/01/31 17:05:46.6	357.680	-0.380	0.040	-0.880
2020/01/31 17:05:46.7	357.660	-0.380	0.050	-0.860
2020/01/31 17:05:46.8	357.640	-0.380	0.060	-0.840
2020/01/31 17:05:46.9	357.630	-0.370	0.080	-0.810
2020/01/31 17:05:47.0	357.610	-0.360	0.090	-0.780
2020/01/31 17:05:47.1	357.600	-0.350	0.100	-0.750
2020/01/31 17:05:47.2	357.580	-0.340	0.110	-0.710
2020/01/31 17:05:47.3	357.560	-0.320	0.110	-0.670
2020/01/31 17:05:47.4	357.540	-0.310	0.120	-0.630
2020/01/31 17:05:47.5	357.520	-0.290	0.130	-0.590
2020/01/31 17:05:47.6	357.500	-0.270	0.130	-0.540
2020/01/31 17:05:47.7	357.480	-0.240	0.140	-0.500
2020/01/31 17:05:47.8	357.460	-0.220	0.140	-0.440
2020/01/31 17:05:47.9	357.440	-0.190	0.140	-0.390
2020/01/31 17:05:48.0	357.420	-0.160	0.140	-0.340
2020/01/31 17:05:48.1	357.400	-0.130	0.140	-0.290
2020/01/31 17:05:48.2	357.380	-0.090	0.140	-0.230
2020/01/31 17:05:48.3	357.360	-0.060	0.130	-0.180
2020/01/31 17:05:48.4	357.340	-0.020	0.130	-0.120
2020/01/31 17:05:48.5	357.320	0.020	0.120	-0.070
2020/01/31 17:05:48.6	357.300	0.060	0.120	-0.010
2020/01/31 17:05:48.7	357.290	0.100	0.110	0.050
2020/01/31 17:05:48.8	357.250	0.140	0.100	0.100
2020/01/31 17:05:48.9	357.240	0.170	0.090	0.150
2020/01/31 17:05:49.0	357.220	0.210	0.080	0.210
2020/01/31 17:05:49.1	357.200	0.250	0.070	0.260
2020/01/31 17:05:49.2	357.180	0.290	0.050	0.310
2020/01/31 17:05:49.3	357.160	0.320	0.030	0.350
2020/01/31 17:05:49.4	357.150	0.350	0.020	0.390
2020/01/31 17:05:49.5	357.130	0.380	-0.010	0.430
2020/01/31 17:05:49.6	357.110	0.410	-0.030	0.470
2020/01/31 17:05:49.7	357.100	0.440	-0.060	0.500
2020/01/31 17:05:49.8	357.080	0.460	-0.090	0.530
2020/01/31 17:05:49.9	357.070	0.480	-0.120	0.550
2020/01/31 17:05:50.0	357.060	0.500	-0.150	0.570
2020/01/31 17:05:50.1	357.050	0.510	-0.190	0.580
2020/01/31 17:05:50.2	357.040	0.520	-0.240	0.590
2020/01/31 17:05:50.3	357.030	0.530	-0.280	0.600
2020/01/31 17:05:50.4	357.030	0.530	-0.330	0.600
2020/01/31 17:05:50.5	357.020	0.530	-0.380	0.590
2020/01/31 17:05:50.6	357.020	0.530	-0.430	0.580
2020/01/31 17:05:50.7	357.020	0.520	-0.480	0.570
2020/01/31 17:05:50.8	357.010	0.520	-0.530	0.560
2020/01/31 17:05:50.9	357.010	0.510	-0.590	0.540
2020/01/31 17:05:51.0	357.010	0.490	-0.640	0.510
2020/01/31 17:05:51.1	357.020	0.480	-0.700	0.480
2020/01/31 17:05:51.2	357.020	0.460	-0.750	0.450
2020/01/31 17:05:51.3	357.030	0.440	-0.810	0.420
2020/01/31 17:05:51.4	357.040	0.420	-0.860	0.380
2020/01/31 17:05:51.5	357.050	0.390	-0.910	0.330
2020/01/31 17:05:51.6	357.070	0.370	-0.960	0.280
2020/01/31 17:05:51.7	357.080	0.340	-1.010	0.230
2020/01/31 17:05:51.8	357.100	0.320	-1.050	0.180
2020/01/31 17:05:51.9	357.110	0.290	-1.090	0.120
2020/01/31 17:05:52.0	357.130	0.270	-1.120	0.060
2020/01/31 17:05:52.1	357.160	0.240	-1.150	-0.000
2020/01/31 17:05:52.2	357.180	0.210	-1.180	-0.070
2020/01/31 17:05:52.3	357.200	0.190	-1.210	-0.130
2020/01/31 17:05:52.4	357.230	0.160	-1.220	-0.200
2020/01/31 17:05:52.5	357.260	0.140	-1.240	-0.260
2020/01/31 17:05:52.6	357.280	0.120	-1.250	-0.330
2020/01/31 17:05:52.7	357.310	0.100	-1.250	-0.400
2020/01/31 17:05:52.8	357.350	0.080	-1.250	-0.470
2020/01/31 17:05:52.9	357.380	0.060	-1.240	-0.530
2020/01/31 17:05:53.0	357.420	0.040	-1.230	-0.600
2020/01/31 17:05:53.1	357.460	0.030	-1.210	-0.660
2020/01/31 17:05:53.2	357.500	0.010	-1.190	-0.730
2020/01/31 17:05:53.3	357.540	-0.000	-1.170	-0.790
2020/01/31 17:05:53.4	357.580	-0.020	-1.140	-0.850
2020/01/31 17:05:53.5	357.630	-0.030	-1.100	-0.900
2020/01/31 17:05:53.6	357.670	-0.040	-1.060	-0.960
2020/01/31 17:05:53.7	357.720	-0.050	-1.010	-1.010
2020/01/31 17:05:53.8	357.760	-0.060	-0.960	-1.060
2020/01/31 17:05:53.9	357.810	-0.070	-0.910	-1.100
2020/01/31 17:05:54.0	357.850	-0.080	-0.850	-1.140
2020/01/31 17:05:54.1	357.900	-0.090	-0.780	-1.180
2020/01/31 17:05:54.2	357.940	-0.100	-0.710	-1.210
2020/01/31 17:05:54.3	357.980	-0.110	-0.640	-1.240
2020/01/31 17:05:54.4	358.020	-0.120	-0.560	-1.260
2020/01/31 17:05:54.5	358.060	-0.130	-0.480	-1.280
2020/01/31 17:05:54.6	358.100	-0.140	-0.400	-1.290
2020/01/31 17:05:54.7	358.130	-0.150	-0.310	-1.300
2020/01/31 17:05:54.8	358.170	-0.170	-0.230	-1.290
2020/01/31 17:05:54.9	358.190	-0.180	-0.140	-1.280
2020/01/31 17:05:55.0	358.220	-0.190	-0.040	-1.270
2020/01/31 17:05:55.1	358.240	-0.200	0.050	-1.250
2020/01/31 17:05:55.2	358.250	-0.220	0.140	-1.220
2020/01/31 17:05:55.3	358.270	-0.230	0.230	-1.190
2020/01/31 17:05:55.4	358.280	-0.240	0.330	-1.150
2020/01/31 17:05:55.5	358.280	-0.260	0.410	-1.110
2020/01/31 17:05:55.6	358.280	-0.270	0.500	-1.060
2020/01/31 17:05:55.7	358.280	-0.280	0.580	-1.000
2020/01/31 17:05:55.8	358.290	-0.290	0.660	-0.940
2020/01/31 17:05:55.9	358.280	-0.300	0.740	-0.880
2020/01/31 17:05:56.0	358.270	-0.310	0.810	-0.810
2020/01/31 17:05:56.1	358.250	-0.320	0.870	-0.730
2020/01/31 17:05:56.2	358.230	-0.320	0.930	-0.660
2020/01/31 17:05:56.3	358.210	-0.330	0.980	-0.580
2020/01/31 17:05:56.4	358.180	-0.330	1.020	-0.500
2020/01/31 17:05:56.5	358.150	-0.330	1.060	-0.420
2020/01/31 17:05:56.6	358.110	-0.320	1.080	-0.340
2020/01/31 17:05:56.7	358.080	-0.320	1.100	-0.260
2020/01/31 17:05:56.8	358.030	-0.310	1.110	-0.180
2020/01/31 17:05:56.9	357.990	-0.300	1.120	-0.100
2020/01/31 17:05:57.0	357.940	-0.290	1.110	-0.030
2020/01/31 17:05:57.1	357.900	-0.270	1.090	0.050
2020/01/31 17:05:57.2	357.860	-0.250	1.070	0.120
2020/01/31 17:05:57.3	357.810	-0.230	1.040	0.180
2020/01/31 17:05:57.4	357.760	-0.210	1.000	0.240
2020/01/31 17:05:57.5	357.720	-0.190	0.950	0.300
2020/01/31 17:05:57.6	357.670	-0.160	0.890	0.360
2020/01/31 17:05:57.7	357.630	-0.130	0.830	0.410
2020/01/31 17:05:57.8	357.590	-0.100	0.760	0.450
2020/01/31 17:05:57.9	357.550	-0.070	0.680	0.490
2020/01/31 17:05:58.0	357.510	-0.040	0.600	0.520
2020/01/31 17:05:58.1	357.470	-0.010	0.520	0.550
2020/01/31 17:05:58.2	357.430	0.030	0.430	0.580
2020/01/31 17:05:58.3	357.400	0.060	0.330	0.600
2020/01/31 17:05:58.4	357.370	0.100	0.240	0.610
2020/01/31 17:05:58.5	357.340	0.130	0.140	0.620
2020/01/31 17:05:58.6	357.320	0.160	0.040	0.620
2020/01/31 17:05:58.7	357.290	0.190	-0.060	0.620
2020/01/31 17:05:58.8	357.250	0.220	-0.160	0.620
2020/01/31 17:05:58.9	357.240	0.250	-0.260	0.610
2020/01/31 17:05:59.0	357.220	0.270	-0.350	0.600
2020/01/31 17:05:59.1	357.200	0.290	-0.440	0.590
2020/01/31 17:05:59.2	357.190	0.310	-0.520	0.570
2020/01/31 17:05:59.3	357.170	0.330	-0.600	0.550
2020/01/31 17:05:59.4	357.160	0.340	-0.670	0.520
2020/01/31 17:05:59.5	357.150	0.350	-0.740	0.500
2020/01/31 17:05:59.6	357.140	0.350	-0.800	0.460
2020/01/31 17:05:59.7	357.130	0.360	-0.860	0.430
2020/01/31 17:05:59.8	357.110	0.350	-0.900	0.390
2020/01/31 17:05:59.9	357.100	0.350	-0.940	0.350
2020/01/31 17:06:00.0	357.100	0.340	-0.980	0.310
2020/01/31 17:06:00.1	357.100	0.330	-1.010	0.270
2020/01/31 17:06:00.2	357.090	0.310	-1.030	0.220
2020/01/31 17:06:00.3	357.090	0.290	-1.040	0.180
2020/01/31 17:06:00.4	357.090	0.270	-1.050	0.130
2020/01/31 17:06:00.5	357.090	0.240	-1.050	0.080
2020/01/31 17:06:00.6	357.090	0.210	-1.050	0.040
2020/01/31 17:06:00.7	357.100	0.180	-1.040	-0.010
2020/01/31 17:06:00.8	357.100	0.150	-1.030	-0.060
2020/01/31 17:06:00.9	357.110	0.120	-1.010	-0.110
2020/01/31 17:06:01.0	357.120	0.080	-0.980	-0.150
2020/01/31 17:06:01.1	357.130	0.050	-0.960	-0.200
2020/01/31 17:06:01.2	357.140	0.010	-0.930	-0.240
2020/01/31 17:06:01.3	357.150	-0.030	-0.890	-0.290
2020/01/31 17:06:01.4	357.170	-0.070	-0.860	-0.330
2020/01/31 17:06:01.5	357.180	-0.110	-0.820	-0.380
2020/01/31 17:06:01.6	357.200	-0.140	-0.790	-0.420
2020/01/31 17:06:01.7	357.210	-0.180	-0.750	-0.470
2020/01/31 17:06:01.8	357.220	-0.220	-0.720	-0.500
2020/01/31 17:06:01.9	357.240	-0.250	-0.680	-0.550
2020/01/31 17:06:02.0	357.250	-0.290	-0.650	-0.590
2020/01/31 17:06:02.1	357.260	-0.320	-0.610	-0.630
2020/01/31 17:06:02.2	357.280	-0.350	-0.580	-0.670
2020/01/31 17:06:02.3	357.290	-0.380	-0.550	-0.700
2020/01/31 17:06:02.4	357.300	-0.400	-0.520	-0.740
2020/01/31 17:06:02.5	357.310	-0.420	-0.500	-0.770
2020/01/31 17:06:02.6	357.310	-0.440	-0.470	-0.800
2020/01/31 17:06:02.7	357.320	-0.460	-0.450	-0.830
2020/01/31 17:06:02.8	357.340	-0.470	-0.430	-0.850
2020/01/31 17:06:02.9	357.340	-0.480	-0.420	-0.880
2020/01/31 17:06:03.0	357.350	-0.490	-0.410	-0.900
2020/01/31 17:06:03.1	357.350	-0.490	-0.400	-0.920
2020/01/31 17:06:03.2	357.360	-0.490	-0.400	-0.930
2020/01/31 17:06:03.3	357.370	-0.480	-0.390	-0.950
2020/01/31 17:06:03.4	357.380	-0.470	-0.400	-0.960
2020/01/31 17:06:03.5	357.390	-0.460	-0.400	-0.970
2020/01/31 17:06:03.6	357.410	-0.440	-0.410	-0.980
2020/01/31 17:06:03.7	357.420	-0.420	-0.420	-0.990
2020/01/31 17:06:03.8	357.430	-0.400	-0.430	-1.000
2020/01/31 17:06:03.9	357.460	-0.370	-0.450	-1.000
2020/01/31 17:06:04.0	357.480	-0.340	-0.470	-1.000
2020/01/31 17:06:04.1	357.510	-0.310	-0.490	-1.010
2020/01/31 17:06:04.2	357.540	-0.280	-0.510	-1.010
2020/01/31 17:06:04.3	357.570	-0.240	-0.530	-1.010
2020/01/31 17:06:04.4	357.600	-0.200	-0.550	-1.000
2020/01/31 17:06:04.5	357.640	-0.160	-0.570	-1.000
2020/01/31 17:06:04.6	357.680	-0.120	-0.600	-1.000
2020/01/31 17:06:04.7	357.720	-0.080	-0.620	-0.990
2020/01/31 17:06:04.8	357.770	-0.030	-0.640	-0.980
2020/01/31 17:06:04.9	357.820	0.010	-0.650	-0.970
2020/01/31 17:06:05.0	357.860	0.060	-0.670	-0.960
2020/01/31 17:06:05.1	357.900	0.100	-0.680	-0.950
2020/01/31 17:06:05.2	357.940	0.150	-0.690	-0.930
2020/01/31 17:06:05.3	357.980	0.190	-0.690	-0.910
2020/01/31 17:06:05.4	358.020	0.230	-0.690	-0.880
2020/01/31 17:06:05.5	358.050	0.270	-0.690	-0.860
2020/01/31 17:06:05.6	358.090	0.310	-0.680	-0.830
2020/01/31 17:06:05.7	358.120	0.350	-0.660	-0.790
2020/01/31 17:06:05.8	358.160	0.380	-0.630	-0.750
2020/01/31 17:06:05.9	358.180	0.410	-0.610	-0.700
2020/01/31 17:06:06.0	358.200	0.440	-0.570	-0.660
2020/01/31 17:06:06.1	358.220	0.470	-0.530	-0.610
2020/01/31 17:06:06.2	358.230	0.490	-0.490	-0.560
2020/01/31 17:06:06.3	358.240	0.510	-0.440	-0.510
2020/01/31 17:06:06.4	358.250	0.530	-0.390	-0.460
2020/01/31 17:06:06.5	358.260	0.540	-0.330	-0.400
2020/01/31 17:06:06.6	358.260	0.550	-0.280	-0.340
2020/01/31 17:06:06.7	358.260	0.550	-0.220	-0.290
2020/01/31 17:06:06.8	358.270	0.560	-0.150	-0.220
2020/01/31 17:06:06.9	358.270	0.550	-0.090	-0.160
2020/01/31 17:06:07.0	358.260	0.550	-0.030	-0.110
2020/01/31 17:06:07.1	358.250	0.540	0.040	-0.050
2020/01/31 17:06:07.2	358.240	0.520	0.100	0.000
2020/01/31 17:06:07.3	358.230	0.510	0.150	0.060
2020/01/31 17:06:07.4	358.220	0.490	0.210	0.110
2020/01/31 17:06:07.5	358.200	0.470	0.260	0.150
2020/01/31 17:06:07.6	358.190	0.440	0.310	0.190
2020/01/31 17:06:07.7	358.170	0.420	0.350	0.230
2020/01/31 17:06:07.8	358.170	0.390	0.390	0.270
2020/01/31 17:06:07.9	358.160	0.360	0.420	0.300
2020/01/31 17:06:08.0	358.140	0.330	0.450	0.330
2020/01/31 17:06:08.1	358.130	0.300	0.480	0.350
2020/01/31 17:06:08.2	358.110	0.270	0.500	0.360
2020/01/31 17:06:08.3	358.100	0.230	0.510	0.370
2020/01/31 17:06:08.4	358.090	0.200	0.520	0.380
2020/01/31 17:06:08.5	358.070	0.170	0.520	0.380
2020/01/31 17:06:08.6	358.050	0.130	0.520	0.380
2020/01/31 17:06:08.7	358.030	0.100	0.520	0.370
2020/01/31 17:06:08.8	358.010	0.070	0.520	0.360
2020/01/31 17:06:08.9	357.990	0.040	0.500	0.350
2020/01/31 17:06:09.0	357.960	0.010	0.490	0.330
2020/01/31 17:06:09.1	357.930	-0.020	0.470	0.310
2020/01/31 17:06:09.2	357.900	-0.050	0.460	0.290
2020/01/31 17:06:09.3	357.870	-0.080	0.440	0.270
2020/01/31 17:06:09.4	357.830	-0.100	0.410	0.250
2020/01/31 17:06:09.5	357.800	-0.120	0.390	0.220
2020/01/31 17:06:09.6	357.760	-0.140	0.370	0.200
2020/01/31 17:06:09.7	357.710	-0.160	0.340	0.180
2020/01/31 17:06:09.8	357.680	-0.180	0.320	0.150
2020/01/31 17:06:09.9	357.630	-0.200	0.300	0.130
2020/01/31 17:06:10.0	357.590	-0.210	0.270	0.100
2020/01/31 17:06:10.1	357.540	-0.220	0.250	0.080
2020/01/31 17:06:10.2	357.500	-0.230	0.230	0.060
2020/01/31 17:06:10.3	357.450	-0.240	0.200	0.040
2020/01/31 17:06:10.4	357.400	-0.240	0.180	0.010
2020/01/31 17:06:10.5	357.350	-0.250	0.160	-0.010
2020/01/31 17:06:10.6	357.310	-0.250	0.130	-0.030
2020/01/31 17:06:10.7	357.260	-0.250	0.110	-0.050
2020/01/31 17:06:10.8	357.200	-0.250	0.090	-0.070
2020/01/31 17:06:10.9	357.160	-0.240	0.060	-0.080
2020/01/31 17:06:11.0	357.120	-0.240	0.030	-0.100
2020/01/31 17:06:11.1	357.080	-0.230	0.010	-0.120
2020/01/31 17:06:11.2	357.040	-0.220	-0.020	-0.130
2020/01/31 17:06:11.3	357.000	-0.210	-0.050	-0.150
2020/01/31 17:06:11.4	356.960	-0.200	-0.070	-0.160
2020/01/31 17:06:11.5	356.920	-0.190	-0.100	-0.170
2020/01/31 17:06:11.6	356.880	-0.180	-0.130	-0.180
2020/01/31 17:06:11.7	356.840	-0.170	-0.160	-0.200
2020/01/31 17:06:11.8	356.790	-0.150	-0.180	-0.210
2020/01/31 17:06:11.9	356.760	-0.140	-0.210	-0.220
2020/01/31 17:06:12.0	356.720	-0.130	-0.240	-0.230
2020/01/31 17:06:12.1	356.690	-0.120	-0.260	-0.240
2020/01/31 17:06:12.2	356.660	-0.100	-0.290	-0.250
2020/01/31 17:06:12.3	356.630	-0.090	-0.310	-0.260
2020/01/31 17:06:12.4	356.600	-0.080	-0.340	-0.270
2020/01/31 17:06:12.5	356.580	-0.060	-0.360	-0.280
2020/01/31 17:06:12.6	356.560	-0.050	-0.390	-0.290
2020/01/31 17:06:12.7	356.540	-0.040	-0.410	-0.300
2020/01/31 17:06:12.8	356.540	-0.030	-0.440	-0.310
2020/01/31 17:06:12.9	356.530	-0.010	-0.460	-0.320
2020/01/31 17:06:13.0	356.530	-0.000	-0.490	-0.340
2020/01/31 17:06:13.1	356.530	0.010	-0.520	-0.360
2020/01/31 17:06:13.2	356.550	0.030	-0.550	-0.380
2020/01/31 17:06:13.3	356.560	0.040	-0.590	-0.410
2020/01/31 17:06:13.4	356.580	0.050	-0.620	-0.440
2020/01/31 17:06:13.5	356.610	0.060	-0.660	-0.470
2020/01/31 17:06:13.6	356.650	0.080	-0.700	-0.500
2020/01/31 17:06:13.7	356.690	0.090	-0.740	-0.530
2020/01/31 17:06:13.8	356.740	0.100	-0.780	-0.570
2020/01/31 17:06:13.9	356.780	0.110	-0.820	-0.610
2020/01/31 17:06:14.0	356.830	0.120	-0.870	-0.640
2020/01/31 17:06:14.1	356.890	0.130	-0.910	-0.680
2020/01/31 17:06:14.2	356.950	0.140	-0.950	-0.720
2020/01/31 17:06:14.3	357.000	0.150	-0.990	-0.760
2020/01/31 17:06:14.4	357.070	0.150	-1.030	-0.800
2020/01/31 17:06:14.5	357.130	0.160	-1.060	-0.830
2020/01/31 17:06:14.6	357.190	0.160	-1.100	-0.870
2020/01/31 17:06:14.7	357.250	0.160	-1.120	-0.910
2020/01/31 17:06:14.8	357.310	0.150	-1.150	-0.940
2020/01/31 17:06:14.9	357.380	0.150	-1.170	-0.980
2020/01/31 17:06:15.0	357.440	0.140	-1.190	-1.020
2020/01/31 17:06:15.1	357.500	0.130	-1.200	-1.050
2020/01/31 17:06:15.2	357.570	0.110	-1.210	-1.080
2020/01/31 17:06:15.3	357.630	0.100	-1.210	-1.120
2020/01/31 17:06:15.4	357.690	0.080	-1.210	-1.150
2020/01/31 17:06:15.5	357.750	0.060	-1.210	-1.180
2020/01/31 17:06:15.6	357.800	0.040	-1.190	-1.200
2020/01/31 17:06:15.7	357.850	0.020	-1.180	-1.230
2020/01/31 17:06:15.8	357.890	-0.000	-1.150	-1.250
2020/01/31 17:06:15.9	357.940	-0.030	-1.120	-1.270
2020/01/31 17:06:16.0	357.980	-0.050	-1.090	-1.280
2020/01/31 17:06:16.1	358.030	-0.080	-1.050	-1.290
2020/01/31 17:06:16.2	358.060	-0.100	-1.010	-1.300
2020/01/31 17:06:16.3	358.100	-0.130	-0.960	-1.300
2020/01/31 17:06:16.4	358.130	-0.150	-0.910	-1.290
2020/01/31 17:06:16.5	358.160	-0.180	-0.850	-1.280
2020/01/31 17:06:16.6	358.180	-0.200	-0.790	-1.270
2020/01/31 17:06:16.7	358.200	-0.220	-0.730	-1.250
2020/01/31 17:06:16.8	358.200	-0.240	-0.670	-1.220
2020/01/31 17:06:16.9	358.220	-0.260	-0.600	-1.190
2020/01/31 17:06:17.0	358.230	-0.280	-0.530	-1.160
2020/01/31 17:06:17.1	358.230	-0.300	-0.460	-1.120
2020/01/31 17:06:17.2	358.230	-0.310	-0.390	-1.080
2020/01/31 17:06:17.3	358.230	-0.320	-0.320	-1.040
2020/01/31 17:06:17.4	358.230	-0.330	-0.250	-0.990
2020/01/31 17:06:17.5	358.220	-0.340	-0.180	-0.940
2020/01/31 17:06:17.6	358.210	-0.340	-0.120	-0.880
2020/01/31 17:06:17.7	358.190	-0.350	-0.050	-0.820
2020/01/31 17:06:17.8	358.180	-0.350	0.020	-0.760
2020/01/31 17:06:17.9	358.160	-0.340	0.080	-0.700
2020/01/31 17:06:18.0	358.140	-0.340	0.140	-0.640
2020/01/31 17:06:18.1	358.110	-0.330	0.190	-0.580
2020/01/31 17:06:18.2	358.080	-0.320	0.250	-0.520
2020/01/31 17:06:18.3	358.050	-0.310	0.290	-0.460
2020/01/31 17:06:18.4	358.020	-0.290	0.340	-0.400
2020/01/31 17:06:18.5	357.980	-0.270	0.380	-0.340
2020/01/31 17:06:18.6	357.950	-0.250	0.410	-0.290
2020/01/31 17:06:18.7	357.910	-0.230	0.450	-0.230
2020/01/31 17:06:18.8	357.870	-0.210	0.470	-0.170
2020/01/31 17:06:18.9	357.830	-0.180	0.500	-0.120
2020/01/31 17:06:19.0	357.790	-0.160	0.520	-0.080
2020/01/31 17:06:19.1	357.750	-0.130	0.530	-0.030
2020/01/31 17:06:19.2	357.720	-0.100	0.540	0.020
2020/01/31 17:06:19.3	357.680	-0.070	0.550	0.060
2020/01/31 17:06:19.4	357.640	-0.040	0.550	0.100
2020/01/31 17:06:19.5	357.600	-0.010	0.550	0.140
2020/01/31 17:06:19.6	357.560	0.020	0.550	0.170
2020/01/31 17:06:19.7	357.530	0.050	0.550	0.210
2020/01/31 17:06:19.8	357.480	0.090	0.550	0.240
2020/01/31 17:06:19.9	357.440	0.120	0.540	0.280
2020/01/31 17:06:20.0	357.400	0.150	0.530	0.310
2020/01/31 17:06:20.1	357.360	0.170	0.530	0.340
2020/01/31 17:06:20.2	357.310	0.200	0.520	0.380
2020/01/31 17:06:20.3	357.270	0.220	0.510	0.410
2020/01/31 17:06:20.4	357.230	0.250	0.500	0.440
2020/01/31 17:06:20.5	357.180	0.270	0.490	0.460
2020/01/31 17:06:20.6	357.140	0.280	0.480	0.490
2020/01/31 17:06:20.7	357.100	0.300	0.470	0.510
2020/01/31 17:06:20.8	357.050	0.310	0.460	0.530
2020/01/31 17:06:20.9	357.010	0.320	0.450	0.550
2020/01/31 17:06:21.0	356.970	0.330	0.430	0.560
2020/01/31 17:06:21.1	356.930	0.330	0.420	0.570
2020/01/31 17:06:21.2	356.890	0.330	0.400	0.570
2020/01/31 17:06:21.3	356.850	0.330	0.390	0.570
2020/01/31 17:06:21.4	356.820	0.330	0.370	0.570
2020/01/31 17:06:21.5	356.790	0.330	0.340	0.560
2020/01/31 17:06:21.6	356.760	0.320	0.320	0.550
2020/01/31 17:06:21.7	356.730	0.310	0.290	0.530
2020/01/31 17:06:21.8	356.710	0.300	0.270	0.510
2020/01/31 17:06:21.9	356.690	0.290	0.240	0.480
2020/01/31 17:06:22.0	356.670	0.270	0.200	0.450
2020/01/31 17:06:22.1	356.660	0.260	0.170	0.420
2020/01/31 17:06:22.2	356.650	0.240	0.130	0.380
2020/01/31 17:06:22.3	356.640	0.230	0.080	0.340
2020/01/31 17:06:22.4	356.630	0.210	0.040	0.300
2020/01/31 17:06:22.5	356.620	0.190	-0.010	0.260
2020/01/31 17:06:22.6	356.620	0.170	-0.060	0.210
2020/01/31 17:06:22.7	356.620	0.150	-0.110	0.160
2020/01/31 17:06:22.8	356.620	0.130	-0.160	0.120
2020/01/31 17:06:22.9	356.620	0.110	-0.220	0.070
2020/01/31 17:06:23.0	356.630	0.090	-0.270	0.010
2020/01/31 17:06:23.1	356.640	0.070	-0.330	-0.040
2020/01/31 17:06:23.2	356.650	0.050	-0.380	-0.100
2020/01/31 17:06:23.3	356.670	0.030	-0.440	-0.160
2020/01/31 17:06:23.4	356.690	0.010	-0.500	-0.220
2020/01/31 17:06:23.5	356.710	-0.010	-0.560	-0.290
2020/01/31 17:06:23.6	356.730	-0.030	-0.620	-0.350
2020/01/31 17:06:23.7	356.760	-0.040	-0.680	-0.420
2020/01/31 17:06:23.8	356.800	-0.060	-0.730	-0.490
2020/01/31 17:06:23.9	356.830	-0.080	-0.790	-0.560
2020/01/31 17:06:24.0	356.870	-0.090	-0.850	-0.630
2020/01/31 17:06:24.1	356.910	-0.100	-0.910	-0.710
2020/01/31 17:06:24.2	356.950	-0.110	-0.970	-0.780
2020/01/31 17:06:24.3	357.000	-0.120	-1.020	-0.860
2020/01/31 17:06:24.4	357.050	-0.120	-1.070	-0.930
2020/01/31 17:06:24.5	357.100	-0.130	-1.130	-1.000
2020/01/31 17:06:24.6	357.150	-0.130	-1.170	-1.080
2020/01/31 17:06:24.7	357.200	-0.130	-1.210	-1.150
2020/01/31 17:06:24.8	357.250	-0.120	-1.250	-1.210
2020/01/31 17:06:24.9	357.300	-0.120	-1.280	-1.270
2020/01/31 17:06:25.0	357.350	-0.110	-1.310	-1.330
2020/01/31 17:06:25.1	357.410	-0.100	-1.330	-1.380
2020/01/31 17:06:25.2	357.460	-0.090	-1.340	-1.430
2020/01/31 17:06:25.3	357.500	-0.080	-1.340	-1.470
2020/01/31 17:06:25.4	357.550	-0.070	-1.340	-1.500
2020/01/31 17:06:25.5	357.590	-0.050	-1.320	-1.520
2020/01/31 17:06:25.6	357.630	-0.040	-1.300	-1.530
2020/01/31 17:06:25.7	357.660	-0.020	-1.260	-1.540
2020/01/31 17:06:25.8	357.690	-0.010	-1.220	-1.530
2020/01/31 17:06:25.9	357.720	0.010	-1.170	-1.520
2020/01/31 17:06:26.0	357.740	0.030	-1.110	-1.500
2020/01/31 17:06:26.1	357.760	0.040	-1.040	-1.470
2020/01/31 17:06:26.2	357.770	0.050	-0.970	-1.430
2020/01/31 17:06:26.3	357.780	0.070	-0.890	-1.390
2020/01/31 17:06:26.4	357.780	0.080	-0.810	-1.350
2020/01/31 17:06:26.5	357.780	0.090	-0.720	-1.300
2020/01/31 17:06:26.6	357.780	0.090	-0.630	-1.240
2020/01/31 17:06:26.7	357.770	0.100	-0.530	-1.190
2020/01/31 17:06:26.8	357.760	0.100	-0.440	-1.120
2020/01/31 17:06:26.9	357.760	0.110	-0.350	-1.060
2020/01/31 17:06:27.0	357.750	0.110	-0.260	-1.000
2020/01/31 17:06:27.1	357.730	0.110	-0.170	-0.940
2020/01/31 17:06:27.2	357.720	0.100	-0.090	-0.880
2020/01/31 17:06:27.3	357.710	0.100	-0.010	-0.810
2020/01/31 17:06:27.4	357.700	0.090	0.060	-0.750
2020/01/31 17:06:27.5	357.680	0.080	0.130	-0.700
2020/01/31 17:06:27.6	357.670	0.070	0.190	-0.640
2020/01/31 17:06:27.7	357.660	0.060	0.250	-0.590
2020/01/31 17:06:27.8	357.650	0.050	0.300	-0.530
2020/01/31 17:06:27.9	357.640	0.040	0.330	-0.490
2020/01/31 17:06:28.0	357.630	0.030	0.370	-0.440
2020/01/31 17:06:28.1	357.620	0.010	0.390	-0.400
2020/01/31 17:06:28.2	357.620	-0.000	0.400	-0.360
2020/01/31 17:06:28.3	357.610	-0.010	0.410	-0.330
2020/01/31 17:06:28.4	357.600	-0.030	0.410	-0.300
2020/01/31 17:06:28.5	357.600	-0.040	0.400	-0.270
2020/01/31 17:06:28.6	357.600	-0.050	0.380	-0.250
2020/01/31 17:06:28.7	357.600	-0.060	0.360	-0.230
2020/01/31 17:06:28.8	357.610	-0.070	0.330	-0.220
2020/01/31 17:06:28.9	357.610	-0.080	0.290	-0.210
2020/01/31 17:06:29.0	357.610	-0.090	0.250	-0.200
2020/01/31 17:06:29.1	357.610	-0.100	0.210	-0.190
2020/01/31 17:06:29.2	357.610	-0.110	0.160	-0.190
2020/01/31 17:06:29.3	357.610	-0.110	0.110	-0.200
2020/01/31 17:06:29.4	357.610	-0.120	0.050	-0.200
2020/01/31 17:06:29.5	357.620	-0.120	-0.010	-0.210
2020/01/31 17:06:29.6	357.620	-0.120	-0.060	-0.220
2020/01/31 17:06:29.7	357.630	-0.120	-0.120	-0.230
2020/01/31 17:06:29.8	357.620	-0.120	-0.180	-0.240
2020/01/31 17:06:29.9	357.620	-0.120	-0.240	-0.260
2020/01/31 17:06:30.0	357.630	-0.120	-0.290	-0.280
2020/01/31 17:06:30.1	357.640	-0.110	-0.350	-0.300
2020/01/31 17:06:30.2	357.650	-0.110	-0.400	-0.320
2020/01/31 17:06:30.3	357.660	-0.100	-0.450	-0.340
2020/01/31 17:06:30.4	357.680	-0.100	-0.490	-0.360
2020/01/31 17:06:30.5	357.690	-0.090	-0.540	-0.380
2020/01/31 17:06:30.6	357.700	-0.080	-0.570	-0.390
2020/01/31 17:06:30.7	357.710	-0.080	-0.610	-0.410
2020/01/31 17:06:30.8	357.710	-0.070	-0.630	-0.430
2020/01/31 17:06:30.9	357.720	-0.060	-0.650	-0.440
2020/01/31 17:06:31.0	357.740	-0.050	-0.670	-0.450
2020/01/31 17:06:31.1	357.750	-0.040	-0.680	-0.460
2020/01/31 17:06:31.2	357.760	-0.030	-0.680	-0.460
2020/01/31 17:06:31.3	357.770	-0.020	-0.680	-0.460
2020/01/31 17:06:31.4	357.780	-0.020	-0.660	-0.460
2020/01/31 17:06:31.5	357.790	-0.010	-0.650	-0.450
2020/01/31 17:06:31.6	357.800	-0.000	-0.620	-0.450
2020/01/31 17:06:31.7	357.810	0.000	-0.590	-0.440
2020/01/31 17:06:31.8	357.820	0.010	-0.550	-0.420
2020/01/31 17:06:31.9	357.820	0.010	-0.500	-0.400
2020/01/31 17:06:32.0	357.820	0.010	-0.450	-0.380
2020/01/31 17:06:32.1	357.820	0.010	-0.400	-0.360
2020/01/31 17:06:32.2	357.820	0.000	-0.340	-0.340
2020/01/31 17:06:32.3	357.810	-0.000	-0.280	-0.320
2020/01/31 17:06:32.4	357.800	-0.010	-0.220	-0.300
2020/01/31 17:06:32.5	357.800	-0.020	-0.150	-0.270
2020/01/31 17:06:32.6	357.790	-0.030	-0.090	-0.250
2020/01/31 17:06:32.7	357.780	-0.040	-0.020	-0.230
2020/01/31 17:06:32.8	357.790	-0.050	0.030	-0.210
2020/01/31 17:06:32.9	357.780	-0.070	0.090	-0.190
2020/01/31 17:06:33.0	357.770	-0.080	0.150	-0.180
2020/01/31 17:06:33.1	357.770	-0.100	0.200	-0.160
2020/01/31 17:06:33.2	357.760	-0.110	0.250	-0.150
2020/01/31 17:06:33.3	357.750	-0.130	0.290	-0.140
2020/01/31 17:06:33.4	357.740	-0.140	0.320	-0.130
2020/01/31 17:06:33.5	357.730	-0.160	0.350	-0.130
2020/01/31 17:06:33.6	357.730	-0.170	0.380	-0.120
2020/01/31 17:06:33.7	357.720	-0.190	0.400	-0.120
2020/01/31 17:06:33.8	357.710	-0.200	0.410	-0.110
2020/01/31 17:06:33.9	357.710	-0.210	0.420	-0.110
2020/01/31 17:06:34.0	357.700	-0.220	0.420	-0.110
2020/01/31 17:06:34.1	357.700	-0.230	0.410	-0.110
2020/01/31 17:06:34.2	357.690	-0.230	0.400	-0.100
2020/01/31 17:06:34.3	357.690	-0.240	0.380	-0.100
2020/01/31 17:06:34.4	357.680	-0.240	0.360	-0.100
2020/01/31 17:06:34.5	357.680	-0.230	0.330	-0.100
2020/01/31 17:06:34.6	357.680	-0.230	0.300	-0.100
2020/01/31 17:06:34.7	357.680	-0.220	0.270	-0.100
2020/01/31 17:06:34.8	357.680	-0.210	0.240	-0.090
2020/01/31 17:06:34.9	357.680	-0.200	0.200	-0.090
2020/01/31 17:06:35.0	357.680	-0.180	0.160	-0.090
2020/01/31 17:06:35.1	357.680	-0.160	0.120	-0.090
2020/01/31 17:06:35.2	357.680	-0.140	0.080	-0.080
2020/01/31 17:06:35.3	357.680	-0.120	0.040	-0.080
2020/01/31 17:06:35.4	357.680	-0.100	-0.010	-0.080
2020/01/31 17:06:35.5	357.680	-0.070	-0.050	-0.080
2020/01/31 17:06:35.6	357.680	-0.040	-0.090	-0.080
2020/01/31 17:06:35.7	357.670	-0.020	-0.120	-0.070
2020/01/31 17:06:35.8	357.670	0.010	-0.160	-0.070
2020/01/31 17:06:35.9	357.670	0.040	-0.200	-0.070
2020/01/31 17:06:36.0	357.660	0.070	-0.230	-0.060
2020/01/31 17:06:36.1	357.660	0.100	-0.260	-0.060
2020/01/31 17:06:36.2	357.660	0.130	-0.290	-0.050
2020/01/31 17:06:36.3	357.650	0.160	-0.320	-0.040
2020/01/31 17:06:36.4	357.650	0.180	-0.340	-0.030
2020/01/31 17:06:36.5	357.640	0.210	-0.360	-0.020
2020/01/31 17:06:36.6	357.640	0.240	-0.380	-0.010
2020/01/31 17:06:36.7	357.640	0.260	-0.400	0.000
2020/01/31 17:06:36.8	357.630	0.280	-0.420	0.020
2020/01/31 17:06:36.9	357.630	0.300	-0.430	0.030
2020/01/31 17:06:37.0	357.620	0.320	-0.450	0.040
2020/01/31 17:06:37.1	357.620	0.330	-0.470	0.050
2020/01/31 17:06:37.2	357.620	0.350	-0.480	0.060
2020/01/31 17:06:37.3	357.620	0.360	-0.500	0.060
2020/01/31 17:06:37.4	357.620	0.370	-0.510	0.070
2020/01/31 17:06:37.5	357.620	0.370	-0.530	0.070
2020/01/31 17:06:37.6	357.620	0.380	-0.550	0.060
2020/01/31 17:06:37.7	357.620	0.380	-0.570	0.060
2020/01/31 17:06:37.8	357.640	0.380	-0.590	0.050
2020/01/31 17:06:37.9	357.650	0.380	-0.610	0.030
2020/01/31 17:06:38.0	357.660	0.370	-0.630	0.010
2020/01/31 17:06:38.1	357.670	0.360	-0.660	-0.010
2020/01/31 17:06:38.2	357.680	0.360	-0.680	-0.040
2020/01/31 17:06:38.3	357.690	0.340	-0.710	-0.080
2020/01/31 17:06:38.4	357.700	0.330	-0.740	-0.120
2020/01/31 17:06:38.5	357.720	0.320	-0.760	-0.160
2020/01/31 17:06:38.6	357.740	0.300	-0.790	-0.200
2020/01/31 17:06:38.7	357.760	0.290	-0.820	-0.250
2020/01/31 17:06:38.8	357.770	0.270	-0.840	-0.300
2020/01/31 17:06:38.9	357.800	0.250	-0.870	-0.360
2020/01/31 17:06:39.0	357.820	0.230	-0.890	-0.410
2020/01/31 17:06:39.1	357.850	0.210	-0.920	-0.470
2020/01/31 17:06:39.2	357.870	0.190	-0.940	-0.520
2020/01/31 17:06:39.3	357.900	0.170	-0.960	-0.580
2020/01/31 17:06:39.4	357.930	0.150	-0.980	-0.640
2020/01/31 17:06:39.5	357.960	0.120	-0.990	-0.690
2020/01/31 17:06:39.6	357.990	0.100	-1.010	-0.750
2020/01/31 17:06:39.7	358.020	0.080	-1.010	-0.800
2020/01/31 17:06:39.8	358.050	0.050	-1.020	-0.860
2020/01/31 17:06:39.9	358.090	0.030	-1.020	-0.910
2020/01/31 17:06:40.0	358.120	0.010	-1.020	-0.960
2020/01/31 17:06:40.1	358.150	-0.010	-1.010	-1.010
2020/01/31 17:06:40.2	358.180	-0.030	-0.990	-1.050
2020/01/31 17:06:40.3	358.220	-0.060	-0.970	-1.090
2020/01/31 17:06:40.4	358.250	-0.080	-0.940	-1.130
2020/01/31 17:06:40.5	358.270	-0.100	-0.910	-1.160
2020/01/31 17:06:40.6	358.300	-0.110	-0.870	-1.190
2020/01/31 17:06:40.7	358.330	-0.130	-0.830	-1.210
2020/01/31 17:06:40.8	358.350	-0.150	-0.780	-1.230
2020/01/31 17:06:40.9	358.370	-0.160	-0.720	-1.240
2020/01/31 17:06:41.0	358.390	-0.180	-0.660	-1.250
2020/01/31 17:06:41.1	358.400	-0.190	-0.590	-1.250
2020/01/31 17:06:41.2	358.410	-0.200	-0.520	-1.240
2020/01/31 17:06:41.3	358.420	-0.210	-0.440	-1.230
2020/01/31 17:06:41.4	358.420	-0.220	-0.360	-1.210
2020/01/31 17:06:41.5	358.420	-0.230	-0.280	-1.180
2020/01/31 17:06:41.6	358.420	-0.230	-0.190	-1.150
2020/01/31 17:06:41.7	358.410	-0.240	-0.110	-1.110
2020/01/31 17:06:41.8	358.410	-0.240	-0.020	-1.060
2020/01/31 17:06:41.9	358.390	-0.240	0.070	-1.020
2020/01/31 17:06:42.0	358.380	-0.240	0.160	-0.970
2020/01/31 17:06:42.1	358.360	-0.240	0.240	-0.910
2020/01/31 17:06:42.2	358.330	-0.240	0.330	-0.850
2020/01/31 17:06:42.3	358.310	-0.240	0.410	-0.790
2020/01/31 17:06:42.4	358.280	-0.230	0.480	-0.730
2020/01/31 17:06:42.5	358.250	-0.230	0.550	-0.670
2020/01/31 17:06:42.6	358.220	-0.220	0.610	-0.600
2020/01/31 17:06:42.7	358.190	-0.210	0.660	-0.540
2020/01/31 17:06:42.8	358.160	-0.200	0.710	-0.470
2020/01/31 17:06:42.9	358.130	-0.190	0.750	-0.410
2020/01/31 17:06:43.0	358.100	-0.180	0.780	-0.350
2020/01/31 17:06:43.1	358.060	-0.170	0.800	-0.300
2020/01/31 17:06:43.2	358.030	-0.160	0.810	-0.250
2020/01/31 17:06:43.3	358.000	-0.150	0.810	-0.200
2020/01/31 17:06:43.4	357.980	-0.130	0.800	-0.160
2020/01/31 17:06:43.5	357.950	-0.120	0.780	-0.120
2020/01/31 17:06:43.6	357.930	-0.100	0.750	-0.090
2020/01/31 17:06:43.7	357.900	-0.090	0.710	-0.060
2020/01/31 17:06:43.8	357.880	-0.070	0.670	-0.030
2020/01/31 17:06:43.9	357.860	-0.060	0.610	-0.020
2020/01/31 17:06:44.0	357.850	-0.040	0.550	-0.000
2020/01/31 17:06:44.1	357.840	-0.020	0.480	0.000
2020/01/31 17:06:44.2	357.830	-0.000	0.400	0.010
2020/01/31 17:06:44.3	357.820	0.010	0.320	0.000
2020/01/31 17:06:44.4	357.810	0.030	0.240	-0.000
2020/01/31 17:06:44.5	357.810	0.050	0.150	-0.010
2020/01/31 17:06:44.6	357.810	0.070	0.060	-0.020
2020/01/31 17:06:44.7	357.810	0.090	-0.030	-0.030
2020/01/31 17:06:44.8	357.810	0.100	-0.120	-0.040
2020/01/31 17:06:44.9	357.820	0.120	-0.200	-0.050
2020/01/31 17:06:45.0	357.820	0.140	-0.290	-0.060
2020/01/31 17:06:45.1	357.830	0.150	-0.370	-0.070
2020/01/31 17:06:45.2	357.840	0.170	-0.440	-0.080
2020/01/31 17:06:45.3	357.850	0.180	-0.510	-0.080
2020/01/31 17:06:45.4	357.850	0.190	-0.570	-0.090
2020/01/31 17:06:45.5	357.860	0.200	-0.620	-0.090
2020/01/31 17:06:45.6	357.870	0.210	-0.670	-0.100
2020/01/31 17:06:45.7	357.880	0.210	-0.700	-0.100
2020/01/31 17:06:45.8	357.870	0.210	-0.730	-0.100
2020/01/31 17:06:45.9	357.880	0.210	-0.740	-0.100
2020/01/31 17:06:46.0	357.880	0.210	-0.750	-0.090
2020/01/31 17:06:46.1	357.880	0.200	-0.750	-0.090
2020/01/31 17:06:46.2	357.880	0.190	-0.740	-0.090
2020/01/31 17:06:46.3	357.880	0.180	-0.730	-0.080
2020/01/31 17:06:46.4	357.870	0.170	-0.700	-0.080
2020/01/31 17:06:46.5	357.870	0.150	-0.670	-0.070
2020/01/31 17:06:46.6	357.860	0.130	-0.640	-0.070
2020/01/31 17:06:46.7	357.850	0.110	-0.600	-0.060
2020/01/31 17:06:46.8	357.840	0.080	-0.550	-0.050
2020/01/31 17:06:46.9	357.830	0.060	-0.500	-0.040
2020/01/31 17:06:47.0	357.810	0.030	-0.450	-0.040
2020/01/31 17:06:47.1	357.800	0.000	-0.390	-0.030
2020/01/31 17:06:47.2	357.780	-0.030	-0.340	-0.030
2020/01/31 17:06:47.3	357.760	-0.060	-0.280	-0.020
2020/01/31 17:06:47.4	357.740	-0.090	-0.220	-0.020
2020/01/31 17:06:47.5	357.730	-0.120	-0.170	-0.010
2020/01/31 17:06:47.6	357.710	-0.150	-0.120	-0.010
2020/01/31 17:06:47.7	357.700	-0.170	-0.070	-0.010
2020/01/31 17:06:47.8	357.680	-0.200	-0.030	-0.010
2020/01/31 17:06:47.9	357.670	-0.220	0.010	-0.010
2020/01/31 17:06:48.0	357.660	-0.240	0.050	-0.010
2020/01/31 17:06:48.1	357.650	-0.260	0.080	-0.010
2020/01/31 17:06:48.2	357.650	-0.280	0.100	-0.020
2020/01/31 17:06:48.3	357.650	-0.290	0.110	-0.020
2020/01/31 17:06:48.4	357.640	-0.290	0.120	-0.030
2020/01/31 17:06:48.5	357.650	-0.300	0.120	-0.040
2020/01/31 17:06:48.6	357.650	-0.300	0.120	-0.050
2020/01/31 17:06:48.7	357.650	-0.290	0.110	-0.060
2020/01/31 17:06:48.8	357.670	-0.290	0.090	-0.070
2020/01/31 17:06:48.9	357.680	-0.280	0.070	-0.080
2020/01/31 17:06:49.0	357.690	-0.260	0.040	-0.090
2020/01/31 17:06:49.1	357.700	-0.250	0.010	-0.100
2020/01/31 17:06:49.2	357.710	-0.230	-0.030	-0.120
2020/01/31 17:06:49.3	357.730	-0.200	-0.070	-0.130
2020/01/31 17:06:49.4	357.740	-0.180	-0.110	-0.150
2020/01/31 17:06:49.5	357.750	-0.150	-0.160	-0.170
2020/01/31 17:06:49.6	357.770	-0.120	-0.210	-0.180
2020/01/31 17:06:49.7	357.780	-0.090	-0.260	-0.200
2020/01/31 17:06:49.8	357.800	-0.060	-0.300	-0.210
2020/01/31 17:06:49.9	357.810	-0.030	-0.350	-0.230
2020/01/31 17:06:50.0	357.820	-0.000	-0.400	-0.240
2020/01/31 17:06:50.1	357.830	0.030	-0.450	-0.260
2020/01/31 17:06:50.2	357.840	0.060	-0.500	-0.270
2020/01/31 17:06:50.3	357.850	0.090	-0.540	-0.280
2020/01/31 17:06:50.4	357.860	0.110	-0.580	-0.280
2020/01/31 17:06:50.5	357.860	0.140	-0.620	-0.290
2020/01/31 17:06:50.6	357.860	0.170	-0.650	-0.290
2020/01/31 17:06:50.7	357.860	0.190	-0.680	-0.290
2020/01/31 17:06:50.8	357.860	0.210	-0.710	-0.280
2020/01/31 17:06:50.9	357.850	0.230	-0.730	-0.280
2020/01/31 17:06:51.0	357.850	0.240	-0.750	-0.270
2020/01/31 17:06:51.1	357.840	0.250	-0.760	-0.260
2020/01/31 17:06:51.2	357.830	0.260	-0.780	-0.250
2020/01/31 17:06:51.3	357.820	0.270	-0.780	-0.240
2020/01/31 17:06:51.4	357.810	0.270	-0.790	-0.220
2020/01/31 17:06:51.5	357.800	0.270	-0.790	-0.210
2020/01/31 17:06:51.6	357.790	0.270	-0.790	-0.200
2020/01/31 17:06:51.7	357.780	0.270	-0.790	-0.190
2020/01/31 17:06:51.8	357.760	0.260	-0.780	-0.180
2020/01/31 17:06:51.9	357.750	0.250	-0.780	-0.170
2020/01/31 17:06:52.0	357.750	0.240	-0.770	-0.170
2020/01/31 17:06:52.1	357.740	0.230	-0.770	-0.170
2020/01/31 17:06:52.2	357.740	0.210	-0.760	-0.170
2020/01/31 17:06:52.3	357.740	0.200	-0.750	-0.170
2020/01/31 17:06:52.4	357.740	0.180	-0.740	-0.190
2020/01/31 17:06:52.5	357.740	0.160	-0.740	-0.200
2020/01/31 17:06:52.6	357.740	0.150	-0.730	-0.220
2020/01/31 17:06:52.7	357.750	0.130	-0.730	-0.240
2020/01/31 17:06:52.8	357.760	0.120	-0.720	-0.260
2020/01/31 17:06:52.9	357.770	0.100	-0.720	-0.290
2020/01/31 17:06:53.0	357.790	0.090	-0.720	-0.320
2020/01/31 17:06:53.1	357.800	0.070	-0.710	-0.360
2020/01/31 17:06:53.2	357.820	0.060	-0.710	-0.390
2020/01/31 17:06:53.3	357.840	0.050	-0.700	-0.430
2020/01/31 17:06:53.4	357.860	0.040	-0.700	-0.470
2020/01/31 17:06:53.5	357.880	0.030	-0.690	-0.500
2020/01/31 17:06:53.6	357.900	0.020	-0.680	-0.540
2020/01/31 17:06:53.7	357.920	0.020	-0.670	-0.570
2020/01/31 17:06:53.8	357.930	0.010	-0.650	-0.600
2020/01/31 17:06:53.9	357.940	0.010	-0.630	-0.630
2020/01/31 17:06:54.0	357.960	0.000	-0.600	-0.660
2020/01/31 17:06:54.1	357.960	-0.000	-0.570	-0.680
2020/01/31 17:06:54.2	357.970	-0.010	-0.540	-0.690
2020/01/31 17:06:54.3	357.970	-0.010	-0.500	-0.710
2020/01/31 17:06:54.4	357.970	-0.020	-0.450	-0.710
2020/01/31 17:06:54.5	357.960	-0.030	-0.400	-0.720
2020/01/31 17:06:54.6	357.950	-0.030	-0.350	-0.720
2020/01/31 17:06:54.7	357.940	-0.040	-0.290	-0.720
2020/01/31 17:06:54.8	357.910	-0.050	-0.230	-0.710
2020/01/31 17:06:54.9	357.890	-0.060	-0.160	-0.700
2020/01/31 17:06:55.0	357.870	-0.070	-0.090	-0.690
2020/01/31 17:06:55.1	357.850	-0.080	-0.020	-0.670
2020/01/31 17:06:55.2	357.820	-0.090	0.050	-0.650
2020/01/31 17:06:55.3	357.800	-0.110	0.120	-0.630
2020/01/31 17:06:55.4	357.770	-0.120	0.190	-0.610
2020/01/31 17:06:55.5	357.740	-0.140	0.260	-0.590
2020/01/31 17:06:55.6	357.720	-0.160	0.330	-0.560
2020/01/31 17:06:55.7	357.690	-0.170	0.400	-0.530
2020/01/31 17:06:55.8	357.680	-0.190	0.450	-0.510
2020/01/31 17:06:55.9	357.660	-0.210	0.510	-0.480
2020/01/31 17:06:56.0	357.640	-0.220	0.560	-0.450
2020/01/31 17:06:56.1	357.620	-0.240	0.600	-0.430
2020/01/31 17:06:56.2	357.600	-0.250	0.640	-0.400
2020/01/31 17:06:56.3	357.580	-0.270	0.670	-0.370
2020/01/31 17:06:56.4	357.570	-0.280	0.690	-0.350
2020/01/31 17:06:56.5	357.560	-0.290	0.710	-0.330
2020/01/31 17:06:56.6	357.550	-0.300	0.720	-0.310
2020/01/31 17:06:56.7	357.550	-0.310	0.720	-0.280
2020/01/31 17:06:56.8	357.540	-0.310	0.720	-0.260
2020/01/31 17:06:56.9	357.540	-0.310	0.700	-0.240
2020/01/31 17:06:57.0	357.540	-0.310	0.680	-0.230
2020/01/31 17:06:57.1	357.540	-0.310	0.650	-0.210
2020/01/31 17:06:57.2	357.540	-0.300	0.620	-0.190
2020/01/31 17:06:57.3	357.540	-0.290	0.580	-0.180
2020/01/31 17:06:57.4	357.540	-0.280	0.540	-0.160
2020/01/31 17:06:57.5	357.540	-0.260	0.500	-0.150
2020/01/31 17:06:57.6	357.550	-0.240	0.450	-0.130
2020/01/31 17:06:57.7	357.550	-0.220	0.400	-0.120
2020/01/31 17:06:57.8	357.550	-0.200	0.350	-0.100
2020/01/31 17:06:57.9	357.550	-0.170	0.290	-0.090
2020/01/31 17:06:58.0	357.550	-0.140	0.240	-0.070
2020/01/31 17:06:58.1	357.550	-0.110	0.190	-0.050
2020/01/31 17:06:58.2	357.540	-0.080	0.130	-0.040
2020/01/31 17:06:58.3	357.540	-0.050	0.080	-0.020
2020/01/31 17:06:58.4	357.530	-0.010	0.040	0.000
2020/01/31 17:06:58.5	357.520	0.030	-0.010	0.020
2020/01/31 17:06:58.6	357.510	0.060	-0.060	0.050
2020/01/31 17:06:58.7	357.500	0.100	-0.100	0.070
2020/01/31 17:06:58.8	357.500	0.140	-0.130	0.100
2020/01/31 17:06:58.9	357.480	0.170	-0.170	0.120
2020/01/31 17:06:59.0	357.470	0.210	-0.200	0.150
2020/01/31 17:06:59.1	357.460	0.240	-0.240	0.170
2020/01/31 17:06:59.2	357.440	0.280	-0.270	0.200
2020/01/31 17:06:59.3	357.430	0.310	-0.300	0.220
2020/01/31 17:06:59.4	357.410	0.340	-0.320	0.250
2020/01/31 17:06:59.5	357.400	0.370	-0.350	0.270
2020/01/31 17:06:59.6	357.390	0.390	-0.370	0.290
2020/01/31 17:06:59.7	357.370	0.410	-0.400	0.320
2020/01/31 17:06:59.8	357.360	0.430	-0.420	0.340
2020/01/31 17:06:59.9	357.350	0.440	-0.440	0.360
2020/01/31 17:07:00.0	357.330	0.450	-0.460	0.370
2020/01/31 17:07:00.1	357.320	0.460	-0.480	0.390
2020/01/31 17:07:00.2	357.310	0.460	-0.500	0.400
2020/01/31 17:07:00.3	357.300	0.460	-0.510	0.400
2020/01/31 17:07:00.4	357.290	0.460	-0.530	0.410
2020/01/31 17:07:00.5	357.280	0.450	-0.550	0.410
2020/01/31 17:07:00.6	357.260	0.440	-0.560	0.410
2020/01/31 17:07:00.7	357.250	0.430	-0.580	0.400
2020/01/31 17:07:00.8	357.230	0.410	-0.590	0.400
2020/01/31 17:07:00.9	357.220	0.390	-0.600	0.380
2020/01/31 17:07:01.0	357.210	0.360	-0.610	0.370
2020/01/31 17:07:01.1	357.190	0.340	-0.620	0.350
2020/01/31 17:07:01.2	357.180	0.310	-0.630	0.320
2020/01/31 17:07:01.3	357.170	0.280	-0.630	0.300
2020/01/31 17:07:01.4	357.150	0.240	-0.630	0.270
2020/01/31 17:07:01.5	357.140	0.210	-0.640	0.240
2020/01/31 17:07:01.6	357.130	0.170	-0.630	0.200
2020/01/31 17:07:01.7	357.110	0.140	-0.630	0.170
2020/01/31 17:07:01.8	357.100	0.100	-0.630	0.130
2020/01/31 17:07:01.9	357.080	0.060	-0.630	0.100
2020/01/31 17:07:02.0	357.070	0.030	-0.620	0.060
2020/01/31 17:07:02.1	357.060	-0.010	-0.610	0.020
2020/01/31 17:07:02.2	357.050	-0.040	-0.600	-0.020
2020/01/31 17:07:02.3	357.040	-0.070	-0.590	-0.060
2020/01/31 17:07:02.4	357.030	-0.110	-0.580	-0.100
2020/01/31 17:07:02.5	357.020	-0.130	-0.560	-0.150
2020/01/31 17:07:02.6	357.020	-0.160	-0.550	-0.190
2020/01/31 17:07:02.7	357.020	-0.190	-0.540	-0.230
2020/01/31 17:07:02.8	357.000	-0.210	-0.530	-0.280
2020/01/31 17:07:02.9	357.000	-0.230	-0.520	-0.320
2020/01/31 17:07:03.0	357.010	-0.250	-0.520	-0.370
2020/01/31 17:07:03.1	357.020	-0.260	-0.520	-0.420
2020/01/31 17:07:03.2	357.030	-0.270	-0.520	-0.470
2020/01/31 17:07:03.3	357.040	-0.280	-0.530	-0.530
2020/01/31 17:07:03.4	357.060	-0.290	-0.540	-0.580
2020/01/31 17:07:03.5	357.080	-0.290	-0.550	-0.640
2020/01/31 17:07:03.6	357.110	-0.290	-0.570	-0.700
2020/01/31 17:07:03.7	357.140	-0.290	-0.590	-0.760
2020/01/31 17:07:03.8	357.160	-0.280	-0.620	-0.830
2020/01/31 17:07:03.9	357.200	-0.280	-0.650	-0.890
2020/01/31 17:07:04.0	357.230	-0.260	-0.680	-0.950
2020/01/31 17:07:04.1	357.280	-0.250	-0.710	-1.010
2020/01/31 17:07:04.2	357.320	-0.230	-0.750	-1.080
2020/01/31 17:07:04.3	357.370	-0.220	-0.780	-1.140
2020/01/31 17:07:04.4	357.420	-0.200	-0.820	-1.190
2020/01/31 17:07:04.5	357.470	-0.180	-0.850	-1.250
2020/01/31 17:07:04.6	357.530	-0.150	-0.890	-1.300
2020/01/31 17:07:04.7	357.580	-0.130	-0.920	-1.360
2020/01/31 17:07:04.8	357.630	-0.110	-0.940	-1.400
2020/01/31 17:07:04.9	357.690	-0.090	-0.960	-1.440
2020/01/31 17:07:05.0	357.750	-0.060	-0.980	-1.480
2020/01/31 17:07:05.1	357.800	-0.040	-1.000	-1.510
2020/01/31 17:07:05.2	357.860	-0.020	-1.000	-1.540
2020/01/31 17:07:05.3	357.910	-0.000	-1.010	-1.560
2020/01/31 17:07:05.4	357.960	0.010	-1.000	-1.580
2020/01/31 17:07:05.5	358.010	0.030	-0.990	-1.590
2020/01/31 17:07:05.6	358.060	0.040	-0.970	-1.590
2020/01/31 17:07:05.7	358.100	0.050	-0.940	-1.590
2020/01/31 17:07:05.8	358.120	0.060	-0.910	-1.580
2020/01/31 17:07:05.9	358.150	0.060	-0.860	-1.570
2020/01/31 17:07:06.0	358.190	0.070	-0.810	-1.550
2020/01/31 17:07:06.1	358.220	0.060	-0.750	-1.520
2020/01/31 17:07:06.2	358.240	0.060	-0.690	-1.490
2020/01/31 17:07:06.3	358.260	0.050	-0.610	-1.460
2020/01/31 17:07:06.4	358.270	0.040	-0.530	-1.420
2020/01/31 17:07:06.5	358.280	0.020	-0.450	-1.370
2020/01/31 17:07:06.6	358.290	0.000	-0.360	-1.320
2020/01/31 17:07:06.7	358.280	-0.020	-0.270	-1.260
2020/01/31 17:07:06.8	358.280	-0.040	-0.170	-1.190
2020/01/31 17:07:06.9	358.270	-0.070	-0.080	-1.130
2020/01/31 17:07:07.0	358.250	-0.090	0.020	-1.060
2020/01/31 17:07:07.1	358.230	-0.120	0.120	-0.990
2020/01/31 17:07:07.2	358.200	-0.160	0.210	-0.910
2020/01/31 17:07:07.3	358.170	-0.190	0.300	-0.840
2020/01/31 17:07:07.4	358.140	-0.220	0.390	-0.770
2020/01/31 17:07:07.5	358.110	-0.250	0.480	-0.690
2020/01/31 17:07:07.6	358.070	-0.290	0.560	-0.610
2020/01/31 17:07:07.7	358.030	-0.320	0.630	-0.540
2020/01/31 17:07:07.8	358.010	-0.350	0.700	-0.460
2020/01/31 17:07:07.9	357.960	-0.380	0.760	-0.390
2020/01/31 17:07:08.0	357.920	-0.400	0.810	-0.320
2020/01/31 17:07:08.1	357.880	-0.420	0.850	-0.260
2020/01/31 17:07:08.2	357.830	-0.440	0.890	-0.190
2020/01/31 17:07:08.3	357.790	-0.460	0.920	-0.130
2020/01/31 17:07:08.4	357.750	-0.470	0.930	-0.080
2020/01/31 17:07:08.5	357.710	-0.470	0.940	-0.020
2020/01/31 17:07:08.6	357.670	-0.480	0.950	0.020
2020/01/31 17:07:08.7	357.630	-0.470	0.940	0.070
2020/01/31 17:07:08.8	357.590	-0.460	0.930	0.120
2020/01/31 17:07:08.9	357.550	-0.450	0.900	0.160
2020/01/31 17:07:09.0	357.520	-0.430	0.880	0.200
2020/01/31 17:07:09.1	357.480	-0.400	0.840	0.230
2020/01/31 17:07:09.2	357.440	-0.370	0.800	0.270
2020/01/31 17:07:09.3	357.400	-0.340	0.760	0.310
2020/01/31 17:07:09.4	357.360	-0.300	0.710	0.350
2020/01/31 17:07:09.5	357.310	-0.260	0.660	0.380
2020/01/31 17:07:09.6	357.270	-0.210	0.610	0.420
2020/01/31 17:07:09.7	357.220	-0.160	0.560	0.460
2020/01/31 17:07:09.8	357.170	-0.110	0.500	0.500
2020/01/31 17:07:09.9	357.130	-0.050	0.450	0.530
2020/01/31 17:07:10.0	357.080	0.010	0.400	0.570
2020/01/31 17:07:10.1	357.040	0.060	0.350	0.600
2020/01/31 17:07:10.2	356.990	0.120	0.300	0.630
2020/01/31 17:07:10.3	356.950	0.180	0.260	0.660
2020/01/31 17:07:10.4	356.910	0.230	0.210	0.690
2020/01/31 17:07:10.5	356.870	0.290	0.170	0.710
2020/01/31 17:07:10.6	356.830	0.340	0.130	0.730
2020/01/31 17:07:10.7	356.790	0.390	0.090	0.750
2020/01/31 17:07:10.8	356.760	0.440	0.050	0.760
2020/01/31 17:07:10.9	356.720	0.480	0.010	0.770
2020/01/31 17:07:11.0	356.700	0.520	-0.030	0.780
2020/01/31 17:07:11.1	356.670	0.550	-0.060	0.770
2020/01/31 17:07:11.2	356.650	0.580	-0.100	0.770
2020/01/31 17:07:11.3	356.630	0.610	-0.140	0.760
2020/01/31 17:07:11.4	356.620	0.630	-0.170	0.740
2020/01/31 17:07:11.5	356.610	0.650	-0.210	0.720
2020/01/31 17:07:11.6	356.600	0.660	-0.250	0.700
2020/01/31 17:07:11.7	356.600	0.660	-0.300	0.670
2020/01/31 17:07:11.8	356.610	0.670	-0.340	0.630
2020/01/31 17:07:11.9	356.610	0.660	-0.380	0.590
2020/01/31 17:07:12.0	356.620	0.650	-0.430	0.540
2020/01/31 17:07:12.1	356.640	0.640	-0.480	0.490
2020/01/31 17:07:12.2	356.660	0.620	-0.530	0.430
2020/01/31 17:07:12.3	356.680	0.600	-0.580	0.370
2020/01/31 17:07:12.4	356.710	0.570	-0.630	0.300
2020/01/31 17:07:12.5	356.740	0.540	-0.690	0.220
2020/01/31 17:07:12.6	356.770	0.500	-0.740	0.150
2020/01/31 17:07:12.7	356.810	0.460	-0.800	0.060
2020/01/31 17:07:12.8	356.860	0.420	-0.850	-0.020
2020/01/31 17:07:12.9	356.910	0.380	-0.910	-0.110
2020/01/31 17:07:13.0	356.960	0.330	-0.960	-0.200
2020/01/31 17:07:13.1	357.010	0.290	-1.010	-0.290
2020/01/31 17:07:13.2	357.060	0.240	-1.070	-0.390
2020/01/31 17:07:13.3	357.120	0.190	-1.120	-0.480
2020/01/31 17:07:13.4	357.180	0.140	-1.160	-0.580
2020/01/31 17:07:13.5	357.230	0.090	-1.210	-0.670
2020/01/31 17:07:13.6	357.290	0.040	-1.250	-0.760
2020/01/31 17:07:13.7	357.350	-0.010	-1.280	-0.850
2020/01/31 17:07:13.8	357.420	-0.050	-1.320	-0.940
2020/01/31 17:07:13.9	357.480	-0.100	-1.340	-1.030
2020/01/31 17:07:14.0	357.540	-0.140	-1.360	-1.110
2020/01/31 17:07:14.1	357.600	-0.180	-1.380	-1.190
2020/01/31 17:07:14.2	357.660	-0.220	-1.390	-1.270
2020/01/31 17:07:14.3	357.720	-0.260	-1.390	-1.340
2020/01/31 17:07:14.4	357.780	-0.290	-1.390	-1.400
2020/01/31 17:07:14.5	357.830	-0.320	-1.370	-1.460
2020/01/31 17:07:14.6	357.890	-0.350	-1.350	-1.520
2020/01/31 17:07:14.7	357.940	-0.380	-1.330	-1.560
2020/01/31 17:07:14.8	357.980	-0.400	-1.300	-1.610
2020/01/31 17:07:14.9	358.030	-0.420	-1.260	-1.640
2020/01/31 17:07:15.0	358.080	-0.430	-1.210	-1.670
2020/01/31 17:07:15.1	358.120	-0.450	-1.160	-1.690
2020/01/31 17:07:15.2	358.170	-0.460	-1.110	-1.700
2020/01/31 17:07:15.3	358.200	-0.460	-1.050	-1.700
2020/01/31 17:07:15.4	358.240	-0.470	-0.980	-1.700
2020/01/31 17:07:15.5	358.270	-0.470	-0.910	-1.690
2020/01/31 17:07:15.6	358.300	-0.470	-0.840	-1.670
2020/01/31 17:07:15.7	358.320	-0.460	-0.760	-1.650
2020/01/31 17:07:15.8	358.350	-0.460	-0.680	-1.620
2020/01/31 17:07:15.9	358.360	-0.450	-0.600	-1.580
2020/01/31 17:07:16.0	358.370	-0.440	-0.510	-1.540
2020/01/31 17:07:16.1	358.380	-0.430	-0.430	-1.490
2020/01/31 17:07:16.2	358.380	-0.420	-0.350	-1.440
2020/01/31 17:07:16.3	358.380	-0.400	-0.260	-1.380
2020/01/31 17:07:16.4	358.370	-0.390	-0.180	-1.320
2020/01/31 17:07:16.5	358.360	-0.370	-0.100	-1.260
2020/01/31 17:07:16.6	358.350	-0.350	-0.020	-1.190
2020/01/31 17:07:16.7	358.330	-0.340	0.050	-1.120
2020/01/31 17:07:16.8	358.310	-0.320	0.120	-1.040
2020/01/31 17:07:16.9	358.290	-0.300	0.190	-0.970
2020/01/31 17:07:17.0	358.260	-0.280	0.250	-0.900
2020/01/31 17:07:17.1	358.230	-0.260	0.310	-0.820
2020/01/31 17:07:17.2	358.210	-0.230	0.360	-0.750
2020/01/31 17:07:17.3	358.170	-0.210	0.400	-0.670
2020/01/31 17:07:17.4	358.140	-0.190	0.440	-0.590
2020/01/31 17:07:17.5	358.110	-0.160	0.480	-0.520
2020/01/31 17:07:17.6	358.080	-0.140	0.500	-0.440
2020/01/31 17:07:17.7	358.050	-0.110	0.520	-0.360
2020/01/31 17:07:17.8	358.030	-0.090	0.530	-0.280
2020/01/31 17:07:17.9	358.000	-0.060	0.540	-0.210
2020/01/31 17:07:18.0	357.970	-0.030	0.540	-0.130
2020/01/31 17:07:18.1	357.950	-0.000	0.520	-0.060
2020/01/31 17:07:18.2	357.920	0.030	0.510	0.010
2020/01/31 17:07:18.3	357.900	0.060	0.480	0.070
2020/01/31 17:07:18.4	357.880	0.100	0.450	0.130
2020/01/31 17:07:18.5	357.870	0.130	0.410	0.190
2020/01/31 17:07:18.6	357.850	0.160	0.370	0.240
2020/01/31 17:07:18.7	357.840	0.200	0.320	0.290
2020/01/31 17:07:18.8	357.840	0.240	0.260	0.340
2020/01/31 17:07:18.9	357.830	0.270	0.210	0.380
2020/01/31 17:07:19.0	357.830	0.310	0.150	0.420
2020/01/31 17:07:19.1	357.820	0.350	0.080	0.450
2020/01/31 17:07:19.2	357.820	0.380	0.020	0.480
2020/01/31 17:07:19.3	357.820	0.410	-0.040	0.500
2020/01/31 17:07:19.4	357.820	0.450	-0.100	0.520
2020/01/31 17:07:19.5	357.820	0.480	-0.150	0.540
2020/01/31 17:07:19.6	357.810	0.500	-0.200	0.550
2020/01/31 17:07:19.7	357.810	0.530	-0.250	0.560
2020/01/31 17:07:19.8	357.790	0.550	-0.290	0.580
2020/01/31 17:07:19.9	357.780	0.570	-0.330	0.590
2020/01/31 17:07:20.0	357.760	0.590	-0.360	0.590
2020/01/31 17:07:20.1	357.750	0.600	-0.380	0.600
2020/01/31 17:07:20.2	357.730	0.610	-0.400	0.610
2020/01/31 17:07:20.3	357.710	0.610	-0.410	0.610
2020/01/31 17:07:20.4	357.680	0.610	-0.410	0.620
2020/01/31 17:07:20.5	357.660	0.600	-0.400	0.620
2020/01/31 17:07:20.6	357.630	0.590	-0.390	0.620
2020/01/31 17:07:20.7	357.600	0.580	-0.370	0.620
2020/01/31 17:07:20.8	357.570	0.560	-0.350	0.630
2020/01/31 17:07:20.9	357.540	0.540	-0.310	0.620
2020/01/31 17:07:21.0	357.510	0.510	-0.280	0.620
2020/01/31 17:07:21.1	357.480	0.480	-0.230	0.610
2020/01/31 17:07:21.2	357.450	0.440	-0.190	0.610
2020/01/31 17:07:21.3	357.420	0.400	-0.140	0.600
2020/01/31 17:07:21.4	357.390	0.360	-0.090	0.580
2020/01/31 17:07:21.5	357.370	0.320	-0.040	0.560
2020/01/31 17:07:21.6	357.340	0.270	0.000	0.540
2020/01/31 17:07:21.7	357.320	0.220	0.050	0.510
2020/01/31 17:07:21.8	357.300	0.170	0.100	0.480
2020/01/31 17:07:21.9	357.290	0.110	0.140	0.440
2020/01/31 17:07:22.0	357.280	0.060	0.180	0.400
2020/01/31 17:07:22.1	357.270	0.010	0.210	0.350
2020/01/31 17:07:22.2	357.260	-0.050	0.230	0.300
2020/01/31 17:07:22.3	357.260	-0.100	0.250	0.240
2020/01/31 17:07:22.4	357.270	-0.150	0.260	0.180
2020/01/31 17:07:22.5	357.280	-0.200	0.270	0.110
2020/01/31 17:07:22.6	357.290	-0.250	0.270	0.040
2020/01/31 17:07:22.7	357.300	-0.290	0.260	-0.040
2020/01/31 17:07:22.8	357.330	-0.340	0.240	-0.120
2020/01/31 17:07:22.9	357.350	-0.380	0.210	-0.200
2020/01/31 17:07:23.0	357.380	-0.410	0.180	-0.280
2020/01/31 17:07:23.1	357.400	-0.440	0.140	-0.370
2020/01/31 17:07:23.2	357.430	-0.470	0.090	-0.450
2020/01/31 17:07:23.3	357.460	-0.500	0.040	-0.530
2020/01/31 17:07:23.4	357.500	-0.520	-0.010	-0.610
2020/01/31 17:07:23.5	357.530	-0.540	-0.070	-0.690
2020/01/31 17:07:23.6	357.560	-0.550	-0.130	-0.770
2020/01/31 17:07:23.7	357.590	-0.560	-0.200	-0.840
2020/01/31 17:07:23.8	357.630	-0.570	-0.260	-0.920
2020/01/31 17:07:23.9	357.670	-0.570	-0.320	-0.980
2020/01/31 17:07:24.0	357.700	-0.570	-0.390	-1.050
2020/01/31 17:07:24.1	357.730	-0.570	-0.450	-1.110
2020/01/31 17:07:24.2	357.760	-0.560	-0.510	-1.160
2020/01/31 17:07:24.3	357.790	-0.550	-0.570	-1.210
2020/01/31 17:07:24.4	357.820	-0.540	-0.630	-1.260
2020/01/31 17:07:24.5	357.840	-0.520	-0.680	-1.300
2020/01/31 17:07:24.6	357.870	-0.500	-0.730	-1.330
2020/01/31 17:07:24.7	357.900	-0.490	-0.770	-1.370
2020/01/31 17:07:24.8	357.890	-0.460	-0.810	-1.390
2020/01/31 17:07:24.9	357.920	-0.440	-0.850	-1.410
2020/01/31 17:07:25.0	357.940	-0.420	-0.880	-1.430
2020/01/31 17:07:25.1	357.960	-0.390	-0.910	-1.440
2020/01/31 17:07:25.2	357.980	-0.370	-0.930	-1.450
2020/01/31 17:07:25.3	357.990	-0.340	-0.950	-1.460
2020/01/31 17:07:25.4	358.010	-0.310	-0.960	-1.460
2020/01/31 17:07:25.5	358.020	-0.280	-0.970	-1.460
2020/01/31 17:07:25.6	358.040	-0.260	-0.970	-1.450
2020/01/31 17:07:25.7	358.050	-0.230	-0.970	-1.440
2020/01/31 17:07:25.8	358.060	-0.200	-0.960	-1.420
2020/01/31 17:07:25.9	358.070	-0.180	-0.950	-1.410
2020/01/31 17:07:26.0	358.080	-0.150	-0.930	-1.380
2020/01/31 17:07:26.1	358.080	-0.130	-0.910	-1.360
2020/01/31 17:07:26.2	358.090	-0.110	-0.880	-1.330
2020/01/31 17:07:26.3	358.090	-0.080	-0.850	-1.300
2020/01/31 17:07:26.4	358.100	-0.060	-0.820	-1.260
2020/01/31 17:07:26.5	358.100	-0.040	-0.780	-1.230
2020/01/31 17:07:26.6	358.100	-0.030	-0.740	-1.190
2020/01/31 17:07:26.7	358.100	-0.010	-0.700	-1.140
2020/01/31 17:07:26.8	358.090	0.010	-0.660	-1.100
2020/01/31 17:07:26.9	358.090	0.020	-0.610	-1.050
2020/01/31 17:07:27.0	358.090	0.040	-0.560	-1.000
2020/01/31 17:07:27.1	358.080	0.050	-0.520	-0.950
2020/01/31 17:07:27.2	358.080	0.060	-0.470	-0.900
2020/01/31 17:07:27.3	358.080	0.080	-0.420	-0.840
2020/01/31 17:07:27.4	358.070	0.090	-0.380	-0.790
2020/01/31 17:07:27.5	358.070	0.100	-0.330	-0.740
2020/01/31 17:07:27.6	358.060	0.110	-0.290	-0.680
2020/01/31 17:07:27.7	358.060	0.120	-0.250	-0.630
2020/01/31 17:07:27.8	358.060	0.130	-0.200	-0.570
2020/01/31 17:07:27.9	358.050	0.140	-0.170	-0.520
2020/01/31 17:07:28.0	358.050	0.150	-0.130	-0.470
2020/01/31 17:07:28.1	358.040	0.160	-0.100	-0.420
2020/01/31 17:07:28.2	358.040	0.170	-0.070	-0.370
2020/01/31 17:07:28.3	358.030	0.180	-0.050	-0.330
2020/01/31 17:07:28.4	358.030	0.200	-0.020	-0.290
2020/01/31 17:07:28.5	358.030	0.210	-0.010	-0.250
2020/01/31 17:07:28.6	358.020	0.220	0.010	-0.210
2020/01/31 17:07:28.7	358.020	0.230	0.020	-0.170
2020/01/31 17:07:28.8	358.030	0.250	0.030	-0.140
2020/01/31 17:07:28.9	358.030	0.260	0.040	-0.100
2020/01/31 17:07:29.0	358.030	0.270	0.040	-0.070
2020/01/31 17:07:29.1	358.030	0.290	0.040	-0.040
2020/01/31 17:07:29.2	358.020	0.300	0.040	-0.010
2020/01/31 17:07:29.3	358.020	0.310	0.040	0.010
2020/01/31 17:07:29.4	358.020	0.320	0.040	0.040
2020/01/31 17:07:29.5	358.020	0.340	0.030	0.070
2020/01/31 17:07:29.6	358.010	0.350	0.020	0.100
2020/01/31 17:07:29.7	358.000	0.360	0.020	0.120
2020/01/31 17:07:29.8	358.000	0.370	0.010	0.160
2020/01/31 17:07:29.9	357.990	0.380	-0.000	0.190
2020/01/31 17:07:30.0	357.970	0.380	-0.010	0.220
2020/01/31 17:07:30.1	357.960	0.390	-0.020	0.250
2020/01/31 17:07:30.2	357.940	0.390	-0.030	0.280
2020/01/31 17:07:30.3	357.920	0.400	-0.030	0.310
2020/01/31 17:07:30.4	357.900	0.400	-0.040	0.340
2020/01/31 17:07:30.5	357.870	0.390	-0.050	0.370
2020/01/31 17:07:30.6	357.850	0.390	-0.050	0.400
2020/01/31 17:07:30.7	357.820	0.380	-0.060	0.430
2020/01/31 17:07:30.8	357.810	0.380	-0.060	0.450
2020/01/31 17:07:30.9	357.780	0.370	-0.060	0.470
2020/01/31 17:07:31.0	357.750	0.350	-0.060	0.490
2020/01/31 17:07:31.1	357.720	0.340	-0.060	0.500
2020/01/31 17:07:31.2	357.690	0.330	-0.060	0.500
2020/01/31 17:07:31.3	357.660	0.310	-0.060	0.510
2020/01/31 17:07:31.4	357.640	0.290	-0.060	0.510
2020/01/31 17:07:31.5	357.610	0.270	-0.060	0.500
2020/01/31 17:07:31.6	357.580	0.250	-0.060	0.500
2020/01/31 17:07:31.7	357.550	0.230	-0.060	0.480
2020/01/31 17:07:31.8	357.520	0.210	-0.060	0.470
2020/01/31 17:07:31.9	357.490	0.190	-0.050	0.450
2020/01/31 17:07:32.0	357.470	0.170	-0.050	0.440
2020/01/31 17:07:32.1	357.450	0.150	-0.050	0.410
2020/01/31 17:07:32.2	357.430	0.130	-0.050	0.390
2020/01/31 17:07:32.3	357.410	0.110	-0.050	0.370
2020/01/31 17:07:32.4	357.390	0.090	-0.050	0.340
2020/01/31 17:07:32.5	357.380	0.070	-0.050	0.310
2020/01/31 17:07:32.6	357.370	0.060	-0.060	0.280
2020/01/31 17:07:32.7	357.360	0.040	-0.060	0.240
2020/01/31 17:07:32.8	357.360	0.030	-0.070	0.210
2020/01/31 17:07:32.9	357.360	0.020	-0.080	0.170
2020/01/31 17:07:33.0	357.360	0.010	-0.100	0.130
2020/01/31 17:07:33.1	357.370	0.000	-0.110	0.090
2020/01/31 17:07:33.2	357.380	-0.000	-0.130	0.050
2020/01/31 17:07:33.3	357.390	-0.010	-0.150	0.000
2020/01/31 17:07:33.4	357.410	-0.010	-0.170	-0.040
2020/01/31 17:07:33.5	357.430	-0.010	-0.200	-0.090
2020/01/31 17:07:33.6	357.450	-0.010	-0.230	-0.140
2020/01/31 17:07:33.7	357.480	-0.010	-0.250	-0.190
2020/01/31 17:07:33.8	357.510	-0.010	-0.280	-0.240
2020/01/31 17:07:33.9	357.540	-0.010	-0.310	-0.300
2020/01/31 17:07:34.0	357.580	-0.010	-0.340	-0.350
2020/01/31 17:07:34.1	357.610	-0.010	-0.380	-0.410
2020/01/31 17:07:34.2	357.650	-0.010	-0.410	-0.470
2020/01/31 17:07:34.3	357.690	-0.010	-0.430	-0.530
2020/01/31 17:07:34.4	357.740	-0.020	-0.460	-0.590
2020/01/31 17:07:34.5	357.780	-0.020	-0.490	-0.660
2020/01/31 17:07:34.6	357.820	-0.020	-0.510	-0.720
2020/01/31 17:07:34.7	357.860	-0.030	-0.540	-0.780
2020/01/31 17:07:34.8	357.890	-0.040	-0.560	-0.840
2020/01/31 17:07:34.9	357.930	-0.050	-0.580	-0.900
2020/01/31 17:07:35.0	357.960	-0.060	-0.590	-0.960
2020/01/31 17:07:35.1	358.000	-0.080	-0.600	-1.010
2020/01/31 17:07:35.2	358.030	-0.090	-0.610	-1.070
2020/01/31 17:07:35.3	358.060	-0.110	-0.620	-1.120
2020/01/31 17:07:35.4	358.080	-0.130	-0.620	-1.160
2020/01/31 17:07:35.5	358.110	-0.150	-0.620	-1.200
2020/01/31 17:07:35.6	358.120	-0.180	-0.620	-1.240
2020/01/31 17:07:35.7	358.140	-0.200	-0.610	-1.270
2020/01/31 17:07:35.8	358.150	-0.230	-0.600	-1.300
2020/01/31 17:07:35.9	358.160	-0.260	-0.580	-1.320
2020/01/31 17:07:36.0	358.160	-0.280	-0.570	-1.330
2020/01/31 17:07:36.1	358.160	-0.310	-0.550	-1.350
2020/01/31 17:07:36.2	358.160	-0.340	-0.520	-1.350
2020/01/31 17:07:36.3	358.160	-0.370	-0.500	-1.360
2020/01/31 17:07:36.4	358.150	-0.400	-0.480	-1.350
2020/01/31 17:07:36.5	358.150	-0.430	-0.450	-1.350
2020/01/31 17:07:36.6	358.140	-0.460	-0.430	-1.340
2020/01/31 17:07:36.7	358.130	-0.480	-0.400	-1.330
2020/01/31 17:07:36.8	358.110	-0.510	-0.380	-1.320
2020/01/31 17:07:36.9	358.100	-0.530	-0.350	-1.300
2020/01/31 17:07:37.0	358.090	-0.550	-0.330	-1.290
2020/01/31 17:07:37.1	358.070	-0.560	-0.300	-1.270
2020/01/31 17:07:37.2	358.070	-0.580	-0.280	-1.260
2020/01/31 17:07:37.3	358.060	-0.590	-0.260	-1.240
2020/01/31 17:07:37.4	358.050	-0.600	-0.250	-1.230
2020/01/31 17:07:37.5	358.040	-0.600	-0.230	-1.210
2020/01/31 17:07:37.6	358.030	-0.600	-0.220	-1.190
2020/01/31 17:07:37.7	358.020	-0.600	-0.210	-1.170
2020/01/31 17:07:37.8	358.010	-0.590	-0.190	-1.150
2020/01/31 17:07:37.9	358.000	-0.570	-0.190	-1.130
2020/01/31 17:07:38.0	357.990	-0.560	-0.180	-1.110
2020/01/31 17:07:38.1	357.980	-0.540	-0.180	-1.080
2020/01/31 17:07:38.2	357.970	-0.510	-0.170	-1.060
2020/01/31 17:07:38.3	357.960	-0.480	-0.170	-1.020
2020/01/31 17:07:38.4	357.940	-0.450	-0.170	-0.990
2020/01/31 17:07:38.5	357.920	-0.420	-0.170	-0.950
2020/01/31 17:07:38.6	357.900	-0.380	-0.160	-0.910
2020/01/31 17:07:38.7	357.870	-0.340	-0.160	-0.860
2020/01/31 17:07:38.8	357.840	-0.300	-0.150	-0.800
2020/01/31 17:07:38.9	357.810	-0.260	-0.140	-0.740
2020/01/31 17:07:39.0	357.770	-0.210	-0.130	-0.680
2020/01/31 17:07:39.1	357.740	-0.170	-0.110	-0.620
2020/01/31 17:07:39.2	357.700	-0.120	-0.090	-0.550
2020/01/31 17:07:39.3	357.660	-0.080	-0.070	-0.480
2020/01/31 17:07:39.4	357.610	-0.040	-0.050	-0.410
2020/01/31 17:07:39.5	357.570	0.010	-0.020	-0.340
2020/01/31 17:07:39.6	357.520	0.050	0.010	-0.260
2020/01/31 17:07:39.7	357.470	0.090	0.040	-0.180
2020/01/31 17:07:39.8	357.430	0.130	0.070	-0.100
2020/01/31 17:07:39.9	357.380	0.170	0.110	-0.020
2020/01/31 17:07:40.0	357.320	0.210	0.140	0.060
2020/01/31 17:07:40.1	357.270	0.240	0.170	0.140
2020/01/31 17:07:40.2	357.210	0.270	0.210	0.220
2020/01/31 17:07:40.3	357.160	0.300	0.240	0.290
2020/01/31 17:07:40.4	357.110	0.330	0.270	0.360
2020/01/31 17:07:40.5	357.060	0.360	0.290	0.420
2020/01/31 17:07:40.6	357.020	0.380	0.310	0.490
2020/01/31 17:07:40.7	356.970	0.400	0.330	0.540
2020/01/31 17:07:40.8	356.940	0.420	0.340	0.600
2020/01/31 17:07:40.9	356.900	0.440	0.350	0.640
2020/01/31 17:07:41.0	356.870	0.460	0.340	0.680
2020/01/31 17:07:41.1	356.840	0.470	0.340	0.720
2020/01/31 17:07:41.2	356.820	0.490	0.320	0.740
2020/01/31 17:07:41.3	356.800	0.500	0.300	0.760
2020/01/31 17:07:41.4	356.790	0.510	0.270	0.780
2020/01/31 17:07:41.5	356.780	0.530	0.230	0.790
2020/01/31 17:07:41.6	356.780	0.540	0.180	0.790
2020/01/31 17:07:41.7	356.780	0.550	0.130	0.790
2020/01/31 17:07:41.8	356.800	0.560	0.080	0.770
2020/01/31 17:07:41.9	356.810	0.570	0.010	0.760
2020/01/31 17:07:42.0	356.830	0.580	-0.060	0.740
2020/01/31 17:07:42.1	356.860	0.590	-0.130	0.710
2020/01/31 17:07:42.2	356.890	0.600	-0.210	0.680
2020/01/31 17:07:42.3	356.920	0.610	-0.300	0.650
2020/01/31 17:07:42.4	356.950	0.620	-0.380	0.610
2020/01/31 17:07:42.5	356.990	0.620	-0.470	0.560
2020/01/31 17:07:42.6	357.040	0.630	-0.560	0.520
2020/01/31 17:07:42.7	357.080	0.630	-0.640	0.460
2020/01/31 17:07:42.8	357.140	0.630	-0.730	0.410
2020/01/31 17:07:42.9	357.190	0.630	-0.820	0.350
2020/01/31 17:07:43.0	357.240	0.630	-0.900	0.280
2020/01/31 17:07:43.1	357.300	0.620	-0.990	0.220
2020/01/31 17:07:43.2	357.350	0.620	-1.060	0.150
2020/01/31 17:07:43.3	357.410	0.610	-1.140	0.090
2020/01/31 17:07:43.4	357.460	0.600	-1.210	0.020
2020/01/31 17:07:43.5	357.520	0.580	-1.270	-0.050
2020/01/31 17:07:43.6	357.580	0.570	-1.320	-0.120
2020/01/31 17:07:43.7	357.630	0.550	-1.370	-0.180
2020/01/31 17:07:43.8	357.670	0.520	-1.410	-0.250
2020/01/31 17:07:43.9	357.720	0.500	-1.440	-0.310
2020/01/31 17:07:44.0	357.780	0.470	-1.470	-0.370
2020/01/31 17:07:44.1	357.830	0.440	-1.480	-0.430
2020/01/31 17:07:44.2	357.870	0.410	-1.480	-0.490
2020/01/31 17:07:44.3	357.920	0.370	-1.480	-0.540
2020/01/31 17:07:44.4	357.960	0.330	-1.460	-0.590
2020/01/31 17:07:44.5	358.000	0.290	-1.440	-0.640
2020/01/31 17:07:44.6	358.040	0.240	-1.400	-0.680
2020/01/31 17:07:44.7	358.070	0.200	-1.350	-0.720
2020/01/31 17:07:44.8	358.090	0.150	-1.300	-0.750
2020/01/31 17:07:44.9	358.110	0.100	-1.230	-0.780
2020/01/31 17:07:45.0	358.130	0.040	-1.150	-0.800
2020/01/31 17:07:45.1	358.150	-0.010	-1.070	-0.820
2020/01/31 17:07:45.2	358.160	-0.070	-0.970	-0.840
2020/01/31 17:07:45.3	358.160	-0.120	-0.870	-0.850
2020/01/31 17:07:45.4	358.160	-0.180	-0.760	-0.860
2020/01/31 17:07:45.5	358.150	-0.240	-0.650	-0.860
2020/01/31 17:07:45.6	358.140	-0.300	-0.530	-0.860
2020/01/31 17:07:45.7	358.130	-0.360	-0.410	-0.850
2020/01/31 17:07:45.8	358.120	-0.420	-0.280	-0.840
2020/01/31 17:07:45.9	358.100	-0.480	-0.150	-0.830
2020/01/31 17:07:46.0	358.070	-0.530	-0.020	-0.820
2020/01/31 17:07:46.1	358.040	-0.590	0.100	-0.800
2020/01/31 17:07:46.2	358.010	-0.640	0.230	-0.780
2020/01/31 17:07:46.3	357.970	-0.690	0.350	-0.770
2020/01/31 17:07:46.4	357.940	-0.740	0.460	-0.750
2020/01/31 17:07:46.5	357.900	-0.780	0.570	-0.730
2020/01/31 17:07:46.6	357.860	-0.820	0.680	-0.720
2020/01/31 17:07:46.7	357.820	-0.860	0.780	-0.700
2020/01/31 17:07:46.8	357.780	-0.890	0.860	-0.680
2020/01/31 17:07:46.9	357.740	-0.920	0.940	-0.660
2020/01/31 17:07:47.0	357.700	-0.940	1.010	-0.650
2020/01/31 17:07:47.1	357.660	-0.960	1.070	-0.640
2020/01/31 17:07:47.2	357.620	-0.980	1.120	-0.630
2020/01/31 17:07:47.3	357.580	-0.990	1.160	-0.620
2020/01/31 17:07:47.4	357.540	-0.990	1.190	-0.610
2020/01/31 17:07:47.5	357.500	-0.990	1.210	-0.600
2020/01/31 17:07:47.6	357.460	-0.980	1.210	-0.600
2020/01/31 17:07:47.7	357.420	-0.970	1.210	-0.590
2020/01/31 17:07:47.8	357.380	-0.960	1.200	-0.590
2020/01/31 17:07:47.9	357.350	-0.940	1.180	-0.590
2020/01/31 17:07:48.0	357.320	-0.910	1.140	-0.590
2020/01/31 17:07:48.1	357.290	-0.880	1.100	-0.590
2020/01/31 17:07:48.2	357.260	-0.850	1.050	-0.600
2020/01/31 17:07:48.3	357.240	-0.810	0.990	-0.600
2020/01/31 17:07:48.4	357.210	-0.770	0.920	-0.610
2020/01/31 17:07:48.5	357.190	-0.730	0.850	-0.610
2020/01/31 17:07:48.6	357.170	-0.680	0.770	-0.620
2020/01/31 17:07:48.7	357.150	-0.630	0.690	-0.620
2020/01/31 17:07:48.8	357.120	-0.580	0.600	-0.620
2020/01/31 17:07:48.9	357.100	-0.520	0.510	-0.620
2020/01/31 17:07:49.0	357.080	-0.460	0.410	-0.610
2020/01/31 17:07:49.1	357.070	-0.400	0.320	-0.610
2020/01/31 17:07:49.2	357.050	-0.340	0.220	-0.600
2020/01/31 17:07:49.3	357.030	-0.280	0.130	-0.580
2020/01/31 17:07:49.4	357.010	-0.220	0.030	-0.570
2020/01/31 17:07:49.5	356.990	-0.150	-0.060	-0.540
2020/01/31 17:07:49.6	356.970	-0.090	-0.150	-0.520
2020/01/31 17:07:49.7	356.950	-0.030	-0.240	-0.500
2020/01/31 17:07:49.8	356.930	0.030	-0.320	-0.470
2020/01/31 17:07:49.9	356.910	0.090	-0.400	-0.430
2020/01/31 17:07:50.0	356.890	0.150	-0.480	-0.400
2020/01/31 17:07:50.1	356.880	0.210	-0.560	-0.370
2020/01/31 17:07:50.2	356.860	0.270	-0.620	-0.330
2020/01/31 17:07:50.3	356.850	0.330	-0.690	-0.290
2020/01/31 17:07:50.4	356.830	0.380	-0.750	-0.250
2020/01/31 17:07:50.5	356.820	0.430	-0.800	-0.210
2020/01/31 17:07:50.6	356.810	0.480	-0.850	-0.170
2020/01/31 17:07:50.7	356.810	0.530	-0.900	-0.120
2020/01/31 17:07:50.8	356.820	0.580	-0.940	-0.070
2020/01/31 17:07:50.9	356.810	0.630	-0.980	-0.030
2020/01/31 17:07:51.0	356.810	0.670	-1.010	0.010
2020/01/31 17:07:51.1	356.820	0.710	-1.040	0.060
2020/01/31 17:07:51.2	356.820	0.750	-1.070	0.100
2020/01/31 17:07:51.3	356.830	0.780	-1.090	0.140
2020/01/31 17:07:51.4	356.840	0.810	-1.100	0.180
2020/01/31 17:07:51.5	356.850	0.840	-1.120	0.220
2020/01/31 17:07:51.6	356.860	0.870	-1.130	0.260
2020/01/31 17:07:51.7	356.870	0.890	-1.130	0.300
2020/01/31 17:07:51.8	356.890	0.910	-1.130	0.340
2020/01/31 17:07:51.9	356.910	0.920	-1.130	0.370
2020/01/31 17:07:52.0	356.920	0.930	-1.120	0.410
2020/01/31 17:07:52.1	356.930	0.940	-1.110	0.440
2020/01/31 17:07:52.2	356.940	0.940	-1.090	0.460
2020/01/31 17:07:52.3	356.950	0.930	-1.070	0.480
2020/01/31 17:07:52.4	356.960	0.920	-1.050	0.500
2020/01/31 17:07:52.5	356.970	0.900	-1.030	0.520
2020/01/31 17:07:52.6	356.970	0.880	-1.000	0.530
2020/01/31 17:07:52.7	356.980	0.850	-0.970	0.530
2020/01/31 17:07:52.8	357.000	0.820	-0.930	0.540
2020/01/31 17:07:52.9	357.010	0.780	-0.900	0.530
2020/01/31 17:07:53.0	357.010	0.740	-0.860	0.520
2020/01/31 17:07:53.1	357.020	0.690	-0.820	0.500
2020/01/31 17:07:53.2	357.020	0.640	-0.790	0.480
2020/01/31 17:07:53.3	357.030	0.590	-0.750	0.450
2020/01/31 17:07:53.4	357.040	0.530	-0.710	0.410
2020/01/31 17:07:53.5	357.050	0.470	-0.680	0.370
2020/01/31 17:07:53.6	357.060	0.400	-0.640	0.330
2020/01/31 17:07:53.7	357.080	0.340	-0.610	0.280
2020/01/31 17:07:53.8	357.100	0.270	-0.570	0.220
2020/01/31 17:07:53.9	357.120	0.210	-0.540	0.160
2020/01/31 17:07:54.0	357.140	0.140	-0.510	0.100
2020/01/31 17:07:54.1	357.170	0.080	-0.490	0.030
2020/01/31 17:07:54.2	357.200	0.010	-0.460	-0.040
2020/01/31 17:07:54.3	357.230	-0.050	-0.440	-0.110
2020/01/31 17:07:54.4	357.270	-0.110	-0.420	-0.180
2020/01/31 17:07:54.5	357.310	-0.170	-0.400	-0.260
2020/01/31 17:07:54.6	357.350	-0.230	-0.380	-0.330
2020/01/31 17:07:54.7	357.390	-0.280	-0.360	-0.400
2020/01/31 17:07:54.8	357.440	-0.330	-0.340	-0.480
2020/01/31 17:07:54.9	357.480	-0.380	-0.320	-0.550
2020/01/31 17:07:55.0	357.520	-0.420	-0.300	-0.620
2020/01/31 17:07:55.1	357.560	-0.460	-0.280	-0.690
2020/01/31 17:07:55.2	357.600	-0.490	-0.260	-0.740
2020/01/31 17:07:55.3	357.640	-0.530	-0.230	-0.800
2020/01/31 17:07:55.4	357.670	-0.550	-0.200	-0.850
2020/01/31 17:07:55.5	357.700	-0.580	-0.170	-0.900
2020/01/31 17:07:55.6	357.730	-0.600	-0.140	-0.940
2020/01/31 17:07:55.7	357.750	-0.620	-0.110	-0.970
2020/01/31 17:07:55.8	357.760	-0.630	-0.070	-1.000
2020/01/31 17:07:55.9	357.780	-0.640	-0.030	-1.020
2020/01/31 17:07:56.0	357.790	-0.650	0.010	-1.040
2020/01/31 17:07:56.1	357.800	-0.660	0.050	-1.060
2020/01/31 17:07:56.2	357.800	-0.660	0.100	-1.070
2020/01/31 17:07:56.3	357.800	-0.660	0.140	-1.070
2020/01/31 17:07:56.4	357.800	-0.660	0.180	-1.070
2020/01/31 17:07:56.5	357.800	-0.650	0.220	-1.070
2020/01/31 17:07:56.6	357.790	-0.650	0.260	-1.060
2020/01/31 17:07:56.7	357.780	-0.640	0.300	-1.050
2020/01/31 17:07:56.8	357.750	-0.620	0.340	-1.040
2020/01/31 17:07:56.9	357.740	-0.610	0.370	-1.030
2020/01/31 17:07:57.0	357.730	-0.590	0.400	-1.010
2020/01/31 17:07:57.1	357.710	-0.570	0.420	-0.990
2020/01/31 17:07:57.2	357.700	-0.550	0.450	-0.960
2020/01/31 17:07:57.3	357.680	-0.530	0.460	-0.930
2020/01/31 17:07:57.4	357.670	-0.510	0.470	-0.900
2020/01/31 17:07:57.5	357.650	-0.480	0.480	-0.870
2020/01/31 17:07:57.6	357.630	-0.450	0.480	-0.840
2020/01/31 17:07:57.7	357.620	-0.420	0.480	-0.810
2020/01/31 17:07:57.8	357.600	-0.390	0.460	-0.770
2020/01/31 17:07:57.9	357.580	-0.360	0.450	-0.730
2020/01/31 17:07:58.0	357.570	-0.320	0.430	-0.690
2020/01/31 17:07:58.1	357.560	-0.290	0.400	-0.660
2020/01/31 17:07:58.2	357.540	-0.250	0.370	-0.620
2020/01/31 17:07:58.3	357.530	-0.210	0.340	-0.580
2020/01/31 17:07:58.4	357.520	-0.170	0.300	-0.540
2020/01/31 17:07:58.5	357.510	-0.130	0.260	-0.500
2020/01/31 17:07:58.6	357.500	-0.090	0.210	-0.450
2020/01/31 17:07:58.7	357.490	-0.040	0.170	-0.410
2020/01/31 17:07:58.8	357.460	-0.000	0.120	-0.370
2020/01/31 17:07:58.9	357.450	0.040	0.070	-0.330
2020/01/31 17:07:59.0	357.440	0.080	0.020	-0.290
2020/01/31 17:07:59.1	357.430	0.120	-0.030	-0.250
2020/01/31 17:07:59.2	357.420	0.160	-0.070	-0.210
2020/01/31 17:07:59.3	357.410	0.200	-0.120	-0.170
2020/01/31 17:07:59.4	357.400	0.230	-0.160	-0.130
2020/01/31 17:07:59.5	357.380	0.270	-0.200	-0.100
2020/01/31 17:07:59.6	357.370	0.300	-0.230	-0.060
2020/01/31 17:07:59.7	357.360	0.330	-0.270	-0.030
2020/01/31 17:07:59.8	357.350	0.360	-0.290	0.010
2020/01/31 17:07:59.9	357.330	0.380	-0.320	0.040
2020/01/31 17:08:00.0	357.320	0.400	-0.340	0.070
2020/01/31 17:08:00.1	357.300	0.410	-0.360	0.090
2020/01/31 17:08:00.2	357.290	0.420	-0.370	0.120
2020/01/31 17:08:00.3	357.270	0.430	-0.380	0.140
2020/01/31 17:08:00.4	357.250	0.440	-0.390	0.160
2020/01/31 17:08:00.5	357.230	0.440	-0.390	0.180
2020/01/31 17:08:00.6	357.210	0.430	-0.390	0.200
2020/01/31 17:08:00.7	357.190	0.420	-0.390	0.220
2020/01/31 17:08:00.8	357.160	0.410	-0.380	0.230
2020/01/31 17:08:00.9	357.140	0.390	-0.380	0.240
2020/01/31 17:08:01.0	357.110	0.380	-0.370	0.250
2020/01/31 17:08:01.1	357.090	0.350	-0.360	0.260
2020/01/31 17:08:01.2	357.070	0.330	-0.350	0.260
2020/01/31 17:08:01.3	357.050	0.300	-0.340	0.260
2020/01/31 17:08:01.4	357.020	0.270	-0.330	0.250
2020/01/31 17:08:01.5	357.000	0.240	-0.320	0.240
2020/01/31 17:08:01.6	356.980	0.210	-0.320	0.230
2020/01/31 17:08:01.7	356.960	0.180	-0.310	0.210
2020/01/31 17:08:01.8	356.950	0.140	-0.310	0.190
2020/01/31 17:08:01.9	356.940	0.110	-0.310	0.160
2020/01/31 17:08:02.0	356.920	0.080	-0.310	0.130
2020/01/31 17:08:02.1	356.910	0.050	-0.310	0.100
2020/01/31 17:08:02.2	356.910	0.020	-0.320	0.060
2020/01/31 17:08:02.3	356.900	-0.000	-0.330	0.030
2020/01/31 17:08:02.4	356.900	-0.030	-0.350	-0.020
2020/01/31 17:08:02.5	356.900	-0.050	-0.370	-0.060
2020/01/31 17:08:02.6	356.910	-0.060	-0.390	-0.110
2020/01/31 17:08:02.7	356.910	-0.070	-0.410	-0.160
2020/01/31 17:08:02.8	356.930	-0.080	-0.440	-0.210
2020/01/31 17:08:02.9	356.940	-0.090	-0.460	-0.260
2020/01/31 17:08:03.0	356.950	-0.090	-0.490	-0.310
2020/01/31 17:08:03.1	356.970	-0.080	-0.520	-0.360
2020/01/31 17:08:03.2	356.990	-0.080	-0.550	-0.410
2020/01/31 17:08:03.3	357.010	-0.060	-0.580	-0.460
2020/01/31 17:08:03.4	357.030	-0.050	-0.610	-0.500
2020/01/31 17:08:03.5	357.050	-0.030	-0.640	-0.550
2020/01/31 17:08:03.6	357.070	-0.010	-0.660	-0.590
2020/01/31 17:08:03.7	357.090	0.010	-0.690	-0.630
2020/01/31 17:08:03.8	357.100	0.040	-0.710	-0.670
2020/01/31 17:08:03.9	357.130	0.060	-0.730	-0.700
2020/01/31 17:08:04.0	357.150	0.090	-0.740	-0.730
2020/01/31 17:08:04.1	357.170	0.120	-0.760	-0.760
2020/01/31 17:08:04.2	357.190	0.150	-0.760	-0.790
2020/01/31 17:08:04.3	357.210	0.170	-0.770	-0.810
2020/01/31 17:08:04.4	357.230	0.200	-0.770	-0.830
2020/01/31 17:08:04.5	357.250	0.230	-0.770	-0.850
2020/01/31 17:08:04.6	357.270	0.250	-0.770	-0.860
2020/01/31 17:08:04.7	357.300	0.280	-0.770	-0.880
2020/01/31 17:08:04.8	357.310	0.300	-0.760	-0.880
2020/01/31 17:08:04.9	357.340	0.320	-0.750	-0.890
2020/01/31 17:08:05.0	357.360	0.340	-0.730	-0.900
2020/01/31 17:08:05.1	357.390	0.350	-0.720	-0.900
2020/01/31 17:08:05.2	357.420	0.360	-0.700	-0.910
2020/01/31 17:08:05.3	357.450	0.370	-0.680	-0.910
2020/01/31 17:08:05.4	357.470	0.370	-0.660	-0.910
2020/01/31 17:08:05.5	357.510	0.370	-0.640	-0.910
2020/01/31 17:08:05.6	357.540	0.370	-0.620	-0.910
2020/01/31 17:08:05.7	357.570	0.360	-0.600	-0.910
2020/01/31 17:08:05.8	357.610	0.350	-0.580	-0.900
2020/01/31 17:08:05.9	357.640	0.330	-0.560	-0.890
2020/01/31 17:08:06.0	357.680	0.310	-0.530	-0.890
2020/01/31 17:08:06.1	357.710	0.290	-0.510	-0.890
2020/01/31 17:08:06.2	357.740	0.270	-0.480	-0.880
2020/01/31 17:08:06.3	357.780	0.240	-0.460	-0.880
2020/01/31 17:08:06.4	357.810	0.210	-0.430	-0.870
2020/01/31 17:08:06.5	357.830	0.170	-0.400	-0.860
2020/01/31 17:08:06.6	357.860	0.130	-0.370	-0.850
2020/01/31 17:08:06.7	357.880	0.090	-0.340	-0.850
2020/01/31 17:08:06.8	357.910	0.050	-0.310	-0.830
2020/01/31 17:08:06.9	357.920	0.010	-0.280	-0.820
2020/01/31 17:08:07.0	357.940	-0.040	-0.240	-0.810
2020/01/31 17:08:07.1	357.950	-0.080	-0.210	-0.800
2020/01/31 17:08:07.2	357.960	-0.130	-0.170	-0.780
2020/01/31 17:08:07.3	357.970	-0.180	-0.130	-0.770
2020/01/31 17:08:07.4	357.970	-0.220	-0.100	-0.750
2020/01/31 17:08:07.5	357.970	-0.270	-0.050	-0.730
2020/01/31 17:08:07.6	357.970	-0.320	-0.010	-0.710
2020/01/31 17:08:07.7	357.960	-0.360	0.030	-0.690
2020/01/31 17:08:07.8	357.960	-0.400	0.080	-0.660
2020/01/31 17:08:07.9	357.950	-0.440	0.120	-0.640
2020/01/31 17:08:08.0	357.940	-0.480	0.170	-0.610
2020/01/31 17:08:08.1	357.920	-0.520	0.210	-0.580
2020/01/31 17:08:08.2	357.910	-0.550	0.260	-0.550
2020/01/31 17:08:08.3	357.890	-0.580	0.300	-0.510
2020/01/31 17:08:08.4	357.870	-0.600	0.350	-0.480
2020/01/31 17:08:08.5	357.850	-0.630	0.390	-0.440
2020/01/31 17:08:08.6	357.830	-0.640	0.430	-0.400
2020/01/31 17:08:08.7	357.810	-0.660	0.460	-0.360
2020/01/31 17:08:08.8	357.800	-0.660	0.500	-0.310
2020/01/31 17:08:08.9	357.770	-0.670	0.530	-0.270
2020/01/31 17:08:09.0	357.750	-0.670	0.550	-0.230
2020/01/31 17:08:09.1	357.730	-0.660	0.570	-0.190
2020/01/31 17:08:09.2	357.710	-0.660	0.590	-0.140
2020/01/31 17:08:09.3	357.680	-0.640	0.600	-0.100
2020/01/31 17:08:09.4	357.660	-0.630	0.610	-0.060
2020/01/31 17:08:09.5	357.640	-0.610	0.600	-0.020
2020/01/31 17:08:09.6	357.610	-0.580	0.600	0.020
2020/01/31 17:08:09.7	357.590	-0.560	0.590	0.050
2020/01/31 17:08:09.8	357.570	-0.530	0.570	0.090
2020/01/31 17:08:09.9	357.540	-0.490	0.550	0.130
2020/01/31 17:08:10.0	357.510	-0.460	0.520	0.150
2020/01/31 17:08:10.1	357.490	-0.420	0.490	0.180
2020/01/31 17:08:10.2	357.460	-0.380	0.450	0.210
2020/01/31 17:08:10.3	357.430	-0.340	0.410	0.230
2020/01/31 17:08:10.4	357.400	-0.300	0.370	0.250
2020/01/31 17:08:10.5	357.370	-0.260	0.320	0.260
2020/01/31 17:08:10.6	357.330	-0.220	0.270	0.280
2020/01/31 17:08:10.7	357.300	-0.180	0.220	0.290
2020/01/31 17:08:10.8	357.280	-0.140	0.160	0.300
2020/01/31 17:08:10.9	357.250	-0.090	0.100	0.300
2020/01/31 17:08:11.0	357.210	-0.050	0.040	0.300
2020/01/31 17:08:11.1	357.180	-0.010	-0.020	0.300
2020/01/31 17:08:11.2	357.150	0.020	-0.080	0.300
2020/01/31 17:08:11.3	357.120	0.060	-0.140	0.290
2020/01/31 17:08:11.4	357.090	0.100	-0.200	0.280
2020/01/31 17:08:11.5	357.070	0.130	-0.260	0.270
2020/01/31 17:08:11.6	357.050	0.160	-0.320	0.250
2020/01/31 17:08:11.7	357.030	0.190	-0.390	0.230
2020/01/31 17:08:11.8	357.010	0.220	-0.440	0.210
2020/01/31 17:08:11.9	357.000	0.250	-0.500	0.190
2020/01/31 17:08:12.0	356.990	0.280	-0.560	0.160
2020/01/31 17:08:12.1	356.990	0.300	-0.620	0.130
2020/01/31 17:08:12.2	356.990	0.330	-0.680	0.100
2020/01/31 17:08:12.3	357.000	0.350	-0.730	0.070
2020/01/31 17:08:12.4	357.010	0.370	-0.790	0.030
2020/01/31 17:08:12.5	357.020	0.390	-0.840	-0.010
2020/01/31 17:08:12.6	357.040	0.410	-0.890	-0.050
2020/01/31 17:08:12.7	357.070	0.430	-0.940	-0.090
2020/01/31 17:08:12.8	357.100	0.450	-0.990	-0.130
2020/01/31 17:08:12.9	357.130	0.460	-1.030	-0.180
2020/01/31 17:08:13.0	357.170	0.480	-1.070	-0.230
2020/01/31 17:08:13.1	357.210	0.500	-1.110	-0.270
2020/01/31 17:08:13.2	357.260	0.510	-1.140	-0.320
2020/01/31 17:08:13.3	357.300	0.520	-1.170	-0.370
2020/01/31 17:08:13.4	357.350	0.530	-1.190	-0.410
2020/01/31 17:08:13.5	357.390	0.550	-1.200	-0.460
2020/01/31 17:08:13.6	357.440	0.550	-1.210	-0.500
2020/01/31 17:08:13.7	357.490	0.560	-1.220	-0.540
2020/01/31 17:08:13.8	357.520	0.570	-1.210	-0.570
2020/01/31 17:08:13.9	357.570	0.570	-1.200	-0.600
2020/01/31 17:08:14.0	357.610	0.580	-1.180	-0.630
2020/01/31 17:08:14.1	357.640	0.580	-1.160	-0.660
2020/01/31 17:08:14.2	357.680	0.580	-1.130	-0.680
2020/01/31 17:08:14.3	357.710	0.580	-1.090	-0.690
2020/01/31 17:08:14.4	357.740	0.570	-1.050	-0.700
2020/01/31 17:08:14.5	357.760	0.570	-1.000	-0.710
2020/01/31 17:08:14.6	357.790	0.560	-0.940	-0.710
2020/01/31 17:08:14.7	357.810	0.550	-0.890	-0.710
2020/01/31 17:08:14.8	357.800	0.540	-0.830	-0.700
2020/01/31 17:08:14.9	357.810	0.530	-0.760	-0.700
2020/01/31 17:08:15.0	357.830	0.510	-0.700	-0.680
2020/01/31 17:08:15.1	357.830	0.500	-0.630	-0.670
2020/01/31 17:08:15.2	357.840	0.480	-0.560	-0.650
2020/01/31 17:08:15.3	357.850	0.450	-0.490	-0.630
2020/01/31 17:08:15.4	357.850	0.430	-0.430	-0.610
2020/01/31 17:08:15.5	357.850	0.410	-0.360	-0.580
2020/01/31 17:08:15.6	357.850	0.380	-0.290	-0.560
2020/01/31 17:08:15.7	357.840	0.350	-0.230	-0.540
2020/01/31 17:08:15.8	357.850	0.320	-0.170	-0.520
2020/01/31 17:08:15.9	357.840	0.290	-0.110	-0.500
2020/01/31 17:08:16.0	357.840	0.250	-0.050	-0.480
2020/01/31 17:08:16.1	357.830	0.220	0.000	-0.470
2020/01/31 17:08:16.2	357.830	0.180	0.050	-0.460
2020/01/31 17:08:16.3	357.820	0.150	0.100	-0.450
2020/01/31 17:08:16.4	357.810	0.110	0.140	-0.440
2020/01/31 17:08:16.5	357.810	0.080	0.180	-0.430
2020/01/31 17:08:16.6	357.800	0.040	0.220	-0.430
2020/01/31 17:08:16.7	357.790	0.000	0.250	-0.430
2020/01/31 17:08:16.8	357.770	-0.030	0.270	-0.430
2020/01/31 17:08:16.9	357.760	-0.070	0.290	-0.440
2020/01/31 17:08:17.0	357.760	-0.100	0.310	-0.450
2020/01/31 17:08:17.1	357.750	-0.140	0.330	-0.460
2020/01/31 17:08:17.2	357.740	-0.170	0.340	-0.470
2020/01/31 17:08:17.3	357.740	-0.200	0.350	-0.490
2020/01/31 17:08:17.4	357.730	-0.230	0.350	-0.500
2020/01/31 17:08:17.5	357.720	-0.260	0.350	-0.520
2020/01/31 17:08:17.6	357.720	-0.290	0.350	-0.540
2020/01/31 17:08:17.7	357.710	-0.320	0.350	-0.550
2020/01/31 17:08:17.8	357.720	-0.340	0.340	-0.570
2020/01/31 17:08:17.9	357.710	-0.360	0.340	-0.580
2020/01/31 17:08:18.0	357.700	-0.380	0.330	-0.600
2020/01/31 17:08:18.1	357.690	-0.400	0.320	-0.610
2020/01/31 17:08:18.2	357.680	-0.420	0.310	-0.610
2020/01/31 17:08:18.3	357.670	-0.440	0.300	-0.620
2020/01/31 17:08:18.4	357.660	-0.450	0.290	-0.620
2020/01/31 17:08:18.5	357.650	-0.460	0.280	-0.620
2020/01/31 17:08:18.6	357.640	-0.470	0.260	-0.610
2020/01/31 17:08:18.7	357.630	-0.470	0.250	-0.610
2020/01/31 17:08:18.8	357.610	-0.480	0.240	-0.600
2020/01/31 17:08:18.9	357.590	-0.480	0.230	-0.590
2020/01/31 17:08:19.0	357.580	-0.480	0.210	-0.570
2020/01/31 17:08:19.1	357.570	-0.470	0.200	-0.560
2020/01/31 17:08:19.2	357.550	-0.470	0.180	-0.550
2020/01/31 17:08:19.3	357.540	-0.460	0.170	-0.530
2020/01/31 17:08:19.4	357.530	-0.450	0.150	-0.520
2020/01/31 17:08:19.5	357.510	-0.440	0.130	-0.500
2020/01/31 17:08:19.6	357.500	-0.430	0.110	-0.490
2020/01/31 17:08:19.7	357.490	-0.410	0.090	-0.470
2020/01/31 17:08:19.8	357.480	-0.390	0.070	-0.450
2020/01/31 17:08:19.9	357.470	-0.370	0.050	-0.440
2020/01/31 17:08:20.0	357.460	-0.350	0.020	-0.420
2020/01/31 17:08:20.1	357.450	-0.330	-0.000	-0.410
2020/01/31 17:08:20.2	357.450	-0.300	-0.030	-0.400
2020/01/31 17:08:20.3	357.440	-0.270	-0.060	-0.380
2020/01/31 17:08:20.4	357.430	-0.250	-0.090	-0.370
2020/01/31 17:08:20.5	357.430	-0.220	-0.120	-0.360
2020/01/31 17:08:20.6	357.430	-0.180	-0.150	-0.350
2020/01/31 17:08:20.7	357.430	-0.150	-0.190	-0.330
2020/01/31 17:08:20.8	357.440	-0.120	-0.220	-0.320
2020/01/31 17:08:20.9	357.440	-0.090	-0.250	-0.310
2020/01/31 17:08:21.0	357.440	-0.050	-0.290	-0.300
2020/01/31 17:08:21.1	357.450	-0.020	-0.320	-0.290
2020/01/31 17:08:21.2	357.460	0.010	-0.360	-0.290
2020/01/31 17:08:21.3	357.470	0.040	-0.390	-0.280
2020/01/31 17:08:21.4	357.480	0.070	-0.430	-0.280
2020/01/31 17:08:21.5	357.490	0.100	-0.470	-0.280
2020/01/31 17:08:21.6	357.500	0.130	-0.500	-0.280
2020/01/31 17:08:21.7	357.520	0.150	-0.540	-0.280
2020/01/31 17:08:21.8	357.550	0.180	-0.570	-0.280
2020/01/31 17:08:21.9	357.560	0.200	-0.610	-0.290
2020/01/31 17:08:22.0	357.580	0.210	-0.640	-0.300
2020/01/31 17:08:22.1	357.600	0.230	-0.670	-0.320
2020/01/31 17:08:22.2	357.620	0.240	-0.700	-0.340
2020/01/31 17:08:22.3	357.650	0.250	-0.730	-0.360
2020/01/31 17:08:22.4	357.670	0.260	-0.760	-0.390
2020/01/31 17:08:22.5	357.700	0.260	-0.780	-0.420
2020/01/31 17:08:22.6	357.720	0.260	-0.800	-0.450
2020/01/31 17:08:22.7	357.750	0.260	-0.820	-0.480
2020/01/31 17:08:22.8	357.790	0.250	-0.840	-0.520
2020/01/31 17:08:22.9	357.820	0.240	-0.850	-0.560
2020/01/31 17:08:23.0	357.840	0.220	-0.860	-0.600
2020/01/31 17:08:23.1	357.870	0.210	-0.860	-0.640
2020/01/31 17:08:23.2	357.900	0.190	-0.860	-0.680
2020/01/31 17:08:23.3	357.920	0.160	-0.860	-0.720
2020/01/31 17:08:23.4	357.950	0.140	-0.850	-0.760
2020/01/31 17:08:23.5	357.970	0.110	-0.840	-0.790
2020/01/31 17:08:23.6	358.000	0.080	-0.820	-0.830
2020/01/31 17:08:23.7	358.020	0.050	-0.800	-0.860
2020/01/31 17:08:23.8	358.040	0.020	-0.770	-0.890
2020/01/31 17:08:23.9	358.070	-0.010	-0.750	-0.910
2020/01/31 17:08:24.0	358.090	-0.040	-0.710	-0.930
2020/01/31 17:08:24.1	358.110	-0.080	-0.680	-0.950
2020/01/31 17:08:24.2	358.120	-0.110	-0.640	-0.960
2020/01/31 17:08:24.3	358.140	-0.140	-0.600	-0.970
2020/01/31 17:08:24.4	358.160	-0.170	-0.550	-0.970
2020/01/31 17:08:24.5	358.170	-0.200	-0.510	-0.970
2020/01/31 17:08:24.6	358.190	-0.230	-0.460	-0.970
2020/01/31 17:08:24.7	358.200	-0.260	-0.410	-0.960
2020/01/31 17:08:24.8	358.210	-0.280	-0.370	-0.950
2020/01/31 17:08:24.9	358.220	-0.300	-0.320	-0.930
2020/01/31 17:08:25.0	358.230	-0.320	-0.270	-0.920
2020/01/31 17:08:25.1	358.240	-0.340	-0.220	-0.900
2020/01/31 17:08:25.2	358.240	-0.350	-0.170	-0.880
2020/01/31 17:08:25.3	358.250	-0.360	-0.120	-0.850
2020/01/31 17:08:25.4	358.250	-0.370	-0.080	-0.820
2020/01/31 17:08:25.5	358.250	-0.370	-0.030	-0.800
2020/01/31 17:08:25.6	358.250	-0.370	0.010	-0.770
2020/01/31 17:08:25.7	358.240	-0.370	0.050	-0.730
2020/01/31 17:08:25.8	358.230	-0.360	0.100	-0.700
2020/01/31 17:08:25.9	358.220	-0.350	0.130	-0.660
2020/01/31 17:08:26.0	358.210	-0.340	0.160	-0.630
2020/01/31 17:08:26.1	358.200	-0.320	0.200	-0.590
2020/01/31 17:08:26.2	358.190	-0.300	0.220	-0.550
2020/01/31 17:08:26.3	358.170	-0.270	0.250	-0.510
2020/01/31 17:08:26.4	358.160	-0.240	0.270	-0.470
2020/01/31 17:08:26.5	358.140	-0.210	0.280	-0.430
2020/01/31 17:08:26.6	358.120	-0.180	0.290	-0.390
2020/01/31 17:08:26.7	358.100	-0.150	0.300	-0.340
2020/01/31 17:08:26.8	358.080	-0.110	0.300	-0.290
2020/01/31 17:08:26.9	358.060	-0.070	0.300	-0.250
2020/01/31 17:08:27.0	358.030	-0.030	0.300	-0.200
2020/01/31 17:08:27.1	358.000	0.020	0.290	-0.150
2020/01/31 17:08:27.2	357.980	0.060	0.270	-0.100
2020/01/31 17:08:27.3	357.940	0.110	0.260	-0.050
2020/01/31 17:08:27.4	357.910	0.150	0.230	-0.000
2020/01/31 17:08:27.5	357.880	0.200	0.210	0.050
2020/01/31 17:08:27.6	357.850	0.240	0.180	0.090
2020/01/31 17:08:27.7	357.820	0.290	0.140	0.140
2020/01/31 17:08:27.8	357.800	0.330	0.110	0.180
2020/01/31 17:08:27.9	357.770	0.380	0.060	0.220
2020/01/31 17:08:28.0	357.740	0.420	0.020	0.260
2020/01/31 17:08:28.1	357.710	0.460	-0.030	0.290
2020/01/31 17:08:28.2	357.690	0.500	-0.080	0.320
2020/01/31 17:08:28.3	357.670	0.540	-0.130	0.350
2020/01/31 17:08:28.4	357.640	0.580	-0.180	0.370
2020/01/31 17:08:28.5	357.620	0.610	-0.240	0.390
2020/01/31 17:08:28.6	357.610	0.650	-0.290	0.400
2020/01/31 17:08:28.7	357.590	0.670	-0.350	0.410
2020/01/31 17:08:28.8	357.580	0.700	-0.400	0.410
2020/01/31 17:08:28.9	357.570	0.730	-0.450	0.410
2020/01/31 17:08:29.0	357.560	0.750	-0.500	0.400
2020/01/31 17:08:29.1	357.560	0.760	-0.550	0.390
2020/01/31 17:08:29.2	357.560	0.780	-0.600	0.380
2020/01/31 17:08:29.3	357.560	0.790	-0.650	0.360
2020/01/31 17:08:29.4	357.570	0.790	-0.690	0.340
2020/01/31 17:08:29.5	357.570	0.800	-0.720	0.320
2020/01/31 17:08:29.6	357.580	0.790	-0.750	0.300
2020/01/31 17:08:29.7	357.590	0.790	-0.780	0.270
2020/01/31 17:08:29.8	357.610	0.770	-0.800	0.240
2020/01/31 17:08:29.9	357.620	0.760	-0.810	0.210
2020/01/31 17:08:30.0	357.630	0.730	-0.820	0.180
2020/01/31 17:08:30.1	357.640	0.710	-0.830	0.150
2020/01/31 17:08:30.2	357.650	0.680	-0.820	0.120
2020/01/31 17:08:30.3	357.650	0.640	-0.820	0.080
2020/01/31 17:08:30.4	357.660	0.600	-0.800	0.040
2020/01/31 17:08:30.5	357.670	0.550	-0.780	0.010
2020/01/31 17:08:30.6	357.670	0.500	-0.760	-0.030
2020/01/31 17:08:30.7	357.680	0.450	-0.730	-0.070
2020/01/31 17:08:30.8	357.690	0.390	-0.700	-0.110
2020/01/31 17:08:30.9	357.690	0.330	-0.660	-0.150
2020/01/31 17:08:31.0	357.700	0.270	-0.630	-0.190
2020/01/31 17:08:31.1	357.700	0.200	-0.590	-0.230
2020/01/31 17:08:31.2	357.710	0.130	-0.540	-0.280
2020/01/31 17:08:31.3	357.720	0.060	-0.500	-0.320
2020/01/31 17:08:31.4	357.730	-0.000	-0.450	-0.360
2020/01/31 17:08:31.5	357.740	-0.070	-0.410	-0.410
2020/01/31 17:08:31.6	357.750	-0.140	-0.360	-0.450
2020/01/31 17:08:31.7	357.760	-0.210	-0.320	-0.500
2020/01/31 17:08:31.8	357.780	-0.270	-0.270	-0.550
2020/01/31 17:08:31.9	357.800	-0.340	-0.230	-0.590
2020/01/31 17:08:32.0	357.810	-0.400	-0.190	-0.640
2020/01/31 17:08:32.1	357.830	-0.450	-0.150	-0.680
2020/01/31 17:08:32.2	357.860	-0.510	-0.120	-0.730
2020/01/31 17:08:32.3	357.880	-0.560	-0.090	-0.770
2020/01/31 17:08:32.4	357.900	-0.600	-0.060	-0.810
2020/01/31 17:08:32.5	357.930	-0.640	-0.030	-0.850
2020/01/31 17:08:32.6	357.950	-0.680	-0.000	-0.890
2020/01/31 17:08:32.7	357.980	-0.710	0.020	-0.930
2020/01/31 17:08:32.8	357.990	-0.730	0.040	-0.970
2020/01/31 17:08:32.9	358.010	-0.750	0.050	-1.000
2020/01/31 17:08:33.0	358.040	-0.760	0.070	-1.020
2020/01/31 17:08:33.1	358.060	-0.770	0.080	-1.050
2020/01/31 17:08:33.2	358.090	-0.770	0.090	-1.070
2020/01/31 17:08:33.3	358.110	-0.770	0.100	-1.090
2020/01/31 17:08:33.4	358.140	-0.760	0.100	-1.100
2020/01/31 17:08:33.5	358.160	-0.740	0.100	-1.110
2020/01/31 17:08:33.6	358.180	-0.720	0.110	-1.110
2020/01/31 17:08:33.7	358.200	-0.700	0.110	-1.120
2020/01/31 17:08:33.8	358.210	-0.670	0.100	-1.120
2020/01/31 17:08:33.9	358.230	-0.640	0.100	-1.110
2020/01/31 17:08:34.0	358.250	-0.610	0.090	-1.110
2020/01/31 17:08:34.1	358.270	-0.580	0.090	-1.100
2020/01/31 17:08:34.2	358.280	-0.540	0.080	-1.080
2020/01/31 17:08:34.3	358.300	-0.500	0.070	-1.070
2020/01/31 17:08:34.4	358.310	-0.470	0.060	-1.050
2020/01/31 17:08:34.5	358.330	-0.430	0.050	-1.030
2020/01/31 17:08:34.6	358.340	-0.390	0.040	-1.010
2020/01/31 17:08:34.7	358.340	-0.350	0.030	-0.980
2020/01/31 17:08:34.8	358.320	-0.310	0.010	-0.950
2020/01/31 17:08:34.9	358.320	-0.280	0.000	-0.920
2020/01/31 17:08:35.0	358.320	-0.240	-0.010	-0.890
2020/01/31 17:08:35.1	358.320	-0.210	-0.030	-0.850
2020/01/31 17:08:35.2	358.320	-0.180	-0.040	-0.820
2020/01/31 17:08:35.3	358.310	-0.150	-0.060	-0.780
2020/01/31 17:08:35.4	358.290	-0.130	-0.070	-0.740
2020/01/31 17:08:35.5	358.280	-0.100	-0.090	-0.690
2020/01/31 17:08:35.6	358.260	-0.080	-0.100	-0.650
2020/01/31 17:08:35.7	358.240	-0.070	-0.120	-0.610
2020/01/31 17:08:35.8	358.230	-0.050	-0.130	-0.570
2020/01/31 17:08:35.9	358.210	-0.040	-0.140	-0.530
2020/01/31 17:08:36.0	358.180	-0.030	-0.160	-0.490
2020/01/31 17:08:36.1	358.160	-0.020	-0.170	-0.450
2020/01/31 17:08:36.2	358.130	-0.020	-0.190	-0.410
2020/01/31 17:08:36.3	358.110	-0.010	-0.210	-0.380
2020/01/31 17:08:36.4	358.080	-0.010	-0.220	-0.340
2020/01/31 17:08:36.5	358.050	-0.010	-0.240	-0.310
2020/01/31 17:08:36.6	358.020	-0.000	-0.260	-0.280
2020/01/31 17:08:36.7	358.000	-0.000	-0.280	-0.250
2020/01/31 17:08:36.8	357.970	-0.000	-0.290	-0.220
2020/01/31 17:08:36.9	357.940	-0.000	-0.310	-0.200
2020/01/31 17:08:37.0	357.920	0.000	-0.330	-0.180
2020/01/31 17:08:37.1	357.890	0.000	-0.350	-0.160
2020/01/31 17:08:37.2	357.870	0.010	-0.370	-0.140
2020/01/31 17:08:37.3	357.850	0.010	-0.390	-0.120
2020/01/31 17:08:37.4	357.820	0.020	-0.410	-0.110
2020/01/31 17:08:37.5	357.800	0.030	-0.430	-0.090
2020/01/31 17:08:37.6	357.780	0.040	-0.460	-0.080
2020/01/31 17:08:37.7	357.760	0.050	-0.480	-0.070
2020/01/31 17:08:37.8	357.760	0.060	-0.500	-0.060
2020/01/31 17:08:37.9	357.730	0.080	-0.520	-0.050
2020/01/31 17:08:38.0	357.710	0.090	-0.540	-0.040
2020/01/31 17:08:38.1	357.690	0.110	-0.550	-0.030
2020/01/31 17:08:38.2	357.670	0.130	-0.570	-0.030
2020/01/31 17:08:38.3	357.650	0.140	-0.580	-0.020
2020/01/31 17:08:38.4	357.630	0.160	-0.590	-0.020
2020/01/31 17:08:38.5	357.600	0.170	-0.590	-0.020
2020/01/31 17:08:38.6	357.580	0.190	-0.600	-0.020
2020/01/31 17:08:38.7	357.560	0.200	-0.600	-0.020
2020/01/31 17:08:38.8	357.540	0.220	-0.590	-0.020
2020/01/31 17:08:38.9	357.520	0.230	-0.590	-0.030
2020/01/31 17:08:39.0	357.500	0.240	-0.580	-0.030
2020/01/31 17:08:39.1	357.480	0.250	-0.570	-0.040
2020/01/31 17:08:39.2	357.460	0.250	-0.550	-0.050
2020/01/31 17:08:39.3	357.450	0.260	-0.530	-0.060
2020/01/31 17:08:39.4	357.430	0.270	-0.510	-0.070
2020/01/31 17:08:39.5	357.410	0.270	-0.490	-0.080
2020/01/31 17:08:39.6	357.400	0.270	-0.460	-0.100
2020/01/31 17:08:39.7	357.390	0.270	-0.430	-0.110
2020/01/31 17:08:39.8	357.380	0.270	-0.410	-0.120
2020/01/31 17:08:39.9	357.370	0.260	-0.380	-0.140
2020/01/31 17:08:40.0	357.360	0.260	-0.350	-0.150
2020/01/31 17:08:40.1	357.360	0.250	-0.320	-0.170
2020/01/31 17:08:40.2	357.350	0.240	-0.280	-0.190
2020/01/31 17:08:40.3	357.350	0.240	-0.250	-0.210
2020/01/31 17:08:40.4	357.350	0.230	-0.220	-0.220
2020/01/31 17:08:40.5	357.350	0.220	-0.190	-0.240
2020/01/31 17:08:40.6	357.350	0.210	-0.160	-0.260
2020/01/31 17:08:40.7	357.360	0.200	-0.130	-0.280
2020/01/31 17:08:40.8	357.370	0.190	-0.100	-0.290
2020/01/31 17:08:40.9	357.380	0.180	-0.080	-0.310
2020/01/31 17:08:41.0	357.390	0.170	-0.050	-0.330
2020/01/31 17:08:41.1	357.400	0.160	-0.030	-0.350
2020/01/31 17:08:41.2	357.410	0.160	-0.010	-0.370
2020/01/31 17:08:41.3	357.420	0.150	0.000	-0.380
2020/01/31 17:08:41.4	357.440	0.150	0.020	-0.400
2020/01/31 17:08:41.5	357.460	0.140	0.020	-0.430
2020/01/31 17:08:41.6	357.470	0.140	0.030	-0.450
2020/01/31 17:08:41.7	357.500	0.140	0.030	-0.470
2020/01/31 17:08:41.8	357.520	0.140	0.030	-0.500
2020/01/31 17:08:41.9	357.540	0.140	0.020	-0.520
2020/01/31 17:08:42.0	357.570	0.150	0.010	-0.550
2020/01/31 17:08:42.1	357.600	0.150	-0.000	-0.570
2020/01/31 17:08:42.2	357.620	0.150	-0.020	-0.590
2020/01/31 17:08:42.3	357.650	0.160	-0.040	-0.620
2020/01/31 17:08:42.4	357.680	0.170	-0.060	-0.640
2020/01/31 17:08:42.5	357.700	0.170	-0.080	-0.670
2020/01/31 17:08:42.6	357.730	0.180	-0.110	-0.690
2020/01/31 17:08:42.7	357.750	0.180	-0.140	-0.710
2020/01/31 17:08:42.8	357.780	0.190	-0.160	-0.720
2020/01/31 17:08:42.9	357.800	0.200	-0.190	-0.740
2020/01/31 17:08:43.0	357.820	0.200	-0.220	-0.760
2020/01/31 17:08:43.1	357.830	0.210	-0.250	-0.770
2020/01/31 17:08:43.2	357.850	0.210	-0.280	-0.780
2020/01/31 17:08:43.3	357.860	0.210	-0.300	-0.800
2020/01/31 17:08:43.4	357.870	0.210	-0.330	-0.800
2020/01/31 17:08:43.5	357.880	0.210	-0.350	-0.810
2020/01/31 17:08:43.6	357.890	0.200	-0.370	-0.820
2020/01/31 17:08:43.7	357.890	0.200	-0.390	-0.820
2020/01/31 17:08:43.8	357.890	0.190	-0.400	-0.820
2020/01/31 17:08:43.9	357.890	0.180	-0.410	-0.810
2020/01/31 17:08:44.0	357.890	0.170	-0.420	-0.810
2020/01/31 17:08:44.1	357.890	0.160	-0.420	-0.800
2020/01/31 17:08:44.2	357.890	0.150	-0.420	-0.790
2020/01/31 17:08:44.3	357.880	0.130	-0.420	-0.780
2020/01/31 17:08:44.4	357.880	0.120	-0.420	-0.760
2020/01/31 17:08:44.5	357.870	0.100	-0.410	-0.740
2020/01/31 17:08:44.6	357.860	0.080	-0.400	-0.720
2020/01/31 17:08:44.7	357.860	0.060	-0.390	-0.700
2020/01/31 17:08:44.8	357.850	0.040	-0.370	-0.680
2020/01/31 17:08:44.9	357.840	0.020	-0.360	-0.650
2020/01/31 17:08:45.0	357.830	-0.010	-0.340	-0.630
2020/01/31 17:08:45.1	357.820	-0.030	-0.330	-0.600
2020/01/31 17:08:45.2	357.810	-0.050	-0.310	-0.580
2020/01/31 17:08:45.3	357.800	-0.080	-0.300	-0.550
2020/01/31 17:08:45.4	357.790	-0.100	-0.280	-0.520
2020/01/31 17:08:45.5	357.780	-0.120	-0.270	-0.500
2020/01/31 17:08:45.6	357.760	-0.140	-0.260	-0.470
2020/01/31 17:08:45.7	357.750	-0.170	-0.240	-0.450
2020/01/31 17:08:45.8	357.730	-0.190	-0.230	-0.420
2020/01/31 17:08:45.9	357.710	-0.210	-0.220	-0.390
2020/01/31 17:08:46.0	357.690	-0.230	-0.210	-0.370
2020/01/31 17:08:46.1	357.680	-0.250	-0.200	-0.350
2020/01/31 17:08:46.2	357.660	-0.260	-0.200	-0.330
2020/01/31 17:08:46.3	357.640	-0.280	-0.190	-0.310
2020/01/31 17:08:46.4	357.630	-0.290	-0.190	-0.290
2020/01/31 17:08:46.5	357.610	-0.300	-0.180	-0.280
2020/01/31 17:08:46.6	357.590	-0.310	-0.180	-0.260
2020/01/31 17:08:46.7	357.570	-0.320	-0.180	-0.250
2020/01/31 17:08:46.8	357.560	-0.330	-0.180	-0.240
2020/01/31 17:08:46.9	357.540	-0.330	-0.180	-0.230
2020/01/31 17:08:47.0	357.520	-0.330	-0.180	-0.220
2020/01/31 17:08:47.1	357.510	-0.330	-0.180	-0.210
2020/01/31 17:08:47.2	357.490	-0.330	-0.180	-0.200
2020/01/31 17:08:47.3	357.470	-0.330	-0.190	-0.200
2020/01/31 17:08:47.4	357.450	-0.330	-0.190	-0.190
2020/01/31 17:08:47.5	357.440	-0.320	-0.190	-0.180
2020/01/31 17:08:47.6	357.420	-0.320	-0.190	-0.180
2020/01/31 17:08:47.7	357.400	-0.310	-0.190	-0.170
2020/01/31 17:08:47.8	357.380	-0.300	-0.190	-0.170
2020/01/31 17:08:47.9	357.360	-0.290	-0.190	-0.160
2020/01/31 17:08:48.0	357.340	-0.280	-0.190	-0.160
2020/01/31 17:08:48.1	357.320	-0.270	-0.190	-0.150
2020/01/31 17:08:48.2	357.300	-0.260	-0.190	-0.150
2020/01/31 17:08:48.3	357.290	-0.250	-0.190	-0.140
2020/01/31 17:08:48.4	357.270	-0.240	-0.180	-0.140
2020/01/31 17:08:48.5	357.250	-0.230	-0.180	-0.130
2020/01/31 17:08:48.6	357.230	-0.220	-0.180	-0.120
2020/01/31 17:08:48.7	357.220	-0.210	-0.180	-0.120
2020/01/31 17:08:48.8	357.220	-0.200	-0.180	-0.110
2020/01/31 17:08:48.9	357.210	-0.200	-0.180	-0.110
2020/01/31 17:08:49.0	357.200	-0.190	-0.180	-0.110
2020/01/31 17:08:49.1	357.200	-0.180	-0.190	-0.110
2020/01/31 17:08:49.2	357.200	-0.170	-0.190	-0.110
2020/01/31 17:08:49.3	357.200	-0.160	-0.200	-0.120
2020/01/31 17:08:49.4	357.210	-0.150	-0.210	-0.130
2020/01/31 17:08:49.5	357.220	-0.150	-0.230	-0.140
2020/01/31 17:08:49.6	357.230	-0.140	-0.240	-0.150
2020/01/31 17:08:49.7	357.250	-0.130	-0.260	-0.170
2020/01/31 17:08:49.8	357.280	-0.120	-0.280	-0.190
2020/01/31 17:08:49.9	357.310	-0.110	-0.300	-0.210
2020/01/31 17:08:50.0	357.330	-0.090	-0.330	-0.240
2020/01/31 17:08:50.1	357.370	-0.080	-0.360	-0.270
2020/01/31 17:08:50.2	357.400	-0.070	-0.390	-0.300
2020/01/31 17:08:50.3	357.440	-0.050	-0.420	-0.340
2020/01/31 17:08:50.4	357.480	-0.040	-0.450	-0.370
2020/01/31 17:08:50.5	357.520	-0.020	-0.480	-0.400
2020/01/31 17:08:50.6	357.560	-0.010	-0.510	-0.440
2020/01/31 17:08:50.7	357.600	0.010	-0.540	-0.470
2020/01/31 17:08:50.8	357.650	0.030	-0.560	-0.500
2020/01/31 17:08:50.9	357.700	0.050	-0.580	-0.530
2020/01/31 17:08:51.0	357.740	0.060	-0.600	-0.560
2020/01/31 17:08:51.1	357.780	0.080	-0.620	-0.580
2020/01/31 17:08:51.2	357.820	0.100	-0.630	-0.610
2020/01/31 17:08:51.3	357.860	0.120	-0.640	-0.630
2020/01/31 17:08:51.4	357.890	0.130	-0.640	-0.640
2020/01/31 17:08:51.5	357.930	0.150	-0.640	-0.660
2020/01/31 17:08:51.6	357.960	0.160	-0.630	-0.670
2020/01/31 17:08:51.7	357.990	0.180	-0.620	-0.680
2020/01/31 17:08:51.8	358.000	0.190	-0.600	-0.680
2020/01/31 17:08:51.9	358.030	0.200	-0.580	-0.690
2020/01/31 17:08:52.0	358.050	0.220	-0.560	-0.690
2020/01/31 17:08:52.1	358.070	0.230	-0.530	-0.680
2020/01/31 17:08:52.2	358.080	0.230	-0.490	-0.680
2020/01/31 17:08:52.3	358.090	0.240	-0.450	-0.660
2020/01/31 17:08:52.4	358.100	0.250	-0.410	-0.650
2020/01/31 17:08:52.5	358.110	0.250	-0.370	-0.630
2020/01/31 17:08:52.6	358.100	0.250	-0.320	-0.600
2020/01/31 17:08:52.7	358.100	0.260	-0.270	-0.570
2020/01/31 17:08:52.8	358.100	0.260	-0.220	-0.540
2020/01/31 17:08:52.9	358.090	0.260	-0.170	-0.510
2020/01/31 17:08:53.0	358.070	0.250	-0.120	-0.470
2020/01/31 17:08:53.1	358.050	0.250	-0.070	-0.420
2020/01/31 17:08:53.2	358.020	0.240	-0.020	-0.380
2020/01/31 17:08:53.3	357.990	0.240	0.020	-0.330
2020/01/31 17:08:53.4	357.970	0.230	0.070	-0.290
2020/01/31 17:08:53.5	357.930	0.220	0.110	-0.240
2020/01/31 17:08:53.6	357.900	0.210	0.150	-0.200
2020/01/31 17:08:53.7	357.870	0.210	0.190	-0.150
2020/01/31 17:08:53.8	357.830	0.200	0.220	-0.100
2020/01/31 17:08:53.9	357.800	0.190	0.250	-0.060
2020/01/31 17:08:54.0	357.760	0.180	0.270	-0.030
2020/01/31 17:08:54.1	357.720	0.170	0.290	0.000
2020/01/31 17:08:54.2	357.690	0.160	0.310	0.030
2020/01/31 17:08:54.3	357.650	0.150	0.320	0.060
2020/01/31 17:08:54.4	357.620	0.140	0.320	0.080
2020/01/31 17:08:54.5	357.590	0.130	0.320	0.090
2020/01/31 17:08:54.6	357.560	0.130	0.320	0.100
2020/01/31 17:08:54.7	357.530	0.120	0.310	0.110
2020/01/31 17:08:54.8	357.520	0.110	0.290	0.110
2020/01/31 17:08:54.9	357.490	0.110	0.280	0.110
2020/01/31 17:08:55.0	357.460	0.100	0.260	0.110
2020/01/31 17:08:55.1	357.440	0.100	0.230	0.110
2020/01/31 17:08:55.2	357.410	0.090	0.200	0.100
2020/01/31 17:08:55.3	357.380	0.090	0.170	0.090
2020/01/31 17:08:55.4	357.360	0.090	0.140	0.070
2020/01/31 17:08:55.5	357.330	0.080	0.110	0.060
2020/01/31 17:08:55.6	357.310	0.080	0.080	0.040
2020/01/31 17:08:55.7	357.280	0.080	0.040	0.030
2020/01/31 17:08:55.8	357.260	0.080	0.010	0.020
2020/01/31 17:08:55.9	357.240	0.070	-0.030	-0.000
2020/01/31 17:08:56.0	357.210	0.070	-0.060	-0.020
2020/01/31 17:08:56.1	357.190	0.060	-0.100	-0.040
2020/01/31 17:08:56.2	357.170	0.060	-0.130	-0.060
2020/01/31 17:08:56.3	357.150	0.050	-0.160	-0.080
2020/01/31 17:08:56.4	357.140	0.050	-0.190	-0.100
2020/01/31 17:08:56.5	357.120	0.040	-0.220	-0.130
2020/01/31 17:08:56.6	357.110	0.030	-0.250	-0.150
2020/01/31 17:08:56.7	357.100	0.020	-0.280	-0.180
2020/01/31 17:08:56.8	357.070	0.020	-0.300	-0.210
2020/01/31 17:08:56.9	357.060	0.010	-0.320	-0.240
2020/01/31 17:08:57.0	357.060	-0.000	-0.350	-0.280
2020/01/31 17:08:57.1	357.070	-0.010	-0.370	-0.310
2020/01/31 17:08:57.2	357.070	-0.020	-0.390	-0.350
2020/01/31 17:08:57.3	357.080	-0.040	-0.410	-0.390
2020/01/31 17:08:57.4	357.090	-0.050	-0.430	-0.440
2020/01/31 17:08:57.5	357.110	-0.060	-0.450	-0.480
2020/01/31 17:08:57.6	357.130	-0.070	-0.460	-0.520
2020/01/31 17:08:57.7	357.150	-0.080	-0.480	-0.570
2020/01/31 17:08:57.8	357.160	-0.090	-0.500	-0.610
2020/01/31 17:08:57.9	357.180	-0.100	-0.510	-0.660
2020/01/31 17:08:58.0	357.210	-0.110	-0.520	-0.700
2020/01/31 17:08:58.1	357.240	-0.120	-0.540	-0.750
2020/01/31 17:08:58.2	357.280	-0.130	-0.550	-0.790
2020/01/31 17:08:58.3	357.310	-0.140	-0.560	-0.830
2020/01/31 17:08:58.4	357.340	-0.150	-0.580	-0.870
2020/01/31 17:08:58.5	357.380	-0.160	-0.590	-0.900
2020/01/31 17:08:58.6	357.420	-0.170	-0.600	-0.930
2020/01/31 17:08:58.7	357.450	-0.170	-0.610	-0.960
2020/01/31 17:08:58.8	357.480	-0.180	-0.620	-0.980
2020/01/31 17:08:58.9	357.520	-0.190	-0.630	-1.000
2020/01/31 17:08:59.0	357.550	-0.190	-0.640	-1.020
2020/01/31 17:08:59.1	357.590	-0.200	-0.650	-1.030
2020/01/31 17:08:59.2	357.620	-0.210	-0.650	-1.040
2020/01/31 17:08:59.3	357.650	-0.210	-0.660	-1.050
2020/01/31 17:08:59.4	357.680	-0.220	-0.670	-1.060
2020/01/31 17:08:59.5	357.710	-0.220	-0.680	-1.060
2020/01/31 17:08:59.6	357.740	-0.230	-0.680	-1.060
2020/01/31 17:08:59.7	357.770	-0.230	-0.690	-1.060
2020/01/31 17:08:59.8	357.790	-0.230	-0.700	-1.050
2020/01/31 17:08:59.9	357.820	-0.240	-0.700	-1.040
2020/01/31 17:09:00.0	357.850	-0.240	-0.710	-1.040
2020/01/31 17:09:00.1	357.870	-0.240	-0.720	-1.030
2020/01/31 17:09:00.2	357.900	-0.240	-0.720	-1.030
2020/01/31 17:09:00.3	357.920	-0.240	-0.720	-1.020
2020/01/31 17:09:00.4	357.950	-0.240	-0.730	-1.010
2020/01/31 17:09:00.5	357.970	-0.240	-0.730	-1.000
2020/01/31 17:09:00.6	358.000	-0.240	-0.730	-0.990
2020/01/31 17:09:00.7	358.020	-0.230	-0.730	-0.980
2020/01/31 17:09:00.8	358.050	-0.230	-0.720	-0.960
2020/01/31 17:09:00.9	358.070	-0.220	-0.710	-0.940
2020/01/31 17:09:01.0	358.090	-0.210	-0.710	-0.930
2020/01/31 17:09:01.1	358.110	-0.200	-0.690	-0.910
2020/01/31 17:09:01.2	358.120	-0.190	-0.680	-0.880
2020/01/31 17:09:01.3	358.130	-0.180	-0.660	-0.860
2020/01/31 17:09:01.4	358.140	-0.170	-0.640	-0.830
2020/01/31 17:09:01.5	358.150	-0.150	-0.610	-0.800
2020/01/31 17:09:01.6	358.150	-0.140	-0.580	-0.770
2020/01/31 17:09:01.7	358.160	-0.120	-0.550	-0.740
2020/01/31 17:09:01.8	358.160	-0.110	-0.520	-0.700
2020/01/31 17:09:01.9	358.150	-0.090	-0.480	-0.670
2020/01/31 17:09:02.0	358.150	-0.080	-0.440	-0.630
2020/01/31 17:09:02.1	358.140	-0.060	-0.400	-0.600
2020/01/31 17:09:02.2	358.130	-0.040	-0.360	-0.560
2020/01/31 17:09:02.3	358.120	-0.030	-0.310	-0.530
2020/01/31 17:09:02.4	358.110	-0.010	-0.270	-0.490
2020/01/31 17:09:02.5	358.100	0.000	-0.220	-0.460
2020/01/31 17:09:02.6	358.080	0.020	-0.170	-0.420
2020/01/31 17:09:02.7	358.070	0.030	-0.120	-0.380
2020/01/31 17:09:02.8	358.060	0.050	-0.070	-0.350
2020/01/31 17:09:02.9	358.040	0.060	-0.020	-0.310
2020/01/31 17:09:03.0	358.020	0.070	0.020	-0.280
2020/01/31 17:09:03.1	358.000	0.080	0.070	-0.240
2020/01/31 17:09:03.2	357.970	0.090	0.120	-0.200
2020/01/31 17:09:03.3	357.950	0.100	0.160	-0.170
2020/01/31 17:09:03.4	357.920	0.110	0.210	-0.140
2020/01/31 17:09:03.5	357.900	0.120	0.250	-0.100
2020/01/31 17:09:03.6	357.870	0.130	0.290	-0.070
2020/01/31 17:09:03.7	357.840	0.130	0.330	-0.030
2020/01/31 17:09:03.8	357.820	0.140	0.370	0.010
2020/01/31 17:09:03.9	357.790	0.150	0.400	0.040
2020/01/31 17:09:04.0	357.760	0.150	0.430	0.070
2020/01/31 17:09:04.1	357.720	0.160	0.460	0.110
2020/01/31 17:09:04.2	357.690	0.160	0.480	0.140
2020/01/31 17:09:04.3	357.660	0.170	0.500	0.180
2020/01/31 17:09:04.4	357.630	0.170	0.510	0.210
2020/01/31 17:09:04.5	357.600	0.180	0.520	0.240
2020/01/31 17:09:04.6	357.560	0.180	0.520	0.270
2020/01/31 17:09:04.7	357.540	0.190	0.520	0.300
2020/01/31 17:09:04.8	357.500	0.190	0.510	0.330
2020/01/31 17:09:04.9	357.480	0.200	0.500	0.350
2020/01/31 17:09:05.0	357.450	0.200	0.480	0.370
2020/01/31 17:09:05.1	357.430	0.210	0.460	0.390
2020/01/31 17:09:05.2	357.400	0.210	0.430	0.400
2020/01/31 17:09:05.3	357.380	0.210	0.400	0.410
2020/01/31 17:09:05.4	357.360	0.220	0.360	0.420
2020/01/31 17:09:05.5	357.340	0.220	0.320	0.410
2020/01/31 17:09:05.6	357.320	0.220	0.270	0.410
2020/01/31 17:09:05.7	357.300	0.220	0.230	0.400
2020/01/31 17:09:05.8	357.290	0.220	0.180	0.390
2020/01/31 17:09:05.9	357.280	0.210	0.130	0.370
2020/01/31 17:09:06.0	357.260	0.210	0.070	0.340
2020/01/31 17:09:06.1	357.250	0.200	0.010	0.320
2020/01/31 17:09:06.2	357.240	0.200	-0.040	0.280
2020/01/31 17:09:06.3	357.230	0.190	-0.100	0.250
2020/01/31 17:09:06.4	357.220	0.180	-0.160	0.210
2020/01/31 17:09:06.5	357.210	0.170	-0.210	0.170
2020/01/31 17:09:06.6	357.200	0.160	-0.260	0.130
2020/01/31 17:09:06.7	357.200	0.150	-0.310	0.090
2020/01/31 17:09:06.8	357.190	0.140	-0.360	0.050
2020/01/31 17:09:06.9	357.190	0.120	-0.410	0.010
2020/01/31 17:09:07.0	357.190	0.110	-0.450	-0.030
2020/01/31 17:09:07.1	357.180	0.090	-0.480	-0.080
2020/01/31 17:09:07.2	357.180	0.080	-0.520	-0.120
2020/01/31 17:09:07.3	357.180	0.060	-0.540	-0.160
2020/01/31 17:09:07.4	357.180	0.050	-0.570	-0.200
2020/01/31 17:09:07.5	357.180	0.030	-0.580	-0.230
2020/01/31 17:09:07.6	357.180	0.010	-0.600	-0.270
2020/01/31 17:09:07.7	357.180	-0.000	-0.610	-0.310
2020/01/31 17:09:07.8	357.170	-0.020	-0.610	-0.350
2020/01/31 17:09:07.9	357.180	-0.040	-0.610	-0.380
2020/01/31 17:09:08.0	357.180	-0.050	-0.610	-0.420
2020/01/31 17:09:08.1	357.180	-0.070	-0.600	-0.450
2020/01/31 17:09:08.2	357.190	-0.080	-0.590	-0.490
2020/01/31 17:09:08.3	357.200	-0.090	-0.580	-0.520
2020/01/31 17:09:08.4	357.210	-0.110	-0.570	-0.550
2020/01/31 17:09:08.5	357.210	-0.120	-0.560	-0.590
2020/01/31 17:09:08.6	357.230	-0.120	-0.540	-0.620
2020/01/31 17:09:08.7	357.240	-0.130	-0.530	-0.650
2020/01/31 17:09:08.8	357.240	-0.130	-0.510	-0.690
2020/01/31 17:09:08.9	357.250	-0.140	-0.500	-0.720
2020/01/31 17:09:09.0	357.270	-0.140	-0.490	-0.750
2020/01/31 17:09:09.1	357.290	-0.130	-0.480	-0.780
2020/01/31 17:09:09.2	357.320	-0.130	-0.480	-0.810
2020/01/31 17:09:09.3	357.340	-0.130	-0.470	-0.830
2020/01/31 17:09:09.4	357.370	-0.120	-0.470	-0.860
2020/01/31 17:09:09.5	357.390	-0.110	-0.470	-0.890
2020/01/31 17:09:09.6	357.420	-0.100	-0.470	-0.910
2020/01/31 17:09:09.7	357.450	-0.090	-0.480	-0.930
2020/01/31 17:09:09.8	357.480	-0.080	-0.480	-0.950
2020/01/31 17:09:09.9	357.510	-0.060	-0.490	-0.970
2020/01/31 17:09:10.0	357.540	-0.050	-0.500	-0.990
2020/01/31 17:09:10.1	357.580	-0.040	-0.510	-1.000
2020/01/31 17:09:10.2	357.610	-0.030	-0.530	-1.010
2020/01/31 17:09:10.3	357.640	-0.020	-0.540	-1.030
2020/01/31 17:09:10.4	357.670	-0.010	-0.550	-1.030
2020/01/31 17:09:10.5	357.710	0.000	-0.570	-1.040
2020/01/31 17:09:10.6	357.740	0.010	-0.580	-1.040
2020/01/31 17:09:10.7	357.770	0.010	-0.590	-1.050
2020/01/31 17:09:10.8	357.800	0.010	-0.600	-1.040
2020/01/31 17:09:10.9	357.830	0.010	-0.620	-1.040
2020/01/31 17:09:11.0	357.860	0.010	-0.620	-1.030
2020/01/31 17:09:11.1	357.880	0.010	-0.630	-1.020
2020/01/31 17:09:11.2	357.900	-0.000	-0.640	-1.000
2020/01/31 17:09:11.3	357.930	-0.010	-0.640	-0.980
2020/01/31 17:09:11.4	357.940	-0.020	-0.640	-0.960
2020/01/31 17:09:11.5	357.960	-0.030	-0.640	-0.940
2020/01/31 17:09:11.6	357.980	-0.050	-0.630	-0.910
2020/01/31 17:09:11.7	357.990	-0.070	-0.630	-0.880
2020/01/31 17:09:11.8	358.010	-0.090	-0.620	-0.850
2020/01/31 17:09:11.9	358.020	-0.110	-0.600	-0.810
2020/01/31 17:09:12.0	358.030	-0.130	-0.590	-0.780
2020/01/31 17:09:12.1	358.040	-0.150	-0.570	-0.740
2020/01/31 17:09:12.2	358.040	-0.180	-0.540	-0.710
2020/01/31 17:09:12.3	358.050	-0.200	-0.520	-0.670
2020/01/31 17:09:12.4	358.060	-0.220	-0.490	-0.630
2020/01/31 17:09:12.5	358.070	-0.250	-0.470	-0.590
2020/01/31 17:09:12.6	358.070	-0.270	-0.440	-0.550
2020/01/31 17:09:12.7	358.080	-0.290	-0.400	-0.500
2020/01/31 17:09:12.8	358.090	-0.310	-0.370	-0.460
2020/01/31 17:09:12.9	358.090	-0.330	-0.340	-0.420
2020/01/31 17:09:13.0	358.090	-0.350	-0.300	-0.380
2020/01/31 17:09:13.1	358.090	-0.360	-0.270	-0.340
2020/01/31 17:09:13.2	358.090	-0.370	-0.230	-0.300
2020/01/31 17:09:13.3	358.080	-0.380	-0.200	-0.260
2020/01/31 17:09:13.4	358.080	-0.390	-0.170	-0.220
2020/01/31 17:09:13.5	358.070	-0.400	-0.140	-0.180
2020/01/31 17:09:13.6	358.070	-0.400	-0.110	-0.150
2020/01/31 17:09:13.7	358.060	-0.400	-0.080	-0.110
2020/01/31 17:09:13.8	358.060	-0.390	-0.060	-0.070
2020/01/31 17:09:13.9	358.050	-0.380	-0.030	-0.040
2020/01/31 17:09:14.0	358.040	-0.370	-0.010	-0.010
2020/01/31 17:09:14.1	358.030	-0.360	0.010	0.020
2020/01/31 17:09:14.2	358.010	-0.340	0.030	0.050
2020/01/31 17:09:14.3	358.000	-0.320	0.040	0.070
2020/01/31 17:09:14.4	357.980	-0.300	0.050	0.100
2020/01/31 17:09:14.5	357.970	-0.270	0.060	0.120
2020/01/31 17:09:14.6	357.950	-0.250	0.070	0.140
2020/01/31 17:09:14.7	357.940	-0.220	0.070	0.150
2020/01/31 17:09:14.8	357.920	-0.190	0.080	0.170
2020/01/31 17:09:14.9	357.900	-0.160	0.080	0.180
2020/01/31 17:09:15.0	357.890	-0.130	0.080	0.180
2020/01/31 17:09:15.1	357.870	-0.100	0.070	0.180
2020/01/31 17:09:15.2	357.860	-0.070	0.070	0.180
2020/01/31 17:09:15.3	357.840	-0.030	0.060	0.180
2020/01/31 17:09:15.4	357.830	-0.000	0.060	0.170
2020/01/31 17:09:15.5	357.820	0.030	0.050	0.160
2020/01/31 17:09:15.6	357.800	0.060	0.040	0.150
2020/01/31 17:09:15.7	357.790	0.090	0.040	0.130
2020/01/31 17:09:15.8	357.780	0.120	0.030	0.110
2020/01/31 17:09:15.9	357.770	0.140	0.020	0.100
2020/01/31 17:09:16.0	357.760	0.170	0.020	0.080
2020/01/31 17:09:16.1	357.750	0.190	0.010	0.060
2020/01/31 17:09:16.2	357.740	0.210	0.000	0.040
2020/01/31 17:09:16.3	357.740	0.230	-0.000	0.030
2020/01/31 17:09:16.4	357.730	0.240	-0.000	0.010
2020/01/31 17:09:16.5	357.720	0.250	-0.000	0.000
2020/01/31 17:09:16.6	357.710	0.270	-0.000	-0.010
2020/01/31 17:09:16.7	357.690	0.270	0.000	-0.010
2020/01/31 17:09:16.8	357.670	0.280	0.010	-0.020
2020/01/31 17:09:16.9	357.660	0.280	0.010	-0.020
2020/01/31 17:09:17.0	357.640	0.280	0.020	-0.020
2020/01/31 17:09:17.1	357.620	0.280	0.040	-0.020
2020/01/31 17:09:17.2	357.610	0.270	0.050	-0.020
2020/01/31 17:09:17.3	357.590	0.270	0.060	-0.010
2020/01/31 17:09:17.4	357.570	0.260	0.080	-0.010
2020/01/31 17:09:17.5	357.540	0.250	0.100	-0.000
2020/01/31 17:09:17.6	357.520	0.240	0.110	0.000
2020/01/31 17:09:17.7	357.500	0.220	0.130	0.010
2020/01/31 17:09:17.8	357.470	0.210	0.150	0.020
2020/01/31 17:09:17.9	357.450	0.200	0.160	0.030
2020/01/31 17:09:18.0	357.420	0.180	0.180	0.030
2020/01/31 17:09:18.1	357.400	0.170	0.190	0.040
2020/01/31 17:09:18.2	357.380	0.150	0.190	0.040
2020/01/31 17:09:18.3	357.360	0.140	0.200	0.040
2020/01/31 17:09:18.4	357.340	0.120	0.200	0.040
2020/01/31 17:09:18.5	357.330	0.110	0.190	0.040
2020/01/31 17:09:18.6	357.310	0.100	0.180	0.040
2020/01/31 17:09:18.7	357.300	0.090	0.170	0.040
2020/01/31 17:09:18.8	357.280	0.080	0.150	0.030
2020/01/31 17:09:18.9	357.280	0.080	0.130	0.020
2020/01/31 17:09:19.0	357.270	0.080	0.110	0.010
2020/01/31 17:09:19.1	357.270	0.070	0.070	0.010
2020/01/31 17:09:19.2	357.270	0.080	0.040	-0.010
2020/01/31 17:09:19.3	357.270	0.080	-0.000	-0.020
2020/01/31 17:09:19.4	357.280	0.080	-0.050	-0.030
2020/01/31 17:09:19.5	357.280	0.090	-0.090	-0.050
2020/01/31 17:09:19.6	357.290	0.100	-0.150	-0.060
2020/01/31 17:09:19.7	357.300	0.110	-0.200	-0.080
2020/01/31 17:09:19.8	357.310	0.120	-0.260	-0.100
2020/01/31 17:09:19.9	357.320	0.140	-0.320	-0.120
2020/01/31 17:09:20.0	357.340	0.150	-0.390	-0.140
2020/01/31 17:09:20.1	357.360	0.170	-0.450	-0.160
2020/01/31 17:09:20.2	357.380	0.180	-0.520	-0.190
2020/01/31 17:09:20.3	357.410	0.200	-0.590	-0.220
2020/01/31 17:09:20.4	357.430	0.210	-0.660	-0.250
2020/01/31 17:09:20.5	357.460	0.230	-0.730	-0.290
2020/01/31 17:09:20.6	357.490	0.240	-0.800	-0.320
2020/01/31 17:09:20.7	357.520	0.260	-0.870	-0.360
2020/01/31 17:09:20.8	357.560	0.270	-0.930	-0.400
2020/01/31 17:09:20.9	357.590	0.280	-0.990	-0.440
2020/01/31 17:09:21.0	357.620	0.290	-1.050	-0.480
2020/01/31 17:09:21.1	357.660	0.290	-1.110	-0.530
2020/01/31 17:09:21.2	357.690	0.300	-1.160	-0.570
2020/01/31 17:09:21.3	357.730	0.300	-1.200	-0.620
2020/01/31 17:09:21.4	357.760	0.290	-1.240	-0.660
2020/01/31 17:09:21.5	357.800	0.290	-1.280	-0.710
2020/01/31 17:09:21.6	357.830	0.280	-1.300	-0.750
2020/01/31 17:09:21.7	357.870	0.270	-1.320	-0.790
2020/01/31 17:09:21.8	357.900	0.260	-1.330	-0.830
2020/01/31 17:09:21.9	357.930	0.240	-1.330	-0.870
2020/01/31 17:09:22.0	357.960	0.220	-1.330	-0.900
2020/01/31 17:09:22.1	357.990	0.200	-1.310	-0.930
2020/01/31 17:09:22.2	358.020	0.170	-1.290	-0.960
2020/01/31 17:09:22.3	358.050	0.140	-1.260	-0.990
2020/01/31 17:09:22.4	358.080	0.110	-1.220	-1.020
2020/01/31 17:09:22.5	358.100	0.070	-1.170	-1.040
2020/01/31 17:09:22.6	358.120	0.030	-1.120	-1.050
2020/01/31 17:09:22.7	358.140	-0.010	-1.060	-1.070
2020/01/31 17:09:22.8	358.160	-0.050	-0.990	-1.080
2020/01/31 17:09:22.9	358.180	-0.100	-0.920	-1.080
2020/01/31 17:09:23.0	358.190	-0.140	-0.840	-1.080
2020/01/31 17:09:23.1	358.200	-0.190	-0.760	-1.080
2020/01/31 17:09:23.2	358.210	-0.240	-0.680	-1.070
2020/01/31 17:09:23.3	358.210	-0.290	-0.590	-1.060
2020/01/31 17:09:23.4	358.220	-0.330	-0.500	-1.050
2020/01/31 17:09:23.5	358.220	-0.380	-0.420	-1.030
2020/01/31 17:09:23.6	358.220	-0.430	-0.330	-1.010
2020/01/31 17:09:23.7	358.220	-0.470	-0.240	-0.980
2020/01/31 17:09:23.8	358.210	-0.520	-0.150	-0.950
2020/01/31 17:09:23.9	358.210	-0.560	-0.070	-0.920
2020/01/31 17:09:24.0	358.210	-0.600	0.010	-0.890
2020/01/31 17:09:24.1	358.200	-0.630	0.090	-0.860
2020/01/31 17:09:24.2	358.190	-0.660	0.160	-0.820
2020/01/31 17:09:24.3	358.180	-0.690	0.230	-0.780
2020/01/31 17:09:24.4	358.170	-0.720	0.300	-0.750
2020/01/31 17:09:24.5	358.160	-0.740	0.360	-0.710
2020/01/31 17:09:24.6	358.150	-0.750	0.410	-0.670
2020/01/31 17:09:24.7	358.140	-0.770	0.460	-0.630
2020/01/31 17:09:24.8	358.130	-0.770	0.500	-0.590
2020/01/31 17:09:24.9	358.120	-0.770	0.540	-0.560
2020/01/31 17:09:25.0	358.110	-0.770	0.570	-0.520
2020/01/31 17:09:25.1	358.100	-0.760	0.600	-0.480
2020/01/31 17:09:25.2	358.080	-0.750	0.620	-0.450
2020/01/31 17:09:25.3	358.070	-0.730	0.640	-0.410
2020/01/31 17:09:25.4	358.060	-0.710	0.650	-0.380
2020/01/31 17:09:25.5	358.040	-0.680	0.650	-0.340
2020/01/31 17:09:25.6	358.030	-0.650	0.650	-0.310
2020/01/31 17:09:25.7	358.010	-0.610	0.650	-0.270
2020/01/31 17:09:25.8	357.990	-0.570	0.640	-0.230
2020/01/31 17:09:25.9	357.980	-0.530	0.630	-0.200
2020/01/31 17:09:26.0	357.960	-0.480	0.610	-0.170
2020/01/31 17:09:26.1	357.940	-0.440	0.590	-0.140
2020/01/31 17:09:26.2	357.920	-0.390	0.570	-0.100
2020/01/31 17:09:26.3	357.900	-0.340	0.540	-0.070
2020/01/31 17:09:26.4	357.870	-0.280	0.510	-0.040
2020/01/31 17:09:26.5	357.850	-0.230	0.470	-0.000
2020/01/31 17:09:26.6	357.820	-0.180	0.440	0.030
2020/01/31 17:09:26.7	357.790	-0.120	0.400	0.060
2020/01/31 17:09:26.8	357.780	-0.070	0.350	0.090
2020/01/31 17:09:26.9	357.750	-0.020	0.310	0.120
2020/01/31 17:09:27.0	357.720	0.030	0.260	0.150
2020/01/31 17:09:27.1	357.690	0.080	0.220	0.170
2020/01/31 17:09:27.2	357.660	0.130	0.170	0.190
2020/01/31 17:09:27.3	357.640	0.180	0.120	0.210
2020/01/31 17:09:27.4	357.610	0.220	0.070	0.230
2020/01/31 17:09:27.5	357.580	0.260	0.010	0.240
2020/01/31 17:09:27.6	357.560	0.300	-0.040	0.250
2020/01/31 17:09:27.7	357.540	0.340	-0.090	0.260
2020/01/31 17:09:27.8	357.540	0.370	-0.140	0.270
2020/01/31 17:09:27.9	357.520	0.400	-0.200	0.270
2020/01/31 17:09:28.0	357.500	0.430	-0.250	0.270
2020/01/31 17:09:28.1	357.490	0.460	-0.300	0.260
2020/01/31 17:09:28.2	357.470	0.480	-0.360	0.250
2020/01/31 17:09:28.3	357.460	0.500	-0.410	0.240
2020/01/31 17:09:28.4	357.450	0.510	-0.450	0.230
2020/01/31 17:09:28.5	357.450	0.530	-0.500	0.220
2020/01/31 17:09:28.6	357.440	0.540	-0.550	0.200
2020/01/31 17:09:28.7	357.440	0.550	-0.590	0.180
2020/01/31 17:09:28.8	357.440	0.560	-0.630	0.160
2020/01/31 17:09:28.9	357.440	0.560	-0.670	0.130
2020/01/31 17:09:29.0	357.440	0.560	-0.700	0.110
2020/01/31 17:09:29.1	357.450	0.560	-0.730	0.080
2020/01/31 17:09:29.2	357.460	0.560	-0.760	0.050
2020/01/31 17:09:29.3	357.470	0.560	-0.790	0.020
2020/01/31 17:09:29.4	357.480	0.550	-0.820	-0.020
2020/01/31 17:09:29.5	357.490	0.550	-0.840	-0.050
2020/01/31 17:09:29.6	357.510	0.540	-0.860	-0.090
2020/01/31 17:09:29.7	357.530	0.530	-0.870	-0.120
2020/01/31 17:09:29.8	357.540	0.520	-0.880	-0.160
2020/01/31 17:09:29.9	357.560	0.510	-0.890	-0.200
2020/01/31 17:09:30.0	357.580	0.500	-0.890	-0.230
2020/01/31 17:09:30.1	357.600	0.490	-0.890	-0.270
2020/01/31 17:09:30.2	357.610	0.470	-0.890	-0.300
2020/01/31 17:09:30.3	357.630	0.450	-0.880	-0.330
2020/01/31 17:09:30.4	357.640	0.440	-0.860	-0.360
2020/01/31 17:09:30.5	357.660	0.420	-0.850	-0.380
2020/01/31 17:09:30.6	357.670	0.400	-0.830	-0.410
2020/01/31 17:09:30.7	357.680	0.370	-0.800	-0.430
2020/01/31 17:09:30.8	357.700	0.350	-0.770	-0.450
2020/01/31 17:09:30.9	357.710	0.330	-0.740	-0.470
2020/01/31 17:09:31.0	357.720	0.300	-0.710	-0.480
2020/01/31 17:09:31.1	357.730	0.280	-0.670	-0.500
2020/01/31 17:09:31.2	357.740	0.250	-0.630	-0.510
2020/01/31 17:09:31.3	357.740	0.220	-0.600	-0.530
2020/01/31 17:09:31.4	357.750	0.190	-0.560	-0.540
2020/01/31 17:09:31.5	357.750	0.160	-0.520	-0.550
2020/01/31 17:09:31.6	357.760	0.140	-0.480	-0.560
2020/01/31 17:09:31.7	357.770	0.110	-0.440	-0.580
2020/01/31 17:09:31.8	357.770	0.080	-0.400	-0.590
2020/01/31 17:09:31.9	357.780	0.050	-0.360	-0.600
2020/01/31 17:09:32.0	357.790	0.030	-0.330	-0.610
2020/01/31 17:09:32.1	357.800	-0.000	-0.300	-0.620
2020/01/31 17:09:32.2	357.810	-0.030	-0.270	-0.630
2020/01/31 17:09:32.3	357.830	-0.050	-0.240	-0.630
2020/01/31 17:09:32.4	357.840	-0.070	-0.220	-0.640
2020/01/31 17:09:32.5	357.850	-0.100	-0.190	-0.640
2020/01/31 17:09:32.6	357.860	-0.120	-0.170	-0.650
2020/01/31 17:09:32.7	357.870	-0.140	-0.150	-0.650
2020/01/31 17:09:32.8	357.890	-0.160	-0.130	-0.650
2020/01/31 17:09:32.9	357.900	-0.180	-0.120	-0.640
2020/01/31 17:09:33.0	357.910	-0.200	-0.100	-0.640
2020/01/31 17:09:33.1	357.920	-0.220	-0.090	-0.630
2020/01/31 17:09:33.2	357.930	-0.230	-0.080	-0.620
2020/01/31 17:09:33.3	357.930	-0.250	-0.070	-0.610
2020/01/31 17:09:33.4	357.940	-0.260	-0.060	-0.600
2020/01/31 17:09:33.5	357.950	-0.280	-0.060	-0.590
2020/01/31 17:09:33.6	357.950	-0.290	-0.050	-0.570
2020/01/31 17:09:33.7	357.950	-0.300	-0.050	-0.560
2020/01/31 17:09:33.8	357.960	-0.310	-0.050	-0.530
2020/01/31 17:09:33.9	357.960	-0.320	-0.040	-0.520
2020/01/31 17:09:34.0	357.960	-0.330	-0.040	-0.500
2020/01/31 17:09:34.1	357.960	-0.330	-0.040	-0.480
2020/01/31 17:09:34.2	357.960	-0.340	-0.050	-0.460
2020/01/31 17:09:34.3	357.950	-0.340	-0.050	-0.440
2020/01/31 17:09:34.4	357.950	-0.350	-0.050	-0.420
2020/01/31 17:09:34.5	357.950	-0.350	-0.050	-0.400
2020/01/31 17:09:34.6	357.950	-0.350	-0.060	-0.380
2020/01/31 17:09:34.7	357.940	-0.350	-0.060	-0.360
2020/01/31 17:09:34.8	357.940	-0.350	-0.070	-0.340
2020/01/31 17:09:34.9	357.940	-0.350	-0.070	-0.320
2020/01/31 17:09:35.0	357.940	-0.350	-0.070	-0.300
2020/01/31 17:09:35.1	357.930	-0.350	-0.080	-0.280
2020/01/31 17:09:35.2	357.930	-0.340	-0.080	-0.270
2020/01/31 17:09:35.3	357.930	-0.340	-0.090	-0.250
2020/01/31 17:09:35.4	357.930	-0.330	-0.090	-0.230
2020/01/31 17:09:35.5	357.920	-0.320	-0.090	-0.220
2020/01/31 17:09:35.6	357.920	-0.310	-0.090	-0.200
2020/01/31 17:09:35.7	357.910	-0.300	-0.090	-0.180
2020/01/31 17:09:35.8	357.900	-0.290	-0.090	-0.160
2020/01/31 17:09:35.9	357.900	-0.280	-0.090	-0.140
2020/01/31 17:09:36.0	357.890	-0.270	-0.090	-0.110
2020/01/31 17:09:36.1	357.880	-0.260	-0.080	-0.090
2020/01/31 17:09:36.2	357.870	-0.240	-0.080	-0.070
2020/01/31 17:09:36.3	357.860	-0.230	-0.070	-0.050
2020/01/31 17:09:36.4	357.840	-0.220	-0.060	-0.020
2020/01/31 17:09:36.5	357.830	-0.200	-0.050	-0.000
2020/01/31 17:09:36.6	357.810	-0.190	-0.040	0.020
2020/01/31 17:09:36.7	357.800	-0.170	-0.030	0.040
2020/01/31 17:09:36.8	357.770	-0.160	-0.020	0.070
2020/01/31 17:09:36.9	357.750	-0.150	-0.000	0.090
2020/01/31 17:09:37.0	357.730	-0.140	0.010	0.110
2020/01/31 17:09:37.1	357.700	-0.120	0.030	0.130
2020/01/31 17:09:37.2	357.670	-0.110	0.040	0.150
2020/01/31 17:09:37.3	357.650	-0.100	0.060	0.170
2020/01/31 17:09:37.4	357.620	-0.090	0.070	0.180
2020/01/31 17:09:37.5	357.590	-0.090	0.080	0.200
2020/01/31 17:09:37.6	357.560	-0.080	0.100	0.210
2020/01/31 17:09:37.7	357.520	-0.070	0.110	0.230
2020/01/31 17:09:37.8	357.490	-0.070	0.120	0.240
2020/01/31 17:09:37.9	357.460	-0.060	0.120	0.250
2020/01/31 17:09:38.0	357.430	-0.060	0.120	0.250
2020/01/31 17:09:38.1	357.400	-0.060	0.120	0.260
2020/01/31 17:09:38.2	357.370	-0.060	0.120	0.260
2020/01/31 17:09:38.3	357.340	-0.050	0.110	0.250
2020/01/31 17:09:38.4	357.320	-0.050	0.100	0.250
2020/01/31 17:09:38.5	357.300	-0.050	0.090	0.240
2020/01/31 17:09:38.6	357.280	-0.050	0.070	0.220
2020/01/31 17:09:38.7	357.260	-0.050	0.050	0.210
2020/01/31 17:09:38.8	357.260	-0.050	0.020	0.190
2020/01/31 17:09:38.9	357.250	-0.050	-0.010	0.160
2020/01/31 17:09:39.0	357.240	-0.040	-0.040	0.140
2020/01/31 17:09:39.1	357.240	-0.040	-0.080	0.110
2020/01/31 17:09:39.2	357.240	-0.030	-0.120	0.070
2020/01/31 17:09:39.3	357.250	-0.030	-0.170	0.040
2020/01/31 17:09:39.4	357.250	-0.020	-0.220	-0.000
2020/01/31 17:09:39.5	357.270	-0.010	-0.270	-0.050
2020/01/31 17:09:39.6	357.280	0.000	-0.320	-0.090
2020/01/31 17:09:39.7	357.300	0.020	-0.380	-0.130
2020/01/31 17:09:39.8	357.310	0.030	-0.430	-0.180
2020/01/31 17:09:39.9	357.330	0.050	-0.480	-0.220
2020/01/31 17:09:40.0	357.350	0.070	-0.540	-0.270
2020/01/31 17:09:40.1	357.370	0.090	-0.590	-0.310
2020/01/31 17:09:40.2	357.400	0.110	-0.650	-0.350
2020/01/31 17:09:40.3	357.420	0.130	-0.700	-0.390
2020/01/31 17:09:40.4	357.440	0.160	-0.740	-0.420
2020/01/31 17:09:40.5	357.460	0.180	-0.790	-0.450
2020/01/31 17:09:40.6	357.480	0.210	-0.820	-0.480
2020/01/31 17:09:40.7	357.500	0.240	-0.860	-0.510
2020/01/31 17:09:40.8	357.520	0.270	-0.890	-0.530
2020/01/31 17:09:40.9	357.540	0.300	-0.910	-0.550
2020/01/31 17:09:41.0	357.550	0.330	-0.930	-0.560
2020/01/31 17:09:41.1	357.570	0.350	-0.940	-0.570
2020/01/31 17:09:41.2	357.580	0.380	-0.940	-0.570
2020/01/31 17:09:41.3	357.590	0.410	-0.940	-0.580
2020/01/31 17:09:41.4	357.600	0.430	-0.930	-0.570
2020/01/31 17:09:41.5	357.600	0.460	-0.920	-0.570
2020/01/31 17:09:41.6	357.610	0.480	-0.910	-0.560
2020/01/31 17:09:41.7	357.610	0.500	-0.890	-0.550
2020/01/31 17:09:41.8	357.620	0.520	-0.860	-0.540
2020/01/31 17:09:41.9	357.630	0.530	-0.830	-0.520
2020/01/31 17:09:42.0	357.630	0.550	-0.800	-0.510
2020/01/31 17:09:42.1	357.630	0.560	-0.760	-0.490
2020/01/31 17:09:42.2	357.630	0.560	-0.730	-0.480
2020/01/31 17:09:42.3	357.640	0.570	-0.690	-0.460
2020/01/31 17:09:42.4	357.640	0.570	-0.650	-0.440
2020/01/31 17:09:42.5	357.640	0.560	-0.620	-0.420
2020/01/31 17:09:42.6	357.650	0.560	-0.580	-0.400
2020/01/31 17:09:42.7	357.650	0.550	-0.540	-0.380
2020/01/31 17:09:42.8	357.650	0.540	-0.510	-0.360
2020/01/31 17:09:42.9	357.660	0.530	-0.470	-0.340
2020/01/31 17:09:43.0	357.670	0.510	-0.440	-0.330
2020/01/31 17:09:43.1	357.670	0.490	-0.410	-0.310
2020/01/31 17:09:43.2	357.680	0.470	-0.380	-0.290
2020/01/31 17:09:43.3	357.690	0.450	-0.360	-0.280
2020/01/31 17:09:43.4	357.700	0.420	-0.330	-0.260
2020/01/31 17:09:43.5	357.710	0.400	-0.310	-0.250
2020/01/31 17:09:43.6	357.720	0.370	-0.290	-0.230
2020/01/31 17:09:43.7	357.730	0.340	-0.270	-0.220
2020/01/31 17:09:43.8	357.730	0.310	-0.250	-0.210
2020/01/31 17:09:43.9	357.740	0.270	-0.240	-0.200
2020/01/31 17:09:44.0	357.750	0.240	-0.230	-0.200
2020/01/31 17:09:44.1	357.760	0.210	-0.220	-0.190
2020/01/31 17:09:44.2	357.770	0.170	-0.200	-0.180
2020/01/31 17:09:44.3	357.780	0.140	-0.200	-0.180
2020/01/31 17:09:44.4	357.790	0.100	-0.190	-0.180
2020/01/31 17:09:44.5	357.800	0.060	-0.180	-0.170
2020/01/31 17:09:44.6	357.810	0.030	-0.170	-0.170
2020/01/31 17:09:44.7	357.810	-0.010	-0.160	-0.170
2020/01/31 17:09:44.8	357.820	-0.040	-0.160	-0.170
2020/01/31 17:09:44.9	357.830	-0.070	-0.150	-0.170
2020/01/31 17:09:45.0	357.830	-0.110	-0.140	-0.180
2020/01/31 17:09:45.1	357.830	-0.140	-0.130	-0.180
2020/01/31 17:09:45.2	357.830	-0.170	-0.120	-0.190
2020/01/31 17:09:45.3	357.830	-0.200	-0.110	-0.200
2020/01/31 17:09:45.4	357.830	-0.220	-0.090	-0.200
2020/01/31 17:09:45.5	357.830	-0.250	-0.080	-0.210
2020/01/31 17:09:45.6	357.830	-0.270	-0.060	-0.220
2020/01/31 17:09:45.7	357.830	-0.290	-0.040	-0.220
2020/01/31 17:09:45.8	357.820	-0.310	-0.020	-0.230
2020/01/31 17:09:45.9	357.810	-0.330	-0.000	-0.240
2020/01/31 17:09:46.0	357.800	-0.350	0.020	-0.250
2020/01/31 17:09:46.1	357.800	-0.360	0.040	-0.260
2020/01/31 17:09:46.2	357.790	-0.370	0.070	-0.260
2020/01/31 17:09:46.3	357.780	-0.380	0.090	-0.270
2020/01/31 17:09:46.4	357.770	-0.390	0.120	-0.280
2020/01/31 17:09:46.5	357.760	-0.400	0.150	-0.280
2020/01/31 17:09:46.6	357.750	-0.400	0.170	-0.290
2020/01/31 17:09:46.7	357.740	-0.410	0.200	-0.290
2020/01/31 17:09:46.8	357.730	-0.410	0.220	-0.290
2020/01/31 17:09:46.9	357.710	-0.410	0.240	-0.300
2020/01/31 17:09:47.0	357.700	-0.410	0.260	-0.300
2020/01/31 17:09:47.1	357.690	-0.410	0.280	-0.310
2020/01/31 17:09:47.2	357.670	-0.410	0.300	-0.310
2020/01/31 17:09:47.3	357.660	-0.410	0.310	-0.310
2020/01/31 17:09:47.4	357.640	-0.410	0.320	-0.310
2020/01/31 17:09:47.5	357.620	-0.410	0.320	-0.320
2020/01/31 17:09:47.6	357.610	-0.410	0.330	-0.320
2020/01/31 17:09:47.7	357.590	-0.410	0.330	-0.320
2020/01/31 17:09:47.8	357.560	-0.400	0.320	-0.330
2020/01/31 17:09:47.9	357.540	-0.400	0.310	-0.330
2020/01/31 17:09:48.0	357.530	-0.400	0.300	-0.340
2020/01/31 17:09:48.1	357.510	-0.400	0.280	-0.350
2020/01/31 17:09:48.2	357.500	-0.390	0.270	-0.360
2020/01/31 17:09:48.3	357.480	-0.390	0.240	-0.380
2020/01/31 17:09:48.4	357.470	-0.380	0.210	-0.390
2020/01/31 17:09:48.5	357.460	-0.380	0.180	-0.410
2020/01/31 17:09:48.6	357.450	-0.370	0.150	-0.430
2020/01/31 17:09:48.7	357.440	-0.370	0.120	-0.450
2020/01/31 17:09:48.8	357.430	-0.360	0.080	-0.470
2020/01/31 17:09:48.9	357.420	-0.350	0.040	-0.490
2020/01/31 17:09:49.0	357.420	-0.340	-0.010	-0.520
2020/01/31 17:09:49.1	357.420	-0.330	-0.050	-0.540
2020/01/31 17:09:49.2	357.420	-0.320	-0.090	-0.560
2020/01/31 17:09:49.3	357.420	-0.300	-0.140	-0.580
2020/01/31 17:09:49.4	357.430	-0.290	-0.180	-0.600
2020/01/31 17:09:49.5	357.430	-0.270	-0.230	-0.620
2020/01/31 17:09:49.6	357.440	-0.260	-0.270	-0.630
2020/01/31 17:09:49.7	357.440	-0.240	-0.310	-0.640
2020/01/31 17:09:49.8	357.450	-0.220	-0.350	-0.650
2020/01/31 17:09:49.9	357.460	-0.190	-0.390	-0.660
2020/01/31 17:09:50.0	357.460	-0.170	-0.420	-0.670
2020/01/31 17:09:50.1	357.470	-0.150	-0.450	-0.670
2020/01/31 17:09:50.2	357.480	-0.120	-0.480	-0.670
2020/01/31 17:09:50.3	357.480	-0.100	-0.510	-0.670
2020/01/31 17:09:50.4	357.490	-0.070	-0.530	-0.670
2020/01/31 17:09:50.5	357.500	-0.050	-0.550	-0.670
2020/01/31 17:09:50.6	357.500	-0.020	-0.570	-0.660
2020/01/31 17:09:50.7	357.510	0.000	-0.580	-0.650
2020/01/31 17:09:50.8	357.520	0.030	-0.590	-0.630
2020/01/31 17:09:50.9	357.530	0.060	-0.600	-0.620
2020/01/31 17:09:51.0	357.530	0.080	-0.600	-0.600
2020/01/31 17:09:51.1	357.540	0.110	-0.610	-0.580
2020/01/31 17:09:51.2	357.550	0.130	-0.610	-0.560
2020/01/31 17:09:51.3	357.560	0.150	-0.600	-0.540
2020/01/31 17:09:51.4	357.560	0.180	-0.600	-0.520
2020/01/31 17:09:51.5	357.570	0.200	-0.590	-0.500
2020/01/31 17:09:51.6	357.580	0.220	-0.580	-0.470
2020/01/31 17:09:51.7	357.590	0.240	-0.570	-0.440
2020/01/31 17:09:51.8	357.590	0.250	-0.560	-0.410
2020/01/31 17:09:51.9	357.600	0.270	-0.540	-0.380
2020/01/31 17:09:52.0	357.600	0.280	-0.530	-0.360
2020/01/31 17:09:52.1	357.610	0.290	-0.510	-0.330
2020/01/31 17:09:52.2	357.610	0.300	-0.490	-0.300
2020/01/31 17:09:52.3	357.620	0.300	-0.470	-0.270
2020/01/31 17:09:52.4	357.620	0.310	-0.460	-0.250
2020/01/31 17:09:52.5	357.620	0.310	-0.440	-0.220
2020/01/31 17:09:52.6	357.620	0.310	-0.420	-0.200
2020/01/31 17:09:52.7	357.620	0.300	-0.400	-0.180
2020/01/31 17:09:52.8	357.630	0.300	-0.380	-0.150
2020/01/31 17:09:52.9	357.630	0.290	-0.360	-0.130
2020/01/31 17:09:53.0	357.630	0.280	-0.350	-0.110
2020/01/31 17:09:53.1	357.630	0.270	-0.330	-0.090
2020/01/31 17:09:53.2	357.630	0.260	-0.320	-0.070
2020/01/31 17:09:53.3	357.630	0.250	-0.300	-0.060
2020/01/31 17:09:53.4	357.630	0.230	-0.290	-0.050
2020/01/31 17:09:53.5	357.630	0.220	-0.280	-0.040
2020/01/31 17:09:53.6	357.630	0.200	-0.280	-0.030
2020/01/31 17:09:53.7	357.640	0.180	-0.270	-0.020
2020/01/31 17:09:53.8	357.640	0.160	-0.270	-0.020
2020/01/31 17:09:53.9	357.640	0.150	-0.270	-0.020
2020/01/31 17:09:54.0	357.650	0.130	-0.270	-0.020
2020/01/31 17:09:54.1	357.650	0.110	-0.280	-0.020
2020/01/31 17:09:54.2	357.660	0.090	-0.290	-0.030
2020/01/31 17:09:54.3	357.660	0.080	-0.300	-0.040
2020/01/31 17:09:54.4	357.670	0.060	-0.310	-0.050
2020/01/31 17:09:54.5	357.680	0.040	-0.320	-0.060
2020/01/31 17:09:54.6	357.680	0.030	-0.340	-0.080
2020/01/31 17:09:54.7	357.690	0.020	-0.360	-0.100
2020/01/31 17:09:54.8	357.700	0.010	-0.380	-0.120
2020/01/31 17:09:54.9	357.700	-0.000	-0.400	-0.150
2020/01/31 17:09:55.0	357.710	-0.010	-0.420	-0.170
2020/01/31 17:09:55.1	357.710	-0.020	-0.440	-0.200
2020/01/31 17:09:55.2	357.720	-0.020	-0.470	-0.230
2020/01/31 17:09:55.3	357.720	-0.020	-0.490	-0.260
2020/01/31 17:09:55.4	357.730	-0.020	-0.520	-0.280
2020/01/31 17:09:55.5	357.730	-0.010	-0.540	-0.310
2020/01/31 17:09:55.6	357.730	-0.010	-0.560	-0.340
2020/01/31 17:09:55.7	357.730	0.000	-0.580	-0.360
2020/01/31 17:09:55.8	357.740	0.010	-0.600	-0.380
2020/01/31 17:09:55.9	357.740	0.030	-0.610	-0.400
2020/01/31 17:09:56.0	357.740	0.040	-0.630	-0.420
2020/01/31 17:09:56.1	357.730	0.060	-0.640	-0.430
2020/01/31 17:09:56.2	357.730	0.080	-0.640	-0.450
2020/01/31 17:09:56.3	357.720	0.110	-0.650	-0.460
2020/01/31 17:09:56.4	357.710	0.130	-0.650	-0.460
2020/01/31 17:09:56.5	357.700	0.150	-0.640	-0.470
2020/01/31 17:09:56.6	357.690	0.180	-0.640	-0.470
2020/01/31 17:09:56.7	357.680	0.210	-0.630	-0.480
2020/01/31 17:09:56.8	357.660	0.230	-0.620	-0.470
2020/01/31 17:09:56.9	357.650	0.260	-0.610	-0.470
2020/01/31 17:09:57.0	357.640	0.290	-0.590	-0.470
2020/01/31 17:09:57.1	357.630	0.320	-0.570	-0.470
2020/01/31 17:09:57.2	357.620	0.340	-0.560	-0.460
2020/01/31 17:09:57.3	357.610	0.370	-0.540	-0.460
2020/01/31 17:09:57.4	357.600	0.390	-0.520	-0.450
2020/01/31 17:09:57.5	357.590	0.420	-0.490	-0.440
2020/01/31 17:09:57.6	357.580	0.440	-0.470	-0.430
2020/01/31 17:09:57.7	357.570	0.460	-0.450	-0.430
2020/01/31 17:09:57.8	357.570	0.480	-0.430	-0.420
2020/01/31 17:09:57.9	357.560	0.500	-0.410	-0.410
2020/01/31 17:09:58.0	357.560	0.510	-0.380	-0.400
2020/01/31 17:09:58.1	357.550	0.520	-0.360	-0.390
2020/01/31 17:09:58.2	357.560	0.530	-0.340	-0.380
2020/01/31 17:09:58.3	357.560	0.540	-0.310	-0.370
2020/01/31 17:09:58.4	357.560	0.540	-0.290	-0.360
2020/01/31 17:09:58.5	357.560	0.540	-0.260	-0.350
2020/01/31 17:09:58.6	357.570	0.540	-0.240	-0.340
2020/01/31 17:09:58.7	357.580	0.530	-0.210	-0.340
2020/01/31 17:09:58.8	357.590	0.520	-0.180	-0.330
2020/01/31 17:09:58.9	357.600	0.510	-0.160	-0.320
2020/01/31 17:09:59.0	357.610	0.490	-0.130	-0.310
2020/01/31 17:09:59.1	357.630	0.470	-0.100	-0.310
2020/01/31 17:09:59.2	357.650	0.450	-0.070	-0.300
2020/01/31 17:09:59.3	357.670	0.420	-0.040	-0.290
2020/01/31 17:09:59.4	357.690	0.390	-0.010	-0.290
2020/01/31 17:09:59.5	357.710	0.360	0.020	-0.280
2020/01/31 17:09:59.6	357.730	0.320	0.050	-0.270
2020/01/31 17:09:59.7	357.750	0.280	0.080	-0.270
2020/01/31 17:09:59.8	357.780	0.240	0.120	-0.250
2020/01/31 17:09:59.9	357.800	0.190	0.150	-0.240
2020/01/31 17:10:00.0	357.820	0.140	0.180	-0.230
2020/01/31 17:10:00.1	357.840	0.090	0.220	-0.220
2020/01/31 17:10:00.2	357.850	0.030	0.250	-0.210
2020/01/31 17:10:00.3	357.870	-0.020	0.280	-0.190
2020/01/31 17:10:00.4	357.880	-0.080	0.320	-0.170
2020/01/31 17:10:00.5	357.890	-0.140	0.350	-0.150
2020/01/31 17:10:00.6	357.900	-0.200	0.380	-0.130
2020/01/31 17:10:00.7	357.910	-0.260	0.410	-0.110
2020/01/31 17:10:00.8	357.930	-0.320	0.440	-0.090
2020/01/31 17:10:00.9	357.940	-0.380	0.460	-0.070
2020/01/31 17:10:01.0	357.940	-0.440	0.480	-0.040
2020/01/31 17:10:01.1	357.940	-0.500	0.510	-0.020
2020/01/31 17:10:01.2	357.930	-0.560	0.520	0.000
2020/01/31 17:10:01.3	357.930	-0.610	0.540	0.020
2020/01/31 17:10:01.4	357.920	-0.670	0.550	0.050
2020/01/31 17:10:01.5	357.910	-0.720	0.550	0.070
2020/01/31 17:10:01.6	357.890	-0.770	0.560	0.090
2020/01/31 17:10:01.7	357.880	-0.820	0.550	0.110
2020/01/31 17:10:01.8	357.860	-0.860	0.550	0.130
2020/01/31 17:10:01.9	357.840	-0.900	0.540	0.150
2020/01/31 17:10:02.0	357.820	-0.930	0.520	0.160
2020/01/31 17:10:02.1	357.790	-0.960	0.500	0.180
2020/01/31 17:10:02.2	357.760	-0.990	0.480	0.190
2020/01/31 17:10:02.3	357.740	-1.010	0.450	0.200
2020/01/31 17:10:02.4	357.700	-1.020	0.420	0.210
2020/01/31 17:10:02.5	357.670	-1.030	0.380	0.210
2020/01/31 17:10:02.6	357.640	-1.040	0.340	0.220
2020/01/31 17:10:02.7	357.600	-1.040	0.300	0.220
2020/01/31 17:10:02.8	357.580	-1.030	0.250	0.230
2020/01/31 17:10:02.9	357.540	-1.020	0.200	0.230
2020/01/31 17:10:03.0	357.500	-1.000	0.140	0.230
2020/01/31 17:10:03.1	357.470	-0.980	0.090	0.220
2020/01/31 17:10:03.2	357.430	-0.950	0.030	0.220
2020/01/31 17:10:03.3	357.390	-0.920	-0.030	0.220
2020/01/31 17:10:03.4	357.350	-0.880	-0.090	0.210
2020/01/31 17:10:03.5	357.320	-0.840	-0.150	0.210
2020/01/31 17:10:03.6	357.280	-0.790	-0.220	0.200
2020/01/31 17:10:03.7	357.250	-0.740	-0.280	0.200
2020/01/31 17:10:03.8	357.210	-0.690	-0.330	0.190
2020/01/31 17:10:03.9	357.180	-0.630	-0.390	0.190
2020/01/31 17:10:04.0	357.150	-0.570	-0.450	0.180
2020/01/31 17:10:04.1	357.120	-0.510	-0.510	0.180
2020/01/31 17:10:04.2	357.090	-0.440	-0.560	0.170
2020/01/31 17:10:04.3	357.070	-0.380	-0.610	0.160
2020/01/31 17:10:04.4	357.050	-0.310	-0.650	0.150
2020/01/31 17:10:04.5	357.020	-0.240	-0.690	0.150
2020/01/31 17:10:04.6	357.000	-0.180	-0.730	0.140
2020/01/31 17:10:04.7	356.990	-0.110	-0.760	0.130
2020/01/31 17:10:04.8	356.980	-0.040	-0.790	0.120
2020/01/31 17:10:04.9	356.970	0.020	-0.820	0.110
2020/01/31 17:10:05.0	356.950	0.080	-0.840	0.100
2020/01/31 17:10:05.1	356.940	0.140	-0.850	0.090
2020/01/31 17:10:05.2	356.930	0.200	-0.860	0.080
2020/01/31 17:10:05.3	356.920	0.260	-0.870	0.070
2020/01/31 17:10:05.4	356.910	0.310	-0.870	0.050
2020/01/31 17:10:05.5	356.910	0.360	-0.870	0.040
2020/01/31 17:10:05.6	356.900	0.400	-0.860	0.030
2020/01/31 17:10:05.7	356.900	0.450	-0.850	0.020
2020/01/31 17:10:05.8	356.880	0.490	-0.840	0.010
2020/01/31 17:10:05.9	356.880	0.520	-0.830	-0.000
2020/01/31 17:10:06.0	356.880	0.560	-0.810	-0.010
2020/01/31 17:10:06.1	356.890	0.590	-0.790	-0.020
2020/01/31 17:10:06.2	356.890	0.610	-0.770	-0.030
2020/01/31 17:10:06.3	356.900	0.630	-0.750	-0.040
2020/01/31 17:10:06.4	356.900	0.650	-0.730	-0.050
2020/01/31 17:10:06.5	356.910	0.670	-0.710	-0.060
2020/01/31 17:10:06.6	356.930	0.680	-0.690	-0.070
2020/01/31 17:10:06.7	356.940	0.690	-0.670	-0.080
2020/01/31 17:10:06.8	356.940	0.700	-0.650	-0.100
2020/01/31 17:10:06.9	356.960	0.710	-0.640	-0.110
2020/01/31 17:10:07.0	356.980	0.710	-0.620	-0.130
2020/01/31 17:10:07.1	357.010	0.710	-0.610	-0.140
2020/01/31 17:10:07.2	357.030	0.710	-0.600	-0.160
2020/01/31 17:10:07.3	357.060	0.710	-0.600	-0.180
2020/01/31 17:10:07.4	357.090	0.710	-0.600	-0.210
2020/01/31 17:10:07.5	357.120	0.700	-0.600	-0.230
2020/01/31 17:10:07.6	357.150	0.700	-0.600	-0.260
2020/01/31 17:10:07.7	357.190	0.700	-0.600	-0.290
2020/01/31 17:10:07.8	357.230	0.690	-0.610	-0.320
2020/01/31 17:10:07.9	357.260	0.690	-0.620	-0.350
2020/01/31 17:10:08.0	357.300	0.680	-0.630	-0.380
2020/01/31 17:10:08.1	357.340	0.670	-0.640	-0.410
2020/01/31 17:10:08.2	357.380	0.670	-0.660	-0.440
2020/01/31 17:10:08.3	357.420	0.660	-0.670	-0.470
2020/01/31 17:10:08.4	357.460	0.650	-0.680	-0.500
2020/01/31 17:10:08.5	357.500	0.640	-0.690	-0.530
2020/01/31 17:10:08.6	357.530	0.630	-0.700	-0.560
2020/01/31 17:10:08.7	357.570	0.620	-0.710	-0.580
2020/01/31 17:10:08.8	357.580	0.610	-0.710	-0.600
2020/01/31 17:10:08.9	357.610	0.590	-0.710	-0.610
2020/01/31 17:10:09.0	357.640	0.580	-0.710	-0.630
2020/01/31 17:10:09.1	357.660	0.560	-0.700	-0.640
2020/01/31 17:10:09.2	357.680	0.540	-0.690	-0.650
2020/01/31 17:10:09.3	357.700	0.520	-0.670	-0.650
2020/01/31 17:10:09.4	357.710	0.500	-0.650	-0.650
2020/01/31 17:10:09.5	357.720	0.480	-0.620	-0.650
2020/01/31 17:10:09.6	357.730	0.450	-0.580	-0.640
2020/01/31 17:10:09.7	357.730	0.420	-0.540	-0.640
2020/01/31 17:10:09.8	357.750	0.390	-0.500	-0.630
2020/01/31 17:10:09.9	357.750	0.350	-0.450	-0.620
2020/01/31 17:10:10.0	357.740	0.320	-0.400	-0.610
2020/01/31 17:10:10.1	357.740	0.280	-0.340	-0.590
2020/01/31 17:10:10.2	357.720	0.240	-0.280	-0.580
2020/01/31 17:10:10.3	357.710	0.190	-0.220	-0.560
2020/01/31 17:10:10.4	357.700	0.150	-0.150	-0.550
2020/01/31 17:10:10.5	357.680	0.100	-0.090	-0.530
2020/01/31 17:10:10.6	357.660	0.050	-0.020	-0.520
2020/01/31 17:10:10.7	357.640	0.000	0.050	-0.500
2020/01/31 17:10:10.8	357.610	-0.050	0.120	-0.480
2020/01/31 17:10:10.9	357.590	-0.100	0.190	-0.460
2020/01/31 17:10:11.0	357.560	-0.160	0.250	-0.440
2020/01/31 17:10:11.1	357.540	-0.210	0.310	-0.420
2020/01/31 17:10:11.2	357.510	-0.260	0.380	-0.400
2020/01/31 17:10:11.3	357.490	-0.310	0.430	-0.380
2020/01/31 17:10:11.4	357.460	-0.360	0.480	-0.360
2020/01/31 17:10:11.5	357.430	-0.410	0.530	-0.340
2020/01/31 17:10:11.6	357.410	-0.460	0.580	-0.320
2020/01/31 17:10:11.7	357.380	-0.500	0.620	-0.300
2020/01/31 17:10:11.8	357.360	-0.540	0.650	-0.270
2020/01/31 17:10:11.9	357.330	-0.580	0.680	-0.250
2020/01/31 17:10:12.0	357.310	-0.620	0.710	-0.220
2020/01/31 17:10:12.1	357.280	-0.650	0.730	-0.200
2020/01/31 17:10:12.2	357.250	-0.680	0.740	-0.180
2020/01/31 17:10:12.3	357.230	-0.700	0.740	-0.160
2020/01/31 17:10:12.4	357.200	-0.720	0.740	-0.140
2020/01/31 17:10:12.5	357.180	-0.740	0.740	-0.120
2020/01/31 17:10:12.6	357.150	-0.750	0.730	-0.100
2020/01/31 17:10:12.7	357.130	-0.760	0.710	-0.080
2020/01/31 17:10:12.8	357.100	-0.770	0.690	-0.060
2020/01/31 17:10:12.9	357.070	-0.770	0.660	-0.040
2020/01/31 17:10:13.0	357.050	-0.760	0.620	-0.020
2020/01/31 17:10:13.1	357.020	-0.750	0.580	-0.000
2020/01/31 17:10:13.2	357.000	-0.730	0.530	0.010
2020/01/31 17:10:13.3	356.970	-0.710	0.480	0.030
2020/01/31 17:10:13.4	356.950	-0.690	0.420	0.040
2020/01/31 17:10:13.5	356.930	-0.660	0.360	0.050
2020/01/31 17:10:13.6	356.910	-0.630	0.300	0.070
2020/01/31 17:10:13.7	356.890	-0.600	0.230	0.070
2020/01/31 17:10:13.8	356.900	-0.560	0.160	0.090
2020/01/31 17:10:13.9	356.890	-0.520	0.090	0.090
2020/01/31 17:10:14.0	356.880	-0.470	0.010	0.090
2020/01/31 17:10:14.1	356.870	-0.430	-0.070	0.090
2020/01/31 17:10:14.2	356.870	-0.380	-0.150	0.090
2020/01/31 17:10:14.3	356.870	-0.330	-0.220	0.080
2020/01/31 17:10:14.4	356.870	-0.280	-0.300	0.080
2020/01/31 17:10:14.5	356.880	-0.230	-0.380	0.060
2020/01/31 17:10:14.6	356.890	-0.180	-0.460	0.050
2020/01/31 17:10:14.7	356.900	-0.130	-0.540	0.030
2020/01/31 17:10:14.8	356.920	-0.080	-0.610	0.020
2020/01/31 17:10:14.9	356.930	-0.030	-0.680	-0.000
2020/01/31 17:10:15.0	356.960	0.010	-0.740	-0.020
2020/01/31 17:10:15.1	356.980	0.060	-0.800	-0.050
2020/01/31 17:10:15.2	357.000	0.100	-0.860	-0.070
2020/01/31 17:10:15.3	357.030	0.140	-0.900	-0.090
2020/01/31 17:10:15.4	357.050	0.180	-0.940	-0.110
2020/01/31 17:10:15.5	357.070	0.210	-0.980	-0.130
2020/01/31 17:10:15.6	357.100	0.240	-1.010	-0.150
2020/01/31 17:10:15.7	357.120	0.270	-1.020	-0.170
2020/01/31 17:10:15.8	357.150	0.290	-1.030	-0.180
2020/01/31 17:10:15.9	357.170	0.310	-1.040	-0.190
2020/01/31 17:10:16.0	357.180	0.320	-1.030	-0.210
2020/01/31 17:10:16.1	357.200	0.330	-1.020	-0.220
2020/01/31 17:10:16.2	357.210	0.340	-0.990	-0.230
2020/01/31 17:10:16.3	357.220	0.340	-0.970	-0.230
2020/01/31 17:10:16.4	357.230	0.340	-0.930	-0.240
2020/01/31 17:10:16.5	357.230	0.330	-0.890	-0.240
2020/01/31 17:10:16.6	357.240	0.320	-0.840	-0.240
2020/01/31 17:10:16.7	357.240	0.310	-0.790	-0.240
2020/01/31 17:10:16.8	357.230	0.290	-0.740	-0.240
2020/01/31 17:10:16.9	357.230	0.270	-0.680	-0.240
2020/01/31 17:10:17.0	357.220	0.250	-0.620	-0.230
2020/01/31 17:10:17.1	357.220	0.220	-0.550	-0.230
2020/01/31 17:10:17.2	357.210	0.190	-0.490	-0.220
2020/01/31 17:10:17.3	357.200	0.160	-0.430	-0.210
2020/01/31 17:10:17.4	357.190	0.130	-0.360	-0.210
2020/01/31 17:10:17.5	357.190	0.100	-0.300	-0.200
2020/01/31 17:10:17.6	357.180	0.070	-0.240	-0.190
2020/01/31 17:10:17.7	357.170	0.040	-0.190	-0.180
2020/01/31 17:10:17.8	357.160	0.010	-0.130	-0.170
2020/01/31 17:10:17.9	357.150	-0.010	-0.080	-0.160
2020/01/31 17:10:18.0	357.150	-0.040	-0.040	-0.150
2020/01/31 17:10:18.1	357.140	-0.070	-0.000	-0.140
2020/01/31 17:10:18.2	357.140	-0.090	0.030	-0.140
2020/01/31 17:10:18.3	357.140	-0.110	0.060	-0.130
2020/01/31 17:10:18.4	357.130	-0.130	0.080	-0.130
2020/01/31 17:10:18.5	357.130	-0.140	0.100	-0.120
2020/01/31 17:10:18.6	357.130	-0.150	0.110	-0.120
2020/01/31 17:10:18.7	357.140	-0.160	0.120	-0.120
2020/01/31 17:10:18.8	357.130	-0.170	0.110	-0.120
2020/01/31 17:10:18.9	357.130	-0.170	0.110	-0.120
2020/01/31 17:10:19.0	357.130	-0.170	0.100	-0.120
2020/01/31 17:10:19.1	357.130	-0.160	0.090	-0.120
2020/01/31 17:10:19.2	357.140	-0.150	0.070	-0.130
2020/01/31 17:10:19.3	357.140	-0.140	0.050	-0.130
2020/01/31 17:10:19.4	357.140	-0.120	0.030	-0.130
2020/01/31 17:10:19.5	357.150	-0.110	0.010	-0.130
2020/01/31 17:10:19.6	357.150	-0.090	-0.010	-0.130
2020/01/31 17:10:19.7	357.150	-0.060	-0.040	-0.140
2020/01/31 17:10:19.8	357.150	-0.040	-0.070	-0.130
2020/01/31 17:10:19.9	357.150	-0.010	-0.090	-0.130
2020/01/31 17:10:20.0	357.150	0.020	-0.120	-0.130
2020/01/31 17:10:20.1	357.150	0.040	-0.140	-0.120
2020/01/31 17:10:20.2	357.150	0.070	-0.160	-0.120
2020/01/31 17:10:20.3	357.150	0.100	-0.190	-0.110
2020/01/31 17:10:20.4	357.150	0.130	-0.210	-0.100
2020/01/31 17:10:20.5	357.140	0.160	-0.230	-0.080
2020/01/31 17:10:20.6	357.140	0.190	-0.250	-0.070
2020/01/31 17:10:20.7	357.140	0.220	-0.260	-0.060
2020/01/31 17:10:20.8	357.130	0.240	-0.280	-0.030
2020/01/31 17:10:20.9	357.130	0.270	-0.290	-0.020
2020/01/31 17:10:21.0	357.130	0.290	-0.300	-0.000
2020/01/31 17:10:21.1	357.130	0.310	-0.320	0.010
2020/01/31 17:10:21.2	357.130	0.320	-0.330	0.030
2020/01/31 17:10:21.3	357.130	0.340	-0.340	0.040
2020/01/31 17:10:21.4	357.130	0.350	-0.360	0.060
2020/01/31 17:10:21.5	357.140	0.360	-0.370	0.070
2020/01/31 17:10:21.6	357.140	0.360	-0.380	0.070
2020/01/31 17:10:21.7	357.150	0.360	-0.390	0.080
2020/01/31 17:10:21.8	357.170	0.360	-0.400	0.090
2020/01/31 17:10:21.9	357.180	0.360	-0.410	0.090
2020/01/31 17:10:22.0	357.190	0.350	-0.420	0.090
2020/01/31 17:10:22.1	357.200	0.340	-0.440	0.090
2020/01/31 17:10:22.2	357.210	0.330	-0.450	0.080
2020/01/31 17:10:22.3	357.220	0.320	-0.460	0.070
2020/01/31 17:10:22.4	357.230	0.300	-0.470	0.060
2020/01/31 17:10:22.5	357.250	0.280	-0.490	0.050
2020/01/31 17:10:22.6	357.260	0.270	-0.500	0.030
2020/01/31 17:10:22.7	357.270	0.250	-0.510	0.010
2020/01/31 17:10:22.8	357.300	0.220	-0.520	-0.000
2020/01/31 17:10:22.9	357.310	0.200	-0.530	-0.020
2020/01/31 17:10:23.0	357.330	0.180	-0.540	-0.040
2020/01/31 17:10:23.1	357.340	0.160	-0.550	-0.070
2020/01/31 17:10:23.2	357.350	0.140	-0.550	-0.090
2020/01/31 17:10:23.3	357.370	0.120	-0.560	-0.110
2020/01/31 17:10:23.4	357.380	0.100	-0.560	-0.130
2020/01/31 17:10:23.5	357.390	0.080	-0.560	-0.150
2020/01/31 17:10:23.6	357.400	0.060	-0.550	-0.170
2020/01/31 17:10:23.7	357.410	0.040	-0.550	-0.180
2020/01/31 17:10:23.8	357.420	0.020	-0.540	-0.200
2020/01/31 17:10:23.9	357.420	0.010	-0.530	-0.210
2020/01/31 17:10:24.0	357.420	-0.000	-0.510	-0.220
2020/01/31 17:10:24.1	357.420	-0.020	-0.490	-0.230
2020/01/31 17:10:24.2	357.420	-0.030	-0.470	-0.240
2020/01/31 17:10:24.3	357.420	-0.040	-0.440	-0.250
2020/01/31 17:10:24.4	357.420	-0.040	-0.420	-0.250
2020/01/31 17:10:24.5	357.410	-0.050	-0.390	-0.260
2020/01/31 17:10:24.6	357.410	-0.050	-0.360	-0.260
2020/01/31 17:10:24.7	357.400	-0.060	-0.330	-0.260
2020/01/31 17:10:24.8	357.380	-0.060	-0.290	-0.260
2020/01/31 17:10:24.9	357.370	-0.060	-0.260	-0.260
2020/01/31 17:10:25.0	357.360	-0.060	-0.230	-0.250
2020/01/31 17:10:25.1	357.350	-0.060	-0.190	-0.250
2020/01/31 17:10:25.2	357.330	-0.050	-0.160	-0.250
2020/01/31 17:10:25.3	357.320	-0.050	-0.130	-0.240
2020/01/31 17:10:25.4	357.310	-0.050	-0.100	-0.230
2020/01/31 17:10:25.5	357.300	-0.040	-0.070	-0.230
2020/01/31 17:10:25.6	357.280	-0.040	-0.040	-0.220
2020/01/31 17:10:25.7	357.270	-0.030	-0.020	-0.210
2020/01/31 17:10:25.8	357.260	-0.030	-0.000	-0.200
2020/01/31 17:10:25.9	357.240	-0.030	0.020	-0.200
2020/01/31 17:10:26.0	357.230	-0.030	0.030	-0.190
2020/01/31 17:10:26.1	357.210	-0.020	0.040	-0.180
2020/01/31 17:10:26.2	357.200	-0.020	0.050	-0.180
2020/01/31 17:10:26.3	357.180	-0.030	0.060	-0.180
2020/01/31 17:10:26.4	357.160	-0.030	0.060	-0.180
2020/01/31 17:10:26.5	357.150	-0.030	0.070	-0.180
2020/01/31 17:10:26.6	357.140	-0.040	0.060	-0.180
2020/01/31 17:10:26.7	357.120	-0.050	0.060	-0.190
2020/01/31 17:10:26.8	357.110	-0.050	0.050	-0.190
2020/01/31 17:10:26.9	357.100	-0.070	0.050	-0.200
2020/01/31 17:10:27.0	357.090	-0.080	0.030	-0.220
2020/01/31 17:10:27.1	357.080	-0.090	0.020	-0.240
2020/01/31 17:10:27.2	357.080	-0.110	0.010	-0.260
2020/01/31 17:10:27.3	357.070	-0.130	-0.010	-0.280
2020/01/31 17:10:27.4	357.070	-0.150	-0.030	-0.310
2020/01/31 17:10:27.5	357.070	-0.160	-0.050	-0.330
2020/01/31 17:10:27.6	357.070	-0.190	-0.070	-0.360
2020/01/31 17:10:27.7	357.070	-0.210	-0.080	-0.400
2020/01/31 17:10:27.8	357.070	-0.230	-0.100	-0.430
2020/01/31 17:10:27.9	357.080	-0.250	-0.120	-0.460
2020/01/31 17:10:28.0	357.080	-0.270	-0.140	-0.500
2020/01/31 17:10:28.1	357.090	-0.290	-0.160	-0.530
2020/01/31 17:10:28.2	357.110	-0.310	-0.170	-0.570
2020/01/31 17:10:28.3	357.120	-0.320	-0.190	-0.600
2020/01/31 17:10:28.4	357.140	-0.340	-0.210	-0.630
2020/01/31 17:10:28.5	357.160	-0.350	-0.220	-0.670
2020/01/31 17:10:28.6	357.180	-0.360	-0.230	-0.700
2020/01/31 17:10:28.7	357.200	-0.370	-0.240	-0.720
2020/01/31 17:10:28.8	357.220	-0.380	-0.260	-0.750
2020/01/31 17:10:28.9	357.240	-0.380	-0.260	-0.780
2020/01/31 17:10:29.0	357.270	-0.380	-0.270	-0.800
2020/01/31 17:10:29.1	357.290	-0.370	-0.280	-0.810
2020/01/31 17:10:29.2	357.310	-0.360	-0.280	-0.830
2020/01/31 17:10:29.3	357.340	-0.350	-0.280	-0.840
2020/01/31 17:10:29.4	357.360	-0.340	-0.280	-0.850
2020/01/31 17:10:29.5	357.380	-0.320	-0.280	-0.850
2020/01/31 17:10:29.6	357.400	-0.300	-0.280	-0.850
2020/01/31 17:10:29.7	357.420	-0.270	-0.280	-0.840
2020/01/31 17:10:29.8	357.440	-0.250	-0.270	-0.830
2020/01/31 17:10:29.9	357.450	-0.220	-0.270	-0.820
2020/01/31 17:10:30.0	357.460	-0.180	-0.260	-0.800
2020/01/31 17:10:30.1	357.470	-0.150	-0.250	-0.780
2020/01/31 17:10:30.2	357.480	-0.120	-0.250	-0.750
2020/01/31 17:10:30.3	357.490	-0.080	-0.240	-0.730
2020/01/31 17:10:30.4	357.500	-0.040	-0.230	-0.700
2020/01/31 17:10:30.5	357.500	-0.010	-0.230	-0.660
2020/01/31 17:10:30.6	357.510	0.030	-0.220	-0.630
2020/01/31 17:10:30.7	357.510	0.070	-0.220	-0.600
2020/01/31 17:10:30.8	357.510	0.100	-0.210	-0.560
2020/01/31 17:10:30.9	357.520	0.140	-0.210	-0.520
2020/01/31 17:10:31.0	357.520	0.170	-0.210	-0.480
2020/01/31 17:10:31.1	357.520	0.210	-0.210	-0.450
2020/01/31 17:10:31.2	357.520	0.240	-0.210	-0.410
2020/01/31 17:10:31.3	357.530	0.270	-0.220	-0.380
2020/01/31 17:10:31.4	357.530	0.290	-0.230	-0.340
2020/01/31 17:10:31.5	357.530	0.320	-0.230	-0.310
2020/01/31 17:10:31.6	357.540	0.340	-0.240	-0.270
2020/01/31 17:10:31.7	357.540	0.360	-0.250	-0.240
2020/01/31 17:10:31.8	357.550	0.370	-0.270	-0.200
2020/01/31 17:10:31.9	357.550	0.380	-0.280	-0.170
2020/01/31 17:10:32.0	357.550	0.390	-0.290	-0.150
2020/01/31 17:10:32.1	357.550	0.390	-0.310	-0.120
2020/01/31 17:10:32.2	357.550	0.390	-0.320	-0.100
2020/01/31 17:10:32.3	357.540	0.380	-0.330	-0.080
2020/01/31 17:10:32.4	357.530	0.380	-0.340	-0.060
2020/01/31 17:10:32.5	357.520	0.360	-0.360	-0.040
2020/01/31 17:10:32.6	357.510	0.350	-0.360	-0.030
2020/01/31 17:10:32.7	357.500	0.320	-0.370	-0.020
2020/01/31 17:10:32.8	357.490	0.300	-0.380	-0.010
2020/01/31 17:10:32.9	357.470	0.270	-0.380	-0.010
2020/01/31 17:10:33.0	357.450	0.240	-0.380	-0.010
2020/01/31 17:10:33.1	357.430	0.210	-0.380	-0.010
2020/01/31 17:10:33.2	357.410	0.180	-0.370	-0.010
2020/01/31 17:10:33.3	357.380	0.140	-0.370	-0.020
2020/01/31 17:10:33.4	357.350	0.100	-0.360	-0.030
2020/01/31 17:10:33.5	357.320	0.060	-0.340	-0.040
2020/01/31 17:10:33.6	357.280	0.020	-0.330	-0.060
2020/01/31 17:10:33.7	357.250	-0.010	-0.310	-0.080
2020/01/31 17:10:33.8	357.210	-0.050	-0.300	-0.100
2020/01/31 17:10:33.9	357.170	-0.090	-0.280	-0.120
2020/01/31 17:10:34.0	357.130	-0.120	-0.250	-0.140
2020/01/31 17:10:34.1	357.100	-0.160	-0.230	-0.160
2020/01/31 17:10:34.2	357.060	-0.190	-0.210	-0.190
2020/01/31 17:10:34.3	357.020	-0.220	-0.190	-0.210
2020/01/31 17:10:34.4	356.990	-0.240	-0.170	-0.230
2020/01/31 17:10:34.5	356.950	-0.260	-0.150	-0.260
2020/01/31 17:10:34.6	356.920	-0.280	-0.130	-0.280
2020/01/31 17:10:34.7	356.890	-0.290	-0.120	-0.300
2020/01/31 17:10:34.8	356.880	-0.300	-0.100	-0.320
2020/01/31 17:10:34.9	356.860	-0.310	-0.100	-0.350
2020/01/31 17:10:35.0	356.840	-0.300	-0.090	-0.370
2020/01/31 17:10:35.1	356.820	-0.300	-0.090	-0.390
2020/01/31 17:10:35.2	356.810	-0.290	-0.100	-0.410
2020/01/31 17:10:35.3	356.800	-0.270	-0.110	-0.420
2020/01/31 17:10:35.4	356.790	-0.250	-0.120	-0.440
2020/01/31 17:10:35.5	356.790	-0.220	-0.150	-0.460
2020/01/31 17:10:35.6	356.800	-0.190	-0.170	-0.480
2020/01/31 17:10:35.7	356.810	-0.160	-0.200	-0.500
2020/01/31 17:10:35.8	356.810	-0.120	-0.240	-0.520
2020/01/31 17:10:35.9	356.830	-0.070	-0.280	-0.550
2020/01/31 17:10:36.0	356.850	-0.030	-0.320	-0.570
2020/01/31 17:10:36.1	356.880	0.020	-0.370	-0.590
2020/01/31 17:10:36.2	356.910	0.070	-0.410	-0.620
2020/01/31 17:10:36.3	356.940	0.120	-0.460	-0.640
2020/01/31 17:10:36.4	356.970	0.170	-0.510	-0.670
2020/01/31 17:10:36.5	357.010	0.210	-0.560	-0.690
2020/01/31 17:10:36.6	357.040	0.260	-0.600	-0.720
2020/01/31 17:10:36.7	357.080	0.310	-0.650	-0.740
2020/01/31 17:10:36.8	357.110	0.350	-0.690	-0.760
2020/01/31 17:10:36.9	357.150	0.390	-0.720	-0.780
2020/01/31 17:10:37.0	357.180	0.420	-0.760	-0.800
2020/01/31 17:10:37.1	357.220	0.460	-0.780	-0.810
2020/01/31 17:10:37.2	357.250	0.480	-0.810	-0.830
2020/01/31 17:10:37.3	357.280	0.500	-0.820	-0.840
2020/01/31 17:10:37.4	357.310	0.520	-0.830	-0.840
2020/01/31 17:10:37.5	357.340	0.530	-0.830	-0.840
2020/01/31 17:10:37.6	357.360	0.540	-0.830	-0.840
2020/01/31 17:10:37.7	357.380	0.540	-0.820	-0.830
2020/01/31 17:10:37.8	357.390	0.540	-0.800	-0.820
2020/01/31 17:10:37.9	357.410	0.520	-0.780	-0.800
2020/01/31 17:10:38.0	357.420	0.510	-0.740	-0.780
2020/01/31 17:10:38.1	357.440	0.490	-0.710	-0.760
2020/01/31 17:10:38.2	357.450	0.460	-0.660	-0.730
2020/01/31 17:10:38.3	357.460	0.430	-0.620	-0.700
2020/01/31 17:10:38.4	357.470	0.390	-0.570	-0.660
2020/01/31 17:10:38.5	357.470	0.350	-0.510	-0.630
2020/01/31 17:10:38.6	357.480	0.310	-0.450	-0.590
2020/01/31 17:10:38.7	357.480	0.260	-0.390	-0.560
2020/01/31 17:10:38.8	357.500	0.210	-0.330	-0.520
2020/01/31 17:10:38.9	357.500	0.160	-0.270	-0.480
2020/01/31 17:10:39.0	357.500	0.100	-0.210	-0.450
2020/01/31 17:10:39.1	357.500	0.050	-0.140	-0.420
2020/01/31 17:10:39.2	357.500	-0.010	-0.080	-0.380
2020/01/31 17:10:39.3	357.490	-0.060	-0.020	-0.350
2020/01/31 17:10:39.4	357.490	-0.120	0.040	-0.330
2020/01/31 17:10:39.5	357.480	-0.170	0.100	-0.300
2020/01/31 17:10:39.6	357.470	-0.230	0.150	-0.270
2020/01/31 17:10:39.7	357.460	-0.280	0.200	-0.250
2020/01/31 17:10:39.8	357.450	-0.320	0.250	-0.230
2020/01/31 17:10:39.9	357.430	-0.370	0.290	-0.200
2020/01/31 17:10:40.0	357.420	-0.410	0.330	-0.180
2020/01/31 17:10:40.1	357.400	-0.450	0.370	-0.170
2020/01/31 17:10:40.2	357.370	-0.480	0.400	-0.150
2020/01/31 17:10:40.3	357.350	-0.510	0.420	-0.130
2020/01/31 17:10:40.4	357.330	-0.530	0.450	-0.110
2020/01/31 17:10:40.5	357.300	-0.550	0.460	-0.090
2020/01/31 17:10:40.6	357.270	-0.560	0.470	-0.070
2020/01/31 17:10:40.7	357.230	-0.570	0.480	-0.050
2020/01/31 17:10:40.8	357.220	-0.580	0.480	-0.030
2020/01/31 17:10:40.9	357.180	-0.580	0.480	-0.010
2020/01/31 17:10:41.0	357.140	-0.570	0.480	0.010
2020/01/31 17:10:41.1	357.100	-0.560	0.460	0.030
2020/01/31 17:10:41.2	357.050	-0.550	0.450	0.060
2020/01/31 17:10:41.3	357.010	-0.530	0.430	0.080
2020/01/31 17:10:41.4	356.960	-0.510	0.400	0.090
2020/01/31 17:10:41.5	356.920	-0.490	0.370	0.110
2020/01/31 17:10:41.6	356.870	-0.470	0.340	0.120
2020/01/31 17:10:41.7	356.830	-0.440	0.300	0.140
2020/01/31 17:10:41.8	356.780	-0.410	0.270	0.150
2020/01/31 17:10:41.9	356.740	-0.380	0.220	0.150
2020/01/31 17:10:42.0	356.700	-0.340	0.170	0.150
2020/01/31 17:10:42.1	356.670	-0.310	0.120	0.150
2020/01/31 17:10:42.2	356.630	-0.270	0.070	0.140
2020/01/31 17:10:42.3	356.610	-0.230	0.020	0.130
2020/01/31 17:10:42.4	356.580	-0.200	-0.040	0.110
2020/01/31 17:10:42.5	356.560	-0.160	-0.100	0.090
2020/01/31 17:10:42.6	356.550	-0.120	-0.160	0.060
2020/01/31 17:10:42.7	356.540	-0.090	-0.220	0.030
2020/01/31 17:10:42.8	356.540	-0.050	-0.280	-0.010
2020/01/31 17:10:42.9	356.530	-0.020	-0.340	-0.040
2020/01/31 17:10:43.0	356.540	0.020	-0.400	-0.090
2020/01/31 17:10:43.1	356.550	0.050	-0.460	-0.130
2020/01/31 17:10:43.2	356.560	0.080	-0.520	-0.170
2020/01/31 17:10:43.3	356.570	0.100	-0.570	-0.220
2020/01/31 17:10:43.4	356.590	0.130	-0.620	-0.260
2020/01/31 17:10:43.5	356.600	0.150	-0.660	-0.300
2020/01/31 17:10:43.6	356.620	0.170	-0.700	-0.340
2020/01/31 17:10:43.7	356.650	0.190	-0.740	-0.380
2020/01/31 17:10:43.8	356.680	0.200	-0.760	-0.420
2020/01/31 17:10:43.9	356.700	0.210	-0.790	-0.450
2020/01/31 17:10:44.0	356.720	0.220	-0.800	-0.480
2020/01/31 17:10:44.1	356.740	0.220	-0.810	-0.510
2020/01/31 17:10:44.2	356.760	0.220	-0.810	-0.530
2020/01/31 17:10:44.3	356.770	0.220	-0.800	-0.550
2020/01/31 17:10:44.4	356.790	0.210	-0.790	-0.570
2020/01/31 17:10:44.5	356.800	0.200	-0.770	-0.580
2020/01/31 17:10:44.6	356.820	0.190	-0.740	-0.590
2020/01/31 17:10:44.7	356.830	0.170	-0.710	-0.600
2020/01/31 17:10:44.8	356.830	0.150	-0.680	-0.610
2020/01/31 17:10:44.9	356.850	0.130	-0.640	-0.620
2020/01/31 17:10:45.0	356.860	0.110	-0.600	-0.630
2020/01/31 17:10:45.1	356.870	0.080	-0.560	-0.630
2020/01/31 17:10:45.2	356.880	0.060	-0.510	-0.640
2020/01/31 17:10:45.3	356.900	0.030	-0.470	-0.640
2020/01/31 17:10:45.4	356.910	0.000	-0.420	-0.650
2020/01/31 17:10:45.5	356.930	-0.030	-0.380	-0.650
2020/01/31 17:10:45.6	356.940	-0.060	-0.340	-0.660
2020/01/31 17:10:45.7	356.960	-0.080	-0.300	-0.660
2020/01/31 17:10:45.8	356.980	-0.110	-0.260	-0.660
2020/01/31 17:10:45.9	357.000	-0.140	-0.220	-0.670
2020/01/31 17:10:46.0	357.020	-0.160	-0.200	-0.670
2020/01/31 17:10:46.1	357.040	-0.180	-0.170	-0.680
2020/01/31 17:10:46.2	357.070	-0.200	-0.150	-0.690
2020/01/31 17:10:46.3	357.100	-0.220	-0.140	-0.690
2020/01/31 17:10:46.4	357.130	-0.230	-0.130	-0.700
2020/01/31 17:10:46.5	357.160	-0.250	-0.130	-0.710
2020/01/31 17:10:46.6	357.190	-0.260	-0.130	-0.710
2020/01/31 17:10:46.7	357.220	-0.260	-0.140	-0.720
2020/01/31 17:10:46.8	357.250	-0.270	-0.150	-0.720
2020/01/31 17:10:46.9	357.280	-0.270	-0.160	-0.720
2020/01/31 17:10:47.0	357.310	-0.260	-0.180	-0.720
2020/01/31 17:10:47.1	357.340	-0.260	-0.200	-0.720
2020/01/31 17:10:47.2	357.370	-0.250	-0.230	-0.720
2020/01/31 17:10:47.3	357.400	-0.240	-0.260	-0.720
2020/01/31 17:10:47.4	357.430	-0.220	-0.290	-0.720
2020/01/31 17:10:47.5	357.450	-0.210	-0.320	-0.710
2020/01/31 17:10:47.6	357.470	-0.190	-0.350	-0.700
2020/01/31 17:10:47.7	357.490	-0.160	-0.380	-0.690
2020/01/31 17:10:47.8	357.490	-0.140	-0.420	-0.680
2020/01/31 17:10:47.9	357.510	-0.110	-0.450	-0.670
2020/01/31 17:10:48.0	357.520	-0.090	-0.480	-0.650
2020/01/31 17:10:48.1	357.530	-0.060	-0.510	-0.640
2020/01/31 17:10:48.2	357.530	-0.030	-0.540	-0.610
2020/01/31 17:10:48.3	357.530	0.000	-0.560	-0.590
2020/01/31 17:10:48.4	357.530	0.040	-0.580	-0.560
2020/01/31 17:10:48.5	357.520	0.070	-0.600	-0.530
2020/01/31 17:10:48.6	357.520	0.100	-0.610	-0.500
2020/01/31 17:10:48.7	357.500	0.140	-0.630	-0.470
2020/01/31 17:10:48.8	357.490	0.170	-0.630	-0.430
2020/01/31 17:10:48.9	357.470	0.210	-0.630	-0.390
2020/01/31 17:10:49.0	357.460	0.240	-0.630	-0.360
2020/01/31 17:10:49.1	357.440	0.270	-0.630	-0.320
2020/01/31 17:10:49.2	357.420	0.310	-0.620	-0.280
2020/01/31 17:10:49.3	357.400	0.340	-0.600	-0.240
2020/01/31 17:10:49.4	357.380	0.370	-0.590	-0.190
2020/01/31 17:10:49.5	357.360	0.400	-0.560	-0.150
2020/01/31 17:10:49.6	357.330	0.420	-0.540	-0.110
2020/01/31 17:10:49.7	357.310	0.450	-0.510	-0.060
2020/01/31 17:10:49.8	357.290	0.470	-0.480	-0.020
2020/01/31 17:10:49.9	357.260	0.490	-0.440	0.030
2020/01/31 17:10:50.0	357.240	0.510	-0.400	0.070
2020/01/31 17:10:50.1	357.220	0.530	-0.360	0.110
2020/01/31 17:10:50.2	357.190	0.540	-0.320	0.160
2020/01/31 17:10:50.3	357.170	0.560	-0.280	0.200
2020/01/31 17:10:50.4	357.140	0.570	-0.230	0.240
2020/01/31 17:10:50.5	357.110	0.570	-0.180	0.280
2020/01/31 17:10:50.6	357.080	0.580	-0.130	0.320
2020/01/31 17:10:50.7	357.050	0.580	-0.080	0.360
2020/01/31 17:10:50.8	357.040	0.580	-0.040	0.400
2020/01/31 17:10:50.9	357.010	0.570	0.020	0.430
2020/01/31 17:10:51.0	356.980	0.570	0.070	0.460
2020/01/31 17:10:51.1	356.950	0.560	0.120	0.490
2020/01/31 17:10:51.2	356.920	0.540	0.160	0.520
2020/01/31 17:10:51.3	356.890	0.530	0.210	0.540
2020/01/31 17:10:51.4	356.860	0.510	0.260	0.550
2020/01/31 17:10:51.5	356.830	0.490	0.300	0.570
2020/01/31 17:10:51.6	356.800	0.470	0.340	0.570
2020/01/31 17:10:51.7	356.770	0.440	0.380	0.580
2020/01/31 17:10:51.8	356.760	0.410	0.420	0.580
2020/01/31 17:10:51.9	356.740	0.380	0.450	0.570
2020/01/31 17:10:52.0	356.710	0.350	0.480	0.560
2020/01/31 17:10:52.1	356.690	0.310	0.500	0.550
2020/01/31 17:10:52.2	356.670	0.270	0.520	0.530
2020/01/31 17:10:52.3	356.650	0.240	0.530	0.510
2020/01/31 17:10:52.4	356.640	0.200	0.540	0.490
2020/01/31 17:10:52.5	356.620	0.150	0.550	0.470
2020/01/31 17:10:52.6	356.610	0.110	0.550	0.440
2020/01/31 17:10:52.7	356.600	0.070	0.540	0.410
2020/01/31 17:10:52.8	356.590	0.020	0.540	0.380
2020/01/31 17:10:52.9	356.580	-0.020	0.520	0.350
2020/01/31 17:10:53.0	356.570	-0.070	0.500	0.310
2020/01/31 17:10:53.1	356.570	-0.110	0.480	0.270
2020/01/31 17:10:53.2	356.570	-0.160	0.450	0.230
2020/01/31 17:10:53.3	356.560	-0.200	0.410	0.190
2020/01/31 17:10:53.4	356.560	-0.250	0.370	0.140
2020/01/31 17:10:53.5	356.570	-0.290	0.330	0.100
2020/01/31 17:10:53.6	356.570	-0.330	0.270	0.050
2020/01/31 17:10:53.7	356.580	-0.370	0.220	-0.010
2020/01/31 17:10:53.8	356.590	-0.420	0.160	-0.070
2020/01/31 17:10:53.9	356.600	-0.450	0.090	-0.130
2020/01/31 17:10:54.0	356.620	-0.490	0.030	-0.190
2020/01/31 17:10:54.1	356.640	-0.520	-0.050	-0.250
2020/01/31 17:10:54.2	356.670	-0.560	-0.120	-0.320
2020/01/31 17:10:54.3	356.690	-0.580	-0.200	-0.390
2020/01/31 17:10:54.4	356.720	-0.610	-0.280	-0.470
2020/01/31 17:10:54.5	356.760	-0.630	-0.370	-0.540
2020/01/31 17:10:54.6	356.800	-0.650	-0.450	-0.620
2020/01/31 17:10:54.7	356.840	-0.670	-0.540	-0.700
2020/01/31 17:10:54.8	356.890	-0.680	-0.620	-0.780
2020/01/31 17:10:54.9	356.930	-0.690	-0.700	-0.860
2020/01/31 17:10:55.0	356.980	-0.690	-0.790	-0.930
2020/01/31 17:10:55.1	357.030	-0.690	-0.870	-1.010
2020/01/31 17:10:55.2	357.090	-0.690	-0.950	-1.080
2020/01/31 17:10:55.3	357.140	-0.680	-1.020	-1.160
2020/01/31 17:10:55.4	357.200	-0.670	-1.100	-1.230
2020/01/31 17:10:55.5	357.260	-0.660	-1.160	-1.290
2020/01/31 17:10:55.6	357.320	-0.640	-1.220	-1.360
2020/01/31 17:10:55.7	357.380	-0.620	-1.280	-1.410
2020/01/31 17:10:55.8	357.440	-0.590	-1.330	-1.470
2020/01/31 17:10:55.9	357.500	-0.560	-1.360	-1.510
2020/01/31 17:10:56.0	357.560	-0.530	-1.400	-1.560
2020/01/31 17:10:56.1	357.620	-0.500	-1.420	-1.590
2020/01/31 17:10:56.2	357.670	-0.470	-1.440	-1.620
2020/01/31 17:10:56.3	357.730	-0.430	-1.440	-1.640
2020/01/31 17:10:56.4	357.780	-0.400	-1.440	-1.660
2020/01/31 17:10:56.5	357.820	-0.360	-1.430	-1.670
2020/01/31 17:10:56.6	357.860	-0.320	-1.400	-1.670
2020/01/31 17:10:56.7	357.900	-0.290	-1.370	-1.660
2020/01/31 17:10:56.8	357.930	-0.250	-1.340	-1.650
2020/01/31 17:10:56.9	357.950	-0.220	-1.290	-1.630
2020/01/31 17:10:57.0	357.980	-0.180	-1.230	-1.600
2020/01/31 17:10:57.1	358.000	-0.150	-1.170	-1.570
2020/01/31 17:10:57.2	358.010	-0.120	-1.100	-1.530
2020/01/31 17:10:57.3	358.020	-0.090	-1.020	-1.490
2020/01/31 17:10:57.4	358.020	-0.070	-0.940	-1.440
2020/01/31 17:10:57.5	358.020	-0.040	-0.850	-1.390
2020/01/31 17:10:57.6	358.020	-0.020	-0.760	-1.340
2020/01/31 17:10:57.7	358.010	-0.000	-0.660	-1.280
2020/01/31 17:10:57.8	357.990	0.010	-0.560	-1.220
2020/01/31 17:10:57.9	357.980	0.030	-0.460	-1.150
2020/01/31 17:10:58.0	357.960	0.040	-0.370	-1.090
2020/01/31 17:10:58.1	357.940	0.050	-0.270	-1.020
2020/01/31 17:10:58.2	357.910	0.060	-0.170	-0.950
2020/01/31 17:10:58.3	357.880	0.060	-0.080	-0.890
2020/01/31 17:10:58.4	357.850	0.060	0.010	-0.820
2020/01/31 17:10:58.5	357.820	0.070	0.100	-0.750
2020/01/31 17:10:58.6	357.790	0.070	0.180	-0.680
2020/01/31 17:10:58.7	357.760	0.070	0.250	-0.610
2020/01/31 17:10:58.8	357.710	0.060	0.320	-0.540
2020/01/31 17:10:58.9	357.680	0.060	0.380	-0.470
2020/01/31 17:10:59.0	357.640	0.060	0.440	-0.410
2020/01/31 17:10:59.1	357.610	0.060	0.490	-0.340
2020/01/31 17:10:59.2	357.570	0.050	0.530	-0.280
2020/01/31 17:10:59.3	357.530	0.050	0.560	-0.220
2020/01/31 17:10:59.4	357.490	0.050	0.580	-0.160
2020/01/31 17:10:59.5	357.460	0.050	0.600	-0.100
2020/01/31 17:10:59.6	357.420	0.050	0.610	-0.050
2020/01/31 17:10:59.7	357.380	0.050	0.620	0.010
2020/01/31 17:10:59.8	357.350	0.050	0.610	0.060
2020/01/31 17:10:59.9	357.310	0.050	0.600	0.110
2020/01/31 17:11:00.0	357.280	0.060	0.590	0.160
2020/01/31 17:11:00.1	357.240	0.060	0.570	0.210
2020/01/31 17:11:00.2	357.200	0.070	0.550	0.250
2020/01/31 17:11:00.3	357.170	0.080	0.520	0.290
2020/01/31 17:11:00.4	357.130	0.090	0.490	0.340
2020/01/31 17:11:00.5	357.090	0.100	0.450	0.380
2020/01/31 17:11:00.6	357.060	0.120	0.420	0.410
2020/01/31 17:11:00.7	357.020	0.140	0.380	0.450
2020/01/31 17:11:00.8	356.980	0.150	0.340	0.490
2020/01/31 17:11:00.9	356.950	0.170	0.300	0.520
2020/01/31 17:11:01.0	356.910	0.190	0.260	0.550
2020/01/31 17:11:01.1	356.880	0.210	0.220	0.580
2020/01/31 17:11:01.2	356.850	0.240	0.180	0.600
2020/01/31 17:11:01.3	356.820	0.260	0.140	0.620
2020/01/31 17:11:01.4	356.790	0.280	0.100	0.640
2020/01/31 17:11:01.5	356.770	0.310	0.060	0.660
2020/01/31 17:11:01.6	356.740	0.330	0.020	0.670
2020/01/31 17:11:01.7	356.720	0.350	-0.020	0.680
2020/01/31 17:11:01.8	356.710	0.380	-0.060	0.680
2020/01/31 17:11:01.9	356.700	0.400	-0.100	0.690
2020/01/31 17:11:02.0	356.680	0.430	-0.140	0.690
2020/01/31 17:11:02.1	356.670	0.450	-0.170	0.690
2020/01/31 17:11:02.2	356.660	0.470	-0.210	0.680
2020/01/31 17:11:02.3	356.650	0.490	-0.250	0.680
2020/01/31 17:11:02.4	356.650	0.510	-0.290	0.670
2020/01/31 17:11:02.5	356.650	0.530	-0.320	0.650
2020/01/31 17:11:02.6	356.650	0.540	-0.360	0.640
2020/01/31 17:11:02.7	356.660	0.560	-0.400	0.620
2020/01/31 17:11:02.8	356.670	0.570	-0.440	0.610
2020/01/31 17:11:02.9	356.690	0.580	-0.470	0.580
2020/01/31 17:11:03.0	356.700	0.590	-0.510	0.560
2020/01/31 17:11:03.1	356.720	0.600	-0.550	0.530
2020/01/31 17:11:03.2	356.740	0.600	-0.590	0.500
2020/01/31 17:11:03.3	356.770	0.600	-0.620	0.460
2020/01/31 17:11:03.4	356.790	0.600	-0.660	0.430
2020/01/31 17:11:03.5	356.820	0.590	-0.690	0.390
2020/01/31 17:11:03.6	356.850	0.580	-0.720	0.350
2020/01/31 17:11:03.7	356.880	0.570	-0.750	0.310
2020/01/31 17:11:03.8	356.890	0.560	-0.780	0.270
2020/01/31 17:11:03.9	356.920	0.540	-0.800	0.220
2020/01/31 17:11:04.0	356.950	0.520	-0.820	0.180
2020/01/31 17:11:04.1	356.980	0.490	-0.830	0.130
2020/01/31 17:11:04.2	357.010	0.460	-0.840	0.080
2020/01/31 17:11:04.3	357.030	0.430	-0.850	0.040
2020/01/31 17:11:04.4	357.060	0.400	-0.850	-0.010
2020/01/31 17:11:04.5	357.080	0.360	-0.850	-0.060
2020/01/31 17:11:04.6	357.110	0.320	-0.840	-0.110
2020/01/31 17:11:04.7	357.130	0.270	-0.830	-0.160
2020/01/31 17:11:04.8	357.150	0.230	-0.810	-0.210
2020/01/31 17:11:04.9	357.170	0.180	-0.790	-0.260
2020/01/31 17:11:05.0	357.190	0.130	-0.770	-0.310
2020/01/31 17:11:05.1	357.210	0.080	-0.740	-0.350
2020/01/31 17:11:05.2	357.230	0.020	-0.710	-0.400
2020/01/31 17:11:05.3	357.250	-0.030	-0.670	-0.450
2020/01/31 17:11:05.4	357.270	-0.080	-0.640	-0.500
2020/01/31 17:11:05.5	357.290	-0.140	-0.600	-0.540
2020/01/31 17:11:05.6	357.300	-0.190	-0.550	-0.590
2020/01/31 17:11:05.7	357.320	-0.250	-0.510	-0.630
2020/01/31 17:11:05.8	357.320	-0.300	-0.470	-0.670
2020/01/31 17:11:05.9	357.340	-0.350	-0.420	-0.710
2020/01/31 17:11:06.0	357.350	-0.400	-0.380	-0.750
2020/01/31 17:11:06.1	357.370	-0.450	-0.340	-0.790
2020/01/31 17:11:06.2	357.380	-0.490	-0.290	-0.820
2020/01/31 17:11:06.3	357.390	-0.540	-0.250	-0.850
2020/01/31 17:11:06.4	357.400	-0.580	-0.210	-0.880
2020/01/31 17:11:06.5	357.410	-0.620	-0.180	-0.910
2020/01/31 17:11:06.6	357.410	-0.650	-0.140	-0.930
2020/01/31 17:11:06.7	357.420	-0.680	-0.110	-0.960
2020/01/31 17:11:06.8	357.420	-0.710	-0.080	-0.980
2020/01/31 17:11:06.9	357.420	-0.730	-0.050	-0.990
2020/01/31 17:11:07.0	357.420	-0.750	-0.030	-1.010
2020/01/31 17:11:07.1	357.420	-0.760	-0.010	-1.020
2020/01/31 17:11:07.2	357.420	-0.770	0.010	-1.030
2020/01/31 17:11:07.3	357.420	-0.770	0.020	-1.030
2020/01/31 17:11:07.4	357.410	-0.770	0.030	-1.030
2020/01/31 17:11:07.5	357.410	-0.760	0.040	-1.030
2020/01/31 17:11:07.6	357.400	-0.750	0.050	-1.020
2020/01/31 17:11:07.7	357.390	-0.730	0.050	-1.010
2020/01/31 17:11:07.8	357.390	-0.710	0.050	-1.000
2020/01/31 17:11:07.9	357.380	-0.690	0.050	-0.980
2020/01/31 17:11:08.0	357.370	-0.650	0.040	-0.960
2020/01/31 17:11:08.1	357.360	-0.620	0.040	-0.940
2020/01/31 17:11:08.2	357.350	-0.580	0.030	-0.910
2020/01/31 17:11:08.3	357.330	-0.540	0.020	-0.880
2020/01/31 17:11:08.4	357.320	-0.490	0.010	-0.850
2020/01/31 17:11:08.5	357.310	-0.450	-0.010	-0.820
2020/01/31 17:11:08.6	357.300	-0.400	-0.020	-0.780
2020/01/31 17:11:08.7	357.290	-0.340	-0.030	-0.750
2020/01/31 17:11:08.8	357.260	-0.290	-0.050	-0.700
2020/01/31 17:11:08.9	357.250	-0.240	-0.060	-0.660
2020/01/31 17:11:09.0	357.240	-0.180	-0.070	-0.620
2020/01/31 17:11:09.1	357.220	-0.130	-0.080	-0.580
2020/01/31 17:11:09.2	357.210	-0.070	-0.100	-0.540
2020/01/31 17:11:09.3	357.200	-0.020	-0.110	-0.490
2020/01/31 17:11:09.4	357.190	0.030	-0.110	-0.450
2020/01/31 17:11:09.5	357.170	0.080	-0.120	-0.400
2020/01/31 17:11:09.6	357.160	0.130	-0.130	-0.350
2020/01/31 17:11:09.7	357.140	0.170	-0.130	-0.300
2020/01/31 17:11:09.8	357.130	0.210	-0.130	-0.240
2020/01/31 17:11:09.9	357.110	0.250	-0.130	-0.180
2020/01/31 17:11:10.0	357.080	0.280	-0.130	-0.120
2020/01/31 17:11:10.1	357.060	0.310	-0.130	-0.070
2020/01/31 17:11:10.2	357.030	0.340	-0.120	-0.010
2020/01/31 17:11:10.3	357.000	0.350	-0.120	0.050
2020/01/31 17:11:10.4	356.970	0.370	-0.110	0.100
2020/01/31 17:11:10.5	356.930	0.380	-0.100	0.160
2020/01/31 17:11:10.6	356.900	0.380	-0.090	0.210
2020/01/31 17:11:10.7	356.860	0.380	-0.080	0.260
2020/01/31 17:11:10.8	356.850	0.380	-0.070	0.310
2020/01/31 17:11:10.9	356.810	0.370	-0.060	0.350
2020/01/31 17:11:11.0	356.780	0.350	-0.050	0.390
2020/01/31 17:11:11.1	356.740	0.340	-0.040	0.420
2020/01/31 17:11:11.2	356.710	0.320	-0.030	0.460
2020/01/31 17:11:11.3	356.680	0.290	-0.030	0.480
2020/01/31 17:11:11.4	356.650	0.270	-0.020	0.500
2020/01/31 17:11:11.5	356.620	0.240	-0.010	0.520
2020/01/31 17:11:11.6	356.590	0.210	-0.010	0.540
2020/01/31 17:11:11.7	356.570	0.180	-0.010	0.540
2020/01/31 17:11:11.8	356.570	0.150	-0.010	0.550
2020/01/31 17:11:11.9	356.550	0.120	-0.010	0.550
2020/01/31 17:11:12.0	356.540	0.090	-0.020	0.540
2020/01/31 17:11:12.1	356.530	0.060	-0.030	0.530
2020/01/31 17:11:12.2	356.520	0.040	-0.040	0.520
2020/01/31 17:11:12.3	356.520	0.010	-0.050	0.510
2020/01/31 17:11:12.4	356.520	-0.010	-0.070	0.480
2020/01/31 17:11:12.5	356.520	-0.030	-0.090	0.460
2020/01/31 17:11:12.6	356.520	-0.050	-0.120	0.440
2020/01/31 17:11:12.7	356.530	-0.060	-0.140	0.410
2020/01/31 17:11:12.8	356.550	-0.080	-0.170	0.380
2020/01/31 17:11:12.9	356.560	-0.090	-0.200	0.340
2020/01/31 17:11:13.0	356.570	-0.090	-0.230	0.310
2020/01/31 17:11:13.1	356.580	-0.100	-0.270	0.270
2020/01/31 17:11:13.2	356.600	-0.100	-0.300	0.230
2020/01/31 17:11:13.3	356.610	-0.100	-0.340	0.190
2020/01/31 17:11:13.4	356.620	-0.090	-0.370	0.150
2020/01/31 17:11:13.5	356.640	-0.090	-0.410	0.110
2020/01/31 17:11:13.6	356.650	-0.080	-0.440	0.070
2020/01/31 17:11:13.7	356.670	-0.070	-0.480	0.030
2020/01/31 17:11:13.8	356.680	-0.060	-0.510	-0.010
2020/01/31 17:11:13.9	356.700	-0.050	-0.540	-0.040
2020/01/31 17:11:14.0	356.710	-0.040	-0.570	-0.080
2020/01/31 17:11:14.1	356.730	-0.020	-0.600	-0.110
2020/01/31 17:11:14.2	356.740	-0.010	-0.630	-0.140
2020/01/31 17:11:14.3	356.750	0.010	-0.650	-0.170
2020/01/31 17:11:14.4	356.770	0.020	-0.670	-0.200
2020/01/31 17:11:14.5	356.780	0.040	-0.690	-0.220
2020/01/31 17:11:14.6	356.800	0.050	-0.700	-0.250
2020/01/31 17:11:14.7	356.810	0.060	-0.720	-0.270
2020/01/31 17:11:14.8	356.830	0.080	-0.730	-0.290
2020/01/31 17:11:14.9	356.840	0.090	-0.730	-0.310
2020/01/31 17:11:15.0	356.860	0.100	-0.740	-0.320
2020/01/31 17:11:15.1	356.880	0.110	-0.740	-0.340
2020/01/31 17:11:15.2	356.890	0.130	-0.740	-0.350
2020/01/31 17:11:15.3	356.910	0.130	-0.740	-0.370
2020/01/31 17:11:15.4	356.930	0.140	-0.730	-0.380
2020/01/31 17:11:15.5	356.950	0.150	-0.720	-0.390
2020/01/31 17:11:15.6	356.970	0.160	-0.720	-0.400
2020/01/31 17:11:15.7	356.990	0.160	-0.710	-0.410
2020/01/31 17:11:15.8	357.000	0.170	-0.690	-0.420
2020/01/31 17:11:15.9	357.030	0.170	-0.680	-0.430
2020/01/31 17:11:16.0	357.050	0.170	-0.670	-0.440
2020/01/31 17:11:16.1	357.070	0.180	-0.650	-0.450
2020/01/31 17:11:16.2	357.100	0.180	-0.630	-0.460
2020/01/31 17:11:16.3	357.120	0.180	-0.620	-0.470
2020/01/31 17:11:16.4	357.150	0.180	-0.600	-0.470
2020/01/31 17:11:16.5	357.170	0.180	-0.580	-0.480
2020/01/31 17:11:16.6	357.190	0.180	-0.560	-0.490
2020/01/31 17:11:16.7	357.220	0.180	-0.540	-0.500
2020/01/31 17:11:16.8	357.220	0.180	-0.520	-0.510
2020/01/31 17:11:16.9	357.240	0.180	-0.490	-0.510
2020/01/31 17:11:17.0	357.260	0.180	-0.470	-0.520
2020/01/31 17:11:17.1	357.280	0.180	-0.440	-0.520
2020/01/31 17:11:17.2	357.300	0.180	-0.420	-0.520
2020/01/31 17:11:17.3	357.320	0.170	-0.390	-0.520
2020/01/31 17:11:17.4	357.330	0.170	-0.360	-0.520
2020/01/31 17:11:17.5	357.340	0.170	-0.330	-0.510
2020/01/31 17:11:17.6	357.350	0.170	-0.300	-0.500
2020/01/31 17:11:17.7	357.360	0.160	-0.270	-0.490
2020/01/31 17:11:17.8	357.390	0.160	-0.240	-0.480
2020/01/31 17:11:17.9	357.390	0.150	-0.210	-0.470
2020/01/31 17:11:18.0	357.400	0.150	-0.180	-0.450
2020/01/31 17:11:18.1	357.400	0.140	-0.150	-0.440
2020/01/31 17:11:18.2	357.400	0.130	-0.110	-0.420
2020/01/31 17:11:18.3	357.410	0.130	-0.080	-0.410
2020/01/31 17:11:18.4	357.410	0.120	-0.050	-0.390
2020/01/31 17:11:18.5	357.410	0.110	-0.020	-0.370
2020/01/31 17:11:18.6	357.400	0.090	0.010	-0.360
2020/01/31 17:11:18.7	357.400	0.080	0.030	-0.340
2020/01/31 17:11:18.8	357.370	0.070	0.060	-0.320
2020/01/31 17:11:18.9	357.360	0.050	0.090	-0.300
2020/01/31 17:11:19.0	357.350	0.040	0.110	-0.280
2020/01/31 17:11:19.1	357.340	0.020	0.130	-0.260
2020/01/31 17:11:19.2	357.320	0.000	0.150	-0.240
2020/01/31 17:11:19.3	357.300	-0.010	0.170	-0.220
2020/01/31 17:11:19.4	357.270	-0.030	0.190	-0.190
2020/01/31 17:11:19.5	357.240	-0.050	0.200	-0.170
2020/01/31 17:11:19.6	357.210	-0.070	0.210	-0.140
2020/01/31 17:11:19.7	357.180	-0.090	0.230	-0.120
2020/01/31 17:11:19.8	357.140	-0.110	0.230	-0.090
2020/01/31 17:11:19.9	357.100	-0.120	0.240	-0.060
2020/01/31 17:11:20.0	357.050	-0.140	0.250	-0.040
2020/01/31 17:11:20.1	357.010	-0.160	0.260	-0.010
2020/01/31 17:11:20.2	356.960	-0.170	0.260	0.020
2020/01/31 17:11:20.3	356.910	-0.180	0.270	0.050
2020/01/31 17:11:20.4	356.870	-0.190	0.270	0.080
2020/01/31 17:11:20.5	356.820	-0.200	0.270	0.100
2020/01/31 17:11:20.6	356.760	-0.210	0.270	0.130
2020/01/31 17:11:20.7	356.720	-0.210	0.270	0.160
2020/01/31 17:11:20.8	356.670	-0.220	0.260	0.190
2020/01/31 17:11:20.9	356.620	-0.220	0.250	0.210
2020/01/31 17:11:21.0	356.570	-0.210	0.240	0.230
2020/01/31 17:11:21.1	356.530	-0.210	0.230	0.260
2020/01/31 17:11:21.2	356.490	-0.200	0.220	0.280
2020/01/31 17:11:21.3	356.450	-0.190	0.200	0.290
2020/01/31 17:11:21.4	356.410	-0.180	0.180	0.310
2020/01/31 17:11:21.5	356.380	-0.160	0.160	0.320
2020/01/31 17:11:21.6	356.350	-0.140	0.130	0.330
2020/01/31 17:11:21.7	356.330	-0.130	0.100	0.330
2020/01/31 17:11:21.8	356.300	-0.100	0.070	0.330
2020/01/31 17:11:21.9	356.290	-0.080	0.030	0.330
2020/01/31 17:11:22.0	356.270	-0.060	-0.000	0.310
2020/01/31 17:11:22.1	356.270	-0.040	-0.040	0.300
2020/01/31 17:11:22.2	356.260	-0.010	-0.090	0.270
2020/01/31 17:11:22.3	356.260	0.010	-0.130	0.250
2020/01/31 17:11:22.4	356.270	0.040	-0.180	0.220
2020/01/31 17:11:22.5	356.270	0.060	-0.230	0.180
2020/01/31 17:11:22.6	356.290	0.090	-0.280	0.150
2020/01/31 17:11:22.7	356.300	0.110	-0.330	0.110
2020/01/31 17:11:22.8	356.320	0.130	-0.380	0.060
2020/01/31 17:11:22.9	356.340	0.150	-0.440	0.020
2020/01/31 17:11:23.0	356.370	0.170	-0.490	-0.030
2020/01/31 17:11:23.1	356.390	0.180	-0.540	-0.080
2020/01/31 17:11:23.2	356.420	0.190	-0.590	-0.130
2020/01/31 17:11:23.3	356.460	0.200	-0.630	-0.180
2020/01/31 17:11:23.4	356.490	0.200	-0.680	-0.240
2020/01/31 17:11:23.5	356.530	0.210	-0.720	-0.290
2020/01/31 17:11:23.6	356.570	0.200	-0.760	-0.340
2020/01/31 17:11:23.7	356.610	0.200	-0.790	-0.390
2020/01/31 17:11:23.8	356.650	0.190	-0.820	-0.440
2020/01/31 17:11:23.9	356.700	0.180	-0.840	-0.490
2020/01/31 17:11:24.0	356.740	0.160	-0.860	-0.540
2020/01/31 17:11:24.1	356.780	0.140	-0.880	-0.590
2020/01/31 17:11:24.2	356.830	0.110	-0.880	-0.640
2020/01/31 17:11:24.3	356.870	0.090	-0.880	-0.680
2020/01/31 17:11:24.4	356.920	0.060	-0.870	-0.730
2020/01/31 17:11:24.5	356.960	0.020	-0.860	-0.770
2020/01/31 17:11:24.6	357.000	-0.020	-0.840	-0.810
2020/01/31 17:11:24.7	357.040	-0.060	-0.820	-0.850
2020/01/31 17:11:24.8	357.090	-0.100	-0.780	-0.880
2020/01/31 17:11:24.9	357.130	-0.140	-0.740	-0.910
2020/01/31 17:11:25.0	357.170	-0.190	-0.700	-0.940
2020/01/31 17:11:25.1	357.200	-0.230	-0.650	-0.970
2020/01/31 17:11:25.2	357.230	-0.280	-0.600	-0.990
2020/01/31 17:11:25.3	357.260	-0.330	-0.540	-1.010
2020/01/31 17:11:25.4	357.290	-0.370	-0.480	-1.030
2020/01/31 17:11:25.5	357.310	-0.420	-0.420	-1.040
2020/01/31 17:11:25.6	357.340	-0.460	-0.360	-1.040
2020/01/31 17:11:25.7	357.360	-0.510	-0.290	-1.050
2020/01/31 17:11:25.8	357.380	-0.550	-0.230	-1.040
2020/01/31 17:11:25.9	357.390	-0.580	-0.160	-1.040
2020/01/31 17:11:26.0	357.410	-0.620	-0.100	-1.030
2020/01/31 17:11:26.1	357.420	-0.640	-0.040	-1.010
2020/01/31 17:11:26.2	357.420	-0.670	0.020	-0.990
2020/01/31 17:11:26.3	357.430	-0.690	0.070	-0.970
2020/01/31 17:11:26.4	357.430	-0.700	0.120	-0.940
2020/01/31 17:11:26.5	357.440	-0.710	0.160	-0.920
2020/01/31 17:11:26.6	357.440	-0.710	0.190	-0.880
2020/01/31 17:11:26.7	357.430	-0.710	0.220	-0.850
2020/01/31 17:11:26.8	357.430	-0.700	0.250	-0.810
2020/01/31 17:11:26.9	357.420	-0.690	0.260	-0.770
2020/01/31 17:11:27.0	357.420	-0.670	0.270	-0.720
2020/01/31 17:11:27.1	357.410	-0.640	0.270	-0.680
2020/01/31 17:11:27.2	357.400	-0.610	0.260	-0.630
2020/01/31 17:11:27.3	357.390	-0.570	0.250	-0.590
2020/01/31 17:11:27.4	357.380	-0.530	0.220	-0.540
2020/01/31 17:11:27.5	357.370	-0.480	0.190	-0.490
2020/01/31 17:11:27.6	357.350	-0.430	0.160	-0.440
2020/01/31 17:11:27.7	357.340	-0.370	0.120	-0.390
2020/01/31 17:11:27.8	357.290	-0.310	0.070	-0.340
2020/01/31 17:11:27.9	357.280	-0.250	0.020	-0.290
2020/01/31 17:11:28.0	357.260	-0.180	-0.030	-0.240
2020/01/31 17:11:28.1	357.240	-0.110	-0.080	-0.200
2020/01/31 17:11:28.2	357.220	-0.040	-0.140	-0.150
2020/01/31 17:11:28.3	357.200	0.030	-0.200	-0.100
2020/01/31 17:11:28.4	357.180	0.100	-0.250	-0.060
2020/01/31 17:11:28.5	357.160	0.180	-0.310	-0.020
2020/01/31 17:11:28.6	357.130	0.250	-0.360	0.030
2020/01/31 17:11:28.7	357.100	0.320	-0.420	0.070
2020/01/31 17:11:28.8	357.090	0.390	-0.470	0.110
2020/01/31 17:11:28.9	357.060	0.460	-0.510	0.150
2020/01/31 17:11:29.0	357.030	0.530	-0.560	0.190
2020/01/31 17:11:29.1	357.000	0.600	-0.590	0.230
2020/01/31 17:11:29.2	356.970	0.660	-0.630	0.270
2020/01/31 17:11:29.3	356.930	0.720	-0.650	0.310
2020/01/31 17:11:29.4	356.900	0.770	-0.670	0.340
2020/01/31 17:11:29.5	356.870	0.820	-0.690	0.370
2020/01/31 17:11:29.6	356.830	0.860	-0.690	0.410
2020/01/31 17:11:29.7	356.800	0.900	-0.690	0.430
2020/01/31 17:11:29.8	356.780	0.940	-0.690	0.470
2020/01/31 17:11:29.9	356.750	0.960	-0.680	0.490
2020/01/31 17:11:30.0	356.720	0.980	-0.660	0.520
2020/01/31 17:11:30.1	356.690	1.000	-0.630	0.530
2020/01/31 17:11:30.2	356.660	1.010	-0.600	0.550
2020/01/31 17:11:30.3	356.630	1.010	-0.570	0.560
2020/01/31 17:11:30.4	356.610	1.000	-0.530	0.570
2020/01/31 17:11:30.5	356.590	0.990	-0.490	0.570
2020/01/31 17:11:30.6	356.570	0.980	-0.450	0.570
2020/01/31 17:11:30.7	356.550	0.960	-0.400	0.560
2020/01/31 17:11:30.8	356.530	0.930	-0.360	0.550
2020/01/31 17:11:30.9	356.520	0.890	-0.310	0.530
2020/01/31 17:11:31.0	356.510	0.860	-0.270	0.510
2020/01/31 17:11:31.1	356.510	0.810	-0.220	0.480
2020/01/31 17:11:31.2	356.510	0.770	-0.180	0.440
2020/01/31 17:11:31.3	356.510	0.710	-0.140	0.400
2020/01/31 17:11:31.4	356.520	0.660	-0.100	0.360
2020/01/31 17:11:31.5	356.530	0.600	-0.070	0.310
2020/01/31 17:11:31.6	356.550	0.540	-0.040	0.250
2020/01/31 17:11:31.7	356.560	0.480	-0.010	0.190
2020/01/31 17:11:31.8	356.580	0.410	0.010	0.130
2020/01/31 17:11:31.9	356.600	0.350	0.030	0.060
2020/01/31 17:11:32.0	356.630	0.280	0.050	-0.010
2020/01/31 17:11:32.1	356.650	0.210	0.060	-0.080
2020/01/31 17:11:32.2	356.680	0.140	0.070	-0.150
2020/01/31 17:11:32.3	356.700	0.070	0.070	-0.230
2020/01/31 17:11:32.4	356.730	0.000	0.080	-0.300
2020/01/31 17:11:32.5	356.760	-0.070	0.080	-0.370
2020/01/31 17:11:32.6	356.780	-0.130	0.070	-0.450
2020/01/31 17:11:32.7	356.810	-0.200	0.070	-0.520
2020/01/31 17:11:32.8	356.850	-0.260	0.060	-0.590
2020/01/31 17:11:32.9	356.880	-0.330	0.040	-0.660
2020/01/31 17:11:33.0	356.910	-0.380	0.030	-0.730
2020/01/31 17:11:33.1	356.940	-0.440	0.020	-0.790
2020/01/31 17:11:33.2	356.980	-0.490	-0.000	-0.860
2020/01/31 17:11:33.3	357.010	-0.540	-0.020	-0.920
2020/01/31 17:11:33.4	357.050	-0.590	-0.040	-0.980
2020/01/31 17:11:33.5	357.090	-0.630	-0.060	-1.040
2020/01/31 17:11:33.6	357.130	-0.670	-0.090	-1.100
2020/01/31 17:11:33.7	357.170	-0.710	-0.120	-1.150
2020/01/31 17:11:33.8	357.200	-0.740	-0.140	-1.210
2020/01/31 17:11:33.9	357.240	-0.760	-0.170	-1.260
2020/01/31 17:11:34.0	357.290	-0.780	-0.200	-1.320
2020/01/31 17:11:34.1	357.340	-0.800	-0.240	-1.370
2020/01/31 17:11:34.2	357.390	-0.810	-0.270	-1.420
2020/01/31 17:11:34.3	357.440	-0.820	-0.300	-1.470
2020/01/31 17:11:34.4	357.500	-0.820	-0.340	-1.520
2020/01/31 17:11:34.5	357.550	-0.820	-0.370	-1.560
2020/01/31 17:11:34.6	357.610	-0.820	-0.410	-1.600
2020/01/31 17:11:34.7	357.660	-0.810	-0.440	-1.640
2020/01/31 17:11:34.8	357.710	-0.800	-0.470	-1.680
2020/01/31 17:11:34.9	357.760	-0.780	-0.500	-1.710
2020/01/31 17:11:35.0	357.810	-0.770	-0.530	-1.730
2020/01/31 17:11:35.1	357.860	-0.740	-0.550	-1.750
2020/01/31 17:11:35.2	357.900	-0.720	-0.570	-1.760
2020/01/31 17:11:35.3	357.950	-0.690	-0.580	-1.770
2020/01/31 17:11:35.4	357.990	-0.660	-0.590	-1.770
2020/01/31 17:11:35.5	358.020	-0.630	-0.600	-1.760
2020/01/31 17:11:35.6	358.050	-0.600	-0.600	-1.750
2020/01/31 17:11:35.7	358.080	-0.560	-0.600	-1.730
2020/01/31 17:11:35.8	358.100	-0.520	-0.590	-1.690
2020/01/31 17:11:35.9	358.110	-0.480	-0.580	-1.650
2020/01/31 17:11:36.0	358.130	-0.440	-0.560	-1.610
2020/01/31 17:11:36.1	358.130	-0.400	-0.540	-1.560
2020/01/31 17:11:36.2	358.130	-0.360	-0.520	-1.510
2020/01/31 17:11:36.3	358.130	-0.320	-0.490	-1.450
2020/01/31 17:11:36.4	358.120	-0.280	-0.460	-1.380
2020/01/31 17:11:36.5	358.110	-0.240	-0.430	-1.310
2020/01/31 17:11:36.6	358.090	-0.200	-0.390	-1.230
2020/01/31 17:11:36.7	358.070	-0.160	-0.360	-1.160
2020/01/31 17:11:36.8	358.040	-0.120	-0.320	-1.070
2020/01/31 17:11:36.9	358.010	-0.090	-0.280	-0.990
2020/01/31 17:11:37.0	357.980	-0.050	-0.240	-0.900
2020/01/31 17:11:37.1	357.940	-0.020	-0.210	-0.820
2020/01/31 17:11:37.2	357.900	0.020	-0.170	-0.730
2020/01/31 17:11:37.3	357.860	0.050	-0.140	-0.650
2020/01/31 17:11:37.4	357.820	0.080	-0.110	-0.570
2020/01/31 17:11:37.5	357.770	0.110	-0.080	-0.490
2020/01/31 17:11:37.6	357.730	0.140	-0.050	-0.410
2020/01/31 17:11:37.7	357.680	0.170	-0.030	-0.330
2020/01/31 17:11:37.8	357.610	0.190	-0.010	-0.260
2020/01/31 17:11:37.9	357.560	0.220	0.000	-0.190
2020/01/31 17:11:38.0	357.510	0.240	0.020	-0.120
2020/01/31 17:11:38.1	357.460	0.260	0.030	-0.060
2020/01/31 17:11:38.2	357.400	0.280	0.040	-0.000
2020/01/31 17:11:38.3	357.350	0.300	0.040	0.050
2020/01/31 17:11:38.4	357.300	0.320	0.040	0.100
2020/01/31 17:11:38.5	357.250	0.330	0.040	0.140
2020/01/31 17:11:38.6	357.200	0.340	0.040	0.180
2020/01/31 17:11:38.7	357.150	0.350	0.030	0.210
2020/01/31 17:11:38.8	357.120	0.360	0.020	0.240
2020/01/31 17:11:38.9	357.070	0.370	0.010	0.270
2020/01/31 17:11:39.0	357.030	0.370	-0.000	0.280
2020/01/31 17:11:39.1	356.980	0.380	-0.010	0.300
2020/01/31 17:11:39.2	356.940	0.380	-0.030	0.300
2020/01/31 17:11:39.3	356.900	0.380	-0.040	0.310
2020/01/31 17:11:39.4	356.860	0.380	-0.060	0.300
2020/01/31 17:11:39.5	356.830	0.370	-0.080	0.300
2020/01/31 17:11:39.6	356.800	0.370	-0.090	0.280
2020/01/31 17:11:39.7	356.770	0.360	-0.110	0.270
2020/01/31 17:11:39.8	356.740	0.350	-0.130	0.250
2020/01/31 17:11:39.9	356.720	0.340	-0.140	0.220
2020/01/31 17:11:40.0	356.710	0.330	-0.160	0.200
2020/01/31 17:11:40.1	356.700	0.320	-0.180	0.160
2020/01/31 17:11:40.2	356.690	0.310	-0.200	0.120
2020/01/31 17:11:40.3	356.690	0.300	-0.220	0.080
2020/01/31 17:11:40.4	356.700	0.290	-0.250	0.040
2020/01/31 17:11:40.5	356.710	0.270	-0.270	-0.010
2020/01/31 17:11:40.6	356.720	0.260	-0.290	-0.070
2020/01/31 17:11:40.7	356.740	0.250	-0.310	-0.120
2020/01/31 17:11:40.8	356.780	0.240	-0.340	-0.180
2020/01/31 17:11:40.9	356.800	0.230	-0.360	-0.240
2020/01/31 17:11:41.0	356.840	0.220	-0.390	-0.300
2020/01/31 17:11:41.1	356.870	0.210	-0.410	-0.370
2020/01/31 17:11:41.2	356.910	0.200	-0.440	-0.430
2020/01/31 17:11:41.3	356.960	0.190	-0.460	-0.490
2020/01/31 17:11:41.4	357.000	0.180	-0.480	-0.550
2020/01/31 17:11:41.5	357.050	0.170	-0.510	-0.620
2020/01/31 17:11:41.6	357.100	0.160	-0.530	-0.680
2020/01/31 17:11:41.7	357.150	0.150	-0.550	-0.730
2020/01/31 17:11:41.8	357.200	0.150	-0.560	-0.790
2020/01/31 17:11:41.9	357.250	0.140	-0.580	-0.840
2020/01/31 17:11:42.0	357.300	0.130	-0.590	-0.890
2020/01/31 17:11:42.1	357.350	0.130	-0.600	-0.930
2020/01/31 17:11:42.2	357.400	0.120	-0.610	-0.970
2020/01/31 17:11:42.3	357.450	0.120	-0.620	-1.010
2020/01/31 17:11:42.4	357.500	0.110	-0.620	-1.040
2020/01/31 17:11:42.5	357.550	0.100	-0.620	-1.070
2020/01/31 17:11:42.6	357.600	0.100	-0.620	-1.100
2020/01/31 17:11:42.7	357.650	0.090	-0.620	-1.120
2020/01/31 17:11:42.8	357.700	0.080	-0.610	-1.130
2020/01/31 17:11:42.9	357.740	0.080	-0.600	-1.150
2020/01/31 17:11:43.0	357.780	0.070	-0.590	-1.160
2020/01/31 17:11:43.1	357.830	0.060	-0.580	-1.170
2020/01/31 17:11:43.2	357.870	0.050	-0.560	-1.170
2020/01/31 17:11:43.3	357.900	0.040	-0.550	-1.170
2020/01/31 17:11:43.4	357.940	0.040	-0.530	-1.170
2020/01/31 17:11:43.5	357.980	0.030	-0.510	-1.160
2020/01/31 17:11:43.6	358.010	0.020	-0.480	-1.160
2020/01/31 17:11:43.7	358.040	0.010	-0.460	-1.140
2020/01/31 17:11:43.8	358.060	-0.000	-0.430	-1.130
2020/01/31 17:11:43.9	358.090	-0.010	-0.400	-1.110
2020/01/31 17:11:44.0	358.110	-0.020	-0.370	-1.100
2020/01/31 17:11:44.1	358.140	-0.030	-0.340	-1.080
2020/01/31 17:11:44.2	358.160	-0.050	-0.310	-1.050
2020/01/31 17:11:44.3	358.180	-0.060	-0.280	-1.030
2020/01/31 17:11:44.4	358.200	-0.070	-0.240	-1.000
2020/01/31 17:11:44.5	358.210	-0.080	-0.210	-0.970
2020/01/31 17:11:44.6	358.230	-0.090	-0.180	-0.930
2020/01/31 17:11:44.7	358.240	-0.110	-0.140	-0.900
2020/01/31 17:11:44.8	358.230	-0.120	-0.110	-0.860
2020/01/31 17:11:44.9	358.240	-0.140	-0.070	-0.820
2020/01/31 17:11:45.0	358.240	-0.150	-0.040	-0.790
2020/01/31 17:11:45.1	358.240	-0.170	-0.010	-0.750
2020/01/31 17:11:45.2	358.240	-0.180	0.030	-0.710
2020/01/31 17:11:45.3	358.240	-0.200	0.060	-0.680
2020/01/31 17:11:45.4	358.230	-0.220	0.090	-0.640
2020/01/31 17:11:45.5	358.220	-0.230	0.120	-0.600
2020/01/31 17:11:45.6	358.210	-0.250	0.150	-0.570
2020/01/31 17:11:45.7	358.200	-0.270	0.180	-0.540
2020/01/31 17:11:45.8	358.180	-0.280	0.200	-0.500
2020/01/31 17:11:45.9	358.170	-0.300	0.220	-0.470
2020/01/31 17:11:46.0	358.150	-0.310	0.240	-0.440
2020/01/31 17:11:46.1	358.130	-0.330	0.260	-0.420
2020/01/31 17:11:46.2	358.110	-0.340	0.270	-0.390
2020/01/31 17:11:46.3	358.090	-0.350	0.290	-0.360
2020/01/31 17:11:46.4	358.070	-0.370	0.290	-0.340
2020/01/31 17:11:46.5	358.040	-0.370	0.300	-0.310
2020/01/31 17:11:46.6	358.020	-0.380	0.300	-0.290
2020/01/31 17:11:46.7	358.000	-0.390	0.300	-0.270
2020/01/31 17:11:46.8	357.960	-0.390	0.300	-0.250
2020/01/31 17:11:46.9	357.940	-0.390	0.290	-0.230
2020/01/31 17:11:47.0	357.910	-0.390	0.280	-0.210
2020/01/31 17:11:47.1	357.890	-0.390	0.260	-0.200
2020/01/31 17:11:47.2	357.870	-0.380	0.240	-0.190
2020/01/31 17:11:47.3	357.840	-0.370	0.220	-0.180
2020/01/31 17:11:47.4	357.820	-0.360	0.200	-0.170
2020/01/31 17:11:47.5	357.800	-0.350	0.170	-0.160
2020/01/31 17:11:47.6	357.770	-0.340	0.140	-0.150
2020/01/31 17:11:47.7	357.750	-0.320	0.100	-0.150
2020/01/31 17:11:47.8	357.740	-0.300	0.070	-0.140
2020/01/31 17:11:47.9	357.720	-0.280	0.030	-0.140
2020/01/31 17:11:48.0	357.690	-0.250	-0.010	-0.140
2020/01/31 17:11:48.1	357.660	-0.230	-0.050	-0.140
2020/01/31 17:11:48.2	357.640	-0.200	-0.100	-0.140
2020/01/31 17:11:48.3	357.610	-0.180	-0.140	-0.140
2020/01/31 17:11:48.4	357.580	-0.150	-0.180	-0.140
2020/01/31 17:11:48.5	357.540	-0.120	-0.230	-0.150
2020/01/31 17:11:48.6	357.510	-0.090	-0.270	-0.150
2020/01/31 17:11:48.7	357.480	-0.060	-0.310	-0.150
2020/01/31 17:11:48.8	357.440	-0.030	-0.350	-0.160
2020/01/31 17:11:48.9	357.410	0.010	-0.390	-0.170
2020/01/31 17:11:49.0	357.370	0.040	-0.430	-0.170
2020/01/31 17:11:49.1	357.340	0.070	-0.470	-0.180
2020/01/31 17:11:49.2	357.300	0.100	-0.510	-0.190
2020/01/31 17:11:49.3	357.270	0.120	-0.540	-0.200
2020/01/31 17:11:49.4	357.240	0.150	-0.570	-0.200
2020/01/31 17:11:49.5	357.210	0.180	-0.600	-0.210
2020/01/31 17:11:49.6	357.190	0.210	-0.630	-0.220
2020/01/31 17:11:49.7	357.160	0.230	-0.660	-0.230
2020/01/31 17:11:49.8	357.140	0.260	-0.690	-0.240
2020/01/31 17:11:49.9	357.120	0.280	-0.710	-0.250
2020/01/31 17:11:50.0	357.110	0.300	-0.740	-0.270
2020/01/31 17:11:50.1	357.100	0.330	-0.760	-0.280
2020/01/31 17:11:50.2	357.100	0.350	-0.780	-0.290
2020/01/31 17:11:50.3	357.100	0.370	-0.810	-0.310
2020/01/31 17:11:50.4	357.110	0.390	-0.830	-0.320
2020/01/31 17:11:50.5	357.120	0.400	-0.840	-0.340
2020/01/31 17:11:50.6	357.130	0.420	-0.860	-0.350
2020/01/31 17:11:50.7	357.150	0.440	-0.880	-0.370
2020/01/31 17:11:50.8	357.180	0.450	-0.890	-0.390
2020/01/31 17:11:50.9	357.200	0.460	-0.900	-0.400
2020/01/31 17:11:51.0	357.230	0.470	-0.900	-0.420
2020/01/31 17:11:51.1	357.260	0.480	-0.910	-0.440
2020/01/31 17:11:51.2	357.280	0.490	-0.910	-0.460
2020/01/31 17:11:51.3	357.320	0.500	-0.910	-0.480
2020/01/31 17:11:51.4	357.350	0.500	-0.910	-0.500
2020/01/31 17:11:51.5	357.380	0.500	-0.900	-0.520
2020/01/31 17:11:51.6	357.420	0.500	-0.890	-0.540
2020/01/31 17:11:51.7	357.450	0.500	-0.870	-0.560
2020/01/31 17:11:51.8	357.500	0.500	-0.850	-0.570
2020/01/31 17:11:51.9	357.540	0.490	-0.820	-0.590
2020/01/31 17:11:52.0	357.570	0.480	-0.790	-0.600
2020/01/31 17:11:52.1	357.610	0.470	-0.760	-0.620
2020/01/31 17:11:52.2	357.640	0.460	-0.720	-0.630
2020/01/31 17:11:52.3	357.680	0.440	-0.680	-0.640
2020/01/31 17:11:52.4	357.710	0.420	-0.630	-0.640
2020/01/31 17:11:52.5	357.740	0.400	-0.580	-0.640
2020/01/31 17:11:52.6	357.760	0.380	-0.520	-0.640
2020/01/31 17:11:52.7	357.790	0.360	-0.460	-0.640
2020/01/31 17:11:52.8	357.810	0.330	-0.400	-0.630
2020/01/31 17:11:52.9	357.830	0.300	-0.340	-0.620
2020/01/31 17:11:53.0	357.850	0.270	-0.270	-0.610
2020/01/31 17:11:53.1	357.860	0.240	-0.200	-0.590
2020/01/31 17:11:53.2	357.870	0.210	-0.140	-0.580
2020/01/31 17:11:53.3	357.880	0.170	-0.070	-0.560
2020/01/31 17:11:53.4	357.890	0.140	-0.010	-0.530
2020/01/31 17:11:53.5	357.900	0.100	0.050	-0.510
2020/01/31 17:11:53.6	357.900	0.070	0.110	-0.490
2020/01/31 17:11:53.7	357.900	0.030	0.170	-0.460
2020/01/31 17:11:53.8	357.910	-0.010	0.230	-0.440
2020/01/31 17:11:53.9	357.910	-0.040	0.270	-0.410
2020/01/31 17:11:54.0	357.900	-0.080	0.310	-0.390
2020/01/31 17:11:54.1	357.900	-0.110	0.350	-0.370
2020/01/31 17:11:54.2	357.900	-0.140	0.380	-0.350
2020/01/31 17:11:54.3	357.900	-0.180	0.410	-0.340
2020/01/31 17:11:54.4	357.900	-0.210	0.420	-0.320
2020/01/31 17:11:54.5	357.900	-0.230	0.440	-0.310
2020/01/31 17:11:54.6	357.900	-0.260	0.440	-0.310
2020/01/31 17:11:54.7	357.900	-0.290	0.440	-0.300
2020/01/31 17:11:54.8	357.900	-0.310	0.430	-0.310
2020/01/31 17:11:54.9	357.900	-0.330	0.410	-0.310
2020/01/31 17:11:55.0	357.910	-0.350	0.390	-0.320
2020/01/31 17:11:55.1	357.920	-0.370	0.360	-0.340
2020/01/31 17:11:55.2	357.930	-0.380	0.320	-0.360
2020/01/31 17:11:55.3	357.940	-0.390	0.280	-0.390
2020/01/31 17:11:55.4	357.960	-0.400	0.240	-0.420
2020/01/31 17:11:55.5	357.980	-0.410	0.190	-0.450
2020/01/31 17:11:55.6	358.000	-0.410	0.140	-0.490
2020/01/31 17:11:55.7	358.020	-0.420	0.090	-0.540
2020/01/31 17:11:55.8	358.040	-0.420	0.030	-0.580
2020/01/31 17:11:55.9	358.070	-0.420	-0.030	-0.630
2020/01/31 17:11:56.0	358.090	-0.410	-0.080	-0.670
2020/01/31 17:11:56.1	358.110	-0.410	-0.140	-0.720
2020/01/31 17:11:56.2	358.140	-0.400	-0.190	-0.770
2020/01/31 17:11:56.3	358.160	-0.400	-0.240	-0.810
2020/01/31 17:11:56.4	358.180	-0.390	-0.290	-0.860
2020/01/31 17:11:56.5	358.200	-0.380	-0.330	-0.900
2020/01/31 17:11:56.6	358.210	-0.370	-0.370	-0.940
2020/01/31 17:11:56.7	358.230	-0.350	-0.410	-0.970
2020/01/31 17:11:56.8	358.250	-0.340	-0.430	-1.010
2020/01/31 17:11:56.9	358.260	-0.330	-0.450	-1.030
2020/01/31 17:11:57.0	358.260	-0.310	-0.470	-1.060
2020/01/31 17:11:57.1	358.270	-0.300	-0.480	-1.070
2020/01/31 17:11:57.2	358.270	-0.290	-0.490	-1.080
2020/01/31 17:11:57.3	358.270	-0.270	-0.490	-1.090
2020/01/31 17:11:57.4	358.260	-0.260	-0.480	-1.090
2020/01/31 17:11:57.5	358.260	-0.240	-0.470	-1.080
2020/01/31 17:11:57.6	358.250	-0.230	-0.460	-1.070
2020/01/31 17:11:57.7	358.230	-0.210	-0.440	-1.050
2020/01/31 17:11:57.8	358.210	-0.200	-0.410	-1.030
2020/01/31 17:11:57.9	358.190	-0.180	-0.390	-1.000
2020/01/31 17:11:58.0	358.170	-0.170	-0.360	-0.970
2020/01/31 17:11:58.1	358.150	-0.150	-0.330	-0.940
2020/01/31 17:11:58.2	358.130	-0.140	-0.300	-0.900
2020/01/31 17:11:58.3	358.110	-0.120	-0.270	-0.860
2020/01/31 17:11:58.4	358.090	-0.110	-0.240	-0.820
2020/01/31 17:11:58.5	358.070	-0.090	-0.210	-0.780
2020/01/31 17:11:58.6	358.040	-0.080	-0.180	-0.740
2020/01/31 17:11:58.7	358.020	-0.060	-0.160	-0.690
2020/01/31 17:11:58.8	358.000	-0.050	-0.130	-0.650
2020/01/31 17:11:58.9	357.970	-0.030	-0.110	-0.600
2020/01/31 17:11:59.0	357.950	-0.020	-0.090	-0.550
2020/01/31 17:11:59.1	357.930	0.000	-0.080	-0.510
2020/01/31 17:11:59.2	357.910	0.020	-0.070	-0.460
2020/01/31 17:11:59.3	357.890	0.030	-0.060	-0.420
2020/01/31 17:11:59.4	357.860	0.050	-0.050	-0.370
2020/01/31 17:11:59.5	357.840	0.070	-0.040	-0.320
2020/01/31 17:11:59.6	357.820	0.090	-0.040	-0.280
2020/01/31 17:11:59.7	357.790	0.100	-0.040	-0.230
2020/01/31 17:11:59.8	357.770	0.120	-0.040	-0.180
2020/01/31 17:11:59.9	357.750	0.140	-0.050	-0.140
2020/01/31 17:12:00.0	357.720	0.150	-0.050	-0.100
2020/01/31 17:12:00.1	357.700	0.170	-0.060	-0.050
2020/01/31 17:12:00.2	357.670	0.180	-0.060	-0.010
2020/01/31 17:12:00.3	357.650	0.200	-0.070	0.020
2020/01/31 17:12:00.4	357.620	0.210	-0.080	0.060
2020/01/31 17:12:00.5	357.590	0.220	-0.090	0.100
2020/01/31 17:12:00.6	357.570	0.240	-0.100	0.130
2020/01/31 17:12:00.7	357.540	0.250	-0.110	0.170
2020/01/31 17:12:00.8	357.510	0.260	-0.120	0.200
2020/01/31 17:12:00.9	357.490	0.270	-0.130	0.230
2020/01/31 17:12:01.0	357.460	0.270	-0.140	0.260
2020/01/31 17:12:01.1	357.440	0.280	-0.150	0.280
2020/01/31 17:12:01.2	357.420	0.290	-0.160	0.310
2020/01/31 17:12:01.3	357.400	0.300	-0.170	0.330
2020/01/31 17:12:01.4	357.390	0.300	-0.180	0.340
2020/01/31 17:12:01.5	357.370	0.300	-0.190	0.360
2020/01/31 17:12:01.6	357.360	0.310	-0.210	0.370
2020/01/31 17:12:01.7	357.350	0.310	-0.220	0.380
2020/01/31 17:12:01.8	357.350	0.310	-0.240	0.380
2020/01/31 17:12:01.9	357.350	0.310	-0.250	0.380
2020/01/31 17:12:02.0	357.340	0.310	-0.270	0.380
2020/01/31 17:12:02.1	357.350	0.310	-0.290	0.370
2020/01/31 17:12:02.2	357.350	0.310	-0.310	0.360
2020/01/31 17:12:02.3	357.360	0.310	-0.330	0.350
2020/01/31 17:12:02.4	357.370	0.310	-0.350	0.330
2020/01/31 17:12:02.5	357.380	0.300	-0.370	0.310
2020/01/31 17:12:02.6	357.390	0.300	-0.390	0.280
2020/01/31 17:12:02.7	357.410	0.300	-0.410	0.260
2020/01/31 17:12:02.8	357.450	0.290	-0.430	0.230
2020/01/31 17:12:02.9	357.470	0.290	-0.460	0.190
2020/01/31 17:12:03.0	357.490	0.280	-0.480	0.160
2020/01/31 17:12:03.1	357.520	0.280	-0.510	0.120
2020/01/31 17:12:03.2	357.550	0.270	-0.530	0.080
2020/01/31 17:12:03.3	357.580	0.270	-0.560	0.040
2020/01/31 17:12:03.4	357.610	0.260	-0.580	-0.000
2020/01/31 17:12:03.5	357.650	0.260	-0.600	-0.050
2020/01/31 17:12:03.6	357.690	0.250	-0.630	-0.090
2020/01/31 17:12:03.7	357.730	0.240	-0.650	-0.140
2020/01/31 17:12:03.8	357.760	0.240	-0.670	-0.180
2020/01/31 17:12:03.9	357.800	0.230	-0.690	-0.230
2020/01/31 17:12:04.0	357.840	0.220	-0.710	-0.280
2020/01/31 17:12:04.1	357.890	0.220	-0.730	-0.320
2020/01/31 17:12:04.2	357.940	0.210	-0.750	-0.370
2020/01/31 17:12:04.3	357.990	0.200	-0.770	-0.420
2020/01/31 17:12:04.4	358.040	0.190	-0.780	-0.470
2020/01/31 17:12:04.5	358.090	0.180	-0.790	-0.510
2020/01/31 17:12:04.6	358.140	0.170	-0.800	-0.560
2020/01/31 17:12:04.7	358.190	0.160	-0.800	-0.610
2020/01/31 17:12:04.8	358.230	0.150	-0.800	-0.650
2020/01/31 17:12:04.9	358.280	0.130	-0.800	-0.690
2020/01/31 17:12:05.0	358.330	0.120	-0.800	-0.730
2020/01/31 17:12:05.1	358.370	0.100	-0.790	-0.770
2020/01/31 17:12:05.2	358.420	0.080	-0.780	-0.810
2020/01/31 17:12:05.3	358.460	0.060	-0.760	-0.850
2020/01/31 17:12:05.4	358.500	0.040	-0.740	-0.880
2020/01/31 17:12:05.5	358.540	0.020	-0.710	-0.910
2020/01/31 17:12:05.6	358.570	-0.010	-0.680	-0.940
2020/01/31 17:12:05.7	358.600	-0.040	-0.640	-0.970
2020/01/31 17:12:05.8	358.620	-0.070	-0.610	-0.990
2020/01/31 17:12:05.9	358.640	-0.100	-0.570	-1.020
2020/01/31 17:12:06.0	358.660	-0.130	-0.520	-1.040
2020/01/31 17:12:06.1	358.680	-0.170	-0.470	-1.060
2020/01/31 17:12:06.2	358.690	-0.200	-0.420	-1.070
2020/01/31 17:12:06.3	358.700	-0.240	-0.370	-1.090
2020/01/31 17:12:06.4	358.700	-0.280	-0.320	-1.100
2020/01/31 17:12:06.5	358.700	-0.310	-0.260	-1.110
2020/01/31 17:12:06.6	358.700	-0.350	-0.210	-1.110
2020/01/31 17:12:06.7	358.690	-0.390	-0.150	-1.110
2020/01/31 17:12:06.8	358.690	-0.420	-0.090	-1.100
2020/01/31 17:12:06.9	358.680	-0.460	-0.030	-1.090
2020/01/31 17:12:07.0	358.660	-0.490	0.030	-1.080
2020/01/31 17:12:07.1	358.640	-0.530	0.080	-1.060
2020/01/31 17:12:07.2	358.620	-0.560	0.140	-1.040
2020/01/31 17:12:07.3	358.590	-0.580	0.190	-1.010
2020/01/31 17:12:07.4	358.560	-0.610	0.240	-0.980
2020/01/31 17:12:07.5	358.530	-0.630	0.290	-0.950
2020/01/31 17:12:07.6	358.500	-0.650	0.330	-0.910
2020/01/31 17:12:07.7	358.470	-0.660	0.370	-0.880
2020/01/31 17:12:07.8	358.430	-0.670	0.410	-0.840
2020/01/31 17:12:07.9	358.400	-0.670	0.440	-0.800
2020/01/31 17:12:08.0	358.360	-0.680	0.470	-0.760
2020/01/31 17:12:08.1	358.320	-0.670	0.490	-0.710
2020/01/31 17:12:08.2	358.290	-0.660	0.510	-0.670
2020/01/31 17:12:08.3	358.250	-0.650	0.530	-0.620
2020/01/31 17:12:08.4	358.210	-0.630	0.540	-0.580
2020/01/31 17:12:08.5	358.180	-0.610	0.540	-0.530
2020/01/31 17:12:08.6	358.140	-0.580	0.540	-0.490
2020/01/31 17:12:08.7	358.110	-0.550	0.530	-0.440
2020/01/31 17:12:08.8	358.070	-0.510	0.520	-0.390
2020/01/31 17:12:08.9	358.040	-0.470	0.510	-0.350
2020/01/31 17:12:09.0	358.010	-0.430	0.480	-0.310
2020/01/31 17:12:09.1	357.980	-0.380	0.460	-0.270
2020/01/31 17:12:09.2	357.950	-0.330	0.420	-0.230
2020/01/31 17:12:09.3	357.920	-0.270	0.380	-0.190
2020/01/31 17:12:09.4	357.900	-0.220	0.340	-0.150
2020/01/31 17:12:09.5	357.870	-0.160	0.300	-0.110
2020/01/31 17:12:09.6	357.850	-0.100	0.250	-0.080
2020/01/31 17:12:09.7	357.820	-0.050	0.190	-0.040
2020/01/31 17:12:09.8	357.800	0.010	0.140	-0.010
2020/01/31 17:12:09.9	357.780	0.070	0.080	0.030
2020/01/31 17:12:10.0	357.760	0.130	0.020	0.050
2020/01/31 17:12:10.1	357.730	0.180	-0.040	0.080
2020/01/31 17:12:10.2	357.710	0.240	-0.100	0.110
2020/01/31 17:12:10.3	357.690	0.290	-0.160	0.130
2020/01/31 17:12:10.4	357.670	0.340	-0.210	0.150
2020/01/31 17:12:10.5	357.650	0.380	-0.270	0.180
2020/01/31 17:12:10.6	357.630	0.430	-0.330	0.190
2020/01/31 17:12:10.7	357.610	0.460	-0.380	0.210
2020/01/31 17:12:10.8	357.600	0.500	-0.440	0.230
2020/01/31 17:12:10.9	357.590	0.530	-0.480	0.240
2020/01/31 17:12:11.0	357.570	0.550	-0.530	0.250
2020/01/31 17:12:11.1	357.560	0.570	-0.570	0.260
2020/01/31 17:12:11.2	357.550	0.590	-0.610	0.270
2020/01/31 17:12:11.3	357.540	0.600	-0.640	0.270
2020/01/31 17:12:11.4	357.530	0.610	-0.670	0.270
2020/01/31 17:12:11.5	357.520	0.610	-0.700	0.270
2020/01/31 17:12:11.6	357.520	0.610	-0.720	0.270
2020/01/31 17:12:11.7	357.520	0.610	-0.740	0.260
2020/01/31 17:12:11.8	357.510	0.600	-0.750	0.260
2020/01/31 17:12:11.9	357.510	0.580	-0.760	0.250
2020/01/31 17:12:12.0	357.510	0.570	-0.770	0.240
2020/01/31 17:12:12.1	357.520	0.550	-0.770	0.220
2020/01/31 17:12:12.2	357.530	0.530	-0.770	0.200
2020/01/31 17:12:12.3	357.550	0.500	-0.770	0.180
2020/01/31 17:12:12.4	357.560	0.480	-0.770	0.150
2020/01/31 17:12:12.5	357.580	0.450	-0.770	0.130
2020/01/31 17:12:12.6	357.600	0.430	-0.760	0.100
2020/01/31 17:12:12.7	357.630	0.400	-0.750	0.070
2020/01/31 17:12:12.8	357.660	0.370	-0.740	0.030
2020/01/31 17:12:12.9	357.690	0.350	-0.730	0.000
2020/01/31 17:12:13.0	357.720	0.320	-0.720	-0.030
2020/01/31 17:12:13.1	357.750	0.300	-0.710	-0.070
2020/01/31 17:12:13.2	357.790	0.270	-0.690	-0.100
2020/01/31 17:12:13.3	357.830	0.250	-0.680	-0.130
2020/01/31 17:12:13.4	357.870	0.230	-0.670	-0.170
2020/01/31 17:12:13.5	357.910	0.210	-0.650	-0.200
2020/01/31 17:12:13.6	357.950	0.190	-0.640	-0.240
2020/01/31 17:12:13.7	357.990	0.170	-0.620	-0.270
2020/01/31 17:12:13.8	358.020	0.160	-0.610	-0.300
2020/01/31 17:12:13.9	358.060	0.140	-0.590	-0.330
2020/01/31 17:12:14.0	358.100	0.130	-0.570	-0.370
2020/01/31 17:12:14.1	358.150	0.110	-0.550	-0.400
2020/01/31 17:12:14.2	358.190	0.100	-0.540	-0.430
2020/01/31 17:12:14.3	358.230	0.090	-0.520	-0.470
2020/01/31 17:12:14.4	358.270	0.080	-0.500	-0.500
2020/01/31 17:12:14.5	358.310	0.070	-0.480	-0.530
2020/01/31 17:12:14.6	358.350	0.060	-0.460	-0.560
2020/01/31 17:12:14.7	358.380	0.050	-0.440	-0.590
2020/01/31 17:12:14.8	358.410	0.040	-0.410	-0.620
2020/01/31 17:12:14.9	358.440	0.030	-0.390	-0.640
2020/01/31 17:12:15.0	358.460	0.020	-0.360	-0.670
2020/01/31 17:12:15.1	358.490	0.010	-0.330	-0.690
2020/01/31 17:12:15.2	358.510	-0.000	-0.300	-0.710
2020/01/31 17:12:15.3	358.520	-0.010	-0.270	-0.720
2020/01/31 17:12:15.4	358.530	-0.030	-0.240	-0.740
2020/01/31 17:12:15.5	358.540	-0.040	-0.210	-0.750
2020/01/31 17:12:15.6	358.550	-0.060	-0.170	-0.760
2020/01/31 17:12:15.7	358.550	-0.070	-0.140	-0.760
2020/01/31 17:12:15.8	358.530	-0.090	-0.100	-0.760
2020/01/31 17:12:15.9	358.530	-0.100	-0.060	-0.760
2020/01/31 17:12:16.0	358.520	-0.120	-0.020	-0.760
2020/01/31 17:12:16.1	358.510	-0.140	0.010	-0.750
2020/01/31 17:12:16.2	358.500	-0.160	0.050	-0.740
2020/01/31 17:12:16.3	358.490	-0.180	0.090	-0.730
2020/01/31 17:12:16.4	358.470	-0.190	0.120	-0.720
2020/01/31 17:12:16.5	358.460	-0.210	0.160	-0.700
2020/01/31 17:12:16.6	358.440	-0.230	0.190	-0.680
2020/01/31 17:12:16.7	358.420	-0.250	0.220	-0.660
2020/01/31 17:12:16.8	358.430	-0.270	0.250	-0.640
2020/01/31 17:12:16.9	358.410	-0.280	0.270	-0.620
2020/01/31 17:12:17.0	358.390	-0.300	0.290	-0.590
2020/01/31 17:12:17.1	358.370	-0.310	0.300	-0.570
2020/01/31 17:12:17.2	358.350	-0.330	0.310	-0.540
2020/01/31 17:12:17.3	358.330	-0.340	0.320	-0.520
2020/01/31 17:12:17.4	358.310	-0.350	0.320	-0.500
2020/01/31 17:12:17.5	358.290	-0.350	0.320	-0.470
2020/01/31 17:12:17.6	358.270	-0.360	0.320	-0.450
2020/01/31 17:12:17.7	358.250	-0.360	0.300	-0.420
2020/01/31 17:12:17.8	358.230	-0.360	0.290	-0.390
2020/01/31 17:12:17.9	358.200	-0.360	0.270	-0.370
2020/01/31 17:12:18.0	358.180	-0.360	0.250	-0.340
2020/01/31 17:12:18.1	358.160	-0.360	0.230	-0.320
2020/01/31 17:12:18.2	358.130	-0.350	0.200	-0.300
2020/01/31 17:12:18.3	358.110	-0.350	0.170	-0.280
2020/01/31 17:12:18.4	358.080	-0.340	0.140	-0.260
2020/01/31 17:12:18.5	358.060	-0.330	0.100	-0.240
2020/01/31 17:12:18.6	358.030	-0.310	0.070	-0.220
2020/01/31 17:12:18.7	358.000	-0.300	0.030	-0.210
2020/01/31 17:12:18.8	357.970	-0.280	-0.000	-0.190
2020/01/31 17:12:18.9	357.940	-0.260	-0.030	-0.170
2020/01/31 17:12:19.0	357.920	-0.240	-0.070	-0.160
2020/01/31 17:12:19.1	357.890	-0.220	-0.100	-0.140
2020/01/31 17:12:19.2	357.870	-0.200	-0.130	-0.130
2020/01/31 17:12:19.3	357.850	-0.180	-0.160	-0.110
2020/01/31 17:12:19.4	357.820	-0.150	-0.190	-0.090
2020/01/31 17:12:19.5	357.800	-0.130	-0.210	-0.080
2020/01/31 17:12:19.6	357.780	-0.100	-0.230	-0.060
2020/01/31 17:12:19.7	357.760	-0.070	-0.250	-0.040
2020/01/31 17:12:19.8	357.740	-0.050	-0.270	-0.020
2020/01/31 17:12:19.9	357.720	-0.020	-0.280	-0.000
2020/01/31 17:12:20.0	357.700	0.010	-0.300	0.020
2020/01/31 17:12:20.1	357.680	0.040	-0.310	0.040
2020/01/31 17:12:20.2	357.660	0.060	-0.320	0.060
2020/01/31 17:12:20.3	357.640	0.090	-0.320	0.090
2020/01/31 17:12:20.4	357.620	0.120	-0.330	0.110
2020/01/31 17:12:20.5	357.600	0.140	-0.330	0.130
2020/01/31 17:12:20.6	357.590	0.170	-0.340	0.160
2020/01/31 17:12:20.7	357.570	0.190	-0.340	0.180
2020/01/31 17:12:20.8	357.540	0.210	-0.340	0.200
2020/01/31 17:12:20.9	357.530	0.230	-0.340	0.220
2020/01/31 17:12:21.0	357.520	0.250	-0.340	0.240
2020/01/31 17:12:21.1	357.510	0.260	-0.340	0.250
2020/01/31 17:12:21.2	357.500	0.280	-0.340	0.270
2020/01/31 17:12:21.3	357.490	0.290	-0.350	0.270
2020/01/31 17:12:21.4	357.480	0.300	-0.350	0.280
2020/01/31 17:12:21.5	357.480	0.310	-0.360	0.280
2020/01/31 17:12:21.6	357.480	0.320	-0.360	0.280
2020/01/31 17:12:21.7	357.480	0.320	-0.370	0.280
2020/01/31 17:12:21.8	357.480	0.320	-0.380	0.270
2020/01/31 17:12:21.9	357.490	0.320	-0.390	0.260
2020/01/31 17:12:22.0	357.500	0.320	-0.400	0.250
2020/01/31 17:12:22.1	357.510	0.310	-0.420	0.230
2020/01/31 17:12:22.2	357.520	0.310	-0.430	0.210
2020/01/31 17:12:22.3	357.540	0.300	-0.450	0.190
2020/01/31 17:12:22.4	357.550	0.290	-0.470	0.160
2020/01/31 17:12:22.5	357.570	0.280	-0.480	0.130
2020/01/31 17:12:22.6	357.590	0.260	-0.500	0.100
2020/01/31 17:12:22.7	357.610	0.240	-0.520	0.070
2020/01/31 17:12:22.8	357.650	0.230	-0.540	0.040
2020/01/31 17:12:22.9	357.670	0.210	-0.560	0.010
2020/01/31 17:12:23.0	357.700	0.190	-0.580	-0.030
2020/01/31 17:12:23.1	357.720	0.160	-0.600	-0.070
2020/01/31 17:12:23.2	357.750	0.140	-0.620	-0.110
2020/01/31 17:12:23.3	357.770	0.120	-0.640	-0.150
2020/01/31 17:12:23.4	357.800	0.090	-0.660	-0.190
2020/01/31 17:12:23.5	357.830	0.070	-0.680	-0.240
2020/01/31 17:12:23.6	357.860	0.040	-0.700	-0.280
2020/01/31 17:12:23.7	357.890	0.020	-0.720	-0.320
2020/01/31 17:12:23.8	357.900	-0.010	-0.730	-0.370
2020/01/31 17:12:23.9	357.930	-0.030	-0.740	-0.410
2020/01/31 17:12:24.0	357.970	-0.050	-0.750	-0.460
2020/01/31 17:12:24.1	358.000	-0.080	-0.760	-0.510
2020/01/31 17:12:24.2	358.030	-0.100	-0.770	-0.550
2020/01/31 17:12:24.3	358.070	-0.120	-0.780	-0.590
2020/01/31 17:12:24.4	358.110	-0.140	-0.780	-0.640
2020/01/31 17:12:24.5	358.140	-0.150	-0.780	-0.680
2020/01/31 17:12:24.6	358.180	-0.170	-0.780	-0.720
2020/01/31 17:12:24.7	358.220	-0.180	-0.770	-0.760
2020/01/31 17:12:24.8	358.250	-0.200	-0.770	-0.790
2020/01/31 17:12:24.9	358.290	-0.210	-0.750	-0.830
2020/01/31 17:12:25.0	358.320	-0.210	-0.740	-0.860
2020/01/31 17:12:25.1	358.350	-0.220	-0.720	-0.880
2020/01/31 17:12:25.2	358.390	-0.230	-0.700	-0.910
2020/01/31 17:12:25.3	358.410	-0.230	-0.670	-0.930
2020/01/31 17:12:25.4	358.440	-0.230	-0.650	-0.940
2020/01/31 17:12:25.5	358.460	-0.230	-0.610	-0.950
2020/01/31 17:12:25.6	358.480	-0.230	-0.580	-0.960
2020/01/31 17:12:25.7	358.500	-0.230	-0.540	-0.960
2020/01/31 17:12:25.8	358.510	-0.220	-0.500	-0.950
2020/01/31 17:12:25.9	358.520	-0.220	-0.460	-0.940
2020/01/31 17:12:26.0	358.530	-0.210	-0.410	-0.930
2020/01/31 17:12:26.1	358.530	-0.200	-0.360	-0.910
2020/01/31 17:12:26.2	358.530	-0.190	-0.310	-0.890
2020/01/31 17:12:26.3	358.520	-0.180	-0.260	-0.870
2020/01/31 17:12:26.4	358.520	-0.170	-0.210	-0.840
2020/01/31 17:12:26.5	358.510	-0.150	-0.150	-0.810
2020/01/31 17:12:26.6	358.500	-0.140	-0.100	-0.770
2020/01/31 17:12:26.7	358.480	-0.130	-0.040	-0.730
2020/01/31 17:12:26.8	358.470	-0.110	0.010	-0.690
2020/01/31 17:12:26.9	358.460	-0.100	0.070	-0.640
2020/01/31 17:12:27.0	358.430	-0.080	0.120	-0.590
2020/01/31 17:12:27.1	358.410	-0.060	0.170	-0.540
2020/01/31 17:12:27.2	358.390	-0.050	0.220	-0.490
2020/01/31 17:12:27.3	358.360	-0.030	0.270	-0.440
2020/01/31 17:12:27.4	358.340	-0.020	0.310	-0.390
2020/01/31 17:12:27.5	358.310	0.000	0.350	-0.330
2020/01/31 17:12:27.6	358.280	0.020	0.390	-0.280
2020/01/31 17:12:27.7	358.250	0.030	0.430	-0.220
2020/01/31 17:12:27.8	358.220	0.050	0.460	-0.160
2020/01/31 17:12:27.9	358.190	0.070	0.490	-0.100
2020/01/31 17:12:28.0	358.160	0.080	0.510	-0.050
2020/01/31 17:12:28.1	358.130	0.100	0.530	0.010
2020/01/31 17:12:28.2	358.100	0.110	0.540	0.060
2020/01/31 17:12:28.3	358.070	0.120	0.550	0.110
2020/01/31 17:12:28.4	358.040	0.130	0.550	0.160
2020/01/31 17:12:28.5	358.000	0.150	0.550	0.210
2020/01/31 17:12:28.6	357.970	0.160	0.550	0.260
2020/01/31 17:12:28.7	357.940	0.170	0.530	0.300
2020/01/31 17:12:28.8	357.920	0.170	0.520	0.350
2020/01/31 17:12:28.9	357.890	0.180	0.500	0.380
2020/01/31 17:12:29.0	357.860	0.190	0.470	0.420
2020/01/31 17:12:29.1	357.830	0.190	0.440	0.450
2020/01/31 17:12:29.2	357.800	0.200	0.400	0.470
2020/01/31 17:12:29.3	357.770	0.200	0.360	0.490
2020/01/31 17:12:29.4	357.740	0.200	0.320	0.500
2020/01/31 17:12:29.5	357.720	0.200	0.280	0.510
2020/01/31 17:12:29.6	357.690	0.200	0.230	0.520
2020/01/31 17:12:29.7	357.670	0.200	0.180	0.520
2020/01/31 17:12:29.8	357.670	0.190	0.120	0.520
2020/01/31 17:12:29.9	357.650	0.190	0.070	0.510
2020/01/31 17:12:30.0	357.630	0.190	0.010	0.490
2020/01/31 17:12:30.1	357.620	0.180	-0.040	0.480
2020/01/31 17:12:30.2	357.610	0.180	-0.100	0.460
2020/01/31 17:12:30.3	357.600	0.180	-0.160	0.430
2020/01/31 17:12:30.4	357.590	0.170	-0.220	0.410
2020/01/31 17:12:30.5	357.590	0.170	-0.270	0.380
2020/01/31 17:12:30.6	357.590	0.170	-0.330	0.340
2020/01/31 17:12:30.7	357.590	0.160	-0.380	0.310
2020/01/31 17:12:30.8	357.580	0.160	-0.430	0.270
2020/01/31 17:12:30.9	357.590	0.160	-0.480	0.240
2020/01/31 17:12:31.0	357.600	0.160	-0.530	0.200
2020/01/31 17:12:31.1	357.610	0.160	-0.580	0.170
2020/01/31 17:12:31.2	357.620	0.160	-0.620	0.130
2020/01/31 17:12:31.3	357.630	0.170	-0.660	0.100
2020/01/31 17:12:31.4	357.640	0.170	-0.700	0.070
2020/01/31 17:12:31.5	357.650	0.170	-0.730	0.030
2020/01/31 17:12:31.6	357.660	0.170	-0.760	0.000
2020/01/31 17:12:31.7	357.670	0.180	-0.790	-0.030
2020/01/31 17:12:31.8	357.690	0.180	-0.810	-0.060
2020/01/31 17:12:31.9	357.700	0.180	-0.830	-0.090
2020/01/31 17:12:32.0	357.710	0.180	-0.850	-0.120
2020/01/31 17:12:32.1	357.720	0.180	-0.860	-0.140
2020/01/31 17:12:32.2	357.730	0.180	-0.870	-0.170
2020/01/31 17:12:32.3	357.740	0.170	-0.880	-0.200
2020/01/31 17:12:32.4	357.750	0.170	-0.880	-0.230
2020/01/31 17:12:32.5	357.760	0.160	-0.870	-0.260
2020/01/31 17:12:32.6	357.770	0.150	-0.870	-0.290
2020/01/31 17:12:32.7	357.780	0.140	-0.860	-0.310
2020/01/31 17:12:32.8	357.790	0.130	-0.840	-0.340
2020/01/31 17:12:32.9	357.800	0.110	-0.830	-0.370
2020/01/31 17:12:33.0	357.810	0.090	-0.810	-0.400
2020/01/31 17:12:33.1	357.820	0.070	-0.790	-0.430
2020/01/31 17:12:33.2	357.830	0.050	-0.760	-0.450
2020/01/31 17:12:33.3	357.840	0.020	-0.740	-0.480
2020/01/31 17:12:33.4	357.850	-0.010	-0.710	-0.510
2020/01/31 17:12:33.5	357.860	-0.040	-0.680	-0.540
2020/01/31 17:12:33.6	357.870	-0.070	-0.640	-0.570
2020/01/31 17:12:33.7	357.880	-0.110	-0.610	-0.600
2020/01/31 17:12:33.8	357.880	-0.140	-0.570	-0.630
2020/01/31 17:12:33.9	357.890	-0.180	-0.530	-0.650
2020/01/31 17:12:34.0	357.900	-0.220	-0.490	-0.680
2020/01/31 17:12:34.1	357.910	-0.260	-0.450	-0.710
2020/01/31 17:12:34.2	357.920	-0.300	-0.410	-0.740
2020/01/31 17:12:34.3	357.930	-0.340	-0.370	-0.760
2020/01/31 17:12:34.4	357.940	-0.380	-0.330	-0.790
2020/01/31 17:12:34.5	357.950	-0.420	-0.280	-0.810
2020/01/31 17:12:34.6	357.960	-0.450	-0.240	-0.830
2020/01/31 17:12:34.7	357.970	-0.490	-0.200	-0.850
2020/01/31 17:12:34.8	357.970	-0.520	-0.160	-0.870
2020/01/31 17:12:34.9	357.980	-0.550	-0.120	-0.890
2020/01/31 17:12:35.0	357.990	-0.580	-0.090	-0.900
2020/01/31 17:12:35.1	358.000	-0.600	-0.060	-0.910
2020/01/31 17:12:35.2	358.010	-0.620	-0.020	-0.910
2020/01/31 17:12:35.3	358.020	-0.630	0.000	-0.920
2020/01/31 17:12:35.4	358.030	-0.640	0.030	-0.910
2020/01/31 17:12:35.5	358.040	-0.650	0.050	-0.910
2020/01/31 17:12:35.6	358.050	-0.650	0.070	-0.900
2020/01/31 17:12:35.7	358.060	-0.640	0.090	-0.890
2020/01/31 17:12:35.8	358.080	-0.630	0.100	-0.870
2020/01/31 17:12:35.9	358.090	-0.620	0.110	-0.850
2020/01/31 17:12:36.0	358.100	-0.600	0.120	-0.830
2020/01/31 17:12:36.1	358.100	-0.580	0.120	-0.800
2020/01/31 17:12:36.2	358.110	-0.550	0.120	-0.760
2020/01/31 17:12:36.3	358.110	-0.520	0.120	-0.720
2020/01/31 17:12:36.4	358.120	-0.480	0.120	-0.690
2020/01/31 17:12:36.5	358.120	-0.440	0.110	-0.640
2020/01/31 17:12:36.6	358.120	-0.400	0.100	-0.600
2020/01/31 17:12:36.7	358.120	-0.350	0.090	-0.550
2020/01/31 17:12:36.8	358.120	-0.300	0.070	-0.500
2020/01/31 17:12:36.9	358.120	-0.250	0.060	-0.450
2020/01/31 17:12:37.0	358.120	-0.200	0.040	-0.400
2020/01/31 17:12:37.1	358.120	-0.150	0.020	-0.350
2020/01/31 17:12:37.2	358.110	-0.090	0.000	-0.290
2020/01/31 17:12:37.3	358.110	-0.040	-0.020	-0.240
2020/01/31 17:12:37.4	358.100	0.010	-0.040	-0.190
2020/01/31 17:12:37.5	358.090	0.070	-0.070	-0.140
2020/01/31 17:12:37.6	358.080	0.120	-0.090	-0.080
2020/01/31 17:12:37.7	358.070	0.170	-0.120	-0.030
2020/01/31 17:12:37.8	358.070	0.220	-0.140	0.020
2020/01/31 17:12:37.9	358.060	0.270	-0.170	0.070
2020/01/31 17:12:38.0	358.050	0.310	-0.190	0.120
2020/01/31 17:12:38.1	358.040	0.350	-0.220	0.170
2020/01/31 17:12:38.2	358.030	0.390	-0.240	0.210
2020/01/31 17:12:38.3	358.010	0.430	-0.270	0.260
2020/01/31 17:12:38.4	358.000	0.460	-0.290	0.300
2020/01/31 17:12:38.5	357.990	0.490	-0.320	0.340
2020/01/31 17:12:38.6	357.980	0.520	-0.340	0.370
2020/01/31 17:12:38.7	357.970	0.540	-0.360	0.410
2020/01/31 17:12:38.8	357.970	0.560	-0.380	0.450
2020/01/31 17:12:38.9	357.960	0.570	-0.390	0.470
2020/01/31 17:12:39.0	357.950	0.580	-0.410	0.500
2020/01/31 17:12:39.1	357.930	0.590	-0.430	0.530
2020/01/31 17:12:39.2	357.920	0.590	-0.440	0.550
2020/01/31 17:12:39.3	357.910	0.590	-0.450	0.570
2020/01/31 17:12:39.4	357.900	0.580	-0.450	0.580
2020/01/31 17:12:39.5	357.890	0.570	-0.460	0.600
2020/01/31 17:12:39.6	357.870	0.550	-0.460	0.600
2020/01/31 17:12:39.7	357.860	0.540	-0.460	0.610
2020/01/31 17:12:39.8	357.850	0.510	-0.450	0.610
2020/01/31 17:12:39.9	357.830	0.490	-0.440	0.610
2020/01/31 17:12:40.0	357.820	0.460	-0.440	0.610
2020/01/31 17:12:40.1	357.800	0.430	-0.430	0.600
2020/01/31 17:12:40.2	357.790	0.400	-0.410	0.590
2020/01/31 17:12:40.3	357.770	0.370	-0.400	0.570
2020/01/31 17:12:40.4	357.760	0.330	-0.390	0.550
2020/01/31 17:12:40.5	357.740	0.290	-0.370	0.530
2020/01/31 17:12:40.6	357.730	0.260	-0.360	0.510
2020/01/31 17:12:40.7	357.720	0.220	-0.340	0.480
2020/01/31 17:12:40.8	357.700	0.190	-0.320	0.450
2020/01/31 17:12:40.9	357.690	0.150	-0.310	0.420
2020/01/31 17:12:41.0	357.680	0.120	-0.290	0.390
2020/01/31 17:12:41.1	357.670	0.080	-0.270	0.350
2020/01/31 17:12:41.2	357.660	0.050	-0.260	0.310
2020/01/31 17:12:41.3	357.650	0.020	-0.240	0.270
2020/01/31 17:12:41.4	357.640	-0.010	-0.230	0.240
2020/01/31 17:12:41.5	357.630	-0.030	-0.210	0.190
2020/01/31 17:12:41.6	357.630	-0.050	-0.190	0.150
2020/01/31 17:12:41.7	357.620	-0.070	-0.180	0.110
2020/01/31 17:12:41.8	357.610	-0.090	-0.160	0.070
2020/01/31 17:12:41.9	357.600	-0.110	-0.150	0.030
2020/01/31 17:12:42.0	357.590	-0.120	-0.140	-0.010
2020/01/31 17:12:42.1	357.580	-0.130	-0.120	-0.050
2020/01/31 17:12:42.2	357.570	-0.130	-0.110	-0.080
2020/01/31 17:12:42.3	357.560	-0.140	-0.100	-0.120
2020/01/31 17:12:42.4	357.550	-0.140	-0.090	-0.150
2020/01/31 17:12:42.5	357.540	-0.140	-0.090	-0.180
2020/01/31 17:12:42.6	357.530	-0.140	-0.080	-0.210
2020/01/31 17:12:42.7	357.510	-0.130	-0.070	-0.240
2020/01/31 17:12:42.8	357.500	-0.130	-0.070	-0.260
2020/01/31 17:12:42.9	357.490	-0.120	-0.070	-0.290
2020/01/31 17:12:43.0	357.470	-0.110	-0.070	-0.310
2020/01/31 17:12:43.1	357.460	-0.100	-0.070	-0.330
2020/01/31 17:12:43.2	357.450	-0.090	-0.070	-0.350
2020/01/31 17:12:43.3	357.440	-0.080	-0.080	-0.370
2020/01/31 17:12:43.4	357.430	-0.070	-0.090	-0.390
2020/01/31 17:12:43.5	357.430	-0.060	-0.100	-0.400
2020/01/31 17:12:43.6	357.420	-0.050	-0.110	-0.420
2020/01/31 17:12:43.7	357.420	-0.030	-0.120	-0.430
2020/01/31 17:12:43.8	357.410	-0.020	-0.140	-0.440
2020/01/31 17:12:43.9	357.410	-0.010	-0.160	-0.450
2020/01/31 17:12:44.0	357.410	-0.000	-0.170	-0.460
2020/01/31 17:12:44.1	357.410	0.000	-0.190	-0.470
2020/01/31 17:12:44.2	357.420	0.010	-0.220	-0.490
2020/01/31 17:12:44.3	357.420	0.020	-0.240	-0.500
2020/01/31 17:12:44.4	357.430	0.020	-0.260	-0.520
2020/01/31 17:12:44.5	357.440	0.030	-0.280	-0.530
2020/01/31 17:12:44.6	357.450	0.030	-0.300	-0.540
2020/01/31 17:12:44.7	357.460	0.030	-0.330	-0.560
2020/01/31 17:12:44.8	357.490	0.030	-0.350	-0.570
2020/01/31 17:12:44.9	357.490	0.020	-0.370	-0.580
2020/01/31 17:12:45.0	357.500	0.020	-0.380	-0.600
2020/01/31 17:12:45.1	357.510	0.010	-0.400	-0.610
2020/01/31 17:12:45.2	357.520	0.000	-0.420	-0.620
2020/01/31 17:12:45.3	357.530	-0.010	-0.430	-0.630
2020/01/31 17:12:45.4	357.530	-0.020	-0.440	-0.630
2020/01/31 17:12:45.5	357.540	-0.030	-0.450	-0.640
2020/01/31 17:12:45.6	357.550	-0.050	-0.450	-0.650
2020/01/31 17:12:45.7	357.560	-0.060	-0.450	-0.650
2020/01/31 17:12:45.8	357.560	-0.080	-0.450	-0.650
2020/01/31 17:12:45.9	357.570	-0.100	-0.450	-0.650
2020/01/31 17:12:46.0	357.580	-0.110	-0.450	-0.650
2020/01/31 17:12:46.1	357.590	-0.130	-0.440	-0.650
2020/01/31 17:12:46.2	357.610	-0.150	-0.440	-0.650
2020/01/31 17:12:46.3	357.620	-0.170	-0.430	-0.650
2020/01/31 17:12:46.4	357.640	-0.190	-0.420	-0.660
2020/01/31 17:12:46.5	357.660	-0.200	-0.420	-0.660
2020/01/31 17:12:46.6	357.680	-0.220	-0.410	-0.660
2020/01/31 17:12:46.7	357.700	-0.240	-0.400	-0.670
2020/01/31 17:12:46.8	357.730	-0.250	-0.400	-0.670
2020/01/31 17:12:46.9	357.760	-0.270	-0.390	-0.670
2020/01/31 17:12:47.0	357.790	-0.280	-0.390	-0.680
2020/01/31 17:12:47.1	357.820	-0.300	-0.390	-0.690
2020/01/31 17:12:47.2	357.860	-0.310	-0.390	-0.700
2020/01/31 17:12:47.3	357.890	-0.320	-0.380	-0.710
2020/01/31 17:12:47.4	357.930	-0.330	-0.380	-0.720
2020/01/31 17:12:47.5	357.970	-0.340	-0.390	-0.740
2020/01/31 17:12:47.6	358.000	-0.350	-0.390	-0.740
2020/01/31 17:12:47.7	358.040	-0.350	-0.390	-0.750
2020/01/31 17:12:47.8	358.060	-0.360	-0.390	-0.760
2020/01/31 17:12:47.9	358.100	-0.360	-0.390	-0.770
2020/01/31 17:12:48.0	358.130	-0.370	-0.380	-0.770
2020/01/31 17:12:48.1	358.160	-0.370	-0.380	-0.770
2020/01/31 17:12:48.2	358.180	-0.370	-0.380	-0.760
2020/01/31 17:12:48.3	358.200	-0.360	-0.370	-0.750
2020/01/31 17:12:48.4	358.220	-0.360	-0.360	-0.740
2020/01/31 17:12:48.5	358.240	-0.350	-0.350	-0.720
2020/01/31 17:12:48.6	358.250	-0.350	-0.340	-0.690
2020/01/31 17:12:48.7	358.260	-0.340	-0.330	-0.660
2020/01/31 17:12:48.8	358.260	-0.320	-0.310	-0.620
2020/01/31 17:12:48.9	358.260	-0.310	-0.290	-0.580
2020/01/31 17:12:49.0	358.250	-0.290	-0.270	-0.540
2020/01/31 17:12:49.1	358.240	-0.270	-0.250	-0.490
2020/01/31 17:12:49.2	358.230	-0.250	-0.220	-0.430
2020/01/31 17:12:49.3	358.210	-0.230	-0.190	-0.370
2020/01/31 17:12:49.4	358.190	-0.210	-0.170	-0.310
2020/01/31 17:12:49.5	358.160	-0.180	-0.140	-0.240
2020/01/31 17:12:49.6	358.130	-0.150	-0.110	-0.170
2020/01/31 17:12:49.7	358.100	-0.120	-0.080	-0.100
2020/01/31 17:12:49.8	358.070	-0.080	-0.050	-0.030
2020/01/31 17:12:49.9	358.030	-0.050	-0.020	0.050
2020/01/31 17:12:50.0	357.990	-0.010	0.000	0.120
2020/01/31 17:12:50.1	357.950	0.030	0.030	0.190
2020/01/31 17:12:50.2	357.910	0.070	0.050	0.260
2020/01/31 17:12:50.3	357.870	0.120	0.070	0.340
2020/01/31 17:12:50.4	357.820	0.160	0.090	0.410
2020/01/31 17:12:50.5	357.780	0.210	0.100	0.470
2020/01/31 17:12:50.6	357.740	0.260	0.110	0.530
2020/01/31 17:12:50.7	357.700	0.300	0.110	0.590
2020/01/31 17:12:50.8	357.670	0.350	0.120	0.650
2020/01/31 17:12:50.9	357.630	0.400	0.110	0.700
2020/01/31 17:12:51.0	357.590	0.440	0.110	0.750
2020/01/31 17:12:51.1	357.560	0.480	0.090	0.790
2020/01/31 17:12:51.2	357.520	0.520	0.080	0.820
2020/01/31 17:12:51.3	357.490	0.560	0.060	0.850
2020/01/31 17:12:51.4	357.460	0.600	0.040	0.870
2020/01/31 17:12:51.5	357.430	0.630	0.010	0.890
2020/01/31 17:12:51.6	357.400	0.660	-0.020	0.900
2020/01/31 17:12:51.7	357.370	0.680	-0.040	0.910
2020/01/31 17:12:51.8	357.350	0.700	-0.070	0.910
2020/01/31 17:12:51.9	357.330	0.720	-0.110	0.910
2020/01/31 17:12:52.0	357.300	0.730	-0.140	0.910
2020/01/31 17:12:52.1	357.280	0.730	-0.170	0.890
2020/01/31 17:12:52.2	357.250	0.730	-0.200	0.880
2020/01/31 17:12:52.3	357.230	0.730	-0.240	0.860
2020/01/31 17:12:52.4	357.210	0.720	-0.270	0.830
2020/01/31 17:12:52.5	357.190	0.710	-0.300	0.800
2020/01/31 17:12:52.6	357.170	0.690	-0.320	0.760
2020/01/31 17:12:52.7	357.150	0.660	-0.350	0.720
2020/01/31 17:12:52.8	357.130	0.630	-0.370	0.670
2020/01/31 17:12:52.9	357.110	0.600	-0.390	0.620
2020/01/31 17:12:53.0	357.100	0.560	-0.410	0.570
2020/01/31 17:12:53.1	357.090	0.520	-0.420	0.510
2020/01/31 17:12:53.2	357.080	0.470	-0.430	0.450
2020/01/31 17:12:53.3	357.070	0.420	-0.440	0.380
2020/01/31 17:12:53.4	357.070	0.370	-0.450	0.320
2020/01/31 17:12:53.5	357.070	0.320	-0.450	0.240
2020/01/31 17:12:53.6	357.070	0.260	-0.450	0.170
2020/01/31 17:12:53.7	357.070	0.210	-0.440	0.090
2020/01/31 17:12:53.8	357.080	0.150	-0.430	0.010
2020/01/31 17:12:53.9	357.090	0.090	-0.420	-0.070
2020/01/31 17:12:54.0	357.100	0.030	-0.410	-0.150
2020/01/31 17:12:54.1	357.110	-0.020	-0.400	-0.230
2020/01/31 17:12:54.2	357.130	-0.080	-0.390	-0.310
2020/01/31 17:12:54.3	357.160	-0.130	-0.370	-0.390
2020/01/31 17:12:54.4	357.180	-0.180	-0.350	-0.470
2020/01/31 17:12:54.5	357.210	-0.230	-0.340	-0.550
2020/01/31 17:12:54.6	357.240	-0.280	-0.320	-0.620
2020/01/31 17:12:54.7	357.270	-0.320	-0.300	-0.700
2020/01/31 17:12:54.8	357.300	-0.360	-0.290	-0.770
2020/01/31 17:12:54.9	357.330	-0.400	-0.270	-0.840
2020/01/31 17:12:55.0	357.350	-0.430	-0.260	-0.900
2020/01/31 17:12:55.1	357.380	-0.460	-0.240	-0.950
2020/01/31 17:12:55.2	357.410	-0.480	-0.230	-1.000
2020/01/31 17:12:55.3	357.440	-0.500	-0.210	-1.040
2020/01/31 17:12:55.4	357.460	-0.510	-0.200	-1.080
2020/01/31 17:12:55.5	357.490	-0.520	-0.190	-1.110
2020/01/31 17:12:55.6	357.510	-0.530	-0.180	-1.140
2020/01/31 17:12:55.7	357.530	-0.530	-0.180	-1.160
2020/01/31 17:12:55.8	357.550	-0.520	-0.170	-1.170
2020/01/31 17:12:55.9	357.560	-0.510	-0.170	-1.180
2020/01/31 17:12:56.0	357.580	-0.500	-0.170	-1.180
2020/01/31 17:12:56.1	357.590	-0.480	-0.170	-1.180
2020/01/31 17:12:56.2	357.610	-0.460	-0.180	-1.180
2020/01/31 17:12:56.3	357.620	-0.440	-0.180	-1.170
2020/01/31 17:12:56.4	357.630	-0.410	-0.190	-1.160
2020/01/31 17:12:56.5	357.640	-0.380	-0.200	-1.150
2020/01/31 17:12:56.6	357.650	-0.350	-0.220	-1.130
2020/01/31 17:12:56.7	357.660	-0.310	-0.230	-1.110
2020/01/31 17:12:56.8	357.680	-0.270	-0.250	-1.080
2020/01/31 17:12:56.9	357.690	-0.240	-0.270	-1.060
2020/01/31 17:12:57.0	357.700	-0.200	-0.290	-1.030
2020/01/31 17:12:57.1	357.710	-0.160	-0.320	-1.000
2020/01/31 17:12:57.2	357.720	-0.120	-0.340	-0.970
2020/01/31 17:12:57.3	357.740	-0.080	-0.370	-0.940
2020/01/31 17:12:57.4	357.750	-0.040	-0.400	-0.910
2020/01/31 17:12:57.5	357.760	0.000	-0.430	-0.880
2020/01/31 17:12:57.6	357.780	0.040	-0.460	-0.850
2020/01/31 17:12:57.7	357.790	0.070	-0.490	-0.820
2020/01/31 17:12:57.8	357.810	0.100	-0.510	-0.790
2020/01/31 17:12:57.9	357.820	0.120	-0.540	-0.760
2020/01/31 17:12:58.0	357.840	0.150	-0.570	-0.730
2020/01/31 17:12:58.1	357.850	0.170	-0.590	-0.700
2020/01/31 17:12:58.2	357.860	0.180	-0.620	-0.670
2020/01/31 17:12:58.3	357.880	0.190	-0.640	-0.650
2020/01/31 17:12:58.4	357.890	0.200	-0.650	-0.620
2020/01/31 17:12:58.5	357.900	0.200	-0.660	-0.600
2020/01/31 17:12:58.6	357.910	0.200	-0.670	-0.580
2020/01/31 17:12:58.7	357.910	0.200	-0.680	-0.560
2020/01/31 17:12:58.8	357.910	0.190	-0.680	-0.540
2020/01/31 17:12:58.9	357.920	0.170	-0.670	-0.520
2020/01/31 17:12:59.0	357.920	0.150	-0.660	-0.500
2020/01/31 17:12:59.1	357.920	0.130	-0.650	-0.490
2020/01/31 17:12:59.2	357.920	0.100	-0.630	-0.470
2020/01/31 17:12:59.3	357.910	0.070	-0.600	-0.460
2020/01/31 17:12:59.4	357.910	0.040	-0.570	-0.440
2020/01/31 17:12:59.5	357.900	0.010	-0.540	-0.430
2020/01/31 17:12:59.6	357.890	-0.030	-0.490	-0.420
2020/01/31 17:12:59.7	357.880	-0.060	-0.450	-0.400
2020/01/31 17:12:59.8	357.850	-0.100	-0.390	-0.390
2020/01/31 17:12:59.9	357.840	-0.140	-0.340	-0.370
2020/01/31 17:13:00.0	357.820	-0.180	-0.280	-0.360
2020/01/31 17:13:00.1	357.810	-0.220	-0.220	-0.340
2020/01/31 17:13:00.2	357.790	-0.260	-0.160	-0.330
2020/01/31 17:13:00.3	357.770	-0.290	-0.100	-0.310
2020/01/31 17:13:00.4	357.750	-0.330	-0.030	-0.300
2020/01/31 17:13:00.5	357.740	-0.360	0.030	-0.290
2020/01/31 17:13:00.6	357.720	-0.390	0.090	-0.290
2020/01/31 17:13:00.7	357.710	-0.420	0.140	-0.280
2020/01/31 17:13:00.8	357.700	-0.440	0.200	-0.270
2020/01/31 17:13:00.9	357.690	-0.460	0.240	-0.270
2020/01/31 17:13:01.0	357.680	-0.470	0.290	-0.270
2020/01/31 17:13:01.1	357.670	-0.480	0.320	-0.280
2020/01/31 17:13:01.2	357.670	-0.480	0.350	-0.280
2020/01/31 17:13:01.3	357.660	-0.480	0.380	-0.290
2020/01/31 17:13:01.4	357.660	-0.480	0.390	-0.300
2020/01/31 17:13:01.5	357.660	-0.470	0.400	-0.310
2020/01/31 17:13:01.6	357.660	-0.450	0.400	-0.330
2020/01/31 17:13:01.7	357.660	-0.430	0.390	-0.340
2020/01/31 17:13:01.8	357.680	-0.410	0.380	-0.360
2020/01/31 17:13:01.9	357.680	-0.380	0.360	-0.380
2020/01/31 17:13:02.0	357.680	-0.350	0.330	-0.400
2020/01/31 17:13:02.1	357.680	-0.310	0.300	-0.410
2020/01/31 17:13:02.2	357.690	-0.270	0.250	-0.430
2020/01/31 17:13:02.3	357.690	-0.230	0.210	-0.450
2020/01/31 17:13:02.4	357.690	-0.180	0.160	-0.470
2020/01/31 17:13:02.5	357.690	-0.130	0.110	-0.480
2020/01/31 17:13:02.6	357.690	-0.090	0.050	-0.500
2020/01/31 17:13:02.7	357.690	-0.040	-0.000	-0.510
2020/01/31 17:13:02.8	357.690	0.010	-0.070	-0.510
2020/01/31 17:13:02.9	357.680	0.060	-0.120	-0.520
2020/01/31 17:13:03.0	357.680	0.110	-0.180	-0.530
2020/01/31 17:13:03.1	357.670	0.160	-0.240	-0.540
2020/01/31 17:13:03.2	357.660	0.210	-0.300	-0.540
2020/01/31 17:13:03.3	357.660	0.260	-0.350	-0.540
2020/01/31 17:13:03.4	357.650	0.300	-0.400	-0.540
2020/01/31 17:13:03.5	357.630	0.340	-0.450	-0.530
2020/01/31 17:13:03.6	357.620	0.380	-0.490	-0.530
2020/01/31 17:13:03.7	357.610	0.410	-0.530	-0.510
2020/01/31 17:13:03.8	357.600	0.450	-0.560	-0.500
2020/01/31 17:13:03.9	357.590	0.480	-0.590	-0.480
2020/01/31 17:13:04.0	357.570	0.500	-0.610	-0.460
2020/01/31 17:13:04.1	357.550	0.520	-0.630	-0.430
2020/01/31 17:13:04.2	357.530	0.540	-0.640	-0.400
2020/01/31 17:13:04.3	357.510	0.560	-0.640	-0.360
2020/01/31 17:13:04.4	357.490	0.570	-0.640	-0.330
2020/01/31 17:13:04.5	357.460	0.580	-0.630	-0.290
2020/01/31 17:13:04.6	357.440	0.580	-0.620	-0.240
2020/01/31 17:13:04.7	357.420	0.580	-0.600	-0.200
2020/01/31 17:13:04.8	357.390	0.580	-0.580	-0.150
2020/01/31 17:13:04.9	357.370	0.570	-0.550	-0.100
2020/01/31 17:13:05.0	357.340	0.570	-0.520	-0.050
2020/01/31 17:13:05.1	357.320	0.560	-0.480	0.000
2020/01/31 17:13:05.2	357.290	0.540	-0.440	0.050
2020/01/31 17:13:05.3	357.270	0.530	-0.400	0.110
2020/01/31 17:13:05.4	357.240	0.510	-0.350	0.150
2020/01/31 17:13:05.5	357.220	0.490	-0.310	0.200
2020/01/31 17:13:05.6	357.200	0.470	-0.260	0.250
2020/01/31 17:13:05.7	357.180	0.450	-0.220	0.290
2020/01/31 17:13:05.8	357.160	0.430	-0.170	0.340
2020/01/31 17:13:05.9	357.140	0.410	-0.120	0.380
2020/01/31 17:13:06.0	357.120	0.390	-0.080	0.410
2020/01/31 17:13:06.1	357.100	0.370	-0.040	0.440
2020/01/31 17:13:06.2	357.090	0.340	-0.010	0.470
2020/01/31 17:13:06.3	357.070	0.320	0.020	0.500
2020/01/31 17:13:06.4	357.060	0.300	0.050	0.520
2020/01/31 17:13:06.5	357.050	0.270	0.070	0.530
2020/01/31 17:13:06.6	357.040	0.250	0.090	0.540
2020/01/31 17:13:06.7	357.030	0.230	0.100	0.540
2020/01/31 17:13:06.8	357.030	0.200	0.110	0.550
2020/01/31 17:13:06.9	357.030	0.180	0.110	0.540
2020/01/31 17:13:07.0	357.030	0.150	0.110	0.530
2020/01/31 17:13:07.1	357.030	0.130	0.100	0.500
2020/01/31 17:13:07.2	357.030	0.100	0.080	0.480
2020/01/31 17:13:07.3	357.040	0.070	0.060	0.450
2020/01/31 17:13:07.4	357.050	0.050	0.040	0.410
2020/01/31 17:13:07.5	357.060	0.020	0.000	0.360
2020/01/31 17:13:07.6	357.070	-0.010	-0.030	0.310
2020/01/31 17:13:07.7	357.090	-0.040	-0.070	0.260
2020/01/31 17:13:07.8	357.110	-0.070	-0.120	0.200
2020/01/31 17:13:07.9	357.130	-0.090	-0.170	0.130
2020/01/31 17:13:08.0	357.160	-0.120	-0.220	0.060
2020/01/31 17:13:08.1	357.190	-0.150	-0.270	-0.010
2020/01/31 17:13:08.2	357.220	-0.180	-0.330	-0.080
2020/01/31 17:13:08.3	357.250	-0.210	-0.390	-0.160
2020/01/31 17:13:08.4	357.290	-0.240	-0.440	-0.240
2020/01/31 17:13:08.5	357.330	-0.260	-0.500	-0.320
2020/01/31 17:13:08.6	357.370	-0.290	-0.560	-0.400
2020/01/31 17:13:08.7	357.410	-0.320	-0.610	-0.480
2020/01/31 17:13:08.8	357.440	-0.340	-0.660	-0.560
2020/01/31 17:13:08.9	357.480	-0.370	-0.710	-0.640
2020/01/31 17:13:09.0	357.520	-0.390	-0.760	-0.720
2020/01/31 17:13:09.1	357.570	-0.420	-0.800	-0.790
2020/01/31 17:13:09.2	357.610	-0.440	-0.840	-0.860
2020/01/31 17:13:09.3	357.650	-0.460	-0.870	-0.930
2020/01/31 17:13:09.4	357.690	-0.480	-0.890	-1.000
2020/01/31 17:13:09.5	357.730	-0.500	-0.910	-1.060
2020/01/31 17:13:09.6	357.770	-0.520	-0.920	-1.110
2020/01/31 17:13:09.7	357.800	-0.530	-0.920	-1.160
2020/01/31 17:13:09.8	357.850	-0.550	-0.920	-1.210
2020/01/31 17:13:09.9	357.880	-0.560	-0.910	-1.250
2020/01/31 17:13:10.0	357.920	-0.570	-0.890	-1.290
2020/01/31 17:13:10.1	357.940	-0.590	-0.860	-1.320
2020/01/31 17:13:10.2	357.970	-0.600	-0.830	-1.350
2020/01/31 17:13:10.3	357.990	-0.600	-0.790	-1.370
2020/01/31 17:13:10.4	358.020	-0.610	-0.750	-1.390
2020/01/31 17:13:10.5	358.030	-0.620	-0.700	-1.400
2020/01/31 17:13:10.6	358.050	-0.620	-0.650	-1.400
2020/01/31 17:13:10.7	358.060	-0.620	-0.600	-1.400
2020/01/31 17:13:10.8	358.070	-0.620	-0.540	-1.390
2020/01/31 17:13:10.9	358.080	-0.620	-0.480	-1.380
2020/01/31 17:13:11.0	358.090	-0.620	-0.410	-1.370
2020/01/31 17:13:11.1	358.090	-0.620	-0.350	-1.360
2020/01/31 17:13:11.2	358.090	-0.610	-0.290	-1.340
2020/01/31 17:13:11.3	358.090	-0.600	-0.230	-1.310
2020/01/31 17:13:11.4	358.090	-0.600	-0.170	-1.290
2020/01/31 17:13:11.5	358.090	-0.580	-0.110	-1.260
2020/01/31 17:13:11.6	358.080	-0.570	-0.050	-1.230
2020/01/31 17:13:11.7	358.070	-0.550	-0.000	-1.190
2020/01/31 17:13:11.8	358.060	-0.530	0.050	-1.150
2020/01/31 17:13:11.9	358.040	-0.510	0.090	-1.110
2020/01/31 17:13:12.0	358.030	-0.490	0.130	-1.070
2020/01/31 17:13:12.1	358.020	-0.460	0.170	-1.030
2020/01/31 17:13:12.2	358.010	-0.430	0.200	-0.990
2020/01/31 17:13:12.3	358.000	-0.400	0.230	-0.940
2020/01/31 17:13:12.4	357.980	-0.360	0.250	-0.900
2020/01/31 17:13:12.5	357.970	-0.320	0.260	-0.850
2020/01/31 17:13:12.6	357.960	-0.280	0.270	-0.800
2020/01/31 17:13:12.7	357.940	-0.240	0.280	-0.760
2020/01/31 17:13:12.8	357.930	-0.190	0.280	-0.700
2020/01/31 17:13:12.9	357.920	-0.140	0.270	-0.660
2020/01/31 17:13:13.0	357.900	-0.090	0.250	-0.610
2020/01/31 17:13:13.1	357.890	-0.040	0.240	-0.560
2020/01/31 17:13:13.2	357.890	0.020	0.210	-0.520
2020/01/31 17:13:13.3	357.880	0.070	0.190	-0.470
2020/01/31 17:13:13.4	357.870	0.130	0.160	-0.420
2020/01/31 17:13:13.5	357.870	0.190	0.120	-0.380
2020/01/31 17:13:13.6	357.860	0.250	0.080	-0.330
2020/01/31 17:13:13.7	357.860	0.310	0.040	-0.290
2020/01/31 17:13:13.8	357.840	0.370	0.000	-0.240
2020/01/31 17:13:13.9	357.830	0.430	-0.040	-0.200
2020/01/31 17:13:14.0	357.830	0.490	-0.080	-0.160
2020/01/31 17:13:14.1	357.820	0.550	-0.120	-0.120
2020/01/31 17:13:14.2	357.820	0.600	-0.160	-0.080
2020/01/31 17:13:14.3	357.810	0.660	-0.200	-0.040
2020/01/31 17:13:14.4	357.810	0.710	-0.240	-0.010
2020/01/31 17:13:14.5	357.800	0.750	-0.270	0.030
2020/01/31 17:13:14.6	357.790	0.790	-0.300	0.060
2020/01/31 17:13:14.7	357.780	0.830	-0.330	0.090
2020/01/31 17:13:14.8	357.770	0.860	-0.350	0.120
2020/01/31 17:13:14.9	357.750	0.890	-0.370	0.150
2020/01/31 17:13:15.0	357.730	0.910	-0.390	0.170
2020/01/31 17:13:15.1	357.710	0.920	-0.400	0.190
2020/01/31 17:13:15.2	357.690	0.930	-0.400	0.210
2020/01/31 17:13:15.3	357.660	0.930	-0.400	0.230
2020/01/31 17:13:15.4	357.630	0.930	-0.400	0.240
2020/01/31 17:13:15.5	357.610	0.920	-0.390	0.250
2020/01/31 17:13:15.6	357.570	0.910	-0.380	0.260
2020/01/31 17:13:15.7	357.540	0.890	-0.360	0.270
2020/01/31 17:13:15.8	357.510	0.870	-0.340	0.280
2020/01/31 17:13:15.9	357.470	0.830	-0.320	0.290
2020/01/31 17:13:16.0	357.440	0.800	-0.300	0.290
2020/01/31 17:13:16.1	357.400	0.760	-0.280	0.290
2020/01/31 17:13:16.2	357.370	0.720	-0.250	0.280
2020/01/31 17:13:16.3	357.330	0.670	-0.220	0.280
2020/01/31 17:13:16.4	357.300	0.620	-0.200	0.270
2020/01/31 17:13:16.5	357.270	0.570	-0.170	0.260
2020/01/31 17:13:16.6	357.240	0.510	-0.150	0.250
2020/01/31 17:13:16.7	357.210	0.460	-0.120	0.240
2020/01/31 17:13:16.8	357.190	0.400	-0.100	0.220
2020/01/31 17:13:16.9	357.170	0.340	-0.080	0.200
2020/01/31 17:13:17.0	357.150	0.290	-0.070	0.180
2020/01/31 17:13:17.1	357.130	0.230	-0.060	0.150
2020/01/31 17:13:17.2	357.110	0.170	-0.050	0.120
2020/01/31 17:13:17.3	357.100	0.120	-0.040	0.090
2020/01/31 17:13:17.4	357.090	0.060	-0.040	0.050
2020/01/31 17:13:17.5	357.080	0.010	-0.040	0.020
2020/01/31 17:13:17.6	357.070	-0.040	-0.040	-0.020
2020/01/31 17:13:17.7	357.070	-0.090	-0.050	-0.070
2020/01/31 17:13:17.8	357.060	-0.140	-0.050	-0.120
2020/01/31 17:13:17.9	357.060	-0.190	-0.070	-0.160
2020/01/31 17:13:18.0	357.070	-0.230	-0.080	-0.220
2020/01/31 17:13:18.1	357.070	-0.280	-0.090	-0.270
2020/01/31 17:13:18.2	357.080	-0.320	-0.110	-0.320
2020/01/31 17:13:18.3	357.090	-0.350	-0.130	-0.380
2020/01/31 17:13:18.4	357.100	-0.390	-0.150	-0.440
2020/01/31 17:13:18.5	357.110	-0.420	-0.170	-0.490
2020/01/31 17:13:18.6	357.120	-0.450	-0.190	-0.550
2020/01/31 17:13:18.7	357.130	-0.480	-0.220	-0.610
2020/01/31 17:13:18.8	357.160	-0.510	-0.240	-0.660
2020/01/31 17:13:18.9	357.170	-0.530	-0.260	-0.720
2020/01/31 17:13:19.0	357.190	-0.550	-0.280	-0.770
2020/01/31 17:13:19.1	357.210	-0.560	-0.310	-0.830
2020/01/31 17:13:19.2	357.230	-0.580	-0.330	-0.890
2020/01/31 17:13:19.3	357.250	-0.590	-0.350	-0.940
2020/01/31 17:13:19.4	357.280	-0.600	-0.380	-0.990
2020/01/31 17:13:19.5	357.300	-0.600	-0.400	-1.040
2020/01/31 17:13:19.6	357.330	-0.610	-0.430	-1.090
2020/01/31 17:13:19.7	357.360	-0.610	-0.450	-1.140
2020/01/31 17:13:19.8	357.390	-0.610	-0.470	-1.190
2020/01/31 17:13:19.9	357.420	-0.600	-0.490	-1.230
2020/01/31 17:13:20.0	357.450	-0.600	-0.520	-1.280
2020/01/31 17:13:20.1	357.490	-0.590	-0.540	-1.320
2020/01/31 17:13:20.2	357.520	-0.570	-0.560	-1.360
2020/01/31 17:13:20.3	357.560	-0.560	-0.580	-1.400
2020/01/31 17:13:20.4	357.600	-0.550	-0.610	-1.430
2020/01/31 17:13:20.5	357.640	-0.530	-0.630	-1.460
2020/01/31 17:13:20.6	357.680	-0.510	-0.650	-1.500
2020/01/31 17:13:20.7	357.720	-0.490	-0.670	-1.520
2020/01/31 17:13:20.8	357.760	-0.470	-0.690	-1.540
2020/01/31 17:13:20.9	357.800	-0.450	-0.700	-1.560
2020/01/31 17:13:21.0	357.840	-0.420	-0.720	-1.580
2020/01/31 17:13:21.1	357.870	-0.400	-0.730	-1.600
2020/01/31 17:13:21.2	357.900	-0.380	-0.740	-1.610
2020/01/31 17:13:21.3	357.930	-0.350	-0.750	-1.620
2020/01/31 17:13:21.4	357.960	-0.330	-0.750	-1.620
2020/01/31 17:13:21.5	357.990	-0.300	-0.750	-1.620
2020/01/31 17:13:21.6	358.010	-0.280	-0.750	-1.620
2020/01/31 17:13:21.7	358.030	-0.260	-0.740	-1.610
2020/01/31 17:13:21.8	358.030	-0.240	-0.730	-1.600
2020/01/31 17:13:21.9	358.050	-0.210	-0.720	-1.580
2020/01/31 17:13:22.0	358.060	-0.190	-0.700	-1.560
2020/01/31 17:13:22.1	358.070	-0.170	-0.680	-1.540
2020/01/31 17:13:22.2	358.080	-0.160	-0.650	-1.510
2020/01/31 17:13:22.3	358.080	-0.140	-0.620	-1.480
2020/01/31 17:13:22.4	358.080	-0.120	-0.590	-1.440
2020/01/31 17:13:22.5	358.080	-0.110	-0.550	-1.400
2020/01/31 17:13:22.6	358.080	-0.090	-0.520	-1.360
2020/01/31 17:13:22.7	358.080	-0.080	-0.470	-1.310
2020/01/31 17:13:22.8	358.060	-0.070	-0.430	-1.260
2020/01/31 17:13:22.9	358.050	-0.050	-0.380	-1.200
2020/01/31 17:13:23.0	358.040	-0.040	-0.330	-1.140
2020/01/31 17:13:23.1	358.030	-0.030	-0.280	-1.080
2020/01/31 17:13:23.2	358.020	-0.030	-0.230	-1.020
2020/01/31 17:13:23.3	358.000	-0.020	-0.180	-0.950
2020/01/31 17:13:23.4	357.990	-0.010	-0.120	-0.890
2020/01/31 17:13:23.5	357.970	-0.000	-0.070	-0.820
2020/01/31 17:13:23.6	357.950	0.010	-0.010	-0.750
2020/01/31 17:13:23.7	357.930	0.010	0.040	-0.680
2020/01/31 17:13:23.8	357.910	0.020	0.090	-0.600
2020/01/31 17:13:23.9	357.880	0.030	0.140	-0.530
2020/01/31 17:13:24.0	357.860	0.030	0.190	-0.460
2020/01/31 17:13:24.1	357.830	0.040	0.240	-0.380
2020/01/31 17:13:24.2	357.810	0.040	0.280	-0.310
2020/01/31 17:13:24.3	357.780	0.050	0.320	-0.240
2020/01/31 17:13:24.4	357.750	0.060	0.360	-0.170
2020/01/31 17:13:24.5	357.720	0.060	0.400	-0.100
2020/01/31 17:13:24.6	357.680	0.070	0.430	-0.030
2020/01/31 17:13:24.7	357.650	0.080	0.450	0.040
2020/01/31 17:13:24.8	357.630	0.090	0.470	0.110
2020/01/31 17:13:24.9	357.590	0.090	0.490	0.170
2020/01/31 17:13:25.0	357.550	0.100	0.500	0.230
2020/01/31 17:13:25.1	357.520	0.110	0.500	0.290
2020/01/31 17:13:25.2	357.480	0.120	0.500	0.350
2020/01/31 17:13:25.3	357.440	0.130	0.490	0.400
2020/01/31 17:13:25.4	357.410	0.140	0.470	0.440
2020/01/31 17:13:25.5	357.370	0.150	0.450	0.490
2020/01/31 17:13:25.6	357.330	0.160	0.420	0.530
2020/01/31 17:13:25.7	357.290	0.180	0.390	0.560
2020/01/31 17:13:25.8	357.260	0.190	0.350	0.600
2020/01/31 17:13:25.9	357.220	0.200	0.310	0.630
2020/01/31 17:13:26.0	357.180	0.220	0.260	0.650
2020/01/31 17:13:26.1	357.140	0.230	0.200	0.660
2020/01/31 17:13:26.2	357.110	0.250	0.140	0.670
2020/01/31 17:13:26.3	357.080	0.260	0.080	0.680
2020/01/31 17:13:26.4	357.050	0.280	0.010	0.680
2020/01/31 17:13:26.5	357.020	0.290	-0.060	0.670
2020/01/31 17:13:26.6	356.990	0.310	-0.130	0.660
2020/01/31 17:13:26.7	356.970	0.330	-0.210	0.650
2020/01/31 17:13:26.8	356.960	0.340	-0.280	0.620
2020/01/31 17:13:26.9	356.950	0.360	-0.360	0.600
2020/01/31 17:13:27.0	356.930	0.370	-0.440	0.570
2020/01/31 17:13:27.1	356.930	0.390	-0.510	0.530
2020/01/31 17:13:27.2	356.920	0.410	-0.590	0.490
2020/01/31 17:13:27.3	356.920	0.420	-0.660	0.450
2020/01/31 17:13:27.4	356.920	0.440	-0.730	0.400
2020/01/31 17:13:27.5	356.930	0.450	-0.800	0.350
2020/01/31 17:13:27.6	356.930	0.460	-0.870	0.290
2020/01/31 17:13:27.7	356.940	0.470	-0.930	0.230
2020/01/31 17:13:27.8	356.960	0.480	-0.980	0.170
2020/01/31 17:13:27.9	356.980	0.490	-1.030	0.110
2020/01/31 17:13:28.0	356.990	0.490	-1.080	0.040
2020/01/31 17:13:28.1	357.010	0.490	-1.120	-0.030
2020/01/31 17:13:28.2	357.030	0.490	-1.150	-0.100
2020/01/31 17:13:28.3	357.050	0.490	-1.170	-0.170
2020/01/31 17:13:28.4	357.080	0.480	-1.190	-0.240
2020/01/31 17:13:28.5	357.100	0.480	-1.200	-0.310
2020/01/31 17:13:28.6	357.130	0.460	-1.200	-0.380
2020/01/31 17:13:28.7	357.150	0.450	-1.190	-0.450
2020/01/31 17:13:28.8	357.180	0.430	-1.180	-0.520
2020/01/31 17:13:28.9	357.210	0.410	-1.160	-0.580
2020/01/31 17:13:29.0	357.240	0.380	-1.130	-0.650
2020/01/31 17:13:29.1	357.270	0.360	-1.090	-0.710
2020/01/31 17:13:29.2	357.300	0.330	-1.050	-0.770
2020/01/31 17:13:29.3	357.330	0.290	-1.000	-0.820
2020/01/31 17:13:29.4	357.360	0.260	-0.940	-0.880
2020/01/31 17:13:29.5	357.390	0.220	-0.880	-0.930
2020/01/31 17:13:29.6	357.420	0.180	-0.810	-0.970
2020/01/31 17:13:29.7	357.450	0.140	-0.740	-1.020
2020/01/31 17:13:29.8	357.500	0.100	-0.660	-1.050
2020/01/31 17:13:29.9	357.530	0.060	-0.580	-1.090
2020/01/31 17:13:30.0	357.560	0.010	-0.500	-1.120
2020/01/31 17:13:30.1	357.590	-0.030	-0.420	-1.150
2020/01/31 17:13:30.2	357.630	-0.070	-0.330	-1.180
2020/01/31 17:13:30.3	357.660	-0.120	-0.250	-1.210
2020/01/31 17:13:30.4	357.690	-0.160	-0.160	-1.230
2020/01/31 17:13:30.5	357.730	-0.210	-0.080	-1.250
2020/01/31 17:13:30.6	357.770	-0.250	-0.000	-1.270
2020/01/31 17:13:30.7	357.800	-0.290	0.070	-1.290
2020/01/31 17:13:30.8	357.830	-0.330	0.140	-1.300
2020/01/31 17:13:30.9	357.870	-0.360	0.210	-1.310
2020/01/31 17:13:31.0	357.910	-0.400	0.270	-1.320
2020/01/31 17:13:31.1	357.940	-0.430	0.330	-1.320
2020/01/31 17:13:31.2	357.970	-0.460	0.390	-1.320
2020/01/31 17:13:31.3	358.000	-0.480	0.440	-1.320
2020/01/31 17:13:31.4	358.030	-0.500	0.480	-1.310
2020/01/31 17:13:31.5	358.060	-0.520	0.520	-1.300
2020/01/31 17:13:31.6	358.080	-0.530	0.560	-1.280
2020/01/31 17:13:31.7	358.100	-0.540	0.590	-1.260
2020/01/31 17:13:31.8	358.120	-0.550	0.620	-1.230
2020/01/31 17:13:31.9	358.130	-0.560	0.640	-1.190
2020/01/31 17:13:32.0	358.140	-0.560	0.660	-1.160
2020/01/31 17:13:32.1	358.140	-0.550	0.680	-1.110
2020/01/31 17:13:32.2	358.130	-0.550	0.700	-1.070
2020/01/31 17:13:32.3	358.130	-0.540	0.710	-1.020
2020/01/31 17:13:32.4	358.110	-0.530	0.720	-0.960
2020/01/31 17:13:32.5	358.100	-0.520	0.720	-0.910
2020/01/31 17:13:32.6	358.080	-0.500	0.730	-0.850
2020/01/31 17:13:32.7	358.050	-0.480	0.730	-0.780
2020/01/31 17:13:32.8	358.010	-0.470	0.720	-0.710
2020/01/31 17:13:32.9	357.980	-0.440	0.720	-0.650
2020/01/31 17:13:33.0	357.940	-0.420	0.710	-0.580
2020/01/31 17:13:33.1	357.890	-0.400	0.690	-0.510
2020/01/31 17:13:33.2	357.850	-0.380	0.670	-0.440
2020/01/31 17:13:33.3	357.800	-0.350	0.650	-0.370
2020/01/31 17:13:33.4	357.750	-0.330	0.630	-0.300
2020/01/31 17:13:33.5	357.690	-0.310	0.590	-0.230
2020/01/31 17:13:33.6	357.630	-0.280	0.560	-0.170
2020/01/31 17:13:33.7	357.570	-0.260	0.510	-0.110
2020/01/31 17:13:33.8	357.510	-0.230	0.470	-0.040
2020/01/31 17:13:33.9	357.450	-0.210	0.420	0.020
2020/01/31 17:13:34.0	357.390	-0.190	0.360	0.070
2020/01/31 17:13:34.1	357.330	-0.170	0.300	0.120
2020/01/31 17:13:34.2	357.270	-0.150	0.230	0.160
2020/01/31 17:13:34.3	357.210	-0.120	0.160	0.190
2020/01/31 17:13:34.4	357.160	-0.100	0.080	0.220
2020/01/31 17:13:34.5	357.110	-0.080	-0.000	0.250
2020/01/31 17:13:34.6	357.060	-0.060	-0.090	0.260
2020/01/31 17:13:34.7	357.010	-0.040	-0.180	0.270
2020/01/31 17:13:34.8	356.970	-0.020	-0.270	0.280
2020/01/31 17:13:34.9	356.930	-0.010	-0.370	0.280
2020/01/31 17:13:35.0	356.900	0.010	-0.460	0.270
2020/01/31 17:13:35.1	356.860	0.030	-0.560	0.250
2020/01/31 17:13:35.2	356.830	0.050	-0.660	0.230
2020/01/31 17:13:35.3	356.810	0.070	-0.750	0.210
2020/01/31 17:13:35.4	356.780	0.090	-0.850	0.180
2020/01/31 17:13:35.5	356.770	0.110	-0.950	0.140
2020/01/31 17:13:35.6	356.750	0.130	-1.040	0.100
2020/01/31 17:13:35.7	356.750	0.150	-1.130	0.060
2020/01/31 17:13:35.8	356.750	0.170	-1.220	0.020
2020/01/31 17:13:35.9	356.760	0.190	-1.300	-0.030
2020/01/31 17:13:36.0	356.760	0.210	-1.380	-0.090
2020/01/31 17:13:36.1	356.770	0.240	-1.460	-0.140
2020/01/31 17:13:36.2	356.790	0.260	-1.530	-0.200
2020/01/31 17:13:36.3	356.810	0.280	-1.600	-0.270
2020/01/31 17:13:36.4	356.840	0.300	-1.660	-0.330
2020/01/31 17:13:36.5	356.870	0.330	-1.720	-0.400
2020/01/31 17:13:36.6	356.910	0.350	-1.770	-0.470
2020/01/31 17:13:36.7	356.950	0.370	-1.810	-0.540
2020/01/31 17:13:36.8	356.990	0.390	-1.840	-0.610
2020/01/31 17:13:36.9	357.040	0.410	-1.870	-0.680
2020/01/31 17:13:37.0	357.090	0.430	-1.890	-0.750
2020/01/31 17:13:37.1	357.140	0.450	-1.900	-0.820
2020/01/31 17:13:37.2	357.190	0.470	-1.900	-0.880
2020/01/31 17:13:37.3	357.240	0.480	-1.890	-0.950
2020/01/31 17:13:37.4	357.290	0.490	-1.870	-1.010
2020/01/31 17:13:37.5	357.350	0.500	-1.840	-1.070
2020/01/31 17:13:37.6	357.400	0.510	-1.800	-1.120
2020/01/31 17:13:37.7	357.450	0.510	-1.750	-1.170
2020/01/31 17:13:37.8	357.480	0.510	-1.690	-1.220
2020/01/31 17:13:37.9	357.530	0.500	-1.620	-1.260
2020/01/31 17:13:38.0	357.580	0.500	-1.540	-1.300
2020/01/31 17:13:38.1	357.630	0.480	-1.460	-1.340
2020/01/31 17:13:38.2	357.670	0.470	-1.360	-1.370
2020/01/31 17:13:38.3	357.720	0.450	-1.260	-1.400
2020/01/31 17:13:38.4	357.760	0.430	-1.150	-1.420
2020/01/31 17:13:38.5	357.800	0.410	-1.040	-1.440
2020/01/31 17:13:38.6	357.830	0.380	-0.920	-1.460
2020/01/31 17:13:38.7	357.870	0.350	-0.800	-1.460
2020/01/31 17:13:38.8	357.900	0.310	-0.670	-1.460
2020/01/31 17:13:38.9	357.930	0.280	-0.540	-1.460
2020/01/31 17:13:39.0	357.970	0.240	-0.410	-1.460
2020/01/31 17:13:39.1	358.000	0.200	-0.280	-1.450
2020/01/31 17:13:39.2	358.030	0.160	-0.150	-1.430
2020/01/31 17:13:39.3	358.050	0.120	-0.010	-1.410
2020/01/31 17:13:39.4	358.080	0.070	0.120	-1.390
2020/01/31 17:13:39.5	358.100	0.030	0.240	-1.360
2020/01/31 17:13:39.6	358.120	-0.010	0.370	-1.330
2020/01/31 17:13:39.7	358.140	-0.060	0.490	-1.300
2020/01/31 17:13:39.8	358.150	-0.100	0.610	-1.260
2020/01/31 17:13:39.9	358.160	-0.150	0.730	-1.220
2020/01/31 17:13:40.0	358.170	-0.190	0.840	-1.180
2020/01/31 17:13:40.1	358.180	-0.230	0.940	-1.130
2020/01/31 17:13:40.2	358.180	-0.270	1.040	-1.080
2020/01/31 17:13:40.3	358.180	-0.300	1.130	-1.030
2020/01/31 17:13:40.4	358.170	-0.340	1.220	-0.980
2020/01/31 17:13:40.5	358.160	-0.370	1.300	-0.920
2020/01/31 17:13:40.6	358.150	-0.400	1.370	-0.870
2020/01/31 17:13:40.7	358.130	-0.420	1.440	-0.810
2020/01/31 17:13:40.8	358.120	-0.440	1.490	-0.740
2020/01/31 17:13:40.9	358.100	-0.460	1.540	-0.680
2020/01/31 17:13:41.0	358.080	-0.480	1.580	-0.620
2020/01/31 17:13:41.1	358.050	-0.490	1.610	-0.560
2020/01/31 17:13:41.2	358.020	-0.490	1.630	-0.500
2020/01/31 17:13:41.3	357.980	-0.500	1.640	-0.430
2020/01/31 17:13:41.4	357.950	-0.500	1.640	-0.370
2020/01/31 17:13:41.5	357.910	-0.490	1.630	-0.310
2020/01/31 17:13:41.6	357.870	-0.490	1.610	-0.250
2020/01/31 17:13:41.7	357.830	-0.470	1.580	-0.190
2020/01/31 17:13:41.8	357.790	-0.460	1.540	-0.130
2020/01/31 17:13:41.9	357.750	-0.440	1.490	-0.080
2020/01/31 17:13:42.0	357.700	-0.420	1.430	-0.020
2020/01/31 17:13:42.1	357.660	-0.400	1.360	0.020
2020/01/31 17:13:42.2	357.610	-0.380	1.280	0.070
2020/01/31 17:13:42.3	357.560	-0.350	1.190	0.110
2020/01/31 17:13:42.4	357.510	-0.320	1.090	0.150
2020/01/31 17:13:42.5	357.460	-0.290	0.990	0.180
2020/01/31 17:13:42.6	357.410	-0.260	0.870	0.210
2020/01/31 17:13:42.7	357.370	-0.230	0.750	0.230
2020/01/31 17:13:42.8	357.330	-0.200	0.620	0.250
2020/01/31 17:13:42.9	357.290	-0.160	0.490	0.260
2020/01/31 17:13:43.0	357.240	-0.130	0.350	0.260
2020/01/31 17:13:43.1	357.210	-0.100	0.200	0.250
2020/01/31 17:13:43.2	357.170	-0.070	0.060	0.230
2020/01/31 17:13:43.3	357.140	-0.040	-0.090	0.210
2020/01/31 17:13:43.4	357.110	-0.000	-0.240	0.180
2020/01/31 17:13:43.5	357.090	0.020	-0.390	0.140
2020/01/31 17:13:43.6	357.070	0.050	-0.540	0.100
2020/01/31 17:13:43.7	357.050	0.080	-0.680	0.050
2020/01/31 17:13:43.8	357.040	0.110	-0.820	-0.000
2020/01/31 17:13:43.9	357.030	0.130	-0.960	-0.060
2020/01/31 17:13:44.0	357.030	0.160	-1.090	-0.120
2020/01/31 17:13:44.1	357.030	0.180	-1.220	-0.180
2020/01/31 17:13:44.2	357.040	0.200	-1.340	-0.240
2020/01/31 17:13:44.3	357.050	0.220	-1.450	-0.310
2020/01/31 17:13:44.4	357.060	0.240	-1.560	-0.370
2020/01/31 17:13:44.5	357.070	0.250	-1.650	-0.440
2020/01/31 17:13:44.6	357.090	0.270	-1.730	-0.500
2020/01/31 17:13:44.7	357.110	0.280	-1.800	-0.560
2020/01/31 17:13:44.8	357.130	0.300	-1.860	-0.620
2020/01/31 17:13:44.9	357.160	0.310	-1.900	-0.670
2020/01/31 17:13:45.0	357.180	0.320	-1.930	-0.730
2020/01/31 17:13:45.1	357.200	0.320	-1.950	-0.780
2020/01/31 17:13:45.2	357.220	0.330	-1.960	-0.820
2020/01/31 17:13:45.3	357.250	0.330	-1.950	-0.860
2020/01/31 17:13:45.4	357.270	0.340	-1.930	-0.900
2020/01/31 17:13:45.5	357.290	0.340	-1.900	-0.930
2020/01/31 17:13:45.6	357.310	0.340	-1.850	-0.960
2020/01/31 17:13:45.7	357.320	0.340	-1.800	-0.980
2020/01/31 17:13:45.8	357.350	0.330	-1.730	-1.000
2020/01/31 17:13:45.9	357.370	0.330	-1.660	-1.020
2020/01/31 17:13:46.0	357.390	0.320	-1.580	-1.030
2020/01/31 17:13:46.1	357.400	0.310	-1.490	-1.040
2020/01/31 17:13:46.2	357.410	0.300	-1.390	-1.040
2020/01/31 17:13:46.3	357.430	0.290	-1.290	-1.040
2020/01/31 17:13:46.4	357.440	0.280	-1.190	-1.030
2020/01/31 17:13:46.5	357.450	0.260	-1.090	-1.030
2020/01/31 17:13:46.6	357.460	0.250	-0.980	-1.020
2020/01/31 17:13:46.7	357.480	0.230	-0.880	-1.010
2020/01/31 17:13:46.8	357.480	0.220	-0.770	-0.990
2020/01/31 17:13:46.9	357.500	0.200	-0.670	-0.970
2020/01/31 17:13:47.0	357.510	0.190	-0.570	-0.950
2020/01/31 17:13:47.1	357.520	0.170	-0.470	-0.930
2020/01/31 17:13:47.2	357.540	0.150	-0.380	-0.910
2020/01/31 17:13:47.3	357.550	0.140	-0.290	-0.890
2020/01/31 17:13:47.4	357.570	0.120	-0.210	-0.870
2020/01/31 17:13:47.5	357.590	0.100	-0.140	-0.850
2020/01/31 17:13:47.6	357.610	0.090	-0.070	-0.830
2020/01/31 17:13:47.7	357.630	0.070	-0.010	-0.810
2020/01/31 17:13:47.8	357.660	0.060	0.040	-0.790
2020/01/31 17:13:47.9	357.680	0.050	0.080	-0.780
2020/01/31 17:13:48.0	357.710	0.030	0.120	-0.760
2020/01/31 17:13:48.1	357.740	0.020	0.150	-0.750
2020/01/31 17:13:48.2	357.770	0.010	0.180	-0.740
2020/01/31 17:13:48.3	357.800	0.000	0.190	-0.730
2020/01/31 17:13:48.4	357.830	-0.010	0.200	-0.720
2020/01/31 17:13:48.5	357.870	-0.010	0.210	-0.710
2020/01/31 17:13:48.6	357.900	-0.020	0.210	-0.700
2020/01/31 17:13:48.7	357.930	-0.020	0.210	-0.690
2020/01/31 17:13:48.8	357.950	-0.030	0.200	-0.680
2020/01/31 17:13:48.9	357.980	-0.030	0.190	-0.680
2020/01/31 17:13:49.0	358.010	-0.040	0.180	-0.670
2020/01/31 17:13:49.1	358.040	-0.040	0.170	-0.660
2020/01/31 17:13:49.2	358.070	-0.050	0.160	-0.650
2020/01/31 17:13:49.3	358.100	-0.050	0.150	-0.640
2020/01/31 17:13:49.4	358.120	-0.060	0.140	-0.630
2020/01/31 17:13:49.5	358.140	-0.060	0.130	-0.620
2020/01/31 17:13:49.6	358.160	-0.070	0.120	-0.610
2020/01/31 17:13:49.7	358.170	-0.080	0.110	-0.590
2020/01/31 17:13:49.8	358.180	-0.090	0.110	-0.570
2020/01/31 17:13:49.9	358.190	-0.100	0.110	-0.560
2020/01/31 17:13:50.0	358.190	-0.110	0.100	-0.540
2020/01/31 17:13:50.1	358.190	-0.120	0.100	-0.520
2020/01/31 17:13:50.2	358.190	-0.130	0.100	-0.500
2020/01/31 17:13:50.3	358.190	-0.150	0.100	-0.480
2020/01/31 17:13:50.4	358.180	-0.170	0.110	-0.460
2020/01/31 17:13:50.5	358.170	-0.180	0.110	-0.440
2020/01/31 17:13:50.6	358.150	-0.200	0.120	-0.420
2020/01/31 17:13:50.7	358.140	-0.220	0.120	-0.410
2020/01/31 17:13:50.8	358.130	-0.240	0.130	-0.380
2020/01/31 17:13:50.9	358.110	-0.260	0.140	-0.360
2020/01/31 17:13:51.0	358.090	-0.290	0.150	-0.350
2020/01/31 17:13:51.1	358.070	-0.310	0.150	-0.330
2020/01/31 17:13:51.2	358.050	-0.330	0.160	-0.320
2020/01/31 17:13:51.3	358.030	-0.350	0.170	-0.300
2020/01/31 17:13:51.4	358.000	-0.370	0.170	-0.290
2020/01/31 17:13:51.5	357.980	-0.390	0.180	-0.280
2020/01/31 17:13:51.6	357.950	-0.400	0.180	-0.270
2020/01/31 17:13:51.7	357.930	-0.420	0.190	-0.260
2020/01/31 17:13:51.8	357.900	-0.430	0.190	-0.240
2020/01/31 17:13:51.9	357.870	-0.440	0.190	-0.230
2020/01/31 17:13:52.0	357.840	-0.450	0.190	-0.220
2020/01/31 17:13:52.1	357.810	-0.450	0.190	-0.210
2020/01/31 17:13:52.2	357.780	-0.460	0.190	-0.200
2020/01/31 17:13:52.3	357.750	-0.450	0.190	-0.180
2020/01/31 17:13:52.4	357.720	-0.450	0.180	-0.170
2020/01/31 17:13:52.5	357.690	-0.440	0.180	-0.160
2020/01/31 17:13:52.6	357.650	-0.430	0.170	-0.140
2020/01/31 17:13:52.7	357.620	-0.410	0.160	-0.130
2020/01/31 17:13:52.8	357.590	-0.390	0.150	-0.110
2020/01/31 17:13:52.9	357.550	-0.360	0.140	-0.090
2020/01/31 17:13:53.0	357.520	-0.330	0.130	-0.070
2020/01/31 17:13:53.1	357.480	-0.300	0.120	-0.060
2020/01/31 17:13:53.2	357.450	-0.270	0.100	-0.040
2020/01/31 17:13:53.3	357.410	-0.230	0.080	-0.020
2020/01/31 17:13:53.4	357.380	-0.180	0.060	-0.000
2020/01/31 17:13:53.5	357.340	-0.140	0.040	0.020
2020/01/31 17:13:53.6	357.310	-0.090	0.020	0.030
2020/01/31 17:13:53.7	357.270	-0.040	-0.010	0.050
2020/01/31 17:13:53.8	357.240	0.020	-0.030	0.070
2020/01/31 17:13:53.9	357.210	0.070	-0.060	0.080
2020/01/31 17:13:54.0	357.180	0.130	-0.090	0.090
2020/01/31 17:13:54.1	357.160	0.180	-0.130	0.100
2020/01/31 17:13:54.2	357.130	0.240	-0.170	0.100
2020/01/31 17:13:54.3	357.110	0.300	-0.200	0.110
2020/01/31 17:13:54.4	357.100	0.350	-0.250	0.100
2020/01/31 17:13:54.5	357.080	0.410	-0.290	0.100
2020/01/31 17:13:54.6	357.070	0.460	-0.330	0.090
2020/01/31 17:13:54.7	357.070	0.510	-0.380	0.080
2020/01/31 17:13:54.8	357.050	0.560	-0.420	0.060
2020/01/31 17:13:54.9	357.050	0.600	-0.470	0.040
2020/01/31 17:13:55.0	357.060	0.640	-0.520	0.020
2020/01/31 17:13:55.1	357.070	0.680	-0.570	-0.010
2020/01/31 17:13:55.2	357.080	0.710	-0.620	-0.040
2020/01/31 17:13:55.3	357.100	0.740	-0.670	-0.070
2020/01/31 17:13:55.4	357.130	0.770	-0.710	-0.110
2020/01/31 17:13:55.5	357.150	0.790	-0.760	-0.150
2020/01/31 17:13:55.6	357.180	0.800	-0.800	-0.180
2020/01/31 17:13:55.7	357.210	0.810	-0.840	-0.230
2020/01/31 17:13:55.8	357.250	0.820	-0.880	-0.270
2020/01/31 17:13:55.9	357.280	0.820	-0.910	-0.310
2020/01/31 17:13:56.0	357.320	0.810	-0.940	-0.350
2020/01/31 17:13:56.1	357.360	0.800	-0.960	-0.390
2020/01/31 17:13:56.2	357.390	0.780	-0.970	-0.440
2020/01/31 17:13:56.3	357.420	0.760	-0.980	-0.480
2020/01/31 17:13:56.4	357.460	0.730	-0.990	-0.510
2020/01/31 17:13:56.5	357.490	0.700	-0.980	-0.550
2020/01/31 17:13:56.6	357.520	0.660	-0.970	-0.590
2020/01/31 17:13:56.7	357.550	0.610	-0.960	-0.620
2020/01/31 17:13:56.8	357.570	0.570	-0.930	-0.650
2020/01/31 17:13:56.9	357.590	0.520	-0.900	-0.680
2020/01/31 17:13:57.0	357.610	0.460	-0.860	-0.700
2020/01/31 17:13:57.1	357.630	0.400	-0.820	-0.720
2020/01/31 17:13:57.2	357.640	0.340	-0.770	-0.740
2020/01/31 17:13:57.3	357.650	0.280	-0.720	-0.760
2020/01/31 17:13:57.4	357.660	0.210	-0.660	-0.770
2020/01/31 17:13:57.5	357.660	0.140	-0.600	-0.780
2020/01/31 17:13:57.6	357.670	0.070	-0.530	-0.790
2020/01/31 17:13:57.7	357.660	0.000	-0.460	-0.790
2020/01/31 17:13:57.8	357.650	-0.060	-0.390	-0.790
2020/01/31 17:13:57.9	357.640	-0.130	-0.320	-0.790
2020/01/31 17:13:58.0	357.630	-0.200	-0.250	-0.780
2020/01/31 17:13:58.1	357.620	-0.270	-0.180	-0.780
2020/01/31 17:13:58.2	357.610	-0.330	-0.120	-0.770
2020/01/31 17:13:58.3	357.590	-0.400	-0.050	-0.760
2020/01/31 17:13:58.4	357.580	-0.460	0.010	-0.750
2020/01/31 17:13:58.5	357.560	-0.510	0.070	-0.740
2020/01/31 17:13:58.6	357.540	-0.570	0.120	-0.730
2020/01/31 17:13:58.7	357.520	-0.620	0.170	-0.710
2020/01/31 17:13:58.8	357.510	-0.660	0.220	-0.700
2020/01/31 17:13:58.9	357.490	-0.700	0.250	-0.690
2020/01/31 17:13:59.0	357.470	-0.740	0.280	-0.680
2020/01/31 17:13:59.1	357.460	-0.770	0.310	-0.680
2020/01/31 17:13:59.2	357.440	-0.800	0.320	-0.680
2020/01/31 17:13:59.3	357.430	-0.820	0.330	-0.680
2020/01/31 17:13:59.4	357.420	-0.830	0.330	-0.680
2020/01/31 17:13:59.5	357.410	-0.840	0.320	-0.680
2020/01/31 17:13:59.6	357.400	-0.850	0.310	-0.690
2020/01/31 17:13:59.7	357.400	-0.840	0.290	-0.700
2020/01/31 17:13:59.8	357.400	-0.830	0.260	-0.710
2020/01/31 17:13:59.9	357.400	-0.820	0.220	-0.720
2020/01/31 17:14:00.0	357.400	-0.800	0.180	-0.730
2020/01/31 17:14:00.1	357.410	-0.780	0.140	-0.740
2020/01/31 17:14:00.2	357.420	-0.750	0.090	-0.760
2020/01/31 17:14:00.3	357.440	-0.710	0.030	-0.770
2020/01/31 17:14:00.4	357.450	-0.670	-0.030	-0.790
2020/01/31 17:14:00.5	357.470	-0.630	-0.090	-0.800
2020/01/31 17:14:00.6	357.490	-0.580	-0.150	-0.820
2020/01/31 17:14:00.7	357.510	-0.530	-0.210	-0.830
2020/01/31 17:14:00.8	357.520	-0.480	-0.280	-0.840
2020/01/31 17:14:00.9	357.540	-0.420	-0.340	-0.850
2020/01/31 17:14:01.0	357.560	-0.370	-0.400	-0.850
2020/01/31 17:14:01.1	357.580	-0.310	-0.450	-0.860
2020/01/31 17:14:01.2	357.600	-0.250	-0.510	-0.860
2020/01/31 17:14:01.3	357.620	-0.190	-0.560	-0.860
2020/01/31 17:14:01.4	357.640	-0.130	-0.600	-0.850
2020/01/31 17:14:01.5	357.660	-0.070	-0.640	-0.850
2020/01/31 17:14:01.6	357.680	-0.010	-0.670	-0.840
2020/01/31 17:14:01.7	357.690	0.050	-0.700	-0.830
2020/01/31 17:14:01.8	357.710	0.110	-0.720	-0.810
2020/01/31 17:14:01.9	357.730	0.160	-0.730	-0.790
2020/01/31 17:14:02.0	357.740	0.210	-0.740	-0.770
2020/01/31 17:14:02.1	357.750	0.270	-0.740	-0.740
2020/01/31 17:14:02.2	357.770	0.320	-0.740	-0.710
2020/01/31 17:14:02.3	357.780	0.360	-0.730	-0.680
2020/01/31 17:14:02.4	357.790	0.400	-0.710	-0.640
2020/01/31 17:14:02.5	357.800	0.450	-0.690	-0.600
2020/01/31 17:14:02.6	357.800	0.480	-0.670	-0.550
2020/01/31 17:14:02.7	357.810	0.520	-0.640	-0.510
2020/01/31 17:14:02.8	357.810	0.550	-0.610	-0.450
2020/01/31 17:14:02.9	357.820	0.570	-0.570	-0.400
2020/01/31 17:14:03.0	357.820	0.600	-0.540	-0.340
2020/01/31 17:14:03.1	357.820	0.620	-0.500	-0.290
2020/01/31 17:14:03.2	357.820	0.630	-0.450	-0.230
2020/01/31 17:14:03.3	357.810	0.650	-0.410	-0.170
2020/01/31 17:14:03.4	357.810	0.650	-0.370	-0.110
2020/01/31 17:14:03.5	357.800	0.660	-0.320	-0.050
2020/01/31 17:14:03.6	357.800	0.660	-0.280	0.010
2020/01/31 17:14:03.7	357.790	0.650	-0.240	0.060
2020/01/31 17:14:03.8	357.800	0.640	-0.190	0.120
2020/01/31 17:14:03.9	357.790	0.630	-0.150	0.170
2020/01/31 17:14:04.0	357.780	0.610	-0.110	0.220
2020/01/31 17:14:04.1	357.760	0.590	-0.070	0.260
2020/01/31 17:14:04.2	357.750	0.570	-0.040	0.290
2020/01/31 17:14:04.3	357.740	0.540	-0.010	0.320
2020/01/31 17:14:04.4	357.720	0.510	0.020	0.340
2020/01/31 17:14:04.5	357.710	0.480	0.050	0.360
2020/01/31 17:14:04.6	357.690	0.440	0.080	0.370
2020/01/31 17:14:04.7	357.680	0.400	0.100	0.380
2020/01/31 17:14:04.8	357.660	0.360	0.120	0.380
2020/01/31 17:14:04.9	357.650	0.320	0.130	0.380
2020/01/31 17:14:05.0	357.630	0.280	0.150	0.370
2020/01/31 17:14:05.1	357.620	0.230	0.160	0.350
2020/01/31 17:14:05.2	357.600	0.190	0.160	0.330
2020/01/31 17:14:05.3	357.580	0.140	0.170	0.300
2020/01/31 17:14:05.4	357.570	0.100	0.170	0.270
2020/01/31 17:14:05.5	357.550	0.050	0.170	0.230
2020/01/31 17:14:05.6	357.540	0.000	0.160	0.190
2020/01/31 17:14:05.7	357.520	-0.040	0.160	0.150
2020/01/31 17:14:05.8	357.510	-0.090	0.150	0.100
2020/01/31 17:14:05.9	357.500	-0.130	0.140	0.050
2020/01/31 17:14:06.0	357.490	-0.170	0.130	-0.010
2020/01/31 17:14:06.1	357.480	-0.210	0.110	-0.060
2020/01/31 17:14:06.2	357.470	-0.240	0.100	-0.120
2020/01/31 17:14:06.3	357.460	-0.280	0.090	-0.180
2020/01/31 17:14:06.4	357.450	-0.310	0.070	-0.250
2020/01/31 17:14:06.5	357.450	-0.340	0.050	-0.310
2020/01/31 17:14:06.6	357.450	-0.370	0.040	-0.380
2020/01/31 17:14:06.7	357.450	-0.390	0.020	-0.440
2020/01/31 17:14:06.8	357.450	-0.410	0.010	-0.510
2020/01/31 17:14:06.9	357.460	-0.430	-0.010	-0.570
2020/01/31 17:14:07.0	357.470	-0.440	-0.030	-0.640
2020/01/31 17:14:07.1	357.470	-0.450	-0.040	-0.700
2020/01/31 17:14:07.2	357.490	-0.460	-0.060	-0.760
2020/01/31 17:14:07.3	357.500	-0.460	-0.070	-0.820
2020/01/31 17:14:07.4	357.510	-0.460	-0.090	-0.880
2020/01/31 17:14:07.5	357.530	-0.460	-0.100	-0.940
2020/01/31 17:14:07.6	357.550	-0.450	-0.120	-0.990
2020/01/31 17:14:07.7	357.570	-0.440	-0.130	-1.040
2020/01/31 17:14:07.8	357.600	-0.430	-0.140	-1.090
2020/01/31 17:14:07.9	357.620	-0.410	-0.160	-1.130
2020/01/31 17:14:08.0	357.640	-0.390	-0.170	-1.170
2020/01/31 17:14:08.1	357.660	-0.370	-0.180	-1.200
2020/01/31 17:14:08.2	357.680	-0.350	-0.200	-1.220
2020/01/31 17:14:08.3	357.700	-0.330	-0.210	-1.240
2020/01/31 17:14:08.4	357.720	-0.300	-0.220	-1.250
2020/01/31 17:14:08.5	357.730	-0.270	-0.230	-1.260
2020/01/31 17:14:08.6	357.740	-0.240	-0.230	-1.250
2020/01/31 17:14:08.7	357.750	-0.210	-0.240	-1.240
2020/01/31 17:14:08.8	357.750	-0.180	-0.250	-1.220
2020/01/31 17:14:08.9	357.750	-0.160	-0.250	-1.200
2020/01/31 17:14:09.0	357.740	-0.130	-0.250	-1.170
2020/01/31 17:14:09.1	357.740	-0.100	-0.260	-1.140
2020/01/31 17:14:09.2	357.730	-0.070	-0.260	-1.100
2020/01/31 17:14:09.3	357.720	-0.040	-0.260	-1.060
2020/01/31 17:14:09.4	357.710	-0.020	-0.260	-1.020
2020/01/31 17:14:09.5	357.690	0.010	-0.270	-0.980
2020/01/31 17:14:09.6	357.680	0.030	-0.270	-0.930
2020/01/31 17:14:09.7	357.660	0.060	-0.280	-0.880
2020/01/31 17:14:09.8	357.640	0.080	-0.290	-0.830
2020/01/31 17:14:09.9	357.620	0.100	-0.300	-0.790
2020/01/31 17:14:10.0	357.610	0.120	-0.310	-0.740
2020/01/31 17:14:10.1	357.590	0.130	-0.330	-0.700
2020/01/31 17:14:10.2	357.570	0.150	-0.350	-0.660
2020/01/31 17:14:10.3	357.550	0.170	-0.370	-0.620
2020/01/31 17:14:10.4	357.540	0.180	-0.390	-0.580
2020/01/31 17:14:10.5	357.520	0.200	-0.410	-0.550
2020/01/31 17:14:10.6	357.510	0.210	-0.440	-0.520
2020/01/31 17:14:10.7	357.510	0.220	-0.470	-0.490
2020/01/31 17:14:10.8	357.510	0.230	-0.500	-0.450
2020/01/31 17:14:10.9	357.510	0.250	-0.530	-0.430
2020/01/31 17:14:11.0	357.510	0.260	-0.560	-0.410
2020/01/31 17:14:11.1	357.520	0.270	-0.600	-0.390
2020/01/31 17:14:11.2	357.520	0.280	-0.630	-0.370
2020/01/31 17:14:11.3	357.540	0.290	-0.670	-0.360
2020/01/31 17:14:11.4	357.550	0.300	-0.700	-0.350
2020/01/31 17:14:11.5	357.570	0.310	-0.740	-0.340
2020/01/31 17:14:11.6	357.590	0.320	-0.770	-0.330
2020/01/31 17:14:11.7	357.620	0.330	-0.810	-0.330
2020/01/31 17:14:11.8	357.650	0.340	-0.840	-0.330
2020/01/31 17:14:11.9	357.680	0.350	-0.870	-0.340
2020/01/31 17:14:12.0	357.710	0.350	-0.900	-0.340
2020/01/31 17:14:12.1	357.750	0.360	-0.920	-0.350
2020/01/31 17:14:12.2	357.790	0.360	-0.950	-0.370
2020/01/31 17:14:12.3	357.840	0.360	-0.960	-0.380
2020/01/31 17:14:12.4	357.880	0.360	-0.980	-0.400
2020/01/31 17:14:12.5	357.920	0.360	-0.990	-0.420
2020/01/31 17:14:12.6	357.970	0.360	-1.000	-0.440
2020/01/31 17:14:12.7	358.010	0.350	-1.000	-0.470
2020/01/31 17:14:12.8	358.060	0.340	-1.000	-0.490
2020/01/31 17:14:12.9	358.100	0.330	-1.000	-0.510
2020/01/31 17:14:13.0	358.150	0.310	-0.990	-0.540
2020/01/31 17:14:13.1	358.190	0.290	-0.970	-0.570
2020/01/31 17:14:13.2	358.230	0.270	-0.950	-0.600
2020/01/31 17:14:13.3	358.270	0.250	-0.920	-0.630
2020/01/31 17:14:13.4	358.300	0.230	-0.890	-0.660
2020/01/31 17:14:13.5	358.340	0.200	-0.850	-0.690
2020/01/31 17:14:13.6	358.370	0.170	-0.800	-0.720
2020/01/31 17:14:13.7	358.390	0.130	-0.760	-0.740
2020/01/31 17:14:13.8	358.410	0.100	-0.700	-0.770
2020/01/31 17:14:13.9	358.430	0.060	-0.640	-0.790
2020/01/31 17:14:14.0	358.450	0.020	-0.580	-0.800
2020/01/31 17:14:14.1	358.460	-0.010	-0.520	-0.810
2020/01/31 17:14:14.2	358.470	-0.060	-0.450	-0.820
2020/01/31 17:14:14.3	358.470	-0.100	-0.370	-0.830
2020/01/31 17:14:14.4	358.470	-0.140	-0.300	-0.830
2020/01/31 17:14:14.5	358.460	-0.180	-0.220	-0.820
2020/01/31 17:14:14.6	358.460	-0.220	-0.140	-0.820
2020/01/31 17:14:14.7	358.450	-0.260	-0.060	-0.800
2020/01/31 17:14:14.8	358.420	-0.300	0.010	-0.790
2020/01/31 17:14:14.9	358.410	-0.330	0.090	-0.770
2020/01/31 17:14:15.0	358.390	-0.370	0.160	-0.740
2020/01/31 17:14:15.1	358.370	-0.400	0.240	-0.720
2020/01/31 17:14:15.2	358.340	-0.430	0.310	-0.690
2020/01/31 17:14:15.3	358.320	-0.460	0.380	-0.660
2020/01/31 17:14:15.4	358.300	-0.480	0.440	-0.630
2020/01/31 17:14:15.5	358.270	-0.510	0.500	-0.600
2020/01/31 17:14:15.6	358.240	-0.520	0.550	-0.570
2020/01/31 17:14:15.7	358.210	-0.530	0.600	-0.530
2020/01/31 17:14:15.8	358.200	-0.540	0.650	-0.500
2020/01/31 17:14:15.9	358.170	-0.550	0.690	-0.460
2020/01/31 17:14:16.0	358.140	-0.550	0.720	-0.430
2020/01/31 17:14:16.1	358.110	-0.540	0.740	-0.400
2020/01/31 17:14:16.2	358.080	-0.530	0.760	-0.370
2020/01/31 17:14:16.3	358.050	-0.520	0.770	-0.330
2020/01/31 17:14:16.4	358.030	-0.500	0.770	-0.300
2020/01/31 17:14:16.5	358.000	-0.480	0.770	-0.270
2020/01/31 17:14:16.6	357.960	-0.450	0.760	-0.240
2020/01/31 17:14:16.7	357.930	-0.420	0.750	-0.210
2020/01/31 17:14:16.8	357.910	-0.390	0.730	-0.180
2020/01/31 17:14:16.9	357.880	-0.350	0.700	-0.150
2020/01/31 17:14:17.0	357.850	-0.310	0.670	-0.130
2020/01/31 17:14:17.1	357.820	-0.260	0.630	-0.100
2020/01/31 17:14:17.2	357.790	-0.220	0.590	-0.080
2020/01/31 17:14:17.3	357.760	-0.170	0.550	-0.050
2020/01/31 17:14:17.4	357.730	-0.130	0.500	-0.030
2020/01/31 17:14:17.5	357.700	-0.080	0.460	-0.010
2020/01/31 17:14:17.6	357.670	-0.030	0.410	0.010
2020/01/31 17:14:17.7	357.640	0.020	0.350	0.030
2020/01/31 17:14:17.8	357.590	0.070	0.300	0.060
2020/01/31 17:14:17.9	357.560	0.110	0.250	0.080
2020/01/31 17:14:18.0	357.540	0.160	0.190	0.090
2020/01/31 17:14:18.1	357.510	0.200	0.140	0.110
2020/01/31 17:14:18.2	357.480	0.240	0.080	0.130
2020/01/31 17:14:18.3	357.460	0.280	0.030	0.140
2020/01/31 17:14:18.4	357.440	0.310	-0.030	0.150
2020/01/31 17:14:18.5	357.410	0.340	-0.080	0.160
2020/01/31 17:14:18.6	357.390	0.370	-0.130	0.170
2020/01/31 17:14:18.7	357.380	0.390	-0.180	0.180
2020/01/31 17:14:18.8	357.360	0.410	-0.220	0.190
2020/01/31 17:14:18.9	357.340	0.420	-0.270	0.190
2020/01/31 17:14:19.0	357.320	0.430	-0.310	0.190
2020/01/31 17:14:19.1	357.310	0.430	-0.360	0.180
2020/01/31 17:14:19.2	357.300	0.430	-0.400	0.180
2020/01/31 17:14:19.3	357.290	0.430	-0.440	0.160
2020/01/31 17:14:19.4	357.280	0.420	-0.480	0.150
2020/01/31 17:14:19.5	357.270	0.400	-0.510	0.130
2020/01/31 17:14:19.6	357.270	0.390	-0.550	0.100
2020/01/31 17:14:19.7	357.260	0.370	-0.580	0.070
2020/01/31 17:14:19.8	357.270	0.340	-0.610	0.040
2020/01/31 17:14:19.9	357.270	0.310	-0.640	0.010
2020/01/31 17:14:20.0	357.270	0.280	-0.670	-0.030
2020/01/31 17:14:20.1	357.270	0.250	-0.700	-0.070
2020/01/31 17:14:20.2	357.280	0.220	-0.720	-0.120
2020/01/31 17:14:20.3	357.280	0.180	-0.740	-0.160
2020/01/31 17:14:20.4	357.290	0.140	-0.760	-0.210
2020/01/31 17:14:20.5	357.310	0.110	-0.780	-0.270
2020/01/31 17:14:20.6	357.320	0.070	-0.800	-0.320
2020/01/31 17:14:20.7	357.340	0.030	-0.810	-0.370
2020/01/31 17:14:20.8	357.360	-0.000	-0.820	-0.430
2020/01/31 17:14:20.9	357.390	-0.030	-0.840	-0.480
2020/01/31 17:14:21.0	357.410	-0.060	-0.850	-0.540
2020/01/31 17:14:21.1	357.440	-0.090	-0.860	-0.590
2020/01/31 17:14:21.2	357.470	-0.120	-0.860	-0.650
2020/01/31 17:14:21.3	357.500	-0.140	-0.870	-0.700
2020/01/31 17:14:21.4	357.540	-0.160	-0.870	-0.750
2020/01/31 17:14:21.5	357.570	-0.180	-0.870	-0.800
2020/01/31 17:14:21.6	357.600	-0.190	-0.870	-0.850
2020/01/31 17:14:21.7	357.640	-0.200	-0.870	-0.890
2020/01/31 17:14:21.8	357.670	-0.210	-0.860	-0.930
2020/01/31 17:14:21.9	357.700	-0.210	-0.860	-0.960
2020/01/31 17:14:22.0	357.730	-0.210	-0.850	-0.990
2020/01/31 17:14:22.1	357.760	-0.210	-0.840	-1.020
2020/01/31 17:14:22.2	357.780	-0.200	-0.820	-1.040
2020/01/31 17:14:22.3	357.810	-0.190	-0.810	-1.050
2020/01/31 17:14:22.4	357.830	-0.180	-0.790	-1.060
2020/01/31 17:14:22.5	357.850	-0.160	-0.770	-1.060
2020/01/31 17:14:22.6	357.860	-0.140	-0.750	-1.060
2020/01/31 17:14:22.7	357.870	-0.120	-0.730	-1.060
2020/01/31 17:14:22.8	357.870	-0.100	-0.700	-1.040
2020/01/31 17:14:22.9	357.880	-0.070	-0.670	-1.030
2020/01/31 17:14:23.0	357.890	-0.050	-0.650	-1.010
2020/01/31 17:14:23.1	357.890	-0.020	-0.610	-0.980
2020/01/31 17:14:23.2	357.900	0.000	-0.580	-0.960
2020/01/31 17:14:23.3	357.900	0.030	-0.550	-0.930
2020/01/31 17:14:23.4	357.900	0.060	-0.520	-0.890
2020/01/31 17:14:23.5	357.900	0.090	-0.480	-0.860
2020/01/31 17:14:23.6	357.900	0.110	-0.450	-0.820
2020/01/31 17:14:23.7	357.890	0.140	-0.420	-0.790
2020/01/31 17:14:23.8	357.890	0.170	-0.390	-0.750
2020/01/31 17:14:23.9	357.890	0.190	-0.360	-0.710
2020/01/31 17:14:24.0	357.880	0.220	-0.340	-0.670
2020/01/31 17:14:24.1	357.880	0.240	-0.310	-0.630
2020/01/31 17:14:24.2	357.880	0.260	-0.290	-0.590
2020/01/31 17:14:24.3	357.880	0.280	-0.270	-0.550
2020/01/31 17:14:24.4	357.880	0.300	-0.250	-0.510
2020/01/31 17:14:24.5	357.880	0.310	-0.240	-0.470
2020/01/31 17:14:24.6	357.880	0.320	-0.230	-0.440
2020/01/31 17:14:24.7	357.890	0.340	-0.220	-0.410
2020/01/31 17:14:24.8	357.900	0.350	-0.220	-0.370
2020/01/31 17:14:24.9	357.910	0.350	-0.210	-0.340
2020/01/31 17:14:25.0	357.920	0.360	-0.210	-0.310
2020/01/31 17:14:25.1	357.930	0.360	-0.220	-0.290
2020/01/31 17:14:25.2	357.940	0.360	-0.220	-0.270
2020/01/31 17:14:25.3	357.960	0.360	-0.220	-0.250
2020/01/31 17:14:25.4	357.970	0.350	-0.230	-0.230
2020/01/31 17:14:25.5	357.990	0.340	-0.230	-0.220
2020/01/31 17:14:25.6	358.000	0.330	-0.230	-0.200
2020/01/31 17:14:25.7	358.020	0.320	-0.240	-0.190
2020/01/31 17:14:25.8	358.020	0.300	-0.240	-0.180
2020/01/31 17:14:25.9	358.030	0.280	-0.230	-0.170
2020/01/31 17:14:26.0	358.040	0.260	-0.230	-0.170
2020/01/31 17:14:26.1	358.050	0.230	-0.220	-0.160
2020/01/31 17:14:26.2	358.060	0.200	-0.210	-0.160
2020/01/31 17:14:26.3	358.060	0.160	-0.190	-0.160
2020/01/31 17:14:26.4	358.060	0.130	-0.170	-0.150
2020/01/31 17:14:26.5	358.050	0.090	-0.140	-0.150
2020/01/31 17:14:26.6	358.040	0.050	-0.120	-0.150
2020/01/31 17:14:26.7	358.030	0.000	-0.080	-0.150
2020/01/31 17:14:26.8	358.020	-0.040	-0.050	-0.150
2020/01/31 17:14:26.9	358.000	-0.090	-0.010	-0.150
2020/01/31 17:14:27.0	357.980	-0.140	0.030	-0.160
2020/01/31 17:14:27.1	357.950	-0.190	0.080	-0.160
2020/01/31 17:14:27.2	357.920	-0.240	0.120	-0.170
2020/01/31 17:14:27.3	357.900	-0.290	0.170	-0.180
2020/01/31 17:14:27.4	357.860	-0.350	0.220	-0.180
2020/01/31 17:14:27.5	357.830	-0.400	0.260	-0.190
2020/01/31 17:14:27.6	357.800	-0.450	0.310	-0.210
2020/01/31 17:14:27.7	357.760	-0.490	0.350	-0.220
2020/01/31 17:14:27.8	357.730	-0.540	0.400	-0.230
2020/01/31 17:14:27.9	357.690	-0.580	0.440	-0.240
2020/01/31 17:14:28.0	357.660	-0.620	0.470	-0.260
2020/01/31 17:14:28.1	357.630	-0.660	0.510	-0.280
2020/01/31 17:14:28.2	357.590	-0.690	0.530	-0.290
2020/01/31 17:14:28.3	357.560	-0.720	0.560	-0.310
2020/01/31 17:14:28.4	357.530	-0.750	0.570	-0.320
2020/01/31 17:14:28.5	357.500	-0.760	0.590	-0.340
2020/01/31 17:14:28.6	357.470	-0.780	0.590	-0.350
2020/01/31 17:14:28.7	357.440	-0.780	0.590	-0.370
2020/01/31 17:14:28.8	357.420	-0.780	0.590	-0.380
2020/01/31 17:14:28.9	357.390	-0.780	0.570	-0.390
2020/01/31 17:14:29.0	357.370	-0.760	0.550	-0.400
2020/01/31 17:14:29.1	357.350	-0.750	0.530	-0.400
2020/01/31 17:14:29.2	357.330	-0.720	0.500	-0.410
2020/01/31 17:14:29.3	357.310	-0.690	0.460	-0.410
2020/01/31 17:14:29.4	357.300	-0.650	0.420	-0.410
2020/01/31 17:14:29.5	357.280	-0.610	0.380	-0.400
2020/01/31 17:14:29.6	357.270	-0.560	0.330	-0.400
2020/01/31 17:14:29.7	357.260	-0.510	0.270	-0.390
2020/01/31 17:14:29.8	357.250	-0.450	0.220	-0.370
2020/01/31 17:14:29.9	357.240	-0.390	0.160	-0.360
2020/01/31 17:14:30.0	357.220	-0.320	0.100	-0.350
2020/01/31 17:14:30.1	357.220	-0.260	0.040	-0.330
2020/01/31 17:14:30.2	357.210	-0.190	-0.030	-0.320
2020/01/31 17:14:30.3	357.200	-0.120	-0.090	-0.300
2020/01/31 17:14:30.4	357.190	-0.050	-0.150	-0.280
2020/01/31 17:14:30.5	357.180	0.020	-0.210	-0.260
2020/01/31 17:14:30.6	357.170	0.080	-0.270	-0.240
2020/01/31 17:14:30.7	357.150	0.150	-0.330	-0.220
2020/01/31 17:14:30.8	357.140	0.220	-0.390	-0.200
2020/01/31 17:14:30.9	357.130	0.280	-0.450	-0.180
2020/01/31 17:14:31.0	357.120	0.340	-0.500	-0.160
2020/01/31 17:14:31.1	357.100	0.390	-0.540	-0.140
2020/01/31 17:14:31.2	357.090	0.440	-0.590	-0.120
2020/01/31 17:14:31.3	357.080	0.490	-0.630	-0.110
2020/01/31 17:14:31.4	357.070	0.530	-0.670	-0.090
2020/01/31 17:14:31.5	357.060	0.570	-0.700	-0.070
2020/01/31 17:14:31.6	357.050	0.600	-0.730	-0.050
2020/01/31 17:14:31.7	357.040	0.630	-0.750	-0.040
2020/01/31 17:14:31.8	357.030	0.650	-0.780	-0.020
2020/01/31 17:14:31.9	357.020	0.670	-0.790	-0.000
2020/01/31 17:14:32.0	357.010	0.680	-0.810	0.020
2020/01/31 17:14:32.1	357.010	0.680	-0.820	0.030
2020/01/31 17:14:32.2	357.010	0.690	-0.820	0.050
2020/01/31 17:14:32.3	357.010	0.680	-0.830	0.060
2020/01/31 17:14:32.4	357.010	0.680	-0.830	0.080
2020/01/31 17:14:32.5	357.010	0.670	-0.830	0.090
2020/01/31 17:14:32.6	357.020	0.650	-0.820	0.100
2020/01/31 17:14:32.7	357.020	0.640	-0.810	0.110
2020/01/31 17:14:32.8	357.040	0.620	-0.800	0.130
2020/01/31 17:14:32.9	357.050	0.590	-0.790	0.140
2020/01/31 17:14:33.0	357.060	0.570	-0.780	0.140
2020/01/31 17:14:33.1	357.080	0.540	-0.760	0.150
2020/01/31 17:14:33.2	357.100	0.520	-0.750	0.160
2020/01/31 17:14:33.3	357.110	0.490	-0.730	0.160
2020/01/31 17:14:33.4	357.130	0.460	-0.710	0.160
2020/01/31 17:14:33.5	357.150	0.430	-0.690	0.170
2020/01/31 17:14:33.6	357.170	0.410	-0.670	0.170
2020/01/31 17:14:33.7	357.190	0.380	-0.650	0.170
2020/01/31 17:14:33.8	357.220	0.350	-0.630	0.170
2020/01/31 17:14:33.9	357.250	0.330	-0.610	0.170
2020/01/31 17:14:34.0	357.270	0.300	-0.590	0.170
2020/01/31 17:14:34.1	357.290	0.280	-0.570	0.170
2020/01/31 17:14:34.2	357.310	0.260	-0.550	0.160
2020/01/31 17:14:34.3	357.330	0.240	-0.530	0.160
2020/01/31 17:14:34.4	357.350	0.220	-0.500	0.160
2020/01/31 17:14:34.5	357.370	0.200	-0.480	0.150
2020/01/31 17:14:34.6	357.380	0.180	-0.460	0.140
2020/01/31 17:14:34.7	357.400	0.160	-0.440	0.130
2020/01/31 17:14:34.8	357.420	0.140	-0.420	0.120
2020/01/31 17:14:34.9	357.440	0.120	-0.400	0.110
2020/01/31 17:14:35.0	357.450	0.100	-0.390	0.090
2020/01/31 17:14:35.1	357.460	0.080	-0.370	0.080
2020/01/31 17:14:35.2	357.480	0.060	-0.360	0.060
2020/01/31 17:14:35.3	357.490	0.040	-0.340	0.030
2020/01/31 17:14:35.4	357.500	0.010	-0.330	0.010
2020/01/31 17:14:35.5	357.520	-0.010	-0.320	-0.020
2020/01/31 17:14:35.6	357.530	-0.030	-0.310	-0.050
2020/01/31 17:14:35.7	357.540	-0.060	-0.310	-0.090
2020/01/31 17:14:35.8	357.550	-0.080	-0.300	-0.120
2020/01/31 17:14:35.9	357.570	-0.110	-0.300	-0.160
2020/01/31 17:14:36.0	357.590	-0.130	-0.300	-0.200
2020/01/31 17:14:36.1	357.600	-0.160	-0.300	-0.240
2020/01/31 17:14:36.2	357.620	-0.190	-0.300	-0.290
2020/01/31 17:14:36.3	357.640	-0.210	-0.310	-0.340
2020/01/31 17:14:36.4	357.660	-0.240	-0.310	-0.390
2020/01/31 17:14:36.5	357.680	-0.270	-0.320	-0.440
2020/01/31 17:14:36.6	357.700	-0.290	-0.330	-0.490
2020/01/31 17:14:36.7	357.730	-0.320	-0.340	-0.540
2020/01/31 17:14:36.8	357.760	-0.340	-0.350	-0.590
2020/01/31 17:14:36.9	357.790	-0.370	-0.360	-0.640
2020/01/31 17:14:37.0	357.820	-0.390	-0.370	-0.690
2020/01/31 17:14:37.1	357.840	-0.410	-0.380	-0.740
2020/01/31 17:14:37.2	357.870	-0.430	-0.390	-0.780
2020/01/31 17:14:37.3	357.900	-0.450	-0.400	-0.820
2020/01/31 17:14:37.4	357.920	-0.470	-0.410	-0.860
2020/01/31 17:14:37.5	357.940	-0.480	-0.410	-0.890
2020/01/31 17:14:37.6	357.960	-0.490	-0.410	-0.920
2020/01/31 17:14:37.7	357.980	-0.510	-0.410	-0.950
2020/01/31 17:14:37.8	358.000	-0.520	-0.400	-0.960
2020/01/31 17:14:37.9	358.010	-0.520	-0.390	-0.980
2020/01/31 17:14:38.0	358.010	-0.530	-0.380	-0.990
2020/01/31 17:14:38.1	358.020	-0.530	-0.360	-1.000
2020/01/31 17:14:38.2	358.020	-0.540	-0.340	-1.000
2020/01/31 17:14:38.3	358.020	-0.540	-0.310	-1.000
2020/01/31 17:14:38.4	358.010	-0.540	-0.280	-0.990
2020/01/31 17:14:38.5	358.000	-0.530	-0.250	-0.980
2020/01/31 17:14:38.6	357.990	-0.530	-0.210	-0.970
2020/01/31 17:14:38.7	357.970	-0.520	-0.170	-0.950
2020/01/31 17:14:38.8	357.940	-0.510	-0.120	-0.920
2020/01/31 17:14:38.9	357.910	-0.510	-0.070	-0.900
2020/01/31 17:14:39.0	357.880	-0.490	-0.020	-0.870
2020/01/31 17:14:39.1	357.850	-0.480	0.030	-0.830
2020/01/31 17:14:39.2	357.820	-0.470	0.090	-0.800
2020/01/31 17:14:39.3	357.780	-0.450	0.140	-0.760
2020/01/31 17:14:39.4	357.740	-0.440	0.200	-0.720
2020/01/31 17:14:39.5	357.700	-0.420	0.260	-0.680
2020/01/31 17:14:39.6	357.650	-0.400	0.320	-0.640
2020/01/31 17:14:39.7	357.610	-0.390	0.380	-0.590
2020/01/31 17:14:39.8	357.570	-0.370	0.430	-0.540
2020/01/31 17:14:39.9	357.520	-0.350	0.480	-0.490
2020/01/31 17:14:40.0	357.470	-0.320	0.530	-0.440
2020/01/31 17:14:40.1	357.420	-0.300	0.580	-0.390
2020/01/31 17:14:40.2	357.380	-0.280	0.620	-0.340
2020/01/31 17:14:40.3	357.330	-0.250	0.650	-0.290
2020/01/31 17:14:40.4	357.290	-0.230	0.680	-0.240
2020/01/31 17:14:40.5	357.240	-0.200	0.700	-0.190
2020/01/31 17:14:40.6	357.200	-0.180	0.720	-0.140
2020/01/31 17:14:40.7	357.160	-0.150	0.730	-0.090
2020/01/31 17:14:40.8	357.130	-0.120	0.730	-0.040
2020/01/31 17:14:40.9	357.100	-0.080	0.720	0.010
2020/01/31 17:14:41.0	357.070	-0.050	0.710	0.050
2020/01/31 17:14:41.1	357.040	-0.020	0.680	0.090
2020/01/31 17:14:41.2	357.020	0.020	0.650	0.130
2020/01/31 17:14:41.3	357.000	0.050	0.610	0.170
2020/01/31 17:14:41.4	356.980	0.090	0.560	0.210
2020/01/31 17:14:41.5	356.960	0.130	0.510	0.240
2020/01/31 17:14:41.6	356.950	0.170	0.450	0.260
2020/01/31 17:14:41.7	356.940	0.210	0.380	0.290
2020/01/31 17:14:41.8	356.920	0.240	0.300	0.310
2020/01/31 17:14:41.9	356.910	0.280	0.220	0.330
2020/01/31 17:14:42.0	356.910	0.320	0.140	0.340
2020/01/31 17:14:42.1	356.910	0.360	0.060	0.350
2020/01/31 17:14:42.2	356.910	0.390	-0.020	0.350
2020/01/31 17:14:42.3	356.910	0.430	-0.110	0.350
2020/01/31 17:14:42.4	356.910	0.460	-0.200	0.350
2020/01/31 17:14:42.5	356.910	0.490	-0.280	0.340
2020/01/31 17:14:42.6	356.920	0.520	-0.370	0.340
2020/01/31 17:14:42.7	356.930	0.550	-0.450	0.320
2020/01/31 17:14:42.8	356.930	0.570	-0.530	0.310
2020/01/31 17:14:42.9	356.950	0.600	-0.600	0.300
2020/01/31 17:14:43.0	356.960	0.620	-0.670	0.280
2020/01/31 17:14:43.1	356.970	0.630	-0.740	0.260
2020/01/31 17:14:43.2	356.990	0.650	-0.810	0.240
2020/01/31 17:14:43.3	357.010	0.660	-0.860	0.220
2020/01/31 17:14:43.4	357.020	0.660	-0.910	0.200
2020/01/31 17:14:43.5	357.040	0.660	-0.960	0.180
2020/01/31 17:14:43.6	357.060	0.660	-1.000	0.160
2020/01/31 17:14:43.7	357.080	0.660	-1.030	0.140
2020/01/31 17:14:43.8	357.110	0.650	-1.070	0.120
2020/01/31 17:14:43.9	357.130	0.640	-1.090	0.100
2020/01/31 17:14:44.0	357.150	0.620	-1.100	0.080
2020/01/31 17:14:44.1	357.170	0.600	-1.110	0.060
2020/01/31 17:14:44.2	357.190	0.580	-1.120	0.040
2020/01/31 17:14:44.3	357.210	0.550	-1.120	0.020
2020/01/31 17:14:44.4	357.240	0.520	-1.120	-0.010
2020/01/31 17:14:44.5	357.260	0.490	-1.110	-0.040
2020/01/31 17:14:44.6	357.290	0.460	-1.090	-0.070
2020/01/31 17:14:44.7	357.310	0.420	-1.080	-0.100
2020/01/31 17:14:44.8	357.350	0.380	-1.060	-0.130
2020/01/31 17:14:44.9	357.380	0.340	-1.040	-0.160
2020/01/31 17:14:45.0	357.410	0.300	-1.010	-0.200
2020/01/31 17:14:45.1	357.430	0.260	-0.990	-0.240
2020/01/31 17:14:45.2	357.460	0.220	-0.960	-0.280
2020/01/31 17:14:45.3	357.490	0.180	-0.930	-0.320
2020/01/31 17:14:45.4	357.520	0.140	-0.900	-0.360
2020/01/31 17:14:45.5	357.550	0.100	-0.870	-0.400
2020/01/31 17:14:45.6	357.580	0.060	-0.830	-0.440
2020/01/31 17:14:45.7	357.600	0.020	-0.800	-0.480
2020/01/31 17:14:45.8	357.620	-0.020	-0.760	-0.510
2020/01/31 17:14:45.9	357.650	-0.050	-0.720	-0.550
2020/01/31 17:14:46.0	357.670	-0.080	-0.680	-0.590
2020/01/31 17:14:46.1	357.700	-0.110	-0.630	-0.620
2020/01/31 17:14:46.2	357.720	-0.140	-0.590	-0.650
2020/01/31 17:14:46.3	357.740	-0.170	-0.550	-0.680
2020/01/31 17:14:46.4	357.760	-0.190	-0.500	-0.710
2020/01/31 17:14:46.5	357.780	-0.210	-0.450	-0.730
2020/01/31 17:14:46.6	357.800	-0.230	-0.410	-0.750
2020/01/31 17:14:46.7	357.820	-0.240	-0.360	-0.780
2020/01/31 17:14:46.8	357.840	-0.260	-0.310	-0.790
2020/01/31 17:14:46.9	357.850	-0.270	-0.270	-0.800
2020/01/31 17:14:47.0	357.860	-0.280	-0.220	-0.820
2020/01/31 17:14:47.1	357.870	-0.290	-0.170	-0.820
2020/01/31 17:14:47.2	357.870	-0.300	-0.120	-0.830
2020/01/31 17:14:47.3	357.880	-0.310	-0.080	-0.830
2020/01/31 17:14:47.4	357.880	-0.310	-0.030	-0.830
2020/01/31 17:14:47.5	357.870	-0.320	0.010	-0.830
2020/01/31 17:14:47.6	357.870	-0.320	0.060	-0.820
2020/01/31 17:14:47.7	357.860	-0.330	0.100	-0.810
2020/01/31 17:14:47.8	357.850	-0.330	0.130	-0.800
2020/01/31 17:14:47.9	357.840	-0.330	0.170	-0.780
2020/01/31 17:14:48.0	357.830	-0.330	0.200	-0.760
2020/01/31 17:14:48.1	357.820	-0.330	0.230	-0.740
2020/01/31 17:14:48.2	357.800	-0.330	0.250	-0.720
2020/01/31 17:14:48.3	357.780	-0.330	0.280	-0.690
2020/01/31 17:14:48.4	357.770	-0.330	0.290	-0.660
2020/01/31 17:14:48.5	357.750	-0.330	0.310	-0.640
2020/01/31 17:14:48.6	357.730	-0.330	0.320	-0.610
2020/01/31 17:14:48.7	357.710	-0.330	0.330	-0.580
2020/01/31 17:14:48.8	357.700	-0.330	0.330	-0.540
2020/01/31 17:14:48.9	357.680	-0.330	0.330	-0.520
2020/01/31 17:14:49.0	357.660	-0.320	0.320	-0.490
2020/01/31 17:14:49.1	357.640	-0.320	0.320	-0.460
2020/01/31 17:14:49.2	357.630	-0.320	0.300	-0.430
2020/01/31 17:14:49.3	357.610	-0.320	0.290	-0.410
2020/01/31 17:14:49.4	357.590	-0.320	0.270	-0.390
2020/01/31 17:14:49.5	357.570	-0.310	0.250	-0.360
2020/01/31 17:14:49.6	357.550	-0.310	0.220	-0.340
2020/01/31 17:14:49.7	357.530	-0.310	0.190	-0.320
2020/01/31 17:14:49.8	357.510	-0.300	0.160	-0.300
2020/01/31 17:14:49.9	357.490	-0.300	0.130	-0.290
2020/01/31 17:14:50.0	357.470	-0.290	0.100	-0.270
2020/01/31 17:14:50.1	357.450	-0.280	0.070	-0.260
2020/01/31 17:14:50.2	357.430	-0.280	0.040	-0.250
2020/01/31 17:14:50.3	357.420	-0.270	0.010	-0.240
2020/01/31 17:14:50.4	357.400	-0.260	-0.020	-0.220
2020/01/31 17:14:50.5	357.380	-0.240	-0.050	-0.210
2020/01/31 17:14:50.6	357.370	-0.230	-0.070	-0.200
2020/01/31 17:14:50.7	357.350	-0.220	-0.100	-0.200
2020/01/31 17:14:50.8	357.350	-0.200	-0.120	-0.180
2020/01/31 17:14:50.9	357.330	-0.190	-0.140	-0.170
2020/01/31 17:14:51.0	357.320	-0.170	-0.150	-0.170
2020/01/31 17:14:51.1	357.300	-0.150	-0.160	-0.160
2020/01/31 17:14:51.2	357.290	-0.130	-0.180	-0.150
2020/01/31 17:14:51.3	357.280	-0.110	-0.180	-0.140
2020/01/31 17:14:51.4	357.270	-0.090	-0.190	-0.140
2020/01/31 17:14:51.5	357.260	-0.060	-0.190	-0.130
2020/01/31 17:14:51.6	357.240	-0.040	-0.200	-0.120
2020/01/31 17:14:51.7	357.230	-0.020	-0.200	-0.120
2020/01/31 17:14:51.8	357.200	0.000	-0.200	-0.110
2020/01/31 17:14:51.9	357.190	0.030	-0.200	-0.100
2020/01/31 17:14:52.0	357.180	0.050	-0.200	-0.100
2020/01/31 17:14:52.1	357.170	0.070	-0.200	-0.090
2020/01/31 17:14:52.2	357.160	0.100	-0.200	-0.090
2020/01/31 17:14:52.3	357.150	0.120	-0.200	-0.080
2020/01/31 17:14:52.4	357.150	0.140	-0.210	-0.080
2020/01/31 17:14:52.5	357.140	0.160	-0.210	-0.080
2020/01/31 17:14:52.6	357.140	0.180	-0.220	-0.080
2020/01/31 17:14:52.7	357.130	0.200	-0.230	-0.080
2020/01/31 17:14:52.8	357.140	0.220	-0.240	-0.090
2020/01/31 17:14:52.9	357.150	0.230	-0.260	-0.090
2020/01/31 17:14:53.0	357.150	0.250	-0.270	-0.100
2020/01/31 17:14:53.1	357.150	0.260	-0.290	-0.110
2020/01/31 17:14:53.2	357.160	0.270	-0.310	-0.120
2020/01/31 17:14:53.3	357.170	0.280	-0.340	-0.130
2020/01/31 17:14:53.4	357.180	0.280	-0.360	-0.150
2020/01/31 17:14:53.5	357.200	0.290	-0.390	-0.160
2020/01/31 17:14:53.6	357.210	0.290	-0.420	-0.180
2020/01/31 17:14:53.7	357.230	0.290	-0.450	-0.200
2020/01/31 17:14:53.8	357.250	0.290	-0.480	-0.220
2020/01/31 17:14:53.9	357.270	0.290	-0.510	-0.240
2020/01/31 17:14:54.0	357.290	0.280	-0.550	-0.260
2020/01/31 17:14:54.1	357.310	0.270	-0.580	-0.280
2020/01/31 17:14:54.2	357.340	0.270	-0.610	-0.300
2020/01/31 17:14:54.3	357.360	0.260	-0.630	-0.320
2020/01/31 17:14:54.4	357.390	0.250	-0.660	-0.340
2020/01/31 17:14:54.5	357.410	0.240	-0.680	-0.350
2020/01/31 17:14:54.6	357.440	0.230	-0.700	-0.370
2020/01/31 17:14:54.7	357.460	0.210	-0.720	-0.380
2020/01/31 17:14:54.8	357.480	0.200	-0.730	-0.390
2020/01/31 17:14:54.9	357.500	0.190	-0.740	-0.400
2020/01/31 17:14:55.0	357.520	0.170	-0.740	-0.400
2020/01/31 17:14:55.1	357.530	0.160	-0.740	-0.400
2020/01/31 17:14:55.2	357.550	0.150	-0.730	-0.410
2020/01/31 17:14:55.3	357.570	0.130	-0.720	-0.400
2020/01/31 17:14:55.4	357.580	0.120	-0.700	-0.400
2020/01/31 17:14:55.5	357.590	0.110	-0.680	-0.390
2020/01/31 17:14:55.6	357.610	0.100	-0.660	-0.390
2020/01/31 17:14:55.7	357.620	0.090	-0.630	-0.380
2020/01/31 17:14:55.8	357.630	0.080	-0.600	-0.370
2020/01/31 17:14:55.9	357.640	0.070	-0.570	-0.360
2020/01/31 17:14:56.0	357.650	0.060	-0.540	-0.350
2020/01/31 17:14:56.1	357.660	0.050	-0.500	-0.340
2020/01/31 17:14:56.2	357.670	0.040	-0.470	-0.330
2020/01/31 17:14:56.3	357.680	0.040	-0.430	-0.320
2020/01/31 17:14:56.4	357.690	0.030	-0.400	-0.320
2020/01/31 17:14:56.5	357.700	0.030	-0.370	-0.310
2020/01/31 17:14:56.6	357.710	0.020	-0.340	-0.310
2020/01/31 17:14:56.7	357.720	0.020	-0.310	-0.310
2020/01/31 17:14:56.8	357.730	0.010	-0.290	-0.310
2020/01/31 17:14:56.9	357.730	0.010	-0.260	-0.310
2020/01/31 17:14:57.0	357.740	0.010	-0.240	-0.320
2020/01/31 17:14:57.1	357.750	0.010	-0.220	-0.320
2020/01/31 17:14:57.2	357.750	0.000	-0.210	-0.330
2020/01/31 17:14:57.3	357.760	-0.000	-0.190	-0.350
2020/01/31 17:14:57.4	357.770	-0.000	-0.180	-0.360
2020/01/31 17:14:57.5	357.770	-0.010	-0.170	-0.380
2020/01/31 17:14:57.6	357.770	-0.010	-0.170	-0.400
2020/01/31 17:14:57.7	357.780	-0.020	-0.160	-0.420
2020/01/31 17:14:57.8	357.780	-0.020	-0.160	-0.440
2020/01/31 17:14:57.9	357.790	-0.030	-0.160	-0.460
2020/01/31 17:14:58.0	357.790	-0.040	-0.160	-0.490
2020/01/31 17:14:58.1	357.790	-0.050	-0.160	-0.510
2020/01/31 17:14:58.2	357.790	-0.060	-0.160	-0.540
2020/01/31 17:14:58.3	357.800	-0.070	-0.160	-0.570
2020/01/31 17:14:58.4	357.800	-0.080	-0.160	-0.600
2020/01/31 17:14:58.5	357.800	-0.100	-0.160	-0.620
2020/01/31 17:14:58.6	357.800	-0.110	-0.160	-0.650
2020/01/31 17:14:58.7	357.800	-0.130	-0.160	-0.670
2020/01/31 17:14:58.8	357.810	-0.140	-0.150	-0.690
2020/01/31 17:14:58.9	357.810	-0.160	-0.140	-0.710
2020/01/31 17:14:59.0	357.810	-0.180	-0.130	-0.730
2020/01/31 17:14:59.1	357.810	-0.200	-0.120	-0.740
2020/01/31 17:14:59.2	357.800	-0.220	-0.110	-0.760
2020/01/31 17:14:59.3	357.800	-0.230	-0.090	-0.770
2020/01/31 17:14:59.4	357.790	-0.250	-0.070	-0.780
2020/01/31 17:14:59.5	357.790	-0.270	-0.060	-0.790
2020/01/31 17:14:59.6	357.780	-0.290	-0.040	-0.790
2020/01/31 17:14:59.7	357.770	-0.310	-0.020	-0.800
2020/01/31 17:14:59.8	357.760	-0.330	0.010	-0.800
2020/01/31 17:14:59.9	357.750	-0.340	0.030	-0.800
2020/01/31 17:15:00.0	357.740	-0.350	0.050	-0.800
2020/01/31 17:15:00.1	357.730	-0.370	0.070	-0.790
2020/01/31 17:15:00.2	357.720	-0.380	0.080	-0.780
2020/01/31 17:15:00.3	357.720	-0.380	0.100	-0.770
2020/01/31 17:15:00.4	357.710	-0.390	0.110	-0.760
2020/01/31 17:15:00.5	357.700	-0.390	0.120	-0.740
2020/01/31 17:15:00.6	357.690	-0.380	0.130	-0.720
2020/01/31 17:15:00.7	357.680	-0.370	0.140	-0.700
2020/01/31 17:15:00.8	357.680	-0.360	0.150	-0.670
2020/01/31 17:15:00.9	357.680	-0.350	0.150	-0.640
2020/01/31 17:15:01.0	357.670	-0.330	0.150	-0.610
2020/01/31 17:15:01.1	357.660	-0.300	0.150	-0.570
2020/01/31 17:15:01.2	357.660	-0.270	0.150	-0.530
2020/01/31 17:15:01.3	357.650	-0.240	0.150	-0.490
2020/01/31 17:15:01.4	357.640	-0.200	0.140	-0.440
2020/01/31 17:15:01.5	357.640	-0.160	0.130	-0.400
2020/01/31 17:15:01.6	357.630	-0.110	0.120	-0.340
2020/01/31 17:15:01.7	357.630	-0.070	0.100	-0.290
2020/01/31 17:15:01.8	357.620	-0.010	0.090	-0.230
2020/01/31 17:15:01.9	357.610	0.040	0.070	-0.180
2020/01/31 17:15:02.0	357.610	0.090	0.050	-0.120
2020/01/31 17:15:02.1	357.600	0.150	0.030	-0.060
2020/01/31 17:15:02.2	357.590	0.200	0.010	0.000
2020/01/31 17:15:02.3	357.580	0.260	-0.020	0.060
2020/01/31 17:15:02.4	357.570	0.310	-0.040	0.120
2020/01/31 17:15:02.5	357.560	0.360	-0.060	0.180
2020/01/31 17:15:02.6	357.540	0.410	-0.090	0.230
2020/01/31 17:15:02.7	357.530	0.460	-0.110	0.280
2020/01/31 17:15:02.8	357.500	0.500	-0.140	0.340
2020/01/31 17:15:02.9	357.480	0.530	-0.160	0.390
2020/01/31 17:15:03.0	357.470	0.570	-0.180	0.420
2020/01/31 17:15:03.1	357.450	0.590	-0.200	0.460
2020/01/31 17:15:03.2	357.430	0.610	-0.220	0.490
2020/01/31 17:15:03.3	357.410	0.630	-0.240	0.510
2020/01/31 17:15:03.4	357.390	0.630	-0.260	0.520
2020/01/31 17:15:03.5	357.370	0.630	-0.280	0.530
2020/01/31 17:15:03.6	357.350	0.630	-0.290	0.540
2020/01/31 17:15:03.7	357.330	0.620	-0.310	0.530
2020/01/31 17:15:03.8	357.310	0.600	-0.320	0.520
2020/01/31 17:15:03.9	357.300	0.570	-0.340	0.500
2020/01/31 17:15:04.0	357.280	0.540	-0.350	0.480
2020/01/31 17:15:04.1	357.270	0.500	-0.360	0.450
2020/01/31 17:15:04.2	357.260	0.460	-0.370	0.420
2020/01/31 17:15:04.3	357.250	0.410	-0.380	0.380
2020/01/31 17:15:04.4	357.250	0.360	-0.390	0.340
2020/01/31 17:15:04.5	357.250	0.300	-0.400	0.290
2020/01/31 17:15:04.6	357.250	0.240	-0.410	0.240
2020/01/31 17:15:04.7	357.260	0.180	-0.430	0.190
2020/01/31 17:15:04.8	357.260	0.110	-0.440	0.130
2020/01/31 17:15:04.9	357.270	0.050	-0.450	0.070
2020/01/31 17:15:05.0	357.290	-0.020	-0.470	0.000
2020/01/31 17:15:05.1	357.310	-0.080	-0.480	-0.070
2020/01/31 17:15:05.2	357.330	-0.150	-0.500	-0.140
2020/01/31 17:15:05.3	357.360	-0.210	-0.510	-0.210
2020/01/31 17:15:05.4	357.390	-0.270	-0.530	-0.290
2020/01/31 17:15:05.5	357.420	-0.330	-0.550	-0.370
2020/01/31 17:15:05.6	357.460	-0.390	-0.560	-0.450
2020/01/31 17:15:05.7	357.490	-0.440	-0.580	-0.530
2020/01/31 17:15:05.8	357.540	-0.490	-0.600	-0.610
2020/01/31 17:15:05.9	357.580	-0.530	-0.620	-0.700
2020/01/31 17:15:06.0	357.620	-0.570	-0.630	-0.780
2020/01/31 17:15:06.1	357.660	-0.600	-0.650	-0.860
2020/01/31 17:15:06.2	357.700	-0.630	-0.670	-0.940
2020/01/31 17:15:06.3	357.740	-0.660	-0.690	-1.030
2020/01/31 17:15:06.4	357.780	-0.670	-0.710	-1.110
2020/01/31 17:15:06.5	357.820	-0.690	-0.730	-1.190
2020/01/31 17:15:06.6	357.860	-0.690	-0.750	-1.260
2020/01/31 17:15:06.7	357.900	-0.690	-0.760	-1.330
2020/01/31 17:15:06.8	357.950	-0.690	-0.780	-1.400
2020/01/31 17:15:06.9	357.990	-0.670	-0.800	-1.460
2020/01/31 17:15:07.0	358.030	-0.660	-0.810	-1.520
2020/01/31 17:15:07.1	358.060	-0.630	-0.820	-1.580
2020/01/31 17:15:07.2	358.100	-0.610	-0.830	-1.630
2020/01/31 17:15:07.3	358.130	-0.570	-0.830	-1.670
2020/01/31 17:15:07.4	358.160	-0.540	-0.840	-1.710
2020/01/31 17:15:07.5	358.190	-0.500	-0.840	-1.740
2020/01/31 17:15:07.6	358.220	-0.450	-0.840	-1.760
2020/01/31 17:15:07.7	358.250	-0.400	-0.830	-1.780
2020/01/31 17:15:07.8	358.290	-0.350	-0.820	-1.780
2020/01/31 17:15:07.9	358.310	-0.300	-0.810	-1.790
2020/01/31 17:15:08.0	358.340	-0.250	-0.800	-1.790
2020/01/31 17:15:08.1	358.360	-0.200	-0.780	-1.780
2020/01/31 17:15:08.2	358.380	-0.140	-0.760	-1.770
2020/01/31 17:15:08.3	358.400	-0.090	-0.740	-1.750
2020/01/31 17:15:08.4	358.420	-0.040	-0.710	-1.730
2020/01/31 17:15:08.5	358.440	0.010	-0.690	-1.710
2020/01/31 17:15:08.6	358.460	0.060	-0.650	-1.680
2020/01/31 17:15:08.7	358.470	0.110	-0.620	-1.650
2020/01/31 17:15:08.8	358.490	0.150	-0.590	-1.600
2020/01/31 17:15:08.9	358.500	0.200	-0.550	-1.560
2020/01/31 17:15:09.0	358.510	0.240	-0.510	-1.520
2020/01/31 17:15:09.1	358.510	0.270	-0.460	-1.470
2020/01/31 17:15:09.2	358.510	0.300	-0.420	-1.420
2020/01/31 17:15:09.3	358.510	0.330	-0.380	-1.360
2020/01/31 17:15:09.4	358.510	0.360	-0.330	-1.300
2020/01/31 17:15:09.5	358.510	0.380	-0.280	-1.240
2020/01/31 17:15:09.6	358.500	0.400	-0.230	-1.180
2020/01/31 17:15:09.7	358.490	0.410	-0.180	-1.110
2020/01/31 17:15:09.8	358.490	0.420	-0.130	-1.040
2020/01/31 17:15:09.9	358.470	0.430	-0.080	-0.970
2020/01/31 17:15:10.0	358.460	0.430	-0.030	-0.900
2020/01/31 17:15:10.1	358.440	0.430	0.020	-0.820
2020/01/31 17:15:10.2	358.420	0.420	0.070	-0.750
2020/01/31 17:15:10.3	358.400	0.410	0.120	-0.680
2020/01/31 17:15:10.4	358.380	0.400	0.170	-0.600
2020/01/31 17:15:10.5	358.360	0.390	0.220	-0.530
2020/01/31 17:15:10.6	358.340	0.370	0.260	-0.460
2020/01/31 17:15:10.7	358.320	0.350	0.300	-0.390
2020/01/31 17:15:10.8	358.300	0.330	0.340	-0.320
2020/01/31 17:15:10.9	358.280	0.310	0.380	-0.250
2020/01/31 17:15:11.0	358.260	0.290	0.410	-0.190
2020/01/31 17:15:11.1	358.240	0.270	0.450	-0.130
2020/01/31 17:15:11.2	358.210	0.240	0.480	-0.070
2020/01/31 17:15:11.3	358.190	0.220	0.500	-0.010
2020/01/31 17:15:11.4	358.170	0.200	0.520	0.040
2020/01/31 17:15:11.5	358.150	0.170	0.540	0.100
2020/01/31 17:15:11.6	358.130	0.150	0.550	0.140
2020/01/31 17:15:11.7	358.110	0.130	0.560	0.190
2020/01/31 17:15:11.8	358.110	0.110	0.570	0.240
2020/01/31 17:15:11.9	358.090	0.090	0.570	0.280
2020/01/31 17:15:12.0	358.070	0.070	0.570	0.310
2020/01/31 17:15:12.1	358.050	0.050	0.560	0.340
2020/01/31 17:15:12.2	358.040	0.030	0.550	0.370
2020/01/31 17:15:12.3	358.020	0.020	0.530	0.400
2020/01/31 17:15:12.4	358.010	0.010	0.510	0.420
2020/01/31 17:15:12.5	358.000	-0.000	0.490	0.430
2020/01/31 17:15:12.6	357.990	-0.010	0.460	0.450
2020/01/31 17:15:12.7	357.980	-0.020	0.430	0.460
2020/01/31 17:15:12.8	357.970	-0.030	0.400	0.470
2020/01/31 17:15:12.9	357.960	-0.040	0.370	0.470
2020/01/31 17:15:13.0	357.950	-0.040	0.330	0.470
2020/01/31 17:15:13.1	357.940	-0.050	0.290	0.460
2020/01/31 17:15:13.2	357.940	-0.050	0.250	0.460
2020/01/31 17:15:13.3	357.930	-0.060	0.210	0.450
2020/01/31 17:15:13.4	357.920	-0.060	0.160	0.440
2020/01/31 17:15:13.5	357.920	-0.060	0.120	0.420
2020/01/31 17:15:13.6	357.910	-0.060	0.070	0.410
2020/01/31 17:15:13.7	357.910	-0.070	0.030	0.390
2020/01/31 17:15:13.8	357.900	-0.070	-0.020	0.370
2020/01/31 17:15:13.9	357.900	-0.070	-0.060	0.340
2020/01/31 17:15:14.0	357.890	-0.080	-0.110	0.320
2020/01/31 17:15:14.1	357.880	-0.080	-0.150	0.290
2020/01/31 17:15:14.2	357.880	-0.090	-0.190	0.260
2020/01/31 17:15:14.3	357.870	-0.090	-0.240	0.230
2020/01/31 17:15:14.4	357.860	-0.100	-0.280	0.200
2020/01/31 17:15:14.5	357.860	-0.100	-0.310	0.160
2020/01/31 17:15:14.6	357.850	-0.110	-0.350	0.130
2020/01/31 17:15:14.7	357.840	-0.110	-0.380	0.100
2020/01/31 17:15:14.8	357.830	-0.120	-0.410	0.060
2020/01/31 17:15:14.9	357.830	-0.130	-0.440	0.020
2020/01/31 17:15:15.0	357.820	-0.130	-0.470	-0.010
2020/01/31 17:15:15.1	357.820	-0.140	-0.500	-0.050
2020/01/31 17:15:15.2	357.820	-0.140	-0.520	-0.080
2020/01/31 17:15:15.3	357.820	-0.150	-0.550	-0.110
2020/01/31 17:15:15.4	357.820	-0.160	-0.570	-0.150
2020/01/31 17:15:15.5	357.820	-0.160	-0.590	-0.180
2020/01/31 17:15:15.6	357.830	-0.160	-0.610	-0.220
2020/01/31 17:15:15.7	357.830	-0.170	-0.630	-0.250
2020/01/31 17:15:15.8	357.830	-0.170	-0.640	-0.280
2020/01/31 17:15:15.9	357.830	-0.170	-0.660	-0.310
2020/01/31 17:15:16.0	357.840	-0.170	-0.680	-0.340
2020/01/31 17:15:16.1	357.850	-0.170	-0.690	-0.370
2020/01/31 17:15:16.2	357.870	-0.170	-0.700	-0.400
2020/01/31 17:15:16.3	357.880	-0.170	-0.720	-0.430
2020/01/31 17:15:16.4	357.890	-0.170	-0.730	-0.460
2020/01/31 17:15:16.5	357.900	-0.160	-0.740	-0.490
2020/01/31 17:15:16.6	357.920	-0.160	-0.750	-0.510
2020/01/31 17:15:16.7	357.930	-0.150	-0.750	-0.540
2020/01/31 17:15:16.8	357.940	-0.140	-0.760	-0.560
2020/01/31 17:15:16.9	357.960	-0.130	-0.760	-0.590
2020/01/31 17:15:17.0	357.970	-0.120	-0.770	-0.610
2020/01/31 17:15:17.1	357.990	-0.110	-0.770	-0.620
2020/01/31 17:15:17.2	358.000	-0.100	-0.770	-0.640
2020/01/31 17:15:17.3	358.010	-0.080	-0.770	-0.650
2020/01/31 17:15:17.4	358.020	-0.070	-0.760	-0.660
2020/01/31 17:15:17.5	358.030	-0.060	-0.760	-0.670
2020/01/31 17:15:17.6	358.040	-0.040	-0.750	-0.670
2020/01/31 17:15:17.7	358.040	-0.030	-0.740	-0.680
2020/01/31 17:15:17.8	358.050	-0.010	-0.730	-0.670
2020/01/31 17:15:17.9	358.050	0.000	-0.710	-0.660
2020/01/31 17:15:18.0	358.060	0.020	-0.690	-0.650
2020/01/31 17:15:18.1	358.060	0.030	-0.670	-0.640
2020/01/31 17:15:18.2	358.060	0.040	-0.650	-0.630
2020/01/31 17:15:18.3	358.060	0.060	-0.630	-0.620
2020/01/31 17:15:18.4	358.060	0.070	-0.600	-0.600
2020/01/31 17:15:18.5	358.050	0.080	-0.580	-0.580
2020/01/31 17:15:18.6	358.050	0.090	-0.550	-0.560
2020/01/31 17:15:18.7	358.050	0.100	-0.520	-0.550
2020/01/31 17:15:18.8	358.040	0.100	-0.500	-0.520
2020/01/31 17:15:18.9	358.040	0.110	-0.470	-0.510
2020/01/31 17:15:19.0	358.040	0.120	-0.440	-0.490
2020/01/31 17:15:19.1	358.040	0.120	-0.420	-0.470
2020/01/31 17:15:19.2	358.040	0.120	-0.400	-0.460
2020/01/31 17:15:19.3	358.050	0.120	-0.370	-0.440
2020/01/31 17:15:19.4	358.050	0.120	-0.350	-0.430
2020/01/31 17:15:19.5	358.050	0.120	-0.330	-0.420
2020/01/31 17:15:19.6	358.060	0.120	-0.320	-0.410
2020/01/31 17:15:19.7	358.070	0.110	-0.300	-0.400
2020/01/31 17:15:19.8	358.090	0.110	-0.290	-0.390
2020/01/31 17:15:19.9	358.100	0.100	-0.280	-0.390
2020/01/31 17:15:20.0	358.120	0.100	-0.280	-0.380
2020/01/31 17:15:20.1	358.130	0.090	-0.270	-0.380
2020/01/31 17:15:20.2	358.140	0.080	-0.270	-0.370
2020/01/31 17:15:20.3	358.160	0.070	-0.270	-0.370
2020/01/31 17:15:20.4	358.180	0.060	-0.270	-0.370
2020/01/31 17:15:20.5	358.190	0.050	-0.270	-0.360
2020/01/31 17:15:20.6	358.210	0.040	-0.280	-0.360
2020/01/31 17:15:20.7	358.230	0.030	-0.280	-0.360
2020/01/31 17:15:20.8	358.250	0.020	-0.290	-0.360
2020/01/31 17:15:20.9	358.270	0.000	-0.300	-0.360
2020/01/31 17:15:21.0	358.290	-0.010	-0.310	-0.360
2020/01/31 17:15:21.1	358.300	-0.020	-0.310	-0.360
2020/01/31 17:15:21.2	358.320	-0.040	-0.320	-0.360
2020/01/31 17:15:21.3	358.340	-0.050	-0.330	-0.370
2020/01/31 17:15:21.4	358.360	-0.060	-0.330	-0.370
2020/01/31 17:15:21.5	358.370	-0.080	-0.340	-0.370
2020/01/31 17:15:21.6	358.380	-0.090	-0.340	-0.370
2020/01/31 17:15:21.7	358.400	-0.100	-0.350	-0.370
2020/01/31 17:15:21.8	358.410	-0.110	-0.350	-0.360
2020/01/31 17:15:21.9	358.420	-0.120	-0.350	-0.360
2020/01/31 17:15:22.0	358.430	-0.130	-0.340	-0.360
2020/01/31 17:15:22.1	358.440	-0.140	-0.340	-0.350
2020/01/31 17:15:22.2	358.440	-0.150	-0.330	-0.350
2020/01/31 17:15:22.3	358.450	-0.160	-0.330	-0.350
2020/01/31 17:15:22.4	358.450	-0.170	-0.320	-0.340
2020/01/31 17:15:22.5	358.450	-0.170	-0.300	-0.340
2020/01/31 17:15:22.6	358.450	-0.170	-0.290	-0.330
2020/01/31 17:15:22.7	358.460	-0.180	-0.270	-0.330
2020/01/31 17:15:22.8	358.450	-0.180	-0.260	-0.320
2020/01/31 17:15:22.9	358.450	-0.180	-0.240	-0.310
2020/01/31 17:15:23.0	358.450	-0.170	-0.220	-0.310
2020/01/31 17:15:23.1	358.450	-0.170	-0.190	-0.300
2020/01/31 17:15:23.2	358.450	-0.160	-0.170	-0.290
2020/01/31 17:15:23.3	358.450	-0.150	-0.140	-0.270
2020/01/31 17:15:23.4	358.450	-0.140	-0.110	-0.260
2020/01/31 17:15:23.5	358.440	-0.130	-0.080	-0.250
2020/01/31 17:15:23.6	358.440	-0.110	-0.050	-0.230
2020/01/31 17:15:23.7	358.430	-0.100	-0.020	-0.210
2020/01/31 17:15:23.8	358.430	-0.080	0.010	-0.190
2020/01/31 17:15:23.9	358.420	-0.060	0.050	-0.170
2020/01/31 17:15:24.0	358.410	-0.040	0.080	-0.150
2020/01/31 17:15:24.1	358.400	-0.020	0.120	-0.130
2020/01/31 17:15:24.2	358.380	-0.000	0.160	-0.100
2020/01/31 17:15:24.3	358.370	0.020	0.200	-0.080
2020/01/31 17:15:24.4	358.350	0.040	0.240	-0.050
2020/01/31 17:15:24.5	358.330	0.060	0.270	-0.020
2020/01/31 17:15:24.6	358.310	0.080	0.310	0.010
2020/01/31 17:15:24.7	358.280	0.100	0.350	0.040
2020/01/31 17:15:24.8	358.260	0.120	0.380	0.080
2020/01/31 17:15:24.9	358.230	0.140	0.420	0.110
2020/01/31 17:15:25.0	358.200	0.160	0.450	0.150
2020/01/31 17:15:25.1	358.170	0.180	0.480	0.180
2020/01/31 17:15:25.2	358.140	0.200	0.500	0.210
2020/01/31 17:15:25.3	358.110	0.210	0.520	0.240
2020/01/31 17:15:25.4	358.070	0.230	0.540	0.270
2020/01/31 17:15:25.5	358.040	0.240	0.550	0.300
2020/01/31 17:15:25.6	358.000	0.250	0.560	0.330
2020/01/31 17:15:25.7	357.960	0.250	0.560	0.350
2020/01/31 17:15:25.8	357.930	0.260	0.560	0.370
2020/01/31 17:15:25.9	357.900	0.260	0.550	0.390
2020/01/31 17:15:26.0	357.860	0.270	0.540	0.400
2020/01/31 17:15:26.1	357.830	0.260	0.520	0.410
2020/01/31 17:15:26.2	357.790	0.260	0.500	0.420
2020/01/31 17:15:26.3	357.760	0.260	0.470	0.420
2020/01/31 17:15:26.4	357.730	0.250	0.430	0.420
2020/01/31 17:15:26.5	357.700	0.240	0.390	0.410
2020/01/31 17:15:26.6	357.680	0.230	0.350	0.390
2020/01/31 17:15:26.7	357.650	0.220	0.300	0.370
2020/01/31 17:15:26.8	357.640	0.210	0.240	0.350
2020/01/31 17:15:26.9	357.620	0.190	0.180	0.320
2020/01/31 17:15:27.0	357.600	0.170	0.120	0.290
2020/01/31 17:15:27.1	357.590	0.160	0.050	0.250
2020/01/31 17:15:27.2	357.570	0.140	-0.020	0.200
2020/01/31 17:15:27.3	357.560	0.120	-0.090	0.150
2020/01/31 17:15:27.4	357.550	0.100	-0.170	0.100
2020/01/31 17:15:27.5	357.540	0.080	-0.240	0.050
2020/01/31 17:15:27.6	357.530	0.060	-0.320	-0.010
2020/01/31 17:15:27.7	357.520	0.040	-0.390	-0.070
2020/01/31 17:15:27.8	357.510	0.020	-0.470	-0.140
2020/01/31 17:15:27.9	357.510	-0.000	-0.540	-0.200
2020/01/31 17:15:28.0	357.510	-0.030	-0.610	-0.270
2020/01/31 17:15:28.1	357.520	-0.040	-0.680	-0.330
2020/01/31 17:15:28.2	357.520	-0.060	-0.750	-0.400
2020/01/31 17:15:28.3	357.530	-0.080	-0.810	-0.470
2020/01/31 17:15:28.4	357.540	-0.100	-0.870	-0.540
2020/01/31 17:15:28.5	357.550	-0.110	-0.930	-0.610
2020/01/31 17:15:28.6	357.570	-0.130	-0.980	-0.680
2020/01/31 17:15:28.7	357.590	-0.140	-1.030	-0.750
2020/01/31 17:15:28.8	357.600	-0.150	-1.070	-0.820
2020/01/31 17:15:28.9	357.620	-0.160	-1.110	-0.880
2020/01/31 17:15:29.0	357.650	-0.160	-1.150	-0.940
2020/01/31 17:15:29.1	357.670	-0.170	-1.170	-1.000
2020/01/31 17:15:29.2	357.700	-0.170	-1.190	-1.060
2020/01/31 17:15:29.3	357.730	-0.170	-1.210	-1.120
2020/01/31 17:15:29.4	357.760	-0.160	-1.220	-1.170
2020/01/31 17:15:29.5	357.790	-0.160	-1.230	-1.210
2020/01/31 17:15:29.6	357.820	-0.150	-1.230	-1.250
2020/01/31 17:15:29.7	357.850	-0.140	-1.220	-1.290
2020/01/31 17:15:29.8	357.890	-0.130	-1.210	-1.320
2020/01/31 17:15:29.9	357.920	-0.110	-1.190	-1.350
2020/01/31 17:15:30.0	357.960	-0.100	-1.170	-1.370
2020/01/31 17:15:30.1	357.990	-0.080	-1.140	-1.390
2020/01/31 17:15:30.2	358.020	-0.070	-1.110	-1.400
2020/01/31 17:15:30.3	358.050	-0.050	-1.080	-1.400
2020/01/31 17:15:30.4	358.080	-0.030	-1.040	-1.400
2020/01/31 17:15:30.5	358.110	-0.010	-0.990	-1.390
2020/01/31 17:15:30.6	358.140	0.010	-0.950	-1.370
2020/01/31 17:15:30.7	358.160	0.030	-0.890	-1.350
2020/01/31 17:15:30.8	358.180	0.050	-0.840	-1.320
2020/01/31 17:15:30.9	358.200	0.070	-0.790	-1.290
2020/01/31 17:15:31.0	358.230	0.090	-0.730	-1.250
2020/01/31 17:15:31.1	358.240	0.110	-0.670	-1.210
2020/01/31 17:15:31.2	358.260	0.130	-0.600	-1.160
2020/01/31 17:15:31.3	358.280	0.140	-0.540	-1.110
2020/01/31 17:15:31.4	358.290	0.160	-0.480	-1.060
2020/01/31 17:15:31.5	358.310	0.170	-0.420	-1.010
2020/01/31 17:15:31.6	358.320	0.180	-0.350	-0.950
2020/01/31 17:15:31.7	358.330	0.190	-0.290	-0.890
2020/01/31 17:15:31.8	358.340	0.190	-0.230	-0.830
2020/01/31 17:15:31.9	358.340	0.190	-0.180	-0.770
2020/01/31 17:15:32.0	358.350	0.200	-0.120	-0.710
2020/01/31 17:15:32.1	358.350	0.190	-0.070	-0.650
2020/01/31 17:15:32.2	358.360	0.190	-0.020	-0.590
2020/01/31 17:15:32.3	358.360	0.180	0.020	-0.540
2020/01/31 17:15:32.4	358.360	0.170	0.060	-0.480
2020/01/31 17:15:32.5	358.360	0.160	0.100	-0.430
2020/01/31 17:15:32.6	358.360	0.150	0.130	-0.380
2020/01/31 17:15:32.7	358.360	0.140	0.160	-0.330
2020/01/31 17:15:32.8	358.370	0.120	0.180	-0.280
2020/01/31 17:15:32.9	358.370	0.100	0.200	-0.240
2020/01/31 17:15:33.0	358.370	0.080	0.210	-0.200
2020/01/31 17:15:33.1	358.370	0.060	0.220	-0.160
2020/01/31 17:15:33.2	358.380	0.040	0.230	-0.120
2020/01/31 17:15:33.3	358.380	0.010	0.230	-0.090
2020/01/31 17:15:33.4	358.380	-0.010	0.230	-0.060
2020/01/31 17:15:33.5	358.370	-0.030	0.220	-0.030
2020/01/31 17:15:33.6	358.370	-0.060	0.210	-0.000
2020/01/31 17:15:33.7	358.370	-0.080	0.200	0.020
2020/01/31 17:15:33.8	358.360	-0.110	0.190	0.050
2020/01/31 17:15:33.9	358.350	-0.130	0.180	0.070
2020/01/31 17:15:34.0	358.340	-0.160	0.160	0.090
2020/01/31 17:15:34.1	358.320	-0.180	0.140	0.110
2020/01/31 17:15:34.2	358.310	-0.210	0.130	0.120
2020/01/31 17:15:34.3	358.290	-0.230	0.110	0.130
2020/01/31 17:15:34.4	358.270	-0.250	0.090	0.140
2020/01/31 17:15:34.5	358.250	-0.270	0.070	0.150
2020/01/31 17:15:34.6	358.220	-0.290	0.050	0.160
2020/01/31 17:15:34.7	358.200	-0.300	0.040	0.170
2020/01/31 17:15:34.8	358.170	-0.310	0.020	0.180
2020/01/31 17:15:34.9	358.140	-0.320	0.010	0.180
2020/01/31 17:15:35.0	358.110	-0.330	-0.010	0.190
2020/01/31 17:15:35.1	358.080	-0.330	-0.020	0.190
2020/01/31 17:15:35.2	358.040	-0.330	-0.030	0.200
2020/01/31 17:15:35.3	358.010	-0.330	-0.040	0.200
2020/01/31 17:15:35.4	357.970	-0.330	-0.050	0.200
2020/01/31 17:15:35.5	357.940	-0.320	-0.060	0.210
2020/01/31 17:15:35.6	357.900	-0.310	-0.070	0.210
2020/01/31 17:15:35.7	357.870	-0.290	-0.080	0.220
2020/01/31 17:15:35.8	357.840	-0.270	-0.090	0.220
2020/01/31 17:15:35.9	357.810	-0.250	-0.100	0.230
2020/01/31 17:15:36.0	357.770	-0.230	-0.110	0.230
2020/01/31 17:15:36.1	357.740	-0.200	-0.120	0.240
2020/01/31 17:15:36.2	357.700	-0.170	-0.130	0.240
2020/01/31 17:15:36.3	357.670	-0.140	-0.140	0.250
2020/01/31 17:15:36.4	357.630	-0.110	-0.150	0.250
2020/01/31 17:15:36.5	357.600	-0.080	-0.160	0.260
2020/01/31 17:15:36.6	357.570	-0.040	-0.160	0.260
2020/01/31 17:15:36.7	357.530	-0.000	-0.170	0.270
2020/01/31 17:15:36.8	357.500	0.030	-0.190	0.280
2020/01/31 17:15:36.9	357.470	0.070	-0.190	0.280
2020/01/31 17:15:37.0	357.440	0.100	-0.200	0.290
2020/01/31 17:15:37.1	357.410	0.140	-0.210	0.290
2020/01/31 17:15:37.2	357.380	0.170	-0.220	0.290
2020/01/31 17:15:37.3	357.360	0.200	-0.220	0.290
2020/01/31 17:15:37.4	357.330	0.230	-0.230	0.280
2020/01/31 17:15:37.5	357.310	0.260	-0.240	0.280
2020/01/31 17:15:37.6	357.290	0.280	-0.240	0.270
2020/01/31 17:15:37.7	357.270	0.300	-0.250	0.260
2020/01/31 17:15:37.8	357.240	0.320	-0.250	0.250
2020/01/31 17:15:37.9	357.230	0.340	-0.260	0.230
2020/01/31 17:15:38.0	357.220	0.350	-0.270	0.210
2020/01/31 17:15:38.1	357.210	0.360	-0.270	0.190
2020/01/31 17:15:38.2	357.210	0.360	-0.280	0.170
2020/01/31 17:15:38.3	357.210	0.370	-0.290	0.140
2020/01/31 17:15:38.4	357.220	0.360	-0.300	0.100
2020/01/31 17:15:38.5	357.230	0.360	-0.320	0.070
2020/01/31 17:15:38.6	357.240	0.350	-0.330	0.030
2020/01/31 17:15:38.7	357.260	0.340	-0.350	-0.010
2020/01/31 17:15:38.8	357.280	0.330	-0.360	-0.060
2020/01/31 17:15:38.9	357.300	0.310	-0.380	-0.110
2020/01/31 17:15:39.0	357.330	0.290	-0.390	-0.160
2020/01/31 17:15:39.1	357.360	0.260	-0.410	-0.210
2020/01/31 17:15:39.2	357.390	0.240	-0.430	-0.260
2020/01/31 17:15:39.3	357.420	0.210	-0.450	-0.320
2020/01/31 17:15:39.4	357.450	0.180	-0.460	-0.370
2020/01/31 17:15:39.5	357.490	0.150	-0.480	-0.430
2020/01/31 17:15:39.6	357.520	0.110	-0.500	-0.490
2020/01/31 17:15:39.7	357.550	0.080	-0.510	-0.540
2020/01/31 17:15:39.8	357.590	0.040	-0.520	-0.590
2020/01/31 17:15:39.9	357.620	0.000	-0.530	-0.650
2020/01/31 17:15:40.0	357.650	-0.040	-0.540	-0.700
2020/01/31 17:15:40.1	357.670	-0.070	-0.540	-0.750
2020/01/31 17:15:40.2	357.700	-0.110	-0.540	-0.790
2020/01/31 17:15:40.3	357.720	-0.150	-0.530	-0.840
2020/01/31 17:15:40.4	357.750	-0.180	-0.530	-0.880
2020/01/31 17:15:40.5	357.770	-0.220	-0.520	-0.930
2020/01/31 17:15:40.6	357.780	-0.250	-0.510	-0.970
2020/01/31 17:15:40.7	357.800	-0.280	-0.490	-1.000
2020/01/31 17:15:40.8	357.810	-0.310	-0.470	-1.030
2020/01/31 17:15:40.9	357.830	-0.330	-0.450	-1.060
2020/01/31 17:15:41.0	357.840	-0.350	-0.430	-1.090
2020/01/31 17:15:41.1	357.850	-0.370	-0.410	-1.120
2020/01/31 17:15:41.2	357.860	-0.380	-0.390	-1.140
2020/01/31 17:15:41.3	357.870	-0.390	-0.370	-1.160
2020/01/31 17:15:41.4	357.880	-0.400	-0.350	-1.180
2020/01/31 17:15:41.5	357.890	-0.400	-0.330	-1.190
2020/01/31 17:15:41.6	357.900	-0.390	-0.310	-1.200
2020/01/31 17:15:41.7	357.910	-0.380	-0.290	-1.200
2020/01/31 17:15:41.8	357.930	-0.370	-0.270	-1.200
2020/01/31 17:15:41.9	357.940	-0.350	-0.260	-1.200
2020/01/31 17:15:42.0	357.950	-0.320	-0.240	-1.190
2020/01/31 17:15:42.1	357.960	-0.290	-0.230	-1.170
2020/01/31 17:15:42.2	357.970	-0.260	-0.220	-1.150
2020/01/31 17:15:42.3	357.970	-0.220	-0.220	-1.130
2020/01/31 17:15:42.4	357.980	-0.170	-0.220	-1.100
2020/01/31 17:15:42.5	357.990	-0.130	-0.210	-1.070
2020/01/31 17:15:42.6	357.990	-0.070	-0.210	-1.040
2020/01/31 17:15:42.7	358.000	-0.020	-0.210	-1.000
2020/01/31 17:15:42.8	358.000	0.030	-0.210	-0.950
2020/01/31 17:15:42.9	358.000	0.090	-0.210	-0.900
2020/01/31 17:15:43.0	357.990	0.150	-0.210	-0.840
2020/01/31 17:15:43.1	357.980	0.210	-0.210	-0.790
2020/01/31 17:15:43.2	357.970	0.260	-0.210	-0.720
2020/01/31 17:15:43.3	357.950	0.320	-0.210	-0.660
2020/01/31 17:15:43.4	357.920	0.370	-0.200	-0.590
2020/01/31 17:15:43.5	357.900	0.420	-0.200	-0.520
2020/01/31 17:15:43.6	357.870	0.470	-0.190	-0.450
2020/01/31 17:15:43.7	357.830	0.510	-0.180	-0.380
2020/01/31 17:15:43.8	357.800	0.550	-0.180	-0.300
2020/01/31 17:15:43.9	357.770	0.590	-0.170	-0.230
2020/01/31 17:15:44.0	357.730	0.620	-0.160	-0.160
2020/01/31 17:15:44.1	357.690	0.650	-0.150	-0.100
2020/01/31 17:15:44.2	357.640	0.660	-0.130	-0.040
2020/01/31 17:15:44.3	357.600	0.680	-0.120	0.020
2020/01/31 17:15:44.4	357.560	0.690	-0.110	0.080
2020/01/31 17:15:44.5	357.510	0.690	-0.100	0.140
2020/01/31 17:15:44.6	357.470	0.680	-0.090	0.180
2020/01/31 17:15:44.7	357.430	0.670	-0.080	0.230
2020/01/31 17:15:44.8	357.390	0.650	-0.070	0.280
2020/01/31 17:15:44.9	357.350	0.630	-0.060	0.310
2020/01/31 17:15:45.0	357.310	0.610	-0.060	0.340
2020/01/31 17:15:45.1	357.280	0.570	-0.050	0.370
2020/01/31 17:15:45.2	357.240	0.540	-0.050	0.390
2020/01/31 17:15:45.3	357.210	0.490	-0.050	0.400
2020/01/31 17:15:45.4	357.190	0.450	-0.050	0.400
2020/01/31 17:15:45.5	357.170	0.400	-0.060	0.400
2020/01/31 17:15:45.6	357.150	0.350	-0.070	0.400
2020/01/31 17:15:45.7	357.140	0.290	-0.080	0.380
2020/01/31 17:15:45.8	357.120	0.240	-0.090	0.360
2020/01/31 17:15:45.9	357.110	0.180	-0.110	0.340
2020/01/31 17:15:46.0	357.110	0.120	-0.130	0.300
2020/01/31 17:15:46.1	357.110	0.060	-0.150	0.260
2020/01/31 17:15:46.2	357.120	0.000	-0.180	0.210
2020/01/31 17:15:46.3	357.130	-0.060	-0.200	0.160
2020/01/31 17:15:46.4	357.150	-0.110	-0.230	0.100
2020/01/31 17:15:46.5	357.160	-0.170	-0.260	0.040
2020/01/31 17:15:46.6	357.190	-0.230	-0.300	-0.030
2020/01/31 17:15:46.7	357.210	-0.280	-0.330	-0.110
2020/01/31 17:15:46.8	357.230	-0.330	-0.370	-0.190
2020/01/31 17:15:46.9	357.260	-0.380	-0.400	-0.270
2020/01/31 17:15:47.0	357.290	-0.420	-0.440	-0.360
2020/01/31 17:15:47.1	357.330	-0.470	-0.470	-0.450
2020/01/31 17:15:47.2	357.360	-0.510	-0.500	-0.530
2020/01/31 17:15:47.3	357.400	-0.540	-0.530	-0.620
2020/01/31 17:15:47.4	357.430	-0.580	-0.560	-0.710
2020/01/31 17:15:47.5	357.470	-0.610	-0.580	-0.790
2020/01/31 17:15:47.6	357.500	-0.630	-0.600	-0.880
2020/01/31 17:15:47.7	357.540	-0.660	-0.620	-0.960
2020/01/31 17:15:47.8	357.560	-0.680	-0.630	-1.030
2020/01/31 17:15:47.9	357.590	-0.700	-0.630	-1.100
2020/01/31 17:15:48.0	357.620	-0.710	-0.630	-1.170
2020/01/31 17:15:48.1	357.650	-0.720	-0.620	-1.230
2020/01/31 17:15:48.2	357.670	-0.730	-0.610	-1.280
2020/01/31 17:15:48.3	357.690	-0.740	-0.590	-1.330
2020/01/31 17:15:48.4	357.700	-0.740	-0.560	-1.370
2020/01/31 17:15:48.5	357.720	-0.740	-0.530	-1.400
2020/01/31 17:15:48.6	357.730	-0.740	-0.500	-1.430
2020/01/31 17:15:48.7	357.740	-0.740	-0.460	-1.460
2020/01/31 17:15:48.8	357.750	-0.730	-0.420	-1.470
2020/01/31 17:15:48.9	357.760	-0.720	-0.370	-1.490
2020/01/31 17:15:49.0	357.760	-0.710	-0.330	-1.500
2020/01/31 17:15:49.1	357.770	-0.700	-0.280	-1.500
2020/01/31 17:15:49.2	357.770	-0.690	-0.230	-1.500
2020/01/31 17:15:49.3	357.780	-0.670	-0.180	-1.500
2020/01/31 17:15:49.4	357.780	-0.650	-0.140	-1.490
2020/01/31 17:15:49.5	357.780	-0.630	-0.090	-1.480
2020/01/31 17:15:49.6	357.790	-0.600	-0.050	-1.470
2020/01/31 17:15:49.7	357.790	-0.570	-0.020	-1.460
2020/01/31 17:15:49.8	357.800	-0.540	0.010	-1.440
2020/01/31 17:15:49.9	357.800	-0.510	0.040	-1.420
2020/01/31 17:15:50.0	357.810	-0.480	0.060	-1.390
2020/01/31 17:15:50.1	357.820	-0.440	0.070	-1.370
2020/01/31 17:15:50.2	357.830	-0.400	0.080	-1.340
2020/01/31 17:15:50.3	357.840	-0.350	0.080	-1.310
2020/01/31 17:15:50.4	357.850	-0.310	0.070	-1.280
2020/01/31 17:15:50.5	357.860	-0.260	0.060	-1.240
2020/01/31 17:15:50.6	357.870	-0.210	0.040	-1.200
2020/01/31 17:15:50.7	357.880	-0.160	0.020	-1.160
2020/01/31 17:15:50.8	357.900	-0.100	-0.010	-1.120
2020/01/31 17:15:50.9	357.910	-0.050	-0.040	-1.070
2020/01/31 17:15:51.0	357.920	0.010	-0.070	-1.020
2020/01/31 17:15:51.1	357.920	0.070	-0.110	-0.980
2020/01/31 17:15:51.2	357.930	0.120	-0.140	-0.930
2020/01/31 17:15:51.3	357.940	0.180	-0.180	-0.880
2020/01/31 17:15:51.4	357.950	0.240	-0.220	-0.830
2020/01/31 17:15:51.5	357.950	0.290	-0.260	-0.780
2020/01/31 17:15:51.6	357.960	0.350	-0.300	-0.730
2020/01/31 17:15:51.7	357.960	0.400	-0.330	-0.680
2020/01/31 17:15:51.8	357.980	0.450	-0.370	-0.630
2020/01/31 17:15:51.9	357.980	0.500	-0.400	-0.590
2020/01/31 17:15:52.0	357.990	0.550	-0.430	-0.540
2020/01/31 17:15:52.1	357.990	0.590	-0.460	-0.500
2020/01/31 17:15:52.2	357.990	0.630	-0.480	-0.460
2020/01/31 17:15:52.3	357.990	0.670	-0.500	-0.420
2020/01/31 17:15:52.4	357.990	0.700	-0.520	-0.380
2020/01/31 17:15:52.5	357.980	0.730	-0.530	-0.350
2020/01/31 17:15:52.6	357.980	0.760	-0.540	-0.310
2020/01/31 17:15:52.7	357.970	0.780	-0.540	-0.280
2020/01/31 17:15:52.8	357.960	0.790	-0.540	-0.240
2020/01/31 17:15:52.9	357.940	0.800	-0.540	-0.210
2020/01/31 17:15:53.0	357.920	0.810	-0.530	-0.180
2020/01/31 17:15:53.1	357.910	0.810	-0.520	-0.150
2020/01/31 17:15:53.2	357.890	0.810	-0.500	-0.120
2020/01/31 17:15:53.3	357.860	0.790	-0.480	-0.100
2020/01/31 17:15:53.4	357.840	0.780	-0.460	-0.090
2020/01/31 17:15:53.5	357.810	0.760	-0.440	-0.070
2020/01/31 17:15:53.6	357.790	0.730	-0.410	-0.060
2020/01/31 17:15:53.7	357.760	0.700	-0.390	-0.060
2020/01/31 17:15:53.8	357.730	0.670	-0.360	-0.050
2020/01/31 17:15:53.9	357.700	0.630	-0.330	-0.060
2020/01/31 17:15:54.0	357.670	0.580	-0.290	-0.060
2020/01/31 17:15:54.1	357.640	0.540	-0.260	-0.070
2020/01/31 17:15:54.2	357.610	0.490	-0.230	-0.090
2020/01/31 17:15:54.3	357.580	0.440	-0.200	-0.110
2020/01/31 17:15:54.4	357.550	0.380	-0.170	-0.130
2020/01/31 17:15:54.5	357.510	0.330	-0.140	-0.150
2020/01/31 17:15:54.6	357.480	0.270	-0.110	-0.180
2020/01/31 17:15:54.7	357.450	0.210	-0.080	-0.210
2020/01/31 17:15:54.8	357.410	0.160	-0.050	-0.240
2020/01/31 17:15:54.9	357.380	0.100	-0.020	-0.280
2020/01/31 17:15:55.0	357.350	0.040	-0.000	-0.310
2020/01/31 17:15:55.1	357.320	-0.010	0.020	-0.350
2020/01/31 17:15:55.2	357.280	-0.060	0.040	-0.390
2020/01/31 17:15:55.3	357.250	-0.120	0.050	-0.420
2020/01/31 17:15:55.4	357.220	-0.160	0.060	-0.460
2020/01/31 17:15:55.5	357.200	-0.210	0.070	-0.500
2020/01/31 17:15:55.6	357.170	-0.250	0.080	-0.540
2020/01/31 17:15:55.7	357.140	-0.290	0.080	-0.570
2020/01/31 17:15:55.8	357.110	-0.320	0.080	-0.610
2020/01/31 17:15:55.9	357.090	-0.350	0.080	-0.640
2020/01/31 17:15:56.0	357.070	-0.380	0.070	-0.670
2020/01/31 17:15:56.1	357.050	-0.400	0.060	-0.700
2020/01/31 17:15:56.2	357.030	-0.420	0.050	-0.730
2020/01/31 17:15:56.3	357.010	-0.430	0.040	-0.760
2020/01/31 17:15:56.4	357.000	-0.440	0.020	-0.780
2020/01/31 17:15:56.5	356.980	-0.440	0.000	-0.810
2020/01/31 17:15:56.6	356.970	-0.440	-0.020	-0.830
2020/01/31 17:15:56.7	356.970	-0.430	-0.050	-0.850
2020/01/31 17:15:56.8	356.960	-0.420	-0.070	-0.860
2020/01/31 17:15:56.9	356.960	-0.400	-0.100	-0.870
2020/01/31 17:15:57.0	356.960	-0.390	-0.130	-0.890
2020/01/31 17:15:57.1	356.960	-0.360	-0.160	-0.900
2020/01/31 17:15:57.2	356.970	-0.340	-0.190	-0.900
2020/01/31 17:15:57.3	356.980	-0.310	-0.220	-0.910
2020/01/31 17:15:57.4	356.990	-0.280	-0.250	-0.910
2020/01/31 17:15:57.5	357.000	-0.240	-0.290	-0.910
2020/01/31 17:15:57.6	357.010	-0.200	-0.320	-0.910
2020/01/31 17:15:57.7	357.030	-0.170	-0.350	-0.910
2020/01/31 17:15:57.8	357.050	-0.130	-0.390	-0.910
2020/01/31 17:15:57.9	357.080	-0.090	-0.420	-0.900
2020/01/31 17:15:58.0	357.100	-0.050	-0.450	-0.900
2020/01/31 17:15:58.1	357.120	-0.010	-0.480	-0.900
2020/01/31 17:15:58.2	357.150	0.020	-0.510	-0.900
2020/01/31 17:15:58.3	357.180	0.060	-0.540	-0.900
2020/01/31 17:15:58.4	357.210	0.090	-0.560	-0.900
2020/01/31 17:15:58.5	357.240	0.130	-0.590	-0.900
2020/01/31 17:15:58.6	357.270	0.160	-0.610	-0.900
2020/01/31 17:15:58.7	357.300	0.180	-0.630	-0.900
2020/01/31 17:15:58.8	357.340	0.210	-0.650	-0.900
2020/01/31 17:15:58.9	357.370	0.230	-0.670	-0.900
2020/01/31 17:15:59.0	357.410	0.240	-0.680	-0.910
2020/01/31 17:15:59.1	357.450	0.260	-0.690	-0.910
2020/01/31 17:15:59.2	357.480	0.270	-0.700	-0.920
2020/01/31 17:15:59.3	357.520	0.270	-0.710	-0.920
2020/01/31 17:15:59.4	357.560	0.270	-0.710	-0.930
2020/01/31 17:15:59.5	357.590	0.270	-0.710	-0.930
2020/01/31 17:15:59.6	357.620	0.260	-0.710	-0.930
2020/01/31 17:15:59.7	357.660	0.250	-0.700	-0.930
2020/01/31 17:15:59.8	357.680	0.230	-0.690	-0.930
2020/01/31 17:15:59.9	357.710	0.210	-0.680	-0.920
2020/01/31 17:16:00.0	357.730	0.180	-0.660	-0.920
2020/01/31 17:16:00.1	357.750	0.160	-0.640	-0.910
2020/01/31 17:16:00.2	357.770	0.120	-0.620	-0.910
2020/01/31 17:16:00.3	357.790	0.090	-0.590	-0.900
2020/01/31 17:16:00.4	357.800	0.050	-0.560	-0.890
2020/01/31 17:16:00.5	357.810	0.010	-0.530	-0.880
2020/01/31 17:16:00.6	357.820	-0.030	-0.490	-0.870
2020/01/31 17:16:00.7	357.820	-0.070	-0.460	-0.860
2020/01/31 17:16:00.8	357.820	-0.120	-0.420	-0.840
2020/01/31 17:16:00.9	357.810	-0.160	-0.380	-0.830
2020/01/31 17:16:01.0	357.810	-0.210	-0.330	-0.810
2020/01/31 17:16:01.1	357.800	-0.250	-0.290	-0.800
2020/01/31 17:16:01.2	357.800	-0.300	-0.250	-0.780
2020/01/31 17:16:01.3	357.780	-0.340	-0.210	-0.770
2020/01/31 17:16:01.4	357.770	-0.380	-0.170	-0.750
2020/01/31 17:16:01.5	357.760	-0.420	-0.130	-0.730
2020/01/31 17:16:01.6	357.740	-0.450	-0.090	-0.710
2020/01/31 17:16:01.7	357.720	-0.480	-0.050	-0.700
2020/01/31 17:16:01.8	357.690	-0.510	-0.010	-0.680
2020/01/31 17:16:01.9	357.670	-0.540	0.020	-0.660
2020/01/31 17:16:02.0	357.650	-0.560	0.050	-0.650
2020/01/31 17:16:02.1	357.630	-0.580	0.080	-0.640
2020/01/31 17:16:02.2	357.610	-0.590	0.110	-0.620
2020/01/31 17:16:02.3	357.590	-0.600	0.130	-0.610
2020/01/31 17:16:02.4	357.560	-0.600	0.150	-0.600
2020/01/31 17:16:02.5	357.540	-0.600	0.170	-0.590
2020/01/31 17:16:02.6	357.520	-0.600	0.180	-0.570
2020/01/31 17:16:02.7	357.500	-0.590	0.190	-0.560
2020/01/31 17:16:02.8	357.470	-0.580	0.210	-0.550
2020/01/31 17:16:02.9	357.450	-0.560	0.210	-0.540
2020/01/31 17:16:03.0	357.420	-0.540	0.220	-0.520
2020/01/31 17:16:03.1	357.400	-0.510	0.220	-0.510
2020/01/31 17:16:03.2	357.370	-0.490	0.220	-0.490
2020/01/31 17:16:03.3	357.340	-0.460	0.220	-0.480
2020/01/31 17:16:03.4	357.320	-0.420	0.210	-0.460
2020/01/31 17:16:03.5	357.290	-0.390	0.210	-0.430
2020/01/31 17:16:03.6	357.260	-0.350	0.200	-0.410
2020/01/31 17:16:03.7	357.220	-0.310	0.190	-0.390
2020/01/31 17:16:03.8	357.200	-0.270	0.190	-0.360
2020/01/31 17:16:03.9	357.160	-0.230	0.180	-0.330
2020/01/31 17:16:04.0	357.120	-0.190	0.170	-0.290
2020/01/31 17:16:04.1	357.080	-0.150	0.160	-0.260
2020/01/31 17:16:04.2	357.040	-0.110	0.150	-0.230
2020/01/31 17:16:04.3	357.000	-0.070	0.130	-0.200
2020/01/31 17:16:04.4	356.960	-0.020	0.120	-0.170
2020/01/31 17:16:04.5	356.920	0.020	0.110	-0.130
2020/01/31 17:16:04.6	356.880	0.060	0.090	-0.100
2020/01/31 17:16:04.7	356.840	0.100	0.070	-0.070
2020/01/31 17:16:04.8	356.810	0.140	0.060	-0.040
2020/01/31 17:16:04.9	356.770	0.170	0.040	-0.020
2020/01/31 17:16:05.0	356.730	0.210	0.020	0.010
2020/01/31 17:16:05.1	356.700	0.240	0.000	0.030
2020/01/31 17:16:05.2	356.670	0.280	-0.020	0.060
2020/01/31 17:16:05.3	356.640	0.310	-0.040	0.080
2020/01/31 17:16:05.4	356.620	0.350	-0.070	0.100
2020/01/31 17:16:05.5	356.590	0.380	-0.090	0.110
2020/01/31 17:16:05.6	356.570	0.410	-0.120	0.130
2020/01/31 17:16:05.7	356.560	0.440	-0.150	0.140
2020/01/31 17:16:05.8	356.550	0.470	-0.180	0.150
2020/01/31 17:16:05.9	356.540	0.500	-0.210	0.160
2020/01/31 17:16:06.0	356.540	0.530	-0.250	0.170
2020/01/31 17:16:06.1	356.530	0.560	-0.280	0.180
2020/01/31 17:16:06.2	356.540	0.590	-0.320	0.190
2020/01/31 17:16:06.3	356.540	0.620	-0.350	0.190
2020/01/31 17:16:06.4	356.550	0.640	-0.390	0.200
2020/01/31 17:16:06.5	356.550	0.670	-0.420	0.210
2020/01/31 17:16:06.6	356.560	0.690	-0.450	0.210
2020/01/31 17:16:06.7	356.580	0.720	-0.480	0.210
2020/01/31 17:16:06.8	356.590	0.740	-0.520	0.220
2020/01/31 17:16:06.9	356.600	0.760	-0.540	0.220
2020/01/31 17:16:07.0	356.620	0.780	-0.570	0.220
2020/01/31 17:16:07.1	356.640	0.790	-0.590	0.220
2020/01/31 17:16:07.2	356.650	0.800	-0.600	0.220
2020/01/31 17:16:07.3	356.670	0.810	-0.620	0.220
2020/01/31 17:16:07.4	356.680	0.810	-0.630	0.210
2020/01/31 17:16:07.5	356.700	0.810	-0.640	0.210
2020/01/31 17:16:07.6	356.710	0.810	-0.640	0.200
2020/01/31 17:16:07.7	356.730	0.800	-0.640	0.200
2020/01/31 17:16:07.8	356.730	0.790	-0.640	0.200
2020/01/31 17:16:07.9	356.740	0.770	-0.630	0.190
2020/01/31 17:16:08.0	356.750	0.750	-0.630	0.170
2020/01/31 17:16:08.1	356.760	0.720	-0.620	0.160
2020/01/31 17:16:08.2	356.770	0.690	-0.610	0.140
2020/01/31 17:16:08.3	356.770	0.660	-0.600	0.120
2020/01/31 17:16:08.4	356.780	0.620	-0.590	0.100
2020/01/31 17:16:08.5	356.780	0.570	-0.580	0.080
2020/01/31 17:16:08.6	356.790	0.530	-0.560	0.050
2020/01/31 17:16:08.7	356.790	0.480	-0.550	0.020
2020/01/31 17:16:08.8	356.800	0.420	-0.540	-0.010
2020/01/31 17:16:08.9	356.810	0.360	-0.530	-0.050
2020/01/31 17:16:09.0	356.810	0.300	-0.520	-0.090
2020/01/31 17:16:09.1	356.820	0.240	-0.510	-0.140
2020/01/31 17:16:09.2	356.840	0.180	-0.500	-0.190
2020/01/31 17:16:09.3	356.850	0.110	-0.490	-0.240
2020/01/31 17:16:09.4	356.870	0.050	-0.480	-0.290
2020/01/31 17:16:09.5	356.880	-0.020	-0.480	-0.350
2020/01/31 17:16:09.6	356.900	-0.090	-0.480	-0.420
2020/01/31 17:16:09.7	356.930	-0.150	-0.480	-0.480
2020/01/31 17:16:09.8	356.960	-0.220	-0.470	-0.550
2020/01/31 17:16:09.9	356.990	-0.280	-0.480	-0.620
2020/01/31 17:16:10.0	357.020	-0.340	-0.480	-0.690
2020/01/31 17:16:10.1	357.050	-0.400	-0.480	-0.760
2020/01/31 17:16:10.2	357.080	-0.460	-0.490	-0.830
2020/01/31 17:16:10.3	357.120	-0.510	-0.490	-0.900
2020/01/31 17:16:10.4	357.160	-0.560	-0.500	-0.980
2020/01/31 17:16:10.5	357.200	-0.610	-0.510	-1.050
2020/01/31 17:16:10.6	357.250	-0.650	-0.510	-1.120
2020/01/31 17:16:10.7	357.290	-0.690	-0.510	-1.200
2020/01/31 17:16:10.8	357.340	-0.730	-0.520	-1.270
2020/01/31 17:16:10.9	357.390	-0.760	-0.520	-1.340
2020/01/31 17:16:11.0	357.440	-0.780	-0.520	-1.400
2020/01/31 17:16:11.1	357.490	-0.800	-0.520	-1.460
2020/01/31 17:16:11.2	357.540	-0.820	-0.510	-1.520
2020/01/31 17:16:11.3	357.590	-0.830	-0.500	-1.580
2020/01/31 17:16:11.4	357.640	-0.840	-0.490	-1.630
2020/01/31 17:16:11.5	357.690	-0.840	-0.480	-1.680
2020/01/31 17:16:11.6	357.740	-0.840	-0.460	-1.720
2020/01/31 17:16:11.7	357.790	-0.840	-0.430	-1.750
2020/01/31 17:16:11.8	357.840	-0.830	-0.410	-1.780
2020/01/31 17:16:11.9	357.890	-0.820	-0.370	-1.810
2020/01/31 17:16:12.0	357.940	-0.800	-0.340	-1.820
2020/01/31 17:16:12.1	357.980	-0.790	-0.300	-1.840
2020/01/31 17:16:12.2	358.020	-0.770	-0.250	-1.840
2020/01/31 17:16:12.3	358.050	-0.740	-0.210	-1.840
2020/01/31 17:16:12.4	358.080	-0.720	-0.160	-1.830
2020/01/31 17:16:12.5	358.110	-0.700	-0.100	-1.810
2020/01/31 17:16:12.6	358.130	-0.670	-0.050	-1.790
2020/01/31 17:16:12.7	358.150	-0.640	0.010	-1.760
2020/01/31 17:16:12.8	358.160	-0.610	0.060	-1.720
2020/01/31 17:16:12.9	358.160	-0.580	0.120	-1.670
2020/01/31 17:16:13.0	358.160	-0.560	0.180	-1.620
2020/01/31 17:16:13.1	358.160	-0.530	0.230	-1.560
2020/01/31 17:16:13.2	358.140	-0.500	0.290	-1.500
2020/01/31 17:16:13.3	358.120	-0.470	0.340	-1.430
2020/01/31 17:16:13.4	358.100	-0.440	0.400	-1.350
2020/01/31 17:16:13.5	358.070	-0.410	0.440	-1.270
2020/01/31 17:16:13.6	358.030	-0.380	0.490	-1.190
2020/01/31 17:16:13.7	357.990	-0.360	0.530	-1.100
2020/01/31 17:16:13.8	357.960	-0.330	0.560	-1.000
2020/01/31 17:16:13.9	357.910	-0.300	0.590	-0.900
2020/01/31 17:16:14.0	357.850	-0.270	0.610	-0.810
2020/01/31 17:16:14.1	357.800	-0.250	0.630	-0.710
2020/01/31 17:16:14.2	357.740	-0.220	0.640	-0.620
2020/01/31 17:16:14.3	357.670	-0.190	0.640	-0.520
2020/01/31 17:16:14.4	357.610	-0.160	0.640	-0.430
2020/01/31 17:16:14.5	357.540	-0.130	0.630	-0.330
2020/01/31 17:16:14.6	357.470	-0.100	0.610	-0.240
2020/01/31 17:16:14.7	357.400	-0.070	0.590	-0.160
2020/01/31 17:16:14.8	357.330	-0.040	0.560	-0.070
2020/01/31 17:16:14.9	357.260	-0.000	0.520	0.010
2020/01/31 17:16:15.0	357.190	0.030	0.480	0.090
2020/01/31 17:16:15.1	357.120	0.070	0.430	0.160
2020/01/31 17:16:15.2	357.060	0.110	0.380	0.230
2020/01/31 17:16:15.3	356.990	0.160	0.320	0.290
2020/01/31 17:16:15.4	356.930	0.200	0.250	0.350
2020/01/31 17:16:15.5	356.870	0.250	0.180	0.410
2020/01/31 17:16:15.6	356.810	0.300	0.110	0.460
2020/01/31 17:16:15.7	356.760	0.360	0.030	0.500
2020/01/31 17:16:15.8	356.710	0.410	-0.050	0.540
2020/01/31 17:16:15.9	356.660	0.460	-0.130	0.570
2020/01/31 17:16:16.0	356.620	0.520	-0.210	0.600
2020/01/31 17:16:16.1	356.580	0.580	-0.300	0.620
2020/01/31 17:16:16.2	356.540	0.640	-0.380	0.630
2020/01/31 17:16:16.3	356.500	0.690	-0.460	0.650
2020/01/31 17:16:16.4	356.470	0.750	-0.550	0.650
2020/01/31 17:16:16.5	356.450	0.810	-0.630	0.650
2020/01/31 17:16:16.6	356.420	0.860	-0.700	0.650
2020/01/31 17:16:16.7	356.400	0.910	-0.770	0.650
2020/01/31 17:16:16.8	356.380	0.960	-0.840	0.640
2020/01/31 17:16:16.9	356.370	1.010	-0.900	0.620
2020/01/31 17:16:17.0	356.360	1.050	-0.960	0.600
2020/01/31 17:16:17.1	356.350	1.080	-1.010	0.580
2020/01/31 17:16:17.2	356.350	1.120	-1.050	0.560
2020/01/31 17:16:17.3	356.350	1.140	-1.080	0.530
2020/01/31 17:16:17.4	356.350	1.160	-1.110	0.500
2020/01/31 17:16:17.5	356.360	1.180	-1.120	0.470
2020/01/31 17:16:17.6	356.360	1.180	-1.130	0.440
2020/01/31 17:16:17.7	356.370	1.190	-1.130	0.400
2020/01/31 17:16:17.8	356.380	1.180	-1.130	0.370
2020/01/31 17:16:17.9	356.400	1.170	-1.110	0.330
2020/01/31 17:16:18.0	356.420	1.150	-1.090	0.280
2020/01/31 17:16:18.1	356.440	1.120	-1.060	0.240
2020/01/31 17:16:18.2	356.460	1.080	-1.030	0.190
2020/01/31 17:16:18.3	356.480	1.040	-0.990	0.150
2020/01/31 17:16:18.4	356.510	0.990	-0.950	0.090
2020/01/31 17:16:18.5	356.540	0.940	-0.900	0.040
2020/01/31 17:16:18.6	356.570	0.880	-0.850	-0.010
2020/01/31 17:16:18.7	356.600	0.810	-0.800	-0.070
2020/01/31 17:16:18.8	356.640	0.740	-0.750	-0.130
2020/01/31 17:16:18.9	356.680	0.660	-0.700	-0.190
2020/01/31 17:16:19.0	356.720	0.580	-0.650	-0.260
2020/01/31 17:16:19.1	356.760	0.490	-0.600	-0.330
2020/01/31 17:16:19.2	356.800	0.410	-0.550	-0.400
2020/01/31 17:16:19.3	356.850	0.310	-0.500	-0.470
2020/01/31 17:16:19.4	356.890	0.220	-0.460	-0.550
2020/01/31 17:16:19.5	356.940	0.130	-0.410	-0.620
2020/01/31 17:16:19.6	356.990	0.030	-0.380	-0.700
2020/01/31 17:16:19.7	357.050	-0.060	-0.340	-0.780
2020/01/31 17:16:19.8	357.110	-0.160	-0.320	-0.860
2020/01/31 17:16:19.9	357.160	-0.250	-0.290	-0.940
2020/01/31 17:16:20.0	357.220	-0.340	-0.270	-1.020
2020/01/31 17:16:20.1	357.280	-0.430	-0.250	-1.100
2020/01/31 17:16:20.2	357.330	-0.510	-0.230	-1.180
2020/01/31 17:16:20.3	357.390	-0.590	-0.220	-1.250
2020/01/31 17:16:20.4	357.450	-0.670	-0.210	-1.320
2020/01/31 17:16:20.5	357.500	-0.750	-0.200	-1.390
2020/01/31 17:16:20.6	357.560	-0.820	-0.200	-1.460
2020/01/31 17:16:20.7	357.610	-0.880	-0.190	-1.520
2020/01/31 17:16:20.8	357.660	-0.940	-0.180	-1.570
2020/01/31 17:16:20.9	357.700	-1.000	-0.180	-1.630
2020/01/31 17:16:21.0	357.750	-1.050	-0.180	-1.680
2020/01/31 17:16:21.1	357.790	-1.090	-0.170	-1.720
2020/01/31 17:16:21.2	357.830	-1.130	-0.160	-1.760
2020/01/31 17:16:21.3	357.860	-1.160	-0.160	-1.800
2020/01/31 17:16:21.4	357.900	-1.190	-0.150	-1.830
2020/01/31 17:16:21.5	357.920	-1.200	-0.140	-1.850
2020/01/31 17:16:21.6	357.940	-1.220	-0.130	-1.860
2020/01/31 17:16:21.7	357.960	-1.230	-0.110	-1.870
2020/01/31 17:16:21.8	357.980	-1.230	-0.100	-1.880
2020/01/31 17:16:21.9	357.990	-1.220	-0.080	-1.870
2020/01/31 17:16:22.0	358.000	-1.210	-0.060	-1.860
2020/01/31 17:16:22.1	358.000	-1.190	-0.040	-1.840
2020/01/31 17:16:22.2	357.990	-1.170	-0.010	-1.820
2020/01/31 17:16:22.3	357.990	-1.140	0.010	-1.790
2020/01/31 17:16:22.4	357.980	-1.110	0.040	-1.750
2020/01/31 17:16:22.5	357.960	-1.070	0.060	-1.700
2020/01/31 17:16:22.6	357.940	-1.020	0.090	-1.650
2020/01/31 17:16:22.7	357.920	-0.970	0.120	-1.600
2020/01/31 17:16:22.8	357.890	-0.920	0.140	-1.530
2020/01/31 17:16:22.9	357.860	-0.860	0.170	-1.460
2020/01/31 17:16:23.0	357.840	-0.800	0.190	-1.390
2020/01/31 17:16:23.1	357.810	-0.730	0.210	-1.310
2020/01/31 17:16:23.2	357.780	-0.660	0.220	-1.230
2020/01/31 17:16:23.3	357.750	-0.590	0.240	-1.150
2020/01/31 17:16:23.4	357.720	-0.510	0.250	-1.070
2020/01/31 17:16:23.5	357.690	-0.440	0.250	-0.980
2020/01/31 17:16:23.6	357.660	-0.360	0.250	-0.890
2020/01/31 17:16:23.7	357.640	-0.270	0.250	-0.800
2020/01/31 17:16:23.8	357.600	-0.190	0.250	-0.720
2020/01/31 17:16:23.9	357.580	-0.110	0.230	-0.630
2020/01/31 17:16:24.0	357.550	-0.030	0.220	-0.540
2020/01/31 17:16:24.1	357.530	0.060	0.200	-0.460
2020/01/31 17:16:24.2	357.510	0.140	0.180	-0.370
2020/01/31 17:16:24.3	357.480	0.220	0.150	-0.290
2020/01/31 17:16:24.4	357.460	0.300	0.130	-0.210
2020/01/31 17:16:24.5	357.440	0.370	0.100	-0.130
2020/01/31 17:16:24.6	357.410	0.440	0.070	-0.060
2020/01/31 17:16:24.7	357.380	0.510	0.040	0.010
2020/01/31 17:16:24.8	357.360	0.570	0.020	0.090
2020/01/31 17:16:24.9	357.330	0.620	-0.010	0.150
2020/01/31 17:16:25.0	357.300	0.670	-0.030	0.210
2020/01/31 17:16:25.1	357.260	0.710	-0.050	0.260
2020/01/31 17:16:25.2	357.230	0.750	-0.070	0.310
2020/01/31 17:16:25.3	357.190	0.780	-0.080	0.360
2020/01/31 17:16:25.4	357.150	0.810	-0.090	0.400
2020/01/31 17:16:25.5	357.110	0.820	-0.100	0.440
2020/01/31 17:16:25.6	357.070	0.830	-0.110	0.470
2020/01/31 17:16:25.7	357.030	0.840	-0.110	0.500
2020/01/31 17:16:25.8	356.980	0.830	-0.110	0.530
2020/01/31 17:16:25.9	356.930	0.820	-0.100	0.560
2020/01/31 17:16:26.0	356.880	0.810	-0.090	0.580
2020/01/31 17:16:26.1	356.830	0.780	-0.080	0.590
2020/01/31 17:16:26.2	356.780	0.760	-0.070	0.610
2020/01/31 17:16:26.3	356.740	0.720	-0.050	0.620
2020/01/31 17:16:26.4	356.690	0.690	-0.040	0.630
2020/01/31 17:16:26.5	356.640	0.650	-0.020	0.630
2020/01/31 17:16:26.6	356.590	0.600	-0.010	0.630
2020/01/31 17:16:26.7	356.550	0.560	0.010	0.620
2020/01/31 17:16:26.8	356.500	0.510	0.020	0.620
2020/01/31 17:16:26.9	356.450	0.460	0.030	0.600
2020/01/31 17:16:27.0	356.410	0.410	0.040	0.590
2020/01/31 17:16:27.1	356.380	0.370	0.040	0.560
2020/01/31 17:16:27.2	356.350	0.320	0.040	0.530
2020/01/31 17:16:27.3	356.320	0.270	0.030	0.500
2020/01/31 17:16:27.4	356.290	0.230	0.020	0.460
2020/01/31 17:16:27.5	356.270	0.190	-0.000	0.420
2020/01/31 17:16:27.6	356.250	0.160	-0.020	0.370
2020/01/31 17:16:27.7	356.230	0.130	-0.050	0.320
2020/01/31 17:16:27.8	356.220	0.100	-0.090	0.260
2020/01/31 17:16:27.9	356.210	0.080	-0.130	0.200
2020/01/31 17:16:28.0	356.210	0.060	-0.180	0.140
2020/01/31 17:16:28.1	356.210	0.050	-0.230	0.080
2020/01/31 17:16:28.2	356.220	0.040	-0.290	0.010
2020/01/31 17:16:28.3	356.220	0.040	-0.350	-0.060
2020/01/31 17:16:28.4	356.230	0.040	-0.410	-0.130
2020/01/31 17:16:28.5	356.250	0.050	-0.480	-0.200
2020/01/31 17:16:28.6	356.270	0.060	-0.550	-0.280
2020/01/31 17:16:28.7	356.300	0.080	-0.630	-0.360
2020/01/31 17:16:28.8	356.330	0.100	-0.710	-0.440
2020/01/31 17:16:28.9	356.360	0.130	-0.790	-0.520
2020/01/31 17:16:29.0	356.400	0.150	-0.870	-0.600
2020/01/31 17:16:29.1	356.440	0.190	-0.950	-0.690
2020/01/31 17:16:29.2	356.490	0.220	-1.030	-0.780
2020/01/31 17:16:29.3	356.550	0.250	-1.120	-0.870
2020/01/31 17:16:29.4	356.600	0.290	-1.200	-0.960
2020/01/31 17:16:29.5	356.660	0.320	-1.270	-1.050
2020/01/31 17:16:29.6	356.730	0.360	-1.350	-1.150
2020/01/31 17:16:29.7	356.790	0.390	-1.410	-1.240
2020/01/31 17:16:29.8	356.870	0.420	-1.480	-1.320
2020/01/31 17:16:29.9	356.940	0.440	-1.530	-1.410
2020/01/31 17:16:30.0	357.010	0.470	-1.580	-1.490
2020/01/31 17:16:30.1	357.070	0.490	-1.620	-1.570
2020/01/31 17:16:30.2	357.140	0.500	-1.640	-1.650
2020/01/31 17:16:30.3	357.200	0.510	-1.660	-1.710
2020/01/31 17:16:30.4	357.260	0.510	-1.670	-1.780
2020/01/31 17:16:30.5	357.310	0.500	-1.660	-1.840
2020/01/31 17:16:30.6	357.360	0.490	-1.640	-1.890
2020/01/31 17:16:30.7	357.410	0.470	-1.620	-1.940
2020/01/31 17:16:30.8	357.460	0.440	-1.580	-1.970
2020/01/31 17:16:30.9	357.500	0.410	-1.520	-2.010
2020/01/31 17:16:31.0	357.540	0.370	-1.460	-2.040
2020/01/31 17:16:31.1	357.580	0.320	-1.390	-2.060
2020/01/31 17:16:31.2	357.610	0.270	-1.300	-2.080
2020/01/31 17:16:31.3	357.640	0.210	-1.210	-2.090
2020/01/31 17:16:31.4	357.660	0.150	-1.110	-2.090
2020/01/31 17:16:31.5	357.690	0.080	-0.990	-2.090
2020/01/31 17:16:31.6	357.700	0.010	-0.870	-2.090
2020/01/31 17:16:31.7	357.720	-0.070	-0.750	-2.080
2020/01/31 17:16:31.8	357.750	-0.150	-0.620	-2.060
2020/01/31 17:16:31.9	357.760	-0.240	-0.480	-2.040
2020/01/31 17:16:32.0	357.770	-0.320	-0.350	-2.010
2020/01/31 17:16:32.1	357.780	-0.410	-0.210	-1.980
2020/01/31 17:16:32.2	357.790	-0.490	-0.070	-1.940
2020/01/31 17:16:32.3	357.800	-0.580	0.070	-1.910
2020/01/31 17:16:32.4	357.800	-0.660	0.210	-1.870
2020/01/31 17:16:32.5	357.810	-0.740	0.340	-1.820
2020/01/31 17:16:32.6	357.820	-0.820	0.470	-1.780
2020/01/31 17:16:32.7	357.820	-0.890	0.590	-1.730
2020/01/31 17:16:32.8	357.830	-0.950	0.700	-1.680
2020/01/31 17:16:32.9	357.830	-1.010	0.810	-1.630
2020/01/31 17:16:33.0	357.840	-1.070	0.910	-1.580
2020/01/31 17:16:33.1	357.840	-1.120	1.000	-1.520
2020/01/31 17:16:33.2	357.840	-1.160	1.080	-1.470
2020/01/31 17:16:33.3	357.840	-1.190	1.150	-1.410
2020/01/31 17:16:33.4	357.840	-1.210	1.220	-1.350
2020/01/31 17:16:33.5	357.830	-1.230	1.270	-1.280
2020/01/31 17:16:33.6	357.830	-1.230	1.310	-1.210
2020/01/31 17:16:33.7	357.810	-1.230	1.340	-1.140
2020/01/31 17:16:33.8	357.800	-1.220	1.360	-1.060
2020/01/31 17:16:33.9	357.780	-1.200	1.370	-0.990
2020/01/31 17:16:34.0	357.760	-1.170	1.370	-0.910
2020/01/31 17:16:34.1	357.740	-1.140	1.360	-0.830
2020/01/31 17:16:34.2	357.710	-1.100	1.350	-0.750
2020/01/31 17:16:34.3	357.680	-1.050	1.320	-0.660
2020/01/31 17:16:34.4	357.650	-0.990	1.290	-0.580
2020/01/31 17:16:34.5	357.610	-0.930	1.250	-0.500
2020/01/31 17:16:34.6	357.570	-0.860	1.200	-0.410
2020/01/31 17:16:34.7	357.530	-0.780	1.150	-0.330
2020/01/31 17:16:34.8	357.480	-0.710	1.090	-0.250
2020/01/31 17:16:34.9	357.440	-0.630	1.020	-0.170
2020/01/31 17:16:35.0	357.390	-0.540	0.950	-0.090
2020/01/31 17:16:35.1	357.340	-0.460	0.880	-0.010
2020/01/31 17:16:35.2	357.280	-0.370	0.800	0.060
2020/01/31 17:16:35.3	357.230	-0.280	0.720	0.130
2020/01/31 17:16:35.4	357.180	-0.200	0.630	0.190
2020/01/31 17:16:35.5	357.120	-0.110	0.540	0.260
2020/01/31 17:16:35.6	357.060	-0.020	0.450	0.310
2020/01/31 17:16:35.7	357.010	0.060	0.360	0.360
2020/01/31 17:16:35.8	356.950	0.140	0.270	0.420
2020/01/31 17:16:35.9	356.890	0.210	0.170	0.460
2020/01/31 17:16:36.0	356.830	0.290	0.080	0.500
2020/01/31 17:16:36.1	356.770	0.360	-0.010	0.530
2020/01/31 17:16:36.2	356.720	0.420	-0.110	0.560
2020/01/31 17:16:36.3	356.660	0.480	-0.200	0.580
2020/01/31 17:16:36.4	356.610	0.530	-0.290	0.590
2020/01/31 17:16:36.5	356.560	0.580	-0.380	0.600
2020/01/31 17:16:36.6	356.520	0.630	-0.460	0.610
2020/01/31 17:16:36.7	356.470	0.660	-0.540	0.600
2020/01/31 17:16:36.8	356.430	0.700	-0.620	0.600
2020/01/31 17:16:36.9	356.390	0.720	-0.700	0.580
2020/01/31 17:16:37.0	356.360	0.740	-0.780	0.560
2020/01/31 17:16:37.1	356.340	0.760	-0.850	0.530
2020/01/31 17:16:37.2	356.320	0.770	-0.910	0.500
2020/01/31 17:16:37.3	356.300	0.780	-0.980	0.460
2020/01/31 17:16:37.4	356.290	0.780	-1.030	0.410
2020/01/31 17:16:37.5	356.290	0.780	-1.090	0.360
2020/01/31 17:16:37.6	356.290	0.780	-1.140	0.310
2020/01/31 17:16:37.7	356.290	0.770	-1.180	0.250
2020/01/31 17:16:37.8	356.310	0.760	-1.220	0.180
2020/01/31 17:16:37.9	356.320	0.750	-1.260	0.110
2020/01/31 17:16:38.0	356.340	0.740	-1.290	0.040
2020/01/31 17:16:38.1	356.360	0.720	-1.310	-0.030
2020/01/31 17:16:38.2	356.390	0.700	-1.330	-0.110
2020/01/31 17:16:38.3	356.420	0.690	-1.340	-0.180
2020/01/31 17:16:38.4	356.450	0.670	-1.340	-0.260
2020/01/31 17:16:38.5	356.480	0.650	-1.340	-0.330
2020/01/31 17:16:38.6	356.520	0.630	-1.340	-0.400
2020/01/31 17:16:38.7	356.550	0.610	-1.330	-0.470
2020/01/31 17:16:38.8	356.590	0.590	-1.310	-0.540
2020/01/31 17:16:38.9	356.630	0.570	-1.290	-0.610
2020/01/31 17:16:39.0	356.670	0.550	-1.260	-0.670
2020/01/31 17:16:39.1	356.720	0.530	-1.230	-0.730
2020/01/31 17:16:39.2	356.760	0.510	-1.190	-0.790
2020/01/31 17:16:39.3	356.800	0.500	-1.150	-0.840
2020/01/31 17:16:39.4	356.840	0.480	-1.110	-0.880
2020/01/31 17:16:39.5	356.890	0.470	-1.060	-0.920
2020/01/31 17:16:39.6	356.930	0.450	-1.010	-0.960
2020/01/31 17:16:39.7	356.970	0.440	-0.950	-0.990
2020/01/31 17:16:39.8	357.020	0.420	-0.900	-1.010
2020/01/31 17:16:39.9	357.060	0.410	-0.840	-1.030
2020/01/31 17:16:40.0	357.100	0.400	-0.790	-1.040
2020/01/31 17:16:40.1	357.140	0.390	-0.730	-1.050
2020/01/31 17:16:40.2	357.180	0.380	-0.670	-1.050
2020/01/31 17:16:40.3	357.210	0.370	-0.610	-1.050
2020/01/31 17:16:40.4	357.250	0.350	-0.560	-1.040
2020/01/31 17:16:40.5	357.280	0.340	-0.500	-1.030
2020/01/31 17:16:40.6	357.320	0.330	-0.450	-1.020
2020/01/31 17:16:40.7	357.350	0.320	-0.400	-1.010
2020/01/31 17:16:40.8	357.380	0.310	-0.360	-0.980
2020/01/31 17:16:40.9	357.410	0.290	-0.310	-0.960
2020/01/31 17:16:41.0	357.440	0.280	-0.270	-0.940
2020/01/31 17:16:41.1	357.470	0.270	-0.230	-0.920
2020/01/31 17:16:41.2	357.500	0.250	-0.200	-0.900
2020/01/31 17:16:41.3	357.530	0.240	-0.170	-0.880
2020/01/31 17:16:41.4	357.560	0.220	-0.140	-0.860
2020/01/31 17:16:41.5	357.590	0.200	-0.120	-0.840
2020/01/31 17:16:41.6	357.610	0.190	-0.100	-0.820
2020/01/31 17:16:41.7	357.640	0.170	-0.090	-0.810
2020/01/31 17:16:41.8	357.690	0.150	-0.070	-0.780
2020/01/31 17:16:41.9	357.710	0.130	-0.060	-0.770
2020/01/31 17:16:42.0	357.740	0.110	-0.060	-0.750
2020/01/31 17:16:42.1	357.770	0.090	-0.050	-0.740
2020/01/31 17:16:42.2	357.790	0.070	-0.050	-0.730
2020/01/31 17:16:42.3	357.820	0.040	-0.050	-0.710
2020/01/31 17:16:42.4	357.840	0.020	-0.050	-0.700
2020/01/31 17:16:42.5	357.860	-0.010	-0.040	-0.690
2020/01/31 17:16:42.6	357.880	-0.030	-0.040	-0.680
2020/01/31 17:16:42.7	357.900	-0.060	-0.040	-0.670
2020/01/31 17:16:42.8	357.900	-0.090	-0.030	-0.660
2020/01/31 17:16:42.9	357.910	-0.120	-0.030	-0.650
2020/01/31 17:16:43.0	357.920	-0.150	-0.020	-0.640
2020/01/31 17:16:43.1	357.930	-0.190	-0.010	-0.630
2020/01/31 17:16:43.2	357.940	-0.220	0.010	-0.620
2020/01/31 17:16:43.3	357.940	-0.250	0.030	-0.610
2020/01/31 17:16:43.4	357.940	-0.290	0.040	-0.600
2020/01/31 17:16:43.5	357.940	-0.320	0.070	-0.590
2020/01/31 17:16:43.6	357.940	-0.360	0.090	-0.580
2020/01/31 17:16:43.7	357.940	-0.390	0.120	-0.570
2020/01/31 17:16:43.8	357.940	-0.430	0.150	-0.560
2020/01/31 17:16:43.9	357.930	-0.460	0.180	-0.550
2020/01/31 17:16:44.0	357.920	-0.490	0.210	-0.550
2020/01/31 17:16:44.1	357.910	-0.530	0.250	-0.540
2020/01/31 17:16:44.2	357.900	-0.560	0.280	-0.530
2020/01/31 17:16:44.3	357.880	-0.590	0.320	-0.520
2020/01/31 17:16:44.4	357.870	-0.620	0.350	-0.510
2020/01/31 17:16:44.5	357.850	-0.640	0.380	-0.500
2020/01/31 17:16:44.6	357.830	-0.670	0.420	-0.490
2020/01/31 17:16:44.7	357.810	-0.690	0.450	-0.480
2020/01/31 17:16:44.8	357.790	-0.710	0.470	-0.470
2020/01/31 17:16:44.9	357.770	-0.720	0.500	-0.470
2020/01/31 17:16:45.0	357.740	-0.740	0.520	-0.460
2020/01/31 17:16:45.1	357.720	-0.750	0.540	-0.450
2020/01/31 17:16:45.2	357.700	-0.750	0.550	-0.450
2020/01/31 17:16:45.3	357.670	-0.750	0.560	-0.440
2020/01/31 17:16:45.4	357.650	-0.750	0.560	-0.440
2020/01/31 17:16:45.5	357.620	-0.750	0.560	-0.440
2020/01/31 17:16:45.6	357.600	-0.740	0.550	-0.440
2020/01/31 17:16:45.7	357.570	-0.730	0.540	-0.440
2020/01/31 17:16:45.8	357.550	-0.710	0.530	-0.440
2020/01/31 17:16:45.9	357.520	-0.700	0.510	-0.440
2020/01/31 17:16:46.0	357.500	-0.670	0.480	-0.440
2020/01/31 17:16:46.1	357.480	-0.650	0.450	-0.450
2020/01/31 17:16:46.2	357.460	-0.620	0.410	-0.450
2020/01/31 17:16:46.3	357.440	-0.590	0.370	-0.460
2020/01/31 17:16:46.4	357.420	-0.550	0.320	-0.460
2020/01/31 17:16:46.5	357.410	-0.520	0.270	-0.470
2020/01/31 17:16:46.6	357.390	-0.480	0.220	-0.480
2020/01/31 17:16:46.7	357.380	-0.430	0.160	-0.490
2020/01/31 17:16:46.8	357.360	-0.390	0.100	-0.490
2020/01/31 17:16:46.9	357.350	-0.340	0.030	-0.500
2020/01/31 17:16:47.0	357.350	-0.300	-0.040	-0.510
2020/01/31 17:16:47.1	357.340	-0.250	-0.110	-0.520
2020/01/31 17:16:47.2	357.340	-0.200	-0.180	-0.540
2020/01/31 17:16:47.3	357.350	-0.140	-0.250	-0.550
2020/01/31 17:16:47.4	357.350	-0.090	-0.320	-0.560
2020/01/31 17:16:47.5	357.360	-0.040	-0.390	-0.570
2020/01/31 17:16:47.6	357.370	0.010	-0.470	-0.590
2020/01/31 17:16:47.7	357.390	0.060	-0.540	-0.610
2020/01/31 17:16:47.8	357.400	0.110	-0.610	-0.620
2020/01/31 17:16:47.9	357.430	0.160	-0.670	-0.640
2020/01/31 17:16:48.0	357.450	0.210	-0.740	-0.660
2020/01/31 17:16:48.1	357.470	0.260	-0.800	-0.690
2020/01/31 17:16:48.2	357.500	0.300	-0.860	-0.710
2020/01/31 17:16:48.3	357.530	0.350	-0.920	-0.730
2020/01/31 17:16:48.4	357.560	0.390	-0.960	-0.760
2020/01/31 17:16:48.5	357.600	0.430	-1.010	-0.780
2020/01/31 17:16:48.6	357.630	0.460	-1.050	-0.800
2020/01/31 17:16:48.7	357.660	0.500	-1.080	-0.810
2020/01/31 17:16:48.8	357.690	0.530	-1.110	-0.830
2020/01/31 17:16:48.9	357.720	0.550	-1.140	-0.840
2020/01/31 17:16:49.0	357.750	0.580	-1.150	-0.850
2020/01/31 17:16:49.1	357.780	0.600	-1.160	-0.860
2020/01/31 17:16:49.2	357.810	0.610	-1.160	-0.860
2020/01/31 17:16:49.3	357.830	0.620	-1.150	-0.850
2020/01/31 17:16:49.4	357.850	0.630	-1.140	-0.840
2020/01/31 17:16:49.5	357.870	0.630	-1.110	-0.830
2020/01/31 17:16:49.6	357.890	0.630	-1.090	-0.810
2020/01/31 17:16:49.7	357.900	0.630	-1.050	-0.790
2020/01/31 17:16:49.8	357.920	0.620	-1.010	-0.760
2020/01/31 17:16:49.9	357.930	0.610	-0.960	-0.730
2020/01/31 17:16:50.0	357.930	0.590	-0.910	-0.690
2020/01/31 17:16:50.1	357.940	0.570	-0.850	-0.660
2020/01/31 17:16:50.2	357.940	0.550	-0.790	-0.620
2020/01/31 17:16:50.3	357.940	0.520	-0.730	-0.590
2020/01/31 17:16:50.4	357.940	0.490	-0.660	-0.550
2020/01/31 17:16:50.5	357.940	0.460	-0.600	-0.510
2020/01/31 17:16:50.6	357.930	0.430	-0.530	-0.470
2020/01/31 17:16:50.7	357.930	0.390	-0.460	-0.430
2020/01/31 17:16:50.8	357.920	0.350	-0.390	-0.390
2020/01/31 17:16:50.9	357.910	0.310	-0.320	-0.360
2020/01/31 17:16:51.0	357.910	0.270	-0.260	-0.330
2020/01/31 17:16:51.1	357.900	0.230	-0.200	-0.300
2020/01/31 17:16:51.2	357.900	0.190	-0.140	-0.280
2020/01/31 17:16:51.3	357.890	0.150	-0.080	-0.250
2020/01/31 17:16:51.4	357.890	0.110	-0.030	-0.230
2020/01/31 17:16:51.5	357.890	0.070	0.020	-0.220
2020/01/31 17:16:51.6	357.890	0.030	0.060	-0.210
2020/01/31 17:16:51.7	357.890	-0.010	0.100	-0.200
2020/01/31 17:16:51.8	357.880	-0.040	0.130	-0.200
2020/01/31 17:16:51.9	357.890	-0.080	0.150	-0.200
2020/01/31 17:16:52.0	357.890	-0.110	0.170	-0.200
2020/01/31 17:16:52.1	357.890	-0.140	0.190	-0.210
2020/01/31 17:16:52.2	357.900	-0.160	0.190	-0.220
2020/01/31 17:16:52.3	357.900	-0.180	0.200	-0.230
2020/01/31 17:16:52.4	357.910	-0.200	0.190	-0.250
2020/01/31 17:16:52.5	357.920	-0.220	0.190	-0.260
2020/01/31 17:16:52.6	357.930	-0.230	0.170	-0.280
2020/01/31 17:16:52.7	357.940	-0.240	0.160	-0.300
2020/01/31 17:16:52.8	357.960	-0.250	0.140	-0.310
2020/01/31 17:16:52.9	357.960	-0.260	0.120	-0.330
2020/01/31 17:16:53.0	357.970	-0.260	0.090	-0.350
2020/01/31 17:16:53.1	357.980	-0.250	0.060	-0.370
2020/01/31 17:16:53.2	357.990	-0.250	0.030	-0.380
2020/01/31 17:16:53.3	358.000	-0.240	0.000	-0.400
2020/01/31 17:16:53.4	358.010	-0.230	-0.030	-0.420
2020/01/31 17:16:53.5	358.020	-0.220	-0.060	-0.440
2020/01/31 17:16:53.6	358.030	-0.200	-0.100	-0.450
2020/01/31 17:16:53.7	358.040	-0.180	-0.130	-0.470
2020/01/31 17:16:53.8	358.060	-0.160	-0.160	-0.490
2020/01/31 17:16:53.9	358.070	-0.140	-0.190	-0.500
2020/01/31 17:16:54.0	358.080	-0.120	-0.220	-0.510
2020/01/31 17:16:54.1	358.100	-0.090	-0.250	-0.530
2020/01/31 17:16:54.2	358.110	-0.070	-0.280	-0.540
2020/01/31 17:16:54.3	358.130	-0.040	-0.300	-0.560
2020/01/31 17:16:54.4	358.140	-0.010	-0.330	-0.570
2020/01/31 17:16:54.5	358.160	0.020	-0.350	-0.580
2020/01/31 17:16:54.6	358.180	0.050	-0.370	-0.590
2020/01/31 17:16:54.7	358.190	0.080	-0.380	-0.600
2020/01/31 17:16:54.8	358.200	0.110	-0.400	-0.610
2020/01/31 17:16:54.9	358.220	0.140	-0.410	-0.610
2020/01/31 17:16:55.0	358.240	0.170	-0.410	-0.610
2020/01/31 17:16:55.1	358.250	0.200	-0.420	-0.610
2020/01/31 17:16:55.2	358.270	0.230	-0.420	-0.610
2020/01/31 17:16:55.3	358.280	0.250	-0.420	-0.610
2020/01/31 17:16:55.4	358.290	0.280	-0.420	-0.610
2020/01/31 17:16:55.5	358.300	0.300	-0.410	-0.600
2020/01/31 17:16:55.6	358.310	0.320	-0.400	-0.590
2020/01/31 17:16:55.7	358.320	0.330	-0.390	-0.580
2020/01/31 17:16:55.8	358.320	0.350	-0.380	-0.560
2020/01/31 17:16:55.9	358.330	0.360	-0.370	-0.550
2020/01/31 17:16:56.0	358.330	0.370	-0.350	-0.530
2020/01/31 17:16:56.1	358.340	0.370	-0.330	-0.520
2020/01/31 17:16:56.2	358.340	0.380	-0.320	-0.500
2020/01/31 17:16:56.3	358.350	0.380	-0.300	-0.480
2020/01/31 17:16:56.4	358.350	0.380	-0.280	-0.470
2020/01/31 17:16:56.5	358.350	0.370	-0.260	-0.450
2020/01/31 17:16:56.6	358.360	0.360	-0.240	-0.440
2020/01/31 17:16:56.7	358.360	0.350	-0.220	-0.430
2020/01/31 17:16:56.8	358.380	0.340	-0.200	-0.420
2020/01/31 17:16:56.9	358.390	0.320	-0.180	-0.410
2020/01/31 17:16:57.0	358.400	0.300	-0.170	-0.400
2020/01/31 17:16:57.1	358.410	0.280	-0.150	-0.400
2020/01/31 17:16:57.2	358.420	0.260	-0.140	-0.400
2020/01/31 17:16:57.3	358.430	0.240	-0.130	-0.400
2020/01/31 17:16:57.4	358.440	0.220	-0.120	-0.410
2020/01/31 17:16:57.5	358.460	0.190	-0.110	-0.410
2020/01/31 17:16:57.6	358.470	0.170	-0.110	-0.420
2020/01/31 17:16:57.7	358.490	0.140	-0.100	-0.440
2020/01/31 17:16:57.8	358.520	0.110	-0.100	-0.450
2020/01/31 17:16:57.9	358.540	0.090	-0.100	-0.470
2020/01/31 17:16:58.0	358.560	0.060	-0.100	-0.490
2020/01/31 17:16:58.1	358.580	0.030	-0.100	-0.510
2020/01/31 17:16:58.2	358.600	0.000	-0.100	-0.530
2020/01/31 17:16:58.3	358.620	-0.020	-0.110	-0.560
2020/01/31 17:16:58.4	358.640	-0.050	-0.110	-0.580
2020/01/31 17:16:58.5	358.660	-0.080	-0.110	-0.600
2020/01/31 17:16:58.6	358.670	-0.100	-0.120	-0.620
2020/01/31 17:16:58.7	358.690	-0.130	-0.120	-0.630
2020/01/31 17:16:58.8	358.710	-0.150	-0.110	-0.650
2020/01/31 17:16:58.9	358.720	-0.180	-0.110	-0.660
2020/01/31 17:16:59.0	358.720	-0.200	-0.110	-0.670
2020/01/31 17:16:59.1	358.720	-0.230	-0.100	-0.670
2020/01/31 17:16:59.2	358.720	-0.250	-0.100	-0.670
2020/01/31 17:16:59.3	358.720	-0.280	-0.090	-0.670
2020/01/31 17:16:59.4	358.710	-0.300	-0.070	-0.670
2020/01/31 17:16:59.5	358.690	-0.330	-0.060	-0.660
2020/01/31 17:16:59.6	358.670	-0.350	-0.050	-0.650
2020/01/31 17:16:59.7	358.650	-0.370	-0.030	-0.640
2020/01/31 17:16:59.8	358.640	-0.390	-0.020	-0.620
2020/01/31 17:16:59.9	358.620	-0.420	0.000	-0.610
2020/01/31 17:17:00.0	358.590	-0.440	0.020	-0.590
2020/01/31 17:17:00.1	358.570	-0.450	0.030	-0.570
2020/01/31 17:17:00.2	358.540	-0.470	0.050	-0.560
2020/01/31 17:17:00.3	358.510	-0.490	0.060	-0.540
2020/01/31 17:17:00.4	358.480	-0.500	0.070	-0.520
2020/01/31 17:17:00.5	358.450	-0.510	0.080	-0.500
2020/01/31 17:17:00.6	358.420	-0.520	0.090	-0.480
2020/01/31 17:17:00.7	358.390	-0.530	0.090	-0.460
2020/01/31 17:17:00.8	358.360	-0.530	0.090	-0.450
2020/01/31 17:17:00.9	358.330	-0.540	0.090	-0.430
2020/01/31 17:17:01.0	358.310	-0.530	0.080	-0.420
2020/01/31 17:17:01.1	358.290	-0.530	0.060	-0.410
2020/01/31 17:17:01.2	358.270	-0.520	0.040	-0.400
2020/01/31 17:17:01.3	358.260	-0.510	0.010	-0.390
2020/01/31 17:17:01.4	358.250	-0.490	-0.020	-0.380
2020/01/31 17:17:01.5	358.240	-0.470	-0.060	-0.380
2020/01/31 17:17:01.6	358.230	-0.440	-0.100	-0.370
2020/01/31 17:17:01.7	358.230	-0.420	-0.150	-0.360
2020/01/31 17:17:01.8	358.230	-0.390	-0.200	-0.360
2020/01/31 17:17:01.9	358.220	-0.350	-0.250	-0.350
2020/01/31 17:17:02.0	358.220	-0.310	-0.300	-0.340
2020/01/31 17:17:02.1	358.220	-0.270	-0.360	-0.340
2020/01/31 17:17:02.2	358.220	-0.230	-0.410	-0.330
2020/01/31 17:17:02.3	358.230	-0.190	-0.460	-0.320
2020/01/31 17:17:02.4	358.230	-0.140	-0.510	-0.310
2020/01/31 17:17:02.5	358.230	-0.100	-0.560	-0.300
2020/01/31 17:17:02.6	358.230	-0.050	-0.610	-0.300
2020/01/31 17:17:02.7	358.230	-0.000	-0.650	-0.290
2020/01/31 17:17:02.8	358.230	0.040	-0.690	-0.280
2020/01/31 17:17:02.9	358.230	0.090	-0.720	-0.260
2020/01/31 17:17:03.0	358.240	0.130	-0.750	-0.250
2020/01/31 17:17:03.1	358.240	0.170	-0.770	-0.240
2020/01/31 17:17:03.2	358.240	0.210	-0.790	-0.230
2020/01/31 17:17:03.3	358.240	0.250	-0.800	-0.220
2020/01/31 17:17:03.4	358.240	0.280	-0.800	-0.210
2020/01/31 17:17:03.5	358.240	0.310	-0.800	-0.200
2020/01/31 17:17:03.6	358.240	0.340	-0.800	-0.180
2020/01/31 17:17:03.7	358.240	0.360	-0.780	-0.170
2020/01/31 17:17:03.8	358.230	0.380	-0.770	-0.160
2020/01/31 17:17:03.9	358.230	0.390	-0.750	-0.140
2020/01/31 17:17:04.0	358.230	0.400	-0.720	-0.130
2020/01/31 17:17:04.1	358.220	0.410	-0.690	-0.120
2020/01/31 17:17:04.2	358.220	0.410	-0.660	-0.100
2020/01/31 17:17:04.3	358.220	0.400	-0.620	-0.090
2020/01/31 17:17:04.4	358.220	0.400	-0.580	-0.080
2020/01/31 17:17:04.5	358.220	0.390	-0.550	-0.070
2020/01/31 17:17:04.6	358.220	0.370	-0.510	-0.060
2020/01/31 17:17:04.7	358.220	0.350	-0.470	-0.050
2020/01/31 17:17:04.8	358.230	0.330	-0.430	-0.050
2020/01/31 17:17:04.9	358.240	0.310	-0.390	-0.040
2020/01/31 17:17:05.0	358.250	0.280	-0.350	-0.040
2020/01/31 17:17:05.1	358.260	0.260	-0.320	-0.050
2020/01/31 17:17:05.2	358.270	0.230	-0.280	-0.050
2020/01/31 17:17:05.3	358.280	0.200	-0.260	-0.060
2020/01/31 17:17:05.4	358.300	0.170	-0.230	-0.070
2020/01/31 17:17:05.5	358.320	0.140	-0.210	-0.080
2020/01/31 17:17:05.6	358.340	0.110	-0.190	-0.100
2020/01/31 17:17:05.7	358.360	0.090	-0.170	-0.110
2020/01/31 17:17:05.8	358.400	0.060	-0.150	-0.130
2020/01/31 17:17:05.9	358.430	0.040	-0.150	-0.150
2020/01/31 17:17:06.0	358.450	0.020	-0.140	-0.170
2020/01/31 17:17:06.1	358.480	-0.000	-0.140	-0.190
2020/01/31 17:17:06.2	358.510	-0.020	-0.140	-0.210
2020/01/31 17:17:06.3	358.540	-0.030	-0.140	-0.240
2020/01/31 17:17:06.4	358.570	-0.040	-0.140	-0.260
2020/01/31 17:17:06.5	358.600	-0.050	-0.150	-0.280
2020/01/31 17:17:06.6	358.620	-0.050	-0.160	-0.300
2020/01/31 17:17:06.7	358.640	-0.050	-0.170	-0.320
2020/01/31 17:17:06.8	358.670	-0.050	-0.170	-0.330
2020/01/31 17:17:06.9	358.690	-0.040	-0.180	-0.330
2020/01/31 17:17:07.0	358.700	-0.040	-0.190	-0.340
2020/01/31 17:17:07.1	358.710	-0.020	-0.190	-0.340
2020/01/31 17:17:07.2	358.710	-0.010	-0.200	-0.330
2020/01/31 17:17:07.3	358.710	0.010	-0.200	-0.320
2020/01/31 17:17:07.4	358.710	0.020	-0.200	-0.310
2020/01/31 17:17:07.5	358.700	0.040	-0.200	-0.290
2020/01/31 17:17:07.6	358.680	0.060	-0.190	-0.270
2020/01/31 17:17:07.7	358.670	0.080	-0.180	-0.250
2020/01/31 17:17:07.8	358.650	0.100	-0.180	-0.220
2020/01/31 17:17:07.9	358.620	0.130	-0.170	-0.200
2020/01/31 17:17:08.0	358.600	0.150	-0.150	-0.170
2020/01/31 17:17:08.1	358.570	0.170	-0.140	-0.150
2020/01/31 17:17:08.2	358.540	0.190	-0.120	-0.120
2020/01/31 17:17:08.3	358.510	0.210	-0.100	-0.100
2020/01/31 17:17:08.4	358.480	0.220	-0.080	-0.070
2020/01/31 17:17:08.5	358.450	0.240	-0.060	-0.050
2020/01/31 17:17:08.6	358.410	0.250	-0.040	-0.030
2020/01/31 17:17:08.7	358.380	0.260	-0.020	-0.010
2020/01/31 17:17:08.8	358.350	0.270	-0.000	0.010
2020/01/31 17:17:08.9	358.320	0.280	0.020	0.020
2020/01/31 17:17:09.0	358.290	0.290	0.030	0.030
2020/01/31 17:17:09.1	358.260	0.290	0.050	0.040
2020/01/31 17:17:09.2	358.230	0.290	0.060	0.040
2020/01/31 17:17:09.3	358.210	0.290	0.070	0.040
2020/01/31 17:17:09.4	358.190	0.280	0.080	0.040
2020/01/31 17:17:09.5	358.170	0.280	0.080	0.040
2020/01/31 17:17:09.6	358.150	0.270	0.080	0.030
2020/01/31 17:17:09.7	358.140	0.250	0.070	0.010
2020/01/31 17:17:09.8	358.130	0.240	0.060	-0.000
2020/01/31 17:17:09.9	358.110	0.220	0.050	-0.020
2020/01/31 17:17:10.0	358.100	0.200	0.040	-0.050
2020/01/31 17:17:10.1	358.100	0.180	0.020	-0.080
2020/01/31 17:17:10.2	358.090	0.150	-0.000	-0.110
2020/01/31 17:17:10.3	358.080	0.130	-0.030	-0.140
2020/01/31 17:17:10.4	358.080	0.100	-0.050	-0.180
2020/01/31 17:17:10.5	358.080	0.070	-0.080	-0.220
2020/01/31 17:17:10.6	358.080	0.040	-0.120	-0.260
2020/01/31 17:17:10.7	358.080	0.010	-0.150	-0.310
2020/01/31 17:17:10.8	358.080	-0.030	-0.190	-0.360
2020/01/31 17:17:10.9	358.090	-0.060	-0.230	-0.410
2020/01/31 17:17:11.0	358.100	-0.100	-0.270	-0.470
2020/01/31 17:17:11.1	358.110	-0.130	-0.310	-0.530
2020/01/31 17:17:11.2	358.120	-0.170	-0.350	-0.590
2020/01/31 17:17:11.3	358.130	-0.210	-0.390	-0.650
2020/01/31 17:17:11.4	358.150	-0.250	-0.430	-0.720
2020/01/31 17:17:11.5	358.160	-0.280	-0.470	-0.790
2020/01/31 17:17:11.6	358.180	-0.320	-0.510	-0.850
2020/01/31 17:17:11.7	358.210	-0.350	-0.550	-0.920
2020/01/31 17:17:11.8	358.230	-0.390	-0.590	-0.990
2020/01/31 17:17:11.9	358.260	-0.420	-0.630	-1.060
2020/01/31 17:17:12.0	358.290	-0.450	-0.660	-1.130
2020/01/31 17:17:12.1	358.320	-0.470	-0.690	-1.200
2020/01/31 17:17:12.2	358.350	-0.500	-0.720	-1.260
2020/01/31 17:17:12.3	358.390	-0.520	-0.750	-1.320
2020/01/31 17:17:12.4	358.430	-0.540	-0.770	-1.380
2020/01/31 17:17:12.5	358.460	-0.550	-0.790	-1.440
2020/01/31 17:17:12.6	358.500	-0.570	-0.800	-1.490
2020/01/31 17:17:12.7	358.540	-0.570	-0.810	-1.530
2020/01/31 17:17:12.8	358.590	-0.580	-0.810	-1.580
2020/01/31 17:17:12.9	358.630	-0.580	-0.800	-1.610
2020/01/31 17:17:13.0	358.670	-0.570	-0.790	-1.640
2020/01/31 17:17:13.1	358.710	-0.570	-0.780	-1.660
2020/01/31 17:17:13.2	358.750	-0.560	-0.760	-1.680
2020/01/31 17:17:13.3	358.780	-0.540	-0.730	-1.690
2020/01/31 17:17:13.4	358.820	-0.530	-0.700	-1.690
2020/01/31 17:17:13.5	358.850	-0.500	-0.660	-1.690
2020/01/31 17:17:13.6	358.880	-0.480	-0.610	-1.670
2020/01/31 17:17:13.7	358.910	-0.460	-0.570	-1.650
2020/01/31 17:17:13.8	358.930	-0.430	-0.510	-1.620
2020/01/31 17:17:13.9	358.950	-0.400	-0.450	-1.580
2020/01/31 17:17:14.0	358.960	-0.370	-0.390	-1.530
2020/01/31 17:17:14.1	358.970	-0.330	-0.320	-1.480
2020/01/31 17:17:14.2	358.970	-0.300	-0.260	-1.420
2020/01/31 17:17:14.3	358.970	-0.270	-0.190	-1.360
2020/01/31 17:17:14.4	358.960	-0.230	-0.120	-1.290
2020/01/31 17:17:14.5	358.940	-0.200	-0.050	-1.220
2020/01/31 17:17:14.6	358.930	-0.160	0.020	-1.140
2020/01/31 17:17:14.7	358.900	-0.130	0.090	-1.060
2020/01/31 17:17:14.8	358.880	-0.100	0.150	-0.970
2020/01/31 17:17:14.9	358.850	-0.070	0.210	-0.880
2020/01/31 17:17:15.0	358.820	-0.030	0.270	-0.800
2020/01/31 17:17:15.1	358.780	-0.000	0.330	-0.720
2020/01/31 17:17:15.2	358.750	0.020	0.380	-0.640
2020/01/31 17:17:15.3	358.710	0.050	0.420	-0.560
2020/01/31 17:17:15.4	358.670	0.070	0.460	-0.480
2020/01/31 17:17:15.5	358.620	0.100	0.490	-0.410
2020/01/31 17:17:15.6	358.580	0.120	0.520	-0.340
2020/01/31 17:17:15.7	358.540	0.140	0.540	-0.270
2020/01/31 17:17:15.8	358.500	0.160	0.550	-0.200
2020/01/31 17:17:15.9	358.460	0.170	0.560	-0.150
2020/01/31 17:17:16.0	358.430	0.190	0.560	-0.090
2020/01/31 17:17:16.1	358.390	0.200	0.550	-0.040
2020/01/31 17:17:16.2	358.360	0.210	0.530	0.000
2020/01/31 17:17:16.3	358.320	0.220	0.510	0.040
2020/01/31 17:17:16.4	358.300	0.230	0.480	0.080
2020/01/31 17:17:16.5	358.270	0.240	0.440	0.100
2020/01/31 17:17:16.6	358.250	0.250	0.400	0.130
2020/01/31 17:17:16.7	358.240	0.260	0.350	0.140
2020/01/31 17:17:16.8	358.220	0.270	0.300	0.150
2020/01/31 17:17:16.9	358.210	0.280	0.240	0.160
2020/01/31 17:17:17.0	358.200	0.280	0.170	0.160
2020/01/31 17:17:17.1	358.200	0.290	0.100	0.160
2020/01/31 17:17:17.2	358.200	0.300	0.030	0.150
2020/01/31 17:17:17.3	358.200	0.300	-0.050	0.140
2020/01/31 17:17:17.4	358.210	0.310	-0.130	0.120
2020/01/31 17:17:17.5	358.210	0.310	-0.210	0.100
2020/01/31 17:17:17.6	358.220	0.320	-0.290	0.070
2020/01/31 17:17:17.7	358.240	0.320	-0.370	0.040
2020/01/31 17:17:17.8	358.250	0.330	-0.460	0.010
2020/01/31 17:17:17.9	358.270	0.330	-0.540	-0.020
2020/01/31 17:17:18.0	358.280	0.330	-0.610	-0.060
2020/01/31 17:17:18.1	358.300	0.340	-0.690	-0.100
2020/01/31 17:17:18.2	358.310	0.340	-0.760	-0.140
2020/01/31 17:17:18.3	358.330	0.340	-0.830	-0.190
2020/01/31 17:17:18.4	358.350	0.340	-0.890	-0.230
2020/01/31 17:17:18.5	358.360	0.340	-0.940	-0.270
2020/01/31 17:17:18.6	358.380	0.340	-0.990	-0.310
2020/01/31 17:17:18.7	358.390	0.340	-1.030	-0.350
2020/01/31 17:17:18.8	358.400	0.340	-1.060	-0.390
2020/01/31 17:17:18.9	358.420	0.340	-1.090	-0.430
2020/01/31 17:17:19.0	358.430	0.340	-1.100	-0.460
2020/01/31 17:17:19.1	358.440	0.330	-1.110	-0.490
2020/01/31 17:17:19.2	358.450	0.330	-1.120	-0.510
2020/01/31 17:17:19.3	358.460	0.320	-1.110	-0.530
2020/01/31 17:17:19.4	358.470	0.320	-1.100	-0.550
2020/01/31 17:17:19.5	358.480	0.310	-1.080	-0.560
2020/01/31 17:17:19.6	358.490	0.300	-1.050	-0.570
2020/01/31 17:17:19.7	358.490	0.290	-1.020	-0.580
2020/01/31 17:17:19.8	358.500	0.280	-0.980	-0.590
2020/01/31 17:17:19.9	358.510	0.270	-0.940	-0.590
2020/01/31 17:17:20.0	358.510	0.260	-0.890	-0.600
2020/01/31 17:17:20.1	358.520	0.240	-0.850	-0.600
2020/01/31 17:17:20.2	358.520	0.230	-0.800	-0.610
2020/01/31 17:17:20.3	358.530	0.210	-0.740	-0.610
2020/01/31 17:17:20.4	358.540	0.190	-0.690	-0.610
2020/01/31 17:17:20.5	358.540	0.170	-0.640	-0.610
2020/01/31 17:17:20.6	358.550	0.160	-0.590	-0.620
2020/01/31 17:17:20.7	358.560	0.140	-0.540	-0.620
2020/01/31 17:17:20.8	358.570	0.120	-0.490	-0.620
2020/01/31 17:17:20.9	358.580	0.100	-0.440	-0.630
2020/01/31 17:17:21.0	358.590	0.080	-0.400	-0.640
2020/01/31 17:17:21.1	358.610	0.060	-0.360	-0.650
2020/01/31 17:17:21.2	358.620	0.040	-0.320	-0.660
2020/01/31 17:17:21.3	358.640	0.020	-0.290	-0.670
2020/01/31 17:17:21.4	358.660	-0.000	-0.260	-0.680
2020/01/31 17:17:21.5	358.680	-0.020	-0.240	-0.690
2020/01/31 17:17:21.6	358.700	-0.040	-0.220	-0.700
2020/01/31 17:17:21.7	358.710	-0.060	-0.200	-0.710
2020/01/31 17:17:21.8	358.740	-0.080	-0.190	-0.730
2020/01/31 17:17:21.9	358.750	-0.100	-0.170	-0.730
2020/01/31 17:17:22.0	358.770	-0.120	-0.160	-0.740
2020/01/31 17:17:22.1	358.790	-0.130	-0.150	-0.750
2020/01/31 17:17:22.2	358.800	-0.150	-0.140	-0.750
2020/01/31 17:17:22.3	358.810	-0.170	-0.130	-0.750
2020/01/31 17:17:22.4	358.820	-0.190	-0.120	-0.750
2020/01/31 17:17:22.5	358.830	-0.210	-0.120	-0.750
2020/01/31 17:17:22.6	358.840	-0.220	-0.110	-0.740
2020/01/31 17:17:22.7	358.840	-0.240	-0.100	-0.730
2020/01/31 17:17:22.8	358.830	-0.260	-0.090	-0.720
2020/01/31 17:17:22.9	358.830	-0.280	-0.080	-0.710
2020/01/31 17:17:23.0	358.820	-0.290	-0.070	-0.690
2020/01/31 17:17:23.1	358.820	-0.310	-0.060	-0.680
2020/01/31 17:17:23.2	358.810	-0.330	-0.050	-0.660
2020/01/31 17:17:23.3	358.800	-0.350	-0.040	-0.650
2020/01/31 17:17:23.4	358.790	-0.360	-0.040	-0.640
2020/01/31 17:17:23.5	358.780	-0.380	-0.030	-0.620
2020/01/31 17:17:23.6	358.760	-0.400	-0.020	-0.610
2020/01/31 17:17:23.7	358.750	-0.410	-0.010	-0.600
2020/01/31 17:17:23.8	358.740	-0.420	-0.000	-0.590
2020/01/31 17:17:23.9	358.730	-0.440	0.010	-0.570
2020/01/31 17:17:24.0	358.720	-0.450	0.020	-0.560
2020/01/31 17:17:24.1	358.710	-0.460	0.020	-0.550
2020/01/31 17:17:24.2	358.700	-0.470	0.030	-0.540
2020/01/31 17:17:24.3	358.690	-0.470	0.040	-0.520
2020/01/31 17:17:24.4	358.680	-0.480	0.050	-0.510
2020/01/31 17:17:24.5	358.670	-0.480	0.060	-0.500
2020/01/31 17:17:24.6	358.660	-0.480	0.070	-0.490
2020/01/31 17:17:24.7	358.660	-0.480	0.080	-0.480
2020/01/31 17:17:24.8	358.650	-0.480	0.090	-0.460
2020/01/31 17:17:24.9	358.650	-0.470	0.090	-0.450
2020/01/31 17:17:25.0	358.650	-0.460	0.100	-0.430
2020/01/31 17:17:25.1	358.650	-0.450	0.110	-0.420
2020/01/31 17:17:25.2	358.650	-0.440	0.120	-0.410
2020/01/31 17:17:25.3	358.650	-0.420	0.120	-0.390
2020/01/31 17:17:25.4	358.650	-0.400	0.130	-0.380
2020/01/31 17:17:25.5	358.650	-0.380	0.140	-0.370
2020/01/31 17:17:25.6	358.660	-0.360	0.140	-0.360
2020/01/31 17:17:25.7	358.660	-0.340	0.150	-0.340
2020/01/31 17:17:25.8	358.670	-0.310	0.150	-0.330
2020/01/31 17:17:25.9	358.670	-0.290	0.150	-0.320
2020/01/31 17:17:26.0	358.680	-0.260	0.160	-0.310
2020/01/31 17:17:26.1	358.680	-0.230	0.160	-0.300
2020/01/31 17:17:26.2	358.690	-0.200	0.160	-0.290
2020/01/31 17:17:26.3	358.690	-0.170	0.160	-0.280
2020/01/31 17:17:26.4	358.690	-0.140	0.160	-0.270
2020/01/31 17:17:26.5	358.690	-0.110	0.150	-0.260
2020/01/31 17:17:26.6	358.700	-0.070	0.150	-0.240
2020/01/31 17:17:26.7	358.700	-0.040	0.140	-0.230
2020/01/31 17:17:26.8	358.690	-0.010	0.140	-0.220
2020/01/31 17:17:26.9	358.690	0.030	0.130	-0.200
2020/01/31 17:17:27.0	358.690	0.060	0.120	-0.190
2020/01/31 17:17:27.1	358.680	0.090	0.110	-0.170
2020/01/31 17:17:27.2	358.670	0.130	0.100	-0.150
2020/01/31 17:17:27.3	358.660	0.160	0.090	-0.130
2020/01/31 17:17:27.4	358.650	0.190	0.080	-0.110
2020/01/31 17:17:27.5	358.640	0.210	0.070	-0.090
2020/01/31 17:17:27.6	358.620	0.240	0.050	-0.070
2020/01/31 17:17:27.7	358.600	0.270	0.040	-0.040
2020/01/31 17:17:27.8	358.590	0.290	0.030	-0.020
2020/01/31 17:17:27.9	358.560	0.310	0.010	0.010
2020/01/31 17:17:28.0	358.540	0.330	-0.000	0.030
2020/01/31 17:17:28.1	358.510	0.350	-0.020	0.050
2020/01/31 17:17:28.2	358.490	0.360	-0.040	0.070
2020/01/31 17:17:28.3	358.460	0.370	-0.060	0.090
2020/01/31 17:17:28.4	358.430	0.380	-0.080	0.100
2020/01/31 17:17:28.5	358.390	0.390	-0.110	0.110
2020/01/31 17:17:28.6	358.360	0.390	-0.130	0.120
2020/01/31 17:17:28.7	358.330	0.400	-0.170	0.120
2020/01/31 17:17:28.8	358.290	0.400	-0.200	0.130
2020/01/31 17:17:28.9	358.260	0.390	-0.240	0.120
2020/01/31 17:17:29.0	358.220	0.390	-0.280	0.100
2020/01/31 17:17:29.1	358.190	0.380	-0.320	0.080
2020/01/31 17:17:29.2	358.160	0.370	-0.370	0.050
2020/01/31 17:17:29.3	358.140	0.360	-0.420	0.010
2020/01/31 17:17:29.4	358.110	0.350	-0.470	-0.040
2020/01/31 17:17:29.5	358.080	0.330	-0.520	-0.090
2020/01/31 17:17:29.6	358.060	0.310	-0.580	-0.140
2020/01/31 17:17:29.7	358.040	0.290	-0.640	-0.200
2020/01/31 17:17:29.8	358.020	0.270	-0.690	-0.270
2020/01/31 17:17:29.9	358.010	0.250	-0.750	-0.340
2020/01/31 17:17:30.0	358.000	0.220	-0.810	-0.410
2020/01/31 17:17:30.1	358.000	0.200	-0.870	-0.480
2020/01/31 17:17:30.2	358.000	0.170	-0.930	-0.560
2020/01/31 17:17:30.3	358.000	0.150	-0.980	-0.640
2020/01/31 17:17:30.4	358.010	0.120	-1.030	-0.720
2020/01/31 17:17:30.5	358.020	0.100	-1.080	-0.800
2020/01/31 17:17:30.6	358.030	0.070	-1.130	-0.890
2020/01/31 17:17:30.7	358.050	0.040	-1.170	-0.970
2020/01/31 17:17:30.8	358.080	0.020	-1.200	-1.050
2020/01/31 17:17:30.9	358.110	-0.010	-1.240	-1.130
2020/01/31 17:17:31.0	358.130	-0.030	-1.260	-1.210
2020/01/31 17:17:31.1	358.160	-0.050	-1.280	-1.280
2020/01/31 17:17:31.2	358.200	-0.080	-1.290	-1.360
2020/01/31 17:17:31.3	358.230	-0.100	-1.290	-1.430
2020/01/31 17:17:31.4	358.260	-0.120	-1.290	-1.490
2020/01/31 17:17:31.5	358.300	-0.140	-1.280	-1.550
2020/01/31 17:17:31.6	358.330	-0.150	-1.250	-1.610
2020/01/31 17:17:31.7	358.370	-0.170	-1.220	-1.650
2020/01/31 17:17:31.8	358.400	-0.190	-1.190	-1.690
2020/01/31 17:17:31.9	358.430	-0.200	-1.140	-1.730
2020/01/31 17:17:32.0	358.470	-0.210	-1.080	-1.750
2020/01/31 17:17:32.1	358.500	-0.220	-1.010	-1.770
2020/01/31 17:17:32.2	358.530	-0.230	-0.940	-1.780
2020/01/31 17:17:32.3	358.550	-0.240	-0.860	-1.780
2020/01/31 17:17:32.4	358.580	-0.240	-0.770	-1.770
2020/01/31 17:17:32.5	358.600	-0.250	-0.670	-1.760
2020/01/31 17:17:32.6	358.610	-0.250	-0.570	-1.730
2020/01/31 17:17:32.7	358.630	-0.250	-0.470	-1.700
2020/01/31 17:17:32.8	358.640	-0.250	-0.360	-1.660
2020/01/31 17:17:32.9	358.650	-0.250	-0.250	-1.620
2020/01/31 17:17:33.0	358.650	-0.250	-0.140	-1.570
2020/01/31 17:17:33.1	358.650	-0.240	-0.030	-1.510
2020/01/31 17:17:33.2	358.650	-0.240	0.080	-1.450
2020/01/31 17:17:33.3	358.650	-0.230	0.180	-1.390
2020/01/31 17:17:33.4	358.640	-0.220	0.280	-1.320
2020/01/31 17:17:33.5	358.630	-0.200	0.370	-1.240
2020/01/31 17:17:33.6	358.620	-0.190	0.460	-1.170
2020/01/31 17:17:33.7	358.600	-0.170	0.540	-1.090
2020/01/31 17:17:33.8	358.600	-0.150	0.610	-1.000
2020/01/31 17:17:33.9	358.580	-0.130	0.670	-0.920
2020/01/31 17:17:34.0	358.560	-0.110	0.720	-0.840
2020/01/31 17:17:34.1	358.550	-0.090	0.760	-0.760
2020/01/31 17:17:34.2	358.530	-0.060	0.780	-0.680
2020/01/31 17:17:34.3	358.510	-0.040	0.800	-0.600
2020/01/31 17:17:34.4	358.490	-0.010	0.800	-0.520
2020/01/31 17:17:34.5	358.480	0.020	0.790	-0.450
2020/01/31 17:17:34.6	358.460	0.050	0.760	-0.380
2020/01/31 17:17:34.7	358.450	0.080	0.730	-0.310
2020/01/31 17:17:34.8	358.440	0.110	0.680	-0.250
2020/01/31 17:17:34.9	358.430	0.150	0.630	-0.190
2020/01/31 17:17:35.0	358.420	0.180	0.560	-0.140
2020/01/31 17:17:35.1	358.410	0.210	0.490	-0.090
2020/01/31 17:17:35.2	358.410	0.250	0.400	-0.050
2020/01/31 17:17:35.3	358.400	0.280	0.310	-0.020
2020/01/31 17:17:35.4	358.400	0.310	0.220	0.000
2020/01/31 17:17:35.5	358.400	0.340	0.110	0.020
2020/01/31 17:17:35.6	358.400	0.370	0.010	0.030
2020/01/31 17:17:35.7	358.410	0.400	-0.100	0.030
2020/01/31 17:17:35.8	358.420	0.420	-0.210	0.030
2020/01/31 17:17:35.9	358.420	0.440	-0.320	0.020
2020/01/31 17:17:36.0	358.430	0.460	-0.420	0.010
2020/01/31 17:17:36.1	358.440	0.480	-0.530	-0.010
2020/01/31 17:17:36.2	358.450	0.490	-0.630	-0.040
2020/01/31 17:17:36.3	358.460	0.500	-0.730	-0.060
2020/01/31 17:17:36.4	358.470	0.510	-0.820	-0.090
2020/01/31 17:17:36.5	358.480	0.510	-0.900	-0.130
2020/01/31 17:17:36.6	358.490	0.500	-0.970	-0.160
2020/01/31 17:17:36.7	358.500	0.490	-1.040	-0.200
2020/01/31 17:17:36.8	358.500	0.480	-1.090	-0.240
2020/01/31 17:17:36.9	358.510	0.460	-1.140	-0.290
2020/01/31 17:17:37.0	358.510	0.440	-1.170	-0.330
2020/01/31 17:17:37.1	358.520	0.410	-1.190	-0.380
2020/01/31 17:17:37.2	358.520	0.380	-1.200	-0.430
2020/01/31 17:17:37.3	358.520	0.340	-1.190	-0.480
2020/01/31 17:17:37.4	358.520	0.300	-1.180	-0.540
2020/01/31 17:17:37.5	358.530	0.250	-1.150	-0.590
2020/01/31 17:17:37.6	358.530	0.200	-1.120	-0.640
2020/01/31 17:17:37.7	358.530	0.150	-1.070	-0.700
2020/01/31 17:17:37.8	358.520	0.090	-1.010	-0.750
2020/01/31 17:17:37.9	358.520	0.030	-0.940	-0.800
2020/01/31 17:17:38.0	358.520	-0.030	-0.870	-0.860
2020/01/31 17:17:38.1	358.510	-0.090	-0.790	-0.910
2020/01/31 17:17:38.2	358.510	-0.160	-0.700	-0.960
2020/01/31 17:17:38.3	358.510	-0.220	-0.610	-1.000
2020/01/31 17:17:38.4	358.500	-0.280	-0.510	-1.050
2020/01/31 17:17:38.5	358.500	-0.350	-0.420	-1.090
2020/01/31 17:17:38.6	358.500	-0.410	-0.320	-1.130
2020/01/31 17:17:38.7	358.490	-0.470	-0.220	-1.170
2020/01/31 17:17:38.8	358.490	-0.530	-0.120	-1.200
2020/01/31 17:17:38.9	358.490	-0.580	-0.020	-1.230
2020/01/31 17:17:39.0	358.480	-0.630	0.070	-1.250
2020/01/31 17:17:39.1	358.470	-0.680	0.160	-1.270
2020/01/31 17:17:39.2	358.470	-0.720	0.250	-1.290
2020/01/31 17:17:39.3	358.460	-0.760	0.330	-1.300
2020/01/31 17:17:39.4	358.450	-0.790	0.410	-1.310
2020/01/31 17:17:39.5	358.440	-0.810	0.480	-1.310
2020/01/31 17:17:39.6	358.430	-0.830	0.540	-1.310
2020/01/31 17:17:39.7	358.420	-0.840	0.590	-1.310
2020/01/31 17:17:39.8	358.410	-0.850	0.640	-1.300
2020/01/31 17:17:39.9	358.390	-0.840	0.680	-1.280
2020/01/31 17:17:40.0	358.380	-0.840	0.710	-1.270
2020/01/31 17:17:40.1	358.360	-0.820	0.730	-1.240
2020/01/31 17:17:40.2	358.340	-0.800	0.740	-1.220
2020/01/31 17:17:40.3	358.320	-0.770	0.750	-1.190
2020/01/31 17:17:40.4	358.300	-0.740	0.740	-1.150
2020/01/31 17:17:40.5	358.280	-0.700	0.730	-1.110
2020/01/31 17:17:40.6	358.260	-0.650	0.710	-1.070
2020/01/31 17:17:40.7	358.240	-0.610	0.690	-1.020
2020/01/31 17:17:40.8	358.220	-0.550	0.660	-0.970
2020/01/31 17:17:40.9	358.200	-0.500	0.620	-0.920
2020/01/31 17:17:41.0	358.170	-0.440	0.580	-0.860
2020/01/31 17:17:41.1	358.150	-0.370	0.530	-0.800
2020/01/31 17:17:41.2	358.120	-0.310	0.480	-0.740
2020/01/31 17:17:41.3	358.100	-0.250	0.430	-0.680
2020/01/31 17:17:41.4	358.070	-0.180	0.370	-0.610
2020/01/31 17:17:41.5	358.050	-0.120	0.310	-0.550
2020/01/31 17:17:41.6	358.020	-0.060	0.250	-0.480
2020/01/31 17:17:41.7	357.990	0.000	0.190	-0.410
2020/01/31 17:17:41.8	357.960	0.060	0.120	-0.340
2020/01/31 17:17:41.9	357.940	0.120	0.060	-0.270
2020/01/31 17:17:42.0	357.910	0.170	-0.000	-0.200
2020/01/31 17:17:42.1	357.890	0.220	-0.070	-0.140
2020/01/31 17:17:42.2	357.860	0.260	-0.130	-0.070
2020/01/31 17:17:42.3	357.840	0.300	-0.180	-0.010
2020/01/31 17:17:42.4	357.810	0.340	-0.240	0.050
2020/01/31 17:17:42.5	357.790	0.370	-0.290	0.110
2020/01/31 17:17:42.6	357.770	0.400	-0.350	0.170
2020/01/31 17:17:42.7	357.750	0.420	-0.390	0.220
2020/01/31 17:17:42.8	357.730	0.440	-0.440	0.280
2020/01/31 17:17:42.9	357.720	0.450	-0.480	0.330
2020/01/31 17:17:43.0	357.700	0.460	-0.520	0.370
2020/01/31 17:17:43.1	357.680	0.460	-0.560	0.410
2020/01/31 17:17:43.2	357.670	0.460	-0.590	0.450
2020/01/31 17:17:43.3	357.650	0.450	-0.620	0.480
2020/01/31 17:17:43.4	357.640	0.450	-0.640	0.520
2020/01/31 17:17:43.5	357.620	0.430	-0.670	0.550
2020/01/31 17:17:43.6	357.610	0.420	-0.680	0.570
2020/01/31 17:17:43.7	357.600	0.400	-0.700	0.590
2020/01/31 17:17:43.8	357.570	0.380	-0.710	0.610
2020/01/31 17:17:43.9	357.560	0.360	-0.720	0.630
2020/01/31 17:17:44.0	357.550	0.340	-0.730	0.640
2020/01/31 17:17:44.1	357.530	0.320	-0.730	0.650
2020/01/31 17:17:44.2	357.520	0.290	-0.730	0.650
2020/01/31 17:17:44.3	357.510	0.270	-0.730	0.650
2020/01/31 17:17:44.4	357.500	0.240	-0.730	0.650
2020/01/31 17:17:44.5	357.500	0.220	-0.730	0.640
2020/01/31 17:17:44.6	357.490	0.190	-0.720	0.630
2020/01/31 17:17:44.7	357.480	0.170	-0.720	0.610
2020/01/31 17:17:44.8	357.480	0.150	-0.720	0.590
2020/01/31 17:17:44.9	357.480	0.130	-0.710	0.560
2020/01/31 17:17:45.0	357.480	0.110	-0.710	0.520
2020/01/31 17:17:45.1	357.490	0.090	-0.720	0.490
2020/01/31 17:17:45.2	357.500	0.080	-0.720	0.440
2020/01/31 17:17:45.3	357.510	0.070	-0.730	0.390
2020/01/31 17:17:45.4	357.520	0.060	-0.740	0.340
2020/01/31 17:17:45.5	357.540	0.060	-0.760	0.280
2020/01/31 17:17:45.6	357.560	0.060	-0.780	0.220
2020/01/31 17:17:45.7	357.590	0.060	-0.800	0.150
2020/01/31 17:17:45.8	357.610	0.070	-0.820	0.080
2020/01/31 17:17:45.9	357.640	0.070	-0.840	0.020
2020/01/31 17:17:46.0	357.670	0.080	-0.870	-0.050
2020/01/31 17:17:46.1	357.700	0.090	-0.900	-0.120
2020/01/31 17:17:46.2	357.730	0.110	-0.920	-0.190
2020/01/31 17:17:46.3	357.770	0.120	-0.950	-0.260
2020/01/31 17:17:46.4	357.800	0.140	-0.970	-0.320
2020/01/31 17:17:46.5	357.840	0.160	-1.000	-0.390
2020/01/31 17:17:46.6	357.870	0.180	-1.020	-0.450
2020/01/31 17:17:46.7	357.910	0.200	-1.030	-0.510
2020/01/31 17:17:46.8	357.950	0.220	-1.040	-0.570
2020/01/31 17:17:46.9	357.990	0.230	-1.050	-0.630
2020/01/31 17:17:47.0	358.020	0.250	-1.050	-0.690
2020/01/31 17:17:47.1	358.050	0.270	-1.040	-0.740
2020/01/31 17:17:47.2	358.090	0.280	-1.030	-0.800
2020/01/31 17:17:47.3	358.120	0.290	-1.010	-0.850
2020/01/31 17:17:47.4	358.150	0.300	-0.990	-0.890
2020/01/31 17:17:47.5	358.170	0.310	-0.960	-0.940
2020/01/31 17:17:47.6	358.200	0.310	-0.920	-0.980
2020/01/31 17:17:47.7	358.230	0.320	-0.870	-1.020
2020/01/31 17:17:47.8	358.250	0.310	-0.810	-1.050
2020/01/31 17:17:47.9	358.280	0.310	-0.750	-1.080
2020/01/31 17:17:48.0	358.300	0.300	-0.690	-1.110
2020/01/31 17:17:48.1	358.310	0.280	-0.610	-1.130
2020/01/31 17:17:48.2	358.330	0.270	-0.530	-1.150
2020/01/31 17:17:48.3	358.340	0.250	-0.450	-1.160
2020/01/31 17:17:48.4	358.350	0.220	-0.360	-1.160
2020/01/31 17:17:48.5	358.360	0.190	-0.270	-1.160
2020/01/31 17:17:48.6	358.370	0.160	-0.180	-1.160
2020/01/31 17:17:48.7	358.370	0.130	-0.090	-1.150
2020/01/31 17:17:48.8	358.380	0.090	0.010	-1.130
2020/01/31 17:17:48.9	358.380	0.050	0.100	-1.110
2020/01/31 17:17:49.0	358.380	0.010	0.200	-1.090
2020/01/31 17:17:49.1	358.380	-0.040	0.300	-1.070
2020/01/31 17:17:49.2	358.370	-0.080	0.390	-1.040
2020/01/31 17:17:49.3	358.360	-0.130	0.480	-1.020
2020/01/31 17:17:49.4	358.350	-0.180	0.570	-0.980
2020/01/31 17:17:49.5	358.340	-0.230	0.650	-0.950
2020/01/31 17:17:49.6	358.330	-0.280	0.730	-0.920
2020/01/31 17:17:49.7	358.310	-0.330	0.810	-0.880
2020/01/31 17:17:49.8	358.310	-0.380	0.870	-0.840
2020/01/31 17:17:49.9	358.290	-0.420	0.940	-0.810
2020/01/31 17:17:50.0	358.270	-0.470	0.990	-0.770
2020/01/31 17:17:50.1	358.250	-0.510	1.040	-0.730
2020/01/31 17:17:50.2	358.230	-0.550	1.080	-0.680
2020/01/31 17:17:50.3	358.210	-0.590	1.120	-0.640
2020/01/31 17:17:50.4	358.190	-0.620	1.150	-0.600
2020/01/31 17:17:50.5	358.170	-0.650	1.170	-0.550
2020/01/31 17:17:50.6	358.140	-0.680	1.180	-0.500
2020/01/31 17:17:50.7	358.110	-0.700	1.180	-0.460
2020/01/31 17:17:50.8	358.090	-0.720	1.190	-0.400
2020/01/31 17:17:50.9	358.060	-0.730	1.180	-0.350
2020/01/31 17:17:51.0	358.030	-0.730	1.160	-0.290
2020/01/31 17:17:51.1	357.990	-0.730	1.140	-0.240
2020/01/31 17:17:51.2	357.960	-0.730	1.110	-0.180
2020/01/31 17:17:51.3	357.920	-0.710	1.080	-0.120
2020/01/31 17:17:51.4	357.880	-0.700	1.040	-0.050
2020/01/31 17:17:51.5	357.830	-0.670	0.990	0.010
2020/01/31 17:17:51.6	357.790	-0.640	0.940	0.070
2020/01/31 17:17:51.7	357.750	-0.610	0.880	0.140
2020/01/31 17:17:51.8	357.690	-0.570	0.810	0.200
2020/01/31 17:17:51.9	357.640	-0.530	0.740	0.270
2020/01/31 17:17:52.0	357.590	-0.480	0.670	0.330
2020/01/31 17:17:52.1	357.550	-0.430	0.590	0.390
2020/01/31 17:17:52.2	357.500	-0.370	0.500	0.450
2020/01/31 17:17:52.3	357.450	-0.310	0.420	0.510
2020/01/31 17:17:52.4	357.400	-0.250	0.320	0.560
2020/01/31 17:17:52.5	357.350	-0.180	0.230	0.620
2020/01/31 17:17:52.6	357.310	-0.120	0.120	0.660
2020/01/31 17:17:52.7	357.270	-0.050	0.020	0.710
2020/01/31 17:17:52.8	357.230	0.020	-0.090	0.750
2020/01/31 17:17:52.9	357.190	0.090	-0.190	0.790
2020/01/31 17:17:53.0	357.150	0.160	-0.310	0.820
2020/01/31 17:17:53.1	357.120	0.230	-0.420	0.840
2020/01/31 17:17:53.2	357.090	0.300	-0.530	0.860
2020/01/31 17:17:53.3	357.070	0.370	-0.640	0.870
2020/01/31 17:17:53.4	357.050	0.430	-0.750	0.870
2020/01/31 17:17:53.5	357.040	0.490	-0.860	0.870
2020/01/31 17:17:53.6	357.030	0.550	-0.970	0.860
2020/01/31 17:17:53.7	357.020	0.610	-1.080	0.850
2020/01/31 17:17:53.8	357.010	0.660	-1.180	0.830
2020/01/31 17:17:53.9	357.020	0.710	-1.280	0.800
2020/01/31 17:17:54.0	357.030	0.750	-1.370	0.770
2020/01/31 17:17:54.1	357.040	0.780	-1.460	0.730
2020/01/31 17:17:54.2	357.060	0.820	-1.530	0.690
2020/01/31 17:17:54.3	357.070	0.840	-1.610	0.640
2020/01/31 17:17:54.4	357.100	0.860	-1.670	0.590
2020/01/31 17:17:54.5	357.120	0.870	-1.720	0.530
2020/01/31 17:17:54.6	357.150	0.880	-1.760	0.470
2020/01/31 17:17:54.7	357.170	0.880	-1.800	0.410
2020/01/31 17:17:54.8	357.200	0.870	-1.820	0.340
2020/01/31 17:17:54.9	357.230	0.860	-1.830	0.280
2020/01/31 17:17:55.0	357.260	0.830	-1.830	0.210
2020/01/31 17:17:55.1	357.290	0.810	-1.810	0.140
2020/01/31 17:17:55.2	357.320	0.770	-1.790	0.060
2020/01/31 17:17:55.3	357.360	0.730	-1.760	-0.010
2020/01/31 17:17:55.4	357.390	0.680	-1.710	-0.090
2020/01/31 17:17:55.5	357.420	0.630	-1.650	-0.160
2020/01/31 17:17:55.6	357.460	0.570	-1.590	-0.240
2020/01/31 17:17:55.7	357.490	0.510	-1.510	-0.310
2020/01/31 17:17:55.8	357.520	0.450	-1.430	-0.390
2020/01/31 17:17:55.9	357.550	0.380	-1.340	-0.460
2020/01/31 17:17:56.0	357.590	0.300	-1.240	-0.540
2020/01/31 17:17:56.1	357.620	0.230	-1.140	-0.610
2020/01/31 17:17:56.2	357.650	0.150	-1.030	-0.680
2020/01/31 17:17:56.3	357.690	0.080	-0.920	-0.740
2020/01/31 17:17:56.4	357.730	0.000	-0.810	-0.810
2020/01/31 17:17:56.5	357.760	-0.080	-0.700	-0.880
2020/01/31 17:17:56.6	357.800	-0.150	-0.590	-0.940
2020/01/31 17:17:56.7	357.850	-0.220	-0.490	-1.010
2020/01/31 17:17:56.8	357.900	-0.290	-0.380	-1.070
2020/01/31 17:17:56.9	357.950	-0.360	-0.280	-1.130
2020/01/31 17:17:57.0	357.990	-0.420	-0.190	-1.200
2020/01/31 17:17:57.1	358.040	-0.480	-0.100	-1.260
2020/01/31 17:17:57.2	358.090	-0.540	-0.020	-1.310
2020/01/31 17:17:57.3	358.130	-0.580	0.050	-1.370
2020/01/31 17:17:57.4	358.180	-0.630	0.120	-1.420
2020/01/31 17:17:57.5	358.230	-0.660	0.180	-1.460
2020/01/31 17:17:57.6	358.270	-0.690	0.230	-1.500
2020/01/31 17:17:57.7	358.310	-0.720	0.270	-1.530
2020/01/31 17:17:57.8	358.350	-0.740	0.310	-1.560
2020/01/31 17:17:57.9	358.380	-0.750	0.340	-1.580
2020/01/31 17:17:58.0	358.420	-0.760	0.370	-1.590
2020/01/31 17:17:58.1	358.440	-0.760	0.380	-1.600
2020/01/31 17:17:58.2	358.460	-0.750	0.400	-1.600
2020/01/31 17:17:58.3	358.480	-0.740	0.410	-1.600
2020/01/31 17:17:58.4	358.490	-0.720	0.410	-1.590
2020/01/31 17:17:58.5	358.500	-0.700	0.410	-1.570
2020/01/31 17:17:58.6	358.500	-0.680	0.410	-1.550
2020/01/31 17:17:58.7	358.500	-0.640	0.410	-1.520
2020/01/31 17:17:58.8	358.510	-0.610	0.410	-1.480
2020/01/31 17:17:58.9	358.490	-0.570	0.400	-1.430
2020/01/31 17:17:59.0	358.480	-0.530	0.390	-1.380
2020/01/31 17:17:59.1	358.450	-0.480	0.390	-1.330
2020/01/31 17:17:59.2	358.430	-0.440	0.380	-1.270
2020/01/31 17:17:59.3	358.400	-0.390	0.370	-1.200
2020/01/31 17:17:59.4	358.360	-0.340	0.370	-1.130
2020/01/31 17:17:59.5	358.320	-0.280	0.360	-1.050
2020/01/31 17:17:59.6	358.280	-0.230	0.360	-0.960
2020/01/31 17:17:59.7	358.230	-0.180	0.360	-0.880
2020/01/31 17:17:59.8	358.170	-0.120	0.360	-0.780
2020/01/31 17:17:59.9	358.110	-0.070	0.360	-0.680
2020/01/31 17:18:00.0	358.060	-0.020	0.360	-0.590
2020/01/31 17:18:00.1	358.000	0.030	0.370	-0.490
2020/01/31 17:18:00.2	357.940	0.080	0.370	-0.390
2020/01/31 17:18:00.3	357.880	0.120	0.370	-0.290
2020/01/31 17:18:00.4	357.810	0.170	0.370	-0.190
2020/01/31 17:18:00.5	357.750	0.210	0.370	-0.090
2020/01/31 17:18:00.6	357.690	0.250	0.370	0.010
2020/01/31 17:18:00.7	357.630	0.290	0.370	0.100
2020/01/31 17:18:00.8	357.560	0.320	0.370	0.200
2020/01/31 17:18:00.9	357.500	0.350	0.360	0.280
2020/01/31 17:18:01.0	357.440	0.370	0.350	0.360
2020/01/31 17:18:01.1	357.390	0.400	0.340	0.440
2020/01/31 17:18:01.2	357.330	0.420	0.330	0.510
2020/01/31 17:18:01.3	357.280	0.430	0.310	0.570
2020/01/31 17:18:01.4	357.230	0.450	0.290	0.620
2020/01/31 17:18:01.5	357.180	0.460	0.270	0.670
2020/01/31 17:18:01.6	357.140	0.460	0.250	0.710
2020/01/31 17:18:01.7	357.100	0.460	0.220	0.740
2020/01/31 17:18:01.8	357.060	0.460	0.190	0.770
2020/01/31 17:18:01.9	357.020	0.460	0.160	0.790
2020/01/31 17:18:02.0	356.990	0.450	0.120	0.810
2020/01/31 17:18:02.1	356.960	0.440	0.090	0.810
2020/01/31 17:18:02.2	356.930	0.430	0.050	0.810
2020/01/31 17:18:02.3	356.910	0.420	0.010	0.800
2020/01/31 17:18:02.4	356.890	0.400	-0.030	0.790
2020/01/31 17:18:02.5	356.870	0.390	-0.070	0.770
2020/01/31 17:18:02.6	356.850	0.370	-0.110	0.740
2020/01/31 17:18:02.7	356.840	0.340	-0.150	0.710
2020/01/31 17:18:02.8	356.820	0.320	-0.190	0.670
2020/01/31 17:18:02.9	356.820	0.300	-0.230	0.630
2020/01/31 17:18:03.0	356.810	0.280	-0.280	0.580
2020/01/31 17:18:03.1	356.810	0.250	-0.320	0.530
2020/01/31 17:18:03.2	356.820	0.230	-0.360	0.480
2020/01/31 17:18:03.3	356.820	0.210	-0.400	0.420
2020/01/31 17:18:03.4	356.830	0.180	-0.440	0.360
2020/01/31 17:18:03.5	356.840	0.160	-0.490	0.300
2020/01/31 17:18:03.6	356.850	0.140	-0.530	0.230
2020/01/31 17:18:03.7	356.860	0.120	-0.570	0.170
2020/01/31 17:18:03.8	356.880	0.100	-0.600	0.100
2020/01/31 17:18:03.9	356.900	0.080	-0.640	0.040
2020/01/31 17:18:04.0	356.920	0.060	-0.680	-0.020
2020/01/31 17:18:04.1	356.940	0.050	-0.710	-0.090
2020/01/31 17:18:04.2	356.960	0.030	-0.750	-0.150
2020/01/31 17:18:04.3	356.990	0.020	-0.780	-0.210
2020/01/31 17:18:04.4	357.010	0.010	-0.810	-0.270
2020/01/31 17:18:04.5	357.040	-0.000	-0.840	-0.330
2020/01/31 17:18:04.6	357.070	-0.010	-0.870	-0.380
2020/01/31 17:18:04.7	357.100	-0.020	-0.890	-0.440
2020/01/31 17:18:04.8	357.130	-0.030	-0.920	-0.500
2020/01/31 17:18:04.9	357.160	-0.030	-0.940	-0.550
2020/01/31 17:18:05.0	357.200	-0.040	-0.960	-0.610
2020/01/31 17:18:05.1	357.230	-0.050	-0.980	-0.670
2020/01/31 17:18:05.2	357.270	-0.050	-1.000	-0.720
2020/01/31 17:18:05.3	357.310	-0.050	-1.010	-0.780
2020/01/31 17:18:05.4	357.350	-0.060	-1.030	-0.840
2020/01/31 17:18:05.5	357.400	-0.060	-1.040	-0.890
2020/01/31 17:18:05.6	357.440	-0.070	-1.050	-0.950
2020/01/31 17:18:05.7	357.490	-0.070	-1.060	-1.010
2020/01/31 17:18:05.8	357.540	-0.070	-1.060	-1.060
2020/01/31 17:18:05.9	357.590	-0.080	-1.070	-1.120
2020/01/31 17:18:06.0	357.630	-0.080	-1.070	-1.170
2020/01/31 17:18:06.1	357.680	-0.090	-1.070	-1.220
2020/01/31 17:18:06.2	357.730	-0.090	-1.070	-1.270
2020/01/31 17:18:06.3	357.780	-0.100	-1.060	-1.310
2020/01/31 17:18:06.4	357.820	-0.110	-1.050	-1.350
2020/01/31 17:18:06.5	357.870	-0.110	-1.040	-1.390
2020/01/31 17:18:06.6	357.920	-0.120	-1.020	-1.420
2020/01/31 17:18:06.7	357.960	-0.130	-1.010	-1.450
2020/01/31 17:18:06.8	358.020	-0.140	-0.980	-1.470
2020/01/31 17:18:06.9	358.070	-0.150	-0.950	-1.500
2020/01/31 17:18:07.0	358.110	-0.160	-0.930	-1.510
2020/01/31 17:18:07.1	358.150	-0.170	-0.890	-1.530
2020/01/31 17:18:07.2	358.190	-0.190	-0.860	-1.530
2020/01/31 17:18:07.3	358.230	-0.200	-0.820	-1.540
2020/01/31 17:18:07.4	358.260	-0.220	-0.770	-1.540
2020/01/31 17:18:07.5	358.290	-0.230	-0.730	-1.530
2020/01/31 17:18:07.6	358.320	-0.250	-0.680	-1.530
2020/01/31 17:18:07.7	358.350	-0.270	-0.620	-1.510
2020/01/31 17:18:07.8	358.380	-0.290	-0.570	-1.500
2020/01/31 17:18:07.9	358.400	-0.300	-0.510	-1.480
2020/01/31 17:18:08.0	358.410	-0.320	-0.450	-1.460
2020/01/31 17:18:08.1	358.430	-0.340	-0.380	-1.430
2020/01/31 17:18:08.2	358.440	-0.360	-0.310	-1.400
2020/01/31 17:18:08.3	358.440	-0.370	-0.240	-1.360
2020/01/31 17:18:08.4	358.440	-0.390	-0.170	-1.320
2020/01/31 17:18:08.5	358.440	-0.410	-0.090	-1.280
2020/01/31 17:18:08.6	358.430	-0.420	-0.020	-1.230
2020/01/31 17:18:08.7	358.420	-0.430	0.060	-1.180
2020/01/31 17:18:08.8	358.410	-0.450	0.140	-1.120
2020/01/31 17:18:08.9	358.390	-0.460	0.220	-1.060
2020/01/31 17:18:09.0	358.360	-0.460	0.290	-0.990
2020/01/31 17:18:09.1	358.330	-0.470	0.370	-0.920
2020/01/31 17:18:09.2	358.290	-0.480	0.450	-0.840
2020/01/31 17:18:09.3	358.250	-0.480	0.530	-0.760
2020/01/31 17:18:09.4	358.210	-0.480	0.600	-0.680
2020/01/31 17:18:09.5	358.160	-0.470	0.670	-0.600
2020/01/31 17:18:09.6	358.110	-0.470	0.740	-0.510
2020/01/31 17:18:09.7	358.060	-0.460	0.800	-0.420
2020/01/31 17:18:09.8	358.000	-0.450	0.860	-0.320
2020/01/31 17:18:09.9	357.940	-0.430	0.920	-0.230
2020/01/31 17:18:10.0	357.890	-0.410	0.970	-0.140
2020/01/31 17:18:10.1	357.830	-0.390	1.010	-0.050
2020/01/31 17:18:10.2	357.760	-0.370	1.050	0.040
2020/01/31 17:18:10.3	357.700	-0.340	1.080	0.130
2020/01/31 17:18:10.4	357.640	-0.310	1.100	0.220
2020/01/31 17:18:10.5	357.580	-0.280	1.110	0.300
2020/01/31 17:18:10.6	357.520	-0.240	1.120	0.380
2020/01/31 17:18:10.7	357.450	-0.200	1.120	0.460
2020/01/31 17:18:10.8	357.390	-0.160	1.110	0.530
2020/01/31 17:18:10.9	357.330	-0.120	1.090	0.600
2020/01/31 17:18:11.0	357.270	-0.070	1.070	0.670
2020/01/31 17:18:11.1	357.210	-0.020	1.030	0.730
2020/01/31 17:18:11.2	357.150	0.030	0.990	0.790
2020/01/31 17:18:11.3	357.090	0.080	0.940	0.840
2020/01/31 17:18:11.4	357.040	0.130	0.890	0.880
2020/01/31 17:18:11.5	356.990	0.180	0.820	0.920
2020/01/31 17:18:11.6	356.940	0.230	0.760	0.950
2020/01/31 17:18:11.7	356.890	0.280	0.680	0.980
2020/01/31 17:18:11.8	356.840	0.330	0.600	1.010
2020/01/31 17:18:11.9	356.790	0.370	0.510	1.020
2020/01/31 17:18:12.0	356.750	0.420	0.430	1.030
2020/01/31 17:18:12.1	356.720	0.460	0.330	1.040
2020/01/31 17:18:12.2	356.680	0.500	0.240	1.040
2020/01/31 17:18:12.3	356.650	0.540	0.140	1.030
2020/01/31 17:18:12.4	356.620	0.580	0.050	1.030
2020/01/31 17:18:12.5	356.600	0.610	-0.050	1.010
2020/01/31 17:18:12.6	356.570	0.640	-0.150	0.990
2020/01/31 17:18:12.7	356.560	0.660	-0.250	0.970
2020/01/31 17:18:12.8	356.540	0.680	-0.350	0.940
2020/01/31 17:18:12.9	356.530	0.700	-0.440	0.910
2020/01/31 17:18:13.0	356.520	0.720	-0.540	0.870
2020/01/31 17:18:13.1	356.520	0.730	-0.640	0.830
2020/01/31 17:18:13.2	356.520	0.740	-0.730	0.780
2020/01/31 17:18:13.3	356.530	0.740	-0.830	0.730
2020/01/31 17:18:13.4	356.540	0.740	-0.920	0.680
2020/01/31 17:18:13.5	356.560	0.740	-1.010	0.610
2020/01/31 17:18:13.6	356.580	0.730	-1.090	0.550
2020/01/31 17:18:13.7	356.600	0.720	-1.170	0.480
2020/01/31 17:18:13.8	356.630	0.710	-1.250	0.400
2020/01/31 17:18:13.9	356.670	0.690	-1.330	0.330
2020/01/31 17:18:14.0	356.700	0.670	-1.400	0.250
2020/01/31 17:18:14.1	356.740	0.650	-1.460	0.160
2020/01/31 17:18:14.2	356.780	0.630	-1.520	0.080
2020/01/31 17:18:14.3	356.830	0.600	-1.570	-0.010
2020/01/31 17:18:14.4	356.870	0.580	-1.610	-0.100
2020/01/31 17:18:14.5	356.920	0.550	-1.650	-0.190
2020/01/31 17:18:14.6	356.970	0.520	-1.680	-0.270
2020/01/31 17:18:14.7	357.020	0.480	-1.700	-0.360
2020/01/31 17:18:14.8	357.050	0.450	-1.710	-0.450
2020/01/31 17:18:14.9	357.100	0.420	-1.720	-0.530
2020/01/31 17:18:15.0	357.140	0.380	-1.710	-0.610
2020/01/31 17:18:15.1	357.180	0.350	-1.700	-0.690
2020/01/31 17:18:15.2	357.230	0.310	-1.680	-0.760
2020/01/31 17:18:15.3	357.270	0.280	-1.650	-0.830
2020/01/31 17:18:15.4	357.300	0.240	-1.610	-0.890
2020/01/31 17:18:15.5	357.340	0.200	-1.570	-0.950
2020/01/31 17:18:15.6	357.370	0.170	-1.520	-1.010
2020/01/31 17:18:15.7	357.410	0.130	-1.460	-1.060
2020/01/31 17:18:15.8	357.450	0.100	-1.390	-1.110
2020/01/31 17:18:15.9	357.480	0.070	-1.310	-1.140
2020/01/31 17:18:16.0	357.500	0.030	-1.230	-1.180
2020/01/31 17:18:16.1	357.530	0.000	-1.150	-1.200
2020/01/31 17:18:16.2	357.550	-0.030	-1.060	-1.220
2020/01/31 17:18:16.3	357.570	-0.060	-0.970	-1.240
2020/01/31 17:18:16.4	357.580	-0.090	-0.880	-1.250
2020/01/31 17:18:16.5	357.600	-0.120	-0.780	-1.250
2020/01/31 17:18:16.6	357.610	-0.140	-0.680	-1.250
2020/01/31 17:18:16.7	357.620	-0.170	-0.580	-1.250
2020/01/31 17:18:16.8	357.630	-0.190	-0.480	-1.230
2020/01/31 17:18:16.9	357.640	-0.210	-0.390	-1.220
2020/01/31 17:18:17.0	357.650	-0.230	-0.290	-1.210
2020/01/31 17:18:17.1	357.650	-0.250	-0.190	-1.190
2020/01/31 17:18:17.2	357.660	-0.270	-0.100	-1.170
2020/01/31 17:18:17.3	357.660	-0.290	-0.010	-1.150
2020/01/31 17:18:17.4	357.660	-0.300	0.070	-1.120
2020/01/31 17:18:17.5	357.670	-0.320	0.150	-1.100
2020/01/31 17:18:17.6	357.670	-0.330	0.230	-1.070
2020/01/31 17:18:17.7	357.670	-0.340	0.300	-1.040
2020/01/31 17:18:17.8	357.670	-0.350	0.360	-1.010
2020/01/31 17:18:17.9	357.670	-0.360	0.420	-0.980
2020/01/31 17:18:18.0	357.670	-0.370	0.480	-0.940
2020/01/31 17:18:18.1	357.670	-0.370	0.530	-0.900
2020/01/31 17:18:18.2	357.660	-0.380	0.570	-0.870
2020/01/31 17:18:18.3	357.660	-0.380	0.610	-0.830
2020/01/31 17:18:18.4	357.650	-0.390	0.640	-0.790
2020/01/31 17:18:18.5	357.650	-0.390	0.670	-0.740
2020/01/31 17:18:18.6	357.640	-0.390	0.690	-0.700
2020/01/31 17:18:18.7	357.630	-0.390	0.710	-0.660
2020/01/31 17:18:18.8	357.620	-0.390	0.720	-0.610
2020/01/31 17:18:18.9	357.610	-0.390	0.730	-0.560
2020/01/31 17:18:19.0	357.600	-0.390	0.730	-0.510
2020/01/31 17:18:19.1	357.580	-0.390	0.730	-0.470
2020/01/31 17:18:19.2	357.560	-0.390	0.720	-0.420
2020/01/31 17:18:19.3	357.550	-0.390	0.710	-0.380
2020/01/31 17:18:19.4	357.530	-0.390	0.690	-0.340
2020/01/31 17:18:19.5	357.510	-0.390	0.670	-0.300
2020/01/31 17:18:19.6	357.490	-0.390	0.650	-0.260
2020/01/31 17:18:19.7	357.480	-0.390	0.620	-0.220
2020/01/31 17:18:19.8	357.460	-0.390	0.580	-0.190
2020/01/31 17:18:19.9	357.440	-0.390	0.550	-0.160
2020/01/31 17:18:20.0	357.430	-0.390	0.500	-0.130
2020/01/31 17:18:20.1	357.420	-0.390	0.460	-0.110
2020/01/31 17:18:20.2	357.410	-0.390	0.410	-0.100
2020/01/31 17:18:20.3	357.400	-0.390	0.360	-0.080
2020/01/31 17:18:20.4	357.400	-0.380	0.300	-0.070
2020/01/31 17:18:20.5	357.390	-0.380	0.240	-0.070
2020/01/31 17:18:20.6	357.390	-0.380	0.180	-0.070
2020/01/31 17:18:20.7	357.390	-0.370	0.120	-0.070
2020/01/31 17:18:20.8	357.390	-0.360	0.060	-0.070
2020/01/31 17:18:20.9	357.390	-0.360	0.000	-0.080
2020/01/31 17:18:21.0	357.390	-0.350	-0.060	-0.090
2020/01/31 17:18:21.1	357.390	-0.340	-0.120	-0.100
2020/01/31 17:18:21.2	357.390	-0.330	-0.180	-0.110
2020/01/31 17:18:21.3	357.390	-0.320	-0.230	-0.120
2020/01/31 17:18:21.4	357.390	-0.310	-0.290	-0.140
2020/01/31 17:18:21.5	357.390	-0.300	-0.340	-0.150
2020/01/31 17:18:21.6	357.390	-0.280	-0.380	-0.160
2020/01/31 17:18:21.7	357.390	-0.270	-0.420	-0.170
2020/01/31 17:18:21.8	357.380	-0.250	-0.450	-0.180
2020/01/31 17:18:21.9	357.370	-0.230	-0.480	-0.180
2020/01/31 17:18:22.0	357.370	-0.220	-0.500	-0.180
2020/01/31 17:18:22.1	357.360	-0.200	-0.520	-0.180
2020/01/31 17:18:22.2	357.340	-0.180	-0.530	-0.180
2020/01/31 17:18:22.3	357.330	-0.160	-0.530	-0.170
2020/01/31 17:18:22.4	357.310	-0.140	-0.520	-0.160
2020/01/31 17:18:22.5	357.290	-0.120	-0.510	-0.150
2020/01/31 17:18:22.6	357.270	-0.110	-0.490	-0.130
2020/01/31 17:18:22.7	357.250	-0.090	-0.470	-0.110
2020/01/31 17:18:22.8	357.230	-0.070	-0.440	-0.090
2020/01/31 17:18:22.9	357.200	-0.050	-0.410	-0.060
2020/01/31 17:18:23.0	357.180	-0.030	-0.380	-0.030
2020/01/31 17:18:23.1	357.160	-0.010	-0.340	-0.000
2020/01/31 17:18:23.2	357.140	0.010	-0.310	0.030
2020/01/31 17:18:23.3	357.120	0.030	-0.270	0.060
2020/01/31 17:18:23.4	357.100	0.050	-0.230	0.100
2020/01/31 17:18:23.5	357.080	0.070	-0.200	0.130
2020/01/31 17:18:23.6	357.070	0.090	-0.170	0.160
2020/01/31 17:18:23.7	357.050	0.110	-0.140	0.190
2020/01/31 17:18:23.8	357.040	0.130	-0.110	0.230
2020/01/31 17:18:23.9	357.030	0.150	-0.090	0.250
2020/01/31 17:18:24.0	357.020	0.180	-0.070	0.280
2020/01/31 17:18:24.1	357.020	0.200	-0.060	0.300
2020/01/31 17:18:24.2	357.020	0.220	-0.050	0.320
2020/01/31 17:18:24.3	357.020	0.240	-0.050	0.340
2020/01/31 17:18:24.4	357.020	0.270	-0.060	0.350
2020/01/31 17:18:24.5	357.030	0.290	-0.070	0.360
2020/01/31 17:18:24.6	357.040	0.320	-0.080	0.360
2020/01/31 17:18:24.7	357.050	0.340	-0.110	0.360
2020/01/31 17:18:24.8	357.060	0.370	-0.130	0.360
2020/01/31 17:18:24.9	357.070	0.390	-0.170	0.360
2020/01/31 17:18:25.0	357.090	0.420	-0.200	0.350
2020/01/31 17:18:25.1	357.100	0.440	-0.240	0.350
2020/01/31 17:18:25.2	357.110	0.470	-0.280	0.340
2020/01/31 17:18:25.3	357.120	0.490	-0.320	0.330
2020/01/31 17:18:25.4	357.130	0.520	-0.370	0.320
2020/01/31 17:18:25.5	357.140	0.540	-0.410	0.310
2020/01/31 17:18:25.6	357.140	0.570	-0.460	0.290
2020/01/31 17:18:25.7	357.140	0.590	-0.500	0.280
2020/01/31 17:18:25.8	357.140	0.610	-0.540	0.280
2020/01/31 17:18:25.9	357.140	0.620	-0.580	0.260
2020/01/31 17:18:26.0	357.130	0.640	-0.620	0.250
2020/01/31 17:18:26.1	357.130	0.650	-0.660	0.240
2020/01/31 17:18:26.2	357.120	0.660	-0.690	0.220
2020/01/31 17:18:26.3	357.120	0.670	-0.730	0.210
2020/01/31 17:18:26.4	357.110	0.680	-0.750	0.190
2020/01/31 17:18:26.5	357.100	0.680	-0.780	0.170
2020/01/31 17:18:26.6	357.090	0.680	-0.800	0.150
2020/01/31 17:18:26.7	357.080	0.680	-0.820	0.130
2020/01/31 17:18:26.8	357.080	0.670	-0.840	0.100
2020/01/31 17:18:26.9	357.070	0.660	-0.850	0.080
2020/01/31 17:18:27.0	357.070	0.640	-0.860	0.040
2020/01/31 17:18:27.1	357.060	0.630	-0.870	0.010
2020/01/31 17:18:27.2	357.050	0.610	-0.880	-0.030
2020/01/31 17:18:27.3	357.050	0.580	-0.880	-0.070
2020/01/31 17:18:27.4	357.050	0.560	-0.880	-0.110
2020/01/31 17:18:27.5	357.050	0.530	-0.870	-0.150
2020/01/31 17:18:27.6	357.050	0.500	-0.870	-0.200
2020/01/31 17:18:27.7	357.050	0.460	-0.860	-0.250
2020/01/31 17:18:27.8	357.050	0.420	-0.840	-0.300
2020/01/31 17:18:27.9	357.060	0.390	-0.820	-0.350
2020/01/31 17:18:28.0	357.070	0.350	-0.810	-0.400
2020/01/31 17:18:28.1	357.080	0.300	-0.780	-0.450
2020/01/31 17:18:28.2	357.090	0.260	-0.760	-0.510
2020/01/31 17:18:28.3	357.100	0.210	-0.730	-0.560
2020/01/31 17:18:28.4	357.120	0.170	-0.700	-0.620
2020/01/31 17:18:28.5	357.130	0.120	-0.670	-0.670
2020/01/31 17:18:28.6	357.150	0.080	-0.640	-0.720
2020/01/31 17:18:28.7	357.170	0.030	-0.600	-0.770
2020/01/31 17:18:28.8	357.190	-0.010	-0.570	-0.820
2020/01/31 17:18:28.9	357.210	-0.060	-0.530	-0.860
2020/01/31 17:18:29.0	357.230	-0.100	-0.490	-0.910
2020/01/31 17:18:29.1	357.250	-0.140	-0.440	-0.950
2020/01/31 17:18:29.2	357.270	-0.180	-0.400	-0.990
2020/01/31 17:18:29.3	357.290	-0.220	-0.350	-1.020
2020/01/31 17:18:29.4	357.310	-0.260	-0.300	-1.050
2020/01/31 17:18:29.5	357.330	-0.300	-0.250	-1.080
2020/01/31 17:18:29.6	357.350	-0.330	-0.200	-1.110
2020/01/31 17:18:29.7	357.370	-0.360	-0.140	-1.130
2020/01/31 17:18:29.8	357.370	-0.390	-0.090	-1.160
2020/01/31 17:18:29.9	357.390	-0.420	-0.030	-1.170
2020/01/31 17:18:30.0	357.410	-0.450	0.020	-1.190
2020/01/31 17:18:30.1	357.430	-0.470	0.080	-1.200
2020/01/31 17:18:30.2	357.440	-0.500	0.130	-1.200
2020/01/31 17:18:30.3	357.460	-0.520	0.190	-1.210
2020/01/31 17:18:30.4	357.480	-0.530	0.240	-1.210
2020/01/31 17:18:30.5	357.490	-0.550	0.290	-1.210
2020/01/31 17:18:30.6	357.500	-0.570	0.340	-1.210
2020/01/31 17:18:30.7	357.520	-0.580	0.380	-1.200
2020/01/31 17:18:30.8	357.540	-0.590	0.420	-1.190
2020/01/31 17:18:30.9	357.550	-0.600	0.460	-1.180
2020/01/31 17:18:31.0	357.560	-0.610	0.490	-1.160
2020/01/31 17:18:31.1	357.570	-0.610	0.520	-1.150
2020/01/31 17:18:31.2	357.570	-0.620	0.550	-1.130
2020/01/31 17:18:31.3	357.580	-0.620	0.570	-1.110
2020/01/31 17:18:31.4	357.580	-0.620	0.580	-1.090
2020/01/31 17:18:31.5	357.580	-0.620	0.590	-1.070
2020/01/31 17:18:31.6	357.580	-0.610	0.590	-1.040
2020/01/31 17:18:31.7	357.580	-0.610	0.590	-1.020
2020/01/31 17:18:31.8	357.590	-0.600	0.580	-0.990
2020/01/31 17:18:31.9	357.590	-0.590	0.570	-0.960
2020/01/31 17:18:32.0	357.590	-0.580	0.550	-0.930
2020/01/31 17:18:32.1	357.590	-0.570	0.520	-0.900
2020/01/31 17:18:32.2	357.590	-0.550	0.480	-0.870
2020/01/31 17:18:32.3	357.590	-0.530	0.450	-0.840
2020/01/31 17:18:32.4	357.590	-0.510	0.400	-0.810
2020/01/31 17:18:32.5	357.590	-0.490	0.350	-0.780
2020/01/31 17:18:32.6	357.600	-0.460	0.300	-0.750
2020/01/31 17:18:32.7	357.600	-0.430	0.240	-0.710
2020/01/31 17:18:32.8	357.610	-0.400	0.190	-0.670
2020/01/31 17:18:32.9	357.610	-0.370	0.120	-0.640
2020/01/31 17:18:33.0	357.610	-0.340	0.060	-0.600
2020/01/31 17:18:33.1	357.610	-0.300	-0.000	-0.560
2020/01/31 17:18:33.2	357.600	-0.260	-0.060	-0.520
2020/01/31 17:18:33.3	357.590	-0.220	-0.130	-0.480
2020/01/31 17:18:33.4	357.590	-0.180	-0.190	-0.440
2020/01/31 17:18:33.5	357.570	-0.140	-0.250	-0.400
2020/01/31 17:18:33.6	357.560	-0.090	-0.300	-0.350
2020/01/31 17:18:33.7	357.540	-0.050	-0.350	-0.300
2020/01/31 17:18:33.8	357.530	-0.000	-0.400	-0.250
2020/01/31 17:18:33.9	357.510	0.040	-0.440	-0.190
2020/01/31 17:18:34.0	357.480	0.090	-0.480	-0.140
2020/01/31 17:18:34.1	357.450	0.130	-0.520	-0.090
2020/01/31 17:18:34.2	357.420	0.180	-0.550	-0.030
2020/01/31 17:18:34.3	357.390	0.220	-0.570	0.030
2020/01/31 17:18:34.4	357.360	0.260	-0.590	0.080
2020/01/31 17:18:34.5	357.320	0.300	-0.610	0.140
2020/01/31 17:18:34.6	357.270	0.330	-0.620	0.190
2020/01/31 17:18:34.7	357.230	0.370	-0.630	0.240
2020/01/31 17:18:34.8	357.180	0.400	-0.640	0.300
2020/01/31 17:18:34.9	357.130	0.420	-0.640	0.340
2020/01/31 17:18:35.0	357.080	0.440	-0.640	0.380
2020/01/31 17:18:35.1	357.030	0.460	-0.640	0.420
2020/01/31 17:18:35.2	356.980	0.470	-0.630	0.450
2020/01/31 17:18:35.3	356.930	0.480	-0.620	0.480
2020/01/31 17:18:35.4	356.880	0.490	-0.620	0.500
2020/01/31 17:18:35.5	356.830	0.490	-0.610	0.510
2020/01/31 17:18:35.6	356.780	0.480	-0.600	0.520
2020/01/31 17:18:35.7	356.730	0.470	-0.590	0.520
2020/01/31 17:18:35.8	356.680	0.460	-0.570	0.510
2020/01/31 17:18:35.9	356.630	0.440	-0.560	0.500
2020/01/31 17:18:36.0	356.590	0.420	-0.550	0.470
2020/01/31 17:18:36.1	356.560	0.400	-0.540	0.440
2020/01/31 17:18:36.2	356.520	0.370	-0.530	0.410
2020/01/31 17:18:36.3	356.500	0.340	-0.520	0.370
2020/01/31 17:18:36.4	356.470	0.310	-0.520	0.320
2020/01/31 17:18:36.5	356.450	0.280	-0.510	0.270
2020/01/31 17:18:36.6	356.430	0.240	-0.500	0.210
2020/01/31 17:18:36.7	356.420	0.210	-0.500	0.150
2020/01/31 17:18:36.8	356.430	0.170	-0.490	0.090
2020/01/31 17:18:36.9	356.440	0.140	-0.490	0.020
2020/01/31 17:18:37.0	356.440	0.100	-0.490	-0.050
2020/01/31 17:18:37.1	356.460	0.070	-0.490	-0.130
2020/01/31 17:18:37.2	356.480	0.040	-0.490	-0.200
2020/01/31 17:18:37.3	356.500	0.000	-0.490	-0.280
2020/01/31 17:18:37.4	356.540	-0.020	-0.500	-0.360
2020/01/31 17:18:37.5	356.570	-0.050	-0.500	-0.450
2020/01/31 17:18:37.6	356.620	-0.070	-0.500	-0.530
2020/01/31 17:18:37.7	356.670	-0.090	-0.510	-0.620
2020/01/31 17:18:37.8	356.710	-0.110	-0.510	-0.700
2020/01/31 17:18:37.9	356.770	-0.130	-0.510	-0.790
2020/01/31 17:18:38.0	356.830	-0.140	-0.510	-0.870
2020/01/31 17:18:38.1	356.890	-0.150	-0.510	-0.950
2020/01/31 17:18:38.2	356.950	-0.150	-0.510	-1.020
2020/01/31 17:18:38.3	357.010	-0.160	-0.500	-1.090
2020/01/31 17:18:38.4	357.070	-0.160	-0.490	-1.160
2020/01/31 17:18:38.5	357.130	-0.160	-0.480	-1.220
2020/01/31 17:18:38.6	357.180	-0.150	-0.470	-1.280
2020/01/31 17:18:38.7	357.240	-0.150	-0.450	-1.330
2020/01/31 17:18:38.8	357.290	-0.140	-0.430	-1.370
2020/01/31 17:18:38.9	357.340	-0.130	-0.410	-1.410
2020/01/31 17:18:39.0	357.380	-0.120	-0.380	-1.440
2020/01/31 17:18:39.1	357.420	-0.110	-0.350	-1.470
2020/01/31 17:18:39.2	357.460	-0.100	-0.320	-1.490
2020/01/31 17:18:39.3	357.500	-0.090	-0.290	-1.510
2020/01/31 17:18:39.4	357.520	-0.080	-0.250	-1.520
2020/01/31 17:18:39.5	357.550	-0.060	-0.220	-1.520
2020/01/31 17:18:39.6	357.570	-0.050	-0.180	-1.520
2020/01/31 17:18:39.7	357.580	-0.040	-0.140	-1.510
2020/01/31 17:18:39.8	357.600	-0.030	-0.100	-1.490
2020/01/31 17:18:39.9	357.600	-0.020	-0.060	-1.470
2020/01/31 17:18:40.0	357.600	-0.010	-0.020	-1.440
2020/01/31 17:18:40.1	357.600	0.000	0.020	-1.410
2020/01/31 17:18:40.2	357.590	0.010	0.060	-1.380
2020/01/31 17:18:40.3	357.580	0.020	0.090	-1.330
2020/01/31 17:18:40.4	357.560	0.020	0.130	-1.290
2020/01/31 17:18:40.5	357.540	0.030	0.160	-1.240
2020/01/31 17:18:40.6	357.510	0.030	0.190	-1.190
2020/01/31 17:18:40.7	357.490	0.030	0.220	-1.130
2020/01/31 17:18:40.8	357.450	0.030	0.240	-1.070
2020/01/31 17:18:40.9	357.420	0.030	0.260	-1.010
2020/01/31 17:18:41.0	357.390	0.030	0.280	-0.940
2020/01/31 17:18:41.1	357.350	0.030	0.290	-0.880
2020/01/31 17:18:41.2	357.310	0.030	0.300	-0.820
2020/01/31 17:18:41.3	357.280	0.020	0.310	-0.760
2020/01/31 17:18:41.4	357.240	0.020	0.310	-0.700
2020/01/31 17:18:41.5	357.200	0.010	0.310	-0.640
2020/01/31 17:18:41.6	357.160	0.010	0.300	-0.580
2020/01/31 17:18:41.7	357.120	0.010	0.290	-0.520
2020/01/31 17:18:41.8	357.090	0.000	0.280	-0.470
2020/01/31 17:18:41.9	357.050	-0.000	0.260	-0.420
2020/01/31 17:18:42.0	357.020	-0.000	0.240	-0.370
2020/01/31 17:18:42.1	356.980	-0.000	0.210	-0.330
2020/01/31 17:18:42.2	356.950	-0.010	0.180	-0.300
2020/01/31 17:18:42.3	356.920	-0.010	0.150	-0.260
2020/01/31 17:18:42.4	356.880	-0.000	0.110	-0.230
2020/01/31 17:18:42.5	356.860	-0.000	0.070	-0.210
2020/01/31 17:18:42.6	356.830	-0.000	0.030	-0.190
2020/01/31 17:18:42.7	356.800	0.000	-0.010	-0.170
2020/01/31 17:18:42.8	356.780	0.010	-0.050	-0.150
2020/01/31 17:18:42.9	356.760	0.010	-0.090	-0.140
2020/01/31 17:18:43.0	356.740	0.020	-0.140	-0.140
2020/01/31 17:18:43.1	356.720	0.030	-0.180	-0.130
2020/01/31 17:18:43.2	356.710	0.030	-0.230	-0.130
2020/01/31 17:18:43.3	356.690	0.040	-0.270	-0.130
2020/01/31 17:18:43.4	356.680	0.050	-0.310	-0.130
2020/01/31 17:18:43.5	356.670	0.050	-0.350	-0.130
2020/01/31 17:18:43.6	356.660	0.060	-0.390	-0.140
2020/01/31 17:18:43.7	356.650	0.070	-0.430	-0.140
2020/01/31 17:18:43.8	356.640	0.070	-0.470	-0.150
2020/01/31 17:18:43.9	356.640	0.080	-0.500	-0.160
2020/01/31 17:18:44.0	356.640	0.080	-0.540	-0.170
2020/01/31 17:18:44.1	356.640	0.080	-0.570	-0.190
2020/01/31 17:18:44.2	356.650	0.080	-0.600	-0.210
2020/01/31 17:18:44.3	356.660	0.080	-0.630	-0.230
2020/01/31 17:18:44.4	356.670	0.080	-0.660	-0.260
2020/01/31 17:18:44.5	356.680	0.070	-0.680	-0.280
2020/01/31 17:18:44.6	356.700	0.060	-0.710	-0.320
2020/01/31 17:18:44.7	356.720	0.050	-0.740	-0.350
2020/01/31 17:18:44.8	356.740	0.040	-0.760	-0.380
2020/01/31 17:18:44.9	356.760	0.030	-0.780	-0.430
2020/01/31 17:18:45.0	356.790	0.020	-0.800	-0.470
2020/01/31 17:18:45.1	356.820	0.000	-0.820	-0.510
2020/01/31 17:18:45.2	356.850	-0.020	-0.830	-0.560
2020/01/31 17:18:45.3	356.880	-0.030	-0.850	-0.600
2020/01/31 17:18:45.4	356.910	-0.050	-0.860	-0.650
2020/01/31 17:18:45.5	356.950	-0.070	-0.870	-0.700
2020/01/31 17:18:45.6	356.980	-0.090	-0.880	-0.740
2020/01/31 17:18:45.7	357.010	-0.110	-0.890	-0.790
2020/01/31 17:18:45.8	357.050	-0.130	-0.890	-0.840
2020/01/31 17:18:45.9	357.090	-0.150	-0.900	-0.880
2020/01/31 17:18:46.0	357.120	-0.170	-0.900	-0.920
2020/01/31 17:18:46.1	357.160	-0.190	-0.890	-0.960
2020/01/31 17:18:46.2	357.200	-0.200	-0.890	-1.000
2020/01/31 17:18:46.3	357.230	-0.220	-0.880	-1.030
2020/01/31 17:18:46.4	357.270	-0.230	-0.870	-1.060
2020/01/31 17:18:46.5	357.300	-0.250	-0.850	-1.090
2020/01/31 17:18:46.6	357.330	-0.260	-0.840	-1.110
2020/01/31 17:18:46.7	357.360	-0.270	-0.810	-1.130
2020/01/31 17:18:46.8	357.390	-0.280	-0.790	-1.140
2020/01/31 17:18:46.9	357.420	-0.290	-0.770	-1.150
2020/01/31 17:18:47.0	357.450	-0.290	-0.730	-1.160
2020/01/31 17:18:47.1	357.480	-0.300	-0.700	-1.170
2020/01/31 17:18:47.2	357.510	-0.300	-0.660	-1.180
2020/01/31 17:18:47.3	357.540	-0.300	-0.620	-1.180
2020/01/31 17:18:47.4	357.570	-0.300	-0.580	-1.180
2020/01/31 17:18:47.5	357.590	-0.290	-0.530	-1.170
2020/01/31 17:18:47.6	357.620	-0.290	-0.480	-1.170
2020/01/31 17:18:47.7	357.640	-0.280	-0.430	-1.160
2020/01/31 17:18:47.8	357.680	-0.270	-0.380	-1.140
2020/01/31 17:18:47.9	357.700	-0.260	-0.320	-1.130
2020/01/31 17:18:48.0	357.720	-0.240	-0.260	-1.110
2020/01/31 17:18:48.1	357.740	-0.230	-0.200	-1.090
2020/01/31 17:18:48.2	357.750	-0.210	-0.140	-1.060
2020/01/31 17:18:48.3	357.760	-0.190	-0.080	-1.040
2020/01/31 17:18:48.4	357.770	-0.170	-0.010	-1.000
2020/01/31 17:18:48.5	357.770	-0.150	0.050	-0.970
2020/01/31 17:18:48.6	357.770	-0.130	0.120	-0.930
2020/01/31 17:18:48.7	357.770	-0.110	0.180	-0.890
2020/01/31 17:18:48.8	357.780	-0.080	0.250	-0.830
2020/01/31 17:18:48.9	357.770	-0.060	0.320	-0.780
2020/01/31 17:18:49.0	357.750	-0.030	0.380	-0.730
2020/01/31 17:18:49.1	357.740	-0.010	0.450	-0.670
2020/01/31 17:18:49.2	357.720	0.010	0.510	-0.610
2020/01/31 17:18:49.3	357.690	0.040	0.570	-0.540
2020/01/31 17:18:49.4	357.670	0.060	0.640	-0.480
2020/01/31 17:18:49.5	357.640	0.080	0.690	-0.410
2020/01/31 17:18:49.6	357.610	0.110	0.740	-0.350
2020/01/31 17:18:49.7	357.570	0.130	0.790	-0.280
2020/01/31 17:18:49.8	357.540	0.150	0.840	-0.210
2020/01/31 17:18:49.9	357.500	0.160	0.870	-0.140
2020/01/31 17:18:50.0	357.460	0.180	0.900	-0.080
2020/01/31 17:18:50.1	357.420	0.190	0.930	-0.010
2020/01/31 17:18:50.2	357.380	0.200	0.940	0.050
2020/01/31 17:18:50.3	357.340	0.210	0.950	0.100
2020/01/31 17:18:50.4	357.300	0.220	0.950	0.160
2020/01/31 17:18:50.5	357.250	0.230	0.940	0.210
2020/01/31 17:18:50.6	357.210	0.230	0.920	0.260
2020/01/31 17:18:50.7	357.170	0.230	0.900	0.300
2020/01/31 17:18:50.8	357.120	0.230	0.860	0.330
2020/01/31 17:18:50.9	357.080	0.230	0.820	0.360
2020/01/31 17:18:51.0	357.040	0.230	0.770	0.380
2020/01/31 17:18:51.1	357.000	0.220	0.710	0.400
2020/01/31 17:18:51.2	356.970	0.220	0.640	0.400
2020/01/31 17:18:51.3	356.930	0.210	0.570	0.400
2020/01/31 17:18:51.4	356.900	0.200	0.490	0.390
2020/01/31 17:18:51.5	356.870	0.190	0.400	0.380
2020/01/31 17:18:51.6	356.850	0.180	0.310	0.350
2020/01/31 17:18:51.7	356.820	0.170	0.220	0.320
2020/01/31 17:18:51.8	356.800	0.160	0.120	0.290
2020/01/31 17:18:51.9	356.780	0.150	0.020	0.250
2020/01/31 17:18:52.0	356.760	0.140	-0.090	0.210
2020/01/31 17:18:52.1	356.750	0.120	-0.190	0.160
2020/01/31 17:18:52.2	356.740	0.110	-0.290	0.100
2020/01/31 17:18:52.3	356.730	0.100	-0.390	0.040
2020/01/31 17:18:52.4	356.720	0.090	-0.500	-0.020
2020/01/31 17:18:52.5	356.720	0.070	-0.590	-0.080
2020/01/31 17:18:52.6	356.720	0.060	-0.690	-0.150
2020/01/31 17:18:52.7	356.720	0.050	-0.780	-0.210
2020/01/31 17:18:52.8	356.720	0.040	-0.870	-0.290
2020/01/31 17:18:52.9	356.730	0.030	-0.950	-0.350
2020/01/31 17:18:53.0	356.730	0.020	-1.020	-0.420
2020/01/31 17:18:53.1	356.740	0.010	-1.090	-0.490
2020/01/31 17:18:53.2	356.760	-0.000	-1.160	-0.550
2020/01/31 17:18:53.3	356.770	-0.010	-1.220	-0.610
2020/01/31 17:18:53.4	356.780	-0.020	-1.270	-0.680
2020/01/31 17:18:53.5	356.800	-0.030	-1.320	-0.740
2020/01/31 17:18:53.6	356.820	-0.030	-1.360	-0.790
2020/01/31 17:18:53.7	356.840	-0.040	-1.390	-0.850
2020/01/31 17:18:53.8	356.860	-0.050	-1.410	-0.900
2020/01/31 17:18:53.9	356.880	-0.050	-1.440	-0.950
2020/01/31 17:18:54.0	356.910	-0.050	-1.450	-1.000
2020/01/31 17:18:54.1	356.940	-0.060	-1.470	-1.050
2020/01/31 17:18:54.2	356.980	-0.060	-1.470	-1.100
2020/01/31 17:18:54.3	357.020	-0.060	-1.470	-1.150
2020/01/31 17:18:54.4	357.050	-0.060	-1.470	-1.200
2020/01/31 17:18:54.5	357.100	-0.060	-1.460	-1.240
2020/01/31 17:18:54.6	357.140	-0.050	-1.450	-1.280
2020/01/31 17:18:54.7	357.190	-0.050	-1.440	-1.330
2020/01/31 17:18:54.8	357.250	-0.040	-1.420	-1.370
2020/01/31 17:18:54.9	357.300	-0.040	-1.390	-1.400
2020/01/31 17:18:55.0	357.350	-0.030	-1.370	-1.440
2020/01/31 17:18:55.1	357.400	-0.020	-1.340	-1.470
2020/01/31 17:18:55.2	357.460	-0.010	-1.300	-1.500
2020/01/31 17:18:55.3	357.510	0.010	-1.270	-1.520
2020/01/31 17:18:55.4	357.560	0.020	-1.230	-1.540
2020/01/31 17:18:55.5	357.610	0.040	-1.190	-1.560
2020/01/31 17:18:55.6	357.670	0.060	-1.140	-1.560
2020/01/31 17:18:55.7	357.720	0.070	-1.090	-1.560
2020/01/31 17:18:55.8	357.770	0.090	-1.040	-1.560
2020/01/31 17:18:55.9	357.820	0.110	-0.990	-1.540
2020/01/31 17:18:56.0	357.870	0.130	-0.930	-1.520
2020/01/31 17:18:56.1	357.910	0.150	-0.870	-1.500
2020/01/31 17:18:56.2	357.950	0.170	-0.810	-1.470
2020/01/31 17:18:56.3	357.990	0.180	-0.740	-1.430
2020/01/31 17:18:56.4	358.020	0.200	-0.680	-1.390
2020/01/31 17:18:56.5	358.050	0.220	-0.610	-1.340
2020/01/31 17:18:56.6	358.080	0.230	-0.540	-1.290
2020/01/31 17:18:56.7	358.110	0.240	-0.470	-1.240
2020/01/31 17:18:56.8	358.130	0.250	-0.400	-1.170
2020/01/31 17:18:56.9	358.150	0.260	-0.330	-1.120
2020/01/31 17:18:57.0	358.170	0.270	-0.260	-1.060
2020/01/31 17:18:57.1	358.180	0.270	-0.190	-1.000
2020/01/31 17:18:57.2	358.190	0.270	-0.120	-0.940
2020/01/31 17:18:57.3	358.200	0.270	-0.060	-0.870
2020/01/31 17:18:57.4	358.200	0.270	0.010	-0.810
2020/01/31 17:18:57.5	358.210	0.270	0.080	-0.750
2020/01/31 17:18:57.6	358.210	0.260	0.140	-0.690
2020/01/31 17:18:57.7	358.200	0.250	0.200	-0.630
2020/01/31 17:18:57.8	358.200	0.240	0.260	-0.560
2020/01/31 17:18:57.9	358.190	0.230	0.320	-0.500
2020/01/31 17:18:58.0	358.180	0.210	0.370	-0.440
2020/01/31 17:18:58.1	358.170	0.190	0.420	-0.380
2020/01/31 17:18:58.2	358.150	0.180	0.470	-0.320
2020/01/31 17:18:58.3	358.130	0.160	0.520	-0.270
2020/01/31 17:18:58.4	358.110	0.140	0.560	-0.210
2020/01/31 17:18:58.5	358.090	0.110	0.600	-0.150
2020/01/31 17:18:58.6	358.070	0.090	0.630	-0.100
2020/01/31 17:18:58.7	358.040	0.070	0.660	-0.040
2020/01/31 17:18:58.8	358.020	0.040	0.690	0.010
2020/01/31 17:18:58.9	357.990	0.020	0.720	0.070
2020/01/31 17:18:59.0	357.960	-0.010	0.740	0.120
2020/01/31 17:18:59.1	357.920	-0.030	0.760	0.170
2020/01/31 17:18:59.2	357.890	-0.060	0.770	0.210
2020/01/31 17:18:59.3	357.850	-0.080	0.780	0.260
2020/01/31 17:18:59.4	357.810	-0.100	0.790	0.300
2020/01/31 17:18:59.5	357.770	-0.130	0.800	0.340
2020/01/31 17:18:59.6	357.730	-0.150	0.800	0.380
2020/01/31 17:18:59.7	357.690	-0.170	0.800	0.410
2020/01/31 17:18:59.8	357.650	-0.190	0.790	0.450
2020/01/31 17:18:59.9	357.610	-0.210	0.790	0.480
2020/01/31 17:19:00.0	357.570	-0.230	0.780	0.500
2020/01/31 17:19:00.1	357.530	-0.250	0.760	0.520
2020/01/31 17:19:00.2	357.500	-0.270	0.740	0.530
2020/01/31 17:19:00.3	357.460	-0.280	0.720	0.540
2020/01/31 17:19:00.4	357.430	-0.300	0.700	0.550
2020/01/31 17:19:00.5	357.390	-0.310	0.670	0.550
2020/01/31 17:19:00.6	357.360	-0.320	0.630	0.550
2020/01/31 17:19:00.7	357.330	-0.340	0.600	0.550
2020/01/31 17:19:00.8	357.290	-0.350	0.560	0.540
2020/01/31 17:19:00.9	357.260	-0.350	0.520	0.530
2020/01/31 17:19:01.0	357.240	-0.360	0.470	0.510
2020/01/31 17:19:01.1	357.210	-0.370	0.420	0.490
2020/01/31 17:19:01.2	357.190	-0.370	0.370	0.470
2020/01/31 17:19:01.3	357.170	-0.380	0.320	0.440
2020/01/31 17:19:01.4	357.150	-0.380	0.260	0.410
2020/01/31 17:19:01.5	357.130	-0.380	0.200	0.380
2020/01/31 17:19:01.6	357.120	-0.390	0.140	0.340
2020/01/31 17:19:01.7	357.100	-0.390	0.080	0.300
2020/01/31 17:19:01.8	357.090	-0.390	0.010	0.250
2020/01/31 17:19:01.9	357.080	-0.380	-0.060	0.200
2020/01/31 17:19:02.0	357.070	-0.380	-0.130	0.150
2020/01/31 17:19:02.1	357.070	-0.380	-0.200	0.090
2020/01/31 17:19:02.2	357.060	-0.370	-0.270	0.030
2020/01/31 17:19:02.3	357.060	-0.370	-0.340	-0.020
2020/01/31 17:19:02.4	357.070	-0.360	-0.410	-0.090
2020/01/31 17:19:02.5	357.070	-0.350	-0.480	-0.150
2020/01/31 17:19:02.6	357.070	-0.340	-0.540	-0.210
2020/01/31 17:19:02.7	357.080	-0.330	-0.610	-0.270
2020/01/31 17:19:02.8	357.090	-0.320	-0.670	-0.330
2020/01/31 17:19:02.9	357.100	-0.300	-0.740	-0.390
2020/01/31 17:19:03.0	357.110	-0.290	-0.800	-0.450
2020/01/31 17:19:03.1	357.120	-0.270	-0.850	-0.510
2020/01/31 17:19:03.2	357.130	-0.250	-0.900	-0.560
2020/01/31 17:19:03.3	357.140	-0.230	-0.950	-0.610
2020/01/31 17:19:03.4	357.160	-0.210	-0.990	-0.660
2020/01/31 17:19:03.5	357.170	-0.180	-1.030	-0.700
2020/01/31 17:19:03.6	357.190	-0.160	-1.070	-0.740
2020/01/31 17:19:03.7	357.200	-0.130	-1.100	-0.770
2020/01/31 17:19:03.8	357.220	-0.100	-1.130	-0.800
2020/01/31 17:19:03.9	357.240	-0.070	-1.150	-0.830
2020/01/31 17:19:04.0	357.250	-0.040	-1.160	-0.850
2020/01/31 17:19:04.1	357.270	-0.010	-1.170	-0.870
2020/01/31 17:19:04.2	357.290	0.030	-1.180	-0.880
2020/01/31 17:19:04.3	357.300	0.060	-1.190	-0.900
2020/01/31 17:19:04.4	357.320	0.100	-1.190	-0.910
2020/01/31 17:19:04.5	357.340	0.130	-1.180	-0.910
2020/01/31 17:19:04.6	357.360	0.170	-1.180	-0.920
2020/01/31 17:19:04.7	357.380	0.200	-1.170	-0.920
2020/01/31 17:19:04.8	357.400	0.240	-1.150	-0.910
2020/01/31 17:19:04.9	357.430	0.280	-1.140	-0.910
2020/01/31 17:19:05.0	357.450	0.310	-1.120	-0.910
2020/01/31 17:19:05.1	357.480	0.350	-1.110	-0.910
2020/01/31 17:19:05.2	357.500	0.390	-1.090	-0.900
2020/01/31 17:19:05.3	357.530	0.420	-1.060	-0.900
2020/01/31 17:19:05.4	357.560	0.460	-1.040	-0.890
2020/01/31 17:19:05.5	357.590	0.490	-1.010	-0.880
2020/01/31 17:19:05.6	357.620	0.520	-0.990	-0.870
2020/01/31 17:19:05.7	357.650	0.550	-0.960	-0.860
2020/01/31 17:19:05.8	357.680	0.580	-0.920	-0.840
2020/01/31 17:19:05.9	357.710	0.610	-0.890	-0.820
2020/01/31 17:19:06.0	357.740	0.630	-0.850	-0.800
2020/01/31 17:19:06.1	357.760	0.650	-0.810	-0.770
2020/01/31 17:19:06.2	357.780	0.670	-0.770	-0.740
2020/01/31 17:19:06.3	357.800	0.680	-0.720	-0.710
2020/01/31 17:19:06.4	357.820	0.690	-0.670	-0.680
2020/01/31 17:19:06.5	357.830	0.700	-0.620	-0.640
2020/01/31 17:19:06.6	357.840	0.700	-0.570	-0.600
2020/01/31 17:19:06.7	357.850	0.700	-0.510	-0.560
2020/01/31 17:19:06.8	357.850	0.690	-0.460	-0.510
2020/01/31 17:19:06.9	357.850	0.680	-0.400	-0.470
2020/01/31 17:19:07.0	357.850	0.670	-0.340	-0.420
2020/01/31 17:19:07.1	357.850	0.650	-0.280	-0.380
2020/01/31 17:19:07.2	357.840	0.620	-0.210	-0.340
2020/01/31 17:19:07.3	357.830	0.600	-0.150	-0.290
2020/01/31 17:19:07.4	357.810	0.560	-0.090	-0.250
2020/01/31 17:19:07.5	357.790	0.530	-0.020	-0.210
2020/01/31 17:19:07.6	357.780	0.490	0.040	-0.170
2020/01/31 17:19:07.7	357.760	0.450	0.100	-0.130
2020/01/31 17:19:07.8	357.730	0.400	0.160	-0.090
2020/01/31 17:19:07.9	357.710	0.350	0.210	-0.060
2020/01/31 17:19:08.0	357.690	0.300	0.260	-0.030
2020/01/31 17:19:08.1	357.660	0.250	0.310	-0.000
2020/01/31 17:19:08.2	357.640	0.200	0.350	0.020
2020/01/31 17:19:08.3	357.620	0.150	0.380	0.040
2020/01/31 17:19:08.4	357.600	0.090	0.410	0.060
2020/01/31 17:19:08.5	357.580	0.040	0.440	0.070
2020/01/31 17:19:08.6	357.560	-0.020	0.460	0.080
2020/01/31 17:19:08.7	357.540	-0.070	0.470	0.090
2020/01/31 17:19:08.8	357.520	-0.120	0.470	0.080
2020/01/31 17:19:08.9	357.510	-0.170	0.470	0.080
2020/01/31 17:19:09.0	357.500	-0.220	0.460	0.070
2020/01/31 17:19:09.1	357.500	-0.260	0.450	0.060
2020/01/31 17:19:09.2	357.500	-0.300	0.420	0.040
2020/01/31 17:19:09.3	357.500	-0.340	0.390	0.010
2020/01/31 17:19:09.4	357.500	-0.370	0.360	-0.010
2020/01/31 17:19:09.5	357.510	-0.400	0.310	-0.050
2020/01/31 17:19:09.6	357.530	-0.430	0.260	-0.080
2020/01/31 17:19:09.7	357.540	-0.450	0.210	-0.120
2020/01/31 17:19:09.8	357.570	-0.470	0.160	-0.160
2020/01/31 17:19:09.9	357.590	-0.490	0.100	-0.200
2020/01/31 17:19:10.0	357.610	-0.500	0.040	-0.250
2020/01/31 17:19:10.1	357.640	-0.510	-0.020	-0.300
2020/01/31 17:19:10.2	357.660	-0.510	-0.080	-0.350
2020/01/31 17:19:10.3	357.690	-0.520	-0.140	-0.390
2020/01/31 17:19:10.4	357.710	-0.510	-0.200	-0.440
2020/01/31 17:19:10.5	357.740	-0.510	-0.250	-0.490
2020/01/31 17:19:10.6	357.760	-0.500	-0.300	-0.530
2020/01/31 17:19:10.7	357.780	-0.490	-0.350	-0.570
2020/01/31 17:19:10.8	357.810	-0.480	-0.390	-0.610
2020/01/31 17:19:10.9	357.820	-0.460	-0.420	-0.650
2020/01/31 17:19:11.0	357.840	-0.440	-0.450	-0.680
2020/01/31 17:19:11.1	357.850	-0.420	-0.460	-0.710
2020/01/31 17:19:11.2	357.860	-0.400	-0.470	-0.730
2020/01/31 17:19:11.3	357.870	-0.380	-0.470	-0.740
2020/01/31 17:19:11.4	357.870	-0.360	-0.470	-0.750
2020/01/31 17:19:11.5	357.870	-0.330	-0.450	-0.750
2020/01/31 17:19:11.6	357.870	-0.310	-0.420	-0.750
2020/01/31 17:19:11.7	357.860	-0.280	-0.390	-0.740
2020/01/31 17:19:11.8	357.860	-0.260	-0.350	-0.720
2020/01/31 17:19:11.9	357.840	-0.240	-0.300	-0.700
2020/01/31 17:19:12.0	357.820	-0.210	-0.250	-0.670
2020/01/31 17:19:12.1	357.800	-0.190	-0.190	-0.630
2020/01/31 17:19:12.2	357.770	-0.170	-0.130	-0.590
2020/01/31 17:19:12.3	357.740	-0.150	-0.060	-0.540
2020/01/31 17:19:12.4	357.710	-0.130	0.000	-0.490
2020/01/31 17:19:12.5	357.680	-0.110	0.060	-0.440
2020/01/31 17:19:12.6	357.640	-0.100	0.130	-0.380
2020/01/31 17:19:12.7	357.610	-0.090	0.180	-0.320
2020/01/31 17:19:12.8	357.560	-0.070	0.230	-0.260
2020/01/31 17:19:12.9	357.520	-0.060	0.280	-0.200
2020/01/31 17:19:13.0	357.480	-0.050	0.320	-0.140
2020/01/31 17:19:13.1	357.450	-0.040	0.360	-0.090
2020/01/31 17:19:13.2	357.420	-0.040	0.380	-0.030
2020/01/31 17:19:13.3	357.390	-0.030	0.400	0.010
2020/01/31 17:19:13.4	357.360	-0.020	0.410	0.060
2020/01/31 17:19:13.5	357.330	-0.020	0.410	0.100
2020/01/31 17:19:13.6	357.300	-0.020	0.400	0.140
2020/01/31 17:19:13.7	357.280	-0.010	0.390	0.170
2020/01/31 17:19:13.8	357.240	-0.010	0.360	0.190
2020/01/31 17:19:13.9	357.220	-0.010	0.330	0.210
2020/01/31 17:19:14.0	357.200	-0.010	0.290	0.230
2020/01/31 17:19:14.1	357.180	-0.010	0.250	0.230
2020/01/31 17:19:14.2	357.160	-0.000	0.200	0.240
2020/01/31 17:19:14.3	357.140	-0.000	0.140	0.240
2020/01/31 17:19:14.4	357.120	-0.000	0.080	0.230
2020/01/31 17:19:14.5	357.100	0.000	0.010	0.220
2020/01/31 17:19:14.6	357.080	0.010	-0.060	0.210
2020/01/31 17:19:14.7	357.060	0.010	-0.120	0.200
2020/01/31 17:19:14.8	357.050	0.010	-0.200	0.180
2020/01/31 17:19:14.9	357.030	0.020	-0.260	0.160
2020/01/31 17:19:15.0	357.010	0.030	-0.330	0.150
2020/01/31 17:19:15.1	356.990	0.040	-0.400	0.130
2020/01/31 17:19:15.2	356.980	0.040	-0.460	0.110
2020/01/31 17:19:15.3	356.960	0.050	-0.520	0.090
2020/01/31 17:19:15.4	356.940	0.070	-0.570	0.070
2020/01/31 17:19:15.5	356.930	0.080	-0.620	0.050
2020/01/31 17:19:15.6	356.920	0.090	-0.670	0.030
2020/01/31 17:19:15.7	356.910	0.110	-0.710	0.010
2020/01/31 17:19:15.8	356.890	0.120	-0.740	-0.010
2020/01/31 17:19:15.9	356.890	0.140	-0.780	-0.030
2020/01/31 17:19:16.0	356.890	0.150	-0.800	-0.060
2020/01/31 17:19:16.1	356.890	0.170	-0.820	-0.080
2020/01/31 17:19:16.2	356.890	0.190	-0.840	-0.100
2020/01/31 17:19:16.3	356.900	0.210	-0.860	-0.130
2020/01/31 17:19:16.4	356.910	0.230	-0.870	-0.160
2020/01/31 17:19:16.5	356.930	0.240	-0.870	-0.190
2020/01/31 17:19:16.6	356.940	0.260	-0.880	-0.220
2020/01/31 17:19:16.7	356.960	0.280	-0.880	-0.250
2020/01/31 17:19:16.8	356.990	0.300	-0.880	-0.290
2020/01/31 17:19:16.9	357.020	0.310	-0.880	-0.320
2020/01/31 17:19:17.0	357.050	0.330	-0.870	-0.360
2020/01/31 17:19:17.1	357.080	0.340	-0.860	-0.410
2020/01/31 17:19:17.2	357.110	0.350	-0.850	-0.450
2020/01/31 17:19:17.3	357.150	0.360	-0.850	-0.490
2020/01/31 17:19:17.4	357.180	0.370	-0.840	-0.540
2020/01/31 17:19:17.5	357.220	0.370	-0.830	-0.580
2020/01/31 17:19:17.6	357.260	0.370	-0.820	-0.630
2020/01/31 17:19:17.7	357.290	0.370	-0.810	-0.680
2020/01/31 17:19:17.8	357.340	0.370	-0.790	-0.720
2020/01/31 17:19:17.9	357.380	0.370	-0.780	-0.770
2020/01/31 17:19:18.0	357.420	0.360	-0.780	-0.810
2020/01/31 17:19:18.1	357.460	0.350	-0.770	-0.860
2020/01/31 17:19:18.2	357.510	0.340	-0.760	-0.900
2020/01/31 17:19:18.3	357.550	0.330	-0.750	-0.950
2020/01/31 17:19:18.4	357.600	0.320	-0.740	-0.990
2020/01/31 17:19:18.5	357.650	0.300	-0.740	-1.030
2020/01/31 17:19:18.6	357.690	0.290	-0.730	-1.070
2020/01/31 17:19:18.7	357.740	0.270	-0.730	-1.110
2020/01/31 17:19:18.8	357.810	0.250	-0.720	-1.140
2020/01/31 17:19:18.9	357.860	0.220	-0.720	-1.170
2020/01/31 17:19:19.0	357.900	0.200	-0.710	-1.200
2020/01/31 17:19:19.1	357.950	0.180	-0.710	-1.230
2020/01/31 17:19:19.2	358.000	0.150	-0.700	-1.260
2020/01/31 17:19:19.3	358.040	0.120	-0.690	-1.280
2020/01/31 17:19:19.4	358.090	0.100	-0.680	-1.310
2020/01/31 17:19:19.5	358.130	0.070	-0.670	-1.320
2020/01/31 17:19:19.6	358.170	0.040	-0.660	-1.340
2020/01/31 17:19:19.7	358.210	0.010	-0.640	-1.350
2020/01/31 17:19:19.8	358.260	-0.020	-0.620	-1.360
2020/01/31 17:19:19.9	358.290	-0.050	-0.600	-1.360
2020/01/31 17:19:20.0	358.320	-0.080	-0.570	-1.370
2020/01/31 17:19:20.1	358.340	-0.110	-0.530	-1.360
2020/01/31 17:19:20.2	358.360	-0.140	-0.500	-1.360
2020/01/31 17:19:20.3	358.370	-0.170	-0.450	-1.340
2020/01/31 17:19:20.4	358.380	-0.200	-0.400	-1.330
2020/01/31 17:19:20.5	358.380	-0.240	-0.350	-1.300
2020/01/31 17:19:20.6	358.380	-0.270	-0.290	-1.270
2020/01/31 17:19:20.7	358.370	-0.300	-0.220	-1.240
2020/01/31 17:19:20.8	358.370	-0.330	-0.150	-1.190
2020/01/31 17:19:20.9	358.350	-0.360	-0.070	-1.150
2020/01/31 17:19:21.0	358.330	-0.390	0.010	-1.090
2020/01/31 17:19:21.1	358.300	-0.410	0.090	-1.040
2020/01/31 17:19:21.2	358.260	-0.440	0.180	-0.980
2020/01/31 17:19:21.3	358.220	-0.470	0.260	-0.910
2020/01/31 17:19:21.4	358.180	-0.490	0.350	-0.840
2020/01/31 17:19:21.5	358.130	-0.510	0.440	-0.760
2020/01/31 17:19:21.6	358.070	-0.530	0.530	-0.680
2020/01/31 17:19:21.7	358.020	-0.550	0.620	-0.600
2020/01/31 17:19:21.8	357.960	-0.570	0.700	-0.510
2020/01/31 17:19:21.9	357.890	-0.580	0.780	-0.420
2020/01/31 17:19:22.0	357.830	-0.600	0.860	-0.330
2020/01/31 17:19:22.1	357.770	-0.600	0.930	-0.250
2020/01/31 17:19:22.2	357.700	-0.610	0.990	-0.160
2020/01/31 17:19:22.3	357.640	-0.610	1.050	-0.070
2020/01/31 17:19:22.4	357.570	-0.610	1.090	0.010
2020/01/31 17:19:22.5	357.510	-0.610	1.130	0.090
2020/01/31 17:19:22.6	357.450	-0.600	1.150	0.170
2020/01/31 17:19:22.7	357.390	-0.590	1.170	0.240
2020/01/31 17:19:22.8	357.320	-0.580	1.170	0.300
2020/01/31 17:19:22.9	357.260	-0.560	1.160	0.360
2020/01/31 17:19:23.0	357.210	-0.540	1.140	0.420
2020/01/31 17:19:23.1	357.160	-0.510	1.110	0.460
2020/01/31 17:19:23.2	357.120	-0.480	1.060	0.500
2020/01/31 17:19:23.3	357.080	-0.450	1.010	0.530
2020/01/31 17:19:23.4	357.040	-0.410	0.940	0.550
2020/01/31 17:19:23.5	357.010	-0.370	0.860	0.570
2020/01/31 17:19:23.6	356.980	-0.330	0.780	0.570
2020/01/31 17:19:23.7	356.950	-0.280	0.680	0.570
2020/01/31 17:19:23.8	356.910	-0.230	0.580	0.570
2020/01/31 17:19:23.9	356.880	-0.180	0.470	0.550
2020/01/31 17:19:24.0	356.860	-0.130	0.360	0.530
2020/01/31 17:19:24.1	356.840	-0.070	0.240	0.510
2020/01/31 17:19:24.2	356.830	-0.020	0.110	0.480
2020/01/31 17:19:24.3	356.810	0.040	-0.010	0.450
2020/01/31 17:19:24.4	356.800	0.090	-0.140	0.420
2020/01/31 17:19:24.5	356.780	0.150	-0.260	0.380
2020/01/31 17:19:24.6	356.770	0.200	-0.390	0.350
2020/01/31 17:19:24.7	356.760	0.260	-0.510	0.310
2020/01/31 17:19:24.8	356.750	0.310	-0.620	0.270
2020/01/31 17:19:24.9	356.750	0.360	-0.740	0.230
2020/01/31 17:19:25.0	356.740	0.410	-0.840	0.190
2020/01/31 17:19:25.1	356.740	0.460	-0.940	0.150
2020/01/31 17:19:25.2	356.740	0.500	-1.030	0.110
2020/01/31 17:19:25.3	356.750	0.540	-1.120	0.060
2020/01/31 17:19:25.4	356.750	0.580	-1.190	0.020
2020/01/31 17:19:25.5	356.760	0.610	-1.260	-0.020
2020/01/31 17:19:25.6	356.780	0.640	-1.320	-0.060
2020/01/31 17:19:25.7	356.800	0.660	-1.370	-0.100
2020/01/31 17:19:25.8	356.820	0.680	-1.410	-0.140
2020/01/31 17:19:25.9	356.850	0.700	-1.450	-0.180
2020/01/31 17:19:26.0	356.880	0.720	-1.470	-0.230
2020/01/31 17:19:26.1	356.910	0.730	-1.490	-0.270
2020/01/31 17:19:26.2	356.940	0.730	-1.500	-0.310
2020/01/31 17:19:26.3	356.980	0.730	-1.510	-0.360
2020/01/31 17:19:26.4	357.030	0.730	-1.510	-0.400
2020/01/31 17:19:26.5	357.070	0.720	-1.500	-0.440
2020/01/31 17:19:26.6	357.120	0.710	-1.480	-0.490
2020/01/31 17:19:26.7	357.170	0.700	-1.460	-0.530
2020/01/31 17:19:26.8	357.220	0.680	-1.430	-0.570
2020/01/31 17:19:26.9	357.270	0.660	-1.390	-0.610
2020/01/31 17:19:27.0	357.320	0.630	-1.350	-0.650
2020/01/31 17:19:27.1	357.370	0.600	-1.310	-0.690
2020/01/31 17:19:27.2	357.420	0.570	-1.260	-0.730
2020/01/31 17:19:27.3	357.470	0.530	-1.200	-0.770
2020/01/31 17:19:27.4	357.510	0.490	-1.140	-0.800
2020/01/31 17:19:27.5	357.560	0.440	-1.070	-0.830
2020/01/31 17:19:27.6	357.610	0.400	-1.010	-0.870
2020/01/31 17:19:27.7	357.650	0.350	-0.930	-0.900
2020/01/31 17:19:27.8	357.700	0.300	-0.850	-0.920
2020/01/31 17:19:27.9	357.740	0.250	-0.770	-0.940
2020/01/31 17:19:28.0	357.770	0.190	-0.690	-0.960
2020/01/31 17:19:28.1	357.800	0.130	-0.600	-0.980
2020/01/31 17:19:28.2	357.830	0.080	-0.510	-1.000
2020/01/31 17:19:28.3	357.860	0.020	-0.420	-1.000
2020/01/31 17:19:28.4	357.880	-0.040	-0.320	-1.010
2020/01/31 17:19:28.5	357.890	-0.100	-0.230	-1.010
2020/01/31 17:19:28.6	357.900	-0.150	-0.130	-1.010
2020/01/31 17:19:28.7	357.910	-0.210	-0.030	-1.000
2020/01/31 17:19:28.8	357.910	-0.270	0.070	-0.980
2020/01/31 17:19:28.9	357.910	-0.320	0.160	-0.960
2020/01/31 17:19:29.0	357.900	-0.370	0.260	-0.940
2020/01/31 17:19:29.1	357.890	-0.420	0.360	-0.910
2020/01/31 17:19:29.2	357.880	-0.470	0.450	-0.880
2020/01/31 17:19:29.3	357.860	-0.510	0.540	-0.840
2020/01/31 17:19:29.4	357.840	-0.560	0.630	-0.800
2020/01/31 17:19:29.5	357.810	-0.590	0.710	-0.760
2020/01/31 17:19:29.6	357.780	-0.630	0.790	-0.720
2020/01/31 17:19:29.7	357.750	-0.660	0.860	-0.670
2020/01/31 17:19:29.8	357.710	-0.690	0.940	-0.620
2020/01/31 17:19:29.9	357.670	-0.710	1.000	-0.570
2020/01/31 17:19:30.0	357.630	-0.730	1.050	-0.520
2020/01/31 17:19:30.1	357.580	-0.750	1.090	-0.470
2020/01/31 17:19:30.2	357.530	-0.760	1.130	-0.420
2020/01/31 17:19:30.3	357.490	-0.760	1.150	-0.370
2020/01/31 17:19:30.4	357.440	-0.770	1.170	-0.320
2020/01/31 17:19:30.5	357.390	-0.760	1.170	-0.280
2020/01/31 17:19:30.6	357.340	-0.760	1.170	-0.230
2020/01/31 17:19:30.7	357.290	-0.750	1.150	-0.190
2020/01/31 17:19:30.8	357.240	-0.730	1.120	-0.140
2020/01/31 17:19:30.9	357.190	-0.710	1.080	-0.110
2020/01/31 17:19:31.0	357.140	-0.690	1.030	-0.080
2020/01/31 17:19:31.1	357.100	-0.660	0.970	-0.050
2020/01/31 17:19:31.2	357.050	-0.630	0.900	-0.020
2020/01/31 17:19:31.3	357.010	-0.600	0.820	-0.010
2020/01/31 17:19:31.4	356.970	-0.560	0.730	0.010
2020/01/31 17:19:31.5	356.930	-0.520	0.630	0.010
2020/01/31 17:19:31.6	356.900	-0.480	0.520	0.010
2020/01/31 17:19:31.7	356.870	-0.440	0.410	0.010
2020/01/31 17:19:31.8	356.840	-0.390	0.290	-0.000
2020/01/31 17:19:31.9	356.820	-0.340	0.160	-0.020
2020/01/31 17:19:32.0	356.810	-0.290	0.030	-0.050
2020/01/31 17:19:32.1	356.790	-0.240	-0.100	-0.070
2020/01/31 17:19:32.2	356.790	-0.180	-0.240	-0.110
2020/01/31 17:19:32.3	356.780	-0.130	-0.380	-0.150
2020/01/31 17:19:32.4	356.790	-0.070	-0.520	-0.190
2020/01/31 17:19:32.5	356.790	-0.020	-0.650	-0.230
2020/01/31 17:19:32.6	356.800	0.040	-0.790	-0.280
2020/01/31 17:19:32.7	356.810	0.090	-0.920	-0.330
2020/01/31 17:19:32.8	356.820	0.140	-1.040	-0.380
2020/01/31 17:19:32.9	356.840	0.200	-1.160	-0.430
2020/01/31 17:19:33.0	356.870	0.250	-1.270	-0.480
2020/01/31 17:19:33.1	356.890	0.300	-1.370	-0.520
2020/01/31 17:19:33.2	356.920	0.350	-1.460	-0.570
2020/01/31 17:19:33.3	356.940	0.390	-1.540	-0.610
2020/01/31 17:19:33.4	356.970	0.430	-1.610	-0.650
2020/01/31 17:19:33.5	357.000	0.470	-1.660	-0.680
2020/01/31 17:19:33.6	357.030	0.510	-1.700	-0.710
2020/01/31 17:19:33.7	357.060	0.540	-1.730	-0.740
2020/01/31 17:19:33.8	357.080	0.570	-1.740	-0.750
2020/01/31 17:19:33.9	357.110	0.590	-1.730	-0.770
2020/01/31 17:19:34.0	357.130	0.610	-1.710	-0.780
2020/01/31 17:19:34.1	357.150	0.630	-1.680	-0.790
2020/01/31 17:19:34.2	357.170	0.640	-1.640	-0.790
2020/01/31 17:19:34.3	357.190	0.640	-1.580	-0.790
2020/01/31 17:19:34.4	357.200	0.640	-1.510	-0.780
2020/01/31 17:19:34.5	357.210	0.640	-1.430	-0.770
2020/01/31 17:19:34.6	357.220	0.630	-1.330	-0.760
2020/01/31 17:19:34.7	357.230	0.610	-1.230	-0.740
2020/01/31 17:19:34.8	357.250	0.600	-1.120	-0.720
2020/01/31 17:19:34.9	357.260	0.570	-1.010	-0.690
2020/01/31 17:19:35.0	357.260	0.550	-0.890	-0.660
2020/01/31 17:19:35.1	357.260	0.520	-0.770	-0.640
2020/01/31 17:19:35.2	357.260	0.490	-0.650	-0.610
2020/01/31 17:19:35.3	357.270	0.450	-0.520	-0.580
2020/01/31 17:19:35.4	357.270	0.410	-0.400	-0.550
2020/01/31 17:19:35.5	357.270	0.370	-0.290	-0.520
2020/01/31 17:19:35.6	357.270	0.330	-0.170	-0.490
2020/01/31 17:19:35.7	357.270	0.290	-0.060	-0.470
2020/01/31 17:19:35.8	357.260	0.240	0.040	-0.430
2020/01/31 17:19:35.9	357.260	0.200	0.140	-0.410
2020/01/31 17:19:36.0	357.270	0.150	0.230	-0.390
2020/01/31 17:19:36.1	357.270	0.110	0.300	-0.370
2020/01/31 17:19:36.2	357.270	0.070	0.370	-0.350
2020/01/31 17:19:36.3	357.270	0.030	0.430	-0.340
2020/01/31 17:19:36.4	357.280	-0.010	0.480	-0.330
2020/01/31 17:19:36.5	357.280	-0.050	0.520	-0.320
2020/01/31 17:19:36.6	357.280	-0.090	0.550	-0.310
2020/01/31 17:19:36.7	357.290	-0.120	0.570	-0.300
2020/01/31 17:19:36.8	357.290	-0.150	0.580	-0.300
2020/01/31 17:19:36.9	357.290	-0.180	0.580	-0.300
2020/01/31 17:19:37.0	357.290	-0.210	0.570	-0.310
2020/01/31 17:19:37.1	357.290	-0.230	0.550	-0.310
2020/01/31 17:19:37.2	357.300	-0.250	0.530	-0.320
2020/01/31 17:19:37.3	357.290	-0.270	0.490	-0.330
2020/01/31 17:19:37.4	357.290	-0.280	0.450	-0.350
2020/01/31 17:19:37.5	357.290	-0.290	0.400	-0.360
2020/01/31 17:19:37.6	357.290	-0.300	0.350	-0.380
2020/01/31 17:19:37.7	357.290	-0.300	0.290	-0.400
2020/01/31 17:19:37.8	357.290	-0.300	0.230	-0.420
2020/01/31 17:19:37.9	357.290	-0.300	0.160	-0.440
2020/01/31 17:19:38.0	357.280	-0.290	0.100	-0.460
2020/01/31 17:19:38.1	357.280	-0.280	0.030	-0.480
2020/01/31 17:19:38.2	357.270	-0.270	-0.050	-0.500
2020/01/31 17:19:38.3	357.270	-0.250	-0.120	-0.520
2020/01/31 17:19:38.4	357.270	-0.240	-0.190	-0.540
2020/01/31 17:19:38.5	357.260	-0.220	-0.260	-0.560
2020/01/31 17:19:38.6	357.260	-0.200	-0.320	-0.580
2020/01/31 17:19:38.7	357.260	-0.170	-0.390	-0.600
2020/01/31 17:19:38.8	357.270	-0.150	-0.450	-0.610
2020/01/31 17:19:38.9	357.270	-0.120	-0.500	-0.630
2020/01/31 17:19:39.0	357.280	-0.100	-0.550	-0.650
2020/01/31 17:19:39.1	357.280	-0.070	-0.600	-0.670
2020/01/31 17:19:39.2	357.290	-0.050	-0.640	-0.680
2020/01/31 17:19:39.3	357.300	-0.020	-0.680	-0.700
2020/01/31 17:19:39.4	357.310	0.000	-0.700	-0.710
2020/01/31 17:19:39.5	357.330	0.030	-0.730	-0.730
2020/01/31 17:19:39.6	357.350	0.050	-0.740	-0.740
2020/01/31 17:19:39.7	357.370	0.080	-0.750	-0.750
2020/01/31 17:19:39.8	357.380	0.100	-0.750	-0.750
2020/01/31 17:19:39.9	357.410	0.120	-0.750	-0.760
2020/01/31 17:19:40.0	357.430	0.140	-0.740	-0.770
2020/01/31 17:19:40.1	357.460	0.150	-0.720	-0.770
2020/01/31 17:19:40.2	357.490	0.170	-0.700	-0.780
2020/01/31 17:19:40.3	357.520	0.180	-0.670	-0.780
2020/01/31 17:19:40.4	357.550	0.190	-0.630	-0.770
2020/01/31 17:19:40.5	357.580	0.190	-0.590	-0.770
2020/01/31 17:19:40.6	357.610	0.200	-0.550	-0.760
2020/01/31 17:19:40.7	357.640	0.200	-0.490	-0.760
2020/01/31 17:19:40.8	357.670	0.190	-0.440	-0.740
2020/01/31 17:19:40.9	357.700	0.190	-0.380	-0.730
2020/01/31 17:19:41.0	357.730	0.180	-0.310	-0.720
2020/01/31 17:19:41.1	357.750	0.170	-0.250	-0.700
2020/01/31 17:19:41.2	357.770	0.150	-0.180	-0.680
2020/01/31 17:19:41.3	357.790	0.130	-0.110	-0.650
2020/01/31 17:19:41.4	357.810	0.110	-0.030	-0.630
2020/01/31 17:19:41.5	357.820	0.090	0.040	-0.600
2020/01/31 17:19:41.6	357.820	0.060	0.120	-0.560
2020/01/31 17:19:41.7	357.820	0.030	0.190	-0.530
2020/01/31 17:19:41.8	357.830	-0.000	0.270	-0.480
2020/01/31 17:19:41.9	357.820	-0.040	0.340	-0.440
2020/01/31 17:19:42.0	357.810	-0.070	0.410	-0.400
2020/01/31 17:19:42.1	357.790	-0.110	0.480	-0.360
2020/01/31 17:19:42.2	357.770	-0.150	0.540	-0.320
2020/01/31 17:19:42.3	357.750	-0.190	0.600	-0.280
2020/01/31 17:19:42.4	357.730	-0.230	0.650	-0.240
2020/01/31 17:19:42.5	357.710	-0.270	0.700	-0.210
2020/01/31 17:19:42.6	357.680	-0.310	0.740	-0.180
2020/01/31 17:19:42.7	357.650	-0.360	0.770	-0.150
2020/01/31 17:19:42.8	357.630	-0.400	0.800	-0.130
2020/01/31 17:19:42.9	357.600	-0.430	0.810	-0.110
2020/01/31 17:19:43.0	357.580	-0.470	0.820	-0.100
2020/01/31 17:19:43.1	357.550	-0.510	0.820	-0.090
2020/01/31 17:19:43.2	357.530	-0.540	0.810	-0.090
2020/01/31 17:19:43.3	357.510	-0.570	0.800	-0.090
2020/01/31 17:19:43.4	357.480	-0.600	0.770	-0.090
2020/01/31 17:19:43.5	357.470	-0.620	0.740	-0.100
2020/01/31 17:19:43.6	357.450	-0.640	0.700	-0.120
2020/01/31 17:19:43.7	357.430	-0.650	0.650	-0.140
2020/01/31 17:19:43.8	357.410	-0.660	0.590	-0.160
2020/01/31 17:19:43.9	357.400	-0.670	0.530	-0.180
2020/01/31 17:19:44.0	357.390	-0.670	0.460	-0.210
2020/01/31 17:19:44.1	357.380	-0.660	0.380	-0.240
2020/01/31 17:19:44.2	357.370	-0.650	0.300	-0.270
2020/01/31 17:19:44.3	357.360	-0.640	0.220	-0.300
2020/01/31 17:19:44.4	357.350	-0.620	0.130	-0.330
2020/01/31 17:19:44.5	357.340	-0.590	0.040	-0.360
2020/01/31 17:19:44.6	357.330	-0.560	-0.050	-0.380
2020/01/31 17:19:44.7	357.330	-0.530	-0.140	-0.410
2020/01/31 17:19:44.8	357.320	-0.490	-0.230	-0.430
2020/01/31 17:19:44.9	357.310	-0.440	-0.320	-0.450
2020/01/31 17:19:45.0	357.300	-0.400	-0.400	-0.470
2020/01/31 17:19:45.1	357.300	-0.350	-0.490	-0.480
2020/01/31 17:19:45.2	357.290	-0.300	-0.570	-0.500
2020/01/31 17:19:45.3	357.280	-0.240	-0.640	-0.500
2020/01/31 17:19:45.4	357.280	-0.190	-0.720	-0.510
2020/01/31 17:19:45.5	357.270	-0.130	-0.780	-0.520
2020/01/31 17:19:45.6	357.270	-0.080	-0.850	-0.520
2020/01/31 17:19:45.7	357.270	-0.020	-0.910	-0.520
2020/01/31 17:19:45.8	357.280	0.040	-0.960	-0.510
2020/01/31 17:19:45.9	357.280	0.100	-1.020	-0.510
2020/01/31 17:19:46.0	357.280	0.150	-1.060	-0.510
2020/01/31 17:19:46.1	357.280	0.210	-1.110	-0.510
2020/01/31 17:19:46.2	357.280	0.260	-1.140	-0.500
2020/01/31 17:19:46.3	357.290	0.310	-1.180	-0.500
2020/01/31 17:19:46.4	357.300	0.360	-1.210	-0.490
2020/01/31 17:19:46.5	357.310	0.410	-1.240	-0.490
2020/01/31 17:19:46.6	357.320	0.460	-1.260	-0.490
2020/01/31 17:19:46.7	357.330	0.500	-1.290	-0.480
2020/01/31 17:19:46.8	357.350	0.540	-1.300	-0.480
2020/01/31 17:19:46.9	357.370	0.580	-1.320	-0.470
2020/01/31 17:19:47.0	357.390	0.620	-1.340	-0.470
2020/01/31 17:19:47.1	357.410	0.650	-1.350	-0.470
2020/01/31 17:19:47.2	357.440	0.680	-1.360	-0.470
2020/01/31 17:19:47.3	357.470	0.710	-1.370	-0.470
2020/01/31 17:19:47.4	357.500	0.740	-1.380	-0.470
2020/01/31 17:19:47.5	357.530	0.760	-1.380	-0.470
2020/01/31 17:19:47.6	357.560	0.780	-1.380	-0.480
2020/01/31 17:19:47.7	357.600	0.800	-1.380	-0.480
2020/01/31 17:19:47.8	357.650	0.820	-1.380	-0.480
2020/01/31 17:19:47.9	357.690	0.830	-1.370	-0.490
2020/01/31 17:19:48.0	357.730	0.840	-1.360	-0.490
2020/01/31 17:19:48.1	357.760	0.850	-1.340	-0.500
2020/01/31 17:19:48.2	357.800	0.860	-1.320	-0.500
2020/01/31 17:19:48.3	357.840	0.860	-1.290	-0.510
2020/01/31 17:19:48.4	357.870	0.860	-1.260	-0.510
2020/01/31 17:19:48.5	357.910	0.860	-1.220	-0.510
2020/01/31 17:19:48.6	357.940	0.850	-1.170	-0.510
2020/01/31 17:19:48.7	357.980	0.840	-1.120	-0.510
2020/01/31 17:19:48.8	358.000	0.830	-1.060	-0.510
2020/01/31 17:19:48.9	358.030	0.820	-1.000	-0.510
2020/01/31 17:19:49.0	358.060	0.800	-0.930	-0.500
2020/01/31 17:19:49.1	358.080	0.780	-0.860	-0.500
2020/01/31 17:19:49.2	358.110	0.750	-0.780	-0.490
2020/01/31 17:19:49.3	358.130	0.720	-0.690	-0.490
2020/01/31 17:19:49.4	358.150	0.690	-0.610	-0.480
2020/01/31 17:19:49.5	358.160	0.650	-0.520	-0.470
2020/01/31 17:19:49.6	358.180	0.620	-0.420	-0.460
2020/01/31 17:19:49.7	358.190	0.570	-0.330	-0.450
2020/01/31 17:19:49.8	358.200	0.530	-0.240	-0.440
2020/01/31 17:19:49.9	358.210	0.480	-0.140	-0.430
2020/01/31 17:19:50.0	358.210	0.430	-0.040	-0.420
2020/01/31 17:19:50.1	358.210	0.370	0.050	-0.410
2020/01/31 17:19:50.2	358.210	0.310	0.140	-0.400
2020/01/31 17:19:50.3	358.210	0.250	0.240	-0.400
2020/01/31 17:19:50.4	358.210	0.180	0.320	-0.400
2020/01/31 17:19:50.5	358.200	0.120	0.410	-0.400
2020/01/31 17:19:50.6	358.200	0.050	0.490	-0.400
2020/01/31 17:19:50.7	358.190	-0.020	0.570	-0.400
2020/01/31 17:19:50.8	358.170	-0.090	0.640	-0.410
2020/01/31 17:19:50.9	358.160	-0.160	0.700	-0.420
2020/01/31 17:19:51.0	358.160	-0.240	0.760	-0.440
2020/01/31 17:19:51.1	358.150	-0.310	0.820	-0.460
2020/01/31 17:19:51.2	358.140	-0.380	0.860	-0.480
2020/01/31 17:19:51.3	358.140	-0.450	0.900	-0.500
2020/01/31 17:19:51.4	358.130	-0.520	0.940	-0.530
2020/01/31 17:19:51.5	358.120	-0.580	0.960	-0.560
2020/01/31 17:19:51.6	358.120	-0.650	0.980	-0.590
2020/01/31 17:19:51.7	358.110	-0.710	1.000	-0.620
2020/01/31 17:19:51.8	358.120	-0.760	1.010	-0.650
2020/01/31 17:19:51.9	358.110	-0.820	1.010	-0.680
2020/01/31 17:19:52.0	358.100	-0.860	1.000	-0.710
2020/01/31 17:19:52.1	358.100	-0.910	0.990	-0.740
2020/01/31 17:19:52.2	358.090	-0.940	0.970	-0.770
2020/01/31 17:19:52.3	358.090	-0.970	0.940	-0.800
2020/01/31 17:19:52.4	358.080	-1.000	0.910	-0.820
2020/01/31 17:19:52.5	358.070	-1.020	0.880	-0.840
2020/01/31 17:19:52.6	358.070	-1.030	0.840	-0.860
2020/01/31 17:19:52.7	358.060	-1.040	0.800	-0.880
2020/01/31 17:19:52.8	358.040	-1.040	0.750	-0.900
2020/01/31 17:19:52.9	358.040	-1.030	0.700	-0.910
2020/01/31 17:19:53.0	358.030	-1.020	0.650	-0.920
2020/01/31 17:19:53.1	358.020	-1.000	0.590	-0.920
2020/01/31 17:19:53.2	358.010	-0.970	0.540	-0.920
2020/01/31 17:19:53.3	358.000	-0.940	0.480	-0.920
2020/01/31 17:19:53.4	357.980	-0.900	0.420	-0.920
2020/01/31 17:19:53.5	357.970	-0.860	0.350	-0.910
2020/01/31 17:19:53.6	357.960	-0.810	0.290	-0.890
2020/01/31 17:19:53.7	357.940	-0.750	0.220	-0.880
2020/01/31 17:19:53.8	357.930	-0.700	0.160	-0.860
2020/01/31 17:19:53.9	357.910	-0.630	0.100	-0.830
2020/01/31 17:19:54.0	357.900	-0.570	0.040	-0.810
2020/01/31 17:19:54.1	357.880	-0.500	-0.030	-0.780
2020/01/31 17:19:54.2	357.860	-0.430	-0.090	-0.750
2020/01/31 17:19:54.3	357.840	-0.360	-0.150	-0.720
2020/01/31 17:19:54.4	357.820	-0.280	-0.210	-0.680
2020/01/31 17:19:54.5	357.810	-0.210	-0.260	-0.640
2020/01/31 17:19:54.6	357.790	-0.130	-0.320	-0.610
2020/01/31 17:19:54.7	357.770	-0.060	-0.370	-0.560
2020/01/31 17:19:54.8	357.750	0.020	-0.420	-0.520
2020/01/31 17:19:54.9	357.730	0.090	-0.470	-0.480
2020/01/31 17:19:55.0	357.710	0.160	-0.510	-0.440
2020/01/31 17:19:55.1	357.690	0.230	-0.550	-0.390
2020/01/31 17:19:55.2	357.670	0.300	-0.580	-0.350
2020/01/31 17:19:55.3	357.650	0.360	-0.610	-0.300
2020/01/31 17:19:55.4	357.630	0.420	-0.640	-0.260
2020/01/31 17:19:55.5	357.620	0.470	-0.670	-0.210
2020/01/31 17:19:55.6	357.600	0.520	-0.690	-0.160
2020/01/31 17:19:55.7	357.580	0.570	-0.700	-0.120
2020/01/31 17:19:55.8	357.550	0.610	-0.720	-0.070
2020/01/31 17:19:55.9	357.530	0.650	-0.730	-0.020
2020/01/31 17:19:56.0	357.510	0.680	-0.740	0.020
2020/01/31 17:19:56.1	357.500	0.700	-0.740	0.070
2020/01/31 17:19:56.2	357.490	0.720	-0.750	0.110
2020/01/31 17:19:56.3	357.480	0.740	-0.750	0.150
2020/01/31 17:19:56.4	357.470	0.750	-0.750	0.180
2020/01/31 17:19:56.5	357.460	0.760	-0.750	0.210
2020/01/31 17:19:56.6	357.460	0.760	-0.750	0.240
2020/01/31 17:19:56.7	357.460	0.750	-0.750	0.260
2020/01/31 17:19:56.8	357.450	0.740	-0.750	0.270
2020/01/31 17:19:56.9	357.450	0.730	-0.750	0.280
2020/01/31 17:19:57.0	357.460	0.710	-0.750	0.290
2020/01/31 17:19:57.1	357.470	0.690	-0.750	0.280
2020/01/31 17:19:57.2	357.480	0.660	-0.750	0.270
2020/01/31 17:19:57.3	357.500	0.630	-0.760	0.260
2020/01/31 17:19:57.4	357.510	0.600	-0.760	0.240
2020/01/31 17:19:57.5	357.540	0.560	-0.760	0.210
2020/01/31 17:19:57.6	357.560	0.520	-0.760	0.170
2020/01/31 17:19:57.7	357.580	0.480	-0.770	0.130
2020/01/31 17:19:57.8	357.600	0.440	-0.770	0.090
2020/01/31 17:19:57.9	357.630	0.390	-0.770	0.040
2020/01/31 17:19:58.0	357.660	0.340	-0.770	-0.020
2020/01/31 17:19:58.1	357.690	0.290	-0.770	-0.080
2020/01/31 17:19:58.2	357.730	0.240	-0.760	-0.140
2020/01/31 17:19:58.3	357.760	0.190	-0.760	-0.210
2020/01/31 17:19:58.4	357.790	0.140	-0.750	-0.280
2020/01/31 17:19:58.5	357.830	0.090	-0.740	-0.350
2020/01/31 17:19:58.6	357.860	0.040	-0.730	-0.430
2020/01/31 17:19:58.7	357.900	-0.010	-0.720	-0.510
2020/01/31 17:19:58.8	357.940	-0.060	-0.700	-0.590
2020/01/31 17:19:58.9	357.970	-0.100	-0.680	-0.660
2020/01/31 17:19:59.0	358.010	-0.150	-0.660	-0.740
2020/01/31 17:19:59.1	358.040	-0.190	-0.640	-0.810
2020/01/31 17:19:59.2	358.070	-0.230	-0.610	-0.880
2020/01/31 17:19:59.3	358.100	-0.270	-0.580	-0.940
2020/01/31 17:19:59.4	358.130	-0.300	-0.550	-1.000
2020/01/31 17:19:59.5	358.160	-0.340	-0.520	-1.060
2020/01/31 17:19:59.6	358.180	-0.360	-0.480	-1.110
2020/01/31 17:19:59.7	358.210	-0.390	-0.440	-1.150
2020/01/31 17:19:59.8	358.240	-0.410	-0.410	-1.190
2020/01/31 17:19:59.9	358.250	-0.430	-0.370	-1.220
2020/01/31 17:20:00.0	358.270	-0.450	-0.330	-1.240
2020/01/31 17:20:00.1	358.290	-0.460	-0.290	-1.260
2020/01/31 17:20:00.2	358.300	-0.470	-0.250	-1.270
2020/01/31 17:20:00.3	358.310	-0.470	-0.210	-1.280
2020/01/31 17:20:00.4	358.320	-0.480	-0.170	-1.280
2020/01/31 17:20:00.5	358.330	-0.470	-0.130	-1.270
2020/01/31 17:20:00.6	358.330	-0.470	-0.090	-1.270
2020/01/31 17:20:00.7	358.340	-0.460	-0.050	-1.250
2020/01/31 17:20:00.8	358.340	-0.450	-0.020	-1.230
2020/01/31 17:20:00.9	358.340	-0.440	0.010	-1.210
2020/01/31 17:20:01.0	358.340	-0.420	0.040	-1.190
2020/01/31 17:20:01.1	358.340	-0.410	0.070	-1.170
2020/01/31 17:20:01.2	358.340	-0.390	0.090	-1.150
2020/01/31 17:20:01.3	358.340	-0.360	0.110	-1.120
2020/01/31 17:20:01.4	358.340	-0.340	0.120	-1.090
2020/01/31 17:20:01.5	358.340	-0.310	0.140	-1.070
2020/01/31 17:20:01.6	358.340	-0.290	0.140	-1.040
2020/01/31 17:20:01.7	358.340	-0.260	0.150	-1.010
2020/01/31 17:20:01.8	358.340	-0.230	0.140	-0.980
2020/01/31 17:20:01.9	358.340	-0.190	0.140	-0.960
2020/01/31 17:20:02.0	358.340	-0.160	0.130	-0.930
2020/01/31 17:20:02.1	358.340	-0.130	0.120	-0.900
2020/01/31 17:20:02.2	358.350	-0.100	0.110	-0.870
2020/01/31 17:20:02.3	358.350	-0.060	0.090	-0.840
2020/01/31 17:20:02.4	358.350	-0.030	0.070	-0.810
2020/01/31 17:20:02.5	358.360	0.010	0.050	-0.780
2020/01/31 17:20:02.6	358.360	0.040	0.030	-0.750
2020/01/31 17:20:02.7	358.370	0.070	0.000	-0.710
2020/01/31 17:20:02.8	358.380	0.110	-0.030	-0.680
2020/01/31 17:20:02.9	358.380	0.140	-0.050	-0.650
2020/01/31 17:20:03.0	358.390	0.170	-0.080	-0.610
2020/01/31 17:20:03.1	358.400	0.200	-0.110	-0.580
2020/01/31 17:20:03.2	358.400	0.230	-0.150	-0.540
2020/01/31 17:20:03.3	358.410	0.260	-0.180	-0.500
2020/01/31 17:20:03.4	358.410	0.290	-0.210	-0.460
2020/01/31 17:20:03.5	358.420	0.320	-0.240	-0.420
2020/01/31 17:20:03.6	358.420	0.340	-0.270	-0.380
2020/01/31 17:20:03.7	358.420	0.360	-0.300	-0.340
2020/01/31 17:20:03.8	358.410	0.380	-0.320	-0.300
2020/01/31 17:20:03.9	358.400	0.400	-0.350	-0.260
2020/01/31 17:20:04.0	358.400	0.410	-0.370	-0.230
2020/01/31 17:20:04.1	358.390	0.420	-0.400	-0.190
2020/01/31 17:20:04.2	358.390	0.430	-0.410	-0.160
2020/01/31 17:20:04.3	358.380	0.440	-0.430	-0.130
2020/01/31 17:20:04.4	358.370	0.450	-0.450	-0.100
2020/01/31 17:20:04.5	358.350	0.450	-0.460	-0.070
2020/01/31 17:20:04.6	358.340	0.450	-0.470	-0.050
2020/01/31 17:20:04.7	358.320	0.440	-0.470	-0.020
2020/01/31 17:20:04.8	358.310	0.440	-0.470	-0.000
2020/01/31 17:20:04.9	358.290	0.430	-0.470	0.010
2020/01/31 17:20:05.0	358.270	0.420	-0.470	0.030
2020/01/31 17:20:05.1	358.250	0.410	-0.460	0.040
2020/01/31 17:20:05.2	358.230	0.400	-0.450	0.060
2020/01/31 17:20:05.3	358.210	0.380	-0.440	0.070
2020/01/31 17:20:05.4	358.180	0.360	-0.420	0.080
2020/01/31 17:20:05.5	358.160	0.350	-0.400	0.090
2020/01/31 17:20:05.6	358.140	0.330	-0.380	0.090
2020/01/31 17:20:05.7	358.110	0.310	-0.350	0.100
2020/01/31 17:20:05.8	358.090	0.290	-0.320	0.100
2020/01/31 17:20:05.9	358.060	0.260	-0.290	0.110
2020/01/31 17:20:06.0	358.040	0.240	-0.260	0.110
2020/01/31 17:20:06.1	358.020	0.220	-0.220	0.110
2020/01/31 17:20:06.2	357.990	0.200	-0.190	0.100
2020/01/31 17:20:06.3	357.970	0.180	-0.150	0.100
2020/01/31 17:20:06.4	357.950	0.150	-0.110	0.090
2020/01/31 17:20:06.5	357.930	0.130	-0.070	0.080
2020/01/31 17:20:06.6	357.910	0.110	-0.040	0.060
2020/01/31 17:20:06.7	357.890	0.090	-0.000	0.050
2020/01/31 17:20:06.8	357.870	0.070	0.030	0.030
2020/01/31 17:20:06.9	357.850	0.050	0.070	0.010
2020/01/31 17:20:07.0	357.840	0.030	0.100	-0.020
2020/01/31 17:20:07.1	357.830	0.020	0.130	-0.050
2020/01/31 17:20:07.2	357.820	0.000	0.150	-0.080
2020/01/31 17:20:07.3	357.810	-0.020	0.180	-0.110
2020/01/31 17:20:07.4	357.800	-0.030	0.200	-0.140
2020/01/31 17:20:07.5	357.790	-0.040	0.210	-0.180
2020/01/31 17:20:07.6	357.790	-0.060	0.230	-0.220
2020/01/31 17:20:07.7	357.780	-0.070	0.240	-0.250
2020/01/31 17:20:07.8	357.790	-0.080	0.240	-0.290
2020/01/31 17:20:07.9	357.790	-0.090	0.240	-0.330
2020/01/31 17:20:08.0	357.790	-0.100	0.240	-0.360
2020/01/31 17:20:08.1	357.790	-0.110	0.230	-0.400
2020/01/31 17:20:08.2	357.790	-0.120	0.230	-0.430
2020/01/31 17:20:08.3	357.790	-0.120	0.210	-0.460
2020/01/31 17:20:08.4	357.800	-0.130	0.190	-0.490
2020/01/31 17:20:08.5	357.800	-0.140	0.170	-0.520
2020/01/31 17:20:08.6	357.810	-0.140	0.150	-0.550
2020/01/31 17:20:08.7	357.810	-0.150	0.120	-0.570
2020/01/31 17:20:08.8	357.810	-0.150	0.090	-0.600
2020/01/31 17:20:08.9	357.820	-0.160	0.060	-0.620
2020/01/31 17:20:09.0	357.830	-0.160	0.020	-0.640
2020/01/31 17:20:09.1	357.840	-0.170	-0.020	-0.660
2020/01/31 17:20:09.2	357.840	-0.170	-0.060	-0.680
2020/01/31 17:20:09.3	357.850	-0.170	-0.100	-0.700
2020/01/31 17:20:09.4	357.860	-0.180	-0.140	-0.720
2020/01/31 17:20:09.5	357.870	-0.180	-0.190	-0.730
2020/01/31 17:20:09.6	357.880	-0.190	-0.230	-0.750
2020/01/31 17:20:09.7	357.890	-0.190	-0.280	-0.760
2020/01/31 17:20:09.8	357.900	-0.190	-0.330	-0.770
2020/01/31 17:20:09.9	357.910	-0.200	-0.370	-0.790
2020/01/31 17:20:10.0	357.920	-0.200	-0.420	-0.790
2020/01/31 17:20:10.1	357.930	-0.200	-0.470	-0.800
2020/01/31 17:20:10.2	357.940	-0.200	-0.510	-0.810
2020/01/31 17:20:10.3	357.950	-0.200	-0.560	-0.820
2020/01/31 17:20:10.4	357.960	-0.200	-0.600	-0.820
2020/01/31 17:20:10.5	357.980	-0.200	-0.650	-0.820
2020/01/31 17:20:10.6	357.990	-0.200	-0.690	-0.830
2020/01/31 17:20:10.7	358.000	-0.200	-0.730	-0.830
2020/01/31 17:20:10.8	358.020	-0.200	-0.760	-0.820
2020/01/31 17:20:10.9	358.040	-0.200	-0.800	-0.820
2020/01/31 17:20:11.0	358.050	-0.200	-0.830	-0.820
2020/01/31 17:20:11.1	358.060	-0.200	-0.860	-0.810
2020/01/31 17:20:11.2	358.070	-0.200	-0.880	-0.810
2020/01/31 17:20:11.3	358.080	-0.200	-0.900	-0.800
2020/01/31 17:20:11.4	358.090	-0.200	-0.920	-0.790
2020/01/31 17:20:11.5	358.100	-0.200	-0.930	-0.780
2020/01/31 17:20:11.6	358.100	-0.200	-0.930	-0.770
2020/01/31 17:20:11.7	358.110	-0.200	-0.930	-0.760
2020/01/31 17:20:11.8	358.120	-0.200	-0.930	-0.750
2020/01/31 17:20:11.9	358.130	-0.200	-0.920	-0.740
2020/01/31 17:20:12.0	358.130	-0.210	-0.900	-0.730
2020/01/31 17:20:12.1	358.130	-0.210	-0.880	-0.720
2020/01/31 17:20:12.2	358.130	-0.210	-0.850	-0.710
2020/01/31 17:20:12.3	358.130	-0.210	-0.820	-0.700
2020/01/31 17:20:12.4	358.130	-0.210	-0.780	-0.680
2020/01/31 17:20:12.5	358.130	-0.210	-0.740	-0.670
2020/01/31 17:20:12.6	358.120	-0.210	-0.690	-0.650
2020/01/31 17:20:12.7	358.120	-0.210	-0.640	-0.640
2020/01/31 17:20:12.8	358.120	-0.210	-0.590	-0.610
2020/01/31 17:20:12.9	358.110	-0.200	-0.530	-0.590
2020/01/31 17:20:13.0	358.110	-0.200	-0.470	-0.570
2020/01/31 17:20:13.1	358.110	-0.190	-0.410	-0.540
2020/01/31 17:20:13.2	358.100	-0.180	-0.350	-0.510
2020/01/31 17:20:13.3	358.100	-0.180	-0.290	-0.480
2020/01/31 17:20:13.4	358.100	-0.170	-0.220	-0.450
2020/01/31 17:20:13.5	358.100	-0.150	-0.170	-0.420
2020/01/31 17:20:13.6	358.100	-0.140	-0.110	-0.390
2020/01/31 17:20:13.7	358.100	-0.120	-0.050	-0.350
2020/01/31 17:20:13.8	358.090	-0.110	-0.000	-0.320
2020/01/31 17:20:13.9	358.100	-0.090	0.040	-0.290
2020/01/31 17:20:14.0	358.100	-0.070	0.080	-0.260
2020/01/31 17:20:14.1	358.110	-0.050	0.120	-0.230
2020/01/31 17:20:14.2	358.110	-0.020	0.150	-0.190
2020/01/31 17:20:14.3	358.120	0.000	0.180	-0.160
2020/01/31 17:20:14.4	358.130	0.030	0.200	-0.140
2020/01/31 17:20:14.5	358.140	0.050	0.210	-0.110
2020/01/31 17:20:14.6	358.150	0.080	0.220	-0.090
2020/01/31 17:20:14.7	358.160	0.110	0.220	-0.070
2020/01/31 17:20:14.8	358.180	0.140	0.220	-0.040
2020/01/31 17:20:14.9	358.190	0.160	0.220	-0.030
2020/01/31 17:20:15.0	358.200	0.190	0.210	-0.010
2020/01/31 17:20:15.1	358.210	0.210	0.190	-0.000
2020/01/31 17:20:15.2	358.210	0.240	0.180	0.010
2020/01/31 17:20:15.3	358.220	0.260	0.160	0.010
2020/01/31 17:20:15.4	358.220	0.290	0.140	0.020
2020/01/31 17:20:15.5	358.220	0.310	0.120	0.020
2020/01/31 17:20:15.6	358.220	0.320	0.090	0.030
2020/01/31 17:20:15.7	358.210	0.340	0.070	0.030
2020/01/31 17:20:15.8	358.200	0.360	0.050	0.030
2020/01/31 17:20:15.9	358.180	0.370	0.020	0.030
2020/01/31 17:20:16.0	358.170	0.380	0.000	0.030
2020/01/31 17:20:16.1	358.150	0.390	-0.020	0.030
2020/01/31 17:20:16.2	358.130	0.390	-0.030	0.030
2020/01/31 17:20:16.3	358.110	0.400	-0.050	0.030
2020/01/31 17:20:16.4	358.090	0.400	-0.070	0.030
2020/01/31 17:20:16.5	358.060	0.400	-0.080	0.030
2020/01/31 17:20:16.6	358.040	0.390	-0.090	0.030
2020/01/31 17:20:16.7	358.010	0.390	-0.100	0.030
2020/01/31 17:20:16.8	357.980	0.380	-0.110	0.030
2020/01/31 17:20:16.9	357.960	0.370	-0.120	0.030
2020/01/31 17:20:17.0	357.930	0.360	-0.130	0.020
2020/01/31 17:20:17.1	357.900	0.350	-0.140	0.020
2020/01/31 17:20:17.2	357.880	0.340	-0.150	0.010
2020/01/31 17:20:17.3	357.850	0.320	-0.150	-0.000
2020/01/31 17:20:17.4	357.830	0.310	-0.160	-0.010
2020/01/31 17:20:17.5	357.810	0.290	-0.170	-0.030
2020/01/31 17:20:17.6	357.790	0.280	-0.190	-0.040
2020/01/31 17:20:17.7	357.770	0.260	-0.200	-0.060
2020/01/31 17:20:17.8	357.750	0.240	-0.220	-0.080
2020/01/31 17:20:17.9	357.730	0.230	-0.230	-0.100
2020/01/31 17:20:18.0	357.710	0.210	-0.250	-0.130
2020/01/31 17:20:18.1	357.700	0.200	-0.270	-0.150
2020/01/31 17:20:18.2	357.680	0.180	-0.290	-0.180
2020/01/31 17:20:18.3	357.670	0.170	-0.320	-0.210
2020/01/31 17:20:18.4	357.650	0.150	-0.340	-0.240
2020/01/31 17:20:18.5	357.640	0.140	-0.370	-0.280
2020/01/31 17:20:18.6	357.630	0.130	-0.390	-0.320
2020/01/31 17:20:18.7	357.620	0.120	-0.420	-0.360
2020/01/31 17:20:18.8	357.630	0.110	-0.440	-0.400
2020/01/31 17:20:18.9	357.620	0.100	-0.470	-0.440
2020/01/31 17:20:19.0	357.610	0.090	-0.500	-0.490
2020/01/31 17:20:19.1	357.610	0.080	-0.520	-0.540
2020/01/31 17:20:19.2	357.610	0.070	-0.540	-0.590
2020/01/31 17:20:19.3	357.610	0.060	-0.560	-0.640
2020/01/31 17:20:19.4	357.610	0.050	-0.580	-0.690
2020/01/31 17:20:19.5	357.610	0.040	-0.600	-0.740
2020/01/31 17:20:19.6	357.610	0.030	-0.610	-0.790
2020/01/31 17:20:19.7	357.620	0.020	-0.630	-0.840
2020/01/31 17:20:19.8	357.630	0.010	-0.640	-0.880
2020/01/31 17:20:19.9	357.630	0.000	-0.640	-0.920
2020/01/31 17:20:20.0	357.640	-0.010	-0.640	-0.970
2020/01/31 17:20:20.1	357.650	-0.020	-0.650	-1.010
2020/01/31 17:20:20.2	357.660	-0.030	-0.640	-1.040
2020/01/31 17:20:20.3	357.670	-0.040	-0.630	-1.080
2020/01/31 17:20:20.4	357.690	-0.060	-0.630	-1.110
2020/01/31 17:20:20.5	357.700	-0.070	-0.610	-1.130
2020/01/31 17:20:20.6	357.710	-0.080	-0.600	-1.160
2020/01/31 17:20:20.7	357.730	-0.100	-0.580	-1.180
2020/01/31 17:20:20.8	357.740	-0.110	-0.560	-1.200
2020/01/31 17:20:20.9	357.750	-0.130	-0.540	-1.210
2020/01/31 17:20:21.0	357.760	-0.150	-0.510	-1.220
2020/01/31 17:20:21.1	357.770	-0.170	-0.490	-1.230
2020/01/31 17:20:21.2	357.780	-0.180	-0.460	-1.230
2020/01/31 17:20:21.3	357.790	-0.200	-0.430	-1.230
2020/01/31 17:20:21.4	357.800	-0.220	-0.400	-1.230
2020/01/31 17:20:21.5	357.800	-0.240	-0.370	-1.230
2020/01/31 17:20:21.6	357.810	-0.260	-0.340	-1.220
2020/01/31 17:20:21.7	357.810	-0.280	-0.310	-1.200
2020/01/31 17:20:21.8	357.820	-0.300	-0.270	-1.180
2020/01/31 17:20:21.9	357.820	-0.320	-0.240	-1.160
2020/01/31 17:20:22.0	357.820	-0.330	-0.210	-1.140
2020/01/31 17:20:22.1	357.820	-0.350	-0.170	-1.120
2020/01/31 17:20:22.2	357.810	-0.370	-0.140	-1.090
2020/01/31 17:20:22.3	357.810	-0.380	-0.110	-1.060
2020/01/31 17:20:22.4	357.810	-0.390	-0.080	-1.030
2020/01/31 17:20:22.5	357.810	-0.400	-0.050	-1.000
2020/01/31 17:20:22.6	357.800	-0.410	-0.020	-0.960
2020/01/31 17:20:22.7	357.800	-0.410	0.010	-0.920
2020/01/31 17:20:22.8	357.800	-0.410	0.040	-0.880
2020/01/31 17:20:22.9	357.790	-0.410	0.060	-0.840
2020/01/31 17:20:23.0	357.790	-0.410	0.080	-0.790
2020/01/31 17:20:23.1	357.780	-0.400	0.100	-0.750
2020/01/31 17:20:23.2	357.780	-0.390	0.120	-0.700
2020/01/31 17:20:23.3	357.780	-0.380	0.130	-0.660
2020/01/31 17:20:23.4	357.780	-0.370	0.140	-0.610
2020/01/31 17:20:23.5	357.780	-0.350	0.140	-0.570
2020/01/31 17:20:23.6	357.780	-0.330	0.140	-0.530
2020/01/31 17:20:23.7	357.790	-0.300	0.130	-0.490
2020/01/31 17:20:23.8	357.790	-0.280	0.130	-0.440
2020/01/31 17:20:23.9	357.790	-0.250	0.110	-0.410
2020/01/31 17:20:24.0	357.800	-0.220	0.100	-0.380
2020/01/31 17:20:24.1	357.810	-0.190	0.080	-0.350
2020/01/31 17:20:24.2	357.820	-0.160	0.050	-0.320
2020/01/31 17:20:24.3	357.830	-0.120	0.030	-0.300
2020/01/31 17:20:24.4	357.840	-0.090	0.000	-0.280
2020/01/31 17:20:24.5	357.860	-0.050	-0.030	-0.260
2020/01/31 17:20:24.6	357.870	-0.020	-0.060	-0.250
2020/01/31 17:20:24.7	357.880	0.010	-0.090	-0.240
2020/01/31 17:20:24.8	357.900	0.050	-0.120	-0.230
2020/01/31 17:20:24.9	357.910	0.080	-0.150	-0.230
2020/01/31 17:20:25.0	357.920	0.110	-0.190	-0.230
2020/01/31 17:20:25.1	357.920	0.140	-0.220	-0.230
2020/01/31 17:20:25.2	357.930	0.160	-0.250	-0.230
2020/01/31 17:20:25.3	357.930	0.190	-0.270	-0.240
2020/01/31 17:20:25.4	357.940	0.210	-0.300	-0.250
2020/01/31 17:20:25.5	357.940	0.230	-0.330	-0.260
2020/01/31 17:20:25.6	357.940	0.240	-0.350	-0.270
2020/01/31 17:20:25.7	357.940	0.260	-0.370	-0.290
2020/01/31 17:20:25.8	357.940	0.270	-0.390	-0.300
2020/01/31 17:20:25.9	357.940	0.280	-0.400	-0.320
2020/01/31 17:20:26.0	357.940	0.290	-0.420	-0.330
2020/01/31 17:20:26.1	357.930	0.290	-0.430	-0.350
2020/01/31 17:20:26.2	357.930	0.290	-0.440	-0.370
2020/01/31 17:20:26.3	357.920	0.290	-0.440	-0.390
2020/01/31 17:20:26.4	357.920	0.290	-0.450	-0.410
2020/01/31 17:20:26.5	357.910	0.290	-0.450	-0.420
2020/01/31 17:20:26.6	357.900	0.280	-0.450	-0.440
2020/01/31 17:20:26.7	357.900	0.270	-0.440	-0.450
2020/01/31 17:20:26.8	357.890	0.260	-0.440	-0.460
2020/01/31 17:20:26.9	357.880	0.250	-0.430	-0.470
2020/01/31 17:20:27.0	357.870	0.240	-0.420	-0.480
2020/01/31 17:20:27.1	357.860	0.230	-0.410	-0.480
2020/01/31 17:20:27.2	357.840	0.210	-0.390	-0.490
2020/01/31 17:20:27.3	357.830	0.200	-0.370	-0.480
2020/01/31 17:20:27.4	357.820	0.190	-0.350	-0.480
2020/01/31 17:20:27.5	357.800	0.170	-0.330	-0.470
2020/01/31 17:20:27.6	357.780	0.160	-0.310	-0.460
2020/01/31 17:20:27.7	357.760	0.150	-0.290	-0.450
2020/01/31 17:20:27.8	357.730	0.130	-0.260	-0.440
2020/01/31 17:20:27.9	357.710	0.120	-0.230	-0.420
2020/01/31 17:20:28.0	357.690	0.110	-0.210	-0.400
2020/01/31 17:20:28.1	357.660	0.090	-0.180	-0.380
2020/01/31 17:20:28.2	357.630	0.080	-0.150	-0.360
2020/01/31 17:20:28.3	357.600	0.070	-0.120	-0.340
2020/01/31 17:20:28.4	357.570	0.050	-0.090	-0.320
2020/01/31 17:20:28.5	357.540	0.040	-0.060	-0.300
2020/01/31 17:20:28.6	357.510	0.030	-0.030	-0.280
2020/01/31 17:20:28.7	357.470	0.020	-0.000	-0.250
2020/01/31 17:20:28.8	357.440	0.010	0.020	-0.230
2020/01/31 17:20:28.9	357.410	-0.010	0.040	-0.210
2020/01/31 17:20:29.0	357.380	-0.020	0.060	-0.190
2020/01/31 17:20:29.1	357.340	-0.030	0.080	-0.170
2020/01/31 17:20:29.2	357.310	-0.040	0.090	-0.160
2020/01/31 17:20:29.3	357.280	-0.050	0.100	-0.140
2020/01/31 17:20:29.4	357.250	-0.050	0.110	-0.130
2020/01/31 17:20:29.5	357.230	-0.060	0.110	-0.120
2020/01/31 17:20:29.6	357.200	-0.070	0.110	-0.110
2020/01/31 17:20:29.7	357.180	-0.070	0.100	-0.100
2020/01/31 17:20:29.8	357.150	-0.070	0.090	-0.100
2020/01/31 17:20:29.9	357.140	-0.080	0.070	-0.100
2020/01/31 17:20:30.0	357.120	-0.080	0.050	-0.100
2020/01/31 17:20:30.1	357.110	-0.080	0.020	-0.100
2020/01/31 17:20:30.2	357.100	-0.080	-0.010	-0.100
2020/01/31 17:20:30.3	357.100	-0.080	-0.050	-0.110
2020/01/31 17:20:30.4	357.100	-0.070	-0.090	-0.120
2020/01/31 17:20:30.5	357.100	-0.070	-0.140	-0.130
2020/01/31 17:20:30.6	357.110	-0.070	-0.190	-0.150
2020/01/31 17:20:30.7	357.110	-0.060	-0.240	-0.170
2020/01/31 17:20:30.8	357.110	-0.060	-0.290	-0.190
2020/01/31 17:20:30.9	357.120	-0.050	-0.340	-0.220
2020/01/31 17:20:31.0	357.130	-0.050	-0.400	-0.240
2020/01/31 17:20:31.1	357.150	-0.040	-0.450	-0.270
2020/01/31 17:20:31.2	357.170	-0.030	-0.510	-0.300
2020/01/31 17:20:31.3	357.190	-0.030	-0.560	-0.340
2020/01/31 17:20:31.4	357.210	-0.020	-0.620	-0.370
2020/01/31 17:20:31.5	357.230	-0.020	-0.670	-0.410
2020/01/31 17:20:31.6	357.250	-0.010	-0.710	-0.450
2020/01/31 17:20:31.7	357.270	-0.000	-0.760	-0.490
2020/01/31 17:20:31.8	357.310	-0.000	-0.800	-0.530
2020/01/31 17:20:31.9	357.330	0.000	-0.840	-0.570
2020/01/31 17:20:32.0	357.360	0.010	-0.870	-0.610
2020/01/31 17:20:32.1	357.390	0.010	-0.900	-0.660
2020/01/31 17:20:32.2	357.410	0.010	-0.920	-0.700
2020/01/31 17:20:32.3	357.440	0.010	-0.940	-0.740
2020/01/31 17:20:32.4	357.470	0.020	-0.960	-0.780
2020/01/31 17:20:32.5	357.500	0.020	-0.970	-0.820
2020/01/31 17:20:32.6	357.530	0.020	-0.970	-0.860
2020/01/31 17:20:32.7	357.560	0.020	-0.970	-0.900
2020/01/31 17:20:32.8	357.610	0.010	-0.960	-0.930
2020/01/31 17:20:32.9	357.640	0.010	-0.950	-0.960
2020/01/31 17:20:33.0	357.680	0.010	-0.940	-0.980
2020/01/31 17:20:33.1	357.710	0.010	-0.920	-1.010
2020/01/31 17:20:33.2	357.740	0.010	-0.900	-1.030
2020/01/31 17:20:33.3	357.780	0.000	-0.870	-1.050
2020/01/31 17:20:33.4	357.810	0.000	-0.840	-1.060
2020/01/31 17:20:33.5	357.840	-0.000	-0.810	-1.070
2020/01/31 17:20:33.6	357.880	-0.000	-0.770	-1.080
2020/01/31 17:20:33.7	357.910	-0.010	-0.740	-1.090
2020/01/31 17:20:33.8	357.950	-0.010	-0.690	-1.080
2020/01/31 17:20:33.9	357.980	-0.010	-0.650	-1.080
2020/01/31 17:20:34.0	358.010	-0.020	-0.610	-1.080
2020/01/31 17:20:34.1	358.040	-0.020	-0.560	-1.070
2020/01/31 17:20:34.2	358.060	-0.030	-0.520	-1.060
2020/01/31 17:20:34.3	358.090	-0.030	-0.480	-1.040
2020/01/31 17:20:34.4	358.110	-0.040	-0.430	-1.030
2020/01/31 17:20:34.5	358.130	-0.040	-0.390	-1.010
2020/01/31 17:20:34.6	358.150	-0.040	-0.340	-0.990
2020/01/31 17:20:34.7	358.160	-0.050	-0.300	-0.970
2020/01/31 17:20:34.8	358.170	-0.060	-0.260	-0.940
2020/01/31 17:20:34.9	358.180	-0.060	-0.210	-0.920
2020/01/31 17:20:35.0	358.190	-0.060	-0.170	-0.900
2020/01/31 17:20:35.1	358.200	-0.070	-0.120	-0.870
2020/01/31 17:20:35.2	358.200	-0.070	-0.080	-0.840
2020/01/31 17:20:35.3	358.200	-0.080	-0.040	-0.810
2020/01/31 17:20:35.4	358.200	-0.080	0.010	-0.780
2020/01/31 17:20:35.5	358.200	-0.080	0.050	-0.750
2020/01/31 17:20:35.6	358.200	-0.090	0.090	-0.720
2020/01/31 17:20:35.7	358.190	-0.090	0.140	-0.680
2020/01/31 17:20:35.8	358.180	-0.090	0.180	-0.650
2020/01/31 17:20:35.9	358.170	-0.090	0.220	-0.610
2020/01/31 17:20:36.0	358.160	-0.090	0.260	-0.570
2020/01/31 17:20:36.1	358.150	-0.090	0.300	-0.540
2020/01/31 17:20:36.2	358.130	-0.090	0.340	-0.500
2020/01/31 17:20:36.3	358.120	-0.090	0.380	-0.460
2020/01/31 17:20:36.4	358.100	-0.090	0.420	-0.430
2020/01/31 17:20:36.5	358.080	-0.090	0.450	-0.390
2020/01/31 17:20:36.6	358.060	-0.090	0.490	-0.350
2020/01/31 17:20:36.7	358.040	-0.090	0.520	-0.320
2020/01/31 17:20:36.8	358.000	-0.090	0.550	-0.280
2020/01/31 17:20:36.9	357.980	-0.090	0.570	-0.250
2020/01/31 17:20:37.0	357.950	-0.100	0.600	-0.220
2020/01/31 17:20:37.1	357.920	-0.100	0.620	-0.190
2020/01/31 17:20:37.2	357.890	-0.100	0.640	-0.160
2020/01/31 17:20:37.3	357.860	-0.100	0.650	-0.130
2020/01/31 17:20:37.4	357.830	-0.110	0.660	-0.110
2020/01/31 17:20:37.5	357.790	-0.110	0.670	-0.090
2020/01/31 17:20:37.6	357.760	-0.120	0.670	-0.070
2020/01/31 17:20:37.7	357.730	-0.120	0.660	-0.060
2020/01/31 17:20:37.8	357.670	-0.120	0.660	-0.050
2020/01/31 17:20:37.9	357.640	-0.130	0.640	-0.040
2020/01/31 17:20:38.0	357.600	-0.130	0.620	-0.030
2020/01/31 17:20:38.1	357.560	-0.140	0.600	-0.020
2020/01/31 17:20:38.2	357.530	-0.140	0.570	-0.020
2020/01/31 17:20:38.3	357.490	-0.150	0.530	-0.020
2020/01/31 17:20:38.4	357.460	-0.150	0.490	-0.020
2020/01/31 17:20:38.5	357.420	-0.150	0.450	-0.020
2020/01/31 17:20:38.6	357.390	-0.150	0.400	-0.020
2020/01/31 17:20:38.7	357.350	-0.150	0.340	-0.030
2020/01/31 17:20:38.8	357.320	-0.150	0.290	-0.040
2020/01/31 17:20:38.9	357.290	-0.140	0.230	-0.050
2020/01/31 17:20:39.0	357.260	-0.140	0.160	-0.060
2020/01/31 17:20:39.1	357.240	-0.130	0.090	-0.070
2020/01/31 17:20:39.2	357.210	-0.130	0.020	-0.080
2020/01/31 17:20:39.3	357.180	-0.120	-0.050	-0.100
2020/01/31 17:20:39.4	357.160	-0.100	-0.120	-0.110
2020/01/31 17:20:39.5	357.140	-0.090	-0.190	-0.130
2020/01/31 17:20:39.6	357.120	-0.080	-0.270	-0.150
2020/01/31 17:20:39.7	357.100	-0.060	-0.340	-0.170
2020/01/31 17:20:39.8	357.070	-0.040	-0.410	-0.190
2020/01/31 17:20:39.9	357.060	-0.020	-0.490	-0.220
2020/01/31 17:20:40.0	357.040	-0.000	-0.560	-0.240
2020/01/31 17:20:40.1	357.030	0.020	-0.630	-0.270
2020/01/31 17:20:40.2	357.020	0.050	-0.690	-0.300
2020/01/31 17:20:40.3	357.010	0.070	-0.760	-0.330
2020/01/31 17:20:40.4	357.010	0.100	-0.820	-0.360
2020/01/31 17:20:40.5	357.010	0.120	-0.880	-0.390
2020/01/31 17:20:40.6	357.010	0.150	-0.930	-0.420
2020/01/31 17:20:40.7	357.010	0.180	-0.980	-0.450
2020/01/31 17:20:40.8	357.020	0.200	-1.030	-0.480
2020/01/31 17:20:40.9	357.030	0.230	-1.070	-0.510
2020/01/31 17:20:41.0	357.040	0.250	-1.100	-0.540
2020/01/31 17:20:41.1	357.060	0.280	-1.140	-0.570
2020/01/31 17:20:41.2	357.080	0.300	-1.160	-0.600
2020/01/31 17:20:41.3	357.100	0.320	-1.190	-0.630
2020/01/31 17:20:41.4	357.120	0.340	-1.200	-0.660
2020/01/31 17:20:41.5	357.150	0.360	-1.220	-0.690
2020/01/31 17:20:41.6	357.180	0.370	-1.220	-0.720
2020/01/31 17:20:41.7	357.200	0.390	-1.230	-0.750
2020/01/31 17:20:41.8	357.250	0.390	-1.220	-0.770
2020/01/31 17:20:41.9	357.290	0.400	-1.220	-0.800
2020/01/31 17:20:42.0	357.320	0.400	-1.210	-0.830
2020/01/31 17:20:42.1	357.350	0.400	-1.190	-0.850
2020/01/31 17:20:42.2	357.380	0.390	-1.170	-0.880
2020/01/31 17:20:42.3	357.420	0.380	-1.150	-0.900
2020/01/31 17:20:42.4	357.450	0.370	-1.130	-0.920
2020/01/31 17:20:42.5	357.480	0.350	-1.100	-0.940
2020/01/31 17:20:42.6	357.520	0.330	-1.070	-0.970
2020/01/31 17:20:42.7	357.560	0.300	-1.040	-0.990
2020/01/31 17:20:42.8	357.600	0.270	-1.000	-1.010
2020/01/31 17:20:42.9	357.640	0.240	-0.970	-1.030
2020/01/31 17:20:43.0	357.680	0.210	-0.930	-1.050
2020/01/31 17:20:43.1	357.720	0.170	-0.900	-1.080
2020/01/31 17:20:43.2	357.760	0.130	-0.860	-1.100
2020/01/31 17:20:43.3	357.810	0.090	-0.820	-1.130
2020/01/31 17:20:43.4	357.850	0.050	-0.790	-1.150
2020/01/31 17:20:43.5	357.900	0.010	-0.750	-1.180
2020/01/31 17:20:43.6	357.950	-0.040	-0.710	-1.200
2020/01/31 17:20:43.7	358.000	-0.080	-0.680	-1.230
2020/01/31 17:20:43.8	358.050	-0.120	-0.640	-1.250
2020/01/31 17:20:43.9	358.110	-0.170	-0.600	-1.270
2020/01/31 17:20:44.0	358.160	-0.210	-0.570	-1.300
2020/01/31 17:20:44.1	358.210	-0.250	-0.530	-1.320
2020/01/31 17:20:44.2	358.260	-0.290	-0.490	-1.340
2020/01/31 17:20:44.3	358.310	-0.320	-0.460	-1.350
2020/01/31 17:20:44.4	358.360	-0.360	-0.420	-1.370
2020/01/31 17:20:44.5	358.410	-0.390	-0.380	-1.380
2020/01/31 17:20:44.6	358.460	-0.420	-0.340	-1.390
2020/01/31 17:20:44.7	358.500	-0.440	-0.300	-1.390
2020/01/31 17:20:44.8	358.540	-0.460	-0.260	-1.390
2020/01/31 17:20:44.9	358.580	-0.480	-0.210	-1.380
2020/01/31 17:20:45.0	358.610	-0.500	-0.170	-1.360
2020/01/31 17:20:45.1	358.640	-0.510	-0.120	-1.340
2020/01/31 17:20:45.2	358.660	-0.520	-0.070	-1.310
2020/01/31 17:20:45.3	358.670	-0.530	-0.010	-1.280
2020/01/31 17:20:45.4	358.680	-0.530	0.040	-1.230
2020/01/31 17:20:45.5	358.680	-0.530	0.100	-1.180
2020/01/31 17:20:45.6	358.680	-0.520	0.160	-1.130
2020/01/31 17:20:45.7	358.670	-0.520	0.230	-1.060
2020/01/31 17:20:45.8	358.640	-0.510	0.290	-0.990
2020/01/31 17:20:45.9	358.620	-0.500	0.360	-0.920
2020/01/31 17:20:46.0	358.590	-0.480	0.430	-0.840
2020/01/31 17:20:46.1	358.550	-0.470	0.490	-0.760
2020/01/31 17:20:46.2	358.510	-0.450	0.560	-0.670
2020/01/31 17:20:46.3	358.470	-0.430	0.630	-0.580
2020/01/31 17:20:46.4	358.420	-0.410	0.700	-0.490
2020/01/31 17:20:46.5	358.360	-0.390	0.760	-0.400
2020/01/31 17:20:46.6	358.300	-0.370	0.820	-0.310
2020/01/31 17:20:46.7	358.230	-0.340	0.880	-0.210
2020/01/31 17:20:46.8	358.170	-0.320	0.930	-0.110
2020/01/31 17:20:46.9	358.100	-0.290	0.980	-0.020
2020/01/31 17:20:47.0	358.020	-0.270	1.020	0.080
2020/01/31 17:20:47.1	357.940	-0.240	1.060	0.170
2020/01/31 17:20:47.2	357.860	-0.220	1.090	0.260
2020/01/31 17:20:47.3	357.780	-0.190	1.110	0.340
2020/01/31 17:20:47.4	357.710	-0.170	1.120	0.420
2020/01/31 17:20:47.5	357.630	-0.140	1.120	0.500
2020/01/31 17:20:47.6	357.550	-0.120	1.110	0.570
2020/01/31 17:20:47.7	357.470	-0.090	1.090	0.640
2020/01/31 17:20:47.8	357.390	-0.070	1.070	0.710
2020/01/31 17:20:47.9	357.310	-0.050	1.030	0.760
2020/01/31 17:20:48.0	357.250	-0.020	0.990	0.800
2020/01/31 17:20:48.1	357.180	0.000	0.930	0.840
2020/01/31 17:20:48.2	357.120	0.030	0.860	0.870
2020/01/31 17:20:48.3	357.070	0.060	0.790	0.890
2020/01/31 17:20:48.4	357.010	0.080	0.700	0.900
2020/01/31 17:20:48.5	356.970	0.110	0.610	0.910
2020/01/31 17:20:48.6	356.930	0.130	0.510	0.900
2020/01/31 17:20:48.7	356.890	0.160	0.400	0.890
2020/01/31 17:20:48.8	356.860	0.190	0.290	0.870
2020/01/31 17:20:48.9	356.830	0.220	0.170	0.840
2020/01/31 17:20:49.0	356.810	0.240	0.040	0.800
2020/01/31 17:20:49.1	356.800	0.270	-0.090	0.760
2020/01/31 17:20:49.2	356.790	0.300	-0.220	0.710
2020/01/31 17:20:49.3	356.790	0.330	-0.350	0.650
2020/01/31 17:20:49.4	356.790	0.360	-0.480	0.590
2020/01/31 17:20:49.5	356.790	0.380	-0.600	0.530
2020/01/31 17:20:49.6	356.800	0.410	-0.730	0.460
2020/01/31 17:20:49.7	356.810	0.440	-0.850	0.390
2020/01/31 17:20:49.8	356.820	0.460	-0.970	0.310
2020/01/31 17:20:49.9	356.840	0.490	-1.080	0.240
2020/01/31 17:20:50.0	356.860	0.510	-1.190	0.160
2020/01/31 17:20:50.1	356.880	0.530	-1.290	0.080
2020/01/31 17:20:50.2	356.910	0.550	-1.380	0.000
2020/01/31 17:20:50.3	356.930	0.560	-1.460	-0.080
2020/01/31 17:20:50.4	356.960	0.580	-1.530	-0.160
2020/01/31 17:20:50.5	356.990	0.590	-1.590	-0.240
2020/01/31 17:20:50.6	357.020	0.600	-1.650	-0.320
2020/01/31 17:20:50.7	357.060	0.600	-1.690	-0.400
2020/01/31 17:20:50.8	357.090	0.600	-1.720	-0.490
2020/01/31 17:20:50.9	357.130	0.600	-1.750	-0.570
2020/01/31 17:20:51.0	357.170	0.600	-1.770	-0.660
2020/01/31 17:20:51.1	357.220	0.590	-1.780	-0.740
2020/01/31 17:20:51.2	357.260	0.580	-1.780	-0.830
2020/01/31 17:20:51.3	357.310	0.560	-1.770	-0.910
2020/01/31 17:20:51.4	357.360	0.550	-1.760	-1.000
2020/01/31 17:20:51.5	357.410	0.520	-1.740	-1.080
2020/01/31 17:20:51.6	357.460	0.500	-1.710	-1.170
2020/01/31 17:20:51.7	357.510	0.470	-1.680	-1.250
2020/01/31 17:20:51.8	357.570	0.440	-1.630	-1.320
2020/01/31 17:20:51.9	357.620	0.410	-1.590	-1.400
2020/01/31 17:20:52.0	357.680	0.370	-1.530	-1.470
2020/01/31 17:20:52.1	357.730	0.330	-1.470	-1.540
2020/01/31 17:20:52.2	357.780	0.290	-1.410	-1.610
2020/01/31 17:20:52.3	357.840	0.250	-1.340	-1.670
2020/01/31 17:20:52.4	357.890	0.200	-1.260	-1.730
2020/01/31 17:20:52.5	357.940	0.150	-1.180	-1.780
2020/01/31 17:20:52.6	357.980	0.110	-1.100	-1.830
2020/01/31 17:20:52.7	358.030	0.050	-1.010	-1.870
2020/01/31 17:20:52.8	358.090	0.000	-0.930	-1.910
2020/01/31 17:20:52.9	358.130	-0.050	-0.830	-1.940
2020/01/31 17:20:53.0	358.170	-0.100	-0.740	-1.960
2020/01/31 17:20:53.1	358.210	-0.150	-0.640	-1.980
2020/01/31 17:20:53.2	358.240	-0.210	-0.540	-1.990
2020/01/31 17:20:53.3	358.270	-0.260	-0.440	-2.000
2020/01/31 17:20:53.4	358.300	-0.310	-0.330	-1.990
2020/01/31 17:20:53.5	358.330	-0.360	-0.230	-1.980
2020/01/31 17:20:53.6	358.350	-0.400	-0.130	-1.970
2020/01/31 17:20:53.7	358.360	-0.450	-0.020	-1.950
2020/01/31 17:20:53.8	358.380	-0.490	0.080	-1.910
2020/01/31 17:20:53.9	358.390	-0.530	0.180	-1.880
2020/01/31 17:20:54.0	358.400	-0.570	0.280	-1.840
2020/01/31 17:20:54.1	358.400	-0.610	0.370	-1.790
2020/01/31 17:20:54.2	358.400	-0.640	0.460	-1.740
2020/01/31 17:20:54.3	358.400	-0.660	0.550	-1.680
2020/01/31 17:20:54.4	358.390	-0.690	0.630	-1.620
2020/01/31 17:20:54.5	358.370	-0.710	0.710	-1.550
2020/01/31 17:20:54.6	358.350	-0.720	0.780	-1.470
2020/01/31 17:20:54.7	358.330	-0.730	0.840	-1.390
2020/01/31 17:20:54.8	358.300	-0.740	0.900	-1.310
2020/01/31 17:20:54.9	358.270	-0.740	0.950	-1.220
2020/01/31 17:20:55.0	358.240	-0.740	1.000	-1.130
2020/01/31 17:20:55.1	358.200	-0.730	1.030	-1.030
2020/01/31 17:20:55.2	358.160	-0.720	1.060	-0.940
2020/01/31 17:20:55.3	358.120	-0.710	1.080	-0.840
2020/01/31 17:20:55.4	358.070	-0.690	1.090	-0.740
2020/01/31 17:20:55.5	358.020	-0.670	1.100	-0.640
2020/01/31 17:20:55.6	357.980	-0.640	1.100	-0.540
2020/01/31 17:20:55.7	357.920	-0.610	1.090	-0.440
2020/01/31 17:20:55.8	357.880	-0.580	1.070	-0.330
2020/01/31 17:20:55.9	357.820	-0.540	1.040	-0.230
2020/01/31 17:20:56.0	357.770	-0.510	1.010	-0.130
2020/01/31 17:20:56.1	357.710	-0.470	0.980	-0.040
2020/01/31 17:20:56.2	357.660	-0.420	0.940	0.060
2020/01/31 17:20:56.3	357.600	-0.380	0.890	0.150
2020/01/31 17:20:56.4	357.540	-0.340	0.840	0.240
2020/01/31 17:20:56.5	357.480	-0.290	0.790	0.330
2020/01/31 17:20:56.6	357.430	-0.240	0.730	0.410
2020/01/31 17:20:56.7	357.370	-0.200	0.680	0.490
2020/01/31 17:20:56.8	357.310	-0.150	0.620	0.570
2020/01/31 17:20:56.9	357.250	-0.100	0.560	0.640
2020/01/31 17:20:57.0	357.190	-0.060	0.500	0.710
2020/01/31 17:20:57.1	357.130	-0.010	0.440	0.770
2020/01/31 17:20:57.2	357.080	0.030	0.370	0.830
2020/01/31 17:20:57.3	357.020	0.070	0.310	0.880
2020/01/31 17:20:57.4	356.970	0.120	0.250	0.930
2020/01/31 17:20:57.5	356.920	0.150	0.190	0.970
2020/01/31 17:20:57.6	356.860	0.190	0.130	1.010
2020/01/31 17:20:57.7	356.820	0.230	0.070	1.050
2020/01/31 17:20:57.8	356.750	0.260	0.010	1.070
2020/01/31 17:20:57.9	356.710	0.290	-0.050	1.100
2020/01/31 17:20:58.0	356.670	0.320	-0.110	1.120
2020/01/31 17:20:58.1	356.640	0.350	-0.170	1.130
2020/01/31 17:20:58.2	356.610	0.370	-0.230	1.130
2020/01/31 17:20:58.3	356.590	0.390	-0.290	1.130
2020/01/31 17:20:58.4	356.570	0.410	-0.350	1.130
2020/01/31 17:20:58.5	356.560	0.430	-0.410	1.120
2020/01/31 17:20:58.6	356.550	0.450	-0.470	1.100
2020/01/31 17:20:58.7	356.560	0.470	-0.530	1.070
2020/01/31 17:20:58.8	356.550	0.480	-0.590	1.030
2020/01/31 17:20:58.9	356.570	0.490	-0.660	0.990
2020/01/31 17:20:59.0	356.580	0.500	-0.720	0.940
2020/01/31 17:20:59.1	356.600	0.510	-0.790	0.890
2020/01/31 17:20:59.2	356.630	0.520	-0.850	0.830
2020/01/31 17:20:59.3	356.660	0.520	-0.920	0.760
2020/01/31 17:20:59.4	356.700	0.530	-0.980	0.690
2020/01/31 17:20:59.5	356.740	0.530	-1.040	0.610
2020/01/31 17:20:59.6	356.780	0.530	-1.100	0.530
2020/01/31 17:20:59.7	356.820	0.520	-1.160	0.440
2020/01/31 17:20:59.8	356.870	0.520	-1.210	0.350
2020/01/31 17:20:59.9	356.910	0.510	-1.260	0.260
2020/01/31 17:21:00.0	356.960	0.500	-1.300	0.160
2020/01/31 17:21:00.1	357.010	0.490	-1.340	0.060
2020/01/31 17:21:00.2	357.060	0.480	-1.380	-0.030
2020/01/31 17:21:00.3	357.110	0.460	-1.410	-0.130
2020/01/31 17:21:00.4	357.170	0.440	-1.430	-0.230
2020/01/31 17:21:00.5	357.220	0.420	-1.450	-0.330
2020/01/31 17:21:00.6	357.270	0.400	-1.460	-0.430
2020/01/31 17:21:00.7	357.310	0.370	-1.470	-0.520
2020/01/31 17:21:00.8	357.370	0.340	-1.460	-0.620
2020/01/31 17:21:00.9	357.420	0.310	-1.450	-0.710
2020/01/31 17:21:01.0	357.470	0.280	-1.430	-0.800
2020/01/31 17:21:01.1	357.510	0.250	-1.410	-0.880
2020/01/31 17:21:01.2	357.550	0.210	-1.370	-0.960
2020/01/31 17:21:01.3	357.590	0.170	-1.330	-1.030
2020/01/31 17:21:01.4	357.630	0.130	-1.290	-1.100
2020/01/31 17:21:01.5	357.660	0.090	-1.240	-1.170
2020/01/31 17:21:01.6	357.700	0.050	-1.180	-1.230
2020/01/31 17:21:01.7	357.730	0.010	-1.120	-1.280
2020/01/31 17:21:01.8	357.750	-0.040	-1.050	-1.330
2020/01/31 17:21:01.9	357.770	-0.080	-0.980	-1.370
2020/01/31 17:21:02.0	357.790	-0.120	-0.900	-1.400
2020/01/31 17:21:02.1	357.800	-0.170	-0.820	-1.420
2020/01/31 17:21:02.2	357.810	-0.210	-0.740	-1.440
2020/01/31 17:21:02.3	357.820	-0.260	-0.650	-1.450
2020/01/31 17:21:02.4	357.820	-0.300	-0.560	-1.450
2020/01/31 17:21:02.5	357.810	-0.340	-0.470	-1.450
2020/01/31 17:21:02.6	357.800	-0.380	-0.380	-1.440
2020/01/31 17:21:02.7	357.790	-0.420	-0.280	-1.420
2020/01/31 17:21:02.8	357.780	-0.460	-0.190	-1.400
2020/01/31 17:21:02.9	357.750	-0.490	-0.100	-1.370
2020/01/31 17:21:03.0	357.730	-0.520	-0.010	-1.330
2020/01/31 17:21:03.1	357.700	-0.550	0.080	-1.300
2020/01/31 17:21:03.2	357.670	-0.580	0.170	-1.250
2020/01/31 17:21:03.3	357.630	-0.600	0.250	-1.210
2020/01/31 17:21:03.4	357.600	-0.620	0.330	-1.150
2020/01/31 17:21:03.5	357.560	-0.630	0.400	-1.100
2020/01/31 17:21:03.6	357.520	-0.640	0.470	-1.040
2020/01/31 17:21:03.7	357.480	-0.650	0.530	-0.990
2020/01/31 17:21:03.8	357.440	-0.650	0.590	-0.920
2020/01/31 17:21:03.9	357.400	-0.640	0.640	-0.860
2020/01/31 17:21:04.0	357.360	-0.630	0.680	-0.800
2020/01/31 17:21:04.1	357.320	-0.620	0.710	-0.740
2020/01/31 17:21:04.2	357.280	-0.600	0.730	-0.680
2020/01/31 17:21:04.3	357.250	-0.570	0.740	-0.620
2020/01/31 17:21:04.4	357.210	-0.540	0.740	-0.560
2020/01/31 17:21:04.5	357.180	-0.500	0.730	-0.500
2020/01/31 17:21:04.6	357.150	-0.460	0.710	-0.450
2020/01/31 17:21:04.7	357.130	-0.410	0.690	-0.400
2020/01/31 17:21:04.8	357.110	-0.360	0.650	-0.350
2020/01/31 17:21:04.9	357.090	-0.310	0.610	-0.300
2020/01/31 17:21:05.0	357.070	-0.250	0.560	-0.260
2020/01/31 17:21:05.1	357.050	-0.190	0.500	-0.220
2020/01/31 17:21:05.2	357.040	-0.130	0.430	-0.180
2020/01/31 17:21:05.3	357.030	-0.060	0.360	-0.150
2020/01/31 17:21:05.4	357.030	0.010	0.280	-0.120
2020/01/31 17:21:05.5	357.020	0.070	0.210	-0.090
2020/01/31 17:21:05.6	357.020	0.140	0.120	-0.070
2020/01/31 17:21:05.7	357.020	0.210	0.040	-0.050
2020/01/31 17:21:05.8	357.010	0.270	-0.040	-0.040
2020/01/31 17:21:05.9	357.020	0.330	-0.120	-0.020
2020/01/31 17:21:06.0	357.020	0.400	-0.200	-0.010
2020/01/31 17:21:06.1	357.020	0.450	-0.280	0.000
2020/01/31 17:21:06.2	357.030	0.510	-0.350	0.010
2020/01/31 17:21:06.3	357.040	0.560	-0.410	0.030
2020/01/31 17:21:06.4	357.040	0.600	-0.470	0.040
2020/01/31 17:21:06.5	357.050	0.640	-0.520	0.050
2020/01/31 17:21:06.6	357.050	0.680	-0.570	0.060
2020/01/31 17:21:06.7	357.050	0.710	-0.610	0.070
2020/01/31 17:21:06.8	357.060	0.730	-0.630	0.090
2020/01/31 17:21:06.9	357.060	0.750	-0.650	0.100
2020/01/31 17:21:07.0	357.060	0.760	-0.660	0.120
2020/01/31 17:21:07.1	357.060	0.770	-0.660	0.140
2020/01/31 17:21:07.2	357.060	0.770	-0.660	0.150
2020/01/31 17:21:07.3	357.050	0.760	-0.640	0.170
2020/01/31 17:21:07.4	357.050	0.740	-0.620	0.180
2020/01/31 17:21:07.5	357.040	0.720	-0.590	0.200
2020/01/31 17:21:07.6	357.040	0.700	-0.550	0.220
2020/01/31 17:21:07.7	357.030	0.660	-0.510	0.230
2020/01/31 17:21:07.8	357.020	0.630	-0.460	0.250
2020/01/31 17:21:07.9	357.010	0.590	-0.410	0.260
2020/01/31 17:21:08.0	357.000	0.540	-0.360	0.270
2020/01/31 17:21:08.1	356.990	0.490	-0.300	0.280
2020/01/31 17:21:08.2	356.980	0.440	-0.240	0.290
2020/01/31 17:21:08.3	356.970	0.380	-0.180	0.290
2020/01/31 17:21:08.4	356.960	0.330	-0.120	0.290
2020/01/31 17:21:08.5	356.950	0.270	-0.070	0.290
2020/01/31 17:21:08.6	356.930	0.210	-0.010	0.290
2020/01/31 17:21:08.7	356.920	0.150	0.040	0.280
2020/01/31 17:21:08.8	356.910	0.090	0.090	0.260
2020/01/31 17:21:08.9	356.900	0.030	0.140	0.250
2020/01/31 17:21:09.0	356.880	-0.030	0.180	0.230
2020/01/31 17:21:09.1	356.860	-0.080	0.210	0.210
2020/01/31 17:21:09.2	356.850	-0.140	0.250	0.190
2020/01/31 17:21:09.3	356.830	-0.190	0.270	0.170
2020/01/31 17:21:09.4	356.810	-0.240	0.290	0.140
2020/01/31 17:21:09.5	356.790	-0.280	0.300	0.120
2020/01/31 17:21:09.6	356.780	-0.320	0.310	0.090
2020/01/31 17:21:09.7	356.760	-0.360	0.310	0.060
2020/01/31 17:21:09.8	356.730	-0.390	0.300	0.030
2020/01/31 17:21:09.9	356.720	-0.420	0.290	0.000
2020/01/31 17:21:10.0	356.700	-0.440	0.260	-0.030
2020/01/31 17:21:10.1	356.690	-0.460	0.240	-0.070
2020/01/31 17:21:10.2	356.670	-0.470	0.200	-0.100
2020/01/31 17:21:10.3	356.660	-0.480	0.160	-0.140
2020/01/31 17:21:10.4	356.650	-0.480	0.110	-0.180
2020/01/31 17:21:10.5	356.650	-0.480	0.060	-0.220
2020/01/31 17:21:10.6	356.640	-0.470	0.000	-0.260
2020/01/31 17:21:10.7	356.640	-0.460	-0.060	-0.300
2020/01/31 17:21:10.8	356.650	-0.450	-0.130	-0.350
2020/01/31 17:21:10.9	356.660	-0.430	-0.200	-0.400
2020/01/31 17:21:11.0	356.660	-0.410	-0.270	-0.450
2020/01/31 17:21:11.1	356.670	-0.380	-0.350	-0.500
2020/01/31 17:21:11.2	356.680	-0.350	-0.420	-0.560
2020/01/31 17:21:11.3	356.690	-0.320	-0.500	-0.610
2020/01/31 17:21:11.4	356.710	-0.290	-0.580	-0.660
2020/01/31 17:21:11.5	356.720	-0.260	-0.650	-0.710
2020/01/31 17:21:11.6	356.740	-0.220	-0.720	-0.760
2020/01/31 17:21:11.7	356.760	-0.190	-0.790	-0.800
2020/01/31 17:21:11.8	356.780	-0.150	-0.850	-0.840
2020/01/31 17:21:11.9	356.790	-0.120	-0.910	-0.880
2020/01/31 17:21:12.0	356.810	-0.090	-0.960	-0.910
2020/01/31 17:21:12.1	356.820	-0.060	-1.000	-0.940
2020/01/31 17:21:12.2	356.830	-0.030	-1.040	-0.960
2020/01/31 17:21:12.3	356.830	-0.000	-1.070	-0.980
2020/01/31 17:21:12.4	356.840	0.020	-1.090	-1.000
2020/01/31 17:21:12.5	356.840	0.040	-1.100	-1.000
2020/01/31 17:21:12.6	356.840	0.060	-1.100	-1.010
2020/01/31 17:21:12.7	356.840	0.070	-1.090	-1.010
2020/01/31 17:21:12.8	356.850	0.070	-1.070	-1.010
2020/01/31 17:21:12.9	356.850	0.080	-1.040	-1.000
2020/01/31 17:21:13.0	356.850	0.080	-1.010	-1.000
2020/01/31 17:21:13.1	356.850	0.070	-0.970	-0.990
2020/01/31 17:21:13.2	356.840	0.060	-0.920	-0.980
2020/01/31 17:21:13.3	356.840	0.050	-0.860	-0.970
2020/01/31 17:21:13.4	356.830	0.030	-0.800	-0.960
2020/01/31 17:21:13.5	356.830	0.010	-0.730	-0.950
2020/01/31 17:21:13.6	356.830	-0.010	-0.660	-0.940
2020/01/31 17:21:13.7	356.820	-0.040	-0.580	-0.930
2020/01/31 17:21:13.8	356.830	-0.070	-0.500	-0.910
2020/01/31 17:21:13.9	356.820	-0.100	-0.420	-0.900
2020/01/31 17:21:14.0	356.820	-0.130	-0.340	-0.880
2020/01/31 17:21:14.1	356.820	-0.160	-0.260	-0.870
2020/01/31 17:21:14.2	356.820	-0.190	-0.170	-0.850
2020/01/31 17:21:14.3	356.820	-0.220	-0.090	-0.830
2020/01/31 17:21:14.4	356.820	-0.250	-0.010	-0.810
2020/01/31 17:21:14.5	356.830	-0.270	0.070	-0.790
2020/01/31 17:21:14.6	356.830	-0.300	0.150	-0.770
2020/01/31 17:21:14.7	356.830	-0.330	0.220	-0.740
2020/01/31 17:21:14.8	356.830	-0.350	0.290	-0.710
2020/01/31 17:21:14.9	356.830	-0.370	0.350	-0.680
2020/01/31 17:21:15.0	356.830	-0.380	0.410	-0.650
2020/01/31 17:21:15.1	356.840	-0.400	0.460	-0.620
2020/01/31 17:21:15.2	356.840	-0.410	0.500	-0.590
2020/01/31 17:21:15.3	356.840	-0.410	0.540	-0.560
2020/01/31 17:21:15.4	356.850	-0.420	0.570	-0.530
2020/01/31 17:21:15.5	356.850	-0.420	0.590	-0.490
2020/01/31 17:21:15.6	356.850	-0.410	0.600	-0.460
2020/01/31 17:21:15.7	356.860	-0.400	0.610	-0.430
2020/01/31 17:21:15.8	356.840	-0.390	0.610	-0.390
2020/01/31 17:21:15.9	356.850	-0.380	0.590	-0.360
2020/01/31 17:21:16.0	356.850	-0.360	0.570	-0.320
2020/01/31 17:21:16.1	356.860	-0.340	0.540	-0.290
2020/01/31 17:21:16.2	356.860	-0.310	0.500	-0.270
2020/01/31 17:21:16.3	356.870	-0.280	0.450	-0.240
2020/01/31 17:21:16.4	356.870	-0.250	0.400	-0.210
2020/01/31 17:21:16.5	356.880	-0.220	0.340	-0.190
2020/01/31 17:21:16.6	356.880	-0.180	0.270	-0.170
2020/01/31 17:21:16.7	356.890	-0.150	0.190	-0.150
2020/01/31 17:21:16.8	356.900	-0.110	0.120	-0.130
2020/01/31 17:21:16.9	356.910	-0.070	0.030	-0.110
2020/01/31 17:21:17.0	356.920	-0.020	-0.060	-0.100
2020/01/31 17:21:17.1	356.920	0.020	-0.140	-0.090
2020/01/31 17:21:17.2	356.930	0.060	-0.240	-0.070
2020/01/31 17:21:17.3	356.940	0.100	-0.330	-0.060
2020/01/31 17:21:17.4	356.940	0.150	-0.420	-0.050
2020/01/31 17:21:17.5	356.950	0.190	-0.510	-0.050
2020/01/31 17:21:17.6	356.960	0.230	-0.590	-0.040
2020/01/31 17:21:17.7	356.960	0.270	-0.680	-0.030
2020/01/31 17:21:17.8	356.970	0.310	-0.760	-0.020
2020/01/31 17:21:17.9	356.970	0.350	-0.830	-0.000
2020/01/31 17:21:18.0	356.970	0.390	-0.900	0.010
2020/01/31 17:21:18.1	356.970	0.430	-0.970	0.020
2020/01/31 17:21:18.2	356.960	0.460	-1.020	0.040
2020/01/31 17:21:18.3	356.960	0.490	-1.060	0.050
2020/01/31 17:21:18.4	356.950	0.520	-1.100	0.070
2020/01/31 17:21:18.5	356.940	0.540	-1.130	0.090
2020/01/31 17:21:18.6	356.930	0.560	-1.150	0.110
2020/01/31 17:21:18.7	356.920	0.580	-1.160	0.130
2020/01/31 17:21:18.8	356.900	0.590	-1.160	0.160
2020/01/31 17:21:18.9	356.890	0.610	-1.150	0.180
2020/01/31 17:21:19.0	356.870	0.610	-1.130	0.200
2020/01/31 17:21:19.1	356.850	0.620	-1.110	0.230
2020/01/31 17:21:19.2	356.830	0.620	-1.070	0.250
2020/01/31 17:21:19.3	356.810	0.620	-1.030	0.270
2020/01/31 17:21:19.4	356.790	0.610	-0.980	0.300
2020/01/31 17:21:19.5	356.770	0.600	-0.920	0.320
2020/01/31 17:21:19.6	356.750	0.590	-0.860	0.340
2020/01/31 17:21:19.7	356.720	0.580	-0.790	0.370
2020/01/31 17:21:19.8	356.690	0.560	-0.720	0.390
2020/01/31 17:21:19.9	356.660	0.540	-0.650	0.410
2020/01/31 17:21:20.0	356.640	0.520	-0.570	0.420
2020/01/31 17:21:20.1	356.610	0.500	-0.490	0.440
2020/01/31 17:21:20.2	356.590	0.470	-0.410	0.460
2020/01/31 17:21:20.3	356.560	0.450	-0.320	0.470
2020/01/31 17:21:20.4	356.540	0.420	-0.240	0.480
2020/01/31 17:21:20.5	356.510	0.390	-0.160	0.480
2020/01/31 17:21:20.6	356.480	0.360	-0.080	0.480
2020/01/31 17:21:20.7	356.460	0.330	-0.000	0.480
2020/01/31 17:21:20.8	356.440	0.300	0.070	0.480
2020/01/31 17:21:20.9	356.420	0.270	0.140	0.470
2020/01/31 17:21:21.0	356.400	0.230	0.210	0.460
2020/01/31 17:21:21.1	356.380	0.200	0.270	0.440
2020/01/31 17:21:21.2	356.360	0.170	0.320	0.410
2020/01/31 17:21:21.3	356.340	0.140	0.370	0.390
2020/01/31 17:21:21.4	356.330	0.110	0.410	0.360
2020/01/31 17:21:21.5	356.310	0.090	0.450	0.330
2020/01/31 17:21:21.6	356.300	0.060	0.470	0.290
2020/01/31 17:21:21.7	356.300	0.040	0.500	0.250
2020/01/31 17:21:21.8	356.280	0.010	0.510	0.210
2020/01/31 17:21:21.9	356.280	-0.010	0.520	0.170
2020/01/31 17:21:22.0	356.280	-0.020	0.520	0.120
2020/01/31 17:21:22.1	356.280	-0.040	0.520	0.080
2020/01/31 17:21:22.2	356.290	-0.060	0.500	0.030
2020/01/31 17:21:22.3	356.290	-0.070	0.480	-0.020
2020/01/31 17:21:22.4	356.300	-0.080	0.460	-0.060
2020/01/31 17:21:22.5	356.310	-0.090	0.430	-0.110
2020/01/31 17:21:22.6	356.320	-0.090	0.390	-0.160
2020/01/31 17:21:22.7	356.340	-0.100	0.350	-0.200
2020/01/31 17:21:22.8	356.340	-0.100	0.300	-0.250
2020/01/31 17:21:22.9	356.360	-0.100	0.250	-0.290
2020/01/31 17:21:23.0	356.380	-0.100	0.200	-0.340
2020/01/31 17:21:23.1	356.400	-0.100	0.150	-0.380
2020/01/31 17:21:23.2	356.420	-0.100	0.090	-0.430
2020/01/31 17:21:23.3	356.440	-0.100	0.030	-0.470
2020/01/31 17:21:23.4	356.460	-0.100	-0.040	-0.520
2020/01/31 17:21:23.5	356.480	-0.100	-0.100	-0.560
2020/01/31 17:21:23.6	356.510	-0.090	-0.160	-0.610
2020/01/31 17:21:23.7	356.530	-0.090	-0.230	-0.650
2020/01/31 17:21:23.8	356.560	-0.090	-0.290	-0.700
2020/01/31 17:21:23.9	356.590	-0.090	-0.360	-0.750
2020/01/31 17:21:24.0	356.620	-0.090	-0.420	-0.800
2020/01/31 17:21:24.1	356.650	-0.090	-0.480	-0.850
2020/01/31 17:21:24.2	356.680	-0.090	-0.550	-0.900
2020/01/31 17:21:24.3	356.710	-0.090	-0.600	-0.950
2020/01/31 17:21:24.4	356.750	-0.100	-0.660	-1.000
2020/01/31 17:21:24.5	356.780	-0.100	-0.710	-1.040
2020/01/31 17:21:24.6	356.810	-0.110	-0.750	-1.090
2020/01/31 17:21:24.7	356.840	-0.120	-0.800	-1.130
2020/01/31 17:21:24.8	356.890	-0.120	-0.830	-1.160
2020/01/31 17:21:24.9	356.920	-0.130	-0.860	-1.200
2020/01/31 17:21:25.0	356.950	-0.140	-0.890	-1.230
2020/01/31 17:21:25.1	356.980	-0.160	-0.900	-1.250
2020/01/31 17:21:25.2	357.000	-0.170	-0.910	-1.270
2020/01/31 17:21:25.3	357.030	-0.180	-0.920	-1.290
2020/01/31 17:21:25.4	357.050	-0.200	-0.910	-1.300
2020/01/31 17:21:25.5	357.070	-0.220	-0.900	-1.310
2020/01/31 17:21:25.6	357.090	-0.230	-0.880	-1.310
2020/01/31 17:21:25.7	357.100	-0.250	-0.850	-1.310
2020/01/31 17:21:25.8	357.130	-0.270	-0.810	-1.300
2020/01/31 17:21:25.9	357.140	-0.290	-0.770	-1.290
2020/01/31 17:21:26.0	357.150	-0.310	-0.720	-1.270
2020/01/31 17:21:26.1	357.150	-0.330	-0.660	-1.260
2020/01/31 17:21:26.2	357.150	-0.350	-0.600	-1.230
2020/01/31 17:21:26.3	357.150	-0.380	-0.530	-1.210
2020/01/31 17:21:26.4	357.140	-0.400	-0.460	-1.180
2020/01/31 17:21:26.5	357.140	-0.420	-0.380	-1.140
2020/01/31 17:21:26.6	357.120	-0.440	-0.300	-1.100
2020/01/31 17:21:26.7	357.110	-0.450	-0.220	-1.060
2020/01/31 17:21:26.8	357.100	-0.470	-0.140	-1.010
2020/01/31 17:21:26.9	357.080	-0.490	-0.050	-0.960
2020/01/31 17:21:27.0	357.060	-0.500	0.030	-0.910
2020/01/31 17:21:27.1	357.030	-0.520	0.120	-0.860
2020/01/31 17:21:27.2	357.000	-0.530	0.200	-0.800
2020/01/31 17:21:27.3	356.970	-0.540	0.280	-0.740
2020/01/31 17:21:27.4	356.930	-0.540	0.360	-0.680
2020/01/31 17:21:27.5	356.890	-0.550	0.430	-0.610
2020/01/31 17:21:27.6	356.860	-0.550	0.490	-0.550
2020/01/31 17:21:27.7	356.820	-0.550	0.550	-0.490
2020/01/31 17:21:27.8	356.790	-0.540	0.600	-0.420
2020/01/31 17:21:27.9	356.750	-0.530	0.640	-0.360
2020/01/31 17:21:28.0	356.720	-0.520	0.670	-0.300
2020/01/31 17:21:28.1	356.680	-0.500	0.690	-0.240
2020/01/31 17:21:28.2	356.650	-0.480	0.710	-0.180
2020/01/31 17:21:28.3	356.620	-0.460	0.710	-0.130
2020/01/31 17:21:28.4	356.590	-0.430	0.700	-0.080
2020/01/31 17:21:28.5	356.560	-0.390	0.680	-0.030
2020/01/31 17:21:28.6	356.530	-0.360	0.650	0.010
2020/01/31 17:21:28.7	356.510	-0.320	0.610	0.050
2020/01/31 17:21:28.8	356.480	-0.270	0.560	0.080
2020/01/31 17:21:28.9	356.460	-0.220	0.500	0.110
2020/01/31 17:21:29.0	356.440	-0.170	0.440	0.140
2020/01/31 17:21:29.1	356.430	-0.120	0.360	0.160
2020/01/31 17:21:29.2	356.420	-0.060	0.280	0.180
2020/01/31 17:21:29.3	356.400	0.000	0.200	0.200
2020/01/31 17:21:29.4	356.390	0.060	0.110	0.220
2020/01/31 17:21:29.5	356.380	0.120	0.010	0.240
2020/01/31 17:21:29.6	356.360	0.190	-0.080	0.250
2020/01/31 17:21:29.7	356.350	0.250	-0.170	0.270
2020/01/31 17:21:29.8	356.330	0.310	-0.270	0.280
2020/01/31 17:21:29.9	356.310	0.380	-0.360	0.300
2020/01/31 17:21:30.0	356.300	0.440	-0.450	0.310
2020/01/31 17:21:30.1	356.280	0.500	-0.540	0.330
2020/01/31 17:21:30.2	356.270	0.550	-0.620	0.340
2020/01/31 17:21:30.3	356.250	0.610	-0.700	0.360
2020/01/31 17:21:30.4	356.230	0.660	-0.780	0.370
2020/01/31 17:21:30.5	356.220	0.710	-0.840	0.390
2020/01/31 17:21:30.6	356.200	0.750	-0.910	0.400
2020/01/31 17:21:30.7	356.180	0.800	-0.960	0.420
2020/01/31 17:21:30.8	356.150	0.830	-1.010	0.430
2020/01/31 17:21:30.9	356.130	0.860	-1.050	0.450
2020/01/31 17:21:31.0	356.120	0.890	-1.090	0.460
2020/01/31 17:21:31.1	356.110	0.910	-1.120	0.470
2020/01/31 17:21:31.2	356.100	0.930	-1.140	0.480
2020/01/31 17:21:31.3	356.090	0.950	-1.160	0.480
2020/01/31 17:21:31.4	356.080	0.950	-1.170	0.490
2020/01/31 17:21:31.5	356.080	0.960	-1.180	0.480
2020/01/31 17:21:31.6	356.080	0.960	-1.180	0.480
2020/01/31 17:21:31.7	356.080	0.950	-1.180	0.470
2020/01/31 17:21:31.8	356.080	0.940	-1.170	0.470
2020/01/31 17:21:31.9	356.090	0.920	-1.150	0.460
2020/01/31 17:21:32.0	356.100	0.900	-1.140	0.440
2020/01/31 17:21:32.1	356.110	0.880	-1.110	0.420
2020/01/31 17:21:32.2	356.130	0.850	-1.090	0.390
2020/01/31 17:21:32.3	356.150	0.820	-1.060	0.360
2020/01/31 17:21:32.4	356.170	0.790	-1.030	0.330
2020/01/31 17:21:32.5	356.190	0.750	-1.000	0.300
2020/01/31 17:21:32.6	356.220	0.710	-0.960	0.260
2020/01/31 17:21:32.7	356.240	0.660	-0.920	0.230
2020/01/31 17:21:32.8	356.270	0.610	-0.870	0.190
2020/01/31 17:21:32.9	356.290	0.560	-0.830	0.150
2020/01/31 17:21:33.0	356.320	0.510	-0.780	0.110
2020/01/31 17:21:33.1	356.350	0.450	-0.730	0.060
2020/01/31 17:21:33.2	356.370	0.400	-0.680	0.020
2020/01/31 17:21:33.3	356.400	0.340	-0.630	-0.030
2020/01/31 17:21:33.4	356.420	0.280	-0.570	-0.070
2020/01/31 17:21:33.5	356.450	0.220	-0.520	-0.120
2020/01/31 17:21:33.6	356.470	0.150	-0.460	-0.170
2020/01/31 17:21:33.7	356.500	0.090	-0.400	-0.220
2020/01/31 17:21:33.8	356.520	0.030	-0.350	-0.260
2020/01/31 17:21:33.9	356.550	-0.040	-0.290	-0.310
2020/01/31 17:21:34.0	356.570	-0.100	-0.240	-0.370
2020/01/31 17:21:34.1	356.590	-0.160	-0.190	-0.420
2020/01/31 17:21:34.2	356.620	-0.230	-0.140	-0.470
2020/01/31 17:21:34.3	356.640	-0.290	-0.090	-0.530
2020/01/31 17:21:34.4	356.670	-0.350	-0.040	-0.580
2020/01/31 17:21:34.5	356.690	-0.410	0.000	-0.630
2020/01/31 17:21:34.6	356.720	-0.460	0.050	-0.690
2020/01/31 17:21:34.7	356.750	-0.520	0.080	-0.740
2020/01/31 17:21:34.8	356.800	-0.570	0.120	-0.790
2020/01/31 17:21:34.9	356.830	-0.620	0.150	-0.850
2020/01/31 17:21:35.0	356.850	-0.660	0.180	-0.900
2020/01/31 17:21:35.1	356.880	-0.700	0.200	-0.950
2020/01/31 17:21:35.2	356.910	-0.740	0.220	-1.000
2020/01/31 17:21:35.3	356.930	-0.780	0.240	-1.040
2020/01/31 17:21:35.4	356.960	-0.810	0.250	-1.090
2020/01/31 17:21:35.5	356.980	-0.840	0.260	-1.130
2020/01/31 17:21:35.6	357.000	-0.860	0.260	-1.170
2020/01/31 17:21:35.7	357.010	-0.880	0.270	-1.200
2020/01/31 17:21:35.8	357.020	-0.900	0.270	-1.220
2020/01/31 17:21:35.9	357.030	-0.910	0.270	-1.250
2020/01/31 17:21:36.0	357.030	-0.920	0.260	-1.260
2020/01/31 17:21:36.1	357.030	-0.930	0.260	-1.280
2020/01/31 17:21:36.2	357.020	-0.930	0.260	-1.290
2020/01/31 17:21:36.3	357.010	-0.920	0.250	-1.290
2020/01/31 17:21:36.4	357.000	-0.920	0.240	-1.290
2020/01/31 17:21:36.5	356.980	-0.910	0.240	-1.290
2020/01/31 17:21:36.6	356.960	-0.890	0.230	-1.280
2020/01/31 17:21:36.7	356.940	-0.880	0.220	-1.260
2020/01/31 17:21:36.8	356.910	-0.850	0.220	-1.240
2020/01/31 17:21:36.9	356.880	-0.830	0.220	-1.220
2020/01/31 17:21:37.0	356.850	-0.800	0.210	-1.190
2020/01/31 17:21:37.1	356.810	-0.770	0.210	-1.160
2020/01/31 17:21:37.2	356.770	-0.730	0.210	-1.120
2020/01/31 17:21:37.3	356.720	-0.690	0.210	-1.080
2020/01/31 17:21:37.4	356.680	-0.650	0.210	-1.040
2020/01/31 17:21:37.5	356.630	-0.610	0.210	-0.990
2020/01/31 17:21:37.6	356.580	-0.560	0.210	-0.940
2020/01/31 17:21:37.7	356.530	-0.510	0.210	-0.880
2020/01/31 17:21:37.8	356.460	-0.460	0.210	-0.820
2020/01/31 17:21:37.9	356.410	-0.410	0.220	-0.760
2020/01/31 17:21:38.0	356.350	-0.350	0.230	-0.690
2020/01/31 17:21:38.1	356.290	-0.290	0.230	-0.620
2020/01/31 17:21:38.2	356.230	-0.230	0.240	-0.550
2020/01/31 17:21:38.3	356.170	-0.170	0.250	-0.470
2020/01/31 17:21:38.4	356.110	-0.110	0.260	-0.400
2020/01/31 17:21:38.5	356.050	-0.050	0.270	-0.320
2020/01/31 17:21:38.6	355.980	0.010	0.270	-0.240
2020/01/31 17:21:38.7	355.920	0.070	0.280	-0.160
2020/01/31 17:21:38.8	355.850	0.130	0.290	-0.080
2020/01/31 17:21:38.9	355.790	0.190	0.290	-0.000
2020/01/31 17:21:39.0	355.730	0.250	0.290	0.080
2020/01/31 17:21:39.1	355.680	0.310	0.290	0.150
2020/01/31 17:21:39.2	355.620	0.360	0.280	0.230
2020/01/31 17:21:39.3	355.570	0.420	0.270	0.300
2020/01/31 17:21:39.4	355.520	0.470	0.260	0.370
2020/01/31 17:21:39.5	355.480	0.520	0.240	0.440
2020/01/31 17:21:39.6	355.430	0.570	0.220	0.500
2020/01/31 17:21:39.7	355.390	0.610	0.190	0.560
2020/01/31 17:21:39.8	355.370	0.650	0.160	0.630
2020/01/31 17:21:39.9	355.330	0.690	0.120	0.680
2020/01/31 17:21:40.0	355.300	0.730	0.080	0.720
2020/01/31 17:21:40.1	355.270	0.760	0.040	0.760
2020/01/31 17:21:40.2	355.250	0.780	-0.000	0.800
2020/01/31 17:21:40.3	355.230	0.800	-0.050	0.830
2020/01/31 17:21:40.4	355.210	0.820	-0.110	0.850
2020/01/31 17:21:40.5	355.200	0.830	-0.160	0.860
2020/01/31 17:21:40.6	355.190	0.840	-0.220	0.870
2020/01/31 17:21:40.7	355.180	0.840	-0.290	0.870
2020/01/31 17:21:40.8	355.180	0.840	-0.350	0.870
2020/01/31 17:21:40.9	355.190	0.840	-0.410	0.860
2020/01/31 17:21:41.0	355.190	0.830	-0.480	0.840
2020/01/31 17:21:41.1	355.210	0.820	-0.550	0.820
2020/01/31 17:21:41.2	355.220	0.800	-0.620	0.790
2020/01/31 17:21:41.3	355.240	0.780	-0.690	0.760
2020/01/31 17:21:41.4	355.270	0.760	-0.760	0.710
2020/01/31 17:21:41.5	355.300	0.730	-0.820	0.670
2020/01/31 17:21:41.6	355.330	0.700	-0.890	0.620
2020/01/31 17:21:41.7	355.370	0.670	-0.950	0.560
2020/01/31 17:21:41.8	355.410	0.630	-1.020	0.500
2020/01/31 17:21:41.9	355.460	0.590	-1.070	0.430
2020/01/31 17:21:42.0	355.500	0.550	-1.130	0.370
2020/01/31 17:21:42.1	355.560	0.510	-1.180	0.290
2020/01/31 17:21:42.2	355.610	0.470	-1.220	0.220
2020/01/31 17:21:42.3	355.670	0.420	-1.270	0.140
2020/01/31 17:21:42.4	355.730	0.370	-1.300	0.070
2020/01/31 17:21:42.5	355.790	0.330	-1.340	-0.010
2020/01/31 17:21:42.6	355.850	0.280	-1.360	-0.090
2020/01/31 17:21:42.7	355.910	0.230	-1.380	-0.170
2020/01/31 17:21:42.8	355.970	0.180	-1.390	-0.250
2020/01/31 17:21:42.9	356.030	0.130	-1.400	-0.330
2020/01/31 17:21:43.0	356.090	0.080	-1.400	-0.410
2020/01/31 17:21:43.1	356.150	0.030	-1.400	-0.480
2020/01/31 17:21:43.2	356.210	-0.020	-1.390	-0.550
2020/01/31 17:21:43.3	356.260	-0.060	-1.370	-0.620
2020/01/31 17:21:43.4	356.310	-0.110	-1.350	-0.690
2020/01/31 17:21:43.5	356.350	-0.150	-1.320	-0.750
2020/01/31 17:21:43.6	356.390	-0.190	-1.280	-0.800
2020/01/31 17:21:43.7	356.430	-0.230	-1.240	-0.860
2020/01/31 17:21:43.8	356.470	-0.270	-1.190	-0.900
2020/01/31 17:21:43.9	356.500	-0.310	-1.130	-0.940
2020/01/31 17:21:44.0	356.520	-0.340	-1.070	-0.980
2020/01/31 17:21:44.1	356.530	-0.380	-1.000	-1.010
2020/01/31 17:21:44.2	356.550	-0.410	-0.930	-1.040
2020/01/31 17:21:44.3	356.550	-0.430	-0.860	-1.060
2020/01/31 17:21:44.4	356.560	-0.460	-0.780	-1.070
2020/01/31 17:21:44.5	356.560	-0.480	-0.700	-1.080
2020/01/31 17:21:44.6	356.550	-0.500	-0.620	-1.080
2020/01/31 17:21:44.7	356.550	-0.520	-0.530	-1.080
2020/01/31 17:21:44.8	356.550	-0.530	-0.450	-1.070
2020/01/31 17:21:44.9	356.540	-0.540	-0.360	-1.060
2020/01/31 17:21:45.0	356.520	-0.550	-0.280	-1.050
2020/01/31 17:21:45.1	356.500	-0.560	-0.190	-1.040
2020/01/31 17:21:45.2	356.480	-0.560	-0.110	-1.020
2020/01/31 17:21:45.3	356.460	-0.560	-0.030	-1.000
2020/01/31 17:21:45.4	356.440	-0.560	0.050	-0.980
2020/01/31 17:21:45.5	356.410	-0.550	0.120	-0.960
2020/01/31 17:21:45.6	356.390	-0.540	0.190	-0.930
2020/01/31 17:21:45.7	356.370	-0.530	0.260	-0.910
2020/01/31 17:21:45.8	356.340	-0.520	0.320	-0.880
2020/01/31 17:21:45.9	356.310	-0.500	0.370	-0.850
2020/01/31 17:21:46.0	356.290	-0.490	0.420	-0.820
2020/01/31 17:21:46.1	356.270	-0.470	0.460	-0.790
2020/01/31 17:21:46.2	356.250	-0.440	0.490	-0.750
2020/01/31 17:21:46.3	356.240	-0.420	0.520	-0.720
2020/01/31 17:21:46.4	356.220	-0.390	0.540	-0.680
2020/01/31 17:21:46.5	356.200	-0.360	0.560	-0.650
2020/01/31 17:21:46.6	356.190	-0.330	0.570	-0.610
2020/01/31 17:21:46.7	356.170	-0.300	0.580	-0.570
2020/01/31 17:21:46.8	356.160	-0.260	0.580	-0.530
2020/01/31 17:21:46.9	356.150	-0.230	0.570	-0.490
2020/01/31 17:21:47.0	356.140	-0.190	0.560	-0.440
2020/01/31 17:21:47.1	356.120	-0.160	0.550	-0.400
2020/01/31 17:21:47.2	356.110	-0.130	0.530	-0.360
2020/01/31 17:21:47.3	356.100	-0.090	0.510	-0.320
2020/01/31 17:21:47.4	356.090	-0.060	0.490	-0.280
2020/01/31 17:21:47.5	356.070	-0.030	0.470	-0.250
2020/01/31 17:21:47.6	356.060	0.010	0.440	-0.210
2020/01/31 17:21:47.7	356.050	0.040	0.410	-0.170
2020/01/31 17:21:47.8	356.040	0.070	0.380	-0.130
2020/01/31 17:21:47.9	356.030	0.090	0.350	-0.100
2020/01/31 17:21:48.0	356.020	0.120	0.320	-0.070
2020/01/31 17:21:48.1	356.010	0.140	0.280	-0.030
2020/01/31 17:21:48.2	356.000	0.160	0.250	-0.000
2020/01/31 17:21:48.3	355.990	0.180	0.220	0.030
2020/01/31 17:21:48.4	355.980	0.200	0.190	0.050
2020/01/31 17:21:48.5	355.970	0.220	0.150	0.080
2020/01/31 17:21:48.6	355.970	0.230	0.120	0.110
2020/01/31 17:21:48.7	355.960	0.240	0.090	0.130
2020/01/31 17:21:48.8	355.960	0.250	0.060	0.150
2020/01/31 17:21:48.9	355.950	0.260	0.030	0.180
2020/01/31 17:21:49.0	355.950	0.270	0.010	0.200
2020/01/31 17:21:49.1	355.950	0.270	-0.020	0.210
2020/01/31 17:21:49.2	355.940	0.270	-0.050	0.230
2020/01/31 17:21:49.3	355.940	0.270	-0.070	0.240
2020/01/31 17:21:49.4	355.940	0.270	-0.100	0.250
2020/01/31 17:21:49.5	355.940	0.260	-0.120	0.260
2020/01/31 17:21:49.6	355.940	0.260	-0.140	0.270
2020/01/31 17:21:49.7	355.940	0.250	-0.170	0.270
2020/01/31 17:21:49.8	355.940	0.240	-0.190	0.280
2020/01/31 17:21:49.9	355.940	0.230	-0.210	0.280
2020/01/31 17:21:50.0	355.940	0.220	-0.230	0.280
2020/01/31 17:21:50.1	355.940	0.210	-0.250	0.270
2020/01/31 17:21:50.2	355.940	0.200	-0.270	0.260
2020/01/31 17:21:50.3	355.940	0.190	-0.290	0.260
2020/01/31 17:21:50.4	355.940	0.180	-0.310	0.250
2020/01/31 17:21:50.5	355.940	0.170	-0.330	0.240
2020/01/31 17:21:50.6	355.940	0.160	-0.340	0.220
2020/01/31 17:21:50.7	355.940	0.140	-0.360	0.210
2020/01/31 17:21:50.8	355.920	0.130	-0.370	0.200
2020/01/31 17:21:50.9	355.910	0.120	-0.390	0.180
2020/01/31 17:21:51.0	355.910	0.110	-0.400	0.160
2020/01/31 17:21:51.1	355.910	0.100	-0.420	0.140
2020/01/31 17:21:51.2	355.910	0.090	-0.430	0.130
2020/01/31 17:21:51.3	355.910	0.080	-0.440	0.100
2020/01/31 17:21:51.4	355.910	0.070	-0.460	0.080
2020/01/31 17:21:51.5	355.910	0.060	-0.470	0.060
2020/01/31 17:21:51.6	355.910	0.050	-0.480	0.040
2020/01/31 17:21:51.7	355.910	0.040	-0.490	0.010
2020/01/31 17:21:51.8	355.910	0.040	-0.500	-0.020
2020/01/31 17:21:51.9	355.910	0.030	-0.500	-0.040
2020/01/31 17:21:52.0	355.910	0.020	-0.510	-0.070
2020/01/31 17:21:52.1	355.910	0.010	-0.520	-0.100
2020/01/31 17:21:52.2	355.920	0.010	-0.520	-0.130
2020/01/31 17:21:52.3	355.920	0.000	-0.520	-0.160
2020/01/31 17:21:52.4	355.920	-0.010	-0.520	-0.190
2020/01/31 17:21:52.5	355.930	-0.010	-0.530	-0.220
2020/01/31 17:21:52.6	355.940	-0.020	-0.520	-0.250
2020/01/31 17:21:52.7	355.940	-0.020	-0.520	-0.290
2020/01/31 17:21:52.8	355.940	-0.030	-0.520	-0.320
2020/01/31 17:21:52.9	355.950	-0.040	-0.520	-0.350
2020/01/31 17:21:53.0	355.950	-0.040	-0.510	-0.390
2020/01/31 17:21:53.1	355.960	-0.050	-0.500	-0.420
2020/01/31 17:21:53.2	355.970	-0.050	-0.500	-0.450
2020/01/31 17:21:53.3	355.980	-0.060	-0.490	-0.480
2020/01/31 17:21:53.4	355.990	-0.060	-0.480	-0.510
2020/01/31 17:21:53.5	356.000	-0.060	-0.460	-0.540
2020/01/31 17:21:53.6	356.000	-0.070	-0.450	-0.560
2020/01/31 17:21:53.7	356.010	-0.070	-0.440	-0.590
2020/01/31 17:21:53.8	356.030	-0.070	-0.420	-0.610
2020/01/31 17:21:53.9	356.040	-0.080	-0.410	-0.630
2020/01/31 17:21:54.0	356.050	-0.080	-0.390	-0.650
2020/01/31 17:21:54.1	356.060	-0.080	-0.380	-0.670
2020/01/31 17:21:54.2	356.070	-0.080	-0.360	-0.680
2020/01/31 17:21:54.3	356.080	-0.080	-0.340	-0.690
2020/01/31 17:21:54.4	356.090	-0.080	-0.330	-0.710
2020/01/31 17:21:54.5	356.100	-0.080	-0.320	-0.720
2020/01/31 17:21:54.6	356.110	-0.080	-0.300	-0.720
2020/01/31 17:21:54.7	356.120	-0.070	-0.290	-0.730
2020/01/31 17:21:54.8	356.130	-0.070	-0.280	-0.730
2020/01/31 17:21:54.9	356.140	-0.070	-0.270	-0.730
2020/01/31 17:21:55.0	356.150	-0.060	-0.260	-0.730
2020/01/31 17:21:55.1	356.170	-0.060	-0.260	-0.740
2020/01/31 17:21:55.2	356.180	-0.050	-0.260	-0.740
2020/01/31 17:21:55.3	356.200	-0.050	-0.260	-0.730
2020/01/31 17:21:55.4	356.220	-0.040	-0.270	-0.730
2020/01/31 17:21:55.5	356.230	-0.030	-0.270	-0.730
2020/01/31 17:21:55.6	356.250	-0.030	-0.280	-0.730
2020/01/31 17:21:55.7	356.270	-0.020	-0.300	-0.730
2020/01/31 17:21:55.8	356.300	-0.010	-0.310	-0.720
2020/01/31 17:21:55.9	356.320	-0.000	-0.330	-0.720
2020/01/31 17:21:56.0	356.350	0.010	-0.350	-0.720
2020/01/31 17:21:56.1	356.370	0.020	-0.380	-0.720
2020/01/31 17:21:56.2	356.400	0.030	-0.400	-0.710
2020/01/31 17:21:56.3	356.420	0.040	-0.430	-0.710
2020/01/31 17:21:56.4	356.450	0.050	-0.460	-0.710
2020/01/31 17:21:56.5	356.470	0.060	-0.490	-0.700
2020/01/31 17:21:56.6	356.500	0.070	-0.510	-0.700
2020/01/31 17:21:56.7	356.520	0.080	-0.540	-0.690
2020/01/31 17:21:56.8	356.560	0.090	-0.560	-0.680
2020/01/31 17:21:56.9	356.590	0.100	-0.580	-0.670
2020/01/31 17:21:57.0	356.610	0.110	-0.600	-0.660
2020/01/31 17:21:57.1	356.630	0.120	-0.620	-0.650
2020/01/31 17:21:57.2	356.650	0.130	-0.630	-0.630
2020/01/31 17:21:57.3	356.670	0.130	-0.640	-0.620
2020/01/31 17:21:57.4	356.690	0.140	-0.640	-0.600
2020/01/31 17:21:57.5	356.710	0.140	-0.640	-0.580
2020/01/31 17:21:57.6	356.730	0.150	-0.630	-0.560
2020/01/31 17:21:57.7	356.740	0.150	-0.620	-0.540
2020/01/31 17:21:57.8	356.760	0.160	-0.600	-0.510
2020/01/31 17:21:57.9	356.770	0.160	-0.570	-0.480
2020/01/31 17:21:58.0	356.770	0.160	-0.540	-0.460
2020/01/31 17:21:58.1	356.770	0.160	-0.510	-0.420
2020/01/31 17:21:58.2	356.780	0.160	-0.460	-0.390
2020/01/31 17:21:58.3	356.770	0.150	-0.420	-0.360
2020/01/31 17:21:58.4	356.760	0.150	-0.370	-0.320
2020/01/31 17:21:58.5	356.750	0.140	-0.310	-0.280
2020/01/31 17:21:58.6	356.740	0.130	-0.250	-0.240
2020/01/31 17:21:58.7	356.720	0.120	-0.190	-0.200
2020/01/31 17:21:58.8	356.720	0.110	-0.120	-0.150
2020/01/31 17:21:58.9	356.690	0.100	-0.060	-0.110
2020/01/31 17:21:59.0	356.660	0.090	0.010	-0.070
2020/01/31 17:21:59.1	356.630	0.070	0.080	-0.020
2020/01/31 17:21:59.2	356.600	0.050	0.150	0.020
2020/01/31 17:21:59.3	356.560	0.030	0.220	0.050
2020/01/31 17:21:59.4	356.520	0.010	0.280	0.090
2020/01/31 17:21:59.5	356.480	-0.010	0.350	0.120
2020/01/31 17:21:59.6	356.440	-0.040	0.410	0.150
2020/01/31 17:21:59.7	356.400	-0.060	0.460	0.180
2020/01/31 17:21:59.8	356.350	-0.090	0.510	0.210
2020/01/31 17:21:59.9	356.310	-0.120	0.560	0.230
2020/01/31 17:22:00.0	356.260	-0.150	0.600	0.240
2020/01/31 17:22:00.1	356.220	-0.170	0.630	0.260
2020/01/31 17:22:00.2	356.180	-0.200	0.650	0.260
2020/01/31 17:22:00.3	356.140	-0.230	0.670	0.270
2020/01/31 17:22:00.4	356.100	-0.250	0.680	0.270
2020/01/31 17:22:00.5	356.070	-0.280	0.680	0.260
2020/01/31 17:22:00.6	356.040	-0.300	0.670	0.260
2020/01/31 17:22:00.7	356.010	-0.320	0.650	0.250
2020/01/31 17:22:00.8	355.970	-0.340	0.630	0.230
2020/01/31 17:22:00.9	355.940	-0.350	0.600	0.210
2020/01/31 17:22:01.0	355.920	-0.360	0.560	0.190
2020/01/31 17:22:01.1	355.900	-0.370	0.510	0.170
2020/01/31 17:22:01.2	355.890	-0.370	0.460	0.140
2020/01/31 17:22:01.3	355.870	-0.370	0.400	0.110
2020/01/31 17:22:01.4	355.860	-0.370	0.330	0.080
2020/01/31 17:22:01.5	355.860	-0.360	0.260	0.050
2020/01/31 17:22:01.6	355.850	-0.350	0.190	0.020
2020/01/31 17:22:01.7	355.850	-0.340	0.110	-0.010
2020/01/31 17:22:01.8	355.840	-0.320	0.030	-0.050
2020/01/31 17:22:01.9	355.840	-0.290	-0.050	-0.080
2020/01/31 17:22:02.0	355.840	-0.260	-0.140	-0.120
2020/01/31 17:22:02.1	355.840	-0.230	-0.220	-0.150
2020/01/31 17:22:02.2	355.850	-0.200	-0.300	-0.170
2020/01/31 17:22:02.3	355.850	-0.160	-0.380	-0.200
2020/01/31 17:22:02.4	355.860	-0.110	-0.450	-0.230
2020/01/31 17:22:02.5	355.870	-0.070	-0.530	-0.250
2020/01/31 17:22:02.6	355.880	-0.020	-0.600	-0.280
2020/01/31 17:22:02.7	355.890	0.030	-0.670	-0.300
2020/01/31 17:22:02.8	355.910	0.080	-0.730	-0.310
2020/01/31 17:22:02.9	355.920	0.130	-0.790	-0.330
2020/01/31 17:22:03.0	355.940	0.180	-0.840	-0.340
2020/01/31 17:22:03.1	355.950	0.230	-0.890	-0.350
2020/01/31 17:22:03.2	355.970	0.280	-0.940	-0.370
2020/01/31 17:22:03.3	355.990	0.330	-0.980	-0.380
2020/01/31 17:22:03.4	356.010	0.380	-1.010	-0.390
2020/01/31 17:22:03.5	356.030	0.430	-1.040	-0.400
2020/01/31 17:22:03.6	356.050	0.470	-1.070	-0.400
2020/01/31 17:22:03.7	356.070	0.510	-1.080	-0.410
2020/01/31 17:22:03.8	356.100	0.550	-1.100	-0.410
2020/01/31 17:22:03.9	356.130	0.580	-1.110	-0.420
2020/01/31 17:22:04.0	356.150	0.610	-1.110	-0.430
2020/01/31 17:22:04.1	356.180	0.630	-1.110	-0.430
2020/01/31 17:22:04.2	356.210	0.650	-1.100	-0.440
2020/01/31 17:22:04.3	356.240	0.660	-1.090	-0.440
2020/01/31 17:22:04.4	356.270	0.670	-1.070	-0.440
2020/01/31 17:22:04.5	356.300	0.670	-1.040	-0.450
2020/01/31 17:22:04.6	356.330	0.670	-1.010	-0.450
2020/01/31 17:22:04.7	356.360	0.660	-0.980	-0.450
2020/01/31 17:22:04.8	356.390	0.640	-0.940	-0.440
2020/01/31 17:22:04.9	356.420	0.620	-0.900	-0.440
2020/01/31 17:22:05.0	356.450	0.590	-0.850	-0.440
2020/01/31 17:22:05.1	356.470	0.560	-0.800	-0.430
2020/01/31 17:22:05.2	356.490	0.530	-0.740	-0.430
2020/01/31 17:22:05.3	356.510	0.480	-0.680	-0.430
2020/01/31 17:22:05.4	356.530	0.440	-0.620	-0.420
2020/01/31 17:22:05.5	356.550	0.390	-0.560	-0.420
2020/01/31 17:22:05.6	356.570	0.330	-0.500	-0.410
2020/01/31 17:22:05.7	356.590	0.270	-0.430	-0.410
2020/01/31 17:22:05.8	356.590	0.210	-0.370	-0.400
2020/01/31 17:22:05.9	356.610	0.150	-0.300	-0.400
2020/01/31 17:22:06.0	356.620	0.090	-0.240	-0.400
2020/01/31 17:22:06.1	356.640	0.020	-0.180	-0.400
2020/01/31 17:22:06.2	356.650	-0.040	-0.120	-0.400
2020/01/31 17:22:06.3	356.660	-0.110	-0.070	-0.400
2020/01/31 17:22:06.4	356.680	-0.170	-0.020	-0.400
2020/01/31 17:22:06.5	356.690	-0.240	0.030	-0.410
2020/01/31 17:22:06.6	356.700	-0.300	0.070	-0.420
2020/01/31 17:22:06.7	356.710	-0.360	0.110	-0.430
2020/01/31 17:22:06.8	356.740	-0.420	0.140	-0.430
2020/01/31 17:22:06.9	356.750	-0.480	0.170	-0.440
2020/01/31 17:22:07.0	356.750	-0.530	0.200	-0.450
2020/01/31 17:22:07.1	356.760	-0.580	0.220	-0.460
2020/01/31 17:22:07.2	356.770	-0.620	0.240	-0.470
2020/01/31 17:22:07.3	356.770	-0.660	0.260	-0.470
2020/01/31 17:22:07.4	356.770	-0.700	0.270	-0.480
2020/01/31 17:22:07.5	356.770	-0.730	0.280	-0.480
2020/01/31 17:22:07.6	356.770	-0.750	0.290	-0.480
2020/01/31 17:22:07.7	356.760	-0.780	0.290	-0.480
2020/01/31 17:22:07.8	356.750	-0.790	0.300	-0.480
2020/01/31 17:22:07.9	356.750	-0.800	0.300	-0.470
2020/01/31 17:22:08.0	356.740	-0.810	0.300	-0.470
2020/01/31 17:22:08.1	356.730	-0.810	0.290	-0.460
2020/01/31 17:22:08.2	356.710	-0.800	0.290	-0.450
2020/01/31 17:22:08.3	356.700	-0.790	0.280	-0.440
2020/01/31 17:22:08.4	356.680	-0.780	0.260	-0.420
2020/01/31 17:22:08.5	356.670	-0.760	0.250	-0.410
2020/01/31 17:22:08.6	356.650	-0.730	0.240	-0.390
2020/01/31 17:22:08.7	356.630	-0.700	0.220	-0.380
2020/01/31 17:22:08.8	356.610	-0.660	0.200	-0.350
2020/01/31 17:22:08.9	356.590	-0.630	0.180	-0.330
2020/01/31 17:22:09.0	356.560	-0.580	0.150	-0.310
2020/01/31 17:22:09.1	356.540	-0.540	0.130	-0.280
2020/01/31 17:22:09.2	356.520	-0.490	0.110	-0.250
2020/01/31 17:22:09.3	356.490	-0.430	0.080	-0.230
2020/01/31 17:22:09.4	356.460	-0.380	0.050	-0.200
2020/01/31 17:22:09.5	356.440	-0.320	0.020	-0.160
2020/01/31 17:22:09.6	356.410	-0.260	-0.000	-0.130
2020/01/31 17:22:09.7	356.380	-0.200	-0.030	-0.100
2020/01/31 17:22:09.8	356.360	-0.140	-0.060	-0.060
2020/01/31 17:22:09.9	356.330	-0.080	-0.090	-0.030
2020/01/31 17:22:10.0	356.300	-0.020	-0.120	0.000
2020/01/31 17:22:10.1	356.280	0.040	-0.150	0.030
2020/01/31 17:22:10.2	356.250	0.100	-0.180	0.060
2020/01/31 17:22:10.3	356.230	0.160	-0.210	0.090
2020/01/31 17:22:10.4	356.210	0.220	-0.240	0.120
2020/01/31 17:22:10.5	356.190	0.280	-0.270	0.140
2020/01/31 17:22:10.6	356.170	0.330	-0.290	0.160
2020/01/31 17:22:10.7	356.160	0.380	-0.320	0.180
2020/01/31 17:22:10.8	356.140	0.430	-0.340	0.200
2020/01/31 17:22:10.9	356.130	0.480	-0.370	0.210
2020/01/31 17:22:11.0	356.120	0.520	-0.390	0.220
2020/01/31 17:22:11.1	356.120	0.550	-0.410	0.230
2020/01/31 17:22:11.2	356.110	0.590	-0.430	0.230
2020/01/31 17:22:11.3	356.110	0.620	-0.440	0.230
2020/01/31 17:22:11.4	356.110	0.640	-0.460	0.230
2020/01/31 17:22:11.5	356.110	0.660	-0.470	0.230
2020/01/31 17:22:11.6	356.110	0.670	-0.470	0.230
2020/01/31 17:22:11.7	356.100	0.680	-0.480	0.230
2020/01/31 17:22:11.8	356.090	0.680	-0.480	0.230
2020/01/31 17:22:11.9	356.090	0.680	-0.480	0.220
2020/01/31 17:22:12.0	356.080	0.670	-0.470	0.220
2020/01/31 17:22:12.1	356.080	0.660	-0.460	0.210
2020/01/31 17:22:12.2	356.070	0.640	-0.450	0.210
2020/01/31 17:22:12.3	356.060	0.620	-0.430	0.200
2020/01/31 17:22:12.4	356.050	0.590	-0.410	0.190
2020/01/31 17:22:12.5	356.040	0.550	-0.380	0.190
2020/01/31 17:22:12.6	356.030	0.520	-0.360	0.180
2020/01/31 17:22:12.7	356.020	0.470	-0.330	0.180
2020/01/31 17:22:12.8	356.010	0.430	-0.300	0.170
2020/01/31 17:22:12.9	356.000	0.380	-0.270	0.160
2020/01/31 17:22:13.0	355.990	0.320	-0.240	0.160
2020/01/31 17:22:13.1	355.980	0.270	-0.200	0.140
2020/01/31 17:22:13.2	355.980	0.210	-0.170	0.130
2020/01/31 17:22:13.3	355.970	0.160	-0.150	0.120
2020/01/31 17:22:13.4	355.970	0.100	-0.120	0.100
2020/01/31 17:22:13.5	355.970	0.040	-0.100	0.080
2020/01/31 17:22:13.6	355.970	-0.020	-0.080	0.050
2020/01/31 17:22:13.7	355.980	-0.070	-0.060	0.030
2020/01/31 17:22:13.8	356.000	-0.130	-0.050	-0.000
2020/01/31 17:22:13.9	356.010	-0.180	-0.040	-0.030
2020/01/31 17:22:14.0	356.020	-0.230	-0.040	-0.070
2020/01/31 17:22:14.1	356.030	-0.280	-0.040	-0.100
2020/01/31 17:22:14.2	356.040	-0.320	-0.050	-0.140
2020/01/31 17:22:14.3	356.060	-0.360	-0.060	-0.180
2020/01/31 17:22:14.4	356.080	-0.390	-0.080	-0.220
2020/01/31 17:22:14.5	356.100	-0.420	-0.110	-0.270
2020/01/31 17:22:14.6	356.120	-0.450	-0.140	-0.310
2020/01/31 17:22:14.7	356.140	-0.470	-0.180	-0.360
2020/01/31 17:22:14.8	356.180	-0.480	-0.220	-0.400
2020/01/31 17:22:14.9	356.200	-0.490	-0.270	-0.450
2020/01/31 17:22:15.0	356.230	-0.500	-0.320	-0.500
2020/01/31 17:22:15.1	356.250	-0.490	-0.370	-0.550
2020/01/31 17:22:15.2	356.280	-0.480	-0.430	-0.600
2020/01/31 17:22:15.3	356.310	-0.470	-0.490	-0.650
2020/01/31 17:22:15.4	356.350	-0.450	-0.550	-0.700
2020/01/31 17:22:15.5	356.380	-0.420	-0.610	-0.760
2020/01/31 17:22:15.6	356.410	-0.400	-0.670	-0.800
2020/01/31 17:22:15.7	356.440	-0.360	-0.730	-0.850
2020/01/31 17:22:15.8	356.480	-0.320	-0.790	-0.900
2020/01/31 17:22:15.9	356.520	-0.280	-0.850	-0.950
2020/01/31 17:22:16.0	356.550	-0.230	-0.900	-0.990
2020/01/31 17:22:16.1	356.580	-0.190	-0.950	-1.020
2020/01/31 17:22:16.2	356.620	-0.140	-0.990	-1.050
2020/01/31 17:22:16.3	356.650	-0.080	-1.030	-1.080
2020/01/31 17:22:16.4	356.680	-0.030	-1.070	-1.110
2020/01/31 17:22:16.5	356.710	0.020	-1.090	-1.120
2020/01/31 17:22:16.6	356.730	0.070	-1.110	-1.140
2020/01/31 17:22:16.7	356.760	0.130	-1.120	-1.140
2020/01/31 17:22:16.8	356.790	0.180	-1.120	-1.140
2020/01/31 17:22:16.9	356.810	0.230	-1.110	-1.130
2020/01/31 17:22:17.0	356.820	0.270	-1.100	-1.120
2020/01/31 17:22:17.1	356.840	0.310	-1.080	-1.110
2020/01/31 17:22:17.2	356.850	0.350	-1.040	-1.090
2020/01/31 17:22:17.3	356.860	0.390	-1.000	-1.060
2020/01/31 17:22:17.4	356.870	0.420	-0.950	-1.030
2020/01/31 17:22:17.5	356.870	0.440	-0.900	-1.000
2020/01/31 17:22:17.6	356.880	0.460	-0.840	-0.960
2020/01/31 17:22:17.7	356.880	0.470	-0.770	-0.920
2020/01/31 17:22:17.8	356.880	0.480	-0.690	-0.880
2020/01/31 17:22:17.9	356.870	0.490	-0.610	-0.830
2020/01/31 17:22:18.0	356.870	0.480	-0.530	-0.790
2020/01/31 17:22:18.1	356.860	0.470	-0.450	-0.750
2020/01/31 17:22:18.2	356.850	0.460	-0.360	-0.700
2020/01/31 17:22:18.3	356.850	0.440	-0.270	-0.650
2020/01/31 17:22:18.4	356.840	0.420	-0.180	-0.610
2020/01/31 17:22:18.5	356.830	0.390	-0.090	-0.570
2020/01/31 17:22:18.6	356.820	0.350	-0.000	-0.520
2020/01/31 17:22:18.7	356.810	0.310	0.080	-0.480
2020/01/31 17:22:18.8	356.800	0.270	0.160	-0.440
2020/01/31 17:22:18.9	356.790	0.230	0.240	-0.400
2020/01/31 17:22:19.0	356.770	0.180	0.320	-0.360
2020/01/31 17:22:19.1	356.760	0.130	0.390	-0.330
2020/01/31 17:22:19.2	356.750	0.080	0.460	-0.300
2020/01/31 17:22:19.3	356.740	0.030	0.520	-0.260
2020/01/31 17:22:19.4	356.730	-0.020	0.580	-0.240
2020/01/31 17:22:19.5	356.720	-0.070	0.630	-0.210
2020/01/31 17:22:19.6	356.710	-0.120	0.670	-0.180
2020/01/31 17:22:19.7	356.700	-0.170	0.710	-0.160
2020/01/31 17:22:19.8	356.690	-0.220	0.740	-0.130
2020/01/31 17:22:19.9	356.680	-0.260	0.770	-0.110
2020/01/31 17:22:20.0	356.670	-0.300	0.790	-0.090
2020/01/31 17:22:20.1	356.660	-0.340	0.800	-0.070
2020/01/31 17:22:20.2	356.650	-0.370	0.810	-0.060
2020/01/31 17:22:20.3	356.640	-0.400	0.810	-0.040
2020/01/31 17:22:20.4	356.630	-0.420	0.810	-0.020
2020/01/31 17:22:20.5	356.620	-0.440	0.790	-0.010
2020/01/31 17:22:20.6	356.610	-0.460	0.780	0.000
2020/01/31 17:22:20.7	356.600	-0.470	0.750	0.010
2020/01/31 17:22:20.8	356.610	-0.470	0.730	0.030
2020/01/31 17:22:20.9	356.600	-0.470	0.690	0.040
2020/01/31 17:22:21.0	356.590	-0.470	0.650	0.050
2020/01/31 17:22:21.1	356.580	-0.460	0.610	0.050
2020/01/31 17:22:21.2	356.570	-0.450	0.560	0.060
2020/01/31 17:22:21.3	356.550	-0.430	0.510	0.070
2020/01/31 17:22:21.4	356.540	-0.410	0.450	0.070
2020/01/31 17:22:21.5	356.520	-0.390	0.390	0.080
2020/01/31 17:22:21.6	356.510	-0.360	0.330	0.080
2020/01/31 17:22:21.7	356.490	-0.330	0.260	0.090
2020/01/31 17:22:21.8	356.470	-0.300	0.200	0.090
2020/01/31 17:22:21.9	356.460	-0.260	0.130	0.090
2020/01/31 17:22:22.0	356.440	-0.230	0.050	0.090
2020/01/31 17:22:22.1	356.420	-0.190	-0.020	0.090
2020/01/31 17:22:22.2	356.410	-0.150	-0.090	0.080
2020/01/31 17:22:22.3	356.390	-0.120	-0.160	0.080
2020/01/31 17:22:22.4	356.380	-0.080	-0.230	0.070
2020/01/31 17:22:22.5	356.370	-0.050	-0.310	0.060
2020/01/31 17:22:22.6	356.360	-0.010	-0.370	0.040
2020/01/31 17:22:22.7	356.350	0.020	-0.440	0.030
2020/01/31 17:22:22.8	356.340	0.050	-0.510	0.010
2020/01/31 17:22:22.9	356.340	0.080	-0.570	-0.010
2020/01/31 17:22:23.0	356.340	0.110	-0.630	-0.030
2020/01/31 17:22:23.1	356.340	0.140	-0.690	-0.050
2020/01/31 17:22:23.2	356.350	0.160	-0.740	-0.070
2020/01/31 17:22:23.3	356.350	0.180	-0.790	-0.090
2020/01/31 17:22:23.4	356.360	0.190	-0.830	-0.120
2020/01/31 17:22:23.5	356.380	0.200	-0.870	-0.140
2020/01/31 17:22:23.6	356.390	0.210	-0.900	-0.170
2020/01/31 17:22:23.7	356.400	0.210	-0.930	-0.190
2020/01/31 17:22:23.8	356.420	0.210	-0.950	-0.210
2020/01/31 17:22:23.9	356.440	0.210	-0.970	-0.240
2020/01/31 17:22:24.0	356.460	0.210	-0.980	-0.270
2020/01/31 17:22:24.1	356.480	0.200	-0.990	-0.300
2020/01/31 17:22:24.2	356.500	0.180	-0.990	-0.330
2020/01/31 17:22:24.3	356.530	0.170	-0.990	-0.370
2020/01/31 17:22:24.4	356.550	0.150	-0.980	-0.400
2020/01/31 17:22:24.5	356.580	0.130	-0.970	-0.430
2020/01/31 17:22:24.6	356.600	0.100	-0.950	-0.470
2020/01/31 17:22:24.7	356.630	0.080	-0.930	-0.500
2020/01/31 17:22:24.8	356.660	0.050	-0.900	-0.530
2020/01/31 17:22:24.9	356.690	0.020	-0.870	-0.560
2020/01/31 17:22:25.0	356.710	-0.010	-0.840	-0.590
2020/01/31 17:22:25.1	356.730	-0.030	-0.800	-0.620
2020/01/31 17:22:25.2	356.750	-0.060	-0.760	-0.650
2020/01/31 17:22:25.3	356.770	-0.090	-0.720	-0.670
2020/01/31 17:22:25.4	356.790	-0.120	-0.670	-0.690
2020/01/31 17:22:25.5	356.800	-0.150	-0.620	-0.710
2020/01/31 17:22:25.6	356.810	-0.180	-0.580	-0.720
2020/01/31 17:22:25.7	356.820	-0.200	-0.530	-0.730
2020/01/31 17:22:25.8	356.830	-0.220	-0.480	-0.730
2020/01/31 17:22:25.9	356.830	-0.250	-0.430	-0.730
2020/01/31 17:22:26.0	356.830	-0.260	-0.380	-0.730
2020/01/31 17:22:26.1	356.830	-0.280	-0.330	-0.730
2020/01/31 17:22:26.2	356.830	-0.300	-0.290	-0.720
2020/01/31 17:22:26.3	356.820	-0.310	-0.240	-0.710
2020/01/31 17:22:26.4	356.820	-0.310	-0.200	-0.700
2020/01/31 17:22:26.5	356.810	-0.320	-0.160	-0.690
2020/01/31 17:22:26.6	356.800	-0.320	-0.130	-0.680
2020/01/31 17:22:26.7	356.790	-0.320	-0.100	-0.660
2020/01/31 17:22:26.8	356.790	-0.310	-0.080	-0.650
2020/01/31 17:22:26.9	356.780	-0.300	-0.060	-0.630
2020/01/31 17:22:27.0	356.780	-0.290	-0.040	-0.620
2020/01/31 17:22:27.1	356.770	-0.270	-0.040	-0.600
2020/01/31 17:22:27.2	356.770	-0.250	-0.030	-0.590
2020/01/31 17:22:27.3	356.770	-0.230	-0.040	-0.570
2020/01/31 17:22:27.4	356.770	-0.200	-0.050	-0.560
2020/01/31 17:22:27.5	356.770	-0.170	-0.060	-0.550
2020/01/31 17:22:27.6	356.780	-0.130	-0.080	-0.530
2020/01/31 17:22:27.7	356.790	-0.100	-0.110	-0.520
2020/01/31 17:22:27.8	356.800	-0.060	-0.140	-0.510
2020/01/31 17:22:27.9	356.810	-0.010	-0.170	-0.490
2020/01/31 17:22:28.0	356.830	0.030	-0.210	-0.480
2020/01/31 17:22:28.1	356.850	0.080	-0.260	-0.470
2020/01/31 17:22:28.2	356.870	0.130	-0.300	-0.460
2020/01/31 17:22:28.3	356.890	0.190	-0.350	-0.440
2020/01/31 17:22:28.4	356.910	0.240	-0.400	-0.430
2020/01/31 17:22:28.5	356.940	0.290	-0.450	-0.410
2020/01/31 17:22:28.6	356.970	0.340	-0.500	-0.390
2020/01/31 17:22:28.7	356.990	0.400	-0.550	-0.370
2020/01/31 17:22:28.8	357.020	0.450	-0.590	-0.360
2020/01/31 17:22:28.9	357.050	0.500	-0.640	-0.340
2020/01/31 17:22:29.0	357.080	0.550	-0.680	-0.320
2020/01/31 17:22:29.1	357.110	0.590	-0.710	-0.300
2020/01/31 17:22:29.2	357.130	0.630	-0.740	-0.280
2020/01/31 17:22:29.3	357.160	0.670	-0.770	-0.260
2020/01/31 17:22:29.4	357.180	0.710	-0.790	-0.250
2020/01/31 17:22:29.5	357.210	0.740	-0.800	-0.230
2020/01/31 17:22:29.6	357.230	0.760	-0.800	-0.210
2020/01/31 17:22:29.7	357.250	0.780	-0.800	-0.200
2020/01/31 17:22:29.8	357.270	0.800	-0.790	-0.170
2020/01/31 17:22:29.9	357.280	0.810	-0.770	-0.160
2020/01/31 17:22:30.0	357.290	0.810	-0.750	-0.140
2020/01/31 17:22:30.1	357.300	0.810	-0.720	-0.130
2020/01/31 17:22:30.2	357.310	0.800	-0.680	-0.120
2020/01/31 17:22:30.3	357.320	0.780	-0.630	-0.100
2020/01/31 17:22:30.4	357.320	0.760	-0.580	-0.090
2020/01/31 17:22:30.5	357.320	0.730	-0.520	-0.080
2020/01/31 17:22:30.6	357.310	0.700	-0.450	-0.070
2020/01/31 17:22:30.7	357.310	0.660	-0.380	-0.050
2020/01/31 17:22:30.8	357.300	0.610	-0.310	-0.040
2020/01/31 17:22:30.9	357.290	0.560	-0.240	-0.030
2020/01/31 17:22:31.0	357.280	0.500	-0.160	-0.030
2020/01/31 17:22:31.1	357.260	0.440	-0.070	-0.020
2020/01/31 17:22:31.2	357.250	0.380	0.010	-0.020
2020/01/31 17:22:31.3	357.230	0.300	0.090	-0.010
2020/01/31 17:22:31.4	357.210	0.230	0.180	-0.010
2020/01/31 17:22:31.5	357.190	0.150	0.260	-0.020
2020/01/31 17:22:31.6	357.170	0.080	0.330	-0.020
2020/01/31 17:22:31.7	357.140	-0.000	0.410	-0.030
2020/01/31 17:22:31.8	357.120	-0.080	0.480	-0.030
2020/01/31 17:22:31.9	357.100	-0.170	0.550	-0.050
2020/01/31 17:22:32.0	357.070	-0.250	0.610	-0.060
2020/01/31 17:22:32.1	357.050	-0.330	0.670	-0.080
2020/01/31 17:22:32.2	357.020	-0.400	0.720	-0.090
2020/01/31 17:22:32.3	357.000	-0.480	0.760	-0.120
2020/01/31 17:22:32.4	356.970	-0.550	0.800	-0.140
2020/01/31 17:22:32.5	356.950	-0.620	0.830	-0.170
2020/01/31 17:22:32.6	356.920	-0.690	0.860	-0.190
2020/01/31 17:22:32.7	356.900	-0.750	0.880	-0.220
2020/01/31 17:22:32.8	356.870	-0.800	0.880	-0.250
2020/01/31 17:22:32.9	356.850	-0.850	0.890	-0.280
2020/01/31 17:22:33.0	356.830	-0.890	0.890	-0.320
2020/01/31 17:22:33.1	356.800	-0.930	0.880	-0.350
2020/01/31 17:22:33.2	356.780	-0.960	0.860	-0.380
2020/01/31 17:22:33.3	356.750	-0.980	0.840	-0.410
2020/01/31 17:22:33.4	356.730	-1.000	0.810	-0.430
2020/01/31 17:22:33.5	356.700	-1.000	0.780	-0.460
2020/01/31 17:22:33.6	356.670	-1.000	0.750	-0.480
2020/01/31 17:22:33.7	356.650	-1.000	0.710	-0.500
2020/01/31 17:22:33.8	356.620	-0.980	0.670	-0.510
2020/01/31 17:22:33.9	356.600	-0.960	0.620	-0.520
2020/01/31 17:22:34.0	356.570	-0.930	0.570	-0.530
2020/01/31 17:22:34.1	356.540	-0.890	0.510	-0.540
2020/01/31 17:22:34.2	356.520	-0.850	0.450	-0.540
2020/01/31 17:22:34.3	356.490	-0.810	0.390	-0.540
2020/01/31 17:22:34.4	356.470	-0.750	0.330	-0.530
2020/01/31 17:22:34.5	356.440	-0.700	0.260	-0.520
2020/01/31 17:22:34.6	356.420	-0.630	0.190	-0.510
2020/01/31 17:22:34.7	356.400	-0.570	0.120	-0.500
2020/01/31 17:22:34.8	356.370	-0.500	0.050	-0.480
2020/01/31 17:22:34.9	356.350	-0.430	-0.020	-0.470
2020/01/31 17:22:35.0	356.340	-0.360	-0.100	-0.450
2020/01/31 17:22:35.1	356.330	-0.280	-0.170	-0.430
2020/01/31 17:22:35.2	356.310	-0.210	-0.250	-0.410
2020/01/31 17:22:35.3	356.310	-0.140	-0.330	-0.390
2020/01/31 17:22:35.4	356.300	-0.060	-0.410	-0.370
2020/01/31 17:22:35.5	356.290	0.010	-0.480	-0.350
2020/01/31 17:22:35.6	356.290	0.080	-0.560	-0.340
2020/01/31 17:22:35.7	356.280	0.150	-0.640	-0.320
2020/01/31 17:22:35.8	356.270	0.210	-0.710	-0.300
2020/01/31 17:22:35.9	356.270	0.270	-0.780	-0.290
2020/01/31 17:22:36.0	356.270	0.330	-0.860	-0.280
2020/01/31 17:22:36.1	356.280	0.390	-0.920	-0.270
2020/01/31 17:22:36.2	356.290	0.440	-0.990	-0.260
2020/01/31 17:22:36.3	356.300	0.480	-1.050	-0.260
2020/01/31 17:22:36.4	356.320	0.520	-1.110	-0.260
2020/01/31 17:22:36.5	356.330	0.560	-1.170	-0.260
2020/01/31 17:22:36.6	356.350	0.590	-1.220	-0.260
2020/01/31 17:22:36.7	356.380	0.620	-1.270	-0.270
2020/01/31 17:22:36.8	356.400	0.640	-1.310	-0.270
2020/01/31 17:22:36.9	356.430	0.660	-1.350	-0.280
2020/01/31 17:22:37.0	356.470	0.680	-1.380	-0.280
2020/01/31 17:22:37.1	356.500	0.690	-1.400	-0.290
2020/01/31 17:22:37.2	356.540	0.690	-1.420	-0.310
2020/01/31 17:22:37.3	356.580	0.690	-1.440	-0.320
2020/01/31 17:22:37.4	356.630	0.690	-1.450	-0.330
2020/01/31 17:22:37.5	356.670	0.690	-1.450	-0.340
2020/01/31 17:22:37.6	356.720	0.680	-1.440	-0.360
2020/01/31 17:22:37.7	356.770	0.660	-1.430	-0.370
2020/01/31 17:22:37.8	356.820	0.650	-1.410	-0.380
2020/01/31 17:22:37.9	356.860	0.630	-1.390	-0.390
2020/01/31 17:22:38.0	356.910	0.610	-1.350	-0.400
2020/01/31 17:22:38.1	356.950	0.580	-1.310	-0.420
2020/01/31 17:22:38.2	356.990	0.550	-1.270	-0.430
2020/01/31 17:22:38.3	357.030	0.520	-1.220	-0.440
2020/01/31 17:22:38.4	357.070	0.490	-1.160	-0.450
2020/01/31 17:22:38.5	357.100	0.450	-1.090	-0.460
2020/01/31 17:22:38.6	357.130	0.410	-1.030	-0.460
2020/01/31 17:22:38.7	357.150	0.370	-0.950	-0.470
2020/01/31 17:22:38.8	357.190	0.330	-0.880	-0.470
2020/01/31 17:22:38.9	357.200	0.280	-0.800	-0.480
2020/01/31 17:22:39.0	357.220	0.240	-0.720	-0.490
2020/01/31 17:22:39.1	357.230	0.190	-0.630	-0.490
2020/01/31 17:22:39.2	357.230	0.140	-0.550	-0.500
2020/01/31 17:22:39.3	357.230	0.090	-0.460	-0.500
2020/01/31 17:22:39.4	357.230	0.040	-0.380	-0.510
2020/01/31 17:22:39.5	357.220	-0.010	-0.300	-0.510
2020/01/31 17:22:39.6	357.220	-0.070	-0.220	-0.520
2020/01/31 17:22:39.7	357.210	-0.120	-0.140	-0.520
2020/01/31 17:22:39.8	357.200	-0.170	-0.070	-0.530
2020/01/31 17:22:39.9	357.180	-0.220	0.000	-0.530
2020/01/31 17:22:40.0	357.160	-0.260	0.070	-0.540
2020/01/31 17:22:40.1	357.150	-0.310	0.130	-0.540
2020/01/31 17:22:40.2	357.130	-0.350	0.180	-0.550
2020/01/31 17:22:40.3	357.110	-0.400	0.230	-0.560
2020/01/31 17:22:40.4	357.100	-0.430	0.270	-0.570
2020/01/31 17:22:40.5	357.080	-0.470	0.300	-0.580
2020/01/31 17:22:40.6	357.060	-0.500	0.330	-0.590
2020/01/31 17:22:40.7	357.050	-0.530	0.350	-0.600
2020/01/31 17:22:40.8	357.040	-0.550	0.360	-0.610
2020/01/31 17:22:40.9	357.030	-0.570	0.370	-0.620
2020/01/31 17:22:41.0	357.020	-0.580	0.370	-0.640
2020/01/31 17:22:41.1	357.020	-0.590	0.360	-0.650
2020/01/31 17:22:41.2	357.010	-0.600	0.350	-0.670
2020/01/31 17:22:41.3	357.010	-0.600	0.330	-0.690
2020/01/31 17:22:41.4	357.010	-0.590	0.310	-0.710
2020/01/31 17:22:41.5	357.010	-0.580	0.290	-0.720
2020/01/31 17:22:41.6	357.010	-0.570	0.260	-0.740
2020/01/31 17:22:41.7	357.010	-0.550	0.230	-0.760
2020/01/31 17:22:41.8	357.020	-0.530	0.210	-0.780
2020/01/31 17:22:41.9	357.020	-0.500	0.180	-0.790
2020/01/31 17:22:42.0	357.030	-0.470	0.150	-0.800
2020/01/31 17:22:42.1	357.030	-0.430	0.120	-0.810
2020/01/31 17:22:42.2	357.030	-0.390	0.090	-0.820
2020/01/31 17:22:42.3	357.040	-0.350	0.070	-0.820
2020/01/31 17:22:42.4	357.040	-0.310	0.050	-0.830
2020/01/31 17:22:42.5	357.040	-0.270	0.030	-0.830
2020/01/31 17:22:42.6	357.040	-0.220	0.010	-0.820
2020/01/31 17:22:42.7	357.040	-0.170	0.000	-0.810
2020/01/31 17:22:42.8	357.040	-0.120	-0.010	-0.800
2020/01/31 17:22:42.9	357.040	-0.080	-0.010	-0.790
2020/01/31 17:22:43.0	357.040	-0.030	-0.010	-0.770
2020/01/31 17:22:43.1	357.040	0.020	-0.010	-0.750
2020/01/31 17:22:43.2	357.030	0.060	-0.010	-0.730
2020/01/31 17:22:43.3	357.030	0.100	0.000	-0.700
2020/01/31 17:22:43.4	357.020	0.150	0.010	-0.670
2020/01/31 17:22:43.5	357.010	0.180	0.020	-0.640
2020/01/31 17:22:43.6	357.000	0.220	0.040	-0.610
2020/01/31 17:22:43.7	356.990	0.250	0.050	-0.570
2020/01/31 17:22:43.8	356.980	0.280	0.070	-0.530
2020/01/31 17:22:43.9	356.960	0.310	0.090	-0.490
2020/01/31 17:22:44.0	356.950	0.330	0.110	-0.450
2020/01/31 17:22:44.1	356.930	0.350	0.120	-0.410
2020/01/31 17:22:44.2	356.910	0.370	0.140	-0.370
2020/01/31 17:22:44.3	356.890	0.380	0.150	-0.330
2020/01/31 17:22:44.4	356.870	0.390	0.170	-0.280
2020/01/31 17:22:44.5	356.850	0.390	0.180	-0.240
2020/01/31 17:22:44.6	356.830	0.390	0.190	-0.200
2020/01/31 17:22:44.7	356.800	0.390	0.200	-0.160
2020/01/31 17:22:44.8	356.780	0.380	0.200	-0.120
2020/01/31 17:22:44.9	356.750	0.370	0.200	-0.090
2020/01/31 17:22:45.0	356.730	0.360	0.200	-0.050
2020/01/31 17:22:45.1	356.700	0.340	0.190	-0.020
2020/01/31 17:22:45.2	356.680	0.320	0.190	0.010
2020/01/31 17:22:45.3	356.650	0.300	0.170	0.040
2020/01/31 17:22:45.4	356.630	0.280	0.160	0.060
2020/01/31 17:22:45.5	356.610	0.250	0.140	0.090
2020/01/31 17:22:45.6	356.590	0.230	0.120	0.110
2020/01/31 17:22:45.7	356.570	0.200	0.100	0.120
2020/01/31 17:22:45.8	356.540	0.170	0.080	0.140
2020/01/31 17:22:45.9	356.520	0.150	0.050	0.150
2020/01/31 17:22:46.0	356.510	0.120	0.020	0.160
2020/01/31 17:22:46.1	356.490	0.090	-0.010	0.170
2020/01/31 17:22:46.2	356.480	0.070	-0.040	0.170
2020/01/31 17:22:46.3	356.470	0.040	-0.070	0.180
2020/01/31 17:22:46.4	356.460	0.020	-0.110	0.180
2020/01/31 17:22:46.5	356.460	0.000	-0.150	0.170
2020/01/31 17:22:46.6	356.450	-0.020	-0.190	0.160
2020/01/31 17:22:46.7	356.450	-0.030	-0.230	0.150
2020/01/31 17:22:46.8	356.440	-0.050	-0.270	0.140
2020/01/31 17:22:46.9	356.450	-0.060	-0.320	0.120
2020/01/31 17:22:47.0	356.460	-0.070	-0.360	0.100
2020/01/31 17:22:47.1	356.470	-0.070	-0.400	0.070
2020/01/31 17:22:47.2	356.480	-0.080	-0.450	0.040
2020/01/31 17:22:47.3	356.490	-0.080	-0.500	0.010
2020/01/31 17:22:47.4	356.510	-0.070	-0.550	-0.020
2020/01/31 17:22:47.5	356.540	-0.070	-0.590	-0.060
2020/01/31 17:22:47.6	356.560	-0.060	-0.640	-0.100
2020/01/31 17:22:47.7	356.590	-0.050	-0.690	-0.140
2020/01/31 17:22:47.8	356.630	-0.040	-0.740	-0.180
2020/01/31 17:22:47.9	356.660	-0.030	-0.780	-0.220
2020/01/31 17:22:48.0	356.700	-0.010	-0.830	-0.270
2020/01/31 17:22:48.1	356.730	0.000	-0.870	-0.320
2020/01/31 17:22:48.2	356.770	0.020	-0.910	-0.370
2020/01/31 17:22:48.3	356.820	0.030	-0.950	-0.410
2020/01/31 17:22:48.4	356.860	0.050	-0.980	-0.460
2020/01/31 17:22:48.5	356.900	0.060	-1.010	-0.510
2020/01/31 17:22:48.6	356.940	0.080	-1.040	-0.560
2020/01/31 17:22:48.7	356.980	0.090	-1.060	-0.600
2020/01/31 17:22:48.8	357.040	0.100	-1.080	-0.640
2020/01/31 17:22:48.9	357.080	0.110	-1.090	-0.680
2020/01/31 17:22:49.0	357.110	0.120	-1.100	-0.720
2020/01/31 17:22:49.1	357.150	0.120	-1.090	-0.750
2020/01/31 17:22:49.2	357.180	0.120	-1.090	-0.790
2020/01/31 17:22:49.3	357.200	0.120	-1.070	-0.820
2020/01/31 17:22:49.4	357.220	0.120	-1.050	-0.840
2020/01/31 17:22:49.5	357.240	0.110	-1.020	-0.870
2020/01/31 17:22:49.6	357.260	0.100	-0.990	-0.890
2020/01/31 17:22:49.7	357.270	0.080	-0.950	-0.910
2020/01/31 17:22:49.8	357.270	0.060	-0.900	-0.920
2020/01/31 17:22:49.9	357.280	0.040	-0.850	-0.930
2020/01/31 17:22:50.0	357.280	0.010	-0.800	-0.940
2020/01/31 17:22:50.1	357.280	-0.020	-0.740	-0.950
2020/01/31 17:22:50.2	357.280	-0.050	-0.680	-0.950
2020/01/31 17:22:50.3	357.280	-0.080	-0.610	-0.950
2020/01/31 17:22:50.4	357.280	-0.110	-0.550	-0.950
2020/01/31 17:22:50.5	357.270	-0.150	-0.480	-0.950
2020/01/31 17:22:50.6	357.270	-0.190	-0.410	-0.940
2020/01/31 17:22:50.7	357.260	-0.230	-0.340	-0.940
2020/01/31 17:22:50.8	357.260	-0.270	-0.280	-0.930
2020/01/31 17:22:50.9	357.260	-0.300	-0.220	-0.930
2020/01/31 17:22:51.0	357.260	-0.340	-0.160	-0.920
2020/01/31 17:22:51.1	357.260	-0.370	-0.100	-0.910
2020/01/31 17:22:51.2	357.260	-0.410	-0.050	-0.910
2020/01/31 17:22:51.3	357.260	-0.440	-0.010	-0.900
2020/01/31 17:22:51.4	357.270	-0.460	0.040	-0.900
2020/01/31 17:22:51.5	357.280	-0.490	0.070	-0.890
2020/01/31 17:22:51.6	357.290	-0.510	0.100	-0.890
2020/01/31 17:22:51.7	357.300	-0.520	0.120	-0.880
2020/01/31 17:22:51.8	357.320	-0.530	0.140	-0.880
2020/01/31 17:22:51.9	357.340	-0.530	0.150	-0.880
2020/01/31 17:22:52.0	357.360	-0.530	0.150	-0.880
2020/01/31 17:22:52.1	357.380	-0.520	0.150	-0.870
2020/01/31 17:22:52.2	357.410	-0.510	0.140	-0.870
2020/01/31 17:22:52.3	357.430	-0.490	0.120	-0.860
2020/01/31 17:22:52.4	357.450	-0.460	0.100	-0.850
2020/01/31 17:22:52.5	357.480	-0.430	0.080	-0.840
2020/01/31 17:22:52.6	357.500	-0.400	0.050	-0.830
2020/01/31 17:22:52.7	357.520	-0.360	0.030	-0.810
2020/01/31 17:22:52.8	357.540	-0.310	-0.000	-0.790
2020/01/31 17:22:52.9	357.550	-0.260	-0.030	-0.760
2020/01/31 17:22:53.0	357.560	-0.210	-0.060	-0.730
2020/01/31 17:22:53.1	357.570	-0.160	-0.090	-0.700
2020/01/31 17:22:53.2	357.570	-0.100	-0.110	-0.660
2020/01/31 17:22:53.3	357.570	-0.040	-0.130	-0.620
2020/01/31 17:22:53.4	357.570	0.020	-0.150	-0.570
2020/01/31 17:22:53.5	357.560	0.080	-0.160	-0.520
2020/01/31 17:22:53.6	357.550	0.140	-0.170	-0.460
2020/01/31 17:22:53.7	357.530	0.200	-0.180	-0.410
2020/01/31 17:22:53.8	357.510	0.260	-0.170	-0.340
2020/01/31 17:22:53.9	357.490	0.320	-0.170	-0.270
2020/01/31 17:22:54.0	357.450	0.370	-0.160	-0.210
2020/01/31 17:22:54.1	357.420	0.420	-0.150	-0.140
2020/01/31 17:22:54.2	357.380	0.470	-0.130	-0.070
2020/01/31 17:22:54.3	357.340	0.510	-0.120	0.000
2020/01/31 17:22:54.4	357.300	0.550	-0.090	0.070
2020/01/31 17:22:54.5	357.250	0.590	-0.070	0.140
2020/01/31 17:22:54.6	357.200	0.610	-0.040	0.210
2020/01/31 17:22:54.7	357.160	0.640	-0.020	0.270
2020/01/31 17:22:54.8	357.100	0.660	0.010	0.340
2020/01/31 17:22:54.9	357.050	0.670	0.040	0.400
2020/01/31 17:22:55.0	357.010	0.670	0.070	0.450
2020/01/31 17:22:55.1	356.960	0.670	0.100	0.510
2020/01/31 17:22:55.2	356.920	0.670	0.120	0.550
2020/01/31 17:22:55.3	356.870	0.660	0.150	0.590
2020/01/31 17:22:55.4	356.840	0.640	0.170	0.630
2020/01/31 17:22:55.5	356.800	0.630	0.190	0.660
2020/01/31 17:22:55.6	356.760	0.600	0.210	0.680
2020/01/31 17:22:55.7	356.730	0.570	0.220	0.690
2020/01/31 17:22:55.8	356.690	0.540	0.230	0.700
2020/01/31 17:22:55.9	356.670	0.510	0.230	0.700
2020/01/31 17:22:56.0	356.650	0.470	0.230	0.690
2020/01/31 17:22:56.1	356.630	0.430	0.230	0.670
2020/01/31 17:22:56.2	356.620	0.390	0.220	0.650
2020/01/31 17:22:56.3	356.610	0.350	0.200	0.620
2020/01/31 17:22:56.4	356.600	0.310	0.190	0.580
2020/01/31 17:22:56.5	356.600	0.260	0.160	0.540
2020/01/31 17:22:56.6	356.600	0.220	0.140	0.490
2020/01/31 17:22:56.7	356.600	0.170	0.110	0.440
2020/01/31 17:22:56.8	356.610	0.130	0.080	0.380
2020/01/31 17:22:56.9	356.610	0.080	0.050	0.320
2020/01/31 17:22:57.0	356.620	0.040	0.020	0.260
2020/01/31 17:22:57.1	356.630	0.000	-0.020	0.190
2020/01/31 17:22:57.2	356.640	-0.040	-0.060	0.130
2020/01/31 17:22:57.3	356.660	-0.080	-0.100	0.060
2020/01/31 17:22:57.4	356.670	-0.110	-0.140	-0.010
2020/01/31 17:22:57.5	356.690	-0.140	-0.170	-0.080
2020/01/31 17:22:57.6	356.710	-0.170	-0.210	-0.150
2020/01/31 17:22:57.7	356.720	-0.200	-0.250	-0.210
2020/01/31 17:22:57.8	356.750	-0.220	-0.290	-0.280
2020/01/31 17:22:57.9	356.770	-0.240	-0.330	-0.340
2020/01/31 17:22:58.0	356.790	-0.260	-0.370	-0.400
2020/01/31 17:22:58.1	356.810	-0.280	-0.400	-0.460
2020/01/31 17:22:58.2	356.830	-0.290	-0.440	-0.520
2020/01/31 17:22:58.3	356.840	-0.300	-0.470	-0.570
2020/01/31 17:22:58.4	356.860	-0.300	-0.500	-0.620
2020/01/31 17:22:58.5	356.880	-0.310	-0.530	-0.670
2020/01/31 17:22:58.6	356.900	-0.300	-0.560	-0.710
2020/01/31 17:22:58.7	356.920	-0.300	-0.590	-0.750
2020/01/31 17:22:58.8	356.940	-0.290	-0.620	-0.790
2020/01/31 17:22:58.9	356.950	-0.290	-0.640	-0.820
2020/01/31 17:22:59.0	356.970	-0.270	-0.670	-0.850
2020/01/31 17:22:59.1	356.990	-0.260	-0.690	-0.870
2020/01/31 17:22:59.2	357.010	-0.240	-0.710	-0.890
2020/01/31 17:22:59.3	357.030	-0.220	-0.730	-0.910
2020/01/31 17:22:59.4	357.050	-0.200	-0.750	-0.920
2020/01/31 17:22:59.5	357.070	-0.180	-0.770	-0.930
2020/01/31 17:22:59.6	357.090	-0.160	-0.780	-0.940
2020/01/31 17:22:59.7	357.110	-0.140	-0.800	-0.940
2020/01/31 17:22:59.8	357.140	-0.110	-0.810	-0.930
2020/01/31 17:22:59.9	357.160	-0.080	-0.820	-0.930
2020/01/31 17:23:00.0	357.180	-0.060	-0.830	-0.920
2020/01/31 17:23:00.1	357.200	-0.030	-0.840	-0.910
2020/01/31 17:23:00.2	357.220	-0.010	-0.850	-0.900
2020/01/31 17:23:00.3	357.250	0.020	-0.850	-0.890
2020/01/31 17:23:00.4	357.270	0.040	-0.860	-0.880
2020/01/31 17:23:00.5	357.300	0.060	-0.860	-0.870
2020/01/31 17:23:00.6	357.320	0.080	-0.860	-0.860
2020/01/31 17:23:00.7	357.340	0.100	-0.860	-0.840
2020/01/31 17:23:00.8	357.370	0.120	-0.850	-0.830
2020/01/31 17:23:00.9	357.390	0.140	-0.840	-0.810
2020/01/31 17:23:01.0	357.410	0.150	-0.830	-0.800
2020/01/31 17:23:01.1	357.430	0.160	-0.820	-0.790
2020/01/31 17:23:01.2	357.450	0.170	-0.800	-0.770
2020/01/31 17:23:01.3	357.470	0.170	-0.780	-0.760
2020/01/31 17:23:01.4	357.480	0.170	-0.760	-0.750
2020/01/31 17:23:01.5	357.500	0.170	-0.740	-0.730
2020/01/31 17:23:01.6	357.510	0.170	-0.710	-0.720
2020/01/31 17:23:01.7	357.520	0.160	-0.680	-0.710
2020/01/31 17:23:01.8	357.530	0.150	-0.650	-0.690
2020/01/31 17:23:01.9	357.540	0.140	-0.610	-0.680
2020/01/31 17:23:02.0	357.550	0.120	-0.570	-0.660
2020/01/31 17:23:02.1	357.560	0.100	-0.530	-0.650
2020/01/31 17:23:02.2	357.570	0.080	-0.480	-0.630
2020/01/31 17:23:02.3	357.570	0.060	-0.440	-0.620
2020/01/31 17:23:02.4	357.570	0.040	-0.390	-0.600
2020/01/31 17:23:02.5	357.580	0.010	-0.330	-0.590
2020/01/31 17:23:02.6	357.570	-0.020	-0.280	-0.570
2020/01/31 17:23:02.7	357.570	-0.050	-0.230	-0.550
2020/01/31 17:23:02.8	357.560	-0.080	-0.170	-0.520
2020/01/31 17:23:02.9	357.550	-0.110	-0.110	-0.500
2020/01/31 17:23:03.0	357.540	-0.140	-0.060	-0.470
2020/01/31 17:23:03.1	357.530	-0.170	0.000	-0.450
2020/01/31 17:23:03.2	357.520	-0.210	0.060	-0.420
2020/01/31 17:23:03.3	357.500	-0.240	0.110	-0.390
2020/01/31 17:23:03.4	357.480	-0.270	0.160	-0.360
2020/01/31 17:23:03.5	357.460	-0.300	0.210	-0.330
2020/01/31 17:23:03.6	357.440	-0.330	0.260	-0.300
2020/01/31 17:23:03.7	357.420	-0.350	0.300	-0.270
2020/01/31 17:23:03.8	357.400	-0.380	0.340	-0.240
2020/01/31 17:23:03.9	357.380	-0.400	0.370	-0.210
2020/01/31 17:23:04.0	357.360	-0.420	0.400	-0.190
2020/01/31 17:23:04.1	357.330	-0.440	0.430	-0.170
2020/01/31 17:23:04.2	357.310	-0.450	0.450	-0.140
2020/01/31 17:23:04.3	357.290	-0.470	0.460	-0.120
2020/01/31 17:23:04.4	357.280	-0.480	0.470	-0.110
2020/01/31 17:23:04.5	357.260	-0.480	0.470	-0.090
2020/01/31 17:23:04.6	357.240	-0.480	0.470	-0.080
2020/01/31 17:23:04.7	357.220	-0.480	0.470	-0.070
2020/01/31 17:23:04.8	357.200	-0.480	0.460	-0.060
2020/01/31 17:23:04.9	357.190	-0.470	0.450	-0.050
2020/01/31 17:23:05.0	357.170	-0.450	0.430	-0.050
2020/01/31 17:23:05.1	357.160	-0.440	0.410	-0.040
2020/01/31 17:23:05.2	357.150	-0.420	0.390	-0.040
2020/01/31 17:23:05.3	357.150	-0.400	0.360	-0.040
2020/01/31 17:23:05.4	357.140	-0.370	0.330	-0.040
2020/01/31 17:23:05.5	357.130	-0.340	0.300	-0.040
2020/01/31 17:23:05.6	357.130	-0.310	0.270	-0.050
2020/01/31 17:23:05.7	357.130	-0.280	0.240	-0.050
2020/01/31 17:23:05.8	357.130	-0.240	0.210	-0.050
2020/01/31 17:23:05.9	357.130	-0.200	0.170	-0.060
2020/01/31 17:23:06.0	357.130	-0.160	0.140	-0.060
2020/01/31 17:23:06.1	357.140	-0.120	0.100	-0.070
2020/01/31 17:23:06.2	357.140	-0.070	0.070	-0.070
2020/01/31 17:23:06.3	357.140	-0.030	0.040	-0.080
2020/01/31 17:23:06.4	357.150	0.020	0.010	-0.080
2020/01/31 17:23:06.5	357.150	0.060	-0.020	-0.080
2020/01/31 17:23:06.6	357.150	0.110	-0.050	-0.070
2020/01/31 17:23:06.7	357.150	0.150	-0.080	-0.070
2020/01/31 17:23:06.8	357.140	0.200	-0.110	-0.060
2020/01/31 17:23:06.9	357.130	0.240	-0.130	-0.050
2020/01/31 17:23:07.0	357.130	0.280	-0.150	-0.040
2020/01/31 17:23:07.1	357.120	0.320	-0.170	-0.020
2020/01/31 17:23:07.2	357.110	0.360	-0.190	-0.010
2020/01/31 17:23:07.3	357.100	0.390	-0.200	0.000
2020/01/31 17:23:07.4	357.090	0.420	-0.220	0.020
2020/01/31 17:23:07.5	357.070	0.450	-0.230	0.030
2020/01/31 17:23:07.6	357.060	0.480	-0.240	0.050
2020/01/31 17:23:07.7	357.040	0.500	-0.260	0.060
2020/01/31 17:23:07.8	357.030	0.520	-0.270	0.080
2020/01/31 17:23:07.9	357.010	0.540	-0.280	0.100
2020/01/31 17:23:08.0	357.000	0.550	-0.290	0.110
2020/01/31 17:23:08.1	356.980	0.560	-0.300	0.120
2020/01/31 17:23:08.2	356.960	0.570	-0.310	0.130
2020/01/31 17:23:08.3	356.950	0.570	-0.330	0.130
2020/01/31 17:23:08.4	356.930	0.570	-0.340	0.130
2020/01/31 17:23:08.5	356.920	0.570	-0.360	0.130
2020/01/31 17:23:08.6	356.910	0.570	-0.380	0.130
2020/01/31 17:23:08.7	356.910	0.560	-0.400	0.120
2020/01/31 17:23:08.8	356.910	0.550	-0.420	0.110
2020/01/31 17:23:08.9	356.910	0.540	-0.450	0.100
2020/01/31 17:23:09.0	356.910	0.530	-0.480	0.070
2020/01/31 17:23:09.1	356.910	0.510	-0.510	0.050
2020/01/31 17:23:09.2	356.920	0.500	-0.540	0.020
2020/01/31 17:23:09.3	356.920	0.480	-0.580	-0.010
2020/01/31 17:23:09.4	356.930	0.460	-0.620	-0.050
2020/01/31 17:23:09.5	356.940	0.440	-0.650	-0.090
2020/01/31 17:23:09.6	356.960	0.420	-0.690	-0.130
2020/01/31 17:23:09.7	356.970	0.400	-0.730	-0.180
2020/01/31 17:23:09.8	356.980	0.380	-0.770	-0.230
2020/01/31 17:23:09.9	357.000	0.360	-0.800	-0.280
2020/01/31 17:23:10.0	357.010	0.340	-0.840	-0.320
2020/01/31 17:23:10.1	357.030	0.310	-0.880	-0.380
2020/01/31 17:23:10.2	357.050	0.290	-0.910	-0.430
2020/01/31 17:23:10.3	357.070	0.260	-0.940	-0.480
2020/01/31 17:23:10.4	357.090	0.240	-0.970	-0.530
2020/01/31 17:23:10.5	357.100	0.210	-0.990	-0.580
2020/01/31 17:23:10.6	357.120	0.190	-1.010	-0.640
2020/01/31 17:23:10.7	357.140	0.160	-1.020	-0.690
2020/01/31 17:23:10.8	357.170	0.140	-1.030	-0.740
2020/01/31 17:23:10.9	357.190	0.110	-1.040	-0.790
2020/01/31 17:23:11.0	357.200	0.080	-1.040	-0.850
2020/01/31 17:23:11.1	357.220	0.050	-1.030	-0.900
2020/01/31 17:23:11.2	357.240	0.020	-1.020	-0.950
2020/01/31 17:23:11.3	357.260	-0.010	-1.000	-1.000
2020/01/31 17:23:11.4	357.280	-0.040	-0.980	-1.050
2020/01/31 17:23:11.5	357.300	-0.070	-0.960	-1.100
2020/01/31 17:23:11.6	357.310	-0.090	-0.930	-1.150
2020/01/31 17:23:11.7	357.330	-0.120	-0.890	-1.190
2020/01/31 17:23:11.8	357.370	-0.150	-0.850	-1.240
2020/01/31 17:23:11.9	357.390	-0.180	-0.810	-1.270
2020/01/31 17:23:12.0	357.400	-0.210	-0.770	-1.310
2020/01/31 17:23:12.1	357.420	-0.240	-0.720	-1.340
2020/01/31 17:23:12.2	357.440	-0.260	-0.670	-1.370
2020/01/31 17:23:12.3	357.460	-0.290	-0.610	-1.390
2020/01/31 17:23:12.4	357.480	-0.320	-0.560	-1.410
2020/01/31 17:23:12.5	357.500	-0.340	-0.500	-1.420
2020/01/31 17:23:12.6	357.520	-0.360	-0.440	-1.430
2020/01/31 17:23:12.7	357.530	-0.380	-0.380	-1.430
2020/01/31 17:23:12.8	357.570	-0.400	-0.320	-1.430
2020/01/31 17:23:12.9	357.580	-0.420	-0.270	-1.420
2020/01/31 17:23:13.0	357.600	-0.430	-0.210	-1.400
2020/01/31 17:23:13.1	357.610	-0.450	-0.150	-1.380
2020/01/31 17:23:13.2	357.630	-0.460	-0.090	-1.360
2020/01/31 17:23:13.3	357.640	-0.470	-0.040	-1.330
2020/01/31 17:23:13.4	357.650	-0.470	0.010	-1.290
2020/01/31 17:23:13.5	357.660	-0.480	0.060	-1.250
2020/01/31 17:23:13.6	357.660	-0.480	0.110	-1.210
2020/01/31 17:23:13.7	357.670	-0.480	0.160	-1.160
2020/01/31 17:23:13.8	357.690	-0.480	0.200	-1.110
2020/01/31 17:23:13.9	357.690	-0.480	0.240	-1.050
2020/01/31 17:23:14.0	357.700	-0.470	0.280	-1.000
2020/01/31 17:23:14.1	357.700	-0.460	0.320	-0.940
2020/01/31 17:23:14.2	357.700	-0.450	0.350	-0.870
2020/01/31 17:23:14.3	357.700	-0.440	0.380	-0.810
2020/01/31 17:23:14.4	357.700	-0.420	0.410	-0.740
2020/01/31 17:23:14.5	357.700	-0.410	0.430	-0.670
2020/01/31 17:23:14.6	357.700	-0.390	0.450	-0.600
2020/01/31 17:23:14.7	357.700	-0.370	0.470	-0.530
2020/01/31 17:23:14.8	357.690	-0.340	0.480	-0.460
2020/01/31 17:23:14.9	357.690	-0.320	0.490	-0.390
2020/01/31 17:23:15.0	357.690	-0.290	0.500	-0.320
2020/01/31 17:23:15.1	357.680	-0.260	0.500	-0.250
2020/01/31 17:23:15.2	357.680	-0.230	0.500	-0.180
2020/01/31 17:23:15.3	357.680	-0.200	0.490	-0.110
2020/01/31 17:23:15.4	357.680	-0.160	0.480	-0.040
2020/01/31 17:23:15.5	357.670	-0.130	0.470	0.020
2020/01/31 17:23:15.6	357.670	-0.090	0.450	0.080
2020/01/31 17:23:15.7	357.660	-0.060	0.440	0.140
2020/01/31 17:23:15.8	357.660	-0.020	0.410	0.190
2020/01/31 17:23:15.9	357.660	0.010	0.390	0.240
2020/01/31 17:23:16.0	357.650	0.050	0.360	0.290
2020/01/31 17:23:16.1	357.650	0.080	0.330	0.330
2020/01/31 17:23:16.2	357.640	0.120	0.300	0.360
2020/01/31 17:23:16.3	357.640	0.150	0.270	0.390
2020/01/31 17:23:16.4	357.630	0.180	0.240	0.420
2020/01/31 17:23:16.5	357.630	0.210	0.200	0.440
2020/01/31 17:23:16.6	357.620	0.240	0.170	0.450
2020/01/31 17:23:16.7	357.620	0.270	0.130	0.460
2020/01/31 17:23:16.8	357.600	0.290	0.090	0.460
2020/01/31 17:23:16.9	357.590	0.310	0.060	0.460
2020/01/31 17:23:17.0	357.580	0.330	0.020	0.460
2020/01/31 17:23:17.1	357.570	0.350	-0.020	0.450
2020/01/31 17:23:17.2	357.550	0.360	-0.060	0.440
2020/01/31 17:23:17.3	357.540	0.370	-0.090	0.430
2020/01/31 17:23:17.4	357.510	0.370	-0.120	0.420
2020/01/31 17:23:17.5	357.490	0.370	-0.160	0.400
2020/01/31 17:23:17.6	357.470	0.370	-0.190	0.380
2020/01/31 17:23:17.7	357.440	0.360	-0.220	0.350
2020/01/31 17:23:17.8	357.400	0.350	-0.250	0.330
2020/01/31 17:23:17.9	357.370	0.340	-0.280	0.300
2020/01/31 17:23:18.0	357.350	0.330	-0.300	0.260
2020/01/31 17:23:18.1	357.320	0.310	-0.330	0.230
2020/01/31 17:23:18.2	357.290	0.290	-0.350	0.190
2020/01/31 17:23:18.3	357.270	0.260	-0.370	0.150
2020/01/31 17:23:18.4	357.240	0.240	-0.400	0.110
2020/01/31 17:23:18.5	357.220	0.210	-0.420	0.060
2020/01/31 17:23:18.6	357.190	0.180	-0.440	0.010
2020/01/31 17:23:18.7	357.170	0.150	-0.460	-0.040
2020/01/31 17:23:18.8	357.150	0.120	-0.480	-0.090
2020/01/31 17:23:18.9	357.130	0.080	-0.500	-0.150
2020/01/31 17:23:19.0	357.110	0.050	-0.520	-0.210
2020/01/31 17:23:19.1	357.100	0.020	-0.550	-0.270
2020/01/31 17:23:19.2	357.080	-0.010	-0.570	-0.330
2020/01/31 17:23:19.3	357.070	-0.040	-0.600	-0.390
2020/01/31 17:23:19.4	357.060	-0.070	-0.630	-0.460
2020/01/31 17:23:19.5	357.060	-0.100	-0.660	-0.530
2020/01/31 17:23:19.6	357.050	-0.130	-0.690	-0.590
2020/01/31 17:23:19.7	357.050	-0.150	-0.720	-0.660
2020/01/31 17:23:19.8	357.050	-0.170	-0.750	-0.720
2020/01/31 17:23:19.9	357.050	-0.190	-0.780	-0.790
2020/01/31 17:23:20.0	357.060	-0.200	-0.810	-0.850
2020/01/31 17:23:20.1	357.060	-0.210	-0.840	-0.920
2020/01/31 17:23:20.2	357.070	-0.220	-0.870	-0.980
2020/01/31 17:23:20.3	357.080	-0.230	-0.890	-1.040
2020/01/31 17:23:20.4	357.080	-0.230	-0.920	-1.090
2020/01/31 17:23:20.5	357.090	-0.230	-0.940	-1.150
2020/01/31 17:23:20.6	357.100	-0.220	-0.960	-1.200
2020/01/31 17:23:20.7	357.110	-0.220	-0.970	-1.250
2020/01/31 17:23:20.8	357.120	-0.210	-0.980	-1.300
2020/01/31 17:23:20.9	357.140	-0.200	-0.990	-1.340
2020/01/31 17:23:21.0	357.150	-0.190	-0.990	-1.380
2020/01/31 17:23:21.1	357.160	-0.180	-0.990	-1.410
2020/01/31 17:23:21.2	357.170	-0.160	-0.980	-1.450
2020/01/31 17:23:21.3	357.180	-0.140	-0.960	-1.480
2020/01/31 17:23:21.4	357.200	-0.130	-0.950	-1.500
2020/01/31 17:23:21.5	357.210	-0.110	-0.930	-1.520
2020/01/31 17:23:21.6	357.220	-0.090	-0.900	-1.540
2020/01/31 17:23:21.7	357.240	-0.070	-0.870	-1.550
2020/01/31 17:23:21.8	357.250	-0.050	-0.840	-1.550
2020/01/31 17:23:21.9	357.270	-0.030	-0.800	-1.560
2020/01/31 17:23:22.0	357.290	-0.010	-0.770	-1.560
2020/01/31 17:23:22.1	357.310	0.010	-0.730	-1.550
2020/01/31 17:23:22.2	357.330	0.030	-0.690	-1.540
2020/01/31 17:23:22.3	357.350	0.050	-0.650	-1.530
2020/01/31 17:23:22.4	357.370	0.070	-0.600	-1.510
2020/01/31 17:23:22.5	357.390	0.090	-0.560	-1.490
2020/01/31 17:23:22.6	357.420	0.100	-0.520	-1.460
2020/01/31 17:23:22.7	357.440	0.120	-0.470	-1.430
2020/01/31 17:23:22.8	357.480	0.130	-0.430	-1.390
2020/01/31 17:23:22.9	357.500	0.150	-0.390	-1.350
2020/01/31 17:23:23.0	357.520	0.160	-0.350	-1.310
2020/01/31 17:23:23.1	357.550	0.170	-0.310	-1.260
2020/01/31 17:23:23.2	357.570	0.180	-0.270	-1.210
2020/01/31 17:23:23.3	357.590	0.180	-0.230	-1.160
2020/01/31 17:23:23.4	357.610	0.190	-0.190	-1.110
2020/01/31 17:23:23.5	357.630	0.190	-0.160	-1.050
2020/01/31 17:23:23.6	357.650	0.190	-0.120	-1.000
2020/01/31 17:23:23.7	357.670	0.190	-0.090	-0.940
2020/01/31 17:23:23.8	357.680	0.190	-0.050	-0.880
2020/01/31 17:23:23.9	357.700	0.190	-0.030	-0.830
2020/01/31 17:23:24.0	357.720	0.190	0.000	-0.780
2020/01/31 17:23:24.1	357.740	0.180	0.030	-0.720
2020/01/31 17:23:24.2	357.760	0.170	0.050	-0.670
2020/01/31 17:23:24.3	357.770	0.170	0.080	-0.620
2020/01/31 17:23:24.4	357.790	0.160	0.100	-0.570
2020/01/31 17:23:24.5	357.810	0.150	0.120	-0.530
2020/01/31 17:23:24.6	357.830	0.140	0.140	-0.480
2020/01/31 17:23:24.7	357.840	0.130	0.160	-0.430
2020/01/31 17:23:24.8	357.860	0.120	0.180	-0.380
2020/01/31 17:23:24.9	357.880	0.100	0.200	-0.340
2020/01/31 17:23:25.0	357.890	0.090	0.210	-0.300
2020/01/31 17:23:25.1	357.900	0.080	0.230	-0.250
2020/01/31 17:23:25.2	357.910	0.060	0.250	-0.210
2020/01/31 17:23:25.3	357.910	0.050	0.260	-0.170
2020/01/31 17:23:25.4	357.920	0.040	0.280	-0.120
2020/01/31 17:23:25.5	357.920	0.020	0.290	-0.080
2020/01/31 17:23:25.6	357.920	0.000	0.300	-0.040
2020/01/31 17:23:25.7	357.920	-0.010	0.320	0.000
2020/01/31 17:23:25.8	357.900	-0.030	0.330	0.040
2020/01/31 17:23:25.9	357.900	-0.050	0.340	0.080
2020/01/31 17:23:26.0	357.890	-0.060	0.340	0.120
2020/01/31 17:23:26.1	357.880	-0.080	0.350	0.160
2020/01/31 17:23:26.2	357.860	-0.100	0.350	0.200
2020/01/31 17:23:26.3	357.850	-0.120	0.350	0.230
2020/01/31 17:23:26.4	357.830	-0.140	0.350	0.260
2020/01/31 17:23:26.5	357.810	-0.160	0.340	0.290
2020/01/31 17:23:26.6	357.790	-0.180	0.340	0.310
2020/01/31 17:23:26.7	357.760	-0.200	0.330	0.330
2020/01/31 17:23:26.8	357.740	-0.210	0.320	0.350
2020/01/31 17:23:26.9	357.710	-0.230	0.310	0.370
2020/01/31 17:23:27.0	357.680	-0.250	0.290	0.380
2020/01/31 17:23:27.1	357.650	-0.270	0.280	0.380
2020/01/31 17:23:27.2	357.620	-0.280	0.260	0.380
2020/01/31 17:23:27.3	357.590	-0.300	0.230	0.380
2020/01/31 17:23:27.4	357.550	-0.310	0.210	0.380
2020/01/31 17:23:27.5	357.520	-0.330	0.180	0.370
2020/01/31 17:23:27.6	357.480	-0.340	0.160	0.350
2020/01/31 17:23:27.7	357.450	-0.350	0.130	0.340
2020/01/31 17:23:27.8	357.410	-0.350	0.090	0.320
2020/01/31 17:23:27.9	357.370	-0.360	0.060	0.310
2020/01/31 17:23:28.0	357.330	-0.360	0.020	0.290
2020/01/31 17:23:28.1	357.290	-0.360	-0.010	0.270
2020/01/31 17:23:28.2	357.250	-0.350	-0.050	0.240
2020/01/31 17:23:28.3	357.220	-0.350	-0.090	0.220
2020/01/31 17:23:28.4	357.180	-0.340	-0.130	0.200
2020/01/31 17:23:28.5	357.140	-0.330	-0.180	0.170
2020/01/31 17:23:28.6	357.110	-0.320	-0.220	0.140
2020/01/31 17:23:28.7	357.070	-0.300	-0.260	0.110
2020/01/31 17:23:28.8	357.030	-0.280	-0.310	0.080
2020/01/31 17:23:28.9	357.000	-0.260	-0.350	0.050
2020/01/31 17:23:29.0	356.970	-0.230	-0.390	0.020
2020/01/31 17:23:29.1	356.940	-0.210	-0.440	-0.020
2020/01/31 17:23:29.2	356.920	-0.180	-0.480	-0.050
2020/01/31 17:23:29.3	356.900	-0.140	-0.520	-0.090
2020/01/31 17:23:29.4	356.870	-0.110	-0.560	-0.120
2020/01/31 17:23:29.5	356.850	-0.070	-0.600	-0.160
2020/01/31 17:23:29.6	356.840	-0.040	-0.630	-0.200
2020/01/31 17:23:29.7	356.820	0.000	-0.670	-0.240
2020/01/31 17:23:29.8	356.820	0.040	-0.700	-0.270
2020/01/31 17:23:29.9	356.800	0.090	-0.720	-0.310
2020/01/31 17:23:30.0	356.790	0.130	-0.750	-0.340
2020/01/31 17:23:30.1	356.790	0.170	-0.770	-0.380
2020/01/31 17:23:30.2	356.780	0.210	-0.780	-0.410
2020/01/31 17:23:30.3	356.780	0.250	-0.800	-0.440
2020/01/31 17:23:30.4	356.780	0.290	-0.810	-0.470
2020/01/31 17:23:30.5	356.780	0.330	-0.810	-0.490
2020/01/31 17:23:30.6	356.780	0.370	-0.810	-0.520
2020/01/31 17:23:30.7	356.780	0.410	-0.810	-0.540
2020/01/31 17:23:30.8	356.790	0.440	-0.810	-0.550
2020/01/31 17:23:30.9	356.800	0.470	-0.800	-0.570
2020/01/31 17:23:31.0	356.800	0.500	-0.780	-0.580
2020/01/31 17:23:31.1	356.810	0.520	-0.770	-0.590
2020/01/31 17:23:31.2	356.820	0.550	-0.750	-0.600
2020/01/31 17:23:31.3	356.830	0.560	-0.730	-0.600
2020/01/31 17:23:31.4	356.840	0.580	-0.700	-0.610
2020/01/31 17:23:31.5	356.850	0.590	-0.670	-0.610
2020/01/31 17:23:31.6	356.860	0.600	-0.650	-0.600
2020/01/31 17:23:31.7	356.870	0.600	-0.620	-0.600
2020/01/31 17:23:31.8	356.890	0.610	-0.590	-0.590
2020/01/31 17:23:31.9	356.900	0.600	-0.550	-0.580
2020/01/31 17:23:32.0	356.920	0.600	-0.520	-0.570
2020/01/31 17:23:32.1	356.930	0.590	-0.490	-0.550
2020/01/31 17:23:32.2	356.950	0.570	-0.460	-0.540
2020/01/31 17:23:32.3	356.970	0.550	-0.430	-0.530
2020/01/31 17:23:32.4	356.990	0.530	-0.400	-0.510
2020/01/31 17:23:32.5	357.010	0.510	-0.370	-0.500
2020/01/31 17:23:32.6	357.030	0.490	-0.340	-0.480
2020/01/31 17:23:32.7	357.050	0.460	-0.310	-0.470
2020/01/31 17:23:32.8	357.080	0.430	-0.280	-0.440
2020/01/31 17:23:32.9	357.100	0.390	-0.260	-0.430
2020/01/31 17:23:33.0	357.120	0.360	-0.240	-0.410
2020/01/31 17:23:33.1	357.150	0.320	-0.210	-0.400
2020/01/31 17:23:33.2	357.170	0.280	-0.190	-0.380
2020/01/31 17:23:33.3	357.190	0.240	-0.170	-0.360
2020/01/31 17:23:33.4	357.220	0.190	-0.150	-0.350
2020/01/31 17:23:33.5	357.240	0.150	-0.130	-0.330
2020/01/31 17:23:33.6	357.260	0.110	-0.120	-0.310
2020/01/31 17:23:33.7	357.280	0.060	-0.100	-0.300
2020/01/31 17:23:33.8	357.290	0.020	-0.090	-0.280
2020/01/31 17:23:33.9	357.310	-0.030	-0.070	-0.270
2020/01/31 17:23:34.0	357.330	-0.070	-0.060	-0.250
2020/01/31 17:23:34.1	357.340	-0.120	-0.050	-0.240
2020/01/31 17:23:34.2	357.360	-0.160	-0.040	-0.220
2020/01/31 17:23:34.3	357.370	-0.200	-0.040	-0.210
2020/01/31 17:23:34.4	357.380	-0.250	-0.030	-0.190
2020/01/31 17:23:34.5	357.400	-0.280	-0.030	-0.180
2020/01/31 17:23:34.6	357.410	-0.320	-0.030	-0.170
2020/01/31 17:23:34.7	357.420	-0.360	-0.030	-0.160
2020/01/31 17:23:34.8	357.430	-0.390	-0.040	-0.140
2020/01/31 17:23:34.9	357.440	-0.420	-0.050	-0.140
2020/01/31 17:23:35.0	357.450	-0.450	-0.060	-0.130
2020/01/31 17:23:35.1	357.460	-0.480	-0.070	-0.130
2020/01/31 17:23:35.2	357.470	-0.500	-0.080	-0.120
2020/01/31 17:23:35.3	357.480	-0.520	-0.100	-0.120
2020/01/31 17:23:35.4	357.490	-0.530	-0.120	-0.120
2020/01/31 17:23:35.5	357.500	-0.550	-0.140	-0.130
2020/01/31 17:23:35.6	357.510	-0.560	-0.160	-0.130
2020/01/31 17:23:35.7	357.530	-0.560	-0.190	-0.140
2020/01/31 17:23:35.8	357.540	-0.570	-0.210	-0.150
2020/01/31 17:23:35.9	357.550	-0.570	-0.240	-0.160
2020/01/31 17:23:36.0	357.570	-0.560	-0.270	-0.170
2020/01/31 17:23:36.1	357.580	-0.560	-0.290	-0.180
2020/01/31 17:23:36.2	357.590	-0.550	-0.320	-0.200
2020/01/31 17:23:36.3	357.600	-0.540	-0.350	-0.210
2020/01/31 17:23:36.4	357.610	-0.520	-0.370	-0.230
2020/01/31 17:23:36.5	357.610	-0.500	-0.400	-0.250
2020/01/31 17:23:36.6	357.620	-0.490	-0.420	-0.270
2020/01/31 17:23:36.7	357.630	-0.460	-0.440	-0.290
2020/01/31 17:23:36.8	357.640	-0.440	-0.460	-0.310
2020/01/31 17:23:36.9	357.650	-0.420	-0.480	-0.330
2020/01/31 17:23:37.0	357.650	-0.390	-0.500	-0.350
2020/01/31 17:23:37.1	357.660	-0.360	-0.510	-0.370
2020/01/31 17:23:37.2	357.660	-0.330	-0.520	-0.390
2020/01/31 17:23:37.3	357.660	-0.300	-0.520	-0.410
2020/01/31 17:23:37.4	357.670	-0.270	-0.530	-0.430
2020/01/31 17:23:37.5	357.670	-0.240	-0.530	-0.450
2020/01/31 17:23:37.6	357.670	-0.210	-0.530	-0.460
2020/01/31 17:23:37.7	357.680	-0.180	-0.530	-0.480
2020/01/31 17:23:37.8	357.670	-0.150	-0.520	-0.490
2020/01/31 17:23:37.9	357.680	-0.120	-0.510	-0.500
2020/01/31 17:23:38.0	357.680	-0.090	-0.500	-0.510
2020/01/31 17:23:38.1	357.680	-0.050	-0.490	-0.520
2020/01/31 17:23:38.2	357.680	-0.020	-0.470	-0.530
2020/01/31 17:23:38.3	357.680	0.000	-0.450	-0.530
2020/01/31 17:23:38.4	357.680	0.030	-0.430	-0.530
2020/01/31 17:23:38.5	357.680	0.060	-0.410	-0.530
2020/01/31 17:23:38.6	357.670	0.080	-0.390	-0.530
2020/01/31 17:23:38.7	357.670	0.110	-0.360	-0.530
2020/01/31 17:23:38.8	357.650	0.130	-0.330	-0.520
2020/01/31 17:23:38.9	357.640	0.150	-0.300	-0.510
2020/01/31 17:23:39.0	357.630	0.170	-0.260	-0.490
2020/01/31 17:23:39.1	357.620	0.180	-0.220	-0.480
2020/01/31 17:23:39.2	357.610	0.200	-0.170	-0.460
2020/01/31 17:23:39.3	357.590	0.210	-0.120	-0.440
2020/01/31 17:23:39.4	357.570	0.220	-0.070	-0.410
2020/01/31 17:23:39.5	357.540	0.230	-0.020	-0.380
2020/01/31 17:23:39.6	357.510	0.240	0.040	-0.340
2020/01/31 17:23:39.7	357.480	0.240	0.100	-0.310
2020/01/31 17:23:39.8	357.440	0.240	0.160	-0.260
2020/01/31 17:23:39.9	357.400	0.240	0.230	-0.220
2020/01/31 17:23:40.0	357.350	0.240	0.290	-0.170
2020/01/31 17:23:40.1	357.310	0.230	0.360	-0.120
2020/01/31 17:23:40.2	357.260	0.220	0.420	-0.070
2020/01/31 17:23:40.3	357.200	0.210	0.480	-0.020
2020/01/31 17:23:40.4	357.150	0.200	0.540	0.030
2020/01/31 17:23:40.5	357.090	0.190	0.600	0.070
2020/01/31 17:23:40.6	357.030	0.180	0.650	0.120
2020/01/31 17:23:40.7	356.970	0.160	0.700	0.170
2020/01/31 17:23:40.8	356.910	0.150	0.740	0.210
2020/01/31 17:23:40.9	356.850	0.130	0.780	0.250
2020/01/31 17:23:41.0	356.790	0.110	0.800	0.290
2020/01/31 17:23:41.1	356.730	0.100	0.820	0.320
2020/01/31 17:23:41.2	356.680	0.080	0.830	0.340
2020/01/31 17:23:41.3	356.620	0.060	0.840	0.360
2020/01/31 17:23:41.4	356.570	0.050	0.830	0.380
2020/01/31 17:23:41.5	356.530	0.030	0.810	0.390
2020/01/31 17:23:41.6	356.490	0.020	0.780	0.390
2020/01/31 17:23:41.7	356.450	0.010	0.750	0.380
2020/01/31 17:23:41.8	356.410	0.000	0.700	0.370
2020/01/31 17:23:41.9	356.390	-0.000	0.640	0.340
2020/01/31 17:23:42.0	356.370	-0.010	0.580	0.310
2020/01/31 17:23:42.1	356.350	-0.010	0.500	0.280
2020/01/31 17:23:42.2	356.340	-0.010	0.420	0.240
2020/01/31 17:23:42.3	356.340	-0.010	0.320	0.190
2020/01/31 17:23:42.4	356.340	-0.000	0.220	0.130
2020/01/31 17:23:42.5	356.350	0.010	0.110	0.070
2020/01/31 17:23:42.6	356.360	0.020	0.000	0.010
2020/01/31 17:23:42.7	356.380	0.030	-0.120	-0.060
2020/01/31 17:23:42.8	356.400	0.040	-0.230	-0.130
2020/01/31 17:23:42.9	356.430	0.060	-0.360	-0.200
2020/01/31 17:23:43.0	356.460	0.080	-0.480	-0.270
2020/01/31 17:23:43.1	356.500	0.090	-0.610	-0.350
2020/01/31 17:23:43.2	356.540	0.110	-0.730	-0.430
2020/01/31 17:23:43.3	356.580	0.130	-0.850	-0.500
2020/01/31 17:23:43.4	356.620	0.150	-0.970	-0.580
2020/01/31 17:23:43.5	356.670	0.170	-1.080	-0.660
2020/01/31 17:23:43.6	356.720	0.190	-1.190	-0.730
2020/01/31 17:23:43.7	356.780	0.200	-1.290	-0.800
2020/01/31 17:23:43.8	356.840	0.220	-1.390	-0.870
2020/01/31 17:23:43.9	356.890	0.230	-1.470	-0.940
2020/01/31 17:23:44.0	356.950	0.250	-1.550	-1.010
2020/01/31 17:23:44.1	357.010	0.260	-1.610	-1.080
2020/01/31 17:23:44.2	357.070	0.270	-1.670	-1.140
2020/01/31 17:23:44.3	357.130	0.270	-1.710	-1.200
2020/01/31 17:23:44.4	357.190	0.280	-1.750	-1.250
2020/01/31 17:23:44.5	357.250	0.280	-1.770	-1.310
2020/01/31 17:23:44.6	357.310	0.280	-1.790	-1.350
2020/01/31 17:23:44.7	357.370	0.270	-1.790	-1.400
2020/01/31 17:23:44.8	357.430	0.260	-1.780	-1.440
2020/01/31 17:23:44.9	357.480	0.250	-1.760	-1.470
2020/01/31 17:23:45.0	357.540	0.240	-1.740	-1.500
2020/01/31 17:23:45.1	357.590	0.220	-1.700	-1.520
2020/01/31 17:23:45.2	357.650	0.210	-1.660	-1.540
2020/01/31 17:23:45.3	357.700	0.190	-1.600	-1.560
2020/01/31 17:23:45.4	357.750	0.160	-1.540	-1.570
2020/01/31 17:23:45.5	357.800	0.140	-1.480	-1.570
2020/01/31 17:23:45.6	357.840	0.110	-1.400	-1.570
2020/01/31 17:23:45.7	357.880	0.090	-1.320	-1.560
2020/01/31 17:23:45.8	357.920	0.060	-1.240	-1.540
2020/01/31 17:23:45.9	357.960	0.030	-1.160	-1.530
2020/01/31 17:23:46.0	357.990	-0.010	-1.060	-1.500
2020/01/31 17:23:46.1	358.020	-0.040	-0.970	-1.480
2020/01/31 17:23:46.2	358.050	-0.070	-0.870	-1.440
2020/01/31 17:23:46.3	358.070	-0.110	-0.770	-1.410
2020/01/31 17:23:46.4	358.090	-0.140	-0.670	-1.370
2020/01/31 17:23:46.5	358.110	-0.180	-0.570	-1.330
2020/01/31 17:23:46.6	358.120	-0.220	-0.460	-1.280
2020/01/31 17:23:46.7	358.120	-0.250	-0.360	-1.230
2020/01/31 17:23:46.8	358.130	-0.290	-0.260	-1.170
2020/01/31 17:23:46.9	358.130	-0.330	-0.160	-1.120
2020/01/31 17:23:47.0	358.130	-0.360	-0.050	-1.060
2020/01/31 17:23:47.1	358.120	-0.390	0.040	-1.000
2020/01/31 17:23:47.2	358.100	-0.430	0.140	-0.940
2020/01/31 17:23:47.3	358.090	-0.460	0.230	-0.880
2020/01/31 17:23:47.4	358.070	-0.480	0.320	-0.820
2020/01/31 17:23:47.5	358.040	-0.510	0.400	-0.760
2020/01/31 17:23:47.6	358.020	-0.530	0.480	-0.700
2020/01/31 17:23:47.7	357.990	-0.550	0.560	-0.640
2020/01/31 17:23:47.8	357.960	-0.570	0.630	-0.570
2020/01/31 17:23:47.9	357.920	-0.580	0.690	-0.510
2020/01/31 17:23:48.0	357.890	-0.590	0.740	-0.450
2020/01/31 17:23:48.1	357.850	-0.600	0.790	-0.390
2020/01/31 17:23:48.2	357.810	-0.600	0.840	-0.330
2020/01/31 17:23:48.3	357.770	-0.590	0.870	-0.270
2020/01/31 17:23:48.4	357.730	-0.590	0.900	-0.200
2020/01/31 17:23:48.5	357.690	-0.580	0.920	-0.150
2020/01/31 17:23:48.6	357.640	-0.560	0.940	-0.090
2020/01/31 17:23:48.7	357.600	-0.540	0.950	-0.030
2020/01/31 17:23:48.8	357.540	-0.520	0.950	0.030
2020/01/31 17:23:48.9	357.490	-0.490	0.940	0.090
2020/01/31 17:23:49.0	357.450	-0.460	0.930	0.150
2020/01/31 17:23:49.1	357.400	-0.430	0.920	0.200
2020/01/31 17:23:49.2	357.350	-0.390	0.890	0.250
2020/01/31 17:23:49.3	357.300	-0.350	0.870	0.300
2020/01/31 17:23:49.4	357.250	-0.310	0.830	0.350
2020/01/31 17:23:49.5	357.200	-0.260	0.800	0.400
2020/01/31 17:23:49.6	357.150	-0.210	0.750	0.440
2020/01/31 17:23:49.7	357.110	-0.160	0.700	0.480
2020/01/31 17:23:49.8	357.060	-0.110	0.650	0.510
2020/01/31 17:23:49.9	357.010	-0.060	0.600	0.540
2020/01/31 17:23:50.0	356.970	-0.000	0.540	0.560
2020/01/31 17:23:50.1	356.930	0.050	0.470	0.580
2020/01/31 17:23:50.2	356.890	0.110	0.400	0.600
2020/01/31 17:23:50.3	356.850	0.170	0.330	0.610
2020/01/31 17:23:50.4	356.820	0.220	0.260	0.610
2020/01/31 17:23:50.5	356.790	0.280	0.180	0.610
2020/01/31 17:23:50.6	356.760	0.330	0.110	0.600
2020/01/31 17:23:50.7	356.730	0.380	0.030	0.590
2020/01/31 17:23:50.8	356.700	0.430	-0.050	0.580
2020/01/31 17:23:50.9	356.680	0.480	-0.130	0.560
2020/01/31 17:23:51.0	356.670	0.530	-0.210	0.530
2020/01/31 17:23:51.1	356.660	0.570	-0.280	0.510
2020/01/31 17:23:51.2	356.650	0.610	-0.360	0.480
2020/01/31 17:23:51.3	356.640	0.650	-0.430	0.450
2020/01/31 17:23:51.4	356.640	0.680	-0.500	0.420
2020/01/31 17:23:51.5	356.640	0.700	-0.560	0.380
2020/01/31 17:23:51.6	356.640	0.730	-0.630	0.340
2020/01/31 17:23:51.7	356.650	0.750	-0.690	0.310
2020/01/31 17:23:51.8	356.660	0.760	-0.740	0.270
2020/01/31 17:23:51.9	356.670	0.770	-0.780	0.230
2020/01/31 17:23:52.0	356.680	0.770	-0.830	0.190
2020/01/31 17:23:52.1	356.690	0.770	-0.870	0.150
2020/01/31 17:23:52.2	356.710	0.760	-0.900	0.110
2020/01/31 17:23:52.3	356.720	0.750	-0.930	0.070
2020/01/31 17:23:52.4	356.740	0.730	-0.950	0.020
2020/01/31 17:23:52.5	356.760	0.710	-0.960	-0.020
2020/01/31 17:23:52.6	356.770	0.680	-0.970	-0.060
2020/01/31 17:23:52.7	356.790	0.640	-0.970	-0.100
2020/01/31 17:23:52.8	356.820	0.600	-0.970	-0.140
2020/01/31 17:23:52.9	356.840	0.560	-0.950	-0.190
2020/01/31 17:23:53.0	356.850	0.510	-0.930	-0.230
2020/01/31 17:23:53.1	356.870	0.460	-0.910	-0.270
2020/01/31 17:23:53.2	356.890	0.400	-0.880	-0.310
2020/01/31 17:23:53.3	356.900	0.350	-0.840	-0.360
2020/01/31 17:23:53.4	356.920	0.290	-0.800	-0.400
2020/01/31 17:23:53.5	356.940	0.220	-0.750	-0.440
2020/01/31 17:23:53.6	356.950	0.160	-0.700	-0.470
2020/01/31 17:23:53.7	356.970	0.100	-0.650	-0.510
2020/01/31 17:23:53.8	356.980	0.030	-0.590	-0.550
2020/01/31 17:23:53.9	357.000	-0.030	-0.530	-0.580
2020/01/31 17:23:54.0	357.010	-0.090	-0.480	-0.620
2020/01/31 17:23:54.1	357.030	-0.150	-0.420	-0.650
2020/01/31 17:23:54.2	357.050	-0.210	-0.360	-0.680
2020/01/31 17:23:54.3	357.070	-0.270	-0.310	-0.710
2020/01/31 17:23:54.4	357.090	-0.320	-0.260	-0.740
2020/01/31 17:23:54.5	357.110	-0.370	-0.210	-0.770
2020/01/31 17:23:54.6	357.130	-0.410	-0.160	-0.800
2020/01/31 17:23:54.7	357.150	-0.450	-0.120	-0.830
2020/01/31 17:23:54.8	357.170	-0.490	-0.080	-0.850
2020/01/31 17:23:54.9	357.190	-0.520	-0.040	-0.870
2020/01/31 17:23:55.0	357.210	-0.550	-0.010	-0.890
2020/01/31 17:23:55.1	357.220	-0.580	0.010	-0.910
2020/01/31 17:23:55.2	357.240	-0.600	0.040	-0.920
2020/01/31 17:23:55.3	357.260	-0.610	0.050	-0.940
2020/01/31 17:23:55.4	357.270	-0.630	0.070	-0.950
2020/01/31 17:23:55.5	357.290	-0.630	0.080	-0.960
2020/01/31 17:23:55.6	357.300	-0.640	0.080	-0.980
2020/01/31 17:23:55.7	357.310	-0.640	0.070	-0.990
2020/01/31 17:23:55.8	357.330	-0.640	0.070	-0.990
2020/01/31 17:23:55.9	357.340	-0.630	0.060	-1.010
2020/01/31 17:23:56.0	357.350	-0.630	0.040	-1.020
2020/01/31 17:23:56.1	357.360	-0.620	0.020	-1.030
2020/01/31 17:23:56.2	357.380	-0.600	-0.000	-1.040
2020/01/31 17:23:56.3	357.390	-0.590	-0.030	-1.050
2020/01/31 17:23:56.4	357.400	-0.570	-0.060	-1.060
2020/01/31 17:23:56.5	357.410	-0.550	-0.090	-1.070
2020/01/31 17:23:56.6	357.420	-0.530	-0.130	-1.080
2020/01/31 17:23:56.7	357.430	-0.510	-0.160	-1.090
2020/01/31 17:23:56.8	357.450	-0.490	-0.200	-1.100
2020/01/31 17:23:56.9	357.460	-0.470	-0.240	-1.100
2020/01/31 17:23:57.0	357.470	-0.440	-0.280	-1.110
2020/01/31 17:23:57.1	357.480	-0.420	-0.320	-1.110
2020/01/31 17:23:57.2	357.490	-0.390	-0.350	-1.120
2020/01/31 17:23:57.3	357.500	-0.370	-0.390	-1.120
2020/01/31 17:23:57.4	357.510	-0.340	-0.420	-1.110
2020/01/31 17:23:57.5	357.520	-0.320	-0.460	-1.110
2020/01/31 17:23:57.6	357.530	-0.290	-0.490	-1.100
2020/01/31 17:23:57.7	357.530	-0.270	-0.510	-1.090
2020/01/31 17:23:57.8	357.550	-0.250	-0.530	-1.070
2020/01/31 17:23:57.9	357.550	-0.220	-0.550	-1.050
2020/01/31 17:23:58.0	357.540	-0.200	-0.570	-1.020
2020/01/31 17:23:58.1	357.540	-0.180	-0.580	-1.000
2020/01/31 17:23:58.2	357.530	-0.170	-0.590	-0.970
2020/01/31 17:23:58.3	357.520	-0.150	-0.590	-0.940
2020/01/31 17:23:58.4	357.510	-0.130	-0.590	-0.910
2020/01/31 17:23:58.5	357.500	-0.110	-0.580	-0.870
2020/01/31 17:23:58.6	357.490	-0.100	-0.570	-0.840
2020/01/31 17:23:58.7	357.470	-0.080	-0.560	-0.800
2020/01/31 17:23:58.8	357.440	-0.070	-0.540	-0.750
2020/01/31 17:23:58.9	357.420	-0.050	-0.510	-0.710
2020/01/31 17:23:59.0	357.400	-0.040	-0.490	-0.670
2020/01/31 17:23:59.1	357.380	-0.030	-0.460	-0.620
2020/01/31 17:23:59.2	357.360	-0.010	-0.440	-0.580
2020/01/31 17:23:59.3	357.330	-0.000	-0.400	-0.530
2020/01/31 17:23:59.4	357.310	0.010	-0.370	-0.490
2020/01/31 17:23:59.5	357.290	0.030	-0.340	-0.440
2020/01/31 17:23:59.6	357.260	0.040	-0.310	-0.400
2020/01/31 17:23:59.7	357.240	0.060	-0.280	-0.350
2020/01/31 17:23:59.8	357.230	0.080	-0.250	-0.300
2020/01/31 17:23:59.9	357.210	0.090	-0.220	-0.250
2020/01/31 17:24:00.0	357.190	0.110	-0.190	-0.210
2020/01/31 17:24:00.1	357.170	0.140	-0.170	-0.160
2020/01/31 17:24:00.2	357.150	0.160	-0.150	-0.120
2020/01/31 17:24:00.3	357.130	0.180	-0.130	-0.070
2020/01/31 17:24:00.4	357.120	0.210	-0.110	-0.020
2020/01/31 17:24:00.5	357.100	0.230	-0.090	0.020
2020/01/31 17:24:00.6	357.080	0.260	-0.080	0.070
2020/01/31 17:24:00.7	357.070	0.290	-0.070	0.110
2020/01/31 17:24:00.8	357.040	0.320	-0.070	0.160
2020/01/31 17:24:00.9	357.030	0.350	-0.060	0.200
2020/01/31 17:24:01.0	357.020	0.380	-0.060	0.240
2020/01/31 17:24:01.1	357.000	0.410	-0.060	0.280
2020/01/31 17:24:01.2	356.990	0.440	-0.060	0.320
2020/01/31 17:24:01.3	356.980	0.470	-0.060	0.350
2020/01/31 17:24:01.4	356.970	0.500	-0.060	0.390
2020/01/31 17:24:01.5	356.960	0.530	-0.060	0.420
2020/01/31 17:24:01.6	356.940	0.550	-0.070	0.450
2020/01/31 17:24:01.7	356.940	0.580	-0.070	0.480
2020/01/31 17:24:01.8	356.910	0.600	-0.080	0.500
2020/01/31 17:24:01.9	356.900	0.620	-0.090	0.520
2020/01/31 17:24:02.0	356.890	0.630	-0.090	0.530
2020/01/31 17:24:02.1	356.880	0.650	-0.100	0.540
2020/01/31 17:24:02.2	356.880	0.660	-0.110	0.550
2020/01/31 17:24:02.3	356.870	0.660	-0.120	0.550
2020/01/31 17:24:02.4	356.870	0.660	-0.130	0.540
2020/01/31 17:24:02.5	356.870	0.660	-0.130	0.530
2020/01/31 17:24:02.6	356.870	0.660	-0.140	0.520
2020/01/31 17:24:02.7	356.870	0.650	-0.150	0.490
2020/01/31 17:24:02.8	356.880	0.630	-0.160	0.470
2020/01/31 17:24:02.9	356.880	0.610	-0.160	0.430
2020/01/31 17:24:03.0	356.890	0.590	-0.170	0.390
2020/01/31 17:24:03.1	356.900	0.560	-0.180	0.350
2020/01/31 17:24:03.2	356.910	0.530	-0.180	0.300
2020/01/31 17:24:03.3	356.920	0.500	-0.190	0.250
2020/01/31 17:24:03.4	356.940	0.460	-0.200	0.200
2020/01/31 17:24:03.5	356.960	0.420	-0.200	0.140
2020/01/31 17:24:03.6	356.980	0.380	-0.210	0.080
2020/01/31 17:24:03.7	357.000	0.330	-0.210	0.030
2020/01/31 17:24:03.8	357.020	0.280	-0.210	-0.040
2020/01/31 17:24:03.9	357.040	0.230	-0.210	-0.100
2020/01/31 17:24:04.0	357.060	0.180	-0.220	-0.160
2020/01/31 17:24:04.1	357.080	0.120	-0.220	-0.220
2020/01/31 17:24:04.2	357.100	0.070	-0.210	-0.280
2020/01/31 17:24:04.3	357.130	0.010	-0.210	-0.350
2020/01/31 17:24:04.4	357.150	-0.050	-0.210	-0.410
2020/01/31 17:24:04.5	357.170	-0.100	-0.210	-0.470
2020/01/31 17:24:04.6	357.190	-0.160	-0.200	-0.520
2020/01/31 17:24:04.7	357.210	-0.220	-0.200	-0.580
2020/01/31 17:24:04.8	357.230	-0.270	-0.190	-0.630
2020/01/31 17:24:04.9	357.250	-0.320	-0.180	-0.680
2020/01/31 17:24:05.0	357.260	-0.380	-0.170	-0.730
2020/01/31 17:24:05.1	357.280	-0.420	-0.160	-0.780
2020/01/31 17:24:05.2	357.290	-0.470	-0.150	-0.820
2020/01/31 17:24:05.3	357.300	-0.520	-0.140	-0.860
2020/01/31 17:24:05.4	357.300	-0.560	-0.130	-0.890
2020/01/31 17:24:05.5	357.310	-0.590	-0.120	-0.920
2020/01/31 17:24:05.6	357.310	-0.630	-0.110	-0.950
2020/01/31 17:24:05.7	357.310	-0.650	-0.090	-0.970
2020/01/31 17:24:05.8	357.310	-0.680	-0.080	-0.990
2020/01/31 17:24:05.9	357.310	-0.700	-0.070	-1.010
2020/01/31 17:24:06.0	357.300	-0.710	-0.060	-1.020
2020/01/31 17:24:06.1	357.300	-0.720	-0.050	-1.020
2020/01/31 17:24:06.2	357.290	-0.730	-0.050	-1.020
2020/01/31 17:24:06.3	357.280	-0.720	-0.040	-1.010
2020/01/31 17:24:06.4	357.270	-0.720	-0.040	-1.010
2020/01/31 17:24:06.5	357.270	-0.700	-0.040	-0.990
2020/01/31 17:24:06.6	357.260	-0.690	-0.050	-0.980
2020/01/31 17:24:06.7	357.250	-0.660	-0.060	-0.960
2020/01/31 17:24:06.8	357.260	-0.630	-0.080	-0.940
2020/01/31 17:24:06.9	357.260	-0.600	-0.100	-0.920
2020/01/31 17:24:07.0	357.260	-0.560	-0.120	-0.900
2020/01/31 17:24:07.1	357.260	-0.520	-0.150	-0.870
2020/01/31 17:24:07.2	357.260	-0.470	-0.180	-0.850
2020/01/31 17:24:07.3	357.260	-0.420	-0.220	-0.830
2020/01/31 17:24:07.4	357.260	-0.360	-0.260	-0.800
2020/01/31 17:24:07.5	357.270	-0.310	-0.300	-0.780
2020/01/31 17:24:07.6	357.280	-0.250	-0.340	-0.750
2020/01/31 17:24:07.7	357.280	-0.180	-0.390	-0.730
2020/01/31 17:24:07.8	357.300	-0.120	-0.430	-0.700
2020/01/31 17:24:07.9	357.310	-0.060	-0.480	-0.680
2020/01/31 17:24:08.0	357.320	0.010	-0.520	-0.650
2020/01/31 17:24:08.1	357.330	0.070	-0.560	-0.630
2020/01/31 17:24:08.2	357.330	0.130	-0.600	-0.600
2020/01/31 17:24:08.3	357.340	0.200	-0.640	-0.570
2020/01/31 17:24:08.4	357.350	0.260	-0.680	-0.540
2020/01/31 17:24:08.5	357.350	0.310	-0.700	-0.510
2020/01/31 17:24:08.6	357.360	0.370	-0.730	-0.480
2020/01/31 17:24:08.7	357.360	0.410	-0.750	-0.450
2020/01/31 17:24:08.8	357.350	0.460	-0.760	-0.420
2020/01/31 17:24:08.9	357.350	0.500	-0.770	-0.380
2020/01/31 17:24:09.0	357.340	0.540	-0.770	-0.340
2020/01/31 17:24:09.1	357.340	0.570	-0.760	-0.310
2020/01/31 17:24:09.2	357.330	0.590	-0.740	-0.270
2020/01/31 17:24:09.3	357.320	0.610	-0.720	-0.230
2020/01/31 17:24:09.4	357.310	0.620	-0.700	-0.200
2020/01/31 17:24:09.5	357.300	0.620	-0.660	-0.160
2020/01/31 17:24:09.6	357.280	0.620	-0.620	-0.120
2020/01/31 17:24:09.7	357.270	0.620	-0.580	-0.090
2020/01/31 17:24:09.8	357.270	0.600	-0.530	-0.050
2020/01/31 17:24:09.9	357.250	0.590	-0.480	-0.020
2020/01/31 17:24:10.0	357.240	0.560	-0.420	0.010
2020/01/31 17:24:10.1	357.230	0.530	-0.360	0.040
2020/01/31 17:24:10.2	357.210	0.500	-0.310	0.070
2020/01/31 17:24:10.3	357.200	0.460	-0.250	0.090
2020/01/31 17:24:10.4	357.190	0.420	-0.190	0.110
2020/01/31 17:24:10.5	357.180	0.370	-0.130	0.120
2020/01/31 17:24:10.6	357.180	0.320	-0.080	0.130
2020/01/31 17:24:10.7	357.170	0.270	-0.030	0.130
2020/01/31 17:24:10.8	357.160	0.220	0.020	0.140
2020/01/31 17:24:10.9	357.160	0.170	0.060	0.130
2020/01/31 17:24:11.0	357.170	0.120	0.100	0.120
2020/01/31 17:24:11.1	357.170	0.060	0.130	0.110
2020/01/31 17:24:11.2	357.180	0.010	0.150	0.080
2020/01/31 17:24:11.3	357.200	-0.040	0.170	0.060
2020/01/31 17:24:11.4	357.220	-0.090	0.180	0.030
2020/01/31 17:24:11.5	357.240	-0.130	0.190	-0.010
2020/01/31 17:24:11.6	357.260	-0.170	0.180	-0.040
2020/01/31 17:24:11.7	357.280	-0.210	0.170	-0.090
2020/01/31 17:24:11.8	357.300	-0.250	0.160	-0.130
2020/01/31 17:24:11.9	357.330	-0.280	0.140	-0.170
2020/01/31 17:24:12.0	357.350	-0.310	0.110	-0.220
2020/01/31 17:24:12.1	357.380	-0.340	0.080	-0.270
2020/01/31 17:24:12.2	357.400	-0.360	0.050	-0.310
2020/01/31 17:24:12.3	357.430	-0.370	0.010	-0.360
2020/01/31 17:24:12.4	357.450	-0.390	-0.030	-0.400
2020/01/31 17:24:12.5	357.470	-0.390	-0.070	-0.450
2020/01/31 17:24:12.6	357.490	-0.400	-0.110	-0.490
2020/01/31 17:24:12.7	357.510	-0.400	-0.150	-0.530
2020/01/31 17:24:12.8	357.540	-0.400	-0.200	-0.580
2020/01/31 17:24:12.9	357.560	-0.390	-0.240	-0.620
2020/01/31 17:24:13.0	357.570	-0.390	-0.280	-0.660
2020/01/31 17:24:13.1	357.590	-0.370	-0.320	-0.690
2020/01/31 17:24:13.2	357.600	-0.360	-0.360	-0.730
2020/01/31 17:24:13.3	357.610	-0.350	-0.390	-0.760
2020/01/31 17:24:13.4	357.620	-0.330	-0.420	-0.790
2020/01/31 17:24:13.5	357.630	-0.310	-0.450	-0.820
2020/01/31 17:24:13.6	357.640	-0.290	-0.480	-0.850
2020/01/31 17:24:13.7	357.650	-0.270	-0.500	-0.870
2020/01/31 17:24:13.8	357.660	-0.250	-0.520	-0.890
2020/01/31 17:24:13.9	357.660	-0.230	-0.530	-0.910
2020/01/31 17:24:14.0	357.660	-0.210	-0.540	-0.920
2020/01/31 17:24:14.1	357.660	-0.190	-0.540	-0.930
2020/01/31 17:24:14.2	357.670	-0.170	-0.540	-0.940
2020/01/31 17:24:14.3	357.670	-0.150	-0.530	-0.940
2020/01/31 17:24:14.4	357.660	-0.130	-0.520	-0.940
2020/01/31 17:24:14.5	357.660	-0.110	-0.500	-0.940
2020/01/31 17:24:14.6	357.660	-0.100	-0.490	-0.930
2020/01/31 17:24:14.7	357.660	-0.080	-0.470	-0.920
2020/01/31 17:24:14.8	357.660	-0.070	-0.440	-0.900
2020/01/31 17:24:14.9	357.650	-0.050	-0.410	-0.890
2020/01/31 17:24:15.0	357.650	-0.040	-0.380	-0.860
2020/01/31 17:24:15.1	357.640	-0.030	-0.350	-0.840
2020/01/31 17:24:15.2	357.630	-0.020	-0.320	-0.810
2020/01/31 17:24:15.3	357.620	-0.010	-0.280	-0.780
2020/01/31 17:24:15.4	357.610	0.000	-0.250	-0.750
2020/01/31 17:24:15.5	357.600	0.010	-0.210	-0.720
2020/01/31 17:24:15.6	357.590	0.020	-0.180	-0.680
2020/01/31 17:24:15.7	357.580	0.030	-0.140	-0.650
2020/01/31 17:24:15.8	357.570	0.030	-0.110	-0.600
2020/01/31 17:24:15.9	357.560	0.040	-0.080	-0.570
2020/01/31 17:24:16.0	357.550	0.050	-0.060	-0.530
2020/01/31 17:24:16.1	357.540	0.050	-0.030	-0.490
2020/01/31 17:24:16.2	357.530	0.060	-0.010	-0.450
2020/01/31 17:24:16.3	357.520	0.070	0.010	-0.410
2020/01/31 17:24:16.4	357.510	0.070	0.020	-0.370
2020/01/31 17:24:16.5	357.500	0.080	0.030	-0.330
2020/01/31 17:24:16.6	357.490	0.090	0.040	-0.300
2020/01/31 17:24:16.7	357.480	0.100	0.050	-0.260
2020/01/31 17:24:16.8	357.470	0.100	0.050	-0.220
2020/01/31 17:24:16.9	357.460	0.110	0.040	-0.190
2020/01/31 17:24:17.0	357.460	0.130	0.030	-0.160
2020/01/31 17:24:17.1	357.450	0.140	0.020	-0.130
2020/01/31 17:24:17.2	357.450	0.150	0.010	-0.110
2020/01/31 17:24:17.3	357.450	0.160	-0.010	-0.080
2020/01/31 17:24:17.4	357.450	0.170	-0.030	-0.060
2020/01/31 17:24:17.5	357.460	0.190	-0.050	-0.050
2020/01/31 17:24:17.6	357.460	0.200	-0.080	-0.040
2020/01/31 17:24:17.7	357.470	0.220	-0.110	-0.030
2020/01/31 17:24:17.8	357.470	0.230	-0.130	-0.020
2020/01/31 17:24:17.9	357.480	0.250	-0.160	-0.020
2020/01/31 17:24:18.0	357.490	0.260	-0.190	-0.020
2020/01/31 17:24:18.1	357.510	0.280	-0.210	-0.020
2020/01/31 17:24:18.2	357.520	0.300	-0.240	-0.030
2020/01/31 17:24:18.3	357.540	0.310	-0.260	-0.040
2020/01/31 17:24:18.4	357.550	0.330	-0.280	-0.050
2020/01/31 17:24:18.5	357.570	0.350	-0.300	-0.060
2020/01/31 17:24:18.6	357.590	0.360	-0.320	-0.070
2020/01/31 17:24:18.7	357.620	0.380	-0.340	-0.090
2020/01/31 17:24:18.8	357.630	0.390	-0.350	-0.100
2020/01/31 17:24:18.9	357.650	0.410	-0.360	-0.110
2020/01/31 17:24:19.0	357.670	0.420	-0.360	-0.110
2020/01/31 17:24:19.1	357.690	0.430	-0.370	-0.120
2020/01/31 17:24:19.2	357.710	0.440	-0.370	-0.120
2020/01/31 17:24:19.3	357.730	0.450	-0.360	-0.120
2020/01/31 17:24:19.4	357.750	0.450	-0.360	-0.120
2020/01/31 17:24:19.5	357.770	0.450	-0.350	-0.120
2020/01/31 17:24:19.6	357.780	0.450	-0.340	-0.110
2020/01/31 17:24:19.7	357.800	0.450	-0.330	-0.100
2020/01/31 17:24:19.8	357.810	0.440	-0.310	-0.090
2020/01/31 17:24:19.9	357.820	0.440	-0.290	-0.090
2020/01/31 17:24:20.0	357.820	0.420	-0.280	-0.080
2020/01/31 17:24:20.1	357.820	0.410	-0.260	-0.070
2020/01/31 17:24:20.2	357.820	0.390	-0.240	-0.060
2020/01/31 17:24:20.3	357.820	0.370	-0.220	-0.050
2020/01/31 17:24:20.4	357.810	0.340	-0.200	-0.040
2020/01/31 17:24:20.5	357.800	0.310	-0.180	-0.040
2020/01/31 17:24:20.6	357.780	0.280	-0.160	-0.040
2020/01/31 17:24:20.7	357.770	0.240	-0.150	-0.040
2020/01/31 17:24:20.8	357.760	0.210	-0.140	-0.040
2020/01/31 17:24:20.9	357.740	0.170	-0.120	-0.040
2020/01/31 17:24:21.0	357.710	0.120	-0.110	-0.060
2020/01/31 17:24:21.1	357.690	0.080	-0.110	-0.070
2020/01/31 17:24:21.2	357.670	0.030	-0.100	-0.090
2020/01/31 17:24:21.3	357.640	-0.010	-0.100	-0.110
2020/01/31 17:24:21.4	357.620	-0.060	-0.100	-0.140
2020/01/31 17:24:21.5	357.600	-0.100	-0.110	-0.170
2020/01/31 17:24:21.6	357.580	-0.150	-0.110	-0.200
2020/01/31 17:24:21.7	357.560	-0.190	-0.130	-0.240
2020/01/31 17:24:21.8	357.550	-0.240	-0.140	-0.280
2020/01/31 17:24:21.9	357.530	-0.280	-0.150	-0.330
2020/01/31 17:24:22.0	357.520	-0.320	-0.170	-0.370
2020/01/31 17:24:22.1	357.510	-0.360	-0.200	-0.420
2020/01/31 17:24:22.2	357.500	-0.390	-0.230	-0.480
2020/01/31 17:24:22.3	357.500	-0.420	-0.260	-0.530
2020/01/31 17:24:22.4	357.500	-0.450	-0.290	-0.590
2020/01/31 17:24:22.5	357.500	-0.470	-0.320	-0.650
2020/01/31 17:24:22.6	357.510	-0.490	-0.360	-0.710
2020/01/31 17:24:22.7	357.520	-0.500	-0.390	-0.770
2020/01/31 17:24:22.8	357.530	-0.510	-0.430	-0.830
2020/01/31 17:24:22.9	357.540	-0.510	-0.470	-0.890
2020/01/31 17:24:23.0	357.560	-0.510	-0.500	-0.950
2020/01/31 17:24:23.1	357.570	-0.510	-0.540	-1.000
2020/01/31 17:24:23.2	357.590	-0.500	-0.570	-1.050
2020/01/31 17:24:23.3	357.610	-0.490	-0.600	-1.100
2020/01/31 17:24:23.4	357.630	-0.470	-0.630	-1.150
2020/01/31 17:24:23.5	357.660	-0.450	-0.650	-1.190
2020/01/31 17:24:23.6	357.680	-0.430	-0.680	-1.230
2020/01/31 17:24:23.7	357.700	-0.400	-0.690	-1.270
2020/01/31 17:24:23.8	357.720	-0.370	-0.710	-1.300
2020/01/31 17:24:23.9	357.740	-0.340	-0.720	-1.330
2020/01/31 17:24:24.0	357.760	-0.310	-0.720	-1.350
2020/01/31 17:24:24.1	357.780	-0.280	-0.720	-1.380
2020/01/31 17:24:24.2	357.800	-0.250	-0.720	-1.390
2020/01/31 17:24:24.3	357.820	-0.220	-0.710	-1.400
2020/01/31 17:24:24.4	357.840	-0.190	-0.700	-1.410
2020/01/31 17:24:24.5	357.850	-0.160	-0.690	-1.410
2020/01/31 17:24:24.6	357.870	-0.130	-0.670	-1.400
2020/01/31 17:24:24.7	357.880	-0.100	-0.640	-1.390
2020/01/31 17:24:24.8	357.880	-0.070	-0.620	-1.380
2020/01/31 17:24:24.9	357.890	-0.050	-0.590	-1.360
2020/01/31 17:24:25.0	357.900	-0.030	-0.550	-1.330
2020/01/31 17:24:25.1	357.900	-0.010	-0.520	-1.310
2020/01/31 17:24:25.2	357.910	0.000	-0.480	-1.280
2020/01/31 17:24:25.3	357.910	0.020	-0.440	-1.250
2020/01/31 17:24:25.4	357.900	0.030	-0.400	-1.210
2020/01/31 17:24:25.5	357.900	0.040	-0.360	-1.170
2020/01/31 17:24:25.6	357.900	0.040	-0.310	-1.130
2020/01/31 17:24:25.7	357.890	0.040	-0.270	-1.080
2020/01/31 17:24:25.8	357.880	0.040	-0.220	-1.030
2020/01/31 17:24:25.9	357.870	0.040	-0.180	-0.980
2020/01/31 17:24:26.0	357.860	0.030	-0.140	-0.930
2020/01/31 17:24:26.1	357.850	0.030	-0.100	-0.870
2020/01/31 17:24:26.2	357.830	0.020	-0.060	-0.820
2020/01/31 17:24:26.3	357.820	0.010	-0.020	-0.760
2020/01/31 17:24:26.4	357.810	-0.000	0.020	-0.700
2020/01/31 17:24:26.5	357.790	-0.010	0.050	-0.650
2020/01/31 17:24:26.6	357.780	-0.030	0.080	-0.590
2020/01/31 17:24:26.7	357.760	-0.040	0.110	-0.530
2020/01/31 17:24:26.8	357.750	-0.050	0.140	-0.470
2020/01/31 17:24:26.9	357.740	-0.070	0.160	-0.420
2020/01/31 17:24:27.0	357.730	-0.080	0.180	-0.370
2020/01/31 17:24:27.1	357.720	-0.090	0.190	-0.320
2020/01/31 17:24:27.2	357.710	-0.100	0.200	-0.270
2020/01/31 17:24:27.3	357.700	-0.110	0.210	-0.230
2020/01/31 17:24:27.4	357.700	-0.120	0.220	-0.190
2020/01/31 17:24:27.5	357.690	-0.120	0.220	-0.150
2020/01/31 17:24:27.6	357.690	-0.120	0.210	-0.110
2020/01/31 17:24:27.7	357.690	-0.130	0.200	-0.080
2020/01/31 17:24:27.8	357.700	-0.120	0.190	-0.050
2020/01/31 17:24:27.9	357.700	-0.120	0.180	-0.030
2020/01/31 17:24:28.0	357.700	-0.120	0.160	-0.010
2020/01/31 17:24:28.1	357.710	-0.110	0.140	0.000
2020/01/31 17:24:28.2	357.710	-0.100	0.110	0.010
2020/01/31 17:24:28.3	357.720	-0.090	0.090	0.020
2020/01/31 17:24:28.4	357.720	-0.070	0.060	0.030
2020/01/31 17:24:28.5	357.730	-0.050	0.030	0.030
2020/01/31 17:24:28.6	357.740	-0.040	-0.000	0.030
2020/01/31 17:24:28.7	357.740	-0.020	-0.040	0.020
2020/01/31 17:24:28.8	357.750	0.000	-0.060	0.020
2020/01/31 17:24:28.9	357.750	0.030	-0.100	0.010
2020/01/31 17:24:29.0	357.760	0.050	-0.130	0.000
2020/01/31 17:24:29.1	357.770	0.070	-0.170	-0.010
2020/01/31 17:24:29.2	357.780	0.100	-0.200	-0.020
2020/01/31 17:24:29.3	357.790	0.130	-0.240	-0.030
2020/01/31 17:24:29.4	357.800	0.150	-0.270	-0.050
2020/01/31 17:24:29.5	357.810	0.180	-0.300	-0.060
2020/01/31 17:24:29.6	357.820	0.210	-0.330	-0.080
2020/01/31 17:24:29.7	357.830	0.230	-0.360	-0.090
2020/01/31 17:24:29.8	357.850	0.260	-0.380	-0.110
2020/01/31 17:24:29.9	357.860	0.280	-0.410	-0.130
2020/01/31 17:24:30.0	357.870	0.310	-0.430	-0.140
2020/01/31 17:24:30.1	357.880	0.330	-0.450	-0.160
2020/01/31 17:24:30.2	357.900	0.350	-0.470	-0.170
2020/01/31 17:24:30.3	357.910	0.370	-0.490	-0.180
2020/01/31 17:24:30.4	357.920	0.390	-0.500	-0.190
2020/01/31 17:24:30.5	357.930	0.410	-0.510	-0.200
2020/01/31 17:24:30.6	357.930	0.420	-0.520	-0.210
2020/01/31 17:24:30.7	357.940	0.430	-0.530	-0.220
2020/01/31 17:24:30.8	357.940	0.440	-0.530	-0.230
2020/01/31 17:24:30.9	357.940	0.450	-0.530	-0.230
2020/01/31 17:24:31.0	357.940	0.450	-0.530	-0.240
2020/01/31 17:24:31.1	357.930	0.450	-0.520	-0.250
2020/01/31 17:24:31.2	357.930	0.450	-0.510	-0.260
2020/01/31 17:24:31.3	357.920	0.450	-0.500	-0.270
2020/01/31 17:24:31.4	357.910	0.440	-0.480	-0.280
2020/01/31 17:24:31.5	357.890	0.430	-0.460	-0.290
2020/01/31 17:24:31.6	357.880	0.420	-0.440	-0.300
2020/01/31 17:24:31.7	357.860	0.410	-0.420	-0.300
2020/01/31 17:24:31.8	357.850	0.390	-0.390	-0.310
2020/01/31 17:24:31.9	357.830	0.370	-0.370	-0.310
2020/01/31 17:24:32.0	357.800	0.350	-0.330	-0.320
2020/01/31 17:24:32.1	357.770	0.330	-0.300	-0.320
2020/01/31 17:24:32.2	357.750	0.310	-0.270	-0.320
2020/01/31 17:24:32.3	357.720	0.280	-0.230	-0.320
2020/01/31 17:24:32.4	357.690	0.260	-0.190	-0.320
2020/01/31 17:24:32.5	357.660	0.230	-0.160	-0.320
2020/01/31 17:24:32.6	357.630	0.200	-0.120	-0.320
2020/01/31 17:24:32.7	357.610	0.180	-0.080	-0.310
2020/01/31 17:24:32.8	357.590	0.150	-0.040	-0.300
2020/01/31 17:24:32.9	357.560	0.120	-0.010	-0.300
2020/01/31 17:24:33.0	357.540	0.090	0.030	-0.290
2020/01/31 17:24:33.1	357.520	0.060	0.060	-0.280
2020/01/31 17:24:33.2	357.490	0.030	0.090	-0.270
2020/01/31 17:24:33.3	357.470	0.000	0.110	-0.270
2020/01/31 17:24:33.4	357.450	-0.020	0.140	-0.260
2020/01/31 17:24:33.5	357.440	-0.050	0.160	-0.250
2020/01/31 17:24:33.6	357.420	-0.080	0.170	-0.250
2020/01/31 17:24:33.7	357.410	-0.100	0.180	-0.240
2020/01/31 17:24:33.8	357.380	-0.120	0.190	-0.240
2020/01/31 17:24:33.9	357.370	-0.150	0.190	-0.240
2020/01/31 17:24:34.0	357.360	-0.170	0.190	-0.240
2020/01/31 17:24:34.1	357.360	-0.180	0.180	-0.250
2020/01/31 17:24:34.2	357.350	-0.200	0.160	-0.260
2020/01/31 17:24:34.3	357.350	-0.210	0.140	-0.270
2020/01/31 17:24:34.4	357.350	-0.230	0.120	-0.280
2020/01/31 17:24:34.5	357.360	-0.240	0.090	-0.300
2020/01/31 17:24:34.6	357.360	-0.240	0.060	-0.310
2020/01/31 17:24:34.7	357.370	-0.250	0.020	-0.330
2020/01/31 17:24:34.8	357.380	-0.250	-0.020	-0.360
2020/01/31 17:24:34.9	357.390	-0.250	-0.060	-0.380
2020/01/31 17:24:35.0	357.410	-0.250	-0.100	-0.400
2020/01/31 17:24:35.1	357.430	-0.250	-0.150	-0.430
2020/01/31 17:24:35.2	357.450	-0.240	-0.200	-0.450
2020/01/31 17:24:35.3	357.470	-0.230	-0.250	-0.470
2020/01/31 17:24:35.4	357.490	-0.230	-0.300	-0.490
2020/01/31 17:24:35.5	357.520	-0.220	-0.350	-0.520
2020/01/31 17:24:35.6	357.540	-0.210	-0.400	-0.540
2020/01/31 17:24:35.7	357.570	-0.200	-0.450	-0.560
2020/01/31 17:24:35.8	357.600	-0.190	-0.500	-0.570
2020/01/31 17:24:35.9	357.620	-0.180	-0.540	-0.590
2020/01/31 17:24:36.0	357.650	-0.170	-0.580	-0.610
2020/01/31 17:24:36.1	357.680	-0.160	-0.620	-0.620
2020/01/31 17:24:36.2	357.710	-0.150	-0.660	-0.640
2020/01/31 17:24:36.3	357.730	-0.140	-0.690	-0.650
2020/01/31 17:24:36.4	357.760	-0.130	-0.710	-0.660
2020/01/31 17:24:36.5	357.780	-0.120	-0.740	-0.670
2020/01/31 17:24:36.6	357.800	-0.120	-0.760	-0.680
2020/01/31 17:24:36.7	357.820	-0.110	-0.770	-0.690
2020/01/31 17:24:36.8	357.850	-0.110	-0.780	-0.690
2020/01/31 17:24:36.9	357.870	-0.110	-0.790	-0.700
2020/01/31 17:24:37.0	357.890	-0.100	-0.790	-0.700
2020/01/31 17:24:37.1	357.900	-0.100	-0.790	-0.700
2020/01/31 17:24:37.2	357.920	-0.100	-0.790	-0.700
2020/01/31 17:24:37.3	357.930	-0.100	-0.780	-0.700
2020/01/31 17:24:37.4	357.940	-0.100	-0.770	-0.700
2020/01/31 17:24:37.5	357.950	-0.110	-0.760	-0.690
2020/01/31 17:24:37.6	357.960	-0.110	-0.750	-0.690
2020/01/31 17:24:37.7	357.970	-0.110	-0.730	-0.680
2020/01/31 17:24:37.8	357.970	-0.110	-0.720	-0.670
2020/01/31 17:24:37.9	357.970	-0.110	-0.700	-0.660
2020/01/31 17:24:38.0	357.980	-0.120	-0.670	-0.650
2020/01/31 17:24:38.1	357.980	-0.120	-0.650	-0.640
2020/01/31 17:24:38.2	357.980	-0.120	-0.630	-0.630
2020/01/31 17:24:38.3	357.990	-0.120	-0.600	-0.610
2020/01/31 17:24:38.4	357.990	-0.120	-0.580	-0.600
2020/01/31 17:24:38.5	357.990	-0.120	-0.550	-0.580
2020/01/31 17:24:38.6	357.990	-0.110	-0.530	-0.570
2020/01/31 17:24:38.7	357.990	-0.110	-0.500	-0.550
2020/01/31 17:24:38.8	358.000	-0.110	-0.480	-0.530
2020/01/31 17:24:38.9	358.010	-0.100	-0.450	-0.510
2020/01/31 17:24:39.0	358.010	-0.100	-0.420	-0.490
2020/01/31 17:24:39.1	358.010	-0.090	-0.400	-0.470
2020/01/31 17:24:39.2	358.010	-0.080	-0.370	-0.450
2020/01/31 17:24:39.3	358.020	-0.070	-0.350	-0.430
2020/01/31 17:24:39.4	358.020	-0.070	-0.320	-0.410
2020/01/31 17:24:39.5	358.030	-0.060	-0.300	-0.400
2020/01/31 17:24:39.6	358.030	-0.050	-0.270	-0.380
2020/01/31 17:24:39.7	358.030	-0.040	-0.250	-0.360
2020/01/31 17:24:39.8	358.030	-0.030	-0.220	-0.340
2020/01/31 17:24:39.9	358.030	-0.020	-0.190	-0.330
2020/01/31 17:24:40.0	358.030	-0.010	-0.160	-0.310
2020/01/31 17:24:40.1	358.020	0.000	-0.130	-0.290
2020/01/31 17:24:40.2	358.020	0.010	-0.110	-0.270
2020/01/31 17:24:40.3	358.010	0.020	-0.080	-0.250
2020/01/31 17:24:40.4	358.000	0.030	-0.050	-0.230
2020/01/31 17:24:40.5	357.990	0.030	-0.020	-0.210
2020/01/31 17:24:40.6	357.980	0.040	0.020	-0.190
2020/01/31 17:24:40.7	357.970	0.050	0.050	-0.170
2020/01/31 17:24:40.8	357.940	0.060	0.080	-0.150
2020/01/31 17:24:40.9	357.930	0.060	0.110	-0.120
2020/01/31 17:24:41.0	357.910	0.070	0.130	-0.100
2020/01/31 17:24:41.1	357.890	0.070	0.160	-0.070
2020/01/31 17:24:41.2	357.870	0.080	0.190	-0.040
2020/01/31 17:24:41.3	357.850	0.080	0.210	-0.020
2020/01/31 17:24:41.4	357.820	0.090	0.240	0.010
2020/01/31 17:24:41.5	357.800	0.090	0.250	0.040
2020/01/31 17:24:41.6	357.780	0.090	0.270	0.070
2020/01/31 17:24:41.7	357.760	0.100	0.280	0.090
2020/01/31 17:24:41.8	357.740	0.100	0.290	0.120
2020/01/31 17:24:41.9	357.720	0.100	0.290	0.140
2020/01/31 17:24:42.0	357.700	0.110	0.290	0.160
2020/01/31 17:24:42.1	357.680	0.110	0.280	0.180
2020/01/31 17:24:42.2	357.660	0.120	0.270	0.200
2020/01/31 17:24:42.3	357.650	0.130	0.250	0.210
2020/01/31 17:24:42.4	357.630	0.130	0.230	0.220
2020/01/31 17:24:42.5	357.620	0.140	0.200	0.230
2020/01/31 17:24:42.6	357.600	0.150	0.170	0.240
2020/01/31 17:24:42.7	357.590	0.160	0.130	0.240
2020/01/31 17:24:42.8	357.580	0.160	0.090	0.240
2020/01/31 17:24:42.9	357.570	0.170	0.040	0.230
2020/01/31 17:24:43.0	357.560	0.180	-0.010	0.220
2020/01/31 17:24:43.1	357.550	0.190	-0.060	0.210
2020/01/31 17:24:43.2	357.540	0.200	-0.110	0.200
2020/01/31 17:24:43.3	357.530	0.210	-0.160	0.180
2020/01/31 17:24:43.4	357.530	0.210	-0.210	0.150
2020/01/31 17:24:43.5	357.520	0.220	-0.270	0.130
2020/01/31 17:24:43.6	357.520	0.230	-0.320	0.100
2020/01/31 17:24:43.7	357.510	0.230	-0.370	0.070
2020/01/31 17:24:43.8	357.500	0.230	-0.410	0.030
2020/01/31 17:24:43.9	357.490	0.230	-0.460	-0.000
2020/01/31 17:24:44.0	357.490	0.230	-0.500	-0.040
2020/01/31 17:24:44.1	357.490	0.230	-0.530	-0.070
2020/01/31 17:24:44.2	357.490	0.230	-0.560	-0.110
2020/01/31 17:24:44.3	357.500	0.220	-0.590	-0.150
2020/01/31 17:24:44.4	357.500	0.220	-0.610	-0.180
2020/01/31 17:24:44.5	357.500	0.210	-0.620	-0.220
2020/01/31 17:24:44.6	357.510	0.190	-0.630	-0.250
2020/01/31 17:24:44.7	357.520	0.180	-0.640	-0.280
2020/01/31 17:24:44.8	357.530	0.170	-0.630	-0.310
2020/01/31 17:24:44.9	357.540	0.150	-0.620	-0.340
2020/01/31 17:24:45.0	357.550	0.130	-0.610	-0.370
2020/01/31 17:24:45.1	357.560	0.110	-0.590	-0.390
2020/01/31 17:24:45.2	357.570	0.090	-0.560	-0.420
2020/01/31 17:24:45.3	357.580	0.060	-0.530	-0.440
2020/01/31 17:24:45.4	357.580	0.030	-0.500	-0.460
2020/01/31 17:24:45.5	357.590	0.010	-0.460	-0.480
2020/01/31 17:24:45.6	357.600	-0.020	-0.410	-0.490
2020/01/31 17:24:45.7	357.610	-0.050	-0.360	-0.510
2020/01/31 17:24:45.8	357.620	-0.080	-0.320	-0.520
2020/01/31 17:24:45.9	357.620	-0.110	-0.260	-0.540
2020/01/31 17:24:46.0	357.630	-0.140	-0.210	-0.550
2020/01/31 17:24:46.1	357.630	-0.170	-0.150	-0.560
2020/01/31 17:24:46.2	357.630	-0.200	-0.090	-0.560
2020/01/31 17:24:46.3	357.640	-0.230	-0.040	-0.570
2020/01/31 17:24:46.4	357.640	-0.260	0.020	-0.580
2020/01/31 17:24:46.5	357.640	-0.280	0.080	-0.580
2020/01/31 17:24:46.6	357.640	-0.310	0.130	-0.580
2020/01/31 17:24:46.7	357.640	-0.330	0.180	-0.580
2020/01/31 17:24:46.8	357.620	-0.350	0.230	-0.580
2020/01/31 17:24:46.9	357.620	-0.370	0.270	-0.570
2020/01/31 17:24:47.0	357.620	-0.380	0.310	-0.570
2020/01/31 17:24:47.1	357.620	-0.390	0.350	-0.560
2020/01/31 17:24:47.2	357.610	-0.400	0.380	-0.550
2020/01/31 17:24:47.3	357.610	-0.400	0.400	-0.540
2020/01/31 17:24:47.4	357.610	-0.400	0.420	-0.520
2020/01/31 17:24:47.5	357.600	-0.400	0.430	-0.500
2020/01/31 17:24:47.6	357.600	-0.390	0.430	-0.480
2020/01/31 17:24:47.7	357.600	-0.380	0.420	-0.460
2020/01/31 17:24:47.8	357.580	-0.370	0.410	-0.440
2020/01/31 17:24:47.9	357.580	-0.350	0.390	-0.420
2020/01/31 17:24:48.0	357.580	-0.320	0.370	-0.390
2020/01/31 17:24:48.1	357.580	-0.300	0.330	-0.360
2020/01/31 17:24:48.2	357.570	-0.270	0.290	-0.330
2020/01/31 17:24:48.3	357.570	-0.230	0.240	-0.310
2020/01/31 17:24:48.4	357.570	-0.200	0.190	-0.280
2020/01/31 17:24:48.5	357.570	-0.160	0.130	-0.250
2020/01/31 17:24:48.6	357.570	-0.120	0.060	-0.220
2020/01/31 17:24:48.7	357.570	-0.070	-0.010	-0.190
2020/01/31 17:24:48.8	357.560	-0.030	-0.090	-0.160
2020/01/31 17:24:48.9	357.560	0.020	-0.170	-0.140
2020/01/31 17:24:49.0	357.570	0.070	-0.260	-0.110
2020/01/31 17:24:49.1	357.570	0.110	-0.350	-0.090
2020/01/31 17:24:49.2	357.570	0.160	-0.430	-0.080
2020/01/31 17:24:49.3	357.570	0.210	-0.520	-0.070
2020/01/31 17:24:49.4	357.580	0.250	-0.610	-0.060
2020/01/31 17:24:49.5	357.580	0.300	-0.700	-0.050
2020/01/31 17:24:49.6	357.590	0.340	-0.790	-0.050
2020/01/31 17:24:49.7	357.600	0.380	-0.880	-0.040
2020/01/31 17:24:49.8	357.610	0.420	-0.960	-0.050
2020/01/31 17:24:49.9	357.620	0.450	-1.040	-0.050
2020/01/31 17:24:50.0	357.640	0.480	-1.110	-0.060
2020/01/31 17:24:50.1	357.650	0.510	-1.180	-0.080
2020/01/31 17:24:50.2	357.670	0.530	-1.250	-0.090
2020/01/31 17:24:50.3	357.690	0.550	-1.300	-0.110
2020/01/31 17:24:50.4	357.720	0.570	-1.350	-0.130
2020/01/31 17:24:50.5	357.740	0.570	-1.400	-0.160
2020/01/31 17:24:50.6	357.760	0.580	-1.430	-0.180
2020/01/31 17:24:50.7	357.790	0.580	-1.460	-0.210
2020/01/31 17:24:50.8	357.820	0.580	-1.480	-0.240
2020/01/31 17:24:50.9	357.850	0.570	-1.490	-0.270
2020/01/31 17:24:51.0	357.880	0.550	-1.500	-0.300
2020/01/31 17:24:51.1	357.900	0.530	-1.490	-0.340
2020/01/31 17:24:51.2	357.930	0.510	-1.470	-0.370
2020/01/31 17:24:51.3	357.950	0.480	-1.450	-0.410
2020/01/31 17:24:51.4	357.970	0.440	-1.410	-0.450
2020/01/31 17:24:51.5	357.990	0.400	-1.370	-0.480
2020/01/31 17:24:51.6	358.000	0.360	-1.320	-0.520
2020/01/31 17:24:51.7	358.010	0.310	-1.250	-0.560
2020/01/31 17:24:51.8	358.040	0.260	-1.180	-0.590
2020/01/31 17:24:51.9	358.050	0.200	-1.110	-0.630
2020/01/31 17:24:52.0	358.050	0.140	-1.020	-0.660
2020/01/31 17:24:52.1	358.050	0.080	-0.930	-0.700
2020/01/31 17:24:52.2	358.040	0.020	-0.830	-0.730
2020/01/31 17:24:52.3	358.030	-0.040	-0.730	-0.760
2020/01/31 17:24:52.4	358.020	-0.110	-0.620	-0.790
2020/01/31 17:24:52.5	358.000	-0.170	-0.500	-0.810
2020/01/31 17:24:52.6	357.980	-0.240	-0.390	-0.830
2020/01/31 17:24:52.7	357.950	-0.300	-0.260	-0.850
2020/01/31 17:24:52.8	357.920	-0.360	-0.140	-0.870
2020/01/31 17:24:52.9	357.890	-0.420	-0.020	-0.880
2020/01/31 17:24:53.0	357.860	-0.480	0.100	-0.890
2020/01/31 17:24:53.1	357.830	-0.540	0.220	-0.900
2020/01/31 17:24:53.2	357.790	-0.590	0.340	-0.900
2020/01/31 17:24:53.3	357.750	-0.640	0.460	-0.890
2020/01/31 17:24:53.4	357.710	-0.680	0.570	-0.890
2020/01/31 17:24:53.5	357.670	-0.720	0.670	-0.880
2020/01/31 17:24:53.6	357.630	-0.760	0.770	-0.870
2020/01/31 17:24:53.7	357.590	-0.790	0.860	-0.850
2020/01/31 17:24:53.8	357.550	-0.810	0.940	-0.830
2020/01/31 17:24:53.9	357.520	-0.820	1.010	-0.810
2020/01/31 17:24:54.0	357.480	-0.830	1.070	-0.780
2020/01/31 17:24:54.1	357.440	-0.840	1.120	-0.760
2020/01/31 17:24:54.2	357.410	-0.830	1.160	-0.730
2020/01/31 17:24:54.3	357.380	-0.820	1.180	-0.700
2020/01/31 17:24:54.4	357.350	-0.800	1.190	-0.660
2020/01/31 17:24:54.5	357.320	-0.780	1.190	-0.630
2020/01/31 17:24:54.6	357.290	-0.740	1.180	-0.600
2020/01/31 17:24:54.7	357.270	-0.710	1.160	-0.570
2020/01/31 17:24:54.8	357.250	-0.660	1.120	-0.540
2020/01/31 17:24:54.9	357.230	-0.610	1.070	-0.500
2020/01/31 17:24:55.0	357.220	-0.560	1.020	-0.480
2020/01/31 17:24:55.1	357.200	-0.500	0.950	-0.450
2020/01/31 17:24:55.2	357.190	-0.430	0.880	-0.420
2020/01/31 17:24:55.3	357.180	-0.370	0.800	-0.390
2020/01/31 17:24:55.4	357.170	-0.300	0.710	-0.370
2020/01/31 17:24:55.5	357.170	-0.230	0.620	-0.350
2020/01/31 17:24:55.6	357.160	-0.150	0.530	-0.320
2020/01/31 17:24:55.7	357.160	-0.080	0.430	-0.300
2020/01/31 17:24:55.8	357.140	-0.000	0.330	-0.280
2020/01/31 17:24:55.9	357.140	0.070	0.240	-0.260
2020/01/31 17:24:56.0	357.140	0.140	0.140	-0.240
2020/01/31 17:24:56.1	357.130	0.220	0.040	-0.220
2020/01/31 17:24:56.2	357.120	0.280	-0.050	-0.190
2020/01/31 17:24:56.3	357.110	0.350	-0.140	-0.170
2020/01/31 17:24:56.4	357.100	0.410	-0.230	-0.150
2020/01/31 17:24:56.5	357.090	0.470	-0.310	-0.120
2020/01/31 17:24:56.6	357.080	0.520	-0.390	-0.100
2020/01/31 17:24:56.7	357.070	0.570	-0.460	-0.070
2020/01/31 17:24:56.8	357.050	0.620	-0.520	-0.050
2020/01/31 17:24:56.9	357.030	0.660	-0.580	-0.020
2020/01/31 17:24:57.0	357.020	0.690	-0.640	-0.000
2020/01/31 17:24:57.1	357.010	0.720	-0.680	0.020
2020/01/31 17:24:57.2	357.000	0.740	-0.730	0.040
2020/01/31 17:24:57.3	356.980	0.750	-0.760	0.060
2020/01/31 17:24:57.4	356.970	0.760	-0.790	0.080
2020/01/31 17:24:57.5	356.960	0.760	-0.820	0.100
2020/01/31 17:24:57.6	356.960	0.760	-0.840	0.110
2020/01/31 17:24:57.7	356.950	0.750	-0.850	0.120
2020/01/31 17:24:57.8	356.940	0.740	-0.860	0.130
2020/01/31 17:24:57.9	356.940	0.720	-0.870	0.140
2020/01/31 17:24:58.0	356.950	0.690	-0.870	0.130
2020/01/31 17:24:58.1	356.950	0.660	-0.870	0.130
2020/01/31 17:24:58.2	356.960	0.630	-0.870	0.120
2020/01/31 17:24:58.3	356.970	0.590	-0.870	0.100
2020/01/31 17:24:58.4	356.980	0.550	-0.860	0.090
2020/01/31 17:24:58.5	357.000	0.510	-0.850	0.060
2020/01/31 17:24:58.6	357.020	0.460	-0.850	0.030
2020/01/31 17:24:58.7	357.050	0.410	-0.840	-0.010
2020/01/31 17:24:58.8	357.090	0.360	-0.830	-0.040
2020/01/31 17:24:58.9	357.120	0.310	-0.820	-0.090
2020/01/31 17:24:59.0	357.160	0.260	-0.810	-0.130
2020/01/31 17:24:59.1	357.190	0.210	-0.800	-0.180
2020/01/31 17:24:59.2	357.220	0.160	-0.780	-0.240
2020/01/31 17:24:59.3	357.260	0.100	-0.770	-0.290
2020/01/31 17:24:59.4	357.300	0.050	-0.760	-0.350
2020/01/31 17:24:59.5	357.330	0.000	-0.740	-0.400
2020/01/31 17:24:59.6	357.370	-0.050	-0.720	-0.460
2020/01/31 17:24:59.7	357.410	-0.100	-0.700	-0.510
2020/01/31 17:24:59.8	357.450	-0.150	-0.680	-0.560
2020/01/31 17:24:59.9	357.480	-0.200	-0.660	-0.610
2020/01/31 17:25:00.0	357.500	-0.240	-0.630	-0.660
2020/01/31 17:25:00.1	357.530	-0.290	-0.600	-0.700
2020/01/31 17:25:00.2	357.550	-0.330	-0.570	-0.740
2020/01/31 17:25:00.3	357.560	-0.370	-0.530	-0.780
2020/01/31 17:25:00.4	357.580	-0.410	-0.500	-0.810
2020/01/31 17:25:00.5	357.580	-0.450	-0.460	-0.830
2020/01/31 17:25:00.6	357.590	-0.480	-0.420	-0.850
2020/01/31 17:25:00.7	357.580	-0.510	-0.370	-0.860
2020/01/31 17:25:00.8	357.570	-0.540	-0.320	-0.870
2020/01/31 17:25:00.9	357.560	-0.570	-0.270	-0.870
2020/01/31 17:25:01.0	357.550	-0.590	-0.220	-0.860
2020/01/31 17:25:01.1	357.530	-0.610	-0.170	-0.850
2020/01/31 17:25:01.2	357.510	-0.630	-0.120	-0.840
2020/01/31 17:25:01.3	357.480	-0.650	-0.070	-0.810
2020/01/31 17:25:01.4	357.450	-0.660	-0.010	-0.790
2020/01/31 17:25:01.5	357.420	-0.660	0.040	-0.760
2020/01/31 17:25:01.6	357.390	-0.670	0.090	-0.730
2020/01/31 17:25:01.7	357.360	-0.670	0.130	-0.700
2020/01/31 17:25:01.8	357.320	-0.660	0.170	-0.660
2020/01/31 17:25:01.9	357.290	-0.660	0.210	-0.620
2020/01/31 17:25:02.0	357.260	-0.650	0.250	-0.580
2020/01/31 17:25:02.1	357.220	-0.630	0.280	-0.540
2020/01/31 17:25:02.2	357.190	-0.610	0.300	-0.510
2020/01/31 17:25:02.3	357.170	-0.590	0.320	-0.470
2020/01/31 17:25:02.4	357.140	-0.560	0.330	-0.430
2020/01/31 17:25:02.5	357.120	-0.530	0.330	-0.400
2020/01/31 17:25:02.6	357.100	-0.500	0.320	-0.370
2020/01/31 17:25:02.7	357.080	-0.460	0.310	-0.340
2020/01/31 17:25:02.8	357.060	-0.420	0.280	-0.310
2020/01/31 17:25:02.9	357.050	-0.370	0.250	-0.290
2020/01/31 17:25:03.0	357.040	-0.320	0.210	-0.270
2020/01/31 17:25:03.1	357.040	-0.270	0.170	-0.260
2020/01/31 17:25:03.2	357.040	-0.210	0.120	-0.250
2020/01/31 17:25:03.3	357.050	-0.150	0.060	-0.240
2020/01/31 17:25:03.4	357.050	-0.090	-0.000	-0.240
2020/01/31 17:25:03.5	357.060	-0.030	-0.070	-0.240
2020/01/31 17:25:03.6	357.070	0.030	-0.140	-0.240
2020/01/31 17:25:03.7	357.080	0.090	-0.210	-0.240
2020/01/31 17:25:03.8	357.090	0.160	-0.270	-0.240
2020/01/31 17:25:03.9	357.110	0.220	-0.340	-0.250
2020/01/31 17:25:04.0	357.120	0.280	-0.410	-0.250
2020/01/31 17:25:04.1	357.130	0.330	-0.470	-0.260
2020/01/31 17:25:04.2	357.150	0.390	-0.540	-0.260
2020/01/31 17:25:04.3	357.160	0.440	-0.590	-0.270
2020/01/31 17:25:04.4	357.170	0.490	-0.650	-0.270
2020/01/31 17:25:04.5	357.170	0.540	-0.700	-0.270
2020/01/31 17:25:04.6	357.180	0.580	-0.740	-0.280
2020/01/31 17:25:04.7	357.190	0.610	-0.770	-0.280
2020/01/31 17:25:04.8	357.190	0.640	-0.800	-0.280
2020/01/31 17:25:04.9	357.200	0.660	-0.820	-0.290
2020/01/31 17:25:05.0	357.200	0.680	-0.830	-0.290
2020/01/31 17:25:05.1	357.190	0.700	-0.840	-0.300
2020/01/31 17:25:05.2	357.190	0.700	-0.840	-0.310
2020/01/31 17:25:05.3	357.190	0.700	-0.830	-0.310
2020/01/31 17:25:05.4	357.180	0.700	-0.810	-0.320
2020/01/31 17:25:05.5	357.180	0.690	-0.790	-0.330
2020/01/31 17:25:05.6	357.170	0.670	-0.760	-0.330
2020/01/31 17:25:05.7	357.160	0.650	-0.720	-0.340
2020/01/31 17:25:05.8	357.150	0.630	-0.680	-0.340
2020/01/31 17:25:05.9	357.140	0.600	-0.640	-0.350
2020/01/31 17:25:06.0	357.130	0.560	-0.590	-0.350
2020/01/31 17:25:06.1	357.120	0.520	-0.540	-0.350
2020/01/31 17:25:06.2	357.110	0.480	-0.480	-0.360
2020/01/31 17:25:06.3	357.090	0.440	-0.420	-0.360
2020/01/31 17:25:06.4	357.080	0.390	-0.370	-0.360
2020/01/31 17:25:06.5	357.070	0.340	-0.310	-0.370
2020/01/31 17:25:06.6	357.060	0.290	-0.250	-0.370
2020/01/31 17:25:06.7	357.050	0.240	-0.190	-0.370
2020/01/31 17:25:06.8	357.040	0.190	-0.140	-0.370
2020/01/31 17:25:06.9	357.030	0.130	-0.080	-0.370
2020/01/31 17:25:07.0	357.020	0.080	-0.030	-0.370
2020/01/31 17:25:07.1	357.010	0.040	0.020	-0.370
2020/01/31 17:25:07.2	357.000	-0.010	0.070	-0.370
2020/01/31 17:25:07.3	356.990	-0.060	0.110	-0.370
2020/01/31 17:25:07.4	356.980	-0.100	0.160	-0.370
2020/01/31 17:25:07.5	356.980	-0.140	0.200	-0.370
2020/01/31 17:25:07.6	356.970	-0.180	0.230	-0.370
2020/01/31 17:25:07.7	356.960	-0.210	0.270	-0.370
2020/01/31 17:25:07.8	356.950	-0.240	0.300	-0.370
2020/01/31 17:25:07.9	356.940	-0.270	0.320	-0.380
2020/01/31 17:25:08.0	356.940	-0.300	0.350	-0.380
2020/01/31 17:25:08.1	356.930	-0.320	0.370	-0.380
2020/01/31 17:25:08.2	356.930	-0.330	0.380	-0.390
2020/01/31 17:25:08.3	356.920	-0.350	0.400	-0.390
2020/01/31 17:25:08.4	356.920	-0.360	0.410	-0.390
2020/01/31 17:25:08.5	356.910	-0.360	0.420	-0.400
2020/01/31 17:25:08.6	356.910	-0.370	0.420	-0.400
2020/01/31 17:25:08.7	356.910	-0.370	0.420	-0.400
2020/01/31 17:25:08.8	356.900	-0.360	0.420	-0.400
2020/01/31 17:25:08.9	356.890	-0.360	0.410	-0.400
2020/01/31 17:25:09.0	356.890	-0.350	0.400	-0.400
2020/01/31 17:25:09.1	356.880	-0.340	0.380	-0.390
2020/01/31 17:25:09.2	356.870	-0.330	0.360	-0.390
2020/01/31 17:25:09.3	356.870	-0.320	0.340	-0.380
2020/01/31 17:25:09.4	356.860	-0.310	0.310	-0.380
2020/01/31 17:25:09.5	356.850	-0.290	0.280	-0.370
2020/01/31 17:25:09.6	356.850	-0.280	0.240	-0.360
2020/01/31 17:25:09.7	356.840	-0.260	0.200	-0.350
2020/01/31 17:25:09.8	356.840	-0.240	0.160	-0.340
2020/01/31 17:25:09.9	356.840	-0.230	0.120	-0.320
2020/01/31 17:25:10.0	356.840	-0.210	0.070	-0.310
2020/01/31 17:25:10.1	356.840	-0.200	0.020	-0.300
2020/01/31 17:25:10.2	356.840	-0.180	-0.030	-0.290
2020/01/31 17:25:10.3	356.840	-0.160	-0.090	-0.280
2020/01/31 17:25:10.4	356.840	-0.150	-0.140	-0.260
2020/01/31 17:25:10.5	356.840	-0.140	-0.190	-0.250
2020/01/31 17:25:10.6	356.850	-0.120	-0.250	-0.240
2020/01/31 17:25:10.7	356.850	-0.110	-0.300	-0.230
2020/01/31 17:25:10.8	356.840	-0.100	-0.350	-0.210
2020/01/31 17:25:10.9	356.850	-0.090	-0.400	-0.200
2020/01/31 17:25:11.0	356.850	-0.080	-0.450	-0.200
2020/01/31 17:25:11.1	356.860	-0.070	-0.500	-0.190
2020/01/31 17:25:11.2	356.870	-0.060	-0.540	-0.180
2020/01/31 17:25:11.3	356.870	-0.050	-0.590	-0.180
2020/01/31 17:25:11.4	356.880	-0.050	-0.620	-0.170
2020/01/31 17:25:11.5	356.890	-0.040	-0.660	-0.170
2020/01/31 17:25:11.6	356.900	-0.030	-0.690	-0.160
2020/01/31 17:25:11.7	356.910	-0.020	-0.720	-0.160
2020/01/31 17:25:11.8	356.910	-0.020	-0.750	-0.150
2020/01/31 17:25:11.9	356.920	-0.010	-0.770	-0.150
2020/01/31 17:25:12.0	356.930	0.000	-0.780	-0.140
2020/01/31 17:25:12.1	356.940	0.010	-0.800	-0.140
2020/01/31 17:25:12.2	356.960	0.020	-0.800	-0.130
2020/01/31 17:25:12.3	356.970	0.030	-0.810	-0.130
2020/01/31 17:25:12.4	356.980	0.040	-0.800	-0.120
2020/01/31 17:25:12.5	356.990	0.050	-0.800	-0.120
2020/01/31 17:25:12.6	357.010	0.060	-0.790	-0.110
2020/01/31 17:25:12.7	357.020	0.080	-0.780	-0.110
2020/01/31 17:25:12.8	357.040	0.090	-0.770	-0.110
2020/01/31 17:25:12.9	357.050	0.100	-0.750	-0.100
2020/01/31 17:25:13.0	357.070	0.120	-0.740	-0.100
2020/01/31 17:25:13.1	357.080	0.130	-0.720	-0.090
2020/01/31 17:25:13.2	357.100	0.140	-0.700	-0.090
2020/01/31 17:25:13.3	357.110	0.160	-0.680	-0.080
2020/01/31 17:25:13.4	357.120	0.170	-0.650	-0.080
2020/01/31 17:25:13.5	357.130	0.180	-0.630	-0.080
2020/01/31 17:25:13.6	357.140	0.190	-0.610	-0.070
2020/01/31 17:25:13.7	357.150	0.200	-0.580	-0.070
2020/01/31 17:25:13.8	357.160	0.210	-0.560	-0.070
2020/01/31 17:25:13.9	357.170	0.210	-0.540	-0.070
2020/01/31 17:25:14.0	357.170	0.220	-0.520	-0.070
2020/01/31 17:25:14.1	357.180	0.220	-0.500	-0.080
2020/01/31 17:25:14.2	357.180	0.220	-0.480	-0.090
2020/01/31 17:25:14.3	357.190	0.230	-0.460	-0.100
2020/01/31 17:25:14.4	357.200	0.230	-0.450	-0.110
2020/01/31 17:25:14.5	357.200	0.220	-0.430	-0.120
2020/01/31 17:25:14.6	357.210	0.220	-0.420	-0.130
2020/01/31 17:25:14.7	357.220	0.220	-0.410	-0.150
2020/01/31 17:25:14.8	357.230	0.210	-0.400	-0.170
2020/01/31 17:25:14.9	357.240	0.210	-0.400	-0.180
2020/01/31 17:25:15.0	357.250	0.200	-0.390	-0.200
2020/01/31 17:25:15.1	357.260	0.190	-0.390	-0.220
2020/01/31 17:25:15.2	357.270	0.180	-0.390	-0.240
2020/01/31 17:25:15.3	357.280	0.180	-0.390	-0.260
2020/01/31 17:25:15.4	357.290	0.170	-0.390	-0.290
2020/01/31 17:25:15.5	357.310	0.160	-0.400	-0.310
2020/01/31 17:25:15.6	357.320	0.150	-0.400	-0.330
2020/01/31 17:25:15.7	357.330	0.140	-0.400	-0.350
2020/01/31 17:25:15.8	357.350	0.130	-0.410	-0.380
2020/01/31 17:25:15.9	357.360	0.120	-0.410	-0.400
2020/01/31 17:25:16.0	357.370	0.110	-0.410	-0.410
2020/01/31 17:25:16.1	357.380	0.100	-0.410	-0.430
2020/01/31 17:25:16.2	357.390	0.090	-0.400	-0.450
2020/01/31 17:25:16.3	357.400	0.090	-0.400	-0.460
2020/01/31 17:25:16.4	357.400	0.080	-0.390	-0.470
2020/01/31 17:25:16.5	357.400	0.070	-0.380	-0.480
2020/01/31 17:25:16.6	357.400	0.060	-0.360	-0.490
2020/01/31 17:25:16.7	357.400	0.060	-0.340	-0.490
2020/01/31 17:25:16.8	357.400	0.050	-0.320	-0.480
2020/01/31 17:25:16.9	357.400	0.050	-0.290	-0.480
2020/01/31 17:25:17.0	357.390	0.050	-0.260	-0.470
2020/01/31 17:25:17.1	357.380	0.040	-0.230	-0.460
2020/01/31 17:25:17.2	357.370	0.040	-0.190	-0.450
2020/01/31 17:25:17.3	357.360	0.030	-0.150	-0.430
2020/01/31 17:25:17.4	357.350	0.030	-0.110	-0.410
2020/01/31 17:25:17.5	357.340	0.030	-0.070	-0.390
2020/01/31 17:25:17.6	357.330	0.020	-0.030	-0.370
2020/01/31 17:25:17.7	357.320	0.020	0.010	-0.350
2020/01/31 17:25:17.8	357.310	0.020	0.050	-0.330
2020/01/31 17:25:17.9	357.300	0.010	0.090	-0.310
2020/01/31 17:25:18.0	357.290	0.010	0.130	-0.290
2020/01/31 17:25:18.1	357.280	0.000	0.170	-0.270
2020/01/31 17:25:18.2	357.270	-0.000	0.200	-0.250
2020/01/31 17:25:18.3	357.260	-0.010	0.230	-0.230
2020/01/31 17:25:18.4	357.250	-0.020	0.260	-0.210
2020/01/31 17:25:18.5	357.240	-0.030	0.280	-0.200
2020/01/31 17:25:18.6	357.230	-0.040	0.310	-0.180
2020/01/31 17:25:18.7	357.220	-0.050	0.320	-0.170
2020/01/31 17:25:18.8	357.210	-0.060	0.330	-0.150
2020/01/31 17:25:18.9	357.200	-0.070	0.340	-0.140
2020/01/31 17:25:19.0	357.190	-0.090	0.350	-0.130
2020/01/31 17:25:19.1	357.180	-0.100	0.350	-0.120
2020/01/31 17:25:19.2	357.170	-0.110	0.350	-0.110
2020/01/31 17:25:19.3	357.160	-0.130	0.340	-0.100
2020/01/31 17:25:19.4	357.150	-0.140	0.330	-0.090
2020/01/31 17:25:19.5	357.130	-0.160	0.320	-0.080
2020/01/31 17:25:19.6	357.120	-0.170	0.310	-0.070
2020/01/31 17:25:19.7	357.110	-0.190	0.290	-0.070
2020/01/31 17:25:19.8	357.110	-0.200	0.280	-0.060
2020/01/31 17:25:19.9	357.100	-0.220	0.250	-0.060
2020/01/31 17:25:20.0	357.090	-0.230	0.230	-0.060
2020/01/31 17:25:20.1	357.090	-0.240	0.200	-0.070
2020/01/31 17:25:20.2	357.090	-0.250	0.170	-0.070
2020/01/31 17:25:20.3	357.090	-0.260	0.130	-0.080
2020/01/31 17:25:20.4	357.090	-0.270	0.100	-0.090
2020/01/31 17:25:20.5	357.090	-0.280	0.060	-0.100
2020/01/31 17:25:20.6	357.100	-0.280	0.020	-0.120
2020/01/31 17:25:20.7	357.110	-0.280	-0.020	-0.140
2020/01/31 17:25:20.8	357.130	-0.280	-0.070	-0.160
2020/01/31 17:25:20.9	357.150	-0.270	-0.110	-0.190
2020/01/31 17:25:21.0	357.170	-0.270	-0.160	-0.220
2020/01/31 17:25:21.1	357.190	-0.260	-0.200	-0.250
2020/01/31 17:25:21.2	357.210	-0.240	-0.250	-0.290
2020/01/31 17:25:21.3	357.240	-0.230	-0.300	-0.320
2020/01/31 17:25:21.4	357.270	-0.210	-0.340	-0.360
2020/01/31 17:25:21.5	357.300	-0.190	-0.390	-0.390
2020/01/31 17:25:21.6	357.340	-0.160	-0.430	-0.430
2020/01/31 17:25:21.7	357.370	-0.140	-0.480	-0.460
2020/01/31 17:25:21.8	357.400	-0.110	-0.520	-0.490
2020/01/31 17:25:21.9	357.430	-0.080	-0.550	-0.520
2020/01/31 17:25:22.0	357.460	-0.060	-0.590	-0.540
2020/01/31 17:25:22.1	357.490	-0.030	-0.620	-0.560
2020/01/31 17:25:22.2	357.520	0.000	-0.640	-0.580
2020/01/31 17:25:22.3	357.550	0.030	-0.660	-0.600
2020/01/31 17:25:22.4	357.570	0.050	-0.680	-0.610
2020/01/31 17:25:22.5	357.590	0.080	-0.690	-0.620
2020/01/31 17:25:22.6	357.610	0.100	-0.690	-0.630
2020/01/31 17:25:22.7	357.630	0.120	-0.690	-0.640
2020/01/31 17:25:22.8	357.650	0.140	-0.680	-0.630
2020/01/31 17:25:22.9	357.660	0.150	-0.670	-0.630
2020/01/31 17:25:23.0	357.670	0.160	-0.650	-0.630
2020/01/31 17:25:23.1	357.680	0.170	-0.630	-0.620
2020/01/31 17:25:23.2	357.680	0.180	-0.600	-0.620
2020/01/31 17:25:23.3	357.680	0.180	-0.570	-0.610
2020/01/31 17:25:23.4	357.680	0.170	-0.540	-0.590
2020/01/31 17:25:23.5	357.670	0.170	-0.500	-0.580
2020/01/31 17:25:23.6	357.660	0.160	-0.460	-0.570
2020/01/31 17:25:23.7	357.650	0.150	-0.420	-0.550
2020/01/31 17:25:23.8	357.650	0.130	-0.370	-0.530
2020/01/31 17:25:23.9	357.630	0.120	-0.330	-0.510
2020/01/31 17:25:24.0	357.610	0.100	-0.280	-0.490
2020/01/31 17:25:24.1	357.590	0.070	-0.230	-0.470
2020/01/31 17:25:24.2	357.560	0.050	-0.190	-0.460
2020/01/31 17:25:24.3	357.540	0.020	-0.140	-0.440
2020/01/31 17:25:24.4	357.510	-0.000	-0.100	-0.420
2020/01/31 17:25:24.5	357.480	-0.030	-0.050	-0.410
2020/01/31 17:25:24.6	357.450	-0.060	-0.020	-0.390
2020/01/31 17:25:24.7	357.420	-0.090	0.020	-0.380
2020/01/31 17:25:24.8	357.380	-0.110	0.050	-0.360
2020/01/31 17:25:24.9	357.350	-0.140	0.080	-0.350
2020/01/31 17:25:25.0	357.320	-0.170	0.100	-0.340
2020/01/31 17:25:25.1	357.290	-0.190	0.110	-0.330
2020/01/31 17:25:25.2	357.270	-0.210	0.120	-0.320
2020/01/31 17:25:25.3	357.240	-0.230	0.120	-0.320
2020/01/31 17:25:25.4	357.220	-0.240	0.120	-0.320
2020/01/31 17:25:25.5	357.200	-0.250	0.110	-0.310
2020/01/31 17:25:25.6	357.180	-0.260	0.090	-0.320
2020/01/31 17:25:25.7	357.160	-0.270	0.070	-0.320
2020/01/31 17:25:25.8	357.150	-0.270	0.040	-0.330
2020/01/31 17:25:25.9	357.140	-0.260	0.010	-0.330
2020/01/31 17:25:26.0	357.130	-0.260	-0.030	-0.340
2020/01/31 17:25:26.1	357.120	-0.250	-0.080	-0.360
2020/01/31 17:25:26.2	357.120	-0.230	-0.120	-0.370
2020/01/31 17:25:26.3	357.120	-0.210	-0.180	-0.390
2020/01/31 17:25:26.4	357.120	-0.190	-0.230	-0.410
2020/01/31 17:25:26.5	357.130	-0.170	-0.290	-0.430
2020/01/31 17:25:26.6	357.130	-0.140	-0.350	-0.450
2020/01/31 17:25:26.7	357.140	-0.110	-0.420	-0.480
2020/01/31 17:25:26.8	357.160	-0.070	-0.480	-0.500
2020/01/31 17:25:26.9	357.170	-0.030	-0.540	-0.530
2020/01/31 17:25:27.0	357.190	0.010	-0.610	-0.550
2020/01/31 17:25:27.1	357.210	0.050	-0.670	-0.580
2020/01/31 17:25:27.2	357.240	0.090	-0.730	-0.600
2020/01/31 17:25:27.3	357.270	0.130	-0.780	-0.630
2020/01/31 17:25:27.4	357.300	0.180	-0.840	-0.660
2020/01/31 17:25:27.5	357.330	0.230	-0.890	-0.680
2020/01/31 17:25:27.6	357.360	0.270	-0.940	-0.710
2020/01/31 17:25:27.7	357.400	0.320	-0.980	-0.730
2020/01/31 17:25:27.8	357.440	0.360	-1.020	-0.750
2020/01/31 17:25:27.9	357.490	0.400	-1.050	-0.770
2020/01/31 17:25:28.0	357.530	0.440	-1.080	-0.790
2020/01/31 17:25:28.1	357.570	0.480	-1.100	-0.810
2020/01/31 17:25:28.2	357.620	0.520	-1.120	-0.830
2020/01/31 17:25:28.3	357.660	0.550	-1.130	-0.840
2020/01/31 17:25:28.4	357.710	0.580	-1.130	-0.860
2020/01/31 17:25:28.5	357.750	0.600	-1.120	-0.860
2020/01/31 17:25:28.6	357.790	0.620	-1.110	-0.870
2020/01/31 17:25:28.7	357.830	0.630	-1.090	-0.870
2020/01/31 17:25:28.8	357.870	0.640	-1.070	-0.870
2020/01/31 17:25:28.9	357.900	0.650	-1.040	-0.870
2020/01/31 17:25:29.0	357.930	0.650	-1.000	-0.860
2020/01/31 17:25:29.1	357.960	0.640	-0.950	-0.850
2020/01/31 17:25:29.2	357.980	0.630	-0.900	-0.840
2020/01/31 17:25:29.3	357.990	0.610	-0.840	-0.830
2020/01/31 17:25:29.4	358.000	0.590	-0.780	-0.810
2020/01/31 17:25:29.5	358.010	0.560	-0.710	-0.790
2020/01/31 17:25:29.6	358.010	0.530	-0.630	-0.760
2020/01/31 17:25:29.7	358.000	0.490	-0.550	-0.740
2020/01/31 17:25:29.8	358.000	0.450	-0.470	-0.710
2020/01/31 17:25:29.9	357.980	0.400	-0.380	-0.680
2020/01/31 17:25:30.0	357.960	0.350	-0.290	-0.650
2020/01/31 17:25:30.1	357.930	0.300	-0.200	-0.610
2020/01/31 17:25:30.2	357.900	0.240	-0.110	-0.580
2020/01/31 17:25:30.3	357.860	0.180	-0.010	-0.550
2020/01/31 17:25:30.4	357.810	0.120	0.080	-0.510
2020/01/31 17:25:30.5	357.770	0.050	0.180	-0.480
2020/01/31 17:25:30.6	357.720	-0.010	0.270	-0.450
2020/01/31 17:25:30.7	357.670	-0.070	0.360	-0.420
2020/01/31 17:25:30.8	357.620	-0.140	0.450	-0.380
2020/01/31 17:25:30.9	357.570	-0.200	0.540	-0.350
2020/01/31 17:25:31.0	357.510	-0.260	0.620	-0.320
2020/01/31 17:25:31.1	357.460	-0.320	0.690	-0.290
2020/01/31 17:25:31.2	357.400	-0.380	0.760	-0.270
2020/01/31 17:25:31.3	357.340	-0.440	0.820	-0.250
2020/01/31 17:25:31.4	357.290	-0.490	0.870	-0.230
2020/01/31 17:25:31.5	357.230	-0.530	0.920	-0.210
2020/01/31 17:25:31.6	357.180	-0.580	0.960	-0.190
2020/01/31 17:25:31.7	357.130	-0.610	0.980	-0.180
2020/01/31 17:25:31.8	357.100	-0.650	1.000	-0.170
2020/01/31 17:25:31.9	357.060	-0.670	1.010	-0.170
2020/01/31 17:25:32.0	357.020	-0.690	1.000	-0.170
2020/01/31 17:25:32.1	356.990	-0.710	0.990	-0.170
2020/01/31 17:25:32.2	356.960	-0.710	0.960	-0.170
2020/01/31 17:25:32.3	356.930	-0.720	0.930	-0.180
2020/01/31 17:25:32.4	356.910	-0.710	0.880	-0.190
2020/01/31 17:25:32.5	356.890	-0.700	0.830	-0.200
2020/01/31 17:25:32.6	356.880	-0.680	0.770	-0.220
2020/01/31 17:25:32.7	356.870	-0.660	0.700	-0.240
2020/01/31 17:25:32.8	356.860	-0.630	0.620	-0.260
2020/01/31 17:25:32.9	356.860	-0.590	0.540	-0.280
2020/01/31 17:25:33.0	356.860	-0.560	0.460	-0.310
2020/01/31 17:25:33.1	356.870	-0.510	0.370	-0.330
2020/01/31 17:25:33.2	356.880	-0.470	0.270	-0.360
2020/01/31 17:25:33.3	356.890	-0.420	0.180	-0.380
2020/01/31 17:25:33.4	356.900	-0.370	0.090	-0.400
2020/01/31 17:25:33.5	356.910	-0.310	-0.010	-0.430
2020/01/31 17:25:33.6	356.930	-0.260	-0.100	-0.450
2020/01/31 17:25:33.7	356.950	-0.200	-0.190	-0.480
2020/01/31 17:25:33.8	356.960	-0.150	-0.280	-0.500
2020/01/31 17:25:33.9	356.980	-0.090	-0.360	-0.520
2020/01/31 17:25:34.0	357.010	-0.040	-0.440	-0.540
2020/01/31 17:25:34.1	357.030	0.010	-0.520	-0.560
2020/01/31 17:25:34.2	357.050	0.060	-0.590	-0.580
2020/01/31 17:25:34.3	357.080	0.110	-0.660	-0.600
2020/01/31 17:25:34.4	357.100	0.160	-0.720	-0.620
2020/01/31 17:25:34.5	357.130	0.200	-0.780	-0.630
2020/01/31 17:25:34.6	357.160	0.240	-0.830	-0.650
2020/01/31 17:25:34.7	357.180	0.270	-0.880	-0.660
2020/01/31 17:25:34.8	357.200	0.300	-0.920	-0.660
2020/01/31 17:25:34.9	357.230	0.330	-0.960	-0.670
2020/01/31 17:25:35.0	357.260	0.350	-0.990	-0.680
2020/01/31 17:25:35.1	357.280	0.370	-1.010	-0.680
2020/01/31 17:25:35.2	357.310	0.380	-1.030	-0.680
2020/01/31 17:25:35.3	357.330	0.390	-1.050	-0.680
2020/01/31 17:25:35.4	357.360	0.400	-1.050	-0.680
2020/01/31 17:25:35.5	357.380	0.400	-1.050	-0.670
2020/01/31 17:25:35.6	357.400	0.390	-1.050	-0.670
2020/01/31 17:25:35.7	357.420	0.380	-1.040	-0.660
2020/01/31 17:25:35.8	357.430	0.370	-1.020	-0.640
2020/01/31 17:25:35.9	357.450	0.350	-1.000	-0.630
2020/01/31 17:25:36.0	357.460	0.330	-0.970	-0.620
2020/01/31 17:25:36.1	357.460	0.300	-0.940	-0.600
2020/01/31 17:25:36.2	357.470	0.270	-0.900	-0.590
2020/01/31 17:25:36.3	357.470	0.240	-0.860	-0.570
2020/01/31 17:25:36.4	357.470	0.210	-0.810	-0.550
2020/01/31 17:25:36.5	357.470	0.170	-0.760	-0.530
2020/01/31 17:25:36.6	357.470	0.130	-0.700	-0.510
2020/01/31 17:25:36.7	357.460	0.090	-0.640	-0.490
2020/01/31 17:25:36.8	357.460	0.050	-0.580	-0.470
2020/01/31 17:25:36.9	357.450	0.010	-0.520	-0.450
2020/01/31 17:25:37.0	357.440	-0.030	-0.460	-0.430
2020/01/31 17:25:37.1	357.430	-0.070	-0.390	-0.410
2020/01/31 17:25:37.2	357.410	-0.110	-0.330	-0.400
2020/01/31 17:25:37.3	357.400	-0.150	-0.270	-0.380
2020/01/31 17:25:37.4	357.380	-0.190	-0.210	-0.360
2020/01/31 17:25:37.5	357.370	-0.220	-0.150	-0.350
2020/01/31 17:25:37.6	357.350	-0.250	-0.100	-0.340
2020/01/31 17:25:37.7	357.330	-0.280	-0.050	-0.320
2020/01/31 17:25:37.8	357.310	-0.310	-0.000	-0.310
2020/01/31 17:25:37.9	357.290	-0.330	0.040	-0.300
2020/01/31 17:25:38.0	357.270	-0.360	0.080	-0.290
2020/01/31 17:25:38.1	357.250	-0.370	0.110	-0.280
2020/01/31 17:25:38.2	357.240	-0.380	0.140	-0.270
2020/01/31 17:25:38.3	357.220	-0.390	0.160	-0.260
2020/01/31 17:25:38.4	357.210	-0.400	0.170	-0.260
2020/01/31 17:25:38.5	357.190	-0.390	0.180	-0.250
2020/01/31 17:25:38.6	357.180	-0.390	0.180	-0.250
2020/01/31 17:25:38.7	357.170	-0.380	0.180	-0.240
2020/01/31 17:25:38.8	357.130	-0.370	0.170	-0.240
2020/01/31 17:25:38.9	357.120	-0.350	0.160	-0.240
2020/01/31 17:25:39.0	357.110	-0.330	0.140	-0.230
2020/01/31 17:25:39.1	357.100	-0.300	0.120	-0.230
2020/01/31 17:25:39.2	357.090	-0.270	0.090	-0.220
2020/01/31 17:25:39.3	357.090	-0.240	0.060	-0.220
2020/01/31 17:25:39.4	357.080	-0.210	0.030	-0.220
2020/01/31 17:25:39.5	357.070	-0.170	-0.000	-0.210
2020/01/31 17:25:39.6	357.070	-0.130	-0.030	-0.210
2020/01/31 17:25:39.7	357.060	-0.090	-0.070	-0.210
2020/01/31 17:25:39.8	357.070	-0.050	-0.110	-0.200
2020/01/31 17:25:39.9	357.060	-0.010	-0.140	-0.200
2020/01/31 17:25:40.0	357.060	0.030	-0.180	-0.200
2020/01/31 17:25:40.1	357.060	0.080	-0.220	-0.200
2020/01/31 17:25:40.2	357.060	0.120	-0.260	-0.210
2020/01/31 17:25:40.3	357.060	0.160	-0.290	-0.210
2020/01/31 17:25:40.4	357.070	0.200	-0.330	-0.210
2020/01/31 17:25:40.5	357.070	0.240	-0.360	-0.210
2020/01/31 17:25:40.6	357.080	0.270	-0.400	-0.220
2020/01/31 17:25:40.7	357.080	0.310	-0.430	-0.220
2020/01/31 17:25:40.8	357.110	0.340	-0.460	-0.220
2020/01/31 17:25:40.9	357.110	0.370	-0.490	-0.220
2020/01/31 17:25:41.0	357.120	0.390	-0.510	-0.220
2020/01/31 17:25:41.1	357.130	0.420	-0.540	-0.220
2020/01/31 17:25:41.2	357.150	0.430	-0.560	-0.220
2020/01/31 17:25:41.3	357.160	0.450	-0.580	-0.220
2020/01/31 17:25:41.4	357.170	0.460	-0.590	-0.220
2020/01/31 17:25:41.5	357.180	0.470	-0.610	-0.220
2020/01/31 17:25:41.6	357.200	0.480	-0.620	-0.220
2020/01/31 17:25:41.7	357.210	0.480	-0.630	-0.220
2020/01/31 17:25:41.8	357.220	0.480	-0.640	-0.210
2020/01/31 17:25:41.9	357.240	0.480	-0.640	-0.210
2020/01/31 17:25:42.0	357.260	0.470	-0.650	-0.200
2020/01/31 17:25:42.1	357.270	0.460	-0.650	-0.200
2020/01/31 17:25:42.2	357.290	0.440	-0.640	-0.200
2020/01/31 17:25:42.3	357.300	0.420	-0.640	-0.190
2020/01/31 17:25:42.4	357.310	0.400	-0.630	-0.190
2020/01/31 17:25:42.5	357.330	0.370	-0.620	-0.190
2020/01/31 17:25:42.6	357.340	0.350	-0.600	-0.190
2020/01/31 17:25:42.7	357.350	0.320	-0.590	-0.190
2020/01/31 17:25:42.8	357.370	0.280	-0.560	-0.180
2020/01/31 17:25:42.9	357.380	0.250	-0.540	-0.180
2020/01/31 17:25:43.0	357.380	0.210	-0.510	-0.190
2020/01/31 17:25:43.1	357.390	0.170	-0.490	-0.190
2020/01/31 17:25:43.2	357.390	0.130	-0.450	-0.200
2020/01/31 17:25:43.3	357.390	0.090	-0.420	-0.210
2020/01/31 17:25:43.4	357.390	0.050	-0.390	-0.210
2020/01/31 17:25:43.5	357.390	0.010	-0.350	-0.220
2020/01/31 17:25:43.6	357.380	-0.040	-0.310	-0.230
2020/01/31 17:25:43.7	357.380	-0.080	-0.270	-0.240
2020/01/31 17:25:43.8	357.370	-0.120	-0.230	-0.250
2020/01/31 17:25:43.9	357.360	-0.150	-0.180	-0.260
2020/01/31 17:25:44.0	357.350	-0.190	-0.140	-0.270
2020/01/31 17:25:44.1	357.330	-0.220	-0.090	-0.270
2020/01/31 17:25:44.2	357.320	-0.260	-0.050	-0.280
2020/01/31 17:25:44.3	357.300	-0.280	-0.000	-0.280
2020/01/31 17:25:44.4	357.290	-0.310	0.040	-0.280
2020/01/31 17:25:44.5	357.270	-0.330	0.090	-0.280
2020/01/31 17:25:44.6	357.260	-0.350	0.130	-0.280
2020/01/31 17:25:44.7	357.240	-0.360	0.170	-0.280
2020/01/31 17:25:44.8	357.220	-0.370	0.210	-0.270
2020/01/31 17:25:44.9	357.210	-0.370	0.240	-0.270
2020/01/31 17:25:45.0	357.200	-0.370	0.270	-0.260
2020/01/31 17:25:45.1	357.190	-0.370	0.290	-0.260
2020/01/31 17:25:45.2	357.190	-0.360	0.310	-0.250
2020/01/31 17:25:45.3	357.180	-0.350	0.320	-0.250
2020/01/31 17:25:45.4	357.180	-0.330	0.330	-0.250
2020/01/31 17:25:45.5	357.180	-0.300	0.330	-0.250
2020/01/31 17:25:45.6	357.180	-0.280	0.320	-0.250
2020/01/31 17:25:45.7	357.190	-0.240	0.310	-0.250
2020/01/31 17:25:45.8	357.180	-0.210	0.290	-0.250
2020/01/31 17:25:45.9	357.180	-0.170	0.270	-0.250
2020/01/31 17:25:46.0	357.190	-0.130	0.240	-0.260
2020/01/31 17:25:46.1	357.210	-0.080	0.210	-0.260
2020/01/31 17:25:46.2	357.220	-0.030	0.170	-0.270
2020/01/31 17:25:46.3	357.230	0.020	0.130	-0.270
2020/01/31 17:25:46.4	357.240	0.070	0.090	-0.280
2020/01/31 17:25:46.5	357.260	0.120	0.040	-0.290
2020/01/31 17:25:46.6	357.270	0.180	-0.000	-0.300
2020/01/31 17:25:46.7	357.280	0.230	-0.050	-0.300
2020/01/31 17:25:46.8	357.290	0.280	-0.100	-0.310
2020/01/31 17:25:46.9	357.300	0.330	-0.150	-0.310
2020/01/31 17:25:47.0	357.310	0.370	-0.190	-0.320
2020/01/31 17:25:47.1	357.320	0.420	-0.240	-0.330
2020/01/31 17:25:47.2	357.330	0.460	-0.280	-0.330
2020/01/31 17:25:47.3	357.340	0.500	-0.320	-0.330
2020/01/31 17:25:47.4	357.350	0.530	-0.360	-0.340
2020/01/31 17:25:47.5	357.360	0.560	-0.390	-0.340
2020/01/31 17:25:47.6	357.360	0.580	-0.420	-0.340
2020/01/31 17:25:47.7	357.370	0.600	-0.450	-0.340
2020/01/31 17:25:47.8	357.380	0.610	-0.480	-0.330
2020/01/31 17:25:47.9	357.390	0.610	-0.490	-0.330
2020/01/31 17:25:48.0	357.390	0.610	-0.510	-0.330
2020/01/31 17:25:48.1	357.400	0.610	-0.520	-0.330
2020/01/31 17:25:48.2	357.400	0.590	-0.520	-0.320
2020/01/31 17:25:48.3	357.400	0.570	-0.520	-0.320
2020/01/31 17:25:48.4	357.400	0.550	-0.520	-0.320
2020/01/31 17:25:48.5	357.400	0.520	-0.510	-0.320
2020/01/31 17:25:48.6	357.400	0.480	-0.500	-0.320
2020/01/31 17:25:48.7	357.400	0.440	-0.490	-0.330
2020/01/31 17:25:48.8	357.420	0.390	-0.480	-0.330
2020/01/31 17:25:48.9	357.420	0.340	-0.460	-0.340
2020/01/31 17:25:49.0	357.420	0.280	-0.440	-0.350
2020/01/31 17:25:49.1	357.420	0.220	-0.430	-0.360
2020/01/31 17:25:49.2	357.420	0.150	-0.410	-0.380
2020/01/31 17:25:49.3	357.430	0.090	-0.390	-0.400
2020/01/31 17:25:49.4	357.430	0.020	-0.370	-0.420
2020/01/31 17:25:49.5	357.430	-0.050	-0.350	-0.440
2020/01/31 17:25:49.6	357.440	-0.120	-0.340	-0.460
2020/01/31 17:25:49.7	357.440	-0.190	-0.320	-0.490
2020/01/31 17:25:49.8	357.450	-0.260	-0.300	-0.520
2020/01/31 17:25:49.9	357.460	-0.330	-0.290	-0.540
2020/01/31 17:25:50.0	357.460	-0.390	-0.270	-0.570
2020/01/31 17:25:50.1	357.470	-0.460	-0.260	-0.600
2020/01/31 17:25:50.2	357.470	-0.520	-0.250	-0.630
2020/01/31 17:25:50.3	357.480	-0.570	-0.230	-0.660
2020/01/31 17:25:50.4	357.480	-0.620	-0.220	-0.680
2020/01/31 17:25:50.5	357.480	-0.670	-0.210	-0.700
2020/01/31 17:25:50.6	357.480	-0.720	-0.210	-0.730
2020/01/31 17:25:50.7	357.490	-0.750	-0.200	-0.750
2020/01/31 17:25:50.8	357.480	-0.790	-0.190	-0.760
2020/01/31 17:25:50.9	357.480	-0.810	-0.190	-0.780
2020/01/31 17:25:51.0	357.470	-0.830	-0.180	-0.790
2020/01/31 17:25:51.1	357.470	-0.850	-0.180	-0.800
2020/01/31 17:25:51.2	357.470	-0.860	-0.170	-0.800
2020/01/31 17:25:51.3	357.470	-0.860	-0.170	-0.810
2020/01/31 17:25:51.4	357.470	-0.860	-0.170	-0.810
2020/01/31 17:25:51.5	357.460	-0.850	-0.170	-0.800
2020/01/31 17:25:51.6	357.460	-0.830	-0.170	-0.800
2020/01/31 17:25:51.7	357.460	-0.810	-0.170	-0.790
2020/01/31 17:25:51.8	357.470	-0.780	-0.170	-0.790
2020/01/31 17:25:51.9	357.470	-0.750	-0.180	-0.780
2020/01/31 17:25:52.0	357.460	-0.720	-0.180	-0.760
2020/01/31 17:25:52.1	357.460	-0.680	-0.190	-0.750
2020/01/31 17:25:52.2	357.460	-0.640	-0.200	-0.730
2020/01/31 17:25:52.3	357.460	-0.590	-0.220	-0.720
2020/01/31 17:25:52.4	357.460	-0.540	-0.230	-0.700
2020/01/31 17:25:52.5	357.460	-0.490	-0.250	-0.670
2020/01/31 17:25:52.6	357.460	-0.430	-0.260	-0.650
2020/01/31 17:25:52.7	357.470	-0.380	-0.280	-0.620
2020/01/31 17:25:52.8	357.460	-0.320	-0.300	-0.590
2020/01/31 17:25:52.9	357.460	-0.260	-0.320	-0.560
2020/01/31 17:25:53.0	357.460	-0.210	-0.340	-0.520
2020/01/31 17:25:53.1	357.450	-0.150	-0.360	-0.480
2020/01/31 17:25:53.2	357.450	-0.100	-0.370	-0.440
2020/01/31 17:25:53.3	357.440	-0.040	-0.390	-0.390
2020/01/31 17:25:53.4	357.430	0.010	-0.410	-0.350
2020/01/31 17:25:53.5	357.420	0.060	-0.420	-0.300
2020/01/31 17:25:53.6	357.420	0.100	-0.430	-0.260
2020/01/31 17:25:53.7	357.410	0.150	-0.450	-0.210
2020/01/31 17:25:53.8	357.380	0.190	-0.450	-0.170
2020/01/31 17:25:53.9	357.370	0.220	-0.460	-0.120
2020/01/31 17:25:54.0	357.360	0.260	-0.470	-0.080
2020/01/31 17:25:54.1	357.350	0.290	-0.470	-0.040
2020/01/31 17:25:54.2	357.350	0.310	-0.480	-0.010
2020/01/31 17:25:54.3	357.350	0.340	-0.480	0.030
2020/01/31 17:25:54.4	357.350	0.360	-0.480	0.060
2020/01/31 17:25:54.5	357.350	0.370	-0.480	0.090
2020/01/31 17:25:54.6	357.350	0.390	-0.480	0.110
2020/01/31 17:25:54.7	357.360	0.400	-0.480	0.130
2020/01/31 17:25:54.8	357.380	0.410	-0.470	0.150
2020/01/31 17:25:54.9	357.390	0.420	-0.470	0.170
2020/01/31 17:25:55.0	357.400	0.420	-0.460	0.180
2020/01/31 17:25:55.1	357.420	0.420	-0.460	0.190
2020/01/31 17:25:55.2	357.440	0.430	-0.450	0.190
2020/01/31 17:25:55.3	357.460	0.430	-0.440	0.200
2020/01/31 17:25:55.4	357.490	0.430	-0.430	0.200
2020/01/31 17:25:55.5	357.520	0.430	-0.420	0.190
2020/01/31 17:25:55.6	357.540	0.430	-0.410	0.190
2020/01/31 17:25:55.7	357.580	0.430	-0.400	0.180
2020/01/31 17:25:55.8	357.610	0.430	-0.380	0.170
2020/01/31 17:25:55.9	357.650	0.430	-0.370	0.160
2020/01/31 17:25:56.0	357.680	0.420	-0.350	0.160
2020/01/31 17:25:56.1	357.710	0.420	-0.340	0.150
2020/01/31 17:25:56.2	357.740	0.420	-0.320	0.140
2020/01/31 17:25:56.3	357.770	0.420	-0.300	0.120
2020/01/31 17:25:56.4	357.790	0.420	-0.290	0.110
2020/01/31 17:25:56.5	357.820	0.420	-0.270	0.100
2020/01/31 17:25:56.6	357.850	0.410	-0.250	0.090
2020/01/31 17:25:56.7	357.870	0.410	-0.230	0.080
2020/01/31 17:25:56.8	357.900	0.410	-0.210	0.070
2020/01/31 17:25:56.9	357.920	0.400	-0.190	0.060
2020/01/31 17:25:57.0	357.930	0.400	-0.180	0.050
2020/01/31 17:25:57.1	357.950	0.390	-0.160	0.040
2020/01/31 17:25:57.2	357.960	0.390	-0.140	0.030
2020/01/31 17:25:57.3	357.960	0.380	-0.120	0.010
2020/01/31 17:25:57.4	357.970	0.370	-0.110	0.000
2020/01/31 17:25:57.5	357.970	0.360	-0.090	-0.010
2020/01/31 17:25:57.6	357.960	0.350	-0.080	-0.020
2020/01/31 17:25:57.7	357.950	0.330	-0.070	-0.030
2020/01/31 17:25:57.8	357.950	0.320	-0.060	-0.040
2020/01/31 17:25:57.9	357.930	0.300	-0.050	-0.050
2020/01/31 17:25:58.0	357.920	0.280	-0.050	-0.060
2020/01/31 17:25:58.1	357.900	0.260	-0.040	-0.070
2020/01/31 17:25:58.2	357.890	0.240	-0.040	-0.090
2020/01/31 17:25:58.3	357.870	0.220	-0.040	-0.100
2020/01/31 17:25:58.4	357.850	0.190	-0.040	-0.120
2020/01/31 17:25:58.5	357.830	0.170	-0.050	-0.130
2020/01/31 17:25:58.6	357.810	0.140	-0.060	-0.150
2020/01/31 17:25:58.7	357.800	0.110	-0.070	-0.170
2020/01/31 17:25:58.8	357.780	0.080	-0.080	-0.190
2020/01/31 17:25:58.9	357.760	0.050	-0.090	-0.210
2020/01/31 17:25:59.0	357.750	0.020	-0.100	-0.240
2020/01/31 17:25:59.1	357.730	-0.010	-0.120	-0.260
2020/01/31 17:25:59.2	357.720	-0.040	-0.140	-0.290
2020/01/31 17:25:59.3	357.700	-0.070	-0.150	-0.310
2020/01/31 17:25:59.4	357.690	-0.100	-0.170	-0.340
2020/01/31 17:25:59.5	357.670	-0.130	-0.190	-0.370
2020/01/31 17:25:59.6	357.660	-0.160	-0.200	-0.400
2020/01/31 17:25:59.7	357.650	-0.180	-0.220	-0.430
2020/01/31 17:25:59.8	357.640	-0.210	-0.240	-0.470
2020/01/31 17:25:59.9	357.630	-0.240	-0.250	-0.500
2020/01/31 17:26:00.0	357.620	-0.260	-0.260	-0.530
2020/01/31 17:26:00.1	357.610	-0.280	-0.270	-0.560
2020/01/31 17:26:00.2	357.610	-0.300	-0.280	-0.590
2020/01/31 17:26:00.3	357.600	-0.320	-0.290	-0.610
2020/01/31 17:26:00.4	357.590	-0.340	-0.290	-0.640
2020/01/31 17:26:00.5	357.580	-0.350	-0.280	-0.660
2020/01/31 17:26:00.6	357.580	-0.360	-0.280	-0.680
2020/01/31 17:26:00.7	357.570	-0.370	-0.270	-0.700
2020/01/31 17:26:00.8	357.560	-0.380	-0.250	-0.710
2020/01/31 17:26:00.9	357.550	-0.390	-0.240	-0.720
2020/01/31 17:26:01.0	357.540	-0.390	-0.220	-0.730
2020/01/31 17:26:01.1	357.530	-0.390	-0.210	-0.730
2020/01/31 17:26:01.2	357.520	-0.390	-0.180	-0.730
2020/01/31 17:26:01.3	357.510	-0.390	-0.160	-0.730
2020/01/31 17:26:01.4	357.500	-0.390	-0.140	-0.720
2020/01/31 17:26:01.5	357.490	-0.380	-0.110	-0.710
2020/01/31 17:26:01.6	357.490	-0.370	-0.090	-0.690
2020/01/31 17:26:01.7	357.480	-0.360	-0.060	-0.680
2020/01/31 17:26:01.8	357.470	-0.350	-0.040	-0.660
2020/01/31 17:26:01.9	357.460	-0.340	-0.010	-0.640
2020/01/31 17:26:02.0	357.450	-0.320	0.010	-0.610
2020/01/31 17:26:02.1	357.450	-0.310	0.030	-0.590
2020/01/31 17:26:02.2	357.450	-0.290	0.050	-0.560
2020/01/31 17:26:02.3	357.440	-0.270	0.070	-0.540
2020/01/31 17:26:02.4	357.440	-0.250	0.090	-0.510
2020/01/31 17:26:02.5	357.440	-0.230	0.100	-0.480
2020/01/31 17:26:02.6	357.430	-0.210	0.110	-0.450
2020/01/31 17:26:02.7	357.430	-0.190	0.120	-0.420
2020/01/31 17:26:02.8	357.440	-0.170	0.130	-0.390
2020/01/31 17:26:02.9	357.440	-0.150	0.130	-0.360
2020/01/31 17:26:03.0	357.440	-0.130	0.130	-0.330
2020/01/31 17:26:03.1	357.440	-0.110	0.120	-0.300
2020/01/31 17:26:03.2	357.440	-0.090	0.110	-0.280
2020/01/31 17:26:03.3	357.450	-0.070	0.100	-0.260
2020/01/31 17:26:03.4	357.450	-0.050	0.080	-0.230
2020/01/31 17:26:03.5	357.450	-0.030	0.050	-0.210
2020/01/31 17:26:03.6	357.450	-0.020	0.030	-0.190
2020/01/31 17:26:03.7	357.460	-0.000	0.000	-0.180
2020/01/31 17:26:03.8	357.460	0.010	-0.030	-0.160
2020/01/31 17:26:03.9	357.470	0.030	-0.060	-0.140
2020/01/31 17:26:04.0	357.470	0.040	-0.100	-0.130
2020/01/31 17:26:04.1	357.470	0.050	-0.140	-0.120
2020/01/31 17:26:04.2	357.480	0.060	-0.170	-0.110
2020/01/31 17:26:04.3	357.480	0.070	-0.210	-0.100
2020/01/31 17:26:04.4	357.490	0.070	-0.250	-0.100
2020/01/31 17:26:04.5	357.490	0.080	-0.290	-0.090
2020/01/31 17:26:04.6	357.490	0.080	-0.330	-0.090
2020/01/31 17:26:04.7	357.490	0.080	-0.370	-0.080
2020/01/31 17:26:04.8	357.490	0.080	-0.410	-0.080
2020/01/31 17:26:04.9	357.490	0.070	-0.440	-0.070
2020/01/31 17:26:05.0	357.480	0.070	-0.470	-0.070
2020/01/31 17:26:05.1	357.480	0.060	-0.500	-0.070
2020/01/31 17:26:05.2	357.470	0.050	-0.530	-0.080
2020/01/31 17:26:05.3	357.470	0.040	-0.560	-0.080
2020/01/31 17:26:05.4	357.460	0.030	-0.580	-0.090
2020/01/31 17:26:05.5	357.460	0.020	-0.610	-0.100
2020/01/31 17:26:05.6	357.450	0.010	-0.630	-0.110
2020/01/31 17:26:05.7	357.450	-0.010	-0.650	-0.130
2020/01/31 17:26:05.8	357.460	-0.020	-0.660	-0.140
2020/01/31 17:26:05.9	357.460	-0.030	-0.680	-0.170
2020/01/31 17:26:06.0	357.460	-0.050	-0.690	-0.190
2020/01/31 17:26:06.1	357.460	-0.060	-0.700	-0.220
2020/01/31 17:26:06.2	357.470	-0.070	-0.710	-0.240
2020/01/31 17:26:06.3	357.480	-0.080	-0.720	-0.280
2020/01/31 17:26:06.4	357.490	-0.090	-0.730	-0.310
2020/01/31 17:26:06.5	357.500	-0.100	-0.730	-0.340
2020/01/31 17:26:06.6	357.520	-0.100	-0.740	-0.380
2020/01/31 17:26:06.7	357.540	-0.110	-0.740	-0.410
2020/01/31 17:26:06.8	357.550	-0.110	-0.740	-0.450
2020/01/31 17:26:06.9	357.570	-0.110	-0.740	-0.480
2020/01/31 17:26:07.0	357.590	-0.100	-0.740	-0.520
2020/01/31 17:26:07.1	357.620	-0.100	-0.740	-0.550
2020/01/31 17:26:07.2	357.640	-0.090	-0.740	-0.580
2020/01/31 17:26:07.3	357.670	-0.080	-0.730	-0.610
2020/01/31 17:26:07.4	357.690	-0.060	-0.720	-0.630
2020/01/31 17:26:07.5	357.710	-0.050	-0.710	-0.650
2020/01/31 17:26:07.6	357.730	-0.030	-0.700	-0.670
2020/01/31 17:26:07.7	357.750	-0.010	-0.690	-0.680
2020/01/31 17:26:07.8	357.780	0.010	-0.670	-0.690
2020/01/31 17:26:07.9	357.800	0.030	-0.660	-0.690
2020/01/31 17:26:08.0	357.810	0.050	-0.630	-0.690
2020/01/31 17:26:08.1	357.820	0.070	-0.610	-0.690
2020/01/31 17:26:08.2	357.830	0.090	-0.580	-0.680
2020/01/31 17:26:08.3	357.830	0.110	-0.560	-0.670
2020/01/31 17:26:08.4	357.830	0.130	-0.530	-0.650
2020/01/31 17:26:08.5	357.830	0.150	-0.490	-0.630
2020/01/31 17:26:08.6	357.820	0.170	-0.460	-0.610
2020/01/31 17:26:08.7	357.810	0.190	-0.420	-0.590
2020/01/31 17:26:08.8	357.790	0.200	-0.390	-0.560
2020/01/31 17:26:08.9	357.770	0.220	-0.350	-0.540
2020/01/31 17:26:09.0	357.750	0.230	-0.310	-0.510
2020/01/31 17:26:09.1	357.730	0.240	-0.270	-0.480
2020/01/31 17:26:09.2	357.710	0.250	-0.230	-0.450
2020/01/31 17:26:09.3	357.680	0.250	-0.200	-0.430
2020/01/31 17:26:09.4	357.660	0.260	-0.160	-0.400
2020/01/31 17:26:09.5	357.630	0.260	-0.130	-0.370
2020/01/31 17:26:09.6	357.600	0.260	-0.090	-0.340
2020/01/31 17:26:09.7	357.570	0.260	-0.060	-0.310
2020/01/31 17:26:09.8	357.550	0.260	-0.030	-0.290
2020/01/31 17:26:09.9	357.520	0.250	-0.010	-0.260
2020/01/31 17:26:10.0	357.490	0.250	0.020	-0.240
2020/01/31 17:26:10.1	357.470	0.240	0.040	-0.220
2020/01/31 17:26:10.2	357.450	0.230	0.050	-0.200
2020/01/31 17:26:10.3	357.430	0.220	0.060	-0.180
2020/01/31 17:26:10.4	357.410	0.210	0.070	-0.170
2020/01/31 17:26:10.5	357.390	0.200	0.070	-0.160
2020/01/31 17:26:10.6	357.380	0.190	0.070	-0.150
2020/01/31 17:26:10.7	357.370	0.180	0.060	-0.140
2020/01/31 17:26:10.8	357.370	0.160	0.060	-0.140
2020/01/31 17:26:10.9	357.360	0.150	0.040	-0.140
2020/01/31 17:26:11.0	357.360	0.140	0.020	-0.150
2020/01/31 17:26:11.1	357.360	0.120	0.010	-0.160
2020/01/31 17:26:11.2	357.370	0.110	-0.020	-0.170
2020/01/31 17:26:11.3	357.370	0.100	-0.040	-0.190
2020/01/31 17:26:11.4	357.380	0.080	-0.070	-0.200
2020/01/31 17:26:11.5	357.390	0.070	-0.090	-0.220
2020/01/31 17:26:11.6	357.400	0.060	-0.120	-0.240
2020/01/31 17:26:11.7	357.410	0.050	-0.140	-0.260
2020/01/31 17:26:11.8	357.420	0.040	-0.170	-0.280
2020/01/31 17:26:11.9	357.430	0.020	-0.190	-0.300
2020/01/31 17:26:12.0	357.430	0.010	-0.200	-0.320
2020/01/31 17:26:12.1	357.440	-0.000	-0.220	-0.340
2020/01/31 17:26:12.2	357.440	-0.010	-0.220	-0.350
2020/01/31 17:26:12.3	357.440	-0.020	-0.230	-0.360
2020/01/31 17:26:12.4	357.440	-0.040	-0.230	-0.370
2020/01/31 17:26:12.5	357.430	-0.050	-0.220	-0.380
2020/01/31 17:26:12.6	357.430	-0.060	-0.210	-0.380
2020/01/31 17:26:12.7	357.420	-0.070	-0.190	-0.390
2020/01/31 17:26:12.8	357.410	-0.090	-0.170	-0.380
2020/01/31 17:26:12.9	357.400	-0.100	-0.140	-0.380
2020/01/31 17:26:13.0	357.390	-0.110	-0.110	-0.380
2020/01/31 17:26:13.1	357.380	-0.120	-0.080	-0.370
2020/01/31 17:26:13.2	357.360	-0.140	-0.050	-0.360
2020/01/31 17:26:13.3	357.350	-0.150	-0.010	-0.360
2020/01/31 17:26:13.4	357.330	-0.160	0.030	-0.350
2020/01/31 17:26:13.5	357.320	-0.170	0.060	-0.340
2020/01/31 17:26:13.6	357.310	-0.190	0.100	-0.330
2020/01/31 17:26:13.7	357.290	-0.200	0.140	-0.320
2020/01/31 17:26:13.8	357.280	-0.210	0.160	-0.310
2020/01/31 17:26:13.9	357.260	-0.220	0.190	-0.290
2020/01/31 17:26:14.0	357.250	-0.230	0.220	-0.280
2020/01/31 17:26:14.1	357.240	-0.240	0.240	-0.270
2020/01/31 17:26:14.2	357.220	-0.250	0.260	-0.260
2020/01/31 17:26:14.3	357.210	-0.250	0.270	-0.250
2020/01/31 17:26:14.4	357.200	-0.260	0.280	-0.240
2020/01/31 17:26:14.5	357.180	-0.270	0.280	-0.230
2020/01/31 17:26:14.6	357.170	-0.270	0.270	-0.220
2020/01/31 17:26:14.7	357.160	-0.270	0.260	-0.210
2020/01/31 17:26:14.8	357.150	-0.270	0.250	-0.200
2020/01/31 17:26:14.9	357.140	-0.270	0.230	-0.200
2020/01/31 17:26:15.0	357.130	-0.260	0.200	-0.190
2020/01/31 17:26:15.1	357.110	-0.260	0.160	-0.190
2020/01/31 17:26:15.2	357.100	-0.250	0.130	-0.190
2020/01/31 17:26:15.3	357.090	-0.240	0.080	-0.200
2020/01/31 17:26:15.4	357.080	-0.230	0.040	-0.200
2020/01/31 17:26:15.5	357.080	-0.210	-0.010	-0.200
2020/01/31 17:26:15.6	357.070	-0.200	-0.060	-0.210
2020/01/31 17:26:15.7	357.060	-0.180	-0.110	-0.210
2020/01/31 17:26:15.8	357.040	-0.160	-0.160	-0.220
2020/01/31 17:26:15.9	357.040	-0.140	-0.220	-0.220
2020/01/31 17:26:16.0	357.040	-0.120	-0.270	-0.230
2020/01/31 17:26:16.1	357.030	-0.100	-0.330	-0.240
2020/01/31 17:26:16.2	357.030	-0.070	-0.380	-0.240
2020/01/31 17:26:16.3	357.040	-0.050	-0.430	-0.250
2020/01/31 17:26:16.4	357.040	-0.020	-0.480	-0.260
2020/01/31 17:26:16.5	357.050	0.000	-0.530	-0.270
2020/01/31 17:26:16.6	357.050	0.030	-0.580	-0.280
2020/01/31 17:26:16.7	357.060	0.050	-0.620	-0.280
2020/01/31 17:26:16.8	357.090	0.080	-0.670	-0.290
2020/01/31 17:26:16.9	357.100	0.100	-0.700	-0.300
2020/01/31 17:26:17.0	357.120	0.130	-0.740	-0.310
2020/01/31 17:26:17.1	357.140	0.150	-0.770	-0.320
2020/01/31 17:26:17.2	357.160	0.170	-0.800	-0.320
2020/01/31 17:26:17.3	357.180	0.190	-0.820	-0.330
2020/01/31 17:26:17.4	357.200	0.210	-0.840	-0.340
2020/01/31 17:26:17.5	357.230	0.230	-0.850	-0.340
2020/01/31 17:26:17.6	357.250	0.240	-0.870	-0.350
2020/01/31 17:26:17.7	357.270	0.250	-0.870	-0.350
2020/01/31 17:26:17.8	357.300	0.260	-0.870	-0.350
2020/01/31 17:26:17.9	357.320	0.270	-0.870	-0.360
2020/01/31 17:26:18.0	357.350	0.280	-0.860	-0.360
2020/01/31 17:26:18.1	357.370	0.280	-0.850	-0.360
2020/01/31 17:26:18.2	357.390	0.280	-0.830	-0.360
2020/01/31 17:26:18.3	357.410	0.270	-0.810	-0.350
2020/01/31 17:26:18.4	357.430	0.260	-0.790	-0.350
2020/01/31 17:26:18.5	357.450	0.260	-0.760	-0.350
2020/01/31 17:26:18.6	357.460	0.240	-0.730	-0.340
2020/01/31 17:26:18.7	357.470	0.230	-0.700	-0.340
2020/01/31 17:26:18.8	357.480	0.210	-0.660	-0.330
2020/01/31 17:26:18.9	357.480	0.190	-0.620	-0.320
2020/01/31 17:26:19.0	357.490	0.170	-0.580	-0.310
2020/01/31 17:26:19.1	357.490	0.140	-0.530	-0.290
2020/01/31 17:26:19.2	357.490	0.110	-0.480	-0.280
2020/01/31 17:26:19.3	357.490	0.080	-0.430	-0.270
2020/01/31 17:26:19.4	357.490	0.050	-0.380	-0.250
2020/01/31 17:26:19.5	357.480	0.020	-0.330	-0.240
2020/01/31 17:26:19.6	357.470	-0.010	-0.280	-0.230
2020/01/31 17:26:19.7	357.460	-0.040	-0.230	-0.210
2020/01/31 17:26:19.8	357.470	-0.080	-0.170	-0.200
2020/01/31 17:26:19.9	357.450	-0.110	-0.120	-0.180
2020/01/31 17:26:20.0	357.440	-0.140	-0.070	-0.170
2020/01/31 17:26:20.1	357.420	-0.180	-0.030	-0.150
2020/01/31 17:26:20.2	357.400	-0.210	0.020	-0.140
2020/01/31 17:26:20.3	357.390	-0.240	0.060	-0.130
2020/01/31 17:26:20.4	357.370	-0.260	0.090	-0.110
2020/01/31 17:26:20.5	357.350	-0.290	0.130	-0.100
2020/01/31 17:26:20.6	357.330	-0.310	0.160	-0.090
2020/01/31 17:26:20.7	357.310	-0.330	0.180	-0.080
2020/01/31 17:26:20.8	357.290	-0.350	0.200	-0.070
2020/01/31 17:26:20.9	357.270	-0.370	0.220	-0.060
2020/01/31 17:26:21.0	357.250	-0.380	0.230	-0.050
2020/01/31 17:26:21.1	357.240	-0.380	0.240	-0.040
2020/01/31 17:26:21.2	357.220	-0.390	0.230	-0.040
2020/01/31 17:26:21.3	357.210	-0.390	0.230	-0.030
2020/01/31 17:26:21.4	357.200	-0.380	0.220	-0.030
2020/01/31 17:26:21.5	357.190	-0.380	0.200	-0.030
2020/01/31 17:26:21.6	357.180	-0.370	0.180	-0.030
2020/01/31 17:26:21.7	357.180	-0.350	0.150	-0.040
2020/01/31 17:26:21.8	357.170	-0.340	0.120	-0.040
2020/01/31 17:26:21.9	357.170	-0.320	0.090	-0.050
2020/01/31 17:26:22.0	357.160	-0.300	0.050	-0.060
2020/01/31 17:26:22.1	357.160	-0.270	0.000	-0.070
2020/01/31 17:26:22.2	357.160	-0.250	-0.040	-0.080
2020/01/31 17:26:22.3	357.170	-0.220	-0.090	-0.090
2020/01/31 17:26:22.4	357.170	-0.190	-0.140	-0.110
2020/01/31 17:26:22.5	357.170	-0.160	-0.190	-0.120
2020/01/31 17:26:22.6	357.170	-0.130	-0.240	-0.140
2020/01/31 17:26:22.7	357.170	-0.100	-0.290	-0.160
2020/01/31 17:26:22.8	357.170	-0.070	-0.340	-0.180
2020/01/31 17:26:22.9	357.170	-0.040	-0.390	-0.200
2020/01/31 17:26:23.0	357.170	-0.010	-0.440	-0.220
2020/01/31 17:26:23.1	357.170	0.020	-0.480	-0.240
2020/01/31 17:26:23.2	357.170	0.040	-0.520	-0.260
2020/01/31 17:26:23.3	357.160	0.070	-0.560	-0.280
2020/01/31 17:26:23.4	357.160	0.100	-0.590	-0.300
2020/01/31 17:26:23.5	357.150	0.120	-0.620	-0.310
2020/01/31 17:26:23.6	357.150	0.140	-0.640	-0.330
2020/01/31 17:26:23.7	357.140	0.160	-0.660	-0.350
2020/01/31 17:26:23.8	357.120	0.180	-0.680	-0.360
2020/01/31 17:26:23.9	357.110	0.200	-0.690	-0.370
2020/01/31 17:26:24.0	357.100	0.220	-0.700	-0.380
2020/01/31 17:26:24.1	357.090	0.230	-0.700	-0.390
2020/01/31 17:26:24.2	357.080	0.250	-0.700	-0.390
2020/01/31 17:26:24.3	357.080	0.260	-0.700	-0.390
2020/01/31 17:26:24.4	357.070	0.270	-0.690	-0.390
2020/01/31 17:26:24.5	357.060	0.280	-0.680	-0.390
2020/01/31 17:26:24.6	357.050	0.290	-0.660	-0.380
2020/01/31 17:26:24.7	357.050	0.300	-0.640	-0.370
2020/01/31 17:26:24.8	357.020	0.310	-0.620	-0.360
2020/01/31 17:26:24.9	357.020	0.320	-0.600	-0.350
2020/01/31 17:26:25.0	357.020	0.320	-0.570	-0.340
2020/01/31 17:26:25.1	357.020	0.330	-0.550	-0.330
2020/01/31 17:26:25.2	357.020	0.340	-0.520	-0.320
2020/01/31 17:26:25.3	357.030	0.350	-0.490	-0.300
2020/01/31 17:26:25.4	357.040	0.360	-0.460	-0.290
2020/01/31 17:26:25.5	357.040	0.370	-0.440	-0.270
2020/01/31 17:26:25.6	357.050	0.380	-0.400	-0.250
2020/01/31 17:26:25.7	357.060	0.390	-0.370	-0.230
2020/01/31 17:26:25.8	357.080	0.400	-0.340	-0.210
2020/01/31 17:26:25.9	357.090	0.410	-0.310	-0.190
2020/01/31 17:26:26.0	357.100	0.420	-0.270	-0.160
2020/01/31 17:26:26.1	357.100	0.430	-0.230	-0.130
2020/01/31 17:26:26.2	357.110	0.440	-0.200	-0.100
2020/01/31 17:26:26.3	357.110	0.440	-0.160	-0.070
2020/01/31 17:26:26.4	357.110	0.450	-0.120	-0.040
2020/01/31 17:26:26.5	357.110	0.450	-0.070	-0.010
2020/01/31 17:26:26.6	357.110	0.450	-0.030	0.030
2020/01/31 17:26:26.7	357.110	0.450	0.010	0.060
2020/01/31 17:26:26.8	357.110	0.440	0.050	0.100
2020/01/31 17:26:26.9	357.100	0.430	0.090	0.130
2020/01/31 17:26:27.0	357.100	0.420	0.130	0.150
2020/01/31 17:26:27.1	357.090	0.400	0.170	0.180
2020/01/31 17:26:27.2	357.080	0.390	0.210	0.200
2020/01/31 17:26:27.3	357.080	0.360	0.240	0.210
2020/01/31 17:26:27.4	357.070	0.340	0.270	0.220
2020/01/31 17:26:27.5	357.070	0.310	0.290	0.230
2020/01/31 17:26:27.6	357.060	0.280	0.310	0.230
2020/01/31 17:26:27.7	357.060	0.240	0.320	0.230
2020/01/31 17:26:27.8	357.060	0.210	0.330	0.220
2020/01/31 17:26:27.9	357.060	0.170	0.330	0.210
2020/01/31 17:26:28.0	357.060	0.120	0.330	0.190
2020/01/31 17:26:28.1	357.060	0.080	0.330	0.160
2020/01/31 17:26:28.2	357.070	0.040	0.310	0.130
2020/01/31 17:26:28.3	357.070	-0.010	0.300	0.100
2020/01/31 17:26:28.4	357.070	-0.060	0.270	0.060
2020/01/31 17:26:28.5	357.080	-0.100	0.250	0.020
2020/01/31 17:26:28.6	357.080	-0.150	0.210	-0.030
2020/01/31 17:26:28.7	357.090	-0.200	0.180	-0.080
2020/01/31 17:26:28.8	357.100	-0.240	0.140	-0.130
2020/01/31 17:26:28.9	357.110	-0.290	0.100	-0.190
2020/01/31 17:26:29.0	357.110	-0.330	0.050	-0.240
2020/01/31 17:26:29.1	357.120	-0.370	0.000	-0.300
2020/01/31 17:26:29.2	357.130	-0.410	-0.050	-0.360
2020/01/31 17:26:29.3	357.140	-0.440	-0.100	-0.420
2020/01/31 17:26:29.4	357.150	-0.470	-0.160	-0.490
2020/01/31 17:26:29.5	357.170	-0.500	-0.210	-0.550
2020/01/31 17:26:29.6	357.180	-0.530	-0.260	-0.620
2020/01/31 17:26:29.7	357.190	-0.550	-0.310	-0.680
2020/01/31 17:26:29.8	357.200	-0.570	-0.360	-0.750
2020/01/31 17:26:29.9	357.220	-0.580	-0.410	-0.810
2020/01/31 17:26:30.0	357.230	-0.590	-0.450	-0.870
2020/01/31 17:26:30.1	357.240	-0.590	-0.490	-0.920
2020/01/31 17:26:30.2	357.260	-0.590	-0.530	-0.980
2020/01/31 17:26:30.3	357.280	-0.590	-0.560	-1.030
2020/01/31 17:26:30.4	357.290	-0.580	-0.590	-1.070
2020/01/31 17:26:30.5	357.310	-0.570	-0.620	-1.120
2020/01/31 17:26:30.6	357.320	-0.550	-0.640	-1.150
2020/01/31 17:26:30.7	357.340	-0.530	-0.660	-1.190
2020/01/31 17:26:30.8	357.340	-0.510	-0.670	-1.210
2020/01/31 17:26:30.9	357.360	-0.490	-0.680	-1.230
2020/01/31 17:26:31.0	357.370	-0.460	-0.690	-1.250
2020/01/31 17:26:31.1	357.380	-0.430	-0.690	-1.260
2020/01/31 17:26:31.2	357.400	-0.400	-0.690	-1.260
2020/01/31 17:26:31.3	357.410	-0.370	-0.690	-1.260
2020/01/31 17:26:31.4	357.420	-0.340	-0.680	-1.250
2020/01/31 17:26:31.5	357.430	-0.310	-0.670	-1.240
2020/01/31 17:26:31.6	357.440	-0.280	-0.660	-1.230
2020/01/31 17:26:31.7	357.450	-0.250	-0.640	-1.210
2020/01/31 17:26:31.8	357.460	-0.220	-0.620	-1.190
2020/01/31 17:26:31.9	357.470	-0.190	-0.600	-1.160
2020/01/31 17:26:32.0	357.470	-0.170	-0.580	-1.140
2020/01/31 17:26:32.1	357.480	-0.140	-0.560	-1.110
2020/01/31 17:26:32.2	357.480	-0.120	-0.540	-1.080
2020/01/31 17:26:32.3	357.490	-0.100	-0.510	-1.050
2020/01/31 17:26:32.4	357.490	-0.080	-0.490	-1.020
2020/01/31 17:26:32.5	357.490	-0.070	-0.460	-0.980
2020/01/31 17:26:32.6	357.480	-0.050	-0.440	-0.950
2020/01/31 17:26:32.7	357.480	-0.040	-0.410	-0.910
2020/01/31 17:26:32.8	357.480	-0.030	-0.380	-0.870
2020/01/31 17:26:32.9	357.470	-0.030	-0.350	-0.830
2020/01/31 17:26:33.0	357.460	-0.020	-0.330	-0.790
2020/01/31 17:26:33.1	357.450	-0.020	-0.300	-0.740
2020/01/31 17:26:33.2	357.440	-0.020	-0.280	-0.700
2020/01/31 17:26:33.3	357.430	-0.020	-0.250	-0.650
2020/01/31 17:26:33.4	357.420	-0.020	-0.230	-0.600
2020/01/31 17:26:33.5	357.400	-0.020	-0.200	-0.550
2020/01/31 17:26:33.6	357.390	-0.030	-0.180	-0.500
2020/01/31 17:26:33.7	357.370	-0.030	-0.160	-0.450
2020/01/31 17:26:33.8	357.360	-0.030	-0.150	-0.400
2020/01/31 17:26:33.9	357.350	-0.040	-0.130	-0.350
2020/01/31 17:26:34.0	357.330	-0.040	-0.120	-0.300
2020/01/31 17:26:34.1	357.320	-0.050	-0.100	-0.250
2020/01/31 17:26:34.2	357.310	-0.050	-0.090	-0.200
2020/01/31 17:26:34.3	357.300	-0.050	-0.080	-0.160
2020/01/31 17:26:34.4	357.290	-0.050	-0.080	-0.110
2020/01/31 17:26:34.5	357.290	-0.050	-0.070	-0.070
2020/01/31 17:26:34.6	357.280	-0.050	-0.070	-0.040
2020/01/31 17:26:34.7	357.280	-0.040	-0.070	-0.000
2020/01/31 17:26:34.8	357.270	-0.040	-0.070	0.030
2020/01/31 17:26:34.9	357.270	-0.030	-0.070	0.060
2020/01/31 17:26:35.0	357.270	-0.020	-0.080	0.080
2020/01/31 17:26:35.1	357.270	-0.010	-0.080	0.110
2020/01/31 17:26:35.2	357.270	0.000	-0.090	0.130
2020/01/31 17:26:35.3	357.270	0.020	-0.100	0.150
2020/01/31 17:26:35.4	357.280	0.030	-0.100	0.160
2020/01/31 17:26:35.5	357.280	0.050	-0.110	0.170
2020/01/31 17:26:35.6	357.290	0.070	-0.120	0.180
2020/01/31 17:26:35.7	357.290	0.090	-0.130	0.190
2020/01/31 17:26:35.8	357.310	0.120	-0.140	0.190
2020/01/31 17:26:35.9	357.310	0.140	-0.150	0.200
2020/01/31 17:26:36.0	357.320	0.160	-0.160	0.200
2020/01/31 17:26:36.1	357.320	0.190	-0.170	0.200
2020/01/31 17:26:36.2	357.330	0.210	-0.180	0.210
2020/01/31 17:26:36.3	357.330	0.240	-0.190	0.210
2020/01/31 17:26:36.4	357.330	0.260	-0.200	0.210
2020/01/31 17:26:36.5	357.330	0.290	-0.210	0.210
2020/01/31 17:26:36.6	357.330	0.310	-0.220	0.210
2020/01/31 17:26:36.7	357.330	0.330	-0.230	0.210
2020/01/31 17:26:36.8	357.340	0.350	-0.230	0.210
2020/01/31 17:26:36.9	357.340	0.370	-0.240	0.210
2020/01/31 17:26:37.0	357.340	0.390	-0.250	0.200
2020/01/31 17:26:37.1	357.340	0.400	-0.260	0.190
2020/01/31 17:26:37.2	357.340	0.410	-0.270	0.180
2020/01/31 17:26:37.3	357.340	0.420	-0.280	0.170
2020/01/31 17:26:37.4	357.340	0.430	-0.290	0.160
2020/01/31 17:26:37.5	357.340	0.430	-0.300	0.140
2020/01/31 17:26:37.6	357.340	0.430	-0.310	0.120
2020/01/31 17:26:37.7	357.350	0.430	-0.320	0.090
2020/01/31 17:26:37.8	357.360	0.420	-0.330	0.070
2020/01/31 17:26:37.9	357.370	0.410	-0.340	0.040
2020/01/31 17:26:38.0	357.370	0.400	-0.350	0.010
2020/01/31 17:26:38.1	357.370	0.380	-0.360	-0.030
2020/01/31 17:26:38.2	357.380	0.370	-0.370	-0.070
2020/01/31 17:26:38.3	357.380	0.340	-0.380	-0.110
2020/01/31 17:26:38.4	357.380	0.320	-0.380	-0.150
2020/01/31 17:26:38.5	357.390	0.290	-0.390	-0.200
2020/01/31 17:26:38.6	357.390	0.260	-0.400	-0.240
2020/01/31 17:26:38.7	357.390	0.230	-0.400	-0.290
2020/01/31 17:26:38.8	357.410	0.200	-0.410	-0.340
2020/01/31 17:26:38.9	357.410	0.170	-0.410	-0.390
2020/01/31 17:26:39.0	357.400	0.130	-0.410	-0.440
2020/01/31 17:26:39.1	357.400	0.100	-0.410	-0.480
2020/01/31 17:26:39.2	357.400	0.060	-0.410	-0.530
2020/01/31 17:26:39.3	357.390	0.020	-0.400	-0.580
2020/01/31 17:26:39.4	357.390	-0.010	-0.400	-0.620
2020/01/31 17:26:39.5	357.380	-0.050	-0.390	-0.660
2020/01/31 17:26:39.6	357.370	-0.080	-0.380	-0.700
2020/01/31 17:26:39.7	357.370	-0.110	-0.370	-0.740
2020/01/31 17:26:39.8	357.360	-0.150	-0.360	-0.780
2020/01/31 17:26:39.9	357.350	-0.170	-0.350	-0.810
2020/01/31 17:26:40.0	357.340	-0.200	-0.330	-0.850
2020/01/31 17:26:40.1	357.340	-0.220	-0.320	-0.870
2020/01/31 17:26:40.2	357.330	-0.240	-0.310	-0.900
2020/01/31 17:26:40.3	357.320	-0.260	-0.290	-0.930
2020/01/31 17:26:40.4	357.320	-0.270	-0.280	-0.950
2020/01/31 17:26:40.5	357.320	-0.280	-0.270	-0.970
2020/01/31 17:26:40.6	357.320	-0.290	-0.260	-0.990
2020/01/31 17:26:40.7	357.320	-0.290	-0.250	-1.010
2020/01/31 17:26:40.8	357.330	-0.290	-0.240	-1.020
2020/01/31 17:26:40.9	357.340	-0.290	-0.240	-1.040
2020/01/31 17:26:41.0	357.350	-0.280	-0.230	-1.050
2020/01/31 17:26:41.1	357.370	-0.270	-0.230	-1.060
2020/01/31 17:26:41.2	357.390	-0.250	-0.230	-1.070
2020/01/31 17:26:41.3	357.400	-0.230	-0.230	-1.080
2020/01/31 17:26:41.4	357.420	-0.210	-0.230	-1.080
2020/01/31 17:26:41.5	357.450	-0.190	-0.240	-1.090
2020/01/31 17:26:41.6	357.470	-0.170	-0.240	-1.090
2020/01/31 17:26:41.7	357.490	-0.140	-0.240	-1.090
2020/01/31 17:26:41.8	357.520	-0.110	-0.250	-1.080
2020/01/31 17:26:41.9	357.540	-0.080	-0.260	-1.070
2020/01/31 17:26:42.0	357.560	-0.060	-0.260	-1.050
2020/01/31 17:26:42.1	357.580	-0.030	-0.260	-1.040
2020/01/31 17:26:42.2	357.600	0.000	-0.260	-1.010
2020/01/31 17:26:42.3	357.620	0.030	-0.260	-0.990
2020/01/31 17:26:42.4	357.630	0.060	-0.260	-0.950
2020/01/31 17:26:42.5	357.630	0.080	-0.250	-0.910
2020/01/31 17:26:42.6	357.640	0.100	-0.240	-0.870
2020/01/31 17:26:42.7	357.640	0.120	-0.230	-0.820
2020/01/31 17:26:42.8	357.620	0.140	-0.210	-0.770
2020/01/31 17:26:42.9	357.620	0.160	-0.190	-0.720
2020/01/31 17:26:43.0	357.600	0.170	-0.170	-0.660
2020/01/31 17:26:43.1	357.590	0.190	-0.150	-0.600
2020/01/31 17:26:43.2	357.570	0.200	-0.120	-0.530
2020/01/31 17:26:43.3	357.560	0.200	-0.090	-0.470
2020/01/31 17:26:43.4	357.530	0.210	-0.060	-0.400
2020/01/31 17:26:43.5	357.510	0.210	-0.030	-0.340
2020/01/31 17:26:43.6	357.490	0.210	0.010	-0.270
2020/01/31 17:26:43.7	357.460	0.200	0.040	-0.200
2020/01/31 17:26:43.8	357.420	0.200	0.080	-0.140
2020/01/31 17:26:43.9	357.400	0.190	0.110	-0.070
2020/01/31 17:26:44.0	357.370	0.180	0.140	-0.010
2020/01/31 17:26:44.1	357.350	0.170	0.160	0.050
2020/01/31 17:26:44.2	357.330	0.160	0.190	0.100
2020/01/31 17:26:44.3	357.310	0.150	0.200	0.150
2020/01/31 17:26:44.4	357.290	0.130	0.220	0.200
2020/01/31 17:26:44.5	357.270	0.120	0.230	0.240
2020/01/31 17:26:44.6	357.250	0.100	0.230	0.280
2020/01/31 17:26:44.7	357.240	0.090	0.230	0.310
2020/01/31 17:26:44.8	357.220	0.080	0.220	0.350
2020/01/31 17:26:44.9	357.200	0.060	0.210	0.370
2020/01/31 17:26:45.0	357.190	0.050	0.190	0.400
2020/01/31 17:26:45.1	357.180	0.030	0.170	0.410
2020/01/31 17:26:45.2	357.170	0.020	0.140	0.420
2020/01/31 17:26:45.3	357.170	0.000	0.110	0.430
2020/01/31 17:26:45.4	357.160	-0.010	0.070	0.430
2020/01/31 17:26:45.5	357.150	-0.020	0.030	0.420
2020/01/31 17:26:45.6	357.150	-0.040	-0.020	0.410
2020/01/31 17:26:45.7	357.150	-0.050	-0.070	0.400
2020/01/31 17:26:45.8	357.140	-0.060	-0.130	0.370
2020/01/31 17:26:45.9	357.150	-0.070	-0.180	0.340
2020/01/31 17:26:46.0	357.150	-0.080	-0.240	0.310
2020/01/31 17:26:46.1	357.160	-0.090	-0.300	0.270
2020/01/31 17:26:46.2	357.170	-0.090	-0.360	0.230
2020/01/31 17:26:46.3	357.180	-0.100	-0.430	0.180
2020/01/31 17:26:46.4	357.190	-0.110	-0.490	0.130
2020/01/31 17:26:46.5	357.210	-0.120	-0.550	0.070
2020/01/31 17:26:46.6	357.230	-0.120	-0.610	0.010
2020/01/31 17:26:46.7	357.240	-0.130	-0.660	-0.050
2020/01/31 17:26:46.8	357.260	-0.130	-0.710	-0.110
2020/01/31 17:26:46.9	357.280	-0.140	-0.760	-0.180
2020/01/31 17:26:47.0	357.300	-0.140	-0.810	-0.240
2020/01/31 17:26:47.1	357.320	-0.140	-0.850	-0.310
2020/01/31 17:26:47.2	357.340	-0.150	-0.880	-0.370
2020/01/31 17:26:47.3	357.350	-0.150	-0.910	-0.430
2020/01/31 17:26:47.4	357.370	-0.160	-0.930	-0.490
2020/01/31 17:26:47.5	357.380	-0.170	-0.950	-0.550
2020/01/31 17:26:47.6	357.400	-0.170	-0.960	-0.610
2020/01/31 17:26:47.7	357.410	-0.180	-0.960	-0.660
2020/01/31 17:26:47.8	357.420	-0.190	-0.960	-0.720
2020/01/31 17:26:47.9	357.430	-0.190	-0.950	-0.760
2020/01/31 17:26:48.0	357.430	-0.200	-0.940	-0.810
2020/01/31 17:26:48.1	357.440	-0.210	-0.910	-0.850
2020/01/31 17:26:48.2	357.440	-0.220	-0.890	-0.890
2020/01/31 17:26:48.3	357.440	-0.230	-0.860	-0.920
2020/01/31 17:26:48.4	357.450	-0.240	-0.820	-0.950
2020/01/31 17:26:48.5	357.440	-0.250	-0.780	-0.980
2020/01/31 17:26:48.6	357.440	-0.260	-0.730	-1.000
2020/01/31 17:26:48.7	357.440	-0.270	-0.690	-1.020
2020/01/31 17:26:48.8	357.430	-0.280	-0.640	-1.030
2020/01/31 17:26:48.9	357.430	-0.290	-0.580	-1.040
2020/01/31 17:26:49.0	357.430	-0.290	-0.530	-1.050
2020/01/31 17:26:49.1	357.430	-0.300	-0.480	-1.050
2020/01/31 17:26:49.2	357.430	-0.300	-0.420	-1.050
2020/01/31 17:26:49.3	357.430	-0.310	-0.370	-1.040
2020/01/31 17:26:49.4	357.430	-0.310	-0.320	-1.030
2020/01/31 17:26:49.5	357.430	-0.310	-0.270	-1.020
2020/01/31 17:26:49.6	357.430	-0.310	-0.220	-1.000
2020/01/31 17:26:49.7	357.430	-0.300	-0.170	-0.980
2020/01/31 17:26:49.8	357.440	-0.290	-0.130	-0.960
2020/01/31 17:26:49.9	357.450	-0.280	-0.080	-0.940
2020/01/31 17:26:50.0	357.450	-0.270	-0.050	-0.910
2020/01/31 17:26:50.1	357.460	-0.260	-0.010	-0.880
2020/01/31 17:26:50.2	357.460	-0.240	0.020	-0.850
2020/01/31 17:26:50.3	357.470	-0.220	0.050	-0.810
2020/01/31 17:26:50.4	357.470	-0.200	0.080	-0.770
2020/01/31 17:26:50.5	357.470	-0.180	0.100	-0.730
2020/01/31 17:26:50.6	357.480	-0.150	0.130	-0.690
2020/01/31 17:26:50.7	357.480	-0.130	0.150	-0.640
2020/01/31 17:26:50.8	357.470	-0.100	0.160	-0.590
2020/01/31 17:26:50.9	357.470	-0.070	0.180	-0.530
2020/01/31 17:26:51.0	357.460	-0.050	0.190	-0.480
2020/01/31 17:26:51.1	357.450	-0.020	0.200	-0.420
2020/01/31 17:26:51.2	357.440	0.010	0.210	-0.370
2020/01/31 17:26:51.3	357.420	0.040	0.220	-0.310
2020/01/31 17:26:51.4	357.400	0.060	0.230	-0.250
2020/01/31 17:26:51.5	357.380	0.090	0.240	-0.190
2020/01/31 17:26:51.6	357.360	0.110	0.240	-0.130
2020/01/31 17:26:51.7	357.330	0.140	0.240	-0.070
2020/01/31 17:26:51.8	357.290	0.160	0.250	-0.010
2020/01/31 17:26:51.9	357.250	0.180	0.250	0.050
2020/01/31 17:26:52.0	357.220	0.200	0.240	0.110
2020/01/31 17:26:52.1	357.180	0.220	0.240	0.160
2020/01/31 17:26:52.2	357.150	0.230	0.230	0.220
2020/01/31 17:26:52.3	357.110	0.250	0.220	0.270
2020/01/31 17:26:52.4	357.070	0.260	0.200	0.310
2020/01/31 17:26:52.5	357.030	0.270	0.190	0.360
2020/01/31 17:26:52.6	356.990	0.280	0.170	0.400
2020/01/31 17:26:52.7	356.950	0.290	0.150	0.430
2020/01/31 17:26:52.8	356.920	0.290	0.120	0.470
2020/01/31 17:26:52.9	356.880	0.300	0.090	0.500
2020/01/31 17:26:53.0	356.850	0.300	0.070	0.520
2020/01/31 17:26:53.1	356.820	0.300	0.030	0.540
2020/01/31 17:26:53.2	356.790	0.300	-0.000	0.550
2020/01/31 17:26:53.3	356.760	0.310	-0.040	0.570
2020/01/31 17:26:53.4	356.740	0.310	-0.080	0.570
2020/01/31 17:26:53.5	356.720	0.310	-0.120	0.570
2020/01/31 17:26:53.6	356.700	0.310	-0.160	0.570
2020/01/31 17:26:53.7	356.690	0.310	-0.210	0.560
2020/01/31 17:26:53.8	356.680	0.310	-0.250	0.550
2020/01/31 17:26:53.9	356.680	0.310	-0.300	0.540
2020/01/31 17:26:54.0	356.680	0.320	-0.350	0.520
2020/01/31 17:26:54.1	356.680	0.320	-0.390	0.490
2020/01/31 17:26:54.2	356.690	0.320	-0.440	0.470
2020/01/31 17:26:54.3	356.690	0.330	-0.490	0.440
2020/01/31 17:26:54.4	356.710	0.330	-0.530	0.400
2020/01/31 17:26:54.5	356.720	0.330	-0.580	0.370
2020/01/31 17:26:54.6	356.740	0.340	-0.620	0.330
2020/01/31 17:26:54.7	356.750	0.340	-0.660	0.300
2020/01/31 17:26:54.8	356.760	0.340	-0.690	0.260
2020/01/31 17:26:54.9	356.780	0.350	-0.730	0.220
2020/01/31 17:26:55.0	356.800	0.350	-0.760	0.190
2020/01/31 17:26:55.1	356.820	0.350	-0.780	0.150
2020/01/31 17:26:55.2	356.840	0.350	-0.810	0.110
2020/01/31 17:26:55.3	356.860	0.350	-0.820	0.080
2020/01/31 17:26:55.4	356.880	0.350	-0.840	0.040
2020/01/31 17:26:55.5	356.910	0.350	-0.850	0.010
2020/01/31 17:26:55.6	356.930	0.340	-0.850	-0.030
2020/01/31 17:26:55.7	356.950	0.330	-0.850	-0.060
2020/01/31 17:26:55.8	356.970	0.320	-0.850	-0.090
2020/01/31 17:26:55.9	356.990	0.310	-0.840	-0.120
2020/01/31 17:26:56.0	357.010	0.300	-0.830	-0.160
2020/01/31 17:26:56.1	357.030	0.280	-0.820	-0.190
2020/01/31 17:26:56.2	357.040	0.270	-0.800	-0.220
2020/01/31 17:26:56.3	357.060	0.250	-0.780	-0.250
2020/01/31 17:26:56.4	357.080	0.230	-0.750	-0.280
2020/01/31 17:26:56.5	357.100	0.210	-0.720	-0.310
2020/01/31 17:26:56.6	357.110	0.180	-0.690	-0.350
2020/01/31 17:26:56.7	357.130	0.160	-0.660	-0.380
2020/01/31 17:26:56.8	357.150	0.130	-0.620	-0.410
2020/01/31 17:26:56.9	357.170	0.100	-0.590	-0.440
2020/01/31 17:26:57.0	357.190	0.070	-0.550	-0.480
2020/01/31 17:26:57.1	357.210	0.040	-0.510	-0.510
2020/01/31 17:26:57.2	357.230	0.010	-0.470	-0.540
2020/01/31 17:26:57.3	357.250	-0.020	-0.430	-0.570
2020/01/31 17:26:57.4	357.260	-0.060	-0.390	-0.600
2020/01/31 17:26:57.5	357.280	-0.090	-0.350	-0.630
2020/01/31 17:26:57.6	357.300	-0.120	-0.310	-0.660
2020/01/31 17:26:57.7	357.320	-0.150	-0.270	-0.680
2020/01/31 17:26:57.8	357.340	-0.180	-0.230	-0.700
2020/01/31 17:26:57.9	357.360	-0.210	-0.190	-0.720
2020/01/31 17:26:58.0	357.370	-0.240	-0.150	-0.740
2020/01/31 17:26:58.1	357.390	-0.270	-0.110	-0.750
2020/01/31 17:26:58.2	357.400	-0.300	-0.070	-0.760
2020/01/31 17:26:58.3	357.410	-0.330	-0.040	-0.770
2020/01/31 17:26:58.4	357.420	-0.360	-0.000	-0.770
2020/01/31 17:26:58.5	357.420	-0.390	0.030	-0.770
2020/01/31 17:26:58.6	357.430	-0.410	0.070	-0.760
2020/01/31 17:26:58.7	357.430	-0.440	0.100	-0.760
2020/01/31 17:26:58.8	357.430	-0.460	0.120	-0.740
2020/01/31 17:26:58.9	357.430	-0.490	0.150	-0.730
2020/01/31 17:26:59.0	357.420	-0.510	0.180	-0.710
2020/01/31 17:26:59.1	357.420	-0.530	0.200	-0.690
2020/01/31 17:26:59.2	357.400	-0.550	0.220	-0.670
2020/01/31 17:26:59.3	357.390	-0.560	0.240	-0.650
2020/01/31 17:26:59.4	357.380	-0.580	0.260	-0.630
2020/01/31 17:26:59.5	357.360	-0.600	0.280	-0.600
2020/01/31 17:26:59.6	357.340	-0.610	0.300	-0.580
2020/01/31 17:26:59.7	357.310	-0.620	0.310	-0.550
2020/01/31 17:26:59.8	357.280	-0.630	0.330	-0.530
2020/01/31 17:26:59.9	357.250	-0.640	0.340	-0.510
2020/01/31 17:27:00.0	357.220	-0.650	0.350	-0.480
2020/01/31 17:27:00.1	357.190	-0.650	0.350	-0.460
2020/01/31 17:27:00.2	357.160	-0.650	0.360	-0.430
2020/01/31 17:27:00.3	357.120	-0.650	0.370	-0.410
2020/01/31 17:27:00.4	357.090	-0.650	0.370	-0.380
2020/01/31 17:27:00.5	357.050	-0.650	0.370	-0.350
2020/01/31 17:27:00.6	357.010	-0.640	0.370	-0.330
2020/01/31 17:27:00.7	356.970	-0.630	0.360	-0.300
2020/01/31 17:27:00.8	356.930	-0.620	0.360	-0.270
2020/01/31 17:27:00.9	356.900	-0.610	0.350	-0.240
2020/01/31 17:27:01.0	356.860	-0.590	0.330	-0.210
2020/01/31 17:27:01.1	356.820	-0.570	0.320	-0.180
2020/01/31 17:27:01.2	356.780	-0.550	0.300	-0.150
2020/01/31 17:27:01.3	356.740	-0.530	0.280	-0.110
2020/01/31 17:27:01.4	356.710	-0.500	0.250	-0.080
2020/01/31 17:27:01.5	356.670	-0.470	0.220	-0.050
2020/01/31 17:27:01.6	356.640	-0.440	0.190	-0.010
2020/01/31 17:27:01.7	356.610	-0.400	0.160	0.020
2020/01/31 17:27:01.8	356.580	-0.370	0.110	0.050
2020/01/31 17:27:01.9	356.560	-0.330	0.070	0.080
2020/01/31 17:27:02.0	356.540	-0.280	0.020	0.110
2020/01/31 17:27:02.1	356.520	-0.240	-0.030	0.140
2020/01/31 17:27:02.2	356.500	-0.190	-0.080	0.160
2020/01/31 17:27:02.3	356.490	-0.140	-0.130	0.190
2020/01/31 17:27:02.4	356.480	-0.090	-0.190	0.210
2020/01/31 17:27:02.5	356.470	-0.040	-0.250	0.230
2020/01/31 17:27:02.6	356.470	0.010	-0.310	0.250
2020/01/31 17:27:02.7	356.470	0.070	-0.370	0.260
2020/01/31 17:27:02.8	356.470	0.120	-0.430	0.280
2020/01/31 17:27:02.9	356.470	0.180	-0.490	0.290
2020/01/31 17:27:03.0	356.480	0.240	-0.550	0.300
2020/01/31 17:27:03.1	356.480	0.300	-0.610	0.310
2020/01/31 17:27:03.2	356.490	0.360	-0.670	0.320
2020/01/31 17:27:03.3	356.500	0.410	-0.720	0.330
2020/01/31 17:27:03.4	356.510	0.470	-0.770	0.340
2020/01/31 17:27:03.5	356.520	0.530	-0.820	0.350
2020/01/31 17:27:03.6	356.530	0.580	-0.870	0.350
2020/01/31 17:27:03.7	356.540	0.630	-0.910	0.360
2020/01/31 17:27:03.8	356.560	0.690	-0.950	0.370
2020/01/31 17:27:03.9	356.570	0.730	-0.980	0.380
2020/01/31 17:27:04.0	356.590	0.780	-1.010	0.390
2020/01/31 17:27:04.1	356.600	0.820	-1.030	0.400
2020/01/31 17:27:04.2	356.620	0.860	-1.040	0.410
2020/01/31 17:27:04.3	356.640	0.900	-1.060	0.410
2020/01/31 17:27:04.4	356.650	0.930	-1.060	0.420
2020/01/31 17:27:04.5	356.670	0.950	-1.060	0.420
2020/01/31 17:27:04.6	356.690	0.980	-1.060	0.420
2020/01/31 17:27:04.7	356.720	0.990	-1.050	0.420
2020/01/31 17:27:04.8	356.740	1.000	-1.040	0.410
2020/01/31 17:27:04.9	356.760	1.010	-1.030	0.400
2020/01/31 17:27:05.0	356.790	1.010	-1.010	0.390
2020/01/31 17:27:05.1	356.820	1.010	-0.990	0.370
2020/01/31 17:27:05.2	356.850	1.000	-0.970	0.350
2020/01/31 17:27:05.3	356.880	0.980	-0.940	0.330
2020/01/31 17:27:05.4	356.910	0.960	-0.920	0.290
2020/01/31 17:27:05.5	356.950	0.930	-0.890	0.260
2020/01/31 17:27:05.6	356.980	0.900	-0.860	0.220
2020/01/31 17:27:05.7	357.020	0.870	-0.830	0.180
2020/01/31 17:27:05.8	357.060	0.820	-0.800	0.130
2020/01/31 17:27:05.9	357.100	0.780	-0.770	0.080
2020/01/31 17:27:06.0	357.140	0.730	-0.730	0.020
2020/01/31 17:27:06.1	357.180	0.670	-0.700	-0.030
2020/01/31 17:27:06.2	357.220	0.620	-0.660	-0.090
2020/01/31 17:27:06.3	357.260	0.560	-0.630	-0.150
2020/01/31 17:27:06.4	357.300	0.490	-0.590	-0.210
2020/01/31 17:27:06.5	357.330	0.420	-0.550	-0.270
2020/01/31 17:27:06.6	357.370	0.350	-0.510	-0.330
2020/01/31 17:27:06.7	357.400	0.280	-0.470	-0.390
2020/01/31 17:27:06.8	357.460	0.210	-0.430	-0.450
2020/01/31 17:27:06.9	357.480	0.130	-0.380	-0.500
2020/01/31 17:27:07.0	357.510	0.060	-0.330	-0.560
2020/01/31 17:27:07.1	357.530	-0.020	-0.280	-0.610
2020/01/31 17:27:07.2	357.550	-0.100	-0.230	-0.650
2020/01/31 17:27:07.3	357.560	-0.180	-0.180	-0.700
2020/01/31 17:27:07.4	357.570	-0.250	-0.130	-0.740
2020/01/31 17:27:07.5	357.570	-0.330	-0.070	-0.770
2020/01/31 17:27:07.6	357.570	-0.400	-0.010	-0.810
2020/01/31 17:27:07.7	357.560	-0.480	0.040	-0.840
2020/01/31 17:27:07.8	357.560	-0.550	0.100	-0.860
2020/01/31 17:27:07.9	357.540	-0.620	0.160	-0.880
2020/01/31 17:27:08.0	357.530	-0.690	0.220	-0.900
2020/01/31 17:27:08.1	357.500	-0.750	0.270	-0.910
2020/01/31 17:27:08.2	357.480	-0.810	0.330	-0.920
2020/01/31 17:27:08.3	357.450	-0.860	0.380	-0.930
2020/01/31 17:27:08.4	357.420	-0.920	0.430	-0.930
2020/01/31 17:27:08.5	357.390	-0.960	0.470	-0.930
2020/01/31 17:27:08.6	357.360	-1.000	0.520	-0.920
2020/01/31 17:27:08.7	357.320	-1.040	0.550	-0.920
2020/01/31 17:27:08.8	357.290	-1.070	0.590	-0.900
2020/01/31 17:27:08.9	357.250	-1.100	0.620	-0.890
2020/01/31 17:27:09.0	357.210	-1.120	0.640	-0.870
2020/01/31 17:27:09.1	357.170	-1.130	0.670	-0.850
2020/01/31 17:27:09.2	357.130	-1.140	0.680	-0.830
2020/01/31 17:27:09.3	357.080	-1.140	0.690	-0.810
2020/01/31 17:27:09.4	357.040	-1.130	0.700	-0.780
2020/01/31 17:27:09.5	357.000	-1.120	0.700	-0.750
2020/01/31 17:27:09.6	356.960	-1.100	0.700	-0.720
2020/01/31 17:27:09.7	356.910	-1.080	0.690	-0.680
2020/01/31 17:27:09.8	356.880	-1.050	0.670	-0.640
2020/01/31 17:27:09.9	356.830	-1.010	0.650	-0.600
2020/01/31 17:27:10.0	356.790	-0.960	0.630	-0.560
2020/01/31 17:27:10.1	356.750	-0.920	0.600	-0.520
2020/01/31 17:27:10.2	356.710	-0.860	0.570	-0.470
2020/01/31 17:27:10.3	356.680	-0.800	0.530	-0.420
2020/01/31 17:27:10.4	356.640	-0.740	0.480	-0.370
2020/01/31 17:27:10.5	356.610	-0.670	0.440	-0.320
2020/01/31 17:27:10.6	356.570	-0.590	0.390	-0.270
2020/01/31 17:27:10.7	356.540	-0.520	0.330	-0.220
2020/01/31 17:27:10.8	356.510	-0.440	0.280	-0.170
2020/01/31 17:27:10.9	356.480	-0.360	0.220	-0.120
2020/01/31 17:27:11.0	356.450	-0.270	0.160	-0.070
2020/01/31 17:27:11.1	356.430	-0.190	0.100	-0.030
2020/01/31 17:27:11.2	356.410	-0.100	0.030	0.020
2020/01/31 17:27:11.3	356.390	-0.020	-0.030	0.060
2020/01/31 17:27:11.4	356.370	0.070	-0.100	0.100
2020/01/31 17:27:11.5	356.360	0.150	-0.160	0.140
2020/01/31 17:27:11.6	356.350	0.230	-0.220	0.180
2020/01/31 17:27:11.7	356.340	0.310	-0.290	0.210
2020/01/31 17:27:11.8	356.330	0.390	-0.350	0.240
2020/01/31 17:27:11.9	356.320	0.460	-0.410	0.270
2020/01/31 17:27:12.0	356.320	0.530	-0.460	0.290
2020/01/31 17:27:12.1	356.320	0.600	-0.510	0.310
2020/01/31 17:27:12.2	356.320	0.660	-0.560	0.330
2020/01/31 17:27:12.3	356.330	0.720	-0.610	0.350
2020/01/31 17:27:12.4	356.330	0.770	-0.650	0.360
2020/01/31 17:27:12.5	356.340	0.810	-0.690	0.370
2020/01/31 17:27:12.6	356.350	0.850	-0.720	0.380
2020/01/31 17:27:12.7	356.360	0.890	-0.760	0.390
2020/01/31 17:27:12.8	356.380	0.910	-0.780	0.400
2020/01/31 17:27:12.9	356.390	0.930	-0.800	0.400
2020/01/31 17:27:13.0	356.410	0.950	-0.820	0.400
2020/01/31 17:27:13.1	356.420	0.960	-0.830	0.400
2020/01/31 17:27:13.2	356.440	0.960	-0.840	0.400
2020/01/31 17:27:13.3	356.460	0.960	-0.850	0.390
2020/01/31 17:27:13.4	356.490	0.950	-0.850	0.380
2020/01/31 17:27:13.5	356.510	0.930	-0.850	0.380
2020/01/31 17:27:13.6	356.530	0.910	-0.850	0.370
2020/01/31 17:27:13.7	356.560	0.880	-0.850	0.350
2020/01/31 17:27:13.8	356.580	0.850	-0.840	0.340
2020/01/31 17:27:13.9	356.610	0.820	-0.840	0.320
2020/01/31 17:27:14.0	356.640	0.780	-0.830	0.300
2020/01/31 17:27:14.1	356.670	0.740	-0.810	0.280
2020/01/31 17:27:14.2	356.690	0.690	-0.800	0.250
2020/01/31 17:27:14.3	356.720	0.640	-0.790	0.230
2020/01/31 17:27:14.4	356.750	0.590	-0.780	0.190
2020/01/31 17:27:14.5	356.780	0.540	-0.770	0.160
2020/01/31 17:27:14.6	356.810	0.480	-0.750	0.120
2020/01/31 17:27:14.7	356.850	0.430	-0.740	0.080
2020/01/31 17:27:14.8	356.880	0.370	-0.730	0.040
2020/01/31 17:27:14.9	356.910	0.310	-0.720	0.000
2020/01/31 17:27:15.0	356.940	0.260	-0.710	-0.040
2020/01/31 17:27:15.1	356.970	0.200	-0.700	-0.090
2020/01/31 17:27:15.2	357.000	0.150	-0.680	-0.130
2020/01/31 17:27:15.3	357.030	0.090	-0.670	-0.180
2020/01/31 17:27:15.4	357.060	0.040	-0.660	-0.220
2020/01/31 17:27:15.5	357.080	-0.010	-0.640	-0.260
2020/01/31 17:27:15.6	357.110	-0.060	-0.620	-0.310
2020/01/31 17:27:15.7	357.130	-0.110	-0.600	-0.350
2020/01/31 17:27:15.8	357.150	-0.160	-0.580	-0.390
2020/01/31 17:27:15.9	357.170	-0.210	-0.560	-0.430
2020/01/31 17:27:16.0	357.190	-0.250	-0.530	-0.470
2020/01/31 17:27:16.1	357.200	-0.290	-0.500	-0.500
2020/01/31 17:27:16.2	357.220	-0.330	-0.470	-0.540
2020/01/31 17:27:16.3	357.230	-0.370	-0.430	-0.570
2020/01/31 17:27:16.4	357.240	-0.410	-0.390	-0.600
2020/01/31 17:27:16.5	357.250	-0.450	-0.350	-0.630
2020/01/31 17:27:16.6	357.260	-0.490	-0.310	-0.650
2020/01/31 17:27:16.7	357.260	-0.520	-0.260	-0.680
2020/01/31 17:27:16.8	357.260	-0.550	-0.210	-0.700
2020/01/31 17:27:16.9	357.260	-0.580	-0.160	-0.720
2020/01/31 17:27:17.0	357.260	-0.610	-0.110	-0.730
2020/01/31 17:27:17.1	357.260	-0.630	-0.060	-0.750
2020/01/31 17:27:17.2	357.260	-0.660	-0.010	-0.760
2020/01/31 17:27:17.3	357.250	-0.680	0.040	-0.770
2020/01/31 17:27:17.4	357.250	-0.690	0.090	-0.780
2020/01/31 17:27:17.5	357.240	-0.710	0.140	-0.780
2020/01/31 17:27:17.6	357.230	-0.720	0.180	-0.780
2020/01/31 17:27:17.7	357.220	-0.730	0.230	-0.780
2020/01/31 17:27:17.8	357.210	-0.740	0.270	-0.770
2020/01/31 17:27:17.9	357.200	-0.740	0.310	-0.760
2020/01/31 17:27:18.0	357.190	-0.740	0.340	-0.750
2020/01/31 17:27:18.1	357.170	-0.740	0.370	-0.730
2020/01/31 17:27:18.2	357.160	-0.730	0.400	-0.700
2020/01/31 17:27:18.3	357.140	-0.720	0.420	-0.680
2020/01/31 17:27:18.4	357.120	-0.710	0.430	-0.650
2020/01/31 17:27:18.5	357.100	-0.690	0.440	-0.610
2020/01/31 17:27:18.6	357.080	-0.670	0.450	-0.580
2020/01/31 17:27:18.7	357.060	-0.640	0.450	-0.540
2020/01/31 17:27:18.8	357.040	-0.610	0.440	-0.490
2020/01/31 17:27:18.9	357.020	-0.580	0.420	-0.450
2020/01/31 17:27:19.0	357.000	-0.540	0.400	-0.400
2020/01/31 17:27:19.1	356.980	-0.500	0.370	-0.350
2020/01/31 17:27:19.2	356.960	-0.460	0.340	-0.310
2020/01/31 17:27:19.3	356.940	-0.410	0.300	-0.260
2020/01/31 17:27:19.4	356.920	-0.360	0.260	-0.210
2020/01/31 17:27:19.5	356.900	-0.310	0.210	-0.160
2020/01/31 17:27:19.6	356.880	-0.250	0.160	-0.120
2020/01/31 17:27:19.7	356.850	-0.190	0.100	-0.070
2020/01/31 17:27:19.8	356.840	-0.130	0.040	-0.030
2020/01/31 17:27:19.9	356.820	-0.070	-0.030	0.010
2020/01/31 17:27:20.0	356.800	-0.010	-0.090	0.050
2020/01/31 17:27:20.1	356.780	0.060	-0.160	0.090
2020/01/31 17:27:20.2	356.760	0.120	-0.230	0.120
2020/01/31 17:27:20.3	356.750	0.190	-0.300	0.150
2020/01/31 17:27:20.4	356.730	0.250	-0.370	0.180
2020/01/31 17:27:20.5	356.710	0.310	-0.440	0.200
2020/01/31 17:27:20.6	356.700	0.380	-0.500	0.230
2020/01/31 17:27:20.7	356.680	0.440	-0.560	0.250
2020/01/31 17:27:20.8	356.660	0.500	-0.620	0.270
2020/01/31 17:27:20.9	356.650	0.550	-0.670	0.290
2020/01/31 17:27:21.0	356.640	0.610	-0.720	0.310
2020/01/31 17:27:21.1	356.630	0.660	-0.760	0.320
2020/01/31 17:27:21.2	356.620	0.700	-0.800	0.340
2020/01/31 17:27:21.3	356.610	0.750	-0.830	0.360
2020/01/31 17:27:21.4	356.600	0.790	-0.850	0.380
2020/01/31 17:27:21.5	356.590	0.820	-0.870	0.390
2020/01/31 17:27:21.6	356.590	0.850	-0.880	0.410
2020/01/31 17:27:21.7	356.580	0.880	-0.880	0.430
2020/01/31 17:27:21.8	356.570	0.900	-0.880	0.440
2020/01/31 17:27:21.9	356.560	0.910	-0.870	0.460
2020/01/31 17:27:22.0	356.560	0.920	-0.850	0.480
2020/01/31 17:27:22.1	356.550	0.920	-0.820	0.490
2020/01/31 17:27:22.2	356.530	0.920	-0.790	0.510
2020/01/31 17:27:22.3	356.520	0.900	-0.750	0.520
2020/01/31 17:27:22.4	356.510	0.890	-0.710	0.530
2020/01/31 17:27:22.5	356.490	0.870	-0.660	0.540
2020/01/31 17:27:22.6	356.480	0.840	-0.600	0.550
2020/01/31 17:27:22.7	356.460	0.800	-0.550	0.550
2020/01/31 17:27:22.8	356.450	0.760	-0.490	0.550
2020/01/31 17:27:22.9	356.440	0.720	-0.430	0.540
2020/01/31 17:27:23.0	356.420	0.670	-0.360	0.530
2020/01/31 17:27:23.1	356.400	0.610	-0.300	0.510
2020/01/31 17:27:23.2	356.390	0.550	-0.240	0.480
2020/01/31 17:27:23.3	356.370	0.490	-0.180	0.450
2020/01/31 17:27:23.4	356.360	0.430	-0.110	0.410
2020/01/31 17:27:23.5	356.350	0.360	-0.060	0.370
2020/01/31 17:27:23.6	356.340	0.290	-0.000	0.330
2020/01/31 17:27:23.7	356.340	0.220	0.050	0.280
2020/01/31 17:27:23.8	356.330	0.150	0.100	0.220
2020/01/31 17:27:23.9	356.330	0.080	0.140	0.160
2020/01/31 17:27:24.0	356.340	0.010	0.170	0.100
2020/01/31 17:27:24.1	356.340	-0.060	0.210	0.040
2020/01/31 17:27:24.2	356.360	-0.130	0.230	-0.020
2020/01/31 17:27:24.3	356.370	-0.200	0.250	-0.090
2020/01/31 17:27:24.4	356.390	-0.260	0.270	-0.160
2020/01/31 17:27:24.5	356.410	-0.320	0.270	-0.230
2020/01/31 17:27:24.6	356.440	-0.370	0.280	-0.300
2020/01/31 17:27:24.7	356.460	-0.420	0.280	-0.360
2020/01/31 17:27:24.8	356.490	-0.470	0.270	-0.430
2020/01/31 17:27:24.9	356.520	-0.510	0.260	-0.490
2020/01/31 17:27:25.0	356.550	-0.550	0.250	-0.550
2020/01/31 17:27:25.1	356.570	-0.580	0.230	-0.610
2020/01/31 17:27:25.2	356.600	-0.610	0.210	-0.660
2020/01/31 17:27:25.3	356.630	-0.630	0.190	-0.710
2020/01/31 17:27:25.4	356.650	-0.650	0.160	-0.760
2020/01/31 17:27:25.5	356.680	-0.660	0.130	-0.800
2020/01/31 17:27:25.6	356.700	-0.670	0.100	-0.840
2020/01/31 17:27:25.7	356.730	-0.670	0.070	-0.870
2020/01/31 17:27:25.8	356.750	-0.670	0.040	-0.910
2020/01/31 17:27:25.9	356.770	-0.660	-0.000	-0.940
2020/01/31 17:27:26.0	356.790	-0.650	-0.040	-0.960
2020/01/31 17:27:26.1	356.810	-0.630	-0.080	-0.990
2020/01/31 17:27:26.2	356.830	-0.610	-0.110	-1.010
2020/01/31 17:27:26.3	356.860	-0.590	-0.150	-1.020
2020/01/31 17:27:26.4	356.870	-0.560	-0.190	-1.040
2020/01/31 17:27:26.5	356.890	-0.530	-0.240	-1.050
2020/01/31 17:27:26.6	356.910	-0.490	-0.280	-1.060
2020/01/31 17:27:26.7	356.930	-0.460	-0.320	-1.060
2020/01/31 17:27:26.8	356.950	-0.420	-0.360	-1.060
2020/01/31 17:27:26.9	356.960	-0.380	-0.400	-1.050
2020/01/31 17:27:27.0	356.970	-0.340	-0.440	-1.040
2020/01/31 17:27:27.1	356.980	-0.300	-0.470	-1.030
2020/01/31 17:27:27.2	356.990	-0.260	-0.510	-1.010
2020/01/31 17:27:27.3	356.990	-0.220	-0.540	-0.990
2020/01/31 17:27:27.4	357.000	-0.180	-0.570	-0.970
2020/01/31 17:27:27.5	356.990	-0.140	-0.590	-0.940
2020/01/31 17:27:27.6	356.990	-0.100	-0.620	-0.900
2020/01/31 17:27:27.7	356.980	-0.070	-0.640	-0.860
2020/01/31 17:27:27.8	356.980	-0.030	-0.650	-0.820
2020/01/31 17:27:27.9	356.970	-0.000	-0.660	-0.780
2020/01/31 17:27:28.0	356.960	0.030	-0.670	-0.730
2020/01/31 17:27:28.1	356.940	0.050	-0.680	-0.680
2020/01/31 17:27:28.2	356.920	0.070	-0.680	-0.630
2020/01/31 17:27:28.3	356.900	0.100	-0.670	-0.580
2020/01/31 17:27:28.4	356.880	0.110	-0.670	-0.530
2020/01/31 17:27:28.5	356.860	0.130	-0.660	-0.480
2020/01/31 17:27:28.6	356.830	0.140	-0.640	-0.430
2020/01/31 17:27:28.7	356.800	0.150	-0.630	-0.370
2020/01/31 17:27:28.8	356.770	0.150	-0.610	-0.320
2020/01/31 17:27:28.9	356.740	0.160	-0.590	-0.270
2020/01/31 17:27:29.0	356.720	0.160	-0.560	-0.220
2020/01/31 17:27:29.1	356.690	0.160	-0.540	-0.170
2020/01/31 17:27:29.2	356.660	0.150	-0.510	-0.130
2020/01/31 17:27:29.3	356.630	0.150	-0.480	-0.080
2020/01/31 17:27:29.4	356.600	0.140	-0.450	-0.040
2020/01/31 17:27:29.5	356.570	0.140	-0.420	-0.000
2020/01/31 17:27:29.6	356.540	0.130	-0.380	0.030
2020/01/31 17:27:29.7	356.510	0.120	-0.350	0.070
2020/01/31 17:27:29.8	356.480	0.110	-0.320	0.090
2020/01/31 17:27:29.9	356.450	0.100	-0.290	0.120
2020/01/31 17:27:30.0	356.420	0.090	-0.260	0.140
2020/01/31 17:27:30.1	356.390	0.080	-0.230	0.150
2020/01/31 17:27:30.2	356.370	0.070	-0.200	0.170
2020/01/31 17:27:30.3	356.340	0.060	-0.170	0.180
2020/01/31 17:27:30.4	356.320	0.050	-0.150	0.180
2020/01/31 17:27:30.5	356.300	0.040	-0.130	0.180
2020/01/31 17:27:30.6	356.280	0.030	-0.110	0.170
2020/01/31 17:27:30.7	356.260	0.020	-0.090	0.160
2020/01/31 17:27:30.8	356.240	0.010	-0.070	0.150
2020/01/31 17:27:30.9	356.220	0.000	-0.060	0.140
2020/01/31 17:27:31.0	356.210	-0.000	-0.050	0.120
2020/01/31 17:27:31.1	356.200	-0.010	-0.040	0.090
2020/01/31 17:27:31.2	356.190	-0.020	-0.030	0.070
2020/01/31 17:27:31.3	356.180	-0.020	-0.020	0.040
2020/01/31 17:27:31.4	356.170	-0.030	-0.020	0.010
2020/01/31 17:27:31.5	356.160	-0.030	-0.020	-0.010
2020/01/31 17:27:31.6	356.160	-0.030	-0.020	-0.040
2020/01/31 17:27:31.7	356.150	-0.030	-0.030	-0.070
2020/01/31 17:27:31.8	356.150	-0.040	-0.030	-0.100
2020/01/31 17:27:31.9	356.150	-0.040	-0.040	-0.130
2020/01/31 17:27:32.0	356.150	-0.030	-0.050	-0.160
2020/01/31 17:27:32.1	356.150	-0.030	-0.060	-0.180
2020/01/31 17:27:32.2	356.150	-0.030	-0.080	-0.210
2020/01/31 17:27:32.3	356.160	-0.020	-0.090	-0.240
2020/01/31 17:27:32.4	356.170	-0.020	-0.110	-0.260
2020/01/31 17:27:32.5	356.170	-0.010	-0.130	-0.290
2020/01/31 17:27:32.6	356.190	-0.000	-0.150	-0.310
2020/01/31 17:27:32.7	356.200	0.010	-0.170	-0.330
2020/01/31 17:27:32.8	356.200	0.020	-0.200	-0.350
2020/01/31 17:27:32.9	356.220	0.030	-0.220	-0.370
2020/01/31 17:27:33.0	356.240	0.040	-0.240	-0.390
2020/01/31 17:27:33.1	356.260	0.050	-0.260	-0.400
2020/01/31 17:27:33.2	356.280	0.060	-0.280	-0.410
2020/01/31 17:27:33.3	356.300	0.080	-0.300	-0.420
2020/01/31 17:27:33.4	356.320	0.090	-0.320	-0.430
2020/01/31 17:27:33.5	356.340	0.110	-0.340	-0.440
2020/01/31 17:27:33.6	356.370	0.120	-0.350	-0.440
2020/01/31 17:27:33.7	356.390	0.140	-0.360	-0.430
2020/01/31 17:27:33.8	356.410	0.150	-0.370	-0.430
2020/01/31 17:27:33.9	356.420	0.170	-0.370	-0.420
2020/01/31 17:27:34.0	356.440	0.180	-0.370	-0.400
2020/01/31 17:27:34.1	356.450	0.190	-0.370	-0.380
2020/01/31 17:27:34.2	356.470	0.210	-0.360	-0.360
2020/01/31 17:27:34.3	356.470	0.220	-0.350	-0.330
2020/01/31 17:27:34.4	356.480	0.230	-0.340	-0.300
2020/01/31 17:27:34.5	356.480	0.240	-0.320	-0.270
2020/01/31 17:27:34.6	356.490	0.240	-0.300	-0.240
2020/01/31 17:27:34.7	356.480	0.250	-0.280	-0.200
2020/01/31 17:27:34.8	356.490	0.250	-0.260	-0.160
2020/01/31 17:27:34.9	356.480	0.250	-0.230	-0.120
2020/01/31 17:27:35.0	356.480	0.250	-0.210	-0.080
2020/01/31 17:27:35.1	356.470	0.250	-0.190	-0.040
2020/01/31 17:27:35.2	356.460	0.250	-0.160	-0.000
2020/01/31 17:27:35.3	356.450	0.250	-0.140	0.030
2020/01/31 17:27:35.4	356.440	0.240	-0.120	0.070
2020/01/31 17:27:35.5	356.430	0.240	-0.100	0.100
2020/01/31 17:27:35.6	356.420	0.230	-0.080	0.130
2020/01/31 17:27:35.7	356.410	0.220	-0.070	0.160
2020/01/31 17:27:35.8	356.390	0.220	-0.060	0.190
2020/01/31 17:27:35.9	356.380	0.210	-0.050	0.210
2020/01/31 17:27:36.0	356.370	0.200	-0.050	0.230
2020/01/31 17:27:36.1	356.360	0.190	-0.050	0.250
2020/01/31 17:27:36.2	356.350	0.180	-0.050	0.260
2020/01/31 17:27:36.3	356.340	0.170	-0.060	0.270
2020/01/31 17:27:36.4	356.330	0.160	-0.070	0.280
2020/01/31 17:27:36.5	356.330	0.150	-0.080	0.280
2020/01/31 17:27:36.6	356.320	0.140	-0.100	0.280
2020/01/31 17:27:36.7	356.320	0.140	-0.120	0.280
2020/01/31 17:27:36.8	356.310	0.130	-0.150	0.280
2020/01/31 17:27:36.9	356.310	0.130	-0.170	0.270
2020/01/31 17:27:37.0	356.310	0.120	-0.200	0.260
2020/01/31 17:27:37.1	356.300	0.120	-0.230	0.250
2020/01/31 17:27:37.2	356.300	0.110	-0.260	0.230
2020/01/31 17:27:37.3	356.300	0.110	-0.290	0.210
2020/01/31 17:27:37.4	356.300	0.110	-0.320	0.190
2020/01/31 17:27:37.5	356.300	0.110	-0.360	0.170
2020/01/31 17:27:37.6	356.300	0.110	-0.390	0.150
2020/01/31 17:27:37.7	356.310	0.100	-0.420	0.130
2020/01/31 17:27:37.8	356.300	0.100	-0.450	0.100
2020/01/31 17:27:37.9	356.300	0.100	-0.480	0.070
2020/01/31 17:27:38.0	356.310	0.100	-0.510	0.050
2020/01/31 17:27:38.1	356.310	0.090	-0.530	0.020
2020/01/31 17:27:38.2	356.310	0.090	-0.550	-0.010
2020/01/31 17:27:38.3	356.310	0.080	-0.570	-0.040
2020/01/31 17:27:38.4	356.320	0.080	-0.590	-0.060
2020/01/31 17:27:38.5	356.320	0.070	-0.600	-0.090
2020/01/31 17:27:38.6	356.330	0.060	-0.610	-0.120
2020/01/31 17:27:38.7	356.330	0.050	-0.620	-0.150
2020/01/31 17:27:38.8	356.330	0.040	-0.620	-0.180
2020/01/31 17:27:38.9	356.340	0.030	-0.620	-0.210
2020/01/31 17:27:39.0	356.350	0.010	-0.620	-0.240
2020/01/31 17:27:39.1	356.350	-0.000	-0.610	-0.270
2020/01/31 17:27:39.2	356.360	-0.020	-0.600	-0.290
2020/01/31 17:27:39.3	356.370	-0.040	-0.590	-0.320
2020/01/31 17:27:39.4	356.370	-0.050	-0.570	-0.340
2020/01/31 17:27:39.5	356.380	-0.080	-0.540	-0.360
2020/01/31 17:27:39.6	356.380	-0.100	-0.520	-0.380
2020/01/31 17:27:39.7	356.380	-0.120	-0.490	-0.390
2020/01/31 17:27:39.8	356.390	-0.140	-0.460	-0.400
2020/01/31 17:27:39.9	356.390	-0.170	-0.420	-0.410
2020/01/31 17:27:40.0	356.390	-0.190	-0.380	-0.420
2020/01/31 17:27:40.1	356.390	-0.210	-0.340	-0.430
2020/01/31 17:27:40.2	356.380	-0.240	-0.300	-0.440
2020/01/31 17:27:40.3	356.380	-0.260	-0.260	-0.440
2020/01/31 17:27:40.4	356.370	-0.280	-0.220	-0.440
2020/01/31 17:27:40.5	356.370	-0.310	-0.180	-0.450
2020/01/31 17:27:40.6	356.360	-0.330	-0.130	-0.450
2020/01/31 17:27:40.7	356.350	-0.340	-0.090	-0.440
2020/01/31 17:27:40.8	356.350	-0.360	-0.050	-0.440
2020/01/31 17:27:40.9	356.350	-0.370	-0.010	-0.430
2020/01/31 17:27:41.0	356.340	-0.380	0.030	-0.430
2020/01/31 17:27:41.1	356.330	-0.390	0.060	-0.420
2020/01/31 17:27:41.2	356.330	-0.400	0.090	-0.410
2020/01/31 17:27:41.3	356.320	-0.400	0.120	-0.400
2020/01/31 17:27:41.4	356.320	-0.400	0.150	-0.390
2020/01/31 17:27:41.5	356.310	-0.400	0.170	-0.370
2020/01/31 17:27:41.6	356.300	-0.390	0.190	-0.360
2020/01/31 17:27:41.7	356.300	-0.380	0.210	-0.340
2020/01/31 17:27:41.8	356.290	-0.370	0.230	-0.330
2020/01/31 17:27:41.9	356.290	-0.350	0.230	-0.310
2020/01/31 17:27:42.0	356.280	-0.330	0.240	-0.290
2020/01/31 17:27:42.1	356.280	-0.310	0.240	-0.280
2020/01/31 17:27:42.2	356.280	-0.280	0.240	-0.260
2020/01/31 17:27:42.3	356.280	-0.260	0.230	-0.240
2020/01/31 17:27:42.4	356.280	-0.230	0.220	-0.220
2020/01/31 17:27:42.5	356.290	-0.200	0.210	-0.210
2020/01/31 17:27:42.6	356.290	-0.170	0.190	-0.190
2020/01/31 17:27:42.7	356.300	-0.140	0.160	-0.180
2020/01/31 17:27:42.8	356.300	-0.100	0.140	-0.160
2020/01/31 17:27:42.9	356.310	-0.070	0.110	-0.150
2020/01/31 17:27:43.0	356.320	-0.030	0.080	-0.140
2020/01/31 17:27:43.1	356.330	0.000	0.040	-0.130
2020/01/31 17:27:43.2	356.340	0.040	0.000	-0.120
2020/01/31 17:27:43.3	356.360	0.070	-0.040	-0.110
2020/01/31 17:27:43.4	356.370	0.100	-0.080	-0.100
2020/01/31 17:27:43.5	356.390	0.130	-0.120	-0.090
2020/01/31 17:27:43.6	356.400	0.160	-0.160	-0.080
2020/01/31 17:27:43.7	356.410	0.190	-0.200	-0.070
2020/01/31 17:27:43.8	356.420	0.220	-0.240	-0.060
2020/01/31 17:27:43.9	356.430	0.240	-0.290	-0.050
2020/01/31 17:27:44.0	356.440	0.260	-0.330	-0.040
2020/01/31 17:27:44.1	356.450	0.280	-0.360	-0.020
2020/01/31 17:27:44.2	356.450	0.300	-0.400	-0.010
2020/01/31 17:27:44.3	356.450	0.310	-0.440	0.000
2020/01/31 17:27:44.4	356.460	0.320	-0.470	0.020
2020/01/31 17:27:44.5	356.460	0.330	-0.490	0.030
2020/01/31 17:27:44.6	356.450	0.340	-0.520	0.050
2020/01/31 17:27:44.7	356.450	0.340	-0.540	0.060
2020/01/31 17:27:44.8	356.440	0.340	-0.560	0.080
2020/01/31 17:27:44.9	356.440	0.340	-0.570	0.090
2020/01/31 17:27:45.0	356.430	0.340	-0.590	0.110
2020/01/31 17:27:45.1	356.420	0.330	-0.590	0.130
2020/01/31 17:27:45.2	356.410	0.320	-0.600	0.140
2020/01/31 17:27:45.3	356.400	0.310	-0.600	0.160
2020/01/31 17:27:45.4	356.390	0.300	-0.600	0.180
2020/01/31 17:27:45.5	356.380	0.280	-0.590	0.190
2020/01/31 17:27:45.6	356.370	0.270	-0.590	0.210
2020/01/31 17:27:45.7	356.360	0.250	-0.580	0.220
2020/01/31 17:27:45.8	356.350	0.230	-0.570	0.240
2020/01/31 17:27:45.9	356.340	0.210	-0.560	0.250
2020/01/31 17:27:46.0	356.330	0.200	-0.550	0.260
2020/01/31 17:27:46.1	356.320	0.180	-0.530	0.260
2020/01/31 17:27:46.2	356.320	0.160	-0.520	0.270
2020/01/31 17:27:46.3	356.310	0.140	-0.500	0.270
2020/01/31 17:27:46.4	356.300	0.120	-0.490	0.270
2020/01/31 17:27:46.5	356.290	0.100	-0.470	0.270
2020/01/31 17:27:46.6	356.280	0.080	-0.450	0.270
2020/01/31 17:27:46.7	356.280	0.070	-0.440	0.260
2020/01/31 17:27:46.8	356.270	0.050	-0.420	0.260
2020/01/31 17:27:46.9	356.260	0.040	-0.410	0.240
2020/01/31 17:27:47.0	356.260	0.030	-0.390	0.230
2020/01/31 17:27:47.1	356.250	0.020	-0.380	0.210
2020/01/31 17:27:47.2	356.250	0.010	-0.360	0.190
2020/01/31 17:27:47.3	356.250	-0.000	-0.340	0.170
2020/01/31 17:27:47.4	356.240	-0.010	-0.330	0.150
2020/01/31 17:27:47.5	356.240	-0.020	-0.310	0.130
2020/01/31 17:27:47.6	356.230	-0.020	-0.300	0.100
2020/01/31 17:27:47.7	356.230	-0.020	-0.280	0.080
2020/01/31 17:27:47.8	356.230	-0.030	-0.260	0.050
2020/01/31 17:27:47.9	356.220	-0.030	-0.250	0.030
2020/01/31 17:27:48.0	356.220	-0.030	-0.230	0.000
2020/01/31 17:27:48.1	356.210	-0.030	-0.220	-0.020
2020/01/31 17:27:48.2	356.210	-0.030	-0.200	-0.050
2020/01/31 17:27:48.3	356.200	-0.030	-0.180	-0.070
2020/01/31 17:27:48.4	356.200	-0.040	-0.170	-0.090
2020/01/31 17:27:48.5	356.190	-0.040	-0.150	-0.120
2020/01/31 17:27:48.6	356.190	-0.040	-0.140	-0.140
2020/01/31 17:27:48.7	356.180	-0.040	-0.130	-0.160
2020/01/31 17:27:48.8	356.190	-0.040	-0.120	-0.180
2020/01/31 17:27:48.9	356.180	-0.050	-0.110	-0.210
2020/01/31 17:27:49.0	356.180	-0.050	-0.100	-0.230
2020/01/31 17:27:49.1	356.180	-0.050	-0.090	-0.260
2020/01/31 17:27:49.2	356.180	-0.060	-0.080	-0.280
2020/01/31 17:27:49.3	356.180	-0.060	-0.080	-0.310
2020/01/31 17:27:49.4	356.180	-0.070	-0.080	-0.330
2020/01/31 17:27:49.5	356.180	-0.080	-0.080	-0.360
2020/01/31 17:27:49.6	356.190	-0.080	-0.080	-0.390
2020/01/31 17:27:49.7	356.200	-0.090	-0.090	-0.410
2020/01/31 17:27:49.8	356.220	-0.100	-0.100	-0.440
2020/01/31 17:27:49.9	356.230	-0.100	-0.110	-0.470
2020/01/31 17:27:50.0	356.240	-0.110	-0.120	-0.500
2020/01/31 17:27:50.1	356.250	-0.120	-0.130	-0.520
2020/01/31 17:27:50.2	356.260	-0.120	-0.150	-0.550
2020/01/31 17:27:50.3	356.280	-0.130	-0.170	-0.580
2020/01/31 17:27:50.4	356.300	-0.130	-0.190	-0.610
2020/01/31 17:27:50.5	356.320	-0.130	-0.210	-0.640
2020/01/31 17:27:50.6	356.340	-0.130	-0.240	-0.660
2020/01/31 17:27:50.7	356.360	-0.140	-0.260	-0.690
2020/01/31 17:27:50.8	356.400	-0.130	-0.290	-0.710
2020/01/31 17:27:50.9	356.420	-0.130	-0.310	-0.740
2020/01/31 17:27:51.0	356.450	-0.130	-0.340	-0.760
2020/01/31 17:27:51.1	356.480	-0.120	-0.370	-0.780
2020/01/31 17:27:51.2	356.510	-0.120	-0.390	-0.800
2020/01/31 17:27:51.3	356.550	-0.110	-0.420	-0.820
2020/01/31 17:27:51.4	356.580	-0.100	-0.440	-0.840
2020/01/31 17:27:51.5	356.610	-0.080	-0.460	-0.850
2020/01/31 17:27:51.6	356.640	-0.070	-0.480	-0.860
2020/01/31 17:27:51.7	356.670	-0.060	-0.490	-0.870
2020/01/31 17:27:51.8	356.710	-0.040	-0.500	-0.880
2020/01/31 17:27:51.9	356.740	-0.020	-0.510	-0.880
2020/01/31 17:27:52.0	356.770	-0.010	-0.520	-0.870
2020/01/31 17:27:52.1	356.800	0.010	-0.520	-0.860
2020/01/31 17:27:52.2	356.820	0.030	-0.520	-0.850
2020/01/31 17:27:52.3	356.840	0.050	-0.520	-0.830
2020/01/31 17:27:52.4	356.870	0.060	-0.510	-0.810
2020/01/31 17:27:52.5	356.880	0.080	-0.500	-0.790
2020/01/31 17:27:52.6	356.900	0.100	-0.490	-0.770
2020/01/31 17:27:52.7	356.920	0.110	-0.470	-0.740
2020/01/31 17:27:52.8	356.930	0.120	-0.460	-0.700
2020/01/31 17:27:52.9	356.940	0.140	-0.440	-0.670
2020/01/31 17:27:53.0	356.950	0.150	-0.420	-0.630
2020/01/31 17:27:53.1	356.960	0.160	-0.400	-0.600
2020/01/31 17:27:53.2	356.970	0.160	-0.370	-0.560
2020/01/31 17:27:53.3	356.970	0.170	-0.350	-0.530
2020/01/31 17:27:53.4	356.980	0.170	-0.320	-0.490
2020/01/31 17:27:53.5	356.980	0.170	-0.300	-0.460
2020/01/31 17:27:53.6	356.980	0.170	-0.270	-0.420
2020/01/31 17:27:53.7	356.980	0.160	-0.250	-0.390
2020/01/31 17:27:53.8	356.980	0.150	-0.220	-0.350
2020/01/31 17:27:53.9	356.970	0.150	-0.190	-0.320
2020/01/31 17:27:54.0	356.970	0.130	-0.170	-0.290
2020/01/31 17:27:54.1	356.960	0.120	-0.140	-0.260
2020/01/31 17:27:54.2	356.950	0.100	-0.110	-0.230
2020/01/31 17:27:54.3	356.940	0.080	-0.090	-0.210
2020/01/31 17:27:54.4	356.930	0.060	-0.060	-0.180
2020/01/31 17:27:54.5	356.920	0.040	-0.030	-0.160
2020/01/31 17:27:54.6	356.900	0.010	-0.000	-0.140
2020/01/31 17:27:54.7	356.890	-0.010	0.030	-0.120
2020/01/31 17:27:54.8	356.860	-0.040	0.050	-0.100
2020/01/31 17:27:54.9	356.840	-0.070	0.080	-0.080
2020/01/31 17:27:55.0	356.810	-0.100	0.110	-0.060
2020/01/31 17:27:55.1	356.780	-0.140	0.140	-0.040
2020/01/31 17:27:55.2	356.750	-0.170	0.170	-0.030
2020/01/31 17:27:55.3	356.720	-0.200	0.210	-0.010
2020/01/31 17:27:55.4	356.680	-0.240	0.240	-0.000
2020/01/31 17:27:55.5	356.650	-0.270	0.270	0.010
2020/01/31 17:27:55.6	356.610	-0.300	0.290	0.020
2020/01/31 17:27:55.7	356.580	-0.340	0.320	0.030
2020/01/31 17:27:55.8	356.530	-0.370	0.350	0.040
2020/01/31 17:27:55.9	356.490	-0.400	0.370	0.040
2020/01/31 17:27:56.0	356.460	-0.420	0.390	0.050
2020/01/31 17:27:56.1	356.420	-0.450	0.410	0.050
2020/01/31 17:27:56.2	356.380	-0.470	0.420	0.050
2020/01/31 17:27:56.3	356.350	-0.490	0.430	0.040
2020/01/31 17:27:56.4	356.310	-0.500	0.430	0.040
2020/01/31 17:27:56.5	356.280	-0.510	0.430	0.030
2020/01/31 17:27:56.6	356.250	-0.520	0.420	0.030
2020/01/31 17:27:56.7	356.230	-0.520	0.410	0.020
2020/01/31 17:27:56.8	356.200	-0.520	0.390	0.000
2020/01/31 17:27:56.9	356.180	-0.510	0.360	-0.010
2020/01/31 17:27:57.0	356.160	-0.500	0.330	-0.030
2020/01/31 17:27:57.1	356.140	-0.480	0.300	-0.050
2020/01/31 17:27:57.2	356.130	-0.460	0.250	-0.070
2020/01/31 17:27:57.3	356.120	-0.440	0.200	-0.090
2020/01/31 17:27:57.4	356.120	-0.410	0.150	-0.120
2020/01/31 17:27:57.5	356.110	-0.370	0.090	-0.140
2020/01/31 17:27:57.6	356.110	-0.330	0.020	-0.170
2020/01/31 17:27:57.7	356.110	-0.290	-0.050	-0.190
2020/01/31 17:27:57.8	356.120	-0.250	-0.120	-0.220
2020/01/31 17:27:57.9	356.120	-0.200	-0.190	-0.250
2020/01/31 17:27:58.0	356.130	-0.150	-0.270	-0.280
2020/01/31 17:27:58.1	356.140	-0.090	-0.340	-0.300
2020/01/31 17:27:58.2	356.150	-0.040	-0.420	-0.330
2020/01/31 17:27:58.3	356.160	0.020	-0.500	-0.350
2020/01/31 17:27:58.4	356.170	0.080	-0.570	-0.380
2020/01/31 17:27:58.5	356.180	0.130	-0.640	-0.400
2020/01/31 17:27:58.6	356.200	0.190	-0.710	-0.420
2020/01/31 17:27:58.7	356.210	0.250	-0.780	-0.430
2020/01/31 17:27:58.8	356.220	0.300	-0.840	-0.450
2020/01/31 17:27:58.9	356.240	0.360	-0.900	-0.460
2020/01/31 17:27:59.0	356.250	0.410	-0.950	-0.470
2020/01/31 17:27:59.1	356.270	0.460	-1.000	-0.480
2020/01/31 17:27:59.2	356.280	0.500	-1.040	-0.490
2020/01/31 17:27:59.3	356.300	0.550	-1.080	-0.490
2020/01/31 17:27:59.4	356.320	0.590	-1.110	-0.490
2020/01/31 17:27:59.5	356.330	0.620	-1.130	-0.490
2020/01/31 17:27:59.6	356.350	0.650	-1.150	-0.490
2020/01/31 17:27:59.7	356.370	0.670	-1.160	-0.490
2020/01/31 17:27:59.8	356.400	0.700	-1.170	-0.490
2020/01/31 17:27:59.9	356.410	0.710	-1.170	-0.480
2020/01/31 17:28:00.0	356.430	0.720	-1.160	-0.480
2020/01/31 17:28:00.1	356.450	0.730	-1.150	-0.480
2020/01/31 17:28:00.2	356.470	0.730	-1.140	-0.470
2020/01/31 17:28:00.3	356.490	0.730	-1.120	-0.470
2020/01/31 17:28:00.4	356.500	0.720	-1.090	-0.470
2020/01/31 17:28:00.5	356.520	0.700	-1.070	-0.460
2020/01/31 17:28:00.6	356.540	0.690	-1.030	-0.460
2020/01/31 17:28:00.7	356.560	0.660	-1.000	-0.450
2020/01/31 17:28:00.8	356.570	0.640	-0.960	-0.450
2020/01/31 17:28:00.9	356.590	0.610	-0.920	-0.440
2020/01/31 17:28:01.0	356.610	0.570	-0.880	-0.440
2020/01/31 17:28:01.1	356.630	0.530	-0.830	-0.440
2020/01/31 17:28:01.2	356.650	0.490	-0.790	-0.440
2020/01/31 17:28:01.3	356.670	0.450	-0.740	-0.440
2020/01/31 17:28:01.4	356.690	0.400	-0.690	-0.440
2020/01/31 17:28:01.5	356.710	0.350	-0.640	-0.440
2020/01/31 17:28:01.6	356.730	0.300	-0.590	-0.440
2020/01/31 17:28:01.7	356.750	0.250	-0.540	-0.440
2020/01/31 17:28:01.8	356.770	0.200	-0.490	-0.450
2020/01/31 17:28:01.9	356.790	0.140	-0.440	-0.450
2020/01/31 17:28:02.0	356.820	0.090	-0.400	-0.460
2020/01/31 17:28:02.1	356.840	0.040	-0.350	-0.460
2020/01/31 17:28:02.2	356.870	-0.020	-0.300	-0.470
2020/01/31 17:28:02.3	356.900	-0.070	-0.250	-0.480
2020/01/31 17:28:02.4	356.920	-0.120	-0.210	-0.490
2020/01/31 17:28:02.5	356.950	-0.170	-0.170	-0.490
2020/01/31 17:28:02.6	356.970	-0.220	-0.120	-0.500
2020/01/31 17:28:02.7	357.000	-0.270	-0.080	-0.500
2020/01/31 17:28:02.8	357.020	-0.310	-0.030	-0.510
2020/01/31 17:28:02.9	357.040	-0.360	0.010	-0.500
2020/01/31 17:28:03.0	357.050	-0.400	0.050	-0.500
2020/01/31 17:28:03.1	357.070	-0.430	0.100	-0.490
2020/01/31 17:28:03.2	357.070	-0.470	0.140	-0.470
2020/01/31 17:28:03.3	357.070	-0.500	0.180	-0.460
2020/01/31 17:28:03.4	357.070	-0.530	0.220	-0.430
2020/01/31 17:28:03.5	357.060	-0.550	0.270	-0.400
2020/01/31 17:28:03.6	357.050	-0.580	0.310	-0.370
2020/01/31 17:28:03.7	357.030	-0.600	0.350	-0.340
2020/01/31 17:28:03.8	357.010	-0.610	0.390	-0.290
2020/01/31 17:28:03.9	356.980	-0.630	0.430	-0.250
2020/01/31 17:28:04.0	356.960	-0.640	0.460	-0.210
2020/01/31 17:28:04.1	356.930	-0.650	0.500	-0.160
2020/01/31 17:28:04.2	356.890	-0.650	0.530	-0.110
2020/01/31 17:28:04.3	356.860	-0.650	0.560	-0.070
2020/01/31 17:28:04.4	356.820	-0.650	0.580	-0.020
2020/01/31 17:28:04.5	356.780	-0.640	0.600	0.030
2020/01/31 17:28:04.6	356.750	-0.630	0.620	0.070
2020/01/31 17:28:04.7	356.710	-0.620	0.630	0.110
2020/01/31 17:28:04.8	356.670	-0.610	0.630	0.150
2020/01/31 17:28:04.9	356.630	-0.590	0.630	0.190
2020/01/31 17:28:05.0	356.600	-0.570	0.620	0.220
2020/01/31 17:28:05.1	356.570	-0.550	0.610	0.250
2020/01/31 17:28:05.2	356.540	-0.520	0.590	0.270
2020/01/31 17:28:05.3	356.510	-0.490	0.570	0.300
2020/01/31 17:28:05.4	356.480	-0.460	0.530	0.310
2020/01/31 17:28:05.5	356.460	-0.420	0.500	0.330
2020/01/31 17:28:05.6	356.430	-0.390	0.450	0.340
2020/01/31 17:28:05.7	356.410	-0.350	0.410	0.350
2020/01/31 17:28:05.8	356.380	-0.310	0.360	0.350
2020/01/31 17:28:05.9	356.350	-0.260	0.300	0.360
2020/01/31 17:28:06.0	356.330	-0.220	0.240	0.360
2020/01/31 17:28:06.1	356.310	-0.170	0.190	0.360
2020/01/31 17:28:06.2	356.290	-0.120	0.120	0.360
2020/01/31 17:28:06.3	356.270	-0.080	0.060	0.360
2020/01/31 17:28:06.4	356.260	-0.030	0.000	0.360
2020/01/31 17:28:06.5	356.240	0.020	-0.060	0.350
2020/01/31 17:28:06.6	356.220	0.060	-0.120	0.350
2020/01/31 17:28:06.7	356.200	0.110	-0.180	0.350
2020/01/31 17:28:06.8	356.180	0.160	-0.240	0.350
2020/01/31 17:28:06.9	356.160	0.200	-0.290	0.340
2020/01/31 17:28:07.0	356.140	0.240	-0.340	0.340
2020/01/31 17:28:07.1	356.120	0.280	-0.390	0.340
2020/01/31 17:28:07.2	356.110	0.320	-0.440	0.340
2020/01/31 17:28:07.3	356.090	0.360	-0.480	0.330
2020/01/31 17:28:07.4	356.080	0.390	-0.510	0.330
2020/01/31 17:28:07.5	356.070	0.420	-0.550	0.330
2020/01/31 17:28:07.6	356.060	0.450	-0.580	0.320
2020/01/31 17:28:07.7	356.060	0.470	-0.610	0.310
2020/01/31 17:28:07.8	356.070	0.490	-0.630	0.310
2020/01/31 17:28:07.9	356.070	0.510	-0.650	0.300
2020/01/31 17:28:08.0	356.070	0.530	-0.670	0.280
2020/01/31 17:28:08.1	356.070	0.540	-0.680	0.270
2020/01/31 17:28:08.2	356.080	0.550	-0.700	0.250
2020/01/31 17:28:08.3	356.090	0.550	-0.710	0.230
2020/01/31 17:28:08.4	356.100	0.550	-0.710	0.200
2020/01/31 17:28:08.5	356.110	0.550	-0.720	0.180
2020/01/31 17:28:08.6	356.130	0.550	-0.720	0.150
2020/01/31 17:28:08.7	356.150	0.540	-0.720	0.120
2020/01/31 17:28:08.8	356.170	0.530	-0.720	0.090
2020/01/31 17:28:08.9	356.190	0.520	-0.720	0.050
2020/01/31 17:28:09.0	356.210	0.500	-0.710	0.020
2020/01/31 17:28:09.1	356.230	0.480	-0.710	-0.020
2020/01/31 17:28:09.2	356.250	0.470	-0.700	-0.060
2020/01/31 17:28:09.3	356.270	0.440	-0.690	-0.100
2020/01/31 17:28:09.4	356.290	0.420	-0.680	-0.140
2020/01/31 17:28:09.5	356.310	0.390	-0.660	-0.180
2020/01/31 17:28:09.6	356.330	0.370	-0.650	-0.220
2020/01/31 17:28:09.7	356.350	0.340	-0.630	-0.250
2020/01/31 17:28:09.8	356.380	0.310	-0.610	-0.290
2020/01/31 17:28:09.9	356.400	0.280	-0.590	-0.330
2020/01/31 17:28:10.0	356.420	0.250	-0.580	-0.360
2020/01/31 17:28:10.1	356.440	0.220	-0.560	-0.400
2020/01/31 17:28:10.2	356.460	0.190	-0.540	-0.430
2020/01/31 17:28:10.3	356.480	0.160	-0.520	-0.470
2020/01/31 17:28:10.4	356.500	0.130	-0.510	-0.500
2020/01/31 17:28:10.5	356.520	0.100	-0.490	-0.530
2020/01/31 17:28:10.6	356.550	0.070	-0.480	-0.560
2020/01/31 17:28:10.7	356.570	0.050	-0.470	-0.580
2020/01/31 17:28:10.8	356.590	0.020	-0.450	-0.610
2020/01/31 17:28:10.9	356.620	-0.010	-0.450	-0.640
2020/01/31 17:28:11.0	356.650	-0.030	-0.440	-0.670
2020/01/31 17:28:11.1	356.680	-0.060	-0.430	-0.690
2020/01/31 17:28:11.2	356.710	-0.080	-0.430	-0.710
2020/01/31 17:28:11.3	356.730	-0.100	-0.420	-0.730
2020/01/31 17:28:11.4	356.760	-0.120	-0.420	-0.760
2020/01/31 17:28:11.5	356.790	-0.140	-0.420	-0.770
2020/01/31 17:28:11.6	356.810	-0.170	-0.410	-0.790
2020/01/31 17:28:11.7	356.840	-0.190	-0.400	-0.800
2020/01/31 17:28:11.8	356.860	-0.210	-0.400	-0.810
2020/01/31 17:28:11.9	356.870	-0.230	-0.390	-0.810
2020/01/31 17:28:12.0	356.880	-0.250	-0.370	-0.810
2020/01/31 17:28:12.1	356.890	-0.270	-0.360	-0.810
2020/01/31 17:28:12.2	356.890	-0.290	-0.340	-0.810
2020/01/31 17:28:12.3	356.890	-0.300	-0.320	-0.800
2020/01/31 17:28:12.4	356.880	-0.320	-0.300	-0.790
2020/01/31 17:28:12.5	356.870	-0.340	-0.270	-0.780
2020/01/31 17:28:12.6	356.850	-0.350	-0.240	-0.760
2020/01/31 17:28:12.7	356.830	-0.370	-0.210	-0.730
2020/01/31 17:28:12.8	356.800	-0.380	-0.170	-0.710
2020/01/31 17:28:12.9	356.770	-0.400	-0.130	-0.680
2020/01/31 17:28:13.0	356.740	-0.410	-0.090	-0.640
2020/01/31 17:28:13.1	356.710	-0.410	-0.050	-0.600
2020/01/31 17:28:13.2	356.670	-0.420	-0.010	-0.560
2020/01/31 17:28:13.3	356.630	-0.430	0.040	-0.510
2020/01/31 17:28:13.4	356.590	-0.430	0.080	-0.470
2020/01/31 17:28:13.5	356.550	-0.430	0.120	-0.420
2020/01/31 17:28:13.6	356.510	-0.430	0.160	-0.370
2020/01/31 17:28:13.7	356.470	-0.430	0.200	-0.330
2020/01/31 17:28:13.8	356.430	-0.420	0.230	-0.270
2020/01/31 17:28:13.9	356.400	-0.420	0.260	-0.230
2020/01/31 17:28:14.0	356.360	-0.410	0.290	-0.180
2020/01/31 17:28:14.1	356.330	-0.390	0.310	-0.140
2020/01/31 17:28:14.2	356.300	-0.380	0.320	-0.100
2020/01/31 17:28:14.3	356.270	-0.360	0.330	-0.060
2020/01/31 17:28:14.4	356.250	-0.330	0.330	-0.030
2020/01/31 17:28:14.5	356.230	-0.310	0.320	0.000
2020/01/31 17:28:14.6	356.210	-0.280	0.300	0.030
2020/01/31 17:28:14.7	356.200	-0.240	0.280	0.050
2020/01/31 17:28:14.8	356.210	-0.210	0.250	0.070
2020/01/31 17:28:14.9	356.200	-0.170	0.210	0.080
2020/01/31 17:28:15.0	356.200	-0.130	0.170	0.090
2020/01/31 17:28:15.1	356.200	-0.090	0.120	0.100
2020/01/31 17:28:15.2	356.200	-0.040	0.070	0.100
2020/01/31 17:28:15.3	356.200	0.000	0.010	0.090
2020/01/31 17:28:15.4	356.210	0.050	-0.050	0.080
2020/01/31 17:28:15.5	356.220	0.090	-0.110	0.070
2020/01/31 17:28:15.6	356.230	0.140	-0.180	0.060
2020/01/31 17:28:15.7	356.240	0.180	-0.240	0.050
2020/01/31 17:28:15.8	356.260	0.230	-0.310	0.030
2020/01/31 17:28:15.9	356.270	0.270	-0.370	0.020
2020/01/31 17:28:16.0	356.280	0.310	-0.430	0.000
2020/01/31 17:28:16.1	356.290	0.350	-0.490	-0.010
2020/01/31 17:28:16.2	356.300	0.380	-0.540	-0.030
2020/01/31 17:28:16.3	356.310	0.410	-0.590	-0.040
2020/01/31 17:28:16.4	356.320	0.440	-0.640	-0.050
2020/01/31 17:28:16.5	356.330	0.470	-0.680	-0.060
2020/01/31 17:28:16.6	356.340	0.480	-0.710	-0.070
2020/01/31 17:28:16.7	356.350	0.500	-0.730	-0.080
2020/01/31 17:28:16.8	356.340	0.510	-0.750	-0.090
2020/01/31 17:28:16.9	356.350	0.510	-0.760	-0.100
2020/01/31 17:28:17.0	356.360	0.510	-0.770	-0.110
2020/01/31 17:28:17.1	356.370	0.510	-0.770	-0.110
2020/01/31 17:28:17.2	356.380	0.500	-0.760	-0.110
2020/01/31 17:28:17.3	356.400	0.480	-0.740	-0.120
2020/01/31 17:28:17.4	356.410	0.460	-0.720	-0.120
2020/01/31 17:28:17.5	356.420	0.440	-0.700	-0.120
2020/01/31 17:28:17.6	356.440	0.410	-0.670	-0.120
2020/01/31 17:28:17.7	356.450	0.380	-0.630	-0.120
2020/01/31 17:28:17.8	356.470	0.350	-0.590	-0.120
2020/01/31 17:28:17.9	356.490	0.310	-0.550	-0.120
2020/01/31 17:28:18.0	356.500	0.270	-0.510	-0.130
2020/01/31 17:28:18.1	356.520	0.220	-0.470	-0.130
2020/01/31 17:28:18.2	356.540	0.180	-0.420	-0.130
2020/01/31 17:28:18.3	356.560	0.130	-0.380	-0.130
2020/01/31 17:28:18.4	356.580	0.080	-0.330	-0.140
2020/01/31 17:28:18.5	356.600	0.030	-0.290	-0.140
2020/01/31 17:28:18.6	356.620	-0.020	-0.250	-0.140
2020/01/31 17:28:18.7	356.640	-0.070	-0.210	-0.150
2020/01/31 17:28:18.8	356.660	-0.120	-0.170	-0.150
2020/01/31 17:28:18.9	356.670	-0.170	-0.130	-0.150
2020/01/31 17:28:19.0	356.690	-0.210	-0.090	-0.150
2020/01/31 17:28:19.1	356.700	-0.260	-0.060	-0.150
2020/01/31 17:28:19.2	356.700	-0.300	-0.030	-0.150
2020/01/31 17:28:19.3	356.710	-0.340	0.000	-0.140
2020/01/31 17:28:19.4	356.710	-0.370	0.040	-0.140
2020/01/31 17:28:19.5	356.710	-0.400	0.060	-0.130
2020/01/31 17:28:19.6	356.710	-0.430	0.090	-0.120
2020/01/31 17:28:19.7	356.700	-0.460	0.110	-0.110
2020/01/31 17:28:19.8	356.690	-0.470	0.130	-0.100
2020/01/31 17:28:19.9	356.680	-0.490	0.150	-0.090
2020/01/31 17:28:20.0	356.670	-0.500	0.170	-0.090
2020/01/31 17:28:20.1	356.670	-0.500	0.180	-0.080
2020/01/31 17:28:20.2	356.660	-0.510	0.180	-0.070
2020/01/31 17:28:20.3	356.650	-0.500	0.180	-0.070
2020/01/31 17:28:20.4	356.640	-0.490	0.180	-0.070
2020/01/31 17:28:20.5	356.630	-0.480	0.170	-0.070
2020/01/31 17:28:20.6	356.620	-0.460	0.160	-0.070
2020/01/31 17:28:20.7	356.610	-0.440	0.150	-0.070
2020/01/31 17:28:20.8	356.600	-0.420	0.130	-0.080
2020/01/31 17:28:20.9	356.590	-0.390	0.100	-0.080
2020/01/31 17:28:21.0	356.580	-0.360	0.070	-0.090
2020/01/31 17:28:21.1	356.570	-0.320	0.040	-0.100
2020/01/31 17:28:21.2	356.560	-0.290	0.010	-0.110
2020/01/31 17:28:21.3	356.550	-0.250	-0.030	-0.120
2020/01/31 17:28:21.4	356.540	-0.200	-0.070	-0.130
2020/01/31 17:28:21.5	356.540	-0.160	-0.120	-0.150
2020/01/31 17:28:21.6	356.530	-0.120	-0.160	-0.160
2020/01/31 17:28:21.7	356.520	-0.070	-0.210	-0.170
2020/01/31 17:28:21.8	356.510	-0.030	-0.260	-0.190
2020/01/31 17:28:21.9	356.500	0.020	-0.310	-0.200
2020/01/31 17:28:22.0	356.500	0.060	-0.360	-0.220
2020/01/31 17:28:22.1	356.490	0.110	-0.400	-0.230
2020/01/31 17:28:22.2	356.490	0.150	-0.450	-0.240
2020/01/31 17:28:22.3	356.490	0.190	-0.490	-0.260
2020/01/31 17:28:22.4	356.480	0.230	-0.530	-0.270
2020/01/31 17:28:22.5	356.480	0.270	-0.560	-0.280
2020/01/31 17:28:22.6	356.480	0.310	-0.590	-0.300
2020/01/31 17:28:22.7	356.480	0.340	-0.620	-0.310
2020/01/31 17:28:22.8	356.480	0.370	-0.640	-0.320
2020/01/31 17:28:22.9	356.480	0.400	-0.660	-0.320
2020/01/31 17:28:23.0	356.480	0.430	-0.670	-0.330
2020/01/31 17:28:23.1	356.480	0.450	-0.670	-0.340
2020/01/31 17:28:23.2	356.480	0.470	-0.670	-0.340
2020/01/31 17:28:23.3	356.480	0.490	-0.660	-0.340
2020/01/31 17:28:23.4	356.480	0.500	-0.640	-0.340
2020/01/31 17:28:23.5	356.470	0.510	-0.620	-0.340
2020/01/31 17:28:23.6	356.470	0.520	-0.600	-0.340
2020/01/31 17:28:23.7	356.460	0.520	-0.560	-0.340
2020/01/31 17:28:23.8	356.450	0.520	-0.520	-0.330
2020/01/31 17:28:23.9	356.440	0.510	-0.480	-0.330
2020/01/31 17:28:24.0	356.430	0.500	-0.440	-0.320
2020/01/31 17:28:24.1	356.420	0.490	-0.390	-0.320
2020/01/31 17:28:24.2	356.410	0.470	-0.330	-0.310
2020/01/31 17:28:24.3	356.400	0.450	-0.280	-0.310
2020/01/31 17:28:24.4	356.390	0.430	-0.230	-0.300
2020/01/31 17:28:24.5	356.380	0.400	-0.170	-0.290
2020/01/31 17:28:24.6	356.380	0.380	-0.120	-0.290
2020/01/31 17:28:24.7	356.370	0.340	-0.070	-0.290
2020/01/31 17:28:24.8	356.380	0.310	-0.030	-0.280
2020/01/31 17:28:24.9	356.380	0.280	0.020	-0.290
2020/01/31 17:28:25.0	356.380	0.240	0.050	-0.290
2020/01/31 17:28:25.1	356.390	0.210	0.080	-0.300
2020/01/31 17:28:25.2	356.400	0.170	0.110	-0.310
2020/01/31 17:28:25.3	356.420	0.130	0.130	-0.320
2020/01/31 17:28:25.4	356.440	0.090	0.140	-0.330
2020/01/31 17:28:25.5	356.460	0.060	0.140	-0.350
2020/01/31 17:28:25.6	356.490	0.020	0.140	-0.370
2020/01/31 17:28:25.7	356.520	-0.020	0.130	-0.390
2020/01/31 17:28:25.8	356.550	-0.050	0.120	-0.420
2020/01/31 17:28:25.9	356.590	-0.090	0.100	-0.440
2020/01/31 17:28:26.0	356.620	-0.120	0.070	-0.470
2020/01/31 17:28:26.1	356.660	-0.150	0.040	-0.500
2020/01/31 17:28:26.2	356.700	-0.180	0.000	-0.530
2020/01/31 17:28:26.3	356.740	-0.210	-0.040	-0.560
2020/01/31 17:28:26.4	356.780	-0.230	-0.080	-0.600
2020/01/31 17:28:26.5	356.820	-0.250	-0.130	-0.630
2020/01/31 17:28:26.6	356.860	-0.270	-0.180	-0.660
2020/01/31 17:28:26.7	356.890	-0.290	-0.230	-0.690
2020/01/31 17:28:26.8	356.950	-0.310	-0.280	-0.710
2020/01/31 17:28:26.9	356.980	-0.320	-0.330	-0.740
2020/01/31 17:28:27.0	357.010	-0.330	-0.370	-0.760
2020/01/31 17:28:27.1	357.040	-0.340	-0.420	-0.780
2020/01/31 17:28:27.2	357.070	-0.350	-0.460	-0.790
2020/01/31 17:28:27.3	357.090	-0.350	-0.500	-0.800
2020/01/31 17:28:27.4	357.110	-0.360	-0.540	-0.800
2020/01/31 17:28:27.5	357.120	-0.360	-0.570	-0.800
2020/01/31 17:28:27.6	357.130	-0.350	-0.590	-0.790
2020/01/31 17:28:27.7	357.140	-0.350	-0.610	-0.780
2020/01/31 17:28:27.8	357.140	-0.340	-0.620	-0.760
2020/01/31 17:28:27.9	357.140	-0.330	-0.630	-0.730
2020/01/31 17:28:28.0	357.140	-0.330	-0.630	-0.710
2020/01/31 17:28:28.1	357.130	-0.320	-0.620	-0.670
2020/01/31 17:28:28.2	357.120	-0.300	-0.610	-0.640
2020/01/31 17:28:28.3	357.110	-0.290	-0.590	-0.600
2020/01/31 17:28:28.4	357.100	-0.280	-0.570	-0.560
2020/01/31 17:28:28.5	357.080	-0.270	-0.550	-0.520
2020/01/31 17:28:28.6	357.070	-0.250	-0.520	-0.480
2020/01/31 17:28:28.7	357.050	-0.240	-0.480	-0.440
2020/01/31 17:28:28.8	357.040	-0.230	-0.450	-0.400
2020/01/31 17:28:28.9	357.030	-0.210	-0.410	-0.360
2020/01/31 17:28:29.0	357.010	-0.200	-0.370	-0.320
2020/01/31 17:28:29.1	356.990	-0.190	-0.330	-0.290
2020/01/31 17:28:29.2	356.980	-0.180	-0.290	-0.260
2020/01/31 17:28:29.3	356.970	-0.170	-0.260	-0.230
2020/01/31 17:28:29.4	356.960	-0.160	-0.220	-0.200
2020/01/31 17:28:29.5	356.950	-0.150	-0.190	-0.180
2020/01/31 17:28:29.6	356.940	-0.140	-0.160	-0.160
2020/01/31 17:28:29.7	356.940	-0.130	-0.130	-0.150
2020/01/31 17:28:29.8	356.940	-0.120	-0.110	-0.130
2020/01/31 17:28:29.9	356.940	-0.110	-0.090	-0.130
2020/01/31 17:28:30.0	356.940	-0.100	-0.080	-0.120
2020/01/31 17:28:30.1	356.940	-0.090	-0.070	-0.120
2020/01/31 17:28:30.2	356.950	-0.090	-0.060	-0.120
2020/01/31 17:28:30.3	356.950	-0.080	-0.060	-0.130
2020/01/31 17:28:30.4	356.960	-0.070	-0.060	-0.140
2020/01/31 17:28:30.5	356.970	-0.070	-0.060	-0.150
2020/01/31 17:28:30.6	356.980	-0.060	-0.070	-0.160
2020/01/31 17:28:30.7	357.000	-0.060	-0.080	-0.180
2020/01/31 17:28:30.8	357.000	-0.050	-0.090	-0.200
2020/01/31 17:28:30.9	357.020	-0.050	-0.100	-0.220
2020/01/31 17:28:31.0	357.040	-0.040	-0.120	-0.240
2020/01/31 17:28:31.1	357.050	-0.030	-0.140	-0.270
2020/01/31 17:28:31.2	357.070	-0.030	-0.160	-0.290
2020/01/31 17:28:31.3	357.090	-0.020	-0.180	-0.320
2020/01/31 17:28:31.4	357.110	-0.010	-0.200	-0.350
2020/01/31 17:28:31.5	357.130	-0.000	-0.210	-0.380
2020/01/31 17:28:31.6	357.150	0.000	-0.230	-0.400
2020/01/31 17:28:31.7	357.170	0.010	-0.250	-0.430
2020/01/31 17:28:31.8	357.190	0.030	-0.270	-0.450
2020/01/31 17:28:31.9	357.210	0.040	-0.280	-0.480
2020/01/31 17:28:32.0	357.230	0.050	-0.290	-0.500
2020/01/31 17:28:32.1	357.240	0.060	-0.300	-0.520
2020/01/31 17:28:32.2	357.260	0.080	-0.310	-0.530
2020/01/31 17:28:32.3	357.270	0.090	-0.310	-0.540
2020/01/31 17:28:32.4	357.280	0.110	-0.310	-0.550
2020/01/31 17:28:32.5	357.290	0.130	-0.310	-0.550
2020/01/31 17:28:32.6	357.300	0.140	-0.310	-0.550
2020/01/31 17:28:32.7	357.300	0.160	-0.300	-0.550
2020/01/31 17:28:32.8	357.310	0.180	-0.290	-0.540
2020/01/31 17:28:32.9	357.300	0.190	-0.280	-0.530
2020/01/31 17:28:33.0	357.300	0.210	-0.270	-0.520
2020/01/31 17:28:33.1	357.290	0.220	-0.250	-0.510
2020/01/31 17:28:33.2	357.290	0.240	-0.240	-0.490
2020/01/31 17:28:33.3	357.270	0.250	-0.220	-0.480
2020/01/31 17:28:33.4	357.260	0.270	-0.210	-0.460
2020/01/31 17:28:33.5	357.240	0.280	-0.190	-0.440
2020/01/31 17:28:33.6	357.220	0.290	-0.170	-0.430
2020/01/31 17:28:33.7	357.200	0.290	-0.150	-0.410
2020/01/31 17:28:33.8	357.180	0.300	-0.130	-0.390
2020/01/31 17:28:33.9	357.160	0.300	-0.120	-0.370
2020/01/31 17:28:34.0	357.130	0.310	-0.100	-0.360
2020/01/31 17:28:34.1	357.110	0.310	-0.090	-0.340
2020/01/31 17:28:34.2	357.080	0.300	-0.070	-0.330
2020/01/31 17:28:34.3	357.060	0.300	-0.060	-0.320
2020/01/31 17:28:34.4	357.040	0.290	-0.050	-0.310
2020/01/31 17:28:34.5	357.010	0.290	-0.040	-0.300
2020/01/31 17:28:34.6	356.990	0.280	-0.040	-0.290
2020/01/31 17:28:34.7	356.970	0.260	-0.040	-0.290
2020/01/31 17:28:34.8	356.940	0.250	-0.040	-0.290
2020/01/31 17:28:34.9	356.930	0.240	-0.050	-0.290
2020/01/31 17:28:35.0	356.920	0.220	-0.060	-0.290
2020/01/31 17:28:35.1	356.910	0.200	-0.070	-0.300
2020/01/31 17:28:35.2	356.900	0.190	-0.080	-0.310
2020/01/31 17:28:35.3	356.890	0.170	-0.100	-0.320
2020/01/31 17:28:35.4	356.890	0.150	-0.120	-0.330
2020/01/31 17:28:35.5	356.890	0.130	-0.150	-0.350
2020/01/31 17:28:35.6	356.890	0.110	-0.180	-0.360
2020/01/31 17:28:35.7	356.900	0.090	-0.200	-0.380
2020/01/31 17:28:35.8	356.910	0.070	-0.240	-0.400
2020/01/31 17:28:35.9	356.920	0.050	-0.270	-0.420
2020/01/31 17:28:36.0	356.940	0.030	-0.300	-0.450
2020/01/31 17:28:36.1	356.950	0.010	-0.340	-0.470
2020/01/31 17:28:36.2	356.970	-0.010	-0.370	-0.500
2020/01/31 17:28:36.3	356.980	-0.040	-0.410	-0.530
2020/01/31 17:28:36.4	357.000	-0.060	-0.440	-0.550
2020/01/31 17:28:36.5	357.020	-0.080	-0.480	-0.580
2020/01/31 17:28:36.6	357.040	-0.090	-0.510	-0.610
2020/01/31 17:28:36.7	357.060	-0.110	-0.550	-0.640
2020/01/31 17:28:36.8	357.090	-0.130	-0.570	-0.670
2020/01/31 17:28:36.9	357.110	-0.140	-0.600	-0.700
2020/01/31 17:28:37.0	357.140	-0.160	-0.630	-0.720
2020/01/31 17:28:37.1	357.170	-0.170	-0.650	-0.750
2020/01/31 17:28:37.2	357.190	-0.180	-0.670	-0.770
2020/01/31 17:28:37.3	357.220	-0.190	-0.690	-0.790
2020/01/31 17:28:37.4	357.250	-0.200	-0.700	-0.810
2020/01/31 17:28:37.5	357.280	-0.210	-0.710	-0.820
2020/01/31 17:28:37.6	357.300	-0.210	-0.710	-0.830
2020/01/31 17:28:37.7	357.330	-0.210	-0.710	-0.840
2020/01/31 17:28:37.8	357.350	-0.210	-0.700	-0.850
2020/01/31 17:28:37.9	357.380	-0.210	-0.690	-0.850
2020/01/31 17:28:38.0	357.400	-0.200	-0.680	-0.840
2020/01/31 17:28:38.1	357.430	-0.200	-0.650	-0.830
2020/01/31 17:28:38.2	357.450	-0.190	-0.630	-0.820
2020/01/31 17:28:38.3	357.470	-0.180	-0.600	-0.800
2020/01/31 17:28:38.4	357.490	-0.170	-0.560	-0.780
2020/01/31 17:28:38.5	357.500	-0.160	-0.520	-0.750
2020/01/31 17:28:38.6	357.520	-0.140	-0.470	-0.720
2020/01/31 17:28:38.7	357.530	-0.130	-0.430	-0.680
2020/01/31 17:28:38.8	357.540	-0.120	-0.380	-0.640
2020/01/31 17:28:38.9	357.550	-0.100	-0.320	-0.600
2020/01/31 17:28:39.0	357.550	-0.080	-0.270	-0.560
2020/01/31 17:28:39.1	357.560	-0.070	-0.210	-0.510
2020/01/31 17:28:39.2	357.560	-0.050	-0.160	-0.460
2020/01/31 17:28:39.3	357.570	-0.040	-0.100	-0.420
2020/01/31 17:28:39.4	357.570	-0.020	-0.050	-0.370
2020/01/31 17:28:39.5	357.570	-0.010	0.000	-0.320
2020/01/31 17:28:39.6	357.570	0.010	0.050	-0.270
2020/01/31 17:28:39.7	357.580	0.020	0.090	-0.230
2020/01/31 17:28:39.8	357.570	0.030	0.130	-0.190
2020/01/31 17:28:39.9	357.570	0.040	0.170	-0.140
2020/01/31 17:28:40.0	357.570	0.050	0.200	-0.110
2020/01/31 17:28:40.1	357.570	0.050	0.230	-0.070
2020/01/31 17:28:40.2	357.570	0.060	0.250	-0.040
2020/01/31 17:28:40.3	357.570	0.060	0.260	-0.010
2020/01/31 17:28:40.4	357.580	0.060	0.270	0.020
2020/01/31 17:28:40.5	357.580	0.050	0.280	0.040
2020/01/31 17:28:40.6	357.580	0.050	0.280	0.060
2020/01/31 17:28:40.7	357.580	0.040	0.270	0.070
2020/01/31 17:28:40.8	357.580	0.030	0.260	0.080
2020/01/31 17:28:40.9	357.580	0.020	0.240	0.090
2020/01/31 17:28:41.0	357.580	0.010	0.220	0.080
2020/01/31 17:28:41.1	357.580	-0.010	0.200	0.080
2020/01/31 17:28:41.2	357.580	-0.030	0.170	0.060
2020/01/31 17:28:41.3	357.580	-0.050	0.130	0.040
2020/01/31 17:28:41.4	357.590	-0.070	0.090	0.020
2020/01/31 17:28:41.5	357.590	-0.090	0.050	-0.010
2020/01/31 17:28:41.6	357.590	-0.110	0.010	-0.040
2020/01/31 17:28:41.7	357.590	-0.140	-0.040	-0.070
2020/01/31 17:28:41.8	357.610	-0.160	-0.090	-0.110
2020/01/31 17:28:41.9	357.610	-0.180	-0.140	-0.160
2020/01/31 17:28:42.0	357.620	-0.210	-0.190	-0.200
2020/01/31 17:28:42.1	357.630	-0.230	-0.240	-0.250
2020/01/31 17:28:42.2	357.630	-0.250	-0.290	-0.300
2020/01/31 17:28:42.3	357.640	-0.270	-0.340	-0.350
2020/01/31 17:28:42.4	357.650	-0.290	-0.390	-0.400
2020/01/31 17:28:42.5	357.660	-0.310	-0.440	-0.450
2020/01/31 17:28:42.6	357.670	-0.320	-0.490	-0.500
2020/01/31 17:28:42.7	357.680	-0.340	-0.530	-0.550
2020/01/31 17:28:42.8	357.690	-0.350	-0.570	-0.600
2020/01/31 17:28:42.9	357.710	-0.350	-0.610	-0.650
2020/01/31 17:28:43.0	357.720	-0.360	-0.640	-0.690
2020/01/31 17:28:43.1	357.730	-0.360	-0.670	-0.730
2020/01/31 17:28:43.2	357.730	-0.350	-0.700	-0.760
2020/01/31 17:28:43.3	357.740	-0.350	-0.720	-0.790
2020/01/31 17:28:43.4	357.750	-0.340	-0.730	-0.820
2020/01/31 17:28:43.5	357.750	-0.320	-0.740	-0.840
2020/01/31 17:28:43.6	357.750	-0.310	-0.740	-0.850
2020/01/31 17:28:43.7	357.750	-0.290	-0.740	-0.860
2020/01/31 17:28:43.8	357.750	-0.260	-0.720	-0.860
2020/01/31 17:28:43.9	357.740	-0.230	-0.710	-0.850
2020/01/31 17:28:44.0	357.730	-0.200	-0.690	-0.840
2020/01/31 17:28:44.1	357.720	-0.170	-0.660	-0.820
2020/01/31 17:28:44.2	357.700	-0.140	-0.620	-0.800
2020/01/31 17:28:44.3	357.680	-0.100	-0.590	-0.770
2020/01/31 17:28:44.4	357.650	-0.060	-0.540	-0.730
2020/01/31 17:28:44.5	357.630	-0.020	-0.490	-0.690
2020/01/31 17:28:44.6	357.600	0.020	-0.440	-0.650
2020/01/31 17:28:44.7	357.570	0.060	-0.390	-0.600
2020/01/31 17:28:44.8	357.540	0.110	-0.330	-0.550
2020/01/31 17:28:44.9	357.510	0.150	-0.280	-0.490
2020/01/31 17:28:45.0	357.480	0.190	-0.220	-0.440
2020/01/31 17:28:45.1	357.440	0.230	-0.160	-0.390
2020/01/31 17:28:45.2	357.410	0.270	-0.100	-0.330
2020/01/31 17:28:45.3	357.380	0.310	-0.050	-0.280
2020/01/31 17:28:45.4	357.350	0.340	0.000	-0.220
2020/01/31 17:28:45.5	357.320	0.380	0.050	-0.170
2020/01/31 17:28:45.6	357.290	0.410	0.100	-0.120
2020/01/31 17:28:45.7	357.260	0.440	0.140	-0.070
2020/01/31 17:28:45.8	357.240	0.460	0.180	-0.020
2020/01/31 17:28:45.9	357.220	0.490	0.200	0.020
2020/01/31 17:28:46.0	357.200	0.510	0.230	0.060
2020/01/31 17:28:46.1	357.190	0.530	0.250	0.100
2020/01/31 17:28:46.2	357.180	0.540	0.260	0.140
2020/01/31 17:28:46.3	357.170	0.560	0.260	0.170
2020/01/31 17:28:46.4	357.160	0.570	0.260	0.190
2020/01/31 17:28:46.5	357.160	0.570	0.250	0.220
2020/01/31 17:28:46.6	357.160	0.570	0.240	0.240
2020/01/31 17:28:46.7	357.160	0.570	0.220	0.250
2020/01/31 17:28:46.8	357.160	0.570	0.200	0.270
2020/01/31 17:28:46.9	357.160	0.560	0.170	0.280
2020/01/31 17:28:47.0	357.170	0.560	0.130	0.280
2020/01/31 17:28:47.1	357.190	0.540	0.090	0.280
2020/01/31 17:28:47.2	357.200	0.530	0.050	0.280
2020/01/31 17:28:47.3	357.220	0.510	0.000	0.270
2020/01/31 17:28:47.4	357.230	0.490	-0.050	0.250
2020/01/31 17:28:47.5	357.250	0.470	-0.100	0.240
2020/01/31 17:28:47.6	357.280	0.450	-0.150	0.210
2020/01/31 17:28:47.7	357.300	0.420	-0.210	0.190
2020/01/31 17:28:47.8	357.320	0.400	-0.270	0.160
2020/01/31 17:28:47.9	357.340	0.370	-0.320	0.120
2020/01/31 17:28:48.0	357.370	0.340	-0.380	0.090
2020/01/31 17:28:48.1	357.400	0.310	-0.430	0.050
2020/01/31 17:28:48.2	357.430	0.280	-0.480	0.010
2020/01/31 17:28:48.3	357.460	0.250	-0.530	-0.040
2020/01/31 17:28:48.4	357.490	0.220	-0.580	-0.080
2020/01/31 17:28:48.5	357.520	0.190	-0.620	-0.130
2020/01/31 17:28:48.6	357.560	0.160	-0.650	-0.170
2020/01/31 17:28:48.7	357.590	0.130	-0.690	-0.220
2020/01/31 17:28:48.8	357.600	0.090	-0.720	-0.270
2020/01/31 17:28:48.9	357.630	0.060	-0.740	-0.310
2020/01/31 17:28:49.0	357.660	0.030	-0.760	-0.360
2020/01/31 17:28:49.1	357.680	0.000	-0.770	-0.400
2020/01/31 17:28:49.2	357.700	-0.030	-0.770	-0.440
2020/01/31 17:28:49.3	357.720	-0.060	-0.770	-0.480
2020/01/31 17:28:49.4	357.740	-0.090	-0.770	-0.520
2020/01/31 17:28:49.5	357.760	-0.120	-0.760	-0.560
2020/01/31 17:28:49.6	357.770	-0.150	-0.750	-0.590
2020/01/31 17:28:49.7	357.780	-0.180	-0.730	-0.630
2020/01/31 17:28:49.8	357.780	-0.210	-0.710	-0.650
2020/01/31 17:28:49.9	357.790	-0.240	-0.690	-0.680
2020/01/31 17:28:50.0	357.790	-0.260	-0.660	-0.710
2020/01/31 17:28:50.1	357.800	-0.290	-0.630	-0.730
2020/01/31 17:28:50.2	357.800	-0.310	-0.610	-0.760
2020/01/31 17:28:50.3	357.800	-0.330	-0.580	-0.770
2020/01/31 17:28:50.4	357.800	-0.350	-0.550	-0.790
2020/01/31 17:28:50.5	357.810	-0.370	-0.520	-0.810
2020/01/31 17:28:50.6	357.810	-0.390	-0.490	-0.820
2020/01/31 17:28:50.7	357.810	-0.410	-0.460	-0.830
2020/01/31 17:28:50.8	357.820	-0.420	-0.440	-0.830
2020/01/31 17:28:50.9	357.820	-0.430	-0.420	-0.840
2020/01/31 17:28:51.0	357.830	-0.440	-0.390	-0.840
2020/01/31 17:28:51.1	357.830	-0.450	-0.380	-0.840
2020/01/31 17:28:51.2	357.840	-0.450	-0.360	-0.840
2020/01/31 17:28:51.3	357.840	-0.460	-0.340	-0.840
2020/01/31 17:28:51.4	357.850	-0.460	-0.330	-0.840
2020/01/31 17:28:51.5	357.860	-0.450	-0.320	-0.830
2020/01/31 17:28:51.6	357.860	-0.450	-0.310	-0.820
2020/01/31 17:28:51.7	357.870	-0.440	-0.300	-0.800
2020/01/31 17:28:51.8	357.900	-0.430	-0.290	-0.780
2020/01/31 17:28:51.9	357.900	-0.420	-0.280	-0.770
2020/01/31 17:28:52.0	357.910	-0.400	-0.280	-0.750
2020/01/31 17:28:52.1	357.920	-0.390	-0.270	-0.740
2020/01/31 17:28:52.2	357.930	-0.370	-0.270	-0.720
2020/01/31 17:28:52.3	357.940	-0.350	-0.270	-0.710
2020/01/31 17:28:52.4	357.950	-0.330	-0.260	-0.690
2020/01/31 17:28:52.5	357.960	-0.310	-0.260	-0.680
2020/01/31 17:28:52.6	357.980	-0.290	-0.250	-0.670
2020/01/31 17:28:52.7	357.990	-0.270	-0.250	-0.650
2020/01/31 17:28:52.8	357.990	-0.250	-0.240	-0.640
2020/01/31 17:28:52.9	358.000	-0.230	-0.230	-0.630
2020/01/31 17:28:53.0	358.010	-0.210	-0.230	-0.610
2020/01/31 17:28:53.1	358.020	-0.190	-0.220	-0.600
2020/01/31 17:28:53.2	358.030	-0.170	-0.200	-0.580
2020/01/31 17:28:53.3	358.040	-0.150	-0.190	-0.570
2020/01/31 17:28:53.4	358.050	-0.130	-0.170	-0.550
2020/01/31 17:28:53.5	358.050	-0.110	-0.150	-0.530
2020/01/31 17:28:53.6	358.060	-0.100	-0.130	-0.510
2020/01/31 17:28:53.7	358.060	-0.080	-0.110	-0.490
2020/01/31 17:28:53.8	358.060	-0.070	-0.080	-0.470
2020/01/31 17:28:53.9	358.050	-0.060	-0.060	-0.440
2020/01/31 17:28:54.0	358.040	-0.050	-0.030	-0.410
2020/01/31 17:28:54.1	358.030	-0.040	0.000	-0.380
2020/01/31 17:28:54.2	358.020	-0.030	0.040	-0.350
2020/01/31 17:28:54.3	358.000	-0.030	0.070	-0.320
2020/01/31 17:28:54.4	357.990	-0.030	0.100	-0.290
2020/01/31 17:28:54.5	357.970	-0.030	0.140	-0.260
2020/01/31 17:28:54.6	357.940	-0.030	0.170	-0.220
2020/01/31 17:28:54.7	357.920	-0.030	0.200	-0.190
2020/01/31 17:28:54.8	357.880	-0.030	0.220	-0.150
2020/01/31 17:28:54.9	357.850	-0.040	0.250	-0.120
2020/01/31 17:28:55.0	357.820	-0.040	0.270	-0.090
2020/01/31 17:28:55.1	357.790	-0.050	0.300	-0.060
2020/01/31 17:28:55.2	357.760	-0.060	0.320	-0.030
2020/01/31 17:28:55.3	357.720	-0.060	0.330	0.000
2020/01/31 17:28:55.4	357.690	-0.070	0.350	0.030
2020/01/31 17:28:55.5	357.650	-0.080	0.360	0.060
2020/01/31 17:28:55.6	357.620	-0.080	0.360	0.090
2020/01/31 17:28:55.7	357.580	-0.090	0.370	0.110
2020/01/31 17:28:55.8	357.530	-0.090	0.370	0.130
2020/01/31 17:28:55.9	357.500	-0.100	0.370	0.160
2020/01/31 17:28:56.0	357.460	-0.100	0.360	0.180
2020/01/31 17:28:56.1	357.420	-0.100	0.340	0.200
2020/01/31 17:28:56.2	357.380	-0.100	0.330	0.220
2020/01/31 17:28:56.3	357.340	-0.100	0.310	0.230
2020/01/31 17:28:56.4	357.310	-0.100	0.290	0.250
2020/01/31 17:28:56.5	357.270	-0.090	0.260	0.260
2020/01/31 17:28:56.6	357.230	-0.080	0.230	0.260
2020/01/31 17:28:56.7	357.200	-0.070	0.200	0.270
2020/01/31 17:28:56.8	357.170	-0.060	0.160	0.270
2020/01/31 17:28:56.9	357.130	-0.050	0.130	0.270
2020/01/31 17:28:57.0	357.110	-0.040	0.090	0.260
2020/01/31 17:28:57.1	357.080	-0.020	0.050	0.260
2020/01/31 17:28:57.2	357.050	-0.000	0.000	0.240
2020/01/31 17:28:57.3	357.030	0.020	-0.050	0.230
2020/01/31 17:28:57.4	357.010	0.040	-0.090	0.210
2020/01/31 17:28:57.5	356.990	0.070	-0.150	0.200
2020/01/31 17:28:57.6	356.970	0.100	-0.200	0.180
2020/01/31 17:28:57.7	356.960	0.130	-0.250	0.160
2020/01/31 17:28:57.8	356.940	0.160	-0.300	0.140
2020/01/31 17:28:57.9	356.940	0.190	-0.360	0.120
2020/01/31 17:28:58.0	356.930	0.220	-0.420	0.100
2020/01/31 17:28:58.1	356.930	0.260	-0.480	0.080
2020/01/31 17:28:58.2	356.920	0.300	-0.530	0.060
2020/01/31 17:28:58.3	356.920	0.330	-0.590	0.040
2020/01/31 17:28:58.4	356.930	0.370	-0.650	0.020
2020/01/31 17:28:58.5	356.930	0.410	-0.710	0.000
2020/01/31 17:28:58.6	356.940	0.450	-0.760	-0.010
2020/01/31 17:28:58.7	356.950	0.490	-0.820	-0.030
2020/01/31 17:28:58.8	356.960	0.530	-0.870	-0.050
2020/01/31 17:28:58.9	356.980	0.560	-0.920	-0.070
2020/01/31 17:28:59.0	357.000	0.600	-0.960	-0.090
2020/01/31 17:28:59.1	357.020	0.640	-1.000	-0.110
2020/01/31 17:28:59.2	357.040	0.670	-1.040	-0.130
2020/01/31 17:28:59.3	357.060	0.700	-1.070	-0.160
2020/01/31 17:28:59.4	357.090	0.730	-1.100	-0.180
2020/01/31 17:28:59.5	357.120	0.760	-1.120	-0.200
2020/01/31 17:28:59.6	357.150	0.780	-1.140	-0.230
2020/01/31 17:28:59.7	357.180	0.810	-1.150	-0.250
2020/01/31 17:28:59.8	357.220	0.820	-1.150	-0.280
2020/01/31 17:28:59.9	357.260	0.840	-1.150	-0.300
2020/01/31 17:29:00.0	357.290	0.850	-1.150	-0.330
2020/01/31 17:29:00.1	357.330	0.860	-1.130	-0.350
2020/01/31 17:29:00.2	357.360	0.860	-1.110	-0.380
2020/01/31 17:29:00.3	357.400	0.860	-1.090	-0.400
2020/01/31 17:29:00.4	357.440	0.860	-1.060	-0.420
2020/01/31 17:29:00.5	357.470	0.850	-1.020	-0.440
2020/01/31 17:29:00.6	357.500	0.830	-0.980	-0.460
2020/01/31 17:29:00.7	357.530	0.810	-0.930	-0.480
2020/01/31 17:29:00.8	357.580	0.790	-0.880	-0.490
2020/01/31 17:29:00.9	357.610	0.760	-0.830	-0.500
2020/01/31 17:29:01.0	357.630	0.720	-0.770	-0.500
2020/01/31 17:29:01.1	357.660	0.680	-0.710	-0.510
2020/01/31 17:29:01.2	357.680	0.630	-0.640	-0.510
2020/01/31 17:29:01.3	357.690	0.580	-0.580	-0.510
2020/01/31 17:29:01.4	357.710	0.520	-0.510	-0.510
2020/01/31 17:29:01.5	357.720	0.460	-0.440	-0.510
2020/01/31 17:29:01.6	357.740	0.390	-0.370	-0.510
2020/01/31 17:29:01.7	357.750	0.320	-0.300	-0.510
2020/01/31 17:29:01.8	357.770	0.240	-0.230	-0.510
2020/01/31 17:29:01.9	357.780	0.160	-0.170	-0.520
2020/01/31 17:29:02.0	357.790	0.080	-0.110	-0.530
2020/01/31 17:29:02.1	357.800	-0.010	-0.040	-0.540
2020/01/31 17:29:02.2	357.810	-0.100	0.010	-0.550
2020/01/31 17:29:02.3	357.820	-0.190	0.070	-0.570
2020/01/31 17:29:02.4	357.830	-0.280	0.120	-0.580
2020/01/31 17:29:02.5	357.840	-0.380	0.170	-0.600
2020/01/31 17:29:02.6	357.850	-0.470	0.210	-0.630
2020/01/31 17:29:02.7	357.860	-0.570	0.250	-0.650
2020/01/31 17:29:02.8	357.880	-0.660	0.290	-0.680
2020/01/31 17:29:02.9	357.880	-0.750	0.320	-0.710
2020/01/31 17:29:03.0	357.890	-0.840	0.350	-0.740
2020/01/31 17:29:03.1	357.890	-0.930	0.380	-0.770
2020/01/31 17:29:03.2	357.890	-1.010	0.400	-0.800
2020/01/31 17:29:03.3	357.900	-1.090	0.420	-0.830
2020/01/31 17:29:03.4	357.900	-1.160	0.430	-0.850
2020/01/31 17:29:03.5	357.900	-1.230	0.450	-0.880
2020/01/31 17:29:03.6	357.900	-1.290	0.460	-0.900
2020/01/31 17:29:03.7	357.890	-1.340	0.470	-0.920
2020/01/31 17:29:03.8	357.880	-1.390	0.480	-0.940
2020/01/31 17:29:03.9	357.870	-1.430	0.490	-0.950
2020/01/31 17:29:04.0	357.870	-1.460	0.490	-0.960
2020/01/31 17:29:04.1	357.860	-1.490	0.500	-0.960
2020/01/31 17:29:04.2	357.840	-1.500	0.510	-0.960
2020/01/31 17:29:04.3	357.830	-1.510	0.520	-0.950
2020/01/31 17:29:04.4	357.810	-1.510	0.520	-0.940
2020/01/31 17:29:04.5	357.800	-1.500	0.530	-0.920
2020/01/31 17:29:04.6	357.770	-1.480	0.530	-0.890
2020/01/31 17:29:04.7	357.750	-1.450	0.540	-0.850
2020/01/31 17:29:04.8	357.720	-1.410	0.540	-0.810
2020/01/31 17:29:04.9	357.690	-1.370	0.540	-0.760
2020/01/31 17:29:05.0	357.660	-1.320	0.540	-0.710
2020/01/31 17:29:05.1	357.620	-1.260	0.530	-0.650
2020/01/31 17:29:05.2	357.580	-1.190	0.520	-0.580
2020/01/31 17:29:05.3	357.540	-1.120	0.510	-0.510
2020/01/31 17:29:05.4	357.490	-1.040	0.500	-0.430
2020/01/31 17:29:05.5	357.440	-0.950	0.480	-0.350
2020/01/31 17:29:05.6	357.390	-0.860	0.460	-0.270
2020/01/31 17:29:05.7	357.340	-0.770	0.430	-0.180
2020/01/31 17:29:05.8	357.280	-0.670	0.400	-0.090
2020/01/31 17:29:05.9	357.220	-0.570	0.360	-0.010
2020/01/31 17:29:06.0	357.170	-0.470	0.320	0.080
2020/01/31 17:29:06.1	357.110	-0.360	0.280	0.170
2020/01/31 17:29:06.2	357.060	-0.250	0.230	0.250
2020/01/31 17:29:06.3	357.000	-0.150	0.170	0.330
2020/01/31 17:29:06.4	356.950	-0.040	0.110	0.410
2020/01/31 17:29:06.5	356.890	0.070	0.050	0.490
2020/01/31 17:29:06.6	356.840	0.180	-0.020	0.560
2020/01/31 17:29:06.7	356.800	0.280	-0.090	0.630
2020/01/31 17:29:06.8	356.740	0.380	-0.170	0.690
2020/01/31 17:29:06.9	356.700	0.480	-0.250	0.750
2020/01/31 17:29:07.0	356.660	0.580	-0.330	0.800
2020/01/31 17:29:07.1	356.630	0.680	-0.420	0.840
2020/01/31 17:29:07.2	356.600	0.760	-0.510	0.880
2020/01/31 17:29:07.3	356.580	0.850	-0.590	0.910
2020/01/31 17:29:07.4	356.560	0.930	-0.680	0.930
2020/01/31 17:29:07.5	356.540	1.000	-0.770	0.950
2020/01/31 17:29:07.6	356.540	1.070	-0.860	0.960
2020/01/31 17:29:07.7	356.530	1.140	-0.950	0.960
2020/01/31 17:29:07.8	356.520	1.190	-1.030	0.960
2020/01/31 17:29:07.9	356.530	1.240	-1.110	0.950
2020/01/31 17:29:08.0	356.540	1.290	-1.190	0.940
2020/01/31 17:29:08.1	356.560	1.320	-1.270	0.920
2020/01/31 17:29:08.2	356.580	1.350	-1.340	0.890
2020/01/31 17:29:08.3	356.600	1.380	-1.400	0.850
2020/01/31 17:29:08.4	356.630	1.390	-1.460	0.820
2020/01/31 17:29:08.5	356.670	1.400	-1.510	0.770
2020/01/31 17:29:08.6	356.710	1.400	-1.550	0.720
2020/01/31 17:29:08.7	356.750	1.390	-1.580	0.660
2020/01/31 17:29:08.8	356.790	1.380	-1.610	0.590
2020/01/31 17:29:08.9	356.840	1.360	-1.630	0.520
2020/01/31 17:29:09.0	356.890	1.330	-1.640	0.450
2020/01/31 17:29:09.1	356.950	1.290	-1.640	0.360
2020/01/31 17:29:09.2	357.000	1.250	-1.630	0.280
2020/01/31 17:29:09.3	357.060	1.200	-1.610	0.190
2020/01/31 17:29:09.4	357.120	1.150	-1.580	0.100
2020/01/31 17:29:09.5	357.190	1.090	-1.540	0.000
2020/01/31 17:29:09.6	357.250	1.020	-1.490	-0.090
2020/01/31 17:29:09.7	357.310	0.960	-1.440	-0.190
2020/01/31 17:29:09.8	357.390	0.880	-1.370	-0.290
2020/01/31 17:29:09.9	357.450	0.810	-1.300	-0.380
2020/01/31 17:29:10.0	357.510	0.730	-1.220	-0.470
2020/01/31 17:29:10.1	357.570	0.650	-1.130	-0.560
2020/01/31 17:29:10.2	357.630	0.570	-1.040	-0.640
2020/01/31 17:29:10.3	357.680	0.480	-0.930	-0.720
2020/01/31 17:29:10.4	357.730	0.400	-0.830	-0.790
2020/01/31 17:29:10.5	357.770	0.310	-0.720	-0.860
2020/01/31 17:29:10.6	357.810	0.220	-0.600	-0.920
2020/01/31 17:29:10.7	357.850	0.140	-0.480	-0.980
2020/01/31 17:29:10.8	357.880	0.050	-0.360	-1.020
2020/01/31 17:29:10.9	357.910	-0.030	-0.240	-1.070
2020/01/31 17:29:11.0	357.940	-0.110	-0.120	-1.100
2020/01/31 17:29:11.1	357.960	-0.200	-0.000	-1.130
2020/01/31 17:29:11.2	357.980	-0.270	0.120	-1.150
2020/01/31 17:29:11.3	358.000	-0.350	0.230	-1.170
2020/01/31 17:29:11.4	358.010	-0.420	0.340	-1.180
2020/01/31 17:29:11.5	358.020	-0.490	0.450	-1.190
2020/01/31 17:29:11.6	358.020	-0.550	0.550	-1.190
2020/01/31 17:29:11.7	358.020	-0.610	0.640	-1.190
2020/01/31 17:29:11.8	358.040	-0.670	0.730	-1.190
2020/01/31 17:29:11.9	358.040	-0.720	0.810	-1.180
2020/01/31 17:29:12.0	358.030	-0.770	0.880	-1.170
2020/01/31 17:29:12.1	358.020	-0.810	0.940	-1.160
2020/01/31 17:29:12.2	358.010	-0.850	1.000	-1.140
2020/01/31 17:29:12.3	358.000	-0.880	1.040	-1.120
2020/01/31 17:29:12.4	357.990	-0.910	1.080	-1.100
2020/01/31 17:29:12.5	357.980	-0.930	1.110	-1.080
2020/01/31 17:29:12.6	357.960	-0.950	1.120	-1.060
2020/01/31 17:29:12.7	357.940	-0.960	1.130	-1.030
2020/01/31 17:29:12.8	357.920	-0.960	1.130	-1.010
2020/01/31 17:29:12.9	357.900	-0.960	1.120	-0.980
2020/01/31 17:29:13.0	357.870	-0.960	1.100	-0.950
2020/01/31 17:29:13.1	357.850	-0.950	1.080	-0.910
2020/01/31 17:29:13.2	357.820	-0.940	1.040	-0.880
2020/01/31 17:29:13.3	357.800	-0.920	1.010	-0.840
2020/01/31 17:29:13.4	357.770	-0.900	0.960	-0.810
2020/01/31 17:29:13.5	357.740	-0.870	0.910	-0.770
2020/01/31 17:29:13.6	357.700	-0.840	0.850	-0.720
2020/01/31 17:29:13.7	357.670	-0.810	0.790	-0.680
2020/01/31 17:29:13.8	357.630	-0.770	0.730	-0.630
2020/01/31 17:29:13.9	357.600	-0.730	0.660	-0.580
2020/01/31 17:29:14.0	357.560	-0.690	0.590	-0.540
2020/01/31 17:29:14.1	357.520	-0.650	0.510	-0.490
2020/01/31 17:29:14.2	357.490	-0.600	0.440	-0.440
2020/01/31 17:29:14.3	357.450	-0.550	0.360	-0.390
2020/01/31 17:29:14.4	357.420	-0.510	0.280	-0.340
2020/01/31 17:29:14.5	357.390	-0.460	0.200	-0.290
2020/01/31 17:29:14.6	357.350	-0.400	0.120	-0.250
2020/01/31 17:29:14.7	357.320	-0.350	0.040	-0.210
2020/01/31 17:29:14.8	357.280	-0.300	-0.040	-0.160
2020/01/31 17:29:14.9	357.250	-0.250	-0.120	-0.130
2020/01/31 17:29:15.0	357.230	-0.200	-0.200	-0.090
2020/01/31 17:29:15.1	357.200	-0.150	-0.270	-0.060
2020/01/31 17:29:15.2	357.180	-0.100	-0.340	-0.030
2020/01/31 17:29:15.3	357.160	-0.050	-0.420	-0.000
2020/01/31 17:29:15.4	357.150	-0.000	-0.480	0.020
2020/01/31 17:29:15.5	357.130	0.050	-0.540	0.040
2020/01/31 17:29:15.6	357.120	0.090	-0.600	0.050
2020/01/31 17:29:15.7	357.110	0.140	-0.660	0.070
2020/01/31 17:29:15.8	357.120	0.180	-0.710	0.080
2020/01/31 17:29:15.9	357.110	0.220	-0.750	0.090
2020/01/31 17:29:16.0	357.110	0.260	-0.790	0.090
2020/01/31 17:29:16.1	357.100	0.300	-0.820	0.100
2020/01/31 17:29:16.2	357.100	0.330	-0.850	0.100
2020/01/31 17:29:16.3	357.100	0.370	-0.870	0.100
2020/01/31 17:29:16.4	357.100	0.390	-0.890	0.100
2020/01/31 17:29:16.5	357.100	0.420	-0.900	0.100
2020/01/31 17:29:16.6	357.100	0.450	-0.910	0.100
2020/01/31 17:29:16.7	357.100	0.470	-0.910	0.100
2020/01/31 17:29:16.8	357.100	0.480	-0.910	0.090
2020/01/31 17:29:16.9	357.100	0.500	-0.900	0.090
2020/01/31 17:29:17.0	357.100	0.510	-0.880	0.080
2020/01/31 17:29:17.1	357.110	0.520	-0.870	0.080
2020/01/31 17:29:17.2	357.110	0.520	-0.850	0.070
2020/01/31 17:29:17.3	357.120	0.520	-0.830	0.060
2020/01/31 17:29:17.4	357.120	0.520	-0.800	0.050
2020/01/31 17:29:17.5	357.130	0.520	-0.780	0.030
2020/01/31 17:29:17.6	357.140	0.510	-0.750	0.020
2020/01/31 17:29:17.7	357.150	0.500	-0.720	-0.000
2020/01/31 17:29:17.8	357.180	0.490	-0.690	-0.020
2020/01/31 17:29:17.9	357.190	0.470	-0.670	-0.040
2020/01/31 17:29:18.0	357.210	0.450	-0.640	-0.060
2020/01/31 17:29:18.1	357.230	0.430	-0.620	-0.090
2020/01/31 17:29:18.2	357.250	0.410	-0.600	-0.120
2020/01/31 17:29:18.3	357.270	0.390	-0.580	-0.140
2020/01/31 17:29:18.4	357.300	0.370	-0.560	-0.170
2020/01/31 17:29:18.5	357.320	0.350	-0.540	-0.210
2020/01/31 17:29:18.6	357.350	0.320	-0.530	-0.240
2020/01/31 17:29:18.7	357.380	0.300	-0.510	-0.270
2020/01/31 17:29:18.8	357.410	0.270	-0.500	-0.310
2020/01/31 17:29:18.9	357.440	0.250	-0.500	-0.340
2020/01/31 17:29:19.0	357.480	0.230	-0.490	-0.370
2020/01/31 17:29:19.1	357.510	0.200	-0.480	-0.400
2020/01/31 17:29:19.2	357.540	0.180	-0.480	-0.430
2020/01/31 17:29:19.3	357.580	0.160	-0.470	-0.460
2020/01/31 17:29:19.4	357.610	0.130	-0.470	-0.490
2020/01/31 17:29:19.5	357.630	0.110	-0.460	-0.510
2020/01/31 17:29:19.6	357.660	0.090	-0.450	-0.520
2020/01/31 17:29:19.7	357.680	0.070	-0.440	-0.540
2020/01/31 17:29:19.8	357.700	0.050	-0.430	-0.550
2020/01/31 17:29:19.9	357.720	0.030	-0.420	-0.550
2020/01/31 17:29:20.0	357.730	0.010	-0.400	-0.550
2020/01/31 17:29:20.1	357.740	-0.010	-0.380	-0.550
2020/01/31 17:29:20.2	357.750	-0.020	-0.370	-0.540
2020/01/31 17:29:20.3	357.750	-0.040	-0.350	-0.530
2020/01/31 17:29:20.4	357.760	-0.060	-0.320	-0.520
2020/01/31 17:29:20.5	357.760	-0.070	-0.300	-0.500
2020/01/31 17:29:20.6	357.760	-0.090	-0.280	-0.480
2020/01/31 17:29:20.7	357.750	-0.100	-0.260	-0.460
2020/01/31 17:29:20.8	357.750	-0.110	-0.240	-0.440
2020/01/31 17:29:20.9	357.750	-0.120	-0.210	-0.410
2020/01/31 17:29:21.0	357.740	-0.130	-0.190	-0.390
2020/01/31 17:29:21.1	357.740	-0.140	-0.170	-0.360
2020/01/31 17:29:21.2	357.730	-0.150	-0.140	-0.340
2020/01/31 17:29:21.3	357.720	-0.160	-0.120	-0.310
2020/01/31 17:29:21.4	357.710	-0.160	-0.100	-0.290
2020/01/31 17:29:21.5	357.710	-0.160	-0.090	-0.260
2020/01/31 17:29:21.6	357.700	-0.160	-0.070	-0.240
2020/01/31 17:29:21.7	357.700	-0.160	-0.060	-0.220
2020/01/31 17:29:21.8	357.700	-0.160	-0.040	-0.200
2020/01/31 17:29:21.9	357.690	-0.160	-0.030	-0.180
2020/01/31 17:29:22.0	357.690	-0.150	-0.020	-0.160
2020/01/31 17:29:22.1	357.690	-0.140	-0.020	-0.150
2020/01/31 17:29:22.2	357.690	-0.130	-0.020	-0.130
2020/01/31 17:29:22.3	357.690	-0.120	-0.010	-0.130
2020/01/31 17:29:22.4	357.690	-0.110	-0.010	-0.120
2020/01/31 17:29:22.5	357.690	-0.090	-0.020	-0.110
2020/01/31 17:29:22.6	357.690	-0.080	-0.020	-0.110
2020/01/31 17:29:22.7	357.690	-0.060	-0.020	-0.110
2020/01/31 17:29:22.8	357.680	-0.040	-0.030	-0.100
2020/01/31 17:29:22.9	357.690	-0.030	-0.040	-0.100
2020/01/31 17:29:23.0	357.690	-0.010	-0.040	-0.110
2020/01/31 17:29:23.1	357.690	0.010	-0.050	-0.110
2020/01/31 17:29:23.2	357.690	0.040	-0.060	-0.110
2020/01/31 17:29:23.3	357.690	0.060	-0.070	-0.110
2020/01/31 17:29:23.4	357.690	0.080	-0.070	-0.110
2020/01/31 17:29:23.5	357.690	0.100	-0.080	-0.110
2020/01/31 17:29:23.6	357.690	0.110	-0.090	-0.110
2020/01/31 17:29:23.7	357.690	0.130	-0.100	-0.110
2020/01/31 17:29:23.8	357.680	0.150	-0.100	-0.110
2020/01/31 17:29:23.9	357.680	0.170	-0.110	-0.110
2020/01/31 17:29:24.0	357.670	0.180	-0.120	-0.120
2020/01/31 17:29:24.1	357.670	0.190	-0.130	-0.120
2020/01/31 17:29:24.2	357.660	0.200	-0.140	-0.120
2020/01/31 17:29:24.3	357.660	0.210	-0.140	-0.130
2020/01/31 17:29:24.4	357.650	0.220	-0.150	-0.140
2020/01/31 17:29:24.5	357.650	0.220	-0.160	-0.150
2020/01/31 17:29:24.6	357.640	0.220	-0.170	-0.170
2020/01/31 17:29:24.7	357.630	0.220	-0.180	-0.180
2020/01/31 17:29:24.8	357.630	0.220	-0.190	-0.200
2020/01/31 17:29:24.9	357.630	0.210	-0.200	-0.220
2020/01/31 17:29:25.0	357.620	0.200	-0.210	-0.250
2020/01/31 17:29:25.1	357.620	0.190	-0.210	-0.280
2020/01/31 17:29:25.2	357.620	0.180	-0.220	-0.310
2020/01/31 17:29:25.3	357.610	0.160	-0.230	-0.350
2020/01/31 17:29:25.4	357.610	0.150	-0.240	-0.380
2020/01/31 17:29:25.5	357.610	0.130	-0.250	-0.420
2020/01/31 17:29:25.6	357.610	0.110	-0.260	-0.460
2020/01/31 17:29:25.7	357.610	0.090	-0.270	-0.500
2020/01/31 17:29:25.8	357.620	0.060	-0.270	-0.540
2020/01/31 17:29:25.9	357.620	0.040	-0.280	-0.590
2020/01/31 17:29:26.0	357.620	0.010	-0.280	-0.630
2020/01/31 17:29:26.1	357.620	-0.010	-0.290	-0.670
2020/01/31 17:29:26.2	357.620	-0.040	-0.290	-0.720
2020/01/31 17:29:26.3	357.620	-0.070	-0.300	-0.760
2020/01/31 17:29:26.4	357.620	-0.100	-0.300	-0.800
2020/01/31 17:29:26.5	357.620	-0.130	-0.300	-0.840
2020/01/31 17:29:26.6	357.620	-0.150	-0.300	-0.880
2020/01/31 17:29:26.7	357.630	-0.180	-0.300	-0.920
2020/01/31 17:29:26.8	357.630	-0.210	-0.290	-0.950
2020/01/31 17:29:26.9	357.630	-0.230	-0.290	-0.980
2020/01/31 17:29:27.0	357.630	-0.260	-0.280	-1.000
2020/01/31 17:29:27.1	357.630	-0.280	-0.280	-1.030
2020/01/31 17:29:27.2	357.630	-0.300	-0.270	-1.050
2020/01/31 17:29:27.3	357.640	-0.320	-0.260	-1.060
2020/01/31 17:29:27.4	357.640	-0.340	-0.250	-1.070
2020/01/31 17:29:27.5	357.640	-0.350	-0.240	-1.080
2020/01/31 17:29:27.6	357.640	-0.360	-0.230	-1.080
2020/01/31 17:29:27.7	357.640	-0.370	-0.220	-1.080
2020/01/31 17:29:27.8	357.640	-0.380	-0.210	-1.070
2020/01/31 17:29:27.9	357.640	-0.380	-0.200	-1.070
2020/01/31 17:29:28.0	357.640	-0.380	-0.190	-1.050
2020/01/31 17:29:28.1	357.640	-0.380	-0.190	-1.040
2020/01/31 17:29:28.2	357.640	-0.370	-0.180	-1.020
2020/01/31 17:29:28.3	357.640	-0.360	-0.170	-1.000
2020/01/31 17:29:28.4	357.640	-0.350	-0.160	-0.970
2020/01/31 17:29:28.5	357.640	-0.330	-0.160	-0.940
2020/01/31 17:29:28.6	357.650	-0.310	-0.160	-0.910
2020/01/31 17:29:28.7	357.650	-0.290	-0.150	-0.880
2020/01/31 17:29:28.8	357.650	-0.260	-0.150	-0.840
2020/01/31 17:29:28.9	357.650	-0.230	-0.150	-0.800
2020/01/31 17:29:29.0	357.650	-0.200	-0.150	-0.760
2020/01/31 17:29:29.1	357.650	-0.170	-0.150	-0.710
2020/01/31 17:29:29.2	357.650	-0.130	-0.150	-0.660
2020/01/31 17:29:29.3	357.650	-0.090	-0.150	-0.610
2020/01/31 17:29:29.4	357.640	-0.050	-0.150	-0.560
2020/01/31 17:29:29.5	357.640	-0.020	-0.150	-0.510
2020/01/31 17:29:29.6	357.630	0.020	-0.150	-0.460
2020/01/31 17:29:29.7	357.630	0.060	-0.150	-0.400
2020/01/31 17:29:29.8	357.610	0.100	-0.150	-0.340
2020/01/31 17:29:29.9	357.600	0.140	-0.150	-0.280
2020/01/31 17:29:30.0	357.590	0.170	-0.150	-0.230
2020/01/31 17:29:30.1	357.580	0.210	-0.150	-0.170
2020/01/31 17:29:30.2	357.570	0.240	-0.150	-0.110
2020/01/31 17:29:30.3	357.560	0.270	-0.150	-0.060
2020/01/31 17:29:30.4	357.540	0.300	-0.150	-0.000
2020/01/31 17:29:30.5	357.530	0.330	-0.150	0.050
2020/01/31 17:29:30.6	357.510	0.350	-0.150	0.100
2020/01/31 17:29:30.7	357.500	0.370	-0.150	0.150
2020/01/31 17:29:30.8	357.490	0.390	-0.150	0.200
2020/01/31 17:29:30.9	357.470	0.400	-0.160	0.250
2020/01/31 17:29:31.0	357.460	0.410	-0.160	0.290
2020/01/31 17:29:31.1	357.450	0.420	-0.170	0.330
2020/01/31 17:29:31.2	357.430	0.430	-0.170	0.360
2020/01/31 17:29:31.3	357.420	0.430	-0.180	0.390
2020/01/31 17:29:31.4	357.410	0.430	-0.190	0.420
2020/01/31 17:29:31.5	357.400	0.430	-0.200	0.440
2020/01/31 17:29:31.6	357.390	0.420	-0.220	0.460
2020/01/31 17:29:31.7	357.390	0.410	-0.240	0.470
2020/01/31 17:29:31.8	357.380	0.410	-0.250	0.470
2020/01/31 17:29:31.9	357.380	0.400	-0.280	0.470
2020/01/31 17:29:32.0	357.390	0.380	-0.300	0.460
2020/01/31 17:29:32.1	357.390	0.370	-0.330	0.450
2020/01/31 17:29:32.2	357.400	0.360	-0.360	0.430
2020/01/31 17:29:32.3	357.420	0.340	-0.400	0.400
2020/01/31 17:29:32.4	357.430	0.330	-0.440	0.370
2020/01/31 17:29:32.5	357.450	0.310	-0.480	0.330
2020/01/31 17:29:32.6	357.470	0.300	-0.520	0.280
2020/01/31 17:29:32.7	357.500	0.280	-0.560	0.230
2020/01/31 17:29:32.8	357.520	0.270	-0.600	0.180
2020/01/31 17:29:32.9	357.550	0.250	-0.650	0.120
2020/01/31 17:29:33.0	357.580	0.240	-0.690	0.060
2020/01/31 17:29:33.1	357.610	0.220	-0.730	0.000
2020/01/31 17:29:33.2	357.640	0.200	-0.770	-0.060
2020/01/31 17:29:33.3	357.670	0.190	-0.800	-0.120
2020/01/31 17:29:33.4	357.700	0.170	-0.830	-0.190
2020/01/31 17:29:33.5	357.730	0.150	-0.860	-0.250
2020/01/31 17:29:33.6	357.750	0.130	-0.880	-0.310
2020/01/31 17:29:33.7	357.780	0.120	-0.890	-0.370
2020/01/31 17:29:33.8	357.810	0.100	-0.900	-0.420
2020/01/31 17:29:33.9	357.840	0.080	-0.910	-0.480
2020/01/31 17:29:34.0	357.860	0.050	-0.910	-0.530
2020/01/31 17:29:34.1	357.880	0.030	-0.900	-0.580
2020/01/31 17:29:34.2	357.890	0.010	-0.880	-0.630
2020/01/31 17:29:34.3	357.910	-0.020	-0.860	-0.670
2020/01/31 17:29:34.4	357.920	-0.040	-0.830	-0.700
2020/01/31 17:29:34.5	357.940	-0.070	-0.790	-0.740
2020/01/31 17:29:34.6	357.950	-0.090	-0.750	-0.770
2020/01/31 17:29:34.7	357.960	-0.120	-0.710	-0.790
2020/01/31 17:29:34.8	357.990	-0.150	-0.650	-0.810
2020/01/31 17:29:34.9	358.000	-0.180	-0.600	-0.830
2020/01/31 17:29:35.0	358.000	-0.210	-0.540	-0.840
2020/01/31 17:29:35.1	358.000	-0.240	-0.470	-0.850
2020/01/31 17:29:35.2	358.010	-0.270	-0.400	-0.850
2020/01/31 17:29:35.3	358.010	-0.300	-0.330	-0.850
2020/01/31 17:29:35.4	358.000	-0.330	-0.260	-0.840
2020/01/31 17:29:35.5	358.000	-0.360	-0.180	-0.830
2020/01/31 17:29:35.6	358.000	-0.390	-0.110	-0.820
2020/01/31 17:29:35.7	357.990	-0.420	-0.030	-0.800
2020/01/31 17:29:35.8	357.980	-0.440	0.040	-0.780
2020/01/31 17:29:35.9	357.970	-0.470	0.120	-0.760
2020/01/31 17:29:36.0	357.960	-0.490	0.190	-0.740
2020/01/31 17:29:36.1	357.940	-0.520	0.260	-0.710
2020/01/31 17:29:36.2	357.930	-0.530	0.330	-0.680
2020/01/31 17:29:36.3	357.910	-0.550	0.390	-0.650
2020/01/31 17:29:36.4	357.890	-0.570	0.450	-0.610
2020/01/31 17:29:36.5	357.870	-0.580	0.500	-0.580
2020/01/31 17:29:36.6	357.850	-0.580	0.550	-0.540
2020/01/31 17:29:36.7	357.820	-0.590	0.600	-0.490
2020/01/31 17:29:36.8	357.790	-0.590	0.640	-0.450
2020/01/31 17:29:36.9	357.760	-0.580	0.670	-0.400
2020/01/31 17:29:37.0	357.730	-0.570	0.700	-0.350
2020/01/31 17:29:37.1	357.700	-0.560	0.720	-0.300
2020/01/31 17:29:37.2	357.670	-0.540	0.740	-0.250
2020/01/31 17:29:37.3	357.630	-0.520	0.750	-0.190
2020/01/31 17:29:37.4	357.600	-0.500	0.750	-0.130
2020/01/31 17:29:37.5	357.560	-0.470	0.750	-0.080
2020/01/31 17:29:37.6	357.530	-0.430	0.730	-0.020
2020/01/31 17:29:37.7	357.490	-0.400	0.720	0.040
2020/01/31 17:29:37.8	357.440	-0.360	0.690	0.100
2020/01/31 17:29:37.9	357.410	-0.310	0.660	0.150
2020/01/31 17:29:38.0	357.370	-0.260	0.620	0.200
2020/01/31 17:29:38.1	357.340	-0.210	0.570	0.250
2020/01/31 17:29:38.2	357.310	-0.160	0.520	0.290
2020/01/31 17:29:38.3	357.280	-0.100	0.460	0.330
2020/01/31 17:29:38.4	357.250	-0.040	0.400	0.370
2020/01/31 17:29:38.5	357.220	0.020	0.330	0.400
2020/01/31 17:29:38.6	357.200	0.080	0.250	0.420
2020/01/31 17:29:38.7	357.180	0.140	0.170	0.450
2020/01/31 17:29:38.8	357.150	0.200	0.090	0.460
2020/01/31 17:29:38.9	357.130	0.260	0.010	0.470
2020/01/31 17:29:39.0	357.120	0.330	-0.080	0.480
2020/01/31 17:29:39.1	357.100	0.390	-0.170	0.490
2020/01/31 17:29:39.2	357.090	0.440	-0.260	0.490
2020/01/31 17:29:39.3	357.080	0.500	-0.350	0.490
2020/01/31 17:29:39.4	357.070	0.560	-0.440	0.480
2020/01/31 17:29:39.5	357.060	0.610	-0.530	0.480
2020/01/31 17:29:39.6	357.060	0.650	-0.620	0.470
2020/01/31 17:29:39.7	357.050	0.690	-0.700	0.460
2020/01/31 17:29:39.8	357.050	0.730	-0.780	0.450
2020/01/31 17:29:39.9	357.040	0.770	-0.860	0.430
2020/01/31 17:29:40.0	357.040	0.790	-0.930	0.410
2020/01/31 17:29:40.1	357.030	0.810	-1.000	0.390
2020/01/31 17:29:40.2	357.020	0.830	-1.060	0.370
2020/01/31 17:29:40.3	357.020	0.840	-1.120	0.340
2020/01/31 17:29:40.4	357.010	0.840	-1.170	0.310
2020/01/31 17:29:40.5	357.010	0.840	-1.210	0.270
2020/01/31 17:29:40.6	357.010	0.830	-1.250	0.230
2020/01/31 17:29:40.7	357.000	0.820	-1.280	0.190
2020/01/31 17:29:40.8	357.000	0.800	-1.310	0.140
2020/01/31 17:29:40.9	357.000	0.780	-1.330	0.090
2020/01/31 17:29:41.0	357.000	0.750	-1.340	0.040
2020/01/31 17:29:41.1	357.000	0.710	-1.350	-0.020
2020/01/31 17:29:41.2	357.010	0.670	-1.350	-0.080
2020/01/31 17:29:41.3	357.010	0.630	-1.340	-0.150
2020/01/31 17:29:41.4	357.020	0.580	-1.330	-0.210
2020/01/31 17:29:41.5	357.030	0.530	-1.310	-0.280
2020/01/31 17:29:41.6	357.040	0.470	-1.290	-0.360
2020/01/31 17:29:41.7	357.050	0.420	-1.260	-0.430
2020/01/31 17:29:41.8	357.070	0.360	-1.230	-0.500
2020/01/31 17:29:41.9	357.080	0.300	-1.190	-0.570
2020/01/31 17:29:42.0	357.100	0.240	-1.140	-0.650
2020/01/31 17:29:42.1	357.120	0.180	-1.100	-0.710
2020/01/31 17:29:42.2	357.140	0.120	-1.040	-0.780
2020/01/31 17:29:42.3	357.160	0.060	-0.990	-0.840
2020/01/31 17:29:42.4	357.180	-0.000	-0.930	-0.910
2020/01/31 17:29:42.5	357.200	-0.060	-0.860	-0.960
2020/01/31 17:29:42.6	357.220	-0.110	-0.790	-1.010
2020/01/31 17:29:42.7	357.240	-0.170	-0.720	-1.060
2020/01/31 17:29:42.8	357.280	-0.220	-0.650	-1.110
2020/01/31 17:29:42.9	357.300	-0.270	-0.570	-1.150
2020/01/31 17:29:43.0	357.320	-0.310	-0.500	-1.180
2020/01/31 17:29:43.1	357.350	-0.360	-0.410	-1.210
2020/01/31 17:29:43.2	357.370	-0.400	-0.330	-1.240
2020/01/31 17:29:43.3	357.390	-0.440	-0.250	-1.260
2020/01/31 17:29:43.4	357.410	-0.470	-0.170	-1.270
2020/01/31 17:29:43.5	357.430	-0.500	-0.080	-1.280
2020/01/31 17:29:43.6	357.450	-0.530	0.000	-1.290
2020/01/31 17:29:43.7	357.470	-0.550	0.080	-1.290
2020/01/31 17:29:43.8	357.500	-0.570	0.160	-1.280
2020/01/31 17:29:43.9	357.520	-0.580	0.240	-1.270
2020/01/31 17:29:44.0	357.530	-0.600	0.320	-1.250
2020/01/31 17:29:44.1	357.540	-0.600	0.390	-1.230
2020/01/31 17:29:44.2	357.560	-0.610	0.460	-1.200
2020/01/31 17:29:44.3	357.570	-0.610	0.530	-1.170
2020/01/31 17:29:44.4	357.570	-0.600	0.590	-1.130
2020/01/31 17:29:44.5	357.580	-0.600	0.640	-1.090
2020/01/31 17:29:44.6	357.590	-0.590	0.690	-1.050
2020/01/31 17:29:44.7	357.590	-0.570	0.730	-1.000
2020/01/31 17:29:44.8	357.600	-0.560	0.770	-0.950
2020/01/31 17:29:44.9	357.610	-0.540	0.800	-0.900
2020/01/31 17:29:45.0	357.610	-0.510	0.820	-0.840
2020/01/31 17:29:45.1	357.610	-0.490	0.840	-0.780
2020/01/31 17:29:45.2	357.600	-0.470	0.850	-0.720
2020/01/31 17:29:45.3	357.600	-0.440	0.850	-0.660
2020/01/31 17:29:45.4	357.590	-0.410	0.850	-0.600
2020/01/31 17:29:45.5	357.580	-0.380	0.840	-0.530
2020/01/31 17:29:45.6	357.570	-0.350	0.820	-0.470
2020/01/31 17:29:45.7	357.550	-0.320	0.790	-0.400
2020/01/31 17:29:45.8	357.530	-0.290	0.760	-0.340
2020/01/31 17:29:45.9	357.510	-0.260	0.720	-0.270
2020/01/31 17:29:46.0	357.490	-0.240	0.680	-0.220
2020/01/31 17:29:46.1	357.470	-0.210	0.630	-0.160
2020/01/31 17:29:46.2	357.450	-0.180	0.570	-0.110
2020/01/31 17:29:46.3	357.420	-0.160	0.510	-0.060
2020/01/31 17:29:46.4	357.400	-0.130	0.440	-0.020
2020/01/31 17:29:46.5	357.380	-0.110	0.370	0.020
2020/01/31 17:29:46.6	357.350	-0.090	0.300	0.050
2020/01/31 17:29:46.7	357.330	-0.070	0.220	0.080
2020/01/31 17:29:46.8	357.300	-0.050	0.140	0.100
2020/01/31 17:29:46.9	357.280	-0.040	0.050	0.120
2020/01/31 17:29:47.0	357.260	-0.020	-0.030	0.130
2020/01/31 17:29:47.1	357.240	-0.010	-0.120	0.130
2020/01/31 17:29:47.2	357.220	0.000	-0.200	0.140
2020/01/31 17:29:47.3	357.210	0.010	-0.290	0.130
2020/01/31 17:29:47.4	357.190	0.020	-0.380	0.120
2020/01/31 17:29:47.5	357.180	0.020	-0.460	0.110
2020/01/31 17:29:47.6	357.170	0.030	-0.540	0.100
2020/01/31 17:29:47.7	357.160	0.030	-0.620	0.080
2020/01/31 17:29:47.8	357.150	0.030	-0.690	0.060
2020/01/31 17:29:47.9	357.150	0.030	-0.760	0.050
2020/01/31 17:29:48.0	357.140	0.030	-0.820	0.020
2020/01/31 17:29:48.1	357.140	0.030	-0.880	0.000
2020/01/31 17:29:48.2	357.140	0.030	-0.930	-0.020
2020/01/31 17:29:48.3	357.130	0.030	-0.970	-0.040
2020/01/31 17:29:48.4	357.130	0.020	-1.000	-0.060
2020/01/31 17:29:48.5	357.130	0.020	-1.030	-0.080
2020/01/31 17:29:48.6	357.120	0.010	-1.040	-0.100
2020/01/31 17:29:48.7	357.120	0.010	-1.050	-0.120
2020/01/31 17:29:48.8	357.110	0.010	-1.050	-0.140
2020/01/31 17:29:48.9	357.100	0.000	-1.050	-0.150
2020/01/31 17:29:49.0	357.090	-0.000	-1.030	-0.170
2020/01/31 17:29:49.1	357.080	-0.000	-1.010	-0.180
2020/01/31 17:29:49.2	357.070	-0.010	-0.980	-0.200
2020/01/31 17:29:49.3	357.050	-0.010	-0.940	-0.210
2020/01/31 17:29:49.4	357.040	-0.010	-0.900	-0.210
2020/01/31 17:29:49.5	357.020	-0.010	-0.850	-0.220
2020/01/31 17:29:49.6	357.000	-0.000	-0.790	-0.220
2020/01/31 17:29:49.7	356.980	0.000	-0.740	-0.220
2020/01/31 17:29:49.8	356.980	0.010	-0.680	-0.220
2020/01/31 17:29:49.9	356.960	0.020	-0.620	-0.210
2020/01/31 17:29:50.0	356.940	0.030	-0.550	-0.200
2020/01/31 17:29:50.1	356.920	0.040	-0.490	-0.200
2020/01/31 17:29:50.2	356.910	0.050	-0.430	-0.190
2020/01/31 17:29:50.3	356.890	0.060	-0.370	-0.170
2020/01/31 17:29:50.4	356.870	0.080	-0.310	-0.160
2020/01/31 17:29:50.5	356.860	0.100	-0.260	-0.150
2020/01/31 17:29:50.6	356.850	0.120	-0.210	-0.130
2020/01/31 17:29:50.7	356.840	0.140	-0.170	-0.120
2020/01/31 17:29:50.8	356.830	0.170	-0.130	-0.100
2020/01/31 17:29:50.9	356.820	0.190	-0.100	-0.090
2020/01/31 17:29:51.0	356.820	0.220	-0.080	-0.070
2020/01/31 17:29:51.1	356.810	0.240	-0.060	-0.060
2020/01/31 17:29:51.2	356.810	0.270	-0.050	-0.040
2020/01/31 17:29:51.3	356.810	0.300	-0.050	-0.030
2020/01/31 17:29:51.4	356.810	0.320	-0.050	-0.020
2020/01/31 17:29:51.5	356.820	0.350	-0.060	-0.010
2020/01/31 17:29:51.6	356.820	0.380	-0.080	-0.010
2020/01/31 17:29:51.7	356.830	0.400	-0.100	-0.000
2020/01/31 17:29:51.8	356.840	0.430	-0.130	0.000
2020/01/31 17:29:51.9	356.850	0.450	-0.160	-0.000
2020/01/31 17:29:52.0	356.860	0.470	-0.200	-0.000
2020/01/31 17:29:52.1	356.870	0.480	-0.240	-0.010
2020/01/31 17:29:52.2	356.880	0.500	-0.280	-0.020
2020/01/31 17:29:52.3	356.900	0.510	-0.320	-0.030
2020/01/31 17:29:52.4	356.910	0.520	-0.360	-0.040
2020/01/31 17:29:52.5	356.930	0.530	-0.410	-0.060
2020/01/31 17:29:52.6	356.940	0.530	-0.450	-0.080
2020/01/31 17:29:52.7	356.960	0.530	-0.490	-0.100
2020/01/31 17:29:52.8	356.990	0.520	-0.530	-0.120
2020/01/31 17:29:52.9	357.010	0.520	-0.560	-0.140
2020/01/31 17:29:53.0	357.030	0.500	-0.590	-0.170
2020/01/31 17:29:53.1	357.050	0.490	-0.620	-0.190
2020/01/31 17:29:53.2	357.070	0.470	-0.650	-0.220
2020/01/31 17:29:53.3	357.100	0.450	-0.670	-0.240
2020/01/31 17:29:53.4	357.120	0.420	-0.680	-0.270
2020/01/31 17:29:53.5	357.150	0.400	-0.690	-0.290
2020/01/31 17:29:53.6	357.170	0.370	-0.690	-0.320
2020/01/31 17:29:53.7	357.200	0.330	-0.690	-0.340
2020/01/31 17:29:53.8	357.230	0.300	-0.680	-0.370
2020/01/31 17:29:53.9	357.260	0.260	-0.670	-0.390
2020/01/31 17:29:54.0	357.290	0.220	-0.650	-0.410
2020/01/31 17:29:54.1	357.320	0.180	-0.620	-0.430
2020/01/31 17:29:54.2	357.350	0.130	-0.600	-0.450
2020/01/31 17:29:54.3	357.380	0.090	-0.560	-0.470
2020/01/31 17:29:54.4	357.410	0.050	-0.520	-0.490
2020/01/31 17:29:54.5	357.440	-0.000	-0.480	-0.500
2020/01/31 17:29:54.6	357.460	-0.050	-0.430	-0.510
2020/01/31 17:29:54.7	357.490	-0.090	-0.380	-0.520
2020/01/31 17:29:54.8	357.510	-0.140	-0.320	-0.520
2020/01/31 17:29:54.9	357.530	-0.180	-0.260	-0.530
2020/01/31 17:29:55.0	357.540	-0.230	-0.200	-0.530
2020/01/31 17:29:55.1	357.550	-0.270	-0.130	-0.530
2020/01/31 17:29:55.2	357.560	-0.310	-0.070	-0.520
2020/01/31 17:29:55.3	357.570	-0.350	-0.000	-0.520
2020/01/31 17:29:55.4	357.570	-0.390	0.060	-0.510
2020/01/31 17:29:55.5	357.570	-0.430	0.130	-0.500
2020/01/31 17:29:55.6	357.560	-0.460	0.190	-0.490
2020/01/31 17:29:55.7	357.560	-0.490	0.250	-0.470
2020/01/31 17:29:55.8	357.530	-0.520	0.310	-0.460
2020/01/31 17:29:55.9	357.520	-0.550	0.360	-0.440
2020/01/31 17:29:56.0	357.500	-0.570	0.410	-0.420
2020/01/31 17:29:56.1	357.480	-0.590	0.460	-0.390
2020/01/31 17:29:56.2	357.460	-0.600	0.500	-0.370
2020/01/31 17:29:56.3	357.440	-0.610	0.540	-0.340
2020/01/31 17:29:56.4	357.420	-0.620	0.580	-0.310
2020/01/31 17:29:56.5	357.390	-0.620	0.600	-0.280
2020/01/31 17:29:56.6	357.360	-0.620	0.620	-0.250
2020/01/31 17:29:56.7	357.330	-0.620	0.640	-0.210
2020/01/31 17:29:56.8	357.300	-0.610	0.650	-0.180
2020/01/31 17:29:56.9	357.270	-0.600	0.650	-0.140
2020/01/31 17:29:57.0	357.230	-0.590	0.650	-0.110
2020/01/31 17:29:57.1	357.200	-0.570	0.640	-0.070
2020/01/31 17:29:57.2	357.170	-0.560	0.620	-0.040
2020/01/31 17:29:57.3	357.140	-0.530	0.590	-0.010
2020/01/31 17:29:57.4	357.110	-0.510	0.560	0.020
2020/01/31 17:29:57.5	357.080	-0.480	0.530	0.040
2020/01/31 17:29:57.6	357.040	-0.450	0.480	0.060
2020/01/31 17:29:57.7	357.020	-0.420	0.430	0.080
2020/01/31 17:29:57.8	356.990	-0.390	0.380	0.100
2020/01/31 17:29:57.9	356.960	-0.360	0.320	0.110
2020/01/31 17:29:58.0	356.940	-0.330	0.260	0.120
2020/01/31 17:29:58.1	356.910	-0.290	0.190	0.130
2020/01/31 17:29:58.2	356.890	-0.260	0.120	0.130
2020/01/31 17:29:58.3	356.870	-0.220	0.050	0.130
2020/01/31 17:29:58.4	356.850	-0.190	-0.030	0.130
2020/01/31 17:29:58.5	356.840	-0.150	-0.100	0.120
2020/01/31 17:29:58.6	356.820	-0.120	-0.180	0.110
2020/01/31 17:29:58.7	356.810	-0.090	-0.260	0.100
2020/01/31 17:29:58.8	356.810	-0.050	-0.330	0.080
2020/01/31 17:29:58.9	356.810	-0.020	-0.410	0.070
2020/01/31 17:29:59.0	356.810	0.010	-0.480	0.050
2020/01/31 17:29:59.1	356.810	0.040	-0.550	0.030
2020/01/31 17:29:59.2	356.810	0.070	-0.620	0.010
2020/01/31 17:29:59.3	356.820	0.100	-0.680	-0.020
2020/01/31 17:29:59.4	356.830	0.130	-0.750	-0.040
2020/01/31 17:29:59.5	356.850	0.150	-0.800	-0.070
2020/01/31 17:29:59.6	356.870	0.170	-0.860	-0.100
2020/01/31 17:29:59.7	356.890	0.200	-0.910	-0.130
2020/01/31 17:29:59.8	356.910	0.220	-0.960	-0.160
2020/01/31 17:29:59.9	356.940	0.240	-1.000	-0.190
2020/01/31 17:30:00.0	356.970	0.260	-1.030	-0.220
2020/01/31 17:30:00.1	357.000	0.270	-1.070	-0.250
2020/01/31 17:30:00.2	357.040	0.290	-1.090	-0.280
2020/01/31 17:30:00.3	357.070	0.300	-1.120	-0.310
2020/01/31 17:30:00.4	357.110	0.310	-1.130	-0.340
2020/01/31 17:30:00.5	357.140	0.320	-1.150	-0.370
2020/01/31 17:30:00.6	357.180	0.330	-1.150	-0.400
2020/01/31 17:30:00.7	357.210	0.340	-1.150	-0.430
2020/01/31 17:30:00.8	357.240	0.340	-1.150	-0.450
2020/01/31 17:30:00.9	357.270	0.340	-1.130	-0.480
2020/01/31 17:30:01.0	357.300	0.340	-1.120	-0.500
2020/01/31 17:30:01.1	357.320	0.340	-1.100	-0.520
2020/01/31 17:30:01.2	357.350	0.340	-1.070	-0.540
2020/01/31 17:30:01.3	357.370	0.340	-1.040	-0.550
2020/01/31 17:30:01.4	357.390	0.330	-1.000	-0.560
2020/01/31 17:30:01.5	357.410	0.330	-0.960	-0.560
2020/01/31 17:30:01.6	357.430	0.320	-0.910	-0.560
2020/01/31 17:30:01.7	357.440	0.310	-0.860	-0.560
2020/01/31 17:30:01.8	357.460	0.300	-0.810	-0.550
2020/01/31 17:30:01.9	357.470	0.280	-0.750	-0.550
2020/01/31 17:30:02.0	357.480	0.270	-0.690	-0.540
2020/01/31 17:30:02.1	357.480	0.260	-0.630	-0.520
2020/01/31 17:30:02.2	357.490	0.240	-0.570	-0.510
2020/01/31 17:30:02.3	357.490	0.230	-0.500	-0.490
2020/01/31 17:30:02.4	357.490	0.210	-0.440	-0.470
2020/01/31 17:30:02.5	357.490	0.200	-0.370	-0.450
2020/01/31 17:30:02.6	357.490	0.180	-0.310	-0.430
2020/01/31 17:30:02.7	357.480	0.160	-0.240	-0.410
2020/01/31 17:30:02.8	357.480	0.140	-0.180	-0.390
2020/01/31 17:30:02.9	357.470	0.120	-0.120	-0.370
2020/01/31 17:30:03.0	357.470	0.100	-0.060	-0.350
2020/01/31 17:30:03.1	357.470	0.080	-0.010	-0.340
2020/01/31 17:30:03.2	357.460	0.060	0.040	-0.320
2020/01/31 17:30:03.3	357.460	0.040	0.090	-0.310
2020/01/31 17:30:03.4	357.460	0.020	0.130	-0.300
2020/01/31 17:30:03.5	357.450	0.000	0.170	-0.290
2020/01/31 17:30:03.6	357.450	-0.020	0.210	-0.280
2020/01/31 17:30:03.7	357.440	-0.040	0.240	-0.280
2020/01/31 17:30:03.8	357.430	-0.060	0.270	-0.270
2020/01/31 17:30:03.9	357.430	-0.090	0.290	-0.260
2020/01/31 17:30:04.0	357.420	-0.110	0.320	-0.260
2020/01/31 17:30:04.1	357.410	-0.140	0.340	-0.260
2020/01/31 17:30:04.2	357.390	-0.160	0.350	-0.260
2020/01/31 17:30:04.3	357.380	-0.190	0.370	-0.260
2020/01/31 17:30:04.4	357.360	-0.210	0.380	-0.270
2020/01/31 17:30:04.5	357.340	-0.240	0.390	-0.270
2020/01/31 17:30:04.6	357.320	-0.260	0.400	-0.280
2020/01/31 17:30:04.7	357.300	-0.290	0.400	-0.290
2020/01/31 17:30:04.8	357.270	-0.320	0.400	-0.300
2020/01/31 17:30:04.9	357.250	-0.340	0.400	-0.310
2020/01/31 17:30:05.0	357.220	-0.360	0.390	-0.320
2020/01/31 17:30:05.1	357.190	-0.390	0.390	-0.340
2020/01/31 17:30:05.2	357.160	-0.410	0.380	-0.350
2020/01/31 17:30:05.3	357.130	-0.420	0.370	-0.370
2020/01/31 17:30:05.4	357.100	-0.440	0.350	-0.380
2020/01/31 17:30:05.5	357.070	-0.460	0.340	-0.400
2020/01/31 17:30:05.6	357.040	-0.470	0.320	-0.410
2020/01/31 17:30:05.7	357.010	-0.480	0.300	-0.430
2020/01/31 17:30:05.8	356.970	-0.480	0.280	-0.450
2020/01/31 17:30:05.9	356.950	-0.480	0.250	-0.460
2020/01/31 17:30:06.0	356.920	-0.480	0.230	-0.480
2020/01/31 17:30:06.1	356.900	-0.470	0.200	-0.490
2020/01/31 17:30:06.2	356.880	-0.460	0.170	-0.510
2020/01/31 17:30:06.3	356.860	-0.450	0.140	-0.520
2020/01/31 17:30:06.4	356.840	-0.430	0.100	-0.530
2020/01/31 17:30:06.5	356.830	-0.400	0.070	-0.540
2020/01/31 17:30:06.6	356.820	-0.370	0.030	-0.550
2020/01/31 17:30:06.7	356.810	-0.330	-0.010	-0.550
2020/01/31 17:30:06.8	356.820	-0.290	-0.060	-0.560
2020/01/31 17:30:06.9	356.820	-0.250	-0.100	-0.570
2020/01/31 17:30:07.0	356.820	-0.200	-0.160	-0.570
2020/01/31 17:30:07.1	356.830	-0.140	-0.210	-0.580
2020/01/31 17:30:07.2	356.830	-0.080	-0.270	-0.580
2020/01/31 17:30:07.3	356.850	-0.020	-0.330	-0.580
2020/01/31 17:30:07.4	356.860	0.040	-0.390	-0.590
2020/01/31 17:30:07.5	356.880	0.110	-0.450	-0.590
2020/01/31 17:30:07.6	356.900	0.180	-0.520	-0.590
2020/01/31 17:30:07.7	356.920	0.250	-0.580	-0.590
2020/01/31 17:30:07.8	356.960	0.320	-0.640	-0.590
2020/01/31 17:30:07.9	356.990	0.380	-0.710	-0.590
2020/01/31 17:30:08.0	357.010	0.450	-0.770	-0.590
2020/01/31 17:30:08.1	357.040	0.510	-0.820	-0.590
2020/01/31 17:30:08.2	357.070	0.580	-0.880	-0.590
2020/01/31 17:30:08.3	357.090	0.630	-0.930	-0.590
2020/01/31 17:30:08.4	357.120	0.680	-0.980	-0.590
2020/01/31 17:30:08.5	357.140	0.730	-1.020	-0.590
2020/01/31 17:30:08.6	357.170	0.770	-1.060	-0.590
2020/01/31 17:30:08.7	357.190	0.800	-1.090	-0.590
2020/01/31 17:30:08.8	357.220	0.830	-1.110	-0.580
2020/01/31 17:30:08.9	357.240	0.850	-1.130	-0.580
2020/01/31 17:30:09.0	357.260	0.870	-1.150	-0.590
2020/01/31 17:30:09.1	357.280	0.870	-1.150	-0.590
2020/01/31 17:30:09.2	357.310	0.870	-1.150	-0.600
2020/01/31 17:30:09.3	357.330	0.860	-1.150	-0.610
2020/01/31 17:30:09.4	357.350	0.840	-1.130	-0.620
2020/01/31 17:30:09.5	357.370	0.820	-1.110	-0.640
2020/01/31 17:30:09.6	357.380	0.780	-1.090	-0.650
2020/01/31 17:30:09.7	357.400	0.740	-1.050	-0.660
2020/01/31 17:30:09.8	357.400	0.700	-1.010	-0.680
2020/01/31 17:30:09.9	357.410	0.640	-0.960	-0.700
2020/01/31 17:30:10.0	357.420	0.580	-0.910	-0.710
2020/01/31 17:30:10.1	357.430	0.520	-0.850	-0.730
2020/01/31 17:30:10.2	357.430	0.440	-0.790	-0.740
2020/01/31 17:30:10.3	357.440	0.370	-0.710	-0.750
2020/01/31 17:30:10.4	357.440	0.290	-0.640	-0.770
2020/01/31 17:30:10.5	357.430	0.210	-0.550	-0.770
2020/01/31 17:30:10.6	357.420	0.120	-0.470	-0.780
2020/01/31 17:30:10.7	357.410	0.030	-0.370	-0.780
2020/01/31 17:30:10.8	357.400	-0.050	-0.280	-0.780
2020/01/31 17:30:10.9	357.380	-0.140	-0.180	-0.780
2020/01/31 17:30:11.0	357.360	-0.230	-0.080	-0.770
2020/01/31 17:30:11.1	357.330	-0.320	0.030	-0.770
2020/01/31 17:30:11.2	357.300	-0.410	0.130	-0.760
2020/01/31 17:30:11.3	357.260	-0.500	0.240	-0.740
2020/01/31 17:30:11.4	357.230	-0.580	0.340	-0.730
2020/01/31 17:30:11.5	357.190	-0.660	0.440	-0.710
2020/01/31 17:30:11.6	357.150	-0.730	0.530	-0.700
2020/01/31 17:30:11.7	357.110	-0.800	0.620	-0.680
2020/01/31 17:30:11.8	357.060	-0.870	0.710	-0.670
2020/01/31 17:30:11.9	357.010	-0.930	0.790	-0.650
2020/01/31 17:30:12.0	356.970	-0.980	0.850	-0.630
2020/01/31 17:30:12.1	356.930	-1.020	0.910	-0.620
2020/01/31 17:30:12.2	356.890	-1.060	0.970	-0.600
2020/01/31 17:30:12.3	356.850	-1.090	1.010	-0.590
2020/01/31 17:30:12.4	356.810	-1.110	1.040	-0.580
2020/01/31 17:30:12.5	356.770	-1.130	1.050	-0.570
2020/01/31 17:30:12.6	356.740	-1.130	1.060	-0.560
2020/01/31 17:30:12.7	356.710	-1.130	1.060	-0.560
2020/01/31 17:30:12.8	356.690	-1.120	1.040	-0.560
2020/01/31 17:30:12.9	356.660	-1.100	1.010	-0.560
2020/01/31 17:30:13.0	356.640	-1.070	0.970	-0.560
2020/01/31 17:30:13.1	356.630	-1.030	0.920	-0.560
2020/01/31 17:30:13.2	356.620	-0.990	0.850	-0.570
2020/01/31 17:30:13.3	356.610	-0.940	0.780	-0.580
2020/01/31 17:30:13.4	356.600	-0.880	0.700	-0.590
2020/01/31 17:30:13.5	356.600	-0.810	0.610	-0.590
2020/01/31 17:30:13.6	356.600	-0.740	0.520	-0.600
2020/01/31 17:30:13.7	356.600	-0.670	0.420	-0.610
2020/01/31 17:30:13.8	356.600	-0.590	0.310	-0.620
2020/01/31 17:30:13.9	356.600	-0.510	0.210	-0.620
2020/01/31 17:30:14.0	356.610	-0.420	0.100	-0.620
2020/01/31 17:30:14.1	356.610	-0.340	-0.010	-0.620
2020/01/31 17:30:14.2	356.610	-0.250	-0.120	-0.620
2020/01/31 17:30:14.3	356.620	-0.170	-0.230	-0.620
2020/01/31 17:30:14.4	356.620	-0.080	-0.330	-0.620
2020/01/31 17:30:14.5	356.630	0.000	-0.430	-0.620
2020/01/31 17:30:14.6	356.630	0.080	-0.530	-0.610
2020/01/31 17:30:14.7	356.630	0.160	-0.620	-0.600
2020/01/31 17:30:14.8	356.630	0.230	-0.700	-0.590
2020/01/31 17:30:14.9	356.630	0.300	-0.770	-0.580
2020/01/31 17:30:15.0	356.630	0.360	-0.840	-0.570
2020/01/31 17:30:15.1	356.620	0.420	-0.900	-0.560
2020/01/31 17:30:15.2	356.610	0.470	-0.960	-0.540
2020/01/31 17:30:15.3	356.610	0.520	-1.000	-0.530
2020/01/31 17:30:15.4	356.600	0.550	-1.040	-0.520
2020/01/31 17:30:15.5	356.590	0.580	-1.070	-0.510
2020/01/31 17:30:15.6	356.580	0.610	-1.090	-0.500
2020/01/31 17:30:15.7	356.570	0.630	-1.100	-0.490
2020/01/31 17:30:15.8	356.560	0.640	-1.110	-0.480
2020/01/31 17:30:15.9	356.550	0.640	-1.110	-0.480
2020/01/31 17:30:16.0	356.530	0.640	-1.100	-0.470
2020/01/31 17:30:16.1	356.520	0.630	-1.090	-0.470
2020/01/31 17:30:16.2	356.510	0.610	-1.070	-0.470
2020/01/31 17:30:16.3	356.500	0.590	-1.050	-0.470
2020/01/31 17:30:16.4	356.490	0.570	-1.020	-0.470
2020/01/31 17:30:16.5	356.490	0.540	-0.990	-0.470
2020/01/31 17:30:16.6	356.480	0.510	-0.960	-0.480
2020/01/31 17:30:16.7	356.480	0.470	-0.930	-0.480
2020/01/31 17:30:16.8	356.470	0.430	-0.890	-0.490
2020/01/31 17:30:16.9	356.470	0.390	-0.860	-0.500
2020/01/31 17:30:17.0	356.470	0.350	-0.820	-0.510
2020/01/31 17:30:17.1	356.480	0.310	-0.790	-0.520
2020/01/31 17:30:17.2	356.490	0.270	-0.760	-0.530
2020/01/31 17:30:17.3	356.500	0.230	-0.730	-0.540
2020/01/31 17:30:17.4	356.520	0.200	-0.700	-0.560
2020/01/31 17:30:17.5	356.540	0.160	-0.670	-0.570
2020/01/31 17:30:17.6	356.560	0.130	-0.640	-0.590
2020/01/31 17:30:17.7	356.580	0.100	-0.620	-0.600
2020/01/31 17:30:17.8	356.600	0.080	-0.600	-0.620
2020/01/31 17:30:17.9	356.630	0.050	-0.570	-0.630
2020/01/31 17:30:18.0	356.650	0.040	-0.550	-0.640
2020/01/31 17:30:18.1	356.680	0.020	-0.540	-0.650
2020/01/31 17:30:18.2	356.700	0.010	-0.520	-0.660
2020/01/31 17:30:18.3	356.730	0.010	-0.500	-0.670
2020/01/31 17:30:18.4	356.750	0.010	-0.480	-0.680
2020/01/31 17:30:18.5	356.780	0.010	-0.460	-0.680
2020/01/31 17:30:18.6	356.800	0.020	-0.440	-0.680
2020/01/31 17:30:18.7	356.820	0.030	-0.430	-0.680
2020/01/31 17:30:18.8	356.840	0.040	-0.410	-0.690
2020/01/31 17:30:18.9	356.860	0.060	-0.390	-0.680
2020/01/31 17:30:19.0	356.870	0.080	-0.360	-0.680
2020/01/31 17:30:19.1	356.890	0.100	-0.340	-0.670
2020/01/31 17:30:19.2	356.900	0.130	-0.310	-0.660
2020/01/31 17:30:19.3	356.910	0.150	-0.290	-0.650
2020/01/31 17:30:19.4	356.920	0.180	-0.260	-0.630
2020/01/31 17:30:19.5	356.920	0.200	-0.230	-0.620
2020/01/31 17:30:19.6	356.930	0.230	-0.200	-0.600
2020/01/31 17:30:19.7	356.930	0.260	-0.170	-0.580
2020/01/31 17:30:19.8	356.930	0.280	-0.130	-0.550
2020/01/31 17:30:19.9	356.930	0.310	-0.100	-0.520
2020/01/31 17:30:20.0	356.920	0.330	-0.070	-0.490
2020/01/31 17:30:20.1	356.920	0.350	-0.040	-0.460
2020/01/31 17:30:20.2	356.910	0.360	-0.010	-0.430
2020/01/31 17:30:20.3	356.900	0.380	0.020	-0.400
2020/01/31 17:30:20.4	356.900	0.390	0.050	-0.360
2020/01/31 17:30:20.5	356.890	0.400	0.080	-0.330
2020/01/31 17:30:20.6	356.870	0.400	0.100	-0.290
2020/01/31 17:30:20.7	356.860	0.400	0.130	-0.260
2020/01/31 17:30:20.8	356.850	0.400	0.150	-0.220
2020/01/31 17:30:20.9	356.830	0.390	0.160	-0.190
2020/01/31 17:30:21.0	356.820	0.380	0.180	-0.150
2020/01/31 17:30:21.1	356.810	0.360	0.190	-0.120
2020/01/31 17:30:21.2	356.800	0.340	0.200	-0.090
2020/01/31 17:30:21.3	356.790	0.320	0.200	-0.060
2020/01/31 17:30:21.4	356.770	0.290	0.200	-0.030
2020/01/31 17:30:21.5	356.760	0.260	0.200	-0.010
2020/01/31 17:30:21.6	356.750	0.230	0.200	0.010
2020/01/31 17:30:21.7	356.740	0.190	0.190	0.030
2020/01/31 17:30:21.8	356.710	0.160	0.190	0.050
2020/01/31 17:30:21.9	356.700	0.120	0.180	0.060
2020/01/31 17:30:22.0	356.700	0.070	0.160	0.070
2020/01/31 17:30:22.1	356.690	0.030	0.150	0.070
2020/01/31 17:30:22.2	356.680	-0.020	0.130	0.070
2020/01/31 17:30:22.3	356.680	-0.060	0.110	0.070
2020/01/31 17:30:22.4	356.670	-0.110	0.100	0.070
2020/01/31 17:30:22.5	356.670	-0.150	0.080	0.060
2020/01/31 17:30:22.6	356.660	-0.200	0.060	0.050
2020/01/31 17:30:22.7	356.660	-0.240	0.040	0.030
2020/01/31 17:30:22.8	356.660	-0.290	0.030	0.020
2020/01/31 17:30:22.9	356.650	-0.330	0.010	-0.000
2020/01/31 17:30:23.0	356.650	-0.370	-0.000	-0.020
2020/01/31 17:30:23.1	356.660	-0.410	-0.020	-0.050
2020/01/31 17:30:23.2	356.660	-0.450	-0.030	-0.070
2020/01/31 17:30:23.3	356.660	-0.480	-0.040	-0.100
2020/01/31 17:30:23.4	356.660	-0.520	-0.050	-0.120
2020/01/31 17:30:23.5	356.670	-0.540	-0.060	-0.150
2020/01/31 17:30:23.6	356.680	-0.570	-0.070	-0.180
2020/01/31 17:30:23.7	356.690	-0.590	-0.080	-0.210
2020/01/31 17:30:23.8	356.690	-0.610	-0.080	-0.240
2020/01/31 17:30:23.9	356.700	-0.630	-0.090	-0.280
2020/01/31 17:30:24.0	356.720	-0.640	-0.090	-0.310
2020/01/31 17:30:24.1	356.730	-0.650	-0.100	-0.350
2020/01/31 17:30:24.2	356.750	-0.660	-0.100	-0.380
2020/01/31 17:30:24.3	356.760	-0.670	-0.110	-0.420
2020/01/31 17:30:24.4	356.780	-0.670	-0.110	-0.450
2020/01/31 17:30:24.5	356.800	-0.660	-0.120	-0.480
2020/01/31 17:30:24.6	356.820	-0.660	-0.120	-0.520
2020/01/31 17:30:24.7	356.830	-0.650	-0.120	-0.550
2020/01/31 17:30:24.8	356.840	-0.640	-0.130	-0.580
2020/01/31 17:30:24.9	356.860	-0.620	-0.140	-0.600
2020/01/31 17:30:25.0	356.870	-0.600	-0.140	-0.630
2020/01/31 17:30:25.1	356.880	-0.580	-0.150	-0.650
2020/01/31 17:30:25.2	356.890	-0.560	-0.150	-0.670
2020/01/31 17:30:25.3	356.900	-0.540	-0.160	-0.680
2020/01/31 17:30:25.4	356.910	-0.510	-0.170	-0.690
2020/01/31 17:30:25.5	356.910	-0.490	-0.170	-0.690
2020/01/31 17:30:25.6	356.910	-0.460	-0.180	-0.700
2020/01/31 17:30:25.7	356.900	-0.420	-0.190	-0.690
2020/01/31 17:30:25.8	356.910	-0.390	-0.200	-0.680
2020/01/31 17:30:25.9	356.900	-0.360	-0.210	-0.670
2020/01/31 17:30:26.0	356.890	-0.320	-0.210	-0.660
2020/01/31 17:30:26.1	356.870	-0.290	-0.220	-0.640
2020/01/31 17:30:26.2	356.860	-0.250	-0.230	-0.620
2020/01/31 17:30:26.3	356.840	-0.210	-0.240	-0.600
2020/01/31 17:30:26.4	356.820	-0.170	-0.250	-0.580
2020/01/31 17:30:26.5	356.800	-0.130	-0.270	-0.550
2020/01/31 17:30:26.6	356.780	-0.090	-0.280	-0.520
2020/01/31 17:30:26.7	356.760	-0.050	-0.290	-0.490
2020/01/31 17:30:26.8	356.750	-0.010	-0.300	-0.450
2020/01/31 17:30:26.9	356.720	0.030	-0.320	-0.420
2020/01/31 17:30:27.0	356.700	0.070	-0.330	-0.390
2020/01/31 17:30:27.1	356.680	0.110	-0.350	-0.350
2020/01/31 17:30:27.2	356.650	0.150	-0.360	-0.310
2020/01/31 17:30:27.3	356.630	0.190	-0.380	-0.280
2020/01/31 17:30:27.4	356.610	0.230	-0.400	-0.240
2020/01/31 17:30:27.5	356.590	0.270	-0.420	-0.200
2020/01/31 17:30:27.6	356.570	0.310	-0.450	-0.170
2020/01/31 17:30:27.7	356.560	0.350	-0.470	-0.140
2020/01/31 17:30:27.8	356.550	0.390	-0.500	-0.100
2020/01/31 17:30:27.9	356.540	0.420	-0.530	-0.070
2020/01/31 17:30:28.0	356.530	0.460	-0.550	-0.040
2020/01/31 17:30:28.1	356.520	0.490	-0.580	-0.010
2020/01/31 17:30:28.2	356.520	0.520	-0.620	0.010
2020/01/31 17:30:28.3	356.510	0.550	-0.650	0.030
2020/01/31 17:30:28.4	356.510	0.580	-0.680	0.050
2020/01/31 17:30:28.5	356.510	0.610	-0.710	0.070
2020/01/31 17:30:28.6	356.510	0.630	-0.740	0.080
2020/01/31 17:30:28.7	356.520	0.650	-0.760	0.090
2020/01/31 17:30:28.8	356.530	0.670	-0.790	0.110
2020/01/31 17:30:28.9	356.540	0.680	-0.820	0.110
2020/01/31 17:30:29.0	356.550	0.690	-0.840	0.110
2020/01/31 17:30:29.1	356.560	0.700	-0.860	0.110
2020/01/31 17:30:29.2	356.570	0.710	-0.870	0.110
2020/01/31 17:30:29.3	356.590	0.710	-0.880	0.110
2020/01/31 17:30:29.4	356.600	0.700	-0.890	0.100
2020/01/31 17:30:29.5	356.620	0.700	-0.890	0.090
2020/01/31 17:30:29.6	356.630	0.690	-0.890	0.080
2020/01/31 17:30:29.7	356.650	0.670	-0.890	0.070
2020/01/31 17:30:29.8	356.670	0.660	-0.880	0.050
2020/01/31 17:30:29.9	356.690	0.640	-0.870	0.040
2020/01/31 17:30:30.0	356.710	0.610	-0.850	0.020
2020/01/31 17:30:30.1	356.730	0.590	-0.830	0.000
2020/01/31 17:30:30.2	356.760	0.560	-0.800	-0.010
2020/01/31 17:30:30.3	356.780	0.530	-0.770	-0.030
2020/01/31 17:30:30.4	356.810	0.490	-0.740	-0.050
2020/01/31 17:30:30.5	356.840	0.460	-0.700	-0.070
2020/01/31 17:30:30.6	356.860	0.420	-0.660	-0.090
2020/01/31 17:30:30.7	356.890	0.380	-0.610	-0.110
2020/01/31 17:30:30.8	356.910	0.340	-0.570	-0.130
2020/01/31 17:30:30.9	356.940	0.300	-0.520	-0.150
2020/01/31 17:30:31.0	356.960	0.250	-0.470	-0.170
2020/01/31 17:30:31.1	356.990	0.210	-0.420	-0.190
2020/01/31 17:30:31.2	357.010	0.170	-0.360	-0.210
2020/01/31 17:30:31.3	357.030	0.130	-0.310	-0.230
2020/01/31 17:30:31.4	357.050	0.090	-0.260	-0.250
2020/01/31 17:30:31.5	357.070	0.040	-0.200	-0.270
2020/01/31 17:30:31.6	357.090	0.010	-0.150	-0.300
2020/01/31 17:30:31.7	357.110	-0.030	-0.100	-0.320
2020/01/31 17:30:31.8	357.130	-0.070	-0.060	-0.350
2020/01/31 17:30:31.9	357.150	-0.100	-0.010	-0.370
2020/01/31 17:30:32.0	357.160	-0.130	0.030	-0.390
2020/01/31 17:30:32.1	357.170	-0.160	0.080	-0.420
2020/01/31 17:30:32.2	357.180	-0.190	0.120	-0.440
2020/01/31 17:30:32.3	357.190	-0.220	0.150	-0.460
2020/01/31 17:30:32.4	357.200	-0.240	0.190	-0.480
2020/01/31 17:30:32.5	357.210	-0.260	0.220	-0.500
2020/01/31 17:30:32.6	357.210	-0.280	0.250	-0.520
2020/01/31 17:30:32.7	357.220	-0.290	0.270	-0.530
2020/01/31 17:30:32.8	357.210	-0.300	0.300	-0.550
2020/01/31 17:30:32.9	357.210	-0.310	0.310	-0.570
2020/01/31 17:30:33.0	357.210	-0.320	0.330	-0.580
2020/01/31 17:30:33.1	357.210	-0.320	0.340	-0.600
2020/01/31 17:30:33.2	357.210	-0.330	0.350	-0.610
2020/01/31 17:30:33.3	357.210	-0.330	0.350	-0.630
2020/01/31 17:30:33.4	357.210	-0.330	0.360	-0.640
2020/01/31 17:30:33.5	357.210	-0.320	0.350	-0.660
2020/01/31 17:30:33.6	357.210	-0.320	0.350	-0.680
2020/01/31 17:30:33.7	357.200	-0.310	0.340	-0.690
2020/01/31 17:30:33.8	357.190	-0.310	0.330	-0.710
2020/01/31 17:30:33.9	357.180	-0.300	0.320	-0.730
2020/01/31 17:30:34.0	357.180	-0.290	0.310	-0.740
2020/01/31 17:30:34.1	357.180	-0.280	0.290	-0.760
2020/01/31 17:30:34.2	357.170	-0.280	0.270	-0.770
2020/01/31 17:30:34.3	357.170	-0.270	0.250	-0.780
2020/01/31 17:30:34.4	357.160	-0.260	0.230	-0.800
2020/01/31 17:30:34.5	357.150	-0.250	0.200	-0.810
2020/01/31 17:30:34.6	357.150	-0.250	0.180	-0.820
2020/01/31 17:30:34.7	357.140	-0.240	0.150	-0.820
2020/01/31 17:30:34.8	357.130	-0.230	0.120	-0.820
2020/01/31 17:30:34.9	357.120	-0.230	0.100	-0.830
2020/01/31 17:30:35.0	357.110	-0.220	0.070	-0.820
2020/01/31 17:30:35.1	357.100	-0.220	0.040	-0.820
2020/01/31 17:30:35.2	357.090	-0.210	0.010	-0.820
2020/01/31 17:30:35.3	357.070	-0.210	-0.010	-0.810
2020/01/31 17:30:35.4	357.060	-0.200	-0.040	-0.800
2020/01/31 17:30:35.5	357.050	-0.200	-0.060	-0.780
2020/01/31 17:30:35.6	357.030	-0.200	-0.090	-0.770
2020/01/31 17:30:35.7	357.020	-0.200	-0.110	-0.750
2020/01/31 17:30:35.8	357.010	-0.190	-0.130	-0.730
2020/01/31 17:30:35.9	356.990	-0.190	-0.150	-0.700
2020/01/31 17:30:36.0	356.970	-0.190	-0.160	-0.680
2020/01/31 17:30:36.1	356.960	-0.180	-0.180	-0.660
2020/01/31 17:30:36.2	356.940	-0.180	-0.190	-0.630
2020/01/31 17:30:36.3	356.930	-0.170	-0.210	-0.600
2020/01/31 17:30:36.4	356.910	-0.170	-0.220	-0.570
2020/01/31 17:30:36.5	356.890	-0.160	-0.230	-0.530
2020/01/31 17:30:36.6	356.880	-0.150	-0.240	-0.500
2020/01/31 17:30:36.7	356.860	-0.140	-0.240	-0.460
2020/01/31 17:30:36.8	356.850	-0.130	-0.250	-0.430
2020/01/31 17:30:36.9	356.830	-0.120	-0.260	-0.390
2020/01/31 17:30:37.0	356.810	-0.110	-0.260	-0.350
2020/01/31 17:30:37.1	356.790	-0.100	-0.260	-0.310
2020/01/31 17:30:37.2	356.770	-0.090	-0.270	-0.260
2020/01/31 17:30:37.3	356.750	-0.070	-0.270	-0.220
2020/01/31 17:30:37.4	356.730	-0.060	-0.270	-0.180
2020/01/31 17:30:37.5	356.710	-0.040	-0.270	-0.130
2020/01/31 17:30:37.6	356.690	-0.030	-0.270	-0.090
2020/01/31 17:30:37.7	356.670	-0.010	-0.270	-0.050
2020/01/31 17:30:37.8	356.660	0.000	-0.270	-0.000
2020/01/31 17:30:37.9	356.640	0.020	-0.280	0.040
2020/01/31 17:30:38.0	356.620	0.030	-0.280	0.080
2020/01/31 17:30:38.1	356.600	0.050	-0.280	0.110
2020/01/31 17:30:38.2	356.590	0.060	-0.290	0.140
2020/01/31 17:30:38.3	356.570	0.070	-0.300	0.170
2020/01/31 17:30:38.4	356.550	0.090	-0.310	0.190
2020/01/31 17:30:38.5	356.540	0.100	-0.320	0.210
2020/01/31 17:30:38.6	356.530	0.110	-0.330	0.230
2020/01/31 17:30:38.7	356.510	0.120	-0.350	0.240
2020/01/31 17:30:38.8	356.510	0.130	-0.370	0.250
2020/01/31 17:30:38.9	356.500	0.140	-0.390	0.260
2020/01/31 17:30:39.0	356.500	0.150	-0.410	0.250
2020/01/31 17:30:39.1	356.500	0.150	-0.430	0.250
2020/01/31 17:30:39.2	356.500	0.160	-0.450	0.240
2020/01/31 17:30:39.3	356.500	0.170	-0.480	0.220
2020/01/31 17:30:39.4	356.510	0.180	-0.510	0.200
2020/01/31 17:30:39.5	356.520	0.180	-0.540	0.180
2020/01/31 17:30:39.6	356.530	0.190	-0.570	0.150
2020/01/31 17:30:39.7	356.550	0.200	-0.600	0.120
2020/01/31 17:30:39.8	356.570	0.200	-0.630	0.090
2020/01/31 17:30:39.9	356.600	0.210	-0.660	0.050
2020/01/31 17:30:40.0	356.620	0.220	-0.690	0.010
2020/01/31 17:30:40.1	356.650	0.220	-0.720	-0.030
2020/01/31 17:30:40.2	356.680	0.230	-0.750	-0.070
2020/01/31 17:30:40.3	356.720	0.240	-0.780	-0.120
2020/01/31 17:30:40.4	356.750	0.240	-0.810	-0.160
2020/01/31 17:30:40.5	356.790	0.250	-0.830	-0.210
2020/01/31 17:30:40.6	356.820	0.260	-0.850	-0.260
2020/01/31 17:30:40.7	356.860	0.260	-0.870	-0.310
2020/01/31 17:30:40.8	356.900	0.260	-0.880	-0.360
2020/01/31 17:30:40.9	356.930	0.270	-0.890	-0.410
2020/01/31 17:30:41.0	356.970	0.270	-0.890	-0.460
2020/01/31 17:30:41.1	357.010	0.270	-0.890	-0.500
2020/01/31 17:30:41.2	357.050	0.270	-0.890	-0.550
2020/01/31 17:30:41.3	357.090	0.270	-0.880	-0.590
2020/01/31 17:30:41.4	357.120	0.270	-0.860	-0.640
2020/01/31 17:30:41.5	357.160	0.270	-0.850	-0.680
2020/01/31 17:30:41.6	357.190	0.260	-0.820	-0.720
2020/01/31 17:30:41.7	357.220	0.260	-0.800	-0.750
2020/01/31 17:30:41.8	357.260	0.250	-0.770	-0.780
2020/01/31 17:30:41.9	357.280	0.240	-0.730	-0.810
2020/01/31 17:30:42.0	357.310	0.230	-0.700	-0.840
2020/01/31 17:30:42.1	357.330	0.220	-0.660	-0.860
2020/01/31 17:30:42.2	357.360	0.210	-0.610	-0.880
2020/01/31 17:30:42.3	357.380	0.200	-0.570	-0.890
2020/01/31 17:30:42.4	357.400	0.180	-0.530	-0.900
2020/01/31 17:30:42.5	357.420	0.170	-0.480	-0.910
2020/01/31 17:30:42.6	357.440	0.150	-0.430	-0.910
2020/01/31 17:30:42.7	357.460	0.140	-0.390	-0.910
2020/01/31 17:30:42.8	357.470	0.120	-0.340	-0.900
2020/01/31 17:30:42.9	357.490	0.110	-0.300	-0.900
2020/01/31 17:30:43.0	357.510	0.090	-0.260	-0.890
2020/01/31 17:30:43.1	357.530	0.080	-0.220	-0.880
2020/01/31 17:30:43.2	357.540	0.070	-0.180	-0.870
2020/01/31 17:30:43.3	357.560	0.050	-0.150	-0.860
2020/01/31 17:30:43.4	357.580	0.040	-0.120	-0.850
2020/01/31 17:30:43.5	357.600	0.030	-0.090	-0.840
2020/01/31 17:30:43.6	357.620	0.020	-0.060	-0.830
2020/01/31 17:30:43.7	357.630	0.010	-0.040	-0.810
2020/01/31 17:30:43.8	357.660	0.000	-0.020	-0.800
2020/01/31 17:30:43.9	357.670	-0.000	-0.000	-0.790
2020/01/31 17:30:44.0	357.690	-0.010	0.010	-0.770
2020/01/31 17:30:44.1	357.700	-0.010	0.030	-0.760
2020/01/31 17:30:44.2	357.720	-0.010	0.040	-0.740
2020/01/31 17:30:44.3	357.730	-0.010	0.050	-0.720
2020/01/31 17:30:44.4	357.740	-0.020	0.060	-0.700
2020/01/31 17:30:44.5	357.740	-0.020	0.070	-0.680
2020/01/31 17:30:44.6	357.740	-0.020	0.080	-0.650
2020/01/31 17:30:44.7	357.740	-0.020	0.090	-0.630
2020/01/31 17:30:44.8	357.740	-0.020	0.100	-0.590
2020/01/31 17:30:44.9	357.730	-0.020	0.120	-0.560
2020/01/31 17:30:45.0	357.720	-0.020	0.130	-0.530
2020/01/31 17:30:45.1	357.710	-0.020	0.150	-0.500
2020/01/31 17:30:45.2	357.690	-0.020	0.160	-0.470
2020/01/31 17:30:45.3	357.670	-0.030	0.180	-0.430
2020/01/31 17:30:45.4	357.650	-0.030	0.200	-0.400
2020/01/31 17:30:45.5	357.620	-0.040	0.220	-0.370
2020/01/31 17:30:45.6	357.600	-0.050	0.240	-0.340
2020/01/31 17:30:45.7	357.570	-0.050	0.260	-0.300
2020/01/31 17:30:45.8	357.520	-0.070	0.280	-0.270
2020/01/31 17:30:45.9	357.490	-0.080	0.300	-0.240
2020/01/31 17:30:46.0	357.460	-0.090	0.310	-0.210
2020/01/31 17:30:46.1	357.420	-0.110	0.330	-0.180
2020/01/31 17:30:46.2	357.390	-0.120	0.350	-0.150
2020/01/31 17:30:46.3	357.350	-0.140	0.360	-0.130
2020/01/31 17:30:46.4	357.320	-0.160	0.380	-0.100
2020/01/31 17:30:46.5	357.280	-0.180	0.390	-0.080
2020/01/31 17:30:46.6	357.240	-0.200	0.400	-0.050
2020/01/31 17:30:46.7	357.200	-0.220	0.400	-0.030
2020/01/31 17:30:46.8	357.170	-0.240	0.410	-0.010
2020/01/31 17:30:46.9	357.130	-0.260	0.410	0.010
2020/01/31 17:30:47.0	357.090	-0.280	0.410	0.030
2020/01/31 17:30:47.1	357.060	-0.300	0.400	0.040
2020/01/31 17:30:47.2	357.020	-0.320	0.390	0.060
2020/01/31 17:30:47.3	356.990	-0.330	0.380	0.070
2020/01/31 17:30:47.4	356.950	-0.350	0.370	0.080
2020/01/31 17:30:47.5	356.920	-0.370	0.350	0.090
2020/01/31 17:30:47.6	356.890	-0.380	0.330	0.100
2020/01/31 17:30:47.7	356.860	-0.390	0.310	0.100
2020/01/31 17:30:47.8	356.820	-0.400	0.290	0.110
2020/01/31 17:30:47.9	356.790	-0.410	0.260	0.110
2020/01/31 17:30:48.0	356.760	-0.410	0.230	0.110
2020/01/31 17:30:48.1	356.740	-0.410	0.190	0.100
2020/01/31 17:30:48.2	356.720	-0.410	0.150	0.090
2020/01/31 17:30:48.3	356.700	-0.410	0.110	0.080
2020/01/31 17:30:48.4	356.680	-0.400	0.060	0.070
2020/01/31 17:30:48.5	356.670	-0.390	0.020	0.050
2020/01/31 17:30:48.6	356.660	-0.380	-0.030	0.030
2020/01/31 17:30:48.7	356.650	-0.360	-0.090	0.010
2020/01/31 17:30:48.8	356.650	-0.340	-0.140	-0.020
2020/01/31 17:30:48.9	356.650	-0.320	-0.200	-0.040
2020/01/31 17:30:49.0	356.650	-0.290	-0.260	-0.070
2020/01/31 17:30:49.1	356.650	-0.270	-0.320	-0.100
2020/01/31 17:30:49.2	356.660	-0.230	-0.380	-0.130
2020/01/31 17:30:49.3	356.670	-0.200	-0.440	-0.170
2020/01/31 17:30:49.4	356.680	-0.160	-0.500	-0.200
2020/01/31 17:30:49.5	356.690	-0.120	-0.560	-0.240
2020/01/31 17:30:49.6	356.710	-0.080	-0.620	-0.270
2020/01/31 17:30:49.7	356.720	-0.040	-0.680	-0.310
2020/01/31 17:30:49.8	356.740	0.010	-0.740	-0.340
2020/01/31 17:30:49.9	356.760	0.050	-0.790	-0.380
2020/01/31 17:30:50.0	356.780	0.100	-0.840	-0.410
2020/01/31 17:30:50.1	356.810	0.140	-0.890	-0.440
2020/01/31 17:30:50.2	356.830	0.190	-0.940	-0.470
2020/01/31 17:30:50.3	356.850	0.230	-0.980	-0.490
2020/01/31 17:30:50.4	356.880	0.270	-1.010	-0.520
2020/01/31 17:30:50.5	356.900	0.310	-1.050	-0.540
2020/01/31 17:30:50.6	356.930	0.350	-1.070	-0.550
2020/01/31 17:30:50.7	356.950	0.390	-1.090	-0.570
2020/01/31 17:30:50.8	356.970	0.420	-1.110	-0.580
2020/01/31 17:30:50.9	356.990	0.460	-1.120	-0.590
2020/01/31 17:30:51.0	357.010	0.480	-1.120	-0.590
2020/01/31 17:30:51.1	357.040	0.510	-1.120	-0.600
2020/01/31 17:30:51.2	357.060	0.530	-1.110	-0.600
2020/01/31 17:30:51.3	357.080	0.540	-1.100	-0.600
2020/01/31 17:30:51.4	357.100	0.550	-1.080	-0.600
2020/01/31 17:30:51.5	357.120	0.560	-1.050	-0.600
2020/01/31 17:30:51.6	357.130	0.560	-1.020	-0.600
2020/01/31 17:30:51.7	357.150	0.560	-0.990	-0.600
2020/01/31 17:30:51.8	357.170	0.550	-0.950	-0.600
2020/01/31 17:30:51.9	357.180	0.540	-0.900	-0.600
2020/01/31 17:30:52.0	357.190	0.530	-0.850	-0.590
2020/01/31 17:30:52.1	357.210	0.510	-0.800	-0.590
2020/01/31 17:30:52.2	357.220	0.480	-0.750	-0.580
2020/01/31 17:30:52.3	357.230	0.460	-0.690	-0.580
2020/01/31 17:30:52.4	357.240	0.420	-0.640	-0.570
2020/01/31 17:30:52.5	357.250	0.390	-0.580	-0.560
2020/01/31 17:30:52.6	357.250	0.350	-0.520	-0.560
2020/01/31 17:30:52.7	357.260	0.310	-0.460	-0.550
2020/01/31 17:30:52.8	357.280	0.270	-0.400	-0.540
2020/01/31 17:30:52.9	357.280	0.230	-0.340	-0.530
2020/01/31 17:30:53.0	357.290	0.180	-0.290	-0.520
2020/01/31 17:30:53.1	357.300	0.130	-0.230	-0.510
2020/01/31 17:30:53.2	357.300	0.090	-0.180	-0.500
2020/01/31 17:30:53.3	357.310	0.040	-0.140	-0.490
2020/01/31 17:30:53.4	357.320	-0.010	-0.090	-0.480
2020/01/31 17:30:53.5	357.330	-0.050	-0.050	-0.470
2020/01/31 17:30:53.6	357.330	-0.100	-0.020	-0.460
2020/01/31 17:30:53.7	357.340	-0.140	0.010	-0.450
2020/01/31 17:30:53.8	357.350	-0.180	0.040	-0.440
2020/01/31 17:30:53.9	357.350	-0.220	0.060	-0.440
2020/01/31 17:30:54.0	357.360	-0.260	0.080	-0.430
2020/01/31 17:30:54.1	357.370	-0.290	0.090	-0.430
2020/01/31 17:30:54.2	357.380	-0.320	0.100	-0.430
2020/01/31 17:30:54.3	357.400	-0.350	0.100	-0.430
2020/01/31 17:30:54.4	357.410	-0.380	0.090	-0.440
2020/01/31 17:30:54.5	357.420	-0.400	0.080	-0.450
2020/01/31 17:30:54.6	357.440	-0.420	0.070	-0.460
2020/01/31 17:30:54.7	357.450	-0.430	0.050	-0.470
2020/01/31 17:30:54.8	357.460	-0.440	0.030	-0.480
2020/01/31 17:30:54.9	357.480	-0.440	0.010	-0.500
2020/01/31 17:30:55.0	357.500	-0.440	-0.020	-0.510
2020/01/31 17:30:55.1	357.510	-0.440	-0.050	-0.530
2020/01/31 17:30:55.2	357.530	-0.430	-0.090	-0.550
2020/01/31 17:30:55.3	357.540	-0.420	-0.120	-0.560
2020/01/31 17:30:55.4	357.560	-0.410	-0.150	-0.570
2020/01/31 17:30:55.5	357.570	-0.390	-0.180	-0.590
2020/01/31 17:30:55.6	357.580	-0.370	-0.210	-0.590
2020/01/31 17:30:55.7	357.590	-0.350	-0.240	-0.600
2020/01/31 17:30:55.8	357.590	-0.330	-0.260	-0.600
2020/01/31 17:30:55.9	357.600	-0.300	-0.280	-0.600
2020/01/31 17:30:56.0	357.590	-0.270	-0.300	-0.600
2020/01/31 17:30:56.1	357.590	-0.240	-0.310	-0.590
2020/01/31 17:30:56.2	357.580	-0.210	-0.320	-0.570
2020/01/31 17:30:56.3	357.570	-0.180	-0.320	-0.560
2020/01/31 17:30:56.4	357.560	-0.150	-0.310	-0.540
2020/01/31 17:30:56.5	357.540	-0.110	-0.300	-0.510
2020/01/31 17:30:56.6	357.520	-0.080	-0.290	-0.480
2020/01/31 17:30:56.7	357.490	-0.050	-0.260	-0.440
2020/01/31 17:30:56.8	357.450	-0.030	-0.240	-0.400
2020/01/31 17:30:56.9	357.420	0.000	-0.210	-0.360
2020/01/31 17:30:57.0	357.390	0.030	-0.170	-0.320
2020/01/31 17:30:57.1	357.350	0.050	-0.130	-0.270
2020/01/31 17:30:57.2	357.320	0.070	-0.090	-0.220
2020/01/31 17:30:57.3	357.280	0.090	-0.040	-0.170
2020/01/31 17:30:57.4	357.240	0.110	0.000	-0.120
2020/01/31 17:30:57.5	357.190	0.120	0.050	-0.070
2020/01/31 17:30:57.6	357.150	0.130	0.090	-0.030
2020/01/31 17:30:57.7	357.110	0.140	0.140	0.020
2020/01/31 17:30:57.8	357.070	0.150	0.180	0.070
2020/01/31 17:30:57.9	357.030	0.160	0.220	0.110
2020/01/31 17:30:58.0	356.990	0.160	0.260	0.150
2020/01/31 17:30:58.1	356.960	0.160	0.290	0.190
2020/01/31 17:30:58.2	356.920	0.160	0.320	0.220
2020/01/31 17:30:58.3	356.890	0.160	0.340	0.250
2020/01/31 17:30:58.4	356.860	0.160	0.360	0.270
2020/01/31 17:30:58.5	356.830	0.160	0.370	0.290
2020/01/31 17:30:58.6	356.810	0.160	0.380	0.310
2020/01/31 17:30:58.7	356.790	0.160	0.380	0.320
2020/01/31 17:30:58.8	356.780	0.160	0.370	0.330
2020/01/31 17:30:58.9	356.770	0.150	0.360	0.330
2020/01/31 17:30:59.0	356.760	0.150	0.340	0.320
2020/01/31 17:30:59.1	356.750	0.150	0.320	0.320
2020/01/31 17:30:59.2	356.740	0.150	0.290	0.310
2020/01/31 17:30:59.3	356.730	0.150	0.260	0.300
2020/01/31 17:30:59.4	356.730	0.150	0.220	0.280
2020/01/31 17:30:59.5	356.730	0.150	0.180	0.260
2020/01/31 17:30:59.6	356.730	0.160	0.140	0.250
2020/01/31 17:30:59.7	356.730	0.160	0.090	0.230
2020/01/31 17:30:59.8	356.730	0.160	0.040	0.200
2020/01/31 17:30:59.9	356.730	0.160	-0.010	0.180
2020/01/31 17:31:00.0	356.740	0.170	-0.060	0.160
2020/01/31 17:31:00.1	356.740	0.170	-0.110	0.130
2020/01/31 17:31:00.2	356.750	0.180	-0.170	0.100
2020/01/31 17:31:00.3	356.760	0.180	-0.220	0.070
2020/01/31 17:31:00.4	356.770	0.180	-0.280	0.040
2020/01/31 17:31:00.5	356.780	0.190	-0.330	0.000
2020/01/31 17:31:00.6	356.790	0.190	-0.380	-0.030
2020/01/31 17:31:00.7	356.800	0.190	-0.430	-0.070
2020/01/31 17:31:00.8	356.820	0.200	-0.480	-0.110
2020/01/31 17:31:00.9	356.830	0.200	-0.520	-0.150
2020/01/31 17:31:01.0	356.850	0.200	-0.570	-0.190
2020/01/31 17:31:01.1	356.860	0.200	-0.610	-0.230
2020/01/31 17:31:01.2	356.870	0.200	-0.650	-0.270
2020/01/31 17:31:01.3	356.890	0.200	-0.690	-0.310
2020/01/31 17:31:01.4	356.900	0.190	-0.720	-0.350
2020/01/31 17:31:01.5	356.910	0.190	-0.750	-0.390
2020/01/31 17:31:01.6	356.920	0.180	-0.780	-0.430
2020/01/31 17:31:01.7	356.940	0.180	-0.800	-0.470
2020/01/31 17:31:01.8	356.950	0.170	-0.820	-0.500
2020/01/31 17:31:01.9	356.960	0.160	-0.830	-0.540
2020/01/31 17:31:02.0	356.980	0.150	-0.850	-0.580
2020/01/31 17:31:02.1	356.990	0.140	-0.860	-0.610
2020/01/31 17:31:02.2	357.010	0.130	-0.860	-0.640
2020/01/31 17:31:02.3	357.030	0.110	-0.870	-0.680
2020/01/31 17:31:02.4	357.050	0.100	-0.870	-0.710
2020/01/31 17:31:02.5	357.070	0.080	-0.870	-0.750
2020/01/31 17:31:02.6	357.090	0.060	-0.870	-0.780
2020/01/31 17:31:02.7	357.110	0.040	-0.860	-0.810
2020/01/31 17:31:02.8	357.130	0.020	-0.850	-0.850
2020/01/31 17:31:02.9	357.160	0.000	-0.840	-0.880
2020/01/31 17:31:03.0	357.180	-0.020	-0.830	-0.910
2020/01/31 17:31:03.1	357.210	-0.040	-0.820	-0.950
2020/01/31 17:31:03.2	357.240	-0.060	-0.800	-0.980
2020/01/31 17:31:03.3	357.270	-0.090	-0.780	-1.010
2020/01/31 17:31:03.4	357.290	-0.110	-0.770	-1.040
2020/01/31 17:31:03.5	357.320	-0.140	-0.740	-1.070
2020/01/31 17:31:03.6	357.350	-0.160	-0.720	-1.100
2020/01/31 17:31:03.7	357.380	-0.190	-0.700	-1.120
2020/01/31 17:31:03.8	357.400	-0.220	-0.670	-1.140
2020/01/31 17:31:03.9	357.420	-0.240	-0.640	-1.160
2020/01/31 17:31:04.0	357.450	-0.270	-0.610	-1.180
2020/01/31 17:31:04.1	357.470	-0.290	-0.570	-1.190
2020/01/31 17:31:04.2	357.490	-0.320	-0.540	-1.200
2020/01/31 17:31:04.3	357.510	-0.350	-0.500	-1.210
2020/01/31 17:31:04.4	357.530	-0.370	-0.460	-1.220
2020/01/31 17:31:04.5	357.540	-0.400	-0.420	-1.210
2020/01/31 17:31:04.6	357.560	-0.420	-0.370	-1.210
2020/01/31 17:31:04.7	357.570	-0.440	-0.330	-1.200
2020/01/31 17:31:04.8	357.570	-0.460	-0.290	-1.190
2020/01/31 17:31:04.9	357.570	-0.480	-0.240	-1.170
2020/01/31 17:31:05.0	357.580	-0.500	-0.190	-1.150
2020/01/31 17:31:05.1	357.590	-0.510	-0.140	-1.130
2020/01/31 17:31:05.2	357.590	-0.520	-0.090	-1.100
2020/01/31 17:31:05.3	357.590	-0.530	-0.040	-1.070
2020/01/31 17:31:05.4	357.590	-0.540	0.010	-1.030
2020/01/31 17:31:05.5	357.590	-0.540	0.060	-0.990
2020/01/31 17:31:05.6	357.590	-0.550	0.110	-0.950
2020/01/31 17:31:05.7	357.580	-0.540	0.160	-0.900
2020/01/31 17:31:05.8	357.580	-0.540	0.200	-0.840
2020/01/31 17:31:05.9	357.580	-0.530	0.250	-0.790
2020/01/31 17:31:06.0	357.560	-0.510	0.290	-0.730
2020/01/31 17:31:06.1	357.550	-0.500	0.330	-0.670
2020/01/31 17:31:06.2	357.540	-0.480	0.370	-0.600
2020/01/31 17:31:06.3	357.520	-0.450	0.410	-0.530
2020/01/31 17:31:06.4	357.500	-0.430	0.450	-0.460
2020/01/31 17:31:06.5	357.470	-0.400	0.480	-0.380
2020/01/31 17:31:06.6	357.450	-0.360	0.500	-0.310
2020/01/31 17:31:06.7	357.420	-0.330	0.530	-0.230
2020/01/31 17:31:06.8	357.390	-0.280	0.540	-0.150
2020/01/31 17:31:06.9	357.360	-0.240	0.550	-0.070
2020/01/31 17:31:07.0	357.330	-0.200	0.560	0.000
2020/01/31 17:31:07.1	357.300	-0.150	0.560	0.080
2020/01/31 17:31:07.2	357.270	-0.100	0.550	0.150
2020/01/31 17:31:07.3	357.240	-0.050	0.540	0.220
2020/01/31 17:31:07.4	357.220	0.010	0.520	0.290
2020/01/31 17:31:07.5	357.190	0.060	0.490	0.350
2020/01/31 17:31:07.6	357.160	0.120	0.460	0.410
2020/01/31 17:31:07.7	357.140	0.180	0.410	0.460
2020/01/31 17:31:07.8	357.100	0.230	0.370	0.510
2020/01/31 17:31:07.9	357.080	0.290	0.310	0.550
2020/01/31 17:31:08.0	357.050	0.340	0.250	0.590
2020/01/31 17:31:08.1	357.030	0.400	0.190	0.620
2020/01/31 17:31:08.2	357.010	0.450	0.120	0.640
2020/01/31 17:31:08.3	357.000	0.500	0.050	0.660
2020/01/31 17:31:08.4	356.980	0.550	-0.020	0.670
2020/01/31 17:31:08.5	356.960	0.590	-0.100	0.670
2020/01/31 17:31:08.6	356.950	0.630	-0.180	0.670
2020/01/31 17:31:08.7	356.940	0.670	-0.250	0.660
2020/01/31 17:31:08.8	356.930	0.700	-0.330	0.650
2020/01/31 17:31:08.9	356.920	0.730	-0.410	0.630
2020/01/31 17:31:09.0	356.910	0.760	-0.480	0.610
2020/01/31 17:31:09.1	356.900	0.770	-0.550	0.580
2020/01/31 17:31:09.2	356.890	0.790	-0.610	0.540
2020/01/31 17:31:09.3	356.880	0.790	-0.670	0.500
2020/01/31 17:31:09.4	356.870	0.790	-0.730	0.450
2020/01/31 17:31:09.5	356.870	0.790	-0.780	0.400
2020/01/31 17:31:09.6	356.860	0.780	-0.820	0.350
2020/01/31 17:31:09.7	356.850	0.760	-0.860	0.290
2020/01/31 17:31:09.8	356.850	0.730	-0.890	0.220
2020/01/31 17:31:09.9	356.850	0.710	-0.920	0.160
2020/01/31 17:31:10.0	356.840	0.670	-0.940	0.090
2020/01/31 17:31:10.1	356.840	0.630	-0.950	0.020
2020/01/31 17:31:10.2	356.840	0.580	-0.950	-0.060
2020/01/31 17:31:10.3	356.840	0.530	-0.950	-0.130
2020/01/31 17:31:10.4	356.840	0.480	-0.950	-0.210
2020/01/31 17:31:10.5	356.840	0.420	-0.940	-0.280
2020/01/31 17:31:10.6	356.840	0.360	-0.920	-0.360
2020/01/31 17:31:10.7	356.850	0.300	-0.900	-0.440
2020/01/31 17:31:10.8	356.870	0.230	-0.880	-0.520
2020/01/31 17:31:10.9	356.870	0.170	-0.850	-0.590
2020/01/31 17:31:11.0	356.880	0.100	-0.820	-0.670
2020/01/31 17:31:11.1	356.900	0.030	-0.790	-0.740
2020/01/31 17:31:11.2	356.910	-0.030	-0.750	-0.820
2020/01/31 17:31:11.3	356.920	-0.100	-0.720	-0.890
2020/01/31 17:31:11.4	356.940	-0.160	-0.680	-0.950
2020/01/31 17:31:11.5	356.960	-0.220	-0.640	-1.020
2020/01/31 17:31:11.6	356.980	-0.280	-0.610	-1.080
2020/01/31 17:31:11.7	357.000	-0.330	-0.570	-1.150
2020/01/31 17:31:11.8	357.040	-0.380	-0.530	-1.210
2020/01/31 17:31:11.9	357.060	-0.430	-0.500	-1.270
2020/01/31 17:31:12.0	357.090	-0.470	-0.470	-1.320
2020/01/31 17:31:12.1	357.120	-0.510	-0.440	-1.370
2020/01/31 17:31:12.2	357.150	-0.540	-0.410	-1.420
2020/01/31 17:31:12.3	357.180	-0.560	-0.380	-1.460
2020/01/31 17:31:12.4	357.220	-0.580	-0.350	-1.500
2020/01/31 17:31:12.5	357.250	-0.590	-0.330	-1.540
2020/01/31 17:31:12.6	357.290	-0.590	-0.310	-1.560
2020/01/31 17:31:12.7	357.320	-0.590	-0.290	-1.590
2020/01/31 17:31:12.8	357.370	-0.580	-0.270	-1.610
2020/01/31 17:31:12.9	357.400	-0.570	-0.260	-1.620
2020/01/31 17:31:13.0	357.440	-0.550	-0.240	-1.630
2020/01/31 17:31:13.1	357.480	-0.530	-0.230	-1.630
2020/01/31 17:31:13.2	357.520	-0.500	-0.220	-1.630
2020/01/31 17:31:13.3	357.550	-0.460	-0.200	-1.620
2020/01/31 17:31:13.4	357.590	-0.430	-0.190	-1.610
2020/01/31 17:31:13.5	357.620	-0.380	-0.190	-1.590
2020/01/31 17:31:13.6	357.650	-0.340	-0.180	-1.570
2020/01/31 17:31:13.7	357.680	-0.290	-0.170	-1.540
2020/01/31 17:31:13.8	357.700	-0.240	-0.160	-1.500
2020/01/31 17:31:13.9	357.720	-0.190	-0.150	-1.460
2020/01/31 17:31:14.0	357.740	-0.140	-0.140	-1.410
2020/01/31 17:31:14.1	357.760	-0.090	-0.130	-1.350
2020/01/31 17:31:14.2	357.770	-0.040	-0.120	-1.290
2020/01/31 17:31:14.3	357.770	0.010	-0.110	-1.230
2020/01/31 17:31:14.4	357.760	0.050	-0.090	-1.150
2020/01/31 17:31:14.5	357.760	0.100	-0.080	-1.080
2020/01/31 17:31:14.6	357.740	0.140	-0.060	-0.990
2020/01/31 17:31:14.7	357.720	0.170	-0.050	-0.910
2020/01/31 17:31:14.8	357.700	0.210	-0.030	-0.820
2020/01/31 17:31:14.9	357.670	0.240	-0.020	-0.740
2020/01/31 17:31:15.0	357.640	0.260	-0.000	-0.650
2020/01/31 17:31:15.1	357.610	0.280	0.010	-0.570
2020/01/31 17:31:15.2	357.570	0.290	0.030	-0.490
2020/01/31 17:31:15.3	357.530	0.300	0.040	-0.420
2020/01/31 17:31:15.4	357.490	0.310	0.050	-0.350
2020/01/31 17:31:15.5	357.450	0.310	0.060	-0.280
2020/01/31 17:31:15.6	357.410	0.310	0.070	-0.220
2020/01/31 17:31:15.7	357.360	0.300	0.080	-0.160
2020/01/31 17:31:15.8	357.310	0.290	0.080	-0.110
2020/01/31 17:31:15.9	357.270	0.270	0.090	-0.060
2020/01/31 17:31:16.0	357.230	0.260	0.090	-0.030
2020/01/31 17:31:16.1	357.190	0.230	0.090	0.010
2020/01/31 17:31:16.2	357.160	0.210	0.090	0.030
2020/01/31 17:31:16.3	357.130	0.180	0.080	0.050
2020/01/31 17:31:16.4	357.100	0.160	0.080	0.060
2020/01/31 17:31:16.5	357.080	0.130	0.070	0.060
2020/01/31 17:31:16.6	357.060	0.100	0.060	0.050
2020/01/31 17:31:16.7	357.040	0.070	0.040	0.040
2020/01/31 17:31:16.8	357.050	0.040	0.030	0.030
2020/01/31 17:31:16.9	357.050	0.010	0.010	0.000
2020/01/31 17:31:17.0	357.050	-0.020	-0.010	-0.030
2020/01/31 17:31:17.1	357.050	-0.050	-0.030	-0.060
2020/01/31 17:31:17.2	357.060	-0.080	-0.050	-0.110
2020/01/31 17:31:17.3	357.080	-0.110	-0.080	-0.150
2020/01/31 17:31:17.4	357.100	-0.130	-0.100	-0.210
2020/01/31 17:31:17.5	357.120	-0.160	-0.130	-0.260
2020/01/31 17:31:17.6	357.140	-0.180	-0.150	-0.320
2020/01/31 17:31:17.7	357.170	-0.200	-0.180	-0.390
2020/01/31 17:31:17.8	357.190	-0.220	-0.200	-0.460
2020/01/31 17:31:17.9	357.220	-0.240	-0.220	-0.530
2020/01/31 17:31:18.0	357.250	-0.260	-0.240	-0.600
2020/01/31 17:31:18.1	357.280	-0.280	-0.260	-0.670
2020/01/31 17:31:18.2	357.310	-0.300	-0.280	-0.740
2020/01/31 17:31:18.3	357.340	-0.310	-0.290	-0.820
2020/01/31 17:31:18.4	357.370	-0.330	-0.300	-0.890
2020/01/31 17:31:18.5	357.400	-0.340	-0.310	-0.950
2020/01/31 17:31:18.6	357.430	-0.350	-0.320	-1.020
2020/01/31 17:31:18.7	357.450	-0.360	-0.330	-1.080
2020/01/31 17:31:18.8	357.480	-0.370	-0.340	-1.140
2020/01/31 17:31:18.9	357.500	-0.380	-0.340	-1.190
2020/01/31 17:31:19.0	357.520	-0.380	-0.350	-1.240
2020/01/31 17:31:19.1	357.540	-0.380	-0.350	-1.280
2020/01/31 17:31:19.2	357.550	-0.380	-0.350	-1.310
2020/01/31 17:31:19.3	357.570	-0.380	-0.350	-1.340
2020/01/31 17:31:19.4	357.580	-0.370	-0.350	-1.350
2020/01/31 17:31:19.5	357.590	-0.360	-0.350	-1.370
2020/01/31 17:31:19.6	357.600	-0.350	-0.340	-1.370
2020/01/31 17:31:19.7	357.610	-0.330	-0.340	-1.360
2020/01/31 17:31:19.8	357.610	-0.320	-0.340	-1.350
2020/01/31 17:31:19.9	357.620	-0.300	-0.340	-1.340
2020/01/31 17:31:20.0	357.620	-0.270	-0.340	-1.310
2020/01/31 17:31:20.1	357.620	-0.250	-0.340	-1.280
2020/01/31 17:31:20.2	357.630	-0.220	-0.340	-1.250
2020/01/31 17:31:20.3	357.630	-0.190	-0.350	-1.210
2020/01/31 17:31:20.4	357.630	-0.150	-0.350	-1.170
2020/01/31 17:31:20.5	357.630	-0.110	-0.360	-1.120
2020/01/31 17:31:20.6	357.630	-0.070	-0.370	-1.070
2020/01/31 17:31:20.7	357.620	-0.030	-0.370	-1.020
2020/01/31 17:31:20.8	357.610	0.020	-0.380	-0.960
2020/01/31 17:31:20.9	357.610	0.060	-0.390	-0.900
2020/01/31 17:31:21.0	357.600	0.110	-0.400	-0.840
2020/01/31 17:31:21.1	357.590	0.160	-0.410	-0.770
2020/01/31 17:31:21.2	357.580	0.210	-0.420	-0.710
2020/01/31 17:31:21.3	357.570	0.260	-0.430	-0.640
2020/01/31 17:31:21.4	357.560	0.310	-0.440	-0.570
2020/01/31 17:31:21.5	357.540	0.360	-0.450	-0.500
2020/01/31 17:31:21.6	357.530	0.410	-0.450	-0.430
2020/01/31 17:31:21.7	357.510	0.460	-0.460	-0.360
2020/01/31 17:31:21.8	357.480	0.500	-0.460	-0.290
2020/01/31 17:31:21.9	357.460	0.550	-0.460	-0.220
2020/01/31 17:31:22.0	357.430	0.590	-0.460	-0.150
2020/01/31 17:31:22.1	357.410	0.620	-0.450	-0.080
2020/01/31 17:31:22.2	357.380	0.660	-0.440	-0.010
2020/01/31 17:31:22.3	357.350	0.680	-0.430	0.060
2020/01/31 17:31:22.4	357.320	0.710	-0.410	0.130
2020/01/31 17:31:22.5	357.290	0.730	-0.400	0.190
2020/01/31 17:31:22.6	357.250	0.740	-0.380	0.260
2020/01/31 17:31:22.7	357.220	0.750	-0.350	0.320
2020/01/31 17:31:22.8	357.180	0.760	-0.320	0.380
2020/01/31 17:31:22.9	357.150	0.750	-0.300	0.440
2020/01/31 17:31:23.0	357.120	0.750	-0.270	0.490
2020/01/31 17:31:23.1	357.090	0.740	-0.250	0.530
2020/01/31 17:31:23.2	357.070	0.720	-0.220	0.570
2020/01/31 17:31:23.3	357.040	0.700	-0.200	0.610
2020/01/31 17:31:23.4	357.020	0.670	-0.170	0.640
2020/01/31 17:31:23.5	357.010	0.640	-0.150	0.660
2020/01/31 17:31:23.6	356.990	0.610	-0.130	0.670
2020/01/31 17:31:23.7	356.990	0.570	-0.110	0.680
2020/01/31 17:31:23.8	356.980	0.530	-0.100	0.670
2020/01/31 17:31:23.9	356.980	0.480	-0.090	0.660
2020/01/31 17:31:24.0	356.990	0.430	-0.090	0.640
2020/01/31 17:31:24.1	357.000	0.380	-0.090	0.610
2020/01/31 17:31:24.2	357.020	0.330	-0.090	0.570
2020/01/31 17:31:24.3	357.040	0.280	-0.100	0.520
2020/01/31 17:31:24.4	357.070	0.230	-0.120	0.470
2020/01/31 17:31:24.5	357.100	0.180	-0.130	0.400
2020/01/31 17:31:24.6	357.140	0.120	-0.160	0.340
2020/01/31 17:31:24.7	357.180	0.070	-0.190	0.260
2020/01/31 17:31:24.8	357.240	0.020	-0.220	0.180
2020/01/31 17:31:24.9	357.280	-0.030	-0.250	0.100
2020/01/31 17:31:25.0	357.330	-0.080	-0.290	0.010
2020/01/31 17:31:25.1	357.380	-0.130	-0.320	-0.080
2020/01/31 17:31:25.2	357.430	-0.180	-0.360	-0.160
2020/01/31 17:31:25.3	357.480	-0.220	-0.400	-0.250
2020/01/31 17:31:25.4	357.530	-0.270	-0.440	-0.340
2020/01/31 17:31:25.5	357.580	-0.310	-0.480	-0.430
2020/01/31 17:31:25.6	357.630	-0.350	-0.510	-0.520
2020/01/31 17:31:25.7	357.680	-0.380	-0.540	-0.610
2020/01/31 17:31:25.8	357.730	-0.420	-0.570	-0.690
2020/01/31 17:31:25.9	357.780	-0.450	-0.600	-0.780
2020/01/31 17:31:26.0	357.820	-0.480	-0.630	-0.860
2020/01/31 17:31:26.1	357.870	-0.510	-0.650	-0.940
2020/01/31 17:31:26.2	357.920	-0.540	-0.670	-1.020
2020/01/31 17:31:26.3	357.960	-0.560	-0.680	-1.100
2020/01/31 17:31:26.4	358.010	-0.580	-0.690	-1.170
2020/01/31 17:31:26.5	358.050	-0.600	-0.700	-1.250
2020/01/31 17:31:26.6	358.100	-0.620	-0.700	-1.310
2020/01/31 17:31:26.7	358.140	-0.630	-0.690	-1.370
2020/01/31 17:31:26.8	358.190	-0.640	-0.690	-1.440
2020/01/31 17:31:26.9	358.230	-0.650	-0.680	-1.490
2020/01/31 17:31:27.0	358.270	-0.650	-0.670	-1.540
2020/01/31 17:31:27.1	358.310	-0.660	-0.650	-1.580
2020/01/31 17:31:27.2	358.350	-0.660	-0.630	-1.610
2020/01/31 17:31:27.3	358.380	-0.650	-0.610	-1.640
2020/01/31 17:31:27.4	358.410	-0.650	-0.580	-1.660
2020/01/31 17:31:27.5	358.440	-0.640	-0.550	-1.680
2020/01/31 17:31:27.6	358.470	-0.630	-0.520	-1.690
2020/01/31 17:31:27.7	358.500	-0.620	-0.490	-1.690
2020/01/31 17:31:27.8	358.520	-0.610	-0.450	-1.680
2020/01/31 17:31:27.9	358.540	-0.590	-0.420	-1.670
2020/01/31 17:31:28.0	358.550	-0.570	-0.370	-1.650
2020/01/31 17:31:28.1	358.560	-0.560	-0.330	-1.620
2020/01/31 17:31:28.2	358.560	-0.540	-0.280	-1.590
2020/01/31 17:31:28.3	358.570	-0.510	-0.230	-1.560
2020/01/31 17:31:28.4	358.560	-0.490	-0.180	-1.510
2020/01/31 17:31:28.5	358.550	-0.470	-0.130	-1.460
2020/01/31 17:31:28.6	358.530	-0.440	-0.080	-1.410
2020/01/31 17:31:28.7	358.510	-0.420	-0.020	-1.350
2020/01/31 17:31:28.8	358.470	-0.390	0.040	-1.280
2020/01/31 17:31:28.9	358.440	-0.360	0.090	-1.210
2020/01/31 17:31:29.0	358.400	-0.330	0.150	-1.130
2020/01/31 17:31:29.1	358.360	-0.300	0.210	-1.050
2020/01/31 17:31:29.2	358.310	-0.270	0.270	-0.960
2020/01/31 17:31:29.3	358.250	-0.240	0.320	-0.870
2020/01/31 17:31:29.4	358.200	-0.210	0.370	-0.780
2020/01/31 17:31:29.5	358.140	-0.180	0.430	-0.680
2020/01/31 17:31:29.6	358.080	-0.150	0.470	-0.590
2020/01/31 17:31:29.7	358.010	-0.120	0.520	-0.490
2020/01/31 17:31:29.8	357.940	-0.080	0.560	-0.380
2020/01/31 17:31:29.9	357.880	-0.050	0.590	-0.280
2020/01/31 17:31:30.0	357.810	-0.010	0.620	-0.190
2020/01/31 17:31:30.1	357.740	0.020	0.640	-0.100
2020/01/31 17:31:30.2	357.680	0.060	0.650	-0.000
2020/01/31 17:31:30.3	357.610	0.090	0.660	0.080
2020/01/31 17:31:30.4	357.550	0.130	0.660	0.170
2020/01/31 17:31:30.5	357.490	0.160	0.650	0.240
2020/01/31 17:31:30.6	357.430	0.200	0.630	0.320
2020/01/31 17:31:30.7	357.370	0.240	0.610	0.380
2020/01/31 17:31:30.8	357.330	0.280	0.570	0.440
2020/01/31 17:31:30.9	357.280	0.320	0.530	0.500
2020/01/31 17:31:31.0	357.240	0.360	0.480	0.540
2020/01/31 17:31:31.1	357.190	0.400	0.430	0.580
2020/01/31 17:31:31.2	357.160	0.440	0.370	0.610
2020/01/31 17:31:31.3	357.120	0.480	0.300	0.640
2020/01/31 17:31:31.4	357.090	0.520	0.230	0.660
2020/01/31 17:31:31.5	357.070	0.550	0.150	0.670
2020/01/31 17:31:31.6	357.040	0.590	0.070	0.670
2020/01/31 17:31:31.7	357.020	0.620	-0.010	0.670
2020/01/31 17:31:31.8	357.000	0.660	-0.100	0.670
2020/01/31 17:31:31.9	356.980	0.690	-0.180	0.650
2020/01/31 17:31:32.0	356.980	0.710	-0.270	0.630
2020/01/31 17:31:32.1	356.970	0.740	-0.350	0.610
2020/01/31 17:31:32.2	356.970	0.760	-0.440	0.570
2020/01/31 17:31:32.3	356.970	0.780	-0.520	0.540
2020/01/31 17:31:32.4	356.970	0.790	-0.600	0.490
2020/01/31 17:31:32.5	356.980	0.800	-0.680	0.450
2020/01/31 17:31:32.6	356.990	0.810	-0.760	0.400
2020/01/31 17:31:32.7	357.000	0.810	-0.830	0.340
2020/01/31 17:31:32.8	357.020	0.810	-0.890	0.280
2020/01/31 17:31:32.9	357.040	0.800	-0.950	0.220
2020/01/31 17:31:33.0	357.070	0.790	-1.010	0.150
2020/01/31 17:31:33.1	357.100	0.780	-1.060	0.080
2020/01/31 17:31:33.2	357.130	0.760	-1.110	0.010
2020/01/31 17:31:33.3	357.160	0.740	-1.140	-0.060
2020/01/31 17:31:33.4	357.200	0.710	-1.180	-0.130
2020/01/31 17:31:33.5	357.240	0.680	-1.210	-0.210
2020/01/31 17:31:33.6	357.280	0.650	-1.230	-0.280
2020/01/31 17:31:33.7	357.320	0.610	-1.240	-0.360
2020/01/31 17:31:33.8	357.360	0.560	-1.250	-0.430
2020/01/31 17:31:33.9	357.410	0.520	-1.250	-0.510
2020/01/31 17:31:34.0	357.460	0.470	-1.250	-0.590
2020/01/31 17:31:34.1	357.510	0.420	-1.240	-0.660
2020/01/31 17:31:34.2	357.560	0.370	-1.230	-0.730
2020/01/31 17:31:34.3	357.610	0.310	-1.210	-0.800
2020/01/31 17:31:34.4	357.660	0.250	-1.190	-0.870
2020/01/31 17:31:34.5	357.710	0.190	-1.160	-0.940
2020/01/31 17:31:34.6	357.760	0.130	-1.120	-1.000
2020/01/31 17:31:34.7	357.800	0.070	-1.080	-1.070
2020/01/31 17:31:34.8	357.860	0.000	-1.040	-1.120
2020/01/31 17:31:34.9	357.900	-0.060	-0.990	-1.180
2020/01/31 17:31:35.0	357.940	-0.120	-0.940	-1.230
2020/01/31 17:31:35.1	357.980	-0.180	-0.880	-1.280
2020/01/31 17:31:35.2	358.020	-0.250	-0.820	-1.320
2020/01/31 17:31:35.3	358.060	-0.310	-0.760	-1.360
2020/01/31 17:31:35.4	358.090	-0.360	-0.690	-1.390
2020/01/31 17:31:35.5	358.120	-0.420	-0.630	-1.420
2020/01/31 17:31:35.6	358.150	-0.480	-0.560	-1.440
2020/01/31 17:31:35.7	358.180	-0.530	-0.490	-1.460
2020/01/31 17:31:35.8	358.200	-0.580	-0.420	-1.480
2020/01/31 17:31:35.9	358.230	-0.620	-0.340	-1.490
2020/01/31 17:31:36.0	358.240	-0.670	-0.270	-1.490
2020/01/31 17:31:36.1	358.260	-0.710	-0.200	-1.490
2020/01/31 17:31:36.2	358.270	-0.740	-0.120	-1.480
2020/01/31 17:31:36.3	358.290	-0.780	-0.050	-1.470
2020/01/31 17:31:36.4	358.300	-0.800	0.020	-1.450
2020/01/31 17:31:36.5	358.300	-0.830	0.090	-1.430
2020/01/31 17:31:36.6	358.300	-0.850	0.150	-1.400
2020/01/31 17:31:36.7	358.310	-0.870	0.220	-1.360
2020/01/31 17:31:36.8	358.310	-0.880	0.280	-1.310
2020/01/31 17:31:36.9	358.310	-0.890	0.340	-1.270
2020/01/31 17:31:37.0	358.300	-0.890	0.390	-1.220
2020/01/31 17:31:37.1	358.280	-0.890	0.440	-1.160
2020/01/31 17:31:37.2	358.270	-0.890	0.490	-1.100
2020/01/31 17:31:37.3	358.250	-0.880	0.530	-1.030
2020/01/31 17:31:37.4	358.230	-0.870	0.560	-0.970
2020/01/31 17:31:37.5	358.200	-0.860	0.600	-0.890
2020/01/31 17:31:37.6	358.170	-0.840	0.620	-0.820
2020/01/31 17:31:37.7	358.150	-0.810	0.640	-0.740
2020/01/31 17:31:37.8	358.120	-0.790	0.660	-0.660
2020/01/31 17:31:37.9	358.080	-0.760	0.670	-0.580
2020/01/31 17:31:38.0	358.050	-0.730	0.670	-0.500
2020/01/31 17:31:38.1	358.010	-0.690	0.670	-0.420
2020/01/31 17:31:38.2	357.970	-0.660	0.660	-0.340
2020/01/31 17:31:38.3	357.930	-0.620	0.650	-0.260
2020/01/31 17:31:38.4	357.890	-0.570	0.640	-0.180
2020/01/31 17:31:38.5	357.850	-0.530	0.610	-0.100
2020/01/31 17:31:38.6	357.800	-0.480	0.590	-0.020
2020/01/31 17:31:38.7	357.760	-0.430	0.560	0.060
2020/01/31 17:31:38.8	357.700	-0.380	0.520	0.140
2020/01/31 17:31:38.9	357.650	-0.330	0.480	0.220
2020/01/31 17:31:39.0	357.600	-0.280	0.440	0.290
2020/01/31 17:31:39.1	357.550	-0.220	0.400	0.360
2020/01/31 17:31:39.2	357.500	-0.170	0.350	0.430
2020/01/31 17:31:39.3	357.440	-0.120	0.300	0.500
2020/01/31 17:31:39.4	357.390	-0.060	0.250	0.560
2020/01/31 17:31:39.5	357.330	-0.010	0.200	0.620
2020/01/31 17:31:39.6	357.280	0.040	0.150	0.670
2020/01/31 17:31:39.7	357.220	0.090	0.090	0.720
2020/01/31 17:31:39.8	357.160	0.130	0.040	0.760
2020/01/31 17:31:39.9	357.100	0.180	-0.010	0.800
2020/01/31 17:31:40.0	357.050	0.220	-0.070	0.830
2020/01/31 17:31:40.1	357.000	0.270	-0.120	0.860
2020/01/31 17:31:40.2	356.950	0.300	-0.170	0.880
2020/01/31 17:31:40.3	356.900	0.340	-0.220	0.890
2020/01/31 17:31:40.4	356.860	0.380	-0.270	0.900
2020/01/31 17:31:40.5	356.820	0.410	-0.320	0.900
2020/01/31 17:31:40.6	356.780	0.440	-0.370	0.900
2020/01/31 17:31:40.7	356.750	0.470	-0.420	0.890
2020/01/31 17:31:40.8	356.730	0.490	-0.470	0.880
2020/01/31 17:31:40.9	356.710	0.520	-0.510	0.860
2020/01/31 17:31:41.0	356.690	0.540	-0.560	0.830
2020/01/31 17:31:41.1	356.680	0.560	-0.600	0.810
2020/01/31 17:31:41.2	356.670	0.580	-0.640	0.780
2020/01/31 17:31:41.3	356.660	0.600	-0.680	0.740
2020/01/31 17:31:41.4	356.660	0.620	-0.720	0.710
2020/01/31 17:31:41.5	356.670	0.630	-0.760	0.670
2020/01/31 17:31:41.6	356.680	0.650	-0.800	0.630
2020/01/31 17:31:41.7	356.690	0.660	-0.830	0.590
2020/01/31 17:31:41.8	356.680	0.670	-0.860	0.550
2020/01/31 17:31:41.9	356.700	0.690	-0.880	0.500
2020/01/31 17:31:42.0	356.720	0.700	-0.910	0.460
2020/01/31 17:31:42.1	356.750	0.700	-0.930	0.420
2020/01/31 17:31:42.2	356.780	0.710	-0.950	0.370
2020/01/31 17:31:42.3	356.800	0.720	-0.970	0.330
2020/01/31 17:31:42.4	356.830	0.720	-0.980	0.280
2020/01/31 17:31:42.5	356.870	0.730	-0.990	0.240
2020/01/31 17:31:42.6	356.900	0.730	-1.000	0.190
2020/01/31 17:31:42.7	356.930	0.730	-1.000	0.140
2020/01/31 17:31:42.8	356.980	0.720	-1.000	0.090
2020/01/31 17:31:42.9	357.020	0.720	-0.990	0.040
2020/01/31 17:31:43.0	357.060	0.710	-0.990	-0.010
2020/01/31 17:31:43.1	357.090	0.700	-0.980	-0.060
2020/01/31 17:31:43.2	357.130	0.690	-0.960	-0.110
2020/01/31 17:31:43.3	357.170	0.670	-0.950	-0.170
2020/01/31 17:31:43.4	357.210	0.660	-0.930	-0.220
2020/01/31 17:31:43.5	357.250	0.640	-0.910	-0.280
2020/01/31 17:31:43.6	357.290	0.610	-0.880	-0.330
2020/01/31 17:31:43.7	357.330	0.590	-0.860	-0.380
2020/01/31 17:31:43.8	357.380	0.560	-0.830	-0.440
2020/01/31 17:31:43.9	357.420	0.530	-0.800	-0.490
2020/01/31 17:31:44.0	357.450	0.500	-0.760	-0.540
2020/01/31 17:31:44.1	357.490	0.470	-0.730	-0.590
2020/01/31 17:31:44.2	357.530	0.430	-0.690	-0.640
2020/01/31 17:31:44.3	357.560	0.390	-0.650	-0.690
2020/01/31 17:31:44.4	357.600	0.350	-0.610	-0.730
2020/01/31 17:31:44.5	357.630	0.310	-0.560	-0.780
2020/01/31 17:31:44.6	357.660	0.260	-0.520	-0.820
2020/01/31 17:31:44.7	357.690	0.220	-0.470	-0.860
2020/01/31 17:31:44.8	357.720	0.170	-0.430	-0.890
2020/01/31 17:31:44.9	357.750	0.120	-0.380	-0.920
2020/01/31 17:31:45.0	357.770	0.070	-0.330	-0.950
2020/01/31 17:31:45.1	357.800	0.020	-0.280	-0.980
2020/01/31 17:31:45.2	357.820	-0.030	-0.230	-1.000
2020/01/31 17:31:45.3	357.840	-0.080	-0.180	-1.020
2020/01/31 17:31:45.4	357.860	-0.130	-0.130	-1.030
2020/01/31 17:31:45.5	357.880	-0.180	-0.090	-1.040
2020/01/31 17:31:45.6	357.890	-0.230	-0.040	-1.050
2020/01/31 17:31:45.7	357.900	-0.280	0.010	-1.050
2020/01/31 17:31:45.8	357.920	-0.330	0.060	-1.050
2020/01/31 17:31:45.9	357.930	-0.380	0.110	-1.050
2020/01/31 17:31:46.0	357.930	-0.420	0.150	-1.040
2020/01/31 17:31:46.1	357.930	-0.470	0.200	-1.030
2020/01/31 17:31:46.2	357.930	-0.510	0.240	-1.020
2020/01/31 17:31:46.3	357.930	-0.550	0.280	-1.000
2020/01/31 17:31:46.4	357.920	-0.590	0.320	-0.990
2020/01/31 17:31:46.5	357.920	-0.630	0.350	-0.970
2020/01/31 17:31:46.6	357.910	-0.670	0.380	-0.960
2020/01/31 17:31:46.7	357.900	-0.700	0.410	-0.940
2020/01/31 17:31:46.8	357.880	-0.730	0.430	-0.920
2020/01/31 17:31:46.9	357.870	-0.760	0.450	-0.900
2020/01/31 17:31:47.0	357.850	-0.780	0.470	-0.880
2020/01/31 17:31:47.1	357.840	-0.800	0.480	-0.860
2020/01/31 17:31:47.2	357.830	-0.820	0.490	-0.840
2020/01/31 17:31:47.3	357.810	-0.830	0.490	-0.820
2020/01/31 17:31:47.4	357.790	-0.840	0.490	-0.790
2020/01/31 17:31:47.5	357.780	-0.850	0.480	-0.770
2020/01/31 17:31:47.6	357.760	-0.850	0.470	-0.740
2020/01/31 17:31:47.7	357.740	-0.850	0.450	-0.720
2020/01/31 17:31:47.8	357.720	-0.850	0.430	-0.690
2020/01/31 17:31:47.9	357.690	-0.840	0.410	-0.660
2020/01/31 17:31:48.0	357.670	-0.830	0.380	-0.630
2020/01/31 17:31:48.1	357.650	-0.810	0.350	-0.600
2020/01/31 17:31:48.2	357.620	-0.790	0.310	-0.570
2020/01/31 17:31:48.3	357.600	-0.770	0.280	-0.540
2020/01/31 17:31:48.4	357.570	-0.750	0.240	-0.510
2020/01/31 17:31:48.5	357.550	-0.720	0.200	-0.480
2020/01/31 17:31:48.6	357.520	-0.690	0.160	-0.440
2020/01/31 17:31:48.7	357.500	-0.660	0.120	-0.410
2020/01/31 17:31:48.8	357.470	-0.630	0.090	-0.380
2020/01/31 17:31:48.9	357.450	-0.590	0.050	-0.350
2020/01/31 17:31:49.0	357.430	-0.550	0.010	-0.320
2020/01/31 17:31:49.1	357.410	-0.510	-0.030	-0.290
2020/01/31 17:31:49.2	357.380	-0.470	-0.060	-0.260
2020/01/31 17:31:49.3	357.360	-0.430	-0.090	-0.230
2020/01/31 17:31:49.4	357.350	-0.380	-0.120	-0.200
2020/01/31 17:31:49.5	357.330	-0.340	-0.150	-0.180
2020/01/31 17:31:49.6	357.310	-0.290	-0.180	-0.150
2020/01/31 17:31:49.7	357.300	-0.240	-0.200	-0.120
2020/01/31 17:31:49.8	357.280	-0.200	-0.220	-0.090
2020/01/31 17:31:49.9	357.270	-0.150	-0.240	-0.060
2020/01/31 17:31:50.0	357.250	-0.100	-0.260	-0.040
2020/01/31 17:31:50.1	357.240	-0.050	-0.280	-0.010
2020/01/31 17:31:50.2	357.230	-0.000	-0.290	0.010
2020/01/31 17:31:50.3	357.230	0.040	-0.310	0.040
2020/01/31 17:31:50.4	357.220	0.090	-0.320	0.060
2020/01/31 17:31:50.5	357.210	0.130	-0.330	0.090
2020/01/31 17:31:50.6	357.200	0.180	-0.340	0.110
2020/01/31 17:31:50.7	357.200	0.220	-0.350	0.130
2020/01/31 17:31:50.8	357.190	0.260	-0.350	0.150
2020/01/31 17:31:50.9	357.190	0.300	-0.360	0.170
2020/01/31 17:31:51.0	357.180	0.340	-0.370	0.190
2020/01/31 17:31:51.1	357.180	0.380	-0.370	0.200
2020/01/31 17:31:51.2	357.180	0.410	-0.380	0.210
2020/01/31 17:31:51.3	357.180	0.450	-0.390	0.220
2020/01/31 17:31:51.4	357.180	0.480	-0.400	0.230
2020/01/31 17:31:51.5	357.180	0.510	-0.410	0.230
2020/01/31 17:31:51.6	357.190	0.540	-0.410	0.230
2020/01/31 17:31:51.7	357.190	0.560	-0.420	0.230
2020/01/31 17:31:51.8	357.200	0.590	-0.430	0.220
2020/01/31 17:31:51.9	357.210	0.610	-0.440	0.220
2020/01/31 17:31:52.0	357.220	0.630	-0.450	0.210
2020/01/31 17:31:52.1	357.230	0.640	-0.470	0.190
2020/01/31 17:31:52.2	357.240	0.660	-0.480	0.180
2020/01/31 17:31:52.3	357.250	0.670	-0.490	0.160
2020/01/31 17:31:52.4	357.260	0.680	-0.500	0.140
2020/01/31 17:31:52.5	357.270	0.690	-0.510	0.120
2020/01/31 17:31:52.6	357.290	0.690	-0.520	0.100
2020/01/31 17:31:52.7	357.300	0.690	-0.530	0.080
2020/01/31 17:31:52.8	357.320	0.690	-0.540	0.060
2020/01/31 17:31:52.9	357.330	0.690	-0.550	0.030
2020/01/31 17:31:53.0	357.340	0.680	-0.550	0.000
2020/01/31 17:31:53.1	357.360	0.670	-0.560	-0.020
2020/01/31 17:31:53.2	357.370	0.660	-0.570	-0.050
2020/01/31 17:31:53.3	357.390	0.650	-0.570	-0.080
2020/01/31 17:31:53.4	357.400	0.630	-0.580	-0.110
2020/01/31 17:31:53.5	357.410	0.610	-0.580	-0.140
2020/01/31 17:31:53.6	357.420	0.580	-0.580	-0.170
2020/01/31 17:31:53.7	357.430	0.560	-0.580	-0.200
2020/01/31 17:31:53.8	357.440	0.530	-0.590	-0.230
2020/01/31 17:31:53.9	357.450	0.500	-0.590	-0.270
2020/01/31 17:31:54.0	357.460	0.470	-0.580	-0.300
2020/01/31 17:31:54.1	357.470	0.430	-0.580	-0.340
2020/01/31 17:31:54.2	357.480	0.390	-0.580	-0.370
2020/01/31 17:31:54.3	357.490	0.360	-0.580	-0.410
2020/01/31 17:31:54.4	357.500	0.320	-0.570	-0.440
2020/01/31 17:31:54.5	357.510	0.280	-0.570	-0.480
2020/01/31 17:31:54.6	357.520	0.230	-0.560	-0.520
2020/01/31 17:31:54.7	357.530	0.190	-0.560	-0.560
2020/01/31 17:31:54.8	357.560	0.150	-0.550	-0.600
2020/01/31 17:31:54.9	357.570	0.110	-0.540	-0.640
2020/01/31 17:31:55.0	357.580	0.070	-0.540	-0.680
2020/01/31 17:31:55.1	357.600	0.020	-0.530	-0.720
2020/01/31 17:31:55.2	357.610	-0.020	-0.520	-0.760
2020/01/31 17:31:55.3	357.620	-0.060	-0.510	-0.800
2020/01/31 17:31:55.4	357.640	-0.090	-0.510	-0.840
2020/01/31 17:31:55.5	357.650	-0.130	-0.500	-0.870
2020/01/31 17:31:55.6	357.670	-0.170	-0.490	-0.910
2020/01/31 17:31:55.7	357.680	-0.200	-0.470	-0.940
2020/01/31 17:31:55.8	357.690	-0.230	-0.460	-0.970
2020/01/31 17:31:55.9	357.700	-0.260	-0.450	-1.000
2020/01/31 17:31:56.0	357.710	-0.290	-0.440	-1.020
2020/01/31 17:31:56.1	357.720	-0.310	-0.420	-1.040
2020/01/31 17:31:56.2	357.720	-0.330	-0.410	-1.060
2020/01/31 17:31:56.3	357.730	-0.350	-0.390	-1.070
2020/01/31 17:31:56.4	357.730	-0.370	-0.370	-1.080
2020/01/31 17:31:56.5	357.730	-0.380	-0.350	-1.090
2020/01/31 17:31:56.6	357.730	-0.390	-0.330	-1.090
2020/01/31 17:31:56.7	357.730	-0.400	-0.310	-1.090
2020/01/31 17:31:56.8	357.720	-0.400	-0.280	-1.090
2020/01/31 17:31:56.9	357.710	-0.400	-0.260	-1.080
2020/01/31 17:31:57.0	357.710	-0.400	-0.240	-1.060
2020/01/31 17:31:57.1	357.700	-0.390	-0.210	-1.040
2020/01/31 17:31:57.2	357.690	-0.380	-0.180	-1.020
2020/01/31 17:31:57.3	357.680	-0.370	-0.160	-0.990
2020/01/31 17:31:57.4	357.670	-0.350	-0.130	-0.950
2020/01/31 17:31:57.5	357.660	-0.340	-0.110	-0.920
2020/01/31 17:31:57.6	357.650	-0.320	-0.080	-0.880
2020/01/31 17:31:57.7	357.640	-0.290	-0.050	-0.830
2020/01/31 17:31:57.8	357.650	-0.270	-0.030	-0.780
2020/01/31 17:31:57.9	357.640	-0.240	-0.010	-0.730
2020/01/31 17:31:58.0	357.630	-0.210	0.010	-0.680
2020/01/31 17:31:58.1	357.620	-0.180	0.030	-0.620
2020/01/31 17:31:58.2	357.610	-0.150	0.040	-0.560
2020/01/31 17:31:58.3	357.600	-0.110	0.060	-0.500
2020/01/31 17:31:58.4	357.590	-0.080	0.070	-0.440
2020/01/31 17:31:58.5	357.580	-0.040	0.080	-0.370
2020/01/31 17:31:58.6	357.570	-0.010	0.080	-0.310
2020/01/31 17:31:58.7	357.560	0.020	0.090	-0.250
2020/01/31 17:31:58.8	357.550	0.060	0.090	-0.180
2020/01/31 17:31:58.9	357.540	0.090	0.090	-0.120
2020/01/31 17:31:59.0	357.530	0.120	0.090	-0.060
2020/01/31 17:31:59.1	357.510	0.140	0.080	0.000
2020/01/31 17:31:59.2	357.500	0.170	0.070	0.050
2020/01/31 17:31:59.3	357.490	0.190	0.060	0.110
2020/01/31 17:31:59.4	357.480	0.210	0.050	0.150
2020/01/31 17:31:59.5	357.470	0.230	0.040	0.200
2020/01/31 17:31:59.6	357.460	0.250	0.030	0.240
2020/01/31 17:31:59.7	357.450	0.260	0.010	0.270
2020/01/31 17:31:59.8	357.440	0.270	-0.010	0.300
2020/01/31 17:31:59.9	357.430	0.270	-0.030	0.330
2020/01/31 17:32:00.0	357.420	0.270	-0.050	0.350
2020/01/31 17:32:00.1	357.420	0.270	-0.070	0.360
2020/01/31 17:32:00.2	357.420	0.270	-0.090	0.370
2020/01/31 17:32:00.3	357.420	0.260	-0.110	0.370
2020/01/31 17:32:00.4	357.420	0.250	-0.130	0.370
2020/01/31 17:32:00.5	357.420	0.240	-0.150	0.370
2020/01/31 17:32:00.6	357.430	0.220	-0.170	0.350
2020/01/31 17:32:00.7	357.440	0.200	-0.190	0.340
2020/01/31 17:32:00.8	357.450	0.180	-0.200	0.320
2020/01/31 17:32:00.9	357.460	0.160	-0.220	0.290
2020/01/31 17:32:01.0	357.480	0.130	-0.230	0.270
2020/01/31 17:32:01.1	357.490	0.110	-0.250	0.240
2020/01/31 17:32:01.2	357.510	0.080	-0.260	0.200
2020/01/31 17:32:01.3	357.530	0.050	-0.260	0.170
2020/01/31 17:32:01.4	357.550	0.020	-0.270	0.130
2020/01/31 17:32:01.5	357.580	-0.010	-0.270	0.090
2020/01/31 17:32:01.6	357.600	-0.040	-0.280	0.040
2020/01/31 17:32:01.7	357.620	-0.070	-0.270	-0.000
2020/01/31 17:32:01.8	357.650	-0.100	-0.270	-0.040
2020/01/31 17:32:01.9	357.670	-0.140	-0.260	-0.090
2020/01/31 17:32:02.0	357.690	-0.170	-0.250	-0.140
2020/01/31 17:32:02.1	357.710	-0.200	-0.240	-0.180
2020/01/31 17:32:02.2	357.730	-0.230	-0.230	-0.230
2020/01/31 17:32:02.3	357.750	-0.260	-0.210	-0.280
2020/01/31 17:32:02.4	357.770	-0.300	-0.190	-0.320
2020/01/31 17:32:02.5	357.780	-0.330	-0.170	-0.360
2020/01/31 17:32:02.6	357.790	-0.350	-0.150	-0.400
2020/01/31 17:32:02.7	357.800	-0.380	-0.130	-0.440
2020/01/31 17:32:02.8	357.810	-0.410	-0.110	-0.490
2020/01/31 17:32:02.9	357.810	-0.430	-0.090	-0.520
2020/01/31 17:32:03.0	357.820	-0.450	-0.060	-0.550
2020/01/31 17:32:03.1	357.810	-0.470	-0.040	-0.580
2020/01/31 17:32:03.2	357.810	-0.490	-0.020	-0.600
2020/01/31 17:32:03.3	357.810	-0.510	0.000	-0.630
2020/01/31 17:32:03.4	357.800	-0.520	0.020	-0.640
2020/01/31 17:32:03.5	357.800	-0.540	0.040	-0.660
2020/01/31 17:32:03.6	357.790	-0.540	0.060	-0.670
2020/01/31 17:32:03.7	357.780	-0.550	0.070	-0.680
2020/01/31 17:32:03.8	357.770	-0.550	0.080	-0.690
2020/01/31 17:32:03.9	357.760	-0.560	0.090	-0.690
2020/01/31 17:32:04.0	357.750	-0.550	0.090	-0.690
2020/01/31 17:32:04.1	357.730	-0.550	0.090	-0.690
2020/01/31 17:32:04.2	357.720	-0.540	0.090	-0.680
2020/01/31 17:32:04.3	357.700	-0.530	0.080	-0.670
2020/01/31 17:32:04.4	357.690	-0.510	0.070	-0.660
2020/01/31 17:32:04.5	357.670	-0.490	0.060	-0.650
2020/01/31 17:32:04.6	357.660	-0.470	0.040	-0.630
2020/01/31 17:32:04.7	357.640	-0.450	0.020	-0.610
2020/01/31 17:32:04.8	357.630	-0.420	-0.000	-0.600
2020/01/31 17:32:04.9	357.610	-0.390	-0.030	-0.580
2020/01/31 17:32:05.0	357.590	-0.360	-0.060	-0.550
2020/01/31 17:32:05.1	357.580	-0.330	-0.090	-0.530
2020/01/31 17:32:05.2	357.560	-0.290	-0.130	-0.510
2020/01/31 17:32:05.3	357.540	-0.260	-0.170	-0.480
2020/01/31 17:32:05.4	357.520	-0.220	-0.210	-0.450
2020/01/31 17:32:05.5	357.510	-0.170	-0.250	-0.430
2020/01/31 17:32:05.6	357.490	-0.130	-0.290	-0.400
2020/01/31 17:32:05.7	357.470	-0.090	-0.330	-0.370
2020/01/31 17:32:05.8	357.440	-0.040	-0.370	-0.330
2020/01/31 17:32:05.9	357.430	0.010	-0.420	-0.300
2020/01/31 17:32:06.0	357.410	0.060	-0.460	-0.270
2020/01/31 17:32:06.1	357.400	0.100	-0.500	-0.230
2020/01/31 17:32:06.2	357.380	0.150	-0.540	-0.200
2020/01/31 17:32:06.3	357.370	0.200	-0.580	-0.160
2020/01/31 17:32:06.4	357.350	0.250	-0.620	-0.120
2020/01/31 17:32:06.5	357.340	0.290	-0.660	-0.090
2020/01/31 17:32:06.6	357.330	0.340	-0.690	-0.050
2020/01/31 17:32:06.7	357.310	0.380	-0.720	-0.010
2020/01/31 17:32:06.8	357.300	0.430	-0.750	0.020
2020/01/31 17:32:06.9	357.290	0.470	-0.770	0.060
2020/01/31 17:32:07.0	357.270	0.510	-0.790	0.090
2020/01/31 17:32:07.1	357.260	0.540	-0.800	0.130
2020/01/31 17:32:07.2	357.250	0.580	-0.810	0.160
2020/01/31 17:32:07.3	357.230	0.610	-0.820	0.190
2020/01/31 17:32:07.4	357.220	0.640	-0.820	0.220
2020/01/31 17:32:07.5	357.210	0.660	-0.820	0.240
2020/01/31 17:32:07.6	357.200	0.690	-0.810	0.260
2020/01/31 17:32:07.7	357.190	0.710	-0.800	0.280
2020/01/31 17:32:07.8	357.180	0.720	-0.790	0.290
2020/01/31 17:32:07.9	357.170	0.730	-0.780	0.300
2020/01/31 17:32:08.0	357.160	0.740	-0.760	0.300
2020/01/31 17:32:08.1	357.160	0.750	-0.740	0.300
2020/01/31 17:32:08.2	357.160	0.750	-0.710	0.300
2020/01/31 17:32:08.3	357.150	0.750	-0.690	0.290
2020/01/31 17:32:08.4	357.160	0.750	-0.660	0.280
2020/01/31 17:32:08.5	357.160	0.740	-0.630	0.270
2020/01/31 17:32:08.6	357.160	0.740	-0.600	0.250
2020/01/31 17:32:08.7	357.170	0.730	-0.570	0.230
2020/01/31 17:32:08.8	357.180	0.710	-0.540	0.200
2020/01/31 17:32:08.9	357.190	0.700	-0.510	0.180
2020/01/31 17:32:09.0	357.200	0.680	-0.480	0.160
2020/01/31 17:32:09.1	357.210	0.660	-0.450	0.130
2020/01/31 17:32:09.2	357.220	0.640	-0.420	0.110
2020/01/31 17:32:09.3	357.230	0.610	-0.390	0.080
2020/01/31 17:32:09.4	357.250	0.590	-0.360	0.060
2020/01/31 17:32:09.5	357.260	0.560	-0.330	0.030
2020/01/31 17:32:09.6	357.270	0.530	-0.310	0.010
2020/01/31 17:32:09.7	357.280	0.490	-0.280	-0.020
2020/01/31 17:32:09.8	357.290	0.460	-0.250	-0.050
2020/01/31 17:32:09.9	357.300	0.420	-0.230	-0.080
2020/01/31 17:32:10.0	357.310	0.380	-0.210	-0.110
2020/01/31 17:32:10.1	357.320	0.340	-0.180	-0.140
2020/01/31 17:32:10.2	357.330	0.300	-0.160	-0.180
2020/01/31 17:32:10.3	357.340	0.250	-0.150	-0.210
2020/01/31 17:32:10.4	357.350	0.210	-0.130	-0.260
2020/01/31 17:32:10.5	357.370	0.160	-0.120	-0.300
2020/01/31 17:32:10.6	357.380	0.110	-0.110	-0.350
2020/01/31 17:32:10.7	357.400	0.060	-0.100	-0.400
2020/01/31 17:32:10.8	357.410	0.010	-0.100	-0.450
2020/01/31 17:32:10.9	357.430	-0.050	-0.100	-0.500
2020/01/31 17:32:11.0	357.440	-0.100	-0.100	-0.560
2020/01/31 17:32:11.1	357.460	-0.150	-0.100	-0.620
2020/01/31 17:32:11.2	357.480	-0.200	-0.100	-0.680
2020/01/31 17:32:11.3	357.500	-0.260	-0.110	-0.740
2020/01/31 17:32:11.4	357.520	-0.310	-0.110	-0.800
2020/01/31 17:32:11.5	357.550	-0.360	-0.120	-0.860
2020/01/31 17:32:11.6	357.570	-0.410	-0.130	-0.920
2020/01/31 17:32:11.7	357.590	-0.450	-0.140	-0.980
2020/01/31 17:32:11.8	357.610	-0.500	-0.150	-1.040
2020/01/31 17:32:11.9	357.630	-0.540	-0.160	-1.090
2020/01/31 17:32:12.0	357.650	-0.580	-0.170	-1.140
2020/01/31 17:32:12.1	357.670	-0.620	-0.180	-1.190
2020/01/31 17:32:12.2	357.690	-0.660	-0.190	-1.230
2020/01/31 17:32:12.3	357.710	-0.690	-0.190	-1.270
2020/01/31 17:32:12.4	357.730	-0.720	-0.200	-1.300
2020/01/31 17:32:12.5	357.750	-0.740	-0.200	-1.330
2020/01/31 17:32:12.6	357.760	-0.760	-0.200	-1.350
2020/01/31 17:32:12.7	357.780	-0.780	-0.200	-1.360
2020/01/31 17:32:12.8	357.790	-0.790	-0.190	-1.370
2020/01/31 17:32:12.9	357.800	-0.800	-0.190	-1.380
2020/01/31 17:32:13.0	357.800	-0.800	-0.180	-1.370
2020/01/31 17:32:13.1	357.810	-0.800	-0.160	-1.360
2020/01/31 17:32:13.2	357.810	-0.790	-0.150	-1.350
2020/01/31 17:32:13.3	357.810	-0.780	-0.130	-1.330
2020/01/31 17:32:13.4	357.810	-0.770	-0.110	-1.300
2020/01/31 17:32:13.5	357.810	-0.750	-0.090	-1.270
2020/01/31 17:32:13.6	357.800	-0.730	-0.060	-1.230
2020/01/31 17:32:13.7	357.790	-0.700	-0.040	-1.190
2020/01/31 17:32:13.8	357.790	-0.670	-0.010	-1.150
2020/01/31 17:32:13.9	357.780	-0.640	0.010	-1.100
2020/01/31 17:32:14.0	357.760	-0.600	0.040	-1.040
2020/01/31 17:32:14.1	357.750	-0.560	0.070	-0.990
2020/01/31 17:32:14.2	357.740	-0.520	0.090	-0.930
2020/01/31 17:32:14.3	357.720	-0.480	0.110	-0.860
2020/01/31 17:32:14.4	357.700	-0.430	0.130	-0.800
2020/01/31 17:32:14.5	357.690	-0.380	0.150	-0.740
2020/01/31 17:32:14.6	357.670	-0.330	0.170	-0.670
2020/01/31 17:32:14.7	357.650	-0.290	0.180	-0.600
2020/01/31 17:32:14.8	357.620	-0.240	0.180	-0.530
2020/01/31 17:32:14.9	357.600	-0.190	0.190	-0.460
2020/01/31 17:32:15.0	357.580	-0.140	0.190	-0.390
2020/01/31 17:32:15.1	357.550	-0.090	0.200	-0.330
2020/01/31 17:32:15.2	357.530	-0.040	0.190	-0.260
2020/01/31 17:32:15.3	357.500	0.000	0.190	-0.200
2020/01/31 17:32:15.4	357.470	0.040	0.180	-0.140
2020/01/31 17:32:15.5	357.450	0.080	0.170	-0.090
2020/01/31 17:32:15.6	357.420	0.120	0.160	-0.040
2020/01/31 17:32:15.7	357.390	0.160	0.150	0.010
2020/01/31 17:32:15.8	357.380	0.190	0.130	0.050
2020/01/31 17:32:15.9	357.350	0.220	0.110	0.090
2020/01/31 17:32:16.0	357.330	0.240	0.090	0.120
2020/01/31 17:32:16.1	357.310	0.260	0.070	0.140
2020/01/31 17:32:16.2	357.280	0.280	0.050	0.160
2020/01/31 17:32:16.3	357.260	0.290	0.030	0.180
2020/01/31 17:32:16.4	357.240	0.300	0.000	0.190
2020/01/31 17:32:16.5	357.230	0.310	-0.020	0.200
2020/01/31 17:32:16.6	357.210	0.310	-0.050	0.200
2020/01/31 17:32:16.7	357.200	0.310	-0.070	0.200
2020/01/31 17:32:16.8	357.180	0.300	-0.100	0.190
2020/01/31 17:32:16.9	357.170	0.300	-0.120	0.190
2020/01/31 17:32:17.0	357.160	0.290	-0.140	0.180
2020/01/31 17:32:17.1	357.150	0.270	-0.160	0.170
2020/01/31 17:32:17.2	357.150	0.260	-0.180	0.150
2020/01/31 17:32:17.3	357.150	0.240	-0.200	0.140
2020/01/31 17:32:17.4	357.140	0.220	-0.220	0.120
2020/01/31 17:32:17.5	357.140	0.200	-0.230	0.110
2020/01/31 17:32:17.6	357.140	0.180	-0.250	0.090
2020/01/31 17:32:17.7	357.140	0.160	-0.260	0.070
2020/01/31 17:32:17.8	357.140	0.130	-0.270	0.050
2020/01/31 17:32:17.9	357.150	0.110	-0.280	0.040
2020/01/31 17:32:18.0	357.150	0.090	-0.290	0.020
2020/01/31 17:32:18.1	357.160	0.060	-0.300	0.010
2020/01/31 17:32:18.2	357.160	0.040	-0.310	-0.010
2020/01/31 17:32:18.3	357.170	0.020	-0.320	-0.020
2020/01/31 17:32:18.4	357.180	-0.000	-0.330	-0.030
2020/01/31 17:32:18.5	357.180	-0.020	-0.330	-0.040
2020/01/31 17:32:18.6	357.190	-0.040	-0.340	-0.060
2020/01/31 17:32:18.7	357.200	-0.060	-0.350	-0.070
2020/01/31 17:32:18.8	357.210	-0.080	-0.360	-0.080
2020/01/31 17:32:18.9	357.220	-0.090	-0.370	-0.100
2020/01/31 17:32:19.0	357.230	-0.100	-0.380	-0.110
2020/01/31 17:32:19.1	357.240	-0.110	-0.400	-0.130
2020/01/31 17:32:19.2	357.250	-0.120	-0.410	-0.140
2020/01/31 17:32:19.3	357.260	-0.130	-0.430	-0.160
2020/01/31 17:32:19.4	357.270	-0.130	-0.450	-0.180
2020/01/31 17:32:19.5	357.280	-0.130	-0.470	-0.200
2020/01/31 17:32:19.6	357.280	-0.130	-0.490	-0.220
2020/01/31 17:32:19.7	357.290	-0.120	-0.520	-0.230
2020/01/31 17:32:19.8	357.310	-0.120	-0.540	-0.260
2020/01/31 17:32:19.9	357.320	-0.110	-0.570	-0.280
2020/01/31 17:32:20.0	357.330	-0.090	-0.600	-0.290
2020/01/31 17:32:20.1	357.330	-0.080	-0.630	-0.310
2020/01/31 17:32:20.2	357.340	-0.060	-0.650	-0.330
2020/01/31 17:32:20.3	357.340	-0.040	-0.680	-0.350
2020/01/31 17:32:20.4	357.340	-0.020	-0.710	-0.370
2020/01/31 17:32:20.5	357.350	-0.000	-0.740	-0.390
2020/01/31 17:32:20.6	357.350	0.020	-0.770	-0.400
2020/01/31 17:32:20.7	357.350	0.040	-0.800	-0.420
2020/01/31 17:32:20.8	357.340	0.070	-0.830	-0.440
2020/01/31 17:32:20.9	357.340	0.090	-0.860	-0.460
2020/01/31 17:32:21.0	357.340	0.120	-0.880	-0.470
2020/01/31 17:32:21.1	357.340	0.140	-0.910	-0.490
2020/01/31 17:32:21.2	357.340	0.170	-0.930	-0.510
2020/01/31 17:32:21.3	357.340	0.190	-0.950	-0.520
2020/01/31 17:32:21.4	357.340	0.210	-0.970	-0.540
2020/01/31 17:32:21.5	357.340	0.240	-0.980	-0.550
2020/01/31 17:32:21.6	357.340	0.260	-0.990	-0.570
2020/01/31 17:32:21.7	357.340	0.280	-1.000	-0.590
2020/01/31 17:32:21.8	357.330	0.300	-1.010	-0.610
2020/01/31 17:32:21.9	357.340	0.310	-1.010	-0.620
2020/01/31 17:32:22.0	357.340	0.330	-1.010	-0.640
2020/01/31 17:32:22.1	357.350	0.340	-1.000	-0.660
2020/01/31 17:32:22.2	357.350	0.350	-0.990	-0.680
2020/01/31 17:32:22.3	357.360	0.360	-0.970	-0.700
2020/01/31 17:32:22.4	357.370	0.370	-0.950	-0.720
2020/01/31 17:32:22.5	357.390	0.380	-0.930	-0.740
2020/01/31 17:32:22.6	357.400	0.390	-0.900	-0.750
2020/01/31 17:32:22.7	357.410	0.390	-0.870	-0.770
2020/01/31 17:32:22.8	357.430	0.390	-0.830	-0.790
2020/01/31 17:32:22.9	357.440	0.390	-0.790	-0.800
2020/01/31 17:32:23.0	357.460	0.390	-0.750	-0.810
2020/01/31 17:32:23.1	357.480	0.390	-0.700	-0.810
2020/01/31 17:32:23.2	357.500	0.390	-0.640	-0.820
2020/01/31 17:32:23.3	357.520	0.380	-0.590	-0.820
2020/01/31 17:32:23.4	357.540	0.370	-0.530	-0.820
2020/01/31 17:32:23.5	357.560	0.360	-0.460	-0.820
2020/01/31 17:32:23.6	357.590	0.350	-0.400	-0.810
2020/01/31 17:32:23.7	357.610	0.340	-0.330	-0.800
2020/01/31 17:32:23.8	357.640	0.330	-0.260	-0.790
2020/01/31 17:32:23.9	357.650	0.310	-0.180	-0.780
2020/01/31 17:32:24.0	357.670	0.290	-0.110	-0.760
2020/01/31 17:32:24.1	357.690	0.270	-0.030	-0.740
2020/01/31 17:32:24.2	357.710	0.250	0.050	-0.720
2020/01/31 17:32:24.3	357.720	0.230	0.120	-0.700
2020/01/31 17:32:24.4	357.740	0.200	0.200	-0.680
2020/01/31 17:32:24.5	357.750	0.170	0.270	-0.660
2020/01/31 17:32:24.6	357.760	0.140	0.340	-0.640
2020/01/31 17:32:24.7	357.770	0.110	0.410	-0.610
2020/01/31 17:32:24.8	357.780	0.070	0.480	-0.590
2020/01/31 17:32:24.9	357.790	0.040	0.540	-0.560
2020/01/31 17:32:25.0	357.800	0.000	0.600	-0.540
2020/01/31 17:32:25.1	357.800	-0.030	0.650	-0.510
2020/01/31 17:32:25.2	357.810	-0.070	0.690	-0.490
2020/01/31 17:32:25.3	357.810	-0.110	0.730	-0.460
2020/01/31 17:32:25.4	357.820	-0.150	0.760	-0.440
2020/01/31 17:32:25.5	357.820	-0.190	0.790	-0.410
2020/01/31 17:32:25.6	357.820	-0.230	0.810	-0.390
2020/01/31 17:32:25.7	357.830	-0.260	0.820	-0.360
2020/01/31 17:32:25.8	357.830	-0.300	0.820	-0.340
2020/01/31 17:32:25.9	357.830	-0.340	0.820	-0.310
2020/01/31 17:32:26.0	357.830	-0.370	0.810	-0.290
2020/01/31 17:32:26.1	357.830	-0.400	0.800	-0.270
2020/01/31 17:32:26.2	357.830	-0.430	0.780	-0.240
2020/01/31 17:32:26.3	357.820	-0.460	0.750	-0.220
2020/01/31 17:32:26.4	357.820	-0.490	0.730	-0.200
2020/01/31 17:32:26.5	357.820	-0.510	0.690	-0.180
2020/01/31 17:32:26.6	357.810	-0.540	0.650	-0.160
2020/01/31 17:32:26.7	357.800	-0.550	0.610	-0.140
2020/01/31 17:32:26.8	357.790	-0.570	0.570	-0.120
2020/01/31 17:32:26.9	357.780	-0.580	0.520	-0.110
2020/01/31 17:32:27.0	357.770	-0.590	0.470	-0.090
2020/01/31 17:32:27.1	357.760	-0.600	0.420	-0.070
2020/01/31 17:32:27.2	357.750	-0.600	0.370	-0.060
2020/01/31 17:32:27.3	357.740	-0.600	0.320	-0.040
2020/01/31 17:32:27.4	357.720	-0.600	0.270	-0.020
2020/01/31 17:32:27.5	357.710	-0.590	0.220	-0.000
2020/01/31 17:32:27.6	357.690	-0.580	0.170	0.020
2020/01/31 17:32:27.7	357.670	-0.560	0.120	0.040
2020/01/31 17:32:27.8	357.650	-0.540	0.080	0.060
2020/01/31 17:32:27.9	357.630	-0.520	0.030	0.090
2020/01/31 17:32:28.0	357.600	-0.500	-0.010	0.120
2020/01/31 17:32:28.1	357.570	-0.470	-0.050	0.150
2020/01/31 17:32:28.2	357.530	-0.440	-0.080	0.180
2020/01/31 17:32:28.3	357.500	-0.410	-0.120	0.210
2020/01/31 17:32:28.4	357.460	-0.370	-0.150	0.240
2020/01/31 17:32:28.5	357.420	-0.340	-0.180	0.270
2020/01/31 17:32:28.6	357.380	-0.300	-0.210	0.300
2020/01/31 17:32:28.7	357.340	-0.260	-0.230	0.330
2020/01/31 17:32:28.8	357.300	-0.220	-0.260	0.360
2020/01/31 17:32:28.9	357.250	-0.180	-0.290	0.380
2020/01/31 17:32:29.0	357.210	-0.150	-0.310	0.400
2020/01/31 17:32:29.1	357.180	-0.110	-0.340	0.420
2020/01/31 17:32:29.2	357.140	-0.070	-0.360	0.430
2020/01/31 17:32:29.3	357.100	-0.040	-0.390	0.430
2020/01/31 17:32:29.4	357.070	-0.000	-0.410	0.430
2020/01/31 17:32:29.5	357.040	0.030	-0.440	0.430
2020/01/31 17:32:29.6	357.020	0.060	-0.470	0.420
2020/01/31 17:32:29.7	357.000	0.090	-0.500	0.400
2020/01/31 17:32:29.8	356.980	0.120	-0.530	0.370
2020/01/31 17:32:29.9	356.970	0.140	-0.560	0.340
2020/01/31 17:32:30.0	356.960	0.160	-0.600	0.300
2020/01/31 17:32:30.1	356.960	0.180	-0.630	0.260
2020/01/31 17:32:30.2	356.960	0.200	-0.670	0.210
2020/01/31 17:32:30.3	356.970	0.210	-0.710	0.160
2020/01/31 17:32:30.4	356.980	0.220	-0.750	0.100
2020/01/31 17:32:30.5	357.000	0.230	-0.790	0.040
2020/01/31 17:32:30.6	357.020	0.230	-0.830	-0.030
2020/01/31 17:32:30.7	357.040	0.240	-0.870	-0.100
2020/01/31 17:32:30.8	357.070	0.240	-0.920	-0.170
2020/01/31 17:32:30.9	357.100	0.240	-0.960	-0.250
2020/01/31 17:32:31.0	357.140	0.230	-1.000	-0.330
2020/01/31 17:32:31.1	357.180	0.230	-1.040	-0.410
2020/01/31 17:32:31.2	357.220	0.220	-1.080	-0.490
2020/01/31 17:32:31.3	357.260	0.210	-1.110	-0.570
2020/01/31 17:32:31.4	357.310	0.200	-1.150	-0.660
2020/01/31 17:32:31.5	357.360	0.180	-1.180	-0.740
2020/01/31 17:32:31.6	357.410	0.170	-1.210	-0.820
2020/01/31 17:32:31.7	357.460	0.160	-1.230	-0.900
2020/01/31 17:32:31.8	357.510	0.140	-1.260	-0.990
2020/01/31 17:32:31.9	357.560	0.130	-1.280	-1.070
2020/01/31 17:32:32.0	357.610	0.110	-1.290	-1.150
2020/01/31 17:32:32.1	357.670	0.090	-1.300	-1.220
2020/01/31 17:32:32.2	357.720	0.080	-1.310	-1.290
2020/01/31 17:32:32.3	357.770	0.070	-1.310	-1.360
2020/01/31 17:32:32.4	357.820	0.050	-1.300	-1.420
2020/01/31 17:32:32.5	357.870	0.040	-1.290	-1.480
2020/01/31 17:32:32.6	357.920	0.030	-1.270	-1.530
2020/01/31 17:32:32.7	357.970	0.020	-1.250	-1.580
2020/01/31 17:32:32.8	358.010	0.010	-1.230	-1.610
2020/01/31 17:32:32.9	358.060	-0.000	-1.190	-1.650
2020/01/31 17:32:33.0	358.100	-0.010	-1.150	-1.680
2020/01/31 17:32:33.1	358.130	-0.020	-1.110	-1.700
2020/01/31 17:32:33.2	358.160	-0.020	-1.050	-1.710
2020/01/31 17:32:33.3	358.200	-0.020	-1.000	-1.720
2020/01/31 17:32:33.4	358.220	-0.020	-0.930	-1.720
2020/01/31 17:32:33.5	358.250	-0.020	-0.870	-1.710
2020/01/31 17:32:33.6	358.270	-0.020	-0.790	-1.700
2020/01/31 17:32:33.7	358.300	-0.020	-0.720	-1.690
2020/01/31 17:32:33.8	358.320	-0.010	-0.640	-1.660
2020/01/31 17:32:33.9	358.330	-0.010	-0.560	-1.640
2020/01/31 17:32:34.0	358.350	0.000	-0.470	-1.610
2020/01/31 17:32:34.1	358.360	0.010	-0.390	-1.570
2020/01/31 17:32:34.2	358.370	0.020	-0.300	-1.530
2020/01/31 17:32:34.3	358.380	0.030	-0.210	-1.480
2020/01/31 17:32:34.4	358.390	0.040	-0.120	-1.440
2020/01/31 17:32:34.5	358.390	0.050	-0.040	-1.380
2020/01/31 17:32:34.6	358.390	0.070	0.050	-1.330
2020/01/31 17:32:34.7	358.390	0.080	0.130	-1.270
2020/01/31 17:32:34.8	358.410	0.090	0.210	-1.210
2020/01/31 17:32:34.9	358.410	0.110	0.290	-1.150
2020/01/31 17:32:35.0	358.400	0.120	0.360	-1.080
2020/01/31 17:32:35.1	358.400	0.130	0.430	-1.020
2020/01/31 17:32:35.2	358.390	0.150	0.500	-0.960
2020/01/31 17:32:35.3	358.390	0.160	0.560	-0.900
2020/01/31 17:32:35.4	358.380	0.170	0.610	-0.830
2020/01/31 17:32:35.5	358.380	0.180	0.660	-0.770
2020/01/31 17:32:35.6	358.370	0.190	0.700	-0.710
2020/01/31 17:32:35.7	358.360	0.190	0.740	-0.650
2020/01/31 17:32:35.8	358.350	0.200	0.760	-0.590
2020/01/31 17:32:35.9	358.340	0.200	0.790	-0.540
2020/01/31 17:32:36.0	358.340	0.200	0.800	-0.490
2020/01/31 17:32:36.1	358.330	0.200	0.810	-0.440
2020/01/31 17:32:36.2	358.320	0.200	0.820	-0.400
2020/01/31 17:32:36.3	358.310	0.190	0.810	-0.360
2020/01/31 17:32:36.4	358.300	0.180	0.810	-0.320
2020/01/31 17:32:36.5	358.290	0.170	0.790	-0.290
2020/01/31 17:32:36.6	358.280	0.160	0.780	-0.260
2020/01/31 17:32:36.7	358.270	0.140	0.750	-0.240
2020/01/31 17:32:36.8	358.260	0.120	0.730	-0.220
2020/01/31 17:32:36.9	358.250	0.100	0.700	-0.210
2020/01/31 17:32:37.0	358.240	0.080	0.670	-0.200
2020/01/31 17:32:37.1	358.230	0.050	0.630	-0.200
2020/01/31 17:32:37.2	358.220	0.030	0.590	-0.200
2020/01/31 17:32:37.3	358.220	-0.000	0.550	-0.200
2020/01/31 17:32:37.4	358.210	-0.030	0.500	-0.210
2020/01/31 17:32:37.5	358.200	-0.060	0.460	-0.230
2020/01/31 17:32:37.6	358.200	-0.090	0.410	-0.240
2020/01/31 17:32:37.7	358.190	-0.120	0.360	-0.260
2020/01/31 17:32:37.8	358.190	-0.150	0.310	-0.280
2020/01/31 17:32:37.9	358.180	-0.180	0.260	-0.310
2020/01/31 17:32:38.0	358.180	-0.210	0.210	-0.330
2020/01/31 17:32:38.1	358.170	-0.240	0.150	-0.350
2020/01/31 17:32:38.2	358.160	-0.260	0.100	-0.380
2020/01/31 17:32:38.3	358.160	-0.290	0.050	-0.400
2020/01/31 17:32:38.4	358.150	-0.310	0.000	-0.430
2020/01/31 17:32:38.5	358.140	-0.330	-0.050	-0.450
2020/01/31 17:32:38.6	358.130	-0.350	-0.090	-0.470
2020/01/31 17:32:38.7	358.110	-0.370	-0.140	-0.480
2020/01/31 17:32:38.8	358.100	-0.380	-0.180	-0.490
2020/01/31 17:32:38.9	358.080	-0.390	-0.220	-0.500
2020/01/31 17:32:39.0	358.060	-0.390	-0.260	-0.510
2020/01/31 17:32:39.1	358.040	-0.400	-0.300	-0.510
2020/01/31 17:32:39.2	358.010	-0.400	-0.330	-0.510
2020/01/31 17:32:39.3	357.990	-0.390	-0.360	-0.510
2020/01/31 17:32:39.4	357.960	-0.390	-0.390	-0.500
2020/01/31 17:32:39.5	357.930	-0.380	-0.430	-0.490
2020/01/31 17:32:39.6	357.900	-0.370	-0.450	-0.480
2020/01/31 17:32:39.7	357.870	-0.350	-0.480	-0.470
2020/01/31 17:32:39.8	357.840	-0.330	-0.510	-0.450
2020/01/31 17:32:39.9	357.810	-0.310	-0.540	-0.440
2020/01/31 17:32:40.0	357.780	-0.280	-0.570	-0.420
2020/01/31 17:32:40.1	357.750	-0.250	-0.600	-0.410
2020/01/31 17:32:40.2	357.720	-0.220	-0.620	-0.390
2020/01/31 17:32:40.3	357.690	-0.190	-0.650	-0.380
2020/01/31 17:32:40.4	357.670	-0.150	-0.680	-0.360
2020/01/31 17:32:40.5	357.650	-0.110	-0.710	-0.350
2020/01/31 17:32:40.6	357.630	-0.070	-0.740	-0.340
2020/01/31 17:32:40.7	357.610	-0.030	-0.770	-0.320
2020/01/31 17:32:40.8	357.590	0.010	-0.800	-0.310
2020/01/31 17:32:40.9	357.570	0.050	-0.820	-0.300
2020/01/31 17:32:41.0	357.560	0.100	-0.850	-0.290
2020/01/31 17:32:41.1	357.560	0.140	-0.880	-0.290
2020/01/31 17:32:41.2	357.550	0.180	-0.900	-0.280
2020/01/31 17:32:41.3	357.550	0.220	-0.930	-0.270
2020/01/31 17:32:41.4	357.550	0.260	-0.950	-0.270
2020/01/31 17:32:41.5	357.550	0.300	-0.970	-0.270
2020/01/31 17:32:41.6	357.550	0.340	-0.990	-0.260
2020/01/31 17:32:41.7	357.560	0.370	-1.000	-0.260
2020/01/31 17:32:41.8	357.580	0.410	-1.020	-0.270
2020/01/31 17:32:41.9	357.590	0.430	-1.020	-0.270
2020/01/31 17:32:42.0	357.600	0.460	-1.030	-0.270
2020/01/31 17:32:42.1	357.620	0.480	-1.030	-0.270
2020/01/31 17:32:42.2	357.640	0.500	-1.030	-0.280
2020/01/31 17:32:42.3	357.660	0.510	-1.020	-0.290
2020/01/31 17:32:42.4	357.680	0.520	-1.010	-0.290
2020/01/31 17:32:42.5	357.700	0.530	-0.990	-0.300
2020/01/31 17:32:42.6	357.730	0.530	-0.970	-0.300
2020/01/31 17:32:42.7	357.760	0.520	-0.950	-0.310
2020/01/31 17:32:42.8	357.780	0.520	-0.920	-0.320
2020/01/31 17:32:42.9	357.810	0.500	-0.880	-0.330
2020/01/31 17:32:43.0	357.840	0.490	-0.840	-0.340
2020/01/31 17:32:43.1	357.880	0.470	-0.800	-0.350
2020/01/31 17:32:43.2	357.910	0.440	-0.760	-0.360
2020/01/31 17:32:43.3	357.950	0.410	-0.710	-0.370
2020/01/31 17:32:43.4	357.980	0.380	-0.660	-0.380
2020/01/31 17:32:43.5	358.020	0.340	-0.600	-0.390
2020/01/31 17:32:43.6	358.050	0.300	-0.550	-0.400
2020/01/31 17:32:43.7	358.090	0.260	-0.490	-0.410
2020/01/31 17:32:43.8	358.130	0.220	-0.430	-0.430
2020/01/31 17:32:43.9	358.160	0.170	-0.370	-0.440
2020/01/31 17:32:44.0	358.200	0.130	-0.310	-0.450
2020/01/31 17:32:44.1	358.230	0.080	-0.250	-0.460
2020/01/31 17:32:44.2	358.260	0.030	-0.180	-0.470
2020/01/31 17:32:44.3	358.290	-0.020	-0.120	-0.480
2020/01/31 17:32:44.4	358.320	-0.070	-0.060	-0.490
2020/01/31 17:32:44.5	358.350	-0.120	-0.000	-0.500
2020/01/31 17:32:44.6	358.380	-0.170	0.050	-0.500
2020/01/31 17:32:44.7	358.410	-0.220	0.110	-0.510
2020/01/31 17:32:44.8	358.430	-0.260	0.160	-0.510
2020/01/31 17:32:44.9	358.450	-0.310	0.210	-0.510
2020/01/31 17:32:45.0	358.470	-0.350	0.260	-0.500
2020/01/31 17:32:45.1	358.490	-0.390	0.310	-0.490
2020/01/31 17:32:45.2	358.500	-0.430	0.350	-0.480
2020/01/31 17:32:45.3	358.510	-0.460	0.390	-0.470
2020/01/31 17:32:45.4	358.510	-0.490	0.420	-0.460
2020/01/31 17:32:45.5	358.520	-0.520	0.450	-0.440
2020/01/31 17:32:45.6	358.510	-0.550	0.470	-0.420
2020/01/31 17:32:45.7	358.510	-0.570	0.490	-0.400
2020/01/31 17:32:45.8	358.520	-0.590	0.510	-0.370
2020/01/31 17:32:45.9	358.500	-0.600	0.520	-0.350
2020/01/31 17:32:46.0	358.490	-0.610	0.520	-0.330
2020/01/31 17:32:46.1	358.480	-0.620	0.520	-0.300
2020/01/31 17:32:46.2	358.460	-0.630	0.510	-0.280
2020/01/31 17:32:46.3	358.440	-0.630	0.500	-0.260
2020/01/31 17:32:46.4	358.420	-0.620	0.480	-0.240
2020/01/31 17:32:46.5	358.400	-0.620	0.450	-0.230
2020/01/31 17:32:46.6	358.380	-0.610	0.420	-0.210
2020/01/31 17:32:46.7	358.360	-0.590	0.380	-0.200
2020/01/31 17:32:46.8	358.330	-0.580	0.340	-0.190
2020/01/31 17:32:46.9	358.310	-0.560	0.290	-0.180
2020/01/31 17:32:47.0	358.280	-0.530	0.240	-0.170
2020/01/31 17:32:47.1	358.260	-0.510	0.180	-0.160
2020/01/31 17:32:47.2	358.240	-0.480	0.120	-0.160
2020/01/31 17:32:47.3	358.220	-0.440	0.060	-0.160
2020/01/31 17:32:47.4	358.200	-0.410	-0.000	-0.160
2020/01/31 17:32:47.5	358.180	-0.370	-0.070	-0.160
2020/01/31 17:32:47.6	358.160	-0.330	-0.140	-0.160
2020/01/31 17:32:47.7	358.140	-0.290	-0.200	-0.160
2020/01/31 17:32:47.8	358.120	-0.240	-0.270	-0.170
2020/01/31 17:32:47.9	358.100	-0.200	-0.340	-0.180
2020/01/31 17:32:48.0	358.090	-0.150	-0.400	-0.180
2020/01/31 17:32:48.1	358.070	-0.100	-0.460	-0.190
2020/01/31 17:32:48.2	358.060	-0.050	-0.520	-0.190
2020/01/31 17:32:48.3	358.040	0.000	-0.570	-0.200
2020/01/31 17:32:48.4	358.030	0.050	-0.620	-0.200
2020/01/31 17:32:48.5	358.010	0.100	-0.660	-0.210
2020/01/31 17:32:48.6	358.000	0.150	-0.700	-0.210
2020/01/31 17:32:48.7	357.980	0.200	-0.730	-0.210
2020/01/31 17:32:48.8	357.960	0.250	-0.750	-0.220
2020/01/31 17:32:48.9	357.940	0.290	-0.760	-0.220
2020/01/31 17:32:49.0	357.910	0.340	-0.770	-0.210
2020/01/31 17:32:49.1	357.890	0.380	-0.770	-0.210
2020/01/31 17:32:49.2	357.860	0.420	-0.760	-0.200
2020/01/31 17:32:49.3	357.830	0.460	-0.750	-0.200
2020/01/31 17:32:49.4	357.790	0.500	-0.720	-0.190
2020/01/31 17:32:49.5	357.760	0.530	-0.700	-0.180
2020/01/31 17:32:49.6	357.720	0.560	-0.660	-0.170
2020/01/31 17:32:49.7	357.680	0.580	-0.620	-0.150
2020/01/31 17:32:49.8	357.640	0.600	-0.570	-0.140
2020/01/31 17:32:49.9	357.590	0.620	-0.530	-0.130
2020/01/31 17:32:50.0	357.550	0.640	-0.470	-0.110
2020/01/31 17:32:50.1	357.510	0.650	-0.420	-0.100
2020/01/31 17:32:50.2	357.470	0.650	-0.360	-0.090
2020/01/31 17:32:50.3	357.440	0.660	-0.310	-0.080
2020/01/31 17:32:50.4	357.400	0.660	-0.250	-0.080
2020/01/31 17:32:50.5	357.360	0.650	-0.200	-0.070
2020/01/31 17:32:50.6	357.330	0.650	-0.150	-0.070
2020/01/31 17:32:50.7	357.300	0.630	-0.100	-0.070
2020/01/31 17:32:50.8	357.280	0.620	-0.050	-0.070
2020/01/31 17:32:50.9	357.260	0.610	-0.010	-0.070
2020/01/31 17:32:51.0	357.230	0.590	0.030	-0.080
2020/01/31 17:32:51.1	357.220	0.570	0.060	-0.090
2020/01/31 17:32:51.2	357.200	0.550	0.090	-0.100
2020/01/31 17:32:51.3	357.190	0.520	0.120	-0.110
2020/01/31 17:32:51.4	357.180	0.500	0.130	-0.120
2020/01/31 17:32:51.5	357.170	0.470	0.150	-0.140
2020/01/31 17:32:51.6	357.170	0.440	0.160	-0.150
2020/01/31 17:32:51.7	357.170	0.420	0.160	-0.170
2020/01/31 17:32:51.8	357.180	0.390	0.160	-0.190
2020/01/31 17:32:51.9	357.180	0.360	0.150	-0.210
2020/01/31 17:32:52.0	357.190	0.330	0.140	-0.230
2020/01/31 17:32:52.1	357.200	0.300	0.130	-0.260
2020/01/31 17:32:52.2	357.210	0.270	0.110	-0.280
2020/01/31 17:32:52.3	357.220	0.240	0.090	-0.300
2020/01/31 17:32:52.4	357.240	0.210	0.070	-0.330
2020/01/31 17:32:52.5	357.250	0.170	0.050	-0.350
2020/01/31 17:32:52.6	357.270	0.140	0.020	-0.380
2020/01/31 17:32:52.7	357.290	0.110	-0.000	-0.400
2020/01/31 17:32:52.8	357.310	0.080	-0.030	-0.430
2020/01/31 17:32:52.9	357.330	0.050	-0.060	-0.460
2020/01/31 17:32:53.0	357.360	0.020	-0.080	-0.490
2020/01/31 17:32:53.1	357.380	-0.010	-0.110	-0.510
2020/01/31 17:32:53.2	357.410	-0.050	-0.140	-0.540
2020/01/31 17:32:53.3	357.440	-0.080	-0.170	-0.570
2020/01/31 17:32:53.4	357.470	-0.110	-0.200	-0.600
2020/01/31 17:32:53.5	357.500	-0.130	-0.220	-0.630
2020/01/31 17:32:53.6	357.530	-0.160	-0.250	-0.650
2020/01/31 17:32:53.7	357.570	-0.190	-0.280	-0.680
2020/01/31 17:32:53.8	357.590	-0.210	-0.300	-0.710
2020/01/31 17:32:53.9	357.620	-0.240	-0.330	-0.740
2020/01/31 17:32:54.0	357.660	-0.260	-0.350	-0.770
2020/01/31 17:32:54.1	357.700	-0.290	-0.370	-0.790
2020/01/31 17:32:54.2	357.740	-0.310	-0.400	-0.820
2020/01/31 17:32:54.3	357.770	-0.330	-0.420	-0.840
2020/01/31 17:32:54.4	357.810	-0.350	-0.440	-0.870
2020/01/31 17:32:54.5	357.850	-0.360	-0.460	-0.890
2020/01/31 17:32:54.6	357.890	-0.380	-0.480	-0.910
2020/01/31 17:32:54.7	357.930	-0.390	-0.500	-0.930
2020/01/31 17:32:54.8	357.980	-0.400	-0.520	-0.950
2020/01/31 17:32:54.9	358.020	-0.420	-0.530	-0.970
2020/01/31 17:32:55.0	358.060	-0.420	-0.550	-0.990
2020/01/31 17:32:55.1	358.100	-0.430	-0.560	-1.010
2020/01/31 17:32:55.2	358.130	-0.440	-0.580	-1.020
2020/01/31 17:32:55.3	358.170	-0.440	-0.590	-1.040
2020/01/31 17:32:55.4	358.200	-0.450	-0.610	-1.050
2020/01/31 17:32:55.5	358.230	-0.450	-0.620	-1.060
2020/01/31 17:32:55.6	358.260	-0.450	-0.630	-1.070
2020/01/31 17:32:55.7	358.290	-0.450	-0.640	-1.070
2020/01/31 17:32:55.8	358.320	-0.450	-0.640	-1.070
2020/01/31 17:32:55.9	358.340	-0.440	-0.650	-1.070
2020/01/31 17:32:56.0	358.350	-0.440	-0.650	-1.060
2020/01/31 17:32:56.1	358.370	-0.430	-0.650	-1.060
2020/01/31 17:32:56.2	358.370	-0.430	-0.640	-1.040
2020/01/31 17:32:56.3	358.380	-0.420	-0.640	-1.030
2020/01/31 17:32:56.4	358.380	-0.420	-0.630	-1.010
2020/01/31 17:32:56.5	358.380	-0.410	-0.620	-0.990
2020/01/31 17:32:56.6	358.370	-0.400	-0.600	-0.970
2020/01/31 17:32:56.7	358.360	-0.390	-0.590	-0.950
2020/01/31 17:32:56.8	358.340	-0.380	-0.570	-0.920
2020/01/31 17:32:56.9	358.330	-0.370	-0.540	-0.890
2020/01/31 17:32:57.0	358.310	-0.360	-0.520	-0.870
2020/01/31 17:32:57.1	358.280	-0.350	-0.490	-0.840
2020/01/31 17:32:57.2	358.260	-0.340	-0.460	-0.810
2020/01/31 17:32:57.3	358.230	-0.330	-0.430	-0.780
2020/01/31 17:32:57.4	358.200	-0.310	-0.400	-0.750
2020/01/31 17:32:57.5	358.170	-0.300	-0.370	-0.720
2020/01/31 17:32:57.6	358.140	-0.280	-0.330	-0.680
2020/01/31 17:32:57.7	358.100	-0.260	-0.300	-0.650
2020/01/31 17:32:57.8	358.070	-0.240	-0.260	-0.620
2020/01/31 17:32:57.9	358.030	-0.220	-0.230	-0.580
2020/01/31 17:32:58.0	358.000	-0.200	-0.190	-0.540
2020/01/31 17:32:58.1	357.960	-0.180	-0.150	-0.500
2020/01/31 17:32:58.2	357.920	-0.160	-0.120	-0.460
2020/01/31 17:32:58.3	357.890	-0.130	-0.080	-0.420
2020/01/31 17:32:58.4	357.850	-0.100	-0.050	-0.380
2020/01/31 17:32:58.5	357.820	-0.070	-0.020	-0.340
2020/01/31 17:32:58.6	357.780	-0.040	0.010	-0.300
2020/01/31 17:32:58.7	357.750	-0.010	0.040	-0.260
2020/01/31 17:32:58.8	357.710	0.020	0.070	-0.210
2020/01/31 17:32:58.9	357.680	0.050	0.090	-0.170
2020/01/31 17:32:59.0	357.650	0.090	0.110	-0.120
2020/01/31 17:32:59.1	357.620	0.120	0.130	-0.080
2020/01/31 17:32:59.2	357.590	0.160	0.140	-0.030
2020/01/31 17:32:59.3	357.560	0.200	0.150	0.010
2020/01/31 17:32:59.4	357.530	0.230	0.160	0.050
2020/01/31 17:32:59.5	357.500	0.270	0.160	0.090
2020/01/31 17:32:59.6	357.480	0.310	0.170	0.130
2020/01/31 17:32:59.7	357.450	0.340	0.170	0.170
2020/01/31 17:32:59.8	357.410	0.380	0.160	0.200
2020/01/31 17:32:59.9	357.380	0.410	0.150	0.240
2020/01/31 17:33:00.0	357.350	0.440	0.150	0.270
2020/01/31 17:33:00.1	357.330	0.470	0.130	0.290
2020/01/31 17:33:00.2	357.300	0.490	0.120	0.320
2020/01/31 17:33:00.3	357.280	0.520	0.110	0.340
2020/01/31 17:33:00.4	357.250	0.540	0.090	0.350
2020/01/31 17:33:00.5	357.230	0.560	0.070	0.360
2020/01/31 17:33:00.6	357.210	0.570	0.050	0.370
2020/01/31 17:33:00.7	357.190	0.580	0.030	0.380
2020/01/31 17:33:00.8	357.160	0.590	0.000	0.380
2020/01/31 17:33:00.9	357.140	0.590	-0.020	0.370
2020/01/31 17:33:01.0	357.120	0.590	-0.050	0.370
2020/01/31 17:33:01.1	357.110	0.590	-0.070	0.360
2020/01/31 17:33:01.2	357.100	0.580	-0.100	0.350
2020/01/31 17:33:01.3	357.090	0.570	-0.130	0.330
2020/01/31 17:33:01.4	357.080	0.560	-0.150	0.320
2020/01/31 17:33:01.5	357.070	0.540	-0.180	0.300
2020/01/31 17:33:01.6	357.070	0.520	-0.210	0.280
2020/01/31 17:33:01.7	357.070	0.500	-0.230	0.260
2020/01/31 17:33:01.8	357.070	0.470	-0.260	0.230
2020/01/31 17:33:01.9	357.070	0.440	-0.290	0.200
2020/01/31 17:33:02.0	357.070	0.410	-0.310	0.180
2020/01/31 17:33:02.1	357.070	0.380	-0.330	0.150
2020/01/31 17:33:02.2	357.070	0.350	-0.350	0.120
2020/01/31 17:33:02.3	357.070	0.310	-0.370	0.090
2020/01/31 17:33:02.4	357.070	0.280	-0.390	0.060
2020/01/31 17:33:02.5	357.070	0.240	-0.410	0.030
2020/01/31 17:33:02.6	357.070	0.200	-0.420	-0.000
2020/01/31 17:33:02.7	357.070	0.160	-0.440	-0.040
2020/01/31 17:33:02.8	357.070	0.120	-0.450	-0.070
2020/01/31 17:33:02.9	357.070	0.080	-0.460	-0.110
2020/01/31 17:33:03.0	357.070	0.050	-0.470	-0.150
2020/01/31 17:33:03.1	357.080	0.010	-0.480	-0.190
2020/01/31 17:33:03.2	357.080	-0.020	-0.500	-0.220
2020/01/31 17:33:03.3	357.080	-0.060	-0.510	-0.260
2020/01/31 17:33:03.4	357.090	-0.090	-0.520	-0.300
2020/01/31 17:33:03.5	357.100	-0.120	-0.530	-0.350
2020/01/31 17:33:03.6	357.100	-0.150	-0.540	-0.390
2020/01/31 17:33:03.7	357.110	-0.170	-0.550	-0.430
2020/01/31 17:33:03.8	357.120	-0.190	-0.560	-0.470
2020/01/31 17:33:03.9	357.140	-0.210	-0.570	-0.510
2020/01/31 17:33:04.0	357.160	-0.220	-0.580	-0.550
2020/01/31 17:33:04.1	357.180	-0.240	-0.590	-0.590
2020/01/31 17:33:04.2	357.200	-0.240	-0.600	-0.630
2020/01/31 17:33:04.3	357.220	-0.250	-0.620	-0.670
2020/01/31 17:33:04.4	357.250	-0.250	-0.630	-0.700
2020/01/31 17:33:04.5	357.280	-0.250	-0.650	-0.740
2020/01/31 17:33:04.6	357.310	-0.240	-0.660	-0.770
2020/01/31 17:33:04.7	357.340	-0.240	-0.670	-0.800
2020/01/31 17:33:04.8	357.370	-0.230	-0.690	-0.820
2020/01/31 17:33:04.9	357.400	-0.210	-0.700	-0.850
2020/01/31 17:33:05.0	357.430	-0.200	-0.710	-0.860
2020/01/31 17:33:05.1	357.460	-0.180	-0.720	-0.880
2020/01/31 17:33:05.2	357.480	-0.170	-0.720	-0.890
2020/01/31 17:33:05.3	357.510	-0.150	-0.720	-0.900
2020/01/31 17:33:05.4	357.530	-0.130	-0.710	-0.900
2020/01/31 17:33:05.5	357.560	-0.110	-0.700	-0.900
2020/01/31 17:33:05.6	357.580	-0.090	-0.690	-0.900
2020/01/31 17:33:05.7	357.600	-0.080	-0.670	-0.900
2020/01/31 17:33:05.8	357.600	-0.060	-0.640	-0.890
2020/01/31 17:33:05.9	357.620	-0.040	-0.610	-0.870
2020/01/31 17:33:06.0	357.630	-0.030	-0.570	-0.860
2020/01/31 17:33:06.1	357.640	-0.020	-0.530	-0.840
2020/01/31 17:33:06.2	357.640	-0.010	-0.480	-0.810
2020/01/31 17:33:06.3	357.650	-0.000	-0.430	-0.790
2020/01/31 17:33:06.4	357.650	0.010	-0.370	-0.760
2020/01/31 17:33:06.5	357.650	0.010	-0.300	-0.730
2020/01/31 17:33:06.6	357.640	0.010	-0.240	-0.690
2020/01/31 17:33:06.7	357.640	0.000	-0.170	-0.650
2020/01/31 17:33:06.8	357.640	-0.000	-0.100	-0.610
2020/01/31 17:33:06.9	357.630	-0.010	-0.030	-0.570
2020/01/31 17:33:07.0	357.620	-0.020	0.050	-0.530
2020/01/31 17:33:07.1	357.600	-0.040	0.120	-0.480
2020/01/31 17:33:07.2	357.580	-0.050	0.190	-0.430
2020/01/31 17:33:07.3	357.570	-0.070	0.270	-0.390
2020/01/31 17:33:07.4	357.540	-0.100	0.340	-0.340
2020/01/31 17:33:07.5	357.520	-0.120	0.400	-0.290
2020/01/31 17:33:07.6	357.490	-0.150	0.470	-0.250
2020/01/31 17:33:07.7	357.470	-0.180	0.530	-0.200
2020/01/31 17:33:07.8	357.440	-0.210	0.580	-0.160
2020/01/31 17:33:07.9	357.410	-0.240	0.630	-0.120
2020/01/31 17:33:08.0	357.380	-0.270	0.680	-0.080
2020/01/31 17:33:08.1	357.350	-0.300	0.720	-0.050
2020/01/31 17:33:08.2	357.320	-0.330	0.750	-0.020
2020/01/31 17:33:08.3	357.290	-0.360	0.770	0.010
2020/01/31 17:33:08.4	357.270	-0.380	0.790	0.030
2020/01/31 17:33:08.5	357.240	-0.410	0.790	0.050
2020/01/31 17:33:08.6	357.210	-0.430	0.790	0.060
2020/01/31 17:33:08.7	357.190	-0.450	0.790	0.070
2020/01/31 17:33:08.8	357.170	-0.470	0.780	0.080
2020/01/31 17:33:08.9	357.150	-0.480	0.750	0.080
2020/01/31 17:33:09.0	357.130	-0.490	0.720	0.080
2020/01/31 17:33:09.1	357.110	-0.490	0.680	0.080
2020/01/31 17:33:09.2	357.100	-0.490	0.630	0.080
2020/01/31 17:33:09.3	357.080	-0.480	0.580	0.070
2020/01/31 17:33:09.4	357.070	-0.470	0.520	0.060
2020/01/31 17:33:09.5	357.060	-0.450	0.460	0.050
2020/01/31 17:33:09.6	357.040	-0.430	0.390	0.040
2020/01/31 17:33:09.7	357.030	-0.410	0.310	0.030
2020/01/31 17:33:09.8	357.020	-0.380	0.230	0.030
2020/01/31 17:33:09.9	357.010	-0.340	0.150	0.020
2020/01/31 17:33:10.0	357.000	-0.310	0.070	0.010
2020/01/31 17:33:10.1	356.980	-0.260	-0.020	0.000
2020/01/31 17:33:10.2	356.970	-0.220	-0.100	-0.010
2020/01/31 17:33:10.3	356.960	-0.180	-0.190	-0.020
2020/01/31 17:33:10.4	356.950	-0.130	-0.280	-0.030
2020/01/31 17:33:10.5	356.940	-0.080	-0.360	-0.030
2020/01/31 17:33:10.6	356.930	-0.030	-0.450	-0.040
2020/01/31 17:33:10.7	356.920	0.020	-0.530	-0.050
2020/01/31 17:33:10.8	356.900	0.070	-0.610	-0.060
2020/01/31 17:33:10.9	356.890	0.120	-0.690	-0.070
2020/01/31 17:33:11.0	356.880	0.160	-0.770	-0.080
2020/01/31 17:33:11.1	356.870	0.210	-0.840	-0.090
2020/01/31 17:33:11.2	356.860	0.260	-0.910	-0.090
2020/01/31 17:33:11.3	356.850	0.300	-0.970	-0.100
2020/01/31 17:33:11.4	356.840	0.340	-1.030	-0.110
2020/01/31 17:33:11.5	356.830	0.380	-1.090	-0.120
2020/01/31 17:33:11.6	356.820	0.410	-1.130	-0.120
2020/01/31 17:33:11.7	356.820	0.450	-1.180	-0.130
2020/01/31 17:33:11.8	356.810	0.480	-1.220	-0.140
2020/01/31 17:33:11.9	356.800	0.500	-1.250	-0.150
2020/01/31 17:33:12.0	356.790	0.530	-1.270	-0.150
2020/01/31 17:33:12.1	356.790	0.550	-1.290	-0.160
2020/01/31 17:33:12.2	356.780	0.560	-1.300	-0.160
2020/01/31 17:33:12.3	356.780	0.570	-1.310	-0.160
2020/01/31 17:33:12.4	356.770	0.580	-1.310	-0.170
2020/01/31 17:33:12.5	356.770	0.590	-1.300	-0.170
2020/01/31 17:33:12.6	356.760	0.590	-1.280	-0.170
2020/01/31 17:33:12.7	356.760	0.590	-1.260	-0.170
2020/01/31 17:33:12.8	356.760	0.590	-1.240	-0.170
2020/01/31 17:33:12.9	356.760	0.580	-1.200	-0.170
2020/01/31 17:33:13.0	356.760	0.570	-1.170	-0.170
2020/01/31 17:33:13.1	356.760	0.560	-1.130	-0.180
2020/01/31 17:33:13.2	356.760	0.550	-1.080	-0.180
2020/01/31 17:33:13.3	356.770	0.540	-1.040	-0.190
2020/01/31 17:33:13.4	356.780	0.520	-0.990	-0.190
2020/01/31 17:33:13.5	356.790	0.500	-0.940	-0.200
2020/01/31 17:33:13.6	356.800	0.480	-0.890	-0.210
2020/01/31 17:33:13.7	356.820	0.460	-0.840	-0.220
2020/01/31 17:33:13.8	356.820	0.440	-0.790	-0.240
2020/01/31 17:33:13.9	356.840	0.420	-0.740	-0.250
2020/01/31 17:33:14.0	356.870	0.400	-0.690	-0.270
2020/01/31 17:33:14.1	356.890	0.380	-0.640	-0.290
2020/01/31 17:33:14.2	356.920	0.360	-0.600	-0.310
2020/01/31 17:33:14.3	356.940	0.340	-0.560	-0.330
2020/01/31 17:33:14.4	356.970	0.320	-0.520	-0.360
2020/01/31 17:33:14.5	357.000	0.300	-0.480	-0.380
2020/01/31 17:33:14.6	357.030	0.280	-0.440	-0.410
2020/01/31 17:33:14.7	357.060	0.260	-0.410	-0.430
2020/01/31 17:33:14.8	357.080	0.250	-0.370	-0.460
2020/01/31 17:33:14.9	357.110	0.230	-0.340	-0.480
2020/01/31 17:33:15.0	357.140	0.210	-0.310	-0.510
2020/01/31 17:33:15.1	357.170	0.190	-0.280	-0.540
2020/01/31 17:33:15.2	357.190	0.180	-0.250	-0.560
2020/01/31 17:33:15.3	357.220	0.160	-0.230	-0.590
2020/01/31 17:33:15.4	357.250	0.140	-0.200	-0.610
2020/01/31 17:33:15.5	357.270	0.130	-0.170	-0.630
2020/01/31 17:33:15.6	357.290	0.110	-0.140	-0.660
2020/01/31 17:33:15.7	357.310	0.090	-0.110	-0.680
2020/01/31 17:33:15.8	357.340	0.080	-0.070	-0.700
2020/01/31 17:33:15.9	357.360	0.060	-0.040	-0.720
2020/01/31 17:33:16.0	357.370	0.040	-0.010	-0.730
2020/01/31 17:33:16.1	357.390	0.020	0.030	-0.750
2020/01/31 17:33:16.2	357.400	-0.000	0.060	-0.760
2020/01/31 17:33:16.3	357.410	-0.020	0.100	-0.770
2020/01/31 17:33:16.4	357.410	-0.050	0.140	-0.780
2020/01/31 17:33:16.5	357.410	-0.070	0.180	-0.780
2020/01/31 17:33:16.6	357.410	-0.100	0.220	-0.780
2020/01/31 17:33:16.7	357.410	-0.120	0.260	-0.770
2020/01/31 17:33:16.8	357.400	-0.150	0.300	-0.770
2020/01/31 17:33:16.9	357.390	-0.180	0.340	-0.750
2020/01/31 17:33:17.0	357.380	-0.210	0.380	-0.730
2020/01/31 17:33:17.1	357.360	-0.230	0.420	-0.710
2020/01/31 17:33:17.2	357.340	-0.260	0.460	-0.690
2020/01/31 17:33:17.3	357.320	-0.290	0.500	-0.660
2020/01/31 17:33:17.4	357.300	-0.320	0.540	-0.620
2020/01/31 17:33:17.5	357.270	-0.350	0.570	-0.590
2020/01/31 17:33:17.6	357.250	-0.380	0.610	-0.550
2020/01/31 17:33:17.7	357.220	-0.410	0.640	-0.510
2020/01/31 17:33:17.8	357.190	-0.440	0.660	-0.470
2020/01/31 17:33:17.9	357.160	-0.470	0.690	-0.420
2020/01/31 17:33:18.0	357.130	-0.490	0.710	-0.380
2020/01/31 17:33:18.1	357.100	-0.520	0.720	-0.330
2020/01/31 17:33:18.2	357.060	-0.540	0.740	-0.290
2020/01/31 17:33:18.3	357.030	-0.560	0.740	-0.250
2020/01/31 17:33:18.4	357.000	-0.580	0.740	-0.200
2020/01/31 17:33:18.5	356.960	-0.590	0.740	-0.160
2020/01/31 17:33:18.6	356.930	-0.610	0.730	-0.120
2020/01/31 17:33:18.7	356.890	-0.620	0.720	-0.080
2020/01/31 17:33:18.8	356.850	-0.630	0.710	-0.050
2020/01/31 17:33:18.9	356.820	-0.630	0.690	-0.010
2020/01/31 17:33:19.0	356.780	-0.630	0.660	0.020
2020/01/31 17:33:19.1	356.750	-0.630	0.630	0.060
2020/01/31 17:33:19.2	356.720	-0.620	0.600	0.090
2020/01/31 17:33:19.3	356.680	-0.610	0.560	0.120
2020/01/31 17:33:19.4	356.650	-0.590	0.520	0.140
2020/01/31 17:33:19.5	356.620	-0.570	0.480	0.170
2020/01/31 17:33:19.6	356.590	-0.550	0.430	0.190
2020/01/31 17:33:19.7	356.560	-0.520	0.390	0.220
2020/01/31 17:33:19.8	356.530	-0.490	0.340	0.240
2020/01/31 17:33:19.9	356.500	-0.460	0.290	0.260
2020/01/31 17:33:20.0	356.470	-0.430	0.230	0.270
2020/01/31 17:33:20.1	356.450	-0.390	0.180	0.290
2020/01/31 17:33:20.2	356.420	-0.350	0.120	0.300
2020/01/31 17:33:20.3	356.400	-0.310	0.070	0.310
2020/01/31 17:33:20.4	356.380	-0.270	0.010	0.320
2020/01/31 17:33:20.5	356.360	-0.220	-0.050	0.330
2020/01/31 17:33:20.6	356.340	-0.180	-0.110	0.340
2020/01/31 17:33:20.7	356.320	-0.130	-0.170	0.340
2020/01/31 17:33:20.8	356.310	-0.090	-0.230	0.340
2020/01/31 17:33:20.9	356.290	-0.050	-0.290	0.340
2020/01/31 17:33:21.0	356.280	-0.000	-0.350	0.330
2020/01/31 17:33:21.1	356.260	0.040	-0.410	0.330
2020/01/31 17:33:21.2	356.250	0.080	-0.470	0.320
2020/01/31 17:33:21.3	356.240	0.120	-0.520	0.300
2020/01/31 17:33:21.4	356.240	0.150	-0.580	0.290
2020/01/31 17:33:21.5	356.230	0.190	-0.640	0.270
2020/01/31 17:33:21.6	356.230	0.220	-0.690	0.250
2020/01/31 17:33:21.7	356.230	0.250	-0.740	0.230
2020/01/31 17:33:21.8	356.240	0.270	-0.800	0.200
2020/01/31 17:33:21.9	356.240	0.300	-0.850	0.180
2020/01/31 17:33:22.0	356.250	0.320	-0.890	0.150
2020/01/31 17:33:22.1	356.260	0.330	-0.940	0.120
2020/01/31 17:33:22.2	356.270	0.350	-0.980	0.080
2020/01/31 17:33:22.3	356.290	0.360	-1.020	0.050
2020/01/31 17:33:22.4	356.310	0.370	-1.060	0.010
2020/01/31 17:33:22.5	356.330	0.380	-1.100	-0.030
2020/01/31 17:33:22.6	356.360	0.380	-1.130	-0.070
2020/01/31 17:33:22.7	356.380	0.390	-1.160	-0.120
2020/01/31 17:33:22.8	356.430	0.390	-1.190	-0.160
2020/01/31 17:33:22.9	356.470	0.380	-1.220	-0.200
2020/01/31 17:33:23.0	356.500	0.380	-1.240	-0.250
2020/01/31 17:33:23.1	356.540	0.380	-1.260	-0.290
2020/01/31 17:33:23.2	356.580	0.370	-1.270	-0.340
2020/01/31 17:33:23.3	356.620	0.360	-1.280	-0.380
2020/01/31 17:33:23.4	356.670	0.350	-1.290	-0.430
2020/01/31 17:33:23.5	356.710	0.340	-1.290	-0.470
2020/01/31 17:33:23.6	356.760	0.330	-1.290	-0.510
2020/01/31 17:33:23.7	356.810	0.320	-1.290	-0.550
2020/01/31 17:33:23.8	356.860	0.310	-1.280	-0.600
2020/01/31 17:33:23.9	356.900	0.300	-1.270	-0.630
2020/01/31 17:33:24.0	356.950	0.290	-1.250	-0.670
2020/01/31 17:33:24.1	357.000	0.280	-1.240	-0.700
2020/01/31 17:33:24.2	357.050	0.270	-1.210	-0.730
2020/01/31 17:33:24.3	357.090	0.260	-1.190	-0.760
2020/01/31 17:33:24.4	357.140	0.250	-1.160	-0.780
2020/01/31 17:33:24.5	357.180	0.240	-1.130	-0.800
2020/01/31 17:33:24.6	357.230	0.230	-1.090	-0.820
2020/01/31 17:33:24.7	357.270	0.220	-1.050	-0.840
2020/01/31 17:33:24.8	357.300	0.210	-1.000	-0.850
2020/01/31 17:33:24.9	357.340	0.190	-0.960	-0.870
2020/01/31 17:33:25.0	357.370	0.180	-0.900	-0.880
2020/01/31 17:33:25.1	357.400	0.170	-0.850	-0.880
2020/01/31 17:33:25.2	357.430	0.160	-0.790	-0.890
2020/01/31 17:33:25.3	357.460	0.150	-0.730	-0.890
2020/01/31 17:33:25.4	357.480	0.140	-0.670	-0.890
2020/01/31 17:33:25.5	357.500	0.130	-0.600	-0.890
2020/01/31 17:33:25.6	357.520	0.110	-0.530	-0.890
2020/01/31 17:33:25.7	357.530	0.100	-0.460	-0.880
2020/01/31 17:33:25.8	357.540	0.090	-0.390	-0.880
2020/01/31 17:33:25.9	357.550	0.070	-0.320	-0.870
2020/01/31 17:33:26.0	357.560	0.060	-0.250	-0.860
2020/01/31 17:33:26.1	357.560	0.050	-0.180	-0.840
2020/01/31 17:33:26.2	357.560	0.030	-0.100	-0.820
2020/01/31 17:33:26.3	357.560	0.020	-0.030	-0.800
2020/01/31 17:33:26.4	357.560	0.010	0.040	-0.780
2020/01/31 17:33:26.5	357.560	-0.010	0.110	-0.760
2020/01/31 17:33:26.6	357.550	-0.020	0.170	-0.730
2020/01/31 17:33:26.7	357.540	-0.030	0.240	-0.700
2020/01/31 17:33:26.8	357.530	-0.050	0.300	-0.670
2020/01/31 17:33:26.9	357.520	-0.060	0.350	-0.640
2020/01/31 17:33:27.0	357.510	-0.070	0.410	-0.600
2020/01/31 17:33:27.1	357.490	-0.080	0.460	-0.570
2020/01/31 17:33:27.2	357.480	-0.090	0.500	-0.530
2020/01/31 17:33:27.3	357.460	-0.100	0.540	-0.500
2020/01/31 17:33:27.4	357.440	-0.110	0.580	-0.460
2020/01/31 17:33:27.5	357.420	-0.110	0.610	-0.420
2020/01/31 17:33:27.6	357.400	-0.120	0.640	-0.390
2020/01/31 17:33:27.7	357.380	-0.120	0.660	-0.350
2020/01/31 17:33:27.8	357.370	-0.120	0.680	-0.320
2020/01/31 17:33:27.9	357.350	-0.120	0.690	-0.280
2020/01/31 17:33:28.0	357.330	-0.120	0.690	-0.240
2020/01/31 17:33:28.1	357.310	-0.120	0.690	-0.210
2020/01/31 17:33:28.2	357.290	-0.110	0.690	-0.180
2020/01/31 17:33:28.3	357.270	-0.100	0.680	-0.140
2020/01/31 17:33:28.4	357.240	-0.090	0.660	-0.110
2020/01/31 17:33:28.5	357.220	-0.080	0.640	-0.080
2020/01/31 17:33:28.6	357.200	-0.060	0.620	-0.050
2020/01/31 17:33:28.7	357.180	-0.040	0.590	-0.020
2020/01/31 17:33:28.8	357.160	-0.020	0.560	0.010
2020/01/31 17:33:28.9	357.130	-0.000	0.530	0.030
2020/01/31 17:33:29.0	357.110	0.020	0.500	0.060
2020/01/31 17:33:29.1	357.090	0.040	0.460	0.080
2020/01/31 17:33:29.2	357.070	0.070	0.420	0.110
2020/01/31 17:33:29.3	357.050	0.090	0.370	0.130
2020/01/31 17:33:29.4	357.020	0.110	0.330	0.150
2020/01/31 17:33:29.5	357.010	0.140	0.280	0.160
2020/01/31 17:33:29.6	356.990	0.160	0.230	0.170
2020/01/31 17:33:29.7	356.970	0.190	0.180	0.180
2020/01/31 17:33:29.8	356.950	0.210	0.130	0.190
2020/01/31 17:33:29.9	356.940	0.230	0.070	0.190
2020/01/31 17:33:30.0	356.920	0.250	0.020	0.190
2020/01/31 17:33:30.1	356.910	0.270	-0.030	0.180
2020/01/31 17:33:30.2	356.900	0.280	-0.090	0.170
2020/01/31 17:33:30.3	356.890	0.290	-0.140	0.160
2020/01/31 17:33:30.4	356.890	0.300	-0.190	0.150
2020/01/31 17:33:30.5	356.880	0.310	-0.240	0.130
2020/01/31 17:33:30.6	356.870	0.310	-0.280	0.120
2020/01/31 17:33:30.7	356.860	0.300	-0.330	0.100
2020/01/31 17:33:30.8	356.870	0.300	-0.370	0.080
2020/01/31 17:33:30.9	356.870	0.290	-0.410	0.050
2020/01/31 17:33:31.0	356.850	0.270	-0.450	0.030
2020/01/31 17:33:31.1	356.840	0.250	-0.480	0.000
2020/01/31 17:33:31.2	356.830	0.220	-0.500	-0.030
2020/01/31 17:33:31.3	356.820	0.200	-0.520	-0.060
2020/01/31 17:33:31.4	356.810	0.160	-0.540	-0.090
2020/01/31 17:33:31.5	356.800	0.130	-0.550	-0.130
2020/01/31 17:33:31.6	356.790	0.080	-0.560	-0.170
2020/01/31 17:33:31.7	356.780	0.040	-0.570	-0.210
2020/01/31 17:33:31.8	356.750	-0.010	-0.570	-0.250
2020/01/31 17:33:31.9	356.740	-0.060	-0.560	-0.300
2020/01/31 17:33:32.0	356.730	-0.120	-0.560	-0.340
2020/01/31 17:33:32.1	356.720	-0.170	-0.550	-0.390
2020/01/31 17:33:32.2	356.720	-0.230	-0.540	-0.430
2020/01/31 17:33:32.3	356.710	-0.290	-0.520	-0.480
2020/01/31 17:33:32.4	356.700	-0.350	-0.510	-0.520
2020/01/31 17:33:32.5	356.690	-0.410	-0.490	-0.570
2020/01/31 17:33:32.6	356.680	-0.470	-0.470	-0.610
2020/01/31 17:33:32.7	356.680	-0.530	-0.460	-0.660
2020/01/31 17:33:32.8	356.680	-0.580	-0.440	-0.700
2020/01/31 17:33:32.9	356.670	-0.640	-0.420	-0.750
2020/01/31 17:33:33.0	356.670	-0.690	-0.400	-0.790
2020/01/31 17:33:33.1	356.670	-0.740	-0.390	-0.830
2020/01/31 17:33:33.2	356.670	-0.780	-0.370	-0.860
2020/01/31 17:33:33.3	356.670	-0.820	-0.360	-0.900
2020/01/31 17:33:33.4	356.670	-0.860	-0.350	-0.930
2020/01/31 17:33:33.5	356.680	-0.890	-0.340	-0.970
2020/01/31 17:33:33.6	356.680	-0.910	-0.340	-0.990
2020/01/31 17:33:33.7	356.690	-0.930	-0.330	-1.020
2020/01/31 17:33:33.8	356.700	-0.940	-0.330	-1.050
2020/01/31 17:33:33.9	356.710	-0.950	-0.340	-1.080
2020/01/31 17:33:34.0	356.730	-0.940	-0.350	-1.100
2020/01/31 17:33:34.1	356.750	-0.930	-0.360	-1.120
2020/01/31 17:33:34.2	356.770	-0.920	-0.370	-1.130
2020/01/31 17:33:34.3	356.790	-0.890	-0.390	-1.150
2020/01/31 17:33:34.4	356.810	-0.860	-0.410	-1.160
2020/01/31 17:33:34.5	356.840	-0.820	-0.430	-1.170
2020/01/31 17:33:34.6	356.870	-0.770	-0.460	-1.180
2020/01/31 17:33:34.7	356.900	-0.720	-0.490	-1.190
2020/01/31 17:33:34.8	356.930	-0.660	-0.520	-1.190
2020/01/31 17:33:34.9	356.970	-0.590	-0.550	-1.190
2020/01/31 17:33:35.0	357.010	-0.520	-0.580	-1.180
2020/01/31 17:33:35.1	357.040	-0.440	-0.610	-1.180
2020/01/31 17:33:35.2	357.080	-0.360	-0.650	-1.170
2020/01/31 17:33:35.3	357.120	-0.280	-0.680	-1.160
2020/01/31 17:33:35.4	357.160	-0.190	-0.700	-1.140
2020/01/31 17:33:35.5	357.200	-0.100	-0.730	-1.120
2020/01/31 17:33:35.6	357.240	-0.010	-0.750	-1.090
2020/01/31 17:33:35.7	357.270	0.080	-0.770	-1.060
2020/01/31 17:33:35.8	357.300	0.170	-0.780	-1.030
2020/01/31 17:33:35.9	357.330	0.250	-0.790	-0.990
2020/01/31 17:33:36.0	357.360	0.340	-0.790	-0.950
2020/01/31 17:33:36.1	357.380	0.420	-0.790	-0.900
2020/01/31 17:33:36.2	357.400	0.500	-0.770	-0.850
2020/01/31 17:33:36.3	357.420	0.570	-0.760	-0.800
2020/01/31 17:33:36.4	357.430	0.640	-0.730	-0.740
2020/01/31 17:33:36.5	357.430	0.700	-0.700	-0.670
2020/01/31 17:33:36.6	357.440	0.750	-0.670	-0.610
2020/01/31 17:33:36.7	357.440	0.800	-0.630	-0.540
2020/01/31 17:33:36.8	357.440	0.840	-0.580	-0.470
2020/01/31 17:33:36.9	357.430	0.880	-0.530	-0.400
2020/01/31 17:33:37.0	357.420	0.900	-0.470	-0.320
2020/01/31 17:33:37.1	357.410	0.920	-0.420	-0.250
2020/01/31 17:33:37.2	357.390	0.940	-0.360	-0.180
2020/01/31 17:33:37.3	357.380	0.940	-0.290	-0.110
2020/01/31 17:33:37.4	357.360	0.940	-0.230	-0.040
2020/01/31 17:33:37.5	357.340	0.930	-0.170	0.030
2020/01/31 17:33:37.6	357.320	0.910	-0.110	0.100
2020/01/31 17:33:37.7	357.300	0.890	-0.050	0.160
2020/01/31 17:33:37.8	357.270	0.860	0.010	0.230
2020/01/31 17:33:37.9	357.250	0.830	0.070	0.280
2020/01/31 17:33:38.0	357.230	0.790	0.120	0.340
2020/01/31 17:33:38.1	357.200	0.750	0.170	0.390
2020/01/31 17:33:38.2	357.180	0.710	0.220	0.430
2020/01/31 17:33:38.3	357.160	0.660	0.260	0.470
2020/01/31 17:33:38.4	357.140	0.610	0.290	0.500
2020/01/31 17:33:38.5	357.120	0.560	0.320	0.530
2020/01/31 17:33:38.6	357.090	0.510	0.350	0.560
2020/01/31 17:33:38.7	357.070	0.460	0.370	0.580
2020/01/31 17:33:38.8	357.050	0.410	0.380	0.590
2020/01/31 17:33:38.9	357.030	0.360	0.390	0.600
2020/01/31 17:33:39.0	357.000	0.310	0.400	0.610
2020/01/31 17:33:39.1	356.980	0.260	0.400	0.620
2020/01/31 17:33:39.2	356.950	0.220	0.390	0.620
2020/01/31 17:33:39.3	356.930	0.180	0.380	0.620
2020/01/31 17:33:39.4	356.900	0.140	0.360	0.620
2020/01/31 17:33:39.5	356.870	0.110	0.340	0.610
2020/01/31 17:33:39.6	356.850	0.080	0.320	0.610
2020/01/31 17:33:39.7	356.820	0.050	0.290	0.590
2020/01/31 17:33:39.8	356.790	0.030	0.260	0.580
2020/01/31 17:33:39.9	356.760	0.010	0.220	0.560
2020/01/31 17:33:40.0	356.740	-0.000	0.170	0.530
2020/01/31 17:33:40.1	356.720	-0.020	0.120	0.510
2020/01/31 17:33:40.2	356.700	-0.020	0.070	0.480
2020/01/31 17:33:40.3	356.680	-0.030	0.010	0.440
2020/01/31 17:33:40.4	356.670	-0.020	-0.050	0.410
2020/01/31 17:33:40.5	356.650	-0.020	-0.110	0.370
2020/01/31 17:33:40.6	356.640	-0.010	-0.180	0.320
2020/01/31 17:33:40.7	356.640	-0.000	-0.250	0.280
2020/01/31 17:33:40.8	356.630	0.010	-0.320	0.220
2020/01/31 17:33:40.9	356.630	0.020	-0.390	0.170
2020/01/31 17:33:41.0	356.620	0.030	-0.460	0.120
2020/01/31 17:33:41.1	356.620	0.050	-0.530	0.060
2020/01/31 17:33:41.2	356.620	0.060	-0.600	0.000
2020/01/31 17:33:41.3	356.620	0.080	-0.660	-0.060
2020/01/31 17:33:41.4	356.620	0.090	-0.720	-0.120
2020/01/31 17:33:41.5	356.620	0.110	-0.780	-0.180
2020/01/31 17:33:41.6	356.620	0.120	-0.830	-0.250
2020/01/31 17:33:41.7	356.620	0.130	-0.870	-0.310
2020/01/31 17:33:41.8	356.620	0.140	-0.910	-0.380
2020/01/31 17:33:41.9	356.630	0.140	-0.950	-0.440
2020/01/31 17:33:42.0	356.640	0.150	-0.970	-0.510
2020/01/31 17:33:42.1	356.650	0.150	-0.990	-0.570
2020/01/31 17:33:42.2	356.660	0.140	-1.000	-0.630
2020/01/31 17:33:42.3	356.670	0.130	-1.010	-0.690
2020/01/31 17:33:42.4	356.680	0.120	-1.010	-0.750
2020/01/31 17:33:42.5	356.700	0.110	-0.990	-0.810
2020/01/31 17:33:42.6	356.710	0.090	-0.980	-0.860
2020/01/31 17:33:42.7	356.730	0.060	-0.950	-0.910
2020/01/31 17:33:42.8	356.740	0.040	-0.920	-0.960
2020/01/31 17:33:42.9	356.760	0.010	-0.880	-1.000
2020/01/31 17:33:43.0	356.780	-0.030	-0.830	-1.040
2020/01/31 17:33:43.1	356.800	-0.060	-0.780	-1.080
2020/01/31 17:33:43.2	356.830	-0.100	-0.720	-1.120
2020/01/31 17:33:43.3	356.850	-0.140	-0.660	-1.150
2020/01/31 17:33:43.4	356.870	-0.190	-0.590	-1.180
2020/01/31 17:33:43.5	356.900	-0.230	-0.520	-1.200
2020/01/31 17:33:43.6	356.930	-0.280	-0.440	-1.220
2020/01/31 17:33:43.7	356.950	-0.330	-0.370	-1.240
2020/01/31 17:33:43.8	356.990	-0.390	-0.290	-1.250
2020/01/31 17:33:43.9	357.010	-0.440	-0.200	-1.260
2020/01/31 17:33:44.0	357.030	-0.490	-0.120	-1.270
2020/01/31 17:33:44.1	357.050	-0.550	-0.040	-1.280
2020/01/31 17:33:44.2	357.070	-0.600	0.040	-1.280
2020/01/31 17:33:44.3	357.090	-0.650	0.120	-1.270
2020/01/31 17:33:44.4	357.100	-0.700	0.190	-1.270
2020/01/31 17:33:44.5	357.110	-0.750	0.270	-1.260
2020/01/31 17:33:44.6	357.120	-0.800	0.340	-1.250
2020/01/31 17:33:44.7	357.130	-0.840	0.400	-1.230
2020/01/31 17:33:44.8	357.140	-0.880	0.460	-1.210
2020/01/31 17:33:44.9	357.140	-0.920	0.520	-1.190
2020/01/31 17:33:45.0	357.140	-0.950	0.560	-1.170
2020/01/31 17:33:45.1	357.140	-0.980	0.600	-1.140
2020/01/31 17:33:45.2	357.140	-1.000	0.640	-1.110
2020/01/31 17:33:45.3	357.130	-1.010	0.660	-1.070
2020/01/31 17:33:45.4	357.120	-1.020	0.680	-1.030
2020/01/31 17:33:45.5	357.110	-1.020	0.700	-0.990
2020/01/31 17:33:45.6	357.100	-1.020	0.700	-0.940
2020/01/31 17:33:45.7	357.090	-1.010	0.700	-0.890
2020/01/31 17:33:45.8	357.080	-0.990	0.680	-0.830
2020/01/31 17:33:45.9	357.060	-0.970	0.660	-0.780
2020/01/31 17:33:46.0	357.040	-0.930	0.640	-0.720
2020/01/31 17:33:46.1	357.020	-0.900	0.600	-0.650
2020/01/31 17:33:46.2	357.000	-0.850	0.560	-0.590
2020/01/31 17:33:46.3	356.980	-0.800	0.510	-0.520
2020/01/31 17:33:46.4	356.960	-0.740	0.450	-0.460
2020/01/31 17:33:46.5	356.940	-0.680	0.390	-0.390
2020/01/31 17:33:46.6	356.920	-0.610	0.320	-0.330
2020/01/31 17:33:46.7	356.910	-0.540	0.250	-0.270
2020/01/31 17:33:46.8	356.880	-0.460	0.170	-0.200
2020/01/31 17:33:46.9	356.860	-0.370	0.090	-0.140
2020/01/31 17:33:47.0	356.850	-0.290	0.000	-0.080
2020/01/31 17:33:47.1	356.830	-0.200	-0.080	-0.030
2020/01/31 17:33:47.2	356.820	-0.110	-0.170	0.020
2020/01/31 17:33:47.3	356.810	-0.020	-0.270	0.070
2020/01/31 17:33:47.4	356.810	0.080	-0.360	0.120
2020/01/31 17:33:47.5	356.800	0.170	-0.450	0.160
2020/01/31 17:33:47.6	356.800	0.260	-0.540	0.200
2020/01/31 17:33:47.7	356.790	0.350	-0.630	0.240
2020/01/31 17:33:47.8	356.790	0.440	-0.710	0.280
2020/01/31 17:33:47.9	356.790	0.530	-0.790	0.310
2020/01/31 17:33:48.0	356.790	0.620	-0.870	0.340
2020/01/31 17:33:48.1	356.790	0.700	-0.940	0.370
2020/01/31 17:33:48.2	356.790	0.770	-1.000	0.400
2020/01/31 17:33:48.3	356.800	0.840	-1.060	0.420
2020/01/31 17:33:48.4	356.800	0.910	-1.110	0.450
2020/01/31 17:33:48.5	356.800	0.970	-1.150	0.470
2020/01/31 17:33:48.6	356.800	1.020	-1.180	0.490
2020/01/31 17:33:48.7	356.800	1.060	-1.210	0.520
2020/01/31 17:33:48.8	356.790	1.100	-1.220	0.540
2020/01/31 17:33:48.9	356.790	1.130	-1.230	0.550
2020/01/31 17:33:49.0	356.780	1.150	-1.230	0.560
2020/01/31 17:33:49.1	356.780	1.160	-1.210	0.570
2020/01/31 17:33:49.2	356.770	1.160	-1.190	0.580
2020/01/31 17:33:49.3	356.760	1.160	-1.160	0.580
2020/01/31 17:33:49.4	356.760	1.140	-1.120	0.570
2020/01/31 17:33:49.5	356.750	1.120	-1.080	0.560
2020/01/31 17:33:49.6	356.740	1.090	-1.030	0.540
2020/01/31 17:33:49.7	356.730	1.050	-0.970	0.520
2020/01/31 17:33:49.8	356.720	1.010	-0.910	0.500
2020/01/31 17:33:49.9	356.710	0.960	-0.850	0.460
2020/01/31 17:33:50.0	356.710	0.900	-0.780	0.420
2020/01/31 17:33:50.1	356.700	0.840	-0.700	0.380
2020/01/31 17:33:50.2	356.700	0.780	-0.630	0.330
2020/01/31 17:33:50.3	356.700	0.710	-0.550	0.270
2020/01/31 17:33:50.4	356.700	0.630	-0.480	0.210
2020/01/31 17:33:50.5	356.700	0.560	-0.400	0.150
2020/01/31 17:33:50.6	356.700	0.480	-0.320	0.090
2020/01/31 17:33:50.7	356.700	0.400	-0.250	0.020
2020/01/31 17:33:50.8	356.710	0.320	-0.170	-0.050
2020/01/31 17:33:50.9	356.710	0.240	-0.100	-0.120
2020/01/31 17:33:51.0	356.720	0.170	-0.030	-0.190
2020/01/31 17:33:51.1	356.730	0.090	0.040	-0.260
2020/01/31 17:33:51.2	356.740	0.020	0.100	-0.330
2020/01/31 17:33:51.3	356.750	-0.050	0.160	-0.400
2020/01/31 17:33:51.4	356.760	-0.120	0.210	-0.460
2020/01/31 17:33:51.5	356.770	-0.180	0.260	-0.530
2020/01/31 17:33:51.6	356.790	-0.240	0.310	-0.590
2020/01/31 17:33:51.7	356.800	-0.290	0.350	-0.650
2020/01/31 17:33:51.8	356.810	-0.340	0.390	-0.710
2020/01/31 17:33:51.9	356.830	-0.380	0.420	-0.760
2020/01/31 17:33:52.0	356.840	-0.420	0.450	-0.810
2020/01/31 17:33:52.1	356.850	-0.450	0.470	-0.860
2020/01/31 17:33:52.2	356.870	-0.480	0.480	-0.900
2020/01/31 17:33:52.3	356.880	-0.500	0.490	-0.940
2020/01/31 17:33:52.4	356.890	-0.520	0.500	-0.970
2020/01/31 17:33:52.5	356.900	-0.530	0.500	-1.000
2020/01/31 17:33:52.6	356.910	-0.530	0.490	-1.030
2020/01/31 17:33:52.7	356.910	-0.540	0.480	-1.050
2020/01/31 17:33:52.8	356.910	-0.530	0.470	-1.070
2020/01/31 17:33:52.9	356.910	-0.530	0.450	-1.090
2020/01/31 17:33:53.0	356.920	-0.520	0.420	-1.100
2020/01/31 17:33:53.1	356.920	-0.500	0.390	-1.110
2020/01/31 17:33:53.2	356.920	-0.490	0.350	-1.120
2020/01/31 17:33:53.3	356.920	-0.470	0.310	-1.130
2020/01/31 17:33:53.4	356.920	-0.440	0.260	-1.130
2020/01/31 17:33:53.5	356.910	-0.420	0.210	-1.140
2020/01/31 17:33:53.6	356.910	-0.390	0.160	-1.140
2020/01/31 17:33:53.7	356.910	-0.370	0.100	-1.140
2020/01/31 17:33:53.8	356.900	-0.340	0.050	-1.140
2020/01/31 17:33:53.9	356.900	-0.310	-0.010	-1.140
2020/01/31 17:33:54.0	356.900	-0.280	-0.080	-1.130
2020/01/31 17:33:54.1	356.900	-0.250	-0.140	-1.130
2020/01/31 17:33:54.2	356.890	-0.220	-0.200	-1.120
2020/01/31 17:33:54.3	356.890	-0.190	-0.270	-1.110
2020/01/31 17:33:54.4	356.900	-0.160	-0.330	-1.100
2020/01/31 17:33:54.5	356.900	-0.130	-0.390	-1.090
2020/01/31 17:33:54.6	356.900	-0.110	-0.450	-1.080
2020/01/31 17:33:54.7	356.910	-0.080	-0.510	-1.070
2020/01/31 17:33:54.8	356.900	-0.060	-0.560	-1.050
2020/01/31 17:33:54.9	356.910	-0.030	-0.610	-1.030
2020/01/31 17:33:55.0	356.910	-0.010	-0.650	-1.010
2020/01/31 17:33:55.1	356.920	0.010	-0.690	-0.980
2020/01/31 17:33:55.2	356.930	0.030	-0.730	-0.960
2020/01/31 17:33:55.3	356.940	0.050	-0.760	-0.930
2020/01/31 17:33:55.4	356.950	0.060	-0.780	-0.890
2020/01/31 17:33:55.5	356.960	0.080	-0.800	-0.860
2020/01/31 17:33:55.6	356.970	0.090	-0.810	-0.820
2020/01/31 17:33:55.7	356.980	0.100	-0.810	-0.770
2020/01/31 17:33:55.8	356.990	0.110	-0.810	-0.720
2020/01/31 17:33:55.9	357.000	0.120	-0.800	-0.670
2020/01/31 17:33:56.0	357.000	0.130	-0.790	-0.610
2020/01/31 17:33:56.1	357.010	0.130	-0.770	-0.560
2020/01/31 17:33:56.2	357.010	0.140	-0.740	-0.490
2020/01/31 17:33:56.3	357.010	0.140	-0.710	-0.430
2020/01/31 17:33:56.4	357.010	0.140	-0.680	-0.360
2020/01/31 17:33:56.5	357.000	0.140	-0.640	-0.290
2020/01/31 17:33:56.6	357.000	0.140	-0.600	-0.220
2020/01/31 17:33:56.7	356.990	0.140	-0.560	-0.160
2020/01/31 17:33:56.8	357.000	0.140	-0.510	-0.080
2020/01/31 17:33:56.9	356.990	0.130	-0.470	-0.020
2020/01/31 17:33:57.0	356.980	0.130	-0.420	0.050
2020/01/31 17:33:57.1	356.970	0.120	-0.370	0.110
2020/01/31 17:33:57.2	356.960	0.110	-0.320	0.170
2020/01/31 17:33:57.3	356.950	0.110	-0.280	0.220
2020/01/31 17:33:57.4	356.930	0.100	-0.230	0.270
2020/01/31 17:33:57.5	356.920	0.090	-0.190	0.310
2020/01/31 17:33:57.6	356.910	0.080	-0.150	0.350
2020/01/31 17:33:57.7	356.900	0.070	-0.110	0.390
2020/01/31 17:33:57.8	356.890	0.060	-0.080	0.420
2020/01/31 17:33:57.9	356.880	0.050	-0.040	0.440
2020/01/31 17:33:58.0	356.880	0.030	-0.020	0.450
2020/01/31 17:33:58.1	356.870	0.020	0.010	0.470
2020/01/31 17:33:58.2	356.870	0.010	0.030	0.470
2020/01/31 17:33:58.3	356.870	0.000	0.040	0.470
2020/01/31 17:33:58.4	356.870	-0.010	0.050	0.460
2020/01/31 17:33:58.5	356.870	-0.010	0.060	0.450
2020/01/31 17:33:58.6	356.880	-0.020	0.060	0.440
2020/01/31 17:33:58.7	356.890	-0.030	0.060	0.420
2020/01/31 17:33:58.8	356.910	-0.030	0.060	0.390
2020/01/31 17:33:58.9	356.920	-0.040	0.050	0.360
2020/01/31 17:33:59.0	356.940	-0.040	0.030	0.330
2020/01/31 17:33:59.1	356.950	-0.040	0.010	0.300
2020/01/31 17:33:59.2	356.970	-0.050	-0.010	0.260
2020/01/31 17:33:59.3	356.990	-0.050	-0.030	0.230
2020/01/31 17:33:59.4	357.010	-0.050	-0.060	0.190
2020/01/31 17:33:59.5	357.040	-0.040	-0.080	0.150
2020/01/31 17:33:59.6	357.060	-0.040	-0.110	0.110
2020/01/31 17:33:59.7	357.080	-0.040	-0.140	0.070
2020/01/31 17:33:59.8	357.100	-0.040	-0.170	0.040
2020/01/31 17:33:59.9	357.120	-0.030	-0.200	-0.000
2020/01/31 17:34:00.0	357.140	-0.030	-0.230	-0.040
2020/01/31 17:34:00.1	357.170	-0.030	-0.250	-0.080
2020/01/31 17:34:00.2	357.190	-0.030	-0.280	-0.120
2020/01/31 17:34:00.3	357.210	-0.020	-0.300	-0.150
2020/01/31 17:34:00.4	357.230	-0.020	-0.320	-0.190
2020/01/31 17:34:00.5	357.240	-0.020	-0.330	-0.220
2020/01/31 17:34:00.6	357.260	-0.020	-0.350	-0.250
2020/01/31 17:34:00.7	357.280	-0.010	-0.360	-0.280
2020/01/31 17:34:00.8	357.300	-0.010	-0.370	-0.310
2020/01/31 17:34:00.9	357.310	-0.010	-0.370	-0.340
2020/01/31 17:34:01.0	357.320	-0.010	-0.380	-0.360
2020/01/31 17:34:01.1	357.330	-0.010	-0.380	-0.380
2020/01/31 17:34:01.2	357.340	-0.010	-0.380	-0.400
2020/01/31 17:34:01.3	357.340	-0.010	-0.370	-0.420
2020/01/31 17:34:01.4	357.340	-0.010	-0.370	-0.430
2020/01/31 17:34:01.5	357.340	-0.010	-0.360	-0.440
2020/01/31 17:34:01.6	357.340	-0.010	-0.360	-0.460
2020/01/31 17:34:01.7	357.340	-0.020	-0.350	-0.470
2020/01/31 17:34:01.8	357.340	-0.020	-0.340	-0.470
2020/01/31 17:34:01.9	357.340	-0.020	-0.330	-0.480
2020/01/31 17:34:02.0	357.330	-0.020	-0.320	-0.490
2020/01/31 17:34:02.1	357.330	-0.020	-0.310	-0.490
2020/01/31 17:34:02.2	357.330	-0.020	-0.300	-0.500
2020/01/31 17:34:02.3	357.330	-0.020	-0.300	-0.500
2020/01/31 17:34:02.4	357.320	-0.010	-0.290	-0.510
2020/01/31 17:34:02.5	357.320	-0.010	-0.280	-0.510
2020/01/31 17:34:02.6	357.320	-0.010	-0.280	-0.520
2020/01/31 17:34:02.7	357.320	-0.000	-0.270	-0.520
2020/01/31 17:34:02.8	357.320	0.000	-0.270	-0.530
2020/01/31 17:34:02.9	357.320	0.010	-0.270	-0.530
2020/01/31 17:34:03.0	357.330	0.020	-0.270	-0.540
2020/01/31 17:34:03.1	357.340	0.020	-0.270	-0.540
2020/01/31 17:34:03.2	357.340	0.030	-0.270	-0.540
2020/01/31 17:34:03.3	357.350	0.040	-0.260	-0.540
2020/01/31 17:34:03.4	357.360	0.050	-0.260	-0.540
2020/01/31 17:34:03.5	357.370	0.060	-0.260	-0.530
2020/01/31 17:34:03.6	357.380	0.070	-0.250	-0.530
2020/01/31 17:34:03.7	357.390	0.080	-0.250	-0.520
2020/01/31 17:34:03.8	357.410	0.090	-0.240	-0.510
2020/01/31 17:34:03.9	357.420	0.100	-0.230	-0.490
2020/01/31 17:34:04.0	357.430	0.110	-0.220	-0.470
2020/01/31 17:34:04.1	357.430	0.120	-0.210	-0.450
2020/01/31 17:34:04.2	357.430	0.120	-0.200	-0.420
2020/01/31 17:34:04.3	357.430	0.130	-0.180	-0.400
2020/01/31 17:34:04.4	357.430	0.130	-0.160	-0.370
2020/01/31 17:34:04.5	357.420	0.130	-0.140	-0.330
2020/01/31 17:34:04.6	357.410	0.140	-0.120	-0.300
2020/01/31 17:34:04.7	357.400	0.140	-0.100	-0.260
2020/01/31 17:34:04.8	357.380	0.130	-0.070	-0.220
2020/01/31 17:34:04.9	357.360	0.130	-0.040	-0.180
2020/01/31 17:34:05.0	357.340	0.120	-0.020	-0.140
2020/01/31 17:34:05.1	357.320	0.120	0.010	-0.110
2020/01/31 17:34:05.2	357.300	0.110	0.040	-0.070
2020/01/31 17:34:05.3	357.280	0.100	0.060	-0.030
2020/01/31 17:34:05.4	357.260	0.090	0.090	0.000
2020/01/31 17:34:05.5	357.230	0.080	0.110	0.040
2020/01/31 17:34:05.6	357.210	0.060	0.130	0.070
2020/01/31 17:34:05.7	357.190	0.050	0.150	0.100
2020/01/31 17:34:05.8	357.160	0.040	0.170	0.120
2020/01/31 17:34:05.9	357.140	0.020	0.180	0.140
2020/01/31 17:34:06.0	357.120	0.010	0.180	0.160
2020/01/31 17:34:06.1	357.100	-0.000	0.180	0.170
2020/01/31 17:34:06.2	357.080	-0.010	0.180	0.180
2020/01/31 17:34:06.3	357.070	-0.020	0.170	0.190
2020/01/31 17:34:06.4	357.060	-0.030	0.150	0.190
2020/01/31 17:34:06.5	357.040	-0.040	0.130	0.180
2020/01/31 17:34:06.6	357.040	-0.050	0.100	0.180
2020/01/31 17:34:06.7	357.030	-0.060	0.070	0.160
2020/01/31 17:34:06.8	357.030	-0.060	0.030	0.150
2020/01/31 17:34:06.9	357.020	-0.060	-0.020	0.130
2020/01/31 17:34:07.0	357.020	-0.060	-0.070	0.110
2020/01/31 17:34:07.1	357.030	-0.060	-0.120	0.080
2020/01/31 17:34:07.2	357.030	-0.060	-0.180	0.060
2020/01/31 17:34:07.3	357.030	-0.050	-0.250	0.030
2020/01/31 17:34:07.4	357.040	-0.050	-0.310	0.000
2020/01/31 17:34:07.5	357.040	-0.040	-0.380	-0.030
2020/01/31 17:34:07.6	357.050	-0.030	-0.450	-0.060
2020/01/31 17:34:07.7	357.060	-0.020	-0.510	-0.090
2020/01/31 17:34:07.8	357.080	-0.010	-0.580	-0.130
2020/01/31 17:34:07.9	357.100	-0.000	-0.650	-0.160
2020/01/31 17:34:08.0	357.110	0.010	-0.720	-0.200
2020/01/31 17:34:08.1	357.120	0.020	-0.780	-0.240
2020/01/31 17:34:08.2	357.140	0.030	-0.840	-0.280
2020/01/31 17:34:08.3	357.160	0.040	-0.900	-0.320
2020/01/31 17:34:08.4	357.180	0.050	-0.960	-0.360
2020/01/31 17:34:08.5	357.200	0.060	-1.010	-0.400
2020/01/31 17:34:08.6	357.230	0.070	-1.050	-0.450
2020/01/31 17:34:08.7	357.250	0.080	-1.090	-0.490
2020/01/31 17:34:08.8	357.260	0.080	-1.130	-0.540
2020/01/31 17:34:08.9	357.290	0.090	-1.150	-0.580
2020/01/31 17:34:09.0	357.320	0.090	-1.170	-0.620
2020/01/31 17:34:09.1	357.350	0.100	-1.190	-0.670
2020/01/31 17:34:09.2	357.390	0.100	-1.190	-0.710
2020/01/31 17:34:09.3	357.420	0.100	-1.190	-0.750
2020/01/31 17:34:09.4	357.460	0.100	-1.180	-0.790
2020/01/31 17:34:09.5	357.490	0.090	-1.160	-0.830
2020/01/31 17:34:09.6	357.530	0.090	-1.140	-0.870
2020/01/31 17:34:09.7	357.570	0.080	-1.110	-0.900
2020/01/31 17:34:09.8	357.610	0.080	-1.070	-0.930
2020/01/31 17:34:09.9	357.650	0.070	-1.020	-0.950
2020/01/31 17:34:10.0	357.690	0.060	-0.960	-0.970
2020/01/31 17:34:10.1	357.720	0.050	-0.900	-0.990
2020/01/31 17:34:10.2	357.760	0.040	-0.840	-1.000
2020/01/31 17:34:10.3	357.790	0.020	-0.760	-1.010
2020/01/31 17:34:10.4	357.820	0.010	-0.680	-1.000
2020/01/31 17:34:10.5	357.850	-0.010	-0.600	-1.000
2020/01/31 17:34:10.6	357.870	-0.020	-0.510	-0.990
2020/01/31 17:34:10.7	357.890	-0.040	-0.410	-0.970
2020/01/31 17:34:10.8	357.900	-0.060	-0.320	-0.950
2020/01/31 17:34:10.9	357.910	-0.070	-0.220	-0.920
2020/01/31 17:34:11.0	357.920	-0.090	-0.120	-0.890
2020/01/31 17:34:11.1	357.930	-0.110	-0.020	-0.850
2020/01/31 17:34:11.2	357.930	-0.130	0.080	-0.810
2020/01/31 17:34:11.3	357.920	-0.150	0.180	-0.760
2020/01/31 17:34:11.4	357.910	-0.170	0.280	-0.710
2020/01/31 17:34:11.5	357.900	-0.180	0.370	-0.660
2020/01/31 17:34:11.6	357.880	-0.200	0.470	-0.610
2020/01/31 17:34:11.7	357.860	-0.210	0.550	-0.560
2020/01/31 17:34:11.8	357.830	-0.230	0.630	-0.500
2020/01/31 17:34:11.9	357.800	-0.240	0.710	-0.440
2020/01/31 17:34:12.0	357.770	-0.250	0.770	-0.380
2020/01/31 17:34:12.1	357.730	-0.260	0.830	-0.320
2020/01/31 17:34:12.2	357.680	-0.260	0.880	-0.260
2020/01/31 17:34:12.3	357.640	-0.270	0.920	-0.210
2020/01/31 17:34:12.4	357.600	-0.270	0.950	-0.150
2020/01/31 17:34:12.5	357.550	-0.270	0.970	-0.100
2020/01/31 17:34:12.6	357.500	-0.270	0.980	-0.050
2020/01/31 17:34:12.7	357.460	-0.260	0.980	-0.000
2020/01/31 17:34:12.8	357.430	-0.250	0.970	0.040
2020/01/31 17:34:12.9	357.380	-0.240	0.950	0.080
2020/01/31 17:34:13.0	357.340	-0.220	0.920	0.120
2020/01/31 17:34:13.1	357.300	-0.200	0.870	0.150
2020/01/31 17:34:13.2	357.270	-0.180	0.820	0.180
2020/01/31 17:34:13.3	357.230	-0.150	0.750	0.200
2020/01/31 17:34:13.4	357.200	-0.120	0.680	0.220
2020/01/31 17:34:13.5	357.180	-0.090	0.600	0.240
2020/01/31 17:34:13.6	357.160	-0.060	0.510	0.240
2020/01/31 17:34:13.7	357.140	-0.020	0.410	0.250
2020/01/31 17:34:13.8	357.110	0.020	0.310	0.250
2020/01/31 17:34:13.9	357.100	0.060	0.210	0.240
2020/01/31 17:34:14.0	357.090	0.100	0.100	0.240
2020/01/31 17:34:14.1	357.080	0.150	-0.010	0.230
2020/01/31 17:34:14.2	357.070	0.190	-0.120	0.210
2020/01/31 17:34:14.3	357.070	0.230	-0.230	0.200
2020/01/31 17:34:14.4	357.060	0.270	-0.340	0.180
2020/01/31 17:34:14.5	357.060	0.310	-0.450	0.170
2020/01/31 17:34:14.6	357.060	0.350	-0.550	0.150
2020/01/31 17:34:14.7	357.050	0.390	-0.640	0.130
2020/01/31 17:34:14.8	357.050	0.420	-0.730	0.110
2020/01/31 17:34:14.9	357.040	0.450	-0.810	0.090
2020/01/31 17:34:15.0	357.030	0.480	-0.890	0.070
2020/01/31 17:34:15.1	357.030	0.500	-0.960	0.050
2020/01/31 17:34:15.2	357.020	0.520	-1.010	0.030
2020/01/31 17:34:15.3	357.010	0.530	-1.060	0.010
2020/01/31 17:34:15.4	357.000	0.530	-1.100	-0.010
2020/01/31 17:34:15.5	356.990	0.540	-1.130	-0.040
2020/01/31 17:34:15.6	356.990	0.530	-1.140	-0.060
2020/01/31 17:34:15.7	356.980	0.520	-1.150	-0.080
2020/01/31 17:34:15.8	356.970	0.510	-1.150	-0.110
2020/01/31 17:34:15.9	356.960	0.490	-1.140	-0.130
2020/01/31 17:34:16.0	356.950	0.460	-1.130	-0.160
2020/01/31 17:34:16.1	356.940	0.430	-1.100	-0.190
2020/01/31 17:34:16.2	356.940	0.400	-1.070	-0.210
2020/01/31 17:34:16.3	356.930	0.360	-1.030	-0.240
2020/01/31 17:34:16.4	356.930	0.320	-0.990	-0.280
2020/01/31 17:34:16.5	356.930	0.270	-0.950	-0.310
2020/01/31 17:34:16.6	356.940	0.230	-0.900	-0.340
2020/01/31 17:34:16.7	356.940	0.170	-0.850	-0.380
2020/01/31 17:34:16.8	356.960	0.120	-0.790	-0.420
2020/01/31 17:34:16.9	356.970	0.070	-0.740	-0.470
2020/01/31 17:34:17.0	356.980	0.010	-0.680	-0.510
2020/01/31 17:34:17.1	357.000	-0.040	-0.630	-0.560
2020/01/31 17:34:17.2	357.020	-0.100	-0.580	-0.600
2020/01/31 17:34:17.3	357.040	-0.150	-0.530	-0.650
2020/01/31 17:34:17.4	357.060	-0.200	-0.480	-0.710
2020/01/31 17:34:17.5	357.090	-0.250	-0.440	-0.760
2020/01/31 17:34:17.6	357.120	-0.300	-0.400	-0.810
2020/01/31 17:34:17.7	357.150	-0.350	-0.370	-0.870
2020/01/31 17:34:17.8	357.180	-0.390	-0.330	-0.920
2020/01/31 17:34:17.9	357.220	-0.420	-0.310	-0.980
2020/01/31 17:34:18.0	357.260	-0.460	-0.280	-1.040
2020/01/31 17:34:18.1	357.290	-0.490	-0.260	-1.090
2020/01/31 17:34:18.2	357.330	-0.510	-0.240	-1.140
2020/01/31 17:34:18.3	357.370	-0.530	-0.220	-1.190
2020/01/31 17:34:18.4	357.420	-0.550	-0.210	-1.230
2020/01/31 17:34:18.5	357.460	-0.560	-0.190	-1.280
2020/01/31 17:34:18.6	357.490	-0.570	-0.180	-1.310
2020/01/31 17:34:18.7	357.530	-0.570	-0.170	-1.350
2020/01/31 17:34:18.8	357.570	-0.570	-0.150	-1.380
2020/01/31 17:34:18.9	357.600	-0.560	-0.140	-1.400
2020/01/31 17:34:19.0	357.630	-0.550	-0.130	-1.420
2020/01/31 17:34:19.1	357.660	-0.540	-0.120	-1.430
2020/01/31 17:34:19.2	357.690	-0.530	-0.100	-1.440
2020/01/31 17:34:19.3	357.710	-0.510	-0.080	-1.440
2020/01/31 17:34:19.4	357.730	-0.490	-0.070	-1.430
2020/01/31 17:34:19.5	357.750	-0.470	-0.050	-1.420
2020/01/31 17:34:19.6	357.760	-0.440	-0.030	-1.400
2020/01/31 17:34:19.7	357.770	-0.420	-0.000	-1.380
2020/01/31 17:34:19.8	357.780	-0.390	0.020	-1.340
2020/01/31 17:34:19.9	357.780	-0.360	0.050	-1.300
2020/01/31 17:34:20.0	357.770	-0.330	0.070	-1.260
2020/01/31 17:34:20.1	357.760	-0.300	0.100	-1.210
2020/01/31 17:34:20.2	357.750	-0.280	0.130	-1.150
2020/01/31 17:34:20.3	357.720	-0.250	0.160	-1.090
2020/01/31 17:34:20.4	357.700	-0.220	0.190	-1.020
2020/01/31 17:34:20.5	357.670	-0.190	0.230	-0.950
2020/01/31 17:34:20.6	357.640	-0.170	0.260	-0.870
2020/01/31 17:34:20.7	357.600	-0.140	0.280	-0.790
2020/01/31 17:34:20.8	357.570	-0.120	0.310	-0.710
2020/01/31 17:34:20.9	357.530	-0.090	0.340	-0.620
2020/01/31 17:34:21.0	357.480	-0.070	0.360	-0.540
2020/01/31 17:34:21.1	357.440	-0.050	0.380	-0.450
2020/01/31 17:34:21.2	357.390	-0.030	0.400	-0.360
2020/01/31 17:34:21.3	357.340	-0.010	0.410	-0.270
2020/01/31 17:34:21.4	357.300	0.010	0.420	-0.180
2020/01/31 17:34:21.5	357.250	0.020	0.430	-0.090
2020/01/31 17:34:21.6	357.200	0.040	0.430	-0.010
2020/01/31 17:34:21.7	357.150	0.050	0.420	0.070
2020/01/31 17:34:21.8	357.110	0.070	0.410	0.150
2020/01/31 17:34:21.9	357.060	0.080	0.390	0.220
2020/01/31 17:34:22.0	357.020	0.090	0.370	0.290
2020/01/31 17:34:22.1	356.980	0.110	0.340	0.340
2020/01/31 17:34:22.2	356.950	0.120	0.300	0.400
2020/01/31 17:34:22.3	356.920	0.130	0.260	0.440
2020/01/31 17:34:22.4	356.890	0.150	0.210	0.480
2020/01/31 17:34:22.5	356.860	0.160	0.150	0.510
2020/01/31 17:34:22.6	356.830	0.170	0.090	0.540
2020/01/31 17:34:22.7	356.810	0.190	0.030	0.560
2020/01/31 17:34:22.8	356.770	0.200	-0.040	0.560
2020/01/31 17:34:22.9	356.750	0.220	-0.110	0.570
2020/01/31 17:34:23.0	356.740	0.230	-0.190	0.570
2020/01/31 17:34:23.1	356.730	0.250	-0.270	0.560
2020/01/31 17:34:23.2	356.730	0.270	-0.350	0.540
2020/01/31 17:34:23.3	356.730	0.280	-0.430	0.520
2020/01/31 17:34:23.4	356.730	0.300	-0.520	0.480
2020/01/31 17:34:23.5	356.740	0.310	-0.600	0.450
2020/01/31 17:34:23.6	356.750	0.330	-0.690	0.400
2020/01/31 17:34:23.7	356.770	0.340	-0.770	0.350
2020/01/31 17:34:23.8	356.780	0.360	-0.850	0.290
2020/01/31 17:34:23.9	356.800	0.370	-0.930	0.230
2020/01/31 17:34:24.0	356.820	0.380	-1.010	0.160
2020/01/31 17:34:24.1	356.850	0.390	-1.080	0.080
2020/01/31 17:34:24.2	356.880	0.400	-1.150	0.000
2020/01/31 17:34:24.3	356.910	0.400	-1.210	-0.080
2020/01/31 17:34:24.4	356.940	0.410	-1.270	-0.160
2020/01/31 17:34:24.5	356.980	0.410	-1.310	-0.250
2020/01/31 17:34:24.6	357.010	0.410	-1.360	-0.340
2020/01/31 17:34:24.7	357.040	0.400	-1.390	-0.430
2020/01/31 17:34:24.8	357.090	0.390	-1.410	-0.520
2020/01/31 17:34:24.9	357.120	0.390	-1.430	-0.610
2020/01/31 17:34:25.0	357.150	0.370	-1.430	-0.690
2020/01/31 17:34:25.1	357.190	0.360	-1.430	-0.780
2020/01/31 17:34:25.2	357.220	0.340	-1.420	-0.860
2020/01/31 17:34:25.3	357.250	0.320	-1.390	-0.930
2020/01/31 17:34:25.4	357.280	0.290	-1.360	-1.000
2020/01/31 17:34:25.5	357.310	0.270	-1.320	-1.060
2020/01/31 17:34:25.6	357.330	0.240	-1.260	-1.120
2020/01/31 17:34:25.7	357.360	0.210	-1.200	-1.180
2020/01/31 17:34:25.8	357.390	0.170	-1.130	-1.230
2020/01/31 17:34:25.9	357.410	0.130	-1.050	-1.270
2020/01/31 17:34:26.0	357.430	0.100	-0.970	-1.300
2020/01/31 17:34:26.1	357.440	0.060	-0.880	-1.330
2020/01/31 17:34:26.2	357.460	0.020	-0.780	-1.350
2020/01/31 17:34:26.3	357.470	-0.030	-0.670	-1.360
2020/01/31 17:34:26.4	357.480	-0.070	-0.570	-1.370
2020/01/31 17:34:26.5	357.490	-0.110	-0.460	-1.370
2020/01/31 17:34:26.6	357.500	-0.150	-0.350	-1.360
2020/01/31 17:34:26.7	357.500	-0.190	-0.240	-1.350
2020/01/31 17:34:26.8	357.510	-0.230	-0.120	-1.340
2020/01/31 17:34:26.9	357.520	-0.270	-0.010	-1.320
2020/01/31 17:34:27.0	357.520	-0.310	0.090	-1.300
2020/01/31 17:34:27.1	357.520	-0.350	0.200	-1.280
2020/01/31 17:34:27.2	357.520	-0.380	0.300	-1.250
2020/01/31 17:34:27.3	357.510	-0.410	0.390	-1.220
2020/01/31 17:34:27.4	357.510	-0.440	0.480	-1.180
2020/01/31 17:34:27.5	357.500	-0.470	0.560	-1.150
2020/01/31 17:34:27.6	357.490	-0.490	0.630	-1.110
2020/01/31 17:34:27.7	357.480	-0.500	0.690	-1.070
2020/01/31 17:34:27.8	357.480	-0.520	0.750	-1.020
2020/01/31 17:34:27.9	357.470	-0.530	0.790	-0.980
2020/01/31 17:34:28.0	357.460	-0.530	0.830	-0.930
2020/01/31 17:34:28.1	357.450	-0.530	0.860	-0.880
2020/01/31 17:34:28.2	357.430	-0.520	0.870	-0.830
2020/01/31 17:34:28.3	357.420	-0.510	0.880	-0.780
2020/01/31 17:34:28.4	357.410	-0.490	0.880	-0.730
2020/01/31 17:34:28.5	357.400	-0.470	0.870	-0.680
2020/01/31 17:34:28.6	357.390	-0.440	0.850	-0.620
2020/01/31 17:34:28.7	357.380	-0.410	0.820	-0.570
2020/01/31 17:34:28.8	357.370	-0.370	0.780	-0.510
2020/01/31 17:34:28.9	357.360	-0.330	0.740	-0.450
2020/01/31 17:34:29.0	357.350	-0.290	0.690	-0.390
2020/01/31 17:34:29.1	357.330	-0.250	0.630	-0.340
2020/01/31 17:34:29.2	357.330	-0.200	0.570	-0.280
2020/01/31 17:34:29.3	357.320	-0.150	0.500	-0.230
2020/01/31 17:34:29.4	357.310	-0.100	0.430	-0.180
2020/01/31 17:34:29.5	357.300	-0.040	0.350	-0.130
2020/01/31 17:34:29.6	357.290	0.010	0.280	-0.090
2020/01/31 17:34:29.7	357.280	0.060	0.200	-0.040
2020/01/31 17:34:29.8	357.270	0.120	0.120	-0.000
2020/01/31 17:34:29.9	357.260	0.170	0.030	0.030
2020/01/31 17:34:30.0	357.250	0.220	-0.050	0.060
2020/01/31 17:34:30.1	357.250	0.260	-0.130	0.090
2020/01/31 17:34:30.2	357.240	0.310	-0.210	0.120
2020/01/31 17:34:30.3	357.230	0.350	-0.290	0.130
2020/01/31 17:34:30.4	357.230	0.390	-0.370	0.150
2020/01/31 17:34:30.5	357.220	0.420	-0.440	0.160
2020/01/31 17:34:30.6	357.220	0.450	-0.510	0.170
2020/01/31 17:34:30.7	357.220	0.480	-0.580	0.170
2020/01/31 17:34:30.8	357.210	0.500	-0.640	0.170
2020/01/31 17:34:30.9	357.200	0.520	-0.690	0.160
2020/01/31 17:34:31.0	357.200	0.530	-0.740	0.160
2020/01/31 17:34:31.1	357.190	0.530	-0.790	0.140
2020/01/31 17:34:31.2	357.190	0.540	-0.830	0.130
2020/01/31 17:34:31.3	357.190	0.530	-0.860	0.110
2020/01/31 17:34:31.4	357.190	0.520	-0.890	0.100
2020/01/31 17:34:31.5	357.190	0.510	-0.910	0.080
2020/01/31 17:34:31.6	357.190	0.490	-0.930	0.050
2020/01/31 17:34:31.7	357.190	0.470	-0.940	0.030
2020/01/31 17:34:31.8	357.180	0.450	-0.940	-0.000
2020/01/31 17:34:31.9	357.190	0.420	-0.940	-0.030
2020/01/31 17:34:32.0	357.190	0.390	-0.930	-0.060
2020/01/31 17:34:32.1	357.200	0.350	-0.920	-0.090
2020/01/31 17:34:32.2	357.200	0.310	-0.900	-0.130
2020/01/31 17:34:32.3	357.210	0.270	-0.880	-0.160
2020/01/31 17:34:32.4	357.220	0.230	-0.850	-0.200
2020/01/31 17:34:32.5	357.230	0.180	-0.820	-0.240
2020/01/31 17:34:32.6	357.240	0.140	-0.790	-0.280
2020/01/31 17:34:32.7	357.250	0.090	-0.750	-0.320
2020/01/31 17:34:32.8	357.260	0.040	-0.700	-0.360
2020/01/31 17:34:32.9	357.270	-0.010	-0.660	-0.410
2020/01/31 17:34:33.0	357.280	-0.050	-0.610	-0.450
2020/01/31 17:34:33.1	357.290	-0.100	-0.570	-0.500
2020/01/31 17:34:33.2	357.300	-0.140	-0.520	-0.540
2020/01/31 17:34:33.3	357.310	-0.190	-0.460	-0.580
2020/01/31 17:34:33.4	357.320	-0.230	-0.410	-0.630
2020/01/31 17:34:33.5	357.330	-0.270	-0.360	-0.670
2020/01/31 17:34:33.6	357.330	-0.310	-0.310	-0.710
2020/01/31 17:34:33.7	357.340	-0.340	-0.260	-0.740
2020/01/31 17:34:33.8	357.340	-0.370	-0.210	-0.780
2020/01/31 17:34:33.9	357.340	-0.400	-0.160	-0.810
2020/01/31 17:34:34.0	357.350	-0.430	-0.110	-0.840
2020/01/31 17:34:34.1	357.360	-0.450	-0.060	-0.870
2020/01/31 17:34:34.2	357.360	-0.470	-0.020	-0.890
2020/01/31 17:34:34.3	357.370	-0.480	0.020	-0.910
2020/01/31 17:34:34.4	357.370	-0.500	0.060	-0.930
2020/01/31 17:34:34.5	357.380	-0.500	0.100	-0.940
2020/01/31 17:34:34.6	357.380	-0.510	0.140	-0.950
2020/01/31 17:34:34.7	357.380	-0.510	0.170	-0.960
2020/01/31 17:34:34.8	357.390	-0.510	0.190	-0.960
2020/01/31 17:34:34.9	357.400	-0.500	0.220	-0.960
2020/01/31 17:34:35.0	357.400	-0.500	0.240	-0.960
2020/01/31 17:34:35.1	357.400	-0.490	0.260	-0.950
2020/01/31 17:34:35.2	357.410	-0.470	0.270	-0.940
2020/01/31 17:34:35.3	357.410	-0.460	0.280	-0.930
2020/01/31 17:34:35.4	357.410	-0.440	0.280	-0.910
2020/01/31 17:34:35.5	357.410	-0.420	0.290	-0.890
2020/01/31 17:34:35.6	357.410	-0.400	0.280	-0.870
2020/01/31 17:34:35.7	357.410	-0.380	0.280	-0.840
2020/01/31 17:34:35.8	357.430	-0.360	0.270	-0.810
2020/01/31 17:34:35.9	357.420	-0.330	0.250	-0.780
2020/01/31 17:34:36.0	357.420	-0.310	0.240	-0.750
2020/01/31 17:34:36.1	357.410	-0.280	0.210	-0.720
2020/01/31 17:34:36.2	357.400	-0.260	0.190	-0.690
2020/01/31 17:34:36.3	357.390	-0.230	0.160	-0.650
2020/01/31 17:34:36.4	357.380	-0.210	0.130	-0.620
2020/01/31 17:34:36.5	357.370	-0.190	0.100	-0.580
2020/01/31 17:34:36.6	357.360	-0.160	0.060	-0.550
2020/01/31 17:34:36.7	357.340	-0.140	0.020	-0.510
2020/01/31 17:34:36.8	357.320	-0.120	-0.020	-0.480
2020/01/31 17:34:36.9	357.300	-0.090	-0.060	-0.440
2020/01/31 17:34:37.0	357.290	-0.070	-0.110	-0.410
2020/01/31 17:34:37.1	357.270	-0.050	-0.160	-0.370
2020/01/31 17:34:37.2	357.260	-0.030	-0.200	-0.340
2020/01/31 17:34:37.3	357.240	-0.010	-0.250	-0.300
2020/01/31 17:34:37.4	357.230	0.010	-0.300	-0.270
2020/01/31 17:34:37.5	357.210	0.020	-0.350	-0.240
2020/01/31 17:34:37.6	357.200	0.040	-0.400	-0.200
2020/01/31 17:34:37.7	357.190	0.060	-0.450	-0.170
2020/01/31 17:34:37.8	357.180	0.080	-0.500	-0.140
2020/01/31 17:34:37.9	357.170	0.090	-0.550	-0.120
2020/01/31 17:34:38.0	357.170	0.110	-0.600	-0.090
2020/01/31 17:34:38.1	357.160	0.130	-0.640	-0.070
2020/01/31 17:34:38.2	357.160	0.140	-0.680	-0.050
2020/01/31 17:34:38.3	357.160	0.160	-0.720	-0.030
2020/01/31 17:34:38.4	357.160	0.170	-0.760	-0.010
2020/01/31 17:34:38.5	357.170	0.190	-0.790	0.000
2020/01/31 17:34:38.6	357.170	0.200	-0.820	0.010
2020/01/31 17:34:38.7	357.180	0.220	-0.850	0.020
2020/01/31 17:34:38.8	357.180	0.230	-0.880	0.030
2020/01/31 17:34:38.9	357.190	0.240	-0.900	0.030
2020/01/31 17:34:39.0	357.210	0.260	-0.910	0.030
2020/01/31 17:34:39.1	357.220	0.270	-0.920	0.030
2020/01/31 17:34:39.2	357.230	0.290	-0.930	0.020
2020/01/31 17:34:39.3	357.250	0.300	-0.930	0.020
2020/01/31 17:34:39.4	357.270	0.310	-0.930	0.010
2020/01/31 17:34:39.5	357.290	0.320	-0.920	-0.000
2020/01/31 17:34:39.6	357.310	0.340	-0.910	-0.010
2020/01/31 17:34:39.7	357.330	0.350	-0.890	-0.030
2020/01/31 17:34:39.8	357.340	0.350	-0.870	-0.040
2020/01/31 17:34:39.9	357.360	0.360	-0.840	-0.050
2020/01/31 17:34:40.0	357.390	0.370	-0.810	-0.070
2020/01/31 17:34:40.1	357.410	0.370	-0.770	-0.080
2020/01/31 17:34:40.2	357.440	0.370	-0.730	-0.100
2020/01/31 17:34:40.3	357.460	0.370	-0.680	-0.110
2020/01/31 17:34:40.4	357.490	0.370	-0.630	-0.130
2020/01/31 17:34:40.5	357.510	0.370	-0.580	-0.140
2020/01/31 17:34:40.6	357.540	0.360	-0.520	-0.160
2020/01/31 17:34:40.7	357.560	0.350	-0.460	-0.170
2020/01/31 17:34:40.8	357.610	0.330	-0.400	-0.180
2020/01/31 17:34:40.9	357.630	0.320	-0.340	-0.190
2020/01/31 17:34:41.0	357.650	0.300	-0.280	-0.210
2020/01/31 17:34:41.1	357.680	0.280	-0.220	-0.220
2020/01/31 17:34:41.2	357.700	0.260	-0.160	-0.230
2020/01/31 17:34:41.3	357.730	0.230	-0.100	-0.240
2020/01/31 17:34:41.4	357.750	0.210	-0.040	-0.260
2020/01/31 17:34:41.5	357.780	0.180	0.010	-0.270
2020/01/31 17:34:41.6	357.800	0.150	0.060	-0.280
2020/01/31 17:34:41.7	357.830	0.120	0.110	-0.290
2020/01/31 17:34:41.8	357.860	0.090	0.150	-0.300
2020/01/31 17:34:41.9	357.890	0.060	0.190	-0.310
2020/01/31 17:34:42.0	357.910	0.030	0.220	-0.330
2020/01/31 17:34:42.1	357.940	-0.010	0.250	-0.340
2020/01/31 17:34:42.2	357.970	-0.040	0.270	-0.350
2020/01/31 17:34:42.3	357.990	-0.070	0.280	-0.360
2020/01/31 17:34:42.4	358.020	-0.090	0.290	-0.380
2020/01/31 17:34:42.5	358.040	-0.120	0.290	-0.390
2020/01/31 17:34:42.6	358.070	-0.150	0.290	-0.400
2020/01/31 17:34:42.7	358.090	-0.170	0.290	-0.410
2020/01/31 17:34:42.8	358.120	-0.190	0.280	-0.420
2020/01/31 17:34:42.9	358.130	-0.210	0.270	-0.420
2020/01/31 17:34:43.0	358.140	-0.230	0.250	-0.420
2020/01/31 17:34:43.1	358.150	-0.240	0.230	-0.420
2020/01/31 17:34:43.2	358.150	-0.250	0.210	-0.420
2020/01/31 17:34:43.3	358.150	-0.260	0.190	-0.410
2020/01/31 17:34:43.4	358.140	-0.270	0.180	-0.400
2020/01/31 17:34:43.5	358.130	-0.270	0.160	-0.380
2020/01/31 17:34:43.6	358.110	-0.280	0.140	-0.370
2020/01/31 17:34:43.7	358.090	-0.280	0.130	-0.340
2020/01/31 17:34:43.8	358.060	-0.270	0.110	-0.320
2020/01/31 17:34:43.9	358.030	-0.270	0.100	-0.290
2020/01/31 17:34:44.0	357.990	-0.260	0.090	-0.260
2020/01/31 17:34:44.1	357.950	-0.250	0.080	-0.230
2020/01/31 17:34:44.2	357.910	-0.240	0.070	-0.200
2020/01/31 17:34:44.3	357.870	-0.230	0.070	-0.170
2020/01/31 17:34:44.4	357.820	-0.220	0.060	-0.140
2020/01/31 17:34:44.5	357.770	-0.210	0.050	-0.110
2020/01/31 17:34:44.6	357.720	-0.200	0.050	-0.080
2020/01/31 17:34:44.7	357.670	-0.190	0.040	-0.050
2020/01/31 17:34:44.8	357.620	-0.180	0.030	-0.030
2020/01/31 17:34:44.9	357.570	-0.170	0.020	-0.010
2020/01/31 17:34:45.0	357.530	-0.150	0.010	0.010
2020/01/31 17:34:45.1	357.480	-0.140	0.000	0.030
2020/01/31 17:34:45.2	357.440	-0.130	-0.010	0.040
2020/01/31 17:34:45.3	357.400	-0.120	-0.030	0.050
2020/01/31 17:34:45.4	357.360	-0.110	-0.050	0.060
2020/01/31 17:34:45.5	357.320	-0.100	-0.070	0.060
2020/01/31 17:34:45.6	357.290	-0.090	-0.090	0.050
2020/01/31 17:34:45.7	357.260	-0.080	-0.120	0.040
2020/01/31 17:34:45.8	357.220	-0.070	-0.150	0.030
2020/01/31 17:34:45.9	357.200	-0.070	-0.180	0.010
2020/01/31 17:34:46.0	357.180	-0.060	-0.220	-0.010
2020/01/31 17:34:46.1	357.170	-0.050	-0.250	-0.040
2020/01/31 17:34:46.2	357.160	-0.040	-0.280	-0.080
2020/01/31 17:34:46.3	357.150	-0.040	-0.320	-0.110
2020/01/31 17:34:46.4	357.150	-0.030	-0.360	-0.150
2020/01/31 17:34:46.5	357.150	-0.030	-0.400	-0.200
2020/01/31 17:34:46.6	357.160	-0.020	-0.430	-0.250
2020/01/31 17:34:46.7	357.170	-0.010	-0.470	-0.290
2020/01/31 17:34:46.8	357.170	-0.010	-0.500	-0.350
2020/01/31 17:34:46.9	357.190	-0.000	-0.540	-0.400
2020/01/31 17:34:47.0	357.210	0.000	-0.570	-0.450
2020/01/31 17:34:47.1	357.240	0.010	-0.600	-0.510
2020/01/31 17:34:47.2	357.260	0.020	-0.630	-0.560
2020/01/31 17:34:47.3	357.290	0.020	-0.650	-0.610
2020/01/31 17:34:47.4	357.320	0.030	-0.670	-0.660
2020/01/31 17:34:47.5	357.350	0.030	-0.690	-0.700
2020/01/31 17:34:47.6	357.380	0.040	-0.700	-0.750
2020/01/31 17:34:47.7	357.410	0.040	-0.700	-0.790
2020/01/31 17:34:47.8	357.440	0.050	-0.710	-0.830
2020/01/31 17:34:47.9	357.480	0.050	-0.710	-0.860
2020/01/31 17:34:48.0	357.510	0.060	-0.700	-0.890
2020/01/31 17:34:48.1	357.540	0.060	-0.690	-0.910
2020/01/31 17:34:48.2	357.570	0.060	-0.680	-0.930
2020/01/31 17:34:48.3	357.590	0.070	-0.660	-0.950
2020/01/31 17:34:48.4	357.620	0.070	-0.640	-0.960
2020/01/31 17:34:48.5	357.640	0.070	-0.620	-0.960
2020/01/31 17:34:48.6	357.660	0.070	-0.590	-0.960
2020/01/31 17:34:48.7	357.680	0.080	-0.560	-0.960
2020/01/31 17:34:48.8	357.710	0.080	-0.530	-0.940
2020/01/31 17:34:48.9	357.720	0.080	-0.490	-0.930
2020/01/31 17:34:49.0	357.740	0.080	-0.460	-0.910
2020/01/31 17:34:49.1	357.750	0.080	-0.420	-0.900
2020/01/31 17:34:49.2	357.760	0.080	-0.380	-0.880
2020/01/31 17:34:49.3	357.770	0.080	-0.350	-0.850
2020/01/31 17:34:49.4	357.780	0.090	-0.310	-0.830
2020/01/31 17:34:49.5	357.790	0.090	-0.280	-0.800
2020/01/31 17:34:49.6	357.800	0.090	-0.240	-0.780
2020/01/31 17:34:49.7	357.810	0.090	-0.210	-0.750
2020/01/31 17:34:49.8	357.800	0.100	-0.180	-0.720
2020/01/31 17:34:49.9	357.810	0.100	-0.160	-0.690
2020/01/31 17:34:50.0	357.820	0.100	-0.130	-0.660
2020/01/31 17:34:50.1	357.830	0.110	-0.120	-0.630
2020/01/31 17:34:50.2	357.840	0.120	-0.100	-0.600
2020/01/31 17:34:50.3	357.850	0.120	-0.090	-0.570
2020/01/31 17:34:50.4	357.870	0.130	-0.080	-0.530
2020/01/31 17:34:50.5	357.880	0.140	-0.080	-0.500
2020/01/31 17:34:50.6	357.890	0.150	-0.080	-0.460
2020/01/31 17:34:50.7	357.900	0.150	-0.080	-0.430
2020/01/31 17:34:50.8	357.920	0.160	-0.090	-0.390
2020/01/31 17:34:50.9	357.930	0.170	-0.100	-0.350
2020/01/31 17:34:51.0	357.940	0.180	-0.110	-0.320
2020/01/31 17:34:51.1	357.950	0.180	-0.130	-0.280
2020/01/31 17:34:51.2	357.950	0.190	-0.140	-0.240
2020/01/31 17:34:51.3	357.960	0.190	-0.160	-0.210
2020/01/31 17:34:51.4	357.960	0.200	-0.190	-0.180
2020/01/31 17:34:51.5	357.970	0.210	-0.210	-0.150
2020/01/31 17:34:51.6	357.970	0.210	-0.240	-0.120
2020/01/31 17:34:51.7	357.980	0.210	-0.260	-0.100
2020/01/31 17:34:51.8	357.980	0.220	-0.290	-0.080
2020/01/31 17:34:51.9	357.990	0.220	-0.310	-0.060
2020/01/31 17:34:52.0	357.990	0.220	-0.340	-0.050
2020/01/31 17:34:52.1	358.000	0.220	-0.370	-0.040
2020/01/31 17:34:52.2	358.000	0.220	-0.400	-0.040
2020/01/31 17:34:52.3	358.010	0.220	-0.430	-0.040
2020/01/31 17:34:52.4	358.010	0.210	-0.450	-0.040
2020/01/31 17:34:52.5	358.020	0.210	-0.480	-0.050
2020/01/31 17:34:52.6	358.030	0.210	-0.500	-0.060
2020/01/31 17:34:52.7	358.040	0.200	-0.520	-0.080
2020/01/31 17:34:52.8	358.060	0.190	-0.540	-0.100
2020/01/31 17:34:52.9	358.070	0.190	-0.560	-0.120
2020/01/31 17:34:53.0	358.070	0.180	-0.570	-0.140
2020/01/31 17:34:53.1	358.080	0.170	-0.580	-0.170
2020/01/31 17:34:53.2	358.090	0.150	-0.580	-0.190
2020/01/31 17:34:53.3	358.100	0.140	-0.580	-0.220
2020/01/31 17:34:53.4	358.110	0.130	-0.570	-0.240
2020/01/31 17:34:53.5	358.120	0.110	-0.560	-0.270
2020/01/31 17:34:53.6	358.120	0.090	-0.550	-0.300
2020/01/31 17:34:53.7	358.130	0.070	-0.530	-0.320
2020/01/31 17:34:53.8	358.130	0.050	-0.510	-0.350
2020/01/31 17:34:53.9	358.130	0.030	-0.490	-0.370
2020/01/31 17:34:54.0	358.130	0.000	-0.460	-0.390
2020/01/31 17:34:54.1	358.130	-0.020	-0.420	-0.420
2020/01/31 17:34:54.2	358.130	-0.050	-0.390	-0.440
2020/01/31 17:34:54.3	358.120	-0.080	-0.350	-0.460
2020/01/31 17:34:54.4	358.120	-0.110	-0.300	-0.470
2020/01/31 17:34:54.5	358.110	-0.140	-0.260	-0.490
2020/01/31 17:34:54.6	358.110	-0.170	-0.220	-0.510
2020/01/31 17:34:54.7	358.100	-0.200	-0.170	-0.520
2020/01/31 17:34:54.8	358.100	-0.240	-0.120	-0.540
2020/01/31 17:34:54.9	358.100	-0.270	-0.080	-0.550
2020/01/31 17:34:55.0	358.090	-0.300	-0.030	-0.560
2020/01/31 17:34:55.1	358.080	-0.330	0.020	-0.570
2020/01/31 17:34:55.2	358.070	-0.360	0.060	-0.580
2020/01/31 17:34:55.3	358.060	-0.380	0.100	-0.580
2020/01/31 17:34:55.4	358.050	-0.410	0.150	-0.580
2020/01/31 17:34:55.5	358.040	-0.430	0.190	-0.580
2020/01/31 17:34:55.6	358.030	-0.460	0.230	-0.580
2020/01/31 17:34:55.7	358.020	-0.480	0.270	-0.580
2020/01/31 17:34:55.8	358.010	-0.500	0.300	-0.580
2020/01/31 17:34:55.9	358.000	-0.510	0.340	-0.570
2020/01/31 17:34:56.0	357.990	-0.520	0.370	-0.560
2020/01/31 17:34:56.1	357.980	-0.530	0.400	-0.550
2020/01/31 17:34:56.2	357.970	-0.540	0.430	-0.530
2020/01/31 17:34:56.3	357.960	-0.540	0.460	-0.520
2020/01/31 17:34:56.4	357.940	-0.550	0.480	-0.500
2020/01/31 17:34:56.5	357.930	-0.540	0.510	-0.480
2020/01/31 17:34:56.6	357.920	-0.540	0.530	-0.460
2020/01/31 17:34:56.7	357.900	-0.530	0.540	-0.440
2020/01/31 17:34:56.8	357.880	-0.520	0.550	-0.410
2020/01/31 17:34:56.9	357.870	-0.500	0.560	-0.380
2020/01/31 17:34:57.0	357.850	-0.490	0.560	-0.350
2020/01/31 17:34:57.1	357.840	-0.460	0.560	-0.320
2020/01/31 17:34:57.2	357.820	-0.440	0.560	-0.290
2020/01/31 17:34:57.3	357.800	-0.420	0.550	-0.260
2020/01/31 17:34:57.4	357.790	-0.390	0.530	-0.220
2020/01/31 17:34:57.5	357.770	-0.360	0.510	-0.190
2020/01/31 17:34:57.6	357.750	-0.330	0.480	-0.150
2020/01/31 17:34:57.7	357.730	-0.300	0.450	-0.120
2020/01/31 17:34:57.8	357.700	-0.260	0.420	-0.080
2020/01/31 17:34:57.9	357.680	-0.230	0.380	-0.050
2020/01/31 17:34:58.0	357.670	-0.190	0.330	-0.020
2020/01/31 17:34:58.1	357.650	-0.160	0.280	0.000
2020/01/31 17:34:58.2	357.630	-0.120	0.230	0.030
2020/01/31 17:34:58.3	357.620	-0.090	0.170	0.050
2020/01/31 17:34:58.4	357.600	-0.050	0.100	0.070
2020/01/31 17:34:58.5	357.590	-0.020	0.040	0.080
2020/01/31 17:34:58.6	357.580	0.020	-0.040	0.090
2020/01/31 17:34:58.7	357.570	0.050	-0.110	0.100
2020/01/31 17:34:58.8	357.550	0.080	-0.190	0.100
2020/01/31 17:34:58.9	357.540	0.120	-0.260	0.100
2020/01/31 17:34:59.0	357.540	0.150	-0.350	0.090
2020/01/31 17:34:59.1	357.530	0.180	-0.430	0.080
2020/01/31 17:34:59.2	357.530	0.200	-0.510	0.070
2020/01/31 17:34:59.3	357.520	0.230	-0.600	0.050
2020/01/31 17:34:59.4	357.520	0.250	-0.680	0.020
2020/01/31 17:34:59.5	357.520	0.270	-0.760	-0.010
2020/01/31 17:34:59.6	357.530	0.300	-0.850	-0.040
2020/01/31 17:34:59.7	357.530	0.310	-0.930	-0.070
2020/01/31 17:34:59.8	357.540	0.330	-1.000	-0.110
2020/01/31 17:34:59.9	357.550	0.350	-1.080	-0.150
2020/01/31 17:35:00.0	357.570	0.360	-1.150	-0.190
2020/01/31 17:35:00.1	357.580	0.370	-1.220	-0.240
2020/01/31 17:35:00.2	357.600	0.380	-1.280	-0.280
2020/01/31 17:35:00.3	357.620	0.390	-1.340	-0.330
2020/01/31 17:35:00.4	357.650	0.400	-1.400	-0.380
2020/01/31 17:35:00.5	357.670	0.400	-1.450	-0.420
2020/01/31 17:35:00.6	357.700	0.410	-1.490	-0.470
2020/01/31 17:35:00.7	357.730	0.410	-1.520	-0.510
2020/01/31 17:35:00.8	357.760	0.410	-1.550	-0.560
2020/01/31 17:35:00.9	357.790	0.410	-1.570	-0.600
2020/01/31 17:35:01.0	357.820	0.410	-1.580	-0.650
2020/01/31 17:35:01.1	357.860	0.400	-1.590	-0.690
2020/01/31 17:35:01.2	357.900	0.400	-1.580	-0.730
2020/01/31 17:35:01.3	357.930	0.390	-1.570	-0.760
2020/01/31 17:35:01.4	357.970	0.390	-1.550	-0.800
2020/01/31 17:35:01.5	358.010	0.380	-1.520	-0.840
2020/01/31 17:35:01.6	358.050	0.370	-1.490	-0.870
2020/01/31 17:35:01.7	358.090	0.360	-1.440	-0.900
2020/01/31 17:35:01.8	358.130	0.350	-1.390	-0.930
2020/01/31 17:35:01.9	358.160	0.340	-1.330	-0.950
2020/01/31 17:35:02.0	358.200	0.330	-1.270	-0.980
2020/01/31 17:35:02.1	358.240	0.310	-1.190	-1.000
2020/01/31 17:35:02.2	358.280	0.300	-1.120	-1.020
2020/01/31 17:35:02.3	358.310	0.280	-1.030	-1.030
2020/01/31 17:35:02.4	358.340	0.270	-0.940	-1.040
2020/01/31 17:35:02.5	358.370	0.250	-0.850	-1.050
2020/01/31 17:35:02.6	358.400	0.240	-0.750	-1.050
2020/01/31 17:35:02.7	358.420	0.220	-0.650	-1.050
2020/01/31 17:35:02.8	358.440	0.200	-0.540	-1.050
2020/01/31 17:35:02.9	358.460	0.180	-0.440	-1.040
2020/01/31 17:35:03.0	358.480	0.160	-0.330	-1.020
2020/01/31 17:35:03.1	358.490	0.140	-0.220	-1.000
2020/01/31 17:35:03.2	358.500	0.120	-0.110	-0.980
2020/01/31 17:35:03.3	358.510	0.100	-0.000	-0.950
2020/01/31 17:35:03.4	358.520	0.080	0.110	-0.910
2020/01/31 17:35:03.5	358.520	0.060	0.210	-0.870
2020/01/31 17:35:03.6	358.520	0.040	0.310	-0.830
2020/01/31 17:35:03.7	358.510	0.020	0.410	-0.790
2020/01/31 17:35:03.8	358.510	0.000	0.500	-0.740
2020/01/31 17:35:03.9	358.500	-0.020	0.590	-0.690
2020/01/31 17:35:04.0	358.490	-0.040	0.670	-0.640
2020/01/31 17:35:04.1	358.480	-0.060	0.740	-0.590
2020/01/31 17:35:04.2	358.460	-0.070	0.810	-0.540
2020/01/31 17:35:04.3	358.450	-0.090	0.860	-0.490
2020/01/31 17:35:04.4	358.430	-0.110	0.910	-0.450
2020/01/31 17:35:04.5	358.410	-0.120	0.950	-0.400
2020/01/31 17:35:04.6	358.400	-0.140	0.980	-0.350
2020/01/31 17:35:04.7	358.380	-0.150	0.990	-0.310
2020/01/31 17:35:04.8	358.360	-0.160	1.000	-0.270
2020/01/31 17:35:04.9	358.340	-0.180	1.000	-0.230
2020/01/31 17:35:05.0	358.330	-0.180	0.990	-0.200
2020/01/31 17:35:05.1	358.310	-0.190	0.970	-0.170
2020/01/31 17:35:05.2	358.290	-0.200	0.930	-0.150
2020/01/31 17:35:05.3	358.280	-0.200	0.890	-0.130
2020/01/31 17:35:05.4	358.260	-0.200	0.840	-0.110
2020/01/31 17:35:05.5	358.240	-0.210	0.780	-0.090
2020/01/31 17:35:05.6	358.230	-0.210	0.720	-0.080
2020/01/31 17:35:05.7	358.210	-0.200	0.650	-0.070
2020/01/31 17:35:05.8	358.210	-0.200	0.570	-0.070
2020/01/31 17:35:05.9	358.190	-0.190	0.490	-0.060
2020/01/31 17:35:06.0	358.180	-0.190	0.410	-0.060
2020/01/31 17:35:06.1	358.160	-0.180	0.320	-0.060
2020/01/31 17:35:06.2	358.140	-0.170	0.240	-0.060
2020/01/31 17:35:06.3	358.130	-0.170	0.150	-0.060
2020/01/31 17:35:06.4	358.110	-0.160	0.070	-0.060
2020/01/31 17:35:06.5	358.090	-0.150	-0.020	-0.060
2020/01/31 17:35:06.6	358.070	-0.140	-0.100	-0.070
2020/01/31 17:35:06.7	358.050	-0.130	-0.170	-0.070
2020/01/31 17:35:06.8	358.020	-0.120	-0.240	-0.080
2020/01/31 17:35:06.9	358.000	-0.110	-0.300	-0.080
2020/01/31 17:35:07.0	357.980	-0.110	-0.360	-0.090
2020/01/31 17:35:07.1	357.960	-0.100	-0.420	-0.100
2020/01/31 17:35:07.2	357.930	-0.090	-0.460	-0.100
2020/01/31 17:35:07.3	357.910	-0.090	-0.500	-0.110
2020/01/31 17:35:07.4	357.890	-0.080	-0.540	-0.120
2020/01/31 17:35:07.5	357.870	-0.080	-0.560	-0.130
2020/01/31 17:35:07.6	357.850	-0.080	-0.590	-0.140
2020/01/31 17:35:07.7	357.830	-0.070	-0.600	-0.150
2020/01/31 17:35:07.8	357.820	-0.070	-0.610	-0.160
2020/01/31 17:35:07.9	357.810	-0.070	-0.610	-0.170
2020/01/31 17:35:08.0	357.790	-0.070	-0.610	-0.180
2020/01/31 17:35:08.1	357.780	-0.070	-0.610	-0.200
2020/01/31 17:35:08.2	357.780	-0.070	-0.600	-0.210
2020/01/31 17:35:08.3	357.770	-0.070	-0.590	-0.220
2020/01/31 17:35:08.4	357.770	-0.070	-0.570	-0.240
2020/01/31 17:35:08.5	357.770	-0.070	-0.560	-0.250
2020/01/31 17:35:08.6	357.770	-0.070	-0.540	-0.260
2020/01/31 17:35:08.7	357.770	-0.070	-0.510	-0.270
2020/01/31 17:35:08.8	357.780	-0.070	-0.490	-0.280
2020/01/31 17:35:08.9	357.780	-0.070	-0.470	-0.300
2020/01/31 17:35:09.0	357.790	-0.070	-0.440	-0.310
2020/01/31 17:35:09.1	357.800	-0.070	-0.410	-0.320
2020/01/31 17:35:09.2	357.810	-0.070	-0.380	-0.330
2020/01/31 17:35:09.3	357.820	-0.070	-0.360	-0.340
2020/01/31 17:35:09.4	357.830	-0.070	-0.330	-0.350
2020/01/31 17:35:09.5	357.840	-0.060	-0.300	-0.360
2020/01/31 17:35:09.6	357.850	-0.060	-0.280	-0.370
2020/01/31 17:35:09.7	357.870	-0.060	-0.250	-0.380
2020/01/31 17:35:09.8	357.880	-0.060	-0.230	-0.380
2020/01/31 17:35:09.9	357.890	-0.060	-0.210	-0.390
2020/01/31 17:35:10.0	357.910	-0.060	-0.190	-0.400
2020/01/31 17:35:10.1	357.930	-0.060	-0.170	-0.400
2020/01/31 17:35:10.2	357.940	-0.060	-0.160	-0.410
2020/01/31 17:35:10.3	357.960	-0.060	-0.150	-0.420
2020/01/31 17:35:10.4	357.980	-0.060	-0.140	-0.420
2020/01/31 17:35:10.5	357.990	-0.070	-0.130	-0.420
2020/01/31 17:35:10.6	358.010	-0.070	-0.130	-0.430
2020/01/31 17:35:10.7	358.020	-0.070	-0.120	-0.430
2020/01/31 17:35:10.8	358.040	-0.080	-0.120	-0.420
2020/01/31 17:35:10.9	358.050	-0.080	-0.120	-0.420
2020/01/31 17:35:11.0	358.060	-0.090	-0.130	-0.420
2020/01/31 17:35:11.1	358.070	-0.100	-0.130	-0.420
2020/01/31 17:35:11.2	358.080	-0.100	-0.140	-0.420
2020/01/31 17:35:11.3	358.090	-0.110	-0.140	-0.420
2020/01/31 17:35:11.4	358.090	-0.120	-0.150	-0.420
2020/01/31 17:35:11.5	358.100	-0.130	-0.160	-0.410
2020/01/31 17:35:11.6	358.100	-0.140	-0.170	-0.410
2020/01/31 17:35:11.7	358.100	-0.150	-0.180	-0.410
2020/01/31 17:35:11.8	358.110	-0.160	-0.200	-0.410
2020/01/31 17:35:11.9	358.110	-0.160	-0.210	-0.400
2020/01/31 17:35:12.0	358.110	-0.170	-0.230	-0.400
2020/01/31 17:35:12.1	358.100	-0.180	-0.240	-0.400
2020/01/31 17:35:12.2	358.100	-0.180	-0.260	-0.400
2020/01/31 17:35:12.3	358.100	-0.190	-0.280	-0.400
2020/01/31 17:35:12.4	358.100	-0.190	-0.310	-0.400
2020/01/31 17:35:12.5	358.090	-0.200	-0.330	-0.400
2020/01/31 17:35:12.6	358.090	-0.200	-0.360	-0.400
2020/01/31 17:35:12.7	358.080	-0.200	-0.380	-0.400
2020/01/31 17:35:12.8	358.090	-0.200	-0.410	-0.410
2020/01/31 17:35:12.9	358.080	-0.190	-0.440	-0.410
2020/01/31 17:35:13.0	358.080	-0.190	-0.470	-0.410
2020/01/31 17:35:13.1	358.070	-0.180	-0.510	-0.420
2020/01/31 17:35:13.2	358.070	-0.170	-0.540	-0.420
2020/01/31 17:35:13.3	358.060	-0.160	-0.570	-0.430
2020/01/31 17:35:13.4	358.060	-0.150	-0.610	-0.430
2020/01/31 17:35:13.5	358.060	-0.130	-0.650	-0.430
2020/01/31 17:35:13.6	358.060	-0.110	-0.680	-0.440
2020/01/31 17:35:13.7	358.060	-0.090	-0.720	-0.450
2020/01/31 17:35:13.8	358.070	-0.070	-0.760	-0.450
2020/01/31 17:35:13.9	358.070	-0.040	-0.790	-0.460
2020/01/31 17:35:14.0	358.080	-0.020	-0.820	-0.470
2020/01/31 17:35:14.1	358.080	0.010	-0.860	-0.470
2020/01/31 17:35:14.2	358.090	0.040	-0.880	-0.480
2020/01/31 17:35:14.3	358.100	0.070	-0.910	-0.480
2020/01/31 17:35:14.4	358.100	0.110	-0.930	-0.490
2020/01/31 17:35:14.5	358.110	0.140	-0.950	-0.500
2020/01/31 17:35:14.6	358.120	0.180	-0.970	-0.500
2020/01/31 17:35:14.7	358.130	0.210	-0.980	-0.510
2020/01/31 17:35:14.8	358.130	0.250	-0.990	-0.510
2020/01/31 17:35:14.9	358.140	0.280	-0.990	-0.510
2020/01/31 17:35:15.0	358.150	0.310	-0.990	-0.510
2020/01/31 17:35:15.1	358.160	0.350	-0.980	-0.510
2020/01/31 17:35:15.2	358.160	0.380	-0.970	-0.510
2020/01/31 17:35:15.3	358.170	0.410	-0.950	-0.510
2020/01/31 17:35:15.4	358.180	0.440	-0.930	-0.500
2020/01/31 17:35:15.5	358.190	0.470	-0.900	-0.490
2020/01/31 17:35:15.6	358.190	0.490	-0.860	-0.480
2020/01/31 17:35:15.7	358.200	0.510	-0.830	-0.470
2020/01/31 17:35:15.8	358.190	0.530	-0.780	-0.450
2020/01/31 17:35:15.9	358.190	0.550	-0.740	-0.430
2020/01/31 17:35:16.0	358.200	0.560	-0.680	-0.410
2020/01/31 17:35:16.1	358.200	0.580	-0.630	-0.380
2020/01/31 17:35:16.2	358.200	0.580	-0.570	-0.350
2020/01/31 17:35:16.3	358.200	0.590	-0.510	-0.320
2020/01/31 17:35:16.4	358.200	0.590	-0.440	-0.290
2020/01/31 17:35:16.5	358.200	0.580	-0.380	-0.250
2020/01/31 17:35:16.6	358.200	0.580	-0.310	-0.210
2020/01/31 17:35:16.7	358.200	0.570	-0.240	-0.180
2020/01/31 17:35:16.8	358.200	0.560	-0.170	-0.140
2020/01/31 17:35:16.9	358.200	0.540	-0.100	-0.100
2020/01/31 17:35:17.0	358.200	0.520	-0.030	-0.060
2020/01/31 17:35:17.1	358.200	0.500	0.030	-0.020
2020/01/31 17:35:17.2	358.200	0.470	0.100	0.010
2020/01/31 17:35:17.3	358.200	0.440	0.160	0.040
2020/01/31 17:35:17.4	358.200	0.410	0.220	0.080
2020/01/31 17:35:17.5	358.200	0.380	0.280	0.110
2020/01/31 17:35:17.6	358.200	0.340	0.330	0.130
2020/01/31 17:35:17.7	358.200	0.300	0.370	0.150
2020/01/31 17:35:17.8	358.200	0.260	0.420	0.180
2020/01/31 17:35:17.9	358.200	0.220	0.460	0.190
2020/01/31 17:35:18.0	358.200	0.180	0.490	0.210
2020/01/31 17:35:18.1	358.200	0.140	0.520	0.220
2020/01/31 17:35:18.2	358.200	0.090	0.550	0.230
2020/01/31 17:35:18.3	358.200	0.050	0.570	0.230
2020/01/31 17:35:18.4	358.200	0.000	0.580	0.230
2020/01/31 17:35:18.5	358.200	-0.040	0.590	0.230
2020/01/31 17:35:18.6	358.190	-0.090	0.600	0.230
2020/01/31 17:35:18.7	358.190	-0.130	0.600	0.220
2020/01/31 17:35:18.8	358.190	-0.180	0.590	0.220
2020/01/31 17:35:18.9	358.190	-0.220	0.580	0.210
2020/01/31 17:35:19.0	358.180	-0.260	0.570	0.190
2020/01/31 17:35:19.1	358.180	-0.300	0.560	0.180
2020/01/31 17:35:19.2	358.170	-0.340	0.540	0.160
2020/01/31 17:35:19.3	358.170	-0.370	0.520	0.140
2020/01/31 17:35:19.4	358.170	-0.410	0.500	0.120
2020/01/31 17:35:19.5	358.160	-0.440	0.480	0.100
2020/01/31 17:35:19.6	358.160	-0.470	0.450	0.080
2020/01/31 17:35:19.7	358.150	-0.500	0.430	0.060
2020/01/31 17:35:19.8	358.140	-0.520	0.400	0.040
2020/01/31 17:35:19.9	358.130	-0.540	0.370	0.020
2020/01/31 17:35:20.0	358.120	-0.560	0.350	-0.000
2020/01/31 17:35:20.1	358.110	-0.580	0.320	-0.020
2020/01/31 17:35:20.2	358.100	-0.590	0.300	-0.040
2020/01/31 17:35:20.3	358.080	-0.600	0.270	-0.060
2020/01/31 17:35:20.4	358.060	-0.610	0.250	-0.080
2020/01/31 17:35:20.5	358.050	-0.610	0.230	-0.100
2020/01/31 17:35:20.6	358.030	-0.620	0.210	-0.120
2020/01/31 17:35:20.7	358.010	-0.610	0.190	-0.140
2020/01/31 17:35:20.8	358.000	-0.610	0.180	-0.160
2020/01/31 17:35:20.9	357.980	-0.600	0.160	-0.180
2020/01/31 17:35:21.0	357.950	-0.590	0.140	-0.190
2020/01/31 17:35:21.1	357.930	-0.580	0.130	-0.210
2020/01/31 17:35:21.2	357.910	-0.560	0.120	-0.220
2020/01/31 17:35:21.3	357.890	-0.550	0.100	-0.240
2020/01/31 17:35:21.4	357.870	-0.520	0.090	-0.250
2020/01/31 17:35:21.5	357.840	-0.500	0.080	-0.270
2020/01/31 17:35:21.6	357.820	-0.470	0.060	-0.280
2020/01/31 17:35:21.7	357.800	-0.450	0.050	-0.290
2020/01/31 17:35:21.8	357.790	-0.420	0.030	-0.300
2020/01/31 17:35:21.9	357.770	-0.380	0.020	-0.310
2020/01/31 17:35:22.0	357.760	-0.350	-0.010	-0.320
2020/01/31 17:35:22.1	357.740	-0.320	-0.030	-0.320
2020/01/31 17:35:22.2	357.730	-0.280	-0.050	-0.330
2020/01/31 17:35:22.3	357.710	-0.240	-0.080	-0.340
2020/01/31 17:35:22.4	357.700	-0.210	-0.110	-0.340
2020/01/31 17:35:22.5	357.690	-0.170	-0.150	-0.350
2020/01/31 17:35:22.6	357.680	-0.130	-0.180	-0.350
2020/01/31 17:35:22.7	357.670	-0.100	-0.220	-0.360
2020/01/31 17:35:22.8	357.660	-0.060	-0.270	-0.360
2020/01/31 17:35:22.9	357.650	-0.030	-0.310	-0.360
2020/01/31 17:35:23.0	357.640	0.010	-0.360	-0.370
2020/01/31 17:35:23.1	357.640	0.040	-0.410	-0.370
2020/01/31 17:35:23.2	357.630	0.070	-0.470	-0.380
2020/01/31 17:35:23.3	357.630	0.100	-0.520	-0.390
2020/01/31 17:35:23.4	357.630	0.130	-0.580	-0.400
2020/01/31 17:35:23.5	357.630	0.160	-0.640	-0.410
2020/01/31 17:35:23.6	357.630	0.180	-0.700	-0.430
2020/01/31 17:35:23.7	357.630	0.200	-0.760	-0.450
2020/01/31 17:35:23.8	357.640	0.220	-0.820	-0.480
2020/01/31 17:35:23.9	357.640	0.240	-0.880	-0.500
2020/01/31 17:35:24.0	357.650	0.250	-0.940	-0.530
2020/01/31 17:35:24.1	357.660	0.270	-1.000	-0.560
2020/01/31 17:35:24.2	357.670	0.280	-1.060	-0.600
2020/01/31 17:35:24.3	357.680	0.280	-1.120	-0.630
2020/01/31 17:35:24.4	357.700	0.290	-1.170	-0.670
2020/01/31 17:35:24.5	357.710	0.300	-1.220	-0.710
2020/01/31 17:35:24.6	357.730	0.300	-1.270	-0.750
2020/01/31 17:35:24.7	357.750	0.300	-1.320	-0.790
2020/01/31 17:35:24.8	357.760	0.300	-1.360	-0.830
2020/01/31 17:35:24.9	357.790	0.300	-1.390	-0.860
2020/01/31 17:35:25.0	357.810	0.300	-1.420	-0.900
2020/01/31 17:35:25.1	357.830	0.300	-1.450	-0.930
2020/01/31 17:35:25.2	357.860	0.300	-1.470	-0.960
2020/01/31 17:35:25.3	357.890	0.300	-1.480	-0.980
2020/01/31 17:35:25.4	357.910	0.300	-1.490	-1.000
2020/01/31 17:35:25.5	357.940	0.290	-1.500	-1.020
2020/01/31 17:35:25.6	357.970	0.290	-1.490	-1.040
2020/01/31 17:35:25.7	358.010	0.290	-1.490	-1.050
2020/01/31 17:35:25.8	358.020	0.290	-1.470	-1.060
2020/01/31 17:35:25.9	358.050	0.290	-1.450	-1.070
2020/01/31 17:35:26.0	358.090	0.290	-1.430	-1.070
2020/01/31 17:35:26.1	358.130	0.290	-1.400	-1.070
2020/01/31 17:35:26.2	358.160	0.290	-1.360	-1.070
2020/01/31 17:35:26.3	358.200	0.290	-1.310	-1.070
2020/01/31 17:35:26.4	358.240	0.300	-1.260	-1.060
2020/01/31 17:35:26.5	358.270	0.300	-1.210	-1.040
2020/01/31 17:35:26.6	358.310	0.300	-1.150	-1.030
2020/01/31 17:35:26.7	358.340	0.300	-1.080	-1.010
2020/01/31 17:35:26.8	358.380	0.300	-1.000	-0.980
2020/01/31 17:35:26.9	358.410	0.300	-0.920	-0.960
2020/01/31 17:35:27.0	358.440	0.290	-0.840	-0.920
2020/01/31 17:35:27.1	358.460	0.290	-0.750	-0.890
2020/01/31 17:35:27.2	358.490	0.290	-0.650	-0.850
2020/01/31 17:35:27.3	358.510	0.280	-0.550	-0.810
2020/01/31 17:35:27.4	358.530	0.270	-0.450	-0.770
2020/01/31 17:35:27.5	358.540	0.260	-0.350	-0.720
2020/01/31 17:35:27.6	358.550	0.250	-0.240	-0.670
2020/01/31 17:35:27.7	358.560	0.230	-0.130	-0.620
2020/01/31 17:35:27.8	358.560	0.220	-0.020	-0.560
2020/01/31 17:35:27.9	358.560	0.200	0.090	-0.510
2020/01/31 17:35:28.0	358.550	0.180	0.200	-0.450
2020/01/31 17:35:28.1	358.540	0.150	0.300	-0.400
2020/01/31 17:35:28.2	358.530	0.130	0.410	-0.340
2020/01/31 17:35:28.3	358.510	0.110	0.510	-0.280
2020/01/31 17:35:28.4	358.500	0.080	0.600	-0.220
2020/01/31 17:35:28.5	358.470	0.050	0.690	-0.170
2020/01/31 17:35:28.6	358.450	0.020	0.780	-0.110
2020/01/31 17:35:28.7	358.430	-0.010	0.850	-0.060
2020/01/31 17:35:28.8	358.390	-0.040	0.920	0.000
2020/01/31 17:35:28.9	358.370	-0.070	0.980	0.050
2020/01/31 17:35:29.0	358.340	-0.100	1.030	0.100
2020/01/31 17:35:29.1	358.310	-0.130	1.070	0.150
2020/01/31 17:35:29.2	358.280	-0.170	1.100	0.190
2020/01/31 17:35:29.3	358.250	-0.200	1.130	0.230
2020/01/31 17:35:29.4	358.230	-0.230	1.140	0.260
2020/01/31 17:35:29.5	358.200	-0.250	1.140	0.290
2020/01/31 17:35:29.6	358.180	-0.280	1.140	0.320
2020/01/31 17:35:29.7	358.150	-0.310	1.120	0.340
2020/01/31 17:35:29.8	358.130	-0.330	1.100	0.350
2020/01/31 17:35:29.9	358.110	-0.350	1.070	0.350
2020/01/31 17:35:30.0	358.090	-0.370	1.030	0.350
2020/01/31 17:35:30.1	358.070	-0.390	0.980	0.350
2020/01/31 17:35:30.2	358.060	-0.400	0.920	0.340
2020/01/31 17:35:30.3	358.050	-0.410	0.860	0.320
2020/01/31 17:35:30.4	358.030	-0.420	0.790	0.300
2020/01/31 17:35:30.5	358.020	-0.420	0.720	0.280
2020/01/31 17:35:30.6	358.010	-0.420	0.640	0.250
2020/01/31 17:35:30.7	358.000	-0.420	0.560	0.230
2020/01/31 17:35:30.8	357.990	-0.410	0.480	0.190
2020/01/31 17:35:30.9	357.970	-0.400	0.400	0.160
2020/01/31 17:35:31.0	357.960	-0.390	0.320	0.130
2020/01/31 17:35:31.1	357.940	-0.380	0.240	0.100
2020/01/31 17:35:31.2	357.930	-0.360	0.160	0.070
2020/01/31 17:35:31.3	357.910	-0.340	0.080	0.040
2020/01/31 17:35:31.4	357.890	-0.320	0.010	0.010
2020/01/31 17:35:31.5	357.870	-0.290	-0.060	-0.010
2020/01/31 17:35:31.6	357.850	-0.270	-0.130	-0.040
2020/01/31 17:35:31.7	357.820	-0.240	-0.190	-0.060
2020/01/31 17:35:31.8	357.800	-0.210	-0.250	-0.080
2020/01/31 17:35:31.9	357.780	-0.180	-0.300	-0.090
2020/01/31 17:35:32.0	357.750	-0.150	-0.350	-0.110
2020/01/31 17:35:32.1	357.730	-0.120	-0.390	-0.120
2020/01/31 17:35:32.2	357.710	-0.090	-0.430	-0.130
2020/01/31 17:35:32.3	357.690	-0.060	-0.460	-0.140
2020/01/31 17:35:32.4	357.670	-0.030	-0.490	-0.140
2020/01/31 17:35:32.5	357.660	-0.000	-0.520	-0.150
2020/01/31 17:35:32.6	357.640	0.030	-0.540	-0.150
2020/01/31 17:35:32.7	357.630	0.060	-0.560	-0.160
2020/01/31 17:35:32.8	357.620	0.080	-0.580	-0.170
2020/01/31 17:35:32.9	357.610	0.110	-0.600	-0.170
2020/01/31 17:35:33.0	357.610	0.130	-0.610	-0.180
2020/01/31 17:35:33.1	357.620	0.160	-0.630	-0.190
2020/01/31 17:35:33.2	357.620	0.180	-0.640	-0.200
2020/01/31 17:35:33.3	357.630	0.200	-0.660	-0.210
2020/01/31 17:35:33.4	357.640	0.220	-0.670	-0.220
2020/01/31 17:35:33.5	357.650	0.240	-0.690	-0.230
2020/01/31 17:35:33.6	357.670	0.260	-0.700	-0.250
2020/01/31 17:35:33.7	357.680	0.270	-0.720	-0.260
2020/01/31 17:35:33.8	357.710	0.290	-0.730	-0.280
2020/01/31 17:35:33.9	357.730	0.300	-0.740	-0.290
2020/01/31 17:35:34.0	357.750	0.310	-0.760	-0.310
2020/01/31 17:35:34.1	357.770	0.320	-0.770	-0.330
2020/01/31 17:35:34.2	357.790	0.320	-0.780	-0.350
2020/01/31 17:35:34.3	357.810	0.320	-0.790	-0.360
2020/01/31 17:35:34.4	357.830	0.320	-0.800	-0.380
2020/01/31 17:35:34.5	357.850	0.320	-0.810	-0.400
2020/01/31 17:35:34.6	357.870	0.310	-0.810	-0.410
2020/01/31 17:35:34.7	357.890	0.310	-0.810	-0.430
2020/01/31 17:35:34.8	357.910	0.300	-0.810	-0.440
2020/01/31 17:35:34.9	357.920	0.280	-0.800	-0.450
2020/01/31 17:35:35.0	357.930	0.270	-0.800	-0.450
2020/01/31 17:35:35.1	357.940	0.250	-0.780	-0.460
2020/01/31 17:35:35.2	357.950	0.230	-0.770	-0.460
2020/01/31 17:35:35.3	357.960	0.210	-0.750	-0.460
2020/01/31 17:35:35.4	357.960	0.190	-0.730	-0.450
2020/01/31 17:35:35.5	357.960	0.160	-0.700	-0.450
2020/01/31 17:35:35.6	357.960	0.130	-0.670	-0.440
2020/01/31 17:35:35.7	357.960	0.110	-0.640	-0.430
2020/01/31 17:35:35.8	357.950	0.080	-0.610	-0.410
2020/01/31 17:35:35.9	357.950	0.050	-0.580	-0.400
2020/01/31 17:35:36.0	357.940	0.020	-0.550	-0.380
2020/01/31 17:35:36.1	357.930	-0.010	-0.520	-0.360
2020/01/31 17:35:36.2	357.930	-0.050	-0.480	-0.350
2020/01/31 17:35:36.3	357.920	-0.080	-0.450	-0.330
2020/01/31 17:35:36.4	357.910	-0.110	-0.420	-0.320
2020/01/31 17:35:36.5	357.910	-0.130	-0.390	-0.300
2020/01/31 17:35:36.6	357.900	-0.160	-0.360	-0.290
2020/01/31 17:35:36.7	357.890	-0.190	-0.340	-0.280
2020/01/31 17:35:36.8	357.900	-0.210	-0.320	-0.270
2020/01/31 17:35:36.9	357.890	-0.240	-0.300	-0.260
2020/01/31 17:35:37.0	357.890	-0.260	-0.290	-0.250
2020/01/31 17:35:37.1	357.880	-0.270	-0.270	-0.250
2020/01/31 17:35:37.2	357.880	-0.290	-0.270	-0.250
2020/01/31 17:35:37.3	357.880	-0.300	-0.260	-0.260
2020/01/31 17:35:37.4	357.880	-0.310	-0.260	-0.260
2020/01/31 17:35:37.5	357.880	-0.310	-0.260	-0.270
2020/01/31 17:35:37.6	357.890	-0.320	-0.270	-0.280
2020/01/31 17:35:37.7	357.890	-0.320	-0.270	-0.290
2020/01/31 17:35:37.8	357.900	-0.310	-0.280	-0.310
2020/01/31 17:35:37.9	357.900	-0.300	-0.300	-0.320
2020/01/31 17:35:38.0	357.910	-0.290	-0.310	-0.340
2020/01/31 17:35:38.1	357.910	-0.280	-0.330	-0.360
2020/01/31 17:35:38.2	357.920	-0.260	-0.350	-0.380
2020/01/31 17:35:38.3	357.930	-0.250	-0.370	-0.400
2020/01/31 17:35:38.4	357.940	-0.220	-0.400	-0.420
2020/01/31 17:35:38.5	357.950	-0.200	-0.420	-0.440
2020/01/31 17:35:38.6	357.970	-0.170	-0.440	-0.470
2020/01/31 17:35:38.7	357.980	-0.150	-0.470	-0.490
2020/01/31 17:35:38.8	358.010	-0.120	-0.500	-0.520
2020/01/31 17:35:38.9	358.020	-0.090	-0.520	-0.550
2020/01/31 17:35:39.0	358.050	-0.050	-0.540	-0.580
2020/01/31 17:35:39.1	358.070	-0.020	-0.560	-0.610
2020/01/31 17:35:39.2	358.100	0.010	-0.580	-0.640
2020/01/31 17:35:39.3	358.130	0.050	-0.590	-0.670
2020/01/31 17:35:39.4	358.160	0.080	-0.600	-0.710
2020/01/31 17:35:39.5	358.190	0.120	-0.610	-0.740
2020/01/31 17:35:39.6	358.230	0.150	-0.620	-0.770
2020/01/31 17:35:39.7	358.270	0.180	-0.620	-0.800
2020/01/31 17:35:39.8	358.300	0.210	-0.610	-0.840
2020/01/31 17:35:39.9	358.340	0.240	-0.600	-0.860
2020/01/31 17:35:40.0	358.380	0.270	-0.580	-0.890
2020/01/31 17:35:40.1	358.420	0.300	-0.560	-0.910
2020/01/31 17:35:40.2	358.450	0.320	-0.540	-0.930
2020/01/31 17:35:40.3	358.490	0.340	-0.510	-0.940
2020/01/31 17:35:40.4	358.520	0.360	-0.470	-0.940
2020/01/31 17:35:40.5	358.550	0.380	-0.430	-0.940
2020/01/31 17:35:40.6	358.580	0.390	-0.380	-0.930
2020/01/31 17:35:40.7	358.600	0.400	-0.320	-0.920
2020/01/31 17:35:40.8	358.600	0.400	-0.270	-0.900
2020/01/31 17:35:40.9	358.610	0.400	-0.200	-0.880
2020/01/31 17:35:41.0	358.620	0.400	-0.130	-0.850
2020/01/31 17:35:41.1	358.630	0.390	-0.050	-0.810
2020/01/31 17:35:41.2	358.620	0.380	0.030	-0.780
2020/01/31 17:35:41.3	358.620	0.360	0.110	-0.730
2020/01/31 17:35:41.4	358.610	0.340	0.190	-0.690
2020/01/31 17:35:41.5	358.590	0.320	0.280	-0.640
2020/01/31 17:35:41.6	358.570	0.290	0.360	-0.590
2020/01/31 17:35:41.7	358.540	0.250	0.450	-0.540
2020/01/31 17:35:41.8	358.520	0.220	0.530	-0.490
2020/01/31 17:35:41.9	358.490	0.180	0.610	-0.430
2020/01/31 17:35:42.0	358.450	0.140	0.690	-0.380
2020/01/31 17:35:42.1	358.410	0.090	0.760	-0.330
2020/01/31 17:35:42.2	358.360	0.050	0.830	-0.280
2020/01/31 17:35:42.3	358.310	0.000	0.890	-0.230
2020/01/31 17:35:42.4	358.260	-0.050	0.940	-0.180
2020/01/31 17:35:42.5	358.210	-0.090	0.990	-0.140
2020/01/31 17:35:42.6	358.160	-0.140	1.030	-0.100
2020/01/31 17:35:42.7	358.100	-0.190	1.060	-0.060
2020/01/31 17:35:42.8	358.060	-0.240	1.080	-0.020
2020/01/31 17:35:42.9	358.000	-0.280	1.090	0.020
2020/01/31 17:35:43.0	357.950	-0.320	1.090	0.040
2020/01/31 17:35:43.1	357.890	-0.360	1.080	0.060
2020/01/31 17:35:43.2	357.840	-0.400	1.060	0.080
2020/01/31 17:35:43.3	357.790	-0.430	1.030	0.090
2020/01/31 17:35:43.4	357.750	-0.460	0.990	0.100
2020/01/31 17:35:43.5	357.700	-0.480	0.940	0.100
2020/01/31 17:35:43.6	357.660	-0.500	0.870	0.090
2020/01/31 17:35:43.7	357.620	-0.510	0.800	0.080
2020/01/31 17:35:43.8	357.570	-0.520	0.720	0.060
2020/01/31 17:35:43.9	357.540	-0.520	0.630	0.050
2020/01/31 17:35:44.0	357.510	-0.520	0.530	0.030
2020/01/31 17:35:44.1	357.490	-0.510	0.420	0.010
2020/01/31 17:35:44.2	357.470	-0.490	0.300	-0.010
2020/01/31 17:35:44.3	357.450	-0.470	0.180	-0.040
2020/01/31 17:35:44.4	357.430	-0.440	0.050	-0.060
2020/01/31 17:35:44.5	357.410	-0.410	-0.080	-0.080
2020/01/31 17:35:44.6	357.400	-0.380	-0.210	-0.100
2020/01/31 17:35:44.7	357.380	-0.340	-0.340	-0.120
2020/01/31 17:35:44.8	357.360	-0.300	-0.470	-0.150
2020/01/31 17:35:44.9	357.350	-0.260	-0.600	-0.170
2020/01/31 17:35:45.0	357.340	-0.210	-0.730	-0.190
2020/01/31 17:35:45.1	357.330	-0.170	-0.850	-0.220
2020/01/31 17:35:45.2	357.320	-0.120	-0.970	-0.240
2020/01/31 17:35:45.3	357.320	-0.070	-1.090	-0.270
2020/01/31 17:35:45.4	357.310	-0.020	-1.190	-0.300
2020/01/31 17:35:45.5	357.310	0.030	-1.290	-0.330
2020/01/31 17:35:45.6	357.300	0.070	-1.380	-0.360
2020/01/31 17:35:45.7	357.300	0.120	-1.460	-0.390
2020/01/31 17:35:45.8	357.300	0.160	-1.530	-0.420
2020/01/31 17:35:45.9	357.300	0.200	-1.590	-0.450
2020/01/31 17:35:46.0	357.300	0.240	-1.640	-0.480
2020/01/31 17:35:46.1	357.310	0.270	-1.680	-0.520
2020/01/31 17:35:46.2	357.310	0.310	-1.710	-0.550
2020/01/31 17:35:46.3	357.320	0.340	-1.730	-0.580
2020/01/31 17:35:46.4	357.330	0.360	-1.730	-0.600
2020/01/31 17:35:46.5	357.340	0.380	-1.730	-0.630
2020/01/31 17:35:46.6	357.360	0.400	-1.710	-0.650
2020/01/31 17:35:46.7	357.370	0.420	-1.690	-0.670
2020/01/31 17:35:46.8	357.380	0.430	-1.650	-0.690
2020/01/31 17:35:46.9	357.400	0.430	-1.600	-0.710
2020/01/31 17:35:47.0	357.420	0.440	-1.550	-0.720
2020/01/31 17:35:47.1	357.450	0.440	-1.490	-0.730
2020/01/31 17:35:47.2	357.470	0.430	-1.420	-0.740
2020/01/31 17:35:47.3	357.500	0.430	-1.350	-0.740
2020/01/31 17:35:47.4	357.530	0.420	-1.270	-0.740
2020/01/31 17:35:47.5	357.560	0.400	-1.180	-0.740
2020/01/31 17:35:47.6	357.590	0.390	-1.090	-0.740
2020/01/31 17:35:47.7	357.630	0.370	-1.000	-0.740
2020/01/31 17:35:47.8	357.660	0.350	-0.910	-0.730
2020/01/31 17:35:47.9	357.700	0.330	-0.820	-0.720
2020/01/31 17:35:48.0	357.740	0.300	-0.720	-0.710
2020/01/31 17:35:48.1	357.780	0.280	-0.630	-0.710
2020/01/31 17:35:48.2	357.820	0.250	-0.540	-0.700
2020/01/31 17:35:48.3	357.860	0.220	-0.450	-0.690
2020/01/31 17:35:48.4	357.900	0.190	-0.370	-0.680
2020/01/31 17:35:48.5	357.940	0.160	-0.290	-0.670
2020/01/31 17:35:48.6	357.980	0.130	-0.210	-0.660
2020/01/31 17:35:48.7	358.020	0.090	-0.140	-0.660
2020/01/31 17:35:48.8	358.070	0.060	-0.070	-0.650
2020/01/31 17:35:48.9	358.100	0.030	-0.000	-0.640
2020/01/31 17:35:49.0	358.140	-0.000	0.060	-0.630
2020/01/31 17:35:49.1	358.180	-0.040	0.110	-0.620
2020/01/31 17:35:49.2	358.210	-0.070	0.160	-0.610
2020/01/31 17:35:49.3	358.240	-0.100	0.210	-0.600
2020/01/31 17:35:49.4	358.280	-0.130	0.250	-0.600
2020/01/31 17:35:49.5	358.310	-0.160	0.280	-0.590
2020/01/31 17:35:49.6	358.340	-0.190	0.310	-0.580
2020/01/31 17:35:49.7	358.360	-0.220	0.330	-0.570
2020/01/31 17:35:49.8	358.400	-0.240	0.350	-0.550
2020/01/31 17:35:49.9	358.420	-0.270	0.370	-0.540
2020/01/31 17:35:50.0	358.440	-0.290	0.380	-0.520
2020/01/31 17:35:50.1	358.460	-0.310	0.390	-0.510
2020/01/31 17:35:50.2	358.480	-0.330	0.390	-0.490
2020/01/31 17:35:50.3	358.490	-0.350	0.390	-0.470
2020/01/31 17:35:50.4	358.500	-0.360	0.380	-0.450
2020/01/31 17:35:50.5	358.500	-0.370	0.380	-0.430
2020/01/31 17:35:50.6	358.510	-0.390	0.370	-0.410
2020/01/31 17:35:50.7	358.510	-0.390	0.350	-0.390
2020/01/31 17:35:50.8	358.520	-0.400	0.340	-0.370
2020/01/31 17:35:50.9	358.510	-0.410	0.320	-0.350
2020/01/31 17:35:51.0	358.500	-0.410	0.300	-0.320
2020/01/31 17:35:51.1	358.490	-0.410	0.280	-0.300
2020/01/31 17:35:51.2	358.480	-0.400	0.260	-0.280
2020/01/31 17:35:51.3	358.460	-0.400	0.240	-0.250
2020/01/31 17:35:51.4	358.440	-0.390	0.220	-0.220
2020/01/31 17:35:51.5	358.420	-0.380	0.200	-0.200
2020/01/31 17:35:51.6	358.390	-0.370	0.180	-0.170
2020/01/31 17:35:51.7	358.360	-0.360	0.160	-0.140
2020/01/31 17:35:51.8	358.340	-0.340	0.140	-0.100
2020/01/31 17:35:51.9	358.300	-0.330	0.120	-0.070
2020/01/31 17:35:52.0	358.260	-0.310	0.110	-0.040
2020/01/31 17:35:52.1	358.220	-0.280	0.090	0.000
2020/01/31 17:35:52.2	358.180	-0.260	0.080	0.040
2020/01/31 17:35:52.3	358.140	-0.240	0.060	0.080
2020/01/31 17:35:52.4	358.090	-0.210	0.050	0.120
2020/01/31 17:35:52.5	358.040	-0.180	0.040	0.160
2020/01/31 17:35:52.6	357.980	-0.150	0.030	0.200
2020/01/31 17:35:52.7	357.930	-0.130	0.030	0.240
2020/01/31 17:35:52.8	357.860	-0.100	0.020	0.280
2020/01/31 17:35:52.9	357.800	-0.070	0.020	0.320
2020/01/31 17:35:53.0	357.740	-0.040	0.010	0.360
2020/01/31 17:35:53.1	357.680	-0.010	0.010	0.400
2020/01/31 17:35:53.2	357.610	0.020	0.010	0.430
2020/01/31 17:35:53.3	357.550	0.050	0.000	0.470
2020/01/31 17:35:53.4	357.480	0.080	0.000	0.500
2020/01/31 17:35:53.5	357.410	0.100	-0.000	0.520
2020/01/31 17:35:53.6	357.350	0.130	-0.010	0.550
2020/01/31 17:35:53.7	357.280	0.150	-0.010	0.570
2020/01/31 17:35:53.8	357.220	0.180	-0.020	0.580
2020/01/31 17:35:53.9	357.150	0.200	-0.020	0.590
2020/01/31 17:35:54.0	357.090	0.220	-0.030	0.600
2020/01/31 17:35:54.1	357.030	0.240	-0.040	0.600
2020/01/31 17:35:54.2	356.970	0.260	-0.050	0.600
2020/01/31 17:35:54.3	356.910	0.270	-0.060	0.590
2020/01/31 17:35:54.4	356.860	0.290	-0.080	0.580
2020/01/31 17:35:54.5	356.810	0.300	-0.100	0.560
2020/01/31 17:35:54.6	356.770	0.310	-0.120	0.540
2020/01/31 17:35:54.7	356.730	0.320	-0.140	0.510
2020/01/31 17:35:54.8	356.670	0.330	-0.170	0.480
2020/01/31 17:35:54.9	356.640	0.340	-0.190	0.440
2020/01/31 17:35:55.0	356.610	0.340	-0.220	0.400
2020/01/31 17:35:55.1	356.590	0.350	-0.260	0.350
2020/01/31 17:35:55.2	356.570	0.350	-0.290	0.310
2020/01/31 17:35:55.3	356.560	0.360	-0.330	0.250
2020/01/31 17:35:55.4	356.550	0.360	-0.370	0.200
2020/01/31 17:35:55.5	356.550	0.360	-0.410	0.140
2020/01/31 17:35:55.6	356.560	0.360	-0.450	0.070
2020/01/31 17:35:55.7	356.570	0.370	-0.490	0.010
2020/01/31 17:35:55.8	356.570	0.370	-0.530	-0.060
2020/01/31 17:35:55.9	356.590	0.370	-0.570	-0.130
2020/01/31 17:35:56.0	356.620	0.370	-0.610	-0.200
2020/01/31 17:35:56.1	356.650	0.370	-0.650	-0.280
2020/01/31 17:35:56.2	356.680	0.370	-0.690	-0.350
2020/01/31 17:35:56.3	356.720	0.360	-0.720	-0.420
2020/01/31 17:35:56.4	356.770	0.360	-0.750	-0.490
2020/01/31 17:35:56.5	356.820	0.360	-0.780	-0.570
2020/01/31 17:35:56.6	356.870	0.360	-0.810	-0.630
2020/01/31 17:35:56.7	356.920	0.350	-0.830	-0.700
2020/01/31 17:35:56.8	356.980	0.350	-0.850	-0.770
2020/01/31 17:35:56.9	357.030	0.340	-0.860	-0.830
2020/01/31 17:35:57.0	357.080	0.330	-0.870	-0.890
2020/01/31 17:35:57.1	357.140	0.330	-0.880	-0.940
2020/01/31 17:35:57.2	357.190	0.320	-0.880	-1.000
2020/01/31 17:35:57.3	357.240	0.300	-0.870	-1.040
2020/01/31 17:35:57.4	357.290	0.290	-0.860	-1.080
2020/01/31 17:35:57.5	357.330	0.280	-0.850	-1.120
2020/01/31 17:35:57.6	357.380	0.260	-0.830	-1.150
2020/01/31 17:35:57.7	357.420	0.240	-0.800	-1.180
2020/01/31 17:35:57.8	357.460	0.220	-0.770	-1.190
2020/01/31 17:35:57.9	357.500	0.200	-0.740	-1.210
2020/01/31 17:35:58.0	357.530	0.170	-0.700	-1.220
2020/01/31 17:35:58.1	357.560	0.150	-0.660	-1.230
2020/01/31 17:35:58.2	357.590	0.120	-0.620	-1.230
2020/01/31 17:35:58.3	357.620	0.090	-0.580	-1.230
2020/01/31 17:35:58.4	357.640	0.060	-0.530	-1.230
2020/01/31 17:35:58.5	357.660	0.020	-0.490	-1.220
2020/01/31 17:35:58.6	357.680	-0.010	-0.440	-1.220
2020/01/31 17:35:58.7	357.700	-0.050	-0.390	-1.210
2020/01/31 17:35:58.8	357.730	-0.080	-0.340	-1.200
2020/01/31 17:35:58.9	357.740	-0.120	-0.300	-1.190
2020/01/31 17:35:59.0	357.750	-0.160	-0.250	-1.170
2020/01/31 17:35:59.1	357.760	-0.190	-0.210	-1.160
2020/01/31 17:35:59.2	357.770	-0.230	-0.170	-1.150
2020/01/31 17:35:59.3	357.780	-0.270	-0.130	-1.130
2020/01/31 17:35:59.4	357.790	-0.300	-0.100	-1.110
2020/01/31 17:35:59.5	357.800	-0.340	-0.070	-1.090
2020/01/31 17:35:59.6	357.800	-0.370	-0.040	-1.070
2020/01/31 17:35:59.7	357.810	-0.400	-0.010	-1.050
2020/01/31 17:35:59.8	357.820	-0.430	0.010	-1.030
2020/01/31 17:35:59.9	357.830	-0.460	0.030	-1.010
2020/01/31 17:36:00.0	357.830	-0.480	0.050	-0.980
2020/01/31 17:36:00.1	357.830	-0.500	0.060	-0.960
2020/01/31 17:36:00.2	357.830	-0.520	0.070	-0.930
2020/01/31 17:36:00.3	357.830	-0.530	0.070	-0.900
2020/01/31 17:36:00.4	357.830	-0.540	0.080	-0.870
2020/01/31 17:36:00.5	357.830	-0.550	0.080	-0.830
2020/01/31 17:36:00.6	357.820	-0.550	0.070	-0.800
2020/01/31 17:36:00.7	357.820	-0.550	0.070	-0.760
2020/01/31 17:36:00.8	357.800	-0.540	0.060	-0.720
2020/01/31 17:36:00.9	357.790	-0.530	0.050	-0.670
2020/01/31 17:36:01.0	357.780	-0.520	0.050	-0.630
2020/01/31 17:36:01.1	357.760	-0.500	0.040	-0.580
2020/01/31 17:36:01.2	357.750	-0.480	0.030	-0.530
2020/01/31 17:36:01.3	357.730	-0.460	0.020	-0.480
2020/01/31 17:36:01.4	357.710	-0.430	0.010	-0.430
2020/01/31 17:36:01.5	357.690	-0.400	-0.000	-0.380
2020/01/31 17:36:01.6	357.670	-0.370	-0.010	-0.330
2020/01/31 17:36:01.7	357.650	-0.340	-0.020	-0.270
2020/01/31 17:36:01.8	357.620	-0.300	-0.030	-0.220
2020/01/31 17:36:01.9	357.600	-0.260	-0.040	-0.170
2020/01/31 17:36:02.0	357.580	-0.220	-0.050	-0.120
2020/01/31 17:36:02.1	357.550	-0.180	-0.060	-0.070
2020/01/31 17:36:02.2	357.530	-0.140	-0.060	-0.020
2020/01/31 17:36:02.3	357.510	-0.100	-0.070	0.020
2020/01/31 17:36:02.4	357.480	-0.060	-0.080	0.060
2020/01/31 17:36:02.5	357.460	-0.030	-0.080	0.100
2020/01/31 17:36:02.6	357.430	0.010	-0.090	0.130
2020/01/31 17:36:02.7	357.410	0.050	-0.090	0.160
2020/01/31 17:36:02.8	357.390	0.080	-0.100	0.190
2020/01/31 17:36:02.9	357.360	0.120	-0.100	0.220
2020/01/31 17:36:03.0	357.340	0.150	-0.100	0.240
2020/01/31 17:36:03.1	357.310	0.180	-0.110	0.270
2020/01/31 17:36:03.2	357.280	0.200	-0.110	0.290
2020/01/31 17:36:03.3	357.260	0.230	-0.110	0.300
2020/01/31 17:36:03.4	357.230	0.250	-0.110	0.320
2020/01/31 17:36:03.5	357.200	0.260	-0.110	0.330
2020/01/31 17:36:03.6	357.180	0.280	-0.110	0.350
2020/01/31 17:36:03.7	357.150	0.290	-0.110	0.360
2020/01/31 17:36:03.8	357.130	0.300	-0.110	0.370
2020/01/31 17:36:03.9	357.100	0.300	-0.110	0.380
2020/01/31 17:36:04.0	357.080	0.300	-0.110	0.390
2020/01/31 17:36:04.1	357.060	0.300	-0.110	0.390
2020/01/31 17:36:04.2	357.040	0.290	-0.110	0.390
2020/01/31 17:36:04.3	357.020	0.290	-0.110	0.390
2020/01/31 17:36:04.4	357.000	0.270	-0.110	0.390
2020/01/31 17:36:04.5	356.980	0.260	-0.110	0.380
2020/01/31 17:36:04.6	356.960	0.240	-0.120	0.370
2020/01/31 17:36:04.7	356.940	0.230	-0.120	0.360
2020/01/31 17:36:04.8	356.920	0.210	-0.120	0.350
2020/01/31 17:36:04.9	356.910	0.190	-0.130	0.330
2020/01/31 17:36:05.0	356.900	0.160	-0.130	0.310
2020/01/31 17:36:05.1	356.890	0.140	-0.140	0.280
2020/01/31 17:36:05.2	356.880	0.110	-0.140	0.250
2020/01/31 17:36:05.3	356.870	0.090	-0.150	0.220
2020/01/31 17:36:05.4	356.860	0.060	-0.150	0.190
2020/01/31 17:36:05.5	356.850	0.040	-0.160	0.150
2020/01/31 17:36:05.6	356.850	0.010	-0.170	0.120
2020/01/31 17:36:05.7	356.840	-0.010	-0.180	0.080
2020/01/31 17:36:05.8	356.820	-0.040	-0.180	0.040
2020/01/31 17:36:05.9	356.820	-0.060	-0.190	-0.000
2020/01/31 17:36:06.0	356.820	-0.080	-0.200	-0.040
2020/01/31 17:36:06.1	356.820	-0.100	-0.210	-0.080
2020/01/31 17:36:06.2	356.830	-0.120	-0.220	-0.110
2020/01/31 17:36:06.3	356.830	-0.130	-0.230	-0.150
2020/01/31 17:36:06.4	356.840	-0.140	-0.250	-0.190
2020/01/31 17:36:06.5	356.850	-0.150	-0.260	-0.230
2020/01/31 17:36:06.6	356.860	-0.160	-0.280	-0.260
2020/01/31 17:36:06.7	356.870	-0.160	-0.300	-0.300
2020/01/31 17:36:06.8	356.890	-0.170	-0.310	-0.340
2020/01/31 17:36:06.9	356.910	-0.160	-0.340	-0.380
2020/01/31 17:36:07.0	356.930	-0.160	-0.360	-0.420
2020/01/31 17:36:07.1	356.960	-0.150	-0.390	-0.450
2020/01/31 17:36:07.2	356.980	-0.140	-0.420	-0.490
2020/01/31 17:36:07.3	357.010	-0.130	-0.450	-0.530
2020/01/31 17:36:07.4	357.050	-0.110	-0.490	-0.570
2020/01/31 17:36:07.5	357.080	-0.090	-0.520	-0.610
2020/01/31 17:36:07.6	357.120	-0.070	-0.560	-0.650
2020/01/31 17:36:07.7	357.160	-0.050	-0.600	-0.690
2020/01/31 17:36:07.8	357.200	-0.020	-0.640	-0.730
2020/01/31 17:36:07.9	357.240	0.010	-0.680	-0.770
2020/01/31 17:36:08.0	357.290	0.040	-0.730	-0.810
2020/01/31 17:36:08.1	357.320	0.070	-0.770	-0.840
2020/01/31 17:36:08.2	357.360	0.100	-0.810	-0.870
2020/01/31 17:36:08.3	357.400	0.130	-0.840	-0.900
2020/01/31 17:36:08.4	357.440	0.160	-0.880	-0.930
2020/01/31 17:36:08.5	357.470	0.190	-0.910	-0.950
2020/01/31 17:36:08.6	357.500	0.220	-0.930	-0.970
2020/01/31 17:36:08.7	357.530	0.250	-0.960	-0.990
2020/01/31 17:36:08.8	357.570	0.270	-0.970	-1.010
2020/01/31 17:36:08.9	357.590	0.300	-0.980	-1.020
2020/01/31 17:36:09.0	357.620	0.320	-0.990	-1.030
2020/01/31 17:36:09.1	357.640	0.350	-0.990	-1.040
2020/01/31 17:36:09.2	357.660	0.360	-0.980	-1.040
2020/01/31 17:36:09.3	357.670	0.380	-0.970	-1.040
2020/01/31 17:36:09.4	357.680	0.390	-0.940	-1.030
2020/01/31 17:36:09.5	357.690	0.400	-0.910	-1.030
2020/01/31 17:36:09.6	357.700	0.410	-0.880	-1.010
2020/01/31 17:36:09.7	357.700	0.420	-0.830	-0.990
2020/01/31 17:36:09.8	357.700	0.420	-0.780	-0.970
2020/01/31 17:36:09.9	357.700	0.410	-0.720	-0.940
2020/01/31 17:36:10.0	357.690	0.410	-0.660	-0.910
2020/01/31 17:36:10.1	357.690	0.400	-0.590	-0.880
2020/01/31 17:36:10.2	357.680	0.390	-0.510	-0.840
2020/01/31 17:36:10.3	357.660	0.370	-0.430	-0.800
2020/01/31 17:36:10.4	357.650	0.350	-0.350	-0.750
2020/01/31 17:36:10.5	357.630	0.330	-0.270	-0.710
2020/01/31 17:36:10.6	357.620	0.310	-0.180	-0.660
2020/01/31 17:36:10.7	357.600	0.280	-0.090	-0.610
2020/01/31 17:36:10.8	357.590	0.250	-0.010	-0.560
2020/01/31 17:36:10.9	357.570	0.220	0.080	-0.510
2020/01/31 17:36:11.0	357.550	0.190	0.160	-0.460
2020/01/31 17:36:11.1	357.530	0.150	0.240	-0.410
2020/01/31 17:36:11.2	357.510	0.110	0.320	-0.360
2020/01/31 17:36:11.3	357.490	0.080	0.390	-0.320
2020/01/31 17:36:11.4	357.470	0.040	0.460	-0.270
2020/01/31 17:36:11.5	357.450	-0.000	0.520	-0.230
2020/01/31 17:36:11.6	357.430	-0.040	0.570	-0.190
2020/01/31 17:36:11.7	357.420	-0.080	0.610	-0.150
2020/01/31 17:36:11.8	357.410	-0.110	0.650	-0.120
2020/01/31 17:36:11.9	357.400	-0.150	0.680	-0.090
2020/01/31 17:36:12.0	357.380	-0.180	0.700	-0.060
2020/01/31 17:36:12.1	357.360	-0.220	0.720	-0.040
2020/01/31 17:36:12.2	357.350	-0.250	0.720	-0.020
2020/01/31 17:36:12.3	357.330	-0.280	0.720	-0.000
2020/01/31 17:36:12.4	357.320	-0.300	0.710	0.000
2020/01/31 17:36:12.5	357.300	-0.330	0.690	0.010
2020/01/31 17:36:12.6	357.290	-0.350	0.660	0.010
2020/01/31 17:36:12.7	357.270	-0.370	0.620	0.010
2020/01/31 17:36:12.8	357.260	-0.380	0.580	0.000
2020/01/31 17:36:12.9	357.240	-0.390	0.530	-0.010
2020/01/31 17:36:13.0	357.230	-0.400	0.480	-0.020
2020/01/31 17:36:13.1	357.220	-0.400	0.420	-0.040
2020/01/31 17:36:13.2	357.210	-0.400	0.350	-0.050
2020/01/31 17:36:13.3	357.190	-0.390	0.280	-0.070
2020/01/31 17:36:13.4	357.180	-0.380	0.210	-0.090
2020/01/31 17:36:13.5	357.170	-0.370	0.130	-0.110
2020/01/31 17:36:13.6	357.160	-0.350	0.050	-0.130
2020/01/31 17:36:13.7	357.150	-0.330	-0.020	-0.150
2020/01/31 17:36:13.8	357.140	-0.310	-0.110	-0.170
2020/01/31 17:36:13.9	357.130	-0.280	-0.190	-0.190
2020/01/31 17:36:14.0	357.120	-0.250	-0.270	-0.210
2020/01/31 17:36:14.1	357.120	-0.220	-0.350	-0.220
2020/01/31 17:36:14.2	357.110	-0.190	-0.420	-0.240
2020/01/31 17:36:14.3	357.110	-0.150	-0.500	-0.250
2020/01/31 17:36:14.4	357.100	-0.110	-0.560	-0.260
2020/01/31 17:36:14.5	357.100	-0.080	-0.630	-0.270
2020/01/31 17:36:14.6	357.090	-0.040	-0.690	-0.270
2020/01/31 17:36:14.7	357.090	0.000	-0.740	-0.280
2020/01/31 17:36:14.8	357.080	0.040	-0.790	-0.280
2020/01/31 17:36:14.9	357.080	0.080	-0.830	-0.280
2020/01/31 17:36:15.0	357.070	0.120	-0.870	-0.280
2020/01/31 17:36:15.1	357.070	0.160	-0.900	-0.270
2020/01/31 17:36:15.2	357.070	0.190	-0.920	-0.270
2020/01/31 17:36:15.3	357.070	0.220	-0.930	-0.260
2020/01/31 17:36:15.4	357.060	0.250	-0.940	-0.260
2020/01/31 17:36:15.5	357.060	0.280	-0.940	-0.250
2020/01/31 17:36:15.6	357.050	0.300	-0.930	-0.240
2020/01/31 17:36:15.7	357.050	0.320	-0.920	-0.230
2020/01/31 17:36:15.8	357.040	0.340	-0.900	-0.220
2020/01/31 17:36:15.9	357.040	0.350	-0.870	-0.210
2020/01/31 17:36:16.0	357.030	0.360	-0.840	-0.200
2020/01/31 17:36:16.1	357.030	0.370	-0.810	-0.190
2020/01/31 17:36:16.2	357.030	0.370	-0.770	-0.180
2020/01/31 17:36:16.3	357.030	0.370	-0.730	-0.170
2020/01/31 17:36:16.4	357.030	0.360	-0.680	-0.160
2020/01/31 17:36:16.5	357.030	0.350	-0.630	-0.150
2020/01/31 17:36:16.6	357.030	0.340	-0.580	-0.140
2020/01/31 17:36:16.7	357.030	0.320	-0.530	-0.130
2020/01/31 17:36:16.8	357.040	0.300	-0.480	-0.110
2020/01/31 17:36:16.9	357.040	0.280	-0.430	-0.100
2020/01/31 17:36:17.0	357.050	0.250	-0.380	-0.090
2020/01/31 17:36:17.1	357.050	0.220	-0.330	-0.080
2020/01/31 17:36:17.2	357.060	0.190	-0.290	-0.070
2020/01/31 17:36:17.3	357.070	0.160	-0.240	-0.060
2020/01/31 17:36:17.4	357.080	0.130	-0.200	-0.050
2020/01/31 17:36:17.5	357.090	0.090	-0.160	-0.040
2020/01/31 17:36:17.6	357.100	0.050	-0.120	-0.040
2020/01/31 17:36:17.7	357.110	0.020	-0.090	-0.030
2020/01/31 17:36:17.8	357.130	-0.020	-0.060	-0.020
2020/01/31 17:36:17.9	357.150	-0.060	-0.030	-0.020
2020/01/31 17:36:18.0	357.160	-0.100	-0.010	-0.010
2020/01/31 17:36:18.1	357.170	-0.140	0.010	-0.010
2020/01/31 17:36:18.2	357.180	-0.170	0.030	-0.010
2020/01/31 17:36:18.3	357.190	-0.210	0.050	-0.010
2020/01/31 17:36:18.4	357.200	-0.240	0.060	-0.010
2020/01/31 17:36:18.5	357.210	-0.280	0.070	-0.020
2020/01/31 17:36:18.6	357.210	-0.310	0.070	-0.020
2020/01/31 17:36:18.7	357.220	-0.340	0.070	-0.020
2020/01/31 17:36:18.8	357.220	-0.360	0.080	-0.030
2020/01/31 17:36:18.9	357.220	-0.390	0.080	-0.030
2020/01/31 17:36:19.0	357.220	-0.410	0.070	-0.030
2020/01/31 17:36:19.1	357.220	-0.420	0.070	-0.040
2020/01/31 17:36:19.2	357.220	-0.440	0.060	-0.040
2020/01/31 17:36:19.3	357.210	-0.440	0.060	-0.040
2020/01/31 17:36:19.4	357.200	-0.450	0.050	-0.030
2020/01/31 17:36:19.5	357.190	-0.450	0.040	-0.030
2020/01/31 17:36:19.6	357.180	-0.440	0.030	-0.020
2020/01/31 17:36:19.7	357.170	-0.430	0.020	-0.010
2020/01/31 17:36:19.8	357.150	-0.420	0.010	0.000
2020/01/31 17:36:19.9	357.130	-0.400	0.000	0.020
2020/01/31 17:36:20.0	357.120	-0.380	-0.010	0.040
2020/01/31 17:36:20.1	357.100	-0.360	-0.020	0.060
2020/01/31 17:36:20.2	357.090	-0.330	-0.030	0.080
2020/01/31 17:36:20.3	357.070	-0.290	-0.040	0.100
2020/01/31 17:36:20.4	357.060	-0.260	-0.050	0.120
2020/01/31 17:36:20.5	357.040	-0.220	-0.070	0.150
2020/01/31 17:36:20.6	357.030	-0.180	-0.080	0.170
2020/01/31 17:36:20.7	357.020	-0.140	-0.100	0.180
2020/01/31 17:36:20.8	357.010	-0.100	-0.120	0.200
2020/01/31 17:36:20.9	357.000	-0.060	-0.140	0.220
2020/01/31 17:36:21.0	356.990	-0.010	-0.160	0.230
2020/01/31 17:36:21.1	356.990	0.030	-0.190	0.230
2020/01/31 17:36:21.2	356.990	0.070	-0.210	0.240
2020/01/31 17:36:21.3	357.000	0.120	-0.240	0.240
2020/01/31 17:36:21.4	357.010	0.160	-0.270	0.240
2020/01/31 17:36:21.5	357.010	0.200	-0.310	0.230
2020/01/31 17:36:21.6	357.030	0.240	-0.340	0.220
2020/01/31 17:36:21.7	357.040	0.280	-0.370	0.210
2020/01/31 17:36:21.8	357.060	0.310	-0.400	0.200
2020/01/31 17:36:21.9	357.080	0.350	-0.440	0.190
2020/01/31 17:36:22.0	357.090	0.380	-0.470	0.170
2020/01/31 17:36:22.1	357.110	0.410	-0.500	0.160
2020/01/31 17:36:22.2	357.130	0.430	-0.530	0.140
2020/01/31 17:36:22.3	357.150	0.450	-0.560	0.120
2020/01/31 17:36:22.4	357.160	0.470	-0.580	0.090
2020/01/31 17:36:22.5	357.180	0.480	-0.610	0.070
2020/01/31 17:36:22.6	357.200	0.490	-0.630	0.050
2020/01/31 17:36:22.7	357.210	0.500	-0.640	0.020
2020/01/31 17:36:22.8	357.220	0.500	-0.650	-0.010
2020/01/31 17:36:22.9	357.230	0.500	-0.660	-0.030
2020/01/31 17:36:23.0	357.250	0.500	-0.670	-0.060
2020/01/31 17:36:23.1	357.260	0.490	-0.670	-0.090
2020/01/31 17:36:23.2	357.270	0.480	-0.670	-0.120
2020/01/31 17:36:23.3	357.280	0.460	-0.660	-0.150
2020/01/31 17:36:23.4	357.290	0.440	-0.650	-0.180
2020/01/31 17:36:23.5	357.300	0.420	-0.630	-0.200
2020/01/31 17:36:23.6	357.310	0.400	-0.610	-0.230
2020/01/31 17:36:23.7	357.320	0.380	-0.590	-0.260
2020/01/31 17:36:23.8	357.340	0.350	-0.560	-0.280
2020/01/31 17:36:23.9	357.350	0.320	-0.530	-0.300
2020/01/31 17:36:24.0	357.360	0.290	-0.500	-0.330
2020/01/31 17:36:24.1	357.370	0.260	-0.460	-0.350
2020/01/31 17:36:24.2	357.380	0.230	-0.420	-0.370
2020/01/31 17:36:24.3	357.390	0.200	-0.390	-0.380
2020/01/31 17:36:24.4	357.400	0.160	-0.350	-0.400
2020/01/31 17:36:24.5	357.400	0.130	-0.310	-0.410
2020/01/31 17:36:24.6	357.410	0.100	-0.270	-0.430
2020/01/31 17:36:24.7	357.420	0.060	-0.240	-0.440
2020/01/31 17:36:24.8	357.440	0.030	-0.200	-0.450
2020/01/31 17:36:24.9	357.450	0.000	-0.170	-0.460
2020/01/31 17:36:25.0	357.460	-0.030	-0.140	-0.470
2020/01/31 17:36:25.1	357.470	-0.060	-0.110	-0.480
2020/01/31 17:36:25.2	357.480	-0.080	-0.090	-0.490
2020/01/31 17:36:25.3	357.490	-0.110	-0.070	-0.500
2020/01/31 17:36:25.4	357.490	-0.130	-0.060	-0.510
2020/01/31 17:36:25.5	357.500	-0.160	-0.050	-0.520
2020/01/31 17:36:25.6	357.510	-0.180	-0.040	-0.530
2020/01/31 17:36:25.7	357.520	-0.190	-0.040	-0.540
2020/01/31 17:36:25.8	357.530	-0.210	-0.040	-0.550
2020/01/31 17:36:25.9	357.540	-0.220	-0.050	-0.560
2020/01/31 17:36:26.0	357.550	-0.230	-0.060	-0.570
2020/01/31 17:36:26.1	357.560	-0.240	-0.070	-0.570
2020/01/31 17:36:26.2	357.570	-0.250	-0.090	-0.580
2020/01/31 17:36:26.3	357.580	-0.250	-0.110	-0.590
2020/01/31 17:36:26.4	357.590	-0.260	-0.130	-0.600
2020/01/31 17:36:26.5	357.600	-0.260	-0.150	-0.610
2020/01/31 17:36:26.6	357.610	-0.250	-0.170	-0.610
2020/01/31 17:36:26.7	357.610	-0.250	-0.190	-0.620
2020/01/31 17:36:26.8	357.620	-0.250	-0.210	-0.620
2020/01/31 17:36:26.9	357.630	-0.240	-0.230	-0.620
2020/01/31 17:36:27.0	357.630	-0.230	-0.240	-0.620
2020/01/31 17:36:27.1	357.640	-0.220	-0.260	-0.620
2020/01/31 17:36:27.2	357.640	-0.210	-0.270	-0.610
2020/01/31 17:36:27.3	357.650	-0.200	-0.270	-0.600
2020/01/31 17:36:27.4	357.650	-0.190	-0.280	-0.590
2020/01/31 17:36:27.5	357.650	-0.180	-0.280	-0.580
2020/01/31 17:36:27.6	357.650	-0.170	-0.280	-0.570
2020/01/31 17:36:27.7	357.650	-0.160	-0.270	-0.550
2020/01/31 17:36:27.8	357.640	-0.150	-0.260	-0.540
2020/01/31 17:36:27.9	357.640	-0.140	-0.240	-0.520
2020/01/31 17:36:28.0	357.640	-0.130	-0.230	-0.500
2020/01/31 17:36:28.1	357.640	-0.130	-0.210	-0.490
2020/01/31 17:36:28.2	357.640	-0.120	-0.190	-0.470
2020/01/31 17:36:28.3	357.630	-0.110	-0.160	-0.450
2020/01/31 17:36:28.4	357.630	-0.110	-0.140	-0.430
2020/01/31 17:36:28.5	357.630	-0.100	-0.110	-0.410
2020/01/31 17:36:28.6	357.630	-0.100	-0.090	-0.400
2020/01/31 17:36:28.7	357.630	-0.100	-0.060	-0.380
2020/01/31 17:36:28.8	357.630	-0.100	-0.040	-0.360
2020/01/31 17:36:28.9	357.630	-0.100	-0.020	-0.350
2020/01/31 17:36:29.0	357.630	-0.100	0.000	-0.330
2020/01/31 17:36:29.1	357.630	-0.100	0.020	-0.320
2020/01/31 17:36:29.2	357.630	-0.100	0.040	-0.310
2020/01/31 17:36:29.3	357.640	-0.110	0.060	-0.300
2020/01/31 17:36:29.4	357.640	-0.110	0.070	-0.290
2020/01/31 17:36:29.5	357.640	-0.120	0.090	-0.290
2020/01/31 17:36:29.6	357.640	-0.120	0.090	-0.280
2020/01/31 17:36:29.7	357.640	-0.130	0.100	-0.280
2020/01/31 17:36:29.8	357.640	-0.140	0.110	-0.280
2020/01/31 17:36:29.9	357.640	-0.140	0.110	-0.280
2020/01/31 17:36:30.0	357.640	-0.150	0.110	-0.280
2020/01/31 17:36:30.1	357.640	-0.160	0.100	-0.280
2020/01/31 17:36:30.2	357.630	-0.160	0.100	-0.280
2020/01/31 17:36:30.3	357.620	-0.170	0.090	-0.290
2020/01/31 17:36:30.4	357.610	-0.180	0.080	-0.290
2020/01/31 17:36:30.5	357.600	-0.180	0.070	-0.300
2020/01/31 17:36:30.6	357.590	-0.180	0.050	-0.310
2020/01/31 17:36:30.7	357.580	-0.180	0.040	-0.310
2020/01/31 17:36:30.8	357.570	-0.180	0.020	-0.320
2020/01/31 17:36:30.9	357.560	-0.180	0.000	-0.330
2020/01/31 17:36:31.0	357.550	-0.180	-0.020	-0.340
2020/01/31 17:36:31.1	357.540	-0.170	-0.040	-0.350
2020/01/31 17:36:31.2	357.530	-0.170	-0.070	-0.360
2020/01/31 17:36:31.3	357.520	-0.150	-0.090	-0.370
2020/01/31 17:36:31.4	357.510	-0.140	-0.120	-0.380
2020/01/31 17:36:31.5	357.500	-0.130	-0.150	-0.390
2020/01/31 17:36:31.6	357.500	-0.110	-0.180	-0.400
2020/01/31 17:36:31.7	357.490	-0.090	-0.220	-0.410
2020/01/31 17:36:31.8	357.500	-0.060	-0.250	-0.430
2020/01/31 17:36:31.9	357.500	-0.040	-0.290	-0.440
2020/01/31 17:36:32.0	357.500	-0.010	-0.330	-0.450
2020/01/31 17:36:32.1	357.510	0.020	-0.370	-0.470
2020/01/31 17:36:32.2	357.520	0.060	-0.410	-0.480
2020/01/31 17:36:32.3	357.520	0.090	-0.450	-0.490
2020/01/31 17:36:32.4	357.530	0.130	-0.500	-0.500
2020/01/31 17:36:32.5	357.540	0.170	-0.540	-0.520
2020/01/31 17:36:32.6	357.560	0.210	-0.580	-0.530
2020/01/31 17:36:32.7	357.570	0.250	-0.620	-0.540
2020/01/31 17:36:32.8	357.590	0.290	-0.660	-0.550
2020/01/31 17:36:32.9	357.600	0.330	-0.690	-0.560
2020/01/31 17:36:33.0	357.610	0.360	-0.730	-0.560
2020/01/31 17:36:33.1	357.620	0.400	-0.760	-0.570
2020/01/31 17:36:33.2	357.630	0.440	-0.780	-0.580
2020/01/31 17:36:33.3	357.640	0.470	-0.800	-0.580
2020/01/31 17:36:33.4	357.640	0.500	-0.820	-0.580
2020/01/31 17:36:33.5	357.650	0.520	-0.830	-0.590
2020/01/31 17:36:33.6	357.650	0.550	-0.840	-0.590
2020/01/31 17:36:33.7	357.660	0.570	-0.840	-0.590
2020/01/31 17:36:33.8	357.660	0.580	-0.840	-0.590
2020/01/31 17:36:33.9	357.660	0.590	-0.830	-0.600
2020/01/31 17:36:34.0	357.660	0.590	-0.820	-0.600
2020/01/31 17:36:34.1	357.660	0.590	-0.800	-0.610
2020/01/31 17:36:34.2	357.670	0.590	-0.790	-0.610
2020/01/31 17:36:34.3	357.670	0.570	-0.760	-0.610
2020/01/31 17:36:34.4	357.670	0.560	-0.740	-0.620
2020/01/31 17:36:34.5	357.670	0.540	-0.710	-0.620
2020/01/31 17:36:34.6	357.670	0.510	-0.680	-0.630
2020/01/31 17:36:34.7	357.680	0.480	-0.650	-0.640
2020/01/31 17:36:34.8	357.680	0.450	-0.610	-0.640
2020/01/31 17:36:34.9	357.690	0.410	-0.580	-0.650
2020/01/31 17:36:35.0	357.700	0.360	-0.540	-0.660
2020/01/31 17:36:35.1	357.710	0.320	-0.510	-0.670
2020/01/31 17:36:35.2	357.730	0.270	-0.470	-0.670
2020/01/31 17:36:35.3	357.740	0.220	-0.440	-0.680
2020/01/31 17:36:35.4	357.760	0.170	-0.400	-0.690
2020/01/31 17:36:35.5	357.770	0.110	-0.370	-0.700
2020/01/31 17:36:35.6	357.790	0.060	-0.330	-0.710
2020/01/31 17:36:35.7	357.810	0.000	-0.300	-0.720
2020/01/31 17:36:35.8	357.820	-0.050	-0.270	-0.730
2020/01/31 17:36:35.9	357.840	-0.110	-0.240	-0.740
2020/01/31 17:36:36.0	357.860	-0.160	-0.210	-0.750
2020/01/31 17:36:36.1	357.870	-0.220	-0.180	-0.750
2020/01/31 17:36:36.2	357.890	-0.270	-0.150	-0.760
2020/01/31 17:36:36.3	357.910	-0.320	-0.120	-0.770
2020/01/31 17:36:36.4	357.920	-0.360	-0.090	-0.770
2020/01/31 17:36:36.5	357.930	-0.400	-0.060	-0.770
2020/01/31 17:36:36.6	357.950	-0.440	-0.030	-0.770
2020/01/31 17:36:36.7	357.960	-0.480	-0.000	-0.770
2020/01/31 17:36:36.8	357.970	-0.510	0.030	-0.770
2020/01/31 17:36:36.9	357.980	-0.530	0.060	-0.760
2020/01/31 17:36:37.0	357.990	-0.550	0.090	-0.750
2020/01/31 17:36:37.1	357.990	-0.570	0.110	-0.730
2020/01/31 17:36:37.2	358.000	-0.580	0.140	-0.720
2020/01/31 17:36:37.3	358.000	-0.580	0.170	-0.690
2020/01/31 17:36:37.4	358.000	-0.580	0.190	-0.670
2020/01/31 17:36:37.5	358.000	-0.580	0.210	-0.640
2020/01/31 17:36:37.6	358.000	-0.570	0.230	-0.610
2020/01/31 17:36:37.7	358.000	-0.550	0.250	-0.580
2020/01/31 17:36:37.8	358.000	-0.530	0.260	-0.550
2020/01/31 17:36:37.9	358.000	-0.510	0.280	-0.510
2020/01/31 17:36:38.0	357.990	-0.480	0.280	-0.480
2020/01/31 17:36:38.1	357.990	-0.450	0.290	-0.450
2020/01/31 17:36:38.2	357.990	-0.420	0.290	-0.410
2020/01/31 17:36:38.3	357.980	-0.380	0.290	-0.380
2020/01/31 17:36:38.4	357.980	-0.350	0.280	-0.340
2020/01/31 17:36:38.5	357.980	-0.310	0.270	-0.310
2020/01/31 17:36:38.6	357.970	-0.270	0.250	-0.280
2020/01/31 17:36:38.7	357.960	-0.230	0.230	-0.250
2020/01/31 17:36:38.8	357.960	-0.190	0.210	-0.220
2020/01/31 17:36:38.9	357.950	-0.150	0.180	-0.190
2020/01/31 17:36:39.0	357.940	-0.110	0.150	-0.170
2020/01/31 17:36:39.1	357.940	-0.080	0.110	-0.150
2020/01/31 17:36:39.2	357.930	-0.040	0.080	-0.130
2020/01/31 17:36:39.3	357.920	-0.010	0.040	-0.120
2020/01/31 17:36:39.4	357.910	0.020	-0.000	-0.110
2020/01/31 17:36:39.5	357.900	0.050	-0.050	-0.100
2020/01/31 17:36:39.6	357.890	0.070	-0.090	-0.100
2020/01/31 17:36:39.7	357.880	0.090	-0.140	-0.100
2020/01/31 17:36:39.8	357.860	0.110	-0.180	-0.110
2020/01/31 17:36:39.9	357.860	0.120	-0.230	-0.120
2020/01/31 17:36:40.0	357.850	0.130	-0.280	-0.130
2020/01/31 17:36:40.1	357.840	0.130	-0.330	-0.150
2020/01/31 17:36:40.2	357.840	0.140	-0.370	-0.170
2020/01/31 17:36:40.3	357.830	0.130	-0.420	-0.190
2020/01/31 17:36:40.4	357.830	0.130	-0.460	-0.220
2020/01/31 17:36:40.5	357.830	0.120	-0.510	-0.250
2020/01/31 17:36:40.6	357.830	0.110	-0.550	-0.280
2020/01/31 17:36:40.7	357.840	0.100	-0.590	-0.310
2020/01/31 17:36:40.8	357.850	0.090	-0.620	-0.350
2020/01/31 17:36:40.9	357.860	0.070	-0.660	-0.380
2020/01/31 17:36:41.0	357.880	0.050	-0.690	-0.420
2020/01/31 17:36:41.1	357.890	0.030	-0.710	-0.450
2020/01/31 17:36:41.2	357.910	0.010	-0.740	-0.490
2020/01/31 17:36:41.3	357.940	-0.000	-0.760	-0.530
2020/01/31 17:36:41.4	357.960	-0.020	-0.780	-0.570
2020/01/31 17:36:41.5	357.980	-0.040	-0.790	-0.600
2020/01/31 17:36:41.6	358.010	-0.060	-0.800	-0.640
2020/01/31 17:36:41.7	358.040	-0.080	-0.810	-0.680
2020/01/31 17:36:41.8	358.070	-0.100	-0.810	-0.710
2020/01/31 17:36:41.9	358.090	-0.120	-0.800	-0.750
2020/01/31 17:36:42.0	358.120	-0.130	-0.790	-0.780
2020/01/31 17:36:42.1	358.140	-0.140	-0.780	-0.810
2020/01/31 17:36:42.2	358.160	-0.160	-0.770	-0.840
2020/01/31 17:36:42.3	358.180	-0.170	-0.740	-0.860
2020/01/31 17:36:42.4	358.200	-0.180	-0.720	-0.880
2020/01/31 17:36:42.5	358.220	-0.180	-0.690	-0.900
2020/01/31 17:36:42.6	358.230	-0.180	-0.660	-0.910
2020/01/31 17:36:42.7	358.240	-0.190	-0.620	-0.920
2020/01/31 17:36:42.8	358.230	-0.180	-0.580	-0.930
2020/01/31 17:36:42.9	358.240	-0.180	-0.530	-0.920
2020/01/31 17:36:43.0	358.230	-0.180	-0.490	-0.920
2020/01/31 17:36:43.1	358.230	-0.170	-0.440	-0.900
2020/01/31 17:36:43.2	358.230	-0.160	-0.380	-0.890
2020/01/31 17:36:43.3	358.220	-0.140	-0.330	-0.870
2020/01/31 17:36:43.4	358.200	-0.130	-0.270	-0.840
2020/01/31 17:36:43.5	358.190	-0.110	-0.220	-0.810
2020/01/31 17:36:43.6	358.170	-0.090	-0.160	-0.770
2020/01/31 17:36:43.7	358.150	-0.070	-0.110	-0.730
2020/01/31 17:36:43.8	358.140	-0.050	-0.050	-0.690
2020/01/31 17:36:43.9	358.110	-0.030	0.000	-0.650
2020/01/31 17:36:44.0	358.090	-0.000	0.050	-0.600
2020/01/31 17:36:44.1	358.070	0.030	0.100	-0.550
2020/01/31 17:36:44.2	358.040	0.050	0.150	-0.500
2020/01/31 17:36:44.3	358.020	0.080	0.200	-0.450
2020/01/31 17:36:44.4	357.990	0.110	0.240	-0.390
2020/01/31 17:36:44.5	357.970	0.140	0.270	-0.340
2020/01/31 17:36:44.6	357.950	0.170	0.300	-0.290
2020/01/31 17:36:44.7	357.930	0.200	0.330	-0.240
2020/01/31 17:36:44.8	357.910	0.220	0.350	-0.190
2020/01/31 17:36:44.9	357.890	0.250	0.370	-0.150
2020/01/31 17:36:45.0	357.880	0.280	0.380	-0.100
2020/01/31 17:36:45.1	357.860	0.310	0.390	-0.060
2020/01/31 17:36:45.2	357.850	0.330	0.390	-0.030
2020/01/31 17:36:45.3	357.840	0.350	0.380	0.010
2020/01/31 17:36:45.4	357.830	0.380	0.370	0.040
2020/01/31 17:36:45.5	357.820	0.400	0.350	0.070
2020/01/31 17:36:45.6	357.810	0.410	0.330	0.100
2020/01/31 17:36:45.7	357.810	0.430	0.310	0.120
2020/01/31 17:36:45.8	357.800	0.440	0.280	0.140
2020/01/31 17:36:45.9	357.800	0.460	0.250	0.160
2020/01/31 17:36:46.0	357.800	0.470	0.210	0.170
2020/01/31 17:36:46.1	357.800	0.470	0.170	0.190
2020/01/31 17:36:46.2	357.800	0.470	0.140	0.200
2020/01/31 17:36:46.3	357.800	0.470	0.090	0.210
2020/01/31 17:36:46.4	357.810	0.470	0.050	0.210
2020/01/31 17:36:46.5	357.810	0.470	0.010	0.210
2020/01/31 17:36:46.6	357.820	0.460	-0.030	0.210
2020/01/31 17:36:46.7	357.820	0.440	-0.070	0.200
2020/01/31 17:36:46.8	357.830	0.430	-0.110	0.190
2020/01/31 17:36:46.9	357.840	0.410	-0.150	0.180
2020/01/31 17:36:47.0	357.850	0.380	-0.190	0.160
2020/01/31 17:36:47.1	357.850	0.360	-0.220	0.140
2020/01/31 17:36:47.2	357.860	0.330	-0.260	0.110
2020/01/31 17:36:47.3	357.870	0.300	-0.290	0.090
2020/01/31 17:36:47.4	357.880	0.260	-0.320	0.050
2020/01/31 17:36:47.5	357.880	0.230	-0.350	0.020
2020/01/31 17:36:47.6	357.890	0.190	-0.380	-0.020
2020/01/31 17:36:47.7	357.900	0.140	-0.400	-0.070
2020/01/31 17:36:47.8	357.910	0.100	-0.430	-0.110
2020/01/31 17:36:47.9	357.920	0.050	-0.450	-0.160
2020/01/31 17:36:48.0	357.930	0.010	-0.470	-0.210
2020/01/31 17:36:48.1	357.930	-0.040	-0.490	-0.260
2020/01/31 17:36:48.2	357.940	-0.090	-0.520	-0.310
2020/01/31 17:36:48.3	357.950	-0.140	-0.530	-0.360
2020/01/31 17:36:48.4	357.950	-0.190	-0.550	-0.410
2020/01/31 17:36:48.5	357.960	-0.240	-0.570	-0.460
2020/01/31 17:36:48.6	357.960	-0.290	-0.590	-0.500
2020/01/31 17:36:48.7	357.970	-0.330	-0.610	-0.550
2020/01/31 17:36:48.8	357.970	-0.380	-0.620	-0.600
2020/01/31 17:36:48.9	357.970	-0.420	-0.630	-0.650
2020/01/31 17:36:49.0	357.980	-0.460	-0.650	-0.690
2020/01/31 17:36:49.1	357.980	-0.500	-0.670	-0.730
2020/01/31 17:36:49.2	357.980	-0.540	-0.680	-0.770
2020/01/31 17:36:49.3	357.990	-0.570	-0.700	-0.810
2020/01/31 17:36:49.4	357.990	-0.590	-0.720	-0.850
2020/01/31 17:36:49.5	358.000	-0.620	-0.740	-0.890
2020/01/31 17:36:49.6	358.010	-0.640	-0.750	-0.920
2020/01/31 17:36:49.7	358.020	-0.650	-0.770	-0.950
2020/01/31 17:36:49.8	358.040	-0.660	-0.800	-0.990
2020/01/31 17:36:49.9	358.050	-0.660	-0.820	-1.020
2020/01/31 17:36:50.0	358.070	-0.660	-0.840	-1.050
2020/01/31 17:36:50.1	358.090	-0.660	-0.860	-1.090
2020/01/31 17:36:50.2	358.110	-0.640	-0.880	-1.120
2020/01/31 17:36:50.3	358.130	-0.630	-0.910	-1.150
2020/01/31 17:36:50.4	358.160	-0.600	-0.930	-1.180
2020/01/31 17:36:50.5	358.190	-0.580	-0.950	-1.210
2020/01/31 17:36:50.6	358.220	-0.540	-0.970	-1.240
2020/01/31 17:36:50.7	358.250	-0.500	-0.990	-1.260
2020/01/31 17:36:50.8	358.280	-0.460	-1.010	-1.290
2020/01/31 17:36:50.9	358.310	-0.410	-1.020	-1.310
2020/01/31 17:36:51.0	358.350	-0.360	-1.040	-1.320
2020/01/31 17:36:51.1	358.390	-0.310	-1.040	-1.340
2020/01/31 17:36:51.2	358.420	-0.250	-1.050	-1.350
2020/01/31 17:36:51.3	358.460	-0.190	-1.050	-1.350
2020/01/31 17:36:51.4	358.500	-0.120	-1.040	-1.350
2020/01/31 17:36:51.5	358.540	-0.060	-1.030	-1.350
2020/01/31 17:36:51.6	358.580	0.000	-1.020	-1.340
2020/01/31 17:36:51.7	358.610	0.070	-0.990	-1.320
2020/01/31 17:36:51.8	358.650	0.130	-0.970	-1.300
2020/01/31 17:36:51.9	358.680	0.190	-0.930	-1.280
2020/01/31 17:36:52.0	358.710	0.250	-0.890	-1.250
2020/01/31 17:36:52.1	358.740	0.310	-0.840	-1.210
2020/01/31 17:36:52.2	358.770	0.360	-0.790	-1.170
2020/01/31 17:36:52.3	358.790	0.410	-0.730	-1.130
2020/01/31 17:36:52.4	358.810	0.450	-0.660	-1.080
2020/01/31 17:36:52.5	358.830	0.490	-0.580	-1.030
2020/01/31 17:36:52.6	358.840	0.530	-0.510	-0.980
2020/01/31 17:36:52.7	358.850	0.560	-0.420	-0.920
2020/01/31 17:36:52.8	358.850	0.580	-0.330	-0.850
2020/01/31 17:36:52.9	358.860	0.600	-0.240	-0.780
2020/01/31 17:36:53.0	358.860	0.610	-0.150	-0.710
2020/01/31 17:36:53.1	358.850	0.620	-0.050	-0.640
2020/01/31 17:36:53.2	358.840	0.610	0.050	-0.560
2020/01/31 17:36:53.3	358.830	0.610	0.150	-0.470
2020/01/31 17:36:53.4	358.810	0.590	0.250	-0.390
2020/01/31 17:36:53.5	358.790	0.570	0.340	-0.300
2020/01/31 17:36:53.6	358.760	0.550	0.440	-0.210
2020/01/31 17:36:53.7	358.730	0.520	0.540	-0.120
2020/01/31 17:36:53.8	358.710	0.480	0.630	-0.020
2020/01/31 17:36:53.9	358.680	0.440	0.720	0.070
2020/01/31 17:36:54.0	358.630	0.400	0.800	0.160
2020/01/31 17:36:54.1	358.590	0.350	0.880	0.240
2020/01/31 17:36:54.2	358.540	0.290	0.950	0.330
2020/01/31 17:36:54.3	358.500	0.240	1.020	0.410
2020/01/31 17:36:54.4	358.440	0.180	1.080	0.480
2020/01/31 17:36:54.5	358.390	0.120	1.130	0.550
2020/01/31 17:36:54.6	358.340	0.050	1.170	0.620
2020/01/31 17:36:54.7	358.280	-0.010	1.200	0.670
2020/01/31 17:36:54.8	358.220	-0.070	1.230	0.720
2020/01/31 17:36:54.9	358.170	-0.130	1.240	0.770
2020/01/31 17:36:55.0	358.110	-0.200	1.250	0.810
2020/01/31 17:36:55.1	358.060	-0.260	1.240	0.830
2020/01/31 17:36:55.2	358.000	-0.310	1.220	0.850
2020/01/31 17:36:55.3	357.940	-0.370	1.200	0.870
2020/01/31 17:36:55.4	357.890	-0.420	1.160	0.870
2020/01/31 17:36:55.5	357.840	-0.470	1.110	0.870
2020/01/31 17:36:55.6	357.790	-0.510	1.060	0.860
2020/01/31 17:36:55.7	357.740	-0.550	0.990	0.840
2020/01/31 17:36:55.8	357.690	-0.580	0.920	0.810
2020/01/31 17:36:55.9	357.650	-0.610	0.840	0.780
2020/01/31 17:36:56.0	357.610	-0.630	0.750	0.750
2020/01/31 17:36:56.1	357.570	-0.650	0.660	0.710
2020/01/31 17:36:56.2	357.530	-0.660	0.550	0.660
2020/01/31 17:36:56.3	357.490	-0.660	0.450	0.620
2020/01/31 17:36:56.4	357.460	-0.660	0.340	0.570
2020/01/31 17:36:56.5	357.430	-0.650	0.230	0.510
2020/01/31 17:36:56.6	357.400	-0.640	0.110	0.450
2020/01/31 17:36:56.7	357.380	-0.620	-0.010	0.400
2020/01/31 17:36:56.8	357.350	-0.590	-0.120	0.320
2020/01/31 17:36:56.9	357.330	-0.560	-0.240	0.260
2020/01/31 17:36:57.0	357.320	-0.530	-0.350	0.200
2020/01/31 17:36:57.1	357.310	-0.490	-0.470	0.130
2020/01/31 17:36:57.2	357.310	-0.440	-0.580	0.060
2020/01/31 17:36:57.3	357.310	-0.400	-0.690	-0.010
2020/01/31 17:36:57.4	357.310	-0.350	-0.790	-0.080
2020/01/31 17:36:57.5	357.320	-0.290	-0.890	-0.150
2020/01/31 17:36:57.6	357.340	-0.240	-0.990	-0.220
2020/01/31 17:36:57.7	357.350	-0.180	-1.080	-0.290
2020/01/31 17:36:57.8	357.370	-0.120	-1.160	-0.370
2020/01/31 17:36:57.9	357.390	-0.060	-1.240	-0.440
2020/01/31 17:36:58.0	357.420	-0.000	-1.310	-0.510
2020/01/31 17:36:58.1	357.450	0.060	-1.370	-0.580
2020/01/31 17:36:58.2	357.490	0.120	-1.430	-0.640
2020/01/31 17:36:58.3	357.520	0.180	-1.480	-0.710
2020/01/31 17:36:58.4	357.560	0.230	-1.520	-0.770
2020/01/31 17:36:58.5	357.600	0.290	-1.550	-0.830
2020/01/31 17:36:58.6	357.640	0.340	-1.570	-0.890
2020/01/31 17:36:58.7	357.680	0.390	-1.590	-0.940
2020/01/31 17:36:58.8	357.710	0.440	-1.600	-0.990
2020/01/31 17:36:58.9	357.750	0.490	-1.600	-1.030
2020/01/31 17:36:59.0	357.790	0.530	-1.590	-1.070
2020/01/31 17:36:59.1	357.830	0.560	-1.570	-1.100
2020/01/31 17:36:59.2	357.870	0.600	-1.550	-1.130
2020/01/31 17:36:59.3	357.910	0.630	-1.520	-1.150
2020/01/31 17:36:59.4	357.940	0.650	-1.480	-1.170
2020/01/31 17:36:59.5	357.980	0.670	-1.430	-1.180
2020/01/31 17:36:59.6	358.010	0.690	-1.380	-1.180
2020/01/31 17:36:59.7	358.040	0.700	-1.330	-1.180
2020/01/31 17:36:59.8	358.060	0.710	-1.270	-1.180
2020/01/31 17:36:59.9	358.080	0.720	-1.200	-1.160
2020/01/31 17:37:00.0	358.110	0.720	-1.130	-1.150
2020/01/31 17:37:00.1	358.130	0.720	-1.060	-1.120
2020/01/31 17:37:00.2	358.140	0.710	-0.980	-1.100
2020/01/31 17:37:00.3	358.160	0.700	-0.910	-1.070
2020/01/31 17:37:00.4	358.170	0.690	-0.830	-1.030
2020/01/31 17:37:00.5	358.180	0.670	-0.750	-1.000
2020/01/31 17:37:00.6	358.180	0.650	-0.660	-0.960
2020/01/31 17:37:00.7	358.190	0.630	-0.580	-0.910
2020/01/31 17:37:00.8	358.190	0.610	-0.510	-0.860
2020/01/31 17:37:00.9	358.190	0.590	-0.430	-0.820
2020/01/31 17:37:01.0	358.190	0.560	-0.350	-0.770
2020/01/31 17:37:01.1	358.190	0.530	-0.280	-0.720
2020/01/31 17:37:01.2	358.190	0.500	-0.210	-0.670
2020/01/31 17:37:01.3	358.180	0.470	-0.140	-0.620
2020/01/31 17:37:01.4	358.180	0.440	-0.080	-0.570
2020/01/31 17:37:01.5	358.170	0.400	-0.020	-0.520
2020/01/31 17:37:01.6	358.170	0.370	0.030	-0.470
2020/01/31 17:37:01.7	358.160	0.330	0.080	-0.430
2020/01/31 17:37:01.8	358.170	0.300	0.120	-0.380
2020/01/31 17:37:01.9	358.170	0.260	0.160	-0.340
2020/01/31 17:37:02.0	358.160	0.220	0.200	-0.300
2020/01/31 17:37:02.1	358.150	0.190	0.230	-0.260
2020/01/31 17:37:02.2	358.140	0.150	0.250	-0.220
2020/01/31 17:37:02.3	358.130	0.110	0.280	-0.180
2020/01/31 17:37:02.4	358.120	0.070	0.290	-0.150
2020/01/31 17:37:02.5	358.110	0.030	0.310	-0.130
2020/01/31 17:37:02.6	358.100	-0.010	0.320	-0.100
2020/01/31 17:37:02.7	358.090	-0.060	0.320	-0.080
2020/01/31 17:37:02.8	358.070	-0.100	0.330	-0.060
2020/01/31 17:37:02.9	358.060	-0.140	0.330	-0.050
2020/01/31 17:37:03.0	358.040	-0.190	0.330	-0.040
2020/01/31 17:37:03.1	358.020	-0.230	0.330	-0.030
2020/01/31 17:37:03.2	358.000	-0.280	0.320	-0.020
2020/01/31 17:37:03.3	357.980	-0.320	0.320	-0.020
2020/01/31 17:37:03.4	357.960	-0.370	0.320	-0.020
2020/01/31 17:37:03.5	357.940	-0.410	0.310	-0.030
2020/01/31 17:37:03.6	357.910	-0.450	0.300	-0.030
2020/01/31 17:37:03.7	357.890	-0.500	0.290	-0.040
2020/01/31 17:37:03.8	357.850	-0.540	0.290	-0.060
2020/01/31 17:37:03.9	357.830	-0.580	0.280	-0.070
2020/01/31 17:37:04.0	357.800	-0.620	0.270	-0.090
2020/01/31 17:37:04.1	357.780	-0.660	0.260	-0.110
2020/01/31 17:37:04.2	357.750	-0.690	0.250	-0.130
2020/01/31 17:37:04.3	357.730	-0.720	0.240	-0.160
2020/01/31 17:37:04.4	357.710	-0.750	0.230	-0.180
2020/01/31 17:37:04.5	357.690	-0.780	0.220	-0.200
2020/01/31 17:37:04.6	357.670	-0.800	0.210	-0.230
2020/01/31 17:37:04.7	357.650	-0.820	0.200	-0.250
2020/01/31 17:37:04.8	357.630	-0.830	0.190	-0.280
2020/01/31 17:37:04.9	357.620	-0.840	0.170	-0.310
2020/01/31 17:37:05.0	357.610	-0.840	0.160	-0.330
2020/01/31 17:37:05.1	357.600	-0.840	0.140	-0.360
2020/01/31 17:37:05.2	357.600	-0.830	0.120	-0.380
2020/01/31 17:37:05.3	357.600	-0.820	0.100	-0.400
2020/01/31 17:37:05.4	357.600	-0.800	0.080	-0.420
2020/01/31 17:37:05.5	357.610	-0.770	0.060	-0.440
2020/01/31 17:37:05.6	357.620	-0.740	0.030	-0.460
2020/01/31 17:37:05.7	357.630	-0.710	0.000	-0.470
2020/01/31 17:37:05.8	357.640	-0.660	-0.020	-0.490
2020/01/31 17:37:05.9	357.660	-0.610	-0.050	-0.500
2020/01/31 17:37:06.0	357.670	-0.560	-0.080	-0.500
2020/01/31 17:37:06.1	357.690	-0.500	-0.120	-0.500
2020/01/31 17:37:06.2	357.710	-0.440	-0.150	-0.500
2020/01/31 17:37:06.3	357.720	-0.380	-0.180	-0.500
2020/01/31 17:37:06.4	357.740	-0.310	-0.200	-0.500
2020/01/31 17:37:06.5	357.760	-0.240	-0.230	-0.490
2020/01/31 17:37:06.6	357.780	-0.170	-0.260	-0.480
2020/01/31 17:37:06.7	357.790	-0.100	-0.280	-0.460
2020/01/31 17:37:06.8	357.820	-0.030	-0.310	-0.440
2020/01/31 17:37:06.9	357.830	0.040	-0.330	-0.420
2020/01/31 17:37:07.0	357.830	0.110	-0.350	-0.390
2020/01/31 17:37:07.1	357.840	0.180	-0.370	-0.370
2020/01/31 17:37:07.2	357.840	0.240	-0.380	-0.330
2020/01/31 17:37:07.3	357.830	0.300	-0.390	-0.300
2020/01/31 17:37:07.4	357.820	0.360	-0.400	-0.260
2020/01/31 17:37:07.5	357.810	0.410	-0.410	-0.230
2020/01/31 17:37:07.6	357.790	0.460	-0.410	-0.190
2020/01/31 17:37:07.7	357.770	0.500	-0.410	-0.150
2020/01/31 17:37:07.8	357.740	0.530	-0.410	-0.110
2020/01/31 17:37:07.9	357.710	0.560	-0.410	-0.070
2020/01/31 17:37:08.0	357.680	0.590	-0.410	-0.030
2020/01/31 17:37:08.1	357.650	0.610	-0.400	0.000
2020/01/31 17:37:08.2	357.620	0.620	-0.400	0.030
2020/01/31 17:37:08.3	357.580	0.630	-0.390	0.060
2020/01/31 17:37:08.4	357.540	0.630	-0.380	0.090
2020/01/31 17:37:08.5	357.510	0.620	-0.380	0.110
2020/01/31 17:37:08.6	357.470	0.610	-0.370	0.130
2020/01/31 17:37:08.7	357.430	0.600	-0.360	0.150
2020/01/31 17:37:08.8	357.390	0.580	-0.360	0.160
2020/01/31 17:37:08.9	357.350	0.560	-0.350	0.170
2020/01/31 17:37:09.0	357.320	0.530	-0.350	0.170
2020/01/31 17:37:09.1	357.290	0.500	-0.340	0.180
2020/01/31 17:37:09.2	357.260	0.470	-0.340	0.170
2020/01/31 17:37:09.3	357.230	0.440	-0.340	0.170
2020/01/31 17:37:09.4	357.210	0.400	-0.340	0.160
2020/01/31 17:37:09.5	357.180	0.360	-0.340	0.140
2020/01/31 17:37:09.6	357.160	0.330	-0.350	0.130
2020/01/31 17:37:09.7	357.140	0.290	-0.350	0.110
2020/01/31 17:37:09.8	357.120	0.250	-0.350	0.080
2020/01/31 17:37:09.9	357.100	0.220	-0.360	0.060
2020/01/31 17:37:10.0	357.090	0.180	-0.370	0.030
2020/01/31 17:37:10.1	357.070	0.150	-0.370	0.010
2020/01/31 17:37:10.2	357.060	0.120	-0.380	-0.020
2020/01/31 17:37:10.3	357.050	0.090	-0.390	-0.050
2020/01/31 17:37:10.4	357.040	0.060	-0.390	-0.080
2020/01/31 17:37:10.5	357.030	0.040	-0.400	-0.110
2020/01/31 17:37:10.6	357.020	0.020	-0.400	-0.140
2020/01/31 17:37:10.7	357.010	-0.000	-0.410	-0.170
2020/01/31 17:37:10.8	357.010	-0.020	-0.410	-0.210
2020/01/31 17:37:10.9	357.010	-0.030	-0.420	-0.240
2020/01/31 17:37:11.0	357.000	-0.040	-0.420	-0.270
2020/01/31 17:37:11.1	357.000	-0.050	-0.420	-0.310
2020/01/31 17:37:11.2	357.000	-0.050	-0.420	-0.340
2020/01/31 17:37:11.3	357.000	-0.050	-0.420	-0.380
2020/01/31 17:37:11.4	357.010	-0.050	-0.430	-0.410
2020/01/31 17:37:11.5	357.020	-0.040	-0.430	-0.450
2020/01/31 17:37:11.6	357.030	-0.040	-0.430	-0.480
2020/01/31 17:37:11.7	357.040	-0.030	-0.430	-0.520
2020/01/31 17:37:11.8	357.040	-0.020	-0.430	-0.550
2020/01/31 17:37:11.9	357.060	-0.000	-0.430	-0.590
2020/01/31 17:37:12.0	357.080	0.010	-0.430	-0.620
2020/01/31 17:37:12.1	357.110	0.030	-0.440	-0.660
2020/01/31 17:37:12.2	357.140	0.050	-0.440	-0.700
2020/01/31 17:37:12.3	357.170	0.070	-0.450	-0.730
2020/01/31 17:37:12.4	357.210	0.090	-0.460	-0.770
2020/01/31 17:37:12.5	357.250	0.110	-0.470	-0.810
2020/01/31 17:37:12.6	357.290	0.130	-0.490	-0.840
2020/01/31 17:37:12.7	357.330	0.150	-0.500	-0.870
2020/01/31 17:37:12.8	357.370	0.160	-0.520	-0.910
2020/01/31 17:37:12.9	357.410	0.180	-0.540	-0.940
2020/01/31 17:37:13.0	357.460	0.200	-0.560	-0.970
2020/01/31 17:37:13.1	357.510	0.210	-0.570	-1.000
2020/01/31 17:37:13.2	357.550	0.220	-0.590	-1.020
2020/01/31 17:37:13.3	357.600	0.230	-0.610	-1.050
2020/01/31 17:37:13.4	357.640	0.240	-0.620	-1.070
2020/01/31 17:37:13.5	357.690	0.240	-0.640	-1.090
2020/01/31 17:37:13.6	357.730	0.240	-0.650	-1.110
2020/01/31 17:37:13.7	357.760	0.240	-0.660	-1.120
2020/01/31 17:37:13.8	357.810	0.230	-0.670	-1.130
2020/01/31 17:37:13.9	357.840	0.220	-0.680	-1.140
2020/01/31 17:37:14.0	357.870	0.200	-0.680	-1.150
2020/01/31 17:37:14.1	357.890	0.180	-0.680	-1.160
2020/01/31 17:37:14.2	357.910	0.160	-0.680	-1.170
2020/01/31 17:37:14.3	357.930	0.130	-0.680	-1.170
2020/01/31 17:37:14.4	357.950	0.100	-0.670	-1.170
2020/01/31 17:37:14.5	357.960	0.070	-0.660	-1.170
2020/01/31 17:37:14.6	357.970	0.030	-0.640	-1.170
2020/01/31 17:37:14.7	357.980	-0.000	-0.620	-1.170
2020/01/31 17:37:14.8	357.980	-0.040	-0.600	-1.160
2020/01/31 17:37:14.9	357.980	-0.080	-0.570	-1.150
2020/01/31 17:37:15.0	357.970	-0.120	-0.540	-1.140
2020/01/31 17:37:15.1	357.970	-0.160	-0.500	-1.120
2020/01/31 17:37:15.2	357.960	-0.210	-0.460	-1.100
2020/01/31 17:37:15.3	357.950	-0.250	-0.420	-1.080
2020/01/31 17:37:15.4	357.930	-0.290	-0.370	-1.060
2020/01/31 17:37:15.5	357.920	-0.330	-0.320	-1.030
2020/01/31 17:37:15.6	357.900	-0.370	-0.270	-1.000
2020/01/31 17:37:15.7	357.880	-0.400	-0.210	-0.970
2020/01/31 17:37:15.8	357.860	-0.430	-0.150	-0.930
2020/01/31 17:37:15.9	357.830	-0.460	-0.080	-0.890
2020/01/31 17:37:16.0	357.800	-0.490	-0.020	-0.840
2020/01/31 17:37:16.1	357.770	-0.510	0.050	-0.800
2020/01/31 17:37:16.2	357.740	-0.530	0.120	-0.740
2020/01/31 17:37:16.3	357.700	-0.540	0.180	-0.690
2020/01/31 17:37:16.4	357.670	-0.550	0.250	-0.630
2020/01/31 17:37:16.5	357.630	-0.550	0.320	-0.570
2020/01/31 17:37:16.6	357.590	-0.550	0.380	-0.510
2020/01/31 17:37:16.7	357.550	-0.540	0.440	-0.450
2020/01/31 17:37:16.8	357.520	-0.530	0.500	-0.380
2020/01/31 17:37:16.9	357.490	-0.510	0.550	-0.310
2020/01/31 17:37:17.0	357.450	-0.490	0.600	-0.250
2020/01/31 17:37:17.1	357.410	-0.460	0.650	-0.180
2020/01/31 17:37:17.2	357.370	-0.430	0.690	-0.120
2020/01/31 17:37:17.3	357.330	-0.400	0.720	-0.050
2020/01/31 17:37:17.4	357.290	-0.360	0.750	0.010
2020/01/31 17:37:17.5	357.260	-0.320	0.770	0.070
2020/01/31 17:37:17.6	357.220	-0.280	0.780	0.130
2020/01/31 17:37:17.7	357.190	-0.230	0.780	0.180
2020/01/31 17:37:17.8	357.170	-0.190	0.780	0.230
2020/01/31 17:37:17.9	357.130	-0.140	0.770	0.270
2020/01/31 17:37:18.0	357.110	-0.090	0.760	0.310
2020/01/31 17:37:18.1	357.080	-0.040	0.730	0.340
2020/01/31 17:37:18.2	357.050	0.010	0.700	0.360
2020/01/31 17:37:18.3	357.030	0.060	0.660	0.390
2020/01/31 17:37:18.4	357.000	0.110	0.620	0.400
2020/01/31 17:37:18.5	356.980	0.160	0.570	0.420
2020/01/31 17:37:18.6	356.960	0.210	0.510	0.420
2020/01/31 17:37:18.7	356.940	0.250	0.450	0.430
2020/01/31 17:37:18.8	356.920	0.290	0.390	0.430
2020/01/31 17:37:18.9	356.910	0.340	0.320	0.430
2020/01/31 17:37:19.0	356.900	0.370	0.240	0.430
2020/01/31 17:37:19.1	356.890	0.410	0.170	0.420
2020/01/31 17:37:19.2	356.880	0.440	0.090	0.410
2020/01/31 17:37:19.3	356.880	0.470	0.010	0.410
2020/01/31 17:37:19.4	356.870	0.500	-0.070	0.400
2020/01/31 17:37:19.5	356.870	0.520	-0.160	0.380
2020/01/31 17:37:19.6	356.880	0.530	-0.240	0.370
2020/01/31 17:37:19.7	356.880	0.540	-0.320	0.350
2020/01/31 17:37:19.8	356.880	0.550	-0.400	0.330
2020/01/31 17:37:19.9	356.890	0.550	-0.470	0.300
2020/01/31 17:37:20.0	356.910	0.550	-0.550	0.280
2020/01/31 17:37:20.1	356.920	0.540	-0.610	0.250
2020/01/31 17:37:20.2	356.940	0.530	-0.680	0.220
2020/01/31 17:37:20.3	356.960	0.510	-0.740	0.180
2020/01/31 17:37:20.4	356.980	0.490	-0.790	0.140
2020/01/31 17:37:20.5	357.000	0.460	-0.840	0.100
2020/01/31 17:37:20.6	357.020	0.430	-0.890	0.050
2020/01/31 17:37:20.7	357.040	0.400	-0.930	0.000
2020/01/31 17:37:20.8	357.060	0.360	-0.960	-0.050
2020/01/31 17:37:20.9	357.080	0.320	-0.980	-0.100
2020/01/31 17:37:21.0	357.110	0.270	-1.010	-0.160
2020/01/31 17:37:21.1	357.130	0.230	-1.020	-0.210
2020/01/31 17:37:21.2	357.160	0.180	-1.030	-0.270
2020/01/31 17:37:21.3	357.180	0.130	-1.030	-0.320
2020/01/31 17:37:21.4	357.200	0.080	-1.030	-0.380
2020/01/31 17:37:21.5	357.230	0.030	-1.020	-0.430
2020/01/31 17:37:21.6	357.250	-0.020	-1.010	-0.480
2020/01/31 17:37:21.7	357.270	-0.070	-0.990	-0.530
2020/01/31 17:37:21.8	357.280	-0.120	-0.960	-0.590
2020/01/31 17:37:21.9	357.300	-0.170	-0.930	-0.630
2020/01/31 17:37:22.0	357.320	-0.210	-0.890	-0.680
2020/01/31 17:37:22.1	357.340	-0.260	-0.860	-0.720
2020/01/31 17:37:22.2	357.350	-0.300	-0.810	-0.760
2020/01/31 17:37:22.3	357.370	-0.340	-0.770	-0.790
2020/01/31 17:37:22.4	357.380	-0.380	-0.720	-0.830
2020/01/31 17:37:22.5	357.390	-0.420	-0.670	-0.860
2020/01/31 17:37:22.6	357.400	-0.450	-0.620	-0.890
2020/01/31 17:37:22.7	357.420	-0.480	-0.570	-0.910
2020/01/31 17:37:22.8	357.420	-0.500	-0.520	-0.940
2020/01/31 17:37:22.9	357.430	-0.520	-0.470	-0.960
2020/01/31 17:37:23.0	357.440	-0.540	-0.430	-0.980
2020/01/31 17:37:23.1	357.450	-0.560	-0.380	-0.990
2020/01/31 17:37:23.2	357.460	-0.570	-0.340	-1.010
2020/01/31 17:37:23.3	357.470	-0.570	-0.300	-1.020
2020/01/31 17:37:23.4	357.480	-0.580	-0.260	-1.030
2020/01/31 17:37:23.5	357.490	-0.570	-0.230	-1.040
2020/01/31 17:37:23.6	357.500	-0.570	-0.200	-1.040
2020/01/31 17:37:23.7	357.510	-0.560	-0.180	-1.050
2020/01/31 17:37:23.8	357.510	-0.540	-0.150	-1.050
2020/01/31 17:37:23.9	357.520	-0.520	-0.140	-1.050
2020/01/31 17:37:24.0	357.530	-0.500	-0.130	-1.040
2020/01/31 17:37:24.1	357.540	-0.470	-0.120	-1.040
2020/01/31 17:37:24.2	357.550	-0.440	-0.120	-1.030
2020/01/31 17:37:24.3	357.560	-0.410	-0.120	-1.010
2020/01/31 17:37:24.4	357.570	-0.370	-0.130	-1.000
2020/01/31 17:37:24.5	357.580	-0.330	-0.140	-0.980
2020/01/31 17:37:24.6	357.580	-0.280	-0.150	-0.960
2020/01/31 17:37:24.7	357.590	-0.240	-0.170	-0.940
2020/01/31 17:37:24.8	357.600	-0.190	-0.190	-0.910
2020/01/31 17:37:24.9	357.600	-0.140	-0.210	-0.890
2020/01/31 17:37:25.0	357.610	-0.090	-0.230	-0.850
2020/01/31 17:37:25.1	357.610	-0.040	-0.260	-0.820
2020/01/31 17:37:25.2	357.610	0.020	-0.280	-0.780
2020/01/31 17:37:25.3	357.610	0.070	-0.310	-0.740
2020/01/31 17:37:25.4	357.610	0.120	-0.330	-0.700
2020/01/31 17:37:25.5	357.600	0.180	-0.350	-0.650
2020/01/31 17:37:25.6	357.590	0.230	-0.380	-0.600
2020/01/31 17:37:25.7	357.590	0.280	-0.400	-0.560
2020/01/31 17:37:25.8	357.580	0.330	-0.420	-0.500
2020/01/31 17:37:25.9	357.570	0.370	-0.430	-0.450
2020/01/31 17:37:26.0	357.550	0.420	-0.450	-0.400
2020/01/31 17:37:26.1	357.540	0.460	-0.460	-0.350
2020/01/31 17:37:26.2	357.520	0.490	-0.470	-0.300
2020/01/31 17:37:26.3	357.510	0.530	-0.470	-0.250
2020/01/31 17:37:26.4	357.490	0.560	-0.480	-0.210
2020/01/31 17:37:26.5	357.470	0.580	-0.470	-0.160
2020/01/31 17:37:26.6	357.450	0.600	-0.470	-0.120
2020/01/31 17:37:26.7	357.440	0.620	-0.460	-0.080
2020/01/31 17:37:26.8	357.420	0.630	-0.450	-0.040
2020/01/31 17:37:26.9	357.400	0.640	-0.440	-0.010
2020/01/31 17:37:27.0	357.380	0.650	-0.420	0.020
2020/01/31 17:37:27.1	357.360	0.650	-0.400	0.050
2020/01/31 17:37:27.2	357.350	0.640	-0.380	0.070
2020/01/31 17:37:27.3	357.330	0.630	-0.360	0.090
2020/01/31 17:37:27.4	357.320	0.620	-0.340	0.110
2020/01/31 17:37:27.5	357.300	0.600	-0.310	0.120
2020/01/31 17:37:27.6	357.290	0.580	-0.280	0.130
2020/01/31 17:37:27.7	357.280	0.560	-0.250	0.130
2020/01/31 17:37:27.8	357.270	0.530	-0.220	0.140
2020/01/31 17:37:27.9	357.260	0.500	-0.190	0.140
2020/01/31 17:37:28.0	357.250	0.470	-0.160	0.140
2020/01/31 17:37:28.1	357.250	0.430	-0.130	0.130
2020/01/31 17:37:28.2	357.250	0.400	-0.100	0.130
2020/01/31 17:37:28.3	357.250	0.360	-0.070	0.120
2020/01/31 17:37:28.4	357.250	0.320	-0.040	0.110
2020/01/31 17:37:28.5	357.250	0.280	-0.020	0.100
2020/01/31 17:37:28.6	357.260	0.240	0.010	0.090
2020/01/31 17:37:28.7	357.270	0.200	0.040	0.080
2020/01/31 17:37:28.8	357.280	0.170	0.060	0.060
2020/01/31 17:37:28.9	357.290	0.130	0.080	0.040
2020/01/31 17:37:29.0	357.300	0.100	0.100	0.030
2020/01/31 17:37:29.1	357.320	0.070	0.120	0.020
2020/01/31 17:37:29.2	357.330	0.040	0.130	0.000
2020/01/31 17:37:29.3	357.350	0.010	0.140	-0.010
2020/01/31 17:37:29.4	357.360	-0.020	0.150	-0.030
2020/01/31 17:37:29.5	357.380	-0.040	0.160	-0.040
2020/01/31 17:37:29.6	357.400	-0.060	0.160	-0.060
2020/01/31 17:37:29.7	357.420	-0.080	0.170	-0.080
2020/01/31 17:37:29.8	357.440	-0.100	0.170	-0.090
2020/01/31 17:37:29.9	357.460	-0.110	0.160	-0.110
2020/01/31 17:37:30.0	357.480	-0.120	0.160	-0.120
2020/01/31 17:37:30.1	357.500	-0.130	0.150	-0.140
2020/01/31 17:37:30.2	357.520	-0.140	0.140	-0.150
2020/01/31 17:37:30.3	357.530	-0.150	0.130	-0.160
2020/01/31 17:37:30.4	357.550	-0.150	0.120	-0.170
2020/01/31 17:37:30.5	357.560	-0.160	0.110	-0.190
2020/01/31 17:37:30.6	357.580	-0.160	0.100	-0.200
2020/01/31 17:37:30.7	357.590	-0.170	0.090	-0.210
2020/01/31 17:37:30.8	357.600	-0.170	0.070	-0.210
2020/01/31 17:37:30.9	357.610	-0.180	0.060	-0.220
2020/01/31 17:37:31.0	357.610	-0.180	0.040	-0.240
2020/01/31 17:37:31.1	357.620	-0.190	0.030	-0.250
2020/01/31 17:37:31.2	357.620	-0.200	0.010	-0.260
2020/01/31 17:37:31.3	357.620	-0.200	-0.010	-0.270
2020/01/31 17:37:31.4	357.620	-0.210	-0.030	-0.280
2020/01/31 17:37:31.5	357.620	-0.220	-0.040	-0.290
2020/01/31 17:37:31.6	357.610	-0.230	-0.060	-0.300
2020/01/31 17:37:31.7	357.610	-0.240	-0.080	-0.310
2020/01/31 17:37:31.8	357.610	-0.250	-0.100	-0.320
2020/01/31 17:37:31.9	357.600	-0.260	-0.120	-0.330
2020/01/31 17:37:32.0	357.590	-0.270	-0.140	-0.340
2020/01/31 17:37:32.1	357.580	-0.290	-0.160	-0.350
2020/01/31 17:37:32.2	357.560	-0.300	-0.170	-0.360
2020/01/31 17:37:32.3	357.540	-0.310	-0.190	-0.370
2020/01/31 17:37:32.4	357.520	-0.320	-0.210	-0.370
2020/01/31 17:37:32.5	357.500	-0.340	-0.230	-0.380
2020/01/31 17:37:32.6	357.480	-0.350	-0.250	-0.380
2020/01/31 17:37:32.7	357.460	-0.360	-0.260	-0.390
2020/01/31 17:37:32.8	357.440	-0.370	-0.280	-0.390
2020/01/31 17:37:32.9	357.420	-0.390	-0.300	-0.390
2020/01/31 17:37:33.0	357.390	-0.400	-0.310	-0.400
2020/01/31 17:37:33.1	357.370	-0.400	-0.330	-0.400
2020/01/31 17:37:33.2	357.350	-0.410	-0.350	-0.400
2020/01/31 17:37:33.3	357.330	-0.420	-0.370	-0.410
2020/01/31 17:37:33.4	357.310	-0.420	-0.390	-0.420
2020/01/31 17:37:33.5	357.290	-0.420	-0.410	-0.420
2020/01/31 17:37:33.6	357.280	-0.420	-0.430	-0.430
2020/01/31 17:37:33.7	357.260	-0.410	-0.450	-0.440
2020/01/31 17:37:33.8	357.250	-0.410	-0.470	-0.450
2020/01/31 17:37:33.9	357.230	-0.400	-0.490	-0.460
2020/01/31 17:37:34.0	357.220	-0.380	-0.500	-0.470
2020/01/31 17:37:34.1	357.220	-0.370	-0.520	-0.480
2020/01/31 17:37:34.2	357.210	-0.340	-0.540	-0.490
2020/01/31 17:37:34.3	357.200	-0.320	-0.560	-0.500
2020/01/31 17:37:34.4	357.200	-0.290	-0.580	-0.510
2020/01/31 17:37:34.5	357.200	-0.260	-0.590	-0.520
2020/01/31 17:37:34.6	357.200	-0.230	-0.600	-0.520
2020/01/31 17:37:34.7	357.200	-0.190	-0.610	-0.530
2020/01/31 17:37:34.8	357.210	-0.160	-0.620	-0.530
2020/01/31 17:37:34.9	357.210	-0.120	-0.630	-0.540
2020/01/31 17:37:35.0	357.220	-0.080	-0.630	-0.530
2020/01/31 17:37:35.1	357.220	-0.030	-0.630	-0.530
2020/01/31 17:37:35.2	357.230	0.010	-0.620	-0.520
2020/01/31 17:37:35.3	357.240	0.050	-0.610	-0.510
2020/01/31 17:37:35.4	357.240	0.090	-0.600	-0.500
2020/01/31 17:37:35.5	357.250	0.130	-0.580	-0.490
2020/01/31 17:37:35.6	357.250	0.170	-0.560	-0.470
2020/01/31 17:37:35.7	357.260	0.210	-0.530	-0.440
2020/01/31 17:37:35.8	357.260	0.240	-0.500	-0.420
2020/01/31 17:37:35.9	357.260	0.270	-0.470	-0.390
2020/01/31 17:37:36.0	357.260	0.300	-0.430	-0.360
2020/01/31 17:37:36.1	357.260	0.330	-0.390	-0.320
2020/01/31 17:37:36.2	357.260	0.350	-0.340	-0.290
2020/01/31 17:37:36.3	357.260	0.370	-0.300	-0.250
2020/01/31 17:37:36.4	357.250	0.380	-0.250	-0.210
2020/01/31 17:37:36.5	357.240	0.380	-0.200	-0.170
2020/01/31 17:37:36.6	357.240	0.390	-0.150	-0.130
2020/01/31 17:37:36.7	357.230	0.390	-0.100	-0.090
2020/01/31 17:37:36.8	357.220	0.380	-0.040	-0.040
2020/01/31 17:37:36.9	357.210	0.370	0.000	-0.000
2020/01/31 17:37:37.0	357.200	0.360	0.050	0.030
2020/01/31 17:37:37.1	357.190	0.340	0.090	0.070
2020/01/31 17:37:37.2	357.180	0.320	0.130	0.110
2020/01/31 17:37:37.3	357.170	0.290	0.160	0.140
2020/01/31 17:37:37.4	357.160	0.260	0.190	0.170
2020/01/31 17:37:37.5	357.150	0.230	0.210	0.190
2020/01/31 17:37:37.6	357.150	0.200	0.230	0.220
2020/01/31 17:37:37.7	357.140	0.160	0.240	0.230
2020/01/31 17:37:37.8	357.130	0.130	0.240	0.240
2020/01/31 17:37:37.9	357.130	0.090	0.240	0.250
2020/01/31 17:37:38.0	357.140	0.050	0.230	0.250
2020/01/31 17:37:38.1	357.140	0.010	0.210	0.240
2020/01/31 17:37:38.2	357.150	-0.020	0.190	0.230
2020/01/31 17:37:38.3	357.170	-0.060	0.150	0.210
2020/01/31 17:37:38.4	357.180	-0.090	0.110	0.190
2020/01/31 17:37:38.5	357.200	-0.120	0.070	0.160
2020/01/31 17:37:38.6	357.230	-0.150	0.010	0.120
2020/01/31 17:37:38.7	357.260	-0.180	-0.050	0.080
2020/01/31 17:37:38.8	357.290	-0.200	-0.110	0.030
2020/01/31 17:37:38.9	357.330	-0.220	-0.170	-0.020
2020/01/31 17:37:39.0	357.370	-0.230	-0.250	-0.070
2020/01/31 17:37:39.1	357.410	-0.240	-0.320	-0.130
2020/01/31 17:37:39.2	357.460	-0.250	-0.400	-0.190
2020/01/31 17:37:39.3	357.510	-0.250	-0.480	-0.250
2020/01/31 17:37:39.4	357.560	-0.250	-0.560	-0.300
2020/01/31 17:37:39.5	357.610	-0.240	-0.640	-0.360
2020/01/31 17:37:39.6	357.660	-0.230	-0.720	-0.420
2020/01/31 17:37:39.7	357.720	-0.220	-0.790	-0.480
2020/01/31 17:37:39.8	357.760	-0.200	-0.860	-0.530
2020/01/31 17:37:39.9	357.820	-0.180	-0.920	-0.580
2020/01/31 17:37:40.0	357.870	-0.160	-0.980	-0.630
2020/01/31 17:37:40.1	357.910	-0.130	-1.030	-0.670
2020/01/31 17:37:40.2	357.960	-0.110	-1.070	-0.710
2020/01/31 17:37:40.3	358.000	-0.080	-1.100	-0.740
2020/01/31 17:37:40.4	358.040	-0.050	-1.130	-0.770
2020/01/31 17:37:40.5	358.070	-0.020	-1.150	-0.790
2020/01/31 17:37:40.6	358.100	0.000	-1.150	-0.800
2020/01/31 17:37:40.7	358.120	0.030	-1.150	-0.820
2020/01/31 17:37:40.8	358.150	0.060	-1.140	-0.820
2020/01/31 17:37:40.9	358.160	0.090	-1.120	-0.820
2020/01/31 17:37:41.0	358.170	0.110	-1.100	-0.820
2020/01/31 17:37:41.1	358.170	0.140	-1.060	-0.810
2020/01/31 17:37:41.2	358.170	0.160	-1.020	-0.790
2020/01/31 17:37:41.3	358.170	0.180	-0.970	-0.770
2020/01/31 17:37:41.4	358.160	0.200	-0.910	-0.750
2020/01/31 17:37:41.5	358.140	0.220	-0.850	-0.720
2020/01/31 17:37:41.6	358.120	0.230	-0.790	-0.680
2020/01/31 17:37:41.7	358.090	0.250	-0.710	-0.650
2020/01/31 17:37:41.8	358.070	0.260	-0.640	-0.600
2020/01/31 17:37:41.9	358.040	0.270	-0.560	-0.560
2020/01/31 17:37:42.0	358.000	0.280	-0.480	-0.520
2020/01/31 17:37:42.1	357.970	0.280	-0.400	-0.470
2020/01/31 17:37:42.2	357.930	0.290	-0.320	-0.420
2020/01/31 17:37:42.3	357.890	0.290	-0.240	-0.380
2020/01/31 17:37:42.4	357.850	0.290	-0.160	-0.330
2020/01/31 17:37:42.5	357.800	0.290	-0.080	-0.280
2020/01/31 17:37:42.6	357.760	0.290	-0.000	-0.230
2020/01/31 17:37:42.7	357.720	0.290	0.070	-0.180
2020/01/31 17:37:42.8	357.680	0.290	0.140	-0.140
2020/01/31 17:37:42.9	357.630	0.290	0.200	-0.090
2020/01/31 17:37:43.0	357.600	0.290	0.260	-0.050
2020/01/31 17:37:43.1	357.560	0.290	0.310	-0.010
2020/01/31 17:37:43.2	357.520	0.300	0.360	0.020
2020/01/31 17:37:43.3	357.490	0.300	0.400	0.060
2020/01/31 17:37:43.4	357.460	0.300	0.440	0.080
2020/01/31 17:37:43.5	357.430	0.300	0.460	0.110
2020/01/31 17:37:43.6	357.410	0.300	0.480	0.130
2020/01/31 17:37:43.7	357.390	0.310	0.500	0.140
2020/01/31 17:37:43.8	357.370	0.310	0.500	0.150
2020/01/31 17:37:43.9	357.350	0.310	0.510	0.160
2020/01/31 17:37:44.0	357.340	0.320	0.500	0.160
2020/01/31 17:37:44.1	357.330	0.320	0.490	0.150
2020/01/31 17:37:44.2	357.320	0.320	0.470	0.140
2020/01/31 17:37:44.3	357.310	0.320	0.450	0.130
2020/01/31 17:37:44.4	357.300	0.310	0.430	0.120
2020/01/31 17:37:44.5	357.290	0.310	0.400	0.100
2020/01/31 17:37:44.6	357.280	0.300	0.370	0.080
2020/01/31 17:37:44.7	357.280	0.290	0.340	0.050
2020/01/31 17:37:44.8	357.270	0.280	0.300	0.020
2020/01/31 17:37:44.9	357.270	0.270	0.270	-0.010
2020/01/31 17:37:45.0	357.260	0.250	0.230	-0.040
2020/01/31 17:37:45.1	357.260	0.230	0.190	-0.080
2020/01/31 17:37:45.2	357.260	0.210	0.160	-0.110
2020/01/31 17:37:45.3	357.250	0.180	0.120	-0.150
2020/01/31 17:37:45.4	357.250	0.150	0.090	-0.190
2020/01/31 17:37:45.5	357.250	0.120	0.050	-0.230
2020/01/31 17:37:45.6	357.250	0.090	0.020	-0.270
2020/01/31 17:37:45.7	357.250	0.060	-0.010	-0.310
2020/01/31 17:37:45.8	357.250	0.020	-0.030	-0.350
2020/01/31 17:37:45.9	357.250	-0.020	-0.050	-0.390
2020/01/31 17:37:46.0	357.250	-0.060	-0.080	-0.430
2020/01/31 17:37:46.1	357.250	-0.100	-0.100	-0.470
2020/01/31 17:37:46.2	357.250	-0.140	-0.110	-0.500
2020/01/31 17:37:46.3	357.250	-0.180	-0.130	-0.530
2020/01/31 17:37:46.4	357.250	-0.230	-0.140	-0.570
2020/01/31 17:37:46.5	357.250	-0.270	-0.150	-0.600
2020/01/31 17:37:46.6	357.250	-0.310	-0.160	-0.630
2020/01/31 17:37:46.7	357.250	-0.350	-0.170	-0.650
2020/01/31 17:37:46.8	357.240	-0.390	-0.170	-0.680
2020/01/31 17:37:46.9	357.240	-0.420	-0.180	-0.700
2020/01/31 17:37:47.0	357.240	-0.460	-0.180	-0.730
2020/01/31 17:37:47.1	357.240	-0.490	-0.180	-0.750
2020/01/31 17:37:47.2	357.240	-0.510	-0.190	-0.770
2020/01/31 17:37:47.3	357.240	-0.540	-0.190	-0.790
2020/01/31 17:37:47.4	357.240	-0.560	-0.200	-0.800
2020/01/31 17:37:47.5	357.240	-0.570	-0.200	-0.820
2020/01/31 17:37:47.6	357.240	-0.590	-0.210	-0.840
2020/01/31 17:37:47.7	357.250	-0.600	-0.220	-0.850
2020/01/31 17:37:47.8	357.240	-0.600	-0.230	-0.860
2020/01/31 17:37:47.9	357.240	-0.600	-0.240	-0.870
2020/01/31 17:37:48.0	357.250	-0.600	-0.260	-0.880
2020/01/31 17:37:48.1	357.250	-0.590	-0.270	-0.890
2020/01/31 17:37:48.2	357.260	-0.580	-0.290	-0.900
2020/01/31 17:37:48.3	357.260	-0.560	-0.320	-0.910
2020/01/31 17:37:48.4	357.270	-0.540	-0.340	-0.910
2020/01/31 17:37:48.5	357.270	-0.520	-0.370	-0.920
2020/01/31 17:37:48.6	357.280	-0.500	-0.400	-0.920
2020/01/31 17:37:48.7	357.290	-0.470	-0.430	-0.920
2020/01/31 17:37:48.8	357.300	-0.440	-0.460	-0.920
2020/01/31 17:37:48.9	357.320	-0.400	-0.500	-0.920
2020/01/31 17:37:49.0	357.330	-0.370	-0.530	-0.920
2020/01/31 17:37:49.1	357.350	-0.330	-0.570	-0.920
2020/01/31 17:37:49.2	357.370	-0.290	-0.610	-0.920
2020/01/31 17:37:49.3	357.390	-0.250	-0.640	-0.910
2020/01/31 17:37:49.4	357.410	-0.210	-0.680	-0.910
2020/01/31 17:37:49.5	357.430	-0.170	-0.720	-0.900
2020/01/31 17:37:49.6	357.450	-0.130	-0.750	-0.900
2020/01/31 17:37:49.7	357.480	-0.090	-0.780	-0.890
2020/01/31 17:37:49.8	357.500	-0.050	-0.810	-0.880
2020/01/31 17:37:49.9	357.530	-0.010	-0.840	-0.860
2020/01/31 17:37:50.0	357.550	0.020	-0.860	-0.850
2020/01/31 17:37:50.1	357.580	0.050	-0.870	-0.830
2020/01/31 17:37:50.2	357.600	0.080	-0.880	-0.820
2020/01/31 17:37:50.3	357.620	0.110	-0.890	-0.800
2020/01/31 17:37:50.4	357.640	0.140	-0.890	-0.770
2020/01/31 17:37:50.5	357.670	0.160	-0.890	-0.750
2020/01/31 17:37:50.6	357.680	0.180	-0.880	-0.730
2020/01/31 17:37:50.7	357.700	0.190	-0.860	-0.700
2020/01/31 17:37:50.8	357.710	0.210	-0.840	-0.670
2020/01/31 17:37:50.9	357.720	0.210	-0.810	-0.640
2020/01/31 17:37:51.0	357.740	0.220	-0.780	-0.610
2020/01/31 17:37:51.1	357.750	0.220	-0.750	-0.580
2020/01/31 17:37:51.2	357.760	0.220	-0.710	-0.550
2020/01/31 17:37:51.3	357.770	0.210	-0.670	-0.520
2020/01/31 17:37:51.4	357.770	0.200	-0.620	-0.480
2020/01/31 17:37:51.5	357.780	0.190	-0.580	-0.450
2020/01/31 17:37:51.6	357.790	0.180	-0.530	-0.410
2020/01/31 17:37:51.7	357.790	0.160	-0.480	-0.380
2020/01/31 17:37:51.8	357.810	0.150	-0.430	-0.340
2020/01/31 17:37:51.9	357.810	0.130	-0.380	-0.300
2020/01/31 17:37:52.0	357.820	0.110	-0.330	-0.270
2020/01/31 17:37:52.1	357.820	0.090	-0.280	-0.230
2020/01/31 17:37:52.2	357.820	0.060	-0.240	-0.200
2020/01/31 17:37:52.3	357.830	0.040	-0.200	-0.170
2020/01/31 17:37:52.4	357.830	0.020	-0.160	-0.140
2020/01/31 17:37:52.5	357.830	-0.000	-0.120	-0.110
2020/01/31 17:37:52.6	357.840	-0.020	-0.090	-0.090
2020/01/31 17:37:52.7	357.840	-0.040	-0.070	-0.060
2020/01/31 17:37:52.8	357.840	-0.060	-0.040	-0.050
2020/01/31 17:37:52.9	357.840	-0.080	-0.030	-0.030
2020/01/31 17:37:53.0	357.850	-0.100	-0.010	-0.020
2020/01/31 17:37:53.1	357.850	-0.110	-0.010	-0.010
2020/01/31 17:37:53.2	357.860	-0.130	-0.000	-0.010
2020/01/31 17:37:53.3	357.860	-0.140	-0.000	-0.010
2020/01/31 17:37:53.4	357.860	-0.140	-0.010	-0.010
2020/01/31 17:37:53.5	357.870	-0.150	-0.020	-0.010
2020/01/31 17:37:53.6	357.870	-0.150	-0.030	-0.020
2020/01/31 17:37:53.7	357.870	-0.150	-0.050	-0.040
2020/01/31 17:37:53.8	357.880	-0.150	-0.060	-0.050
2020/01/31 17:37:53.9	357.870	-0.150	-0.080	-0.070
2020/01/31 17:37:54.0	357.870	-0.140	-0.100	-0.080
2020/01/31 17:37:54.1	357.870	-0.130	-0.120	-0.100
2020/01/31 17:37:54.2	357.860	-0.120	-0.140	-0.120
2020/01/31 17:37:54.3	357.850	-0.110	-0.160	-0.140
2020/01/31 17:37:54.4	357.830	-0.090	-0.180	-0.150
2020/01/31 17:37:54.5	357.820	-0.070	-0.200	-0.170
2020/01/31 17:37:54.6	357.800	-0.060	-0.220	-0.180
2020/01/31 17:37:54.7	357.780	-0.040	-0.230	-0.190
2020/01/31 17:37:54.8	357.770	-0.020	-0.250	-0.210
2020/01/31 17:37:54.9	357.750	0.010	-0.260	-0.220
2020/01/31 17:37:55.0	357.730	0.030	-0.270	-0.230
2020/01/31 17:37:55.1	357.710	0.050	-0.270	-0.240
2020/01/31 17:37:55.2	357.680	0.070	-0.270	-0.260
2020/01/31 17:37:55.3	357.660	0.100	-0.270	-0.260
2020/01/31 17:37:55.4	357.640	0.120	-0.270	-0.270
2020/01/31 17:37:55.5	357.620	0.140	-0.260	-0.280
2020/01/31 17:37:55.6	357.600	0.160	-0.260	-0.290
2020/01/31 17:37:55.7	357.580	0.180	-0.240	-0.290
2020/01/31 17:37:55.8	357.570	0.200	-0.230	-0.300
2020/01/31 17:37:55.9	357.550	0.220	-0.220	-0.300
2020/01/31 17:37:56.0	357.540	0.230	-0.200	-0.310
2020/01/31 17:37:56.1	357.530	0.250	-0.180	-0.310
2020/01/31 17:37:56.2	357.520	0.260	-0.170	-0.310
2020/01/31 17:37:56.3	357.510	0.280	-0.150	-0.320
2020/01/31 17:37:56.4	357.510	0.290	-0.130	-0.320
2020/01/31 17:37:56.5	357.510	0.300	-0.110	-0.320
2020/01/31 17:37:56.6	357.510	0.300	-0.090	-0.330
2020/01/31 17:37:56.7	357.520	0.310	-0.070	-0.330
2020/01/31 17:37:56.8	357.510	0.310	-0.060	-0.350
2020/01/31 17:37:56.9	357.510	0.310	-0.040	-0.350
2020/01/31 17:37:57.0	357.520	0.310	-0.020	-0.360
2020/01/31 17:37:57.1	357.520	0.300	-0.010	-0.370
2020/01/31 17:37:57.2	357.530	0.300	0.010	-0.380
2020/01/31 17:37:57.3	357.540	0.280	0.030	-0.390
2020/01/31 17:37:57.4	357.540	0.270	0.040	-0.400
2020/01/31 17:37:57.5	357.540	0.250	0.060	-0.400
2020/01/31 17:37:57.6	357.550	0.230	0.070	-0.410
2020/01/31 17:37:57.7	357.550	0.210	0.090	-0.420
2020/01/31 17:37:57.8	357.550	0.180	0.100	-0.420
2020/01/31 17:37:57.9	357.550	0.150	0.110	-0.430
2020/01/31 17:37:58.0	357.540	0.120	0.130	-0.430
2020/01/31 17:37:58.1	357.540	0.090	0.140	-0.440
2020/01/31 17:37:58.2	357.530	0.060	0.150	-0.440
2020/01/31 17:37:58.3	357.520	0.020	0.160	-0.430
2020/01/31 17:37:58.4	357.510	-0.020	0.170	-0.430
2020/01/31 17:37:58.5	357.510	-0.050	0.180	-0.430
2020/01/31 17:37:58.6	357.500	-0.090	0.190	-0.420
2020/01/31 17:37:58.7	357.490	-0.130	0.190	-0.410
2020/01/31 17:37:58.8	357.470	-0.170	0.200	-0.400
2020/01/31 17:37:58.9	357.470	-0.200	0.200	-0.390
2020/01/31 17:37:59.0	357.460	-0.240	0.200	-0.380
2020/01/31 17:37:59.1	357.450	-0.270	0.190	-0.370
2020/01/31 17:37:59.2	357.450	-0.300	0.180	-0.360
2020/01/31 17:37:59.3	357.450	-0.330	0.170	-0.350
2020/01/31 17:37:59.4	357.450	-0.350	0.160	-0.340
2020/01/31 17:37:59.5	357.450	-0.370	0.140	-0.330
2020/01/31 17:37:59.6	357.460	-0.390	0.120	-0.320
2020/01/31 17:37:59.7	357.470	-0.400	0.090	-0.310
2020/01/31 17:37:59.8	357.480	-0.410	0.060	-0.310
2020/01/31 17:37:59.9	357.490	-0.420	0.030	-0.310
2020/01/31 17:38:00.0	357.500	-0.420	-0.010	-0.300
2020/01/31 17:38:00.1	357.510	-0.410	-0.050	-0.300
2020/01/31 17:38:00.2	357.520	-0.400	-0.090	-0.300
2020/01/31 17:38:00.3	357.540	-0.390	-0.130	-0.300
2020/01/31 17:38:00.4	357.550	-0.370	-0.180	-0.300
2020/01/31 17:38:00.5	357.570	-0.340	-0.230	-0.300
2020/01/31 17:38:00.6	357.580	-0.310	-0.270	-0.300
2020/01/31 17:38:00.7	357.600	-0.280	-0.320	-0.300
2020/01/31 17:38:00.8	357.620	-0.240	-0.370	-0.300
2020/01/31 17:38:00.9	357.630	-0.200	-0.420	-0.300
2020/01/31 17:38:01.0	357.650	-0.160	-0.470	-0.290
2020/01/31 17:38:01.1	357.660	-0.110	-0.520	-0.290
2020/01/31 17:38:01.2	357.680	-0.060	-0.570	-0.290
2020/01/31 17:38:01.3	357.690	-0.010	-0.610	-0.280
2020/01/31 17:38:01.4	357.710	0.050	-0.660	-0.280
2020/01/31 17:38:01.5	357.720	0.100	-0.700	-0.270
2020/01/31 17:38:01.6	357.740	0.160	-0.740	-0.260
2020/01/31 17:38:01.7	357.750	0.210	-0.780	-0.250
2020/01/31 17:38:01.8	357.770	0.260	-0.810	-0.240
2020/01/31 17:38:01.9	357.790	0.320	-0.850	-0.230
2020/01/31 17:38:02.0	357.800	0.370	-0.880	-0.220
2020/01/31 17:38:02.1	357.820	0.410	-0.900	-0.210
2020/01/31 17:38:02.2	357.830	0.460	-0.930	-0.200
2020/01/31 17:38:02.3	357.850	0.500	-0.950	-0.190
2020/01/31 17:38:02.4	357.870	0.540	-0.970	-0.180
2020/01/31 17:38:02.5	357.890	0.570	-0.980	-0.170
2020/01/31 17:38:02.6	357.910	0.600	-0.990	-0.160
2020/01/31 17:38:02.7	357.920	0.620	-1.000	-0.150
2020/01/31 17:38:02.8	357.940	0.640	-1.010	-0.140
2020/01/31 17:38:02.9	357.960	0.650	-1.010	-0.140
2020/01/31 17:38:03.0	357.980	0.660	-1.010	-0.130
2020/01/31 17:38:03.1	358.000	0.660	-1.000	-0.130
2020/01/31 17:38:03.2	358.020	0.650	-0.990	-0.140
2020/01/31 17:38:03.3	358.040	0.640	-0.980	-0.140
2020/01/31 17:38:03.4	358.060	0.620	-0.970	-0.150
2020/01/31 17:38:03.5	358.080	0.600	-0.950	-0.170
2020/01/31 17:38:03.6	358.110	0.570	-0.920	-0.180
2020/01/31 17:38:03.7	358.130	0.540	-0.900	-0.210
2020/01/31 17:38:03.8	358.140	0.500	-0.870	-0.230
2020/01/31 17:38:03.9	358.160	0.460	-0.840	-0.260
2020/01/31 17:38:04.0	358.180	0.410	-0.800	-0.300
2020/01/31 17:38:04.1	358.200	0.360	-0.760	-0.330
2020/01/31 17:38:04.2	358.220	0.300	-0.720	-0.370
2020/01/31 17:38:04.3	358.240	0.240	-0.680	-0.410
2020/01/31 17:38:04.4	358.250	0.180	-0.630	-0.450
2020/01/31 17:38:04.5	358.270	0.120	-0.580	-0.500
2020/01/31 17:38:04.6	358.280	0.050	-0.520	-0.540
2020/01/31 17:38:04.7	358.290	-0.020	-0.470	-0.580
2020/01/31 17:38:04.8	358.300	-0.080	-0.410	-0.620
2020/01/31 17:38:04.9	358.310	-0.150	-0.350	-0.670
2020/01/31 17:38:05.0	358.320	-0.220	-0.290	-0.700
2020/01/31 17:38:05.1	358.320	-0.290	-0.220	-0.740
2020/01/31 17:38:05.2	358.320	-0.350	-0.150	-0.780
2020/01/31 17:38:05.3	358.320	-0.420	-0.090	-0.810
2020/01/31 17:38:05.4	358.320	-0.480	-0.020	-0.840
2020/01/31 17:38:05.5	358.320	-0.540	0.050	-0.870
2020/01/31 17:38:05.6	358.310	-0.590	0.120	-0.890
2020/01/31 17:38:05.7	358.310	-0.640	0.180	-0.910
2020/01/31 17:38:05.8	358.300	-0.690	0.250	-0.940
2020/01/31 17:38:05.9	358.290	-0.730	0.310	-0.960
2020/01/31 17:38:06.0	358.280	-0.770	0.370	-0.980
2020/01/31 17:38:06.1	358.280	-0.800	0.420	-0.990
2020/01/31 17:38:06.2	358.270	-0.830	0.470	-1.000
2020/01/31 17:38:06.3	358.270	-0.850	0.510	-1.020
2020/01/31 17:38:06.4	358.260	-0.870	0.550	-1.030
2020/01/31 17:38:06.5	358.260	-0.880	0.580	-1.030
2020/01/31 17:38:06.6	358.260	-0.880	0.610	-1.040
2020/01/31 17:38:06.7	358.260	-0.870	0.620	-1.040
2020/01/31 17:38:06.8	358.270	-0.860	0.630	-1.050
2020/01/31 17:38:06.9	358.270	-0.850	0.640	-1.050
2020/01/31 17:38:07.0	358.270	-0.820	0.630	-1.050
2020/01/31 17:38:07.1	358.280	-0.790	0.620	-1.050
2020/01/31 17:38:07.2	358.290	-0.760	0.610	-1.050
2020/01/31 17:38:07.3	358.300	-0.720	0.580	-1.040
2020/01/31 17:38:07.4	358.310	-0.670	0.550	-1.040
2020/01/31 17:38:07.5	358.320	-0.630	0.520	-1.030
2020/01/31 17:38:07.6	358.330	-0.570	0.480	-1.020
2020/01/31 17:38:07.7	358.350	-0.520	0.430	-1.010
2020/01/31 17:38:07.8	358.360	-0.460	0.390	-0.990
2020/01/31 17:38:07.9	358.370	-0.390	0.330	-0.980
2020/01/31 17:38:08.0	358.380	-0.330	0.280	-0.950
2020/01/31 17:38:08.1	358.390	-0.260	0.230	-0.930
2020/01/31 17:38:08.2	358.400	-0.200	0.180	-0.910
2020/01/31 17:38:08.3	358.400	-0.130	0.120	-0.880
2020/01/31 17:38:08.4	358.410	-0.060	0.070	-0.840
2020/01/31 17:38:08.5	358.410	0.000	0.020	-0.810
2020/01/31 17:38:08.6	358.410	0.070	-0.030	-0.770
2020/01/31 17:38:08.7	358.410	0.130	-0.080	-0.730
2020/01/31 17:38:08.8	358.400	0.190	-0.120	-0.690
2020/01/31 17:38:08.9	358.390	0.240	-0.170	-0.640
2020/01/31 17:38:09.0	358.380	0.290	-0.200	-0.590
2020/01/31 17:38:09.1	358.370	0.340	-0.240	-0.540
2020/01/31 17:38:09.2	358.350	0.390	-0.270	-0.490
2020/01/31 17:38:09.3	358.330	0.430	-0.300	-0.430
2020/01/31 17:38:09.4	358.310	0.460	-0.320	-0.370
2020/01/31 17:38:09.5	358.280	0.490	-0.340	-0.310
2020/01/31 17:38:09.6	358.250	0.520	-0.360	-0.240
2020/01/31 17:38:09.7	358.220	0.540	-0.370	-0.180
2020/01/31 17:38:09.8	358.180	0.550	-0.380	-0.120
2020/01/31 17:38:09.9	358.150	0.560	-0.390	-0.050
2020/01/31 17:38:10.0	358.110	0.570	-0.400	0.010
2020/01/31 17:38:10.1	358.070	0.570	-0.410	0.070
2020/01/31 17:38:10.2	358.040	0.560	-0.410	0.130
2020/01/31 17:38:10.3	358.000	0.550	-0.420	0.180
2020/01/31 17:38:10.4	357.970	0.540	-0.420	0.220
2020/01/31 17:38:10.5	357.940	0.520	-0.420	0.260
2020/01/31 17:38:10.6	357.910	0.500	-0.430	0.300
2020/01/31 17:38:10.7	357.880	0.470	-0.430	0.320
2020/01/31 17:38:10.8	357.850	0.450	-0.440	0.350
2020/01/31 17:38:10.9	357.830	0.420	-0.450	0.360
2020/01/31 17:38:11.0	357.820	0.380	-0.460	0.360
2020/01/31 17:38:11.1	357.810	0.350	-0.470	0.350
2020/01/31 17:38:11.2	357.810	0.320	-0.490	0.330
2020/01/31 17:38:11.3	357.810	0.290	-0.500	0.310
2020/01/31 17:38:11.4	357.820	0.250	-0.520	0.280
2020/01/31 17:38:11.5	357.840	0.220	-0.540	0.240
2020/01/31 17:38:11.6	357.860	0.190	-0.560	0.200
2020/01/31 17:38:11.7	357.880	0.160	-0.580	0.150
2020/01/31 17:38:11.8	357.920	0.140	-0.600	0.080
2020/01/31 17:38:11.9	357.950	0.110	-0.620	0.020
2020/01/31 17:38:12.0	357.990	0.090	-0.640	-0.050
2020/01/31 17:38:12.1	358.030	0.070	-0.670	-0.110
2020/01/31 17:38:12.2	358.080	0.050	-0.690	-0.180
2020/01/31 17:38:12.3	358.130	0.040	-0.710	-0.260
2020/01/31 17:38:12.4	358.180	0.020	-0.720	-0.330
2020/01/31 17:38:12.5	358.240	0.010	-0.740	-0.400
2020/01/31 17:38:12.6	358.290	-0.000	-0.750	-0.480
2020/01/31 17:38:12.7	358.350	-0.010	-0.760	-0.550
2020/01/31 17:38:12.8	358.390	-0.020	-0.770	-0.630
2020/01/31 17:38:12.9	358.450	-0.020	-0.770	-0.700
2020/01/31 17:38:13.0	358.500	-0.030	-0.770	-0.770
2020/01/31 17:38:13.1	358.560	-0.040	-0.770	-0.840
2020/01/31 17:38:13.2	358.610	-0.040	-0.760	-0.910
2020/01/31 17:38:13.3	358.670	-0.050	-0.750	-0.970
2020/01/31 17:38:13.4	358.720	-0.050	-0.730	-1.030
2020/01/31 17:38:13.5	358.760	-0.060	-0.700	-1.080
2020/01/31 17:38:13.6	358.810	-0.060	-0.680	-1.140
2020/01/31 17:38:13.7	358.850	-0.070	-0.650	-1.190
2020/01/31 17:38:13.8	358.880	-0.080	-0.610	-1.230
2020/01/31 17:38:13.9	358.920	-0.090	-0.580	-1.270
2020/01/31 17:38:14.0	358.950	-0.100	-0.530	-1.310
2020/01/31 17:38:14.1	358.970	-0.110	-0.490	-1.340
2020/01/31 17:38:14.2	358.990	-0.130	-0.440	-1.370
2020/01/31 17:38:14.3	359.010	-0.140	-0.400	-1.390
2020/01/31 17:38:14.4	359.030	-0.160	-0.350	-1.410
2020/01/31 17:38:14.5	359.040	-0.180	-0.290	-1.420
2020/01/31 17:38:14.6	359.040	-0.200	-0.240	-1.430
2020/01/31 17:38:14.7	359.040	-0.220	-0.190	-1.430
2020/01/31 17:38:14.8	359.050	-0.240	-0.140	-1.430
2020/01/31 17:38:14.9	359.040	-0.260	-0.090	-1.430
2020/01/31 17:38:15.0	359.040	-0.280	-0.050	-1.420
2020/01/31 17:38:15.1	359.030	-0.300	-0.000	-1.410
2020/01/31 17:38:15.2	359.010	-0.320	0.040	-1.390
2020/01/31 17:38:15.3	359.000	-0.340	0.070	-1.370
2020/01/31 17:38:15.4	358.980	-0.350	0.110	-1.350
2020/01/31 17:38:15.5	358.960	-0.370	0.140	-1.320
2020/01/31 17:38:15.6	358.940	-0.390	0.160	-1.300
2020/01/31 17:38:15.7	358.920	-0.400	0.180	-1.270
2020/01/31 17:38:15.8	358.890	-0.410	0.200	-1.240
2020/01/31 17:38:15.9	358.870	-0.420	0.210	-1.210
2020/01/31 17:38:16.0	358.850	-0.430	0.210	-1.180
2020/01/31 17:38:16.1	358.820	-0.430	0.210	-1.160
2020/01/31 17:38:16.2	358.800	-0.430	0.200	-1.130
2020/01/31 17:38:16.3	358.780	-0.430	0.190	-1.100
2020/01/31 17:38:16.4	358.760	-0.420	0.170	-1.080
2020/01/31 17:38:16.5	358.740	-0.410	0.150	-1.050
2020/01/31 17:38:16.6	358.720	-0.400	0.120	-1.030
2020/01/31 17:38:16.7	358.710	-0.380	0.090	-1.000
2020/01/31 17:38:16.8	358.690	-0.360	0.060	-0.980
2020/01/31 17:38:16.9	358.680	-0.330	0.020	-0.950
2020/01/31 17:38:17.0	358.670	-0.300	-0.020	-0.930
2020/01/31 17:38:17.1	358.660	-0.270	-0.060	-0.910
2020/01/31 17:38:17.2	358.650	-0.230	-0.110	-0.880
2020/01/31 17:38:17.3	358.640	-0.190	-0.150	-0.860
2020/01/31 17:38:17.4	358.640	-0.150	-0.200	-0.830
2020/01/31 17:38:17.5	358.640	-0.100	-0.250	-0.810
2020/01/31 17:38:17.6	358.640	-0.050	-0.300	-0.780
2020/01/31 17:38:17.7	358.640	-0.000	-0.340	-0.750
2020/01/31 17:38:17.8	358.640	0.050	-0.390	-0.720
2020/01/31 17:38:17.9	358.640	0.100	-0.430	-0.690
2020/01/31 17:38:18.0	358.640	0.150	-0.470	-0.660
2020/01/31 17:38:18.1	358.650	0.200	-0.510	-0.620
2020/01/31 17:38:18.2	358.650	0.260	-0.540	-0.580
2020/01/31 17:38:18.3	358.660	0.310	-0.560	-0.540
2020/01/31 17:38:18.4	358.660	0.350	-0.580	-0.490
2020/01/31 17:38:18.5	358.660	0.400	-0.590	-0.450
2020/01/31 17:38:18.6	358.660	0.440	-0.600	-0.400
2020/01/31 17:38:18.7	358.660	0.480	-0.600	-0.350
2020/01/31 17:38:18.8	358.670	0.520	-0.590	-0.290
2020/01/31 17:38:18.9	358.660	0.550	-0.580	-0.240
2020/01/31 17:38:19.0	358.650	0.580	-0.560	-0.180
2020/01/31 17:38:19.1	358.640	0.600	-0.540	-0.120
2020/01/31 17:38:19.2	358.630	0.620	-0.510	-0.070
2020/01/31 17:38:19.3	358.610	0.630	-0.470	-0.010
2020/01/31 17:38:19.4	358.590	0.640	-0.430	0.050
2020/01/31 17:38:19.5	358.570	0.640	-0.380	0.110
2020/01/31 17:38:19.6	358.550	0.640	-0.330	0.160
2020/01/31 17:38:19.7	358.530	0.630	-0.270	0.220
2020/01/31 17:38:19.8	358.510	0.620	-0.210	0.280
2020/01/31 17:38:19.9	358.490	0.610	-0.150	0.330
2020/01/31 17:38:20.0	358.460	0.590	-0.090	0.380
2020/01/31 17:38:20.1	358.430	0.560	-0.030	0.430
2020/01/31 17:38:20.2	358.410	0.530	0.030	0.470
2020/01/31 17:38:20.3	358.380	0.500	0.090	0.510
2020/01/31 17:38:20.4	358.360	0.460	0.150	0.550
2020/01/31 17:38:20.5	358.330	0.430	0.200	0.580
2020/01/31 17:38:20.6	358.310	0.390	0.250	0.600
2020/01/31 17:38:20.7	358.290	0.340	0.300	0.620
2020/01/31 17:38:20.8	358.260	0.300	0.330	0.630
2020/01/31 17:38:20.9	358.240	0.250	0.370	0.640
2020/01/31 17:38:21.0	358.230	0.210	0.390	0.630
2020/01/31 17:38:21.1	358.230	0.160	0.410	0.620
2020/01/31 17:38:21.2	358.220	0.120	0.420	0.610
2020/01/31 17:38:21.3	358.220	0.070	0.420	0.580
2020/01/31 17:38:21.4	358.230	0.030	0.410	0.550
2020/01/31 17:38:21.5	358.230	-0.020	0.400	0.510
2020/01/31 17:38:21.6	358.240	-0.060	0.370	0.470
2020/01/31 17:38:21.7	358.260	-0.100	0.340	0.410
2020/01/31 17:38:21.8	358.270	-0.130	0.310	0.350
2020/01/31 17:38:21.9	358.290	-0.170	0.260	0.290
2020/01/31 17:38:22.0	358.310	-0.200	0.210	0.220
2020/01/31 17:38:22.1	358.330	-0.230	0.150	0.140
2020/01/31 17:38:22.2	358.360	-0.260	0.090	0.070
2020/01/31 17:38:22.3	358.380	-0.280	0.030	-0.020
2020/01/31 17:38:22.4	358.410	-0.300	-0.040	-0.100
2020/01/31 17:38:22.5	358.440	-0.320	-0.120	-0.190
2020/01/31 17:38:22.6	358.470	-0.340	-0.190	-0.280
2020/01/31 17:38:22.7	358.500	-0.350	-0.270	-0.380
2020/01/31 17:38:22.8	358.530	-0.360	-0.340	-0.470
2020/01/31 17:38:22.9	358.560	-0.370	-0.420	-0.560
2020/01/31 17:38:23.0	358.590	-0.370	-0.490	-0.650
2020/01/31 17:38:23.1	358.620	-0.380	-0.560	-0.740
2020/01/31 17:38:23.2	358.650	-0.370	-0.630	-0.820
2020/01/31 17:38:23.3	358.670	-0.370	-0.690	-0.900
2020/01/31 17:38:23.4	358.700	-0.370	-0.750	-0.980
2020/01/31 17:38:23.5	358.730	-0.360	-0.800	-1.050
2020/01/31 17:38:23.6	358.750	-0.350	-0.840	-1.120
2020/01/31 17:38:23.7	358.770	-0.340	-0.880	-1.180
2020/01/31 17:38:23.8	358.800	-0.320	-0.910	-1.240
2020/01/31 17:38:23.9	358.820	-0.310	-0.930	-1.290
2020/01/31 17:38:24.0	358.840	-0.290	-0.940	-1.330
2020/01/31 17:38:24.1	358.850	-0.280	-0.950	-1.360
2020/01/31 17:38:24.2	358.870	-0.260	-0.950	-1.400
2020/01/31 17:38:24.3	358.880	-0.240	-0.940	-1.420
2020/01/31 17:38:24.4	358.890	-0.220	-0.930	-1.440
2020/01/31 17:38:24.5	358.900	-0.200	-0.910	-1.450
2020/01/31 17:38:24.6	358.900	-0.180	-0.880	-1.450
2020/01/31 17:38:24.7	358.910	-0.160	-0.850	-1.450
2020/01/31 17:38:24.8	358.900	-0.130	-0.820	-1.440
2020/01/31 17:38:24.9	358.890	-0.110	-0.780	-1.430
2020/01/31 17:38:25.0	358.890	-0.090	-0.740	-1.410
2020/01/31 17:38:25.1	358.890	-0.070	-0.690	-1.380
2020/01/31 17:38:25.2	358.880	-0.040	-0.650	-1.350
2020/01/31 17:38:25.3	358.880	-0.020	-0.610	-1.320
2020/01/31 17:38:25.4	358.870	0.000	-0.560	-1.280
2020/01/31 17:38:25.5	358.860	0.020	-0.520	-1.240
2020/01/31 17:38:25.6	358.850	0.050	-0.470	-1.190
2020/01/31 17:38:25.7	358.850	0.070	-0.430	-1.140
2020/01/31 17:38:25.8	358.840	0.090	-0.390	-1.090
2020/01/31 17:38:25.9	358.830	0.110	-0.360	-1.040
2020/01/31 17:38:26.0	358.820	0.130	-0.320	-0.980
2020/01/31 17:38:26.1	358.810	0.150	-0.290	-0.920
2020/01/31 17:38:26.2	358.810	0.170	-0.260	-0.870
2020/01/31 17:38:26.3	358.800	0.190	-0.230	-0.810
2020/01/31 17:38:26.4	358.790	0.210	-0.210	-0.750
2020/01/31 17:38:26.5	358.790	0.220	-0.190	-0.690
2020/01/31 17:38:26.6	358.780	0.240	-0.170	-0.630
2020/01/31 17:38:26.7	358.780	0.250	-0.160	-0.570
2020/01/31 17:38:26.8	358.770	0.260	-0.140	-0.510
2020/01/31 17:38:26.9	358.770	0.270	-0.130	-0.450
2020/01/31 17:38:27.0	358.760	0.270	-0.120	-0.390
2020/01/31 17:38:27.1	358.750	0.280	-0.110	-0.340
2020/01/31 17:38:27.2	358.750	0.280	-0.100	-0.290
2020/01/31 17:38:27.3	358.740	0.280	-0.100	-0.240
2020/01/31 17:38:27.4	358.730	0.280	-0.090	-0.200
2020/01/31 17:38:27.5	358.730	0.270	-0.090	-0.160
2020/01/31 17:38:27.6	358.720	0.270	-0.090	-0.120
2020/01/31 17:38:27.7	358.710	0.260	-0.080	-0.080
2020/01/31 17:38:27.8	358.710	0.250	-0.080	-0.050
2020/01/31 17:38:27.9	358.710	0.240	-0.080	-0.030
2020/01/31 17:38:28.0	358.700	0.220	-0.080	-0.000
2020/01/31 17:38:28.1	358.690	0.210	-0.080	0.020
2020/01/31 17:38:28.2	358.690	0.190	-0.080	0.040
2020/01/31 17:38:28.3	358.680	0.180	-0.080	0.050
2020/01/31 17:38:28.4	358.680	0.160	-0.080	0.060
2020/01/31 17:38:28.5	358.670	0.140	-0.080	0.070
2020/01/31 17:38:28.6	358.670	0.120	-0.080	0.070
2020/01/31 17:38:28.7	358.670	0.100	-0.080	0.080
2020/01/31 17:38:28.8	358.680	0.080	-0.080	0.080
2020/01/31 17:38:28.9	358.680	0.060	-0.080	0.080
2020/01/31 17:38:29.0	358.690	0.040	-0.070	0.070
2020/01/31 17:38:29.1	358.690	0.020	-0.070	0.070
2020/01/31 17:38:29.2	358.700	-0.000	-0.070	0.060
2020/01/31 17:38:29.3	358.710	-0.020	-0.070	0.050
2020/01/31 17:38:29.4	358.720	-0.040	-0.070	0.030
2020/01/31 17:38:29.5	358.740	-0.060	-0.060	0.020
2020/01/31 17:38:29.6	358.750	-0.080	-0.060	-0.000
2020/01/31 17:38:29.7	358.770	-0.100	-0.060	-0.020
2020/01/31 17:38:29.8	358.780	-0.120	-0.060	-0.050
2020/01/31 17:38:29.9	358.790	-0.140	-0.050	-0.070
2020/01/31 17:38:30.0	358.810	-0.150	-0.050	-0.090
2020/01/31 17:38:30.1	358.830	-0.160	-0.050	-0.120
2020/01/31 17:38:30.2	358.840	-0.180	-0.050	-0.140
2020/01/31 17:38:30.3	358.850	-0.190	-0.050	-0.170
2020/01/31 17:38:30.4	358.860	-0.200	-0.040	-0.190
2020/01/31 17:38:30.5	358.870	-0.210	-0.040	-0.210
2020/01/31 17:38:30.6	358.870	-0.220	-0.040	-0.230
2020/01/31 17:38:30.7	358.880	-0.230	-0.030	-0.250
2020/01/31 17:38:30.8	358.880	-0.240	-0.030	-0.270
2020/01/31 17:38:30.9	358.870	-0.240	-0.030	-0.290
2020/01/31 17:38:31.0	358.870	-0.250	-0.020	-0.310
2020/01/31 17:38:31.1	358.860	-0.250	-0.020	-0.320
2020/01/31 17:38:31.2	358.850	-0.250	-0.010	-0.330
2020/01/31 17:38:31.3	358.830	-0.250	-0.010	-0.330
2020/01/31 17:38:31.4	358.810	-0.250	0.000	-0.340
2020/01/31 17:38:31.5	358.790	-0.250	0.010	-0.340
2020/01/31 17:38:31.6	358.770	-0.250	0.010	-0.330
2020/01/31 17:38:31.7	358.740	-0.250	0.020	-0.320
2020/01/31 17:38:31.8	358.710	-0.240	0.030	-0.320
2020/01/31 17:38:31.9	358.680	-0.240	0.030	-0.300
2020/01/31 17:38:32.0	358.650	-0.230	0.030	-0.290
2020/01/31 17:38:32.1	358.620	-0.220	0.030	-0.270
2020/01/31 17:38:32.2	358.580	-0.220	0.030	-0.260
2020/01/31 17:38:32.3	358.550	-0.210	0.030	-0.240
2020/01/31 17:38:32.4	358.520	-0.200	0.020	-0.220
2020/01/31 17:38:32.5	358.480	-0.190	0.010	-0.200
2020/01/31 17:38:32.6	358.450	-0.180	0.000	-0.190
2020/01/31 17:38:32.7	358.420	-0.160	-0.010	-0.180
2020/01/31 17:38:32.8	358.400	-0.150	-0.040	-0.160
2020/01/31 17:38:32.9	358.380	-0.140	-0.060	-0.160
2020/01/31 17:38:33.0	358.360	-0.120	-0.090	-0.150
2020/01/31 17:38:33.1	358.340	-0.110	-0.120	-0.150
2020/01/31 17:38:33.2	358.320	-0.090	-0.150	-0.150
2020/01/31 17:38:33.3	358.310	-0.070	-0.190	-0.160
2020/01/31 17:38:33.4	358.300	-0.050	-0.230	-0.170
2020/01/31 17:38:33.5	358.300	-0.040	-0.280	-0.190
2020/01/31 17:38:33.6	358.300	-0.020	-0.330	-0.210
2020/01/31 17:38:33.7	358.310	0.000	-0.380	-0.230
2020/01/31 17:38:33.8	358.300	0.020	-0.430	-0.260
2020/01/31 17:38:33.9	358.320	0.040	-0.490	-0.290
2020/01/31 17:38:34.0	358.340	0.070	-0.540	-0.320
2020/01/31 17:38:34.1	358.360	0.090	-0.600	-0.360
2020/01/31 17:38:34.2	358.380	0.110	-0.660	-0.400
2020/01/31 17:38:34.3	358.410	0.130	-0.720	-0.430
2020/01/31 17:38:34.4	358.450	0.150	-0.770	-0.470
2020/01/31 17:38:34.5	358.480	0.170	-0.820	-0.510
2020/01/31 17:38:34.6	358.520	0.200	-0.870	-0.550
2020/01/31 17:38:34.7	358.560	0.220	-0.920	-0.590
2020/01/31 17:38:34.8	358.610	0.240	-0.960	-0.630
2020/01/31 17:38:34.9	358.650	0.250	-1.000	-0.670
2020/01/31 17:38:35.0	358.700	0.270	-1.030	-0.700
2020/01/31 17:38:35.1	358.740	0.280	-1.050	-0.730
2020/01/31 17:38:35.2	358.780	0.300	-1.060	-0.750
2020/01/31 17:38:35.3	358.820	0.310	-1.070	-0.780
2020/01/31 17:38:35.4	358.860	0.310	-1.070	-0.800
2020/01/31 17:38:35.5	358.890	0.320	-1.060	-0.810
2020/01/31 17:38:35.6	358.920	0.320	-1.040	-0.830
2020/01/31 17:38:35.7	358.950	0.320	-1.010	-0.840
2020/01/31 17:38:35.8	358.980	0.320	-0.980	-0.840
2020/01/31 17:38:35.9	359.000	0.310	-0.940	-0.840
2020/01/31 17:38:36.0	359.020	0.310	-0.890	-0.840
2020/01/31 17:38:36.1	359.030	0.300	-0.840	-0.830
2020/01/31 17:38:36.2	359.030	0.280	-0.780	-0.820
2020/01/31 17:38:36.3	359.040	0.270	-0.710	-0.800
2020/01/31 17:38:36.4	359.040	0.250	-0.640	-0.790
2020/01/31 17:38:36.5	359.030	0.230	-0.570	-0.760
2020/01/31 17:38:36.6	359.020	0.210	-0.500	-0.740
2020/01/31 17:38:36.7	359.010	0.190	-0.420	-0.710
2020/01/31 17:38:36.8	359.000	0.170	-0.350	-0.680
2020/01/31 17:38:36.9	358.980	0.140	-0.270	-0.650
2020/01/31 17:38:37.0	358.960	0.120	-0.190	-0.620
2020/01/31 17:38:37.1	358.930	0.100	-0.120	-0.580
2020/01/31 17:38:37.2	358.900	0.070	-0.050	-0.540
2020/01/31 17:38:37.3	358.880	0.050	0.020	-0.500
2020/01/31 17:38:37.4	358.850	0.030	0.080	-0.460
2020/01/31 17:38:37.5	358.820	0.000	0.140	-0.420
2020/01/31 17:38:37.6	358.790	-0.020	0.200	-0.380
2020/01/31 17:38:37.7	358.760	-0.030	0.240	-0.340
2020/01/31 17:38:37.8	358.720	-0.050	0.290	-0.300
2020/01/31 17:38:37.9	358.690	-0.060	0.320	-0.270
2020/01/31 17:38:38.0	358.670	-0.070	0.350	-0.230
2020/01/31 17:38:38.1	358.640	-0.080	0.370	-0.200
2020/01/31 17:38:38.2	358.620	-0.080	0.390	-0.160
2020/01/31 17:38:38.3	358.600	-0.090	0.390	-0.130
2020/01/31 17:38:38.4	358.580	-0.080	0.390	-0.110
2020/01/31 17:38:38.5	358.560	-0.080	0.390	-0.080
2020/01/31 17:38:38.6	358.540	-0.070	0.380	-0.060
2020/01/31 17:38:38.7	358.530	-0.060	0.360	-0.040
2020/01/31 17:38:38.8	358.520	-0.050	0.340	-0.030
2020/01/31 17:38:38.9	358.510	-0.040	0.310	-0.010
2020/01/31 17:38:39.0	358.500	-0.020	0.280	-0.010
2020/01/31 17:38:39.1	358.500	-0.010	0.240	-0.000
2020/01/31 17:38:39.2	358.500	0.010	0.200	0.000
2020/01/31 17:38:39.3	358.500	0.030	0.160	0.000
2020/01/31 17:38:39.4	358.500	0.050	0.110	-0.000
2020/01/31 17:38:39.5	358.510	0.070	0.060	-0.010
2020/01/31 17:38:39.6	358.510	0.090	0.010	-0.020
2020/01/31 17:38:39.7	358.520	0.110	-0.040	-0.030
2020/01/31 17:38:39.8	358.530	0.130	-0.080	-0.050
2020/01/31 17:38:39.9	358.540	0.140	-0.130	-0.070
2020/01/31 17:38:40.0	358.550	0.160	-0.180	-0.080
2020/01/31 17:38:40.1	358.560	0.170	-0.220	-0.100
2020/01/31 17:38:40.2	358.570	0.180	-0.260	-0.120
2020/01/31 17:38:40.3	358.570	0.190	-0.300	-0.150
2020/01/31 17:38:40.4	358.580	0.190	-0.330	-0.170
2020/01/31 17:38:40.5	358.590	0.190	-0.360	-0.200
2020/01/31 17:38:40.6	358.600	0.190	-0.390	-0.220
2020/01/31 17:38:40.7	358.610	0.190	-0.410	-0.250
2020/01/31 17:38:40.8	358.610	0.180	-0.430	-0.280
2020/01/31 17:38:40.9	358.620	0.170	-0.440	-0.310
2020/01/31 17:38:41.0	358.620	0.150	-0.450	-0.340
2020/01/31 17:38:41.1	358.630	0.140	-0.450	-0.380
2020/01/31 17:38:41.2	358.630	0.120	-0.450	-0.410
2020/01/31 17:38:41.3	358.640	0.090	-0.440	-0.440
2020/01/31 17:38:41.4	358.640	0.070	-0.430	-0.470
2020/01/31 17:38:41.5	358.640	0.040	-0.420	-0.500
2020/01/31 17:38:41.6	358.640	0.010	-0.400	-0.530
2020/01/31 17:38:41.7	358.640	-0.020	-0.380	-0.550
2020/01/31 17:38:41.8	358.630	-0.050	-0.360	-0.580
2020/01/31 17:38:41.9	358.630	-0.080	-0.330	-0.600
2020/01/31 17:38:42.0	358.630	-0.120	-0.300	-0.620
2020/01/31 17:38:42.1	358.620	-0.150	-0.280	-0.640
2020/01/31 17:38:42.2	358.610	-0.190	-0.250	-0.650
2020/01/31 17:38:42.3	358.600	-0.220	-0.220	-0.660
2020/01/31 17:38:42.4	358.590	-0.260	-0.180	-0.670
2020/01/31 17:38:42.5	358.580	-0.290	-0.150	-0.670
2020/01/31 17:38:42.6	358.560	-0.320	-0.120	-0.670
2020/01/31 17:38:42.7	358.550	-0.350	-0.100	-0.670
2020/01/31 17:38:42.8	358.520	-0.380	-0.070	-0.660
2020/01/31 17:38:42.9	358.500	-0.410	-0.050	-0.660
2020/01/31 17:38:43.0	358.480	-0.440	-0.030	-0.650
2020/01/31 17:38:43.1	358.460	-0.460	-0.010	-0.640
2020/01/31 17:38:43.2	358.440	-0.480	-0.000	-0.630
2020/01/31 17:38:43.3	358.430	-0.490	0.010	-0.620
2020/01/31 17:38:43.4	358.410	-0.500	0.010	-0.610
2020/01/31 17:38:43.5	358.390	-0.510	0.010	-0.600
2020/01/31 17:38:43.6	358.370	-0.520	0.010	-0.600
2020/01/31 17:38:43.7	358.360	-0.520	-0.000	-0.590
2020/01/31 17:38:43.8	358.360	-0.520	-0.010	-0.590
2020/01/31 17:38:43.9	358.350	-0.520	-0.030	-0.590
2020/01/31 17:38:44.0	358.340	-0.510	-0.050	-0.590
2020/01/31 17:38:44.1	358.330	-0.490	-0.080	-0.590
2020/01/31 17:38:44.2	358.330	-0.480	-0.110	-0.600
2020/01/31 17:38:44.3	358.330	-0.460	-0.150	-0.610
2020/01/31 17:38:44.4	358.330	-0.430	-0.190	-0.610
2020/01/31 17:38:44.5	358.340	-0.410	-0.230	-0.620
2020/01/31 17:38:44.6	358.340	-0.370	-0.270	-0.630
2020/01/31 17:38:44.7	358.350	-0.340	-0.320	-0.640
2020/01/31 17:38:44.8	358.360	-0.300	-0.360	-0.650
2020/01/31 17:38:44.9	358.370	-0.260	-0.410	-0.650
2020/01/31 17:38:45.0	358.380	-0.220	-0.450	-0.650
2020/01/31 17:38:45.1	358.390	-0.180	-0.500	-0.650
2020/01/31 17:38:45.2	358.410	-0.140	-0.540	-0.650
2020/01/31 17:38:45.3	358.420	-0.090	-0.570	-0.650
2020/01/31 17:38:45.4	358.430	-0.050	-0.610	-0.640
2020/01/31 17:38:45.5	358.440	-0.000	-0.640	-0.630
2020/01/31 17:38:45.6	358.450	0.040	-0.660	-0.610
2020/01/31 17:38:45.7	358.460	0.090	-0.680	-0.590
2020/01/31 17:38:45.8	358.470	0.130	-0.690	-0.570
2020/01/31 17:38:45.9	358.470	0.170	-0.700	-0.550
2020/01/31 17:38:46.0	358.480	0.210	-0.700	-0.520
2020/01/31 17:38:46.1	358.480	0.240	-0.690	-0.490
2020/01/31 17:38:46.2	358.480	0.280	-0.680	-0.460
2020/01/31 17:38:46.3	358.470	0.310	-0.660	-0.420
2020/01/31 17:38:46.4	358.470	0.340	-0.630	-0.390
2020/01/31 17:38:46.5	358.460	0.360	-0.600	-0.350
2020/01/31 17:38:46.6	358.450	0.390	-0.560	-0.310
2020/01/31 17:38:46.7	358.440	0.410	-0.520	-0.270
2020/01/31 17:38:46.8	358.430	0.420	-0.480	-0.220
2020/01/31 17:38:46.9	358.420	0.440	-0.430	-0.180
2020/01/31 17:38:47.0	358.410	0.450	-0.380	-0.130
2020/01/31 17:38:47.1	358.390	0.450	-0.330	-0.080
2020/01/31 17:38:47.2	358.370	0.460	-0.270	-0.040
2020/01/31 17:38:47.3	358.350	0.460	-0.220	0.010
2020/01/31 17:38:47.4	358.330	0.460	-0.170	0.060
2020/01/31 17:38:47.5	358.310	0.450	-0.120	0.110
2020/01/31 17:38:47.6	358.290	0.450	-0.070	0.160
2020/01/31 17:38:47.7	358.270	0.440	-0.020	0.210
2020/01/31 17:38:47.8	358.250	0.430	0.020	0.260
2020/01/31 17:38:47.9	358.230	0.410	0.070	0.310
2020/01/31 17:38:48.0	358.210	0.400	0.100	0.360
2020/01/31 17:38:48.1	358.190	0.380	0.140	0.400
2020/01/31 17:38:48.2	358.160	0.360	0.160	0.450
2020/01/31 17:38:48.3	358.140	0.340	0.190	0.490
2020/01/31 17:38:48.4	358.120	0.320	0.210	0.530
2020/01/31 17:38:48.5	358.100	0.300	0.220	0.560
2020/01/31 17:38:48.6	358.090	0.280	0.220	0.590
2020/01/31 17:38:48.7	358.070	0.260	0.220	0.610
2020/01/31 17:38:48.8	358.060	0.240	0.220	0.630
2020/01/31 17:38:48.9	358.050	0.210	0.200	0.640
2020/01/31 17:38:49.0	358.040	0.190	0.180	0.640
2020/01/31 17:38:49.1	358.030	0.170	0.160	0.630
2020/01/31 17:38:49.2	358.030	0.150	0.120	0.620
2020/01/31 17:38:49.3	358.030	0.130	0.090	0.600
2020/01/31 17:38:49.4	358.030	0.110	0.040	0.570
2020/01/31 17:38:49.5	358.030	0.090	-0.000	0.540
2020/01/31 17:38:49.6	358.040	0.070	-0.050	0.500
2020/01/31 17:38:49.7	358.050	0.050	-0.110	0.450
2020/01/31 17:38:49.8	358.070	0.030	-0.160	0.400
2020/01/31 17:38:49.9	358.070	0.010	-0.220	0.340
2020/01/31 17:38:50.0	358.080	-0.010	-0.280	0.280
2020/01/31 17:38:50.1	358.090	-0.020	-0.340	0.220
2020/01/31 17:38:50.2	358.100	-0.040	-0.400	0.150
2020/01/31 17:38:50.3	358.120	-0.050	-0.460	0.080
2020/01/31 17:38:50.4	358.130	-0.070	-0.510	0.010
2020/01/31 17:38:50.5	358.140	-0.090	-0.570	-0.060
2020/01/31 17:38:50.6	358.150	-0.100	-0.620	-0.140
2020/01/31 17:38:50.7	358.160	-0.120	-0.660	-0.210
2020/01/31 17:38:50.8	358.170	-0.130	-0.700	-0.290
2020/01/31 17:38:50.9	358.180	-0.140	-0.740	-0.370
2020/01/31 17:38:51.0	358.190	-0.160	-0.770	-0.440
2020/01/31 17:38:51.1	358.210	-0.170	-0.800	-0.520
2020/01/31 17:38:51.2	358.220	-0.190	-0.820	-0.590
2020/01/31 17:38:51.3	358.230	-0.200	-0.830	-0.660
2020/01/31 17:38:51.4	358.250	-0.220	-0.840	-0.730
2020/01/31 17:38:51.5	358.260	-0.230	-0.850	-0.790
2020/01/31 17:38:51.6	358.280	-0.240	-0.840	-0.860
2020/01/31 17:38:51.7	358.290	-0.260	-0.840	-0.920
2020/01/31 17:38:51.8	358.310	-0.270	-0.830	-0.980
2020/01/31 17:38:51.9	358.320	-0.280	-0.810	-1.040
2020/01/31 17:38:52.0	358.340	-0.300	-0.790	-1.090
2020/01/31 17:38:52.1	358.360	-0.310	-0.770	-1.140
2020/01/31 17:38:52.2	358.380	-0.320	-0.750	-1.180
2020/01/31 17:38:52.3	358.400	-0.330	-0.720	-1.230
2020/01/31 17:38:52.4	358.420	-0.340	-0.690	-1.270
2020/01/31 17:38:52.5	358.440	-0.340	-0.660	-1.300
2020/01/31 17:38:52.6	358.470	-0.350	-0.630	-1.330
2020/01/31 17:38:52.7	358.490	-0.360	-0.600	-1.360
2020/01/31 17:38:52.8	358.500	-0.360	-0.570	-1.380
2020/01/31 17:38:52.9	358.530	-0.360	-0.530	-1.400
2020/01/31 17:38:53.0	358.550	-0.360	-0.500	-1.410
2020/01/31 17:38:53.1	358.580	-0.360	-0.470	-1.420
2020/01/31 17:38:53.2	358.600	-0.350	-0.430	-1.430
2020/01/31 17:38:53.3	358.630	-0.340	-0.400	-1.430
2020/01/31 17:38:53.4	358.650	-0.330	-0.360	-1.420
2020/01/31 17:38:53.5	358.670	-0.320	-0.330	-1.410
2020/01/31 17:38:53.6	358.690	-0.310	-0.300	-1.400
2020/01/31 17:38:53.7	358.720	-0.290	-0.270	-1.380
2020/01/31 17:38:53.8	358.730	-0.270	-0.240	-1.350
2020/01/31 17:38:53.9	358.750	-0.250	-0.210	-1.320
2020/01/31 17:38:54.0	358.770	-0.230	-0.190	-1.290
2020/01/31 17:38:54.1	358.780	-0.200	-0.160	-1.250
2020/01/31 17:38:54.2	358.790	-0.180	-0.130	-1.200
2020/01/31 17:38:54.3	358.800	-0.150	-0.110	-1.150
2020/01/31 17:38:54.4	358.800	-0.120	-0.080	-1.100
2020/01/31 17:38:54.5	358.800	-0.090	-0.060	-1.040
2020/01/31 17:38:54.6	358.800	-0.050	-0.040	-0.970
2020/01/31 17:38:54.7	358.790	-0.020	-0.020	-0.900
2020/01/31 17:38:54.8	358.770	0.010	0.010	-0.820
2020/01/31 17:38:54.9	358.760	0.050	0.030	-0.740
2020/01/31 17:38:55.0	358.740	0.080	0.050	-0.660
2020/01/31 17:38:55.1	358.720	0.110	0.080	-0.570
2020/01/31 17:38:55.2	358.690	0.150	0.100	-0.480
2020/01/31 17:38:55.3	358.660	0.180	0.120	-0.390
2020/01/31 17:38:55.4	358.630	0.210	0.150	-0.290
2020/01/31 17:38:55.5	358.590	0.240	0.170	-0.200
2020/01/31 17:38:55.6	358.560	0.270	0.190	-0.100
2020/01/31 17:38:55.7	358.510	0.290	0.220	-0.000
2020/01/31 17:38:55.8	358.470	0.320	0.230	0.100
2020/01/31 17:38:55.9	358.430	0.340	0.260	0.190
2020/01/31 17:38:56.0	358.380	0.360	0.270	0.290
2020/01/31 17:38:56.1	358.330	0.380	0.290	0.380
2020/01/31 17:38:56.2	358.280	0.390	0.310	0.470
2020/01/31 17:38:56.3	358.220	0.400	0.320	0.560
2020/01/31 17:38:56.4	358.170	0.410	0.330	0.640
2020/01/31 17:38:56.5	358.110	0.420	0.340	0.720
2020/01/31 17:38:56.6	358.060	0.420	0.340	0.790
2020/01/31 17:38:56.7	358.010	0.420	0.350	0.860
2020/01/31 17:38:56.8	357.960	0.420	0.350	0.930
2020/01/31 17:38:56.9	357.910	0.420	0.340	0.980
2020/01/31 17:38:57.0	357.860	0.420	0.330	1.040
2020/01/31 17:38:57.1	357.820	0.410	0.320	1.080
2020/01/31 17:38:57.2	357.770	0.400	0.300	1.120
2020/01/31 17:38:57.3	357.730	0.390	0.280	1.140
2020/01/31 17:38:57.4	357.690	0.380	0.250	1.160
2020/01/31 17:38:57.5	357.650	0.370	0.220	1.170
2020/01/31 17:38:57.6	357.620	0.350	0.190	1.180
2020/01/31 17:38:57.7	357.580	0.340	0.150	1.170
2020/01/31 17:38:57.8	357.570	0.320	0.110	1.160
2020/01/31 17:38:57.9	357.550	0.310	0.060	1.140
2020/01/31 17:38:58.0	357.530	0.300	0.010	1.110
2020/01/31 17:38:58.1	357.510	0.280	-0.040	1.080
2020/01/31 17:38:58.2	357.500	0.270	-0.090	1.040
2020/01/31 17:38:58.3	357.490	0.250	-0.150	0.990
2020/01/31 17:38:58.4	357.490	0.240	-0.200	0.930
2020/01/31 17:38:58.5	357.490	0.230	-0.260	0.870
2020/01/31 17:38:58.6	357.490	0.210	-0.320	0.810
2020/01/31 17:38:58.7	357.500	0.200	-0.370	0.740
2020/01/31 17:38:58.8	357.510	0.190	-0.420	0.660
2020/01/31 17:38:58.9	357.530	0.170	-0.470	0.580
2020/01/31 17:38:59.0	357.540	0.160	-0.520	0.500
2020/01/31 17:38:59.1	357.560	0.150	-0.570	0.410
2020/01/31 17:38:59.2	357.580	0.130	-0.610	0.330
2020/01/31 17:38:59.3	357.600	0.120	-0.640	0.240
2020/01/31 17:38:59.4	357.620	0.100	-0.670	0.150
2020/01/31 17:38:59.5	357.640	0.080	-0.690	0.060
2020/01/31 17:38:59.6	357.670	0.060	-0.710	-0.030
2020/01/31 17:38:59.7	357.690	0.040	-0.720	-0.110
2020/01/31 17:38:59.8	357.700	0.010	-0.720	-0.200
2020/01/31 17:38:59.9	357.720	-0.010	-0.720	-0.290
2020/01/31 17:39:00.0	357.740	-0.040	-0.710	-0.370
2020/01/31 17:39:00.1	357.760	-0.070	-0.700	-0.460
2020/01/31 17:39:00.2	357.770	-0.110	-0.680	-0.530
2020/01/31 17:39:00.3	357.790	-0.140	-0.650	-0.610
2020/01/31 17:39:00.4	357.800	-0.180	-0.620	-0.690
2020/01/31 17:39:00.5	357.820	-0.220	-0.590	-0.760
2020/01/31 17:39:00.6	357.830	-0.270	-0.550	-0.830
2020/01/31 17:39:00.7	357.840	-0.310	-0.520	-0.890
2020/01/31 17:39:00.8	357.850	-0.360	-0.480	-0.960
2020/01/31 17:39:00.9	357.860	-0.400	-0.440	-1.020
2020/01/31 17:39:01.0	357.870	-0.450	-0.400	-1.080
2020/01/31 17:39:01.1	357.880	-0.490	-0.360	-1.130
2020/01/31 17:39:01.2	357.890	-0.540	-0.330	-1.180
2020/01/31 17:39:01.3	357.900	-0.580	-0.290	-1.220
2020/01/31 17:39:01.4	357.920	-0.620	-0.260	-1.270
2020/01/31 17:39:01.5	357.930	-0.660	-0.230	-1.300
2020/01/31 17:39:01.6	357.950	-0.690	-0.210	-1.340
2020/01/31 17:39:01.7	357.960	-0.730	-0.190	-1.370
2020/01/31 17:39:01.8	357.970	-0.750	-0.170	-1.390
2020/01/31 17:39:01.9	357.990	-0.780	-0.160	-1.410
2020/01/31 17:39:02.0	358.010	-0.800	-0.160	-1.430
2020/01/31 17:39:02.1	358.040	-0.810	-0.170	-1.440
2020/01/31 17:39:02.2	358.060	-0.820	-0.180	-1.450
2020/01/31 17:39:02.3	358.090	-0.820	-0.190	-1.460
2020/01/31 17:39:02.4	358.110	-0.810	-0.210	-1.460
2020/01/31 17:39:02.5	358.140	-0.800	-0.240	-1.460
2020/01/31 17:39:02.6	358.160	-0.790	-0.260	-1.460
2020/01/31 17:39:02.7	358.190	-0.770	-0.300	-1.450
2020/01/31 17:39:02.8	358.200	-0.740	-0.340	-1.440
2020/01/31 17:39:02.9	358.220	-0.710	-0.370	-1.420
2020/01/31 17:39:03.0	358.240	-0.670	-0.410	-1.400
2020/01/31 17:39:03.1	358.260	-0.620	-0.450	-1.370
2020/01/31 17:39:03.2	358.280	-0.570	-0.500	-1.340
2020/01/31 17:39:03.3	358.300	-0.520	-0.540	-1.310
2020/01/31 17:39:03.4	358.310	-0.460	-0.580	-1.270
2020/01/31 17:39:03.5	358.330	-0.400	-0.610	-1.220
2020/01/31 17:39:03.6	358.340	-0.330	-0.650	-1.180
2020/01/31 17:39:03.7	358.340	-0.270	-0.680	-1.120
2020/01/31 17:39:03.8	358.350	-0.200	-0.710	-1.070
2020/01/31 17:39:03.9	358.350	-0.120	-0.730	-1.010
2020/01/31 17:39:04.0	358.350	-0.050	-0.750	-0.940
2020/01/31 17:39:04.1	358.350	0.020	-0.770	-0.870
2020/01/31 17:39:04.2	358.340	0.100	-0.780	-0.800
2020/01/31 17:39:04.3	358.330	0.170	-0.780	-0.730
2020/01/31 17:39:04.4	358.320	0.240	-0.780	-0.650
2020/01/31 17:39:04.5	358.310	0.310	-0.780	-0.570
2020/01/31 17:39:04.6	358.290	0.380	-0.760	-0.490
2020/01/31 17:39:04.7	358.270	0.440	-0.740	-0.400
2020/01/31 17:39:04.8	358.260	0.510	-0.720	-0.310
2020/01/31 17:39:04.9	358.230	0.560	-0.690	-0.220
2020/01/31 17:39:05.0	358.200	0.620	-0.660	-0.130
2020/01/31 17:39:05.1	358.170	0.660	-0.620	-0.040
2020/01/31 17:39:05.2	358.140	0.710	-0.570	0.050
2020/01/31 17:39:05.3	358.100	0.740	-0.530	0.130
2020/01/31 17:39:05.4	358.060	0.780	-0.480	0.220
2020/01/31 17:39:05.5	358.020	0.800	-0.420	0.300
2020/01/31 17:39:05.6	357.980	0.830	-0.370	0.380
2020/01/31 17:39:05.7	357.940	0.840	-0.310	0.450
2020/01/31 17:39:05.8	357.900	0.850	-0.250	0.520
2020/01/31 17:39:05.9	357.850	0.860	-0.190	0.590
2020/01/31 17:39:06.0	357.810	0.860	-0.130	0.650
2020/01/31 17:39:06.1	357.770	0.850	-0.070	0.700
2020/01/31 17:39:06.2	357.720	0.840	-0.020	0.760
2020/01/31 17:39:06.3	357.680	0.830	0.040	0.800
2020/01/31 17:39:06.4	357.640	0.810	0.090	0.840
2020/01/31 17:39:06.5	357.600	0.790	0.140	0.880
2020/01/31 17:39:06.6	357.560	0.760	0.180	0.900
2020/01/31 17:39:06.7	357.530	0.730	0.220	0.930
2020/01/31 17:39:06.8	357.500	0.700	0.250	0.940
2020/01/31 17:39:06.9	357.470	0.670	0.280	0.950
2020/01/31 17:39:07.0	357.440	0.630	0.310	0.960
2020/01/31 17:39:07.1	357.420	0.600	0.330	0.950
2020/01/31 17:39:07.2	357.400	0.560	0.350	0.950
2020/01/31 17:39:07.3	357.380	0.520	0.360	0.930
2020/01/31 17:39:07.4	357.360	0.480	0.360	0.920
2020/01/31 17:39:07.5	357.350	0.440	0.360	0.890
2020/01/31 17:39:07.6	357.330	0.400	0.360	0.860
2020/01/31 17:39:07.7	357.320	0.370	0.350	0.830
2020/01/31 17:39:07.8	357.320	0.330	0.340	0.790
2020/01/31 17:39:07.9	357.310	0.290	0.330	0.750
2020/01/31 17:39:08.0	357.310	0.250	0.310	0.700
2020/01/31 17:39:08.1	357.300	0.210	0.280	0.640
2020/01/31 17:39:08.2	357.300	0.170	0.260	0.580
2020/01/31 17:39:08.3	357.300	0.130	0.230	0.520
2020/01/31 17:39:08.4	357.300	0.100	0.200	0.460
2020/01/31 17:39:08.5	357.310	0.060	0.170	0.390
2020/01/31 17:39:08.6	357.310	0.030	0.130	0.320
2020/01/31 17:39:08.7	357.310	-0.010	0.100	0.240
2020/01/31 17:39:08.8	357.320	-0.040	0.060	0.160
2020/01/31 17:39:08.9	357.330	-0.080	0.030	0.090
2020/01/31 17:39:09.0	357.330	-0.110	-0.010	0.010
2020/01/31 17:39:09.1	357.340	-0.140	-0.050	-0.070
2020/01/31 17:39:09.2	357.350	-0.170	-0.080	-0.140
2020/01/31 17:39:09.3	357.360	-0.200	-0.120	-0.220
2020/01/31 17:39:09.4	357.370	-0.230	-0.160	-0.290
2020/01/31 17:39:09.5	357.380	-0.250	-0.190	-0.360
2020/01/31 17:39:09.6	357.390	-0.280	-0.230	-0.430
2020/01/31 17:39:09.7	357.410	-0.300	-0.260	-0.500
2020/01/31 17:39:09.8	357.430	-0.330	-0.290	-0.570
2020/01/31 17:39:09.9	357.440	-0.350	-0.320	-0.640
2020/01/31 17:39:10.0	357.460	-0.370	-0.360	-0.710
2020/01/31 17:39:10.1	357.490	-0.390	-0.390	-0.770
2020/01/31 17:39:10.2	357.510	-0.410	-0.420	-0.840
2020/01/31 17:39:10.3	357.540	-0.420	-0.450	-0.900
2020/01/31 17:39:10.4	357.570	-0.440	-0.480	-0.960
2020/01/31 17:39:10.5	357.600	-0.450	-0.510	-1.030
2020/01/31 17:39:10.6	357.630	-0.460	-0.540	-1.090
2020/01/31 17:39:10.7	357.670	-0.470	-0.570	-1.150
2020/01/31 17:39:10.8	357.690	-0.480	-0.600	-1.210
2020/01/31 17:39:10.9	357.730	-0.490	-0.620	-1.270
2020/01/31 17:39:11.0	357.770	-0.490	-0.650	-1.320
2020/01/31 17:39:11.1	357.810	-0.490	-0.670	-1.370
2020/01/31 17:39:11.2	357.850	-0.500	-0.700	-1.420
2020/01/31 17:39:11.3	357.890	-0.500	-0.720	-1.470
2020/01/31 17:39:11.4	357.930	-0.500	-0.730	-1.510
2020/01/31 17:39:11.5	357.960	-0.490	-0.750	-1.540
2020/01/31 17:39:11.6	357.990	-0.490	-0.760	-1.570
2020/01/31 17:39:11.7	358.020	-0.490	-0.760	-1.590
2020/01/31 17:39:11.8	358.040	-0.480	-0.760	-1.600
2020/01/31 17:39:11.9	358.060	-0.480	-0.760	-1.610
2020/01/31 17:39:12.0	358.080	-0.470	-0.750	-1.610
2020/01/31 17:39:12.1	358.090	-0.470	-0.740	-1.610
2020/01/31 17:39:12.2	358.100	-0.460	-0.720	-1.590
2020/01/31 17:39:12.3	358.100	-0.450	-0.700	-1.570
2020/01/31 17:39:12.4	358.100	-0.440	-0.670	-1.550
2020/01/31 17:39:12.5	358.100	-0.440	-0.630	-1.520
2020/01/31 17:39:12.6	358.090	-0.430	-0.600	-1.480
2020/01/31 17:39:12.7	358.080	-0.420	-0.550	-1.430
2020/01/31 17:39:12.8	358.070	-0.410	-0.510	-1.380
2020/01/31 17:39:12.9	358.050	-0.400	-0.460	-1.330
2020/01/31 17:39:13.0	358.030	-0.390	-0.400	-1.270
2020/01/31 17:39:13.1	358.000	-0.380	-0.350	-1.210
2020/01/31 17:39:13.2	357.980	-0.370	-0.290	-1.140
2020/01/31 17:39:13.3	357.950	-0.360	-0.230	-1.070
2020/01/31 17:39:13.4	357.920	-0.340	-0.170	-1.000
2020/01/31 17:39:13.5	357.890	-0.330	-0.110	-0.920
2020/01/31 17:39:13.6	357.850	-0.320	-0.060	-0.840
2020/01/31 17:39:13.7	357.820	-0.300	0.000	-0.760
2020/01/31 17:39:13.8	357.800	-0.290	0.060	-0.670
2020/01/31 17:39:13.9	357.760	-0.270	0.110	-0.590
2020/01/31 17:39:14.0	357.720	-0.250	0.160	-0.500
2020/01/31 17:39:14.1	357.680	-0.230	0.200	-0.410
2020/01/31 17:39:14.2	357.640	-0.210	0.250	-0.320
2020/01/31 17:39:14.3	357.600	-0.190	0.290	-0.230
2020/01/31 17:39:14.4	357.560	-0.170	0.320	-0.140
2020/01/31 17:39:14.5	357.520	-0.150	0.350	-0.050
2020/01/31 17:39:14.6	357.480	-0.120	0.380	0.040
2020/01/31 17:39:14.7	357.430	-0.090	0.400	0.130
2020/01/31 17:39:14.8	357.400	-0.070	0.410	0.220
2020/01/31 17:39:14.9	357.350	-0.040	0.420	0.300
2020/01/31 17:39:15.0	357.310	-0.010	0.420	0.390
2020/01/31 17:39:15.1	357.260	0.020	0.420	0.470
2020/01/31 17:39:15.2	357.220	0.050	0.410	0.540
2020/01/31 17:39:15.3	357.180	0.080	0.400	0.620
2020/01/31 17:39:15.4	357.140	0.120	0.380	0.690
2020/01/31 17:39:15.5	357.090	0.150	0.360	0.750
2020/01/31 17:39:15.6	357.050	0.180	0.330	0.810
2020/01/31 17:39:15.7	357.020	0.220	0.300	0.860
2020/01/31 17:39:15.8	356.990	0.250	0.270	0.910
2020/01/31 17:39:15.9	356.950	0.280	0.230	0.950
2020/01/31 17:39:16.0	356.920	0.320	0.180	0.980
2020/01/31 17:39:16.1	356.890	0.350	0.130	1.010
2020/01/31 17:39:16.2	356.860	0.380	0.070	1.030
2020/01/31 17:39:16.3	356.840	0.410	0.010	1.040
2020/01/31 17:39:16.4	356.820	0.440	-0.050	1.050
2020/01/31 17:39:16.5	356.800	0.470	-0.110	1.050
2020/01/31 17:39:16.6	356.790	0.500	-0.180	1.050
2020/01/31 17:39:16.7	356.770	0.530	-0.250	1.030
2020/01/31 17:39:16.8	356.770	0.560	-0.320	1.010
2020/01/31 17:39:16.9	356.770	0.580	-0.390	0.990
2020/01/31 17:39:17.0	356.770	0.600	-0.460	0.960
2020/01/31 17:39:17.1	356.770	0.630	-0.530	0.930
2020/01/31 17:39:17.2	356.780	0.640	-0.600	0.890
2020/01/31 17:39:17.3	356.800	0.660	-0.670	0.840
2020/01/31 17:39:17.4	356.820	0.670	-0.740	0.790
2020/01/31 17:39:17.5	356.840	0.690	-0.810	0.740
2020/01/31 17:39:17.6	356.860	0.690	-0.870	0.680
2020/01/31 17:39:17.7	356.890	0.700	-0.930	0.620
2020/01/31 17:39:17.8	356.930	0.700	-0.990	0.550
2020/01/31 17:39:17.9	356.970	0.700	-1.040	0.480
2020/01/31 17:39:18.0	357.000	0.690	-1.090	0.410
2020/01/31 17:39:18.1	357.040	0.680	-1.130	0.340
2020/01/31 17:39:18.2	357.090	0.670	-1.160	0.260
2020/01/31 17:39:18.3	357.130	0.650	-1.190	0.190
2020/01/31 17:39:18.4	357.170	0.630	-1.210	0.110
2020/01/31 17:39:18.5	357.220	0.610	-1.220	0.040
2020/01/31 17:39:18.6	357.270	0.580	-1.220	-0.040
2020/01/31 17:39:18.7	357.310	0.540	-1.210	-0.110
2020/01/31 17:39:18.8	357.360	0.510	-1.190	-0.190
2020/01/31 17:39:18.9	357.410	0.460	-1.170	-0.260
2020/01/31 17:39:19.0	357.450	0.420	-1.130	-0.330
2020/01/31 17:39:19.1	357.500	0.370	-1.090	-0.390
2020/01/31 17:39:19.2	357.540	0.320	-1.040	-0.460
2020/01/31 17:39:19.3	357.580	0.260	-0.990	-0.520
2020/01/31 17:39:19.4	357.620	0.200	-0.920	-0.580
2020/01/31 17:39:19.5	357.660	0.140	-0.850	-0.630
2020/01/31 17:39:19.6	357.700	0.080	-0.780	-0.680
2020/01/31 17:39:19.7	357.730	0.020	-0.690	-0.730
2020/01/31 17:39:19.8	357.750	-0.050	-0.610	-0.770
2020/01/31 17:39:19.9	357.780	-0.110	-0.520	-0.810
2020/01/31 17:39:20.0	357.800	-0.180	-0.430	-0.840
2020/01/31 17:39:20.1	357.820	-0.250	-0.330	-0.870
2020/01/31 17:39:20.2	357.840	-0.310	-0.230	-0.890
2020/01/31 17:39:20.3	357.850	-0.380	-0.140	-0.910
2020/01/31 17:39:20.4	357.860	-0.440	-0.040	-0.920
2020/01/31 17:39:20.5	357.870	-0.500	0.050	-0.930
2020/01/31 17:39:20.6	357.870	-0.550	0.140	-0.940
2020/01/31 17:39:20.7	357.860	-0.610	0.230	-0.940
2020/01/31 17:39:20.8	357.850	-0.660	0.320	-0.940
2020/01/31 17:39:20.9	357.830	-0.700	0.400	-0.930
2020/01/31 17:39:21.0	357.820	-0.750	0.470	-0.920
2020/01/31 17:39:21.1	357.800	-0.780	0.540	-0.910
2020/01/31 17:39:21.2	357.780	-0.810	0.600	-0.890
2020/01/31 17:39:21.3	357.750	-0.840	0.650	-0.860
2020/01/31 17:39:21.4	357.730	-0.850	0.700	-0.830
2020/01/31 17:39:21.5	357.690	-0.870	0.740	-0.800
2020/01/31 17:39:21.6	357.660	-0.870	0.770	-0.770
2020/01/31 17:39:21.7	357.620	-0.870	0.800	-0.730
2020/01/31 17:39:21.8	357.580	-0.860	0.810	-0.690
2020/01/31 17:39:21.9	357.540	-0.850	0.820	-0.650
2020/01/31 17:39:22.0	357.490	-0.830	0.810	-0.600
2020/01/31 17:39:22.1	357.450	-0.800	0.800	-0.550
2020/01/31 17:39:22.2	357.400	-0.770	0.780	-0.500
2020/01/31 17:39:22.3	357.350	-0.730	0.750	-0.450
2020/01/31 17:39:22.4	357.300	-0.690	0.710	-0.390
2020/01/31 17:39:22.5	357.250	-0.640	0.670	-0.340
2020/01/31 17:39:22.6	357.200	-0.580	0.620	-0.290
2020/01/31 17:39:22.7	357.140	-0.520	0.560	-0.230
2020/01/31 17:39:22.8	357.100	-0.460	0.490	-0.180
2020/01/31 17:39:22.9	357.050	-0.390	0.420	-0.130
2020/01/31 17:39:23.0	356.990	-0.330	0.350	-0.080
2020/01/31 17:39:23.1	356.940	-0.260	0.270	-0.030
2020/01/31 17:39:23.2	356.880	-0.180	0.190	0.010
2020/01/31 17:39:23.3	356.830	-0.110	0.100	0.060
2020/01/31 17:39:23.4	356.780	-0.040	0.010	0.090
2020/01/31 17:39:23.5	356.730	0.040	-0.070	0.130
2020/01/31 17:39:23.6	356.680	0.110	-0.160	0.160
2020/01/31 17:39:23.7	356.630	0.180	-0.250	0.190
2020/01/31 17:39:23.8	356.580	0.250	-0.340	0.210
2020/01/31 17:39:23.9	356.540	0.310	-0.430	0.230
2020/01/31 17:39:24.0	356.500	0.380	-0.510	0.250
2020/01/31 17:39:24.1	356.460	0.430	-0.590	0.260
2020/01/31 17:39:24.2	356.430	0.490	-0.670	0.270
2020/01/31 17:39:24.3	356.400	0.540	-0.740	0.280
2020/01/31 17:39:24.4	356.370	0.580	-0.810	0.280
2020/01/31 17:39:24.5	356.340	0.620	-0.870	0.290
2020/01/31 17:39:24.6	356.320	0.660	-0.920	0.290
2020/01/31 17:39:24.7	356.310	0.680	-0.970	0.280
2020/01/31 17:39:24.8	356.290	0.710	-1.010	0.280
2020/01/31 17:39:24.9	356.280	0.720	-1.040	0.270
2020/01/31 17:39:25.0	356.280	0.730	-1.070	0.260
2020/01/31 17:39:25.1	356.280	0.730	-1.090	0.250
2020/01/31 17:39:25.2	356.280	0.730	-1.100	0.230
2020/01/31 17:39:25.3	356.290	0.720	-1.100	0.220
2020/01/31 17:39:25.4	356.310	0.700	-1.100	0.200
2020/01/31 17:39:25.5	356.330	0.680	-1.090	0.170
2020/01/31 17:39:25.6	356.350	0.650	-1.080	0.150
2020/01/31 17:39:25.7	356.370	0.620	-1.050	0.120
2020/01/31 17:39:25.8	356.410	0.580	-1.020	0.090
2020/01/31 17:39:25.9	356.440	0.530	-0.990	0.050
2020/01/31 17:39:26.0	356.480	0.480	-0.950	0.010
2020/01/31 17:39:26.1	356.510	0.420	-0.900	-0.030
2020/01/31 17:39:26.2	356.550	0.360	-0.850	-0.070
2020/01/31 17:39:26.3	356.590	0.300	-0.800	-0.110
2020/01/31 17:39:26.4	356.630	0.230	-0.740	-0.160
2020/01/31 17:39:26.5	356.670	0.160	-0.680	-0.200
2020/01/31 17:39:26.6	356.700	0.090	-0.620	-0.250
2020/01/31 17:39:26.7	356.740	0.020	-0.550	-0.290
2020/01/31 17:39:26.8	356.790	-0.060	-0.490	-0.330
2020/01/31 17:39:26.9	356.820	-0.130	-0.420	-0.380
2020/01/31 17:39:27.0	356.860	-0.200	-0.350	-0.410
2020/01/31 17:39:27.1	356.890	-0.280	-0.280	-0.450
2020/01/31 17:39:27.2	356.920	-0.350	-0.220	-0.490
2020/01/31 17:39:27.3	356.950	-0.410	-0.150	-0.520
2020/01/31 17:39:27.4	356.980	-0.480	-0.090	-0.550
2020/01/31 17:39:27.5	357.010	-0.540	-0.030	-0.580
2020/01/31 17:39:27.6	357.030	-0.600	0.020	-0.600
2020/01/31 17:39:27.7	357.050	-0.650	0.070	-0.620
2020/01/31 17:39:27.8	357.080	-0.700	0.120	-0.640
2020/01/31 17:39:27.9	357.100	-0.740	0.160	-0.660
2020/01/31 17:39:28.0	357.120	-0.770	0.200	-0.670
2020/01/31 17:39:28.1	357.140	-0.800	0.230	-0.680
2020/01/31 17:39:28.2	357.150	-0.820	0.260	-0.690
2020/01/31 17:39:28.3	357.170	-0.830	0.280	-0.690
2020/01/31 17:39:28.4	357.180	-0.840	0.300	-0.690
2020/01/31 17:39:28.5	357.190	-0.830	0.310	-0.690
2020/01/31 17:39:28.6	357.200	-0.820	0.310	-0.690
2020/01/31 17:39:28.7	357.210	-0.810	0.310	-0.690
2020/01/31 17:39:28.8	357.200	-0.780	0.310	-0.680
2020/01/31 17:39:28.9	357.210	-0.750	0.300	-0.670
2020/01/31 17:39:29.0	357.210	-0.710	0.290	-0.650
2020/01/31 17:39:29.1	357.210	-0.660	0.270	-0.630
2020/01/31 17:39:29.2	357.200	-0.610	0.260	-0.610
2020/01/31 17:39:29.3	357.200	-0.550	0.230	-0.580
2020/01/31 17:39:29.4	357.190	-0.480	0.210	-0.550
2020/01/31 17:39:29.5	357.180	-0.410	0.190	-0.510
2020/01/31 17:39:29.6	357.170	-0.340	0.160	-0.470
2020/01/31 17:39:29.7	357.150	-0.260	0.130	-0.430
2020/01/31 17:39:29.8	357.120	-0.180	0.110	-0.380
2020/01/31 17:39:29.9	357.100	-0.100	0.080	-0.330
2020/01/31 17:39:30.0	357.080	-0.020	0.050	-0.280
2020/01/31 17:39:30.1	357.050	0.070	0.030	-0.230
2020/01/31 17:39:30.2	357.020	0.150	0.000	-0.170
2020/01/31 17:39:30.3	356.990	0.230	-0.020	-0.120
2020/01/31 17:39:30.4	356.950	0.310	-0.050	-0.060
2020/01/31 17:39:30.5	356.920	0.390	-0.070	-0.010
2020/01/31 17:39:30.6	356.880	0.460	-0.090	0.050
2020/01/31 17:39:30.7	356.840	0.530	-0.110	0.100
2020/01/31 17:39:30.8	356.810	0.590	-0.130	0.150
2020/01/31 17:39:30.9	356.770	0.650	-0.150	0.200
2020/01/31 17:39:31.0	356.720	0.700	-0.160	0.240
2020/01/31 17:39:31.1	356.680	0.740	-0.180	0.280
2020/01/31 17:39:31.2	356.630	0.780	-0.190	0.320
2020/01/31 17:39:31.3	356.590	0.810	-0.210	0.350
2020/01/31 17:39:31.4	356.540	0.840	-0.220	0.380
2020/01/31 17:39:31.5	356.500	0.850	-0.240	0.400
2020/01/31 17:39:31.6	356.460	0.860	-0.250	0.420
2020/01/31 17:39:31.7	356.420	0.860	-0.260	0.430
2020/01/31 17:39:31.8	356.380	0.860	-0.280	0.440
2020/01/31 17:39:31.9	356.350	0.850	-0.290	0.440
2020/01/31 17:39:32.0	356.320	0.830	-0.310	0.440
2020/01/31 17:39:32.1	356.290	0.810	-0.320	0.430
2020/01/31 17:39:32.2	356.260	0.780	-0.340	0.410
2020/01/31 17:39:32.3	356.240	0.740	-0.360	0.390
2020/01/31 17:39:32.4	356.220	0.700	-0.380	0.360
2020/01/31 17:39:32.5	356.210	0.660	-0.400	0.330
2020/01/31 17:39:32.6	356.200	0.610	-0.420	0.290
2020/01/31 17:39:32.7	356.190	0.560	-0.440	0.240
2020/01/31 17:39:32.8	356.180	0.500	-0.450	0.190
2020/01/31 17:39:32.9	356.180	0.450	-0.470	0.130
2020/01/31 17:39:33.0	356.180	0.390	-0.490	0.070
2020/01/31 17:39:33.1	356.180	0.330	-0.510	0.010
2020/01/31 17:39:33.2	356.190	0.270	-0.530	-0.050
2020/01/31 17:39:33.3	356.200	0.210	-0.550	-0.120
2020/01/31 17:39:33.4	356.210	0.160	-0.560	-0.190
2020/01/31 17:39:33.5	356.220	0.100	-0.580	-0.260
2020/01/31 17:39:33.6	356.230	0.050	-0.590	-0.330
2020/01/31 17:39:33.7	356.250	-0.000	-0.600	-0.400
2020/01/31 17:39:33.8	356.260	-0.050	-0.620	-0.470
2020/01/31 17:39:33.9	356.280	-0.090	-0.620	-0.540
2020/01/31 17:39:34.0	356.300	-0.130	-0.630	-0.600
2020/01/31 17:39:34.1	356.330	-0.170	-0.630	-0.670
2020/01/31 17:39:34.2	356.360	-0.200	-0.630	-0.730
2020/01/31 17:39:34.3	356.390	-0.220	-0.630	-0.790
2020/01/31 17:39:34.4	356.420	-0.240	-0.630	-0.850
2020/01/31 17:39:34.5	356.450	-0.260	-0.630	-0.900
2020/01/31 17:39:34.6	356.490	-0.270	-0.620	-0.950
2020/01/31 17:39:34.7	356.520	-0.270	-0.610	-1.000
2020/01/31 17:39:34.8	356.560	-0.270	-0.600	-1.040
2020/01/31 17:39:34.9	356.600	-0.270	-0.580	-1.090
2020/01/31 17:39:35.0	356.640	-0.260	-0.570	-1.120
2020/01/31 17:39:35.1	356.680	-0.250	-0.550	-1.160
2020/01/31 17:39:35.2	356.720	-0.240	-0.530	-1.190
2020/01/31 17:39:35.3	356.760	-0.220	-0.510	-1.210
2020/01/31 17:39:35.4	356.800	-0.210	-0.490	-1.230
2020/01/31 17:39:35.5	356.840	-0.190	-0.470	-1.250
2020/01/31 17:39:35.6	356.870	-0.170	-0.440	-1.260
2020/01/31 17:39:35.7	356.910	-0.150	-0.410	-1.270
2020/01/31 17:39:35.8	356.930	-0.130	-0.380	-1.270
2020/01/31 17:39:35.9	356.960	-0.120	-0.350	-1.270
2020/01/31 17:39:36.0	356.980	-0.100	-0.320	-1.260
2020/01/31 17:39:36.1	357.000	-0.090	-0.290	-1.250
2020/01/31 17:39:36.2	357.020	-0.080	-0.250	-1.240
2020/01/31 17:39:36.3	357.040	-0.070	-0.220	-1.230
2020/01/31 17:39:36.4	357.050	-0.060	-0.180	-1.210
2020/01/31 17:39:36.5	357.060	-0.060	-0.150	-1.190
2020/01/31 17:39:36.6	357.060	-0.060	-0.110	-1.160
2020/01/31 17:39:36.7	357.070	-0.070	-0.080	-1.140
2020/01/31 17:39:36.8	357.060	-0.080	-0.040	-1.110
2020/01/31 17:39:36.9	357.060	-0.090	-0.010	-1.080
2020/01/31 17:39:37.0	357.050	-0.110	0.030	-1.050
2020/01/31 17:39:37.1	357.050	-0.130	0.060	-1.020
2020/01/31 17:39:37.2	357.040	-0.150	0.090	-0.980
2020/01/31 17:39:37.3	357.030	-0.170	0.120	-0.950
2020/01/31 17:39:37.4	357.010	-0.200	0.140	-0.920
2020/01/31 17:39:37.5	357.000	-0.230	0.170	-0.890
2020/01/31 17:39:37.6	356.990	-0.270	0.190	-0.860
2020/01/31 17:39:37.7	356.970	-0.300	0.210	-0.830
2020/01/31 17:39:37.8	356.950	-0.330	0.220	-0.800
2020/01/31 17:39:37.9	356.940	-0.370	0.230	-0.770
2020/01/31 17:39:38.0	356.920	-0.400	0.240	-0.740
2020/01/31 17:39:38.1	356.910	-0.440	0.250	-0.720
2020/01/31 17:39:38.2	356.890	-0.470	0.250	-0.690
2020/01/31 17:39:38.3	356.870	-0.500	0.250	-0.670
2020/01/31 17:39:38.4	356.860	-0.530	0.240	-0.640
2020/01/31 17:39:38.5	356.840	-0.560	0.230	-0.620
2020/01/31 17:39:38.6	356.830	-0.580	0.220	-0.590
2020/01/31 17:39:38.7	356.810	-0.600	0.210	-0.570
2020/01/31 17:39:38.8	356.800	-0.610	0.190	-0.550
2020/01/31 17:39:38.9	356.780	-0.620	0.170	-0.520
2020/01/31 17:39:39.0	356.770	-0.630	0.140	-0.500
2020/01/31 17:39:39.1	356.750	-0.630	0.120	-0.470
2020/01/31 17:39:39.2	356.740	-0.620	0.090	-0.440
2020/01/31 17:39:39.3	356.720	-0.610	0.060	-0.410
2020/01/31 17:39:39.4	356.710	-0.590	0.020	-0.380
2020/01/31 17:39:39.5	356.690	-0.570	-0.010	-0.350
2020/01/31 17:39:39.6	356.680	-0.540	-0.050	-0.320
2020/01/31 17:39:39.7	356.670	-0.510	-0.080	-0.290
2020/01/31 17:39:39.8	356.670	-0.470	-0.120	-0.260
2020/01/31 17:39:39.9	356.660	-0.430	-0.170	-0.220
2020/01/31 17:39:40.0	356.650	-0.380	-0.210	-0.190
2020/01/31 17:39:40.1	356.640	-0.330	-0.250	-0.160
2020/01/31 17:39:40.2	356.630	-0.270	-0.290	-0.130
2020/01/31 17:39:40.3	356.620	-0.210	-0.340	-0.110
2020/01/31 17:39:40.4	356.620	-0.150	-0.380	-0.080
2020/01/31 17:39:40.5	356.620	-0.080	-0.420	-0.060
2020/01/31 17:39:40.6	356.620	-0.020	-0.470	-0.040
2020/01/31 17:39:40.7	356.620	0.050	-0.510	-0.020
2020/01/31 17:39:40.8	356.620	0.120	-0.550	-0.010
2020/01/31 17:39:40.9	356.620	0.190	-0.590	0.010
2020/01/31 17:39:41.0	356.620	0.260	-0.630	0.020
2020/01/31 17:39:41.1	356.630	0.320	-0.670	0.020
2020/01/31 17:39:41.2	356.640	0.390	-0.710	0.030
2020/01/31 17:39:41.3	356.650	0.450	-0.740	0.030
2020/01/31 17:39:41.4	356.660	0.500	-0.770	0.030
2020/01/31 17:39:41.5	356.660	0.560	-0.800	0.030
2020/01/31 17:39:41.6	356.670	0.610	-0.830	0.030
2020/01/31 17:39:41.7	356.680	0.650	-0.850	0.020
2020/01/31 17:39:41.8	356.700	0.690	-0.860	0.010
2020/01/31 17:39:41.9	356.710	0.720	-0.870	0.000
2020/01/31 17:39:42.0	356.710	0.750	-0.880	-0.010
2020/01/31 17:39:42.1	356.720	0.770	-0.880	-0.020
2020/01/31 17:39:42.2	356.720	0.790	-0.880	-0.030
2020/01/31 17:39:42.3	356.730	0.800	-0.870	-0.050
2020/01/31 17:39:42.4	356.730	0.800	-0.860	-0.060
2020/01/31 17:39:42.5	356.730	0.800	-0.840	-0.080
2020/01/31 17:39:42.6	356.730	0.790	-0.810	-0.100
2020/01/31 17:39:42.7	356.720	0.770	-0.790	-0.120
2020/01/31 17:39:42.8	356.720	0.750	-0.750	-0.140
2020/01/31 17:39:42.9	356.710	0.720	-0.710	-0.160
2020/01/31 17:39:43.0	356.710	0.690	-0.670	-0.190
2020/01/31 17:39:43.1	356.700	0.650	-0.630	-0.210
2020/01/31 17:39:43.2	356.700	0.600	-0.580	-0.240
2020/01/31 17:39:43.3	356.690	0.560	-0.530	-0.270
2020/01/31 17:39:43.4	356.690	0.510	-0.480	-0.300
2020/01/31 17:39:43.5	356.680	0.450	-0.430	-0.330
2020/01/31 17:39:43.6	356.680	0.400	-0.380	-0.360
2020/01/31 17:39:43.7	356.680	0.340	-0.330	-0.390
2020/01/31 17:39:43.8	356.670	0.280	-0.270	-0.430
2020/01/31 17:39:43.9	356.670	0.220	-0.220	-0.460
2020/01/31 17:39:44.0	356.670	0.160	-0.170	-0.490
2020/01/31 17:39:44.1	356.670	0.100	-0.120	-0.530
2020/01/31 17:39:44.2	356.670	0.050	-0.070	-0.560
2020/01/31 17:39:44.3	356.670	-0.010	-0.020	-0.590
2020/01/31 17:39:44.4	356.670	-0.060	0.030	-0.630
2020/01/31 17:39:44.5	356.670	-0.110	0.070	-0.660
2020/01/31 17:39:44.6	356.680	-0.160	0.120	-0.690
2020/01/31 17:39:44.7	356.680	-0.210	0.160	-0.720
2020/01/31 17:39:44.8	356.680	-0.250	0.200	-0.740
2020/01/31 17:39:44.9	356.680	-0.280	0.230	-0.770
2020/01/31 17:39:45.0	356.690	-0.310	0.270	-0.780
2020/01/31 17:39:45.1	356.690	-0.340	0.300	-0.800
2020/01/31 17:39:45.2	356.690	-0.360	0.320	-0.810
2020/01/31 17:39:45.3	356.690	-0.380	0.340	-0.820
2020/01/31 17:39:45.4	356.690	-0.390	0.360	-0.830
2020/01/31 17:39:45.5	356.690	-0.390	0.380	-0.830
2020/01/31 17:39:45.6	356.680	-0.390	0.390	-0.830
2020/01/31 17:39:45.7	356.680	-0.390	0.400	-0.820
2020/01/31 17:39:45.8	356.670	-0.380	0.400	-0.810
2020/01/31 17:39:45.9	356.670	-0.360	0.400	-0.800
2020/01/31 17:39:46.0	356.660	-0.350	0.390	-0.780
2020/01/31 17:39:46.1	356.660	-0.320	0.380	-0.760
2020/01/31 17:39:46.2	356.650	-0.300	0.370	-0.740
2020/01/31 17:39:46.3	356.650	-0.270	0.350	-0.710
2020/01/31 17:39:46.4	356.640	-0.230	0.330	-0.680
2020/01/31 17:39:46.5	356.630	-0.200	0.300	-0.650
2020/01/31 17:39:46.6	356.630	-0.160	0.270	-0.620
2020/01/31 17:39:46.7	356.620	-0.130	0.240	-0.590
2020/01/31 17:39:46.8	356.610	-0.090	0.200	-0.560
2020/01/31 17:39:46.9	356.610	-0.050	0.160	-0.530
2020/01/31 17:39:47.0	356.600	-0.010	0.110	-0.500
2020/01/31 17:39:47.1	356.600	0.030	0.070	-0.470
2020/01/31 17:39:47.2	356.600	0.070	0.020	-0.440
2020/01/31 17:39:47.3	356.590	0.110	-0.030	-0.420
2020/01/31 17:39:47.4	356.590	0.140	-0.080	-0.390
2020/01/31 17:39:47.5	356.590	0.180	-0.130	-0.370
2020/01/31 17:39:47.6	356.590	0.210	-0.180	-0.350
2020/01/31 17:39:47.7	356.590	0.230	-0.230	-0.330
2020/01/31 17:39:47.8	356.590	0.260	-0.270	-0.320
2020/01/31 17:39:47.9	356.590	0.280	-0.320	-0.310
2020/01/31 17:39:48.0	356.590	0.290	-0.360	-0.300
2020/01/31 17:39:48.1	356.590	0.310	-0.410	-0.290
2020/01/31 17:39:48.2	356.600	0.320	-0.440	-0.280
2020/01/31 17:39:48.3	356.600	0.320	-0.480	-0.280
2020/01/31 17:39:48.4	356.600	0.320	-0.510	-0.280
2020/01/31 17:39:48.5	356.600	0.320	-0.540	-0.280
2020/01/31 17:39:48.6	356.610	0.310	-0.570	-0.280
2020/01/31 17:39:48.7	356.610	0.300	-0.590	-0.280
2020/01/31 17:39:48.8	356.600	0.280	-0.610	-0.290
2020/01/31 17:39:48.9	356.600	0.260	-0.620	-0.290
2020/01/31 17:39:49.0	356.600	0.240	-0.630	-0.300
2020/01/31 17:39:49.1	356.600	0.220	-0.640	-0.310
2020/01/31 17:39:49.2	356.600	0.190	-0.650	-0.320
2020/01/31 17:39:49.3	356.600	0.160	-0.650	-0.330
2020/01/31 17:39:49.4	356.600	0.120	-0.650	-0.340
2020/01/31 17:39:49.5	356.600	0.090	-0.640	-0.360
2020/01/31 17:39:49.6	356.600	0.050	-0.640	-0.370
2020/01/31 17:39:49.7	356.600	0.020	-0.630	-0.380
2020/01/31 17:39:49.8	356.620	-0.020	-0.620	-0.400
2020/01/31 17:39:49.9	356.620	-0.060	-0.610	-0.420
2020/01/31 17:39:50.0	356.620	-0.090	-0.600	-0.430
2020/01/31 17:39:50.1	356.620	-0.130	-0.590	-0.450
2020/01/31 17:39:50.2	356.630	-0.170	-0.580	-0.470
2020/01/31 17:39:50.3	356.630	-0.200	-0.570	-0.490
2020/01/31 17:39:50.4	356.640	-0.230	-0.560	-0.510
2020/01/31 17:39:50.5	356.640	-0.260	-0.550	-0.540
2020/01/31 17:39:50.6	356.650	-0.290	-0.540	-0.560
2020/01/31 17:39:50.7	356.660	-0.310	-0.530	-0.580
2020/01/31 17:39:50.8	356.680	-0.340	-0.520	-0.610
2020/01/31 17:39:50.9	356.690	-0.360	-0.510	-0.630
2020/01/31 17:39:51.0	356.700	-0.370	-0.510	-0.660
2020/01/31 17:39:51.1	356.720	-0.390	-0.500	-0.690
2020/01/31 17:39:51.2	356.730	-0.400	-0.490	-0.720
2020/01/31 17:39:51.3	356.750	-0.400	-0.490	-0.750
2020/01/31 17:39:51.4	356.770	-0.410	-0.480	-0.770
2020/01/31 17:39:51.5	356.780	-0.410	-0.480	-0.800
2020/01/31 17:39:51.6	356.800	-0.410	-0.470	-0.830
2020/01/31 17:39:51.7	356.820	-0.400	-0.470	-0.860
2020/01/31 17:39:51.8	356.840	-0.390	-0.460	-0.890
2020/01/31 17:39:51.9	356.850	-0.380	-0.450	-0.910
2020/01/31 17:39:52.0	356.870	-0.370	-0.440	-0.930
2020/01/31 17:39:52.1	356.890	-0.350	-0.430	-0.940
2020/01/31 17:39:52.2	356.900	-0.330	-0.420	-0.960
2020/01/31 17:39:52.3	356.920	-0.310	-0.400	-0.960
2020/01/31 17:39:52.4	356.930	-0.290	-0.380	-0.970
2020/01/31 17:39:52.5	356.930	-0.270	-0.360	-0.960
2020/01/31 17:39:52.6	356.940	-0.250	-0.340	-0.960
2020/01/31 17:39:52.7	356.940	-0.220	-0.310	-0.940
2020/01/31 17:39:52.8	356.930	-0.200	-0.290	-0.930
2020/01/31 17:39:52.9	356.930	-0.170	-0.260	-0.900
2020/01/31 17:39:53.0	356.920	-0.150	-0.220	-0.870
2020/01/31 17:39:53.1	356.910	-0.120	-0.190	-0.840
2020/01/31 17:39:53.2	356.900	-0.100	-0.150	-0.810
2020/01/31 17:39:53.3	356.890	-0.070	-0.120	-0.770
2020/01/31 17:39:53.4	356.870	-0.050	-0.080	-0.730
2020/01/31 17:39:53.5	356.860	-0.030	-0.040	-0.690
2020/01/31 17:39:53.6	356.840	-0.010	-0.010	-0.650
2020/01/31 17:39:53.7	356.820	0.010	0.020	-0.610
2020/01/31 17:39:53.8	356.810	0.030	0.060	-0.570
2020/01/31 17:39:53.9	356.800	0.050	0.090	-0.540
2020/01/31 17:39:54.0	356.780	0.060	0.120	-0.500
2020/01/31 17:39:54.1	356.770	0.070	0.140	-0.470
2020/01/31 17:39:54.2	356.750	0.090	0.160	-0.440
2020/01/31 17:39:54.3	356.740	0.100	0.180	-0.410
2020/01/31 17:39:54.4	356.730	0.110	0.190	-0.390
2020/01/31 17:39:54.5	356.730	0.110	0.200	-0.370
2020/01/31 17:39:54.6	356.720	0.120	0.210	-0.350
2020/01/31 17:39:54.7	356.710	0.130	0.210	-0.330
2020/01/31 17:39:54.8	356.720	0.130	0.210	-0.320
2020/01/31 17:39:54.9	356.720	0.130	0.210	-0.310
2020/01/31 17:39:55.0	356.720	0.130	0.200	-0.300
2020/01/31 17:39:55.1	356.720	0.130	0.190	-0.290
2020/01/31 17:39:55.2	356.720	0.130	0.180	-0.290
2020/01/31 17:39:55.3	356.710	0.130	0.170	-0.280
2020/01/31 17:39:55.4	356.710	0.120	0.150	-0.280
2020/01/31 17:39:55.5	356.710	0.120	0.130	-0.270
2020/01/31 17:39:55.6	356.700	0.110	0.120	-0.270
2020/01/31 17:39:55.7	356.690	0.100	0.100	-0.270
2020/01/31 17:39:55.8	356.690	0.090	0.080	-0.270
2020/01/31 17:39:55.9	356.680	0.080	0.060	-0.270
2020/01/31 17:39:56.0	356.670	0.070	0.040	-0.260
2020/01/31 17:39:56.1	356.660	0.060	0.030	-0.260
2020/01/31 17:39:56.2	356.640	0.050	0.010	-0.260
2020/01/31 17:39:56.3	356.630	0.040	-0.010	-0.260
2020/01/31 17:39:56.4	356.610	0.020	-0.020	-0.260
2020/01/31 17:39:56.5	356.600	0.010	-0.040	-0.250
2020/01/31 17:39:56.6	356.580	0.000	-0.050	-0.250
2020/01/31 17:39:56.7	356.560	-0.010	-0.060	-0.250
2020/01/31 17:39:56.8	356.540	-0.020	-0.080	-0.250
2020/01/31 17:39:56.9	356.520	-0.030	-0.090	-0.240
2020/01/31 17:39:57.0	356.500	-0.040	-0.100	-0.240
2020/01/31 17:39:57.1	356.480	-0.040	-0.120	-0.240
2020/01/31 17:39:57.2	356.470	-0.050	-0.130	-0.240
2020/01/31 17:39:57.3	356.450	-0.050	-0.150	-0.240
2020/01/31 17:39:57.4	356.430	-0.050	-0.160	-0.230
2020/01/31 17:39:57.5	356.420	-0.050	-0.180	-0.230
2020/01/31 17:39:57.6	356.410	-0.050	-0.200	-0.240
2020/01/31 17:39:57.7	356.400	-0.040	-0.230	-0.240
2020/01/31 17:39:57.8	356.370	-0.030	-0.250	-0.250
2020/01/31 17:39:57.9	356.370	-0.020	-0.280	-0.260
2020/01/31 17:39:58.0	356.360	-0.010	-0.310	-0.270
2020/01/31 17:39:58.1	356.360	0.000	-0.350	-0.280
2020/01/31 17:39:58.2	356.370	0.020	-0.380	-0.290
2020/01/31 17:39:58.3	356.370	0.040	-0.430	-0.300
2020/01/31 17:39:58.4	356.380	0.070	-0.470	-0.310
2020/01/31 17:39:58.5	356.390	0.090	-0.510	-0.330
2020/01/31 17:39:58.6	356.410	0.120	-0.560	-0.350
2020/01/31 17:39:58.7	356.430	0.150	-0.610	-0.370
2020/01/31 17:39:58.8	356.440	0.180	-0.660	-0.390
2020/01/31 17:39:58.9	356.470	0.210	-0.710	-0.410
2020/01/31 17:39:59.0	356.490	0.240	-0.750	-0.430
2020/01/31 17:39:59.1	356.520	0.270	-0.800	-0.450
2020/01/31 17:39:59.2	356.550	0.300	-0.840	-0.470
2020/01/31 17:39:59.3	356.580	0.330	-0.880	-0.490
2020/01/31 17:39:59.4	356.620	0.360	-0.920	-0.510
2020/01/31 17:39:59.5	356.650	0.390	-0.950	-0.530
2020/01/31 17:39:59.6	356.680	0.420	-0.980	-0.550
2020/01/31 17:39:59.7	356.710	0.450	-1.010	-0.570
2020/01/31 17:39:59.8	356.750	0.470	-1.020	-0.590
2020/01/31 17:39:59.9	356.790	0.490	-1.040	-0.610
2020/01/31 17:40:00.0	356.820	0.510	-1.050	-0.630
2020/01/31 17:40:00.1	356.850	0.530	-1.050	-0.640
2020/01/31 17:40:00.2	356.880	0.540	-1.040	-0.660
2020/01/31 17:40:00.3	356.910	0.550	-1.030	-0.670
2020/01/31 17:40:00.4	356.930	0.550	-1.010	-0.680
2020/01/31 17:40:00.5	356.960	0.550	-0.990	-0.690
2020/01/31 17:40:00.6	356.980	0.550	-0.960	-0.690
2020/01/31 17:40:00.7	357.000	0.550	-0.930	-0.690
2020/01/31 17:40:00.8	357.020	0.540	-0.880	-0.690
2020/01/31 17:40:00.9	357.040	0.530	-0.840	-0.690
2020/01/31 17:40:01.0	357.050	0.510	-0.790	-0.680
2020/01/31 17:40:01.1	357.060	0.490	-0.730	-0.670
2020/01/31 17:40:01.2	357.070	0.470	-0.670	-0.660
2020/01/31 17:40:01.3	357.080	0.450	-0.610	-0.650
2020/01/31 17:40:01.4	357.090	0.420	-0.550	-0.630
2020/01/31 17:40:01.5	357.090	0.390	-0.480	-0.620
2020/01/31 17:40:01.6	357.100	0.360	-0.420	-0.600
2020/01/31 17:40:01.7	357.100	0.320	-0.350	-0.580
2020/01/31 17:40:01.8	357.080	0.290	-0.280	-0.550
2020/01/31 17:40:01.9	357.080	0.250	-0.220	-0.520
2020/01/31 17:40:02.0	357.070	0.210	-0.150	-0.500
2020/01/31 17:40:02.1	357.070	0.170	-0.090	-0.470
2020/01/31 17:40:02.2	357.060	0.130	-0.020	-0.440
2020/01/31 17:40:02.3	357.050	0.090	0.040	-0.410
2020/01/31 17:40:02.4	357.030	0.040	0.090	-0.380
2020/01/31 17:40:02.5	357.020	0.000	0.150	-0.360
2020/01/31 17:40:02.6	357.010	-0.040	0.200	-0.330
2020/01/31 17:40:02.7	356.990	-0.080	0.240	-0.300
2020/01/31 17:40:02.8	356.980	-0.130	0.280	-0.280
2020/01/31 17:40:02.9	356.970	-0.170	0.320	-0.260
2020/01/31 17:40:03.0	356.950	-0.210	0.350	-0.240
2020/01/31 17:40:03.1	356.940	-0.240	0.380	-0.220
2020/01/31 17:40:03.2	356.920	-0.280	0.400	-0.210
2020/01/31 17:40:03.3	356.910	-0.320	0.410	-0.190
2020/01/31 17:40:03.4	356.890	-0.350	0.420	-0.180
2020/01/31 17:40:03.5	356.880	-0.380	0.430	-0.170
2020/01/31 17:40:03.6	356.860	-0.410	0.430	-0.170
2020/01/31 17:40:03.7	356.850	-0.430	0.420	-0.160
2020/01/31 17:40:03.8	356.840	-0.450	0.410	-0.160
2020/01/31 17:40:03.9	356.830	-0.470	0.400	-0.160
2020/01/31 17:40:04.0	356.820	-0.490	0.380	-0.160
2020/01/31 17:40:04.1	356.810	-0.500	0.360	-0.160
2020/01/31 17:40:04.2	356.800	-0.510	0.340	-0.160
2020/01/31 17:40:04.3	356.790	-0.520	0.320	-0.160
2020/01/31 17:40:04.4	356.780	-0.520	0.290	-0.160
2020/01/31 17:40:04.5	356.770	-0.520	0.260	-0.160
2020/01/31 17:40:04.6	356.760	-0.520	0.230	-0.160
2020/01/31 17:40:04.7	356.750	-0.510	0.200	-0.160
2020/01/31 17:40:04.8	356.730	-0.500	0.170	-0.170
2020/01/31 17:40:04.9	356.720	-0.490	0.140	-0.170
2020/01/31 17:40:05.0	356.710	-0.470	0.110	-0.170
2020/01/31 17:40:05.1	356.710	-0.460	0.080	-0.170
2020/01/31 17:40:05.2	356.700	-0.430	0.050	-0.170
2020/01/31 17:40:05.3	356.700	-0.410	0.030	-0.170
2020/01/31 17:40:05.4	356.690	-0.390	0.000	-0.170
2020/01/31 17:40:05.5	356.690	-0.360	-0.020	-0.170
2020/01/31 17:40:05.6	356.680	-0.330	-0.040	-0.170
2020/01/31 17:40:05.7	356.680	-0.300	-0.060	-0.160
2020/01/31 17:40:05.8	356.670	-0.270	-0.080	-0.160
2020/01/31 17:40:05.9	356.670	-0.240	-0.100	-0.160
2020/01/31 17:40:06.0	356.660	-0.210	-0.110	-0.150
2020/01/31 17:40:06.1	356.660	-0.170	-0.120	-0.150
2020/01/31 17:40:06.2	356.660	-0.140	-0.130	-0.140
2020/01/31 17:40:06.3	356.660	-0.110	-0.150	-0.130
2020/01/31 17:40:06.4	356.660	-0.080	-0.160	-0.130
2020/01/31 17:40:06.5	356.650	-0.050	-0.170	-0.120
2020/01/31 17:40:06.6	356.650	-0.030	-0.180	-0.110
2020/01/31 17:40:06.7	356.650	0.000	-0.190	-0.110
2020/01/31 17:40:06.8	356.660	0.020	-0.190	-0.100
2020/01/31 17:40:06.9	356.660	0.050	-0.200	-0.090
2020/01/31 17:40:07.0	356.660	0.070	-0.210	-0.090
2020/01/31 17:40:07.1	356.660	0.080	-0.230	-0.080
2020/01/31 17:40:07.2	356.660	0.100	-0.240	-0.080
2020/01/31 17:40:07.3	356.660	0.110	-0.250	-0.080
2020/01/31 17:40:07.4	356.660	0.120	-0.270	-0.070
2020/01/31 17:40:07.5	356.660	0.120	-0.280	-0.070
2020/01/31 17:40:07.6	356.660	0.120	-0.300	-0.070
2020/01/31 17:40:07.7	356.660	0.120	-0.310	-0.070
2020/01/31 17:40:07.8	356.650	0.120	-0.330	-0.080
2020/01/31 17:40:07.9	356.650	0.110	-0.350	-0.080
2020/01/31 17:40:08.0	356.650	0.100	-0.370	-0.090
2020/01/31 17:40:08.1	356.650	0.090	-0.380	-0.100
2020/01/31 17:40:08.2	356.650	0.080	-0.400	-0.110
2020/01/31 17:40:08.3	356.650	0.070	-0.420	-0.130
2020/01/31 17:40:08.4	356.650	0.050	-0.450	-0.150
2020/01/31 17:40:08.5	356.650	0.030	-0.470	-0.170
2020/01/31 17:40:08.6	356.650	0.020	-0.490	-0.190
2020/01/31 17:40:08.7	356.650	-0.000	-0.510	-0.210
2020/01/31 17:40:08.8	356.660	-0.020	-0.530	-0.240
2020/01/31 17:40:08.9	356.660	-0.040	-0.550	-0.270
2020/01/31 17:40:09.0	356.660	-0.060	-0.570	-0.290
2020/01/31 17:40:09.1	356.660	-0.080	-0.580	-0.320
2020/01/31 17:40:09.2	356.660	-0.100	-0.600	-0.340
2020/01/31 17:40:09.3	356.660	-0.110	-0.610	-0.370
2020/01/31 17:40:09.4	356.670	-0.130	-0.620	-0.390
2020/01/31 17:40:09.5	356.670	-0.140	-0.630	-0.420
2020/01/31 17:40:09.6	356.670	-0.150	-0.640	-0.440
2020/01/31 17:40:09.7	356.680	-0.160	-0.640	-0.460
2020/01/31 17:40:09.8	356.680	-0.170	-0.630	-0.490
2020/01/31 17:40:09.9	356.690	-0.170	-0.630	-0.510
2020/01/31 17:40:10.0	356.690	-0.180	-0.620	-0.520
2020/01/31 17:40:10.1	356.690	-0.180	-0.620	-0.540
2020/01/31 17:40:10.2	356.700	-0.180	-0.600	-0.560
2020/01/31 17:40:10.3	356.700	-0.170	-0.590	-0.570
2020/01/31 17:40:10.4	356.710	-0.160	-0.580	-0.590
2020/01/31 17:40:10.5	356.710	-0.150	-0.560	-0.600
2020/01/31 17:40:10.6	356.710	-0.140	-0.540	-0.610
2020/01/31 17:40:10.7	356.720	-0.130	-0.520	-0.620
2020/01/31 17:40:10.8	356.720	-0.120	-0.500	-0.630
2020/01/31 17:40:10.9	356.720	-0.100	-0.480	-0.640
2020/01/31 17:40:11.0	356.730	-0.080	-0.460	-0.640
2020/01/31 17:40:11.1	356.730	-0.060	-0.430	-0.650
2020/01/31 17:40:11.2	356.740	-0.040	-0.410	-0.650
2020/01/31 17:40:11.3	356.750	-0.020	-0.390	-0.660
2020/01/31 17:40:11.4	356.760	0.010	-0.370	-0.660
2020/01/31 17:40:11.5	356.760	0.030	-0.360	-0.660
2020/01/31 17:40:11.6	356.770	0.050	-0.340	-0.660
2020/01/31 17:40:11.7	356.780	0.080	-0.320	-0.660
2020/01/31 17:40:11.8	356.780	0.100	-0.310	-0.660
2020/01/31 17:40:11.9	356.790	0.130	-0.290	-0.650
2020/01/31 17:40:12.0	356.800	0.150	-0.280	-0.650
2020/01/31 17:40:12.1	356.820	0.180	-0.270	-0.640
2020/01/31 17:40:12.2	356.830	0.200	-0.260	-0.630
2020/01/31 17:40:12.3	356.850	0.220	-0.260	-0.620
2020/01/31 17:40:12.4	356.860	0.240	-0.250	-0.600
2020/01/31 17:40:12.5	356.880	0.260	-0.250	-0.590
2020/01/31 17:40:12.6	356.900	0.280	-0.240	-0.570
2020/01/31 17:40:12.7	356.920	0.300	-0.240	-0.560
2020/01/31 17:40:12.8	356.920	0.320	-0.240	-0.540
2020/01/31 17:40:12.9	356.940	0.330	-0.240	-0.520
2020/01/31 17:40:13.0	356.960	0.350	-0.240	-0.490
2020/01/31 17:40:13.1	356.980	0.360	-0.240	-0.470
2020/01/31 17:40:13.2	357.000	0.370	-0.250	-0.450
2020/01/31 17:40:13.3	357.020	0.380	-0.250	-0.430
2020/01/31 17:40:13.4	357.040	0.390	-0.250	-0.400
2020/01/31 17:40:13.5	357.060	0.390	-0.240	-0.380
2020/01/31 17:40:13.6	357.070	0.390	-0.240	-0.350
2020/01/31 17:40:13.7	357.090	0.390	-0.240	-0.330
2020/01/31 17:40:13.8	357.110	0.390	-0.230	-0.300
2020/01/31 17:40:13.9	357.120	0.390	-0.220	-0.280
2020/01/31 17:40:14.0	357.130	0.380	-0.210	-0.250
2020/01/31 17:40:14.1	357.140	0.380	-0.200	-0.230
2020/01/31 17:40:14.2	357.140	0.370	-0.180	-0.200
2020/01/31 17:40:14.3	357.140	0.360	-0.160	-0.170
2020/01/31 17:40:14.4	357.150	0.350	-0.140	-0.150
2020/01/31 17:40:14.5	357.140	0.330	-0.120	-0.120
2020/01/31 17:40:14.6	357.140	0.320	-0.100	-0.090
2020/01/31 17:40:14.7	357.140	0.300	-0.070	-0.070
2020/01/31 17:40:14.8	357.120	0.290	-0.050	-0.040
2020/01/31 17:40:14.9	357.120	0.270	-0.020	-0.010
2020/01/31 17:40:15.0	357.100	0.250	0.010	0.010
2020/01/31 17:40:15.1	357.090	0.220	0.040	0.040
2020/01/31 17:40:15.2	357.080	0.200	0.060	0.060
2020/01/31 17:40:15.3	357.060	0.180	0.090	0.090
2020/01/31 17:40:15.4	357.040	0.150	0.120	0.110
2020/01/31 17:40:15.5	357.020	0.120	0.140	0.140
2020/01/31 17:40:15.6	357.000	0.100	0.160	0.160
2020/01/31 17:40:15.7	356.980	0.070	0.180	0.180
2020/01/31 17:40:15.8	356.950	0.040	0.200	0.200
2020/01/31 17:40:15.9	356.930	0.020	0.220	0.220
2020/01/31 17:40:16.0	356.900	-0.010	0.230	0.230
2020/01/31 17:40:16.1	356.880	-0.040	0.230	0.240
2020/01/31 17:40:16.2	356.850	-0.070	0.240	0.250
2020/01/31 17:40:16.3	356.830	-0.090	0.230	0.260
2020/01/31 17:40:16.4	356.800	-0.120	0.230	0.260
2020/01/31 17:40:16.5	356.780	-0.140	0.210	0.260
2020/01/31 17:40:16.6	356.760	-0.170	0.200	0.250
2020/01/31 17:40:16.7	356.740	-0.190	0.170	0.240
2020/01/31 17:40:16.8	356.720	-0.210	0.150	0.230
2020/01/31 17:40:16.9	356.700	-0.220	0.110	0.210
2020/01/31 17:40:17.0	356.680	-0.240	0.080	0.190
2020/01/31 17:40:17.1	356.670	-0.250	0.040	0.160
2020/01/31 17:40:17.2	356.660	-0.260	-0.010	0.130
2020/01/31 17:40:17.3	356.650	-0.270	-0.060	0.100
2020/01/31 17:40:17.4	356.640	-0.280	-0.110	0.070
2020/01/31 17:40:17.5	356.630	-0.280	-0.170	0.030
2020/01/31 17:40:17.6	356.620	-0.280	-0.230	-0.010
2020/01/31 17:40:17.7	356.620	-0.280	-0.290	-0.050
2020/01/31 17:40:17.8	356.630	-0.270	-0.340	-0.090
2020/01/31 17:40:17.9	356.630	-0.260	-0.400	-0.130
2020/01/31 17:40:18.0	356.630	-0.250	-0.460	-0.170
2020/01/31 17:40:18.1	356.630	-0.240	-0.520	-0.200
2020/01/31 17:40:18.2	356.630	-0.220	-0.580	-0.240
2020/01/31 17:40:18.3	356.630	-0.210	-0.630	-0.280
2020/01/31 17:40:18.4	356.640	-0.190	-0.680	-0.310
2020/01/31 17:40:18.5	356.640	-0.160	-0.730	-0.340
2020/01/31 17:40:18.6	356.640	-0.140	-0.770	-0.370
2020/01/31 17:40:18.7	356.650	-0.120	-0.810	-0.400
2020/01/31 17:40:18.8	356.640	-0.090	-0.850	-0.430
2020/01/31 17:40:18.9	356.650	-0.070	-0.880	-0.460
2020/01/31 17:40:19.0	356.650	-0.040	-0.910	-0.490
2020/01/31 17:40:19.1	356.660	-0.020	-0.930	-0.510
2020/01/31 17:40:19.2	356.670	0.010	-0.940	-0.540
2020/01/31 17:40:19.3	356.680	0.030	-0.950	-0.560
2020/01/31 17:40:19.4	356.690	0.050	-0.960	-0.580
2020/01/31 17:40:19.5	356.700	0.070	-0.960	-0.600
2020/01/31 17:40:19.6	356.720	0.090	-0.950	-0.620
2020/01/31 17:40:19.7	356.730	0.110	-0.940	-0.640
2020/01/31 17:40:19.8	356.740	0.130	-0.930	-0.660
2020/01/31 17:40:19.9	356.760	0.140	-0.910	-0.680
2020/01/31 17:40:20.0	356.780	0.150	-0.890	-0.690
2020/01/31 17:40:20.1	356.790	0.160	-0.870	-0.710
2020/01/31 17:40:20.2	356.810	0.170	-0.840	-0.720
2020/01/31 17:40:20.3	356.830	0.170	-0.800	-0.730
2020/01/31 17:40:20.4	356.860	0.170	-0.770	-0.740
2020/01/31 17:40:20.5	356.880	0.170	-0.730	-0.750
2020/01/31 17:40:20.6	356.900	0.160	-0.690	-0.750
2020/01/31 17:40:20.7	356.920	0.160	-0.640	-0.760
2020/01/31 17:40:20.8	356.940	0.140	-0.600	-0.750
2020/01/31 17:40:20.9	356.960	0.130	-0.550	-0.750
2020/01/31 17:40:21.0	356.980	0.110	-0.500	-0.750
2020/01/31 17:40:21.1	356.990	0.090	-0.440	-0.740
2020/01/31 17:40:21.2	357.010	0.070	-0.390	-0.730
2020/01/31 17:40:21.3	357.030	0.050	-0.330	-0.720
2020/01/31 17:40:21.4	357.040	0.020	-0.280	-0.710
2020/01/31 17:40:21.5	357.060	-0.010	-0.220	-0.690
2020/01/31 17:40:21.6	357.070	-0.040	-0.170	-0.680
2020/01/31 17:40:21.7	357.080	-0.070	-0.110	-0.660
2020/01/31 17:40:21.8	357.090	-0.100	-0.050	-0.650
2020/01/31 17:40:21.9	357.090	-0.130	-0.000	-0.630
2020/01/31 17:40:22.0	357.100	-0.170	0.050	-0.610
2020/01/31 17:40:22.1	357.110	-0.200	0.100	-0.590
2020/01/31 17:40:22.2	357.110	-0.230	0.150	-0.570
2020/01/31 17:40:22.3	357.120	-0.260	0.200	-0.550
2020/01/31 17:40:22.4	357.120	-0.290	0.240	-0.530
2020/01/31 17:40:22.5	357.120	-0.320	0.280	-0.500
2020/01/31 17:40:22.6	357.120	-0.350	0.320	-0.480
2020/01/31 17:40:22.7	357.120	-0.370	0.350	-0.450
2020/01/31 17:40:22.8	357.120	-0.390	0.380	-0.430
2020/01/31 17:40:22.9	357.120	-0.410	0.410	-0.400
2020/01/31 17:40:23.0	357.110	-0.420	0.440	-0.380
2020/01/31 17:40:23.1	357.110	-0.440	0.460	-0.350
2020/01/31 17:40:23.2	357.100	-0.450	0.470	-0.320
2020/01/31 17:40:23.3	357.100	-0.450	0.480	-0.300
2020/01/31 17:40:23.4	357.090	-0.450	0.490	-0.270
2020/01/31 17:40:23.5	357.080	-0.450	0.490	-0.240
2020/01/31 17:40:23.6	357.070	-0.450	0.490	-0.220
2020/01/31 17:40:23.7	357.070	-0.440	0.490	-0.190
2020/01/31 17:40:23.8	357.070	-0.430	0.480	-0.170
2020/01/31 17:40:23.9	357.060	-0.410	0.470	-0.140
2020/01/31 17:40:24.0	357.050	-0.390	0.450	-0.120
2020/01/31 17:40:24.1	357.050	-0.370	0.430	-0.100
2020/01/31 17:40:24.2	357.040	-0.350	0.400	-0.080
2020/01/31 17:40:24.3	357.030	-0.320	0.370	-0.060
2020/01/31 17:40:24.4	357.030	-0.290	0.340	-0.050
2020/01/31 17:40:24.5	357.030	-0.260	0.310	-0.030
2020/01/31 17:40:24.6	357.020	-0.230	0.270	-0.010
2020/01/31 17:40:24.7	357.020	-0.190	0.230	0.000
2020/01/31 17:40:24.8	357.030	-0.160	0.190	0.010
2020/01/31 17:40:24.9	357.030	-0.120	0.150	0.020
2020/01/31 17:40:25.0	357.030	-0.080	0.110	0.030
2020/01/31 17:40:25.1	357.030	-0.040	0.060	0.050
2020/01/31 17:40:25.2	357.030	-0.000	0.020	0.060
2020/01/31 17:40:25.3	357.030	0.030	-0.030	0.070
2020/01/31 17:40:25.4	357.030	0.070	-0.070	0.080
2020/01/31 17:40:25.5	357.030	0.110	-0.110	0.090
2020/01/31 17:40:25.6	357.020	0.150	-0.150	0.110
2020/01/31 17:40:25.7	357.020	0.180	-0.190	0.120
2020/01/31 17:40:25.8	357.010	0.210	-0.220	0.130
2020/01/31 17:40:25.9	357.000	0.250	-0.260	0.140
2020/01/31 17:40:26.0	356.990	0.280	-0.290	0.160
2020/01/31 17:40:26.1	356.980	0.300	-0.310	0.170
2020/01/31 17:40:26.2	356.960	0.330	-0.340	0.190
2020/01/31 17:40:26.3	356.950	0.350	-0.360	0.200
2020/01/31 17:40:26.4	356.930	0.370	-0.370	0.210
2020/01/31 17:40:26.5	356.910	0.390	-0.390	0.230
2020/01/31 17:40:26.6	356.890	0.410	-0.400	0.240
2020/01/31 17:40:26.7	356.860	0.420	-0.410	0.260
2020/01/31 17:40:26.8	356.840	0.430	-0.420	0.270
2020/01/31 17:40:26.9	356.820	0.440	-0.430	0.280
2020/01/31 17:40:27.0	356.790	0.450	-0.430	0.300
2020/01/31 17:40:27.1	356.770	0.460	-0.440	0.310
2020/01/31 17:40:27.2	356.740	0.460	-0.440	0.320
2020/01/31 17:40:27.3	356.720	0.460	-0.450	0.330
2020/01/31 17:40:27.4	356.690	0.470	-0.450	0.340
2020/01/31 17:40:27.5	356.670	0.460	-0.460	0.350
2020/01/31 17:40:27.6	356.650	0.460	-0.460	0.360
2020/01/31 17:40:27.7	356.630	0.460	-0.470	0.370
2020/01/31 17:40:27.8	356.620	0.460	-0.480	0.370
2020/01/31 17:40:27.9	356.610	0.450	-0.500	0.380
2020/01/31 17:40:28.0	356.600	0.450	-0.510	0.370
2020/01/31 17:40:28.1	356.590	0.440	-0.530	0.370
2020/01/31 17:40:28.2	356.580	0.430	-0.560	0.350
2020/01/31 17:40:28.3	356.580	0.420	-0.580	0.340
2020/01/31 17:40:28.4	356.570	0.410	-0.610	0.320
2020/01/31 17:40:28.5	356.580	0.400	-0.640	0.290
2020/01/31 17:40:28.6	356.580	0.390	-0.680	0.250
2020/01/31 17:40:28.7	356.590	0.370	-0.720	0.210
2020/01/31 17:40:28.8	356.600	0.360	-0.750	0.160
2020/01/31 17:40:28.9	356.620	0.340	-0.800	0.110
2020/01/31 17:40:29.0	356.630	0.330	-0.840	0.050
2020/01/31 17:40:29.1	356.650	0.310	-0.880	-0.020
2020/01/31 17:40:29.2	356.670	0.290	-0.920	-0.090
2020/01/31 17:40:29.3	356.690	0.260	-0.960	-0.170
2020/01/31 17:40:29.4	356.720	0.240	-1.000	-0.250
2020/01/31 17:40:29.5	356.740	0.220	-1.040	-0.330
2020/01/31 17:40:29.6	356.770	0.190	-1.070	-0.420
2020/01/31 17:40:29.7	356.790	0.170	-1.100	-0.500
2020/01/31 17:40:29.8	356.800	0.140	-1.120	-0.600
2020/01/31 17:40:29.9	356.830	0.110	-1.140	-0.680
2020/01/31 17:40:30.0	356.860	0.080	-1.160	-0.770
2020/01/31 17:40:30.1	356.890	0.050	-1.160	-0.850
2020/01/31 17:40:30.2	356.920	0.020	-1.160	-0.940
2020/01/31 17:40:30.3	356.950	-0.010	-1.160	-1.010
2020/01/31 17:40:30.4	356.990	-0.050	-1.140	-1.090
2020/01/31 17:40:30.5	357.020	-0.080	-1.120	-1.160
2020/01/31 17:40:30.6	357.050	-0.110	-1.100	-1.230
2020/01/31 17:40:30.7	357.090	-0.140	-1.060	-1.290
2020/01/31 17:40:30.8	357.120	-0.170	-1.020	-1.350
2020/01/31 17:40:30.9	357.150	-0.210	-0.980	-1.400
2020/01/31 17:40:31.0	357.190	-0.240	-0.920	-1.450
2020/01/31 17:40:31.1	357.230	-0.270	-0.870	-1.500
2020/01/31 17:40:31.2	357.260	-0.290	-0.800	-1.530
2020/01/31 17:40:31.3	357.300	-0.320	-0.740	-1.560
2020/01/31 17:40:31.4	357.340	-0.350	-0.660	-1.590
2020/01/31 17:40:31.5	357.380	-0.370	-0.590	-1.610
2020/01/31 17:40:31.6	357.410	-0.390	-0.510	-1.630
2020/01/31 17:40:31.7	357.450	-0.410	-0.430	-1.640
2020/01/31 17:40:31.8	357.470	-0.430	-0.350	-1.640
2020/01/31 17:40:31.9	357.510	-0.440	-0.270	-1.630
2020/01/31 17:40:32.0	357.540	-0.450	-0.180	-1.620
2020/01/31 17:40:32.1	357.570	-0.460	-0.100	-1.600
2020/01/31 17:40:32.2	357.600	-0.470	-0.020	-1.570
2020/01/31 17:40:32.3	357.620	-0.470	0.060	-1.540
2020/01/31 17:40:32.4	357.650	-0.470	0.150	-1.500
2020/01/31 17:40:32.5	357.670	-0.460	0.220	-1.450
2020/01/31 17:40:32.6	357.680	-0.450	0.300	-1.400
2020/01/31 17:40:32.7	357.700	-0.440	0.370	-1.330
2020/01/31 17:40:32.8	357.690	-0.430	0.440	-1.270
2020/01/31 17:40:32.9	357.700	-0.410	0.510	-1.200
2020/01/31 17:40:33.0	357.700	-0.390	0.570	-1.120
2020/01/31 17:40:33.1	357.700	-0.370	0.630	-1.040
2020/01/31 17:40:33.2	357.700	-0.350	0.680	-0.960
2020/01/31 17:40:33.3	357.690	-0.320	0.730	-0.870
2020/01/31 17:40:33.4	357.680	-0.300	0.770	-0.790
2020/01/31 17:40:33.5	357.670	-0.270	0.810	-0.700
2020/01/31 17:40:33.6	357.660	-0.240	0.840	-0.610
2020/01/31 17:40:33.7	357.640	-0.210	0.860	-0.530
2020/01/31 17:40:33.8	357.630	-0.180	0.880	-0.440
2020/01/31 17:40:33.9	357.610	-0.150	0.890	-0.350
2020/01/31 17:40:34.0	357.580	-0.120	0.900	-0.270
2020/01/31 17:40:34.1	357.560	-0.080	0.890	-0.190
2020/01/31 17:40:34.2	357.530	-0.050	0.880	-0.110
2020/01/31 17:40:34.3	357.510	-0.020	0.870	-0.030
2020/01/31 17:40:34.4	357.480	0.000	0.840	0.040
2020/01/31 17:40:34.5	357.450	0.030	0.810	0.110
2020/01/31 17:40:34.6	357.420	0.060	0.780	0.180
2020/01/31 17:40:34.7	357.380	0.080	0.740	0.240
2020/01/31 17:40:34.8	357.350	0.100	0.690	0.310
2020/01/31 17:40:34.9	357.320	0.120	0.640	0.370
2020/01/31 17:40:35.0	357.280	0.140	0.580	0.430
2020/01/31 17:40:35.1	357.240	0.150	0.520	0.480
2020/01/31 17:40:35.2	357.200	0.160	0.450	0.530
2020/01/31 17:40:35.3	357.160	0.170	0.390	0.570
2020/01/31 17:40:35.4	357.120	0.170	0.320	0.610
2020/01/31 17:40:35.5	357.080	0.170	0.240	0.640
2020/01/31 17:40:35.6	357.050	0.170	0.160	0.670
2020/01/31 17:40:35.7	357.010	0.170	0.080	0.680
2020/01/31 17:40:35.8	356.970	0.160	0.010	0.690
2020/01/31 17:40:35.9	356.940	0.150	-0.070	0.700
2020/01/31 17:40:36.0	356.910	0.140	-0.160	0.690
2020/01/31 17:40:36.1	356.890	0.130	-0.240	0.680
2020/01/31 17:40:36.2	356.870	0.110	-0.320	0.660
2020/01/31 17:40:36.3	356.850	0.100	-0.410	0.640
2020/01/31 17:40:36.4	356.840	0.080	-0.490	0.600
2020/01/31 17:40:36.5	356.830	0.060	-0.570	0.560
2020/01/31 17:40:36.6	356.830	0.040	-0.650	0.520
2020/01/31 17:40:36.7	356.830	0.020	-0.730	0.460
2020/01/31 17:40:36.8	356.840	0.000	-0.800	0.400
2020/01/31 17:40:36.9	356.860	-0.010	-0.870	0.340
2020/01/31 17:40:37.0	356.870	-0.030	-0.940	0.280
2020/01/31 17:40:37.1	356.890	-0.050	-1.000	0.210
2020/01/31 17:40:37.2	356.910	-0.060	-1.050	0.150
2020/01/31 17:40:37.3	356.930	-0.080	-1.100	0.080
2020/01/31 17:40:37.4	356.960	-0.090	-1.140	0.010
2020/01/31 17:40:37.5	356.990	-0.100	-1.170	-0.050
2020/01/31 17:40:37.6	357.010	-0.110	-1.200	-0.110
2020/01/31 17:40:37.7	357.040	-0.110	-1.210	-0.170
2020/01/31 17:40:37.8	357.060	-0.120	-1.220	-0.230
2020/01/31 17:40:37.9	357.090	-0.120	-1.210	-0.280
2020/01/31 17:40:38.0	357.110	-0.120	-1.200	-0.330
2020/01/31 17:40:38.1	357.130	-0.120	-1.180	-0.370
2020/01/31 17:40:38.2	357.150	-0.110	-1.150	-0.410
2020/01/31 17:40:38.3	357.160	-0.100	-1.110	-0.440
2020/01/31 17:40:38.4	357.180	-0.100	-1.060	-0.470
2020/01/31 17:40:38.5	357.190	-0.090	-1.010	-0.490
2020/01/31 17:40:38.6	357.210	-0.070	-0.950	-0.510
2020/01/31 17:40:38.7	357.220	-0.060	-0.890	-0.520
2020/01/31 17:40:38.8	357.230	-0.050	-0.820	-0.530
2020/01/31 17:40:38.9	357.240	-0.030	-0.750	-0.530
2020/01/31 17:40:39.0	357.250	-0.010	-0.680	-0.530
2020/01/31 17:40:39.1	357.250	0.010	-0.610	-0.530
2020/01/31 17:40:39.2	357.260	0.030	-0.530	-0.520
2020/01/31 17:40:39.3	357.270	0.050	-0.460	-0.510
2020/01/31 17:40:39.4	357.270	0.070	-0.390	-0.500
2020/01/31 17:40:39.5	357.280	0.100	-0.320	-0.480
2020/01/31 17:40:39.6	357.290	0.120	-0.260	-0.470
2020/01/31 17:40:39.7	357.290	0.150	-0.190	-0.450
2020/01/31 17:40:39.8	357.300	0.170	-0.140	-0.430
2020/01/31 17:40:39.9	357.310	0.200	-0.090	-0.400
2020/01/31 17:40:40.0	357.310	0.220	-0.040	-0.380
2020/01/31 17:40:40.1	357.320	0.250	-0.000	-0.360
2020/01/31 17:40:40.2	357.320	0.270	0.030	-0.330
2020/01/31 17:40:40.3	357.320	0.290	0.060	-0.310
2020/01/31 17:40:40.4	357.320	0.320	0.080	-0.280
2020/01/31 17:40:40.5	357.320	0.340	0.090	-0.250
2020/01/31 17:40:40.6	357.320	0.360	0.100	-0.230
2020/01/31 17:40:40.7	357.320	0.370	0.100	-0.200
2020/01/31 17:40:40.8	357.320	0.390	0.090	-0.170
2020/01/31 17:40:40.9	357.310	0.410	0.080	-0.150
2020/01/31 17:40:41.0	357.310	0.420	0.070	-0.130
2020/01/31 17:40:41.1	357.300	0.430	0.050	-0.110
2020/01/31 17:40:41.2	357.300	0.430	0.030	-0.090
2020/01/31 17:40:41.3	357.290	0.440	0.000	-0.070
2020/01/31 17:40:41.4	357.280	0.440	-0.030	-0.060
2020/01/31 17:40:41.5	357.280	0.440	-0.060	-0.050
2020/01/31 17:40:41.6	357.270	0.440	-0.100	-0.050
2020/01/31 17:40:41.7	357.270	0.430	-0.130	-0.040
2020/01/31 17:40:41.8	357.260	0.420	-0.170	-0.040
2020/01/31 17:40:41.9	357.260	0.410	-0.210	-0.040
2020/01/31 17:40:42.0	357.260	0.400	-0.250	-0.040
2020/01/31 17:40:42.1	357.260	0.380	-0.290	-0.050
2020/01/31 17:40:42.2	357.260	0.360	-0.330	-0.060
2020/01/31 17:40:42.3	357.260	0.340	-0.370	-0.070
2020/01/31 17:40:42.4	357.260	0.320	-0.410	-0.090
2020/01/31 17:40:42.5	357.270	0.300	-0.450	-0.110
2020/01/31 17:40:42.6	357.280	0.270	-0.490	-0.130
2020/01/31 17:40:42.7	357.280	0.240	-0.530	-0.150
2020/01/31 17:40:42.8	357.290	0.210	-0.560	-0.180
2020/01/31 17:40:42.9	357.300	0.180	-0.590	-0.210
2020/01/31 17:40:43.0	357.310	0.150	-0.610	-0.240
2020/01/31 17:40:43.1	357.320	0.120	-0.640	-0.260
2020/01/31 17:40:43.2	357.320	0.080	-0.660	-0.290
2020/01/31 17:40:43.3	357.330	0.050	-0.670	-0.320
2020/01/31 17:40:43.4	357.340	0.020	-0.690	-0.350
2020/01/31 17:40:43.5	357.350	-0.020	-0.690	-0.380
2020/01/31 17:40:43.6	357.360	-0.050	-0.700	-0.410
2020/01/31 17:40:43.7	357.370	-0.090	-0.690	-0.440
2020/01/31 17:40:43.8	357.360	-0.120	-0.690	-0.470
2020/01/31 17:40:43.9	357.370	-0.150	-0.680	-0.490
2020/01/31 17:40:44.0	357.370	-0.190	-0.660	-0.510
2020/01/31 17:40:44.1	357.380	-0.220	-0.630	-0.540
2020/01/31 17:40:44.2	357.380	-0.250	-0.610	-0.560
2020/01/31 17:40:44.3	357.380	-0.280	-0.570	-0.570
2020/01/31 17:40:44.4	357.380	-0.310	-0.540	-0.590
2020/01/31 17:40:44.5	357.380	-0.340	-0.500	-0.600
2020/01/31 17:40:44.6	357.370	-0.370	-0.450	-0.610
2020/01/31 17:40:44.7	357.370	-0.390	-0.400	-0.620
2020/01/31 17:40:44.8	357.350	-0.420	-0.350	-0.630
2020/01/31 17:40:44.9	357.350	-0.450	-0.300	-0.640
2020/01/31 17:40:45.0	357.340	-0.470	-0.240	-0.650
2020/01/31 17:40:45.1	357.330	-0.490	-0.180	-0.650
2020/01/31 17:40:45.2	357.320	-0.510	-0.120	-0.650
2020/01/31 17:40:45.3	357.310	-0.530	-0.060	-0.650
2020/01/31 17:40:45.4	357.300	-0.550	-0.000	-0.650
2020/01/31 17:40:45.5	357.290	-0.570	0.060	-0.650
2020/01/31 17:40:45.6	357.270	-0.590	0.120	-0.640
2020/01/31 17:40:45.7	357.260	-0.600	0.170	-0.630
2020/01/31 17:40:45.8	357.240	-0.610	0.230	-0.620
2020/01/31 17:40:45.9	357.220	-0.620	0.280	-0.610
2020/01/31 17:40:46.0	357.200	-0.630	0.330	-0.590
2020/01/31 17:40:46.1	357.180	-0.640	0.370	-0.570
2020/01/31 17:40:46.2	357.160	-0.640	0.420	-0.550
2020/01/31 17:40:46.3	357.140	-0.640	0.460	-0.530
2020/01/31 17:40:46.4	357.110	-0.640	0.490	-0.500
2020/01/31 17:40:46.5	357.090	-0.640	0.520	-0.470
2020/01/31 17:40:46.6	357.060	-0.630	0.550	-0.430
2020/01/31 17:40:46.7	357.040	-0.620	0.570	-0.400
2020/01/31 17:40:46.8	357.010	-0.610	0.590	-0.370
2020/01/31 17:40:46.9	356.990	-0.600	0.600	-0.320
2020/01/31 17:40:47.0	356.960	-0.580	0.610	-0.280
2020/01/31 17:40:47.1	356.940	-0.560	0.610	-0.240
2020/01/31 17:40:47.2	356.910	-0.530	0.610	-0.190
2020/01/31 17:40:47.3	356.890	-0.500	0.600	-0.150
2020/01/31 17:40:47.4	356.870	-0.470	0.590	-0.100
2020/01/31 17:40:47.5	356.850	-0.430	0.570	-0.050
2020/01/31 17:40:47.6	356.830	-0.400	0.550	-0.000
2020/01/31 17:40:47.7	356.820	-0.350	0.520	0.040
2020/01/31 17:40:47.8	356.820	-0.310	0.490	0.090
2020/01/31 17:40:47.9	356.810	-0.260	0.450	0.140
2020/01/31 17:40:48.0	356.790	-0.210	0.410	0.190
2020/01/31 17:40:48.1	356.780	-0.160	0.370	0.240
2020/01/31 17:40:48.2	356.770	-0.110	0.330	0.290
2020/01/31 17:40:48.3	356.760	-0.050	0.280	0.340
2020/01/31 17:40:48.4	356.750	0.000	0.230	0.390
2020/01/31 17:40:48.5	356.750	0.060	0.170	0.430
2020/01/31 17:40:48.6	356.740	0.110	0.120	0.480
2020/01/31 17:40:48.7	356.730	0.170	0.060	0.520
2020/01/31 17:40:48.8	356.720	0.220	0.010	0.570
2020/01/31 17:40:48.9	356.710	0.270	-0.050	0.610
2020/01/31 17:40:49.0	356.710	0.330	-0.110	0.650
2020/01/31 17:40:49.1	356.700	0.370	-0.160	0.690
2020/01/31 17:40:49.2	356.690	0.420	-0.220	0.730
2020/01/31 17:40:49.3	356.680	0.460	-0.280	0.760
2020/01/31 17:40:49.4	356.670	0.500	-0.330	0.790
2020/01/31 17:40:49.5	356.660	0.530	-0.390	0.820
2020/01/31 17:40:49.6	356.650	0.570	-0.440	0.840
2020/01/31 17:40:49.7	356.640	0.590	-0.490	0.870
2020/01/31 17:40:49.8	356.640	0.610	-0.550	0.880
2020/01/31 17:40:49.9	356.630	0.630	-0.600	0.890
2020/01/31 17:40:50.0	356.620	0.640	-0.650	0.900
2020/01/31 17:40:50.1	356.610	0.650	-0.700	0.900
2020/01/31 17:40:50.2	356.600	0.650	-0.740	0.890
2020/01/31 17:40:50.3	356.590	0.650	-0.790	0.880
2020/01/31 17:40:50.4	356.580	0.650	-0.840	0.860
2020/01/31 17:40:50.5	356.580	0.640	-0.880	0.840
2020/01/31 17:40:50.6	356.570	0.620	-0.920	0.810
2020/01/31 17:40:50.7	356.570	0.610	-0.970	0.770
2020/01/31 17:40:50.8	356.580	0.580	-1.010	0.720
2020/01/31 17:40:50.9	356.590	0.560	-1.040	0.670
2020/01/31 17:40:51.0	356.600	0.530	-1.080	0.620
2020/01/31 17:40:51.1	356.610	0.500	-1.120	0.550
2020/01/31 17:40:51.2	356.620	0.470	-1.150	0.480
2020/01/31 17:40:51.3	356.640	0.430	-1.180	0.410
2020/01/31 17:40:51.4	356.660	0.390	-1.210	0.330
2020/01/31 17:40:51.5	356.690	0.350	-1.240	0.240
2020/01/31 17:40:51.6	356.720	0.310	-1.260	0.150
2020/01/31 17:40:51.7	356.750	0.270	-1.280	0.050
2020/01/31 17:40:51.8	356.780	0.230	-1.300	-0.050
2020/01/31 17:40:51.9	356.810	0.190	-1.310	-0.150
2020/01/31 17:40:52.0	356.850	0.150	-1.320	-0.250
2020/01/31 17:40:52.1	356.890	0.110	-1.320	-0.360
2020/01/31 17:40:52.2	356.930	0.070	-1.320	-0.460
2020/01/31 17:40:52.3	356.970	0.030	-1.310	-0.570
2020/01/31 17:40:52.4	357.020	-0.010	-1.300	-0.670
2020/01/31 17:40:52.5	357.060	-0.050	-1.280	-0.760
2020/01/31 17:40:52.6	357.100	-0.080	-1.260	-0.860
2020/01/31 17:40:52.7	357.130	-0.120	-1.230	-0.950
2020/01/31 17:40:52.8	357.170	-0.150	-1.190	-1.030
2020/01/31 17:40:52.9	357.210	-0.190	-1.150	-1.110
2020/01/31 17:40:53.0	357.240	-0.220	-1.100	-1.190
2020/01/31 17:40:53.1	357.260	-0.250	-1.040	-1.250
2020/01/31 17:40:53.2	357.290	-0.280	-0.980	-1.310
2020/01/31 17:40:53.3	357.310	-0.310	-0.920	-1.370
2020/01/31 17:40:53.4	357.330	-0.330	-0.850	-1.410
2020/01/31 17:40:53.5	357.340	-0.350	-0.780	-1.450
2020/01/31 17:40:53.6	357.360	-0.370	-0.700	-1.480
2020/01/31 17:40:53.7	357.360	-0.390	-0.620	-1.510
2020/01/31 17:40:53.8	357.350	-0.410	-0.550	-1.530
2020/01/31 17:40:53.9	357.360	-0.420	-0.470	-1.540
2020/01/31 17:40:54.0	357.360	-0.430	-0.380	-1.540
2020/01/31 17:40:54.1	357.360	-0.440	-0.300	-1.540
2020/01/31 17:40:54.2	357.350	-0.450	-0.220	-1.530
2020/01/31 17:40:54.3	357.350	-0.450	-0.140	-1.510
2020/01/31 17:40:54.4	357.340	-0.450	-0.050	-1.490
2020/01/31 17:40:54.5	357.330	-0.450	0.020	-1.470
2020/01/31 17:40:54.6	357.320	-0.450	0.100	-1.440
2020/01/31 17:40:54.7	357.320	-0.440	0.170	-1.410
2020/01/31 17:40:54.8	357.290	-0.430	0.240	-1.370
2020/01/31 17:40:54.9	357.280	-0.410	0.310	-1.330
2020/01/31 17:40:55.0	357.270	-0.390	0.370	-1.280
2020/01/31 17:40:55.1	357.260	-0.370	0.420	-1.240
2020/01/31 17:40:55.2	357.250	-0.350	0.470	-1.190
2020/01/31 17:40:55.3	357.230	-0.330	0.520	-1.130
2020/01/31 17:40:55.4	357.220	-0.300	0.560	-1.070
2020/01/31 17:40:55.5	357.210	-0.270	0.600	-1.010
2020/01/31 17:40:55.6	357.200	-0.230	0.630	-0.950
2020/01/31 17:40:55.7	357.190	-0.200	0.650	-0.890
2020/01/31 17:40:55.8	357.170	-0.160	0.670	-0.820
2020/01/31 17:40:55.9	357.160	-0.120	0.690	-0.740
2020/01/31 17:40:56.0	357.140	-0.090	0.710	-0.670
2020/01/31 17:40:56.1	357.130	-0.040	0.720	-0.590
2020/01/31 17:40:56.2	357.110	-0.000	0.730	-0.510
2020/01/31 17:40:56.3	357.090	0.040	0.730	-0.420
2020/01/31 17:40:56.4	357.070	0.080	0.740	-0.330
2020/01/31 17:40:56.5	357.050	0.120	0.740	-0.240
2020/01/31 17:40:56.6	357.030	0.160	0.740	-0.150
2020/01/31 17:40:56.7	357.010	0.200	0.740	-0.060
2020/01/31 17:40:56.8	356.990	0.240	0.730	0.040
2020/01/31 17:40:56.9	356.960	0.270	0.730	0.140
2020/01/31 17:40:57.0	356.930	0.310	0.720	0.230
2020/01/31 17:40:57.1	356.900	0.340	0.710	0.330
2020/01/31 17:40:57.2	356.870	0.370	0.700	0.420
2020/01/31 17:40:57.3	356.840	0.390	0.680	0.520
2020/01/31 17:40:57.4	356.800	0.410	0.670	0.610
2020/01/31 17:40:57.5	356.770	0.430	0.650	0.700
2020/01/31 17:40:57.6	356.730	0.450	0.630	0.780
2020/01/31 17:40:57.7	356.690	0.460	0.610	0.860
2020/01/31 17:40:57.8	356.660	0.460	0.590	0.940
2020/01/31 17:40:57.9	356.630	0.470	0.560	1.010
2020/01/31 17:40:58.0	356.590	0.460	0.530	1.070
2020/01/31 17:40:58.1	356.550	0.460	0.500	1.120
2020/01/31 17:40:58.2	356.510	0.450	0.470	1.160
2020/01/31 17:40:58.3	356.470	0.440	0.430	1.200
2020/01/31 17:40:58.4	356.430	0.420	0.390	1.230
2020/01/31 17:40:58.5	356.400	0.400	0.340	1.240
2020/01/31 17:40:58.6	356.370	0.370	0.300	1.250
2020/01/31 17:40:58.7	356.330	0.340	0.250	1.250
2020/01/31 17:40:58.8	356.310	0.310	0.200	1.240
2020/01/31 17:40:58.9	356.280	0.280	0.140	1.220
2020/01/31 17:40:59.0	356.260	0.240	0.080	1.200
2020/01/31 17:40:59.1	356.240	0.200	0.020	1.170
2020/01/31 17:40:59.2	356.230	0.160	-0.050	1.130
2020/01/31 17:40:59.3	356.210	0.120	-0.120	1.080
2020/01/31 17:40:59.4	356.200	0.070	-0.190	1.030
2020/01/31 17:40:59.5	356.200	0.030	-0.270	0.980
2020/01/31 17:40:59.6	356.190	-0.010	-0.340	0.910
2020/01/31 17:40:59.7	356.190	-0.050	-0.420	0.850
2020/01/31 17:40:59.8	356.200	-0.100	-0.500	0.780
2020/01/31 17:40:59.9	356.210	-0.140	-0.580	0.700
2020/01/31 17:41:00.0	356.220	-0.180	-0.660	0.620
2020/01/31 17:41:00.1	356.230	-0.220	-0.740	0.540
2020/01/31 17:41:00.2	356.250	-0.250	-0.820	0.460
2020/01/31 17:41:00.3	356.280	-0.290	-0.900	0.370
2020/01/31 17:41:00.4	356.300	-0.320	-0.980	0.280
2020/01/31 17:41:00.5	356.330	-0.350	-1.060	0.180
2020/01/31 17:41:00.6	356.370	-0.370	-1.140	0.080
2020/01/31 17:41:00.7	356.410	-0.400	-1.210	-0.020
2020/01/31 17:41:00.8	356.450	-0.420	-1.280	-0.120
2020/01/31 17:41:00.9	356.490	-0.440	-1.350	-0.230
2020/01/31 17:41:01.0	356.540	-0.450	-1.410	-0.330
2020/01/31 17:41:01.1	356.590	-0.470	-1.470	-0.440
2020/01/31 17:41:01.2	356.630	-0.480	-1.520	-0.540
2020/01/31 17:41:01.3	356.680	-0.480	-1.560	-0.650
2020/01/31 17:41:01.4	356.730	-0.490	-1.600	-0.750
2020/01/31 17:41:01.5	356.780	-0.490	-1.630	-0.840
2020/01/31 17:41:01.6	356.820	-0.490	-1.650	-0.940
2020/01/31 17:41:01.7	356.870	-0.490	-1.660	-1.030
2020/01/31 17:41:01.8	356.910	-0.490	-1.670	-1.120
2020/01/31 17:41:01.9	356.950	-0.480	-1.670	-1.200
2020/01/31 17:41:02.0	356.990	-0.480	-1.650	-1.270
2020/01/31 17:41:02.1	357.030	-0.470	-1.630	-1.340
2020/01/31 17:41:02.2	357.070	-0.460	-1.610	-1.400
2020/01/31 17:41:02.3	357.110	-0.450	-1.570	-1.450
2020/01/31 17:41:02.4	357.140	-0.440	-1.530	-1.490
2020/01/31 17:41:02.5	357.180	-0.430	-1.480	-1.530
2020/01/31 17:41:02.6	357.210	-0.410	-1.420	-1.560
2020/01/31 17:41:02.7	357.250	-0.400	-1.360	-1.580
2020/01/31 17:41:02.8	357.270	-0.380	-1.290	-1.600
2020/01/31 17:41:02.9	357.300	-0.370	-1.220	-1.610
2020/01/31 17:41:03.0	357.330	-0.350	-1.150	-1.610
2020/01/31 17:41:03.1	357.360	-0.340	-1.070	-1.610
2020/01/31 17:41:03.2	357.390	-0.320	-0.990	-1.610
2020/01/31 17:41:03.3	357.410	-0.300	-0.900	-1.600
2020/01/31 17:41:03.4	357.440	-0.280	-0.820	-1.580
2020/01/31 17:41:03.5	357.470	-0.260	-0.730	-1.560
2020/01/31 17:41:03.6	357.490	-0.240	-0.650	-1.530
2020/01/31 17:41:03.7	357.520	-0.220	-0.560	-1.500
2020/01/31 17:41:03.8	357.540	-0.200	-0.480	-1.470
2020/01/31 17:41:03.9	357.560	-0.180	-0.400	-1.430
2020/01/31 17:41:04.0	357.580	-0.160	-0.320	-1.390
2020/01/31 17:41:04.1	357.600	-0.140	-0.240	-1.350
2020/01/31 17:41:04.2	357.620	-0.110	-0.160	-1.300
2020/01/31 17:41:04.3	357.630	-0.090	-0.080	-1.250
2020/01/31 17:41:04.4	357.650	-0.070	-0.010	-1.200
2020/01/31 17:41:04.5	357.660	-0.040	0.060	-1.140
2020/01/31 17:41:04.6	357.660	-0.020	0.130	-1.080
2020/01/31 17:41:04.7	357.660	0.000	0.190	-1.020
2020/01/31 17:41:04.8	357.660	0.030	0.250	-0.950
2020/01/31 17:41:04.9	357.660	0.050	0.310	-0.890
2020/01/31 17:41:05.0	357.650	0.070	0.370	-0.820
2020/01/31 17:41:05.1	357.640	0.100	0.420	-0.740
2020/01/31 17:41:05.2	357.630	0.120	0.470	-0.670
2020/01/31 17:41:05.3	357.620	0.150	0.510	-0.590
2020/01/31 17:41:05.4	357.600	0.170	0.550	-0.500
2020/01/31 17:41:05.5	357.580	0.190	0.590	-0.420
2020/01/31 17:41:05.6	357.550	0.220	0.620	-0.340
2020/01/31 17:41:05.7	357.530	0.240	0.650	-0.250
2020/01/31 17:41:05.8	357.500	0.260	0.670	-0.150
2020/01/31 17:41:05.9	357.470	0.290	0.690	-0.070
2020/01/31 17:41:06.0	357.440	0.310	0.710	0.020
2020/01/31 17:41:06.1	357.400	0.330	0.720	0.110
2020/01/31 17:41:06.2	357.370	0.350	0.730	0.200
2020/01/31 17:41:06.3	357.330	0.370	0.730	0.290
2020/01/31 17:41:06.4	357.290	0.390	0.730	0.370
2020/01/31 17:41:06.5	357.250	0.420	0.720	0.460
2020/01/31 17:41:06.6	357.210	0.440	0.710	0.540
2020/01/31 17:41:06.7	357.170	0.450	0.700	0.610
2020/01/31 17:41:06.8	357.130	0.470	0.680	0.680
2020/01/31 17:41:06.9	357.090	0.490	0.650	0.750
2020/01/31 17:41:07.0	357.050	0.510	0.620	0.820
2020/01/31 17:41:07.1	357.010	0.530	0.590	0.880
2020/01/31 17:41:07.2	356.970	0.540	0.560	0.930
2020/01/31 17:41:07.3	356.930	0.560	0.530	0.980
2020/01/31 17:41:07.4	356.880	0.570	0.490	1.020
2020/01/31 17:41:07.5	356.840	0.580	0.450	1.060
2020/01/31 17:41:07.6	356.800	0.590	0.400	1.090
2020/01/31 17:41:07.7	356.760	0.600	0.360	1.120
2020/01/31 17:41:07.8	356.720	0.600	0.320	1.140
2020/01/31 17:41:07.9	356.680	0.610	0.270	1.150
2020/01/31 17:41:08.0	356.640	0.610	0.230	1.160
2020/01/31 17:41:08.1	356.600	0.610	0.190	1.160
2020/01/31 17:41:08.2	356.560	0.600	0.140	1.160
2020/01/31 17:41:08.3	356.520	0.600	0.100	1.150
2020/01/31 17:41:08.4	356.480	0.590	0.050	1.140
2020/01/31 17:41:08.5	356.450	0.580	0.010	1.110
2020/01/31 17:41:08.6	356.420	0.560	-0.040	1.090
2020/01/31 17:41:08.7	356.390	0.540	-0.080	1.050
2020/01/31 17:41:08.8	356.370	0.520	-0.140	1.010
2020/01/31 17:41:08.9	356.340	0.500	-0.180	0.960
2020/01/31 17:41:09.0	356.320	0.470	-0.230	0.910
2020/01/31 17:41:09.1	356.300	0.440	-0.270	0.860
2020/01/31 17:41:09.2	356.290	0.410	-0.320	0.790
2020/01/31 17:41:09.3	356.280	0.370	-0.370	0.730
2020/01/31 17:41:09.4	356.270	0.330	-0.410	0.650
2020/01/31 17:41:09.5	356.270	0.290	-0.460	0.580
2020/01/31 17:41:09.6	356.270	0.250	-0.510	0.500
2020/01/31 17:41:09.7	356.280	0.200	-0.550	0.410
2020/01/31 17:41:09.8	356.290	0.160	-0.590	0.320
2020/01/31 17:41:09.9	356.310	0.110	-0.640	0.230
2020/01/31 17:41:10.0	356.320	0.060	-0.690	0.130
2020/01/31 17:41:10.1	356.350	0.010	-0.730	0.040
2020/01/31 17:41:10.2	356.370	-0.040	-0.780	-0.070
2020/01/31 17:41:10.3	356.400	-0.090	-0.820	-0.170
2020/01/31 17:41:10.4	356.440	-0.140	-0.860	-0.280
2020/01/31 17:41:10.5	356.470	-0.190	-0.910	-0.390
2020/01/31 17:41:10.6	356.520	-0.240	-0.950	-0.500
2020/01/31 17:41:10.7	356.560	-0.290	-0.980	-0.610
2020/01/31 17:41:10.8	356.600	-0.330	-1.020	-0.730
2020/01/31 17:41:10.9	356.650	-0.380	-1.060	-0.840
2020/01/31 17:41:11.0	356.710	-0.420	-1.090	-0.950
2020/01/31 17:41:11.1	356.760	-0.470	-1.110	-1.060
2020/01/31 17:41:11.2	356.820	-0.510	-1.140	-1.170
2020/01/31 17:41:11.3	356.880	-0.550	-1.150	-1.280
2020/01/31 17:41:11.4	356.950	-0.580	-1.170	-1.390
2020/01/31 17:41:11.5	357.010	-0.610	-1.180	-1.490
2020/01/31 17:41:11.6	357.070	-0.640	-1.180	-1.580
2020/01/31 17:41:11.7	357.140	-0.670	-1.180	-1.670
2020/01/31 17:41:11.8	357.190	-0.690	-1.170	-1.760
2020/01/31 17:41:11.9	357.250	-0.710	-1.160	-1.830
2020/01/31 17:41:12.0	357.310	-0.720	-1.140	-1.900
2020/01/31 17:41:12.1	357.370	-0.730	-1.110	-1.950
2020/01/31 17:41:12.2	357.430	-0.740	-1.080	-2.000
2020/01/31 17:41:12.3	357.480	-0.740	-1.040	-2.030
2020/01/31 17:41:12.4	357.530	-0.740	-1.000	-2.060
2020/01/31 17:41:12.5	357.580	-0.740	-0.950	-2.080
2020/01/31 17:41:12.6	357.630	-0.730	-0.900	-2.080
2020/01/31 17:41:12.7	357.670	-0.710	-0.840	-2.080
2020/01/31 17:41:12.8	357.710	-0.700	-0.780	-2.060
2020/01/31 17:41:12.9	357.740	-0.680	-0.720	-2.040
2020/01/31 17:41:13.0	357.780	-0.660	-0.650	-2.010
2020/01/31 17:41:13.1	357.810	-0.630	-0.580	-1.970
2020/01/31 17:41:13.2	357.830	-0.600	-0.510	-1.930
2020/01/31 17:41:13.3	357.860	-0.570	-0.430	-1.880
2020/01/31 17:41:13.4	357.870	-0.540	-0.360	-1.820
2020/01/31 17:41:13.5	357.890	-0.510	-0.290	-1.760
2020/01/31 17:41:13.6	357.900	-0.470	-0.220	-1.690
2020/01/31 17:41:13.7	357.900	-0.440	-0.140	-1.620
2020/01/31 17:41:13.8	357.890	-0.400	-0.070	-1.540
2020/01/31 17:41:13.9	357.880	-0.360	-0.010	-1.460
2020/01/31 17:41:14.0	357.870	-0.320	0.050	-1.380
2020/01/31 17:41:14.1	357.860	-0.280	0.110	-1.290
2020/01/31 17:41:14.2	357.850	-0.250	0.170	-1.210
2020/01/31 17:41:14.3	357.830	-0.210	0.210	-1.120
2020/01/31 17:41:14.4	357.810	-0.170	0.260	-1.030
2020/01/31 17:41:14.5	357.790	-0.140	0.290	-0.950
2020/01/31 17:41:14.6	357.760	-0.100	0.320	-0.860
2020/01/31 17:41:14.7	357.740	-0.070	0.340	-0.780
2020/01/31 17:41:14.8	357.720	-0.030	0.350	-0.690
2020/01/31 17:41:14.9	357.690	-0.000	0.350	-0.610
2020/01/31 17:41:15.0	357.670	0.030	0.350	-0.530
2020/01/31 17:41:15.1	357.640	0.060	0.340	-0.460
2020/01/31 17:41:15.2	357.620	0.090	0.320	-0.390
2020/01/31 17:41:15.3	357.590	0.110	0.290	-0.320
2020/01/31 17:41:15.4	357.570	0.140	0.260	-0.260
2020/01/31 17:41:15.5	357.550	0.160	0.220	-0.200
2020/01/31 17:41:15.6	357.530	0.190	0.180	-0.150
2020/01/31 17:41:15.7	357.510	0.210	0.130	-0.100
2020/01/31 17:41:15.8	357.500	0.230	0.070	-0.060
2020/01/31 17:41:15.9	357.490	0.250	0.020	-0.020
2020/01/31 17:41:16.0	357.480	0.280	-0.040	0.020
2020/01/31 17:41:16.1	357.480	0.300	-0.100	0.050
2020/01/31 17:41:16.2	357.470	0.320	-0.160	0.080
2020/01/31 17:41:16.3	357.470	0.330	-0.230	0.100
2020/01/31 17:41:16.4	357.470	0.350	-0.290	0.120
2020/01/31 17:41:16.5	357.470	0.370	-0.350	0.130
2020/01/31 17:41:16.6	357.470	0.390	-0.400	0.140
2020/01/31 17:41:16.7	357.480	0.410	-0.450	0.150
2020/01/31 17:41:16.8	357.510	0.430	-0.500	0.150
2020/01/31 17:41:16.9	357.510	0.450	-0.550	0.160
2020/01/31 17:41:17.0	357.520	0.460	-0.590	0.160
2020/01/31 17:41:17.1	357.530	0.480	-0.620	0.160
2020/01/31 17:41:17.2	357.540	0.500	-0.650	0.160
2020/01/31 17:41:17.3	357.550	0.520	-0.660	0.160
2020/01/31 17:41:17.4	357.560	0.530	-0.680	0.160
2020/01/31 17:41:17.5	357.570	0.550	-0.680	0.160
2020/01/31 17:41:17.6	357.580	0.560	-0.680	0.160
2020/01/31 17:41:17.7	357.580	0.570	-0.670	0.160
2020/01/31 17:41:17.8	357.580	0.590	-0.650	0.160
2020/01/31 17:41:17.9	357.590	0.590	-0.620	0.160
2020/01/31 17:41:18.0	357.590	0.600	-0.590	0.160
2020/01/31 17:41:18.1	357.580	0.600	-0.550	0.170
2020/01/31 17:41:18.2	357.580	0.600	-0.500	0.170
2020/01/31 17:41:18.3	357.570	0.600	-0.450	0.170
2020/01/31 17:41:18.4	357.560	0.600	-0.400	0.170
2020/01/31 17:41:18.5	357.550	0.590	-0.340	0.180
2020/01/31 17:41:18.6	357.530	0.570	-0.270	0.180
2020/01/31 17:41:18.7	357.510	0.550	-0.210	0.180
2020/01/31 17:41:18.8	357.490	0.530	-0.140	0.180
2020/01/31 17:41:18.9	357.470	0.510	-0.070	0.180
2020/01/31 17:41:19.0	357.450	0.480	-0.000	0.180
2020/01/31 17:41:19.1	357.420	0.440	0.070	0.180
2020/01/31 17:41:19.2	357.400	0.400	0.140	0.180
2020/01/31 17:41:19.3	357.370	0.360	0.210	0.180
2020/01/31 17:41:19.4	357.340	0.320	0.270	0.170
2020/01/31 17:41:19.5	357.310	0.270	0.340	0.170
2020/01/31 17:41:19.6	357.270	0.220	0.400	0.160
2020/01/31 17:41:19.7	357.240	0.170	0.450	0.150
2020/01/31 17:41:19.8	357.210	0.110	0.500	0.140
2020/01/31 17:41:19.9	357.180	0.050	0.550	0.120
2020/01/31 17:41:20.0	357.150	-0.000	0.590	0.110
2020/01/31 17:41:20.1	357.110	-0.060	0.620	0.090
2020/01/31 17:41:20.2	357.080	-0.120	0.650	0.070
2020/01/31 17:41:20.3	357.050	-0.180	0.670	0.040
2020/01/31 17:41:20.4	357.020	-0.240	0.680	0.020
2020/01/31 17:41:20.5	357.000	-0.290	0.680	-0.010
2020/01/31 17:41:20.6	356.970	-0.350	0.680	-0.040
2020/01/31 17:41:20.7	356.950	-0.400	0.670	-0.080
2020/01/31 17:41:20.8	356.920	-0.450	0.650	-0.120
2020/01/31 17:41:20.9	356.900	-0.490	0.630	-0.150
2020/01/31 17:41:21.0	356.890	-0.530	0.590	-0.190
2020/01/31 17:41:21.1	356.870	-0.570	0.550	-0.230
2020/01/31 17:41:21.2	356.860	-0.600	0.510	-0.270
2020/01/31 17:41:21.3	356.850	-0.630	0.460	-0.310
2020/01/31 17:41:21.4	356.840	-0.650	0.400	-0.350
2020/01/31 17:41:21.5	356.840	-0.670	0.340	-0.390
2020/01/31 17:41:21.6	356.830	-0.680	0.270	-0.420
2020/01/31 17:41:21.7	356.830	-0.690	0.200	-0.460
2020/01/31 17:41:21.8	356.840	-0.690	0.130	-0.510
2020/01/31 17:41:21.9	356.840	-0.680	0.050	-0.550
2020/01/31 17:41:22.0	356.850	-0.670	-0.030	-0.590
2020/01/31 17:41:22.1	356.860	-0.660	-0.110	-0.630
2020/01/31 17:41:22.2	356.870	-0.640	-0.190	-0.670
2020/01/31 17:41:22.3	356.880	-0.610	-0.280	-0.710
2020/01/31 17:41:22.4	356.900	-0.580	-0.370	-0.760
2020/01/31 17:41:22.5	356.930	-0.550	-0.460	-0.800
2020/01/31 17:41:22.6	356.950	-0.510	-0.550	-0.850
2020/01/31 17:41:22.7	356.990	-0.470	-0.640	-0.900
2020/01/31 17:41:22.8	357.030	-0.420	-0.730	-0.950
2020/01/31 17:41:22.9	357.070	-0.380	-0.820	-1.010
2020/01/31 17:41:23.0	357.110	-0.330	-0.900	-1.060
2020/01/31 17:41:23.1	357.160	-0.270	-0.990	-1.110
2020/01/31 17:41:23.2	357.200	-0.220	-1.070	-1.160
2020/01/31 17:41:23.3	357.260	-0.170	-1.150	-1.210
2020/01/31 17:41:23.4	357.310	-0.110	-1.220	-1.260
2020/01/31 17:41:23.5	357.360	-0.060	-1.290	-1.310
2020/01/31 17:41:23.6	357.420	-0.000	-1.350	-1.350
2020/01/31 17:41:23.7	357.480	0.050	-1.410	-1.380
2020/01/31 17:41:23.8	357.530	0.100	-1.460	-1.420
2020/01/31 17:41:23.9	357.580	0.150	-1.500	-1.440
2020/01/31 17:41:24.0	357.630	0.190	-1.530	-1.460
2020/01/31 17:41:24.1	357.680	0.230	-1.560	-1.470
2020/01/31 17:41:24.2	357.730	0.270	-1.570	-1.480
2020/01/31 17:41:24.3	357.780	0.310	-1.580	-1.480
2020/01/31 17:41:24.4	357.830	0.330	-1.570	-1.480
2020/01/31 17:41:24.5	357.870	0.360	-1.560	-1.470
2020/01/31 17:41:24.6	357.900	0.380	-1.540	-1.450
2020/01/31 17:41:24.7	357.940	0.390	-1.510	-1.430
2020/01/31 17:41:24.8	357.950	0.400	-1.470	-1.400
2020/01/31 17:41:24.9	357.980	0.400	-1.420	-1.370
2020/01/31 17:41:25.0	358.000	0.400	-1.370	-1.340
2020/01/31 17:41:25.1	358.020	0.400	-1.300	-1.300
2020/01/31 17:41:25.2	358.040	0.380	-1.230	-1.260
2020/01/31 17:41:25.3	358.040	0.370	-1.160	-1.220
2020/01/31 17:41:25.4	358.050	0.350	-1.070	-1.180
2020/01/31 17:41:25.5	358.050	0.320	-0.980	-1.130
2020/01/31 17:41:25.6	358.050	0.290	-0.890	-1.080
2020/01/31 17:41:25.7	358.040	0.260	-0.790	-1.030
2020/01/31 17:41:25.8	358.020	0.220	-0.700	-0.980
2020/01/31 17:41:25.9	358.010	0.190	-0.590	-0.920
2020/01/31 17:41:26.0	357.990	0.150	-0.490	-0.870
2020/01/31 17:41:26.1	357.960	0.110	-0.380	-0.810
2020/01/31 17:41:26.2	357.940	0.060	-0.270	-0.760
2020/01/31 17:41:26.3	357.910	0.020	-0.170	-0.700
2020/01/31 17:41:26.4	357.880	-0.020	-0.060	-0.640
2020/01/31 17:41:26.5	357.840	-0.060	0.040	-0.580
2020/01/31 17:41:26.6	357.810	-0.100	0.140	-0.520
2020/01/31 17:41:26.7	357.770	-0.140	0.240	-0.460
2020/01/31 17:41:26.8	357.720	-0.180	0.330	-0.400
2020/01/31 17:41:26.9	357.680	-0.210	0.420	-0.340
2020/01/31 17:41:27.0	357.640	-0.250	0.500	-0.280
2020/01/31 17:41:27.1	357.600	-0.270	0.570	-0.220
2020/01/31 17:41:27.2	357.550	-0.300	0.640	-0.160
2020/01/31 17:41:27.3	357.510	-0.320	0.700	-0.100
2020/01/31 17:41:27.4	357.460	-0.340	0.760	-0.040
2020/01/31 17:41:27.5	357.420	-0.350	0.800	0.010
2020/01/31 17:41:27.6	357.370	-0.360	0.840	0.070
2020/01/31 17:41:27.7	357.330	-0.360	0.870	0.120
2020/01/31 17:41:27.8	357.300	-0.360	0.880	0.170
2020/01/31 17:41:27.9	357.260	-0.360	0.890	0.220
2020/01/31 17:41:28.0	357.220	-0.350	0.890	0.270
2020/01/31 17:41:28.1	357.180	-0.330	0.890	0.310
2020/01/31 17:41:28.2	357.140	-0.310	0.870	0.350
2020/01/31 17:41:28.3	357.100	-0.290	0.840	0.390
2020/01/31 17:41:28.4	357.060	-0.260	0.810	0.430
2020/01/31 17:41:28.5	357.030	-0.230	0.770	0.460
2020/01/31 17:41:28.6	356.990	-0.200	0.720	0.480
2020/01/31 17:41:28.7	356.960	-0.170	0.670	0.510
2020/01/31 17:41:28.8	356.940	-0.130	0.620	0.520
2020/01/31 17:41:28.9	356.910	-0.090	0.550	0.540
2020/01/31 17:41:29.0	356.890	-0.050	0.490	0.550
2020/01/31 17:41:29.1	356.860	-0.000	0.420	0.560
2020/01/31 17:41:29.2	356.840	0.040	0.350	0.560
2020/01/31 17:41:29.3	356.810	0.090	0.270	0.560
2020/01/31 17:41:29.4	356.790	0.130	0.200	0.560
2020/01/31 17:41:29.5	356.770	0.170	0.130	0.560
2020/01/31 17:41:29.6	356.750	0.220	0.050	0.550
2020/01/31 17:41:29.7	356.740	0.260	-0.020	0.540
2020/01/31 17:41:29.8	356.730	0.300	-0.090	0.530
2020/01/31 17:41:29.9	356.710	0.340	-0.160	0.510
2020/01/31 17:41:30.0	356.700	0.380	-0.230	0.500
2020/01/31 17:41:30.1	356.700	0.410	-0.290	0.480
2020/01/31 17:41:30.2	356.690	0.440	-0.350	0.460
2020/01/31 17:41:30.3	356.690	0.470	-0.410	0.440
2020/01/31 17:41:30.4	356.680	0.500	-0.470	0.420
2020/01/31 17:41:30.5	356.690	0.530	-0.520	0.390
2020/01/31 17:41:30.6	356.690	0.550	-0.570	0.360
2020/01/31 17:41:30.7	356.700	0.560	-0.610	0.330
2020/01/31 17:41:30.8	356.710	0.580	-0.650	0.300
2020/01/31 17:41:30.9	356.720	0.590	-0.690	0.270
2020/01/31 17:41:31.0	356.740	0.600	-0.720	0.230
2020/01/31 17:41:31.1	356.760	0.600	-0.750	0.190
2020/01/31 17:41:31.2	356.780	0.600	-0.780	0.150
2020/01/31 17:41:31.3	356.810	0.600	-0.800	0.110
2020/01/31 17:41:31.4	356.840	0.590	-0.820	0.070
2020/01/31 17:41:31.5	356.870	0.580	-0.830	0.020
2020/01/31 17:41:31.6	356.910	0.570	-0.840	-0.030
2020/01/31 17:41:31.7	356.940	0.550	-0.850	-0.070
2020/01/31 17:41:31.8	356.960	0.540	-0.850	-0.130
2020/01/31 17:41:31.9	357.000	0.510	-0.850	-0.180
2020/01/31 17:41:32.0	357.040	0.490	-0.840	-0.230
2020/01/31 17:41:32.1	357.090	0.460	-0.830	-0.280
2020/01/31 17:41:32.2	357.130	0.430	-0.820	-0.330
2020/01/31 17:41:32.3	357.180	0.400	-0.800	-0.370
2020/01/31 17:41:32.4	357.220	0.360	-0.780	-0.420
2020/01/31 17:41:32.5	357.260	0.320	-0.760	-0.470
2020/01/31 17:41:32.6	357.300	0.280	-0.730	-0.510
2020/01/31 17:41:32.7	357.340	0.240	-0.700	-0.560
2020/01/31 17:41:32.8	357.390	0.200	-0.670	-0.600
2020/01/31 17:41:32.9	357.420	0.150	-0.630	-0.640
2020/01/31 17:41:33.0	357.460	0.110	-0.590	-0.680
2020/01/31 17:41:33.1	357.490	0.060	-0.550	-0.710
2020/01/31 17:41:33.2	357.520	0.010	-0.500	-0.740
2020/01/31 17:41:33.3	357.540	-0.040	-0.450	-0.770
2020/01/31 17:41:33.4	357.570	-0.090	-0.400	-0.800
2020/01/31 17:41:33.5	357.590	-0.140	-0.350	-0.830
2020/01/31 17:41:33.6	357.610	-0.190	-0.300	-0.850
2020/01/31 17:41:33.7	357.620	-0.230	-0.240	-0.870
2020/01/31 17:41:33.8	357.640	-0.280	-0.190	-0.880
2020/01/31 17:41:33.9	357.650	-0.320	-0.130	-0.900
2020/01/31 17:41:34.0	357.650	-0.360	-0.080	-0.900
2020/01/31 17:41:34.1	357.660	-0.400	-0.020	-0.910
2020/01/31 17:41:34.2	357.660	-0.440	0.030	-0.910
2020/01/31 17:41:34.3	357.660	-0.470	0.080	-0.910
2020/01/31 17:41:34.4	357.660	-0.510	0.130	-0.910
2020/01/31 17:41:34.5	357.660	-0.530	0.170	-0.900
2020/01/31 17:41:34.6	357.660	-0.560	0.210	-0.890
2020/01/31 17:41:34.7	357.650	-0.580	0.250	-0.870
2020/01/31 17:41:34.8	357.630	-0.590	0.280	-0.850
2020/01/31 17:41:34.9	357.620	-0.600	0.310	-0.830
2020/01/31 17:41:35.0	357.610	-0.610	0.330	-0.810
2020/01/31 17:41:35.1	357.590	-0.620	0.350	-0.780
2020/01/31 17:41:35.2	357.580	-0.620	0.360	-0.750
2020/01/31 17:41:35.3	357.560	-0.610	0.360	-0.720
2020/01/31 17:41:35.4	357.540	-0.600	0.360	-0.690
2020/01/31 17:41:35.5	357.520	-0.590	0.350	-0.660
2020/01/31 17:41:35.6	357.500	-0.570	0.340	-0.630
2020/01/31 17:41:35.7	357.480	-0.550	0.320	-0.590
2020/01/31 17:41:35.8	357.470	-0.530	0.290	-0.560
2020/01/31 17:41:35.9	357.450	-0.510	0.260	-0.530
2020/01/31 17:41:36.0	357.430	-0.480	0.230	-0.490
2020/01/31 17:41:36.1	357.400	-0.450	0.190	-0.460
2020/01/31 17:41:36.2	357.380	-0.410	0.140	-0.420
2020/01/31 17:41:36.3	357.360	-0.380	0.090	-0.390
2020/01/31 17:41:36.4	357.330	-0.340	0.040	-0.360
2020/01/31 17:41:36.5	357.310	-0.300	-0.010	-0.320
2020/01/31 17:41:36.6	357.280	-0.270	-0.070	-0.290
2020/01/31 17:41:36.7	357.260	-0.230	-0.120	-0.260
2020/01/31 17:41:36.8	357.230	-0.190	-0.180	-0.230
2020/01/31 17:41:36.9	357.200	-0.150	-0.230	-0.210
2020/01/31 17:41:37.0	357.170	-0.120	-0.290	-0.180
2020/01/31 17:41:37.1	357.150	-0.080	-0.340	-0.160
2020/01/31 17:41:37.2	357.120	-0.050	-0.390	-0.140
2020/01/31 17:41:37.3	357.090	-0.010	-0.440	-0.120
2020/01/31 17:41:37.4	357.060	0.020	-0.490	-0.110
2020/01/31 17:41:37.5	357.030	0.050	-0.530	-0.090
2020/01/31 17:41:37.6	357.010	0.070	-0.570	-0.080
2020/01/31 17:41:37.7	356.980	0.100	-0.610	-0.070
2020/01/31 17:41:37.8	356.940	0.120	-0.640	-0.060
2020/01/31 17:41:37.9	356.910	0.130	-0.670	-0.060
2020/01/31 17:41:38.0	356.890	0.150	-0.690	-0.050
2020/01/31 17:41:38.1	356.870	0.160	-0.710	-0.050
2020/01/31 17:41:38.2	356.850	0.170	-0.720	-0.050
2020/01/31 17:41:38.3	356.840	0.180	-0.730	-0.050
2020/01/31 17:41:38.4	356.820	0.180	-0.740	-0.050
2020/01/31 17:41:38.5	356.810	0.190	-0.740	-0.060
2020/01/31 17:41:38.6	356.810	0.180	-0.740	-0.070
2020/01/31 17:41:38.7	356.800	0.180	-0.730	-0.080
2020/01/31 17:41:38.8	356.810	0.180	-0.720	-0.090
2020/01/31 17:41:38.9	356.810	0.170	-0.710	-0.100
2020/01/31 17:41:39.0	356.820	0.160	-0.700	-0.120
2020/01/31 17:41:39.1	356.820	0.160	-0.680	-0.130
2020/01/31 17:41:39.2	356.830	0.150	-0.660	-0.150
2020/01/31 17:41:39.3	356.840	0.140	-0.640	-0.170
2020/01/31 17:41:39.4	356.860	0.120	-0.610	-0.190
2020/01/31 17:41:39.5	356.870	0.110	-0.590	-0.210
2020/01/31 17:41:39.6	356.890	0.100	-0.560	-0.230
2020/01/31 17:41:39.7	356.910	0.090	-0.530	-0.240
2020/01/31 17:41:39.8	356.940	0.080	-0.500	-0.270
2020/01/31 17:41:39.9	356.960	0.070	-0.470	-0.290
2020/01/31 17:41:40.0	356.980	0.060	-0.430	-0.300
2020/01/31 17:41:40.1	357.010	0.050	-0.400	-0.320
2020/01/31 17:41:40.2	357.030	0.050	-0.360	-0.330
2020/01/31 17:41:40.3	357.050	0.040	-0.330	-0.340
2020/01/31 17:41:40.4	357.070	0.040	-0.290	-0.350
2020/01/31 17:41:40.5	357.090	0.040	-0.250	-0.350
2020/01/31 17:41:40.6	357.110	0.050	-0.220	-0.350
2020/01/31 17:41:40.7	357.130	0.050	-0.180	-0.350
2020/01/31 17:41:40.8	357.140	0.060	-0.150	-0.340
2020/01/31 17:41:40.9	357.160	0.070	-0.120	-0.330
2020/01/31 17:41:41.0	357.170	0.080	-0.090	-0.320
2020/01/31 17:41:41.1	357.190	0.090	-0.060	-0.300
2020/01/31 17:41:41.2	357.200	0.110	-0.030	-0.280
2020/01/31 17:41:41.3	357.210	0.120	-0.010	-0.260
2020/01/31 17:41:41.4	357.230	0.140	0.010	-0.230
2020/01/31 17:41:41.5	357.240	0.160	0.020	-0.210
2020/01/31 17:41:41.6	357.250	0.180	0.030	-0.190
2020/01/31 17:41:41.7	357.270	0.200	0.040	-0.160
2020/01/31 17:41:41.8	357.290	0.220	0.030	-0.140
2020/01/31 17:41:41.9	357.310	0.240	0.030	-0.120
2020/01/31 17:41:42.0	357.320	0.270	0.020	-0.110
2020/01/31 17:41:42.1	357.340	0.290	0.010	-0.090
2020/01/31 17:41:42.2	357.360	0.310	-0.000	-0.090
2020/01/31 17:41:42.3	357.380	0.330	-0.020	-0.080
2020/01/31 17:41:42.4	357.400	0.350	-0.050	-0.080
2020/01/31 17:41:42.5	357.420	0.360	-0.070	-0.080
2020/01/31 17:41:42.6	357.440	0.380	-0.100	-0.090
2020/01/31 17:41:42.7	357.460	0.390	-0.130	-0.100
2020/01/31 17:41:42.8	357.490	0.410	-0.160	-0.110
2020/01/31 17:41:42.9	357.520	0.420	-0.190	-0.130
2020/01/31 17:41:43.0	357.540	0.430	-0.220	-0.140
2020/01/31 17:41:43.1	357.560	0.430	-0.250	-0.160
2020/01/31 17:41:43.2	357.580	0.430	-0.280	-0.180
2020/01/31 17:41:43.3	357.600	0.440	-0.300	-0.200
2020/01/31 17:41:43.4	357.620	0.430	-0.330	-0.210
2020/01/31 17:41:43.5	357.630	0.430	-0.350	-0.230
2020/01/31 17:41:43.6	357.650	0.420	-0.370	-0.250
2020/01/31 17:41:43.7	357.670	0.410	-0.380	-0.260
2020/01/31 17:41:43.8	357.670	0.390	-0.390	-0.280
2020/01/31 17:41:43.9	357.680	0.380	-0.400	-0.290
2020/01/31 17:41:44.0	357.690	0.360	-0.400	-0.300
2020/01/31 17:41:44.1	357.700	0.330	-0.400	-0.310
2020/01/31 17:41:44.2	357.710	0.310	-0.400	-0.320
2020/01/31 17:41:44.3	357.720	0.280	-0.390	-0.330
2020/01/31 17:41:44.4	357.720	0.240	-0.390	-0.340
2020/01/31 17:41:44.5	357.720	0.210	-0.370	-0.350
2020/01/31 17:41:44.6	357.730	0.170	-0.360	-0.360
2020/01/31 17:41:44.7	357.730	0.130	-0.350	-0.370
2020/01/31 17:41:44.8	357.720	0.090	-0.330	-0.370
2020/01/31 17:41:44.9	357.720	0.050	-0.310	-0.380
2020/01/31 17:41:45.0	357.710	0.010	-0.300	-0.390
2020/01/31 17:41:45.1	357.710	-0.030	-0.280	-0.410
2020/01/31 17:41:45.2	357.700	-0.080	-0.260	-0.420
2020/01/31 17:41:45.3	357.690	-0.120	-0.240	-0.430
2020/01/31 17:41:45.4	357.690	-0.170	-0.220	-0.450
2020/01/31 17:41:45.5	357.680	-0.210	-0.200	-0.470
2020/01/31 17:41:45.6	357.670	-0.250	-0.180	-0.490
2020/01/31 17:41:45.7	357.660	-0.290	-0.160	-0.510
2020/01/31 17:41:45.8	357.640	-0.330	-0.140	-0.530
2020/01/31 17:41:45.9	357.630	-0.370	-0.120	-0.550
2020/01/31 17:41:46.0	357.620	-0.410	-0.110	-0.570
2020/01/31 17:41:46.1	357.600	-0.440	-0.090	-0.600
2020/01/31 17:41:46.2	357.590	-0.470	-0.070	-0.620
2020/01/31 17:41:46.3	357.580	-0.490	-0.060	-0.640
2020/01/31 17:41:46.4	357.560	-0.520	-0.050	-0.660
2020/01/31 17:41:46.5	357.540	-0.540	-0.030	-0.680
2020/01/31 17:41:46.6	357.530	-0.550	-0.020	-0.700
2020/01/31 17:41:46.7	357.510	-0.560	-0.010	-0.720
2020/01/31 17:41:46.8	357.500	-0.570	-0.000	-0.740
2020/01/31 17:41:46.9	357.490	-0.580	0.010	-0.750
2020/01/31 17:41:47.0	357.470	-0.570	0.010	-0.760
2020/01/31 17:41:47.1	357.460	-0.570	0.020	-0.770
2020/01/31 17:41:47.2	357.440	-0.560	0.020	-0.780
2020/01/31 17:41:47.3	357.430	-0.550	0.020	-0.790
2020/01/31 17:41:47.4	357.420	-0.530	0.020	-0.790
2020/01/31 17:41:47.5	357.400	-0.510	0.020	-0.790
2020/01/31 17:41:47.6	357.400	-0.490	0.020	-0.800
2020/01/31 17:41:47.7	357.390	-0.460	0.020	-0.790
2020/01/31 17:41:47.8	357.390	-0.430	0.010	-0.790
2020/01/31 17:41:47.9	357.380	-0.400	-0.000	-0.790
2020/01/31 17:41:48.0	357.380	-0.360	-0.010	-0.790
2020/01/31 17:41:48.1	357.380	-0.320	-0.020	-0.780
2020/01/31 17:41:48.2	357.380	-0.280	-0.040	-0.780
2020/01/31 17:41:48.3	357.390	-0.240	-0.050	-0.770
2020/01/31 17:41:48.4	357.390	-0.200	-0.070	-0.760
2020/01/31 17:41:48.5	357.400	-0.160	-0.080	-0.750
2020/01/31 17:41:48.6	357.410	-0.110	-0.100	-0.750
2020/01/31 17:41:48.7	357.420	-0.070	-0.120	-0.740
2020/01/31 17:41:48.8	357.430	-0.030	-0.140	-0.730
2020/01/31 17:41:48.9	357.440	0.010	-0.160	-0.710
2020/01/31 17:41:49.0	357.460	0.050	-0.180	-0.700
2020/01/31 17:41:49.1	357.470	0.090	-0.190	-0.690
2020/01/31 17:41:49.2	357.480	0.130	-0.210	-0.670
2020/01/31 17:41:49.3	357.490	0.160	-0.220	-0.650
2020/01/31 17:41:49.4	357.500	0.200	-0.240	-0.630
2020/01/31 17:41:49.5	357.500	0.220	-0.250	-0.600
2020/01/31 17:41:49.6	357.500	0.250	-0.250	-0.570
2020/01/31 17:41:49.7	357.500	0.270	-0.260	-0.540
2020/01/31 17:41:49.8	357.500	0.290	-0.260	-0.510
2020/01/31 17:41:49.9	357.490	0.300	-0.260	-0.470
2020/01/31 17:41:50.0	357.480	0.310	-0.250	-0.440
2020/01/31 17:41:50.1	357.470	0.320	-0.250	-0.400
2020/01/31 17:41:50.2	357.460	0.320	-0.240	-0.360
2020/01/31 17:41:50.3	357.440	0.320	-0.230	-0.320
2020/01/31 17:41:50.4	357.430	0.320	-0.220	-0.280
2020/01/31 17:41:50.5	357.410	0.310	-0.210	-0.250
2020/01/31 17:41:50.6	357.390	0.300	-0.200	-0.210
2020/01/31 17:41:50.7	357.370	0.290	-0.190	-0.170
2020/01/31 17:41:50.8	357.360	0.280	-0.190	-0.130
2020/01/31 17:41:50.9	357.340	0.260	-0.180	-0.100
2020/01/31 17:41:51.0	357.320	0.240	-0.170	-0.070
2020/01/31 17:41:51.1	357.300	0.220	-0.170	-0.040
2020/01/31 17:41:51.2	357.290	0.200	-0.170	-0.010
2020/01/31 17:41:51.3	357.280	0.180	-0.180	0.000
2020/01/31 17:41:51.4	357.270	0.160	-0.190	0.020
2020/01/31 17:41:51.5	357.270	0.140	-0.200	0.030
2020/01/31 17:41:51.6	357.270	0.120	-0.220	0.040
2020/01/31 17:41:51.7	357.270	0.100	-0.240	0.040
2020/01/31 17:41:51.8	357.280	0.080	-0.270	0.030
2020/01/31 17:41:51.9	357.290	0.070	-0.310	0.020
2020/01/31 17:41:52.0	357.310	0.060	-0.340	0.000
2020/01/31 17:41:52.1	357.330	0.050	-0.390	-0.020
2020/01/31 17:41:52.2	357.350	0.040	-0.430	-0.050
2020/01/31 17:41:52.3	357.370	0.030	-0.480	-0.080
2020/01/31 17:41:52.4	357.400	0.030	-0.530	-0.120
2020/01/31 17:41:52.5	357.420	0.030	-0.580	-0.160
2020/01/31 17:41:52.6	357.460	0.030	-0.630	-0.200
2020/01/31 17:41:52.7	357.490	0.030	-0.680	-0.250
2020/01/31 17:41:52.8	357.520	0.030	-0.730	-0.300
2020/01/31 17:41:52.9	357.550	0.040	-0.780	-0.350
2020/01/31 17:41:53.0	357.590	0.040	-0.820	-0.400
2020/01/31 17:41:53.1	357.620	0.050	-0.870	-0.450
2020/01/31 17:41:53.2	357.660	0.060	-0.910	-0.500
2020/01/31 17:41:53.3	357.700	0.070	-0.940	-0.560
2020/01/31 17:41:53.4	357.730	0.080	-0.970	-0.610
2020/01/31 17:41:53.5	357.770	0.080	-1.000	-0.660
2020/01/31 17:41:53.6	357.800	0.090	-1.010	-0.700
2020/01/31 17:41:53.7	357.830	0.100	-1.030	-0.750
2020/01/31 17:41:53.8	357.870	0.110	-1.040	-0.790
2020/01/31 17:41:53.9	357.900	0.120	-1.040	-0.830
2020/01/31 17:41:54.0	357.930	0.120	-1.040	-0.870
2020/01/31 17:41:54.1	357.960	0.130	-1.030	-0.900
2020/01/31 17:41:54.2	357.980	0.140	-1.010	-0.930
2020/01/31 17:41:54.3	358.010	0.140	-0.990	-0.950
2020/01/31 17:41:54.4	358.030	0.140	-0.960	-0.970
2020/01/31 17:41:54.5	358.060	0.150	-0.930	-0.990
2020/01/31 17:41:54.6	358.080	0.150	-0.890	-1.000
2020/01/31 17:41:54.7	358.100	0.150	-0.850	-1.000
2020/01/31 17:41:54.8	358.100	0.150	-0.800	-1.000
2020/01/31 17:41:54.9	358.120	0.140	-0.740	-0.990
2020/01/31 17:41:55.0	358.130	0.140	-0.680	-0.980
2020/01/31 17:41:55.1	358.150	0.130	-0.620	-0.970
2020/01/31 17:41:55.2	358.160	0.130	-0.560	-0.950
2020/01/31 17:41:55.3	358.170	0.120	-0.490	-0.930
2020/01/31 17:41:55.4	358.180	0.110	-0.420	-0.900
2020/01/31 17:41:55.5	358.180	0.100	-0.350	-0.870
2020/01/31 17:41:55.6	358.180	0.090	-0.270	-0.830
2020/01/31 17:41:55.7	358.180	0.080	-0.190	-0.800
2020/01/31 17:41:55.8	358.170	0.070	-0.120	-0.760
2020/01/31 17:41:55.9	358.160	0.060	-0.040	-0.710
2020/01/31 17:41:56.0	358.150	0.040	0.040	-0.670
2020/01/31 17:41:56.1	358.140	0.030	0.110	-0.620
2020/01/31 17:41:56.2	358.130	0.010	0.190	-0.570
2020/01/31 17:41:56.3	358.110	-0.000	0.270	-0.520
2020/01/31 17:41:56.4	358.090	-0.020	0.340	-0.470
2020/01/31 17:41:56.5	358.060	-0.030	0.410	-0.420
2020/01/31 17:41:56.6	358.040	-0.050	0.480	-0.360
2020/01/31 17:41:56.7	358.010	-0.070	0.550	-0.310
2020/01/31 17:41:56.8	357.980	-0.080	0.610	-0.250
2020/01/31 17:41:56.9	357.940	-0.100	0.670	-0.200
2020/01/31 17:41:57.0	357.910	-0.120	0.720	-0.150
2020/01/31 17:41:57.1	357.870	-0.140	0.770	-0.100
2020/01/31 17:41:57.2	357.830	-0.150	0.810	-0.050
2020/01/31 17:41:57.3	357.790	-0.170	0.840	-0.010
2020/01/31 17:41:57.4	357.740	-0.180	0.870	0.040
2020/01/31 17:41:57.5	357.700	-0.200	0.890	0.080
2020/01/31 17:41:57.6	357.660	-0.210	0.910	0.120
2020/01/31 17:41:57.7	357.610	-0.220	0.910	0.160
2020/01/31 17:41:57.8	357.570	-0.240	0.910	0.190
2020/01/31 17:41:57.9	357.530	-0.250	0.900	0.220
2020/01/31 17:41:58.0	357.480	-0.250	0.880	0.260
2020/01/31 17:41:58.1	357.440	-0.260	0.860	0.280
2020/01/31 17:41:58.2	357.400	-0.270	0.830	0.310
2020/01/31 17:41:58.3	357.360	-0.270	0.790	0.320
2020/01/31 17:41:58.4	357.320	-0.280	0.740	0.340
2020/01/31 17:41:58.5	357.290	-0.280	0.680	0.350
2020/01/31 17:41:58.6	357.250	-0.280	0.620	0.350
2020/01/31 17:41:58.7	357.220	-0.270	0.550	0.350
2020/01/31 17:41:58.8	357.200	-0.270	0.480	0.350
2020/01/31 17:41:58.9	357.180	-0.260	0.400	0.340
2020/01/31 17:41:59.0	357.150	-0.250	0.310	0.320
2020/01/31 17:41:59.1	357.130	-0.240	0.220	0.300
2020/01/31 17:41:59.2	357.120	-0.230	0.120	0.270
2020/01/31 17:41:59.3	357.100	-0.210	0.030	0.240
2020/01/31 17:41:59.4	357.100	-0.200	-0.080	0.210
2020/01/31 17:41:59.5	357.090	-0.180	-0.180	0.170
2020/01/31 17:41:59.6	357.090	-0.160	-0.280	0.130
2020/01/31 17:41:59.7	357.090	-0.140	-0.390	0.080
2020/01/31 17:41:59.8	357.110	-0.120	-0.490	0.030
2020/01/31 17:41:59.9	357.110	-0.090	-0.590	-0.020
2020/01/31 17:42:00.0	357.120	-0.070	-0.690	-0.070
2020/01/31 17:42:00.1	357.130	-0.040	-0.780	-0.120
2020/01/31 17:42:00.2	357.150	-0.020	-0.870	-0.160
2020/01/31 17:42:00.3	357.160	0.010	-0.950	-0.210
2020/01/31 17:42:00.4	357.180	0.040	-1.020	-0.260
2020/01/31 17:42:00.5	357.200	0.060	-1.090	-0.300
2020/01/31 17:42:00.6	357.220	0.090	-1.150	-0.350
2020/01/31 17:42:00.7	357.250	0.120	-1.200	-0.390
2020/01/31 17:42:00.8	357.270	0.140	-1.240	-0.430
2020/01/31 17:42:00.9	357.290	0.170	-1.280	-0.470
2020/01/31 17:42:01.0	357.320	0.190	-1.310	-0.510
2020/01/31 17:42:01.1	357.350	0.210	-1.320	-0.540
2020/01/31 17:42:01.2	357.380	0.230	-1.330	-0.580
2020/01/31 17:42:01.3	357.410	0.250	-1.330	-0.610
2020/01/31 17:42:01.4	357.440	0.270	-1.320	-0.640
2020/01/31 17:42:01.5	357.470	0.280	-1.300	-0.660
2020/01/31 17:42:01.6	357.500	0.290	-1.280	-0.690
2020/01/31 17:42:01.7	357.530	0.300	-1.240	-0.700
2020/01/31 17:42:01.8	357.550	0.300	-1.210	-0.720
2020/01/31 17:42:01.9	357.580	0.310	-1.160	-0.740
2020/01/31 17:42:02.0	357.610	0.310	-1.110	-0.750
2020/01/31 17:42:02.1	357.630	0.300	-1.050	-0.750
2020/01/31 17:42:02.2	357.660	0.300	-0.990	-0.750
2020/01/31 17:42:02.3	357.680	0.290	-0.920	-0.750
2020/01/31 17:42:02.4	357.700	0.280	-0.850	-0.750
2020/01/31 17:42:02.5	357.720	0.260	-0.770	-0.740
2020/01/31 17:42:02.6	357.740	0.240	-0.690	-0.720
2020/01/31 17:42:02.7	357.750	0.220	-0.620	-0.710
2020/01/31 17:42:02.8	357.760	0.200	-0.540	-0.690
2020/01/31 17:42:02.9	357.780	0.170	-0.450	-0.670
2020/01/31 17:42:03.0	357.780	0.140	-0.370	-0.650
2020/01/31 17:42:03.1	357.790	0.110	-0.300	-0.620
2020/01/31 17:42:03.2	357.800	0.070	-0.220	-0.600
2020/01/31 17:42:03.3	357.800	0.040	-0.140	-0.570
2020/01/31 17:42:03.4	357.800	0.000	-0.070	-0.540
2020/01/31 17:42:03.5	357.800	-0.030	-0.000	-0.510
2020/01/31 17:42:03.6	357.800	-0.070	0.060	-0.480
2020/01/31 17:42:03.7	357.790	-0.110	0.120	-0.450
2020/01/31 17:42:03.8	357.790	-0.150	0.180	-0.420
2020/01/31 17:42:03.9	357.790	-0.180	0.230	-0.390
2020/01/31 17:42:04.0	357.780	-0.220	0.270	-0.360
2020/01/31 17:42:04.1	357.770	-0.250	0.300	-0.340
2020/01/31 17:42:04.2	357.770	-0.290	0.330	-0.320
2020/01/31 17:42:04.3	357.760	-0.320	0.350	-0.290
2020/01/31 17:42:04.4	357.760	-0.340	0.360	-0.280
2020/01/31 17:42:04.5	357.750	-0.370	0.360	-0.260
2020/01/31 17:42:04.6	357.750	-0.390	0.360	-0.250
2020/01/31 17:42:04.7	357.750	-0.410	0.350	-0.240
2020/01/31 17:42:04.8	357.770	-0.420	0.330	-0.230
2020/01/31 17:42:04.9	357.770	-0.430	0.300	-0.230
2020/01/31 17:42:05.0	357.770	-0.440	0.270	-0.230
2020/01/31 17:42:05.1	357.780	-0.440	0.230	-0.230
2020/01/31 17:42:05.2	357.790	-0.430	0.180	-0.230
2020/01/31 17:42:05.3	357.800	-0.420	0.130	-0.240
2020/01/31 17:42:05.4	357.810	-0.410	0.070	-0.240
2020/01/31 17:42:05.5	357.820	-0.390	0.010	-0.250
2020/01/31 17:42:05.6	357.830	-0.370	-0.050	-0.260
2020/01/31 17:42:05.7	357.840	-0.340	-0.110	-0.270
2020/01/31 17:42:05.8	357.850	-0.310	-0.180	-0.280
2020/01/31 17:42:05.9	357.870	-0.280	-0.240	-0.290
2020/01/31 17:42:06.0	357.880	-0.240	-0.310	-0.300
2020/01/31 17:42:06.1	357.900	-0.200	-0.370	-0.310
2020/01/31 17:42:06.2	357.910	-0.160	-0.430	-0.310
2020/01/31 17:42:06.3	357.930	-0.120	-0.490	-0.320
2020/01/31 17:42:06.4	357.940	-0.070	-0.540	-0.320
2020/01/31 17:42:06.5	357.960	-0.020	-0.590	-0.320
2020/01/31 17:42:06.6	357.970	0.020	-0.630	-0.320
2020/01/31 17:42:06.7	357.990	0.070	-0.660	-0.320
2020/01/31 17:42:06.8	357.980	0.120	-0.690	-0.320
2020/01/31 17:42:06.9	357.990	0.170	-0.710	-0.320
2020/01/31 17:42:07.0	358.000	0.210	-0.730	-0.310
2020/01/31 17:42:07.1	358.010	0.260	-0.730	-0.310
2020/01/31 17:42:07.2	358.010	0.300	-0.730	-0.300
2020/01/31 17:42:07.3	358.010	0.340	-0.730	-0.280
2020/01/31 17:42:07.4	358.020	0.370	-0.710	-0.270
2020/01/31 17:42:07.5	358.010	0.410	-0.690	-0.250
2020/01/31 17:42:07.6	358.010	0.440	-0.650	-0.230
2020/01/31 17:42:07.7	358.000	0.460	-0.620	-0.200
2020/01/31 17:42:07.8	357.990	0.480	-0.570	-0.180
2020/01/31 17:42:07.9	357.980	0.500	-0.520	-0.150
2020/01/31 17:42:08.0	357.960	0.510	-0.470	-0.110
2020/01/31 17:42:08.1	357.950	0.520	-0.410	-0.070
2020/01/31 17:42:08.2	357.930	0.530	-0.340	-0.040
2020/01/31 17:42:08.3	357.910	0.530	-0.280	0.000
2020/01/31 17:42:08.4	357.880	0.520	-0.210	0.040
2020/01/31 17:42:08.5	357.860	0.510	-0.140	0.090
2020/01/31 17:42:08.6	357.840	0.500	-0.070	0.130
2020/01/31 17:42:08.7	357.810	0.480	0.000	0.170
2020/01/31 17:42:08.8	357.770	0.460	0.070	0.210
2020/01/31 17:42:08.9	357.750	0.440	0.130	0.240
2020/01/31 17:42:09.0	357.730	0.410	0.190	0.280
2020/01/31 17:42:09.1	357.710	0.380	0.250	0.310
2020/01/31 17:42:09.2	357.690	0.350	0.300	0.330
2020/01/31 17:42:09.3	357.670	0.320	0.350	0.350
2020/01/31 17:42:09.4	357.650	0.280	0.390	0.370
2020/01/31 17:42:09.5	357.630	0.250	0.430	0.380
2020/01/31 17:42:09.6	357.620	0.210	0.460	0.380
2020/01/31 17:42:09.7	357.600	0.170	0.480	0.380
2020/01/31 17:42:09.8	357.590	0.130	0.490	0.370
2020/01/31 17:42:09.9	357.580	0.100	0.500	0.360
2020/01/31 17:42:10.0	357.570	0.060	0.500	0.340
2020/01/31 17:42:10.1	357.560	0.030	0.500	0.320
2020/01/31 17:42:10.2	357.550	-0.010	0.490	0.290
2020/01/31 17:42:10.3	357.540	-0.040	0.470	0.260
2020/01/31 17:42:10.4	357.530	-0.070	0.450	0.220
2020/01/31 17:42:10.5	357.520	-0.100	0.420	0.180
2020/01/31 17:42:10.6	357.510	-0.120	0.380	0.140
2020/01/31 17:42:10.7	357.500	-0.150	0.350	0.100
2020/01/31 17:42:10.8	357.500	-0.170	0.310	0.050
2020/01/31 17:42:10.9	357.490	-0.190	0.260	0.010
2020/01/31 17:42:11.0	357.470	-0.200	0.210	-0.030
2020/01/31 17:42:11.1	357.460	-0.210	0.160	-0.070
2020/01/31 17:42:11.2	357.450	-0.220	0.110	-0.110
2020/01/31 17:42:11.3	357.440	-0.230	0.060	-0.150
2020/01/31 17:42:11.4	357.420	-0.240	0.010	-0.190
2020/01/31 17:42:11.5	357.410	-0.240	-0.050	-0.230
2020/01/31 17:42:11.6	357.400	-0.240	-0.100	-0.260
2020/01/31 17:42:11.7	357.380	-0.240	-0.150	-0.300
2020/01/31 17:42:11.8	357.360	-0.240	-0.210	-0.330
2020/01/31 17:42:11.9	357.350	-0.240	-0.260	-0.370
2020/01/31 17:42:12.0	357.330	-0.230	-0.310	-0.400
2020/01/31 17:42:12.1	357.320	-0.220	-0.360	-0.430
2020/01/31 17:42:12.2	357.310	-0.210	-0.410	-0.450
2020/01/31 17:42:12.3	357.300	-0.210	-0.460	-0.480
2020/01/31 17:42:12.4	357.290	-0.190	-0.500	-0.500
2020/01/31 17:42:12.5	357.280	-0.180	-0.550	-0.530
2020/01/31 17:42:12.6	357.270	-0.170	-0.590	-0.550
2020/01/31 17:42:12.7	357.260	-0.160	-0.630	-0.570
2020/01/31 17:42:12.8	357.250	-0.140	-0.670	-0.590
2020/01/31 17:42:12.9	357.240	-0.130	-0.700	-0.610
2020/01/31 17:42:13.0	357.240	-0.120	-0.740	-0.630
2020/01/31 17:42:13.1	357.240	-0.100	-0.770	-0.640
2020/01/31 17:42:13.2	357.250	-0.090	-0.800	-0.660
2020/01/31 17:42:13.3	357.250	-0.070	-0.830	-0.680
2020/01/31 17:42:13.4	357.260	-0.060	-0.860	-0.700
2020/01/31 17:42:13.5	357.270	-0.050	-0.880	-0.710
2020/01/31 17:42:13.6	357.290	-0.030	-0.900	-0.720
2020/01/31 17:42:13.7	357.300	-0.020	-0.920	-0.740
2020/01/31 17:42:13.8	357.330	-0.000	-0.930	-0.750
2020/01/31 17:42:13.9	357.360	0.010	-0.950	-0.760
2020/01/31 17:42:14.0	357.380	0.020	-0.960	-0.770
2020/01/31 17:42:14.1	357.420	0.040	-0.960	-0.780
2020/01/31 17:42:14.2	357.450	0.050	-0.970	-0.790
2020/01/31 17:42:14.3	357.490	0.060	-0.970	-0.790
2020/01/31 17:42:14.4	357.530	0.070	-0.960	-0.800
2020/01/31 17:42:14.5	357.570	0.080	-0.960	-0.800
2020/01/31 17:42:14.6	357.620	0.080	-0.950	-0.810
2020/01/31 17:42:14.7	357.660	0.090	-0.940	-0.810
2020/01/31 17:42:14.8	357.710	0.100	-0.920	-0.800
2020/01/31 17:42:14.9	357.760	0.100	-0.900	-0.800
2020/01/31 17:42:15.0	357.810	0.100	-0.880	-0.790
2020/01/31 17:42:15.1	357.860	0.100	-0.850	-0.780
2020/01/31 17:42:15.2	357.910	0.100	-0.820	-0.770
2020/01/31 17:42:15.3	357.960	0.090	-0.790	-0.760
2020/01/31 17:42:15.4	358.010	0.090	-0.750	-0.740
2020/01/31 17:42:15.5	358.050	0.080	-0.710	-0.720
2020/01/31 17:42:15.6	358.100	0.070	-0.660	-0.700
2020/01/31 17:42:15.7	358.140	0.050	-0.620	-0.670
2020/01/31 17:42:15.8	358.170	0.040	-0.570	-0.650
2020/01/31 17:42:15.9	358.210	0.020	-0.520	-0.620
2020/01/31 17:42:16.0	358.240	0.000	-0.460	-0.580
2020/01/31 17:42:16.1	358.270	-0.020	-0.410	-0.550
2020/01/31 17:42:16.2	358.290	-0.040	-0.350	-0.510
2020/01/31 17:42:16.3	358.310	-0.060	-0.290	-0.470
2020/01/31 17:42:16.4	358.320	-0.090	-0.230	-0.430
2020/01/31 17:42:16.5	358.330	-0.110	-0.170	-0.390
2020/01/31 17:42:16.6	358.340	-0.140	-0.120	-0.350
2020/01/31 17:42:16.7	358.340	-0.160	-0.060	-0.300
2020/01/31 17:42:16.8	358.340	-0.190	-0.010	-0.260
2020/01/31 17:42:16.9	358.330	-0.210	0.040	-0.210
2020/01/31 17:42:17.0	358.320	-0.240	0.090	-0.170
2020/01/31 17:42:17.1	358.310	-0.260	0.130	-0.120
2020/01/31 17:42:17.2	358.300	-0.280	0.170	-0.080
2020/01/31 17:42:17.3	358.290	-0.300	0.210	-0.040
2020/01/31 17:42:17.4	358.270	-0.320	0.250	0.000
2020/01/31 17:42:17.5	358.250	-0.330	0.270	0.040
2020/01/31 17:42:17.6	358.230	-0.350	0.300	0.080
2020/01/31 17:42:17.7	358.210	-0.360	0.320	0.110
2020/01/31 17:42:17.8	358.200	-0.360	0.330	0.140
2020/01/31 17:42:17.9	358.180	-0.370	0.340	0.160
2020/01/31 17:42:18.0	358.150	-0.370	0.340	0.190
2020/01/31 17:42:18.1	358.130	-0.370	0.340	0.210
2020/01/31 17:42:18.2	358.110	-0.360	0.330	0.230
2020/01/31 17:42:18.3	358.090	-0.350	0.310	0.240
2020/01/31 17:42:18.4	358.070	-0.340	0.290	0.250
2020/01/31 17:42:18.5	358.050	-0.320	0.270	0.260
2020/01/31 17:42:18.6	358.030	-0.300	0.250	0.260
2020/01/31 17:42:18.7	358.010	-0.280	0.210	0.270
2020/01/31 17:42:18.8	357.980	-0.250	0.180	0.260
2020/01/31 17:42:18.9	357.960	-0.220	0.150	0.260
2020/01/31 17:42:19.0	357.930	-0.190	0.110	0.250
2020/01/31 17:42:19.1	357.910	-0.150	0.070	0.240
2020/01/31 17:42:19.2	357.880	-0.110	0.030	0.230
2020/01/31 17:42:19.3	357.860	-0.070	-0.010	0.220
2020/01/31 17:42:19.4	357.830	-0.030	-0.050	0.200
2020/01/31 17:42:19.5	357.810	0.020	-0.090	0.190
2020/01/31 17:42:19.6	357.780	0.060	-0.130	0.180
2020/01/31 17:42:19.7	357.750	0.110	-0.160	0.160
2020/01/31 17:42:19.8	357.720	0.150	-0.190	0.140
2020/01/31 17:42:19.9	357.690	0.200	-0.220	0.130
2020/01/31 17:42:20.0	357.660	0.240	-0.250	0.110
2020/01/31 17:42:20.1	357.640	0.280	-0.270	0.100
2020/01/31 17:42:20.2	357.610	0.330	-0.290	0.080
2020/01/31 17:42:20.3	357.590	0.370	-0.310	0.070
2020/01/31 17:42:20.4	357.560	0.400	-0.320	0.050
2020/01/31 17:42:20.5	357.540	0.440	-0.330	0.040
2020/01/31 17:42:20.6	357.520	0.470	-0.330	0.030
2020/01/31 17:42:20.7	357.510	0.500	-0.330	0.020
2020/01/31 17:42:20.8	357.490	0.530	-0.330	0.000
2020/01/31 17:42:20.9	357.480	0.550	-0.320	-0.010
2020/01/31 17:42:21.0	357.460	0.570	-0.310	-0.020
2020/01/31 17:42:21.1	357.450	0.580	-0.290	-0.030
2020/01/31 17:42:21.2	357.440	0.590	-0.280	-0.040
2020/01/31 17:42:21.3	357.420	0.590	-0.260	-0.050
2020/01/31 17:42:21.4	357.410	0.590	-0.240	-0.060
2020/01/31 17:42:21.5	357.400	0.590	-0.210	-0.060
2020/01/31 17:42:21.6	357.390	0.580	-0.190	-0.070
2020/01/31 17:42:21.7	357.380	0.570	-0.160	-0.080
2020/01/31 17:42:21.8	357.380	0.550	-0.140	-0.080
2020/01/31 17:42:21.9	357.370	0.530	-0.120	-0.090
2020/01/31 17:42:22.0	357.370	0.510	-0.090	-0.100
2020/01/31 17:42:22.1	357.360	0.480	-0.070	-0.110
2020/01/31 17:42:22.2	357.350	0.450	-0.050	-0.110
2020/01/31 17:42:22.3	357.340	0.410	-0.030	-0.120
2020/01/31 17:42:22.4	357.330	0.380	-0.010	-0.130
2020/01/31 17:42:22.5	357.320	0.340	-0.000	-0.140
2020/01/31 17:42:22.6	357.310	0.290	0.010	-0.150
2020/01/31 17:42:22.7	357.310	0.250	0.020	-0.160
2020/01/31 17:42:22.8	357.310	0.210	0.020	-0.170
2020/01/31 17:42:22.9	357.310	0.170	0.020	-0.180
2020/01/31 17:42:23.0	357.300	0.120	0.020	-0.190
2020/01/31 17:42:23.1	357.300	0.080	0.010	-0.210
2020/01/31 17:42:23.2	357.300	0.040	0.000	-0.220
2020/01/31 17:42:23.3	357.300	-0.010	-0.010	-0.240
2020/01/31 17:42:23.4	357.300	-0.050	-0.020	-0.260
2020/01/31 17:42:23.5	357.310	-0.080	-0.040	-0.280
2020/01/31 17:42:23.6	357.320	-0.120	-0.060	-0.310
2020/01/31 17:42:23.7	357.330	-0.150	-0.080	-0.330
2020/01/31 17:42:23.8	357.340	-0.180	-0.100	-0.360
2020/01/31 17:42:23.9	357.360	-0.210	-0.130	-0.390
2020/01/31 17:42:24.0	357.380	-0.230	-0.160	-0.420
2020/01/31 17:42:24.1	357.400	-0.250	-0.190	-0.450
2020/01/31 17:42:24.2	357.420	-0.270	-0.220	-0.480
2020/01/31 17:42:24.3	357.450	-0.280	-0.250	-0.520
2020/01/31 17:42:24.4	357.480	-0.290	-0.290	-0.550
2020/01/31 17:42:24.5	357.500	-0.290	-0.320	-0.590
2020/01/31 17:42:24.6	357.530	-0.290	-0.350	-0.620
2020/01/31 17:42:24.7	357.560	-0.290	-0.390	-0.650
2020/01/31 17:42:24.8	357.590	-0.290	-0.420	-0.690
2020/01/31 17:42:24.9	357.620	-0.280	-0.450	-0.710
2020/01/31 17:42:25.0	357.640	-0.270	-0.480	-0.740
2020/01/31 17:42:25.1	357.670	-0.260	-0.510	-0.770
2020/01/31 17:42:25.2	357.700	-0.250	-0.540	-0.790
2020/01/31 17:42:25.3	357.720	-0.240	-0.570	-0.810
2020/01/31 17:42:25.4	357.740	-0.220	-0.590	-0.830
2020/01/31 17:42:25.5	357.770	-0.200	-0.610	-0.840
2020/01/31 17:42:25.6	357.790	-0.190	-0.630	-0.850
2020/01/31 17:42:25.7	357.800	-0.170	-0.650	-0.860
2020/01/31 17:42:25.8	357.810	-0.160	-0.660	-0.870
2020/01/31 17:42:25.9	357.830	-0.140	-0.680	-0.870
2020/01/31 17:42:26.0	357.840	-0.130	-0.690	-0.880
2020/01/31 17:42:26.1	357.850	-0.110	-0.690	-0.880
2020/01/31 17:42:26.2	357.860	-0.100	-0.700	-0.880
2020/01/31 17:42:26.3	357.870	-0.090	-0.710	-0.880
2020/01/31 17:42:26.4	357.870	-0.080	-0.710	-0.870
2020/01/31 17:42:26.5	357.880	-0.080	-0.710	-0.870
2020/01/31 17:42:26.6	357.880	-0.070	-0.710	-0.860
2020/01/31 17:42:26.7	357.890	-0.070	-0.700	-0.860
2020/01/31 17:42:26.8	357.890	-0.060	-0.700	-0.850
2020/01/31 17:42:26.9	357.890	-0.060	-0.690	-0.840
2020/01/31 17:42:27.0	357.890	-0.060	-0.680	-0.840
2020/01/31 17:42:27.1	357.890	-0.070	-0.670	-0.830
2020/01/31 17:42:27.2	357.890	-0.070	-0.660	-0.820
2020/01/31 17:42:27.3	357.890	-0.070	-0.640	-0.810
2020/01/31 17:42:27.4	357.890	-0.080	-0.630	-0.800
2020/01/31 17:42:27.5	357.890	-0.080	-0.610	-0.790
2020/01/31 17:42:27.6	357.890	-0.090	-0.590	-0.780
2020/01/31 17:42:27.7	357.890	-0.100	-0.560	-0.760
2020/01/31 17:42:27.8	357.880	-0.110	-0.540	-0.750
2020/01/31 17:42:27.9	357.870	-0.110	-0.520	-0.730
2020/01/31 17:42:28.0	357.860	-0.120	-0.490	-0.710
2020/01/31 17:42:28.1	357.850	-0.130	-0.460	-0.680
2020/01/31 17:42:28.2	357.840	-0.130	-0.430	-0.650
2020/01/31 17:42:28.3	357.830	-0.140	-0.400	-0.620
2020/01/31 17:42:28.4	357.810	-0.140	-0.370	-0.590
2020/01/31 17:42:28.5	357.790	-0.140	-0.340	-0.550
2020/01/31 17:42:28.6	357.770	-0.140	-0.300	-0.510
2020/01/31 17:42:28.7	357.750	-0.150	-0.270	-0.470
2020/01/31 17:42:28.8	357.730	-0.150	-0.240	-0.430
2020/01/31 17:42:28.9	357.710	-0.140	-0.200	-0.390
2020/01/31 17:42:29.0	357.680	-0.140	-0.170	-0.350
2020/01/31 17:42:29.1	357.660	-0.140	-0.140	-0.310
2020/01/31 17:42:29.2	357.640	-0.130	-0.110	-0.270
2020/01/31 17:42:29.3	357.620	-0.130	-0.080	-0.220
2020/01/31 17:42:29.4	357.600	-0.120	-0.050	-0.180
2020/01/31 17:42:29.5	357.570	-0.110	-0.020	-0.140
2020/01/31 17:42:29.6	357.550	-0.110	0.010	-0.100
2020/01/31 17:42:29.7	357.530	-0.100	0.030	-0.060
2020/01/31 17:42:29.8	357.520	-0.090	0.050	-0.030
2020/01/31 17:42:29.9	357.500	-0.070	0.070	0.010
2020/01/31 17:42:30.0	357.490	-0.060	0.080	0.040
2020/01/31 17:42:30.1	357.480	-0.050	0.090	0.070
2020/01/31 17:42:30.2	357.470	-0.030	0.100	0.090
2020/01/31 17:42:30.3	357.460	-0.020	0.100	0.120
2020/01/31 17:42:30.4	357.450	-0.000	0.100	0.140
2020/01/31 17:42:30.5	357.450	0.010	0.100	0.160
2020/01/31 17:42:30.6	357.450	0.030	0.090	0.170
2020/01/31 17:42:30.7	357.450	0.050	0.080	0.180
2020/01/31 17:42:30.8	357.460	0.060	0.060	0.190
2020/01/31 17:42:30.9	357.460	0.080	0.050	0.200
2020/01/31 17:42:31.0	357.470	0.100	0.030	0.210
2020/01/31 17:42:31.1	357.480	0.120	0.010	0.210
2020/01/31 17:42:31.2	357.500	0.130	-0.010	0.210
2020/01/31 17:42:31.3	357.510	0.150	-0.040	0.210
2020/01/31 17:42:31.4	357.530	0.160	-0.060	0.210
2020/01/31 17:42:31.5	357.550	0.180	-0.090	0.200
2020/01/31 17:42:31.6	357.570	0.190	-0.120	0.190
2020/01/31 17:42:31.7	357.590	0.200	-0.140	0.180
2020/01/31 17:42:31.8	357.620	0.220	-0.160	0.170
2020/01/31 17:42:31.9	357.640	0.220	-0.190	0.160
2020/01/31 17:42:32.0	357.660	0.230	-0.210	0.150
2020/01/31 17:42:32.1	357.680	0.240	-0.230	0.130
2020/01/31 17:42:32.2	357.700	0.240	-0.250	0.120
2020/01/31 17:42:32.3	357.710	0.240	-0.260	0.110
2020/01/31 17:42:32.4	357.730	0.240	-0.270	0.100
2020/01/31 17:42:32.5	357.740	0.240	-0.280	0.090
2020/01/31 17:42:32.6	357.750	0.230	-0.290	0.080
2020/01/31 17:42:32.7	357.760	0.230	-0.290	0.070
2020/01/31 17:42:32.8	357.760	0.220	-0.280	0.060
2020/01/31 17:42:32.9	357.760	0.210	-0.280	0.060
2020/01/31 17:42:33.0	357.760	0.200	-0.270	0.060
2020/01/31 17:42:33.1	357.760	0.180	-0.260	0.050
2020/01/31 17:42:33.2	357.750	0.170	-0.240	0.050
2020/01/31 17:42:33.3	357.740	0.150	-0.220	0.050
2020/01/31 17:42:33.4	357.730	0.130	-0.200	0.050
2020/01/31 17:42:33.5	357.710	0.110	-0.180	0.050
2020/01/31 17:42:33.6	357.690	0.090	-0.150	0.050
2020/01/31 17:42:33.7	357.670	0.070	-0.120	0.050
2020/01/31 17:42:33.8	357.660	0.040	-0.100	0.040
2020/01/31 17:42:33.9	357.640	0.020	-0.070	0.040
2020/01/31 17:42:34.0	357.610	-0.000	-0.040	0.040
2020/01/31 17:42:34.1	357.590	-0.030	-0.010	0.040
2020/01/31 17:42:34.2	357.570	-0.050	0.020	0.030
2020/01/31 17:42:34.3	357.550	-0.070	0.050	0.030
2020/01/31 17:42:34.4	357.520	-0.090	0.080	0.020
2020/01/31 17:42:34.5	357.500	-0.110	0.100	0.020
2020/01/31 17:42:34.6	357.480	-0.130	0.120	0.010
2020/01/31 17:42:34.7	357.450	-0.150	0.140	0.000
2020/01/31 17:42:34.8	357.440	-0.160	0.170	-0.010
2020/01/31 17:42:34.9	357.420	-0.170	0.180	-0.020
2020/01/31 17:42:35.0	357.410	-0.180	0.190	-0.020
2020/01/31 17:42:35.1	357.390	-0.190	0.200	-0.030
2020/01/31 17:42:35.2	357.370	-0.200	0.200	-0.040
2020/01/31 17:42:35.3	357.360	-0.200	0.200	-0.050
2020/01/31 17:42:35.4	357.350	-0.200	0.200	-0.060
2020/01/31 17:42:35.5	357.340	-0.200	0.190	-0.070
2020/01/31 17:42:35.6	357.340	-0.190	0.180	-0.080
2020/01/31 17:42:35.7	357.330	-0.180	0.160	-0.090
2020/01/31 17:42:35.8	357.330	-0.170	0.140	-0.110
2020/01/31 17:42:35.9	357.330	-0.160	0.120	-0.120
2020/01/31 17:42:36.0	357.320	-0.150	0.090	-0.130
2020/01/31 17:42:36.1	357.320	-0.130	0.060	-0.140
2020/01/31 17:42:36.2	357.330	-0.110	0.030	-0.150
2020/01/31 17:42:36.3	357.330	-0.090	-0.000	-0.160
2020/01/31 17:42:36.4	357.330	-0.070	-0.040	-0.170
2020/01/31 17:42:36.5	357.330	-0.050	-0.070	-0.180
2020/01/31 17:42:36.6	357.340	-0.030	-0.110	-0.190
2020/01/31 17:42:36.7	357.340	-0.010	-0.150	-0.200
2020/01/31 17:42:36.8	357.350	0.010	-0.190	-0.210
2020/01/31 17:42:36.9	357.350	0.040	-0.230	-0.220
2020/01/31 17:42:37.0	357.350	0.060	-0.280	-0.220
2020/01/31 17:42:37.1	357.350	0.070	-0.320	-0.230
2020/01/31 17:42:37.2	357.350	0.090	-0.370	-0.230
2020/01/31 17:42:37.3	357.360	0.110	-0.410	-0.230
2020/01/31 17:42:37.4	357.360	0.120	-0.460	-0.240
2020/01/31 17:42:37.5	357.360	0.140	-0.500	-0.240
2020/01/31 17:42:37.6	357.360	0.150	-0.550	-0.240
2020/01/31 17:42:37.7	357.360	0.160	-0.590	-0.250
2020/01/31 17:42:37.8	357.360	0.160	-0.640	-0.250
2020/01/31 17:42:37.9	357.360	0.170	-0.680	-0.260
2020/01/31 17:42:38.0	357.370	0.170	-0.730	-0.260
2020/01/31 17:42:38.1	357.370	0.170	-0.770	-0.270
2020/01/31 17:42:38.2	357.380	0.160	-0.810	-0.280
2020/01/31 17:42:38.3	357.390	0.160	-0.850	-0.290
2020/01/31 17:42:38.4	357.400	0.150	-0.890	-0.300
2020/01/31 17:42:38.5	357.410	0.140	-0.930	-0.310
2020/01/31 17:42:38.6	357.420	0.130	-0.970	-0.330
2020/01/31 17:42:38.7	357.430	0.110	-1.000	-0.340
2020/01/31 17:42:38.8	357.440	0.100	-1.030	-0.360
2020/01/31 17:42:38.9	357.460	0.080	-1.060	-0.380
2020/01/31 17:42:39.0	357.480	0.060	-1.090	-0.400
2020/01/31 17:42:39.1	357.500	0.040	-1.110	-0.420
2020/01/31 17:42:39.2	357.520	0.020	-1.130	-0.450
2020/01/31 17:42:39.3	357.550	0.000	-1.150	-0.470
2020/01/31 17:42:39.4	357.570	-0.020	-1.160	-0.500
2020/01/31 17:42:39.5	357.600	-0.040	-1.170	-0.520
2020/01/31 17:42:39.6	357.630	-0.060	-1.180	-0.550
2020/01/31 17:42:39.7	357.660	-0.080	-1.180	-0.580
2020/01/31 17:42:39.8	357.680	-0.090	-1.170	-0.610
2020/01/31 17:42:39.9	357.710	-0.110	-1.160	-0.640
2020/01/31 17:42:40.0	357.750	-0.130	-1.150	-0.670
2020/01/31 17:42:40.1	357.780	-0.140	-1.130	-0.690
2020/01/31 17:42:40.2	357.820	-0.160	-1.100	-0.720
2020/01/31 17:42:40.3	357.850	-0.170	-1.070	-0.740
2020/01/31 17:42:40.4	357.890	-0.180	-1.030	-0.760
2020/01/31 17:42:40.5	357.930	-0.180	-0.990	-0.780
2020/01/31 17:42:40.6	357.960	-0.190	-0.940	-0.790
2020/01/31 17:42:40.7	358.000	-0.190	-0.880	-0.800
2020/01/31 17:42:40.8	358.020	-0.200	-0.830	-0.820
2020/01/31 17:42:40.9	358.060	-0.200	-0.760	-0.820
2020/01/31 17:42:41.0	358.090	-0.200	-0.690	-0.820
2020/01/31 17:42:41.1	358.120	-0.200	-0.620	-0.820
2020/01/31 17:42:41.2	358.150	-0.190	-0.540	-0.820
2020/01/31 17:42:41.3	358.180	-0.190	-0.460	-0.810
2020/01/31 17:42:41.4	358.200	-0.190	-0.370	-0.800
2020/01/31 17:42:41.5	358.220	-0.180	-0.280	-0.790
2020/01/31 17:42:41.6	358.240	-0.180	-0.200	-0.770
2020/01/31 17:42:41.7	358.260	-0.170	-0.110	-0.750
2020/01/31 17:42:41.8	358.250	-0.170	-0.020	-0.730
2020/01/31 17:42:41.9	358.260	-0.170	0.060	-0.710
2020/01/31 17:42:42.0	358.270	-0.160	0.150	-0.680
2020/01/31 17:42:42.1	358.280	-0.160	0.230	-0.660
2020/01/31 17:42:42.2	358.290	-0.160	0.310	-0.640
2020/01/31 17:42:42.3	358.290	-0.160	0.380	-0.610
2020/01/31 17:42:42.4	358.290	-0.160	0.450	-0.590
2020/01/31 17:42:42.5	358.280	-0.160	0.510	-0.560
2020/01/31 17:42:42.6	358.280	-0.160	0.570	-0.530
2020/01/31 17:42:42.7	358.270	-0.160	0.620	-0.510
2020/01/31 17:42:42.8	358.240	-0.160	0.660	-0.480
2020/01/31 17:42:42.9	358.230	-0.160	0.700	-0.460
2020/01/31 17:42:43.0	358.210	-0.160	0.730	-0.430
2020/01/31 17:42:43.1	358.190	-0.170	0.750	-0.400
2020/01/31 17:42:43.2	358.170	-0.170	0.760	-0.380
2020/01/31 17:42:43.3	358.150	-0.170	0.770	-0.350
2020/01/31 17:42:43.4	358.130	-0.170	0.770	-0.330
2020/01/31 17:42:43.5	358.100	-0.170	0.770	-0.310
2020/01/31 17:42:43.6	358.080	-0.170	0.760	-0.280
2020/01/31 17:42:43.7	358.050	-0.170	0.740	-0.260
2020/01/31 17:42:43.8	358.020	-0.170	0.710	-0.240
2020/01/31 17:42:43.9	357.990	-0.170	0.680	-0.220
2020/01/31 17:42:44.0	357.960	-0.170	0.640	-0.200
2020/01/31 17:42:44.1	357.930	-0.160	0.600	-0.180
2020/01/31 17:42:44.2	357.900	-0.150	0.560	-0.160
2020/01/31 17:42:44.3	357.880	-0.140	0.510	-0.140
2020/01/31 17:42:44.4	357.850	-0.130	0.460	-0.130
2020/01/31 17:42:44.5	357.820	-0.120	0.410	-0.110
2020/01/31 17:42:44.6	357.790	-0.100	0.350	-0.090
2020/01/31 17:42:44.7	357.770	-0.090	0.290	-0.080
2020/01/31 17:42:44.8	357.750	-0.070	0.240	-0.060
2020/01/31 17:42:44.9	357.730	-0.040	0.180	-0.050
2020/01/31 17:42:45.0	357.700	-0.020	0.120	-0.040
2020/01/31 17:42:45.1	357.680	0.000	0.070	-0.020
2020/01/31 17:42:45.2	357.660	0.030	0.010	-0.010
2020/01/31 17:42:45.3	357.640	0.060	-0.040	0.010
2020/01/31 17:42:45.4	357.620	0.090	-0.090	0.020
2020/01/31 17:42:45.5	357.600	0.120	-0.140	0.030
2020/01/31 17:42:45.6	357.580	0.150	-0.180	0.050
2020/01/31 17:42:45.7	357.570	0.180	-0.230	0.070
2020/01/31 17:42:45.8	357.560	0.210	-0.260	0.080
2020/01/31 17:42:45.9	357.540	0.240	-0.290	0.100
2020/01/31 17:42:46.0	357.520	0.270	-0.320	0.120
2020/01/31 17:42:46.1	357.500	0.290	-0.350	0.130
2020/01/31 17:42:46.2	357.480	0.320	-0.360	0.150
2020/01/31 17:42:46.3	357.470	0.340	-0.380	0.160
2020/01/31 17:42:46.4	357.450	0.360	-0.390	0.180
2020/01/31 17:42:46.5	357.430	0.370	-0.390	0.190
2020/01/31 17:42:46.6	357.410	0.390	-0.400	0.200
2020/01/31 17:42:46.7	357.400	0.390	-0.400	0.220
2020/01/31 17:42:46.8	357.390	0.400	-0.390	0.230
2020/01/31 17:42:46.9	357.370	0.400	-0.390	0.240
2020/01/31 17:42:47.0	357.360	0.400	-0.380	0.240
2020/01/31 17:42:47.1	357.350	0.400	-0.380	0.240
2020/01/31 17:42:47.2	357.340	0.390	-0.370	0.240
2020/01/31 17:42:47.3	357.340	0.380	-0.360	0.240
2020/01/31 17:42:47.4	357.330	0.370	-0.360	0.240
2020/01/31 17:42:47.5	357.330	0.350	-0.350	0.230
2020/01/31 17:42:47.6	357.330	0.340	-0.350	0.220
2020/01/31 17:42:47.7	357.340	0.320	-0.350	0.200
2020/01/31 17:42:47.8	357.330	0.290	-0.350	0.180
2020/01/31 17:42:47.9	357.340	0.270	-0.360	0.150
2020/01/31 17:42:48.0	357.350	0.240	-0.370	0.130
2020/01/31 17:42:48.1	357.370	0.210	-0.380	0.100
2020/01/31 17:42:48.2	357.380	0.180	-0.390	0.060
2020/01/31 17:42:48.3	357.400	0.150	-0.410	0.030
2020/01/31 17:42:48.4	357.420	0.120	-0.430	-0.010
2020/01/31 17:42:48.5	357.430	0.090	-0.450	-0.060
2020/01/31 17:42:48.6	357.450	0.050	-0.470	-0.100
2020/01/31 17:42:48.7	357.470	0.020	-0.500	-0.150
2020/01/31 17:42:48.8	357.510	-0.010	-0.530	-0.200
2020/01/31 17:42:48.9	357.530	-0.040	-0.560	-0.260
2020/01/31 17:42:49.0	357.550	-0.070	-0.590	-0.310
2020/01/31 17:42:49.1	357.570	-0.100	-0.630	-0.360
2020/01/31 17:42:49.2	357.590	-0.130	-0.660	-0.420
2020/01/31 17:42:49.3	357.610	-0.160	-0.700	-0.480
2020/01/31 17:42:49.4	357.630	-0.180	-0.730	-0.530
2020/01/31 17:42:49.5	357.650	-0.210	-0.760	-0.590
2020/01/31 17:42:49.6	357.660	-0.230	-0.800	-0.650
2020/01/31 17:42:49.7	357.680	-0.250	-0.830	-0.700
2020/01/31 17:42:49.8	357.700	-0.270	-0.850	-0.760
2020/01/31 17:42:49.9	357.720	-0.290	-0.880	-0.820
2020/01/31 17:42:50.0	357.740	-0.300	-0.900	-0.870
2020/01/31 17:42:50.1	357.750	-0.310	-0.920	-0.920
2020/01/31 17:42:50.2	357.770	-0.330	-0.940	-0.970
2020/01/31 17:42:50.3	357.790	-0.330	-0.950	-1.010
2020/01/31 17:42:50.4	357.800	-0.340	-0.960	-1.060
2020/01/31 17:42:50.5	357.820	-0.340	-0.970	-1.100
2020/01/31 17:42:50.6	357.840	-0.340	-0.970	-1.140
2020/01/31 17:42:50.7	357.860	-0.340	-0.970	-1.170
2020/01/31 17:42:50.8	357.880	-0.340	-0.960	-1.210
2020/01/31 17:42:50.9	357.900	-0.330	-0.950	-1.240
2020/01/31 17:42:51.0	357.930	-0.320	-0.940	-1.270
2020/01/31 17:42:51.1	357.950	-0.310	-0.930	-1.290
2020/01/31 17:42:51.2	357.980	-0.300	-0.910	-1.310
2020/01/31 17:42:51.3	358.000	-0.290	-0.890	-1.320
2020/01/31 17:42:51.4	358.030	-0.270	-0.860	-1.330
2020/01/31 17:42:51.5	358.050	-0.250	-0.830	-1.340
2020/01/31 17:42:51.6	358.080	-0.230	-0.800	-1.340
2020/01/31 17:42:51.7	358.110	-0.210	-0.770	-1.340
2020/01/31 17:42:51.8	358.120	-0.190	-0.730	-1.330
2020/01/31 17:42:51.9	358.150	-0.170	-0.690	-1.320
2020/01/31 17:42:52.0	358.170	-0.140	-0.650	-1.300
2020/01/31 17:42:52.1	358.200	-0.120	-0.600	-1.280
2020/01/31 17:42:52.2	358.230	-0.090	-0.550	-1.250
2020/01/31 17:42:52.3	358.250	-0.070	-0.500	-1.210
2020/01/31 17:42:52.4	358.270	-0.040	-0.440	-1.170
2020/01/31 17:42:52.5	358.290	-0.020	-0.390	-1.120
2020/01/31 17:42:52.6	358.310	0.000	-0.320	-1.070
2020/01/31 17:42:52.7	358.320	0.020	-0.260	-1.020
2020/01/31 17:42:52.8	358.340	0.050	-0.200	-0.950
2020/01/31 17:42:52.9	358.350	0.070	-0.140	-0.890
2020/01/31 17:42:53.0	358.360	0.080	-0.070	-0.820
2020/01/31 17:42:53.1	358.360	0.100	-0.000	-0.750
2020/01/31 17:42:53.2	358.370	0.120	0.060	-0.670
2020/01/31 17:42:53.3	358.370	0.130	0.130	-0.600
2020/01/31 17:42:53.4	358.380	0.140	0.190	-0.520
2020/01/31 17:42:53.5	358.380	0.150	0.250	-0.440
2020/01/31 17:42:53.6	358.380	0.160	0.310	-0.360
2020/01/31 17:42:53.7	358.380	0.170	0.360	-0.290
2020/01/31 17:42:53.8	358.380	0.170	0.420	-0.210
2020/01/31 17:42:53.9	358.380	0.170	0.460	-0.140
2020/01/31 17:42:54.0	358.380	0.170	0.500	-0.070
2020/01/31 17:42:54.1	358.380	0.170	0.530	-0.010
2020/01/31 17:42:54.2	358.380	0.170	0.560	0.050
2020/01/31 17:42:54.3	358.370	0.160	0.590	0.110
2020/01/31 17:42:54.4	358.370	0.160	0.600	0.160
2020/01/31 17:42:54.5	358.360	0.150	0.620	0.210
2020/01/31 17:42:54.6	358.350	0.140	0.620	0.260
2020/01/31 17:42:54.7	358.330	0.120	0.620	0.300
2020/01/31 17:42:54.8	358.320	0.110	0.620	0.340
2020/01/31 17:42:54.9	358.300	0.090	0.610	0.370
2020/01/31 17:42:55.0	358.280	0.080	0.600	0.400
2020/01/31 17:42:55.1	358.260	0.060	0.580	0.430
2020/01/31 17:42:55.2	358.230	0.040	0.560	0.450
2020/01/31 17:42:55.3	358.210	0.030	0.530	0.460
2020/01/31 17:42:55.4	358.180	0.010	0.500	0.470
2020/01/31 17:42:55.5	358.150	-0.010	0.470	0.480
2020/01/31 17:42:55.6	358.130	-0.030	0.430	0.480
2020/01/31 17:42:55.7	358.100	-0.050	0.390	0.480
2020/01/31 17:42:55.8	358.070	-0.070	0.350	0.480
2020/01/31 17:42:55.9	358.040	-0.080	0.300	0.470
2020/01/31 17:42:56.0	358.020	-0.100	0.250	0.450
2020/01/31 17:42:56.1	357.990	-0.110	0.210	0.430
2020/01/31 17:42:56.2	357.960	-0.130	0.160	0.410
2020/01/31 17:42:56.3	357.930	-0.140	0.100	0.390
2020/01/31 17:42:56.4	357.910	-0.150	0.050	0.360
2020/01/31 17:42:56.5	357.880	-0.160	-0.000	0.330
2020/01/31 17:42:56.6	357.850	-0.160	-0.050	0.300
2020/01/31 17:42:56.7	357.820	-0.170	-0.110	0.270
2020/01/31 17:42:56.8	357.790	-0.170	-0.160	0.230
2020/01/31 17:42:56.9	357.770	-0.170	-0.210	0.190
2020/01/31 17:42:57.0	357.740	-0.170	-0.260	0.160
2020/01/31 17:42:57.1	357.710	-0.170	-0.310	0.120
2020/01/31 17:42:57.2	357.680	-0.170	-0.350	0.080
2020/01/31 17:42:57.3	357.660	-0.160	-0.400	0.040
2020/01/31 17:42:57.4	357.630	-0.150	-0.440	0.010
2020/01/31 17:42:57.5	357.600	-0.140	-0.480	-0.030
2020/01/31 17:42:57.6	357.580	-0.130	-0.520	-0.070
2020/01/31 17:42:57.7	357.550	-0.120	-0.560	-0.110
2020/01/31 17:42:57.8	357.530	-0.100	-0.600	-0.150
2020/01/31 17:42:57.9	357.510	-0.090	-0.630	-0.180
2020/01/31 17:42:58.0	357.500	-0.070	-0.670	-0.220
2020/01/31 17:42:58.1	357.480	-0.050	-0.700	-0.250
2020/01/31 17:42:58.2	357.470	-0.030	-0.730	-0.290
2020/01/31 17:42:58.3	357.460	-0.000	-0.760	-0.320
2020/01/31 17:42:58.4	357.450	0.020	-0.780	-0.350
2020/01/31 17:42:58.5	357.440	0.050	-0.810	-0.380
2020/01/31 17:42:58.6	357.450	0.080	-0.840	-0.410
2020/01/31 17:42:58.7	357.450	0.100	-0.860	-0.440
2020/01/31 17:42:58.8	357.450	0.130	-0.880	-0.470
2020/01/31 17:42:58.9	357.460	0.160	-0.910	-0.500
2020/01/31 17:42:59.0	357.480	0.190	-0.930	-0.530
2020/01/31 17:42:59.1	357.500	0.220	-0.950	-0.560
2020/01/31 17:42:59.2	357.520	0.250	-0.980	-0.580
2020/01/31 17:42:59.3	357.550	0.280	-1.000	-0.600
2020/01/31 17:42:59.4	357.580	0.310	-1.010	-0.630
2020/01/31 17:42:59.5	357.610	0.340	-1.030	-0.650
2020/01/31 17:42:59.6	357.640	0.360	-1.040	-0.670
2020/01/31 17:42:59.7	357.670	0.390	-1.050	-0.690
2020/01/31 17:42:59.8	357.720	0.410	-1.060	-0.710
2020/01/31 17:42:59.9	357.750	0.420	-1.050	-0.720
2020/01/31 17:43:00.0	357.790	0.430	-1.050	-0.730
2020/01/31 17:43:00.1	357.820	0.440	-1.030	-0.740
2020/01/31 17:43:00.2	357.850	0.450	-1.010	-0.750
2020/01/31 17:43:00.3	357.890	0.440	-0.980	-0.760
2020/01/31 17:43:00.4	357.920	0.440	-0.950	-0.760
2020/01/31 17:43:00.5	357.950	0.430	-0.910	-0.770
2020/01/31 17:43:00.6	357.980	0.410	-0.860	-0.770
2020/01/31 17:43:00.7	358.000	0.390	-0.810	-0.770
2020/01/31 17:43:00.8	358.030	0.370	-0.740	-0.760
2020/01/31 17:43:00.9	358.050	0.340	-0.680	-0.760
2020/01/31 17:43:01.0	358.080	0.300	-0.610	-0.760
2020/01/31 17:43:01.1	358.100	0.270	-0.540	-0.750
2020/01/31 17:43:01.2	358.120	0.220	-0.460	-0.740
2020/01/31 17:43:01.3	358.140	0.180	-0.380	-0.720
2020/01/31 17:43:01.4	358.160	0.130	-0.300	-0.710
2020/01/31 17:43:01.5	358.180	0.080	-0.220	-0.690
2020/01/31 17:43:01.6	358.200	0.030	-0.140	-0.670
2020/01/31 17:43:01.7	358.220	-0.030	-0.050	-0.640
2020/01/31 17:43:01.8	358.240	-0.080	0.020	-0.620
2020/01/31 17:43:01.9	358.260	-0.140	0.100	-0.590
2020/01/31 17:43:02.0	358.270	-0.200	0.180	-0.560
2020/01/31 17:43:02.1	358.290	-0.250	0.250	-0.530
2020/01/31 17:43:02.2	358.300	-0.310	0.320	-0.500
2020/01/31 17:43:02.3	358.310	-0.360	0.380	-0.470
2020/01/31 17:43:02.4	358.320	-0.420	0.440	-0.430
2020/01/31 17:43:02.5	358.330	-0.470	0.490	-0.400
2020/01/31 17:43:02.6	358.340	-0.520	0.530	-0.360
2020/01/31 17:43:02.7	358.340	-0.560	0.570	-0.330
2020/01/31 17:43:02.8	358.360	-0.600	0.610	-0.290
2020/01/31 17:43:02.9	358.360	-0.640	0.630	-0.260
2020/01/31 17:43:03.0	358.360	-0.680	0.650	-0.230
2020/01/31 17:43:03.1	358.360	-0.710	0.660	-0.190
2020/01/31 17:43:03.2	358.360	-0.730	0.660	-0.170
2020/01/31 17:43:03.3	358.350	-0.750	0.650	-0.140
2020/01/31 17:43:03.4	358.350	-0.770	0.640	-0.110
2020/01/31 17:43:03.5	358.340	-0.780	0.610	-0.080
2020/01/31 17:43:03.6	358.320	-0.780	0.590	-0.060
2020/01/31 17:43:03.7	358.310	-0.780	0.550	-0.040
2020/01/31 17:43:03.8	358.300	-0.770	0.510	-0.020
2020/01/31 17:43:03.9	358.280	-0.760	0.460	0.010
2020/01/31 17:43:04.0	358.250	-0.740	0.420	0.030
2020/01/31 17:43:04.1	358.230	-0.710	0.360	0.050
2020/01/31 17:43:04.2	358.200	-0.680	0.310	0.070
2020/01/31 17:43:04.3	358.170	-0.650	0.250	0.090
2020/01/31 17:43:04.4	358.140	-0.600	0.190	0.110
2020/01/31 17:43:04.5	358.110	-0.560	0.130	0.130
2020/01/31 17:43:04.6	358.080	-0.500	0.070	0.160
2020/01/31 17:43:04.7	358.040	-0.450	0.010	0.180
2020/01/31 17:43:04.8	358.000	-0.380	-0.050	0.200
2020/01/31 17:43:04.9	357.970	-0.320	-0.100	0.230
2020/01/31 17:43:05.0	357.930	-0.250	-0.150	0.260
2020/01/31 17:43:05.1	357.900	-0.180	-0.210	0.290
2020/01/31 17:43:05.2	357.870	-0.110	-0.250	0.320
2020/01/31 17:43:05.3	357.840	-0.030	-0.300	0.360
2020/01/31 17:43:05.4	357.810	0.050	-0.340	0.390
2020/01/31 17:43:05.5	357.780	0.130	-0.380	0.420
2020/01/31 17:43:05.6	357.750	0.200	-0.420	0.450
2020/01/31 17:43:05.7	357.730	0.280	-0.450	0.480
2020/01/31 17:43:05.8	357.700	0.360	-0.480	0.510
2020/01/31 17:43:05.9	357.680	0.430	-0.510	0.530
2020/01/31 17:43:06.0	357.660	0.500	-0.530	0.550
2020/01/31 17:43:06.1	357.650	0.570	-0.550	0.580
2020/01/31 17:43:06.2	357.640	0.640	-0.570	0.590
2020/01/31 17:43:06.3	357.630	0.700	-0.590	0.610
2020/01/31 17:43:06.4	357.620	0.750	-0.600	0.620
2020/01/31 17:43:06.5	357.610	0.810	-0.620	0.630
2020/01/31 17:43:06.6	357.600	0.850	-0.630	0.640
2020/01/31 17:43:06.7	357.600	0.890	-0.630	0.640
2020/01/31 17:43:06.8	357.590	0.930	-0.640	0.640
2020/01/31 17:43:06.9	357.580	0.960	-0.640	0.640
2020/01/31 17:43:07.0	357.580	0.980	-0.640	0.630
2020/01/31 17:43:07.1	357.570	1.000	-0.640	0.620
2020/01/31 17:43:07.2	357.570	1.010	-0.640	0.600
2020/01/31 17:43:07.3	357.560	1.010	-0.630	0.590
2020/01/31 17:43:07.4	357.560	1.000	-0.630	0.560
2020/01/31 17:43:07.5	357.550	0.990	-0.620	0.540
2020/01/31 17:43:07.6	357.550	0.980	-0.610	0.510
2020/01/31 17:43:07.7	357.550	0.950	-0.600	0.470
2020/01/31 17:43:07.8	357.550	0.920	-0.580	0.440
2020/01/31 17:43:07.9	357.550	0.890	-0.560	0.390
2020/01/31 17:43:08.0	357.540	0.850	-0.550	0.350
2020/01/31 17:43:08.1	357.540	0.800	-0.530	0.300
2020/01/31 17:43:08.2	357.540	0.750	-0.520	0.250
2020/01/31 17:43:08.3	357.540	0.700	-0.500	0.200
2020/01/31 17:43:08.4	357.540	0.640	-0.480	0.140
2020/01/31 17:43:08.5	357.550	0.580	-0.460	0.080
2020/01/31 17:43:08.6	357.550	0.510	-0.450	0.020
2020/01/31 17:43:08.7	357.560	0.440	-0.430	-0.040
2020/01/31 17:43:08.8	357.570	0.370	-0.420	-0.110
2020/01/31 17:43:08.9	357.580	0.300	-0.400	-0.180
2020/01/31 17:43:09.0	357.590	0.230	-0.390	-0.250
2020/01/31 17:43:09.1	357.600	0.160	-0.380	-0.320
2020/01/31 17:43:09.2	357.610	0.090	-0.370	-0.390
2020/01/31 17:43:09.3	357.630	0.020	-0.360	-0.460
2020/01/31 17:43:09.4	357.640	-0.050	-0.360	-0.530
2020/01/31 17:43:09.5	357.660	-0.120	-0.350	-0.600
2020/01/31 17:43:09.6	357.670	-0.190	-0.350	-0.660
2020/01/31 17:43:09.7	357.690	-0.250	-0.350	-0.730
2020/01/31 17:43:09.8	357.700	-0.320	-0.350	-0.800
2020/01/31 17:43:09.9	357.710	-0.380	-0.350	-0.860
2020/01/31 17:43:10.0	357.730	-0.430	-0.350	-0.920
2020/01/31 17:43:10.1	357.740	-0.480	-0.360	-0.980
2020/01/31 17:43:10.2	357.760	-0.530	-0.360	-1.030
2020/01/31 17:43:10.3	357.780	-0.580	-0.370	-1.090
2020/01/31 17:43:10.4	357.790	-0.620	-0.380	-1.140
2020/01/31 17:43:10.5	357.810	-0.650	-0.390	-1.190
2020/01/31 17:43:10.6	357.830	-0.680	-0.400	-1.230
2020/01/31 17:43:10.7	357.850	-0.710	-0.410	-1.270
2020/01/31 17:43:10.8	357.870	-0.730	-0.420	-1.310
2020/01/31 17:43:10.9	357.890	-0.740	-0.430	-1.350
2020/01/31 17:43:11.0	357.910	-0.760	-0.430	-1.380
2020/01/31 17:43:11.1	357.930	-0.760	-0.440	-1.410
2020/01/31 17:43:11.2	357.960	-0.760	-0.440	-1.430
2020/01/31 17:43:11.3	357.980	-0.760	-0.450	-1.450
2020/01/31 17:43:11.4	358.010	-0.760	-0.450	-1.460
2020/01/31 17:43:11.5	358.030	-0.740	-0.450	-1.480
2020/01/31 17:43:11.6	358.060	-0.730	-0.440	-1.480
2020/01/31 17:43:11.7	358.090	-0.710	-0.430	-1.480
2020/01/31 17:43:11.8	358.120	-0.690	-0.420	-1.490
2020/01/31 17:43:11.9	358.150	-0.660	-0.410	-1.480
2020/01/31 17:43:12.0	358.170	-0.640	-0.390	-1.470
2020/01/31 17:43:12.1	358.200	-0.610	-0.370	-1.450
2020/01/31 17:43:12.2	358.230	-0.570	-0.350	-1.430
2020/01/31 17:43:12.3	358.260	-0.540	-0.330	-1.410
2020/01/31 17:43:12.4	358.290	-0.510	-0.300	-1.380
2020/01/31 17:43:12.5	358.320	-0.470	-0.260	-1.350
2020/01/31 17:43:12.6	358.350	-0.440	-0.230	-1.310
2020/01/31 17:43:12.7	358.370	-0.400	-0.190	-1.270
2020/01/31 17:43:12.8	358.390	-0.370	-0.150	-1.220
2020/01/31 17:43:12.9	358.420	-0.330	-0.110	-1.170
2020/01/31 17:43:13.0	358.440	-0.300	-0.070	-1.120
2020/01/31 17:43:13.1	358.450	-0.270	-0.030	-1.060
2020/01/31 17:43:13.2	358.470	-0.240	0.020	-1.010
2020/01/31 17:43:13.3	358.480	-0.210	0.060	-0.940
2020/01/31 17:43:13.4	358.480	-0.180	0.100	-0.880
2020/01/31 17:43:13.5	358.490	-0.150	0.150	-0.820
2020/01/31 17:43:13.6	358.490	-0.130	0.190	-0.750
2020/01/31 17:43:13.7	358.490	-0.110	0.230	-0.680
2020/01/31 17:43:13.8	358.490	-0.090	0.260	-0.600
2020/01/31 17:43:13.9	358.480	-0.070	0.300	-0.530
2020/01/31 17:43:14.0	358.480	-0.060	0.330	-0.460
2020/01/31 17:43:14.1	358.470	-0.040	0.360	-0.390
2020/01/31 17:43:14.2	358.460	-0.030	0.380	-0.310
2020/01/31 17:43:14.3	358.440	-0.020	0.400	-0.240
2020/01/31 17:43:14.4	358.430	-0.010	0.410	-0.180
2020/01/31 17:43:14.5	358.420	-0.000	0.420	-0.110
2020/01/31 17:43:14.6	358.400	0.010	0.420	-0.050
2020/01/31 17:43:14.7	358.390	0.020	0.420	0.010
2020/01/31 17:43:14.8	358.370	0.020	0.410	0.060
2020/01/31 17:43:14.9	358.350	0.030	0.400	0.120
2020/01/31 17:43:15.0	358.330	0.040	0.380	0.170
2020/01/31 17:43:15.1	358.320	0.040	0.360	0.210
2020/01/31 17:43:15.2	358.300	0.050	0.330	0.250
2020/01/31 17:43:15.3	358.290	0.060	0.300	0.290
2020/01/31 17:43:15.4	358.270	0.070	0.260	0.330
2020/01/31 17:43:15.5	358.260	0.090	0.210	0.360
2020/01/31 17:43:15.6	358.240	0.100	0.160	0.390
2020/01/31 17:43:15.7	358.220	0.120	0.110	0.420
2020/01/31 17:43:15.8	358.210	0.130	0.060	0.440
2020/01/31 17:43:15.9	358.200	0.150	-0.000	0.460
2020/01/31 17:43:16.0	358.180	0.170	-0.060	0.480
2020/01/31 17:43:16.1	358.160	0.190	-0.120	0.500
2020/01/31 17:43:16.2	358.140	0.220	-0.180	0.520
2020/01/31 17:43:16.3	358.130	0.250	-0.250	0.530
2020/01/31 17:43:16.4	358.110	0.270	-0.310	0.540
2020/01/31 17:43:16.5	358.090	0.300	-0.370	0.550
2020/01/31 17:43:16.6	358.080	0.330	-0.430	0.560
2020/01/31 17:43:16.7	358.060	0.360	-0.490	0.560
2020/01/31 17:43:16.8	358.050	0.390	-0.550	0.570
2020/01/31 17:43:16.9	358.030	0.420	-0.600	0.570
2020/01/31 17:43:17.0	358.020	0.460	-0.650	0.570
2020/01/31 17:43:17.1	358.000	0.490	-0.700	0.560
2020/01/31 17:43:17.2	357.990	0.520	-0.750	0.560
2020/01/31 17:43:17.3	357.970	0.550	-0.790	0.550
2020/01/31 17:43:17.4	357.960	0.570	-0.820	0.540
2020/01/31 17:43:17.5	357.950	0.600	-0.860	0.530
2020/01/31 17:43:17.6	357.940	0.620	-0.880	0.510
2020/01/31 17:43:17.7	357.920	0.640	-0.900	0.490
2020/01/31 17:43:17.8	357.910	0.660	-0.920	0.470
2020/01/31 17:43:17.9	357.900	0.680	-0.930	0.450
2020/01/31 17:43:18.0	357.880	0.690	-0.940	0.430
2020/01/31 17:43:18.1	357.870	0.700	-0.930	0.410
2020/01/31 17:43:18.2	357.860	0.700	-0.930	0.380
2020/01/31 17:43:18.3	357.850	0.700	-0.910	0.360
2020/01/31 17:43:18.4	357.830	0.690	-0.900	0.330
2020/01/31 17:43:18.5	357.820	0.680	-0.870	0.310
2020/01/31 17:43:18.6	357.800	0.670	-0.840	0.280
2020/01/31 17:43:18.7	357.780	0.650	-0.810	0.260
2020/01/31 17:43:18.8	357.770	0.630	-0.770	0.230
2020/01/31 17:43:18.9	357.750	0.600	-0.730	0.200
2020/01/31 17:43:19.0	357.730	0.560	-0.680	0.180
2020/01/31 17:43:19.1	357.700	0.520	-0.630	0.150
2020/01/31 17:43:19.2	357.680	0.480	-0.580	0.120
2020/01/31 17:43:19.3	357.660	0.440	-0.520	0.090
2020/01/31 17:43:19.4	357.640	0.390	-0.470	0.070
2020/01/31 17:43:19.5	357.620	0.330	-0.410	0.040
2020/01/31 17:43:19.6	357.600	0.280	-0.360	0.010
2020/01/31 17:43:19.7	357.580	0.220	-0.310	-0.020
2020/01/31 17:43:19.8	357.570	0.160	-0.250	-0.060
2020/01/31 17:43:19.9	357.560	0.100	-0.200	-0.090
2020/01/31 17:43:20.0	357.540	0.040	-0.160	-0.130
2020/01/31 17:43:20.1	357.540	-0.030	-0.120	-0.160
2020/01/31 17:43:20.2	357.530	-0.090	-0.080	-0.200
2020/01/31 17:43:20.3	357.520	-0.150	-0.050	-0.240
2020/01/31 17:43:20.4	357.520	-0.210	-0.020	-0.280
2020/01/31 17:43:20.5	357.530	-0.270	0.000	-0.320
2020/01/31 17:43:20.6	357.530	-0.320	0.020	-0.370
2020/01/31 17:43:20.7	357.540	-0.370	0.030	-0.410
2020/01/31 17:43:20.8	357.550	-0.420	0.040	-0.460
2020/01/31 17:43:20.9	357.570	-0.470	0.040	-0.500
2020/01/31 17:43:21.0	357.580	-0.510	0.030	-0.550
2020/01/31 17:43:21.1	357.600	-0.550	0.020	-0.600
2020/01/31 17:43:21.2	357.620	-0.580	0.010	-0.640
2020/01/31 17:43:21.3	357.640	-0.600	-0.010	-0.690
2020/01/31 17:43:21.4	357.660	-0.630	-0.030	-0.740
2020/01/31 17:43:21.5	357.690	-0.640	-0.060	-0.780
2020/01/31 17:43:21.6	357.720	-0.650	-0.080	-0.830
2020/01/31 17:43:21.7	357.750	-0.660	-0.110	-0.870
2020/01/31 17:43:21.8	357.760	-0.650	-0.140	-0.910
2020/01/31 17:43:21.9	357.800	-0.650	-0.180	-0.950
2020/01/31 17:43:22.0	357.830	-0.640	-0.210	-0.990
2020/01/31 17:43:22.1	357.870	-0.620	-0.240	-1.030
2020/01/31 17:43:22.2	357.900	-0.600	-0.270	-1.060
2020/01/31 17:43:22.3	357.940	-0.570	-0.290	-1.090
2020/01/31 17:43:22.4	357.980	-0.550	-0.320	-1.120
2020/01/31 17:43:22.5	358.020	-0.510	-0.350	-1.150
2020/01/31 17:43:22.6	358.060	-0.480	-0.370	-1.170
2020/01/31 17:43:22.7	358.100	-0.440	-0.390	-1.190
2020/01/31 17:43:22.8	358.140	-0.400	-0.410	-1.220
2020/01/31 17:43:22.9	358.190	-0.350	-0.420	-1.230
2020/01/31 17:43:23.0	358.230	-0.310	-0.440	-1.250
2020/01/31 17:43:23.1	358.270	-0.270	-0.450	-1.250
2020/01/31 17:43:23.2	358.320	-0.220	-0.450	-1.260
2020/01/31 17:43:23.3	358.360	-0.170	-0.450	-1.260
2020/01/31 17:43:23.4	358.400	-0.130	-0.450	-1.250
2020/01/31 17:43:23.5	358.440	-0.090	-0.450	-1.240
2020/01/31 17:43:23.6	358.470	-0.050	-0.440	-1.220
2020/01/31 17:43:23.7	358.510	-0.010	-0.430	-1.200
2020/01/31 17:43:23.8	358.540	0.030	-0.420	-1.170
2020/01/31 17:43:23.9	358.570	0.060	-0.400	-1.140
2020/01/31 17:43:24.0	358.590	0.090	-0.380	-1.100
2020/01/31 17:43:24.1	358.610	0.120	-0.360	-1.060
2020/01/31 17:43:24.2	358.630	0.140	-0.330	-1.020
2020/01/31 17:43:24.3	358.650	0.160	-0.310	-0.980
2020/01/31 17:43:24.4	358.660	0.180	-0.280	-0.930
2020/01/31 17:43:24.5	358.660	0.190	-0.250	-0.880
2020/01/31 17:43:24.6	358.670	0.190	-0.230	-0.830
2020/01/31 17:43:24.7	358.660	0.200	-0.200	-0.790
2020/01/31 17:43:24.8	358.650	0.190	-0.170	-0.740
2020/01/31 17:43:24.9	358.640	0.190	-0.140	-0.690
2020/01/31 17:43:25.0	358.630	0.180	-0.110	-0.640
2020/01/31 17:43:25.1	358.610	0.170	-0.080	-0.600
2020/01/31 17:43:25.2	358.590	0.150	-0.060	-0.560
2020/01/31 17:43:25.3	358.570	0.130	-0.030	-0.520
2020/01/31 17:43:25.4	358.540	0.110	-0.000	-0.480
2020/01/31 17:43:25.5	358.520	0.090	0.030	-0.440
2020/01/31 17:43:25.6	358.480	0.060	0.050	-0.400
2020/01/31 17:43:25.7	358.450	0.040	0.080	-0.360
2020/01/31 17:43:25.8	358.420	0.010	0.100	-0.320
2020/01/31 17:43:25.9	358.380	-0.020	0.120	-0.290
2020/01/31 17:43:26.0	358.340	-0.050	0.140	-0.260
2020/01/31 17:43:26.1	358.300	-0.080	0.160	-0.230
2020/01/31 17:43:26.2	358.260	-0.110	0.180	-0.200
2020/01/31 17:43:26.3	358.210	-0.140	0.190	-0.170
2020/01/31 17:43:26.4	358.170	-0.160	0.200	-0.140
2020/01/31 17:43:26.5	358.130	-0.190	0.210	-0.120
2020/01/31 17:43:26.6	358.090	-0.210	0.210	-0.100
2020/01/31 17:43:26.7	358.050	-0.230	0.210	-0.080
2020/01/31 17:43:26.8	358.010	-0.250	0.210	-0.070
2020/01/31 17:43:26.9	357.970	-0.260	0.210	-0.050
2020/01/31 17:43:27.0	357.940	-0.280	0.200	-0.050
2020/01/31 17:43:27.1	357.910	-0.280	0.190	-0.040
2020/01/31 17:43:27.2	357.880	-0.290	0.170	-0.040
2020/01/31 17:43:27.3	357.850	-0.290	0.150	-0.040
2020/01/31 17:43:27.4	357.820	-0.290	0.130	-0.050
2020/01/31 17:43:27.5	357.800	-0.280	0.110	-0.060
2020/01/31 17:43:27.6	357.770	-0.270	0.080	-0.070
2020/01/31 17:43:27.7	357.750	-0.250	0.050	-0.080
2020/01/31 17:43:27.8	357.730	-0.230	0.020	-0.100
2020/01/31 17:43:27.9	357.710	-0.210	-0.020	-0.110
2020/01/31 17:43:28.0	357.700	-0.180	-0.050	-0.130
2020/01/31 17:43:28.1	357.680	-0.150	-0.090	-0.140
2020/01/31 17:43:28.2	357.670	-0.120	-0.120	-0.150
2020/01/31 17:43:28.3	357.660	-0.080	-0.160	-0.170
2020/01/31 17:43:28.4	357.640	-0.050	-0.200	-0.180
2020/01/31 17:43:28.5	357.640	-0.010	-0.240	-0.190
2020/01/31 17:43:28.6	357.630	0.030	-0.270	-0.210
2020/01/31 17:43:28.7	357.620	0.080	-0.310	-0.220
2020/01/31 17:43:28.8	357.630	0.120	-0.340	-0.220
2020/01/31 17:43:28.9	357.630	0.170	-0.380	-0.230
2020/01/31 17:43:29.0	357.620	0.210	-0.410	-0.240
2020/01/31 17:43:29.1	357.620	0.250	-0.450	-0.240
2020/01/31 17:43:29.2	357.620	0.290	-0.480	-0.240
2020/01/31 17:43:29.3	357.630	0.330	-0.510	-0.240
2020/01/31 17:43:29.4	357.630	0.370	-0.540	-0.240
2020/01/31 17:43:29.5	357.630	0.410	-0.570	-0.230
2020/01/31 17:43:29.6	357.640	0.440	-0.600	-0.230
2020/01/31 17:43:29.7	357.640	0.470	-0.620	-0.220
2020/01/31 17:43:29.8	357.650	0.500	-0.650	-0.210
2020/01/31 17:43:29.9	357.650	0.530	-0.660	-0.200
2020/01/31 17:43:30.0	357.660	0.540	-0.680	-0.180
2020/01/31 17:43:30.1	357.660	0.560	-0.700	-0.170
2020/01/31 17:43:30.2	357.670	0.570	-0.710	-0.160
2020/01/31 17:43:30.3	357.680	0.580	-0.720	-0.140
2020/01/31 17:43:30.4	357.690	0.580	-0.720	-0.130
2020/01/31 17:43:30.5	357.690	0.580	-0.730	-0.110
2020/01/31 17:43:30.6	357.700	0.580	-0.730	-0.100
2020/01/31 17:43:30.7	357.710	0.570	-0.730	-0.090
2020/01/31 17:43:30.8	357.730	0.560	-0.730	-0.080
2020/01/31 17:43:30.9	357.750	0.540	-0.730	-0.060
2020/01/31 17:43:31.0	357.760	0.520	-0.730	-0.050
2020/01/31 17:43:31.1	357.780	0.500	-0.720	-0.050
2020/01/31 17:43:31.2	357.790	0.480	-0.710	-0.040
2020/01/31 17:43:31.3	357.810	0.450	-0.710	-0.040
2020/01/31 17:43:31.4	357.840	0.420	-0.700	-0.040
2020/01/31 17:43:31.5	357.860	0.390	-0.690	-0.040
2020/01/31 17:43:31.6	357.880	0.360	-0.690	-0.040
2020/01/31 17:43:31.7	357.910	0.320	-0.680	-0.050
2020/01/31 17:43:31.8	357.930	0.290	-0.670	-0.060
2020/01/31 17:43:31.9	357.960	0.250	-0.660	-0.070
2020/01/31 17:43:32.0	357.990	0.220	-0.650	-0.080
2020/01/31 17:43:32.1	358.020	0.190	-0.640	-0.090
2020/01/31 17:43:32.2	358.060	0.150	-0.630	-0.110
2020/01/31 17:43:32.3	358.090	0.120	-0.620	-0.120
2020/01/31 17:43:32.4	358.120	0.090	-0.610	-0.140
2020/01/31 17:43:32.5	358.160	0.060	-0.590	-0.150
2020/01/31 17:43:32.6	358.190	0.030	-0.580	-0.170
2020/01/31 17:43:32.7	358.230	-0.000	-0.560	-0.190
2020/01/31 17:43:32.8	358.260	-0.030	-0.550	-0.200
2020/01/31 17:43:32.9	358.290	-0.050	-0.530	-0.220
2020/01/31 17:43:33.0	358.330	-0.080	-0.510	-0.230
2020/01/31 17:43:33.1	358.360	-0.100	-0.490	-0.250
2020/01/31 17:43:33.2	358.390	-0.120	-0.460	-0.260
2020/01/31 17:43:33.3	358.420	-0.140	-0.430	-0.270
2020/01/31 17:43:33.4	358.450	-0.160	-0.410	-0.280
2020/01/31 17:43:33.5	358.470	-0.180	-0.380	-0.300
2020/01/31 17:43:33.6	358.500	-0.200	-0.340	-0.310
2020/01/31 17:43:33.7	358.530	-0.220	-0.310	-0.320
2020/01/31 17:43:33.8	358.540	-0.240	-0.270	-0.340
2020/01/31 17:43:33.9	358.570	-0.250	-0.240	-0.350
2020/01/31 17:43:34.0	358.590	-0.270	-0.200	-0.370
2020/01/31 17:43:34.1	358.610	-0.280	-0.170	-0.380
2020/01/31 17:43:34.2	358.630	-0.300	-0.130	-0.400
2020/01/31 17:43:34.3	358.650	-0.310	-0.100	-0.410
2020/01/31 17:43:34.4	358.670	-0.330	-0.060	-0.430
2020/01/31 17:43:34.5	358.690	-0.340	-0.030	-0.440
2020/01/31 17:43:34.6	358.710	-0.350	0.000	-0.460
2020/01/31 17:43:34.7	358.730	-0.360	0.040	-0.470
2020/01/31 17:43:34.8	358.740	-0.370	0.060	-0.490
2020/01/31 17:43:34.9	358.760	-0.380	0.090	-0.500
2020/01/31 17:43:35.0	358.780	-0.390	0.120	-0.510
2020/01/31 17:43:35.1	358.790	-0.400	0.140	-0.520
2020/01/31 17:43:35.2	358.800	-0.400	0.170	-0.530
2020/01/31 17:43:35.3	358.820	-0.410	0.190	-0.530
2020/01/31 17:43:35.4	358.820	-0.410	0.220	-0.540
2020/01/31 17:43:35.5	358.830	-0.420	0.240	-0.530
2020/01/31 17:43:35.6	358.830	-0.420	0.260	-0.530
2020/01/31 17:43:35.7	358.830	-0.420	0.280	-0.530
2020/01/31 17:43:35.8	358.810	-0.420	0.300	-0.520
2020/01/31 17:43:35.9	358.810	-0.420	0.320	-0.510
2020/01/31 17:43:36.0	358.790	-0.420	0.340	-0.500
2020/01/31 17:43:36.1	358.780	-0.420	0.350	-0.480
2020/01/31 17:43:36.2	358.760	-0.410	0.370	-0.460
2020/01/31 17:43:36.3	358.730	-0.410	0.390	-0.440
2020/01/31 17:43:36.4	358.710	-0.400	0.400	-0.420
2020/01/31 17:43:36.5	358.680	-0.390	0.410	-0.390
2020/01/31 17:43:36.6	358.640	-0.380	0.420	-0.360
2020/01/31 17:43:36.7	358.600	-0.370	0.430	-0.330
2020/01/31 17:43:36.8	358.550	-0.360	0.450	-0.300
2020/01/31 17:43:36.9	358.510	-0.350	0.450	-0.260
2020/01/31 17:43:37.0	358.460	-0.330	0.460	-0.220
2020/01/31 17:43:37.1	358.410	-0.320	0.460	-0.180
2020/01/31 17:43:37.2	358.360	-0.300	0.450	-0.140
2020/01/31 17:43:37.3	358.310	-0.280	0.450	-0.100
2020/01/31 17:43:37.4	358.260	-0.260	0.440	-0.060
2020/01/31 17:43:37.5	358.210	-0.240	0.430	-0.020
2020/01/31 17:43:37.6	358.150	-0.220	0.420	0.010
2020/01/31 17:43:37.7	358.100	-0.200	0.400	0.050
2020/01/31 17:43:37.8	358.070	-0.170	0.370	0.080
2020/01/31 17:43:37.9	358.020	-0.150	0.350	0.110
2020/01/31 17:43:38.0	357.970	-0.120	0.320	0.140
2020/01/31 17:43:38.1	357.930	-0.100	0.280	0.170
2020/01/31 17:43:38.2	357.890	-0.070	0.250	0.190
2020/01/31 17:43:38.3	357.850	-0.050	0.210	0.200
2020/01/31 17:43:38.4	357.810	-0.020	0.160	0.220
2020/01/31 17:43:38.5	357.780	0.000	0.120	0.230
2020/01/31 17:43:38.6	357.740	0.030	0.070	0.240
2020/01/31 17:43:38.7	357.710	0.060	0.010	0.250
2020/01/31 17:43:38.8	357.700	0.080	-0.050	0.250
2020/01/31 17:43:38.9	357.680	0.110	-0.100	0.250
2020/01/31 17:43:39.0	357.660	0.140	-0.160	0.240
2020/01/31 17:43:39.1	357.640	0.160	-0.220	0.230
2020/01/31 17:43:39.2	357.630	0.190	-0.290	0.220
2020/01/31 17:43:39.3	357.620	0.220	-0.350	0.210
2020/01/31 17:43:39.4	357.610	0.240	-0.420	0.190
2020/01/31 17:43:39.5	357.610	0.270	-0.480	0.170
2020/01/31 17:43:39.6	357.610	0.290	-0.550	0.150
2020/01/31 17:43:39.7	357.610	0.310	-0.610	0.130
2020/01/31 17:43:39.8	357.630	0.340	-0.670	0.100
2020/01/31 17:43:39.9	357.640	0.360	-0.730	0.080
2020/01/31 17:43:40.0	357.650	0.380	-0.790	0.050
2020/01/31 17:43:40.1	357.650	0.400	-0.840	0.030
2020/01/31 17:43:40.2	357.670	0.420	-0.900	0.000
2020/01/31 17:43:40.3	357.680	0.430	-0.940	-0.020
2020/01/31 17:43:40.4	357.690	0.450	-0.990	-0.050
2020/01/31 17:43:40.5	357.710	0.460	-1.020	-0.080
2020/01/31 17:43:40.6	357.730	0.470	-1.060	-0.100
2020/01/31 17:43:40.7	357.750	0.480	-1.090	-0.130
2020/01/31 17:43:40.8	357.760	0.480	-1.110	-0.160
2020/01/31 17:43:40.9	357.780	0.490	-1.120	-0.190
2020/01/31 17:43:41.0	357.810	0.490	-1.140	-0.210
2020/01/31 17:43:41.1	357.830	0.490	-1.140	-0.240
2020/01/31 17:43:41.2	357.850	0.490	-1.140	-0.260
2020/01/31 17:43:41.3	357.880	0.490	-1.140	-0.290
2020/01/31 17:43:41.4	357.900	0.490	-1.130	-0.310
2020/01/31 17:43:41.5	357.930	0.480	-1.110	-0.340
2020/01/31 17:43:41.6	357.960	0.480	-1.100	-0.360
2020/01/31 17:43:41.7	357.990	0.470	-1.070	-0.390
2020/01/31 17:43:41.8	358.010	0.460	-1.050	-0.420
2020/01/31 17:43:41.9	358.040	0.450	-1.020	-0.440
2020/01/31 17:43:42.0	358.070	0.440	-0.990	-0.460
2020/01/31 17:43:42.1	358.110	0.420	-0.950	-0.490
2020/01/31 17:43:42.2	358.140	0.410	-0.910	-0.510
2020/01/31 17:43:42.3	358.170	0.390	-0.870	-0.520
2020/01/31 17:43:42.4	358.200	0.380	-0.830	-0.540
2020/01/31 17:43:42.5	358.240	0.360	-0.790	-0.560
2020/01/31 17:43:42.6	358.270	0.350	-0.750	-0.570
2020/01/31 17:43:42.7	358.300	0.330	-0.700	-0.580
2020/01/31 17:43:42.8	358.340	0.310	-0.660	-0.590
2020/01/31 17:43:42.9	358.370	0.300	-0.610	-0.600
2020/01/31 17:43:43.0	358.400	0.280	-0.570	-0.600
2020/01/31 17:43:43.1	358.430	0.260	-0.520	-0.600
2020/01/31 17:43:43.2	358.460	0.240	-0.480	-0.610
2020/01/31 17:43:43.3	358.480	0.220	-0.440	-0.600
2020/01/31 17:43:43.4	358.510	0.200	-0.400	-0.600
2020/01/31 17:43:43.5	358.530	0.180	-0.360	-0.590
2020/01/31 17:43:43.6	358.550	0.160	-0.320	-0.590
2020/01/31 17:43:43.7	358.570	0.130	-0.280	-0.580
2020/01/31 17:43:43.8	358.580	0.110	-0.250	-0.560
2020/01/31 17:43:43.9	358.600	0.090	-0.220	-0.550
2020/01/31 17:43:44.0	358.610	0.060	-0.190	-0.530
2020/01/31 17:43:44.1	358.620	0.040	-0.160	-0.510
2020/01/31 17:43:44.2	358.630	0.010	-0.130	-0.500
2020/01/31 17:43:44.3	358.640	-0.010	-0.110	-0.480
2020/01/31 17:43:44.4	358.640	-0.040	-0.090	-0.460
2020/01/31 17:43:44.5	358.650	-0.070	-0.070	-0.440
2020/01/31 17:43:44.6	358.650	-0.100	-0.050	-0.420
2020/01/31 17:43:44.7	358.650	-0.130	-0.030	-0.410
2020/01/31 17:43:44.8	358.640	-0.160	-0.020	-0.390
2020/01/31 17:43:44.9	358.630	-0.190	-0.010	-0.380
2020/01/31 17:43:45.0	358.630	-0.230	0.000	-0.360
2020/01/31 17:43:45.1	358.630	-0.260	0.010	-0.360
2020/01/31 17:43:45.2	358.630	-0.290	0.020	-0.350
2020/01/31 17:43:45.3	358.630	-0.320	0.020	-0.340
2020/01/31 17:43:45.4	358.620	-0.360	0.030	-0.340
2020/01/31 17:43:45.5	358.620	-0.390	0.040	-0.340
2020/01/31 17:43:45.6	358.620	-0.420	0.040	-0.340
2020/01/31 17:43:45.7	358.620	-0.450	0.050	-0.350
2020/01/31 17:43:45.8	358.620	-0.480	0.050	-0.360
2020/01/31 17:43:45.9	358.620	-0.510	0.050	-0.360
2020/01/31 17:43:46.0	358.620	-0.540	0.060	-0.370
2020/01/31 17:43:46.1	358.620	-0.560	0.070	-0.380
2020/01/31 17:43:46.2	358.620	-0.580	0.080	-0.380
2020/01/31 17:43:46.3	358.620	-0.610	0.090	-0.390
2020/01/31 17:43:46.4	358.620	-0.630	0.100	-0.400
2020/01/31 17:43:46.5	358.630	-0.640	0.110	-0.400
2020/01/31 17:43:46.6	358.630	-0.660	0.130	-0.410
2020/01/31 17:43:46.7	358.630	-0.670	0.140	-0.410
2020/01/31 17:43:46.8	358.620	-0.680	0.160	-0.410
2020/01/31 17:43:46.9	358.620	-0.690	0.180	-0.410
2020/01/31 17:43:47.0	358.620	-0.700	0.210	-0.410
2020/01/31 17:43:47.1	358.610	-0.700	0.230	-0.400
2020/01/31 17:43:47.2	358.610	-0.700	0.260	-0.400
2020/01/31 17:43:47.3	358.600	-0.690	0.290	-0.380
2020/01/31 17:43:47.4	358.590	-0.690	0.320	-0.370
2020/01/31 17:43:47.5	358.580	-0.680	0.360	-0.360
2020/01/31 17:43:47.6	358.560	-0.660	0.390	-0.340
2020/01/31 17:43:47.7	358.550	-0.650	0.420	-0.310
2020/01/31 17:43:47.8	358.530	-0.630	0.450	-0.290
2020/01/31 17:43:47.9	358.510	-0.610	0.490	-0.260
2020/01/31 17:43:48.0	358.480	-0.590	0.520	-0.230
2020/01/31 17:43:48.1	358.460	-0.560	0.550	-0.200
2020/01/31 17:43:48.2	358.430	-0.530	0.570	-0.160
2020/01/31 17:43:48.3	358.400	-0.500	0.600	-0.120
2020/01/31 17:43:48.4	358.370	-0.470	0.620	-0.080
2020/01/31 17:43:48.5	358.340	-0.430	0.630	-0.040
2020/01/31 17:43:48.6	358.310	-0.390	0.640	0.000
2020/01/31 17:43:48.7	358.270	-0.350	0.650	0.040
2020/01/31 17:43:48.8	358.240	-0.310	0.640	0.090
2020/01/31 17:43:48.9	358.210	-0.270	0.630	0.130
2020/01/31 17:43:49.0	358.170	-0.220	0.620	0.170
2020/01/31 17:43:49.1	358.140	-0.180	0.600	0.210
2020/01/31 17:43:49.2	358.100	-0.130	0.570	0.250
2020/01/31 17:43:49.3	358.070	-0.080	0.530	0.280
2020/01/31 17:43:49.4	358.040	-0.030	0.480	0.320
2020/01/31 17:43:49.5	358.000	0.020	0.430	0.350
2020/01/31 17:43:49.6	357.970	0.070	0.360	0.370
2020/01/31 17:43:49.7	357.950	0.120	0.290	0.390
2020/01/31 17:43:49.8	357.930	0.180	0.220	0.410
2020/01/31 17:43:49.9	357.900	0.230	0.140	0.430
2020/01/31 17:43:50.0	357.880	0.280	0.050	0.440
2020/01/31 17:43:50.1	357.860	0.320	-0.050	0.440
2020/01/31 17:43:50.2	357.840	0.370	-0.140	0.450
2020/01/31 17:43:50.3	357.820	0.420	-0.240	0.440
2020/01/31 17:43:50.4	357.800	0.460	-0.340	0.430
2020/01/31 17:43:50.5	357.790	0.500	-0.450	0.420
2020/01/31 17:43:50.6	357.770	0.540	-0.550	0.410
2020/01/31 17:43:50.7	357.760	0.570	-0.650	0.380
2020/01/31 17:43:50.8	357.750	0.600	-0.750	0.360
2020/01/31 17:43:50.9	357.740	0.630	-0.850	0.330
2020/01/31 17:43:51.0	357.730	0.650	-0.940	0.300
2020/01/31 17:43:51.1	357.720	0.680	-1.030	0.270
2020/01/31 17:43:51.2	357.710	0.690	-1.110	0.230
2020/01/31 17:43:51.3	357.710	0.700	-1.190	0.200
2020/01/31 17:43:51.4	357.700	0.710	-1.260	0.160
2020/01/31 17:43:51.5	357.700	0.720	-1.320	0.120
2020/01/31 17:43:51.6	357.700	0.720	-1.380	0.080
2020/01/31 17:43:51.7	357.700	0.720	-1.420	0.040
2020/01/31 17:43:51.8	357.710	0.710	-1.460	-0.010
2020/01/31 17:43:51.9	357.720	0.700	-1.490	-0.060
2020/01/31 17:43:52.0	357.730	0.690	-1.510	-0.100
2020/01/31 17:43:52.1	357.740	0.670	-1.520	-0.140
2020/01/31 17:43:52.2	357.750	0.650	-1.520	-0.190
2020/01/31 17:43:52.3	357.770	0.630	-1.520	-0.230
2020/01/31 17:43:52.4	357.790	0.600	-1.510	-0.280
2020/01/31 17:43:52.5	357.810	0.580	-1.490	-0.320
2020/01/31 17:43:52.6	357.830	0.550	-1.460	-0.370
2020/01/31 17:43:52.7	357.860	0.520	-1.430	-0.410
2020/01/31 17:43:52.8	357.900	0.490	-1.390	-0.450
2020/01/31 17:43:52.9	357.940	0.450	-1.350	-0.500
2020/01/31 17:43:53.0	357.970	0.420	-1.310	-0.540
2020/01/31 17:43:53.1	358.010	0.390	-1.260	-0.590
2020/01/31 17:43:53.2	358.050	0.350	-1.200	-0.630
2020/01/31 17:43:53.3	358.090	0.320	-1.150	-0.670
2020/01/31 17:43:53.4	358.140	0.280	-1.080	-0.720
2020/01/31 17:43:53.5	358.180	0.250	-1.020	-0.760
2020/01/31 17:43:53.6	358.230	0.210	-0.960	-0.800
2020/01/31 17:43:53.7	358.270	0.180	-0.890	-0.830
2020/01/31 17:43:53.8	358.310	0.140	-0.820	-0.870
2020/01/31 17:43:53.9	358.360	0.110	-0.750	-0.910
2020/01/31 17:43:54.0	358.400	0.080	-0.680	-0.940
2020/01/31 17:43:54.1	358.440	0.050	-0.610	-0.970
2020/01/31 17:43:54.2	358.480	0.010	-0.540	-0.990
2020/01/31 17:43:54.3	358.520	-0.020	-0.470	-1.020
2020/01/31 17:43:54.4	358.560	-0.050	-0.400	-1.040
2020/01/31 17:43:54.5	358.590	-0.070	-0.320	-1.050
2020/01/31 17:43:54.6	358.630	-0.100	-0.260	-1.060
2020/01/31 17:43:54.7	358.660	-0.130	-0.190	-1.070
2020/01/31 17:43:54.8	358.680	-0.150	-0.120	-1.080
2020/01/31 17:43:54.9	358.700	-0.170	-0.050	-1.080
2020/01/31 17:43:55.0	358.720	-0.200	0.010	-1.070
2020/01/31 17:43:55.1	358.740	-0.220	0.070	-1.060
2020/01/31 17:43:55.2	358.750	-0.230	0.130	-1.050
2020/01/31 17:43:55.3	358.770	-0.250	0.180	-1.030
2020/01/31 17:43:55.4	358.780	-0.260	0.230	-1.000
2020/01/31 17:43:55.5	358.780	-0.280	0.280	-0.980
2020/01/31 17:43:55.6	358.790	-0.290	0.320	-0.950
2020/01/31 17:43:55.7	358.790	-0.300	0.360	-0.920
2020/01/31 17:43:55.8	358.770	-0.300	0.400	-0.880
2020/01/31 17:43:55.9	358.770	-0.310	0.430	-0.840
2020/01/31 17:43:56.0	358.770	-0.310	0.450	-0.800
2020/01/31 17:43:56.1	358.770	-0.310	0.470	-0.760
2020/01/31 17:43:56.2	358.760	-0.310	0.490	-0.720
2020/01/31 17:43:56.3	358.760	-0.310	0.500	-0.680
2020/01/31 17:43:56.4	358.750	-0.300	0.500	-0.640
2020/01/31 17:43:56.5	358.740	-0.300	0.500	-0.600
2020/01/31 17:43:56.6	358.730	-0.290	0.490	-0.560
2020/01/31 17:43:56.7	358.720	-0.280	0.480	-0.530
2020/01/31 17:43:56.8	358.710	-0.270	0.460	-0.490
2020/01/31 17:43:56.9	358.710	-0.260	0.440	-0.460
2020/01/31 17:43:57.0	358.700	-0.250	0.410	-0.430
2020/01/31 17:43:57.1	358.690	-0.230	0.380	-0.400
2020/01/31 17:43:57.2	358.670	-0.220	0.350	-0.370
2020/01/31 17:43:57.3	358.660	-0.200	0.310	-0.340
2020/01/31 17:43:57.4	358.650	-0.190	0.270	-0.320
2020/01/31 17:43:57.5	358.640	-0.170	0.230	-0.290
2020/01/31 17:43:57.6	358.620	-0.150	0.190	-0.270
2020/01/31 17:43:57.7	358.610	-0.140	0.150	-0.250
2020/01/31 17:43:57.8	358.590	-0.120	0.110	-0.230
2020/01/31 17:43:57.9	358.570	-0.100	0.070	-0.200
2020/01/31 17:43:58.0	358.550	-0.090	0.030	-0.180
2020/01/31 17:43:58.1	358.530	-0.080	-0.000	-0.160
2020/01/31 17:43:58.2	358.510	-0.060	-0.030	-0.140
2020/01/31 17:43:58.3	358.480	-0.050	-0.060	-0.120
2020/01/31 17:43:58.4	358.460	-0.040	-0.090	-0.100
2020/01/31 17:43:58.5	358.430	-0.040	-0.110	-0.080
2020/01/31 17:43:58.6	358.390	-0.030	-0.130	-0.060
2020/01/31 17:43:58.7	358.360	-0.030	-0.140	-0.040
2020/01/31 17:43:58.8	358.320	-0.030	-0.150	-0.010
2020/01/31 17:43:58.9	358.290	-0.030	-0.150	0.010
2020/01/31 17:43:59.0	358.250	-0.030	-0.150	0.030
2020/01/31 17:43:59.1	358.200	-0.030	-0.140	0.050
2020/01/31 17:43:59.2	358.160	-0.040	-0.130	0.070
2020/01/31 17:43:59.3	358.120	-0.050	-0.120	0.090
2020/01/31 17:43:59.4	358.070	-0.060	-0.110	0.110
2020/01/31 17:43:59.5	358.030	-0.070	-0.090	0.120
2020/01/31 17:43:59.6	357.980	-0.090	-0.070	0.140
2020/01/31 17:43:59.7	357.940	-0.100	-0.050	0.150
2020/01/31 17:43:59.8	357.900	-0.120	-0.020	0.170
2020/01/31 17:43:59.9	357.850	-0.140	-0.000	0.180
2020/01/31 17:44:00.0	357.810	-0.150	0.020	0.190
2020/01/31 17:44:00.1	357.760	-0.170	0.040	0.200
2020/01/31 17:44:00.2	357.720	-0.190	0.060	0.200
2020/01/31 17:44:00.3	357.680	-0.200	0.070	0.200
2020/01/31 17:44:00.4	357.640	-0.220	0.080	0.200
2020/01/31 17:44:00.5	357.610	-0.240	0.090	0.200
2020/01/31 17:44:00.6	357.580	-0.250	0.100	0.190
2020/01/31 17:44:00.7	357.550	-0.260	0.100	0.180
2020/01/31 17:44:00.8	357.550	-0.270	0.090	0.160
2020/01/31 17:44:00.9	357.530	-0.280	0.090	0.150
2020/01/31 17:44:01.0	357.510	-0.280	0.070	0.120
2020/01/31 17:44:01.1	357.490	-0.280	0.050	0.100
2020/01/31 17:44:01.2	357.480	-0.280	0.030	0.070
2020/01/31 17:44:01.3	357.480	-0.280	-0.000	0.040
2020/01/31 17:44:01.4	357.480	-0.270	-0.040	0.010
2020/01/31 17:44:01.5	357.480	-0.260	-0.080	-0.030
2020/01/31 17:44:01.6	357.490	-0.250	-0.120	-0.070
2020/01/31 17:44:01.7	357.500	-0.230	-0.170	-0.110
2020/01/31 17:44:01.8	357.510	-0.210	-0.230	-0.160
2020/01/31 17:44:01.9	357.530	-0.190	-0.280	-0.200
2020/01/31 17:44:02.0	357.550	-0.160	-0.340	-0.250
2020/01/31 17:44:02.1	357.570	-0.130	-0.410	-0.300
2020/01/31 17:44:02.2	357.600	-0.110	-0.470	-0.340
2020/01/31 17:44:02.3	357.630	-0.070	-0.530	-0.390
2020/01/31 17:44:02.4	357.660	-0.040	-0.600	-0.430
2020/01/31 17:44:02.5	357.700	-0.010	-0.660	-0.470
2020/01/31 17:44:02.6	357.730	0.020	-0.720	-0.520
2020/01/31 17:44:02.7	357.760	0.060	-0.770	-0.550
2020/01/31 17:44:02.8	357.800	0.090	-0.820	-0.590
2020/01/31 17:44:02.9	357.830	0.120	-0.870	-0.630
2020/01/31 17:44:03.0	357.870	0.150	-0.920	-0.660
2020/01/31 17:44:03.1	357.900	0.180	-0.950	-0.690
2020/01/31 17:44:03.2	357.930	0.210	-0.990	-0.710
2020/01/31 17:44:03.3	357.950	0.240	-1.010	-0.730
2020/01/31 17:44:03.4	357.980	0.260	-1.030	-0.750
2020/01/31 17:44:03.5	358.000	0.280	-1.040	-0.760
2020/01/31 17:44:03.6	358.020	0.300	-1.050	-0.770
2020/01/31 17:44:03.7	358.040	0.320	-1.050	-0.770
2020/01/31 17:44:03.8	358.050	0.330	-1.040	-0.770
2020/01/31 17:44:03.9	358.060	0.340	-1.020	-0.770
2020/01/31 17:44:04.0	358.070	0.350	-1.000	-0.760
2020/01/31 17:44:04.1	358.070	0.350	-0.960	-0.750
2020/01/31 17:44:04.2	358.070	0.350	-0.920	-0.730
2020/01/31 17:44:04.3	358.070	0.350	-0.880	-0.710
2020/01/31 17:44:04.4	358.070	0.340	-0.830	-0.680
2020/01/31 17:44:04.5	358.070	0.340	-0.770	-0.660
2020/01/31 17:44:04.6	358.060	0.330	-0.710	-0.630
2020/01/31 17:44:04.7	358.060	0.320	-0.640	-0.590
2020/01/31 17:44:04.8	358.050	0.300	-0.580	-0.550
2020/01/31 17:44:04.9	358.040	0.290	-0.510	-0.510
2020/01/31 17:44:05.0	358.030	0.270	-0.440	-0.470
2020/01/31 17:44:05.1	358.020	0.260	-0.370	-0.430
2020/01/31 17:44:05.2	358.010	0.240	-0.290	-0.390
2020/01/31 17:44:05.3	358.000	0.220	-0.220	-0.340
2020/01/31 17:44:05.4	357.980	0.200	-0.160	-0.300
2020/01/31 17:44:05.5	357.970	0.180	-0.090	-0.250
2020/01/31 17:44:05.6	357.960	0.170	-0.030	-0.200
2020/01/31 17:44:05.7	357.950	0.150	0.030	-0.160
2020/01/31 17:44:05.8	357.950	0.130	0.080	-0.110
2020/01/31 17:44:05.9	357.940	0.110	0.130	-0.070
2020/01/31 17:44:06.0	357.930	0.100	0.180	-0.030
2020/01/31 17:44:06.1	357.920	0.080	0.220	0.010
2020/01/31 17:44:06.2	357.910	0.070	0.250	0.040
2020/01/31 17:44:06.3	357.900	0.050	0.270	0.070
2020/01/31 17:44:06.4	357.900	0.040	0.290	0.100
2020/01/31 17:44:06.5	357.890	0.030	0.310	0.130
2020/01/31 17:44:06.6	357.880	0.020	0.310	0.150
2020/01/31 17:44:06.7	357.880	0.010	0.320	0.170
2020/01/31 17:44:06.8	357.890	-0.000	0.310	0.180
2020/01/31 17:44:06.9	357.890	-0.010	0.300	0.190
2020/01/31 17:44:07.0	357.890	-0.010	0.280	0.190
2020/01/31 17:44:07.1	357.880	-0.020	0.250	0.190
2020/01/31 17:44:07.2	357.880	-0.020	0.220	0.190
2020/01/31 17:44:07.3	357.890	-0.020	0.180	0.180
2020/01/31 17:44:07.4	357.890	-0.020	0.140	0.180
2020/01/31 17:44:07.5	357.890	-0.020	0.100	0.160
2020/01/31 17:44:07.6	357.890	-0.020	0.040	0.150
2020/01/31 17:44:07.7	357.900	-0.010	-0.010	0.130
2020/01/31 17:44:07.8	357.890	-0.000	-0.070	0.120
2020/01/31 17:44:07.9	357.890	0.000	-0.120	0.100
2020/01/31 17:44:08.0	357.900	0.010	-0.180	0.090
2020/01/31 17:44:08.1	357.900	0.020	-0.240	0.070
2020/01/31 17:44:08.2	357.900	0.030	-0.300	0.060
2020/01/31 17:44:08.3	357.900	0.040	-0.350	0.050
2020/01/31 17:44:08.4	357.910	0.050	-0.400	0.040
2020/01/31 17:44:08.5	357.910	0.070	-0.450	0.030
2020/01/31 17:44:08.6	357.910	0.080	-0.500	0.020
2020/01/31 17:44:08.7	357.910	0.090	-0.540	0.010
2020/01/31 17:44:08.8	357.920	0.100	-0.580	-0.000
2020/01/31 17:44:08.9	357.930	0.110	-0.610	-0.010
2020/01/31 17:44:09.0	357.930	0.120	-0.640	-0.020
2020/01/31 17:44:09.1	357.940	0.130	-0.660	-0.030
2020/01/31 17:44:09.2	357.940	0.130	-0.680	-0.050
2020/01/31 17:44:09.3	357.950	0.140	-0.690	-0.060
2020/01/31 17:44:09.4	357.960	0.140	-0.700	-0.080
2020/01/31 17:44:09.5	357.970	0.140	-0.700	-0.090
2020/01/31 17:44:09.6	357.970	0.140	-0.700	-0.110
2020/01/31 17:44:09.7	357.980	0.140	-0.700	-0.130
2020/01/31 17:44:09.8	358.000	0.140	-0.690	-0.150
2020/01/31 17:44:09.9	358.010	0.130	-0.670	-0.170
2020/01/31 17:44:10.0	358.020	0.130	-0.650	-0.190
2020/01/31 17:44:10.1	358.030	0.120	-0.640	-0.210
2020/01/31 17:44:10.2	358.030	0.110	-0.610	-0.230
2020/01/31 17:44:10.3	358.040	0.090	-0.590	-0.260
2020/01/31 17:44:10.4	358.050	0.080	-0.560	-0.280
2020/01/31 17:44:10.5	358.050	0.060	-0.530	-0.290
2020/01/31 17:44:10.6	358.060	0.050	-0.490	-0.310
2020/01/31 17:44:10.7	358.060	0.030	-0.460	-0.330
2020/01/31 17:44:10.8	358.050	0.010	-0.420	-0.340
2020/01/31 17:44:10.9	358.060	-0.010	-0.380	-0.350
2020/01/31 17:44:11.0	358.060	-0.040	-0.340	-0.360
2020/01/31 17:44:11.1	358.060	-0.060	-0.300	-0.370
2020/01/31 17:44:11.2	358.070	-0.080	-0.260	-0.380
2020/01/31 17:44:11.3	358.070	-0.100	-0.220	-0.380
2020/01/31 17:44:11.4	358.080	-0.120	-0.180	-0.380
2020/01/31 17:44:11.5	358.080	-0.140	-0.150	-0.380
2020/01/31 17:44:11.6	358.090	-0.170	-0.110	-0.380
2020/01/31 17:44:11.7	358.090	-0.180	-0.080	-0.380
2020/01/31 17:44:11.8	358.090	-0.200	-0.050	-0.370
2020/01/31 17:44:11.9	358.100	-0.220	-0.020	-0.370
2020/01/31 17:44:12.0	358.110	-0.230	0.010	-0.360
2020/01/31 17:44:12.1	358.120	-0.250	0.030	-0.360
2020/01/31 17:44:12.2	358.130	-0.260	0.050	-0.350
2020/01/31 17:44:12.3	358.140	-0.260	0.070	-0.340
2020/01/31 17:44:12.4	358.150	-0.270	0.080	-0.330
2020/01/31 17:44:12.5	358.160	-0.270	0.100	-0.310
2020/01/31 17:44:12.6	358.170	-0.280	0.110	-0.300
2020/01/31 17:44:12.7	358.180	-0.280	0.110	-0.280
2020/01/31 17:44:12.8	358.190	-0.270	0.120	-0.270
2020/01/31 17:44:12.9	358.190	-0.270	0.120	-0.250
2020/01/31 17:44:13.0	358.200	-0.260	0.130	-0.220
2020/01/31 17:44:13.1	358.200	-0.250	0.130	-0.200
2020/01/31 17:44:13.2	358.200	-0.240	0.130	-0.170
2020/01/31 17:44:13.3	358.200	-0.220	0.130	-0.140
2020/01/31 17:44:13.4	358.190	-0.210	0.140	-0.110
2020/01/31 17:44:13.5	358.190	-0.190	0.140	-0.080
2020/01/31 17:44:13.6	358.180	-0.170	0.140	-0.040
2020/01/31 17:44:13.7	358.160	-0.150	0.140	-0.000
2020/01/31 17:44:13.8	358.150	-0.130	0.150	0.040
2020/01/31 17:44:13.9	358.140	-0.110	0.150	0.080
2020/01/31 17:44:14.0	358.120	-0.090	0.160	0.120
2020/01/31 17:44:14.1	358.100	-0.070	0.160	0.170
2020/01/31 17:44:14.2	358.080	-0.050	0.170	0.210
2020/01/31 17:44:14.3	358.050	-0.020	0.170	0.250
2020/01/31 17:44:14.4	358.030	-0.000	0.170	0.290
2020/01/31 17:44:14.5	358.000	0.010	0.170	0.320
2020/01/31 17:44:14.6	357.980	0.030	0.170	0.360
2020/01/31 17:44:14.7	357.950	0.050	0.170	0.390
2020/01/31 17:44:14.8	357.930	0.070	0.160	0.420
2020/01/31 17:44:14.9	357.900	0.080	0.160	0.440
2020/01/31 17:44:15.0	357.880	0.100	0.150	0.460
2020/01/31 17:44:15.1	357.850	0.110	0.130	0.480
2020/01/31 17:44:15.2	357.830	0.120	0.120	0.490
2020/01/31 17:44:15.3	357.810	0.130	0.100	0.490
2020/01/31 17:44:15.4	357.800	0.140	0.070	0.490
2020/01/31 17:44:15.5	357.780	0.150	0.050	0.490
2020/01/31 17:44:15.6	357.770	0.150	0.020	0.480
2020/01/31 17:44:15.7	357.760	0.160	-0.020	0.460
2020/01/31 17:44:15.8	357.760	0.160	-0.060	0.440
2020/01/31 17:44:15.9	357.750	0.160	-0.100	0.420
2020/01/31 17:44:16.0	357.740	0.170	-0.140	0.390
2020/01/31 17:44:16.1	357.740	0.170	-0.190	0.350
2020/01/31 17:44:16.2	357.740	0.170	-0.240	0.320
2020/01/31 17:44:16.3	357.740	0.170	-0.290	0.280
2020/01/31 17:44:16.4	357.740	0.160	-0.340	0.230
2020/01/31 17:44:16.5	357.740	0.160	-0.390	0.190
2020/01/31 17:44:16.6	357.740	0.160	-0.440	0.140
2020/01/31 17:44:16.7	357.750	0.160	-0.490	0.090
2020/01/31 17:44:16.8	357.750	0.160	-0.540	0.030
2020/01/31 17:44:16.9	357.760	0.150	-0.590	-0.020
2020/01/31 17:44:17.0	357.770	0.150	-0.640	-0.070
2020/01/31 17:44:17.1	357.780	0.150	-0.680	-0.130
2020/01/31 17:44:17.2	357.790	0.140	-0.720	-0.180
2020/01/31 17:44:17.3	357.800	0.140	-0.760	-0.240
2020/01/31 17:44:17.4	357.820	0.140	-0.800	-0.290
2020/01/31 17:44:17.5	357.830	0.130	-0.830	-0.340
2020/01/31 17:44:17.6	357.840	0.130	-0.850	-0.390
2020/01/31 17:44:17.7	357.860	0.120	-0.870	-0.430
2020/01/31 17:44:17.8	357.880	0.120	-0.880	-0.480
2020/01/31 17:44:17.9	357.900	0.120	-0.890	-0.520
2020/01/31 17:44:18.0	357.920	0.110	-0.890	-0.560
2020/01/31 17:44:18.1	357.930	0.110	-0.890	-0.590
2020/01/31 17:44:18.2	357.950	0.100	-0.880	-0.620
2020/01/31 17:44:18.3	357.970	0.100	-0.870	-0.650
2020/01/31 17:44:18.4	357.990	0.090	-0.850	-0.670
2020/01/31 17:44:18.5	358.010	0.080	-0.820	-0.690
2020/01/31 17:44:18.6	358.030	0.080	-0.790	-0.710
2020/01/31 17:44:18.7	358.050	0.070	-0.760	-0.720
2020/01/31 17:44:18.8	358.070	0.060	-0.720	-0.730
2020/01/31 17:44:18.9	358.090	0.050	-0.680	-0.740
2020/01/31 17:44:19.0	358.110	0.040	-0.630	-0.740
2020/01/31 17:44:19.1	358.130	0.030	-0.580	-0.730
2020/01/31 17:44:19.2	358.150	0.020	-0.530	-0.730
2020/01/31 17:44:19.3	358.180	0.010	-0.480	-0.720
2020/01/31 17:44:19.4	358.200	-0.000	-0.420	-0.700
2020/01/31 17:44:19.5	358.220	-0.020	-0.370	-0.690
2020/01/31 17:44:19.6	358.240	-0.030	-0.320	-0.670
2020/01/31 17:44:19.7	358.260	-0.040	-0.260	-0.650
2020/01/31 17:44:19.8	358.270	-0.060	-0.210	-0.630
2020/01/31 17:44:19.9	358.290	-0.070	-0.170	-0.610
2020/01/31 17:44:20.0	358.310	-0.090	-0.120	-0.580
2020/01/31 17:44:20.1	358.320	-0.100	-0.080	-0.560
2020/01/31 17:44:20.2	358.340	-0.120	-0.050	-0.530
2020/01/31 17:44:20.3	358.350	-0.130	-0.010	-0.510
2020/01/31 17:44:20.4	358.370	-0.150	0.010	-0.480
2020/01/31 17:44:20.5	358.380	-0.160	0.030	-0.460
2020/01/31 17:44:20.6	358.390	-0.170	0.050	-0.430
2020/01/31 17:44:20.7	358.400	-0.190	0.060	-0.400
2020/01/31 17:44:20.8	358.400	-0.200	0.060	-0.380
2020/01/31 17:44:20.9	358.410	-0.210	0.060	-0.350
2020/01/31 17:44:21.0	358.420	-0.220	0.060	-0.330
2020/01/31 17:44:21.1	358.430	-0.220	0.050	-0.300
2020/01/31 17:44:21.2	358.440	-0.230	0.030	-0.270
2020/01/31 17:44:21.3	358.440	-0.230	0.010	-0.250
2020/01/31 17:44:21.4	358.450	-0.230	-0.010	-0.220
2020/01/31 17:44:21.5	358.460	-0.230	-0.040	-0.200
2020/01/31 17:44:21.6	358.460	-0.230	-0.060	-0.170
2020/01/31 17:44:21.7	358.470	-0.230	-0.090	-0.150
2020/01/31 17:44:21.8	358.460	-0.230	-0.130	-0.130
2020/01/31 17:44:21.9	358.460	-0.220	-0.160	-0.100
2020/01/31 17:44:22.0	358.470	-0.210	-0.190	-0.080
2020/01/31 17:44:22.1	358.470	-0.200	-0.230	-0.060
2020/01/31 17:44:22.2	358.470	-0.200	-0.260	-0.050
2020/01/31 17:44:22.3	358.470	-0.180	-0.290	-0.030
2020/01/31 17:44:22.4	358.470	-0.170	-0.320	-0.010
2020/01/31 17:44:22.5	358.470	-0.160	-0.350	0.000
2020/01/31 17:44:22.6	358.470	-0.150	-0.380	0.010
2020/01/31 17:44:22.7	358.470	-0.140	-0.410	0.030
2020/01/31 17:44:22.8	358.470	-0.120	-0.430	0.030
2020/01/31 17:44:22.9	358.470	-0.110	-0.450	0.040
2020/01/31 17:44:23.0	358.470	-0.100	-0.470	0.050
2020/01/31 17:44:23.1	358.470	-0.080	-0.490	0.050
2020/01/31 17:44:23.2	358.470	-0.070	-0.500	0.060
2020/01/31 17:44:23.3	358.470	-0.050	-0.520	0.060
2020/01/31 17:44:23.4	358.470	-0.040	-0.520	0.060
2020/01/31 17:44:23.5	358.470	-0.030	-0.530	0.060
2020/01/31 17:44:23.6	358.480	-0.010	-0.530	0.060
2020/01/31 17:44:23.7	358.480	-0.000	-0.530	0.060
2020/01/31 17:44:23.8	358.480	0.010	-0.530	0.060
2020/01/31 17:44:23.9	358.480	0.020	-0.520	0.060
2020/01/31 17:44:24.0	358.480	0.030	-0.510	0.070
2020/01/31 17:44:24.1	358.480	0.040	-0.500	0.070
2020/01/31 17:44:24.2	358.470	0.050	-0.480	0.070
2020/01/31 17:44:24.3	358.460	0.050	-0.460	0.070
2020/01/31 17:44:24.4	358.450	0.060	-0.440	0.080
2020/01/31 17:44:24.5	358.440	0.060	-0.410	0.080
2020/01/31 17:44:24.6	358.430	0.060	-0.380	0.080
2020/01/31 17:44:24.7	358.410	0.060	-0.350	0.090
2020/01/31 17:44:24.8	358.390	0.060	-0.320	0.090
2020/01/31 17:44:24.9	358.360	0.060	-0.280	0.100
2020/01/31 17:44:25.0	358.340	0.060	-0.240	0.100
2020/01/31 17:44:25.1	358.310	0.050	-0.200	0.100
2020/01/31 17:44:25.2	358.280	0.050	-0.150	0.100
2020/01/31 17:44:25.3	358.250	0.040	-0.110	0.100
2020/01/31 17:44:25.4	358.210	0.040	-0.060	0.100
2020/01/31 17:44:25.5	358.170	0.030	-0.020	0.100
2020/01/31 17:44:25.6	358.140	0.030	0.030	0.100
2020/01/31 17:44:25.7	358.100	0.020	0.070	0.100
2020/01/31 17:44:25.8	358.070	0.020	0.120	0.090
2020/01/31 17:44:25.9	358.030	0.010	0.160	0.090
2020/01/31 17:44:26.0	357.990	0.010	0.200	0.080
2020/01/31 17:44:26.1	357.950	0.010	0.230	0.070
2020/01/31 17:44:26.2	357.920	0.000	0.270	0.060
2020/01/31 17:44:26.3	357.890	0.000	0.290	0.050
2020/01/31 17:44:26.4	357.850	0.010	0.310	0.040
2020/01/31 17:44:26.5	357.830	0.010	0.330	0.030
2020/01/31 17:44:26.6	357.800	0.020	0.340	0.020
2020/01/31 17:44:26.7	357.780	0.030	0.350	0.000
2020/01/31 17:44:26.8	357.760	0.040	0.350	-0.010
2020/01/31 17:44:26.9	357.740	0.050	0.340	-0.030
2020/01/31 17:44:27.0	357.730	0.070	0.330	-0.040
2020/01/31 17:44:27.1	357.720	0.090	0.310	-0.060
2020/01/31 17:44:27.2	357.710	0.110	0.290	-0.070
2020/01/31 17:44:27.3	357.710	0.140	0.260	-0.090
2020/01/31 17:44:27.4	357.700	0.170	0.230	-0.100
2020/01/31 17:44:27.5	357.700	0.200	0.200	-0.110
2020/01/31 17:44:27.6	357.710	0.230	0.160	-0.130
2020/01/31 17:44:27.7	357.710	0.260	0.120	-0.140
2020/01/31 17:44:27.8	357.730	0.290	0.080	-0.150
2020/01/31 17:44:27.9	357.740	0.330	0.030	-0.160
2020/01/31 17:44:28.0	357.750	0.360	-0.010	-0.170
2020/01/31 17:44:28.1	357.760	0.400	-0.060	-0.170
2020/01/31 17:44:28.2	357.770	0.440	-0.110	-0.180
2020/01/31 17:44:28.3	357.780	0.470	-0.150	-0.180
2020/01/31 17:44:28.4	357.790	0.500	-0.200	-0.180
2020/01/31 17:44:28.5	357.810	0.530	-0.240	-0.190
2020/01/31 17:44:28.6	357.820	0.560	-0.290	-0.190
2020/01/31 17:44:28.7	357.830	0.590	-0.330	-0.180
2020/01/31 17:44:28.8	357.850	0.620	-0.370	-0.180
2020/01/31 17:44:28.9	357.860	0.640	-0.410	-0.180
2020/01/31 17:44:29.0	357.870	0.650	-0.440	-0.170
2020/01/31 17:44:29.1	357.880	0.670	-0.470	-0.170
2020/01/31 17:44:29.2	357.890	0.680	-0.500	-0.160
2020/01/31 17:44:29.3	357.900	0.680	-0.520	-0.150
2020/01/31 17:44:29.4	357.910	0.680	-0.540	-0.150
2020/01/31 17:44:29.5	357.910	0.680	-0.560	-0.140
2020/01/31 17:44:29.6	357.920	0.670	-0.580	-0.140
2020/01/31 17:44:29.7	357.920	0.650	-0.590	-0.130
2020/01/31 17:44:29.8	357.910	0.630	-0.610	-0.130
2020/01/31 17:44:29.9	357.910	0.610	-0.620	-0.130
2020/01/31 17:44:30.0	357.910	0.580	-0.620	-0.130
2020/01/31 17:44:30.1	357.910	0.540	-0.630	-0.130
2020/01/31 17:44:30.2	357.910	0.500	-0.630	-0.130
2020/01/31 17:44:30.3	357.900	0.460	-0.630	-0.130
2020/01/31 17:44:30.4	357.890	0.410	-0.630	-0.140
2020/01/31 17:44:30.5	357.880	0.350	-0.630	-0.150
2020/01/31 17:44:30.6	357.880	0.300	-0.620	-0.160
2020/01/31 17:44:30.7	357.870	0.240	-0.620	-0.170
2020/01/31 17:44:30.8	357.860	0.170	-0.610	-0.180
2020/01/31 17:44:30.9	357.850	0.110	-0.600	-0.200
2020/01/31 17:44:31.0	357.840	0.040	-0.590	-0.220
2020/01/31 17:44:31.1	357.830	-0.030	-0.580	-0.240
2020/01/31 17:44:31.2	357.820	-0.100	-0.570	-0.270
2020/01/31 17:44:31.3	357.820	-0.170	-0.560	-0.290
2020/01/31 17:44:31.4	357.810	-0.240	-0.560	-0.320
2020/01/31 17:44:31.5	357.810	-0.310	-0.550	-0.350
2020/01/31 17:44:31.6	357.810	-0.370	-0.540	-0.380
2020/01/31 17:44:31.7	357.810	-0.440	-0.530	-0.420
2020/01/31 17:44:31.8	357.800	-0.510	-0.520	-0.450
2020/01/31 17:44:31.9	357.800	-0.570	-0.510	-0.490
2020/01/31 17:44:32.0	357.810	-0.630	-0.510	-0.530
2020/01/31 17:44:32.1	357.820	-0.680	-0.500	-0.570
2020/01/31 17:44:32.2	357.830	-0.730	-0.490	-0.600
2020/01/31 17:44:32.3	357.840	-0.780	-0.480	-0.640
2020/01/31 17:44:32.4	357.860	-0.820	-0.470	-0.680
2020/01/31 17:44:32.5	357.870	-0.860	-0.460	-0.710
2020/01/31 17:44:32.6	357.890	-0.900	-0.450	-0.750
2020/01/31 17:44:32.7	357.900	-0.930	-0.440	-0.770
2020/01/31 17:44:32.8	357.910	-0.950	-0.420	-0.810
2020/01/31 17:44:32.9	357.920	-0.980	-0.400	-0.830
2020/01/31 17:44:33.0	357.930	-0.990	-0.390	-0.850
2020/01/31 17:44:33.1	357.950	-1.000	-0.370	-0.860
2020/01/31 17:44:33.2	357.960	-1.010	-0.340	-0.870
2020/01/31 17:44:33.3	357.970	-1.010	-0.320	-0.880
2020/01/31 17:44:33.4	357.980	-1.000	-0.290	-0.880
2020/01/31 17:44:33.5	357.990	-0.990	-0.270	-0.880
2020/01/31 17:44:33.6	358.000	-0.980	-0.240	-0.870
2020/01/31 17:44:33.7	358.010	-0.960	-0.210	-0.860
2020/01/31 17:44:33.8	358.020	-0.940	-0.180	-0.840
2020/01/31 17:44:33.9	358.030	-0.910	-0.150	-0.820
2020/01/31 17:44:34.0	358.030	-0.880	-0.120	-0.790
2020/01/31 17:44:34.1	358.040	-0.840	-0.090	-0.770
2020/01/31 17:44:34.2	358.040	-0.800	-0.060	-0.730
2020/01/31 17:44:34.3	358.050	-0.760	-0.030	-0.700
2020/01/31 17:44:34.4	358.050	-0.720	0.000	-0.660
2020/01/31 17:44:34.5	358.050	-0.670	0.030	-0.610
2020/01/31 17:44:34.6	358.050	-0.620	0.060	-0.570
2020/01/31 17:44:34.7	358.050	-0.570	0.090	-0.520
2020/01/31 17:44:34.8	358.040	-0.520	0.110	-0.470
2020/01/31 17:44:34.9	358.040	-0.470	0.130	-0.410
2020/01/31 17:44:35.0	358.040	-0.410	0.150	-0.360
2020/01/31 17:44:35.1	358.030	-0.360	0.170	-0.300
2020/01/31 17:44:35.2	358.020	-0.300	0.180	-0.240
2020/01/31 17:44:35.3	358.020	-0.250	0.190	-0.180
2020/01/31 17:44:35.4	358.010	-0.200	0.200	-0.120
2020/01/31 17:44:35.5	358.000	-0.140	0.200	-0.060
2020/01/31 17:44:35.6	357.980	-0.090	0.210	-0.000
2020/01/31 17:44:35.7	357.970	-0.040	0.200	0.060
2020/01/31 17:44:35.8	357.970	0.010	0.200	0.120
2020/01/31 17:44:35.9	357.950	0.060	0.190	0.180
2020/01/31 17:44:36.0	357.940	0.100	0.180	0.240
2020/01/31 17:44:36.1	357.920	0.150	0.170	0.290
2020/01/31 17:44:36.2	357.900	0.190	0.150	0.350
2020/01/31 17:44:36.3	357.890	0.230	0.130	0.400
2020/01/31 17:44:36.4	357.870	0.260	0.110	0.450
2020/01/31 17:44:36.5	357.860	0.300	0.090	0.490
2020/01/31 17:44:36.6	357.850	0.330	0.060	0.540
2020/01/31 17:44:36.7	357.840	0.360	0.030	0.580
2020/01/31 17:44:36.8	357.840	0.390	-0.010	0.610
2020/01/31 17:44:36.9	357.840	0.420	-0.040	0.640
2020/01/31 17:44:37.0	357.830	0.440	-0.080	0.670
2020/01/31 17:44:37.1	357.830	0.470	-0.120	0.690
2020/01/31 17:44:37.2	357.830	0.490	-0.160	0.710
2020/01/31 17:44:37.3	357.840	0.510	-0.200	0.720
2020/01/31 17:44:37.4	357.840	0.520	-0.250	0.730
2020/01/31 17:44:37.5	357.850	0.540	-0.290	0.740
2020/01/31 17:44:37.6	357.850	0.560	-0.330	0.750
2020/01/31 17:44:37.7	357.860	0.570	-0.380	0.750
2020/01/31 17:44:37.8	357.860	0.580	-0.420	0.740
2020/01/31 17:44:37.9	357.870	0.590	-0.460	0.740
2020/01/31 17:44:38.0	357.880	0.600	-0.500	0.740
2020/01/31 17:44:38.1	357.880	0.610	-0.530	0.740
2020/01/31 17:44:38.2	357.890	0.620	-0.570	0.740
2020/01/31 17:44:38.3	357.890	0.620	-0.600	0.730
2020/01/31 17:44:38.4	357.900	0.630	-0.630	0.730
2020/01/31 17:44:38.5	357.900	0.630	-0.650	0.720
2020/01/31 17:44:38.6	357.900	0.630	-0.670	0.720
2020/01/31 17:44:38.7	357.890	0.630	-0.680	0.710
2020/01/31 17:44:38.8	357.900	0.630	-0.700	0.710
2020/01/31 17:44:38.9	357.890	0.630	-0.700	0.700
2020/01/31 17:44:39.0	357.880	0.620	-0.710	0.690
2020/01/31 17:44:39.1	357.870	0.610	-0.710	0.680
2020/01/31 17:44:39.2	357.850	0.610	-0.700	0.670
2020/01/31 17:44:39.3	357.840	0.600	-0.690	0.650
2020/01/31 17:44:39.4	357.820	0.580	-0.680	0.640
2020/01/31 17:44:39.5	357.800	0.570	-0.660	0.620
2020/01/31 17:44:39.6	357.780	0.550	-0.640	0.600
2020/01/31 17:44:39.7	357.760	0.530	-0.620	0.590
2020/01/31 17:44:39.8	357.730	0.510	-0.600	0.560
2020/01/31 17:44:39.9	357.700	0.490	-0.570	0.530
2020/01/31 17:44:40.0	357.680	0.470	-0.540	0.510
2020/01/31 17:44:40.1	357.650	0.440	-0.510	0.480
2020/01/31 17:44:40.2	357.630	0.410	-0.470	0.450
2020/01/31 17:44:40.3	357.600	0.380	-0.440	0.420
2020/01/31 17:44:40.4	357.570	0.350	-0.400	0.390
2020/01/31 17:44:40.5	357.550	0.320	-0.370	0.350
2020/01/31 17:44:40.6	357.520	0.280	-0.330	0.310
2020/01/31 17:44:40.7	357.500	0.250	-0.290	0.270
2020/01/31 17:44:40.8	357.480	0.210	-0.260	0.230
2020/01/31 17:44:40.9	357.460	0.170	-0.220	0.190
2020/01/31 17:44:41.0	357.440	0.130	-0.190	0.150
2020/01/31 17:44:41.1	357.420	0.100	-0.150	0.110
2020/01/31 17:44:41.2	357.400	0.060	-0.120	0.070
2020/01/31 17:44:41.3	357.380	0.020	-0.090	0.020
2020/01/31 17:44:41.4	357.370	-0.020	-0.060	-0.020
2020/01/31 17:44:41.5	357.350	-0.060	-0.030	-0.070
2020/01/31 17:44:41.6	357.340	-0.100	-0.010	-0.110
2020/01/31 17:44:41.7	357.340	-0.140	0.010	-0.160
2020/01/31 17:44:41.8	357.320	-0.170	0.030	-0.200
2020/01/31 17:44:41.9	357.320	-0.210	0.040	-0.250
2020/01/31 17:44:42.0	357.320	-0.240	0.060	-0.290
2020/01/31 17:44:42.1	357.320	-0.270	0.060	-0.330
2020/01/31 17:44:42.2	357.330	-0.290	0.070	-0.380
2020/01/31 17:44:42.3	357.330	-0.320	0.070	-0.410
2020/01/31 17:44:42.4	357.340	-0.340	0.070	-0.450
2020/01/31 17:44:42.5	357.350	-0.360	0.060	-0.490
2020/01/31 17:44:42.6	357.360	-0.380	0.050	-0.520
2020/01/31 17:44:42.7	357.380	-0.390	0.040	-0.550
2020/01/31 17:44:42.8	357.390	-0.400	0.030	-0.580
2020/01/31 17:44:42.9	357.410	-0.410	0.010	-0.610
2020/01/31 17:44:43.0	357.420	-0.410	-0.010	-0.630
2020/01/31 17:44:43.1	357.440	-0.410	-0.040	-0.650
2020/01/31 17:44:43.2	357.460	-0.410	-0.060	-0.670
2020/01/31 17:44:43.3	357.480	-0.400	-0.090	-0.690
2020/01/31 17:44:43.4	357.500	-0.390	-0.120	-0.700
2020/01/31 17:44:43.5	357.520	-0.380	-0.160	-0.710
2020/01/31 17:44:43.6	357.530	-0.370	-0.190	-0.720
2020/01/31 17:44:43.7	357.550	-0.350	-0.220	-0.730
2020/01/31 17:44:43.8	357.580	-0.330	-0.260	-0.730
2020/01/31 17:44:43.9	357.600	-0.310	-0.300	-0.740
2020/01/31 17:44:44.0	357.620	-0.290	-0.330	-0.740
2020/01/31 17:44:44.1	357.640	-0.270	-0.370	-0.740
2020/01/31 17:44:44.2	357.650	-0.240	-0.400	-0.740
2020/01/31 17:44:44.3	357.670	-0.220	-0.430	-0.740
2020/01/31 17:44:44.4	357.690	-0.200	-0.460	-0.730
2020/01/31 17:44:44.5	357.710	-0.170	-0.490	-0.730
2020/01/31 17:44:44.6	357.730	-0.150	-0.510	-0.720
2020/01/31 17:44:44.7	357.750	-0.130	-0.540	-0.710
2020/01/31 17:44:44.8	357.760	-0.100	-0.550	-0.700
2020/01/31 17:44:44.9	357.770	-0.080	-0.570	-0.690
2020/01/31 17:44:45.0	357.790	-0.060	-0.580	-0.670
2020/01/31 17:44:45.1	357.800	-0.040	-0.580	-0.650
2020/01/31 17:44:45.2	357.820	-0.030	-0.590	-0.630
2020/01/31 17:44:45.3	357.830	-0.010	-0.580	-0.600
2020/01/31 17:44:45.4	357.840	-0.000	-0.580	-0.570
2020/01/31 17:44:45.5	357.850	0.010	-0.570	-0.540
2020/01/31 17:44:45.6	357.850	0.020	-0.550	-0.500
2020/01/31 17:44:45.7	357.860	0.020	-0.530	-0.470
2020/01/31 17:44:45.8	357.860	0.020	-0.500	-0.430
2020/01/31 17:44:45.9	357.860	0.020	-0.470	-0.390
2020/01/31 17:44:46.0	357.860	0.010	-0.440	-0.350
2020/01/31 17:44:46.1	357.860	0.010	-0.410	-0.310
2020/01/31 17:44:46.2	357.860	-0.000	-0.370	-0.270
2020/01/31 17:44:46.3	357.860	-0.020	-0.320	-0.230
2020/01/31 17:44:46.4	357.860	-0.030	-0.280	-0.190
2020/01/31 17:44:46.5	357.860	-0.050	-0.240	-0.160
2020/01/31 17:44:46.6	357.850	-0.070	-0.190	-0.120
2020/01/31 17:44:46.7	357.850	-0.090	-0.140	-0.090
2020/01/31 17:44:46.8	357.840	-0.110	-0.100	-0.060
2020/01/31 17:44:46.9	357.840	-0.140	-0.050	-0.030
2020/01/31 17:44:47.0	357.830	-0.160	-0.010	0.000
2020/01/31 17:44:47.1	357.820	-0.180	0.030	0.030
2020/01/31 17:44:47.2	357.820	-0.210	0.070	0.060
2020/01/31 17:44:47.3	357.810	-0.230	0.110	0.080
2020/01/31 17:44:47.4	357.800	-0.250	0.150	0.110
2020/01/31 17:44:47.5	357.790	-0.280	0.180	0.130
2020/01/31 17:44:47.6	357.780	-0.300	0.200	0.150
2020/01/31 17:44:47.7	357.770	-0.310	0.220	0.170
2020/01/31 17:44:47.8	357.770	-0.330	0.240	0.190
2020/01/31 17:44:47.9	357.760	-0.340	0.250	0.210
2020/01/31 17:44:48.0	357.740	-0.360	0.260	0.220
2020/01/31 17:44:48.1	357.730	-0.360	0.260	0.240
2020/01/31 17:44:48.2	357.720	-0.370	0.260	0.250
2020/01/31 17:44:48.3	357.700	-0.370	0.250	0.270
2020/01/31 17:44:48.4	357.690	-0.370	0.240	0.280
2020/01/31 17:44:48.5	357.670	-0.360	0.220	0.290
2020/01/31 17:44:48.6	357.660	-0.350	0.200	0.300
2020/01/31 17:44:48.7	357.650	-0.340	0.170	0.310
2020/01/31 17:44:48.8	357.630	-0.330	0.140	0.320
2020/01/31 17:44:48.9	357.610	-0.310	0.110	0.320
2020/01/31 17:44:49.0	357.600	-0.280	0.070	0.330
2020/01/31 17:44:49.1	357.590	-0.260	0.030	0.340
2020/01/31 17:44:49.2	357.570	-0.230	-0.010	0.340
2020/01/31 17:44:49.3	357.560	-0.200	-0.060	0.340
2020/01/31 17:44:49.4	357.550	-0.170	-0.100	0.350
2020/01/31 17:44:49.5	357.540	-0.130	-0.150	0.350
2020/01/31 17:44:49.6	357.520	-0.090	-0.190	0.350
2020/01/31 17:44:49.7	357.510	-0.050	-0.240	0.360
2020/01/31 17:44:49.8	357.520	-0.010	-0.290	0.360
2020/01/31 17:44:49.9	357.510	0.030	-0.330	0.360
2020/01/31 17:44:50.0	357.500	0.070	-0.380	0.370
2020/01/31 17:44:50.1	357.490	0.110	-0.420	0.370
2020/01/31 17:44:50.2	357.470	0.150	-0.460	0.380
2020/01/31 17:44:50.3	357.460	0.190	-0.500	0.390
2020/01/31 17:44:50.4	357.450	0.230	-0.540	0.400
2020/01/31 17:44:50.5	357.430	0.270	-0.570	0.420
2020/01/31 17:44:50.6	357.420	0.310	-0.600	0.430
2020/01/31 17:44:50.7	357.400	0.340	-0.620	0.450
2020/01/31 17:44:50.8	357.390	0.370	-0.650	0.460
2020/01/31 17:44:50.9	357.370	0.400	-0.660	0.480
2020/01/31 17:44:51.0	357.350	0.420	-0.670	0.500
2020/01/31 17:44:51.1	357.330	0.440	-0.680	0.510
2020/01/31 17:44:51.2	357.300	0.460	-0.690	0.520
2020/01/31 17:44:51.3	357.280	0.470	-0.690	0.540
2020/01/31 17:44:51.4	357.260	0.480	-0.680	0.550
2020/01/31 17:44:51.5	357.240	0.490	-0.680	0.550
2020/01/31 17:44:51.6	357.220	0.490	-0.670	0.560
2020/01/31 17:44:51.7	357.200	0.490	-0.650	0.560
2020/01/31 17:44:51.8	357.180	0.490	-0.630	0.550
2020/01/31 17:44:51.9	357.160	0.480	-0.620	0.550
2020/01/31 17:44:52.0	357.150	0.470	-0.600	0.540
2020/01/31 17:44:52.1	357.140	0.460	-0.580	0.520
2020/01/31 17:44:52.2	357.130	0.440	-0.550	0.510
2020/01/31 17:44:52.3	357.120	0.430	-0.530	0.490
2020/01/31 17:44:52.4	357.120	0.410	-0.510	0.460
2020/01/31 17:44:52.5	357.120	0.390	-0.490	0.430
2020/01/31 17:44:52.6	357.120	0.370	-0.460	0.400
2020/01/31 17:44:52.7	357.120	0.340	-0.440	0.370
2020/01/31 17:44:52.8	357.140	0.320	-0.420	0.330
2020/01/31 17:44:52.9	357.140	0.300	-0.400	0.290
2020/01/31 17:44:53.0	357.150	0.270	-0.380	0.260
2020/01/31 17:44:53.1	357.160	0.250	-0.360	0.220
2020/01/31 17:44:53.2	357.170	0.230	-0.340	0.170
2020/01/31 17:44:53.3	357.190	0.200	-0.320	0.130
2020/01/31 17:44:53.4	357.200	0.180	-0.300	0.090
2020/01/31 17:44:53.5	357.210	0.160	-0.280	0.050
2020/01/31 17:44:53.6	357.230	0.130	-0.260	0.010
2020/01/31 17:44:53.7	357.240	0.110	-0.250	-0.030
2020/01/31 17:44:53.8	357.250	0.090	-0.230	-0.070
2020/01/31 17:44:53.9	357.270	0.070	-0.210	-0.100
2020/01/31 17:44:54.0	357.280	0.050	-0.190	-0.140
2020/01/31 17:44:54.1	357.300	0.030	-0.170	-0.170
2020/01/31 17:44:54.2	357.310	0.010	-0.150	-0.200
2020/01/31 17:44:54.3	357.330	-0.000	-0.130	-0.230
2020/01/31 17:44:54.4	357.350	-0.020	-0.120	-0.260
2020/01/31 17:44:54.5	357.360	-0.040	-0.100	-0.280
2020/01/31 17:44:54.6	357.380	-0.050	-0.080	-0.310
2020/01/31 17:44:54.7	357.390	-0.070	-0.060	-0.330
2020/01/31 17:44:54.8	357.380	-0.080	-0.050	-0.350
2020/01/31 17:44:54.9	357.400	-0.100	-0.030	-0.360
2020/01/31 17:44:55.0	357.410	-0.110	-0.020	-0.380
2020/01/31 17:44:55.1	357.420	-0.120	-0.010	-0.390
2020/01/31 17:44:55.2	357.440	-0.130	0.000	-0.400
2020/01/31 17:44:55.3	357.450	-0.150	0.010	-0.410
2020/01/31 17:44:55.4	357.460	-0.160	0.020	-0.420
2020/01/31 17:44:55.5	357.470	-0.170	0.020	-0.430
2020/01/31 17:44:55.6	357.490	-0.180	0.020	-0.430
2020/01/31 17:44:55.7	357.500	-0.190	0.020	-0.440
2020/01/31 17:44:55.8	357.510	-0.200	0.010	-0.440
2020/01/31 17:44:55.9	357.520	-0.210	0.000	-0.440
2020/01/31 17:44:56.0	357.530	-0.210	-0.010	-0.450
2020/01/31 17:44:56.1	357.550	-0.220	-0.020	-0.450
2020/01/31 17:44:56.2	357.560	-0.230	-0.040	-0.450
2020/01/31 17:44:56.3	357.580	-0.230	-0.060	-0.450
2020/01/31 17:44:56.4	357.590	-0.240	-0.080	-0.450
2020/01/31 17:44:56.5	357.600	-0.240	-0.110	-0.450
2020/01/31 17:44:56.6	357.620	-0.240	-0.140	-0.450
2020/01/31 17:44:56.7	357.630	-0.240	-0.170	-0.450
2020/01/31 17:44:56.8	357.650	-0.240	-0.200	-0.450
2020/01/31 17:44:56.9	357.660	-0.240	-0.230	-0.450
2020/01/31 17:44:57.0	357.670	-0.240	-0.270	-0.450
2020/01/31 17:44:57.1	357.690	-0.230	-0.300	-0.460
2020/01/31 17:44:57.2	357.700	-0.230	-0.330	-0.460
2020/01/31 17:44:57.3	357.710	-0.220	-0.370	-0.460
2020/01/31 17:44:57.4	357.710	-0.220	-0.400	-0.460
2020/01/31 17:44:57.5	357.720	-0.210	-0.430	-0.460
2020/01/31 17:44:57.6	357.730	-0.200	-0.460	-0.450
2020/01/31 17:44:57.7	357.730	-0.190	-0.490	-0.450
2020/01/31 17:44:57.8	357.730	-0.170	-0.510	-0.440
2020/01/31 17:44:57.9	357.730	-0.160	-0.530	-0.430
2020/01/31 17:44:58.0	357.730	-0.150	-0.550	-0.420
2020/01/31 17:44:58.1	357.730	-0.140	-0.570	-0.400
2020/01/31 17:44:58.2	357.720	-0.120	-0.580	-0.380
2020/01/31 17:44:58.3	357.710	-0.110	-0.580	-0.350
2020/01/31 17:44:58.4	357.690	-0.100	-0.580	-0.320
2020/01/31 17:44:58.5	357.670	-0.080	-0.580	-0.290
2020/01/31 17:44:58.6	357.660	-0.070	-0.570	-0.260
2020/01/31 17:44:58.7	357.630	-0.060	-0.550	-0.220
2020/01/31 17:44:58.8	357.610	-0.050	-0.540	-0.180
2020/01/31 17:44:58.9	357.590	-0.030	-0.520	-0.140
2020/01/31 17:44:59.0	357.560	-0.020	-0.490	-0.100
2020/01/31 17:44:59.1	357.530	-0.010	-0.460	-0.060
2020/01/31 17:44:59.2	357.500	-0.010	-0.430	-0.020
2020/01/31 17:44:59.3	357.470	0.000	-0.390	0.020
2020/01/31 17:44:59.4	357.440	0.010	-0.350	0.060
2020/01/31 17:44:59.5	357.410	0.010	-0.310	0.100
2020/01/31 17:44:59.6	357.370	0.020	-0.260	0.130
2020/01/31 17:44:59.7	357.340	0.020	-0.220	0.170
2020/01/31 17:44:59.8	357.310	0.020	-0.170	0.200
2020/01/31 17:44:59.9	357.270	0.020	-0.130	0.230
2020/01/31 17:45:00.0	357.240	0.020	-0.080	0.260
2020/01/31 17:45:00.1	357.210	0.020	-0.030	0.290
2020/01/31 17:45:00.2	357.180	0.020	0.010	0.310
2020/01/31 17:45:00.3	357.140	0.020	0.060	0.330
2020/01/31 17:45:00.4	357.120	0.020	0.100	0.350
2020/01/31 17:45:00.5	357.090	0.020	0.140	0.370
2020/01/31 17:45:00.6	357.060	0.020	0.170	0.380
2020/01/31 17:45:00.7	357.040	0.020	0.200	0.400
2020/01/31 17:45:00.8	357.010	0.010	0.230	0.400
2020/01/31 17:45:00.9	356.990	0.010	0.260	0.410
2020/01/31 17:45:01.0	356.970	0.010	0.280	0.410
2020/01/31 17:45:01.1	356.950	0.010	0.290	0.420
2020/01/31 17:45:01.2	356.940	0.010	0.300	0.420
2020/01/31 17:45:01.3	356.930	0.010	0.300	0.410
2020/01/31 17:45:01.4	356.920	0.010	0.300	0.410
2020/01/31 17:45:01.5	356.920	0.010	0.300	0.400
2020/01/31 17:45:01.6	356.920	0.010	0.280	0.390
2020/01/31 17:45:01.7	356.910	0.020	0.270	0.380
2020/01/31 17:45:01.8	356.910	0.020	0.240	0.370
2020/01/31 17:45:01.9	356.910	0.020	0.220	0.360
2020/01/31 17:45:02.0	356.920	0.020	0.190	0.350
2020/01/31 17:45:02.1	356.920	0.030	0.150	0.330
2020/01/31 17:45:02.2	356.920	0.030	0.110	0.320
2020/01/31 17:45:02.3	356.920	0.030	0.070	0.300
2020/01/31 17:45:02.4	356.920	0.040	0.030	0.280
2020/01/31 17:45:02.5	356.930	0.040	-0.020	0.260
2020/01/31 17:45:02.6	356.930	0.040	-0.060	0.240
2020/01/31 17:45:02.7	356.930	0.050	-0.110	0.210
2020/01/31 17:45:02.8	356.930	0.050	-0.160	0.190
2020/01/31 17:45:02.9	356.930	0.050	-0.210	0.160
2020/01/31 17:45:03.0	356.930	0.050	-0.260	0.130
2020/01/31 17:45:03.1	356.940	0.060	-0.320	0.100
2020/01/31 17:45:03.2	356.940	0.060	-0.370	0.070
2020/01/31 17:45:03.3	356.940	0.060	-0.420	0.040
2020/01/31 17:45:03.4	356.940	0.060	-0.470	0.010
2020/01/31 17:45:03.5	356.940	0.060	-0.510	-0.020
2020/01/31 17:45:03.6	356.940	0.060	-0.560	-0.050
2020/01/31 17:45:03.7	356.950	0.070	-0.600	-0.080
2020/01/31 17:45:03.8	356.960	0.070	-0.640	-0.110
2020/01/31 17:45:03.9	356.960	0.070	-0.680	-0.140
2020/01/31 17:45:04.0	356.970	0.070	-0.720	-0.170
2020/01/31 17:45:04.1	356.980	0.070	-0.750	-0.200
2020/01/31 17:45:04.2	356.980	0.070	-0.780	-0.220
2020/01/31 17:45:04.3	356.990	0.070	-0.800	-0.250
2020/01/31 17:45:04.4	357.000	0.070	-0.820	-0.270
2020/01/31 17:45:04.5	357.010	0.070	-0.840	-0.290
2020/01/31 17:45:04.6	357.020	0.070	-0.850	-0.310
2020/01/31 17:45:04.7	357.040	0.070	-0.850	-0.330
2020/01/31 17:45:04.8	357.060	0.060	-0.850	-0.350
2020/01/31 17:45:04.9	357.070	0.060	-0.850	-0.360
2020/01/31 17:45:05.0	357.080	0.060	-0.830	-0.370
2020/01/31 17:45:05.1	357.090	0.060	-0.820	-0.380
2020/01/31 17:45:05.2	357.090	0.060	-0.800	-0.380
2020/01/31 17:45:05.3	357.100	0.050	-0.770	-0.380
2020/01/31 17:45:05.4	357.100	0.050	-0.740	-0.380
2020/01/31 17:45:05.5	357.110	0.050	-0.700	-0.370
2020/01/31 17:45:05.6	357.110	0.040	-0.660	-0.360
2020/01/31 17:45:05.7	357.100	0.040	-0.620	-0.350
2020/01/31 17:45:05.8	357.100	0.030	-0.570	-0.330
2020/01/31 17:45:05.9	357.100	0.030	-0.520	-0.310
2020/01/31 17:45:06.0	357.090	0.020	-0.460	-0.290
2020/01/31 17:45:06.1	357.080	0.010	-0.400	-0.260
2020/01/31 17:45:06.2	357.070	0.010	-0.340	-0.230
2020/01/31 17:45:06.3	357.050	-0.000	-0.280	-0.200
2020/01/31 17:45:06.4	357.040	-0.010	-0.220	-0.170
2020/01/31 17:45:06.5	357.020	-0.020	-0.160	-0.130
2020/01/31 17:45:06.6	357.010	-0.020	-0.100	-0.100
2020/01/31 17:45:06.7	356.990	-0.030	-0.050	-0.060
2020/01/31 17:45:06.8	356.970	-0.040	0.010	-0.030
2020/01/31 17:45:06.9	356.960	-0.040	0.060	0.010
2020/01/31 17:45:07.0	356.940	-0.050	0.110	0.050
2020/01/31 17:45:07.1	356.920	-0.050	0.160	0.090
2020/01/31 17:45:07.2	356.910	-0.060	0.200	0.120
2020/01/31 17:45:07.3	356.890	-0.060	0.230	0.160
2020/01/31 17:45:07.4	356.880	-0.060	0.260	0.190
2020/01/31 17:45:07.5	356.870	-0.060	0.280	0.220
2020/01/31 17:45:07.6	356.860	-0.060	0.290	0.250
2020/01/31 17:45:07.7	356.850	-0.060	0.300	0.280
2020/01/31 17:45:07.8	356.840	-0.060	0.300	0.310
2020/01/31 17:45:07.9	356.840	-0.060	0.290	0.330
2020/01/31 17:45:08.0	356.840	-0.050	0.280	0.350
2020/01/31 17:45:08.1	356.840	-0.050	0.260	0.360
2020/01/31 17:45:08.2	356.840	-0.040	0.240	0.380
2020/01/31 17:45:08.3	356.850	-0.030	0.200	0.390
2020/01/31 17:45:08.4	356.860	-0.030	0.170	0.390
2020/01/31 17:45:08.5	356.860	-0.020	0.120	0.390
2020/01/31 17:45:08.6	356.870	-0.010	0.070	0.390
2020/01/31 17:45:08.7	356.890	0.000	0.020	0.380
2020/01/31 17:45:08.8	356.900	0.010	-0.030	0.370
2020/01/31 17:45:08.9	356.910	0.020	-0.090	0.360
2020/01/31 17:45:09.0	356.930	0.030	-0.160	0.340
2020/01/31 17:45:09.1	356.940	0.050	-0.220	0.320
2020/01/31 17:45:09.2	356.960	0.060	-0.280	0.300
2020/01/31 17:45:09.3	356.970	0.070	-0.350	0.270
2020/01/31 17:45:09.4	356.990	0.080	-0.410	0.250
2020/01/31 17:45:09.5	357.010	0.090	-0.470	0.220
2020/01/31 17:45:09.6	357.020	0.100	-0.530	0.200
2020/01/31 17:45:09.7	357.030	0.110	-0.580	0.170
2020/01/31 17:45:09.8	357.040	0.110	-0.630	0.140
2020/01/31 17:45:09.9	357.060	0.120	-0.680	0.110
2020/01/31 17:45:10.0	357.070	0.120	-0.710	0.090
2020/01/31 17:45:10.1	357.080	0.130	-0.750	0.070
2020/01/31 17:45:10.2	357.080	0.130	-0.770	0.050
2020/01/31 17:45:10.3	357.090	0.130	-0.790	0.030
2020/01/31 17:45:10.4	357.100	0.120	-0.800	0.010
2020/01/31 17:45:10.5	357.100	0.120	-0.800	-0.010
2020/01/31 17:45:10.6	357.100	0.110	-0.790	-0.020
2020/01/31 17:45:10.7	357.110	0.100	-0.780	-0.040
2020/01/31 17:45:10.8	357.120	0.090	-0.760	-0.050
2020/01/31 17:45:10.9	357.120	0.080	-0.730	-0.060
2020/01/31 17:45:11.0	357.120	0.070	-0.700	-0.070
2020/01/31 17:45:11.1	357.110	0.050	-0.660	-0.080
2020/01/31 17:45:11.2	357.110	0.030	-0.610	-0.080
2020/01/31 17:45:11.3	357.110	0.010	-0.570	-0.090
2020/01/31 17:45:11.4	357.100	-0.010	-0.510	-0.090
2020/01/31 17:45:11.5	357.100	-0.040	-0.460	-0.090
2020/01/31 17:45:11.6	357.090	-0.060	-0.400	-0.090
2020/01/31 17:45:11.7	357.080	-0.090	-0.340	-0.090
2020/01/31 17:45:11.8	357.070	-0.110	-0.280	-0.090
2020/01/31 17:45:11.9	357.060	-0.140	-0.220	-0.090
2020/01/31 17:45:12.0	357.050	-0.170	-0.160	-0.080
2020/01/31 17:45:12.1	357.030	-0.190	-0.100	-0.080
2020/01/31 17:45:12.2	357.010	-0.220	-0.040	-0.060
2020/01/31 17:45:12.3	356.990	-0.240	0.020	-0.050
2020/01/31 17:45:12.4	356.970	-0.270	0.070	-0.040
2020/01/31 17:45:12.5	356.940	-0.290	0.120	-0.020
2020/01/31 17:45:12.6	356.920	-0.310	0.170	-0.000
2020/01/31 17:45:12.7	356.890	-0.330	0.220	0.020
2020/01/31 17:45:12.8	356.870	-0.350	0.260	0.040
2020/01/31 17:45:12.9	356.840	-0.360	0.290	0.070
2020/01/31 17:45:13.0	356.810	-0.370	0.320	0.090
2020/01/31 17:45:13.1	356.780	-0.380	0.350	0.120
2020/01/31 17:45:13.2	356.750	-0.390	0.370	0.140
2020/01/31 17:45:13.3	356.720	-0.390	0.380	0.170
2020/01/31 17:45:13.4	356.690	-0.390	0.390	0.190
2020/01/31 17:45:13.5	356.660	-0.380	0.400	0.220
2020/01/31 17:45:13.6	356.630	-0.370	0.400	0.250
2020/01/31 17:45:13.7	356.610	-0.360	0.390	0.270
2020/01/31 17:45:13.8	356.570	-0.340	0.370	0.290
2020/01/31 17:45:13.9	356.550	-0.320	0.360	0.310
2020/01/31 17:45:14.0	356.530	-0.290	0.330	0.330
2020/01/31 17:45:14.1	356.510	-0.270	0.300	0.350
2020/01/31 17:45:14.2	356.490	-0.230	0.270	0.370
2020/01/31 17:45:14.3	356.480	-0.200	0.230	0.380
2020/01/31 17:45:14.4	356.460	-0.160	0.190	0.390
2020/01/31 17:45:14.5	356.450	-0.130	0.140	0.400
2020/01/31 17:45:14.6	356.440	-0.090	0.090	0.410
2020/01/31 17:45:14.7	356.440	-0.050	0.040	0.420
2020/01/31 17:45:14.8	356.420	-0.000	-0.010	0.420
2020/01/31 17:45:14.9	356.420	0.040	-0.070	0.420
2020/01/31 17:45:15.0	356.410	0.080	-0.130	0.420
2020/01/31 17:45:15.1	356.410	0.120	-0.190	0.420
2020/01/31 17:45:15.2	356.410	0.160	-0.240	0.410
2020/01/31 17:45:15.3	356.410	0.200	-0.300	0.410
2020/01/31 17:45:15.4	356.420	0.240	-0.360	0.400
2020/01/31 17:45:15.5	356.420	0.270	-0.420	0.390
2020/01/31 17:45:15.6	356.430	0.310	-0.470	0.380
2020/01/31 17:45:15.7	356.430	0.340	-0.530	0.370
2020/01/31 17:45:15.8	356.450	0.360	-0.580	0.360
2020/01/31 17:45:15.9	356.450	0.390	-0.620	0.340
2020/01/31 17:45:16.0	356.460	0.410	-0.670	0.330
2020/01/31 17:45:16.1	356.460	0.430	-0.710	0.310
2020/01/31 17:45:16.2	356.470	0.440	-0.750	0.300
2020/01/31 17:45:16.3	356.480	0.450	-0.790	0.280
2020/01/31 17:45:16.4	356.480	0.460	-0.820	0.260
2020/01/31 17:45:16.5	356.490	0.460	-0.850	0.250
2020/01/31 17:45:16.6	356.500	0.460	-0.870	0.230
2020/01/31 17:45:16.7	356.510	0.460	-0.890	0.210
2020/01/31 17:45:16.8	356.510	0.450	-0.910	0.180
2020/01/31 17:45:16.9	356.520	0.440	-0.920	0.160
2020/01/31 17:45:17.0	356.530	0.430	-0.930	0.140
2020/01/31 17:45:17.1	356.540	0.410	-0.930	0.120
2020/01/31 17:45:17.2	356.550	0.390	-0.930	0.090
2020/01/31 17:45:17.3	356.560	0.370	-0.920	0.070
2020/01/31 17:45:17.4	356.570	0.350	-0.910	0.040
2020/01/31 17:45:17.5	356.580	0.320	-0.890	0.020
2020/01/31 17:45:17.6	356.590	0.300	-0.870	-0.010
2020/01/31 17:45:17.7	356.600	0.270	-0.850	-0.030
2020/01/31 17:45:17.8	356.630	0.240	-0.820	-0.050
2020/01/31 17:45:17.9	356.640	0.210	-0.790	-0.070
2020/01/31 17:45:18.0	356.650	0.180	-0.760	-0.100
2020/01/31 17:45:18.1	356.660	0.150	-0.720	-0.120
2020/01/31 17:45:18.2	356.680	0.120	-0.680	-0.140
2020/01/31 17:45:18.3	356.690	0.090	-0.640	-0.160
2020/01/31 17:45:18.4	356.700	0.060	-0.590	-0.180
2020/01/31 17:45:18.5	356.710	0.040	-0.540	-0.190
2020/01/31 17:45:18.6	356.720	0.010	-0.500	-0.210
2020/01/31 17:45:18.7	356.730	-0.010	-0.450	-0.220
2020/01/31 17:45:18.8	356.730	-0.040	-0.390	-0.240
2020/01/31 17:45:18.9	356.740	-0.060	-0.340	-0.250
2020/01/31 17:45:19.0	356.750	-0.080	-0.290	-0.260
2020/01/31 17:45:19.1	356.760	-0.100	-0.240	-0.260
2020/01/31 17:45:19.2	356.770	-0.110	-0.190	-0.270
2020/01/31 17:45:19.3	356.770	-0.130	-0.150	-0.270
2020/01/31 17:45:19.4	356.780	-0.140	-0.100	-0.280
2020/01/31 17:45:19.5	356.790	-0.150	-0.050	-0.280
2020/01/31 17:45:19.6	356.790	-0.160	-0.010	-0.280
2020/01/31 17:45:19.7	356.800	-0.170	0.030	-0.280
2020/01/31 17:45:19.8	356.800	-0.180	0.060	-0.280
2020/01/31 17:45:19.9	356.800	-0.180	0.100	-0.280
2020/01/31 17:45:20.0	356.810	-0.190	0.130	-0.280
2020/01/31 17:45:20.1	356.810	-0.190	0.160	-0.280
2020/01/31 17:45:20.2	356.820	-0.200	0.190	-0.270
2020/01/31 17:45:20.3	356.820	-0.200	0.210	-0.270
2020/01/31 17:45:20.4	356.820	-0.200	0.230	-0.260
2020/01/31 17:45:20.5	356.820	-0.210	0.250	-0.260
2020/01/31 17:45:20.6	356.820	-0.210	0.260	-0.250
2020/01/31 17:45:20.7	356.820	-0.210	0.280	-0.240
2020/01/31 17:45:20.8	356.820	-0.210	0.290	-0.230
2020/01/31 17:45:20.9	356.810	-0.210	0.290	-0.220
2020/01/31 17:45:21.0	356.810	-0.210	0.300	-0.210
2020/01/31 17:45:21.1	356.800	-0.210	0.300	-0.200
2020/01/31 17:45:21.2	356.800	-0.220	0.300	-0.180
2020/01/31 17:45:21.3	356.790	-0.220	0.290	-0.170
2020/01/31 17:45:21.4	356.780	-0.220	0.290	-0.150
2020/01/31 17:45:21.5	356.770	-0.220	0.280	-0.140
2020/01/31 17:45:21.6	356.760	-0.220	0.270	-0.120
2020/01/31 17:45:21.7	356.740	-0.220	0.250	-0.100
2020/01/31 17:45:21.8	356.720	-0.220	0.240	-0.080
2020/01/31 17:45:21.9	356.710	-0.220	0.220	-0.060
2020/01/31 17:45:22.0	356.690	-0.210	0.200	-0.040
2020/01/31 17:45:22.1	356.680	-0.210	0.180	-0.020
2020/01/31 17:45:22.2	356.660	-0.200	0.160	0.010
2020/01/31 17:45:22.3	356.650	-0.200	0.140	0.030
2020/01/31 17:45:22.4	356.630	-0.190	0.110	0.060
2020/01/31 17:45:22.5	356.620	-0.180	0.090	0.090
2020/01/31 17:45:22.6	356.600	-0.170	0.060	0.120
2020/01/31 17:45:22.7	356.590	-0.160	0.030	0.140
2020/01/31 17:45:22.8	356.570	-0.150	-0.000	0.170
2020/01/31 17:45:22.9	356.560	-0.140	-0.040	0.200
2020/01/31 17:45:23.0	356.550	-0.120	-0.070	0.220
2020/01/31 17:45:23.1	356.540	-0.100	-0.110	0.250
2020/01/31 17:45:23.2	356.540	-0.080	-0.150	0.270
2020/01/31 17:45:23.3	356.540	-0.060	-0.190	0.290
2020/01/31 17:45:23.4	356.530	-0.040	-0.230	0.310
2020/01/31 17:45:23.5	356.540	-0.020	-0.270	0.330
2020/01/31 17:45:23.6	356.540	0.010	-0.310	0.350
2020/01/31 17:45:23.7	356.540	0.030	-0.360	0.360
2020/01/31 17:45:23.8	356.550	0.060	-0.400	0.370
2020/01/31 17:45:23.9	356.550	0.090	-0.440	0.370
2020/01/31 17:45:24.0	356.560	0.110	-0.490	0.380
2020/01/31 17:45:24.1	356.560	0.140	-0.530	0.380
2020/01/31 17:45:24.2	356.570	0.160	-0.560	0.380
2020/01/31 17:45:24.3	356.570	0.190	-0.600	0.380
2020/01/31 17:45:24.4	356.580	0.210	-0.630	0.380
2020/01/31 17:45:24.5	356.580	0.230	-0.660	0.370
2020/01/31 17:45:24.6	356.580	0.250	-0.690	0.370
2020/01/31 17:45:24.7	356.580	0.270	-0.710	0.360
2020/01/31 17:45:24.8	356.590	0.290	-0.720	0.350
2020/01/31 17:45:24.9	356.590	0.300	-0.740	0.340
2020/01/31 17:45:25.0	356.580	0.310	-0.740	0.340
2020/01/31 17:45:25.1	356.570	0.310	-0.740	0.330
2020/01/31 17:45:25.2	356.570	0.310	-0.740	0.320
2020/01/31 17:45:25.3	356.560	0.310	-0.730	0.310
2020/01/31 17:45:25.4	356.550	0.310	-0.720	0.300
2020/01/31 17:45:25.5	356.540	0.300	-0.700	0.300
2020/01/31 17:45:25.6	356.530	0.290	-0.680	0.290
2020/01/31 17:45:25.7	356.530	0.270	-0.650	0.280
2020/01/31 17:45:25.8	356.530	0.250	-0.620	0.280
2020/01/31 17:45:25.9	356.520	0.230	-0.590	0.270
2020/01/31 17:45:26.0	356.510	0.210	-0.550	0.260
2020/01/31 17:45:26.1	356.500	0.180	-0.510	0.260
2020/01/31 17:45:26.2	356.490	0.150	-0.470	0.250
2020/01/31 17:45:26.3	356.490	0.120	-0.420	0.250
2020/01/31 17:45:26.4	356.480	0.090	-0.380	0.240
2020/01/31 17:45:26.5	356.480	0.050	-0.330	0.230
2020/01/31 17:45:26.6	356.470	0.010	-0.290	0.220
2020/01/31 17:45:26.7	356.470	-0.020	-0.250	0.210
2020/01/31 17:45:26.8	356.470	-0.060	-0.210	0.200
2020/01/31 17:45:26.9	356.470	-0.090	-0.170	0.180
2020/01/31 17:45:27.0	356.480	-0.130	-0.140	0.160
2020/01/31 17:45:27.1	356.490	-0.160	-0.110	0.140
2020/01/31 17:45:27.2	356.500	-0.200	-0.090	0.110
2020/01/31 17:45:27.3	356.510	-0.230	-0.070	0.080
2020/01/31 17:45:27.4	356.530	-0.250	-0.050	0.050
2020/01/31 17:45:27.5	356.550	-0.280	-0.040	0.010
2020/01/31 17:45:27.6	356.570	-0.300	-0.040	-0.030
2020/01/31 17:45:27.7	356.590	-0.320	-0.040	-0.060
2020/01/31 17:45:27.8	356.610	-0.340	-0.040	-0.110
2020/01/31 17:45:27.9	356.630	-0.350	-0.040	-0.150
2020/01/31 17:45:28.0	356.650	-0.360	-0.050	-0.190
2020/01/31 17:45:28.1	356.670	-0.360	-0.070	-0.230
2020/01/31 17:45:28.2	356.690	-0.370	-0.080	-0.260
2020/01/31 17:45:28.3	356.710	-0.360	-0.100	-0.290
2020/01/31 17:45:28.4	356.730	-0.360	-0.110	-0.320
2020/01/31 17:45:28.5	356.740	-0.350	-0.130	-0.340
2020/01/31 17:45:28.6	356.750	-0.340	-0.140	-0.360
2020/01/31 17:45:28.7	356.750	-0.330	-0.160	-0.380
2020/01/31 17:45:28.8	356.760	-0.310	-0.170	-0.390
2020/01/31 17:45:28.9	356.760	-0.300	-0.180	-0.390
2020/01/31 17:45:29.0	356.760	-0.280	-0.190	-0.390
2020/01/31 17:45:29.1	356.750	-0.260	-0.200	-0.390
2020/01/31 17:45:29.2	356.740	-0.230	-0.200	-0.380
2020/01/31 17:45:29.3	356.730	-0.210	-0.200	-0.370
2020/01/31 17:45:29.4	356.710	-0.190	-0.200	-0.350
2020/01/31 17:45:29.5	356.690	-0.160	-0.190	-0.330
2020/01/31 17:45:29.6	356.670	-0.140	-0.190	-0.300
2020/01/31 17:45:29.7	356.650	-0.110	-0.180	-0.270
2020/01/31 17:45:29.8	356.630	-0.090	-0.160	-0.240
2020/01/31 17:45:29.9	356.610	-0.060	-0.150	-0.210
2020/01/31 17:45:30.0	356.580	-0.040	-0.140	-0.170
2020/01/31 17:45:30.1	356.560	-0.010	-0.120	-0.140
2020/01/31 17:45:30.2	356.530	0.010	-0.110	-0.100
2020/01/31 17:45:30.3	356.500	0.030	-0.090	-0.060
2020/01/31 17:45:30.4	356.480	0.050	-0.080	-0.030
2020/01/31 17:45:30.5	356.450	0.070	-0.060	0.010
2020/01/31 17:45:30.6	356.430	0.090	-0.050	0.050
2020/01/31 17:45:30.7	356.400	0.110	-0.040	0.080
2020/01/31 17:45:30.8	356.390	0.120	-0.040	0.120
2020/01/31 17:45:30.9	356.370	0.140	-0.030	0.150
2020/01/31 17:45:31.0	356.350	0.150	-0.030	0.180
2020/01/31 17:45:31.1	356.340	0.160	-0.030	0.210
2020/01/31 17:45:31.2	356.320	0.170	-0.040	0.230
2020/01/31 17:45:31.3	356.310	0.180	-0.040	0.250
2020/01/31 17:45:31.4	356.310	0.190	-0.050	0.270
2020/01/31 17:45:31.5	356.300	0.200	-0.070	0.280
2020/01/31 17:45:31.6	356.300	0.200	-0.080	0.290
2020/01/31 17:45:31.7	356.300	0.210	-0.100	0.300
2020/01/31 17:45:31.8	356.300	0.210	-0.130	0.300
2020/01/31 17:45:31.9	356.310	0.210	-0.150	0.290
2020/01/31 17:45:32.0	356.310	0.220	-0.180	0.290
2020/01/31 17:45:32.1	356.320	0.220	-0.210	0.280
2020/01/31 17:45:32.2	356.330	0.220	-0.240	0.260
2020/01/31 17:45:32.3	356.340	0.210	-0.270	0.240
2020/01/31 17:45:32.4	356.360	0.210	-0.310	0.220
2020/01/31 17:45:32.5	356.370	0.210	-0.340	0.200
2020/01/31 17:45:32.6	356.390	0.200	-0.380	0.170
2020/01/31 17:45:32.7	356.410	0.200	-0.410	0.150
2020/01/31 17:45:32.8	356.420	0.190	-0.440	0.120
2020/01/31 17:45:32.9	356.440	0.180	-0.480	0.090
2020/01/31 17:45:33.0	356.460	0.170	-0.510	0.060
2020/01/31 17:45:33.1	356.490	0.160	-0.540	0.020
2020/01/31 17:45:33.2	356.510	0.150	-0.570	-0.010
2020/01/31 17:45:33.3	356.540	0.140	-0.600	-0.040
2020/01/31 17:45:33.4	356.570	0.130	-0.630	-0.080
2020/01/31 17:45:33.5	356.590	0.120	-0.660	-0.110
2020/01/31 17:45:33.6	356.620	0.100	-0.680	-0.150
2020/01/31 17:45:33.7	356.650	0.090	-0.700	-0.190
2020/01/31 17:45:33.8	356.670	0.070	-0.720	-0.220
2020/01/31 17:45:33.9	356.700	0.050	-0.730	-0.260
2020/01/31 17:45:34.0	356.720	0.030	-0.740	-0.290
2020/01/31 17:45:34.1	356.750	0.010	-0.750	-0.330
2020/01/31 17:45:34.2	356.770	-0.000	-0.750	-0.360
2020/01/31 17:45:34.3	356.790	-0.020	-0.750	-0.390
2020/01/31 17:45:34.4	356.820	-0.050	-0.750	-0.420
2020/01/31 17:45:34.5	356.840	-0.070	-0.740	-0.450
2020/01/31 17:45:34.6	356.860	-0.090	-0.730	-0.480
2020/01/31 17:45:34.7	356.870	-0.110	-0.720	-0.510
2020/01/31 17:45:34.8	356.900	-0.130	-0.700	-0.540
2020/01/31 17:45:34.9	356.910	-0.150	-0.680	-0.560
2020/01/31 17:45:35.0	356.920	-0.170	-0.650	-0.570
2020/01/31 17:45:35.1	356.930	-0.180	-0.620	-0.590
2020/01/31 17:45:35.2	356.940	-0.200	-0.590	-0.600
2020/01/31 17:45:35.3	356.950	-0.220	-0.560	-0.600
2020/01/31 17:45:35.4	356.960	-0.230	-0.530	-0.600
2020/01/31 17:45:35.5	356.960	-0.240	-0.490	-0.600
2020/01/31 17:45:35.6	356.970	-0.250	-0.450	-0.600
2020/01/31 17:45:35.7	356.980	-0.260	-0.420	-0.590
2020/01/31 17:45:35.8	356.970	-0.270	-0.380	-0.570
2020/01/31 17:45:35.9	356.970	-0.270	-0.340	-0.560
2020/01/31 17:45:36.0	356.980	-0.270	-0.300	-0.540
2020/01/31 17:45:36.1	356.980	-0.270	-0.270	-0.520
2020/01/31 17:45:36.2	356.980	-0.270	-0.230	-0.490
2020/01/31 17:45:36.3	356.990	-0.260	-0.190	-0.460
2020/01/31 17:45:36.4	356.990	-0.250	-0.160	-0.430
2020/01/31 17:45:36.5	356.990	-0.240	-0.120	-0.400
2020/01/31 17:45:36.6	356.990	-0.230	-0.090	-0.360
2020/01/31 17:45:36.7	356.990	-0.210	-0.060	-0.320
2020/01/31 17:45:36.8	357.000	-0.190	-0.030	-0.280
2020/01/31 17:45:36.9	357.000	-0.170	-0.010	-0.240
2020/01/31 17:45:37.0	356.990	-0.140	0.010	-0.190
2020/01/31 17:45:37.1	356.990	-0.110	0.040	-0.140
2020/01/31 17:45:37.2	356.980	-0.080	0.060	-0.090
2020/01/31 17:45:37.3	356.970	-0.050	0.070	-0.040
2020/01/31 17:45:37.4	356.960	-0.010	0.090	0.020
2020/01/31 17:45:37.5	356.950	0.020	0.110	0.080
2020/01/31 17:45:37.6	356.930	0.060	0.120	0.150
2020/01/31 17:45:37.7	356.920	0.100	0.140	0.210
2020/01/31 17:45:37.8	356.890	0.140	0.150	0.280
2020/01/31 17:45:37.9	356.870	0.180	0.160	0.350
2020/01/31 17:45:38.0	356.850	0.220	0.180	0.420
2020/01/31 17:45:38.1	356.820	0.260	0.190	0.490
2020/01/31 17:45:38.2	356.790	0.300	0.200	0.560
2020/01/31 17:45:38.3	356.770	0.340	0.220	0.620
2020/01/31 17:45:38.4	356.740	0.380	0.230	0.690
2020/01/31 17:45:38.5	356.710	0.420	0.240	0.760
2020/01/31 17:45:38.6	356.680	0.450	0.250	0.820
2020/01/31 17:45:38.7	356.650	0.490	0.260	0.880
2020/01/31 17:45:38.8	356.600	0.520	0.270	0.940
2020/01/31 17:45:38.9	356.570	0.540	0.280	0.990
2020/01/31 17:45:39.0	356.540	0.570	0.290	1.040
2020/01/31 17:45:39.1	356.520	0.590	0.290	1.080
2020/01/31 17:45:39.2	356.490	0.600	0.300	1.120
2020/01/31 17:45:39.3	356.470	0.610	0.290	1.150
2020/01/31 17:45:39.4	356.450	0.620	0.290	1.180
2020/01/31 17:45:39.5	356.430	0.620	0.280	1.200
2020/01/31 17:45:39.6	356.410	0.620	0.270	1.210
2020/01/31 17:45:39.7	356.390	0.620	0.250	1.220
2020/01/31 17:45:39.8	356.390	0.610	0.230	1.220
2020/01/31 17:45:39.9	356.380	0.590	0.210	1.210
2020/01/31 17:45:40.0	356.370	0.570	0.180	1.200
2020/01/31 17:45:40.1	356.370	0.550	0.140	1.170
2020/01/31 17:45:40.2	356.360	0.520	0.110	1.140
2020/01/31 17:45:40.3	356.360	0.480	0.070	1.100
2020/01/31 17:45:40.4	356.370	0.440	0.020	1.060
2020/01/31 17:45:40.5	356.370	0.400	-0.030	1.000
2020/01/31 17:45:40.6	356.380	0.360	-0.080	0.940
2020/01/31 17:45:40.7	356.390	0.310	-0.130	0.870
2020/01/31 17:45:40.8	356.410	0.250	-0.190	0.790
2020/01/31 17:45:40.9	356.430	0.200	-0.240	0.710
2020/01/31 17:45:41.0	356.440	0.140	-0.300	0.630
2020/01/31 17:45:41.1	356.460	0.080	-0.360	0.540
2020/01/31 17:45:41.2	356.480	0.020	-0.420	0.450
2020/01/31 17:45:41.3	356.510	-0.050	-0.480	0.350
2020/01/31 17:45:41.4	356.530	-0.110	-0.540	0.250
2020/01/31 17:45:41.5	356.550	-0.170	-0.590	0.160
2020/01/31 17:45:41.6	356.580	-0.240	-0.650	0.050
2020/01/31 17:45:41.7	356.610	-0.300	-0.700	-0.040
2020/01/31 17:45:41.8	356.630	-0.360	-0.740	-0.150
2020/01/31 17:45:41.9	356.660	-0.420	-0.790	-0.250
2020/01/31 17:45:42.0	356.690	-0.480	-0.820	-0.340
2020/01/31 17:45:42.1	356.720	-0.530	-0.860	-0.430
2020/01/31 17:45:42.2	356.750	-0.580	-0.890	-0.520
2020/01/31 17:45:42.3	356.770	-0.630	-0.910	-0.610
2020/01/31 17:45:42.4	356.800	-0.680	-0.930	-0.690
2020/01/31 17:45:42.5	356.830	-0.720	-0.940	-0.760
2020/01/31 17:45:42.6	356.850	-0.760	-0.940	-0.830
2020/01/31 17:45:42.7	356.880	-0.790	-0.940	-0.890
2020/01/31 17:45:42.8	356.910	-0.810	-0.930	-0.950
2020/01/31 17:45:42.9	356.930	-0.840	-0.910	-1.000
2020/01/31 17:45:43.0	356.950	-0.860	-0.890	-1.040
2020/01/31 17:45:43.1	356.970	-0.870	-0.860	-1.080
2020/01/31 17:45:43.2	356.990	-0.880	-0.830	-1.110
2020/01/31 17:45:43.3	357.000	-0.880	-0.790	-1.120
2020/01/31 17:45:43.4	357.010	-0.880	-0.740	-1.130
2020/01/31 17:45:43.5	357.020	-0.870	-0.690	-1.140
2020/01/31 17:45:43.6	357.030	-0.860	-0.640	-1.130
2020/01/31 17:45:43.7	357.030	-0.840	-0.580	-1.120
2020/01/31 17:45:43.8	357.010	-0.820	-0.520	-1.100
2020/01/31 17:45:43.9	357.010	-0.800	-0.460	-1.070
2020/01/31 17:45:44.0	357.010	-0.770	-0.400	-1.040
2020/01/31 17:45:44.1	357.000	-0.740	-0.330	-1.000
2020/01/31 17:45:44.2	356.990	-0.700	-0.270	-0.960
2020/01/31 17:45:44.3	356.980	-0.660	-0.210	-0.910
2020/01/31 17:45:44.4	356.970	-0.620	-0.150	-0.860
2020/01/31 17:45:44.5	356.950	-0.580	-0.090	-0.810
2020/01/31 17:45:44.6	356.940	-0.540	-0.040	-0.750
2020/01/31 17:45:44.7	356.930	-0.490	0.010	-0.700
2020/01/31 17:45:44.8	356.910	-0.440	0.050	-0.640
2020/01/31 17:45:44.9	356.900	-0.400	0.080	-0.580
2020/01/31 17:45:45.0	356.890	-0.350	0.110	-0.520
2020/01/31 17:45:45.1	356.880	-0.300	0.130	-0.470
2020/01/31 17:45:45.2	356.870	-0.240	0.150	-0.410
2020/01/31 17:45:45.3	356.860	-0.190	0.160	-0.360
2020/01/31 17:45:45.4	356.860	-0.140	0.160	-0.310
2020/01/31 17:45:45.5	356.860	-0.090	0.150	-0.260
2020/01/31 17:45:45.6	356.870	-0.040	0.140	-0.210
2020/01/31 17:45:45.7	356.880	0.020	0.110	-0.170
2020/01/31 17:45:45.8	356.880	0.070	0.080	-0.120
2020/01/31 17:45:45.9	356.900	0.120	0.040	-0.080
2020/01/31 17:45:46.0	356.920	0.170	0.000	-0.050
2020/01/31 17:45:46.1	356.940	0.220	-0.050	-0.020
2020/01/31 17:45:46.2	356.970	0.270	-0.100	0.010
2020/01/31 17:45:46.3	357.000	0.320	-0.160	0.040
2020/01/31 17:45:46.4	357.040	0.370	-0.220	0.060
2020/01/31 17:45:46.5	357.070	0.420	-0.290	0.080
2020/01/31 17:45:46.6	357.110	0.460	-0.350	0.100
2020/01/31 17:45:46.7	357.150	0.500	-0.420	0.120
2020/01/31 17:45:46.8	357.190	0.540	-0.480	0.140
2020/01/31 17:45:46.9	357.230	0.580	-0.540	0.150
2020/01/31 17:45:47.0	357.270	0.610	-0.600	0.170
2020/01/31 17:45:47.1	357.300	0.640	-0.650	0.180
2020/01/31 17:45:47.2	357.340	0.670	-0.700	0.200
2020/01/31 17:45:47.3	357.370	0.690	-0.740	0.210
2020/01/31 17:45:47.4	357.390	0.710	-0.770	0.230
2020/01/31 17:45:47.5	357.420	0.720	-0.800	0.250
2020/01/31 17:45:47.6	357.430	0.730	-0.820	0.260
2020/01/31 17:45:47.7	357.440	0.740	-0.830	0.280
2020/01/31 17:45:47.8	357.470	0.740	-0.820	0.300
2020/01/31 17:45:47.9	357.470	0.730	-0.820	0.320
2020/01/31 17:45:48.0	357.470	0.720	-0.800	0.340
2020/01/31 17:45:48.1	357.460	0.710	-0.770	0.360
2020/01/31 17:45:48.2	357.450	0.690	-0.740	0.380
2020/01/31 17:45:48.3	357.440	0.670	-0.700	0.400
2020/01/31 17:45:48.4	357.420	0.650	-0.650	0.420
2020/01/31 17:45:48.5	357.400	0.620	-0.600	0.440
2020/01/31 17:45:48.6	357.380	0.590	-0.540	0.460
2020/01/31 17:45:48.7	357.350	0.550	-0.480	0.480
2020/01/31 17:45:48.8	357.310	0.520	-0.420	0.490
2020/01/31 17:45:48.9	357.280	0.480	-0.350	0.500
2020/01/31 17:45:49.0	357.250	0.440	-0.280	0.520
2020/01/31 17:45:49.1	357.220	0.390	-0.220	0.530
2020/01/31 17:45:49.2	357.190	0.350	-0.150	0.530
2020/01/31 17:45:49.3	357.150	0.310	-0.080	0.540
2020/01/31 17:45:49.4	357.120	0.260	-0.020	0.540
2020/01/31 17:45:49.5	357.090	0.220	0.030	0.530
2020/01/31 17:45:49.6	357.060	0.180	0.090	0.530
2020/01/31 17:45:49.7	357.030	0.130	0.140	0.520
2020/01/31 17:45:49.8	357.000	0.090	0.180	0.500
2020/01/31 17:45:49.9	356.970	0.060	0.220	0.480
2020/01/31 17:45:50.0	356.950	0.020	0.250	0.460
2020/01/31 17:45:50.1	356.920	-0.010	0.270	0.440
2020/01/31 17:45:50.2	356.900	-0.040	0.290	0.420
2020/01/31 17:45:50.3	356.880	-0.070	0.300	0.390
2020/01/31 17:45:50.4	356.860	-0.100	0.310	0.360
2020/01/31 17:45:50.5	356.850	-0.120	0.310	0.320
2020/01/31 17:45:50.6	356.830	-0.140	0.300	0.290
2020/01/31 17:45:50.7	356.810	-0.150	0.290	0.250
2020/01/31 17:45:50.8	356.790	-0.160	0.280	0.210
2020/01/31 17:45:50.9	356.780	-0.170	0.260	0.170
2020/01/31 17:45:51.0	356.760	-0.180	0.230	0.130
2020/01/31 17:45:51.1	356.740	-0.180	0.210	0.090
2020/01/31 17:45:51.2	356.730	-0.180	0.180	0.050
2020/01/31 17:45:51.3	356.710	-0.170	0.150	0.010
2020/01/31 17:45:51.4	356.690	-0.170	0.120	-0.030
2020/01/31 17:45:51.5	356.670	-0.160	0.080	-0.070
2020/01/31 17:45:51.6	356.660	-0.150	0.050	-0.100
2020/01/31 17:45:51.7	356.640	-0.140	0.020	-0.140
2020/01/31 17:45:51.8	356.620	-0.120	-0.010	-0.180
2020/01/31 17:45:51.9	356.610	-0.110	-0.050	-0.220
2020/01/31 17:45:52.0	356.590	-0.100	-0.080	-0.260
2020/01/31 17:45:52.1	356.580	-0.080	-0.100	-0.290
2020/01/31 17:45:52.2	356.570	-0.070	-0.130	-0.330
2020/01/31 17:45:52.3	356.560	-0.060	-0.160	-0.360
2020/01/31 17:45:52.4	356.550	-0.050	-0.180	-0.400
2020/01/31 17:45:52.5	356.550	-0.040	-0.200	-0.430
2020/01/31 17:45:52.6	356.540	-0.030	-0.220	-0.460
2020/01/31 17:45:52.7	356.540	-0.020	-0.240	-0.490
2020/01/31 17:45:52.8	356.540	-0.020	-0.260	-0.530
2020/01/31 17:45:52.9	356.540	-0.020	-0.270	-0.560
2020/01/31 17:45:53.0	356.550	-0.020	-0.290	-0.590
2020/01/31 17:45:53.1	356.560	-0.020	-0.300	-0.620
2020/01/31 17:45:53.2	356.570	-0.030	-0.310	-0.650
2020/01/31 17:45:53.3	356.580	-0.040	-0.320	-0.680
2020/01/31 17:45:53.4	356.590	-0.050	-0.320	-0.710
2020/01/31 17:45:53.5	356.600	-0.060	-0.330	-0.730
2020/01/31 17:45:53.6	356.620	-0.080	-0.330	-0.760
2020/01/31 17:45:53.7	356.640	-0.100	-0.330	-0.780
2020/01/31 17:45:53.8	356.660	-0.120	-0.340	-0.810
2020/01/31 17:45:53.9	356.680	-0.140	-0.340	-0.820
2020/01/31 17:45:54.0	356.700	-0.170	-0.330	-0.840
2020/01/31 17:45:54.1	356.720	-0.200	-0.330	-0.850
2020/01/31 17:45:54.2	356.740	-0.220	-0.320	-0.860
2020/01/31 17:45:54.3	356.760	-0.250	-0.320	-0.860
2020/01/31 17:45:54.4	356.780	-0.280	-0.310	-0.860
2020/01/31 17:45:54.5	356.800	-0.310	-0.300	-0.860
2020/01/31 17:45:54.6	356.820	-0.340	-0.290	-0.860
2020/01/31 17:45:54.7	356.850	-0.370	-0.290	-0.850
2020/01/31 17:45:54.8	356.860	-0.400	-0.280	-0.830
2020/01/31 17:45:54.9	356.880	-0.420	-0.270	-0.820
2020/01/31 17:45:55.0	356.910	-0.450	-0.260	-0.800
2020/01/31 17:45:55.1	356.930	-0.470	-0.260	-0.780
2020/01/31 17:45:55.2	356.960	-0.490	-0.260	-0.760
2020/01/31 17:45:55.3	356.980	-0.510	-0.260	-0.740
2020/01/31 17:45:55.4	357.010	-0.520	-0.260	-0.720
2020/01/31 17:45:55.5	357.040	-0.530	-0.260	-0.700
2020/01/31 17:45:55.6	357.070	-0.530	-0.270	-0.670
2020/01/31 17:45:55.7	357.100	-0.530	-0.280	-0.650
2020/01/31 17:45:55.8	357.130	-0.530	-0.290	-0.630
2020/01/31 17:45:55.9	357.160	-0.530	-0.310	-0.610
2020/01/31 17:45:56.0	357.190	-0.510	-0.330	-0.590
2020/01/31 17:45:56.1	357.220	-0.500	-0.350	-0.560
2020/01/31 17:45:56.2	357.250	-0.480	-0.370	-0.540
2020/01/31 17:45:56.3	357.280	-0.460	-0.390	-0.510
2020/01/31 17:45:56.4	357.300	-0.430	-0.420	-0.490
2020/01/31 17:45:56.5	357.330	-0.400	-0.440	-0.460
2020/01/31 17:45:56.6	357.350	-0.370	-0.470	-0.430
2020/01/31 17:45:56.7	357.370	-0.340	-0.500	-0.390
2020/01/31 17:45:56.8	357.370	-0.300	-0.520	-0.360
2020/01/31 17:45:56.9	357.380	-0.260	-0.550	-0.320
2020/01/31 17:45:57.0	357.390	-0.220	-0.570	-0.280
2020/01/31 17:45:57.1	357.390	-0.180	-0.590	-0.240
2020/01/31 17:45:57.2	357.400	-0.140	-0.610	-0.200
2020/01/31 17:45:57.3	357.390	-0.100	-0.630	-0.160
2020/01/31 17:45:57.4	357.390	-0.070	-0.640	-0.120
2020/01/31 17:45:57.5	357.390	-0.030	-0.650	-0.080
2020/01/31 17:45:57.6	357.380	0.010	-0.660	-0.040
2020/01/31 17:45:57.7	357.370	0.050	-0.670	-0.010
2020/01/31 17:45:57.8	357.370	0.080	-0.680	0.030
2020/01/31 17:45:57.9	357.360	0.110	-0.680	0.060
2020/01/31 17:45:58.0	357.350	0.140	-0.680	0.090
2020/01/31 17:45:58.1	357.340	0.170	-0.680	0.120
2020/01/31 17:45:58.2	357.330	0.200	-0.670	0.140
2020/01/31 17:45:58.3	357.320	0.220	-0.660	0.160
2020/01/31 17:45:58.4	357.310	0.240	-0.650	0.180
2020/01/31 17:45:58.5	357.310	0.260	-0.630	0.190
2020/01/31 17:45:58.6	357.300	0.270	-0.620	0.200
2020/01/31 17:45:58.7	357.290	0.280	-0.600	0.210
2020/01/31 17:45:58.8	357.290	0.290	-0.570	0.210
2020/01/31 17:45:58.9	357.290	0.300	-0.550	0.210
2020/01/31 17:45:59.0	357.280	0.300	-0.520	0.210
2020/01/31 17:45:59.1	357.280	0.310	-0.490	0.210
2020/01/31 17:45:59.2	357.280	0.310	-0.460	0.200
2020/01/31 17:45:59.3	357.270	0.310	-0.430	0.200
2020/01/31 17:45:59.4	357.270	0.310	-0.390	0.200
2020/01/31 17:45:59.5	357.260	0.300	-0.350	0.190
2020/01/31 17:45:59.6	357.250	0.300	-0.310	0.190
2020/01/31 17:45:59.7	357.240	0.290	-0.260	0.180
2020/01/31 17:45:59.8	357.230	0.290	-0.210	0.180
2020/01/31 17:45:59.9	357.210	0.280	-0.160	0.180
2020/01/31 17:46:00.0	357.190	0.270	-0.100	0.180
2020/01/31 17:46:00.1	357.170	0.260	-0.040	0.190
2020/01/31 17:46:00.2	357.140	0.250	0.020	0.190
2020/01/31 17:46:00.3	357.110	0.240	0.080	0.200
2020/01/31 17:46:00.4	357.080	0.230	0.150	0.220
2020/01/31 17:46:00.5	357.050	0.220	0.220	0.230
2020/01/31 17:46:00.6	357.010	0.200	0.280	0.250
2020/01/31 17:46:00.7	356.970	0.190	0.350	0.270
2020/01/31 17:46:00.8	356.920	0.180	0.400	0.290
2020/01/31 17:46:00.9	356.880	0.170	0.460	0.310
2020/01/31 17:46:01.0	356.840	0.160	0.520	0.340
2020/01/31 17:46:01.1	356.800	0.150	0.570	0.360
2020/01/31 17:46:01.2	356.760	0.150	0.620	0.390
2020/01/31 17:46:01.3	356.720	0.140	0.650	0.410
2020/01/31 17:46:01.4	356.680	0.140	0.680	0.430
2020/01/31 17:46:01.5	356.650	0.130	0.710	0.450
2020/01/31 17:46:01.6	356.610	0.130	0.720	0.470
2020/01/31 17:46:01.7	356.580	0.130	0.720	0.480
2020/01/31 17:46:01.8	356.560	0.130	0.720	0.490
2020/01/31 17:46:01.9	356.540	0.140	0.710	0.490
2020/01/31 17:46:02.0	356.520	0.140	0.680	0.490
2020/01/31 17:46:02.1	356.510	0.150	0.640	0.480
2020/01/31 17:46:02.2	356.500	0.160	0.600	0.470
2020/01/31 17:46:02.3	356.490	0.170	0.540	0.460
2020/01/31 17:46:02.4	356.490	0.180	0.480	0.440
2020/01/31 17:46:02.5	356.490	0.200	0.400	0.410
2020/01/31 17:46:02.6	356.500	0.210	0.320	0.380
2020/01/31 17:46:02.7	356.510	0.230	0.240	0.340
2020/01/31 17:46:02.8	356.520	0.250	0.140	0.300
2020/01/31 17:46:02.9	356.540	0.260	0.050	0.260
2020/01/31 17:46:03.0	356.560	0.280	-0.050	0.210
2020/01/31 17:46:03.1	356.570	0.300	-0.160	0.160
2020/01/31 17:46:03.2	356.590	0.310	-0.260	0.110
2020/01/31 17:46:03.3	356.620	0.330	-0.360	0.060
2020/01/31 17:46:03.4	356.640	0.340	-0.460	0.010
2020/01/31 17:46:03.5	356.660	0.350	-0.560	-0.040
2020/01/31 17:46:03.6	356.680	0.360	-0.660	-0.090
2020/01/31 17:46:03.7	356.700	0.370	-0.750	-0.150
2020/01/31 17:46:03.8	356.720	0.380	-0.840	-0.200
2020/01/31 17:46:03.9	356.740	0.380	-0.920	-0.250
2020/01/31 17:46:04.0	356.760	0.380	-0.990	-0.300
2020/01/31 17:46:04.1	356.780	0.370	-1.060	-0.360
2020/01/31 17:46:04.2	356.800	0.360	-1.120	-0.410
2020/01/31 17:46:04.3	356.820	0.350	-1.170	-0.460
2020/01/31 17:46:04.4	356.840	0.340	-1.210	-0.510
2020/01/31 17:46:04.5	356.860	0.320	-1.250	-0.560
2020/01/31 17:46:04.6	356.880	0.300	-1.270	-0.610
2020/01/31 17:46:04.7	356.900	0.270	-1.290	-0.660
2020/01/31 17:46:04.8	356.930	0.240	-1.300	-0.710
2020/01/31 17:46:04.9	356.950	0.210	-1.300	-0.750
2020/01/31 17:46:05.0	356.970	0.180	-1.300	-0.800
2020/01/31 17:46:05.1	357.000	0.140	-1.280	-0.840
2020/01/31 17:46:05.2	357.020	0.100	-1.260	-0.890
2020/01/31 17:46:05.3	357.050	0.060	-1.240	-0.930
2020/01/31 17:46:05.4	357.080	0.020	-1.200	-0.970
2020/01/31 17:46:05.5	357.110	-0.030	-1.160	-1.010
2020/01/31 17:46:05.6	357.140	-0.070	-1.120	-1.040
2020/01/31 17:46:05.7	357.170	-0.120	-1.070	-1.080
2020/01/31 17:46:05.8	357.190	-0.160	-1.010	-1.110
2020/01/31 17:46:05.9	357.220	-0.210	-0.950	-1.140
2020/01/31 17:46:06.0	357.250	-0.260	-0.890	-1.160
2020/01/31 17:46:06.1	357.270	-0.300	-0.830	-1.180
2020/01/31 17:46:06.2	357.300	-0.340	-0.760	-1.190
2020/01/31 17:46:06.3	357.320	-0.390	-0.680	-1.200
2020/01/31 17:46:06.4	357.340	-0.430	-0.610	-1.200
2020/01/31 17:46:06.5	357.360	-0.470	-0.530	-1.200
2020/01/31 17:46:06.6	357.370	-0.500	-0.450	-1.190
2020/01/31 17:46:06.7	357.380	-0.540	-0.370	-1.170
2020/01/31 17:46:06.8	357.380	-0.570	-0.290	-1.140
2020/01/31 17:46:06.9	357.380	-0.600	-0.210	-1.110
2020/01/31 17:46:07.0	357.380	-0.620	-0.120	-1.070
2020/01/31 17:46:07.1	357.370	-0.640	-0.040	-1.030
2020/01/31 17:46:07.2	357.360	-0.660	0.050	-0.980
2020/01/31 17:46:07.3	357.340	-0.680	0.130	-0.920
2020/01/31 17:46:07.4	357.320	-0.690	0.210	-0.860
2020/01/31 17:46:07.5	357.290	-0.700	0.290	-0.790
2020/01/31 17:46:07.6	357.270	-0.700	0.360	-0.730
2020/01/31 17:46:07.7	357.240	-0.700	0.430	-0.660
2020/01/31 17:46:07.8	357.210	-0.700	0.500	-0.590
2020/01/31 17:46:07.9	357.170	-0.690	0.560	-0.520
2020/01/31 17:46:08.0	357.140	-0.680	0.610	-0.450
2020/01/31 17:46:08.1	357.110	-0.670	0.660	-0.380
2020/01/31 17:46:08.2	357.090	-0.650	0.690	-0.310
2020/01/31 17:46:08.3	357.060	-0.630	0.720	-0.240
2020/01/31 17:46:08.4	357.030	-0.600	0.740	-0.180
2020/01/31 17:46:08.5	357.010	-0.570	0.750	-0.130
2020/01/31 17:46:08.6	357.000	-0.540	0.750	-0.080
2020/01/31 17:46:08.7	356.980	-0.510	0.740	-0.030
2020/01/31 17:46:08.8	356.970	-0.470	0.730	0.020
2020/01/31 17:46:08.9	356.970	-0.430	0.700	0.050
2020/01/31 17:46:09.0	356.970	-0.380	0.660	0.080
2020/01/31 17:46:09.1	356.970	-0.340	0.610	0.100
2020/01/31 17:46:09.2	356.970	-0.290	0.550	0.120
2020/01/31 17:46:09.3	356.980	-0.240	0.490	0.140
2020/01/31 17:46:09.4	356.990	-0.190	0.410	0.150
2020/01/31 17:46:09.5	357.000	-0.140	0.340	0.160
2020/01/31 17:46:09.6	357.010	-0.090	0.260	0.160
2020/01/31 17:46:09.7	357.020	-0.040	0.170	0.170
2020/01/31 17:46:09.8	357.040	0.020	0.080	0.170
2020/01/31 17:46:09.9	357.060	0.070	-0.010	0.170
2020/01/31 17:46:10.0	357.070	0.110	-0.110	0.170
2020/01/31 17:46:10.1	357.080	0.160	-0.200	0.170
2020/01/31 17:46:10.2	357.100	0.210	-0.290	0.160
2020/01/31 17:46:10.3	357.110	0.250	-0.380	0.160
2020/01/31 17:46:10.4	357.120	0.290	-0.460	0.150
2020/01/31 17:46:10.5	357.140	0.330	-0.540	0.150
2020/01/31 17:46:10.6	357.150	0.360	-0.620	0.140
2020/01/31 17:46:10.7	357.160	0.400	-0.690	0.140
2020/01/31 17:46:10.8	357.190	0.430	-0.750	0.130
2020/01/31 17:46:10.9	357.200	0.450	-0.810	0.120
2020/01/31 17:46:11.0	357.210	0.480	-0.870	0.110
2020/01/31 17:46:11.1	357.230	0.490	-0.910	0.100
2020/01/31 17:46:11.2	357.240	0.510	-0.950	0.090
2020/01/31 17:46:11.3	357.250	0.520	-0.980	0.080
2020/01/31 17:46:11.4	357.260	0.530	-1.010	0.070
2020/01/31 17:46:11.5	357.270	0.540	-1.030	0.060
2020/01/31 17:46:11.6	357.280	0.540	-1.040	0.050
2020/01/31 17:46:11.7	357.300	0.540	-1.040	0.040
2020/01/31 17:46:11.8	357.310	0.540	-1.040	0.020
2020/01/31 17:46:11.9	357.330	0.540	-1.030	0.010
2020/01/31 17:46:12.0	357.340	0.530	-1.010	-0.000
2020/01/31 17:46:12.1	357.350	0.520	-0.990	-0.010
2020/01/31 17:46:12.2	357.360	0.510	-0.960	-0.020
2020/01/31 17:46:12.3	357.370	0.490	-0.930	-0.030
2020/01/31 17:46:12.4	357.380	0.480	-0.890	-0.040
2020/01/31 17:46:12.5	357.380	0.460	-0.840	-0.040
2020/01/31 17:46:12.6	357.390	0.440	-0.790	-0.050
2020/01/31 17:46:12.7	357.390	0.420	-0.740	-0.050
2020/01/31 17:46:12.8	357.390	0.400	-0.680	-0.050
2020/01/31 17:46:12.9	357.380	0.370	-0.620	-0.050
2020/01/31 17:46:13.0	357.380	0.350	-0.560	-0.050
2020/01/31 17:46:13.1	357.370	0.330	-0.490	-0.040
2020/01/31 17:46:13.2	357.350	0.300	-0.420	-0.030
2020/01/31 17:46:13.3	357.340	0.280	-0.350	-0.020
2020/01/31 17:46:13.4	357.320	0.260	-0.270	-0.010
2020/01/31 17:46:13.5	357.300	0.230	-0.200	0.010
2020/01/31 17:46:13.6	357.280	0.210	-0.130	0.020
2020/01/31 17:46:13.7	357.250	0.190	-0.060	0.040
2020/01/31 17:46:13.8	357.230	0.170	0.010	0.060
2020/01/31 17:46:13.9	357.210	0.150	0.080	0.080
2020/01/31 17:46:14.0	357.180	0.130	0.140	0.100
2020/01/31 17:46:14.1	357.150	0.110	0.200	0.120
2020/01/31 17:46:14.2	357.120	0.090	0.260	0.140
2020/01/31 17:46:14.3	357.080	0.080	0.310	0.160
2020/01/31 17:46:14.4	357.050	0.060	0.360	0.180
2020/01/31 17:46:14.5	357.020	0.050	0.400	0.200
2020/01/31 17:46:14.6	356.980	0.040	0.440	0.230
2020/01/31 17:46:14.7	356.940	0.030	0.470	0.250
2020/01/31 17:46:14.8	356.900	0.030	0.490	0.270
2020/01/31 17:46:14.9	356.870	0.020	0.500	0.290
2020/01/31 17:46:15.0	356.830	0.020	0.510	0.310
2020/01/31 17:46:15.1	356.790	0.010	0.520	0.330
2020/01/31 17:46:15.2	356.750	0.010	0.520	0.350
2020/01/31 17:46:15.3	356.720	0.010	0.510	0.360
2020/01/31 17:46:15.4	356.680	0.000	0.500	0.380
2020/01/31 17:46:15.5	356.650	0.000	0.480	0.390
2020/01/31 17:46:15.6	356.610	0.000	0.450	0.400
2020/01/31 17:46:15.7	356.580	0.000	0.420	0.410
2020/01/31 17:46:15.8	356.550	0.000	0.390	0.420
2020/01/31 17:46:15.9	356.520	0.000	0.350	0.420
2020/01/31 17:46:16.0	356.490	-0.000	0.310	0.420
2020/01/31 17:46:16.1	356.470	-0.000	0.260	0.410
2020/01/31 17:46:16.2	356.450	-0.010	0.220	0.400
2020/01/31 17:46:16.3	356.430	-0.010	0.170	0.390
2020/01/31 17:46:16.4	356.420	-0.020	0.110	0.370
2020/01/31 17:46:16.5	356.410	-0.020	0.060	0.350
2020/01/31 17:46:16.6	356.410	-0.030	0.000	0.320
2020/01/31 17:46:16.7	356.400	-0.040	-0.050	0.290
2020/01/31 17:46:16.8	356.410	-0.050	-0.110	0.240
2020/01/31 17:46:16.9	356.420	-0.060	-0.170	0.200
2020/01/31 17:46:17.0	356.430	-0.080	-0.220	0.160
2020/01/31 17:46:17.1	356.450	-0.090	-0.280	0.110
2020/01/31 17:46:17.2	356.470	-0.110	-0.340	0.050
2020/01/31 17:46:17.3	356.490	-0.120	-0.390	-0.010
2020/01/31 17:46:17.4	356.520	-0.140	-0.440	-0.070
2020/01/31 17:46:17.5	356.550	-0.160	-0.490	-0.130
2020/01/31 17:46:17.6	356.590	-0.180	-0.540	-0.190
2020/01/31 17:46:17.7	356.640	-0.200	-0.590	-0.260
2020/01/31 17:46:17.8	356.690	-0.220	-0.630	-0.330
2020/01/31 17:46:17.9	356.740	-0.240	-0.680	-0.400
2020/01/31 17:46:18.0	356.790	-0.260	-0.720	-0.470
2020/01/31 17:46:18.1	356.840	-0.280	-0.750	-0.540
2020/01/31 17:46:18.2	356.900	-0.300	-0.790	-0.600
2020/01/31 17:46:18.3	356.960	-0.320	-0.820	-0.670
2020/01/31 17:46:18.4	357.020	-0.340	-0.840	-0.730
2020/01/31 17:46:18.5	357.070	-0.360	-0.860	-0.790
2020/01/31 17:46:18.6	357.130	-0.370	-0.880	-0.850
2020/01/31 17:46:18.7	357.190	-0.390	-0.890	-0.900
2020/01/31 17:46:18.8	357.240	-0.400	-0.900	-0.950
2020/01/31 17:46:18.9	357.300	-0.420	-0.900	-1.000
2020/01/31 17:46:19.0	357.350	-0.430	-0.900	-1.040
2020/01/31 17:46:19.1	357.400	-0.440	-0.890	-1.070
2020/01/31 17:46:19.2	357.450	-0.450	-0.870	-1.100
2020/01/31 17:46:19.3	357.500	-0.450	-0.860	-1.120
2020/01/31 17:46:19.4	357.550	-0.450	-0.830	-1.140
2020/01/31 17:46:19.5	357.590	-0.450	-0.810	-1.150
2020/01/31 17:46:19.6	357.630	-0.450	-0.780	-1.160
2020/01/31 17:46:19.7	357.660	-0.450	-0.740	-1.160
2020/01/31 17:46:19.8	357.690	-0.440	-0.710	-1.150
2020/01/31 17:46:19.9	357.720	-0.430	-0.670	-1.140
2020/01/31 17:46:20.0	357.750	-0.410	-0.630	-1.120
2020/01/31 17:46:20.1	357.770	-0.400	-0.590	-1.100
2020/01/31 17:46:20.2	357.790	-0.380	-0.550	-1.080
2020/01/31 17:46:20.3	357.810	-0.350	-0.510	-1.040
2020/01/31 17:46:20.4	357.820	-0.330	-0.470	-1.010
2020/01/31 17:46:20.5	357.830	-0.300	-0.430	-0.960
2020/01/31 17:46:20.6	357.840	-0.270	-0.390	-0.920
2020/01/31 17:46:20.7	357.840	-0.230	-0.360	-0.870
2020/01/31 17:46:20.8	357.840	-0.200	-0.340	-0.820
2020/01/31 17:46:20.9	357.840	-0.160	-0.310	-0.770
2020/01/31 17:46:21.0	357.840	-0.120	-0.290	-0.720
2020/01/31 17:46:21.1	357.840	-0.090	-0.270	-0.660
2020/01/31 17:46:21.2	357.830	-0.050	-0.260	-0.610
2020/01/31 17:46:21.3	357.820	-0.010	-0.250	-0.550
2020/01/31 17:46:21.4	357.810	0.030	-0.240	-0.500
2020/01/31 17:46:21.5	357.800	0.070	-0.240	-0.450
2020/01/31 17:46:21.6	357.790	0.110	-0.240	-0.400
2020/01/31 17:46:21.7	357.780	0.140	-0.240	-0.360
2020/01/31 17:46:21.8	357.760	0.180	-0.250	-0.310
2020/01/31 17:46:21.9	357.740	0.210	-0.250	-0.270
2020/01/31 17:46:22.0	357.720	0.240	-0.260	-0.230
2020/01/31 17:46:22.1	357.700	0.270	-0.270	-0.190
2020/01/31 17:46:22.2	357.680	0.290	-0.280	-0.160
2020/01/31 17:46:22.3	357.660	0.320	-0.290	-0.130
2020/01/31 17:46:22.4	357.640	0.340	-0.290	-0.110
2020/01/31 17:46:22.5	357.610	0.350	-0.300	-0.080
2020/01/31 17:46:22.6	357.590	0.370	-0.300	-0.060
2020/01/31 17:46:22.7	357.560	0.380	-0.300	-0.040
2020/01/31 17:46:22.8	357.520	0.390	-0.300	-0.030
2020/01/31 17:46:22.9	357.490	0.390	-0.300	-0.020
2020/01/31 17:46:23.0	357.450	0.390	-0.290	-0.010
2020/01/31 17:46:23.1	357.420	0.390	-0.270	-0.000
2020/01/31 17:46:23.2	357.390	0.390	-0.260	0.010
2020/01/31 17:46:23.3	357.350	0.380	-0.240	0.010
2020/01/31 17:46:23.4	357.320	0.370	-0.210	0.020
2020/01/31 17:46:23.5	357.280	0.360	-0.190	0.020
2020/01/31 17:46:23.6	357.250	0.340	-0.160	0.020
2020/01/31 17:46:23.7	357.220	0.330	-0.120	0.030
2020/01/31 17:46:23.8	357.190	0.310	-0.090	0.030
2020/01/31 17:46:23.9	357.150	0.290	-0.050	0.030
2020/01/31 17:46:24.0	357.120	0.270	-0.010	0.040
2020/01/31 17:46:24.1	357.090	0.250	0.030	0.040
2020/01/31 17:46:24.2	357.060	0.230	0.070	0.040
2020/01/31 17:46:24.3	357.040	0.220	0.100	0.050
2020/01/31 17:46:24.4	357.010	0.200	0.140	0.050
2020/01/31 17:46:24.5	356.990	0.180	0.180	0.060
2020/01/31 17:46:24.6	356.970	0.160	0.210	0.060
2020/01/31 17:46:24.7	356.950	0.150	0.250	0.060
2020/01/31 17:46:24.8	356.940	0.130	0.280	0.060
2020/01/31 17:46:24.9	356.920	0.120	0.300	0.060
2020/01/31 17:46:25.0	356.910	0.100	0.330	0.060
2020/01/31 17:46:25.1	356.910	0.090	0.350	0.050
2020/01/31 17:46:25.2	356.900	0.080	0.360	0.050
2020/01/31 17:46:25.3	356.900	0.070	0.370	0.040
2020/01/31 17:46:25.4	356.900	0.060	0.380	0.030
2020/01/31 17:46:25.5	356.900	0.050	0.380	0.020
2020/01/31 17:46:25.6	356.910	0.050	0.380	0.010
2020/01/31 17:46:25.7	356.910	0.040	0.370	-0.010
2020/01/31 17:46:25.8	356.920	0.040	0.360	-0.030
2020/01/31 17:46:25.9	356.930	0.030	0.350	-0.050
2020/01/31 17:46:26.0	356.950	0.030	0.330	-0.070
2020/01/31 17:46:26.1	356.960	0.030	0.300	-0.100
2020/01/31 17:46:26.2	356.980	0.030	0.280	-0.120
2020/01/31 17:46:26.3	357.000	0.030	0.240	-0.150
2020/01/31 17:46:26.4	357.030	0.030	0.210	-0.180
2020/01/31 17:46:26.5	357.050	0.020	0.170	-0.200
2020/01/31 17:46:26.6	357.070	0.020	0.130	-0.230
2020/01/31 17:46:26.7	357.100	0.020	0.090	-0.250
2020/01/31 17:46:26.8	357.130	0.020	0.050	-0.280
2020/01/31 17:46:26.9	357.160	0.020	0.000	-0.300
2020/01/31 17:46:27.0	357.180	0.020	-0.040	-0.320
2020/01/31 17:46:27.1	357.200	0.020	-0.080	-0.340
2020/01/31 17:46:27.2	357.220	0.020	-0.130	-0.360
2020/01/31 17:46:27.3	357.240	0.020	-0.170	-0.370
2020/01/31 17:46:27.4	357.260	0.020	-0.210	-0.380
2020/01/31 17:46:27.5	357.280	0.010	-0.260	-0.390
2020/01/31 17:46:27.6	357.300	0.010	-0.300	-0.400
2020/01/31 17:46:27.7	357.310	0.010	-0.340	-0.410
2020/01/31 17:46:27.8	357.320	0.000	-0.370	-0.410
2020/01/31 17:46:27.9	357.330	-0.000	-0.410	-0.410
2020/01/31 17:46:28.0	357.340	-0.010	-0.440	-0.410
2020/01/31 17:46:28.1	357.350	-0.010	-0.480	-0.410
2020/01/31 17:46:28.2	357.350	-0.020	-0.510	-0.400
2020/01/31 17:46:28.3	357.350	-0.020	-0.540	-0.400
2020/01/31 17:46:28.4	357.350	-0.030	-0.560	-0.390
2020/01/31 17:46:28.5	357.350	-0.040	-0.590	-0.390
2020/01/31 17:46:28.6	357.350	-0.040	-0.610	-0.380
2020/01/31 17:46:28.7	357.340	-0.050	-0.630	-0.370
2020/01/31 17:46:28.8	357.340	-0.050	-0.650	-0.370
2020/01/31 17:46:28.9	357.340	-0.060	-0.670	-0.360
2020/01/31 17:46:29.0	357.330	-0.060	-0.690	-0.360
2020/01/31 17:46:29.1	357.330	-0.070	-0.710	-0.360
2020/01/31 17:46:29.2	357.320	-0.070	-0.720	-0.360
2020/01/31 17:46:29.3	357.320	-0.070	-0.730	-0.360
2020/01/31 17:46:29.4	357.310	-0.070	-0.750	-0.370
2020/01/31 17:46:29.5	357.310	-0.070	-0.760	-0.380
2020/01/31 17:46:29.6	357.310	-0.070	-0.770	-0.380
2020/01/31 17:46:29.7	357.310	-0.070	-0.780	-0.390
2020/01/31 17:46:29.8	357.310	-0.060	-0.790	-0.410
2020/01/31 17:46:29.9	357.310	-0.060	-0.810	-0.420
2020/01/31 17:46:30.0	357.310	-0.050	-0.820	-0.430
2020/01/31 17:46:30.1	357.320	-0.040	-0.830	-0.440
2020/01/31 17:46:30.2	357.320	-0.030	-0.830	-0.460
2020/01/31 17:46:30.3	357.330	-0.020	-0.840	-0.470
2020/01/31 17:46:30.4	357.340	-0.010	-0.850	-0.490
2020/01/31 17:46:30.5	357.350	-0.000	-0.860	-0.500
2020/01/31 17:46:30.6	357.360	0.010	-0.860	-0.510
2020/01/31 17:46:30.7	357.380	0.020	-0.870	-0.530
2020/01/31 17:46:30.8	357.400	0.040	-0.870	-0.540
2020/01/31 17:46:30.9	357.420	0.050	-0.870	-0.550
2020/01/31 17:46:31.0	357.440	0.060	-0.870	-0.560
2020/01/31 17:46:31.1	357.460	0.080	-0.870	-0.580
2020/01/31 17:46:31.2	357.480	0.090	-0.860	-0.590
2020/01/31 17:46:31.3	357.510	0.100	-0.850	-0.600
2020/01/31 17:46:31.4	357.530	0.110	-0.840	-0.600
2020/01/31 17:46:31.5	357.560	0.120	-0.830	-0.610
2020/01/31 17:46:31.6	357.590	0.130	-0.810	-0.620
2020/01/31 17:46:31.7	357.620	0.140	-0.800	-0.630
2020/01/31 17:46:31.8	357.660	0.150	-0.770	-0.630
2020/01/31 17:46:31.9	357.690	0.150	-0.750	-0.640
2020/01/31 17:46:32.0	357.720	0.160	-0.720	-0.640
2020/01/31 17:46:32.1	357.760	0.160	-0.680	-0.640
2020/01/31 17:46:32.2	357.790	0.160	-0.640	-0.640
2020/01/31 17:46:32.3	357.830	0.160	-0.600	-0.630
2020/01/31 17:46:32.4	357.860	0.160	-0.560	-0.630
2020/01/31 17:46:32.5	357.900	0.150	-0.500	-0.620
2020/01/31 17:46:32.6	357.930	0.150	-0.450	-0.600
2020/01/31 17:46:32.7	357.960	0.140	-0.390	-0.580
2020/01/31 17:46:32.8	357.990	0.130	-0.320	-0.560
2020/01/31 17:46:32.9	358.020	0.120	-0.260	-0.530
2020/01/31 17:46:33.0	358.030	0.100	-0.180	-0.490
2020/01/31 17:46:33.1	358.050	0.080	-0.110	-0.450
2020/01/31 17:46:33.2	358.060	0.060	-0.030	-0.410
2020/01/31 17:46:33.3	358.070	0.040	0.050	-0.360
2020/01/31 17:46:33.4	358.070	0.020	0.140	-0.310
2020/01/31 17:46:33.5	358.070	-0.010	0.220	-0.250
2020/01/31 17:46:33.6	358.060	-0.030	0.310	-0.190
2020/01/31 17:46:33.7	358.050	-0.060	0.400	-0.130
2020/01/31 17:46:33.8	358.020	-0.090	0.490	-0.060
2020/01/31 17:46:33.9	358.000	-0.130	0.570	0.000
2020/01/31 17:46:34.0	357.980	-0.160	0.650	0.070
2020/01/31 17:46:34.1	357.950	-0.200	0.730	0.130
2020/01/31 17:46:34.2	357.920	-0.230	0.810	0.190
2020/01/31 17:46:34.3	357.890	-0.270	0.880	0.250
2020/01/31 17:46:34.4	357.860	-0.310	0.940	0.310
2020/01/31 17:46:34.5	357.820	-0.340	0.990	0.360
2020/01/31 17:46:34.6	357.780	-0.380	1.040	0.410
2020/01/31 17:46:34.7	357.750	-0.410	1.070	0.450
2020/01/31 17:46:34.8	357.700	-0.440	1.100	0.490
2020/01/31 17:46:34.9	357.660	-0.470	1.120	0.520
2020/01/31 17:46:35.0	357.630	-0.500	1.130	0.550
2020/01/31 17:46:35.1	357.600	-0.530	1.120	0.580
2020/01/31 17:46:35.2	357.560	-0.550	1.110	0.590
2020/01/31 17:46:35.3	357.530	-0.570	1.080	0.600
2020/01/31 17:46:35.4	357.510	-0.580	1.040	0.610
2020/01/31 17:46:35.5	357.480	-0.590	0.990	0.600
2020/01/31 17:46:35.6	357.460	-0.600	0.930	0.600
2020/01/31 17:46:35.7	357.440	-0.600	0.860	0.580
2020/01/31 17:46:35.8	357.410	-0.600	0.790	0.560
2020/01/31 17:46:35.9	357.400	-0.590	0.700	0.540
2020/01/31 17:46:36.0	357.380	-0.570	0.600	0.520
2020/01/31 17:46:36.1	357.370	-0.550	0.500	0.490
2020/01/31 17:46:36.2	357.360	-0.530	0.390	0.460
2020/01/31 17:46:36.3	357.350	-0.500	0.280	0.430
2020/01/31 17:46:36.4	357.350	-0.470	0.170	0.400
2020/01/31 17:46:36.5	357.340	-0.430	0.050	0.370
2020/01/31 17:46:36.6	357.340	-0.390	-0.070	0.340
2020/01/31 17:46:36.7	357.330	-0.340	-0.180	0.310
2020/01/31 17:46:36.8	357.340	-0.290	-0.300	0.270
2020/01/31 17:46:36.9	357.340	-0.240	-0.410	0.240
2020/01/31 17:46:37.0	357.340	-0.190	-0.520	0.210
2020/01/31 17:46:37.1	357.340	-0.130	-0.630	0.170
2020/01/31 17:46:37.2	357.340	-0.080	-0.720	0.140
2020/01/31 17:46:37.3	357.340	-0.020	-0.820	0.110
2020/01/31 17:46:37.4	357.350	0.040	-0.910	0.080
2020/01/31 17:46:37.5	357.350	0.090	-0.990	0.060
2020/01/31 17:46:37.6	357.360	0.150	-1.060	0.030
2020/01/31 17:46:37.7	357.360	0.210	-1.120	0.010
2020/01/31 17:46:37.8	357.370	0.260	-1.180	-0.020
2020/01/31 17:46:37.9	357.380	0.310	-1.230	-0.040
2020/01/31 17:46:38.0	357.380	0.360	-1.270	-0.060
2020/01/31 17:46:38.1	357.390	0.410	-1.300	-0.070
2020/01/31 17:46:38.2	357.400	0.460	-1.330	-0.090
2020/01/31 17:46:38.3	357.410	0.500	-1.350	-0.100
2020/01/31 17:46:38.4	357.420	0.530	-1.360	-0.110
2020/01/31 17:46:38.5	357.430	0.570	-1.370	-0.120
2020/01/31 17:46:38.6	357.440	0.600	-1.370	-0.130
2020/01/31 17:46:38.7	357.460	0.620	-1.360	-0.140
2020/01/31 17:46:38.8	357.490	0.640	-1.350	-0.150
2020/01/31 17:46:38.9	357.500	0.660	-1.330	-0.150
2020/01/31 17:46:39.0	357.520	0.670	-1.300	-0.160
2020/01/31 17:46:39.1	357.540	0.680	-1.270	-0.170
2020/01/31 17:46:39.2	357.560	0.680	-1.240	-0.180
2020/01/31 17:46:39.3	357.590	0.680	-1.210	-0.180
2020/01/31 17:46:39.4	357.610	0.670	-1.170	-0.190
2020/01/31 17:46:39.5	357.640	0.670	-1.120	-0.200
2020/01/31 17:46:39.6	357.670	0.650	-1.080	-0.220
2020/01/31 17:46:39.7	357.700	0.640	-1.030	-0.230
2020/01/31 17:46:39.8	357.730	0.620	-0.980	-0.250
2020/01/31 17:46:39.9	357.760	0.590	-0.940	-0.270
2020/01/31 17:46:40.0	357.790	0.570	-0.890	-0.290
2020/01/31 17:46:40.1	357.830	0.540	-0.840	-0.310
2020/01/31 17:46:40.2	357.870	0.510	-0.790	-0.330
2020/01/31 17:46:40.3	357.900	0.480	-0.740	-0.360
2020/01/31 17:46:40.4	357.940	0.450	-0.690	-0.380
2020/01/31 17:46:40.5	357.980	0.410	-0.640	-0.410
2020/01/31 17:46:40.6	358.020	0.380	-0.590	-0.430
2020/01/31 17:46:40.7	358.060	0.350	-0.540	-0.460
2020/01/31 17:46:40.8	358.100	0.310	-0.500	-0.490
2020/01/31 17:46:40.9	358.140	0.280	-0.450	-0.510
2020/01/31 17:46:41.0	358.170	0.240	-0.410	-0.530
2020/01/31 17:46:41.1	358.210	0.200	-0.370	-0.560
2020/01/31 17:46:41.2	358.250	0.170	-0.330	-0.580
2020/01/31 17:46:41.3	358.290	0.140	-0.280	-0.600
2020/01/31 17:46:41.4	358.320	0.100	-0.240	-0.620
2020/01/31 17:46:41.5	358.360	0.070	-0.210	-0.640
2020/01/31 17:46:41.6	358.390	0.040	-0.170	-0.660
2020/01/31 17:46:41.7	358.420	0.010	-0.130	-0.670
2020/01/31 17:46:41.8	358.450	-0.020	-0.100	-0.690
2020/01/31 17:46:41.9	358.480	-0.050	-0.060	-0.700
2020/01/31 17:46:42.0	358.500	-0.080	-0.030	-0.710
2020/01/31 17:46:42.1	358.530	-0.110	0.000	-0.720
2020/01/31 17:46:42.2	358.550	-0.130	0.030	-0.720
2020/01/31 17:46:42.3	358.570	-0.160	0.060	-0.720
2020/01/31 17:46:42.4	358.590	-0.180	0.090	-0.720
2020/01/31 17:46:42.5	358.600	-0.200	0.120	-0.720
2020/01/31 17:46:42.6	358.610	-0.220	0.150	-0.710
2020/01/31 17:46:42.7	358.620	-0.240	0.170	-0.700
2020/01/31 17:46:42.8	358.630	-0.250	0.200	-0.680
2020/01/31 17:46:42.9	358.640	-0.270	0.230	-0.660
2020/01/31 17:46:43.0	358.640	-0.280	0.260	-0.640
2020/01/31 17:46:43.1	358.630	-0.290	0.280	-0.620
2020/01/31 17:46:43.2	358.630	-0.300	0.310	-0.590
2020/01/31 17:46:43.3	358.620	-0.310	0.330	-0.560
2020/01/31 17:46:43.4	358.600	-0.320	0.360	-0.520
2020/01/31 17:46:43.5	358.590	-0.330	0.380	-0.490
2020/01/31 17:46:43.6	358.570	-0.330	0.410	-0.440
2020/01/31 17:46:43.7	358.540	-0.330	0.430	-0.400
2020/01/31 17:46:43.8	358.510	-0.330	0.450	-0.360
2020/01/31 17:46:43.9	358.480	-0.330	0.470	-0.310
2020/01/31 17:46:44.0	358.450	-0.330	0.490	-0.260
2020/01/31 17:46:44.1	358.410	-0.330	0.510	-0.210
2020/01/31 17:46:44.2	358.360	-0.320	0.530	-0.150
2020/01/31 17:46:44.3	358.320	-0.320	0.550	-0.100
2020/01/31 17:46:44.4	358.270	-0.310	0.560	-0.040
2020/01/31 17:46:44.5	358.220	-0.300	0.570	0.020
2020/01/31 17:46:44.6	358.160	-0.300	0.580	0.070
2020/01/31 17:46:44.7	358.100	-0.290	0.590	0.130
2020/01/31 17:46:44.8	358.020	-0.280	0.590	0.180
2020/01/31 17:46:44.9	357.960	-0.260	0.590	0.230
2020/01/31 17:46:45.0	357.900	-0.250	0.580	0.280
2020/01/31 17:46:45.1	357.840	-0.240	0.570	0.330
2020/01/31 17:46:45.2	357.780	-0.230	0.560	0.370
2020/01/31 17:46:45.3	357.720	-0.210	0.540	0.410
2020/01/31 17:46:45.4	357.660	-0.200	0.510	0.440
2020/01/31 17:46:45.5	357.610	-0.180	0.480	0.460
2020/01/31 17:46:45.6	357.550	-0.170	0.440	0.490
2020/01/31 17:46:45.7	357.510	-0.150	0.390	0.500
2020/01/31 17:46:45.8	357.460	-0.140	0.340	0.510
2020/01/31 17:46:45.9	357.420	-0.120	0.290	0.510
2020/01/31 17:46:46.0	357.390	-0.100	0.230	0.510
2020/01/31 17:46:46.1	357.350	-0.090	0.160	0.500
2020/01/31 17:46:46.2	357.330	-0.070	0.090	0.480
2020/01/31 17:46:46.3	357.310	-0.050	0.020	0.460
2020/01/31 17:46:46.4	357.290	-0.040	-0.060	0.430
2020/01/31 17:46:46.5	357.280	-0.020	-0.140	0.400
2020/01/31 17:46:46.6	357.280	-0.000	-0.230	0.360
2020/01/31 17:46:46.7	357.280	0.020	-0.320	0.320
2020/01/31 17:46:46.8	357.300	0.030	-0.400	0.280
2020/01/31 17:46:46.9	357.310	0.050	-0.490	0.230
2020/01/31 17:46:47.0	357.320	0.070	-0.570	0.180
2020/01/31 17:46:47.1	357.340	0.090	-0.660	0.130
2020/01/31 17:46:47.2	357.370	0.110	-0.740	0.080
2020/01/31 17:46:47.3	357.390	0.120	-0.820	0.030
2020/01/31 17:46:47.4	357.420	0.140	-0.890	-0.020
2020/01/31 17:46:47.5	357.450	0.150	-0.960	-0.060
2020/01/31 17:46:47.6	357.490	0.170	-1.020	-0.110
2020/01/31 17:46:47.7	357.520	0.180	-1.080	-0.150
2020/01/31 17:46:47.8	357.560	0.190	-1.120	-0.200
2020/01/31 17:46:47.9	357.600	0.200	-1.160	-0.240
2020/01/31 17:46:48.0	357.640	0.210	-1.190	-0.270
2020/01/31 17:46:48.1	357.670	0.220	-1.210	-0.310
2020/01/31 17:46:48.2	357.710	0.230	-1.230	-0.340
2020/01/31 17:46:48.3	357.750	0.230	-1.230	-0.360
2020/01/31 17:46:48.4	357.790	0.240	-1.230	-0.390
2020/01/31 17:46:48.5	357.830	0.240	-1.220	-0.410
2020/01/31 17:46:48.6	357.870	0.240	-1.200	-0.430
2020/01/31 17:46:48.7	357.910	0.240	-1.170	-0.450
2020/01/31 17:46:48.8	357.950	0.230	-1.140	-0.460
2020/01/31 17:46:48.9	357.990	0.230	-1.100	-0.470
2020/01/31 17:46:49.0	358.030	0.230	-1.060	-0.490
2020/01/31 17:46:49.1	358.070	0.220	-1.010	-0.490
2020/01/31 17:46:49.2	358.100	0.210	-0.960	-0.500
2020/01/31 17:46:49.3	358.140	0.200	-0.910	-0.510
2020/01/31 17:46:49.4	358.180	0.190	-0.850	-0.510
2020/01/31 17:46:49.5	358.210	0.180	-0.790	-0.510
2020/01/31 17:46:49.6	358.240	0.170	-0.730	-0.510
2020/01/31 17:46:49.7	358.270	0.160	-0.670	-0.510
2020/01/31 17:46:49.8	358.300	0.150	-0.610	-0.500
2020/01/31 17:46:49.9	358.330	0.130	-0.540	-0.490
2020/01/31 17:46:50.0	358.360	0.120	-0.480	-0.490
2020/01/31 17:46:50.1	358.380	0.100	-0.420	-0.480
2020/01/31 17:46:50.2	358.410	0.090	-0.370	-0.460
2020/01/31 17:46:50.3	358.430	0.070	-0.310	-0.450
2020/01/31 17:46:50.4	358.450	0.050	-0.260	-0.440
2020/01/31 17:46:50.5	358.460	0.040	-0.200	-0.420
2020/01/31 17:46:50.6	358.470	0.020	-0.160	-0.400
2020/01/31 17:46:50.7	358.480	-0.000	-0.110	-0.390
2020/01/31 17:46:50.8	358.480	-0.020	-0.070	-0.370
2020/01/31 17:46:50.9	358.480	-0.040	-0.030	-0.350
2020/01/31 17:46:51.0	358.480	-0.060	0.000	-0.320
2020/01/31 17:46:51.1	358.480	-0.080	0.040	-0.300
2020/01/31 17:46:51.2	358.480	-0.110	0.060	-0.280
2020/01/31 17:46:51.3	358.480	-0.130	0.090	-0.260
2020/01/31 17:46:51.4	358.470	-0.150	0.110	-0.230
2020/01/31 17:46:51.5	358.470	-0.180	0.130	-0.210
2020/01/31 17:46:51.6	358.460	-0.200	0.140	-0.190
2020/01/31 17:46:51.7	358.450	-0.220	0.150	-0.170
2020/01/31 17:46:51.8	358.440	-0.250	0.160	-0.150
2020/01/31 17:46:51.9	358.430	-0.270	0.160	-0.130
2020/01/31 17:46:52.0	358.420	-0.290	0.170	-0.110
2020/01/31 17:46:52.1	358.410	-0.310	0.160	-0.100
2020/01/31 17:46:52.2	358.400	-0.330	0.160	-0.090
2020/01/31 17:46:52.3	358.390	-0.350	0.150	-0.080
2020/01/31 17:46:52.4	358.370	-0.370	0.150	-0.070
2020/01/31 17:46:52.5	358.360	-0.390	0.140	-0.060
2020/01/31 17:46:52.6	358.350	-0.410	0.120	-0.050
2020/01/31 17:46:52.7	358.330	-0.420	0.110	-0.050
2020/01/31 17:46:52.8	358.320	-0.440	0.100	-0.040
2020/01/31 17:46:52.9	358.300	-0.450	0.090	-0.040
2020/01/31 17:46:53.0	358.280	-0.450	0.070	-0.040
2020/01/31 17:46:53.1	358.260	-0.460	0.050	-0.030
2020/01/31 17:46:53.2	358.240	-0.460	0.040	-0.030
2020/01/31 17:46:53.3	358.220	-0.460	0.020	-0.030
2020/01/31 17:46:53.4	358.200	-0.460	0.010	-0.030
2020/01/31 17:46:53.5	358.170	-0.450	-0.000	-0.020
2020/01/31 17:46:53.6	358.150	-0.440	-0.020	-0.020
2020/01/31 17:46:53.7	358.120	-0.430	-0.030	-0.010
2020/01/31 17:46:53.8	358.100	-0.420	-0.040	-0.010
2020/01/31 17:46:53.9	358.070	-0.400	-0.050	-0.010
2020/01/31 17:46:54.0	358.050	-0.380	-0.050	0.000
2020/01/31 17:46:54.1	358.020	-0.350	-0.060	0.010
2020/01/31 17:46:54.2	357.990	-0.320	-0.060	0.020
2020/01/31 17:46:54.3	357.970	-0.290	-0.060	0.030
2020/01/31 17:46:54.4	357.940	-0.260	-0.060	0.040
2020/01/31 17:46:54.5	357.920	-0.230	-0.070	0.060
2020/01/31 17:46:54.6	357.890	-0.190	-0.070	0.070
2020/01/31 17:46:54.7	357.870	-0.150	-0.070	0.090
2020/01/31 17:46:54.8	357.840	-0.110	-0.070	0.100
2020/01/31 17:46:54.9	357.820	-0.070	-0.070	0.110
2020/01/31 17:46:55.0	357.800	-0.020	-0.080	0.130
2020/01/31 17:46:55.1	357.790	0.020	-0.090	0.140
2020/01/31 17:46:55.2	357.780	0.070	-0.100	0.150
2020/01/31 17:46:55.3	357.760	0.110	-0.110	0.170
2020/01/31 17:46:55.4	357.750	0.160	-0.120	0.180
2020/01/31 17:46:55.5	357.750	0.200	-0.140	0.190
2020/01/31 17:46:55.6	357.740	0.240	-0.150	0.200
2020/01/31 17:46:55.7	357.740	0.280	-0.170	0.210
2020/01/31 17:46:55.8	357.740	0.320	-0.190	0.220
2020/01/31 17:46:55.9	357.740	0.360	-0.210	0.230
2020/01/31 17:46:56.0	357.740	0.400	-0.240	0.230
2020/01/31 17:46:56.1	357.740	0.430	-0.260	0.230
2020/01/31 17:46:56.2	357.740	0.460	-0.280	0.230
2020/01/31 17:46:56.3	357.750	0.490	-0.310	0.230
2020/01/31 17:46:56.4	357.750	0.510	-0.330	0.230
2020/01/31 17:46:56.5	357.760	0.530	-0.360	0.220
2020/01/31 17:46:56.6	357.770	0.550	-0.390	0.210
2020/01/31 17:46:56.7	357.770	0.570	-0.410	0.200
2020/01/31 17:46:56.8	357.780	0.580	-0.430	0.180
2020/01/31 17:46:56.9	357.790	0.590	-0.460	0.160
2020/01/31 17:46:57.0	357.800	0.590	-0.480	0.150
2020/01/31 17:46:57.1	357.810	0.600	-0.500	0.130
2020/01/31 17:46:57.2	357.820	0.600	-0.520	0.100
2020/01/31 17:46:57.3	357.840	0.590	-0.540	0.080
2020/01/31 17:46:57.4	357.850	0.590	-0.560	0.060
2020/01/31 17:46:57.5	357.860	0.580	-0.570	0.030
2020/01/31 17:46:57.6	357.880	0.570	-0.580	0.010
2020/01/31 17:46:57.7	357.890	0.550	-0.590	-0.020
2020/01/31 17:46:57.8	357.910	0.540	-0.590	-0.050
2020/01/31 17:46:57.9	357.920	0.520	-0.600	-0.070
2020/01/31 17:46:58.0	357.930	0.500	-0.590	-0.090
2020/01/31 17:46:58.1	357.940	0.480	-0.590	-0.120
2020/01/31 17:46:58.2	357.960	0.460	-0.580	-0.140
2020/01/31 17:46:58.3	357.970	0.430	-0.570	-0.160
2020/01/31 17:46:58.4	357.980	0.410	-0.550	-0.190
2020/01/31 17:46:58.5	357.990	0.380	-0.540	-0.210
2020/01/31 17:46:58.6	358.000	0.360	-0.520	-0.230
2020/01/31 17:46:58.7	358.010	0.330	-0.500	-0.250
2020/01/31 17:46:58.8	358.020	0.300	-0.480	-0.270
2020/01/31 17:46:58.9	358.020	0.280	-0.460	-0.290
2020/01/31 17:46:59.0	358.030	0.250	-0.440	-0.310
2020/01/31 17:46:59.1	358.040	0.220	-0.420	-0.330
2020/01/31 17:46:59.2	358.060	0.200	-0.400	-0.350
2020/01/31 17:46:59.3	358.070	0.170	-0.380	-0.370
2020/01/31 17:46:59.4	358.080	0.140	-0.360	-0.400
2020/01/31 17:46:59.5	358.090	0.120	-0.350	-0.420
2020/01/31 17:46:59.6	358.110	0.090	-0.340	-0.440
2020/01/31 17:46:59.7	358.130	0.070	-0.330	-0.460
2020/01/31 17:46:59.8	358.150	0.040	-0.320	-0.480
2020/01/31 17:46:59.9	358.160	0.020	-0.320	-0.500
2020/01/31 17:47:00.0	358.180	-0.010	-0.320	-0.520
2020/01/31 17:47:00.1	358.200	-0.030	-0.320	-0.540
2020/01/31 17:47:00.2	358.220	-0.060	-0.320	-0.560
2020/01/31 17:47:00.3	358.240	-0.080	-0.330	-0.580
2020/01/31 17:47:00.4	358.260	-0.110	-0.330	-0.600
2020/01/31 17:47:00.5	358.280	-0.130	-0.340	-0.610
2020/01/31 17:47:00.6	358.300	-0.160	-0.350	-0.630
2020/01/31 17:47:00.7	358.330	-0.180	-0.350	-0.650
2020/01/31 17:47:00.8	358.340	-0.210	-0.360	-0.670
2020/01/31 17:47:00.9	358.370	-0.240	-0.370	-0.690
2020/01/31 17:47:01.0	358.390	-0.260	-0.380	-0.710
2020/01/31 17:47:01.1	358.410	-0.290	-0.380	-0.730
2020/01/31 17:47:01.2	358.430	-0.320	-0.380	-0.740
2020/01/31 17:47:01.3	358.450	-0.340	-0.390	-0.760
2020/01/31 17:47:01.4	358.470	-0.370	-0.390	-0.780
2020/01/31 17:47:01.5	358.490	-0.390	-0.380	-0.800
2020/01/31 17:47:01.6	358.520	-0.420	-0.380	-0.810
2020/01/31 17:47:01.7	358.540	-0.440	-0.370	-0.820
2020/01/31 17:47:01.8	358.560	-0.470	-0.360	-0.840
2020/01/31 17:47:01.9	358.580	-0.490	-0.340	-0.850
2020/01/31 17:47:02.0	358.590	-0.510	-0.320	-0.850
2020/01/31 17:47:02.1	358.610	-0.530	-0.300	-0.850
2020/01/31 17:47:02.2	358.620	-0.550	-0.270	-0.840
2020/01/31 17:47:02.3	358.630	-0.570	-0.240	-0.830
2020/01/31 17:47:02.4	358.630	-0.590	-0.200	-0.820
2020/01/31 17:47:02.5	358.640	-0.600	-0.160	-0.800
2020/01/31 17:47:02.6	358.640	-0.610	-0.120	-0.780
2020/01/31 17:47:02.7	358.640	-0.620	-0.070	-0.750
2020/01/31 17:47:02.8	358.640	-0.630	-0.030	-0.710
2020/01/31 17:47:02.9	358.630	-0.630	0.020	-0.680
2020/01/31 17:47:03.0	358.620	-0.640	0.080	-0.630
2020/01/31 17:47:03.1	358.610	-0.640	0.130	-0.590
2020/01/31 17:47:03.2	358.590	-0.630	0.190	-0.540
2020/01/31 17:47:03.3	358.580	-0.620	0.240	-0.480
2020/01/31 17:47:03.4	358.560	-0.610	0.300	-0.420
2020/01/31 17:47:03.5	358.540	-0.600	0.350	-0.370
2020/01/31 17:47:03.6	358.520	-0.590	0.400	-0.310
2020/01/31 17:47:03.7	358.500	-0.570	0.440	-0.240
2020/01/31 17:47:03.8	358.470	-0.540	0.490	-0.180
2020/01/31 17:47:03.9	358.440	-0.520	0.520	-0.120
2020/01/31 17:47:04.0	358.420	-0.490	0.560	-0.050
2020/01/31 17:47:04.1	358.390	-0.460	0.580	0.010
2020/01/31 17:47:04.2	358.360	-0.420	0.600	0.080
2020/01/31 17:47:04.3	358.330	-0.390	0.620	0.140
2020/01/31 17:47:04.4	358.290	-0.350	0.630	0.210
2020/01/31 17:47:04.5	358.260	-0.310	0.630	0.270
2020/01/31 17:47:04.6	358.220	-0.270	0.620	0.340
2020/01/31 17:47:04.7	358.190	-0.220	0.610	0.400
2020/01/31 17:47:04.8	358.140	-0.180	0.590	0.460
2020/01/31 17:47:04.9	358.100	-0.130	0.560	0.520
2020/01/31 17:47:05.0	358.070	-0.080	0.520	0.580
2020/01/31 17:47:05.1	358.030	-0.030	0.480	0.640
2020/01/31 17:47:05.2	357.990	0.020	0.430	0.690
2020/01/31 17:47:05.3	357.950	0.070	0.380	0.740
2020/01/31 17:47:05.4	357.910	0.120	0.320	0.780
2020/01/31 17:47:05.5	357.880	0.170	0.250	0.830
2020/01/31 17:47:05.6	357.840	0.210	0.180	0.870
2020/01/31 17:47:05.7	357.810	0.260	0.100	0.900
2020/01/31 17:47:05.8	357.760	0.300	0.020	0.930
2020/01/31 17:47:05.9	357.730	0.350	-0.070	0.950
2020/01/31 17:47:06.0	357.700	0.390	-0.160	0.970
2020/01/31 17:47:06.1	357.680	0.430	-0.250	0.990
2020/01/31 17:47:06.2	357.650	0.470	-0.340	1.000
2020/01/31 17:47:06.3	357.630	0.500	-0.430	1.000
2020/01/31 17:47:06.4	357.610	0.530	-0.520	1.000
2020/01/31 17:47:06.5	357.590	0.560	-0.610	0.990
2020/01/31 17:47:06.6	357.580	0.590	-0.700	0.980
2020/01/31 17:47:06.7	357.570	0.610	-0.790	0.960
2020/01/31 17:47:06.8	357.580	0.630	-0.870	0.930
2020/01/31 17:47:06.9	357.570	0.640	-0.950	0.900
2020/01/31 17:47:07.0	357.570	0.660	-1.030	0.870
2020/01/31 17:47:07.1	357.580	0.670	-1.100	0.820
2020/01/31 17:47:07.2	357.590	0.670	-1.170	0.780
2020/01/31 17:47:07.3	357.600	0.670	-1.230	0.720
2020/01/31 17:47:07.4	357.620	0.670	-1.290	0.660
2020/01/31 17:47:07.5	357.640	0.660	-1.340	0.600
2020/01/31 17:47:07.6	357.670	0.660	-1.390	0.530
2020/01/31 17:47:07.7	357.700	0.640	-1.430	0.450
2020/01/31 17:47:07.8	357.750	0.630	-1.460	0.370
2020/01/31 17:47:07.9	357.790	0.610	-1.490	0.280
2020/01/31 17:47:08.0	357.840	0.590	-1.510	0.190
2020/01/31 17:47:08.1	357.900	0.570	-1.530	0.090
2020/01/31 17:47:08.2	357.960	0.540	-1.540	-0.010
2020/01/31 17:47:08.3	358.030	0.520	-1.550	-0.110
2020/01/31 17:47:08.4	358.100	0.490	-1.550	-0.210
2020/01/31 17:47:08.5	358.170	0.460	-1.540	-0.310
2020/01/31 17:47:08.6	358.250	0.430	-1.520	-0.420
2020/01/31 17:47:08.7	358.330	0.400	-1.500	-0.520
2020/01/31 17:47:08.8	358.420	0.360	-1.470	-0.630
2020/01/31 17:47:08.9	358.500	0.330	-1.440	-0.720
2020/01/31 17:47:09.0	358.580	0.290	-1.400	-0.820
2020/01/31 17:47:09.1	358.660	0.260	-1.350	-0.910
2020/01/31 17:47:09.2	358.730	0.220	-1.290	-0.990
2020/01/31 17:47:09.3	358.810	0.180	-1.230	-1.070
2020/01/31 17:47:09.4	358.880	0.140	-1.160	-1.140
2020/01/31 17:47:09.5	358.950	0.110	-1.080	-1.210
2020/01/31 17:47:09.6	359.010	0.070	-1.000	-1.270
2020/01/31 17:47:09.7	359.070	0.030	-0.910	-1.320
2020/01/31 17:47:09.8	359.090	-0.010	-0.820	-1.360
2020/01/31 17:47:09.9	359.140	-0.050	-0.710	-1.390
2020/01/31 17:47:10.0	359.180	-0.090	-0.610	-1.420
2020/01/31 17:47:10.1	359.210	-0.130	-0.490	-1.430
2020/01/31 17:47:10.2	359.230	-0.170	-0.380	-1.440
2020/01/31 17:47:10.3	359.250	-0.210	-0.250	-1.440
2020/01/31 17:47:10.4	359.250	-0.250	-0.130	-1.430
2020/01/31 17:47:10.5	359.250	-0.290	-0.000	-1.410
2020/01/31 17:47:10.6	359.250	-0.330	0.120	-1.390
2020/01/31 17:47:10.7	359.230	-0.370	0.250	-1.350
2020/01/31 17:47:10.8	359.200	-0.410	0.380	-1.310
2020/01/31 17:47:10.9	359.170	-0.450	0.500	-1.270
2020/01/31 17:47:11.0	359.130	-0.480	0.620	-1.220
2020/01/31 17:47:11.1	359.090	-0.520	0.740	-1.160
2020/01/31 17:47:11.2	359.050	-0.550	0.840	-1.100
2020/01/31 17:47:11.3	359.000	-0.580	0.950	-1.030
2020/01/31 17:47:11.4	358.950	-0.610	1.040	-0.970
2020/01/31 17:47:11.5	358.900	-0.640	1.130	-0.900
2020/01/31 17:47:11.6	358.840	-0.660	1.200	-0.830
2020/01/31 17:47:11.7	358.780	-0.680	1.270	-0.750
2020/01/31 17:47:11.8	358.710	-0.700	1.320	-0.680
2020/01/31 17:47:11.9	358.650	-0.720	1.360	-0.610
2020/01/31 17:47:12.0	358.580	-0.730	1.390	-0.530
2020/01/31 17:47:12.1	358.520	-0.740	1.410	-0.460
2020/01/31 17:47:12.2	358.460	-0.740	1.420	-0.390
2020/01/31 17:47:12.3	358.390	-0.740	1.410	-0.320
2020/01/31 17:47:12.4	358.330	-0.740	1.390	-0.250
2020/01/31 17:47:12.5	358.270	-0.730	1.370	-0.180
2020/01/31 17:47:12.6	358.200	-0.720	1.330	-0.120
2020/01/31 17:47:12.7	358.140	-0.700	1.280	-0.050
2020/01/31 17:47:12.8	358.070	-0.680	1.220	0.010
2020/01/31 17:47:12.9	358.000	-0.650	1.160	0.070
2020/01/31 17:47:13.0	357.940	-0.620	1.080	0.130
2020/01/31 17:47:13.1	357.890	-0.580	1.000	0.190
2020/01/31 17:47:13.2	357.830	-0.540	0.920	0.240
2020/01/31 17:47:13.3	357.770	-0.490	0.820	0.300
2020/01/31 17:47:13.4	357.720	-0.450	0.720	0.350
2020/01/31 17:47:13.5	357.670	-0.390	0.620	0.400
2020/01/31 17:47:13.6	357.620	-0.340	0.520	0.450
2020/01/31 17:47:13.7	357.580	-0.280	0.410	0.500
2020/01/31 17:47:13.8	357.540	-0.220	0.300	0.540
2020/01/31 17:47:13.9	357.500	-0.150	0.190	0.580
2020/01/31 17:47:14.0	357.460	-0.090	0.080	0.620
2020/01/31 17:47:14.1	357.430	-0.020	-0.030	0.650
2020/01/31 17:47:14.2	357.400	0.050	-0.140	0.680
2020/01/31 17:47:14.3	357.370	0.120	-0.250	0.710
2020/01/31 17:47:14.4	357.340	0.190	-0.360	0.740
2020/01/31 17:47:14.5	357.320	0.260	-0.460	0.760
2020/01/31 17:47:14.6	357.310	0.330	-0.560	0.780
2020/01/31 17:47:14.7	357.290	0.400	-0.660	0.790
2020/01/31 17:47:14.8	357.290	0.460	-0.760	0.800
2020/01/31 17:47:14.9	357.290	0.520	-0.850	0.810
2020/01/31 17:47:15.0	357.290	0.580	-0.940	0.810
2020/01/31 17:47:15.1	357.290	0.640	-1.020	0.800
2020/01/31 17:47:15.2	357.300	0.690	-1.100	0.790
2020/01/31 17:47:15.3	357.320	0.740	-1.180	0.780
2020/01/31 17:47:15.4	357.330	0.790	-1.250	0.760
2020/01/31 17:47:15.5	357.360	0.830	-1.320	0.740
2020/01/31 17:47:15.6	357.380	0.860	-1.370	0.710
2020/01/31 17:47:15.7	357.410	0.890	-1.430	0.680
2020/01/31 17:47:15.8	357.470	0.920	-1.470	0.640
2020/01/31 17:47:15.9	357.510	0.930	-1.510	0.610
2020/01/31 17:47:16.0	357.540	0.940	-1.550	0.570
2020/01/31 17:47:16.1	357.580	0.950	-1.570	0.520
2020/01/31 17:47:16.2	357.620	0.950	-1.590	0.480
2020/01/31 17:47:16.3	357.660	0.940	-1.590	0.430
2020/01/31 17:47:16.4	357.700	0.920	-1.590	0.390
2020/01/31 17:47:16.5	357.740	0.900	-1.580	0.340
2020/01/31 17:47:16.6	357.780	0.870	-1.570	0.290
2020/01/31 17:47:16.7	357.810	0.840	-1.540	0.240
2020/01/31 17:47:16.8	357.850	0.790	-1.500	0.200
2020/01/31 17:47:16.9	357.880	0.750	-1.460	0.150
2020/01/31 17:47:17.0	357.910	0.690	-1.410	0.100
2020/01/31 17:47:17.1	357.940	0.630	-1.360	0.050
2020/01/31 17:47:17.2	357.970	0.570	-1.290	0.000
2020/01/31 17:47:17.3	357.990	0.500	-1.220	-0.040
2020/01/31 17:47:17.4	358.010	0.430	-1.150	-0.090
2020/01/31 17:47:17.5	358.030	0.360	-1.070	-0.130
2020/01/31 17:47:17.6	358.050	0.280	-0.980	-0.180
2020/01/31 17:47:17.7	358.060	0.200	-0.890	-0.220
2020/01/31 17:47:17.8	358.070	0.120	-0.800	-0.260
2020/01/31 17:47:17.9	358.080	0.040	-0.710	-0.300
2020/01/31 17:47:18.0	358.090	-0.040	-0.610	-0.330
2020/01/31 17:47:18.1	358.100	-0.120	-0.510	-0.360
2020/01/31 17:47:18.2	358.100	-0.200	-0.410	-0.390
2020/01/31 17:47:18.3	358.110	-0.280	-0.310	-0.420
2020/01/31 17:47:18.4	358.110	-0.360	-0.220	-0.440
2020/01/31 17:47:18.5	358.120	-0.430	-0.120	-0.470
2020/01/31 17:47:18.6	358.120	-0.500	-0.030	-0.490
2020/01/31 17:47:18.7	358.120	-0.570	0.060	-0.510
2020/01/31 17:47:18.8	358.120	-0.630	0.140	-0.530
2020/01/31 17:47:18.9	358.130	-0.680	0.220	-0.550
2020/01/31 17:47:19.0	358.130	-0.740	0.290	-0.570
2020/01/31 17:47:19.1	358.130	-0.780	0.360	-0.580
2020/01/31 17:47:19.2	358.130	-0.820	0.420	-0.600
2020/01/31 17:47:19.3	358.140	-0.860	0.470	-0.610
2020/01/31 17:47:19.4	358.140	-0.890	0.520	-0.620
2020/01/31 17:47:19.5	358.140	-0.910	0.560	-0.640
2020/01/31 17:47:19.6	358.150	-0.920	0.590	-0.650
2020/01/31 17:47:19.7	358.150	-0.930	0.610	-0.650
2020/01/31 17:47:19.8	358.120	-0.940	0.630	-0.660
2020/01/31 17:47:19.9	358.120	-0.940	0.640	-0.670
2020/01/31 17:47:20.0	358.130	-0.930	0.650	-0.670
2020/01/31 17:47:20.1	358.130	-0.910	0.640	-0.670
2020/01/31 17:47:20.2	358.130	-0.890	0.640	-0.660
2020/01/31 17:47:20.3	358.130	-0.870	0.620	-0.650
2020/01/31 17:47:20.4	358.130	-0.840	0.600	-0.640
2020/01/31 17:47:20.5	358.120	-0.800	0.580	-0.630
2020/01/31 17:47:20.6	358.120	-0.760	0.560	-0.610
2020/01/31 17:47:20.7	358.110	-0.720	0.530	-0.590
2020/01/31 17:47:20.8	358.090	-0.670	0.490	-0.570
2020/01/31 17:47:20.9	358.080	-0.620	0.450	-0.540
2020/01/31 17:47:21.0	358.070	-0.570	0.420	-0.510
2020/01/31 17:47:21.1	358.050	-0.510	0.380	-0.480
2020/01/31 17:47:21.2	358.030	-0.460	0.340	-0.440
2020/01/31 17:47:21.3	358.010	-0.400	0.300	-0.400
2020/01/31 17:47:21.4	357.980	-0.340	0.260	-0.350
2020/01/31 17:47:21.5	357.950	-0.280	0.220	-0.300
2020/01/31 17:47:21.6	357.920	-0.230	0.190	-0.250
2020/01/31 17:47:21.7	357.890	-0.170	0.150	-0.200
2020/01/31 17:47:21.8	357.850	-0.110	0.120	-0.150
2020/01/31 17:47:21.9	357.810	-0.060	0.090	-0.100
2020/01/31 17:47:22.0	357.770	-0.000	0.060	-0.040
2020/01/31 17:47:22.1	357.720	0.050	0.030	0.020
2020/01/31 17:47:22.2	357.670	0.100	0.000	0.070
2020/01/31 17:47:22.3	357.630	0.150	-0.020	0.130
2020/01/31 17:47:22.4	357.580	0.200	-0.040	0.180
2020/01/31 17:47:22.5	357.530	0.240	-0.060	0.230
2020/01/31 17:47:22.6	357.480	0.280	-0.080	0.290
2020/01/31 17:47:22.7	357.440	0.320	-0.100	0.340
2020/01/31 17:47:22.8	357.400	0.360	-0.110	0.380
2020/01/31 17:47:22.9	357.350	0.390	-0.130	0.430
2020/01/31 17:47:23.0	357.310	0.420	-0.140	0.480
2020/01/31 17:47:23.1	357.270	0.450	-0.160	0.520
2020/01/31 17:47:23.2	357.230	0.480	-0.170	0.560
2020/01/31 17:47:23.3	357.190	0.500	-0.190	0.600
2020/01/31 17:47:23.4	357.160	0.520	-0.200	0.630
2020/01/31 17:47:23.5	357.130	0.540	-0.210	0.660
2020/01/31 17:47:23.6	357.100	0.560	-0.230	0.690
2020/01/31 17:47:23.7	357.080	0.570	-0.250	0.710
2020/01/31 17:47:23.8	357.080	0.590	-0.260	0.730
2020/01/31 17:47:23.9	357.060	0.600	-0.280	0.740
2020/01/31 17:47:24.0	357.050	0.610	-0.300	0.750
2020/01/31 17:47:24.1	357.050	0.620	-0.330	0.750
2020/01/31 17:47:24.2	357.050	0.620	-0.350	0.760
2020/01/31 17:47:24.3	357.050	0.630	-0.380	0.760
2020/01/31 17:47:24.4	357.050	0.630	-0.410	0.750
2020/01/31 17:47:24.5	357.060	0.640	-0.440	0.750
2020/01/31 17:47:24.6	357.070	0.640	-0.470	0.740
2020/01/31 17:47:24.7	357.080	0.640	-0.500	0.730
2020/01/31 17:47:24.8	357.100	0.640	-0.540	0.720
2020/01/31 17:47:24.9	357.110	0.630	-0.570	0.700
2020/01/31 17:47:25.0	357.130	0.630	-0.610	0.680
2020/01/31 17:47:25.1	357.150	0.620	-0.640	0.660
2020/01/31 17:47:25.2	357.170	0.620	-0.680	0.640
2020/01/31 17:47:25.3	357.190	0.610	-0.710	0.620
2020/01/31 17:47:25.4	357.220	0.590	-0.750	0.590
2020/01/31 17:47:25.5	357.240	0.580	-0.780	0.550
2020/01/31 17:47:25.6	357.270	0.570	-0.820	0.520
2020/01/31 17:47:25.7	357.300	0.550	-0.850	0.480
2020/01/31 17:47:25.8	357.330	0.530	-0.880	0.430
2020/01/31 17:47:25.9	357.370	0.510	-0.910	0.380
2020/01/31 17:47:26.0	357.400	0.490	-0.930	0.330
2020/01/31 17:47:26.1	357.440	0.460	-0.960	0.280
2020/01/31 17:47:26.2	357.470	0.430	-0.980	0.220
2020/01/31 17:47:26.3	357.510	0.400	-0.990	0.170
2020/01/31 17:47:26.4	357.550	0.370	-1.000	0.110
2020/01/31 17:47:26.5	357.590	0.340	-1.010	0.050
2020/01/31 17:47:26.6	357.630	0.300	-1.010	-0.010
2020/01/31 17:47:26.7	357.670	0.270	-1.010	-0.070
2020/01/31 17:47:26.8	357.710	0.230	-1.000	-0.140
2020/01/31 17:47:26.9	357.750	0.190	-0.980	-0.200
2020/01/31 17:47:27.0	357.780	0.150	-0.960	-0.250
2020/01/31 17:47:27.1	357.820	0.100	-0.940	-0.310
2020/01/31 17:47:27.2	357.850	0.060	-0.910	-0.360
2020/01/31 17:47:27.3	357.880	0.010	-0.870	-0.410
2020/01/31 17:47:27.4	357.910	-0.040	-0.830	-0.450
2020/01/31 17:47:27.5	357.940	-0.090	-0.780	-0.490
2020/01/31 17:47:27.6	357.970	-0.140	-0.730	-0.530
2020/01/31 17:47:27.7	357.990	-0.190	-0.680	-0.560
2020/01/31 17:47:27.8	357.990	-0.240	-0.620	-0.600
2020/01/31 17:47:27.9	358.010	-0.300	-0.560	-0.620
2020/01/31 17:47:28.0	358.020	-0.350	-0.490	-0.650
2020/01/31 17:47:28.1	358.030	-0.400	-0.420	-0.670
2020/01/31 17:47:28.2	358.040	-0.450	-0.350	-0.680
2020/01/31 17:47:28.3	358.040	-0.510	-0.280	-0.700
2020/01/31 17:47:28.4	358.040	-0.560	-0.210	-0.710
2020/01/31 17:47:28.5	358.040	-0.610	-0.140	-0.710
2020/01/31 17:47:28.6	358.030	-0.660	-0.060	-0.720
2020/01/31 17:47:28.7	358.020	-0.710	0.010	-0.720
2020/01/31 17:47:28.8	358.000	-0.750	0.080	-0.720
2020/01/31 17:47:28.9	357.980	-0.790	0.150	-0.710
2020/01/31 17:47:29.0	357.960	-0.830	0.220	-0.710
2020/01/31 17:47:29.1	357.930	-0.870	0.290	-0.700
2020/01/31 17:47:29.2	357.900	-0.900	0.350	-0.690
2020/01/31 17:47:29.3	357.870	-0.930	0.410	-0.680
2020/01/31 17:47:29.4	357.830	-0.950	0.460	-0.660
2020/01/31 17:47:29.5	357.800	-0.970	0.510	-0.650
2020/01/31 17:47:29.6	357.760	-0.980	0.560	-0.630
2020/01/31 17:47:29.7	357.710	-0.990	0.590	-0.610
2020/01/31 17:47:29.8	357.650	-0.990	0.630	-0.590
2020/01/31 17:47:29.9	357.610	-0.990	0.660	-0.570
2020/01/31 17:47:30.0	357.560	-0.980	0.680	-0.540
2020/01/31 17:47:30.1	357.520	-0.960	0.690	-0.510
2020/01/31 17:47:30.2	357.470	-0.940	0.700	-0.480
2020/01/31 17:47:30.3	357.420	-0.910	0.710	-0.450
2020/01/31 17:47:30.4	357.370	-0.880	0.710	-0.410
2020/01/31 17:47:30.5	357.330	-0.840	0.700	-0.370
2020/01/31 17:47:30.6	357.280	-0.800	0.690	-0.330
2020/01/31 17:47:30.7	357.240	-0.750	0.670	-0.290
2020/01/31 17:47:30.8	357.190	-0.690	0.640	-0.250
2020/01/31 17:47:30.9	357.150	-0.630	0.610	-0.210
2020/01/31 17:47:31.0	357.110	-0.560	0.580	-0.160
2020/01/31 17:47:31.1	357.070	-0.490	0.540	-0.120
2020/01/31 17:47:31.2	357.030	-0.420	0.490	-0.070
2020/01/31 17:47:31.3	357.000	-0.340	0.450	-0.030
2020/01/31 17:47:31.4	356.970	-0.270	0.390	0.020
2020/01/31 17:47:31.5	356.940	-0.190	0.340	0.060
2020/01/31 17:47:31.6	356.910	-0.110	0.280	0.110
2020/01/31 17:47:31.7	356.880	-0.020	0.220	0.150
2020/01/31 17:47:31.8	356.850	0.060	0.160	0.200
2020/01/31 17:47:31.9	356.820	0.140	0.090	0.240
2020/01/31 17:47:32.0	356.810	0.220	0.030	0.280
2020/01/31 17:47:32.1	356.790	0.290	-0.030	0.320
2020/01/31 17:47:32.2	356.780	0.370	-0.100	0.360
2020/01/31 17:47:32.3	356.760	0.440	-0.170	0.390
2020/01/31 17:47:32.4	356.760	0.510	-0.230	0.430
2020/01/31 17:47:32.5	356.750	0.570	-0.290	0.450
2020/01/31 17:47:32.6	356.750	0.630	-0.360	0.480
2020/01/31 17:47:32.7	356.750	0.680	-0.420	0.500
2020/01/31 17:47:32.8	356.770	0.730	-0.470	0.530
2020/01/31 17:47:32.9	356.770	0.770	-0.530	0.540
2020/01/31 17:47:33.0	356.780	0.810	-0.580	0.560
2020/01/31 17:47:33.1	356.790	0.840	-0.630	0.570
2020/01/31 17:47:33.2	356.800	0.870	-0.670	0.570
2020/01/31 17:47:33.3	356.820	0.890	-0.720	0.580
2020/01/31 17:47:33.4	356.830	0.900	-0.750	0.580
2020/01/31 17:47:33.5	356.850	0.910	-0.790	0.580
2020/01/31 17:47:33.6	356.870	0.910	-0.820	0.570
2020/01/31 17:47:33.7	356.900	0.910	-0.840	0.570
2020/01/31 17:47:33.8	356.920	0.900	-0.860	0.560
2020/01/31 17:47:33.9	356.950	0.880	-0.880	0.550
2020/01/31 17:47:34.0	356.970	0.860	-0.890	0.540
2020/01/31 17:47:34.1	357.000	0.840	-0.900	0.520
2020/01/31 17:47:34.2	357.020	0.810	-0.900	0.510
2020/01/31 17:47:34.3	357.050	0.770	-0.900	0.490
2020/01/31 17:47:34.4	357.070	0.730	-0.890	0.470
2020/01/31 17:47:34.5	357.100	0.690	-0.880	0.450
2020/01/31 17:47:34.6	357.120	0.650	-0.870	0.430
2020/01/31 17:47:34.7	357.140	0.600	-0.850	0.410
2020/01/31 17:47:34.8	357.180	0.550	-0.840	0.390
2020/01/31 17:47:34.9	357.200	0.500	-0.820	0.370
2020/01/31 17:47:35.0	357.210	0.450	-0.790	0.350
2020/01/31 17:47:35.1	357.230	0.390	-0.770	0.330
2020/01/31 17:47:35.2	357.250	0.340	-0.740	0.310
2020/01/31 17:47:35.3	357.260	0.290	-0.710	0.290
2020/01/31 17:47:35.4	357.270	0.230	-0.690	0.260
2020/01/31 17:47:35.5	357.280	0.180	-0.660	0.240
2020/01/31 17:47:35.6	357.290	0.130	-0.630	0.220
2020/01/31 17:47:35.7	357.290	0.080	-0.600	0.200
2020/01/31 17:47:35.8	357.300	0.040	-0.570	0.180
2020/01/31 17:47:35.9	357.300	-0.010	-0.540	0.150
2020/01/31 17:47:36.0	357.310	-0.050	-0.510	0.130
2020/01/31 17:47:36.1	357.310	-0.080	-0.480	0.100
2020/01/31 17:47:36.2	357.310	-0.120	-0.460	0.080
2020/01/31 17:47:36.3	357.310	-0.150	-0.430	0.050
2020/01/31 17:47:36.4	357.310	-0.180	-0.410	0.020
2020/01/31 17:47:36.5	357.310	-0.200	-0.390	-0.010
2020/01/31 17:47:36.6	357.300	-0.230	-0.370	-0.050
2020/01/31 17:47:36.7	357.300	-0.240	-0.350	-0.080
2020/01/31 17:47:36.8	357.290	-0.260	-0.340	-0.120
2020/01/31 17:47:36.9	357.290	-0.270	-0.330	-0.150
2020/01/31 17:47:37.0	357.280	-0.280	-0.310	-0.190
2020/01/31 17:47:37.1	357.280	-0.290	-0.310	-0.220
2020/01/31 17:47:37.2	357.280	-0.290	-0.300	-0.260
2020/01/31 17:47:37.3	357.280	-0.290	-0.290	-0.290
2020/01/31 17:47:37.4	357.270	-0.280	-0.290	-0.330
2020/01/31 17:47:37.5	357.270	-0.280	-0.290	-0.360
2020/01/31 17:47:37.6	357.280	-0.270	-0.290	-0.390
2020/01/31 17:47:37.7	357.280	-0.260	-0.290	-0.420
2020/01/31 17:47:37.8	357.280	-0.250	-0.290	-0.450
2020/01/31 17:47:37.9	357.290	-0.240	-0.290	-0.480
2020/01/31 17:47:38.0	357.290	-0.220	-0.300	-0.500
2020/01/31 17:47:38.1	357.300	-0.210	-0.300	-0.520
2020/01/31 17:47:38.2	357.310	-0.190	-0.300	-0.540
2020/01/31 17:47:38.3	357.320	-0.180	-0.300	-0.550
2020/01/31 17:47:38.4	357.340	-0.160	-0.300	-0.560
2020/01/31 17:47:38.5	357.350	-0.150	-0.300	-0.570
2020/01/31 17:47:38.6	357.360	-0.130	-0.300	-0.580
2020/01/31 17:47:38.7	357.380	-0.120	-0.300	-0.580
2020/01/31 17:47:38.8	357.390	-0.110	-0.290	-0.580
2020/01/31 17:47:38.9	357.410	-0.090	-0.290	-0.580
2020/01/31 17:47:39.0	357.420	-0.080	-0.280	-0.580
2020/01/31 17:47:39.1	357.440	-0.070	-0.260	-0.580
2020/01/31 17:47:39.2	357.450	-0.070	-0.250	-0.570
2020/01/31 17:47:39.3	357.470	-0.060	-0.230	-0.560
2020/01/31 17:47:39.4	357.480	-0.060	-0.210	-0.550
2020/01/31 17:47:39.5	357.490	-0.060	-0.190	-0.540
2020/01/31 17:47:39.6	357.500	-0.060	-0.160	-0.520
2020/01/31 17:47:39.7	357.510	-0.060	-0.130	-0.510
2020/01/31 17:47:39.8	357.510	-0.070	-0.100	-0.490
2020/01/31 17:47:39.9	357.520	-0.070	-0.070	-0.470
2020/01/31 17:47:40.0	357.530	-0.080	-0.030	-0.440
2020/01/31 17:47:40.1	357.530	-0.090	0.000	-0.410
2020/01/31 17:47:40.2	357.530	-0.100	0.040	-0.380
2020/01/31 17:47:40.3	357.530	-0.110	0.090	-0.350
2020/01/31 17:47:40.4	357.530	-0.120	0.130	-0.310
2020/01/31 17:47:40.5	357.530	-0.130	0.170	-0.260
2020/01/31 17:47:40.6	357.520	-0.140	0.220	-0.220
2020/01/31 17:47:40.7	357.510	-0.160	0.260	-0.170
2020/01/31 17:47:40.8	357.510	-0.170	0.300	-0.120
2020/01/31 17:47:40.9	357.500	-0.180	0.340	-0.070
2020/01/31 17:47:41.0	357.490	-0.200	0.390	-0.010
2020/01/31 17:47:41.1	357.470	-0.210	0.430	0.050
2020/01/31 17:47:41.2	357.450	-0.220	0.460	0.110
2020/01/31 17:47:41.3	357.440	-0.230	0.500	0.170
2020/01/31 17:47:41.4	357.410	-0.240	0.530	0.230
2020/01/31 17:47:41.5	357.390	-0.250	0.550	0.290
2020/01/31 17:47:41.6	357.370	-0.260	0.570	0.350
2020/01/31 17:47:41.7	357.350	-0.270	0.590	0.400
2020/01/31 17:47:41.8	357.330	-0.280	0.600	0.460
2020/01/31 17:47:41.9	357.300	-0.280	0.610	0.510
2020/01/31 17:47:42.0	357.280	-0.280	0.610	0.560
2020/01/31 17:47:42.1	357.250	-0.280	0.600	0.600
2020/01/31 17:47:42.2	357.230	-0.280	0.590	0.640
2020/01/31 17:47:42.3	357.210	-0.280	0.570	0.670
2020/01/31 17:47:42.4	357.190	-0.270	0.540	0.700
2020/01/31 17:47:42.5	357.170	-0.260	0.510	0.720
2020/01/31 17:47:42.6	357.150	-0.250	0.470	0.730
2020/01/31 17:47:42.7	357.140	-0.240	0.420	0.740
2020/01/31 17:47:42.8	357.130	-0.220	0.370	0.740
2020/01/31 17:47:42.9	357.120	-0.210	0.320	0.730
2020/01/31 17:47:43.0	357.110	-0.190	0.250	0.720
2020/01/31 17:47:43.1	357.100	-0.160	0.180	0.710
2020/01/31 17:47:43.2	357.100	-0.140	0.110	0.690
2020/01/31 17:47:43.3	357.090	-0.110	0.040	0.680
2020/01/31 17:47:43.4	357.090	-0.080	-0.040	0.650
2020/01/31 17:47:43.5	357.090	-0.040	-0.120	0.630
2020/01/31 17:47:43.6	357.090	-0.010	-0.200	0.600
2020/01/31 17:47:43.7	357.090	0.030	-0.280	0.580
2020/01/31 17:47:43.8	357.100	0.060	-0.360	0.540
2020/01/31 17:47:43.9	357.100	0.100	-0.440	0.520
2020/01/31 17:47:44.0	357.100	0.140	-0.510	0.490
2020/01/31 17:47:44.1	357.110	0.180	-0.590	0.450
2020/01/31 17:47:44.2	357.110	0.210	-0.660	0.420
2020/01/31 17:47:44.3	357.120	0.250	-0.730	0.390
2020/01/31 17:47:44.4	357.130	0.290	-0.800	0.360
2020/01/31 17:47:44.5	357.140	0.320	-0.860	0.320
2020/01/31 17:47:44.6	357.150	0.360	-0.920	0.290
2020/01/31 17:47:44.7	357.160	0.390	-0.980	0.260
2020/01/31 17:47:44.8	357.170	0.420	-1.030	0.220
2020/01/31 17:47:44.9	357.190	0.450	-1.080	0.180
2020/01/31 17:47:45.0	357.200	0.480	-1.120	0.150
2020/01/31 17:47:45.1	357.220	0.500	-1.160	0.110
2020/01/31 17:47:45.2	357.240	0.520	-1.190	0.070
2020/01/31 17:47:45.3	357.260	0.540	-1.220	0.040
2020/01/31 17:47:45.4	357.270	0.560	-1.240	0.000
2020/01/31 17:47:45.5	357.290	0.570	-1.260	-0.040
2020/01/31 17:47:45.6	357.310	0.580	-1.270	-0.070
2020/01/31 17:47:45.7	357.330	0.580	-1.270	-0.110
2020/01/31 17:47:45.8	357.340	0.580	-1.270	-0.150
2020/01/31 17:47:45.9	357.360	0.580	-1.260	-0.180
2020/01/31 17:47:46.0	357.380	0.580	-1.250	-0.210
2020/01/31 17:47:46.1	357.390	0.570	-1.230	-0.250
2020/01/31 17:47:46.2	357.410	0.560	-1.200	-0.280
2020/01/31 17:47:46.3	357.420	0.540	-1.170	-0.300
2020/01/31 17:47:46.4	357.430	0.530	-1.130	-0.330
2020/01/31 17:47:46.5	357.440	0.510	-1.090	-0.350
2020/01/31 17:47:46.6	357.440	0.480	-1.040	-0.380
2020/01/31 17:47:46.7	357.450	0.460	-0.980	-0.390
2020/01/31 17:47:46.8	357.450	0.430	-0.920	-0.410
2020/01/31 17:47:46.9	357.450	0.390	-0.860	-0.420
2020/01/31 17:47:47.0	357.450	0.360	-0.780	-0.420
2020/01/31 17:47:47.1	357.440	0.320	-0.710	-0.420
2020/01/31 17:47:47.2	357.440	0.280	-0.630	-0.420
2020/01/31 17:47:47.3	357.420	0.240	-0.550	-0.410
2020/01/31 17:47:47.4	357.410	0.200	-0.460	-0.400
2020/01/31 17:47:47.5	357.400	0.150	-0.380	-0.380
2020/01/31 17:47:47.6	357.380	0.110	-0.290	-0.360
2020/01/31 17:47:47.7	357.370	0.060	-0.200	-0.340
2020/01/31 17:47:47.8	357.330	0.020	-0.120	-0.320
2020/01/31 17:47:47.9	357.320	-0.030	-0.040	-0.290
2020/01/31 17:47:48.0	357.300	-0.070	0.040	-0.270
2020/01/31 17:47:48.1	357.280	-0.120	0.120	-0.250
2020/01/31 17:47:48.2	357.270	-0.160	0.190	-0.220
2020/01/31 17:47:48.3	357.260	-0.210	0.250	-0.200
2020/01/31 17:47:48.4	357.250	-0.250	0.310	-0.190
2020/01/31 17:47:48.5	357.240	-0.290	0.360	-0.170
2020/01/31 17:47:48.6	357.230	-0.330	0.410	-0.160
2020/01/31 17:47:48.7	357.230	-0.360	0.450	-0.150
2020/01/31 17:47:48.8	357.200	-0.390	0.480	-0.140
2020/01/31 17:47:48.9	357.200	-0.420	0.500	-0.140
2020/01/31 17:47:49.0	357.200	-0.450	0.520	-0.140
2020/01/31 17:47:49.1	357.200	-0.470	0.530	-0.140
2020/01/31 17:47:49.2	357.210	-0.490	0.530	-0.140
2020/01/31 17:47:49.3	357.210	-0.510	0.530	-0.140
2020/01/31 17:47:49.4	357.210	-0.530	0.520	-0.140
2020/01/31 17:47:49.5	357.210	-0.540	0.510	-0.140
2020/01/31 17:47:49.6	357.210	-0.550	0.490	-0.150
2020/01/31 17:47:49.7	357.210	-0.550	0.470	-0.150
2020/01/31 17:47:49.8	357.200	-0.560	0.440	-0.150
2020/01/31 17:47:49.9	357.200	-0.560	0.410	-0.150
2020/01/31 17:47:50.0	357.190	-0.560	0.380	-0.160
2020/01/31 17:47:50.1	357.190	-0.550	0.340	-0.160
2020/01/31 17:47:50.2	357.190	-0.540	0.310	-0.160
2020/01/31 17:47:50.3	357.180	-0.530	0.260	-0.170
2020/01/31 17:47:50.4	357.180	-0.520	0.220	-0.170
2020/01/31 17:47:50.5	357.170	-0.510	0.170	-0.180
2020/01/31 17:47:50.6	357.160	-0.490	0.130	-0.180
2020/01/31 17:47:50.7	357.160	-0.470	0.080	-0.190
2020/01/31 17:47:50.8	357.150	-0.450	0.020	-0.200
2020/01/31 17:47:50.9	357.150	-0.420	-0.030	-0.200
2020/01/31 17:47:51.0	357.140	-0.400	-0.080	-0.220
2020/01/31 17:47:51.1	357.130	-0.370	-0.140	-0.230
2020/01/31 17:47:51.2	357.130	-0.340	-0.200	-0.240
2020/01/31 17:47:51.3	357.120	-0.310	-0.250	-0.250
2020/01/31 17:47:51.4	357.120	-0.280	-0.310	-0.270
2020/01/31 17:47:51.5	357.110	-0.250	-0.370	-0.280
2020/01/31 17:47:51.6	357.110	-0.220	-0.420	-0.300
2020/01/31 17:47:51.7	357.110	-0.180	-0.480	-0.320
2020/01/31 17:47:51.8	357.120	-0.150	-0.530	-0.340
2020/01/31 17:47:51.9	357.120	-0.110	-0.580	-0.360
2020/01/31 17:47:52.0	357.130	-0.070	-0.630	-0.380
2020/01/31 17:47:52.1	357.130	-0.040	-0.680	-0.400
2020/01/31 17:47:52.2	357.150	0.000	-0.730	-0.420
2020/01/31 17:47:52.3	357.160	0.040	-0.770	-0.440
2020/01/31 17:47:52.4	357.170	0.080	-0.800	-0.460
2020/01/31 17:47:52.5	357.190	0.120	-0.840	-0.480
2020/01/31 17:47:52.6	357.210	0.150	-0.860	-0.500
2020/01/31 17:47:52.7	357.230	0.190	-0.890	-0.520
2020/01/31 17:47:52.8	357.260	0.230	-0.900	-0.530
2020/01/31 17:47:52.9	357.280	0.260	-0.910	-0.540
2020/01/31 17:47:53.0	357.300	0.300	-0.920	-0.550
2020/01/31 17:47:53.1	357.330	0.330	-0.910	-0.550
2020/01/31 17:47:53.2	357.350	0.360	-0.900	-0.550
2020/01/31 17:47:53.3	357.370	0.390	-0.890	-0.540
2020/01/31 17:47:53.4	357.390	0.420	-0.860	-0.530
2020/01/31 17:47:53.5	357.400	0.440	-0.830	-0.520
2020/01/31 17:47:53.6	357.420	0.460	-0.790	-0.500
2020/01/31 17:47:53.7	357.430	0.480	-0.740	-0.480
2020/01/31 17:47:53.8	357.450	0.490	-0.690	-0.450
2020/01/31 17:47:53.9	357.460	0.510	-0.620	-0.420
2020/01/31 17:47:54.0	357.470	0.510	-0.560	-0.390
2020/01/31 17:47:54.1	357.470	0.520	-0.480	-0.350
2020/01/31 17:47:54.2	357.480	0.520	-0.410	-0.300
2020/01/31 17:47:54.3	357.480	0.520	-0.320	-0.260
2020/01/31 17:47:54.4	357.480	0.510	-0.240	-0.200
2020/01/31 17:47:54.5	357.480	0.500	-0.150	-0.150
2020/01/31 17:47:54.6	357.480	0.490	-0.060	-0.090
2020/01/31 17:47:54.7	357.470	0.470	0.020	-0.030
2020/01/31 17:47:54.8	357.460	0.450	0.110	0.030
2020/01/31 17:47:54.9	357.450	0.430	0.190	0.090
2020/01/31 17:47:55.0	357.440	0.400	0.280	0.160
2020/01/31 17:47:55.1	357.420	0.370	0.360	0.220
2020/01/31 17:47:55.2	357.410	0.340	0.430	0.290
2020/01/31 17:47:55.3	357.400	0.310	0.500	0.350
2020/01/31 17:47:55.4	357.380	0.280	0.570	0.410
2020/01/31 17:47:55.5	357.360	0.240	0.620	0.470
2020/01/31 17:47:55.6	357.340	0.210	0.670	0.530
2020/01/31 17:47:55.7	357.330	0.170	0.710	0.580
2020/01/31 17:47:55.8	357.300	0.130	0.750	0.630
2020/01/31 17:47:55.9	357.280	0.100	0.770	0.670
2020/01/31 17:47:56.0	357.260	0.060	0.780	0.710
2020/01/31 17:47:56.1	357.240	0.030	0.790	0.750
2020/01/31 17:47:56.2	357.210	-0.000	0.780	0.780
2020/01/31 17:47:56.3	357.190	-0.040	0.770	0.810
2020/01/31 17:47:56.4	357.170	-0.070	0.750	0.830
2020/01/31 17:47:56.5	357.140	-0.090	0.720	0.840
2020/01/31 17:47:56.6	357.110	-0.120	0.690	0.860
2020/01/31 17:47:56.7	357.090	-0.140	0.640	0.870
2020/01/31 17:47:56.8	357.060	-0.170	0.590	0.870
2020/01/31 17:47:56.9	357.030	-0.190	0.540	0.870
2020/01/31 17:47:57.0	357.000	-0.200	0.480	0.870
2020/01/31 17:47:57.1	356.970	-0.220	0.410	0.860
2020/01/31 17:47:57.2	356.930	-0.230	0.350	0.840
2020/01/31 17:47:57.3	356.900	-0.250	0.270	0.830
2020/01/31 17:47:57.4	356.860	-0.260	0.200	0.810
2020/01/31 17:47:57.5	356.830	-0.270	0.120	0.780
2020/01/31 17:47:57.6	356.790	-0.270	0.040	0.760
2020/01/31 17:47:57.7	356.760	-0.280	-0.030	0.720
2020/01/31 17:47:57.8	356.730	-0.280	-0.110	0.690
2020/01/31 17:47:57.9	356.690	-0.290	-0.190	0.650
2020/01/31 17:47:58.0	356.660	-0.290	-0.280	0.610
2020/01/31 17:47:58.1	356.620	-0.290	-0.350	0.560
2020/01/31 17:47:58.2	356.590	-0.290	-0.430	0.510
2020/01/31 17:47:58.3	356.560	-0.290	-0.510	0.460
2020/01/31 17:47:58.4	356.530	-0.290	-0.590	0.410
2020/01/31 17:47:58.5	356.500	-0.300	-0.660	0.350
2020/01/31 17:47:58.6	356.480	-0.300	-0.730	0.290
2020/01/31 17:47:58.7	356.460	-0.290	-0.800	0.220
2020/01/31 17:47:58.8	356.460	-0.290	-0.860	0.150
2020/01/31 17:47:58.9	356.450	-0.290	-0.920	0.080
2020/01/31 17:47:59.0	356.440	-0.290	-0.980	0.000
2020/01/31 17:47:59.1	356.430	-0.290	-1.040	-0.070
2020/01/31 17:47:59.2	356.430	-0.290	-1.090	-0.150
2020/01/31 17:47:59.3	356.430	-0.290	-1.130	-0.230
2020/01/31 17:47:59.4	356.440	-0.280	-1.170	-0.310
2020/01/31 17:47:59.5	356.450	-0.280	-1.210	-0.380
2020/01/31 17:47:59.6	356.460	-0.280	-1.240	-0.460
2020/01/31 17:47:59.7	356.480	-0.270	-1.270	-0.540
2020/01/31 17:47:59.8	356.520	-0.270	-1.300	-0.620
2020/01/31 17:47:59.9	356.540	-0.260	-1.310	-0.700
2020/01/31 17:48:00.0	356.570	-0.250	-1.330	-0.770
2020/01/31 17:48:00.1	356.600	-0.240	-1.340	-0.840
2020/01/31 17:48:00.2	356.640	-0.230	-1.340	-0.900
2020/01/31 17:48:00.3	356.680	-0.220	-1.340	-0.960
2020/01/31 17:48:00.4	356.720	-0.210	-1.330	-1.020
2020/01/31 17:48:00.5	356.760	-0.190	-1.320	-1.080
2020/01/31 17:48:00.6	356.810	-0.170	-1.300	-1.120
2020/01/31 17:48:00.7	356.860	-0.160	-1.280	-1.170
2020/01/31 17:48:00.8	356.900	-0.140	-1.260	-1.210
2020/01/31 17:48:00.9	356.950	-0.120	-1.220	-1.240
2020/01/31 17:48:01.0	357.000	-0.100	-1.190	-1.270
2020/01/31 17:48:01.1	357.050	-0.070	-1.140	-1.290
2020/01/31 17:48:01.2	357.110	-0.050	-1.090	-1.310
2020/01/31 17:48:01.3	357.160	-0.030	-1.040	-1.320
2020/01/31 17:48:01.4	357.220	-0.010	-0.990	-1.320
2020/01/31 17:48:01.5	357.270	0.020	-0.920	-1.320
2020/01/31 17:48:01.6	357.330	0.040	-0.860	-1.310
2020/01/31 17:48:01.7	357.380	0.060	-0.790	-1.300
2020/01/31 17:48:01.8	357.430	0.080	-0.730	-1.280
2020/01/31 17:48:01.9	357.480	0.100	-0.660	-1.260
2020/01/31 17:48:02.0	357.530	0.120	-0.580	-1.230
2020/01/31 17:48:02.1	357.580	0.140	-0.510	-1.200
2020/01/31 17:48:02.2	357.630	0.160	-0.440	-1.160
2020/01/31 17:48:02.3	357.670	0.180	-0.370	-1.120
2020/01/31 17:48:02.4	357.710	0.200	-0.300	-1.080
2020/01/31 17:48:02.5	357.760	0.220	-0.240	-1.030
2020/01/31 17:48:02.6	357.790	0.230	-0.170	-0.970
2020/01/31 17:48:02.7	357.830	0.250	-0.110	-0.910
2020/01/31 17:48:02.8	357.850	0.260	-0.060	-0.850
2020/01/31 17:48:02.9	357.880	0.270	-0.010	-0.780
2020/01/31 17:48:03.0	357.910	0.280	0.040	-0.710
2020/01/31 17:48:03.1	357.930	0.290	0.090	-0.640
2020/01/31 17:48:03.2	357.950	0.300	0.130	-0.570
2020/01/31 17:48:03.3	357.970	0.300	0.170	-0.490
2020/01/31 17:48:03.4	357.980	0.310	0.200	-0.420
2020/01/31 17:48:03.5	357.990	0.310	0.230	-0.340
2020/01/31 17:48:03.6	358.000	0.310	0.260	-0.260
2020/01/31 17:48:03.7	358.000	0.310	0.290	-0.180
2020/01/31 17:48:03.8	357.980	0.310	0.310	-0.100
2020/01/31 17:48:03.9	357.970	0.300	0.330	-0.030
2020/01/31 17:48:04.0	357.960	0.300	0.350	0.050
2020/01/31 17:48:04.1	357.940	0.290	0.360	0.120
2020/01/31 17:48:04.2	357.920	0.280	0.380	0.190
2020/01/31 17:48:04.3	357.890	0.270	0.390	0.260
2020/01/31 17:48:04.4	357.860	0.260	0.400	0.330
2020/01/31 17:48:04.5	357.830	0.250	0.410	0.400
2020/01/31 17:48:04.6	357.790	0.230	0.420	0.460
2020/01/31 17:48:04.7	357.740	0.220	0.430	0.520
2020/01/31 17:48:04.8	357.700	0.210	0.440	0.590
2020/01/31 17:48:04.9	357.650	0.190	0.450	0.650
2020/01/31 17:48:05.0	357.590	0.180	0.460	0.700
2020/01/31 17:48:05.1	357.530	0.160	0.470	0.760
2020/01/31 17:48:05.2	357.460	0.150	0.480	0.810
2020/01/31 17:48:05.3	357.390	0.130	0.490	0.870
2020/01/31 17:48:05.4	357.320	0.120	0.500	0.910
2020/01/31 17:48:05.5	357.250	0.110	0.510	0.960
2020/01/31 17:48:05.6	357.180	0.090	0.520	1.000
2020/01/31 17:48:05.7	357.100	0.080	0.530	1.030
2020/01/31 17:48:05.8	357.020	0.070	0.540	1.060
2020/01/31 17:48:05.9	356.950	0.050	0.540	1.080
2020/01/31 17:48:06.0	356.870	0.040	0.540	1.100
2020/01/31 17:48:06.1	356.800	0.030	0.540	1.110
2020/01/31 17:48:06.2	356.730	0.020	0.540	1.110
2020/01/31 17:48:06.3	356.670	0.000	0.530	1.100
2020/01/31 17:48:06.4	356.600	-0.010	0.520	1.090
2020/01/31 17:48:06.5	356.540	-0.020	0.500	1.070
2020/01/31 17:48:06.6	356.490	-0.030	0.480	1.040
2020/01/31 17:48:06.7	356.440	-0.040	0.450	1.010
2020/01/31 17:48:06.8	356.400	-0.040	0.420	0.960
2020/01/31 17:48:06.9	356.360	-0.050	0.380	0.910
2020/01/31 17:48:07.0	356.330	-0.060	0.340	0.850
2020/01/31 17:48:07.1	356.300	-0.070	0.290	0.780
2020/01/31 17:48:07.2	356.280	-0.070	0.240	0.710
2020/01/31 17:48:07.3	356.270	-0.080	0.180	0.630
2020/01/31 17:48:07.4	356.260	-0.080	0.120	0.550
2020/01/31 17:48:07.5	356.260	-0.080	0.050	0.460
2020/01/31 17:48:07.6	356.270	-0.090	-0.020	0.370
2020/01/31 17:48:07.7	356.290	-0.090	-0.090	0.270
2020/01/31 17:48:07.8	356.300	-0.090	-0.160	0.160
2020/01/31 17:48:07.9	356.320	-0.090	-0.240	0.060
2020/01/31 17:48:08.0	356.360	-0.100	-0.310	-0.040
2020/01/31 17:48:08.1	356.390	-0.100	-0.380	-0.150
2020/01/31 17:48:08.2	356.430	-0.100	-0.460	-0.260
2020/01/31 17:48:08.3	356.470	-0.100	-0.530	-0.360
2020/01/31 17:48:08.4	356.520	-0.100	-0.590	-0.460
2020/01/31 17:48:08.5	356.570	-0.110	-0.660	-0.560
2020/01/31 17:48:08.6	356.620	-0.110	-0.720	-0.660
2020/01/31 17:48:08.7	356.670	-0.110	-0.770	-0.750
2020/01/31 17:48:08.8	356.720	-0.120	-0.820	-0.850
2020/01/31 17:48:08.9	356.770	-0.120	-0.870	-0.940
2020/01/31 17:48:09.0	356.830	-0.120	-0.910	-1.010
2020/01/31 17:48:09.1	356.880	-0.130	-0.940	-1.090
2020/01/31 17:48:09.2	356.930	-0.130	-0.970	-1.150
2020/01/31 17:48:09.3	356.980	-0.140	-0.990	-1.210
2020/01/31 17:48:09.4	357.020	-0.140	-1.010	-1.260
2020/01/31 17:48:09.5	357.070	-0.150	-1.020	-1.310
2020/01/31 17:48:09.6	357.110	-0.150	-1.020	-1.340
2020/01/31 17:48:09.7	357.150	-0.160	-1.030	-1.370
2020/01/31 17:48:09.8	357.200	-0.170	-1.020	-1.390
2020/01/31 17:48:09.9	357.230	-0.170	-1.010	-1.400
2020/01/31 17:48:10.0	357.270	-0.170	-1.000	-1.410
2020/01/31 17:48:10.1	357.300	-0.180	-0.980	-1.410
2020/01/31 17:48:10.2	357.320	-0.180	-0.970	-1.410
2020/01/31 17:48:10.3	357.350	-0.190	-0.940	-1.390
2020/01/31 17:48:10.4	357.370	-0.190	-0.920	-1.380
2020/01/31 17:48:10.5	357.380	-0.190	-0.890	-1.350
2020/01/31 17:48:10.6	357.400	-0.190	-0.860	-1.320
2020/01/31 17:48:10.7	357.410	-0.200	-0.830	-1.290
2020/01/31 17:48:10.8	357.420	-0.200	-0.800	-1.250
2020/01/31 17:48:10.9	357.420	-0.200	-0.770	-1.200
2020/01/31 17:48:11.0	357.430	-0.200	-0.740	-1.160
2020/01/31 17:48:11.1	357.420	-0.200	-0.700	-1.100
2020/01/31 17:48:11.2	357.420	-0.190	-0.670	-1.050
2020/01/31 17:48:11.3	357.410	-0.190	-0.630	-0.990
2020/01/31 17:48:11.4	357.400	-0.190	-0.600	-0.930
2020/01/31 17:48:11.5	357.380	-0.190	-0.560	-0.870
2020/01/31 17:48:11.6	357.370	-0.180	-0.530	-0.810
2020/01/31 17:48:11.7	357.350	-0.180	-0.500	-0.750
2020/01/31 17:48:11.8	357.340	-0.170	-0.470	-0.680
2020/01/31 17:48:11.9	357.320	-0.160	-0.440	-0.620
2020/01/31 17:48:12.0	357.310	-0.160	-0.410	-0.560
2020/01/31 17:48:12.1	357.290	-0.150	-0.390	-0.500
2020/01/31 17:48:12.2	357.280	-0.140	-0.360	-0.440
2020/01/31 17:48:12.3	357.270	-0.130	-0.340	-0.390
2020/01/31 17:48:12.4	357.260	-0.120	-0.320	-0.340
2020/01/31 17:48:12.5	357.250	-0.110	-0.300	-0.290
2020/01/31 17:48:12.6	357.250	-0.100	-0.290	-0.250
2020/01/31 17:48:12.7	357.250	-0.090	-0.270	-0.210
2020/01/31 17:48:12.8	357.260	-0.070	-0.260	-0.170
2020/01/31 17:48:12.9	357.270	-0.060	-0.250	-0.140
2020/01/31 17:48:13.0	357.280	-0.050	-0.240	-0.110
2020/01/31 17:48:13.1	357.290	-0.030	-0.240	-0.080
2020/01/31 17:48:13.2	357.310	-0.020	-0.230	-0.060
2020/01/31 17:48:13.3	357.320	-0.000	-0.230	-0.040
2020/01/31 17:48:13.4	357.340	0.010	-0.220	-0.030
2020/01/31 17:48:13.5	357.360	0.020	-0.220	-0.010
2020/01/31 17:48:13.6	357.390	0.040	-0.220	-0.000
2020/01/31 17:48:13.7	357.410	0.050	-0.210	0.010
2020/01/31 17:48:13.8	357.430	0.070	-0.210	0.010
2020/01/31 17:48:13.9	357.460	0.080	-0.200	0.020
2020/01/31 17:48:14.0	357.480	0.090	-0.190	0.030
2020/01/31 17:48:14.1	357.510	0.110	-0.190	0.040
2020/01/31 17:48:14.2	357.540	0.120	-0.180	0.050
2020/01/31 17:48:14.3	357.560	0.130	-0.170	0.050
2020/01/31 17:48:14.4	357.590	0.140	-0.150	0.060
2020/01/31 17:48:14.5	357.620	0.150	-0.140	0.070
2020/01/31 17:48:14.6	357.650	0.160	-0.130	0.080
2020/01/31 17:48:14.7	357.670	0.170	-0.110	0.090
2020/01/31 17:48:14.8	357.700	0.170	-0.090	0.100
2020/01/31 17:48:14.9	357.730	0.180	-0.070	0.110
2020/01/31 17:48:15.0	357.760	0.180	-0.060	0.130
2020/01/31 17:48:15.1	357.780	0.190	-0.040	0.140
2020/01/31 17:48:15.2	357.800	0.190	-0.010	0.150
2020/01/31 17:48:15.3	357.820	0.190	0.010	0.170
2020/01/31 17:48:15.4	357.840	0.190	0.030	0.190
2020/01/31 17:48:15.5	357.850	0.190	0.050	0.210
2020/01/31 17:48:15.6	357.860	0.190	0.070	0.230
2020/01/31 17:48:15.7	357.870	0.190	0.100	0.260
2020/01/31 17:48:15.8	357.870	0.180	0.120	0.280
2020/01/31 17:48:15.9	357.870	0.180	0.140	0.300
2020/01/31 17:48:16.0	357.870	0.170	0.160	0.330
2020/01/31 17:48:16.1	357.860	0.170	0.180	0.360
2020/01/31 17:48:16.2	357.850	0.160	0.200	0.380
2020/01/31 17:48:16.3	357.840	0.150	0.220	0.410
2020/01/31 17:48:16.4	357.830	0.140	0.240	0.440
2020/01/31 17:48:16.5	357.820	0.130	0.250	0.460
2020/01/31 17:48:16.6	357.800	0.120	0.270	0.490
2020/01/31 17:48:16.7	357.780	0.110	0.280	0.510
2020/01/31 17:48:16.8	357.760	0.100	0.290	0.530
2020/01/31 17:48:16.9	357.740	0.090	0.290	0.560
2020/01/31 17:48:17.0	357.710	0.080	0.300	0.580
2020/01/31 17:48:17.1	357.690	0.070	0.300	0.600
2020/01/31 17:48:17.2	357.670	0.060	0.300	0.610
2020/01/31 17:48:17.3	357.650	0.050	0.300	0.630
2020/01/31 17:48:17.4	357.620	0.040	0.290	0.640
2020/01/31 17:48:17.5	357.600	0.030	0.290	0.650
2020/01/31 17:48:17.6	357.580	0.020	0.270	0.660
2020/01/31 17:48:17.7	357.550	0.020	0.260	0.660
2020/01/31 17:48:17.8	357.530	0.010	0.250	0.660
2020/01/31 17:48:17.9	357.510	-0.000	0.230	0.650
2020/01/31 17:48:18.0	357.480	-0.010	0.200	0.650
2020/01/31 17:48:18.1	357.460	-0.020	0.180	0.640
2020/01/31 17:48:18.2	357.440	-0.030	0.150	0.620
2020/01/31 17:48:18.3	357.420	-0.030	0.120	0.600
2020/01/31 17:48:18.4	357.400	-0.040	0.080	0.580
2020/01/31 17:48:18.5	357.380	-0.050	0.050	0.550
2020/01/31 17:48:18.6	357.360	-0.050	0.010	0.520
2020/01/31 17:48:18.7	357.340	-0.060	-0.030	0.490
2020/01/31 17:48:18.8	357.310	-0.060	-0.080	0.450
2020/01/31 17:48:18.9	357.290	-0.070	-0.130	0.410
2020/01/31 17:48:19.0	357.280	-0.070	-0.170	0.370
2020/01/31 17:48:19.1	357.260	-0.080	-0.220	0.320
2020/01/31 17:48:19.2	357.250	-0.080	-0.270	0.270
2020/01/31 17:48:19.3	357.240	-0.080	-0.320	0.230
2020/01/31 17:48:19.4	357.230	-0.080	-0.370	0.180
2020/01/31 17:48:19.5	357.220	-0.090	-0.410	0.130
2020/01/31 17:48:19.6	357.210	-0.090	-0.460	0.080
2020/01/31 17:48:19.7	357.210	-0.090	-0.510	0.030
2020/01/31 17:48:19.8	357.200	-0.090	-0.550	-0.030
2020/01/31 17:48:19.9	357.200	-0.090	-0.600	-0.080
2020/01/31 17:48:20.0	357.200	-0.090	-0.640	-0.130
2020/01/31 17:48:20.1	357.200	-0.090	-0.680	-0.180
2020/01/31 17:48:20.2	357.200	-0.090	-0.710	-0.230
2020/01/31 17:48:20.3	357.200	-0.090	-0.750	-0.280
2020/01/31 17:48:20.4	357.210	-0.090	-0.780	-0.330
2020/01/31 17:48:20.5	357.220	-0.090	-0.800	-0.370
2020/01/31 17:48:20.6	357.230	-0.090	-0.830	-0.420
2020/01/31 17:48:20.7	357.240	-0.090	-0.850	-0.460
2020/01/31 17:48:20.8	357.260	-0.090	-0.870	-0.520
2020/01/31 17:48:20.9	357.280	-0.090	-0.880	-0.560
2020/01/31 17:48:21.0	357.300	-0.090	-0.900	-0.610
2020/01/31 17:48:21.1	357.330	-0.090	-0.910	-0.650
2020/01/31 17:48:21.2	357.350	-0.090	-0.920	-0.690
2020/01/31 17:48:21.3	357.380	-0.090	-0.930	-0.740
2020/01/31 17:48:21.4	357.410	-0.080	-0.940	-0.780
2020/01/31 17:48:21.5	357.450	-0.080	-0.940	-0.820
2020/01/31 17:48:21.6	357.490	-0.080	-0.940	-0.860
2020/01/31 17:48:21.7	357.530	-0.070	-0.950	-0.900
2020/01/31 17:48:21.8	357.550	-0.070	-0.950	-0.940
2020/01/31 17:48:21.9	357.600	-0.060	-0.950	-0.980
2020/01/31 17:48:22.0	357.650	-0.050	-0.950	-1.020
2020/01/31 17:48:22.1	357.700	-0.040	-0.940	-1.050
2020/01/31 17:48:22.2	357.750	-0.030	-0.940	-1.080
2020/01/31 17:48:22.3	357.800	-0.020	-0.930	-1.100
2020/01/31 17:48:22.4	357.860	-0.010	-0.920	-1.120
2020/01/31 17:48:22.5	357.910	0.000	-0.910	-1.140
2020/01/31 17:48:22.6	357.970	0.020	-0.900	-1.160
2020/01/31 17:48:22.7	358.030	0.040	-0.890	-1.170
2020/01/31 17:48:22.8	358.070	0.050	-0.870	-1.170
2020/01/31 17:48:22.9	358.130	0.070	-0.850	-1.170
2020/01/31 17:48:23.0	358.180	0.090	-0.830	-1.170
2020/01/31 17:48:23.1	358.240	0.110	-0.800	-1.160
2020/01/31 17:48:23.2	358.290	0.130	-0.770	-1.150
2020/01/31 17:48:23.3	358.340	0.140	-0.730	-1.130
2020/01/31 17:48:23.4	358.390	0.160	-0.690	-1.100
2020/01/31 17:48:23.5	358.430	0.180	-0.650	-1.070
2020/01/31 17:48:23.6	358.480	0.200	-0.600	-1.030
2020/01/31 17:48:23.7	358.510	0.220	-0.540	-0.990
2020/01/31 17:48:23.8	358.530	0.230	-0.480	-0.940
2020/01/31 17:48:23.9	358.570	0.250	-0.420	-0.890
2020/01/31 17:48:24.0	358.590	0.260	-0.350	-0.840
2020/01/31 17:48:24.1	358.620	0.270	-0.270	-0.780
2020/01/31 17:48:24.2	358.640	0.280	-0.200	-0.720
2020/01/31 17:48:24.3	358.650	0.290	-0.120	-0.650
2020/01/31 17:48:24.4	358.660	0.290	-0.040	-0.590
2020/01/31 17:48:24.5	358.670	0.290	0.050	-0.520
2020/01/31 17:48:24.6	358.670	0.290	0.130	-0.450
2020/01/31 17:48:24.7	358.670	0.290	0.210	-0.370
2020/01/31 17:48:24.8	358.670	0.280	0.290	-0.300
2020/01/31 17:48:24.9	358.660	0.270	0.370	-0.220
2020/01/31 17:48:25.0	358.640	0.260	0.450	-0.150
2020/01/31 17:48:25.1	358.620	0.250	0.530	-0.080
2020/01/31 17:48:25.2	358.600	0.230	0.600	-0.010
2020/01/31 17:48:25.3	358.570	0.210	0.660	0.060
2020/01/31 17:48:25.4	358.540	0.180	0.730	0.120
2020/01/31 17:48:25.5	358.510	0.160	0.780	0.190
2020/01/31 17:48:25.6	358.480	0.130	0.830	0.250
2020/01/31 17:48:25.7	358.440	0.100	0.870	0.310
2020/01/31 17:48:25.8	358.400	0.070	0.900	0.360
2020/01/31 17:48:25.9	358.360	0.030	0.930	0.410
2020/01/31 17:48:26.0	358.310	0.000	0.950	0.460
2020/01/31 17:48:26.1	358.270	-0.030	0.960	0.500
2020/01/31 17:48:26.2	358.230	-0.070	0.960	0.530
2020/01/31 17:48:26.3	358.180	-0.110	0.950	0.560
2020/01/31 17:48:26.4	358.140	-0.140	0.940	0.580
2020/01/31 17:48:26.5	358.090	-0.180	0.910	0.600
2020/01/31 17:48:26.6	358.050	-0.210	0.880	0.620
2020/01/31 17:48:26.7	358.000	-0.240	0.840	0.620
2020/01/31 17:48:26.8	357.970	-0.270	0.790	0.620
2020/01/31 17:48:26.9	357.930	-0.300	0.730	0.620
2020/01/31 17:48:27.0	357.880	-0.330	0.670	0.610
2020/01/31 17:48:27.1	357.850	-0.360	0.600	0.600
2020/01/31 17:48:27.2	357.810	-0.380	0.520	0.590
2020/01/31 17:48:27.3	357.770	-0.400	0.440	0.570
2020/01/31 17:48:27.4	357.740	-0.420	0.360	0.540
2020/01/31 17:48:27.5	357.700	-0.430	0.260	0.520
2020/01/31 17:48:27.6	357.670	-0.440	0.170	0.490
2020/01/31 17:48:27.7	357.640	-0.450	0.070	0.460
2020/01/31 17:48:27.8	357.620	-0.460	-0.030	0.420
2020/01/31 17:48:27.9	357.600	-0.460	-0.130	0.380
2020/01/31 17:48:28.0	357.580	-0.460	-0.230	0.340
2020/01/31 17:48:28.1	357.560	-0.450	-0.330	0.300
2020/01/31 17:48:28.2	357.540	-0.440	-0.430	0.250
2020/01/31 17:48:28.3	357.530	-0.430	-0.530	0.210
2020/01/31 17:48:28.4	357.520	-0.410	-0.630	0.160
2020/01/31 17:48:28.5	357.510	-0.390	-0.720	0.110
2020/01/31 17:48:28.6	357.510	-0.370	-0.810	0.060
2020/01/31 17:48:28.7	357.510	-0.340	-0.890	0.010
2020/01/31 17:48:28.8	357.520	-0.310	-0.970	-0.040
2020/01/31 17:48:28.9	357.520	-0.280	-1.040	-0.090
2020/01/31 17:48:29.0	357.530	-0.240	-1.110	-0.130
2020/01/31 17:48:29.1	357.540	-0.210	-1.170	-0.180
2020/01/31 17:48:29.2	357.560	-0.170	-1.220	-0.220
2020/01/31 17:48:29.3	357.570	-0.130	-1.260	-0.260
2020/01/31 17:48:29.4	357.590	-0.090	-1.300	-0.300
2020/01/31 17:48:29.5	357.620	-0.040	-1.330	-0.330
2020/01/31 17:48:29.6	357.640	-0.000	-1.350	-0.360
2020/01/31 17:48:29.7	357.670	0.040	-1.360	-0.390
2020/01/31 17:48:29.8	357.700	0.080	-1.370	-0.420
2020/01/31 17:48:29.9	357.730	0.120	-1.360	-0.440
2020/01/31 17:48:30.0	357.760	0.160	-1.350	-0.460
2020/01/31 17:48:30.1	357.790	0.200	-1.330	-0.480
2020/01/31 17:48:30.2	357.820	0.240	-1.310	-0.490
2020/01/31 17:48:30.3	357.850	0.270	-1.280	-0.490
2020/01/31 17:48:30.4	357.880	0.300	-1.240	-0.500
2020/01/31 17:48:30.5	357.910	0.320	-1.200	-0.490
2020/01/31 17:48:30.6	357.940	0.350	-1.150	-0.490
2020/01/31 17:48:30.7	357.960	0.360	-1.090	-0.480
2020/01/31 17:48:30.8	357.980	0.380	-1.030	-0.460
2020/01/31 17:48:30.9	358.010	0.390	-0.970	-0.450
2020/01/31 17:48:31.0	358.030	0.390	-0.900	-0.430
2020/01/31 17:48:31.1	358.050	0.400	-0.830	-0.400
2020/01/31 17:48:31.2	358.060	0.390	-0.760	-0.380
2020/01/31 17:48:31.3	358.080	0.390	-0.690	-0.350
2020/01/31 17:48:31.4	358.090	0.370	-0.610	-0.330
2020/01/31 17:48:31.5	358.100	0.360	-0.540	-0.300
2020/01/31 17:48:31.6	358.110	0.340	-0.460	-0.270
2020/01/31 17:48:31.7	358.110	0.320	-0.390	-0.240
2020/01/31 17:48:31.8	358.110	0.290	-0.320	-0.220
2020/01/31 17:48:31.9	358.120	0.260	-0.250	-0.190
2020/01/31 17:48:32.0	358.120	0.230	-0.180	-0.160
2020/01/31 17:48:32.1	358.120	0.200	-0.120	-0.140
2020/01/31 17:48:32.2	358.120	0.170	-0.060	-0.110
2020/01/31 17:48:32.3	358.110	0.130	-0.000	-0.090
2020/01/31 17:48:32.4	358.110	0.100	0.050	-0.070
2020/01/31 17:48:32.5	358.110	0.060	0.090	-0.050
2020/01/31 17:48:32.6	358.110	0.030	0.130	-0.030
2020/01/31 17:48:32.7	358.110	-0.010	0.170	-0.010
2020/01/31 17:48:32.8	358.100	-0.040	0.200	-0.000
2020/01/31 17:48:32.9	358.100	-0.070	0.220	0.010
2020/01/31 17:48:33.0	358.100	-0.100	0.240	0.020
2020/01/31 17:48:33.1	358.100	-0.130	0.250	0.030
2020/01/31 17:48:33.2	358.110	-0.150	0.260	0.040
2020/01/31 17:48:33.3	358.110	-0.170	0.260	0.040
2020/01/31 17:48:33.4	358.120	-0.190	0.250	0.040
2020/01/31 17:48:33.5	358.120	-0.210	0.250	0.050
2020/01/31 17:48:33.6	358.130	-0.230	0.230	0.050
2020/01/31 17:48:33.7	358.140	-0.240	0.220	0.050
2020/01/31 17:48:33.8	358.140	-0.250	0.200	0.050
2020/01/31 17:48:33.9	358.150	-0.250	0.180	0.050
2020/01/31 17:48:34.0	358.160	-0.250	0.150	0.050
2020/01/31 17:48:34.1	358.170	-0.250	0.120	0.050
2020/01/31 17:48:34.2	358.180	-0.250	0.100	0.060
2020/01/31 17:48:34.3	358.190	-0.240	0.070	0.060
2020/01/31 17:48:34.4	358.200	-0.240	0.040	0.070
2020/01/31 17:48:34.5	358.210	-0.220	0.010	0.070
2020/01/31 17:48:34.6	358.220	-0.210	-0.010	0.080
2020/01/31 17:48:34.7	358.220	-0.200	-0.040	0.090
2020/01/31 17:48:34.8	358.220	-0.180	-0.060	0.100
2020/01/31 17:48:34.9	358.230	-0.160	-0.080	0.110
2020/01/31 17:48:35.0	358.230	-0.140	-0.100	0.120
2020/01/31 17:48:35.1	358.230	-0.120	-0.120	0.140
2020/01/31 17:48:35.2	358.240	-0.090	-0.130	0.160
2020/01/31 17:48:35.3	358.240	-0.070	-0.140	0.180
2020/01/31 17:48:35.4	358.240	-0.040	-0.150	0.190
2020/01/31 17:48:35.5	358.240	-0.020	-0.150	0.220
2020/01/31 17:48:35.6	358.240	0.010	-0.150	0.240
2020/01/31 17:48:35.7	358.240	0.030	-0.150	0.260
2020/01/31 17:48:35.8	358.240	0.060	-0.150	0.280
2020/01/31 17:48:35.9	358.230	0.080	-0.140	0.310
2020/01/31 17:48:36.0	358.230	0.110	-0.130	0.330
2020/01/31 17:48:36.1	358.220	0.130	-0.120	0.360
2020/01/31 17:48:36.2	358.210	0.160	-0.110	0.390
2020/01/31 17:48:36.3	358.200	0.180	-0.090	0.420
2020/01/31 17:48:36.4	358.190	0.200	-0.080	0.440
2020/01/31 17:48:36.5	358.180	0.220	-0.060	0.470
2020/01/31 17:48:36.6	358.170	0.240	-0.050	0.500
2020/01/31 17:48:36.7	358.150	0.250	-0.030	0.530
2020/01/31 17:48:36.8	358.130	0.270	-0.020	0.560
2020/01/31 17:48:36.9	358.120	0.280	-0.010	0.580
2020/01/31 17:48:37.0	358.100	0.290	0.010	0.610
2020/01/31 17:48:37.1	358.090	0.300	0.020	0.630
2020/01/31 17:48:37.2	358.070	0.300	0.020	0.650
2020/01/31 17:48:37.3	358.050	0.310	0.030	0.660
2020/01/31 17:48:37.4	358.040	0.310	0.030	0.670
2020/01/31 17:48:37.5	358.020	0.300	0.030	0.680
2020/01/31 17:48:37.6	358.000	0.300	0.030	0.690
2020/01/31 17:48:37.7	357.980	0.290	0.020	0.690
2020/01/31 17:48:37.8	357.950	0.280	0.010	0.680
2020/01/31 17:48:37.9	357.930	0.270	0.000	0.670
2020/01/31 17:48:38.0	357.910	0.260	-0.010	0.660
2020/01/31 17:48:38.1	357.890	0.240	-0.020	0.640
2020/01/31 17:48:38.2	357.870	0.230	-0.030	0.620
2020/01/31 17:48:38.3	357.860	0.210	-0.050	0.590
2020/01/31 17:48:38.4	357.840	0.190	-0.060	0.560
2020/01/31 17:48:38.5	357.820	0.160	-0.080	0.530
2020/01/31 17:48:38.6	357.800	0.140	-0.090	0.490
2020/01/31 17:48:38.7	357.780	0.120	-0.110	0.450
2020/01/31 17:48:38.8	357.770	0.090	-0.120	0.400
2020/01/31 17:48:38.9	357.750	0.070	-0.140	0.350
2020/01/31 17:48:39.0	357.730	0.050	-0.150	0.310
2020/01/31 17:48:39.1	357.720	0.020	-0.170	0.260
2020/01/31 17:48:39.2	357.700	-0.000	-0.180	0.210
2020/01/31 17:48:39.3	357.690	-0.020	-0.190	0.160
2020/01/31 17:48:39.4	357.680	-0.040	-0.200	0.110
2020/01/31 17:48:39.5	357.670	-0.060	-0.220	0.060
2020/01/31 17:48:39.6	357.660	-0.080	-0.230	0.020
2020/01/31 17:48:39.7	357.650	-0.090	-0.240	-0.030
2020/01/31 17:48:39.8	357.650	-0.110	-0.250	-0.080
2020/01/31 17:48:39.9	357.640	-0.120	-0.260	-0.120
2020/01/31 17:48:40.0	357.640	-0.120	-0.270	-0.170
2020/01/31 17:48:40.1	357.640	-0.130	-0.280	-0.210
2020/01/31 17:48:40.2	357.650	-0.130	-0.290	-0.250
2020/01/31 17:48:40.3	357.660	-0.130	-0.300	-0.290
2020/01/31 17:48:40.4	357.670	-0.130	-0.320	-0.330
2020/01/31 17:48:40.5	357.680	-0.130	-0.330	-0.370
2020/01/31 17:48:40.6	357.700	-0.130	-0.350	-0.420
2020/01/31 17:48:40.7	357.720	-0.120	-0.370	-0.460
2020/01/31 17:48:40.8	357.740	-0.110	-0.390	-0.500
2020/01/31 17:48:40.9	357.760	-0.100	-0.420	-0.540
2020/01/31 17:48:41.0	357.790	-0.090	-0.440	-0.580
2020/01/31 17:48:41.1	357.820	-0.080	-0.470	-0.630
2020/01/31 17:48:41.2	357.850	-0.070	-0.500	-0.670
2020/01/31 17:48:41.3	357.880	-0.050	-0.530	-0.720
2020/01/31 17:48:41.4	357.920	-0.040	-0.560	-0.760
2020/01/31 17:48:41.5	357.950	-0.030	-0.590	-0.800
2020/01/31 17:48:41.6	357.990	-0.020	-0.630	-0.840
2020/01/31 17:48:41.7	358.020	-0.010	-0.660	-0.890
2020/01/31 17:48:41.8	358.040	-0.000	-0.690	-0.930
2020/01/31 17:48:41.9	358.080	0.000	-0.720	-0.960
2020/01/31 17:48:42.0	358.110	0.000	-0.760	-1.000
2020/01/31 17:48:42.1	358.140	0.010	-0.780	-1.030
2020/01/31 17:48:42.2	358.160	0.000	-0.810	-1.060
2020/01/31 17:48:42.3	358.190	0.000	-0.840	-1.090
2020/01/31 17:48:42.4	358.210	-0.010	-0.860	-1.110
2020/01/31 17:48:42.5	358.240	-0.010	-0.880	-1.130
2020/01/31 17:48:42.6	358.260	-0.030	-0.890	-1.150
2020/01/31 17:48:42.7	358.280	-0.040	-0.900	-1.160
2020/01/31 17:48:42.8	358.280	-0.050	-0.910	-1.170
2020/01/31 17:48:42.9	358.290	-0.070	-0.920	-1.180
2020/01/31 17:48:43.0	358.310	-0.090	-0.910	-1.180
2020/01/31 17:48:43.1	358.320	-0.110	-0.910	-1.170
2020/01/31 17:48:43.2	358.330	-0.140	-0.900	-1.160
2020/01/31 17:48:43.3	358.350	-0.160	-0.880	-1.150
2020/01/31 17:48:43.4	358.360	-0.190	-0.860	-1.140
2020/01/31 17:48:43.5	358.370	-0.220	-0.840	-1.120
2020/01/31 17:48:43.6	358.380	-0.240	-0.810	-1.100
2020/01/31 17:48:43.7	358.390	-0.270	-0.780	-1.070
2020/01/31 17:48:43.8	358.400	-0.300	-0.740	-1.050
2020/01/31 17:48:43.9	358.410	-0.330	-0.700	-1.020
2020/01/31 17:48:44.0	358.410	-0.350	-0.650	-0.990
2020/01/31 17:48:44.1	358.420	-0.380	-0.610	-0.950
2020/01/31 17:48:44.2	358.430	-0.400	-0.560	-0.910
2020/01/31 17:48:44.3	358.440	-0.420	-0.500	-0.870
2020/01/31 17:48:44.4	358.450	-0.440	-0.450	-0.830
2020/01/31 17:48:44.5	358.450	-0.450	-0.390	-0.780
2020/01/31 17:48:44.6	358.460	-0.460	-0.330	-0.730
2020/01/31 17:48:44.7	358.470	-0.470	-0.270	-0.680
2020/01/31 17:48:44.8	358.470	-0.480	-0.210	-0.630
2020/01/31 17:48:44.9	358.470	-0.480	-0.150	-0.580
2020/01/31 17:48:45.0	358.480	-0.480	-0.090	-0.520
2020/01/31 17:48:45.1	358.480	-0.470	-0.020	-0.460
2020/01/31 17:48:45.2	358.480	-0.460	0.040	-0.400
2020/01/31 17:48:45.3	358.490	-0.440	0.100	-0.340
2020/01/31 17:48:45.4	358.490	-0.420	0.160	-0.280
2020/01/31 17:48:45.5	358.490	-0.400	0.220	-0.220
2020/01/31 17:48:45.6	358.490	-0.380	0.280	-0.150
2020/01/31 17:48:45.7	358.480	-0.350	0.330	-0.080
2020/01/31 17:48:45.8	358.480	-0.310	0.380	-0.010
2020/01/31 17:48:45.9	358.480	-0.280	0.420	0.060
2020/01/31 17:48:46.0	358.470	-0.240	0.460	0.130
2020/01/31 17:48:46.1	358.460	-0.200	0.500	0.200
2020/01/31 17:48:46.2	358.450	-0.160	0.530	0.270
2020/01/31 17:48:46.3	358.430	-0.110	0.550	0.340
2020/01/31 17:48:46.4	358.420	-0.060	0.570	0.410
2020/01/31 17:48:46.5	358.400	-0.020	0.590	0.480
2020/01/31 17:48:46.6	358.390	0.030	0.590	0.540
2020/01/31 17:48:46.7	358.370	0.080	0.590	0.610
2020/01/31 17:48:46.8	358.370	0.130	0.580	0.670
2020/01/31 17:48:46.9	358.360	0.180	0.560	0.730
2020/01/31 17:48:47.0	358.340	0.230	0.540	0.780
2020/01/31 17:48:47.1	358.320	0.270	0.500	0.830
2020/01/31 17:48:47.2	358.310	0.320	0.470	0.880
2020/01/31 17:48:47.3	358.290	0.370	0.420	0.910
2020/01/31 17:48:47.4	358.280	0.410	0.370	0.950
2020/01/31 17:48:47.5	358.270	0.450	0.310	0.980
2020/01/31 17:48:47.6	358.260	0.490	0.250	1.000
2020/01/31 17:48:47.7	358.250	0.530	0.190	1.020
2020/01/31 17:48:47.8	358.250	0.560	0.120	1.020
2020/01/31 17:48:47.9	358.250	0.600	0.050	1.030
2020/01/31 17:48:48.0	358.250	0.630	-0.030	1.020
2020/01/31 17:48:48.1	358.250	0.650	-0.110	1.020
2020/01/31 17:48:48.2	358.250	0.670	-0.190	1.000
2020/01/31 17:48:48.3	358.260	0.690	-0.270	0.980
2020/01/31 17:48:48.4	358.270	0.710	-0.340	0.950
2020/01/31 17:48:48.5	358.280	0.720	-0.420	0.920
2020/01/31 17:48:48.6	358.290	0.730	-0.490	0.890
2020/01/31 17:48:48.7	358.300	0.740	-0.560	0.850
2020/01/31 17:48:48.8	358.320	0.740	-0.630	0.800
2020/01/31 17:48:48.9	358.330	0.740	-0.690	0.760
2020/01/31 17:48:49.0	358.350	0.730	-0.740	0.710
2020/01/31 17:48:49.1	358.360	0.720	-0.790	0.660
2020/01/31 17:48:49.2	358.370	0.710	-0.820	0.610
2020/01/31 17:48:49.3	358.380	0.690	-0.850	0.560
2020/01/31 17:48:49.4	358.390	0.670	-0.870	0.510
2020/01/31 17:48:49.5	358.400	0.640	-0.880	0.460
2020/01/31 17:48:49.6	358.410	0.620	-0.870	0.420
2020/01/31 17:48:49.7	358.410	0.580	-0.860	0.370
2020/01/31 17:48:49.8	358.420	0.550	-0.840	0.320
2020/01/31 17:48:49.9	358.420	0.510	-0.810	0.270
2020/01/31 17:48:50.0	358.410	0.470	-0.760	0.230
2020/01/31 17:48:50.1	358.410	0.420	-0.720	0.190
2020/01/31 17:48:50.2	358.400	0.370	-0.660	0.150
2020/01/31 17:48:50.3	358.390	0.320	-0.600	0.120
2020/01/31 17:48:50.4	358.380	0.270	-0.530	0.090
2020/01/31 17:48:50.5	358.370	0.210	-0.450	0.050
2020/01/31 17:48:50.6	358.360	0.160	-0.380	0.020
2020/01/31 17:48:50.7	358.350	0.100	-0.300	-0.010
2020/01/31 17:48:50.8	358.320	0.040	-0.220	-0.030
2020/01/31 17:48:50.9	358.310	-0.020	-0.140	-0.060
2020/01/31 17:48:51.0	358.290	-0.080	-0.060	-0.090
2020/01/31 17:48:51.1	358.280	-0.140	0.020	-0.110
2020/01/31 17:48:51.2	358.260	-0.200	0.090	-0.130
2020/01/31 17:48:51.3	358.240	-0.260	0.160	-0.160
2020/01/31 17:48:51.4	358.230	-0.320	0.220	-0.180
2020/01/31 17:48:51.5	358.210	-0.370	0.280	-0.210
2020/01/31 17:48:51.6	358.190	-0.430	0.330	-0.230
2020/01/31 17:48:51.7	358.170	-0.480	0.380	-0.250
2020/01/31 17:48:51.8	358.150	-0.530	0.410	-0.280
2020/01/31 17:48:51.9	358.130	-0.580	0.440	-0.310
2020/01/31 17:48:52.0	358.120	-0.630	0.460	-0.330
2020/01/31 17:48:52.1	358.100	-0.670	0.480	-0.350
2020/01/31 17:48:52.2	358.080	-0.710	0.480	-0.380
2020/01/31 17:48:52.3	358.070	-0.740	0.480	-0.410
2020/01/31 17:48:52.4	358.060	-0.770	0.460	-0.430
2020/01/31 17:48:52.5	358.050	-0.800	0.440	-0.460
2020/01/31 17:48:52.6	358.040	-0.820	0.410	-0.490
2020/01/31 17:48:52.7	358.030	-0.840	0.370	-0.520
2020/01/31 17:48:52.8	358.010	-0.850	0.330	-0.550
2020/01/31 17:48:52.9	358.010	-0.860	0.270	-0.570
2020/01/31 17:48:53.0	358.010	-0.860	0.210	-0.600
2020/01/31 17:48:53.1	358.010	-0.860	0.150	-0.630
2020/01/31 17:48:53.2	358.010	-0.850	0.070	-0.650
2020/01/31 17:48:53.3	358.010	-0.830	-0.000	-0.680
2020/01/31 17:48:53.4	358.010	-0.820	-0.080	-0.700
2020/01/31 17:48:53.5	358.020	-0.790	-0.170	-0.720
2020/01/31 17:48:53.6	358.030	-0.760	-0.250	-0.730
2020/01/31 17:48:53.7	358.040	-0.730	-0.340	-0.750
2020/01/31 17:48:53.8	358.040	-0.690	-0.430	-0.760
2020/01/31 17:48:53.9	358.060	-0.650	-0.520	-0.770
2020/01/31 17:48:54.0	358.080	-0.600	-0.600	-0.770
2020/01/31 17:48:54.1	358.090	-0.550	-0.680	-0.780
2020/01/31 17:48:54.2	358.110	-0.490	-0.760	-0.770
2020/01/31 17:48:54.3	358.140	-0.440	-0.840	-0.770
2020/01/31 17:48:54.4	358.160	-0.380	-0.910	-0.760
2020/01/31 17:48:54.5	358.190	-0.310	-0.980	-0.750
2020/01/31 17:48:54.6	358.210	-0.250	-1.040	-0.740
2020/01/31 17:48:54.7	358.240	-0.180	-1.090	-0.730
2020/01/31 17:48:54.8	358.280	-0.120	-1.140	-0.710
2020/01/31 17:48:54.9	358.310	-0.050	-1.180	-0.690
2020/01/31 17:48:55.0	358.350	0.020	-1.210	-0.680
2020/01/31 17:48:55.1	358.380	0.080	-1.240	-0.660
2020/01/31 17:48:55.2	358.420	0.150	-1.260	-0.640
2020/01/31 17:48:55.3	358.460	0.210	-1.270	-0.610
2020/01/31 17:48:55.4	358.500	0.270	-1.280	-0.590
2020/01/31 17:48:55.5	358.540	0.320	-1.270	-0.570
2020/01/31 17:48:55.6	358.580	0.380	-1.260	-0.550
2020/01/31 17:48:55.7	358.620	0.430	-1.250	-0.520
2020/01/31 17:48:55.8	358.640	0.470	-1.230	-0.490
2020/01/31 17:48:55.9	358.680	0.510	-1.200	-0.470
2020/01/31 17:48:56.0	358.720	0.540	-1.160	-0.440
2020/01/31 17:48:56.1	358.750	0.570	-1.120	-0.420
2020/01/31 17:48:56.2	358.790	0.600	-1.080	-0.390
2020/01/31 17:48:56.3	358.820	0.620	-1.030	-0.370
2020/01/31 17:48:56.4	358.850	0.630	-0.980	-0.340
2020/01/31 17:48:56.5	358.880	0.640	-0.920	-0.320
2020/01/31 17:48:56.6	358.900	0.640	-0.860	-0.290
2020/01/31 17:48:56.7	358.920	0.640	-0.790	-0.270
2020/01/31 17:48:56.8	358.960	0.630	-0.730	-0.240
2020/01/31 17:48:56.9	358.980	0.620	-0.660	-0.220
2020/01/31 17:48:57.0	358.990	0.600	-0.590	-0.200
2020/01/31 17:48:57.1	359.010	0.580	-0.520	-0.180
2020/01/31 17:48:57.2	359.020	0.550	-0.450	-0.150
2020/01/31 17:48:57.3	359.030	0.520	-0.380	-0.130
2020/01/31 17:48:57.4	359.040	0.490	-0.310	-0.110
2020/01/31 17:48:57.5	359.050	0.450	-0.240	-0.080
2020/01/31 17:48:57.6	359.050	0.410	-0.170	-0.060
2020/01/31 17:48:57.7	359.050	0.370	-0.100	-0.040
2020/01/31 17:48:57.8	359.050	0.330	-0.030	-0.010
2020/01/31 17:48:57.9	359.040	0.280	0.040	0.010
2020/01/31 17:48:58.0	359.030	0.230	0.110	0.030
2020/01/31 17:48:58.1	359.020	0.190	0.170	0.060
2020/01/31 17:48:58.2	359.010	0.140	0.240	0.080
2020/01/31 17:48:58.3	358.990	0.100	0.300	0.100
2020/01/31 17:48:58.4	358.970	0.050	0.360	0.120
2020/01/31 17:48:58.5	358.950	0.010	0.420	0.150
2020/01/31 17:48:58.6	358.930	-0.030	0.470	0.170
2020/01/31 17:48:58.7	358.900	-0.070	0.530	0.190
2020/01/31 17:48:58.8	358.880	-0.110	0.580	0.210
2020/01/31 17:48:58.9	358.850	-0.140	0.620	0.240
2020/01/31 17:48:59.0	358.810	-0.170	0.670	0.260
2020/01/31 17:48:59.1	358.770	-0.190	0.710	0.290
2020/01/31 17:48:59.2	358.730	-0.220	0.740	0.310
2020/01/31 17:48:59.3	358.680	-0.230	0.780	0.340
2020/01/31 17:48:59.4	358.630	-0.240	0.800	0.370
2020/01/31 17:48:59.5	358.580	-0.250	0.830	0.410
2020/01/31 17:48:59.6	358.530	-0.260	0.840	0.440
2020/01/31 17:48:59.7	358.480	-0.260	0.860	0.470
2020/01/31 17:48:59.8	358.410	-0.250	0.870	0.510
2020/01/31 17:48:59.9	358.360	-0.240	0.870	0.550
2020/01/31 17:49:00.0	358.300	-0.230	0.870	0.580
2020/01/31 17:49:00.1	358.240	-0.220	0.860	0.620
2020/01/31 17:49:00.2	358.180	-0.200	0.850	0.650
2020/01/31 17:49:00.3	358.120	-0.180	0.830	0.690
2020/01/31 17:49:00.4	358.060	-0.150	0.810	0.720
2020/01/31 17:49:00.5	358.000	-0.130	0.780	0.750
2020/01/31 17:49:00.6	357.940	-0.100	0.750	0.780
2020/01/31 17:49:00.7	357.880	-0.070	0.710	0.800
2020/01/31 17:49:00.8	357.820	-0.040	0.660	0.820
2020/01/31 17:49:00.9	357.770	-0.020	0.610	0.830
2020/01/31 17:49:01.0	357.720	0.010	0.560	0.840
2020/01/31 17:49:01.1	357.670	0.040	0.500	0.850
2020/01/31 17:49:01.2	357.620	0.070	0.430	0.850
2020/01/31 17:49:01.3	357.580	0.090	0.360	0.840
2020/01/31 17:49:01.4	357.540	0.110	0.290	0.820
2020/01/31 17:49:01.5	357.510	0.140	0.210	0.800
2020/01/31 17:49:01.6	357.470	0.160	0.130	0.770
2020/01/31 17:49:01.7	357.450	0.170	0.050	0.740
2020/01/31 17:49:01.8	357.420	0.190	-0.040	0.700
2020/01/31 17:49:01.9	357.400	0.200	-0.130	0.660
2020/01/31 17:49:02.0	357.380	0.210	-0.230	0.610
2020/01/31 17:49:02.1	357.370	0.210	-0.320	0.550
2020/01/31 17:49:02.2	357.360	0.210	-0.420	0.500
2020/01/31 17:49:02.3	357.360	0.210	-0.520	0.440
2020/01/31 17:49:02.4	357.360	0.210	-0.620	0.370
2020/01/31 17:49:02.5	357.360	0.210	-0.720	0.300
2020/01/31 17:49:02.6	357.370	0.200	-0.820	0.230
2020/01/31 17:49:02.7	357.390	0.190	-0.920	0.150
2020/01/31 17:49:02.8	357.400	0.180	-1.010	0.070
2020/01/31 17:49:02.9	357.430	0.160	-1.100	-0.010
2020/01/31 17:49:03.0	357.460	0.150	-1.190	-0.090
2020/01/31 17:49:03.1	357.490	0.130	-1.270	-0.170
2020/01/31 17:49:03.2	357.530	0.110	-1.350	-0.250
2020/01/31 17:49:03.3	357.570	0.100	-1.420	-0.330
2020/01/31 17:49:03.4	357.610	0.080	-1.490	-0.410
2020/01/31 17:49:03.5	357.660	0.060	-1.540	-0.490
2020/01/31 17:49:03.6	357.710	0.040	-1.590	-0.570
2020/01/31 17:49:03.7	357.760	0.020	-1.630	-0.640
2020/01/31 17:49:03.8	357.810	-0.000	-1.670	-0.720
2020/01/31 17:49:03.9	357.870	-0.020	-1.690	-0.790
2020/01/31 17:49:04.0	357.930	-0.040	-1.700	-0.860
2020/01/31 17:49:04.1	358.000	-0.060	-1.710	-0.930
2020/01/31 17:49:04.2	358.060	-0.070	-1.710	-0.990
2020/01/31 17:49:04.3	358.120	-0.090	-1.690	-1.050
2020/01/31 17:49:04.4	358.190	-0.100	-1.670	-1.110
2020/01/31 17:49:04.5	358.250	-0.110	-1.630	-1.160
2020/01/31 17:49:04.6	358.320	-0.120	-1.590	-1.210
2020/01/31 17:49:04.7	358.380	-0.130	-1.540	-1.250
2020/01/31 17:49:04.8	358.440	-0.130	-1.480	-1.280
2020/01/31 17:49:04.9	358.500	-0.140	-1.410	-1.310
2020/01/31 17:49:05.0	358.560	-0.140	-1.340	-1.330
2020/01/31 17:49:05.1	358.610	-0.140	-1.250	-1.340
2020/01/31 17:49:05.2	358.670	-0.150	-1.160	-1.340
2020/01/31 17:49:05.3	358.720	-0.150	-1.060	-1.340
2020/01/31 17:49:05.4	358.770	-0.140	-0.960	-1.330
2020/01/31 17:49:05.5	358.810	-0.140	-0.850	-1.310
2020/01/31 17:49:05.6	358.850	-0.140	-0.740	-1.290
2020/01/31 17:49:05.7	358.890	-0.140	-0.620	-1.260
2020/01/31 17:49:05.8	358.920	-0.130	-0.500	-1.220
2020/01/31 17:49:05.9	358.950	-0.130	-0.380	-1.170
2020/01/31 17:49:06.0	358.980	-0.130	-0.260	-1.120
2020/01/31 17:49:06.1	359.000	-0.130	-0.140	-1.070
2020/01/31 17:49:06.2	359.010	-0.130	-0.030	-1.010
2020/01/31 17:49:06.3	359.020	-0.130	0.090	-0.950
2020/01/31 17:49:06.4	359.030	-0.130	0.200	-0.880
2020/01/31 17:49:06.5	359.030	-0.130	0.310	-0.810
2020/01/31 17:49:06.6	359.030	-0.130	0.420	-0.730
2020/01/31 17:49:06.7	359.020	-0.140	0.520	-0.650
2020/01/31 17:49:06.8	359.010	-0.140	0.610	-0.570
2020/01/31 17:49:06.9	358.990	-0.150	0.700	-0.490
2020/01/31 17:49:07.0	358.970	-0.160	0.780	-0.410
2020/01/31 17:49:07.1	358.940	-0.170	0.850	-0.330
2020/01/31 17:49:07.2	358.910	-0.180	0.920	-0.240
2020/01/31 17:49:07.3	358.880	-0.190	0.980	-0.160
2020/01/31 17:49:07.4	358.840	-0.200	1.030	-0.080
2020/01/31 17:49:07.5	358.800	-0.220	1.070	-0.000
2020/01/31 17:49:07.6	358.760	-0.230	1.100	0.070
2020/01/31 17:49:07.7	358.710	-0.240	1.120	0.150
2020/01/31 17:49:07.8	358.680	-0.260	1.130	0.220
2020/01/31 17:49:07.9	358.630	-0.270	1.140	0.290
2020/01/31 17:49:08.0	358.580	-0.290	1.130	0.350
2020/01/31 17:49:08.1	358.520	-0.300	1.120	0.410
2020/01/31 17:49:08.2	358.470	-0.320	1.090	0.460
2020/01/31 17:49:08.3	358.420	-0.330	1.060	0.510
2020/01/31 17:49:08.4	358.360	-0.340	1.020	0.550
2020/01/31 17:49:08.5	358.310	-0.350	0.970	0.590
2020/01/31 17:49:08.6	358.250	-0.360	0.910	0.630
2020/01/31 17:49:08.7	358.200	-0.360	0.850	0.660
2020/01/31 17:49:08.8	358.150	-0.370	0.780	0.680
2020/01/31 17:49:08.9	358.090	-0.370	0.710	0.690
2020/01/31 17:49:09.0	358.040	-0.370	0.620	0.710
2020/01/31 17:49:09.1	357.990	-0.370	0.540	0.710
2020/01/31 17:49:09.2	357.940	-0.360	0.440	0.720
2020/01/31 17:49:09.3	357.890	-0.350	0.350	0.710
2020/01/31 17:49:09.4	357.850	-0.340	0.250	0.710
2020/01/31 17:49:09.5	357.800	-0.320	0.140	0.690
2020/01/31 17:49:09.6	357.760	-0.300	0.040	0.680
2020/01/31 17:49:09.7	357.730	-0.270	-0.070	0.660
2020/01/31 17:49:09.8	357.710	-0.250	-0.180	0.630
2020/01/31 17:49:09.9	357.680	-0.210	-0.290	0.600
2020/01/31 17:49:10.0	357.660	-0.180	-0.400	0.570
2020/01/31 17:49:10.1	357.640	-0.140	-0.510	0.540
2020/01/31 17:49:10.2	357.620	-0.100	-0.620	0.500
2020/01/31 17:49:10.3	357.610	-0.050	-0.720	0.460
2020/01/31 17:49:10.4	357.610	-0.000	-0.830	0.420
2020/01/31 17:49:10.5	357.610	0.050	-0.920	0.370
2020/01/31 17:49:10.6	357.610	0.100	-1.020	0.330
2020/01/31 17:49:10.7	357.620	0.160	-1.110	0.280
2020/01/31 17:49:10.8	357.640	0.210	-1.190	0.230
2020/01/31 17:49:10.9	357.660	0.270	-1.270	0.180
2020/01/31 17:49:11.0	357.670	0.320	-1.340	0.140
2020/01/31 17:49:11.1	357.700	0.380	-1.400	0.090
2020/01/31 17:49:11.2	357.720	0.430	-1.450	0.040
2020/01/31 17:49:11.3	357.740	0.480	-1.500	-0.010
2020/01/31 17:49:11.4	357.770	0.530	-1.530	-0.050
2020/01/31 17:49:11.5	357.790	0.580	-1.550	-0.090
2020/01/31 17:49:11.6	357.810	0.620	-1.560	-0.130
2020/01/31 17:49:11.7	357.830	0.660	-1.560	-0.170
2020/01/31 17:49:11.8	357.840	0.690	-1.550	-0.210
2020/01/31 17:49:11.9	357.860	0.720	-1.530	-0.240
2020/01/31 17:49:12.0	357.880	0.740	-1.500	-0.270
2020/01/31 17:49:12.1	357.900	0.760	-1.460	-0.300
2020/01/31 17:49:12.2	357.910	0.770	-1.410	-0.320
2020/01/31 17:49:12.3	357.930	0.780	-1.340	-0.340
2020/01/31 17:49:12.4	357.940	0.780	-1.270	-0.360
2020/01/31 17:49:12.5	357.960	0.780	-1.190	-0.370
2020/01/31 17:49:12.6	357.970	0.770	-1.110	-0.380
2020/01/31 17:49:12.7	357.980	0.760	-1.010	-0.390
2020/01/31 17:49:12.8	357.980	0.740	-0.910	-0.390
2020/01/31 17:49:12.9	357.990	0.720	-0.810	-0.390
2020/01/31 17:49:13.0	358.000	0.690	-0.700	-0.380
2020/01/31 17:49:13.1	358.010	0.660	-0.600	-0.370
2020/01/31 17:49:13.2	358.030	0.620	-0.490	-0.360
2020/01/31 17:49:13.3	358.040	0.590	-0.380	-0.350
2020/01/31 17:49:13.4	358.050	0.540	-0.280	-0.330
2020/01/31 17:49:13.5	358.070	0.500	-0.170	-0.310
2020/01/31 17:49:13.6	358.080	0.460	-0.070	-0.290
2020/01/31 17:49:13.7	358.100	0.410	0.020	-0.280
2020/01/31 17:49:13.8	358.110	0.370	0.100	-0.260
2020/01/31 17:49:13.9	358.130	0.320	0.190	-0.240
2020/01/31 17:49:14.0	358.150	0.270	0.260	-0.220
2020/01/31 17:49:14.1	358.170	0.230	0.330	-0.200
2020/01/31 17:49:14.2	358.190	0.180	0.390	-0.180
2020/01/31 17:49:14.3	358.210	0.130	0.440	-0.160
2020/01/31 17:49:14.4	358.230	0.090	0.480	-0.140
2020/01/31 17:49:14.5	358.250	0.050	0.520	-0.130
2020/01/31 17:49:14.6	358.270	0.010	0.550	-0.110
2020/01/31 17:49:14.7	358.290	-0.040	0.570	-0.090
2020/01/31 17:49:14.8	358.300	-0.070	0.580	-0.080
2020/01/31 17:49:14.9	358.320	-0.110	0.590	-0.070
2020/01/31 17:49:15.0	358.340	-0.150	0.590	-0.060
2020/01/31 17:49:15.1	358.350	-0.180	0.580	-0.050
2020/01/31 17:49:15.2	358.360	-0.210	0.570	-0.040
2020/01/31 17:49:15.3	358.370	-0.240	0.550	-0.030
2020/01/31 17:49:15.4	358.380	-0.270	0.520	-0.020
2020/01/31 17:49:15.5	358.390	-0.300	0.490	-0.010
2020/01/31 17:49:15.6	358.390	-0.320	0.460	-0.010
2020/01/31 17:49:15.7	358.400	-0.350	0.430	-0.000
2020/01/31 17:49:15.8	358.390	-0.370	0.390	-0.000
2020/01/31 17:49:15.9	358.380	-0.390	0.350	-0.000
2020/01/31 17:49:16.0	358.380	-0.400	0.310	0.000
2020/01/31 17:49:16.1	358.380	-0.420	0.270	0.000
2020/01/31 17:49:16.2	358.370	-0.430	0.230	0.000
2020/01/31 17:49:16.3	358.360	-0.450	0.180	-0.000
2020/01/31 17:49:16.4	358.350	-0.460	0.140	-0.000
2020/01/31 17:49:16.5	358.330	-0.470	0.110	-0.010
2020/01/31 17:49:16.6	358.320	-0.480	0.070	-0.010
2020/01/31 17:49:16.7	358.300	-0.480	0.030	-0.010
2020/01/31 17:49:16.8	358.280	-0.490	-0.000	-0.020
2020/01/31 17:49:16.9	358.260	-0.500	-0.030	-0.020
2020/01/31 17:49:17.0	358.240	-0.500	-0.060	-0.030
2020/01/31 17:49:17.1	358.220	-0.500	-0.090	-0.030
2020/01/31 17:49:17.2	358.200	-0.500	-0.110	-0.030
2020/01/31 17:49:17.3	358.170	-0.500	-0.130	-0.030
2020/01/31 17:49:17.4	358.150	-0.500	-0.150	-0.030
2020/01/31 17:49:17.5	358.120	-0.500	-0.160	-0.030
2020/01/31 17:49:17.6	358.100	-0.500	-0.180	-0.030
2020/01/31 17:49:17.7	358.070	-0.490	-0.190	-0.030
2020/01/31 17:49:17.8	358.050	-0.490	-0.190	-0.030
2020/01/31 17:49:17.9	358.020	-0.480	-0.190	-0.020
2020/01/31 17:49:18.0	358.000	-0.470	-0.200	-0.010
2020/01/31 17:49:18.1	357.970	-0.460	-0.190	-0.010
2020/01/31 17:49:18.2	357.930	-0.450	-0.190	-0.000
2020/01/31 17:49:18.3	357.900	-0.440	-0.180	0.010
2020/01/31 17:49:18.4	357.870	-0.430	-0.180	0.020
2020/01/31 17:49:18.5	357.840	-0.420	-0.170	0.030
2020/01/31 17:49:18.6	357.810	-0.400	-0.160	0.040
2020/01/31 17:49:18.7	357.780	-0.380	-0.150	0.050
2020/01/31 17:49:18.8	357.740	-0.370	-0.140	0.060
2020/01/31 17:49:18.9	357.710	-0.350	-0.140	0.070
2020/01/31 17:49:19.0	357.680	-0.320	-0.130	0.080
2020/01/31 17:49:19.1	357.650	-0.300	-0.120	0.100
2020/01/31 17:49:19.2	357.620	-0.280	-0.120	0.110
2020/01/31 17:49:19.3	357.590	-0.250	-0.120	0.120
2020/01/31 17:49:19.4	357.560	-0.230	-0.120	0.140
2020/01/31 17:49:19.5	357.540	-0.200	-0.120	0.150
2020/01/31 17:49:19.6	357.510	-0.170	-0.130	0.160
2020/01/31 17:49:19.7	357.490	-0.140	-0.140	0.170
2020/01/31 17:49:19.8	357.480	-0.110	-0.160	0.170
2020/01/31 17:49:19.9	357.460	-0.080	-0.180	0.180
2020/01/31 17:49:20.0	357.440	-0.050	-0.200	0.180
2020/01/31 17:49:20.1	357.430	-0.020	-0.230	0.180
2020/01/31 17:49:20.2	357.420	0.020	-0.260	0.180
2020/01/31 17:49:20.3	357.410	0.050	-0.300	0.170
2020/01/31 17:49:20.4	357.400	0.080	-0.340	0.160
2020/01/31 17:49:20.5	357.400	0.120	-0.380	0.150
2020/01/31 17:49:20.6	357.400	0.150	-0.430	0.140
2020/01/31 17:49:20.7	357.410	0.190	-0.480	0.120
2020/01/31 17:49:20.8	357.420	0.220	-0.530	0.100
2020/01/31 17:49:20.9	357.440	0.250	-0.580	0.080
2020/01/31 17:49:21.0	357.450	0.280	-0.640	0.060
2020/01/31 17:49:21.1	357.460	0.310	-0.690	0.040
2020/01/31 17:49:21.2	357.480	0.340	-0.740	0.010
2020/01/31 17:49:21.3	357.500	0.370	-0.790	-0.020
2020/01/31 17:49:21.4	357.530	0.400	-0.840	-0.040
2020/01/31 17:49:21.5	357.550	0.420	-0.890	-0.070
2020/01/31 17:49:21.6	357.570	0.440	-0.940	-0.090
2020/01/31 17:49:21.7	357.600	0.460	-0.980	-0.120
2020/01/31 17:49:21.8	357.640	0.480	-1.010	-0.150
2020/01/31 17:49:21.9	357.670	0.490	-1.050	-0.170
2020/01/31 17:49:22.0	357.700	0.500	-1.070	-0.200
2020/01/31 17:49:22.1	357.730	0.510	-1.100	-0.220
2020/01/31 17:49:22.2	357.770	0.520	-1.110	-0.250
2020/01/31 17:49:22.3	357.800	0.520	-1.120	-0.270
2020/01/31 17:49:22.4	357.840	0.520	-1.130	-0.290
2020/01/31 17:49:22.5	357.880	0.510	-1.130	-0.320
2020/01/31 17:49:22.6	357.910	0.500	-1.120	-0.340
2020/01/31 17:49:22.7	357.950	0.490	-1.110	-0.360
2020/01/31 17:49:22.8	357.980	0.480	-1.090	-0.390
2020/01/31 17:49:22.9	358.020	0.460	-1.060	-0.410
2020/01/31 17:49:23.0	358.050	0.440	-1.030	-0.430
2020/01/31 17:49:23.1	358.090	0.420	-1.000	-0.450
2020/01/31 17:49:23.2	358.120	0.390	-0.950	-0.470
2020/01/31 17:49:23.3	358.160	0.360	-0.910	-0.480
2020/01/31 17:49:23.4	358.190	0.330	-0.860	-0.500
2020/01/31 17:49:23.5	358.210	0.300	-0.800	-0.510
2020/01/31 17:49:23.6	358.240	0.260	-0.740	-0.520
2020/01/31 17:49:23.7	358.260	0.230	-0.670	-0.520
2020/01/31 17:49:23.8	358.270	0.190	-0.610	-0.530
2020/01/31 17:49:23.9	358.290	0.150	-0.540	-0.530
2020/01/31 17:49:24.0	358.300	0.110	-0.470	-0.520
2020/01/31 17:49:24.1	358.310	0.070	-0.400	-0.520
2020/01/31 17:49:24.2	358.310	0.030	-0.320	-0.510
2020/01/31 17:49:24.3	358.320	-0.010	-0.250	-0.500
2020/01/31 17:49:24.4	358.320	-0.050	-0.170	-0.490
2020/01/31 17:49:24.5	358.310	-0.090	-0.100	-0.470
2020/01/31 17:49:24.6	358.310	-0.130	-0.030	-0.450
2020/01/31 17:49:24.7	358.300	-0.160	0.040	-0.430
2020/01/31 17:49:24.8	358.280	-0.200	0.110	-0.420
2020/01/31 17:49:24.9	358.270	-0.230	0.170	-0.390
2020/01/31 17:49:25.0	358.260	-0.260	0.230	-0.370
2020/01/31 17:49:25.1	358.250	-0.290	0.290	-0.340
2020/01/31 17:49:25.2	358.230	-0.310	0.340	-0.320
2020/01/31 17:49:25.3	358.220	-0.340	0.390	-0.290
2020/01/31 17:49:25.4	358.200	-0.360	0.430	-0.260
2020/01/31 17:49:25.5	358.190	-0.370	0.470	-0.230
2020/01/31 17:49:25.6	358.170	-0.390	0.510	-0.210
2020/01/31 17:49:25.7	358.160	-0.400	0.540	-0.180
2020/01/31 17:49:25.8	358.130	-0.400	0.560	-0.150
2020/01/31 17:49:25.9	358.120	-0.410	0.580	-0.120
2020/01/31 17:49:26.0	358.100	-0.410	0.590	-0.090
2020/01/31 17:49:26.1	358.080	-0.400	0.600	-0.060
2020/01/31 17:49:26.2	358.060	-0.400	0.610	-0.040
2020/01/31 17:49:26.3	358.050	-0.390	0.610	-0.010
2020/01/31 17:49:26.4	358.030	-0.370	0.600	0.020
2020/01/31 17:49:26.5	358.010	-0.360	0.590	0.040
2020/01/31 17:49:26.6	358.000	-0.340	0.580	0.070
2020/01/31 17:49:26.7	357.980	-0.320	0.570	0.100
2020/01/31 17:49:26.8	357.960	-0.300	0.550	0.110
2020/01/31 17:49:26.9	357.950	-0.270	0.520	0.140
2020/01/31 17:49:27.0	357.940	-0.240	0.500	0.160
2020/01/31 17:49:27.1	357.930	-0.210	0.470	0.180
2020/01/31 17:49:27.2	357.920	-0.180	0.440	0.200
2020/01/31 17:49:27.3	357.910	-0.150	0.400	0.220
2020/01/31 17:49:27.4	357.900	-0.120	0.370	0.240
2020/01/31 17:49:27.5	357.890	-0.090	0.330	0.260
2020/01/31 17:49:27.6	357.890	-0.060	0.290	0.270
2020/01/31 17:49:27.7	357.880	-0.020	0.260	0.290
2020/01/31 17:49:27.8	357.870	0.010	0.210	0.300
2020/01/31 17:49:27.9	357.860	0.040	0.170	0.310
2020/01/31 17:49:28.0	357.860	0.070	0.130	0.320
2020/01/31 17:49:28.1	357.850	0.100	0.090	0.330
2020/01/31 17:49:28.2	357.850	0.130	0.050	0.340
2020/01/31 17:49:28.3	357.840	0.160	0.020	0.350
2020/01/31 17:49:28.4	357.840	0.180	-0.020	0.360
2020/01/31 17:49:28.5	357.830	0.200	-0.060	0.360
2020/01/31 17:49:28.6	357.820	0.220	-0.090	0.360
2020/01/31 17:49:28.7	357.820	0.240	-0.130	0.370
2020/01/31 17:49:28.8	357.810	0.250	-0.150	0.360
2020/01/31 17:49:28.9	357.800	0.260	-0.180	0.360
2020/01/31 17:49:29.0	357.790	0.270	-0.210	0.360
2020/01/31 17:49:29.1	357.780	0.270	-0.240	0.350
2020/01/31 17:49:29.2	357.770	0.280	-0.260	0.350
2020/01/31 17:49:29.3	357.760	0.280	-0.290	0.340
2020/01/31 17:49:29.4	357.740	0.270	-0.310	0.330
2020/01/31 17:49:29.5	357.730	0.270	-0.330	0.310
2020/01/31 17:49:29.6	357.720	0.260	-0.350	0.300
2020/01/31 17:49:29.7	357.700	0.240	-0.370	0.280
2020/01/31 17:49:29.8	357.700	0.230	-0.390	0.260
2020/01/31 17:49:29.9	357.680	0.220	-0.400	0.240
2020/01/31 17:49:30.0	357.670	0.200	-0.420	0.220
2020/01/31 17:49:30.1	357.650	0.180	-0.440	0.200
2020/01/31 17:49:30.2	357.640	0.160	-0.450	0.170
2020/01/31 17:49:30.3	357.630	0.140	-0.470	0.140
2020/01/31 17:49:30.4	357.610	0.120	-0.490	0.110
2020/01/31 17:49:30.5	357.600	0.100	-0.510	0.080
2020/01/31 17:49:30.6	357.590	0.090	-0.520	0.050
2020/01/31 17:49:30.7	357.580	0.070	-0.540	0.020
2020/01/31 17:49:30.8	357.580	0.050	-0.560	-0.010
2020/01/31 17:49:30.9	357.570	0.040	-0.580	-0.040
2020/01/31 17:49:31.0	357.570	0.020	-0.610	-0.070
2020/01/31 17:49:31.1	357.570	0.010	-0.630	-0.110
2020/01/31 17:49:31.2	357.580	0.000	-0.660	-0.140
2020/01/31 17:49:31.3	357.580	-0.000	-0.680	-0.170
2020/01/31 17:49:31.4	357.590	-0.010	-0.710	-0.200
2020/01/31 17:49:31.5	357.600	-0.010	-0.740	-0.230
2020/01/31 17:49:31.6	357.610	-0.010	-0.760	-0.250
2020/01/31 17:49:31.7	357.630	-0.000	-0.790	-0.280
2020/01/31 17:49:31.8	357.640	0.000	-0.820	-0.310
2020/01/31 17:49:31.9	357.660	0.010	-0.840	-0.340
2020/01/31 17:49:32.0	357.680	0.020	-0.860	-0.370
2020/01/31 17:49:32.1	357.700	0.030	-0.880	-0.390
2020/01/31 17:49:32.2	357.720	0.050	-0.890	-0.420
2020/01/31 17:49:32.3	357.750	0.060	-0.900	-0.440
2020/01/31 17:49:32.4	357.770	0.080	-0.910	-0.470
2020/01/31 17:49:32.5	357.800	0.090	-0.920	-0.490
2020/01/31 17:49:32.6	357.820	0.110	-0.920	-0.520
2020/01/31 17:49:32.7	357.850	0.130	-0.910	-0.540
2020/01/31 17:49:32.8	357.880	0.140	-0.900	-0.560
2020/01/31 17:49:32.9	357.910	0.160	-0.890	-0.580
2020/01/31 17:49:33.0	357.930	0.180	-0.870	-0.600
2020/01/31 17:49:33.1	357.960	0.190	-0.850	-0.620
2020/01/31 17:49:33.2	357.980	0.200	-0.820	-0.630
2020/01/31 17:49:33.3	358.000	0.210	-0.790	-0.640
2020/01/31 17:49:33.4	358.020	0.220	-0.760	-0.640
2020/01/31 17:49:33.5	358.040	0.230	-0.720	-0.650
2020/01/31 17:49:33.6	358.060	0.230	-0.680	-0.650
2020/01/31 17:49:33.7	358.080	0.230	-0.640	-0.640
2020/01/31 17:49:33.8	358.100	0.230	-0.600	-0.640
2020/01/31 17:49:33.9	358.110	0.220	-0.550	-0.630
2020/01/31 17:49:34.0	358.130	0.220	-0.500	-0.610
2020/01/31 17:49:34.1	358.140	0.200	-0.450	-0.600
2020/01/31 17:49:34.2	358.150	0.190	-0.400	-0.580
2020/01/31 17:49:34.3	358.160	0.170	-0.350	-0.560
2020/01/31 17:49:34.4	358.180	0.150	-0.300	-0.540
2020/01/31 17:49:34.5	358.190	0.130	-0.250	-0.510
2020/01/31 17:49:34.6	358.200	0.100	-0.200	-0.490
2020/01/31 17:49:34.7	358.200	0.080	-0.150	-0.470
2020/01/31 17:49:34.8	358.210	0.050	-0.100	-0.440
2020/01/31 17:49:34.9	358.220	0.010	-0.050	-0.420
2020/01/31 17:49:35.0	358.220	-0.020	-0.010	-0.400
2020/01/31 17:49:35.1	358.230	-0.060	0.030	-0.380
2020/01/31 17:49:35.2	358.240	-0.090	0.070	-0.360
2020/01/31 17:49:35.3	358.250	-0.130	0.100	-0.340
2020/01/31 17:49:35.4	358.260	-0.160	0.130	-0.320
2020/01/31 17:49:35.5	358.260	-0.200	0.160	-0.300
2020/01/31 17:49:35.6	358.270	-0.230	0.190	-0.280
2020/01/31 17:49:35.7	358.270	-0.270	0.210	-0.260
2020/01/31 17:49:35.8	358.270	-0.300	0.230	-0.240
2020/01/31 17:49:35.9	358.270	-0.330	0.250	-0.220
2020/01/31 17:49:36.0	358.270	-0.360	0.260	-0.200
2020/01/31 17:49:36.1	358.260	-0.390	0.270	-0.170
2020/01/31 17:49:36.2	358.250	-0.410	0.280	-0.140
2020/01/31 17:49:36.3	358.240	-0.430	0.290	-0.110
2020/01/31 17:49:36.4	358.230	-0.450	0.290	-0.070
2020/01/31 17:49:36.5	358.210	-0.460	0.290	-0.040
2020/01/31 17:49:36.6	358.190	-0.470	0.290	0.000
2020/01/31 17:49:36.7	358.170	-0.480	0.290	0.040
2020/01/31 17:49:36.8	358.160	-0.480	0.280	0.080
2020/01/31 17:49:36.9	358.130	-0.480	0.280	0.120
2020/01/31 17:49:37.0	358.100	-0.480	0.270	0.170
2020/01/31 17:49:37.1	358.070	-0.470	0.260	0.210
2020/01/31 17:49:37.2	358.040	-0.460	0.240	0.250
2020/01/31 17:49:37.3	358.010	-0.450	0.230	0.290
2020/01/31 17:49:37.4	357.970	-0.430	0.210	0.330
2020/01/31 17:49:37.5	357.940	-0.400	0.190	0.370
2020/01/31 17:49:37.6	357.900	-0.380	0.170	0.410
2020/01/31 17:49:37.7	357.870	-0.350	0.150	0.440
2020/01/31 17:49:37.8	357.830	-0.320	0.130	0.470
2020/01/31 17:49:37.9	357.800	-0.280	0.100	0.500
2020/01/31 17:49:38.0	357.770	-0.240	0.080	0.530
2020/01/31 17:49:38.1	357.740	-0.200	0.050	0.550
2020/01/31 17:49:38.2	357.710	-0.160	0.020	0.560
2020/01/31 17:49:38.3	357.680	-0.120	-0.010	0.580
2020/01/31 17:49:38.4	357.650	-0.080	-0.050	0.590
2020/01/31 17:49:38.5	357.630	-0.030	-0.080	0.590
2020/01/31 17:49:38.6	357.610	0.010	-0.110	0.600
2020/01/31 17:49:38.7	357.590	0.060	-0.150	0.600
2020/01/31 17:49:38.8	357.580	0.100	-0.180	0.590
2020/01/31 17:49:38.9	357.570	0.150	-0.220	0.580
2020/01/31 17:49:39.0	357.560	0.190	-0.250	0.570
2020/01/31 17:49:39.1	357.550	0.230	-0.290	0.550
2020/01/31 17:49:39.2	357.550	0.260	-0.320	0.540
2020/01/31 17:49:39.3	357.540	0.300	-0.350	0.510
2020/01/31 17:49:39.4	357.540	0.330	-0.380	0.490
2020/01/31 17:49:39.5	357.540	0.360	-0.410	0.470
2020/01/31 17:49:39.6	357.550	0.380	-0.440	0.440
2020/01/31 17:49:39.7	357.550	0.410	-0.470	0.410
2020/01/31 17:49:39.8	357.560	0.420	-0.490	0.380
2020/01/31 17:49:39.9	357.570	0.440	-0.510	0.340
2020/01/31 17:49:40.0	357.580	0.450	-0.530	0.310
2020/01/31 17:49:40.1	357.590	0.450	-0.550	0.270
2020/01/31 17:49:40.2	357.600	0.450	-0.570	0.230
2020/01/31 17:49:40.3	357.610	0.450	-0.580	0.190
2020/01/31 17:49:40.4	357.630	0.440	-0.590	0.150
2020/01/31 17:49:40.5	357.640	0.430	-0.600	0.110
2020/01/31 17:49:40.6	357.650	0.410	-0.610	0.070
2020/01/31 17:49:40.7	357.660	0.400	-0.610	0.030
2020/01/31 17:49:40.8	357.670	0.370	-0.610	-0.010
2020/01/31 17:49:40.9	357.680	0.350	-0.610	-0.050
2020/01/31 17:49:41.0	357.700	0.320	-0.610	-0.090
2020/01/31 17:49:41.1	357.710	0.300	-0.600	-0.120
2020/01/31 17:49:41.2	357.720	0.270	-0.590	-0.160
2020/01/31 17:49:41.3	357.740	0.240	-0.580	-0.190
2020/01/31 17:49:41.4	357.750	0.210	-0.570	-0.220
2020/01/31 17:49:41.5	357.770	0.180	-0.550	-0.250
2020/01/31 17:49:41.6	357.780	0.140	-0.540	-0.270
2020/01/31 17:49:41.7	357.790	0.110	-0.520	-0.290
2020/01/31 17:49:41.8	357.810	0.090	-0.500	-0.320
2020/01/31 17:49:41.9	357.820	0.060	-0.480	-0.340
2020/01/31 17:49:42.0	357.840	0.030	-0.460	-0.350
2020/01/31 17:49:42.1	357.850	0.010	-0.440	-0.360
2020/01/31 17:49:42.2	357.860	-0.010	-0.420	-0.370
2020/01/31 17:49:42.3	357.880	-0.030	-0.400	-0.380
2020/01/31 17:49:42.4	357.890	-0.050	-0.380	-0.380
2020/01/31 17:49:42.5	357.910	-0.060	-0.360	-0.390
2020/01/31 17:49:42.6	357.920	-0.070	-0.340	-0.390
2020/01/31 17:49:42.7	357.940	-0.080	-0.320	-0.380
2020/01/31 17:49:42.8	357.940	-0.080	-0.300	-0.380
2020/01/31 17:49:42.9	357.960	-0.090	-0.280	-0.380
2020/01/31 17:49:43.0	357.970	-0.090	-0.260	-0.370
2020/01/31 17:49:43.1	357.980	-0.080	-0.240	-0.360
2020/01/31 17:49:43.2	357.980	-0.080	-0.220	-0.340
2020/01/31 17:49:43.3	357.990	-0.070	-0.200	-0.330
2020/01/31 17:49:43.4	357.990	-0.060	-0.180	-0.310
2020/01/31 17:49:43.5	357.990	-0.050	-0.160	-0.290
2020/01/31 17:49:43.6	357.990	-0.030	-0.140	-0.260
2020/01/31 17:49:43.7	357.990	-0.020	-0.110	-0.240
2020/01/31 17:49:43.8	357.970	-0.000	-0.090	-0.210
2020/01/31 17:49:43.9	357.970	0.020	-0.070	-0.180
2020/01/31 17:49:44.0	357.960	0.030	-0.050	-0.150
2020/01/31 17:49:44.1	357.950	0.050	-0.030	-0.120
2020/01/31 17:49:44.2	357.930	0.070	-0.010	-0.090
2020/01/31 17:49:44.3	357.920	0.090	0.020	-0.050
2020/01/31 17:49:44.4	357.900	0.110	0.040	-0.020
2020/01/31 17:49:44.5	357.880	0.120	0.060	0.020
2020/01/31 17:49:44.6	357.860	0.140	0.080	0.060
2020/01/31 17:49:44.7	357.840	0.150	0.100	0.090
2020/01/31 17:49:44.8	357.810	0.160	0.110	0.130
2020/01/31 17:49:44.9	357.790	0.170	0.130	0.170
2020/01/31 17:49:45.0	357.760	0.180	0.150	0.210
2020/01/31 17:49:45.1	357.740	0.190	0.160	0.250
2020/01/31 17:49:45.2	357.710	0.190	0.170	0.280
2020/01/31 17:49:45.3	357.680	0.190	0.180	0.320
2020/01/31 17:49:45.4	357.650	0.190	0.180	0.350
2020/01/31 17:49:45.5	357.620	0.190	0.180	0.380
2020/01/31 17:49:45.6	357.600	0.190	0.180	0.400
2020/01/31 17:49:45.7	357.570	0.180	0.170	0.430
2020/01/31 17:49:45.8	357.560	0.170	0.160	0.440
2020/01/31 17:49:45.9	357.530	0.160	0.140	0.460
2020/01/31 17:49:46.0	357.510	0.140	0.120	0.470
2020/01/31 17:49:46.1	357.500	0.130	0.100	0.470
2020/01/31 17:49:46.2	357.480	0.110	0.070	0.470
2020/01/31 17:49:46.3	357.470	0.100	0.030	0.470
2020/01/31 17:49:46.4	357.470	0.080	-0.010	0.460
2020/01/31 17:49:46.5	357.470	0.060	-0.050	0.440
2020/01/31 17:49:46.6	357.470	0.040	-0.100	0.420
2020/01/31 17:49:46.7	357.480	0.020	-0.150	0.390
2020/01/31 17:49:46.8	357.500	0.000	-0.210	0.360
2020/01/31 17:49:46.9	357.530	-0.020	-0.270	0.320
2020/01/31 17:49:47.0	357.550	-0.040	-0.330	0.280
2020/01/31 17:49:47.1	357.580	-0.050	-0.390	0.240
2020/01/31 17:49:47.2	357.610	-0.070	-0.450	0.200
2020/01/31 17:49:47.3	357.650	-0.080	-0.510	0.150
2020/01/31 17:49:47.4	357.690	-0.100	-0.570	0.100
2020/01/31 17:49:47.5	357.740	-0.110	-0.630	0.050
2020/01/31 17:49:47.6	357.780	-0.130	-0.690	-0.000
2020/01/31 17:49:47.7	357.830	-0.140	-0.740	-0.060
2020/01/31 17:49:47.8	357.870	-0.150	-0.790	-0.120
2020/01/31 17:49:47.9	357.920	-0.160	-0.840	-0.170
2020/01/31 17:49:48.0	357.970	-0.170	-0.880	-0.230
2020/01/31 17:49:48.1	358.020	-0.180	-0.910	-0.280
2020/01/31 17:49:48.2	358.070	-0.190	-0.940	-0.330
2020/01/31 17:49:48.3	358.120	-0.190	-0.960	-0.380
2020/01/31 17:49:48.4	358.160	-0.200	-0.970	-0.420
2020/01/31 17:49:48.5	358.200	-0.210	-0.970	-0.460
2020/01/31 17:49:48.6	358.240	-0.210	-0.970	-0.500
2020/01/31 17:49:48.7	358.270	-0.220	-0.960	-0.530
2020/01/31 17:49:48.8	358.300	-0.230	-0.940	-0.550
2020/01/31 17:49:48.9	358.320	-0.230	-0.910	-0.570
2020/01/31 17:49:49.0	358.350	-0.240	-0.880	-0.590
2020/01/31 17:49:49.1	358.360	-0.240	-0.840	-0.590
2020/01/31 17:49:49.2	358.380	-0.250	-0.790	-0.590
2020/01/31 17:49:49.3	358.380	-0.260	-0.740	-0.590
2020/01/31 17:49:49.4	358.390	-0.260	-0.680	-0.580
2020/01/31 17:49:49.5	358.390	-0.270	-0.620	-0.560
2020/01/31 17:49:49.6	358.380	-0.270	-0.550	-0.540
2020/01/31 17:49:49.7	358.380	-0.280	-0.490	-0.520
2020/01/31 17:49:49.8	358.370	-0.290	-0.420	-0.490
2020/01/31 17:49:49.9	358.360	-0.300	-0.350	-0.460
2020/01/31 17:49:50.0	358.340	-0.300	-0.290	-0.430
2020/01/31 17:49:50.1	358.320	-0.310	-0.220	-0.390
2020/01/31 17:49:50.2	358.300	-0.310	-0.160	-0.360
2020/01/31 17:49:50.3	358.280	-0.320	-0.100	-0.320
2020/01/31 17:49:50.4	358.260	-0.320	-0.040	-0.290
2020/01/31 17:49:50.5	358.230	-0.330	0.010	-0.250
2020/01/31 17:49:50.6	358.210	-0.330	0.060	-0.220
2020/01/31 17:49:50.7	358.180	-0.330	0.100	-0.190
2020/01/31 17:49:50.8	358.160	-0.330	0.140	-0.160
2020/01/31 17:49:50.9	358.130	-0.320	0.160	-0.130
2020/01/31 17:49:51.0	358.110	-0.320	0.190	-0.100
2020/01/31 17:49:51.1	358.090	-0.310	0.200	-0.080
2020/01/31 17:49:51.2	358.070	-0.300	0.210	-0.060
2020/01/31 17:49:51.3	358.050	-0.290	0.210	-0.030
2020/01/31 17:49:51.4	358.020	-0.270	0.210	-0.010
2020/01/31 17:49:51.5	358.010	-0.250	0.200	0.000
2020/01/31 17:49:51.6	357.990	-0.230	0.180	0.020
2020/01/31 17:49:51.7	357.970	-0.210	0.170	0.040
2020/01/31 17:49:51.8	357.940	-0.180	0.140	0.050
2020/01/31 17:49:51.9	357.920	-0.150	0.110	0.070
2020/01/31 17:49:52.0	357.900	-0.120	0.080	0.090
2020/01/31 17:49:52.1	357.880	-0.090	0.050	0.110
2020/01/31 17:49:52.2	357.860	-0.050	0.020	0.130
2020/01/31 17:49:52.3	357.840	-0.010	-0.010	0.150
2020/01/31 17:49:52.4	357.820	0.030	-0.040	0.170
2020/01/31 17:49:52.5	357.800	0.070	-0.080	0.200
2020/01/31 17:49:52.6	357.780	0.110	-0.110	0.220
2020/01/31 17:49:52.7	357.760	0.150	-0.140	0.240
2020/01/31 17:49:52.8	357.730	0.190	-0.160	0.260
2020/01/31 17:49:52.9	357.710	0.230	-0.190	0.290
2020/01/31 17:49:53.0	357.690	0.270	-0.220	0.300
2020/01/31 17:49:53.1	357.670	0.300	-0.240	0.320
2020/01/31 17:49:53.2	357.650	0.340	-0.260	0.340
2020/01/31 17:49:53.3	357.640	0.370	-0.270	0.350
2020/01/31 17:49:53.4	357.620	0.400	-0.290	0.360
2020/01/31 17:49:53.5	357.610	0.430	-0.300	0.360
2020/01/31 17:49:53.6	357.600	0.450	-0.310	0.360
2020/01/31 17:49:53.7	357.590	0.480	-0.320	0.360
2020/01/31 17:49:53.8	357.600	0.500	-0.320	0.350
2020/01/31 17:49:53.9	357.590	0.510	-0.330	0.340
2020/01/31 17:49:54.0	357.590	0.520	-0.330	0.330
2020/01/31 17:49:54.1	357.590	0.530	-0.330	0.310
2020/01/31 17:49:54.2	357.600	0.530	-0.330	0.290
2020/01/31 17:49:54.3	357.610	0.540	-0.330	0.270
2020/01/31 17:49:54.4	357.620	0.530	-0.330	0.240
2020/01/31 17:49:54.5	357.630	0.530	-0.320	0.220
2020/01/31 17:49:54.6	357.650	0.520	-0.320	0.190
2020/01/31 17:49:54.7	357.670	0.510	-0.310	0.160
2020/01/31 17:49:54.8	357.680	0.500	-0.310	0.130
2020/01/31 17:49:54.9	357.700	0.480	-0.300	0.100
2020/01/31 17:49:55.0	357.730	0.460	-0.290	0.070
2020/01/31 17:49:55.1	357.750	0.440	-0.280	0.040
2020/01/31 17:49:55.2	357.780	0.410	-0.270	0.010
2020/01/31 17:49:55.3	357.800	0.390	-0.260	-0.020
2020/01/31 17:49:55.4	357.830	0.360	-0.250	-0.040
2020/01/31 17:49:55.5	357.860	0.330	-0.230	-0.060
2020/01/31 17:49:55.6	357.890	0.300	-0.220	-0.090
2020/01/31 17:49:55.7	357.920	0.260	-0.200	-0.110
2020/01/31 17:49:55.8	357.930	0.230	-0.180	-0.130
2020/01/31 17:49:55.9	357.960	0.190	-0.160	-0.150
2020/01/31 17:49:56.0	357.990	0.150	-0.150	-0.170
2020/01/31 17:49:56.1	358.020	0.120	-0.130	-0.190
2020/01/31 17:49:56.2	358.050	0.080	-0.110	-0.200
2020/01/31 17:49:56.3	358.080	0.040	-0.090	-0.220
2020/01/31 17:49:56.4	358.110	0.010	-0.070	-0.230
2020/01/31 17:49:56.5	358.140	-0.030	-0.050	-0.240
2020/01/31 17:49:56.6	358.170	-0.070	-0.030	-0.250
2020/01/31 17:49:56.7	358.200	-0.100	-0.020	-0.260
2020/01/31 17:49:56.8	358.220	-0.140	-0.000	-0.270
2020/01/31 17:49:56.9	358.240	-0.170	0.010	-0.280
2020/01/31 17:49:57.0	358.270	-0.200	0.020	-0.280
2020/01/31 17:49:57.1	358.290	-0.230	0.040	-0.270
2020/01/31 17:49:57.2	358.300	-0.250	0.050	-0.270
2020/01/31 17:49:57.3	358.320	-0.280	0.060	-0.260
2020/01/31 17:49:57.4	358.330	-0.300	0.060	-0.250
2020/01/31 17:49:57.5	358.340	-0.320	0.070	-0.240
2020/01/31 17:49:57.6	358.350	-0.340	0.070	-0.220
2020/01/31 17:49:57.7	358.350	-0.350	0.070	-0.200
2020/01/31 17:49:57.8	358.360	-0.360	0.080	-0.180
2020/01/31 17:49:57.9	358.360	-0.370	0.070	-0.160
2020/01/31 17:49:58.0	358.360	-0.380	0.070	-0.130
2020/01/31 17:49:58.1	358.350	-0.380	0.060	-0.100
2020/01/31 17:49:58.2	358.340	-0.390	0.050	-0.070
2020/01/31 17:49:58.3	358.320	-0.390	0.040	-0.040
2020/01/31 17:49:58.4	358.310	-0.380	0.020	-0.010
2020/01/31 17:49:58.5	358.290	-0.380	0.010	0.020
2020/01/31 17:49:58.6	358.270	-0.370	-0.010	0.050
2020/01/31 17:49:58.7	358.240	-0.370	-0.040	0.080
2020/01/31 17:49:58.8	358.220	-0.360	-0.060	0.110
2020/01/31 17:49:58.9	358.200	-0.340	-0.090	0.130
2020/01/31 17:49:59.0	358.170	-0.330	-0.120	0.150
2020/01/31 17:49:59.1	358.140	-0.320	-0.150	0.170
2020/01/31 17:49:59.2	358.110	-0.300	-0.190	0.180
2020/01/31 17:49:59.3	358.090	-0.280	-0.220	0.190
2020/01/31 17:49:59.4	358.060	-0.260	-0.260	0.200
2020/01/31 17:49:59.5	358.030	-0.240	-0.310	0.210
2020/01/31 17:49:59.6	358.010	-0.220	-0.350	0.210
2020/01/31 17:49:59.7	357.980	-0.200	-0.400	0.210
2020/01/31 17:49:59.8	357.960	-0.180	-0.440	0.200
2020/01/31 17:49:59.9	357.940	-0.150	-0.490	0.190
2020/01/31 17:50:00.0	357.920	-0.130	-0.540	0.180
2020/01/31 17:50:00.1	357.900	-0.100	-0.590	0.170
2020/01/31 17:50:00.2	357.880	-0.080	-0.640	0.150
2020/01/31 17:50:00.3	357.860	-0.050	-0.690	0.130
2020/01/31 17:50:00.4	357.850	-0.030	-0.730	0.110
2020/01/31 17:50:00.5	357.830	0.000	-0.780	0.090
2020/01/31 17:50:00.6	357.820	0.030	-0.820	0.060
2020/01/31 17:50:00.7	357.810	0.050	-0.870	0.030
2020/01/31 17:50:00.8	357.800	0.070	-0.910	-0.000
2020/01/31 17:50:00.9	357.800	0.100	-0.940	-0.030
2020/01/31 17:50:01.0	357.800	0.120	-0.970	-0.070
2020/01/31 17:50:01.1	357.800	0.140	-1.000	-0.100
2020/01/31 17:50:01.2	357.800	0.170	-1.020	-0.140
2020/01/31 17:50:01.3	357.800	0.190	-1.040	-0.170
2020/01/31 17:50:01.4	357.810	0.200	-1.060	-0.210
2020/01/31 17:50:01.5	357.810	0.220	-1.060	-0.240
2020/01/31 17:50:01.6	357.820	0.240	-1.070	-0.280
2020/01/31 17:50:01.7	357.830	0.250	-1.060	-0.310
2020/01/31 17:50:01.8	357.840	0.270	-1.060	-0.340
2020/01/31 17:50:01.9	357.850	0.280	-1.040	-0.360
2020/01/31 17:50:02.0	357.860	0.290	-1.020	-0.390
2020/01/31 17:50:02.1	357.870	0.300	-0.990	-0.410
2020/01/31 17:50:02.2	357.880	0.300	-0.960	-0.430
2020/01/31 17:50:02.3	357.890	0.310	-0.920	-0.440
2020/01/31 17:50:02.4	357.910	0.310	-0.880	-0.460
2020/01/31 17:50:02.5	357.920	0.300	-0.830	-0.470
2020/01/31 17:50:02.6	357.930	0.300	-0.770	-0.480
2020/01/31 17:50:02.7	357.950	0.290	-0.710	-0.490
2020/01/31 17:50:02.8	357.960	0.280	-0.650	-0.490
2020/01/31 17:50:02.9	357.970	0.270	-0.580	-0.500
2020/01/31 17:50:03.0	357.990	0.260	-0.510	-0.500
2020/01/31 17:50:03.1	358.000	0.240	-0.440	-0.500
2020/01/31 17:50:03.2	358.020	0.220	-0.370	-0.500
2020/01/31 17:50:03.3	358.030	0.200	-0.290	-0.500
2020/01/31 17:50:03.4	358.040	0.170	-0.210	-0.490
2020/01/31 17:50:03.5	358.060	0.150	-0.130	-0.480
2020/01/31 17:50:03.6	358.070	0.120	-0.060	-0.470
2020/01/31 17:50:03.7	358.090	0.090	0.020	-0.460
2020/01/31 17:50:03.8	358.090	0.060	0.090	-0.450
2020/01/31 17:50:03.9	358.110	0.030	0.170	-0.430
2020/01/31 17:50:04.0	358.120	0.000	0.230	-0.410
2020/01/31 17:50:04.1	358.140	-0.030	0.300	-0.390
2020/01/31 17:50:04.2	358.150	-0.060	0.360	-0.370
2020/01/31 17:50:04.3	358.170	-0.080	0.420	-0.350
2020/01/31 17:50:04.4	358.180	-0.110	0.470	-0.320
2020/01/31 17:50:04.5	358.200	-0.140	0.510	-0.290
2020/01/31 17:50:04.6	358.220	-0.170	0.550	-0.270
2020/01/31 17:50:04.7	358.230	-0.190	0.580	-0.240
2020/01/31 17:50:04.8	358.240	-0.210	0.610	-0.210
2020/01/31 17:50:04.9	358.260	-0.230	0.630	-0.180
2020/01/31 17:50:05.0	358.270	-0.250	0.640	-0.140
2020/01/31 17:50:05.1	358.290	-0.260	0.650	-0.110
2020/01/31 17:50:05.2	358.300	-0.280	0.650	-0.080
2020/01/31 17:50:05.3	358.310	-0.290	0.640	-0.040
2020/01/31 17:50:05.4	358.320	-0.300	0.630	-0.010
2020/01/31 17:50:05.5	358.320	-0.310	0.610	0.030
2020/01/31 17:50:05.6	358.330	-0.310	0.590	0.060
2020/01/31 17:50:05.7	358.330	-0.310	0.570	0.100
2020/01/31 17:50:05.8	358.340	-0.320	0.530	0.140
2020/01/31 17:50:05.9	358.340	-0.320	0.500	0.170
2020/01/31 17:50:06.0	358.330	-0.310	0.460	0.200
2020/01/31 17:50:06.1	358.330	-0.310	0.420	0.240
2020/01/31 17:50:06.2	358.320	-0.300	0.370	0.270
2020/01/31 17:50:06.3	358.320	-0.290	0.330	0.290
2020/01/31 17:50:06.4	358.310	-0.280	0.280	0.320
2020/01/31 17:50:06.5	358.300	-0.270	0.220	0.340
2020/01/31 17:50:06.6	358.290	-0.260	0.170	0.360
2020/01/31 17:50:06.7	358.270	-0.250	0.110	0.380
2020/01/31 17:50:06.8	358.260	-0.230	0.060	0.400
2020/01/31 17:50:06.9	358.240	-0.220	0.010	0.410
2020/01/31 17:50:07.0	358.230	-0.200	-0.050	0.430
2020/01/31 17:50:07.1	358.210	-0.180	-0.110	0.440
2020/01/31 17:50:07.2	358.200	-0.170	-0.160	0.450
2020/01/31 17:50:07.3	358.180	-0.150	-0.220	0.460
2020/01/31 17:50:07.4	358.170	-0.130	-0.270	0.460
2020/01/31 17:50:07.5	358.150	-0.110	-0.320	0.460
2020/01/31 17:50:07.6	358.140	-0.090	-0.370	0.460
2020/01/31 17:50:07.7	358.120	-0.070	-0.420	0.450
2020/01/31 17:50:07.8	358.110	-0.050	-0.460	0.440
2020/01/31 17:50:07.9	358.100	-0.040	-0.510	0.430
2020/01/31 17:50:08.0	358.090	-0.020	-0.540	0.420
2020/01/31 17:50:08.1	358.080	0.000	-0.580	0.400
2020/01/31 17:50:08.2	358.080	0.020	-0.610	0.380
2020/01/31 17:50:08.3	358.070	0.040	-0.630	0.350
2020/01/31 17:50:08.4	358.070	0.050	-0.660	0.330
2020/01/31 17:50:08.5	358.060	0.070	-0.670	0.300
2020/01/31 17:50:08.6	358.060	0.080	-0.690	0.270
2020/01/31 17:50:08.7	358.060	0.100	-0.700	0.240
2020/01/31 17:50:08.8	358.050	0.110	-0.700	0.200
2020/01/31 17:50:08.9	358.050	0.130	-0.700	0.170
2020/01/31 17:50:09.0	358.050	0.140	-0.700	0.130
2020/01/31 17:50:09.1	358.050	0.150	-0.690	0.100
2020/01/31 17:50:09.2	358.050	0.160	-0.680	0.070
2020/01/31 17:50:09.3	358.040	0.170	-0.660	0.040
2020/01/31 17:50:09.4	358.040	0.180	-0.640	0.010
2020/01/31 17:50:09.5	358.040	0.190	-0.620	-0.020
2020/01/31 17:50:09.6	358.030	0.190	-0.590	-0.050
2020/01/31 17:50:09.7	358.020	0.200	-0.570	-0.080
2020/01/31 17:50:09.8	358.010	0.200	-0.540	-0.100
2020/01/31 17:50:09.9	358.000	0.210	-0.510	-0.120
2020/01/31 17:50:10.0	357.990	0.210	-0.470	-0.140
2020/01/31 17:50:10.1	357.970	0.210	-0.440	-0.150
2020/01/31 17:50:10.2	357.950	0.210	-0.400	-0.160
2020/01/31 17:50:10.3	357.920	0.210	-0.360	-0.170
2020/01/31 17:50:10.4	357.900	0.210	-0.320	-0.180
2020/01/31 17:50:10.5	357.870	0.200	-0.290	-0.190
2020/01/31 17:50:10.6	357.830	0.200	-0.250	-0.190
2020/01/31 17:50:10.7	357.800	0.190	-0.210	-0.190
2020/01/31 17:50:10.8	357.760	0.190	-0.180	-0.190
2020/01/31 17:50:10.9	357.720	0.180	-0.150	-0.190
2020/01/31 17:50:11.0	357.680	0.170	-0.120	-0.190
2020/01/31 17:50:11.1	357.640	0.160	-0.090	-0.180
2020/01/31 17:50:11.2	357.610	0.160	-0.070	-0.180
2020/01/31 17:50:11.3	357.570	0.150	-0.050	-0.170
2020/01/31 17:50:11.4	357.540	0.140	-0.030	-0.160
2020/01/31 17:50:11.5	357.500	0.140	-0.020	-0.160
2020/01/31 17:50:11.6	357.470	0.130	-0.020	-0.150
2020/01/31 17:50:11.7	357.450	0.130	-0.020	-0.140
2020/01/31 17:50:11.8	357.420	0.130	-0.020	-0.130
2020/01/31 17:50:11.9	357.400	0.120	-0.040	-0.120
2020/01/31 17:50:12.0	357.380	0.120	-0.050	-0.120
2020/01/31 17:50:12.1	357.370	0.130	-0.070	-0.110
2020/01/31 17:50:12.2	357.370	0.130	-0.100	-0.110
2020/01/31 17:50:12.3	357.360	0.130	-0.140	-0.100
2020/01/31 17:50:12.4	357.370	0.140	-0.180	-0.100
2020/01/31 17:50:12.5	357.370	0.150	-0.220	-0.100
2020/01/31 17:50:12.6	357.380	0.160	-0.270	-0.100
2020/01/31 17:50:12.7	357.400	0.170	-0.320	-0.110
2020/01/31 17:50:12.8	357.420	0.180	-0.370	-0.120
2020/01/31 17:50:12.9	357.440	0.190	-0.430	-0.130
2020/01/31 17:50:13.0	357.470	0.210	-0.490	-0.140
2020/01/31 17:50:13.1	357.510	0.220	-0.550	-0.160
2020/01/31 17:50:13.2	357.540	0.230	-0.610	-0.180
2020/01/31 17:50:13.3	357.580	0.250	-0.670	-0.200
2020/01/31 17:50:13.4	357.620	0.260	-0.730	-0.220
2020/01/31 17:50:13.5	357.670	0.270	-0.780	-0.250
2020/01/31 17:50:13.6	357.710	0.280	-0.830	-0.270
2020/01/31 17:50:13.7	357.760	0.290	-0.880	-0.300
2020/01/31 17:50:13.8	357.830	0.290	-0.920	-0.330
2020/01/31 17:50:13.9	357.870	0.300	-0.960	-0.360
2020/01/31 17:50:14.0	357.920	0.300	-0.990	-0.390
2020/01/31 17:50:14.1	357.970	0.290	-1.010	-0.420
2020/01/31 17:50:14.2	358.020	0.280	-1.020	-0.440
2020/01/31 17:50:14.3	358.070	0.270	-1.030	-0.470
2020/01/31 17:50:14.4	358.110	0.260	-1.030	-0.500
2020/01/31 17:50:14.5	358.160	0.240	-1.020	-0.520
2020/01/31 17:50:14.6	358.200	0.220	-1.000	-0.540
2020/01/31 17:50:14.7	358.240	0.190	-0.980	-0.560
2020/01/31 17:50:14.8	358.290	0.160	-0.950	-0.580
2020/01/31 17:50:14.9	358.330	0.130	-0.900	-0.590
2020/01/31 17:50:15.0	358.360	0.090	-0.860	-0.600
2020/01/31 17:50:15.1	358.390	0.050	-0.800	-0.610
2020/01/31 17:50:15.2	358.410	0.010	-0.740	-0.610
2020/01/31 17:50:15.3	358.430	-0.040	-0.670	-0.610
2020/01/31 17:50:15.4	358.450	-0.080	-0.590	-0.610
2020/01/31 17:50:15.5	358.460	-0.130	-0.510	-0.600
2020/01/31 17:50:15.6	358.470	-0.190	-0.420	-0.590
2020/01/31 17:50:15.7	358.470	-0.240	-0.330	-0.570
2020/01/31 17:50:15.8	358.470	-0.290	-0.240	-0.550
2020/01/31 17:50:15.9	358.460	-0.350	-0.140	-0.520
2020/01/31 17:50:16.0	358.450	-0.400	-0.040	-0.490
2020/01/31 17:50:16.1	358.440	-0.460	0.060	-0.460
2020/01/31 17:50:16.2	358.420	-0.510	0.160	-0.420
2020/01/31 17:50:16.3	358.400	-0.560	0.260	-0.380
2020/01/31 17:50:16.4	358.370	-0.610	0.350	-0.340
2020/01/31 17:50:16.5	358.340	-0.650	0.450	-0.300
2020/01/31 17:50:16.6	358.310	-0.700	0.540	-0.260
2020/01/31 17:50:16.7	358.270	-0.730	0.620	-0.210
2020/01/31 17:50:16.8	358.230	-0.770	0.700	-0.170
2020/01/31 17:50:16.9	358.190	-0.800	0.780	-0.120
2020/01/31 17:50:17.0	358.150	-0.830	0.840	-0.080
2020/01/31 17:50:17.1	358.100	-0.850	0.900	-0.030
2020/01/31 17:50:17.2	358.060	-0.860	0.950	0.010
2020/01/31 17:50:17.3	358.010	-0.870	0.990	0.060
2020/01/31 17:50:17.4	357.960	-0.870	1.020	0.100
2020/01/31 17:50:17.5	357.910	-0.870	1.040	0.140
2020/01/31 17:50:17.6	357.860	-0.860	1.050	0.180
2020/01/31 17:50:17.7	357.810	-0.850	1.050	0.220
2020/01/31 17:50:17.8	357.750	-0.820	1.040	0.260
2020/01/31 17:50:17.9	357.700	-0.800	1.020	0.290
2020/01/31 17:50:18.0	357.650	-0.760	0.980	0.330
2020/01/31 17:50:18.1	357.600	-0.720	0.940	0.350
2020/01/31 17:50:18.2	357.560	-0.680	0.890	0.380
2020/01/31 17:50:18.3	357.520	-0.630	0.820	0.410
2020/01/31 17:50:18.4	357.470	-0.570	0.750	0.430
2020/01/31 17:50:18.5	357.440	-0.510	0.670	0.450
2020/01/31 17:50:18.6	357.400	-0.450	0.590	0.460
2020/01/31 17:50:18.7	357.360	-0.380	0.490	0.480
2020/01/31 17:50:18.8	357.330	-0.310	0.390	0.480
2020/01/31 17:50:18.9	357.300	-0.230	0.290	0.490
2020/01/31 17:50:19.0	357.280	-0.160	0.180	0.490
2020/01/31 17:50:19.1	357.250	-0.080	0.070	0.490
2020/01/31 17:50:19.2	357.230	0.000	-0.040	0.480
2020/01/31 17:50:19.3	357.210	0.080	-0.160	0.470
2020/01/31 17:50:19.4	357.190	0.160	-0.270	0.450
2020/01/31 17:50:19.5	357.180	0.240	-0.390	0.430
2020/01/31 17:50:19.6	357.170	0.310	-0.500	0.410
2020/01/31 17:50:19.7	357.160	0.390	-0.600	0.380
2020/01/31 17:50:19.8	357.150	0.460	-0.700	0.350
2020/01/31 17:50:19.9	357.150	0.530	-0.800	0.320
2020/01/31 17:50:20.0	357.150	0.590	-0.890	0.290
2020/01/31 17:50:20.1	357.140	0.650	-0.980	0.260
2020/01/31 17:50:20.2	357.140	0.710	-1.050	0.220
2020/01/31 17:50:20.3	357.150	0.760	-1.120	0.190
2020/01/31 17:50:20.4	357.150	0.800	-1.190	0.150
2020/01/31 17:50:20.5	357.160	0.840	-1.240	0.120
2020/01/31 17:50:20.6	357.170	0.870	-1.280	0.080
2020/01/31 17:50:20.7	357.180	0.900	-1.320	0.050
2020/01/31 17:50:20.8	357.190	0.910	-1.340	0.010
2020/01/31 17:50:20.9	357.200	0.930	-1.360	-0.020
2020/01/31 17:50:21.0	357.220	0.930	-1.370	-0.040
2020/01/31 17:50:21.1	357.240	0.930	-1.370	-0.070
2020/01/31 17:50:21.2	357.260	0.930	-1.360	-0.100
2020/01/31 17:50:21.3	357.280	0.920	-1.340	-0.120
2020/01/31 17:50:21.4	357.310	0.900	-1.320	-0.140
2020/01/31 17:50:21.5	357.330	0.870	-1.290	-0.170
2020/01/31 17:50:21.6	357.360	0.840	-1.250	-0.190
2020/01/31 17:50:21.7	357.390	0.810	-1.200	-0.210
2020/01/31 17:50:21.8	357.420	0.770	-1.160	-0.230
2020/01/31 17:50:21.9	357.450	0.720	-1.100	-0.250
2020/01/31 17:50:22.0	357.490	0.670	-1.040	-0.270
2020/01/31 17:50:22.1	357.530	0.620	-0.980	-0.290
2020/01/31 17:50:22.2	357.570	0.570	-0.920	-0.310
2020/01/31 17:50:22.3	357.600	0.510	-0.850	-0.330
2020/01/31 17:50:22.4	357.640	0.450	-0.780	-0.350
2020/01/31 17:50:22.5	357.680	0.380	-0.710	-0.380
2020/01/31 17:50:22.6	357.720	0.320	-0.640	-0.400
2020/01/31 17:50:22.7	357.760	0.250	-0.570	-0.420
2020/01/31 17:50:22.8	357.790	0.180	-0.490	-0.450
2020/01/31 17:50:22.9	357.830	0.120	-0.420	-0.470
2020/01/31 17:50:23.0	357.860	0.050	-0.340	-0.490
2020/01/31 17:50:23.1	357.890	-0.020	-0.270	-0.510
2020/01/31 17:50:23.2	357.910	-0.090	-0.200	-0.520
2020/01/31 17:50:23.3	357.940	-0.150	-0.120	-0.540
2020/01/31 17:50:23.4	357.950	-0.220	-0.050	-0.550
2020/01/31 17:50:23.5	357.970	-0.280	0.030	-0.560
2020/01/31 17:50:23.6	357.980	-0.340	0.100	-0.560
2020/01/31 17:50:23.7	357.980	-0.390	0.180	-0.560
2020/01/31 17:50:23.8	357.980	-0.450	0.250	-0.550
2020/01/31 17:50:23.9	357.980	-0.500	0.320	-0.540
2020/01/31 17:50:24.0	357.970	-0.540	0.380	-0.520
2020/01/31 17:50:24.1	357.960	-0.580	0.450	-0.500
2020/01/31 17:50:24.2	357.950	-0.620	0.510	-0.470
2020/01/31 17:50:24.3	357.930	-0.650	0.570	-0.440
2020/01/31 17:50:24.4	357.910	-0.680	0.620	-0.410
2020/01/31 17:50:24.5	357.890	-0.710	0.670	-0.370
2020/01/31 17:50:24.6	357.870	-0.720	0.710	-0.330
2020/01/31 17:50:24.7	357.840	-0.740	0.750	-0.290
2020/01/31 17:50:24.8	357.810	-0.740	0.780	-0.250
2020/01/31 17:50:24.9	357.790	-0.750	0.800	-0.210
2020/01/31 17:50:25.0	357.760	-0.740	0.810	-0.160
2020/01/31 17:50:25.1	357.730	-0.740	0.820	-0.120
2020/01/31 17:50:25.2	357.710	-0.720	0.810	-0.080
2020/01/31 17:50:25.3	357.690	-0.700	0.800	-0.040
2020/01/31 17:50:25.4	357.660	-0.680	0.770	-0.010
2020/01/31 17:50:25.5	357.640	-0.650	0.740	0.020
2020/01/31 17:50:25.6	357.620	-0.620	0.700	0.050
2020/01/31 17:50:25.7	357.610	-0.580	0.650	0.080
2020/01/31 17:50:25.8	357.590	-0.540	0.590	0.100
2020/01/31 17:50:25.9	357.580	-0.490	0.520	0.120
2020/01/31 17:50:26.0	357.570	-0.440	0.450	0.140
2020/01/31 17:50:26.1	357.560	-0.390	0.370	0.150
2020/01/31 17:50:26.2	357.550	-0.330	0.290	0.160
2020/01/31 17:50:26.3	357.540	-0.270	0.200	0.160
2020/01/31 17:50:26.4	357.540	-0.210	0.110	0.170
2020/01/31 17:50:26.5	357.530	-0.150	0.010	0.170
2020/01/31 17:50:26.6	357.530	-0.090	-0.080	0.170
2020/01/31 17:50:26.7	357.530	-0.030	-0.180	0.170
2020/01/31 17:50:26.8	357.530	0.030	-0.280	0.170
2020/01/31 17:50:26.9	357.530	0.090	-0.370	0.170
2020/01/31 17:50:27.0	357.530	0.150	-0.460	0.170
2020/01/31 17:50:27.1	357.540	0.200	-0.550	0.170
2020/01/31 17:50:27.2	357.540	0.260	-0.640	0.170
2020/01/31 17:50:27.3	357.540	0.310	-0.720	0.170
2020/01/31 17:50:27.4	357.550	0.360	-0.790	0.170
2020/01/31 17:50:27.5	357.550	0.400	-0.850	0.180
2020/01/31 17:50:27.6	357.560	0.440	-0.910	0.180
2020/01/31 17:50:27.7	357.570	0.480	-0.960	0.190
2020/01/31 17:50:27.8	357.580	0.510	-1.010	0.190
2020/01/31 17:50:27.9	357.580	0.530	-1.040	0.200
2020/01/31 17:50:28.0	357.590	0.550	-1.060	0.210
2020/01/31 17:50:28.1	357.600	0.570	-1.070	0.220
2020/01/31 17:50:28.2	357.610	0.580	-1.070	0.230
2020/01/31 17:50:28.3	357.610	0.580	-1.070	0.240
2020/01/31 17:50:28.4	357.620	0.580	-1.050	0.250
2020/01/31 17:50:28.5	357.630	0.580	-1.030	0.260
2020/01/31 17:50:28.6	357.630	0.570	-1.000	0.270
2020/01/31 17:50:28.7	357.630	0.550	-0.950	0.280
2020/01/31 17:50:28.8	357.640	0.530	-0.910	0.280
2020/01/31 17:50:28.9	357.640	0.500	-0.850	0.290
2020/01/31 17:50:29.0	357.640	0.470	-0.790	0.300
2020/01/31 17:50:29.1	357.650	0.440	-0.730	0.300
2020/01/31 17:50:29.2	357.650	0.400	-0.660	0.300
2020/01/31 17:50:29.3	357.650	0.360	-0.590	0.300
2020/01/31 17:50:29.4	357.650	0.310	-0.520	0.290
2020/01/31 17:50:29.5	357.640	0.270	-0.450	0.280
2020/01/31 17:50:29.6	357.640	0.220	-0.370	0.270
2020/01/31 17:50:29.7	357.640	0.160	-0.300	0.260
2020/01/31 17:50:29.8	357.630	0.110	-0.230	0.240
2020/01/31 17:50:29.9	357.630	0.060	-0.160	0.220
2020/01/31 17:50:30.0	357.630	0.010	-0.100	0.200
2020/01/31 17:50:30.1	357.640	-0.040	-0.040	0.180
2020/01/31 17:50:30.2	357.640	-0.090	0.020	0.150
2020/01/31 17:50:30.3	357.650	-0.140	0.060	0.120
2020/01/31 17:50:30.4	357.660	-0.190	0.110	0.090
2020/01/31 17:50:30.5	357.670	-0.240	0.140	0.060
2020/01/31 17:50:30.6	357.690	-0.280	0.170	0.020
2020/01/31 17:50:30.7	357.710	-0.320	0.190	-0.020
2020/01/31 17:50:30.8	357.720	-0.350	0.200	-0.060
2020/01/31 17:50:30.9	357.740	-0.380	0.210	-0.110
2020/01/31 17:50:31.0	357.770	-0.410	0.200	-0.150
2020/01/31 17:50:31.1	357.800	-0.430	0.190	-0.200
2020/01/31 17:50:31.2	357.830	-0.450	0.180	-0.250
2020/01/31 17:50:31.3	357.860	-0.470	0.150	-0.290
2020/01/31 17:50:31.4	357.890	-0.480	0.120	-0.340
2020/01/31 17:50:31.5	357.920	-0.490	0.090	-0.390
2020/01/31 17:50:31.6	357.960	-0.490	0.050	-0.430
2020/01/31 17:50:31.7	357.990	-0.480	0.000	-0.480
2020/01/31 17:50:31.8	358.020	-0.480	-0.050	-0.530
2020/01/31 17:50:31.9	358.060	-0.460	-0.100	-0.570
2020/01/31 17:50:32.0	358.090	-0.450	-0.160	-0.620
2020/01/31 17:50:32.1	358.120	-0.430	-0.210	-0.660
2020/01/31 17:50:32.2	358.160	-0.400	-0.270	-0.690
2020/01/31 17:50:32.3	358.190	-0.370	-0.330	-0.730
2020/01/31 17:50:32.4	358.210	-0.340	-0.390	-0.760
2020/01/31 17:50:32.5	358.240	-0.300	-0.440	-0.790
2020/01/31 17:50:32.6	358.270	-0.260	-0.490	-0.810
2020/01/31 17:50:32.7	358.290	-0.220	-0.540	-0.830
2020/01/31 17:50:32.8	358.310	-0.180	-0.590	-0.840
2020/01/31 17:50:32.9	358.330	-0.130	-0.630	-0.850
2020/01/31 17:50:33.0	358.350	-0.080	-0.660	-0.850
2020/01/31 17:50:33.1	358.360	-0.030	-0.690	-0.840
2020/01/31 17:50:33.2	358.380	0.030	-0.720	-0.830
2020/01/31 17:50:33.3	358.380	0.080	-0.730	-0.810
2020/01/31 17:50:33.4	358.390	0.130	-0.740	-0.790
2020/01/31 17:50:33.5	358.390	0.180	-0.750	-0.760
2020/01/31 17:50:33.6	358.390	0.240	-0.750	-0.720
2020/01/31 17:50:33.7	358.390	0.290	-0.740	-0.680
2020/01/31 17:50:33.8	358.380	0.340	-0.730	-0.630
2020/01/31 17:50:33.9	358.380	0.390	-0.710	-0.590
2020/01/31 17:50:34.0	358.370	0.430	-0.690	-0.530
2020/01/31 17:50:34.1	358.360	0.470	-0.660	-0.480
2020/01/31 17:50:34.2	358.350	0.510	-0.630	-0.420
2020/01/31 17:50:34.3	358.330	0.550	-0.600	-0.370
2020/01/31 17:50:34.4	358.320	0.580	-0.560	-0.310
2020/01/31 17:50:34.5	358.300	0.610	-0.520	-0.250
2020/01/31 17:50:34.6	358.290	0.640	-0.470	-0.190
2020/01/31 17:50:34.7	358.270	0.660	-0.430	-0.140
2020/01/31 17:50:34.8	358.250	0.680	-0.380	-0.080
2020/01/31 17:50:34.9	358.240	0.690	-0.330	-0.030
2020/01/31 17:50:35.0	358.220	0.700	-0.290	0.030
2020/01/31 17:50:35.1	358.200	0.700	-0.240	0.080
2020/01/31 17:50:35.2	358.190	0.700	-0.190	0.130
2020/01/31 17:50:35.3	358.170	0.690	-0.140	0.170
2020/01/31 17:50:35.4	358.160	0.680	-0.090	0.210
2020/01/31 17:50:35.5	358.140	0.660	-0.050	0.250
2020/01/31 17:50:35.6	358.130	0.640	-0.000	0.290
2020/01/31 17:50:35.7	358.120	0.620	0.040	0.310
2020/01/31 17:50:35.8	358.110	0.590	0.080	0.340
2020/01/31 17:50:35.9	358.100	0.550	0.120	0.360
2020/01/31 17:50:36.0	358.090	0.520	0.150	0.370
2020/01/31 17:50:36.1	358.080	0.470	0.190	0.380
2020/01/31 17:50:36.2	358.070	0.430	0.220	0.390
2020/01/31 17:50:36.3	358.060	0.380	0.250	0.390
2020/01/31 17:50:36.4	358.050	0.330	0.270	0.380
2020/01/31 17:50:36.5	358.050	0.280	0.290	0.370
2020/01/31 17:50:36.6	358.040	0.220	0.310	0.350
2020/01/31 17:50:36.7	358.040	0.160	0.330	0.320
2020/01/31 17:50:36.8	358.050	0.110	0.340	0.300
2020/01/31 17:50:36.9	358.050	0.050	0.350	0.260
2020/01/31 17:50:37.0	358.050	-0.010	0.350	0.230
2020/01/31 17:50:37.1	358.050	-0.070	0.350	0.190
2020/01/31 17:50:37.2	358.060	-0.130	0.350	0.140
2020/01/31 17:50:37.3	358.070	-0.190	0.340	0.100
2020/01/31 17:50:37.4	358.080	-0.240	0.330	0.050
2020/01/31 17:50:37.5	358.090	-0.300	0.310	-0.000
2020/01/31 17:50:37.6	358.110	-0.350	0.290	-0.050
2020/01/31 17:50:37.7	358.120	-0.400	0.270	-0.100
2020/01/31 17:50:37.8	358.140	-0.450	0.250	-0.160
2020/01/31 17:50:37.9	358.160	-0.490	0.220	-0.210
2020/01/31 17:50:38.0	358.180	-0.530	0.190	-0.260
2020/01/31 17:50:38.1	358.200	-0.570	0.160	-0.310
2020/01/31 17:50:38.2	358.220	-0.600	0.120	-0.360
2020/01/31 17:50:38.3	358.240	-0.630	0.090	-0.400
2020/01/31 17:50:38.4	358.270	-0.650	0.050	-0.440
2020/01/31 17:50:38.5	358.290	-0.670	0.010	-0.470
2020/01/31 17:50:38.6	358.310	-0.690	-0.030	-0.500
2020/01/31 17:50:38.7	358.320	-0.700	-0.060	-0.530
2020/01/31 17:50:38.8	358.340	-0.710	-0.100	-0.550
2020/01/31 17:50:38.9	358.350	-0.710	-0.140	-0.570
2020/01/31 17:50:39.0	358.370	-0.710	-0.180	-0.590
2020/01/31 17:50:39.1	358.380	-0.700	-0.210	-0.590
2020/01/31 17:50:39.2	358.390	-0.690	-0.250	-0.600
2020/01/31 17:50:39.3	358.400	-0.680	-0.280	-0.600
2020/01/31 17:50:39.4	358.410	-0.660	-0.310	-0.600
2020/01/31 17:50:39.5	358.420	-0.640	-0.340	-0.590
2020/01/31 17:50:39.6	358.420	-0.610	-0.370	-0.580
2020/01/31 17:50:39.7	358.430	-0.580	-0.390	-0.560
2020/01/31 17:50:39.8	358.420	-0.550	-0.410	-0.550
2020/01/31 17:50:39.9	358.420	-0.520	-0.440	-0.520
2020/01/31 17:50:40.0	358.430	-0.480	-0.460	-0.500
2020/01/31 17:50:40.1	358.430	-0.440	-0.470	-0.470
2020/01/31 17:50:40.2	358.430	-0.400	-0.490	-0.440
2020/01/31 17:50:40.3	358.420	-0.360	-0.500	-0.410
2020/01/31 17:50:40.4	358.420	-0.310	-0.520	-0.380
2020/01/31 17:50:40.5	358.420	-0.270	-0.530	-0.340
2020/01/31 17:50:40.6	358.420	-0.220	-0.540	-0.300
2020/01/31 17:50:40.7	358.410	-0.170	-0.550	-0.260
2020/01/31 17:50:40.8	358.410	-0.130	-0.560	-0.220
2020/01/31 17:50:40.9	358.400	-0.080	-0.570	-0.180
2020/01/31 17:50:41.0	358.400	-0.040	-0.570	-0.140
2020/01/31 17:50:41.1	358.400	0.010	-0.580	-0.100
2020/01/31 17:50:41.2	358.400	0.050	-0.580	-0.060
2020/01/31 17:50:41.3	358.400	0.090	-0.580	-0.020
2020/01/31 17:50:41.4	358.400	0.130	-0.590	0.020
2020/01/31 17:50:41.5	358.400	0.170	-0.590	0.050
2020/01/31 17:50:41.6	358.410	0.200	-0.600	0.080
2020/01/31 17:50:41.7	358.420	0.230	-0.600	0.110
2020/01/31 17:50:41.8	358.440	0.260	-0.600	0.130
2020/01/31 17:50:41.9	358.450	0.280	-0.610	0.160
2020/01/31 17:50:42.0	358.470	0.310	-0.610	0.170
2020/01/31 17:50:42.1	358.490	0.320	-0.610	0.190
2020/01/31 17:50:42.2	358.510	0.340	-0.620	0.200
2020/01/31 17:50:42.3	358.530	0.350	-0.620	0.200
2020/01/31 17:50:42.4	358.560	0.360	-0.620	0.200
2020/01/31 17:50:42.5	358.590	0.360	-0.620	0.200
2020/01/31 17:50:42.6	358.620	0.360	-0.620	0.190
2020/01/31 17:50:42.7	358.650	0.360	-0.620	0.180
2020/01/31 17:50:42.8	358.690	0.350	-0.620	0.160
2020/01/31 17:50:42.9	358.720	0.340	-0.620	0.140
2020/01/31 17:50:43.0	358.750	0.330	-0.610	0.120
2020/01/31 17:50:43.1	358.790	0.320	-0.610	0.100
2020/01/31 17:50:43.2	358.820	0.300	-0.600	0.070
2020/01/31 17:50:43.3	358.850	0.270	-0.590	0.050
2020/01/31 17:50:43.4	358.880	0.250	-0.570	0.020
2020/01/31 17:50:43.5	358.900	0.220	-0.550	-0.010
2020/01/31 17:50:43.6	358.930	0.190	-0.530	-0.030
2020/01/31 17:50:43.7	358.950	0.160	-0.510	-0.060
2020/01/31 17:50:43.8	358.960	0.130	-0.490	-0.090
2020/01/31 17:50:43.9	358.980	0.090	-0.460	-0.110
2020/01/31 17:50:44.0	358.990	0.060	-0.430	-0.140
2020/01/31 17:50:44.1	359.010	0.030	-0.390	-0.160
2020/01/31 17:50:44.2	359.020	-0.010	-0.360	-0.180
2020/01/31 17:50:44.3	359.030	-0.040	-0.320	-0.200
2020/01/31 17:50:44.4	359.030	-0.080	-0.280	-0.210
2020/01/31 17:50:44.5	359.030	-0.110	-0.240	-0.230
2020/01/31 17:50:44.6	359.030	-0.140	-0.200	-0.240
2020/01/31 17:50:44.7	359.030	-0.170	-0.150	-0.250
2020/01/31 17:50:44.8	359.020	-0.190	-0.110	-0.260
2020/01/31 17:50:44.9	359.010	-0.210	-0.070	-0.260
2020/01/31 17:50:45.0	359.000	-0.230	-0.030	-0.270
2020/01/31 17:50:45.1	358.990	-0.250	0.010	-0.270
2020/01/31 17:50:45.2	358.980	-0.260	0.050	-0.270
2020/01/31 17:50:45.3	358.960	-0.270	0.080	-0.260
2020/01/31 17:50:45.4	358.940	-0.280	0.120	-0.250
2020/01/31 17:50:45.5	358.920	-0.280	0.150	-0.240
2020/01/31 17:50:45.6	358.900	-0.270	0.180	-0.230
2020/01/31 17:50:45.7	358.880	-0.270	0.200	-0.210
2020/01/31 17:50:45.8	358.850	-0.250	0.220	-0.190
2020/01/31 17:50:45.9	358.820	-0.240	0.240	-0.170
2020/01/31 17:50:46.0	358.790	-0.220	0.250	-0.140
2020/01/31 17:50:46.1	358.750	-0.190	0.260	-0.110
2020/01/31 17:50:46.2	358.720	-0.160	0.270	-0.080
2020/01/31 17:50:46.3	358.680	-0.130	0.270	-0.040
2020/01/31 17:50:46.4	358.640	-0.090	0.260	0.000
2020/01/31 17:50:46.5	358.600	-0.050	0.250	0.050
2020/01/31 17:50:46.6	358.560	-0.010	0.240	0.090
2020/01/31 17:50:46.7	358.520	0.040	0.220	0.140
2020/01/31 17:50:46.8	358.470	0.090	0.200	0.190
2020/01/31 17:50:46.9	358.430	0.140	0.170	0.240
2020/01/31 17:50:47.0	358.390	0.190	0.140	0.280
2020/01/31 17:50:47.1	358.350	0.240	0.110	0.330
2020/01/31 17:50:47.2	358.300	0.290	0.070	0.380
2020/01/31 17:50:47.3	358.270	0.350	0.030	0.420
2020/01/31 17:50:47.4	358.230	0.400	-0.010	0.470
2020/01/31 17:50:47.5	358.190	0.450	-0.060	0.510
2020/01/31 17:50:47.6	358.160	0.500	-0.100	0.540
2020/01/31 17:50:47.7	358.130	0.550	-0.150	0.580
2020/01/31 17:50:47.8	358.100	0.590	-0.200	0.610
2020/01/31 17:50:47.9	358.070	0.630	-0.250	0.630
2020/01/31 17:50:48.0	358.050	0.670	-0.300	0.650
2020/01/31 17:50:48.1	358.030	0.700	-0.350	0.670
2020/01/31 17:50:48.2	358.010	0.730	-0.400	0.680
2020/01/31 17:50:48.3	357.990	0.750	-0.440	0.690
2020/01/31 17:50:48.4	357.980	0.770	-0.490	0.690
2020/01/31 17:50:48.5	357.970	0.790	-0.530	0.680
2020/01/31 17:50:48.6	357.970	0.790	-0.560	0.670
2020/01/31 17:50:48.7	357.970	0.800	-0.600	0.650
2020/01/31 17:50:48.8	357.970	0.790	-0.620	0.630
2020/01/31 17:50:48.9	357.980	0.780	-0.650	0.600
2020/01/31 17:50:49.0	357.990	0.770	-0.670	0.580
2020/01/31 17:50:49.1	358.000	0.750	-0.680	0.540
2020/01/31 17:50:49.2	358.010	0.720	-0.690	0.510
2020/01/31 17:50:49.3	358.030	0.690	-0.690	0.470
2020/01/31 17:50:49.4	358.050	0.650	-0.690	0.430
2020/01/31 17:50:49.5	358.070	0.610	-0.680	0.380
2020/01/31 17:50:49.6	358.100	0.570	-0.670	0.340
2020/01/31 17:50:49.7	358.130	0.520	-0.660	0.300
2020/01/31 17:50:49.8	358.160	0.460	-0.640	0.250
2020/01/31 17:50:49.9	358.190	0.400	-0.620	0.200
2020/01/31 17:50:50.0	358.220	0.340	-0.590	0.160
2020/01/31 17:50:50.1	358.260	0.280	-0.560	0.110
2020/01/31 17:50:50.2	358.300	0.210	-0.520	0.070
2020/01/31 17:50:50.3	358.330	0.140	-0.480	0.030
2020/01/31 17:50:50.4	358.370	0.070	-0.440	-0.010
2020/01/31 17:50:50.5	358.400	-0.000	-0.400	-0.050
2020/01/31 17:50:50.6	358.430	-0.070	-0.350	-0.080
2020/01/31 17:50:50.7	358.460	-0.150	-0.310	-0.120
2020/01/31 17:50:50.8	358.490	-0.220	-0.250	-0.150
2020/01/31 17:50:50.9	358.520	-0.290	-0.210	-0.180
2020/01/31 17:50:51.0	358.540	-0.360	-0.160	-0.200
2020/01/31 17:50:51.1	358.550	-0.430	-0.120	-0.230
2020/01/31 17:50:51.2	358.570	-0.490	-0.070	-0.250
2020/01/31 17:50:51.3	358.580	-0.560	-0.030	-0.280
2020/01/31 17:50:51.4	358.590	-0.610	0.000	-0.300
2020/01/31 17:50:51.5	358.600	-0.670	0.040	-0.320
2020/01/31 17:50:51.6	358.610	-0.720	0.070	-0.340
2020/01/31 17:50:51.7	358.610	-0.760	0.090	-0.360
2020/01/31 17:50:51.8	358.610	-0.800	0.110	-0.390
2020/01/31 17:50:51.9	358.610	-0.840	0.130	-0.400
2020/01/31 17:50:52.0	358.610	-0.870	0.140	-0.420
2020/01/31 17:50:52.1	358.610	-0.890	0.150	-0.440
2020/01/31 17:50:52.2	358.610	-0.910	0.150	-0.460
2020/01/31 17:50:52.3	358.610	-0.920	0.150	-0.470
2020/01/31 17:50:52.4	358.610	-0.920	0.140	-0.490
2020/01/31 17:50:52.5	358.610	-0.920	0.120	-0.500
2020/01/31 17:50:52.6	358.610	-0.910	0.100	-0.510
2020/01/31 17:50:52.7	358.610	-0.890	0.080	-0.520
2020/01/31 17:50:52.8	358.620	-0.870	0.050	-0.540
2020/01/31 17:50:52.9	358.620	-0.850	0.020	-0.540
2020/01/31 17:50:53.0	358.630	-0.810	-0.020	-0.550
2020/01/31 17:50:53.1	358.630	-0.780	-0.050	-0.550
2020/01/31 17:50:53.2	358.640	-0.740	-0.090	-0.550
2020/01/31 17:50:53.3	358.640	-0.690	-0.130	-0.550
2020/01/31 17:50:53.4	358.650	-0.640	-0.180	-0.540
2020/01/31 17:50:53.5	358.660	-0.590	-0.220	-0.540
2020/01/31 17:50:53.6	358.660	-0.530	-0.260	-0.520
2020/01/31 17:50:53.7	358.670	-0.470	-0.290	-0.510
2020/01/31 17:50:53.8	358.680	-0.420	-0.330	-0.500
2020/01/31 17:50:53.9	358.680	-0.360	-0.360	-0.480
2020/01/31 17:50:54.0	358.690	-0.300	-0.380	-0.450
2020/01/31 17:50:54.1	358.690	-0.240	-0.410	-0.430
2020/01/31 17:50:54.2	358.700	-0.180	-0.430	-0.400
2020/01/31 17:50:54.3	358.700	-0.120	-0.440	-0.370
2020/01/31 17:50:54.4	358.700	-0.070	-0.450	-0.340
2020/01/31 17:50:54.5	358.700	-0.010	-0.450	-0.310
2020/01/31 17:50:54.6	358.700	0.030	-0.450	-0.280
2020/01/31 17:50:54.7	358.690	0.080	-0.440	-0.240
2020/01/31 17:50:54.8	358.680	0.120	-0.420	-0.210
2020/01/31 17:50:54.9	358.670	0.160	-0.400	-0.170
2020/01/31 17:50:55.0	358.660	0.200	-0.380	-0.130
2020/01/31 17:50:55.1	358.650	0.230	-0.350	-0.090
2020/01/31 17:50:55.2	358.630	0.250	-0.320	-0.050
2020/01/31 17:50:55.3	358.620	0.270	-0.280	-0.010
2020/01/31 17:50:55.4	358.600	0.290	-0.240	0.030
2020/01/31 17:50:55.5	358.580	0.300	-0.200	0.080
2020/01/31 17:50:55.6	358.550	0.310	-0.160	0.120
2020/01/31 17:50:55.7	358.530	0.310	-0.120	0.160
2020/01/31 17:50:55.8	358.480	0.310	-0.070	0.210
2020/01/31 17:50:55.9	358.450	0.310	-0.030	0.250
2020/01/31 17:50:56.0	358.420	0.300	0.010	0.300
2020/01/31 17:50:56.1	358.390	0.290	0.050	0.340
2020/01/31 17:50:56.2	358.350	0.280	0.080	0.380
2020/01/31 17:50:56.3	358.310	0.260	0.120	0.430
2020/01/31 17:50:56.4	358.270	0.240	0.150	0.470
2020/01/31 17:50:56.5	358.240	0.220	0.170	0.510
2020/01/31 17:50:56.6	358.200	0.200	0.190	0.550
2020/01/31 17:50:56.7	358.160	0.180	0.210	0.590
2020/01/31 17:50:56.8	358.100	0.160	0.220	0.630
2020/01/31 17:50:56.9	358.060	0.140	0.220	0.660
2020/01/31 17:50:57.0	358.030	0.120	0.220	0.690
2020/01/31 17:50:57.1	357.990	0.100	0.210	0.710
2020/01/31 17:50:57.2	357.960	0.090	0.200	0.730
2020/01/31 17:50:57.3	357.930	0.070	0.180	0.750
2020/01/31 17:50:57.4	357.910	0.060	0.150	0.760
2020/01/31 17:50:57.5	357.880	0.050	0.120	0.770
2020/01/31 17:50:57.6	357.860	0.040	0.080	0.770
2020/01/31 17:50:57.7	357.850	0.040	0.030	0.760
2020/01/31 17:50:57.8	357.840	0.040	-0.020	0.750
2020/01/31 17:50:57.9	357.830	0.050	-0.080	0.730
2020/01/31 17:50:58.0	357.830	0.060	-0.140	0.700
2020/01/31 17:50:58.1	357.830	0.070	-0.210	0.670
2020/01/31 17:50:58.2	357.840	0.080	-0.280	0.640
2020/01/31 17:50:58.3	357.850	0.100	-0.360	0.600
2020/01/31 17:50:58.4	357.860	0.130	-0.430	0.560
2020/01/31 17:50:58.5	357.880	0.150	-0.510	0.520
2020/01/31 17:50:58.6	357.890	0.180	-0.590	0.470
2020/01/31 17:50:58.7	357.910	0.210	-0.670	0.420
2020/01/31 17:50:58.8	357.930	0.240	-0.740	0.380
2020/01/31 17:50:58.9	357.950	0.270	-0.810	0.330
2020/01/31 17:50:59.0	357.970	0.300	-0.880	0.280
2020/01/31 17:50:59.1	357.990	0.340	-0.940	0.230
2020/01/31 17:50:59.2	358.010	0.370	-1.000	0.190
2020/01/31 17:50:59.3	358.030	0.400	-1.050	0.150
2020/01/31 17:50:59.4	358.050	0.430	-1.090	0.100
2020/01/31 17:50:59.5	358.060	0.450	-1.120	0.060
2020/01/31 17:50:59.6	358.080	0.480	-1.140	0.030
2020/01/31 17:50:59.7	358.090	0.500	-1.160	-0.010
2020/01/31 17:50:59.8	358.110	0.510	-1.170	-0.040
2020/01/31 17:50:59.9	358.120	0.530	-1.160	-0.070
2020/01/31 17:51:00.0	358.130	0.540	-1.150	-0.100
2020/01/31 17:51:00.1	358.130	0.540	-1.130	-0.120
2020/01/31 17:51:00.2	358.140	0.540	-1.100	-0.150
2020/01/31 17:51:00.3	358.140	0.540	-1.060	-0.160
2020/01/31 17:51:00.4	358.140	0.530	-1.010	-0.180
2020/01/31 17:51:00.5	358.140	0.520	-0.960	-0.200
2020/01/31 17:51:00.6	358.140	0.500	-0.890	-0.210
2020/01/31 17:51:00.7	358.130	0.480	-0.820	-0.220
2020/01/31 17:51:00.8	358.120	0.450	-0.750	-0.230
2020/01/31 17:51:00.9	358.120	0.420	-0.670	-0.230
2020/01/31 17:51:01.0	358.110	0.390	-0.590	-0.240
2020/01/31 17:51:01.1	358.100	0.350	-0.510	-0.240
2020/01/31 17:51:01.2	358.090	0.310	-0.420	-0.240
2020/01/31 17:51:01.3	358.080	0.260	-0.340	-0.250
2020/01/31 17:51:01.4	358.070	0.220	-0.250	-0.250
2020/01/31 17:51:01.5	358.060	0.170	-0.170	-0.250
2020/01/31 17:51:01.6	358.050	0.120	-0.090	-0.250
2020/01/31 17:51:01.7	358.040	0.070	-0.020	-0.250
2020/01/31 17:51:01.8	358.030	0.030	0.050	-0.250
2020/01/31 17:51:01.9	358.030	-0.020	0.110	-0.250
2020/01/31 17:51:02.0	358.030	-0.070	0.170	-0.260
2020/01/31 17:51:02.1	358.020	-0.110	0.220	-0.260
2020/01/31 17:51:02.2	358.030	-0.160	0.260	-0.260
2020/01/31 17:51:02.3	358.030	-0.200	0.290	-0.270
2020/01/31 17:51:02.4	358.030	-0.240	0.320	-0.270
2020/01/31 17:51:02.5	358.040	-0.270	0.330	-0.280
2020/01/31 17:51:02.6	358.050	-0.300	0.340	-0.290
2020/01/31 17:51:02.7	358.060	-0.330	0.340	-0.300
2020/01/31 17:51:02.8	358.070	-0.350	0.330	-0.310
2020/01/31 17:51:02.9	358.080	-0.370	0.310	-0.320
2020/01/31 17:51:03.0	358.100	-0.390	0.290	-0.330
2020/01/31 17:51:03.1	358.110	-0.400	0.260	-0.340
2020/01/31 17:51:03.2	358.130	-0.410	0.220	-0.350
2020/01/31 17:51:03.3	358.150	-0.410	0.180	-0.360
2020/01/31 17:51:03.4	358.170	-0.410	0.140	-0.380
2020/01/31 17:51:03.5	358.200	-0.410	0.090	-0.390
2020/01/31 17:51:03.6	358.220	-0.400	0.040	-0.400
2020/01/31 17:51:03.7	358.240	-0.390	-0.010	-0.420
2020/01/31 17:51:03.8	358.270	-0.370	-0.050	-0.430
2020/01/31 17:51:03.9	358.290	-0.360	-0.100	-0.440
2020/01/31 17:51:04.0	358.320	-0.340	-0.140	-0.450
2020/01/31 17:51:04.1	358.340	-0.320	-0.180	-0.460
2020/01/31 17:51:04.2	358.360	-0.300	-0.220	-0.470
2020/01/31 17:51:04.3	358.380	-0.280	-0.250	-0.480
2020/01/31 17:51:04.4	358.400	-0.260	-0.280	-0.480
2020/01/31 17:51:04.5	358.420	-0.240	-0.300	-0.480
2020/01/31 17:51:04.6	358.430	-0.220	-0.320	-0.470
2020/01/31 17:51:04.7	358.440	-0.200	-0.330	-0.470
2020/01/31 17:51:04.8	358.450	-0.180	-0.330	-0.460
2020/01/31 17:51:04.9	358.460	-0.160	-0.330	-0.450
2020/01/31 17:51:05.0	358.460	-0.140	-0.320	-0.430
2020/01/31 17:51:05.1	358.460	-0.130	-0.310	-0.410
2020/01/31 17:51:05.2	358.460	-0.120	-0.290	-0.390
2020/01/31 17:51:05.3	358.450	-0.110	-0.260	-0.360
2020/01/31 17:51:05.4	358.440	-0.110	-0.230	-0.330
2020/01/31 17:51:05.5	358.430	-0.100	-0.190	-0.300
2020/01/31 17:51:05.6	358.420	-0.100	-0.150	-0.260
2020/01/31 17:51:05.7	358.400	-0.110	-0.110	-0.230
2020/01/31 17:51:05.8	358.380	-0.110	-0.070	-0.190
2020/01/31 17:51:05.9	358.350	-0.120	-0.020	-0.150
2020/01/31 17:51:06.0	358.330	-0.130	0.030	-0.110
2020/01/31 17:51:06.1	358.300	-0.140	0.080	-0.070
2020/01/31 17:51:06.2	358.260	-0.160	0.130	-0.020
2020/01/31 17:51:06.3	358.230	-0.170	0.180	0.020
2020/01/31 17:51:06.4	358.200	-0.190	0.230	0.060
2020/01/31 17:51:06.5	358.160	-0.210	0.280	0.110
2020/01/31 17:51:06.6	358.120	-0.220	0.330	0.150
2020/01/31 17:51:06.7	358.080	-0.240	0.370	0.190
2020/01/31 17:51:06.8	358.040	-0.260	0.410	0.230
2020/01/31 17:51:06.9	358.000	-0.270	0.440	0.280
2020/01/31 17:51:07.0	357.950	-0.290	0.470	0.320
2020/01/31 17:51:07.1	357.910	-0.300	0.500	0.360
2020/01/31 17:51:07.2	357.860	-0.320	0.520	0.400
2020/01/31 17:51:07.3	357.820	-0.330	0.530	0.430
2020/01/31 17:51:07.4	357.770	-0.330	0.540	0.470
2020/01/31 17:51:07.5	357.720	-0.340	0.530	0.500
2020/01/31 17:51:07.6	357.670	-0.340	0.530	0.540
2020/01/31 17:51:07.7	357.620	-0.340	0.510	0.560
2020/01/31 17:51:07.8	357.570	-0.330	0.490	0.590
2020/01/31 17:51:07.9	357.520	-0.320	0.460	0.620
2020/01/31 17:51:08.0	357.470	-0.310	0.420	0.640
2020/01/31 17:51:08.1	357.420	-0.290	0.380	0.660
2020/01/31 17:51:08.2	357.370	-0.270	0.320	0.670
2020/01/31 17:51:08.3	357.320	-0.240	0.260	0.680
2020/01/31 17:51:08.4	357.270	-0.210	0.190	0.690
2020/01/31 17:51:08.5	357.230	-0.180	0.120	0.690
2020/01/31 17:51:08.6	357.190	-0.140	0.040	0.690
2020/01/31 17:51:08.7	357.150	-0.100	-0.050	0.690
2020/01/31 17:51:08.8	357.110	-0.060	-0.140	0.670
2020/01/31 17:51:08.9	357.080	-0.010	-0.240	0.660
2020/01/31 17:51:09.0	357.050	0.030	-0.340	0.630
2020/01/31 17:51:09.1	357.030	0.080	-0.450	0.610
2020/01/31 17:51:09.2	357.010	0.130	-0.550	0.580
2020/01/31 17:51:09.3	356.990	0.180	-0.660	0.540
2020/01/31 17:51:09.4	356.980	0.240	-0.770	0.500
2020/01/31 17:51:09.5	356.980	0.290	-0.880	0.460
2020/01/31 17:51:09.6	356.970	0.340	-0.990	0.410
2020/01/31 17:51:09.7	356.980	0.390	-1.090	0.360
2020/01/31 17:51:09.8	356.990	0.440	-1.190	0.300
2020/01/31 17:51:09.9	357.000	0.490	-1.290	0.240
2020/01/31 17:51:10.0	357.020	0.530	-1.390	0.180
2020/01/31 17:51:10.1	357.050	0.580	-1.470	0.110
2020/01/31 17:51:10.2	357.080	0.620	-1.560	0.050
2020/01/31 17:51:10.3	357.110	0.650	-1.630	-0.020
2020/01/31 17:51:10.4	357.150	0.680	-1.690	-0.090
2020/01/31 17:51:10.5	357.200	0.710	-1.750	-0.160
2020/01/31 17:51:10.6	357.250	0.740	-1.800	-0.230
2020/01/31 17:51:10.7	357.300	0.760	-1.840	-0.300
2020/01/31 17:51:10.8	357.350	0.770	-1.860	-0.380
2020/01/31 17:51:10.9	357.410	0.790	-1.880	-0.450
2020/01/31 17:51:11.0	357.470	0.790	-1.880	-0.510
2020/01/31 17:51:11.1	357.540	0.790	-1.880	-0.580
2020/01/31 17:51:11.2	357.610	0.790	-1.860	-0.640
2020/01/31 17:51:11.3	357.680	0.780	-1.830	-0.700
2020/01/31 17:51:11.4	357.740	0.770	-1.790	-0.750
2020/01/31 17:51:11.5	357.810	0.750	-1.730	-0.800
2020/01/31 17:51:11.6	357.880	0.720	-1.670	-0.840
2020/01/31 17:51:11.7	357.950	0.700	-1.590	-0.880
2020/01/31 17:51:11.8	358.020	0.660	-1.500	-0.910
2020/01/31 17:51:11.9	358.090	0.630	-1.400	-0.940
2020/01/31 17:51:12.0	358.150	0.580	-1.290	-0.950
2020/01/31 17:51:12.1	358.200	0.540	-1.170	-0.960
2020/01/31 17:51:12.2	358.260	0.490	-1.050	-0.960
2020/01/31 17:51:12.3	358.300	0.440	-0.910	-0.950
2020/01/31 17:51:12.4	358.340	0.380	-0.770	-0.940
2020/01/31 17:51:12.5	358.380	0.330	-0.620	-0.920
2020/01/31 17:51:12.6	358.410	0.270	-0.470	-0.890
2020/01/31 17:51:12.7	358.430	0.200	-0.310	-0.860
2020/01/31 17:51:12.8	358.450	0.140	-0.160	-0.810
2020/01/31 17:51:12.9	358.460	0.080	-0.000	-0.770
2020/01/31 17:51:13.0	358.470	0.010	0.150	-0.720
2020/01/31 17:51:13.1	358.470	-0.050	0.300	-0.670
2020/01/31 17:51:13.2	358.470	-0.120	0.450	-0.620
2020/01/31 17:51:13.3	358.470	-0.180	0.590	-0.560
2020/01/31 17:51:13.4	358.460	-0.240	0.720	-0.500
2020/01/31 17:51:13.5	358.440	-0.300	0.850	-0.440
2020/01/31 17:51:13.6	358.420	-0.360	0.970	-0.380
2020/01/31 17:51:13.7	358.400	-0.410	1.080	-0.320
2020/01/31 17:51:13.8	358.370	-0.460	1.170	-0.260
2020/01/31 17:51:13.9	358.350	-0.510	1.260	-0.200
2020/01/31 17:51:14.0	358.320	-0.550	1.340	-0.150
2020/01/31 17:51:14.1	358.290	-0.590	1.400	-0.090
2020/01/31 17:51:14.2	358.250	-0.630	1.450	-0.040
2020/01/31 17:51:14.3	358.210	-0.660	1.490	0.010
2020/01/31 17:51:14.4	358.180	-0.680	1.510	0.050
2020/01/31 17:51:14.5	358.140	-0.710	1.530	0.100
2020/01/31 17:51:14.6	358.090	-0.720	1.530	0.140
2020/01/31 17:51:14.7	358.050	-0.730	1.520	0.180
2020/01/31 17:51:14.8	358.010	-0.740	1.490	0.210
2020/01/31 17:51:14.9	357.960	-0.750	1.460	0.250
2020/01/31 17:51:15.0	357.910	-0.740	1.420	0.280
2020/01/31 17:51:15.1	357.860	-0.740	1.360	0.310
2020/01/31 17:51:15.2	357.810	-0.730	1.300	0.340
2020/01/31 17:51:15.3	357.760	-0.720	1.230	0.360
2020/01/31 17:51:15.4	357.700	-0.700	1.160	0.390
2020/01/31 17:51:15.5	357.650	-0.680	1.080	0.410
2020/01/31 17:51:15.6	357.590	-0.660	0.990	0.420
2020/01/31 17:51:15.7	357.540	-0.630	0.900	0.440
2020/01/31 17:51:15.8	357.490	-0.600	0.800	0.450
2020/01/31 17:51:15.9	357.430	-0.570	0.700	0.460
2020/01/31 17:51:16.0	357.370	-0.540	0.600	0.470
2020/01/31 17:51:16.1	357.320	-0.510	0.500	0.480
2020/01/31 17:51:16.2	357.260	-0.470	0.400	0.480
2020/01/31 17:51:16.3	357.210	-0.440	0.300	0.480
2020/01/31 17:51:16.4	357.160	-0.400	0.200	0.480
2020/01/31 17:51:16.5	357.110	-0.360	0.100	0.480
2020/01/31 17:51:16.6	357.060	-0.330	0.000	0.480
2020/01/31 17:51:16.7	357.010	-0.290	-0.090	0.470
2020/01/31 17:51:16.8	356.960	-0.250	-0.180	0.460
2020/01/31 17:51:16.9	356.920	-0.220	-0.260	0.440
2020/01/31 17:51:17.0	356.890	-0.180	-0.350	0.430
2020/01/31 17:51:17.1	356.850	-0.150	-0.430	0.410
2020/01/31 17:51:17.2	356.820	-0.110	-0.500	0.390
2020/01/31 17:51:17.3	356.790	-0.080	-0.570	0.370
2020/01/31 17:51:17.4	356.770	-0.050	-0.640	0.350
2020/01/31 17:51:17.5	356.750	-0.020	-0.700	0.320
2020/01/31 17:51:17.6	356.740	0.010	-0.760	0.290
2020/01/31 17:51:17.7	356.730	0.040	-0.820	0.250
2020/01/31 17:51:17.8	356.720	0.070	-0.870	0.210
2020/01/31 17:51:17.9	356.730	0.100	-0.930	0.170
2020/01/31 17:51:18.0	356.730	0.120	-0.970	0.130
2020/01/31 17:51:18.1	356.740	0.140	-1.020	0.090
2020/01/31 17:51:18.2	356.760	0.170	-1.060	0.040
2020/01/31 17:51:18.3	356.780	0.190	-1.100	-0.010
2020/01/31 17:51:18.4	356.810	0.210	-1.140	-0.060
2020/01/31 17:51:18.5	356.830	0.230	-1.180	-0.110
2020/01/31 17:51:18.6	356.870	0.240	-1.210	-0.160
2020/01/31 17:51:18.7	356.900	0.260	-1.240	-0.210
2020/01/31 17:51:18.8	356.930	0.270	-1.270	-0.270
2020/01/31 17:51:18.9	356.970	0.280	-1.300	-0.310
2020/01/31 17:51:19.0	357.010	0.290	-1.320	-0.360
2020/01/31 17:51:19.1	357.050	0.300	-1.340	-0.410
2020/01/31 17:51:19.2	357.100	0.310	-1.350	-0.460
2020/01/31 17:51:19.3	357.140	0.310	-1.360	-0.510
2020/01/31 17:51:19.4	357.190	0.320	-1.370	-0.550
2020/01/31 17:51:19.5	357.240	0.320	-1.370	-0.600
2020/01/31 17:51:19.6	357.290	0.320	-1.370	-0.650
2020/01/31 17:51:19.7	357.340	0.320	-1.360	-0.690
2020/01/31 17:51:19.8	357.380	0.310	-1.350	-0.730
2020/01/31 17:51:19.9	357.430	0.310	-1.340	-0.770
2020/01/31 17:51:20.0	357.480	0.300	-1.320	-0.810
2020/01/31 17:51:20.1	357.530	0.290	-1.300	-0.850
2020/01/31 17:51:20.2	357.580	0.280	-1.270	-0.890
2020/01/31 17:51:20.3	357.630	0.270	-1.250	-0.920
2020/01/31 17:51:20.4	357.680	0.260	-1.210	-0.950
2020/01/31 17:51:20.5	357.730	0.250	-1.180	-0.980
2020/01/31 17:51:20.6	357.780	0.230	-1.140	-1.000
2020/01/31 17:51:20.7	357.820	0.220	-1.100	-1.020
2020/01/31 17:51:20.8	357.880	0.210	-1.060	-1.040
2020/01/31 17:51:20.9	357.920	0.200	-1.020	-1.050
2020/01/31 17:51:21.0	357.970	0.190	-0.970	-1.060
2020/01/31 17:51:21.1	358.010	0.170	-0.920	-1.060
2020/01/31 17:51:21.2	358.050	0.160	-0.870	-1.060
2020/01/31 17:51:21.3	358.090	0.150	-0.810	-1.050
2020/01/31 17:51:21.4	358.120	0.140	-0.750	-1.030
2020/01/31 17:51:21.5	358.150	0.130	-0.690	-1.010
2020/01/31 17:51:21.6	358.180	0.120	-0.630	-0.980
2020/01/31 17:51:21.7	358.200	0.120	-0.570	-0.950
2020/01/31 17:51:21.8	358.230	0.110	-0.500	-0.910
2020/01/31 17:51:21.9	358.240	0.100	-0.430	-0.860
2020/01/31 17:51:22.0	358.240	0.090	-0.360	-0.810
2020/01/31 17:51:22.1	358.240	0.090	-0.290	-0.750
2020/01/31 17:51:22.2	358.240	0.080	-0.210	-0.690
2020/01/31 17:51:22.3	358.230	0.080	-0.140	-0.620
2020/01/31 17:51:22.4	358.210	0.080	-0.060	-0.550
2020/01/31 17:51:22.5	358.190	0.070	0.020	-0.480
2020/01/31 17:51:22.6	358.160	0.070	0.090	-0.400
2020/01/31 17:51:22.7	358.130	0.070	0.170	-0.320
2020/01/31 17:51:22.8	358.100	0.070	0.250	-0.240
2020/01/31 17:51:22.9	358.060	0.060	0.330	-0.160
2020/01/31 17:51:23.0	358.020	0.060	0.400	-0.070
2020/01/31 17:51:23.1	357.970	0.060	0.480	0.010
2020/01/31 17:51:23.2	357.930	0.060	0.550	0.090
2020/01/31 17:51:23.3	357.870	0.060	0.630	0.170
2020/01/31 17:51:23.4	357.820	0.060	0.690	0.250
2020/01/31 17:51:23.5	357.770	0.050	0.760	0.330
2020/01/31 17:51:23.6	357.720	0.050	0.810	0.400
2020/01/31 17:51:23.7	357.660	0.050	0.870	0.470
2020/01/31 17:51:23.8	357.610	0.040	0.910	0.530
2020/01/31 17:51:23.9	357.560	0.040	0.950	0.590
2020/01/31 17:51:24.0	357.510	0.040	0.990	0.650
2020/01/31 17:51:24.1	357.470	0.030	1.010	0.700
2020/01/31 17:51:24.2	357.420	0.030	1.030	0.740
2020/01/31 17:51:24.3	357.380	0.030	1.040	0.780
2020/01/31 17:51:24.4	357.340	0.020	1.040	0.820
2020/01/31 17:51:24.5	357.300	0.020	1.030	0.850
2020/01/31 17:51:24.6	357.270	0.010	1.010	0.870
2020/01/31 17:51:24.7	357.240	0.010	0.990	0.890
2020/01/31 17:51:24.8	357.210	0.000	0.950	0.900
2020/01/31 17:51:24.9	357.180	0.000	0.910	0.910
2020/01/31 17:51:25.0	357.160	-0.000	0.870	0.910
2020/01/31 17:51:25.1	357.140	-0.010	0.810	0.910
2020/01/31 17:51:25.2	357.120	-0.010	0.750	0.900
2020/01/31 17:51:25.3	357.110	-0.010	0.680	0.890
2020/01/31 17:51:25.4	357.100	-0.020	0.600	0.880
2020/01/31 17:51:25.5	357.100	-0.020	0.530	0.850
2020/01/31 17:51:25.6	357.090	-0.020	0.440	0.830
2020/01/31 17:51:25.7	357.100	-0.020	0.350	0.800
2020/01/31 17:51:25.8	357.100	-0.030	0.270	0.750
2020/01/31 17:51:25.9	357.110	-0.030	0.170	0.710
2020/01/31 17:51:26.0	357.120	-0.030	0.080	0.670
2020/01/31 17:51:26.1	357.140	-0.030	-0.010	0.620
2020/01/31 17:51:26.2	357.160	-0.030	-0.110	0.560
2020/01/31 17:51:26.3	357.180	-0.040	-0.200	0.500
2020/01/31 17:51:26.4	357.210	-0.040	-0.290	0.440
2020/01/31 17:51:26.5	357.230	-0.040	-0.380	0.380
2020/01/31 17:51:26.6	357.260	-0.040	-0.460	0.320
2020/01/31 17:51:26.7	357.290	-0.050	-0.540	0.250
2020/01/31 17:51:26.8	357.330	-0.050	-0.620	0.180
2020/01/31 17:51:26.9	357.360	-0.060	-0.690	0.120
2020/01/31 17:51:27.0	357.390	-0.060	-0.750	0.050
2020/01/31 17:51:27.1	357.420	-0.070	-0.810	-0.010
2020/01/31 17:51:27.2	357.440	-0.070	-0.850	-0.060
2020/01/31 17:51:27.3	357.470	-0.080	-0.890	-0.120
2020/01/31 17:51:27.4	357.500	-0.090	-0.930	-0.170
2020/01/31 17:51:27.5	357.520	-0.090	-0.950	-0.210
2020/01/31 17:51:27.6	357.540	-0.100	-0.960	-0.250
2020/01/31 17:51:27.7	357.560	-0.110	-0.970	-0.290
2020/01/31 17:51:27.8	357.580	-0.120	-0.970	-0.320
2020/01/31 17:51:27.9	357.600	-0.120	-0.960	-0.350
2020/01/31 17:51:28.0	357.610	-0.130	-0.940	-0.370
2020/01/31 17:51:28.1	357.620	-0.140	-0.920	-0.380
2020/01/31 17:51:28.2	357.630	-0.150	-0.890	-0.390
2020/01/31 17:51:28.3	357.640	-0.150	-0.860	-0.390
2020/01/31 17:51:28.4	357.650	-0.160	-0.820	-0.390
2020/01/31 17:51:28.5	357.650	-0.160	-0.780	-0.390
2020/01/31 17:51:28.6	357.650	-0.170	-0.740	-0.380
2020/01/31 17:51:28.7	357.660	-0.170	-0.700	-0.360
2020/01/31 17:51:28.8	357.650	-0.170	-0.650	-0.350
2020/01/31 17:51:28.9	357.650	-0.170	-0.600	-0.320
2020/01/31 17:51:29.0	357.650	-0.170	-0.550	-0.300
2020/01/31 17:51:29.1	357.640	-0.170	-0.510	-0.280
2020/01/31 17:51:29.2	357.630	-0.160	-0.460	-0.250
2020/01/31 17:51:29.3	357.620	-0.160	-0.420	-0.220
2020/01/31 17:51:29.4	357.610	-0.150	-0.380	-0.180
2020/01/31 17:51:29.5	357.600	-0.140	-0.340	-0.150
2020/01/31 17:51:29.6	357.580	-0.130	-0.310	-0.120
2020/01/31 17:51:29.7	357.570	-0.120	-0.280	-0.080
2020/01/31 17:51:29.8	357.540	-0.110	-0.260	-0.050
2020/01/31 17:51:29.9	357.530	-0.090	-0.240	-0.020
2020/01/31 17:51:30.0	357.510	-0.080	-0.220	0.010
2020/01/31 17:51:30.1	357.490	-0.060	-0.210	0.030
2020/01/31 17:51:30.2	357.480	-0.050	-0.210	0.050
2020/01/31 17:51:30.3	357.460	-0.030	-0.210	0.070
2020/01/31 17:51:30.4	357.450	-0.010	-0.210	0.080
2020/01/31 17:51:30.5	357.440	0.010	-0.230	0.090
2020/01/31 17:51:30.6	357.430	0.020	-0.240	0.090
2020/01/31 17:51:30.7	357.420	0.040	-0.260	0.090
2020/01/31 17:51:30.8	357.410	0.050	-0.290	0.080
2020/01/31 17:51:30.9	357.410	0.070	-0.320	0.060
2020/01/31 17:51:31.0	357.420	0.080	-0.350	0.040
2020/01/31 17:51:31.1	357.430	0.090	-0.390	0.010
2020/01/31 17:51:31.2	357.440	0.100	-0.430	-0.020
2020/01/31 17:51:31.3	357.450	0.110	-0.470	-0.060
2020/01/31 17:51:31.4	357.470	0.120	-0.520	-0.100
2020/01/31 17:51:31.5	357.490	0.130	-0.560	-0.150
2020/01/31 17:51:31.6	357.520	0.130	-0.600	-0.200
2020/01/31 17:51:31.7	357.550	0.130	-0.650	-0.250
2020/01/31 17:51:31.8	357.580	0.130	-0.690	-0.310
2020/01/31 17:51:31.9	357.620	0.120	-0.720	-0.370
2020/01/31 17:51:32.0	357.660	0.120	-0.760	-0.430
2020/01/31 17:51:32.1	357.700	0.110	-0.790	-0.490
2020/01/31 17:51:32.2	357.740	0.100	-0.820	-0.540
2020/01/31 17:51:32.3	357.780	0.090	-0.840	-0.600
2020/01/31 17:51:32.4	357.830	0.070	-0.860	-0.660
2020/01/31 17:51:32.5	357.880	0.060	-0.870	-0.720
2020/01/31 17:51:32.6	357.930	0.040	-0.880	-0.770
2020/01/31 17:51:32.7	357.980	0.020	-0.870	-0.820
2020/01/31 17:51:32.8	358.030	-0.000	-0.860	-0.870
2020/01/31 17:51:32.9	358.080	-0.030	-0.850	-0.920
2020/01/31 17:51:33.0	358.130	-0.050	-0.820	-0.960
2020/01/31 17:51:33.1	358.180	-0.080	-0.790	-0.990
2020/01/31 17:51:33.2	358.230	-0.100	-0.750	-1.020
2020/01/31 17:51:33.3	358.270	-0.130	-0.700	-1.050
2020/01/31 17:51:33.4	358.310	-0.150	-0.640	-1.070
2020/01/31 17:51:33.5	358.350	-0.170	-0.580	-1.080
2020/01/31 17:51:33.6	358.390	-0.200	-0.510	-1.090
2020/01/31 17:51:33.7	358.420	-0.220	-0.440	-1.080
2020/01/31 17:51:33.8	358.440	-0.240	-0.350	-1.080
2020/01/31 17:51:33.9	358.470	-0.260	-0.270	-1.060
2020/01/31 17:51:34.0	358.480	-0.280	-0.180	-1.040
2020/01/31 17:51:34.1	358.500	-0.290	-0.090	-1.010
2020/01/31 17:51:34.2	358.510	-0.310	0.000	-0.970
2020/01/31 17:51:34.3	358.510	-0.320	0.100	-0.920
2020/01/31 17:51:34.4	358.500	-0.320	0.190	-0.870
2020/01/31 17:51:34.5	358.500	-0.330	0.280	-0.820
2020/01/31 17:51:34.6	358.480	-0.330	0.370	-0.760
2020/01/31 17:51:34.7	358.470	-0.330	0.450	-0.690
2020/01/31 17:51:34.8	358.440	-0.320	0.530	-0.620
2020/01/31 17:51:34.9	358.420	-0.310	0.600	-0.550
2020/01/31 17:51:35.0	358.390	-0.300	0.670	-0.470
2020/01/31 17:51:35.1	358.360	-0.280	0.730	-0.390
2020/01/31 17:51:35.2	358.330	-0.260	0.780	-0.310
2020/01/31 17:51:35.3	358.290	-0.240	0.820	-0.240
2020/01/31 17:51:35.4	358.260	-0.210	0.840	-0.160
2020/01/31 17:51:35.5	358.220	-0.180	0.860	-0.080
2020/01/31 17:51:35.6	358.190	-0.140	0.870	-0.010
2020/01/31 17:51:35.7	358.160	-0.100	0.860	0.060
2020/01/31 17:51:35.8	358.130	-0.060	0.840	0.120
2020/01/31 17:51:35.9	358.100	-0.020	0.810	0.180
2020/01/31 17:51:36.0	358.070	0.030	0.770	0.240
2020/01/31 17:51:36.1	358.040	0.080	0.710	0.280
2020/01/31 17:51:36.2	358.020	0.130	0.650	0.330
2020/01/31 17:51:36.3	358.000	0.180	0.580	0.360
2020/01/31 17:51:36.4	357.990	0.230	0.490	0.390
2020/01/31 17:51:36.5	357.970	0.280	0.400	0.410
2020/01/31 17:51:36.6	357.960	0.330	0.310	0.420
2020/01/31 17:51:36.7	357.950	0.380	0.200	0.420
2020/01/31 17:51:36.8	357.950	0.430	0.100	0.420
2020/01/31 17:51:36.9	357.950	0.470	-0.010	0.410
2020/01/31 17:51:37.0	357.950	0.520	-0.130	0.390
2020/01/31 17:51:37.1	357.950	0.550	-0.240	0.370
2020/01/31 17:51:37.2	357.960	0.590	-0.350	0.340
2020/01/31 17:51:37.3	357.960	0.620	-0.460	0.310
2020/01/31 17:51:37.4	357.970	0.640	-0.560	0.260
2020/01/31 17:51:37.5	357.980	0.660	-0.660	0.220
2020/01/31 17:51:37.6	357.990	0.670	-0.760	0.170
2020/01/31 17:51:37.7	358.000	0.680	-0.850	0.110
2020/01/31 17:51:37.8	358.020	0.680	-0.920	0.050
2020/01/31 17:51:37.9	358.030	0.670	-1.000	-0.010
2020/01/31 17:51:38.0	358.040	0.660	-1.060	-0.080
2020/01/31 17:51:38.1	358.060	0.640	-1.110	-0.140
2020/01/31 17:51:38.2	358.070	0.620	-1.150	-0.210
2020/01/31 17:51:38.3	358.090	0.590	-1.180	-0.280
2020/01/31 17:51:38.4	358.100	0.550	-1.200	-0.340
2020/01/31 17:51:38.5	358.110	0.510	-1.200	-0.410
2020/01/31 17:51:38.6	358.120	0.470	-1.200	-0.470
2020/01/31 17:51:38.7	358.130	0.420	-1.180	-0.530
2020/01/31 17:51:38.8	358.140	0.360	-1.150	-0.590
2020/01/31 17:51:38.9	358.150	0.300	-1.120	-0.650
2020/01/31 17:51:39.0	358.160	0.240	-1.070	-0.700
2020/01/31 17:51:39.1	358.170	0.180	-1.010	-0.750
2020/01/31 17:51:39.2	358.180	0.110	-0.950	-0.790
2020/01/31 17:51:39.3	358.180	0.050	-0.880	-0.830
2020/01/31 17:51:39.4	358.190	-0.020	-0.800	-0.870
2020/01/31 17:51:39.5	358.190	-0.090	-0.720	-0.900
2020/01/31 17:51:39.6	358.200	-0.150	-0.640	-0.930
2020/01/31 17:51:39.7	358.200	-0.220	-0.550	-0.950
2020/01/31 17:51:39.8	358.190	-0.280	-0.460	-0.970
2020/01/31 17:51:39.9	358.190	-0.340	-0.360	-0.990
2020/01/31 17:51:40.0	358.190	-0.390	-0.270	-1.000
2020/01/31 17:51:40.1	358.180	-0.440	-0.180	-1.010
2020/01/31 17:51:40.2	358.180	-0.490	-0.090	-1.010
2020/01/31 17:51:40.3	358.180	-0.530	-0.010	-1.010
2020/01/31 17:51:40.4	358.170	-0.560	0.080	-1.000
2020/01/31 17:51:40.5	358.160	-0.590	0.150	-1.000
2020/01/31 17:51:40.6	358.160	-0.620	0.230	-0.990
2020/01/31 17:51:40.7	358.150	-0.640	0.290	-0.970
2020/01/31 17:51:40.8	358.150	-0.650	0.350	-0.960
2020/01/31 17:51:40.9	358.140	-0.650	0.400	-0.950
2020/01/31 17:51:41.0	358.130	-0.650	0.440	-0.930
2020/01/31 17:51:41.1	358.120	-0.640	0.480	-0.910
2020/01/31 17:51:41.2	358.120	-0.630	0.500	-0.900
2020/01/31 17:51:41.3	358.110	-0.600	0.520	-0.880
2020/01/31 17:51:41.4	358.110	-0.580	0.530	-0.860
2020/01/31 17:51:41.5	358.100	-0.550	0.530	-0.840
2020/01/31 17:51:41.6	358.100	-0.510	0.520	-0.820
2020/01/31 17:51:41.7	358.090	-0.470	0.500	-0.800
2020/01/31 17:51:41.8	358.090	-0.430	0.470	-0.780
2020/01/31 17:51:41.9	358.090	-0.380	0.440	-0.760
2020/01/31 17:51:42.0	358.090	-0.330	0.400	-0.740
2020/01/31 17:51:42.1	358.090	-0.280	0.350	-0.730
2020/01/31 17:51:42.2	358.100	-0.230	0.290	-0.710
2020/01/31 17:51:42.3	358.110	-0.180	0.230	-0.700
2020/01/31 17:51:42.4	358.120	-0.120	0.170	-0.680
2020/01/31 17:51:42.5	358.130	-0.070	0.090	-0.670
2020/01/31 17:51:42.6	358.150	-0.020	0.020	-0.660
2020/01/31 17:51:42.7	358.170	0.030	-0.060	-0.650
2020/01/31 17:51:42.8	358.190	0.080	-0.130	-0.630
2020/01/31 17:51:42.9	358.210	0.130	-0.210	-0.620
2020/01/31 17:51:43.0	358.230	0.170	-0.290	-0.610
2020/01/31 17:51:43.1	358.250	0.210	-0.370	-0.610
2020/01/31 17:51:43.2	358.280	0.240	-0.450	-0.600
2020/01/31 17:51:43.3	358.300	0.270	-0.520	-0.590
2020/01/31 17:51:43.4	358.330	0.300	-0.590	-0.580
2020/01/31 17:51:43.5	358.350	0.320	-0.650	-0.570
2020/01/31 17:51:43.6	358.380	0.330	-0.710	-0.560
2020/01/31 17:51:43.7	358.400	0.340	-0.760	-0.550
2020/01/31 17:51:43.8	358.420	0.350	-0.810	-0.540
2020/01/31 17:51:43.9	358.440	0.350	-0.850	-0.530
2020/01/31 17:51:44.0	358.450	0.340	-0.880	-0.520
2020/01/31 17:51:44.1	358.470	0.330	-0.910	-0.510
2020/01/31 17:51:44.2	358.480	0.310	-0.920	-0.500
2020/01/31 17:51:44.3	358.490	0.300	-0.930	-0.490
2020/01/31 17:51:44.4	358.490	0.270	-0.930	-0.480
2020/01/31 17:51:44.5	358.490	0.240	-0.910	-0.460
2020/01/31 17:51:44.6	358.490	0.210	-0.890	-0.450
2020/01/31 17:51:44.7	358.490	0.180	-0.860	-0.430
2020/01/31 17:51:44.8	358.480	0.150	-0.820	-0.410
2020/01/31 17:51:44.9	358.470	0.110	-0.770	-0.390
2020/01/31 17:51:45.0	358.450	0.070	-0.720	-0.360
2020/01/31 17:51:45.1	358.440	0.030	-0.660	-0.330
2020/01/31 17:51:45.2	358.420	-0.010	-0.590	-0.310
2020/01/31 17:51:45.3	358.410	-0.050	-0.520	-0.270
2020/01/31 17:51:45.4	358.390	-0.090	-0.440	-0.240
2020/01/31 17:51:45.5	358.370	-0.120	-0.370	-0.210
2020/01/31 17:51:45.6	358.350	-0.160	-0.290	-0.170
2020/01/31 17:51:45.7	358.330	-0.190	-0.210	-0.140
2020/01/31 17:51:45.8	358.310	-0.220	-0.140	-0.100
2020/01/31 17:51:45.9	358.300	-0.250	-0.070	-0.070
2020/01/31 17:51:46.0	358.280	-0.270	-0.000	-0.030
2020/01/31 17:51:46.1	358.260	-0.290	0.060	-0.000
2020/01/31 17:51:46.2	358.250	-0.300	0.110	0.030
2020/01/31 17:51:46.3	358.240	-0.320	0.160	0.050
2020/01/31 17:51:46.4	358.220	-0.320	0.200	0.080
2020/01/31 17:51:46.5	358.210	-0.330	0.230	0.100
2020/01/31 17:51:46.6	358.210	-0.330	0.260	0.120
2020/01/31 17:51:46.7	358.200	-0.330	0.270	0.140
2020/01/31 17:51:46.8	358.200	-0.320	0.280	0.150
2020/01/31 17:51:46.9	358.190	-0.310	0.280	0.160
2020/01/31 17:51:47.0	358.190	-0.290	0.270	0.170
2020/01/31 17:51:47.1	358.190	-0.280	0.250	0.170
2020/01/31 17:51:47.2	358.190	-0.260	0.230	0.170
2020/01/31 17:51:47.3	358.190	-0.240	0.200	0.170
2020/01/31 17:51:47.4	358.190	-0.210	0.160	0.160
2020/01/31 17:51:47.5	358.190	-0.190	0.120	0.150
2020/01/31 17:51:47.6	358.190	-0.160	0.070	0.140
2020/01/31 17:51:47.7	358.190	-0.140	0.020	0.120
2020/01/31 17:51:47.8	358.200	-0.110	-0.040	0.100
2020/01/31 17:51:47.9	358.200	-0.080	-0.090	0.080
2020/01/31 17:51:48.0	358.200	-0.050	-0.150	0.060
2020/01/31 17:51:48.1	358.210	-0.020	-0.210	0.040
2020/01/31 17:51:48.2	358.210	0.000	-0.260	0.020
2020/01/31 17:51:48.3	358.210	0.030	-0.320	-0.000
2020/01/31 17:51:48.4	358.210	0.050	-0.370	-0.030
2020/01/31 17:51:48.5	358.220	0.080	-0.430	-0.050
2020/01/31 17:51:48.6	358.220	0.100	-0.480	-0.070
2020/01/31 17:51:48.7	358.220	0.120	-0.520	-0.100
2020/01/31 17:51:48.8	358.240	0.140	-0.560	-0.120
2020/01/31 17:51:48.9	358.240	0.150	-0.600	-0.140
2020/01/31 17:51:49.0	358.250	0.170	-0.630	-0.160
2020/01/31 17:51:49.1	358.250	0.180	-0.660	-0.190
2020/01/31 17:51:49.2	358.260	0.190	-0.680	-0.210
2020/01/31 17:51:49.3	358.260	0.190	-0.700	-0.230
2020/01/31 17:51:49.4	358.270	0.200	-0.710	-0.250
2020/01/31 17:51:49.5	358.270	0.200	-0.720	-0.270
2020/01/31 17:51:49.6	358.280	0.200	-0.720	-0.300
2020/01/31 17:51:49.7	358.280	0.200	-0.710	-0.320
2020/01/31 17:51:49.8	358.280	0.190	-0.710	-0.340
2020/01/31 17:51:49.9	358.280	0.190	-0.690	-0.370
2020/01/31 17:51:50.0	358.290	0.180	-0.680	-0.390
2020/01/31 17:51:50.1	358.300	0.170	-0.660	-0.410
2020/01/31 17:51:50.2	358.300	0.160	-0.640	-0.430
2020/01/31 17:51:50.3	358.310	0.150	-0.610	-0.450
2020/01/31 17:51:50.4	358.320	0.140	-0.580	-0.460
2020/01/31 17:51:50.5	358.320	0.130	-0.550	-0.480
2020/01/31 17:51:50.6	358.330	0.120	-0.510	-0.500
2020/01/31 17:51:50.7	358.340	0.110	-0.480	-0.510
2020/01/31 17:51:50.8	358.350	0.090	-0.440	-0.530
2020/01/31 17:51:50.9	358.360	0.080	-0.400	-0.540
2020/01/31 17:51:51.0	358.360	0.070	-0.350	-0.540
2020/01/31 17:51:51.1	358.370	0.060	-0.310	-0.550
2020/01/31 17:51:51.2	358.370	0.050	-0.260	-0.550
2020/01/31 17:51:51.3	358.380	0.040	-0.220	-0.550
2020/01/31 17:51:51.4	358.380	0.030	-0.170	-0.540
2020/01/31 17:51:51.5	358.380	0.020	-0.120	-0.540
2020/01/31 17:51:51.6	358.380	0.010	-0.070	-0.520
2020/01/31 17:51:51.7	358.370	0.010	-0.020	-0.510
2020/01/31 17:51:51.8	358.370	-0.000	0.020	-0.490
2020/01/31 17:51:51.9	358.360	-0.010	0.070	-0.470
2020/01/31 17:51:52.0	358.350	-0.020	0.120	-0.440
2020/01/31 17:51:52.1	358.340	-0.020	0.170	-0.410
2020/01/31 17:51:52.2	358.330	-0.030	0.210	-0.380
2020/01/31 17:51:52.3	358.320	-0.030	0.250	-0.350
2020/01/31 17:51:52.4	358.310	-0.040	0.290	-0.310
2020/01/31 17:51:52.5	358.290	-0.040	0.320	-0.270
2020/01/31 17:51:52.6	358.280	-0.040	0.360	-0.240
2020/01/31 17:51:52.7	358.260	-0.050	0.380	-0.200
2020/01/31 17:51:52.8	358.250	-0.050	0.400	-0.160
2020/01/31 17:51:52.9	358.240	-0.050	0.420	-0.120
2020/01/31 17:51:53.0	358.220	-0.050	0.430	-0.080
2020/01/31 17:51:53.1	358.210	-0.050	0.430	-0.040
2020/01/31 17:51:53.2	358.190	-0.040	0.430	-0.000
2020/01/31 17:51:53.3	358.180	-0.040	0.420	0.040
2020/01/31 17:51:53.4	358.160	-0.040	0.400	0.070
2020/01/31 17:51:53.5	358.150	-0.030	0.380	0.110
2020/01/31 17:51:53.6	358.140	-0.020	0.350	0.140
2020/01/31 17:51:53.7	358.130	-0.010	0.320	0.170
2020/01/31 17:51:53.8	358.120	-0.010	0.270	0.200
2020/01/31 17:51:53.9	358.110	0.010	0.230	0.220
2020/01/31 17:51:54.0	358.100	0.020	0.180	0.250
2020/01/31 17:51:54.1	358.100	0.030	0.120	0.270
2020/01/31 17:51:54.2	358.100	0.050	0.060	0.280
2020/01/31 17:51:54.3	358.100	0.060	0.000	0.290
2020/01/31 17:51:54.4	358.110	0.080	-0.070	0.300
2020/01/31 17:51:54.5	358.110	0.090	-0.130	0.310
2020/01/31 17:51:54.6	358.120	0.110	-0.210	0.310
2020/01/31 17:51:54.7	358.130	0.130	-0.280	0.310
2020/01/31 17:51:54.8	358.140	0.140	-0.340	0.300
2020/01/31 17:51:54.9	358.160	0.160	-0.410	0.300
2020/01/31 17:51:55.0	358.170	0.180	-0.480	0.290
2020/01/31 17:51:55.1	358.190	0.190	-0.550	0.270
2020/01/31 17:51:55.2	358.200	0.210	-0.610	0.260
2020/01/31 17:51:55.3	358.220	0.220	-0.670	0.240
2020/01/31 17:51:55.4	358.240	0.230	-0.730	0.220
2020/01/31 17:51:55.5	358.250	0.240	-0.770	0.200
2020/01/31 17:51:55.6	358.270	0.250	-0.820	0.170
2020/01/31 17:51:55.7	358.290	0.250	-0.850	0.150
2020/01/31 17:51:55.8	358.300	0.250	-0.890	0.120
2020/01/31 17:51:55.9	358.320	0.250	-0.910	0.100
2020/01/31 17:51:56.0	358.330	0.250	-0.930	0.070
2020/01/31 17:51:56.1	358.350	0.240	-0.940	0.050
2020/01/31 17:51:56.2	358.370	0.230	-0.940	0.020
2020/01/31 17:51:56.3	358.380	0.220	-0.940	-0.000
2020/01/31 17:51:56.4	358.400	0.210	-0.930	-0.020
2020/01/31 17:51:56.5	358.410	0.190	-0.910	-0.050
2020/01/31 17:51:56.6	358.430	0.170	-0.890	-0.070
2020/01/31 17:51:56.7	358.450	0.150	-0.870	-0.100
2020/01/31 17:51:56.8	358.460	0.120	-0.840	-0.120
2020/01/31 17:51:56.9	358.480	0.090	-0.800	-0.150
2020/01/31 17:51:57.0	358.500	0.060	-0.770	-0.170
2020/01/31 17:51:57.1	358.510	0.030	-0.730	-0.190
2020/01/31 17:51:57.2	358.530	0.000	-0.680	-0.210
2020/01/31 17:51:57.3	358.540	-0.030	-0.640	-0.230
2020/01/31 17:51:57.4	358.560	-0.070	-0.590	-0.250
2020/01/31 17:51:57.5	358.580	-0.100	-0.540	-0.270
2020/01/31 17:51:57.6	358.590	-0.140	-0.490	-0.290
2020/01/31 17:51:57.7	358.610	-0.170	-0.430	-0.310
2020/01/31 17:51:57.8	358.620	-0.210	-0.380	-0.330
2020/01/31 17:51:57.9	358.630	-0.240	-0.330	-0.350
2020/01/31 17:51:58.0	358.650	-0.270	-0.280	-0.360
2020/01/31 17:51:58.1	358.660	-0.310	-0.230	-0.380
2020/01/31 17:51:58.2	358.680	-0.340	-0.180	-0.390
2020/01/31 17:51:58.3	358.690	-0.360	-0.130	-0.410
2020/01/31 17:51:58.4	358.700	-0.390	-0.090	-0.420
2020/01/31 17:51:58.5	358.720	-0.410	-0.040	-0.430
2020/01/31 17:51:58.6	358.730	-0.430	-0.000	-0.440
2020/01/31 17:51:58.7	358.740	-0.450	0.030	-0.450
2020/01/31 17:51:58.8	358.740	-0.460	0.070	-0.460
2020/01/31 17:51:58.9	358.740	-0.470	0.100	-0.460
2020/01/31 17:51:59.0	358.750	-0.470	0.130	-0.460
2020/01/31 17:51:59.1	358.750	-0.480	0.160	-0.460
2020/01/31 17:51:59.2	358.740	-0.480	0.180	-0.450
2020/01/31 17:51:59.3	358.740	-0.470	0.200	-0.440
2020/01/31 17:51:59.4	358.730	-0.460	0.210	-0.430
2020/01/31 17:51:59.5	358.720	-0.450	0.230	-0.410
2020/01/31 17:51:59.6	358.710	-0.430	0.230	-0.390
2020/01/31 17:51:59.7	358.690	-0.410	0.240	-0.370
2020/01/31 17:51:59.8	358.670	-0.390	0.240	-0.350
2020/01/31 17:51:59.9	358.650	-0.360	0.240	-0.320
2020/01/31 17:52:00.0	358.630	-0.330	0.230	-0.290
2020/01/31 17:52:00.1	358.610	-0.300	0.220	-0.250
2020/01/31 17:52:00.2	358.580	-0.260	0.210	-0.220
2020/01/31 17:52:00.3	358.550	-0.220	0.200	-0.180
2020/01/31 17:52:00.4	358.530	-0.180	0.180	-0.140
2020/01/31 17:52:00.5	358.500	-0.140	0.160	-0.100
2020/01/31 17:52:00.6	358.470	-0.100	0.130	-0.060
2020/01/31 17:52:00.7	358.440	-0.050	0.110	-0.020
2020/01/31 17:52:00.8	358.410	-0.010	0.080	0.020
2020/01/31 17:52:00.9	358.380	0.040	0.050	0.060
2020/01/31 17:52:01.0	358.350	0.080	0.010	0.090
2020/01/31 17:52:01.1	358.330	0.120	-0.020	0.130
2020/01/31 17:52:01.2	358.300	0.170	-0.060	0.160
2020/01/31 17:52:01.3	358.280	0.210	-0.090	0.200
2020/01/31 17:52:01.4	358.260	0.250	-0.130	0.230
2020/01/31 17:52:01.5	358.250	0.290	-0.170	0.250
2020/01/31 17:52:01.6	358.230	0.320	-0.210	0.280
2020/01/31 17:52:01.7	358.220	0.360	-0.250	0.300
2020/01/31 17:52:01.8	358.210	0.390	-0.300	0.320
2020/01/31 17:52:01.9	358.200	0.420	-0.340	0.330
2020/01/31 17:52:02.0	358.200	0.440	-0.380	0.340
2020/01/31 17:52:02.1	358.200	0.460	-0.420	0.350
2020/01/31 17:52:02.2	358.200	0.480	-0.460	0.350
2020/01/31 17:52:02.3	358.210	0.500	-0.500	0.350
2020/01/31 17:52:02.4	358.220	0.510	-0.530	0.350
2020/01/31 17:52:02.5	358.230	0.520	-0.560	0.350
2020/01/31 17:52:02.6	358.240	0.520	-0.600	0.340
2020/01/31 17:52:02.7	358.260	0.520	-0.620	0.330
2020/01/31 17:52:02.8	358.270	0.510	-0.640	0.310
2020/01/31 17:52:02.9	358.280	0.510	-0.660	0.300
2020/01/31 17:52:03.0	358.300	0.490	-0.680	0.280
2020/01/31 17:52:03.1	358.310	0.480	-0.690	0.270
2020/01/31 17:52:03.2	358.330	0.460	-0.700	0.250
2020/01/31 17:52:03.3	358.340	0.430	-0.700	0.230
2020/01/31 17:52:03.4	358.350	0.410	-0.690	0.210
2020/01/31 17:52:03.5	358.360	0.380	-0.690	0.190
2020/01/31 17:52:03.6	358.370	0.350	-0.670	0.170
2020/01/31 17:52:03.7	358.380	0.320	-0.650	0.150
2020/01/31 17:52:03.8	358.380	0.280	-0.630	0.130
2020/01/31 17:52:03.9	358.380	0.240	-0.610	0.110
2020/01/31 17:52:04.0	358.390	0.210	-0.580	0.090
2020/01/31 17:52:04.1	358.390	0.170	-0.540	0.060
2020/01/31 17:52:04.2	358.380	0.130	-0.500	0.040
2020/01/31 17:52:04.3	358.380	0.090	-0.460	0.020
2020/01/31 17:52:04.4	358.380	0.060	-0.420	0.000
2020/01/31 17:52:04.5	358.380	0.020	-0.370	-0.020
2020/01/31 17:52:04.6	358.370	-0.010	-0.330	-0.040
2020/01/31 17:52:04.7	358.370	-0.040	-0.290	-0.060
2020/01/31 17:52:04.8	358.360	-0.070	-0.240	-0.090
2020/01/31 17:52:04.9	358.360	-0.100	-0.200	-0.110
2020/01/31 17:52:05.0	358.360	-0.120	-0.170	-0.130
2020/01/31 17:52:05.1	358.360	-0.140	-0.130	-0.150
2020/01/31 17:52:05.2	358.360	-0.150	-0.100	-0.170
2020/01/31 17:52:05.3	358.360	-0.170	-0.070	-0.190
2020/01/31 17:52:05.4	358.370	-0.170	-0.050	-0.220
2020/01/31 17:52:05.5	358.380	-0.180	-0.030	-0.240
2020/01/31 17:52:05.6	358.380	-0.180	-0.020	-0.260
2020/01/31 17:52:05.7	358.390	-0.180	-0.010	-0.270
2020/01/31 17:52:05.8	358.400	-0.170	-0.010	-0.290
2020/01/31 17:52:05.9	358.410	-0.160	-0.010	-0.300
2020/01/31 17:52:06.0	358.420	-0.150	-0.010	-0.320
2020/01/31 17:52:06.1	358.430	-0.140	-0.010	-0.330
2020/01/31 17:52:06.2	358.440	-0.130	-0.020	-0.340
2020/01/31 17:52:06.3	358.440	-0.110	-0.030	-0.350
2020/01/31 17:52:06.4	358.450	-0.100	-0.040	-0.350
2020/01/31 17:52:06.5	358.450	-0.080	-0.050	-0.360
2020/01/31 17:52:06.6	358.460	-0.070	-0.060	-0.360
2020/01/31 17:52:06.7	358.460	-0.050	-0.080	-0.360
2020/01/31 17:52:06.8	358.450	-0.040	-0.090	-0.360
2020/01/31 17:52:06.9	358.450	-0.020	-0.100	-0.360
2020/01/31 17:52:07.0	358.450	-0.010	-0.110	-0.360
2020/01/31 17:52:07.1	358.440	-0.000	-0.130	-0.350
2020/01/31 17:52:07.2	358.440	0.000	-0.140	-0.350
2020/01/31 17:52:07.3	358.430	0.010	-0.150	-0.340
2020/01/31 17:52:07.4	358.420	0.010	-0.160	-0.340
2020/01/31 17:52:07.5	358.410	0.010	-0.170	-0.330
2020/01/31 17:52:07.6	358.400	0.010	-0.180	-0.320
2020/01/31 17:52:07.7	358.400	0.010	-0.180	-0.320
2020/01/31 17:52:07.8	358.380	-0.000	-0.190	-0.310
2020/01/31 17:52:07.9	358.370	-0.010	-0.200	-0.300
2020/01/31 17:52:08.0	358.360	-0.020	-0.200	-0.290
2020/01/31 17:52:08.1	358.350	-0.030	-0.200	-0.280
2020/01/31 17:52:08.2	358.340	-0.050	-0.210	-0.270
2020/01/31 17:52:08.3	358.330	-0.070	-0.210	-0.260
2020/01/31 17:52:08.4	358.320	-0.080	-0.210	-0.250
2020/01/31 17:52:08.5	358.310	-0.100	-0.210	-0.240
2020/01/31 17:52:08.6	358.300	-0.120	-0.200	-0.230
2020/01/31 17:52:08.7	358.290	-0.140	-0.200	-0.220
2020/01/31 17:52:08.8	358.280	-0.160	-0.200	-0.220
2020/01/31 17:52:08.9	358.280	-0.190	-0.200	-0.210
2020/01/31 17:52:09.0	358.270	-0.210	-0.190	-0.200
2020/01/31 17:52:09.1	358.270	-0.230	-0.190	-0.190
2020/01/31 17:52:09.2	358.270	-0.240	-0.180	-0.170
2020/01/31 17:52:09.3	358.260	-0.260	-0.170	-0.160
2020/01/31 17:52:09.4	358.260	-0.280	-0.160	-0.150
2020/01/31 17:52:09.5	358.260	-0.290	-0.150	-0.140
2020/01/31 17:52:09.6	358.270	-0.300	-0.150	-0.140
2020/01/31 17:52:09.7	358.270	-0.310	-0.140	-0.130
2020/01/31 17:52:09.8	358.280	-0.320	-0.120	-0.120
2020/01/31 17:52:09.9	358.290	-0.330	-0.110	-0.110
2020/01/31 17:52:10.0	358.300	-0.330	-0.100	-0.110
2020/01/31 17:52:10.1	358.310	-0.330	-0.100	-0.100
2020/01/31 17:52:10.2	358.320	-0.330	-0.090	-0.100
2020/01/31 17:52:10.3	358.340	-0.320	-0.080	-0.090
2020/01/31 17:52:10.4	358.350	-0.310	-0.070	-0.090
2020/01/31 17:52:10.5	358.370	-0.300	-0.060	-0.090
2020/01/31 17:52:10.6	358.390	-0.290	-0.060	-0.090
2020/01/31 17:52:10.7	358.410	-0.280	-0.050	-0.100
2020/01/31 17:52:10.8	358.430	-0.260	-0.050	-0.100
2020/01/31 17:52:10.9	358.450	-0.240	-0.050	-0.110
2020/01/31 17:52:11.0	358.470	-0.220	-0.050	-0.110
2020/01/31 17:52:11.1	358.490	-0.200	-0.050	-0.120
2020/01/31 17:52:11.2	358.500	-0.180	-0.060	-0.120
2020/01/31 17:52:11.3	358.520	-0.150	-0.060	-0.120
2020/01/31 17:52:11.4	358.530	-0.130	-0.070	-0.130
2020/01/31 17:52:11.5	358.550	-0.100	-0.080	-0.120
2020/01/31 17:52:11.6	358.560	-0.070	-0.090	-0.120
2020/01/31 17:52:11.7	358.570	-0.050	-0.110	-0.110
2020/01/31 17:52:11.8	358.580	-0.020	-0.120	-0.100
2020/01/31 17:52:11.9	358.580	0.010	-0.140	-0.090
2020/01/31 17:52:12.0	358.580	0.040	-0.160	-0.070
2020/01/31 17:52:12.1	358.570	0.070	-0.170	-0.050
2020/01/31 17:52:12.2	358.560	0.090	-0.190	-0.030
2020/01/31 17:52:12.3	358.550	0.120	-0.210	-0.000
2020/01/31 17:52:12.4	358.540	0.150	-0.230	0.030
2020/01/31 17:52:12.5	358.520	0.170	-0.250	0.060
2020/01/31 17:52:12.6	358.500	0.200	-0.270	0.100
2020/01/31 17:52:12.7	358.470	0.220	-0.290	0.140
2020/01/31 17:52:12.8	358.440	0.240	-0.310	0.170
2020/01/31 17:52:12.9	358.420	0.260	-0.330	0.210
2020/01/31 17:52:13.0	358.390	0.280	-0.350	0.250
2020/01/31 17:52:13.1	358.350	0.300	-0.370	0.280
2020/01/31 17:52:13.2	358.320	0.320	-0.390	0.320
2020/01/31 17:52:13.3	358.290	0.330	-0.410	0.350
2020/01/31 17:52:13.4	358.260	0.350	-0.430	0.380
2020/01/31 17:52:13.5	358.220	0.360	-0.450	0.400
2020/01/31 17:52:13.6	358.190	0.370	-0.470	0.420
2020/01/31 17:52:13.7	358.160	0.380	-0.490	0.440
2020/01/31 17:52:13.8	358.130	0.390	-0.510	0.450
2020/01/31 17:52:13.9	358.100	0.400	-0.530	0.460
2020/01/31 17:52:14.0	358.080	0.410	-0.560	0.470
2020/01/31 17:52:14.1	358.050	0.410	-0.580	0.470
2020/01/31 17:52:14.2	358.030	0.420	-0.600	0.470
2020/01/31 17:52:14.3	358.010	0.420	-0.620	0.470
2020/01/31 17:52:14.4	357.990	0.430	-0.640	0.460
2020/01/31 17:52:14.5	357.980	0.430	-0.660	0.450
2020/01/31 17:52:14.6	357.960	0.430	-0.680	0.430
2020/01/31 17:52:14.7	357.950	0.430	-0.700	0.420
2020/01/31 17:52:14.8	357.940	0.440	-0.710	0.390
2020/01/31 17:52:14.9	357.930	0.440	-0.730	0.370
2020/01/31 17:52:15.0	357.930	0.430	-0.740	0.350
2020/01/31 17:52:15.1	357.940	0.430	-0.750	0.330
2020/01/31 17:52:15.2	357.940	0.430	-0.750	0.310
2020/01/31 17:52:15.3	357.950	0.420	-0.760	0.280
2020/01/31 17:52:15.4	357.960	0.420	-0.760	0.260
2020/01/31 17:52:15.5	357.980	0.410	-0.760	0.230
2020/01/31 17:52:15.6	358.000	0.400	-0.760	0.200
2020/01/31 17:52:15.7	358.020	0.390	-0.750	0.170
2020/01/31 17:52:15.8	358.050	0.380	-0.740	0.140
2020/01/31 17:52:15.9	358.070	0.360	-0.730	0.110
2020/01/31 17:52:16.0	358.100	0.340	-0.720	0.070
2020/01/31 17:52:16.1	358.130	0.320	-0.700	0.030
2020/01/31 17:52:16.2	358.170	0.300	-0.690	-0.000
2020/01/31 17:52:16.3	358.200	0.280	-0.670	-0.040
2020/01/31 17:52:16.4	358.230	0.250	-0.640	-0.090
2020/01/31 17:52:16.5	358.270	0.230	-0.620	-0.130
2020/01/31 17:52:16.6	358.300	0.200	-0.590	-0.180
2020/01/31 17:52:16.7	358.340	0.160	-0.560	-0.220
2020/01/31 17:52:16.8	358.370	0.130	-0.530	-0.270
2020/01/31 17:52:16.9	358.410	0.100	-0.500	-0.320
2020/01/31 17:52:17.0	358.440	0.060	-0.470	-0.370
2020/01/31 17:52:17.1	358.470	0.030	-0.430	-0.420
2020/01/31 17:52:17.2	358.500	-0.010	-0.400	-0.460
2020/01/31 17:52:17.3	358.530	-0.050	-0.360	-0.510
2020/01/31 17:52:17.4	358.560	-0.090	-0.320	-0.550
2020/01/31 17:52:17.5	358.590	-0.120	-0.280	-0.600
2020/01/31 17:52:17.6	358.610	-0.160	-0.240	-0.630
2020/01/31 17:52:17.7	358.640	-0.200	-0.200	-0.670
2020/01/31 17:52:17.8	358.660	-0.230	-0.160	-0.710
2020/01/31 17:52:17.9	358.680	-0.270	-0.120	-0.740
2020/01/31 17:52:18.0	358.700	-0.300	-0.080	-0.760
2020/01/31 17:52:18.1	358.710	-0.330	-0.040	-0.780
2020/01/31 17:52:18.2	358.730	-0.360	0.000	-0.790
2020/01/31 17:52:18.3	358.740	-0.390	0.040	-0.800
2020/01/31 17:52:18.4	358.750	-0.420	0.080	-0.800
2020/01/31 17:52:18.5	358.760	-0.440	0.120	-0.800
2020/01/31 17:52:18.6	358.760	-0.470	0.160	-0.790
2020/01/31 17:52:18.7	358.760	-0.490	0.200	-0.780
2020/01/31 17:52:18.8	358.760	-0.500	0.240	-0.760
2020/01/31 17:52:18.9	358.750	-0.520	0.270	-0.740
2020/01/31 17:52:19.0	358.750	-0.530	0.310	-0.710
2020/01/31 17:52:19.1	358.740	-0.540	0.350	-0.680
2020/01/31 17:52:19.2	358.720	-0.550	0.380	-0.640
2020/01/31 17:52:19.3	358.710	-0.560	0.410	-0.610
2020/01/31 17:52:19.4	358.690	-0.560	0.440	-0.570
2020/01/31 17:52:19.5	358.660	-0.570	0.470	-0.520
2020/01/31 17:52:19.6	358.640	-0.570	0.500	-0.470
2020/01/31 17:52:19.7	358.610	-0.560	0.520	-0.430
2020/01/31 17:52:19.8	358.590	-0.560	0.540	-0.380
2020/01/31 17:52:19.9	358.550	-0.550	0.570	-0.320
2020/01/31 17:52:20.0	358.520	-0.540	0.580	-0.270
2020/01/31 17:52:20.1	358.480	-0.530	0.600	-0.210
2020/01/31 17:52:20.2	358.440	-0.520	0.610	-0.150
2020/01/31 17:52:20.3	358.400	-0.500	0.620	-0.090
2020/01/31 17:52:20.4	358.360	-0.490	0.630	-0.030
2020/01/31 17:52:20.5	358.310	-0.470	0.640	0.030
2020/01/31 17:52:20.6	358.270	-0.450	0.640	0.100
2020/01/31 17:52:20.7	358.220	-0.430	0.630	0.160
2020/01/31 17:52:20.8	358.180	-0.400	0.630	0.220
2020/01/31 17:52:20.9	358.130	-0.380	0.620	0.280
2020/01/31 17:52:21.0	358.090	-0.350	0.600	0.330
2020/01/31 17:52:21.1	358.040	-0.320	0.580	0.380
2020/01/31 17:52:21.2	358.000	-0.290	0.560	0.430
2020/01/31 17:52:21.3	357.960	-0.260	0.530	0.480
2020/01/31 17:52:21.4	357.920	-0.230	0.490	0.520
2020/01/31 17:52:21.5	357.890	-0.200	0.450	0.560
2020/01/31 17:52:21.6	357.860	-0.160	0.410	0.590
2020/01/31 17:52:21.7	357.830	-0.120	0.350	0.610
2020/01/31 17:52:21.8	357.810	-0.090	0.290	0.630
2020/01/31 17:52:21.9	357.790	-0.050	0.220	0.640
2020/01/31 17:52:22.0	357.770	-0.010	0.150	0.640
2020/01/31 17:52:22.1	357.760	0.030	0.080	0.640
2020/01/31 17:52:22.2	357.760	0.070	-0.010	0.630
2020/01/31 17:52:22.3	357.760	0.110	-0.090	0.610
2020/01/31 17:52:22.4	357.760	0.150	-0.180	0.590
2020/01/31 17:52:22.5	357.770	0.200	-0.280	0.570
2020/01/31 17:52:22.6	357.780	0.240	-0.380	0.530
2020/01/31 17:52:22.7	357.800	0.280	-0.480	0.500
2020/01/31 17:52:22.8	357.810	0.320	-0.570	0.450
2020/01/31 17:52:22.9	357.830	0.350	-0.670	0.410
2020/01/31 17:52:23.0	357.860	0.390	-0.770	0.360
2020/01/31 17:52:23.1	357.880	0.420	-0.870	0.310
2020/01/31 17:52:23.2	357.910	0.460	-0.960	0.250
2020/01/31 17:52:23.3	357.940	0.490	-1.050	0.200
2020/01/31 17:52:23.4	357.970	0.510	-1.140	0.140
2020/01/31 17:52:23.5	358.000	0.530	-1.220	0.080
2020/01/31 17:52:23.6	358.030	0.550	-1.290	0.020
2020/01/31 17:52:23.7	358.060	0.570	-1.360	-0.040
2020/01/31 17:52:23.8	358.090	0.580	-1.420	-0.100
2020/01/31 17:52:23.9	358.120	0.590	-1.460	-0.160
2020/01/31 17:52:24.0	358.150	0.590	-1.500	-0.210
2020/01/31 17:52:24.1	358.180	0.590	-1.530	-0.270
2020/01/31 17:52:24.2	358.210	0.580	-1.550	-0.320
2020/01/31 17:52:24.3	358.240	0.570	-1.550	-0.370
2020/01/31 17:52:24.4	358.260	0.550	-1.550	-0.410
2020/01/31 17:52:24.5	358.280	0.530	-1.530	-0.460
2020/01/31 17:52:24.6	358.310	0.510	-1.500	-0.500
2020/01/31 17:52:24.7	358.330	0.480	-1.470	-0.530
2020/01/31 17:52:24.8	358.340	0.440	-1.420	-0.570
2020/01/31 17:52:24.9	358.360	0.410	-1.370	-0.600
2020/01/31 17:52:25.0	358.370	0.360	-1.300	-0.630
2020/01/31 17:52:25.1	358.390	0.320	-1.230	-0.650
2020/01/31 17:52:25.2	358.400	0.270	-1.150	-0.670
2020/01/31 17:52:25.3	358.420	0.220	-1.070	-0.690
2020/01/31 17:52:25.4	358.430	0.170	-0.980	-0.700
2020/01/31 17:52:25.5	358.440	0.110	-0.890	-0.710
2020/01/31 17:52:25.6	358.450	0.060	-0.800	-0.720
2020/01/31 17:52:25.7	358.460	0.000	-0.700	-0.730
2020/01/31 17:52:25.8	358.460	-0.060	-0.600	-0.730
2020/01/31 17:52:25.9	358.470	-0.110	-0.500	-0.730
2020/01/31 17:52:26.0	358.480	-0.170	-0.410	-0.730
2020/01/31 17:52:26.1	358.490	-0.220	-0.310	-0.730
2020/01/31 17:52:26.2	358.490	-0.280	-0.220	-0.720
2020/01/31 17:52:26.3	358.500	-0.330	-0.130	-0.710
2020/01/31 17:52:26.4	358.500	-0.370	-0.050	-0.700
2020/01/31 17:52:26.5	358.510	-0.420	0.030	-0.690
2020/01/31 17:52:26.6	358.510	-0.460	0.110	-0.680
2020/01/31 17:52:26.7	358.510	-0.490	0.180	-0.660
2020/01/31 17:52:26.8	358.510	-0.520	0.240	-0.640
2020/01/31 17:52:26.9	358.510	-0.550	0.300	-0.620
2020/01/31 17:52:27.0	358.510	-0.570	0.350	-0.590
2020/01/31 17:52:27.1	358.510	-0.590	0.390	-0.560
2020/01/31 17:52:27.2	358.510	-0.600	0.430	-0.530
2020/01/31 17:52:27.3	358.500	-0.600	0.460	-0.490
2020/01/31 17:52:27.4	358.500	-0.600	0.490	-0.450
2020/01/31 17:52:27.5	358.490	-0.600	0.510	-0.410
2020/01/31 17:52:27.6	358.480	-0.590	0.520	-0.370
2020/01/31 17:52:27.7	358.470	-0.570	0.530	-0.330
2020/01/31 17:52:27.8	358.450	-0.560	0.530	-0.290
2020/01/31 17:52:27.9	358.440	-0.530	0.530	-0.240
2020/01/31 17:52:28.0	358.430	-0.510	0.520	-0.200
2020/01/31 17:52:28.1	358.410	-0.480	0.510	-0.150
2020/01/31 17:52:28.2	358.390	-0.440	0.490	-0.110
2020/01/31 17:52:28.3	358.380	-0.410	0.470	-0.060
2020/01/31 17:52:28.4	358.360	-0.370	0.440	-0.020
2020/01/31 17:52:28.5	358.340	-0.330	0.410	0.020
2020/01/31 17:52:28.6	358.320	-0.280	0.380	0.060
2020/01/31 17:52:28.7	358.300	-0.240	0.350	0.100
2020/01/31 17:52:28.8	358.280	-0.190	0.300	0.140
2020/01/31 17:52:28.9	358.260	-0.140	0.260	0.170
2020/01/31 17:52:29.0	358.230	-0.090	0.220	0.200
2020/01/31 17:52:29.1	358.210	-0.050	0.170	0.230
2020/01/31 17:52:29.2	358.190	0.000	0.130	0.260
2020/01/31 17:52:29.3	358.160	0.050	0.080	0.280
2020/01/31 17:52:29.4	358.140	0.090	0.030	0.300
2020/01/31 17:52:29.5	358.120	0.140	-0.020	0.330
2020/01/31 17:52:29.6	358.100	0.180	-0.070	0.350
2020/01/31 17:52:29.7	358.070	0.230	-0.110	0.370
2020/01/31 17:52:29.8	358.060	0.270	-0.160	0.380
2020/01/31 17:52:29.9	358.040	0.310	-0.210	0.400
2020/01/31 17:52:30.0	358.010	0.340	-0.250	0.420
2020/01/31 17:52:30.1	357.990	0.380	-0.300	0.440
2020/01/31 17:52:30.2	357.970	0.410	-0.340	0.450
2020/01/31 17:52:30.3	357.950	0.430	-0.380	0.460
2020/01/31 17:52:30.4	357.930	0.460	-0.410	0.470
2020/01/31 17:52:30.5	357.910	0.480	-0.450	0.480
2020/01/31 17:52:30.6	357.890	0.500	-0.480	0.490
2020/01/31 17:52:30.7	357.880	0.510	-0.510	0.490
2020/01/31 17:52:30.8	357.870	0.530	-0.540	0.500
2020/01/31 17:52:30.9	357.850	0.530	-0.560	0.500
2020/01/31 17:52:31.0	357.840	0.540	-0.580	0.490
2020/01/31 17:52:31.1	357.830	0.540	-0.600	0.480
2020/01/31 17:52:31.2	357.820	0.540	-0.610	0.470
2020/01/31 17:52:31.3	357.810	0.540	-0.630	0.460
2020/01/31 17:52:31.4	357.810	0.530	-0.630	0.440
2020/01/31 17:52:31.5	357.800	0.520	-0.640	0.420
2020/01/31 17:52:31.6	357.800	0.510	-0.640	0.400
2020/01/31 17:52:31.7	357.790	0.500	-0.630	0.380
2020/01/31 17:52:31.8	357.800	0.480	-0.630	0.350
2020/01/31 17:52:31.9	357.800	0.460	-0.620	0.330
2020/01/31 17:52:32.0	357.800	0.440	-0.610	0.300
2020/01/31 17:52:32.1	357.800	0.410	-0.590	0.270
2020/01/31 17:52:32.2	357.800	0.390	-0.570	0.240
2020/01/31 17:52:32.3	357.810	0.360	-0.540	0.210
2020/01/31 17:52:32.4	357.810	0.330	-0.510	0.180
2020/01/31 17:52:32.5	357.810	0.300	-0.480	0.160
2020/01/31 17:52:32.6	357.820	0.270	-0.450	0.130
2020/01/31 17:52:32.7	357.820	0.240	-0.410	0.100
2020/01/31 17:52:32.8	357.830	0.200	-0.370	0.070
2020/01/31 17:52:32.9	357.830	0.170	-0.340	0.040
2020/01/31 17:52:33.0	357.830	0.130	-0.290	0.010
2020/01/31 17:52:33.1	357.840	0.090	-0.250	-0.010
2020/01/31 17:52:33.2	357.840	0.060	-0.210	-0.040
2020/01/31 17:52:33.3	357.850	0.020	-0.170	-0.060
2020/01/31 17:52:33.4	357.850	-0.020	-0.130	-0.080
2020/01/31 17:52:33.5	357.860	-0.050	-0.100	-0.110
2020/01/31 17:52:33.6	357.870	-0.090	-0.060	-0.130
2020/01/31 17:52:33.7	357.880	-0.130	-0.030	-0.150
2020/01/31 17:52:33.8	357.890	-0.160	-0.000	-0.180
2020/01/31 17:52:33.9	357.900	-0.190	0.020	-0.210
2020/01/31 17:52:34.0	357.920	-0.230	0.040	-0.240
2020/01/31 17:52:34.1	357.930	-0.260	0.060	-0.270
2020/01/31 17:52:34.2	357.950	-0.290	0.070	-0.300
2020/01/31 17:52:34.3	357.970	-0.320	0.080	-0.330
2020/01/31 17:52:34.4	357.990	-0.340	0.080	-0.360
2020/01/31 17:52:34.5	358.010	-0.370	0.080	-0.400
2020/01/31 17:52:34.6	358.040	-0.400	0.070	-0.430
2020/01/31 17:52:34.7	358.060	-0.420	0.060	-0.470
2020/01/31 17:52:34.8	358.070	-0.440	0.040	-0.500
2020/01/31 17:52:34.9	358.100	-0.460	0.030	-0.540
2020/01/31 17:52:35.0	358.120	-0.480	0.000	-0.570
2020/01/31 17:52:35.1	358.140	-0.490	-0.020	-0.610
2020/01/31 17:52:35.2	358.160	-0.510	-0.050	-0.640
2020/01/31 17:52:35.3	358.170	-0.520	-0.070	-0.660
2020/01/31 17:52:35.4	358.180	-0.530	-0.100	-0.680
2020/01/31 17:52:35.5	358.190	-0.530	-0.140	-0.700
2020/01/31 17:52:35.6	358.200	-0.540	-0.170	-0.720
2020/01/31 17:52:35.7	358.200	-0.540	-0.200	-0.730
2020/01/31 17:52:35.8	358.200	-0.540	-0.230	-0.730
2020/01/31 17:52:35.9	358.200	-0.540	-0.260	-0.730
2020/01/31 17:52:36.0	358.190	-0.540	-0.290	-0.720
2020/01/31 17:52:36.1	358.180	-0.530	-0.320	-0.710
2020/01/31 17:52:36.2	358.160	-0.520	-0.350	-0.690
2020/01/31 17:52:36.3	358.150	-0.510	-0.370	-0.670
2020/01/31 17:52:36.4	358.130	-0.490	-0.390	-0.640
2020/01/31 17:52:36.5	358.110	-0.470	-0.410	-0.600
2020/01/31 17:52:36.6	358.080	-0.450	-0.430	-0.560
2020/01/31 17:52:36.7	358.060	-0.430	-0.440	-0.510
2020/01/31 17:52:36.8	358.030	-0.410	-0.440	-0.460
2020/01/31 17:52:36.9	358.000	-0.380	-0.450	-0.410
2020/01/31 17:52:37.0	357.970	-0.350	-0.450	-0.350
2020/01/31 17:52:37.1	357.940	-0.310	-0.450	-0.290
2020/01/31 17:52:37.2	357.910	-0.280	-0.450	-0.230
2020/01/31 17:52:37.3	357.880	-0.240	-0.440	-0.160
2020/01/31 17:52:37.4	357.850	-0.200	-0.430	-0.100
2020/01/31 17:52:37.5	357.820	-0.160	-0.420	-0.030
2020/01/31 17:52:37.6	357.790	-0.110	-0.410	0.040
2020/01/31 17:52:37.7	357.760	-0.070	-0.400	0.100
2020/01/31 17:52:37.8	357.730	-0.020	-0.390	0.170
2020/01/31 17:52:37.9	357.700	0.030	-0.380	0.230
2020/01/31 17:52:38.0	357.680	0.070	-0.360	0.290
2020/01/31 17:52:38.1	357.660	0.120	-0.340	0.350
2020/01/31 17:52:38.2	357.640	0.170	-0.330	0.410
2020/01/31 17:52:38.3	357.620	0.220	-0.310	0.460
2020/01/31 17:52:38.4	357.610	0.260	-0.300	0.510
2020/01/31 17:52:38.5	357.600	0.310	-0.280	0.550
2020/01/31 17:52:38.6	357.590	0.350	-0.270	0.590
2020/01/31 17:52:38.7	357.580	0.390	-0.260	0.620
2020/01/31 17:52:38.8	357.580	0.430	-0.240	0.650
2020/01/31 17:52:38.9	357.580	0.460	-0.230	0.670
2020/01/31 17:52:39.0	357.580	0.490	-0.220	0.690
2020/01/31 17:52:39.1	357.570	0.520	-0.210	0.700
2020/01/31 17:52:39.2	357.570	0.540	-0.200	0.710
2020/01/31 17:52:39.3	357.570	0.560	-0.190	0.720
2020/01/31 17:52:39.4	357.570	0.570	-0.180	0.720
2020/01/31 17:52:39.5	357.570	0.570	-0.160	0.720
2020/01/31 17:52:39.6	357.570	0.580	-0.150	0.720
2020/01/31 17:52:39.7	357.570	0.570	-0.140	0.710
2020/01/31 17:52:39.8	357.560	0.560	-0.130	0.700
2020/01/31 17:52:39.9	357.560	0.550	-0.120	0.690
2020/01/31 17:52:40.0	357.560	0.530	-0.100	0.670
2020/01/31 17:52:40.1	357.550	0.500	-0.090	0.640
2020/01/31 17:52:40.2	357.550	0.470	-0.080	0.610
2020/01/31 17:52:40.3	357.550	0.440	-0.070	0.580
2020/01/31 17:52:40.4	357.550	0.400	-0.060	0.550
2020/01/31 17:52:40.5	357.550	0.360	-0.050	0.510
2020/01/31 17:52:40.6	357.550	0.320	-0.040	0.470
2020/01/31 17:52:40.7	357.550	0.270	-0.040	0.420
2020/01/31 17:52:40.8	357.540	0.220	-0.030	0.370
2020/01/31 17:52:40.9	357.540	0.170	-0.030	0.320
2020/01/31 17:52:41.0	357.540	0.120	-0.030	0.270
2020/01/31 17:52:41.1	357.550	0.060	-0.030	0.210
2020/01/31 17:52:41.2	357.550	0.010	-0.030	0.160
2020/01/31 17:52:41.3	357.550	-0.040	-0.040	0.110
2020/01/31 17:52:41.4	357.550	-0.090	-0.050	0.050
2020/01/31 17:52:41.5	357.560	-0.140	-0.070	-0.000
2020/01/31 17:52:41.6	357.560	-0.190	-0.080	-0.050
2020/01/31 17:52:41.7	357.560	-0.230	-0.100	-0.100
2020/01/31 17:52:41.8	357.560	-0.270	-0.110	-0.150
2020/01/31 17:52:41.9	357.560	-0.310	-0.130	-0.190
2020/01/31 17:52:42.0	357.560	-0.340	-0.150	-0.230
2020/01/31 17:52:42.1	357.550	-0.370	-0.170	-0.270
2020/01/31 17:52:42.2	357.550	-0.390	-0.200	-0.300
2020/01/31 17:52:42.3	357.550	-0.410	-0.220	-0.330
2020/01/31 17:52:42.4	357.550	-0.430	-0.240	-0.350
2020/01/31 17:52:42.5	357.540	-0.430	-0.260	-0.380
2020/01/31 17:52:42.6	357.540	-0.440	-0.290	-0.400
2020/01/31 17:52:42.7	357.540	-0.430	-0.310	-0.420
2020/01/31 17:52:42.8	357.540	-0.430	-0.340	-0.440
2020/01/31 17:52:42.9	357.540	-0.410	-0.360	-0.460
2020/01/31 17:52:43.0	357.540	-0.400	-0.390	-0.470
2020/01/31 17:52:43.1	357.550	-0.380	-0.420	-0.490
2020/01/31 17:52:43.2	357.550	-0.350	-0.450	-0.500
2020/01/31 17:52:43.3	357.560	-0.320	-0.480	-0.520
2020/01/31 17:52:43.4	357.560	-0.290	-0.510	-0.530
2020/01/31 17:52:43.5	357.570	-0.250	-0.540	-0.540
2020/01/31 17:52:43.6	357.580	-0.210	-0.570	-0.550
2020/01/31 17:52:43.7	357.590	-0.170	-0.600	-0.560
2020/01/31 17:52:43.8	357.610	-0.120	-0.640	-0.570
2020/01/31 17:52:43.9	357.620	-0.080	-0.670	-0.580
2020/01/31 17:52:44.0	357.630	-0.030	-0.700	-0.580
2020/01/31 17:52:44.1	357.650	0.020	-0.730	-0.580
2020/01/31 17:52:44.2	357.670	0.070	-0.760	-0.580
2020/01/31 17:52:44.3	357.680	0.110	-0.790	-0.570
2020/01/31 17:52:44.4	357.700	0.160	-0.810	-0.560
2020/01/31 17:52:44.5	357.710	0.200	-0.840	-0.550
2020/01/31 17:52:44.6	357.720	0.240	-0.850	-0.540
2020/01/31 17:52:44.7	357.730	0.280	-0.860	-0.520
2020/01/31 17:52:44.8	357.740	0.310	-0.880	-0.500
2020/01/31 17:52:44.9	357.750	0.340	-0.880	-0.480
2020/01/31 17:52:45.0	357.760	0.360	-0.870	-0.450
2020/01/31 17:52:45.1	357.770	0.380	-0.860	-0.430
2020/01/31 17:52:45.2	357.780	0.400	-0.850	-0.400
2020/01/31 17:52:45.3	357.780	0.410	-0.830	-0.380
2020/01/31 17:52:45.4	357.790	0.410	-0.800	-0.350
2020/01/31 17:52:45.5	357.790	0.410	-0.760	-0.320
2020/01/31 17:52:45.6	357.790	0.410	-0.720	-0.290
2020/01/31 17:52:45.7	357.790	0.390	-0.670	-0.260
2020/01/31 17:52:45.8	357.800	0.380	-0.620	-0.240
2020/01/31 17:52:45.9	357.800	0.360	-0.560	-0.200
2020/01/31 17:52:46.0	357.790	0.330	-0.500	-0.170
2020/01/31 17:52:46.1	357.780	0.300	-0.430	-0.140
2020/01/31 17:52:46.2	357.770	0.260	-0.360	-0.110
2020/01/31 17:52:46.3	357.760	0.230	-0.280	-0.070
2020/01/31 17:52:46.4	357.740	0.180	-0.200	-0.040
2020/01/31 17:52:46.5	357.720	0.140	-0.120	0.000
2020/01/31 17:52:46.6	357.700	0.090	-0.030	0.040
2020/01/31 17:52:46.7	357.680	0.040	0.060	0.080
2020/01/31 17:52:46.8	357.650	-0.010	0.140	0.120
2020/01/31 17:52:46.9	357.630	-0.060	0.230	0.170
2020/01/31 17:52:47.0	357.600	-0.110	0.320	0.210
2020/01/31 17:52:47.1	357.570	-0.150	0.400	0.260
2020/01/31 17:52:47.2	357.530	-0.200	0.480	0.310
2020/01/31 17:52:47.3	357.500	-0.250	0.560	0.360
2020/01/31 17:52:47.4	357.470	-0.290	0.630	0.400
2020/01/31 17:52:47.5	357.440	-0.330	0.700	0.450
2020/01/31 17:52:47.6	357.400	-0.370	0.760	0.500
2020/01/31 17:52:47.7	357.370	-0.400	0.810	0.550
2020/01/31 17:52:47.8	357.330	-0.420	0.860	0.590
2020/01/31 17:52:47.9	357.300	-0.440	0.890	0.630
2020/01/31 17:52:48.0	357.280	-0.460	0.920	0.670
2020/01/31 17:52:48.1	357.250	-0.470	0.930	0.710
2020/01/31 17:52:48.2	357.230	-0.470	0.930	0.740
2020/01/31 17:52:48.3	357.210	-0.470	0.930	0.770
2020/01/31 17:52:48.4	357.190	-0.460	0.900	0.790
2020/01/31 17:52:48.5	357.170	-0.450	0.870	0.810
2020/01/31 17:52:48.6	357.160	-0.420	0.820	0.830
2020/01/31 17:52:48.7	357.140	-0.400	0.770	0.840
2020/01/31 17:52:48.8	357.130	-0.360	0.700	0.840
2020/01/31 17:52:48.9	357.110	-0.320	0.630	0.850
2020/01/31 17:52:49.0	357.100	-0.280	0.540	0.840
2020/01/31 17:52:49.1	357.100	-0.230	0.450	0.840
2020/01/31 17:52:49.2	357.090	-0.180	0.350	0.830
2020/01/31 17:52:49.3	357.080	-0.120	0.240	0.820
2020/01/31 17:52:49.4	357.070	-0.070	0.130	0.810
2020/01/31 17:52:49.5	357.070	-0.010	0.020	0.790
2020/01/31 17:52:49.6	357.070	0.060	-0.100	0.770
2020/01/31 17:52:49.7	357.060	0.120	-0.210	0.740
2020/01/31 17:52:49.8	357.060	0.180	-0.330	0.710
2020/01/31 17:52:49.9	357.060	0.240	-0.450	0.680
2020/01/31 17:52:50.0	357.060	0.300	-0.560	0.650
2020/01/31 17:52:50.1	357.070	0.360	-0.670	0.620
2020/01/31 17:52:50.2	357.080	0.410	-0.770	0.580
2020/01/31 17:52:50.3	357.090	0.460	-0.870	0.540
2020/01/31 17:52:50.4	357.100	0.500	-0.970	0.490
2020/01/31 17:52:50.5	357.110	0.550	-1.050	0.450
2020/01/31 17:52:50.6	357.120	0.580	-1.130	0.400
2020/01/31 17:52:50.7	357.140	0.610	-1.210	0.350
2020/01/31 17:52:50.8	357.160	0.630	-1.260	0.300
2020/01/31 17:52:50.9	357.180	0.650	-1.320	0.250
2020/01/31 17:52:51.0	357.200	0.660	-1.360	0.190
2020/01/31 17:52:51.1	357.230	0.670	-1.400	0.140
2020/01/31 17:52:51.2	357.250	0.660	-1.420	0.080
2020/01/31 17:52:51.3	357.270	0.650	-1.440	0.020
2020/01/31 17:52:51.4	357.300	0.640	-1.450	-0.040
2020/01/31 17:52:51.5	357.320	0.620	-1.440	-0.090
2020/01/31 17:52:51.6	357.350	0.590	-1.430	-0.150
2020/01/31 17:52:51.7	357.380	0.550	-1.410	-0.210
2020/01/31 17:52:51.8	357.400	0.510	-1.380	-0.270
2020/01/31 17:52:51.9	357.430	0.470	-1.340	-0.330
2020/01/31 17:52:52.0	357.450	0.410	-1.290	-0.390
2020/01/31 17:52:52.1	357.470	0.360	-1.240	-0.440
2020/01/31 17:52:52.2	357.490	0.300	-1.170	-0.490
2020/01/31 17:52:52.3	357.510	0.240	-1.110	-0.540
2020/01/31 17:52:52.4	357.530	0.180	-1.030	-0.590
2020/01/31 17:52:52.5	357.550	0.110	-0.950	-0.640
2020/01/31 17:52:52.6	357.570	0.040	-0.870	-0.680
2020/01/31 17:52:52.7	357.580	-0.020	-0.780	-0.710
2020/01/31 17:52:52.8	357.600	-0.090	-0.690	-0.750
2020/01/31 17:52:52.9	357.610	-0.160	-0.600	-0.780
2020/01/31 17:52:53.0	357.610	-0.220	-0.510	-0.810
2020/01/31 17:52:53.1	357.620	-0.280	-0.410	-0.830
2020/01/31 17:52:53.2	357.630	-0.340	-0.310	-0.850
2020/01/31 17:52:53.3	357.630	-0.400	-0.220	-0.870
2020/01/31 17:52:53.4	357.630	-0.450	-0.130	-0.880
2020/01/31 17:52:53.5	357.630	-0.500	-0.030	-0.880
2020/01/31 17:52:53.6	357.630	-0.540	0.050	-0.880
2020/01/31 17:52:53.7	357.630	-0.580	0.140	-0.880
2020/01/31 17:52:53.8	357.620	-0.610	0.220	-0.880
2020/01/31 17:52:53.9	357.620	-0.640	0.300	-0.860
2020/01/31 17:52:54.0	357.610	-0.660	0.370	-0.840
2020/01/31 17:52:54.1	357.600	-0.670	0.440	-0.820
2020/01/31 17:52:54.2	357.590	-0.680	0.500	-0.790
2020/01/31 17:52:54.3	357.570	-0.680	0.550	-0.760
2020/01/31 17:52:54.4	357.550	-0.670	0.600	-0.730
2020/01/31 17:52:54.5	357.540	-0.660	0.640	-0.690
2020/01/31 17:52:54.6	357.510	-0.650	0.680	-0.640
2020/01/31 17:52:54.7	357.490	-0.630	0.700	-0.590
2020/01/31 17:52:54.8	357.460	-0.600	0.730	-0.540
2020/01/31 17:52:54.9	357.430	-0.570	0.740	-0.480
2020/01/31 17:52:55.0	357.390	-0.530	0.750	-0.420
2020/01/31 17:52:55.1	357.360	-0.500	0.750	-0.360
2020/01/31 17:52:55.2	357.330	-0.450	0.740	-0.300
2020/01/31 17:52:55.3	357.290	-0.410	0.730	-0.230
2020/01/31 17:52:55.4	357.250	-0.360	0.720	-0.160
2020/01/31 17:52:55.5	357.220	-0.310	0.690	-0.100
2020/01/31 17:52:55.6	357.180	-0.270	0.670	-0.030
2020/01/31 17:52:55.7	357.140	-0.220	0.630	0.030
2020/01/31 17:52:55.8	357.100	-0.170	0.590	0.100
2020/01/31 17:52:55.9	357.070	-0.120	0.550	0.160
2020/01/31 17:52:56.0	357.030	-0.070	0.510	0.220
2020/01/31 17:52:56.1	357.000	-0.020	0.450	0.270
2020/01/31 17:52:56.2	356.970	0.020	0.400	0.320
2020/01/31 17:52:56.3	356.950	0.070	0.340	0.370
2020/01/31 17:52:56.4	356.920	0.110	0.280	0.410
2020/01/31 17:52:56.5	356.900	0.140	0.220	0.440
2020/01/31 17:52:56.6	356.880	0.180	0.150	0.470
2020/01/31 17:52:56.7	356.870	0.210	0.090	0.500
2020/01/31 17:52:56.8	356.860	0.240	0.020	0.520
2020/01/31 17:52:56.9	356.860	0.270	-0.050	0.530
2020/01/31 17:52:57.0	356.860	0.290	-0.120	0.540
2020/01/31 17:52:57.1	356.860	0.310	-0.190	0.540
2020/01/31 17:52:57.2	356.870	0.330	-0.260	0.540
2020/01/31 17:52:57.3	356.880	0.350	-0.330	0.530
2020/01/31 17:52:57.4	356.900	0.360	-0.400	0.520
2020/01/31 17:52:57.5	356.910	0.370	-0.470	0.510
2020/01/31 17:52:57.6	356.930	0.370	-0.540	0.500
2020/01/31 17:52:57.7	356.950	0.370	-0.600	0.480
2020/01/31 17:52:57.8	356.980	0.370	-0.660	0.460
2020/01/31 17:52:57.9	357.000	0.370	-0.720	0.440
2020/01/31 17:52:58.0	357.030	0.370	-0.770	0.420
2020/01/31 17:52:58.1	357.050	0.360	-0.820	0.400
2020/01/31 17:52:58.2	357.070	0.350	-0.870	0.380
2020/01/31 17:52:58.3	357.090	0.340	-0.910	0.360
2020/01/31 17:52:58.4	357.110	0.330	-0.940	0.350
2020/01/31 17:52:58.5	357.130	0.310	-0.970	0.330
2020/01/31 17:52:58.6	357.150	0.300	-0.990	0.320
2020/01/31 17:52:58.7	357.170	0.280	-1.010	0.310
2020/01/31 17:52:58.8	357.190	0.270	-1.020	0.300
2020/01/31 17:52:58.9	357.200	0.250	-1.030	0.290
2020/01/31 17:52:59.0	357.210	0.240	-1.030	0.280
2020/01/31 17:52:59.1	357.230	0.220	-1.030	0.270
2020/01/31 17:52:59.2	357.240	0.210	-1.020	0.260
2020/01/31 17:52:59.3	357.250	0.190	-1.010	0.260
2020/01/31 17:52:59.4	357.260	0.180	-0.990	0.250
2020/01/31 17:52:59.5	357.270	0.160	-0.980	0.240
2020/01/31 17:52:59.6	357.280	0.150	-0.950	0.230
2020/01/31 17:52:59.7	357.290	0.130	-0.930	0.220
2020/01/31 17:52:59.8	357.300	0.120	-0.910	0.200
2020/01/31 17:52:59.9	357.310	0.110	-0.880	0.190
2020/01/31 17:53:00.0	357.320	0.090	-0.850	0.170
2020/01/31 17:53:00.1	357.330	0.080	-0.810	0.150
2020/01/31 17:53:00.2	357.340	0.070	-0.780	0.130
2020/01/31 17:53:00.3	357.350	0.060	-0.740	0.110
2020/01/31 17:53:00.4	357.360	0.050	-0.710	0.080
2020/01/31 17:53:00.5	357.370	0.040	-0.670	0.060
2020/01/31 17:53:00.6	357.380	0.030	-0.630	0.030
2020/01/31 17:53:00.7	357.390	0.020	-0.590	0.010
2020/01/31 17:53:00.8	357.390	0.010	-0.550	-0.020
2020/01/31 17:53:00.9	357.400	-0.000	-0.500	-0.050
2020/01/31 17:53:01.0	357.400	-0.010	-0.460	-0.070
2020/01/31 17:53:01.1	357.410	-0.020	-0.420	-0.090
2020/01/31 17:53:01.2	357.410	-0.030	-0.370	-0.110
2020/01/31 17:53:01.3	357.410	-0.040	-0.330	-0.130
2020/01/31 17:53:01.4	357.410	-0.050	-0.280	-0.140
2020/01/31 17:53:01.5	357.410	-0.060	-0.240	-0.150
2020/01/31 17:53:01.6	357.400	-0.070	-0.190	-0.150
2020/01/31 17:53:01.7	357.400	-0.080	-0.150	-0.160
2020/01/31 17:53:01.8	357.390	-0.090	-0.100	-0.160
2020/01/31 17:53:01.9	357.390	-0.100	-0.060	-0.160
2020/01/31 17:53:02.0	357.380	-0.110	-0.010	-0.160
2020/01/31 17:53:02.1	357.370	-0.120	0.030	-0.150
2020/01/31 17:53:02.2	357.360	-0.130	0.070	-0.150
2020/01/31 17:53:02.3	357.350	-0.140	0.110	-0.140
2020/01/31 17:53:02.4	357.350	-0.140	0.150	-0.140
2020/01/31 17:53:02.5	357.340	-0.150	0.180	-0.130
2020/01/31 17:53:02.6	357.330	-0.150	0.210	-0.120
2020/01/31 17:53:02.7	357.330	-0.160	0.240	-0.110
2020/01/31 17:53:02.8	357.320	-0.160	0.270	-0.110
2020/01/31 17:53:02.9	357.310	-0.160	0.290	-0.100
2020/01/31 17:53:03.0	357.310	-0.160	0.300	-0.100
2020/01/31 17:53:03.1	357.310	-0.160	0.310	-0.090
2020/01/31 17:53:03.2	357.300	-0.160	0.320	-0.090
2020/01/31 17:53:03.3	357.300	-0.160	0.330	-0.080
2020/01/31 17:53:03.4	357.300	-0.160	0.330	-0.070
2020/01/31 17:53:03.5	357.300	-0.150	0.330	-0.060
2020/01/31 17:53:03.6	357.290	-0.140	0.320	-0.050
2020/01/31 17:53:03.7	357.290	-0.140	0.320	-0.040
2020/01/31 17:53:03.8	357.280	-0.130	0.310	-0.030
2020/01/31 17:53:03.9	357.280	-0.120	0.290	-0.020
2020/01/31 17:53:04.0	357.270	-0.100	0.280	0.000
2020/01/31 17:53:04.1	357.270	-0.090	0.260	0.020
2020/01/31 17:53:04.2	357.260	-0.080	0.250	0.040
2020/01/31 17:53:04.3	357.250	-0.070	0.230	0.060
2020/01/31 17:53:04.4	357.250	-0.060	0.210	0.080
2020/01/31 17:53:04.5	357.240	-0.040	0.190	0.100
2020/01/31 17:53:04.6	357.230	-0.030	0.160	0.130
2020/01/31 17:53:04.7	357.220	-0.020	0.140	0.150
2020/01/31 17:53:04.8	357.220	-0.010	0.120	0.170
2020/01/31 17:53:04.9	357.210	0.000	0.100	0.190
2020/01/31 17:53:05.0	357.200	0.020	0.070	0.210
2020/01/31 17:53:05.1	357.200	0.030	0.040	0.220
2020/01/31 17:53:05.2	357.190	0.030	0.020	0.240
2020/01/31 17:53:05.3	357.190	0.040	-0.010	0.250
2020/01/31 17:53:05.4	357.180	0.050	-0.040	0.260
2020/01/31 17:53:05.5	357.180	0.060	-0.080	0.270
2020/01/31 17:53:05.6	357.170	0.060	-0.110	0.280
2020/01/31 17:53:05.7	357.170	0.060	-0.140	0.280
2020/01/31 17:53:05.8	357.160	0.070	-0.180	0.280
2020/01/31 17:53:05.9	357.150	0.070	-0.210	0.290
2020/01/31 17:53:06.0	357.140	0.070	-0.240	0.280
2020/01/31 17:53:06.1	357.130	0.070	-0.280	0.280
2020/01/31 17:53:06.2	357.120	0.070	-0.310	0.280
2020/01/31 17:53:06.3	357.110	0.060	-0.340	0.270
2020/01/31 17:53:06.4	357.100	0.060	-0.370	0.260
2020/01/31 17:53:06.5	357.080	0.050	-0.400	0.260
2020/01/31 17:53:06.6	357.070	0.050	-0.430	0.250
2020/01/31 17:53:06.7	357.050	0.040	-0.460	0.240
2020/01/31 17:53:06.8	357.030	0.030	-0.480	0.220
2020/01/31 17:53:06.9	357.010	0.030	-0.500	0.210
2020/01/31 17:53:07.0	356.990	0.020	-0.530	0.200
2020/01/31 17:53:07.1	356.970	0.010	-0.550	0.190
2020/01/31 17:53:07.2	356.950	0.010	-0.570	0.170
2020/01/31 17:53:07.3	356.940	0.000	-0.590	0.160
2020/01/31 17:53:07.4	356.920	-0.000	-0.600	0.140
2020/01/31 17:53:07.5	356.900	-0.010	-0.610	0.130
2020/01/31 17:53:07.6	356.880	-0.010	-0.630	0.110
2020/01/31 17:53:07.7	356.870	-0.010	-0.640	0.090
2020/01/31 17:53:07.8	356.850	-0.010	-0.640	0.080
2020/01/31 17:53:07.9	356.840	-0.010	-0.650	0.060
2020/01/31 17:53:08.0	356.830	-0.010	-0.660	0.040
2020/01/31 17:53:08.1	356.820	-0.000	-0.660	0.020
2020/01/31 17:53:08.2	356.810	0.000	-0.670	0.010
2020/01/31 17:53:08.3	356.800	0.010	-0.670	-0.010
2020/01/31 17:53:08.4	356.800	0.020	-0.670	-0.030
2020/01/31 17:53:08.5	356.800	0.030	-0.670	-0.060
2020/01/31 17:53:08.6	356.800	0.040	-0.670	-0.080
2020/01/31 17:53:08.7	356.800	0.050	-0.670	-0.100
2020/01/31 17:53:08.8	356.800	0.070	-0.680	-0.130
2020/01/31 17:53:08.9	356.810	0.080	-0.680	-0.150
2020/01/31 17:53:09.0	356.810	0.100	-0.680	-0.170
2020/01/31 17:53:09.1	356.820	0.110	-0.680	-0.190
2020/01/31 17:53:09.2	356.830	0.130	-0.670	-0.210
2020/01/31 17:53:09.3	356.840	0.140	-0.670	-0.230
2020/01/31 17:53:09.4	356.860	0.160	-0.670	-0.250
2020/01/31 17:53:09.5	356.870	0.180	-0.660	-0.260
2020/01/31 17:53:09.6	356.880	0.190	-0.650	-0.270
2020/01/31 17:53:09.7	356.890	0.200	-0.640	-0.280
2020/01/31 17:53:09.8	356.900	0.210	-0.630	-0.290
2020/01/31 17:53:09.9	356.910	0.220	-0.610	-0.290
2020/01/31 17:53:10.0	356.920	0.230	-0.590	-0.290
2020/01/31 17:53:10.1	356.930	0.240	-0.570	-0.290
2020/01/31 17:53:10.2	356.940	0.240	-0.550	-0.280
2020/01/31 17:53:10.3	356.950	0.240	-0.520	-0.270
2020/01/31 17:53:10.4	356.950	0.240	-0.490	-0.260
2020/01/31 17:53:10.5	356.960	0.240	-0.460	-0.250
2020/01/31 17:53:10.6	356.970	0.230	-0.430	-0.230
2020/01/31 17:53:10.7	356.970	0.220	-0.390	-0.220
2020/01/31 17:53:10.8	356.970	0.210	-0.360	-0.200
2020/01/31 17:53:10.9	356.970	0.190	-0.320	-0.180
2020/01/31 17:53:11.0	356.970	0.170	-0.280	-0.160
2020/01/31 17:53:11.1	356.970	0.150	-0.240	-0.140
2020/01/31 17:53:11.2	356.970	0.130	-0.190	-0.130
2020/01/31 17:53:11.3	356.970	0.110	-0.150	-0.110
2020/01/31 17:53:11.4	356.970	0.080	-0.110	-0.090
2020/01/31 17:53:11.5	356.970	0.050	-0.070	-0.070
2020/01/31 17:53:11.6	356.970	0.030	-0.020	-0.050
2020/01/31 17:53:11.7	356.970	-0.000	0.020	-0.030
2020/01/31 17:53:11.8	356.960	-0.030	0.060	-0.010
2020/01/31 17:53:11.9	356.960	-0.060	0.100	0.000
2020/01/31 17:53:12.0	356.960	-0.090	0.140	0.020
2020/01/31 17:53:12.1	356.950	-0.120	0.180	0.040
2020/01/31 17:53:12.2	356.950	-0.150	0.210	0.060
2020/01/31 17:53:12.3	356.950	-0.170	0.250	0.080
2020/01/31 17:53:12.4	356.950	-0.200	0.280	0.100
2020/01/31 17:53:12.5	356.940	-0.220	0.310	0.120
2020/01/31 17:53:12.6	356.940	-0.240	0.340	0.150
2020/01/31 17:53:12.7	356.940	-0.260	0.360	0.170
2020/01/31 17:53:12.8	356.930	-0.280	0.390	0.190
2020/01/31 17:53:12.9	356.930	-0.290	0.410	0.220
2020/01/31 17:53:13.0	356.920	-0.300	0.420	0.250
2020/01/31 17:53:13.1	356.920	-0.310	0.430	0.270
2020/01/31 17:53:13.2	356.920	-0.310	0.430	0.300
2020/01/31 17:53:13.3	356.910	-0.320	0.430	0.320
2020/01/31 17:53:13.4	356.910	-0.320	0.430	0.350
2020/01/31 17:53:13.5	356.900	-0.310	0.420	0.370
2020/01/31 17:53:13.6	356.890	-0.310	0.400	0.390
2020/01/31 17:53:13.7	356.890	-0.300	0.380	0.410
2020/01/31 17:53:13.8	356.880	-0.290	0.350	0.430
2020/01/31 17:53:13.9	356.880	-0.280	0.320	0.440
2020/01/31 17:53:14.0	356.870	-0.260	0.280	0.450
2020/01/31 17:53:14.1	356.860	-0.250	0.230	0.460
2020/01/31 17:53:14.2	356.840	-0.230	0.190	0.460
2020/01/31 17:53:14.3	356.830	-0.210	0.130	0.470
2020/01/31 17:53:14.4	356.820	-0.190	0.080	0.470
2020/01/31 17:53:14.5	356.810	-0.170	0.020	0.460
2020/01/31 17:53:14.6	356.790	-0.150	-0.050	0.460
2020/01/31 17:53:14.7	356.780	-0.130	-0.110	0.450
2020/01/31 17:53:14.8	356.770	-0.110	-0.170	0.430
2020/01/31 17:53:14.9	356.760	-0.090	-0.240	0.420
2020/01/31 17:53:15.0	356.750	-0.060	-0.310	0.400
2020/01/31 17:53:15.1	356.730	-0.040	-0.380	0.390
2020/01/31 17:53:15.2	356.720	-0.020	-0.440	0.370
2020/01/31 17:53:15.3	356.710	-0.000	-0.500	0.350
2020/01/31 17:53:15.4	356.690	0.020	-0.560	0.330
2020/01/31 17:53:15.5	356.680	0.040	-0.620	0.300
2020/01/31 17:53:15.6	356.670	0.050	-0.670	0.280
2020/01/31 17:53:15.7	356.650	0.070	-0.720	0.260
2020/01/31 17:53:15.8	356.650	0.080	-0.760	0.230
2020/01/31 17:53:15.9	356.630	0.090	-0.800	0.210
2020/01/31 17:53:16.0	356.620	0.100	-0.830	0.190
2020/01/31 17:53:16.1	356.620	0.110	-0.860	0.160
2020/01/31 17:53:16.2	356.610	0.110	-0.870	0.140
2020/01/31 17:53:16.3	356.600	0.120	-0.880	0.110
2020/01/31 17:53:16.4	356.600	0.120	-0.890	0.080
2020/01/31 17:53:16.5	356.590	0.120	-0.880	0.060
2020/01/31 17:53:16.6	356.590	0.110	-0.870	0.030
2020/01/31 17:53:16.7	356.590	0.110	-0.860	0.000
2020/01/31 17:53:16.8	356.580	0.100	-0.830	-0.030
2020/01/31 17:53:16.9	356.580	0.090	-0.800	-0.060
2020/01/31 17:53:17.0	356.580	0.080	-0.770	-0.090
2020/01/31 17:53:17.1	356.590	0.070	-0.730	-0.120
2020/01/31 17:53:17.2	356.590	0.060	-0.690	-0.150
2020/01/31 17:53:17.3	356.600	0.040	-0.640	-0.180
2020/01/31 17:53:17.4	356.610	0.030	-0.590	-0.200
2020/01/31 17:53:17.5	356.620	0.020	-0.540	-0.230
2020/01/31 17:53:17.6	356.630	-0.000	-0.480	-0.250
2020/01/31 17:53:17.7	356.640	-0.020	-0.430	-0.280
2020/01/31 17:53:17.8	356.660	-0.030	-0.370	-0.300
2020/01/31 17:53:17.9	356.670	-0.050	-0.310	-0.320
2020/01/31 17:53:18.0	356.690	-0.060	-0.260	-0.340
2020/01/31 17:53:18.1	356.700	-0.080	-0.200	-0.350
2020/01/31 17:53:18.2	356.720	-0.100	-0.150	-0.360
2020/01/31 17:53:18.3	356.740	-0.110	-0.100	-0.370
2020/01/31 17:53:18.4	356.750	-0.130	-0.050	-0.380
2020/01/31 17:53:18.5	356.770	-0.140	-0.000	-0.380
2020/01/31 17:53:18.6	356.780	-0.150	0.040	-0.390
2020/01/31 17:53:18.7	356.800	-0.160	0.080	-0.380
2020/01/31 17:53:18.8	356.810	-0.170	0.120	-0.380
2020/01/31 17:53:18.9	356.820	-0.180	0.150	-0.380
2020/01/31 17:53:19.0	356.840	-0.190	0.180	-0.370
2020/01/31 17:53:19.1	356.850	-0.190	0.200	-0.350
2020/01/31 17:53:19.2	356.850	-0.200	0.220	-0.340
2020/01/31 17:53:19.3	356.860	-0.200	0.240	-0.320
2020/01/31 17:53:19.4	356.870	-0.200	0.250	-0.300
2020/01/31 17:53:19.5	356.870	-0.190	0.250	-0.280
2020/01/31 17:53:19.6	356.880	-0.190	0.250	-0.260
2020/01/31 17:53:19.7	356.880	-0.180	0.250	-0.230
2020/01/31 17:53:19.8	356.880	-0.170	0.240	-0.210
2020/01/31 17:53:19.9	356.880	-0.160	0.220	-0.180
2020/01/31 17:53:20.0	356.880	-0.140	0.200	-0.150
2020/01/31 17:53:20.1	356.880	-0.120	0.180	-0.120
2020/01/31 17:53:20.2	356.880	-0.100	0.150	-0.080
2020/01/31 17:53:20.3	356.880	-0.080	0.110	-0.040
2020/01/31 17:53:20.4	356.870	-0.060	0.080	-0.010
2020/01/31 17:53:20.5	356.870	-0.030	0.040	0.040
2020/01/31 17:53:20.6	356.860	0.000	-0.000	0.080
2020/01/31 17:53:20.7	356.860	0.030	-0.050	0.130
2020/01/31 17:53:20.8	356.850	0.060	-0.090	0.170
2020/01/31 17:53:20.9	356.840	0.090	-0.140	0.230
2020/01/31 17:53:21.0	356.840	0.130	-0.180	0.280
2020/01/31 17:53:21.1	356.820	0.160	-0.230	0.340
2020/01/31 17:53:21.2	356.810	0.200	-0.270	0.400
2020/01/31 17:53:21.3	356.800	0.230	-0.310	0.460
2020/01/31 17:53:21.4	356.780	0.260	-0.350	0.520
2020/01/31 17:53:21.5	356.770	0.300	-0.390	0.580
2020/01/31 17:53:21.6	356.750	0.330	-0.430	0.640
2020/01/31 17:53:21.7	356.730	0.360	-0.460	0.700
2020/01/31 17:53:21.8	356.720	0.390	-0.500	0.760
2020/01/31 17:53:21.9	356.700	0.410	-0.530	0.820
2020/01/31 17:53:22.0	356.680	0.440	-0.560	0.870
2020/01/31 17:53:22.1	356.660	0.460	-0.580	0.920
2020/01/31 17:53:22.2	356.650	0.480	-0.610	0.970
2020/01/31 17:53:22.3	356.630	0.500	-0.630	1.010
2020/01/31 17:53:22.4	356.610	0.510	-0.660	1.040
2020/01/31 17:53:22.5	356.600	0.520	-0.680	1.070
2020/01/31 17:53:22.6	356.590	0.530	-0.700	1.100
2020/01/31 17:53:22.7	356.580	0.540	-0.720	1.110
2020/01/31 17:53:22.8	356.580	0.540	-0.740	1.120
2020/01/31 17:53:22.9	356.580	0.540	-0.760	1.120
2020/01/31 17:53:23.0	356.580	0.540	-0.780	1.120
2020/01/31 17:53:23.1	356.590	0.530	-0.790	1.100
2020/01/31 17:53:23.2	356.600	0.520	-0.810	1.080
2020/01/31 17:53:23.3	356.610	0.510	-0.830	1.050
2020/01/31 17:53:23.4	356.630	0.500	-0.840	1.020
2020/01/31 17:53:23.5	356.650	0.480	-0.850	0.970
2020/01/31 17:53:23.6	356.670	0.470	-0.860	0.920
2020/01/31 17:53:23.7	356.700	0.450	-0.870	0.870
2020/01/31 17:53:23.8	356.740	0.430	-0.880	0.800
2020/01/31 17:53:23.9	356.780	0.400	-0.880	0.730
2020/01/31 17:53:24.0	356.810	0.370	-0.880	0.660
2020/01/31 17:53:24.1	356.850	0.350	-0.880	0.590
2020/01/31 17:53:24.2	356.900	0.310	-0.870	0.510
2020/01/31 17:53:24.3	356.940	0.280	-0.860	0.430
2020/01/31 17:53:24.4	356.970	0.250	-0.840	0.360
2020/01/31 17:53:24.5	357.010	0.210	-0.820	0.280
2020/01/31 17:53:24.6	357.050	0.170	-0.790	0.200
2020/01/31 17:53:24.7	357.080	0.130	-0.750	0.120
2020/01/31 17:53:24.8	357.100	0.080	-0.710	0.040
2020/01/31 17:53:24.9	357.130	0.040	-0.660	-0.030
2020/01/31 17:53:25.0	357.150	-0.010	-0.610	-0.100
2020/01/31 17:53:25.1	357.170	-0.060	-0.550	-0.170
2020/01/31 17:53:25.2	357.180	-0.110	-0.480	-0.240
2020/01/31 17:53:25.3	357.190	-0.160	-0.410	-0.300
2020/01/31 17:53:25.4	357.200	-0.210	-0.340	-0.360
2020/01/31 17:53:25.5	357.200	-0.260	-0.260	-0.420
2020/01/31 17:53:25.6	357.200	-0.310	-0.180	-0.470
2020/01/31 17:53:25.7	357.200	-0.360	-0.100	-0.520
2020/01/31 17:53:25.8	357.190	-0.410	-0.010	-0.570
2020/01/31 17:53:25.9	357.180	-0.460	0.070	-0.610
2020/01/31 17:53:26.0	357.170	-0.510	0.160	-0.650
2020/01/31 17:53:26.1	357.160	-0.560	0.240	-0.680
2020/01/31 17:53:26.2	357.140	-0.600	0.320	-0.710
2020/01/31 17:53:26.3	357.130	-0.640	0.400	-0.740
2020/01/31 17:53:26.4	357.110	-0.680	0.470	-0.760
2020/01/31 17:53:26.5	357.100	-0.710	0.540	-0.780
2020/01/31 17:53:26.6	357.080	-0.740	0.600	-0.790
2020/01/31 17:53:26.7	357.060	-0.770	0.660	-0.800
2020/01/31 17:53:26.8	357.040	-0.790	0.710	-0.820
2020/01/31 17:53:26.9	357.030	-0.810	0.750	-0.820
2020/01/31 17:53:27.0	357.010	-0.820	0.790	-0.830
2020/01/31 17:53:27.1	357.000	-0.830	0.820	-0.830
2020/01/31 17:53:27.2	356.990	-0.830	0.840	-0.820
2020/01/31 17:53:27.3	356.970	-0.830	0.850	-0.820
2020/01/31 17:53:27.4	356.960	-0.820	0.850	-0.810
2020/01/31 17:53:27.5	356.950	-0.810	0.840	-0.800
2020/01/31 17:53:27.6	356.940	-0.790	0.820	-0.790
2020/01/31 17:53:27.7	356.930	-0.760	0.790	-0.770
2020/01/31 17:53:27.8	356.920	-0.730	0.760	-0.750
2020/01/31 17:53:27.9	356.920	-0.700	0.720	-0.730
2020/01/31 17:53:28.0	356.910	-0.660	0.670	-0.710
2020/01/31 17:53:28.1	356.910	-0.610	0.610	-0.690
2020/01/31 17:53:28.2	356.910	-0.560	0.550	-0.660
2020/01/31 17:53:28.3	356.900	-0.510	0.480	-0.640
2020/01/31 17:53:28.4	356.900	-0.450	0.410	-0.610
2020/01/31 17:53:28.5	356.900	-0.390	0.330	-0.580
2020/01/31 17:53:28.6	356.910	-0.330	0.250	-0.560
2020/01/31 17:53:28.7	356.910	-0.270	0.170	-0.530
2020/01/31 17:53:28.8	356.900	-0.200	0.090	-0.500
2020/01/31 17:53:28.9	356.910	-0.140	0.010	-0.470
2020/01/31 17:53:29.0	356.910	-0.070	-0.070	-0.440
2020/01/31 17:53:29.1	356.910	-0.010	-0.150	-0.400
2020/01/31 17:53:29.2	356.920	0.050	-0.230	-0.370
2020/01/31 17:53:29.3	356.920	0.120	-0.310	-0.340
2020/01/31 17:53:29.4	356.920	0.180	-0.380	-0.300
2020/01/31 17:53:29.5	356.930	0.230	-0.440	-0.260
2020/01/31 17:53:29.6	356.930	0.290	-0.510	-0.220
2020/01/31 17:53:29.7	356.930	0.340	-0.560	-0.180
2020/01/31 17:53:29.8	356.930	0.390	-0.610	-0.140
2020/01/31 17:53:29.9	356.930	0.430	-0.660	-0.090
2020/01/31 17:53:30.0	356.920	0.470	-0.700	-0.040
2020/01/31 17:53:30.1	356.920	0.500	-0.730	0.010
2020/01/31 17:53:30.2	356.910	0.530	-0.760	0.060
2020/01/31 17:53:30.3	356.900	0.560	-0.780	0.120
2020/01/31 17:53:30.4	356.880	0.570	-0.790	0.170
2020/01/31 17:53:30.5	356.870	0.590	-0.800	0.220
2020/01/31 17:53:30.6	356.860	0.590	-0.800	0.280
2020/01/31 17:53:30.7	356.840	0.600	-0.800	0.330
2020/01/31 17:53:30.8	356.830	0.590	-0.790	0.390
2020/01/31 17:53:30.9	356.810	0.580	-0.770	0.430
2020/01/31 17:53:31.0	356.790	0.570	-0.750	0.480
2020/01/31 17:53:31.1	356.770	0.550	-0.730	0.520
2020/01/31 17:53:31.2	356.750	0.530	-0.700	0.560
2020/01/31 17:53:31.3	356.730	0.500	-0.670	0.590
2020/01/31 17:53:31.4	356.710	0.470	-0.640	0.620
2020/01/31 17:53:31.5	356.690	0.430	-0.610	0.640
2020/01/31 17:53:31.6	356.670	0.400	-0.570	0.660
2020/01/31 17:53:31.7	356.650	0.360	-0.540	0.670
2020/01/31 17:53:31.8	356.630	0.320	-0.500	0.680
2020/01/31 17:53:31.9	356.620	0.280	-0.460	0.680
2020/01/31 17:53:32.0	356.600	0.230	-0.430	0.680
2020/01/31 17:53:32.1	356.580	0.190	-0.400	0.670
2020/01/31 17:53:32.2	356.570	0.150	-0.370	0.650
2020/01/31 17:53:32.3	356.560	0.110	-0.340	0.640
2020/01/31 17:53:32.4	356.550	0.070	-0.320	0.620
2020/01/31 17:53:32.5	356.530	0.030	-0.290	0.590
2020/01/31 17:53:32.6	356.520	-0.000	-0.270	0.560
2020/01/31 17:53:32.7	356.520	-0.040	-0.260	0.530
2020/01/31 17:53:32.8	356.510	-0.070	-0.240	0.490
2020/01/31 17:53:32.9	356.500	-0.090	-0.240	0.450
2020/01/31 17:53:33.0	356.500	-0.120	-0.230	0.410
2020/01/31 17:53:33.1	356.490	-0.140	-0.230	0.360
2020/01/31 17:53:33.2	356.490	-0.160	-0.230	0.320
2020/01/31 17:53:33.3	356.500	-0.180	-0.240	0.260
2020/01/31 17:53:33.4	356.500	-0.190	-0.250	0.210
2020/01/31 17:53:33.5	356.510	-0.200	-0.260	0.150
2020/01/31 17:53:33.6	356.520	-0.210	-0.270	0.090
2020/01/31 17:53:33.7	356.530	-0.210	-0.290	0.030
2020/01/31 17:53:33.8	356.550	-0.210	-0.310	-0.030
2020/01/31 17:53:33.9	356.570	-0.210	-0.330	-0.090
2020/01/31 17:53:34.0	356.590	-0.200	-0.360	-0.150
2020/01/31 17:53:34.1	356.610	-0.200	-0.380	-0.210
2020/01/31 17:53:34.2	356.630	-0.190	-0.410	-0.270
2020/01/31 17:53:34.3	356.660	-0.170	-0.430	-0.330
2020/01/31 17:53:34.4	356.690	-0.160	-0.460	-0.390
2020/01/31 17:53:34.5	356.720	-0.150	-0.480	-0.440
2020/01/31 17:53:34.6	356.750	-0.130	-0.510	-0.500
2020/01/31 17:53:34.7	356.790	-0.110	-0.540	-0.540
2020/01/31 17:53:34.8	356.820	-0.090	-0.560	-0.590
2020/01/31 17:53:34.9	356.850	-0.070	-0.580	-0.630
2020/01/31 17:53:35.0	356.880	-0.050	-0.600	-0.670
2020/01/31 17:53:35.1	356.920	-0.030	-0.620	-0.710
2020/01/31 17:53:35.2	356.950	-0.010	-0.630	-0.740
2020/01/31 17:53:35.3	356.980	0.000	-0.640	-0.760
2020/01/31 17:53:35.4	357.010	0.020	-0.650	-0.790
2020/01/31 17:53:35.5	357.040	0.040	-0.650	-0.800
2020/01/31 17:53:35.6	357.070	0.050	-0.660	-0.820
2020/01/31 17:53:35.7	357.090	0.060	-0.650	-0.830
2020/01/31 17:53:35.8	357.120	0.070	-0.650	-0.840
2020/01/31 17:53:35.9	357.140	0.080	-0.640	-0.850
2020/01/31 17:53:36.0	357.160	0.090	-0.630	-0.850
2020/01/31 17:53:36.1	357.180	0.100	-0.610	-0.850
2020/01/31 17:53:36.2	357.200	0.100	-0.590	-0.850
2020/01/31 17:53:36.3	357.220	0.110	-0.570	-0.840
2020/01/31 17:53:36.4	357.230	0.110	-0.540	-0.820
2020/01/31 17:53:36.5	357.240	0.110	-0.510	-0.810
2020/01/31 17:53:36.6	357.250	0.110	-0.480	-0.790
2020/01/31 17:53:36.7	357.260	0.100	-0.450	-0.760
2020/01/31 17:53:36.8	357.270	0.100	-0.410	-0.740
2020/01/31 17:53:36.9	357.270	0.100	-0.370	-0.700
2020/01/31 17:53:37.0	357.270	0.090	-0.330	-0.670
2020/01/31 17:53:37.1	357.270	0.090	-0.280	-0.630
2020/01/31 17:53:37.2	357.270	0.090	-0.240	-0.580
2020/01/31 17:53:37.3	357.270	0.080	-0.190	-0.540
2020/01/31 17:53:37.4	357.260	0.070	-0.140	-0.490
2020/01/31 17:53:37.5	357.250	0.070	-0.100	-0.440
2020/01/31 17:53:37.6	357.240	0.060	-0.050	-0.390
2020/01/31 17:53:37.7	357.230	0.060	-0.010	-0.330
2020/01/31 17:53:37.8	357.220	0.050	0.030	-0.280
2020/01/31 17:53:37.9	357.210	0.050	0.080	-0.230
2020/01/31 17:53:38.0	357.200	0.040	0.110	-0.180
2020/01/31 17:53:38.1	357.180	0.040	0.150	-0.130
2020/01/31 17:53:38.2	357.170	0.030	0.180	-0.080
2020/01/31 17:53:38.3	357.150	0.030	0.210	-0.040
2020/01/31 17:53:38.4	357.130	0.020	0.230	0.010
2020/01/31 17:53:38.5	357.120	0.020	0.260	0.050
2020/01/31 17:53:38.6	357.100	0.010	0.270	0.080
2020/01/31 17:53:38.7	357.080	0.010	0.290	0.120
2020/01/31 17:53:38.8	357.060	0.000	0.300	0.150
2020/01/31 17:53:38.9	357.040	-0.000	0.310	0.170
2020/01/31 17:53:39.0	357.020	-0.010	0.310	0.200
2020/01/31 17:53:39.1	357.000	-0.020	0.310	0.220
2020/01/31 17:53:39.2	356.980	-0.020	0.300	0.230
2020/01/31 17:53:39.3	356.970	-0.030	0.300	0.240
2020/01/31 17:53:39.4	356.950	-0.040	0.290	0.250
2020/01/31 17:53:39.5	356.930	-0.050	0.270	0.250
2020/01/31 17:53:39.6	356.910	-0.060	0.250	0.250
2020/01/31 17:53:39.7	356.900	-0.070	0.230	0.250
2020/01/31 17:53:39.8	356.880	-0.080	0.200	0.240
2020/01/31 17:53:39.9	356.860	-0.080	0.180	0.230
2020/01/31 17:53:40.0	356.850	-0.090	0.150	0.230
2020/01/31 17:53:40.1	356.840	-0.100	0.120	0.210
2020/01/31 17:53:40.2	356.820	-0.110	0.090	0.200
2020/01/31 17:53:40.3	356.810	-0.120	0.060	0.190
2020/01/31 17:53:40.4	356.800	-0.130	0.020	0.180
2020/01/31 17:53:40.5	356.790	-0.130	-0.010	0.170
2020/01/31 17:53:40.6	356.780	-0.140	-0.040	0.160
2020/01/31 17:53:40.7	356.770	-0.150	-0.070	0.150
2020/01/31 17:53:40.8	356.760	-0.150	-0.090	0.140
2020/01/31 17:53:40.9	356.750	-0.160	-0.120	0.130
2020/01/31 17:53:41.0	356.740	-0.160	-0.140	0.120
2020/01/31 17:53:41.1	356.730	-0.160	-0.170	0.120
2020/01/31 17:53:41.2	356.720	-0.160	-0.190	0.110
2020/01/31 17:53:41.3	356.710	-0.160	-0.210	0.110
2020/01/31 17:53:41.4	356.700	-0.160	-0.230	0.100
2020/01/31 17:53:41.5	356.690	-0.160	-0.250	0.100
2020/01/31 17:53:41.6	356.680	-0.150	-0.260	0.090
2020/01/31 17:53:41.7	356.680	-0.150	-0.280	0.090
2020/01/31 17:53:41.8	356.680	-0.140	-0.290	0.090
2020/01/31 17:53:41.9	356.670	-0.130	-0.310	0.080
2020/01/31 17:53:42.0	356.670	-0.120	-0.320	0.080
2020/01/31 17:53:42.1	356.670	-0.100	-0.330	0.080
2020/01/31 17:53:42.2	356.660	-0.090	-0.340	0.070
2020/01/31 17:53:42.3	356.660	-0.070	-0.350	0.070
2020/01/31 17:53:42.4	356.660	-0.050	-0.360	0.070
2020/01/31 17:53:42.5	356.650	-0.040	-0.370	0.070
2020/01/31 17:53:42.6	356.650	-0.020	-0.380	0.060
2020/01/31 17:53:42.7	356.650	0.000	-0.380	0.060
2020/01/31 17:53:42.8	356.640	0.020	-0.390	0.060
2020/01/31 17:53:42.9	356.640	0.040	-0.390	0.050
2020/01/31 17:53:43.0	356.630	0.060	-0.400	0.050
2020/01/31 17:53:43.1	356.630	0.080	-0.400	0.040
2020/01/31 17:53:43.2	356.620	0.100	-0.410	0.030
2020/01/31 17:53:43.3	356.610	0.120	-0.410	0.030
2020/01/31 17:53:43.4	356.610	0.140	-0.410	0.020
2020/01/31 17:53:43.5	356.600	0.150	-0.420	0.010
2020/01/31 17:53:43.6	356.590	0.170	-0.420	0.000
2020/01/31 17:53:43.7	356.590	0.180	-0.430	-0.010
2020/01/31 17:53:43.8	356.580	0.190	-0.430	-0.020
2020/01/31 17:53:43.9	356.580	0.200	-0.430	-0.030
2020/01/31 17:53:44.0	356.580	0.210	-0.440	-0.040
2020/01/31 17:53:44.1	356.590	0.220	-0.440	-0.050
2020/01/31 17:53:44.2	356.600	0.220	-0.450	-0.070
2020/01/31 17:53:44.3	356.610	0.230	-0.460	-0.080
2020/01/31 17:53:44.4	356.620	0.230	-0.460	-0.100
2020/01/31 17:53:44.5	356.640	0.230	-0.470	-0.110
2020/01/31 17:53:44.6	356.660	0.230	-0.480	-0.130
2020/01/31 17:53:44.7	356.690	0.220	-0.490	-0.150
2020/01/31 17:53:44.8	356.720	0.220	-0.500	-0.170
2020/01/31 17:53:44.9	356.760	0.210	-0.520	-0.190
2020/01/31 17:53:45.0	356.790	0.200	-0.530	-0.220
2020/01/31 17:53:45.1	356.830	0.190	-0.540	-0.240
2020/01/31 17:53:45.2	356.870	0.180	-0.560	-0.270
2020/01/31 17:53:45.3	356.920	0.170	-0.570	-0.290
2020/01/31 17:53:45.4	356.960	0.150	-0.580	-0.320
2020/01/31 17:53:45.5	357.000	0.140	-0.590	-0.350
2020/01/31 17:53:45.6	357.040	0.120	-0.600	-0.370
2020/01/31 17:53:45.7	357.090	0.100	-0.600	-0.390
2020/01/31 17:53:45.8	357.120	0.080	-0.600	-0.420
2020/01/31 17:53:45.9	357.160	0.060	-0.600	-0.440
2020/01/31 17:53:46.0	357.200	0.040	-0.600	-0.460
2020/01/31 17:53:46.1	357.230	0.010	-0.590	-0.480
2020/01/31 17:53:46.2	357.260	-0.010	-0.580	-0.500
2020/01/31 17:53:46.3	357.290	-0.030	-0.570	-0.520
2020/01/31 17:53:46.4	357.320	-0.060	-0.550	-0.530
2020/01/31 17:53:46.5	357.340	-0.080	-0.530	-0.540
2020/01/31 17:53:46.6	357.370	-0.100	-0.510	-0.550
2020/01/31 17:53:46.7	357.390	-0.130	-0.480	-0.560
2020/01/31 17:53:46.8	357.400	-0.150	-0.450	-0.560
2020/01/31 17:53:46.9	357.420	-0.170	-0.420	-0.560
2020/01/31 17:53:47.0	357.430	-0.180	-0.390	-0.560
2020/01/31 17:53:47.1	357.440	-0.200	-0.350	-0.550
2020/01/31 17:53:47.2	357.450	-0.220	-0.310	-0.530
2020/01/31 17:53:47.3	357.450	-0.230	-0.270	-0.520
2020/01/31 17:53:47.4	357.450	-0.240	-0.230	-0.500
2020/01/31 17:53:47.5	357.460	-0.250	-0.190	-0.470
2020/01/31 17:53:47.6	357.460	-0.250	-0.150	-0.440
2020/01/31 17:53:47.7	357.450	-0.250	-0.110	-0.410
2020/01/31 17:53:47.8	357.440	-0.250	-0.070	-0.380
2020/01/31 17:53:47.9	357.440	-0.250	-0.030	-0.340
2020/01/31 17:53:48.0	357.430	-0.250	0.010	-0.300
2020/01/31 17:53:48.1	357.430	-0.240	0.050	-0.260
2020/01/31 17:53:48.2	357.420	-0.230	0.080	-0.210
2020/01/31 17:53:48.3	357.410	-0.210	0.110	-0.160
2020/01/31 17:53:48.4	357.400	-0.200	0.140	-0.120
2020/01/31 17:53:48.5	357.390	-0.180	0.170	-0.060
2020/01/31 17:53:48.6	357.370	-0.160	0.190	-0.010
2020/01/31 17:53:48.7	357.360	-0.140	0.210	0.040
2020/01/31 17:53:48.8	357.340	-0.110	0.230	0.100
2020/01/31 17:53:48.9	357.320	-0.090	0.240	0.150
2020/01/31 17:53:49.0	357.290	-0.070	0.250	0.210
2020/01/31 17:53:49.1	357.270	-0.040	0.260	0.270
2020/01/31 17:53:49.2	357.230	-0.020	0.260	0.320
2020/01/31 17:53:49.3	357.200	0.010	0.270	0.380
2020/01/31 17:53:49.4	357.160	0.030	0.270	0.440
2020/01/31 17:53:49.5	357.120	0.050	0.270	0.490
2020/01/31 17:53:49.6	357.080	0.070	0.260	0.540
2020/01/31 17:53:49.7	357.040	0.090	0.250	0.590
2020/01/31 17:53:49.8	356.990	0.100	0.240	0.640
2020/01/31 17:53:49.9	356.940	0.120	0.230	0.680
2020/01/31 17:53:50.0	356.890	0.130	0.220	0.720
2020/01/31 17:53:50.1	356.850	0.140	0.200	0.750
2020/01/31 17:53:50.2	356.800	0.140	0.180	0.780
2020/01/31 17:53:50.3	356.750	0.150	0.160	0.810
2020/01/31 17:53:50.4	356.700	0.150	0.130	0.820
2020/01/31 17:53:50.5	356.650	0.140	0.100	0.840
2020/01/31 17:53:50.6	356.610	0.140	0.070	0.840
2020/01/31 17:53:50.7	356.570	0.130	0.040	0.850
2020/01/31 17:53:50.8	356.530	0.120	0.010	0.840
2020/01/31 17:53:50.9	356.490	0.110	-0.030	0.830
2020/01/31 17:53:51.0	356.460	0.100	-0.070	0.810
2020/01/31 17:53:51.1	356.440	0.090	-0.120	0.780
2020/01/31 17:53:51.2	356.420	0.070	-0.170	0.750
2020/01/31 17:53:51.3	356.410	0.060	-0.220	0.720
2020/01/31 17:53:51.4	356.400	0.040	-0.270	0.680
2020/01/31 17:53:51.5	356.390	0.030	-0.320	0.630
2020/01/31 17:53:51.6	356.390	0.010	-0.380	0.570
2020/01/31 17:53:51.7	356.390	-0.010	-0.430	0.520
2020/01/31 17:53:51.8	356.400	-0.020	-0.490	0.440
2020/01/31 17:53:51.9	356.410	-0.040	-0.540	0.380
2020/01/31 17:53:52.0	356.430	-0.050	-0.600	0.300
2020/01/31 17:53:52.1	356.450	-0.070	-0.650	0.230
2020/01/31 17:53:52.2	356.480	-0.080	-0.700	0.140
2020/01/31 17:53:52.3	356.510	-0.090	-0.750	0.060
2020/01/31 17:53:52.4	356.540	-0.100	-0.790	-0.030
2020/01/31 17:53:52.5	356.580	-0.110	-0.830	-0.120
2020/01/31 17:53:52.6	356.620	-0.120	-0.870	-0.210
2020/01/31 17:53:52.7	356.660	-0.130	-0.910	-0.300
2020/01/31 17:53:52.8	356.700	-0.130	-0.930	-0.400
2020/01/31 17:53:52.9	356.750	-0.140	-0.960	-0.490
2020/01/31 17:53:53.0	356.800	-0.140	-0.980	-0.580
2020/01/31 17:53:53.1	356.850	-0.140	-0.990	-0.670
2020/01/31 17:53:53.2	356.900	-0.140	-1.010	-0.760
2020/01/31 17:53:53.3	356.950	-0.140	-1.010	-0.840
2020/01/31 17:53:53.4	357.000	-0.140	-1.010	-0.920
2020/01/31 17:53:53.5	357.050	-0.130	-1.010	-0.990
2020/01/31 17:53:53.6	357.090	-0.130	-1.000	-1.050
2020/01/31 17:53:53.7	357.140	-0.120	-0.980	-1.110
2020/01/31 17:53:53.8	357.180	-0.110	-0.960	-1.160
2020/01/31 17:53:53.9	357.220	-0.100	-0.940	-1.210
2020/01/31 17:53:54.0	357.250	-0.090	-0.910	-1.240
2020/01/31 17:53:54.1	357.290	-0.080	-0.870	-1.270
2020/01/31 17:53:54.2	357.320	-0.070	-0.830	-1.280
2020/01/31 17:53:54.3	357.350	-0.060	-0.790	-1.290
2020/01/31 17:53:54.4	357.380	-0.040	-0.740	-1.290
2020/01/31 17:53:54.5	357.400	-0.030	-0.690	-1.290
2020/01/31 17:53:54.6	357.430	-0.020	-0.640	-1.280
2020/01/31 17:53:54.7	357.450	-0.000	-0.590	-1.260
2020/01/31 17:53:54.8	357.460	0.010	-0.530	-1.240
2020/01/31 17:53:54.9	357.480	0.030	-0.480	-1.210
2020/01/31 17:53:55.0	357.490	0.040	-0.420	-1.180
2020/01/31 17:53:55.1	357.500	0.060	-0.360	-1.140
2020/01/31 17:53:55.2	357.510	0.080	-0.310	-1.100
2020/01/31 17:53:55.3	357.510	0.090	-0.250	-1.050
2020/01/31 17:53:55.4	357.520	0.110	-0.190	-1.000
2020/01/31 17:53:55.5	357.510	0.130	-0.140	-0.940
2020/01/31 17:53:55.6	357.510	0.150	-0.090	-0.880
2020/01/31 17:53:55.7	357.500	0.160	-0.030	-0.810
2020/01/31 17:53:55.8	357.490	0.180	0.020	-0.740
2020/01/31 17:53:55.9	357.480	0.200	0.060	-0.670
2020/01/31 17:53:56.0	357.460	0.210	0.110	-0.590
2020/01/31 17:53:56.1	357.440	0.230	0.150	-0.520
2020/01/31 17:53:56.2	357.420	0.250	0.190	-0.440
2020/01/31 17:53:56.3	357.400	0.260	0.230	-0.360
2020/01/31 17:53:56.4	357.370	0.280	0.270	-0.280
2020/01/31 17:53:56.5	357.340	0.290	0.300	-0.200
2020/01/31 17:53:56.6	357.300	0.300	0.330	-0.110
2020/01/31 17:53:56.7	357.270	0.310	0.360	-0.030
2020/01/31 17:53:56.8	357.230	0.320	0.380	0.050
2020/01/31 17:53:56.9	357.190	0.330	0.400	0.130
2020/01/31 17:53:57.0	357.150	0.340	0.420	0.200
2020/01/31 17:53:57.1	357.110	0.340	0.430	0.280
2020/01/31 17:53:57.2	357.060	0.340	0.440	0.350
2020/01/31 17:53:57.3	357.020	0.340	0.450	0.420
2020/01/31 17:53:57.4	356.980	0.340	0.450	0.480
2020/01/31 17:53:57.5	356.940	0.340	0.450	0.540
2020/01/31 17:53:57.6	356.910	0.340	0.440	0.600
2020/01/31 17:53:57.7	356.870	0.330	0.430	0.650
2020/01/31 17:53:57.8	356.840	0.320	0.420	0.700
2020/01/31 17:53:57.9	356.810	0.310	0.400	0.730
2020/01/31 17:53:58.0	356.780	0.300	0.380	0.770
2020/01/31 17:53:58.1	356.760	0.290	0.350	0.790
2020/01/31 17:53:58.2	356.730	0.270	0.320	0.810
2020/01/31 17:53:58.3	356.720	0.250	0.290	0.820
2020/01/31 17:53:58.4	356.700	0.240	0.250	0.820
2020/01/31 17:53:58.5	356.690	0.220	0.210	0.820
2020/01/31 17:53:58.6	356.680	0.190	0.170	0.810
2020/01/31 17:53:58.7	356.670	0.170	0.130	0.800
2020/01/31 17:53:58.8	356.670	0.150	0.080	0.770
2020/01/31 17:53:58.9	356.670	0.120	0.040	0.750
2020/01/31 17:53:59.0	356.670	0.090	-0.010	0.720
2020/01/31 17:53:59.1	356.680	0.060	-0.060	0.680
2020/01/31 17:53:59.2	356.680	0.030	-0.110	0.640
2020/01/31 17:53:59.3	356.690	0.000	-0.150	0.600
2020/01/31 17:53:59.4	356.700	-0.030	-0.200	0.560
2020/01/31 17:53:59.5	356.710	-0.060	-0.250	0.520
2020/01/31 17:53:59.6	356.730	-0.090	-0.290	0.470
2020/01/31 17:53:59.7	356.740	-0.120	-0.330	0.420
2020/01/31 17:53:59.8	356.750	-0.150	-0.370	0.370
2020/01/31 17:53:59.9	356.770	-0.180	-0.400	0.320
2020/01/31 17:54:00.0	356.790	-0.220	-0.440	0.270
2020/01/31 17:54:00.1	356.800	-0.250	-0.470	0.220
2020/01/31 17:54:00.2	356.820	-0.280	-0.500	0.170
2020/01/31 17:54:00.3	356.840	-0.310	-0.520	0.130
2020/01/31 17:54:00.4	356.860	-0.330	-0.550	0.080
2020/01/31 17:54:00.5	356.870	-0.360	-0.570	0.030
2020/01/31 17:54:00.6	356.890	-0.390	-0.580	-0.010
2020/01/31 17:54:00.7	356.910	-0.410	-0.600	-0.050
2020/01/31 17:54:00.8	356.920	-0.430	-0.610	-0.100
2020/01/31 17:54:00.9	356.940	-0.460	-0.620	-0.140
2020/01/31 17:54:01.0	356.960	-0.480	-0.630	-0.180
2020/01/31 17:54:01.1	356.980	-0.490	-0.630	-0.230
2020/01/31 17:54:01.2	357.000	-0.510	-0.640	-0.270
2020/01/31 17:54:01.3	357.020	-0.520	-0.640	-0.310
2020/01/31 17:54:01.4	357.050	-0.530	-0.640	-0.350
2020/01/31 17:54:01.5	357.070	-0.540	-0.650	-0.390
2020/01/31 17:54:01.6	357.090	-0.540	-0.640	-0.430
2020/01/31 17:54:01.7	357.110	-0.540	-0.640	-0.470
2020/01/31 17:54:01.8	357.140	-0.540	-0.640	-0.510
2020/01/31 17:54:01.9	357.160	-0.540	-0.640	-0.550
2020/01/31 17:54:02.0	357.180	-0.530	-0.640	-0.580
2020/01/31 17:54:02.1	357.200	-0.520	-0.640	-0.620
2020/01/31 17:54:02.2	357.220	-0.510	-0.630	-0.650
2020/01/31 17:54:02.3	357.240	-0.500	-0.630	-0.680
2020/01/31 17:54:02.4	357.260	-0.480	-0.620	-0.710
2020/01/31 17:54:02.5	357.280	-0.460	-0.610	-0.730
2020/01/31 17:54:02.6	357.300	-0.430	-0.610	-0.750
2020/01/31 17:54:02.7	357.310	-0.410	-0.600	-0.770
2020/01/31 17:54:02.8	357.320	-0.380	-0.590	-0.790
2020/01/31 17:54:02.9	357.330	-0.350	-0.580	-0.800
2020/01/31 17:54:03.0	357.340	-0.320	-0.570	-0.810
2020/01/31 17:54:03.1	357.350	-0.280	-0.550	-0.810
2020/01/31 17:54:03.2	357.350	-0.240	-0.540	-0.800
2020/01/31 17:54:03.3	357.360	-0.200	-0.530	-0.800
2020/01/31 17:54:03.4	357.370	-0.160	-0.510	-0.780
2020/01/31 17:54:03.5	357.370	-0.120	-0.490	-0.770
2020/01/31 17:54:03.6	357.370	-0.080	-0.480	-0.740
2020/01/31 17:54:03.7	357.370	-0.040	-0.460	-0.720
2020/01/31 17:54:03.8	357.380	0.000	-0.440	-0.690
2020/01/31 17:54:03.9	357.370	0.040	-0.420	-0.650
2020/01/31 17:54:04.0	357.370	0.090	-0.390	-0.610
2020/01/31 17:54:04.1	357.360	0.130	-0.370	-0.570
2020/01/31 17:54:04.2	357.360	0.170	-0.350	-0.530
2020/01/31 17:54:04.3	357.350	0.210	-0.330	-0.480
2020/01/31 17:54:04.4	357.340	0.250	-0.310	-0.430
2020/01/31 17:54:04.5	357.330	0.290	-0.280	-0.380
2020/01/31 17:54:04.6	357.310	0.320	-0.260	-0.330
2020/01/31 17:54:04.7	357.300	0.360	-0.240	-0.280
2020/01/31 17:54:04.8	357.290	0.390	-0.220	-0.230
2020/01/31 17:54:04.9	357.270	0.420	-0.200	-0.180
2020/01/31 17:54:05.0	357.260	0.450	-0.190	-0.130
2020/01/31 17:54:05.1	357.240	0.480	-0.170	-0.080
2020/01/31 17:54:05.2	357.230	0.500	-0.160	-0.030
2020/01/31 17:54:05.3	357.210	0.520	-0.140	0.010
2020/01/31 17:54:05.4	357.200	0.540	-0.130	0.060
2020/01/31 17:54:05.5	357.190	0.560	-0.120	0.100
2020/01/31 17:54:05.6	357.170	0.570	-0.120	0.150
2020/01/31 17:54:05.7	357.160	0.580	-0.110	0.190
2020/01/31 17:54:05.8	357.150	0.590	-0.100	0.230
2020/01/31 17:54:05.9	357.140	0.600	-0.100	0.260
2020/01/31 17:54:06.0	357.130	0.610	-0.100	0.300
2020/01/31 17:54:06.1	357.120	0.610	-0.100	0.330
2020/01/31 17:54:06.2	357.110	0.610	-0.110	0.350
2020/01/31 17:54:06.3	357.110	0.610	-0.120	0.380
2020/01/31 17:54:06.4	357.100	0.600	-0.130	0.400
2020/01/31 17:54:06.5	357.100	0.590	-0.140	0.420
2020/01/31 17:54:06.6	357.100	0.580	-0.150	0.430
2020/01/31 17:54:06.7	357.100	0.570	-0.160	0.440
2020/01/31 17:54:06.8	357.100	0.560	-0.170	0.450
2020/01/31 17:54:06.9	357.100	0.540	-0.190	0.450
2020/01/31 17:54:07.0	357.100	0.520	-0.200	0.450
2020/01/31 17:54:07.1	357.110	0.500	-0.220	0.450
2020/01/31 17:54:07.2	357.110	0.470	-0.230	0.440
2020/01/31 17:54:07.3	357.110	0.440	-0.250	0.430
2020/01/31 17:54:07.4	357.110	0.410	-0.260	0.420
2020/01/31 17:54:07.5	357.110	0.380	-0.270	0.400
2020/01/31 17:54:07.6	357.110	0.340	-0.280	0.380
2020/01/31 17:54:07.7	357.110	0.300	-0.280	0.360
2020/01/31 17:54:07.8	357.120	0.260	-0.280	0.330
2020/01/31 17:54:07.9	357.120	0.220	-0.280	0.310
2020/01/31 17:54:08.0	357.110	0.170	-0.280	0.280
2020/01/31 17:54:08.1	357.110	0.120	-0.270	0.250
2020/01/31 17:54:08.2	357.110	0.070	-0.270	0.220
2020/01/31 17:54:08.3	357.110	0.020	-0.250	0.180
2020/01/31 17:54:08.4	357.100	-0.030	-0.240	0.150
2020/01/31 17:54:08.5	357.100	-0.080	-0.220	0.110
2020/01/31 17:54:08.6	357.090	-0.140	-0.200	0.080
2020/01/31 17:54:08.7	357.090	-0.190	-0.180	0.040
2020/01/31 17:54:08.8	357.080	-0.250	-0.160	0.000
2020/01/31 17:54:08.9	357.070	-0.300	-0.140	-0.030
2020/01/31 17:54:09.0	357.060	-0.350	-0.110	-0.070
2020/01/31 17:54:09.1	357.060	-0.400	-0.090	-0.100
2020/01/31 17:54:09.2	357.050	-0.450	-0.060	-0.130
2020/01/31 17:54:09.3	357.050	-0.500	-0.030	-0.160
2020/01/31 17:54:09.4	357.040	-0.540	-0.010	-0.180
2020/01/31 17:54:09.5	357.030	-0.590	0.020	-0.210
2020/01/31 17:54:09.6	357.030	-0.630	0.050	-0.230
2020/01/31 17:54:09.7	357.020	-0.660	0.070	-0.250
2020/01/31 17:54:09.8	357.010	-0.690	0.100	-0.270
2020/01/31 17:54:09.9	357.010	-0.720	0.120	-0.290
2020/01/31 17:54:10.0	357.010	-0.740	0.140	-0.300
2020/01/31 17:54:10.1	357.000	-0.760	0.160	-0.310
2020/01/31 17:54:10.2	357.000	-0.780	0.170	-0.320
2020/01/31 17:54:10.3	357.000	-0.780	0.180	-0.330
2020/01/31 17:54:10.4	357.000	-0.790	0.190	-0.330
2020/01/31 17:54:10.5	356.990	-0.790	0.200	-0.330
2020/01/31 17:54:10.6	356.990	-0.780	0.200	-0.340
2020/01/31 17:54:10.7	356.990	-0.770	0.200	-0.330
2020/01/31 17:54:10.8	356.970	-0.750	0.200	-0.330
2020/01/31 17:54:10.9	356.970	-0.730	0.200	-0.320
2020/01/31 17:54:11.0	356.960	-0.700	0.190	-0.310
2020/01/31 17:54:11.1	356.950	-0.670	0.180	-0.300
2020/01/31 17:54:11.2	356.940	-0.630	0.170	-0.280
2020/01/31 17:54:11.3	356.930	-0.590	0.160	-0.250
2020/01/31 17:54:11.4	356.910	-0.550	0.140	-0.230
2020/01/31 17:54:11.5	356.890	-0.500	0.130	-0.190
2020/01/31 17:54:11.6	356.870	-0.440	0.110	-0.160
2020/01/31 17:54:11.7	356.850	-0.390	0.090	-0.120
2020/01/31 17:54:11.8	356.830	-0.330	0.070	-0.080
2020/01/31 17:54:11.9	356.800	-0.260	0.050	-0.040
2020/01/31 17:54:12.0	356.780	-0.200	0.020	0.000
2020/01/31 17:54:12.1	356.750	-0.140	-0.010	0.050
2020/01/31 17:54:12.2	356.730	-0.070	-0.040	0.090
2020/01/31 17:54:12.3	356.700	-0.010	-0.070	0.140
2020/01/31 17:54:12.4	356.680	0.060	-0.100	0.180
2020/01/31 17:54:12.5	356.650	0.120	-0.130	0.230
2020/01/31 17:54:12.6	356.630	0.180	-0.170	0.270
2020/01/31 17:54:12.7	356.610	0.240	-0.210	0.310
2020/01/31 17:54:12.8	356.580	0.300	-0.250	0.350
2020/01/31 17:54:12.9	356.560	0.350	-0.290	0.380
2020/01/31 17:54:13.0	356.540	0.400	-0.330	0.410
2020/01/31 17:54:13.1	356.530	0.450	-0.380	0.440
2020/01/31 17:54:13.2	356.520	0.490	-0.420	0.470
2020/01/31 17:54:13.3	356.500	0.530	-0.470	0.490
2020/01/31 17:54:13.4	356.500	0.570	-0.520	0.510
2020/01/31 17:54:13.5	356.490	0.600	-0.560	0.530
2020/01/31 17:54:13.6	356.480	0.630	-0.610	0.540
2020/01/31 17:54:13.7	356.480	0.650	-0.650	0.550
2020/01/31 17:54:13.8	356.480	0.660	-0.700	0.550
2020/01/31 17:54:13.9	356.480	0.680	-0.740	0.550
2020/01/31 17:54:14.0	356.480	0.680	-0.780	0.540
2020/01/31 17:54:14.1	356.490	0.680	-0.820	0.530
2020/01/31 17:54:14.2	356.500	0.680	-0.860	0.520
2020/01/31 17:54:14.3	356.520	0.680	-0.900	0.500
2020/01/31 17:54:14.4	356.530	0.670	-0.930	0.480
2020/01/31 17:54:14.5	356.550	0.650	-0.960	0.450
2020/01/31 17:54:14.6	356.570	0.640	-0.990	0.430
2020/01/31 17:54:14.7	356.600	0.620	-1.010	0.400
2020/01/31 17:54:14.8	356.630	0.590	-1.030	0.360
2020/01/31 17:54:14.9	356.660	0.570	-1.050	0.320
2020/01/31 17:54:15.0	356.690	0.540	-1.070	0.290
2020/01/31 17:54:15.1	356.730	0.510	-1.080	0.250
2020/01/31 17:54:15.2	356.760	0.480	-1.090	0.200
2020/01/31 17:54:15.3	356.800	0.450	-1.100	0.160
2020/01/31 17:54:15.4	356.840	0.410	-1.100	0.120
2020/01/31 17:54:15.5	356.880	0.380	-1.090	0.070
2020/01/31 17:54:15.6	356.920	0.340	-1.090	0.020
2020/01/31 17:54:15.7	356.960	0.300	-1.070	-0.030
2020/01/31 17:54:15.8	357.000	0.260	-1.060	-0.070
2020/01/31 17:54:15.9	357.040	0.220	-1.030	-0.120
2020/01/31 17:54:16.0	357.080	0.190	-1.010	-0.170
2020/01/31 17:54:16.1	357.120	0.150	-0.970	-0.210
2020/01/31 17:54:16.2	357.150	0.110	-0.940	-0.260
2020/01/31 17:54:16.3	357.180	0.070	-0.890	-0.300
2020/01/31 17:54:16.4	357.210	0.030	-0.850	-0.340
2020/01/31 17:54:16.5	357.240	-0.010	-0.800	-0.380
2020/01/31 17:54:16.6	357.260	-0.050	-0.740	-0.420
2020/01/31 17:54:16.7	357.280	-0.080	-0.680	-0.450
2020/01/31 17:54:16.8	357.290	-0.120	-0.620	-0.480
2020/01/31 17:54:16.9	357.310	-0.160	-0.550	-0.510
2020/01/31 17:54:17.0	357.320	-0.190	-0.480	-0.530
2020/01/31 17:54:17.1	357.330	-0.220	-0.410	-0.560
2020/01/31 17:54:17.2	357.340	-0.260	-0.340	-0.570
2020/01/31 17:54:17.3	357.350	-0.290	-0.270	-0.590
2020/01/31 17:54:17.4	357.350	-0.320	-0.190	-0.600
2020/01/31 17:54:17.5	357.360	-0.340	-0.120	-0.600
2020/01/31 17:54:17.6	357.360	-0.370	-0.040	-0.610
2020/01/31 17:54:17.7	357.360	-0.390	0.030	-0.610
2020/01/31 17:54:17.8	357.350	-0.410	0.100	-0.610
2020/01/31 17:54:17.9	357.350	-0.430	0.170	-0.600
2020/01/31 17:54:18.0	357.350	-0.450	0.240	-0.590
2020/01/31 17:54:18.1	357.340	-0.470	0.310	-0.580
2020/01/31 17:54:18.2	357.340	-0.480	0.370	-0.570
2020/01/31 17:54:18.3	357.330	-0.490	0.430	-0.550
2020/01/31 17:54:18.4	357.330	-0.500	0.480	-0.530
2020/01/31 17:54:18.5	357.320	-0.510	0.540	-0.510
2020/01/31 17:54:18.6	357.310	-0.510	0.580	-0.480
2020/01/31 17:54:18.7	357.300	-0.510	0.630	-0.450
2020/01/31 17:54:18.8	357.270	-0.510	0.670	-0.430
2020/01/31 17:54:18.9	357.260	-0.510	0.700	-0.390
2020/01/31 17:54:19.0	357.240	-0.510	0.730	-0.350
2020/01/31 17:54:19.1	357.220	-0.500	0.760	-0.310
2020/01/31 17:54:19.2	357.200	-0.490	0.780	-0.270
2020/01/31 17:54:19.3	357.170	-0.480	0.800	-0.230
2020/01/31 17:54:19.4	357.150	-0.470	0.810	-0.180
2020/01/31 17:54:19.5	357.120	-0.450	0.820	-0.130
2020/01/31 17:54:19.6	357.090	-0.430	0.830	-0.080
2020/01/31 17:54:19.7	357.060	-0.410	0.830	-0.030
2020/01/31 17:54:19.8	357.030	-0.390	0.820	0.020
2020/01/31 17:54:19.9	357.000	-0.370	0.810	0.070
2020/01/31 17:54:20.0	356.970	-0.350	0.800	0.130
2020/01/31 17:54:20.1	356.940	-0.320	0.780	0.180
2020/01/31 17:54:20.2	356.910	-0.290	0.760	0.230
2020/01/31 17:54:20.3	356.890	-0.260	0.740	0.280
2020/01/31 17:54:20.4	356.860	-0.230	0.710	0.330
2020/01/31 17:54:20.5	356.830	-0.200	0.670	0.370
2020/01/31 17:54:20.6	356.810	-0.170	0.630	0.420
2020/01/31 17:54:20.7	356.790	-0.130	0.590	0.460
2020/01/31 17:54:20.8	356.770	-0.100	0.540	0.500
2020/01/31 17:54:20.9	356.750	-0.060	0.490	0.530
2020/01/31 17:54:21.0	356.740	-0.030	0.430	0.560
2020/01/31 17:54:21.1	356.730	0.010	0.360	0.590
2020/01/31 17:54:21.2	356.710	0.050	0.300	0.610
2020/01/31 17:54:21.3	356.700	0.090	0.230	0.630
2020/01/31 17:54:21.4	356.690	0.120	0.150	0.650
2020/01/31 17:54:21.5	356.680	0.160	0.070	0.670
2020/01/31 17:54:21.6	356.670	0.200	-0.000	0.680
2020/01/31 17:54:21.7	356.660	0.240	-0.080	0.700
2020/01/31 17:54:21.8	356.650	0.270	-0.170	0.710
2020/01/31 17:54:21.9	356.640	0.310	-0.250	0.720
2020/01/31 17:54:22.0	356.620	0.340	-0.330	0.730
2020/01/31 17:54:22.1	356.610	0.370	-0.410	0.740
2020/01/31 17:54:22.2	356.590	0.400	-0.490	0.750
2020/01/31 17:54:22.3	356.570	0.420	-0.570	0.760
2020/01/31 17:54:22.4	356.550	0.450	-0.640	0.760
2020/01/31 17:54:22.5	356.530	0.470	-0.720	0.760
2020/01/31 17:54:22.6	356.510	0.490	-0.790	0.760
2020/01/31 17:54:22.7	356.490	0.500	-0.860	0.760
2020/01/31 17:54:22.8	356.470	0.510	-0.920	0.750
2020/01/31 17:54:22.9	356.450	0.520	-0.980	0.740
2020/01/31 17:54:23.0	356.430	0.530	-1.040	0.720
2020/01/31 17:54:23.1	356.420	0.530	-1.100	0.710
2020/01/31 17:54:23.2	356.400	0.530	-1.150	0.680
2020/01/31 17:54:23.3	356.390	0.530	-1.200	0.650
2020/01/31 17:54:23.4	356.380	0.520	-1.240	0.620
2020/01/31 17:54:23.5	356.370	0.510	-1.280	0.580
2020/01/31 17:54:23.6	356.360	0.500	-1.320	0.540
2020/01/31 17:54:23.7	356.360	0.480	-1.350	0.490
2020/01/31 17:54:23.8	356.360	0.470	-1.380	0.440
2020/01/31 17:54:23.9	356.360	0.450	-1.400	0.380
2020/01/31 17:54:24.0	356.370	0.430	-1.420	0.320
2020/01/31 17:54:24.1	356.380	0.400	-1.430	0.260
2020/01/31 17:54:24.2	356.390	0.380	-1.440	0.200
2020/01/31 17:54:24.3	356.400	0.350	-1.440	0.130
2020/01/31 17:54:24.4	356.410	0.330	-1.440	0.060
2020/01/31 17:54:24.5	356.430	0.300	-1.430	-0.010
2020/01/31 17:54:24.6	356.450	0.270	-1.410	-0.070
2020/01/31 17:54:24.7	356.470	0.240	-1.390	-0.140
2020/01/31 17:54:24.8	356.490	0.210	-1.370	-0.210
2020/01/31 17:54:24.9	356.520	0.180	-1.340	-0.280
2020/01/31 17:54:25.0	356.550	0.150	-1.310	-0.340
2020/01/31 17:54:25.1	356.580	0.120	-1.270	-0.410
2020/01/31 17:54:25.2	356.620	0.090	-1.220	-0.470
2020/01/31 17:54:25.3	356.660	0.060	-1.170	-0.520
2020/01/31 17:54:25.4	356.700	0.030	-1.110	-0.580
2020/01/31 17:54:25.5	356.740	0.000	-1.060	-0.640
2020/01/31 17:54:25.6	356.780	-0.030	-0.990	-0.690
2020/01/31 17:54:25.7	356.830	-0.060	-0.930	-0.740
2020/01/31 17:54:25.8	356.860	-0.080	-0.860	-0.790
2020/01/31 17:54:25.9	356.910	-0.110	-0.790	-0.840
2020/01/31 17:54:26.0	356.960	-0.140	-0.720	-0.880
2020/01/31 17:54:26.1	357.020	-0.160	-0.640	-0.920
2020/01/31 17:54:26.2	357.070	-0.190	-0.560	-0.960
2020/01/31 17:54:26.3	357.120	-0.210	-0.490	-1.000
2020/01/31 17:54:26.4	357.180	-0.240	-0.410	-1.030
2020/01/31 17:54:26.5	357.230	-0.260	-0.330	-1.060
2020/01/31 17:54:26.6	357.290	-0.280	-0.260	-1.090
2020/01/31 17:54:26.7	357.340	-0.310	-0.180	-1.110
2020/01/31 17:54:26.8	357.400	-0.330	-0.100	-1.130
2020/01/31 17:54:26.9	357.450	-0.350	-0.030	-1.150
2020/01/31 17:54:27.0	357.500	-0.370	0.040	-1.160
2020/01/31 17:54:27.1	357.540	-0.390	0.120	-1.170
2020/01/31 17:54:27.2	357.580	-0.420	0.190	-1.170
2020/01/31 17:54:27.3	357.620	-0.440	0.250	-1.170
2020/01/31 17:54:27.4	357.660	-0.460	0.320	-1.160
2020/01/31 17:54:27.5	357.700	-0.480	0.380	-1.150
2020/01/31 17:54:27.6	357.730	-0.500	0.440	-1.130
2020/01/31 17:54:27.7	357.750	-0.510	0.500	-1.110
2020/01/31 17:54:27.8	357.770	-0.530	0.560	-1.090
2020/01/31 17:54:27.9	357.790	-0.550	0.610	-1.060
2020/01/31 17:54:28.0	357.800	-0.560	0.660	-1.030
2020/01/31 17:54:28.1	357.810	-0.570	0.700	-0.990
2020/01/31 17:54:28.2	357.810	-0.590	0.740	-0.950
2020/01/31 17:54:28.3	357.810	-0.600	0.780	-0.900
2020/01/31 17:54:28.4	357.800	-0.610	0.810	-0.850
2020/01/31 17:54:28.5	357.790	-0.610	0.840	-0.790
2020/01/31 17:54:28.6	357.770	-0.620	0.860	-0.730
2020/01/31 17:54:28.7	357.750	-0.620	0.880	-0.670
2020/01/31 17:54:28.8	357.720	-0.620	0.900	-0.610
2020/01/31 17:54:28.9	357.690	-0.620	0.910	-0.540
2020/01/31 17:54:29.0	357.660	-0.620	0.910	-0.480
2020/01/31 17:54:29.1	357.630	-0.620	0.910	-0.410
2020/01/31 17:54:29.2	357.590	-0.610	0.910	-0.340
2020/01/31 17:54:29.3	357.550	-0.600	0.900	-0.270
2020/01/31 17:54:29.4	357.500	-0.580	0.880	-0.200
2020/01/31 17:54:29.5	357.460	-0.570	0.860	-0.130
2020/01/31 17:54:29.6	357.410	-0.550	0.840	-0.060
2020/01/31 17:54:29.7	357.360	-0.530	0.810	0.010
2020/01/31 17:54:29.8	357.310	-0.500	0.770	0.070
2020/01/31 17:54:29.9	357.260	-0.470	0.730	0.140
2020/01/31 17:54:30.0	357.200	-0.440	0.690	0.200
2020/01/31 17:54:30.1	357.150	-0.400	0.640	0.270
2020/01/31 17:54:30.2	357.100	-0.360	0.590	0.330
2020/01/31 17:54:30.3	357.040	-0.320	0.530	0.400
2020/01/31 17:54:30.4	356.990	-0.280	0.470	0.450
2020/01/31 17:54:30.5	356.930	-0.230	0.410	0.510
2020/01/31 17:54:30.6	356.870	-0.180	0.350	0.570
2020/01/31 17:54:30.7	356.820	-0.130	0.280	0.620
2020/01/31 17:54:30.8	356.770	-0.080	0.210	0.670
2020/01/31 17:54:30.9	356.710	-0.030	0.140	0.710
2020/01/31 17:54:31.0	356.660	0.030	0.070	0.750
2020/01/31 17:54:31.1	356.610	0.080	-0.010	0.780
2020/01/31 17:54:31.2	356.560	0.130	-0.080	0.810
2020/01/31 17:54:31.3	356.500	0.190	-0.150	0.840
2020/01/31 17:54:31.4	356.460	0.240	-0.220	0.860
2020/01/31 17:54:31.5	356.410	0.300	-0.290	0.870
2020/01/31 17:54:31.6	356.370	0.350	-0.370	0.880
2020/01/31 17:54:31.7	356.330	0.400	-0.430	0.890
2020/01/31 17:54:31.8	356.290	0.450	-0.500	0.890
2020/01/31 17:54:31.9	356.250	0.490	-0.570	0.890
2020/01/31 17:54:32.0	356.220	0.540	-0.630	0.880
2020/01/31 17:54:32.1	356.190	0.580	-0.690	0.870
2020/01/31 17:54:32.2	356.170	0.610	-0.750	0.860
2020/01/31 17:54:32.3	356.150	0.650	-0.810	0.840
2020/01/31 17:54:32.4	356.130	0.680	-0.860	0.820
2020/01/31 17:54:32.5	356.120	0.710	-0.910	0.800
2020/01/31 17:54:32.6	356.110	0.730	-0.960	0.770
2020/01/31 17:54:32.7	356.100	0.750	-1.000	0.740
2020/01/31 17:54:32.8	356.100	0.770	-1.040	0.700
2020/01/31 17:54:32.9	356.100	0.780	-1.080	0.670
2020/01/31 17:54:33.0	356.110	0.780	-1.110	0.620
2020/01/31 17:54:33.1	356.120	0.790	-1.140	0.580
2020/01/31 17:54:33.2	356.140	0.790	-1.170	0.530
2020/01/31 17:54:33.3	356.150	0.780	-1.190	0.480
2020/01/31 17:54:33.4	356.180	0.780	-1.210	0.420
2020/01/31 17:54:33.5	356.200	0.760	-1.220	0.370
2020/01/31 17:54:33.6	356.230	0.750	-1.220	0.310
2020/01/31 17:54:33.7	356.260	0.730	-1.230	0.240
2020/01/31 17:54:33.8	356.290	0.710	-1.230	0.170
2020/01/31 17:54:33.9	356.330	0.690	-1.220	0.110
2020/01/31 17:54:34.0	356.370	0.660	-1.210	0.040
2020/01/31 17:54:34.1	356.410	0.630	-1.200	-0.030
2020/01/31 17:54:34.2	356.450	0.600	-1.180	-0.100
2020/01/31 17:54:34.3	356.500	0.570	-1.160	-0.170
2020/01/31 17:54:34.4	356.540	0.540	-1.130	-0.230
2020/01/31 17:54:34.5	356.590	0.500	-1.100	-0.300
2020/01/31 17:54:34.6	356.640	0.470	-1.060	-0.370
2020/01/31 17:54:34.7	356.690	0.430	-1.020	-0.430
2020/01/31 17:54:34.8	356.740	0.390	-0.980	-0.490
2020/01/31 17:54:34.9	356.790	0.350	-0.930	-0.550
2020/01/31 17:54:35.0	356.840	0.310	-0.890	-0.610
2020/01/31 17:54:35.1	356.890	0.280	-0.840	-0.660
2020/01/31 17:54:35.2	356.940	0.240	-0.780	-0.700
2020/01/31 17:54:35.3	356.990	0.200	-0.730	-0.750
2020/01/31 17:54:35.4	357.040	0.160	-0.680	-0.790
2020/01/31 17:54:35.5	357.090	0.120	-0.620	-0.820
2020/01/31 17:54:35.6	357.140	0.080	-0.570	-0.850
2020/01/31 17:54:35.7	357.180	0.050	-0.510	-0.880
2020/01/31 17:54:35.8	357.230	0.010	-0.460	-0.900
2020/01/31 17:54:35.9	357.270	-0.030	-0.410	-0.910
2020/01/31 17:54:36.0	357.310	-0.060	-0.360	-0.920
2020/01/31 17:54:36.1	357.350	-0.100	-0.320	-0.930
2020/01/31 17:54:36.2	357.380	-0.130	-0.270	-0.940
2020/01/31 17:54:36.3	357.420	-0.170	-0.230	-0.940
2020/01/31 17:54:36.4	357.450	-0.200	-0.190	-0.940
2020/01/31 17:54:36.5	357.480	-0.230	-0.160	-0.930
2020/01/31 17:54:36.6	357.510	-0.260	-0.130	-0.930
2020/01/31 17:54:36.7	357.540	-0.290	-0.100	-0.930
2020/01/31 17:54:36.8	357.570	-0.320	-0.070	-0.920
2020/01/31 17:54:36.9	357.590	-0.350	-0.050	-0.920
2020/01/31 17:54:37.0	357.620	-0.380	-0.030	-0.910
2020/01/31 17:54:37.1	357.640	-0.400	-0.010	-0.900
2020/01/31 17:54:37.2	357.670	-0.430	0.000	-0.890
2020/01/31 17:54:37.3	357.690	-0.450	0.020	-0.880
2020/01/31 17:54:37.4	357.710	-0.470	0.030	-0.870
2020/01/31 17:54:37.5	357.720	-0.490	0.040	-0.860
2020/01/31 17:54:37.6	357.740	-0.510	0.050	-0.850
2020/01/31 17:54:37.7	357.750	-0.530	0.060	-0.840
2020/01/31 17:54:37.8	357.770	-0.540	0.070	-0.820
2020/01/31 17:54:37.9	357.770	-0.550	0.080	-0.800
2020/01/31 17:54:38.0	357.780	-0.570	0.090	-0.780
2020/01/31 17:54:38.1	357.770	-0.580	0.110	-0.750
2020/01/31 17:54:38.2	357.770	-0.590	0.120	-0.720
2020/01/31 17:54:38.3	357.760	-0.590	0.140	-0.690
2020/01/31 17:54:38.4	357.740	-0.600	0.160	-0.650
2020/01/31 17:54:38.5	357.730	-0.600	0.190	-0.610
2020/01/31 17:54:38.6	357.710	-0.600	0.210	-0.560
2020/01/31 17:54:38.7	357.680	-0.610	0.240	-0.520
2020/01/31 17:54:38.8	357.660	-0.600	0.270	-0.470
2020/01/31 17:54:38.9	357.620	-0.600	0.300	-0.410
2020/01/31 17:54:39.0	357.590	-0.600	0.340	-0.350
2020/01/31 17:54:39.1	357.550	-0.590	0.370	-0.290
2020/01/31 17:54:39.2	357.510	-0.590	0.400	-0.230
2020/01/31 17:54:39.3	357.470	-0.580	0.430	-0.170
2020/01/31 17:54:39.4	357.430	-0.570	0.460	-0.110
2020/01/31 17:54:39.5	357.390	-0.560	0.480	-0.050
2020/01/31 17:54:39.6	357.350	-0.550	0.500	0.000
2020/01/31 17:54:39.7	357.310	-0.530	0.520	0.050
2020/01/31 17:54:39.8	357.260	-0.520	0.540	0.100
2020/01/31 17:54:39.9	357.220	-0.500	0.540	0.150
2020/01/31 17:54:40.0	357.180	-0.490	0.550	0.190
2020/01/31 17:54:40.1	357.150	-0.470	0.550	0.220
2020/01/31 17:54:40.2	357.110	-0.450	0.540	0.250
2020/01/31 17:54:40.3	357.080	-0.430	0.530	0.270
2020/01/31 17:54:40.4	357.050	-0.400	0.510	0.290
2020/01/31 17:54:40.5	357.020	-0.370	0.480	0.300
2020/01/31 17:54:40.6	357.000	-0.350	0.450	0.310
2020/01/31 17:54:40.7	356.980	-0.320	0.410	0.310
2020/01/31 17:54:40.8	356.960	-0.280	0.370	0.300
2020/01/31 17:54:40.9	356.950	-0.250	0.320	0.300
2020/01/31 17:54:41.0	356.940	-0.210	0.260	0.290
2020/01/31 17:54:41.1	356.930	-0.170	0.200	0.270
2020/01/31 17:54:41.2	356.920	-0.130	0.140	0.260
2020/01/31 17:54:41.3	356.920	-0.080	0.070	0.250
2020/01/31 17:54:41.4	356.920	-0.040	0.010	0.230
2020/01/31 17:54:41.5	356.920	0.010	-0.070	0.220
2020/01/31 17:54:41.6	356.920	0.060	-0.140	0.210
2020/01/31 17:54:41.7	356.920	0.110	-0.210	0.190
2020/01/31 17:54:41.8	356.920	0.160	-0.280	0.180
2020/01/31 17:54:41.9	356.920	0.210	-0.350	0.170
2020/01/31 17:54:42.0	356.930	0.270	-0.420	0.160
2020/01/31 17:54:42.1	356.930	0.320	-0.480	0.150
2020/01/31 17:54:42.2	356.930	0.370	-0.540	0.150
2020/01/31 17:54:42.3	356.930	0.420	-0.600	0.150
2020/01/31 17:54:42.4	356.930	0.470	-0.650	0.150
2020/01/31 17:54:42.5	356.930	0.520	-0.690	0.150
2020/01/31 17:54:42.6	356.930	0.570	-0.730	0.150
2020/01/31 17:54:42.7	356.930	0.610	-0.760	0.160
2020/01/31 17:54:42.8	356.940	0.660	-0.790	0.160
2020/01/31 17:54:42.9	356.940	0.700	-0.810	0.170
2020/01/31 17:54:43.0	356.940	0.730	-0.820	0.180
2020/01/31 17:54:43.1	356.940	0.770	-0.830	0.190
2020/01/31 17:54:43.2	356.940	0.790	-0.830	0.210
2020/01/31 17:54:43.3	356.940	0.820	-0.830	0.220
2020/01/31 17:54:43.4	356.940	0.840	-0.820	0.230
2020/01/31 17:54:43.5	356.940	0.860	-0.810	0.250
2020/01/31 17:54:43.6	356.950	0.870	-0.790	0.260
2020/01/31 17:54:43.7	356.950	0.880	-0.770	0.270
2020/01/31 17:54:43.8	356.970	0.880	-0.750	0.280
2020/01/31 17:54:43.9	356.980	0.870	-0.730	0.290
2020/01/31 17:54:44.0	356.990	0.870	-0.700	0.300
2020/01/31 17:54:44.1	357.000	0.850	-0.670	0.310
2020/01/31 17:54:44.2	357.020	0.840	-0.640	0.320
2020/01/31 17:54:44.3	357.030	0.810	-0.610	0.320
2020/01/31 17:54:44.4	357.050	0.790	-0.580	0.320
2020/01/31 17:54:44.5	357.070	0.760	-0.550	0.320
2020/01/31 17:54:44.6	357.090	0.720	-0.520	0.320
2020/01/31 17:54:44.7	357.120	0.680	-0.490	0.310
2020/01/31 17:54:44.8	357.130	0.630	-0.460	0.300
2020/01/31 17:54:44.9	357.160	0.580	-0.430	0.290
2020/01/31 17:54:45.0	357.180	0.530	-0.400	0.280
2020/01/31 17:54:45.1	357.210	0.470	-0.380	0.270
2020/01/31 17:54:45.2	357.230	0.410	-0.350	0.250
2020/01/31 17:54:45.3	357.260	0.350	-0.330	0.240
2020/01/31 17:54:45.4	357.290	0.290	-0.310	0.220
2020/01/31 17:54:45.5	357.310	0.220	-0.280	0.190
2020/01/31 17:54:45.6	357.340	0.150	-0.260	0.170
2020/01/31 17:54:45.7	357.360	0.080	-0.250	0.140
2020/01/31 17:54:45.8	357.390	0.010	-0.230	0.110
2020/01/31 17:54:45.9	357.420	-0.060	-0.220	0.070
2020/01/31 17:54:46.0	357.440	-0.130	-0.200	0.040
2020/01/31 17:54:46.1	357.470	-0.200	-0.190	0.000
2020/01/31 17:54:46.2	357.500	-0.260	-0.180	-0.040
2020/01/31 17:54:46.3	357.520	-0.330	-0.180	-0.080
2020/01/31 17:54:46.4	357.550	-0.390	-0.170	-0.120
2020/01/31 17:54:46.5	357.580	-0.450	-0.170	-0.170
2020/01/31 17:54:46.6	357.600	-0.510	-0.170	-0.210
2020/01/31 17:54:46.7	357.630	-0.570	-0.180	-0.260
2020/01/31 17:54:46.8	357.660	-0.620	-0.180	-0.310
2020/01/31 17:54:46.9	357.680	-0.660	-0.180	-0.360
2020/01/31 17:54:47.0	357.700	-0.700	-0.190	-0.410
2020/01/31 17:54:47.1	357.730	-0.740	-0.200	-0.450
2020/01/31 17:54:47.2	357.750	-0.770	-0.210	-0.490
2020/01/31 17:54:47.3	357.770	-0.790	-0.220	-0.530
2020/01/31 17:54:47.4	357.790	-0.810	-0.230	-0.570
2020/01/31 17:54:47.5	357.810	-0.830	-0.240	-0.600
2020/01/31 17:54:47.6	357.820	-0.830	-0.250	-0.630
2020/01/31 17:54:47.7	357.840	-0.840	-0.260	-0.660
2020/01/31 17:54:47.8	357.850	-0.830	-0.270	-0.680
2020/01/31 17:54:47.9	357.860	-0.820	-0.280	-0.700
2020/01/31 17:54:48.0	357.870	-0.810	-0.290	-0.710
2020/01/31 17:54:48.1	357.870	-0.790	-0.300	-0.720
2020/01/31 17:54:48.2	357.880	-0.760	-0.310	-0.720
2020/01/31 17:54:48.3	357.890	-0.730	-0.310	-0.710
2020/01/31 17:54:48.4	357.890	-0.690	-0.320	-0.710
2020/01/31 17:54:48.5	357.900	-0.650	-0.330	-0.700
2020/01/31 17:54:48.6	357.900	-0.610	-0.330	-0.680
2020/01/31 17:54:48.7	357.910	-0.560	-0.330	-0.670
2020/01/31 17:54:48.8	357.910	-0.510	-0.340	-0.650
2020/01/31 17:54:48.9	357.920	-0.460	-0.340	-0.620
2020/01/31 17:54:49.0	357.920	-0.410	-0.340	-0.600
2020/01/31 17:54:49.1	357.930	-0.350	-0.340	-0.570
2020/01/31 17:54:49.2	357.930	-0.290	-0.330	-0.540
2020/01/31 17:54:49.3	357.930	-0.240	-0.330	-0.510
2020/01/31 17:54:49.4	357.940	-0.180	-0.330	-0.480
2020/01/31 17:54:49.5	357.940	-0.130	-0.320	-0.450
2020/01/31 17:54:49.6	357.940	-0.070	-0.310	-0.420
2020/01/31 17:54:49.7	357.950	-0.020	-0.300	-0.390
2020/01/31 17:54:49.8	357.960	0.030	-0.290	-0.360
2020/01/31 17:54:49.9	357.960	0.080	-0.280	-0.330
2020/01/31 17:54:50.0	357.960	0.120	-0.260	-0.290
2020/01/31 17:54:50.1	357.960	0.160	-0.250	-0.260
2020/01/31 17:54:50.2	357.960	0.190	-0.230	-0.230
2020/01/31 17:54:50.3	357.960	0.230	-0.220	-0.200
2020/01/31 17:54:50.4	357.960	0.250	-0.200	-0.170
2020/01/31 17:54:50.5	357.950	0.280	-0.180	-0.140
2020/01/31 17:54:50.6	357.950	0.300	-0.150	-0.110
2020/01/31 17:54:50.7	357.940	0.310	-0.130	-0.090
2020/01/31 17:54:50.8	357.940	0.320	-0.110	-0.060
2020/01/31 17:54:50.9	357.930	0.330	-0.080	-0.030
2020/01/31 17:54:51.0	357.920	0.330	-0.060	-0.010
2020/01/31 17:54:51.1	357.910	0.320	-0.040	0.010
2020/01/31 17:54:51.2	357.900	0.320	-0.010	0.030
2020/01/31 17:54:51.3	357.890	0.310	0.010	0.050
2020/01/31 17:54:51.4	357.880	0.290	0.030	0.070
2020/01/31 17:54:51.5	357.870	0.280	0.050	0.090
2020/01/31 17:54:51.6	357.860	0.260	0.070	0.110
2020/01/31 17:54:51.7	357.850	0.230	0.080	0.120
2020/01/31 17:54:51.8	357.830	0.210	0.090	0.130
2020/01/31 17:54:51.9	357.820	0.190	0.110	0.140
2020/01/31 17:54:52.0	357.810	0.160	0.120	0.150
2020/01/31 17:54:52.1	357.790	0.140	0.120	0.160
2020/01/31 17:54:52.2	357.780	0.110	0.130	0.170
2020/01/31 17:54:52.3	357.770	0.090	0.130	0.170
2020/01/31 17:54:52.4	357.760	0.060	0.130	0.180
2020/01/31 17:54:52.5	357.760	0.040	0.120	0.180
2020/01/31 17:54:52.6	357.750	0.020	0.120	0.180
2020/01/31 17:54:52.7	357.740	0.000	0.110	0.180
2020/01/31 17:54:52.8	357.730	-0.020	0.100	0.180
2020/01/31 17:54:52.9	357.720	-0.030	0.090	0.170
2020/01/31 17:54:53.0	357.710	-0.040	0.070	0.170
2020/01/31 17:54:53.1	357.700	-0.050	0.060	0.160
2020/01/31 17:54:53.2	357.690	-0.060	0.040	0.160
2020/01/31 17:54:53.3	357.670	-0.060	0.020	0.150
2020/01/31 17:54:53.4	357.660	-0.070	-0.000	0.140
2020/01/31 17:54:53.5	357.650	-0.060	-0.030	0.130
2020/01/31 17:54:53.6	357.640	-0.060	-0.050	0.120
2020/01/31 17:54:53.7	357.620	-0.050	-0.080	0.110
2020/01/31 17:54:53.8	357.620	-0.030	-0.110	0.100
2020/01/31 17:54:53.9	357.600	-0.020	-0.140	0.090
2020/01/31 17:54:54.0	357.590	0.000	-0.180	0.070
2020/01/31 17:54:54.1	357.580	0.030	-0.210	0.060
2020/01/31 17:54:54.2	357.570	0.050	-0.240	0.050
2020/01/31 17:54:54.3	357.560	0.080	-0.280	0.040
2020/01/31 17:54:54.4	357.550	0.110	-0.320	0.030
2020/01/31 17:54:54.5	357.540	0.150	-0.360	0.020
2020/01/31 17:54:54.6	357.540	0.180	-0.390	0.010
2020/01/31 17:54:54.7	357.540	0.220	-0.430	0.010
2020/01/31 17:54:54.8	357.530	0.250	-0.460	-0.000
2020/01/31 17:54:54.9	357.530	0.290	-0.500	-0.010
2020/01/31 17:54:55.0	357.530	0.330	-0.540	-0.010
2020/01/31 17:54:55.1	357.540	0.370	-0.570	-0.020
2020/01/31 17:54:55.2	357.540	0.410	-0.610	-0.020
2020/01/31 17:54:55.3	357.550	0.440	-0.640	-0.030
2020/01/31 17:54:55.4	357.560	0.480	-0.670	-0.030
2020/01/31 17:54:55.5	357.570	0.510	-0.690	-0.040
2020/01/31 17:54:55.6	357.590	0.540	-0.720	-0.040
2020/01/31 17:54:55.7	357.600	0.560	-0.740	-0.050
2020/01/31 17:54:55.8	357.620	0.590	-0.760	-0.070
2020/01/31 17:54:55.9	357.640	0.600	-0.780	-0.080
2020/01/31 17:54:56.0	357.660	0.620	-0.790	-0.090
2020/01/31 17:54:56.1	357.690	0.630	-0.800	-0.110
2020/01/31 17:54:56.2	357.710	0.630	-0.800	-0.130
2020/01/31 17:54:56.3	357.740	0.630	-0.810	-0.150
2020/01/31 17:54:56.4	357.770	0.630	-0.810	-0.180
2020/01/31 17:54:56.5	357.810	0.620	-0.800	-0.200
2020/01/31 17:54:56.6	357.840	0.610	-0.800	-0.230
2020/01/31 17:54:56.7	357.870	0.590	-0.790	-0.260
2020/01/31 17:54:56.8	357.900	0.570	-0.780	-0.290
2020/01/31 17:54:56.9	357.940	0.540	-0.760	-0.320
2020/01/31 17:54:57.0	357.980	0.510	-0.740	-0.350
2020/01/31 17:54:57.1	358.020	0.470	-0.720	-0.380
2020/01/31 17:54:57.2	358.050	0.430	-0.690	-0.410
2020/01/31 17:54:57.3	358.090	0.390	-0.660	-0.440
2020/01/31 17:54:57.4	358.130	0.340	-0.630	-0.470
2020/01/31 17:54:57.5	358.160	0.290	-0.600	-0.490
2020/01/31 17:54:57.6	358.200	0.240	-0.560	-0.510
2020/01/31 17:54:57.7	358.230	0.190	-0.510	-0.530
2020/01/31 17:54:57.8	358.280	0.140	-0.470	-0.550
2020/01/31 17:54:57.9	358.310	0.080	-0.420	-0.570
2020/01/31 17:54:58.0	358.340	0.030	-0.370	-0.580
2020/01/31 17:54:58.1	358.370	-0.030	-0.320	-0.590
2020/01/31 17:54:58.2	358.400	-0.090	-0.260	-0.590
2020/01/31 17:54:58.3	358.420	-0.140	-0.210	-0.590
2020/01/31 17:54:58.4	358.440	-0.200	-0.150	-0.590
2020/01/31 17:54:58.5	358.460	-0.250	-0.090	-0.580
2020/01/31 17:54:58.6	358.480	-0.300	-0.030	-0.570
2020/01/31 17:54:58.7	358.490	-0.350	0.030	-0.560
2020/01/31 17:54:58.8	358.490	-0.400	0.090	-0.540
2020/01/31 17:54:58.9	358.490	-0.440	0.150	-0.510
2020/01/31 17:54:59.0	358.490	-0.490	0.200	-0.490
2020/01/31 17:54:59.1	358.490	-0.520	0.260	-0.450
2020/01/31 17:54:59.2	358.480	-0.560	0.310	-0.420
2020/01/31 17:54:59.3	358.470	-0.590	0.360	-0.380
2020/01/31 17:54:59.4	358.460	-0.620	0.400	-0.340
2020/01/31 17:54:59.5	358.440	-0.640	0.440	-0.300
2020/01/31 17:54:59.6	358.420	-0.660	0.480	-0.260
2020/01/31 17:54:59.7	358.400	-0.680	0.510	-0.220
2020/01/31 17:54:59.8	358.360	-0.690	0.530	-0.180
2020/01/31 17:54:59.9	358.340	-0.700	0.550	-0.140
2020/01/31 17:55:00.0	358.310	-0.700	0.560	-0.100
2020/01/31 17:55:00.1	358.280	-0.700	0.560	-0.070
2020/01/31 17:55:00.2	358.260	-0.700	0.560	-0.030
2020/01/31 17:55:00.3	358.230	-0.690	0.550	-0.000
2020/01/31 17:55:00.4	358.210	-0.680	0.530	0.030
2020/01/31 17:55:00.5	358.180	-0.670	0.500	0.050
2020/01/31 17:55:00.6	358.160	-0.650	0.470	0.070
2020/01/31 17:55:00.7	358.140	-0.630	0.430	0.080
2020/01/31 17:55:00.8	358.120	-0.610	0.380	0.100
2020/01/31 17:55:00.9	358.100	-0.580	0.330	0.100
2020/01/31 17:55:01.0	358.090	-0.550	0.270	0.110
2020/01/31 17:55:01.1	358.080	-0.520	0.210	0.110
2020/01/31 17:55:01.2	358.070	-0.490	0.150	0.100
2020/01/31 17:55:01.3	358.060	-0.450	0.080	0.090
2020/01/31 17:55:01.4	358.060	-0.420	0.000	0.080
2020/01/31 17:55:01.5	358.050	-0.380	-0.070	0.070
2020/01/31 17:55:01.6	358.050	-0.340	-0.140	0.050
2020/01/31 17:55:01.7	358.050	-0.300	-0.220	0.030
2020/01/31 17:55:01.8	358.060	-0.270	-0.290	0.010
2020/01/31 17:55:01.9	358.060	-0.230	-0.360	-0.010
2020/01/31 17:55:02.0	358.070	-0.190	-0.430	-0.030
2020/01/31 17:55:02.1	358.070	-0.160	-0.500	-0.050
2020/01/31 17:55:02.2	358.080	-0.120	-0.560	-0.080
2020/01/31 17:55:02.3	358.080	-0.090	-0.620	-0.100
2020/01/31 17:55:02.4	358.090	-0.060	-0.670	-0.120
2020/01/31 17:55:02.5	358.090	-0.030	-0.710	-0.140
2020/01/31 17:55:02.6	358.100	-0.010	-0.750	-0.170
2020/01/31 17:55:02.7	358.100	0.020	-0.780	-0.190
2020/01/31 17:55:02.8	358.110	0.040	-0.810	-0.210
2020/01/31 17:55:02.9	358.120	0.060	-0.830	-0.230
2020/01/31 17:55:03.0	358.120	0.070	-0.840	-0.250
2020/01/31 17:55:03.1	358.130	0.090	-0.850	-0.270
2020/01/31 17:55:03.2	358.130	0.100	-0.850	-0.290
2020/01/31 17:55:03.3	358.140	0.110	-0.850	-0.300
2020/01/31 17:55:03.4	358.150	0.110	-0.840	-0.320
2020/01/31 17:55:03.5	358.150	0.120	-0.820	-0.340
2020/01/31 17:55:03.6	358.160	0.120	-0.810	-0.360
2020/01/31 17:55:03.7	358.170	0.120	-0.790	-0.370
2020/01/31 17:55:03.8	358.180	0.120	-0.760	-0.400
2020/01/31 17:55:03.9	358.190	0.120	-0.740	-0.410
2020/01/31 17:55:04.0	358.210	0.120	-0.710	-0.430
2020/01/31 17:55:04.1	358.220	0.120	-0.680	-0.440
2020/01/31 17:55:04.2	358.240	0.120	-0.650	-0.450
2020/01/31 17:55:04.3	358.260	0.120	-0.620	-0.460
2020/01/31 17:55:04.4	358.280	0.120	-0.590	-0.470
2020/01/31 17:55:04.5	358.300	0.120	-0.560	-0.480
2020/01/31 17:55:04.6	358.320	0.130	-0.530	-0.480
2020/01/31 17:55:04.7	358.340	0.130	-0.500	-0.480
2020/01/31 17:55:04.8	358.360	0.140	-0.470	-0.480
2020/01/31 17:55:04.9	358.380	0.140	-0.440	-0.470
2020/01/31 17:55:05.0	358.390	0.150	-0.410	-0.460
2020/01/31 17:55:05.1	358.400	0.160	-0.380	-0.440
2020/01/31 17:55:05.2	358.420	0.170	-0.350	-0.420
2020/01/31 17:55:05.3	358.420	0.180	-0.320	-0.390
2020/01/31 17:55:05.4	358.430	0.190	-0.290	-0.360
2020/01/31 17:55:05.5	358.430	0.210	-0.260	-0.320
2020/01/31 17:55:05.6	358.430	0.220	-0.230	-0.280
2020/01/31 17:55:05.7	358.420	0.240	-0.200	-0.230
2020/01/31 17:55:05.8	358.410	0.250	-0.170	-0.170
2020/01/31 17:55:05.9	358.400	0.270	-0.150	-0.120
2020/01/31 17:55:06.0	358.390	0.290	-0.120	-0.060
2020/01/31 17:55:06.1	358.370	0.300	-0.090	0.000
2020/01/31 17:55:06.2	358.350	0.320	-0.060	0.060
2020/01/31 17:55:06.3	358.330	0.330	-0.030	0.130
2020/01/31 17:55:06.4	358.310	0.340	-0.010	0.190
2020/01/31 17:55:06.5	358.280	0.360	0.020	0.250
2020/01/31 17:55:06.6	358.260	0.370	0.040	0.300
2020/01/31 17:55:06.7	358.230	0.380	0.060	0.360
2020/01/31 17:55:06.8	358.200	0.380	0.080	0.410
2020/01/31 17:55:06.9	358.180	0.390	0.090	0.460
2020/01/31 17:55:07.0	358.150	0.390	0.100	0.500
2020/01/31 17:55:07.1	358.130	0.400	0.110	0.540
2020/01/31 17:55:07.2	358.100	0.400	0.120	0.570
2020/01/31 17:55:07.3	358.080	0.390	0.120	0.590
2020/01/31 17:55:07.4	358.060	0.390	0.110	0.610
2020/01/31 17:55:07.5	358.040	0.380	0.110	0.630
2020/01/31 17:55:07.6	358.030	0.370	0.100	0.630
2020/01/31 17:55:07.7	358.010	0.370	0.080	0.630
2020/01/31 17:55:07.8	358.010	0.350	0.060	0.620
2020/01/31 17:55:07.9	358.010	0.340	0.040	0.600
2020/01/31 17:55:08.0	358.010	0.330	0.010	0.580
2020/01/31 17:55:08.1	358.020	0.310	-0.020	0.560
2020/01/31 17:55:08.2	358.030	0.300	-0.050	0.520
2020/01/31 17:55:08.3	358.040	0.280	-0.090	0.490
2020/01/31 17:55:08.4	358.060	0.270	-0.130	0.450
2020/01/31 17:55:08.5	358.080	0.250	-0.170	0.400
2020/01/31 17:55:08.6	358.110	0.230	-0.210	0.360
2020/01/31 17:55:08.7	358.130	0.210	-0.260	0.310
2020/01/31 17:55:08.8	358.160	0.190	-0.300	0.250
2020/01/31 17:55:08.9	358.190	0.180	-0.340	0.200
2020/01/31 17:55:09.0	358.220	0.160	-0.390	0.150
2020/01/31 17:55:09.1	358.250	0.140	-0.420	0.100
2020/01/31 17:55:09.2	358.280	0.120	-0.460	0.060
2020/01/31 17:55:09.3	358.300	0.100	-0.490	0.010
2020/01/31 17:55:09.4	358.330	0.080	-0.520	-0.040
2020/01/31 17:55:09.5	358.350	0.060	-0.540	-0.090
2020/01/31 17:55:09.6	358.380	0.040	-0.560	-0.130
2020/01/31 17:55:09.7	358.400	0.020	-0.570	-0.170
2020/01/31 17:55:09.8	358.420	0.000	-0.570	-0.220
2020/01/31 17:55:09.9	358.430	-0.010	-0.570	-0.260
2020/01/31 17:55:10.0	358.450	-0.030	-0.570	-0.300
2020/01/31 17:55:10.1	358.460	-0.050	-0.560	-0.340
2020/01/31 17:55:10.2	358.470	-0.060	-0.550	-0.380
2020/01/31 17:55:10.3	358.480	-0.070	-0.530	-0.410
2020/01/31 17:55:10.4	358.490	-0.090	-0.510	-0.440
2020/01/31 17:55:10.5	358.490	-0.100	-0.480	-0.470
2020/01/31 17:55:10.6	358.490	-0.110	-0.450	-0.500
2020/01/31 17:55:10.7	358.500	-0.120	-0.420	-0.520
2020/01/31 17:55:10.8	358.500	-0.130	-0.380	-0.550
2020/01/31 17:55:10.9	358.500	-0.130	-0.350	-0.570
2020/01/31 17:55:11.0	358.490	-0.140	-0.310	-0.580
2020/01/31 17:55:11.1	358.490	-0.140	-0.270	-0.590
2020/01/31 17:55:11.2	358.480	-0.140	-0.230	-0.590
2020/01/31 17:55:11.3	358.480	-0.140	-0.190	-0.590
2020/01/31 17:55:11.4	358.470	-0.140	-0.160	-0.590
2020/01/31 17:55:11.5	358.460	-0.130	-0.120	-0.580
2020/01/31 17:55:11.6	358.440	-0.130	-0.090	-0.570
2020/01/31 17:55:11.7	358.430	-0.120	-0.060	-0.550
2020/01/31 17:55:11.8	358.420	-0.110	-0.030	-0.530
2020/01/31 17:55:11.9	358.400	-0.110	-0.010	-0.510
2020/01/31 17:55:12.0	358.380	-0.100	0.010	-0.490
2020/01/31 17:55:12.1	358.370	-0.090	0.030	-0.460
2020/01/31 17:55:12.2	358.350	-0.080	0.050	-0.430
2020/01/31 17:55:12.3	358.330	-0.070	0.060	-0.400
2020/01/31 17:55:12.4	358.320	-0.060	0.070	-0.370
2020/01/31 17:55:12.5	358.300	-0.050	0.070	-0.340
2020/01/31 17:55:12.6	358.280	-0.040	0.070	-0.310
2020/01/31 17:55:12.7	358.270	-0.030	0.070	-0.280
2020/01/31 17:55:12.8	358.250	-0.030	0.060	-0.250
2020/01/31 17:55:12.9	358.240	-0.020	0.050	-0.220
2020/01/31 17:55:13.0	358.230	-0.020	0.040	-0.200
2020/01/31 17:55:13.1	358.220	-0.020	0.020	-0.180
2020/01/31 17:55:13.2	358.220	-0.020	-0.000	-0.160
2020/01/31 17:55:13.3	358.220	-0.020	-0.030	-0.140
2020/01/31 17:55:13.4	358.220	-0.020	-0.050	-0.130
2020/01/31 17:55:13.5	358.220	-0.030	-0.080	-0.120
2020/01/31 17:55:13.6	358.230	-0.030	-0.120	-0.110
2020/01/31 17:55:13.7	358.240	-0.040	-0.150	-0.100
2020/01/31 17:55:13.8	358.250	-0.050	-0.190	-0.110
2020/01/31 17:55:13.9	358.260	-0.060	-0.230	-0.110
2020/01/31 17:55:14.0	358.280	-0.080	-0.270	-0.120
2020/01/31 17:55:14.1	358.290	-0.090	-0.310	-0.120
2020/01/31 17:55:14.2	358.310	-0.110	-0.350	-0.130
2020/01/31 17:55:14.3	358.330	-0.130	-0.390	-0.150
2020/01/31 17:55:14.4	358.350	-0.150	-0.420	-0.160
2020/01/31 17:55:14.5	358.370	-0.170	-0.460	-0.180
2020/01/31 17:55:14.6	358.390	-0.190	-0.490	-0.200
2020/01/31 17:55:14.7	358.410	-0.210	-0.520	-0.220
2020/01/31 17:55:14.8	358.430	-0.240	-0.540	-0.240
2020/01/31 17:55:14.9	358.450	-0.260	-0.560	-0.260
2020/01/31 17:55:15.0	358.470	-0.280	-0.580	-0.280
2020/01/31 17:55:15.1	358.480	-0.300	-0.590	-0.300
2020/01/31 17:55:15.2	358.500	-0.320	-0.590	-0.310
2020/01/31 17:55:15.3	358.510	-0.340	-0.590	-0.320
2020/01/31 17:55:15.4	358.520	-0.360	-0.590	-0.330
2020/01/31 17:55:15.5	358.530	-0.380	-0.570	-0.330
2020/01/31 17:55:15.6	358.530	-0.400	-0.560	-0.340
2020/01/31 17:55:15.7	358.530	-0.410	-0.530	-0.330
2020/01/31 17:55:15.8	358.530	-0.420	-0.500	-0.330
2020/01/31 17:55:15.9	358.530	-0.430	-0.470	-0.320
2020/01/31 17:55:16.0	358.520	-0.440	-0.430	-0.300
2020/01/31 17:55:16.1	358.510	-0.440	-0.390	-0.280
2020/01/31 17:55:16.2	358.490	-0.450	-0.340	-0.260
2020/01/31 17:55:16.3	358.480	-0.450	-0.300	-0.240
2020/01/31 17:55:16.4	358.460	-0.450	-0.250	-0.210
2020/01/31 17:55:16.5	358.440	-0.440	-0.200	-0.180
2020/01/31 17:55:16.6	358.410	-0.430	-0.150	-0.150
2020/01/31 17:55:16.7	358.390	-0.420	-0.110	-0.120
2020/01/31 17:55:16.8	358.360	-0.400	-0.060	-0.090
2020/01/31 17:55:16.9	358.330	-0.390	-0.020	-0.050
2020/01/31 17:55:17.0	358.310	-0.360	0.010	-0.020
2020/01/31 17:55:17.1	358.280	-0.340	0.050	0.020
2020/01/31 17:55:17.2	358.260	-0.310	0.070	0.050
2020/01/31 17:55:17.3	358.240	-0.280	0.090	0.080
2020/01/31 17:55:17.4	358.210	-0.240	0.110	0.110
2020/01/31 17:55:17.5	358.190	-0.200	0.120	0.140
2020/01/31 17:55:17.6	358.180	-0.160	0.120	0.170
2020/01/31 17:55:17.7	358.160	-0.120	0.120	0.190
2020/01/31 17:55:17.8	358.150	-0.070	0.100	0.210
2020/01/31 17:55:17.9	358.140	-0.020	0.080	0.230
2020/01/31 17:55:18.0	358.130	0.030	0.060	0.250
2020/01/31 17:55:18.1	358.130	0.090	0.030	0.260
2020/01/31 17:55:18.2	358.130	0.150	-0.010	0.270
2020/01/31 17:55:18.3	358.130	0.200	-0.050	0.280
2020/01/31 17:55:18.4	358.130	0.260	-0.100	0.290
2020/01/31 17:55:18.5	358.140	0.320	-0.150	0.290
2020/01/31 17:55:18.6	358.150	0.380	-0.210	0.290
2020/01/31 17:55:18.7	358.160	0.440	-0.270	0.300
2020/01/31 17:55:18.8	358.170	0.500	-0.320	0.290
2020/01/31 17:55:18.9	358.190	0.560	-0.380	0.290
2020/01/31 17:55:19.0	358.200	0.610	-0.440	0.290
2020/01/31 17:55:19.1	358.220	0.660	-0.500	0.290
2020/01/31 17:55:19.2	358.240	0.710	-0.550	0.290
2020/01/31 17:55:19.3	358.250	0.760	-0.600	0.290
2020/01/31 17:55:19.4	358.270	0.800	-0.640	0.300
2020/01/31 17:55:19.5	358.280	0.830	-0.680	0.300
2020/01/31 17:55:19.6	358.290	0.860	-0.720	0.300
2020/01/31 17:55:19.7	358.300	0.890	-0.740	0.300
2020/01/31 17:55:19.8	358.300	0.910	-0.760	0.290
2020/01/31 17:55:19.9	358.310	0.920	-0.770	0.290
2020/01/31 17:55:20.0	358.310	0.920	-0.780	0.290
2020/01/31 17:55:20.1	358.300	0.920	-0.770	0.290
2020/01/31 17:55:20.2	358.300	0.910	-0.760	0.280
2020/01/31 17:55:20.3	358.290	0.900	-0.750	0.270
2020/01/31 17:55:20.4	358.280	0.880	-0.720	0.260
2020/01/31 17:55:20.5	358.270	0.850	-0.690	0.250
2020/01/31 17:55:20.6	358.260	0.810	-0.660	0.240
2020/01/31 17:55:20.7	358.240	0.770	-0.610	0.220
2020/01/31 17:55:20.8	358.230	0.720	-0.570	0.200
2020/01/31 17:55:20.9	358.210	0.660	-0.520	0.180
2020/01/31 17:55:21.0	358.200	0.600	-0.470	0.160
2020/01/31 17:55:21.1	358.180	0.530	-0.420	0.130
2020/01/31 17:55:21.2	358.160	0.470	-0.370	0.100
2020/01/31 17:55:21.3	358.150	0.390	-0.320	0.070
2020/01/31 17:55:21.4	358.140	0.320	-0.270	0.030
2020/01/31 17:55:21.5	358.120	0.240	-0.230	-0.010
2020/01/31 17:55:21.6	358.120	0.160	-0.180	-0.050
2020/01/31 17:55:21.7	358.110	0.080	-0.140	-0.100
2020/01/31 17:55:21.8	358.100	-0.000	-0.100	-0.140
2020/01/31 17:55:21.9	358.100	-0.080	-0.070	-0.190
2020/01/31 17:55:22.0	358.110	-0.160	-0.040	-0.240
2020/01/31 17:55:22.1	358.110	-0.240	-0.020	-0.300
2020/01/31 17:55:22.2	358.120	-0.310	0.000	-0.350
2020/01/31 17:55:22.3	358.130	-0.380	0.020	-0.410
2020/01/31 17:55:22.4	358.150	-0.450	0.030	-0.460
2020/01/31 17:55:22.5	358.170	-0.510	0.030	-0.520
2020/01/31 17:55:22.6	358.190	-0.570	0.030	-0.580
2020/01/31 17:55:22.7	358.210	-0.630	0.030	-0.640
2020/01/31 17:55:22.8	358.230	-0.680	0.030	-0.700
2020/01/31 17:55:22.9	358.260	-0.720	0.020	-0.760
2020/01/31 17:55:23.0	358.290	-0.760	0.010	-0.810
2020/01/31 17:55:23.1	358.330	-0.790	-0.010	-0.870
2020/01/31 17:55:23.2	358.360	-0.820	-0.020	-0.920
2020/01/31 17:55:23.3	358.400	-0.840	-0.040	-0.970
2020/01/31 17:55:23.4	358.430	-0.850	-0.050	-1.020
2020/01/31 17:55:23.5	358.470	-0.860	-0.070	-1.060
2020/01/31 17:55:23.6	358.500	-0.860	-0.090	-1.090
2020/01/31 17:55:23.7	358.530	-0.850	-0.100	-1.120
2020/01/31 17:55:23.8	358.560	-0.840	-0.110	-1.150
2020/01/31 17:55:23.9	358.580	-0.820	-0.120	-1.160
2020/01/31 17:55:24.0	358.600	-0.790	-0.120	-1.170
2020/01/31 17:55:24.1	358.620	-0.760	-0.130	-1.160
2020/01/31 17:55:24.2	358.630	-0.730	-0.130	-1.150
2020/01/31 17:55:24.3	358.640	-0.690	-0.120	-1.130
2020/01/31 17:55:24.4	358.640	-0.640	-0.110	-1.100
2020/01/31 17:55:24.5	358.640	-0.590	-0.100	-1.070
2020/01/31 17:55:24.6	358.640	-0.540	-0.090	-1.030
2020/01/31 17:55:24.7	358.630	-0.480	-0.080	-0.980
2020/01/31 17:55:24.8	358.620	-0.420	-0.070	-0.920
2020/01/31 17:55:24.9	358.610	-0.360	-0.050	-0.860
2020/01/31 17:55:25.0	358.600	-0.300	-0.030	-0.800
2020/01/31 17:55:25.1	358.580	-0.240	-0.010	-0.740
2020/01/31 17:55:25.2	358.560	-0.170	0.000	-0.670
2020/01/31 17:55:25.3	358.540	-0.110	0.020	-0.600
2020/01/31 17:55:25.4	358.520	-0.050	0.030	-0.540
2020/01/31 17:55:25.5	358.500	0.010	0.040	-0.470
2020/01/31 17:55:25.6	358.480	0.080	0.050	-0.400
2020/01/31 17:55:25.7	358.470	0.140	0.060	-0.330
2020/01/31 17:55:25.8	358.450	0.190	0.060	-0.260
2020/01/31 17:55:25.9	358.430	0.250	0.070	-0.190
2020/01/31 17:55:26.0	358.410	0.300	0.060	-0.130
2020/01/31 17:55:26.1	358.390	0.350	0.060	-0.060
2020/01/31 17:55:26.2	358.370	0.400	0.050	0.000
2020/01/31 17:55:26.3	358.350	0.440	0.030	0.070
2020/01/31 17:55:26.4	358.330	0.480	0.020	0.130
2020/01/31 17:55:26.5	358.310	0.520	-0.000	0.180
2020/01/31 17:55:26.6	358.290	0.550	-0.030	0.240
2020/01/31 17:55:26.7	358.270	0.580	-0.050	0.290
2020/01/31 17:55:26.8	358.250	0.600	-0.080	0.340
2020/01/31 17:55:26.9	358.230	0.610	-0.110	0.380
2020/01/31 17:55:27.0	358.210	0.630	-0.140	0.420
2020/01/31 17:55:27.1	358.200	0.630	-0.180	0.450
2020/01/31 17:55:27.2	358.180	0.630	-0.210	0.480
2020/01/31 17:55:27.3	358.160	0.630	-0.250	0.500
2020/01/31 17:55:27.4	358.140	0.620	-0.280	0.510
2020/01/31 17:55:27.5	358.120	0.610	-0.320	0.520
2020/01/31 17:55:27.6	358.100	0.590	-0.350	0.520
2020/01/31 17:55:27.7	358.080	0.560	-0.380	0.510
2020/01/31 17:55:27.8	358.060	0.540	-0.410	0.500
2020/01/31 17:55:27.9	358.040	0.500	-0.440	0.490
2020/01/31 17:55:28.0	358.020	0.470	-0.470	0.470
2020/01/31 17:55:28.1	358.000	0.430	-0.490	0.450
2020/01/31 17:55:28.2	357.980	0.380	-0.510	0.420
2020/01/31 17:55:28.3	357.960	0.340	-0.530	0.390
2020/01/31 17:55:28.4	357.940	0.290	-0.540	0.360
2020/01/31 17:55:28.5	357.920	0.240	-0.560	0.320
2020/01/31 17:55:28.6	357.900	0.180	-0.560	0.290
2020/01/31 17:55:28.7	357.880	0.130	-0.570	0.250
2020/01/31 17:55:28.8	357.860	0.070	-0.570	0.210
2020/01/31 17:55:28.9	357.850	0.010	-0.570	0.160
2020/01/31 17:55:29.0	357.830	-0.040	-0.570	0.120
2020/01/31 17:55:29.1	357.820	-0.100	-0.570	0.070
2020/01/31 17:55:29.2	357.810	-0.150	-0.570	0.020
2020/01/31 17:55:29.3	357.800	-0.200	-0.560	-0.030
2020/01/31 17:55:29.4	357.800	-0.260	-0.560	-0.080
2020/01/31 17:55:29.5	357.800	-0.300	-0.560	-0.130
2020/01/31 17:55:29.6	357.800	-0.350	-0.550	-0.190
2020/01/31 17:55:29.7	357.800	-0.390	-0.550	-0.240
2020/01/31 17:55:29.8	357.810	-0.430	-0.540	-0.300
2020/01/31 17:55:29.9	357.820	-0.460	-0.540	-0.350
2020/01/31 17:55:30.0	357.830	-0.490	-0.540	-0.400
2020/01/31 17:55:30.1	357.840	-0.510	-0.530	-0.450
2020/01/31 17:55:30.2	357.860	-0.530	-0.530	-0.500
2020/01/31 17:55:30.3	357.880	-0.540	-0.530	-0.550
2020/01/31 17:55:30.4	357.900	-0.550	-0.540	-0.590
2020/01/31 17:55:30.5	357.920	-0.550	-0.540	-0.630
2020/01/31 17:55:30.6	357.940	-0.540	-0.540	-0.670
2020/01/31 17:55:30.7	357.970	-0.530	-0.540	-0.710
2020/01/31 17:55:30.8	358.000	-0.520	-0.550	-0.750
2020/01/31 17:55:30.9	358.030	-0.500	-0.550	-0.780
2020/01/31 17:55:31.0	358.060	-0.480	-0.550	-0.800
2020/01/31 17:55:31.1	358.090	-0.450	-0.550	-0.830
2020/01/31 17:55:31.2	358.120	-0.420	-0.550	-0.850
2020/01/31 17:55:31.3	358.150	-0.390	-0.550	-0.870
2020/01/31 17:55:31.4	358.180	-0.350	-0.550	-0.880
2020/01/31 17:55:31.5	358.210	-0.320	-0.550	-0.890
2020/01/31 17:55:31.6	358.240	-0.270	-0.540	-0.890
2020/01/31 17:55:31.7	358.280	-0.230	-0.540	-0.900
2020/01/31 17:55:31.8	358.300	-0.190	-0.520	-0.900
2020/01/31 17:55:31.9	358.340	-0.150	-0.510	-0.890
2020/01/31 17:55:32.0	358.370	-0.100	-0.500	-0.880
2020/01/31 17:55:32.1	358.400	-0.060	-0.490	-0.870
2020/01/31 17:55:32.2	358.440	-0.010	-0.470	-0.860
2020/01/31 17:55:32.3	358.470	0.030	-0.460	-0.850
2020/01/31 17:55:32.4	358.500	0.070	-0.440	-0.830
2020/01/31 17:55:32.5	358.540	0.110	-0.420	-0.810
2020/01/31 17:55:32.6	358.570	0.140	-0.400	-0.790
2020/01/31 17:55:32.7	358.610	0.180	-0.380	-0.760
2020/01/31 17:55:32.8	358.640	0.210	-0.370	-0.730
2020/01/31 17:55:32.9	358.670	0.240	-0.350	-0.710
2020/01/31 17:55:33.0	358.700	0.260	-0.320	-0.680
2020/01/31 17:55:33.1	358.740	0.280	-0.300	-0.650
2020/01/31 17:55:33.2	358.770	0.300	-0.280	-0.610
2020/01/31 17:55:33.3	358.800	0.320	-0.260	-0.580
2020/01/31 17:55:33.4	358.830	0.330	-0.240	-0.540
2020/01/31 17:55:33.5	358.860	0.340	-0.220	-0.500
2020/01/31 17:55:33.6	358.880	0.350	-0.200	-0.460
2020/01/31 17:55:33.7	358.900	0.350	-0.170	-0.420
2020/01/31 17:55:33.8	358.920	0.360	-0.150	-0.370
2020/01/31 17:55:33.9	358.940	0.350	-0.130	-0.320
2020/01/31 17:55:34.0	358.950	0.350	-0.110	-0.270
2020/01/31 17:55:34.1	358.960	0.340	-0.080	-0.220
2020/01/31 17:55:34.2	358.960	0.330	-0.060	-0.170
2020/01/31 17:55:34.3	358.960	0.320	-0.040	-0.110
2020/01/31 17:55:34.4	358.960	0.310	-0.010	-0.050
2020/01/31 17:55:34.5	358.950	0.290	0.010	0.000
2020/01/31 17:55:34.6	358.930	0.280	0.030	0.060
2020/01/31 17:55:34.7	358.910	0.260	0.050	0.120
2020/01/31 17:55:34.8	358.890	0.240	0.070	0.180
2020/01/31 17:55:34.9	358.860	0.220	0.090	0.230
2020/01/31 17:55:35.0	358.830	0.200	0.120	0.290
2020/01/31 17:55:35.1	358.790	0.180	0.130	0.340
2020/01/31 17:55:35.2	358.750	0.160	0.150	0.390
2020/01/31 17:55:35.3	358.710	0.140	0.170	0.440
2020/01/31 17:55:35.4	358.660	0.120	0.190	0.490
2020/01/31 17:55:35.5	358.610	0.100	0.200	0.540
2020/01/31 17:55:35.6	358.560	0.080	0.210	0.580
2020/01/31 17:55:35.7	358.500	0.070	0.230	0.620
2020/01/31 17:55:35.8	358.440	0.050	0.240	0.650
2020/01/31 17:55:35.9	358.380	0.040	0.250	0.680
2020/01/31 17:55:36.0	358.320	0.030	0.260	0.710
2020/01/31 17:55:36.1	358.260	0.020	0.260	0.740
2020/01/31 17:55:36.2	358.190	0.010	0.270	0.760
2020/01/31 17:55:36.3	358.130	0.000	0.270	0.780
2020/01/31 17:55:36.4	358.070	-0.000	0.270	0.790
2020/01/31 17:55:36.5	358.010	-0.010	0.270	0.800
2020/01/31 17:55:36.6	357.950	-0.010	0.270	0.800
2020/01/31 17:55:36.7	357.890	-0.010	0.260	0.800
2020/01/31 17:55:36.8	357.830	-0.020	0.250	0.800
2020/01/31 17:55:36.9	357.780	-0.020	0.240	0.790
2020/01/31 17:55:37.0	357.730	-0.010	0.230	0.770
2020/01/31 17:55:37.1	357.680	-0.010	0.220	0.760
2020/01/31 17:55:37.2	357.630	-0.010	0.200	0.730
2020/01/31 17:55:37.3	357.590	-0.010	0.180	0.710
2020/01/31 17:55:37.4	357.540	-0.010	0.160	0.680
2020/01/31 17:55:37.5	357.500	-0.000	0.130	0.650
2020/01/31 17:55:37.6	357.470	-0.000	0.100	0.620
2020/01/31 17:55:37.7	357.430	-0.000	0.080	0.580
2020/01/31 17:55:37.8	357.400	0.000	0.050	0.540
2020/01/31 17:55:37.9	357.370	0.000	0.020	0.500
2020/01/31 17:55:38.0	357.340	0.000	-0.020	0.450
2020/01/31 17:55:38.1	357.320	0.000	-0.050	0.410
2020/01/31 17:55:38.2	357.300	0.000	-0.090	0.360
2020/01/31 17:55:38.3	357.280	-0.000	-0.130	0.310
2020/01/31 17:55:38.4	357.270	-0.000	-0.170	0.260
2020/01/31 17:55:38.5	357.260	-0.010	-0.210	0.200
2020/01/31 17:55:38.6	357.250	-0.010	-0.250	0.150
2020/01/31 17:55:38.7	357.250	-0.020	-0.300	0.090
2020/01/31 17:55:38.8	357.250	-0.020	-0.340	0.030
2020/01/31 17:55:38.9	357.260	-0.030	-0.380	-0.040
2020/01/31 17:55:39.0	357.270	-0.040	-0.430	-0.100
2020/01/31 17:55:39.1	357.290	-0.050	-0.470	-0.170
2020/01/31 17:55:39.2	357.310	-0.060	-0.510	-0.240
2020/01/31 17:55:39.3	357.330	-0.070	-0.550	-0.310
2020/01/31 17:55:39.4	357.360	-0.080	-0.590	-0.380
2020/01/31 17:55:39.5	357.390	-0.090	-0.620	-0.450
2020/01/31 17:55:39.6	357.420	-0.100	-0.660	-0.520
2020/01/31 17:55:39.7	357.460	-0.110	-0.690	-0.590
2020/01/31 17:55:39.8	357.490	-0.120	-0.720	-0.670
2020/01/31 17:55:39.9	357.530	-0.130	-0.740	-0.740
2020/01/31 17:55:40.0	357.580	-0.130	-0.770	-0.800
2020/01/31 17:55:40.1	357.620	-0.140	-0.790	-0.860
2020/01/31 17:55:40.2	357.670	-0.150	-0.810	-0.920
2020/01/31 17:55:40.3	357.720	-0.160	-0.820	-0.970
2020/01/31 17:55:40.4	357.770	-0.160	-0.840	-1.020
2020/01/31 17:55:40.5	357.810	-0.170	-0.840	-1.060
2020/01/31 17:55:40.6	357.860	-0.170	-0.850	-1.100
2020/01/31 17:55:40.7	357.910	-0.170	-0.850	-1.140
2020/01/31 17:55:40.8	357.960	-0.170	-0.850	-1.170
2020/01/31 17:55:40.9	358.010	-0.170	-0.850	-1.190
2020/01/31 17:55:41.0	358.060	-0.170	-0.840	-1.210
2020/01/31 17:55:41.1	358.100	-0.170	-0.840	-1.230
2020/01/31 17:55:41.2	358.150	-0.160	-0.830	-1.240
2020/01/31 17:55:41.3	358.200	-0.160	-0.820	-1.250
2020/01/31 17:55:41.4	358.240	-0.150	-0.810	-1.250
2020/01/31 17:55:41.5	358.290	-0.140	-0.800	-1.250
2020/01/31 17:55:41.6	358.330	-0.130	-0.790	-1.250
2020/01/31 17:55:41.7	358.380	-0.120	-0.780	-1.240
2020/01/31 17:55:41.8	358.410	-0.110	-0.770	-1.230
2020/01/31 17:55:41.9	358.460	-0.100	-0.760	-1.220
2020/01/31 17:55:42.0	358.500	-0.090	-0.750	-1.210
2020/01/31 17:55:42.1	358.530	-0.080	-0.740	-1.200
2020/01/31 17:55:42.2	358.570	-0.070	-0.730	-1.180
2020/01/31 17:55:42.3	358.600	-0.060	-0.720	-1.160
2020/01/31 17:55:42.4	358.630	-0.050	-0.720	-1.140
2020/01/31 17:55:42.5	358.660	-0.030	-0.710	-1.120
2020/01/31 17:55:42.6	358.690	-0.020	-0.700	-1.100
2020/01/31 17:55:42.7	358.720	-0.010	-0.690	-1.080
2020/01/31 17:55:42.8	358.740	-0.000	-0.670	-1.060
2020/01/31 17:55:42.9	358.760	0.010	-0.660	-1.030
2020/01/31 17:55:43.0	358.770	0.020	-0.640	-1.000
2020/01/31 17:55:43.1	358.790	0.030	-0.630	-0.970
2020/01/31 17:55:43.2	358.800	0.040	-0.600	-0.940
2020/01/31 17:55:43.3	358.810	0.050	-0.580	-0.900
2020/01/31 17:55:43.4	358.810	0.060	-0.550	-0.860
2020/01/31 17:55:43.5	358.820	0.070	-0.510	-0.820
2020/01/31 17:55:43.6	358.810	0.070	-0.480	-0.770
2020/01/31 17:55:43.7	358.810	0.080	-0.430	-0.720
2020/01/31 17:55:43.8	358.790	0.080	-0.380	-0.660
2020/01/31 17:55:43.9	358.780	0.090	-0.330	-0.600
2020/01/31 17:55:44.0	358.760	0.090	-0.270	-0.530
2020/01/31 17:55:44.1	358.730	0.090	-0.210	-0.460
2020/01/31 17:55:44.2	358.710	0.090	-0.140	-0.390
2020/01/31 17:55:44.3	358.670	0.080	-0.060	-0.310
2020/01/31 17:55:44.4	358.630	0.080	0.020	-0.230
2020/01/31 17:55:44.5	358.590	0.070	0.100	-0.150
2020/01/31 17:55:44.6	358.550	0.060	0.180	-0.070
2020/01/31 17:55:44.7	358.500	0.050	0.260	0.010
2020/01/31 17:55:44.8	358.440	0.040	0.350	0.090
2020/01/31 17:55:44.9	358.380	0.020	0.430	0.170
2020/01/31 17:55:45.0	358.320	0.010	0.510	0.240
2020/01/31 17:55:45.1	358.270	-0.010	0.590	0.320
2020/01/31 17:55:45.2	358.200	-0.030	0.670	0.380
2020/01/31 17:55:45.3	358.140	-0.050	0.740	0.440
2020/01/31 17:55:45.4	358.080	-0.070	0.810	0.500
2020/01/31 17:55:45.5	358.020	-0.100	0.870	0.550
2020/01/31 17:55:45.6	357.950	-0.120	0.920	0.590
2020/01/31 17:55:45.7	357.890	-0.150	0.970	0.630
2020/01/31 17:55:45.8	357.820	-0.170	1.000	0.650
2020/01/31 17:55:45.9	357.760	-0.200	1.030	0.680
2020/01/31 17:55:46.0	357.700	-0.220	1.050	0.690
2020/01/31 17:55:46.1	357.640	-0.250	1.060	0.700
2020/01/31 17:55:46.2	357.590	-0.270	1.060	0.690
2020/01/31 17:55:46.3	357.540	-0.290	1.040	0.690
2020/01/31 17:55:46.4	357.500	-0.310	1.020	0.670
2020/01/31 17:55:46.5	357.450	-0.320	0.980	0.650
2020/01/31 17:55:46.6	357.420	-0.340	0.930	0.630
2020/01/31 17:55:46.7	357.380	-0.340	0.870	0.600
2020/01/31 17:55:46.8	357.350	-0.350	0.800	0.550
2020/01/31 17:55:46.9	357.330	-0.350	0.720	0.510
2020/01/31 17:55:47.0	357.310	-0.350	0.630	0.470
2020/01/31 17:55:47.1	357.300	-0.350	0.530	0.420
2020/01/31 17:55:47.2	357.290	-0.340	0.420	0.360
2020/01/31 17:55:47.3	357.290	-0.320	0.300	0.310
2020/01/31 17:55:47.4	357.300	-0.300	0.180	0.250
2020/01/31 17:55:47.5	357.310	-0.280	0.050	0.180
2020/01/31 17:55:47.6	357.320	-0.250	-0.080	0.120
2020/01/31 17:55:47.7	357.340	-0.220	-0.220	0.050
2020/01/31 17:55:47.8	357.370	-0.190	-0.360	-0.020
2020/01/31 17:55:47.9	357.400	-0.150	-0.500	-0.090
2020/01/31 17:55:48.0	357.430	-0.110	-0.640	-0.160
2020/01/31 17:55:48.1	357.460	-0.070	-0.770	-0.230
2020/01/31 17:55:48.2	357.500	-0.030	-0.910	-0.310
2020/01/31 17:55:48.3	357.540	0.020	-1.030	-0.380
2020/01/31 17:55:48.4	357.580	0.070	-1.160	-0.450
2020/01/31 17:55:48.5	357.630	0.110	-1.270	-0.520
2020/01/31 17:55:48.6	357.670	0.160	-1.380	-0.590
2020/01/31 17:55:48.7	357.720	0.210	-1.480	-0.650
2020/01/31 17:55:48.8	357.770	0.260	-1.560	-0.720
2020/01/31 17:55:48.9	357.820	0.310	-1.640	-0.780
2020/01/31 17:55:49.0	357.860	0.360	-1.700	-0.840
2020/01/31 17:55:49.1	357.910	0.400	-1.760	-0.900
2020/01/31 17:55:49.2	357.950	0.450	-1.790	-0.950
2020/01/31 17:55:49.3	357.990	0.490	-1.820	-0.990
2020/01/31 17:55:49.4	358.040	0.520	-1.830	-1.030
2020/01/31 17:55:49.5	358.070	0.560	-1.830	-1.070
2020/01/31 17:55:49.6	358.110	0.590	-1.810	-1.100
2020/01/31 17:55:49.7	358.150	0.610	-1.790	-1.120
2020/01/31 17:55:49.8	358.180	0.630	-1.740	-1.140
2020/01/31 17:55:49.9	358.210	0.650	-1.690	-1.150
2020/01/31 17:55:50.0	358.240	0.660	-1.630	-1.150
2020/01/31 17:55:50.1	358.270	0.670	-1.550	-1.140
2020/01/31 17:55:50.2	358.300	0.670	-1.470	-1.130
2020/01/31 17:55:50.3	358.320	0.670	-1.370	-1.110
2020/01/31 17:55:50.4	358.340	0.660	-1.270	-1.090
2020/01/31 17:55:50.5	358.360	0.650	-1.170	-1.060
2020/01/31 17:55:50.6	358.380	0.630	-1.060	-1.030
2020/01/31 17:55:50.7	358.400	0.610	-0.940	-0.990
2020/01/31 17:55:50.8	358.400	0.580	-0.820	-0.940
2020/01/31 17:55:50.9	358.420	0.550	-0.710	-0.900
2020/01/31 17:55:51.0	358.430	0.520	-0.590	-0.850
2020/01/31 17:55:51.1	358.440	0.480	-0.470	-0.800
2020/01/31 17:55:51.2	358.450	0.430	-0.350	-0.750
2020/01/31 17:55:51.3	358.450	0.390	-0.240	-0.700
2020/01/31 17:55:51.4	358.460	0.340	-0.130	-0.650
2020/01/31 17:55:51.5	358.470	0.290	-0.020	-0.600
2020/01/31 17:55:51.6	358.470	0.230	0.080	-0.550
2020/01/31 17:55:51.7	358.470	0.180	0.170	-0.500
2020/01/31 17:55:51.8	358.470	0.120	0.260	-0.460
2020/01/31 17:55:51.9	358.480	0.060	0.340	-0.420
2020/01/31 17:55:52.0	358.480	0.010	0.420	-0.380
2020/01/31 17:55:52.1	358.480	-0.050	0.480	-0.340
2020/01/31 17:55:52.2	358.480	-0.110	0.540	-0.300
2020/01/31 17:55:52.3	358.480	-0.160	0.600	-0.270
2020/01/31 17:55:52.4	358.480	-0.220	0.650	-0.240
2020/01/31 17:55:52.5	358.480	-0.270	0.690	-0.220
2020/01/31 17:55:52.6	358.480	-0.320	0.720	-0.190
2020/01/31 17:55:52.7	358.480	-0.370	0.750	-0.170
2020/01/31 17:55:52.8	358.480	-0.410	0.780	-0.150
2020/01/31 17:55:52.9	358.470	-0.450	0.790	-0.140
2020/01/31 17:55:53.0	358.470	-0.490	0.800	-0.120
2020/01/31 17:55:53.1	358.470	-0.520	0.810	-0.100
2020/01/31 17:55:53.2	358.460	-0.550	0.810	-0.080
2020/01/31 17:55:53.3	358.450	-0.580	0.810	-0.070
2020/01/31 17:55:53.4	358.440	-0.600	0.800	-0.050
2020/01/31 17:55:53.5	358.430	-0.620	0.790	-0.030
2020/01/31 17:55:53.6	358.420	-0.640	0.780	-0.010
2020/01/31 17:55:53.7	358.410	-0.650	0.770	0.010
2020/01/31 17:55:53.8	358.390	-0.660	0.760	0.030
2020/01/31 17:55:53.9	358.380	-0.670	0.740	0.050
2020/01/31 17:55:54.0	358.360	-0.670	0.720	0.070
2020/01/31 17:55:54.1	358.330	-0.670	0.700	0.100
2020/01/31 17:55:54.2	358.310	-0.660	0.670	0.120
2020/01/31 17:55:54.3	358.280	-0.660	0.640	0.140
2020/01/31 17:55:54.4	358.260	-0.650	0.620	0.160
2020/01/31 17:55:54.5	358.230	-0.630	0.590	0.180
2020/01/31 17:55:54.6	358.200	-0.620	0.550	0.200
2020/01/31 17:55:54.7	358.170	-0.600	0.520	0.210
2020/01/31 17:55:54.8	358.140	-0.580	0.480	0.230
2020/01/31 17:55:54.9	358.110	-0.560	0.440	0.240
2020/01/31 17:55:55.0	358.070	-0.540	0.400	0.260
2020/01/31 17:55:55.1	358.040	-0.520	0.350	0.270
2020/01/31 17:55:55.2	358.010	-0.490	0.300	0.280
2020/01/31 17:55:55.3	357.980	-0.460	0.250	0.280
2020/01/31 17:55:55.4	357.940	-0.430	0.200	0.290
2020/01/31 17:55:55.5	357.910	-0.400	0.140	0.290
2020/01/31 17:55:55.6	357.880	-0.370	0.080	0.280
2020/01/31 17:55:55.7	357.850	-0.340	0.020	0.280
2020/01/31 17:55:55.8	357.820	-0.300	-0.040	0.270
2020/01/31 17:55:55.9	357.800	-0.270	-0.110	0.260
2020/01/31 17:55:56.0	357.780	-0.230	-0.180	0.240
2020/01/31 17:55:56.1	357.760	-0.200	-0.250	0.230
2020/01/31 17:55:56.2	357.740	-0.160	-0.330	0.210
2020/01/31 17:55:56.3	357.720	-0.120	-0.410	0.190
2020/01/31 17:55:56.4	357.710	-0.080	-0.480	0.170
2020/01/31 17:55:56.5	357.700	-0.040	-0.560	0.140
2020/01/31 17:55:56.6	357.700	-0.000	-0.650	0.120
2020/01/31 17:55:56.7	357.700	0.040	-0.730	0.090
2020/01/31 17:55:56.8	357.700	0.080	-0.810	0.050
2020/01/31 17:55:56.9	357.710	0.120	-0.890	0.020
2020/01/31 17:55:57.0	357.720	0.160	-0.970	-0.020
2020/01/31 17:55:57.1	357.730	0.200	-1.050	-0.050
2020/01/31 17:55:57.2	357.750	0.240	-1.120	-0.090
2020/01/31 17:55:57.3	357.760	0.280	-1.200	-0.130
2020/01/31 17:55:57.4	357.790	0.310	-1.270	-0.180
2020/01/31 17:55:57.5	357.810	0.350	-1.330	-0.220
2020/01/31 17:55:57.6	357.840	0.380	-1.390	-0.270
2020/01/31 17:55:57.7	357.860	0.410	-1.440	-0.310
2020/01/31 17:55:57.8	357.890	0.440	-1.490	-0.360
2020/01/31 17:55:57.9	357.920	0.460	-1.530	-0.400
2020/01/31 17:55:58.0	357.960	0.480	-1.570	-0.450
2020/01/31 17:55:58.1	357.990	0.500	-1.590	-0.500
2020/01/31 17:55:58.2	358.020	0.510	-1.610	-0.540
2020/01/31 17:55:58.3	358.060	0.520	-1.610	-0.590
2020/01/31 17:55:58.4	358.090	0.530	-1.610	-0.630
2020/01/31 17:55:58.5	358.130	0.530	-1.600	-0.670
2020/01/31 17:55:58.6	358.160	0.530	-1.580	-0.710
2020/01/31 17:55:58.7	358.200	0.520	-1.550	-0.740
2020/01/31 17:55:58.8	358.230	0.510	-1.510	-0.780
2020/01/31 17:55:58.9	358.260	0.500	-1.470	-0.810
2020/01/31 17:55:59.0	358.300	0.480	-1.410	-0.830
2020/01/31 17:55:59.1	358.330	0.460	-1.350	-0.860
2020/01/31 17:55:59.2	358.360	0.440	-1.270	-0.870
2020/01/31 17:55:59.3	358.390	0.410	-1.190	-0.880
2020/01/31 17:55:59.4	358.420	0.380	-1.100	-0.890
2020/01/31 17:55:59.5	358.450	0.340	-1.010	-0.890
2020/01/31 17:55:59.6	358.480	0.310	-0.910	-0.890
2020/01/31 17:55:59.7	358.510	0.270	-0.800	-0.880
2020/01/31 17:55:59.8	358.520	0.230	-0.690	-0.870
2020/01/31 17:55:59.9	358.540	0.190	-0.580	-0.850
2020/01/31 17:56:00.0	358.560	0.150	-0.460	-0.830
2020/01/31 17:56:00.1	358.570	0.100	-0.350	-0.810
2020/01/31 17:56:00.2	358.580	0.060	-0.230	-0.780
2020/01/31 17:56:00.3	358.590	0.020	-0.110	-0.740
2020/01/31 17:56:00.4	358.600	-0.030	0.010	-0.700
2020/01/31 17:56:00.5	358.600	-0.070	0.120	-0.660
2020/01/31 17:56:00.6	358.600	-0.110	0.230	-0.620
2020/01/31 17:56:00.7	358.600	-0.150	0.340	-0.580
2020/01/31 17:56:00.8	358.590	-0.190	0.450	-0.530
2020/01/31 17:56:00.9	358.580	-0.220	0.550	-0.480
2020/01/31 17:56:01.0	358.560	-0.260	0.640	-0.430
2020/01/31 17:56:01.1	358.550	-0.290	0.730	-0.370
2020/01/31 17:56:01.2	358.530	-0.310	0.810	-0.310
2020/01/31 17:56:01.3	358.510	-0.330	0.880	-0.260
2020/01/31 17:56:01.4	358.480	-0.350	0.940	-0.200
2020/01/31 17:56:01.5	358.460	-0.370	1.000	-0.140
2020/01/31 17:56:01.6	358.430	-0.380	1.040	-0.080
2020/01/31 17:56:01.7	358.400	-0.380	1.080	-0.020
2020/01/31 17:56:01.8	358.370	-0.390	1.100	0.040
2020/01/31 17:56:01.9	358.340	-0.380	1.110	0.100
2020/01/31 17:56:02.0	358.310	-0.380	1.120	0.150
2020/01/31 17:56:02.1	358.280	-0.370	1.110	0.210
2020/01/31 17:56:02.2	358.250	-0.350	1.100	0.260
2020/01/31 17:56:02.3	358.210	-0.330	1.070	0.310
2020/01/31 17:56:02.4	358.180	-0.310	1.040	0.360
2020/01/31 17:56:02.5	358.150	-0.290	0.990	0.400
2020/01/31 17:56:02.6	358.120	-0.260	0.940	0.440
2020/01/31 17:56:02.7	358.100	-0.230	0.880	0.470
2020/01/31 17:56:02.8	358.050	-0.200	0.810	0.490
2020/01/31 17:56:02.9	358.030	-0.160	0.730	0.510
2020/01/31 17:56:03.0	358.000	-0.130	0.650	0.530
2020/01/31 17:56:03.1	357.980	-0.090	0.560	0.540
2020/01/31 17:56:03.2	357.960	-0.050	0.470	0.540
2020/01/31 17:56:03.3	357.940	-0.010	0.370	0.540
2020/01/31 17:56:03.4	357.920	0.020	0.270	0.530
2020/01/31 17:56:03.5	357.900	0.060	0.170	0.510
2020/01/31 17:56:03.6	357.890	0.100	0.070	0.490
2020/01/31 17:56:03.7	357.880	0.130	-0.040	0.460
2020/01/31 17:56:03.8	357.880	0.160	-0.140	0.430
2020/01/31 17:56:03.9	357.870	0.190	-0.250	0.390
2020/01/31 17:56:04.0	357.870	0.220	-0.350	0.340
2020/01/31 17:56:04.1	357.870	0.250	-0.450	0.300
2020/01/31 17:56:04.2	357.870	0.280	-0.550	0.250
2020/01/31 17:56:04.3	357.880	0.300	-0.640	0.200
2020/01/31 17:56:04.4	357.890	0.320	-0.730	0.150
2020/01/31 17:56:04.5	357.900	0.330	-0.810	0.090
2020/01/31 17:56:04.6	357.910	0.340	-0.890	0.040
2020/01/31 17:56:04.7	357.930	0.350	-0.960	-0.020
2020/01/31 17:56:04.8	357.950	0.360	-1.020	-0.070
2020/01/31 17:56:04.9	357.970	0.360	-1.070	-0.130
2020/01/31 17:56:05.0	357.990	0.360	-1.120	-0.180
2020/01/31 17:56:05.1	358.010	0.360	-1.170	-0.230
2020/01/31 17:56:05.2	358.040	0.350	-1.200	-0.280
2020/01/31 17:56:05.3	358.060	0.340	-1.230	-0.330
2020/01/31 17:56:05.4	358.090	0.330	-1.250	-0.380
2020/01/31 17:56:05.5	358.120	0.310	-1.260	-0.430
2020/01/31 17:56:05.6	358.150	0.300	-1.260	-0.470
2020/01/31 17:56:05.7	358.180	0.280	-1.260	-0.510
2020/01/31 17:56:05.8	358.220	0.250	-1.250	-0.560
2020/01/31 17:56:05.9	358.250	0.230	-1.230	-0.600
2020/01/31 17:56:06.0	358.280	0.200	-1.200	-0.640
2020/01/31 17:56:06.1	358.310	0.180	-1.160	-0.670
2020/01/31 17:56:06.2	358.330	0.150	-1.120	-0.700
2020/01/31 17:56:06.3	358.360	0.120	-1.070	-0.730
2020/01/31 17:56:06.4	358.390	0.090	-1.020	-0.760
2020/01/31 17:56:06.5	358.410	0.060	-0.960	-0.780
2020/01/31 17:56:06.6	358.430	0.020	-0.890	-0.790
2020/01/31 17:56:06.7	358.450	-0.010	-0.820	-0.800
2020/01/31 17:56:06.8	358.460	-0.030	-0.740	-0.800
2020/01/31 17:56:06.9	358.480	-0.060	-0.660	-0.800
2020/01/31 17:56:07.0	358.490	-0.090	-0.580	-0.790
2020/01/31 17:56:07.1	358.490	-0.120	-0.490	-0.780
2020/01/31 17:56:07.2	358.500	-0.140	-0.400	-0.760
2020/01/31 17:56:07.3	358.500	-0.160	-0.310	-0.740
2020/01/31 17:56:07.4	358.500	-0.180	-0.220	-0.710
2020/01/31 17:56:07.5	358.490	-0.200	-0.130	-0.670
2020/01/31 17:56:07.6	358.490	-0.210	-0.050	-0.640
2020/01/31 17:56:07.7	358.480	-0.230	0.040	-0.590
2020/01/31 17:56:07.8	358.470	-0.240	0.120	-0.550
2020/01/31 17:56:07.9	358.460	-0.250	0.200	-0.500
2020/01/31 17:56:08.0	358.440	-0.260	0.270	-0.450
2020/01/31 17:56:08.1	358.420	-0.260	0.340	-0.390
2020/01/31 17:56:08.2	358.400	-0.270	0.400	-0.340
2020/01/31 17:56:08.3	358.380	-0.270	0.460	-0.280
2020/01/31 17:56:08.4	358.350	-0.270	0.500	-0.230
2020/01/31 17:56:08.5	358.330	-0.270	0.540	-0.170
2020/01/31 17:56:08.6	358.300	-0.270	0.580	-0.110
2020/01/31 17:56:08.7	358.280	-0.260	0.600	-0.060
2020/01/31 17:56:08.8	358.250	-0.260	0.620	-0.010
2020/01/31 17:56:08.9	358.220	-0.250	0.620	0.040
2020/01/31 17:56:09.0	358.190	-0.240	0.620	0.080
2020/01/31 17:56:09.1	358.170	-0.230	0.620	0.120
2020/01/31 17:56:09.2	358.140	-0.230	0.600	0.160
2020/01/31 17:56:09.3	358.120	-0.220	0.580	0.190
2020/01/31 17:56:09.4	358.100	-0.210	0.540	0.210
2020/01/31 17:56:09.5	358.080	-0.190	0.500	0.230
2020/01/31 17:56:09.6	358.050	-0.180	0.460	0.240
2020/01/31 17:56:09.7	358.030	-0.170	0.400	0.250
2020/01/31 17:56:09.8	358.010	-0.160	0.350	0.250
2020/01/31 17:56:09.9	358.000	-0.150	0.280	0.250
2020/01/31 17:56:10.0	357.980	-0.130	0.220	0.250
2020/01/31 17:56:10.1	357.970	-0.120	0.140	0.240
2020/01/31 17:56:10.2	357.950	-0.110	0.070	0.230
2020/01/31 17:56:10.3	357.940	-0.090	-0.010	0.210
2020/01/31 17:56:10.4	357.930	-0.080	-0.090	0.200
2020/01/31 17:56:10.5	357.920	-0.060	-0.180	0.180
2020/01/31 17:56:10.6	357.920	-0.050	-0.260	0.160
2020/01/31 17:56:10.7	357.910	-0.030	-0.340	0.140
2020/01/31 17:56:10.8	357.910	-0.020	-0.420	0.120
2020/01/31 17:56:10.9	357.910	-0.010	-0.500	0.090
2020/01/31 17:56:11.0	357.910	0.010	-0.580	0.070
2020/01/31 17:56:11.1	357.920	0.020	-0.650	0.040
2020/01/31 17:56:11.2	357.920	0.040	-0.720	0.020
2020/01/31 17:56:11.3	357.930	0.050	-0.780	-0.010
2020/01/31 17:56:11.4	357.940	0.060	-0.840	-0.030
2020/01/31 17:56:11.5	357.950	0.070	-0.900	-0.060
2020/01/31 17:56:11.6	357.960	0.080	-0.940	-0.090
2020/01/31 17:56:11.7	357.980	0.090	-0.990	-0.120
2020/01/31 17:56:11.8	358.000	0.100	-1.020	-0.150
2020/01/31 17:56:11.9	358.020	0.110	-1.050	-0.180
2020/01/31 17:56:12.0	358.040	0.120	-1.070	-0.210
2020/01/31 17:56:12.1	358.060	0.130	-1.090	-0.240
2020/01/31 17:56:12.2	358.080	0.130	-1.100	-0.270
2020/01/31 17:56:12.3	358.100	0.140	-1.100	-0.300
2020/01/31 17:56:12.4	358.120	0.140	-1.090	-0.330
2020/01/31 17:56:12.5	358.140	0.140	-1.080	-0.350
2020/01/31 17:56:12.6	358.160	0.140	-1.060	-0.370
2020/01/31 17:56:12.7	358.180	0.140	-1.030	-0.390
2020/01/31 17:56:12.8	358.200	0.140	-1.000	-0.410
2020/01/31 17:56:12.9	358.220	0.140	-0.960	-0.420
2020/01/31 17:56:13.0	358.230	0.130	-0.910	-0.430
2020/01/31 17:56:13.1	358.250	0.120	-0.860	-0.440
2020/01/31 17:56:13.2	358.260	0.120	-0.800	-0.440
2020/01/31 17:56:13.3	358.270	0.110	-0.740	-0.440
2020/01/31 17:56:13.4	358.270	0.100	-0.670	-0.440
2020/01/31 17:56:13.5	358.280	0.090	-0.600	-0.430
2020/01/31 17:56:13.6	358.280	0.080	-0.520	-0.420
2020/01/31 17:56:13.7	358.280	0.070	-0.440	-0.400
2020/01/31 17:56:13.8	358.290	0.060	-0.370	-0.380
2020/01/31 17:56:13.9	358.290	0.050	-0.290	-0.360
2020/01/31 17:56:14.0	358.290	0.030	-0.210	-0.330
2020/01/31 17:56:14.1	358.290	0.020	-0.130	-0.300
2020/01/31 17:56:14.2	358.280	0.010	-0.060	-0.270
2020/01/31 17:56:14.3	358.280	0.000	0.020	-0.230
2020/01/31 17:56:14.4	358.280	-0.000	0.080	-0.200
2020/01/31 17:56:14.5	358.280	-0.010	0.150	-0.170
2020/01/31 17:56:14.6	358.280	-0.020	0.210	-0.130
2020/01/31 17:56:14.7	358.290	-0.020	0.260	-0.090
2020/01/31 17:56:14.8	358.280	-0.020	0.310	-0.060
2020/01/31 17:56:14.9	358.280	-0.020	0.350	-0.020
2020/01/31 17:56:15.0	358.290	-0.020	0.390	0.010
2020/01/31 17:56:15.1	358.300	-0.010	0.420	0.040
2020/01/31 17:56:15.2	358.300	-0.000	0.440	0.080
2020/01/31 17:56:15.3	358.310	0.010	0.450	0.110
2020/01/31 17:56:15.4	358.320	0.020	0.450	0.140
2020/01/31 17:56:15.5	358.330	0.030	0.450	0.170
2020/01/31 17:56:15.6	358.340	0.050	0.440	0.200
2020/01/31 17:56:15.7	358.350	0.060	0.430	0.230
2020/01/31 17:56:15.8	358.350	0.080	0.410	0.250
2020/01/31 17:56:15.9	358.360	0.100	0.380	0.280
2020/01/31 17:56:16.0	358.370	0.120	0.350	0.300
2020/01/31 17:56:16.1	358.370	0.140	0.320	0.330
2020/01/31 17:56:16.2	358.380	0.170	0.280	0.350
2020/01/31 17:56:16.3	358.380	0.190	0.240	0.370
2020/01/31 17:56:16.4	358.380	0.210	0.200	0.400
2020/01/31 17:56:16.5	358.380	0.230	0.160	0.420
2020/01/31 17:56:16.6	358.370	0.250	0.120	0.440
2020/01/31 17:56:16.7	358.370	0.270	0.070	0.450
2020/01/31 17:56:16.8	358.360	0.290	0.030	0.470
2020/01/31 17:56:16.9	358.350	0.310	-0.020	0.480
2020/01/31 17:56:17.0	358.340	0.320	-0.060	0.500
2020/01/31 17:56:17.1	358.320	0.330	-0.110	0.510
2020/01/31 17:56:17.2	358.310	0.350	-0.150	0.520
2020/01/31 17:56:17.3	358.290	0.350	-0.190	0.530
2020/01/31 17:56:17.4	358.270	0.360	-0.230	0.540
2020/01/31 17:56:17.5	358.260	0.360	-0.260	0.550
2020/01/31 17:56:17.6	358.230	0.360	-0.290	0.550
2020/01/31 17:56:17.7	358.210	0.360	-0.320	0.550
2020/01/31 17:56:17.8	358.200	0.360	-0.350	0.560
2020/01/31 17:56:17.9	358.170	0.350	-0.380	0.550
2020/01/31 17:56:18.0	358.150	0.340	-0.400	0.550
2020/01/31 17:56:18.1	358.120	0.320	-0.420	0.540
2020/01/31 17:56:18.2	358.090	0.300	-0.430	0.540
2020/01/31 17:56:18.3	358.070	0.280	-0.450	0.520
2020/01/31 17:56:18.4	358.040	0.260	-0.460	0.510
2020/01/31 17:56:18.5	358.010	0.230	-0.470	0.490
2020/01/31 17:56:18.6	357.980	0.210	-0.480	0.470
2020/01/31 17:56:18.7	357.960	0.180	-0.480	0.440
2020/01/31 17:56:18.8	357.940	0.140	-0.490	0.410
2020/01/31 17:56:18.9	357.910	0.110	-0.490	0.370
2020/01/31 17:56:19.0	357.890	0.070	-0.490	0.340
2020/01/31 17:56:19.1	357.860	0.040	-0.500	0.300
2020/01/31 17:56:19.2	357.840	0.000	-0.500	0.250
2020/01/31 17:56:19.3	357.830	-0.030	-0.500	0.210
2020/01/31 17:56:19.4	357.810	-0.070	-0.500	0.160
2020/01/31 17:56:19.5	357.800	-0.110	-0.500	0.100
2020/01/31 17:56:19.6	357.790	-0.140	-0.510	0.050
2020/01/31 17:56:19.7	357.780	-0.180	-0.510	-0.010
2020/01/31 17:56:19.8	357.780	-0.210	-0.510	-0.070
2020/01/31 17:56:19.9	357.780	-0.240	-0.520	-0.130
2020/01/31 17:56:20.0	357.790	-0.260	-0.520	-0.190
2020/01/31 17:56:20.1	357.790	-0.290	-0.530	-0.250
2020/01/31 17:56:20.2	357.800	-0.310	-0.540	-0.310
2020/01/31 17:56:20.3	357.820	-0.330	-0.540	-0.370
2020/01/31 17:56:20.4	357.830	-0.340	-0.550	-0.430
2020/01/31 17:56:20.5	357.850	-0.360	-0.560	-0.490
2020/01/31 17:56:20.6	357.870	-0.370	-0.560	-0.550
2020/01/31 17:56:20.7	357.890	-0.370	-0.570	-0.610
2020/01/31 17:56:20.8	357.910	-0.370	-0.570	-0.660
2020/01/31 17:56:20.9	357.930	-0.370	-0.570	-0.710
2020/01/31 17:56:21.0	357.950	-0.370	-0.570	-0.760
2020/01/31 17:56:21.1	357.980	-0.370	-0.570	-0.800
2020/01/31 17:56:21.2	358.000	-0.360	-0.570	-0.840
2020/01/31 17:56:21.3	358.020	-0.350	-0.560	-0.880
2020/01/31 17:56:21.4	358.040	-0.340	-0.550	-0.910
2020/01/31 17:56:21.5	358.060	-0.320	-0.540	-0.930
2020/01/31 17:56:21.6	358.080	-0.310	-0.520	-0.950
2020/01/31 17:56:21.7	358.090	-0.290	-0.500	-0.970
2020/01/31 17:56:21.8	358.100	-0.270	-0.470	-0.970
2020/01/31 17:56:21.9	358.110	-0.250	-0.440	-0.980
2020/01/31 17:56:22.0	358.120	-0.240	-0.410	-0.970
2020/01/31 17:56:22.1	358.120	-0.220	-0.370	-0.970
2020/01/31 17:56:22.2	358.130	-0.200	-0.330	-0.950
2020/01/31 17:56:22.3	358.130	-0.180	-0.290	-0.930
2020/01/31 17:56:22.4	358.120	-0.160	-0.250	-0.910
2020/01/31 17:56:22.5	358.120	-0.150	-0.200	-0.880
2020/01/31 17:56:22.6	358.110	-0.130	-0.160	-0.850
2020/01/31 17:56:22.7	358.100	-0.120	-0.110	-0.820
2020/01/31 17:56:22.8	358.080	-0.110	-0.060	-0.780
2020/01/31 17:56:22.9	358.070	-0.100	-0.020	-0.740
2020/01/31 17:56:23.0	358.060	-0.090	0.020	-0.700
2020/01/31 17:56:23.1	358.050	-0.080	0.060	-0.660
2020/01/31 17:56:23.2	358.040	-0.070	0.100	-0.620
2020/01/31 17:56:23.3	358.030	-0.060	0.130	-0.580
2020/01/31 17:56:23.4	358.020	-0.060	0.150	-0.530
2020/01/31 17:56:23.5	358.010	-0.060	0.180	-0.490
2020/01/31 17:56:23.6	358.010	-0.060	0.190	-0.450
2020/01/31 17:56:23.7	358.000	-0.050	0.210	-0.420
2020/01/31 17:56:23.8	357.990	-0.050	0.210	-0.380
2020/01/31 17:56:23.9	357.990	-0.050	0.210	-0.340
2020/01/31 17:56:24.0	357.990	-0.060	0.210	-0.310
2020/01/31 17:56:24.1	357.990	-0.060	0.200	-0.270
2020/01/31 17:56:24.2	358.000	-0.060	0.190	-0.240
2020/01/31 17:56:24.3	358.000	-0.060	0.170	-0.210
2020/01/31 17:56:24.4	358.000	-0.060	0.150	-0.180
2020/01/31 17:56:24.5	358.000	-0.070	0.130	-0.150
2020/01/31 17:56:24.6	358.000	-0.070	0.100	-0.120
2020/01/31 17:56:24.7	358.000	-0.070	0.080	-0.090
2020/01/31 17:56:24.8	358.000	-0.070	0.050	-0.070
2020/01/31 17:56:24.9	357.990	-0.070	0.020	-0.040
2020/01/31 17:56:25.0	357.990	-0.070	-0.000	-0.010
2020/01/31 17:56:25.1	357.990	-0.070	-0.030	0.020
2020/01/31 17:56:25.2	357.980	-0.070	-0.050	0.050
2020/01/31 17:56:25.3	357.980	-0.070	-0.080	0.080
2020/01/31 17:56:25.4	357.970	-0.070	-0.100	0.110
2020/01/31 17:56:25.5	357.960	-0.060	-0.110	0.140
2020/01/31 17:56:25.6	357.950	-0.050	-0.130	0.170
2020/01/31 17:56:25.7	357.940	-0.050	-0.140	0.210
2020/01/31 17:56:25.8	357.920	-0.040	-0.150	0.240
2020/01/31 17:56:25.9	357.910	-0.030	-0.160	0.270
2020/01/31 17:56:26.0	357.890	-0.010	-0.160	0.310
2020/01/31 17:56:26.1	357.880	0.000	-0.170	0.340
2020/01/31 17:56:26.2	357.860	0.020	-0.170	0.380
2020/01/31 17:56:26.3	357.840	0.030	-0.170	0.420
2020/01/31 17:56:26.4	357.830	0.050	-0.170	0.450
2020/01/31 17:56:26.5	357.810	0.070	-0.170	0.480
2020/01/31 17:56:26.6	357.790	0.090	-0.180	0.520
2020/01/31 17:56:26.7	357.780	0.110	-0.180	0.550
2020/01/31 17:56:26.8	357.770	0.130	-0.180	0.580
2020/01/31 17:56:26.9	357.750	0.160	-0.190	0.600
2020/01/31 17:56:27.0	357.740	0.180	-0.190	0.630
2020/01/31 17:56:27.1	357.720	0.200	-0.200	0.650
2020/01/31 17:56:27.2	357.700	0.230	-0.210	0.670
2020/01/31 17:56:27.3	357.690	0.250	-0.220	0.690
2020/01/31 17:56:27.4	357.670	0.270	-0.240	0.700
2020/01/31 17:56:27.5	357.660	0.300	-0.250	0.710
2020/01/31 17:56:27.6	357.650	0.320	-0.270	0.710
2020/01/31 17:56:27.7	357.630	0.340	-0.300	0.710
2020/01/31 17:56:27.8	357.620	0.360	-0.320	0.710
2020/01/31 17:56:27.9	357.610	0.380	-0.350	0.700
2020/01/31 17:56:28.0	357.600	0.400	-0.380	0.680
2020/01/31 17:56:28.1	357.600	0.420	-0.420	0.670
2020/01/31 17:56:28.2	357.590	0.440	-0.460	0.640
2020/01/31 17:56:28.3	357.590	0.450	-0.500	0.620
2020/01/31 17:56:28.4	357.580	0.470	-0.540	0.590
2020/01/31 17:56:28.5	357.580	0.480	-0.590	0.560
2020/01/31 17:56:28.6	357.580	0.490	-0.630	0.520
2020/01/31 17:56:28.7	357.590	0.500	-0.680	0.480
2020/01/31 17:56:28.8	357.600	0.510	-0.720	0.440
2020/01/31 17:56:28.9	357.610	0.520	-0.770	0.400
2020/01/31 17:56:29.0	357.620	0.520	-0.810	0.360
2020/01/31 17:56:29.1	357.630	0.530	-0.860	0.310
2020/01/31 17:56:29.2	357.640	0.530	-0.900	0.270
2020/01/31 17:56:29.3	357.660	0.530	-0.940	0.220
2020/01/31 17:56:29.4	357.680	0.520	-0.980	0.180
2020/01/31 17:56:29.5	357.700	0.520	-1.010	0.130
2020/01/31 17:56:29.6	357.720	0.510	-1.040	0.090
2020/01/31 17:56:29.7	357.740	0.500	-1.060	0.040
2020/01/31 17:56:29.8	357.760	0.480	-1.080	-0.010
2020/01/31 17:56:29.9	357.780	0.470	-1.090	-0.050
2020/01/31 17:56:30.0	357.810	0.450	-1.100	-0.100
2020/01/31 17:56:30.1	357.830	0.420	-1.100	-0.140
2020/01/31 17:56:30.2	357.850	0.400	-1.090	-0.180
2020/01/31 17:56:30.3	357.880	0.370	-1.080	-0.230
2020/01/31 17:56:30.4	357.900	0.330	-1.060	-0.270
2020/01/31 17:56:30.5	357.930	0.300	-1.030	-0.310
2020/01/31 17:56:30.6	357.950	0.260	-0.990	-0.350
2020/01/31 17:56:30.7	357.970	0.220	-0.950	-0.390
2020/01/31 17:56:30.8	357.990	0.170	-0.900	-0.430
2020/01/31 17:56:30.9	358.000	0.130	-0.840	-0.470
2020/01/31 17:56:31.0	358.020	0.080	-0.780	-0.500
2020/01/31 17:56:31.1	358.030	0.030	-0.700	-0.530
2020/01/31 17:56:31.2	358.030	-0.020	-0.620	-0.560
2020/01/31 17:56:31.3	358.040	-0.070	-0.540	-0.590
2020/01/31 17:56:31.4	358.040	-0.130	-0.450	-0.610
2020/01/31 17:56:31.5	358.040	-0.180	-0.360	-0.630
2020/01/31 17:56:31.6	358.040	-0.230	-0.260	-0.640
2020/01/31 17:56:31.7	358.030	-0.280	-0.160	-0.650
2020/01/31 17:56:31.8	358.030	-0.330	-0.050	-0.650
2020/01/31 17:56:31.9	358.020	-0.380	0.050	-0.650
2020/01/31 17:56:32.0	358.000	-0.430	0.160	-0.640
2020/01/31 17:56:32.1	357.990	-0.470	0.260	-0.620
2020/01/31 17:56:32.2	357.970	-0.510	0.360	-0.600
2020/01/31 17:56:32.3	357.950	-0.550	0.460	-0.580
2020/01/31 17:56:32.4	357.940	-0.580	0.550	-0.550
2020/01/31 17:56:32.5	357.920	-0.610	0.640	-0.520
2020/01/31 17:56:32.6	357.900	-0.630	0.720	-0.490
2020/01/31 17:56:32.7	357.890	-0.650	0.790	-0.450
2020/01/31 17:56:32.8	357.870	-0.660	0.850	-0.420
2020/01/31 17:56:32.9	357.850	-0.670	0.900	-0.380
2020/01/31 17:56:33.0	357.840	-0.670	0.940	-0.350
2020/01/31 17:56:33.1	357.830	-0.670	0.980	-0.310
2020/01/31 17:56:33.2	357.820	-0.660	1.000	-0.280
2020/01/31 17:56:33.3	357.820	-0.650	1.010	-0.250
2020/01/31 17:56:33.4	357.810	-0.630	1.000	-0.220
2020/01/31 17:56:33.5	357.810	-0.610	0.990	-0.190
2020/01/31 17:56:33.6	357.810	-0.590	0.970	-0.160
2020/01/31 17:56:33.7	357.800	-0.560	0.940	-0.140
2020/01/31 17:56:33.8	357.800	-0.520	0.890	-0.120
2020/01/31 17:56:33.9	357.800	-0.490	0.850	-0.100
2020/01/31 17:56:34.0	357.790	-0.450	0.790	-0.080
2020/01/31 17:56:34.1	357.790	-0.410	0.720	-0.070
2020/01/31 17:56:34.2	357.790	-0.370	0.650	-0.060
2020/01/31 17:56:34.3	357.790	-0.330	0.580	-0.050
2020/01/31 17:56:34.4	357.780	-0.290	0.500	-0.040
2020/01/31 17:56:34.5	357.770	-0.250	0.420	-0.030
2020/01/31 17:56:34.6	357.760	-0.210	0.340	-0.020
2020/01/31 17:56:34.7	357.750	-0.170	0.260	-0.020
2020/01/31 17:56:34.8	357.730	-0.130	0.180	-0.020
2020/01/31 17:56:34.9	357.720	-0.100	0.100	-0.010
2020/01/31 17:56:35.0	357.700	-0.070	0.020	-0.000
2020/01/31 17:56:35.1	357.680	-0.040	-0.060	0.010
2020/01/31 17:56:35.2	357.660	-0.010	-0.130	0.020
2020/01/31 17:56:35.3	357.630	0.010	-0.190	0.030
2020/01/31 17:56:35.4	357.610	0.030	-0.250	0.040
2020/01/31 17:56:35.5	357.580	0.050	-0.310	0.060
2020/01/31 17:56:35.6	357.550	0.060	-0.360	0.080
2020/01/31 17:56:35.7	357.520	0.070	-0.400	0.100
2020/01/31 17:56:35.8	357.490	0.080	-0.440	0.120
2020/01/31 17:56:35.9	357.460	0.080	-0.470	0.140
2020/01/31 17:56:36.0	357.420	0.080	-0.500	0.160
2020/01/31 17:56:36.1	357.380	0.070	-0.520	0.190
2020/01/31 17:56:36.2	357.350	0.070	-0.530	0.210
2020/01/31 17:56:36.3	357.310	0.060	-0.540	0.230
2020/01/31 17:56:36.4	357.270	0.050	-0.550	0.260
2020/01/31 17:56:36.5	357.230	0.030	-0.550	0.280
2020/01/31 17:56:36.6	357.200	0.020	-0.540	0.300
2020/01/31 17:56:36.7	357.160	0.000	-0.540	0.320
2020/01/31 17:56:36.8	357.120	-0.010	-0.530	0.330
2020/01/31 17:56:36.9	357.080	-0.030	-0.520	0.340
2020/01/31 17:56:37.0	357.050	-0.040	-0.510	0.350
2020/01/31 17:56:37.1	357.020	-0.060	-0.500	0.360
2020/01/31 17:56:37.2	356.990	-0.070	-0.490	0.360
2020/01/31 17:56:37.3	356.960	-0.080	-0.490	0.360
2020/01/31 17:56:37.4	356.930	-0.090	-0.480	0.360
2020/01/31 17:56:37.5	356.910	-0.100	-0.470	0.360
2020/01/31 17:56:37.6	356.890	-0.100	-0.470	0.350
2020/01/31 17:56:37.7	356.870	-0.100	-0.470	0.330
2020/01/31 17:56:37.8	356.850	-0.100	-0.480	0.320
2020/01/31 17:56:37.9	356.840	-0.100	-0.490	0.300
2020/01/31 17:56:38.0	356.830	-0.090	-0.500	0.270
2020/01/31 17:56:38.1	356.830	-0.080	-0.510	0.250
2020/01/31 17:56:38.2	356.820	-0.070	-0.530	0.220
2020/01/31 17:56:38.3	356.830	-0.050	-0.560	0.190
2020/01/31 17:56:38.4	356.830	-0.030	-0.580	0.160
2020/01/31 17:56:38.5	356.830	-0.010	-0.610	0.130
2020/01/31 17:56:38.6	356.840	0.010	-0.640	0.090
2020/01/31 17:56:38.7	356.850	0.030	-0.680	0.050
2020/01/31 17:56:38.8	356.870	0.060	-0.710	0.010
2020/01/31 17:56:38.9	356.880	0.080	-0.750	-0.030
2020/01/31 17:56:39.0	356.900	0.110	-0.790	-0.060
2020/01/31 17:56:39.1	356.920	0.130	-0.830	-0.100
2020/01/31 17:56:39.2	356.940	0.160	-0.870	-0.150
2020/01/31 17:56:39.3	356.960	0.180	-0.910	-0.190
2020/01/31 17:56:39.4	356.980	0.210	-0.940	-0.230
2020/01/31 17:56:39.5	357.000	0.230	-0.980	-0.270
2020/01/31 17:56:39.6	357.030	0.250	-1.010	-0.310
2020/01/31 17:56:39.7	357.060	0.270	-1.040	-0.360
2020/01/31 17:56:39.8	357.090	0.290	-1.070	-0.400
2020/01/31 17:56:39.9	357.120	0.300	-1.090	-0.440
2020/01/31 17:56:40.0	357.150	0.320	-1.110	-0.490
2020/01/31 17:56:40.1	357.180	0.330	-1.120	-0.530
2020/01/31 17:56:40.2	357.210	0.340	-1.140	-0.570
2020/01/31 17:56:40.3	357.240	0.350	-1.140	-0.600
2020/01/31 17:56:40.4	357.280	0.350	-1.140	-0.640
2020/01/31 17:56:40.5	357.310	0.360	-1.140	-0.670
2020/01/31 17:56:40.6	357.340	0.360	-1.130	-0.700
2020/01/31 17:56:40.7	357.380	0.360	-1.120	-0.730
2020/01/31 17:56:40.8	357.410	0.360	-1.100	-0.760
2020/01/31 17:56:40.9	357.450	0.360	-1.070	-0.780
2020/01/31 17:56:41.0	357.490	0.350	-1.040	-0.790
2020/01/31 17:56:41.1	357.530	0.350	-1.010	-0.810
2020/01/31 17:56:41.2	357.570	0.340	-0.970	-0.820
2020/01/31 17:56:41.3	357.610	0.340	-0.930	-0.820
2020/01/31 17:56:41.4	357.650	0.330	-0.890	-0.820
2020/01/31 17:56:41.5	357.690	0.320	-0.840	-0.820
2020/01/31 17:56:41.6	357.730	0.320	-0.780	-0.810
2020/01/31 17:56:41.7	357.770	0.310	-0.730	-0.800
2020/01/31 17:56:41.8	357.810	0.300	-0.670	-0.780
2020/01/31 17:56:41.9	357.840	0.300	-0.610	-0.760
2020/01/31 17:56:42.0	357.880	0.290	-0.540	-0.740
2020/01/31 17:56:42.1	357.910	0.280	-0.480	-0.710
2020/01/31 17:56:42.2	357.940	0.270	-0.410	-0.680
2020/01/31 17:56:42.3	357.970	0.260	-0.340	-0.640
2020/01/31 17:56:42.4	358.000	0.260	-0.270	-0.610
2020/01/31 17:56:42.5	358.020	0.250	-0.200	-0.570
2020/01/31 17:56:42.6	358.040	0.240	-0.130	-0.530
2020/01/31 17:56:42.7	358.050	0.230	-0.060	-0.480
2020/01/31 17:56:42.8	358.060	0.220	0.010	-0.440
2020/01/31 17:56:42.9	358.070	0.220	0.080	-0.390
2020/01/31 17:56:43.0	358.070	0.210	0.140	-0.340
2020/01/31 17:56:43.1	358.070	0.200	0.210	-0.290
2020/01/31 17:56:43.2	358.070	0.190	0.270	-0.250
2020/01/31 17:56:43.3	358.070	0.180	0.330	-0.200
2020/01/31 17:56:43.4	358.050	0.160	0.390	-0.150
2020/01/31 17:56:43.5	358.040	0.150	0.450	-0.100
2020/01/31 17:56:43.6	358.020	0.140	0.500	-0.050
2020/01/31 17:56:43.7	358.000	0.120	0.550	-0.010
2020/01/31 17:56:43.8	357.970	0.100	0.600	0.040
2020/01/31 17:56:43.9	357.940	0.090	0.650	0.080
2020/01/31 17:56:44.0	357.900	0.070	0.690	0.120
2020/01/31 17:56:44.1	357.870	0.040	0.730	0.160
2020/01/31 17:56:44.2	357.830	0.020	0.770	0.200
2020/01/31 17:56:44.3	357.780	-0.000	0.800	0.240
2020/01/31 17:56:44.4	357.740	-0.030	0.840	0.280
2020/01/31 17:56:44.5	357.690	-0.060	0.860	0.310
2020/01/31 17:56:44.6	357.640	-0.090	0.890	0.340
2020/01/31 17:56:44.7	357.580	-0.120	0.910	0.370
2020/01/31 17:56:44.8	357.530	-0.150	0.920	0.400
2020/01/31 17:56:44.9	357.470	-0.180	0.940	0.430
2020/01/31 17:56:45.0	357.410	-0.220	0.950	0.450
2020/01/31 17:56:45.1	357.350	-0.250	0.950	0.470
2020/01/31 17:56:45.2	357.290	-0.280	0.950	0.490
2020/01/31 17:56:45.3	357.240	-0.320	0.950	0.510
2020/01/31 17:56:45.4	357.180	-0.350	0.940	0.520
2020/01/31 17:56:45.5	357.130	-0.390	0.930	0.530
2020/01/31 17:56:45.6	357.070	-0.420	0.910	0.530
2020/01/31 17:56:45.7	357.020	-0.450	0.880	0.540
2020/01/31 17:56:45.8	356.960	-0.480	0.860	0.530
2020/01/31 17:56:45.9	356.920	-0.510	0.830	0.520
2020/01/31 17:56:46.0	356.870	-0.540	0.790	0.510
2020/01/31 17:56:46.1	356.830	-0.560	0.740	0.500
2020/01/31 17:56:46.2	356.790	-0.580	0.700	0.480
2020/01/31 17:56:46.3	356.760	-0.600	0.640	0.460
2020/01/31 17:56:46.4	356.730	-0.620	0.580	0.440
2020/01/31 17:56:46.5	356.700	-0.630	0.520	0.410
2020/01/31 17:56:46.6	356.680	-0.630	0.450	0.380
2020/01/31 17:56:46.7	356.660	-0.640	0.380	0.350
2020/01/31 17:56:46.8	356.640	-0.630	0.310	0.310
2020/01/31 17:56:46.9	356.630	-0.630	0.230	0.270
2020/01/31 17:56:47.0	356.620	-0.620	0.150	0.230
2020/01/31 17:56:47.1	356.610	-0.600	0.070	0.190
2020/01/31 17:56:47.2	356.610	-0.590	-0.010	0.150
2020/01/31 17:56:47.3	356.610	-0.560	-0.100	0.110
2020/01/31 17:56:47.4	356.610	-0.540	-0.180	0.080
2020/01/31 17:56:47.5	356.620	-0.510	-0.260	0.040
2020/01/31 17:56:47.6	356.620	-0.480	-0.340	-0.000
2020/01/31 17:56:47.7	356.630	-0.440	-0.410	-0.040
2020/01/31 17:56:47.8	356.650	-0.410	-0.480	-0.070
2020/01/31 17:56:47.9	356.660	-0.370	-0.550	-0.110
2020/01/31 17:56:48.0	356.680	-0.330	-0.610	-0.140
2020/01/31 17:56:48.1	356.690	-0.280	-0.670	-0.160
2020/01/31 17:56:48.2	356.700	-0.240	-0.720	-0.190
2020/01/31 17:56:48.3	356.720	-0.200	-0.770	-0.210
2020/01/31 17:56:48.4	356.730	-0.150	-0.810	-0.230
2020/01/31 17:56:48.5	356.750	-0.110	-0.850	-0.240
2020/01/31 17:56:48.6	356.770	-0.060	-0.890	-0.250
2020/01/31 17:56:48.7	356.780	-0.020	-0.920	-0.260
2020/01/31 17:56:48.8	356.800	0.030	-0.950	-0.270
2020/01/31 17:56:48.9	356.820	0.070	-0.970	-0.270
2020/01/31 17:56:49.0	356.840	0.110	-0.990	-0.270
2020/01/31 17:56:49.1	356.860	0.150	-1.010	-0.270
2020/01/31 17:56:49.2	356.880	0.190	-1.020	-0.260
2020/01/31 17:56:49.3	356.910	0.230	-1.030	-0.250
2020/01/31 17:56:49.4	356.930	0.270	-1.050	-0.240
2020/01/31 17:56:49.5	356.950	0.300	-1.060	-0.230
2020/01/31 17:56:49.6	356.970	0.330	-1.070	-0.210
2020/01/31 17:56:49.7	356.990	0.360	-1.080	-0.190
2020/01/31 17:56:49.8	357.020	0.390	-1.080	-0.170
2020/01/31 17:56:49.9	357.040	0.420	-1.090	-0.150
2020/01/31 17:56:50.0	357.060	0.440	-1.100	-0.130
2020/01/31 17:56:50.1	357.080	0.460	-1.110	-0.110
2020/01/31 17:56:50.2	357.100	0.480	-1.120	-0.100
2020/01/31 17:56:50.3	357.120	0.490	-1.130	-0.080
2020/01/31 17:56:50.4	357.140	0.500	-1.130	-0.070
2020/01/31 17:56:50.5	357.160	0.510	-1.140	-0.050
2020/01/31 17:56:50.6	357.180	0.520	-1.150	-0.040
2020/01/31 17:56:50.7	357.200	0.520	-1.150	-0.030
2020/01/31 17:56:50.8	357.220	0.520	-1.160	-0.020
2020/01/31 17:56:50.9	357.240	0.520	-1.160	-0.020
2020/01/31 17:56:51.0	357.260	0.520	-1.160	-0.020
2020/01/31 17:56:51.1	357.270	0.510	-1.160	-0.020
2020/01/31 17:56:51.2	357.290	0.500	-1.160	-0.020
2020/01/31 17:56:51.3	357.310	0.490	-1.150	-0.020
2020/01/31 17:56:51.4	357.320	0.480	-1.140	-0.030
2020/01/31 17:56:51.5	357.340	0.460	-1.130	-0.040
2020/01/31 17:56:51.6	357.350	0.450	-1.120	-0.050
2020/01/31 17:56:51.7	357.370	0.430	-1.100	-0.060
2020/01/31 17:56:51.8	357.390	0.410	-1.080	-0.070
2020/01/31 17:56:51.9	357.400	0.390	-1.050	-0.090
2020/01/31 17:56:52.0	357.410	0.370	-1.020	-0.100
2020/01/31 17:56:52.1	357.420	0.350	-0.990	-0.120
2020/01/31 17:56:52.2	357.430	0.320	-0.960	-0.140
2020/01/31 17:56:52.3	357.440	0.300	-0.920	-0.160
2020/01/31 17:56:52.4	357.460	0.270	-0.890	-0.180
2020/01/31 17:56:52.5	357.470	0.250	-0.840	-0.200
2020/01/31 17:56:52.6	357.470	0.220	-0.800	-0.230
2020/01/31 17:56:52.7	357.480	0.190	-0.750	-0.250
2020/01/31 17:56:52.8	357.500	0.170	-0.710	-0.280
2020/01/31 17:56:52.9	357.500	0.140	-0.660	-0.310
2020/01/31 17:56:53.0	357.510	0.120	-0.610	-0.340
2020/01/31 17:56:53.1	357.520	0.090	-0.560	-0.360
2020/01/31 17:56:53.2	357.530	0.060	-0.500	-0.390
2020/01/31 17:56:53.3	357.540	0.040	-0.450	-0.420
2020/01/31 17:56:53.4	357.550	0.010	-0.390	-0.440
2020/01/31 17:56:53.5	357.550	-0.010	-0.340	-0.470
2020/01/31 17:56:53.6	357.560	-0.030	-0.280	-0.490
2020/01/31 17:56:53.7	357.560	-0.050	-0.230	-0.520
2020/01/31 17:56:53.8	357.560	-0.070	-0.170	-0.540
2020/01/31 17:56:53.9	357.570	-0.090	-0.110	-0.570
2020/01/31 17:56:54.0	357.570	-0.110	-0.050	-0.590
2020/01/31 17:56:54.1	357.580	-0.130	0.000	-0.610
2020/01/31 17:56:54.2	357.580	-0.150	0.060	-0.620
2020/01/31 17:56:54.3	357.590	-0.170	0.110	-0.640
2020/01/31 17:56:54.4	357.590	-0.180	0.170	-0.650
2020/01/31 17:56:54.5	357.590	-0.200	0.220	-0.670
2020/01/31 17:56:54.6	357.600	-0.210	0.280	-0.670
2020/01/31 17:56:54.7	357.600	-0.220	0.330	-0.680
2020/01/31 17:56:54.8	357.600	-0.240	0.380	-0.690
2020/01/31 17:56:54.9	357.600	-0.250	0.440	-0.690
2020/01/31 17:56:55.0	357.590	-0.260	0.490	-0.690
2020/01/31 17:56:55.1	357.590	-0.270	0.540	-0.680
2020/01/31 17:56:55.2	357.580	-0.290	0.590	-0.660
2020/01/31 17:56:55.3	357.570	-0.300	0.640	-0.650
2020/01/31 17:56:55.4	357.560	-0.310	0.690	-0.620
2020/01/31 17:56:55.5	357.550	-0.320	0.730	-0.600
2020/01/31 17:56:55.6	357.530	-0.330	0.780	-0.560
2020/01/31 17:56:55.7	357.510	-0.350	0.820	-0.530
2020/01/31 17:56:55.8	357.470	-0.360	0.860	-0.490
2020/01/31 17:56:55.9	357.450	-0.370	0.900	-0.440
2020/01/31 17:56:56.0	357.420	-0.380	0.930	-0.400
2020/01/31 17:56:56.1	357.390	-0.400	0.960	-0.350
2020/01/31 17:56:56.2	357.360	-0.410	0.990	-0.300
2020/01/31 17:56:56.3	357.320	-0.420	1.010	-0.240
2020/01/31 17:56:56.4	357.290	-0.430	1.030	-0.190
2020/01/31 17:56:56.5	357.250	-0.440	1.040	-0.140
2020/01/31 17:56:56.6	357.210	-0.450	1.040	-0.080
2020/01/31 17:56:56.7	357.180	-0.460	1.050	-0.030
2020/01/31 17:56:56.8	357.130	-0.470	1.040	0.020
2020/01/31 17:56:56.9	357.090	-0.480	1.030	0.070
2020/01/31 17:56:57.0	357.060	-0.480	1.010	0.120
2020/01/31 17:56:57.1	357.020	-0.490	0.990	0.160
2020/01/31 17:56:57.2	356.990	-0.490	0.960	0.210
2020/01/31 17:56:57.3	356.950	-0.490	0.920	0.250
2020/01/31 17:56:57.4	356.920	-0.480	0.880	0.290
2020/01/31 17:56:57.5	356.890	-0.480	0.830	0.320
2020/01/31 17:56:57.6	356.860	-0.470	0.770	0.350
2020/01/31 17:56:57.7	356.830	-0.460	0.710	0.390
2020/01/31 17:56:57.8	356.790	-0.450	0.640	0.410
2020/01/31 17:56:57.9	356.770	-0.430	0.570	0.430
2020/01/31 17:56:58.0	356.740	-0.410	0.490	0.450
2020/01/31 17:56:58.1	356.720	-0.390	0.410	0.470
2020/01/31 17:56:58.2	356.700	-0.370	0.320	0.490
2020/01/31 17:56:58.3	356.680	-0.340	0.230	0.490
2020/01/31 17:56:58.4	356.670	-0.310	0.130	0.500
2020/01/31 17:56:58.5	356.660	-0.270	0.040	0.500
2020/01/31 17:56:58.6	356.650	-0.230	-0.070	0.500
2020/01/31 17:56:58.7	356.650	-0.190	-0.170	0.490
2020/01/31 17:56:58.8	356.660	-0.150	-0.280	0.480
2020/01/31 17:56:58.9	356.660	-0.110	-0.380	0.470
2020/01/31 17:56:59.0	356.670	-0.060	-0.490	0.460
2020/01/31 17:56:59.1	356.670	-0.010	-0.590	0.440
2020/01/31 17:56:59.2	356.680	0.040	-0.700	0.420
2020/01/31 17:56:59.3	356.700	0.090	-0.800	0.400
2020/01/31 17:56:59.4	356.710	0.140	-0.900	0.370
2020/01/31 17:56:59.5	356.730	0.190	-0.990	0.350
2020/01/31 17:56:59.6	356.750	0.240	-1.080	0.330
2020/01/31 17:56:59.7	356.770	0.290	-1.160	0.300
2020/01/31 17:56:59.8	356.790	0.340	-1.240	0.280
2020/01/31 17:56:59.9	356.810	0.390	-1.310	0.260
2020/01/31 17:57:00.0	356.840	0.440	-1.370	0.230
2020/01/31 17:57:00.1	356.870	0.480	-1.430	0.210
2020/01/31 17:57:00.2	356.890	0.520	-1.470	0.190
2020/01/31 17:57:00.3	356.920	0.560	-1.510	0.180
2020/01/31 17:57:00.4	356.940	0.590	-1.530	0.160
2020/01/31 17:57:00.5	356.970	0.620	-1.550	0.150
2020/01/31 17:57:00.6	356.990	0.650	-1.560	0.130
2020/01/31 17:57:00.7	357.010	0.670	-1.550	0.120
2020/01/31 17:57:00.8	357.050	0.690	-1.540	0.110
2020/01/31 17:57:00.9	357.070	0.700	-1.520	0.100
2020/01/31 17:57:01.0	357.090	0.710	-1.490	0.090
2020/01/31 17:57:01.1	357.110	0.710	-1.450	0.090
2020/01/31 17:57:01.2	357.120	0.710	-1.400	0.080
2020/01/31 17:57:01.3	357.140	0.700	-1.340	0.080
2020/01/31 17:57:01.4	357.150	0.690	-1.280	0.080
2020/01/31 17:57:01.5	357.160	0.670	-1.210	0.080
2020/01/31 17:57:01.6	357.170	0.650	-1.130	0.080
2020/01/31 17:57:01.7	357.180	0.630	-1.050	0.090
2020/01/31 17:57:01.8	357.180	0.600	-0.960	0.100
2020/01/31 17:57:01.9	357.180	0.560	-0.870	0.100
2020/01/31 17:57:02.0	357.180	0.520	-0.780	0.110
2020/01/31 17:57:02.1	357.180	0.480	-0.680	0.120
2020/01/31 17:57:02.2	357.170	0.440	-0.590	0.130
2020/01/31 17:57:02.3	357.160	0.390	-0.490	0.140
2020/01/31 17:57:02.4	357.150	0.340	-0.400	0.150
2020/01/31 17:57:02.5	357.140	0.290	-0.310	0.160
2020/01/31 17:57:02.6	357.130	0.240	-0.220	0.160
2020/01/31 17:57:02.7	357.110	0.190	-0.140	0.170
2020/01/31 17:57:02.8	357.090	0.140	-0.060	0.180
2020/01/31 17:57:02.9	357.070	0.090	0.010	0.190
2020/01/31 17:57:03.0	357.050	0.040	0.080	0.200
2020/01/31 17:57:03.1	357.020	-0.010	0.140	0.200
2020/01/31 17:57:03.2	357.000	-0.060	0.190	0.200
2020/01/31 17:57:03.3	356.980	-0.100	0.230	0.210
2020/01/31 17:57:03.4	356.950	-0.140	0.260	0.210
2020/01/31 17:57:03.5	356.930	-0.180	0.280	0.200
2020/01/31 17:57:03.6	356.910	-0.220	0.300	0.200
2020/01/31 17:57:03.7	356.880	-0.250	0.300	0.190
2020/01/31 17:57:03.8	356.850	-0.280	0.300	0.180
2020/01/31 17:57:03.9	356.830	-0.300	0.290	0.160
2020/01/31 17:57:04.0	356.820	-0.320	0.260	0.150
2020/01/31 17:57:04.1	356.800	-0.340	0.230	0.130
2020/01/31 17:57:04.2	356.790	-0.350	0.190	0.110
2020/01/31 17:57:04.3	356.770	-0.360	0.150	0.090
2020/01/31 17:57:04.4	356.760	-0.360	0.100	0.060
2020/01/31 17:57:04.5	356.760	-0.360	0.050	0.040
2020/01/31 17:57:04.6	356.750	-0.350	-0.010	0.010
2020/01/31 17:57:04.7	356.750	-0.340	-0.070	-0.020
2020/01/31 17:57:04.8	356.750	-0.330	-0.140	-0.060
2020/01/31 17:57:04.9	356.760	-0.320	-0.200	-0.090
2020/01/31 17:57:05.0	356.770	-0.300	-0.270	-0.120
2020/01/31 17:57:05.1	356.780	-0.280	-0.330	-0.160
2020/01/31 17:57:05.2	356.790	-0.250	-0.390	-0.190
2020/01/31 17:57:05.3	356.810	-0.230	-0.450	-0.220
2020/01/31 17:57:05.4	356.830	-0.200	-0.500	-0.250
2020/01/31 17:57:05.5	356.860	-0.170	-0.560	-0.280
2020/01/31 17:57:05.6	356.880	-0.140	-0.600	-0.300
2020/01/31 17:57:05.7	356.910	-0.110	-0.640	-0.330
2020/01/31 17:57:05.8	356.950	-0.070	-0.670	-0.350
2020/01/31 17:57:05.9	356.980	-0.040	-0.700	-0.370
2020/01/31 17:57:06.0	357.010	-0.010	-0.720	-0.380
2020/01/31 17:57:06.1	357.040	0.020	-0.740	-0.390
2020/01/31 17:57:06.2	357.070	0.050	-0.740	-0.390
2020/01/31 17:57:06.3	357.100	0.070	-0.740	-0.390
2020/01/31 17:57:06.4	357.120	0.100	-0.730	-0.390
2020/01/31 17:57:06.5	357.150	0.120	-0.720	-0.380
2020/01/31 17:57:06.6	357.170	0.140	-0.690	-0.370
2020/01/31 17:57:06.7	357.190	0.150	-0.660	-0.350
2020/01/31 17:57:06.8	357.210	0.160	-0.630	-0.330
2020/01/31 17:57:06.9	357.220	0.170	-0.580	-0.300
2020/01/31 17:57:07.0	357.230	0.180	-0.530	-0.280
2020/01/31 17:57:07.1	357.240	0.180	-0.480	-0.250
2020/01/31 17:57:07.2	357.250	0.180	-0.420	-0.220
2020/01/31 17:57:07.3	357.250	0.170	-0.360	-0.190
2020/01/31 17:57:07.4	357.250	0.160	-0.290	-0.160
2020/01/31 17:57:07.5	357.250	0.150	-0.220	-0.130
2020/01/31 17:57:07.6	357.250	0.130	-0.150	-0.100
2020/01/31 17:57:07.7	357.240	0.120	-0.080	-0.070
2020/01/31 17:57:07.8	357.240	0.100	-0.010	-0.040
2020/01/31 17:57:07.9	357.230	0.070	0.060	-0.010
2020/01/31 17:57:08.0	357.220	0.050	0.130	0.010
2020/01/31 17:57:08.1	357.210	0.020	0.200	0.040
2020/01/31 17:57:08.2	357.200	-0.010	0.260	0.060
2020/01/31 17:57:08.3	357.180	-0.040	0.320	0.080
2020/01/31 17:57:08.4	357.170	-0.060	0.380	0.110
2020/01/31 17:57:08.5	357.150	-0.090	0.430	0.130
2020/01/31 17:57:08.6	357.140	-0.120	0.480	0.150
2020/01/31 17:57:08.7	357.120	-0.150	0.520	0.170
2020/01/31 17:57:08.8	357.100	-0.180	0.550	0.190
2020/01/31 17:57:08.9	357.090	-0.210	0.580	0.210
2020/01/31 17:57:09.0	357.070	-0.230	0.600	0.230
2020/01/31 17:57:09.1	357.050	-0.260	0.620	0.240
2020/01/31 17:57:09.2	357.030	-0.280	0.630	0.260
2020/01/31 17:57:09.3	357.010	-0.300	0.630	0.280
2020/01/31 17:57:09.4	356.990	-0.310	0.620	0.300
2020/01/31 17:57:09.5	356.970	-0.330	0.610	0.310
2020/01/31 17:57:09.6	356.950	-0.340	0.590	0.320
2020/01/31 17:57:09.7	356.930	-0.350	0.570	0.330
2020/01/31 17:57:09.8	356.900	-0.360	0.540	0.340
2020/01/31 17:57:09.9	356.880	-0.360	0.510	0.340
2020/01/31 17:57:10.0	356.860	-0.360	0.460	0.340
2020/01/31 17:57:10.1	356.850	-0.360	0.420	0.330
2020/01/31 17:57:10.2	356.830	-0.360	0.370	0.320
2020/01/31 17:57:10.3	356.820	-0.350	0.320	0.310
2020/01/31 17:57:10.4	356.810	-0.350	0.260	0.290
2020/01/31 17:57:10.5	356.800	-0.340	0.200	0.270
2020/01/31 17:57:10.6	356.800	-0.320	0.130	0.240
2020/01/31 17:57:10.7	356.790	-0.310	0.070	0.210
2020/01/31 17:57:10.8	356.800	-0.290	-0.000	0.180
2020/01/31 17:57:10.9	356.790	-0.270	-0.070	0.140
2020/01/31 17:57:11.0	356.790	-0.250	-0.140	0.110
2020/01/31 17:57:11.1	356.800	-0.230	-0.200	0.080
2020/01/31 17:57:11.2	356.800	-0.210	-0.270	0.040
2020/01/31 17:57:11.3	356.800	-0.190	-0.330	0.010
2020/01/31 17:57:11.4	356.810	-0.160	-0.390	-0.020
2020/01/31 17:57:11.5	356.810	-0.130	-0.450	-0.040
2020/01/31 17:57:11.6	356.810	-0.110	-0.500	-0.070
2020/01/31 17:57:11.7	356.810	-0.080	-0.550	-0.080
2020/01/31 17:57:11.8	356.820	-0.050	-0.600	-0.100
2020/01/31 17:57:11.9	356.820	-0.030	-0.630	-0.110
2020/01/31 17:57:12.0	356.810	0.000	-0.670	-0.110
2020/01/31 17:57:12.1	356.810	0.030	-0.690	-0.100
2020/01/31 17:57:12.2	356.800	0.050	-0.710	-0.090
2020/01/31 17:57:12.3	356.790	0.080	-0.720	-0.080
2020/01/31 17:57:12.4	356.780	0.100	-0.730	-0.060
2020/01/31 17:57:12.5	356.760	0.120	-0.730	-0.040
2020/01/31 17:57:12.6	356.740	0.140	-0.730	-0.010
2020/01/31 17:57:12.7	356.730	0.160	-0.720	0.020
2020/01/31 17:57:12.8	356.710	0.180	-0.710	0.050
2020/01/31 17:57:12.9	356.690	0.190	-0.690	0.080
2020/01/31 17:57:13.0	356.660	0.210	-0.670	0.120
2020/01/31 17:57:13.1	356.640	0.220	-0.640	0.150
2020/01/31 17:57:13.2	356.610	0.230	-0.620	0.180
2020/01/31 17:57:13.3	356.580	0.230	-0.600	0.210
2020/01/31 17:57:13.4	356.550	0.240	-0.570	0.240
2020/01/31 17:57:13.5	356.520	0.240	-0.540	0.270
2020/01/31 17:57:13.6	356.490	0.250	-0.520	0.290
2020/01/31 17:57:13.7	356.460	0.250	-0.500	0.310
2020/01/31 17:57:13.8	356.430	0.250	-0.480	0.330
2020/01/31 17:57:13.9	356.400	0.250	-0.460	0.340
2020/01/31 17:57:14.0	356.380	0.250	-0.440	0.360
2020/01/31 17:57:14.1	356.350	0.250	-0.430	0.360
2020/01/31 17:57:14.2	356.330	0.250	-0.420	0.370
2020/01/31 17:57:14.3	356.310	0.240	-0.420	0.370
2020/01/31 17:57:14.4	356.300	0.240	-0.420	0.360
2020/01/31 17:57:14.5	356.280	0.240	-0.420	0.360
2020/01/31 17:57:14.6	356.270	0.240	-0.430	0.340
2020/01/31 17:57:14.7	356.270	0.240	-0.440	0.330
2020/01/31 17:57:14.8	356.270	0.240	-0.450	0.300
2020/01/31 17:57:14.9	356.270	0.250	-0.470	0.280
2020/01/31 17:57:15.0	356.270	0.250	-0.490	0.250
2020/01/31 17:57:15.1	356.280	0.250	-0.510	0.220
2020/01/31 17:57:15.2	356.300	0.250	-0.540	0.190
2020/01/31 17:57:15.3	356.310	0.260	-0.560	0.150
2020/01/31 17:57:15.4	356.330	0.260	-0.590	0.110
2020/01/31 17:57:15.5	356.350	0.260	-0.610	0.080
2020/01/31 17:57:15.6	356.380	0.260	-0.630	0.040
2020/01/31 17:57:15.7	356.400	0.270	-0.660	-0.000
2020/01/31 17:57:15.8	356.440	0.270	-0.670	-0.050
2020/01/31 17:57:15.9	356.470	0.270	-0.690	-0.100
2020/01/31 17:57:16.0	356.500	0.270	-0.700	-0.140
2020/01/31 17:57:16.1	356.530	0.270	-0.710	-0.190
2020/01/31 17:57:16.2	356.570	0.260	-0.720	-0.230
2020/01/31 17:57:16.3	356.610	0.260	-0.720	-0.280
2020/01/31 17:57:16.4	356.650	0.250	-0.720	-0.330
2020/01/31 17:57:16.5	356.690	0.250	-0.720	-0.370
2020/01/31 17:57:16.6	356.730	0.240	-0.710	-0.420
2020/01/31 17:57:16.7	356.780	0.230	-0.700	-0.470
2020/01/31 17:57:16.8	356.820	0.220	-0.680	-0.510
2020/01/31 17:57:16.9	356.860	0.210	-0.660	-0.560
2020/01/31 17:57:17.0	356.910	0.190	-0.640	-0.600
2020/01/31 17:57:17.1	356.960	0.180	-0.610	-0.640
2020/01/31 17:57:17.2	357.000	0.160	-0.580	-0.680
2020/01/31 17:57:17.3	357.050	0.140	-0.550	-0.710
2020/01/31 17:57:17.4	357.090	0.120	-0.510	-0.740
2020/01/31 17:57:17.5	357.130	0.100	-0.470	-0.770
2020/01/31 17:57:17.6	357.170	0.070	-0.430	-0.790
2020/01/31 17:57:17.7	357.210	0.050	-0.380	-0.810
2020/01/31 17:57:17.8	357.240	0.030	-0.330	-0.830
2020/01/31 17:57:17.9	357.270	-0.000	-0.280	-0.830
2020/01/31 17:57:18.0	357.300	-0.030	-0.230	-0.830
2020/01/31 17:57:18.1	357.320	-0.060	-0.180	-0.830
2020/01/31 17:57:18.2	357.340	-0.080	-0.120	-0.820
2020/01/31 17:57:18.3	357.360	-0.110	-0.060	-0.810
2020/01/31 17:57:18.4	357.370	-0.140	-0.000	-0.790
2020/01/31 17:57:18.5	357.370	-0.170	0.050	-0.770
2020/01/31 17:57:18.6	357.380	-0.200	0.110	-0.750
2020/01/31 17:57:18.7	357.380	-0.230	0.170	-0.720
2020/01/31 17:57:18.8	357.370	-0.260	0.230	-0.690
2020/01/31 17:57:18.9	357.360	-0.290	0.290	-0.650
2020/01/31 17:57:19.0	357.350	-0.320	0.350	-0.620
2020/01/31 17:57:19.1	357.330	-0.340	0.400	-0.580
2020/01/31 17:57:19.2	357.320	-0.370	0.450	-0.530
2020/01/31 17:57:19.3	357.290	-0.390	0.500	-0.490
2020/01/31 17:57:19.4	357.270	-0.420	0.550	-0.440
2020/01/31 17:57:19.5	357.240	-0.440	0.590	-0.390
2020/01/31 17:57:19.6	357.210	-0.460	0.620	-0.340
2020/01/31 17:57:19.7	357.170	-0.470	0.650	-0.290
2020/01/31 17:57:19.8	357.140	-0.490	0.680	-0.240
2020/01/31 17:57:19.9	357.100	-0.500	0.700	-0.190
2020/01/31 17:57:20.0	357.060	-0.500	0.710	-0.140
2020/01/31 17:57:20.1	357.020	-0.510	0.710	-0.080
2020/01/31 17:57:20.2	356.980	-0.510	0.710	-0.030
2020/01/31 17:57:20.3	356.940	-0.510	0.700	0.030
2020/01/31 17:57:20.4	356.890	-0.500	0.680	0.080
2020/01/31 17:57:20.5	356.850	-0.500	0.660	0.130
2020/01/31 17:57:20.6	356.800	-0.490	0.630	0.180
2020/01/31 17:57:20.7	356.760	-0.470	0.590	0.240
2020/01/31 17:57:20.8	356.710	-0.460	0.550	0.280
2020/01/31 17:57:20.9	356.660	-0.440	0.500	0.330
2020/01/31 17:57:21.0	356.620	-0.410	0.440	0.380
2020/01/31 17:57:21.1	356.570	-0.390	0.380	0.430
2020/01/31 17:57:21.2	356.520	-0.360	0.310	0.470
2020/01/31 17:57:21.3	356.480	-0.330	0.240	0.510
2020/01/31 17:57:21.4	356.430	-0.300	0.160	0.540
2020/01/31 17:57:21.5	356.390	-0.270	0.090	0.580
2020/01/31 17:57:21.6	356.350	-0.230	0.010	0.610
2020/01/31 17:57:21.7	356.310	-0.200	-0.080	0.630
2020/01/31 17:57:21.8	356.270	-0.160	-0.160	0.650
2020/01/31 17:57:21.9	356.230	-0.120	-0.240	0.670
2020/01/31 17:57:22.0	356.200	-0.080	-0.320	0.680
2020/01/31 17:57:22.1	356.170	-0.040	-0.400	0.690
2020/01/31 17:57:22.2	356.140	0.000	-0.480	0.690
2020/01/31 17:57:22.3	356.110	0.040	-0.560	0.680
2020/01/31 17:57:22.4	356.090	0.080	-0.630	0.670
2020/01/31 17:57:22.5	356.070	0.120	-0.700	0.660
2020/01/31 17:57:22.6	356.050	0.160	-0.760	0.640
2020/01/31 17:57:22.7	356.030	0.200	-0.820	0.620
2020/01/31 17:57:22.8	356.030	0.240	-0.880	0.590
2020/01/31 17:57:22.9	356.020	0.280	-0.930	0.560
2020/01/31 17:57:23.0	356.010	0.310	-0.970	0.530
2020/01/31 17:57:23.1	356.010	0.350	-1.010	0.500
2020/01/31 17:57:23.2	356.020	0.380	-1.040	0.470
2020/01/31 17:57:23.3	356.020	0.410	-1.070	0.430
2020/01/31 17:57:23.4	356.030	0.440	-1.090	0.390
2020/01/31 17:57:23.5	356.040	0.470	-1.110	0.360
2020/01/31 17:57:23.6	356.060	0.490	-1.120	0.320
2020/01/31 17:57:23.7	356.080	0.510	-1.120	0.280
2020/01/31 17:57:23.8	356.100	0.530	-1.120	0.240
2020/01/31 17:57:23.9	356.130	0.550	-1.110	0.210
2020/01/31 17:57:24.0	356.150	0.560	-1.100	0.170
2020/01/31 17:57:24.1	356.180	0.570	-1.090	0.140
2020/01/31 17:57:24.2	356.210	0.570	-1.070	0.100
2020/01/31 17:57:24.3	356.250	0.580	-1.040	0.070
2020/01/31 17:57:24.4	356.280	0.580	-1.010	0.040
2020/01/31 17:57:24.5	356.310	0.570	-0.980	0.020
2020/01/31 17:57:24.6	356.350	0.560	-0.940	-0.010
2020/01/31 17:57:24.7	356.390	0.550	-0.910	-0.030
2020/01/31 17:57:24.8	356.430	0.540	-0.870	-0.050
2020/01/31 17:57:24.9	356.460	0.520	-0.820	-0.080
2020/01/31 17:57:25.0	356.500	0.500	-0.780	-0.100
2020/01/31 17:57:25.1	356.530	0.470	-0.730	-0.120
2020/01/31 17:57:25.2	356.570	0.440	-0.680	-0.130
2020/01/31 17:57:25.3	356.600	0.410	-0.630	-0.150
2020/01/31 17:57:25.4	356.640	0.380	-0.590	-0.170
2020/01/31 17:57:25.5	356.670	0.340	-0.540	-0.190
2020/01/31 17:57:25.6	356.700	0.300	-0.490	-0.200
2020/01/31 17:57:25.7	356.730	0.260	-0.440	-0.220
2020/01/31 17:57:25.8	356.760	0.220	-0.390	-0.240
2020/01/31 17:57:25.9	356.790	0.180	-0.350	-0.260
2020/01/31 17:57:26.0	356.810	0.140	-0.300	-0.270
2020/01/31 17:57:26.1	356.840	0.090	-0.260	-0.280
2020/01/31 17:57:26.2	356.860	0.050	-0.210	-0.290
2020/01/31 17:57:26.3	356.880	0.010	-0.170	-0.310
2020/01/31 17:57:26.4	356.900	-0.040	-0.130	-0.310
2020/01/31 17:57:26.5	356.920	-0.080	-0.090	-0.320
2020/01/31 17:57:26.6	356.940	-0.120	-0.050	-0.320
2020/01/31 17:57:26.7	356.950	-0.160	-0.020	-0.330
2020/01/31 17:57:26.8	356.970	-0.190	0.020	-0.320
2020/01/31 17:57:26.9	356.980	-0.220	0.050	-0.320
2020/01/31 17:57:27.0	356.990	-0.250	0.090	-0.310
2020/01/31 17:57:27.1	356.990	-0.280	0.120	-0.300
2020/01/31 17:57:27.2	357.000	-0.310	0.150	-0.280
2020/01/31 17:57:27.3	357.010	-0.330	0.170	-0.260
2020/01/31 17:57:27.4	357.010	-0.350	0.200	-0.240
2020/01/31 17:57:27.5	357.010	-0.370	0.220	-0.210
2020/01/31 17:57:27.6	357.010	-0.380	0.250	-0.180
2020/01/31 17:57:27.7	357.000	-0.390	0.270	-0.140
2020/01/31 17:57:27.8	357.000	-0.400	0.290	-0.110
2020/01/31 17:57:27.9	356.990	-0.410	0.310	-0.070
2020/01/31 17:57:28.0	356.980	-0.410	0.320	-0.020
2020/01/31 17:57:28.1	356.960	-0.410	0.340	0.020
2020/01/31 17:57:28.2	356.950	-0.410	0.350	0.070
2020/01/31 17:57:28.3	356.930	-0.410	0.360	0.120
2020/01/31 17:57:28.4	356.910	-0.400	0.370	0.170
2020/01/31 17:57:28.5	356.880	-0.390	0.380	0.220
2020/01/31 17:57:28.6	356.860	-0.390	0.390	0.260
2020/01/31 17:57:28.7	356.830	-0.380	0.390	0.310
2020/01/31 17:57:28.8	356.800	-0.370	0.390	0.350
2020/01/31 17:57:28.9	356.770	-0.350	0.390	0.390
2020/01/31 17:57:29.0	356.740	-0.340	0.390	0.420
2020/01/31 17:57:29.1	356.710	-0.330	0.390	0.460
2020/01/31 17:57:29.2	356.680	-0.310	0.390	0.490
2020/01/31 17:57:29.3	356.650	-0.300	0.380	0.510
2020/01/31 17:57:29.4	356.620	-0.280	0.380	0.540
2020/01/31 17:57:29.5	356.580	-0.270	0.370	0.560
2020/01/31 17:57:29.6	356.550	-0.250	0.360	0.570
2020/01/31 17:57:29.7	356.520	-0.230	0.350	0.590
2020/01/31 17:57:29.8	356.500	-0.210	0.340	0.600
2020/01/31 17:57:29.9	356.470	-0.190	0.330	0.610
2020/01/31 17:57:30.0	356.440	-0.180	0.310	0.610
2020/01/31 17:57:30.1	356.410	-0.160	0.290	0.620
2020/01/31 17:57:30.2	356.390	-0.140	0.280	0.620
2020/01/31 17:57:30.3	356.360	-0.120	0.260	0.630
2020/01/31 17:57:30.4	356.340	-0.100	0.230	0.630
2020/01/31 17:57:30.5	356.320	-0.080	0.210	0.630
2020/01/31 17:57:30.6	356.300	-0.060	0.190	0.630
2020/01/31 17:57:30.7	356.280	-0.040	0.160	0.620
2020/01/31 17:57:30.8	356.260	-0.010	0.130	0.620
2020/01/31 17:57:30.9	356.240	0.010	0.100	0.610
2020/01/31 17:57:31.0	356.220	0.030	0.060	0.610
2020/01/31 17:57:31.1	356.210	0.050	0.030	0.600
2020/01/31 17:57:31.2	356.190	0.070	-0.010	0.590
2020/01/31 17:57:31.3	356.180	0.090	-0.050	0.590
2020/01/31 17:57:31.4	356.170	0.110	-0.100	0.580
2020/01/31 17:57:31.5	356.170	0.130	-0.140	0.560
2020/01/31 17:57:31.6	356.160	0.150	-0.190	0.550
2020/01/31 17:57:31.7	356.160	0.170	-0.240	0.530
2020/01/31 17:57:31.8	356.150	0.190	-0.290	0.510
2020/01/31 17:57:31.9	356.150	0.210	-0.340	0.480
2020/01/31 17:57:32.0	356.150	0.220	-0.400	0.460
2020/01/31 17:57:32.1	356.160	0.240	-0.450	0.430
2020/01/31 17:57:32.2	356.170	0.260	-0.510	0.390
2020/01/31 17:57:32.3	356.180	0.280	-0.570	0.360
2020/01/31 17:57:32.4	356.190	0.290	-0.640	0.320
2020/01/31 17:57:32.5	356.210	0.310	-0.700	0.270
2020/01/31 17:57:32.6	356.230	0.320	-0.760	0.230
2020/01/31 17:57:32.7	356.250	0.330	-0.830	0.180
2020/01/31 17:57:32.8	356.270	0.340	-0.890	0.120
2020/01/31 17:57:32.9	356.300	0.350	-0.950	0.070
2020/01/31 17:57:33.0	356.330	0.360	-1.010	0.010
2020/01/31 17:57:33.1	356.350	0.370	-1.070	-0.040
2020/01/31 17:57:33.2	356.380	0.370	-1.120	-0.100
2020/01/31 17:57:33.3	356.410	0.380	-1.170	-0.150
2020/01/31 17:57:33.4	356.440	0.380	-1.220	-0.200
2020/01/31 17:57:33.5	356.470	0.380	-1.260	-0.260
2020/01/31 17:57:33.6	356.500	0.370	-1.300	-0.300
2020/01/31 17:57:33.7	356.520	0.370	-1.330	-0.350
2020/01/31 17:57:33.8	356.560	0.360	-1.350	-0.400
2020/01/31 17:57:33.9	356.590	0.350	-1.370	-0.440
2020/01/31 17:57:34.0	356.610	0.330	-1.380	-0.480
2020/01/31 17:57:34.1	356.640	0.320	-1.380	-0.520
2020/01/31 17:57:34.2	356.670	0.300	-1.380	-0.550
2020/01/31 17:57:34.3	356.700	0.280	-1.360	-0.580
2020/01/31 17:57:34.4	356.720	0.260	-1.340	-0.610
2020/01/31 17:57:34.5	356.750	0.230	-1.320	-0.630
2020/01/31 17:57:34.6	356.780	0.200	-1.280	-0.650
2020/01/31 17:57:34.7	356.810	0.170	-1.240	-0.670
2020/01/31 17:57:34.8	356.830	0.140	-1.200	-0.690
2020/01/31 17:57:34.9	356.860	0.110	-1.140	-0.710
2020/01/31 17:57:35.0	356.880	0.080	-1.090	-0.720
2020/01/31 17:57:35.1	356.910	0.050	-1.020	-0.730
2020/01/31 17:57:35.2	356.940	0.010	-0.950	-0.740
2020/01/31 17:57:35.3	356.960	-0.020	-0.880	-0.750
2020/01/31 17:57:35.4	356.990	-0.050	-0.810	-0.750
2020/01/31 17:57:35.5	357.010	-0.080	-0.730	-0.750
2020/01/31 17:57:35.6	357.030	-0.120	-0.650	-0.750
2020/01/31 17:57:35.7	357.050	-0.150	-0.560	-0.750
2020/01/31 17:57:35.8	357.070	-0.180	-0.480	-0.740
2020/01/31 17:57:35.9	357.080	-0.200	-0.390	-0.730
2020/01/31 17:57:36.0	357.100	-0.230	-0.310	-0.720
2020/01/31 17:57:36.1	357.120	-0.250	-0.230	-0.700
2020/01/31 17:57:36.2	357.130	-0.270	-0.140	-0.690
2020/01/31 17:57:36.3	357.140	-0.290	-0.070	-0.670
2020/01/31 17:57:36.4	357.150	-0.300	0.010	-0.640
2020/01/31 17:57:36.5	357.160	-0.320	0.080	-0.620
2020/01/31 17:57:36.6	357.170	-0.330	0.150	-0.590
2020/01/31 17:57:36.7	357.180	-0.330	0.220	-0.560
2020/01/31 17:57:36.8	357.170	-0.330	0.280	-0.530
2020/01/31 17:57:36.9	357.180	-0.330	0.330	-0.500
2020/01/31 17:57:37.0	357.180	-0.330	0.390	-0.460
2020/01/31 17:57:37.1	357.180	-0.320	0.430	-0.420
2020/01/31 17:57:37.2	357.180	-0.310	0.470	-0.380
2020/01/31 17:57:37.3	357.180	-0.300	0.510	-0.340
2020/01/31 17:57:37.4	357.180	-0.290	0.540	-0.300
2020/01/31 17:57:37.5	357.170	-0.270	0.570	-0.250
2020/01/31 17:57:37.6	357.170	-0.250	0.600	-0.210
2020/01/31 17:57:37.7	357.160	-0.220	0.620	-0.160
2020/01/31 17:57:37.8	357.140	-0.200	0.630	-0.110
2020/01/31 17:57:37.9	357.130	-0.170	0.640	-0.060
2020/01/31 17:57:38.0	357.110	-0.150	0.650	-0.000
2020/01/31 17:57:38.1	357.090	-0.120	0.660	0.050
2020/01/31 17:57:38.2	357.060	-0.090	0.660	0.100
2020/01/31 17:57:38.3	357.030	-0.060	0.660	0.160
2020/01/31 17:57:38.4	357.000	-0.030	0.660	0.210
2020/01/31 17:57:38.5	356.970	0.000	0.650	0.270
2020/01/31 17:57:38.6	356.940	0.030	0.650	0.320
2020/01/31 17:57:38.7	356.900	0.060	0.640	0.380
2020/01/31 17:57:38.8	356.850	0.090	0.620	0.430
2020/01/31 17:57:38.9	356.810	0.110	0.610	0.480
2020/01/31 17:57:39.0	356.770	0.140	0.590	0.540
2020/01/31 17:57:39.1	356.720	0.160	0.570	0.590
2020/01/31 17:57:39.2	356.670	0.180	0.550	0.640
2020/01/31 17:57:39.3	356.630	0.200	0.520	0.680
2020/01/31 17:57:39.4	356.580	0.220	0.490	0.720
2020/01/31 17:57:39.5	356.530	0.230	0.460	0.760
2020/01/31 17:57:39.6	356.480	0.250	0.420	0.790
2020/01/31 17:57:39.7	356.440	0.260	0.380	0.820
2020/01/31 17:57:39.8	356.390	0.260	0.330	0.840
2020/01/31 17:57:39.9	356.350	0.270	0.290	0.860
2020/01/31 17:57:40.0	356.310	0.270	0.230	0.870
2020/01/31 17:57:40.1	356.280	0.270	0.180	0.870
2020/01/31 17:57:40.2	356.250	0.270	0.120	0.860
2020/01/31 17:57:40.3	356.220	0.270	0.060	0.850
2020/01/31 17:57:40.4	356.190	0.260	-0.010	0.830
2020/01/31 17:57:40.5	356.160	0.250	-0.080	0.810
2020/01/31 17:57:40.6	356.140	0.250	-0.150	0.780
2020/01/31 17:57:40.7	356.130	0.240	-0.220	0.740
2020/01/31 17:57:40.8	356.110	0.230	-0.290	0.690
2020/01/31 17:57:40.9	356.100	0.220	-0.360	0.640
2020/01/31 17:57:41.0	356.090	0.200	-0.430	0.590
2020/01/31 17:57:41.1	356.090	0.190	-0.500	0.530
2020/01/31 17:57:41.2	356.090	0.180	-0.570	0.470
2020/01/31 17:57:41.3	356.090	0.170	-0.640	0.400
2020/01/31 17:57:41.4	356.100	0.160	-0.700	0.330
2020/01/31 17:57:41.5	356.100	0.140	-0.770	0.260
2020/01/31 17:57:41.6	356.110	0.130	-0.820	0.190
2020/01/31 17:57:41.7	356.120	0.120	-0.880	0.120
2020/01/31 17:57:41.8	356.140	0.110	-0.920	0.040
2020/01/31 17:57:41.9	356.160	0.100	-0.960	-0.030
2020/01/31 17:57:42.0	356.180	0.090	-1.000	-0.100
2020/01/31 17:57:42.1	356.190	0.080	-1.030	-0.160
2020/01/31 17:57:42.2	356.210	0.080	-1.050	-0.220
2020/01/31 17:57:42.3	356.230	0.070	-1.070	-0.280
2020/01/31 17:57:42.4	356.250	0.060	-1.070	-0.330
2020/01/31 17:57:42.5	356.270	0.060	-1.080	-0.380
2020/01/31 17:57:42.6	356.300	0.050	-1.070	-0.430
2020/01/31 17:57:42.7	356.320	0.040	-1.060	-0.470
2020/01/31 17:57:42.8	356.350	0.040	-1.040	-0.520
2020/01/31 17:57:42.9	356.370	0.030	-1.020	-0.550
2020/01/31 17:57:43.0	356.400	0.020	-0.990	-0.590
2020/01/31 17:57:43.1	356.430	0.020	-0.950	-0.610
2020/01/31 17:57:43.2	356.460	0.010	-0.910	-0.640
2020/01/31 17:57:43.3	356.480	-0.000	-0.870	-0.670
2020/01/31 17:57:43.4	356.520	-0.010	-0.820	-0.690
2020/01/31 17:57:43.5	356.550	-0.030	-0.770	-0.710
2020/01/31 17:57:43.6	356.580	-0.040	-0.720	-0.730
2020/01/31 17:57:43.7	356.610	-0.060	-0.660	-0.740
2020/01/31 17:57:43.8	356.640	-0.070	-0.610	-0.760
2020/01/31 17:57:43.9	356.670	-0.090	-0.550	-0.770
2020/01/31 17:57:44.0	356.700	-0.110	-0.500	-0.780
2020/01/31 17:57:44.1	356.740	-0.130	-0.440	-0.790
2020/01/31 17:57:44.2	356.770	-0.150	-0.390	-0.800
2020/01/31 17:57:44.3	356.800	-0.180	-0.340	-0.810
2020/01/31 17:57:44.4	356.830	-0.200	-0.290	-0.820
2020/01/31 17:57:44.5	356.860	-0.220	-0.240	-0.820
2020/01/31 17:57:44.6	356.900	-0.250	-0.200	-0.830
2020/01/31 17:57:44.7	356.930	-0.270	-0.160	-0.830
2020/01/31 17:57:44.8	356.940	-0.300	-0.130	-0.830
2020/01/31 17:57:44.9	356.970	-0.320	-0.090	-0.830
2020/01/31 17:57:45.0	357.000	-0.340	-0.060	-0.820
2020/01/31 17:57:45.1	357.020	-0.360	-0.030	-0.810
2020/01/31 17:57:45.2	357.050	-0.380	-0.010	-0.800
2020/01/31 17:57:45.3	357.070	-0.400	0.010	-0.790
2020/01/31 17:57:45.4	357.090	-0.420	0.030	-0.770
2020/01/31 17:57:45.5	357.120	-0.430	0.040	-0.750
2020/01/31 17:57:45.6	357.140	-0.450	0.050	-0.730
2020/01/31 17:57:45.7	357.150	-0.450	0.060	-0.710
2020/01/31 17:57:45.8	357.170	-0.460	0.060	-0.690
2020/01/31 17:57:45.9	357.190	-0.460	0.070	-0.660
2020/01/31 17:57:46.0	357.200	-0.470	0.060	-0.630
2020/01/31 17:57:46.1	357.210	-0.460	0.060	-0.610
2020/01/31 17:57:46.2	357.220	-0.460	0.050	-0.580
2020/01/31 17:57:46.3	357.230	-0.450	0.040	-0.550
2020/01/31 17:57:46.4	357.240	-0.440	0.030	-0.520
2020/01/31 17:57:46.5	357.240	-0.420	0.020	-0.480
2020/01/31 17:57:46.6	357.240	-0.400	0.000	-0.450
2020/01/31 17:57:46.7	357.240	-0.380	-0.010	-0.420
2020/01/31 17:57:46.8	357.240	-0.350	-0.030	-0.380
2020/01/31 17:57:46.9	357.230	-0.330	-0.050	-0.340
2020/01/31 17:57:47.0	357.230	-0.300	-0.070	-0.300
2020/01/31 17:57:47.1	357.220	-0.260	-0.090	-0.260
2020/01/31 17:57:47.2	357.210	-0.230	-0.110	-0.220
2020/01/31 17:57:47.3	357.190	-0.190	-0.140	-0.180
2020/01/31 17:57:47.4	357.180	-0.150	-0.160	-0.140
2020/01/31 17:57:47.5	357.160	-0.110	-0.180	-0.100
2020/01/31 17:57:47.6	357.140	-0.070	-0.200	-0.050
2020/01/31 17:57:47.7	357.110	-0.030	-0.220	-0.010
2020/01/31 17:57:47.8	357.090	0.010	-0.240	0.030
2020/01/31 17:57:47.9	357.060	0.050	-0.260	0.070
2020/01/31 17:57:48.0	357.030	0.090	-0.270	0.110
2020/01/31 17:57:48.1	357.000	0.130	-0.290	0.150
2020/01/31 17:57:48.2	356.970	0.170	-0.300	0.180
2020/01/31 17:57:48.3	356.940	0.200	-0.310	0.210
2020/01/31 17:57:48.4	356.900	0.240	-0.320	0.240
2020/01/31 17:57:48.5	356.870	0.270	-0.330	0.270
2020/01/31 17:57:48.6	356.830	0.300	-0.340	0.290
2020/01/31 17:57:48.7	356.790	0.330	-0.340	0.310
2020/01/31 17:57:48.8	356.760	0.350	-0.340	0.330
2020/01/31 17:57:48.9	356.720	0.370	-0.340	0.340
2020/01/31 17:57:49.0	356.690	0.390	-0.330	0.350
2020/01/31 17:57:49.1	356.650	0.410	-0.330	0.360
2020/01/31 17:57:49.2	356.610	0.420	-0.320	0.370
2020/01/31 17:57:49.3	356.570	0.430	-0.310	0.370
2020/01/31 17:57:49.4	356.530	0.440	-0.300	0.370
2020/01/31 17:57:49.5	356.490	0.450	-0.280	0.370
2020/01/31 17:57:49.6	356.450	0.450	-0.270	0.370
2020/01/31 17:57:49.7	356.410	0.450	-0.250	0.370
2020/01/31 17:57:49.8	356.380	0.450	-0.230	0.360
2020/01/31 17:57:49.9	356.340	0.440	-0.210	0.360
2020/01/31 17:57:50.0	356.300	0.430	-0.180	0.350
2020/01/31 17:57:50.1	356.270	0.430	-0.160	0.350
2020/01/31 17:57:50.2	356.230	0.410	-0.130	0.340
2020/01/31 17:57:50.3	356.190	0.400	-0.110	0.330
2020/01/31 17:57:50.4	356.160	0.390	-0.090	0.330
2020/01/31 17:57:50.5	356.120	0.370	-0.060	0.320
2020/01/31 17:57:50.6	356.090	0.350	-0.040	0.310
2020/01/31 17:57:50.7	356.060	0.340	-0.020	0.300
2020/01/31 17:57:50.8	356.020	0.320	0.000	0.280
2020/01/31 17:57:50.9	356.000	0.290	0.020	0.260
2020/01/31 17:57:51.0	355.970	0.270	0.040	0.240
2020/01/31 17:57:51.1	355.950	0.250	0.060	0.220
2020/01/31 17:57:51.2	355.920	0.220	0.070	0.200
2020/01/31 17:57:51.3	355.910	0.200	0.080	0.180
2020/01/31 17:57:51.4	355.890	0.170	0.080	0.150
2020/01/31 17:57:51.5	355.880	0.150	0.080	0.110
2020/01/31 17:57:51.6	355.870	0.120	0.080	0.080
2020/01/31 17:57:51.7	355.870	0.090	0.070	0.040
2020/01/31 17:57:51.8	355.870	0.070	0.070	-0.010
2020/01/31 17:57:51.9	355.880	0.040	0.050	-0.050
2020/01/31 17:57:52.0	355.880	0.020	0.030	-0.100
2020/01/31 17:57:52.1	355.890	-0.010	0.010	-0.150
2020/01/31 17:57:52.2	355.910	-0.030	-0.020	-0.200
2020/01/31 17:57:52.3	355.930	-0.050	-0.050	-0.250
2020/01/31 17:57:52.4	355.950	-0.080	-0.090	-0.310
2020/01/31 17:57:52.5	355.980	-0.100	-0.130	-0.370
2020/01/31 17:57:52.6	356.010	-0.120	-0.170	-0.420
2020/01/31 17:57:52.7	356.040	-0.130	-0.210	-0.480
2020/01/31 17:57:52.8	356.070	-0.150	-0.260	-0.540
2020/01/31 17:57:52.9	356.110	-0.160	-0.310	-0.600
2020/01/31 17:57:53.0	356.150	-0.180	-0.360	-0.650
2020/01/31 17:57:53.1	356.190	-0.190	-0.410	-0.710
2020/01/31 17:57:53.2	356.230	-0.190	-0.470	-0.760
2020/01/31 17:57:53.3	356.280	-0.200	-0.520	-0.810
2020/01/31 17:57:53.4	356.320	-0.200	-0.580	-0.860
2020/01/31 17:57:53.5	356.370	-0.200	-0.630	-0.910
2020/01/31 17:57:53.6	356.420	-0.200	-0.680	-0.960
2020/01/31 17:57:53.7	356.460	-0.190	-0.740	-1.000
2020/01/31 17:57:53.8	356.510	-0.180	-0.780	-1.040
2020/01/31 17:57:53.9	356.550	-0.170	-0.830	-1.070
2020/01/31 17:57:54.0	356.600	-0.160	-0.880	-1.100
2020/01/31 17:57:54.1	356.640	-0.150	-0.920	-1.130
2020/01/31 17:57:54.2	356.690	-0.140	-0.950	-1.160
2020/01/31 17:57:54.3	356.730	-0.120	-0.980	-1.170
2020/01/31 17:57:54.4	356.770	-0.100	-1.010	-1.190
2020/01/31 17:57:54.5	356.810	-0.090	-1.030	-1.200
2020/01/31 17:57:54.6	356.840	-0.070	-1.050	-1.210
2020/01/31 17:57:54.7	356.880	-0.050	-1.060	-1.220
2020/01/31 17:57:54.8	356.910	-0.030	-1.060	-1.220
2020/01/31 17:57:54.9	356.940	-0.020	-1.060	-1.210
2020/01/31 17:57:55.0	356.970	0.000	-1.060	-1.210
2020/01/31 17:57:55.1	357.000	0.020	-1.050	-1.200
2020/01/31 17:57:55.2	357.020	0.030	-1.030	-1.190
2020/01/31 17:57:55.3	357.040	0.050	-1.000	-1.170
2020/01/31 17:57:55.4	357.060	0.060	-0.970	-1.150
2020/01/31 17:57:55.5	357.070	0.080	-0.940	-1.120
2020/01/31 17:57:55.6	357.080	0.090	-0.900	-1.100
2020/01/31 17:57:55.7	357.090	0.090	-0.850	-1.070
2020/01/31 17:57:55.8	357.090	0.100	-0.800	-1.030
2020/01/31 17:57:55.9	357.100	0.110	-0.740	-1.000
2020/01/31 17:57:56.0	357.100	0.110	-0.670	-0.960
2020/01/31 17:57:56.1	357.100	0.110	-0.610	-0.910
2020/01/31 17:57:56.2	357.100	0.110	-0.540	-0.870
2020/01/31 17:57:56.3	357.090	0.100	-0.460	-0.820
2020/01/31 17:57:56.4	357.090	0.090	-0.390	-0.780
2020/01/31 17:57:56.5	357.080	0.090	-0.310	-0.730
2020/01/31 17:57:56.6	357.070	0.070	-0.220	-0.680
2020/01/31 17:57:56.7	357.050	0.060	-0.140	-0.630
2020/01/31 17:57:56.8	357.040	0.050	-0.060	-0.570
2020/01/31 17:57:56.9	357.020	0.030	0.030	-0.520
2020/01/31 17:57:57.0	357.000	0.010	0.110	-0.470
2020/01/31 17:57:57.1	356.980	-0.010	0.200	-0.410
2020/01/31 17:57:57.2	356.950	-0.030	0.280	-0.360
2020/01/31 17:57:57.3	356.930	-0.060	0.360	-0.300
2020/01/31 17:57:57.4	356.900	-0.080	0.440	-0.250
2020/01/31 17:57:57.5	356.870	-0.110	0.520	-0.190
2020/01/31 17:57:57.6	356.840	-0.140	0.590	-0.140
2020/01/31 17:57:57.7	356.800	-0.160	0.670	-0.090
2020/01/31 17:57:57.8	356.760	-0.190	0.730	-0.030
2020/01/31 17:57:57.9	356.720	-0.220	0.800	0.010
2020/01/31 17:57:58.0	356.690	-0.250	0.850	0.060
2020/01/31 17:57:58.1	356.650	-0.280	0.910	0.110
2020/01/31 17:57:58.2	356.610	-0.310	0.950	0.150
2020/01/31 17:57:58.3	356.570	-0.340	0.990	0.190
2020/01/31 17:57:58.4	356.530	-0.360	1.030	0.220
2020/01/31 17:57:58.5	356.490	-0.390	1.050	0.250
2020/01/31 17:57:58.6	356.450	-0.410	1.070	0.280
2020/01/31 17:57:58.7	356.420	-0.440	1.080	0.300
2020/01/31 17:57:58.8	356.380	-0.460	1.080	0.320
2020/01/31 17:57:58.9	356.340	-0.480	1.080	0.340
2020/01/31 17:57:59.0	356.310	-0.490	1.070	0.350
2020/01/31 17:57:59.1	356.280	-0.500	1.050	0.360
2020/01/31 17:57:59.2	356.250	-0.510	1.020	0.370
2020/01/31 17:57:59.3	356.210	-0.520	0.980	0.370
2020/01/31 17:57:59.4	356.180	-0.520	0.930	0.380
2020/01/31 17:57:59.5	356.160	-0.520	0.880	0.380
2020/01/31 17:57:59.6	356.130	-0.510	0.820	0.380
2020/01/31 17:57:59.7	356.100	-0.510	0.760	0.370
2020/01/31 17:57:59.8	356.070	-0.490	0.690	0.370
2020/01/31 17:57:59.9	356.050	-0.480	0.610	0.360
2020/01/31 17:58:00.0	356.020	-0.460	0.530	0.350
2020/01/31 17:58:00.1	356.000	-0.440	0.440	0.340
2020/01/31 17:58:00.2	355.980	-0.410	0.350	0.330
2020/01/31 17:58:00.3	355.960	-0.380	0.250	0.320
2020/01/31 17:58:00.4	355.940	-0.350	0.150	0.310
2020/01/31 17:58:00.5	355.920	-0.310	0.050	0.290
2020/01/31 17:58:00.6	355.910	-0.270	-0.060	0.280
2020/01/31 17:58:00.7	355.900	-0.230	-0.170	0.260
2020/01/31 17:58:00.8	355.890	-0.180	-0.280	0.240
2020/01/31 17:58:00.9	355.880	-0.140	-0.390	0.220
2020/01/31 17:58:01.0	355.880	-0.090	-0.490	0.190
2020/01/31 17:58:01.1	355.880	-0.030	-0.600	0.170
2020/01/31 17:58:01.2	355.880	0.020	-0.710	0.150
2020/01/31 17:58:01.3	355.890	0.070	-0.820	0.120
2020/01/31 17:58:01.4	355.900	0.130	-0.920	0.090
2020/01/31 17:58:01.5	355.910	0.180	-1.020	0.060
2020/01/31 17:58:01.6	355.920	0.240	-1.120	0.030
2020/01/31 17:58:01.7	355.940	0.290	-1.220	-0.000
2020/01/31 17:58:01.8	355.970	0.350	-1.310	-0.040
2020/01/31 17:58:01.9	356.000	0.400	-1.390	-0.070
2020/01/31 17:58:02.0	356.030	0.450	-1.470	-0.110
2020/01/31 17:58:02.1	356.060	0.500	-1.540	-0.140
2020/01/31 17:58:02.2	356.090	0.540	-1.610	-0.180
2020/01/31 17:58:02.3	356.130	0.580	-1.670	-0.210
2020/01/31 17:58:02.4	356.170	0.620	-1.720	-0.250
2020/01/31 17:58:02.5	356.210	0.660	-1.760	-0.280
2020/01/31 17:58:02.6	356.250	0.690	-1.790	-0.320
2020/01/31 17:58:02.7	356.290	0.710	-1.810	-0.350
2020/01/31 17:58:02.8	356.340	0.730	-1.820	-0.380
2020/01/31 17:58:02.9	356.380	0.740	-1.820	-0.410
2020/01/31 17:58:03.0	356.420	0.750	-1.810	-0.440
2020/01/31 17:58:03.1	356.460	0.760	-1.790	-0.470
2020/01/31 17:58:03.2	356.490	0.750	-1.760	-0.500
2020/01/31 17:58:03.3	356.530	0.750	-1.720	-0.520
2020/01/31 17:58:03.4	356.570	0.730	-1.670	-0.540
2020/01/31 17:58:03.5	356.600	0.720	-1.610	-0.560
2020/01/31 17:58:03.6	356.630	0.690	-1.540	-0.570
2020/01/31 17:58:03.7	356.660	0.670	-1.470	-0.580
2020/01/31 17:58:03.8	356.700	0.630	-1.380	-0.590
2020/01/31 17:58:03.9	356.720	0.600	-1.290	-0.590
2020/01/31 17:58:04.0	356.750	0.560	-1.190	-0.590
2020/01/31 17:58:04.1	356.770	0.520	-1.090	-0.580
2020/01/31 17:58:04.2	356.790	0.470	-0.980	-0.570
2020/01/31 17:58:04.3	356.810	0.420	-0.870	-0.560
2020/01/31 17:58:04.4	356.830	0.370	-0.760	-0.540
2020/01/31 17:58:04.5	356.850	0.320	-0.640	-0.520
2020/01/31 17:58:04.6	356.860	0.260	-0.530	-0.490
2020/01/31 17:58:04.7	356.870	0.210	-0.410	-0.470
2020/01/31 17:58:04.8	356.880	0.160	-0.300	-0.430
2020/01/31 17:58:04.9	356.900	0.100	-0.190	-0.400
2020/01/31 17:58:05.0	356.910	0.050	-0.090	-0.370
2020/01/31 17:58:05.1	356.920	0.000	0.010	-0.340
2020/01/31 17:58:05.2	356.930	-0.050	0.110	-0.310
2020/01/31 17:58:05.3	356.940	-0.090	0.190	-0.280
2020/01/31 17:58:05.4	356.950	-0.140	0.280	-0.250
2020/01/31 17:58:05.5	356.960	-0.180	0.350	-0.220
2020/01/31 17:58:05.6	356.970	-0.220	0.420	-0.190
2020/01/31 17:58:05.7	356.980	-0.250	0.480	-0.160
2020/01/31 17:58:05.8	356.980	-0.280	0.540	-0.140
2020/01/31 17:58:05.9	356.990	-0.300	0.590	-0.120
2020/01/31 17:58:06.0	357.000	-0.330	0.630	-0.090
2020/01/31 17:58:06.1	357.010	-0.340	0.660	-0.070
2020/01/31 17:58:06.2	357.010	-0.360	0.680	-0.050
2020/01/31 17:58:06.3	357.020	-0.360	0.700	-0.030
2020/01/31 17:58:06.4	357.020	-0.370	0.710	-0.010
2020/01/31 17:58:06.5	357.020	-0.370	0.720	0.010
2020/01/31 17:58:06.6	357.020	-0.370	0.720	0.040
2020/01/31 17:58:06.7	357.020	-0.360	0.710	0.060
2020/01/31 17:58:06.8	357.010	-0.350	0.700	0.080
2020/01/31 17:58:06.9	357.000	-0.340	0.690	0.100
2020/01/31 17:58:07.0	356.990	-0.320	0.670	0.130
2020/01/31 17:58:07.1	356.980	-0.310	0.650	0.150
2020/01/31 17:58:07.2	356.960	-0.290	0.620	0.180
2020/01/31 17:58:07.3	356.940	-0.270	0.590	0.210
2020/01/31 17:58:07.4	356.920	-0.240	0.560	0.230
2020/01/31 17:58:07.5	356.900	-0.220	0.530	0.260
2020/01/31 17:58:07.6	356.870	-0.200	0.490	0.280
2020/01/31 17:58:07.7	356.850	-0.170	0.450	0.300
2020/01/31 17:58:07.8	356.810	-0.150	0.410	0.320
2020/01/31 17:58:07.9	356.780	-0.120	0.370	0.340
2020/01/31 17:58:08.0	356.750	-0.100	0.330	0.350
2020/01/31 17:58:08.1	356.730	-0.080	0.280	0.360
2020/01/31 17:58:08.2	356.700	-0.060	0.240	0.370
2020/01/31 17:58:08.3	356.670	-0.040	0.190	0.380
2020/01/31 17:58:08.4	356.650	-0.020	0.140	0.380
2020/01/31 17:58:08.5	356.630	-0.010	0.090	0.370
2020/01/31 17:58:08.6	356.610	0.010	0.050	0.370
2020/01/31 17:58:08.7	356.590	0.020	-0.000	0.350
2020/01/31 17:58:08.8	356.570	0.030	-0.050	0.330
2020/01/31 17:58:08.9	356.560	0.040	-0.100	0.310
2020/01/31 17:58:09.0	356.550	0.050	-0.150	0.290
2020/01/31 17:58:09.1	356.550	0.050	-0.200	0.260
2020/01/31 17:58:09.2	356.540	0.050	-0.250	0.220
2020/01/31 17:58:09.3	356.540	0.050	-0.290	0.190
2020/01/31 17:58:09.4	356.540	0.050	-0.330	0.150
2020/01/31 17:58:09.5	356.540	0.050	-0.370	0.110
2020/01/31 17:58:09.6	356.540	0.040	-0.410	0.070
2020/01/31 17:58:09.7	356.550	0.030	-0.440	0.020
2020/01/31 17:58:09.8	356.540	0.020	-0.480	-0.030
2020/01/31 17:58:09.9	356.540	0.000	-0.500	-0.080
2020/01/31 17:58:10.0	356.550	-0.020	-0.530	-0.130
2020/01/31 17:58:10.1	356.550	-0.030	-0.540	-0.180
2020/01/31 17:58:10.2	356.550	-0.060	-0.560	-0.230
2020/01/31 17:58:10.3	356.560	-0.080	-0.570	-0.290
2020/01/31 17:58:10.4	356.560	-0.110	-0.570	-0.340
2020/01/31 17:58:10.5	356.560	-0.140	-0.570	-0.400
2020/01/31 17:58:10.6	356.560	-0.170	-0.560	-0.450
2020/01/31 17:58:10.7	356.560	-0.200	-0.550	-0.510
2020/01/31 17:58:10.8	356.560	-0.230	-0.540	-0.560
2020/01/31 17:58:10.9	356.560	-0.260	-0.520	-0.610
2020/01/31 17:58:11.0	356.560	-0.300	-0.490	-0.660
2020/01/31 17:58:11.1	356.560	-0.330	-0.460	-0.710
2020/01/31 17:58:11.2	356.560	-0.360	-0.420	-0.750
2020/01/31 17:58:11.3	356.550	-0.390	-0.380	-0.790
2020/01/31 17:58:11.4	356.550	-0.420	-0.340	-0.820
2020/01/31 17:58:11.5	356.550	-0.450	-0.290	-0.850
2020/01/31 17:58:11.6	356.540	-0.480	-0.240	-0.880
2020/01/31 17:58:11.7	356.540	-0.500	-0.190	-0.900
2020/01/31 17:58:11.8	356.530	-0.520	-0.130	-0.920
2020/01/31 17:58:11.9	356.530	-0.540	-0.080	-0.930
2020/01/31 17:58:12.0	356.520	-0.550	-0.030	-0.940
2020/01/31 17:58:12.1	356.520	-0.560	0.020	-0.940
2020/01/31 17:58:12.2	356.520	-0.570	0.070	-0.940
2020/01/31 17:58:12.3	356.520	-0.570	0.110	-0.930
2020/01/31 17:58:12.4	356.520	-0.570	0.150	-0.920
2020/01/31 17:58:12.5	356.520	-0.560	0.190	-0.910
2020/01/31 17:58:12.6	356.520	-0.540	0.220	-0.890
2020/01/31 17:58:12.7	356.520	-0.520	0.250	-0.860
2020/01/31 17:58:12.8	356.520	-0.500	0.260	-0.830
2020/01/31 17:58:12.9	356.520	-0.470	0.280	-0.800
2020/01/31 17:58:13.0	356.530	-0.440	0.280	-0.770
2020/01/31 17:58:13.1	356.530	-0.400	0.280	-0.730
2020/01/31 17:58:13.2	356.540	-0.350	0.270	-0.690
2020/01/31 17:58:13.3	356.550	-0.300	0.260	-0.650
2020/01/31 17:58:13.4	356.550	-0.250	0.230	-0.610
2020/01/31 17:58:13.5	356.560	-0.190	0.200	-0.570
2020/01/31 17:58:13.6	356.570	-0.130	0.160	-0.520
2020/01/31 17:58:13.7	356.580	-0.070	0.120	-0.480
2020/01/31 17:58:13.8	356.580	-0.010	0.070	-0.440
2020/01/31 17:58:13.9	356.590	0.060	0.020	-0.390
2020/01/31 17:58:14.0	356.600	0.130	-0.040	-0.350
2020/01/31 17:58:14.1	356.610	0.190	-0.110	-0.310
2020/01/31 17:58:14.2	356.620	0.260	-0.180	-0.270
2020/01/31 17:58:14.3	356.630	0.330	-0.250	-0.230
2020/01/31 17:58:14.4	356.640	0.400	-0.320	-0.200
2020/01/31 17:58:14.5	356.650	0.460	-0.390	-0.160
2020/01/31 17:58:14.6	356.650	0.530	-0.470	-0.120
2020/01/31 17:58:14.7	356.660	0.590	-0.540	-0.090
2020/01/31 17:58:14.8	356.660	0.650	-0.620	-0.060
2020/01/31 17:58:14.9	356.670	0.700	-0.690	-0.020
2020/01/31 17:58:15.0	356.680	0.760	-0.760	0.010
2020/01/31 17:58:15.1	356.680	0.800	-0.830	0.040
2020/01/31 17:58:15.2	356.690	0.850	-0.900	0.080
2020/01/31 17:58:15.3	356.690	0.890	-0.960	0.110
2020/01/31 17:58:15.4	356.690	0.920	-1.010	0.140
2020/01/31 17:58:15.5	356.700	0.950	-1.070	0.170
2020/01/31 17:58:15.6	356.700	0.970	-1.110	0.200
2020/01/31 17:58:15.7	356.700	0.990	-1.150	0.230
2020/01/31 17:58:15.8	356.710	1.000	-1.180	0.260
2020/01/31 17:58:15.9	356.710	1.000	-1.210	0.290
2020/01/31 17:58:16.0	356.720	1.000	-1.230	0.320
2020/01/31 17:58:16.1	356.720	0.990	-1.240	0.340
2020/01/31 17:58:16.2	356.720	0.980	-1.250	0.360
2020/01/31 17:58:16.3	356.730	0.960	-1.250	0.380
2020/01/31 17:58:16.4	356.730	0.940	-1.240	0.390
2020/01/31 17:58:16.5	356.740	0.900	-1.230	0.400
2020/01/31 17:58:16.6	356.740	0.870	-1.210	0.400
2020/01/31 17:58:16.7	356.750	0.830	-1.190	0.400
2020/01/31 17:58:16.8	356.770	0.780	-1.160	0.390
2020/01/31 17:58:16.9	356.780	0.730	-1.130	0.370
2020/01/31 17:58:17.0	356.800	0.680	-1.090	0.350
2020/01/31 17:58:17.1	356.820	0.620	-1.050	0.320
2020/01/31 17:58:17.2	356.840	0.560	-1.010	0.290
2020/01/31 17:58:17.3	356.860	0.500	-0.960	0.250
2020/01/31 17:58:17.4	356.880	0.440	-0.910	0.210
2020/01/31 17:58:17.5	356.910	0.370	-0.860	0.170
2020/01/31 17:58:17.6	356.930	0.300	-0.800	0.120
2020/01/31 17:58:17.7	356.960	0.230	-0.750	0.060
2020/01/31 17:58:17.8	356.990	0.170	-0.690	0.010
2020/01/31 17:58:17.9	357.020	0.100	-0.630	-0.050
2020/01/31 17:58:18.0	357.050	0.030	-0.580	-0.120
2020/01/31 17:58:18.1	357.080	-0.040	-0.520	-0.180
2020/01/31 17:58:18.2	357.110	-0.100	-0.460	-0.240
2020/01/31 17:58:18.3	357.140	-0.170	-0.410	-0.310
2020/01/31 17:58:18.4	357.180	-0.230	-0.350	-0.380
2020/01/31 17:58:18.5	357.210	-0.290	-0.290	-0.440
2020/01/31 17:58:18.6	357.240	-0.350	-0.240	-0.510
2020/01/31 17:58:18.7	357.270	-0.410	-0.180	-0.570
2020/01/31 17:58:18.8	357.300	-0.460	-0.130	-0.640
2020/01/31 17:58:18.9	357.330	-0.510	-0.070	-0.700
2020/01/31 17:58:19.0	357.360	-0.550	-0.020	-0.760
2020/01/31 17:58:19.1	357.390	-0.590	0.040	-0.820
2020/01/31 17:58:19.2	357.420	-0.630	0.090	-0.870
2020/01/31 17:58:19.3	357.450	-0.670	0.140	-0.920
2020/01/31 17:58:19.4	357.470	-0.690	0.190	-0.960
2020/01/31 17:58:19.5	357.500	-0.720	0.240	-1.000
2020/01/31 17:58:19.6	357.520	-0.740	0.290	-1.030
2020/01/31 17:58:19.7	357.540	-0.750	0.330	-1.060
2020/01/31 17:58:19.8	357.550	-0.760	0.380	-1.080
2020/01/31 17:58:19.9	357.570	-0.770	0.420	-1.100
2020/01/31 17:58:20.0	357.590	-0.770	0.470	-1.110
2020/01/31 17:58:20.1	357.600	-0.770	0.500	-1.110
2020/01/31 17:58:20.2	357.610	-0.760	0.540	-1.100
2020/01/31 17:58:20.3	357.620	-0.740	0.570	-1.090
2020/01/31 17:58:20.4	357.630	-0.730	0.610	-1.080
2020/01/31 17:58:20.5	357.640	-0.700	0.640	-1.060
2020/01/31 17:58:20.6	357.650	-0.680	0.660	-1.030
2020/01/31 17:58:20.7	357.650	-0.650	0.680	-1.010
2020/01/31 17:58:20.8	357.670	-0.620	0.700	-0.970
2020/01/31 17:58:20.9	357.670	-0.580	0.710	-0.940
2020/01/31 17:58:21.0	357.670	-0.540	0.720	-0.900
2020/01/31 17:58:21.1	357.680	-0.500	0.720	-0.860
2020/01/31 17:58:21.2	357.670	-0.460	0.720	-0.820
2020/01/31 17:58:21.3	357.670	-0.410	0.720	-0.770
2020/01/31 17:58:21.4	357.670	-0.370	0.710	-0.730
2020/01/31 17:58:21.5	357.660	-0.320	0.700	-0.680
2020/01/31 17:58:21.6	357.650	-0.280	0.690	-0.630
2020/01/31 17:58:21.7	357.640	-0.230	0.670	-0.570
2020/01/31 17:58:21.8	357.630	-0.190	0.650	-0.520
2020/01/31 17:58:21.9	357.610	-0.150	0.620	-0.460
2020/01/31 17:58:22.0	357.590	-0.110	0.600	-0.400
2020/01/31 17:58:22.1	357.570	-0.070	0.570	-0.340
2020/01/31 17:58:22.2	357.540	-0.030	0.530	-0.280
2020/01/31 17:58:22.3	357.510	0.010	0.500	-0.220
2020/01/31 17:58:22.4	357.480	0.040	0.460	-0.160
2020/01/31 17:58:22.5	357.450	0.070	0.430	-0.100
2020/01/31 17:58:22.6	357.410	0.090	0.390	-0.040
2020/01/31 17:58:22.7	357.370	0.120	0.350	0.020
2020/01/31 17:58:22.8	357.340	0.140	0.310	0.080
2020/01/31 17:58:22.9	357.290	0.150	0.270	0.130
2020/01/31 17:58:23.0	357.250	0.160	0.230	0.190
2020/01/31 17:58:23.1	357.200	0.170	0.200	0.240
2020/01/31 17:58:23.2	357.150	0.180	0.160	0.290
2020/01/31 17:58:23.3	357.100	0.180	0.120	0.330
2020/01/31 17:58:23.4	357.050	0.180	0.080	0.370
2020/01/31 17:58:23.5	357.000	0.180	0.030	0.410
2020/01/31 17:58:23.6	356.950	0.170	-0.010	0.440
2020/01/31 17:58:23.7	356.900	0.160	-0.050	0.470
2020/01/31 17:58:23.8	356.860	0.150	-0.090	0.480
2020/01/31 17:58:23.9	356.820	0.130	-0.140	0.500
2020/01/31 17:58:24.0	356.770	0.120	-0.190	0.500
2020/01/31 17:58:24.1	356.740	0.100	-0.240	0.500
2020/01/31 17:58:24.2	356.700	0.080	-0.290	0.490
2020/01/31 17:58:24.3	356.670	0.060	-0.340	0.480
2020/01/31 17:58:24.4	356.640	0.040	-0.390	0.460
2020/01/31 17:58:24.5	356.620	0.020	-0.450	0.430
2020/01/31 17:58:24.6	356.600	0.000	-0.510	0.400
2020/01/31 17:58:24.7	356.590	-0.020	-0.570	0.350
2020/01/31 17:58:24.8	356.580	-0.030	-0.630	0.310
2020/01/31 17:58:24.9	356.580	-0.050	-0.690	0.250
2020/01/31 17:58:25.0	356.580	-0.070	-0.750	0.200
2020/01/31 17:58:25.1	356.580	-0.080	-0.810	0.130
2020/01/31 17:58:25.2	356.590	-0.090	-0.880	0.060
2020/01/31 17:58:25.3	356.610	-0.100	-0.940	-0.010
2020/01/31 17:58:25.4	356.630	-0.110	-1.000	-0.090
2020/01/31 17:58:25.5	356.660	-0.110	-1.060	-0.170
2020/01/31 17:58:25.6	356.690	-0.110	-1.120	-0.260
2020/01/31 17:58:25.7	356.720	-0.110	-1.180	-0.340
2020/01/31 17:58:25.8	356.760	-0.110	-1.240	-0.450
2020/01/31 17:58:25.9	356.800	-0.100	-1.290	-0.540
2020/01/31 17:58:26.0	356.850	-0.090	-1.340	-0.630
2020/01/31 17:58:26.1	356.900	-0.080	-1.390	-0.720
2020/01/31 17:58:26.2	356.950	-0.070	-1.430	-0.810
2020/01/31 17:58:26.3	357.010	-0.050	-1.470	-0.900
2020/01/31 17:58:26.4	357.070	-0.030	-1.500	-0.980
2020/01/31 17:58:26.5	357.130	-0.010	-1.530	-1.060
2020/01/31 17:58:26.6	357.200	0.010	-1.550	-1.140
2020/01/31 17:58:26.7	357.260	0.030	-1.560	-1.210
2020/01/31 17:58:26.8	357.330	0.050	-1.560	-1.280
2020/01/31 17:58:26.9	357.400	0.080	-1.560	-1.340
2020/01/31 17:58:27.0	357.460	0.100	-1.550	-1.390
2020/01/31 17:58:27.1	357.530	0.130	-1.540	-1.430
2020/01/31 17:58:27.2	357.600	0.150	-1.520	-1.470
2020/01/31 17:58:27.3	357.660	0.180	-1.490	-1.510
2020/01/31 17:58:27.4	357.730	0.200	-1.450	-1.530
2020/01/31 17:58:27.5	357.800	0.220	-1.410	-1.550
2020/01/31 17:58:27.6	357.860	0.240	-1.360	-1.560
2020/01/31 17:58:27.7	357.920	0.260	-1.310	-1.560
2020/01/31 17:58:27.8	357.970	0.280	-1.250	-1.550
2020/01/31 17:58:27.9	358.030	0.300	-1.190	-1.540
2020/01/31 17:58:28.0	358.080	0.320	-1.120	-1.530
2020/01/31 17:58:28.1	358.140	0.330	-1.050	-1.500
2020/01/31 17:58:28.2	358.190	0.350	-0.970	-1.480
2020/01/31 17:58:28.3	358.230	0.360	-0.890	-1.440
2020/01/31 17:58:28.4	358.280	0.370	-0.810	-1.400
2020/01/31 17:58:28.5	358.320	0.370	-0.730	-1.360
2020/01/31 17:58:28.6	358.360	0.380	-0.650	-1.310
2020/01/31 17:58:28.7	358.390	0.380	-0.560	-1.260
2020/01/31 17:58:28.8	358.420	0.380	-0.480	-1.200
2020/01/31 17:58:28.9	358.440	0.380	-0.390	-1.140
2020/01/31 17:58:29.0	358.460	0.380	-0.310	-1.080
2020/01/31 17:58:29.1	358.480	0.370	-0.230	-1.010
2020/01/31 17:58:29.2	358.490	0.360	-0.150	-0.940
2020/01/31 17:58:29.3	358.500	0.350	-0.070	-0.870
2020/01/31 17:58:29.4	358.500	0.340	0.010	-0.800
2020/01/31 17:58:29.5	358.500	0.330	0.090	-0.730
2020/01/31 17:58:29.6	358.500	0.310	0.170	-0.650
2020/01/31 17:58:29.7	358.490	0.290	0.240	-0.580
2020/01/31 17:58:29.8	358.470	0.270	0.310	-0.510
2020/01/31 17:58:29.9	358.460	0.250	0.370	-0.430
2020/01/31 17:58:30.0	358.440	0.230	0.430	-0.360
2020/01/31 17:58:30.1	358.420	0.210	0.490	-0.280
2020/01/31 17:58:30.2	358.400	0.180	0.550	-0.210
2020/01/31 17:58:30.3	358.370	0.160	0.600	-0.140
2020/01/31 17:58:30.4	358.340	0.130	0.650	-0.070
2020/01/31 17:58:30.5	358.310	0.100	0.690	-0.010
2020/01/31 17:58:30.6	358.280	0.070	0.730	0.050
2020/01/31 17:58:30.7	358.250	0.050	0.760	0.110
2020/01/31 17:58:30.8	358.230	0.020	0.790	0.160
2020/01/31 17:58:30.9	358.200	-0.010	0.810	0.210
2020/01/31 17:58:31.0	358.160	-0.040	0.830	0.250
2020/01/31 17:58:31.1	358.130	-0.070	0.840	0.290
2020/01/31 17:58:31.2	358.090	-0.090	0.850	0.330
2020/01/31 17:58:31.3	358.060	-0.120	0.860	0.360
2020/01/31 17:58:31.4	358.020	-0.150	0.860	0.390
2020/01/31 17:58:31.5	357.980	-0.170	0.860	0.410
2020/01/31 17:58:31.6	357.950	-0.190	0.850	0.430
2020/01/31 17:58:31.7	357.910	-0.210	0.840	0.450
2020/01/31 17:58:31.8	357.890	-0.230	0.830	0.460
2020/01/31 17:58:31.9	357.850	-0.250	0.810	0.470
2020/01/31 17:58:32.0	357.810	-0.260	0.790	0.480
2020/01/31 17:58:32.1	357.770	-0.270	0.770	0.490
2020/01/31 17:58:32.2	357.740	-0.280	0.750	0.490
2020/01/31 17:58:32.3	357.700	-0.290	0.730	0.500
2020/01/31 17:58:32.4	357.660	-0.290	0.700	0.510
2020/01/31 17:58:32.5	357.630	-0.290	0.680	0.510
2020/01/31 17:58:32.6	357.590	-0.290	0.650	0.520
2020/01/31 17:58:32.7	357.560	-0.290	0.620	0.520
2020/01/31 17:58:32.8	357.520	-0.280	0.590	0.520
2020/01/31 17:58:32.9	357.490	-0.270	0.560	0.530
2020/01/31 17:58:33.0	357.460	-0.250	0.530	0.530
2020/01/31 17:58:33.1	357.430	-0.240	0.490	0.530
2020/01/31 17:58:33.2	357.400	-0.220	0.460	0.530
2020/01/31 17:58:33.3	357.380	-0.200	0.420	0.530
2020/01/31 17:58:33.4	357.350	-0.170	0.370	0.530
2020/01/31 17:58:33.5	357.330	-0.150	0.330	0.530
2020/01/31 17:58:33.6	357.310	-0.120	0.280	0.530
2020/01/31 17:58:33.7	357.290	-0.090	0.230	0.530
2020/01/31 17:58:33.8	357.280	-0.060	0.180	0.520
2020/01/31 17:58:33.9	357.260	-0.030	0.130	0.510
2020/01/31 17:58:34.0	357.240	0.010	0.070	0.500
2020/01/31 17:58:34.1	357.220	0.040	0.010	0.490
2020/01/31 17:58:34.2	357.210	0.070	-0.050	0.480
2020/01/31 17:58:34.3	357.190	0.110	-0.120	0.470
2020/01/31 17:58:34.4	357.180	0.140	-0.180	0.450
2020/01/31 17:58:34.5	357.160	0.170	-0.250	0.430
2020/01/31 17:58:34.6	357.150	0.200	-0.320	0.410
2020/01/31 17:58:34.7	357.140	0.220	-0.380	0.380
2020/01/31 17:58:34.8	357.130	0.250	-0.460	0.360
2020/01/31 17:58:34.9	357.130	0.270	-0.530	0.320
2020/01/31 17:58:35.0	357.120	0.280	-0.600	0.290
2020/01/31 17:58:35.1	357.120	0.300	-0.670	0.250
2020/01/31 17:58:35.2	357.120	0.310	-0.740	0.210
2020/01/31 17:58:35.3	357.120	0.320	-0.810	0.160
2020/01/31 17:58:35.4	357.130	0.320	-0.870	0.110
2020/01/31 17:58:35.5	357.140	0.320	-0.940	0.060
2020/01/31 17:58:35.6	357.160	0.320	-1.000	0.010
2020/01/31 17:58:35.7	357.170	0.310	-1.070	-0.050
2020/01/31 17:58:35.8	357.200	0.300	-1.120	-0.110
2020/01/31 17:58:35.9	357.230	0.280	-1.180	-0.180
2020/01/31 17:58:36.0	357.260	0.260	-1.230	-0.240
2020/01/31 17:58:36.1	357.290	0.240	-1.280	-0.310
2020/01/31 17:58:36.2	357.330	0.210	-1.320	-0.380
2020/01/31 17:58:36.3	357.370	0.180	-1.360	-0.450
2020/01/31 17:58:36.4	357.420	0.150	-1.390	-0.520
2020/01/31 17:58:36.5	357.470	0.120	-1.420	-0.590
2020/01/31 17:58:36.6	357.520	0.080	-1.450	-0.670
2020/01/31 17:58:36.7	357.580	0.040	-1.470	-0.740
2020/01/31 17:58:36.8	357.630	0.010	-1.480	-0.820
2020/01/31 17:58:36.9	357.690	-0.030	-1.490	-0.900
2020/01/31 17:58:37.0	357.760	-0.070	-1.500	-0.970
2020/01/31 17:58:37.1	357.820	-0.110	-1.490	-1.050
2020/01/31 17:58:37.2	357.890	-0.150	-1.490	-1.110
2020/01/31 17:58:37.3	357.960	-0.190	-1.480	-1.180
2020/01/31 17:58:37.4	358.030	-0.230	-1.460	-1.240
2020/01/31 17:58:37.5	358.090	-0.260	-1.430	-1.300
2020/01/31 17:58:37.6	358.160	-0.300	-1.400	-1.350
2020/01/31 17:58:37.7	358.230	-0.330	-1.360	-1.400
2020/01/31 17:58:37.8	358.290	-0.350	-1.320	-1.450
2020/01/31 17:58:37.9	358.360	-0.380	-1.260	-1.480
2020/01/31 17:58:38.0	358.420	-0.400	-1.210	-1.510
2020/01/31 17:58:38.1	358.480	-0.420	-1.140	-1.530
2020/01/31 17:58:38.2	358.530	-0.440	-1.070	-1.550
2020/01/31 17:58:38.3	358.580	-0.450	-1.000	-1.560
2020/01/31 17:58:38.4	358.630	-0.460	-0.910	-1.560
2020/01/31 17:58:38.5	358.680	-0.470	-0.830	-1.550
2020/01/31 17:58:38.6	358.720	-0.470	-0.740	-1.540
2020/01/31 17:58:38.7	358.760	-0.470	-0.650	-1.520
2020/01/31 17:58:38.8	358.780	-0.470	-0.550	-1.500
2020/01/31 17:58:38.9	358.810	-0.460	-0.450	-1.470
2020/01/31 17:58:39.0	358.840	-0.450	-0.360	-1.440
2020/01/31 17:58:39.1	358.860	-0.440	-0.260	-1.400
2020/01/31 17:58:39.2	358.880	-0.430	-0.160	-1.360
2020/01/31 17:58:39.3	358.890	-0.410	-0.060	-1.310
2020/01/31 17:58:39.4	358.890	-0.390	0.030	-1.260
2020/01/31 17:58:39.5	358.900	-0.370	0.130	-1.210
2020/01/31 17:58:39.6	358.900	-0.350	0.210	-1.150
2020/01/31 17:58:39.7	358.890	-0.330	0.300	-1.080
2020/01/31 17:58:39.8	358.880	-0.300	0.380	-1.020
2020/01/31 17:58:39.9	358.860	-0.280	0.450	-0.940
2020/01/31 17:58:40.0	358.840	-0.250	0.510	-0.870
2020/01/31 17:58:40.1	358.820	-0.220	0.570	-0.790
2020/01/31 17:58:40.2	358.790	-0.190	0.620	-0.710
2020/01/31 17:58:40.3	358.770	-0.170	0.660	-0.630
2020/01/31 17:58:40.4	358.740	-0.140	0.700	-0.540
2020/01/31 17:58:40.5	358.700	-0.110	0.720	-0.460
2020/01/31 17:58:40.6	358.670	-0.080	0.740	-0.380
2020/01/31 17:58:40.7	358.640	-0.050	0.750	-0.290
2020/01/31 17:58:40.8	358.620	-0.020	0.750	-0.210
2020/01/31 17:58:40.9	358.580	0.010	0.740	-0.130
2020/01/31 17:58:41.0	358.550	0.030	0.730	-0.050
2020/01/31 17:58:41.1	358.510	0.060	0.710	0.020
2020/01/31 17:58:41.2	358.480	0.080	0.680	0.090
2020/01/31 17:58:41.3	358.440	0.110	0.640	0.150
2020/01/31 17:58:41.4	358.410	0.130	0.600	0.210
2020/01/31 17:58:41.5	358.380	0.150	0.550	0.260
2020/01/31 17:58:41.6	358.350	0.170	0.500	0.310
2020/01/31 17:58:41.7	358.310	0.190	0.450	0.350
2020/01/31 17:58:41.8	358.280	0.210	0.400	0.390
2020/01/31 17:58:41.9	358.250	0.230	0.340	0.420
2020/01/31 17:58:42.0	358.230	0.240	0.280	0.440
2020/01/31 17:58:42.1	358.200	0.260	0.210	0.460
2020/01/31 17:58:42.2	358.170	0.270	0.150	0.470
2020/01/31 17:58:42.3	358.150	0.290	0.090	0.480
2020/01/31 17:58:42.4	358.130	0.300	0.030	0.490
2020/01/31 17:58:42.5	358.110	0.320	-0.020	0.490
2020/01/31 17:58:42.6	358.080	0.330	-0.080	0.490
2020/01/31 17:58:42.7	358.060	0.340	-0.130	0.490
2020/01/31 17:58:42.8	358.040	0.350	-0.170	0.480
2020/01/31 17:58:42.9	358.020	0.360	-0.210	0.480
2020/01/31 17:58:43.0	358.000	0.370	-0.250	0.470
2020/01/31 17:58:43.1	357.980	0.380	-0.280	0.470
2020/01/31 17:58:43.2	357.970	0.390	-0.310	0.460
2020/01/31 17:58:43.3	357.950	0.400	-0.330	0.460
2020/01/31 17:58:43.4	357.930	0.410	-0.350	0.450
2020/01/31 17:58:43.5	357.920	0.410	-0.360	0.450
2020/01/31 17:58:43.6	357.910	0.420	-0.370	0.440
2020/01/31 17:58:43.7	357.890	0.420	-0.370	0.430
2020/01/31 17:58:43.8	357.890	0.420	-0.370	0.420
2020/01/31 17:58:43.9	357.890	0.420	-0.380	0.410
2020/01/31 17:58:44.0	357.880	0.420	-0.370	0.400
2020/01/31 17:58:44.1	357.880	0.420	-0.370	0.390
2020/01/31 17:58:44.2	357.880	0.420	-0.370	0.370
2020/01/31 17:58:44.3	357.890	0.420	-0.360	0.350
2020/01/31 17:58:44.4	357.900	0.410	-0.360	0.320
2020/01/31 17:58:44.5	357.910	0.400	-0.360	0.300
2020/01/31 17:58:44.6	357.920	0.390	-0.360	0.260
2020/01/31 17:58:44.7	357.940	0.380	-0.350	0.230
2020/01/31 17:58:44.8	357.940	0.370	-0.360	0.190
2020/01/31 17:58:44.9	357.970	0.360	-0.360	0.140
2020/01/31 17:58:45.0	357.990	0.340	-0.360	0.090
2020/01/31 17:58:45.1	358.020	0.330	-0.370	0.040
2020/01/31 17:58:45.2	358.050	0.310	-0.380	-0.010
2020/01/31 17:58:45.3	358.090	0.290	-0.380	-0.070
2020/01/31 17:58:45.4	358.120	0.270	-0.390	-0.130
2020/01/31 17:58:45.5	358.150	0.240	-0.400	-0.190
2020/01/31 17:58:45.6	358.190	0.220	-0.420	-0.250
2020/01/31 17:58:45.7	358.220	0.190	-0.430	-0.310
2020/01/31 17:58:45.8	358.250	0.160	-0.440	-0.370
2020/01/31 17:58:45.9	358.280	0.130	-0.450	-0.430
2020/01/31 17:58:46.0	358.310	0.100	-0.460	-0.480
2020/01/31 17:58:46.1	358.340	0.070	-0.470	-0.530
2020/01/31 17:58:46.2	358.370	0.040	-0.480	-0.580
2020/01/31 17:58:46.3	358.400	0.010	-0.480	-0.630
2020/01/31 17:58:46.4	358.420	-0.030	-0.480	-0.670
2020/01/31 17:58:46.5	358.450	-0.060	-0.480	-0.700
2020/01/31 17:58:46.6	358.470	-0.100	-0.470	-0.740
2020/01/31 17:58:46.7	358.490	-0.130	-0.460	-0.760
2020/01/31 17:58:46.8	358.500	-0.170	-0.450	-0.790
2020/01/31 17:58:46.9	358.510	-0.200	-0.440	-0.810
2020/01/31 17:58:47.0	358.520	-0.240	-0.420	-0.830
2020/01/31 17:58:47.1	358.540	-0.270	-0.390	-0.840
2020/01/31 17:58:47.2	358.540	-0.300	-0.370	-0.850
2020/01/31 17:58:47.3	358.550	-0.330	-0.340	-0.850
2020/01/31 17:58:47.4	358.560	-0.370	-0.310	-0.850
2020/01/31 17:58:47.5	358.560	-0.390	-0.270	-0.850
2020/01/31 17:58:47.6	358.560	-0.420	-0.240	-0.850
2020/01/31 17:58:47.7	358.560	-0.450	-0.200	-0.840
2020/01/31 17:58:47.8	358.550	-0.470	-0.170	-0.830
2020/01/31 17:58:47.9	358.550	-0.500	-0.130	-0.820
2020/01/31 17:58:48.0	358.540	-0.520	-0.100	-0.800
2020/01/31 17:58:48.1	358.530	-0.530	-0.070	-0.780
2020/01/31 17:58:48.2	358.520	-0.550	-0.040	-0.760
2020/01/31 17:58:48.3	358.510	-0.560	-0.010	-0.740
2020/01/31 17:58:48.4	358.500	-0.570	0.010	-0.720
2020/01/31 17:58:48.5	358.490	-0.580	0.030	-0.690
2020/01/31 17:58:48.6	358.470	-0.580	0.050	-0.670
2020/01/31 17:58:48.7	358.460	-0.580	0.060	-0.640
2020/01/31 17:58:48.8	358.440	-0.580	0.070	-0.610
2020/01/31 17:58:48.9	358.430	-0.570	0.070	-0.590
2020/01/31 17:58:49.0	358.410	-0.560	0.070	-0.560
2020/01/31 17:58:49.1	358.390	-0.550	0.060	-0.530
2020/01/31 17:58:49.2	358.380	-0.530	0.040	-0.500
2020/01/31 17:58:49.3	358.360	-0.510	0.020	-0.480
2020/01/31 17:58:49.4	358.340	-0.490	0.000	-0.450
2020/01/31 17:58:49.5	358.330	-0.460	-0.030	-0.420
2020/01/31 17:58:49.6	358.310	-0.430	-0.060	-0.390
2020/01/31 17:58:49.7	358.290	-0.400	-0.100	-0.360
2020/01/31 17:58:49.8	358.280	-0.370	-0.140	-0.340
2020/01/31 17:58:49.9	358.270	-0.330	-0.180	-0.310
2020/01/31 17:58:50.0	358.250	-0.290	-0.230	-0.280
2020/01/31 17:58:50.1	358.240	-0.240	-0.280	-0.250
2020/01/31 17:58:50.2	358.230	-0.200	-0.330	-0.230
2020/01/31 17:58:50.3	358.220	-0.150	-0.380	-0.200
2020/01/31 17:58:50.4	358.210	-0.110	-0.430	-0.180
2020/01/31 17:58:50.5	358.200	-0.060	-0.480	-0.150
2020/01/31 17:58:50.6	358.200	-0.010	-0.530	-0.130
2020/01/31 17:58:50.7	358.190	0.030	-0.580	-0.110
2020/01/31 17:58:50.8	358.190	0.080	-0.630	-0.100
2020/01/31 17:58:50.9	358.190	0.130	-0.670	-0.080
2020/01/31 17:58:51.0	358.190	0.170	-0.710	-0.070
2020/01/31 17:58:51.1	358.190	0.210	-0.750	-0.050
2020/01/31 17:58:51.2	358.190	0.250	-0.780	-0.040
2020/01/31 17:58:51.3	358.190	0.290	-0.810	-0.030
2020/01/31 17:58:51.4	358.190	0.320	-0.830	-0.020
2020/01/31 17:58:51.5	358.190	0.360	-0.840	-0.010
2020/01/31 17:58:51.6	358.200	0.380	-0.850	-0.000
2020/01/31 17:58:51.7	358.200	0.410	-0.850	0.000
2020/01/31 17:58:51.8	358.210	0.430	-0.850	0.010
2020/01/31 17:58:51.9	358.210	0.440	-0.840	0.020
2020/01/31 17:58:52.0	358.220	0.450	-0.820	0.020
2020/01/31 17:58:52.1	358.220	0.460	-0.800	0.030
2020/01/31 17:58:52.2	358.230	0.470	-0.780	0.030
2020/01/31 17:58:52.3	358.240	0.460	-0.740	0.040
2020/01/31 17:58:52.4	358.250	0.460	-0.710	0.040
2020/01/31 17:58:52.5	358.260	0.450	-0.670	0.050
2020/01/31 17:58:52.6	358.270	0.440	-0.630	0.050
2020/01/31 17:58:52.7	358.280	0.420	-0.590	0.050
2020/01/31 17:58:52.8	358.290	0.410	-0.540	0.050
2020/01/31 17:58:52.9	358.310	0.380	-0.490	0.050
2020/01/31 17:58:53.0	358.320	0.360	-0.440	0.050
2020/01/31 17:58:53.1	358.340	0.330	-0.390	0.050
2020/01/31 17:58:53.2	358.360	0.310	-0.340	0.050
2020/01/31 17:58:53.3	358.380	0.280	-0.290	0.040
2020/01/31 17:58:53.4	358.410	0.250	-0.250	0.030
2020/01/31 17:58:53.5	358.430	0.220	-0.200	0.020
2020/01/31 17:58:53.6	358.460	0.180	-0.160	0.000
2020/01/31 17:58:53.7	358.490	0.150	-0.120	-0.010
2020/01/31 17:58:53.8	358.530	0.120	-0.080	-0.040
2020/01/31 17:58:53.9	358.560	0.090	-0.050	-0.070
2020/01/31 17:58:54.0	358.590	0.060	-0.030	-0.090
2020/01/31 17:58:54.1	358.620	0.030	-0.000	-0.120
2020/01/31 17:58:54.2	358.660	0.010	0.020	-0.160
2020/01/31 17:58:54.3	358.690	-0.020	0.030	-0.190
2020/01/31 17:58:54.4	358.720	-0.040	0.050	-0.220
2020/01/31 17:58:54.5	358.760	-0.060	0.050	-0.260
2020/01/31 17:58:54.6	358.790	-0.080	0.060	-0.290
2020/01/31 17:58:54.7	358.820	-0.100	0.060	-0.320
2020/01/31 17:58:54.8	358.830	-0.110	0.060	-0.360
2020/01/31 17:58:54.9	358.860	-0.120	0.060	-0.390
2020/01/31 17:58:55.0	358.880	-0.130	0.060	-0.420
2020/01/31 17:58:55.1	358.900	-0.140	0.050	-0.440
2020/01/31 17:58:55.2	358.910	-0.150	0.050	-0.460
2020/01/31 17:58:55.3	358.920	-0.150	0.050	-0.480
2020/01/31 17:58:55.4	358.930	-0.160	0.040	-0.490
2020/01/31 17:58:55.5	358.940	-0.160	0.040	-0.510
2020/01/31 17:58:55.6	358.940	-0.160	0.040	-0.510
2020/01/31 17:58:55.7	358.940	-0.160	0.040	-0.520
2020/01/31 17:58:55.8	358.940	-0.160	0.040	-0.520
2020/01/31 17:58:55.9	358.930	-0.160	0.050	-0.520
2020/01/31 17:58:56.0	358.920	-0.160	0.060	-0.520
2020/01/31 17:58:56.1	358.900	-0.160	0.070	-0.510
2020/01/31 17:58:56.2	358.880	-0.150	0.080	-0.490
2020/01/31 17:58:56.3	358.850	-0.150	0.090	-0.480
2020/01/31 17:58:56.4	358.820	-0.150	0.100	-0.460
2020/01/31 17:58:56.5	358.790	-0.150	0.120	-0.440
2020/01/31 17:58:56.6	358.760	-0.150	0.140	-0.410
2020/01/31 17:58:56.7	358.720	-0.150	0.160	-0.390
2020/01/31 17:58:56.8	358.680	-0.150	0.170	-0.360
2020/01/31 17:58:56.9	358.640	-0.150	0.190	-0.330
2020/01/31 17:58:57.0	358.590	-0.150	0.210	-0.300
2020/01/31 17:58:57.1	358.540	-0.150	0.230	-0.270
2020/01/31 17:58:57.2	358.480	-0.150	0.250	-0.230
2020/01/31 17:58:57.3	358.430	-0.160	0.270	-0.200
2020/01/31 17:58:57.4	358.370	-0.160	0.280	-0.170
2020/01/31 17:58:57.5	358.320	-0.170	0.290	-0.130
2020/01/31 17:58:57.6	358.260	-0.170	0.310	-0.100
2020/01/31 17:58:57.7	358.200	-0.170	0.320	-0.070
2020/01/31 17:58:57.8	358.150	-0.180	0.320	-0.040
2020/01/31 17:58:57.9	358.100	-0.180	0.320	-0.010
2020/01/31 17:58:58.0	358.040	-0.180	0.320	0.020
2020/01/31 17:58:58.1	357.990	-0.180	0.320	0.040
2020/01/31 17:58:58.2	357.940	-0.180	0.310	0.070
2020/01/31 17:58:58.3	357.890	-0.180	0.300	0.090
2020/01/31 17:58:58.4	357.840	-0.170	0.290	0.110
2020/01/31 17:58:58.5	357.790	-0.170	0.270	0.130
2020/01/31 17:58:58.6	357.750	-0.160	0.250	0.140
2020/01/31 17:58:58.7	357.710	-0.150	0.220	0.160
2020/01/31 17:58:58.8	357.670	-0.140	0.190	0.170
2020/01/31 17:58:58.9	357.630	-0.130	0.160	0.180
2020/01/31 17:58:59.0	357.610	-0.110	0.120	0.190
2020/01/31 17:58:59.1	357.580	-0.090	0.080	0.190
2020/01/31 17:58:59.2	357.560	-0.070	0.030	0.200
2020/01/31 17:58:59.3	357.550	-0.040	-0.020	0.200
2020/01/31 17:58:59.4	357.530	-0.010	-0.070	0.200
2020/01/31 17:58:59.5	357.530	0.020	-0.130	0.190
2020/01/31 17:58:59.6	357.520	0.050	-0.180	0.190
2020/01/31 17:58:59.7	357.520	0.080	-0.240	0.180
2020/01/31 17:58:59.8	357.520	0.120	-0.300	0.170
2020/01/31 17:58:59.9	357.530	0.160	-0.360	0.160
2020/01/31 17:59:00.0	357.540	0.190	-0.430	0.140
2020/01/31 17:59:00.1	357.560	0.230	-0.490	0.130
2020/01/31 17:59:00.2	357.570	0.270	-0.550	0.120
2020/01/31 17:59:00.3	357.590	0.310	-0.610	0.100
2020/01/31 17:59:00.4	357.610	0.340	-0.670	0.090
2020/01/31 17:59:00.5	357.640	0.380	-0.730	0.070
2020/01/31 17:59:00.6	357.660	0.410	-0.780	0.050
2020/01/31 17:59:00.7	357.690	0.440	-0.830	0.030
2020/01/31 17:59:00.8	357.720	0.470	-0.880	0.010
2020/01/31 17:59:00.9	357.750	0.490	-0.930	-0.010
2020/01/31 17:59:01.0	357.780	0.510	-0.970	-0.040
2020/01/31 17:59:01.1	357.810	0.530	-1.000	-0.060
2020/01/31 17:59:01.2	357.840	0.540	-1.040	-0.090
2020/01/31 17:59:01.3	357.880	0.550	-1.060	-0.120
2020/01/31 17:59:01.4	357.910	0.550	-1.090	-0.150
2020/01/31 17:59:01.5	357.940	0.550	-1.110	-0.180
2020/01/31 17:59:01.6	357.980	0.540	-1.120	-0.210
2020/01/31 17:59:01.7	358.010	0.530	-1.130	-0.240
2020/01/31 17:59:01.8	358.040	0.510	-1.130	-0.280
2020/01/31 17:59:01.9	358.080	0.490	-1.130	-0.320
2020/01/31 17:59:02.0	358.110	0.460	-1.130	-0.350
2020/01/31 17:59:02.1	358.150	0.430	-1.120	-0.390
2020/01/31 17:59:02.2	358.190	0.390	-1.110	-0.430
2020/01/31 17:59:02.3	358.220	0.350	-1.100	-0.460
2020/01/31 17:59:02.4	358.260	0.310	-1.080	-0.500
2020/01/31 17:59:02.5	358.300	0.270	-1.060	-0.530
2020/01/31 17:59:02.6	358.340	0.220	-1.030	-0.570
2020/01/31 17:59:02.7	358.380	0.170	-1.010	-0.600
2020/01/31 17:59:02.8	358.410	0.120	-0.980	-0.640
2020/01/31 17:59:02.9	358.450	0.070	-0.950	-0.680
2020/01/31 17:59:03.0	358.490	0.010	-0.920	-0.710
2020/01/31 17:59:03.1	358.540	-0.040	-0.890	-0.740
2020/01/31 17:59:03.2	358.580	-0.090	-0.860	-0.770
2020/01/31 17:59:03.3	358.630	-0.150	-0.830	-0.800
2020/01/31 17:59:03.4	358.670	-0.200	-0.800	-0.830
2020/01/31 17:59:03.5	358.720	-0.250	-0.760	-0.860
2020/01/31 17:59:03.6	358.760	-0.300	-0.730	-0.890
2020/01/31 17:59:03.7	358.800	-0.340	-0.690	-0.910
2020/01/31 17:59:03.8	358.840	-0.390	-0.650	-0.930
2020/01/31 17:59:03.9	358.880	-0.430	-0.610	-0.950
2020/01/31 17:59:04.0	358.910	-0.470	-0.570	-0.970
2020/01/31 17:59:04.1	358.950	-0.500	-0.530	-0.980
2020/01/31 17:59:04.2	358.970	-0.540	-0.490	-0.990
2020/01/31 17:59:04.3	359.000	-0.570	-0.440	-1.000
2020/01/31 17:59:04.4	359.010	-0.590	-0.390	-1.000
2020/01/31 17:59:04.5	359.020	-0.620	-0.340	-0.990
2020/01/31 17:59:04.6	359.030	-0.640	-0.280	-0.980
2020/01/31 17:59:04.7	359.020	-0.650	-0.220	-0.970
2020/01/31 17:59:04.8	359.020	-0.670	-0.160	-0.940
2020/01/31 17:59:04.9	359.000	-0.680	-0.090	-0.910
2020/01/31 17:59:05.0	358.980	-0.680	-0.020	-0.880
2020/01/31 17:59:05.1	358.950	-0.690	0.060	-0.830
2020/01/31 17:59:05.2	358.910	-0.690	0.130	-0.790
2020/01/31 17:59:05.3	358.870	-0.690	0.210	-0.730
2020/01/31 17:59:05.4	358.830	-0.680	0.290	-0.680
2020/01/31 17:59:05.5	358.780	-0.670	0.370	-0.620
2020/01/31 17:59:05.6	358.730	-0.660	0.440	-0.560
2020/01/31 17:59:05.7	358.670	-0.650	0.520	-0.490
2020/01/31 17:59:05.8	358.620	-0.640	0.600	-0.420
2020/01/31 17:59:05.9	358.560	-0.620	0.670	-0.360
2020/01/31 17:59:06.0	358.500	-0.600	0.730	-0.290
2020/01/31 17:59:06.1	358.440	-0.580	0.790	-0.220
2020/01/31 17:59:06.2	358.380	-0.560	0.850	-0.150
2020/01/31 17:59:06.3	358.320	-0.530	0.890	-0.090
2020/01/31 17:59:06.4	358.270	-0.510	0.930	-0.020
2020/01/31 17:59:06.5	358.210	-0.480	0.960	0.040
2020/01/31 17:59:06.6	358.160	-0.450	0.990	0.100
2020/01/31 17:59:06.7	358.110	-0.420	1.000	0.150
2020/01/31 17:59:06.8	358.060	-0.380	1.000	0.200
2020/01/31 17:59:06.9	358.010	-0.340	0.990	0.250
2020/01/31 17:59:07.0	357.970	-0.310	0.970	0.290
2020/01/31 17:59:07.1	357.930	-0.270	0.940	0.330
2020/01/31 17:59:07.2	357.900	-0.220	0.910	0.360
2020/01/31 17:59:07.3	357.870	-0.180	0.860	0.390
2020/01/31 17:59:07.4	357.840	-0.140	0.810	0.410
2020/01/31 17:59:07.5	357.810	-0.090	0.750	0.430
2020/01/31 17:59:07.6	357.790	-0.040	0.680	0.440
2020/01/31 17:59:07.7	357.770	0.010	0.600	0.450
2020/01/31 17:59:07.8	357.760	0.060	0.520	0.450
2020/01/31 17:59:07.9	357.750	0.110	0.430	0.440
2020/01/31 17:59:08.0	357.750	0.160	0.340	0.430
2020/01/31 17:59:08.1	357.740	0.200	0.250	0.420
2020/01/31 17:59:08.2	357.740	0.250	0.160	0.400
2020/01/31 17:59:08.3	357.740	0.300	0.060	0.380
2020/01/31 17:59:08.4	357.750	0.350	-0.030	0.360
2020/01/31 17:59:08.5	357.760	0.390	-0.120	0.330
2020/01/31 17:59:08.6	357.770	0.440	-0.210	0.310
2020/01/31 17:59:08.7	357.780	0.480	-0.300	0.280
2020/01/31 17:59:08.8	357.780	0.520	-0.380	0.240
2020/01/31 17:59:08.9	357.800	0.560	-0.460	0.220
2020/01/31 17:59:09.0	357.820	0.590	-0.530	0.190
2020/01/31 17:59:09.1	357.830	0.630	-0.590	0.160
2020/01/31 17:59:09.2	357.850	0.650	-0.650	0.140
2020/01/31 17:59:09.3	357.870	0.680	-0.700	0.120
2020/01/31 17:59:09.4	357.880	0.700	-0.740	0.100
2020/01/31 17:59:09.5	357.900	0.720	-0.780	0.080
2020/01/31 17:59:09.6	357.920	0.730	-0.810	0.070
2020/01/31 17:59:09.7	357.930	0.740	-0.830	0.060
2020/01/31 17:59:09.8	357.940	0.740	-0.840	0.050
2020/01/31 17:59:09.9	357.950	0.740	-0.850	0.040
2020/01/31 17:59:10.0	357.960	0.740	-0.850	0.040
2020/01/31 17:59:10.1	357.970	0.730	-0.840	0.050
2020/01/31 17:59:10.2	357.970	0.720	-0.830	0.050
2020/01/31 17:59:10.3	357.980	0.700	-0.810	0.060
2020/01/31 17:59:10.4	357.980	0.680	-0.790	0.060
2020/01/31 17:59:10.5	357.990	0.650	-0.770	0.070
2020/01/31 17:59:10.6	357.990	0.620	-0.740	0.080
2020/01/31 17:59:10.7	358.000	0.580	-0.710	0.080
2020/01/31 17:59:10.8	357.980	0.540	-0.680	0.090
2020/01/31 17:59:10.9	357.980	0.500	-0.650	0.090
2020/01/31 17:59:11.0	357.990	0.460	-0.610	0.090
2020/01/31 17:59:11.1	357.990	0.410	-0.580	0.080
2020/01/31 17:59:11.2	358.000	0.360	-0.550	0.070
2020/01/31 17:59:11.3	358.010	0.310	-0.520	0.060
2020/01/31 17:59:11.4	358.010	0.260	-0.490	0.040
2020/01/31 17:59:11.5	358.020	0.200	-0.470	0.020
2020/01/31 17:59:11.6	358.030	0.150	-0.450	-0.000
2020/01/31 17:59:11.7	358.040	0.090	-0.430	-0.030
2020/01/31 17:59:11.8	358.070	0.040	-0.410	-0.070
2020/01/31 17:59:11.9	358.080	-0.020	-0.400	-0.100
2020/01/31 17:59:12.0	358.090	-0.070	-0.390	-0.140
2020/01/31 17:59:12.1	358.100	-0.120	-0.380	-0.170
2020/01/31 17:59:12.2	358.120	-0.170	-0.380	-0.210
2020/01/31 17:59:12.3	358.130	-0.220	-0.370	-0.260
2020/01/31 17:59:12.4	358.140	-0.270	-0.370	-0.300
2020/01/31 17:59:12.5	358.150	-0.310	-0.380	-0.340
2020/01/31 17:59:12.6	358.160	-0.350	-0.380	-0.380
2020/01/31 17:59:12.7	358.170	-0.380	-0.390	-0.420
2020/01/31 17:59:12.8	358.190	-0.420	-0.390	-0.460
2020/01/31 17:59:12.9	358.200	-0.450	-0.400	-0.500
2020/01/31 17:59:13.0	358.210	-0.470	-0.410	-0.530
2020/01/31 17:59:13.1	358.220	-0.490	-0.420	-0.570
2020/01/31 17:59:13.2	358.230	-0.510	-0.430	-0.600
2020/01/31 17:59:13.3	358.240	-0.520	-0.450	-0.630
2020/01/31 17:59:13.4	358.250	-0.530	-0.460	-0.660
2020/01/31 17:59:13.5	358.260	-0.530	-0.470	-0.690
2020/01/31 17:59:13.6	358.270	-0.530	-0.480	-0.710
2020/01/31 17:59:13.7	358.280	-0.520	-0.490	-0.730
2020/01/31 17:59:13.8	358.280	-0.510	-0.500	-0.760
2020/01/31 17:59:13.9	358.290	-0.490	-0.510	-0.780
2020/01/31 17:59:14.0	358.300	-0.470	-0.520	-0.790
2020/01/31 17:59:14.1	358.310	-0.450	-0.520	-0.800
2020/01/31 17:59:14.2	358.320	-0.420	-0.530	-0.810
2020/01/31 17:59:14.3	358.330	-0.390	-0.530	-0.820
2020/01/31 17:59:14.4	358.340	-0.360	-0.530	-0.820
2020/01/31 17:59:14.5	358.350	-0.330	-0.530	-0.820
2020/01/31 17:59:14.6	358.360	-0.290	-0.520	-0.820
2020/01/31 17:59:14.7	358.360	-0.250	-0.520	-0.810
2020/01/31 17:59:14.8	358.370	-0.210	-0.510	-0.810
2020/01/31 17:59:14.9	358.380	-0.170	-0.500	-0.790
2020/01/31 17:59:15.0	358.380	-0.120	-0.490	-0.780
2020/01/31 17:59:15.1	358.390	-0.080	-0.480	-0.760
2020/01/31 17:59:15.2	358.390	-0.040	-0.460	-0.740
2020/01/31 17:59:15.3	358.390	0.000	-0.440	-0.720
2020/01/31 17:59:15.4	358.400	0.050	-0.430	-0.690
2020/01/31 17:59:15.5	358.400	0.090	-0.410	-0.660
2020/01/31 17:59:15.6	358.400	0.130	-0.390	-0.630
2020/01/31 17:59:15.7	358.410	0.160	-0.370	-0.590
2020/01/31 17:59:15.8	358.420	0.200	-0.360	-0.560
2020/01/31 17:59:15.9	358.430	0.230	-0.340	-0.520
2020/01/31 17:59:16.0	358.430	0.260	-0.320	-0.480
2020/01/31 17:59:16.1	358.440	0.290	-0.300	-0.440
2020/01/31 17:59:16.2	358.440	0.320	-0.290	-0.400
2020/01/31 17:59:16.3	358.450	0.340	-0.270	-0.360
2020/01/31 17:59:16.4	358.460	0.360	-0.250	-0.320
2020/01/31 17:59:16.5	358.460	0.370	-0.240	-0.280
2020/01/31 17:59:16.6	358.470	0.380	-0.220	-0.240
2020/01/31 17:59:16.7	358.480	0.390	-0.210	-0.200
2020/01/31 17:59:16.8	358.490	0.400	-0.190	-0.170
2020/01/31 17:59:16.9	358.490	0.400	-0.180	-0.130
2020/01/31 17:59:17.0	358.500	0.400	-0.170	-0.100
2020/01/31 17:59:17.1	358.510	0.400	-0.160	-0.060
2020/01/31 17:59:17.2	358.520	0.390	-0.140	-0.030
2020/01/31 17:59:17.3	358.520	0.380	-0.130	-0.000
2020/01/31 17:59:17.4	358.530	0.370	-0.120	0.020
2020/01/31 17:59:17.5	358.530	0.360	-0.110	0.050
2020/01/31 17:59:17.6	358.540	0.340	-0.090	0.070
2020/01/31 17:59:17.7	358.540	0.320	-0.080	0.090
2020/01/31 17:59:17.8	358.550	0.300	-0.070	0.110
2020/01/31 17:59:17.9	358.550	0.280	-0.050	0.130
2020/01/31 17:59:18.0	358.560	0.250	-0.030	0.140
2020/01/31 17:59:18.1	358.560	0.220	-0.010	0.150
2020/01/31 17:59:18.2	358.560	0.200	0.010	0.170
2020/01/31 17:59:18.3	358.560	0.170	0.040	0.180
2020/01/31 17:59:18.4	358.560	0.140	0.070	0.190
2020/01/31 17:59:18.5	358.560	0.100	0.100	0.210
2020/01/31 17:59:18.6	358.550	0.070	0.130	0.220
2020/01/31 17:59:18.7	358.550	0.040	0.170	0.230
2020/01/31 17:59:18.8	358.550	0.010	0.200	0.240
2020/01/31 17:59:18.9	358.540	-0.030	0.240	0.250
2020/01/31 17:59:19.0	358.540	-0.060	0.280	0.260
2020/01/31 17:59:19.1	358.520	-0.090	0.320	0.270
2020/01/31 17:59:19.2	358.510	-0.130	0.360	0.280
2020/01/31 17:59:19.3	358.500	-0.160	0.400	0.290
2020/01/31 17:59:19.4	358.480	-0.190	0.440	0.300
2020/01/31 17:59:19.5	358.460	-0.220	0.480	0.300
2020/01/31 17:59:19.6	358.450	-0.250	0.510	0.310
2020/01/31 17:59:19.7	358.430	-0.280	0.540	0.310
2020/01/31 17:59:19.8	358.400	-0.310	0.570	0.310
2020/01/31 17:59:19.9	358.380	-0.330	0.590	0.320
2020/01/31 17:59:20.0	358.360	-0.360	0.610	0.310
2020/01/31 17:59:20.1	358.340	-0.380	0.620	0.310
2020/01/31 17:59:20.2	358.320	-0.400	0.620	0.310
2020/01/31 17:59:20.3	358.300	-0.420	0.620	0.300
2020/01/31 17:59:20.4	358.280	-0.430	0.610	0.290
2020/01/31 17:59:20.5	358.260	-0.440	0.590	0.280
2020/01/31 17:59:20.6	358.240	-0.450	0.560	0.270
2020/01/31 17:59:20.7	358.230	-0.450	0.530	0.260
2020/01/31 17:59:20.8	358.210	-0.450	0.490	0.240
2020/01/31 17:59:20.9	358.200	-0.450	0.430	0.220
2020/01/31 17:59:21.0	358.190	-0.450	0.370	0.190
2020/01/31 17:59:21.1	358.180	-0.440	0.310	0.170
2020/01/31 17:59:21.2	358.170	-0.430	0.240	0.140
2020/01/31 17:59:21.3	358.160	-0.420	0.160	0.110
2020/01/31 17:59:21.4	358.160	-0.400	0.070	0.080
2020/01/31 17:59:21.5	358.150	-0.380	-0.020	0.050
2020/01/31 17:59:21.6	358.150	-0.360	-0.110	0.010
2020/01/31 17:59:21.7	358.150	-0.340	-0.210	-0.030
2020/01/31 17:59:21.8	358.160	-0.310	-0.300	-0.070
2020/01/31 17:59:21.9	358.160	-0.290	-0.400	-0.110
2020/01/31 17:59:22.0	358.160	-0.260	-0.510	-0.160
2020/01/31 17:59:22.1	358.170	-0.230	-0.600	-0.210
2020/01/31 17:59:22.2	358.180	-0.200	-0.700	-0.260
2020/01/31 17:59:22.3	358.190	-0.170	-0.800	-0.310
2020/01/31 17:59:22.4	358.200	-0.130	-0.890	-0.370
2020/01/31 17:59:22.5	358.210	-0.100	-0.980	-0.420
2020/01/31 17:59:22.6	358.230	-0.070	-1.070	-0.480
2020/01/31 17:59:22.7	358.250	-0.030	-1.150	-0.530
2020/01/31 17:59:22.8	358.260	0.000	-1.220	-0.600
2020/01/31 17:59:22.9	358.280	0.040	-1.280	-0.650
2020/01/31 17:59:23.0	358.300	0.070	-1.340	-0.700
2020/01/31 17:59:23.1	358.330	0.100	-1.390	-0.750
2020/01/31 17:59:23.2	358.350	0.130	-1.430	-0.800
2020/01/31 17:59:23.3	358.380	0.160	-1.460	-0.850
2020/01/31 17:59:23.4	358.410	0.190	-1.480	-0.890
2020/01/31 17:59:23.5	358.440	0.220	-1.490	-0.930
2020/01/31 17:59:23.6	358.470	0.240	-1.490	-0.960
2020/01/31 17:59:23.7	358.500	0.260	-1.480	-0.990
2020/01/31 17:59:23.8	358.520	0.280	-1.460	-1.010
2020/01/31 17:59:23.9	358.550	0.300	-1.430	-1.030
2020/01/31 17:59:24.0	358.580	0.310	-1.390	-1.040
2020/01/31 17:59:24.1	358.610	0.330	-1.340	-1.050
2020/01/31 17:59:24.2	358.630	0.340	-1.280	-1.060
2020/01/31 17:59:24.3	358.660	0.340	-1.220	-1.060
2020/01/31 17:59:24.4	358.680	0.340	-1.140	-1.050
2020/01/31 17:59:24.5	358.700	0.340	-1.060	-1.040
2020/01/31 17:59:24.6	358.720	0.340	-0.980	-1.020
2020/01/31 17:59:24.7	358.740	0.330	-0.890	-1.000
2020/01/31 17:59:24.8	358.760	0.330	-0.800	-0.990
2020/01/31 17:59:24.9	358.770	0.310	-0.700	-0.960
2020/01/31 17:59:25.0	358.780	0.300	-0.600	-0.930
2020/01/31 17:59:25.1	358.790	0.280	-0.500	-0.900
2020/01/31 17:59:25.2	358.800	0.260	-0.400	-0.860
2020/01/31 17:59:25.3	358.800	0.240	-0.310	-0.830
2020/01/31 17:59:25.4	358.810	0.220	-0.210	-0.790
2020/01/31 17:59:25.5	358.810	0.200	-0.120	-0.740
2020/01/31 17:59:25.6	358.810	0.180	-0.030	-0.700
2020/01/31 17:59:25.7	358.810	0.150	0.050	-0.650
2020/01/31 17:59:25.8	358.810	0.130	0.120	-0.600
2020/01/31 17:59:25.9	358.810	0.110	0.190	-0.550
2020/01/31 17:59:26.0	358.800	0.080	0.260	-0.500
2020/01/31 17:59:26.1	358.800	0.060	0.310	-0.440
2020/01/31 17:59:26.2	358.790	0.040	0.360	-0.390
2020/01/31 17:59:26.3	358.780	0.020	0.400	-0.330
2020/01/31 17:59:26.4	358.770	-0.000	0.440	-0.280
2020/01/31 17:59:26.5	358.760	-0.020	0.460	-0.220
2020/01/31 17:59:26.6	358.750	-0.040	0.480	-0.170
2020/01/31 17:59:26.7	358.740	-0.060	0.490	-0.120
2020/01/31 17:59:26.8	358.720	-0.070	0.500	-0.070
2020/01/31 17:59:26.9	358.710	-0.080	0.490	-0.020
2020/01/31 17:59:27.0	358.700	-0.100	0.480	0.020
2020/01/31 17:59:27.1	358.700	-0.110	0.460	0.060
2020/01/31 17:59:27.2	358.690	-0.110	0.440	0.090
2020/01/31 17:59:27.3	358.690	-0.120	0.410	0.130
2020/01/31 17:59:27.4	358.680	-0.120	0.380	0.150
2020/01/31 17:59:27.5	358.680	-0.130	0.330	0.180
2020/01/31 17:59:27.6	358.680	-0.130	0.290	0.200
2020/01/31 17:59:27.7	358.680	-0.120	0.240	0.210
2020/01/31 17:59:27.8	358.670	-0.120	0.190	0.220
2020/01/31 17:59:27.9	358.670	-0.110	0.140	0.230
2020/01/31 17:59:28.0	358.670	-0.100	0.080	0.230
2020/01/31 17:59:28.1	358.670	-0.090	0.020	0.230
2020/01/31 17:59:28.2	358.670	-0.080	-0.030	0.230
2020/01/31 17:59:28.3	358.680	-0.060	-0.090	0.230
2020/01/31 17:59:28.4	358.680	-0.050	-0.140	0.230
2020/01/31 17:59:28.5	358.680	-0.030	-0.200	0.230
2020/01/31 17:59:28.6	358.680	-0.010	-0.250	0.230
2020/01/31 17:59:28.7	358.680	0.010	-0.290	0.230
2020/01/31 17:59:28.8	358.670	0.030	-0.330	0.220
2020/01/31 17:59:28.9	358.660	0.050	-0.370	0.220
2020/01/31 17:59:29.0	358.660	0.080	-0.400	0.220
2020/01/31 17:59:29.1	358.660	0.100	-0.420	0.220
2020/01/31 17:59:29.2	358.650	0.120	-0.440	0.220
2020/01/31 17:59:29.3	358.640	0.150	-0.450	0.220
2020/01/31 17:59:29.4	358.630	0.170	-0.460	0.230
2020/01/31 17:59:29.5	358.610	0.190	-0.460	0.240
2020/01/31 17:59:29.6	358.600	0.210	-0.450	0.240
2020/01/31 17:59:29.7	358.580	0.230	-0.440	0.250
2020/01/31 17:59:29.8	358.570	0.250	-0.420	0.260
2020/01/31 17:59:29.9	358.550	0.270	-0.400	0.270
2020/01/31 17:59:30.0	358.530	0.280	-0.370	0.280
2020/01/31 17:59:30.1	358.500	0.300	-0.340	0.290
2020/01/31 17:59:30.2	358.480	0.310	-0.300	0.300
2020/01/31 17:59:30.3	358.450	0.310	-0.260	0.310
2020/01/31 17:59:30.4	358.420	0.320	-0.220	0.320
2020/01/31 17:59:30.5	358.390	0.320	-0.180	0.330
2020/01/31 17:59:30.6	358.360	0.320	-0.140	0.340
2020/01/31 17:59:30.7	358.330	0.310	-0.110	0.350
2020/01/31 17:59:30.8	358.300	0.300	-0.070	0.350
2020/01/31 17:59:30.9	358.270	0.290	-0.040	0.350
2020/01/31 17:59:31.0	358.240	0.280	-0.010	0.350
2020/01/31 17:59:31.1	358.210	0.260	0.010	0.350
2020/01/31 17:59:31.2	358.180	0.240	0.040	0.340
2020/01/31 17:59:31.3	358.160	0.220	0.050	0.330
2020/01/31 17:59:31.4	358.130	0.200	0.060	0.310
2020/01/31 17:59:31.5	358.110	0.170	0.070	0.290
2020/01/31 17:59:31.6	358.090	0.140	0.070	0.270
2020/01/31 17:59:31.7	358.080	0.110	0.060	0.240
2020/01/31 17:59:31.8	358.070	0.080	0.050	0.200
2020/01/31 17:59:31.9	358.060	0.050	0.030	0.160
2020/01/31 17:59:32.0	358.050	0.020	0.010	0.120
2020/01/31 17:59:32.1	358.050	-0.010	-0.020	0.070
2020/01/31 17:59:32.2	358.050	-0.050	-0.050	0.020
2020/01/31 17:59:32.3	358.060	-0.080	-0.090	-0.040
2020/01/31 17:59:32.4	358.070	-0.120	-0.130	-0.100
2020/01/31 17:59:32.5	358.080	-0.150	-0.170	-0.160
2020/01/31 17:59:32.6	358.090	-0.180	-0.210	-0.220
2020/01/31 17:59:32.7	358.110	-0.220	-0.260	-0.290
2020/01/31 17:59:32.8	358.120	-0.250	-0.300	-0.370
2020/01/31 17:59:32.9	358.140	-0.280	-0.340	-0.440
2020/01/31 17:59:33.0	358.170	-0.310	-0.380	-0.500
2020/01/31 17:59:33.1	358.190	-0.340	-0.420	-0.570
2020/01/31 17:59:33.2	358.210	-0.360	-0.460	-0.640
2020/01/31 17:59:33.3	358.240	-0.390	-0.490	-0.700
2020/01/31 17:59:33.4	358.260	-0.410	-0.520	-0.760
2020/01/31 17:59:33.5	358.290	-0.430	-0.540	-0.820
2020/01/31 17:59:33.6	358.310	-0.440	-0.560	-0.870
2020/01/31 17:59:33.7	358.340	-0.460	-0.570	-0.920
2020/01/31 17:59:33.8	358.370	-0.470	-0.580	-0.960
2020/01/31 17:59:33.9	358.390	-0.480	-0.580	-1.000
2020/01/31 17:59:34.0	358.420	-0.480	-0.580	-1.030
2020/01/31 17:59:34.1	358.440	-0.490	-0.570	-1.060
2020/01/31 17:59:34.2	358.470	-0.480	-0.550	-1.080
2020/01/31 17:59:34.3	358.490	-0.480	-0.530	-1.090
2020/01/31 17:59:34.4	358.510	-0.470	-0.510	-1.100
2020/01/31 17:59:34.5	358.530	-0.460	-0.480	-1.100
2020/01/31 17:59:34.6	358.550	-0.440	-0.460	-1.090
2020/01/31 17:59:34.7	358.570	-0.420	-0.420	-1.080
2020/01/31 17:59:34.8	358.580	-0.400	-0.390	-1.060
2020/01/31 17:59:34.9	358.600	-0.370	-0.360	-1.030
2020/01/31 17:59:35.0	358.610	-0.340	-0.320	-1.000
2020/01/31 17:59:35.1	358.630	-0.310	-0.290	-0.970
2020/01/31 17:59:35.2	358.640	-0.280	-0.260	-0.930
2020/01/31 17:59:35.3	358.650	-0.240	-0.230	-0.880
2020/01/31 17:59:35.4	358.670	-0.200	-0.210	-0.840
2020/01/31 17:59:35.5	358.680	-0.160	-0.190	-0.780
2020/01/31 17:59:35.6	358.690	-0.120	-0.170	-0.730
2020/01/31 17:59:35.7	358.690	-0.080	-0.150	-0.680
2020/01/31 17:59:35.8	358.690	-0.030	-0.150	-0.620
2020/01/31 17:59:35.9	358.690	0.010	-0.140	-0.560
2020/01/31 17:59:36.0	358.700	0.050	-0.140	-0.500
2020/01/31 17:59:36.1	358.700	0.100	-0.140	-0.440
2020/01/31 17:59:36.2	358.700	0.140	-0.150	-0.390
2020/01/31 17:59:36.3	358.700	0.180	-0.170	-0.330
2020/01/31 17:59:36.4	358.700	0.220	-0.180	-0.270
2020/01/31 17:59:36.5	358.690	0.250	-0.210	-0.220
2020/01/31 17:59:36.6	358.690	0.280	-0.230	-0.170
2020/01/31 17:59:36.7	358.680	0.320	-0.260	-0.120
2020/01/31 17:59:36.8	358.670	0.340	-0.290	-0.070
2020/01/31 17:59:36.9	358.660	0.370	-0.320	-0.030
2020/01/31 17:59:37.0	358.650	0.390	-0.350	0.000
2020/01/31 17:59:37.1	358.640	0.410	-0.390	0.040
2020/01/31 17:59:37.2	358.630	0.420	-0.420	0.070
2020/01/31 17:59:37.3	358.610	0.430	-0.450	0.090
2020/01/31 17:59:37.4	358.590	0.440	-0.490	0.120
2020/01/31 17:59:37.5	358.580	0.440	-0.520	0.130
2020/01/31 17:59:37.6	358.560	0.440	-0.550	0.150
2020/01/31 17:59:37.7	358.550	0.430	-0.580	0.160
2020/01/31 17:59:37.8	358.530	0.420	-0.610	0.170
2020/01/31 17:59:37.9	358.510	0.410	-0.630	0.170
2020/01/31 17:59:38.0	358.500	0.400	-0.650	0.170
2020/01/31 17:59:38.1	358.480	0.380	-0.670	0.160
2020/01/31 17:59:38.2	358.470	0.360	-0.680	0.150
2020/01/31 17:59:38.3	358.450	0.340	-0.690	0.140
2020/01/31 17:59:38.4	358.440	0.310	-0.700	0.130
2020/01/31 17:59:38.5	358.430	0.280	-0.700	0.110
2020/01/31 17:59:38.6	358.420	0.250	-0.700	0.090
2020/01/31 17:59:38.7	358.410	0.220	-0.690	0.070
2020/01/31 17:59:38.8	358.410	0.190	-0.680	0.050
2020/01/31 17:59:38.9	358.400	0.160	-0.660	0.020
2020/01/31 17:59:39.0	358.390	0.130	-0.640	-0.010
2020/01/31 17:59:39.1	358.390	0.100	-0.620	-0.040
2020/01/31 17:59:39.2	358.390	0.070	-0.590	-0.070
2020/01/31 17:59:39.3	358.390	0.040	-0.560	-0.100
2020/01/31 17:59:39.4	358.400	0.010	-0.530	-0.130
2020/01/31 17:59:39.5	358.400	-0.020	-0.500	-0.170
2020/01/31 17:59:39.6	358.410	-0.040	-0.460	-0.210
2020/01/31 17:59:39.7	358.420	-0.070	-0.420	-0.250
2020/01/31 17:59:39.8	358.430	-0.090	-0.380	-0.290
2020/01/31 17:59:39.9	358.440	-0.110	-0.340	-0.330
2020/01/31 17:59:40.0	358.460	-0.120	-0.310	-0.370
2020/01/31 17:59:40.1	358.470	-0.130	-0.260	-0.410
2020/01/31 17:59:40.2	358.490	-0.140	-0.220	-0.450
2020/01/31 17:59:40.3	358.510	-0.150	-0.180	-0.480
2020/01/31 17:59:40.4	358.520	-0.160	-0.140	-0.520
2020/01/31 17:59:40.5	358.540	-0.160	-0.100	-0.550
2020/01/31 17:59:40.6	358.550	-0.160	-0.060	-0.570
2020/01/31 17:59:40.7	358.560	-0.160	-0.010	-0.590
2020/01/31 17:59:40.8	358.560	-0.160	0.030	-0.610
2020/01/31 17:59:40.9	358.560	-0.160	0.070	-0.620
2020/01/31 17:59:41.0	358.560	-0.160	0.120	-0.620
2020/01/31 17:59:41.1	358.550	-0.160	0.160	-0.620
2020/01/31 17:59:41.2	358.540	-0.160	0.210	-0.620
2020/01/31 17:59:41.3	358.530	-0.160	0.250	-0.620
2020/01/31 17:59:41.4	358.510	-0.160	0.300	-0.600
2020/01/31 17:59:41.5	358.490	-0.160	0.340	-0.590
2020/01/31 17:59:41.6	358.460	-0.160	0.380	-0.570
2020/01/31 17:59:41.7	358.430	-0.160	0.420	-0.550
2020/01/31 17:59:41.8	358.400	-0.170	0.460	-0.530
2020/01/31 17:59:41.9	358.370	-0.170	0.500	-0.500
2020/01/31 17:59:42.0	358.340	-0.180	0.530	-0.470
2020/01/31 17:59:42.1	358.300	-0.180	0.560	-0.440
2020/01/31 17:59:42.2	358.270	-0.190	0.580	-0.410
2020/01/31 17:59:42.3	358.230	-0.190	0.600	-0.370
2020/01/31 17:59:42.4	358.200	-0.200	0.620	-0.330
2020/01/31 17:59:42.5	358.160	-0.210	0.620	-0.300
2020/01/31 17:59:42.6	358.130	-0.210	0.630	-0.260
2020/01/31 17:59:42.7	358.090	-0.220	0.620	-0.220
2020/01/31 17:59:42.8	358.060	-0.220	0.610	-0.180
2020/01/31 17:59:42.9	358.030	-0.220	0.590	-0.140
2020/01/31 17:59:43.0	358.010	-0.230	0.560	-0.100
2020/01/31 17:59:43.1	357.980	-0.230	0.530	-0.070
2020/01/31 17:59:43.2	357.970	-0.220	0.490	-0.030
2020/01/31 17:59:43.3	357.950	-0.220	0.440	0.000
2020/01/31 17:59:43.4	357.940	-0.210	0.390	0.030
2020/01/31 17:59:43.5	357.930	-0.200	0.320	0.060
2020/01/31 17:59:43.6	357.930	-0.190	0.260	0.090
2020/01/31 17:59:43.7	357.930	-0.170	0.180	0.110
2020/01/31 17:59:43.8	357.930	-0.150	0.110	0.140
2020/01/31 17:59:43.9	357.930	-0.140	0.030	0.160
2020/01/31 17:59:44.0	357.940	-0.110	-0.060	0.170
2020/01/31 17:59:44.1	357.940	-0.090	-0.140	0.190
2020/01/31 17:59:44.2	357.950	-0.070	-0.230	0.200
2020/01/31 17:59:44.3	357.960	-0.040	-0.310	0.210
2020/01/31 17:59:44.4	357.960	-0.010	-0.400	0.220
2020/01/31 17:59:44.5	357.970	0.020	-0.480	0.230
2020/01/31 17:59:44.6	357.980	0.040	-0.560	0.240
2020/01/31 17:59:44.7	357.980	0.070	-0.630	0.240
2020/01/31 17:59:44.8	357.990	0.100	-0.700	0.240
2020/01/31 17:59:44.9	357.990	0.130	-0.770	0.240
2020/01/31 17:59:45.0	358.000	0.150	-0.830	0.240
2020/01/31 17:59:45.1	358.000	0.180	-0.890	0.240
2020/01/31 17:59:45.2	358.000	0.200	-0.940	0.240
2020/01/31 17:59:45.3	358.010	0.220	-0.980	0.240
2020/01/31 17:59:45.4	358.010	0.240	-1.020	0.230
2020/01/31 17:59:45.5	358.010	0.260	-1.050	0.220
2020/01/31 17:59:45.6	358.010	0.280	-1.070	0.220
2020/01/31 17:59:45.7	358.010	0.290	-1.090	0.210
2020/01/31 17:59:45.8	357.990	0.300	-1.090	0.200
2020/01/31 17:59:45.9	357.990	0.300	-1.090	0.190
2020/01/31 17:59:46.0	357.980	0.300	-1.090	0.190
2020/01/31 17:59:46.1	357.980	0.300	-1.070	0.180
2020/01/31 17:59:46.2	357.980	0.300	-1.050	0.170
2020/01/31 17:59:46.3	357.980	0.290	-1.030	0.160
2020/01/31 17:59:46.4	357.980	0.280	-1.000	0.150
2020/01/31 17:59:46.5	357.980	0.270	-0.960	0.140
2020/01/31 17:59:46.6	357.980	0.250	-0.930	0.120
2020/01/31 17:59:46.7	357.980	0.240	-0.880	0.110
2020/01/31 17:59:46.8	357.980	0.220	-0.840	0.090
2020/01/31 17:59:46.9	357.980	0.190	-0.790	0.070
2020/01/31 17:59:47.0	357.990	0.170	-0.740	0.050
2020/01/31 17:59:47.1	357.990	0.140	-0.690	0.030
2020/01/31 17:59:47.2	358.000	0.110	-0.650	0.010
2020/01/31 17:59:47.3	358.010	0.080	-0.600	-0.020
2020/01/31 17:59:47.4	358.010	0.050	-0.550	-0.040
2020/01/31 17:59:47.5	358.020	0.020	-0.500	-0.070
2020/01/31 17:59:47.6	358.030	-0.010	-0.450	-0.090
2020/01/31 17:59:47.7	358.040	-0.040	-0.410	-0.120
2020/01/31 17:59:47.8	358.050	-0.070	-0.360	-0.150
2020/01/31 17:59:47.9	358.050	-0.100	-0.330	-0.180
2020/01/31 17:59:48.0	358.060	-0.130	-0.290	-0.210
2020/01/31 17:59:48.1	358.070	-0.160	-0.260	-0.240
2020/01/31 17:59:48.2	358.080	-0.190	-0.230	-0.270
2020/01/31 17:59:48.3	358.080	-0.220	-0.200	-0.310
2020/01/31 17:59:48.4	358.090	-0.240	-0.180	-0.340
2020/01/31 17:59:48.5	358.100	-0.270	-0.160	-0.380
2020/01/31 17:59:48.6	358.110	-0.290	-0.150	-0.410
2020/01/31 17:59:48.7	358.110	-0.300	-0.140	-0.450
2020/01/31 17:59:48.8	358.120	-0.320	-0.140	-0.480
2020/01/31 17:59:48.9	358.120	-0.330	-0.140	-0.520
2020/01/31 17:59:49.0	358.130	-0.340	-0.140	-0.550
2020/01/31 17:59:49.1	358.140	-0.350	-0.150	-0.590
2020/01/31 17:59:49.2	358.140	-0.350	-0.150	-0.620
2020/01/31 17:59:49.3	358.150	-0.350	-0.170	-0.650
2020/01/31 17:59:49.4	358.160	-0.350	-0.180	-0.680
2020/01/31 17:59:49.5	358.160	-0.340	-0.200	-0.710
2020/01/31 17:59:49.6	358.170	-0.330	-0.210	-0.730
2020/01/31 17:59:49.7	358.170	-0.310	-0.230	-0.760
2020/01/31 17:59:49.8	358.190	-0.300	-0.250	-0.780
2020/01/31 17:59:49.9	358.190	-0.280	-0.260	-0.790
2020/01/31 17:59:50.0	358.190	-0.250	-0.280	-0.800
2020/01/31 17:59:50.1	358.190	-0.220	-0.290	-0.810
2020/01/31 17:59:50.2	358.190	-0.190	-0.300	-0.810
2020/01/31 17:59:50.3	358.190	-0.160	-0.310	-0.800
2020/01/31 17:59:50.4	358.180	-0.120	-0.310	-0.790
2020/01/31 17:59:50.5	358.170	-0.080	-0.310	-0.770
2020/01/31 17:59:50.6	358.150	-0.040	-0.310	-0.740
2020/01/31 17:59:50.7	358.130	-0.000	-0.300	-0.700
2020/01/31 17:59:50.8	358.110	0.040	-0.290	-0.660
2020/01/31 17:59:50.9	358.090	0.090	-0.270	-0.620
2020/01/31 17:59:51.0	358.060	0.130	-0.250	-0.560
2020/01/31 17:59:51.1	358.030	0.170	-0.220	-0.500
2020/01/31 17:59:51.2	358.000	0.220	-0.200	-0.440
2020/01/31 17:59:51.3	357.970	0.260	-0.170	-0.380
2020/01/31 17:59:51.4	357.930	0.300	-0.130	-0.310
2020/01/31 17:59:51.5	357.900	0.340	-0.100	-0.240
2020/01/31 17:59:51.6	357.860	0.380	-0.060	-0.160
2020/01/31 17:59:51.7	357.820	0.420	-0.030	-0.090
2020/01/31 17:59:51.8	357.800	0.450	0.010	-0.010
2020/01/31 17:59:51.9	357.770	0.480	0.040	0.060
2020/01/31 17:59:52.0	357.730	0.510	0.070	0.130
2020/01/31 17:59:52.1	357.700	0.540	0.100	0.190
2020/01/31 17:59:52.2	357.670	0.560	0.130	0.260
2020/01/31 17:59:52.3	357.640	0.580	0.150	0.320
2020/01/31 17:59:52.4	357.610	0.590	0.170	0.370
2020/01/31 17:59:52.5	357.590	0.600	0.180	0.420
2020/01/31 17:59:52.6	357.570	0.610	0.190	0.470
2020/01/31 17:59:52.7	357.550	0.610	0.200	0.510
2020/01/31 17:59:52.8	357.540	0.610	0.190	0.550
2020/01/31 17:59:52.9	357.530	0.610	0.190	0.580
2020/01/31 17:59:53.0	357.520	0.600	0.190	0.600
2020/01/31 17:59:53.1	357.520	0.590	0.170	0.620
2020/01/31 17:59:53.2	357.510	0.570	0.160	0.640
2020/01/31 17:59:53.3	357.510	0.550	0.140	0.650
2020/01/31 17:59:53.4	357.510	0.520	0.130	0.650
2020/01/31 17:59:53.5	357.510	0.490	0.100	0.650
2020/01/31 17:59:53.6	357.520	0.460	0.080	0.640
2020/01/31 17:59:53.7	357.520	0.420	0.060	0.630
2020/01/31 17:59:53.8	357.530	0.380	0.030	0.620
2020/01/31 17:59:53.9	357.540	0.340	0.010	0.600
2020/01/31 17:59:54.0	357.550	0.300	-0.020	0.570
2020/01/31 17:59:54.1	357.560	0.250	-0.040	0.550
2020/01/31 17:59:54.2	357.570	0.200	-0.060	0.520
2020/01/31 17:59:54.3	357.590	0.150	-0.090	0.480
2020/01/31 17:59:54.4	357.600	0.090	-0.100	0.450
2020/01/31 17:59:54.5	357.610	0.040	-0.120	0.410
2020/01/31 17:59:54.6	357.620	-0.020	-0.130	0.370
2020/01/31 17:59:54.7	357.630	-0.070	-0.140	0.330
2020/01/31 17:59:54.8	357.630	-0.130	-0.150	0.280
2020/01/31 17:59:54.9	357.640	-0.180	-0.150	0.240
2020/01/31 17:59:55.0	357.650	-0.240	-0.150	0.200
2020/01/31 17:59:55.1	357.660	-0.290	-0.150	0.160
2020/01/31 17:59:55.2	357.670	-0.340	-0.140	0.120
2020/01/31 17:59:55.3	357.680	-0.390	-0.130	0.070
2020/01/31 17:59:55.4	357.690	-0.430	-0.120	0.030
2020/01/31 17:59:55.5	357.690	-0.480	-0.110	-0.010
2020/01/31 17:59:55.6	357.710	-0.520	-0.100	-0.050
2020/01/31 17:59:55.7	357.720	-0.560	-0.090	-0.090
2020/01/31 17:59:55.8	357.730	-0.590	-0.080	-0.130
2020/01/31 17:59:55.9	357.740	-0.620	-0.080	-0.170
2020/01/31 17:59:56.0	357.750	-0.640	-0.070	-0.210
2020/01/31 17:59:56.1	357.770	-0.670	-0.060	-0.250
2020/01/31 17:59:56.2	357.780	-0.690	-0.060	-0.280
2020/01/31 17:59:56.3	357.790	-0.700	-0.060	-0.320
2020/01/31 17:59:56.4	357.810	-0.710	-0.070	-0.350
2020/01/31 17:59:56.5	357.820	-0.720	-0.070	-0.390
2020/01/31 17:59:56.6	357.830	-0.720	-0.080	-0.420
2020/01/31 17:59:56.7	357.840	-0.720	-0.100	-0.450
2020/01/31 17:59:56.8	357.840	-0.720	-0.110	-0.480
2020/01/31 17:59:56.9	357.850	-0.710	-0.130	-0.510
2020/01/31 17:59:57.0	357.860	-0.700	-0.150	-0.540
2020/01/31 17:59:57.1	357.870	-0.690	-0.180	-0.570
2020/01/31 17:59:57.2	357.880	-0.670	-0.210	-0.590
2020/01/31 17:59:57.3	357.890	-0.650	-0.240	-0.620
2020/01/31 17:59:57.4	357.890	-0.630	-0.280	-0.640
2020/01/31 17:59:57.5	357.890	-0.610	-0.320	-0.660
2020/01/31 17:59:57.6	357.900	-0.590	-0.350	-0.680
2020/01/31 17:59:57.7	357.900	-0.560	-0.390	-0.700
2020/01/31 17:59:57.8	357.910	-0.530	-0.440	-0.720
2020/01/31 17:59:57.9	357.910	-0.500	-0.480	-0.730
2020/01/31 17:59:58.0	357.910	-0.470	-0.520	-0.740
2020/01/31 17:59:58.1	357.900	-0.430	-0.560	-0.750
2020/01/31 17:59:58.2	357.900	-0.400	-0.610	-0.760
2020/01/31 17:59:58.3	357.900	-0.360	-0.650	-0.760
2020/01/31 17:59:58.4	357.900	-0.320	-0.680	-0.770
2020/01/31 17:59:58.5	357.890	-0.280	-0.720	-0.760
2020/01/31 17:59:58.6	357.890	-0.240	-0.750	-0.760
2020/01/31 17:59:58.7	357.890	-0.200	-0.780	-0.750
2020/01/31 17:59:58.8	357.880	-0.160	-0.810	-0.740
2020/01/31 17:59:58.9	357.870	-0.120	-0.830	-0.730
2020/01/31 17:59:59.0	357.870	-0.080	-0.850	-0.710
2020/01/31 17:59:59.1	357.860	-0.040	-0.870	-0.690
2020/01/31 17:59:59.2	357.850	0.000	-0.880	-0.660
2020/01/31 17:59:59.3	357.850	0.050	-0.880	-0.640
2020/01/31 17:59:59.4	357.840	0.090	-0.880	-0.600
2020/01/31 17:59:59.5	357.830	0.130	-0.880	-0.570
2020/01/31 17:59:59.6	357.830	0.170	-0.870	-0.530
2020/01/31 17:59:59.7	357.820	0.210	-0.850	-0.490
2020/01/31 17:59:59.8	357.810	0.250	-0.840	-0.440
2020/01/31 17:59:59.9	357.800	0.290	-0.820	-0.390
2020/01/31 18:00:00.0	357.790	0.330	-0.790	-0.340
2020/01/31 18:00:00.1	357.790	0.370	-0.760	-0.290
2020/01/31 18:00:00.2	357.780	0.410	-0.730	-0.230
2020/01/31 18:00:00.3	357.770	0.440	-0.690	-0.170
2020/01/31 18:00:00.4	357.760	0.480	-0.650	-0.110
2020/01/31 18:00:00.5	357.750	0.510	-0.610	-0.050
2020/01/31 18:00:00.6	357.740	0.540	-0.570	0.010
2020/01/31 18:00:00.7	357.730	0.570	-0.530	0.070
2020/01/31 18:00:00.8	357.720	0.600	-0.490	0.130
2020/01/31 18:00:00.9	357.720	0.620	-0.450	0.190
2020/01/31 18:00:01.0	357.710	0.640	-0.400	0.250
2020/01/31 18:00:01.1	357.700	0.660	-0.360	0.310
2020/01/31 18:00:01.2	357.700	0.680	-0.320	0.370
2020/01/31 18:00:01.3	357.690	0.700	-0.290	0.420
2020/01/31 18:00:01.4	357.690	0.710	-0.250	0.470
2020/01/31 18:00:01.5	357.690	0.720	-0.220	0.510
2020/01/31 18:00:01.6	357.690	0.720	-0.190	0.550
2020/01/31 18:00:01.7	357.690	0.730	-0.160	0.590
2020/01/31 18:00:01.8	357.690	0.730	-0.130	0.620
2020/01/31 18:00:01.9	357.690	0.720	-0.110	0.650
2020/01/31 18:00:02.0	357.690	0.710	-0.080	0.680
2020/01/31 18:00:02.1	357.680	0.700	-0.060	0.690
2020/01/31 18:00:02.2	357.680	0.690	-0.050	0.710
2020/01/31 18:00:02.3	357.680	0.670	-0.030	0.720
2020/01/31 18:00:02.4	357.680	0.650	-0.020	0.730
2020/01/31 18:00:02.5	357.670	0.620	-0.010	0.730
2020/01/31 18:00:02.6	357.670	0.590	0.000	0.730
2020/01/31 18:00:02.7	357.660	0.560	0.010	0.720
2020/01/31 18:00:02.8	357.650	0.520	0.020	0.710
2020/01/31 18:00:02.9	357.650	0.480	0.020	0.700
2020/01/31 18:00:03.0	357.640	0.440	0.030	0.680
2020/01/31 18:00:03.1	357.630	0.390	0.030	0.660
2020/01/31 18:00:03.2	357.620	0.340	0.030	0.640
2020/01/31 18:00:03.3	357.620	0.290	0.030	0.610
2020/01/31 18:00:03.4	357.610	0.240	0.030	0.580
2020/01/31 18:00:03.5	357.610	0.180	0.030	0.550
2020/01/31 18:00:03.6	357.600	0.130	0.030	0.510
2020/01/31 18:00:03.7	357.600	0.070	0.020	0.470
2020/01/31 18:00:03.8	357.600	0.010	0.020	0.430
2020/01/31 18:00:03.9	357.600	-0.040	0.010	0.380
2020/01/31 18:00:04.0	357.600	-0.100	-0.000	0.330
2020/01/31 18:00:04.1	357.610	-0.160	-0.010	0.280
2020/01/31 18:00:04.2	357.610	-0.210	-0.030	0.220
2020/01/31 18:00:04.3	357.620	-0.260	-0.040	0.160
2020/01/31 18:00:04.4	357.630	-0.310	-0.060	0.100
2020/01/31 18:00:04.5	357.650	-0.360	-0.080	0.030
2020/01/31 18:00:04.6	357.660	-0.410	-0.100	-0.040
2020/01/31 18:00:04.7	357.680	-0.450	-0.120	-0.110
2020/01/31 18:00:04.8	357.710	-0.480	-0.140	-0.190
2020/01/31 18:00:04.9	357.730	-0.520	-0.170	-0.270
2020/01/31 18:00:05.0	357.760	-0.550	-0.190	-0.350
2020/01/31 18:00:05.1	357.790	-0.570	-0.220	-0.420
2020/01/31 18:00:05.2	357.820	-0.590	-0.250	-0.500
2020/01/31 18:00:05.3	357.850	-0.600	-0.280	-0.580
2020/01/31 18:00:05.4	357.880	-0.610	-0.300	-0.660
2020/01/31 18:00:05.5	357.920	-0.620	-0.330	-0.730
2020/01/31 18:00:05.6	357.960	-0.620	-0.360	-0.800
2020/01/31 18:00:05.7	357.990	-0.610	-0.380	-0.870
2020/01/31 18:00:05.8	358.030	-0.610	-0.410	-0.940
2020/01/31 18:00:05.9	358.060	-0.590	-0.430	-1.000
2020/01/31 18:00:06.0	358.100	-0.580	-0.450	-1.050
2020/01/31 18:00:06.1	358.130	-0.560	-0.460	-1.100
2020/01/31 18:00:06.2	358.160	-0.530	-0.470	-1.140
2020/01/31 18:00:06.3	358.190	-0.510	-0.480	-1.180
2020/01/31 18:00:06.4	358.210	-0.480	-0.480	-1.210
2020/01/31 18:00:06.5	358.230	-0.450	-0.470	-1.230
2020/01/31 18:00:06.6	358.240	-0.430	-0.460	-1.240
2020/01/31 18:00:06.7	358.250	-0.400	-0.450	-1.250
2020/01/31 18:00:06.8	358.250	-0.370	-0.430	-1.250
2020/01/31 18:00:06.9	358.260	-0.340	-0.400	-1.240
2020/01/31 18:00:07.0	358.250	-0.310	-0.370	-1.230
2020/01/31 18:00:07.1	358.240	-0.280	-0.330	-1.210
2020/01/31 18:00:07.2	358.230	-0.250	-0.290	-1.190
2020/01/31 18:00:07.3	358.210	-0.230	-0.240	-1.160
2020/01/31 18:00:07.4	358.190	-0.200	-0.190	-1.120
2020/01/31 18:00:07.5	358.160	-0.180	-0.140	-1.080
2020/01/31 18:00:07.6	358.130	-0.160	-0.080	-1.040
2020/01/31 18:00:07.7	358.090	-0.140	-0.020	-0.980
2020/01/31 18:00:07.8	358.050	-0.120	0.040	-0.930
2020/01/31 18:00:07.9	358.010	-0.110	0.100	-0.870
2020/01/31 18:00:08.0	357.960	-0.100	0.170	-0.800
2020/01/31 18:00:08.1	357.910	-0.090	0.230	-0.730
2020/01/31 18:00:08.2	357.850	-0.080	0.300	-0.660
2020/01/31 18:00:08.3	357.800	-0.070	0.360	-0.580
2020/01/31 18:00:08.4	357.740	-0.060	0.420	-0.510
2020/01/31 18:00:08.5	357.680	-0.060	0.470	-0.430
2020/01/31 18:00:08.6	357.630	-0.060	0.530	-0.340
2020/01/31 18:00:08.7	357.550	-0.050	0.570	-0.260
2020/01/31 18:00:08.8	357.500	-0.050	0.610	-0.180
2020/01/31 18:00:08.9	357.440	-0.050	0.650	-0.100
2020/01/31 18:00:09.0	357.390	-0.050	0.670	-0.020
2020/01/31 18:00:09.1	357.340	-0.040	0.690	0.050
2020/01/31 18:00:09.2	357.300	-0.040	0.690	0.120
2020/01/31 18:00:09.3	357.260	-0.030	0.690	0.180
2020/01/31 18:00:09.4	357.220	-0.020	0.670	0.240
2020/01/31 18:00:09.5	357.200	-0.010	0.650	0.290
2020/01/31 18:00:09.6	357.170	-0.000	0.610	0.330
2020/01/31 18:00:09.7	357.150	0.010	0.560	0.370
2020/01/31 18:00:09.8	357.140	0.030	0.500	0.390
2020/01/31 18:00:09.9	357.130	0.050	0.430	0.410
2020/01/31 18:00:10.0	357.130	0.070	0.350	0.420
2020/01/31 18:00:10.1	357.130	0.090	0.260	0.420
2020/01/31 18:00:10.2	357.130	0.120	0.170	0.420
2020/01/31 18:00:10.3	357.140	0.140	0.060	0.420
2020/01/31 18:00:10.4	357.150	0.170	-0.050	0.400
2020/01/31 18:00:10.5	357.170	0.200	-0.160	0.390
2020/01/31 18:00:10.6	357.180	0.230	-0.270	0.370
2020/01/31 18:00:10.7	357.200	0.260	-0.390	0.350
2020/01/31 18:00:10.8	357.220	0.290	-0.500	0.320
2020/01/31 18:00:10.9	357.230	0.320	-0.620	0.290
2020/01/31 18:00:11.0	357.250	0.350	-0.730	0.260
2020/01/31 18:00:11.1	357.270	0.380	-0.840	0.220
2020/01/31 18:00:11.2	357.280	0.410	-0.950	0.190
2020/01/31 18:00:11.3	357.300	0.430	-1.050	0.150
2020/01/31 18:00:11.4	357.320	0.450	-1.140	0.110
2020/01/31 18:00:11.5	357.330	0.470	-1.230	0.070
2020/01/31 18:00:11.6	357.350	0.480	-1.310	0.030
2020/01/31 18:00:11.7	357.360	0.490	-1.380	-0.010
2020/01/31 18:00:11.8	357.370	0.500	-1.440	-0.050
2020/01/31 18:00:11.9	357.390	0.510	-1.500	-0.090
2020/01/31 18:00:12.0	357.400	0.510	-1.540	-0.130
2020/01/31 18:00:12.1	357.410	0.500	-1.570	-0.170
2020/01/31 18:00:12.2	357.420	0.500	-1.600	-0.210
2020/01/31 18:00:12.3	357.430	0.480	-1.610	-0.250
2020/01/31 18:00:12.4	357.450	0.470	-1.620	-0.280
2020/01/31 18:00:12.5	357.460	0.450	-1.610	-0.320
2020/01/31 18:00:12.6	357.470	0.430	-1.590	-0.350
2020/01/31 18:00:12.7	357.480	0.400	-1.570	-0.390
2020/01/31 18:00:12.8	357.480	0.370	-1.530	-0.420
2020/01/31 18:00:12.9	357.490	0.340	-1.490	-0.450
2020/01/31 18:00:13.0	357.500	0.300	-1.440	-0.480
2020/01/31 18:00:13.1	357.510	0.260	-1.380	-0.510
2020/01/31 18:00:13.2	357.520	0.220	-1.320	-0.540
2020/01/31 18:00:13.3	357.530	0.180	-1.250	-0.570
2020/01/31 18:00:13.4	357.540	0.130	-1.170	-0.590
2020/01/31 18:00:13.5	357.550	0.090	-1.090	-0.620
2020/01/31 18:00:13.6	357.560	0.040	-1.010	-0.640
2020/01/31 18:00:13.7	357.560	-0.000	-0.920	-0.660
2020/01/31 18:00:13.8	357.560	-0.050	-0.820	-0.680
2020/01/31 18:00:13.9	357.570	-0.100	-0.730	-0.690
2020/01/31 18:00:14.0	357.580	-0.140	-0.630	-0.700
2020/01/31 18:00:14.1	357.580	-0.180	-0.540	-0.710
2020/01/31 18:00:14.2	357.580	-0.230	-0.440	-0.710
2020/01/31 18:00:14.3	357.580	-0.270	-0.340	-0.720
2020/01/31 18:00:14.4	357.590	-0.300	-0.240	-0.720
2020/01/31 18:00:14.5	357.590	-0.340	-0.150	-0.720
2020/01/31 18:00:14.6	357.590	-0.370	-0.050	-0.710
2020/01/31 18:00:14.7	357.580	-0.400	0.040	-0.710
2020/01/31 18:00:14.8	357.590	-0.430	0.120	-0.700
2020/01/31 18:00:14.9	357.580	-0.450	0.210	-0.690
2020/01/31 18:00:15.0	357.580	-0.470	0.290	-0.670
2020/01/31 18:00:15.1	357.570	-0.480	0.360	-0.660
2020/01/31 18:00:15.2	357.560	-0.490	0.440	-0.640
2020/01/31 18:00:15.3	357.560	-0.500	0.510	-0.610
2020/01/31 18:00:15.4	357.550	-0.510	0.570	-0.580
2020/01/31 18:00:15.5	357.530	-0.500	0.630	-0.550
2020/01/31 18:00:15.6	357.520	-0.500	0.680	-0.520
2020/01/31 18:00:15.7	357.510	-0.490	0.730	-0.480
2020/01/31 18:00:15.8	357.510	-0.480	0.770	-0.440
2020/01/31 18:00:15.9	357.490	-0.460	0.810	-0.400
2020/01/31 18:00:16.0	357.480	-0.440	0.830	-0.350
2020/01/31 18:00:16.1	357.460	-0.420	0.850	-0.300
2020/01/31 18:00:16.2	357.440	-0.390	0.870	-0.250
2020/01/31 18:00:16.3	357.420	-0.370	0.870	-0.200
2020/01/31 18:00:16.4	357.400	-0.330	0.870	-0.150
2020/01/31 18:00:16.5	357.380	-0.300	0.860	-0.100
2020/01/31 18:00:16.6	357.360	-0.260	0.840	-0.040
2020/01/31 18:00:16.7	357.340	-0.230	0.820	0.010
2020/01/31 18:00:16.8	357.310	-0.190	0.780	0.060
2020/01/31 18:00:16.9	357.300	-0.150	0.740	0.110
2020/01/31 18:00:17.0	357.280	-0.110	0.700	0.160
2020/01/31 18:00:17.1	357.260	-0.060	0.640	0.200
2020/01/31 18:00:17.2	357.240	-0.020	0.580	0.240
2020/01/31 18:00:17.3	357.230	0.020	0.520	0.270
2020/01/31 18:00:17.4	357.210	0.060	0.450	0.300
2020/01/31 18:00:17.5	357.200	0.110	0.370	0.320
2020/01/31 18:00:17.6	357.190	0.150	0.290	0.340
2020/01/31 18:00:17.7	357.180	0.190	0.210	0.360
2020/01/31 18:00:17.8	357.180	0.230	0.130	0.360
2020/01/31 18:00:17.9	357.170	0.270	0.040	0.370
2020/01/31 18:00:18.0	357.170	0.310	-0.040	0.370
2020/01/31 18:00:18.1	357.170	0.350	-0.130	0.360
2020/01/31 18:00:18.2	357.160	0.380	-0.220	0.350
2020/01/31 18:00:18.3	357.160	0.410	-0.310	0.340
2020/01/31 18:00:18.4	357.160	0.440	-0.390	0.330
2020/01/31 18:00:18.5	357.160	0.470	-0.470	0.320
2020/01/31 18:00:18.6	357.170	0.500	-0.550	0.300
2020/01/31 18:00:18.7	357.170	0.520	-0.620	0.280
2020/01/31 18:00:18.8	357.170	0.530	-0.690	0.260
2020/01/31 18:00:18.9	357.170	0.550	-0.750	0.240
2020/01/31 18:00:19.0	357.170	0.560	-0.810	0.230
2020/01/31 18:00:19.1	357.180	0.570	-0.860	0.210
2020/01/31 18:00:19.2	357.180	0.570	-0.900	0.190
2020/01/31 18:00:19.3	357.180	0.570	-0.930	0.180
2020/01/31 18:00:19.4	357.190	0.560	-0.960	0.160
2020/01/31 18:00:19.5	357.190	0.550	-0.980	0.140
2020/01/31 18:00:19.6	357.200	0.540	-0.990	0.130
2020/01/31 18:00:19.7	357.200	0.520	-0.990	0.110
2020/01/31 18:00:19.8	357.200	0.490	-0.990	0.100
2020/01/31 18:00:19.9	357.200	0.470	-0.980	0.080
2020/01/31 18:00:20.0	357.210	0.440	-0.960	0.060
2020/01/31 18:00:20.1	357.210	0.400	-0.940	0.040
2020/01/31 18:00:20.2	357.210	0.360	-0.910	0.020
2020/01/31 18:00:20.3	357.210	0.320	-0.880	0.000
2020/01/31 18:00:20.4	357.210	0.280	-0.840	-0.020
2020/01/31 18:00:20.5	357.210	0.230	-0.800	-0.040
2020/01/31 18:00:20.6	357.210	0.180	-0.750	-0.070
2020/01/31 18:00:20.7	357.210	0.130	-0.710	-0.100
2020/01/31 18:00:20.8	357.210	0.080	-0.660	-0.130
2020/01/31 18:00:20.9	357.210	0.030	-0.610	-0.160
2020/01/31 18:00:21.0	357.200	-0.030	-0.560	-0.190
2020/01/31 18:00:21.1	357.200	-0.080	-0.500	-0.210
2020/01/31 18:00:21.2	357.190	-0.130	-0.450	-0.240
2020/01/31 18:00:21.3	357.180	-0.180	-0.390	-0.270
2020/01/31 18:00:21.4	357.180	-0.240	-0.330	-0.300
2020/01/31 18:00:21.5	357.170	-0.290	-0.280	-0.320
2020/01/31 18:00:21.6	357.160	-0.330	-0.220	-0.340
2020/01/31 18:00:21.7	357.150	-0.380	-0.170	-0.370
2020/01/31 18:00:21.8	357.140	-0.420	-0.110	-0.380
2020/01/31 18:00:21.9	357.130	-0.460	-0.060	-0.400
2020/01/31 18:00:22.0	357.120	-0.500	-0.010	-0.410
2020/01/31 18:00:22.1	357.110	-0.540	0.040	-0.430
2020/01/31 18:00:22.2	357.090	-0.570	0.090	-0.440
2020/01/31 18:00:22.3	357.080	-0.600	0.130	-0.440
2020/01/31 18:00:22.4	357.070	-0.620	0.170	-0.450
2020/01/31 18:00:22.5	357.050	-0.640	0.210	-0.450
2020/01/31 18:00:22.6	357.040	-0.660	0.250	-0.460
2020/01/31 18:00:22.7	357.030	-0.670	0.280	-0.460
2020/01/31 18:00:22.8	357.010	-0.680	0.310	-0.460
2020/01/31 18:00:22.9	357.000	-0.690	0.330	-0.460
2020/01/31 18:00:23.0	356.980	-0.690	0.350	-0.460
2020/01/31 18:00:23.1	356.970	-0.690	0.360	-0.460
2020/01/31 18:00:23.2	356.960	-0.690	0.370	-0.460
2020/01/31 18:00:23.3	356.950	-0.680	0.380	-0.450
2020/01/31 18:00:23.4	356.940	-0.670	0.380	-0.450
2020/01/31 18:00:23.5	356.930	-0.650	0.370	-0.450
2020/01/31 18:00:23.6	356.920	-0.630	0.360	-0.440
2020/01/31 18:00:23.7	356.910	-0.610	0.350	-0.440
2020/01/31 18:00:23.8	356.890	-0.590	0.330	-0.430
2020/01/31 18:00:23.9	356.880	-0.560	0.300	-0.430
2020/01/31 18:00:24.0	356.870	-0.530	0.280	-0.420
2020/01/31 18:00:24.1	356.860	-0.500	0.240	-0.400
2020/01/31 18:00:24.2	356.850	-0.470	0.210	-0.390
2020/01/31 18:00:24.3	356.840	-0.430	0.170	-0.380
2020/01/31 18:00:24.4	356.830	-0.390	0.120	-0.360
2020/01/31 18:00:24.5	356.820	-0.360	0.080	-0.340
2020/01/31 18:00:24.6	356.810	-0.310	0.030	-0.320
2020/01/31 18:00:24.7	356.800	-0.270	-0.030	-0.300
2020/01/31 18:00:24.8	356.790	-0.230	-0.080	-0.290
2020/01/31 18:00:24.9	356.780	-0.180	-0.140	-0.270
2020/01/31 18:00:25.0	356.780	-0.140	-0.190	-0.240
2020/01/31 18:00:25.1	356.780	-0.090	-0.250	-0.220
2020/01/31 18:00:25.2	356.780	-0.050	-0.310	-0.200
2020/01/31 18:00:25.3	356.780	-0.000	-0.370	-0.180
2020/01/31 18:00:25.4	356.780	0.040	-0.430	-0.160
2020/01/31 18:00:25.5	356.790	0.090	-0.490	-0.130
2020/01/31 18:00:25.6	356.790	0.140	-0.550	-0.110
2020/01/31 18:00:25.7	356.800	0.180	-0.600	-0.090
2020/01/31 18:00:25.8	356.810	0.220	-0.660	-0.080
2020/01/31 18:00:25.9	356.830	0.270	-0.710	-0.060
2020/01/31 18:00:26.0	356.840	0.310	-0.760	-0.040
2020/01/31 18:00:26.1	356.860	0.350	-0.810	-0.030
2020/01/31 18:00:26.2	356.890	0.390	-0.850	-0.010
2020/01/31 18:00:26.3	356.910	0.430	-0.900	0.000
2020/01/31 18:00:26.4	356.940	0.460	-0.930	0.020
2020/01/31 18:00:26.5	356.970	0.490	-0.960	0.030
2020/01/31 18:00:26.6	356.990	0.520	-0.990	0.050
2020/01/31 18:00:26.7	357.030	0.550	-1.010	0.060
2020/01/31 18:00:26.8	357.060	0.580	-1.030	0.080
2020/01/31 18:00:26.9	357.090	0.600	-1.040	0.100
2020/01/31 18:00:27.0	357.120	0.620	-1.040	0.110
2020/01/31 18:00:27.1	357.160	0.640	-1.040	0.130
2020/01/31 18:00:27.2	357.190	0.650	-1.030	0.150
2020/01/31 18:00:27.3	357.220	0.670	-1.020	0.170
2020/01/31 18:00:27.4	357.250	0.670	-1.000	0.190
2020/01/31 18:00:27.5	357.280	0.680	-0.970	0.210
2020/01/31 18:00:27.6	357.300	0.680	-0.940	0.230
2020/01/31 18:00:27.7	357.330	0.680	-0.900	0.260
2020/01/31 18:00:27.8	357.340	0.680	-0.860	0.280
2020/01/31 18:00:27.9	357.360	0.680	-0.810	0.310
2020/01/31 18:00:28.0	357.380	0.670	-0.760	0.330
2020/01/31 18:00:28.1	357.400	0.660	-0.700	0.360
2020/01/31 18:00:28.2	357.410	0.640	-0.640	0.390
2020/01/31 18:00:28.3	357.430	0.620	-0.580	0.410
2020/01/31 18:00:28.4	357.440	0.600	-0.520	0.440
2020/01/31 18:00:28.5	357.450	0.580	-0.460	0.460
2020/01/31 18:00:28.6	357.460	0.560	-0.400	0.480
2020/01/31 18:00:28.7	357.470	0.530	-0.340	0.490
2020/01/31 18:00:28.8	357.480	0.500	-0.280	0.510
2020/01/31 18:00:28.9	357.490	0.470	-0.220	0.510
2020/01/31 18:00:29.0	357.500	0.430	-0.170	0.510
2020/01/31 18:00:29.1	357.500	0.400	-0.110	0.510
2020/01/31 18:00:29.2	357.510	0.360	-0.060	0.500
2020/01/31 18:00:29.3	357.510	0.320	-0.020	0.480
2020/01/31 18:00:29.4	357.510	0.280	0.030	0.460
2020/01/31 18:00:29.5	357.510	0.230	0.070	0.430
2020/01/31 18:00:29.6	357.500	0.190	0.110	0.400
2020/01/31 18:00:29.7	357.500	0.150	0.140	0.370
2020/01/31 18:00:29.8	357.490	0.100	0.170	0.320
2020/01/31 18:00:29.9	357.480	0.060	0.200	0.270
2020/01/31 18:00:30.0	357.470	0.010	0.220	0.220
2020/01/31 18:00:30.1	357.460	-0.030	0.240	0.170
2020/01/31 18:00:30.2	357.440	-0.080	0.260	0.110
2020/01/31 18:00:30.3	357.420	-0.120	0.270	0.060
2020/01/31 18:00:30.4	357.400	-0.160	0.280	0.000
2020/01/31 18:00:30.5	357.380	-0.210	0.290	-0.050
2020/01/31 18:00:30.6	357.360	-0.250	0.290	-0.110
2020/01/31 18:00:30.7	357.330	-0.290	0.300	-0.160
2020/01/31 18:00:30.8	357.310	-0.320	0.300	-0.210
2020/01/31 18:00:30.9	357.280	-0.360	0.300	-0.260
2020/01/31 18:00:31.0	357.250	-0.390	0.300	-0.310
2020/01/31 18:00:31.1	357.220	-0.420	0.300	-0.350
2020/01/31 18:00:31.2	357.180	-0.450	0.300	-0.390
2020/01/31 18:00:31.3	357.150	-0.470	0.300	-0.430
2020/01/31 18:00:31.4	357.120	-0.490	0.300	-0.460
2020/01/31 18:00:31.5	357.080	-0.510	0.300	-0.490
2020/01/31 18:00:31.6	357.050	-0.520	0.290	-0.520
2020/01/31 18:00:31.7	357.010	-0.530	0.290	-0.540
2020/01/31 18:00:31.8	356.980	-0.540	0.290	-0.560
2020/01/31 18:00:31.9	356.950	-0.540	0.280	-0.580
2020/01/31 18:00:32.0	356.920	-0.540	0.270	-0.600
2020/01/31 18:00:32.1	356.880	-0.530	0.270	-0.610
2020/01/31 18:00:32.2	356.850	-0.520	0.260	-0.610
2020/01/31 18:00:32.3	356.820	-0.510	0.250	-0.620
2020/01/31 18:00:32.4	356.780	-0.500	0.240	-0.620
2020/01/31 18:00:32.5	356.750	-0.480	0.220	-0.620
2020/01/31 18:00:32.6	356.720	-0.460	0.210	-0.620
2020/01/31 18:00:32.7	356.690	-0.440	0.190	-0.620
2020/01/31 18:00:32.8	356.670	-0.410	0.170	-0.610
2020/01/31 18:00:32.9	356.650	-0.380	0.150	-0.610
2020/01/31 18:00:33.0	356.620	-0.350	0.130	-0.600
2020/01/31 18:00:33.1	356.600	-0.320	0.100	-0.590
2020/01/31 18:00:33.2	356.580	-0.280	0.070	-0.570
2020/01/31 18:00:33.3	356.560	-0.240	0.040	-0.560
2020/01/31 18:00:33.4	356.540	-0.210	0.000	-0.540
2020/01/31 18:00:33.5	356.520	-0.170	-0.030	-0.530
2020/01/31 18:00:33.6	356.510	-0.130	-0.070	-0.510
2020/01/31 18:00:33.7	356.490	-0.090	-0.110	-0.490
2020/01/31 18:00:33.8	356.490	-0.050	-0.150	-0.460
2020/01/31 18:00:33.9	356.480	-0.010	-0.200	-0.440
2020/01/31 18:00:34.0	356.470	0.030	-0.240	-0.420
2020/01/31 18:00:34.1	356.460	0.070	-0.290	-0.390
2020/01/31 18:00:34.2	356.460	0.100	-0.340	-0.360
2020/01/31 18:00:34.3	356.450	0.140	-0.380	-0.330
2020/01/31 18:00:34.4	356.450	0.170	-0.430	-0.310
2020/01/31 18:00:34.5	356.440	0.200	-0.480	-0.280
2020/01/31 18:00:34.6	356.440	0.230	-0.530	-0.250
2020/01/31 18:00:34.7	356.440	0.260	-0.570	-0.230
2020/01/31 18:00:34.8	356.440	0.280	-0.620	-0.200
2020/01/31 18:00:34.9	356.450	0.300	-0.660	-0.180
2020/01/31 18:00:35.0	356.450	0.320	-0.710	-0.150
2020/01/31 18:00:35.1	356.460	0.330	-0.750	-0.130
2020/01/31 18:00:35.2	356.470	0.340	-0.790	-0.120
2020/01/31 18:00:35.3	356.480	0.350	-0.830	-0.100
2020/01/31 18:00:35.4	356.490	0.360	-0.870	-0.090
2020/01/31 18:00:35.5	356.510	0.360	-0.900	-0.080
2020/01/31 18:00:35.6	356.530	0.360	-0.930	-0.070
2020/01/31 18:00:35.7	356.550	0.350	-0.960	-0.070
2020/01/31 18:00:35.8	356.580	0.340	-0.990	-0.070
2020/01/31 18:00:35.9	356.610	0.330	-1.010	-0.080
2020/01/31 18:00:36.0	356.640	0.320	-1.040	-0.090
2020/01/31 18:00:36.1	356.680	0.310	-1.050	-0.100
2020/01/31 18:00:36.2	356.710	0.290	-1.060	-0.120
2020/01/31 18:00:36.3	356.750	0.270	-1.070	-0.140
2020/01/31 18:00:36.4	356.800	0.250	-1.080	-0.170
2020/01/31 18:00:36.5	356.840	0.220	-1.080	-0.190
2020/01/31 18:00:36.6	356.890	0.200	-1.070	-0.220
2020/01/31 18:00:36.7	356.930	0.170	-1.060	-0.250
2020/01/31 18:00:36.8	356.970	0.140	-1.050	-0.280
2020/01/31 18:00:36.9	357.010	0.110	-1.030	-0.310
2020/01/31 18:00:37.0	357.060	0.080	-1.000	-0.340
2020/01/31 18:00:37.1	357.100	0.050	-0.970	-0.360
2020/01/31 18:00:37.2	357.140	0.020	-0.930	-0.390
2020/01/31 18:00:37.3	357.180	-0.010	-0.890	-0.410
2020/01/31 18:00:37.4	357.210	-0.050	-0.840	-0.430
2020/01/31 18:00:37.5	357.250	-0.080	-0.780	-0.450
2020/01/31 18:00:37.6	357.280	-0.110	-0.720	-0.470
2020/01/31 18:00:37.7	357.300	-0.150	-0.660	-0.490
2020/01/31 18:00:37.8	357.320	-0.180	-0.590	-0.500
2020/01/31 18:00:37.9	357.340	-0.210	-0.520	-0.510
2020/01/31 18:00:38.0	357.350	-0.240	-0.440	-0.520
2020/01/31 18:00:38.1	357.370	-0.270	-0.360	-0.530
2020/01/31 18:00:38.2	357.370	-0.300	-0.270	-0.530
2020/01/31 18:00:38.3	357.380	-0.330	-0.190	-0.540
2020/01/31 18:00:38.4	357.370	-0.350	-0.100	-0.530
2020/01/31 18:00:38.5	357.370	-0.380	-0.010	-0.530
2020/01/31 18:00:38.6	357.360	-0.400	0.080	-0.530
2020/01/31 18:00:38.7	357.350	-0.420	0.160	-0.520
2020/01/31 18:00:38.8	357.320	-0.440	0.250	-0.510
2020/01/31 18:00:38.9	357.300	-0.460	0.330	-0.490
2020/01/31 18:00:39.0	357.280	-0.470	0.410	-0.470
2020/01/31 18:00:39.1	357.250	-0.480	0.480	-0.450
2020/01/31 18:00:39.2	357.220	-0.490	0.550	-0.430
2020/01/31 18:00:39.3	357.190	-0.490	0.620	-0.400
2020/01/31 18:00:39.4	357.160	-0.490	0.670	-0.370
2020/01/31 18:00:39.5	357.130	-0.490	0.720	-0.340
2020/01/31 18:00:39.6	357.090	-0.490	0.770	-0.310
2020/01/31 18:00:39.7	357.060	-0.480	0.800	-0.280
2020/01/31 18:00:39.8	357.020	-0.470	0.830	-0.240
2020/01/31 18:00:39.9	356.980	-0.460	0.840	-0.200
2020/01/31 18:00:40.0	356.950	-0.440	0.860	-0.170
2020/01/31 18:00:40.1	356.910	-0.420	0.860	-0.130
2020/01/31 18:00:40.2	356.870	-0.400	0.850	-0.090
2020/01/31 18:00:40.3	356.840	-0.370	0.840	-0.050
2020/01/31 18:00:40.4	356.800	-0.340	0.810	-0.010
2020/01/31 18:00:40.5	356.770	-0.300	0.780	0.030
2020/01/31 18:00:40.6	356.730	-0.270	0.740	0.070
2020/01/31 18:00:40.7	356.700	-0.230	0.700	0.110
2020/01/31 18:00:40.8	356.670	-0.190	0.640	0.140
2020/01/31 18:00:40.9	356.630	-0.140	0.590	0.180
2020/01/31 18:00:41.0	356.600	-0.100	0.520	0.220
2020/01/31 18:00:41.1	356.560	-0.050	0.450	0.260
2020/01/31 18:00:41.2	356.530	-0.000	0.380	0.300
2020/01/31 18:00:41.3	356.490	0.050	0.310	0.340
2020/01/31 18:00:41.4	356.460	0.100	0.230	0.370
2020/01/31 18:00:41.5	356.420	0.150	0.150	0.410
2020/01/31 18:00:41.6	356.390	0.200	0.070	0.440
2020/01/31 18:00:41.7	356.350	0.240	-0.010	0.480
2020/01/31 18:00:41.8	356.310	0.290	-0.090	0.510
2020/01/31 18:00:41.9	356.280	0.340	-0.160	0.540
2020/01/31 18:00:42.0	356.240	0.380	-0.230	0.570
2020/01/31 18:00:42.1	356.210	0.420	-0.300	0.590
2020/01/31 18:00:42.2	356.170	0.460	-0.370	0.620
2020/01/31 18:00:42.3	356.140	0.500	-0.430	0.640
2020/01/31 18:00:42.4	356.100	0.530	-0.490	0.650
2020/01/31 18:00:42.5	356.070	0.560	-0.540	0.670
2020/01/31 18:00:42.6	356.040	0.590	-0.590	0.680
2020/01/31 18:00:42.7	356.010	0.610	-0.630	0.690
2020/01/31 18:00:42.8	355.980	0.630	-0.660	0.690
2020/01/31 18:00:42.9	355.950	0.640	-0.690	0.690
2020/01/31 18:00:43.0	355.930	0.650	-0.720	0.690
2020/01/31 18:00:43.1	355.900	0.650	-0.740	0.680
2020/01/31 18:00:43.2	355.870	0.650	-0.760	0.670
2020/01/31 18:00:43.3	355.850	0.650	-0.780	0.660
2020/01/31 18:00:43.4	355.830	0.640	-0.790	0.640
2020/01/31 18:00:43.5	355.820	0.620	-0.800	0.620
2020/01/31 18:00:43.6	355.810	0.610	-0.800	0.600
2020/01/31 18:00:43.7	355.800	0.590	-0.810	0.570
2020/01/31 18:00:43.8	355.790	0.560	-0.820	0.530
2020/01/31 18:00:43.9	355.800	0.540	-0.820	0.500
2020/01/31 18:00:44.0	355.800	0.510	-0.830	0.450
2020/01/31 18:00:44.1	355.820	0.480	-0.840	0.410
2020/01/31 18:00:44.2	355.830	0.450	-0.840	0.360
2020/01/31 18:00:44.3	355.860	0.410	-0.850	0.300
2020/01/31 18:00:44.4	355.880	0.380	-0.860	0.240
2020/01/31 18:00:44.5	355.920	0.340	-0.880	0.180
2020/01/31 18:00:44.6	355.960	0.300	-0.890	0.110
2020/01/31 18:00:44.7	356.000	0.260	-0.900	0.040
2020/01/31 18:00:44.8	356.060	0.230	-0.920	-0.040
2020/01/31 18:00:44.9	356.110	0.190	-0.940	-0.110
2020/01/31 18:00:45.0	356.160	0.150	-0.960	-0.190
2020/01/31 18:00:45.1	356.220	0.120	-0.970	-0.280
2020/01/31 18:00:45.2	356.280	0.080	-0.990	-0.360
2020/01/31 18:00:45.3	356.340	0.050	-1.010	-0.440
2020/01/31 18:00:45.4	356.410	0.010	-1.020	-0.530
2020/01/31 18:00:45.5	356.470	-0.020	-1.030	-0.610
2020/01/31 18:00:45.6	356.540	-0.050	-1.040	-0.690
2020/01/31 18:00:45.7	356.600	-0.080	-1.040	-0.770
2020/01/31 18:00:45.8	356.650	-0.110	-1.040	-0.850
2020/01/31 18:00:45.9	356.710	-0.140	-1.030	-0.920
2020/01/31 18:00:46.0	356.770	-0.170	-1.020	-0.990
2020/01/31 18:00:46.1	356.830	-0.190	-1.000	-1.050
2020/01/31 18:00:46.2	356.880	-0.220	-0.970	-1.100
2020/01/31 18:00:46.3	356.920	-0.240	-0.940	-1.150
2020/01/31 18:00:46.4	356.960	-0.260	-0.900	-1.190
2020/01/31 18:00:46.5	357.000	-0.290	-0.850	-1.230
2020/01/31 18:00:46.6	357.030	-0.300	-0.790	-1.250
2020/01/31 18:00:46.7	357.060	-0.320	-0.720	-1.270
2020/01/31 18:00:46.8	357.080	-0.340	-0.650	-1.280
2020/01/31 18:00:46.9	357.090	-0.360	-0.570	-1.290
2020/01/31 18:00:47.0	357.100	-0.370	-0.480	-1.280
2020/01/31 18:00:47.1	357.110	-0.380	-0.400	-1.270
2020/01/31 18:00:47.2	357.110	-0.400	-0.300	-1.250
2020/01/31 18:00:47.3	357.110	-0.410	-0.210	-1.230
2020/01/31 18:00:47.4	357.100	-0.410	-0.110	-1.200
2020/01/31 18:00:47.5	357.090	-0.420	-0.010	-1.160
2020/01/31 18:00:47.6	357.070	-0.430	0.090	-1.120
2020/01/31 18:00:47.7	357.060	-0.430	0.180	-1.080
2020/01/31 18:00:47.8	357.030	-0.440	0.270	-1.030
2020/01/31 18:00:47.9	357.010	-0.440	0.360	-0.980
2020/01/31 18:00:48.0	356.990	-0.440	0.440	-0.930
2020/01/31 18:00:48.1	356.960	-0.440	0.520	-0.880
2020/01/31 18:00:48.2	356.940	-0.430	0.590	-0.830
2020/01/31 18:00:48.3	356.920	-0.430	0.650	-0.770
2020/01/31 18:00:48.4	356.890	-0.420	0.710	-0.720
2020/01/31 18:00:48.5	356.870	-0.410	0.750	-0.670
2020/01/31 18:00:48.6	356.850	-0.390	0.790	-0.620
2020/01/31 18:00:48.7	356.830	-0.380	0.820	-0.580
2020/01/31 18:00:48.8	356.810	-0.360	0.830	-0.530
2020/01/31 18:00:48.9	356.800	-0.340	0.840	-0.490
2020/01/31 18:00:49.0	356.780	-0.320	0.840	-0.450
2020/01/31 18:00:49.1	356.770	-0.300	0.820	-0.410
2020/01/31 18:00:49.2	356.760	-0.270	0.800	-0.380
2020/01/31 18:00:49.3	356.750	-0.240	0.770	-0.350
2020/01/31 18:00:49.4	356.740	-0.210	0.730	-0.320
2020/01/31 18:00:49.5	356.740	-0.180	0.680	-0.290
2020/01/31 18:00:49.6	356.730	-0.150	0.630	-0.270
2020/01/31 18:00:49.7	356.730	-0.120	0.570	-0.240
2020/01/31 18:00:49.8	356.730	-0.090	0.510	-0.220
2020/01/31 18:00:49.9	356.730	-0.050	0.450	-0.200
2020/01/31 18:00:50.0	356.730	-0.020	0.380	-0.180
2020/01/31 18:00:50.1	356.720	0.010	0.310	-0.160
2020/01/31 18:00:50.2	356.720	0.050	0.240	-0.150
2020/01/31 18:00:50.3	356.710	0.080	0.170	-0.130
2020/01/31 18:00:50.4	356.700	0.110	0.100	-0.120
2020/01/31 18:00:50.5	356.690	0.130	0.030	-0.110
2020/01/31 18:00:50.6	356.680	0.160	-0.040	-0.100
2020/01/31 18:00:50.7	356.670	0.180	-0.100	-0.100
2020/01/31 18:00:50.8	356.650	0.200	-0.150	-0.090
2020/01/31 18:00:50.9	356.630	0.210	-0.200	-0.090
2020/01/31 18:00:51.0	356.610	0.230	-0.250	-0.090
2020/01/31 18:00:51.1	356.590	0.240	-0.290	-0.090
2020/01/31 18:00:51.2	356.560	0.240	-0.330	-0.090
2020/01/31 18:00:51.3	356.540	0.240	-0.360	-0.100
2020/01/31 18:00:51.4	356.510	0.240	-0.380	-0.100
2020/01/31 18:00:51.5	356.480	0.240	-0.400	-0.110
2020/01/31 18:00:51.6	356.450	0.230	-0.420	-0.120
2020/01/31 18:00:51.7	356.410	0.210	-0.420	-0.130
2020/01/31 18:00:51.8	356.380	0.200	-0.430	-0.140
2020/01/31 18:00:51.9	356.340	0.180	-0.430	-0.150
2020/01/31 18:00:52.0	356.300	0.160	-0.420	-0.160
2020/01/31 18:00:52.1	356.270	0.130	-0.420	-0.170
2020/01/31 18:00:52.2	356.230	0.110	-0.410	-0.180
2020/01/31 18:00:52.3	356.200	0.080	-0.390	-0.190
2020/01/31 18:00:52.4	356.160	0.050	-0.380	-0.200
2020/01/31 18:00:52.5	356.130	0.020	-0.360	-0.210
2020/01/31 18:00:52.6	356.100	-0.010	-0.350	-0.210
2020/01/31 18:00:52.7	356.070	-0.040	-0.340	-0.220
2020/01/31 18:00:52.8	356.040	-0.070	-0.320	-0.230
2020/01/31 18:00:52.9	356.020	-0.090	-0.310	-0.240
2020/01/31 18:00:53.0	356.000	-0.120	-0.300	-0.250
2020/01/31 18:00:53.1	355.980	-0.140	-0.300	-0.260
2020/01/31 18:00:53.2	355.970	-0.160	-0.290	-0.270
2020/01/31 18:00:53.3	355.960	-0.180	-0.300	-0.290
2020/01/31 18:00:53.4	355.960	-0.190	-0.300	-0.300
2020/01/31 18:00:53.5	355.960	-0.200	-0.310	-0.320
2020/01/31 18:00:53.6	355.970	-0.210	-0.320	-0.330
2020/01/31 18:00:53.7	355.970	-0.210	-0.340	-0.350
2020/01/31 18:00:53.8	355.980	-0.200	-0.360	-0.380
2020/01/31 18:00:53.9	356.000	-0.200	-0.390	-0.400
2020/01/31 18:00:54.0	356.020	-0.190	-0.420	-0.430
2020/01/31 18:00:54.1	356.050	-0.170	-0.450	-0.450
2020/01/31 18:00:54.2	356.080	-0.160	-0.480	-0.480
2020/01/31 18:00:54.3	356.110	-0.140	-0.510	-0.510
2020/01/31 18:00:54.4	356.150	-0.110	-0.540	-0.540
2020/01/31 18:00:54.5	356.180	-0.090	-0.580	-0.570
2020/01/31 18:00:54.6	356.220	-0.060	-0.610	-0.600
2020/01/31 18:00:54.7	356.260	-0.030	-0.640	-0.630
2020/01/31 18:00:54.8	356.310	0.010	-0.670	-0.660
2020/01/31 18:00:54.9	356.340	0.040	-0.700	-0.690
2020/01/31 18:00:55.0	356.380	0.070	-0.720	-0.710
2020/01/31 18:00:55.1	356.420	0.110	-0.740	-0.730
2020/01/31 18:00:55.2	356.450	0.140	-0.750	-0.740
2020/01/31 18:00:55.3	356.490	0.180	-0.760	-0.750
2020/01/31 18:00:55.4	356.520	0.210	-0.770	-0.760
2020/01/31 18:00:55.5	356.550	0.240	-0.770	-0.760
2020/01/31 18:00:55.6	356.570	0.270	-0.760	-0.760
2020/01/31 18:00:55.7	356.590	0.290	-0.750	-0.750
2020/01/31 18:00:55.8	356.600	0.310	-0.730	-0.730
2020/01/31 18:00:55.9	356.620	0.330	-0.710	-0.710
2020/01/31 18:00:56.0	356.630	0.350	-0.680	-0.680
2020/01/31 18:00:56.1	356.640	0.360	-0.650	-0.650
2020/01/31 18:00:56.2	356.650	0.360	-0.610	-0.620
2020/01/31 18:00:56.3	356.660	0.360	-0.570	-0.580
2020/01/31 18:00:56.4	356.660	0.360	-0.530	-0.540
2020/01/31 18:00:56.5	356.670	0.360	-0.480	-0.500
2020/01/31 18:00:56.6	356.670	0.340	-0.440	-0.460
2020/01/31 18:00:56.7	356.670	0.330	-0.390	-0.420
2020/01/31 18:00:56.8	356.660	0.310	-0.340	-0.380
2020/01/31 18:00:56.9	356.660	0.280	-0.290	-0.340
2020/01/31 18:00:57.0	356.660	0.260	-0.240	-0.300
2020/01/31 18:00:57.1	356.660	0.230	-0.200	-0.260
2020/01/31 18:00:57.2	356.660	0.190	-0.150	-0.230
2020/01/31 18:00:57.3	356.660	0.160	-0.110	-0.200
2020/01/31 18:00:57.4	356.660	0.120	-0.080	-0.180
2020/01/31 18:00:57.5	356.670	0.080	-0.040	-0.160
2020/01/31 18:00:57.6	356.670	0.040	-0.020	-0.150
2020/01/31 18:00:57.7	356.680	-0.000	0.010	-0.140
2020/01/31 18:00:57.8	356.680	-0.040	0.020	-0.140
2020/01/31 18:00:57.9	356.690	-0.080	0.030	-0.140
2020/01/31 18:00:58.0	356.700	-0.120	0.040	-0.140
2020/01/31 18:00:58.1	356.710	-0.160	0.040	-0.150
2020/01/31 18:00:58.2	356.720	-0.200	0.040	-0.160
2020/01/31 18:00:58.3	356.730	-0.230	0.030	-0.170
2020/01/31 18:00:58.4	356.740	-0.260	0.020	-0.180
2020/01/31 18:00:58.5	356.760	-0.290	0.010	-0.200
2020/01/31 18:00:58.6	356.770	-0.310	-0.010	-0.210
2020/01/31 18:00:58.7	356.780	-0.330	-0.030	-0.230
2020/01/31 18:00:58.8	356.790	-0.340	-0.060	-0.250
2020/01/31 18:00:58.9	356.800	-0.350	-0.080	-0.260
2020/01/31 18:00:59.0	356.810	-0.360	-0.110	-0.270
2020/01/31 18:00:59.1	356.810	-0.370	-0.130	-0.280
2020/01/31 18:00:59.2	356.820	-0.360	-0.160	-0.280
2020/01/31 18:00:59.3	356.830	-0.360	-0.180	-0.290
2020/01/31 18:00:59.4	356.830	-0.350	-0.210	-0.290
2020/01/31 18:00:59.5	356.830	-0.340	-0.230	-0.300
2020/01/31 18:00:59.6	356.840	-0.330	-0.260	-0.300
2020/01/31 18:00:59.7	356.840	-0.320	-0.280	-0.300
2020/01/31 18:00:59.8	356.830	-0.300	-0.300	-0.290
2020/01/31 18:00:59.9	356.830	-0.280	-0.310	-0.290
2020/01/31 18:01:00.0	356.820	-0.260	-0.330	-0.290
2020/01/31 18:01:00.1	356.820	-0.240	-0.340	-0.290
2020/01/31 18:01:00.2	356.810	-0.220	-0.350	-0.290
2020/01/31 18:01:00.3	356.810	-0.190	-0.360	-0.290
2020/01/31 18:01:00.4	356.800	-0.170	-0.370	-0.290
2020/01/31 18:01:00.5	356.790	-0.150	-0.370	-0.290
2020/01/31 18:01:00.6	356.780	-0.130	-0.370	-0.290
2020/01/31 18:01:00.7	356.780	-0.110	-0.370	-0.290
2020/01/31 18:01:00.8	356.780	-0.090	-0.360	-0.290
2020/01/31 18:01:00.9	356.770	-0.080	-0.360	-0.290
2020/01/31 18:01:01.0	356.770	-0.060	-0.350	-0.300
2020/01/31 18:01:01.1	356.760	-0.050	-0.340	-0.300
2020/01/31 18:01:01.2	356.750	-0.030	-0.330	-0.310
2020/01/31 18:01:01.3	356.750	-0.020	-0.320	-0.310
2020/01/31 18:01:01.4	356.740	-0.010	-0.310	-0.320
2020/01/31 18:01:01.5	356.740	-0.010	-0.300	-0.320
2020/01/31 18:01:01.6	356.740	-0.000	-0.280	-0.330
2020/01/31 18:01:01.7	356.740	0.000	-0.270	-0.330
2020/01/31 18:01:01.8	356.730	0.010	-0.260	-0.340
2020/01/31 18:01:01.9	356.730	0.010	-0.240	-0.340
2020/01/31 18:01:02.0	356.730	0.010	-0.230	-0.340
2020/01/31 18:01:02.1	356.730	0.010	-0.220	-0.340
2020/01/31 18:01:02.2	356.730	0.010	-0.210	-0.340
2020/01/31 18:01:02.3	356.730	0.010	-0.190	-0.340
2020/01/31 18:01:02.4	356.730	0.010	-0.180	-0.340
2020/01/31 18:01:02.5	356.730	0.010	-0.170	-0.330
2020/01/31 18:01:02.6	356.740	0.010	-0.170	-0.330
2020/01/31 18:01:02.7	356.740	0.010	-0.160	-0.320
2020/01/31 18:01:02.8	356.740	0.010	-0.150	-0.320
2020/01/31 18:01:02.9	356.750	0.010	-0.150	-0.320
2020/01/31 18:01:03.0	356.750	0.010	-0.140	-0.310
2020/01/31 18:01:03.1	356.760	0.020	-0.140	-0.300
2020/01/31 18:01:03.2	356.760	0.020	-0.140	-0.290
2020/01/31 18:01:03.3	356.770	0.020	-0.150	-0.290
2020/01/31 18:01:03.4	356.780	0.030	-0.150	-0.280
2020/01/31 18:01:03.5	356.780	0.040	-0.160	-0.270
2020/01/31 18:01:03.6	356.790	0.050	-0.160	-0.260
2020/01/31 18:01:03.7	356.800	0.060	-0.170	-0.250
2020/01/31 18:01:03.8	356.820	0.070	-0.180	-0.240
2020/01/31 18:01:03.9	356.830	0.080	-0.190	-0.240
2020/01/31 18:01:04.0	356.830	0.100	-0.200	-0.230
2020/01/31 18:01:04.1	356.840	0.120	-0.210	-0.220
2020/01/31 18:01:04.2	356.850	0.130	-0.220	-0.210
2020/01/31 18:01:04.3	356.860	0.150	-0.230	-0.190
2020/01/31 18:01:04.4	356.870	0.170	-0.230	-0.180
2020/01/31 18:01:04.5	356.870	0.190	-0.240	-0.170
2020/01/31 18:01:04.6	356.880	0.210	-0.250	-0.150
2020/01/31 18:01:04.7	356.880	0.230	-0.250	-0.130
2020/01/31 18:01:04.8	356.890	0.250	-0.250	-0.120
2020/01/31 18:01:04.9	356.890	0.260	-0.250	-0.100
2020/01/31 18:01:05.0	356.890	0.280	-0.250	-0.080
2020/01/31 18:01:05.1	356.880	0.300	-0.240	-0.050
2020/01/31 18:01:05.2	356.880	0.320	-0.220	-0.030
2020/01/31 18:01:05.3	356.870	0.330	-0.210	-0.000
2020/01/31 18:01:05.4	356.870	0.340	-0.190	0.030
2020/01/31 18:01:05.5	356.860	0.360	-0.170	0.050
2020/01/31 18:01:05.6	356.850	0.370	-0.140	0.080
2020/01/31 18:01:05.7	356.840	0.380	-0.110	0.110
2020/01/31 18:01:05.8	356.820	0.380	-0.080	0.140
2020/01/31 18:01:05.9	356.800	0.390	-0.050	0.180
2020/01/31 18:01:06.0	356.790	0.390	-0.010	0.210
2020/01/31 18:01:06.1	356.770	0.390	0.030	0.240
2020/01/31 18:01:06.2	356.760	0.390	0.070	0.280
2020/01/31 18:01:06.3	356.740	0.390	0.110	0.310
2020/01/31 18:01:06.4	356.730	0.390	0.150	0.340
2020/01/31 18:01:06.5	356.710	0.380	0.190	0.380
2020/01/31 18:01:06.6	356.690	0.380	0.230	0.410
2020/01/31 18:01:06.7	356.680	0.370	0.260	0.440
2020/01/31 18:01:06.8	356.670	0.360	0.290	0.460
2020/01/31 18:01:06.9	356.660	0.340	0.320	0.490
2020/01/31 18:01:07.0	356.650	0.330	0.350	0.510
2020/01/31 18:01:07.1	356.640	0.310	0.370	0.540
2020/01/31 18:01:07.2	356.640	0.300	0.380	0.550
2020/01/31 18:01:07.3	356.630	0.280	0.390	0.560
2020/01/31 18:01:07.4	356.630	0.260	0.400	0.570
2020/01/31 18:01:07.5	356.630	0.240	0.390	0.580
2020/01/31 18:01:07.6	356.640	0.220	0.380	0.570
2020/01/31 18:01:07.7	356.640	0.200	0.370	0.570
2020/01/31 18:01:07.8	356.650	0.180	0.350	0.550
2020/01/31 18:01:07.9	356.660	0.160	0.320	0.540
2020/01/31 18:01:08.0	356.670	0.130	0.280	0.510
2020/01/31 18:01:08.1	356.690	0.110	0.240	0.480
2020/01/31 18:01:08.2	356.710	0.080	0.190	0.450
2020/01/31 18:01:08.3	356.720	0.050	0.140	0.410
2020/01/31 18:01:08.4	356.750	0.030	0.080	0.370
2020/01/31 18:01:08.5	356.770	-0.000	0.010	0.320
2020/01/31 18:01:08.6	356.790	-0.030	-0.060	0.270
2020/01/31 18:01:08.7	356.810	-0.060	-0.130	0.210
2020/01/31 18:01:08.8	356.830	-0.090	-0.210	0.150
2020/01/31 18:01:08.9	356.860	-0.120	-0.280	0.090
2020/01/31 18:01:09.0	356.880	-0.150	-0.360	0.020
2020/01/31 18:01:09.1	356.900	-0.180	-0.450	-0.040
2020/01/31 18:01:09.2	356.920	-0.210	-0.530	-0.110
2020/01/31 18:01:09.3	356.940	-0.240	-0.610	-0.190
2020/01/31 18:01:09.4	356.960	-0.270	-0.680	-0.260
2020/01/31 18:01:09.5	356.990	-0.300	-0.760	-0.340
2020/01/31 18:01:09.6	357.010	-0.330	-0.830	-0.410
2020/01/31 18:01:09.7	357.030	-0.360	-0.900	-0.490
2020/01/31 18:01:09.8	357.040	-0.390	-0.960	-0.570
2020/01/31 18:01:09.9	357.060	-0.420	-1.020	-0.640
2020/01/31 18:01:10.0	357.080	-0.450	-1.070	-0.720
2020/01/31 18:01:10.1	357.100	-0.470	-1.120	-0.790
2020/01/31 18:01:10.2	357.120	-0.490	-1.160	-0.850
2020/01/31 18:01:10.3	357.140	-0.520	-1.190	-0.920
2020/01/31 18:01:10.4	357.160	-0.540	-1.220	-0.980
2020/01/31 18:01:10.5	357.180	-0.550	-1.230	-1.040
2020/01/31 18:01:10.6	357.210	-0.570	-1.250	-1.090
2020/01/31 18:01:10.7	357.230	-0.580	-1.250	-1.140
2020/01/31 18:01:10.8	357.240	-0.590	-1.250	-1.190
2020/01/31 18:01:10.9	357.270	-0.600	-1.250	-1.230
2020/01/31 18:01:11.0	357.290	-0.600	-1.230	-1.270
2020/01/31 18:01:11.1	357.320	-0.610	-1.220	-1.300
2020/01/31 18:01:11.2	357.350	-0.600	-1.200	-1.330
2020/01/31 18:01:11.3	357.380	-0.600	-1.170	-1.360
2020/01/31 18:01:11.4	357.420	-0.590	-1.140	-1.380
2020/01/31 18:01:11.5	357.450	-0.580	-1.110	-1.400
2020/01/31 18:01:11.6	357.480	-0.560	-1.070	-1.420
2020/01/31 18:01:11.7	357.520	-0.550	-1.040	-1.430
2020/01/31 18:01:11.8	357.540	-0.520	-0.990	-1.450
2020/01/31 18:01:11.9	357.580	-0.500	-0.950	-1.460
2020/01/31 18:01:12.0	357.610	-0.470	-0.910	-1.460
2020/01/31 18:01:12.1	357.650	-0.440	-0.870	-1.460
2020/01/31 18:01:12.2	357.680	-0.410	-0.820	-1.460
2020/01/31 18:01:12.3	357.710	-0.370	-0.780	-1.460
2020/01/31 18:01:12.4	357.750	-0.330	-0.730	-1.450
2020/01/31 18:01:12.5	357.780	-0.290	-0.690	-1.440
2020/01/31 18:01:12.6	357.810	-0.250	-0.640	-1.430
2020/01/31 18:01:12.7	357.840	-0.210	-0.590	-1.410
2020/01/31 18:01:12.8	357.860	-0.160	-0.550	-1.390
2020/01/31 18:01:12.9	357.880	-0.110	-0.500	-1.370
2020/01/31 18:01:13.0	357.910	-0.060	-0.460	-1.350
2020/01/31 18:01:13.1	357.930	-0.020	-0.410	-1.320
2020/01/31 18:01:13.2	357.950	0.030	-0.360	-1.290
2020/01/31 18:01:13.3	357.970	0.080	-0.320	-1.260
2020/01/31 18:01:13.4	357.990	0.130	-0.270	-1.220
2020/01/31 18:01:13.5	358.010	0.180	-0.220	-1.180
2020/01/31 18:01:13.6	358.020	0.230	-0.180	-1.140
2020/01/31 18:01:13.7	358.030	0.270	-0.130	-1.100
2020/01/31 18:01:13.8	358.060	0.310	-0.090	-1.050
2020/01/31 18:01:13.9	358.060	0.350	-0.040	-1.000
2020/01/31 18:01:14.0	358.070	0.390	0.000	-0.950
2020/01/31 18:01:14.1	358.080	0.430	0.040	-0.900
2020/01/31 18:01:14.2	358.080	0.460	0.090	-0.840
2020/01/31 18:01:14.3	358.080	0.490	0.130	-0.790
2020/01/31 18:01:14.4	358.070	0.520	0.170	-0.730
2020/01/31 18:01:14.5	358.070	0.540	0.210	-0.670
2020/01/31 18:01:14.6	358.060	0.560	0.250	-0.610
2020/01/31 18:01:14.7	358.050	0.580	0.280	-0.540
2020/01/31 18:01:14.8	358.040	0.590	0.320	-0.480
2020/01/31 18:01:14.9	358.020	0.600	0.350	-0.410
2020/01/31 18:01:15.0	358.010	0.600	0.390	-0.350
2020/01/31 18:01:15.1	357.980	0.600	0.420	-0.280
2020/01/31 18:01:15.2	357.960	0.600	0.450	-0.220
2020/01/31 18:01:15.3	357.930	0.600	0.490	-0.150
2020/01/31 18:01:15.4	357.900	0.590	0.510	-0.090
2020/01/31 18:01:15.5	357.870	0.570	0.540	-0.020
2020/01/31 18:01:15.6	357.830	0.560	0.570	0.040
2020/01/31 18:01:15.7	357.800	0.540	0.590	0.100
2020/01/31 18:01:15.8	357.750	0.520	0.620	0.160
2020/01/31 18:01:15.9	357.710	0.490	0.640	0.220
2020/01/31 18:01:16.0	357.670	0.470	0.650	0.280
2020/01/31 18:01:16.1	357.620	0.440	0.670	0.330
2020/01/31 18:01:16.2	357.580	0.410	0.680	0.380
2020/01/31 18:01:16.3	357.530	0.380	0.690	0.430
2020/01/31 18:01:16.4	357.490	0.350	0.700	0.470
2020/01/31 18:01:16.5	357.440	0.320	0.700	0.510
2020/01/31 18:01:16.6	357.390	0.280	0.690	0.550
2020/01/31 18:01:16.7	357.350	0.250	0.680	0.580
2020/01/31 18:01:16.8	357.310	0.220	0.670	0.600
2020/01/31 18:01:16.9	357.260	0.190	0.660	0.620
2020/01/31 18:01:17.0	357.220	0.160	0.640	0.630
2020/01/31 18:01:17.1	357.180	0.130	0.610	0.640
2020/01/31 18:01:17.2	357.140	0.100	0.580	0.650
2020/01/31 18:01:17.3	357.110	0.080	0.540	0.650
2020/01/31 18:01:17.4	357.070	0.060	0.500	0.640
2020/01/31 18:01:17.5	357.040	0.030	0.450	0.630
2020/01/31 18:01:17.6	357.000	0.010	0.400	0.620
2020/01/31 18:01:17.7	356.970	-0.000	0.350	0.600
2020/01/31 18:01:17.8	356.940	-0.020	0.290	0.570
2020/01/31 18:01:17.9	356.920	-0.030	0.230	0.540
2020/01/31 18:01:18.0	356.890	-0.050	0.170	0.510
2020/01/31 18:01:18.1	356.870	-0.060	0.100	0.480
2020/01/31 18:01:18.2	356.850	-0.070	0.040	0.440
2020/01/31 18:01:18.3	356.830	-0.070	-0.030	0.390
2020/01/31 18:01:18.4	356.810	-0.080	-0.090	0.350
2020/01/31 18:01:18.5	356.800	-0.090	-0.160	0.300
2020/01/31 18:01:18.6	356.780	-0.090	-0.230	0.250
2020/01/31 18:01:18.7	356.770	-0.100	-0.290	0.190
2020/01/31 18:01:18.8	356.760	-0.100	-0.360	0.130
2020/01/31 18:01:18.9	356.760	-0.110	-0.420	0.070
2020/01/31 18:01:19.0	356.750	-0.110	-0.480	0.010
2020/01/31 18:01:19.1	356.750	-0.110	-0.550	-0.050
2020/01/31 18:01:19.2	356.760	-0.120	-0.610	-0.120
2020/01/31 18:01:19.3	356.770	-0.120	-0.670	-0.180
2020/01/31 18:01:19.4	356.780	-0.130	-0.730	-0.250
2020/01/31 18:01:19.5	356.790	-0.130	-0.780	-0.320
2020/01/31 18:01:19.6	356.810	-0.140	-0.840	-0.390
2020/01/31 18:01:19.7	356.830	-0.150	-0.890	-0.460
2020/01/31 18:01:19.8	356.830	-0.150	-0.940	-0.540
2020/01/31 18:01:19.9	356.860	-0.160	-0.990	-0.610
2020/01/31 18:01:20.0	356.890	-0.160	-1.040	-0.680
2020/01/31 18:01:20.1	356.930	-0.170	-1.090	-0.750
2020/01/31 18:01:20.2	356.970	-0.170	-1.130	-0.830
2020/01/31 18:01:20.3	357.010	-0.180	-1.170	-0.900
2020/01/31 18:01:20.4	357.060	-0.180	-1.210	-0.970
2020/01/31 18:01:20.5	357.110	-0.190	-1.250	-1.040
2020/01/31 18:01:20.6	357.160	-0.190	-1.280	-1.110
2020/01/31 18:01:20.7	357.210	-0.190	-1.310	-1.170
2020/01/31 18:01:20.8	357.260	-0.200	-1.340	-1.250
2020/01/31 18:01:20.9	357.320	-0.200	-1.360	-1.310
2020/01/31 18:01:21.0	357.380	-0.200	-1.390	-1.370
2020/01/31 18:01:21.1	357.440	-0.190	-1.400	-1.420
2020/01/31 18:01:21.2	357.500	-0.190	-1.420	-1.480
2020/01/31 18:01:21.3	357.560	-0.190	-1.420	-1.520
2020/01/31 18:01:21.4	357.620	-0.180	-1.430	-1.570
2020/01/31 18:01:21.5	357.680	-0.170	-1.430	-1.610
2020/01/31 18:01:21.6	357.740	-0.170	-1.420	-1.650
2020/01/31 18:01:21.7	357.800	-0.160	-1.410	-1.680
2020/01/31 18:01:21.8	357.860	-0.150	-1.400	-1.710
2020/01/31 18:01:21.9	357.910	-0.130	-1.370	-1.730
2020/01/31 18:01:22.0	357.960	-0.120	-1.350	-1.750
2020/01/31 18:01:22.1	358.010	-0.110	-1.310	-1.760
2020/01/31 18:01:22.2	358.060	-0.100	-1.270	-1.770
2020/01/31 18:01:22.3	358.100	-0.080	-1.230	-1.770
2020/01/31 18:01:22.4	358.140	-0.070	-1.180	-1.760
2020/01/31 18:01:22.5	358.180	-0.050	-1.120	-1.750
2020/01/31 18:01:22.6	358.210	-0.030	-1.060	-1.740
2020/01/31 18:01:22.7	358.240	-0.020	-0.990	-1.720
2020/01/31 18:01:22.8	358.270	-0.000	-0.920	-1.680
2020/01/31 18:01:22.9	358.290	0.010	-0.840	-1.650
2020/01/31 18:01:23.0	358.310	0.030	-0.760	-1.610
2020/01/31 18:01:23.1	358.320	0.040	-0.680	-1.560
2020/01/31 18:01:23.2	358.340	0.050	-0.600	-1.510
2020/01/31 18:01:23.3	358.340	0.070	-0.510	-1.460
2020/01/31 18:01:23.4	358.350	0.080	-0.420	-1.400
2020/01/31 18:01:23.5	358.350	0.090	-0.330	-1.330
2020/01/31 18:01:23.6	358.350	0.090	-0.240	-1.270
2020/01/31 18:01:23.7	358.350	0.100	-0.150	-1.200
2020/01/31 18:01:23.8	358.350	0.110	-0.070	-1.120
2020/01/31 18:01:23.9	358.350	0.110	0.020	-1.050
2020/01/31 18:01:24.0	358.340	0.110	0.100	-0.970
2020/01/31 18:01:24.1	358.330	0.110	0.180	-0.890
2020/01/31 18:01:24.2	358.310	0.110	0.260	-0.820
2020/01/31 18:01:24.3	358.300	0.110	0.330	-0.740
2020/01/31 18:01:24.4	358.290	0.100	0.400	-0.670
2020/01/31 18:01:24.5	358.270	0.090	0.460	-0.600
2020/01/31 18:01:24.6	358.260	0.090	0.520	-0.520
2020/01/31 18:01:24.7	358.240	0.080	0.570	-0.450
2020/01/31 18:01:24.8	358.220	0.070	0.620	-0.380
2020/01/31 18:01:24.9	358.210	0.050	0.660	-0.320
2020/01/31 18:01:25.0	358.190	0.040	0.700	-0.260
2020/01/31 18:01:25.1	358.170	0.030	0.730	-0.200
2020/01/31 18:01:25.2	358.150	0.010	0.750	-0.140
2020/01/31 18:01:25.3	358.120	-0.000	0.770	-0.080
2020/01/31 18:01:25.4	358.100	-0.020	0.790	-0.030
2020/01/31 18:01:25.5	358.080	-0.030	0.810	0.020
2020/01/31 18:01:25.6	358.050	-0.050	0.820	0.070
2020/01/31 18:01:25.7	358.020	-0.070	0.820	0.110
2020/01/31 18:01:25.8	357.990	-0.080	0.820	0.150
2020/01/31 18:01:25.9	357.960	-0.100	0.820	0.190
2020/01/31 18:01:26.0	357.930	-0.110	0.820	0.230
2020/01/31 18:01:26.1	357.890	-0.130	0.820	0.270
2020/01/31 18:01:26.2	357.860	-0.140	0.810	0.300
2020/01/31 18:01:26.3	357.820	-0.160	0.800	0.330
2020/01/31 18:01:26.4	357.780	-0.170	0.790	0.360
2020/01/31 18:01:26.5	357.740	-0.180	0.780	0.390
2020/01/31 18:01:26.6	357.700	-0.190	0.760	0.410
2020/01/31 18:01:26.7	357.660	-0.200	0.750	0.430
2020/01/31 18:01:26.8	357.640	-0.210	0.730	0.440
2020/01/31 18:01:26.9	357.600	-0.220	0.710	0.450
2020/01/31 18:01:27.0	357.560	-0.230	0.680	0.460
2020/01/31 18:01:27.1	357.520	-0.230	0.660	0.470
2020/01/31 18:01:27.2	357.470	-0.230	0.630	0.470
2020/01/31 18:01:27.3	357.430	-0.240	0.590	0.470
2020/01/31 18:01:27.4	357.390	-0.240	0.560	0.470
2020/01/31 18:01:27.5	357.350	-0.230	0.520	0.460
2020/01/31 18:01:27.6	357.310	-0.230	0.480	0.450
2020/01/31 18:01:27.7	357.270	-0.220	0.430	0.450
2020/01/31 18:01:27.8	357.230	-0.220	0.380	0.430
2020/01/31 18:01:27.9	357.190	-0.210	0.330	0.420
2020/01/31 18:01:28.0	357.150	-0.190	0.280	0.410
2020/01/31 18:01:28.1	357.120	-0.180	0.220	0.390
2020/01/31 18:01:28.2	357.080	-0.160	0.160	0.380
2020/01/31 18:01:28.3	357.050	-0.150	0.100	0.370
2020/01/31 18:01:28.4	357.020	-0.130	0.040	0.350
2020/01/31 18:01:28.5	356.990	-0.100	-0.030	0.330
2020/01/31 18:01:28.6	356.960	-0.080	-0.100	0.310
2020/01/31 18:01:28.7	356.940	-0.050	-0.170	0.290
2020/01/31 18:01:28.8	356.920	-0.030	-0.240	0.270
2020/01/31 18:01:28.9	356.900	0.000	-0.320	0.240
2020/01/31 18:01:29.0	356.890	0.030	-0.400	0.220
2020/01/31 18:01:29.1	356.890	0.070	-0.470	0.190
2020/01/31 18:01:29.2	356.880	0.100	-0.550	0.160
2020/01/31 18:01:29.3	356.880	0.140	-0.630	0.130
2020/01/31 18:01:29.4	356.890	0.170	-0.710	0.090
2020/01/31 18:01:29.5	356.900	0.210	-0.790	0.050
2020/01/31 18:01:29.6	356.920	0.250	-0.870	0.010
2020/01/31 18:01:29.7	356.940	0.290	-0.950	-0.030
2020/01/31 18:01:29.8	356.940	0.330	-1.020	-0.080
2020/01/31 18:01:29.9	356.970	0.360	-1.100	-0.120
2020/01/31 18:01:30.0	357.000	0.400	-1.170	-0.170
2020/01/31 18:01:30.1	357.030	0.440	-1.230	-0.210
2020/01/31 18:01:30.2	357.070	0.470	-1.290	-0.260
2020/01/31 18:01:30.3	357.110	0.510	-1.340	-0.300
2020/01/31 18:01:30.4	357.150	0.540	-1.380	-0.340
2020/01/31 18:01:30.5	357.190	0.560	-1.420	-0.380
2020/01/31 18:01:30.6	357.230	0.590	-1.440	-0.410
2020/01/31 18:01:30.7	357.260	0.610	-1.460	-0.450
2020/01/31 18:01:30.8	357.290	0.620	-1.470	-0.480
2020/01/31 18:01:30.9	357.330	0.630	-1.460	-0.500
2020/01/31 18:01:31.0	357.360	0.640	-1.450	-0.530
2020/01/31 18:01:31.1	357.390	0.640	-1.420	-0.550
2020/01/31 18:01:31.2	357.410	0.630	-1.390	-0.560
2020/01/31 18:01:31.3	357.440	0.620	-1.340	-0.580
2020/01/31 18:01:31.4	357.460	0.600	-1.290	-0.590
2020/01/31 18:01:31.5	357.480	0.580	-1.220	-0.590
2020/01/31 18:01:31.6	357.490	0.550	-1.150	-0.600
2020/01/31 18:01:31.7	357.510	0.520	-1.070	-0.600
2020/01/31 18:01:31.8	357.530	0.480	-0.980	-0.600
2020/01/31 18:01:31.9	357.540	0.440	-0.890	-0.590
2020/01/31 18:01:32.0	357.550	0.390	-0.800	-0.590
2020/01/31 18:01:32.1	357.560	0.340	-0.700	-0.580
2020/01/31 18:01:32.2	357.560	0.290	-0.600	-0.560
2020/01/31 18:01:32.3	357.570	0.230	-0.500	-0.550
2020/01/31 18:01:32.4	357.580	0.170	-0.410	-0.540
2020/01/31 18:01:32.5	357.580	0.110	-0.310	-0.520
2020/01/31 18:01:32.6	357.590	0.050	-0.220	-0.510
2020/01/31 18:01:32.7	357.600	-0.020	-0.130	-0.490
2020/01/31 18:01:32.8	357.610	-0.080	-0.060	-0.480
2020/01/31 18:01:32.9	357.620	-0.150	0.020	-0.470
2020/01/31 18:01:33.0	357.630	-0.210	0.080	-0.460
2020/01/31 18:01:33.1	357.650	-0.270	0.140	-0.450
2020/01/31 18:01:33.2	357.660	-0.320	0.190	-0.440
2020/01/31 18:01:33.3	357.680	-0.380	0.230	-0.430
2020/01/31 18:01:33.4	357.700	-0.430	0.260	-0.420
2020/01/31 18:01:33.5	357.710	-0.480	0.280	-0.410
2020/01/31 18:01:33.6	357.730	-0.520	0.300	-0.410
2020/01/31 18:01:33.7	357.750	-0.560	0.300	-0.400
2020/01/31 18:01:33.8	357.780	-0.590	0.290	-0.400
2020/01/31 18:01:33.9	357.800	-0.620	0.280	-0.400
2020/01/31 18:01:34.0	357.820	-0.640	0.260	-0.400
2020/01/31 18:01:34.1	357.830	-0.650	0.230	-0.400
2020/01/31 18:01:34.2	357.850	-0.660	0.190	-0.400
2020/01/31 18:01:34.3	357.870	-0.670	0.140	-0.400
2020/01/31 18:01:34.4	357.890	-0.670	0.090	-0.400
2020/01/31 18:01:34.5	357.910	-0.660	0.040	-0.410
2020/01/31 18:01:34.6	357.930	-0.640	-0.020	-0.420
2020/01/31 18:01:34.7	357.950	-0.620	-0.080	-0.420
2020/01/31 18:01:34.8	357.970	-0.600	-0.140	-0.430
2020/01/31 18:01:34.9	358.000	-0.570	-0.210	-0.440
2020/01/31 18:01:35.0	358.020	-0.530	-0.270	-0.450
2020/01/31 18:01:35.1	358.040	-0.490	-0.340	-0.470
2020/01/31 18:01:35.2	358.070	-0.450	-0.400	-0.480
2020/01/31 18:01:35.3	358.090	-0.410	-0.460	-0.490
2020/01/31 18:01:35.4	358.120	-0.360	-0.520	-0.500
2020/01/31 18:01:35.5	358.150	-0.310	-0.570	-0.510
2020/01/31 18:01:35.6	358.170	-0.260	-0.610	-0.520
2020/01/31 18:01:35.7	358.200	-0.210	-0.660	-0.530
2020/01/31 18:01:35.8	358.220	-0.160	-0.690	-0.540
2020/01/31 18:01:35.9	358.240	-0.100	-0.720	-0.550
2020/01/31 18:01:36.0	358.260	-0.050	-0.740	-0.560
2020/01/31 18:01:36.1	358.280	-0.010	-0.760	-0.560
2020/01/31 18:01:36.2	358.300	0.040	-0.760	-0.570
2020/01/31 18:01:36.3	358.320	0.080	-0.760	-0.570
2020/01/31 18:01:36.4	358.330	0.120	-0.750	-0.570
2020/01/31 18:01:36.5	358.340	0.160	-0.730	-0.570
2020/01/31 18:01:36.6	358.350	0.190	-0.710	-0.570
2020/01/31 18:01:36.7	358.350	0.210	-0.680	-0.570
2020/01/31 18:01:36.8	358.350	0.240	-0.640	-0.570
2020/01/31 18:01:36.9	358.350	0.250	-0.590	-0.560
2020/01/31 18:01:37.0	358.350	0.260	-0.530	-0.550
2020/01/31 18:01:37.1	358.340	0.270	-0.470	-0.540
2020/01/31 18:01:37.2	358.320	0.270	-0.410	-0.530
2020/01/31 18:01:37.3	358.310	0.270	-0.330	-0.510
2020/01/31 18:01:37.4	358.290	0.260	-0.260	-0.490
2020/01/31 18:01:37.5	358.260	0.250	-0.170	-0.470
2020/01/31 18:01:37.6	358.230	0.240	-0.090	-0.440
2020/01/31 18:01:37.7	358.190	0.210	-0.000	-0.410
2020/01/31 18:01:37.8	358.160	0.190	0.090	-0.380
2020/01/31 18:01:37.9	358.120	0.160	0.180	-0.340
2020/01/31 18:01:38.0	358.070	0.130	0.270	-0.300
2020/01/31 18:01:38.1	358.020	0.100	0.360	-0.260
2020/01/31 18:01:38.2	357.960	0.060	0.450	-0.220
2020/01/31 18:01:38.3	357.910	0.030	0.530	-0.180
2020/01/31 18:01:38.4	357.850	-0.010	0.610	-0.140
2020/01/31 18:01:38.5	357.790	-0.040	0.690	-0.100
2020/01/31 18:01:38.6	357.720	-0.080	0.760	-0.070
2020/01/31 18:01:38.7	357.660	-0.110	0.830	-0.030
2020/01/31 18:01:38.8	357.600	-0.150	0.880	-0.000
2020/01/31 18:01:38.9	357.540	-0.180	0.930	0.020
2020/01/31 18:01:39.0	357.480	-0.200	0.970	0.050
2020/01/31 18:01:39.1	357.420	-0.230	1.000	0.070
2020/01/31 18:01:39.2	357.360	-0.240	1.030	0.080
2020/01/31 18:01:39.3	357.310	-0.260	1.040	0.090
2020/01/31 18:01:39.4	357.260	-0.270	1.040	0.100
2020/01/31 18:01:39.5	357.210	-0.270	1.030	0.100
2020/01/31 18:01:39.6	357.170	-0.270	1.000	0.100
2020/01/31 18:01:39.7	357.130	-0.260	0.970	0.090
2020/01/31 18:01:39.8	357.100	-0.250	0.930	0.070
2020/01/31 18:01:39.9	357.070	-0.230	0.880	0.050
2020/01/31 18:01:40.0	357.050	-0.200	0.820	0.020
2020/01/31 18:01:40.1	357.030	-0.170	0.750	-0.010
2020/01/31 18:01:40.2	357.020	-0.140	0.670	-0.040
2020/01/31 18:01:40.3	357.010	-0.100	0.580	-0.070
2020/01/31 18:01:40.4	357.010	-0.050	0.490	-0.110
2020/01/31 18:01:40.5	357.010	-0.000	0.390	-0.140
2020/01/31 18:01:40.6	357.010	0.050	0.290	-0.180
2020/01/31 18:01:40.7	357.010	0.110	0.180	-0.210
2020/01/31 18:01:40.8	357.010	0.160	0.080	-0.250
2020/01/31 18:01:40.9	357.020	0.220	-0.030	-0.290
2020/01/31 18:01:41.0	357.030	0.280	-0.140	-0.320
2020/01/31 18:01:41.1	357.040	0.340	-0.250	-0.350
2020/01/31 18:01:41.2	357.060	0.390	-0.360	-0.380
2020/01/31 18:01:41.3	357.070	0.450	-0.470	-0.400
2020/01/31 18:01:41.4	357.080	0.500	-0.570	-0.430
2020/01/31 18:01:41.5	357.090	0.550	-0.670	-0.450
2020/01/31 18:01:41.6	357.100	0.600	-0.770	-0.470
2020/01/31 18:01:41.7	357.110	0.640	-0.860	-0.480
2020/01/31 18:01:41.8	357.110	0.680	-0.940	-0.500
2020/01/31 18:01:41.9	357.120	0.710	-1.020	-0.510
2020/01/31 18:01:42.0	357.130	0.740	-1.080	-0.510
2020/01/31 18:01:42.1	357.130	0.760	-1.150	-0.520
2020/01/31 18:01:42.2	357.140	0.780	-1.200	-0.520
2020/01/31 18:01:42.3	357.140	0.780	-1.250	-0.520
2020/01/31 18:01:42.4	357.150	0.790	-1.290	-0.520
2020/01/31 18:01:42.5	357.150	0.780	-1.320	-0.510
2020/01/31 18:01:42.6	357.160	0.770	-1.340	-0.510
2020/01/31 18:01:42.7	357.160	0.750	-1.360	-0.510
2020/01/31 18:01:42.8	357.150	0.720	-1.370	-0.510
2020/01/31 18:01:42.9	357.150	0.690	-1.380	-0.510
2020/01/31 18:01:43.0	357.160	0.660	-1.370	-0.510
2020/01/31 18:01:43.1	357.160	0.610	-1.360	-0.510
2020/01/31 18:01:43.2	357.170	0.560	-1.350	-0.520
2020/01/31 18:01:43.3	357.170	0.510	-1.330	-0.520
2020/01/31 18:01:43.4	357.180	0.450	-1.300	-0.530
2020/01/31 18:01:43.5	357.190	0.390	-1.280	-0.550
2020/01/31 18:01:43.6	357.200	0.330	-1.240	-0.570
2020/01/31 18:01:43.7	357.220	0.260	-1.210	-0.590
2020/01/31 18:01:43.8	357.220	0.200	-1.170	-0.610
2020/01/31 18:01:43.9	357.240	0.130	-1.130	-0.640
2020/01/31 18:01:44.0	357.270	0.060	-1.080	-0.670
2020/01/31 18:01:44.1	357.290	-0.010	-1.040	-0.700
2020/01/31 18:01:44.2	357.320	-0.080	-0.990	-0.730
2020/01/31 18:01:44.3	357.360	-0.140	-0.950	-0.770
2020/01/31 18:01:44.4	357.390	-0.210	-0.900	-0.810
2020/01/31 18:01:44.5	357.430	-0.270	-0.850	-0.840
2020/01/31 18:01:44.6	357.470	-0.330	-0.810	-0.880
2020/01/31 18:01:44.7	357.520	-0.380	-0.760	-0.920
2020/01/31 18:01:44.8	357.560	-0.430	-0.720	-0.970
2020/01/31 18:01:44.9	357.610	-0.480	-0.670	-1.000
2020/01/31 18:01:45.0	357.660	-0.520	-0.620	-1.040
2020/01/31 18:01:45.1	357.710	-0.560	-0.570	-1.070
2020/01/31 18:01:45.2	357.760	-0.600	-0.530	-1.100
2020/01/31 18:01:45.3				
2020/01/31 18:01:45.4	357.810	-0.620	-0.480	-1.130
2020/01/31 18:01:45.5	357.900	-0.670	-0.380	-1.170
2020/01/31 18:01:45.6	357.950	-0.680	-0.340	-1.190
2020/01/31 18:01:45.7	358.000	-0.700	-0.290	-1.200
2020/01/31 18:01:45.8	358.040	-0.710	-0.240	-1.210
2020/01/31 18:01:45.9	358.080	-0.710	-0.190	-1.210
2020/01/31 18:01:46.0	358.110	-0.710	-0.140	-1.210
2020/01/31 18:01:46.1	358.140	-0.710	-0.080	-1.200
2020/01/31 18:01:46.2	358.170	-0.710	-0.030	-1.200
2020/01/31 18:01:46.3	358.200	-0.700	0.020	-1.190
2020/01/31 18:01:46.4	358.220	-0.690	0.070	-1.170
2020/01/31 18:01:46.5	358.230	-0.680	0.120	-1.160
2020/01/31 18:01:46.6	358.250	-0.670	0.170	-1.140
2020/01/31 18:01:46.7	358.250	-0.650	0.220	-1.120
2020/01/31 18:01:46.8	358.260	-0.640	0.260	-1.100
2020/01/31 18:01:46.9	358.270	-0.620	0.310	-1.080
2020/01/31 18:01:47.0	358.260	-0.600	0.350	-1.050
2020/01/31 18:01:47.1	358.260	-0.590	0.390	-1.030
2020/01/31 18:01:47.2	358.250	-0.570	0.430	-1.000
2020/01/31 18:01:47.3	358.240	-0.550	0.470	-0.980
2020/01/31 18:01:47.4				
2020/01/31 18:01:47.5	358.230	-0.530	0.500	-0.950
2020/01/31 18:01:47.6	358.200	-0.490	0.540	-0.890
2020/01/31 18:01:47.7	358.180	-0.470	0.560	-0.860
2020/01/31 18:01:47.8	358.160	-0.450	0.570	-0.830
2020/01/31 18:01:47.9	358.140	-0.430	0.580	-0.800
2020/01/31 18:01:48.0	358.110	-0.410	0.590	-0.760
2020/01/31 18:01:48.1	358.090	-0.390	0.590	-0.720
2020/01/31 18:01:48.2	358.060	-0.370	0.580	-0.680
2020/01/31 18:01:48.3	358.040	-0.350	0.570	-0.630
2020/01/31 18:01:48.4	358.010	-0.330	0.560	-0.590
2020/01/31 18:01:48.5	357.970	-0.310	0.540	-0.540
2020/01/31 18:01:48.6	357.940	-0.290	0.520	-0.490
2020/01/31 18:01:48.7	357.910	-0.270	0.500	-0.440
2020/01/31 18:01:48.8	357.870	-0.240	0.470	-0.380
2020/01/31 18:01:48.9	357.840	-0.220	0.440	-0.330
2020/01/31 18:01:49.0	357.800	-0.200	0.410	-0.280
2020/01/31 18:01:49.1	357.770	-0.170	0.370	-0.230
2020/01/31 18:01:49.2	357.730	-0.140	0.330	-0.180
2020/01/31 18:01:49.3	357.700	-0.120	0.290	-0.140
2020/01/31 18:01:49.4	357.670	-0.090	0.250	-0.090
2020/01/31 18:01:49.5				
2020/01/31 18:01:49.6	357.630	-0.060	0.210	-0.050
2020/01/31 18:01:49.7	357.560	-0.000	0.120	0.030
2020/01/31 18:01:49.8	357.530	0.030	0.070	0.070
2020/01/31 18:01:49.9	357.500	0.060	0.020	0.100
2020/01/31 18:01:50.0	357.470	0.090	-0.020	0.130
2020/01/31 18:01:50.1	357.440	0.130	-0.070	0.160
2020/01/31 18:01:50.2	357.410	0.160	-0.120	0.190
2020/01/31 18:01:50.3	357.380	0.200	-0.160	0.210
2020/01/31 18:01:50.4	357.350	0.230	-0.200	0.240
2020/01/31 18:01:50.5	357.330	0.270	-0.240	0.260
2020/01/31 18:01:50.6	357.300	0.310	-0.280	0.280
2020/01/31 18:01:50.7	357.270	0.340	-0.310	0.300
2020/01/31 18:01:50.8	357.260	0.370	-0.340	0.310
2020/01/31 18:01:50.9	357.230	0.410	-0.370	0.330
2020/01/31 18:01:51.0	357.210	0.440	-0.400	0.350
2020/01/31 18:01:51.1	357.190	0.470	-0.420	0.360
2020/01/31 18:01:51.2	357.170	0.500	-0.440	0.380
2020/01/31 18:01:51.3	357.150	0.520	-0.450	0.390
2020/01/31 18:01:51.4	357.130	0.550	-0.460	0.400
2020/01/31 18:01:51.5	357.110	0.570	-0.470	0.410
2020/01/31 18:01:51.6	357.100	0.590	-0.480	0.410
2020/01/31 18:01:51.7	357.090	0.610	-0.490	0.410
2020/01/31 18:01:51.8	357.090	0.620	-0.500	0.410
2020/01/31 18:01:51.9	357.090	0.630	-0.500	0.400
2020/01/31 18:01:52.0	357.080	0.640	-0.500	0.390
2020/01/31 18:01:52.1	357.090	0.640	-0.510	0.380
2020/01/31 18:01:52.2	357.090	0.650	-0.510	0.370
2020/01/31 18:01:52.3	357.100	0.650	-0.520	0.350
2020/01/31 18:01:52.4	357.110	0.650	-0.520	0.330
2020/01/31 18:01:52.5	357.120	0.640	-0.530	0.300
2020/01/31 18:01:52.6	357.140	0.630	-0.540	0.270
2020/01/31 18:01:52.7	357.160	0.630	-0.550	0.240
2020/01/31 18:01:52.8	357.190	0.610	-0.560	0.200
2020/01/31 18:01:52.9	357.220	0.600	-0.570	0.150
2020/01/31 18:01:53.0	357.250	0.590	-0.590	0.110
2020/01/31 18:01:53.1	357.290	0.570	-0.600	0.060
2020/01/31 18:01:53.2	357.330	0.550	-0.620	0.010
2020/01/31 18:01:53.3	357.370	0.530	-0.640	-0.040
2020/01/31 18:01:53.4	357.410	0.510	-0.660	-0.100
2020/01/31 18:01:53.5	357.460	0.490	-0.680	-0.150
2020/01/31 18:01:53.6	357.510	0.470	-0.690	-0.210
2020/01/31 18:01:53.7	357.570	0.450	-0.710	-0.270
2020/01/31 18:01:53.8	357.620	0.420	-0.730	-0.330
2020/01/31 18:01:53.9	357.670	0.400	-0.750	-0.390
2020/01/31 18:01:54.0	357.730	0.370	-0.760	-0.450
2020/01/31 18:01:54.1	357.780	0.340	-0.770	-0.500
2020/01/31 18:01:54.2	357.830	0.320	-0.780	-0.550
2020/01/31 18:01:54.3	357.880	0.290	-0.780	-0.590
2020/01/31 18:01:54.4	357.930	0.260	-0.780	-0.630
2020/01/31 18:01:54.5	357.970	0.230	-0.780	-0.670
2020/01/31 18:01:54.6	358.010	0.190	-0.760	-0.700
2020/01/31 18:01:54.7	358.050	0.160	-0.750	-0.730
2020/01/31 18:01:54.8	358.090	0.130	-0.730	-0.760
2020/01/31 18:01:54.9	358.120	0.100	-0.700	-0.780
2020/01/31 18:01:55.0	358.150	0.060	-0.670	-0.800
2020/01/31 18:01:55.1	358.170	0.030	-0.640	-0.810
2020/01/31 18:01:55.2	358.190	-0.010	-0.600	-0.820
2020/01/31 18:01:55.3	358.200	-0.040	-0.560	-0.820
2020/01/31 18:01:55.4	358.220	-0.070	-0.520	-0.820
2020/01/31 18:01:55.5	358.230	-0.110	-0.470	-0.820
2020/01/31 18:01:55.6	358.240	-0.140	-0.420	-0.820
2020/01/31 18:01:55.7	358.240	-0.170	-0.380	-0.810
2020/01/31 18:01:55.8	358.240	-0.200	-0.330	-0.800
2020/01/31 18:01:55.9	358.240	-0.230	-0.280	-0.790
2020/01/31 18:01:56.0	358.240	-0.260	-0.230	-0.770
2020/01/31 18:01:56.1	358.240	-0.280	-0.190	-0.760
2020/01/31 18:01:56.2	358.240	-0.310	-0.150	-0.740
2020/01/31 18:01:56.3	358.240	-0.330	-0.110	-0.730
2020/01/31 18:01:56.4	358.250	-0.350	-0.070	-0.710
2020/01/31 18:01:56.5	358.250	-0.360	-0.040	-0.700
2020/01/31 18:01:56.6	358.250	-0.380	-0.020	-0.690
2020/01/31 18:01:56.7	358.250	-0.390	0.000	-0.680
2020/01/31 18:01:56.8	358.260	-0.390	0.020	-0.670
2020/01/31 18:01:56.9	358.260	-0.400	0.030	-0.660
2020/01/31 18:01:57.0	358.270	-0.400	0.030	-0.650
2020/01/31 18:01:57.1	358.270	-0.400	0.030	-0.650
2020/01/31 18:01:57.2	358.280	-0.400	0.020	-0.650
2020/01/31 18:01:57.3	358.290	-0.400	0.010	-0.650
2020/01/31 18:01:57.4	358.300	-0.390	-0.000	-0.660
2020/01/31 18:01:57.5	358.310	-0.380	-0.020	-0.670
2020/01/31 18:01:57.6	358.320	-0.370	-0.050	-0.680
2020/01/31 18:01:57.7	358.330	-0.350	-0.080	-0.700
2020/01/31 18:01:57.8	358.350	-0.340	-0.110	-0.710
2020/01/31 18:01:57.9				
2020/01/31 18:01:58.0	358.360	-0.320	-0.140	-0.730
2020/01/31 18:01:58.1	358.390	-0.280	-0.210	-0.780
2020/01/31 18:01:58.2	358.400	-0.270	-0.240	-0.800
2020/01/31 18:01:58.3	358.410	-0.250	-0.270	-0.820
2020/01/31 18:01:58.4	358.420	-0.230	-0.310	-0.840
2020/01/31 18:01:58.5	358.430	-0.210	-0.340	-0.870
2020/01/31 18:01:58.6	358.440	-0.190	-0.360	-0.890
2020/01/31 18:01:58.7	358.450	-0.170	-0.390	-0.910
2020/01/31 18:01:58.8	358.460	-0.150	-0.410	-0.930
2020/01/31 18:01:58.9	358.470	-0.130	-0.420	-0.950
2020/01/31 18:01:59.0	358.470	-0.120	-0.430	-0.960
2020/01/31 18:01:59.1	358.470	-0.100	-0.430	-0.980
2020/01/31 18:01:59.2	358.470	-0.090	-0.430	-0.990
2020/01/31 18:01:59.3	358.470	-0.080	-0.420	-1.000
2020/01/31 18:01:59.4	358.460	-0.070	-0.410	-1.000
2020/01/31 18:01:59.5	358.450	-0.070	-0.380	-1.000
2020/01/31 18:01:59.6	358.440	-0.060	-0.350	-1.000
2020/01/31 18:01:59.7	358.420	-0.060	-0.320	-0.990
2020/01/31 18:01:59.8	358.400	-0.060	-0.280	-0.980
2020/01/31 18:01:59.9	358.380	-0.070	-0.230	-0.970
2020/01/31 18:02:00.0				
2020/01/31 18:02:00.1	358.350	-0.070	-0.170	-0.950
2020/01/31 18:02:00.2	358.290	-0.090	-0.050	-0.910
2020/01/31 18:02:00.3	358.260	-0.100	0.020	-0.880
2020/01/31 18:02:00.4	358.220	-0.120	0.090	-0.850
2020/01/31 18:02:00.5	358.180	-0.130	0.160	-0.820
2020/01/31 18:02:00.6	358.140	-0.150	0.230	-0.780
2020/01/31 18:02:00.7	358.090	-0.170	0.300	-0.740
2020/01/31 18:02:00.8	358.030	-0.190	0.380	-0.700
2020/01/31 18:02:00.9	357.990	-0.210	0.450	-0.660
2020/01/31 18:02:01.0	357.950	-0.230	0.510	-0.620
2020/01/31 18:02:01.1	357.900	-0.250	0.570	-0.580
2020/01/31 18:02:01.2	357.860	-0.270	0.630	-0.540
2020/01/31 18:02:01.3	357.820	-0.290	0.680	-0.500
2020/01/31 18:02:01.4	357.780	-0.310	0.730	-0.460
2020/01/31 18:02:01.5	357.740	-0.330	0.760	-0.420
2020/01/31 18:02:01.6	357.700	-0.350	0.800	-0.390
2020/01/31 18:02:01.7	357.670	-0.370	0.820	-0.350
2020/01/31 18:02:01.8	357.650	-0.380	0.830	-0.330
2020/01/31 18:02:01.9	357.630	-0.390	0.830	-0.310
2020/01/31 18:02:02.0	357.610	-0.400	0.830	-0.280
2020/01/31 18:02:02.1				
2020/01/31 18:02:02.2	357.590	-0.400	0.810	-0.270
2020/01/31 18:02:02.3	357.570	-0.400	0.750	-0.250
2020/01/31 18:02:02.4	357.570	-0.390	0.710	-0.250
2020/01/31 18:02:02.5	357.580	-0.380	0.650	-0.250
2020/01/31 18:02:02.6	357.590	-0.360	0.590	-0.260
2020/01/31 18:02:02.7	357.610	-0.340	0.510	-0.270
2020/01/31 18:02:02.8	357.620	-0.310	0.430	-0.290
2020/01/31 18:02:02.9	357.650	-0.280	0.330	-0.310
2020/01/31 18:02:03.0	357.680	-0.250	0.230	-0.330
2020/01/31 18:02:03.1	357.720	-0.210	0.130	-0.360
2020/01/31 18:02:03.2	357.760	-0.170	0.010	-0.380
2020/01/31 18:02:03.3	357.800	-0.120	-0.100	-0.410
2020/01/31 18:02:03.4	357.840	-0.070	-0.220	-0.430
2020/01/31 18:02:03.5	357.880	-0.020	-0.340	-0.460
2020/01/31 18:02:03.6	357.920	0.030	-0.450	-0.480
2020/01/31 18:02:03.7	357.960	0.080	-0.570	-0.500
2020/01/31 18:02:03.8	358.010	0.130	-0.690	-0.520
2020/01/31 18:02:03.9	358.040	0.190	-0.800	-0.540
2020/01/31 18:02:04.0	358.070	0.240	-0.900	-0.550
2020/01/31 18:02:04.1	358.100	0.290	-1.000	-0.560
2020/01/31 18:02:04.2				
2020/01/31 18:02:04.3	358.130	0.340	-1.100	-0.570
2020/01/31 18:02:04.4	358.170	0.440	-1.260	-0.590
2020/01/31 18:02:04.5	358.190	0.480	-1.340	-0.600
2020/01/31 18:02:04.6	358.200	0.520	-1.400	-0.600
2020/01/31 18:02:04.7	358.210	0.560	-1.450	-0.610
2020/01/31 18:02:04.8	358.220	0.590	-1.500	-0.610
2020/01/31 18:02:04.9	358.230	0.620	-1.530	-0.620
2020/01/31 18:02:05.0	358.230	0.640	-1.560	-0.620
2020/01/31 18:02:05.1	358.230	0.660	-1.570	-0.620
2020/01/31 18:02:05.2	358.230	0.680	-1.580	-0.620
2020/01/31 18:02:05.3	358.220	0.690	-1.580	-0.630
2020/01/31 18:02:05.4	358.220	0.690	-1.560	-0.630
2020/01/31 18:02:05.5	358.210	0.690	-1.540	-0.630
2020/01/31 18:02:05.6	358.200	0.690	-1.510	-0.620
2020/01/31 18:02:05.7	358.190	0.680	-1.470	-0.620
2020/01/31 18:02:05.8	358.200	0.660	-1.420	-0.620
2020/01/31 18:02:05.9	358.190	0.640	-1.370	-0.620
2020/01/31 18:02:06.0	358.180	0.620	-1.310	-0.610
2020/01/31 18:02:06.1	358.170	0.600	-1.240	-0.610
2020/01/31 18:02:06.2	358.160	0.570	-1.160	-0.600
2020/01/31 18:02:06.3				
2020/01/31 18:02:06.4	358.160	0.540	-1.080	-0.590
2020/01/31 18:02:06.5	358.150	0.460	-0.910	-0.580
2020/01/31 18:02:06.6	358.140	0.420	-0.820	-0.570
2020/01/31 18:02:06.7	358.140	0.380	-0.720	-0.560
2020/01/31 18:02:06.8	358.140	0.340	-0.620	-0.550
2020/01/31 18:02:06.9	358.140	0.300	-0.530	-0.550
2020/01/31 18:02:07.0	358.140	0.250	-0.430	-0.540
2020/01/31 18:02:07.1	358.140	0.210	-0.330	-0.530
2020/01/31 18:02:07.2	358.140	0.160	-0.240	-0.530
2020/01/31 18:02:07.3	358.150	0.120	-0.140	-0.520
2020/01/31 18:02:07.4	358.150	0.070	-0.050	-0.520
2020/01/31 18:02:07.5	358.160	0.030	0.040	-0.520
2020/01/31 18:02:07.6	358.170	-0.010	0.120	-0.510
2020/01/31 18:02:07.7	358.180	-0.050	0.200	-0.510
2020/01/31 18:02:07.8	358.180	-0.090	0.270	-0.510
2020/01/31 18:02:07.9	358.190	-0.120	0.340	-0.520
2020/01/31 18:02:08.0	358.200	-0.160	0.400	-0.520
2020/01/31 18:02:08.1	358.210	-0.190	0.460	-0.520
2020/01/31 18:02:08.2	358.220	-0.220	0.520	-0.520
2020/01/31 18:02:08.3	358.230	-0.240	0.560	-0.530
2020/01/31 18:02:08.4				
2020/01/31 18:02:08.5	358.240	-0.270	0.600	-0.530
2020/01/31 18:02:08.6	358.260	-0.310	0.660	-0.530
2020/01/31 18:02:08.7	358.270	-0.320	0.680	-0.530
2020/01/31 18:02:08.8	358.270	-0.330	0.700	-0.540
2020/01/31 18:02:08.9	358.270	-0.340	0.710	-0.530
2020/01/31 18:02:09.0	358.280	-0.350	0.710	-0.530
2020/01/31 18:02:09.1	358.280	-0.350	0.700	-0.520
2020/01/31 18:02:09.2	358.280	-0.350	0.690	-0.510
2020/01/31 18:02:09.3	358.280	-0.350	0.680	-0.500
2020/01/31 18:02:09.4	358.280	-0.340	0.660	-0.490
2020/01/31 18:02:09.5	358.280	-0.340	0.630	-0.480
2020/01/31 18:02:09.6	358.280	-0.330	0.600	-0.470
2020/01/31 18:02:09.7	358.280	-0.320	0.560	-0.450
2020/01/31 18:02:09.8	358.270	-0.310	0.520	-0.440
2020/01/31 18:02:09.9	358.260	-0.290	0.480	-0.420
2020/01/31 18:02:10.0	358.260	-0.270	0.430	-0.410
2020/01/31 18:02:10.1	358.260	-0.260	0.380	-0.390
2020/01/31 18:02:10.2	358.260	-0.240	0.330	-0.380
2020/01/31 18:02:10.3	358.250	-0.220	0.270	-0.360
2020/01/31 18:02:10.4	358.250	-0.200	0.210	-0.340
2020/01/31 18:02:10.5				
2020/01/31 18:02:10.6	358.250	-0.180	0.150	-0.330
2020/01/31 18:02:10.7	358.250	-0.130	0.020	-0.300
2020/01/31 18:02:10.8	358.250	-0.100	-0.050	-0.290
2020/01/31 18:02:10.9	358.250	-0.080	-0.110	-0.270
2020/01/31 18:02:11.0	358.250	-0.050	-0.180	-0.250
2020/01/31 18:02:11.1	358.250	-0.030	-0.250	-0.240
2020/01/31 18:02:11.2	358.260	0.000	-0.310	-0.220
2020/01/31 18:02:11.3	358.260	0.030	-0.370	-0.200
2020/01/31 18:02:11.4	358.260	0.050	-0.440	-0.180
2020/01/31 18:02:11.5	358.270	0.080	-0.500	-0.160
2020/01/31 18:02:11.6	358.270	0.100	-0.550	-0.140
2020/01/31 18:02:11.7	358.280	0.130	-0.610	-0.120
2020/01/31 18:02:11.8	358.290	0.150	-0.660	-0.100
2020/01/31 18:02:11.9	358.290	0.170	-0.700	-0.090
2020/01/31 18:02:12.0	358.300	0.190	-0.750	-0.070
2020/01/31 18:02:12.1	358.310	0.210	-0.790	-0.060
2020/01/31 18:02:12.2	358.310	0.230	-0.820	-0.050
2020/01/31 18:02:12.3	358.320	0.240	-0.850	-0.040
2020/01/31 18:02:12.4	358.330	0.260	-0.880	-0.040
2020/01/31 18:02:12.5	358.340	0.270	-0.900	-0.030
2020/01/31 18:02:12.6				
2020/01/31 18:02:12.7	358.350	0.280	-0.910	-0.030
2020/01/31 18:02:12.8	358.370	0.290	-0.930	-0.040
2020/01/31 18:02:12.9	358.370	0.290	-0.930	-0.050
2020/01/31 18:02:13.0	358.390	0.290	-0.920	-0.060
2020/01/31 18:02:13.1	358.400	0.290	-0.910	-0.070
2020/01/31 18:02:13.2	358.410	0.280	-0.890	-0.080
2020/01/31 18:02:13.3	358.420	0.270	-0.870	-0.100
2020/01/31 18:02:13.4	358.430	0.260	-0.850	-0.110
2020/01/31 18:02:13.5	358.450	0.250	-0.810	-0.130
2020/01/31 18:02:13.6	358.460	0.230	-0.780	-0.150
2020/01/31 18:02:13.7	358.470	0.210	-0.740	-0.170
2020/01/31 18:02:13.8	358.490	0.190	-0.690	-0.190
2020/01/31 18:02:13.9	358.500	0.170	-0.640	-0.210
2020/01/31 18:02:14.0	358.510	0.140	-0.590	-0.230
2020/01/31 18:02:14.1	358.530	0.120	-0.540	-0.250
2020/01/31 18:02:14.2	358.540	0.090	-0.480	-0.270
2020/01/31 18:02:14.3	358.550	0.060	-0.420	-0.290
2020/01/31 18:02:14.4	358.560	0.020	-0.350	-0.310
2020/01/31 18:02:14.5	358.580	-0.010	-0.290	-0.330
2020/01/31 18:02:14.6	358.590	-0.040	-0.220	-0.350
2020/01/31 18:02:14.7				
2020/01/31 18:02:14.8	358.600	-0.080	-0.160	-0.370
2020/01/31 18:02:14.9	358.620	-0.150	-0.030	-0.400
2020/01/31 18:02:15.0	358.620	-0.180	0.040	-0.420
2020/01/31 18:02:15.1	358.620	-0.220	0.100	-0.430
2020/01/31 18:02:15.2	358.630	-0.250	0.160	-0.440
2020/01/31 18:02:15.3	358.630	-0.280	0.220	-0.450
2020/01/31 18:02:15.4	358.620	-0.310	0.280	-0.450
2020/01/31 18:02:15.5	358.620	-0.340	0.330	-0.450
2020/01/31 18:02:15.6	358.610	-0.360	0.380	-0.450
2020/01/31 18:02:15.7	358.610	-0.390	0.430	-0.450
2020/01/31 18:02:15.8	358.590	-0.410	0.470	-0.450
2020/01/31 18:02:15.9	358.580	-0.430	0.510	-0.440
2020/01/31 18:02:16.0	358.570	-0.440	0.540	-0.430
2020/01/31 18:02:16.1	358.560	-0.450	0.560	-0.420
2020/01/31 18:02:16.2	358.550	-0.460	0.580	-0.410
2020/01/31 18:02:16.3	358.540	-0.470	0.590	-0.400
2020/01/31 18:02:16.4	358.530	-0.470	0.590	-0.380
2020/01/31 18:02:16.5	358.520	-0.470	0.590	-0.370
2020/01/31 18:02:16.6	358.510	-0.460	0.580	-0.350
2020/01/31 18:02:16.7	358.490	-0.450	0.570	-0.330
2020/01/31 18:02:16.8				
2020/01/31 18:02:16.9	358.490	-0.440	0.540	-0.320
2020/01/31 18:02:17.0	358.470	-0.400	0.470	-0.290
2020/01/31 18:02:17.1	358.460	-0.380	0.430	-0.270
2020/01/31 18:02:17.2	358.460	-0.350	0.380	-0.260
2020/01/31 18:02:17.3	358.450	-0.330	0.320	-0.250
2020/01/31 18:02:17.4	358.450	-0.290	0.260	-0.240
2020/01/31 18:02:17.5	358.450	-0.260	0.190	-0.240
2020/01/31 18:02:17.6	358.450	-0.230	0.120	-0.240
2020/01/31 18:02:17.7	358.460	-0.190	0.040	-0.230
2020/01/31 18:02:17.8	358.470	-0.150	-0.030	-0.240
2020/01/31 18:02:17.9	358.480	-0.110	-0.110	-0.240
2020/01/31 18:02:18.0	358.490	-0.070	-0.200	-0.250
2020/01/31 18:02:18.1	358.510	-0.030	-0.280	-0.260
2020/01/31 18:02:18.2	358.520	0.010	-0.370	-0.270
2020/01/31 18:02:18.3	358.540	0.050	-0.450	-0.290
2020/01/31 18:02:18.4	358.560	0.090	-0.530	-0.300
2020/01/31 18:02:18.5	358.580	0.120	-0.620	-0.320
2020/01/31 18:02:18.6	358.600	0.160	-0.700	-0.340
2020/01/31 18:02:18.7	358.620	0.200	-0.780	-0.370
2020/01/31 18:02:18.8	358.630	0.230	-0.850	-0.400
2020/01/31 18:02:18.9				
2020/01/31 18:02:19.0	358.660	0.260	-0.920	-0.420
2020/01/31 18:02:19.1	358.720	0.320	-1.050	-0.480
2020/01/31 18:02:19.2	358.740	0.340	-1.100	-0.510
2020/01/31 18:02:19.3	358.770	0.360	-1.150	-0.540
2020/01/31 18:02:19.4	358.800	0.380	-1.190	-0.570
2020/01/31 18:02:19.5	358.830	0.400	-1.220	-0.600
2020/01/31 18:02:19.6	358.870	0.410	-1.250	-0.630
2020/01/31 18:02:19.7	358.900	0.420	-1.260	-0.660
2020/01/31 18:02:19.8	358.920	0.420	-1.270	-0.700
2020/01/31 18:02:19.9	358.960	0.430	-1.270	-0.730
2020/01/31 18:02:20.0	358.990	0.430	-1.270	-0.760
2020/01/31 18:02:20.1	359.020	0.420	-1.250	-0.790
2020/01/31 18:02:20.2	359.050	0.410	-1.230	-0.810
2020/01/31 18:02:20.3	359.080	0.410	-1.200	-0.840
2020/01/31 18:02:20.4	359.110	0.390	-1.160	-0.860
2020/01/31 18:02:20.5	359.130	0.380	-1.110	-0.880
2020/01/31 18:02:20.6	359.160	0.360	-1.060	-0.900
2020/01/31 18:02:20.7	359.180	0.340	-1.000	-0.910
2020/01/31 18:02:20.8	359.210	0.320	-0.940	-0.930
2020/01/31 18:02:20.9	359.230	0.300	-0.870	-0.940
2020/01/31 18:02:21.0				
2020/01/31 18:02:21.1	359.250	0.270	-0.790	-0.940
2020/01/31 18:02:21.2	359.290	0.220	-0.640	-0.940
2020/01/31 18:02:21.3	359.310	0.200	-0.560	-0.940
2020/01/31 18:02:21.4	359.330	0.170	-0.480	-0.930
2020/01/31 18:02:21.5	359.340	0.150	-0.400	-0.920
2020/01/31 18:02:21.6	359.350	0.120	-0.310	-0.910
2020/01/31 18:02:21.7	359.370	0.100	-0.230	-0.890
2020/01/31 18:02:21.8	359.370	0.070	-0.160	-0.870
2020/01/31 18:02:21.9	359.380	0.050	-0.080	-0.850
2020/01/31 18:02:22.0	359.390	0.030	-0.010	-0.820
2020/01/31 18:02:22.1	359.400	0.010	0.060	-0.800
2020/01/31 18:02:22.2	359.400	-0.000	0.130	-0.760
2020/01/31 18:02:22.3	359.410	-0.020	0.190	-0.730
2020/01/31 18:02:22.4	359.410	-0.030	0.250	-0.700
2020/01/31 18:02:22.5	359.420	-0.040	0.310	-0.660
2020/01/31 18:02:22.6	359.420	-0.050	0.360	-0.620
2020/01/31 18:02:22.7	359.420	-0.060	0.400	-0.580
2020/01/31 18:02:22.8	359.410	-0.070	0.440	-0.540
2020/01/31 18:02:22.9	359.410	-0.070	0.480	-0.500
2020/01/31 18:02:23.0	359.410	-0.070	0.510	-0.460
2020/01/31 18:02:23.1				
2020/01/31 18:02:23.2	359.400	-0.070	0.540	-0.420
2020/01/31 18:02:23.3	359.390	-0.060	0.580	-0.340
2020/01/31 18:02:23.4	359.390	-0.060	0.590	-0.310
2020/01/31 18:02:23.5	359.380	-0.050	0.600	-0.270
2020/01/31 18:02:23.6	359.370	-0.040	0.600	-0.240
2020/01/31 18:02:23.7	359.370	-0.030	0.600	-0.200
2020/01/31 18:02:23.8	359.370	-0.020	0.590	-0.180
2020/01/31 18:02:23.9	359.360	-0.010	0.580	-0.150
2020/01/31 18:02:24.0	359.340	-0.000	0.560	-0.120
2020/01/31 18:02:24.1	359.330	0.010	0.540	-0.090
2020/01/31 18:02:24.2	359.320	0.020	0.520	-0.060
2020/01/31 18:02:24.3	359.310	0.030	0.490	-0.040
2020/01/31 18:02:24.4	359.290	0.040	0.460	-0.010
2020/01/31 18:02:24.5	359.270	0.050	0.420	0.010
2020/01/31 18:02:24.6	359.260	0.060	0.390	0.030
2020/01/31 18:02:24.7	359.240	0.070	0.350	0.040
2020/01/31 18:02:24.8	359.230	0.080	0.310	0.060
2020/01/31 18:02:24.9	359.210	0.080	0.260	0.070
2020/01/31 18:02:25.0	359.190	0.090	0.210	0.080
2020/01/31 18:02:25.1	359.170	0.090	0.160	0.090
2020/01/31 18:02:25.2				
2020/01/31 18:02:25.3	359.150	0.090	0.110	0.090
2020/01/31 18:02:25.4	359.120	0.090	0.000	0.090
2020/01/31 18:02:25.5	359.100	0.090	-0.050	0.080
2020/01/31 18:02:25.6	359.080	0.080	-0.110	0.070
2020/01/31 18:02:25.7	359.070	0.080	-0.170	0.050
2020/01/31 18:02:25.8	359.050	0.070	-0.230	0.030
2020/01/31 18:02:25.9	359.040	0.060	-0.280	0.000
2020/01/31 18:02:26.0	359.040	0.050	-0.340	-0.030
2020/01/31 18:02:26.1	359.030	0.040	-0.400	-0.060
2020/01/31 18:02:26.2	359.030	0.030	-0.460	-0.090
2020/01/31 18:02:26.3	359.030	0.020	-0.510	-0.130
2020/01/31 18:02:26.4	359.030	0.010	-0.570	-0.170
2020/01/31 18:02:26.5	359.040	-0.010	-0.620	-0.210
2020/01/31 18:02:26.6	359.050	-0.020	-0.670	-0.260
2020/01/31 18:02:26.7	359.060	-0.040	-0.720	-0.310
2020/01/31 18:02:26.8	359.060	-0.050	-0.760	-0.360
2020/01/31 18:02:26.9	359.080	-0.060	-0.800	-0.410
2020/01/31 18:02:27.0	359.090	-0.080	-0.840	-0.460
2020/01/31 18:02:27.1	359.110	-0.090	-0.870	-0.510
2020/01/31 18:02:27.2	359.130	-0.100	-0.900	-0.560
2020/01/31 18:02:27.3				
2020/01/31 18:02:27.4	359.160	-0.120	-0.930	-0.610
2020/01/31 18:02:27.5	359.200	-0.140	-0.960	-0.710
2020/01/31 18:02:27.6	359.230	-0.150	-0.970	-0.750
2020/01/31 18:02:27.7	359.250	-0.170	-0.970	-0.800
2020/01/31 18:02:27.8	359.280	-0.180	-0.960	-0.840
2020/01/31 18:02:27.9	359.310	-0.190	-0.950	-0.880
2020/01/31 18:02:28.0	359.330	-0.200	-0.930	-0.910
2020/01/31 18:02:28.1	359.360	-0.210	-0.910	-0.940
2020/01/31 18:02:28.2	359.380	-0.230	-0.880	-0.970
2020/01/31 18:02:28.3	359.400	-0.240	-0.840	-1.000
2020/01/31 18:02:28.4	359.420	-0.250	-0.800	-1.020
2020/01/31 18:02:28.5	359.440	-0.260	-0.760	-1.040
2020/01/31 18:02:28.6	359.460	-0.270	-0.710	-1.060
2020/01/31 18:02:28.7	359.480	-0.280	-0.650	-1.070
2020/01/31 18:02:28.8	359.490	-0.290	-0.600	-1.080
2020/01/31 18:02:28.9	359.500	-0.300	-0.540	-1.080
2020/01/31 18:02:29.0	359.520	-0.310	-0.480	-1.090
2020/01/31 18:02:29.1	359.540	-0.320	-0.410	-1.090
2020/01/31 18:02:29.2	359.550	-0.320	-0.350	-1.080
2020/01/31 18:02:29.3	359.570	-0.330	-0.290	-1.070
2020/01/31 18:02:29.4				
2020/01/31 18:02:29.5	359.580	-0.330	-0.230	-1.070
2020/01/31 18:02:29.6	359.610	-0.340	-0.120	-1.040
2020/01/31 18:02:29.7	359.620	-0.340	-0.070	-1.020
2020/01/31 18:02:29.8	359.620	-0.330	-0.020	-1.010
2020/01/31 18:02:29.9	359.630	-0.330	0.020	-0.990
2020/01/31 18:02:30.0	359.650	-0.320	0.060	-0.960
2020/01/31 18:02:30.1	359.660	-0.310	0.090	-0.940
2020/01/31 18:02:30.2	359.670	-0.300	0.120	-0.910
2020/01/31 18:02:30.3	359.670	-0.290	0.140	-0.870
2020/01/31 18:02:30.4	359.680	-0.270	0.160	-0.840
2020/01/31 18:02:30.5	359.690	-0.250	0.170	-0.810
2020/01/31 18:02:30.6	359.690	-0.230	0.180	-0.770
2020/01/31 18:02:30.7	359.700	-0.200	0.180	-0.730
2020/01/31 18:02:30.8	359.710	-0.180	0.180	-0.690
2020/01/31 18:02:30.9	359.710	-0.150	0.170	-0.640
2020/01/31 18:02:31.0	359.710	-0.120	0.160	-0.600
2020/01/31 18:02:31.1				
2020/01/31 18:02:31.2	359.710	-0.090	0.140	-0.550
2020/01/31 18:02:31.3				
2020/01/31 18:02:31.4	359.700	-0.020	0.100	-0.460
2020/01/31 18:02:31.5				
2020/01/31 18:02:31.6	359.680	0.060	0.050	-0.370
2020/01/31 18:02:31.7	359.670	0.130	-0.010	-0.280
2020/01/31 18:02:31.8	359.660	0.170	-0.040	-0.230
2020/01/31 18:02:31.9	359.650	0.210	-0.080	-0.190
2020/01/31 18:02:32.0	359.630	0.250	-0.110	-0.150
2020/01/31 18:02:32.1	359.620	0.280	-0.140	-0.120
2020/01/31 18:02:32.2	359.610	0.320	-0.180	-0.080
2020/01/31 18:02:32.3	359.600	0.350	-0.210	-0.050
2020/01/31 18:02:32.4				
2020/01/31 18:02:32.5	359.580	0.380	-0.240	-0.020
2020/01/31 18:02:32.6	359.560	0.440	-0.300	0.020
2020/01/31 18:02:32.7	359.550	0.460	-0.330	0.040
2020/01/31 18:02:32.8	359.540	0.480	-0.350	0.050
2020/01/31 18:02:32.9				
2020/01/31 18:02:33.0	359.530	0.500	-0.380	0.060
2020/01/31 18:02:33.1	359.510	0.520	-0.420	0.070
2020/01/31 18:02:33.2	359.500	0.530	-0.440	0.070
2020/01/31 18:02:33.3	359.490	0.530	-0.460	0.060
2020/01/31 18:02:33.4	359.490	0.530	-0.470	0.050
2020/01/31 18:02:33.5	359.480	0.520	-0.490	0.030
2020/01/31 18:02:33.6				
2020/01/31 18:02:33.7	359.480	0.510	-0.500	0.010
2020/01/31 18:02:33.8	359.480	0.480	-0.510	-0.030
2020/01/31 18:02:33.9	359.490	0.460	-0.510	-0.060
2020/01/31 18:02:34.0				
2020/01/31 18:02:34.1	359.490	0.440	-0.520	-0.090
2020/01/31 18:02:34.2	359.510	0.390	-0.510	-0.150
2020/01/31 18:02:34.3	359.520	0.360	-0.510	-0.180
2020/01/31 18:02:34.4	359.530	0.330	-0.500	-0.220
2020/01/31 18:02:34.5				
2020/01/31 18:02:34.6	359.540	0.300	-0.490	-0.250
2020/01/31 18:02:34.7	359.560	0.240	-0.470	-0.320
2020/01/31 18:02:34.8	359.580	0.200	-0.450	-0.360
2020/01/31 18:02:34.9	359.600	0.170	-0.430	-0.400
2020/01/31 18:02:35.0				
2020/01/31 18:02:35.1	359.610	0.140	-0.420	-0.430
2020/01/31 18:02:35.2	359.630	0.070	-0.380	-0.500
2020/01/31 18:02:35.3	359.630	0.040	-0.360	-0.530
2020/01/31 18:02:35.4	359.640	0.010	-0.340	-0.560
2020/01/31 18:02:35.5	359.650	-0.020	-0.320	-0.590
2020/01/31 18:02:35.6	359.650	-0.050	-0.300	-0.610
2020/01/31 18:02:35.7				
2020/01/31 18:02:35.8	359.660	-0.070	-0.280	-0.640
2020/01/31 18:02:35.9	359.670	-0.120	-0.240	-0.690
2020/01/31 18:02:36.0	359.670	-0.140	-0.220	-0.710
2020/01/31 18:02:36.1	359.670	-0.160	-0.200	-0.730
2020/01/31 18:02:36.2	359.670	-0.170	-0.190	-0.750
2020/01/31 18:02:36.3	359.670	-0.190	-0.170	-0.760
2020/01/31 18:02:36.4				
2020/01/31 18:02:36.5	359.670	-0.200	-0.150	-0.780
2020/01/31 18:02:36.6	359.670	-0.220	-0.130	-0.800
2020/01/31 18:02:36.7				
2020/01/31 18:02:36.8	359.670	-0.230	-0.110	-0.810
2020/01/31 18:02:36.9	359.660	-0.240	-0.090	-0.820
2020/01/31 18:02:37.0				
2020/01/31 18:02:37.1	359.660	-0.240	-0.090	-0.820
2020/01/31 18:02:37.2	359.660	-0.250	-0.070	-0.820
2020/01/31 18:02:37.3	359.660	-0.250	-0.070	-0.820
2020/01/31 18:02:37.4	359.660	-0.250	-0.070	-0.810
2020/01/31 18:02:37.5	359.660	-0.250	-0.060	-0.800
2020/01/31 18:02:37.6	359.660	-0.250	-0.060	-0.790
2020/01/31 18:02:37.7				
2020/01/31 18:02:37.8	359.660	-0.240	-0.060	-0.780
2020/01/31 18:02:37.9	359.650	-0.240	-0.060	-0.760
2020/01/31 18:02:38.0	359.650	-0.240	-0.060	-0.730
2020/01/31 18:02:38.1	359.650	-0.240	-0.050	-0.710
2020/01/31 18:02:38.2	359.650	-0.240	-0.050	-0.690
2020/01/31 18:02:38.3	359.650	-0.240	-0.050	-0.660
2020/01/31 18:02:38.4	359.650	-0.240	-0.040	-0.640
2020/01/31 18:02:38.5	359.650	-0.240	-0.040	-0.610
2020/01/31 18:02:38.6	359.650	-0.240	-0.030	-0.590
2020/01/31 18:02:38.7	359.650	-0.240	-0.030	-0.560
2020/01/31 18:02:38.8	359.650	-0.240	-0.020	-0.540
2020/01/31 18:02:38.9	359.650	-0.240	-0.010	-0.510
2020/01/31 18:02:39.0	359.650	-0.240	-0.010	-0.480
2020/01/31 18:02:39.1				
2020/01/31 18:02:39.2	359.650	-0.240	0.000	-0.450
2020/01/31 18:02:39.3	359.640	-0.230	0.010	-0.390
2020/01/31 18:02:39.4	359.640	-0.230	0.020	-0.350
2020/01/31 18:02:39.5	359.640	-0.220	0.020	-0.320
2020/01/31 18:02:39.6	359.630	-0.210	0.030	-0.290
2020/01/31 18:02:39.7	359.630	-0.210	0.030	-0.250
2020/01/31 18:02:39.8	359.620	-0.200	0.030	-0.220
2020/01/31 18:02:39.9				
2020/01/31 18:02:40.0	359.610	-0.180	0.040	-0.190
2020/01/31 18:02:40.1	359.610	-0.170	0.040	-0.150
2020/01/31 18:02:40.2	359.590	-0.140	0.030	-0.080
2020/01/31 18:02:40.3	359.580	-0.120	0.030	-0.040
2020/01/31 18:02:40.4				
2020/01/31 18:02:40.5	359.570	-0.100	0.020	-0.010
2020/01/31 18:02:40.6	359.550	-0.050	-0.000	0.060
2020/01/31 18:02:40.7	359.540	-0.020	-0.010	0.100
2020/01/31 18:02:40.8	359.530	0.010	-0.030	0.130
2020/01/31 18:02:40.9	359.520	0.040	-0.050	0.160
2020/01/31 18:02:41.0	359.510	0.070	-0.070	0.200
2020/01/31 18:02:41.1	359.500	0.100	-0.100	0.230
2020/01/31 18:02:41.2	359.490	0.130	-0.130	0.260
2020/01/31 18:02:41.3	359.480	0.170	-0.160	0.290
2020/01/31 18:02:41.4	359.480	0.200	-0.190	0.310
2020/01/31 18:02:41.5	359.470	0.230	-0.230	0.340
2020/01/31 18:02:41.6	359.460	0.270	-0.270	0.360
2020/01/31 18:02:41.7	359.460	0.300	-0.310	0.380
2020/01/31 18:02:41.8	359.460	0.330	-0.370	0.390
2020/01/31 18:02:41.9	359.450	0.360	-0.410	0.400
2020/01/31 18:02:42.0				
2020/01/31 18:02:42.1	359.450	0.380	-0.460	0.400
2020/01/31 18:02:42.2	359.450	0.430	-0.560	0.390
2020/01/31 18:02:42.3	359.460	0.450	-0.610	0.370
2020/01/31 18:02:42.4	359.460	0.470	-0.660	0.350
2020/01/31 18:02:42.5				
2020/01/31 18:02:42.6	359.470	0.490	-0.710	0.320
2020/01/31 18:02:42.7	359.500	0.510	-0.800	0.240
2020/01/31 18:02:42.8	359.510	0.510	-0.840	0.180
2020/01/31 18:02:42.9				
2020/01/31 18:02:43.0	359.530	0.510	-0.880	0.120
2020/01/31 18:02:43.1	359.570	0.510	-0.960	-0.000
2020/01/31 18:02:43.2	359.590	0.500	-0.990	-0.070
2020/01/31 18:02:43.3				
2020/01/31 18:02:43.4	359.610	0.490	-1.010	-0.140
2020/01/31 18:02:43.5	359.650	0.450	-1.040	-0.290
2020/01/31 18:02:43.6	359.670	0.430	-1.050	-0.360
2020/01/31 18:02:43.7	359.690	0.410	-1.050	-0.430
2020/01/31 18:02:43.8	359.710	0.380	-1.040	-0.500
2020/01/31 18:02:43.9	359.730	0.350	-1.030	-0.570
2020/01/31 18:02:44.0	359.740	0.310	-1.010	-0.630
2020/01/31 18:02:44.1				
2020/01/31 18:02:44.2	359.760	0.270	-0.980	-0.680
2020/01/31 18:02:44.3	359.790	0.190	-0.890	-0.790
2020/01/31 18:02:44.4	359.800	0.150	-0.840	-0.830
2020/01/31 18:02:44.5				
2020/01/31 18:02:44.6	359.800	0.100	-0.780	-0.870
2020/01/31 18:02:44.7	359.810	0.000	-0.630	-0.930
2020/01/31 18:02:44.8	359.820	-0.050	-0.560	-0.960
2020/01/31 18:02:44.9	359.820	-0.100	-0.480	-0.980
2020/01/31 18:02:45.0				
2020/01/31 18:02:45.1	359.810	-0.150	-0.390	-1.000
2020/01/31 18:02:45.2	359.810	-0.250	-0.220	-1.020
2020/01/31 18:02:45.3	359.800	-0.290	-0.130	-1.030
2020/01/31 18:02:45.4				
2020/01/31 18:02:45.5	359.800	-0.340	-0.040	-1.040
2020/01/31 18:02:45.6				
2020/01/31 18:02:45.7	359.780	-0.430	0.130	-1.050
2020/01/31 18:02:45.8	359.760	-0.510	0.280	-1.060
2020/01/31 18:02:45.9	359.750	-0.540	0.340	-1.060
2020/01/31 18:02:46.0	359.750	-0.570	0.400	-1.060
2020/01/31 18:02:46.1	359.750	-0.600	0.460	-1.060
2020/01/31 18:02:46.2				
2020/01/31 18:02:46.3	359.740	-0.620	0.500	-1.070
2020/01/31 18:02:46.4	359.740	-0.650	0.560	-1.070
2020/01/31 18:02:46.5	359.750	-0.660	0.580	-1.070
2020/01/31 18:02:46.6	359.750	-0.660	0.600	-1.070
2020/01/31 18:02:46.7				
2020/01/31 18:02:46.8	359.760	-0.660	0.600	-1.070
2020/01/31 18:02:46.9	359.770	-0.650	0.600	-1.070
2020/01/31 18:02:47.0	359.780	-0.620	0.560	-1.060
2020/01/31 18:02:47.1				
2020/01/31 18:02:47.2	359.790	-0.600	0.540	-1.050
2020/01/31 18:02:47.3	359.790	-0.550	0.480	-1.020
2020/01/31 18:02:47.4	359.800	-0.520	0.440	-0.990
2020/01/31 18:02:47.5				
2020/01/31 18:02:47.6	359.800	-0.480	0.400	-0.970
2020/01/31 18:02:47.7				
2020/01/31 18:02:47.8	359.790	-0.400	0.310	-0.900
2020/01/31 18:02:47.9	359.760	-0.320	0.230	-0.830
2020/01/31 18:02:48.0	359.750	-0.280	0.180	-0.780
2020/01/31 18:02:48.1	359.740	-0.230	0.140	-0.730
2020/01/31 18:02:48.2	359.720	-0.190	0.100	-0.680
2020/01/31 18:02:48.3				
2020/01/31 18:02:48.4	359.710	-0.150	0.060	-0.630
2020/01/31 18:02:48.5				
2020/01/31 18:02:48.6	359.670	-0.060	-0.010	-0.520
2020/01/31 18:02:48.7	359.640	-0.020	-0.040	-0.450
2020/01/31 18:02:48.8	359.620	0.020	-0.070	-0.390
2020/01/31 18:02:48.9	359.600	0.060	-0.100	-0.330
2020/01/31 18:02:49.0	359.550	0.130	-0.160	-0.200
2020/01/31 18:02:49.1				
2020/01/31 18:02:49.2	359.530	0.170	-0.190	-0.130
2020/01/31 18:02:49.3				
2020/01/31 18:02:49.4	359.490	0.240	-0.250	-0.010
2020/01/31 18:02:49.5	359.450	0.290	-0.310	0.110
2020/01/31 18:02:49.6				
2020/01/31 18:02:49.7	359.440	0.320	-0.350	0.160
2020/01/31 18:02:49.8	359.430	0.350	-0.380	0.210
2020/01/31 18:02:49.9	359.430	0.370	-0.420	0.260
2020/01/31 18:02:50.0	359.410	0.410	-0.510	0.330
2020/01/31 18:02:50.1				
2020/01/31 18:02:50.2	359.410	0.430	-0.550	0.360
2020/01/31 18:02:50.3	359.410	0.450	-0.600	0.390
2020/01/31 18:02:50.4				
2020/01/31 18:02:50.5	359.430	0.480	-0.700	0.410
2020/01/31 18:02:50.6	359.440	0.500	-0.750	0.420
2020/01/31 18:02:50.7				
2020/01/31 18:02:50.8	359.470	0.520	-0.850	0.400
2020/01/31 18:02:50.9	359.510	0.540	-0.950	0.370
2020/01/31 18:02:51.0				
2020/01/31 18:02:51.1	359.530	0.550	-1.000	0.340
2020/01/31 18:02:51.2	359.570	0.560	-1.080	0.280
2020/01/31 18:02:51.3				
2020/01/31 18:02:51.4	359.590	0.560	-1.120	0.240
2020/01/31 18:02:51.5	359.600	0.560	-1.140	0.200
2020/01/31 18:02:51.6				
2020/01/31 18:02:51.7	359.640	0.560	-1.180	0.120
2020/01/31 18:02:51.8	359.650	0.550	-1.190	0.080
2020/01/31 18:02:51.9	359.670	0.540	-1.180	0.030
2020/01/31 18:02:52.0				
2020/01/31 18:02:52.1	359.700	0.520	-1.150	-0.050
2020/01/31 18:02:52.2	359.720	0.480	-1.090	-0.140
2020/01/31 18:02:52.3				
2020/01/31 18:02:52.4	359.730	0.460	-1.050	-0.180
2020/01/31 18:02:52.5	359.740	0.430	-0.990	-0.220
2020/01/31 18:02:52.6	359.740	0.410	-0.930	-0.260
2020/01/31 18:02:52.7				
2020/01/31 18:02:52.8	359.760	0.340	-0.790	-0.330
2020/01/31 18:02:52.9				
2020/01/31 18:02:53.0	359.780	0.260	-0.630	-0.400
2020/01/31 18:02:53.1	359.790	0.220	-0.540	-0.440
2020/01/31 18:02:53.2	359.800	0.120	-0.350	-0.500
2020/01/31 18:02:53.3	359.810	0.070	-0.250	-0.530
2020/01/31 18:02:53.4				
2020/01/31 18:02:53.5	359.810	0.020	-0.160	-0.560
2020/01/31 18:02:53.6	359.810	-0.040	-0.060	-0.590
2020/01/31 18:02:53.7	359.820	-0.090	0.040	-0.610
2020/01/31 18:02:53.8	359.820	-0.150	0.130	-0.630
2020/01/31 18:02:53.9	359.810	-0.270	0.320	-0.680
2020/01/31 18:02:54.0				
2020/01/31 18:02:54.1	359.810	-0.320	0.410	-0.700
2020/01/31 18:02:54.2	359.800	-0.380	0.490	-0.720
2020/01/31 18:02:54.3				
2020/01/31 18:02:54.4	359.780	-0.490	0.640	-0.750
2020/01/31 18:02:54.5	359.760	-0.550	0.700	-0.760
2020/01/31 18:02:54.6				
2020/01/31 18:02:54.7	359.720	-0.650	0.820	-0.780
2020/01/31 18:02:54.8	359.660	-0.740	0.900	-0.790
2020/01/31 18:02:54.9				
2020/01/31 18:02:55.0	359.640	-0.780	0.930	-0.790
2020/01/31 18:02:55.1	359.580	-0.850	0.970	-0.780
2020/01/31 18:02:55.2	359.550	-0.870	0.980	-0.770
2020/01/31 18:02:55.3				
2020/01/31 18:02:55.4	359.510	-0.890	0.980	-0.760
2020/01/31 18:02:55.5				
2020/01/31 18:02:55.6	359.450	-0.920	0.960	-0.720
2020/01/31 18:02:55.7	359.390	-0.920	0.900	-0.690
2020/01/31 18:02:55.8	359.350	-0.910	0.860	-0.670
2020/01/31 18:02:55.9				
2020/01/31 18:02:56.0	359.330	-0.900	0.810	-0.650
2020/01/31 18:02:56.1	359.300	-0.880	0.750	-0.630
2020/01/31 18:02:56.2	359.280	-0.860	0.690	-0.620
2020/01/31 18:02:56.3	359.260	-0.830	0.620	-0.610
2020/01/31 18:02:56.4	359.240	-0.750	0.450	-0.590
2020/01/31 18:02:56.5				
2020/01/31 18:02:56.6	359.240	-0.700	0.360	-0.580
2020/01/31 18:02:56.7				
2020/01/31 18:02:56.8	359.240	-0.580	0.150	-0.570
2020/01/31 18:02:56.9	359.250	-0.450	-0.060	-0.570
2020/01/31 18:02:57.0				
2020/01/31 18:02:57.1	359.260	-0.380	-0.170	-0.570
2020/01/31 18:02:57.2	359.270	-0.310	-0.280	-0.560
2020/01/31 18:02:57.3	359.290	-0.230	-0.390	-0.560
2020/01/31 18:02:57.4				
2020/01/31 18:02:57.5	359.320	-0.070	-0.610	-0.550
2020/01/31 18:02:57.6	359.340	0.010	-0.710	-0.540
2020/01/31 18:02:57.7	359.360	0.090	-0.810	-0.530
2020/01/31 18:02:57.8	359.380	0.240	-0.980	-0.500
2020/01/31 18:02:57.9	359.400	0.320	-1.060	-0.490
2020/01/31 18:02:58.0				
2020/01/31 18:02:58.1	359.410	0.400	-1.120	-0.460
2020/01/31 18:02:58.2	359.440	0.540	-1.230	-0.410
2020/01/31 18:02:58.3	359.450	0.600	-1.270	-0.380
2020/01/31 18:02:58.4				
2020/01/31 18:02:58.5	359.460	0.660	-1.300	-0.350
2020/01/31 18:02:58.6				
2020/01/31 18:02:58.7	359.470	0.760	-1.330	-0.270
2020/01/31 18:02:58.8				
2020/01/31 18:02:58.9	359.470	0.840	-1.310	-0.180
2020/01/31 18:02:59.0	359.460	0.880	-1.290	-0.130
2020/01/31 18:02:59.1				
2020/01/31 18:02:59.2	359.450	0.920	-1.220	-0.040
2020/01/31 18:02:59.3				
2020/01/31 18:02:59.4	359.430	0.940	-1.120	0.060
2020/01/31 18:02:59.5	359.400	0.930	-1.000	0.140
2020/01/31 18:02:59.6				
2020/01/31 18:02:59.7	359.380	0.910	-0.930	0.180
2020/01/31 18:02:59.8	359.360	0.890	-0.860	0.210
2020/01/31 18:02:59.9	359.340	0.870	-0.790	0.250
2020/01/31 18:03:00.0	359.300	0.800	-0.640	0.290
2020/01/31 18:03:00.1				
2020/01/31 18:03:00.2	359.280	0.760	-0.570	0.310
2020/01/31 18:03:00.3				
2020/01/31 18:03:00.4	359.240	0.660	-0.440	0.320
2020/01/31 18:03:00.5	359.220	0.610	-0.370	0.310
2020/01/31 18:03:00.6	359.190	0.490	-0.260	0.290
2020/01/31 18:03:00.7				
2020/01/31 18:03:00.8	359.180	0.430	-0.220	0.270
2020/01/31 18:03:00.9				
2020/01/31 18:03:01.0	359.180	0.310	-0.140	0.210
2020/01/31 18:03:01.1	359.170	0.250	-0.110	0.170
2020/01/31 18:03:01.2	359.160	0.190	-0.090	0.130
2020/01/31 18:03:01.3	359.160	0.130	-0.080	0.090
2020/01/31 18:03:01.4				
2020/01/31 18:03:01.5	359.160	0.010	-0.070	0.000
2020/01/31 18:03:01.6				
2020/01/31 18:03:01.7	359.170	-0.100	-0.080	-0.100
2020/01/31 18:03:01.8	359.200	-0.200	-0.110	-0.210
2020/01/31 18:03:01.9				
2020/01/31 18:03:02.0	359.210	-0.240	-0.140	-0.260
2020/01/31 18:03:02.1	359.230	-0.290	-0.160	-0.320
2020/01/31 18:03:02.2	359.250	-0.320	-0.190	-0.380
2020/01/31 18:03:02.3				
2020/01/31 18:03:02.4	359.290	-0.390	-0.260	-0.510
2020/01/31 18:03:02.5	359.320	-0.420	-0.290	-0.570
2020/01/31 18:03:02.6				
2020/01/31 18:03:02.7	359.370	-0.470	-0.350	-0.700
2020/01/31 18:03:02.8	359.400	-0.490	-0.380	-0.770
2020/01/31 18:03:02.9	359.420	-0.510	-0.400	-0.840
2020/01/31 18:03:03.0				
2020/01/31 18:03:03.1	359.480	-0.530	-0.440	-0.960
2020/01/31 18:03:03.2	359.510	-0.540	-0.460	-1.020
2020/01/31 18:03:03.3	359.540	-0.550	-0.470	-1.070
2020/01/31 18:03:03.4	359.570	-0.550	-0.470	-1.120
2020/01/31 18:03:03.5				
2020/01/31 18:03:03.6	359.630	-0.550	-0.460	-1.210
2020/01/31 18:03:03.7				
2020/01/31 18:03:03.8	359.680	-0.530	-0.420	-1.270
2020/01/31 18:03:03.9	359.680	-0.520	-0.400	-1.300
2020/01/31 18:03:04.0	359.720	-0.500	-0.330	-1.320
2020/01/31 18:03:04.1	359.740	-0.490	-0.290	-1.320
2020/01/31 18:03:04.2	359.750	-0.470	-0.240	-1.310
2020/01/31 18:03:04.3				
2020/01/31 18:03:04.4	359.770	-0.450	-0.190	-1.290
2020/01/31 18:03:04.5				
2020/01/31 18:03:04.6	359.780	-0.420	-0.070	-1.230
2020/01/31 18:03:04.7				
2020/01/31 18:03:04.8	359.780	-0.380	0.050	-1.140
2020/01/31 18:03:04.9	359.780	-0.370	0.120	-1.090
2020/01/31 18:03:05.0	359.770	-0.350	0.180	-1.030
2020/01/31 18:03:05.1	359.760	-0.330	0.250	-0.970
2020/01/31 18:03:05.2	359.740	-0.320	0.310	-0.910
2020/01/31 18:03:05.3	359.720	-0.300	0.370	-0.840
2020/01/31 18:03:05.4				
2020/01/31 18:03:05.5	359.680	-0.270	0.490	-0.700
2020/01/31 18:03:05.6	359.660	-0.260	0.540	-0.630
2020/01/31 18:03:05.7	359.630	-0.240	0.590	-0.560
2020/01/31 18:03:05.8	359.570	-0.220	0.670	-0.410
2020/01/31 18:03:05.9	359.540	-0.200	0.700	-0.340
2020/01/31 18:03:06.0				
2020/01/31 18:03:06.1	359.510	-0.190	0.730	-0.280
2020/01/31 18:03:06.2	359.470	-0.180	0.740	-0.210
2020/01/31 18:03:06.3	359.400	-0.150	0.760	-0.090
2020/01/31 18:03:06.4				
2020/01/31 18:03:06.5	359.370	-0.140	0.750	-0.030
2020/01/31 18:03:06.6				
2020/01/31 18:03:06.7	359.300	-0.100	0.720	0.070
2020/01/31 18:03:06.8	359.270	-0.090	0.700	0.120
2020/01/31 18:03:06.9	359.250	-0.070	0.660	0.160
2020/01/31 18:03:07.0				
2020/01/31 18:03:07.1	359.190	-0.030	0.580	0.240
2020/01/31 18:03:07.2	359.160	-0.010	0.530	0.270
2020/01/31 18:03:07.3	359.140	0.020	0.470	0.300
2020/01/31 18:03:07.4	359.090	0.070	0.350	0.350
2020/01/31 18:03:07.5				
2020/01/31 18:03:07.6	359.060	0.100	0.280	0.370
2020/01/31 18:03:07.7	359.040	0.120	0.210	0.390
2020/01/31 18:03:07.8	359.030	0.150	0.130	0.400
2020/01/31 18:03:07.9				
2020/01/31 18:03:08.0	358.990	0.210	-0.030	0.410
2020/01/31 18:03:08.1				
2020/01/31 18:03:08.2	358.970	0.280	-0.190	0.410
2020/01/31 18:03:08.3	358.970	0.310	-0.280	0.400
2020/01/31 18:03:08.4	358.960	0.350	-0.360	0.390
2020/01/31 18:03:08.5	358.960	0.380	-0.450	0.380
2020/01/31 18:03:08.6				
2020/01/31 18:03:08.7	358.970	0.440	-0.620	0.350
2020/01/31 18:03:08.8	358.970	0.470	-0.700	0.320
2020/01/31 18:03:08.9	358.990	0.500	-0.780	0.300
2020/01/31 18:03:09.0				
2020/01/31 18:03:09.1	359.010	0.560	-0.930	0.240
2020/01/31 18:03:09.2	359.030	0.580	-1.000	0.200
2020/01/31 18:03:09.3				
2020/01/31 18:03:09.4	359.060	0.620	-1.130	0.130
2020/01/31 18:03:09.5	359.090	0.640	-1.240	0.040
2020/01/31 18:03:09.6				
2020/01/31 18:03:09.7	359.110	0.650	-1.280	0.000
2020/01/31 18:03:09.8				
2020/01/31 18:03:09.9	359.140	0.650	-1.350	-0.090
2020/01/31 18:03:10.0	359.160	0.650	-1.370	-0.130
2020/01/31 18:03:10.1	359.170	0.640	-1.390	-0.180
2020/01/31 18:03:10.2	359.200	0.610	-1.400	-0.260
2020/01/31 18:03:10.3				
2020/01/31 18:03:10.4	359.210	0.590	-1.390	-0.300
2020/01/31 18:03:10.5	359.220	0.560	-1.370	-0.330
2020/01/31 18:03:10.6	359.230	0.530	-1.350	-0.370
2020/01/31 18:03:10.7	359.230	0.500	-1.320	-0.400
2020/01/31 18:03:10.8	359.240	0.470	-1.280	-0.420
2020/01/31 18:03:10.9	359.240	0.430	-1.240	-0.450
2020/01/31 18:03:11.0	359.240	0.390	-1.190	-0.480
2020/01/31 18:03:11.1	359.240	0.350	-1.130	-0.500
2020/01/31 18:03:11.2	359.240	0.300	-1.070	-0.520
2020/01/31 18:03:11.3	359.240	0.250	-1.000	-0.540
2020/01/31 18:03:11.4				
2020/01/31 18:03:11.5	359.230	0.160	-0.850	-0.560
2020/01/31 18:03:11.6	359.230	0.110	-0.780	-0.580
2020/01/31 18:03:11.7	359.220	0.060	-0.700	-0.590
2020/01/31 18:03:11.8	359.220	0.010	-0.620	-0.590
2020/01/31 18:03:11.9	359.210	-0.030	-0.540	-0.600
2020/01/31 18:03:12.0	359.210	-0.080	-0.470	-0.610
2020/01/31 18:03:12.1	359.210	-0.130	-0.390	-0.610
2020/01/31 18:03:12.2	359.210	-0.170	-0.320	-0.620
2020/01/31 18:03:12.3	359.210	-0.210	-0.250	-0.620
2020/01/31 18:03:12.4	359.210	-0.250	-0.190	-0.630
2020/01/31 18:03:12.5	359.210	-0.280	-0.130	-0.630
2020/01/31 18:03:12.6	359.210	-0.320	-0.070	-0.640
2020/01/31 18:03:12.7	359.210	-0.350	-0.020	-0.640
2020/01/31 18:03:12.8	359.210	-0.380	0.030	-0.650
2020/01/31 18:03:12.9	359.210	-0.400	0.070	-0.650
2020/01/31 18:03:13.0	359.210	-0.430	0.100	-0.660
2020/01/31 18:03:13.1	359.220	-0.450	0.130	-0.660
2020/01/31 18:03:13.2	359.220	-0.460	0.160	-0.660
2020/01/31 18:03:13.3	359.220	-0.480	0.180	-0.670
2020/01/31 18:03:13.4	359.220	-0.490	0.190	-0.670
2020/01/31 18:03:13.5	359.230	-0.490	0.200	-0.670
2020/01/31 18:03:13.6	359.230	-0.500	0.200	-0.680
2020/01/31 18:03:13.7	359.230	-0.500	0.200	-0.680
2020/01/31 18:03:13.8	359.240	-0.500	0.200	-0.680
2020/01/31 18:03:13.9				
2020/01/31 18:03:14.0	359.260	-0.490	0.180	-0.700
2020/01/31 18:03:14.1				
2020/01/31 18:03:14.2	359.270	-0.470	0.150	-0.700
2020/01/31 18:03:14.3	359.280	-0.450	0.130	-0.710
2020/01/31 18:03:14.4	359.290	-0.440	0.110	-0.710
2020/01/31 18:03:14.5	359.300	-0.420	0.090	-0.720
2020/01/31 18:03:14.6	359.320	-0.400	0.060	-0.720
2020/01/31 18:03:14.7	359.330	-0.380	0.040	-0.720
2020/01/31 18:03:14.8	359.340	-0.360	0.010	-0.720
2020/01/31 18:03:14.9	359.350	-0.340	-0.010	-0.720
2020/01/31 18:03:15.0	359.370	-0.310	-0.040	-0.720
2020/01/31 18:03:15.1	359.380	-0.290	-0.060	-0.710
2020/01/31 18:03:15.2	359.390	-0.260	-0.080	-0.700
2020/01/31 18:03:15.3	359.390	-0.240	-0.100	-0.690
2020/01/31 18:03:15.4	359.400	-0.210	-0.120	-0.670
2020/01/31 18:03:15.5	359.400	-0.190	-0.130	-0.660
2020/01/31 18:03:15.6	359.400	-0.160	-0.150	-0.640
2020/01/31 18:03:15.7	359.400	-0.140	-0.160	-0.620
2020/01/31 18:03:15.8	359.400	-0.110	-0.160	-0.590
2020/01/31 18:03:15.9	359.380	-0.090	-0.170	-0.570
2020/01/31 18:03:16.0	359.380	-0.060	-0.170	-0.540
2020/01/31 18:03:16.1	359.370	-0.040	-0.170	-0.510
2020/01/31 18:03:16.2				
2020/01/31 18:03:16.3	359.340	0.010	-0.150	-0.430
2020/01/31 18:03:16.4	359.320	0.030	-0.140	-0.390
2020/01/31 18:03:16.5	359.310	0.050	-0.130	-0.350
2020/01/31 18:03:16.6	359.280	0.080	-0.120	-0.300
2020/01/31 18:03:16.7	359.260	0.100	-0.100	-0.250
2020/01/31 18:03:16.8	359.240	0.120	-0.080	-0.200
2020/01/31 18:03:16.9	359.210	0.140	-0.060	-0.140
2020/01/31 18:03:17.0	359.180	0.160	-0.040	-0.090
2020/01/31 18:03:17.1	359.150	0.180	-0.020	-0.030
2020/01/31 18:03:17.2	359.120	0.200	0.000	0.030
2020/01/31 18:03:17.3	359.080	0.210	0.030	0.090
2020/01/31 18:03:17.4	359.050	0.230	0.050	0.150
2020/01/31 18:03:17.5	359.010	0.250	0.070	0.220
2020/01/31 18:03:17.6	358.970	0.260	0.090	0.280
2020/01/31 18:03:17.7	358.930	0.280	0.110	0.330
2020/01/31 18:03:17.8	358.890	0.290	0.130	0.390
2020/01/31 18:03:17.9	358.850	0.300	0.150	0.450
2020/01/31 18:03:18.0	358.810	0.310	0.160	0.500
2020/01/31 18:03:18.1	358.760	0.320	0.180	0.550
2020/01/31 18:03:18.2	358.720	0.330	0.190	0.590
2020/01/31 18:03:18.3	358.680	0.330	0.200	0.630
2020/01/31 18:03:18.4	358.630	0.330	0.210	0.670
2020/01/31 18:03:18.5	358.590	0.330	0.220	0.700
2020/01/31 18:03:18.6	358.550	0.330	0.220	0.730
2020/01/31 18:03:18.7	358.500	0.330	0.220	0.750
2020/01/31 18:03:18.8	358.460	0.320	0.220	0.760
2020/01/31 18:03:18.9	358.420	0.320	0.210	0.770
2020/01/31 18:03:19.0	358.390	0.310	0.210	0.770
2020/01/31 18:03:19.1	358.350	0.300	0.190	0.760
2020/01/31 18:03:19.2	358.320	0.280	0.180	0.750
2020/01/31 18:03:19.3	358.290	0.270	0.160	0.730
2020/01/31 18:03:19.4	358.260	0.250	0.140	0.710
2020/01/31 18:03:19.5	358.230	0.240	0.120	0.680
2020/01/31 18:03:19.6	358.210	0.220	0.090	0.650
2020/01/31 18:03:19.7	358.190	0.200	0.060	0.610
2020/01/31 18:03:19.8	358.180	0.180	0.020	0.570
2020/01/31 18:03:19.9	358.180	0.160	-0.010	0.520
2020/01/31 18:03:20.0	358.180	0.140	-0.050	0.470
2020/01/31 18:03:20.1	358.170	0.120	-0.100	0.420
2020/01/31 18:03:20.2	358.170	0.100	-0.140	0.370
2020/01/31 18:03:20.3	358.170	0.080	-0.190	0.320
2020/01/31 18:03:20.4	358.180	0.060	-0.240	0.260
2020/01/31 18:03:20.5	358.190	0.040	-0.290	0.200
2020/01/31 18:03:20.6	358.200	0.020	-0.340	0.140
2020/01/31 18:03:20.7	358.220	0.000	-0.390	0.080
2020/01/31 18:03:20.8	358.240	-0.020	-0.440	0.020
2020/01/31 18:03:20.9	358.260	-0.030	-0.490	-0.040
2020/01/31 18:03:21.0	358.280	-0.050	-0.540	-0.110
2020/01/31 18:03:21.1	358.310	-0.060	-0.590	-0.170
2020/01/31 18:03:21.2	358.330	-0.070	-0.640	-0.230
2020/01/31 18:03:21.3	358.360	-0.090	-0.690	-0.290
2020/01/31 18:03:21.4	358.390	-0.100	-0.730	-0.350
2020/01/31 18:03:21.5	358.420	-0.110	-0.770	-0.400
2020/01/31 18:03:21.6	358.450	-0.110	-0.810	-0.460
2020/01/31 18:03:21.7	358.480	-0.120	-0.840	-0.520
2020/01/31 18:03:21.8	358.500	-0.130	-0.870	-0.570
2020/01/31 18:03:21.9	358.540	-0.140	-0.900	-0.630
2020/01/31 18:03:22.0	358.560	-0.150	-0.920	-0.680
2020/01/31 18:03:22.1	358.590	-0.150	-0.940	-0.730
2020/01/31 18:03:22.2	358.610	-0.160	-0.960	-0.770
2020/01/31 18:03:22.3	358.620	-0.170	-0.970	-0.820
2020/01/31 18:03:22.4	358.640	-0.170	-0.980	-0.860
2020/01/31 18:03:22.5	358.650	-0.180	-0.980	-0.890
2020/01/31 18:03:22.6	358.670	-0.180	-0.980	-0.930
2020/01/31 18:03:22.7	358.680	-0.190	-0.970	-0.960
2020/01/31 18:03:22.8	358.680	-0.200	-0.960	-0.990
2020/01/31 18:03:22.9	358.670	-0.200	-0.960	-1.010
2020/01/31 18:03:23.0	358.680	-0.210	-0.940	-1.030
2020/01/31 18:03:23.1	358.680	-0.210	-0.920	-1.040
2020/01/31 18:03:23.2	358.680	-0.220	-0.900	-1.060
2020/01/31 18:03:23.3	358.680	-0.220	-0.880	-1.060
2020/01/31 18:03:23.4	358.680	-0.230	-0.860	-1.070
2020/01/31 18:03:23.5	358.680	-0.230	-0.840	-1.070
2020/01/31 18:03:23.6	358.680	-0.230	-0.810	-1.070
2020/01/31 18:03:23.7	358.680	-0.240	-0.780	-1.060
2020/01/31 18:03:23.8	358.680	-0.240	-0.760	-1.050
2020/01/31 18:03:23.9	358.680	-0.240	-0.730	-1.050
2020/01/31 18:03:24.0	358.690	-0.240	-0.710	-1.040
2020/01/31 18:03:24.1	358.690	-0.240	-0.680	-1.030
2020/01/31 18:03:24.2	358.690	-0.240	-0.660	-1.010
2020/01/31 18:03:24.3	358.690	-0.240	-0.640	-1.000
2020/01/31 18:03:24.4	358.700	-0.240	-0.620	-0.990
2020/01/31 18:03:24.5	358.700	-0.230	-0.600	-0.970
2020/01/31 18:03:24.6	358.710	-0.230	-0.580	-0.960
2020/01/31 18:03:24.7	358.720	-0.220	-0.560	-0.940
2020/01/31 18:03:24.8	358.720	-0.210	-0.540	-0.930
2020/01/31 18:03:24.9	358.720	-0.210	-0.530	-0.910
2020/01/31 18:03:25.0	358.730	-0.200	-0.510	-0.890
2020/01/31 18:03:25.1	358.740	-0.180	-0.490	-0.880
2020/01/31 18:03:25.2	358.740	-0.170	-0.480	-0.860
2020/01/31 18:03:25.3	358.750	-0.160	-0.460	-0.840
2020/01/31 18:03:25.4	358.760	-0.140	-0.440	-0.830
2020/01/31 18:03:25.5	358.770	-0.130	-0.420	-0.810
2020/01/31 18:03:25.6	358.780	-0.110	-0.390	-0.780
2020/01/31 18:03:25.7	358.790	-0.090	-0.370	-0.760
2020/01/31 18:03:25.8	358.800	-0.070	-0.340	-0.740
2020/01/31 18:03:25.9	358.820	-0.060	-0.310	-0.710
2020/01/31 18:03:26.0	358.820	-0.040	-0.280	-0.690
2020/01/31 18:03:26.1	358.830	-0.010	-0.240	-0.660
2020/01/31 18:03:26.2	358.840	0.010	-0.200	-0.620
2020/01/31 18:03:26.3	358.850	0.030	-0.160	-0.590
2020/01/31 18:03:26.4	358.850	0.050	-0.110	-0.550
2020/01/31 18:03:26.5	358.860	0.070	-0.070	-0.510
2020/01/31 18:03:26.6	358.860	0.090	-0.010	-0.470
2020/01/31 18:03:26.7	358.860	0.110	0.040	-0.430
2020/01/31 18:03:26.8	358.860	0.130	0.100	-0.380
2020/01/31 18:03:26.9	358.870	0.150	0.160	-0.330
2020/01/31 18:03:27.0	358.860	0.160	0.220	-0.280
2020/01/31 18:03:27.1	358.860	0.180	0.280	-0.220
2020/01/31 18:03:27.2	358.850	0.200	0.350	-0.160
2020/01/31 18:03:27.3	358.830	0.210	0.420	-0.100
2020/01/31 18:03:27.4	358.820	0.220	0.480	-0.040
2020/01/31 18:03:27.5	358.790	0.230	0.550	0.030
2020/01/31 18:03:27.6	358.770	0.230	0.620	0.090
2020/01/31 18:03:27.7	358.740	0.240	0.680	0.160
2020/01/31 18:03:27.8	358.710	0.240	0.750	0.230
2020/01/31 18:03:27.9	358.680	0.240	0.810	0.300
2020/01/31 18:03:28.0	358.640	0.240	0.870	0.370
2020/01/31 18:03:28.1	358.600	0.240	0.920	0.430
2020/01/31 18:03:28.2	358.560	0.240	0.960	0.500
2020/01/31 18:03:28.3	358.520	0.230	1.010	0.560
2020/01/31 18:03:28.4	358.470	0.220	1.040	0.620
2020/01/31 18:03:28.5	358.420	0.210	1.060	0.680
2020/01/31 18:03:28.6	358.380	0.210	1.080	0.730
2020/01/31 18:03:28.7	358.330	0.200	1.090	0.780
2020/01/31 18:03:28.8	358.280	0.180	1.090	0.820
2020/01/31 18:03:28.9	358.240	0.170	1.070	0.850
2020/01/31 18:03:29.0	358.190	0.160	1.050	0.890
2020/01/31 18:03:29.1	358.150	0.150	1.020	0.910
2020/01/31 18:03:29.2	358.110	0.140	0.970	0.930
2020/01/31 18:03:29.3	358.070	0.140	0.910	0.940
2020/01/31 18:03:29.4	358.030	0.130	0.850	0.950
2020/01/31 18:03:29.5	358.000	0.120	0.770	0.940
2020/01/31 18:03:29.6	357.970	0.120	0.680	0.930
2020/01/31 18:03:29.7	357.940	0.120	0.570	0.920
2020/01/31 18:03:29.8	357.920	0.120	0.470	0.900
2020/01/31 18:03:29.9	357.910	0.120	0.350	0.870
2020/01/31 18:03:30.0	357.890	0.120	0.220	0.830
2020/01/31 18:03:30.1	357.870	0.130	0.090	0.790
2020/01/31 18:03:30.2	357.860	0.140	-0.050	0.750
2020/01/31 18:03:30.3	357.850	0.150	-0.190	0.690
2020/01/31 18:03:30.4	357.840	0.160	-0.330	0.640
2020/01/31 18:03:30.5	357.830	0.170	-0.480	0.580
2020/01/31 18:03:30.6	357.820	0.180	-0.620	0.510
2020/01/31 18:03:30.7	357.820	0.190	-0.770	0.440
2020/01/31 18:03:30.8	357.820	0.200	-0.910	0.370
2020/01/31 18:03:30.9	357.820	0.220	-1.040	0.290
2020/01/31 18:03:31.0	357.820	0.230	-1.170	0.210
2020/01/31 18:03:31.1	357.820	0.240	-1.290	0.130
2020/01/31 18:03:31.2	357.830	0.250	-1.400	0.060
2020/01/31 18:03:31.3	357.830	0.260	-1.510	-0.020
2020/01/31 18:03:31.4	357.840	0.270	-1.600	-0.100
2020/01/31 18:03:31.5	357.850	0.270	-1.680	-0.180
2020/01/31 18:03:31.6	357.860	0.280	-1.750	-0.260
2020/01/31 18:03:31.7	357.880	0.280	-1.810	-0.340
2020/01/31 18:03:31.8	357.880	0.270	-1.850	-0.420
2020/01/31 18:03:31.9	357.890	0.270	-1.880	-0.500
2020/01/31 18:03:32.0	357.910	0.260	-1.900	-0.570
2020/01/31 18:03:32.1	357.920	0.250	-1.900	-0.650
2020/01/31 18:03:32.2	357.940	0.230	-1.890	-0.710
2020/01/31 18:03:32.3	357.960	0.210	-1.860	-0.780
2020/01/31 18:03:32.4	357.970	0.190	-1.830	-0.850
2020/01/31 18:03:32.5	357.990	0.160	-1.780	-0.910
2020/01/31 18:03:32.6	358.010	0.140	-1.720	-0.960
2020/01/31 18:03:32.7	358.030	0.100	-1.650	-1.020
2020/01/31 18:03:32.8	358.050	0.070	-1.570	-1.060
2020/01/31 18:03:32.9	358.060	0.030	-1.480	-1.110
2020/01/31 18:03:33.0	358.080	-0.000	-1.390	-1.150
2020/01/31 18:03:33.1	358.100	-0.040	-1.290	-1.190
2020/01/31 18:03:33.2	358.120	-0.090	-1.180	-1.210
2020/01/31 18:03:33.3	358.140	-0.130	-1.070	-1.240
2020/01/31 18:03:33.4	358.160	-0.170	-0.960	-1.250
2020/01/31 18:03:33.5	358.180	-0.220	-0.840	-1.260
2020/01/31 18:03:33.6	358.200	-0.260	-0.720	-1.270
2020/01/31 18:03:33.7	358.220	-0.300	-0.600	-1.270
2020/01/31 18:03:33.8	358.230	-0.340	-0.490	-1.260
2020/01/31 18:03:33.9	358.240	-0.380	-0.370	-1.250
2020/01/31 18:03:34.0	358.250	-0.420	-0.260	-1.240
2020/01/31 18:03:34.1	358.260	-0.460	-0.150	-1.220
2020/01/31 18:03:34.2	358.280	-0.490	-0.050	-1.190
2020/01/31 18:03:34.3	358.290	-0.520	0.050	-1.170
2020/01/31 18:03:34.4	358.300	-0.550	0.140	-1.140
2020/01/31 18:03:34.5	358.310	-0.570	0.220	-1.110
2020/01/31 18:03:34.6	358.330	-0.590	0.300	-1.080
2020/01/31 18:03:34.7	358.340	-0.610	0.360	-1.050
2020/01/31 18:03:34.8	358.350	-0.620	0.420	-1.020
2020/01/31 18:03:34.9	358.350	-0.620	0.470	-0.990
2020/01/31 18:03:35.0	358.360	-0.630	0.500	-0.960
2020/01/31 18:03:35.1	358.370	-0.620	0.530	-0.920
2020/01/31 18:03:35.2	358.380	-0.610	0.550	-0.890
2020/01/31 18:03:35.3	358.390	-0.600	0.560	-0.860
2020/01/31 18:03:35.4	358.400	-0.580	0.560	-0.830
2020/01/31 18:03:35.5	358.410	-0.560	0.550	-0.800
2020/01/31 18:03:35.6	358.420	-0.530	0.530	-0.770
2020/01/31 18:03:35.7	358.420	-0.500	0.510	-0.740
2020/01/31 18:03:35.8	358.430	-0.470	0.480	-0.720
2020/01/31 18:03:35.9	358.440	-0.430	0.440	-0.680
2020/01/31 18:03:36.0	358.440	-0.390	0.400	-0.660
2020/01/31 18:03:36.1	358.440	-0.340	0.360	-0.630
2020/01/31 18:03:36.2	358.440	-0.300	0.310	-0.590
2020/01/31 18:03:36.3	358.440	-0.250	0.260	-0.560
2020/01/31 18:03:36.4	358.430	-0.200	0.210	-0.530
2020/01/31 18:03:36.5	358.420	-0.160	0.160	-0.500
2020/01/31 18:03:36.6	358.410	-0.110	0.110	-0.460
2020/01/31 18:03:36.7	358.400	-0.060	0.060	-0.420
2020/01/31 18:03:36.8	358.380	-0.010	0.020	-0.390
2020/01/31 18:03:36.9	358.370	0.030	-0.020	-0.350
2020/01/31 18:03:37.0	358.340	0.070	-0.060	-0.310
2020/01/31 18:03:37.1	358.310	0.110	-0.100	-0.270
2020/01/31 18:03:37.2	358.280	0.150	-0.120	-0.220
2020/01/31 18:03:37.3	358.250	0.180	-0.150	-0.180
2020/01/31 18:03:37.4	358.210	0.210	-0.170	-0.140
2020/01/31 18:03:37.5	358.170	0.230	-0.180	-0.100
2020/01/31 18:03:37.6	358.130	0.250	-0.190	-0.060
2020/01/31 18:03:37.7	358.090	0.270	-0.190	-0.020
2020/01/31 18:03:37.8	358.040	0.280	-0.190	0.020
2020/01/31 18:03:37.9	358.000	0.290	-0.190	0.060
2020/01/31 18:03:38.0	357.950	0.290	-0.170	0.090
2020/01/31 18:03:38.1	357.910	0.290	-0.160	0.120
2020/01/31 18:03:38.2	357.860	0.280	-0.140	0.150
2020/01/31 18:03:38.3	357.810	0.270	-0.120	0.180
2020/01/31 18:03:38.4	357.760	0.260	-0.100	0.200
2020/01/31 18:03:38.5	357.710	0.240	-0.070	0.230
2020/01/31 18:03:38.6	357.660	0.220	-0.040	0.240
2020/01/31 18:03:38.7	357.620	0.190	-0.020	0.260
2020/01/31 18:03:38.8	357.590	0.170	0.010	0.270
2020/01/31 18:03:38.9	357.540	0.140	0.030	0.270
2020/01/31 18:03:39.0	357.490	0.110	0.060	0.280
2020/01/31 18:03:39.1	357.450	0.080	0.080	0.280
2020/01/31 18:03:39.2	357.400	0.040	0.100	0.270
2020/01/31 18:03:39.3	357.360	0.010	0.110	0.270
2020/01/31 18:03:39.4	357.320	-0.020	0.130	0.250
2020/01/31 18:03:39.5	357.280	-0.050	0.130	0.240
2020/01/31 18:03:39.6	357.240	-0.080	0.140	0.220
2020/01/31 18:03:39.7	357.200	-0.110	0.140	0.200
2020/01/31 18:03:39.8	357.170	-0.130	0.130	0.180
2020/01/31 18:03:39.9	357.140	-0.150	0.120	0.150
2020/01/31 18:03:40.0	357.110	-0.170	0.100	0.120
2020/01/31 18:03:40.1	357.080	-0.190	0.080	0.090
2020/01/31 18:03:40.2	357.060	-0.200	0.060	0.060
2020/01/31 18:03:40.3	357.030	-0.210	0.030	0.020
2020/01/31 18:03:40.4	357.010	-0.210	-0.010	-0.010
2020/01/31 18:03:40.5	357.000	-0.210	-0.050	-0.050
2020/01/31 18:03:40.6	356.990	-0.200	-0.100	-0.080
2020/01/31 18:03:40.7	356.980	-0.190	-0.150	-0.120
2020/01/31 18:03:40.8	356.980	-0.170	-0.200	-0.160
2020/01/31 18:03:40.9	356.960	-0.150	-0.250	-0.200
2020/01/31 18:03:41.0	356.960	-0.120	-0.310	-0.240
2020/01/31 18:03:41.1	356.970	-0.100	-0.370	-0.290
2020/01/31 18:03:41.2	356.990	-0.060	-0.430	-0.330
2020/01/31 18:03:41.3	357.010	-0.030	-0.490	-0.370
2020/01/31 18:03:41.4	357.030	0.010	-0.560	-0.410
2020/01/31 18:03:41.5	357.050	0.060	-0.620	-0.450
2020/01/31 18:03:41.6	357.080	0.100	-0.680	-0.490
2020/01/31 18:03:41.7	357.110	0.150	-0.740	-0.530
2020/01/31 18:03:41.8	357.140	0.190	-0.790	-0.560
2020/01/31 18:03:41.9	357.190	0.240	-0.840	-0.600
2020/01/31 18:03:42.0	357.220	0.290	-0.890	-0.630
2020/01/31 18:03:42.1	357.260	0.330	-0.930	-0.660
2020/01/31 18:03:42.2	357.290	0.380	-0.960	-0.680
2020/01/31 18:03:42.3	357.320	0.420	-0.980	-0.700
2020/01/31 18:03:42.4	357.350	0.460	-1.000	-0.720
2020/01/31 18:03:42.5	357.380	0.490	-1.010	-0.720
2020/01/31 18:03:42.6	357.410	0.520	-1.010	-0.730
2020/01/31 18:03:42.7	357.430	0.550	-1.010	-0.730
2020/01/31 18:03:42.8	357.450	0.570	-0.990	-0.730
2020/01/31 18:03:42.9	357.490	0.590	-0.970	-0.720
2020/01/31 18:03:43.0	357.500	0.600	-0.940	-0.710
2020/01/31 18:03:43.1	357.520	0.610	-0.910	-0.690
2020/01/31 18:03:43.2	357.530	0.610	-0.860	-0.670
2020/01/31 18:03:43.3	357.540	0.610	-0.810	-0.640
2020/01/31 18:03:43.4	357.550	0.600	-0.760	-0.620
2020/01/31 18:03:43.5	357.560	0.590	-0.700	-0.590
2020/01/31 18:03:43.6	357.570	0.570	-0.630	-0.560
2020/01/31 18:03:43.7	357.570	0.550	-0.570	-0.530
2020/01/31 18:03:43.8	357.580	0.520	-0.500	-0.500
2020/01/31 18:03:43.9	357.580	0.490	-0.430	-0.460
2020/01/31 18:03:44.0	357.580	0.450	-0.370	-0.430
2020/01/31 18:03:44.1	357.590	0.410	-0.300	-0.400
2020/01/31 18:03:44.2	357.590	0.370	-0.230	-0.370
2020/01/31 18:03:44.3	357.600	0.330	-0.170	-0.340
2020/01/31 18:03:44.4	357.600	0.280	-0.110	-0.320
2020/01/31 18:03:44.5	357.610	0.230	-0.050	-0.290
2020/01/31 18:03:44.6	357.610	0.180	-0.000	-0.270
2020/01/31 18:03:44.7	357.610	0.130	0.050	-0.250
2020/01/31 18:03:44.8	357.610	0.070	0.090	-0.230
2020/01/31 18:03:44.9	357.600	0.020	0.130	-0.210
2020/01/31 18:03:45.0	357.590	-0.030	0.160	-0.190
2020/01/31 18:03:45.1	357.590	-0.080	0.200	-0.180
2020/01/31 18:03:45.2	357.580	-0.130	0.220	-0.160
2020/01/31 18:03:45.3	357.570	-0.180	0.240	-0.150
2020/01/31 18:03:45.4	357.560	-0.230	0.260	-0.130
2020/01/31 18:03:45.5	357.540	-0.270	0.280	-0.120
2020/01/31 18:03:45.6	357.530	-0.320	0.290	-0.100
2020/01/31 18:03:45.7	357.510	-0.360	0.290	-0.090
2020/01/31 18:03:45.8	357.490	-0.390	0.300	-0.070
2020/01/31 18:03:45.9	357.460	-0.430	0.300	-0.070
2020/01/31 18:03:46.0	357.430	-0.460	0.290	-0.060
2020/01/31 18:03:46.1	357.400	-0.490	0.280	-0.050
2020/01/31 18:03:46.2	357.380	-0.510	0.270	-0.040
2020/01/31 18:03:46.3	357.340	-0.530	0.260	-0.040
2020/01/31 18:03:46.4	357.310	-0.550	0.250	-0.040
2020/01/31 18:03:46.5	357.280	-0.570	0.230	-0.040
2020/01/31 18:03:46.6	357.250	-0.580	0.210	-0.040
2020/01/31 18:03:46.7	357.210	-0.580	0.190	-0.040
2020/01/31 18:03:46.8	357.180	-0.590	0.160	-0.050
2020/01/31 18:03:46.9	357.150	-0.590	0.140	-0.060
2020/01/31 18:03:47.0	357.120	-0.590	0.110	-0.070
2020/01/31 18:03:47.1	357.080	-0.590	0.080	-0.080
2020/01/31 18:03:47.2	357.050	-0.580	0.050	-0.100
2020/01/31 18:03:47.3	357.030	-0.570	0.020	-0.120
2020/01/31 18:03:47.4	357.000	-0.560	-0.020	-0.130
2020/01/31 18:03:47.5	356.980	-0.550	-0.050	-0.150
2020/01/31 18:03:47.6	356.960	-0.530	-0.090	-0.180
2020/01/31 18:03:47.7	356.940	-0.510	-0.130	-0.200
2020/01/31 18:03:47.8	356.930	-0.490	-0.170	-0.220
2020/01/31 18:03:47.9	356.930	-0.470	-0.210	-0.250
2020/01/31 18:03:48.0	356.920	-0.440	-0.260	-0.280
2020/01/31 18:03:48.1	356.920	-0.420	-0.300	-0.300
2020/01/31 18:03:48.2	356.920	-0.390	-0.340	-0.330
2020/01/31 18:03:48.3	356.930	-0.360	-0.390	-0.360
2020/01/31 18:03:48.4	356.930	-0.330	-0.430	-0.380
2020/01/31 18:03:48.5	356.940	-0.300	-0.470	-0.400
2020/01/31 18:03:48.6	356.950	-0.270	-0.510	-0.430
2020/01/31 18:03:48.7	356.960	-0.230	-0.550	-0.450
2020/01/31 18:03:48.8	356.980	-0.200	-0.580	-0.470
2020/01/31 18:03:48.9	356.990	-0.170	-0.620	-0.490
2020/01/31 18:03:49.0	357.010	-0.140	-0.650	-0.500
2020/01/31 18:03:49.1	357.020	-0.110	-0.670	-0.520
2020/01/31 18:03:49.2	357.040	-0.070	-0.690	-0.530
2020/01/31 18:03:49.3	357.050	-0.040	-0.710	-0.540
2020/01/31 18:03:49.4	357.070	-0.010	-0.720	-0.540
2020/01/31 18:03:49.5	357.080	0.020	-0.730	-0.540
2020/01/31 18:03:49.6	357.090	0.040	-0.730	-0.540
2020/01/31 18:03:49.7	357.100	0.070	-0.730	-0.540
2020/01/31 18:03:49.8	357.110	0.100	-0.720	-0.530
2020/01/31 18:03:49.9	357.110	0.120	-0.710	-0.520
2020/01/31 18:03:50.0	357.120	0.150	-0.700	-0.500
2020/01/31 18:03:50.1	357.120	0.170	-0.680	-0.480
2020/01/31 18:03:50.2	357.130	0.200	-0.660	-0.460
2020/01/31 18:03:50.3	357.130	0.220	-0.630	-0.430
2020/01/31 18:03:50.4	357.130	0.240	-0.600	-0.400
2020/01/31 18:03:50.5	357.130	0.260	-0.570	-0.370
2020/01/31 18:03:50.6	357.130	0.280	-0.530	-0.340
2020/01/31 18:03:50.7	357.130	0.300	-0.500	-0.300
2020/01/31 18:03:50.8	357.130	0.320	-0.460	-0.260
2020/01/31 18:03:50.9	357.120	0.330	-0.430	-0.220
2020/01/31 18:03:51.0	357.120	0.350	-0.390	-0.180
2020/01/31 18:03:51.1	357.120	0.360	-0.360	-0.130
2020/01/31 18:03:51.2	357.120	0.380	-0.330	-0.090
2020/01/31 18:03:51.3	357.120	0.390	-0.290	-0.050
2020/01/31 18:03:51.4	357.120	0.400	-0.260	-0.000
2020/01/31 18:03:51.5	357.110	0.410	-0.230	0.040
2020/01/31 18:03:51.6	357.110	0.420	-0.200	0.080
2020/01/31 18:03:51.7	357.110	0.420	-0.180	0.120
2020/01/31 18:03:51.8	357.100	0.420	-0.160	0.150
2020/01/31 18:03:51.9	357.100	0.420	-0.130	0.190
2020/01/31 18:03:52.0	357.100	0.420	-0.110	0.220
2020/01/31 18:03:52.1	357.090	0.420	-0.100	0.250
2020/01/31 18:03:52.2	357.090	0.410	-0.090	0.270
2020/01/31 18:03:52.3	357.080	0.400	-0.070	0.290
2020/01/31 18:03:52.4	357.080	0.390	-0.070	0.300
2020/01/31 18:03:52.5	357.070	0.380	-0.060	0.310
2020/01/31 18:03:52.6	357.070	0.360	-0.050	0.310
2020/01/31 18:03:52.7	357.070	0.340	-0.050	0.310
2020/01/31 18:03:52.8	357.070	0.320	-0.050	0.300
2020/01/31 18:03:52.9	357.080	0.300	-0.060	0.290
2020/01/31 18:03:53.0	357.080	0.270	-0.060	0.280
2020/01/31 18:03:53.1	357.080	0.250	-0.070	0.260
2020/01/31 18:03:53.2	357.090	0.220	-0.080	0.240
2020/01/31 18:03:53.3	357.090	0.190	-0.090	0.210
2020/01/31 18:03:53.4	357.100	0.160	-0.090	0.180
2020/01/31 18:03:53.5	357.110	0.130	-0.100	0.150
2020/01/31 18:03:53.6	357.120	0.100	-0.110	0.120
2020/01/31 18:03:53.7	357.130	0.060	-0.120	0.090
2020/01/31 18:03:53.8	357.140	0.030	-0.130	0.050
2020/01/31 18:03:53.9	357.170	-0.000	-0.150	0.000
2020/01/31 18:03:54.0	357.190	-0.030	-0.160	-0.030
2020/01/31 18:03:54.1	357.210	-0.060	-0.160	-0.080
2020/01/31 18:03:54.2	357.230	-0.090	-0.170	-0.120
2020/01/31 18:03:54.3	357.250	-0.120	-0.180	-0.160
2020/01/31 18:03:54.4	357.270	-0.150	-0.180	-0.200
2020/01/31 18:03:54.5	357.300	-0.180	-0.190	-0.250
2020/01/31 18:03:54.6	357.320	-0.200	-0.180	-0.290
2020/01/31 18:03:54.7	357.340	-0.230	-0.180	-0.330
2020/01/31 18:03:54.8	357.360	-0.250	-0.180	-0.380
2020/01/31 18:03:54.9	357.360	-0.270	-0.170	-0.420
2020/01/31 18:03:55.0	357.380	-0.290	-0.160	-0.460
2020/01/31 18:03:55.1	357.390	-0.310	-0.150	-0.490
2020/01/31 18:03:55.2	357.390	-0.330	-0.130	-0.530
2020/01/31 18:03:55.3	357.400	-0.340	-0.110	-0.550
2020/01/31 18:03:55.4	357.400	-0.350	-0.090	-0.580
2020/01/31 18:03:55.5	357.390	-0.360	-0.060	-0.600
2020/01/31 18:03:55.6	357.390	-0.370	-0.040	-0.620
2020/01/31 18:03:55.7	357.380	-0.370	-0.010	-0.630
2020/01/31 18:03:55.8	357.370	-0.380	0.020	-0.630
2020/01/31 18:03:55.9	357.350	-0.380	0.050	-0.640
2020/01/31 18:03:56.0	357.330	-0.380	0.080	-0.640
2020/01/31 18:03:56.1	357.310	-0.370	0.110	-0.630
2020/01/31 18:03:56.2	357.290	-0.370	0.140	-0.620
2020/01/31 18:03:56.3	357.260	-0.360	0.170	-0.600
2020/01/31 18:03:56.4	357.230	-0.350	0.200	-0.580
2020/01/31 18:03:56.5	357.210	-0.340	0.220	-0.550
2020/01/31 18:03:56.6	357.180	-0.330	0.240	-0.520
2020/01/31 18:03:56.7	357.150	-0.310	0.250	-0.490
2020/01/31 18:03:56.8	357.120	-0.290	0.260	-0.450
2020/01/31 18:03:56.9	357.090	-0.270	0.270	-0.410
2020/01/31 18:03:57.0	357.060	-0.250	0.270	-0.370
2020/01/31 18:03:57.1	357.040	-0.230	0.260	-0.330
2020/01/31 18:03:57.2	357.010	-0.200	0.250	-0.290
2020/01/31 18:03:57.3	356.990	-0.170	0.230	-0.250
2020/01/31 18:03:57.4	356.970	-0.140	0.200	-0.200
2020/01/31 18:03:57.5	356.940	-0.110	0.170	-0.160
2020/01/31 18:03:57.6	356.930	-0.080	0.130	-0.120
2020/01/31 18:03:57.7	356.910	-0.050	0.090	-0.080
2020/01/31 18:03:57.8	356.900	-0.010	0.040	-0.040
2020/01/31 18:03:57.9	356.880	0.020	-0.020	-0.000
2020/01/31 18:03:58.0	356.870	0.060	-0.080	0.030
2020/01/31 18:03:58.1	356.870	0.090	-0.150	0.050
2020/01/31 18:03:58.2	356.860	0.130	-0.220	0.070
2020/01/31 18:03:58.3	356.860	0.160	-0.290	0.090
2020/01/31 18:03:58.4	356.860	0.200	-0.370	0.100
2020/01/31 18:03:58.5	356.860	0.230	-0.440	0.100
2020/01/31 18:03:58.6	356.860	0.270	-0.520	0.110
2020/01/31 18:03:58.7	356.870	0.300	-0.600	0.100
2020/01/31 18:03:58.8	356.870	0.330	-0.680	0.090
2020/01/31 18:03:58.9	356.890	0.360	-0.750	0.070
2020/01/31 18:03:59.0	356.900	0.390	-0.830	0.060
2020/01/31 18:03:59.1	356.910	0.410	-0.900	0.040
2020/01/31 18:03:59.2	356.920	0.440	-0.960	0.020
2020/01/31 18:03:59.3	356.940	0.460	-1.020	0.010
2020/01/31 18:03:59.4	356.950	0.480	-1.080	-0.010
2020/01/31 18:03:59.5	356.970	0.500	-1.130	-0.030
2020/01/31 18:03:59.6	356.980	0.520	-1.170	-0.050
2020/01/31 18:03:59.7	357.000	0.530	-1.200	-0.070
2020/01/31 18:03:59.8	357.020	0.540	-1.230	-0.090
2020/01/31 18:03:59.9	357.040	0.550	-1.240	-0.110
2020/01/31 18:04:00.0	357.060	0.550	-1.250	-0.130
2020/01/31 18:04:00.1	357.080	0.550	-1.250	-0.150
2020/01/31 18:04:00.2	357.100	0.550	-1.240	-0.160
2020/01/31 18:04:00.3	357.130	0.540	-1.230	-0.180
2020/01/31 18:04:00.4	357.150	0.530	-1.200	-0.200
2020/01/31 18:04:00.5	357.170	0.520	-1.170	-0.210
2020/01/31 18:04:00.6	357.200	0.500	-1.130	-0.230
2020/01/31 18:04:00.7	357.220	0.480	-1.090	-0.240
2020/01/31 18:04:00.8	357.250	0.460	-1.040	-0.250
2020/01/31 18:04:00.9	357.270	0.440	-0.980	-0.260
2020/01/31 18:04:01.0	357.290	0.410	-0.920	-0.270
2020/01/31 18:04:01.1	357.320	0.370	-0.850	-0.280
2020/01/31 18:04:01.2	357.340	0.340	-0.780	-0.290
2020/01/31 18:04:01.3	357.360	0.300	-0.710	-0.300
2020/01/31 18:04:01.4	357.370	0.260	-0.630	-0.310
2020/01/31 18:04:01.5	357.390	0.220	-0.550	-0.310
2020/01/31 18:04:01.6	357.400	0.170	-0.470	-0.320
2020/01/31 18:04:01.7	357.410	0.130	-0.390	-0.320
2020/01/31 18:04:01.8	357.420	0.080	-0.310	-0.330
2020/01/31 18:04:01.9	357.430	0.030	-0.230	-0.330
2020/01/31 18:04:02.0	357.430	-0.030	-0.150	-0.330
2020/01/31 18:04:02.1	357.430	-0.080	-0.070	-0.330
2020/01/31 18:04:02.2	357.430	-0.130	0.010	-0.330
2020/01/31 18:04:02.3	357.430	-0.180	0.080	-0.330
2020/01/31 18:04:02.4	357.420	-0.230	0.160	-0.330
2020/01/31 18:04:02.5	357.410	-0.280	0.230	-0.320
2020/01/31 18:04:02.6	357.400	-0.330	0.290	-0.320
2020/01/31 18:04:02.7	357.400	-0.380	0.360	-0.320
2020/01/31 18:04:02.8	357.390	-0.430	0.410	-0.310
2020/01/31 18:04:02.9	357.360	-0.470	0.460	-0.310
2020/01/31 18:04:03.0	357.350	-0.510	0.510	-0.310
2020/01/31 18:04:03.1	357.350	-0.550	0.550	-0.300
2020/01/31 18:04:03.2	357.340	-0.580	0.590	-0.300
2020/01/31 18:04:03.3	357.330	-0.610	0.620	-0.300
2020/01/31 18:04:03.4	357.330	-0.630	0.640	-0.290
2020/01/31 18:04:03.5	357.330	-0.650	0.650	-0.290
2020/01/31 18:04:03.6	357.320	-0.670	0.660	-0.290
2020/01/31 18:04:03.7	357.320	-0.680	0.660	-0.290
2020/01/31 18:04:03.8	357.330	-0.680	0.650	-0.290
2020/01/31 18:04:03.9	357.330	-0.680	0.640	-0.300
2020/01/31 18:04:04.0	357.340	-0.670	0.620	-0.290
2020/01/31 18:04:04.1	357.340	-0.660	0.590	-0.290
2020/01/31 18:04:04.2	357.350	-0.650	0.560	-0.290
2020/01/31 18:04:04.3	357.350	-0.630	0.530	-0.290
2020/01/31 18:04:04.4	357.350	-0.600	0.480	-0.280
2020/01/31 18:04:04.5	357.360	-0.580	0.440	-0.270
2020/01/31 18:04:04.6	357.360	-0.540	0.390	-0.260
2020/01/31 18:04:04.7	357.360	-0.510	0.340	-0.250
2020/01/31 18:04:04.8	357.350	-0.470	0.290	-0.230
2020/01/31 18:04:04.9	357.350	-0.430	0.240	-0.210
2020/01/31 18:04:05.0	357.340	-0.390	0.180	-0.190
2020/01/31 18:04:05.1	357.330	-0.350	0.130	-0.170
2020/01/31 18:04:05.2	357.320	-0.310	0.080	-0.150
2020/01/31 18:04:05.3	357.310	-0.260	0.030	-0.130
2020/01/31 18:04:05.4	357.290	-0.220	-0.020	-0.100
2020/01/31 18:04:05.5	357.270	-0.180	-0.070	-0.070
2020/01/31 18:04:05.6	357.250	-0.130	-0.110	-0.040
2020/01/31 18:04:05.7	357.230	-0.090	-0.160	-0.010
2020/01/31 18:04:05.8	357.210	-0.050	-0.200	0.020
2020/01/31 18:04:05.9	357.180	-0.000	-0.230	0.050
2020/01/31 18:04:06.0	357.150	0.040	-0.260	0.080
2020/01/31 18:04:06.1	357.120	0.080	-0.290	0.110
2020/01/31 18:04:06.2	357.100	0.110	-0.320	0.140
2020/01/31 18:04:06.3	357.070	0.150	-0.340	0.170
2020/01/31 18:04:06.4	357.040	0.180	-0.360	0.200
2020/01/31 18:04:06.5	357.020	0.210	-0.380	0.230
2020/01/31 18:04:06.6	357.000	0.240	-0.390	0.260
2020/01/31 18:04:06.7	356.970	0.270	-0.400	0.290
2020/01/31 18:04:06.8	356.950	0.290	-0.420	0.310
2020/01/31 18:04:06.9	356.930	0.320	-0.430	0.340
2020/01/31 18:04:07.0	356.910	0.340	-0.440	0.360
2020/01/31 18:04:07.1	356.900	0.360	-0.450	0.370
2020/01/31 18:04:07.2	356.890	0.370	-0.460	0.390
2020/01/31 18:04:07.3	356.880	0.390	-0.470	0.400
2020/01/31 18:04:07.4	356.870	0.400	-0.480	0.410
2020/01/31 18:04:07.5	356.870	0.410	-0.490	0.420
2020/01/31 18:04:07.6	356.870	0.420	-0.510	0.420
2020/01/31 18:04:07.7	356.860	0.430	-0.520	0.420
2020/01/31 18:04:07.8	356.860	0.430	-0.530	0.420
2020/01/31 18:04:07.9	356.860	0.430	-0.550	0.410
2020/01/31 18:04:08.0	356.860	0.430	-0.560	0.410
2020/01/31 18:04:08.1	356.860	0.430	-0.570	0.400
2020/01/31 18:04:08.2	356.860	0.420	-0.590	0.380
2020/01/31 18:04:08.3	356.860	0.410	-0.600	0.360
2020/01/31 18:04:08.4	356.860	0.400	-0.610	0.340
2020/01/31 18:04:08.5	356.860	0.390	-0.620	0.310
2020/01/31 18:04:08.6	356.860	0.380	-0.630	0.280
2020/01/31 18:04:08.7	356.860	0.360	-0.640	0.250
2020/01/31 18:04:08.8	356.860	0.340	-0.640	0.210
2020/01/31 18:04:08.9	356.860	0.330	-0.640	0.170
2020/01/31 18:04:09.0	356.860	0.310	-0.650	0.130
2020/01/31 18:04:09.1	356.860	0.280	-0.650	0.090
2020/01/31 18:04:09.2	356.860	0.260	-0.640	0.040
2020/01/31 18:04:09.3	356.860	0.240	-0.640	-0.000
2020/01/31 18:04:09.4	356.860	0.210	-0.630	-0.050
2020/01/31 18:04:09.5	356.850	0.190	-0.620	-0.100
2020/01/31 18:04:09.6	356.850	0.160	-0.610	-0.140
2020/01/31 18:04:09.7	356.850	0.140	-0.590	-0.190
2020/01/31 18:04:09.8	356.850	0.110	-0.570	-0.240
2020/01/31 18:04:09.9	356.850	0.090	-0.550	-0.280
2020/01/31 18:04:10.0	356.850	0.060	-0.530	-0.320
2020/01/31 18:04:10.1	356.850	0.040	-0.500	-0.360
2020/01/31 18:04:10.2	356.840	0.010	-0.480	-0.400
2020/01/31 18:04:10.3	356.840	-0.010	-0.450	-0.430
2020/01/31 18:04:10.4	356.840	-0.030	-0.410	-0.460
2020/01/31 18:04:10.5	356.840	-0.050	-0.380	-0.480
2020/01/31 18:04:10.6	356.840	-0.070	-0.340	-0.510
2020/01/31 18:04:10.7	356.840	-0.080	-0.310	-0.520
2020/01/31 18:04:10.8	356.840	-0.100	-0.270	-0.540
2020/01/31 18:04:10.9	356.840	-0.110	-0.230	-0.560
2020/01/31 18:04:11.0	356.840	-0.120	-0.200	-0.570
2020/01/31 18:04:11.1	356.850	-0.130	-0.160	-0.570
2020/01/31 18:04:11.2	356.850	-0.130	-0.120	-0.570
2020/01/31 18:04:11.3	356.850	-0.130	-0.090	-0.580
2020/01/31 18:04:11.4	356.860	-0.140	-0.060	-0.570
2020/01/31 18:04:11.5	356.870	-0.130	-0.030	-0.570
2020/01/31 18:04:11.6	356.870	-0.130	-0.010	-0.570
2020/01/31 18:04:11.7	356.880	-0.130	0.010	-0.560
2020/01/31 18:04:11.8	356.890	-0.120	0.030	-0.550
2020/01/31 18:04:11.9	356.900	-0.110	0.040	-0.540
2020/01/31 18:04:12.0	356.920	-0.100	0.050	-0.530
2020/01/31 18:04:12.1	356.930	-0.090	0.060	-0.530
2020/01/31 18:04:12.2	356.940	-0.080	0.060	-0.520
2020/01/31 18:04:12.3	356.950	-0.070	0.050	-0.510
2020/01/31 18:04:12.4	356.970	-0.050	0.040	-0.500
2020/01/31 18:04:12.5	356.980	-0.040	0.030	-0.500
2020/01/31 18:04:12.6	357.000	-0.030	0.010	-0.490
2020/01/31 18:04:12.7	357.020	-0.020	-0.020	-0.490
2020/01/31 18:04:12.8	357.030	-0.000	-0.040	-0.480
2020/01/31 18:04:12.9	357.050	0.010	-0.080	-0.470
2020/01/31 18:04:13.0	357.060	0.020	-0.110	-0.470
2020/01/31 18:04:13.1	357.080	0.030	-0.150	-0.460
2020/01/31 18:04:13.2	357.100	0.030	-0.190	-0.460
2020/01/31 18:04:13.3	357.120	0.040	-0.230	-0.460
2020/01/31 18:04:13.4	357.140	0.040	-0.270	-0.450
2020/01/31 18:04:13.5	357.160	0.050	-0.310	-0.450
2020/01/31 18:04:13.6	357.180	0.050	-0.360	-0.440
2020/01/31 18:04:13.7	357.200	0.040	-0.400	-0.440
2020/01/31 18:04:13.8	357.210	0.040	-0.440	-0.430
2020/01/31 18:04:13.9	357.230	0.040	-0.480	-0.430
2020/01/31 18:04:14.0	357.250	0.030	-0.520	-0.420
2020/01/31 18:04:14.1	357.260	0.020	-0.560	-0.420
2020/01/31 18:04:14.2	357.280	0.010	-0.590	-0.410
2020/01/31 18:04:14.3	357.290	-0.010	-0.630	-0.410
2020/01/31 18:04:14.4	357.300	-0.020	-0.650	-0.400
2020/01/31 18:04:14.5	357.310	-0.040	-0.680	-0.400
2020/01/31 18:04:14.6	357.320	-0.060	-0.700	-0.390
2020/01/31 18:04:14.7	357.330	-0.080	-0.710	-0.390
2020/01/31 18:04:14.8	357.340	-0.090	-0.720	-0.390
2020/01/31 18:04:14.9	357.340	-0.110	-0.730	-0.390
2020/01/31 18:04:15.0	357.340	-0.130	-0.730	-0.390
2020/01/31 18:04:15.1	357.350	-0.150	-0.720	-0.380
2020/01/31 18:04:15.2	357.350	-0.170	-0.710	-0.380
2020/01/31 18:04:15.3	357.350	-0.190	-0.690	-0.380
2020/01/31 18:04:15.4	357.350	-0.210	-0.670	-0.370
2020/01/31 18:04:15.5	357.350	-0.230	-0.640	-0.360
2020/01/31 18:04:15.6	357.350	-0.240	-0.610	-0.350
2020/01/31 18:04:15.7	357.340	-0.250	-0.570	-0.330
2020/01/31 18:04:15.8	357.330	-0.260	-0.520	-0.310
2020/01/31 18:04:15.9	357.320	-0.270	-0.470	-0.300
2020/01/31 18:04:16.0	357.310	-0.280	-0.420	-0.270
2020/01/31 18:04:16.1	357.290	-0.290	-0.360	-0.240
2020/01/31 18:04:16.2	357.270	-0.290	-0.290	-0.210
2020/01/31 18:04:16.3	357.250	-0.290	-0.230	-0.180
2020/01/31 18:04:16.4	357.230	-0.290	-0.150	-0.140
2020/01/31 18:04:16.5	357.200	-0.280	-0.080	-0.100
2020/01/31 18:04:16.6	357.170	-0.270	-0.010	-0.060
2020/01/31 18:04:16.7	357.130	-0.270	0.070	-0.020
2020/01/31 18:04:16.8	357.090	-0.250	0.140	0.020
2020/01/31 18:04:16.9	357.060	-0.240	0.210	0.070
2020/01/31 18:04:17.0	357.020	-0.230	0.280	0.120
2020/01/31 18:04:17.1	356.980	-0.210	0.350	0.160
2020/01/31 18:04:17.2	356.930	-0.190	0.420	0.210
2020/01/31 18:04:17.3	356.880	-0.180	0.480	0.250
2020/01/31 18:04:17.4	356.840	-0.160	0.540	0.290
2020/01/31 18:04:17.5	356.790	-0.130	0.590	0.330
2020/01/31 18:04:17.6	356.740	-0.110	0.630	0.370
2020/01/31 18:04:17.7	356.690	-0.090	0.670	0.410
2020/01/31 18:04:17.8	356.640	-0.070	0.710	0.440
2020/01/31 18:04:17.9	356.600	-0.050	0.730	0.470
2020/01/31 18:04:18.0	356.550	-0.030	0.750	0.490
2020/01/31 18:04:18.1	356.500	-0.000	0.760	0.520
2020/01/31 18:04:18.2	356.450	0.020	0.760	0.530
2020/01/31 18:04:18.3	356.410	0.040	0.760	0.550
2020/01/31 18:04:18.4	356.370	0.060	0.750	0.560
2020/01/31 18:04:18.5	356.320	0.080	0.730	0.570
2020/01/31 18:04:18.6	356.280	0.100	0.700	0.570
2020/01/31 18:04:18.7	356.240	0.110	0.670	0.570
2020/01/31 18:04:18.8	356.200	0.130	0.630	0.570
2020/01/31 18:04:18.9	356.160	0.150	0.580	0.560
2020/01/31 18:04:19.0	356.120	0.160	0.530	0.550
2020/01/31 18:04:19.1	356.080	0.170	0.470	0.530
2020/01/31 18:04:19.2	356.050	0.180	0.400	0.520
2020/01/31 18:04:19.3	356.020	0.190	0.340	0.500
2020/01/31 18:04:19.4	355.990	0.200	0.260	0.470
2020/01/31 18:04:19.5	355.960	0.210	0.190	0.450
2020/01/31 18:04:19.6	355.930	0.220	0.110	0.420
2020/01/31 18:04:19.7	355.910	0.220	0.030	0.400
2020/01/31 18:04:19.8	355.890	0.220	-0.060	0.370
2020/01/31 18:04:19.9	355.860	0.230	-0.140	0.330
2020/01/31 18:04:20.0	355.850	0.230	-0.230	0.290
2020/01/31 18:04:20.1	355.840	0.230	-0.320	0.260
2020/01/31 18:04:20.2	355.830	0.230	-0.400	0.220
2020/01/31 18:04:20.3	355.840	0.230	-0.490	0.170
2020/01/31 18:04:20.4	355.840	0.240	-0.580	0.130
2020/01/31 18:04:20.5	355.860	0.240	-0.670	0.080
2020/01/31 18:04:20.6	355.870	0.240	-0.760	0.030
2020/01/31 18:04:20.7	355.900	0.240	-0.850	-0.030
2020/01/31 18:04:20.8	355.930	0.240	-0.940	-0.080
2020/01/31 18:04:20.9	355.950	0.240	-1.020	-0.150
2020/01/31 18:04:21.0	356.000	0.250	-1.100	-0.220
2020/01/31 18:04:21.1	356.040	0.250	-1.190	-0.280
2020/01/31 18:04:21.2	356.090	0.250	-1.260	-0.350
2020/01/31 18:04:21.3	356.150	0.250	-1.340	-0.420
2020/01/31 18:04:21.4	356.210	0.260	-1.400	-0.500
2020/01/31 18:04:21.5	356.270	0.260	-1.470	-0.570
2020/01/31 18:04:21.6	356.340	0.260	-1.520	-0.640
2020/01/31 18:04:21.7	356.400	0.260	-1.570	-0.720
2020/01/31 18:04:21.8	356.470	0.260	-1.610	-0.790
2020/01/31 18:04:21.9	356.540	0.260	-1.640	-0.860
2020/01/31 18:04:22.0	356.620	0.250	-1.660	-0.940
2020/01/31 18:04:22.1	356.690	0.250	-1.680	-1.010
2020/01/31 18:04:22.2	356.760	0.240	-1.680	-1.070
2020/01/31 18:04:22.3	356.820	0.230	-1.670	-1.130
2020/01/31 18:04:22.4	356.890	0.220	-1.660	-1.190
2020/01/31 18:04:22.5	356.960	0.210	-1.630	-1.250
2020/01/31 18:04:22.6	357.010	0.190	-1.590	-1.290
2020/01/31 18:04:22.7	357.070	0.180	-1.540	-1.330
2020/01/31 18:04:22.8	357.120	0.160	-1.480	-1.370
2020/01/31 18:04:22.9	357.170	0.130	-1.410	-1.400
2020/01/31 18:04:23.0	357.210	0.110	-1.330	-1.420
2020/01/31 18:04:23.1	357.240	0.080	-1.240	-1.430
2020/01/31 18:04:23.2	357.270	0.050	-1.140	-1.430
2020/01/31 18:04:23.3	357.290	0.020	-1.030	-1.430
2020/01/31 18:04:23.4	357.300	-0.010	-0.920	-1.410
2020/01/31 18:04:23.5	357.300	-0.050	-0.800	-1.390
2020/01/31 18:04:23.6	357.300	-0.090	-0.680	-1.370
2020/01/31 18:04:23.7	357.290	-0.120	-0.560	-1.340
2020/01/31 18:04:23.8	357.280	-0.160	-0.430	-1.300
2020/01/31 18:04:23.9	357.250	-0.200	-0.300	-1.250
2020/01/31 18:04:24.0	357.230	-0.240	-0.170	-1.210
2020/01/31 18:04:24.1	357.200	-0.280	-0.050	-1.160
2020/01/31 18:04:24.2	357.160	-0.320	0.080	-1.110
2020/01/31 18:04:24.3	357.130	-0.360	0.200	-1.060
2020/01/31 18:04:24.4	357.090	-0.400	0.320	-1.010
2020/01/31 18:04:24.5	357.050	-0.440	0.430	-0.950
2020/01/31 18:04:24.6	357.000	-0.470	0.530	-0.900
2020/01/31 18:04:24.7	356.950	-0.500	0.630	-0.840
2020/01/31 18:04:24.8	356.910	-0.530	0.720	-0.790
2020/01/31 18:04:24.9	356.850	-0.550	0.790	-0.740
2020/01/31 18:04:25.0	356.800	-0.570	0.860	-0.690
2020/01/31 18:04:25.1	356.750	-0.590	0.920	-0.640
2020/01/31 18:04:25.2	356.710	-0.600	0.970	-0.590
2020/01/31 18:04:25.3	356.660	-0.610	1.010	-0.540
2020/01/31 18:04:25.4	356.620	-0.610	1.040	-0.490
2020/01/31 18:04:25.5	356.580	-0.600	1.050	-0.440
2020/01/31 18:04:25.6	356.540	-0.590	1.060	-0.400
2020/01/31 18:04:25.7	356.500	-0.580	1.050	-0.360
2020/01/31 18:04:25.8	356.470	-0.560	1.030	-0.310
2020/01/31 18:04:25.9	356.450	-0.530	1.010	-0.270
2020/01/31 18:04:26.0	356.420	-0.500	0.970	-0.230
2020/01/31 18:04:26.1	356.400	-0.460	0.930	-0.190
2020/01/31 18:04:26.2	356.370	-0.410	0.880	-0.160
2020/01/31 18:04:26.3	356.350	-0.360	0.820	-0.120
2020/01/31 18:04:26.4	356.320	-0.310	0.750	-0.080
2020/01/31 18:04:26.5	356.300	-0.260	0.680	-0.050
2020/01/31 18:04:26.6	356.280	-0.200	0.600	-0.010
2020/01/31 18:04:26.7	356.260	-0.130	0.520	0.020
2020/01/31 18:04:26.8	356.240	-0.070	0.440	0.060
2020/01/31 18:04:26.9	356.230	-0.000	0.350	0.090
2020/01/31 18:04:27.0	356.210	0.070	0.270	0.120
2020/01/31 18:04:27.1	356.190	0.130	0.180	0.150
2020/01/31 18:04:27.2	356.170	0.200	0.090	0.180
2020/01/31 18:04:27.3	356.150	0.270	0.000	0.210
2020/01/31 18:04:27.4	356.140	0.330	-0.080	0.230
2020/01/31 18:04:27.5	356.120	0.390	-0.160	0.260
2020/01/31 18:04:27.6	356.100	0.450	-0.240	0.280
2020/01/31 18:04:27.7	356.080	0.500	-0.320	0.300
2020/01/31 18:04:27.8	356.060	0.560	-0.390	0.320
2020/01/31 18:04:27.9	356.060	0.600	-0.460	0.340
2020/01/31 18:04:28.0	356.040	0.640	-0.520	0.350
2020/01/31 18:04:28.1	356.020	0.680	-0.570	0.370
2020/01/31 18:04:28.2	356.000	0.710	-0.620	0.380
2020/01/31 18:04:28.3	355.980	0.730	-0.660	0.390
2020/01/31 18:04:28.4	355.960	0.750	-0.700	0.400
2020/01/31 18:04:28.5	355.950	0.760	-0.730	0.410
2020/01/31 18:04:28.6	355.930	0.760	-0.750	0.410
2020/01/31 18:04:28.7	355.920	0.760	-0.760	0.420
2020/01/31 18:04:28.8	355.900	0.750	-0.770	0.420
2020/01/31 18:04:28.9	355.870	0.730	-0.780	0.420
2020/01/31 18:04:29.0	355.860	0.710	-0.770	0.410
2020/01/31 18:04:29.1	355.850	0.680	-0.770	0.410
2020/01/31 18:04:29.2	355.840	0.640	-0.760	0.400
2020/01/31 18:04:29.3	355.840	0.600	-0.740	0.380
2020/01/31 18:04:29.4	355.830	0.550	-0.720	0.370
2020/01/31 18:04:29.5	355.830	0.500	-0.690	0.350
2020/01/31 18:04:29.6	355.830	0.450	-0.670	0.330
2020/01/31 18:04:29.7	355.830	0.390	-0.640	0.300
2020/01/31 18:04:29.8	355.840	0.320	-0.610	0.280
2020/01/31 18:04:29.9	355.850	0.260	-0.570	0.240
2020/01/31 18:04:30.0	355.850	0.190	-0.540	0.210
2020/01/31 18:04:30.1	355.860	0.120	-0.510	0.170
2020/01/31 18:04:30.2	355.880	0.050	-0.470	0.130
2020/01/31 18:04:30.3	355.890	-0.020	-0.430	0.090
2020/01/31 18:04:30.4	355.900	-0.090	-0.400	0.050
2020/01/31 18:04:30.5	355.920	-0.160	-0.370	0.010
2020/01/31 18:04:30.6	355.930	-0.220	-0.330	-0.030
2020/01/31 18:04:30.7	355.950	-0.290	-0.300	-0.070
2020/01/31 18:04:30.8	355.970	-0.350	-0.260	-0.110
2020/01/31 18:04:30.9	355.980	-0.400	-0.230	-0.150
2020/01/31 18:04:31.0	355.990	-0.460	-0.200	-0.190
2020/01/31 18:04:31.1	356.010	-0.500	-0.170	-0.230
2020/01/31 18:04:31.2	356.020	-0.550	-0.140	-0.270
2020/01/31 18:04:31.3	356.040	-0.590	-0.110	-0.300
2020/01/31 18:04:31.4	356.050	-0.620	-0.090	-0.330
2020/01/31 18:04:31.5	356.070	-0.650	-0.070	-0.370
2020/01/31 18:04:31.6	356.080	-0.670	-0.050	-0.400
2020/01/31 18:04:31.7	356.100	-0.690	-0.030	-0.420
2020/01/31 18:04:31.8	356.110	-0.700	-0.020	-0.450
2020/01/31 18:04:31.9	356.130	-0.700	-0.010	-0.480
2020/01/31 18:04:32.0	356.150	-0.700	-0.010	-0.500
2020/01/31 18:04:32.1	356.160	-0.690	-0.010	-0.520
2020/01/31 18:04:32.2	356.180	-0.680	-0.010	-0.540
2020/01/31 18:04:32.3	356.200	-0.660	-0.020	-0.560
2020/01/31 18:04:32.4	356.210	-0.640	-0.030	-0.570
2020/01/31 18:04:32.5	356.230	-0.620	-0.040	-0.590
2020/01/31 18:04:32.6	356.250	-0.590	-0.060	-0.600
2020/01/31 18:04:32.7	356.260	-0.560	-0.080	-0.610
2020/01/31 18:04:32.8	356.280	-0.520	-0.110	-0.610
2020/01/31 18:04:32.9	356.290	-0.480	-0.140	-0.620
2020/01/31 18:04:33.0	356.300	-0.440	-0.170	-0.620
2020/01/31 18:04:33.1	356.320	-0.400	-0.210	-0.630
2020/01/31 18:04:33.2	356.330	-0.360	-0.240	-0.630
2020/01/31 18:04:33.3	356.350	-0.310	-0.280	-0.630
2020/01/31 18:04:33.4	356.370	-0.270	-0.330	-0.630
2020/01/31 18:04:33.5	356.380	-0.220	-0.370	-0.630
2020/01/31 18:04:33.6	356.400	-0.180	-0.410	-0.630
2020/01/31 18:04:33.7	356.420	-0.130	-0.460	-0.630
2020/01/31 18:04:33.8	356.440	-0.090	-0.500	-0.630
2020/01/31 18:04:33.9	356.460	-0.050	-0.550	-0.640
2020/01/31 18:04:34.0	356.480	-0.010	-0.590	-0.640
2020/01/31 18:04:34.1	356.500	0.030	-0.630	-0.640
2020/01/31 18:04:34.2	356.520	0.070	-0.680	-0.640
2020/01/31 18:04:34.3	356.540	0.110	-0.710	-0.640
2020/01/31 18:04:34.4	356.560	0.140	-0.750	-0.640
2020/01/31 18:04:34.5	356.580	0.170	-0.780	-0.640
2020/01/31 18:04:34.6	356.600	0.200	-0.810	-0.640
2020/01/31 18:04:34.7	356.620	0.220	-0.840	-0.640
2020/01/31 18:04:34.8	356.630	0.240	-0.860	-0.640
2020/01/31 18:04:34.9	356.660	0.260	-0.880	-0.640
2020/01/31 18:04:35.0	356.680	0.280	-0.890	-0.640
2020/01/31 18:04:35.1	356.700	0.300	-0.900	-0.640
2020/01/31 18:04:35.2	356.710	0.310	-0.900	-0.630
2020/01/31 18:04:35.3	356.730	0.320	-0.890	-0.630
2020/01/31 18:04:35.4	356.750	0.320	-0.880	-0.630
2020/01/31 18:04:35.5	356.760	0.330	-0.870	-0.620
2020/01/31 18:04:35.6	356.780	0.330	-0.840	-0.610
2020/01/31 18:04:35.7	356.790	0.330	-0.820	-0.610
2020/01/31 18:04:35.8	356.800	0.330	-0.790	-0.590
2020/01/31 18:04:35.9	356.830	0.330	-0.750	-0.590
2020/01/31 18:04:36.0	356.840	0.330	-0.700	-0.570
2020/01/31 18:04:36.1	356.850	0.320	-0.660	-0.550
2020/01/31 18:04:36.2	356.860	0.320	-0.610	-0.540
2020/01/31 18:04:36.3	356.880	0.320	-0.550	-0.510
2020/01/31 18:04:36.4	356.890	0.310	-0.500	-0.490
2020/01/31 18:04:36.5	356.900	0.310	-0.440	-0.470
2020/01/31 18:04:36.6	356.910	0.300	-0.380	-0.440
2020/01/31 18:04:36.7	356.920	0.300	-0.310	-0.410
2020/01/31 18:04:36.8	356.930	0.300	-0.250	-0.380
2020/01/31 18:04:36.9	356.920	0.290	-0.190	-0.340
2020/01/31 18:04:37.0	356.930	0.290	-0.130	-0.300
2020/01/31 18:04:37.1	356.940	0.290	-0.060	-0.270
2020/01/31 18:04:37.2	356.940	0.290	0.000	-0.220
2020/01/31 18:04:37.3	356.930	0.290	0.070	-0.180
2020/01/31 18:04:37.4	356.930	0.280	0.130	-0.130
2020/01/31 18:04:37.5	356.920	0.280	0.190	-0.090
2020/01/31 18:04:37.6	356.910	0.280	0.250	-0.040
2020/01/31 18:04:37.7	356.900	0.280	0.300	0.000
2020/01/31 18:04:37.8	356.880	0.280	0.360	0.050
2020/01/31 18:04:37.9	356.870	0.270	0.410	0.090
2020/01/31 18:04:38.0	356.850	0.270	0.450	0.130
2020/01/31 18:04:38.1	356.830	0.270	0.490	0.170
2020/01/31 18:04:38.2	356.810	0.260	0.530	0.200
2020/01/31 18:04:38.3	356.790	0.260	0.560	0.240
2020/01/31 18:04:38.4	356.770	0.250	0.590	0.270
2020/01/31 18:04:38.5	356.750	0.240	0.610	0.290
2020/01/31 18:04:38.6	356.730	0.240	0.620	0.320
2020/01/31 18:04:38.7	356.710	0.230	0.630	0.340
2020/01/31 18:04:38.8	356.690	0.220	0.640	0.350
2020/01/31 18:04:38.9	356.680	0.210	0.630	0.370
2020/01/31 18:04:39.0	356.670	0.210	0.620	0.380
2020/01/31 18:04:39.1	356.660	0.200	0.610	0.380
2020/01/31 18:04:39.2	356.650	0.190	0.590	0.390
2020/01/31 18:04:39.3	356.640	0.180	0.560	0.390
2020/01/31 18:04:39.4	356.640	0.170	0.520	0.380
2020/01/31 18:04:39.5	356.640	0.160	0.480	0.370
2020/01/31 18:04:39.6	356.640	0.150	0.440	0.360
2020/01/31 18:04:39.7	356.650	0.140	0.390	0.350
2020/01/31 18:04:39.8	356.660	0.130	0.330	0.330
2020/01/31 18:04:39.9	356.670	0.120	0.270	0.310
2020/01/31 18:04:40.0	356.680	0.100	0.210	0.290
2020/01/31 18:04:40.1	356.690	0.090	0.150	0.270
2020/01/31 18:04:40.2	356.710	0.080	0.080	0.250
2020/01/31 18:04:40.3	356.720	0.060	0.020	0.220
2020/01/31 18:04:40.4	356.730	0.050	-0.050	0.190
2020/01/31 18:04:40.5	356.740	0.030	-0.110	0.160
2020/01/31 18:04:40.6	356.750	0.010	-0.170	0.130
2020/01/31 18:04:40.7	356.750	-0.010	-0.230	0.100
2020/01/31 18:04:40.8	356.760	-0.030	-0.290	0.070
2020/01/31 18:04:40.9	356.760	-0.050	-0.340	0.030
2020/01/31 18:04:41.0	356.770	-0.080	-0.390	-0.010
2020/01/31 18:04:41.1	356.770	-0.100	-0.430	-0.050
2020/01/31 18:04:41.2	356.770	-0.120	-0.460	-0.090
2020/01/31 18:04:41.3	356.770	-0.150	-0.490	-0.130
2020/01/31 18:04:41.4	356.770	-0.180	-0.520	-0.180
2020/01/31 18:04:41.5	356.770	-0.200	-0.530	-0.220
2020/01/31 18:04:41.6	356.770	-0.230	-0.550	-0.260
2020/01/31 18:04:41.7	356.770	-0.250	-0.550	-0.310
2020/01/31 18:04:41.8	356.760	-0.280	-0.550	-0.350
2020/01/31 18:04:41.9	356.760	-0.300	-0.550	-0.400
2020/01/31 18:04:42.0	356.750	-0.330	-0.540	-0.430
2020/01/31 18:04:42.1	356.750	-0.350	-0.530	-0.470
2020/01/31 18:04:42.2	356.750	-0.370	-0.520	-0.510
2020/01/31 18:04:42.3	356.750	-0.390	-0.500	-0.540
2020/01/31 18:04:42.4	356.750	-0.410	-0.490	-0.580
2020/01/31 18:04:42.5	356.750	-0.430	-0.470	-0.610
2020/01/31 18:04:42.6	356.760	-0.440	-0.450	-0.630
2020/01/31 18:04:42.7	356.770	-0.450	-0.440	-0.660
2020/01/31 18:04:42.8	356.770	-0.460	-0.420	-0.680
2020/01/31 18:04:42.9	356.790	-0.470	-0.410	-0.710
2020/01/31 18:04:43.0	356.800	-0.470	-0.400	-0.730
2020/01/31 18:04:43.1	356.810	-0.480	-0.390	-0.740
2020/01/31 18:04:43.2	356.830	-0.480	-0.380	-0.760
2020/01/31 18:04:43.3	356.850	-0.470	-0.380	-0.770
2020/01/31 18:04:43.4	356.860	-0.470	-0.370	-0.790
2020/01/31 18:04:43.5	356.880	-0.460	-0.380	-0.800
2020/01/31 18:04:43.6	356.900	-0.450	-0.380	-0.810
2020/01/31 18:04:43.7	356.920	-0.440	-0.390	-0.820
2020/01/31 18:04:43.8	356.940	-0.420	-0.400	-0.830
2020/01/31 18:04:43.9	356.970	-0.410	-0.410	-0.840
2020/01/31 18:04:44.0	356.990	-0.390	-0.420	-0.850
2020/01/31 18:04:44.1	357.010	-0.370	-0.440	-0.860
2020/01/31 18:04:44.2	357.040	-0.340	-0.460	-0.880
2020/01/31 18:04:44.3	357.060	-0.320	-0.480	-0.890
2020/01/31 18:04:44.4	357.080	-0.300	-0.500	-0.910
2020/01/31 18:04:44.5	357.110	-0.270	-0.520	-0.920
2020/01/31 18:04:44.6	357.130	-0.250	-0.550	-0.940
2020/01/31 18:04:44.7	357.150	-0.220	-0.570	-0.950
2020/01/31 18:04:44.8	357.170	-0.190	-0.590	-0.970
2020/01/31 18:04:44.9	357.200	-0.160	-0.620	-0.990
2020/01/31 18:04:45.0	357.220	-0.130	-0.640	-1.000
2020/01/31 18:04:45.1	357.240	-0.110	-0.660	-1.010
2020/01/31 18:04:45.2	357.260	-0.080	-0.680	-1.020
2020/01/31 18:04:45.3	357.290	-0.050	-0.700	-1.030
2020/01/31 18:04:45.4	357.310	-0.020	-0.710	-1.030
2020/01/31 18:04:45.5	357.330	0.010	-0.730	-1.030
2020/01/31 18:04:45.6	357.350	0.030	-0.740	-1.030
2020/01/31 18:04:45.7	357.370	0.060	-0.750	-1.020
2020/01/31 18:04:45.8	357.390	0.090	-0.760	-1.020
2020/01/31 18:04:45.9	357.390	0.110	-0.760	-1.010
2020/01/31 18:04:46.0	357.420	0.140	-0.770	-1.000
2020/01/31 18:04:46.1	357.440	0.160	-0.770	-0.980
2020/01/31 18:04:46.2	357.460	0.180	-0.770	-0.960
2020/01/31 18:04:46.3	357.490	0.200	-0.770	-0.940
2020/01/31 18:04:46.4	357.520	0.220	-0.770	-0.930
2020/01/31 18:04:46.5	357.540	0.240	-0.760	-0.910
2020/01/31 18:04:46.6	357.570	0.260	-0.760	-0.890
2020/01/31 18:04:46.7	357.600	0.270	-0.750	-0.870
2020/01/31 18:04:46.8	357.630	0.290	-0.740	-0.850
2020/01/31 18:04:46.9	357.660	0.300	-0.740	-0.830
2020/01/31 18:04:47.0	357.690	0.310	-0.730	-0.800
2020/01/31 18:04:47.1	357.730	0.320	-0.710	-0.780
2020/01/31 18:04:47.2	357.760	0.330	-0.700	-0.760
2020/01/31 18:04:47.3	357.790	0.340	-0.680	-0.740
2020/01/31 18:04:47.4	357.810	0.350	-0.660	-0.710
2020/01/31 18:04:47.5	357.840	0.350	-0.640	-0.690
2020/01/31 18:04:47.6	357.860	0.360	-0.620	-0.660
2020/01/31 18:04:47.7	357.880	0.360	-0.590	-0.640
2020/01/31 18:04:47.8	357.900	0.360	-0.560	-0.610
2020/01/31 18:04:47.9	357.910	0.360	-0.530	-0.580
2020/01/31 18:04:48.0	357.920	0.360	-0.500	-0.550
2020/01/31 18:04:48.1	357.920	0.350	-0.460	-0.510
2020/01/31 18:04:48.2	357.930	0.350	-0.420	-0.480
2020/01/31 18:04:48.3	357.930	0.340	-0.370	-0.450
2020/01/31 18:04:48.4	357.930	0.340	-0.320	-0.410
2020/01/31 18:04:48.5	357.920	0.330	-0.270	-0.370
2020/01/31 18:04:48.6	357.910	0.320	-0.220	-0.340
2020/01/31 18:04:48.7	357.900	0.310	-0.160	-0.300
2020/01/31 18:04:48.8	357.890	0.310	-0.100	-0.260
2020/01/31 18:04:48.9	357.880	0.290	-0.040	-0.220
2020/01/31 18:04:49.0	357.860	0.280	0.030	-0.180
2020/01/31 18:04:49.1	357.840	0.270	0.090	-0.130
2020/01/31 18:04:49.2	357.820	0.260	0.160	-0.090
2020/01/31 18:04:49.3	357.800	0.240	0.220	-0.050
2020/01/31 18:04:49.4	357.770	0.230	0.290	-0.000
2020/01/31 18:04:49.5	357.740	0.220	0.360	0.040
2020/01/31 18:04:49.6	357.710	0.200	0.420	0.090
2020/01/31 18:04:49.7	357.690	0.190	0.480	0.130
2020/01/31 18:04:49.8	357.660	0.170	0.540	0.180
2020/01/31 18:04:49.9	357.620	0.150	0.590	0.220
2020/01/31 18:04:50.0	357.590	0.140	0.640	0.270
2020/01/31 18:04:50.1	357.560	0.120	0.680	0.310
2020/01/31 18:04:50.2	357.530	0.100	0.720	0.350
2020/01/31 18:04:50.3	357.500	0.090	0.760	0.390
2020/01/31 18:04:50.4	357.470	0.070	0.790	0.420
2020/01/31 18:04:50.5	357.440	0.050	0.810	0.460
2020/01/31 18:04:50.6	357.410	0.030	0.830	0.490
2020/01/31 18:04:50.7	357.380	0.010	0.840	0.520
2020/01/31 18:04:50.8	357.350	-0.000	0.850	0.550
2020/01/31 18:04:50.9	357.340	-0.020	0.850	0.570
2020/01/31 18:04:51.0	357.310	-0.040	0.840	0.590
2020/01/31 18:04:51.1	357.280	-0.060	0.830	0.600
2020/01/31 18:04:51.2	357.250	-0.080	0.810	0.610
2020/01/31 18:04:51.3	357.230	-0.100	0.780	0.610
2020/01/31 18:04:51.4	357.200	-0.120	0.740	0.610
2020/01/31 18:04:51.5	357.180	-0.140	0.700	0.600
2020/01/31 18:04:51.6	357.160	-0.150	0.650	0.590
2020/01/31 18:04:51.7	357.140	-0.170	0.590	0.570
2020/01/31 18:04:51.8	357.130	-0.180	0.530	0.540
2020/01/31 18:04:51.9	357.120	-0.200	0.470	0.510
2020/01/31 18:04:52.0	357.110	-0.210	0.390	0.470
2020/01/31 18:04:52.1	357.100	-0.220	0.320	0.430
2020/01/31 18:04:52.2	357.100	-0.230	0.240	0.390
2020/01/31 18:04:52.3	357.100	-0.230	0.150	0.340
2020/01/31 18:04:52.4	357.100	-0.240	0.070	0.290
2020/01/31 18:04:52.5	357.110	-0.240	-0.020	0.240
2020/01/31 18:04:52.6	357.110	-0.240	-0.110	0.180
2020/01/31 18:04:52.7	357.120	-0.240	-0.200	0.130
2020/01/31 18:04:52.8	357.130	-0.240	-0.280	0.080
2020/01/31 18:04:52.9	357.150	-0.240	-0.370	0.020
2020/01/31 18:04:53.0	357.160	-0.230	-0.450	-0.040
2020/01/31 18:04:53.1	357.180	-0.230	-0.530	-0.090
2020/01/31 18:04:53.2	357.190	-0.220	-0.600	-0.150
2020/01/31 18:04:53.3	357.210	-0.210	-0.670	-0.200
2020/01/31 18:04:53.4	357.230	-0.200	-0.740	-0.250
2020/01/31 18:04:53.5	357.250	-0.190	-0.790	-0.300
2020/01/31 18:04:53.6	357.270	-0.170	-0.850	-0.360
2020/01/31 18:04:53.7	357.290	-0.160	-0.890	-0.410
2020/01/31 18:04:53.8	357.320	-0.150	-0.940	-0.460
2020/01/31 18:04:53.9	357.320	-0.130	-0.970	-0.510
2020/01/31 18:04:54.0	357.340	-0.120	-1.000	-0.560
2020/01/31 18:04:54.1	357.370	-0.100	-1.020	-0.610
2020/01/31 18:04:54.2	357.390	-0.080	-1.040	-0.650
2020/01/31 18:04:54.3	357.420	-0.070	-1.050	-0.700
2020/01/31 18:04:54.4	357.440	-0.050	-1.050	-0.730
2020/01/31 18:04:54.5	357.460	-0.030	-1.050	-0.770
2020/01/31 18:04:54.6	357.490	-0.020	-1.050	-0.800
2020/01/31 18:04:54.7	357.510	-0.000	-1.030	-0.830
2020/01/31 18:04:54.8	357.530	0.010	-1.020	-0.860
2020/01/31 18:04:54.9	357.550	0.030	-1.000	-0.880
2020/01/31 18:04:55.0	357.570	0.040	-0.970	-0.900
2020/01/31 18:04:55.1	357.580	0.050	-0.940	-0.910
2020/01/31 18:04:55.2	357.600	0.070	-0.910	-0.920
2020/01/31 18:04:55.3	357.610	0.080	-0.870	-0.930
2020/01/31 18:04:55.4	357.620	0.080	-0.840	-0.930
2020/01/31 18:04:55.5	357.640	0.090	-0.800	-0.930
2020/01/31 18:04:55.6	357.640	0.100	-0.760	-0.930
2020/01/31 18:04:55.7	357.650	0.100	-0.710	-0.930
2020/01/31 18:04:55.8	357.660	0.100	-0.670	-0.920
2020/01/31 18:04:55.9	357.660	0.100	-0.630	-0.910
2020/01/31 18:04:56.0	357.670	0.100	-0.590	-0.900
2020/01/31 18:04:56.1	357.670	0.090	-0.550	-0.900
2020/01/31 18:04:56.2	357.670	0.090	-0.510	-0.890
2020/01/31 18:04:56.3	357.680	0.080	-0.480	-0.880
2020/01/31 18:04:56.4	357.680	0.070	-0.450	-0.880
2020/01/31 18:04:56.5	357.690	0.060	-0.420	-0.870
2020/01/31 18:04:56.6	357.690	0.040	-0.390	-0.860
2020/01/31 18:04:56.7	357.700	0.030	-0.370	-0.860
2020/01/31 18:04:56.8	357.710	0.020	-0.350	-0.850
2020/01/31 18:04:56.9	357.730	0.000	-0.340	-0.850
2020/01/31 18:04:57.0	357.740	-0.010	-0.330	-0.850
2020/01/31 18:04:57.1	357.750	-0.020	-0.330	-0.850
2020/01/31 18:04:57.2	357.770	-0.040	-0.330	-0.850
2020/01/31 18:04:57.3	357.780	-0.050	-0.330	-0.850
2020/01/31 18:04:57.4	357.800	-0.060	-0.340	-0.850
2020/01/31 18:04:57.5	357.820	-0.070	-0.350	-0.850
2020/01/31 18:04:57.6	357.850	-0.080	-0.360	-0.850
2020/01/31 18:04:57.7	357.870	-0.090	-0.380	-0.860
2020/01/31 18:04:57.8	357.900	-0.100	-0.400	-0.860
2020/01/31 18:04:57.9	357.920	-0.100	-0.410	-0.860
2020/01/31 18:04:58.0	357.950	-0.100	-0.430	-0.860
2020/01/31 18:04:58.1	357.980	-0.100	-0.450	-0.860
2020/01/31 18:04:58.2	358.010	-0.100	-0.470	-0.860
2020/01/31 18:04:58.3	358.040	-0.100	-0.480	-0.850
2020/01/31 18:04:58.4	358.070	-0.100	-0.490	-0.840
2020/01/31 18:04:58.5	358.100	-0.090	-0.490	-0.830
2020/01/31 18:04:58.6	358.120	-0.090	-0.490	-0.820
2020/01/31 18:04:58.7	358.150	-0.080	-0.490	-0.800
2020/01/31 18:04:58.8	358.170	-0.070	-0.480	-0.780
2020/01/31 18:04:58.9	358.180	-0.070	-0.460	-0.760
2020/01/31 18:04:59.0	358.200	-0.060	-0.440	-0.740
2020/01/31 18:04:59.1	358.210	-0.050	-0.410	-0.710
2020/01/31 18:04:59.2	358.220	-0.040	-0.380	-0.670
2020/01/31 18:04:59.3	358.230	-0.040	-0.340	-0.640
2020/01/31 18:04:59.4	358.230	-0.030	-0.300	-0.600
2020/01/31 18:04:59.5	358.240	-0.020	-0.250	-0.560
2020/01/31 18:04:59.6	358.240	-0.020	-0.200	-0.520
2020/01/31 18:04:59.7	358.240	-0.020	-0.150	-0.470
2020/01/31 18:04:59.8	358.230	-0.010	-0.090	-0.420
2020/01/31 18:04:59.9	358.230	-0.010	-0.040	-0.370
2020/01/31 18:05:00.0	358.220	-0.010	0.020	-0.320
2020/01/31 18:05:00.1	358.210	-0.020	0.070	-0.270
2020/01/31 18:05:00.2	358.200	-0.020	0.120	-0.220
2020/01/31 18:05:00.3	358.180	-0.020	0.170	-0.170
2020/01/31 18:05:00.4	358.170	-0.030	0.220	-0.120
2020/01/31 18:05:00.5	358.150	-0.030	0.260	-0.070
2020/01/31 18:05:00.6	358.130	-0.040	0.300	-0.020
2020/01/31 18:05:00.7	358.110	-0.050	0.330	0.030
2020/01/31 18:05:00.8	358.080	-0.050	0.360	0.080
2020/01/31 18:05:00.9	358.060	-0.060	0.380	0.120
2020/01/31 18:05:01.0	358.040	-0.070	0.400	0.170
2020/01/31 18:05:01.1	358.010	-0.080	0.410	0.200
2020/01/31 18:05:01.2	357.990	-0.080	0.410	0.240
2020/01/31 18:05:01.3	357.970	-0.090	0.410	0.270
2020/01/31 18:05:01.4	357.950	-0.100	0.400	0.290
2020/01/31 18:05:01.5	357.930	-0.100	0.390	0.320
2020/01/31 18:05:01.6	357.910	-0.100	0.370	0.330
2020/01/31 18:05:01.7	357.900	-0.110	0.340	0.340
2020/01/31 18:05:01.8	357.890	-0.110	0.310	0.350
2020/01/31 18:05:01.9	357.890	-0.110	0.280	0.340
2020/01/31 18:05:02.0	357.880	-0.100	0.240	0.340
2020/01/31 18:05:02.1	357.870	-0.100	0.190	0.330
2020/01/31 18:05:02.2	357.860	-0.090	0.150	0.320
2020/01/31 18:05:02.3	357.860	-0.080	0.100	0.300
2020/01/31 18:05:02.4	357.850	-0.060	0.060	0.290
2020/01/31 18:05:02.5	357.850	-0.050	0.010	0.270
2020/01/31 18:05:02.6	357.850	-0.030	-0.040	0.250
2020/01/31 18:05:02.7	357.850	-0.010	-0.080	0.220
2020/01/31 18:05:02.8	357.850	0.010	-0.130	0.200
2020/01/31 18:05:02.9	357.850	0.030	-0.180	0.180
2020/01/31 18:05:03.0	357.860	0.060	-0.220	0.150
2020/01/31 18:05:03.1	357.860	0.080	-0.260	0.130
2020/01/31 18:05:03.2	357.870	0.110	-0.290	0.110
2020/01/31 18:05:03.3	357.870	0.140	-0.320	0.090
2020/01/31 18:05:03.4	357.880	0.170	-0.350	0.070
2020/01/31 18:05:03.5	357.890	0.200	-0.370	0.050
2020/01/31 18:05:03.6	357.900	0.220	-0.390	0.030
2020/01/31 18:05:03.7	357.900	0.250	-0.400	0.020
2020/01/31 18:05:03.8	357.910	0.280	-0.410	0.000
2020/01/31 18:05:03.9	357.920	0.300	-0.410	-0.010
2020/01/31 18:05:04.0	357.930	0.320	-0.410	-0.030
2020/01/31 18:05:04.1	357.940	0.340	-0.400	-0.040
2020/01/31 18:05:04.2	357.940	0.360	-0.390	-0.050
2020/01/31 18:05:04.3	357.950	0.380	-0.380	-0.060
2020/01/31 18:05:04.4	357.950	0.390	-0.360	-0.080
2020/01/31 18:05:04.5	357.950	0.390	-0.340	-0.090
2020/01/31 18:05:04.6	357.950	0.400	-0.320	-0.100
2020/01/31 18:05:04.7	357.940	0.400	-0.300	-0.100
2020/01/31 18:05:04.8	357.940	0.400	-0.270	-0.110
2020/01/31 18:05:04.9	357.920	0.390	-0.250	-0.120
2020/01/31 18:05:05.0	357.910	0.380	-0.220	-0.130
2020/01/31 18:05:05.1	357.890	0.360	-0.190	-0.140
2020/01/31 18:05:05.2	357.870	0.350	-0.160	-0.150
2020/01/31 18:05:05.3	357.850	0.320	-0.130	-0.160
2020/01/31 18:05:05.4	357.830	0.300	-0.110	-0.170
2020/01/31 18:05:05.5	357.800	0.270	-0.080	-0.180
2020/01/31 18:05:05.6	357.780	0.230	-0.060	-0.200
2020/01/31 18:05:05.7	357.760	0.200	-0.040	-0.210
2020/01/31 18:05:05.8	357.730	0.160	-0.020	-0.230
2020/01/31 18:05:05.9	357.700	0.120	-0.010	-0.250
2020/01/31 18:05:06.0	357.680	0.070	0.000	-0.270
2020/01/31 18:05:06.1	357.660	0.030	0.010	-0.300
2020/01/31 18:05:06.2	357.640	-0.020	0.010	-0.320
2020/01/31 18:05:06.3	357.620	-0.060	0.000	-0.340
2020/01/31 18:05:06.4	357.600	-0.110	-0.000	-0.370
2020/01/31 18:05:06.5	357.590	-0.160	-0.020	-0.400
2020/01/31 18:05:06.6	357.580	-0.200	-0.030	-0.430
2020/01/31 18:05:06.7	357.580	-0.250	-0.060	-0.460
2020/01/31 18:05:06.8	357.580	-0.290	-0.080	-0.500
2020/01/31 18:05:06.9	357.590	-0.330	-0.110	-0.540
2020/01/31 18:05:07.0	357.600	-0.370	-0.150	-0.580
2020/01/31 18:05:07.1	357.610	-0.400	-0.190	-0.620
2020/01/31 18:05:07.2	357.630	-0.440	-0.240	-0.660
2020/01/31 18:05:07.3	357.650	-0.460	-0.290	-0.700
2020/01/31 18:05:07.4	357.670	-0.490	-0.340	-0.740
2020/01/31 18:05:07.5	357.700	-0.510	-0.400	-0.790
2020/01/31 18:05:07.6	357.740	-0.530	-0.450	-0.830
2020/01/31 18:05:07.7	357.770	-0.540	-0.510	-0.880
2020/01/31 18:05:07.8	357.810	-0.550	-0.570	-0.920
2020/01/31 18:05:07.9	357.820	-0.550	-0.630	-0.970
2020/01/31 18:05:08.0	357.870	-0.550	-0.690	-1.020
2020/01/31 18:05:08.1	357.910	-0.540	-0.750	-1.060
2020/01/31 18:05:08.2	357.960	-0.540	-0.800	-1.100
2020/01/31 18:05:08.3	358.000	-0.520	-0.860	-1.140
2020/01/31 18:05:08.4	358.050	-0.510	-0.900	-1.170
2020/01/31 18:05:08.5	358.100	-0.490	-0.950	-1.200
2020/01/31 18:05:08.6	358.140	-0.460	-0.980	-1.230
2020/01/31 18:05:08.7	358.190	-0.440	-1.020	-1.260
2020/01/31 18:05:08.8	358.240	-0.410	-1.040	-1.280
2020/01/31 18:05:08.9	358.290	-0.380	-1.070	-1.300
2020/01/31 18:05:09.0	358.330	-0.340	-1.080	-1.310
2020/01/31 18:05:09.1	358.380	-0.310	-1.090	-1.320
2020/01/31 18:05:09.2	358.420	-0.270	-1.090	-1.320
2020/01/31 18:05:09.3	358.460	-0.230	-1.090	-1.310
2020/01/31 18:05:09.4	358.500	-0.190	-1.080	-1.300
2020/01/31 18:05:09.5	358.540	-0.150	-1.060	-1.280
2020/01/31 18:05:09.6	358.570	-0.110	-1.040	-1.260
2020/01/31 18:05:09.7	358.600	-0.070	-1.010	-1.230
2020/01/31 18:05:09.8	358.640	-0.030	-0.980	-1.200
2020/01/31 18:05:09.9	358.650	0.010	-0.950	-1.160
2020/01/31 18:05:10.0	358.680	0.050	-0.910	-1.120
2020/01/31 18:05:10.1	358.710	0.090	-0.870	-1.080
2020/01/31 18:05:10.2	358.730	0.120	-0.830	-1.040
2020/01/31 18:05:10.3	358.750	0.160	-0.780	-0.990
2020/01/31 18:05:10.4	358.770	0.190	-0.730	-0.940
2020/01/31 18:05:10.5	358.790	0.210	-0.680	-0.890
2020/01/31 18:05:10.6	358.800	0.240	-0.630	-0.840
2020/01/31 18:05:10.7	358.810	0.260	-0.580	-0.780
2020/01/31 18:05:10.8	358.820	0.290	-0.530	-0.730
2020/01/31 18:05:10.9	358.840	0.300	-0.490	-0.670
2020/01/31 18:05:11.0	358.840	0.320	-0.430	-0.610
2020/01/31 18:05:11.1	358.840	0.330	-0.380	-0.560
2020/01/31 18:05:11.2	358.840	0.340	-0.330	-0.500
2020/01/31 18:05:11.3	358.830	0.350	-0.290	-0.440
2020/01/31 18:05:11.4	358.820	0.350	-0.240	-0.380
2020/01/31 18:05:11.5	358.810	0.360	-0.190	-0.320
2020/01/31 18:05:11.6	358.790	0.360	-0.150	-0.260
2020/01/31 18:05:11.7	358.780	0.350	-0.100	-0.210
2020/01/31 18:05:11.8	358.760	0.350	-0.060	-0.150
2020/01/31 18:05:11.9	358.730	0.340	-0.010	-0.100
2020/01/31 18:05:12.0	358.710	0.340	0.030	-0.040
2020/01/31 18:05:12.1	358.680	0.330	0.070	0.010
2020/01/31 18:05:12.2	358.650	0.320	0.100	0.060
2020/01/31 18:05:12.3	358.620	0.310	0.140	0.110
2020/01/31 18:05:12.4	358.590	0.290	0.180	0.150
2020/01/31 18:05:12.5	358.560	0.280	0.210	0.200
2020/01/31 18:05:12.6	358.530	0.270	0.250	0.240
2020/01/31 18:05:12.7	358.490	0.260	0.280	0.280
2020/01/31 18:05:12.8	358.460	0.240	0.310	0.310
2020/01/31 18:05:12.9	358.430	0.230	0.340	0.340
2020/01/31 18:05:13.0	358.400	0.220	0.370	0.380
2020/01/31 18:05:13.1	358.360	0.210	0.400	0.410
2020/01/31 18:05:13.2	358.330	0.200	0.420	0.430
2020/01/31 18:05:13.3	358.300	0.190	0.450	0.460
2020/01/31 18:05:13.4	358.270	0.180	0.470	0.480
2020/01/31 18:05:13.5	358.240	0.170	0.490	0.490
2020/01/31 18:05:13.6	358.200	0.160	0.510	0.510
2020/01/31 18:05:13.7	358.170	0.150	0.530	0.520
2020/01/31 18:05:13.8	358.150	0.140	0.550	0.520
2020/01/31 18:05:13.9	358.130	0.130	0.560	0.520
2020/01/31 18:05:14.0	358.100	0.130	0.570	0.520
2020/01/31 18:05:14.1	358.070	0.120	0.580	0.510
2020/01/31 18:05:14.2	358.050	0.110	0.580	0.500
2020/01/31 18:05:14.3	358.020	0.100	0.580	0.490
2020/01/31 18:05:14.4	358.000	0.090	0.580	0.470
2020/01/31 18:05:14.5	357.980	0.080	0.570	0.450
2020/01/31 18:05:14.6	357.960	0.070	0.560	0.430
2020/01/31 18:05:14.7	357.950	0.060	0.540	0.400
2020/01/31 18:05:14.8	357.930	0.050	0.520	0.370
2020/01/31 18:05:14.9	357.940	0.040	0.500	0.340
2020/01/31 18:05:15.0	357.930	0.030	0.470	0.300
2020/01/31 18:05:15.1	357.920	0.020	0.430	0.270
2020/01/31 18:05:15.2	357.920	0.010	0.390	0.230
2020/01/31 18:05:15.3	357.920	-0.000	0.340	0.190
2020/01/31 18:05:15.4	357.920	-0.020	0.290	0.150
2020/01/31 18:05:15.5	357.930	-0.030	0.240	0.110
2020/01/31 18:05:15.6	357.940	-0.040	0.180	0.060
2020/01/31 18:05:15.7	357.950	-0.060	0.120	0.020
2020/01/31 18:05:15.8	357.960	-0.070	0.060	-0.030
2020/01/31 18:05:15.9	357.980	-0.080	-0.010	-0.080
2020/01/31 18:05:16.0	358.000	-0.100	-0.080	-0.130
2020/01/31 18:05:16.1	358.020	-0.110	-0.150	-0.180
2020/01/31 18:05:16.2	358.050	-0.130	-0.220	-0.230
2020/01/31 18:05:16.3	358.070	-0.140	-0.290	-0.280
2020/01/31 18:05:16.4	358.100	-0.150	-0.360	-0.330
2020/01/31 18:05:16.5	358.120	-0.170	-0.440	-0.380
2020/01/31 18:05:16.6	358.150	-0.180	-0.500	-0.430
2020/01/31 18:05:16.7	358.180	-0.190	-0.570	-0.470
2020/01/31 18:05:16.8	358.200	-0.200	-0.630	-0.510
2020/01/31 18:05:16.9	358.210	-0.220	-0.690	-0.560
2020/01/31 18:05:17.0	358.230	-0.230	-0.740	-0.600
2020/01/31 18:05:17.1	358.250	-0.240	-0.790	-0.630
2020/01/31 18:05:17.2	358.270	-0.250	-0.830	-0.660
2020/01/31 18:05:17.3	358.280	-0.260	-0.870	-0.680
2020/01/31 18:05:17.4	358.290	-0.270	-0.900	-0.700
2020/01/31 18:05:17.5	358.300	-0.280	-0.920	-0.720
2020/01/31 18:05:17.6	358.310	-0.280	-0.930	-0.730
2020/01/31 18:05:17.7	358.310	-0.290	-0.940	-0.730
2020/01/31 18:05:17.8	358.320	-0.290	-0.930	-0.740
2020/01/31 18:05:17.9	358.320	-0.300	-0.930	-0.740
2020/01/31 18:05:18.0	358.320	-0.300	-0.910	-0.730
2020/01/31 18:05:18.1	358.320	-0.300	-0.890	-0.720
2020/01/31 18:05:18.2	358.310	-0.300	-0.860	-0.700
2020/01/31 18:05:18.3	358.310	-0.300	-0.830	-0.690
2020/01/31 18:05:18.4	358.300	-0.300	-0.800	-0.670
2020/01/31 18:05:18.5	358.300	-0.300	-0.760	-0.650
2020/01/31 18:05:18.6	358.290	-0.290	-0.720	-0.630
2020/01/31 18:05:18.7	358.290	-0.290	-0.670	-0.600
2020/01/31 18:05:18.8	358.280	-0.280	-0.630	-0.580
2020/01/31 18:05:18.9	358.260	-0.270	-0.590	-0.560
2020/01/31 18:05:19.0	358.260	-0.260	-0.540	-0.530
2020/01/31 18:05:19.1	358.260	-0.260	-0.500	-0.510
2020/01/31 18:05:19.2	358.260	-0.240	-0.460	-0.490
2020/01/31 18:05:19.3	358.260	-0.230	-0.430	-0.460
2020/01/31 18:05:19.4	358.260	-0.220	-0.390	-0.440
2020/01/31 18:05:19.5	358.260	-0.210	-0.360	-0.430
2020/01/31 18:05:19.6	358.270	-0.190	-0.330	-0.410
2020/01/31 18:05:19.7	358.280	-0.170	-0.310	-0.400
2020/01/31 18:05:19.8	358.290	-0.160	-0.290	-0.380
2020/01/31 18:05:19.9	358.310	-0.140	-0.280	-0.380
2020/01/31 18:05:20.0	358.330	-0.120	-0.270	-0.370
2020/01/31 18:05:20.1	358.350	-0.100	-0.270	-0.370
2020/01/31 18:05:20.2	358.380	-0.080	-0.280	-0.370
2020/01/31 18:05:20.3	358.400	-0.050	-0.280	-0.380
2020/01/31 18:05:20.4	358.440	-0.030	-0.300	-0.390
2020/01/31 18:05:20.5	358.470	-0.000	-0.310	-0.410
2020/01/31 18:05:20.6	358.510	0.020	-0.340	-0.420
2020/01/31 18:05:20.7	358.560	0.050	-0.360	-0.450
2020/01/31 18:05:20.8	358.600	0.080	-0.390	-0.470
2020/01/31 18:05:20.9	358.650	0.100	-0.420	-0.500
2020/01/31 18:05:21.0	358.690	0.130	-0.450	-0.520
2020/01/31 18:05:21.1	358.740	0.160	-0.480	-0.550
2020/01/31 18:05:21.2	358.790	0.190	-0.520	-0.580
2020/01/31 18:05:21.3	358.840	0.210	-0.550	-0.600
2020/01/31 18:05:21.4	358.890	0.240	-0.580	-0.620
2020/01/31 18:05:21.5	358.940	0.260	-0.610	-0.640
2020/01/31 18:05:21.6	358.980	0.280	-0.630	-0.660
2020/01/31 18:05:21.7	359.030	0.300	-0.650	-0.670
2020/01/31 18:05:21.8	359.070	0.320	-0.670	-0.690
2020/01/31 18:05:21.9	359.110	0.340	-0.680	-0.700
2020/01/31 18:05:22.0	359.150	0.350	-0.690	-0.710
2020/01/31 18:05:22.1	359.180	0.360	-0.690	-0.710
2020/01/31 18:05:22.2	359.210	0.370	-0.690	-0.710
2020/01/31 18:05:22.3	359.240	0.370	-0.680	-0.710
2020/01/31 18:05:22.4	359.270	0.370	-0.670	-0.710
2020/01/31 18:05:22.5	359.290	0.370	-0.650	-0.710
2020/01/31 18:05:22.6	359.300	0.370	-0.630	-0.700
2020/01/31 18:05:22.7	359.310	0.360	-0.590	-0.690
2020/01/31 18:05:22.8	359.320	0.340	-0.560	-0.670
2020/01/31 18:05:22.9	359.320	0.330	-0.520	-0.650
2020/01/31 18:05:23.0	359.320	0.310	-0.470	-0.630
2020/01/31 18:05:23.1	359.310	0.290	-0.430	-0.610
2020/01/31 18:05:23.2	359.300	0.270	-0.380	-0.590
2020/01/31 18:05:23.3	359.290	0.240	-0.320	-0.560
2020/01/31 18:05:23.4	359.270	0.220	-0.260	-0.530
2020/01/31 18:05:23.5	359.240	0.190	-0.210	-0.500
2020/01/31 18:05:23.6	359.210	0.160	-0.140	-0.470
2020/01/31 18:05:23.7	359.170	0.120	-0.080	-0.440
2020/01/31 18:05:23.8	359.140	0.090	-0.020	-0.400
2020/01/31 18:05:23.9	359.100	0.060	0.040	-0.370
2020/01/31 18:05:24.0	359.050	0.030	0.100	-0.330
2020/01/31 18:05:24.1	359.000	-0.010	0.160	-0.290
2020/01/31 18:05:24.2	358.950	-0.040	0.220	-0.250
2020/01/31 18:05:24.3	358.890	-0.070	0.280	-0.210
2020/01/31 18:05:24.4	358.840	-0.100	0.330	-0.170
2020/01/31 18:05:24.5	358.780	-0.120	0.380	-0.130
2020/01/31 18:05:24.6	358.720	-0.150	0.420	-0.090
2020/01/31 18:05:24.7	358.660	-0.170	0.460	-0.050
2020/01/31 18:05:24.8	358.610	-0.190	0.490	-0.020
2020/01/31 18:05:24.9	358.550	-0.200	0.520	0.020
2020/01/31 18:05:25.0	358.500	-0.210	0.540	0.050
2020/01/31 18:05:25.1	358.440	-0.220	0.560	0.080
2020/01/31 18:05:25.2	358.400	-0.220	0.570	0.110
2020/01/31 18:05:25.3	358.350	-0.220	0.570	0.130
2020/01/31 18:05:25.4	358.310	-0.220	0.560	0.150
2020/01/31 18:05:25.5	358.270	-0.210	0.550	0.170
2020/01/31 18:05:25.6	358.230	-0.200	0.530	0.190
2020/01/31 18:05:25.7	358.200	-0.180	0.510	0.200
2020/01/31 18:05:25.8	358.170	-0.160	0.470	0.200
2020/01/31 18:05:25.9	358.150	-0.130	0.440	0.210
2020/01/31 18:05:26.0	358.120	-0.110	0.400	0.210
2020/01/31 18:05:26.1	358.100	-0.070	0.350	0.200
2020/01/31 18:05:26.2	358.090	-0.040	0.310	0.200
2020/01/31 18:05:26.3	358.070	-0.010	0.250	0.190
2020/01/31 18:05:26.4	358.060	0.030	0.200	0.180
2020/01/31 18:05:26.5	358.050	0.070	0.150	0.170
2020/01/31 18:05:26.6	358.040	0.100	0.090	0.160
2020/01/31 18:05:26.7	358.030	0.140	0.040	0.140
2020/01/31 18:05:26.8	358.030	0.180	-0.020	0.120
2020/01/31 18:05:26.9	358.020	0.210	-0.070	0.100
2020/01/31 18:05:27.0	358.020	0.250	-0.130	0.080
2020/01/31 18:05:27.1	358.010	0.280	-0.180	0.060
2020/01/31 18:05:27.2	358.010	0.310	-0.230	0.040
2020/01/31 18:05:27.3	358.020	0.330	-0.270	0.020
2020/01/31 18:05:27.4	358.020	0.360	-0.320	-0.000
2020/01/31 18:05:27.5	358.020	0.380	-0.360	-0.030
2020/01/31 18:05:27.6	358.030	0.390	-0.400	-0.050
2020/01/31 18:05:27.7	358.040	0.410	-0.430	-0.080
2020/01/31 18:05:27.8	358.050	0.410	-0.470	-0.110
2020/01/31 18:05:27.9	358.060	0.420	-0.500	-0.130
2020/01/31 18:05:28.0	358.070	0.410	-0.530	-0.160
2020/01/31 18:05:28.1	358.090	0.410	-0.550	-0.190
2020/01/31 18:05:28.2	358.110	0.400	-0.570	-0.220
2020/01/31 18:05:28.3	358.140	0.380	-0.600	-0.260
2020/01/31 18:05:28.4	358.160	0.370	-0.610	-0.290
2020/01/31 18:05:28.5	358.200	0.340	-0.630	-0.330
2020/01/31 18:05:28.6	358.230	0.320	-0.650	-0.370
2020/01/31 18:05:28.7	358.270	0.280	-0.660	-0.410
2020/01/31 18:05:28.8	358.310	0.250	-0.680	-0.450
2020/01/31 18:05:28.9	358.340	0.210	-0.690	-0.500
2020/01/31 18:05:29.0	358.390	0.170	-0.700	-0.550
2020/01/31 18:05:29.1	358.430	0.130	-0.710	-0.600
2020/01/31 18:05:29.2	358.480	0.090	-0.720	-0.650
2020/01/31 18:05:29.3	358.530	0.040	-0.730	-0.710
2020/01/31 18:05:29.4	358.580	-0.010	-0.740	-0.760
2020/01/31 18:05:29.5	358.630	-0.060	-0.750	-0.820
2020/01/31 18:05:29.6	358.680	-0.110	-0.750	-0.880
2020/01/31 18:05:29.7	358.730	-0.160	-0.750	-0.930
2020/01/31 18:05:29.8	358.780	-0.210	-0.760	-0.990
2020/01/31 18:05:29.9	358.820	-0.260	-0.760	-1.050
2020/01/31 18:05:30.0	358.870	-0.310	-0.750	-1.100
2020/01/31 18:05:30.1	358.910	-0.360	-0.750	-1.150
2020/01/31 18:05:30.2	358.950	-0.410	-0.740	-1.190
2020/01/31 18:05:30.3	358.990	-0.450	-0.730	-1.230
2020/01/31 18:05:30.4	359.030	-0.490	-0.710	-1.260
2020/01/31 18:05:30.5	359.060	-0.530	-0.690	-1.290
2020/01/31 18:05:30.6	359.080	-0.570	-0.670	-1.310
2020/01/31 18:05:30.7	359.100	-0.600	-0.640	-1.330
2020/01/31 18:05:30.8	359.120	-0.630	-0.610	-1.340
2020/01/31 18:05:30.9	359.130	-0.660	-0.570	-1.340
2020/01/31 18:05:31.0	359.140	-0.680	-0.530	-1.340
2020/01/31 18:05:31.1	359.140	-0.700	-0.480	-1.330
2020/01/31 18:05:31.2	359.140	-0.710	-0.440	-1.310
2020/01/31 18:05:31.3	359.140	-0.720	-0.380	-1.290
2020/01/31 18:05:31.4	359.130	-0.730	-0.330	-1.260
2020/01/31 18:05:31.5	359.120	-0.730	-0.270	-1.220
2020/01/31 18:05:31.6	359.110	-0.730	-0.210	-1.190
2020/01/31 18:05:31.7	359.090	-0.720	-0.160	-1.140
2020/01/31 18:05:31.8	359.060	-0.710	-0.100	-1.100
2020/01/31 18:05:31.9	359.040	-0.700	-0.040	-1.040
2020/01/31 18:05:32.0	359.010	-0.680	0.020	-0.990
2020/01/31 18:05:32.1	358.980	-0.660	0.080	-0.930
2020/01/31 18:05:32.2	358.950	-0.630	0.130	-0.870
2020/01/31 18:05:32.3	358.910	-0.600	0.180	-0.800
2020/01/31 18:05:32.4	358.870	-0.560	0.230	-0.740
2020/01/31 18:05:32.5	358.840	-0.530	0.270	-0.670
2020/01/31 18:05:32.6	358.800	-0.480	0.300	-0.600
2020/01/31 18:05:32.7	358.760	-0.440	0.330	-0.530
2020/01/31 18:05:32.8	358.720	-0.390	0.350	-0.450
2020/01/31 18:05:32.9	358.690	-0.340	0.370	-0.380
2020/01/31 18:05:33.0	358.650	-0.280	0.380	-0.310
2020/01/31 18:05:33.1	358.620	-0.220	0.380	-0.240
2020/01/31 18:05:33.2	358.580	-0.160	0.370	-0.180
2020/01/31 18:05:33.3	358.550	-0.100	0.350	-0.110
2020/01/31 18:05:33.4	358.520	-0.030	0.330	-0.040
2020/01/31 18:05:33.5	358.490	0.030	0.290	0.020
2020/01/31 18:05:33.6	358.460	0.100	0.250	0.080
2020/01/31 18:05:33.7	358.440	0.170	0.210	0.130
2020/01/31 18:05:33.8	358.420	0.230	0.160	0.180
2020/01/31 18:05:33.9	358.410	0.300	0.100	0.230
2020/01/31 18:05:34.0	358.390	0.370	0.040	0.270
2020/01/31 18:05:34.1	358.380	0.430	-0.030	0.300
2020/01/31 18:05:34.2	358.370	0.490	-0.100	0.340
2020/01/31 18:05:34.3	358.360	0.550	-0.170	0.360
2020/01/31 18:05:34.4	358.360	0.610	-0.240	0.380
2020/01/31 18:05:34.5	358.350	0.660	-0.310	0.400
2020/01/31 18:05:34.6	358.350	0.710	-0.380	0.410
2020/01/31 18:05:34.7	358.360	0.750	-0.450	0.420
2020/01/31 18:05:34.8	358.360	0.790	-0.520	0.420
2020/01/31 18:05:34.9	358.370	0.830	-0.590	0.420
2020/01/31 18:05:35.0	358.380	0.860	-0.650	0.420
2020/01/31 18:05:35.1	358.390	0.880	-0.710	0.410
2020/01/31 18:05:35.2	358.400	0.900	-0.760	0.400
2020/01/31 18:05:35.3	358.410	0.910	-0.800	0.390
2020/01/31 18:05:35.4	358.430	0.920	-0.840	0.380
2020/01/31 18:05:35.5	358.440	0.920	-0.870	0.360
2020/01/31 18:05:35.6	358.460	0.910	-0.900	0.350
2020/01/31 18:05:35.7	358.480	0.890	-0.920	0.330
2020/01/31 18:05:35.8	358.500	0.870	-0.930	0.310
2020/01/31 18:05:35.9	358.510	0.850	-0.930	0.290
2020/01/31 18:05:36.0	358.530	0.820	-0.920	0.270
2020/01/31 18:05:36.1	358.550	0.780	-0.910	0.240
2020/01/31 18:05:36.2	358.570	0.730	-0.890	0.220
2020/01/31 18:05:36.3	358.590	0.690	-0.860	0.200
2020/01/31 18:05:36.4	358.610	0.630	-0.820	0.170
2020/01/31 18:05:36.5	358.630	0.580	-0.780	0.150
2020/01/31 18:05:36.6	358.650	0.510	-0.730	0.130
2020/01/31 18:05:36.7	358.660	0.450	-0.680	0.100
2020/01/31 18:05:36.8	358.680	0.380	-0.620	0.080
2020/01/31 18:05:36.9	358.690	0.310	-0.550	0.050
2020/01/31 18:05:37.0	358.700	0.240	-0.490	0.030
2020/01/31 18:05:37.1	358.710	0.160	-0.410	0.000
2020/01/31 18:05:37.2	358.720	0.090	-0.340	-0.030
2020/01/31 18:05:37.3	358.720	0.010	-0.270	-0.050
2020/01/31 18:05:37.4	358.730	-0.060	-0.190	-0.080
2020/01/31 18:05:37.5	358.730	-0.130	-0.120	-0.110
2020/01/31 18:05:37.6	358.740	-0.210	-0.040	-0.140
2020/01/31 18:05:37.7	358.740	-0.270	0.030	-0.170
2020/01/31 18:05:37.8	358.730	-0.340	0.100	-0.200
2020/01/31 18:05:37.9	358.730	-0.400	0.170	-0.230
2020/01/31 18:05:38.0	358.720	-0.460	0.240	-0.260
2020/01/31 18:05:38.1	358.710	-0.520	0.300	-0.280
2020/01/31 18:05:38.2	358.700	-0.570	0.360	-0.300
2020/01/31 18:05:38.3	358.680	-0.610	0.410	-0.320
2020/01/31 18:05:38.4	358.660	-0.650	0.460	-0.330
2020/01/31 18:05:38.5	358.630	-0.680	0.510	-0.340
2020/01/31 18:05:38.6	358.600	-0.710	0.550	-0.340
2020/01/31 18:05:38.7	358.560	-0.740	0.590	-0.340
2020/01/31 18:05:38.8	358.530	-0.750	0.620	-0.340
2020/01/31 18:05:38.9	358.490	-0.760	0.640	-0.330
2020/01/31 18:05:39.0	358.440	-0.770	0.660	-0.320
2020/01/31 18:05:39.1	358.400	-0.760	0.670	-0.300
2020/01/31 18:05:39.2	358.350	-0.760	0.670	-0.290
2020/01/31 18:05:39.3	358.310	-0.740	0.660	-0.270
2020/01/31 18:05:39.4	358.260	-0.720	0.650	-0.250
2020/01/31 18:05:39.5	358.220	-0.700	0.630	-0.220
2020/01/31 18:05:39.6	358.170	-0.670	0.600	-0.200
2020/01/31 18:05:39.7	358.130	-0.630	0.560	-0.180
2020/01/31 18:05:39.8	358.090	-0.590	0.520	-0.160
2020/01/31 18:05:39.9	358.040	-0.550	0.460	-0.140
2020/01/31 18:05:40.0	358.000	-0.500	0.400	-0.130
2020/01/31 18:05:40.1	357.970	-0.450	0.340	-0.110
2020/01/31 18:05:40.2	357.950	-0.400	0.260	-0.100
2020/01/31 18:05:40.3	357.920	-0.350	0.190	-0.100
2020/01/31 18:05:40.4	357.910	-0.290	0.100	-0.100
2020/01/31 18:05:40.5	357.890	-0.230	0.010	-0.100
2020/01/31 18:05:40.6	357.890	-0.170	-0.090	-0.110
2020/01/31 18:05:40.7	357.890	-0.100	-0.190	-0.120
2020/01/31 18:05:40.8	357.890	-0.040	-0.290	-0.130
2020/01/31 18:05:40.9	357.880	0.020	-0.400	-0.150
2020/01/31 18:05:41.0	357.900	0.080	-0.500	-0.170
2020/01/31 18:05:41.1	357.910	0.140	-0.610	-0.190
2020/01/31 18:05:41.2	357.930	0.200	-0.710	-0.210
2020/01/31 18:05:41.3	357.960	0.260	-0.820	-0.230
2020/01/31 18:05:41.4	357.980	0.320	-0.910	-0.250
2020/01/31 18:05:41.5	358.010	0.370	-1.010	-0.270
2020/01/31 18:05:41.6	358.030	0.420	-1.090	-0.290
2020/01/31 18:05:41.7	358.060	0.460	-1.170	-0.300
2020/01/31 18:05:41.8	358.080	0.500	-1.240	-0.310
2020/01/31 18:05:41.9	358.090	0.530	-1.300	-0.320
2020/01/31 18:05:42.0	358.110	0.560	-1.350	-0.320
2020/01/31 18:05:42.1	358.140	0.580	-1.390	-0.330
2020/01/31 18:05:42.2	358.160	0.600	-1.420	-0.330
2020/01/31 18:05:42.3	358.180	0.610	-1.430	-0.330
2020/01/31 18:05:42.4	358.200	0.610	-1.440	-0.330
2020/01/31 18:05:42.5	358.220	0.610	-1.430	-0.330
2020/01/31 18:05:42.6	358.240	0.600	-1.410	-0.320
2020/01/31 18:05:42.7	358.260	0.590	-1.380	-0.320
2020/01/31 18:05:42.8	358.280	0.570	-1.340	-0.320
2020/01/31 18:05:42.9	358.290	0.540	-1.290	-0.320
2020/01/31 18:05:43.0	358.310	0.510	-1.230	-0.310
2020/01/31 18:05:43.1	358.330	0.480	-1.160	-0.310
2020/01/31 18:05:43.2	358.340	0.440	-1.080	-0.310
2020/01/31 18:05:43.3	358.360	0.400	-1.000	-0.320
2020/01/31 18:05:43.4	358.380	0.350	-0.910	-0.320
2020/01/31 18:05:43.5	358.390	0.300	-0.820	-0.320
2020/01/31 18:05:43.6	358.410	0.250	-0.730	-0.330
2020/01/31 18:05:43.7	358.430	0.200	-0.630	-0.330
2020/01/31 18:05:43.8	358.450	0.150	-0.530	-0.340
2020/01/31 18:05:43.9	358.460	0.100	-0.440	-0.350
2020/01/31 18:05:44.0	358.480	0.050	-0.340	-0.360
2020/01/31 18:05:44.1	358.500	-0.000	-0.250	-0.370
2020/01/31 18:05:44.2	358.520	-0.050	-0.160	-0.370
2020/01/31 18:05:44.3	358.540	-0.100	-0.080	-0.380
2020/01/31 18:05:44.4	358.560	-0.150	0.010	-0.380
2020/01/31 18:05:44.5	358.580	-0.190	0.080	-0.390
2020/01/31 18:05:44.6	358.600	-0.230	0.150	-0.390
2020/01/31 18:05:44.7	358.620	-0.270	0.220	-0.390
2020/01/31 18:05:44.8	358.640	-0.300	0.270	-0.390
2020/01/31 18:05:44.9	358.660	-0.330	0.320	-0.390
2020/01/31 18:05:45.0	358.680	-0.360	0.360	-0.390
2020/01/31 18:05:45.1	358.690	-0.380	0.400	-0.390
2020/01/31 18:05:45.2	358.710	-0.400	0.430	-0.380
2020/01/31 18:05:45.3	358.720	-0.420	0.450	-0.380
2020/01/31 18:05:45.4	358.730	-0.430	0.470	-0.370
2020/01/31 18:05:45.5	358.730	-0.440	0.470	-0.370
2020/01/31 18:05:45.6	358.740	-0.440	0.470	-0.360
2020/01/31 18:05:45.7	358.740	-0.440	0.470	-0.350
2020/01/31 18:05:45.8	358.740	-0.440	0.460	-0.350
2020/01/31 18:05:45.9	358.740	-0.440	0.440	-0.340
2020/01/31 18:05:46.0	358.740	-0.430	0.420	-0.340
2020/01/31 18:05:46.1	358.730	-0.410	0.400	-0.330
2020/01/31 18:05:46.2	358.720	-0.400	0.370	-0.330
2020/01/31 18:05:46.3	358.710	-0.380	0.340	-0.330
2020/01/31 18:05:46.4	358.690	-0.360	0.310	-0.320
2020/01/31 18:05:46.5	358.670	-0.340	0.280	-0.320
2020/01/31 18:05:46.6	358.650	-0.320	0.250	-0.310
2020/01/31 18:05:46.7	358.620	-0.300	0.220	-0.300
2020/01/31 18:05:46.8	358.590	-0.270	0.200	-0.280
2020/01/31 18:05:46.9	358.570	-0.250	0.170	-0.260
2020/01/31 18:05:47.0	358.530	-0.220	0.150	-0.240
2020/01/31 18:05:47.1	358.490	-0.190	0.140	-0.210
2020/01/31 18:05:47.2	358.440	-0.170	0.120	-0.180
2020/01/31 18:05:47.3	358.390	-0.140	0.120	-0.140
2020/01/31 18:05:47.4	358.330	-0.120	0.110	-0.100
2020/01/31 18:05:47.5	358.280	-0.090	0.120	-0.050
2020/01/31 18:05:47.6	358.220	-0.070	0.120	-0.000
2020/01/31 18:05:47.7	358.150	-0.050	0.130	0.050
2020/01/31 18:05:47.8	358.090	-0.020	0.150	0.110
2020/01/31 18:05:47.9	358.030	-0.010	0.160	0.170
2020/01/31 18:05:48.0	357.960	0.010	0.180	0.240
2020/01/31 18:05:48.1	357.890	0.030	0.200	0.300
2020/01/31 18:05:48.2	357.830	0.040	0.220	0.370
2020/01/31 18:05:48.3	357.770	0.060	0.240	0.430
2020/01/31 18:05:48.4	357.700	0.070	0.250	0.490
2020/01/31 18:05:48.5	357.640	0.080	0.270	0.560
2020/01/31 18:05:48.6	357.590	0.090	0.280	0.610
2020/01/31 18:05:48.7	357.540	0.100	0.280	0.660
2020/01/31 18:05:48.8	357.490	0.110	0.280	0.710
2020/01/31 18:05:48.9	357.470	0.120	0.280	0.750
2020/01/31 18:05:49.0	357.430	0.120	0.260	0.790
2020/01/31 18:05:49.1	357.400	0.130	0.240	0.810
2020/01/31 18:05:49.2	357.370	0.140	0.210	0.830
2020/01/31 18:05:49.3	357.350	0.150	0.170	0.840
2020/01/31 18:05:49.4	357.340	0.160	0.130	0.840
2020/01/31 18:05:49.5	357.330	0.170	0.080	0.830
2020/01/31 18:05:49.6	357.320	0.180	0.020	0.810
2020/01/31 18:05:49.7	357.320	0.190	-0.050	0.790
2020/01/31 18:05:49.8	357.320	0.200	-0.120	0.760
2020/01/31 18:05:49.9	357.330	0.220	-0.200	0.720
2020/01/31 18:05:50.0	357.340	0.230	-0.280	0.680
2020/01/31 18:05:50.1	357.360	0.250	-0.360	0.630
2020/01/31 18:05:50.2	357.370	0.270	-0.440	0.580
2020/01/31 18:05:50.3	357.390	0.290	-0.530	0.530
2020/01/31 18:05:50.4	357.410	0.310	-0.620	0.470
2020/01/31 18:05:50.5	357.430	0.340	-0.700	0.420
2020/01/31 18:05:50.6	357.460	0.360	-0.790	0.360
2020/01/31 18:05:50.7	357.480	0.380	-0.870	0.310
2020/01/31 18:05:50.8	357.510	0.410	-0.950	0.250
2020/01/31 18:05:50.9	357.530	0.440	-1.020	0.190
2020/01/31 18:05:51.0	357.560	0.460	-1.090	0.130
2020/01/31 18:05:51.1	357.590	0.490	-1.150	0.080
2020/01/31 18:05:51.2	357.630	0.510	-1.210	0.030
2020/01/31 18:05:51.3	357.660	0.530	-1.260	-0.020
2020/01/31 18:05:51.4	357.700	0.560	-1.310	-0.070
2020/01/31 18:05:51.5	357.740	0.580	-1.340	-0.120
2020/01/31 18:05:51.6	357.780	0.590	-1.370	-0.170
2020/01/31 18:05:51.7	357.820	0.610	-1.400	-0.220
2020/01/31 18:05:51.8	357.870	0.620	-1.410	-0.260
2020/01/31 18:05:51.9	357.920	0.630	-1.420	-0.300
2020/01/31 18:05:52.0	357.970	0.640	-1.430	-0.350
2020/01/31 18:05:52.1	358.020	0.650	-1.420	-0.400
2020/01/31 18:05:52.2	358.070	0.650	-1.410	-0.440
2020/01/31 18:05:52.3	358.120	0.640	-1.390	-0.480
2020/01/31 18:05:52.4	358.180	0.640	-1.370	-0.530
2020/01/31 18:05:52.5	358.230	0.630	-1.340	-0.570
2020/01/31 18:05:52.6	358.290	0.610	-1.300	-0.610
2020/01/31 18:05:52.7	358.350	0.590	-1.260	-0.650
2020/01/31 18:05:52.8	358.400	0.570	-1.220	-0.700
2020/01/31 18:05:52.9	358.460	0.540	-1.170	-0.740
2020/01/31 18:05:53.0	358.520	0.510	-1.120	-0.780
2020/01/31 18:05:53.1	358.570	0.470	-1.060	-0.820
2020/01/31 18:05:53.2	358.630	0.430	-1.000	-0.860
2020/01/31 18:05:53.3	358.680	0.390	-0.930	-0.900
2020/01/31 18:05:53.4	358.740	0.340	-0.870	-0.930
2020/01/31 18:05:53.5	358.790	0.290	-0.800	-0.970
2020/01/31 18:05:53.6	358.840	0.240	-0.720	-1.000
2020/01/31 18:05:53.7	358.890	0.180	-0.650	-1.040
2020/01/31 18:05:53.8	358.930	0.120	-0.570	-1.070
2020/01/31 18:05:53.9	358.990	0.060	-0.490	-1.090
2020/01/31 18:05:54.0	359.020	-0.010	-0.410	-1.120
2020/01/31 18:05:54.1	359.060	-0.070	-0.320	-1.140
2020/01/31 18:05:54.2	359.090	-0.140	-0.230	-1.150
2020/01/31 18:05:54.3	359.110	-0.210	-0.150	-1.160
2020/01/31 18:05:54.4	359.130	-0.280	-0.060	-1.170
2020/01/31 18:05:54.5	359.150	-0.350	0.030	-1.170
2020/01/31 18:05:54.6	359.150	-0.420	0.120	-1.170
2020/01/31 18:05:54.7	359.160	-0.490	0.210	-1.160
2020/01/31 18:05:54.8	359.160	-0.560	0.300	-1.140
2020/01/31 18:05:54.9	359.140	-0.630	0.390	-1.130
2020/01/31 18:05:55.0	359.120	-0.700	0.480	-1.110
2020/01/31 18:05:55.1	359.100	-0.770	0.560	-1.080
2020/01/31 18:05:55.2	359.080	-0.830	0.640	-1.060
2020/01/31 18:05:55.3	359.060	-0.890	0.720	-1.030
2020/01/31 18:05:55.4	359.030	-0.950	0.790	-1.000
2020/01/31 18:05:55.5	358.990	-1.000	0.860	-0.960
2020/01/31 18:05:55.6	358.960	-1.050	0.920	-0.930
2020/01/31 18:05:55.7	358.920	-1.100	0.980	-0.890
2020/01/31 18:05:55.8	358.880	-1.140	1.030	-0.850
2020/01/31 18:05:55.9	358.820	-1.170	1.070	-0.820
2020/01/31 18:05:56.0	358.780	-1.200	1.100	-0.780
2020/01/31 18:05:56.1	358.730	-1.230	1.130	-0.730
2020/01/31 18:05:56.2	358.680	-1.240	1.150	-0.690
2020/01/31 18:05:56.3	358.640	-1.260	1.160	-0.650
2020/01/31 18:05:56.4	358.590	-1.260	1.160	-0.610
2020/01/31 18:05:56.5	358.540	-1.260	1.160	-0.560
2020/01/31 18:05:56.6	358.490	-1.250	1.140	-0.510
2020/01/31 18:05:56.7	358.440	-1.230	1.120	-0.470
2020/01/31 18:05:56.8	358.390	-1.200	1.090	-0.420
2020/01/31 18:05:56.9	358.350	-1.170	1.050	-0.380
2020/01/31 18:05:57.0	358.300	-1.130	1.000	-0.330
2020/01/31 18:05:57.1	358.250	-1.080	0.940	-0.280
2020/01/31 18:05:57.2	358.200	-1.030	0.880	-0.230
2020/01/31 18:05:57.3	358.160	-0.970	0.810	-0.180
2020/01/31 18:05:57.4	358.110	-0.900	0.730	-0.130
2020/01/31 18:05:57.5	358.070	-0.820	0.640	-0.080
2020/01/31 18:05:57.6	358.030	-0.740	0.550	-0.030
2020/01/31 18:05:57.7	357.990	-0.650	0.450	0.020
2020/01/31 18:05:57.8	357.960	-0.560	0.350	0.070
2020/01/31 18:05:57.9	357.920	-0.470	0.250	0.120
2020/01/31 18:05:58.0	357.890	-0.370	0.140	0.160
2020/01/31 18:05:58.1	357.860	-0.260	0.030	0.210
2020/01/31 18:05:58.2	357.830	-0.160	-0.080	0.250
2020/01/31 18:05:58.3	357.800	-0.050	-0.190	0.290
2020/01/31 18:05:58.4	357.780	0.050	-0.290	0.330
2020/01/31 18:05:58.5	357.760	0.160	-0.400	0.370
2020/01/31 18:05:58.6	357.740	0.260	-0.500	0.410
2020/01/31 18:05:58.7	357.720	0.370	-0.600	0.440
2020/01/31 18:05:58.8	357.710	0.470	-0.700	0.470
2020/01/31 18:05:58.9	357.710	0.570	-0.790	0.500
2020/01/31 18:05:59.0	357.690	0.660	-0.870	0.530
2020/01/31 18:05:59.1	357.680	0.750	-0.950	0.550
2020/01/31 18:05:59.2	357.680	0.830	-1.020	0.570
2020/01/31 18:05:59.3	357.670	0.910	-1.080	0.590
2020/01/31 18:05:59.4	357.670	0.980	-1.140	0.610
2020/01/31 18:05:59.5	357.670	1.040	-1.180	0.620
2020/01/31 18:05:59.6	357.670	1.100	-1.220	0.630
2020/01/31 18:05:59.7	357.670	1.150	-1.250	0.640
2020/01/31 18:05:59.8	357.680	1.190	-1.270	0.650
2020/01/31 18:05:59.9	357.690	1.220	-1.280	0.650
2020/01/31 18:06:00.0	357.700	1.250	-1.290	0.650
2020/01/31 18:06:00.1	357.710	1.270	-1.280	0.650
2020/01/31 18:06:00.2	357.720	1.270	-1.270	0.640
2020/01/31 18:06:00.3	357.730	1.280	-1.250	0.630
2020/01/31 18:06:00.4	357.740	1.270	-1.230	0.620
2020/01/31 18:06:00.5	357.760	1.250	-1.200	0.610
2020/01/31 18:06:00.6	357.770	1.230	-1.160	0.590
2020/01/31 18:06:00.7	357.790	1.200	-1.110	0.570
2020/01/31 18:06:00.8	357.810	1.170	-1.060	0.540
2020/01/31 18:06:00.9	357.840	1.130	-1.010	0.510
2020/01/31 18:06:01.0	357.860	1.080	-0.960	0.470
2020/01/31 18:06:01.1	357.890	1.030	-0.900	0.430
2020/01/31 18:06:01.2	357.910	0.980	-0.840	0.390
2020/01/31 18:06:01.3	357.930	0.920	-0.780	0.340
2020/01/31 18:06:01.4	357.960	0.860	-0.710	0.290
2020/01/31 18:06:01.5	357.980	0.790	-0.650	0.240
2020/01/31 18:06:01.6	358.010	0.720	-0.580	0.190
2020/01/31 18:06:01.7	358.030	0.660	-0.520	0.140
2020/01/31 18:06:01.8	358.060	0.590	-0.460	0.080
2020/01/31 18:06:01.9	358.090	0.520	-0.390	0.030
2020/01/31 18:06:02.0	358.110	0.450	-0.330	-0.030
2020/01/31 18:06:02.1	358.140	0.380	-0.270	-0.080
2020/01/31 18:06:02.2	358.170	0.320	-0.220	-0.130
2020/01/31 18:06:02.3	358.190	0.250	-0.160	-0.180
2020/01/31 18:06:02.4	358.220	0.190	-0.110	-0.230
2020/01/31 18:06:02.5	358.240	0.130	-0.060	-0.280
2020/01/31 18:06:02.6	358.260	0.070	-0.010	-0.320
2020/01/31 18:06:02.7	358.280	0.010	0.030	-0.360
2020/01/31 18:06:02.8	358.300	-0.040	0.070	-0.410
2020/01/31 18:06:02.9	358.320	-0.090	0.100	-0.450
2020/01/31 18:06:03.0	358.340	-0.130	0.140	-0.490
2020/01/31 18:06:03.1	358.350	-0.180	0.170	-0.520
2020/01/31 18:06:03.2	358.370	-0.220	0.190	-0.560
2020/01/31 18:06:03.3	358.390	-0.250	0.210	-0.590
2020/01/31 18:06:03.4	358.400	-0.280	0.230	-0.620
2020/01/31 18:06:03.5	358.420	-0.310	0.250	-0.650
2020/01/31 18:06:03.6	358.430	-0.340	0.260	-0.680
2020/01/31 18:06:03.7	358.450	-0.360	0.260	-0.710
2020/01/31 18:06:03.8	358.460	-0.380	0.260	-0.730
2020/01/31 18:06:03.9	358.470	-0.390	0.260	-0.760
2020/01/31 18:06:04.0	358.480	-0.410	0.260	-0.780
2020/01/31 18:06:04.1	358.490	-0.410	0.240	-0.800
2020/01/31 18:06:04.2	358.500	-0.420	0.230	-0.810
2020/01/31 18:06:04.3	358.510	-0.430	0.210	-0.820
2020/01/31 18:06:04.4	358.520	-0.430	0.190	-0.830
2020/01/31 18:06:04.5	358.520	-0.430	0.160	-0.840
2020/01/31 18:06:04.6	358.530	-0.420	0.130	-0.840
2020/01/31 18:06:04.7	358.530	-0.420	0.100	-0.840
2020/01/31 18:06:04.8	358.530	-0.410	0.060	-0.840
2020/01/31 18:06:04.9	358.500	-0.410	0.020	-0.830
2020/01/31 18:06:05.0	358.490	-0.400	-0.020	-0.820
2020/01/31 18:06:05.1	358.480	-0.390	-0.060	-0.810
2020/01/31 18:06:05.2	358.470	-0.380	-0.100	-0.790
2020/01/31 18:06:05.3	358.460	-0.370	-0.140	-0.780
2020/01/31 18:06:05.4	358.440	-0.370	-0.190	-0.760
2020/01/31 18:06:05.5	358.420	-0.360	-0.230	-0.740
2020/01/31 18:06:05.6	358.400	-0.350	-0.270	-0.720
2020/01/31 18:06:05.7	358.380	-0.340	-0.310	-0.700
2020/01/31 18:06:05.8	358.360	-0.330	-0.350	-0.680
2020/01/31 18:06:05.9	358.330	-0.320	-0.390	-0.660
2020/01/31 18:06:06.0	358.310	-0.310	-0.430	-0.640
2020/01/31 18:06:06.1	358.290	-0.300	-0.460	-0.630
2020/01/31 18:06:06.2	358.260	-0.290	-0.500	-0.610
2020/01/31 18:06:06.3	358.240	-0.280	-0.530	-0.590
2020/01/31 18:06:06.4	358.220	-0.280	-0.560	-0.570
2020/01/31 18:06:06.5	358.200	-0.270	-0.580	-0.550
2020/01/31 18:06:06.6	358.180	-0.260	-0.610	-0.520
2020/01/31 18:06:06.7	358.160	-0.250	-0.630	-0.500
2020/01/31 18:06:06.8	358.140	-0.240	-0.640	-0.480
2020/01/31 18:06:06.9	358.110	-0.230	-0.660	-0.460
2020/01/31 18:06:07.0	358.100	-0.220	-0.670	-0.440
2020/01/31 18:06:07.1	358.090	-0.200	-0.680	-0.410
2020/01/31 18:06:07.2	358.080	-0.190	-0.680	-0.390
2020/01/31 18:06:07.3	358.070	-0.180	-0.690	-0.370
2020/01/31 18:06:07.4	358.060	-0.160	-0.680	-0.340
2020/01/31 18:06:07.5	358.060	-0.150	-0.680	-0.320
2020/01/31 18:06:07.6	358.060	-0.130	-0.670	-0.300
2020/01/31 18:06:07.7	358.060	-0.120	-0.660	-0.270
2020/01/31 18:06:07.8	358.060	-0.100	-0.640	-0.240
2020/01/31 18:06:07.9	358.050	-0.080	-0.620	-0.220
2020/01/31 18:06:08.0	358.050	-0.070	-0.590	-0.190
2020/01/31 18:06:08.1	358.060	-0.050	-0.560	-0.170
2020/01/31 18:06:08.2	358.060	-0.030	-0.530	-0.140
2020/01/31 18:06:08.3	358.070	-0.010	-0.490	-0.120
2020/01/31 18:06:08.4	358.070	0.000	-0.440	-0.090
2020/01/31 18:06:08.5	358.080	0.020	-0.400	-0.060
2020/01/31 18:06:08.6	358.080	0.030	-0.340	-0.040
2020/01/31 18:06:08.7	358.080	0.050	-0.290	-0.010
2020/01/31 18:06:08.8	358.090	0.060	-0.230	0.020
2020/01/31 18:06:08.9	358.090	0.070	-0.180	0.050
2020/01/31 18:06:09.0	358.090	0.080	-0.120	0.070
2020/01/31 18:06:09.1	358.090	0.090	-0.060	0.100
2020/01/31 18:06:09.2	358.090	0.100	0.010	0.130
2020/01/31 18:06:09.3	358.090	0.110	0.070	0.160
2020/01/31 18:06:09.4	358.090	0.110	0.130	0.190
2020/01/31 18:06:09.5	358.090	0.120	0.190	0.210
2020/01/31 18:06:09.6	358.090	0.120	0.250	0.240
2020/01/31 18:06:09.7	358.090	0.120	0.310	0.270
2020/01/31 18:06:09.8	358.080	0.120	0.360	0.300
2020/01/31 18:06:09.9	358.100	0.120	0.410	0.320
2020/01/31 18:06:10.0	358.100	0.120	0.450	0.350
2020/01/31 18:06:10.1	358.100	0.110	0.490	0.370
2020/01/31 18:06:10.2	358.090	0.100	0.530	0.390
2020/01/31 18:06:10.3	358.090	0.090	0.560	0.410
2020/01/31 18:06:10.4	358.090	0.080	0.580	0.420
2020/01/31 18:06:10.5	358.090	0.070	0.590	0.430
2020/01/31 18:06:10.6	358.090	0.060	0.600	0.440
2020/01/31 18:06:10.7	358.100	0.050	0.610	0.450
2020/01/31 18:06:10.8	358.100	0.040	0.600	0.450
2020/01/31 18:06:10.9	358.100	0.020	0.590	0.450
2020/01/31 18:06:11.0	358.100	0.010	0.570	0.440
2020/01/31 18:06:11.1	358.110	-0.010	0.550	0.430
2020/01/31 18:06:11.2	358.110	-0.020	0.520	0.420
2020/01/31 18:06:11.3	358.120	-0.030	0.480	0.410
2020/01/31 18:06:11.4	358.120	-0.040	0.440	0.390
2020/01/31 18:06:11.5	358.130	-0.050	0.390	0.360
2020/01/31 18:06:11.6	358.130	-0.060	0.340	0.340
2020/01/31 18:06:11.7	358.130	-0.070	0.280	0.310
2020/01/31 18:06:11.8	358.140	-0.080	0.220	0.290
2020/01/31 18:06:11.9	358.140	-0.080	0.150	0.260
2020/01/31 18:06:12.0	358.140	-0.080	0.090	0.230
2020/01/31 18:06:12.1	358.140	-0.080	0.020	0.200
2020/01/31 18:06:12.2	358.130	-0.080	-0.050	0.170
2020/01/31 18:06:12.3	358.130	-0.080	-0.120	0.150
2020/01/31 18:06:12.4	358.120	-0.070	-0.200	0.120
2020/01/31 18:06:12.5	358.110	-0.060	-0.260	0.100
2020/01/31 18:06:12.6	358.100	-0.050	-0.330	0.080
2020/01/31 18:06:12.7	358.090	-0.040	-0.400	0.060
2020/01/31 18:06:12.8	358.070	-0.030	-0.460	0.040
2020/01/31 18:06:12.9	358.070	-0.010	-0.530	0.030
2020/01/31 18:06:13.0	358.050	0.010	-0.590	0.010
2020/01/31 18:06:13.1	358.030	0.030	-0.640	-0.000
2020/01/31 18:06:13.2	358.010	0.050	-0.690	-0.010
2020/01/31 18:06:13.3	357.990	0.070	-0.740	-0.020
2020/01/31 18:06:13.4	357.970	0.100	-0.790	-0.030
2020/01/31 18:06:13.5	357.950	0.120	-0.830	-0.040
2020/01/31 18:06:13.6	357.930	0.150	-0.860	-0.040
2020/01/31 18:06:13.7	357.910	0.170	-0.900	-0.050
2020/01/31 18:06:13.8	357.890	0.200	-0.920	-0.050
2020/01/31 18:06:13.9	357.880	0.230	-0.950	-0.050
2020/01/31 18:06:14.0	357.860	0.250	-0.970	-0.050
2020/01/31 18:06:14.1	357.840	0.280	-0.990	-0.050
2020/01/31 18:06:14.2	357.820	0.300	-1.000	-0.050
2020/01/31 18:06:14.3	357.810	0.330	-1.010	-0.050
2020/01/31 18:06:14.4	357.790	0.350	-1.020	-0.050
2020/01/31 18:06:14.5	357.780	0.370	-1.020	-0.060
2020/01/31 18:06:14.6	357.770	0.390	-1.030	-0.060
2020/01/31 18:06:14.7	357.770	0.410	-1.030	-0.070
2020/01/31 18:06:14.8	357.760	0.430	-1.030	-0.080
2020/01/31 18:06:14.9	357.740	0.440	-1.020	-0.090
2020/01/31 18:06:15.0	357.740	0.450	-1.020	-0.100
2020/01/31 18:06:15.1	357.740	0.460	-1.010	-0.120
2020/01/31 18:06:15.2	357.750	0.470	-1.000	-0.140
2020/01/31 18:06:15.3	357.760	0.470	-0.990	-0.160
2020/01/31 18:06:15.4	357.770	0.470	-0.980	-0.190
2020/01/31 18:06:15.5	357.780	0.470	-0.970	-0.210
2020/01/31 18:06:15.6	357.800	0.460	-0.950	-0.250
2020/01/31 18:06:15.7	357.810	0.450	-0.930	-0.280
2020/01/31 18:06:15.8	357.830	0.440	-0.910	-0.310
2020/01/31 18:06:15.9	357.860	0.430	-0.890	-0.350
2020/01/31 18:06:16.0	357.880	0.410	-0.870	-0.390
2020/01/31 18:06:16.1	357.910	0.390	-0.850	-0.430
2020/01/31 18:06:16.2	357.930	0.370	-0.820	-0.470
2020/01/31 18:06:16.3	357.960	0.340	-0.800	-0.510
2020/01/31 18:06:16.4	357.990	0.320	-0.770	-0.550
2020/01/31 18:06:16.5	358.020	0.290	-0.740	-0.590
2020/01/31 18:06:16.6	358.060	0.260	-0.710	-0.630
2020/01/31 18:06:16.7	358.090	0.230	-0.670	-0.670
2020/01/31 18:06:16.8	358.120	0.190	-0.640	-0.700
2020/01/31 18:06:16.9	358.150	0.160	-0.600	-0.740
2020/01/31 18:06:17.0	358.180	0.120	-0.560	-0.780
2020/01/31 18:06:17.1	358.220	0.080	-0.520	-0.810
2020/01/31 18:06:17.2	358.250	0.050	-0.480	-0.840
2020/01/31 18:06:17.3	358.290	0.010	-0.430	-0.860
2020/01/31 18:06:17.4	358.320	-0.030	-0.390	-0.890
2020/01/31 18:06:17.5	358.360	-0.070	-0.340	-0.910
2020/01/31 18:06:17.6	358.390	-0.100	-0.290	-0.930
2020/01/31 18:06:17.7	358.420	-0.140	-0.240	-0.940
2020/01/31 18:06:17.8	358.450	-0.170	-0.180	-0.950
2020/01/31 18:06:17.9	358.480	-0.210	-0.130	-0.960
2020/01/31 18:06:18.0	358.510	-0.240	-0.080	-0.960
2020/01/31 18:06:18.1	358.530	-0.270	-0.020	-0.960
2020/01/31 18:06:18.2	358.550	-0.300	0.040	-0.950
2020/01/31 18:06:18.3	358.570	-0.320	0.090	-0.940
2020/01/31 18:06:18.4	358.580	-0.350	0.150	-0.920
2020/01/31 18:06:18.5	358.600	-0.370	0.200	-0.900
2020/01/31 18:06:18.6	358.610	-0.380	0.260	-0.880
2020/01/31 18:06:18.7	358.610	-0.400	0.310	-0.850
2020/01/31 18:06:18.8	358.620	-0.410	0.360	-0.820
2020/01/31 18:06:18.9	358.620	-0.420	0.410	-0.780
2020/01/31 18:06:19.0	358.620	-0.430	0.460	-0.740
2020/01/31 18:06:19.1	358.620	-0.430	0.500	-0.710
2020/01/31 18:06:19.2	358.620	-0.430	0.540	-0.660
2020/01/31 18:06:19.3	358.610	-0.430	0.580	-0.620
2020/01/31 18:06:19.4	358.600	-0.430	0.610	-0.570
2020/01/31 18:06:19.5	358.590	-0.420	0.640	-0.530
2020/01/31 18:06:19.6	358.580	-0.410	0.670	-0.480
2020/01/31 18:06:19.7	358.570	-0.400	0.690	-0.430
2020/01/31 18:06:19.8	358.560	-0.390	0.700	-0.380
2020/01/31 18:06:19.9	358.550	-0.370	0.710	-0.330
2020/01/31 18:06:20.0	358.530	-0.350	0.710	-0.270
2020/01/31 18:06:20.1	358.510	-0.340	0.710	-0.220
2020/01/31 18:06:20.2	358.500	-0.310	0.710	-0.170
2020/01/31 18:06:20.3	358.480	-0.290	0.700	-0.110
2020/01/31 18:06:20.4	358.460	-0.270	0.680	-0.050
2020/01/31 18:06:20.5	358.440	-0.250	0.660	0.000
2020/01/31 18:06:20.6	358.420	-0.220	0.640	0.060
2020/01/31 18:06:20.7	358.390	-0.200	0.610	0.110
2020/01/31 18:06:20.8	358.370	-0.170	0.580	0.160
2020/01/31 18:06:20.9	358.340	-0.150	0.550	0.220
2020/01/31 18:06:21.0	358.310	-0.120	0.510	0.270
2020/01/31 18:06:21.1	358.280	-0.100	0.470	0.320
2020/01/31 18:06:21.2	358.250	-0.070	0.430	0.370
2020/01/31 18:06:21.3	358.210	-0.050	0.390	0.420
2020/01/31 18:06:21.4	358.180	-0.030	0.340	0.470
2020/01/31 18:06:21.5	358.140	-0.010	0.300	0.510
2020/01/31 18:06:21.6	358.100	0.010	0.250	0.550
2020/01/31 18:06:21.7	358.060	0.030	0.200	0.590
2020/01/31 18:06:21.8	358.020	0.050	0.160	0.620
2020/01/31 18:06:21.9	357.970	0.060	0.120	0.650
2020/01/31 18:06:22.0	357.920	0.080	0.070	0.680
2020/01/31 18:06:22.1	357.880	0.090	0.020	0.700
2020/01/31 18:06:22.2	357.840	0.110	-0.030	0.720
2020/01/31 18:06:22.3	357.790	0.120	-0.070	0.730
2020/01/31 18:06:22.4	357.750	0.130	-0.120	0.740
2020/01/31 18:06:22.5	357.710	0.140	-0.170	0.750
2020/01/31 18:06:22.6	357.680	0.150	-0.210	0.750
2020/01/31 18:06:22.7	357.640	0.160	-0.260	0.750
2020/01/31 18:06:22.8	357.610	0.180	-0.310	0.740
2020/01/31 18:06:22.9	357.590	0.190	-0.350	0.730
2020/01/31 18:06:23.0	357.560	0.200	-0.400	0.720
2020/01/31 18:06:23.1	357.540	0.210	-0.450	0.700
2020/01/31 18:06:23.2	357.520	0.220	-0.500	0.680
2020/01/31 18:06:23.3	357.500	0.230	-0.560	0.650
2020/01/31 18:06:23.4	357.490	0.240	-0.610	0.620
2020/01/31 18:06:23.5	357.480	0.250	-0.660	0.590
2020/01/31 18:06:23.6	357.470	0.260	-0.710	0.550
2020/01/31 18:06:23.7	357.470	0.270	-0.770	0.510
2020/01/31 18:06:23.8	357.470	0.280	-0.820	0.470
2020/01/31 18:06:23.9	357.470	0.280	-0.880	0.420
2020/01/31 18:06:24.0	357.470	0.290	-0.930	0.370
2020/01/31 18:06:24.1	357.480	0.300	-0.990	0.310
2020/01/31 18:06:24.2	357.490	0.300	-1.040	0.260
2020/01/31 18:06:24.3	357.510	0.310	-1.090	0.190
2020/01/31 18:06:24.4	357.520	0.310	-1.130	0.130
2020/01/31 18:06:24.5	357.540	0.310	-1.180	0.060
2020/01/31 18:06:24.6	357.560	0.310	-1.220	-0.010
2020/01/31 18:06:24.7	357.580	0.310	-1.250	-0.090
2020/01/31 18:06:24.8	357.610	0.300	-1.290	-0.170
2020/01/31 18:06:24.9	357.650	0.290	-1.310	-0.250
2020/01/31 18:06:25.0	357.670	0.280	-1.330	-0.330
2020/01/31 18:06:25.1	357.700	0.260	-1.350	-0.420
2020/01/31 18:06:25.2	357.730	0.250	-1.360	-0.500
2020/01/31 18:06:25.3	357.760	0.220	-1.360	-0.590
2020/01/31 18:06:25.4	357.780	0.200	-1.360	-0.670
2020/01/31 18:06:25.5	357.810	0.180	-1.350	-0.760
2020/01/31 18:06:25.6	357.840	0.150	-1.340	-0.840
2020/01/31 18:06:25.7	357.870	0.120	-1.320	-0.910
2020/01/31 18:06:25.8	357.900	0.090	-1.290	-0.980
2020/01/31 18:06:25.9	357.920	0.050	-1.260	-1.060
2020/01/31 18:06:26.0	357.950	0.020	-1.220	-1.120
2020/01/31 18:06:26.1	357.980	-0.020	-1.170	-1.180
2020/01/31 18:06:26.2	358.010	-0.050	-1.120	-1.220
2020/01/31 18:06:26.3	358.030	-0.090	-1.060	-1.270
2020/01/31 18:06:26.4	358.060	-0.130	-0.990	-1.300
2020/01/31 18:06:26.5	358.080	-0.160	-0.920	-1.330
2020/01/31 18:06:26.6	358.100	-0.200	-0.850	-1.350
2020/01/31 18:06:26.7	358.120	-0.240	-0.770	-1.360
2020/01/31 18:06:26.8	358.140	-0.270	-0.680	-1.360
2020/01/31 18:06:26.9	358.160	-0.310	-0.600	-1.360
2020/01/31 18:06:27.0	358.180	-0.340	-0.510	-1.360
2020/01/31 18:06:27.1	358.200	-0.370	-0.420	-1.350
2020/01/31 18:06:27.2	358.210	-0.390	-0.330	-1.330
2020/01/31 18:06:27.3	358.230	-0.420	-0.240	-1.310
2020/01/31 18:06:27.4	358.240	-0.440	-0.150	-1.280
2020/01/31 18:06:27.5	358.250	-0.460	-0.060	-1.250
2020/01/31 18:06:27.6	358.260	-0.470	0.030	-1.220
2020/01/31 18:06:27.7	358.270	-0.480	0.110	-1.180
2020/01/31 18:06:27.8	358.270	-0.490	0.190	-1.140
2020/01/31 18:06:27.9	358.270	-0.490	0.270	-1.090
2020/01/31 18:06:28.0	358.280	-0.490	0.350	-1.050
2020/01/31 18:06:28.1	358.280	-0.480	0.420	-0.990
2020/01/31 18:06:28.2	358.280	-0.470	0.480	-0.940
2020/01/31 18:06:28.3	358.280	-0.460	0.540	-0.890
2020/01/31 18:06:28.4	358.280	-0.440	0.590	-0.830
2020/01/31 18:06:28.5	358.280	-0.420	0.630	-0.770
2020/01/31 18:06:28.6	358.280	-0.390	0.670	-0.710
2020/01/31 18:06:28.7	358.270	-0.360	0.700	-0.650
2020/01/31 18:06:28.8	358.270	-0.330	0.720	-0.600
2020/01/31 18:06:28.9	358.260	-0.300	0.730	-0.540
2020/01/31 18:06:29.0	358.250	-0.260	0.740	-0.480
2020/01/31 18:06:29.1	358.250	-0.220	0.740	-0.420
2020/01/31 18:06:29.2	358.240	-0.190	0.730	-0.360
2020/01/31 18:06:29.3	358.230	-0.150	0.720	-0.310
2020/01/31 18:06:29.4	358.230	-0.110	0.690	-0.260
2020/01/31 18:06:29.5	358.220	-0.070	0.660	-0.200
2020/01/31 18:06:29.6	358.210	-0.030	0.630	-0.150
2020/01/31 18:06:29.7	358.200	0.010	0.580	-0.110
2020/01/31 18:06:29.8	358.190	0.050	0.540	-0.060
2020/01/31 18:06:29.9	358.190	0.080	0.480	-0.010
2020/01/31 18:06:30.0	358.180	0.120	0.430	0.030
2020/01/31 18:06:30.1	358.170	0.150	0.370	0.070
2020/01/31 18:06:30.2	358.160	0.180	0.300	0.100
2020/01/31 18:06:30.3	358.150	0.200	0.240	0.130
2020/01/31 18:06:30.4	358.140	0.230	0.170	0.160
2020/01/31 18:06:30.5	358.130	0.250	0.100	0.180
2020/01/31 18:06:30.6	358.120	0.270	0.030	0.200
2020/01/31 18:06:30.7	358.100	0.280	-0.050	0.220
2020/01/31 18:06:30.8	358.090	0.300	-0.120	0.230
2020/01/31 18:06:30.9	358.080	0.310	-0.190	0.230
2020/01/31 18:06:31.0	358.070	0.310	-0.250	0.230
2020/01/31 18:06:31.1	358.060	0.320	-0.320	0.230
2020/01/31 18:06:31.2	358.050	0.320	-0.380	0.220
2020/01/31 18:06:31.3	358.050	0.320	-0.440	0.210
2020/01/31 18:06:31.4	358.040	0.310	-0.490	0.200
2020/01/31 18:06:31.5	358.030	0.310	-0.540	0.190
2020/01/31 18:06:31.6	358.020	0.300	-0.580	0.180
2020/01/31 18:06:31.7	358.010	0.300	-0.620	0.170
2020/01/31 18:06:31.8	357.990	0.290	-0.650	0.150
2020/01/31 18:06:31.9	357.970	0.280	-0.670	0.140
2020/01/31 18:06:32.0	357.960	0.270	-0.680	0.130
2020/01/31 18:06:32.1	357.940	0.260	-0.690	0.130
2020/01/31 18:06:32.2	357.930	0.240	-0.690	0.120
2020/01/31 18:06:32.3	357.910	0.230	-0.680	0.120
2020/01/31 18:06:32.4	357.880	0.220	-0.660	0.120
2020/01/31 18:06:32.5	357.860	0.210	-0.640	0.130
2020/01/31 18:06:32.6	357.840	0.200	-0.620	0.140
2020/01/31 18:06:32.7	357.810	0.180	-0.580	0.140
2020/01/31 18:06:32.8	357.790	0.170	-0.550	0.150
2020/01/31 18:06:32.9	357.750	0.160	-0.510	0.160
2020/01/31 18:06:33.0	357.720	0.150	-0.460	0.170
2020/01/31 18:06:33.1	357.690	0.140	-0.420	0.190
2020/01/31 18:06:33.2	357.660	0.130	-0.370	0.200
2020/01/31 18:06:33.3	357.630	0.120	-0.320	0.220
2020/01/31 18:06:33.4	357.600	0.110	-0.270	0.230
2020/01/31 18:06:33.5	357.570	0.100	-0.230	0.240
2020/01/31 18:06:33.6	357.530	0.090	-0.180	0.250
2020/01/31 18:06:33.7	357.500	0.090	-0.140	0.270
2020/01/31 18:06:33.8	357.470	0.080	-0.100	0.270
2020/01/31 18:06:33.9	357.440	0.070	-0.060	0.280
2020/01/31 18:06:34.0	357.410	0.070	-0.030	0.280
2020/01/31 18:06:34.1	357.380	0.060	-0.000	0.280
2020/01/31 18:06:34.2	357.360	0.050	0.020	0.280
2020/01/31 18:06:34.3	357.330	0.050	0.040	0.270
2020/01/31 18:06:34.4	357.310	0.040	0.050	0.260
2020/01/31 18:06:34.5	357.290	0.040	0.050	0.250
2020/01/31 18:06:34.6	357.270	0.030	0.050	0.230
2020/01/31 18:06:34.7	357.250	0.030	0.050	0.210
2020/01/31 18:06:34.8	357.240	0.020	0.030	0.180
2020/01/31 18:06:34.9	357.230	0.020	0.020	0.150
2020/01/31 18:06:35.0	357.220	0.020	-0.010	0.120
2020/01/31 18:06:35.1	357.220	0.010	-0.030	0.080
2020/01/31 18:06:35.2	357.220	0.010	-0.070	0.050
2020/01/31 18:06:35.3	357.220	0.000	-0.100	0.010
2020/01/31 18:06:35.4	357.220	-0.000	-0.140	-0.030
2020/01/31 18:06:35.5	357.230	-0.010	-0.180	-0.080
2020/01/31 18:06:35.6	357.240	-0.010	-0.230	-0.120
2020/01/31 18:06:35.7	357.250	-0.020	-0.270	-0.160
2020/01/31 18:06:35.8	357.260	-0.020	-0.320	-0.210
2020/01/31 18:06:35.9	357.280	-0.030	-0.360	-0.250
2020/01/31 18:06:36.0	357.290	-0.040	-0.400	-0.290
2020/01/31 18:06:36.1	357.310	-0.050	-0.450	-0.320
2020/01/31 18:06:36.2	357.320	-0.060	-0.490	-0.360
2020/01/31 18:06:36.3	357.340	-0.070	-0.520	-0.390
2020/01/31 18:06:36.4	357.360	-0.080	-0.560	-0.430
2020/01/31 18:06:36.5	357.380	-0.090	-0.590	-0.450
2020/01/31 18:06:36.6	357.400	-0.100	-0.610	-0.480
2020/01/31 18:06:36.7	357.420	-0.120	-0.630	-0.510
2020/01/31 18:06:36.8	357.440	-0.130	-0.650	-0.530
2020/01/31 18:06:36.9	357.470	-0.140	-0.660	-0.550
2020/01/31 18:06:37.0	357.490	-0.160	-0.670	-0.570
2020/01/31 18:06:37.1	357.510	-0.180	-0.680	-0.580
2020/01/31 18:06:37.2	357.530	-0.190	-0.680	-0.600
2020/01/31 18:06:37.3	357.550	-0.210	-0.670	-0.610
2020/01/31 18:06:37.4	357.570	-0.230	-0.660	-0.620
2020/01/31 18:06:37.5	357.590	-0.240	-0.650	-0.620
2020/01/31 18:06:37.6	357.610	-0.260	-0.630	-0.630
2020/01/31 18:06:37.7	357.630	-0.270	-0.610	-0.630
2020/01/31 18:06:37.8	357.650	-0.290	-0.590	-0.620
2020/01/31 18:06:37.9	357.660	-0.300	-0.560	-0.620
2020/01/31 18:06:38.0	357.680	-0.310	-0.530	-0.610
2020/01/31 18:06:38.1	357.700	-0.320	-0.510	-0.600
2020/01/31 18:06:38.2	357.720	-0.330	-0.480	-0.590
2020/01/31 18:06:38.3	357.740	-0.340	-0.450	-0.580
2020/01/31 18:06:38.4	357.760	-0.340	-0.420	-0.560
2020/01/31 18:06:38.5	357.780	-0.340	-0.390	-0.540
2020/01/31 18:06:38.6	357.800	-0.340	-0.360	-0.510
2020/01/31 18:06:38.7	357.810	-0.340	-0.330	-0.490
2020/01/31 18:06:38.8	357.830	-0.330	-0.300	-0.460
2020/01/31 18:06:38.9	357.850	-0.320	-0.280	-0.430
2020/01/31 18:06:39.0	357.870	-0.310	-0.250	-0.390
2020/01/31 18:06:39.1	357.880	-0.290	-0.230	-0.350
2020/01/31 18:06:39.2	357.890	-0.270	-0.210	-0.310
2020/01/31 18:06:39.3	357.900	-0.250	-0.200	-0.270
2020/01/31 18:06:39.4	357.910	-0.230	-0.180	-0.230
2020/01/31 18:06:39.5	357.920	-0.200	-0.170	-0.180
2020/01/31 18:06:39.6	357.920	-0.180	-0.160	-0.130
2020/01/31 18:06:39.7	357.930	-0.150	-0.160	-0.090
2020/01/31 18:06:39.8	357.930	-0.120	-0.150	-0.040
2020/01/31 18:06:39.9	357.920	-0.090	-0.150	0.010
2020/01/31 18:06:40.0	357.920	-0.050	-0.150	0.050
2020/01/31 18:06:40.1	357.920	-0.020	-0.160	0.090
2020/01/31 18:06:40.2	357.920	0.010	-0.160	0.130
2020/01/31 18:06:40.3	357.920	0.040	-0.170	0.170
2020/01/31 18:06:40.4	357.920	0.080	-0.180	0.200
2020/01/31 18:06:40.5	357.920	0.110	-0.190	0.230
2020/01/31 18:06:40.6	357.910	0.140	-0.210	0.260
2020/01/31 18:06:40.7	357.910	0.170	-0.220	0.280
2020/01/31 18:06:40.8	357.910	0.200	-0.230	0.300
2020/01/31 18:06:40.9	357.920	0.220	-0.250	0.320
2020/01/31 18:06:41.0	357.920	0.250	-0.270	0.330
2020/01/31 18:06:41.1	357.920	0.270	-0.280	0.330
2020/01/31 18:06:41.2	357.920	0.290	-0.300	0.340
2020/01/31 18:06:41.3	357.920	0.310	-0.310	0.340
2020/01/31 18:06:41.4	357.920	0.320	-0.330	0.330
2020/01/31 18:06:41.5	357.920	0.340	-0.340	0.320
2020/01/31 18:06:41.6	357.920	0.350	-0.350	0.310
2020/01/31 18:06:41.7	357.930	0.350	-0.370	0.300
2020/01/31 18:06:41.8	357.930	0.360	-0.380	0.290
2020/01/31 18:06:41.9	357.920	0.360	-0.390	0.270
2020/01/31 18:06:42.0	357.930	0.360	-0.390	0.250
2020/01/31 18:06:42.1	357.930	0.360	-0.400	0.230
2020/01/31 18:06:42.2	357.940	0.350	-0.400	0.210
2020/01/31 18:06:42.3	357.950	0.350	-0.410	0.190
2020/01/31 18:06:42.4	357.950	0.340	-0.410	0.160
2020/01/31 18:06:42.5	357.960	0.320	-0.400	0.140
2020/01/31 18:06:42.6	357.970	0.310	-0.400	0.120
2020/01/31 18:06:42.7	357.980	0.290	-0.390	0.090
2020/01/31 18:06:42.8	357.990	0.280	-0.380	0.070
2020/01/31 18:06:42.9	357.990	0.260	-0.360	0.040
2020/01/31 18:06:43.0	358.000	0.230	-0.340	0.020
2020/01/31 18:06:43.1	358.000	0.210	-0.320	-0.000
2020/01/31 18:06:43.2	358.000	0.190	-0.300	-0.020
2020/01/31 18:06:43.3	358.000	0.160	-0.270	-0.040
2020/01/31 18:06:43.4	358.000	0.130	-0.240	-0.060
2020/01/31 18:06:43.5	358.000	0.110	-0.210	-0.080
2020/01/31 18:06:43.6	357.990	0.080	-0.170	-0.100
2020/01/31 18:06:43.7	357.980	0.050	-0.140	-0.110
2020/01/31 18:06:43.8	357.970	0.020	-0.100	-0.130
2020/01/31 18:06:43.9	357.960	-0.010	-0.060	-0.150
2020/01/31 18:06:44.0	357.940	-0.040	-0.020	-0.160
2020/01/31 18:06:44.1	357.930	-0.060	0.020	-0.170
2020/01/31 18:06:44.2	357.910	-0.090	0.060	-0.190
2020/01/31 18:06:44.3	357.880	-0.120	0.100	-0.200
2020/01/31 18:06:44.4	357.860	-0.140	0.140	-0.210
2020/01/31 18:06:44.5	357.830	-0.170	0.180	-0.230
2020/01/31 18:06:44.6	357.810	-0.190	0.220	-0.240
2020/01/31 18:06:44.7	357.780	-0.210	0.260	-0.250
2020/01/31 18:06:44.8	357.740	-0.230	0.300	-0.250
2020/01/31 18:06:44.9	357.730	-0.250	0.330	-0.260
2020/01/31 18:06:45.0	357.690	-0.260	0.370	-0.270
2020/01/31 18:06:45.1	357.660	-0.280	0.400	-0.270
2020/01/31 18:06:45.2	357.620	-0.290	0.420	-0.270
2020/01/31 18:06:45.3	357.580	-0.290	0.450	-0.260
2020/01/31 18:06:45.4	357.540	-0.300	0.470	-0.260
2020/01/31 18:06:45.5	357.500	-0.300	0.480	-0.250
2020/01/31 18:06:45.6	357.460	-0.300	0.500	-0.230
2020/01/31 18:06:45.7	357.430	-0.300	0.500	-0.220
2020/01/31 18:06:45.8	357.390	-0.300	0.510	-0.200
2020/01/31 18:06:45.9	357.360	-0.290	0.500	-0.180
2020/01/31 18:06:46.0	357.330	-0.280	0.500	-0.160
2020/01/31 18:06:46.1	357.290	-0.270	0.480	-0.130
2020/01/31 18:06:46.2	357.260	-0.250	0.460	-0.110
2020/01/31 18:06:46.3	357.240	-0.240	0.440	-0.090
2020/01/31 18:06:46.4	357.210	-0.220	0.410	-0.060
2020/01/31 18:06:46.5	357.190	-0.200	0.370	-0.040
2020/01/31 18:06:46.6	357.170	-0.180	0.330	-0.020
2020/01/31 18:06:46.7	357.150	-0.160	0.280	-0.000
2020/01/31 18:06:46.8	357.140	-0.130	0.230	0.020
2020/01/31 18:06:46.9	357.120	-0.110	0.170	0.030
2020/01/31 18:06:47.0	357.120	-0.080	0.100	0.040
2020/01/31 18:06:47.1	357.120	-0.060	0.040	0.040
2020/01/31 18:06:47.2	357.120	-0.040	-0.030	0.050
2020/01/31 18:06:47.3	357.120	-0.010	-0.110	0.050
2020/01/31 18:06:47.4	357.130	0.010	-0.190	0.050
2020/01/31 18:06:47.5	357.140	0.040	-0.270	0.040
2020/01/31 18:06:47.6	357.150	0.060	-0.350	0.030
2020/01/31 18:06:47.7	357.160	0.080	-0.430	0.020
2020/01/31 18:06:47.8	357.180	0.100	-0.510	-0.000
2020/01/31 18:06:47.9	357.200	0.120	-0.590	-0.030
2020/01/31 18:06:48.0	357.220	0.140	-0.670	-0.050
2020/01/31 18:06:48.1	357.250	0.150	-0.740	-0.070
2020/01/31 18:06:48.2	357.270	0.170	-0.820	-0.100
2020/01/31 18:06:48.3	357.300	0.180	-0.890	-0.130
2020/01/31 18:06:48.4	357.330	0.190	-0.950	-0.150
2020/01/31 18:06:48.5	357.360	0.200	-1.020	-0.180
2020/01/31 18:06:48.6	357.400	0.200	-1.070	-0.210
2020/01/31 18:06:48.7	357.430	0.210	-1.120	-0.240
2020/01/31 18:06:48.8	357.470	0.210	-1.170	-0.270
2020/01/31 18:06:48.9	357.510	0.210	-1.210	-0.300
2020/01/31 18:06:49.0	357.540	0.210	-1.240	-0.330
2020/01/31 18:06:49.1	357.580	0.200	-1.270	-0.360
2020/01/31 18:06:49.2	357.630	0.200	-1.290	-0.380
2020/01/31 18:06:49.3	357.670	0.190	-1.300	-0.410
2020/01/31 18:06:49.4	357.710	0.180	-1.310	-0.430
2020/01/31 18:06:49.5	357.750	0.170	-1.300	-0.450
2020/01/31 18:06:49.6	357.790	0.160	-1.300	-0.470
2020/01/31 18:06:49.7	357.840	0.140	-1.280	-0.490
2020/01/31 18:06:49.8	357.880	0.130	-1.260	-0.500
2020/01/31 18:06:49.9	357.910	0.110	-1.230	-0.510
2020/01/31 18:06:50.0	357.940	0.090	-1.200	-0.530
2020/01/31 18:06:50.1	357.980	0.070	-1.160	-0.530
2020/01/31 18:06:50.2	358.010	0.050	-1.120	-0.540
2020/01/31 18:06:50.3	358.050	0.030	-1.070	-0.550
2020/01/31 18:06:50.4	358.080	0.000	-1.020	-0.550
2020/01/31 18:06:50.5	358.110	-0.020	-0.960	-0.550
2020/01/31 18:06:50.6	358.140	-0.040	-0.900	-0.550
2020/01/31 18:06:50.7	358.160	-0.070	-0.840	-0.550
2020/01/31 18:06:50.8	358.190	-0.090	-0.780	-0.550
2020/01/31 18:06:50.9	358.190	-0.110	-0.710	-0.560
2020/01/31 18:06:51.0	358.210	-0.130	-0.650	-0.550
2020/01/31 18:06:51.1	358.230	-0.160	-0.590	-0.550
2020/01/31 18:06:51.2	358.250	-0.180	-0.520	-0.550
2020/01/31 18:06:51.3	358.260	-0.190	-0.460	-0.540
2020/01/31 18:06:51.4	358.280	-0.210	-0.400	-0.540
2020/01/31 18:06:51.5	358.290	-0.230	-0.340	-0.530
2020/01/31 18:06:51.6	358.300	-0.240	-0.290	-0.520
2020/01/31 18:06:51.7	358.310	-0.250	-0.230	-0.510
2020/01/31 18:06:51.8	358.320	-0.260	-0.180	-0.490
2020/01/31 18:06:51.9	358.320	-0.270	-0.130	-0.480
2020/01/31 18:06:52.0	358.320	-0.280	-0.080	-0.460
2020/01/31 18:06:52.1	358.320	-0.280	-0.040	-0.440
2020/01/31 18:06:52.2	358.320	-0.290	0.010	-0.420
2020/01/31 18:06:52.3	358.310	-0.290	0.050	-0.390
2020/01/31 18:06:52.4	358.310	-0.290	0.080	-0.360
2020/01/31 18:06:52.5	358.300	-0.290	0.120	-0.330
2020/01/31 18:06:52.6	358.280	-0.290	0.150	-0.300
2020/01/31 18:06:52.7	358.270	-0.290	0.180	-0.260
2020/01/31 18:06:52.8	358.250	-0.280	0.210	-0.230
2020/01/31 18:06:52.9	358.230	-0.280	0.230	-0.190
2020/01/31 18:06:53.0	358.210	-0.270	0.260	-0.150
2020/01/31 18:06:53.1	358.190	-0.270	0.280	-0.120
2020/01/31 18:06:53.2	358.160	-0.260	0.300	-0.080
2020/01/31 18:06:53.3	358.130	-0.260	0.320	-0.050
2020/01/31 18:06:53.4	358.100	-0.250	0.340	-0.020
2020/01/31 18:06:53.5	358.070	-0.240	0.360	0.010
2020/01/31 18:06:53.6	358.030	-0.230	0.370	0.050
2020/01/31 18:06:53.7	358.000	-0.220	0.390	0.080
2020/01/31 18:06:53.8	357.960	-0.220	0.400	0.110
2020/01/31 18:06:53.9	357.920	-0.210	0.410	0.130
2020/01/31 18:06:54.0	357.880	-0.200	0.420	0.160
2020/01/31 18:06:54.1	357.840	-0.190	0.430	0.180
2020/01/31 18:06:54.2	357.790	-0.170	0.440	0.210
2020/01/31 18:06:54.3	357.750	-0.160	0.450	0.240
2020/01/31 18:06:54.4	357.710	-0.150	0.450	0.260
2020/01/31 18:06:54.5	357.660	-0.140	0.450	0.290
2020/01/31 18:06:54.6	357.620	-0.130	0.450	0.320
2020/01/31 18:06:54.7	357.580	-0.110	0.450	0.340
2020/01/31 18:06:54.8	357.540	-0.100	0.450	0.370
2020/01/31 18:06:54.9	357.500	-0.080	0.440	0.390
2020/01/31 18:06:55.0	357.460	-0.060	0.430	0.410
2020/01/31 18:06:55.1	357.420	-0.050	0.420	0.440
2020/01/31 18:06:55.2	357.390	-0.030	0.410	0.460
2020/01/31 18:06:55.3	357.350	-0.010	0.390	0.480
2020/01/31 18:06:55.4	357.320	0.010	0.370	0.500
2020/01/31 18:06:55.5	357.280	0.030	0.340	0.520
2020/01/31 18:06:55.6	357.250	0.050	0.320	0.530
2020/01/31 18:06:55.7	357.230	0.070	0.290	0.540
2020/01/31 18:06:55.8	357.200	0.090	0.250	0.560
2020/01/31 18:06:55.9	357.170	0.110	0.220	0.560
2020/01/31 18:06:56.0	357.150	0.130	0.180	0.560
2020/01/31 18:06:56.1	357.130	0.150	0.130	0.560
2020/01/31 18:06:56.2	357.120	0.170	0.090	0.560
2020/01/31 18:06:56.3	357.100	0.190	0.040	0.550
2020/01/31 18:06:56.4	357.100	0.210	-0.010	0.530
2020/01/31 18:06:56.5	357.090	0.230	-0.070	0.510
2020/01/31 18:06:56.6	357.090	0.250	-0.120	0.490
2020/01/31 18:06:56.7	357.090	0.260	-0.180	0.460
2020/01/31 18:06:56.8	357.090	0.280	-0.240	0.420
2020/01/31 18:06:56.9	357.100	0.300	-0.300	0.380
2020/01/31 18:06:57.0	357.110	0.310	-0.360	0.340
2020/01/31 18:06:57.1	357.130	0.320	-0.420	0.290
2020/01/31 18:06:57.2	357.140	0.340	-0.490	0.240
2020/01/31 18:06:57.3	357.160	0.350	-0.550	0.190
2020/01/31 18:06:57.4	357.180	0.360	-0.610	0.130
2020/01/31 18:06:57.5	357.210	0.360	-0.670	0.070
2020/01/31 18:06:57.6	357.240	0.370	-0.730	0.010
2020/01/31 18:06:57.7	357.260	0.370	-0.780	-0.040
2020/01/31 18:06:57.8	357.300	0.380	-0.840	-0.100
2020/01/31 18:06:57.9	357.340	0.380	-0.890	-0.160
2020/01/31 18:06:58.0	357.370	0.380	-0.930	-0.220
2020/01/31 18:06:58.1	357.400	0.370	-0.970	-0.270
2020/01/31 18:06:58.2	357.440	0.370	-1.010	-0.320
2020/01/31 18:06:58.3	357.470	0.360	-1.040	-0.360
2020/01/31 18:06:58.4	357.500	0.350	-1.060	-0.410
2020/01/31 18:06:58.5	357.540	0.340	-1.080	-0.450
2020/01/31 18:06:58.6	357.570	0.320	-1.090	-0.480
2020/01/31 18:06:58.7	357.600	0.310	-1.090	-0.520
2020/01/31 18:06:58.8	357.630	0.290	-1.090	-0.550
2020/01/31 18:06:58.9	357.660	0.270	-1.080	-0.570
2020/01/31 18:06:59.0	357.690	0.240	-1.060	-0.600
2020/01/31 18:06:59.1	357.710	0.220	-1.030	-0.620
2020/01/31 18:06:59.2	357.740	0.190	-1.000	-0.640
2020/01/31 18:06:59.3	357.770	0.160	-0.960	-0.660
2020/01/31 18:06:59.4	357.790	0.130	-0.910	-0.680
2020/01/31 18:06:59.5	357.810	0.100	-0.860	-0.690
2020/01/31 18:06:59.6	357.830	0.070	-0.810	-0.700
2020/01/31 18:06:59.7	357.850	0.030	-0.750	-0.710
2020/01/31 18:06:59.8	357.870	-0.000	-0.680	-0.720
2020/01/31 18:06:59.9	357.870	-0.040	-0.620	-0.730
2020/01/31 18:07:00.0	357.880	-0.080	-0.550	-0.730
2020/01/31 18:07:00.1	357.900	-0.110	-0.480	-0.730
2020/01/31 18:07:00.2	357.900	-0.150	-0.410	-0.720
2020/01/31 18:07:00.3	357.910	-0.180	-0.340	-0.720
2020/01/31 18:07:00.4	357.920	-0.220	-0.280	-0.710
2020/01/31 18:07:00.5	357.920	-0.250	-0.210	-0.690
2020/01/31 18:07:00.6	357.920	-0.280	-0.140	-0.680
2020/01/31 18:07:00.7	357.920	-0.310	-0.080	-0.660
2020/01/31 18:07:00.8	357.920	-0.340	-0.010	-0.640
2020/01/31 18:07:00.9	357.930	-0.370	0.040	-0.610
2020/01/31 18:07:01.0	357.920	-0.390	0.100	-0.580
2020/01/31 18:07:01.1	357.920	-0.410	0.150	-0.550
2020/01/31 18:07:01.2	357.910	-0.430	0.200	-0.520
2020/01/31 18:07:01.3	357.890	-0.450	0.240	-0.480
2020/01/31 18:07:01.4	357.880	-0.460	0.270	-0.450
2020/01/31 18:07:01.5	357.860	-0.480	0.310	-0.410
2020/01/31 18:07:01.6	357.840	-0.490	0.330	-0.370
2020/01/31 18:07:01.7	357.820	-0.490	0.350	-0.330
2020/01/31 18:07:01.8	357.800	-0.500	0.370	-0.300
2020/01/31 18:07:01.9	357.770	-0.500	0.370	-0.250
2020/01/31 18:07:02.0	357.750	-0.500	0.380	-0.220
2020/01/31 18:07:02.1	357.720	-0.500	0.370	-0.180
2020/01/31 18:07:02.2	357.690	-0.490	0.370	-0.150
2020/01/31 18:07:02.3	357.660	-0.480	0.350	-0.120
2020/01/31 18:07:02.4	357.630	-0.480	0.340	-0.090
2020/01/31 18:07:02.5	357.600	-0.460	0.310	-0.060
2020/01/31 18:07:02.6	357.570	-0.450	0.290	-0.040
2020/01/31 18:07:02.7	357.540	-0.440	0.250	-0.020
2020/01/31 18:07:02.8	357.510	-0.420	0.220	-0.000
2020/01/31 18:07:02.9	357.480	-0.400	0.180	0.010
2020/01/31 18:07:03.0	357.450	-0.380	0.140	0.010
2020/01/31 18:07:03.1	357.430	-0.360	0.090	0.020
2020/01/31 18:07:03.2	357.410	-0.340	0.040	0.020
2020/01/31 18:07:03.3	357.380	-0.320	-0.010	0.020
2020/01/31 18:07:03.4	357.360	-0.290	-0.060	0.010
2020/01/31 18:07:03.5	357.350	-0.270	-0.110	-0.000
2020/01/31 18:07:03.6	357.330	-0.240	-0.170	-0.010
2020/01/31 18:07:03.7	357.320	-0.210	-0.220	-0.030
2020/01/31 18:07:03.8	357.320	-0.180	-0.280	-0.040
2020/01/31 18:07:03.9	357.310	-0.150	-0.330	-0.070
2020/01/31 18:07:04.0	357.310	-0.120	-0.380	-0.080
2020/01/31 18:07:04.1	357.310	-0.090	-0.430	-0.100
2020/01/31 18:07:04.2	357.310	-0.060	-0.480	-0.120
2020/01/31 18:07:04.3	357.320	-0.020	-0.530	-0.140
2020/01/31 18:07:04.4	357.330	0.010	-0.570	-0.150
2020/01/31 18:07:04.5	357.340	0.040	-0.610	-0.170
2020/01/31 18:07:04.6	357.360	0.080	-0.650	-0.190
2020/01/31 18:07:04.7	357.380	0.110	-0.690	-0.200
2020/01/31 18:07:04.8	357.390	0.140	-0.720	-0.210
2020/01/31 18:07:04.9	357.420	0.180	-0.740	-0.230
2020/01/31 18:07:05.0	357.450	0.210	-0.760	-0.240
2020/01/31 18:07:05.1	357.470	0.240	-0.780	-0.250
2020/01/31 18:07:05.2	357.490	0.270	-0.790	-0.250
2020/01/31 18:07:05.3	357.510	0.300	-0.800	-0.260
2020/01/31 18:07:05.4	357.530	0.330	-0.800	-0.260
2020/01/31 18:07:05.5	357.550	0.360	-0.800	-0.260
2020/01/31 18:07:05.6	357.570	0.380	-0.790	-0.260
2020/01/31 18:07:05.7	357.590	0.400	-0.770	-0.250
2020/01/31 18:07:05.8	357.600	0.420	-0.750	-0.240
2020/01/31 18:07:05.9	357.610	0.440	-0.720	-0.230
2020/01/31 18:07:06.0	357.610	0.450	-0.690	-0.210
2020/01/31 18:07:06.1	357.620	0.460	-0.650	-0.190
2020/01/31 18:07:06.2	357.620	0.460	-0.610	-0.170
2020/01/31 18:07:06.3	357.610	0.470	-0.560	-0.150
2020/01/31 18:07:06.4	357.610	0.460	-0.500	-0.120
2020/01/31 18:07:06.5	357.600	0.460	-0.450	-0.090
2020/01/31 18:07:06.6	357.590	0.450	-0.390	-0.060
2020/01/31 18:07:06.7	357.570	0.440	-0.330	-0.030
2020/01/31 18:07:06.8	357.560	0.420	-0.260	0.010
2020/01/31 18:07:06.9	357.530	0.400	-0.200	0.040
2020/01/31 18:07:07.0	357.510	0.380	-0.130	0.070
2020/01/31 18:07:07.1	357.490	0.350	-0.060	0.100
2020/01/31 18:07:07.2	357.470	0.320	-0.000	0.140
2020/01/31 18:07:07.3	357.450	0.290	0.060	0.170
2020/01/31 18:07:07.4	357.420	0.250	0.120	0.200
2020/01/31 18:07:07.5	357.400	0.220	0.180	0.220
2020/01/31 18:07:07.6	357.380	0.180	0.230	0.250
2020/01/31 18:07:07.7	357.360	0.140	0.270	0.270
2020/01/31 18:07:07.8	357.340	0.100	0.310	0.280
2020/01/31 18:07:07.9	357.320	0.060	0.350	0.300
2020/01/31 18:07:08.0	357.300	0.020	0.370	0.310
2020/01/31 18:07:08.1	357.280	-0.020	0.390	0.310
2020/01/31 18:07:08.2	357.270	-0.050	0.400	0.320
2020/01/31 18:07:08.3	357.250	-0.090	0.410	0.320
2020/01/31 18:07:08.4	357.240	-0.130	0.410	0.310
2020/01/31 18:07:08.5	357.220	-0.160	0.400	0.310
2020/01/31 18:07:08.6	357.210	-0.190	0.380	0.300
2020/01/31 18:07:08.7	357.190	-0.220	0.360	0.280
2020/01/31 18:07:08.8	357.180	-0.250	0.330	0.270
2020/01/31 18:07:08.9	357.150	-0.270	0.290	0.240
2020/01/31 18:07:09.0	357.140	-0.290	0.250	0.220
2020/01/31 18:07:09.1	357.130	-0.300	0.190	0.190
2020/01/31 18:07:09.2	357.120	-0.310	0.140	0.170
2020/01/31 18:07:09.3	357.120	-0.320	0.070	0.140
2020/01/31 18:07:09.4	357.110	-0.320	0.010	0.110
2020/01/31 18:07:09.5	357.110	-0.310	-0.060	0.080
2020/01/31 18:07:09.6	357.110	-0.310	-0.140	0.040
2020/01/31 18:07:09.7	357.110	-0.300	-0.210	0.010
2020/01/31 18:07:09.8	357.110	-0.280	-0.290	-0.020
2020/01/31 18:07:09.9	357.120	-0.260	-0.370	-0.060
2020/01/31 18:07:10.0	357.130	-0.240	-0.450	-0.090
2020/01/31 18:07:10.1	357.140	-0.220	-0.530	-0.120
2020/01/31 18:07:10.2	357.150	-0.190	-0.600	-0.150
2020/01/31 18:07:10.3	357.160	-0.160	-0.680	-0.180
2020/01/31 18:07:10.4	357.170	-0.120	-0.750	-0.210
2020/01/31 18:07:10.5	357.180	-0.090	-0.810	-0.240
2020/01/31 18:07:10.6	357.200	-0.050	-0.870	-0.270
2020/01/31 18:07:10.7	357.210	-0.010	-0.930	-0.300
2020/01/31 18:07:10.8	357.230	0.020	-0.980	-0.330
2020/01/31 18:07:10.9	357.250	0.060	-1.020	-0.350
2020/01/31 18:07:11.0	357.260	0.090	-1.060	-0.380
2020/01/31 18:07:11.1	357.280	0.130	-1.090	-0.400
2020/01/31 18:07:11.2	357.300	0.160	-1.110	-0.420
2020/01/31 18:07:11.3	357.320	0.190	-1.120	-0.450
2020/01/31 18:07:11.4	357.340	0.220	-1.130	-0.470
2020/01/31 18:07:11.5	357.350	0.240	-1.130	-0.480
2020/01/31 18:07:11.6	357.370	0.260	-1.120	-0.500
2020/01/31 18:07:11.7	357.390	0.280	-1.100	-0.510
2020/01/31 18:07:11.8	357.410	0.290	-1.070	-0.520
2020/01/31 18:07:11.9	357.410	0.310	-1.040	-0.530
2020/01/31 18:07:12.0	357.430	0.310	-0.990	-0.530
2020/01/31 18:07:12.1	357.450	0.320	-0.940	-0.530
2020/01/31 18:07:12.2	357.470	0.320	-0.890	-0.530
2020/01/31 18:07:12.3	357.480	0.320	-0.820	-0.520
2020/01/31 18:07:12.4	357.500	0.310	-0.750	-0.510
2020/01/31 18:07:12.5	357.520	0.300	-0.680	-0.490
2020/01/31 18:07:12.6	357.530	0.280	-0.600	-0.470
2020/01/31 18:07:12.7	357.540	0.270	-0.520	-0.450
2020/01/31 18:07:12.8	357.560	0.240	-0.430	-0.420
2020/01/31 18:07:12.9	357.570	0.220	-0.340	-0.390
2020/01/31 18:07:13.0	357.570	0.190	-0.250	-0.360
2020/01/31 18:07:13.1	357.580	0.160	-0.160	-0.320
2020/01/31 18:07:13.2	357.580	0.130	-0.060	-0.290
2020/01/31 18:07:13.3	357.580	0.090	0.030	-0.250
2020/01/31 18:07:13.4	357.580	0.050	0.120	-0.200
2020/01/31 18:07:13.5	357.570	0.010	0.220	-0.160
2020/01/31 18:07:13.6	357.560	-0.030	0.300	-0.120
2020/01/31 18:07:13.7	357.540	-0.070	0.390	-0.070
2020/01/31 18:07:13.8	357.530	-0.110	0.470	-0.030
2020/01/31 18:07:13.9	357.520	-0.160	0.550	0.020
2020/01/31 18:07:14.0	357.500	-0.200	0.630	0.060
2020/01/31 18:07:14.1	357.470	-0.240	0.700	0.100
2020/01/31 18:07:14.2	357.450	-0.280	0.760	0.140
2020/01/31 18:07:14.3	357.410	-0.320	0.820	0.180
2020/01/31 18:07:14.4	357.380	-0.350	0.870	0.220
2020/01/31 18:07:14.5	357.340	-0.390	0.910	0.260
2020/01/31 18:07:14.6	357.310	-0.420	0.950	0.290
2020/01/31 18:07:14.7	357.270	-0.450	0.980	0.330
2020/01/31 18:07:14.8	357.230	-0.470	1.000	0.360
2020/01/31 18:07:14.9	357.180	-0.490	1.010	0.390
2020/01/31 18:07:15.0	357.130	-0.510	1.020	0.420
2020/01/31 18:07:15.1	357.090	-0.520	1.010	0.440
2020/01/31 18:07:15.2	357.060	-0.530	1.000	0.460
2020/01/31 18:07:15.3	357.020	-0.530	0.970	0.480
2020/01/31 18:07:15.4	356.980	-0.530	0.930	0.500
2020/01/31 18:07:15.5	356.950	-0.520	0.890	0.510
2020/01/31 18:07:15.6	356.920	-0.510	0.830	0.520
2020/01/31 18:07:15.7	356.890	-0.490	0.770	0.530
2020/01/31 18:07:15.8	356.870	-0.470	0.690	0.530
2020/01/31 18:07:15.9	356.850	-0.440	0.600	0.520
2020/01/31 18:07:16.0	356.840	-0.410	0.510	0.520
2020/01/31 18:07:16.1	356.820	-0.370	0.410	0.510
2020/01/31 18:07:16.2	356.810	-0.330	0.300	0.500
2020/01/31 18:07:16.3	356.810	-0.290	0.180	0.480
2020/01/31 18:07:16.4	356.800	-0.240	0.060	0.470
2020/01/31 18:07:16.5	356.800	-0.190	-0.070	0.450
2020/01/31 18:07:16.6	356.800	-0.140	-0.200	0.430
2020/01/31 18:07:16.7	356.810	-0.080	-0.340	0.410
2020/01/31 18:07:16.8	356.820	-0.020	-0.470	0.380
2020/01/31 18:07:16.9	356.820	0.030	-0.610	0.350
2020/01/31 18:07:17.0	356.830	0.090	-0.740	0.320
2020/01/31 18:07:17.1	356.850	0.150	-0.880	0.290
2020/01/31 18:07:17.2	356.860	0.210	-1.000	0.250
2020/01/31 18:07:17.3	356.880	0.260	-1.130	0.210
2020/01/31 18:07:17.4	356.900	0.320	-1.240	0.170
2020/01/31 18:07:17.5	356.920	0.370	-1.350	0.130
2020/01/31 18:07:17.6	356.940	0.420	-1.450	0.090
2020/01/31 18:07:17.7	356.970	0.460	-1.550	0.040
2020/01/31 18:07:17.8	356.990	0.500	-1.630	-0.010
2020/01/31 18:07:17.9	357.020	0.540	-1.700	-0.060
2020/01/31 18:07:18.0	357.040	0.570	-1.760	-0.110
2020/01/31 18:07:18.1	357.070	0.600	-1.810	-0.160
2020/01/31 18:07:18.2	357.100	0.620	-1.840	-0.200
2020/01/31 18:07:18.3	357.120	0.640	-1.860	-0.240
2020/01/31 18:07:18.4	357.150	0.650	-1.870	-0.280
2020/01/31 18:07:18.5	357.180	0.660	-1.870	-0.320
2020/01/31 18:07:18.6	357.200	0.660	-1.850	-0.350
2020/01/31 18:07:18.7	357.220	0.660	-1.820	-0.380
2020/01/31 18:07:18.8	357.250	0.650	-1.770	-0.400
2020/01/31 18:07:18.9	357.270	0.630	-1.720	-0.420
2020/01/31 18:07:19.0	357.290	0.610	-1.650	-0.440
2020/01/31 18:07:19.1	357.310	0.590	-1.570	-0.450
2020/01/31 18:07:19.2	357.330	0.560	-1.490	-0.450
2020/01/31 18:07:19.3	357.340	0.520	-1.390	-0.450
2020/01/31 18:07:19.4	357.360	0.480	-1.290	-0.440
2020/01/31 18:07:19.5	357.370	0.440	-1.180	-0.440
2020/01/31 18:07:19.6	357.370	0.400	-1.060	-0.420
2020/01/31 18:07:19.7	357.380	0.350	-0.940	-0.410
2020/01/31 18:07:19.8	357.380	0.300	-0.810	-0.390
2020/01/31 18:07:19.9	357.390	0.240	-0.690	-0.360
2020/01/31 18:07:20.0	357.390	0.190	-0.560	-0.340
2020/01/31 18:07:20.1	357.380	0.130	-0.430	-0.310
2020/01/31 18:07:20.2	357.370	0.080	-0.300	-0.290
2020/01/31 18:07:20.3	357.360	0.020	-0.170	-0.260
2020/01/31 18:07:20.4	357.350	-0.040	-0.050	-0.240
2020/01/31 18:07:20.5	357.330	-0.100	0.070	-0.210
2020/01/31 18:07:20.6	357.320	-0.150	0.190	-0.180
2020/01/31 18:07:20.7	357.300	-0.210	0.300	-0.160
2020/01/31 18:07:20.8	357.280	-0.260	0.400	-0.130
2020/01/31 18:07:20.9	357.250	-0.310	0.500	-0.110
2020/01/31 18:07:21.0	357.220	-0.350	0.590	-0.090
2020/01/31 18:07:21.1	357.200	-0.400	0.670	-0.060
2020/01/31 18:07:21.2	357.170	-0.440	0.740	-0.040
2020/01/31 18:07:21.3	357.150	-0.470	0.810	-0.020
2020/01/31 18:07:21.4	357.120	-0.500	0.860	0.000
2020/01/31 18:07:21.5	357.100	-0.530	0.910	0.020
2020/01/31 18:07:21.6	357.070	-0.550	0.940	0.040
2020/01/31 18:07:21.7	357.050	-0.560	0.970	0.050
2020/01/31 18:07:21.8	357.030	-0.570	0.990	0.070
2020/01/31 18:07:21.9	357.000	-0.580	0.990	0.080
2020/01/31 18:07:22.0	356.980	-0.580	0.990	0.090
2020/01/31 18:07:22.1	356.970	-0.570	0.970	0.100
2020/01/31 18:07:22.2	356.950	-0.560	0.950	0.110
2020/01/31 18:07:22.3	356.940	-0.550	0.920	0.110
2020/01/31 18:07:22.4	356.930	-0.530	0.880	0.120
2020/01/31 18:07:22.5	356.920	-0.500	0.840	0.120
2020/01/31 18:07:22.6	356.920	-0.470	0.790	0.120
2020/01/31 18:07:22.7	356.910	-0.440	0.730	0.120
2020/01/31 18:07:22.8	356.910	-0.410	0.670	0.120
2020/01/31 18:07:22.9	356.900	-0.370	0.600	0.110
2020/01/31 18:07:23.0	356.900	-0.330	0.530	0.100
2020/01/31 18:07:23.1	356.890	-0.290	0.460	0.100
2020/01/31 18:07:23.2	356.890	-0.250	0.390	0.090
2020/01/31 18:07:23.3	356.880	-0.210	0.320	0.090
2020/01/31 18:07:23.4	356.870	-0.170	0.250	0.080
2020/01/31 18:07:23.5	356.860	-0.130	0.180	0.070
2020/01/31 18:07:23.6	356.850	-0.090	0.120	0.070
2020/01/31 18:07:23.7	356.840	-0.050	0.050	0.060
2020/01/31 18:07:23.8	356.820	-0.010	-0.010	0.060
2020/01/31 18:07:23.9	356.800	0.030	-0.060	0.050
2020/01/31 18:07:24.0	356.780	0.060	-0.110	0.050
2020/01/31 18:07:24.1	356.760	0.090	-0.160	0.040
2020/01/31 18:07:24.2	356.730	0.120	-0.210	0.030
2020/01/31 18:07:24.3	356.710	0.150	-0.250	0.030
2020/01/31 18:07:24.4	356.680	0.170	-0.290	0.020
2020/01/31 18:07:24.5	356.660	0.190	-0.320	0.010
2020/01/31 18:07:24.6	356.630	0.200	-0.350	0.000
2020/01/31 18:07:24.7	356.610	0.220	-0.370	-0.010
2020/01/31 18:07:24.8	356.580	0.230	-0.390	-0.020
2020/01/31 18:07:24.9	356.550	0.230	-0.410	-0.030
2020/01/31 18:07:25.0	356.530	0.240	-0.430	-0.040
2020/01/31 18:07:25.1	356.510	0.240	-0.450	-0.050
2020/01/31 18:07:25.2	356.490	0.230	-0.460	-0.060
2020/01/31 18:07:25.3	356.480	0.230	-0.470	-0.070
2020/01/31 18:07:25.4	356.470	0.220	-0.480	-0.080
2020/01/31 18:07:25.5	356.460	0.220	-0.500	-0.100
2020/01/31 18:07:25.6	356.450	0.210	-0.510	-0.110
2020/01/31 18:07:25.7	356.450	0.200	-0.520	-0.130
2020/01/31 18:07:25.8	356.460	0.190	-0.540	-0.140
2020/01/31 18:07:25.9	356.470	0.180	-0.560	-0.160
2020/01/31 18:07:26.0	356.480	0.170	-0.580	-0.180
2020/01/31 18:07:26.1	356.500	0.160	-0.600	-0.200
2020/01/31 18:07:26.2	356.520	0.150	-0.620	-0.230
2020/01/31 18:07:26.3	356.540	0.140	-0.640	-0.250
2020/01/31 18:07:26.4	356.560	0.130	-0.670	-0.270
2020/01/31 18:07:26.5	356.590	0.120	-0.700	-0.300
2020/01/31 18:07:26.6	356.620	0.120	-0.720	-0.330
2020/01/31 18:07:26.7	356.650	0.110	-0.750	-0.360
2020/01/31 18:07:26.8	356.690	0.100	-0.780	-0.380
2020/01/31 18:07:26.9	356.730	0.100	-0.810	-0.420
2020/01/31 18:07:27.0	356.760	0.100	-0.830	-0.450
2020/01/31 18:07:27.1	356.800	0.090	-0.860	-0.480
2020/01/31 18:07:27.2	356.840	0.090	-0.880	-0.510
2020/01/31 18:07:27.3	356.870	0.090	-0.900	-0.530
2020/01/31 18:07:27.4	356.910	0.080	-0.910	-0.560
2020/01/31 18:07:27.5	356.940	0.080	-0.930	-0.590
2020/01/31 18:07:27.6	356.980	0.080	-0.940	-0.610
2020/01/31 18:07:27.7	357.010	0.080	-0.940	-0.640
2020/01/31 18:07:27.8	357.040	0.070	-0.940	-0.660
2020/01/31 18:07:27.9	357.060	0.070	-0.940	-0.680
2020/01/31 18:07:28.0	357.090	0.070	-0.930	-0.700
2020/01/31 18:07:28.1	357.120	0.070	-0.920	-0.710
2020/01/31 18:07:28.2	357.140	0.060	-0.900	-0.720
2020/01/31 18:07:28.3	357.170	0.060	-0.880	-0.720
2020/01/31 18:07:28.4	357.190	0.060	-0.850	-0.730
2020/01/31 18:07:28.5	357.210	0.050	-0.820	-0.720
2020/01/31 18:07:28.6	357.230	0.040	-0.790	-0.720
2020/01/31 18:07:28.7	357.240	0.040	-0.750	-0.710
2020/01/31 18:07:28.8	357.250	0.030	-0.710	-0.700
2020/01/31 18:07:28.9	357.250	0.020	-0.670	-0.680
2020/01/31 18:07:29.0	357.250	0.010	-0.630	-0.660
2020/01/31 18:07:29.1	357.250	0.000	-0.580	-0.640
2020/01/31 18:07:29.2	357.250	-0.010	-0.530	-0.610
2020/01/31 18:07:29.3	357.250	-0.020	-0.480	-0.590
2020/01/31 18:07:29.4	357.240	-0.030	-0.430	-0.560
2020/01/31 18:07:29.5	357.230	-0.050	-0.370	-0.530
2020/01/31 18:07:29.6	357.220	-0.060	-0.320	-0.500
2020/01/31 18:07:29.7	357.200	-0.070	-0.270	-0.470
2020/01/31 18:07:29.8	357.190	-0.090	-0.220	-0.440
2020/01/31 18:07:29.9	357.170	-0.100	-0.170	-0.410
2020/01/31 18:07:30.0	357.150	-0.110	-0.120	-0.380
2020/01/31 18:07:30.1	357.130	-0.120	-0.070	-0.350
2020/01/31 18:07:30.2	357.110	-0.140	-0.020	-0.320
2020/01/31 18:07:30.3	357.080	-0.140	0.020	-0.280
2020/01/31 18:07:30.4	357.060	-0.150	0.070	-0.250
2020/01/31 18:07:30.5	357.040	-0.160	0.110	-0.220
2020/01/31 18:07:30.6	357.010	-0.160	0.150	-0.190
2020/01/31 18:07:30.7	356.980	-0.160	0.180	-0.160
2020/01/31 18:07:30.8	356.950	-0.160	0.220	-0.120
2020/01/31 18:07:30.9	356.910	-0.160	0.250	-0.080
2020/01/31 18:07:31.0	356.870	-0.150	0.290	-0.040
2020/01/31 18:07:31.1	356.840	-0.140	0.320	0.000
2020/01/31 18:07:31.2	356.800	-0.130	0.350	0.050
2020/01/31 18:07:31.3	356.750	-0.120	0.380	0.100
2020/01/31 18:07:31.4	356.710	-0.100	0.410	0.150
2020/01/31 18:07:31.5	356.660	-0.080	0.430	0.210
2020/01/31 18:07:31.6	356.610	-0.060	0.460	0.260
2020/01/31 18:07:31.7	356.560	-0.040	0.480	0.320
2020/01/31 18:07:31.8	356.510	-0.020	0.510	0.380
2020/01/31 18:07:31.9	356.450	0.000	0.530	0.430
2020/01/31 18:07:32.0	356.400	0.030	0.550	0.490
2020/01/31 18:07:32.1	356.340	0.050	0.570	0.540
2020/01/31 18:07:32.2	356.290	0.080	0.580	0.600
2020/01/31 18:07:32.3	356.230	0.100	0.590	0.650
2020/01/31 18:07:32.4	356.180	0.120	0.600	0.700
2020/01/31 18:07:32.5	356.120	0.140	0.610	0.740
2020/01/31 18:07:32.6	356.070	0.160	0.610	0.790
2020/01/31 18:07:32.7	356.020	0.180	0.600	0.830
2020/01/31 18:07:32.8	355.970	0.200	0.590	0.860
2020/01/31 18:07:32.9	355.940	0.210	0.580	0.890
2020/01/31 18:07:33.0	355.900	0.230	0.550	0.920
2020/01/31 18:07:33.1	355.870	0.240	0.530	0.930
2020/01/31 18:07:33.2	355.830	0.250	0.490	0.950
2020/01/31 18:07:33.3	355.810	0.260	0.450	0.950
2020/01/31 18:07:33.4	355.780	0.260	0.400	0.950
2020/01/31 18:07:33.5	355.760	0.270	0.340	0.940
2020/01/31 18:07:33.6	355.750	0.270	0.280	0.930
2020/01/31 18:07:33.7	355.740	0.270	0.210	0.900
2020/01/31 18:07:33.8	355.740	0.270	0.140	0.870
2020/01/31 18:07:33.9	355.750	0.260	0.060	0.830
2020/01/31 18:07:34.0	355.760	0.260	-0.030	0.780
2020/01/31 18:07:34.1	355.780	0.250	-0.120	0.730
2020/01/31 18:07:34.2	355.800	0.240	-0.210	0.660
2020/01/31 18:07:34.3	355.820	0.230	-0.310	0.600
2020/01/31 18:07:34.4	355.860	0.220	-0.410	0.520
2020/01/31 18:07:34.5	355.890	0.210	-0.510	0.440
2020/01/31 18:07:34.6	355.930	0.200	-0.620	0.350
2020/01/31 18:07:34.7	355.970	0.190	-0.720	0.270
2020/01/31 18:07:34.8	356.020	0.180	-0.820	0.170
2020/01/31 18:07:34.9	356.080	0.160	-0.920	0.070
2020/01/31 18:07:35.0	356.130	0.150	-1.010	-0.020
2020/01/31 18:07:35.1	356.180	0.140	-1.100	-0.120
2020/01/31 18:07:35.2	356.240	0.120	-1.190	-0.210
2020/01/31 18:07:35.3	356.290	0.110	-1.270	-0.310
2020/01/31 18:07:35.4	356.350	0.090	-1.340	-0.400
2020/01/31 18:07:35.5	356.400	0.080	-1.400	-0.490
2020/01/31 18:07:35.6	356.460	0.060	-1.460	-0.580
2020/01/31 18:07:35.7	356.510	0.050	-1.500	-0.660
2020/01/31 18:07:35.8	356.560	0.030	-1.540	-0.740
2020/01/31 18:07:35.9	356.610	0.010	-1.570	-0.820
2020/01/31 18:07:36.0	356.650	-0.000	-1.580	-0.890
2020/01/31 18:07:36.1	356.700	-0.020	-1.590	-0.960
2020/01/31 18:07:36.2	356.740	-0.040	-1.580	-1.020
2020/01/31 18:07:36.3	356.790	-0.050	-1.570	-1.080
2020/01/31 18:07:36.4	356.820	-0.070	-1.550	-1.130
2020/01/31 18:07:36.5	356.860	-0.090	-1.520	-1.180
2020/01/31 18:07:36.6	356.890	-0.110	-1.480	-1.220
2020/01/31 18:07:36.7	356.920	-0.130	-1.430	-1.250
2020/01/31 18:07:36.8	356.940	-0.150	-1.370	-1.280
2020/01/31 18:07:36.9	356.960	-0.170	-1.310	-1.300
2020/01/31 18:07:37.0	356.970	-0.190	-1.240	-1.310
2020/01/31 18:07:37.1	356.990	-0.210	-1.170	-1.310
2020/01/31 18:07:37.2	356.990	-0.220	-1.080	-1.310
2020/01/31 18:07:37.3	357.000	-0.240	-1.000	-1.300
2020/01/31 18:07:37.4	357.000	-0.260	-0.910	-1.290
2020/01/31 18:07:37.5	356.990	-0.270	-0.820	-1.270
2020/01/31 18:07:37.6	356.990	-0.290	-0.720	-1.240
2020/01/31 18:07:37.7	356.980	-0.300	-0.620	-1.200
2020/01/31 18:07:37.8	356.970	-0.320	-0.520	-1.160
2020/01/31 18:07:37.9	356.960	-0.330	-0.430	-1.120
2020/01/31 18:07:38.0	356.940	-0.340	-0.330	-1.070
2020/01/31 18:07:38.1	356.920	-0.350	-0.230	-1.020
2020/01/31 18:07:38.2	356.900	-0.350	-0.130	-0.960
2020/01/31 18:07:38.3	356.880	-0.360	-0.030	-0.900
2020/01/31 18:07:38.4	356.860	-0.360	0.060	-0.830
2020/01/31 18:07:38.5	356.830	-0.360	0.150	-0.760
2020/01/31 18:07:38.6	356.810	-0.360	0.240	-0.700
2020/01/31 18:07:38.7	356.780	-0.350	0.320	-0.620
2020/01/31 18:07:38.8	356.750	-0.350	0.400	-0.550
2020/01/31 18:07:38.9	356.710	-0.340	0.480	-0.480
2020/01/31 18:07:39.0	356.680	-0.330	0.550	-0.400
2020/01/31 18:07:39.1	356.650	-0.310	0.620	-0.330
2020/01/31 18:07:39.2	356.620	-0.300	0.680	-0.260
2020/01/31 18:07:39.3	356.590	-0.280	0.730	-0.190
2020/01/31 18:07:39.4	356.560	-0.260	0.780	-0.120
2020/01/31 18:07:39.5	356.530	-0.240	0.820	-0.060
2020/01/31 18:07:39.6	356.500	-0.220	0.850	0.010
2020/01/31 18:07:39.7	356.470	-0.190	0.880	0.070
2020/01/31 18:07:39.8	356.440	-0.170	0.910	0.120
2020/01/31 18:07:39.9	356.420	-0.150	0.920	0.180
2020/01/31 18:07:40.0	356.390	-0.120	0.930	0.230
2020/01/31 18:07:40.1	356.360	-0.100	0.940	0.270
2020/01/31 18:07:40.2	356.330	-0.080	0.930	0.320
2020/01/31 18:07:40.3	356.300	-0.050	0.930	0.360
2020/01/31 18:07:40.4	356.270	-0.030	0.920	0.410
2020/01/31 18:07:40.5	356.240	-0.010	0.900	0.450
2020/01/31 18:07:40.6	356.210	0.010	0.880	0.490
2020/01/31 18:07:40.7	356.180	0.030	0.850	0.530
2020/01/31 18:07:40.8	356.150	0.050	0.810	0.560
2020/01/31 18:07:40.9	356.120	0.060	0.780	0.600
2020/01/31 18:07:41.0	356.100	0.080	0.740	0.640
2020/01/31 18:07:41.1	356.070	0.090	0.690	0.670
2020/01/31 18:07:41.2	356.040	0.110	0.650	0.700
2020/01/31 18:07:41.3	356.020	0.120	0.590	0.730
2020/01/31 18:07:41.4	355.990	0.130	0.540	0.760
2020/01/31 18:07:41.5	355.970	0.140	0.480	0.790
2020/01/31 18:07:41.6	355.950	0.140	0.410	0.810
2020/01/31 18:07:41.7	355.930	0.150	0.350	0.830
2020/01/31 18:07:41.8	355.910	0.160	0.280	0.850
2020/01/31 18:07:41.9	355.870	0.160	0.200	0.870
2020/01/31 18:07:42.0	355.860	0.170	0.130	0.880
2020/01/31 18:07:42.1	355.850	0.180	0.050	0.890
2020/01/31 18:07:42.2	355.840	0.180	-0.030	0.890
2020/01/31 18:07:42.3	355.830	0.190	-0.110	0.890
2020/01/31 18:07:42.4	355.820	0.200	-0.190	0.890
2020/01/31 18:07:42.5	355.820	0.210	-0.280	0.880
2020/01/31 18:07:42.6	355.810	0.220	-0.370	0.870
2020/01/31 18:07:42.7	355.810	0.230	-0.450	0.860
2020/01/31 18:07:42.8	355.810	0.240	-0.540	0.850
2020/01/31 18:07:42.9	355.810	0.260	-0.630	0.830
2020/01/31 18:07:43.0	355.820	0.270	-0.720	0.810
2020/01/31 18:07:43.1	355.820	0.290	-0.800	0.790
2020/01/31 18:07:43.2	355.830	0.310	-0.890	0.770
2020/01/31 18:07:43.3	355.840	0.330	-0.970	0.750
2020/01/31 18:07:43.4	355.850	0.360	-1.050	0.730
2020/01/31 18:07:43.5	355.860	0.380	-1.120	0.710
2020/01/31 18:07:43.6	355.880	0.400	-1.190	0.680
2020/01/31 18:07:43.7	355.890	0.430	-1.260	0.660
2020/01/31 18:07:43.8	355.910	0.450	-1.320	0.630
2020/01/31 18:07:43.9	355.920	0.480	-1.370	0.600
2020/01/31 18:07:44.0	355.940	0.500	-1.420	0.570
2020/01/31 18:07:44.1	355.960	0.520	-1.470	0.530
2020/01/31 18:07:44.2	355.990	0.540	-1.500	0.500
2020/01/31 18:07:44.3	356.010	0.560	-1.540	0.460
2020/01/31 18:07:44.4	356.040	0.580	-1.560	0.420
2020/01/31 18:07:44.5	356.070	0.590	-1.580	0.370
2020/01/31 18:07:44.6	356.100	0.610	-1.590	0.320
2020/01/31 18:07:44.7	356.140	0.610	-1.600	0.270
2020/01/31 18:07:44.8	356.170	0.620	-1.600	0.220
2020/01/31 18:07:44.9	356.220	0.620	-1.590	0.160
2020/01/31 18:07:45.0	356.260	0.610	-1.580	0.100
2020/01/31 18:07:45.1	356.300	0.610	-1.560	0.040
2020/01/31 18:07:45.2	356.340	0.590	-1.530	-0.030
2020/01/31 18:07:45.3	356.390	0.580	-1.500	-0.090
2020/01/31 18:07:45.4	356.440	0.560	-1.460	-0.160
2020/01/31 18:07:45.5	356.480	0.530	-1.410	-0.230
2020/01/31 18:07:45.6	356.530	0.500	-1.360	-0.290
2020/01/31 18:07:45.7	356.580	0.470	-1.310	-0.360
2020/01/31 18:07:45.8	356.620	0.430	-1.240	-0.420
2020/01/31 18:07:45.9	356.660	0.380	-1.170	-0.500
2020/01/31 18:07:46.0	356.710	0.330	-1.100	-0.560
2020/01/31 18:07:46.1	356.750	0.280	-1.020	-0.610
2020/01/31 18:07:46.2	356.780	0.230	-0.940	-0.670
2020/01/31 18:07:46.3	356.820	0.170	-0.850	-0.720
2020/01/31 18:07:46.4	356.850	0.100	-0.750	-0.770
2020/01/31 18:07:46.5	356.880	0.040	-0.660	-0.810
2020/01/31 18:07:46.6	356.900	-0.030	-0.560	-0.850
2020/01/31 18:07:46.7	356.920	-0.100	-0.450	-0.880
2020/01/31 18:07:46.8	356.940	-0.180	-0.350	-0.910
2020/01/31 18:07:46.9	356.970	-0.250	-0.240	-0.940
2020/01/31 18:07:47.0	356.980	-0.320	-0.130	-0.960
2020/01/31 18:07:47.1	356.980	-0.400	-0.020	-0.970
2020/01/31 18:07:47.2	356.980	-0.470	0.090	-0.980
2020/01/31 18:07:47.3	356.970	-0.550	0.200	-0.990
2020/01/31 18:07:47.4	356.970	-0.620	0.310	-0.990
2020/01/31 18:07:47.5	356.950	-0.690	0.420	-0.980
2020/01/31 18:07:47.6	356.940	-0.750	0.520	-0.970
2020/01/31 18:07:47.7	356.910	-0.820	0.620	-0.960
2020/01/31 18:07:47.8	356.890	-0.880	0.730	-0.940
2020/01/31 18:07:47.9	356.840	-0.930	0.820	-0.920
2020/01/31 18:07:48.0	356.810	-0.980	0.910	-0.900
2020/01/31 18:07:48.1	356.770	-1.030	1.000	-0.860
2020/01/31 18:07:48.2	356.730	-1.070	1.080	-0.830
2020/01/31 18:07:48.3	356.680	-1.110	1.160	-0.790
2020/01/31 18:07:48.4	356.640	-1.130	1.230	-0.740
2020/01/31 18:07:48.5	356.590	-1.160	1.290	-0.700
2020/01/31 18:07:48.6	356.540	-1.170	1.350	-0.650
2020/01/31 18:07:48.7	356.480	-1.180	1.400	-0.590
2020/01/31 18:07:48.8	356.430	-1.180	1.430	-0.540
2020/01/31 18:07:48.9	356.390	-1.180	1.470	-0.480
2020/01/31 18:07:49.0	356.330	-1.170	1.480	-0.420
2020/01/31 18:07:49.1	356.270	-1.150	1.490	-0.370
2020/01/31 18:07:49.2	356.220	-1.120	1.490	-0.310
2020/01/31 18:07:49.3	356.160	-1.090	1.470	-0.250
2020/01/31 18:07:49.4	356.110	-1.050	1.450	-0.190
2020/01/31 18:07:49.5	356.060	-1.000	1.410	-0.130
2020/01/31 18:07:49.6	356.010	-0.940	1.370	-0.080
2020/01/31 18:07:49.7	355.960	-0.880	1.310	-0.030
2020/01/31 18:07:49.8	355.920	-0.820	1.240	0.030
2020/01/31 18:07:49.9	355.890	-0.750	1.160	0.080
2020/01/31 18:07:50.0	355.850	-0.670	1.070	0.120
2020/01/31 18:07:50.1	355.810	-0.590	0.970	0.170
2020/01/31 18:07:50.2	355.770	-0.500	0.870	0.210
2020/01/31 18:07:50.3	355.740	-0.410	0.750	0.250
2020/01/31 18:07:50.4	355.710	-0.320	0.640	0.290
2020/01/31 18:07:50.5	355.690	-0.230	0.510	0.320
2020/01/31 18:07:50.6	355.660	-0.130	0.380	0.350
2020/01/31 18:07:50.7	355.640	-0.030	0.250	0.380
2020/01/31 18:07:50.8	355.620	0.060	0.110	0.410
2020/01/31 18:07:50.9	355.610	0.160	-0.030	0.430
2020/01/31 18:07:51.0	355.590	0.260	-0.160	0.450
2020/01/31 18:07:51.1	355.580	0.350	-0.300	0.470
2020/01/31 18:07:51.2	355.580	0.440	-0.440	0.480
2020/01/31 18:07:51.3	355.580	0.530	-0.570	0.490
2020/01/31 18:07:51.4	355.580	0.620	-0.700	0.500
2020/01/31 18:07:51.5	355.580	0.700	-0.830	0.510
2020/01/31 18:07:51.6	355.590	0.780	-0.950	0.520
2020/01/31 18:07:51.7	355.600	0.850	-1.060	0.520
2020/01/31 18:07:51.8	355.610	0.910	-1.170	0.520
2020/01/31 18:07:51.9	355.620	0.970	-1.260	0.510
2020/01/31 18:07:52.0	355.640	1.020	-1.360	0.510
2020/01/31 18:07:52.1	355.660	1.070	-1.440	0.500
2020/01/31 18:07:52.2	355.690	1.110	-1.510	0.490
2020/01/31 18:07:52.3	355.720	1.140	-1.570	0.480
2020/01/31 18:07:52.4	355.750	1.160	-1.620	0.470
2020/01/31 18:07:52.5	355.780	1.180	-1.660	0.450
2020/01/31 18:07:52.6	355.810	1.180	-1.700	0.440
2020/01/31 18:07:52.7	355.840	1.180	-1.710	0.420
2020/01/31 18:07:52.8	355.870	1.170	-1.720	0.400
2020/01/31 18:07:52.9	355.910	1.150	-1.730	0.380
2020/01/31 18:07:53.0	355.940	1.120	-1.710	0.360
2020/01/31 18:07:53.1	355.970	1.090	-1.690	0.340
2020/01/31 18:07:53.2	356.000	1.050	-1.660	0.310
2020/01/31 18:07:53.3	356.030	1.000	-1.610	0.290
2020/01/31 18:07:53.4	356.060	0.940	-1.560	0.260
2020/01/31 18:07:53.5	356.080	0.880	-1.500	0.230
2020/01/31 18:07:53.6	356.100	0.810	-1.430	0.200
2020/01/31 18:07:53.7	356.120	0.730	-1.360	0.170
2020/01/31 18:07:53.8	356.140	0.660	-1.280	0.140
2020/01/31 18:07:53.9	356.160	0.570	-1.190	0.100
2020/01/31 18:07:54.0	356.170	0.490	-1.100	0.070
2020/01/31 18:07:54.1	356.180	0.400	-1.000	0.040
2020/01/31 18:07:54.2	356.200	0.310	-0.910	0.010
2020/01/31 18:07:54.3	356.210	0.220	-0.810	-0.020
2020/01/31 18:07:54.4	356.220	0.130	-0.710	-0.050
2020/01/31 18:07:54.5	356.220	0.050	-0.620	-0.090
2020/01/31 18:07:54.6	356.230	-0.040	-0.530	-0.120
2020/01/31 18:07:54.7	356.240	-0.120	-0.440	-0.150
2020/01/31 18:07:54.8	356.250	-0.200	-0.350	-0.190
2020/01/31 18:07:54.9	356.240	-0.280	-0.270	-0.220
2020/01/31 18:07:55.0	356.250	-0.350	-0.200	-0.260
2020/01/31 18:07:55.1	356.250	-0.420	-0.130	-0.290
2020/01/31 18:07:55.2	356.260	-0.470	-0.070	-0.330
2020/01/31 18:07:55.3	356.270	-0.530	-0.020	-0.360
2020/01/31 18:07:55.4	356.280	-0.570	0.030	-0.390
2020/01/31 18:07:55.5	356.290	-0.610	0.060	-0.430
2020/01/31 18:07:55.6	356.290	-0.650	0.090	-0.460
2020/01/31 18:07:55.7	356.300	-0.670	0.110	-0.490
2020/01/31 18:07:55.8	356.310	-0.690	0.120	-0.520
2020/01/31 18:07:55.9	356.300	-0.700	0.120	-0.560
2020/01/31 18:07:56.0	356.310	-0.700	0.120	-0.590
2020/01/31 18:07:56.1	356.320	-0.690	0.110	-0.620
2020/01/31 18:07:56.2	356.330	-0.680	0.090	-0.640
2020/01/31 18:07:56.3	356.330	-0.660	0.070	-0.670
2020/01/31 18:07:56.4	356.340	-0.630	0.050	-0.690
2020/01/31 18:07:56.5	356.350	-0.600	0.020	-0.710
2020/01/31 18:07:56.6	356.350	-0.570	-0.010	-0.720
2020/01/31 18:07:56.7	356.360	-0.520	-0.040	-0.740
2020/01/31 18:07:56.8	356.360	-0.480	-0.070	-0.750
2020/01/31 18:07:56.9	356.350	-0.430	-0.100	-0.760
2020/01/31 18:07:57.0	356.350	-0.380	-0.130	-0.760
2020/01/31 18:07:57.1	356.350	-0.320	-0.150	-0.760
2020/01/31 18:07:57.2	356.350	-0.260	-0.170	-0.750
2020/01/31 18:07:57.3	356.350	-0.200	-0.180	-0.730
2020/01/31 18:07:57.4	356.340	-0.150	-0.200	-0.710
2020/01/31 18:07:57.5	356.330	-0.090	-0.200	-0.680
2020/01/31 18:07:57.6	356.320	-0.030	-0.200	-0.640
2020/01/31 18:07:57.7	356.300	0.030	-0.190	-0.600
2020/01/31 18:07:57.8	356.280	0.090	-0.170	-0.540
2020/01/31 18:07:57.9	356.260	0.140	-0.150	-0.480
2020/01/31 18:07:58.0	356.240	0.190	-0.120	-0.420
2020/01/31 18:07:58.1	356.210	0.230	-0.090	-0.340
2020/01/31 18:07:58.2	356.180	0.280	-0.050	-0.270
2020/01/31 18:07:58.3	356.150	0.320	-0.000	-0.190
2020/01/31 18:07:58.4	356.110	0.350	0.050	-0.100
2020/01/31 18:07:58.5	356.080	0.380	0.100	-0.010
2020/01/31 18:07:58.6	356.040	0.400	0.160	0.080
2020/01/31 18:07:58.7	356.000	0.420	0.210	0.170
2020/01/31 18:07:58.8	355.960	0.430	0.270	0.260
2020/01/31 18:07:58.9	355.930	0.440	0.330	0.350
2020/01/31 18:07:59.0	355.890	0.450	0.390	0.440
2020/01/31 18:07:59.1	355.850	0.440	0.440	0.530
2020/01/31 18:07:59.2	355.810	0.440	0.490	0.610
2020/01/31 18:07:59.3	355.780	0.430	0.540	0.680
2020/01/31 18:07:59.4	355.740	0.410	0.580	0.750
2020/01/31 18:07:59.5	355.700	0.390	0.610	0.820
2020/01/31 18:07:59.6	355.670	0.370	0.640	0.870
2020/01/31 18:07:59.7	355.640	0.340	0.660	0.920
2020/01/31 18:07:59.8	355.620	0.310	0.670	0.960
2020/01/31 18:07:59.9	355.600	0.280	0.670	0.980
2020/01/31 18:08:00.0	355.580	0.240	0.660	1.000
2020/01/31 18:08:00.1	355.560	0.210	0.650	1.010
2020/01/31 18:08:00.2	355.540	0.170	0.620	1.010
2020/01/31 18:08:00.3	355.530	0.130	0.590	1.000
2020/01/31 18:08:00.4	355.520	0.090	0.550	0.980
2020/01/31 18:08:00.5	355.520	0.050	0.500	0.950
2020/01/31 18:08:00.6	355.520	0.010	0.440	0.910
2020/01/31 18:08:00.7	355.520	-0.040	0.380	0.870
2020/01/31 18:08:00.8	355.520	-0.070	0.310	0.810
2020/01/31 18:08:00.9	355.530	-0.110	0.230	0.760
2020/01/31 18:08:01.0	355.540	-0.150	0.150	0.690
2020/01/31 18:08:01.1	355.550	-0.180	0.060	0.630
2020/01/31 18:08:01.2	355.570	-0.220	-0.020	0.560
2020/01/31 18:08:01.3	355.590	-0.250	-0.110	0.480
2020/01/31 18:08:01.4	355.610	-0.280	-0.200	0.410
2020/01/31 18:08:01.5	355.630	-0.300	-0.290	0.330
2020/01/31 18:08:01.6	355.660	-0.330	-0.380	0.250
2020/01/31 18:08:01.7	355.690	-0.350	-0.460	0.180
2020/01/31 18:08:01.8	355.710	-0.370	-0.550	0.100
2020/01/31 18:08:01.9	355.740	-0.380	-0.620	0.020
2020/01/31 18:08:02.0	355.770	-0.400	-0.690	-0.050
2020/01/31 18:08:02.1	355.800	-0.410	-0.760	-0.120
2020/01/31 18:08:02.2	355.830	-0.420	-0.820	-0.190
2020/01/31 18:08:02.3	355.860	-0.430	-0.870	-0.260
2020/01/31 18:08:02.4	355.890	-0.430	-0.920	-0.320
2020/01/31 18:08:02.5	355.920	-0.440	-0.950	-0.380
2020/01/31 18:08:02.6	355.950	-0.440	-0.980	-0.430
2020/01/31 18:08:02.7	355.980	-0.440	-1.000	-0.480
2020/01/31 18:08:02.8	356.010	-0.430	-1.020	-0.530
2020/01/31 18:08:02.9	356.040	-0.430	-1.020	-0.580
2020/01/31 18:08:03.0	356.070	-0.420	-1.020	-0.620
2020/01/31 18:08:03.1	356.100	-0.420	-1.010	-0.660
2020/01/31 18:08:03.2	356.120	-0.410	-0.990	-0.690
2020/01/31 18:08:03.3	356.150	-0.400	-0.970	-0.720
2020/01/31 18:08:03.4	356.170	-0.390	-0.950	-0.740
2020/01/31 18:08:03.5	356.200	-0.380	-0.910	-0.760
2020/01/31 18:08:03.6	356.220	-0.360	-0.880	-0.770
2020/01/31 18:08:03.7	356.250	-0.350	-0.840	-0.780
2020/01/31 18:08:03.8	356.270	-0.330	-0.790	-0.790
2020/01/31 18:08:03.9	356.280	-0.320	-0.750	-0.790
2020/01/31 18:08:04.0	356.300	-0.300	-0.700	-0.780
2020/01/31 18:08:04.1	356.310	-0.290	-0.640	-0.770
2020/01/31 18:08:04.2	356.330	-0.270	-0.590	-0.760
2020/01/31 18:08:04.3	356.340	-0.250	-0.540	-0.740
2020/01/31 18:08:04.4	356.350	-0.230	-0.480	-0.710
2020/01/31 18:08:04.5	356.360	-0.210	-0.430	-0.680
2020/01/31 18:08:04.6	356.370	-0.190	-0.370	-0.650
2020/01/31 18:08:04.7	356.370	-0.180	-0.320	-0.620
2020/01/31 18:08:04.8	356.380	-0.160	-0.270	-0.580
2020/01/31 18:08:04.9	356.380	-0.140	-0.220	-0.540
2020/01/31 18:08:05.0	356.380	-0.120	-0.170	-0.500
2020/01/31 18:08:05.1	356.370	-0.100	-0.120	-0.460
2020/01/31 18:08:05.2	356.370	-0.080	-0.080	-0.410
2020/01/31 18:08:05.3	356.360	-0.060	-0.040	-0.370
2020/01/31 18:08:05.4	356.350	-0.040	-0.010	-0.330
2020/01/31 18:08:05.5	356.350	-0.020	0.020	-0.290
2020/01/31 18:08:05.6	356.340	-0.000	0.040	-0.250
2020/01/31 18:08:05.7	356.330	0.020	0.060	-0.210
2020/01/31 18:08:05.8	356.320	0.040	0.080	-0.170
2020/01/31 18:08:05.9	356.300	0.060	0.080	-0.130
2020/01/31 18:08:06.0	356.290	0.080	0.090	-0.090
2020/01/31 18:08:06.1	356.280	0.100	0.090	-0.050
2020/01/31 18:08:06.2	356.270	0.130	0.080	-0.020
2020/01/31 18:08:06.3	356.260	0.150	0.060	0.020
2020/01/31 18:08:06.4	356.260	0.180	0.040	0.050
2020/01/31 18:08:06.5	356.250	0.200	0.020	0.080
2020/01/31 18:08:06.6	356.240	0.230	-0.010	0.120
2020/01/31 18:08:06.7	356.240	0.260	-0.050	0.150
2020/01/31 18:08:06.8	356.230	0.280	-0.090	0.180
2020/01/31 18:08:06.9	356.200	0.310	-0.130	0.210
2020/01/31 18:08:07.0	356.200	0.340	-0.180	0.250
2020/01/31 18:08:07.1	356.190	0.370	-0.220	0.280
2020/01/31 18:08:07.2	356.180	0.390	-0.280	0.310
2020/01/31 18:08:07.3	356.170	0.420	-0.330	0.340
2020/01/31 18:08:07.4	356.160	0.450	-0.380	0.370
2020/01/31 18:08:07.5	356.150	0.470	-0.430	0.400
2020/01/31 18:08:07.6	356.140	0.500	-0.490	0.430
2020/01/31 18:08:07.7	356.120	0.520	-0.540	0.450
2020/01/31 18:08:07.8	356.110	0.540	-0.590	0.470
2020/01/31 18:08:07.9	356.100	0.560	-0.640	0.480
2020/01/31 18:08:08.0	356.090	0.580	-0.690	0.490
2020/01/31 18:08:08.1	356.080	0.590	-0.730	0.500
2020/01/31 18:08:08.2	356.070	0.600	-0.770	0.500
2020/01/31 18:08:08.3	356.070	0.610	-0.810	0.500
2020/01/31 18:08:08.4	356.060	0.620	-0.850	0.490
2020/01/31 18:08:08.5	356.060	0.630	-0.880	0.480
2020/01/31 18:08:08.6	356.060	0.630	-0.900	0.460
2020/01/31 18:08:08.7	356.060	0.630	-0.930	0.440
2020/01/31 18:08:08.8	356.070	0.630	-0.950	0.420
2020/01/31 18:08:08.9	356.070	0.620	-0.960	0.380
2020/01/31 18:08:09.0	356.080	0.610	-0.970	0.350
2020/01/31 18:08:09.1	356.090	0.600	-0.970	0.320
2020/01/31 18:08:09.2	356.110	0.590	-0.970	0.290
2020/01/31 18:08:09.3	356.120	0.580	-0.960	0.260
2020/01/31 18:08:09.4	356.140	0.560	-0.950	0.220
2020/01/31 18:08:09.5	356.160	0.540	-0.930	0.190
2020/01/31 18:08:09.6	356.180	0.520	-0.910	0.150
2020/01/31 18:08:09.7	356.210	0.490	-0.880	0.120
2020/01/31 18:08:09.8	356.230	0.470	-0.850	0.090
2020/01/31 18:08:09.9	356.250	0.440	-0.810	0.050
2020/01/31 18:08:10.0	356.280	0.410	-0.770	0.020
2020/01/31 18:08:10.1	356.310	0.380	-0.720	-0.010
2020/01/31 18:08:10.2	356.340	0.350	-0.670	-0.040
2020/01/31 18:08:10.3	356.370	0.310	-0.610	-0.060
2020/01/31 18:08:10.4	356.400	0.280	-0.550	-0.090
2020/01/31 18:08:10.5	356.430	0.250	-0.480	-0.120
2020/01/31 18:08:10.6	356.460	0.210	-0.410	-0.140
2020/01/31 18:08:10.7	356.480	0.180	-0.340	-0.160
2020/01/31 18:08:10.8	356.510	0.140	-0.260	-0.180
2020/01/31 18:08:10.9	356.530	0.110	-0.190	-0.200
2020/01/31 18:08:11.0	356.550	0.070	-0.110	-0.220
2020/01/31 18:08:11.1	356.570	0.040	-0.030	-0.230
2020/01/31 18:08:11.2	356.580	0.000	0.060	-0.240
2020/01/31 18:08:11.3	356.590	-0.030	0.140	-0.250
2020/01/31 18:08:11.4	356.590	-0.070	0.220	-0.250
2020/01/31 18:08:11.5	356.590	-0.100	0.300	-0.250
2020/01/31 18:08:11.6	356.590	-0.130	0.380	-0.240
2020/01/31 18:08:11.7	356.590	-0.160	0.460	-0.230
2020/01/31 18:08:11.8	356.580	-0.190	0.530	-0.220
2020/01/31 18:08:11.9	356.580	-0.220	0.600	-0.210
2020/01/31 18:08:12.0	356.570	-0.250	0.670	-0.190
2020/01/31 18:08:12.1	356.550	-0.280	0.730	-0.170
2020/01/31 18:08:12.2	356.540	-0.300	0.780	-0.160
2020/01/31 18:08:12.3	356.520	-0.330	0.830	-0.140
2020/01/31 18:08:12.4	356.500	-0.350	0.870	-0.120
2020/01/31 18:08:12.5	356.490	-0.370	0.900	-0.100
2020/01/31 18:08:12.6	356.470	-0.390	0.930	-0.080
2020/01/31 18:08:12.7	356.450	-0.420	0.950	-0.060
2020/01/31 18:08:12.8	356.440	-0.430	0.960	-0.040
2020/01/31 18:08:12.9	356.420	-0.450	0.960	-0.020
2020/01/31 18:08:13.0	356.400	-0.470	0.950	-0.010
2020/01/31 18:08:13.1	356.390	-0.490	0.940	0.000
2020/01/31 18:08:13.2	356.370	-0.500	0.920	0.010
2020/01/31 18:08:13.3	356.360	-0.520	0.890	0.020
2020/01/31 18:08:13.4	356.340	-0.530	0.850	0.020
2020/01/31 18:08:13.5	356.330	-0.540	0.810	0.020
2020/01/31 18:08:13.6	356.320	-0.550	0.760	0.020
2020/01/31 18:08:13.7	356.310	-0.560	0.700	0.010
2020/01/31 18:08:13.8	356.300	-0.560	0.640	-0.000
2020/01/31 18:08:13.9	356.280	-0.570	0.570	-0.020
2020/01/31 18:08:14.0	356.270	-0.570	0.500	-0.050
2020/01/31 18:08:14.1	356.270	-0.570	0.430	-0.070
2020/01/31 18:08:14.2	356.260	-0.570	0.350	-0.100
2020/01/31 18:08:14.3	356.260	-0.570	0.260	-0.130
2020/01/31 18:08:14.4	356.260	-0.570	0.180	-0.170
2020/01/31 18:08:14.5	356.260	-0.560	0.100	-0.210
2020/01/31 18:08:14.6	356.260	-0.550	0.010	-0.240
2020/01/31 18:08:14.7	356.250	-0.540	-0.070	-0.280
2020/01/31 18:08:14.8	356.250	-0.520	-0.150	-0.310
2020/01/31 18:08:14.9	356.260	-0.510	-0.240	-0.350
2020/01/31 18:08:15.0	356.260	-0.490	-0.320	-0.380
2020/01/31 18:08:15.1	356.260	-0.460	-0.390	-0.410
2020/01/31 18:08:15.2	356.260	-0.440	-0.460	-0.430
2020/01/31 18:08:15.3	356.250	-0.410	-0.530	-0.450
2020/01/31 18:08:15.4	356.250	-0.390	-0.590	-0.470
2020/01/31 18:08:15.5	356.240	-0.360	-0.640	-0.480
2020/01/31 18:08:15.6	356.230	-0.320	-0.700	-0.480
2020/01/31 18:08:15.7	356.220	-0.290	-0.740	-0.490
2020/01/31 18:08:15.8	356.220	-0.250	-0.780	-0.480
2020/01/31 18:08:15.9	356.210	-0.220	-0.820	-0.480
2020/01/31 18:08:16.0	356.200	-0.180	-0.860	-0.470
2020/01/31 18:08:16.1	356.190	-0.140	-0.890	-0.460
2020/01/31 18:08:16.2	356.190	-0.100	-0.910	-0.450
2020/01/31 18:08:16.3	356.180	-0.060	-0.940	-0.430
2020/01/31 18:08:16.4	356.180	-0.020	-0.960	-0.410
2020/01/31 18:08:16.5	356.180	0.020	-0.980	-0.400
2020/01/31 18:08:16.6	356.180	0.070	-1.000	-0.380
2020/01/31 18:08:16.7	356.180	0.110	-1.010	-0.360
2020/01/31 18:08:16.8	356.190	0.150	-1.020	-0.330
2020/01/31 18:08:16.9	356.190	0.190	-1.030	-0.320
2020/01/31 18:08:17.0	356.200	0.230	-1.040	-0.290
2020/01/31 18:08:17.1	356.210	0.270	-1.050	-0.270
2020/01/31 18:08:17.2	356.220	0.310	-1.060	-0.250
2020/01/31 18:08:17.3	356.240	0.350	-1.060	-0.230
2020/01/31 18:08:17.4	356.260	0.380	-1.060	-0.210
2020/01/31 18:08:17.5	356.270	0.420	-1.070	-0.190
2020/01/31 18:08:17.6	356.290	0.450	-1.060	-0.170
2020/01/31 18:08:17.7	356.310	0.480	-1.060	-0.150
2020/01/31 18:08:17.8	356.330	0.500	-1.050	-0.130
2020/01/31 18:08:17.9	356.350	0.530	-1.040	-0.110
2020/01/31 18:08:18.0	356.370	0.550	-1.030	-0.090
2020/01/31 18:08:18.1	356.390	0.570	-1.010	-0.070
2020/01/31 18:08:18.2	356.410	0.590	-0.990	-0.040
2020/01/31 18:08:18.3	356.430	0.600	-0.960	-0.020
2020/01/31 18:08:18.4	356.450	0.610	-0.940	0.010
2020/01/31 18:08:18.5	356.470	0.610	-0.900	0.030
2020/01/31 18:08:18.6	356.490	0.610	-0.870	0.060
2020/01/31 18:08:18.7	356.510	0.610	-0.820	0.080
2020/01/31 18:08:18.8	356.530	0.610	-0.780	0.110
2020/01/31 18:08:18.9	356.540	0.600	-0.730	0.130
2020/01/31 18:08:19.0	356.560	0.590	-0.680	0.160
2020/01/31 18:08:19.1	356.580	0.570	-0.630	0.180
2020/01/31 18:08:19.2	356.600	0.550	-0.570	0.200
2020/01/31 18:08:19.3	356.620	0.530	-0.520	0.220
2020/01/31 18:08:19.4	356.630	0.500	-0.460	0.240
2020/01/31 18:08:19.5	356.650	0.470	-0.400	0.260
2020/01/31 18:08:19.6	356.670	0.440	-0.340	0.270
2020/01/31 18:08:19.7	356.690	0.400	-0.280	0.280
2020/01/31 18:08:19.8	356.710	0.360	-0.230	0.290
2020/01/31 18:08:19.9	356.700	0.320	-0.170	0.290
2020/01/31 18:08:20.0	356.720	0.280	-0.120	0.290
2020/01/31 18:08:20.1	356.740	0.230	-0.070	0.290
2020/01/31 18:08:20.2	356.760	0.180	-0.020	0.280
2020/01/31 18:08:20.3	356.780	0.130	0.020	0.280
2020/01/31 18:08:20.4	356.800	0.080	0.060	0.260
2020/01/31 18:08:20.5	356.830	0.030	0.100	0.250
2020/01/31 18:08:20.6	356.850	-0.030	0.130	0.230
2020/01/31 18:08:20.7	356.870	-0.080	0.160	0.200
2020/01/31 18:08:20.8	356.890	-0.130	0.180	0.180
2020/01/31 18:08:20.9	356.910	-0.180	0.200	0.140
2020/01/31 18:08:21.0	356.940	-0.230	0.210	0.110
2020/01/31 18:08:21.1	356.960	-0.280	0.220	0.070
2020/01/31 18:08:21.2	356.980	-0.330	0.230	0.030
2020/01/31 18:08:21.3	357.000	-0.380	0.230	-0.000
2020/01/31 18:08:21.4	357.030	-0.420	0.230	-0.050
2020/01/31 18:08:21.5	357.050	-0.460	0.220	-0.090
2020/01/31 18:08:21.6	357.070	-0.500	0.210	-0.140
2020/01/31 18:08:21.7	357.090	-0.530	0.200	-0.180
2020/01/31 18:08:21.8	357.110	-0.560	0.190	-0.220
2020/01/31 18:08:21.9	357.130	-0.580	0.180	-0.270
2020/01/31 18:08:22.0	357.140	-0.600	0.160	-0.310
2020/01/31 18:08:22.1	357.150	-0.620	0.140	-0.340
2020/01/31 18:08:22.2	357.160	-0.630	0.130	-0.380
2020/01/31 18:08:22.3	357.160	-0.640	0.110	-0.400
2020/01/31 18:08:22.4	357.160	-0.650	0.100	-0.430
2020/01/31 18:08:22.5	357.150	-0.650	0.090	-0.450
2020/01/31 18:08:22.6	357.140	-0.640	0.080	-0.460
2020/01/31 18:08:22.7	357.120	-0.630	0.080	-0.470
2020/01/31 18:08:22.8	357.100	-0.620	0.080	-0.470
2020/01/31 18:08:22.9	357.070	-0.600	0.070	-0.460
2020/01/31 18:08:23.0	357.040	-0.580	0.070	-0.450
2020/01/31 18:08:23.1	357.010	-0.550	0.080	-0.440
2020/01/31 18:08:23.2	356.980	-0.520	0.080	-0.420
2020/01/31 18:08:23.3	356.940	-0.490	0.090	-0.390
2020/01/31 18:08:23.4	356.900	-0.460	0.100	-0.370
2020/01/31 18:08:23.5	356.860	-0.420	0.110	-0.330
2020/01/31 18:08:23.6	356.820	-0.380	0.110	-0.300
2020/01/31 18:08:23.7	356.770	-0.340	0.120	-0.270
2020/01/31 18:08:23.8	356.730	-0.300	0.130	-0.230
2020/01/31 18:08:23.9	356.680	-0.250	0.140	-0.190
2020/01/31 18:08:24.0	356.640	-0.210	0.140	-0.160
2020/01/31 18:08:24.1	356.590	-0.160	0.150	-0.120
2020/01/31 18:08:24.2	356.550	-0.110	0.150	-0.090
2020/01/31 18:08:24.3	356.510	-0.060	0.140	-0.050
2020/01/31 18:08:24.4	356.470	-0.010	0.140	-0.020
2020/01/31 18:08:24.5	356.430	0.040	0.130	0.010
2020/01/31 18:08:24.6	356.400	0.090	0.120	0.040
2020/01/31 18:08:24.7	356.370	0.140	0.100	0.060
2020/01/31 18:08:24.8	356.340	0.180	0.080	0.080
2020/01/31 18:08:24.9	356.310	0.230	0.060	0.100
2020/01/31 18:08:25.0	356.290	0.280	0.030	0.120
2020/01/31 18:08:25.1	356.270	0.330	-0.000	0.130
2020/01/31 18:08:25.2	356.250	0.380	-0.030	0.140
2020/01/31 18:08:25.3	356.240	0.420	-0.070	0.150
2020/01/31 18:08:25.4	356.240	0.460	-0.110	0.160
2020/01/31 18:08:25.5	356.230	0.510	-0.150	0.160
2020/01/31 18:08:25.6	356.230	0.550	-0.200	0.160
2020/01/31 18:08:25.7	356.230	0.590	-0.240	0.160
2020/01/31 18:08:25.8	356.240	0.620	-0.290	0.160
2020/01/31 18:08:25.9	356.250	0.660	-0.340	0.150
2020/01/31 18:08:26.0	356.260	0.690	-0.390	0.150
2020/01/31 18:08:26.1	356.280	0.720	-0.440	0.140
2020/01/31 18:08:26.2	356.290	0.750	-0.490	0.140
2020/01/31 18:08:26.3	356.310	0.770	-0.530	0.130
2020/01/31 18:08:26.4	356.330	0.790	-0.580	0.120
2020/01/31 18:08:26.5	356.360	0.810	-0.620	0.110
2020/01/31 18:08:26.6	356.380	0.830	-0.660	0.100
2020/01/31 18:08:26.7	356.410	0.840	-0.700	0.090
2020/01/31 18:08:26.8	356.430	0.840	-0.740	0.080
2020/01/31 18:08:26.9	356.470	0.850	-0.770	0.070
2020/01/31 18:08:27.0	356.500	0.850	-0.800	0.060
2020/01/31 18:08:27.1	356.530	0.840	-0.820	0.050
2020/01/31 18:08:27.2	356.550	0.830	-0.850	0.030
2020/01/31 18:08:27.3	356.580	0.820	-0.860	0.020
2020/01/31 18:08:27.4	356.610	0.800	-0.880	0.000
2020/01/31 18:08:27.5	356.630	0.770	-0.890	-0.020
2020/01/31 18:08:27.6	356.650	0.750	-0.890	-0.040
2020/01/31 18:08:27.7	356.670	0.710	-0.890	-0.060
2020/01/31 18:08:27.8	356.690	0.680	-0.880	-0.080
2020/01/31 18:08:27.9	356.710	0.630	-0.870	-0.100
2020/01/31 18:08:28.0	356.720	0.590	-0.860	-0.130
2020/01/31 18:08:28.1	356.720	0.540	-0.830	-0.150
2020/01/31 18:08:28.2	356.730	0.490	-0.810	-0.170
2020/01/31 18:08:28.3	356.730	0.430	-0.780	-0.200
2020/01/31 18:08:28.4	356.730	0.370	-0.740	-0.230
2020/01/31 18:08:28.5	356.720	0.310	-0.710	-0.250
2020/01/31 18:08:28.6	356.720	0.240	-0.660	-0.280
2020/01/31 18:08:28.7	356.710	0.180	-0.620	-0.310
2020/01/31 18:08:28.8	356.700	0.110	-0.570	-0.340
2020/01/31 18:08:28.9	356.690	0.040	-0.520	-0.380
2020/01/31 18:08:29.0	356.680	-0.030	-0.470	-0.400
2020/01/31 18:08:29.1	356.660	-0.100	-0.420	-0.430
2020/01/31 18:08:29.2	356.650	-0.160	-0.370	-0.460
2020/01/31 18:08:29.3	356.630	-0.230	-0.320	-0.490
2020/01/31 18:08:29.4	356.620	-0.300	-0.260	-0.510
2020/01/31 18:08:29.5	356.600	-0.360	-0.210	-0.530
2020/01/31 18:08:29.6	356.590	-0.420	-0.170	-0.560
2020/01/31 18:08:29.7	356.580	-0.480	-0.120	-0.580
2020/01/31 18:08:29.8	356.570	-0.530	-0.070	-0.600
2020/01/31 18:08:29.9	356.560	-0.580	-0.030	-0.620
2020/01/31 18:08:30.0	356.550	-0.630	0.010	-0.640
2020/01/31 18:08:30.1	356.540	-0.670	0.040	-0.660
2020/01/31 18:08:30.2	356.530	-0.710	0.070	-0.670
2020/01/31 18:08:30.3	356.530	-0.740	0.100	-0.690
2020/01/31 18:08:30.4	356.530	-0.760	0.120	-0.710
2020/01/31 18:08:30.5	356.520	-0.790	0.140	-0.720
2020/01/31 18:08:30.6	356.520	-0.800	0.150	-0.730
2020/01/31 18:08:30.7	356.520	-0.810	0.160	-0.740
2020/01/31 18:08:30.8	356.520	-0.810	0.160	-0.750
2020/01/31 18:08:30.9	356.520	-0.810	0.160	-0.770
2020/01/31 18:08:31.0	356.530	-0.810	0.160	-0.780
2020/01/31 18:08:31.1	356.530	-0.800	0.140	-0.790
2020/01/31 18:08:31.2	356.540	-0.780	0.130	-0.800
2020/01/31 18:08:31.3	356.550	-0.760	0.110	-0.810
2020/01/31 18:08:31.4	356.560	-0.730	0.080	-0.820
2020/01/31 18:08:31.5	356.570	-0.710	0.060	-0.820
2020/01/31 18:08:31.6	356.590	-0.670	0.030	-0.830
2020/01/31 18:08:31.7	356.600	-0.640	-0.010	-0.840
2020/01/31 18:08:31.8	356.620	-0.600	-0.040	-0.850
2020/01/31 18:08:31.9	356.640	-0.560	-0.080	-0.860
2020/01/31 18:08:32.0	356.660	-0.520	-0.110	-0.860
2020/01/31 18:08:32.1	356.680	-0.480	-0.150	-0.870
2020/01/31 18:08:32.2	356.700	-0.440	-0.190	-0.870
2020/01/31 18:08:32.3	356.720	-0.390	-0.230	-0.870
2020/01/31 18:08:32.4	356.750	-0.350	-0.260	-0.870
2020/01/31 18:08:32.5	356.770	-0.310	-0.300	-0.870
2020/01/31 18:08:32.6	356.790	-0.270	-0.330	-0.870
2020/01/31 18:08:32.7	356.810	-0.230	-0.360	-0.860
2020/01/31 18:08:32.8	356.820	-0.200	-0.390	-0.850
2020/01/31 18:08:32.9	356.860	-0.160	-0.420	-0.840
2020/01/31 18:08:33.0	356.880	-0.140	-0.440	-0.820
2020/01/31 18:08:33.1	356.890	-0.110	-0.460	-0.800
2020/01/31 18:08:33.2	356.910	-0.080	-0.470	-0.780
2020/01/31 18:08:33.3	356.920	-0.060	-0.490	-0.760
2020/01/31 18:08:33.4	356.930	-0.050	-0.490	-0.730
2020/01/31 18:08:33.5	356.940	-0.040	-0.490	-0.700
2020/01/31 18:08:33.6	356.950	-0.030	-0.490	-0.670
2020/01/31 18:08:33.7	356.960	-0.020	-0.490	-0.630
2020/01/31 18:08:33.8	356.970	-0.020	-0.480	-0.600
2020/01/31 18:08:33.9	356.970	-0.020	-0.460	-0.560
2020/01/31 18:08:34.0	356.970	-0.020	-0.440	-0.520
2020/01/31 18:08:34.1	356.980	-0.030	-0.420	-0.480
2020/01/31 18:08:34.2	356.980	-0.040	-0.400	-0.440
2020/01/31 18:08:34.3	356.980	-0.050	-0.370	-0.400
2020/01/31 18:08:34.4	356.980	-0.060	-0.340	-0.360
2020/01/31 18:08:34.5	356.980	-0.070	-0.310	-0.320
2020/01/31 18:08:34.6	356.970	-0.090	-0.280	-0.270
2020/01/31 18:08:34.7	356.970	-0.110	-0.240	-0.230
2020/01/31 18:08:34.8	356.960	-0.120	-0.210	-0.180
2020/01/31 18:08:34.9	356.950	-0.140	-0.170	-0.140
2020/01/31 18:08:35.0	356.940	-0.150	-0.130	-0.100
2020/01/31 18:08:35.1	356.930	-0.160	-0.090	-0.050
2020/01/31 18:08:35.2	356.910	-0.170	-0.050	0.000
2020/01/31 18:08:35.3	356.890	-0.180	-0.010	0.050
2020/01/31 18:08:35.4	356.860	-0.190	0.030	0.100
2020/01/31 18:08:35.5	356.840	-0.190	0.060	0.160
2020/01/31 18:08:35.6	356.810	-0.190	0.100	0.210
2020/01/31 18:08:35.7	356.780	-0.190	0.130	0.270
2020/01/31 18:08:35.8	356.740	-0.180	0.160	0.320
2020/01/31 18:08:35.9	356.710	-0.170	0.190	0.380
2020/01/31 18:08:36.0	356.670	-0.160	0.220	0.430
2020/01/31 18:08:36.1	356.630	-0.140	0.240	0.490
2020/01/31 18:08:36.2	356.590	-0.120	0.260	0.540
2020/01/31 18:08:36.3	356.540	-0.100	0.270	0.590
2020/01/31 18:08:36.4	356.500	-0.070	0.280	0.640
2020/01/31 18:08:36.5	356.450	-0.040	0.290	0.690
2020/01/31 18:08:36.6	356.410	-0.010	0.280	0.730
2020/01/31 18:08:36.7	356.370	0.030	0.280	0.770
2020/01/31 18:08:36.8	356.330	0.070	0.260	0.800
2020/01/31 18:08:36.9	356.270	0.110	0.240	0.830
2020/01/31 18:08:37.0	356.230	0.150	0.220	0.860
2020/01/31 18:08:37.1	356.200	0.200	0.190	0.880
2020/01/31 18:08:37.2	356.160	0.240	0.150	0.900
2020/01/31 18:08:37.3	356.130	0.290	0.110	0.920
2020/01/31 18:08:37.4	356.090	0.340	0.070	0.920
2020/01/31 18:08:37.5	356.060	0.390	0.020	0.930
2020/01/31 18:08:37.6	356.040	0.440	-0.040	0.930
2020/01/31 18:08:37.7	356.010	0.490	-0.090	0.930
2020/01/31 18:08:37.8	355.990	0.540	-0.150	0.930
2020/01/31 18:08:37.9	355.980	0.590	-0.210	0.910
2020/01/31 18:08:38.0	355.960	0.630	-0.270	0.900
2020/01/31 18:08:38.1	355.940	0.680	-0.340	0.890
2020/01/31 18:08:38.2	355.930	0.720	-0.400	0.870
2020/01/31 18:08:38.3	355.920	0.760	-0.460	0.860
2020/01/31 18:08:38.4	355.920	0.800	-0.510	0.840
2020/01/31 18:08:38.5	355.910	0.830	-0.570	0.810
2020/01/31 18:08:38.6	355.910	0.860	-0.620	0.790
2020/01/31 18:08:38.7	355.910	0.890	-0.660	0.760
2020/01/31 18:08:38.8	355.910	0.910	-0.700	0.740
2020/01/31 18:08:38.9	355.930	0.930	-0.740	0.700
2020/01/31 18:08:39.0	355.940	0.940	-0.770	0.670
2020/01/31 18:08:39.1	355.950	0.940	-0.790	0.640
2020/01/31 18:08:39.2	355.960	0.950	-0.810	0.600
2020/01/31 18:08:39.3	355.970	0.940	-0.820	0.570
2020/01/31 18:08:39.4	355.990	0.930	-0.820	0.530
2020/01/31 18:08:39.5	356.000	0.920	-0.820	0.490
2020/01/31 18:08:39.6	356.020	0.900	-0.810	0.460
2020/01/31 18:08:39.7	356.040	0.870	-0.800	0.420
2020/01/31 18:08:39.8	356.060	0.840	-0.780	0.380
2020/01/31 18:08:39.9	356.080	0.810	-0.760	0.340
2020/01/31 18:08:40.0	356.100	0.770	-0.730	0.300
2020/01/31 18:08:40.1	356.120	0.730	-0.700	0.260
2020/01/31 18:08:40.2	356.150	0.680	-0.670	0.210
2020/01/31 18:08:40.3	356.170	0.630	-0.630	0.170
2020/01/31 18:08:40.4	356.200	0.570	-0.590	0.130
2020/01/31 18:08:40.5	356.230	0.510	-0.550	0.090
2020/01/31 18:08:40.6	356.260	0.450	-0.510	0.040
2020/01/31 18:08:40.7	356.290	0.380	-0.480	-0.000
2020/01/31 18:08:40.8	356.320	0.320	-0.440	-0.050
2020/01/31 18:08:40.9	356.340	0.250	-0.400	-0.100
2020/01/31 18:08:41.0	356.380	0.180	-0.370	-0.150
2020/01/31 18:08:41.1	356.420	0.110	-0.340	-0.210
2020/01/31 18:08:41.2	356.460	0.030	-0.310	-0.260
2020/01/31 18:08:41.3	356.500	-0.040	-0.280	-0.320
2020/01/31 18:08:41.4	356.550	-0.110	-0.260	-0.380
2020/01/31 18:08:41.5	356.590	-0.180	-0.240	-0.450
2020/01/31 18:08:41.6	356.640	-0.250	-0.230	-0.510
2020/01/31 18:08:41.7	356.690	-0.320	-0.220	-0.580
2020/01/31 18:08:41.8	356.730	-0.390	-0.210	-0.650
2020/01/31 18:08:41.9	356.780	-0.450	-0.210	-0.720
2020/01/31 18:08:42.0	356.830	-0.510	-0.210	-0.790
2020/01/31 18:08:42.1	356.870	-0.560	-0.220	-0.860
2020/01/31 18:08:42.2	356.920	-0.620	-0.230	-0.920
2020/01/31 18:08:42.3	356.970	-0.670	-0.240	-0.990
2020/01/31 18:08:42.4	357.010	-0.710	-0.260	-1.050
2020/01/31 18:08:42.5	357.060	-0.750	-0.270	-1.100
2020/01/31 18:08:42.6	357.090	-0.790	-0.290	-1.150
2020/01/31 18:08:42.7	357.130	-0.820	-0.300	-1.190
2020/01/31 18:08:42.8	357.160	-0.840	-0.320	-1.230
2020/01/31 18:08:42.9	357.170	-0.870	-0.330	-1.260
2020/01/31 18:08:43.0	357.190	-0.880	-0.340	-1.280
2020/01/31 18:08:43.1	357.210	-0.900	-0.350	-1.290
2020/01/31 18:08:43.2	357.220	-0.910	-0.360	-1.290
2020/01/31 18:08:43.3	357.220	-0.910	-0.370	-1.290
2020/01/31 18:08:43.4	357.220	-0.910	-0.370	-1.290
2020/01/31 18:08:43.5	357.210	-0.910	-0.370	-1.270
2020/01/31 18:08:43.6	357.210	-0.900	-0.360	-1.250
2020/01/31 18:08:43.7	357.190	-0.890	-0.360	-1.230
2020/01/31 18:08:43.8	357.180	-0.870	-0.350	-1.200
2020/01/31 18:08:43.9	357.150	-0.850	-0.330	-1.170
2020/01/31 18:08:44.0	357.130	-0.830	-0.320	-1.140
2020/01/31 18:08:44.1	357.100	-0.800	-0.300	-1.100
2020/01/31 18:08:44.2	357.080	-0.770	-0.280	-1.060
2020/01/31 18:08:44.3	357.040	-0.740	-0.260	-1.020
2020/01/31 18:08:44.4	357.010	-0.710	-0.230	-0.970
2020/01/31 18:08:44.5	356.980	-0.670	-0.210	-0.930
2020/01/31 18:08:44.6	356.940	-0.630	-0.180	-0.880
2020/01/31 18:08:44.7	356.910	-0.590	-0.150	-0.830
2020/01/31 18:08:44.8	356.870	-0.550	-0.120	-0.780
2020/01/31 18:08:44.9	356.840	-0.510	-0.100	-0.720
2020/01/31 18:08:45.0	356.800	-0.470	-0.070	-0.670
2020/01/31 18:08:45.1	356.760	-0.420	-0.040	-0.610
2020/01/31 18:08:45.2	356.730	-0.370	-0.020	-0.560
2020/01/31 18:08:45.3	356.690	-0.330	0.000	-0.500
2020/01/31 18:08:45.4	356.660	-0.280	0.030	-0.440
2020/01/31 18:08:45.5	356.630	-0.230	0.050	-0.380
2020/01/31 18:08:45.6	356.600	-0.180	0.060	-0.320
2020/01/31 18:08:45.7	356.580	-0.130	0.080	-0.260
2020/01/31 18:08:45.8	356.550	-0.080	0.090	-0.200
2020/01/31 18:08:45.9	356.530	-0.030	0.100	-0.140
2020/01/31 18:08:46.0	356.510	0.020	0.110	-0.090
2020/01/31 18:08:46.1	356.500	0.060	0.120	-0.030
2020/01/31 18:08:46.2	356.480	0.110	0.120	0.030
2020/01/31 18:08:46.3	356.470	0.150	0.120	0.080
2020/01/31 18:08:46.4	356.460	0.200	0.110	0.130
2020/01/31 18:08:46.5	356.460	0.240	0.110	0.180
2020/01/31 18:08:46.6	356.450	0.280	0.100	0.230
2020/01/31 18:08:46.7	356.450	0.320	0.090	0.270
2020/01/31 18:08:46.8	356.450	0.350	0.080	0.310
2020/01/31 18:08:46.9	356.460	0.380	0.060	0.350
2020/01/31 18:08:47.0	356.460	0.410	0.040	0.380
2020/01/31 18:08:47.1	356.460	0.440	0.030	0.410
2020/01/31 18:08:47.2	356.470	0.470	0.010	0.440
2020/01/31 18:08:47.3	356.470	0.490	-0.010	0.460
2020/01/31 18:08:47.4	356.480	0.510	-0.030	0.480
2020/01/31 18:08:47.5	356.480	0.520	-0.050	0.500
2020/01/31 18:08:47.6	356.490	0.530	-0.070	0.520
2020/01/31 18:08:47.7	356.490	0.540	-0.080	0.530
2020/01/31 18:08:47.8	356.500	0.540	-0.100	0.540
2020/01/31 18:08:47.9	356.500	0.540	-0.120	0.540
2020/01/31 18:08:48.0	356.510	0.530	-0.130	0.550
2020/01/31 18:08:48.1	356.510	0.520	-0.150	0.550
2020/01/31 18:08:48.2	356.510	0.510	-0.160	0.550
2020/01/31 18:08:48.3	356.510	0.490	-0.180	0.550
2020/01/31 18:08:48.4	356.510	0.470	-0.190	0.540
2020/01/31 18:08:48.5	356.520	0.450	-0.200	0.530
2020/01/31 18:08:48.6	356.520	0.420	-0.210	0.520
2020/01/31 18:08:48.7	356.520	0.390	-0.220	0.500
2020/01/31 18:08:48.8	356.530	0.360	-0.230	0.480
2020/01/31 18:08:48.9	356.540	0.330	-0.240	0.460
2020/01/31 18:08:49.0	356.550	0.290	-0.250	0.440
2020/01/31 18:08:49.1	356.560	0.260	-0.260	0.410
2020/01/31 18:08:49.2	356.570	0.220	-0.270	0.380
2020/01/31 18:08:49.3	356.580	0.180	-0.280	0.350
2020/01/31 18:08:49.4	356.600	0.140	-0.300	0.320
2020/01/31 18:08:49.5	356.610	0.100	-0.310	0.280
2020/01/31 18:08:49.6	356.630	0.070	-0.330	0.250
2020/01/31 18:08:49.7	356.650	0.030	-0.350	0.210
2020/01/31 18:08:49.8	356.670	-0.010	-0.370	0.170
2020/01/31 18:08:49.9	356.680	-0.040	-0.380	0.120
2020/01/31 18:08:50.0	356.700	-0.080	-0.400	0.090
2020/01/31 18:08:50.1	356.720	-0.110	-0.420	0.050
2020/01/31 18:08:50.2	356.740	-0.140	-0.440	0.010
2020/01/31 18:08:50.3	356.760	-0.170	-0.460	-0.030
2020/01/31 18:08:50.4	356.780	-0.190	-0.480	-0.070
2020/01/31 18:08:50.5	356.800	-0.210	-0.500	-0.110
2020/01/31 18:08:50.6	356.810	-0.230	-0.520	-0.140
2020/01/31 18:08:50.7	356.830	-0.250	-0.530	-0.180
2020/01/31 18:08:50.8	356.840	-0.270	-0.540	-0.210
2020/01/31 18:08:50.9	356.850	-0.280	-0.560	-0.250
2020/01/31 18:08:51.0	356.860	-0.290	-0.560	-0.280
2020/01/31 18:08:51.1	356.870	-0.290	-0.570	-0.310
2020/01/31 18:08:51.2	356.880	-0.300	-0.570	-0.340
2020/01/31 18:08:51.3	356.890	-0.300	-0.570	-0.360
2020/01/31 18:08:51.4	356.890	-0.300	-0.560	-0.390
2020/01/31 18:08:51.5	356.900	-0.290	-0.550	-0.410
2020/01/31 18:08:51.6	356.900	-0.280	-0.540	-0.430
2020/01/31 18:08:51.7	356.900	-0.270	-0.520	-0.450
2020/01/31 18:08:51.8	356.900	-0.260	-0.500	-0.470
2020/01/31 18:08:51.9	356.910	-0.240	-0.480	-0.480
2020/01/31 18:08:52.0	356.910	-0.230	-0.450	-0.490
2020/01/31 18:08:52.1	356.900	-0.210	-0.420	-0.490
2020/01/31 18:08:52.2	356.900	-0.190	-0.390	-0.490
2020/01/31 18:08:52.3	356.890	-0.160	-0.360	-0.490
2020/01/31 18:08:52.4	356.890	-0.140	-0.320	-0.480
2020/01/31 18:08:52.5	356.880	-0.110	-0.290	-0.460
2020/01/31 18:08:52.6	356.880	-0.080	-0.250	-0.440
2020/01/31 18:08:52.7	356.870	-0.060	-0.220	-0.420
2020/01/31 18:08:52.8	356.860	-0.030	-0.180	-0.390
2020/01/31 18:08:52.9	356.840	0.000	-0.150	-0.360
2020/01/31 18:08:53.0	356.830	0.030	-0.110	-0.320
2020/01/31 18:08:53.1	356.820	0.060	-0.080	-0.280
2020/01/31 18:08:53.2	356.810	0.090	-0.050	-0.250
2020/01/31 18:08:53.3	356.800	0.110	-0.030	-0.200
2020/01/31 18:08:53.4	356.800	0.140	-0.000	-0.160
2020/01/31 18:08:53.5	356.790	0.160	0.020	-0.120
2020/01/31 18:08:53.6	356.780	0.190	0.030	-0.080
2020/01/31 18:08:53.7	356.770	0.210	0.040	-0.030
2020/01/31 18:08:53.8	356.760	0.230	0.050	0.010
2020/01/31 18:08:53.9	356.750	0.250	0.050	0.050
2020/01/31 18:08:54.0	356.740	0.270	0.050	0.090
2020/01/31 18:08:54.1	356.740	0.290	0.040	0.130
2020/01/31 18:08:54.2	356.730	0.300	0.030	0.160
2020/01/31 18:08:54.3	356.730	0.320	0.010	0.200
2020/01/31 18:08:54.4	356.720	0.330	-0.010	0.230
2020/01/31 18:08:54.5	356.720	0.340	-0.040	0.250
2020/01/31 18:08:54.6	356.720	0.350	-0.070	0.280
2020/01/31 18:08:54.7	356.720	0.350	-0.110	0.300
2020/01/31 18:08:54.8	356.720	0.360	-0.150	0.310
2020/01/31 18:08:54.9	356.730	0.360	-0.190	0.330
2020/01/31 18:08:55.0	356.730	0.360	-0.240	0.330
2020/01/31 18:08:55.1	356.740	0.360	-0.280	0.330
2020/01/31 18:08:55.2	356.750	0.360	-0.330	0.330
2020/01/31 18:08:55.3	356.760	0.360	-0.390	0.320
2020/01/31 18:08:55.4	356.780	0.350	-0.440	0.310
2020/01/31 18:08:55.5	356.800	0.350	-0.490	0.300
2020/01/31 18:08:55.6	356.820	0.340	-0.540	0.280
2020/01/31 18:08:55.7	356.840	0.340	-0.580	0.250
2020/01/31 18:08:55.8	356.870	0.330	-0.630	0.220
2020/01/31 18:08:55.9	356.890	0.320	-0.670	0.190
2020/01/31 18:08:56.0	356.920	0.310	-0.710	0.150
2020/01/31 18:08:56.1	356.950	0.300	-0.740	0.120
2020/01/31 18:08:56.2	356.990	0.290	-0.770	0.080
2020/01/31 18:08:56.3	357.020	0.280	-0.790	0.040
2020/01/31 18:08:56.4	357.060	0.260	-0.810	0.000
2020/01/31 18:08:56.5	357.100	0.250	-0.820	-0.040
2020/01/31 18:08:56.6	357.130	0.230	-0.830	-0.080
2020/01/31 18:08:56.7	357.170	0.210	-0.830	-0.120
2020/01/31 18:08:56.8	357.200	0.190	-0.830	-0.160
2020/01/31 18:08:56.9	357.230	0.170	-0.810	-0.190
2020/01/31 18:08:57.0	357.260	0.150	-0.790	-0.230
2020/01/31 18:08:57.1	357.280	0.120	-0.770	-0.260
2020/01/31 18:08:57.2	357.310	0.090	-0.730	-0.290
2020/01/31 18:08:57.3	357.330	0.070	-0.700	-0.320
2020/01/31 18:08:57.4	357.350	0.040	-0.650	-0.350
2020/01/31 18:08:57.5	357.370	0.010	-0.610	-0.380
2020/01/31 18:08:57.6	357.380	-0.030	-0.560	-0.400
2020/01/31 18:08:57.7	357.400	-0.060	-0.500	-0.430
2020/01/31 18:08:57.8	357.410	-0.100	-0.440	-0.450
2020/01/31 18:08:57.9	357.430	-0.130	-0.380	-0.470
2020/01/31 18:08:58.0	357.440	-0.170	-0.320	-0.500
2020/01/31 18:08:58.1	357.440	-0.210	-0.260	-0.520
2020/01/31 18:08:58.2	357.450	-0.250	-0.190	-0.540
2020/01/31 18:08:58.3	357.460	-0.290	-0.130	-0.550
2020/01/31 18:08:58.4	357.460	-0.320	-0.060	-0.570
2020/01/31 18:08:58.5	357.460	-0.360	-0.000	-0.590
2020/01/31 18:08:58.6	357.470	-0.400	0.060	-0.600
2020/01/31 18:08:58.7	357.470	-0.430	0.120	-0.610
2020/01/31 18:08:58.8	357.460	-0.460	0.180	-0.620
2020/01/31 18:08:58.9	357.460	-0.490	0.230	-0.630
2020/01/31 18:08:59.0	357.450	-0.520	0.280	-0.630
2020/01/31 18:08:59.1	357.450	-0.550	0.330	-0.630
2020/01/31 18:08:59.2	357.430	-0.570	0.370	-0.620
2020/01/31 18:08:59.3	357.420	-0.600	0.410	-0.610
2020/01/31 18:08:59.4	357.400	-0.610	0.440	-0.600
2020/01/31 18:08:59.5	357.380	-0.630	0.470	-0.590
2020/01/31 18:08:59.6	357.360	-0.640	0.490	-0.570
2020/01/31 18:08:59.7	357.340	-0.650	0.510	-0.540
2020/01/31 18:08:59.8	357.310	-0.650	0.530	-0.520
2020/01/31 18:08:59.9	357.300	-0.650	0.530	-0.480
2020/01/31 18:09:00.0	357.270	-0.640	0.530	-0.450
2020/01/31 18:09:00.1	357.230	-0.630	0.530	-0.410
2020/01/31 18:09:00.2	357.200	-0.620	0.520	-0.370
2020/01/31 18:09:00.3	357.160	-0.600	0.510	-0.330
2020/01/31 18:09:00.4	357.130	-0.580	0.490	-0.290
2020/01/31 18:09:00.5	357.100	-0.560	0.470	-0.250
2020/01/31 18:09:00.6	357.060	-0.530	0.440	-0.210
2020/01/31 18:09:00.7	357.030	-0.500	0.400	-0.170
2020/01/31 18:09:00.8	357.000	-0.460	0.360	-0.130
2020/01/31 18:09:00.9	356.950	-0.420	0.320	-0.090
2020/01/31 18:09:01.0	356.920	-0.380	0.280	-0.060
2020/01/31 18:09:01.1	356.900	-0.340	0.230	-0.020
2020/01/31 18:09:01.2	356.870	-0.290	0.170	0.010
2020/01/31 18:09:01.3	356.850	-0.240	0.110	0.040
2020/01/31 18:09:01.4	356.830	-0.190	0.050	0.070
2020/01/31 18:09:01.5	356.810	-0.140	-0.010	0.090
2020/01/31 18:09:01.6	356.800	-0.090	-0.070	0.110
2020/01/31 18:09:01.7	356.790	-0.040	-0.140	0.140
2020/01/31 18:09:01.8	356.780	0.010	-0.210	0.150
2020/01/31 18:09:01.9	356.760	0.060	-0.280	0.170
2020/01/31 18:09:02.0	356.760	0.120	-0.350	0.190
2020/01/31 18:09:02.1	356.760	0.170	-0.410	0.200
2020/01/31 18:09:02.2	356.760	0.210	-0.480	0.220
2020/01/31 18:09:02.3	356.770	0.260	-0.540	0.230
2020/01/31 18:09:02.4	356.770	0.300	-0.600	0.240
2020/01/31 18:09:02.5	356.780	0.340	-0.660	0.250
2020/01/31 18:09:02.6	356.780	0.380	-0.710	0.260
2020/01/31 18:09:02.7	356.790	0.420	-0.760	0.280
2020/01/31 18:09:02.8	356.800	0.450	-0.800	0.290
2020/01/31 18:09:02.9	356.790	0.470	-0.840	0.290
2020/01/31 18:09:03.0	356.790	0.490	-0.870	0.300
2020/01/31 18:09:03.1	356.800	0.510	-0.890	0.310
2020/01/31 18:09:03.2	356.800	0.520	-0.910	0.320
2020/01/31 18:09:03.3	356.800	0.530	-0.920	0.320
2020/01/31 18:09:03.4	356.800	0.530	-0.930	0.330
2020/01/31 18:09:03.5	356.810	0.530	-0.930	0.330
2020/01/31 18:09:03.6	356.810	0.530	-0.930	0.330
2020/01/31 18:09:03.7	356.810	0.520	-0.910	0.320
2020/01/31 18:09:03.8	356.810	0.500	-0.900	0.310
2020/01/31 18:09:03.9	356.820	0.480	-0.880	0.300
2020/01/31 18:09:04.0	356.810	0.460	-0.850	0.290
2020/01/31 18:09:04.1	356.810	0.440	-0.820	0.280
2020/01/31 18:09:04.2	356.810	0.410	-0.780	0.260
2020/01/31 18:09:04.3	356.810	0.380	-0.750	0.240
2020/01/31 18:09:04.4	356.810	0.340	-0.700	0.220
2020/01/31 18:09:04.5	356.810	0.310	-0.660	0.200
2020/01/31 18:09:04.6	356.810	0.270	-0.610	0.180
2020/01/31 18:09:04.7	356.820	0.230	-0.570	0.150
2020/01/31 18:09:04.8	356.820	0.190	-0.520	0.120
2020/01/31 18:09:04.9	356.830	0.150	-0.470	0.090
2020/01/31 18:09:05.0	356.840	0.110	-0.420	0.060
2020/01/31 18:09:05.1	356.840	0.070	-0.370	0.030
2020/01/31 18:09:05.2	356.850	0.030	-0.320	0.000
2020/01/31 18:09:05.3	356.860	-0.010	-0.280	-0.030
2020/01/31 18:09:05.4	356.870	-0.040	-0.230	-0.060
2020/01/31 18:09:05.5	356.880	-0.080	-0.190	-0.100
2020/01/31 18:09:05.6	356.890	-0.110	-0.140	-0.130
2020/01/31 18:09:05.7	356.890	-0.150	-0.100	-0.160
2020/01/31 18:09:05.8	356.900	-0.180	-0.070	-0.190
2020/01/31 18:09:05.9	356.910	-0.210	-0.030	-0.220
2020/01/31 18:09:06.0	356.920	-0.230	0.000	-0.250
2020/01/31 18:09:06.1	356.920	-0.260	0.030	-0.280
2020/01/31 18:09:06.2	356.930	-0.280	0.050	-0.310
2020/01/31 18:09:06.3	356.930	-0.290	0.070	-0.350
2020/01/31 18:09:06.4	356.940	-0.310	0.090	-0.380
2020/01/31 18:09:06.5	356.950	-0.320	0.100	-0.410
2020/01/31 18:09:06.6	356.960	-0.330	0.110	-0.450
2020/01/31 18:09:06.7	356.970	-0.330	0.110	-0.490
2020/01/31 18:09:06.8	356.980	-0.330	0.100	-0.530
2020/01/31 18:09:06.9	356.980	-0.330	0.090	-0.570
2020/01/31 18:09:07.0	357.000	-0.320	0.080	-0.610
2020/01/31 18:09:07.1	357.010	-0.310	0.050	-0.650
2020/01/31 18:09:07.2	357.030	-0.300	0.030	-0.690
2020/01/31 18:09:07.3	357.050	-0.280	-0.000	-0.740
2020/01/31 18:09:07.4	357.070	-0.260	-0.040	-0.770
2020/01/31 18:09:07.5	357.090	-0.240	-0.080	-0.810
2020/01/31 18:09:07.6	357.120	-0.210	-0.130	-0.850
2020/01/31 18:09:07.7	357.140	-0.180	-0.170	-0.880
2020/01/31 18:09:07.8	357.160	-0.150	-0.220	-0.900
2020/01/31 18:09:07.9	357.190	-0.110	-0.270	-0.920
2020/01/31 18:09:08.0	357.200	-0.080	-0.320	-0.940
2020/01/31 18:09:08.1	357.220	-0.040	-0.370	-0.940
2020/01/31 18:09:08.2	357.230	-0.000	-0.410	-0.950
2020/01/31 18:09:08.3	357.250	0.040	-0.460	-0.940
2020/01/31 18:09:08.4	357.250	0.070	-0.500	-0.930
2020/01/31 18:09:08.5	357.260	0.110	-0.530	-0.910
2020/01/31 18:09:08.6	357.260	0.150	-0.570	-0.880
2020/01/31 18:09:08.7	357.270	0.190	-0.590	-0.860
2020/01/31 18:09:08.8	357.260	0.220	-0.620	-0.820
2020/01/31 18:09:08.9	357.260	0.250	-0.630	-0.790
2020/01/31 18:09:09.0	357.250	0.280	-0.640	-0.750
2020/01/31 18:09:09.1	357.240	0.310	-0.650	-0.710
2020/01/31 18:09:09.2	357.240	0.340	-0.650	-0.660
2020/01/31 18:09:09.3	357.220	0.360	-0.650	-0.620
2020/01/31 18:09:09.4	357.210	0.380	-0.640	-0.570
2020/01/31 18:09:09.5	357.200	0.390	-0.620	-0.520
2020/01/31 18:09:09.6	357.190	0.410	-0.600	-0.470
2020/01/31 18:09:09.7	357.180	0.420	-0.580	-0.430
2020/01/31 18:09:09.8	357.160	0.430	-0.550	-0.380
2020/01/31 18:09:09.9	357.150	0.430	-0.520	-0.340
2020/01/31 18:09:10.0	357.140	0.430	-0.490	-0.290
2020/01/31 18:09:10.1	357.130	0.430	-0.460	-0.250
2020/01/31 18:09:10.2	357.120	0.430	-0.420	-0.200
2020/01/31 18:09:10.3	357.110	0.430	-0.380	-0.160
2020/01/31 18:09:10.4	357.100	0.420	-0.350	-0.120
2020/01/31 18:09:10.5	357.100	0.410	-0.310	-0.080
2020/01/31 18:09:10.6	357.090	0.400	-0.270	-0.030
2020/01/31 18:09:10.7	357.090	0.390	-0.230	0.010
2020/01/31 18:09:10.8	357.080	0.380	-0.200	0.050
2020/01/31 18:09:10.9	357.070	0.360	-0.160	0.090
2020/01/31 18:09:11.0	357.060	0.350	-0.120	0.130
2020/01/31 18:09:11.1	357.060	0.330	-0.080	0.170
2020/01/31 18:09:11.2	357.050	0.320	-0.050	0.210
2020/01/31 18:09:11.3	357.040	0.300	-0.010	0.250
2020/01/31 18:09:11.4	357.040	0.280	0.020	0.290
2020/01/31 18:09:11.5	357.030	0.260	0.050	0.330
2020/01/31 18:09:11.6	357.020	0.240	0.080	0.370
2020/01/31 18:09:11.7	357.010	0.220	0.110	0.410
2020/01/31 18:09:11.8	356.990	0.200	0.150	0.450
2020/01/31 18:09:11.9	356.980	0.170	0.170	0.480
2020/01/31 18:09:12.0	356.960	0.150	0.200	0.510
2020/01/31 18:09:12.1	356.950	0.120	0.230	0.540
2020/01/31 18:09:12.2	356.930	0.090	0.250	0.560
2020/01/31 18:09:12.3	356.910	0.060	0.280	0.580
2020/01/31 18:09:12.4	356.890	0.030	0.300	0.600
2020/01/31 18:09:12.5	356.870	0.000	0.320	0.610
2020/01/31 18:09:12.6	356.840	-0.030	0.340	0.620
2020/01/31 18:09:12.7	356.820	-0.070	0.360	0.620
2020/01/31 18:09:12.8	356.800	-0.100	0.380	0.620
2020/01/31 18:09:12.9	356.770	-0.140	0.400	0.610
2020/01/31 18:09:13.0	356.740	-0.180	0.410	0.600
2020/01/31 18:09:13.1	356.720	-0.210	0.430	0.590
2020/01/31 18:09:13.2	356.690	-0.250	0.440	0.570
2020/01/31 18:09:13.3	356.660	-0.290	0.440	0.550
2020/01/31 18:09:13.4	356.630	-0.330	0.450	0.530
2020/01/31 18:09:13.5	356.610	-0.370	0.450	0.510
2020/01/31 18:09:13.6	356.580	-0.410	0.450	0.480
2020/01/31 18:09:13.7	356.550	-0.440	0.450	0.450
2020/01/31 18:09:13.8	356.530	-0.480	0.440	0.420
2020/01/31 18:09:13.9	356.510	-0.520	0.430	0.380
2020/01/31 18:09:14.0	356.490	-0.550	0.420	0.350
2020/01/31 18:09:14.1	356.470	-0.590	0.400	0.320
2020/01/31 18:09:14.2	356.450	-0.620	0.370	0.280
2020/01/31 18:09:14.3	356.440	-0.650	0.340	0.250
2020/01/31 18:09:14.4	356.420	-0.670	0.310	0.210
2020/01/31 18:09:14.5	356.410	-0.700	0.270	0.170
2020/01/31 18:09:14.6	356.400	-0.720	0.230	0.130
2020/01/31 18:09:14.7	356.390	-0.730	0.180	0.090
2020/01/31 18:09:14.8	356.390	-0.740	0.120	0.050
2020/01/31 18:09:14.9	356.380	-0.750	0.060	0.000
2020/01/31 18:09:15.0	356.380	-0.760	-0.000	-0.040
2020/01/31 18:09:15.1	356.390	-0.760	-0.070	-0.090
2020/01/31 18:09:15.2	356.400	-0.750	-0.150	-0.140
2020/01/31 18:09:15.3	356.410	-0.740	-0.230	-0.190
2020/01/31 18:09:15.4	356.420	-0.730	-0.310	-0.240
2020/01/31 18:09:15.5	356.440	-0.710	-0.400	-0.290
2020/01/31 18:09:15.6	356.460	-0.690	-0.490	-0.340
2020/01/31 18:09:15.7	356.490	-0.660	-0.590	-0.400
2020/01/31 18:09:15.8	356.510	-0.630	-0.680	-0.450
2020/01/31 18:09:15.9	356.540	-0.590	-0.780	-0.510
2020/01/31 18:09:16.0	356.570	-0.550	-0.870	-0.570
2020/01/31 18:09:16.1	356.600	-0.510	-0.970	-0.620
2020/01/31 18:09:16.2	356.640	-0.460	-1.060	-0.670
2020/01/31 18:09:16.3	356.670	-0.410	-1.150	-0.720
2020/01/31 18:09:16.4	356.710	-0.350	-1.240	-0.760
2020/01/31 18:09:16.5	356.750	-0.300	-1.320	-0.810
2020/01/31 18:09:16.6	356.780	-0.240	-1.390	-0.840
2020/01/31 18:09:16.7	356.820	-0.180	-1.450	-0.880
2020/01/31 18:09:16.8	356.850	-0.120	-1.510	-0.900
2020/01/31 18:09:16.9	356.880	-0.050	-1.560	-0.930
2020/01/31 18:09:17.0	356.910	0.010	-1.590	-0.940
2020/01/31 18:09:17.1	356.940	0.070	-1.620	-0.950
2020/01/31 18:09:17.2	356.970	0.130	-1.630	-0.960
2020/01/31 18:09:17.3	356.990	0.190	-1.640	-0.950
2020/01/31 18:09:17.4	357.010	0.250	-1.630	-0.940
2020/01/31 18:09:17.5	357.030	0.300	-1.620	-0.920
2020/01/31 18:09:17.6	357.050	0.360	-1.590	-0.900
2020/01/31 18:09:17.7	357.060	0.410	-1.550	-0.870
2020/01/31 18:09:17.8	357.080	0.450	-1.500	-0.840
2020/01/31 18:09:17.9	357.090	0.500	-1.440	-0.790
2020/01/31 18:09:18.0	357.090	0.540	-1.370	-0.750
2020/01/31 18:09:18.1	357.100	0.570	-1.300	-0.700
2020/01/31 18:09:18.2	357.100	0.610	-1.220	-0.650
2020/01/31 18:09:18.3	357.100	0.630	-1.130	-0.590
2020/01/31 18:09:18.4	357.100	0.650	-1.030	-0.530
2020/01/31 18:09:18.5	357.090	0.670	-0.940	-0.470
2020/01/31 18:09:18.6	357.090	0.690	-0.830	-0.410
2020/01/31 18:09:18.7	357.080	0.700	-0.730	-0.340
2020/01/31 18:09:18.8	357.080	0.700	-0.630	-0.280
2020/01/31 18:09:18.9	357.080	0.700	-0.520	-0.220
2020/01/31 18:09:19.0	357.080	0.700	-0.420	-0.150
2020/01/31 18:09:19.1	357.070	0.690	-0.320	-0.090
2020/01/31 18:09:19.2	357.070	0.670	-0.220	-0.040
2020/01/31 18:09:19.3	357.070	0.660	-0.120	0.020
2020/01/31 18:09:19.4	357.070	0.640	-0.030	0.070
2020/01/31 18:09:19.5	357.070	0.620	0.050	0.120
2020/01/31 18:09:19.6	357.070	0.590	0.130	0.160
2020/01/31 18:09:19.7	357.080	0.560	0.210	0.190
2020/01/31 18:09:19.8	357.080	0.530	0.270	0.230
2020/01/31 18:09:19.9	357.080	0.500	0.340	0.260
2020/01/31 18:09:20.0	357.090	0.460	0.390	0.280
2020/01/31 18:09:20.1	357.100	0.430	0.440	0.290
2020/01/31 18:09:20.2	357.120	0.390	0.480	0.310
2020/01/31 18:09:20.3	357.130	0.350	0.520	0.310
2020/01/31 18:09:20.4	357.140	0.310	0.550	0.320
2020/01/31 18:09:20.5	357.150	0.270	0.570	0.320
2020/01/31 18:09:20.6	357.160	0.230	0.590	0.320
2020/01/31 18:09:20.7	357.170	0.190	0.600	0.320
2020/01/31 18:09:20.8	357.180	0.150	0.610	0.320
2020/01/31 18:09:20.9	357.190	0.110	0.610	0.310
2020/01/31 18:09:21.0	357.190	0.070	0.610	0.310
2020/01/31 18:09:21.1	357.190	0.030	0.610	0.310
2020/01/31 18:09:21.2	357.180	-0.010	0.610	0.310
2020/01/31 18:09:21.3	357.180	-0.050	0.610	0.310
2020/01/31 18:09:21.4	357.170	-0.080	0.600	0.310
2020/01/31 18:09:21.5	357.160	-0.120	0.600	0.310
2020/01/31 18:09:21.6	357.140	-0.150	0.600	0.310
2020/01/31 18:09:21.7	357.120	-0.180	0.590	0.310
2020/01/31 18:09:21.8	357.100	-0.210	0.590	0.320
2020/01/31 18:09:21.9	357.080	-0.240	0.590	0.310
2020/01/31 18:09:22.0	357.060	-0.260	0.590	0.320
2020/01/31 18:09:22.1	357.030	-0.290	0.580	0.320
2020/01/31 18:09:22.2	357.000	-0.310	0.580	0.330
2020/01/31 18:09:22.3	356.970	-0.330	0.570	0.330
2020/01/31 18:09:22.4	356.950	-0.340	0.570	0.340
2020/01/31 18:09:22.5	356.920	-0.350	0.560	0.340
2020/01/31 18:09:22.6	356.890	-0.360	0.550	0.340
2020/01/31 18:09:22.7	356.860	-0.370	0.530	0.340
2020/01/31 18:09:22.8	356.840	-0.370	0.520	0.340
2020/01/31 18:09:22.9	356.810	-0.370	0.490	0.330
2020/01/31 18:09:23.0	356.790	-0.370	0.460	0.330
2020/01/31 18:09:23.1	356.780	-0.370	0.430	0.320
2020/01/31 18:09:23.2	356.760	-0.360	0.400	0.300
2020/01/31 18:09:23.3	356.750	-0.350	0.350	0.280
2020/01/31 18:09:23.4	356.750	-0.340	0.300	0.260
2020/01/31 18:09:23.5	356.740	-0.320	0.250	0.230
2020/01/31 18:09:23.6	356.740	-0.300	0.190	0.210
2020/01/31 18:09:23.7	356.750	-0.280	0.120	0.170
2020/01/31 18:09:23.8	356.750	-0.260	0.050	0.140
2020/01/31 18:09:23.9	356.760	-0.230	-0.020	0.090
2020/01/31 18:09:24.0	356.770	-0.210	-0.100	0.050
2020/01/31 18:09:24.1	356.780	-0.180	-0.180	0.010
2020/01/31 18:09:24.2	356.800	-0.160	-0.260	-0.040
2020/01/31 18:09:24.3	356.820	-0.130	-0.350	-0.080
2020/01/31 18:09:24.4	356.830	-0.110	-0.430	-0.130
2020/01/31 18:09:24.5	356.850	-0.080	-0.520	-0.180
2020/01/31 18:09:24.6	356.870	-0.060	-0.600	-0.230
2020/01/31 18:09:24.7	356.890	-0.040	-0.680	-0.270
2020/01/31 18:09:24.8	356.900	-0.020	-0.760	-0.320
2020/01/31 18:09:24.9	356.910	0.000	-0.840	-0.370
2020/01/31 18:09:25.0	356.930	0.020	-0.910	-0.410
2020/01/31 18:09:25.1	356.940	0.030	-0.980	-0.460
2020/01/31 18:09:25.2	356.950	0.040	-1.040	-0.500
2020/01/31 18:09:25.3	356.970	0.050	-1.090	-0.540
2020/01/31 18:09:25.4	356.980	0.050	-1.140	-0.580
2020/01/31 18:09:25.5	356.990	0.060	-1.180	-0.620
2020/01/31 18:09:25.6	356.990	0.060	-1.210	-0.650
2020/01/31 18:09:25.7	357.000	0.050	-1.230	-0.690
2020/01/31 18:09:25.8	357.000	0.050	-1.250	-0.720
2020/01/31 18:09:25.9	357.010	0.040	-1.260	-0.750
2020/01/31 18:09:26.0	357.010	0.030	-1.270	-0.770
2020/01/31 18:09:26.1	357.010	0.020	-1.260	-0.790
2020/01/31 18:09:26.2	357.020	0.010	-1.250	-0.810
2020/01/31 18:09:26.3	357.020	-0.000	-1.230	-0.830
2020/01/31 18:09:26.4	357.020	-0.020	-1.200	-0.840
2020/01/31 18:09:26.5	357.020	-0.030	-1.170	-0.850
2020/01/31 18:09:26.6	357.020	-0.040	-1.130	-0.860
2020/01/31 18:09:26.7	357.030	-0.060	-1.090	-0.860
2020/01/31 18:09:26.8	357.030	-0.070	-1.040	-0.860
2020/01/31 18:09:26.9	357.040	-0.080	-0.990	-0.860
2020/01/31 18:09:27.0	357.050	-0.090	-0.930	-0.860
2020/01/31 18:09:27.1	357.050	-0.100	-0.880	-0.850
2020/01/31 18:09:27.2	357.060	-0.110	-0.820	-0.830
2020/01/31 18:09:27.3	357.070	-0.110	-0.760	-0.820
2020/01/31 18:09:27.4	357.080	-0.110	-0.700	-0.800
2020/01/31 18:09:27.5	357.090	-0.110	-0.640	-0.770
2020/01/31 18:09:27.6	357.110	-0.100	-0.580	-0.750
2020/01/31 18:09:27.7	357.120	-0.090	-0.520	-0.720
2020/01/31 18:09:27.8	357.140	-0.080	-0.460	-0.690
2020/01/31 18:09:27.9	357.160	-0.060	-0.400	-0.660
2020/01/31 18:09:28.0	357.180	-0.040	-0.350	-0.630
2020/01/31 18:09:28.1	357.190	-0.020	-0.300	-0.590
2020/01/31 18:09:28.2	357.210	0.000	-0.240	-0.550
2020/01/31 18:09:28.3	357.220	0.030	-0.200	-0.510
2020/01/31 18:09:28.4	357.240	0.060	-0.150	-0.470
2020/01/31 18:09:28.5	357.250	0.090	-0.100	-0.420
2020/01/31 18:09:28.6	357.270	0.120	-0.060	-0.380
2020/01/31 18:09:28.7	357.280	0.150	-0.020	-0.330
2020/01/31 18:09:28.8	357.290	0.190	0.020	-0.280
2020/01/31 18:09:28.9	357.290	0.220	0.050	-0.240
2020/01/31 18:09:29.0	357.300	0.250	0.090	-0.190
2020/01/31 18:09:29.1	357.300	0.270	0.120	-0.140
2020/01/31 18:09:29.2	357.300	0.300	0.150	-0.100
2020/01/31 18:09:29.3	357.300	0.320	0.180	-0.060
2020/01/31 18:09:29.4	357.300	0.340	0.210	-0.010
2020/01/31 18:09:29.5	357.290	0.360	0.230	0.020
2020/01/31 18:09:29.6	357.280	0.370	0.250	0.060
2020/01/31 18:09:29.7	357.280	0.380	0.270	0.100
2020/01/31 18:09:29.8	357.270	0.390	0.290	0.130
2020/01/31 18:09:29.9	357.260	0.390	0.310	0.160
2020/01/31 18:09:30.0	357.250	0.390	0.320	0.190
2020/01/31 18:09:30.1	357.240	0.380	0.330	0.220
2020/01/31 18:09:30.2	357.240	0.370	0.330	0.240
2020/01/31 18:09:30.3	357.230	0.350	0.330	0.260
2020/01/31 18:09:30.4	357.220	0.330	0.330	0.280
2020/01/31 18:09:30.5	357.220	0.310	0.330	0.290
2020/01/31 18:09:30.6	357.220	0.280	0.320	0.300
2020/01/31 18:09:30.7	357.210	0.250	0.300	0.310
2020/01/31 18:09:30.8	357.210	0.220	0.280	0.310
2020/01/31 18:09:30.9	357.220	0.190	0.260	0.310
2020/01/31 18:09:31.0	357.220	0.150	0.230	0.310
2020/01/31 18:09:31.1	357.230	0.110	0.200	0.300
2020/01/31 18:09:31.2	357.240	0.070	0.160	0.290
2020/01/31 18:09:31.3	357.250	0.030	0.120	0.280
2020/01/31 18:09:31.4	357.270	-0.010	0.070	0.260
2020/01/31 18:09:31.5	357.280	-0.050	0.030	0.240
2020/01/31 18:09:31.6	357.300	-0.090	-0.020	0.220
2020/01/31 18:09:31.7	357.320	-0.130	-0.080	0.190
2020/01/31 18:09:31.8	357.350	-0.170	-0.130	0.160
2020/01/31 18:09:31.9	357.360	-0.210	-0.190	0.120
2020/01/31 18:09:32.0	357.390	-0.240	-0.250	0.090
2020/01/31 18:09:32.1	357.410	-0.280	-0.310	0.050
2020/01/31 18:09:32.2	357.440	-0.310	-0.360	0.010
2020/01/31 18:09:32.3	357.460	-0.340	-0.420	-0.030
2020/01/31 18:09:32.4	357.490	-0.360	-0.480	-0.070
2020/01/31 18:09:32.5	357.510	-0.390	-0.530	-0.110
2020/01/31 18:09:32.6	357.530	-0.400	-0.570	-0.160
2020/01/31 18:09:32.7	357.550	-0.420	-0.620	-0.190
2020/01/31 18:09:32.8	357.570	-0.430	-0.660	-0.230
2020/01/31 18:09:32.9	357.590	-0.440	-0.690	-0.280
2020/01/31 18:09:33.0	357.600	-0.440	-0.720	-0.310
2020/01/31 18:09:33.1	357.620	-0.440	-0.740	-0.340
2020/01/31 18:09:33.2	357.630	-0.440	-0.750	-0.360
2020/01/31 18:09:33.3	357.640	-0.430	-0.760	-0.390
2020/01/31 18:09:33.4	357.640	-0.420	-0.760	-0.400
2020/01/31 18:09:33.5	357.650	-0.400	-0.750	-0.420
2020/01/31 18:09:33.6	357.650	-0.380	-0.740	-0.430
2020/01/31 18:09:33.7	357.650	-0.360	-0.720	-0.440
2020/01/31 18:09:33.8	357.650	-0.340	-0.700	-0.440
2020/01/31 18:09:33.9	357.660	-0.310	-0.670	-0.440
2020/01/31 18:09:34.0	357.660	-0.280	-0.640	-0.440
2020/01/31 18:09:34.1	357.650	-0.250	-0.600	-0.440
2020/01/31 18:09:34.2	357.650	-0.220	-0.560	-0.430
2020/01/31 18:09:34.3	357.640	-0.190	-0.520	-0.420
2020/01/31 18:09:34.4	357.630	-0.150	-0.470	-0.400
2020/01/31 18:09:34.5	357.630	-0.120	-0.420	-0.380
2020/01/31 18:09:34.6	357.610	-0.090	-0.370	-0.360
2020/01/31 18:09:34.7	357.600	-0.060	-0.320	-0.330
2020/01/31 18:09:34.8	357.580	-0.020	-0.260	-0.300
2020/01/31 18:09:34.9	357.560	0.000	-0.210	-0.270
2020/01/31 18:09:35.0	357.540	0.030	-0.160	-0.240
2020/01/31 18:09:35.1	357.520	0.060	-0.110	-0.210
2020/01/31 18:09:35.2	357.490	0.080	-0.060	-0.170
2020/01/31 18:09:35.3	357.470	0.100	-0.010	-0.140
2020/01/31 18:09:35.4	357.440	0.120	0.040	-0.110
2020/01/31 18:09:35.5	357.420	0.140	0.080	-0.070
2020/01/31 18:09:35.6	357.390	0.150	0.120	-0.040
2020/01/31 18:09:35.7	357.360	0.170	0.150	-0.020
2020/01/31 18:09:35.8	357.330	0.170	0.180	0.010
2020/01/31 18:09:35.9	357.300	0.180	0.210	0.040
2020/01/31 18:09:36.0	357.280	0.180	0.230	0.060
2020/01/31 18:09:36.1	357.250	0.180	0.240	0.080
2020/01/31 18:09:36.2	357.230	0.180	0.260	0.100
2020/01/31 18:09:36.3	357.210	0.180	0.260	0.110
2020/01/31 18:09:36.4	357.190	0.180	0.260	0.130
2020/01/31 18:09:36.5	357.170	0.170	0.260	0.140
2020/01/31 18:09:36.6	357.160	0.160	0.250	0.150
2020/01/31 18:09:36.7	357.140	0.150	0.230	0.160
2020/01/31 18:09:36.8	357.130	0.140	0.210	0.160
2020/01/31 18:09:36.9	357.140	0.130	0.190	0.160
2020/01/31 18:09:37.0	357.130	0.120	0.150	0.160
2020/01/31 18:09:37.1	357.130	0.110	0.120	0.160
2020/01/31 18:09:37.2	357.130	0.100	0.080	0.150
2020/01/31 18:09:37.3	357.130	0.090	0.040	0.150
2020/01/31 18:09:37.4	357.130	0.080	-0.010	0.140
2020/01/31 18:09:37.5	357.140	0.070	-0.060	0.130
2020/01/31 18:09:37.6	357.140	0.060	-0.110	0.110
2020/01/31 18:09:37.7	357.150	0.060	-0.160	0.100
2020/01/31 18:09:37.8	357.160	0.050	-0.210	0.080
2020/01/31 18:09:37.9	357.180	0.050	-0.260	0.060
2020/01/31 18:09:38.0	357.190	0.050	-0.320	0.050
2020/01/31 18:09:38.1	357.210	0.050	-0.370	0.030
2020/01/31 18:09:38.2	357.230	0.050	-0.420	0.010
2020/01/31 18:09:38.3	357.250	0.050	-0.460	-0.010
2020/01/31 18:09:38.4	357.270	0.060	-0.510	-0.040
2020/01/31 18:09:38.5	357.290	0.070	-0.550	-0.060
2020/01/31 18:09:38.6	357.320	0.080	-0.590	-0.080
2020/01/31 18:09:38.7	357.340	0.090	-0.630	-0.100
2020/01/31 18:09:38.8	357.370	0.100	-0.660	-0.110
2020/01/31 18:09:38.9	357.400	0.120	-0.690	-0.140
2020/01/31 18:09:39.0	357.420	0.130	-0.720	-0.150
2020/01/31 18:09:39.1	357.450	0.150	-0.740	-0.160
2020/01/31 18:09:39.2	357.470	0.170	-0.760	-0.180
2020/01/31 18:09:39.3	357.500	0.180	-0.770	-0.180
2020/01/31 18:09:39.4	357.520	0.200	-0.780	-0.190
2020/01/31 18:09:39.5	357.550	0.220	-0.780	-0.200
2020/01/31 18:09:39.6	357.570	0.240	-0.790	-0.200
2020/01/31 18:09:39.7	357.600	0.250	-0.780	-0.210
2020/01/31 18:09:39.8	357.620	0.270	-0.780	-0.210
2020/01/31 18:09:39.9	357.650	0.280	-0.770	-0.210
2020/01/31 18:09:40.0	357.680	0.290	-0.760	-0.220
2020/01/31 18:09:40.1	357.700	0.300	-0.750	-0.220
2020/01/31 18:09:40.2	357.730	0.310	-0.730	-0.230
2020/01/31 18:09:40.3	357.760	0.320	-0.720	-0.240
2020/01/31 18:09:40.4	357.780	0.320	-0.700	-0.250
2020/01/31 18:09:40.5	357.810	0.320	-0.680	-0.260
2020/01/31 18:09:40.6	357.840	0.310	-0.660	-0.270
2020/01/31 18:09:40.7	357.870	0.310	-0.640	-0.280
2020/01/31 18:09:40.8	357.890	0.290	-0.610	-0.300
2020/01/31 18:09:40.9	357.920	0.280	-0.590	-0.320
2020/01/31 18:09:41.0	357.940	0.270	-0.560	-0.340
2020/01/31 18:09:41.1	357.970	0.250	-0.530	-0.360
2020/01/31 18:09:41.2	357.990	0.220	-0.500	-0.380
2020/01/31 18:09:41.3	358.010	0.200	-0.470	-0.400
2020/01/31 18:09:41.4	358.030	0.170	-0.440	-0.430
2020/01/31 18:09:41.5	358.040	0.140	-0.410	-0.450
2020/01/31 18:09:41.6	358.060	0.100	-0.380	-0.470
2020/01/31 18:09:41.7	358.070	0.070	-0.340	-0.490
2020/01/31 18:09:41.8	358.080	0.030	-0.310	-0.510
2020/01/31 18:09:41.9	358.090	-0.010	-0.270	-0.530
2020/01/31 18:09:42.0	358.100	-0.050	-0.240	-0.550
2020/01/31 18:09:42.1	358.110	-0.090	-0.200	-0.570
2020/01/31 18:09:42.2	358.120	-0.130	-0.160	-0.590
2020/01/31 18:09:42.3	358.120	-0.180	-0.130	-0.610
2020/01/31 18:09:42.4	358.120	-0.220	-0.090	-0.620
2020/01/31 18:09:42.5	358.130	-0.260	-0.050	-0.640
2020/01/31 18:09:42.6	358.130	-0.300	-0.020	-0.660
2020/01/31 18:09:42.7	358.130	-0.340	0.010	-0.670
2020/01/31 18:09:42.8	358.130	-0.370	0.050	-0.680
2020/01/31 18:09:42.9	358.120	-0.410	0.080	-0.700
2020/01/31 18:09:43.0	358.120	-0.440	0.110	-0.710
2020/01/31 18:09:43.1	358.110	-0.470	0.140	-0.710
2020/01/31 18:09:43.2	358.100	-0.490	0.170	-0.720
2020/01/31 18:09:43.3	358.090	-0.510	0.200	-0.720
2020/01/31 18:09:43.4	358.070	-0.530	0.230	-0.720
2020/01/31 18:09:43.5	358.050	-0.540	0.250	-0.710
2020/01/31 18:09:43.6	358.030	-0.550	0.270	-0.700
2020/01/31 18:09:43.7	358.010	-0.560	0.290	-0.690
2020/01/31 18:09:43.8	357.980	-0.560	0.310	-0.670
2020/01/31 18:09:43.9	357.950	-0.560	0.310	-0.660
2020/01/31 18:09:44.0	357.920	-0.550	0.330	-0.630
2020/01/31 18:09:44.1	357.890	-0.530	0.340	-0.610
2020/01/31 18:09:44.2	357.860	-0.520	0.340	-0.570
2020/01/31 18:09:44.3	357.820	-0.490	0.340	-0.540
2020/01/31 18:09:44.4	357.780	-0.470	0.340	-0.500
2020/01/31 18:09:44.5	357.740	-0.440	0.340	-0.460
2020/01/31 18:09:44.6	357.700	-0.410	0.330	-0.420
2020/01/31 18:09:44.7	357.660	-0.370	0.320	-0.380
2020/01/31 18:09:44.8	357.620	-0.330	0.310	-0.330
2020/01/31 18:09:44.9	357.580	-0.290	0.290	-0.280
2020/01/31 18:09:45.0	357.540	-0.240	0.270	-0.230
2020/01/31 18:09:45.1	357.500	-0.200	0.240	-0.190
2020/01/31 18:09:45.2	357.470	-0.150	0.210	-0.140
2020/01/31 18:09:45.3	357.430	-0.100	0.180	-0.100
2020/01/31 18:09:45.4	357.400	-0.060	0.140	-0.050
2020/01/31 18:09:45.5	357.360	-0.010	0.090	-0.010
2020/01/31 18:09:45.6	357.330	0.040	0.050	0.030
2020/01/31 18:09:45.7	357.310	0.090	-0.000	0.060
2020/01/31 18:09:45.8	357.280	0.130	-0.060	0.100
2020/01/31 18:09:45.9	357.270	0.180	-0.110	0.130
2020/01/31 18:09:46.0	357.250	0.220	-0.170	0.150
2020/01/31 18:09:46.1	357.230	0.260	-0.220	0.180
2020/01/31 18:09:46.2	357.210	0.300	-0.280	0.200
2020/01/31 18:09:46.3	357.200	0.330	-0.330	0.210
2020/01/31 18:09:46.4	357.180	0.360	-0.390	0.230
2020/01/31 18:09:46.5	357.170	0.390	-0.440	0.240
2020/01/31 18:09:46.6	357.160	0.410	-0.490	0.240
2020/01/31 18:09:46.7	357.150	0.430	-0.540	0.250
2020/01/31 18:09:46.8	357.150	0.450	-0.580	0.250
2020/01/31 18:09:46.9	357.150	0.460	-0.620	0.240
2020/01/31 18:09:47.0	357.150	0.460	-0.660	0.230
2020/01/31 18:09:47.1	357.150	0.460	-0.700	0.230
2020/01/31 18:09:47.2	357.150	0.460	-0.730	0.210
2020/01/31 18:09:47.3	357.160	0.460	-0.750	0.200
2020/01/31 18:09:47.4	357.170	0.450	-0.770	0.190
2020/01/31 18:09:47.5	357.180	0.440	-0.780	0.170
2020/01/31 18:09:47.6	357.190	0.420	-0.790	0.160
2020/01/31 18:09:47.7	357.200	0.400	-0.800	0.140
2020/01/31 18:09:47.8	357.220	0.380	-0.800	0.130
2020/01/31 18:09:47.9	357.240	0.350	-0.800	0.110
2020/01/31 18:09:48.0	357.260	0.320	-0.790	0.090
2020/01/31 18:09:48.1	357.280	0.290	-0.780	0.070
2020/01/31 18:09:48.2	357.300	0.260	-0.760	0.050
2020/01/31 18:09:48.3	357.330	0.230	-0.740	0.030
2020/01/31 18:09:48.4	357.350	0.200	-0.720	0.010
2020/01/31 18:09:48.5	357.380	0.160	-0.700	-0.010
2020/01/31 18:09:48.6	357.410	0.130	-0.670	-0.030
2020/01/31 18:09:48.7	357.440	0.100	-0.650	-0.060
2020/01/31 18:09:48.8	357.460	0.060	-0.620	-0.080
2020/01/31 18:09:48.9	357.490	0.030	-0.600	-0.120
2020/01/31 18:09:49.0	357.520	-0.000	-0.570	-0.140
2020/01/31 18:09:49.1	357.550	-0.030	-0.550	-0.170
2020/01/31 18:09:49.2	357.580	-0.060	-0.520	-0.210
2020/01/31 18:09:49.3	357.620	-0.080	-0.500	-0.240
2020/01/31 18:09:49.4	357.650	-0.110	-0.480	-0.270
2020/01/31 18:09:49.5	357.690	-0.130	-0.460	-0.310
2020/01/31 18:09:49.6	357.720	-0.140	-0.440	-0.340
2020/01/31 18:09:49.7	357.760	-0.160	-0.420	-0.380
2020/01/31 18:09:49.8	357.800	-0.170	-0.410	-0.410
2020/01/31 18:09:49.9	357.820	-0.180	-0.400	-0.450
2020/01/31 18:09:50.0	357.860	-0.190	-0.390	-0.480
2020/01/31 18:09:50.1	357.890	-0.190	-0.370	-0.510
2020/01/31 18:09:50.2	357.920	-0.190	-0.370	-0.540
2020/01/31 18:09:50.3	357.950	-0.190	-0.360	-0.560
2020/01/31 18:09:50.4	357.980	-0.190	-0.350	-0.590
2020/01/31 18:09:50.5	358.010	-0.180	-0.340	-0.610
2020/01/31 18:09:50.6	358.030	-0.180	-0.330	-0.630
2020/01/31 18:09:50.7	358.050	-0.170	-0.320	-0.640
2020/01/31 18:09:50.8	358.070	-0.170	-0.310	-0.660
2020/01/31 18:09:50.9	358.090	-0.160	-0.300	-0.670
2020/01/31 18:09:51.0	358.100	-0.150	-0.290	-0.680
2020/01/31 18:09:51.1	358.120	-0.140	-0.270	-0.690
2020/01/31 18:09:51.2	358.130	-0.140	-0.260	-0.690
2020/01/31 18:09:51.3	358.130	-0.130	-0.240	-0.700
2020/01/31 18:09:51.4	358.140	-0.120	-0.220	-0.700
2020/01/31 18:09:51.5	358.140	-0.120	-0.200	-0.700
2020/01/31 18:09:51.6	358.140	-0.120	-0.170	-0.690
2020/01/31 18:09:51.7	358.140	-0.110	-0.150	-0.690
2020/01/31 18:09:51.8	358.130	-0.110	-0.120	-0.680
2020/01/31 18:09:51.9	358.120	-0.110	-0.100	-0.670
2020/01/31 18:09:52.0	358.100	-0.110	-0.070	-0.650
2020/01/31 18:09:52.1	358.090	-0.110	-0.040	-0.630
2020/01/31 18:09:52.2	358.070	-0.110	-0.010	-0.610
2020/01/31 18:09:52.3	358.050	-0.120	0.020	-0.590
2020/01/31 18:09:52.4	358.020	-0.120	0.060	-0.560
2020/01/31 18:09:52.5	358.000	-0.130	0.090	-0.530
2020/01/31 18:09:52.6	357.970	-0.130	0.120	-0.500
2020/01/31 18:09:52.7	357.930	-0.140	0.150	-0.470
2020/01/31 18:09:52.8	357.900	-0.150	0.180	-0.440
2020/01/31 18:09:52.9	357.870	-0.150	0.210	-0.410
2020/01/31 18:09:53.0	357.830	-0.160	0.240	-0.380
2020/01/31 18:09:53.1	357.790	-0.170	0.270	-0.340
2020/01/31 18:09:53.2	357.750	-0.170	0.290	-0.300
2020/01/31 18:09:53.3	357.700	-0.180	0.320	-0.260
2020/01/31 18:09:53.4	357.660	-0.180	0.340	-0.220
2020/01/31 18:09:53.5	357.610	-0.180	0.370	-0.180
2020/01/31 18:09:53.6	357.570	-0.180	0.380	-0.140
2020/01/31 18:09:53.7	357.520	-0.180	0.400	-0.090
2020/01/31 18:09:53.8	357.480	-0.180	0.410	-0.050
2020/01/31 18:09:53.9	357.440	-0.170	0.430	-0.000
2020/01/31 18:09:54.0	357.400	-0.170	0.430	0.040
2020/01/31 18:09:54.1	357.350	-0.150	0.440	0.080
2020/01/31 18:09:54.2	357.310	-0.140	0.430	0.120
2020/01/31 18:09:54.3	357.270	-0.120	0.430	0.160
2020/01/31 18:09:54.4	357.230	-0.110	0.410	0.200
2020/01/31 18:09:54.5	357.200	-0.080	0.400	0.240
2020/01/31 18:09:54.6	357.160	-0.060	0.380	0.270
2020/01/31 18:09:54.7	357.130	-0.030	0.350	0.300
2020/01/31 18:09:54.8	357.100	-0.000	0.320	0.330
2020/01/31 18:09:54.9	357.080	0.030	0.280	0.350
2020/01/31 18:09:55.0	357.050	0.060	0.230	0.370
2020/01/31 18:09:55.1	357.030	0.100	0.190	0.390
2020/01/31 18:09:55.2	357.010	0.130	0.130	0.400
2020/01/31 18:09:55.3	357.000	0.170	0.070	0.410
2020/01/31 18:09:55.4	356.990	0.210	0.010	0.420
2020/01/31 18:09:55.5	356.980	0.240	-0.060	0.420
2020/01/31 18:09:55.6	356.980	0.280	-0.130	0.420
2020/01/31 18:09:55.7	356.980	0.320	-0.200	0.410
2020/01/31 18:09:55.8	356.980	0.350	-0.280	0.400
2020/01/31 18:09:55.9	356.980	0.380	-0.360	0.390
2020/01/31 18:09:56.0	357.000	0.410	-0.440	0.360
2020/01/31 18:09:56.1	357.010	0.440	-0.520	0.340
2020/01/31 18:09:56.2	357.030	0.460	-0.600	0.310
2020/01/31 18:09:56.3	357.050	0.480	-0.680	0.270
2020/01/31 18:09:56.4	357.080	0.500	-0.760	0.230
2020/01/31 18:09:56.5	357.110	0.510	-0.830	0.190
2020/01/31 18:09:56.6	357.140	0.520	-0.900	0.140
2020/01/31 18:09:56.7	357.170	0.520	-0.960	0.090
2020/01/31 18:09:56.8	357.200	0.520	-1.020	0.040
2020/01/31 18:09:56.9	357.240	0.510	-1.080	-0.020
2020/01/31 18:09:57.0	357.270	0.490	-1.120	-0.080
2020/01/31 18:09:57.1	357.300	0.470	-1.160	-0.130
2020/01/31 18:09:57.2	357.340	0.450	-1.190	-0.190
2020/01/31 18:09:57.3	357.370	0.420	-1.210	-0.250
2020/01/31 18:09:57.4	357.400	0.380	-1.220	-0.310
2020/01/31 18:09:57.5	357.430	0.340	-1.230	-0.370
2020/01/31 18:09:57.6	357.460	0.300	-1.220	-0.430
2020/01/31 18:09:57.7	357.480	0.250	-1.210	-0.480
2020/01/31 18:09:57.8	357.510	0.200	-1.180	-0.530
2020/01/31 18:09:57.9	357.540	0.150	-1.150	-0.590
2020/01/31 18:09:58.0	357.570	0.090	-1.110	-0.630
2020/01/31 18:09:58.1	357.590	0.040	-1.070	-0.680
2020/01/31 18:09:58.2	357.620	-0.020	-1.020	-0.720
2020/01/31 18:09:58.3	357.640	-0.080	-0.960	-0.760
2020/01/31 18:09:58.4	357.660	-0.140	-0.900	-0.800
2020/01/31 18:09:58.5	357.690	-0.200	-0.830	-0.830
2020/01/31 18:09:58.6	357.710	-0.260	-0.760	-0.860
2020/01/31 18:09:58.7	357.740	-0.310	-0.690	-0.890
2020/01/31 18:09:58.8	357.760	-0.360	-0.620	-0.910
2020/01/31 18:09:58.9	357.790	-0.420	-0.540	-0.940
2020/01/31 18:09:59.0	357.820	-0.460	-0.470	-0.960
2020/01/31 18:09:59.1	357.840	-0.510	-0.390	-0.970
2020/01/31 18:09:59.2	357.860	-0.540	-0.320	-0.990
2020/01/31 18:09:59.3	357.880	-0.580	-0.250	-1.000
2020/01/31 18:09:59.4	357.900	-0.610	-0.180	-1.000
2020/01/31 18:09:59.5	357.920	-0.630	-0.120	-1.010
2020/01/31 18:09:59.6	357.930	-0.640	-0.060	-1.000
2020/01/31 18:09:59.7	357.940	-0.660	0.000	-1.000
2020/01/31 18:09:59.8	357.960	-0.660	0.050	-0.990
2020/01/31 18:09:59.9	357.960	-0.660	0.100	-0.980
2020/01/31 18:10:00.0	357.970	-0.650	0.140	-0.960
2020/01/31 18:10:00.1	357.970	-0.640	0.180	-0.940
2020/01/31 18:10:00.2	357.970	-0.620	0.210	-0.920
2020/01/31 18:10:00.3	357.970	-0.590	0.230	-0.890
2020/01/31 18:10:00.4	357.960	-0.560	0.260	-0.850
2020/01/31 18:10:00.5	357.950	-0.520	0.270	-0.820
2020/01/31 18:10:00.6	357.930	-0.480	0.280	-0.780
2020/01/31 18:10:00.7	357.920	-0.430	0.290	-0.730
2020/01/31 18:10:00.8	357.890	-0.390	0.290	-0.680
2020/01/31 18:10:00.9	357.850	-0.330	0.290	-0.640
2020/01/31 18:10:01.0	357.820	-0.280	0.280	-0.590
2020/01/31 18:10:01.1	357.790	-0.220	0.270	-0.530
2020/01/31 18:10:01.2	357.750	-0.160	0.260	-0.480
2020/01/31 18:10:01.3	357.710	-0.100	0.250	-0.430
2020/01/31 18:10:01.4	357.670	-0.040	0.230	-0.370
2020/01/31 18:10:01.5	357.630	0.020	0.210	-0.320
2020/01/31 18:10:01.6	357.590	0.080	0.180	-0.270
2020/01/31 18:10:01.7	357.550	0.140	0.160	-0.220
2020/01/31 18:10:01.8	357.500	0.200	0.130	-0.170
2020/01/31 18:10:01.9	357.460	0.260	0.100	-0.120
2020/01/31 18:10:02.0	357.410	0.310	0.070	-0.080
2020/01/31 18:10:02.1	357.380	0.360	0.040	-0.030
2020/01/31 18:10:02.2	357.340	0.410	0.010	0.000
2020/01/31 18:10:02.3	357.300	0.450	-0.020	0.040
2020/01/31 18:10:02.4	357.270	0.490	-0.050	0.070
2020/01/31 18:10:02.5	357.250	0.530	-0.080	0.100
2020/01/31 18:10:02.6	357.220	0.570	-0.110	0.130
2020/01/31 18:10:02.7	357.210	0.590	-0.140	0.150
2020/01/31 18:10:02.8	357.190	0.620	-0.170	0.170
2020/01/31 18:10:02.9	357.180	0.640	-0.200	0.180
2020/01/31 18:10:03.0	357.180	0.660	-0.230	0.190
2020/01/31 18:10:03.1	357.170	0.670	-0.260	0.200
2020/01/31 18:10:03.2	357.180	0.680	-0.280	0.200
2020/01/31 18:10:03.3	357.180	0.690	-0.310	0.200
2020/01/31 18:10:03.4	357.190	0.690	-0.330	0.200
2020/01/31 18:10:03.5	357.200	0.680	-0.350	0.200
2020/01/31 18:10:03.6	357.210	0.680	-0.360	0.190
2020/01/31 18:10:03.7	357.220	0.660	-0.380	0.180
2020/01/31 18:10:03.8	357.230	0.650	-0.390	0.170
2020/01/31 18:10:03.9	357.250	0.630	-0.390	0.150
2020/01/31 18:10:04.0	357.260	0.600	-0.390	0.130
2020/01/31 18:10:04.1	357.280	0.570	-0.390	0.120
2020/01/31 18:10:04.2	357.290	0.540	-0.390	0.100
2020/01/31 18:10:04.3	357.310	0.500	-0.380	0.090
2020/01/31 18:10:04.4	357.320	0.460	-0.360	0.070
2020/01/31 18:10:04.5	357.330	0.420	-0.350	0.050
2020/01/31 18:10:04.6	357.350	0.380	-0.330	0.020
2020/01/31 18:10:04.7	357.360	0.330	-0.310	0.000
2020/01/31 18:10:04.8	357.370	0.280	-0.290	-0.020
2020/01/31 18:10:04.9	357.380	0.230	-0.270	-0.040
2020/01/31 18:10:05.0	357.400	0.180	-0.250	-0.070
2020/01/31 18:10:05.1	357.410	0.120	-0.230	-0.100
2020/01/31 18:10:05.2	357.420	0.070	-0.210	-0.130
2020/01/31 18:10:05.3	357.440	0.010	-0.190	-0.160
2020/01/31 18:10:05.4	357.450	-0.050	-0.170	-0.190
2020/01/31 18:10:05.5	357.460	-0.100	-0.150	-0.220
2020/01/31 18:10:05.6	357.480	-0.160	-0.140	-0.250
2020/01/31 18:10:05.7	357.490	-0.210	-0.130	-0.280
2020/01/31 18:10:05.8	357.510	-0.260	-0.120	-0.310
2020/01/31 18:10:05.9	357.530	-0.310	-0.110	-0.350
2020/01/31 18:10:06.0	357.550	-0.360	-0.100	-0.380
2020/01/31 18:10:06.1	357.560	-0.410	-0.100	-0.410
2020/01/31 18:10:06.2	357.570	-0.460	-0.100	-0.440
2020/01/31 18:10:06.3	357.580	-0.500	-0.110	-0.470
2020/01/31 18:10:06.4	357.590	-0.540	-0.110	-0.500
2020/01/31 18:10:06.5	357.600	-0.570	-0.120	-0.520
2020/01/31 18:10:06.6	357.610	-0.610	-0.130	-0.550
2020/01/31 18:10:06.7	357.620	-0.640	-0.140	-0.570
2020/01/31 18:10:06.8	357.620	-0.660	-0.150	-0.590
2020/01/31 18:10:06.9	357.630	-0.690	-0.170	-0.610
2020/01/31 18:10:07.0	357.630	-0.700	-0.180	-0.620
2020/01/31 18:10:07.1	357.640	-0.720	-0.200	-0.630
2020/01/31 18:10:07.2	357.640	-0.730	-0.210	-0.640
2020/01/31 18:10:07.3	357.640	-0.740	-0.230	-0.650
2020/01/31 18:10:07.4	357.650	-0.740	-0.250	-0.660
2020/01/31 18:10:07.5	357.650	-0.740	-0.270	-0.660
2020/01/31 18:10:07.6	357.650	-0.730	-0.280	-0.660
2020/01/31 18:10:07.7	357.650	-0.720	-0.300	-0.670
2020/01/31 18:10:07.8	357.660	-0.710	-0.320	-0.660
2020/01/31 18:10:07.9	357.670	-0.690	-0.340	-0.670
2020/01/31 18:10:08.0	357.670	-0.670	-0.360	-0.660
2020/01/31 18:10:08.1	357.670	-0.640	-0.380	-0.660
2020/01/31 18:10:08.2	357.680	-0.610	-0.400	-0.650
2020/01/31 18:10:08.3	357.680	-0.580	-0.420	-0.640
2020/01/31 18:10:08.4	357.690	-0.540	-0.440	-0.630
2020/01/31 18:10:08.5	357.690	-0.500	-0.460	-0.620
2020/01/31 18:10:08.6	357.690	-0.460	-0.470	-0.600
2020/01/31 18:10:08.7	357.690	-0.420	-0.490	-0.590
2020/01/31 18:10:08.8	357.690	-0.370	-0.500	-0.570
2020/01/31 18:10:08.9	357.690	-0.320	-0.520	-0.550
2020/01/31 18:10:09.0	357.690	-0.270	-0.530	-0.520
2020/01/31 18:10:09.1	357.690	-0.220	-0.540	-0.500
2020/01/31 18:10:09.2	357.690	-0.170	-0.540	-0.480
2020/01/31 18:10:09.3	357.690	-0.120	-0.550	-0.450
2020/01/31 18:10:09.4	357.690	-0.070	-0.550	-0.420
2020/01/31 18:10:09.5	357.690	-0.010	-0.550	-0.400
2020/01/31 18:10:09.6	357.690	0.040	-0.540	-0.370
2020/01/31 18:10:09.7	357.690	0.090	-0.540	-0.340
2020/01/31 18:10:09.8	357.690	0.140	-0.530	-0.310
2020/01/31 18:10:09.9	357.700	0.190	-0.520	-0.280
2020/01/31 18:10:10.0	357.700	0.230	-0.500	-0.250
2020/01/31 18:10:10.1	357.700	0.280	-0.490	-0.220
2020/01/31 18:10:10.2	357.700	0.320	-0.470	-0.180
2020/01/31 18:10:10.3	357.700	0.360	-0.450	-0.150
2020/01/31 18:10:10.4	357.710	0.400	-0.430	-0.120
2020/01/31 18:10:10.5	357.710	0.430	-0.400	-0.080
2020/01/31 18:10:10.6	357.720	0.460	-0.380	-0.050
2020/01/31 18:10:10.7	357.720	0.490	-0.350	-0.020
2020/01/31 18:10:10.8	357.730	0.520	-0.320	0.020
2020/01/31 18:10:10.9	357.720	0.540	-0.290	0.050
2020/01/31 18:10:11.0	357.730	0.560	-0.260	0.080
2020/01/31 18:10:11.1	357.740	0.570	-0.230	0.110
2020/01/31 18:10:11.2	357.740	0.580	-0.200	0.140
2020/01/31 18:10:11.3	357.750	0.590	-0.170	0.160
2020/01/31 18:10:11.4	357.760	0.600	-0.140	0.190
2020/01/31 18:10:11.5	357.770	0.600	-0.110	0.210
2020/01/31 18:10:11.6	357.780	0.590	-0.080	0.230
2020/01/31 18:10:11.7	357.790	0.590	-0.060	0.240
2020/01/31 18:10:11.8	357.800	0.580	-0.030	0.260
2020/01/31 18:10:11.9	357.810	0.570	-0.000	0.270
2020/01/31 18:10:12.0	357.820	0.560	0.020	0.280
2020/01/31 18:10:12.1	357.830	0.540	0.040	0.290
2020/01/31 18:10:12.2	357.830	0.520	0.060	0.300
2020/01/31 18:10:12.3	357.840	0.500	0.080	0.310
2020/01/31 18:10:12.4	357.850	0.480	0.090	0.320
2020/01/31 18:10:12.5	357.850	0.450	0.110	0.320
2020/01/31 18:10:12.6	357.850	0.430	0.120	0.320
2020/01/31 18:10:12.7	357.860	0.400	0.130	0.330
2020/01/31 18:10:12.8	357.860	0.370	0.130	0.330
2020/01/31 18:10:12.9	357.850	0.340	0.130	0.330
2020/01/31 18:10:13.0	357.850	0.320	0.130	0.320
2020/01/31 18:10:13.1	357.850	0.290	0.120	0.320
2020/01/31 18:10:13.2	357.860	0.260	0.110	0.310
2020/01/31 18:10:13.3	357.860	0.230	0.100	0.300
2020/01/31 18:10:13.4	357.850	0.200	0.080	0.290
2020/01/31 18:10:13.5	357.860	0.170	0.070	0.270
2020/01/31 18:10:13.6	357.860	0.140	0.040	0.260
2020/01/31 18:10:13.7	357.860	0.120	0.010	0.240
2020/01/31 18:10:13.8	357.860	0.090	-0.020	0.220
2020/01/31 18:10:13.9	357.870	0.070	-0.050	0.190
2020/01/31 18:10:14.0	357.870	0.040	-0.090	0.160
2020/01/31 18:10:14.1	357.870	0.020	-0.130	0.130
2020/01/31 18:10:14.2	357.870	-0.000	-0.170	0.100
2020/01/31 18:10:14.3	357.880	-0.020	-0.210	0.070
2020/01/31 18:10:14.4	357.880	-0.040	-0.250	0.040
2020/01/31 18:10:14.5	357.880	-0.060	-0.300	0.000
2020/01/31 18:10:14.6	357.890	-0.080	-0.350	-0.030
2020/01/31 18:10:14.7	357.890	-0.100	-0.390	-0.070
2020/01/31 18:10:14.8	357.900	-0.110	-0.440	-0.110
2020/01/31 18:10:14.9	357.900	-0.130	-0.480	-0.140
2020/01/31 18:10:15.0	357.910	-0.140	-0.520	-0.180
2020/01/31 18:10:15.1	357.920	-0.160	-0.560	-0.210
2020/01/31 18:10:15.2	357.930	-0.170	-0.600	-0.250
2020/01/31 18:10:15.3	357.940	-0.180	-0.640	-0.280
2020/01/31 18:10:15.4	357.950	-0.190	-0.680	-0.320
2020/01/31 18:10:15.5	357.960	-0.200	-0.710	-0.350
2020/01/31 18:10:15.6	357.970	-0.200	-0.730	-0.380
2020/01/31 18:10:15.7	357.980	-0.210	-0.760	-0.410
2020/01/31 18:10:15.8	357.990	-0.220	-0.770	-0.440
2020/01/31 18:10:15.9	357.990	-0.220	-0.790	-0.460
2020/01/31 18:10:16.0	358.010	-0.230	-0.800	-0.490
2020/01/31 18:10:16.1	358.020	-0.230	-0.800	-0.510
2020/01/31 18:10:16.2	358.030	-0.240	-0.800	-0.530
2020/01/31 18:10:16.3	358.040	-0.240	-0.790	-0.550
2020/01/31 18:10:16.4	358.050	-0.240	-0.780	-0.560
2020/01/31 18:10:16.5	358.050	-0.250	-0.760	-0.570
2020/01/31 18:10:16.6	358.060	-0.250	-0.730	-0.580
2020/01/31 18:10:16.7	358.070	-0.250	-0.700	-0.590
2020/01/31 18:10:16.8	358.080	-0.250	-0.670	-0.600
2020/01/31 18:10:16.9	358.090	-0.250	-0.630	-0.600
2020/01/31 18:10:17.0	358.100	-0.250	-0.580	-0.600
2020/01/31 18:10:17.1	358.100	-0.250	-0.530	-0.600
2020/01/31 18:10:17.2	358.110	-0.250	-0.480	-0.590
2020/01/31 18:10:17.3	358.110	-0.240	-0.430	-0.590
2020/01/31 18:10:17.4	358.120	-0.240	-0.370	-0.580
2020/01/31 18:10:17.5	358.120	-0.230	-0.310	-0.560
2020/01/31 18:10:17.6	358.130	-0.230	-0.260	-0.550
2020/01/31 18:10:17.7	358.140	-0.220	-0.200	-0.530
2020/01/31 18:10:17.8	358.140	-0.210	-0.140	-0.520
2020/01/31 18:10:17.9	358.150	-0.210	-0.090	-0.490
2020/01/31 18:10:18.0	358.160	-0.200	-0.040	-0.470
2020/01/31 18:10:18.1	358.170	-0.190	0.010	-0.450
2020/01/31 18:10:18.2	358.180	-0.180	0.060	-0.430
2020/01/31 18:10:18.3	358.190	-0.170	0.100	-0.410
2020/01/31 18:10:18.4	358.200	-0.150	0.140	-0.390
2020/01/31 18:10:18.5	358.210	-0.140	0.170	-0.360
2020/01/31 18:10:18.6	358.230	-0.130	0.200	-0.340
2020/01/31 18:10:18.7	358.240	-0.120	0.230	-0.320
2020/01/31 18:10:18.8	358.250	-0.110	0.240	-0.300
2020/01/31 18:10:18.9	358.250	-0.100	0.260	-0.280
2020/01/31 18:10:19.0	358.260	-0.090	0.270	-0.260
2020/01/31 18:10:19.1	358.270	-0.080	0.280	-0.240
2020/01/31 18:10:19.2	358.280	-0.070	0.280	-0.220
2020/01/31 18:10:19.3	358.280	-0.070	0.280	-0.210
2020/01/31 18:10:19.4	358.290	-0.060	0.270	-0.190
2020/01/31 18:10:19.5	358.290	-0.060	0.260	-0.180
2020/01/31 18:10:19.6	358.290	-0.050	0.250	-0.170
2020/01/31 18:10:19.7	358.290	-0.050	0.240	-0.160
2020/01/31 18:10:19.8	358.280	-0.060	0.220	-0.150
2020/01/31 18:10:19.9	358.270	-0.060	0.200	-0.140
2020/01/31 18:10:20.0	358.260	-0.060	0.180	-0.140
2020/01/31 18:10:20.1	358.250	-0.070	0.160	-0.140
2020/01/31 18:10:20.2	358.230	-0.070	0.140	-0.130
2020/01/31 18:10:20.3	358.220	-0.080	0.110	-0.130
2020/01/31 18:10:20.4	358.200	-0.090	0.090	-0.130
2020/01/31 18:10:20.5	358.190	-0.100	0.060	-0.130
2020/01/31 18:10:20.6	358.170	-0.100	0.030	-0.140
2020/01/31 18:10:20.7	358.150	-0.110	0.000	-0.140
2020/01/31 18:10:20.8	358.130	-0.120	-0.030	-0.140
2020/01/31 18:10:20.9	358.110	-0.130	-0.060	-0.150
2020/01/31 18:10:21.0	358.090	-0.140	-0.090	-0.150
2020/01/31 18:10:21.1	358.070	-0.140	-0.120	-0.150
2020/01/31 18:10:21.2	358.050	-0.150	-0.150	-0.160
2020/01/31 18:10:21.3	358.030	-0.150	-0.190	-0.160
2020/01/31 18:10:21.4	358.010	-0.150	-0.220	-0.170
2020/01/31 18:10:21.5	357.990	-0.150	-0.260	-0.180
2020/01/31 18:10:21.6	357.980	-0.150	-0.290	-0.180
2020/01/31 18:10:21.7	357.970	-0.140	-0.330	-0.190
2020/01/31 18:10:21.8	357.950	-0.130	-0.360	-0.200
2020/01/31 18:10:21.9	357.940	-0.120	-0.410	-0.220
2020/01/31 18:10:22.0	357.930	-0.100	-0.440	-0.230
2020/01/31 18:10:22.1	357.930	-0.090	-0.480	-0.240
2020/01/31 18:10:22.2	357.920	-0.060	-0.520	-0.250
2020/01/31 18:10:22.3	357.920	-0.040	-0.560	-0.270
2020/01/31 18:10:22.4	357.920	-0.010	-0.590	-0.280
2020/01/31 18:10:22.5	357.930	0.020	-0.630	-0.300
2020/01/31 18:10:22.6	357.930	0.060	-0.660	-0.320
2020/01/31 18:10:22.7	357.940	0.100	-0.690	-0.340
2020/01/31 18:10:22.8	357.950	0.140	-0.720	-0.360
2020/01/31 18:10:22.9	357.970	0.180	-0.750	-0.380
2020/01/31 18:10:23.0	357.980	0.220	-0.770	-0.400
2020/01/31 18:10:23.1	358.000	0.270	-0.790	-0.420
2020/01/31 18:10:23.2	358.010	0.310	-0.810	-0.440
2020/01/31 18:10:23.3	358.020	0.360	-0.820	-0.460
2020/01/31 18:10:23.4	358.040	0.400	-0.820	-0.480
2020/01/31 18:10:23.5	358.060	0.450	-0.830	-0.490
2020/01/31 18:10:23.6	358.070	0.490	-0.830	-0.500
2020/01/31 18:10:23.7	358.090	0.540	-0.820	-0.510
2020/01/31 18:10:23.8	358.110	0.580	-0.810	-0.520
2020/01/31 18:10:23.9	358.130	0.620	-0.790	-0.520
2020/01/31 18:10:24.0	358.150	0.650	-0.770	-0.520
2020/01/31 18:10:24.1	358.160	0.680	-0.740	-0.520
2020/01/31 18:10:24.2	358.180	0.710	-0.710	-0.510
2020/01/31 18:10:24.3	358.200	0.730	-0.670	-0.500
2020/01/31 18:10:24.4	358.210	0.750	-0.630	-0.480
2020/01/31 18:10:24.5	358.230	0.760	-0.590	-0.470
2020/01/31 18:10:24.6	358.240	0.770	-0.540	-0.450
2020/01/31 18:10:24.7	358.260	0.770	-0.490	-0.420
2020/01/31 18:10:24.8	358.260	0.770	-0.440	-0.400
2020/01/31 18:10:24.9	358.280	0.760	-0.390	-0.370
2020/01/31 18:10:25.0	358.280	0.740	-0.330	-0.340
2020/01/31 18:10:25.1	358.290	0.720	-0.280	-0.310
2020/01/31 18:10:25.2	358.290	0.690	-0.230	-0.290
2020/01/31 18:10:25.3	358.290	0.660	-0.180	-0.260
2020/01/31 18:10:25.4	358.290	0.620	-0.130	-0.230
2020/01/31 18:10:25.5	358.280	0.580	-0.080	-0.210
2020/01/31 18:10:25.6	358.280	0.530	-0.040	-0.190
2020/01/31 18:10:25.7	358.280	0.480	0.000	-0.180
2020/01/31 18:10:25.8	358.270	0.420	0.040	-0.160
2020/01/31 18:10:25.9	358.270	0.360	0.070	-0.150
2020/01/31 18:10:26.0	358.260	0.300	0.100	-0.140
2020/01/31 18:10:26.1	358.250	0.230	0.120	-0.140
2020/01/31 18:10:26.2	358.240	0.170	0.140	-0.150
2020/01/31 18:10:26.3	358.230	0.100	0.160	-0.150
2020/01/31 18:10:26.4	358.230	0.030	0.170	-0.160
2020/01/31 18:10:26.5	358.220	-0.030	0.170	-0.170
2020/01/31 18:10:26.6	358.210	-0.100	0.180	-0.180
2020/01/31 18:10:26.7	358.200	-0.160	0.170	-0.200
2020/01/31 18:10:26.8	358.190	-0.230	0.170	-0.220
2020/01/31 18:10:26.9	358.200	-0.280	0.160	-0.240
2020/01/31 18:10:27.0	358.190	-0.340	0.150	-0.260
2020/01/31 18:10:27.1	358.180	-0.390	0.130	-0.280
2020/01/31 18:10:27.2	358.180	-0.440	0.120	-0.300
2020/01/31 18:10:27.3	358.170	-0.490	0.100	-0.320
2020/01/31 18:10:27.4	358.170	-0.530	0.080	-0.340
2020/01/31 18:10:27.5	358.160	-0.560	0.050	-0.360
2020/01/31 18:10:27.6	358.160	-0.590	0.030	-0.370
2020/01/31 18:10:27.7	358.160	-0.620	0.010	-0.390
2020/01/31 18:10:27.8	358.150	-0.640	-0.020	-0.410
2020/01/31 18:10:27.9	358.140	-0.660	-0.040	-0.420
2020/01/31 18:10:28.0	358.130	-0.670	-0.060	-0.440
2020/01/31 18:10:28.1	358.130	-0.680	-0.090	-0.450
2020/01/31 18:10:28.2	358.130	-0.680	-0.110	-0.460
2020/01/31 18:10:28.3	358.120	-0.680	-0.130	-0.470
2020/01/31 18:10:28.4	358.120	-0.670	-0.150	-0.480
2020/01/31 18:10:28.5	358.110	-0.660	-0.170	-0.490
2020/01/31 18:10:28.6	358.110	-0.650	-0.190	-0.490
2020/01/31 18:10:28.7	358.100	-0.630	-0.200	-0.490
2020/01/31 18:10:28.8	358.090	-0.610	-0.220	-0.490
2020/01/31 18:10:28.9	358.080	-0.580	-0.230	-0.490
2020/01/31 18:10:29.0	358.070	-0.560	-0.240	-0.480
2020/01/31 18:10:29.1	358.050	-0.530	-0.250	-0.470
2020/01/31 18:10:29.2	358.040	-0.500	-0.260	-0.460
2020/01/31 18:10:29.3	358.020	-0.470	-0.270	-0.450
2020/01/31 18:10:29.4	358.000	-0.440	-0.270	-0.440
2020/01/31 18:10:29.5	357.980	-0.410	-0.270	-0.420
2020/01/31 18:10:29.6	357.970	-0.370	-0.270	-0.410
2020/01/31 18:10:29.7	357.950	-0.340	-0.270	-0.390
2020/01/31 18:10:29.8	357.940	-0.310	-0.270	-0.380
2020/01/31 18:10:29.9	357.930	-0.280	-0.270	-0.360
2020/01/31 18:10:30.0	357.910	-0.250	-0.270	-0.350
2020/01/31 18:10:30.1	357.900	-0.230	-0.270	-0.330
2020/01/31 18:10:30.2	357.890	-0.200	-0.270	-0.320
2020/01/31 18:10:30.3	357.880	-0.180	-0.270	-0.300
2020/01/31 18:10:30.4	357.870	-0.150	-0.270	-0.290
2020/01/31 18:10:30.5	357.870	-0.130	-0.280	-0.280
2020/01/31 18:10:30.6	357.870	-0.110	-0.280	-0.270
2020/01/31 18:10:30.7	357.870	-0.100	-0.290	-0.270
2020/01/31 18:10:30.8	357.880	-0.080	-0.300	-0.260
2020/01/31 18:10:30.9	357.890	-0.060	-0.310	-0.260
2020/01/31 18:10:31.0	357.900	-0.050	-0.320	-0.270
2020/01/31 18:10:31.1	357.920	-0.040	-0.340	-0.270
2020/01/31 18:10:31.2	357.950	-0.020	-0.360	-0.280
2020/01/31 18:10:31.3	357.980	-0.010	-0.380	-0.290
2020/01/31 18:10:31.4	358.010	-0.000	-0.400	-0.310
2020/01/31 18:10:31.5	358.050	0.010	-0.430	-0.330
2020/01/31 18:10:31.6	358.080	0.010	-0.460	-0.350
2020/01/31 18:10:31.7	358.130	0.020	-0.490	-0.370
2020/01/31 18:10:31.8	358.170	0.030	-0.520	-0.400
2020/01/31 18:10:31.9	358.220	0.040	-0.560	-0.430
2020/01/31 18:10:32.0	358.270	0.040	-0.600	-0.460
2020/01/31 18:10:32.1	358.320	0.050	-0.630	-0.490
2020/01/31 18:10:32.2	358.370	0.060	-0.660	-0.530
2020/01/31 18:10:32.3	358.430	0.060	-0.690	-0.570
2020/01/31 18:10:32.4	358.480	0.070	-0.720	-0.600
2020/01/31 18:10:32.5	358.530	0.070	-0.750	-0.640
2020/01/31 18:10:32.6	358.590	0.080	-0.770	-0.680
2020/01/31 18:10:32.7	358.640	0.090	-0.790	-0.710
2020/01/31 18:10:32.8	358.680	0.090	-0.800	-0.730
2020/01/31 18:10:32.9	358.730	0.100	-0.810	-0.770
2020/01/31 18:10:33.0	358.770	0.100	-0.800	-0.790
2020/01/31 18:10:33.1	358.800	0.110	-0.790	-0.800
2020/01/31 18:10:33.2	358.830	0.110	-0.780	-0.810
2020/01/31 18:10:33.3	358.860	0.120	-0.750	-0.810
2020/01/31 18:10:33.4	358.880	0.120	-0.720	-0.800
2020/01/31 18:10:33.5	358.890	0.130	-0.680	-0.790
2020/01/31 18:10:33.6	358.900	0.130	-0.630	-0.770
2020/01/31 18:10:33.7	358.900	0.140	-0.570	-0.750
2020/01/31 18:10:33.8	358.890	0.140	-0.500	-0.720
2020/01/31 18:10:33.9	358.880	0.140	-0.440	-0.680
2020/01/31 18:10:34.0	358.860	0.140	-0.360	-0.640
2020/01/31 18:10:34.1	358.840	0.140	-0.280	-0.600
2020/01/31 18:10:34.2	358.810	0.150	-0.200	-0.550
2020/01/31 18:10:34.3	358.770	0.150	-0.110	-0.500
2020/01/31 18:10:34.4	358.740	0.140	-0.030	-0.450
2020/01/31 18:10:34.5	358.700	0.140	0.060	-0.400
2020/01/31 18:10:34.6	358.650	0.140	0.140	-0.350
2020/01/31 18:10:34.7	358.610	0.140	0.220	-0.290
2020/01/31 18:10:34.8	358.560	0.140	0.300	-0.240
2020/01/31 18:10:34.9	358.510	0.140	0.370	-0.180
2020/01/31 18:10:35.0	358.460	0.140	0.430	-0.130
2020/01/31 18:10:35.1	358.400	0.140	0.490	-0.080
2020/01/31 18:10:35.2	358.350	0.140	0.550	-0.030
2020/01/31 18:10:35.3	358.300	0.140	0.590	0.010
2020/01/31 18:10:35.4	358.250	0.140	0.630	0.060
2020/01/31 18:10:35.5	358.200	0.140	0.660	0.090
2020/01/31 18:10:35.6	358.160	0.140	0.670	0.130
2020/01/31 18:10:35.7	358.110	0.150	0.680	0.160
2020/01/31 18:10:35.8	358.070	0.160	0.680	0.180
2020/01/31 18:10:35.9	358.040	0.160	0.660	0.200
2020/01/31 18:10:36.0	358.000	0.170	0.640	0.220
2020/01/31 18:10:36.1	357.960	0.190	0.610	0.230
2020/01/31 18:10:36.2	357.930	0.200	0.570	0.240
2020/01/31 18:10:36.3	357.910	0.210	0.520	0.240
2020/01/31 18:10:36.4	357.880	0.230	0.460	0.240
2020/01/31 18:10:36.5	357.860	0.250	0.390	0.230
2020/01/31 18:10:36.6	357.850	0.260	0.320	0.220
2020/01/31 18:10:36.7	357.830	0.280	0.250	0.210
2020/01/31 18:10:36.8	357.820	0.300	0.170	0.190
2020/01/31 18:10:36.9	357.810	0.320	0.080	0.170
2020/01/31 18:10:37.0	357.800	0.340	-0.000	0.140
2020/01/31 18:10:37.1	357.800	0.360	-0.090	0.110
2020/01/31 18:10:37.2	357.800	0.370	-0.180	0.080
2020/01/31 18:10:37.3	357.810	0.390	-0.260	0.040
2020/01/31 18:10:37.4	357.810	0.400	-0.350	0.010
2020/01/31 18:10:37.5	357.820	0.410	-0.430	-0.030
2020/01/31 18:10:37.6	357.840	0.420	-0.510	-0.080
2020/01/31 18:10:37.7	357.850	0.430	-0.590	-0.120
2020/01/31 18:10:37.8	357.870	0.430	-0.670	-0.170
2020/01/31 18:10:37.9	357.890	0.430	-0.740	-0.220
2020/01/31 18:10:38.0	357.910	0.430	-0.800	-0.270
2020/01/31 18:10:38.1	357.940	0.430	-0.860	-0.320
2020/01/31 18:10:38.2	357.970	0.420	-0.920	-0.380
2020/01/31 18:10:38.3	358.000	0.410	-0.970	-0.430
2020/01/31 18:10:38.4	358.030	0.400	-1.010	-0.480
2020/01/31 18:10:38.5	358.070	0.380	-1.050	-0.530
2020/01/31 18:10:38.6	358.100	0.360	-1.080	-0.580
2020/01/31 18:10:38.7	358.140	0.340	-1.110	-0.630
2020/01/31 18:10:38.8	358.180	0.320	-1.130	-0.680
2020/01/31 18:10:38.9	358.230	0.290	-1.140	-0.730
2020/01/31 18:10:39.0	358.270	0.260	-1.150	-0.770
2020/01/31 18:10:39.1	358.310	0.240	-1.150	-0.810
2020/01/31 18:10:39.2	358.350	0.200	-1.140	-0.850
2020/01/31 18:10:39.3	358.390	0.170	-1.130	-0.880
2020/01/31 18:10:39.4	358.430	0.140	-1.110	-0.920
2020/01/31 18:10:39.5	358.470	0.110	-1.080	-0.940
2020/01/31 18:10:39.6	358.510	0.070	-1.060	-0.960
2020/01/31 18:10:39.7	358.540	0.040	-1.020	-0.980
2020/01/31 18:10:39.8	358.580	0.000	-0.990	-1.000
2020/01/31 18:10:39.9	358.610	-0.030	-0.940	-1.010
2020/01/31 18:10:40.0	358.640	-0.070	-0.900	-1.020
2020/01/31 18:10:40.1	358.670	-0.100	-0.860	-1.030
2020/01/31 18:10:40.2	358.700	-0.130	-0.810	-1.030
2020/01/31 18:10:40.3	358.730	-0.160	-0.760	-1.030
2020/01/31 18:10:40.4	358.760	-0.190	-0.710	-1.030
2020/01/31 18:10:40.5	358.790	-0.220	-0.660	-1.030
2020/01/31 18:10:40.6	358.820	-0.250	-0.610	-1.030
2020/01/31 18:10:40.7	358.840	-0.270	-0.560	-1.030
2020/01/31 18:10:40.8	358.860	-0.290	-0.510	-1.030
2020/01/31 18:10:40.9	358.890	-0.310	-0.460	-1.020
2020/01/31 18:10:41.0	358.910	-0.330	-0.410	-1.020
2020/01/31 18:10:41.1	358.940	-0.350	-0.360	-1.020
2020/01/31 18:10:41.2	358.960	-0.370	-0.310	-1.020
2020/01/31 18:10:41.3	358.980	-0.380	-0.260	-1.020
2020/01/31 18:10:41.4	359.000	-0.400	-0.220	-1.020
2020/01/31 18:10:41.5	359.020	-0.410	-0.170	-1.020
2020/01/31 18:10:41.6	359.040	-0.420	-0.120	-1.020
2020/01/31 18:10:41.7	359.060	-0.430	-0.080	-1.020
2020/01/31 18:10:41.8	359.080	-0.440	-0.030	-1.010
2020/01/31 18:10:41.9	359.080	-0.450	0.020	-1.010
2020/01/31 18:10:42.0	359.100	-0.460	0.060	-1.000
2020/01/31 18:10:42.1	359.110	-0.460	0.100	-0.990
2020/01/31 18:10:42.2	359.120	-0.470	0.150	-0.980
2020/01/31 18:10:42.3	359.130	-0.480	0.190	-0.970
2020/01/31 18:10:42.4	359.140	-0.480	0.230	-0.950
2020/01/31 18:10:42.5	359.140	-0.490	0.270	-0.930
2020/01/31 18:10:42.6	359.150	-0.490	0.310	-0.910
2020/01/31 18:10:42.7	359.150	-0.500	0.350	-0.890
2020/01/31 18:10:42.8	359.150	-0.500	0.390	-0.860
2020/01/31 18:10:42.9	359.130	-0.500	0.420	-0.840
2020/01/31 18:10:43.0	359.130	-0.510	0.450	-0.810
2020/01/31 18:10:43.1	359.130	-0.510	0.480	-0.780
2020/01/31 18:10:43.2	359.120	-0.510	0.510	-0.750
2020/01/31 18:10:43.3	359.110	-0.520	0.530	-0.720
2020/01/31 18:10:43.4	359.110	-0.520	0.550	-0.690
2020/01/31 18:10:43.5	359.100	-0.520	0.570	-0.660
2020/01/31 18:10:43.6	359.090	-0.520	0.580	-0.630
2020/01/31 18:10:43.7	359.080	-0.510	0.590	-0.600
2020/01/31 18:10:43.8	359.070	-0.510	0.590	-0.570
2020/01/31 18:10:43.9	359.060	-0.500	0.590	-0.540
2020/01/31 18:10:44.0	359.050	-0.500	0.580	-0.520
2020/01/31 18:10:44.1	359.040	-0.490	0.570	-0.490
2020/01/31 18:10:44.2	359.030	-0.470	0.560	-0.460
2020/01/31 18:10:44.3	359.010	-0.460	0.540	-0.430
2020/01/31 18:10:44.4	359.000	-0.440	0.520	-0.400
2020/01/31 18:10:44.5	358.980	-0.420	0.490	-0.370
2020/01/31 18:10:44.6	358.960	-0.400	0.460	-0.340
2020/01/31 18:10:44.7	358.940	-0.370	0.430	-0.310
2020/01/31 18:10:44.8	358.920	-0.350	0.400	-0.280
2020/01/31 18:10:44.9	358.900	-0.310	0.360	-0.250
2020/01/31 18:10:45.0	358.870	-0.280	0.320	-0.210
2020/01/31 18:10:45.1	358.850	-0.240	0.280	-0.180
2020/01/31 18:10:45.2	358.820	-0.200	0.240	-0.140
2020/01/31 18:10:45.3	358.790	-0.160	0.190	-0.090
2020/01/31 18:10:45.4	358.760	-0.120	0.140	-0.050
2020/01/31 18:10:45.5	358.720	-0.070	0.100	-0.010
2020/01/31 18:10:45.6	358.690	-0.020	0.050	0.040
2020/01/31 18:10:45.7	358.650	0.030	-0.000	0.080
2020/01/31 18:10:45.8	358.620	0.070	-0.050	0.130
2020/01/31 18:10:45.9	358.570	0.120	-0.100	0.170
2020/01/31 18:10:46.0	358.540	0.170	-0.150	0.220
2020/01/31 18:10:46.1	358.500	0.220	-0.200	0.260
2020/01/31 18:10:46.2	358.460	0.270	-0.250	0.300
2020/01/31 18:10:46.3	358.420	0.310	-0.300	0.340
2020/01/31 18:10:46.4	358.390	0.350	-0.350	0.370
2020/01/31 18:10:46.5	358.350	0.400	-0.400	0.410
2020/01/31 18:10:46.6	358.320	0.430	-0.450	0.440
2020/01/31 18:10:46.7	358.280	0.470	-0.490	0.460
2020/01/31 18:10:46.8	358.250	0.500	-0.540	0.480
2020/01/31 18:10:46.9	358.230	0.530	-0.580	0.500
2020/01/31 18:10:47.0	358.200	0.560	-0.620	0.520
2020/01/31 18:10:47.1	358.170	0.580	-0.660	0.530
2020/01/31 18:10:47.2	358.150	0.600	-0.700	0.530
2020/01/31 18:10:47.3	358.130	0.610	-0.730	0.530
2020/01/31 18:10:47.4	358.110	0.620	-0.760	0.520
2020/01/31 18:10:47.5	358.090	0.620	-0.790	0.510
2020/01/31 18:10:47.6	358.070	0.630	-0.820	0.490
2020/01/31 18:10:47.7	358.060	0.630	-0.840	0.470
2020/01/31 18:10:47.8	358.050	0.620	-0.870	0.450
2020/01/31 18:10:47.9	358.060	0.610	-0.890	0.410
2020/01/31 18:10:48.0	358.050	0.600	-0.910	0.380
2020/01/31 18:10:48.1	358.050	0.590	-0.920	0.350
2020/01/31 18:10:48.2	358.060	0.570	-0.940	0.310
2020/01/31 18:10:48.3	358.060	0.550	-0.950	0.270
2020/01/31 18:10:48.4	358.070	0.530	-0.960	0.230
2020/01/31 18:10:48.5	358.090	0.510	-0.960	0.190
2020/01/31 18:10:48.6	358.100	0.480	-0.970	0.140
2020/01/31 18:10:48.7	358.120	0.460	-0.970	0.090
2020/01/31 18:10:48.8	358.140	0.430	-0.970	0.040
2020/01/31 18:10:48.9	358.170	0.400	-0.970	-0.010
2020/01/31 18:10:49.0	358.200	0.370	-0.970	-0.060
2020/01/31 18:10:49.1	358.230	0.350	-0.970	-0.120
2020/01/31 18:10:49.2	358.260	0.320	-0.960	-0.170
2020/01/31 18:10:49.3	358.290	0.290	-0.960	-0.230
2020/01/31 18:10:49.4	358.330	0.260	-0.950	-0.280
2020/01/31 18:10:49.5	358.370	0.240	-0.940	-0.340
2020/01/31 18:10:49.6	358.400	0.210	-0.930	-0.400
2020/01/31 18:10:49.7	358.440	0.180	-0.920	-0.460
2020/01/31 18:10:49.8	358.480	0.160	-0.910	-0.510
2020/01/31 18:10:49.9	358.520	0.130	-0.890	-0.570
2020/01/31 18:10:50.0	358.560	0.110	-0.880	-0.620
2020/01/31 18:10:50.1	358.600	0.090	-0.860	-0.680
2020/01/31 18:10:50.2	358.640	0.070	-0.840	-0.730
2020/01/31 18:10:50.3	358.680	0.050	-0.820	-0.780
2020/01/31 18:10:50.4	358.720	0.030	-0.800	-0.830
2020/01/31 18:10:50.5	358.760	0.010	-0.780	-0.870
2020/01/31 18:10:50.6	358.800	-0.000	-0.750	-0.920
2020/01/31 18:10:50.7	358.840	-0.020	-0.730	-0.970
2020/01/31 18:10:50.8	358.880	-0.030	-0.700	-1.010
2020/01/31 18:10:50.9	358.920	-0.050	-0.680	-1.060
2020/01/31 18:10:51.0	358.960	-0.060	-0.650	-1.100
2020/01/31 18:10:51.1	359.000	-0.070	-0.620	-1.140
2020/01/31 18:10:51.2	359.040	-0.080	-0.590	-1.180
2020/01/31 18:10:51.3	359.090	-0.090	-0.570	-1.220
2020/01/31 18:10:51.4	359.130	-0.110	-0.540	-1.260
2020/01/31 18:10:51.5	359.170	-0.120	-0.510	-1.290
2020/01/31 18:10:51.6	359.210	-0.130	-0.480	-1.330
2020/01/31 18:10:51.7	359.250	-0.140	-0.450	-1.350
2020/01/31 18:10:51.8	359.290	-0.140	-0.420	-1.380
2020/01/31 18:10:51.9	359.330	-0.160	-0.380	-1.400
2020/01/31 18:10:52.0	359.360	-0.170	-0.350	-1.420
2020/01/31 18:10:52.1	359.390	-0.180	-0.310	-1.430
2020/01/31 18:10:52.2	359.420	-0.190	-0.280	-1.430
2020/01/31 18:10:52.3	359.440	-0.200	-0.240	-1.430
2020/01/31 18:10:52.4	359.460	-0.210	-0.200	-1.420
2020/01/31 18:10:52.5	359.480	-0.230	-0.150	-1.410
2020/01/31 18:10:52.6	359.490	-0.240	-0.100	-1.390
2020/01/31 18:10:52.7	359.500	-0.260	-0.050	-1.370
2020/01/31 18:10:52.8	359.500	-0.280	-0.000	-1.340
2020/01/31 18:10:52.9	359.500	-0.300	0.050	-1.310
2020/01/31 18:10:53.0	359.500	-0.320	0.110	-1.280
2020/01/31 18:10:53.1	359.490	-0.340	0.160	-1.240
2020/01/31 18:10:53.2	359.480	-0.360	0.220	-1.210
2020/01/31 18:10:53.3	359.460	-0.380	0.280	-1.170
2020/01/31 18:10:53.4	359.450	-0.410	0.350	-1.130
2020/01/31 18:10:53.5	359.430	-0.430	0.410	-1.090
2020/01/31 18:10:53.6	359.400	-0.450	0.470	-1.040
2020/01/31 18:10:53.7	359.380	-0.470	0.540	-0.990
2020/01/31 18:10:53.8	359.350	-0.490	0.600	-0.940
2020/01/31 18:10:53.9	359.310	-0.510	0.660	-0.890
2020/01/31 18:10:54.0	359.280	-0.530	0.720	-0.840
2020/01/31 18:10:54.1	359.240	-0.550	0.780	-0.780
2020/01/31 18:10:54.2	359.210	-0.560	0.830	-0.730
2020/01/31 18:10:54.3	359.180	-0.570	0.890	-0.670
2020/01/31 18:10:54.4	359.140	-0.580	0.930	-0.610
2020/01/31 18:10:54.5	359.110	-0.580	0.970	-0.550
2020/01/31 18:10:54.6	359.070	-0.590	1.010	-0.490
2020/01/31 18:10:54.7	359.040	-0.580	1.040	-0.430
2020/01/31 18:10:54.8	359.000	-0.580	1.060	-0.370
2020/01/31 18:10:54.9	358.970	-0.570	1.080	-0.310
2020/01/31 18:10:55.0	358.930	-0.550	1.090	-0.250
2020/01/31 18:10:55.1	358.900	-0.530	1.090	-0.190
2020/01/31 18:10:55.2	358.860	-0.510	1.080	-0.130
2020/01/31 18:10:55.3	358.820	-0.490	1.060	-0.070
2020/01/31 18:10:55.4	358.780	-0.460	1.040	-0.010
2020/01/31 18:10:55.5	358.730	-0.420	1.010	0.050
2020/01/31 18:10:55.6	358.690	-0.390	0.970	0.110
2020/01/31 18:10:55.7	358.650	-0.350	0.920	0.160
2020/01/31 18:10:55.8	358.600	-0.310	0.870	0.210
2020/01/31 18:10:55.9	358.550	-0.260	0.800	0.260
2020/01/31 18:10:56.0	358.510	-0.210	0.730	0.310
2020/01/31 18:10:56.1	358.460	-0.160	0.650	0.350
2020/01/31 18:10:56.2	358.410	-0.110	0.570	0.380
2020/01/31 18:10:56.3	358.370	-0.060	0.480	0.410
2020/01/31 18:10:56.4	358.320	-0.010	0.390	0.440
2020/01/31 18:10:56.5	358.280	0.040	0.290	0.460
2020/01/31 18:10:56.6	358.230	0.100	0.180	0.480
2020/01/31 18:10:56.7	358.190	0.150	0.080	0.490
2020/01/31 18:10:56.8	358.150	0.200	-0.030	0.500
2020/01/31 18:10:56.9	358.120	0.250	-0.140	0.500
2020/01/31 18:10:57.0	358.080	0.300	-0.250	0.500
2020/01/31 18:10:57.1	358.050	0.350	-0.370	0.490
2020/01/31 18:10:57.2	358.020	0.400	-0.480	0.480
2020/01/31 18:10:57.3	358.000	0.440	-0.590	0.460
2020/01/31 18:10:57.4	357.980	0.480	-0.690	0.450
2020/01/31 18:10:57.5	357.960	0.520	-0.800	0.420
2020/01/31 18:10:57.6	357.940	0.560	-0.900	0.400
2020/01/31 18:10:57.7	357.930	0.590	-0.990	0.370
2020/01/31 18:10:57.8	357.930	0.620	-1.080	0.340
2020/01/31 18:10:57.9	357.930	0.650	-1.170	0.310
2020/01/31 18:10:58.0	357.930	0.670	-1.250	0.280
2020/01/31 18:10:58.1	357.930	0.690	-1.320	0.250
2020/01/31 18:10:58.2	357.930	0.700	-1.380	0.210
2020/01/31 18:10:58.3	357.930	0.710	-1.430	0.180
2020/01/31 18:10:58.4	357.940	0.720	-1.470	0.140
2020/01/31 18:10:58.5	357.940	0.720	-1.500	0.110
2020/01/31 18:10:58.6	357.950	0.720	-1.520	0.080
2020/01/31 18:10:58.7	357.960	0.710	-1.540	0.050
2020/01/31 18:10:58.8	357.960	0.700	-1.540	0.020
2020/01/31 18:10:58.9	357.970	0.690	-1.530	-0.020
2020/01/31 18:10:59.0	357.980	0.670	-1.510	-0.050
2020/01/31 18:10:59.1	357.990	0.650	-1.490	-0.080
2020/01/31 18:10:59.2	358.000	0.630	-1.450	-0.100
2020/01/31 18:10:59.3	358.000	0.600	-1.410	-0.130
2020/01/31 18:10:59.4	358.010	0.580	-1.370	-0.160
2020/01/31 18:10:59.5	358.020	0.540	-1.310	-0.180
2020/01/31 18:10:59.6	358.030	0.510	-1.260	-0.200
2020/01/31 18:10:59.7	358.050	0.480	-1.200	-0.230
2020/01/31 18:10:59.8	358.060	0.440	-1.130	-0.250
2020/01/31 18:10:59.9	358.070	0.400	-1.070	-0.280
2020/01/31 18:11:00.0	358.090	0.370	-1.000	-0.300
2020/01/31 18:11:00.1	358.100	0.330	-0.940	-0.320
2020/01/31 18:11:00.2	358.120	0.290	-0.870	-0.350
2020/01/31 18:11:00.3	358.140	0.250	-0.810	-0.370
2020/01/31 18:11:00.4	358.160	0.220	-0.750	-0.400
2020/01/31 18:11:00.5	358.180	0.180	-0.690	-0.430
2020/01/31 18:11:00.6	358.200	0.140	-0.640	-0.460
2020/01/31 18:11:00.7	358.220	0.110	-0.590	-0.490
2020/01/31 18:11:00.8	358.250	0.080	-0.540	-0.520
2020/01/31 18:11:00.9	358.270	0.050	-0.490	-0.550
2020/01/31 18:11:01.0	358.300	0.020	-0.450	-0.590
2020/01/31 18:11:01.1	358.320	-0.010	-0.420	-0.620
2020/01/31 18:11:01.2	358.350	-0.030	-0.390	-0.660
2020/01/31 18:11:01.3	358.380	-0.050	-0.360	-0.690
2020/01/31 18:11:01.4	358.410	-0.070	-0.340	-0.730
2020/01/31 18:11:01.5	358.440	-0.090	-0.320	-0.760
2020/01/31 18:11:01.6	358.470	-0.110	-0.300	-0.790
2020/01/31 18:11:01.7	358.500	-0.120	-0.280	-0.820
2020/01/31 18:11:01.8	358.530	-0.130	-0.270	-0.850
2020/01/31 18:11:01.9	358.540	-0.140	-0.260	-0.880
2020/01/31 18:11:02.0	358.570	-0.150	-0.250	-0.900
2020/01/31 18:11:02.1	358.600	-0.160	-0.240	-0.910
2020/01/31 18:11:02.2	358.620	-0.160	-0.230	-0.930
2020/01/31 18:11:02.3	358.640	-0.170	-0.220	-0.930
2020/01/31 18:11:02.4	358.660	-0.170	-0.210	-0.940
2020/01/31 18:11:02.5	358.680	-0.180	-0.200	-0.940
2020/01/31 18:11:02.6	358.700	-0.180	-0.190	-0.940
2020/01/31 18:11:02.7	358.720	-0.180	-0.170	-0.930
2020/01/31 18:11:02.8	358.730	-0.190	-0.160	-0.930
2020/01/31 18:11:02.9	358.750	-0.190	-0.140	-0.910
2020/01/31 18:11:03.0	358.760	-0.200	-0.120	-0.900
2020/01/31 18:11:03.1	358.770	-0.200	-0.090	-0.880
2020/01/31 18:11:03.2	358.780	-0.210	-0.070	-0.860
2020/01/31 18:11:03.3	358.790	-0.220	-0.050	-0.850
2020/01/31 18:11:03.4	358.800	-0.230	-0.020	-0.820
2020/01/31 18:11:03.5	358.800	-0.240	0.010	-0.800
2020/01/31 18:11:03.6	358.810	-0.250	0.030	-0.780
2020/01/31 18:11:03.7	358.810	-0.270	0.060	-0.760
2020/01/31 18:11:03.8	358.810	-0.280	0.090	-0.730
2020/01/31 18:11:03.9	358.810	-0.300	0.120	-0.710
2020/01/31 18:11:04.0	358.810	-0.320	0.150	-0.690
2020/01/31 18:11:04.1	358.810	-0.340	0.170	-0.660
2020/01/31 18:11:04.2	358.810	-0.360	0.200	-0.640
2020/01/31 18:11:04.3	358.810	-0.390	0.230	-0.620
2020/01/31 18:11:04.4	358.800	-0.410	0.250	-0.590
2020/01/31 18:11:04.5	358.800	-0.440	0.280	-0.570
2020/01/31 18:11:04.6	358.790	-0.460	0.300	-0.540
2020/01/31 18:11:04.7	358.780	-0.490	0.320	-0.520
2020/01/31 18:11:04.8	358.770	-0.510	0.340	-0.490
2020/01/31 18:11:04.9	358.760	-0.530	0.360	-0.470
2020/01/31 18:11:05.0	358.740	-0.560	0.380	-0.440
2020/01/31 18:11:05.1	358.730	-0.580	0.390	-0.400
2020/01/31 18:11:05.2	358.710	-0.600	0.400	-0.370
2020/01/31 18:11:05.3	358.690	-0.620	0.410	-0.330
2020/01/31 18:11:05.4	358.660	-0.640	0.420	-0.290
2020/01/31 18:11:05.5	358.640	-0.660	0.430	-0.250
2020/01/31 18:11:05.6	358.610	-0.670	0.430	-0.210
2020/01/31 18:11:05.7	358.580	-0.680	0.430	-0.170
2020/01/31 18:11:05.8	358.550	-0.690	0.430	-0.120
2020/01/31 18:11:05.9	358.520	-0.700	0.420	-0.080
2020/01/31 18:11:06.0	358.490	-0.700	0.420	-0.030
2020/01/31 18:11:06.1	358.460	-0.700	0.400	0.010
2020/01/31 18:11:06.2	358.420	-0.700	0.390	0.060
2020/01/31 18:11:06.3	358.390	-0.690	0.370	0.100
2020/01/31 18:11:06.4	358.360	-0.680	0.350	0.150
2020/01/31 18:11:06.5	358.330	-0.660	0.320	0.190
2020/01/31 18:11:06.6	358.300	-0.640	0.290	0.230
2020/01/31 18:11:06.7	358.270	-0.620	0.260	0.260
2020/01/31 18:11:06.8	358.240	-0.590	0.220	0.300
2020/01/31 18:11:06.9	358.220	-0.560	0.170	0.330
2020/01/31 18:11:07.0	358.200	-0.520	0.130	0.360
2020/01/31 18:11:07.1	358.170	-0.480	0.080	0.380
2020/01/31 18:11:07.2	358.150	-0.430	0.030	0.410
2020/01/31 18:11:07.3	358.130	-0.380	-0.020	0.430
2020/01/31 18:11:07.4	358.110	-0.330	-0.070	0.450
2020/01/31 18:11:07.5	358.090	-0.270	-0.120	0.470
2020/01/31 18:11:07.6	358.060	-0.210	-0.170	0.480
2020/01/31 18:11:07.7	358.040	-0.140	-0.220	0.500
2020/01/31 18:11:07.8	358.020	-0.070	-0.260	0.520
2020/01/31 18:11:07.9	358.000	-0.000	-0.310	0.530
2020/01/31 18:11:08.0	357.980	0.070	-0.350	0.550
2020/01/31 18:11:08.1	357.950	0.140	-0.390	0.570
2020/01/31 18:11:08.2	357.930	0.220	-0.420	0.590
2020/01/31 18:11:08.3	357.910	0.300	-0.450	0.620
2020/01/31 18:11:08.4	357.890	0.370	-0.480	0.640
2020/01/31 18:11:08.5	357.870	0.450	-0.500	0.670
2020/01/31 18:11:08.6	357.850	0.530	-0.510	0.690
2020/01/31 18:11:08.7	357.820	0.600	-0.520	0.720
2020/01/31 18:11:08.8	357.800	0.680	-0.530	0.750
2020/01/31 18:11:08.9	357.790	0.750	-0.540	0.790
2020/01/31 18:11:09.0	357.770	0.820	-0.540	0.810
2020/01/31 18:11:09.1	357.750	0.880	-0.530	0.840
2020/01/31 18:11:09.2	357.730	0.940	-0.530	0.870
2020/01/31 18:11:09.3	357.710	1.000	-0.520	0.900
2020/01/31 18:11:09.4	357.700	1.050	-0.510	0.920
2020/01/31 18:11:09.5	357.680	1.100	-0.500	0.940
2020/01/31 18:11:09.6	357.670	1.140	-0.490	0.960
2020/01/31 18:11:09.7	357.650	1.180	-0.480	0.980
2020/01/31 18:11:09.8	357.640	1.210	-0.470	0.990
2020/01/31 18:11:09.9	357.630	1.240	-0.460	0.990
2020/01/31 18:11:10.0	357.620	1.250	-0.460	0.980
2020/01/31 18:11:10.1	357.620	1.260	-0.450	0.970
2020/01/31 18:11:10.2	357.610	1.270	-0.440	0.960
2020/01/31 18:11:10.3	357.610	1.260	-0.440	0.930
2020/01/31 18:11:10.4	357.610	1.250	-0.430	0.900
2020/01/31 18:11:10.5	357.610	1.230	-0.430	0.860
2020/01/31 18:11:10.6	357.620	1.210	-0.440	0.810
2020/01/31 18:11:10.7	357.630	1.180	-0.440	0.760
2020/01/31 18:11:10.8	357.640	1.140	-0.440	0.690
2020/01/31 18:11:10.9	357.650	1.100	-0.450	0.630
2020/01/31 18:11:11.0	357.670	1.050	-0.460	0.550
2020/01/31 18:11:11.1	357.690	1.000	-0.470	0.470
2020/01/31 18:11:11.2	357.720	0.940	-0.480	0.380
2020/01/31 18:11:11.3	357.740	0.880	-0.500	0.290
2020/01/31 18:11:11.4	357.770	0.810	-0.510	0.190
2020/01/31 18:11:11.5	357.800	0.740	-0.520	0.090
2020/01/31 18:11:11.6	357.840	0.660	-0.540	-0.010
2020/01/31 18:11:11.7	357.870	0.590	-0.550	-0.110
2020/01/31 18:11:11.8	357.910	0.510	-0.560	-0.210
2020/01/31 18:11:11.9	357.950	0.430	-0.570	-0.320
2020/01/31 18:11:12.0	357.980	0.350	-0.580	-0.420
2020/01/31 18:11:12.1	358.020	0.270	-0.590	-0.520
2020/01/31 18:11:12.2	358.060	0.180	-0.600	-0.620
2020/01/31 18:11:12.3	358.100	0.100	-0.600	-0.720
2020/01/31 18:11:12.4	358.140	0.020	-0.600	-0.810
2020/01/31 18:11:12.5	358.180	-0.060	-0.600	-0.910
2020/01/31 18:11:12.6	358.220	-0.130	-0.600	-0.990
2020/01/31 18:11:12.7	358.260	-0.210	-0.590	-1.080
2020/01/31 18:11:12.8	358.300	-0.280	-0.580	-1.160
2020/01/31 18:11:12.9	358.330	-0.350	-0.570	-1.230
2020/01/31 18:11:13.0	358.370	-0.420	-0.560	-1.300
2020/01/31 18:11:13.1	358.410	-0.480	-0.550	-1.370
2020/01/31 18:11:13.2	358.440	-0.540	-0.530	-1.430
2020/01/31 18:11:13.3	358.470	-0.590	-0.520	-1.480
2020/01/31 18:11:13.4	358.510	-0.640	-0.500	-1.530
2020/01/31 18:11:13.5	358.530	-0.680	-0.480	-1.570
2020/01/31 18:11:13.6	358.560	-0.720	-0.460	-1.600
2020/01/31 18:11:13.7	358.590	-0.760	-0.450	-1.630
2020/01/31 18:11:13.8	358.610	-0.790	-0.430	-1.650
2020/01/31 18:11:13.9	358.630	-0.820	-0.410	-1.670
2020/01/31 18:11:14.0	358.660	-0.840	-0.390	-1.680
2020/01/31 18:11:14.1	358.670	-0.850	-0.370	-1.680
2020/01/31 18:11:14.2	358.690	-0.870	-0.350	-1.680
2020/01/31 18:11:14.3	358.710	-0.870	-0.330	-1.680
2020/01/31 18:11:14.4	358.720	-0.880	-0.320	-1.670
2020/01/31 18:11:14.5	358.730	-0.880	-0.300	-1.650
2020/01/31 18:11:14.6	358.740	-0.870	-0.290	-1.640
2020/01/31 18:11:14.7	358.750	-0.870	-0.270	-1.620
2020/01/31 18:11:14.8	358.760	-0.860	-0.260	-1.590
2020/01/31 18:11:14.9	358.770	-0.850	-0.250	-1.570
2020/01/31 18:11:15.0	358.770	-0.830	-0.240	-1.540
2020/01/31 18:11:15.1	358.780	-0.820	-0.230	-1.510
2020/01/31 18:11:15.2	358.780	-0.800	-0.220	-1.480
2020/01/31 18:11:15.3	358.780	-0.780	-0.210	-1.440
2020/01/31 18:11:15.4	358.780	-0.760	-0.200	-1.410
2020/01/31 18:11:15.5	358.780	-0.740	-0.190	-1.370
2020/01/31 18:11:15.6	358.780	-0.710	-0.180	-1.330
2020/01/31 18:11:15.7	358.780	-0.690	-0.180	-1.290
2020/01/31 18:11:15.8	358.770	-0.660	-0.170	-1.250
2020/01/31 18:11:15.9	358.770	-0.640	-0.170	-1.200
2020/01/31 18:11:16.0	358.770	-0.610	-0.160	-1.150
2020/01/31 18:11:16.1	358.760	-0.590	-0.160	-1.110
2020/01/31 18:11:16.2	358.760	-0.560	-0.160	-1.060
2020/01/31 18:11:16.3	358.750	-0.530	-0.150	-1.010
2020/01/31 18:11:16.4	358.740	-0.500	-0.150	-0.950
2020/01/31 18:11:16.5	358.740	-0.470	-0.150	-0.900
2020/01/31 18:11:16.6	358.730	-0.440	-0.150	-0.850
2020/01/31 18:11:16.7	358.730	-0.420	-0.150	-0.790
2020/01/31 18:11:16.8	358.720	-0.380	-0.150	-0.730
2020/01/31 18:11:16.9	358.720	-0.350	-0.150	-0.680
2020/01/31 18:11:17.0	358.710	-0.320	-0.140	-0.620
2020/01/31 18:11:17.1	358.710	-0.290	-0.140	-0.560
2020/01/31 18:11:17.2	358.710	-0.260	-0.140	-0.500
2020/01/31 18:11:17.3	358.710	-0.220	-0.140	-0.440
2020/01/31 18:11:17.4	358.700	-0.190	-0.140	-0.370
2020/01/31 18:11:17.5	358.700	-0.150	-0.130	-0.310
2020/01/31 18:11:17.6	358.700	-0.120	-0.130	-0.250
2020/01/31 18:11:17.7	358.700	-0.080	-0.120	-0.180
2020/01/31 18:11:17.8	358.700	-0.040	-0.120	-0.120
2020/01/31 18:11:17.9	358.700	-0.000	-0.110	-0.060
2020/01/31 18:11:18.0	358.700	0.040	-0.100	0.010
2020/01/31 18:11:18.1	358.690	0.070	-0.090	0.070
2020/01/31 18:11:18.2	358.690	0.110	-0.070	0.130
2020/01/31 18:11:18.3	358.690	0.150	-0.060	0.200
2020/01/31 18:11:18.4	358.680	0.190	-0.040	0.260
2020/01/31 18:11:18.5	358.680	0.230	-0.020	0.330
2020/01/31 18:11:18.6	358.670	0.270	-0.000	0.390
2020/01/31 18:11:18.7	358.660	0.310	0.020	0.450
2020/01/31 18:11:18.8	358.660	0.350	0.050	0.520
2020/01/31 18:11:18.9	358.640	0.390	0.080	0.580
2020/01/31 18:11:19.0	358.630	0.420	0.110	0.630
2020/01/31 18:11:19.1	358.620	0.460	0.130	0.690
2020/01/31 18:11:19.2	358.600	0.490	0.160	0.750
2020/01/31 18:11:19.3	358.590	0.520	0.190	0.800
2020/01/31 18:11:19.4	358.570	0.540	0.220	0.840
2020/01/31 18:11:19.5	358.550	0.570	0.240	0.890
2020/01/31 18:11:19.6	358.530	0.590	0.270	0.930
2020/01/31 18:11:19.7	358.510	0.610	0.290	0.970
2020/01/31 18:11:19.8	358.490	0.620	0.310	1.000
2020/01/31 18:11:19.9	358.460	0.630	0.330	1.030
2020/01/31 18:11:20.0	358.430	0.640	0.340	1.060
2020/01/31 18:11:20.1	358.410	0.650	0.350	1.080
2020/01/31 18:11:20.2	358.380	0.650	0.360	1.100
2020/01/31 18:11:20.3	358.350	0.650	0.360	1.110
2020/01/31 18:11:20.4	358.320	0.640	0.360	1.130
2020/01/31 18:11:20.5	358.290	0.640	0.350	1.140
2020/01/31 18:11:20.6	358.260	0.630	0.330	1.140
2020/01/31 18:11:20.7	358.230	0.610	0.310	1.140
2020/01/31 18:11:20.8	358.200	0.600	0.280	1.140
2020/01/31 18:11:20.9	358.180	0.580	0.250	1.140
2020/01/31 18:11:21.0	358.150	0.560	0.210	1.130
2020/01/31 18:11:21.1	358.120	0.540	0.170	1.110
2020/01/31 18:11:21.2	358.100	0.520	0.110	1.090
2020/01/31 18:11:21.3	358.070	0.490	0.060	1.060
2020/01/31 18:11:21.4	358.050	0.460	-0.010	1.020
2020/01/31 18:11:21.5	358.040	0.440	-0.070	0.980
2020/01/31 18:11:21.6	358.030	0.410	-0.150	0.930
2020/01/31 18:11:21.7	358.020	0.380	-0.230	0.880
2020/01/31 18:11:21.8	358.010	0.360	-0.310	0.810
2020/01/31 18:11:21.9	358.010	0.330	-0.390	0.740
2020/01/31 18:11:22.0	358.020	0.300	-0.480	0.660
2020/01/31 18:11:22.1	358.030	0.280	-0.570	0.580
2020/01/31 18:11:22.2	358.040	0.250	-0.660	0.480
2020/01/31 18:11:22.3	358.060	0.230	-0.750	0.390
2020/01/31 18:11:22.4	358.080	0.200	-0.840	0.290
2020/01/31 18:11:22.5	358.110	0.180	-0.930	0.180
2020/01/31 18:11:22.6	358.130	0.160	-1.020	0.080
2020/01/31 18:11:22.7	358.160	0.140	-1.100	-0.020
2020/01/31 18:11:22.8	358.200	0.120	-1.170	-0.130
2020/01/31 18:11:22.9	358.220	0.110	-1.250	-0.240
2020/01/31 18:11:23.0	358.260	0.090	-1.310	-0.340
2020/01/31 18:11:23.1	358.290	0.070	-1.360	-0.430
2020/01/31 18:11:23.2	358.320	0.060	-1.400	-0.520
2020/01/31 18:11:23.3	358.350	0.040	-1.440	-0.600
2020/01/31 18:11:23.4	358.370	0.030	-1.460	-0.680
2020/01/31 18:11:23.5	358.400	0.020	-1.470	-0.760
2020/01/31 18:11:23.6	358.430	0.000	-1.460	-0.820
2020/01/31 18:11:23.7	358.450	-0.010	-1.450	-0.880
2020/01/31 18:11:23.8	358.470	-0.020	-1.430	-0.940
2020/01/31 18:11:23.9	358.490	-0.040	-1.390	-0.990
2020/01/31 18:11:24.0	358.510	-0.050	-1.350	-1.030
2020/01/31 18:11:24.1	358.530	-0.070	-1.290	-1.070
2020/01/31 18:11:24.2	358.540	-0.080	-1.220	-1.110
2020/01/31 18:11:24.3	358.550	-0.100	-1.150	-1.130
2020/01/31 18:11:24.4	358.570	-0.120	-1.070	-1.150
2020/01/31 18:11:24.5	358.580	-0.140	-0.980	-1.170
2020/01/31 18:11:24.6	358.590	-0.150	-0.890	-1.180
2020/01/31 18:11:24.7	358.600	-0.170	-0.790	-1.190
2020/01/31 18:11:24.8	358.600	-0.190	-0.680	-1.190
2020/01/31 18:11:24.9	358.610	-0.210	-0.580	-1.190
2020/01/31 18:11:25.0	358.620	-0.230	-0.470	-1.190
2020/01/31 18:11:25.1	358.620	-0.250	-0.360	-1.180
2020/01/31 18:11:25.2	358.630	-0.270	-0.260	-1.170
2020/01/31 18:11:25.3	358.630	-0.290	-0.150	-1.160
2020/01/31 18:11:25.4	358.630	-0.310	-0.050	-1.140
2020/01/31 18:11:25.5	358.640	-0.330	0.050	-1.120
2020/01/31 18:11:25.6	358.640	-0.350	0.140	-1.100
2020/01/31 18:11:25.7	358.640	-0.360	0.220	-1.080
2020/01/31 18:11:25.8	358.650	-0.380	0.300	-1.060
2020/01/31 18:11:25.9	358.640	-0.390	0.370	-1.030
2020/01/31 18:11:26.0	358.650	-0.410	0.430	-1.000
2020/01/31 18:11:26.1	358.650	-0.420	0.490	-0.970
2020/01/31 18:11:26.2	358.660	-0.420	0.530	-0.940
2020/01/31 18:11:26.3	358.660	-0.430	0.570	-0.900
2020/01/31 18:11:26.4	358.660	-0.440	0.600	-0.860
2020/01/31 18:11:26.5	358.670	-0.440	0.620	-0.820
2020/01/31 18:11:26.6	358.670	-0.440	0.640	-0.780
2020/01/31 18:11:26.7	358.670	-0.440	0.650	-0.740
2020/01/31 18:11:26.8	358.670	-0.430	0.640	-0.700
2020/01/31 18:11:26.9	358.670	-0.430	0.640	-0.650
2020/01/31 18:11:27.0	358.660	-0.420	0.620	-0.610
2020/01/31 18:11:27.1	358.660	-0.410	0.600	-0.560
2020/01/31 18:11:27.2	358.660	-0.390	0.570	-0.520
2020/01/31 18:11:27.3	358.650	-0.380	0.540	-0.470
2020/01/31 18:11:27.4	358.650	-0.360	0.500	-0.420
2020/01/31 18:11:27.5	358.640	-0.340	0.450	-0.370
2020/01/31 18:11:27.6	358.630	-0.320	0.410	-0.320
2020/01/31 18:11:27.7	358.630	-0.300	0.360	-0.270
2020/01/31 18:11:27.8	358.620	-0.270	0.300	-0.230
2020/01/31 18:11:27.9	358.610	-0.250	0.250	-0.180
2020/01/31 18:11:28.0	358.600	-0.220	0.190	-0.130
2020/01/31 18:11:28.1	358.580	-0.190	0.140	-0.080
2020/01/31 18:11:28.2	358.570	-0.160	0.080	-0.030
2020/01/31 18:11:28.3	358.550	-0.130	0.020	0.020
2020/01/31 18:11:28.4	358.530	-0.100	-0.030	0.070
2020/01/31 18:11:28.5	358.520	-0.070	-0.090	0.120
2020/01/31 18:11:28.6	358.500	-0.040	-0.140	0.170
2020/01/31 18:11:28.7	358.480	-0.000	-0.190	0.220
2020/01/31 18:11:28.8	358.460	0.030	-0.230	0.270
2020/01/31 18:11:28.9	358.430	0.060	-0.280	0.320
2020/01/31 18:11:29.0	358.410	0.090	-0.320	0.370
2020/01/31 18:11:29.1	358.390	0.110	-0.360	0.410
2020/01/31 18:11:29.2	358.370	0.140	-0.390	0.460
2020/01/31 18:11:29.3	358.340	0.170	-0.420	0.500
2020/01/31 18:11:29.4	358.320	0.190	-0.440	0.540
2020/01/31 18:11:29.5	358.300	0.210	-0.460	0.570
2020/01/31 18:11:29.6	358.280	0.230	-0.480	0.610
2020/01/31 18:11:29.7	358.260	0.250	-0.490	0.640
2020/01/31 18:11:29.8	358.240	0.260	-0.500	0.670
2020/01/31 18:11:29.9	358.220	0.280	-0.510	0.690
2020/01/31 18:11:30.0	358.210	0.290	-0.510	0.700
2020/01/31 18:11:30.1	358.200	0.300	-0.510	0.720
2020/01/31 18:11:30.2	358.190	0.300	-0.510	0.730
2020/01/31 18:11:30.3	358.180	0.310	-0.510	0.730
2020/01/31 18:11:30.4	358.180	0.310	-0.510	0.730
2020/01/31 18:11:30.5	358.180	0.310	-0.510	0.720
2020/01/31 18:11:30.6	358.180	0.300	-0.500	0.710
2020/01/31 18:11:30.7	358.180	0.300	-0.500	0.690
2020/01/31 18:11:30.8	358.190	0.290	-0.500	0.670
2020/01/31 18:11:30.9	358.210	0.280	-0.500	0.650
2020/01/31 18:11:31.0	358.220	0.270	-0.490	0.620
2020/01/31 18:11:31.1	358.230	0.260	-0.490	0.590
2020/01/31 18:11:31.2	358.250	0.250	-0.490	0.550
2020/01/31 18:11:31.3	358.260	0.230	-0.490	0.520
2020/01/31 18:11:31.4	358.280	0.220	-0.490	0.480
2020/01/31 18:11:31.5	358.300	0.200	-0.490	0.440
2020/01/31 18:11:31.6	358.320	0.190	-0.500	0.390
2020/01/31 18:11:31.7	358.340	0.170	-0.500	0.350
2020/01/31 18:11:31.8	358.360	0.150	-0.510	0.300
2020/01/31 18:11:31.9	358.380	0.130	-0.510	0.250
2020/01/31 18:11:32.0	358.400	0.110	-0.520	0.200
2020/01/31 18:11:32.1	358.420	0.100	-0.520	0.160
2020/01/31 18:11:32.2	358.440	0.080	-0.530	0.110
2020/01/31 18:11:32.3	358.460	0.060	-0.530	0.070
2020/01/31 18:11:32.4	358.480	0.040	-0.530	0.020
2020/01/31 18:11:32.5	358.490	0.030	-0.530	-0.020
2020/01/31 18:11:32.6	358.510	0.010	-0.530	-0.060
2020/01/31 18:11:32.7	358.520	-0.010	-0.530	-0.090
2020/01/31 18:11:32.8	358.530	-0.020	-0.520	-0.130
2020/01/31 18:11:32.9	358.530	-0.040	-0.510	-0.160
2020/01/31 18:11:33.0	358.530	-0.060	-0.500	-0.190
2020/01/31 18:11:33.1	358.530	-0.080	-0.490	-0.210
2020/01/31 18:11:33.2	358.530	-0.090	-0.470	-0.230
2020/01/31 18:11:33.3	358.520	-0.110	-0.450	-0.250
2020/01/31 18:11:33.4	358.510	-0.130	-0.420	-0.260
2020/01/31 18:11:33.5	358.490	-0.140	-0.390	-0.270
2020/01/31 18:11:33.6	358.470	-0.160	-0.360	-0.280
2020/01/31 18:11:33.7	358.440	-0.170	-0.330	-0.280
2020/01/31 18:11:33.8	358.410	-0.190	-0.300	-0.280
2020/01/31 18:11:33.9	358.390	-0.200	-0.260	-0.290
2020/01/31 18:11:34.0	358.350	-0.220	-0.220	-0.290
2020/01/31 18:11:34.1	358.310	-0.230	-0.190	-0.280
2020/01/31 18:11:34.2	358.270	-0.250	-0.150	-0.280
2020/01/31 18:11:34.3	358.230	-0.260	-0.110	-0.270
2020/01/31 18:11:34.4	358.180	-0.270	-0.080	-0.260
2020/01/31 18:11:34.5	358.140	-0.270	-0.040	-0.250
2020/01/31 18:11:34.6	358.090	-0.280	-0.010	-0.240
2020/01/31 18:11:34.7	358.040	-0.290	0.020	-0.230
2020/01/31 18:11:34.8	357.990	-0.290	0.050	-0.210
2020/01/31 18:11:34.9	357.940	-0.290	0.080	-0.200
2020/01/31 18:11:35.0	357.890	-0.280	0.100	-0.180
2020/01/31 18:11:35.1	357.850	-0.270	0.120	-0.160
2020/01/31 18:11:35.2	357.800	-0.260	0.140	-0.140
2020/01/31 18:11:35.3	357.760	-0.250	0.150	-0.120
2020/01/31 18:11:35.4	357.720	-0.230	0.160	-0.090
2020/01/31 18:11:35.5	357.680	-0.210	0.160	-0.070
2020/01/31 18:11:35.6	357.650	-0.180	0.160	-0.040
2020/01/31 18:11:35.7	357.620	-0.150	0.160	-0.020
2020/01/31 18:11:35.8	357.590	-0.120	0.150	0.010
2020/01/31 18:11:35.9	357.570	-0.080	0.130	0.030
2020/01/31 18:11:36.0	357.550	-0.040	0.120	0.050
2020/01/31 18:11:36.1	357.540	-0.000	0.090	0.080
2020/01/31 18:11:36.2	357.520	0.040	0.070	0.100
2020/01/31 18:11:36.3	357.510	0.090	0.040	0.120
2020/01/31 18:11:36.4	357.510	0.140	0.000	0.140
2020/01/31 18:11:36.5	357.510	0.190	-0.030	0.150
2020/01/31 18:11:36.6	357.510	0.240	-0.070	0.160
2020/01/31 18:11:36.7	357.510	0.290	-0.110	0.170
2020/01/31 18:11:36.8	357.520	0.350	-0.150	0.170
2020/01/31 18:11:36.9	357.530	0.390	-0.190	0.180
2020/01/31 18:11:37.0	357.540	0.440	-0.230	0.170
2020/01/31 18:11:37.1	357.550	0.490	-0.270	0.170
2020/01/31 18:11:37.2	357.570	0.530	-0.310	0.160
2020/01/31 18:11:37.3	357.580	0.570	-0.350	0.150
2020/01/31 18:11:37.4	357.600	0.600	-0.380	0.130
2020/01/31 18:11:37.5	357.620	0.630	-0.410	0.110
2020/01/31 18:11:37.6	357.630	0.660	-0.440	0.100
2020/01/31 18:11:37.7	357.650	0.680	-0.470	0.080
2020/01/31 18:11:37.8	357.670	0.690	-0.490	0.060
2020/01/31 18:11:37.9	357.690	0.700	-0.510	0.040
2020/01/31 18:11:38.0	357.710	0.700	-0.520	0.020
2020/01/31 18:11:38.1	357.730	0.700	-0.530	0.000
2020/01/31 18:11:38.2	357.740	0.690	-0.540	-0.020
2020/01/31 18:11:38.3	357.760	0.670	-0.540	-0.040
2020/01/31 18:11:38.4	357.770	0.650	-0.530	-0.050
2020/01/31 18:11:38.5	357.790	0.620	-0.520	-0.070
2020/01/31 18:11:38.6	357.810	0.590	-0.510	-0.080
2020/01/31 18:11:38.7	357.820	0.550	-0.490	-0.090
2020/01/31 18:11:38.8	357.840	0.510	-0.470	-0.100
2020/01/31 18:11:38.9	357.850	0.460	-0.440	-0.110
2020/01/31 18:11:39.0	357.870	0.410	-0.420	-0.120
2020/01/31 18:11:39.1	357.880	0.350	-0.390	-0.120
2020/01/31 18:11:39.2	357.890	0.290	-0.350	-0.130
2020/01/31 18:11:39.3	357.900	0.230	-0.320	-0.130
2020/01/31 18:11:39.4	357.920	0.170	-0.280	-0.130
2020/01/31 18:11:39.5	357.930	0.100	-0.250	-0.140
2020/01/31 18:11:39.6	357.940	0.040	-0.220	-0.140
2020/01/31 18:11:39.7	357.950	-0.030	-0.180	-0.140
2020/01/31 18:11:39.8	357.960	-0.090	-0.150	-0.150
2020/01/31 18:11:39.9	357.970	-0.160	-0.130	-0.160
2020/01/31 18:11:40.0	357.980	-0.220	-0.100	-0.160
2020/01/31 18:11:40.1	357.990	-0.280	-0.080	-0.170
2020/01/31 18:11:40.2	358.000	-0.340	-0.060	-0.180
2020/01/31 18:11:40.3	358.000	-0.390	-0.040	-0.190
2020/01/31 18:11:40.4	358.010	-0.440	-0.030	-0.200
2020/01/31 18:11:40.5	358.020	-0.490	-0.020	-0.210
2020/01/31 18:11:40.6	358.020	-0.530	-0.020	-0.220
2020/01/31 18:11:40.7	358.020	-0.560	-0.020	-0.230
2020/01/31 18:11:40.8	358.020	-0.600	-0.020	-0.240
2020/01/31 18:11:40.9	358.020	-0.620	-0.030	-0.260
2020/01/31 18:11:41.0	358.020	-0.650	-0.030	-0.260
2020/01/31 18:11:41.1	358.020	-0.660	-0.040	-0.270
2020/01/31 18:11:41.2	358.010	-0.670	-0.060	-0.280
2020/01/31 18:11:41.3	358.010	-0.680	-0.070	-0.280
2020/01/31 18:11:41.4	358.000	-0.680	-0.090	-0.290
2020/01/31 18:11:41.5	358.000	-0.680	-0.110	-0.290
2020/01/31 18:11:41.6	357.990	-0.670	-0.130	-0.290
2020/01/31 18:11:41.7	357.980	-0.660	-0.150	-0.290
2020/01/31 18:11:41.8	357.980	-0.640	-0.170	-0.290
2020/01/31 18:11:41.9	357.980	-0.620	-0.200	-0.290
2020/01/31 18:11:42.0	357.970	-0.600	-0.220	-0.290
2020/01/31 18:11:42.1	357.960	-0.570	-0.250	-0.280
2020/01/31 18:11:42.2	357.950	-0.550	-0.280	-0.280
2020/01/31 18:11:42.3	357.950	-0.520	-0.300	-0.270
2020/01/31 18:11:42.4	357.940	-0.480	-0.330	-0.260
2020/01/31 18:11:42.5	357.930	-0.450	-0.350	-0.250
2020/01/31 18:11:42.6	357.920	-0.420	-0.380	-0.230
2020/01/31 18:11:42.7	357.910	-0.390	-0.400	-0.220
2020/01/31 18:11:42.8	357.900	-0.350	-0.420	-0.210
2020/01/31 18:11:42.9	357.900	-0.320	-0.450	-0.200
2020/01/31 18:11:43.0	357.890	-0.290	-0.470	-0.180
2020/01/31 18:11:43.1	357.880	-0.260	-0.480	-0.170
2020/01/31 18:11:43.2	357.870	-0.230	-0.490	-0.160
2020/01/31 18:11:43.3	357.870	-0.210	-0.500	-0.150
2020/01/31 18:11:43.4	357.860	-0.180	-0.510	-0.140
2020/01/31 18:11:43.5	357.850	-0.160	-0.520	-0.130
2020/01/31 18:11:43.6	357.840	-0.140	-0.520	-0.120
2020/01/31 18:11:43.7	357.840	-0.120	-0.510	-0.110
2020/01/31 18:11:43.8	357.830	-0.110	-0.510	-0.100
2020/01/31 18:11:43.9	357.820	-0.100	-0.500	-0.090
2020/01/31 18:11:44.0	357.820	-0.090	-0.480	-0.080
2020/01/31 18:11:44.1	357.820	-0.080	-0.470	-0.070
2020/01/31 18:11:44.2	357.810	-0.070	-0.450	-0.060
2020/01/31 18:11:44.3	357.810	-0.060	-0.430	-0.040
2020/01/31 18:11:44.4	357.810	-0.060	-0.400	-0.030
2020/01/31 18:11:44.5	357.810	-0.060	-0.380	-0.020
2020/01/31 18:11:44.6	357.810	-0.060	-0.350	-0.010
2020/01/31 18:11:44.7	357.810	-0.060	-0.320	0.010
2020/01/31 18:11:44.8	357.820	-0.060	-0.290	0.020
2020/01/31 18:11:44.9	357.810	-0.060	-0.260	0.030
2020/01/31 18:11:45.0	357.820	-0.060	-0.230	0.050
2020/01/31 18:11:45.1	357.820	-0.060	-0.200	0.060
2020/01/31 18:11:45.2	357.830	-0.070	-0.170	0.070
2020/01/31 18:11:45.3	357.830	-0.070	-0.140	0.080
2020/01/31 18:11:45.4	357.840	-0.070	-0.110	0.090
2020/01/31 18:11:45.5	357.840	-0.060	-0.090	0.110
2020/01/31 18:11:45.6	357.850	-0.060	-0.070	0.120
2020/01/31 18:11:45.7	357.850	-0.060	-0.050	0.130
2020/01/31 18:11:45.8	357.860	-0.050	-0.030	0.130
2020/01/31 18:11:45.9	357.870	-0.040	-0.020	0.150
2020/01/31 18:11:46.0	357.880	-0.030	-0.010	0.160
2020/01/31 18:11:46.1	357.880	-0.010	-0.010	0.170
2020/01/31 18:11:46.2	357.890	0.010	-0.010	0.180
2020/01/31 18:11:46.3	357.890	0.030	-0.010	0.190
2020/01/31 18:11:46.4	357.890	0.050	-0.020	0.210
2020/01/31 18:11:46.5	357.890	0.080	-0.030	0.220
2020/01/31 18:11:46.6	357.900	0.100	-0.040	0.240
2020/01/31 18:11:46.7	357.890	0.140	-0.050	0.260
2020/01/31 18:11:46.8	357.890	0.170	-0.070	0.290
2020/01/31 18:11:46.9	357.880	0.200	-0.090	0.310
2020/01/31 18:11:47.0	357.870	0.240	-0.110	0.340
2020/01/31 18:11:47.1	357.860	0.280	-0.130	0.370
2020/01/31 18:11:47.2	357.850	0.310	-0.150	0.400
2020/01/31 18:11:47.3	357.830	0.350	-0.170	0.430
2020/01/31 18:11:47.4	357.800	0.390	-0.190	0.470
2020/01/31 18:11:47.5	357.780	0.430	-0.210	0.500
2020/01/31 18:11:47.6	357.750	0.460	-0.230	0.540
2020/01/31 18:11:47.7	357.720	0.490	-0.250	0.570
2020/01/31 18:11:47.8	357.690	0.520	-0.260	0.610
2020/01/31 18:11:47.9	357.650	0.550	-0.280	0.640
2020/01/31 18:11:48.0	357.610	0.580	-0.290	0.670
2020/01/31 18:11:48.1	357.580	0.600	-0.300	0.700
2020/01/31 18:11:48.2	357.540	0.610	-0.310	0.720
2020/01/31 18:11:48.3	357.500	0.630	-0.320	0.740
2020/01/31 18:11:48.4	357.460	0.640	-0.330	0.750
2020/01/31 18:11:48.5	357.430	0.640	-0.340	0.760
2020/01/31 18:11:48.6	357.400	0.640	-0.350	0.760
2020/01/31 18:11:48.7	357.360	0.640	-0.360	0.760
2020/01/31 18:11:48.8	357.340	0.630	-0.360	0.760
2020/01/31 18:11:48.9	357.300	0.620	-0.370	0.740
2020/01/31 18:11:49.0	357.280	0.610	-0.380	0.720
2020/01/31 18:11:49.1	357.270	0.590	-0.390	0.700
2020/01/31 18:11:49.2	357.250	0.560	-0.390	0.670
2020/01/31 18:11:49.3	357.240	0.540	-0.400	0.630
2020/01/31 18:11:49.4	357.240	0.510	-0.410	0.590
2020/01/31 18:11:49.5	357.240	0.480	-0.420	0.540
2020/01/31 18:11:49.6	357.250	0.440	-0.420	0.490
2020/01/31 18:11:49.7	357.270	0.410	-0.430	0.430
2020/01/31 18:11:49.8	357.280	0.370	-0.440	0.370
2020/01/31 18:11:49.9	357.310	0.330	-0.450	0.300
2020/01/31 18:11:50.0	357.340	0.290	-0.460	0.230
2020/01/31 18:11:50.1	357.370	0.250	-0.460	0.160
2020/01/31 18:11:50.2	357.410	0.210	-0.470	0.080
2020/01/31 18:11:50.3	357.450	0.170	-0.470	0.010
2020/01/31 18:11:50.4	357.490	0.130	-0.470	-0.070
2020/01/31 18:11:50.5	357.540	0.090	-0.470	-0.150
2020/01/31 18:11:50.6	357.590	0.050	-0.470	-0.220
2020/01/31 18:11:50.7	357.630	0.010	-0.460	-0.300
2020/01/31 18:11:50.8	357.680	-0.030	-0.450	-0.370
2020/01/31 18:11:50.9	357.730	-0.070	-0.430	-0.440
2020/01/31 18:11:51.0	357.770	-0.110	-0.410	-0.510
2020/01/31 18:11:51.1	357.820	-0.150	-0.380	-0.570
2020/01/31 18:11:51.2	357.860	-0.190	-0.360	-0.630
2020/01/31 18:11:51.3	357.910	-0.230	-0.320	-0.690
2020/01/31 18:11:51.4	357.940	-0.260	-0.290	-0.740
2020/01/31 18:11:51.5	357.980	-0.300	-0.250	-0.790
2020/01/31 18:11:51.6	358.020	-0.330	-0.210	-0.840
2020/01/31 18:11:51.7	358.050	-0.370	-0.160	-0.880
2020/01/31 18:11:51.8	358.080	-0.400	-0.120	-0.920
2020/01/31 18:11:51.9	358.100	-0.430	-0.070	-0.950
2020/01/31 18:11:52.0	358.120	-0.460	-0.020	-0.980
2020/01/31 18:11:52.1	358.140	-0.490	0.030	-1.010
2020/01/31 18:11:52.2	358.160	-0.520	0.070	-1.030
2020/01/31 18:11:52.3	358.170	-0.550	0.110	-1.040
2020/01/31 18:11:52.4	358.190	-0.570	0.150	-1.050
2020/01/31 18:11:52.5	358.200	-0.590	0.190	-1.060
2020/01/31 18:11:52.6	358.210	-0.610	0.230	-1.060
2020/01/31 18:11:52.7	358.210	-0.630	0.260	-1.060
2020/01/31 18:11:52.8	358.220	-0.640	0.280	-1.050
2020/01/31 18:11:52.9	358.210	-0.660	0.300	-1.040
2020/01/31 18:11:53.0	358.210	-0.670	0.310	-1.020
2020/01/31 18:11:53.1	358.210	-0.680	0.320	-1.000
2020/01/31 18:11:53.2	358.210	-0.680	0.330	-0.970
2020/01/31 18:11:53.3	358.200	-0.680	0.320	-0.950
2020/01/31 18:11:53.4	358.200	-0.680	0.310	-0.910
2020/01/31 18:11:53.5	358.190	-0.670	0.300	-0.880
2020/01/31 18:11:53.6	358.180	-0.670	0.280	-0.840
2020/01/31 18:11:53.7	358.160	-0.660	0.250	-0.800
2020/01/31 18:11:53.8	358.150	-0.640	0.220	-0.760
2020/01/31 18:11:53.9	358.130	-0.630	0.180	-0.720
2020/01/31 18:11:54.0	358.110	-0.610	0.140	-0.670
2020/01/31 18:11:54.1	358.090	-0.580	0.090	-0.630
2020/01/31 18:11:54.2	358.070	-0.560	0.040	-0.580
2020/01/31 18:11:54.3	358.050	-0.530	-0.010	-0.540
2020/01/31 18:11:54.4	358.040	-0.500	-0.060	-0.500
2020/01/31 18:11:54.5	358.020	-0.460	-0.120	-0.460
2020/01/31 18:11:54.6	358.000	-0.430	-0.180	-0.420
2020/01/31 18:11:54.7	357.980	-0.390	-0.240	-0.390
2020/01/31 18:11:54.8	357.960	-0.350	-0.300	-0.350
2020/01/31 18:11:54.9	357.940	-0.300	-0.350	-0.310
2020/01/31 18:11:55.0	357.930	-0.260	-0.410	-0.280
2020/01/31 18:11:55.1	357.910	-0.210	-0.470	-0.240
2020/01/31 18:11:55.2	357.890	-0.160	-0.520	-0.210
2020/01/31 18:11:55.3	357.880	-0.110	-0.570	-0.170
2020/01/31 18:11:55.4	357.860	-0.060	-0.620	-0.140
2020/01/31 18:11:55.5	357.850	-0.010	-0.660	-0.100
2020/01/31 18:11:55.6	357.830	0.040	-0.700	-0.070
2020/01/31 18:11:55.7	357.820	0.090	-0.740	-0.030
2020/01/31 18:11:55.8	357.800	0.140	-0.770	0.000
2020/01/31 18:11:55.9	357.790	0.190	-0.790	0.040
2020/01/31 18:11:56.0	357.780	0.240	-0.810	0.070
2020/01/31 18:11:56.1	357.770	0.290	-0.830	0.110
2020/01/31 18:11:56.2	357.760	0.340	-0.830	0.140
2020/01/31 18:11:56.3	357.750	0.380	-0.840	0.170
2020/01/31 18:11:56.4	357.740	0.420	-0.830	0.210
2020/01/31 18:11:56.5	357.730	0.450	-0.830	0.240
2020/01/31 18:11:56.6	357.720	0.490	-0.810	0.270
2020/01/31 18:11:56.7	357.700	0.520	-0.790	0.300
2020/01/31 18:11:56.8	357.690	0.540	-0.770	0.330
2020/01/31 18:11:56.9	357.680	0.560	-0.740	0.350
2020/01/31 18:11:57.0	357.670	0.580	-0.710	0.380
2020/01/31 18:11:57.1	357.650	0.590	-0.680	0.390
2020/01/31 18:11:57.2	357.640	0.590	-0.640	0.410
2020/01/31 18:11:57.3	357.620	0.590	-0.600	0.420
2020/01/31 18:11:57.4	357.600	0.590	-0.560	0.420
2020/01/31 18:11:57.5	357.590	0.580	-0.520	0.420
2020/01/31 18:11:57.6	357.580	0.570	-0.480	0.410
2020/01/31 18:11:57.7	357.560	0.550	-0.440	0.400
2020/01/31 18:11:57.8	357.550	0.530	-0.400	0.390
2020/01/31 18:11:57.9	357.540	0.510	-0.360	0.370
2020/01/31 18:11:58.0	357.530	0.480	-0.330	0.340
2020/01/31 18:11:58.1	357.520	0.440	-0.290	0.320
2020/01/31 18:11:58.2	357.510	0.410	-0.260	0.280
2020/01/31 18:11:58.3	357.500	0.370	-0.230	0.240
2020/01/31 18:11:58.4	357.500	0.330	-0.210	0.200
2020/01/31 18:11:58.5	357.500	0.290	-0.180	0.160
2020/01/31 18:11:58.6	357.500	0.250	-0.170	0.120
2020/01/31 18:11:58.7	357.500	0.210	-0.150	0.070
2020/01/31 18:11:58.8	357.500	0.170	-0.140	0.020
2020/01/31 18:11:58.9	357.520	0.130	-0.130	-0.040
2020/01/31 18:11:59.0	357.530	0.090	-0.120	-0.080
2020/01/31 18:11:59.1	357.540	0.050	-0.120	-0.130
2020/01/31 18:11:59.2	357.550	0.010	-0.120	-0.180
2020/01/31 18:11:59.3	357.560	-0.020	-0.120	-0.220
2020/01/31 18:11:59.4	357.570	-0.050	-0.130	-0.260
2020/01/31 18:11:59.5	357.590	-0.080	-0.130	-0.300
2020/01/31 18:11:59.6	357.600	-0.100	-0.140	-0.340
2020/01/31 18:11:59.7	357.620	-0.120	-0.150	-0.370
2020/01/31 18:11:59.8	357.630	-0.140	-0.160	-0.400
2020/01/31 18:11:59.9	357.640	-0.150	-0.170	-0.430
2020/01/31 18:12:00.0	357.660	-0.160	-0.170	-0.450
2020/01/31 18:12:00.1	357.670	-0.170	-0.180	-0.470
2020/01/31 18:12:00.2	357.690	-0.170	-0.190	-0.490
2020/01/31 18:12:00.3	357.700	-0.170	-0.190	-0.500
2020/01/31 18:12:00.4	357.710	-0.170	-0.200	-0.520
2020/01/31 18:12:00.5	357.720	-0.170	-0.200	-0.520
2020/01/31 18:12:00.6	357.730	-0.160	-0.200	-0.530
2020/01/31 18:12:00.7	357.730	-0.150	-0.190	-0.530
2020/01/31 18:12:00.8	357.740	-0.140	-0.190	-0.530
2020/01/31 18:12:00.9	357.740	-0.130	-0.180	-0.530
2020/01/31 18:12:01.0	357.740	-0.110	-0.170	-0.520
2020/01/31 18:12:01.1	357.740	-0.100	-0.160	-0.510
2020/01/31 18:12:01.2	357.740	-0.090	-0.150	-0.500
2020/01/31 18:12:01.3	357.740	-0.070	-0.140	-0.490
2020/01/31 18:12:01.4	357.730	-0.060	-0.120	-0.470
2020/01/31 18:12:01.5	357.730	-0.040	-0.110	-0.460
2020/01/31 18:12:01.6	357.720	-0.030	-0.090	-0.440
2020/01/31 18:12:01.7	357.720	-0.020	-0.080	-0.430
2020/01/31 18:12:01.8	357.710	-0.010	-0.060	-0.410
2020/01/31 18:12:01.9	357.710	0.000	-0.050	-0.390
2020/01/31 18:12:02.0	357.700	0.010	-0.040	-0.380
2020/01/31 18:12:02.1	357.700	0.020	-0.030	-0.360
2020/01/31 18:12:02.2	357.700	0.030	-0.030	-0.350
2020/01/31 18:12:02.3	357.690	0.030	-0.020	-0.330
2020/01/31 18:12:02.4	357.690	0.040	-0.020	-0.320
2020/01/31 18:12:02.5	357.700	0.040	-0.020	-0.310
2020/01/31 18:12:02.6	357.700	0.040	-0.030	-0.290
2020/01/31 18:12:02.7	357.700	0.030	-0.040	-0.280
2020/01/31 18:12:02.8	357.710	0.030	-0.040	-0.280
2020/01/31 18:12:02.9	357.720	0.030	-0.060	-0.270
2020/01/31 18:12:03.0	357.730	0.020	-0.070	-0.260
2020/01/31 18:12:03.1	357.740	0.010	-0.090	-0.250
2020/01/31 18:12:03.2	357.750	-0.000	-0.110	-0.250
2020/01/31 18:12:03.3	357.760	-0.010	-0.130	-0.250
2020/01/31 18:12:03.4	357.770	-0.030	-0.160	-0.250
2020/01/31 18:12:03.5	357.790	-0.040	-0.180	-0.260
2020/01/31 18:12:03.6	357.800	-0.060	-0.210	-0.270
2020/01/31 18:12:03.7	357.820	-0.070	-0.240	-0.280
2020/01/31 18:12:03.8	357.840	-0.090	-0.270	-0.300
2020/01/31 18:12:03.9	357.860	-0.110	-0.300	-0.330
2020/01/31 18:12:04.0	357.880	-0.130	-0.330	-0.360
2020/01/31 18:12:04.1	357.900	-0.150	-0.350	-0.390
2020/01/31 18:12:04.2	357.920	-0.160	-0.380	-0.420
2020/01/31 18:12:04.3	357.940	-0.180	-0.400	-0.450
2020/01/31 18:12:04.4	357.970	-0.200	-0.420	-0.490
2020/01/31 18:12:04.5	357.990	-0.220	-0.440	-0.530
2020/01/31 18:12:04.6	358.010	-0.230	-0.450	-0.570
2020/01/31 18:12:04.7	358.030	-0.250	-0.460	-0.600
2020/01/31 18:12:04.8	358.050	-0.260	-0.470	-0.640
2020/01/31 18:12:04.9	358.070	-0.280	-0.460	-0.670
2020/01/31 18:12:05.0	358.080	-0.290	-0.460	-0.700
2020/01/31 18:12:05.1	358.100	-0.300	-0.450	-0.720
2020/01/31 18:12:05.2	358.110	-0.310	-0.430	-0.740
2020/01/31 18:12:05.3	358.120	-0.310	-0.410	-0.750
2020/01/31 18:12:05.4	358.130	-0.320	-0.390	-0.760
2020/01/31 18:12:05.5	358.140	-0.320	-0.350	-0.760
2020/01/31 18:12:05.6	358.140	-0.330	-0.320	-0.760
2020/01/31 18:12:05.7	358.140	-0.330	-0.280	-0.750
2020/01/31 18:12:05.8	358.130	-0.330	-0.240	-0.740
2020/01/31 18:12:05.9	358.130	-0.330	-0.190	-0.720
2020/01/31 18:12:06.0	358.120	-0.320	-0.150	-0.690
2020/01/31 18:12:06.1	358.110	-0.320	-0.100	-0.660
2020/01/31 18:12:06.2	358.100	-0.310	-0.050	-0.630
2020/01/31 18:12:06.3	358.080	-0.310	0.000	-0.590
2020/01/31 18:12:06.4	358.070	-0.300	0.050	-0.550
2020/01/31 18:12:06.5	358.050	-0.290	0.100	-0.510
2020/01/31 18:12:06.6	358.030	-0.280	0.140	-0.460
2020/01/31 18:12:06.7	358.010	-0.270	0.180	-0.420
2020/01/31 18:12:06.8	357.990	-0.260	0.210	-0.370
2020/01/31 18:12:06.9	357.960	-0.240	0.240	-0.320
2020/01/31 18:12:07.0	357.940	-0.230	0.270	-0.280
2020/01/31 18:12:07.1	357.910	-0.210	0.290	-0.230
2020/01/31 18:12:07.2	357.890	-0.200	0.300	-0.180
2020/01/31 18:12:07.3	357.860	-0.180	0.310	-0.140
2020/01/31 18:12:07.4	357.830	-0.170	0.310	-0.100
2020/01/31 18:12:07.5	357.800	-0.150	0.300	-0.060
2020/01/31 18:12:07.6	357.780	-0.130	0.280	-0.020
2020/01/31 18:12:07.7	357.750	-0.110	0.270	0.010
2020/01/31 18:12:07.8	357.720	-0.090	0.240	0.050
2020/01/31 18:12:07.9	357.690	-0.070	0.210	0.080
2020/01/31 18:12:08.0	357.660	-0.050	0.170	0.100
2020/01/31 18:12:08.1	357.630	-0.030	0.130	0.130
2020/01/31 18:12:08.2	357.610	-0.010	0.080	0.150
2020/01/31 18:12:08.3	357.580	0.010	0.030	0.160
2020/01/31 18:12:08.4	357.550	0.030	-0.020	0.180
2020/01/31 18:12:08.5	357.530	0.050	-0.080	0.190
2020/01/31 18:12:08.6	357.500	0.080	-0.140	0.200
2020/01/31 18:12:08.7	357.480	0.100	-0.190	0.210
2020/01/31 18:12:08.8	357.460	0.120	-0.250	0.210
2020/01/31 18:12:08.9	357.430	0.140	-0.310	0.210
2020/01/31 18:12:09.0	357.410	0.160	-0.370	0.210
2020/01/31 18:12:09.1	357.390	0.190	-0.430	0.210
2020/01/31 18:12:09.2	357.370	0.210	-0.480	0.220
2020/01/31 18:12:09.3	357.350	0.230	-0.530	0.220
2020/01/31 18:12:09.4	357.330	0.250	-0.580	0.220
2020/01/31 18:12:09.5	357.310	0.270	-0.620	0.220
2020/01/31 18:12:09.6	357.290	0.300	-0.660	0.230
2020/01/31 18:12:09.7	357.270	0.320	-0.700	0.230
2020/01/31 18:12:09.8	357.250	0.340	-0.730	0.240
2020/01/31 18:12:09.9	357.240	0.360	-0.750	0.250
2020/01/31 18:12:10.0	357.220	0.380	-0.770	0.260
2020/01/31 18:12:10.1	357.210	0.400	-0.790	0.270
2020/01/31 18:12:10.2	357.190	0.410	-0.800	0.280
2020/01/31 18:12:10.3	357.180	0.430	-0.800	0.290
2020/01/31 18:12:10.4	357.170	0.450	-0.800	0.300
2020/01/31 18:12:10.5	357.160	0.460	-0.800	0.320
2020/01/31 18:12:10.6	357.150	0.480	-0.790	0.330
2020/01/31 18:12:10.7	357.140	0.490	-0.780	0.340
2020/01/31 18:12:10.8	357.140	0.500	-0.770	0.350
2020/01/31 18:12:10.9	357.140	0.510	-0.760	0.350
2020/01/31 18:12:11.0	357.150	0.520	-0.750	0.350
2020/01/31 18:12:11.1	357.150	0.530	-0.740	0.350
2020/01/31 18:12:11.2	357.170	0.540	-0.730	0.350
2020/01/31 18:12:11.3	357.180	0.540	-0.720	0.340
2020/01/31 18:12:11.4	357.200	0.540	-0.710	0.320
2020/01/31 18:12:11.5	357.230	0.550	-0.700	0.300
2020/01/31 18:12:11.6	357.260	0.550	-0.700	0.280
2020/01/31 18:12:11.7	357.290	0.550	-0.700	0.250
2020/01/31 18:12:11.8	357.320	0.550	-0.700	0.220
2020/01/31 18:12:11.9	357.360	0.540	-0.700	0.170
2020/01/31 18:12:12.0	357.400	0.540	-0.700	0.140
2020/01/31 18:12:12.1	357.450	0.530	-0.710	0.090
2020/01/31 18:12:12.2	357.490	0.520	-0.720	0.050
2020/01/31 18:12:12.3	357.530	0.510	-0.720	0.000
2020/01/31 18:12:12.4	357.580	0.490	-0.730	-0.050
2020/01/31 18:12:12.5	357.630	0.480	-0.740	-0.100
2020/01/31 18:12:12.6	357.670	0.460	-0.740	-0.150
2020/01/31 18:12:12.7	357.720	0.440	-0.750	-0.200
2020/01/31 18:12:12.8	357.770	0.410	-0.760	-0.260
2020/01/31 18:12:12.9	357.810	0.390	-0.760	-0.310
2020/01/31 18:12:13.0	357.860	0.360	-0.760	-0.370
2020/01/31 18:12:13.1	357.900	0.320	-0.760	-0.430
2020/01/31 18:12:13.2	357.950	0.290	-0.760	-0.480
2020/01/31 18:12:13.3	357.990	0.260	-0.750	-0.540
2020/01/31 18:12:13.4	358.030	0.220	-0.740	-0.590
2020/01/31 18:12:13.5	358.070	0.180	-0.720	-0.640
2020/01/31 18:12:13.6	358.100	0.140	-0.700	-0.690
2020/01/31 18:12:13.7	358.140	0.100	-0.680	-0.740
2020/01/31 18:12:13.8	358.170	0.050	-0.650	-0.780
2020/01/31 18:12:13.9	358.190	0.010	-0.610	-0.820
2020/01/31 18:12:14.0	358.210	-0.040	-0.570	-0.860
2020/01/31 18:12:14.1	358.240	-0.090	-0.530	-0.890
2020/01/31 18:12:14.2	358.260	-0.130	-0.480	-0.910
2020/01/31 18:12:14.3	358.270	-0.180	-0.420	-0.930
2020/01/31 18:12:14.4	358.280	-0.230	-0.370	-0.950
2020/01/31 18:12:14.5	358.290	-0.280	-0.300	-0.960
2020/01/31 18:12:14.6	358.300	-0.320	-0.240	-0.970
2020/01/31 18:12:14.7	358.300	-0.370	-0.170	-0.970
2020/01/31 18:12:14.8	358.300	-0.420	-0.100	-0.970
2020/01/31 18:12:14.9	358.300	-0.460	-0.030	-0.970
2020/01/31 18:12:15.0	358.300	-0.500	0.050	-0.960
2020/01/31 18:12:15.1	358.290	-0.550	0.120	-0.960
2020/01/31 18:12:15.2	358.280	-0.580	0.200	-0.950
2020/01/31 18:12:15.3	358.270	-0.620	0.270	-0.940
2020/01/31 18:12:15.4	358.260	-0.660	0.340	-0.920
2020/01/31 18:12:15.5	358.250	-0.690	0.410	-0.910
2020/01/31 18:12:15.6	358.240	-0.720	0.480	-0.890
2020/01/31 18:12:15.7	358.220	-0.750	0.550	-0.880
2020/01/31 18:12:15.8	358.200	-0.770	0.610	-0.860
2020/01/31 18:12:15.9	358.190	-0.790	0.670	-0.850
2020/01/31 18:12:16.0	358.170	-0.810	0.720	-0.830
2020/01/31 18:12:16.1	358.140	-0.820	0.770	-0.810
2020/01/31 18:12:16.2	358.120	-0.830	0.820	-0.780
2020/01/31 18:12:16.3	358.100	-0.840	0.860	-0.760
2020/01/31 18:12:16.4	358.070	-0.840	0.890	-0.730
2020/01/31 18:12:16.5	358.040	-0.840	0.920	-0.690
2020/01/31 18:12:16.6	358.010	-0.830	0.940	-0.660
2020/01/31 18:12:16.7	357.980	-0.820	0.960	-0.620
2020/01/31 18:12:16.8	357.940	-0.810	0.970	-0.570
2020/01/31 18:12:16.9	357.910	-0.800	0.980	-0.520
2020/01/31 18:12:17.0	357.870	-0.780	0.980	-0.470
2020/01/31 18:12:17.1	357.840	-0.750	0.980	-0.420
2020/01/31 18:12:17.2	357.800	-0.730	0.970	-0.370
2020/01/31 18:12:17.3	357.760	-0.700	0.950	-0.310
2020/01/31 18:12:17.4	357.720	-0.670	0.930	-0.260
2020/01/31 18:12:17.5	357.680	-0.640	0.900	-0.200
2020/01/31 18:12:17.6	357.640	-0.600	0.870	-0.140
2020/01/31 18:12:17.7	357.600	-0.560	0.830	-0.080
2020/01/31 18:12:17.8	357.560	-0.520	0.790	-0.030
2020/01/31 18:12:17.9	357.510	-0.480	0.740	0.030
2020/01/31 18:12:18.0	357.470	-0.440	0.690	0.080
2020/01/31 18:12:18.1	357.430	-0.390	0.630	0.140
2020/01/31 18:12:18.2	357.390	-0.350	0.570	0.190
2020/01/31 18:12:18.3	357.350	-0.300	0.500	0.240
2020/01/31 18:12:18.4	357.310	-0.260	0.440	0.290
2020/01/31 18:12:18.5	357.260	-0.210	0.370	0.330
2020/01/31 18:12:18.6	357.220	-0.160	0.300	0.380
2020/01/31 18:12:18.7	357.180	-0.110	0.220	0.420
2020/01/31 18:12:18.8	357.140	-0.060	0.150	0.460
2020/01/31 18:12:18.9	357.100	-0.010	0.070	0.490
2020/01/31 18:12:19.0	357.060	0.040	-0.010	0.520
2020/01/31 18:12:19.1	357.020	0.080	-0.090	0.550
2020/01/31 18:12:19.2	356.980	0.130	-0.170	0.580
2020/01/31 18:12:19.3	356.940	0.180	-0.240	0.600
2020/01/31 18:12:19.4	356.900	0.230	-0.320	0.630
2020/01/31 18:12:19.5	356.870	0.270	-0.400	0.640
2020/01/31 18:12:19.6	356.830	0.310	-0.480	0.660
2020/01/31 18:12:19.7	356.800	0.360	-0.550	0.680
2020/01/31 18:12:19.8	356.770	0.400	-0.620	0.690
2020/01/31 18:12:19.9	356.740	0.440	-0.690	0.700
2020/01/31 18:12:20.0	356.720	0.480	-0.760	0.710
2020/01/31 18:12:20.1	356.690	0.520	-0.830	0.720
2020/01/31 18:12:20.2	356.670	0.550	-0.890	0.720
2020/01/31 18:12:20.3	356.650	0.590	-0.950	0.720
2020/01/31 18:12:20.4	356.630	0.620	-1.000	0.730
2020/01/31 18:12:20.5	356.620	0.650	-1.060	0.730
2020/01/31 18:12:20.6	356.610	0.680	-1.110	0.730
2020/01/31 18:12:20.7	356.600	0.710	-1.160	0.730
2020/01/31 18:12:20.8	356.600	0.740	-1.200	0.720
2020/01/31 18:12:20.9	356.600	0.770	-1.240	0.710
2020/01/31 18:12:21.0	356.600	0.790	-1.280	0.710
2020/01/31 18:12:21.1	356.600	0.810	-1.310	0.700
2020/01/31 18:12:21.2	356.610	0.830	-1.340	0.690
2020/01/31 18:12:21.3	356.610	0.840	-1.360	0.670
2020/01/31 18:12:21.4	356.620	0.850	-1.380	0.660
2020/01/31 18:12:21.5	356.630	0.860	-1.400	0.640
2020/01/31 18:12:21.6	356.640	0.860	-1.410	0.620
2020/01/31 18:12:21.7	356.650	0.860	-1.420	0.590
2020/01/31 18:12:21.8	356.660	0.860	-1.420	0.570
2020/01/31 18:12:21.9	356.680	0.850	-1.420	0.540
2020/01/31 18:12:22.0	356.690	0.840	-1.420	0.500
2020/01/31 18:12:22.1	356.710	0.830	-1.410	0.470
2020/01/31 18:12:22.2	356.730	0.810	-1.390	0.430
2020/01/31 18:12:22.3	356.750	0.790	-1.380	0.380
2020/01/31 18:12:22.4	356.780	0.760	-1.350	0.340
2020/01/31 18:12:22.5	356.810	0.730	-1.330	0.290
2020/01/31 18:12:22.6	356.840	0.690	-1.300	0.240
2020/01/31 18:12:22.7	356.870	0.650	-1.270	0.190
2020/01/31 18:12:22.8	356.900	0.610	-1.230	0.130
2020/01/31 18:12:22.9	356.950	0.570	-1.190	0.070
2020/01/31 18:12:23.0	356.990	0.520	-1.150	0.010
2020/01/31 18:12:23.1	357.030	0.470	-1.100	-0.050
2020/01/31 18:12:23.2	357.080	0.420	-1.050	-0.120
2020/01/31 18:12:23.3	357.130	0.360	-1.000	-0.180
2020/01/31 18:12:23.4	357.180	0.300	-0.950	-0.240
2020/01/31 18:12:23.5	357.230	0.240	-0.890	-0.310
2020/01/31 18:12:23.6	357.290	0.180	-0.830	-0.370
2020/01/31 18:12:23.7	357.340	0.120	-0.770	-0.440
2020/01/31 18:12:23.8	357.400	0.060	-0.710	-0.500
2020/01/31 18:12:23.9	357.450	-0.010	-0.650	-0.570
2020/01/31 18:12:24.0	357.510	-0.070	-0.580	-0.630
2020/01/31 18:12:24.1	357.560	-0.130	-0.510	-0.690
2020/01/31 18:12:24.2	357.620	-0.200	-0.440	-0.750
2020/01/31 18:12:24.3	357.670	-0.260	-0.370	-0.800
2020/01/31 18:12:24.4	357.720	-0.320	-0.300	-0.850
2020/01/31 18:12:24.5	357.770	-0.380	-0.230	-0.900
2020/01/31 18:12:24.6	357.820	-0.430	-0.170	-0.950
2020/01/31 18:12:24.7	357.870	-0.490	-0.100	-0.990
2020/01/31 18:12:24.8	357.910	-0.540	-0.030	-1.030
2020/01/31 18:12:24.9	357.940	-0.590	0.040	-1.070
2020/01/31 18:12:25.0	357.980	-0.630	0.100	-1.100
2020/01/31 18:12:25.1	358.020	-0.670	0.160	-1.120
2020/01/31 18:12:25.2	358.050	-0.710	0.220	-1.140
2020/01/31 18:12:25.3	358.070	-0.740	0.280	-1.150
2020/01/31 18:12:25.4	358.100	-0.770	0.330	-1.160
2020/01/31 18:12:25.5	358.110	-0.800	0.390	-1.160
2020/01/31 18:12:25.6	358.130	-0.820	0.430	-1.160
2020/01/31 18:12:25.7	358.140	-0.830	0.480	-1.150
2020/01/31 18:12:25.8	358.140	-0.850	0.520	-1.130
2020/01/31 18:12:25.9	358.140	-0.850	0.550	-1.110
2020/01/31 18:12:26.0	358.130	-0.860	0.580	-1.080
2020/01/31 18:12:26.1	358.120	-0.860	0.610	-1.050
2020/01/31 18:12:26.2	358.110	-0.850	0.630	-1.010
2020/01/31 18:12:26.3	358.090	-0.840	0.650	-0.970
2020/01/31 18:12:26.4	358.060	-0.830	0.660	-0.920
2020/01/31 18:12:26.5	358.030	-0.810	0.670	-0.870
2020/01/31 18:12:26.6	358.000	-0.790	0.670	-0.820
2020/01/31 18:12:26.7	357.960	-0.770	0.670	-0.770
2020/01/31 18:12:26.8	357.920	-0.740	0.660	-0.710
2020/01/31 18:12:26.9	357.870	-0.710	0.650	-0.650
2020/01/31 18:12:27.0	357.820	-0.680	0.640	-0.590
2020/01/31 18:12:27.1	357.760	-0.640	0.610	-0.540
2020/01/31 18:12:27.2	357.710	-0.610	0.590	-0.480
2020/01/31 18:12:27.3	357.650	-0.570	0.560	-0.420
2020/01/31 18:12:27.4	357.590	-0.530	0.520	-0.360
2020/01/31 18:12:27.5	357.530	-0.480	0.490	-0.300
2020/01/31 18:12:27.6	357.460	-0.440	0.450	-0.240
2020/01/31 18:12:27.7	357.400	-0.390	0.400	-0.180
2020/01/31 18:12:27.8	357.340	-0.340	0.360	-0.120
2020/01/31 18:12:27.9	357.280	-0.290	0.310	-0.060
2020/01/31 18:12:28.0	357.220	-0.240	0.260	-0.000
2020/01/31 18:12:28.1	357.150	-0.190	0.210	0.060
2020/01/31 18:12:28.2	357.090	-0.140	0.160	0.110
2020/01/31 18:12:28.3	357.030	-0.090	0.110	0.170
2020/01/31 18:12:28.4	356.970	-0.030	0.070	0.230
2020/01/31 18:12:28.5	356.920	0.020	0.020	0.280
2020/01/31 18:12:28.6	356.860	0.070	-0.030	0.330
2020/01/31 18:12:28.7	356.810	0.120	-0.070	0.390
2020/01/31 18:12:28.8	356.760	0.180	-0.110	0.440
2020/01/31 18:12:28.9	356.720	0.230	-0.140	0.490
2020/01/31 18:12:29.0	356.670	0.280	-0.170	0.540
2020/01/31 18:12:29.1	356.630	0.330	-0.200	0.590
2020/01/31 18:12:29.2	356.580	0.370	-0.220	0.630
2020/01/31 18:12:29.3	356.540	0.420	-0.240	0.680
2020/01/31 18:12:29.4	356.490	0.460	-0.250	0.720
2020/01/31 18:12:29.5	356.450	0.500	-0.250	0.770
2020/01/31 18:12:29.6	356.410	0.540	-0.250	0.810
2020/01/31 18:12:29.7	356.370	0.570	-0.250	0.840
2020/01/31 18:12:29.8	356.330	0.600	-0.240	0.880
2020/01/31 18:12:29.9	356.280	0.630	-0.220	0.910
2020/01/31 18:12:30.0	356.240	0.650	-0.210	0.940
2020/01/31 18:12:30.1	356.200	0.670	-0.180	0.970
2020/01/31 18:12:30.2	356.170	0.690	-0.160	0.990
2020/01/31 18:12:30.3	356.130	0.700	-0.130	1.010
2020/01/31 18:12:30.4	356.090	0.710	-0.100	1.030
2020/01/31 18:12:30.5	356.050	0.720	-0.070	1.040
2020/01/31 18:12:30.6	356.020	0.720	-0.040	1.050
2020/01/31 18:12:30.7	355.990	0.720	-0.010	1.050
2020/01/31 18:12:30.8	355.960	0.710	0.020	1.050
2020/01/31 18:12:30.9	355.930	0.710	0.050	1.050
2020/01/31 18:12:31.0	355.910	0.700	0.070	1.040
2020/01/31 18:12:31.1	355.880	0.680	0.090	1.040
2020/01/31 18:12:31.2	355.860	0.670	0.110	1.030
2020/01/31 18:12:31.3	355.840	0.650	0.120	1.010
2020/01/31 18:12:31.4	355.830	0.640	0.130	0.990
2020/01/31 18:12:31.5	355.810	0.620	0.140	0.970
2020/01/31 18:12:31.6	355.800	0.590	0.130	0.950
2020/01/31 18:12:31.7	355.800	0.570	0.130	0.920
2020/01/31 18:12:31.8	355.800	0.550	0.110	0.890
2020/01/31 18:12:31.9	355.790	0.520	0.090	0.860
2020/01/31 18:12:32.0	355.800	0.500	0.060	0.820
2020/01/31 18:12:32.1	355.810	0.470	0.030	0.780
2020/01/31 18:12:32.2	355.820	0.450	-0.010	0.730
2020/01/31 18:12:32.3	355.840	0.420	-0.060	0.680
2020/01/31 18:12:32.4	355.860	0.400	-0.120	0.630
2020/01/31 18:12:32.5	355.880	0.370	-0.180	0.570
2020/01/31 18:12:32.6	355.920	0.340	-0.240	0.500
2020/01/31 18:12:32.7	355.950	0.310	-0.310	0.430
2020/01/31 18:12:32.8	355.990	0.290	-0.390	0.350
2020/01/31 18:12:32.9	356.040	0.260	-0.470	0.260
2020/01/31 18:12:33.0	356.090	0.230	-0.550	0.170
2020/01/31 18:12:33.1	356.150	0.190	-0.640	0.080
2020/01/31 18:12:33.2	356.200	0.160	-0.730	-0.020
2020/01/31 18:12:33.3	356.270	0.130	-0.820	-0.130
2020/01/31 18:12:33.4	356.330	0.100	-0.910	-0.230
2020/01/31 18:12:33.5	356.400	0.060	-0.990	-0.340
2020/01/31 18:12:33.6	356.460	0.030	-1.080	-0.450
2020/01/31 18:12:33.7	356.530	-0.010	-1.160	-0.550
2020/01/31 18:12:33.8	356.600	-0.050	-1.240	-0.660
2020/01/31 18:12:33.9	356.660	-0.090	-1.320	-0.770
2020/01/31 18:12:34.0	356.730	-0.120	-1.390	-0.860
2020/01/31 18:12:34.1	356.790	-0.160	-1.450	-0.960
2020/01/31 18:12:34.2	356.850	-0.200	-1.500	-1.050
2020/01/31 18:12:34.3	356.910	-0.250	-1.550	-1.130
2020/01/31 18:12:34.4	356.960	-0.290	-1.580	-1.210
2020/01/31 18:12:34.5	357.010	-0.330	-1.610	-1.290
2020/01/31 18:12:34.6	357.060	-0.370	-1.630	-1.350
2020/01/31 18:12:34.7	357.110	-0.410	-1.640	-1.420
2020/01/31 18:12:34.8	357.150	-0.450	-1.640	-1.470
2020/01/31 18:12:34.9	357.190	-0.490	-1.630	-1.520
2020/01/31 18:12:35.0	357.230	-0.530	-1.600	-1.560
2020/01/31 18:12:35.1	357.260	-0.560	-1.570	-1.590
2020/01/31 18:12:35.2	357.290	-0.600	-1.530	-1.620
2020/01/31 18:12:35.3	357.320	-0.630	-1.480	-1.640
2020/01/31 18:12:35.4	357.340	-0.660	-1.430	-1.660
2020/01/31 18:12:35.5	357.360	-0.690	-1.360	-1.670
2020/01/31 18:12:35.6	357.380	-0.720	-1.290	-1.680
2020/01/31 18:12:35.7	357.400	-0.740	-1.220	-1.680
2020/01/31 18:12:35.8	357.420	-0.760	-1.140	-1.680
2020/01/31 18:12:35.9	357.430	-0.780	-1.050	-1.670
2020/01/31 18:12:36.0	357.440	-0.790	-0.960	-1.660
2020/01/31 18:12:36.1	357.450	-0.800	-0.870	-1.650
2020/01/31 18:12:36.2	357.460	-0.810	-0.780	-1.630
2020/01/31 18:12:36.3	357.460	-0.800	-0.690	-1.610
2020/01/31 18:12:36.4	357.470	-0.800	-0.600	-1.590
2020/01/31 18:12:36.5	357.470	-0.790	-0.500	-1.560
2020/01/31 18:12:36.6	357.470	-0.780	-0.410	-1.520
2020/01/31 18:12:36.7	357.470	-0.760	-0.330	-1.490
2020/01/31 18:12:36.8	357.470	-0.730	-0.240	-1.450
2020/01/31 18:12:36.9	357.460	-0.700	-0.160	-1.400
2020/01/31 18:12:37.0	357.460	-0.670	-0.080	-1.350
2020/01/31 18:12:37.1	357.460	-0.630	-0.010	-1.300
2020/01/31 18:12:37.2	357.450	-0.580	0.060	-1.250
2020/01/31 18:12:37.3	357.450	-0.530	0.130	-1.190
2020/01/31 18:12:37.4	357.440	-0.480	0.190	-1.120
2020/01/31 18:12:37.5	357.430	-0.420	0.250	-1.060
2020/01/31 18:12:37.6	357.420	-0.360	0.300	-0.980
2020/01/31 18:12:37.7	357.410	-0.300	0.350	-0.910
2020/01/31 18:12:37.8	357.400	-0.240	0.400	-0.830
2020/01/31 18:12:37.9	357.380	-0.170	0.430	-0.750
2020/01/31 18:12:38.0	357.360	-0.110	0.470	-0.660
2020/01/31 18:12:38.1	357.340	-0.040	0.510	-0.570
2020/01/31 18:12:38.2	357.310	0.020	0.550	-0.490
2020/01/31 18:12:38.3	357.290	0.080	0.580	-0.390
2020/01/31 18:12:38.4	357.260	0.140	0.610	-0.300
2020/01/31 18:12:38.5	357.220	0.200	0.640	-0.210
2020/01/31 18:12:38.6	357.190	0.260	0.670	-0.120
2020/01/31 18:12:38.7	357.150	0.310	0.700	-0.030
2020/01/31 18:12:38.8	357.110	0.360	0.720	0.050
2020/01/31 18:12:38.9	357.070	0.400	0.740	0.140
2020/01/31 18:12:39.0	357.030	0.440	0.770	0.230
2020/01/31 18:12:39.1	356.980	0.470	0.790	0.310
2020/01/31 18:12:39.2	356.940	0.500	0.800	0.390
2020/01/31 18:12:39.3	356.900	0.520	0.820	0.470
2020/01/31 18:12:39.4	356.850	0.540	0.830	0.540
2020/01/31 18:12:39.5	356.810	0.550	0.840	0.610
2020/01/31 18:12:39.6	356.760	0.560	0.850	0.680
2020/01/31 18:12:39.7	356.720	0.560	0.850	0.750
2020/01/31 18:12:39.8	356.680	0.560	0.850	0.810
2020/01/31 18:12:39.9	356.640	0.550	0.840	0.870
2020/01/31 18:12:40.0	356.600	0.540	0.830	0.920
2020/01/31 18:12:40.1	356.560	0.530	0.820	0.960
2020/01/31 18:12:40.2	356.530	0.510	0.800	1.000
2020/01/31 18:12:40.3	356.500	0.490	0.770	1.030
2020/01/31 18:12:40.4	356.470	0.460	0.740	1.060
2020/01/31 18:12:40.5	356.440	0.430	0.700	1.080
2020/01/31 18:12:40.6	356.420	0.400	0.660	1.100
2020/01/31 18:12:40.7	356.400	0.370	0.610	1.110
2020/01/31 18:12:40.8	356.380	0.340	0.560	1.110
2020/01/31 18:12:40.9	356.370	0.310	0.500	1.110
2020/01/31 18:12:41.0	356.360	0.280	0.440	1.100
2020/01/31 18:12:41.1	356.350	0.250	0.370	1.090
2020/01/31 18:12:41.2	356.340	0.210	0.300	1.070
2020/01/31 18:12:41.3	356.340	0.180	0.230	1.050
2020/01/31 18:12:41.4	356.330	0.160	0.150	1.020
2020/01/31 18:12:41.5	356.330	0.130	0.070	0.990
2020/01/31 18:12:41.6	356.330	0.110	-0.010	0.960
2020/01/31 18:12:41.7	356.330	0.090	-0.090	0.920
2020/01/31 18:12:41.8	356.330	0.070	-0.170	0.880
2020/01/31 18:12:41.9	356.330	0.050	-0.250	0.840
2020/01/31 18:12:42.0	356.330	0.040	-0.330	0.800
2020/01/31 18:12:42.1	356.330	0.030	-0.400	0.750
2020/01/31 18:12:42.2	356.330	0.020	-0.470	0.710
2020/01/31 18:12:42.3	356.330	0.020	-0.540	0.670
2020/01/31 18:12:42.4	356.330	0.020	-0.610	0.620
2020/01/31 18:12:42.5	356.320	0.020	-0.670	0.580
2020/01/31 18:12:42.6	356.320	0.020	-0.730	0.540
2020/01/31 18:12:42.7	356.320	0.030	-0.790	0.500
2020/01/31 18:12:42.8	356.320	0.040	-0.840	0.450
2020/01/31 18:12:42.9	356.310	0.050	-0.880	0.400
2020/01/31 18:12:43.0	356.310	0.060	-0.930	0.360
2020/01/31 18:12:43.1	356.300	0.070	-0.960	0.320
2020/01/31 18:12:43.2	356.300	0.090	-1.000	0.280
2020/01/31 18:12:43.3	356.300	0.100	-1.030	0.240
2020/01/31 18:12:43.4	356.290	0.110	-1.050	0.200
2020/01/31 18:12:43.5	356.290	0.120	-1.080	0.160
2020/01/31 18:12:43.6	356.290	0.130	-1.090	0.120
2020/01/31 18:12:43.7	356.290	0.140	-1.110	0.080
2020/01/31 18:12:43.8	356.300	0.150	-1.120	0.040
2020/01/31 18:12:43.9	356.300	0.160	-1.130	-0.010
2020/01/31 18:12:44.0	356.300	0.170	-1.130	-0.050
2020/01/31 18:12:44.1	356.300	0.170	-1.130	-0.090
2020/01/31 18:12:44.2	356.310	0.180	-1.130	-0.140
2020/01/31 18:12:44.3	356.320	0.180	-1.130	-0.180
2020/01/31 18:12:44.4	356.330	0.180	-1.120	-0.230
2020/01/31 18:12:44.5	356.350	0.170	-1.110	-0.280
2020/01/31 18:12:44.6	356.370	0.170	-1.100	-0.330
2020/01/31 18:12:44.7	356.390	0.160	-1.090	-0.380
2020/01/31 18:12:44.8	356.420	0.150	-1.070	-0.430
2020/01/31 18:12:44.9	356.450	0.140	-1.060	-0.480
2020/01/31 18:12:45.0	356.480	0.130	-1.040	-0.540
2020/01/31 18:12:45.1	356.520	0.120	-1.020	-0.590
2020/01/31 18:12:45.2	356.560	0.100	-1.010	-0.640
2020/01/31 18:12:45.3	356.610	0.090	-0.990	-0.700
2020/01/31 18:12:45.4	356.650	0.070	-0.970	-0.750
2020/01/31 18:12:45.5	356.710	0.060	-0.950	-0.810
2020/01/31 18:12:45.6	356.760	0.040	-0.920	-0.860
2020/01/31 18:12:45.7	356.810	0.020	-0.900	-0.910
2020/01/31 18:12:45.8	356.870	-0.000	-0.870	-0.960
2020/01/31 18:12:45.9	356.920	-0.020	-0.850	-1.010
2020/01/31 18:12:46.0	356.980	-0.040	-0.820	-1.050
2020/01/31 18:12:46.1	357.030	-0.060	-0.780	-1.090
2020/01/31 18:12:46.2	357.080	-0.080	-0.750	-1.120
2020/01/31 18:12:46.3	357.130	-0.100	-0.710	-1.150
2020/01/31 18:12:46.4	357.180	-0.120	-0.670	-1.180
2020/01/31 18:12:46.5	357.220	-0.140	-0.620	-1.190
2020/01/31 18:12:46.6	357.260	-0.160	-0.570	-1.200
2020/01/31 18:12:46.7	357.300	-0.190	-0.520	-1.210
2020/01/31 18:12:46.8	357.330	-0.210	-0.470	-1.210
2020/01/31 18:12:46.9	357.350	-0.230	-0.410	-1.200
2020/01/31 18:12:47.0	357.370	-0.250	-0.350	-1.180
2020/01/31 18:12:47.1	357.390	-0.270	-0.290	-1.160
2020/01/31 18:12:47.2	357.400	-0.290	-0.220	-1.140
2020/01/31 18:12:47.3	357.410	-0.310	-0.160	-1.100
2020/01/31 18:12:47.4	357.410	-0.330	-0.090	-1.070
2020/01/31 18:12:47.5	357.410	-0.350	-0.030	-1.030
2020/01/31 18:12:47.6	357.400	-0.370	0.040	-0.980
2020/01/31 18:12:47.7	357.390	-0.390	0.100	-0.930
2020/01/31 18:12:47.8	357.370	-0.400	0.160	-0.880
2020/01/31 18:12:47.9	357.350	-0.420	0.220	-0.830
2020/01/31 18:12:48.0	357.330	-0.430	0.270	-0.770
2020/01/31 18:12:48.1	357.300	-0.440	0.320	-0.710
2020/01/31 18:12:48.2	357.270	-0.450	0.370	-0.640
2020/01/31 18:12:48.3	357.240	-0.460	0.410	-0.580
2020/01/31 18:12:48.4	357.210	-0.460	0.440	-0.520
2020/01/31 18:12:48.5	357.180	-0.460	0.470	-0.450
2020/01/31 18:12:48.6	357.150	-0.460	0.500	-0.390
2020/01/31 18:12:48.7	357.120	-0.450	0.510	-0.320
2020/01/31 18:12:48.8	357.090	-0.450	0.520	-0.260
2020/01/31 18:12:48.9	357.060	-0.430	0.530	-0.210
2020/01/31 18:12:49.0	357.040	-0.420	0.520	-0.150
2020/01/31 18:12:49.1	357.010	-0.400	0.510	-0.100
2020/01/31 18:12:49.2	356.990	-0.370	0.490	-0.050
2020/01/31 18:12:49.3	356.980	-0.350	0.460	-0.000
2020/01/31 18:12:49.4	356.970	-0.320	0.430	0.040
2020/01/31 18:12:49.5	356.960	-0.280	0.390	0.080
2020/01/31 18:12:49.6	356.950	-0.240	0.340	0.110
2020/01/31 18:12:49.7	356.940	-0.200	0.290	0.140
2020/01/31 18:12:49.8	356.940	-0.150	0.230	0.170
2020/01/31 18:12:49.9	356.940	-0.100	0.170	0.200
2020/01/31 18:12:50.0	356.940	-0.050	0.110	0.220
2020/01/31 18:12:50.1	356.940	-0.000	0.050	0.240
2020/01/31 18:12:50.2	356.940	0.050	-0.020	0.260
2020/01/31 18:12:50.3	356.940	0.110	-0.080	0.270
2020/01/31 18:12:50.4	356.940	0.160	-0.140	0.290
2020/01/31 18:12:50.5	356.940	0.210	-0.200	0.300
2020/01/31 18:12:50.6	356.940	0.260	-0.260	0.320
2020/01/31 18:12:50.7	356.940	0.310	-0.310	0.330
2020/01/31 18:12:50.8	356.930	0.360	-0.360	0.340
2020/01/31 18:12:50.9	356.930	0.410	-0.400	0.350
2020/01/31 18:12:51.0	356.920	0.450	-0.440	0.360
2020/01/31 18:12:51.1	356.910	0.480	-0.470	0.370
2020/01/31 18:12:51.2	356.900	0.520	-0.500	0.380
2020/01/31 18:12:51.3	356.890	0.540	-0.510	0.380
2020/01/31 18:12:51.4	356.870	0.570	-0.520	0.390
2020/01/31 18:12:51.5	356.860	0.590	-0.530	0.390
2020/01/31 18:12:51.6	356.840	0.600	-0.520	0.400
2020/01/31 18:12:51.7	356.820	0.600	-0.510	0.400
2020/01/31 18:12:51.8	356.800	0.610	-0.490	0.400
2020/01/31 18:12:51.9	356.770	0.600	-0.470	0.400
2020/01/31 18:12:52.0	356.740	0.590	-0.430	0.400
2020/01/31 18:12:52.1	356.710	0.580	-0.400	0.410
2020/01/31 18:12:52.2	356.680	0.560	-0.360	0.410
2020/01/31 18:12:52.3	356.660	0.530	-0.310	0.410
2020/01/31 18:12:52.4	356.620	0.500	-0.260	0.410
2020/01/31 18:12:52.5	356.590	0.460	-0.210	0.410
2020/01/31 18:12:52.6	356.560	0.430	-0.160	0.410
2020/01/31 18:12:52.7	356.530	0.380	-0.100	0.410
2020/01/31 18:12:52.8	356.500	0.340	-0.040	0.410
2020/01/31 18:12:52.9	356.470	0.290	0.010	0.410
2020/01/31 18:12:53.0	356.430	0.240	0.070	0.400
2020/01/31 18:12:53.1	356.400	0.190	0.130	0.390
2020/01/31 18:12:53.2	356.370	0.130	0.180	0.390
2020/01/31 18:12:53.3	356.330	0.080	0.230	0.380
2020/01/31 18:12:53.4	356.300	0.030	0.280	0.360
2020/01/31 18:12:53.5	356.270	-0.030	0.330	0.350
2020/01/31 18:12:53.6	356.240	-0.080	0.370	0.340
2020/01/31 18:12:53.7	356.210	-0.130	0.400	0.320
2020/01/31 18:12:53.8	356.180	-0.180	0.440	0.300
2020/01/31 18:12:53.9	356.160	-0.220	0.460	0.270
2020/01/31 18:12:54.0	356.130	-0.260	0.480	0.250
2020/01/31 18:12:54.1	356.100	-0.300	0.490	0.230
2020/01/31 18:12:54.2	356.080	-0.330	0.500	0.200
2020/01/31 18:12:54.3	356.060	-0.360	0.500	0.170
2020/01/31 18:12:54.4	356.040	-0.390	0.490	0.140
2020/01/31 18:12:54.5	356.020	-0.400	0.470	0.110
2020/01/31 18:12:54.6	356.000	-0.420	0.450	0.080
2020/01/31 18:12:54.7	355.990	-0.430	0.420	0.050
2020/01/31 18:12:54.8	355.980	-0.430	0.380	0.020
2020/01/31 18:12:54.9	355.980	-0.430	0.340	-0.010
2020/01/31 18:12:55.0	355.970	-0.420	0.290	-0.050
2020/01/31 18:12:55.1	355.970	-0.410	0.230	-0.080
2020/01/31 18:12:55.2	355.970	-0.400	0.170	-0.110
2020/01/31 18:12:55.3	355.970	-0.380	0.100	-0.150
2020/01/31 18:12:55.4	355.980	-0.350	0.030	-0.180
2020/01/31 18:12:55.5	355.980	-0.320	-0.050	-0.220
2020/01/31 18:12:55.6	355.990	-0.290	-0.140	-0.250
2020/01/31 18:12:55.7	356.010	-0.260	-0.220	-0.290
2020/01/31 18:12:55.8	356.020	-0.220	-0.310	-0.330
2020/01/31 18:12:55.9	356.040	-0.190	-0.400	-0.370
2020/01/31 18:12:56.0	356.060	-0.150	-0.490	-0.410
2020/01/31 18:12:56.1	356.090	-0.110	-0.590	-0.450
2020/01/31 18:12:56.2	356.120	-0.070	-0.680	-0.490
2020/01/31 18:12:56.3	356.140	-0.030	-0.770	-0.530
2020/01/31 18:12:56.4	356.180	0.010	-0.860	-0.570
2020/01/31 18:12:56.5	356.210	0.050	-0.950	-0.620
2020/01/31 18:12:56.6	356.250	0.090	-1.030	-0.660
2020/01/31 18:12:56.7	356.290	0.120	-1.120	-0.700
2020/01/31 18:12:56.8	356.330	0.150	-1.190	-0.750
2020/01/31 18:12:56.9	356.380	0.180	-1.270	-0.790
2020/01/31 18:12:57.0	356.420	0.210	-1.330	-0.840
2020/01/31 18:12:57.1	356.470	0.230	-1.400	-0.880
2020/01/31 18:12:57.2	356.530	0.260	-1.460	-0.920
2020/01/31 18:12:57.3	356.580	0.270	-1.510	-0.960
2020/01/31 18:12:57.4	356.640	0.290	-1.550	-1.000
2020/01/31 18:12:57.5	356.690	0.300	-1.590	-1.030
2020/01/31 18:12:57.6	356.750	0.300	-1.630	-1.060
2020/01/31 18:12:57.7	356.810	0.310	-1.650	-1.090
2020/01/31 18:12:57.8	356.880	0.310	-1.670	-1.120
2020/01/31 18:12:57.9	356.940	0.300	-1.680	-1.150
2020/01/31 18:12:58.0	357.000	0.290	-1.680	-1.170
2020/01/31 18:12:58.1	357.060	0.280	-1.670	-1.180
2020/01/31 18:12:58.2	357.120	0.270	-1.650	-1.190
2020/01/31 18:12:58.3	357.180	0.250	-1.630	-1.200
2020/01/31 18:12:58.4	357.230	0.230	-1.590	-1.200
2020/01/31 18:12:58.5	357.290	0.210	-1.550	-1.200
2020/01/31 18:12:58.6	357.330	0.180	-1.500	-1.190
2020/01/31 18:12:58.7	357.380	0.150	-1.430	-1.180
2020/01/31 18:12:58.8	357.420	0.130	-1.360	-1.160
2020/01/31 18:12:58.9	357.450	0.090	-1.290	-1.130
2020/01/31 18:12:59.0	357.490	0.060	-1.200	-1.110
2020/01/31 18:12:59.1	357.520	0.030	-1.110	-1.080
2020/01/31 18:12:59.2	357.540	-0.000	-1.010	-1.040
2020/01/31 18:12:59.3	357.560	-0.030	-0.900	-1.000
2020/01/31 18:12:59.4	357.580	-0.070	-0.780	-0.950
2020/01/31 18:12:59.5	357.590	-0.100	-0.670	-0.900
2020/01/31 18:12:59.6	357.590	-0.130	-0.540	-0.850
2020/01/31 18:12:59.7	357.600	-0.150	-0.420	-0.800
2020/01/31 18:12:59.8	357.600	-0.180	-0.290	-0.730
2020/01/31 18:12:59.9	357.590	-0.200	-0.160	-0.670
2020/01/31 18:13:00.0	357.580	-0.220	-0.030	-0.600
2020/01/31 18:13:00.1	357.570	-0.240	0.100	-0.530
2020/01/31 18:13:00.2	357.560	-0.250	0.230	-0.460
2020/01/31 18:13:00.3	357.540	-0.270	0.350	-0.390
2020/01/31 18:13:00.4	357.510	-0.280	0.470	-0.310
2020/01/31 18:13:00.5	357.480	-0.280	0.590	-0.230
2020/01/31 18:13:00.6	357.450	-0.290	0.700	-0.160
2020/01/31 18:13:00.7	357.420	-0.290	0.810	-0.080
2020/01/31 18:13:00.8	357.380	-0.290	0.900	-0.000
2020/01/31 18:13:00.9	357.340	-0.280	0.990	0.070
2020/01/31 18:13:01.0	357.290	-0.280	1.080	0.150
2020/01/31 18:13:01.1	357.250	-0.270	1.150	0.220
2020/01/31 18:13:01.2	357.200	-0.260	1.210	0.290
2020/01/31 18:13:01.3	357.150	-0.250	1.270	0.360
2020/01/31 18:13:01.4	357.100	-0.240	1.310	0.420
2020/01/31 18:13:01.5	357.040	-0.230	1.350	0.480
2020/01/31 18:13:01.6	356.980	-0.210	1.370	0.540
2020/01/31 18:13:01.7	356.930	-0.200	1.380	0.590
2020/01/31 18:13:01.8	356.870	-0.180	1.380	0.640
2020/01/31 18:13:01.9	356.810	-0.170	1.370	0.680
2020/01/31 18:13:02.0	356.750	-0.150	1.350	0.720
2020/01/31 18:13:02.1	356.700	-0.140	1.320	0.750
2020/01/31 18:13:02.2	356.640	-0.120	1.280	0.780
2020/01/31 18:13:02.3	356.590	-0.100	1.230	0.800
2020/01/31 18:13:02.4	356.540	-0.080	1.170	0.820
2020/01/31 18:13:02.5	356.490	-0.060	1.100	0.830
2020/01/31 18:13:02.6	356.440	-0.040	1.020	0.830
2020/01/31 18:13:02.7	356.400	-0.020	0.930	0.830
2020/01/31 18:13:02.8	356.370	-0.000	0.840	0.830
2020/01/31 18:13:02.9	356.330	0.020	0.730	0.810
2020/01/31 18:13:03.0	356.300	0.040	0.620	0.790
2020/01/31 18:13:03.1	356.280	0.060	0.500	0.770
2020/01/31 18:13:03.2	356.260	0.080	0.380	0.740
2020/01/31 18:13:03.3	356.240	0.100	0.260	0.710
2020/01/31 18:13:03.4	356.230	0.120	0.130	0.670
2020/01/31 18:13:03.5	356.230	0.140	-0.000	0.630
2020/01/31 18:13:03.6	356.220	0.170	-0.140	0.580
2020/01/31 18:13:03.7	356.230	0.190	-0.270	0.530
2020/01/31 18:13:03.8	356.230	0.210	-0.400	0.490
2020/01/31 18:13:03.9	356.240	0.230	-0.520	0.430
2020/01/31 18:13:04.0	356.260	0.250	-0.640	0.380
2020/01/31 18:13:04.1	356.270	0.280	-0.760	0.320
2020/01/31 18:13:04.2	356.290	0.300	-0.870	0.270
2020/01/31 18:13:04.3	356.310	0.310	-0.970	0.220
2020/01/31 18:13:04.4	356.330	0.330	-1.060	0.170
2020/01/31 18:13:04.5	356.350	0.350	-1.150	0.120
2020/01/31 18:13:04.6	356.370	0.360	-1.220	0.070
2020/01/31 18:13:04.7	356.390	0.370	-1.280	0.030
2020/01/31 18:13:04.8	356.410	0.380	-1.340	-0.020
2020/01/31 18:13:04.9	356.430	0.390	-1.380	-0.070
2020/01/31 18:13:05.0	356.450	0.400	-1.410	-0.110
2020/01/31 18:13:05.1	356.470	0.400	-1.430	-0.140
2020/01/31 18:13:05.2	356.490	0.410	-1.450	-0.180
2020/01/31 18:13:05.3	356.510	0.400	-1.450	-0.220
2020/01/31 18:13:05.4	356.530	0.400	-1.440	-0.250
2020/01/31 18:13:05.5	356.550	0.400	-1.420	-0.280
2020/01/31 18:13:05.6	356.570	0.390	-1.390	-0.310
2020/01/31 18:13:05.7	356.590	0.380	-1.360	-0.330
2020/01/31 18:13:05.8	356.610	0.370	-1.310	-0.350
2020/01/31 18:13:05.9	356.630	0.360	-1.260	-0.370
2020/01/31 18:13:06.0	356.650	0.340	-1.200	-0.390
2020/01/31 18:13:06.1	356.670	0.330	-1.140	-0.410
2020/01/31 18:13:06.2	356.680	0.310	-1.080	-0.420
2020/01/31 18:13:06.3	356.700	0.290	-1.010	-0.430
2020/01/31 18:13:06.4	356.710	0.270	-0.930	-0.430
2020/01/31 18:13:06.5	356.730	0.250	-0.860	-0.440
2020/01/31 18:13:06.6	356.740	0.220	-0.780	-0.440
2020/01/31 18:13:06.7	356.750	0.200	-0.700	-0.440
2020/01/31 18:13:06.8	356.770	0.180	-0.620	-0.440
2020/01/31 18:13:06.9	356.780	0.150	-0.550	-0.440
2020/01/31 18:13:07.0	356.790	0.120	-0.470	-0.440
2020/01/31 18:13:07.1	356.810	0.100	-0.400	-0.430
2020/01/31 18:13:07.2	356.820	0.070	-0.330	-0.430
2020/01/31 18:13:07.3	356.840	0.050	-0.260	-0.430
2020/01/31 18:13:07.4	356.850	0.020	-0.200	-0.420
2020/01/31 18:13:07.5	356.870	-0.010	-0.140	-0.420
2020/01/31 18:13:07.6	356.890	-0.030	-0.080	-0.420
2020/01/31 18:13:07.7	356.910	-0.060	-0.030	-0.420
2020/01/31 18:13:07.8	356.930	-0.080	0.010	-0.420
2020/01/31 18:13:07.9	356.960	-0.100	0.050	-0.430
2020/01/31 18:13:08.0	356.980	-0.120	0.080	-0.430
2020/01/31 18:13:08.1	357.010	-0.140	0.110	-0.440
2020/01/31 18:13:08.2	357.030	-0.160	0.130	-0.450
2020/01/31 18:13:08.3	357.060	-0.180	0.140	-0.460
2020/01/31 18:13:08.4	357.090	-0.200	0.150	-0.470
2020/01/31 18:13:08.5	357.120	-0.210	0.160	-0.480
2020/01/31 18:13:08.6	357.150	-0.220	0.160	-0.490
2020/01/31 18:13:08.7	357.170	-0.240	0.150	-0.500
2020/01/31 18:13:08.8	357.200	-0.250	0.140	-0.510
2020/01/31 18:13:08.9	357.220	-0.260	0.130	-0.530
2020/01/31 18:13:09.0	357.250	-0.270	0.120	-0.530
2020/01/31 18:13:09.1	357.270	-0.280	0.100	-0.540
2020/01/31 18:13:09.2	357.290	-0.290	0.080	-0.540
2020/01/31 18:13:09.3	357.310	-0.300	0.060	-0.550
2020/01/31 18:13:09.4	357.330	-0.310	0.040	-0.550
2020/01/31 18:13:09.5	357.340	-0.320	0.020	-0.550
2020/01/31 18:13:09.6	357.350	-0.330	-0.000	-0.550
2020/01/31 18:13:09.7	357.360	-0.340	-0.020	-0.540
2020/01/31 18:13:09.8	357.370	-0.350	-0.040	-0.530
2020/01/31 18:13:09.9	357.370	-0.350	-0.050	-0.530
2020/01/31 18:13:10.0	357.370	-0.360	-0.070	-0.520
2020/01/31 18:13:10.1	357.370	-0.370	-0.090	-0.510
2020/01/31 18:13:10.2	357.370	-0.380	-0.100	-0.490
2020/01/31 18:13:10.3	357.360	-0.390	-0.110	-0.480
2020/01/31 18:13:10.4	357.350	-0.400	-0.130	-0.470
2020/01/31 18:13:10.5	357.350	-0.410	-0.140	-0.450
2020/01/31 18:13:10.6	357.340	-0.410	-0.150	-0.430
2020/01/31 18:13:10.7	357.330	-0.420	-0.160	-0.420
2020/01/31 18:13:10.8	357.320	-0.430	-0.160	-0.400
2020/01/31 18:13:10.9	357.310	-0.430	-0.180	-0.380
2020/01/31 18:13:11.0	357.300	-0.440	-0.180	-0.370
2020/01/31 18:13:11.1	357.280	-0.440	-0.190	-0.350
2020/01/31 18:13:11.2	357.270	-0.440	-0.200	-0.330
2020/01/31 18:13:11.3	357.260	-0.440	-0.200	-0.310
2020/01/31 18:13:11.4	357.250	-0.430	-0.210	-0.290
2020/01/31 18:13:11.5	357.240	-0.430	-0.220	-0.270
2020/01/31 18:13:11.6	357.230	-0.420	-0.230	-0.260
2020/01/31 18:13:11.7	357.220	-0.410	-0.230	-0.240
2020/01/31 18:13:11.8	357.200	-0.400	-0.240	-0.220
2020/01/31 18:13:11.9	357.190	-0.380	-0.250	-0.200
2020/01/31 18:13:12.0	357.170	-0.360	-0.260	-0.180
2020/01/31 18:13:12.1	357.160	-0.340	-0.270	-0.160
2020/01/31 18:13:12.2	357.150	-0.310	-0.270	-0.130
2020/01/31 18:13:12.3	357.130	-0.280	-0.280	-0.100
2020/01/31 18:13:12.4	357.120	-0.250	-0.290	-0.080
2020/01/31 18:13:12.5	357.100	-0.220	-0.290	-0.050
2020/01/31 18:13:12.6	357.090	-0.190	-0.290	-0.010
2020/01/31 18:13:12.7	357.070	-0.150	-0.290	0.020
2020/01/31 18:13:12.8	357.050	-0.110	-0.290	0.060
2020/01/31 18:13:12.9	357.030	-0.070	-0.290	0.090
2020/01/31 18:13:13.0	357.010	-0.030	-0.280	0.130
2020/01/31 18:13:13.1	356.990	0.010	-0.270	0.170
2020/01/31 18:13:13.2	356.970	0.050	-0.260	0.200
2020/01/31 18:13:13.3	356.950	0.090	-0.250	0.240
2020/01/31 18:13:13.4	356.920	0.130	-0.240	0.280
2020/01/31 18:13:13.5	356.900	0.170	-0.230	0.320
2020/01/31 18:13:13.6	356.880	0.200	-0.210	0.350
2020/01/31 18:13:13.7	356.860	0.240	-0.200	0.390
2020/01/31 18:13:13.8	356.840	0.280	-0.180	0.420
2020/01/31 18:13:13.9	356.820	0.310	-0.170	0.450
2020/01/31 18:13:14.0	356.800	0.340	-0.150	0.480
2020/01/31 18:13:14.1	356.790	0.370	-0.140	0.510
2020/01/31 18:13:14.2	356.780	0.400	-0.130	0.530
2020/01/31 18:13:14.3	356.760	0.430	-0.120	0.550
2020/01/31 18:13:14.4	356.760	0.450	-0.110	0.570
2020/01/31 18:13:14.5	356.750	0.480	-0.100	0.580
2020/01/31 18:13:14.6	356.740	0.490	-0.100	0.600
2020/01/31 18:13:14.7	356.740	0.510	-0.100	0.600
2020/01/31 18:13:14.8	356.750	0.530	-0.100	0.610
2020/01/31 18:13:14.9	356.750	0.540	-0.100	0.610
2020/01/31 18:13:15.0	356.750	0.550	-0.100	0.610
2020/01/31 18:13:15.1	356.760	0.560	-0.110	0.610
2020/01/31 18:13:15.2	356.770	0.560	-0.120	0.600
2020/01/31 18:13:15.3	356.780	0.570	-0.130	0.590
2020/01/31 18:13:15.4	356.800	0.570	-0.140	0.580
2020/01/31 18:13:15.5	356.820	0.570	-0.160	0.560
2020/01/31 18:13:15.6	356.830	0.570	-0.180	0.540
2020/01/31 18:13:15.7	356.860	0.560	-0.200	0.520
2020/01/31 18:13:15.8	356.880	0.550	-0.220	0.500
2020/01/31 18:13:15.9	356.900	0.550	-0.240	0.460
2020/01/31 18:13:16.0	356.930	0.530	-0.260	0.430
2020/01/31 18:13:16.1	356.960	0.520	-0.290	0.400
2020/01/31 18:13:16.2	356.980	0.510	-0.310	0.360
2020/01/31 18:13:16.3	357.010	0.490	-0.340	0.320
2020/01/31 18:13:16.4	357.040	0.470	-0.360	0.270
2020/01/31 18:13:16.5	357.070	0.450	-0.390	0.230
2020/01/31 18:13:16.6	357.100	0.430	-0.410	0.180
2020/01/31 18:13:16.7	357.130	0.410	-0.440	0.120
2020/01/31 18:13:16.8	357.160	0.380	-0.460	0.070
2020/01/31 18:13:16.9	357.190	0.360	-0.480	0.010
2020/01/31 18:13:17.0	357.210	0.330	-0.500	-0.050
2020/01/31 18:13:17.1	357.240	0.300	-0.520	-0.110
2020/01/31 18:13:17.2	357.260	0.270	-0.530	-0.170
2020/01/31 18:13:17.3	357.280	0.240	-0.550	-0.230
2020/01/31 18:13:17.4	357.300	0.210	-0.560	-0.290
2020/01/31 18:13:17.5	357.310	0.180	-0.570	-0.340
2020/01/31 18:13:17.6	357.320	0.150	-0.570	-0.400
2020/01/31 18:13:17.7	357.330	0.120	-0.570	-0.450
2020/01/31 18:13:17.8	357.330	0.080	-0.570	-0.490
2020/01/31 18:13:17.9	357.330	0.050	-0.570	-0.540
2020/01/31 18:13:18.0	357.320	0.020	-0.560	-0.580
2020/01/31 18:13:18.1	357.310	-0.020	-0.550	-0.610
2020/01/31 18:13:18.2	357.300	-0.050	-0.530	-0.640
2020/01/31 18:13:18.3	357.290	-0.090	-0.510	-0.660
2020/01/31 18:13:18.4	357.270	-0.120	-0.490	-0.680
2020/01/31 18:13:18.5	357.250	-0.150	-0.460	-0.690
2020/01/31 18:13:18.6	357.230	-0.190	-0.430	-0.700
2020/01/31 18:13:18.7	357.210	-0.220	-0.410	-0.710
2020/01/31 18:13:18.8	357.180	-0.250	-0.370	-0.710
2020/01/31 18:13:18.9	357.140	-0.280	-0.340	-0.700
2020/01/31 18:13:19.0	357.110	-0.310	-0.310	-0.700
2020/01/31 18:13:19.1	357.080	-0.340	-0.270	-0.690
2020/01/31 18:13:19.2	357.040	-0.370	-0.240	-0.680
2020/01/31 18:13:19.3	357.010	-0.400	-0.210	-0.670
2020/01/31 18:13:19.4	356.970	-0.430	-0.170	-0.660
2020/01/31 18:13:19.5	356.940	-0.450	-0.140	-0.650
2020/01/31 18:13:19.6	356.910	-0.470	-0.120	-0.640
2020/01/31 18:13:19.7	356.880	-0.490	-0.090	-0.630
2020/01/31 18:13:19.8	356.850	-0.510	-0.070	-0.620
2020/01/31 18:13:19.9	356.820	-0.530	-0.040	-0.620
2020/01/31 18:13:20.0	356.790	-0.540	-0.020	-0.610
2020/01/31 18:13:20.1	356.770	-0.550	-0.010	-0.610
2020/01/31 18:13:20.2	356.750	-0.560	0.000	-0.610
2020/01/31 18:13:20.3	356.730	-0.560	0.010	-0.610
2020/01/31 18:13:20.4	356.720	-0.570	0.020	-0.620
2020/01/31 18:13:20.5	356.700	-0.570	0.020	-0.620
2020/01/31 18:13:20.6	356.690	-0.560	0.030	-0.630
2020/01/31 18:13:20.7	356.690	-0.550	0.020	-0.630
2020/01/31 18:13:20.8	356.690	-0.540	0.020	-0.640
2020/01/31 18:13:20.9	356.690	-0.530	0.010	-0.650
2020/01/31 18:13:21.0	356.700	-0.510	0.000	-0.660
2020/01/31 18:13:21.1	356.710	-0.500	-0.010	-0.680
2020/01/31 18:13:21.2	356.720	-0.470	-0.020	-0.680
2020/01/31 18:13:21.3	356.740	-0.450	-0.030	-0.690
2020/01/31 18:13:21.4	356.750	-0.420	-0.050	-0.700
2020/01/31 18:13:21.5	356.780	-0.390	-0.070	-0.710
2020/01/31 18:13:21.6	356.800	-0.360	-0.080	-0.710
2020/01/31 18:13:21.7	356.830	-0.330	-0.100	-0.720
2020/01/31 18:13:21.8	356.850	-0.290	-0.110	-0.720
2020/01/31 18:13:21.9	356.880	-0.260	-0.130	-0.720
2020/01/31 18:13:22.0	356.910	-0.220	-0.140	-0.710
2020/01/31 18:13:22.1	356.940	-0.190	-0.160	-0.710
2020/01/31 18:13:22.2	356.970	-0.150	-0.170	-0.690
2020/01/31 18:13:22.3	357.000	-0.120	-0.180	-0.680
2020/01/31 18:13:22.4	357.040	-0.080	-0.190	-0.670
2020/01/31 18:13:22.5	357.070	-0.050	-0.200	-0.650
2020/01/31 18:13:22.6	357.100	-0.020	-0.200	-0.630
2020/01/31 18:13:22.7	357.130	0.010	-0.210	-0.610
2020/01/31 18:13:22.8	357.160	0.030	-0.210	-0.580
2020/01/31 18:13:22.9	357.180	0.060	-0.220	-0.560
2020/01/31 18:13:23.0	357.210	0.080	-0.220	-0.530
2020/01/31 18:13:23.1	357.230	0.100	-0.230	-0.500
2020/01/31 18:13:23.2	357.260	0.120	-0.230	-0.470
2020/01/31 18:13:23.3	357.280	0.130	-0.240	-0.440
2020/01/31 18:13:23.4	357.300	0.140	-0.250	-0.410
2020/01/31 18:13:23.5	357.320	0.160	-0.250	-0.380
2020/01/31 18:13:23.6	357.340	0.170	-0.260	-0.350
2020/01/31 18:13:23.7	357.350	0.170	-0.270	-0.310
2020/01/31 18:13:23.8	357.370	0.180	-0.280	-0.280
2020/01/31 18:13:23.9	357.380	0.190	-0.300	-0.240
2020/01/31 18:13:24.0	357.380	0.190	-0.310	-0.200
2020/01/31 18:13:24.1	357.390	0.190	-0.320	-0.160
2020/01/31 18:13:24.2	357.390	0.190	-0.340	-0.120
2020/01/31 18:13:24.3	357.390	0.190	-0.350	-0.080
2020/01/31 18:13:24.4	357.390	0.200	-0.370	-0.040
2020/01/31 18:13:24.5	357.390	0.200	-0.380	0.010
2020/01/31 18:13:24.6	357.380	0.200	-0.400	0.050
2020/01/31 18:13:24.7	357.370	0.200	-0.410	0.100
2020/01/31 18:13:24.8	357.360	0.200	-0.430	0.140
2020/01/31 18:13:24.9	357.340	0.210	-0.440	0.180
2020/01/31 18:13:25.0	357.330	0.210	-0.450	0.230
2020/01/31 18:13:25.1	357.320	0.220	-0.460	0.270
2020/01/31 18:13:25.2	357.300	0.230	-0.470	0.310
2020/01/31 18:13:25.3	357.280	0.240	-0.470	0.350
2020/01/31 18:13:25.4	357.270	0.250	-0.480	0.390
2020/01/31 18:13:25.5	357.250	0.260	-0.480	0.430
2020/01/31 18:13:25.6	357.240	0.280	-0.490	0.460
2020/01/31 18:13:25.7	357.220	0.300	-0.490	0.500
2020/01/31 18:13:25.8	357.200	0.310	-0.490	0.530
2020/01/31 18:13:25.9	357.180	0.330	-0.490	0.560
2020/01/31 18:13:26.0	357.170	0.350	-0.480	0.580
2020/01/31 18:13:26.1	357.150	0.370	-0.480	0.610
2020/01/31 18:13:26.2	357.140	0.390	-0.470	0.630
2020/01/31 18:13:26.3	357.130	0.410	-0.470	0.640
2020/01/31 18:13:26.4	357.110	0.430	-0.460	0.660
2020/01/31 18:13:26.5	357.100	0.440	-0.450	0.670
2020/01/31 18:13:26.6	357.090	0.460	-0.440	0.670
2020/01/31 18:13:26.7	357.070	0.470	-0.430	0.670
2020/01/31 18:13:26.8	357.060	0.480	-0.420	0.670
2020/01/31 18:13:26.9	357.050	0.480	-0.410	0.660
2020/01/31 18:13:27.0	357.050	0.490	-0.390	0.640
2020/01/31 18:13:27.1	357.040	0.490	-0.380	0.620
2020/01/31 18:13:27.2	357.030	0.480	-0.370	0.600
2020/01/31 18:13:27.3	357.030	0.480	-0.360	0.580
2020/01/31 18:13:27.4	357.030	0.460	-0.340	0.550
2020/01/31 18:13:27.5	357.030	0.450	-0.330	0.510
2020/01/31 18:13:27.6	357.030	0.430	-0.320	0.470
2020/01/31 18:13:27.7	357.030	0.400	-0.300	0.430
2020/01/31 18:13:27.8	357.040	0.370	-0.290	0.390
2020/01/31 18:13:27.9	357.040	0.340	-0.270	0.340
2020/01/31 18:13:28.0	357.050	0.300	-0.260	0.290
2020/01/31 18:13:28.1	357.050	0.260	-0.240	0.240
2020/01/31 18:13:28.2	357.060	0.210	-0.230	0.180
2020/01/31 18:13:28.3	357.070	0.160	-0.210	0.130
2020/01/31 18:13:28.4	357.070	0.110	-0.190	0.070
2020/01/31 18:13:28.5	357.080	0.060	-0.170	0.010
2020/01/31 18:13:28.6	357.090	-0.000	-0.150	-0.050
2020/01/31 18:13:28.7	357.090	-0.060	-0.140	-0.110
2020/01/31 18:13:28.8	357.100	-0.120	-0.120	-0.170
2020/01/31 18:13:28.9	357.100	-0.180	-0.100	-0.240
2020/01/31 18:13:29.0	357.110	-0.240	-0.080	-0.300
2020/01/31 18:13:29.1	357.110	-0.300	-0.060	-0.360
2020/01/31 18:13:29.2	357.110	-0.370	-0.040	-0.420
2020/01/31 18:13:29.3	357.120	-0.430	-0.020	-0.480
2020/01/31 18:13:29.4	357.120	-0.480	0.010	-0.530
2020/01/31 18:13:29.5	357.120	-0.540	0.030	-0.590
2020/01/31 18:13:29.6	357.120	-0.590	0.050	-0.640
2020/01/31 18:13:29.7	357.130	-0.640	0.060	-0.700
2020/01/31 18:13:29.8	357.130	-0.690	0.080	-0.750
2020/01/31 18:13:29.9	357.130	-0.730	0.100	-0.800
2020/01/31 18:13:30.0	357.130	-0.770	0.120	-0.850
2020/01/31 18:13:30.1	357.140	-0.800	0.130	-0.890
2020/01/31 18:13:30.2	357.150	-0.820	0.150	-0.930
2020/01/31 18:13:30.3	357.150	-0.840	0.160	-0.960
2020/01/31 18:13:30.4	357.160	-0.860	0.160	-0.990
2020/01/31 18:13:30.5	357.170	-0.860	0.170	-1.020
2020/01/31 18:13:30.6	357.180	-0.860	0.170	-1.050
2020/01/31 18:13:30.7	357.200	-0.850	0.170	-1.070
2020/01/31 18:13:30.8	357.210	-0.840	0.170	-1.090
2020/01/31 18:13:30.9	357.220	-0.820	0.160	-1.100
2020/01/31 18:13:31.0	357.240	-0.790	0.150	-1.110
2020/01/31 18:13:31.1	357.250	-0.760	0.140	-1.120
2020/01/31 18:13:31.2	357.270	-0.710	0.120	-1.120
2020/01/31 18:13:31.3	357.290	-0.670	0.100	-1.110
2020/01/31 18:13:31.4	357.310	-0.620	0.080	-1.100
2020/01/31 18:13:31.5	357.320	-0.560	0.050	-1.090
2020/01/31 18:13:31.6	357.340	-0.500	0.030	-1.070
2020/01/31 18:13:31.7	357.360	-0.430	-0.000	-1.050
2020/01/31 18:13:31.8	357.370	-0.370	-0.030	-1.030
2020/01/31 18:13:31.9	357.390	-0.300	-0.060	-1.000
2020/01/31 18:13:32.0	357.400	-0.220	-0.100	-0.970
2020/01/31 18:13:32.1	357.410	-0.150	-0.130	-0.930
2020/01/31 18:13:32.2	357.430	-0.080	-0.160	-0.900
2020/01/31 18:13:32.3	357.440	-0.000	-0.200	-0.860
2020/01/31 18:13:32.4	357.450	0.070	-0.240	-0.820
2020/01/31 18:13:32.5	357.460	0.150	-0.270	-0.770
2020/01/31 18:13:32.6	357.470	0.220	-0.310	-0.720
2020/01/31 18:13:32.7	357.480	0.290	-0.340	-0.670
2020/01/31 18:13:32.8	357.480	0.360	-0.380	-0.620
2020/01/31 18:13:32.9	357.480	0.420	-0.410	-0.570
2020/01/31 18:13:33.0	357.490	0.490	-0.440	-0.510
2020/01/31 18:13:33.1	357.490	0.540	-0.470	-0.450
2020/01/31 18:13:33.2	357.490	0.600	-0.500	-0.390
2020/01/31 18:13:33.3	357.490	0.650	-0.530	-0.330
2020/01/31 18:13:33.4	357.490	0.690	-0.550	-0.270
2020/01/31 18:13:33.5	357.480	0.730	-0.580	-0.210
2020/01/31 18:13:33.6	357.480	0.770	-0.600	-0.150
2020/01/31 18:13:33.7	357.480	0.790	-0.620	-0.090
2020/01/31 18:13:33.8	357.470	0.820	-0.630	-0.030
2020/01/31 18:13:33.9	357.470	0.830	-0.650	0.020
2020/01/31 18:13:34.0	357.470	0.850	-0.660	0.080
2020/01/31 18:13:34.1	357.470	0.850	-0.670	0.120
2020/01/31 18:13:34.2	357.470	0.850	-0.680	0.170
2020/01/31 18:13:34.3	357.470	0.850	-0.690	0.210
2020/01/31 18:13:34.4	357.470	0.840	-0.690	0.240
2020/01/31 18:13:34.5	357.470	0.820	-0.690	0.270
2020/01/31 18:13:34.6	357.470	0.800	-0.690	0.300
2020/01/31 18:13:34.7	357.470	0.770	-0.690	0.320
2020/01/31 18:13:34.8	357.470	0.740	-0.680	0.330
2020/01/31 18:13:34.9	357.470	0.710	-0.670	0.340
2020/01/31 18:13:35.0	357.470	0.670	-0.660	0.340
2020/01/31 18:13:35.1	357.470	0.620	-0.640	0.340
2020/01/31 18:13:35.2	357.480	0.580	-0.620	0.330
2020/01/31 18:13:35.3	357.480	0.520	-0.600	0.310
2020/01/31 18:13:35.4	357.480	0.470	-0.580	0.300
2020/01/31 18:13:35.5	357.480	0.410	-0.550	0.270
2020/01/31 18:13:35.6	357.480	0.350	-0.520	0.250
2020/01/31 18:13:35.7	357.480	0.280	-0.490	0.220
2020/01/31 18:13:35.8	357.480	0.220	-0.450	0.190
2020/01/31 18:13:35.9	357.480	0.150	-0.420	0.150
2020/01/31 18:13:36.0	357.480	0.080	-0.380	0.110
2020/01/31 18:13:36.1	357.480	0.010	-0.340	0.070
2020/01/31 18:13:36.2	357.480	-0.060	-0.300	0.030
2020/01/31 18:13:36.3	357.480	-0.130	-0.250	-0.010
2020/01/31 18:13:36.4	357.480	-0.200	-0.210	-0.060
2020/01/31 18:13:36.5	357.480	-0.270	-0.170	-0.100
2020/01/31 18:13:36.6	357.480	-0.340	-0.120	-0.150
2020/01/31 18:13:36.7	357.480	-0.410	-0.080	-0.190
2020/01/31 18:13:36.8	357.480	-0.470	-0.030	-0.240
2020/01/31 18:13:36.9	357.480	-0.540	0.010	-0.280
2020/01/31 18:13:37.0	357.490	-0.600	0.050	-0.330
2020/01/31 18:13:37.1	357.500	-0.650	0.090	-0.380
2020/01/31 18:13:37.2	357.510	-0.710	0.120	-0.430
2020/01/31 18:13:37.3	357.520	-0.750	0.150	-0.480
2020/01/31 18:13:37.4	357.540	-0.800	0.170	-0.530
2020/01/31 18:13:37.5	357.550	-0.840	0.190	-0.580
2020/01/31 18:13:37.6	357.570	-0.870	0.200	-0.630
2020/01/31 18:13:37.7	357.590	-0.900	0.210	-0.680
2020/01/31 18:13:37.8	357.610	-0.930	0.220	-0.730
2020/01/31 18:13:37.9	357.630	-0.950	0.210	-0.790
2020/01/31 18:13:38.0	357.650	-0.960	0.210	-0.830
2020/01/31 18:13:38.1	357.670	-0.970	0.190	-0.880
2020/01/31 18:13:38.2	357.690	-0.970	0.180	-0.920
2020/01/31 18:13:38.3	357.720	-0.960	0.160	-0.960
2020/01/31 18:13:38.4	357.740	-0.950	0.130	-0.990
2020/01/31 18:13:38.5	357.760	-0.930	0.110	-1.020
2020/01/31 18:13:38.6	357.780	-0.910	0.080	-1.050
2020/01/31 18:13:38.7	357.800	-0.870	0.040	-1.070
2020/01/31 18:13:38.8	357.810	-0.840	0.010	-1.080
2020/01/31 18:13:38.9	357.830	-0.790	-0.030	-1.090
2020/01/31 18:13:39.0	357.840	-0.740	-0.070	-1.100
2020/01/31 18:13:39.1	357.860	-0.690	-0.120	-1.100
2020/01/31 18:13:39.2	357.880	-0.630	-0.160	-1.100
2020/01/31 18:13:39.3	357.890	-0.560	-0.210	-1.090
2020/01/31 18:13:39.4	357.910	-0.490	-0.260	-1.070
2020/01/31 18:13:39.5	357.920	-0.420	-0.300	-1.060
2020/01/31 18:13:39.6	357.940	-0.340	-0.350	-1.040
2020/01/31 18:13:39.7	357.950	-0.260	-0.400	-1.010
2020/01/31 18:13:39.8	357.970	-0.170	-0.450	-0.980
2020/01/31 18:13:39.9	357.990	-0.090	-0.490	-0.950
2020/01/31 18:13:40.0	358.000	0.000	-0.540	-0.920
2020/01/31 18:13:40.1	358.020	0.090	-0.580	-0.880
2020/01/31 18:13:40.2	358.040	0.180	-0.620	-0.840
2020/01/31 18:13:40.3	358.060	0.260	-0.660	-0.800
2020/01/31 18:13:40.4	358.080	0.350	-0.700	-0.760
2020/01/31 18:13:40.5	358.090	0.430	-0.730	-0.710
2020/01/31 18:13:40.6	358.110	0.520	-0.760	-0.660
2020/01/31 18:13:40.7	358.130	0.590	-0.780	-0.600
2020/01/31 18:13:40.8	358.140	0.670	-0.800	-0.540
2020/01/31 18:13:40.9	358.150	0.730	-0.810	-0.480
2020/01/31 18:13:41.0	358.150	0.800	-0.820	-0.420
2020/01/31 18:13:41.1	358.160	0.850	-0.820	-0.360
2020/01/31 18:13:41.2	358.160	0.900	-0.810	-0.290
2020/01/31 18:13:41.3	358.160	0.950	-0.800	-0.230
2020/01/31 18:13:41.4	358.160	0.980	-0.790	-0.170
2020/01/31 18:13:41.5	358.150	1.010	-0.770	-0.100
2020/01/31 18:13:41.6	358.140	1.030	-0.740	-0.040
2020/01/31 18:13:41.7	358.130	1.030	-0.700	0.020
2020/01/31 18:13:41.8	358.110	1.040	-0.660	0.070
2020/01/31 18:13:41.9	358.090	1.030	-0.620	0.130
2020/01/31 18:13:42.0	358.070	1.010	-0.570	0.180
2020/01/31 18:13:42.1	358.040	0.990	-0.520	0.220
2020/01/31 18:13:42.2	358.010	0.950	-0.460	0.260
2020/01/31 18:13:42.3	357.980	0.910	-0.400	0.290
2020/01/31 18:13:42.4	357.950	0.860	-0.330	0.320
2020/01/31 18:13:42.5	357.910	0.800	-0.270	0.340
2020/01/31 18:13:42.6	357.880	0.740	-0.210	0.360
2020/01/31 18:13:42.7	357.840	0.670	-0.140	0.370
2020/01/31 18:13:42.8	357.800	0.600	-0.080	0.370
2020/01/31 18:13:42.9	357.770	0.520	-0.010	0.360
2020/01/31 18:13:43.0	357.740	0.440	0.050	0.350
2020/01/31 18:13:43.1	357.710	0.350	0.110	0.330
2020/01/31 18:13:43.2	357.670	0.260	0.160	0.310
2020/01/31 18:13:43.3	357.640	0.170	0.210	0.280
2020/01/31 18:13:43.4	357.620	0.080	0.250	0.240
2020/01/31 18:13:43.5	357.600	-0.010	0.300	0.200
2020/01/31 18:13:43.6	357.580	-0.090	0.330	0.150
2020/01/31 18:13:43.7	357.560	-0.180	0.360	0.090
2020/01/31 18:13:43.8	357.550	-0.260	0.380	0.040
2020/01/31 18:13:43.9	357.540	-0.340	0.400	-0.030
2020/01/31 18:13:44.0	357.530	-0.410	0.410	-0.100
2020/01/31 18:13:44.1	357.530	-0.480	0.410	-0.170
2020/01/31 18:13:44.2	357.540	-0.540	0.410	-0.240
2020/01/31 18:13:44.3	357.550	-0.600	0.400	-0.320
2020/01/31 18:13:44.4	357.560	-0.650	0.380	-0.400
2020/01/31 18:13:44.5	357.580	-0.690	0.360	-0.490
2020/01/31 18:13:44.6	357.600	-0.720	0.330	-0.570
2020/01/31 18:13:44.7	357.620	-0.750	0.290	-0.660
2020/01/31 18:13:44.8	357.650	-0.760	0.250	-0.750
2020/01/31 18:13:44.9	357.680	-0.770	0.210	-0.840
2020/01/31 18:13:45.0	357.710	-0.770	0.160	-0.930
2020/01/31 18:13:45.1	357.740	-0.760	0.110	-1.010
2020/01/31 18:13:45.2	357.780	-0.750	0.050	-1.100
2020/01/31 18:13:45.3	357.820	-0.720	-0.000	-1.180
2020/01/31 18:13:45.4	357.860	-0.690	-0.060	-1.250
2020/01/31 18:13:45.5	357.900	-0.650	-0.120	-1.320
2020/01/31 18:13:45.6	357.950	-0.610	-0.170	-1.390
2020/01/31 18:13:45.7	357.990	-0.560	-0.230	-1.440
2020/01/31 18:13:45.8	358.030	-0.510	-0.280	-1.500
2020/01/31 18:13:45.9	358.070	-0.450	-0.340	-1.540
2020/01/31 18:13:46.0	358.110	-0.390	-0.390	-1.580
2020/01/31 18:13:46.1	358.150	-0.330	-0.430	-1.610
2020/01/31 18:13:46.2	358.190	-0.270	-0.470	-1.640
2020/01/31 18:13:46.3	358.230	-0.200	-0.510	-1.650
2020/01/31 18:13:46.4	358.260	-0.140	-0.540	-1.660
2020/01/31 18:13:46.5	358.290	-0.080	-0.570	-1.660
2020/01/31 18:13:46.6	358.320	-0.020	-0.590	-1.650
2020/01/31 18:13:46.7	358.350	0.040	-0.610	-1.640
2020/01/31 18:13:46.8	358.370	0.100	-0.620	-1.610
2020/01/31 18:13:46.9	358.380	0.150	-0.620	-1.580
2020/01/31 18:13:47.0	358.400	0.200	-0.620	-1.550
2020/01/31 18:13:47.1	358.410	0.240	-0.610	-1.510
2020/01/31 18:13:47.2	358.410	0.270	-0.590	-1.460
2020/01/31 18:13:47.3	358.420	0.300	-0.570	-1.410
2020/01/31 18:13:47.4	358.410	0.330	-0.550	-1.350
2020/01/31 18:13:47.5	358.410	0.340	-0.520	-1.290
2020/01/31 18:13:47.6	358.400	0.350	-0.490	-1.230
2020/01/31 18:13:47.7	358.380	0.360	-0.450	-1.170
2020/01/31 18:13:47.8	358.370	0.360	-0.410	-1.100
2020/01/31 18:13:47.9	358.340	0.350	-0.370	-1.030
2020/01/31 18:13:48.0	358.320	0.330	-0.320	-0.970
2020/01/31 18:13:48.1	358.300	0.310	-0.280	-0.900
2020/01/31 18:13:48.2	358.270	0.290	-0.230	-0.840
2020/01/31 18:13:48.3	358.240	0.260	-0.180	-0.770
2020/01/31 18:13:48.4	358.210	0.220	-0.140	-0.710
2020/01/31 18:13:48.5	358.180	0.180	-0.090	-0.650
2020/01/31 18:13:48.6	358.140	0.140	-0.050	-0.590
2020/01/31 18:13:48.7	358.110	0.090	-0.000	-0.540
2020/01/31 18:13:48.8	358.080	0.040	0.040	-0.480
2020/01/31 18:13:48.9	358.040	-0.000	0.080	-0.430
2020/01/31 18:13:49.0	358.010	-0.050	0.110	-0.380
2020/01/31 18:13:49.1	357.980	-0.100	0.140	-0.340
2020/01/31 18:13:49.2	357.950	-0.150	0.170	-0.290
2020/01/31 18:13:49.3	357.920	-0.200	0.190	-0.250
2020/01/31 18:13:49.4	357.890	-0.240	0.210	-0.220
2020/01/31 18:13:49.5	357.870	-0.280	0.220	-0.180
2020/01/31 18:13:49.6	357.850	-0.310	0.220	-0.150
2020/01/31 18:13:49.7	357.830	-0.350	0.220	-0.130
2020/01/31 18:13:49.8	357.810	-0.370	0.220	-0.100
2020/01/31 18:13:49.9	357.800	-0.400	0.200	-0.080
2020/01/31 18:13:50.0	357.790	-0.410	0.180	-0.060
2020/01/31 18:13:50.1	357.780	-0.420	0.160	-0.050
2020/01/31 18:13:50.2	357.770	-0.430	0.130	-0.040
2020/01/31 18:13:50.3	357.770	-0.430	0.090	-0.030
2020/01/31 18:13:50.4	357.770	-0.420	0.050	-0.020
2020/01/31 18:13:50.5	357.770	-0.410	0.010	-0.010
2020/01/31 18:13:50.6	357.770	-0.390	-0.040	-0.000
2020/01/31 18:13:50.7	357.780	-0.370	-0.100	0.010
2020/01/31 18:13:50.8	357.780	-0.340	-0.150	0.010
2020/01/31 18:13:50.9	357.790	-0.310	-0.210	0.010
2020/01/31 18:13:51.0	357.800	-0.270	-0.260	0.010
2020/01/31 18:13:51.1	357.810	-0.230	-0.320	0.010
2020/01/31 18:13:51.2	357.820	-0.190	-0.390	0.010
2020/01/31 18:13:51.3	357.820	-0.140	-0.450	0.010
2020/01/31 18:13:51.4	357.830	-0.090	-0.510	0.010
2020/01/31 18:13:51.5	357.850	-0.050	-0.570	0.010
2020/01/31 18:13:51.6	357.860	0.000	-0.630	0.000
2020/01/31 18:13:51.7	357.870	0.050	-0.690	-0.010
2020/01/31 18:13:51.8	357.880	0.110	-0.740	-0.010
2020/01/31 18:13:51.9	357.900	0.160	-0.800	-0.020
2020/01/31 18:13:52.0	357.920	0.200	-0.850	-0.030
2020/01/31 18:13:52.1	357.930	0.250	-0.900	-0.050
2020/01/31 18:13:52.2	357.950	0.300	-0.940	-0.060
2020/01/31 18:13:52.3	357.970	0.340	-0.980	-0.070
2020/01/31 18:13:52.4	357.990	0.380	-1.020	-0.090
2020/01/31 18:13:52.5	358.010	0.420	-1.060	-0.100
2020/01/31 18:13:52.6	358.030	0.460	-1.090	-0.120
2020/01/31 18:13:52.7	358.060	0.490	-1.110	-0.130
2020/01/31 18:13:52.8	358.080	0.510	-1.130	-0.150
2020/01/31 18:13:52.9	358.110	0.540	-1.150	-0.170
2020/01/31 18:13:53.0	358.140	0.560	-1.160	-0.190
2020/01/31 18:13:53.1	358.180	0.570	-1.160	-0.220
2020/01/31 18:13:53.2	358.210	0.580	-1.160	-0.240
2020/01/31 18:13:53.3	358.240	0.580	-1.160	-0.260
2020/01/31 18:13:53.4	358.280	0.580	-1.150	-0.290
2020/01/31 18:13:53.5	358.310	0.580	-1.130	-0.310
2020/01/31 18:13:53.6	358.350	0.570	-1.110	-0.340
2020/01/31 18:13:53.7	358.380	0.550	-1.080	-0.370
2020/01/31 18:13:53.8	358.410	0.530	-1.040	-0.390
2020/01/31 18:13:53.9	358.440	0.510	-1.000	-0.420
2020/01/31 18:13:54.0	358.460	0.480	-0.950	-0.450
2020/01/31 18:13:54.1	358.490	0.450	-0.900	-0.470
2020/01/31 18:13:54.2	358.520	0.410	-0.830	-0.490
2020/01/31 18:13:54.3	358.540	0.370	-0.770	-0.510
2020/01/31 18:13:54.4	358.560	0.330	-0.690	-0.530
2020/01/31 18:13:54.5	358.570	0.280	-0.620	-0.540
2020/01/31 18:13:54.6	358.580	0.230	-0.540	-0.550
2020/01/31 18:13:54.7	358.590	0.180	-0.450	-0.560
2020/01/31 18:13:54.8	358.590	0.120	-0.360	-0.570
2020/01/31 18:13:54.9	358.590	0.070	-0.270	-0.570
2020/01/31 18:13:55.0	358.580	0.010	-0.180	-0.560
2020/01/31 18:13:55.1	358.570	-0.040	-0.090	-0.560
2020/01/31 18:13:55.2	358.560	-0.100	0.010	-0.550
2020/01/31 18:13:55.3	358.540	-0.150	0.100	-0.540
2020/01/31 18:13:55.4	358.510	-0.200	0.190	-0.520
2020/01/31 18:13:55.5	358.490	-0.250	0.280	-0.500
2020/01/31 18:13:55.6	358.450	-0.300	0.360	-0.480
2020/01/31 18:13:55.7	358.420	-0.340	0.450	-0.460
2020/01/31 18:13:55.8	358.390	-0.380	0.520	-0.430
2020/01/31 18:13:55.9	358.350	-0.420	0.590	-0.400
2020/01/31 18:13:56.0	358.310	-0.450	0.660	-0.370
2020/01/31 18:13:56.1	358.270	-0.480	0.720	-0.340
2020/01/31 18:13:56.2	358.220	-0.500	0.770	-0.310
2020/01/31 18:13:56.3	358.180	-0.520	0.810	-0.280
2020/01/31 18:13:56.4	358.130	-0.530	0.850	-0.250
2020/01/31 18:13:56.5	358.090	-0.540	0.880	-0.220
2020/01/31 18:13:56.6	358.040	-0.540	0.890	-0.180
2020/01/31 18:13:56.7	358.000	-0.530	0.910	-0.150
2020/01/31 18:13:56.8	357.950	-0.520	0.910	-0.120
2020/01/31 18:13:56.9	357.910	-0.500	0.910	-0.100
2020/01/31 18:13:57.0	357.870	-0.470	0.890	-0.070
2020/01/31 18:13:57.1	357.830	-0.440	0.870	-0.050
2020/01/31 18:13:57.2	357.790	-0.410	0.830	-0.020
2020/01/31 18:13:57.3	357.760	-0.370	0.790	-0.000
2020/01/31 18:13:57.4	357.730	-0.320	0.750	0.010
2020/01/31 18:13:57.5	357.710	-0.270	0.690	0.030
2020/01/31 18:13:57.6	357.690	-0.210	0.630	0.040
2020/01/31 18:13:57.7	357.670	-0.160	0.560	0.050
2020/01/31 18:13:57.8	357.650	-0.100	0.490	0.050
2020/01/31 18:13:57.9	357.640	-0.030	0.410	0.060
2020/01/31 18:13:58.0	357.630	0.030	0.330	0.060
2020/01/31 18:13:58.1	357.620	0.100	0.250	0.060
2020/01/31 18:13:58.2	357.610	0.160	0.160	0.060
2020/01/31 18:13:58.3	357.610	0.220	0.080	0.060
2020/01/31 18:13:58.4	357.610	0.290	-0.010	0.060
2020/01/31 18:13:58.5	357.600	0.350	-0.090	0.050
2020/01/31 18:13:58.6	357.600	0.400	-0.170	0.050
2020/01/31 18:13:58.7	357.610	0.460	-0.250	0.050
2020/01/31 18:13:58.8	357.610	0.500	-0.330	0.040
2020/01/31 18:13:58.9	357.610	0.550	-0.400	0.040
2020/01/31 18:13:59.0	357.610	0.590	-0.460	0.030
2020/01/31 18:13:59.1	357.610	0.620	-0.520	0.020
2020/01/31 18:13:59.2	357.620	0.640	-0.580	0.010
2020/01/31 18:13:59.3	357.620	0.660	-0.620	0.000
2020/01/31 18:13:59.4	357.620	0.670	-0.660	-0.010
2020/01/31 18:13:59.5	357.630	0.680	-0.700	-0.030
2020/01/31 18:13:59.6	357.630	0.680	-0.730	-0.050
2020/01/31 18:13:59.7	357.630	0.670	-0.750	-0.070
2020/01/31 18:13:59.8	357.640	0.650	-0.760	-0.090
2020/01/31 18:13:59.9	357.650	0.630	-0.770	-0.120
2020/01/31 18:14:00.0	357.660	0.600	-0.770	-0.140
2020/01/31 18:14:00.1	357.660	0.570	-0.770	-0.170
2020/01/31 18:14:00.2	357.670	0.530	-0.770	-0.200
2020/01/31 18:14:00.3	357.680	0.480	-0.760	-0.240
2020/01/31 18:14:00.4	357.700	0.430	-0.740	-0.270
2020/01/31 18:14:00.5	357.710	0.380	-0.730	-0.310
2020/01/31 18:14:00.6	357.720	0.320	-0.710	-0.340
2020/01/31 18:14:00.7	357.740	0.260	-0.680	-0.380
2020/01/31 18:14:00.8	357.760	0.190	-0.660	-0.420
2020/01/31 18:14:00.9	357.780	0.130	-0.630	-0.460
2020/01/31 18:14:01.0	357.800	0.060	-0.610	-0.500
2020/01/31 18:14:01.1	357.820	-0.000	-0.580	-0.530
2020/01/31 18:14:01.2	357.850	-0.070	-0.560	-0.570
2020/01/31 18:14:01.3	357.870	-0.130	-0.540	-0.610
2020/01/31 18:14:01.4	357.900	-0.200	-0.510	-0.640
2020/01/31 18:14:01.5	357.920	-0.260	-0.490	-0.680
2020/01/31 18:14:01.6	357.950	-0.320	-0.470	-0.710
2020/01/31 18:14:01.7	357.980	-0.370	-0.450	-0.740
2020/01/31 18:14:01.8	358.010	-0.430	-0.430	-0.770
2020/01/31 18:14:01.9	358.040	-0.470	-0.420	-0.810
2020/01/31 18:14:02.0	358.060	-0.520	-0.410	-0.840
2020/01/31 18:14:02.1	358.090	-0.560	-0.400	-0.860
2020/01/31 18:14:02.2	358.120	-0.590	-0.390	-0.890
2020/01/31 18:14:02.3	358.140	-0.620	-0.380	-0.920
2020/01/31 18:14:02.4	358.160	-0.650	-0.370	-0.940
2020/01/31 18:14:02.5	358.180	-0.660	-0.360	-0.960
2020/01/31 18:14:02.6	358.200	-0.680	-0.360	-0.980
2020/01/31 18:14:02.7	358.210	-0.690	-0.350	-0.990
2020/01/31 18:14:02.8	358.220	-0.690	-0.350	-1.010
2020/01/31 18:14:02.9	358.230	-0.700	-0.350	-1.020
2020/01/31 18:14:03.0	358.240	-0.690	-0.350	-1.030
2020/01/31 18:14:03.1	358.240	-0.680	-0.340	-1.030
2020/01/31 18:14:03.2	358.250	-0.670	-0.340	-1.030
2020/01/31 18:14:03.3	358.250	-0.650	-0.340	-1.030
2020/01/31 18:14:03.4	358.250	-0.630	-0.350	-1.030
2020/01/31 18:14:03.5	358.250	-0.610	-0.350	-1.020
2020/01/31 18:14:03.6	358.250	-0.580	-0.350	-1.010
2020/01/31 18:14:03.7	358.250	-0.550	-0.350	-1.000
2020/01/31 18:14:03.8	358.250	-0.520	-0.350	-0.980
2020/01/31 18:14:03.9	358.240	-0.480	-0.360	-0.960
2020/01/31 18:14:04.0	358.240	-0.450	-0.360	-0.940
2020/01/31 18:14:04.1	358.230	-0.410	-0.370	-0.910
2020/01/31 18:14:04.2	358.230	-0.370	-0.370	-0.890
2020/01/31 18:14:04.3	358.230	-0.320	-0.370	-0.860
2020/01/31 18:14:04.4	358.220	-0.280	-0.370	-0.830
2020/01/31 18:14:04.5	358.220	-0.240	-0.380	-0.800
2020/01/31 18:14:04.6	358.220	-0.190	-0.380	-0.770
2020/01/31 18:14:04.7	358.210	-0.150	-0.380	-0.730
2020/01/31 18:14:04.8	358.210	-0.110	-0.380	-0.700
2020/01/31 18:14:04.9	358.210	-0.070	-0.380	-0.660
2020/01/31 18:14:05.0	358.200	-0.030	-0.380	-0.630
2020/01/31 18:14:05.1	358.200	0.010	-0.380	-0.590
2020/01/31 18:14:05.2	358.200	0.050	-0.370	-0.550
2020/01/31 18:14:05.3	358.190	0.090	-0.370	-0.510
2020/01/31 18:14:05.4	358.190	0.130	-0.370	-0.470
2020/01/31 18:14:05.5	358.190	0.160	-0.360	-0.430
2020/01/31 18:14:05.6	358.180	0.200	-0.360	-0.390
2020/01/31 18:14:05.7	358.180	0.230	-0.350	-0.360
2020/01/31 18:14:05.8	358.180	0.260	-0.340	-0.320
2020/01/31 18:14:05.9	358.170	0.280	-0.330	-0.290
2020/01/31 18:14:06.0	358.170	0.310	-0.330	-0.250
2020/01/31 18:14:06.1	358.170	0.330	-0.320	-0.220
2020/01/31 18:14:06.2	358.160	0.360	-0.310	-0.190
2020/01/31 18:14:06.3	358.160	0.380	-0.290	-0.160
2020/01/31 18:14:06.4	358.160	0.400	-0.280	-0.130
2020/01/31 18:14:06.5	358.160	0.410	-0.270	-0.100
2020/01/31 18:14:06.6	358.160	0.430	-0.250	-0.070
2020/01/31 18:14:06.7	358.160	0.440	-0.230	-0.050
2020/01/31 18:14:06.8	358.160	0.460	-0.210	-0.020
2020/01/31 18:14:06.9	358.160	0.470	-0.190	0.010
2020/01/31 18:14:07.0	358.160	0.480	-0.170	0.030
2020/01/31 18:14:07.1	358.160	0.490	-0.140	0.060
2020/01/31 18:14:07.2	358.160	0.500	-0.120	0.090
2020/01/31 18:14:07.3	358.160	0.500	-0.090	0.120
2020/01/31 18:14:07.4	358.150	0.510	-0.050	0.150
2020/01/31 18:14:07.5	358.150	0.510	-0.020	0.180
2020/01/31 18:14:07.6	358.140	0.510	0.020	0.210
2020/01/31 18:14:07.7	358.130	0.520	0.060	0.250
2020/01/31 18:14:07.8	358.110	0.510	0.090	0.280
2020/01/31 18:14:07.9	358.100	0.510	0.130	0.320
2020/01/31 18:14:08.0	358.080	0.500	0.170	0.350
2020/01/31 18:14:08.1	358.050	0.500	0.210	0.390
2020/01/31 18:14:08.2	358.030	0.480	0.250	0.420
2020/01/31 18:14:08.3	358.000	0.470	0.290	0.450
2020/01/31 18:14:08.4	357.980	0.460	0.320	0.480
2020/01/31 18:14:08.5	357.950	0.440	0.350	0.510
2020/01/31 18:14:08.6	357.910	0.420	0.380	0.540
2020/01/31 18:14:08.7	357.880	0.400	0.400	0.560
2020/01/31 18:14:08.8	357.850	0.370	0.410	0.570
2020/01/31 18:14:08.9	357.820	0.350	0.430	0.590
2020/01/31 18:14:09.0	357.780	0.320	0.440	0.590
2020/01/31 18:14:09.1	357.750	0.290	0.440	0.590
2020/01/31 18:14:09.2	357.710	0.260	0.430	0.590
2020/01/31 18:14:09.3	357.680	0.230	0.420	0.580
2020/01/31 18:14:09.4	357.650	0.200	0.400	0.570
2020/01/31 18:14:09.5	357.620	0.170	0.370	0.540
2020/01/31 18:14:09.6	357.590	0.140	0.340	0.520
2020/01/31 18:14:09.7	357.570	0.110	0.300	0.480
2020/01/31 18:14:09.8	357.550	0.070	0.250	0.440
2020/01/31 18:14:09.9	357.530	0.040	0.200	0.390
2020/01/31 18:14:10.0	357.510	0.010	0.140	0.340
2020/01/31 18:14:10.1	357.500	-0.010	0.070	0.290
2020/01/31 18:14:10.2	357.490	-0.040	0.000	0.230
2020/01/31 18:14:10.3	357.490	-0.070	-0.070	0.160
2020/01/31 18:14:10.4	357.490	-0.090	-0.150	0.100
2020/01/31 18:14:10.5	357.500	-0.110	-0.240	0.030
2020/01/31 18:14:10.6	357.510	-0.130	-0.320	-0.050
2020/01/31 18:14:10.7	357.520	-0.140	-0.410	-0.120
2020/01/31 18:14:10.8	357.530	-0.160	-0.490	-0.200
2020/01/31 18:14:10.9	357.560	-0.170	-0.580	-0.280
2020/01/31 18:14:11.0	357.580	-0.180	-0.660	-0.360
2020/01/31 18:14:11.1	357.600	-0.190	-0.740	-0.440
2020/01/31 18:14:11.2	357.630	-0.190	-0.820	-0.520
2020/01/31 18:14:11.3	357.660	-0.200	-0.900	-0.600
2020/01/31 18:14:11.4	357.690	-0.200	-0.970	-0.680
2020/01/31 18:14:11.5	357.730	-0.200	-1.030	-0.750
2020/01/31 18:14:11.6	357.760	-0.200	-1.080	-0.830
2020/01/31 18:14:11.7	357.800	-0.200	-1.130	-0.910
2020/01/31 18:14:11.8	357.840	-0.200	-1.180	-0.980
2020/01/31 18:14:11.9	357.880	-0.200	-1.210	-1.050
2020/01/31 18:14:12.0	357.920	-0.200	-1.240	-1.120
2020/01/31 18:14:12.1	357.960	-0.200	-1.260	-1.190
2020/01/31 18:14:12.2	358.010	-0.190	-1.270	-1.260
2020/01/31 18:14:12.3	358.050	-0.190	-1.270	-1.320
2020/01/31 18:14:12.4	358.100	-0.190	-1.270	-1.380
2020/01/31 18:14:12.5	358.140	-0.190	-1.260	-1.430
2020/01/31 18:14:12.6	358.190	-0.190	-1.240	-1.480
2020/01/31 18:14:12.7	358.230	-0.190	-1.210	-1.530
2020/01/31 18:14:12.8	358.280	-0.190	-1.180	-1.570
2020/01/31 18:14:12.9	358.310	-0.200	-1.150	-1.610
2020/01/31 18:14:13.0	358.360	-0.200	-1.100	-1.640
2020/01/31 18:14:13.1	358.400	-0.200	-1.050	-1.670
2020/01/31 18:14:13.2	358.440	-0.210	-1.000	-1.690
2020/01/31 18:14:13.3	358.480	-0.210	-0.940	-1.710
2020/01/31 18:14:13.4	358.520	-0.220	-0.880	-1.710
2020/01/31 18:14:13.5	358.550	-0.230	-0.820	-1.720
2020/01/31 18:14:13.6	358.580	-0.240	-0.750	-1.710
2020/01/31 18:14:13.7	358.610	-0.250	-0.680	-1.710
2020/01/31 18:14:13.8	358.640	-0.260	-0.610	-1.690
2020/01/31 18:14:13.9	358.660	-0.270	-0.540	-1.670
2020/01/31 18:14:14.0	358.690	-0.280	-0.460	-1.640
2020/01/31 18:14:14.1	358.700	-0.290	-0.390	-1.620
2020/01/31 18:14:14.2	358.720	-0.300	-0.310	-1.580
2020/01/31 18:14:14.3	358.730	-0.310	-0.240	-1.540
2020/01/31 18:14:14.4	358.740	-0.320	-0.160	-1.500
2020/01/31 18:14:14.5	358.740	-0.330	-0.090	-1.450
2020/01/31 18:14:14.6	358.750	-0.340	-0.020	-1.400
2020/01/31 18:14:14.7	358.750	-0.350	0.050	-1.350
2020/01/31 18:14:14.8	358.740	-0.350	0.120	-1.290
2020/01/31 18:14:14.9	358.730	-0.360	0.190	-1.230
2020/01/31 18:14:15.0	358.720	-0.360	0.250	-1.170
2020/01/31 18:14:15.1	358.710	-0.350	0.310	-1.100
2020/01/31 18:14:15.2	358.690	-0.350	0.360	-1.030
2020/01/31 18:14:15.3	358.670	-0.340	0.410	-0.960
2020/01/31 18:14:15.4	358.650	-0.330	0.460	-0.880
2020/01/31 18:14:15.5	358.620	-0.320	0.500	-0.810
2020/01/31 18:14:15.6	358.590	-0.300	0.530	-0.730
2020/01/31 18:14:15.7	358.560	-0.280	0.560	-0.650
2020/01/31 18:14:15.8	358.530	-0.260	0.590	-0.570
2020/01/31 18:14:15.9	358.500	-0.230	0.600	-0.490
2020/01/31 18:14:16.0	358.460	-0.200	0.620	-0.410
2020/01/31 18:14:16.1	358.420	-0.170	0.620	-0.330
2020/01/31 18:14:16.2	358.390	-0.130	0.620	-0.250
2020/01/31 18:14:16.3	358.350	-0.090	0.620	-0.180
2020/01/31 18:14:16.4	358.310	-0.050	0.610	-0.100
2020/01/31 18:14:16.5	358.270	-0.000	0.590	-0.020
2020/01/31 18:14:16.6	358.230	0.040	0.570	0.050
2020/01/31 18:14:16.7	358.190	0.090	0.540	0.120
2020/01/31 18:14:16.8	358.160	0.140	0.510	0.190
2020/01/31 18:14:16.9	358.120	0.190	0.480	0.260
2020/01/31 18:14:17.0	358.080	0.250	0.440	0.320
2020/01/31 18:14:17.1	358.050	0.300	0.390	0.380
2020/01/31 18:14:17.2	358.010	0.350	0.350	0.440
2020/01/31 18:14:17.3	357.980	0.400	0.300	0.490
2020/01/31 18:14:17.4	357.940	0.450	0.240	0.540
2020/01/31 18:14:17.5	357.910	0.500	0.190	0.580
2020/01/31 18:14:17.6	357.880	0.540	0.130	0.620
2020/01/31 18:14:17.7	357.850	0.580	0.080	0.660
2020/01/31 18:14:17.8	357.820	0.620	0.020	0.680
2020/01/31 18:14:17.9	357.780	0.650	-0.030	0.710
2020/01/31 18:14:18.0	357.760	0.680	-0.080	0.720
2020/01/31 18:14:18.1	357.730	0.710	-0.140	0.730
2020/01/31 18:14:18.2	357.700	0.730	-0.190	0.740
2020/01/31 18:14:18.3	357.670	0.740	-0.240	0.740
2020/01/31 18:14:18.4	357.640	0.750	-0.280	0.730
2020/01/31 18:14:18.5	357.610	0.750	-0.330	0.710
2020/01/31 18:14:18.6	357.590	0.750	-0.370	0.690
2020/01/31 18:14:18.7	357.560	0.740	-0.400	0.670
2020/01/31 18:14:18.8	357.530	0.720	-0.430	0.640
2020/01/31 18:14:18.9	357.500	0.700	-0.460	0.600
2020/01/31 18:14:19.0	357.480	0.670	-0.490	0.560
2020/01/31 18:14:19.1	357.450	0.640	-0.510	0.520
2020/01/31 18:14:19.2	357.430	0.600	-0.520	0.470
2020/01/31 18:14:19.3	357.400	0.550	-0.540	0.410
2020/01/31 18:14:19.4	357.380	0.500	-0.550	0.360
2020/01/31 18:14:19.5	357.360	0.450	-0.550	0.300
2020/01/31 18:14:19.6	357.340	0.390	-0.560	0.240
2020/01/31 18:14:19.7	357.320	0.330	-0.560	0.170
2020/01/31 18:14:19.8	357.310	0.260	-0.560	0.100
2020/01/31 18:14:19.9	357.300	0.190	-0.550	0.020
2020/01/31 18:14:20.0	357.290	0.130	-0.550	-0.050
2020/01/31 18:14:20.1	357.280	0.050	-0.550	-0.130
2020/01/31 18:14:20.2	357.280	-0.020	-0.550	-0.210
2020/01/31 18:14:20.3	357.280	-0.090	-0.540	-0.290
2020/01/31 18:14:20.4	357.290	-0.160	-0.540	-0.380
2020/01/31 18:14:20.5	357.300	-0.230	-0.540	-0.460
2020/01/31 18:14:20.6	357.310	-0.300	-0.550	-0.550
2020/01/31 18:14:20.7	357.330	-0.360	-0.550	-0.650
2020/01/31 18:14:20.8	357.350	-0.420	-0.560	-0.740
2020/01/31 18:14:20.9	357.380	-0.480	-0.570	-0.840
2020/01/31 18:14:21.0	357.410	-0.530	-0.590	-0.930
2020/01/31 18:14:21.1	357.440	-0.580	-0.600	-1.020
2020/01/31 18:14:21.2	357.480	-0.620	-0.620	-1.110
2020/01/31 18:14:21.3	357.520	-0.660	-0.650	-1.210
2020/01/31 18:14:21.4	357.560	-0.690	-0.670	-1.290
2020/01/31 18:14:21.5	357.610	-0.720	-0.700	-1.380
2020/01/31 18:14:21.6	357.660	-0.730	-0.730	-1.460
2020/01/31 18:14:21.7	357.710	-0.740	-0.760	-1.540
2020/01/31 18:14:21.8	357.760	-0.750	-0.790	-1.610
2020/01/31 18:14:21.9	357.810	-0.750	-0.810	-1.690
2020/01/31 18:14:22.0	357.870	-0.740	-0.840	-1.750
2020/01/31 18:14:22.1	357.920	-0.720	-0.870	-1.810
2020/01/31 18:14:22.2	357.980	-0.700	-0.890	-1.860
2020/01/31 18:14:22.3	358.030	-0.670	-0.910	-1.900
2020/01/31 18:14:22.4	358.090	-0.640	-0.930	-1.940
2020/01/31 18:14:22.5	358.140	-0.610	-0.940	-1.970
2020/01/31 18:14:22.6	358.190	-0.570	-0.940	-1.990
2020/01/31 18:14:22.7	358.240	-0.520	-0.940	-2.000
2020/01/31 18:14:22.8	358.280	-0.480	-0.940	-2.000
2020/01/31 18:14:22.9	358.320	-0.430	-0.930	-2.000
2020/01/31 18:14:23.0	358.360	-0.370	-0.910	-1.980
2020/01/31 18:14:23.1	358.390	-0.320	-0.880	-1.960
2020/01/31 18:14:23.2	358.420	-0.270	-0.850	-1.930
2020/01/31 18:14:23.3	358.440	-0.210	-0.810	-1.900
2020/01/31 18:14:23.4	358.460	-0.160	-0.770	-1.850
2020/01/31 18:14:23.5	358.480	-0.110	-0.720	-1.800
2020/01/31 18:14:23.6	358.490	-0.060	-0.670	-1.750
2020/01/31 18:14:23.7	358.500	-0.010	-0.610	-1.690
2020/01/31 18:14:23.8	358.500	0.040	-0.550	-1.630
2020/01/31 18:14:23.9	358.510	0.080	-0.490	-1.560
2020/01/31 18:14:24.0	358.500	0.120	-0.420	-1.490
2020/01/31 18:14:24.1	358.490	0.160	-0.350	-1.410
2020/01/31 18:14:24.2	358.480	0.190	-0.280	-1.340
2020/01/31 18:14:24.3	358.470	0.220	-0.210	-1.260
2020/01/31 18:14:24.4	358.460	0.240	-0.150	-1.180
2020/01/31 18:14:24.5	358.440	0.270	-0.080	-1.110
2020/01/31 18:14:24.6	358.430	0.280	-0.020	-1.030
2020/01/31 18:14:24.7	358.410	0.300	0.030	-0.960
2020/01/31 18:14:24.8	358.400	0.310	0.090	-0.890
2020/01/31 18:14:24.9	358.380	0.320	0.140	-0.820
2020/01/31 18:14:25.0	358.360	0.320	0.180	-0.750
2020/01/31 18:14:25.1	358.340	0.320	0.220	-0.680
2020/01/31 18:14:25.2	358.330	0.320	0.260	-0.620
2020/01/31 18:14:25.3	358.310	0.320	0.280	-0.550
2020/01/31 18:14:25.4	358.290	0.310	0.310	-0.490
2020/01/31 18:14:25.5	358.280	0.310	0.330	-0.440
2020/01/31 18:14:25.6	358.260	0.300	0.340	-0.380
2020/01/31 18:14:25.7	358.240	0.280	0.350	-0.330
2020/01/31 18:14:25.8	358.220	0.270	0.350	-0.290
2020/01/31 18:14:25.9	358.210	0.260	0.350	-0.240
2020/01/31 18:14:26.0	358.190	0.250	0.350	-0.200
2020/01/31 18:14:26.1	358.170	0.230	0.340	-0.160
2020/01/31 18:14:26.2	358.150	0.220	0.330	-0.120
2020/01/31 18:14:26.3	358.130	0.200	0.320	-0.080
2020/01/31 18:14:26.4	358.110	0.190	0.310	-0.050
2020/01/31 18:14:26.5	358.090	0.180	0.290	-0.020
2020/01/31 18:14:26.6	358.060	0.170	0.270	0.010
2020/01/31 18:14:26.7	358.040	0.150	0.260	0.030
2020/01/31 18:14:26.8	358.020	0.140	0.240	0.050
2020/01/31 18:14:26.9	357.990	0.130	0.220	0.070
2020/01/31 18:14:27.0	357.960	0.130	0.200	0.090
2020/01/31 18:14:27.1	357.930	0.120	0.180	0.110
2020/01/31 18:14:27.2	357.910	0.110	0.160	0.120
2020/01/31 18:14:27.3	357.880	0.110	0.140	0.130
2020/01/31 18:14:27.4	357.850	0.110	0.120	0.140
2020/01/31 18:14:27.5	357.820	0.100	0.100	0.150
2020/01/31 18:14:27.6	357.780	0.100	0.090	0.160
2020/01/31 18:14:27.7	357.750	0.100	0.070	0.170
2020/01/31 18:14:27.8	357.720	0.100	0.050	0.170
2020/01/31 18:14:27.9	357.680	0.100	0.040	0.170
2020/01/31 18:14:28.0	357.650	0.100	0.020	0.170
2020/01/31 18:14:28.1	357.620	0.100	0.010	0.170
2020/01/31 18:14:28.2	357.580	0.100	-0.010	0.170
2020/01/31 18:14:28.3	357.540	0.100	-0.020	0.170
2020/01/31 18:14:28.4	357.510	0.100	-0.030	0.170
2020/01/31 18:14:28.5	357.470	0.100	-0.040	0.170
2020/01/31 18:14:28.6	357.430	0.100	-0.050	0.170
2020/01/31 18:14:28.7	357.390	0.090	-0.060	0.160
2020/01/31 18:14:28.8	357.350	0.090	-0.060	0.150
2020/01/31 18:14:28.9	357.310	0.090	-0.080	0.140
2020/01/31 18:14:29.0	357.270	0.080	-0.080	0.130
2020/01/31 18:14:29.1	357.230	0.080	-0.090	0.120
2020/01/31 18:14:29.2	357.200	0.070	-0.100	0.100
2020/01/31 18:14:29.3	357.160	0.070	-0.110	0.080
2020/01/31 18:14:29.4	357.130	0.060	-0.120	0.060
2020/01/31 18:14:29.5	357.100	0.050	-0.130	0.040
2020/01/31 18:14:29.6	357.070	0.050	-0.140	0.020
2020/01/31 18:14:29.7	357.040	0.040	-0.150	-0.000
2020/01/31 18:14:29.8	357.010	0.030	-0.170	-0.030
2020/01/31 18:14:29.9	356.990	0.030	-0.180	-0.060
2020/01/31 18:14:30.0	356.970	0.020	-0.200	-0.090
2020/01/31 18:14:30.1	356.950	0.010	-0.220	-0.120
2020/01/31 18:14:30.2	356.940	0.010	-0.240	-0.150
2020/01/31 18:14:30.3	356.930	0.000	-0.260	-0.180
2020/01/31 18:14:30.4	356.920	-0.000	-0.280	-0.210
2020/01/31 18:14:30.5	356.920	-0.010	-0.310	-0.250
2020/01/31 18:14:30.6	356.920	-0.010	-0.330	-0.280
2020/01/31 18:14:30.7	356.930	-0.010	-0.360	-0.310
2020/01/31 18:14:30.8	356.940	-0.010	-0.390	-0.340
2020/01/31 18:14:30.9	356.950	-0.010	-0.420	-0.370
2020/01/31 18:14:31.0	356.970	-0.010	-0.450	-0.400
2020/01/31 18:14:31.1	356.990	-0.010	-0.480	-0.420
2020/01/31 18:14:31.2	357.010	-0.000	-0.510	-0.450
2020/01/31 18:14:31.3	357.040	0.000	-0.540	-0.480
2020/01/31 18:14:31.4	357.070	0.000	-0.570	-0.510
2020/01/31 18:14:31.5	357.100	0.010	-0.600	-0.530
2020/01/31 18:14:31.6	357.130	0.010	-0.630	-0.560
2020/01/31 18:14:31.7	357.160	0.010	-0.650	-0.580
2020/01/31 18:14:31.8	357.200	0.020	-0.670	-0.600
2020/01/31 18:14:31.9	357.230	0.020	-0.690	-0.620
2020/01/31 18:14:32.0	357.260	0.020	-0.700	-0.630
2020/01/31 18:14:32.1	357.290	0.020	-0.710	-0.650
2020/01/31 18:14:32.2	357.320	0.010	-0.720	-0.650
2020/01/31 18:14:32.3	357.340	0.010	-0.720	-0.660
2020/01/31 18:14:32.4	357.360	0.000	-0.720	-0.650
2020/01/31 18:14:32.5	357.370	-0.010	-0.720	-0.650
2020/01/31 18:14:32.6	357.380	-0.020	-0.700	-0.640
2020/01/31 18:14:32.7	357.380	-0.030	-0.690	-0.620
2020/01/31 18:14:32.8	357.380	-0.050	-0.670	-0.610
2020/01/31 18:14:32.9	357.380	-0.060	-0.650	-0.590
2020/01/31 18:14:33.0	357.370	-0.080	-0.620	-0.560
2020/01/31 18:14:33.1	357.360	-0.100	-0.590	-0.540
2020/01/31 18:14:33.2	357.350	-0.120	-0.560	-0.520
2020/01/31 18:14:33.3	357.340	-0.140	-0.530	-0.490
2020/01/31 18:14:33.4	357.320	-0.170	-0.500	-0.460
2020/01/31 18:14:33.5	357.300	-0.190	-0.460	-0.430
2020/01/31 18:14:33.6	357.290	-0.210	-0.430	-0.410
2020/01/31 18:14:33.7	357.270	-0.230	-0.400	-0.380
2020/01/31 18:14:33.8	357.250	-0.250	-0.380	-0.360
2020/01/31 18:14:33.9	357.230	-0.270	-0.350	-0.340
2020/01/31 18:14:34.0	357.220	-0.290	-0.340	-0.320
2020/01/31 18:14:34.1	357.210	-0.310	-0.320	-0.310
2020/01/31 18:14:34.2	357.200	-0.320	-0.310	-0.290
2020/01/31 18:14:34.3	357.190	-0.330	-0.310	-0.290
2020/01/31 18:14:34.4	357.180	-0.340	-0.310	-0.280
2020/01/31 18:14:34.5	357.180	-0.340	-0.320	-0.280
2020/01/31 18:14:34.6	357.190	-0.340	-0.340	-0.280
2020/01/31 18:14:34.7	357.190	-0.330	-0.360	-0.290
2020/01/31 18:14:34.8	357.200	-0.320	-0.380	-0.300
2020/01/31 18:14:34.9	357.210	-0.310	-0.420	-0.310
2020/01/31 18:14:35.0	357.220	-0.290	-0.450	-0.330
2020/01/31 18:14:35.1	357.240	-0.270	-0.490	-0.340
2020/01/31 18:14:35.2	357.260	-0.240	-0.530	-0.360
2020/01/31 18:14:35.3	357.280	-0.210	-0.580	-0.380
2020/01/31 18:14:35.4	357.300	-0.180	-0.630	-0.410
2020/01/31 18:14:35.5	357.320	-0.140	-0.670	-0.430
2020/01/31 18:14:35.6	357.340	-0.100	-0.720	-0.460
2020/01/31 18:14:35.7	357.360	-0.060	-0.760	-0.490
2020/01/31 18:14:35.8	357.390	-0.020	-0.800	-0.520
2020/01/31 18:14:35.9	357.410	0.030	-0.840	-0.550
2020/01/31 18:14:36.0	357.430	0.070	-0.880	-0.570
2020/01/31 18:14:36.1	357.460	0.120	-0.910	-0.600
2020/01/31 18:14:36.2	357.480	0.160	-0.930	-0.630
2020/01/31 18:14:36.3	357.500	0.210	-0.950	-0.660
2020/01/31 18:14:36.4	357.530	0.250	-0.960	-0.690
2020/01/31 18:14:36.5	357.550	0.290	-0.960	-0.720
2020/01/31 18:14:36.6	357.560	0.330	-0.960	-0.740
2020/01/31 18:14:36.7	357.580	0.360	-0.940	-0.770
2020/01/31 18:14:36.8	357.590	0.390	-0.920	-0.790
2020/01/31 18:14:36.9	357.600	0.420	-0.890	-0.800
2020/01/31 18:14:37.0	357.610	0.440	-0.840	-0.810
2020/01/31 18:14:37.1	357.610	0.460	-0.790	-0.820
2020/01/31 18:14:37.2	357.610	0.480	-0.730	-0.820
2020/01/31 18:14:37.3	357.610	0.490	-0.660	-0.820
2020/01/31 18:14:37.4	357.600	0.490	-0.580	-0.810
2020/01/31 18:14:37.5	357.590	0.490	-0.490	-0.800
2020/01/31 18:14:37.6	357.580	0.480	-0.400	-0.780
2020/01/31 18:14:37.7	357.560	0.470	-0.290	-0.760
2020/01/31 18:14:37.8	357.540	0.450	-0.180	-0.720
2020/01/31 18:14:37.9	357.510	0.430	-0.070	-0.690
2020/01/31 18:14:38.0	357.480	0.400	0.050	-0.650
2020/01/31 18:14:38.1	357.440	0.370	0.170	-0.600
2020/01/31 18:14:38.2	357.410	0.340	0.300	-0.550
2020/01/31 18:14:38.3	357.360	0.300	0.420	-0.500
2020/01/31 18:14:38.4	357.320	0.250	0.550	-0.440
2020/01/31 18:14:38.5	357.270	0.210	0.680	-0.380
2020/01/31 18:14:38.6	357.220	0.160	0.800	-0.320
2020/01/31 18:14:38.7	357.160	0.110	0.920	-0.250
2020/01/31 18:14:38.8	357.100	0.060	1.030	-0.180
2020/01/31 18:14:38.9	357.050	0.000	1.140	-0.120
2020/01/31 18:14:39.0	356.980	-0.050	1.240	-0.050
2020/01/31 18:14:39.1	356.920	-0.100	1.330	0.020
2020/01/31 18:14:39.2	356.850	-0.160	1.410	0.080
2020/01/31 18:14:39.3	356.780	-0.210	1.480	0.150
2020/01/31 18:14:39.4	356.710	-0.250	1.540	0.210
2020/01/31 18:14:39.5	356.640	-0.300	1.590	0.270
2020/01/31 18:14:39.6	356.570	-0.340	1.620	0.330
2020/01/31 18:14:39.7	356.500	-0.380	1.640	0.390
2020/01/31 18:14:39.8	356.430	-0.410	1.650	0.450
2020/01/31 18:14:39.9	356.370	-0.440	1.640	0.500
2020/01/31 18:14:40.0	356.300	-0.460	1.620	0.550
2020/01/31 18:14:40.1	356.230	-0.480	1.590	0.600
2020/01/31 18:14:40.2	356.170	-0.500	1.540	0.640
2020/01/31 18:14:40.3	356.100	-0.500	1.480	0.680
2020/01/31 18:14:40.4	356.040	-0.500	1.400	0.710
2020/01/31 18:14:40.5	355.980	-0.500	1.320	0.740
2020/01/31 18:14:40.6	355.920	-0.490	1.220	0.770
2020/01/31 18:14:40.7	355.860	-0.470	1.110	0.790
2020/01/31 18:14:40.8	355.820	-0.450	0.990	0.800
2020/01/31 18:14:40.9	355.770	-0.420	0.860	0.820
2020/01/31 18:14:41.0	355.720	-0.390	0.730	0.820
2020/01/31 18:14:41.1	355.670	-0.350	0.580	0.820
2020/01/31 18:14:41.2	355.630	-0.310	0.440	0.820
2020/01/31 18:14:41.3	355.590	-0.260	0.280	0.810
2020/01/31 18:14:41.4	355.560	-0.210	0.130	0.800
2020/01/31 18:14:41.5	355.530	-0.160	-0.030	0.780
2020/01/31 18:14:41.6	355.500	-0.110	-0.190	0.760
2020/01/31 18:14:41.7	355.480	-0.060	-0.350	0.730
2020/01/31 18:14:41.8	355.460	-0.000	-0.510	0.700
2020/01/31 18:14:41.9	355.450	0.050	-0.660	0.660
2020/01/31 18:14:42.0	355.440	0.100	-0.810	0.620
2020/01/31 18:14:42.1	355.440	0.160	-0.960	0.580
2020/01/31 18:14:42.2	355.440	0.210	-1.100	0.530
2020/01/31 18:14:42.3	355.450	0.260	-1.240	0.480
2020/01/31 18:14:42.4	355.460	0.300	-1.370	0.430
2020/01/31 18:14:42.5	355.470	0.340	-1.490	0.370
2020/01/31 18:14:42.6	355.490	0.380	-1.600	0.310
2020/01/31 18:14:42.7	355.520	0.420	-1.710	0.250
2020/01/31 18:14:42.8	355.550	0.450	-1.800	0.180
2020/01/31 18:14:42.9	355.590	0.470	-1.890	0.110
2020/01/31 18:14:43.0	355.630	0.500	-1.960	0.040
2020/01/31 18:14:43.1	355.670	0.510	-2.020	-0.030
2020/01/31 18:14:43.2	355.710	0.520	-2.080	-0.100
2020/01/31 18:14:43.3	355.760	0.530	-2.120	-0.170
2020/01/31 18:14:43.4	355.810	0.530	-2.150	-0.240
2020/01/31 18:14:43.5	355.870	0.530	-2.160	-0.310
2020/01/31 18:14:43.6	355.920	0.520	-2.170	-0.380
2020/01/31 18:14:43.7	355.980	0.500	-2.160	-0.450
2020/01/31 18:14:43.8	356.040	0.480	-2.140	-0.520
2020/01/31 18:14:43.9	356.090	0.460	-2.110	-0.590
2020/01/31 18:14:44.0	356.150	0.430	-2.070	-0.650
2020/01/31 18:14:44.1	356.210	0.400	-2.020	-0.720
2020/01/31 18:14:44.2	356.270	0.360	-1.970	-0.780
2020/01/31 18:14:44.3	356.330	0.330	-1.900	-0.840
2020/01/31 18:14:44.4	356.390	0.280	-1.820	-0.890
2020/01/31 18:14:44.5	356.450	0.240	-1.740	-0.940
2020/01/31 18:14:44.6	356.510	0.190	-1.650	-0.990
2020/01/31 18:14:44.7	356.560	0.150	-1.560	-1.040
2020/01/31 18:14:44.8	356.620	0.100	-1.460	-1.080
2020/01/31 18:14:44.9	356.670	0.050	-1.360	-1.110
2020/01/31 18:14:45.0	356.730	0.000	-1.260	-1.140
2020/01/31 18:14:45.1	356.780	-0.050	-1.150	-1.170
2020/01/31 18:14:45.2	356.830	-0.090	-1.050	-1.190
2020/01/31 18:14:45.3	356.880	-0.130	-0.940	-1.200
2020/01/31 18:14:45.4	356.920	-0.180	-0.830	-1.210
2020/01/31 18:14:45.5	356.970	-0.210	-0.730	-1.220
2020/01/31 18:14:45.6	357.010	-0.250	-0.630	-1.210
2020/01/31 18:14:45.7	357.050	-0.280	-0.530	-1.200
2020/01/31 18:14:45.8	357.090	-0.310	-0.430	-1.190
2020/01/31 18:14:45.9	357.130	-0.330	-0.340	-1.180
2020/01/31 18:14:46.0	357.170	-0.350	-0.250	-1.160
2020/01/31 18:14:46.1	357.200	-0.370	-0.170	-1.130
2020/01/31 18:14:46.2	357.240	-0.380	-0.080	-1.100
2020/01/31 18:14:46.3	357.270	-0.380	-0.000	-1.060
2020/01/31 18:14:46.4	357.290	-0.390	0.070	-1.020
2020/01/31 18:14:46.5	357.320	-0.380	0.140	-0.970
2020/01/31 18:14:46.6	357.340	-0.380	0.210	-0.920
2020/01/31 18:14:46.7	357.350	-0.370	0.280	-0.870
2020/01/31 18:14:46.8	357.370	-0.360	0.340	-0.810
2020/01/31 18:14:46.9	357.380	-0.340	0.400	-0.740
2020/01/31 18:14:47.0	357.390	-0.320	0.450	-0.670
2020/01/31 18:14:47.1	357.390	-0.300	0.500	-0.600
2020/01/31 18:14:47.2	357.380	-0.280	0.550	-0.520
2020/01/31 18:14:47.3	357.370	-0.250	0.600	-0.450
2020/01/31 18:14:47.4	357.360	-0.230	0.640	-0.370
2020/01/31 18:14:47.5	357.340	-0.200	0.690	-0.280
2020/01/31 18:14:47.6	357.310	-0.170	0.730	-0.200
2020/01/31 18:14:47.7	357.290	-0.150	0.760	-0.120
2020/01/31 18:14:47.8	357.250	-0.120	0.800	-0.030
2020/01/31 18:14:47.9	357.210	-0.100	0.830	0.050
2020/01/31 18:14:48.0	357.170	-0.080	0.860	0.140
2020/01/31 18:14:48.1	357.120	-0.050	0.890	0.230
2020/01/31 18:14:48.2	357.070	-0.030	0.910	0.310
2020/01/31 18:14:48.3	357.020	-0.020	0.940	0.390
2020/01/31 18:14:48.4	356.960	-0.000	0.950	0.470
2020/01/31 18:14:48.5	356.900	0.010	0.970	0.540
2020/01/31 18:14:48.6	356.830	0.020	0.980	0.620
2020/01/31 18:14:48.7	356.770	0.020	0.990	0.680
2020/01/31 18:14:48.8	356.700	0.030	1.000	0.750
2020/01/31 18:14:48.9	356.620	0.030	1.010	0.810
2020/01/31 18:14:49.0	356.550	0.020	1.000	0.860
2020/01/31 18:14:49.1	356.480	0.020	1.000	0.910
2020/01/31 18:14:49.2	356.410	0.010	0.990	0.950
2020/01/31 18:14:49.3	356.340	0.000	0.970	0.990
2020/01/31 18:14:49.4	356.260	-0.010	0.950	1.020
2020/01/31 18:14:49.5	356.190	-0.030	0.920	1.040
2020/01/31 18:14:49.6	356.130	-0.040	0.890	1.060
2020/01/31 18:14:49.7	356.060	-0.060	0.850	1.070
2020/01/31 18:14:49.8	355.990	-0.080	0.810	1.080
2020/01/31 18:14:49.9	355.940	-0.090	0.760	1.080
2020/01/31 18:14:50.0	355.880	-0.110	0.700	1.070
2020/01/31 18:14:50.1	355.820	-0.130	0.640	1.060
2020/01/31 18:14:50.2	355.770	-0.150	0.570	1.040
2020/01/31 18:14:50.3	355.720	-0.160	0.500	1.010
2020/01/31 18:14:50.4	355.670	-0.170	0.420	0.980
2020/01/31 18:14:50.5	355.630	-0.190	0.330	0.940
2020/01/31 18:14:50.6	355.590	-0.200	0.240	0.890
2020/01/31 18:14:50.7	355.560	-0.200	0.140	0.840
2020/01/31 18:14:50.8	355.530	-0.200	0.030	0.790
2020/01/31 18:14:50.9	355.520	-0.200	-0.080	0.710
2020/01/31 18:14:51.0	355.500	-0.200	-0.190	0.650
2020/01/31 18:14:51.1	355.490	-0.190	-0.310	0.570
2020/01/31 18:14:51.2	355.480	-0.180	-0.430	0.500
2020/01/31 18:14:51.3	355.480	-0.160	-0.560	0.410
2020/01/31 18:14:51.4	355.480	-0.140	-0.680	0.330
2020/01/31 18:14:51.5	355.490	-0.110	-0.810	0.240
2020/01/31 18:14:51.6	355.510	-0.080	-0.930	0.150
2020/01/31 18:14:51.7	355.520	-0.050	-1.060	0.050
2020/01/31 18:14:51.8	355.550	-0.020	-1.180	-0.040
2020/01/31 18:14:51.9	355.570	0.020	-1.290	-0.150
2020/01/31 18:14:52.0	355.600	0.060	-1.400	-0.240
2020/01/31 18:14:52.1	355.640	0.110	-1.500	-0.340
2020/01/31 18:14:52.2	355.670	0.150	-1.590	-0.430
2020/01/31 18:14:52.3	355.710	0.190	-1.670	-0.530
2020/01/31 18:14:52.4	355.750	0.240	-1.740	-0.620
2020/01/31 18:14:52.5	355.780	0.280	-1.800	-0.700
2020/01/31 18:14:52.6	355.820	0.320	-1.840	-0.780
2020/01/31 18:14:52.7	355.860	0.360	-1.870	-0.860
2020/01/31 18:14:52.8	355.890	0.390	-1.890	-0.930
2020/01/31 18:14:52.9	355.930	0.420	-1.890	-1.000
2020/01/31 18:14:53.0	355.960	0.450	-1.870	-1.050
2020/01/31 18:14:53.1	355.990	0.470	-1.840	-1.100
2020/01/31 18:14:53.2	356.020	0.490	-1.790	-1.140
2020/01/31 18:14:53.3	356.050	0.510	-1.730	-1.180
2020/01/31 18:14:53.4	356.070	0.520	-1.660	-1.200
2020/01/31 18:14:53.5	356.100	0.520	-1.570	-1.220
2020/01/31 18:14:53.6	356.120	0.520	-1.470	-1.230
2020/01/31 18:14:53.7	356.140	0.510	-1.370	-1.230
2020/01/31 18:14:53.8	356.150	0.500	-1.250	-1.230
2020/01/31 18:14:53.9	356.170	0.480	-1.130	-1.210
2020/01/31 18:14:54.0	356.190	0.460	-1.010	-1.200
2020/01/31 18:14:54.1	356.210	0.430	-0.880	-1.180
2020/01/31 18:14:54.2	356.220	0.400	-0.750	-1.150
2020/01/31 18:14:54.3	356.240	0.370	-0.620	-1.130
2020/01/31 18:14:54.4	356.260	0.330	-0.490	-1.100
2020/01/31 18:14:54.5	356.270	0.290	-0.370	-1.070
2020/01/31 18:14:54.6	356.290	0.240	-0.250	-1.040
2020/01/31 18:14:54.7	356.320	0.200	-0.130	-1.000
2020/01/31 18:14:54.8	356.350	0.150	-0.030	-0.970
2020/01/31 18:14:54.9	356.380	0.100	0.070	-0.940
2020/01/31 18:14:55.0	356.400	0.060	0.160	-0.910
2020/01/31 18:14:55.1	356.430	0.010	0.240	-0.880
2020/01/31 18:14:55.2	356.460	-0.040	0.310	-0.860
2020/01/31 18:14:55.3	356.490	-0.090	0.370	-0.840
2020/01/31 18:14:55.4	356.520	-0.140	0.410	-0.820
2020/01/31 18:14:55.5	356.550	-0.180	0.450	-0.800
2020/01/31 18:14:55.6	356.580	-0.220	0.480	-0.790
2020/01/31 18:14:55.7	356.610	-0.260	0.490	-0.780
2020/01/31 18:14:55.8	356.640	-0.290	0.500	-0.770
2020/01/31 18:14:55.9	356.680	-0.320	0.500	-0.770
2020/01/31 18:14:56.0	356.710	-0.350	0.480	-0.770
2020/01/31 18:14:56.1	356.740	-0.370	0.470	-0.770
2020/01/31 18:14:56.2	356.770	-0.390	0.440	-0.770
2020/01/31 18:14:56.3	356.800	-0.400	0.410	-0.770
2020/01/31 18:14:56.4	356.820	-0.400	0.380	-0.770
2020/01/31 18:14:56.5	356.850	-0.400	0.350	-0.770
2020/01/31 18:14:56.6	356.870	-0.400	0.310	-0.770
2020/01/31 18:14:56.7	356.890	-0.390	0.270	-0.760
2020/01/31 18:14:56.8	356.900	-0.370	0.240	-0.750
2020/01/31 18:14:56.9	356.900	-0.360	0.200	-0.740
2020/01/31 18:14:57.0	356.910	-0.330	0.170	-0.720
2020/01/31 18:14:57.1	356.910	-0.310	0.140	-0.700
2020/01/31 18:14:57.2	356.910	-0.280	0.120	-0.670
2020/01/31 18:14:57.3	356.900	-0.250	0.100	-0.640
2020/01/31 18:14:57.4	356.880	-0.220	0.080	-0.600
2020/01/31 18:14:57.5	356.860	-0.190	0.060	-0.560
2020/01/31 18:14:57.6	356.840	-0.160	0.050	-0.520
2020/01/31 18:14:57.7	356.810	-0.120	0.050	-0.480
2020/01/31 18:14:57.8	356.770	-0.090	0.040	-0.440
2020/01/31 18:14:57.9	356.720	-0.060	0.040	-0.380
2020/01/31 18:14:58.0	356.670	-0.030	0.050	-0.340
2020/01/31 18:14:58.1	356.620	-0.010	0.050	-0.300
2020/01/31 18:14:58.2	356.560	0.020	0.060	-0.250
2020/01/31 18:14:58.3	356.510	0.040	0.070	-0.210
2020/01/31 18:14:58.4	356.440	0.060	0.070	-0.180
2020/01/31 18:14:58.5	356.380	0.070	0.080	-0.140
2020/01/31 18:14:58.6	356.310	0.080	0.090	-0.120
2020/01/31 18:14:58.7	356.250	0.090	0.100	-0.090
2020/01/31 18:14:58.8	356.180	0.090	0.110	-0.070
2020/01/31 18:14:58.9	356.110	0.100	0.110	-0.060
2020/01/31 18:14:59.0	356.040	0.090	0.120	-0.050
2020/01/31 18:14:59.1	355.980	0.090	0.120	-0.040
2020/01/31 18:14:59.2	355.910	0.080	0.120	-0.040
2020/01/31 18:14:59.3	355.850	0.070	0.120	-0.050
2020/01/31 18:14:59.4	355.780	0.050	0.120	-0.060
2020/01/31 18:14:59.5	355.720	0.040	0.110	-0.070
2020/01/31 18:14:59.6	355.660	0.020	0.100	-0.090
2020/01/31 18:14:59.7	355.610	0.000	0.090	-0.110
2020/01/31 18:14:59.8	355.560	-0.020	0.070	-0.140
2020/01/31 18:14:59.9	355.520	-0.040	0.050	-0.170
2020/01/31 18:15:00.0	355.470	-0.050	0.030	-0.200
2020/01/31 18:15:00.1	355.430	-0.070	0.000	-0.230
2020/01/31 18:15:00.2	355.390	-0.090	-0.020	-0.270
2020/01/31 18:15:00.3	355.360	-0.110	-0.060	-0.300
2020/01/31 18:15:00.4	355.330	-0.120	-0.090	-0.340
2020/01/31 18:15:00.5	355.310	-0.130	-0.120	-0.370
2020/01/31 18:15:00.6	355.280	-0.140	-0.160	-0.410
2020/01/31 18:15:00.7	355.270	-0.150	-0.200	-0.440
2020/01/31 18:15:00.8	355.250	-0.150	-0.240	-0.480
2020/01/31 18:15:00.9	355.250	-0.150	-0.280	-0.510
2020/01/31 18:15:01.0	355.240	-0.150	-0.320	-0.550
2020/01/31 18:15:01.1	355.240	-0.140	-0.370	-0.580
2020/01/31 18:15:01.2	355.250	-0.130	-0.410	-0.610
2020/01/31 18:15:01.3	355.250	-0.110	-0.450	-0.640
2020/01/31 18:15:01.4	355.260	-0.100	-0.490	-0.660
2020/01/31 18:15:01.5	355.280	-0.080	-0.530	-0.690
2020/01/31 18:15:01.6	355.290	-0.060	-0.580	-0.710
2020/01/31 18:15:01.7	355.310	-0.030	-0.610	-0.740
2020/01/31 18:15:01.8	355.340	-0.010	-0.650	-0.760
2020/01/31 18:15:01.9	355.370	0.020	-0.690	-0.780
2020/01/31 18:15:02.0	355.400	0.050	-0.730	-0.800
2020/01/31 18:15:02.1	355.430	0.080	-0.760	-0.820
2020/01/31 18:15:02.2	355.460	0.110	-0.790	-0.830
2020/01/31 18:15:02.3	355.500	0.140	-0.820	-0.850
2020/01/31 18:15:02.4	355.540	0.180	-0.840	-0.860
2020/01/31 18:15:02.5	355.570	0.210	-0.860	-0.870
2020/01/31 18:15:02.6	355.610	0.240	-0.880	-0.880
2020/01/31 18:15:02.7	355.650	0.260	-0.900	-0.880
2020/01/31 18:15:02.8	355.690	0.290	-0.910	-0.890
2020/01/31 18:15:02.9	355.730	0.310	-0.920	-0.900
2020/01/31 18:15:03.0	355.770	0.330	-0.930	-0.900
2020/01/31 18:15:03.1	355.810	0.350	-0.930	-0.900
2020/01/31 18:15:03.2	355.850	0.370	-0.920	-0.900
2020/01/31 18:15:03.3	355.890	0.380	-0.920	-0.890
2020/01/31 18:15:03.4	355.930	0.390	-0.910	-0.890
2020/01/31 18:15:03.5	355.970	0.390	-0.890	-0.880
2020/01/31 18:15:03.6	356.010	0.390	-0.880	-0.870
2020/01/31 18:15:03.7	356.050	0.380	-0.860	-0.860
2020/01/31 18:15:03.8	356.090	0.380	-0.830	-0.850
2020/01/31 18:15:03.9	356.120	0.360	-0.800	-0.830
2020/01/31 18:15:04.0	356.160	0.350	-0.770	-0.810
2020/01/31 18:15:04.1	356.190	0.330	-0.740	-0.800
2020/01/31 18:15:04.2	356.220	0.300	-0.710	-0.770
2020/01/31 18:15:04.3	356.250	0.270	-0.670	-0.750
2020/01/31 18:15:04.4	356.280	0.240	-0.630	-0.730
2020/01/31 18:15:04.5	356.310	0.200	-0.590	-0.700
2020/01/31 18:15:04.6	356.330	0.160	-0.550	-0.680
2020/01/31 18:15:04.7	356.360	0.120	-0.500	-0.650
2020/01/31 18:15:04.8	356.370	0.070	-0.460	-0.630
2020/01/31 18:15:04.9	356.390	0.020	-0.420	-0.600
2020/01/31 18:15:05.0	356.410	-0.030	-0.370	-0.570
2020/01/31 18:15:05.1	356.420	-0.080	-0.320	-0.550
2020/01/31 18:15:05.2	356.430	-0.140	-0.270	-0.520
2020/01/31 18:15:05.3	356.440	-0.200	-0.230	-0.500
2020/01/31 18:15:05.4	356.450	-0.250	-0.180	-0.480
2020/01/31 18:15:05.5	356.450	-0.310	-0.130	-0.460
2020/01/31 18:15:05.6	356.450	-0.370	-0.080	-0.440
2020/01/31 18:15:05.7	356.450	-0.420	-0.040	-0.420
2020/01/31 18:15:05.8	356.440	-0.480	0.010	-0.410
2020/01/31 18:15:05.9	356.430	-0.530	0.050	-0.400
2020/01/31 18:15:06.0	356.420	-0.580	0.090	-0.390
2020/01/31 18:15:06.1	356.410	-0.630	0.130	-0.380
2020/01/31 18:15:06.2	356.400	-0.680	0.160	-0.380
2020/01/31 18:15:06.3	356.380	-0.720	0.190	-0.390
2020/01/31 18:15:06.4	356.370	-0.760	0.220	-0.390
2020/01/31 18:15:06.5	356.360	-0.790	0.250	-0.400
2020/01/31 18:15:06.6	356.340	-0.820	0.270	-0.410
2020/01/31 18:15:06.7	356.330	-0.840	0.280	-0.430
2020/01/31 18:15:06.8	356.310	-0.860	0.300	-0.440
2020/01/31 18:15:06.9	356.290	-0.870	0.310	-0.470
2020/01/31 18:15:07.0	356.270	-0.870	0.320	-0.480
2020/01/31 18:15:07.1	356.250	-0.870	0.320	-0.500
2020/01/31 18:15:07.2	356.230	-0.860	0.320	-0.520
2020/01/31 18:15:07.3	356.210	-0.840	0.320	-0.530
2020/01/31 18:15:07.4	356.190	-0.820	0.310	-0.540
2020/01/31 18:15:07.5	356.170	-0.790	0.310	-0.550
2020/01/31 18:15:07.6	356.150	-0.750	0.290	-0.560
2020/01/31 18:15:07.7	356.140	-0.700	0.280	-0.560
2020/01/31 18:15:07.8	356.110	-0.650	0.260	-0.560
2020/01/31 18:15:07.9	356.090	-0.600	0.240	-0.550
2020/01/31 18:15:08.0	356.070	-0.530	0.220	-0.540
2020/01/31 18:15:08.1	356.050	-0.460	0.200	-0.520
2020/01/31 18:15:08.2	356.030	-0.390	0.170	-0.500
2020/01/31 18:15:08.3	356.000	-0.320	0.150	-0.480
2020/01/31 18:15:08.4	355.980	-0.240	0.120	-0.450
2020/01/31 18:15:08.5	355.950	-0.150	0.090	-0.410
2020/01/31 18:15:08.6	355.930	-0.070	0.060	-0.370
2020/01/31 18:15:08.7	355.900	0.020	0.040	-0.330
2020/01/31 18:15:08.8	355.870	0.110	0.010	-0.290
2020/01/31 18:15:08.9	355.840	0.190	-0.020	-0.240
2020/01/31 18:15:09.0	355.810	0.280	-0.050	-0.200
2020/01/31 18:15:09.1	355.790	0.360	-0.080	-0.150
2020/01/31 18:15:09.2	355.760	0.440	-0.110	-0.100
2020/01/31 18:15:09.3	355.730	0.520	-0.130	-0.050
2020/01/31 18:15:09.4	355.700	0.590	-0.150	-0.010
2020/01/31 18:15:09.5	355.670	0.660	-0.180	0.040
2020/01/31 18:15:09.6	355.640	0.730	-0.200	0.090
2020/01/31 18:15:09.7	355.610	0.790	-0.210	0.130
2020/01/31 18:15:09.8	355.580	0.840	-0.230	0.170
2020/01/31 18:15:09.9	355.570	0.890	-0.250	0.220
2020/01/31 18:15:10.0	355.540	0.930	-0.260	0.260
2020/01/31 18:15:10.1	355.510	0.960	-0.260	0.290
2020/01/31 18:15:10.2	355.480	0.990	-0.270	0.330
2020/01/31 18:15:10.3	355.460	1.010	-0.280	0.360
2020/01/31 18:15:10.4	355.440	1.020	-0.280	0.390
2020/01/31 18:15:10.5	355.410	1.020	-0.280	0.420
2020/01/31 18:15:10.6	355.390	1.020	-0.280	0.450
2020/01/31 18:15:10.7	355.370	1.020	-0.280	0.470
2020/01/31 18:15:10.8	355.360	1.000	-0.280	0.490
2020/01/31 18:15:10.9	355.340	0.980	-0.280	0.510
2020/01/31 18:15:11.0	355.320	0.960	-0.280	0.520
2020/01/31 18:15:11.1	355.320	0.930	-0.280	0.530
2020/01/31 18:15:11.2	355.310	0.890	-0.280	0.530
2020/01/31 18:15:11.3	355.310	0.850	-0.280	0.530
2020/01/31 18:15:11.4	355.310	0.810	-0.280	0.530
2020/01/31 18:15:11.5	355.320	0.760	-0.290	0.520
2020/01/31 18:15:11.6	355.330	0.710	-0.300	0.500
2020/01/31 18:15:11.7	355.350	0.660	-0.310	0.480
2020/01/31 18:15:11.8	355.370	0.600	-0.320	0.450
2020/01/31 18:15:11.9	355.390	0.550	-0.340	0.420
2020/01/31 18:15:12.0	355.420	0.490	-0.360	0.380
2020/01/31 18:15:12.1	355.460	0.440	-0.380	0.330
2020/01/31 18:15:12.2	355.500	0.380	-0.400	0.280
2020/01/31 18:15:12.3	355.540	0.320	-0.430	0.220
2020/01/31 18:15:12.4	355.580	0.270	-0.460	0.150
2020/01/31 18:15:12.5	355.630	0.210	-0.490	0.080
2020/01/31 18:15:12.6	355.680	0.160	-0.520	0.010
2020/01/31 18:15:12.7	355.730	0.110	-0.550	-0.070
2020/01/31 18:15:12.8	355.780	0.050	-0.580	-0.140
2020/01/31 18:15:12.9	355.840	0.010	-0.610	-0.220
2020/01/31 18:15:13.0	355.890	-0.040	-0.640	-0.300
2020/01/31 18:15:13.1	355.940	-0.090	-0.670	-0.380
2020/01/31 18:15:13.2	355.990	-0.130	-0.700	-0.460
2020/01/31 18:15:13.3	356.040	-0.180	-0.720	-0.540
2020/01/31 18:15:13.4	356.080	-0.220	-0.740	-0.610
2020/01/31 18:15:13.5	356.120	-0.260	-0.750	-0.680
2020/01/31 18:15:13.6	356.160	-0.300	-0.760	-0.750
2020/01/31 18:15:13.7	356.190	-0.340	-0.770	-0.820
2020/01/31 18:15:13.8	356.220	-0.370	-0.770	-0.890
2020/01/31 18:15:13.9	356.250	-0.410	-0.760	-0.950
2020/01/31 18:15:14.0	356.280	-0.440	-0.750	-1.000
2020/01/31 18:15:14.1	356.300	-0.470	-0.740	-1.050
2020/01/31 18:15:14.2	356.320	-0.500	-0.720	-1.100
2020/01/31 18:15:14.3	356.340	-0.530	-0.700	-1.140
2020/01/31 18:15:14.4	356.360	-0.560	-0.670	-1.180
2020/01/31 18:15:14.5	356.370	-0.590	-0.640	-1.210
2020/01/31 18:15:14.6	356.380	-0.610	-0.600	-1.240
2020/01/31 18:15:14.7	356.390	-0.640	-0.560	-1.260
2020/01/31 18:15:14.8	356.390	-0.660	-0.520	-1.280
2020/01/31 18:15:14.9	356.400	-0.680	-0.480	-1.300
2020/01/31 18:15:15.0	356.400	-0.700	-0.430	-1.300
2020/01/31 18:15:15.1	356.400	-0.710	-0.370	-1.300
2020/01/31 18:15:15.2	356.400	-0.730	-0.320	-1.300
2020/01/31 18:15:15.3	356.390	-0.740	-0.260	-1.290
2020/01/31 18:15:15.4	356.390	-0.750	-0.210	-1.280
2020/01/31 18:15:15.5	356.380	-0.760	-0.150	-1.260
2020/01/31 18:15:15.6	356.370	-0.760	-0.090	-1.240
2020/01/31 18:15:15.7	356.360	-0.770	-0.030	-1.220
2020/01/31 18:15:15.8	356.350	-0.770	0.030	-1.190
2020/01/31 18:15:15.9	356.350	-0.770	0.090	-1.160
2020/01/31 18:15:16.0	356.330	-0.760	0.150	-1.120
2020/01/31 18:15:16.1	356.320	-0.760	0.200	-1.080
2020/01/31 18:15:16.2	356.300	-0.750	0.250	-1.040
2020/01/31 18:15:16.3	356.290	-0.740	0.310	-0.990
2020/01/31 18:15:16.4	356.270	-0.720	0.360	-0.940
2020/01/31 18:15:16.5	356.250	-0.710	0.400	-0.880
2020/01/31 18:15:16.6	356.230	-0.690	0.440	-0.830
2020/01/31 18:15:16.7	356.210	-0.670	0.480	-0.770
2020/01/31 18:15:16.8	356.190	-0.640	0.520	-0.700
2020/01/31 18:15:16.9	356.160	-0.620	0.540	-0.640
2020/01/31 18:15:17.0	356.140	-0.590	0.570	-0.570
2020/01/31 18:15:17.1	356.110	-0.550	0.590	-0.500
2020/01/31 18:15:17.2	356.090	-0.520	0.610	-0.430
2020/01/31 18:15:17.3	356.060	-0.490	0.620	-0.360
2020/01/31 18:15:17.4	356.030	-0.450	0.620	-0.280
2020/01/31 18:15:17.5	356.010	-0.410	0.620	-0.210
2020/01/31 18:15:17.6	355.980	-0.370	0.610	-0.140
2020/01/31 18:15:17.7	355.950	-0.330	0.600	-0.070
2020/01/31 18:15:17.8	355.920	-0.280	0.580	0.000
2020/01/31 18:15:17.9	355.890	-0.240	0.560	0.070
2020/01/31 18:15:18.0	355.870	-0.190	0.530	0.140
2020/01/31 18:15:18.1	355.840	-0.140	0.490	0.200
2020/01/31 18:15:18.2	355.810	-0.090	0.440	0.260
2020/01/31 18:15:18.3	355.790	-0.050	0.390	0.320
2020/01/31 18:15:18.4	355.760	0.000	0.340	0.380
2020/01/31 18:15:18.5	355.740	0.050	0.270	0.430
2020/01/31 18:15:18.6	355.720	0.100	0.200	0.480
2020/01/31 18:15:18.7	355.700	0.150	0.130	0.520
2020/01/31 18:15:18.8	355.680	0.200	0.050	0.560
2020/01/31 18:15:18.9	355.660	0.250	-0.040	0.600
2020/01/31 18:15:19.0	355.640	0.290	-0.130	0.630
2020/01/31 18:15:19.1	355.630	0.340	-0.220	0.650
2020/01/31 18:15:19.2	355.620	0.390	-0.310	0.680
2020/01/31 18:15:19.3	355.610	0.430	-0.410	0.690
2020/01/31 18:15:19.4	355.610	0.470	-0.510	0.710
2020/01/31 18:15:19.5	355.600	0.510	-0.610	0.720
2020/01/31 18:15:19.6	355.600	0.550	-0.710	0.720
2020/01/31 18:15:19.7	355.610	0.590	-0.810	0.720
2020/01/31 18:15:19.8	355.610	0.620	-0.910	0.710
2020/01/31 18:15:19.9	355.620	0.660	-1.000	0.700
2020/01/31 18:15:20.0	355.630	0.690	-1.090	0.680
2020/01/31 18:15:20.1	355.650	0.710	-1.180	0.660
2020/01/31 18:15:20.2	355.670	0.730	-1.260	0.630
2020/01/31 18:15:20.3	355.690	0.750	-1.340	0.590
2020/01/31 18:15:20.4	355.710	0.770	-1.410	0.550
2020/01/31 18:15:20.5	355.740	0.780	-1.470	0.510
2020/01/31 18:15:20.6	355.770	0.790	-1.520	0.460
2020/01/31 18:15:20.7	355.800	0.800	-1.570	0.400
2020/01/31 18:15:20.8	355.840	0.800	-1.600	0.350
2020/01/31 18:15:20.9	355.870	0.790	-1.630	0.280
2020/01/31 18:15:21.0	355.910	0.790	-1.640	0.220
2020/01/31 18:15:21.1	355.940	0.770	-1.650	0.160
2020/01/31 18:15:21.2	355.980	0.760	-1.640	0.100
2020/01/31 18:15:21.3	356.020	0.740	-1.620	0.040
2020/01/31 18:15:21.4	356.060	0.720	-1.590	-0.030
2020/01/31 18:15:21.5	356.100	0.690	-1.550	-0.090
2020/01/31 18:15:21.6	356.140	0.660	-1.500	-0.140
2020/01/31 18:15:21.7	356.170	0.630	-1.440	-0.200
2020/01/31 18:15:21.8	356.210	0.600	-1.380	-0.250
2020/01/31 18:15:21.9	356.230	0.560	-1.300	-0.300
2020/01/31 18:15:22.0	356.260	0.520	-1.220	-0.350
2020/01/31 18:15:22.1	356.290	0.470	-1.120	-0.390
2020/01/31 18:15:22.2	356.320	0.430	-1.020	-0.420
2020/01/31 18:15:22.3	356.340	0.390	-0.920	-0.450
2020/01/31 18:15:22.4	356.370	0.340	-0.810	-0.480
2020/01/31 18:15:22.5	356.380	0.290	-0.700	-0.500
2020/01/31 18:15:22.6	356.400	0.240	-0.580	-0.510
2020/01/31 18:15:22.7	356.420	0.200	-0.470	-0.520
2020/01/31 18:15:22.8	356.430	0.150	-0.350	-0.530
2020/01/31 18:15:22.9	356.440	0.100	-0.230	-0.530
2020/01/31 18:15:23.0	356.440	0.050	-0.110	-0.530
2020/01/31 18:15:23.1	356.450	0.010	0.000	-0.520
2020/01/31 18:15:23.2	356.450	-0.040	0.120	-0.510
2020/01/31 18:15:23.3	356.450	-0.080	0.230	-0.500
2020/01/31 18:15:23.4	356.450	-0.120	0.330	-0.490
2020/01/31 18:15:23.5	356.450	-0.160	0.430	-0.470
2020/01/31 18:15:23.6	356.440	-0.190	0.530	-0.460
2020/01/31 18:15:23.7	356.440	-0.230	0.610	-0.440
2020/01/31 18:15:23.8	356.430	-0.260	0.690	-0.430
2020/01/31 18:15:23.9	356.410	-0.290	0.760	-0.410
2020/01/31 18:15:24.0	356.400	-0.310	0.830	-0.390
2020/01/31 18:15:24.1	356.390	-0.330	0.890	-0.380
2020/01/31 18:15:24.2	356.380	-0.350	0.930	-0.370
2020/01/31 18:15:24.3	356.380	-0.360	0.970	-0.360
2020/01/31 18:15:24.4	356.370	-0.380	1.000	-0.350
2020/01/31 18:15:24.5	356.360	-0.380	1.020	-0.340
2020/01/31 18:15:24.6	356.350	-0.390	1.040	-0.340
2020/01/31 18:15:24.7	356.340	-0.390	1.040	-0.330
2020/01/31 18:15:24.8	356.340	-0.390	1.040	-0.330
2020/01/31 18:15:24.9	356.330	-0.390	1.020	-0.330
2020/01/31 18:15:25.0	356.320	-0.390	1.000	-0.330
2020/01/31 18:15:25.1	356.320	-0.380	0.970	-0.340
2020/01/31 18:15:25.2	356.310	-0.370	0.940	-0.340
2020/01/31 18:15:25.3	356.310	-0.370	0.890	-0.350
2020/01/31 18:15:25.4	356.300	-0.360	0.850	-0.360
2020/01/31 18:15:25.5	356.300	-0.340	0.790	-0.360
2020/01/31 18:15:25.6	356.290	-0.330	0.730	-0.370
2020/01/31 18:15:25.7	356.290	-0.320	0.670	-0.380
2020/01/31 18:15:25.8	356.280	-0.310	0.600	-0.390
2020/01/31 18:15:25.9	356.270	-0.300	0.530	-0.390
2020/01/31 18:15:26.0	356.270	-0.290	0.460	-0.400
2020/01/31 18:15:26.1	356.260	-0.280	0.390	-0.400
2020/01/31 18:15:26.2	356.250	-0.270	0.310	-0.410
2020/01/31 18:15:26.3	356.250	-0.260	0.240	-0.410
2020/01/31 18:15:26.4	356.240	-0.250	0.170	-0.410
2020/01/31 18:15:26.5	356.230	-0.240	0.100	-0.410
2020/01/31 18:15:26.6	356.220	-0.240	0.030	-0.410
2020/01/31 18:15:26.7	356.210	-0.230	-0.040	-0.410
2020/01/31 18:15:26.8	356.200	-0.230	-0.100	-0.400
2020/01/31 18:15:26.9	356.190	-0.230	-0.170	-0.400
2020/01/31 18:15:27.0	356.170	-0.230	-0.220	-0.390
2020/01/31 18:15:27.1	356.160	-0.230	-0.280	-0.380
2020/01/31 18:15:27.2	356.140	-0.230	-0.320	-0.370
2020/01/31 18:15:27.3	356.120	-0.230	-0.370	-0.370
2020/01/31 18:15:27.4	356.100	-0.240	-0.410	-0.350
2020/01/31 18:15:27.5	356.080	-0.240	-0.440	-0.340
2020/01/31 18:15:27.6	356.060	-0.240	-0.470	-0.320
2020/01/31 18:15:27.7	356.040	-0.240	-0.500	-0.310
2020/01/31 18:15:27.8	356.010	-0.250	-0.520	-0.290
2020/01/31 18:15:27.9	355.990	-0.250	-0.540	-0.280
2020/01/31 18:15:28.0	355.960	-0.250	-0.560	-0.250
2020/01/31 18:15:28.1	355.930	-0.250	-0.570	-0.230
2020/01/31 18:15:28.2	355.900	-0.250	-0.570	-0.210
2020/01/31 18:15:28.3	355.880	-0.240	-0.580	-0.180
2020/01/31 18:15:28.4	355.850	-0.240	-0.580	-0.160
2020/01/31 18:15:28.5	355.830	-0.230	-0.590	-0.130
2020/01/31 18:15:28.6	355.800	-0.220	-0.590	-0.100
2020/01/31 18:15:28.7	355.780	-0.200	-0.590	-0.070
2020/01/31 18:15:28.8	355.760	-0.180	-0.590	-0.040
2020/01/31 18:15:28.9	355.740	-0.160	-0.590	-0.010
2020/01/31 18:15:29.0	355.730	-0.140	-0.590	0.020
2020/01/31 18:15:29.1	355.710	-0.110	-0.590	0.040
2020/01/31 18:15:29.2	355.700	-0.080	-0.590	0.070
2020/01/31 18:15:29.3	355.690	-0.050	-0.600	0.100
2020/01/31 18:15:29.4	355.680	-0.020	-0.600	0.130
2020/01/31 18:15:29.5	355.670	0.020	-0.610	0.160
2020/01/31 18:15:29.6	355.670	0.060	-0.620	0.180
2020/01/31 18:15:29.7	355.670	0.110	-0.630	0.210
2020/01/31 18:15:29.8	355.660	0.150	-0.640	0.230
2020/01/31 18:15:29.9	355.660	0.200	-0.650	0.260
2020/01/31 18:15:30.0	355.660	0.250	-0.660	0.280
2020/01/31 18:15:30.1	355.660	0.290	-0.680	0.300
2020/01/31 18:15:30.2	355.660	0.340	-0.690	0.320
2020/01/31 18:15:30.3	355.660	0.390	-0.700	0.340
2020/01/31 18:15:30.4	355.670	0.440	-0.710	0.360
2020/01/31 18:15:30.5	355.670	0.480	-0.720	0.370
2020/01/31 18:15:30.6	355.670	0.520	-0.730	0.380
2020/01/31 18:15:30.7	355.680	0.560	-0.730	0.390
2020/01/31 18:15:30.8	355.680	0.600	-0.740	0.400
2020/01/31 18:15:30.9	355.690	0.630	-0.740	0.400
2020/01/31 18:15:31.0	355.700	0.660	-0.740	0.400
2020/01/31 18:15:31.1	355.710	0.690	-0.740	0.400
2020/01/31 18:15:31.2	355.710	0.710	-0.740	0.400
2020/01/31 18:15:31.3	355.720	0.730	-0.730	0.390
2020/01/31 18:15:31.4	355.730	0.740	-0.720	0.390
2020/01/31 18:15:31.5	355.740	0.750	-0.720	0.380
2020/01/31 18:15:31.6	355.760	0.750	-0.700	0.370
2020/01/31 18:15:31.7	355.770	0.750	-0.690	0.360
2020/01/31 18:15:31.8	355.790	0.750	-0.680	0.350
2020/01/31 18:15:31.9	355.800	0.740	-0.660	0.330
2020/01/31 18:15:32.0	355.820	0.720	-0.650	0.310
2020/01/31 18:15:32.1	355.840	0.700	-0.630	0.300
2020/01/31 18:15:32.2	355.860	0.680	-0.610	0.290
2020/01/31 18:15:32.3	355.880	0.650	-0.590	0.270
2020/01/31 18:15:32.4	355.900	0.620	-0.570	0.260
2020/01/31 18:15:32.5	355.920	0.580	-0.550	0.250
2020/01/31 18:15:32.6	355.950	0.540	-0.530	0.230
2020/01/31 18:15:32.7	355.970	0.490	-0.510	0.220
2020/01/31 18:15:32.8	355.990	0.450	-0.490	0.200
2020/01/31 18:15:32.9	356.020	0.400	-0.460	0.190
2020/01/31 18:15:33.0	356.040	0.350	-0.440	0.170
2020/01/31 18:15:33.1	356.070	0.290	-0.420	0.150
2020/01/31 18:15:33.2	356.090	0.240	-0.400	0.130
2020/01/31 18:15:33.3	356.120	0.180	-0.390	0.110
2020/01/31 18:15:33.4	356.150	0.120	-0.370	0.080
2020/01/31 18:15:33.5	356.180	0.070	-0.350	0.060
2020/01/31 18:15:33.6	356.210	0.010	-0.340	0.030
2020/01/31 18:15:33.7	356.230	-0.040	-0.330	-0.000
2020/01/31 18:15:33.8	356.260	-0.100	-0.320	-0.030
2020/01/31 18:15:33.9	356.290	-0.150	-0.300	-0.070
2020/01/31 18:15:34.0	356.320	-0.200	-0.290	-0.100
2020/01/31 18:15:34.1	356.340	-0.250	-0.280	-0.130
2020/01/31 18:15:34.2	356.370	-0.300	-0.280	-0.170
2020/01/31 18:15:34.3	356.390	-0.340	-0.270	-0.200
2020/01/31 18:15:34.4	356.420	-0.380	-0.260	-0.240
2020/01/31 18:15:34.5	356.440	-0.420	-0.240	-0.270
2020/01/31 18:15:34.6	356.460	-0.450	-0.230	-0.300
2020/01/31 18:15:34.7	356.480	-0.480	-0.220	-0.330
2020/01/31 18:15:34.8	356.490	-0.510	-0.210	-0.360
2020/01/31 18:15:34.9	356.510	-0.530	-0.190	-0.400
2020/01/31 18:15:35.0	356.520	-0.550	-0.170	-0.430
2020/01/31 18:15:35.1	356.530	-0.570	-0.150	-0.450
2020/01/31 18:15:35.2	356.540	-0.580	-0.130	-0.480
2020/01/31 18:15:35.3	356.550	-0.590	-0.110	-0.500
2020/01/31 18:15:35.4	356.550	-0.590	-0.090	-0.520
2020/01/31 18:15:35.5	356.550	-0.590	-0.060	-0.530
2020/01/31 18:15:35.6	356.550	-0.590	-0.040	-0.540
2020/01/31 18:15:35.7	356.550	-0.590	-0.010	-0.550
2020/01/31 18:15:35.8	356.530	-0.580	0.020	-0.560
2020/01/31 18:15:35.9	356.510	-0.580	0.050	-0.560
2020/01/31 18:15:36.0	356.500	-0.570	0.070	-0.550
2020/01/31 18:15:36.1	356.470	-0.550	0.100	-0.550
2020/01/31 18:15:36.2	356.450	-0.540	0.130	-0.530
2020/01/31 18:15:36.3	356.420	-0.530	0.160	-0.520
2020/01/31 18:15:36.4	356.380	-0.520	0.190	-0.500
2020/01/31 18:15:36.5	356.350	-0.500	0.210	-0.480
2020/01/31 18:15:36.6	356.310	-0.490	0.240	-0.450
2020/01/31 18:15:36.7	356.270	-0.470	0.260	-0.430
2020/01/31 18:15:36.8	356.230	-0.460	0.290	-0.400
2020/01/31 18:15:36.9	356.170	-0.440	0.310	-0.380
2020/01/31 18:15:37.0	356.130	-0.430	0.320	-0.350
2020/01/31 18:15:37.1	356.080	-0.410	0.340	-0.320
2020/01/31 18:15:37.2	356.040	-0.400	0.350	-0.290
2020/01/31 18:15:37.3	355.990	-0.380	0.360	-0.260
2020/01/31 18:15:37.4	355.950	-0.370	0.370	-0.240
2020/01/31 18:15:37.5	355.900	-0.350	0.380	-0.210
2020/01/31 18:15:37.6	355.860	-0.330	0.380	-0.190
2020/01/31 18:15:37.7	355.820	-0.320	0.380	-0.160
2020/01/31 18:15:37.8	355.780	-0.300	0.370	-0.140
2020/01/31 18:15:37.9	355.740	-0.280	0.360	-0.120
2020/01/31 18:15:38.0	355.710	-0.270	0.350	-0.100
2020/01/31 18:15:38.1	355.670	-0.250	0.340	-0.080
2020/01/31 18:15:38.2	355.640	-0.230	0.320	-0.060
2020/01/31 18:15:38.3	355.610	-0.210	0.300	-0.040
2020/01/31 18:15:38.4	355.590	-0.180	0.280	-0.020
2020/01/31 18:15:38.5	355.570	-0.160	0.260	-0.010
2020/01/31 18:15:38.6	355.540	-0.130	0.240	0.010
2020/01/31 18:15:38.7	355.520	-0.110	0.210	0.030
2020/01/31 18:15:38.8	355.520	-0.080	0.190	0.060
2020/01/31 18:15:38.9	355.500	-0.050	0.160	0.080
2020/01/31 18:15:39.0	355.480	-0.020	0.130	0.100
2020/01/31 18:15:39.1	355.470	0.020	0.100	0.130
2020/01/31 18:15:39.2	355.460	0.050	0.080	0.160
2020/01/31 18:15:39.3	355.450	0.090	0.050	0.190
2020/01/31 18:15:39.4	355.430	0.120	0.020	0.220
2020/01/31 18:15:39.5	355.420	0.160	-0.010	0.260
2020/01/31 18:15:39.6	355.410	0.190	-0.030	0.290
2020/01/31 18:15:39.7	355.410	0.230	-0.060	0.320
2020/01/31 18:15:39.8	355.400	0.260	-0.080	0.360
2020/01/31 18:15:39.9	355.400	0.290	-0.110	0.390
2020/01/31 18:15:40.0	355.400	0.320	-0.130	0.410
2020/01/31 18:15:40.1	355.390	0.350	-0.150	0.440
2020/01/31 18:15:40.2	355.390	0.380	-0.170	0.460
2020/01/31 18:15:40.3	355.390	0.400	-0.190	0.480
2020/01/31 18:15:40.4	355.390	0.430	-0.210	0.500
2020/01/31 18:15:40.5	355.390	0.440	-0.230	0.510
2020/01/31 18:15:40.6	355.390	0.460	-0.250	0.510
2020/01/31 18:15:40.7	355.400	0.470	-0.260	0.510
2020/01/31 18:15:40.8	355.400	0.480	-0.280	0.510
2020/01/31 18:15:40.9	355.410	0.490	-0.300	0.500
2020/01/31 18:15:41.0	355.410	0.490	-0.310	0.490
2020/01/31 18:15:41.1	355.420	0.490	-0.330	0.480
2020/01/31 18:15:41.2	355.430	0.490	-0.350	0.460
2020/01/31 18:15:41.3	355.430	0.480	-0.370	0.440
2020/01/31 18:15:41.4	355.440	0.480	-0.390	0.420
2020/01/31 18:15:41.5	355.450	0.460	-0.420	0.390
2020/01/31 18:15:41.6	355.460	0.450	-0.440	0.370
2020/01/31 18:15:41.7	355.470	0.440	-0.460	0.340
2020/01/31 18:15:41.8	355.480	0.420	-0.490	0.320
2020/01/31 18:15:41.9	355.500	0.400	-0.520	0.290
2020/01/31 18:15:42.0	355.510	0.380	-0.550	0.260
2020/01/31 18:15:42.1	355.530	0.360	-0.580	0.240
2020/01/31 18:15:42.2	355.540	0.340	-0.610	0.210
2020/01/31 18:15:42.3	355.560	0.310	-0.640	0.180
2020/01/31 18:15:42.4	355.580	0.290	-0.670	0.150
2020/01/31 18:15:42.5	355.600	0.260	-0.710	0.120
2020/01/31 18:15:42.6	355.630	0.240	-0.740	0.090
2020/01/31 18:15:42.7	355.650	0.220	-0.770	0.060
2020/01/31 18:15:42.8	355.680	0.190	-0.810	0.020
2020/01/31 18:15:42.9	355.710	0.170	-0.840	-0.010
2020/01/31 18:15:43.0	355.740	0.150	-0.870	-0.050
2020/01/31 18:15:43.1	355.770	0.130	-0.900	-0.090
2020/01/31 18:15:43.2	355.800	0.110	-0.930	-0.120
2020/01/31 18:15:43.3	355.830	0.090	-0.950	-0.160
2020/01/31 18:15:43.4	355.860	0.070	-0.970	-0.210
2020/01/31 18:15:43.5	355.890	0.060	-0.990	-0.250
2020/01/31 18:15:43.6	355.920	0.040	-1.010	-0.290
2020/01/31 18:15:43.7	355.960	0.030	-1.020	-0.340
2020/01/31 18:15:43.8	355.990	0.020	-1.030	-0.390
2020/01/31 18:15:43.9	356.020	0.010	-1.030	-0.440
2020/01/31 18:15:44.0	356.050	-0.000	-1.030	-0.480
2020/01/31 18:15:44.1	356.080	-0.010	-1.030	-0.530
2020/01/31 18:15:44.2	356.110	-0.010	-1.020	-0.570
2020/01/31 18:15:44.3	356.140	-0.010	-1.000	-0.600
2020/01/31 18:15:44.4	356.170	-0.010	-0.980	-0.640
2020/01/31 18:15:44.5	356.200	-0.010	-0.960	-0.670
2020/01/31 18:15:44.6	356.220	-0.010	-0.930	-0.690
2020/01/31 18:15:44.7	356.240	-0.010	-0.890	-0.710
2020/01/31 18:15:44.8	356.260	-0.000	-0.850	-0.720
2020/01/31 18:15:44.9	356.280	0.000	-0.800	-0.730
2020/01/31 18:15:45.0	356.300	0.010	-0.750	-0.730
2020/01/31 18:15:45.1	356.310	0.010	-0.700	-0.730
2020/01/31 18:15:45.2	356.310	0.020	-0.640	-0.720
2020/01/31 18:15:45.3	356.320	0.020	-0.580	-0.700
2020/01/31 18:15:45.4	356.320	0.030	-0.510	-0.680
2020/01/31 18:15:45.5	356.310	0.030	-0.450	-0.660
2020/01/31 18:15:45.6	356.310	0.030	-0.380	-0.630
2020/01/31 18:15:45.7	356.300	0.030	-0.320	-0.600
2020/01/31 18:15:45.8	356.290	0.030	-0.250	-0.570
2020/01/31 18:15:45.9	356.260	0.030	-0.190	-0.530
2020/01/31 18:15:46.0	356.250	0.020	-0.120	-0.500
2020/01/31 18:15:46.1	356.230	0.020	-0.070	-0.460
2020/01/31 18:15:46.2	356.210	0.010	-0.010	-0.420
2020/01/31 18:15:46.3	356.180	-0.010	0.040	-0.390
2020/01/31 18:15:46.4	356.160	-0.020	0.090	-0.360
2020/01/31 18:15:46.5	356.130	-0.040	0.130	-0.330
2020/01/31 18:15:46.6	356.100	-0.050	0.170	-0.300
2020/01/31 18:15:46.7	356.070	-0.070	0.200	-0.280
2020/01/31 18:15:46.8	356.040	-0.090	0.230	-0.260
2020/01/31 18:15:46.9	356.020	-0.120	0.250	-0.240
2020/01/31 18:15:47.0	355.990	-0.140	0.260	-0.230
2020/01/31 18:15:47.1	355.970	-0.170	0.270	-0.220
2020/01/31 18:15:47.2	355.940	-0.190	0.280	-0.210
2020/01/31 18:15:47.3	355.910	-0.220	0.280	-0.210
2020/01/31 18:15:47.4	355.890	-0.240	0.270	-0.220
2020/01/31 18:15:47.5	355.870	-0.270	0.270	-0.230
2020/01/31 18:15:47.6	355.850	-0.290	0.250	-0.240
2020/01/31 18:15:47.7	355.830	-0.320	0.230	-0.250
2020/01/31 18:15:47.8	355.820	-0.340	0.210	-0.270
2020/01/31 18:15:47.9	355.810	-0.360	0.180	-0.300
2020/01/31 18:15:48.0	355.800	-0.380	0.150	-0.320
2020/01/31 18:15:48.1	355.800	-0.400	0.120	-0.340
2020/01/31 18:15:48.2	355.800	-0.410	0.080	-0.360
2020/01/31 18:15:48.3	355.800	-0.420	0.050	-0.390
2020/01/31 18:15:48.4	355.810	-0.430	0.000	-0.410
2020/01/31 18:15:48.5	355.820	-0.430	-0.040	-0.440
2020/01/31 18:15:48.6	355.840	-0.430	-0.080	-0.460
2020/01/31 18:15:48.7	355.860	-0.430	-0.120	-0.490
2020/01/31 18:15:48.8	355.880	-0.430	-0.170	-0.510
2020/01/31 18:15:48.9	355.900	-0.420	-0.210	-0.540
2020/01/31 18:15:49.0	355.930	-0.400	-0.250	-0.560
2020/01/31 18:15:49.1	355.960	-0.390	-0.290	-0.590
2020/01/31 18:15:49.2	355.990	-0.370	-0.320	-0.610
2020/01/31 18:15:49.3	356.030	-0.340	-0.360	-0.640
2020/01/31 18:15:49.4	356.070	-0.320	-0.390	-0.660
2020/01/31 18:15:49.5	356.110	-0.290	-0.420	-0.680
2020/01/31 18:15:49.6	356.150	-0.260	-0.440	-0.700
2020/01/31 18:15:49.7	356.190	-0.230	-0.460	-0.720
2020/01/31 18:15:49.8	356.240	-0.190	-0.480	-0.740
2020/01/31 18:15:49.9	356.280	-0.160	-0.490	-0.760
2020/01/31 18:15:50.0	356.320	-0.130	-0.490	-0.770
2020/01/31 18:15:50.1	356.360	-0.090	-0.490	-0.790
2020/01/31 18:15:50.2	356.400	-0.060	-0.490	-0.790
2020/01/31 18:15:50.3	356.430	-0.020	-0.470	-0.790
2020/01/31 18:15:50.4	356.460	0.010	-0.450	-0.790
2020/01/31 18:15:50.5	356.490	0.040	-0.420	-0.780
2020/01/31 18:15:50.6	356.510	0.070	-0.390	-0.760
2020/01/31 18:15:50.7	356.530	0.100	-0.350	-0.740
2020/01/31 18:15:50.8	356.540	0.130	-0.300	-0.710
2020/01/31 18:15:50.9	356.530	0.150	-0.250	-0.670
2020/01/31 18:15:51.0	356.530	0.170	-0.190	-0.620
2020/01/31 18:15:51.1	356.520	0.190	-0.130	-0.570
2020/01/31 18:15:51.2	356.510	0.200	-0.060	-0.510
2020/01/31 18:15:51.3	356.490	0.220	0.010	-0.440
2020/01/31 18:15:51.4	356.470	0.220	0.080	-0.370
2020/01/31 18:15:51.5	356.440	0.230	0.160	-0.300
2020/01/31 18:15:51.6	356.400	0.230	0.230	-0.220
2020/01/31 18:15:51.7	356.360	0.230	0.310	-0.140
2020/01/31 18:15:51.8	356.320	0.220	0.380	-0.060
2020/01/31 18:15:51.9	356.280	0.210	0.450	0.030
2020/01/31 18:15:52.0	356.230	0.200	0.520	0.120
2020/01/31 18:15:52.1	356.170	0.190	0.590	0.200
2020/01/31 18:15:52.2	356.120	0.170	0.650	0.280
2020/01/31 18:15:52.3	356.060	0.150	0.700	0.350
2020/01/31 18:15:52.4	356.010	0.130	0.750	0.430
2020/01/31 18:15:52.5	355.950	0.110	0.790	0.500
2020/01/31 18:15:52.6	355.890	0.090	0.830	0.560
2020/01/31 18:15:52.7	355.840	0.060	0.850	0.620
2020/01/31 18:15:52.8	355.790	0.040	0.870	0.670
2020/01/31 18:15:52.9	355.740	0.020	0.870	0.710
2020/01/31 18:15:53.0	355.690	-0.010	0.870	0.750
2020/01/31 18:15:53.1	355.640	-0.030	0.850	0.780
2020/01/31 18:15:53.2	355.600	-0.050	0.820	0.800
2020/01/31 18:15:53.3	355.560	-0.070	0.790	0.810
2020/01/31 18:15:53.4	355.520	-0.090	0.740	0.810
2020/01/31 18:15:53.5	355.490	-0.100	0.680	0.800
2020/01/31 18:15:53.6	355.460	-0.110	0.610	0.780
2020/01/31 18:15:53.7	355.440	-0.120	0.530	0.760
2020/01/31 18:15:53.8	355.420	-0.130	0.450	0.720
2020/01/31 18:15:53.9	355.410	-0.130	0.350	0.680
2020/01/31 18:15:54.0	355.400	-0.130	0.250	0.640
2020/01/31 18:15:54.1	355.400	-0.130	0.140	0.580
2020/01/31 18:15:54.2	355.400	-0.120	0.030	0.520
2020/01/31 18:15:54.3	355.410	-0.120	-0.090	0.450
2020/01/31 18:15:54.4	355.420	-0.110	-0.210	0.380
2020/01/31 18:15:54.5	355.430	-0.100	-0.330	0.300
2020/01/31 18:15:54.6	355.450	-0.080	-0.460	0.220
2020/01/31 18:15:54.7	355.480	-0.070	-0.580	0.140
2020/01/31 18:15:54.8	355.510	-0.050	-0.710	0.050
2020/01/31 18:15:54.9	355.550	-0.030	-0.830	-0.040
2020/01/31 18:15:55.0	355.580	-0.010	-0.950	-0.140
2020/01/31 18:15:55.1	355.620	0.020	-1.070	-0.230
2020/01/31 18:15:55.2	355.660	0.040	-1.180	-0.320
2020/01/31 18:15:55.3	355.710	0.060	-1.290	-0.420
2020/01/31 18:15:55.4	355.750	0.090	-1.390	-0.510
2020/01/31 18:15:55.5	355.800	0.110	-1.480	-0.600
2020/01/31 18:15:55.6	355.850	0.140	-1.570	-0.690
2020/01/31 18:15:55.7	355.900	0.160	-1.640	-0.770
2020/01/31 18:15:55.8	355.950	0.180	-1.710	-0.860
2020/01/31 18:15:55.9	356.000	0.200	-1.770	-0.930
2020/01/31 18:15:56.0	356.050	0.220	-1.820	-1.000
2020/01/31 18:15:56.1	356.100	0.240	-1.860	-1.070
2020/01/31 18:15:56.2	356.150	0.260	-1.880	-1.130
2020/01/31 18:15:56.3	356.200	0.280	-1.900	-1.180
2020/01/31 18:15:56.4	356.240	0.290	-1.900	-1.230
2020/01/31 18:15:56.5	356.280	0.300	-1.900	-1.270
2020/01/31 18:15:56.6	356.320	0.310	-1.880	-1.310
2020/01/31 18:15:56.7	356.360	0.310	-1.850	-1.340
2020/01/31 18:15:56.8	356.390	0.310	-1.810	-1.360
2020/01/31 18:15:56.9	356.420	0.310	-1.770	-1.380
2020/01/31 18:15:57.0	356.450	0.310	-1.710	-1.390
2020/01/31 18:15:57.1	356.470	0.310	-1.640	-1.390
2020/01/31 18:15:57.2	356.500	0.300	-1.570	-1.390
2020/01/31 18:15:57.3	356.520	0.290	-1.490	-1.390
2020/01/31 18:15:57.4	356.540	0.270	-1.400	-1.380
2020/01/31 18:15:57.5	356.560	0.260	-1.310	-1.370
2020/01/31 18:15:57.6	356.570	0.240	-1.210	-1.350
2020/01/31 18:15:57.7	356.590	0.220	-1.110	-1.330
2020/01/31 18:15:57.8	356.600	0.200	-1.010	-1.310
2020/01/31 18:15:57.9	356.620	0.180	-0.900	-1.290
2020/01/31 18:15:58.0	356.630	0.160	-0.800	-1.270
2020/01/31 18:15:58.1	356.650	0.130	-0.700	-1.240
2020/01/31 18:15:58.2	356.660	0.110	-0.600	-1.220
2020/01/31 18:15:58.3	356.680	0.090	-0.500	-1.190
2020/01/31 18:15:58.4	356.690	0.060	-0.400	-1.160
2020/01/31 18:15:58.5	356.710	0.040	-0.310	-1.140
2020/01/31 18:15:58.6	356.720	0.010	-0.220	-1.110
2020/01/31 18:15:58.7	356.740	-0.010	-0.140	-1.080
2020/01/31 18:15:58.8	356.760	-0.030	-0.060	-1.050
2020/01/31 18:15:58.9	356.780	-0.050	0.010	-1.020
2020/01/31 18:15:59.0	356.790	-0.070	0.080	-0.980
2020/01/31 18:15:59.1	356.810	-0.090	0.140	-0.950
2020/01/31 18:15:59.2	356.830	-0.110	0.200	-0.910
2020/01/31 18:15:59.3	356.840	-0.120	0.250	-0.870
2020/01/31 18:15:59.4	356.860	-0.140	0.300	-0.830
2020/01/31 18:15:59.5	356.870	-0.150	0.350	-0.790
2020/01/31 18:15:59.6	356.880	-0.170	0.390	-0.740
2020/01/31 18:15:59.7	356.890	-0.180	0.430	-0.700
2020/01/31 18:15:59.8	356.890	-0.190	0.470	-0.640
2020/01/31 18:15:59.9	356.890	-0.200	0.510	-0.590
2020/01/31 18:16:00.0	356.890	-0.220	0.540	-0.540
2020/01/31 18:16:00.1	356.880	-0.230	0.570	-0.490
2020/01/31 18:16:00.2	356.870	-0.240	0.590	-0.430
2020/01/31 18:16:00.3	356.860	-0.240	0.620	-0.380
2020/01/31 18:16:00.4	356.850	-0.250	0.640	-0.320
2020/01/31 18:16:00.5	356.830	-0.260	0.660	-0.270
2020/01/31 18:16:00.6	356.810	-0.270	0.680	-0.210
2020/01/31 18:16:00.7	356.780	-0.270	0.700	-0.160
2020/01/31 18:16:00.8	356.750	-0.280	0.720	-0.100
2020/01/31 18:16:00.9	356.700	-0.280	0.740	-0.050
2020/01/31 18:16:01.0	356.660	-0.290	0.750	0.010
2020/01/31 18:16:01.1	356.620	-0.290	0.770	0.070
2020/01/31 18:16:01.2	356.580	-0.290	0.780	0.120
2020/01/31 18:16:01.3	356.540	-0.290	0.790	0.180
2020/01/31 18:16:01.4	356.490	-0.290	0.800	0.240
2020/01/31 18:16:01.5	356.440	-0.290	0.810	0.300
2020/01/31 18:16:01.6	356.390	-0.290	0.810	0.350
2020/01/31 18:16:01.7	356.330	-0.290	0.810	0.410
2020/01/31 18:16:01.8	356.280	-0.280	0.810	0.460
2020/01/31 18:16:01.9	356.220	-0.280	0.800	0.510
2020/01/31 18:16:02.0	356.160	-0.270	0.800	0.560
2020/01/31 18:16:02.1	356.110	-0.260	0.780	0.610
2020/01/31 18:16:02.2	356.060	-0.260	0.760	0.650
2020/01/31 18:16:02.3	356.010	-0.250	0.740	0.690
2020/01/31 18:16:02.4	355.960	-0.240	0.700	0.720
2020/01/31 18:16:02.5	355.920	-0.230	0.670	0.750
2020/01/31 18:16:02.6	355.880	-0.210	0.620	0.780
2020/01/31 18:16:02.7	355.840	-0.200	0.570	0.790
2020/01/31 18:16:02.8	355.810	-0.190	0.510	0.810
2020/01/31 18:16:02.9	355.780	-0.170	0.450	0.810
2020/01/31 18:16:03.0	355.750	-0.150	0.380	0.810
2020/01/31 18:16:03.1	355.730	-0.140	0.310	0.800
2020/01/31 18:16:03.2	355.700	-0.120	0.230	0.790
2020/01/31 18:16:03.3	355.680	-0.110	0.150	0.770
2020/01/31 18:16:03.4	355.670	-0.090	0.060	0.750
2020/01/31 18:16:03.5	355.650	-0.080	-0.030	0.710
2020/01/31 18:16:03.6	355.640	-0.060	-0.130	0.680
2020/01/31 18:16:03.7	355.630	-0.050	-0.220	0.630
2020/01/31 18:16:03.8	355.620	-0.030	-0.310	0.590
2020/01/31 18:16:03.9	355.620	-0.020	-0.410	0.530
2020/01/31 18:16:04.0	355.620	-0.010	-0.500	0.470
2020/01/31 18:16:04.1	355.620	-0.000	-0.590	0.410
2020/01/31 18:16:04.2	355.620	0.010	-0.680	0.340
2020/01/31 18:16:04.3	355.620	0.010	-0.770	0.270
2020/01/31 18:16:04.4	355.620	0.020	-0.850	0.200
2020/01/31 18:16:04.5	355.630	0.030	-0.930	0.120
2020/01/31 18:16:04.6	355.640	0.030	-0.990	0.050
2020/01/31 18:16:04.7	355.640	0.030	-1.060	-0.020
2020/01/31 18:16:04.8	355.650	0.030	-1.110	-0.100
2020/01/31 18:16:04.9	355.670	0.030	-1.160	-0.170
2020/01/31 18:16:05.0	355.690	0.030	-1.200	-0.240
2020/01/31 18:16:05.1	355.700	0.030	-1.230	-0.310
2020/01/31 18:16:05.2	355.710	0.030	-1.260	-0.380
2020/01/31 18:16:05.3	355.730	0.030	-1.270	-0.440
2020/01/31 18:16:05.4	355.750	0.030	-1.280	-0.500
2020/01/31 18:16:05.5	355.770	0.030	-1.280	-0.560
2020/01/31 18:16:05.6	355.790	0.030	-1.270	-0.610
2020/01/31 18:16:05.7	355.810	0.030	-1.260	-0.660
2020/01/31 18:16:05.8	355.830	0.030	-1.230	-0.710
2020/01/31 18:16:05.9	355.850	0.030	-1.200	-0.760
2020/01/31 18:16:06.0	355.870	0.040	-1.170	-0.790
2020/01/31 18:16:06.1	355.890	0.040	-1.130	-0.820
2020/01/31 18:16:06.2	355.920	0.040	-1.080	-0.850
2020/01/31 18:16:06.3	355.950	0.050	-1.040	-0.870
2020/01/31 18:16:06.4	355.970	0.060	-0.980	-0.890
2020/01/31 18:16:06.5	356.000	0.070	-0.930	-0.910
2020/01/31 18:16:06.6	356.030	0.080	-0.880	-0.920
2020/01/31 18:16:06.7	356.050	0.090	-0.820	-0.920
2020/01/31 18:16:06.8	356.080	0.100	-0.770	-0.920
2020/01/31 18:16:06.9	356.110	0.120	-0.720	-0.920
2020/01/31 18:16:07.0	356.140	0.130	-0.660	-0.910
2020/01/31 18:16:07.1	356.160	0.150	-0.610	-0.900
2020/01/31 18:16:07.2	356.190	0.170	-0.560	-0.890
2020/01/31 18:16:07.3	356.210	0.190	-0.510	-0.870
2020/01/31 18:16:07.4	356.230	0.200	-0.470	-0.850
2020/01/31 18:16:07.5	356.250	0.220	-0.430	-0.820
2020/01/31 18:16:07.6	356.270	0.240	-0.390	-0.790
2020/01/31 18:16:07.7	356.280	0.260	-0.350	-0.770
2020/01/31 18:16:07.8	356.300	0.280	-0.320	-0.730
2020/01/31 18:16:07.9	356.300	0.300	-0.290	-0.700
2020/01/31 18:16:08.0	356.310	0.320	-0.260	-0.670
2020/01/31 18:16:08.1	356.320	0.340	-0.240	-0.630
2020/01/31 18:16:08.2	356.320	0.350	-0.220	-0.600
2020/01/31 18:16:08.3	356.330	0.370	-0.200	-0.570
2020/01/31 18:16:08.4	356.330	0.380	-0.190	-0.530
2020/01/31 18:16:08.5	356.330	0.390	-0.180	-0.500
2020/01/31 18:16:08.6	356.330	0.400	-0.170	-0.470
2020/01/31 18:16:08.7	356.330	0.400	-0.160	-0.440
2020/01/31 18:16:08.8	356.330	0.410	-0.150	-0.410
2020/01/31 18:16:08.9	356.320	0.410	-0.150	-0.390
2020/01/31 18:16:09.0	356.310	0.410	-0.140	-0.360
2020/01/31 18:16:09.1	356.310	0.400	-0.140	-0.340
2020/01/31 18:16:09.2	356.310	0.400	-0.130	-0.320
2020/01/31 18:16:09.3	356.300	0.380	-0.130	-0.300
2020/01/31 18:16:09.4	356.300	0.370	-0.130	-0.280
2020/01/31 18:16:09.5	356.290	0.350	-0.120	-0.270
2020/01/31 18:16:09.6	356.290	0.330	-0.110	-0.250
2020/01/31 18:16:09.7	356.280	0.310	-0.100	-0.240
2020/01/31 18:16:09.8	356.280	0.280	-0.100	-0.230
2020/01/31 18:16:09.9	356.270	0.250	-0.080	-0.210
2020/01/31 18:16:10.0	356.260	0.220	-0.070	-0.200
2020/01/31 18:16:10.1	356.250	0.180	-0.050	-0.190
2020/01/31 18:16:10.2	356.240	0.150	-0.030	-0.180
2020/01/31 18:16:10.3	356.230	0.100	-0.000	-0.160
2020/01/31 18:16:10.4	356.220	0.060	0.020	-0.150
2020/01/31 18:16:10.5	356.200	0.020	0.050	-0.140
2020/01/31 18:16:10.6	356.180	-0.030	0.080	-0.130
2020/01/31 18:16:10.7	356.170	-0.080	0.110	-0.120
2020/01/31 18:16:10.8	356.150	-0.130	0.150	-0.110
2020/01/31 18:16:10.9	356.130	-0.180	0.180	-0.090
2020/01/31 18:16:11.0	356.100	-0.230	0.220	-0.080
2020/01/31 18:16:11.1	356.080	-0.280	0.250	-0.070
2020/01/31 18:16:11.2	356.060	-0.320	0.290	-0.060
2020/01/31 18:16:11.3	356.040	-0.370	0.320	-0.060
2020/01/31 18:16:11.4	356.020	-0.410	0.350	-0.050
2020/01/31 18:16:11.5	356.000	-0.460	0.380	-0.040
2020/01/31 18:16:11.6	355.980	-0.490	0.400	-0.030
2020/01/31 18:16:11.7	355.960	-0.530	0.420	-0.030
2020/01/31 18:16:11.8	355.940	-0.560	0.440	-0.020
2020/01/31 18:16:11.9	355.930	-0.580	0.450	-0.030
2020/01/31 18:16:12.0	355.920	-0.600	0.450	-0.020
2020/01/31 18:16:12.1	355.900	-0.620	0.450	-0.020
2020/01/31 18:16:12.2	355.890	-0.630	0.440	-0.020
2020/01/31 18:16:12.3	355.880	-0.630	0.430	-0.010
2020/01/31 18:16:12.4	355.870	-0.620	0.410	-0.010
2020/01/31 18:16:12.5	355.860	-0.610	0.390	-0.000
2020/01/31 18:16:12.6	355.860	-0.600	0.360	0.000
2020/01/31 18:16:12.7	355.850	-0.570	0.320	0.010
2020/01/31 18:16:12.8	355.840	-0.540	0.280	0.020
2020/01/31 18:16:12.9	355.830	-0.510	0.240	0.030
2020/01/31 18:16:13.0	355.820	-0.470	0.200	0.050
2020/01/31 18:16:13.1	355.810	-0.420	0.150	0.060
2020/01/31 18:16:13.2	355.800	-0.370	0.100	0.080
2020/01/31 18:16:13.3	355.790	-0.320	0.040	0.100
2020/01/31 18:16:13.4	355.770	-0.260	-0.010	0.110
2020/01/31 18:16:13.5	355.750	-0.200	-0.070	0.130
2020/01/31 18:16:13.6	355.730	-0.140	-0.130	0.150
2020/01/31 18:16:13.7	355.710	-0.070	-0.180	0.170
2020/01/31 18:16:13.8	355.690	-0.010	-0.240	0.180
2020/01/31 18:16:13.9	355.670	0.060	-0.300	0.200
2020/01/31 18:16:14.0	355.640	0.120	-0.350	0.210
2020/01/31 18:16:14.1	355.610	0.180	-0.400	0.220
2020/01/31 18:16:14.2	355.590	0.240	-0.450	0.230
2020/01/31 18:16:14.3	355.560	0.300	-0.500	0.230
2020/01/31 18:16:14.4	355.530	0.360	-0.550	0.240
2020/01/31 18:16:14.5	355.510	0.410	-0.600	0.240
2020/01/31 18:16:14.6	355.480	0.450	-0.640	0.240
2020/01/31 18:16:14.7	355.460	0.500	-0.680	0.230
2020/01/31 18:16:14.8	355.430	0.540	-0.720	0.230
2020/01/31 18:16:14.9	355.420	0.570	-0.760	0.230
2020/01/31 18:16:15.0	355.400	0.600	-0.800	0.220
2020/01/31 18:16:15.1	355.380	0.620	-0.830	0.210
2020/01/31 18:16:15.2	355.370	0.640	-0.860	0.200
2020/01/31 18:16:15.3	355.360	0.650	-0.890	0.190
2020/01/31 18:16:15.4	355.350	0.660	-0.910	0.170
2020/01/31 18:16:15.5	355.350	0.660	-0.930	0.160
2020/01/31 18:16:15.6	355.350	0.660	-0.950	0.140
2020/01/31 18:16:15.7	355.360	0.660	-0.970	0.120
2020/01/31 18:16:15.8	355.360	0.640	-0.980	0.100
2020/01/31 18:16:15.9	355.380	0.630	-0.990	0.070
2020/01/31 18:16:16.0	355.400	0.610	-1.000	0.040
2020/01/31 18:16:16.1	355.420	0.580	-1.010	0.010
2020/01/31 18:16:16.2	355.440	0.560	-1.010	-0.020
2020/01/31 18:16:16.3	355.470	0.520	-1.010	-0.060
2020/01/31 18:16:16.4	355.500	0.490	-1.000	-0.090
2020/01/31 18:16:16.5	355.530	0.450	-0.990	-0.130
2020/01/31 18:16:16.6	355.570	0.410	-0.980	-0.170
2020/01/31 18:16:16.7	355.600	0.360	-0.960	-0.220
2020/01/31 18:16:16.8	355.640	0.310	-0.940	-0.260
2020/01/31 18:16:16.9	355.670	0.270	-0.920	-0.300
2020/01/31 18:16:17.0	355.710	0.210	-0.890	-0.340
2020/01/31 18:16:17.1	355.740	0.160	-0.860	-0.380
2020/01/31 18:16:17.2	355.770	0.110	-0.820	-0.420
2020/01/31 18:16:17.3	355.810	0.060	-0.770	-0.460
2020/01/31 18:16:17.4	355.830	0.000	-0.730	-0.490
2020/01/31 18:16:17.5	355.860	-0.050	-0.670	-0.520
2020/01/31 18:16:17.6	355.880	-0.110	-0.620	-0.550
2020/01/31 18:16:17.7	355.900	-0.160	-0.560	-0.570
2020/01/31 18:16:17.8	355.910	-0.210	-0.490	-0.590
2020/01/31 18:16:17.9	355.910	-0.260	-0.420	-0.600
2020/01/31 18:16:18.0	355.920	-0.310	-0.350	-0.610
2020/01/31 18:16:18.1	355.920	-0.360	-0.280	-0.610
2020/01/31 18:16:18.2	355.930	-0.400	-0.200	-0.610
2020/01/31 18:16:18.3	355.920	-0.450	-0.120	-0.600
2020/01/31 18:16:18.4	355.920	-0.490	-0.040	-0.590
2020/01/31 18:16:18.5	355.910	-0.520	0.030	-0.570
2020/01/31 18:16:18.6	355.900	-0.560	0.110	-0.550
2020/01/31 18:16:18.7	355.880	-0.590	0.190	-0.530
2020/01/31 18:16:18.8	355.870	-0.610	0.260	-0.500
2020/01/31 18:16:18.9	355.860	-0.640	0.320	-0.470
2020/01/31 18:16:19.0	355.850	-0.660	0.380	-0.440
2020/01/31 18:16:19.1	355.830	-0.670	0.440	-0.410
2020/01/31 18:16:19.2	355.820	-0.680	0.490	-0.370
2020/01/31 18:16:19.3	355.800	-0.690	0.530	-0.340
2020/01/31 18:16:19.4	355.790	-0.700	0.570	-0.310
2020/01/31 18:16:19.5	355.780	-0.690	0.600	-0.280
2020/01/31 18:16:19.6	355.770	-0.690	0.610	-0.250
2020/01/31 18:16:19.7	355.760	-0.680	0.620	-0.230
2020/01/31 18:16:19.8	355.750	-0.670	0.630	-0.200
2020/01/31 18:16:19.9	355.730	-0.650	0.620	-0.180
2020/01/31 18:16:20.0	355.730	-0.630	0.610	-0.160
2020/01/31 18:16:20.1	355.720	-0.600	0.580	-0.150
2020/01/31 18:16:20.2	355.720	-0.580	0.550	-0.130
2020/01/31 18:16:20.3	355.720	-0.540	0.510	-0.120
2020/01/31 18:16:20.4	355.720	-0.510	0.460	-0.110
2020/01/31 18:16:20.5	355.720	-0.470	0.410	-0.100
2020/01/31 18:16:20.6	355.720	-0.430	0.350	-0.090
2020/01/31 18:16:20.7	355.720	-0.390	0.290	-0.080
2020/01/31 18:16:20.8	355.720	-0.350	0.220	-0.080
2020/01/31 18:16:20.9	355.720	-0.300	0.150	-0.070
2020/01/31 18:16:21.0	355.710	-0.260	0.080	-0.060
2020/01/31 18:16:21.1	355.710	-0.210	0.000	-0.060
2020/01/31 18:16:21.2	355.710	-0.160	-0.070	-0.060
2020/01/31 18:16:21.3	355.710	-0.110	-0.150	-0.050
2020/01/31 18:16:21.4	355.700	-0.070	-0.220	-0.050
2020/01/31 18:16:21.5	355.700	-0.020	-0.290	-0.040
2020/01/31 18:16:21.6	355.690	0.030	-0.360	-0.040
2020/01/31 18:16:21.7	355.690	0.070	-0.420	-0.030
2020/01/31 18:16:21.8	355.680	0.120	-0.480	-0.030
2020/01/31 18:16:21.9	355.680	0.160	-0.530	-0.020
2020/01/31 18:16:22.0	355.670	0.200	-0.580	-0.020
2020/01/31 18:16:22.1	355.660	0.240	-0.620	-0.010
2020/01/31 18:16:22.2	355.650	0.270	-0.660	-0.000
2020/01/31 18:16:22.3	355.640	0.310	-0.690	0.010
2020/01/31 18:16:22.4	355.630	0.340	-0.710	0.020
2020/01/31 18:16:22.5	355.620	0.370	-0.730	0.030
2020/01/31 18:16:22.6	355.610	0.400	-0.740	0.040
2020/01/31 18:16:22.7	355.600	0.420	-0.750	0.050
2020/01/31 18:16:22.8	355.590	0.440	-0.750	0.070
2020/01/31 18:16:22.9	355.570	0.460	-0.740	0.080
2020/01/31 18:16:23.0	355.560	0.480	-0.730	0.090
2020/01/31 18:16:23.1	355.550	0.490	-0.710	0.100
2020/01/31 18:16:23.2	355.540	0.510	-0.690	0.120
2020/01/31 18:16:23.3	355.530	0.520	-0.670	0.130
2020/01/31 18:16:23.4	355.520	0.520	-0.640	0.140
2020/01/31 18:16:23.5	355.510	0.530	-0.610	0.150
2020/01/31 18:16:23.6	355.510	0.530	-0.570	0.170
2020/01/31 18:16:23.7	355.500	0.530	-0.540	0.180
2020/01/31 18:16:23.8	355.490	0.530	-0.500	0.190
2020/01/31 18:16:23.9	355.490	0.530	-0.460	0.200
2020/01/31 18:16:24.0	355.480	0.530	-0.420	0.200
2020/01/31 18:16:24.1	355.480	0.520	-0.370	0.210
2020/01/31 18:16:24.2	355.480	0.510	-0.330	0.210
2020/01/31 18:16:24.3	355.480	0.510	-0.290	0.210
2020/01/31 18:16:24.4	355.480	0.500	-0.250	0.220
2020/01/31 18:16:24.5	355.480	0.490	-0.210	0.210
2020/01/31 18:16:24.6	355.480	0.480	-0.170	0.210
2020/01/31 18:16:24.7	355.490	0.460	-0.130	0.200
2020/01/31 18:16:24.8	355.490	0.450	-0.090	0.200
2020/01/31 18:16:24.9	355.490	0.440	-0.060	0.190
2020/01/31 18:16:25.0	355.500	0.420	-0.020	0.180
2020/01/31 18:16:25.1	355.510	0.410	0.010	0.160
2020/01/31 18:16:25.2	355.510	0.390	0.040	0.150
2020/01/31 18:16:25.3	355.520	0.370	0.070	0.130
2020/01/31 18:16:25.4	355.530	0.350	0.090	0.110
2020/01/31 18:16:25.5	355.540	0.340	0.120	0.090
2020/01/31 18:16:25.6	355.540	0.320	0.140	0.070
2020/01/31 18:16:25.7	355.550	0.300	0.160	0.050
2020/01/31 18:16:25.8	355.550	0.270	0.170	0.020
2020/01/31 18:16:25.9	355.560	0.250	0.190	-0.010
2020/01/31 18:16:26.0	355.560	0.230	0.200	-0.030
2020/01/31 18:16:26.1	355.570	0.200	0.210	-0.060
2020/01/31 18:16:26.2	355.570	0.180	0.220	-0.080
2020/01/31 18:16:26.3	355.570	0.150	0.220	-0.110
2020/01/31 18:16:26.4	355.570	0.120	0.220	-0.130
2020/01/31 18:16:26.5	355.570	0.100	0.210	-0.160
2020/01/31 18:16:26.6	355.570	0.070	0.210	-0.180
2020/01/31 18:16:26.7	355.570	0.040	0.200	-0.200
2020/01/31 18:16:26.8	355.580	0.010	0.180	-0.220
2020/01/31 18:16:26.9	355.580	-0.020	0.170	-0.250
2020/01/31 18:16:27.0	355.580	-0.050	0.150	-0.270
2020/01/31 18:16:27.1	355.570	-0.080	0.130	-0.280
2020/01/31 18:16:27.2	355.560	-0.110	0.100	-0.300
2020/01/31 18:16:27.3	355.560	-0.130	0.070	-0.320
2020/01/31 18:16:27.4	355.550	-0.160	0.040	-0.330
2020/01/31 18:16:27.5	355.540	-0.190	0.010	-0.340
2020/01/31 18:16:27.6	355.530	-0.210	-0.030	-0.350
2020/01/31 18:16:27.7	355.520	-0.240	-0.070	-0.360
2020/01/31 18:16:27.8	355.510	-0.260	-0.110	-0.370
2020/01/31 18:16:27.9	355.510	-0.280	-0.150	-0.380
2020/01/31 18:16:28.0	355.500	-0.300	-0.190	-0.380
2020/01/31 18:16:28.1	355.480	-0.320	-0.240	-0.380
2020/01/31 18:16:28.2	355.470	-0.340	-0.280	-0.390
2020/01/31 18:16:28.3	355.460	-0.350	-0.330	-0.390
2020/01/31 18:16:28.4	355.450	-0.360	-0.380	-0.390
2020/01/31 18:16:28.5	355.440	-0.370	-0.430	-0.390
2020/01/31 18:16:28.6	355.420	-0.380	-0.480	-0.390
2020/01/31 18:16:28.7	355.410	-0.390	-0.540	-0.390
2020/01/31 18:16:28.8	355.390	-0.390	-0.590	-0.400
2020/01/31 18:16:28.9	355.380	-0.390	-0.640	-0.400
2020/01/31 18:16:29.0	355.370	-0.390	-0.690	-0.400
2020/01/31 18:16:29.1	355.370	-0.390	-0.750	-0.410
2020/01/31 18:16:29.2	355.370	-0.380	-0.800	-0.420
2020/01/31 18:16:29.3	355.370	-0.380	-0.850	-0.430
2020/01/31 18:16:29.4	355.370	-0.370	-0.910	-0.440
2020/01/31 18:16:29.5	355.380	-0.360	-0.960	-0.450
2020/01/31 18:16:29.6	355.390	-0.340	-1.000	-0.460
2020/01/31 18:16:29.7	355.400	-0.330	-1.050	-0.470
2020/01/31 18:16:29.8	355.420	-0.310	-1.090	-0.490
2020/01/31 18:16:29.9	355.440	-0.300	-1.130	-0.500
2020/01/31 18:16:30.0	355.460	-0.280	-1.160	-0.520
2020/01/31 18:16:30.1	355.480	-0.260	-1.190	-0.530
2020/01/31 18:16:30.2	355.500	-0.230	-1.210	-0.540
2020/01/31 18:16:30.3	355.520	-0.210	-1.230	-0.550
2020/01/31 18:16:30.4	355.550	-0.190	-1.230	-0.560
2020/01/31 18:16:30.5	355.570	-0.170	-1.240	-0.560
2020/01/31 18:16:30.6	355.600	-0.140	-1.230	-0.560
2020/01/31 18:16:30.7	355.620	-0.120	-1.220	-0.560
2020/01/31 18:16:30.8	355.650	-0.100	-1.190	-0.550
2020/01/31 18:16:30.9	355.670	-0.070	-1.160	-0.540
2020/01/31 18:16:31.0	355.690	-0.050	-1.130	-0.530
2020/01/31 18:16:31.1	355.710	-0.030	-1.080	-0.510
2020/01/31 18:16:31.2	355.730	-0.010	-1.020	-0.480
2020/01/31 18:16:31.3	355.740	0.010	-0.960	-0.450
2020/01/31 18:16:31.4	355.760	0.030	-0.890	-0.420
2020/01/31 18:16:31.5	355.770	0.050	-0.810	-0.380
2020/01/31 18:16:31.6	355.780	0.060	-0.730	-0.330
2020/01/31 18:16:31.7	355.790	0.080	-0.650	-0.290
2020/01/31 18:16:31.8	355.800	0.090	-0.560	-0.230
2020/01/31 18:16:31.9	355.800	0.100	-0.460	-0.180
2020/01/31 18:16:32.0	355.800	0.110	-0.370	-0.120
2020/01/31 18:16:32.1	355.810	0.120	-0.270	-0.060
2020/01/31 18:16:32.2	355.810	0.130	-0.170	0.000
2020/01/31 18:16:32.3	355.810	0.130	-0.080	0.060
2020/01/31 18:16:32.4	355.810	0.140	0.020	0.130
2020/01/31 18:16:32.5	355.800	0.140	0.110	0.190
2020/01/31 18:16:32.6	355.800	0.140	0.200	0.250
2020/01/31 18:16:32.7	355.800	0.140	0.280	0.310
2020/01/31 18:16:32.8	355.800	0.140	0.360	0.380
2020/01/31 18:16:32.9	355.790	0.140	0.430	0.440
2020/01/31 18:16:33.0	355.790	0.140	0.500	0.490
2020/01/31 18:16:33.1	355.780	0.140	0.560	0.550
2020/01/31 18:16:33.2	355.780	0.140	0.610	0.600
2020/01/31 18:16:33.3	355.770	0.140	0.660	0.650
2020/01/31 18:16:33.4	355.770	0.130	0.700	0.690
2020/01/31 18:16:33.5	355.760	0.130	0.720	0.740
2020/01/31 18:16:33.6	355.760	0.130	0.740	0.780
2020/01/31 18:16:33.7	355.750	0.120	0.760	0.810
2020/01/31 18:16:33.8	355.740	0.120	0.760	0.840
2020/01/31 18:16:33.9	355.740	0.120	0.760	0.870
2020/01/31 18:16:34.0	355.730	0.120	0.750	0.900
2020/01/31 18:16:34.1	355.730	0.110	0.740	0.920
2020/01/31 18:16:34.2	355.720	0.110	0.710	0.940
2020/01/31 18:16:34.3	355.710	0.110	0.690	0.960
2020/01/31 18:16:34.4	355.700	0.110	0.650	0.970
2020/01/31 18:16:34.5	355.690	0.110	0.610	0.980
2020/01/31 18:16:34.6	355.680	0.110	0.570	0.990
2020/01/31 18:16:34.7	355.670	0.110	0.530	0.990
2020/01/31 18:16:34.8	355.660	0.110	0.480	0.980
2020/01/31 18:16:34.9	355.650	0.110	0.420	0.980
2020/01/31 18:16:35.0	355.640	0.100	0.370	0.970
2020/01/31 18:16:35.1	355.630	0.100	0.320	0.950
2020/01/31 18:16:35.2	355.620	0.100	0.260	0.930
2020/01/31 18:16:35.3	355.600	0.100	0.200	0.910
2020/01/31 18:16:35.4	355.590	0.100	0.150	0.890
2020/01/31 18:16:35.5	355.580	0.100	0.090	0.860
2020/01/31 18:16:35.6	355.570	0.100	0.040	0.820
2020/01/31 18:16:35.7	355.560	0.100	-0.020	0.790
2020/01/31 18:16:35.8	355.550	0.090	-0.070	0.740
2020/01/31 18:16:35.9	355.540	0.090	-0.120	0.700
2020/01/31 18:16:36.0	355.530	0.090	-0.170	0.660
2020/01/31 18:16:36.1	355.520	0.080	-0.210	0.610
2020/01/31 18:16:36.2	355.510	0.080	-0.250	0.570
2020/01/31 18:16:36.3	355.500	0.080	-0.290	0.520
2020/01/31 18:16:36.4	355.490	0.070	-0.330	0.470
2020/01/31 18:16:36.5	355.470	0.060	-0.360	0.420
2020/01/31 18:16:36.6	355.460	0.060	-0.390	0.370
2020/01/31 18:16:36.7	355.450	0.050	-0.420	0.330
2020/01/31 18:16:36.8	355.450	0.040	-0.440	0.280
2020/01/31 18:16:36.9	355.440	0.030	-0.460	0.230
2020/01/31 18:16:37.0	355.430	0.030	-0.480	0.180
2020/01/31 18:16:37.1	355.420	0.020	-0.490	0.140
2020/01/31 18:16:37.2	355.410	0.010	-0.510	0.090
2020/01/31 18:16:37.3	355.400	-0.000	-0.520	0.050
2020/01/31 18:16:37.4	355.400	-0.010	-0.530	0.000
2020/01/31 18:16:37.5	355.390	-0.020	-0.530	-0.040
2020/01/31 18:16:37.6	355.390	-0.040	-0.540	-0.090
2020/01/31 18:16:37.7	355.380	-0.050	-0.550	-0.140
2020/01/31 18:16:37.8	355.380	-0.060	-0.550	-0.180
2020/01/31 18:16:37.9	355.380	-0.070	-0.560	-0.230
2020/01/31 18:16:38.0	355.380	-0.070	-0.560	-0.280
2020/01/31 18:16:38.1	355.380	-0.080	-0.570	-0.320
2020/01/31 18:16:38.2	355.390	-0.090	-0.580	-0.370
2020/01/31 18:16:38.3	355.390	-0.100	-0.590	-0.420
2020/01/31 18:16:38.4	355.390	-0.110	-0.600	-0.460
2020/01/31 18:16:38.5	355.400	-0.110	-0.610	-0.510
2020/01/31 18:16:38.6	355.410	-0.120	-0.620	-0.550
2020/01/31 18:16:38.7	355.410	-0.120	-0.630	-0.600
2020/01/31 18:16:38.8	355.420	-0.130	-0.640	-0.640
2020/01/31 18:16:38.9	355.430	-0.130	-0.660	-0.680
2020/01/31 18:16:39.0	355.430	-0.130	-0.670	-0.720
2020/01/31 18:16:39.1	355.440	-0.140	-0.680	-0.750
2020/01/31 18:16:39.2	355.440	-0.140	-0.700	-0.790
2020/01/31 18:16:39.3	355.450	-0.130	-0.710	-0.820
2020/01/31 18:16:39.4	355.450	-0.130	-0.720	-0.840
2020/01/31 18:16:39.5	355.450	-0.130	-0.740	-0.870
2020/01/31 18:16:39.6	355.460	-0.130	-0.750	-0.890
2020/01/31 18:16:39.7	355.460	-0.120	-0.760	-0.910
2020/01/31 18:16:39.8	355.460	-0.120	-0.770	-0.930
2020/01/31 18:16:39.9	355.460	-0.110	-0.770	-0.930
2020/01/31 18:16:40.0	355.460	-0.100	-0.780	-0.940
2020/01/31 18:16:40.1	355.450	-0.090	-0.780	-0.940
2020/01/31 18:16:40.2	355.450	-0.080	-0.770	-0.930
2020/01/31 18:16:40.3	355.450	-0.080	-0.770	-0.920
2020/01/31 18:16:40.4	355.450	-0.070	-0.760	-0.910
2020/01/31 18:16:40.5	355.440	-0.060	-0.750	-0.890
2020/01/31 18:16:40.6	355.440	-0.050	-0.740	-0.880
2020/01/31 18:16:40.7	355.440	-0.040	-0.720	-0.850
2020/01/31 18:16:40.8	355.440	-0.030	-0.700	-0.830
2020/01/31 18:16:40.9	355.440	-0.020	-0.670	-0.800
2020/01/31 18:16:41.0	355.440	-0.010	-0.650	-0.780
2020/01/31 18:16:41.1	355.440	0.000	-0.620	-0.750
2020/01/31 18:16:41.2	355.440	0.010	-0.590	-0.720
2020/01/31 18:16:41.3	355.440	0.020	-0.560	-0.700
2020/01/31 18:16:41.4	355.440	0.030	-0.520	-0.670
2020/01/31 18:16:41.5	355.440	0.030	-0.490	-0.640
2020/01/31 18:16:41.6	355.450	0.040	-0.450	-0.610
2020/01/31 18:16:41.7	355.450	0.050	-0.410	-0.580
2020/01/31 18:16:41.8	355.460	0.050	-0.370	-0.550
2020/01/31 18:16:41.9	355.460	0.060	-0.330	-0.520
2020/01/31 18:16:42.0	355.470	0.060	-0.290	-0.490
2020/01/31 18:16:42.1	355.470	0.060	-0.250	-0.450
2020/01/31 18:16:42.2	355.480	0.070	-0.210	-0.410
2020/01/31 18:16:42.3	355.490	0.070	-0.170	-0.370
2020/01/31 18:16:42.4	355.490	0.070	-0.130	-0.330
2020/01/31 18:16:42.5	355.490	0.070	-0.090	-0.290
2020/01/31 18:16:42.6	355.500	0.070	-0.050	-0.240
2020/01/31 18:16:42.7	355.500	0.080	-0.010	-0.190
2020/01/31 18:16:42.8	355.510	0.070	0.030	-0.140
2020/01/31 18:16:42.9	355.510	0.070	0.070	-0.090
2020/01/31 18:16:43.0	355.510	0.070	0.110	-0.040
2020/01/31 18:16:43.1	355.510	0.070	0.140	0.010
2020/01/31 18:16:43.2	355.510	0.070	0.170	0.060
2020/01/31 18:16:43.3	355.520	0.070	0.200	0.100
2020/01/31 18:16:43.4	355.520	0.070	0.220	0.150
2020/01/31 18:16:43.5	355.520	0.070	0.250	0.190
2020/01/31 18:16:43.6	355.520	0.070	0.260	0.230
2020/01/31 18:16:43.7	355.530	0.070	0.280	0.270
2020/01/31 18:16:43.8	355.530	0.070	0.280	0.310
2020/01/31 18:16:43.9	355.530	0.070	0.280	0.340
2020/01/31 18:16:44.0	355.540	0.080	0.280	0.380
2020/01/31 18:16:44.1	355.540	0.080	0.280	0.410
2020/01/31 18:16:44.2	355.550	0.090	0.270	0.440
2020/01/31 18:16:44.3	355.550	0.090	0.260	0.470
2020/01/31 18:16:44.4	355.550	0.100	0.250	0.500
2020/01/31 18:16:44.5	355.540	0.110	0.230	0.530
2020/01/31 18:16:44.6	355.540	0.120	0.220	0.560
2020/01/31 18:16:44.7	355.530	0.130	0.200	0.590
2020/01/31 18:16:44.8	355.520	0.140	0.180	0.620
2020/01/31 18:16:44.9	355.530	0.150	0.160	0.650
2020/01/31 18:16:45.0	355.510	0.160	0.130	0.680
2020/01/31 18:16:45.1	355.490	0.170	0.110	0.710
2020/01/31 18:16:45.2	355.470	0.180	0.090	0.740
2020/01/31 18:16:45.3	355.450	0.190	0.060	0.760
2020/01/31 18:16:45.4	355.420	0.200	0.040	0.790
2020/01/31 18:16:45.5	355.390	0.210	0.020	0.810
2020/01/31 18:16:45.6	355.360	0.220	-0.000	0.830
2020/01/31 18:16:45.7	355.320	0.230	-0.020	0.850
2020/01/31 18:16:45.8	355.280	0.240	-0.040	0.870
2020/01/31 18:16:45.9	355.240	0.240	-0.050	0.880
2020/01/31 18:16:46.0	355.200	0.250	-0.070	0.890
2020/01/31 18:16:46.1	355.160	0.250	-0.080	0.890
2020/01/31 18:16:46.2	355.120	0.250	-0.090	0.890
2020/01/31 18:16:46.3	355.070	0.250	-0.100	0.890
2020/01/31 18:16:46.4	355.030	0.250	-0.110	0.880
2020/01/31 18:16:46.5	354.980	0.240	-0.120	0.870
2020/01/31 18:16:46.6	354.930	0.230	-0.120	0.850
2020/01/31 18:16:46.7	354.880	0.220	-0.130	0.830
2020/01/31 18:16:46.8	354.830	0.210	-0.130	0.800
2020/01/31 18:16:46.9	354.780	0.190	-0.130	0.770
2020/01/31 18:16:47.0	354.730	0.180	-0.140	0.730
2020/01/31 18:16:47.1	354.690	0.160	-0.140	0.700
2020/01/31 18:16:47.2	354.640	0.130	-0.140	0.650
2020/01/31 18:16:47.3	354.600	0.110	-0.150	0.610
2020/01/31 18:16:47.4	354.560	0.080	-0.160	0.560
2020/01/31 18:16:47.5	354.520	0.050	-0.160	0.510
2020/01/31 18:16:47.6	354.480	0.030	-0.180	0.450
2020/01/31 18:16:47.7	354.450	-0.010	-0.190	0.390
2020/01/31 18:16:47.8	354.430	-0.040	-0.210	0.330
2020/01/31 18:16:47.9	354.410	-0.070	-0.230	0.260
2020/01/31 18:16:48.0	354.390	-0.100	-0.250	0.190
2020/01/31 18:16:48.1	354.380	-0.130	-0.280	0.120
2020/01/31 18:16:48.2	354.380	-0.170	-0.320	0.050
2020/01/31 18:16:48.3	354.380	-0.200	-0.350	-0.030
2020/01/31 18:16:48.4	354.390	-0.230	-0.400	-0.110
2020/01/31 18:16:48.5	354.400	-0.250	-0.440	-0.200
2020/01/31 18:16:48.6	354.420	-0.280	-0.490	-0.280
2020/01/31 18:16:48.7	354.450	-0.300	-0.540	-0.370
2020/01/31 18:16:48.8	354.490	-0.320	-0.590	-0.460
2020/01/31 18:16:48.9	354.540	-0.340	-0.650	-0.550
2020/01/31 18:16:49.0	354.580	-0.360	-0.710	-0.650
2020/01/31 18:16:49.1	354.630	-0.370	-0.760	-0.740
2020/01/31 18:16:49.2	354.690	-0.390	-0.820	-0.830
2020/01/31 18:16:49.3	354.740	-0.390	-0.880	-0.920
2020/01/31 18:16:49.4	354.810	-0.400	-0.930	-1.020
2020/01/31 18:16:49.5	354.870	-0.400	-0.990	-1.110
2020/01/31 18:16:49.6	354.940	-0.410	-1.040	-1.190
2020/01/31 18:16:49.7	355.010	-0.410	-1.080	-1.280
2020/01/31 18:16:49.8	355.080	-0.400	-1.120	-1.360
2020/01/31 18:16:49.9	355.150	-0.400	-1.160	-1.440
2020/01/31 18:16:50.0	355.220	-0.390	-1.180	-1.510
2020/01/31 18:16:50.1	355.290	-0.380	-1.200	-1.580
2020/01/31 18:16:50.2	355.360	-0.370	-1.200	-1.630
2020/01/31 18:16:50.3	355.430	-0.360	-1.200	-1.680
2020/01/31 18:16:50.4	355.490	-0.350	-1.190	-1.720
2020/01/31 18:16:50.5	355.550	-0.330	-1.160	-1.750
2020/01/31 18:16:50.6	355.600	-0.320	-1.120	-1.770
2020/01/31 18:16:50.7	355.650	-0.300	-1.080	-1.780
2020/01/31 18:16:50.8	355.690	-0.280	-1.020	-1.780
2020/01/31 18:16:50.9	355.730	-0.260	-0.950	-1.770
2020/01/31 18:16:51.0	355.760	-0.250	-0.880	-1.750
2020/01/31 18:16:51.1	355.780	-0.230	-0.790	-1.710
2020/01/31 18:16:51.2	355.800	-0.210	-0.700	-1.670
2020/01/31 18:16:51.3	355.820	-0.190	-0.600	-1.610
2020/01/31 18:16:51.4	355.820	-0.180	-0.500	-1.550
2020/01/31 18:16:51.5	355.820	-0.160	-0.390	-1.480
2020/01/31 18:16:51.6	355.820	-0.150	-0.290	-1.400
2020/01/31 18:16:51.7	355.810	-0.130	-0.180	-1.310
2020/01/31 18:16:51.8	355.780	-0.120	-0.070	-1.210
2020/01/31 18:16:51.9	355.760	-0.110	0.040	-1.120
2020/01/31 18:16:52.0	355.730	-0.100	0.140	-1.020
2020/01/31 18:16:52.1	355.700	-0.090	0.240	-0.920
2020/01/31 18:16:52.2	355.670	-0.090	0.330	-0.820
2020/01/31 18:16:52.3	355.630	-0.080	0.420	-0.720
2020/01/31 18:16:52.4	355.580	-0.080	0.500	-0.620
2020/01/31 18:16:52.5	355.540	-0.070	0.570	-0.520
2020/01/31 18:16:52.6	355.490	-0.070	0.630	-0.420
2020/01/31 18:16:52.7	355.440	-0.070	0.690	-0.330
2020/01/31 18:16:52.8	355.390	-0.070	0.730	-0.240
2020/01/31 18:16:52.9	355.330	-0.060	0.760	-0.150
2020/01/31 18:16:53.0	355.280	-0.060	0.780	-0.070
2020/01/31 18:16:53.1	355.230	-0.060	0.800	0.010
2020/01/31 18:16:53.2	355.180	-0.050	0.800	0.080
2020/01/31 18:16:53.3	355.140	-0.050	0.790	0.150
2020/01/31 18:16:53.4	355.090	-0.040	0.770	0.210
2020/01/31 18:16:53.5	355.050	-0.040	0.740	0.270
2020/01/31 18:16:53.6	355.010	-0.030	0.710	0.330
2020/01/31 18:16:53.7	354.970	-0.010	0.660	0.370
2020/01/31 18:16:53.8	354.950	0.000	0.610	0.410
2020/01/31 18:16:53.9	354.920	0.020	0.550	0.450
2020/01/31 18:16:54.0	354.890	0.040	0.480	0.480
2020/01/31 18:16:54.1	354.860	0.060	0.410	0.510
2020/01/31 18:16:54.2	354.830	0.080	0.330	0.530
2020/01/31 18:16:54.3	354.810	0.100	0.250	0.550
2020/01/31 18:16:54.4	354.790	0.130	0.170	0.560
2020/01/31 18:16:54.5	354.780	0.160	0.080	0.570
2020/01/31 18:16:54.6	354.760	0.190	-0.000	0.580
2020/01/31 18:16:54.7	354.750	0.220	-0.090	0.580
2020/01/31 18:16:54.8	354.740	0.250	-0.180	0.580
2020/01/31 18:16:54.9	354.730	0.280	-0.260	0.570
2020/01/31 18:16:55.0	354.730	0.310	-0.350	0.570
2020/01/31 18:16:55.1	354.730	0.340	-0.430	0.560
2020/01/31 18:16:55.2	354.730	0.370	-0.500	0.540
2020/01/31 18:16:55.3	354.730	0.400	-0.570	0.530
2020/01/31 18:16:55.4	354.730	0.430	-0.640	0.510
2020/01/31 18:16:55.5	354.730	0.450	-0.700	0.490
2020/01/31 18:16:55.6	354.740	0.470	-0.760	0.460
2020/01/31 18:16:55.7	354.740	0.490	-0.800	0.440
2020/01/31 18:16:55.8	354.750	0.500	-0.840	0.410
2020/01/31 18:16:55.9	354.750	0.510	-0.880	0.380
2020/01/31 18:16:56.0	354.750	0.520	-0.900	0.350
2020/01/31 18:16:56.1	354.760	0.520	-0.920	0.320
2020/01/31 18:16:56.2	354.760	0.520	-0.920	0.290
2020/01/31 18:16:56.3	354.770	0.510	-0.920	0.250
2020/01/31 18:16:56.4	354.770	0.500	-0.910	0.220
2020/01/31 18:16:56.5	354.770	0.480	-0.900	0.190
2020/01/31 18:16:56.6	354.780	0.460	-0.880	0.160
2020/01/31 18:16:56.7	354.780	0.440	-0.850	0.130
2020/01/31 18:16:56.8	354.780	0.410	-0.810	0.100
2020/01/31 18:16:56.9	354.790	0.380	-0.770	0.070
2020/01/31 18:16:57.0	354.790	0.340	-0.720	0.040
2020/01/31 18:16:57.1	354.800	0.300	-0.670	0.000
2020/01/31 18:16:57.2	354.810	0.250	-0.620	-0.030
2020/01/31 18:16:57.3	354.820	0.210	-0.560	-0.060
2020/01/31 18:16:57.4	354.830	0.160	-0.510	-0.090
2020/01/31 18:16:57.5	354.840	0.110	-0.460	-0.130
2020/01/31 18:16:57.6	354.860	0.060	-0.400	-0.160
2020/01/31 18:16:57.7	354.880	0.000	-0.350	-0.200
2020/01/31 18:16:57.8	354.900	-0.050	-0.310	-0.250
2020/01/31 18:16:57.9	354.930	-0.100	-0.260	-0.290
2020/01/31 18:16:58.0	354.960	-0.150	-0.220	-0.330
2020/01/31 18:16:58.1	354.990	-0.200	-0.190	-0.380
2020/01/31 18:16:58.2	355.030	-0.250	-0.160	-0.430
2020/01/31 18:16:58.3	355.070	-0.300	-0.140	-0.480
2020/01/31 18:16:58.4	355.120	-0.340	-0.130	-0.530
2020/01/31 18:16:58.5	355.160	-0.380	-0.120	-0.580
2020/01/31 18:16:58.6	355.210	-0.420	-0.110	-0.630
2020/01/31 18:16:58.7	355.260	-0.450	-0.110	-0.690
2020/01/31 18:16:58.8	355.300	-0.480	-0.120	-0.740
2020/01/31 18:16:58.9	355.350	-0.500	-0.130	-0.780
2020/01/31 18:16:59.0	355.400	-0.520	-0.140	-0.830
2020/01/31 18:16:59.1	355.450	-0.540	-0.160	-0.870
2020/01/31 18:16:59.2	355.500	-0.550	-0.170	-0.900
2020/01/31 18:16:59.3	355.540	-0.560	-0.190	-0.930
2020/01/31 18:16:59.4	355.590	-0.560	-0.210	-0.960
2020/01/31 18:16:59.5	355.630	-0.560	-0.220	-0.970
2020/01/31 18:16:59.6	355.660	-0.560	-0.240	-0.990
2020/01/31 18:16:59.7	355.690	-0.550	-0.250	-0.990
2020/01/31 18:16:59.8	355.720	-0.540	-0.260	-1.000
2020/01/31 18:16:59.9	355.740	-0.520	-0.270	-0.990
2020/01/31 18:17:00.0	355.760	-0.510	-0.270	-0.980
2020/01/31 18:17:00.1	355.770	-0.490	-0.270	-0.960
2020/01/31 18:17:00.2	355.780	-0.460	-0.270	-0.940
2020/01/31 18:17:00.3	355.790	-0.440	-0.270	-0.910
2020/01/31 18:17:00.4	355.790	-0.410	-0.260	-0.870
2020/01/31 18:17:00.5	355.790	-0.390	-0.250	-0.830
2020/01/31 18:17:00.6	355.780	-0.360	-0.230	-0.790
2020/01/31 18:17:00.7	355.760	-0.330	-0.220	-0.740
2020/01/31 18:17:00.8	355.760	-0.300	-0.200	-0.680
2020/01/31 18:17:00.9	355.740	-0.270	-0.170	-0.630
2020/01/31 18:17:01.0	355.710	-0.230	-0.150	-0.570
2020/01/31 18:17:01.1	355.690	-0.200	-0.120	-0.500
2020/01/31 18:17:01.2	355.660	-0.170	-0.090	-0.430
2020/01/31 18:17:01.3	355.620	-0.140	-0.060	-0.360
2020/01/31 18:17:01.4	355.590	-0.110	-0.030	-0.290
2020/01/31 18:17:01.5	355.550	-0.090	-0.000	-0.210
2020/01/31 18:17:01.6	355.520	-0.060	0.030	-0.140
2020/01/31 18:17:01.7	355.480	-0.030	0.050	-0.060
2020/01/31 18:17:01.8	355.440	-0.010	0.080	0.020
2020/01/31 18:17:01.9	355.400	0.010	0.100	0.090
2020/01/31 18:17:02.0	355.360	0.030	0.120	0.160
2020/01/31 18:17:02.1	355.320	0.050	0.130	0.230
2020/01/31 18:17:02.2	355.280	0.070	0.140	0.300
2020/01/31 18:17:02.3	355.230	0.090	0.150	0.360
2020/01/31 18:17:02.4	355.190	0.100	0.150	0.430
2020/01/31 18:17:02.5	355.150	0.110	0.150	0.480
2020/01/31 18:17:02.6	355.110	0.120	0.150	0.530
2020/01/31 18:17:02.7	355.070	0.130	0.140	0.580
2020/01/31 18:17:02.8	355.040	0.140	0.120	0.610
2020/01/31 18:17:02.9	355.000	0.140	0.110	0.640
2020/01/31 18:17:03.0	354.960	0.150	0.090	0.670
2020/01/31 18:17:03.1	354.930	0.150	0.060	0.690
2020/01/31 18:17:03.2	354.890	0.150	0.040	0.700
2020/01/31 18:17:03.3	354.860	0.150	0.000	0.700
2020/01/31 18:17:03.4	354.840	0.140	-0.030	0.700
2020/01/31 18:17:03.5	354.810	0.140	-0.070	0.690
2020/01/31 18:17:03.6	354.790	0.140	-0.110	0.680
2020/01/31 18:17:03.7	354.770	0.130	-0.160	0.660
2020/01/31 18:17:03.8	354.760	0.130	-0.200	0.630
2020/01/31 18:17:03.9	354.740	0.120	-0.250	0.600
2020/01/31 18:17:04.0	354.730	0.120	-0.300	0.560
2020/01/31 18:17:04.1	354.720	0.120	-0.360	0.530
2020/01/31 18:17:04.2	354.720	0.120	-0.410	0.490
2020/01/31 18:17:04.3	354.720	0.120	-0.460	0.440
2020/01/31 18:17:04.4	354.720	0.120	-0.520	0.400
2020/01/31 18:17:04.5	354.720	0.120	-0.570	0.350
2020/01/31 18:17:04.6	354.730	0.120	-0.620	0.300
2020/01/31 18:17:04.7	354.740	0.130	-0.660	0.250
2020/01/31 18:17:04.8	354.740	0.130	-0.710	0.200
2020/01/31 18:17:04.9	354.760	0.140	-0.750	0.140
2020/01/31 18:17:05.0	354.780	0.160	-0.790	0.090
2020/01/31 18:17:05.1	354.810	0.170	-0.820	0.040
2020/01/31 18:17:05.2	354.840	0.190	-0.850	-0.010
2020/01/31 18:17:05.3	354.870	0.200	-0.880	-0.070
2020/01/31 18:17:05.4	354.900	0.220	-0.900	-0.120
2020/01/31 18:17:05.5	354.940	0.250	-0.910	-0.180
2020/01/31 18:17:05.6	354.980	0.270	-0.920	-0.230
2020/01/31 18:17:05.7	355.030	0.290	-0.930	-0.280
2020/01/31 18:17:05.8	355.070	0.320	-0.930	-0.330
2020/01/31 18:17:05.9	355.110	0.350	-0.920	-0.380
2020/01/31 18:17:06.0	355.160	0.370	-0.910	-0.420
2020/01/31 18:17:06.1	355.210	0.400	-0.900	-0.460
2020/01/31 18:17:06.2	355.260	0.430	-0.880	-0.500
2020/01/31 18:17:06.3	355.300	0.450	-0.850	-0.530
2020/01/31 18:17:06.4	355.340	0.470	-0.820	-0.550
2020/01/31 18:17:06.5	355.380	0.490	-0.790	-0.570
2020/01/31 18:17:06.6	355.410	0.510	-0.750	-0.580
2020/01/31 18:17:06.7	355.440	0.520	-0.700	-0.590
2020/01/31 18:17:06.8	355.470	0.530	-0.660	-0.600
2020/01/31 18:17:06.9	355.500	0.530	-0.610	-0.600
2020/01/31 18:17:07.0	355.520	0.540	-0.550	-0.600
2020/01/31 18:17:07.1	355.530	0.530	-0.500	-0.590
2020/01/31 18:17:07.2	355.550	0.520	-0.440	-0.590
2020/01/31 18:17:07.3	355.560	0.510	-0.390	-0.580
2020/01/31 18:17:07.4	355.570	0.490	-0.330	-0.570
2020/01/31 18:17:07.5	355.570	0.470	-0.270	-0.570
2020/01/31 18:17:07.6	355.580	0.440	-0.220	-0.560
2020/01/31 18:17:07.7	355.580	0.410	-0.160	-0.560
2020/01/31 18:17:07.8	355.580	0.370	-0.110	-0.550
2020/01/31 18:17:07.9	355.590	0.330	-0.060	-0.550
2020/01/31 18:17:08.0	355.590	0.290	-0.010	-0.550
2020/01/31 18:17:08.1	355.590	0.240	0.030	-0.550
2020/01/31 18:17:08.2	355.590	0.190	0.070	-0.560
2020/01/31 18:17:08.3	355.590	0.140	0.110	-0.560
2020/01/31 18:17:08.4	355.590	0.090	0.140	-0.570
2020/01/31 18:17:08.5	355.590	0.030	0.170	-0.580
2020/01/31 18:17:08.6	355.600	-0.020	0.200	-0.590
2020/01/31 18:17:08.7	355.600	-0.080	0.220	-0.610
2020/01/31 18:17:08.8	355.610	-0.140	0.240	-0.620
2020/01/31 18:17:08.9	355.610	-0.190	0.250	-0.640
2020/01/31 18:17:09.0	355.620	-0.250	0.260	-0.660
2020/01/31 18:17:09.1	355.620	-0.300	0.270	-0.670
2020/01/31 18:17:09.2	355.630	-0.350	0.270	-0.690
2020/01/31 18:17:09.3	355.630	-0.400	0.280	-0.710
2020/01/31 18:17:09.4	355.630	-0.450	0.280	-0.720
2020/01/31 18:17:09.5	355.630	-0.500	0.280	-0.740
2020/01/31 18:17:09.6	355.620	-0.540	0.280	-0.750
2020/01/31 18:17:09.7	355.620	-0.580	0.280	-0.760
2020/01/31 18:17:09.8	355.610	-0.620	0.280	-0.760
2020/01/31 18:17:09.9	355.610	-0.650	0.280	-0.770
2020/01/31 18:17:10.0	355.590	-0.680	0.290	-0.770
2020/01/31 18:17:10.1	355.570	-0.710	0.290	-0.770
2020/01/31 18:17:10.2	355.550	-0.740	0.300	-0.770
2020/01/31 18:17:10.3	355.530	-0.760	0.300	-0.770
2020/01/31 18:17:10.4	355.500	-0.780	0.310	-0.760
2020/01/31 18:17:10.5	355.480	-0.790	0.320	-0.750
2020/01/31 18:17:10.6	355.450	-0.800	0.330	-0.740
2020/01/31 18:17:10.7	355.420	-0.810	0.330	-0.730
2020/01/31 18:17:10.8	355.400	-0.820	0.340	-0.720
2020/01/31 18:17:10.9	355.360	-0.820	0.350	-0.700
2020/01/31 18:17:11.0	355.330	-0.810	0.350	-0.680
2020/01/31 18:17:11.1	355.290	-0.810	0.360	-0.670
2020/01/31 18:17:11.2	355.250	-0.800	0.350	-0.650
2020/01/31 18:17:11.3	355.210	-0.790	0.350	-0.630
2020/01/31 18:17:11.4	355.180	-0.780	0.350	-0.610
2020/01/31 18:17:11.5	355.140	-0.760	0.340	-0.580
2020/01/31 18:17:11.6	355.100	-0.740	0.320	-0.560
2020/01/31 18:17:11.7	355.070	-0.720	0.300	-0.530
2020/01/31 18:17:11.8	355.020	-0.690	0.280	-0.510
2020/01/31 18:17:11.9	354.990	-0.660	0.250	-0.490
2020/01/31 18:17:12.0	354.960	-0.630	0.220	-0.460
2020/01/31 18:17:12.1	354.920	-0.590	0.180	-0.430
2020/01/31 18:17:12.2	354.890	-0.560	0.140	-0.400
2020/01/31 18:17:12.3	354.860	-0.520	0.100	-0.370
2020/01/31 18:17:12.4	354.830	-0.480	0.050	-0.340
2020/01/31 18:17:12.5	354.810	-0.430	-0.010	-0.310
2020/01/31 18:17:12.6	354.780	-0.390	-0.060	-0.280
2020/01/31 18:17:12.7	354.760	-0.340	-0.120	-0.250
2020/01/31 18:17:12.8	354.730	-0.290	-0.190	-0.210
2020/01/31 18:17:12.9	354.710	-0.240	-0.250	-0.180
2020/01/31 18:17:13.0	354.690	-0.190	-0.320	-0.150
2020/01/31 18:17:13.1	354.680	-0.140	-0.390	-0.120
2020/01/31 18:17:13.2	354.660	-0.090	-0.450	-0.080
2020/01/31 18:17:13.3	354.640	-0.030	-0.520	-0.050
2020/01/31 18:17:13.4	354.630	0.020	-0.590	-0.020
2020/01/31 18:17:13.5	354.620	0.070	-0.660	0.020
2020/01/31 18:17:13.6	354.610	0.130	-0.720	0.050
2020/01/31 18:17:13.7	354.600	0.180	-0.790	0.080
2020/01/31 18:17:13.8	354.610	0.230	-0.850	0.110
2020/01/31 18:17:13.9	354.610	0.280	-0.900	0.140
2020/01/31 18:17:14.0	354.610	0.330	-0.950	0.160
2020/01/31 18:17:14.1	354.610	0.380	-1.000	0.190
2020/01/31 18:17:14.2	354.610	0.430	-1.040	0.220
2020/01/31 18:17:14.3	354.620	0.480	-1.080	0.240
2020/01/31 18:17:14.4	354.630	0.520	-1.110	0.260
2020/01/31 18:17:14.5	354.640	0.560	-1.140	0.280
2020/01/31 18:17:14.6	354.650	0.600	-1.160	0.300
2020/01/31 18:17:14.7	354.670	0.640	-1.170	0.320
2020/01/31 18:17:14.8	354.670	0.680	-1.180	0.330
2020/01/31 18:17:14.9	354.690	0.710	-1.190	0.340
2020/01/31 18:17:15.0	354.720	0.740	-1.190	0.350
2020/01/31 18:17:15.1	354.740	0.770	-1.190	0.350
2020/01/31 18:17:15.2	354.780	0.790	-1.180	0.360
2020/01/31 18:17:15.3	354.810	0.810	-1.160	0.360
2020/01/31 18:17:15.4	354.850	0.830	-1.150	0.350
2020/01/31 18:17:15.5	354.880	0.840	-1.130	0.350
2020/01/31 18:17:15.6	354.920	0.850	-1.100	0.340
2020/01/31 18:17:15.7	354.970	0.860	-1.070	0.330
2020/01/31 18:17:15.8	355.000	0.860	-1.040	0.320
2020/01/31 18:17:15.9	355.040	0.860	-1.000	0.310
2020/01/31 18:17:16.0	355.080	0.850	-0.960	0.300
2020/01/31 18:17:16.1	355.120	0.840	-0.910	0.290
2020/01/31 18:17:16.2	355.160	0.830	-0.860	0.280
2020/01/31 18:17:16.3	355.200	0.810	-0.810	0.270
2020/01/31 18:17:16.4	355.240	0.780	-0.760	0.260
2020/01/31 18:17:16.5	355.270	0.750	-0.700	0.250
2020/01/31 18:17:16.6	355.300	0.720	-0.640	0.240
2020/01/31 18:17:16.7	355.320	0.690	-0.570	0.230
2020/01/31 18:17:16.8	355.350	0.640	-0.510	0.220
2020/01/31 18:17:16.9	355.380	0.600	-0.450	0.210
2020/01/31 18:17:17.0	355.390	0.550	-0.380	0.200
2020/01/31 18:17:17.1	355.410	0.500	-0.310	0.180
2020/01/31 18:17:17.2	355.420	0.450	-0.250	0.160
2020/01/31 18:17:17.3	355.430	0.390	-0.180	0.140
2020/01/31 18:17:17.4	355.430	0.330	-0.120	0.110
2020/01/31 18:17:17.5	355.440	0.270	-0.060	0.080
2020/01/31 18:17:17.6	355.440	0.200	-0.000	0.050
2020/01/31 18:17:17.7	355.440	0.140	0.050	0.010
2020/01/31 18:17:17.8	355.440	0.070	0.110	-0.030
2020/01/31 18:17:17.9	355.440	0.010	0.160	-0.070
2020/01/31 18:17:18.0	355.430	-0.060	0.200	-0.110
2020/01/31 18:17:18.1	355.430	-0.120	0.240	-0.150
2020/01/31 18:17:18.2	355.420	-0.180	0.280	-0.200
2020/01/31 18:17:18.3	355.420	-0.240	0.310	-0.240
2020/01/31 18:17:18.4	355.410	-0.300	0.340	-0.280
2020/01/31 18:17:18.5	355.400	-0.360	0.370	-0.330
2020/01/31 18:17:18.6	355.390	-0.410	0.380	-0.370
2020/01/31 18:17:18.7	355.380	-0.460	0.400	-0.400
2020/01/31 18:17:18.8	355.380	-0.500	0.400	-0.440
2020/01/31 18:17:18.9	355.370	-0.540	0.410	-0.470
2020/01/31 18:17:19.0	355.360	-0.580	0.410	-0.510
2020/01/31 18:17:19.1	355.340	-0.610	0.410	-0.530
2020/01/31 18:17:19.2	355.330	-0.630	0.400	-0.560
2020/01/31 18:17:19.3	355.320	-0.660	0.390	-0.580
2020/01/31 18:17:19.4	355.300	-0.670	0.380	-0.600
2020/01/31 18:17:19.5	355.290	-0.680	0.360	-0.610
2020/01/31 18:17:19.6	355.270	-0.690	0.340	-0.620
2020/01/31 18:17:19.7	355.250	-0.690	0.320	-0.630
2020/01/31 18:17:19.8	355.230	-0.690	0.300	-0.640
2020/01/31 18:17:19.9	355.210	-0.680	0.280	-0.640
2020/01/31 18:17:20.0	355.190	-0.670	0.250	-0.640
2020/01/31 18:17:20.1	355.170	-0.650	0.220	-0.640
2020/01/31 18:17:20.2	355.140	-0.630	0.190	-0.630
2020/01/31 18:17:20.3	355.120	-0.600	0.160	-0.620
2020/01/31 18:17:20.4	355.090	-0.570	0.130	-0.610
2020/01/31 18:17:20.5	355.070	-0.540	0.100	-0.600
2020/01/31 18:17:20.6	355.040	-0.500	0.070	-0.580
2020/01/31 18:17:20.7	355.010	-0.460	0.040	-0.550
2020/01/31 18:17:20.8	354.980	-0.420	0.010	-0.530
2020/01/31 18:17:20.9	354.950	-0.370	-0.010	-0.500
2020/01/31 18:17:21.0	354.920	-0.320	-0.040	-0.470
2020/01/31 18:17:21.1	354.890	-0.270	-0.060	-0.440
2020/01/31 18:17:21.2	354.850	-0.220	-0.080	-0.400
2020/01/31 18:17:21.3	354.820	-0.170	-0.100	-0.360
2020/01/31 18:17:21.4	354.790	-0.120	-0.120	-0.320
2020/01/31 18:17:21.5	354.760	-0.060	-0.130	-0.270
2020/01/31 18:17:21.6	354.730	-0.010	-0.150	-0.220
2020/01/31 18:17:21.7	354.700	0.040	-0.160	-0.170
2020/01/31 18:17:21.8	354.670	0.090	-0.170	-0.120
2020/01/31 18:17:21.9	354.640	0.140	-0.180	-0.070
2020/01/31 18:17:22.0	354.610	0.190	-0.180	-0.010
2020/01/31 18:17:22.1	354.590	0.240	-0.190	0.040
2020/01/31 18:17:22.2	354.560	0.280	-0.190	0.100
2020/01/31 18:17:22.3	354.530	0.320	-0.200	0.150
2020/01/31 18:17:22.4	354.510	0.360	-0.200	0.210
2020/01/31 18:17:22.5	354.490	0.390	-0.200	0.260
2020/01/31 18:17:22.6	354.460	0.420	-0.200	0.320
2020/01/31 18:17:22.7	354.440	0.440	-0.210	0.370
2020/01/31 18:17:22.8	354.430	0.460	-0.210	0.420
2020/01/31 18:17:22.9	354.410	0.480	-0.220	0.460
2020/01/31 18:17:23.0	354.400	0.490	-0.220	0.500
2020/01/31 18:17:23.1	354.390	0.500	-0.230	0.540
2020/01/31 18:17:23.2	354.380	0.510	-0.230	0.580
2020/01/31 18:17:23.3	354.370	0.510	-0.240	0.600
2020/01/31 18:17:23.4	354.370	0.500	-0.250	0.630
2020/01/31 18:17:23.5	354.370	0.500	-0.260	0.640
2020/01/31 18:17:23.6	354.370	0.480	-0.270	0.660
2020/01/31 18:17:23.7	354.380	0.470	-0.280	0.660
2020/01/31 18:17:23.8	354.390	0.450	-0.290	0.650
2020/01/31 18:17:23.9	354.410	0.430	-0.310	0.640
2020/01/31 18:17:24.0	354.430	0.410	-0.330	0.630
2020/01/31 18:17:24.1	354.450	0.380	-0.350	0.610
2020/01/31 18:17:24.2	354.480	0.360	-0.370	0.580
2020/01/31 18:17:24.3	354.510	0.330	-0.390	0.550
2020/01/31 18:17:24.4	354.540	0.300	-0.420	0.520
2020/01/31 18:17:24.5	354.580	0.260	-0.440	0.480
2020/01/31 18:17:24.6	354.620	0.230	-0.460	0.440
2020/01/31 18:17:24.7	354.660	0.190	-0.480	0.400
2020/01/31 18:17:24.8	354.700	0.160	-0.510	0.360
2020/01/31 18:17:24.9	354.740	0.120	-0.530	0.310
2020/01/31 18:17:25.0	354.780	0.090	-0.540	0.270
2020/01/31 18:17:25.1	354.820	0.050	-0.550	0.230
2020/01/31 18:17:25.2	354.850	0.010	-0.560	0.180
2020/01/31 18:17:25.3	354.890	-0.030	-0.560	0.140
2020/01/31 18:17:25.4	354.920	-0.060	-0.560	0.100
2020/01/31 18:17:25.5	354.950	-0.100	-0.560	0.070
2020/01/31 18:17:25.6	354.970	-0.140	-0.550	0.030
2020/01/31 18:17:25.7	354.990	-0.180	-0.540	-0.000
2020/01/31 18:17:25.8	355.000	-0.210	-0.520	-0.040
2020/01/31 18:17:25.9	355.020	-0.250	-0.500	-0.070
2020/01/31 18:17:26.0	355.040	-0.290	-0.480	-0.100
2020/01/31 18:17:26.1	355.050	-0.320	-0.460	-0.130
2020/01/31 18:17:26.2	355.050	-0.350	-0.430	-0.160
2020/01/31 18:17:26.3	355.060	-0.390	-0.400	-0.180
2020/01/31 18:17:26.4	355.070	-0.420	-0.370	-0.200
2020/01/31 18:17:26.5	355.070	-0.450	-0.340	-0.220
2020/01/31 18:17:26.6	355.070	-0.470	-0.310	-0.240
2020/01/31 18:17:26.7	355.070	-0.500	-0.290	-0.250
2020/01/31 18:17:26.8	355.070	-0.520	-0.260	-0.270
2020/01/31 18:17:26.9	355.070	-0.540	-0.230	-0.280
2020/01/31 18:17:27.0	355.070	-0.550	-0.210	-0.290
2020/01/31 18:17:27.1	355.070	-0.560	-0.190	-0.300
2020/01/31 18:17:27.2	355.070	-0.570	-0.180	-0.310
2020/01/31 18:17:27.3	355.070	-0.580	-0.170	-0.320
2020/01/31 18:17:27.4	355.070	-0.580	-0.160	-0.320
2020/01/31 18:17:27.5	355.070	-0.570	-0.160	-0.330
2020/01/31 18:17:27.6	355.070	-0.570	-0.160	-0.330
2020/01/31 18:17:27.7	355.070	-0.550	-0.160	-0.330
2020/01/31 18:17:27.8	355.070	-0.540	-0.170	-0.330
2020/01/31 18:17:27.9	355.070	-0.520	-0.190	-0.330
2020/01/31 18:17:28.0	355.080	-0.500	-0.210	-0.330
2020/01/31 18:17:28.1	355.080	-0.470	-0.230	-0.320
2020/01/31 18:17:28.2	355.080	-0.440	-0.250	-0.320
2020/01/31 18:17:28.3	355.090	-0.400	-0.280	-0.310
2020/01/31 18:17:28.4	355.090	-0.360	-0.320	-0.310
2020/01/31 18:17:28.5	355.100	-0.320	-0.350	-0.300
2020/01/31 18:17:28.6	355.100	-0.280	-0.390	-0.290
2020/01/31 18:17:28.7	355.110	-0.230	-0.420	-0.280
2020/01/31 18:17:28.8	355.110	-0.180	-0.460	-0.280
2020/01/31 18:17:28.9	355.110	-0.130	-0.500	-0.270
2020/01/31 18:17:29.0	355.120	-0.070	-0.530	-0.260
2020/01/31 18:17:29.1	355.130	-0.020	-0.570	-0.240
2020/01/31 18:17:29.2	355.140	0.040	-0.600	-0.230
2020/01/31 18:17:29.3	355.150	0.090	-0.620	-0.220
2020/01/31 18:17:29.4	355.160	0.150	-0.650	-0.200
2020/01/31 18:17:29.5	355.170	0.200	-0.670	-0.180
2020/01/31 18:17:29.6	355.180	0.250	-0.680	-0.160
2020/01/31 18:17:29.7	355.180	0.310	-0.690	-0.140
2020/01/31 18:17:29.8	355.190	0.360	-0.700	-0.120
2020/01/31 18:17:29.9	355.190	0.410	-0.700	-0.100
2020/01/31 18:17:30.0	355.200	0.450	-0.700	-0.070
2020/01/31 18:17:30.1	355.200	0.490	-0.680	-0.040
2020/01/31 18:17:30.2	355.200	0.530	-0.670	-0.020
2020/01/31 18:17:30.3	355.200	0.570	-0.650	0.010
2020/01/31 18:17:30.4	355.200	0.600	-0.620	0.040
2020/01/31 18:17:30.5	355.200	0.630	-0.590	0.070
2020/01/31 18:17:30.6	355.200	0.650	-0.560	0.100
2020/01/31 18:17:30.7	355.200	0.670	-0.520	0.130
2020/01/31 18:17:30.8	355.220	0.690	-0.480	0.160
2020/01/31 18:17:30.9	355.210	0.690	-0.440	0.190
2020/01/31 18:17:31.0	355.210	0.700	-0.390	0.220
2020/01/31 18:17:31.1	355.210	0.700	-0.350	0.240
2020/01/31 18:17:31.2	355.200	0.700	-0.300	0.270
2020/01/31 18:17:31.3	355.200	0.690	-0.250	0.300
2020/01/31 18:17:31.4	355.190	0.680	-0.200	0.320
2020/01/31 18:17:31.5	355.180	0.660	-0.150	0.340
2020/01/31 18:17:31.6	355.180	0.640	-0.100	0.360
2020/01/31 18:17:31.7	355.170	0.610	-0.050	0.390
2020/01/31 18:17:31.8	355.150	0.590	-0.010	0.400
2020/01/31 18:17:31.9	355.140	0.560	0.040	0.420
2020/01/31 18:17:32.0	355.130	0.520	0.080	0.440
2020/01/31 18:17:32.1	355.120	0.480	0.120	0.450
2020/01/31 18:17:32.2	355.110	0.450	0.160	0.460
2020/01/31 18:17:32.3	355.100	0.400	0.190	0.470
2020/01/31 18:17:32.4	355.080	0.360	0.230	0.480
2020/01/31 18:17:32.5	355.070	0.310	0.260	0.480
2020/01/31 18:17:32.6	355.050	0.270	0.290	0.490
2020/01/31 18:17:32.7	355.030	0.220	0.310	0.490
2020/01/31 18:17:32.8	355.010	0.170	0.330	0.480
2020/01/31 18:17:32.9	354.990	0.120	0.350	0.470
2020/01/31 18:17:33.0	354.980	0.070	0.370	0.460
2020/01/31 18:17:33.1	354.960	0.020	0.390	0.450
2020/01/31 18:17:33.2	354.940	-0.030	0.400	0.430
2020/01/31 18:17:33.3	354.930	-0.080	0.410	0.410
2020/01/31 18:17:33.4	354.910	-0.120	0.410	0.390
2020/01/31 18:17:33.5	354.900	-0.170	0.410	0.360
2020/01/31 18:17:33.6	354.880	-0.210	0.410	0.330
2020/01/31 18:17:33.7	354.870	-0.250	0.410	0.300
2020/01/31 18:17:33.8	354.870	-0.290	0.400	0.260
2020/01/31 18:17:33.9	354.860	-0.330	0.390	0.230
2020/01/31 18:17:34.0	354.850	-0.360	0.370	0.190
2020/01/31 18:17:34.1	354.840	-0.390	0.350	0.150
2020/01/31 18:17:34.2	354.830	-0.420	0.330	0.110
2020/01/31 18:17:34.3	354.830	-0.440	0.310	0.080
2020/01/31 18:17:34.4	354.820	-0.470	0.280	0.040
2020/01/31 18:17:34.5	354.820	-0.480	0.250	0.000
2020/01/31 18:17:34.6	354.820	-0.490	0.210	-0.040
2020/01/31 18:17:34.7	354.820	-0.500	0.170	-0.070
2020/01/31 18:17:34.8	354.830	-0.510	0.130	-0.110
2020/01/31 18:17:34.9	354.830	-0.510	0.090	-0.140
2020/01/31 18:17:35.0	354.840	-0.500	0.040	-0.180
2020/01/31 18:17:35.1	354.840	-0.500	-0.020	-0.210
2020/01/31 18:17:35.2	354.850	-0.490	-0.070	-0.240
2020/01/31 18:17:35.3	354.860	-0.470	-0.130	-0.270
2020/01/31 18:17:35.4	354.880	-0.450	-0.190	-0.310
2020/01/31 18:17:35.5	354.900	-0.430	-0.250	-0.340
2020/01/31 18:17:35.6	354.910	-0.410	-0.320	-0.370
2020/01/31 18:17:35.7	354.940	-0.380	-0.390	-0.400
2020/01/31 18:17:35.8	354.960	-0.350	-0.450	-0.420
2020/01/31 18:17:35.9	354.980	-0.320	-0.520	-0.450
2020/01/31 18:17:36.0	355.010	-0.280	-0.590	-0.480
2020/01/31 18:17:36.1	355.030	-0.250	-0.660	-0.510
2020/01/31 18:17:36.2	355.060	-0.210	-0.720	-0.540
2020/01/31 18:17:36.3	355.090	-0.180	-0.780	-0.560
2020/01/31 18:17:36.4	355.110	-0.140	-0.840	-0.590
2020/01/31 18:17:36.5	355.140	-0.100	-0.900	-0.620
2020/01/31 18:17:36.6	355.170	-0.070	-0.950	-0.640
2020/01/31 18:17:36.7	355.190	-0.030	-1.000	-0.670
2020/01/31 18:17:36.8	355.230	0.000	-1.040	-0.700
2020/01/31 18:17:36.9	355.250	0.030	-1.070	-0.720
2020/01/31 18:17:37.0	355.280	0.060	-1.100	-0.740
2020/01/31 18:17:37.1	355.300	0.090	-1.120	-0.760
2020/01/31 18:17:37.2	355.320	0.120	-1.140	-0.780
2020/01/31 18:17:37.3	355.340	0.140	-1.140	-0.790
2020/01/31 18:17:37.4	355.360	0.160	-1.140	-0.800
2020/01/31 18:17:37.5	355.370	0.180	-1.130	-0.800
2020/01/31 18:17:37.6	355.390	0.190	-1.120	-0.800
2020/01/31 18:17:37.7	355.400	0.200	-1.090	-0.800
2020/01/31 18:17:37.8	355.420	0.210	-1.060	-0.790
2020/01/31 18:17:37.9	355.430	0.210	-1.030	-0.780
2020/01/31 18:17:38.0	355.450	0.220	-0.990	-0.760
2020/01/31 18:17:38.1	355.460	0.210	-0.940	-0.740
2020/01/31 18:17:38.2	355.470	0.210	-0.890	-0.720
2020/01/31 18:17:38.3	355.470	0.200	-0.830	-0.690
2020/01/31 18:17:38.4	355.480	0.190	-0.770	-0.660
2020/01/31 18:17:38.5	355.490	0.180	-0.700	-0.620
2020/01/31 18:17:38.6	355.490	0.160	-0.640	-0.590
2020/01/31 18:17:38.7	355.490	0.140	-0.560	-0.550
2020/01/31 18:17:38.8	355.490	0.130	-0.490	-0.500
2020/01/31 18:17:38.9	355.480	0.100	-0.420	-0.460
2020/01/31 18:17:39.0	355.480	0.080	-0.340	-0.410
2020/01/31 18:17:39.1	355.480	0.060	-0.260	-0.360
2020/01/31 18:17:39.2	355.470	0.040	-0.180	-0.320
2020/01/31 18:17:39.3	355.460	0.010	-0.110	-0.270
2020/01/31 18:17:39.4	355.450	-0.010	-0.030	-0.220
2020/01/31 18:17:39.5	355.430	-0.030	0.040	-0.170
2020/01/31 18:17:39.6	355.420	-0.060	0.110	-0.130
2020/01/31 18:17:39.7	355.400	-0.080	0.180	-0.080
2020/01/31 18:17:39.8	355.370	-0.100	0.250	-0.030
2020/01/31 18:17:39.9	355.350	-0.120	0.310	0.010
2020/01/31 18:17:40.0	355.330	-0.130	0.370	0.050
2020/01/31 18:17:40.1	355.310	-0.150	0.420	0.090
2020/01/31 18:17:40.2	355.290	-0.160	0.470	0.130
2020/01/31 18:17:40.3	355.260	-0.170	0.520	0.170
2020/01/31 18:17:40.4	355.240	-0.180	0.550	0.210
2020/01/31 18:17:40.5	355.220	-0.190	0.590	0.240
2020/01/31 18:17:40.6	355.200	-0.200	0.610	0.280
2020/01/31 18:17:40.7	355.170	-0.200	0.630	0.310
2020/01/31 18:17:40.8	355.140	-0.200	0.650	0.340
2020/01/31 18:17:40.9	355.120	-0.200	0.650	0.360
2020/01/31 18:17:41.0	355.100	-0.200	0.660	0.390
2020/01/31 18:17:41.1	355.080	-0.190	0.650	0.410
2020/01/31 18:17:41.2	355.070	-0.180	0.640	0.420
2020/01/31 18:17:41.3	355.060	-0.170	0.620	0.440
2020/01/31 18:17:41.4	355.050	-0.160	0.590	0.450
2020/01/31 18:17:41.5	355.040	-0.150	0.560	0.460
2020/01/31 18:17:41.6	355.040	-0.140	0.520	0.470
2020/01/31 18:17:41.7	355.040	-0.120	0.470	0.470
2020/01/31 18:17:41.8	355.050	-0.110	0.420	0.470
2020/01/31 18:17:41.9	355.050	-0.090	0.360	0.470
2020/01/31 18:17:42.0	355.050	-0.070	0.300	0.470
2020/01/31 18:17:42.1	355.060	-0.050	0.240	0.460
2020/01/31 18:17:42.2	355.060	-0.030	0.170	0.450
2020/01/31 18:17:42.3	355.070	-0.010	0.100	0.440
2020/01/31 18:17:42.4	355.080	0.010	0.020	0.430
2020/01/31 18:17:42.5	355.090	0.030	-0.060	0.420
2020/01/31 18:17:42.6	355.100	0.050	-0.130	0.400
2020/01/31 18:17:42.7	355.110	0.070	-0.210	0.380
2020/01/31 18:17:42.8	355.120	0.090	-0.280	0.360
2020/01/31 18:17:42.9	355.130	0.100	-0.360	0.340
2020/01/31 18:17:43.0	355.140	0.120	-0.430	0.320
2020/01/31 18:17:43.1	355.140	0.140	-0.500	0.300
2020/01/31 18:17:43.2	355.150	0.150	-0.570	0.290
2020/01/31 18:17:43.3	355.160	0.170	-0.630	0.270
2020/01/31 18:17:43.4	355.170	0.180	-0.690	0.250
2020/01/31 18:17:43.5	355.170	0.190	-0.740	0.230
2020/01/31 18:17:43.6	355.180	0.200	-0.790	0.220
2020/01/31 18:17:43.7	355.180	0.210	-0.830	0.200
2020/01/31 18:17:43.8	355.180	0.220	-0.870	0.190
2020/01/31 18:17:43.9	355.170	0.230	-0.900	0.170
2020/01/31 18:17:44.0	355.170	0.230	-0.920	0.160
2020/01/31 18:17:44.1	355.170	0.230	-0.940	0.140
2020/01/31 18:17:44.2	355.170	0.230	-0.960	0.130
2020/01/31 18:17:44.3	355.170	0.230	-0.970	0.110
2020/01/31 18:17:44.4	355.170	0.230	-0.970	0.100
2020/01/31 18:17:44.5	355.170	0.230	-0.970	0.080
2020/01/31 18:17:44.6	355.170	0.220	-0.970	0.060
2020/01/31 18:17:44.7	355.180	0.220	-0.960	0.040
2020/01/31 18:17:44.8	355.180	0.210	-0.950	0.020
2020/01/31 18:17:44.9	355.180	0.200	-0.930	0.000
2020/01/31 18:17:45.0	355.190	0.190	-0.910	-0.020
2020/01/31 18:17:45.1	355.200	0.190	-0.890	-0.040
2020/01/31 18:17:45.2	355.200	0.180	-0.870	-0.060
2020/01/31 18:17:45.3	355.210	0.170	-0.850	-0.080
2020/01/31 18:17:45.4	355.220	0.160	-0.830	-0.110
2020/01/31 18:17:45.5	355.240	0.150	-0.810	-0.130
2020/01/31 18:17:45.6	355.250	0.150	-0.780	-0.160
2020/01/31 18:17:45.7	355.260	0.140	-0.760	-0.180
2020/01/31 18:17:45.8	355.280	0.130	-0.740	-0.210
2020/01/31 18:17:45.9	355.300	0.130	-0.720	-0.230
2020/01/31 18:17:46.0	355.320	0.120	-0.700	-0.260
2020/01/31 18:17:46.1	355.340	0.120	-0.680	-0.280
2020/01/31 18:17:46.2	355.360	0.120	-0.660	-0.300
2020/01/31 18:17:46.3	355.380	0.120	-0.640	-0.330
2020/01/31 18:17:46.4	355.400	0.110	-0.620	-0.350
2020/01/31 18:17:46.5	355.420	0.110	-0.600	-0.370
2020/01/31 18:17:46.6	355.450	0.110	-0.580	-0.390
2020/01/31 18:17:46.7	355.470	0.100	-0.550	-0.410
2020/01/31 18:17:46.8	355.500	0.100	-0.530	-0.420
2020/01/31 18:17:46.9	355.520	0.100	-0.500	-0.440
2020/01/31 18:17:47.0	355.540	0.090	-0.470	-0.450
2020/01/31 18:17:47.1	355.560	0.090	-0.440	-0.470
2020/01/31 18:17:47.2	355.580	0.080	-0.410	-0.480
2020/01/31 18:17:47.3	355.590	0.070	-0.380	-0.490
2020/01/31 18:17:47.4	355.600	0.060	-0.340	-0.500
2020/01/31 18:17:47.5	355.620	0.050	-0.300	-0.510
2020/01/31 18:17:47.6	355.630	0.040	-0.260	-0.520
2020/01/31 18:17:47.7	355.640	0.030	-0.210	-0.530
2020/01/31 18:17:47.8	355.640	0.010	-0.160	-0.530
2020/01/31 18:17:47.9	355.650	-0.000	-0.120	-0.540
2020/01/31 18:17:48.0	355.660	-0.020	-0.070	-0.540
2020/01/31 18:17:48.1	355.660	-0.040	-0.010	-0.530
2020/01/31 18:17:48.2	355.660	-0.060	0.040	-0.530
2020/01/31 18:17:48.3	355.670	-0.080	0.090	-0.520
2020/01/31 18:17:48.4	355.660	-0.100	0.150	-0.510
2020/01/31 18:17:48.5	355.660	-0.120	0.210	-0.490
2020/01/31 18:17:48.6	355.650	-0.140	0.260	-0.470
2020/01/31 18:17:48.7	355.650	-0.160	0.320	-0.450
2020/01/31 18:17:48.8	355.610	-0.180	0.370	-0.420
2020/01/31 18:17:48.9	355.590	-0.200	0.420	-0.380
2020/01/31 18:17:49.0	355.570	-0.220	0.480	-0.340
2020/01/31 18:17:49.1	355.550	-0.250	0.530	-0.300
2020/01/31 18:17:49.2	355.520	-0.270	0.570	-0.250
2020/01/31 18:17:49.3	355.490	-0.290	0.620	-0.200
2020/01/31 18:17:49.4	355.460	-0.310	0.660	-0.150
2020/01/31 18:17:49.5	355.420	-0.330	0.690	-0.100
2020/01/31 18:17:49.6	355.380	-0.350	0.730	-0.050
2020/01/31 18:17:49.7	355.340	-0.370	0.750	0.010
2020/01/31 18:17:49.8	355.320	-0.380	0.770	0.060
2020/01/31 18:17:49.9	355.280	-0.400	0.780	0.100
2020/01/31 18:17:50.0	355.230	-0.410	0.790	0.140
2020/01/31 18:17:50.1	355.190	-0.430	0.780	0.180
2020/01/31 18:17:50.2	355.150	-0.440	0.770	0.220
2020/01/31 18:17:50.3	355.100	-0.440	0.750	0.250
2020/01/31 18:17:50.4	355.060	-0.450	0.720	0.270
2020/01/31 18:17:50.5	355.020	-0.450	0.690	0.290
2020/01/31 18:17:50.6	354.990	-0.450	0.650	0.310
2020/01/31 18:17:50.7	354.950	-0.450	0.600	0.320
2020/01/31 18:17:50.8	354.940	-0.440	0.540	0.330
2020/01/31 18:17:50.9	354.910	-0.430	0.470	0.330
2020/01/31 18:17:51.0	354.890	-0.420	0.400	0.330
2020/01/31 18:17:51.1	354.860	-0.400	0.320	0.330
2020/01/31 18:17:51.2	354.840	-0.380	0.240	0.320
2020/01/31 18:17:51.3	354.830	-0.360	0.150	0.310
2020/01/31 18:17:51.4	354.820	-0.330	0.050	0.300
2020/01/31 18:17:51.5	354.810	-0.300	-0.040	0.290
2020/01/31 18:17:51.6	354.810	-0.260	-0.140	0.280
2020/01/31 18:17:51.7	354.800	-0.220	-0.240	0.270
2020/01/31 18:17:51.8	354.800	-0.180	-0.340	0.250
2020/01/31 18:17:51.9	354.810	-0.140	-0.440	0.230
2020/01/31 18:17:52.0	354.820	-0.090	-0.540	0.220
2020/01/31 18:17:52.1	354.830	-0.050	-0.630	0.200
2020/01/31 18:17:52.2	354.850	0.000	-0.720	0.180
2020/01/31 18:17:52.3	354.870	0.050	-0.810	0.170
2020/01/31 18:17:52.4	354.890	0.100	-0.890	0.150
2020/01/31 18:17:52.5	354.910	0.150	-0.960	0.130
2020/01/31 18:17:52.6	354.940	0.200	-1.020	0.110
2020/01/31 18:17:52.7	354.970	0.250	-1.080	0.090
2020/01/31 18:17:52.8	354.990	0.290	-1.130	0.070
2020/01/31 18:17:52.9	355.020	0.330	-1.180	0.050
2020/01/31 18:17:53.0	355.050	0.370	-1.210	0.030
2020/01/31 18:17:53.1	355.090	0.410	-1.230	0.010
2020/01/31 18:17:53.2	355.120	0.450	-1.250	-0.010
2020/01/31 18:17:53.3	355.160	0.480	-1.260	-0.030
2020/01/31 18:17:53.4	355.190	0.500	-1.260	-0.050
2020/01/31 18:17:53.5	355.230	0.520	-1.250	-0.070
2020/01/31 18:17:53.6	355.260	0.540	-1.240	-0.080
2020/01/31 18:17:53.7	355.300	0.550	-1.220	-0.100
2020/01/31 18:17:53.8	355.340	0.560	-1.190	-0.110
2020/01/31 18:17:53.9	355.380	0.570	-1.160	-0.120
2020/01/31 18:17:54.0	355.410	0.560	-1.120	-0.130
2020/01/31 18:17:54.1	355.430	0.560	-1.080	-0.140
2020/01/31 18:17:54.2	355.460	0.540	-1.030	-0.140
2020/01/31 18:17:54.3	355.480	0.530	-0.980	-0.150
2020/01/31 18:17:54.4	355.500	0.510	-0.920	-0.150
2020/01/31 18:17:54.5	355.520	0.480	-0.860	-0.150
2020/01/31 18:17:54.6	355.530	0.450	-0.800	-0.140
2020/01/31 18:17:54.7	355.540	0.410	-0.740	-0.140
2020/01/31 18:17:54.8	355.540	0.380	-0.680	-0.130
2020/01/31 18:17:54.9	355.550	0.330	-0.610	-0.130
2020/01/31 18:17:55.0	355.550	0.290	-0.550	-0.120
2020/01/31 18:17:55.1	355.550	0.240	-0.480	-0.120
2020/01/31 18:17:55.2	355.540	0.190	-0.420	-0.120
2020/01/31 18:17:55.3	355.540	0.140	-0.360	-0.120
2020/01/31 18:17:55.4	355.530	0.090	-0.300	-0.120
2020/01/31 18:17:55.5	355.520	0.040	-0.240	-0.120
2020/01/31 18:17:55.6	355.500	-0.010	-0.180	-0.120
2020/01/31 18:17:55.7	355.480	-0.070	-0.130	-0.120
2020/01/31 18:17:55.8	355.450	-0.120	-0.080	-0.130
2020/01/31 18:17:55.9	355.430	-0.160	-0.030	-0.140
2020/01/31 18:17:56.0	355.410	-0.210	0.010	-0.140
2020/01/31 18:17:56.1	355.390	-0.250	0.060	-0.150
2020/01/31 18:17:56.2	355.360	-0.290	0.100	-0.150
2020/01/31 18:17:56.3	355.330	-0.330	0.130	-0.160
2020/01/31 18:17:56.4	355.300	-0.360	0.170	-0.160
2020/01/31 18:17:56.5	355.270	-0.390	0.200	-0.170
2020/01/31 18:17:56.6	355.240	-0.420	0.220	-0.170
2020/01/31 18:17:56.7	355.220	-0.440	0.250	-0.170
2020/01/31 18:17:56.8	355.180	-0.450	0.270	-0.180
2020/01/31 18:17:56.9	355.150	-0.460	0.280	-0.180
2020/01/31 18:17:57.0	355.120	-0.470	0.300	-0.180
2020/01/31 18:17:57.1	355.100	-0.460	0.300	-0.180
2020/01/31 18:17:57.2	355.070	-0.460	0.310	-0.180
2020/01/31 18:17:57.3	355.050	-0.450	0.310	-0.170
2020/01/31 18:17:57.4	355.020	-0.430	0.300	-0.170
2020/01/31 18:17:57.5	355.000	-0.420	0.290	-0.160
2020/01/31 18:17:57.6	354.980	-0.390	0.280	-0.150
2020/01/31 18:17:57.7	354.960	-0.360	0.270	-0.150
2020/01/31 18:17:57.8	354.940	-0.330	0.250	-0.140
2020/01/31 18:17:57.9	354.930	-0.300	0.220	-0.130
2020/01/31 18:17:58.0	354.910	-0.260	0.200	-0.120
2020/01/31 18:17:58.1	354.900	-0.220	0.170	-0.110
2020/01/31 18:17:58.2	354.890	-0.180	0.140	-0.100
2020/01/31 18:17:58.3	354.880	-0.130	0.110	-0.080
2020/01/31 18:17:58.4	354.880	-0.090	0.070	-0.070
2020/01/31 18:17:58.5	354.870	-0.040	0.040	-0.050
2020/01/31 18:17:58.6	354.860	0.010	0.000	-0.040
2020/01/31 18:17:58.7	354.860	0.050	-0.030	-0.020
2020/01/31 18:17:58.8	354.850	0.100	-0.070	-0.000
2020/01/31 18:17:58.9	354.850	0.140	-0.100	0.020
2020/01/31 18:17:59.0	354.840	0.190	-0.130	0.040
2020/01/31 18:17:59.1	354.830	0.230	-0.160	0.060
2020/01/31 18:17:59.2	354.820	0.270	-0.180	0.080
2020/01/31 18:17:59.3	354.810	0.300	-0.210	0.100
2020/01/31 18:17:59.4	354.800	0.340	-0.230	0.130
2020/01/31 18:17:59.5	354.790	0.370	-0.250	0.160
2020/01/31 18:17:59.6	354.780	0.390	-0.260	0.180
2020/01/31 18:17:59.7	354.770	0.420	-0.270	0.210
2020/01/31 18:17:59.8	354.760	0.440	-0.270	0.240
2020/01/31 18:17:59.9	354.750	0.450	-0.280	0.270
2020/01/31 18:18:00.0	354.730	0.460	-0.280	0.300
2020/01/31 18:18:00.1	354.720	0.470	-0.270	0.330
2020/01/31 18:18:00.2	354.700	0.470	-0.270	0.360
2020/01/31 18:18:00.3	354.690	0.470	-0.260	0.400
2020/01/31 18:18:00.4	354.680	0.470	-0.250	0.430
2020/01/31 18:18:00.5	354.670	0.460	-0.250	0.450
2020/01/31 18:18:00.6	354.660	0.440	-0.240	0.480
2020/01/31 18:18:00.7	354.650	0.430	-0.230	0.510
2020/01/31 18:18:00.8	354.660	0.410	-0.220	0.530
2020/01/31 18:18:00.9	354.650	0.390	-0.220	0.550
2020/01/31 18:18:01.0	354.650	0.360	-0.210	0.570
2020/01/31 18:18:01.1	354.660	0.340	-0.210	0.580
2020/01/31 18:18:01.2	354.670	0.310	-0.210	0.590
2020/01/31 18:18:01.3	354.680	0.280	-0.220	0.600
2020/01/31 18:18:01.4	354.690	0.240	-0.220	0.600
2020/01/31 18:18:01.5	354.700	0.210	-0.230	0.590
2020/01/31 18:18:01.6	354.720	0.170	-0.250	0.580
2020/01/31 18:18:01.7	354.740	0.140	-0.270	0.570
2020/01/31 18:18:01.8	354.770	0.100	-0.290	0.540
2020/01/31 18:18:01.9	354.800	0.060	-0.310	0.520
2020/01/31 18:18:02.0	354.830	0.020	-0.340	0.490
2020/01/31 18:18:02.1	354.860	-0.010	-0.360	0.450
2020/01/31 18:18:02.2	354.890	-0.050	-0.390	0.410
2020/01/31 18:18:02.3	354.920	-0.090	-0.420	0.360
2020/01/31 18:18:02.4	354.950	-0.120	-0.450	0.310
2020/01/31 18:18:02.5	354.980	-0.160	-0.480	0.260
2020/01/31 18:18:02.6	355.010	-0.190	-0.510	0.210
2020/01/31 18:18:02.7	355.040	-0.230	-0.540	0.150
2020/01/31 18:18:02.8	355.070	-0.260	-0.570	0.090
2020/01/31 18:18:02.9	355.090	-0.290	-0.600	0.030
2020/01/31 18:18:03.0	355.120	-0.320	-0.620	-0.030
2020/01/31 18:18:03.1	355.150	-0.340	-0.640	-0.090
2020/01/31 18:18:03.2	355.180	-0.370	-0.650	-0.150
2020/01/31 18:18:03.3	355.200	-0.390	-0.670	-0.200
2020/01/31 18:18:03.4	355.220	-0.410	-0.680	-0.260
2020/01/31 18:18:03.5	355.240	-0.420	-0.680	-0.310
2020/01/31 18:18:03.6	355.260	-0.440	-0.680	-0.360
2020/01/31 18:18:03.7	355.270	-0.450	-0.680	-0.410
2020/01/31 18:18:03.8	355.290	-0.460	-0.670	-0.460
2020/01/31 18:18:03.9	355.300	-0.460	-0.650	-0.500
2020/01/31 18:18:04.0	355.310	-0.470	-0.640	-0.540
2020/01/31 18:18:04.1	355.320	-0.470	-0.620	-0.570
2020/01/31 18:18:04.2	355.330	-0.470	-0.590	-0.610
2020/01/31 18:18:04.3	355.340	-0.470	-0.560	-0.640
2020/01/31 18:18:04.4	355.340	-0.460	-0.530	-0.670
2020/01/31 18:18:04.5	355.350	-0.460	-0.500	-0.700
2020/01/31 18:18:04.6	355.350	-0.450	-0.460	-0.720
2020/01/31 18:18:04.7	355.360	-0.440	-0.430	-0.740
2020/01/31 18:18:04.8	355.360	-0.420	-0.390	-0.760
2020/01/31 18:18:04.9	355.360	-0.410	-0.350	-0.770
2020/01/31 18:18:05.0	355.360	-0.390	-0.310	-0.790
2020/01/31 18:18:05.1	355.370	-0.370	-0.270	-0.800
2020/01/31 18:18:05.2	355.370	-0.350	-0.230	-0.800
2020/01/31 18:18:05.3	355.380	-0.330	-0.190	-0.810
2020/01/31 18:18:05.4	355.380	-0.310	-0.140	-0.810
2020/01/31 18:18:05.5	355.380	-0.290	-0.100	-0.800
2020/01/31 18:18:05.6	355.390	-0.260	-0.070	-0.790
2020/01/31 18:18:05.7	355.390	-0.240	-0.030	-0.780
2020/01/31 18:18:05.8	355.390	-0.210	0.010	-0.760
2020/01/31 18:18:05.9	355.380	-0.190	0.040	-0.740
2020/01/31 18:18:06.0	355.380	-0.160	0.080	-0.710
2020/01/31 18:18:06.1	355.370	-0.130	0.110	-0.680
2020/01/31 18:18:06.2	355.360	-0.110	0.140	-0.650
2020/01/31 18:18:06.3	355.350	-0.080	0.170	-0.610
2020/01/31 18:18:06.4	355.340	-0.060	0.190	-0.570
2020/01/31 18:18:06.5	355.320	-0.030	0.220	-0.520
2020/01/31 18:18:06.6	355.300	-0.010	0.240	-0.470
2020/01/31 18:18:06.7	355.280	0.020	0.260	-0.420
2020/01/31 18:18:06.8	355.260	0.040	0.280	-0.360
2020/01/31 18:18:06.9	355.230	0.060	0.290	-0.300
2020/01/31 18:18:07.0	355.210	0.080	0.300	-0.250
2020/01/31 18:18:07.1	355.180	0.100	0.310	-0.190
2020/01/31 18:18:07.2	355.150	0.120	0.320	-0.120
2020/01/31 18:18:07.3	355.120	0.140	0.320	-0.060
2020/01/31 18:18:07.4	355.090	0.160	0.320	-0.000
2020/01/31 18:18:07.5	355.050	0.170	0.320	0.060
2020/01/31 18:18:07.6	355.020	0.190	0.310	0.120
2020/01/31 18:18:07.7	354.990	0.200	0.300	0.180
2020/01/31 18:18:07.8	354.950	0.220	0.280	0.240
2020/01/31 18:18:07.9	354.920	0.230	0.270	0.290
2020/01/31 18:18:08.0	354.900	0.250	0.240	0.340
2020/01/31 18:18:08.1	354.870	0.260	0.210	0.390
2020/01/31 18:18:08.2	354.840	0.270	0.180	0.440
2020/01/31 18:18:08.3	354.820	0.290	0.150	0.480
2020/01/31 18:18:08.4	354.790	0.300	0.110	0.520
2020/01/31 18:18:08.5	354.770	0.310	0.070	0.560
2020/01/31 18:18:08.6	354.750	0.320	0.020	0.590
2020/01/31 18:18:08.7	354.730	0.330	-0.030	0.620
2020/01/31 18:18:08.8	354.710	0.340	-0.080	0.640
2020/01/31 18:18:08.9	354.690	0.350	-0.140	0.660
2020/01/31 18:18:09.0	354.680	0.360	-0.200	0.680
2020/01/31 18:18:09.1	354.670	0.370	-0.250	0.690
2020/01/31 18:18:09.2	354.650	0.370	-0.310	0.700
2020/01/31 18:18:09.3	354.650	0.380	-0.370	0.700
2020/01/31 18:18:09.4	354.640	0.380	-0.430	0.700
2020/01/31 18:18:09.5	354.630	0.390	-0.500	0.690
2020/01/31 18:18:09.6	354.630	0.390	-0.560	0.680
2020/01/31 18:18:09.7	354.630	0.390	-0.610	0.660
2020/01/31 18:18:09.8	354.620	0.390	-0.670	0.640
2020/01/31 18:18:09.9	354.630	0.380	-0.720	0.620
2020/01/31 18:18:10.0	354.630	0.380	-0.780	0.590
2020/01/31 18:18:10.1	354.640	0.370	-0.830	0.560
2020/01/31 18:18:10.2	354.650	0.360	-0.870	0.520
2020/01/31 18:18:10.3	354.670	0.350	-0.910	0.480
2020/01/31 18:18:10.4	354.680	0.340	-0.950	0.440
2020/01/31 18:18:10.5	354.700	0.330	-0.980	0.390
2020/01/31 18:18:10.6	354.720	0.310	-1.010	0.340
2020/01/31 18:18:10.7	354.750	0.290	-1.030	0.280
2020/01/31 18:18:10.8	354.770	0.270	-1.050	0.220
2020/01/31 18:18:10.9	354.800	0.250	-1.060	0.160
2020/01/31 18:18:11.0	354.830	0.230	-1.070	0.100
2020/01/31 18:18:11.1	354.870	0.210	-1.070	0.030
2020/01/31 18:18:11.2	354.900	0.180	-1.060	-0.030
2020/01/31 18:18:11.3	354.940	0.150	-1.050	-0.100
2020/01/31 18:18:11.4	354.980	0.130	-1.040	-0.170
2020/01/31 18:18:11.5	355.030	0.100	-1.020	-0.240
2020/01/31 18:18:11.6	355.070	0.070	-0.990	-0.310
2020/01/31 18:18:11.7	355.120	0.040	-0.960	-0.380
2020/01/31 18:18:11.8	355.160	0.020	-0.930	-0.450
2020/01/31 18:18:11.9	355.210	-0.010	-0.890	-0.520
2020/01/31 18:18:12.0	355.270	-0.040	-0.850	-0.580
2020/01/31 18:18:12.1	355.320	-0.070	-0.800	-0.650
2020/01/31 18:18:12.2	355.380	-0.090	-0.750	-0.710
2020/01/31 18:18:12.3	355.430	-0.120	-0.700	-0.770
2020/01/31 18:18:12.4	355.490	-0.140	-0.640	-0.820
2020/01/31 18:18:12.5	355.540	-0.160	-0.590	-0.870
2020/01/31 18:18:12.6	355.600	-0.180	-0.530	-0.920
2020/01/31 18:18:12.7	355.650	-0.200	-0.460	-0.960
2020/01/31 18:18:12.8	355.720	-0.210	-0.400	-0.990
2020/01/31 18:18:12.9	355.770	-0.220	-0.340	-1.020
2020/01/31 18:18:13.0	355.810	-0.240	-0.270	-1.040
2020/01/31 18:18:13.1	355.850	-0.250	-0.200	-1.050
2020/01/31 18:18:13.2	355.880	-0.250	-0.130	-1.060
2020/01/31 18:18:13.3	355.910	-0.260	-0.070	-1.050
2020/01/31 18:18:13.4	355.930	-0.260	0.000	-1.040
2020/01/31 18:18:13.5	355.940	-0.270	0.070	-1.030
2020/01/31 18:18:13.6	355.960	-0.270	0.130	-1.010
2020/01/31 18:18:13.7	355.960	-0.260	0.200	-0.980
2020/01/31 18:18:13.8	355.950	-0.260	0.260	-0.940
2020/01/31 18:18:13.9	355.950	-0.260	0.320	-0.900
2020/01/31 18:18:14.0	355.940	-0.250	0.370	-0.850
2020/01/31 18:18:14.1	355.920	-0.240	0.430	-0.810
2020/01/31 18:18:14.2	355.900	-0.230	0.470	-0.750
2020/01/31 18:18:14.3	355.870	-0.220	0.520	-0.700
2020/01/31 18:18:14.4	355.840	-0.210	0.560	-0.640
2020/01/31 18:18:14.5	355.810	-0.200	0.590	-0.580
2020/01/31 18:18:14.6	355.770	-0.190	0.620	-0.520
2020/01/31 18:18:14.7	355.730	-0.180	0.650	-0.450
2020/01/31 18:18:14.8	355.700	-0.160	0.660	-0.390
2020/01/31 18:18:14.9	355.650	-0.150	0.680	-0.320
2020/01/31 18:18:15.0	355.600	-0.140	0.680	-0.250
2020/01/31 18:18:15.1	355.550	-0.120	0.680	-0.190
2020/01/31 18:18:15.2	355.490	-0.110	0.680	-0.120
2020/01/31 18:18:15.3	355.440	-0.100	0.670	-0.060
2020/01/31 18:18:15.4	355.380	-0.080	0.650	0.010
2020/01/31 18:18:15.5	355.310	-0.070	0.620	0.070
2020/01/31 18:18:15.6	355.250	-0.060	0.600	0.130
2020/01/31 18:18:15.7	355.190	-0.050	0.560	0.180
2020/01/31 18:18:15.8	355.130	-0.040	0.520	0.240
2020/01/31 18:18:15.9	355.070	-0.040	0.480	0.290
2020/01/31 18:18:16.0	355.010	-0.030	0.430	0.330
2020/01/31 18:18:16.1	354.950	-0.020	0.380	0.370
2020/01/31 18:18:16.2	354.890	-0.020	0.320	0.410
2020/01/31 18:18:16.3	354.840	-0.020	0.260	0.440
2020/01/31 18:18:16.4	354.790	-0.020	0.190	0.460
2020/01/31 18:18:16.5	354.740	-0.010	0.120	0.480
2020/01/31 18:18:16.6	354.700	-0.010	0.050	0.490
2020/01/31 18:18:16.7	354.670	-0.020	-0.020	0.490
2020/01/31 18:18:16.8	354.650	-0.020	-0.100	0.490
2020/01/31 18:18:16.9	354.620	-0.020	-0.180	0.480
2020/01/31 18:18:17.0	354.600	-0.020	-0.250	0.460
2020/01/31 18:18:17.1	354.580	-0.020	-0.330	0.440
2020/01/31 18:18:17.2	354.570	-0.030	-0.410	0.420
2020/01/31 18:18:17.3	354.570	-0.030	-0.490	0.390
2020/01/31 18:18:17.4	354.570	-0.030	-0.570	0.350
2020/01/31 18:18:17.5	354.580	-0.030	-0.650	0.310
2020/01/31 18:18:17.6	354.590	-0.030	-0.720	0.270
2020/01/31 18:18:17.7	354.610	-0.030	-0.800	0.220
2020/01/31 18:18:17.8	354.630	-0.030	-0.870	0.170
2020/01/31 18:18:17.9	354.660	-0.030	-0.930	0.110
2020/01/31 18:18:18.0	354.700	-0.030	-0.990	0.050
2020/01/31 18:18:18.1	354.740	-0.030	-1.050	-0.010
2020/01/31 18:18:18.2	354.780	-0.030	-1.100	-0.070
2020/01/31 18:18:18.3	354.830	-0.020	-1.150	-0.130
2020/01/31 18:18:18.4	354.880	-0.020	-1.190	-0.190
2020/01/31 18:18:18.5	354.930	-0.010	-1.220	-0.250
2020/01/31 18:18:18.6	354.980	-0.000	-1.250	-0.310
2020/01/31 18:18:18.7	355.040	0.000	-1.260	-0.360
2020/01/31 18:18:18.8	355.090	0.010	-1.270	-0.410
2020/01/31 18:18:18.9	355.140	0.020	-1.280	-0.470
2020/01/31 18:18:19.0	355.190	0.020	-1.270	-0.510
2020/01/31 18:18:19.1	355.240	0.030	-1.250	-0.550
2020/01/31 18:18:19.2	355.280	0.030	-1.230	-0.590
2020/01/31 18:18:19.3	355.320	0.040	-1.190	-0.620
2020/01/31 18:18:19.4	355.360	0.040	-1.150	-0.640
2020/01/31 18:18:19.5	355.390	0.040	-1.100	-0.660
2020/01/31 18:18:19.6	355.420	0.050	-1.040	-0.670
2020/01/31 18:18:19.7	355.440	0.050	-0.970	-0.680
2020/01/31 18:18:19.8	355.460	0.050	-0.900	-0.680
2020/01/31 18:18:19.9	355.480	0.040	-0.830	-0.680
2020/01/31 18:18:20.0	355.490	0.040	-0.750	-0.680
2020/01/31 18:18:20.1	355.500	0.030	-0.660	-0.670
2020/01/31 18:18:20.2	355.500	0.030	-0.570	-0.650
2020/01/31 18:18:20.3	355.510	0.020	-0.480	-0.630
2020/01/31 18:18:20.4	355.510	0.010	-0.390	-0.610
2020/01/31 18:18:20.5	355.500	-0.000	-0.300	-0.580
2020/01/31 18:18:20.6	355.500	-0.010	-0.210	-0.560
2020/01/31 18:18:20.7	355.490	-0.020	-0.120	-0.530
2020/01/31 18:18:20.8	355.470	-0.030	-0.040	-0.490
2020/01/31 18:18:20.9	355.460	-0.050	0.050	-0.460
2020/01/31 18:18:21.0	355.450	-0.060	0.120	-0.420
2020/01/31 18:18:21.1	355.440	-0.070	0.200	-0.380
2020/01/31 18:18:21.2	355.420	-0.080	0.260	-0.340
2020/01/31 18:18:21.3	355.410	-0.090	0.320	-0.300
2020/01/31 18:18:21.4	355.390	-0.100	0.380	-0.250
2020/01/31 18:18:21.5	355.370	-0.110	0.430	-0.210
2020/01/31 18:18:21.6	355.350	-0.120	0.470	-0.160
2020/01/31 18:18:21.7	355.330	-0.130	0.500	-0.120
2020/01/31 18:18:21.8	355.300	-0.130	0.530	-0.070
2020/01/31 18:18:21.9	355.280	-0.140	0.550	-0.030
2020/01/31 18:18:22.0	355.260	-0.140	0.560	0.020
2020/01/31 18:18:22.1	355.240	-0.140	0.570	0.060
2020/01/31 18:18:22.2	355.210	-0.140	0.570	0.100
2020/01/31 18:18:22.3	355.190	-0.130	0.560	0.150
2020/01/31 18:18:22.4	355.170	-0.120	0.540	0.190
2020/01/31 18:18:22.5	355.150	-0.120	0.520	0.220
2020/01/31 18:18:22.6	355.130	-0.100	0.490	0.260
2020/01/31 18:18:22.7	355.110	-0.090	0.460	0.290
2020/01/31 18:18:22.8	355.100	-0.070	0.420	0.320
2020/01/31 18:18:22.9	355.090	-0.050	0.380	0.350
2020/01/31 18:18:23.0	355.070	-0.030	0.330	0.380
2020/01/31 18:18:23.1	355.060	-0.000	0.280	0.400
2020/01/31 18:18:23.2	355.050	0.030	0.220	0.420
2020/01/31 18:18:23.3	355.040	0.060	0.160	0.450
2020/01/31 18:18:23.4	355.040	0.090	0.100	0.470
2020/01/31 18:18:23.5	355.030	0.130	0.040	0.490
2020/01/31 18:18:23.6	355.030	0.160	-0.020	0.500
2020/01/31 18:18:23.7	355.020	0.200	-0.080	0.520
2020/01/31 18:18:23.8	355.030	0.240	-0.140	0.540
2020/01/31 18:18:23.9	355.030	0.280	-0.200	0.550
2020/01/31 18:18:24.0	355.030	0.330	-0.260	0.560
2020/01/31 18:18:24.1	355.030	0.370	-0.310	0.580
2020/01/31 18:18:24.2	355.040	0.410	-0.370	0.590
2020/01/31 18:18:24.3	355.040	0.450	-0.410	0.600
2020/01/31 18:18:24.4	355.050	0.490	-0.460	0.610
2020/01/31 18:18:24.5	355.060	0.530	-0.500	0.610
2020/01/31 18:18:24.6	355.060	0.570	-0.530	0.620
2020/01/31 18:18:24.7	355.070	0.600	-0.560	0.620
2020/01/31 18:18:24.8	355.070	0.630	-0.590	0.630
2020/01/31 18:18:24.9	355.080	0.660	-0.600	0.630
2020/01/31 18:18:25.0	355.080	0.680	-0.620	0.630
2020/01/31 18:18:25.1	355.090	0.700	-0.620	0.630
2020/01/31 18:18:25.2	355.090	0.710	-0.630	0.630
2020/01/31 18:18:25.3	355.100	0.720	-0.620	0.630
2020/01/31 18:18:25.4	355.100	0.720	-0.610	0.630
2020/01/31 18:18:25.5	355.100	0.720	-0.600	0.620
2020/01/31 18:18:25.6	355.100	0.700	-0.580	0.620
2020/01/31 18:18:25.7	355.090	0.690	-0.560	0.610
2020/01/31 18:18:25.8	355.090	0.660	-0.530	0.600
2020/01/31 18:18:25.9	355.100	0.630	-0.510	0.590
2020/01/31 18:18:26.0	355.090	0.590	-0.480	0.570
2020/01/31 18:18:26.1	355.090	0.550	-0.450	0.560
2020/01/31 18:18:26.2	355.080	0.500	-0.410	0.530
2020/01/31 18:18:26.3	355.070	0.440	-0.380	0.510
2020/01/31 18:18:26.4	355.060	0.380	-0.350	0.480
2020/01/31 18:18:26.5	355.040	0.320	-0.310	0.450
2020/01/31 18:18:26.6	355.030	0.250	-0.280	0.420
2020/01/31 18:18:26.7	355.020	0.170	-0.260	0.380
2020/01/31 18:18:26.8	355.010	0.090	-0.230	0.330
2020/01/31 18:18:26.9	355.000	0.010	-0.200	0.290
2020/01/31 18:18:27.0	354.990	-0.070	-0.180	0.230
2020/01/31 18:18:27.1	354.980	-0.150	-0.170	0.180
2020/01/31 18:18:27.2	354.980	-0.240	-0.150	0.120
2020/01/31 18:18:27.3	354.970	-0.320	-0.150	0.050
2020/01/31 18:18:27.4	354.970	-0.410	-0.140	-0.020
2020/01/31 18:18:27.5	354.970	-0.490	-0.150	-0.090
2020/01/31 18:18:27.6	354.970	-0.570	-0.150	-0.160
2020/01/31 18:18:27.7	354.970	-0.650	-0.160	-0.240
2020/01/31 18:18:27.8	354.970	-0.720	-0.180	-0.330
2020/01/31 18:18:27.9	354.980	-0.790	-0.200	-0.410
2020/01/31 18:18:28.0	354.990	-0.850	-0.230	-0.500
2020/01/31 18:18:28.1	355.010	-0.910	-0.260	-0.590
2020/01/31 18:18:28.2	355.030	-0.960	-0.290	-0.680
2020/01/31 18:18:28.3	355.050	-1.000	-0.320	-0.770
2020/01/31 18:18:28.4	355.070	-1.040	-0.360	-0.850
2020/01/31 18:18:28.5	355.100	-1.070	-0.390	-0.940
2020/01/31 18:18:28.6	355.120	-1.090	-0.430	-1.020
2020/01/31 18:18:28.7	355.150	-1.110	-0.470	-1.100
2020/01/31 18:18:28.8	355.180	-1.110	-0.500	-1.190
2020/01/31 18:18:28.9	355.220	-1.110	-0.540	-1.260
2020/01/31 18:18:29.0	355.250	-1.100	-0.570	-1.330
2020/01/31 18:18:29.1	355.290	-1.080	-0.600	-1.390
2020/01/31 18:18:29.2	355.320	-1.060	-0.620	-1.440
2020/01/31 18:18:29.3	355.360	-1.030	-0.640	-1.490
2020/01/31 18:18:29.4	355.400	-0.990	-0.660	-1.530
2020/01/31 18:18:29.5	355.430	-0.940	-0.670	-1.560
2020/01/31 18:18:29.6	355.470	-0.890	-0.680	-1.590
2020/01/31 18:18:29.7	355.500	-0.830	-0.680	-1.600
2020/01/31 18:18:29.8	355.540	-0.760	-0.670	-1.610
2020/01/31 18:18:29.9	355.570	-0.700	-0.660	-1.600
2020/01/31 18:18:30.0	355.590	-0.630	-0.640	-1.590
2020/01/31 18:18:30.1	355.610	-0.550	-0.620	-1.570
2020/01/31 18:18:30.2	355.630	-0.480	-0.590	-1.540
2020/01/31 18:18:30.3	355.650	-0.400	-0.550	-1.510
2020/01/31 18:18:30.4	355.660	-0.320	-0.500	-1.460
2020/01/31 18:18:30.5	355.660	-0.240	-0.450	-1.410
2020/01/31 18:18:30.6	355.670	-0.160	-0.400	-1.350
2020/01/31 18:18:30.7	355.660	-0.080	-0.340	-1.280
2020/01/31 18:18:30.8	355.650	-0.010	-0.270	-1.200
2020/01/31 18:18:30.9	355.640	0.070	-0.200	-1.110
2020/01/31 18:18:31.0	355.620	0.140	-0.130	-1.020
2020/01/31 18:18:31.1	355.600	0.200	-0.060	-0.930
2020/01/31 18:18:31.2	355.580	0.270	0.010	-0.830
2020/01/31 18:18:31.3	355.550	0.330	0.090	-0.720
2020/01/31 18:18:31.4	355.520	0.380	0.160	-0.610
2020/01/31 18:18:31.5	355.490	0.430	0.230	-0.490
2020/01/31 18:18:31.6	355.450	0.480	0.300	-0.380
2020/01/31 18:18:31.7	355.420	0.520	0.360	-0.260
2020/01/31 18:18:31.8	355.390	0.550	0.410	-0.140
2020/01/31 18:18:31.9	355.350	0.590	0.470	-0.020
2020/01/31 18:18:32.0	355.310	0.610	0.510	0.100
2020/01/31 18:18:32.1	355.280	0.630	0.550	0.210
2020/01/31 18:18:32.2	355.240	0.650	0.580	0.330
2020/01/31 18:18:32.3	355.210	0.660	0.600	0.430
2020/01/31 18:18:32.4	355.180	0.670	0.610	0.530
2020/01/31 18:18:32.5	355.160	0.670	0.610	0.630
2020/01/31 18:18:32.6	355.130	0.670	0.600	0.720
2020/01/31 18:18:32.7	355.110	0.670	0.580	0.800
2020/01/31 18:18:32.8	355.110	0.660	0.560	0.880
2020/01/31 18:18:32.9	355.090	0.650	0.520	0.940
2020/01/31 18:18:33.0	355.080	0.630	0.480	1.000
2020/01/31 18:18:33.1	355.070	0.610	0.420	1.050
2020/01/31 18:18:33.2	355.070	0.590	0.360	1.080
2020/01/31 18:18:33.3	355.060	0.570	0.290	1.110
2020/01/31 18:18:33.4	355.070	0.550	0.220	1.120
2020/01/31 18:18:33.5	355.070	0.520	0.140	1.130
2020/01/31 18:18:33.6	355.080	0.490	0.050	1.120
2020/01/31 18:18:33.7	355.100	0.460	-0.040	1.110
2020/01/31 18:18:33.8	355.130	0.430	-0.130	1.090
2020/01/31 18:18:33.9	355.150	0.410	-0.220	1.050
2020/01/31 18:18:34.0	355.170	0.380	-0.310	1.010
2020/01/31 18:18:34.1	355.190	0.350	-0.410	0.960
2020/01/31 18:18:34.2	355.220	0.320	-0.500	0.910
2020/01/31 18:18:34.3	355.250	0.290	-0.590	0.850
2020/01/31 18:18:34.4	355.280	0.260	-0.670	0.780
2020/01/31 18:18:34.5	355.320	0.230	-0.750	0.710
2020/01/31 18:18:34.6	355.350	0.200	-0.830	0.640
2020/01/31 18:18:34.7	355.380	0.180	-0.900	0.570
2020/01/31 18:18:34.8	355.410	0.150	-0.960	0.490
2020/01/31 18:18:34.9	355.440	0.130	-1.010	0.420
2020/01/31 18:18:35.0	355.480	0.110	-1.060	0.340
2020/01/31 18:18:35.1	355.510	0.080	-1.090	0.270
2020/01/31 18:18:35.2	355.550	0.060	-1.120	0.200
2020/01/31 18:18:35.3	355.580	0.040	-1.140	0.130
2020/01/31 18:18:35.4	355.610	0.020	-1.150	0.060
2020/01/31 18:18:35.5	355.640	0.000	-1.160	-0.010
2020/01/31 18:18:35.6	355.660	-0.020	-1.150	-0.070
2020/01/31 18:18:35.7	355.690	-0.040	-1.140	-0.130
2020/01/31 18:18:35.8	355.710	-0.060	-1.120	-0.190
2020/01/31 18:18:35.9	355.730	-0.070	-1.100	-0.240
2020/01/31 18:18:36.0	355.750	-0.090	-1.070	-0.290
2020/01/31 18:18:36.1	355.770	-0.110	-1.030	-0.340
2020/01/31 18:18:36.2	355.780	-0.130	-0.990	-0.390
2020/01/31 18:18:36.3	355.790	-0.140	-0.940	-0.430
2020/01/31 18:18:36.4	355.800	-0.160	-0.890	-0.470
2020/01/31 18:18:36.5	355.810	-0.180	-0.840	-0.510
2020/01/31 18:18:36.6	355.810	-0.190	-0.780	-0.540
2020/01/31 18:18:36.7	355.820	-0.210	-0.720	-0.570
2020/01/31 18:18:36.8	355.800	-0.230	-0.660	-0.610
2020/01/31 18:18:36.9	355.810	-0.240	-0.600	-0.630
2020/01/31 18:18:37.0	355.810	-0.260	-0.540	-0.650
2020/01/31 18:18:37.1	355.800	-0.270	-0.470	-0.670
2020/01/31 18:18:37.2	355.800	-0.280	-0.410	-0.680
2020/01/31 18:18:37.3	355.800	-0.300	-0.350	-0.690
2020/01/31 18:18:37.4	355.790	-0.310	-0.290	-0.700
2020/01/31 18:18:37.5	355.790	-0.320	-0.230	-0.700
2020/01/31 18:18:37.6	355.780	-0.330	-0.180	-0.700
2020/01/31 18:18:37.7	355.780	-0.340	-0.120	-0.690
2020/01/31 18:18:37.8	355.760	-0.340	-0.070	-0.680
2020/01/31 18:18:37.9	355.760	-0.340	-0.030	-0.670
2020/01/31 18:18:38.0	355.750	-0.340	0.020	-0.650
2020/01/31 18:18:38.1	355.750	-0.340	0.060	-0.640
2020/01/31 18:18:38.2	355.750	-0.340	0.090	-0.610
2020/01/31 18:18:38.3	355.740	-0.330	0.120	-0.590
2020/01/31 18:18:38.4	355.740	-0.320	0.150	-0.560
2020/01/31 18:18:38.5	355.740	-0.310	0.170	-0.530
2020/01/31 18:18:38.6	355.730	-0.300	0.190	-0.500
2020/01/31 18:18:38.7	355.730	-0.280	0.210	-0.460
2020/01/31 18:18:38.8	355.730	-0.260	0.210	-0.430
2020/01/31 18:18:38.9	355.730	-0.240	0.220	-0.390
2020/01/31 18:18:39.0	355.730	-0.220	0.220	-0.350
2020/01/31 18:18:39.1	355.730	-0.190	0.220	-0.300
2020/01/31 18:18:39.2	355.730	-0.160	0.220	-0.260
2020/01/31 18:18:39.3	355.730	-0.130	0.210	-0.220
2020/01/31 18:18:39.4	355.730	-0.100	0.200	-0.170
2020/01/31 18:18:39.5	355.720	-0.060	0.190	-0.120
2020/01/31 18:18:39.6	355.720	-0.030	0.170	-0.070
2020/01/31 18:18:39.7	355.720	0.010	0.150	-0.030
2020/01/31 18:18:39.8	355.720	0.050	0.140	0.020
2020/01/31 18:18:39.9	355.710	0.080	0.120	0.070
2020/01/31 18:18:40.0	355.710	0.120	0.090	0.110
2020/01/31 18:18:40.1	355.710	0.160	0.070	0.160
2020/01/31 18:18:40.2	355.710	0.190	0.040	0.200
2020/01/31 18:18:40.3	355.710	0.230	0.010	0.250
2020/01/31 18:18:40.4	355.710	0.260	-0.020	0.290
2020/01/31 18:18:40.5	355.710	0.290	-0.050	0.320
2020/01/31 18:18:40.6	355.710	0.320	-0.080	0.360
2020/01/31 18:18:40.7	355.720	0.350	-0.110	0.390
2020/01/31 18:18:40.8	355.710	0.370	-0.140	0.420
2020/01/31 18:18:40.9	355.720	0.390	-0.170	0.450
2020/01/31 18:18:41.0	355.720	0.410	-0.190	0.470
2020/01/31 18:18:41.1	355.730	0.420	-0.220	0.490
2020/01/31 18:18:41.2	355.730	0.440	-0.250	0.510
2020/01/31 18:18:41.3	355.740	0.440	-0.270	0.520
2020/01/31 18:18:41.4	355.740	0.450	-0.290	0.530
2020/01/31 18:18:41.5	355.750	0.440	-0.310	0.540
2020/01/31 18:18:41.6	355.750	0.440	-0.330	0.550
2020/01/31 18:18:41.7	355.750	0.430	-0.340	0.550
2020/01/31 18:18:41.8	355.770	0.410	-0.360	0.560
2020/01/31 18:18:41.9	355.780	0.400	-0.370	0.560
2020/01/31 18:18:42.0	355.780	0.370	-0.370	0.550
2020/01/31 18:18:42.1	355.780	0.350	-0.380	0.550
2020/01/31 18:18:42.2	355.790	0.320	-0.380	0.540
2020/01/31 18:18:42.3	355.790	0.290	-0.380	0.540
2020/01/31 18:18:42.4	355.790	0.250	-0.370	0.530
2020/01/31 18:18:42.5	355.790	0.210	-0.360	0.520
2020/01/31 18:18:42.6	355.790	0.170	-0.350	0.510
2020/01/31 18:18:42.7	355.790	0.120	-0.340	0.490
2020/01/31 18:18:42.8	355.790	0.080	-0.320	0.480
2020/01/31 18:18:42.9	355.790	0.030	-0.300	0.460
2020/01/31 18:18:43.0	355.790	-0.020	-0.290	0.440
2020/01/31 18:18:43.1	355.790	-0.070	-0.270	0.420
2020/01/31 18:18:43.2	355.790	-0.120	-0.250	0.400
2020/01/31 18:18:43.3	355.790	-0.170	-0.230	0.370
2020/01/31 18:18:43.4	355.790	-0.220	-0.200	0.350
2020/01/31 18:18:43.5	355.790	-0.270	-0.180	0.320
2020/01/31 18:18:43.6	355.790	-0.310	-0.160	0.290
2020/01/31 18:18:43.7	355.780	-0.360	-0.140	0.250
2020/01/31 18:18:43.8	355.760	-0.400	-0.130	0.220
2020/01/31 18:18:43.9	355.750	-0.440	-0.110	0.180
2020/01/31 18:18:44.0	355.750	-0.480	-0.090	0.150
2020/01/31 18:18:44.1	355.740	-0.510	-0.070	0.110
2020/01/31 18:18:44.2	355.730	-0.540	-0.050	0.080
2020/01/31 18:18:44.3	355.720	-0.570	-0.040	0.040
2020/01/31 18:18:44.4	355.710	-0.590	-0.020	0.000
2020/01/31 18:18:44.5	355.700	-0.610	-0.010	-0.030
2020/01/31 18:18:44.6	355.690	-0.620	0.000	-0.070
2020/01/31 18:18:44.7	355.680	-0.630	0.010	-0.100
2020/01/31 18:18:44.8	355.670	-0.630	0.030	-0.140
2020/01/31 18:18:44.9	355.660	-0.630	0.030	-0.170
2020/01/31 18:18:45.0	355.650	-0.620	0.040	-0.200
2020/01/31 18:18:45.1	355.640	-0.610	0.040	-0.220
2020/01/31 18:18:45.2	355.620	-0.590	0.040	-0.250
2020/01/31 18:18:45.3	355.610	-0.560	0.040	-0.280
2020/01/31 18:18:45.4	355.610	-0.530	0.030	-0.300
2020/01/31 18:18:45.5	355.600	-0.500	0.020	-0.320
2020/01/31 18:18:45.6	355.590	-0.460	0.010	-0.340
2020/01/31 18:18:45.7	355.580	-0.420	-0.010	-0.350
2020/01/31 18:18:45.8	355.580	-0.370	-0.020	-0.370
2020/01/31 18:18:45.9	355.590	-0.320	-0.050	-0.380
2020/01/31 18:18:46.0	355.580	-0.270	-0.070	-0.390
2020/01/31 18:18:46.1	355.580	-0.210	-0.100	-0.400
2020/01/31 18:18:46.2	355.580	-0.160	-0.120	-0.400
2020/01/31 18:18:46.3	355.580	-0.100	-0.160	-0.410
2020/01/31 18:18:46.4	355.590	-0.040	-0.190	-0.410
2020/01/31 18:18:46.5	355.590	0.020	-0.220	-0.410
2020/01/31 18:18:46.6	355.590	0.080	-0.260	-0.400
2020/01/31 18:18:46.7	355.590	0.140	-0.300	-0.400
2020/01/31 18:18:46.8	355.590	0.200	-0.330	-0.390
2020/01/31 18:18:46.9	355.590	0.250	-0.370	-0.370
2020/01/31 18:18:47.0	355.590	0.310	-0.400	-0.360
2020/01/31 18:18:47.1	355.590	0.360	-0.440	-0.350
2020/01/31 18:18:47.2	355.590	0.410	-0.470	-0.330
2020/01/31 18:18:47.3	355.590	0.450	-0.500	-0.310
2020/01/31 18:18:47.4	355.590	0.490	-0.520	-0.290
2020/01/31 18:18:47.5	355.590	0.520	-0.540	-0.270
2020/01/31 18:18:47.6	355.580	0.550	-0.560	-0.250
2020/01/31 18:18:47.7	355.580	0.570	-0.580	-0.230
2020/01/31 18:18:47.8	355.580	0.590	-0.590	-0.210
2020/01/31 18:18:47.9	355.580	0.600	-0.590	-0.200
2020/01/31 18:18:48.0	355.570	0.610	-0.590	-0.180
2020/01/31 18:18:48.1	355.560	0.610	-0.590	-0.160
2020/01/31 18:18:48.2	355.550	0.610	-0.580	-0.140
2020/01/31 18:18:48.3	355.540	0.600	-0.570	-0.120
2020/01/31 18:18:48.4	355.530	0.590	-0.550	-0.110
2020/01/31 18:18:48.5	355.520	0.570	-0.530	-0.090
2020/01/31 18:18:48.6	355.510	0.540	-0.500	-0.080
2020/01/31 18:18:48.7	355.500	0.510	-0.470	-0.070
2020/01/31 18:18:48.8	355.490	0.480	-0.440	-0.050
2020/01/31 18:18:48.9	355.470	0.440	-0.410	-0.040
2020/01/31 18:18:49.0	355.460	0.400	-0.380	-0.030
2020/01/31 18:18:49.1	355.450	0.360	-0.340	-0.020
2020/01/31 18:18:49.2	355.430	0.310	-0.310	-0.010
2020/01/31 18:18:49.3	355.420	0.260	-0.270	-0.010
2020/01/31 18:18:49.4	355.410	0.210	-0.240	-0.000
2020/01/31 18:18:49.5	355.400	0.160	-0.210	-0.000
2020/01/31 18:18:49.6	355.390	0.110	-0.180	0.000
2020/01/31 18:18:49.7	355.390	0.060	-0.150	0.000
2020/01/31 18:18:49.8	355.370	0.020	-0.130	-0.000
2020/01/31 18:18:49.9	355.370	-0.030	-0.110	-0.010
2020/01/31 18:18:50.0	355.370	-0.080	-0.090	-0.010
2020/01/31 18:18:50.1	355.370	-0.120	-0.080	-0.020
2020/01/31 18:18:50.2	355.370	-0.160	-0.080	-0.020
2020/01/31 18:18:50.3	355.380	-0.190	-0.080	-0.030
2020/01/31 18:18:50.4	355.390	-0.220	-0.080	-0.040
2020/01/31 18:18:50.5	355.410	-0.250	-0.090	-0.050
2020/01/31 18:18:50.6	355.420	-0.270	-0.110	-0.060
2020/01/31 18:18:50.7	355.440	-0.290	-0.130	-0.080
2020/01/31 18:18:50.8	355.470	-0.300	-0.160	-0.090
2020/01/31 18:18:50.9	355.490	-0.300	-0.180	-0.100
2020/01/31 18:18:51.0	355.510	-0.310	-0.220	-0.120
2020/01/31 18:18:51.1	355.540	-0.300	-0.250	-0.130
2020/01/31 18:18:51.2	355.560	-0.290	-0.290	-0.150
2020/01/31 18:18:51.3	355.590	-0.280	-0.330	-0.160
2020/01/31 18:18:51.4	355.620	-0.270	-0.370	-0.180
2020/01/31 18:18:51.5	355.640	-0.250	-0.410	-0.200
2020/01/31 18:18:51.6	355.670	-0.220	-0.450	-0.210
2020/01/31 18:18:51.7	355.700	-0.190	-0.490	-0.230
2020/01/31 18:18:51.8	355.730	-0.170	-0.520	-0.250
2020/01/31 18:18:51.9	355.760	-0.130	-0.560	-0.260
2020/01/31 18:18:52.0	355.790	-0.100	-0.590	-0.280
2020/01/31 18:18:52.1	355.820	-0.070	-0.620	-0.290
2020/01/31 18:18:52.2	355.840	-0.030	-0.650	-0.310
2020/01/31 18:18:52.3	355.870	0.010	-0.670	-0.320
2020/01/31 18:18:52.4	355.900	0.040	-0.690	-0.330
2020/01/31 18:18:52.5	355.930	0.080	-0.710	-0.340
2020/01/31 18:18:52.6	355.960	0.120	-0.720	-0.350
2020/01/31 18:18:52.7	355.990	0.150	-0.730	-0.360
2020/01/31 18:18:52.8	356.030	0.180	-0.740	-0.370
2020/01/31 18:18:52.9	356.050	0.210	-0.740	-0.370
2020/01/31 18:18:53.0	356.070	0.240	-0.730	-0.370
2020/01/31 18:18:53.1	356.090	0.270	-0.720	-0.370
2020/01/31 18:18:53.2	356.110	0.290	-0.700	-0.360
2020/01/31 18:18:53.3	356.130	0.310	-0.680	-0.350
2020/01/31 18:18:53.4	356.140	0.320	-0.650	-0.340
2020/01/31 18:18:53.5	356.150	0.330	-0.620	-0.320
2020/01/31 18:18:53.6	356.150	0.330	-0.590	-0.310
2020/01/31 18:18:53.7	356.150	0.330	-0.540	-0.290
2020/01/31 18:18:53.8	356.160	0.330	-0.500	-0.260
2020/01/31 18:18:53.9	356.150	0.310	-0.450	-0.240
2020/01/31 18:18:54.0	356.140	0.300	-0.390	-0.210
2020/01/31 18:18:54.1	356.130	0.280	-0.340	-0.190
2020/01/31 18:18:54.2	356.110	0.250	-0.280	-0.170
2020/01/31 18:18:54.3	356.100	0.230	-0.220	-0.140
2020/01/31 18:18:54.4	356.070	0.190	-0.160	-0.120
2020/01/31 18:18:54.5	356.050	0.160	-0.100	-0.100
2020/01/31 18:18:54.6	356.020	0.120	-0.030	-0.090
2020/01/31 18:18:54.7	355.990	0.070	0.030	-0.070
2020/01/31 18:18:54.8	355.960	0.030	0.090	-0.060
2020/01/31 18:18:54.9	355.930	-0.020	0.140	-0.050
2020/01/31 18:18:55.0	355.890	-0.070	0.200	-0.050
2020/01/31 18:18:55.1	355.850	-0.120	0.260	-0.040
2020/01/31 18:18:55.2	355.810	-0.170	0.310	-0.040
2020/01/31 18:18:55.3	355.770	-0.220	0.360	-0.030
2020/01/31 18:18:55.4	355.730	-0.270	0.400	-0.030
2020/01/31 18:18:55.5	355.680	-0.320	0.440	-0.040
2020/01/31 18:18:55.6	355.640	-0.370	0.480	-0.040
2020/01/31 18:18:55.7	355.590	-0.420	0.510	-0.050
2020/01/31 18:18:55.8	355.540	-0.460	0.550	-0.050
2020/01/31 18:18:55.9	355.500	-0.500	0.570	-0.060
2020/01/31 18:18:56.0	355.450	-0.540	0.590	-0.070
2020/01/31 18:18:56.1	355.410	-0.570	0.610	-0.080
2020/01/31 18:18:56.2	355.360	-0.600	0.620	-0.090
2020/01/31 18:18:56.3	355.320	-0.620	0.630	-0.100
2020/01/31 18:18:56.4	355.280	-0.640	0.630	-0.110
2020/01/31 18:18:56.5	355.240	-0.650	0.620	-0.120
2020/01/31 18:18:56.6	355.200	-0.660	0.620	-0.120
2020/01/31 18:18:56.7	355.170	-0.660	0.600	-0.130
2020/01/31 18:18:56.8	355.130	-0.660	0.580	-0.140
2020/01/31 18:18:56.9	355.100	-0.650	0.560	-0.150
2020/01/31 18:18:57.0	355.080	-0.630	0.530	-0.160
2020/01/31 18:18:57.1	355.050	-0.610	0.500	-0.160
2020/01/31 18:18:57.2	355.030	-0.580	0.470	-0.170
2020/01/31 18:18:57.3	355.010	-0.540	0.430	-0.170
2020/01/31 18:18:57.4	354.990	-0.500	0.390	-0.170
2020/01/31 18:18:57.5	354.980	-0.460	0.340	-0.170
2020/01/31 18:18:57.6	354.960	-0.410	0.290	-0.170
2020/01/31 18:18:57.7	354.950	-0.350	0.240	-0.160
2020/01/31 18:18:57.8	354.940	-0.300	0.190	-0.160
2020/01/31 18:18:57.9	354.940	-0.230	0.130	-0.150
2020/01/31 18:18:58.0	354.930	-0.170	0.080	-0.130
2020/01/31 18:18:58.1	354.930	-0.100	0.020	-0.120
2020/01/31 18:18:58.2	354.920	-0.030	-0.040	-0.100
2020/01/31 18:18:58.3	354.920	0.040	-0.090	-0.080
2020/01/31 18:18:58.4	354.920	0.120	-0.150	-0.060
2020/01/31 18:18:58.5	354.920	0.190	-0.210	-0.030
2020/01/31 18:18:58.6	354.920	0.260	-0.260	-0.000
2020/01/31 18:18:58.7	354.920	0.330	-0.320	0.030
2020/01/31 18:18:58.8	354.920	0.400	-0.370	0.070
2020/01/31 18:18:58.9	354.920	0.470	-0.420	0.100
2020/01/31 18:18:59.0	354.920	0.530	-0.460	0.140
2020/01/31 18:18:59.1	354.920	0.590	-0.510	0.180
2020/01/31 18:18:59.2	354.930	0.650	-0.550	0.220
2020/01/31 18:18:59.3	354.930	0.700	-0.590	0.250
2020/01/31 18:18:59.4	354.940	0.750	-0.630	0.290
2020/01/31 18:18:59.5	354.950	0.790	-0.670	0.330
2020/01/31 18:18:59.6	354.960	0.830	-0.700	0.360
2020/01/31 18:18:59.7	354.970	0.860	-0.730	0.390
2020/01/31 18:18:59.8	354.990	0.880	-0.750	0.420
2020/01/31 18:18:59.9	355.010	0.900	-0.780	0.440
2020/01/31 18:19:00.0	355.030	0.910	-0.810	0.460
2020/01/31 18:19:00.1	355.050	0.920	-0.830	0.480
2020/01/31 18:19:00.2	355.070	0.910	-0.850	0.490
2020/01/31 18:19:00.3	355.090	0.900	-0.870	0.500
2020/01/31 18:19:00.4	355.120	0.890	-0.890	0.500
2020/01/31 18:19:00.5	355.140	0.870	-0.900	0.500
2020/01/31 18:19:00.6	355.170	0.840	-0.920	0.500
2020/01/31 18:19:00.7	355.200	0.800	-0.930	0.490
2020/01/31 18:19:00.8	355.220	0.760	-0.940	0.480
2020/01/31 18:19:00.9	355.240	0.720	-0.950	0.460
2020/01/31 18:19:01.0	355.270	0.660	-0.960	0.430
2020/01/31 18:19:01.1	355.300	0.610	-0.960	0.400
2020/01/31 18:19:01.2	355.320	0.540	-0.970	0.370
2020/01/31 18:19:01.3	355.350	0.480	-0.970	0.330
2020/01/31 18:19:01.4	355.380	0.410	-0.960	0.290
2020/01/31 18:19:01.5	355.400	0.330	-0.960	0.250
2020/01/31 18:19:01.6	355.420	0.250	-0.950	0.200
2020/01/31 18:19:01.7	355.450	0.170	-0.940	0.150
2020/01/31 18:19:01.8	355.480	0.090	-0.920	0.100
2020/01/31 18:19:01.9	355.500	0.010	-0.910	0.040
2020/01/31 18:19:02.0	355.530	-0.080	-0.890	-0.020
2020/01/31 18:19:02.1	355.550	-0.160	-0.870	-0.080
2020/01/31 18:19:02.2	355.570	-0.250	-0.840	-0.140
2020/01/31 18:19:02.3	355.590	-0.330	-0.820	-0.200
2020/01/31 18:19:02.4	355.610	-0.410	-0.790	-0.260
2020/01/31 18:19:02.5	355.630	-0.500	-0.760	-0.330
2020/01/31 18:19:02.6	355.650	-0.570	-0.720	-0.400
2020/01/31 18:19:02.7	355.670	-0.650	-0.680	-0.460
2020/01/31 18:19:02.8	355.680	-0.720	-0.650	-0.530
2020/01/31 18:19:02.9	355.700	-0.790	-0.610	-0.590
2020/01/31 18:19:03.0	355.720	-0.850	-0.560	-0.650
2020/01/31 18:19:03.1	355.740	-0.910	-0.520	-0.710
2020/01/31 18:19:03.2	355.750	-0.960	-0.470	-0.770
2020/01/31 18:19:03.3	355.770	-1.000	-0.420	-0.820
2020/01/31 18:19:03.4	355.780	-1.040	-0.370	-0.870
2020/01/31 18:19:03.5	355.790	-1.080	-0.320	-0.920
2020/01/31 18:19:03.6	355.810	-1.110	-0.260	-0.950
2020/01/31 18:19:03.7	355.810	-1.130	-0.210	-0.990
2020/01/31 18:19:03.8	355.810	-1.140	-0.150	-1.020
2020/01/31 18:19:03.9	355.820	-1.150	-0.090	-1.040
2020/01/31 18:19:04.0	355.820	-1.150	-0.030	-1.060
2020/01/31 18:19:04.1	355.820	-1.140	0.030	-1.060
2020/01/31 18:19:04.2	355.820	-1.130	0.100	-1.060
2020/01/31 18:19:04.3	355.810	-1.110	0.160	-1.050
2020/01/31 18:19:04.4	355.800	-1.080	0.220	-1.030
2020/01/31 18:19:04.5	355.790	-1.050	0.290	-1.000
2020/01/31 18:19:04.6	355.770	-1.010	0.350	-0.970
2020/01/31 18:19:04.7	355.750	-0.960	0.410	-0.930
2020/01/31 18:19:04.8	355.740	-0.910	0.460	-0.880
2020/01/31 18:19:04.9	355.720	-0.850	0.520	-0.820
2020/01/31 18:19:05.0	355.690	-0.790	0.570	-0.760
2020/01/31 18:19:05.1	355.660	-0.720	0.610	-0.700
2020/01/31 18:19:05.2	355.630	-0.650	0.660	-0.620
2020/01/31 18:19:05.3	355.590	-0.570	0.690	-0.540
2020/01/31 18:19:05.4	355.560	-0.500	0.720	-0.460
2020/01/31 18:19:05.5	355.520	-0.410	0.740	-0.370
2020/01/31 18:19:05.6	355.480	-0.330	0.760	-0.280
2020/01/31 18:19:05.7	355.440	-0.240	0.770	-0.190
2020/01/31 18:19:05.8	355.400	-0.150	0.780	-0.090
2020/01/31 18:19:05.9	355.360	-0.060	0.770	0.010
2020/01/31 18:19:06.0	355.320	0.030	0.760	0.110
2020/01/31 18:19:06.1	355.280	0.120	0.730	0.210
2020/01/31 18:19:06.2	355.240	0.210	0.700	0.310
2020/01/31 18:19:06.3	355.200	0.290	0.660	0.400
2020/01/31 18:19:06.4	355.160	0.380	0.620	0.500
2020/01/31 18:19:06.5	355.120	0.470	0.560	0.590
2020/01/31 18:19:06.6	355.080	0.550	0.500	0.680
2020/01/31 18:19:06.7	355.040	0.630	0.440	0.760
2020/01/31 18:19:06.8	355.010	0.700	0.360	0.840
2020/01/31 18:19:06.9	354.980	0.770	0.290	0.920
2020/01/31 18:19:07.0	354.950	0.840	0.210	0.990
2020/01/31 18:19:07.1	354.920	0.900	0.130	1.050
2020/01/31 18:19:07.2	354.900	0.960	0.040	1.110
2020/01/31 18:19:07.3	354.870	1.010	-0.040	1.170
2020/01/31 18:19:07.4	354.850	1.050	-0.130	1.210
2020/01/31 18:19:07.5	354.830	1.090	-0.210	1.250
2020/01/31 18:19:07.6	354.820	1.120	-0.300	1.280
2020/01/31 18:19:07.7	354.810	1.140	-0.380	1.310
2020/01/31 18:19:07.8	354.800	1.160	-0.450	1.330
2020/01/31 18:19:07.9	354.790	1.170	-0.530	1.340
2020/01/31 18:19:08.0	354.790	1.170	-0.600	1.350
2020/01/31 18:19:08.1	354.790	1.170	-0.670	1.350
2020/01/31 18:19:08.2	354.790	1.160	-0.730	1.340
2020/01/31 18:19:08.3	354.800	1.140	-0.780	1.330
2020/01/31 18:19:08.4	354.810	1.120	-0.830	1.310
2020/01/31 18:19:08.5	354.820	1.090	-0.870	1.290
2020/01/31 18:19:08.6	354.830	1.060	-0.910	1.260
2020/01/31 18:19:08.7	354.850	1.020	-0.940	1.230
2020/01/31 18:19:08.8	354.880	0.970	-0.960	1.190
2020/01/31 18:19:08.9	354.900	0.920	-0.970	1.140
2020/01/31 18:19:09.0	354.930	0.860	-0.980	1.090
2020/01/31 18:19:09.1	354.960	0.800	-0.990	1.040
2020/01/31 18:19:09.2	354.990	0.740	-0.980	0.990
2020/01/31 18:19:09.3	355.030	0.670	-0.980	0.930
2020/01/31 18:19:09.4	355.060	0.600	-0.960	0.860
2020/01/31 18:19:09.5	355.100	0.530	-0.940	0.800
2020/01/31 18:19:09.6	355.140	0.460	-0.920	0.730
2020/01/31 18:19:09.7	355.180	0.380	-0.890	0.660
2020/01/31 18:19:09.8	355.200	0.310	-0.860	0.580
2020/01/31 18:19:09.9	355.240	0.230	-0.820	0.510
2020/01/31 18:19:10.0	355.280	0.160	-0.790	0.430
2020/01/31 18:19:10.1	355.320	0.080	-0.750	0.360
2020/01/31 18:19:10.2	355.360	0.010	-0.710	0.280
2020/01/31 18:19:10.3	355.400	-0.060	-0.660	0.200
2020/01/31 18:19:10.4	355.430	-0.130	-0.620	0.130
2020/01/31 18:19:10.5	355.470	-0.200	-0.570	0.060
2020/01/31 18:19:10.6	355.500	-0.270	-0.520	-0.020
2020/01/31 18:19:10.7	355.530	-0.330	-0.470	-0.090
2020/01/31 18:19:10.8	355.580	-0.390	-0.430	-0.160
2020/01/31 18:19:10.9	355.610	-0.450	-0.380	-0.220
2020/01/31 18:19:11.0	355.630	-0.500	-0.340	-0.290
2020/01/31 18:19:11.1	355.650	-0.550	-0.290	-0.350
2020/01/31 18:19:11.2	355.670	-0.590	-0.250	-0.400
2020/01/31 18:19:11.3	355.680	-0.630	-0.200	-0.450
2020/01/31 18:19:11.4	355.690	-0.670	-0.160	-0.500
2020/01/31 18:19:11.5	355.700	-0.700	-0.120	-0.550
2020/01/31 18:19:11.6	355.710	-0.730	-0.090	-0.590
2020/01/31 18:19:11.7	355.710	-0.750	-0.060	-0.630
2020/01/31 18:19:11.8	355.720	-0.770	-0.020	-0.670
2020/01/31 18:19:11.9	355.720	-0.790	0.000	-0.700
2020/01/31 18:19:12.0	355.720	-0.800	0.030	-0.730
2020/01/31 18:19:12.1	355.720	-0.800	0.040	-0.760
2020/01/31 18:19:12.2	355.710	-0.800	0.060	-0.780
2020/01/31 18:19:12.3	355.710	-0.800	0.060	-0.800
2020/01/31 18:19:12.4	355.710	-0.790	0.070	-0.820
2020/01/31 18:19:12.5	355.700	-0.780	0.070	-0.840
2020/01/31 18:19:12.6	355.700	-0.770	0.060	-0.850
2020/01/31 18:19:12.7	355.700	-0.750	0.060	-0.860
2020/01/31 18:19:12.8	355.690	-0.730	0.040	-0.880
2020/01/31 18:19:12.9	355.690	-0.700	0.030	-0.890
2020/01/31 18:19:13.0	355.690	-0.670	0.010	-0.890
2020/01/31 18:19:13.1	355.690	-0.640	-0.010	-0.890
2020/01/31 18:19:13.2	355.690	-0.610	-0.040	-0.890
2020/01/31 18:19:13.3	355.690	-0.570	-0.060	-0.890
2020/01/31 18:19:13.4	355.690	-0.530	-0.090	-0.880
2020/01/31 18:19:13.5	355.690	-0.490	-0.120	-0.880
2020/01/31 18:19:13.6	355.690	-0.450	-0.150	-0.860
2020/01/31 18:19:13.7	355.700	-0.400	-0.170	-0.850
2020/01/31 18:19:13.8	355.710	-0.360	-0.200	-0.830
2020/01/31 18:19:13.9	355.710	-0.310	-0.220	-0.810
2020/01/31 18:19:14.0	355.710	-0.270	-0.250	-0.790
2020/01/31 18:19:14.1	355.710	-0.220	-0.270	-0.760
2020/01/31 18:19:14.2	355.710	-0.180	-0.290	-0.730
2020/01/31 18:19:14.3	355.710	-0.130	-0.300	-0.690
2020/01/31 18:19:14.4	355.710	-0.090	-0.310	-0.650
2020/01/31 18:19:14.5	355.710	-0.040	-0.310	-0.610
2020/01/31 18:19:14.6	355.700	0.000	-0.320	-0.560
2020/01/31 18:19:14.7	355.700	0.040	-0.310	-0.510
2020/01/31 18:19:14.8	355.680	0.080	-0.300	-0.460
2020/01/31 18:19:14.9	355.670	0.120	-0.290	-0.400
2020/01/31 18:19:15.0	355.660	0.150	-0.270	-0.330
2020/01/31 18:19:15.1	355.640	0.180	-0.250	-0.260
2020/01/31 18:19:15.2	355.620	0.210	-0.220	-0.190
2020/01/31 18:19:15.3	355.590	0.240	-0.180	-0.110
2020/01/31 18:19:15.4	355.570	0.260	-0.150	-0.030
2020/01/31 18:19:15.5	355.540	0.280	-0.110	0.050
2020/01/31 18:19:15.6	355.510	0.300	-0.060	0.130
2020/01/31 18:19:15.7	355.470	0.310	-0.020	0.210
2020/01/31 18:19:15.8	355.440	0.320	0.030	0.300
2020/01/31 18:19:15.9	355.400	0.320	0.080	0.390
2020/01/31 18:19:16.0	355.370	0.330	0.130	0.470
2020/01/31 18:19:16.1	355.330	0.330	0.180	0.560
2020/01/31 18:19:16.2	355.290	0.320	0.220	0.640
2020/01/31 18:19:16.3	355.250	0.320	0.270	0.720
2020/01/31 18:19:16.4	355.210	0.310	0.310	0.790
2020/01/31 18:19:16.5	355.170	0.300	0.340	0.860
2020/01/31 18:19:16.6	355.130	0.290	0.380	0.930
2020/01/31 18:19:16.7	355.100	0.270	0.400	0.990
2020/01/31 18:19:16.8	355.070	0.260	0.420	1.040
2020/01/31 18:19:16.9	355.040	0.240	0.440	1.090
2020/01/31 18:19:17.0	355.020	0.220	0.440	1.130
2020/01/31 18:19:17.1	355.000	0.210	0.440	1.170
2020/01/31 18:19:17.2	354.980	0.190	0.430	1.190
2020/01/31 18:19:17.3	354.970	0.180	0.410	1.200
2020/01/31 18:19:17.4	354.970	0.160	0.380	1.210
2020/01/31 18:19:17.5	354.970	0.150	0.350	1.210
2020/01/31 18:19:17.6	354.970	0.130	0.300	1.200
2020/01/31 18:19:17.7	354.980	0.120	0.250	1.180
2020/01/31 18:19:17.8	354.980	0.110	0.190	1.150
2020/01/31 18:19:17.9	355.000	0.110	0.120	1.120
2020/01/31 18:19:18.0	355.020	0.100	0.050	1.080
2020/01/31 18:19:18.1	355.040	0.100	-0.030	1.030
2020/01/31 18:19:18.2	355.070	0.100	-0.110	0.980
2020/01/31 18:19:18.3	355.090	0.100	-0.200	0.920
2020/01/31 18:19:18.4	355.120	0.100	-0.290	0.860
2020/01/31 18:19:18.5	355.160	0.110	-0.380	0.800
2020/01/31 18:19:18.6	355.190	0.110	-0.470	0.730
2020/01/31 18:19:18.7	355.220	0.120	-0.560	0.660
2020/01/31 18:19:18.8	355.240	0.130	-0.640	0.590
2020/01/31 18:19:18.9	355.280	0.150	-0.730	0.520
2020/01/31 18:19:19.0	355.310	0.160	-0.810	0.460
2020/01/31 18:19:19.1	355.350	0.170	-0.880	0.390
2020/01/31 18:19:19.2	355.380	0.190	-0.950	0.320
2020/01/31 18:19:19.3	355.420	0.200	-1.010	0.260
2020/01/31 18:19:19.4	355.450	0.220	-1.060	0.200
2020/01/31 18:19:19.5	355.490	0.230	-1.110	0.140
2020/01/31 18:19:19.6	355.520	0.250	-1.150	0.080
2020/01/31 18:19:19.7	355.550	0.260	-1.170	0.020
2020/01/31 18:19:19.8	355.580	0.270	-1.200	-0.040
2020/01/31 18:19:19.9	355.610	0.280	-1.210	-0.090
2020/01/31 18:19:20.0	355.640	0.290	-1.210	-0.130
2020/01/31 18:19:20.1	355.670	0.290	-1.210	-0.180
2020/01/31 18:19:20.2	355.700	0.290	-1.190	-0.220
2020/01/31 18:19:20.3	355.730	0.290	-1.170	-0.260
2020/01/31 18:19:20.4	355.750	0.290	-1.140	-0.300
2020/01/31 18:19:20.5	355.780	0.280	-1.110	-0.330
2020/01/31 18:19:20.6	355.800	0.270	-1.070	-0.360
2020/01/31 18:19:20.7	355.820	0.260	-1.020	-0.390
2020/01/31 18:19:20.8	355.850	0.240	-0.970	-0.410
2020/01/31 18:19:20.9	355.870	0.230	-0.920	-0.440
2020/01/31 18:19:21.0	355.890	0.210	-0.860	-0.450
2020/01/31 18:19:21.1	355.900	0.180	-0.800	-0.470
2020/01/31 18:19:21.2	355.920	0.160	-0.740	-0.490
2020/01/31 18:19:21.3	355.930	0.130	-0.670	-0.500
2020/01/31 18:19:21.4	355.950	0.100	-0.610	-0.510
2020/01/31 18:19:21.5	355.960	0.070	-0.540	-0.520
2020/01/31 18:19:21.6	355.970	0.040	-0.480	-0.520
2020/01/31 18:19:21.7	355.980	0.000	-0.420	-0.530
2020/01/31 18:19:21.8	355.980	-0.030	-0.360	-0.530
2020/01/31 18:19:21.9	355.990	-0.060	-0.300	-0.530
2020/01/31 18:19:22.0	356.000	-0.100	-0.240	-0.530
2020/01/31 18:19:22.1	356.010	-0.130	-0.180	-0.520
2020/01/31 18:19:22.2	356.010	-0.160	-0.130	-0.520
2020/01/31 18:19:22.3	356.010	-0.190	-0.080	-0.510
2020/01/31 18:19:22.4	356.020	-0.220	-0.030	-0.500
2020/01/31 18:19:22.5	356.020	-0.250	0.020	-0.480
2020/01/31 18:19:22.6	356.010	-0.280	0.060	-0.470
2020/01/31 18:19:22.7	356.010	-0.300	0.100	-0.450
2020/01/31 18:19:22.8	356.000	-0.330	0.140	-0.440
2020/01/31 18:19:22.9	355.990	-0.350	0.170	-0.410
2020/01/31 18:19:23.0	355.980	-0.360	0.200	-0.390
2020/01/31 18:19:23.1	355.970	-0.380	0.230	-0.360
2020/01/31 18:19:23.2	355.960	-0.390	0.260	-0.330
2020/01/31 18:19:23.3	355.940	-0.400	0.290	-0.300
2020/01/31 18:19:23.4	355.920	-0.410	0.310	-0.270
2020/01/31 18:19:23.5	355.900	-0.410	0.330	-0.240
2020/01/31 18:19:23.6	355.880	-0.410	0.350	-0.200
2020/01/31 18:19:23.7	355.860	-0.410	0.360	-0.160
2020/01/31 18:19:23.8	355.840	-0.400	0.380	-0.120
2020/01/31 18:19:23.9	355.810	-0.390	0.390	-0.080
2020/01/31 18:19:24.0	355.780	-0.380	0.400	-0.040
2020/01/31 18:19:24.1	355.750	-0.370	0.400	-0.000
2020/01/31 18:19:24.2	355.720	-0.360	0.410	0.040
2020/01/31 18:19:24.3	355.700	-0.340	0.410	0.080
2020/01/31 18:19:24.4	355.670	-0.320	0.410	0.110
2020/01/31 18:19:24.5	355.640	-0.300	0.400	0.150
2020/01/31 18:19:24.6	355.610	-0.270	0.390	0.180
2020/01/31 18:19:24.7	355.580	-0.250	0.380	0.210
2020/01/31 18:19:24.8	355.550	-0.220	0.370	0.240
2020/01/31 18:19:24.9	355.530	-0.190	0.350	0.260
2020/01/31 18:19:25.0	355.510	-0.170	0.330	0.280
2020/01/31 18:19:25.1	355.490	-0.140	0.310	0.300
2020/01/31 18:19:25.2	355.470	-0.110	0.280	0.320
2020/01/31 18:19:25.3	355.450	-0.080	0.250	0.330
2020/01/31 18:19:25.4	355.440	-0.050	0.210	0.330
2020/01/31 18:19:25.5	355.440	-0.020	0.170	0.340
2020/01/31 18:19:25.6	355.430	0.010	0.130	0.340
2020/01/31 18:19:25.7	355.430	0.040	0.090	0.330
2020/01/31 18:19:25.8	355.430	0.070	0.040	0.330
2020/01/31 18:19:25.9	355.440	0.090	-0.000	0.320
2020/01/31 18:19:26.0	355.440	0.120	-0.050	0.310
2020/01/31 18:19:26.1	355.460	0.150	-0.100	0.290
2020/01/31 18:19:26.2	355.470	0.170	-0.150	0.280
2020/01/31 18:19:26.3	355.480	0.200	-0.200	0.270
2020/01/31 18:19:26.4	355.500	0.220	-0.250	0.260
2020/01/31 18:19:26.5	355.520	0.240	-0.300	0.250
2020/01/31 18:19:26.6	355.530	0.260	-0.350	0.230
2020/01/31 18:19:26.7	355.550	0.280	-0.390	0.220
2020/01/31 18:19:26.8	355.560	0.300	-0.430	0.210
2020/01/31 18:19:26.9	355.580	0.320	-0.470	0.210
2020/01/31 18:19:27.0	355.590	0.330	-0.500	0.200
2020/01/31 18:19:27.1	355.600	0.340	-0.530	0.200
2020/01/31 18:19:27.2	355.610	0.350	-0.550	0.200
2020/01/31 18:19:27.3	355.620	0.360	-0.570	0.200
2020/01/31 18:19:27.4	355.630	0.360	-0.580	0.210
2020/01/31 18:19:27.5	355.630	0.370	-0.580	0.210
2020/01/31 18:19:27.6	355.630	0.370	-0.580	0.220
2020/01/31 18:19:27.7	355.630	0.370	-0.570	0.230
2020/01/31 18:19:27.8	355.620	0.370	-0.560	0.240
2020/01/31 18:19:27.9	355.610	0.360	-0.550	0.260
2020/01/31 18:19:28.0	355.600	0.360	-0.530	0.270
2020/01/31 18:19:28.1	355.590	0.350	-0.500	0.290
2020/01/31 18:19:28.2	355.580	0.340	-0.480	0.310
2020/01/31 18:19:28.3	355.560	0.330	-0.450	0.320
2020/01/31 18:19:28.4	355.550	0.320	-0.420	0.340
2020/01/31 18:19:28.5	355.540	0.310	-0.380	0.360
2020/01/31 18:19:28.6	355.520	0.290	-0.350	0.380
2020/01/31 18:19:28.7	355.510	0.280	-0.320	0.390
2020/01/31 18:19:28.8	355.490	0.260	-0.290	0.410
2020/01/31 18:19:28.9	355.480	0.250	-0.260	0.420
2020/01/31 18:19:29.0	355.480	0.240	-0.240	0.430
2020/01/31 18:19:29.1	355.470	0.220	-0.210	0.430
2020/01/31 18:19:29.2	355.470	0.210	-0.190	0.440
2020/01/31 18:19:29.3	355.470	0.190	-0.180	0.440
2020/01/31 18:19:29.4	355.470	0.180	-0.170	0.430
2020/01/31 18:19:29.5	355.470	0.170	-0.160	0.430
2020/01/31 18:19:29.6	355.480	0.150	-0.160	0.410
2020/01/31 18:19:29.7	355.490	0.140	-0.160	0.400
2020/01/31 18:19:29.8	355.510	0.130	-0.170	0.380
2020/01/31 18:19:29.9	355.520	0.120	-0.180	0.370
2020/01/31 18:19:30.0	355.530	0.110	-0.190	0.350
2020/01/31 18:19:30.1	355.550	0.100	-0.210	0.320
2020/01/31 18:19:30.2	355.560	0.090	-0.230	0.300
2020/01/31 18:19:30.3	355.580	0.080	-0.250	0.270
2020/01/31 18:19:30.4	355.600	0.070	-0.270	0.240
2020/01/31 18:19:30.5	355.610	0.060	-0.300	0.210
2020/01/31 18:19:30.6	355.630	0.050	-0.330	0.180
2020/01/31 18:19:30.7	355.640	0.040	-0.350	0.150
2020/01/31 18:19:30.8	355.640	0.030	-0.370	0.110
2020/01/31 18:19:30.9	355.660	0.020	-0.400	0.070
2020/01/31 18:19:31.0	355.670	0.010	-0.420	0.030
2020/01/31 18:19:31.1	355.690	-0.010	-0.440	-0.000
2020/01/31 18:19:31.2	355.700	-0.020	-0.460	-0.050
2020/01/31 18:19:31.3	355.710	-0.040	-0.480	-0.090
2020/01/31 18:19:31.4	355.720	-0.060	-0.500	-0.130
2020/01/31 18:19:31.5	355.740	-0.080	-0.510	-0.170
2020/01/31 18:19:31.6	355.750	-0.090	-0.510	-0.220
2020/01/31 18:19:31.7	355.760	-0.110	-0.520	-0.260
2020/01/31 18:19:31.8	355.760	-0.140	-0.520	-0.300
2020/01/31 18:19:31.9	355.770	-0.160	-0.520	-0.350
2020/01/31 18:19:32.0	355.780	-0.180	-0.510	-0.390
2020/01/31 18:19:32.1	355.790	-0.200	-0.500	-0.420
2020/01/31 18:19:32.2	355.800	-0.220	-0.490	-0.460
2020/01/31 18:19:32.3	355.810	-0.240	-0.480	-0.490
2020/01/31 18:19:32.4	355.820	-0.260	-0.460	-0.530
2020/01/31 18:19:32.5	355.830	-0.280	-0.440	-0.560
2020/01/31 18:19:32.6	355.840	-0.300	-0.420	-0.580
2020/01/31 18:19:32.7	355.860	-0.320	-0.400	-0.610
2020/01/31 18:19:32.8	355.890	-0.340	-0.380	-0.630
2020/01/31 18:19:32.9	355.900	-0.350	-0.350	-0.650
2020/01/31 18:19:33.0	355.920	-0.370	-0.330	-0.670
2020/01/31 18:19:33.1	355.930	-0.380	-0.310	-0.690
2020/01/31 18:19:33.2	355.950	-0.390	-0.290	-0.700
2020/01/31 18:19:33.3	355.970	-0.390	-0.260	-0.710
2020/01/31 18:19:33.4	355.980	-0.400	-0.250	-0.720
2020/01/31 18:19:33.5	356.000	-0.400	-0.230	-0.720
2020/01/31 18:19:33.6	356.020	-0.400	-0.210	-0.730
2020/01/31 18:19:33.7	356.040	-0.390	-0.200	-0.730
2020/01/31 18:19:33.8	356.050	-0.390	-0.190	-0.730
2020/01/31 18:19:33.9	356.070	-0.380	-0.180	-0.720
2020/01/31 18:19:34.0	356.090	-0.360	-0.170	-0.720
2020/01/31 18:19:34.1	356.100	-0.350	-0.170	-0.710
2020/01/31 18:19:34.2	356.120	-0.330	-0.160	-0.700
2020/01/31 18:19:34.3	356.130	-0.310	-0.160	-0.690
2020/01/31 18:19:34.4	356.140	-0.290	-0.160	-0.680
2020/01/31 18:19:34.5	356.150	-0.270	-0.160	-0.660
2020/01/31 18:19:34.6	356.160	-0.240	-0.160	-0.640
2020/01/31 18:19:34.7	356.170	-0.220	-0.160	-0.620
2020/01/31 18:19:34.8	356.170	-0.190	-0.160	-0.590
2020/01/31 18:19:34.9	356.170	-0.170	-0.160	-0.560
2020/01/31 18:19:35.0	356.170	-0.140	-0.150	-0.530
2020/01/31 18:19:35.1	356.170	-0.110	-0.150	-0.500
2020/01/31 18:19:35.2	356.170	-0.090	-0.140	-0.460
2020/01/31 18:19:35.3	356.160	-0.060	-0.130	-0.420
2020/01/31 18:19:35.4	356.150	-0.040	-0.120	-0.380
2020/01/31 18:19:35.5	356.140	-0.010	-0.110	-0.340
2020/01/31 18:19:35.6	356.120	0.010	-0.090	-0.290
2020/01/31 18:19:35.7	356.100	0.030	-0.070	-0.250
2020/01/31 18:19:35.8	356.100	0.050	-0.050	-0.200
2020/01/31 18:19:35.9	356.080	0.060	-0.020	-0.150
2020/01/31 18:19:36.0	356.050	0.080	0.000	-0.100
2020/01/31 18:19:36.1	356.030	0.090	0.030	-0.040
2020/01/31 18:19:36.2	356.010	0.100	0.060	0.010
2020/01/31 18:19:36.3	355.980	0.110	0.090	0.070
2020/01/31 18:19:36.4	355.950	0.110	0.120	0.120
2020/01/31 18:19:36.5	355.920	0.120	0.150	0.180
2020/01/31 18:19:36.6	355.900	0.120	0.180	0.240
2020/01/31 18:19:36.7	355.870	0.120	0.200	0.300
2020/01/31 18:19:36.8	355.850	0.120	0.230	0.350
2020/01/31 18:19:36.9	355.820	0.120	0.250	0.410
2020/01/31 18:19:37.0	355.790	0.120	0.280	0.470
2020/01/31 18:19:37.1	355.760	0.120	0.290	0.520
2020/01/31 18:19:37.2	355.740	0.110	0.310	0.580
2020/01/31 18:19:37.3	355.710	0.110	0.320	0.630
2020/01/31 18:19:37.4	355.680	0.100	0.330	0.680
2020/01/31 18:19:37.5	355.660	0.090	0.330	0.730
2020/01/31 18:19:37.6	355.640	0.090	0.320	0.770
2020/01/31 18:19:37.7	355.620	0.080	0.310	0.810
2020/01/31 18:19:37.8	355.630	0.070	0.300	0.840
2020/01/31 18:19:37.9	355.620	0.060	0.280	0.870
2020/01/31 18:19:38.0	355.610	0.050	0.260	0.890
2020/01/31 18:19:38.1	355.600	0.040	0.230	0.910
2020/01/31 18:19:38.2	355.590	0.030	0.200	0.920
2020/01/31 18:19:38.3	355.590	0.030	0.160	0.920
2020/01/31 18:19:38.4	355.590	0.020	0.110	0.920
2020/01/31 18:19:38.5	355.590	0.010	0.070	0.910
2020/01/31 18:19:38.6	355.600	0.010	0.020	0.900
2020/01/31 18:19:38.7	355.600	0.000	-0.030	0.880
2020/01/31 18:19:38.8	355.610	-0.000	-0.090	0.860
2020/01/31 18:19:38.9	355.620	-0.000	-0.150	0.830
2020/01/31 18:19:39.0	355.630	-0.010	-0.200	0.800
2020/01/31 18:19:39.1	355.640	-0.010	-0.260	0.770
2020/01/31 18:19:39.2	355.660	-0.000	-0.320	0.730
2020/01/31 18:19:39.3	355.670	-0.000	-0.380	0.700
2020/01/31 18:19:39.4	355.680	0.000	-0.440	0.660
2020/01/31 18:19:39.5	355.690	0.010	-0.490	0.620
2020/01/31 18:19:39.6	355.700	0.020	-0.550	0.590
2020/01/31 18:19:39.7	355.710	0.020	-0.600	0.550
2020/01/31 18:19:39.8	355.700	0.030	-0.650	0.510
2020/01/31 18:19:39.9	355.710	0.040	-0.700	0.470
2020/01/31 18:19:40.0	355.710	0.060	-0.740	0.440
2020/01/31 18:19:40.1	355.720	0.070	-0.780	0.400
2020/01/31 18:19:40.2	355.720	0.080	-0.810	0.370
2020/01/31 18:19:40.3	355.720	0.100	-0.840	0.340
2020/01/31 18:19:40.4	355.720	0.110	-0.860	0.310
2020/01/31 18:19:40.5	355.730	0.130	-0.880	0.280
2020/01/31 18:19:40.6	355.730	0.150	-0.900	0.250
2020/01/31 18:19:40.7	355.730	0.160	-0.910	0.230
2020/01/31 18:19:40.8	355.720	0.180	-0.920	0.200
2020/01/31 18:19:40.9	355.720	0.190	-0.920	0.170
2020/01/31 18:19:41.0	355.730	0.210	-0.920	0.140
2020/01/31 18:19:41.1	355.740	0.230	-0.930	0.110
2020/01/31 18:19:41.2	355.750	0.240	-0.920	0.090
2020/01/31 18:19:41.3	355.760	0.250	-0.920	0.060
2020/01/31 18:19:41.4	355.770	0.260	-0.920	0.030
2020/01/31 18:19:41.5	355.790	0.280	-0.910	-0.010
2020/01/31 18:19:41.6	355.810	0.280	-0.900	-0.040
2020/01/31 18:19:41.7	355.830	0.290	-0.900	-0.070
2020/01/31 18:19:41.8	355.850	0.300	-0.890	-0.110
2020/01/31 18:19:41.9	355.880	0.310	-0.890	-0.150
2020/01/31 18:19:42.0	355.910	0.310	-0.880	-0.190
2020/01/31 18:19:42.1	355.940	0.310	-0.870	-0.230
2020/01/31 18:19:42.2	355.970	0.310	-0.860	-0.270
2020/01/31 18:19:42.3	356.010	0.310	-0.850	-0.300
2020/01/31 18:19:42.4	356.040	0.310	-0.840	-0.340
2020/01/31 18:19:42.5	356.070	0.300	-0.830	-0.380
2020/01/31 18:19:42.6	356.110	0.300	-0.810	-0.420
2020/01/31 18:19:42.7	356.140	0.290	-0.790	-0.450
2020/01/31 18:19:42.8	356.160	0.270	-0.770	-0.490
2020/01/31 18:19:42.9	356.190	0.260	-0.750	-0.520
2020/01/31 18:19:43.0	356.220	0.240	-0.720	-0.550
2020/01/31 18:19:43.1	356.250	0.220	-0.690	-0.580
2020/01/31 18:19:43.2	356.280	0.200	-0.660	-0.610
2020/01/31 18:19:43.3	356.300	0.180	-0.620	-0.640
2020/01/31 18:19:43.4	356.320	0.160	-0.570	-0.660
2020/01/31 18:19:43.5	356.340	0.130	-0.520	-0.690
2020/01/31 18:19:43.6	356.350	0.100	-0.470	-0.700
2020/01/31 18:19:43.7	356.360	0.070	-0.410	-0.720
2020/01/31 18:19:43.8	356.360	0.040	-0.350	-0.740
2020/01/31 18:19:43.9	356.370	0.010	-0.280	-0.740
2020/01/31 18:19:44.0	356.370	-0.020	-0.210	-0.750
2020/01/31 18:19:44.1	356.370	-0.050	-0.130	-0.750
2020/01/31 18:19:44.2	356.360	-0.090	-0.050	-0.740
2020/01/31 18:19:44.3	356.360	-0.120	0.040	-0.730
2020/01/31 18:19:44.4	356.350	-0.160	0.120	-0.720
2020/01/31 18:19:44.5	356.340	-0.190	0.210	-0.700
2020/01/31 18:19:44.6	356.330	-0.220	0.300	-0.680
2020/01/31 18:19:44.7	356.320	-0.250	0.380	-0.660
2020/01/31 18:19:44.8	356.310	-0.280	0.470	-0.630
2020/01/31 18:19:44.9	356.290	-0.310	0.550	-0.600
2020/01/31 18:19:45.0	356.280	-0.340	0.630	-0.570
2020/01/31 18:19:45.1	356.270	-0.360	0.700	-0.540
2020/01/31 18:19:45.2	356.250	-0.380	0.770	-0.510
2020/01/31 18:19:45.3	356.240	-0.400	0.840	-0.470
2020/01/31 18:19:45.4	356.230	-0.420	0.890	-0.440
2020/01/31 18:19:45.5	356.210	-0.440	0.940	-0.400
2020/01/31 18:19:45.6	356.200	-0.450	0.990	-0.370
2020/01/31 18:19:45.7	356.190	-0.460	1.020	-0.330
2020/01/31 18:19:45.8	356.190	-0.460	1.050	-0.290
2020/01/31 18:19:45.9	356.180	-0.460	1.070	-0.250
2020/01/31 18:19:46.0	356.170	-0.460	1.080	-0.210
2020/01/31 18:19:46.1	356.160	-0.460	1.080	-0.180
2020/01/31 18:19:46.2	356.150	-0.450	1.070	-0.140
2020/01/31 18:19:46.3	356.130	-0.440	1.060	-0.100
2020/01/31 18:19:46.4	356.120	-0.430	1.030	-0.060
2020/01/31 18:19:46.5	356.110	-0.410	1.000	-0.020
2020/01/31 18:19:46.6	356.090	-0.390	0.960	0.020
2020/01/31 18:19:46.7	356.080	-0.370	0.910	0.060
2020/01/31 18:19:46.8	356.050	-0.340	0.860	0.090
2020/01/31 18:19:46.9	356.030	-0.310	0.800	0.130
2020/01/31 18:19:47.0	356.010	-0.280	0.730	0.170
2020/01/31 18:19:47.1	356.000	-0.250	0.660	0.210
2020/01/31 18:19:47.2	355.980	-0.220	0.590	0.250
2020/01/31 18:19:47.3	355.960	-0.180	0.510	0.280
2020/01/31 18:19:47.4	355.940	-0.140	0.430	0.320
2020/01/31 18:19:47.5	355.920	-0.110	0.340	0.360
2020/01/31 18:19:47.6	355.900	-0.070	0.260	0.400
2020/01/31 18:19:47.7	355.880	-0.030	0.170	0.430
2020/01/31 18:19:47.8	355.870	0.010	0.080	0.470
2020/01/31 18:19:47.9	355.850	0.050	-0.010	0.500
2020/01/31 18:19:48.0	355.830	0.080	-0.100	0.530
2020/01/31 18:19:48.1	355.810	0.120	-0.190	0.560
2020/01/31 18:19:48.2	355.790	0.150	-0.280	0.590
2020/01/31 18:19:48.3	355.780	0.190	-0.370	0.610
2020/01/31 18:19:48.4	355.760	0.220	-0.460	0.630
2020/01/31 18:19:48.5	355.750	0.240	-0.550	0.650
2020/01/31 18:19:48.6	355.740	0.270	-0.630	0.670
2020/01/31 18:19:48.7	355.730	0.290	-0.710	0.680
2020/01/31 18:19:48.8	355.720	0.310	-0.790	0.680
2020/01/31 18:19:48.9	355.710	0.320	-0.870	0.680
2020/01/31 18:19:49.0	355.710	0.340	-0.940	0.680
2020/01/31 18:19:49.1	355.710	0.340	-1.010	0.670
2020/01/31 18:19:49.2	355.710	0.350	-1.080	0.650
2020/01/31 18:19:49.3	355.720	0.350	-1.140	0.630
2020/01/31 18:19:49.4	355.720	0.350	-1.200	0.610
2020/01/31 18:19:49.5	355.730	0.340	-1.250	0.570
2020/01/31 18:19:49.6	355.750	0.340	-1.300	0.540
2020/01/31 18:19:49.7	355.760	0.330	-1.350	0.500
2020/01/31 18:19:49.8	355.770	0.310	-1.390	0.450
2020/01/31 18:19:49.9	355.790	0.290	-1.420	0.400
2020/01/31 18:19:50.0	355.820	0.280	-1.440	0.340
2020/01/31 18:19:50.1	355.840	0.250	-1.460	0.280
2020/01/31 18:19:50.2	355.870	0.230	-1.470	0.220
2020/01/31 18:19:50.3	355.900	0.200	-1.480	0.160
2020/01/31 18:19:50.4	355.930	0.170	-1.480	0.090
2020/01/31 18:19:50.5	355.960	0.140	-1.470	0.020
2020/01/31 18:19:50.6	356.000	0.110	-1.460	-0.050
2020/01/31 18:19:50.7	356.040	0.080	-1.430	-0.120
2020/01/31 18:19:50.8	356.080	0.050	-1.400	-0.190
2020/01/31 18:19:50.9	356.120	0.020	-1.370	-0.260
2020/01/31 18:19:51.0	356.160	-0.010	-1.330	-0.330
2020/01/31 18:19:51.1	356.200	-0.040	-1.280	-0.390
2020/01/31 18:19:51.2	356.240	-0.070	-1.230	-0.460
2020/01/31 18:19:51.3	356.280	-0.100	-1.170	-0.520
2020/01/31 18:19:51.4	356.320	-0.130	-1.100	-0.570
2020/01/31 18:19:51.5	356.350	-0.160	-1.040	-0.620
2020/01/31 18:19:51.6	356.390	-0.190	-0.960	-0.670
2020/01/31 18:19:51.7	356.420	-0.210	-0.890	-0.710
2020/01/31 18:19:51.8	356.450	-0.240	-0.810	-0.750
2020/01/31 18:19:51.9	356.480	-0.260	-0.730	-0.780
2020/01/31 18:19:52.0	356.500	-0.280	-0.650	-0.810
2020/01/31 18:19:52.1	356.520	-0.290	-0.570	-0.830
2020/01/31 18:19:52.2	356.540	-0.310	-0.480	-0.850
2020/01/31 18:19:52.3	356.560	-0.320	-0.400	-0.860
2020/01/31 18:19:52.4	356.570	-0.330	-0.320	-0.870
2020/01/31 18:19:52.5	356.580	-0.340	-0.240	-0.880
2020/01/31 18:19:52.6	356.590	-0.340	-0.160	-0.880
2020/01/31 18:19:52.7	356.590	-0.350	-0.080	-0.870
2020/01/31 18:19:52.8	356.600	-0.350	0.000	-0.860
2020/01/31 18:19:52.9	356.600	-0.350	0.080	-0.850
2020/01/31 18:19:53.0	356.600	-0.340	0.150	-0.830
2020/01/31 18:19:53.1	356.590	-0.340	0.210	-0.810
2020/01/31 18:19:53.2	356.580	-0.330	0.280	-0.790
2020/01/31 18:19:53.3	356.570	-0.320	0.340	-0.760
2020/01/31 18:19:53.4	356.560	-0.310	0.400	-0.730
2020/01/31 18:19:53.5	356.540	-0.300	0.450	-0.700
2020/01/31 18:19:53.6	356.530	-0.290	0.500	-0.660
2020/01/31 18:19:53.7	356.510	-0.270	0.550	-0.620
2020/01/31 18:19:53.8	356.490	-0.250	0.590	-0.580
2020/01/31 18:19:53.9	356.470	-0.240	0.620	-0.530
2020/01/31 18:19:54.0	356.450	-0.220	0.650	-0.480
2020/01/31 18:19:54.1	356.430	-0.200	0.680	-0.420
2020/01/31 18:19:54.2	356.410	-0.170	0.700	-0.370
2020/01/31 18:19:54.3	356.390	-0.150	0.710	-0.310
2020/01/31 18:19:54.4	356.370	-0.130	0.720	-0.250
2020/01/31 18:19:54.5	356.340	-0.110	0.730	-0.180
2020/01/31 18:19:54.6	356.320	-0.080	0.730	-0.120
2020/01/31 18:19:54.7	356.300	-0.060	0.720	-0.060
2020/01/31 18:19:54.8	356.290	-0.030	0.710	0.010
2020/01/31 18:19:54.9	356.270	-0.010	0.700	0.070
2020/01/31 18:19:55.0	356.260	0.010	0.680	0.140
2020/01/31 18:19:55.1	356.250	0.040	0.660	0.200
2020/01/31 18:19:55.2	356.230	0.060	0.630	0.260
2020/01/31 18:19:55.3	356.230	0.080	0.590	0.310
2020/01/31 18:19:55.4	356.220	0.110	0.560	0.370
2020/01/31 18:19:55.5	356.210	0.130	0.520	0.420
2020/01/31 18:19:55.6	356.210	0.150	0.480	0.460
2020/01/31 18:19:55.7	356.200	0.170	0.430	0.500
2020/01/31 18:19:55.8	356.180	0.180	0.380	0.550
2020/01/31 18:19:55.9	356.180	0.200	0.340	0.580
2020/01/31 18:19:56.0	356.180	0.220	0.290	0.620
2020/01/31 18:19:56.1	356.170	0.230	0.240	0.650
2020/01/31 18:19:56.2	356.170	0.250	0.190	0.670
2020/01/31 18:19:56.3	356.170	0.260	0.140	0.700
2020/01/31 18:19:56.4	356.160	0.270	0.090	0.720
2020/01/31 18:19:56.5	356.160	0.280	0.050	0.740
2020/01/31 18:19:56.6	356.150	0.290	0.000	0.750
2020/01/31 18:19:56.7	356.140	0.300	-0.040	0.760
2020/01/31 18:19:56.8	356.140	0.310	-0.080	0.770
2020/01/31 18:19:56.9	356.130	0.310	-0.120	0.780
2020/01/31 18:19:57.0	356.120	0.320	-0.150	0.780
2020/01/31 18:19:57.1	356.120	0.320	-0.190	0.790
2020/01/31 18:19:57.2	356.110	0.320	-0.220	0.790
2020/01/31 18:19:57.3	356.100	0.320	-0.260	0.780
2020/01/31 18:19:57.4	356.100	0.320	-0.290	0.780
2020/01/31 18:19:57.5	356.090	0.320	-0.320	0.770
2020/01/31 18:19:57.6	356.090	0.320	-0.350	0.760
2020/01/31 18:19:57.7	356.090	0.310	-0.380	0.750
2020/01/31 18:19:57.8	356.100	0.310	-0.410	0.740
2020/01/31 18:19:57.9	356.100	0.300	-0.430	0.720
2020/01/31 18:19:58.0	356.090	0.300	-0.460	0.710
2020/01/31 18:19:58.1	356.090	0.290	-0.490	0.690
2020/01/31 18:19:58.2	356.100	0.290	-0.510	0.670
2020/01/31 18:19:58.3	356.100	0.280	-0.540	0.650
2020/01/31 18:19:58.4	356.100	0.270	-0.570	0.630
2020/01/31 18:19:58.5	356.100	0.270	-0.590	0.600
2020/01/31 18:19:58.6	356.100	0.260	-0.610	0.580
2020/01/31 18:19:58.7	356.110	0.250	-0.640	0.550
2020/01/31 18:19:58.8	356.110	0.240	-0.660	0.530
2020/01/31 18:19:58.9	356.110	0.240	-0.680	0.500
2020/01/31 18:19:59.0	356.120	0.230	-0.710	0.460
2020/01/31 18:19:59.1	356.130	0.220	-0.730	0.430
2020/01/31 18:19:59.2	356.130	0.210	-0.750	0.390
2020/01/31 18:19:59.3	356.140	0.200	-0.770	0.360
2020/01/31 18:19:59.4	356.150	0.200	-0.780	0.320
2020/01/31 18:19:59.5	356.160	0.190	-0.800	0.270
2020/01/31 18:19:59.6	356.180	0.180	-0.820	0.230
2020/01/31 18:19:59.7	356.190	0.170	-0.830	0.180
2020/01/31 18:19:59.8	356.200	0.160	-0.850	0.130
2020/01/31 18:19:59.9	356.220	0.150	-0.860	0.080
2020/01/31 18:20:00.0	356.240	0.140	-0.870	0.030
2020/01/31 18:20:00.1	356.250	0.130	-0.870	-0.010
2020/01/31 18:20:00.2	356.270	0.120	-0.880	-0.060
2020/01/31 18:20:00.3	356.290	0.110	-0.880	-0.110
2020/01/31 18:20:00.4	356.310	0.100	-0.880	-0.160
2020/01/31 18:20:00.5	356.320	0.090	-0.880	-0.210
2020/01/31 18:20:00.6	356.340	0.080	-0.880	-0.250
2020/01/31 18:20:00.7	356.360	0.060	-0.870	-0.300
2020/01/31 18:20:00.8	356.380	0.050	-0.860	-0.340
2020/01/31 18:20:00.9	356.400	0.040	-0.850	-0.390
2020/01/31 18:20:01.0	356.410	0.020	-0.830	-0.430
2020/01/31 18:20:01.1	356.430	0.000	-0.810	-0.460
2020/01/31 18:20:01.2	356.440	-0.010	-0.790	-0.500
2020/01/31 18:20:01.3	356.450	-0.030	-0.770	-0.540
2020/01/31 18:20:01.4	356.460	-0.050	-0.740	-0.570
2020/01/31 18:20:01.5	356.470	-0.070	-0.720	-0.600
2020/01/31 18:20:01.6	356.480	-0.090	-0.680	-0.630
2020/01/31 18:20:01.7	356.490	-0.120	-0.650	-0.650
2020/01/31 18:20:01.8	356.470	-0.140	-0.610	-0.680
2020/01/31 18:20:01.9	356.480	-0.160	-0.580	-0.700
2020/01/31 18:20:02.0	356.480	-0.190	-0.540	-0.720
2020/01/31 18:20:02.1	356.490	-0.210	-0.500	-0.740
2020/01/31 18:20:02.2	356.490	-0.240	-0.460	-0.750
2020/01/31 18:20:02.3	356.490	-0.270	-0.420	-0.760
2020/01/31 18:20:02.4	356.490	-0.290	-0.380	-0.780
2020/01/31 18:20:02.5	356.490	-0.320	-0.330	-0.780
2020/01/31 18:20:02.6	356.490	-0.350	-0.290	-0.790
2020/01/31 18:20:02.7	356.490	-0.370	-0.250	-0.800
2020/01/31 18:20:02.8	356.490	-0.400	-0.210	-0.800
2020/01/31 18:20:02.9	356.490	-0.420	-0.160	-0.810
2020/01/31 18:20:03.0	356.490	-0.440	-0.120	-0.810
2020/01/31 18:20:03.1	356.490	-0.460	-0.080	-0.810
2020/01/31 18:20:03.2	356.490	-0.480	-0.040	-0.810
2020/01/31 18:20:03.3	356.480	-0.500	-0.000	-0.810
2020/01/31 18:20:03.4	356.490	-0.520	0.030	-0.810
2020/01/31 18:20:03.5	356.490	-0.530	0.070	-0.810
2020/01/31 18:20:03.6	356.490	-0.540	0.100	-0.800
2020/01/31 18:20:03.7	356.490	-0.540	0.130	-0.800
2020/01/31 18:20:03.8	356.500	-0.550	0.160	-0.790
2020/01/31 18:20:03.9	356.510	-0.550	0.190	-0.790
2020/01/31 18:20:04.0	356.510	-0.540	0.210	-0.780
2020/01/31 18:20:04.1	356.520	-0.530	0.230	-0.770
2020/01/31 18:20:04.2	356.530	-0.520	0.250	-0.750
2020/01/31 18:20:04.3	356.540	-0.510	0.270	-0.740
2020/01/31 18:20:04.4	356.550	-0.490	0.280	-0.720
2020/01/31 18:20:04.5	356.560	-0.460	0.290	-0.700
2020/01/31 18:20:04.6	356.570	-0.440	0.300	-0.670
2020/01/31 18:20:04.7	356.590	-0.410	0.310	-0.650
2020/01/31 18:20:04.8	356.600	-0.380	0.310	-0.620
2020/01/31 18:20:04.9	356.610	-0.340	0.320	-0.580
2020/01/31 18:20:05.0	356.620	-0.310	0.320	-0.540
2020/01/31 18:20:05.1	356.630	-0.270	0.320	-0.500
2020/01/31 18:20:05.2	356.640	-0.230	0.320	-0.460
2020/01/31 18:20:05.3	356.640	-0.190	0.320	-0.410
2020/01/31 18:20:05.4	356.640	-0.140	0.320	-0.360
2020/01/31 18:20:05.5	356.640	-0.100	0.320	-0.300
2020/01/31 18:20:05.6	356.640	-0.060	0.320	-0.250
2020/01/31 18:20:05.7	356.640	-0.020	0.310	-0.190
2020/01/31 18:20:05.8	356.620	0.030	0.310	-0.130
2020/01/31 18:20:05.9	356.610	0.070	0.310	-0.070
2020/01/31 18:20:06.0	356.600	0.100	0.310	-0.010
2020/01/31 18:20:06.1	356.580	0.140	0.310	0.050
2020/01/31 18:20:06.2	356.560	0.180	0.310	0.110
2020/01/31 18:20:06.3	356.540	0.210	0.310	0.170
2020/01/31 18:20:06.4	356.520	0.240	0.310	0.230
2020/01/31 18:20:06.5	356.490	0.270	0.310	0.290
2020/01/31 18:20:06.6	356.470	0.290	0.320	0.350
2020/01/31 18:20:06.7	356.440	0.320	0.320	0.410
2020/01/31 18:20:06.8	356.410	0.340	0.320	0.470
2020/01/31 18:20:06.9	356.380	0.350	0.320	0.530
2020/01/31 18:20:07.0	356.340	0.370	0.310	0.590
2020/01/31 18:20:07.1	356.310	0.380	0.310	0.650
2020/01/31 18:20:07.2	356.270	0.390	0.300	0.700
2020/01/31 18:20:07.3	356.240	0.390	0.300	0.760
2020/01/31 18:20:07.4	356.200	0.390	0.290	0.810
2020/01/31 18:20:07.5	356.160	0.390	0.280	0.860
2020/01/31 18:20:07.6	356.130	0.390	0.260	0.910
2020/01/31 18:20:07.7	356.090	0.390	0.250	0.950
2020/01/31 18:20:07.8	356.060	0.380	0.230	0.990
2020/01/31 18:20:07.9	356.030	0.370	0.210	1.030
2020/01/31 18:20:08.0	356.000	0.360	0.180	1.060
2020/01/31 18:20:08.1	355.970	0.350	0.150	1.090
2020/01/31 18:20:08.2	355.950	0.330	0.120	1.110
2020/01/31 18:20:08.3	355.930	0.320	0.080	1.120
2020/01/31 18:20:08.4	355.910	0.300	0.040	1.130
2020/01/31 18:20:08.5	355.890	0.290	-0.010	1.130
2020/01/31 18:20:08.6	355.880	0.270	-0.060	1.130
2020/01/31 18:20:08.7	355.870	0.260	-0.120	1.120
2020/01/31 18:20:08.8	355.870	0.240	-0.180	1.090
2020/01/31 18:20:08.9	355.870	0.230	-0.240	1.070
2020/01/31 18:20:09.0	355.870	0.210	-0.310	1.040
2020/01/31 18:20:09.1	355.880	0.200	-0.380	1.000
2020/01/31 18:20:09.2	355.880	0.190	-0.460	0.960
2020/01/31 18:20:09.3	355.890	0.170	-0.530	0.910
2020/01/31 18:20:09.4	355.910	0.160	-0.610	0.860
2020/01/31 18:20:09.5	355.920	0.150	-0.690	0.810
2020/01/31 18:20:09.6	355.930	0.140	-0.760	0.750
2020/01/31 18:20:09.7	355.950	0.140	-0.840	0.690
2020/01/31 18:20:09.8	355.970	0.130	-0.910	0.620
2020/01/31 18:20:09.9	355.990	0.130	-0.980	0.550
2020/01/31 18:20:10.0	356.010	0.120	-1.050	0.490
2020/01/31 18:20:10.1	356.030	0.120	-1.120	0.420
2020/01/31 18:20:10.2	356.060	0.110	-1.180	0.340
2020/01/31 18:20:10.3	356.090	0.110	-1.240	0.270
2020/01/31 18:20:10.4	356.110	0.110	-1.290	0.200
2020/01/31 18:20:10.5	356.140	0.110	-1.330	0.120
2020/01/31 18:20:10.6	356.170	0.100	-1.370	0.050
2020/01/31 18:20:10.7	356.210	0.100	-1.400	-0.020
2020/01/31 18:20:10.8	356.230	0.100	-1.430	-0.100
2020/01/31 18:20:10.9	356.270	0.100	-1.440	-0.170
2020/01/31 18:20:11.0	356.300	0.090	-1.450	-0.240
2020/01/31 18:20:11.1	356.340	0.090	-1.450	-0.310
2020/01/31 18:20:11.2	356.370	0.090	-1.450	-0.380
2020/01/31 18:20:11.3	356.410	0.080	-1.430	-0.440
2020/01/31 18:20:11.4	356.440	0.070	-1.410	-0.500
2020/01/31 18:20:11.5	356.480	0.070	-1.370	-0.560
2020/01/31 18:20:11.6	356.520	0.060	-1.330	-0.620
2020/01/31 18:20:11.7	356.550	0.050	-1.280	-0.670
2020/01/31 18:20:11.8	356.590	0.030	-1.220	-0.720
2020/01/31 18:20:11.9	356.620	0.020	-1.160	-0.760
2020/01/31 18:20:12.0	356.650	0.000	-1.080	-0.800
2020/01/31 18:20:12.1	356.680	-0.020	-1.000	-0.830
2020/01/31 18:20:12.2	356.710	-0.040	-0.920	-0.860
2020/01/31 18:20:12.3	356.730	-0.060	-0.830	-0.890
2020/01/31 18:20:12.4	356.760	-0.080	-0.740	-0.910
2020/01/31 18:20:12.5	356.780	-0.110	-0.640	-0.920
2020/01/31 18:20:12.6	356.800	-0.140	-0.530	-0.940
2020/01/31 18:20:12.7	356.810	-0.170	-0.430	-0.950
2020/01/31 18:20:12.8	356.820	-0.200	-0.330	-0.950
2020/01/31 18:20:12.9	356.830	-0.230	-0.220	-0.960
2020/01/31 18:20:13.0	356.830	-0.260	-0.120	-0.960
2020/01/31 18:20:13.1	356.840	-0.300	-0.020	-0.950
2020/01/31 18:20:13.2	356.840	-0.330	0.080	-0.950
2020/01/31 18:20:13.3	356.830	-0.370	0.180	-0.940
2020/01/31 18:20:13.4	356.820	-0.400	0.270	-0.930
2020/01/31 18:20:13.5	356.810	-0.440	0.360	-0.920
2020/01/31 18:20:13.6	356.800	-0.470	0.440	-0.910
2020/01/31 18:20:13.7	356.780	-0.510	0.510	-0.900
2020/01/31 18:20:13.8	356.770	-0.540	0.590	-0.890
2020/01/31 18:20:13.9	356.750	-0.570	0.650	-0.870
2020/01/31 18:20:14.0	356.730	-0.600	0.700	-0.860
2020/01/31 18:20:14.1	356.700	-0.620	0.740	-0.840
2020/01/31 18:20:14.2	356.670	-0.650	0.780	-0.830
2020/01/31 18:20:14.3	356.640	-0.670	0.810	-0.810
2020/01/31 18:20:14.4	356.610	-0.680	0.830	-0.800
2020/01/31 18:20:14.5	356.580	-0.700	0.840	-0.790
2020/01/31 18:20:14.6	356.550	-0.710	0.850	-0.770
2020/01/31 18:20:14.7	356.520	-0.710	0.840	-0.760
2020/01/31 18:20:14.8	356.490	-0.710	0.830	-0.740
2020/01/31 18:20:14.9	356.470	-0.700	0.810	-0.720
2020/01/31 18:20:15.0	356.440	-0.690	0.790	-0.710
2020/01/31 18:20:15.1	356.410	-0.680	0.760	-0.690
2020/01/31 18:20:15.2	356.390	-0.650	0.720	-0.670
2020/01/31 18:20:15.3	356.360	-0.630	0.680	-0.640
2020/01/31 18:20:15.4	356.340	-0.590	0.630	-0.620
2020/01/31 18:20:15.5	356.320	-0.560	0.580	-0.590
2020/01/31 18:20:15.6	356.300	-0.510	0.530	-0.560
2020/01/31 18:20:15.7	356.280	-0.460	0.470	-0.530
2020/01/31 18:20:15.8	356.270	-0.410	0.410	-0.500
2020/01/31 18:20:15.9	356.250	-0.350	0.350	-0.460
2020/01/31 18:20:16.0	356.230	-0.290	0.280	-0.420
2020/01/31 18:20:16.1	356.210	-0.220	0.220	-0.370
2020/01/31 18:20:16.2	356.200	-0.150	0.160	-0.320
2020/01/31 18:20:16.3	356.180	-0.080	0.090	-0.270
2020/01/31 18:20:16.4	356.170	-0.010	0.030	-0.220
2020/01/31 18:20:16.5	356.150	0.070	-0.030	-0.160
2020/01/31 18:20:16.6	356.140	0.140	-0.090	-0.100
2020/01/31 18:20:16.7	356.120	0.220	-0.150	-0.040
2020/01/31 18:20:16.8	356.110	0.300	-0.210	0.020
2020/01/31 18:20:16.9	356.100	0.370	-0.270	0.080
2020/01/31 18:20:17.0	356.080	0.440	-0.320	0.150
2020/01/31 18:20:17.1	356.070	0.510	-0.370	0.210
2020/01/31 18:20:17.2	356.060	0.580	-0.430	0.270
2020/01/31 18:20:17.3	356.050	0.640	-0.470	0.330
2020/01/31 18:20:17.4	356.040	0.700	-0.520	0.390
2020/01/31 18:20:17.5	356.040	0.760	-0.560	0.450
2020/01/31 18:20:17.6	356.030	0.810	-0.610	0.500
2020/01/31 18:20:17.7	356.030	0.850	-0.650	0.560
2020/01/31 18:20:17.8	356.000	0.890	-0.680	0.610
2020/01/31 18:20:17.9	356.000	0.930	-0.720	0.660
2020/01/31 18:20:18.0	356.000	0.950	-0.750	0.700
2020/01/31 18:20:18.1	355.990	0.970	-0.780	0.740
2020/01/31 18:20:18.2	355.990	0.990	-0.800	0.780
2020/01/31 18:20:18.3	355.990	0.990	-0.820	0.810
2020/01/31 18:20:18.4	355.980	0.990	-0.840	0.840
2020/01/31 18:20:18.5	355.980	0.980	-0.860	0.860
2020/01/31 18:20:18.6	355.980	0.970	-0.870	0.880
2020/01/31 18:20:18.7	355.980	0.940	-0.880	0.880
2020/01/31 18:20:18.8	355.980	0.920	-0.880	0.880
2020/01/31 18:20:18.9	355.990	0.880	-0.890	0.880
2020/01/31 18:20:19.0	355.990	0.840	-0.890	0.870
2020/01/31 18:20:19.1	356.000	0.790	-0.880	0.850
2020/01/31 18:20:19.2	356.010	0.740	-0.880	0.830
2020/01/31 18:20:19.3	356.020	0.690	-0.860	0.800
2020/01/31 18:20:19.4	356.030	0.630	-0.850	0.760
2020/01/31 18:20:19.5	356.050	0.560	-0.840	0.720
2020/01/31 18:20:19.6	356.060	0.500	-0.820	0.670
2020/01/31 18:20:19.7	356.080	0.430	-0.800	0.620
2020/01/31 18:20:19.8	356.110	0.360	-0.770	0.550
2020/01/31 18:20:19.9	356.140	0.290	-0.750	0.490
2020/01/31 18:20:20.0	356.160	0.220	-0.720	0.420
2020/01/31 18:20:20.1	356.190	0.140	-0.680	0.350
2020/01/31 18:20:20.2	356.230	0.070	-0.650	0.280
2020/01/31 18:20:20.3	356.260	0.010	-0.610	0.210
2020/01/31 18:20:20.4	356.290	-0.060	-0.570	0.140
2020/01/31 18:20:20.5	356.330	-0.120	-0.530	0.070
2020/01/31 18:20:20.6	356.370	-0.180	-0.490	-0.000
2020/01/31 18:20:20.7	356.400	-0.240	-0.440	-0.070
2020/01/31 18:20:20.8	356.420	-0.300	-0.400	-0.140
2020/01/31 18:20:20.9	356.450	-0.340	-0.350	-0.210
2020/01/31 18:20:21.0	356.490	-0.390	-0.300	-0.270
2020/01/31 18:20:21.1	356.520	-0.430	-0.250	-0.330
2020/01/31 18:20:21.2	356.550	-0.460	-0.200	-0.390
2020/01/31 18:20:21.3	356.580	-0.500	-0.150	-0.440
2020/01/31 18:20:21.4	356.600	-0.520	-0.100	-0.490
2020/01/31 18:20:21.5	356.630	-0.540	-0.050	-0.540
2020/01/31 18:20:21.6	356.650	-0.560	-0.000	-0.580
2020/01/31 18:20:21.7	356.660	-0.580	0.050	-0.620
2020/01/31 18:20:21.8	356.690	-0.580	0.100	-0.660
2020/01/31 18:20:21.9	356.700	-0.590	0.150	-0.690
2020/01/31 18:20:22.0	356.710	-0.590	0.190	-0.720
2020/01/31 18:20:22.1	356.710	-0.590	0.240	-0.740
2020/01/31 18:20:22.2	356.710	-0.580	0.280	-0.760
2020/01/31 18:20:22.3	356.700	-0.570	0.310	-0.770
2020/01/31 18:20:22.4	356.700	-0.560	0.350	-0.780
2020/01/31 18:20:22.5	356.680	-0.550	0.380	-0.790
2020/01/31 18:20:22.6	356.670	-0.530	0.410	-0.790
2020/01/31 18:20:22.7	356.650	-0.510	0.440	-0.800
2020/01/31 18:20:22.8	356.620	-0.500	0.460	-0.790
2020/01/31 18:20:22.9	356.600	-0.480	0.480	-0.780
2020/01/31 18:20:23.0	356.570	-0.450	0.490	-0.770
2020/01/31 18:20:23.1	356.540	-0.430	0.510	-0.760
2020/01/31 18:20:23.2	356.510	-0.410	0.510	-0.740
2020/01/31 18:20:23.3	356.480	-0.390	0.520	-0.720
2020/01/31 18:20:23.4	356.440	-0.370	0.520	-0.700
2020/01/31 18:20:23.5	356.410	-0.350	0.520	-0.670
2020/01/31 18:20:23.6	356.370	-0.330	0.520	-0.640
2020/01/31 18:20:23.7	356.330	-0.310	0.510	-0.610
2020/01/31 18:20:23.8	356.310	-0.290	0.500	-0.580
2020/01/31 18:20:23.9	356.270	-0.270	0.480	-0.540
2020/01/31 18:20:24.0	356.230	-0.250	0.460	-0.500
2020/01/31 18:20:24.1	356.180	-0.240	0.440	-0.460
2020/01/31 18:20:24.2	356.140	-0.220	0.410	-0.410
2020/01/31 18:20:24.3	356.100	-0.210	0.380	-0.360
2020/01/31 18:20:24.4	356.060	-0.190	0.350	-0.320
2020/01/31 18:20:24.5	356.020	-0.180	0.320	-0.270
2020/01/31 18:20:24.6	355.980	-0.170	0.280	-0.220
2020/01/31 18:20:24.7	355.940	-0.160	0.250	-0.180
2020/01/31 18:20:24.8	355.910	-0.150	0.200	-0.120
2020/01/31 18:20:24.9	355.880	-0.140	0.160	-0.080
2020/01/31 18:20:25.0	355.840	-0.130	0.120	-0.040
2020/01/31 18:20:25.1	355.820	-0.120	0.080	0.000
2020/01/31 18:20:25.2	355.790	-0.120	0.030	0.040
2020/01/31 18:20:25.3	355.770	-0.110	-0.020	0.070
2020/01/31 18:20:25.4	355.750	-0.100	-0.060	0.100
2020/01/31 18:20:25.5	355.730	-0.090	-0.110	0.130
2020/01/31 18:20:25.6	355.720	-0.090	-0.160	0.150
2020/01/31 18:20:25.7	355.710	-0.080	-0.210	0.170
2020/01/31 18:20:25.8	355.710	-0.070	-0.260	0.180
2020/01/31 18:20:25.9	355.710	-0.060	-0.310	0.180
2020/01/31 18:20:26.0	355.720	-0.050	-0.360	0.190
2020/01/31 18:20:26.1	355.730	-0.040	-0.410	0.180
2020/01/31 18:20:26.2	355.740	-0.030	-0.460	0.180
2020/01/31 18:20:26.3	355.760	-0.020	-0.510	0.170
2020/01/31 18:20:26.4	355.780	-0.000	-0.560	0.160
2020/01/31 18:20:26.5	355.800	0.010	-0.600	0.140
2020/01/31 18:20:26.6	355.830	0.030	-0.640	0.120
2020/01/31 18:20:26.7	355.860	0.040	-0.690	0.100
2020/01/31 18:20:26.8	355.890	0.050	-0.720	0.080
2020/01/31 18:20:26.9	355.920	0.070	-0.760	0.060
2020/01/31 18:20:27.0	355.950	0.080	-0.790	0.030
2020/01/31 18:20:27.1	355.990	0.100	-0.810	0.010
2020/01/31 18:20:27.2	356.020	0.110	-0.840	-0.010
2020/01/31 18:20:27.3	356.060	0.130	-0.860	-0.040
2020/01/31 18:20:27.4	356.090	0.140	-0.870	-0.060
2020/01/31 18:20:27.5	356.120	0.150	-0.880	-0.080
2020/01/31 18:20:27.6	356.150	0.160	-0.890	-0.100
2020/01/31 18:20:27.7	356.180	0.170	-0.890	-0.120
2020/01/31 18:20:27.8	356.200	0.180	-0.890	-0.140
2020/01/31 18:20:27.9	356.230	0.180	-0.890	-0.160
2020/01/31 18:20:28.0	356.250	0.190	-0.880	-0.180
2020/01/31 18:20:28.1	356.280	0.190	-0.870	-0.190
2020/01/31 18:20:28.2	356.300	0.190	-0.850	-0.210
2020/01/31 18:20:28.3	356.320	0.190	-0.840	-0.220
2020/01/31 18:20:28.4	356.340	0.190	-0.820	-0.230
2020/01/31 18:20:28.5	356.350	0.180	-0.790	-0.240
2020/01/31 18:20:28.6	356.370	0.180	-0.770	-0.250
2020/01/31 18:20:28.7	356.380	0.170	-0.750	-0.260
2020/01/31 18:20:28.8	356.390	0.160	-0.720	-0.270
2020/01/31 18:20:28.9	356.400	0.150	-0.690	-0.280
2020/01/31 18:20:29.0	356.410	0.140	-0.660	-0.280
2020/01/31 18:20:29.1	356.420	0.130	-0.640	-0.290
2020/01/31 18:20:29.2	356.420	0.120	-0.610	-0.290
2020/01/31 18:20:29.3	356.430	0.110	-0.580	-0.290
2020/01/31 18:20:29.4	356.430	0.100	-0.560	-0.290
2020/01/31 18:20:29.5	356.430	0.090	-0.530	-0.290
2020/01/31 18:20:29.6	356.440	0.080	-0.510	-0.290
2020/01/31 18:20:29.7	356.440	0.070	-0.480	-0.290
2020/01/31 18:20:29.8	356.440	0.060	-0.460	-0.290
2020/01/31 18:20:29.9	356.440	0.060	-0.430	-0.290
2020/01/31 18:20:30.0	356.430	0.050	-0.410	-0.280
2020/01/31 18:20:30.1	356.430	0.040	-0.390	-0.270
2020/01/31 18:20:30.2	356.430	0.040	-0.360	-0.270
2020/01/31 18:20:30.3	356.420	0.040	-0.340	-0.260
2020/01/31 18:20:30.4	356.410	0.040	-0.310	-0.240
2020/01/31 18:20:30.5	356.410	0.040	-0.290	-0.230
2020/01/31 18:20:30.6	356.400	0.040	-0.260	-0.220
2020/01/31 18:20:30.7	356.390	0.050	-0.240	-0.200
2020/01/31 18:20:30.8	356.380	0.050	-0.210	-0.180
2020/01/31 18:20:30.9	356.370	0.060	-0.190	-0.160
2020/01/31 18:20:31.0	356.360	0.070	-0.160	-0.130
2020/01/31 18:20:31.1	356.340	0.080	-0.140	-0.110
2020/01/31 18:20:31.2	356.330	0.100	-0.110	-0.080
2020/01/31 18:20:31.3	356.310	0.110	-0.090	-0.050
2020/01/31 18:20:31.4	356.300	0.130	-0.060	-0.030
2020/01/31 18:20:31.5	356.280	0.140	-0.040	0.010
2020/01/31 18:20:31.6	356.260	0.160	-0.020	0.040
2020/01/31 18:20:31.7	356.240	0.170	0.000	0.070
2020/01/31 18:20:31.8	356.220	0.190	0.020	0.100
2020/01/31 18:20:31.9	356.200	0.210	0.040	0.140
2020/01/31 18:20:32.0	356.180	0.230	0.050	0.170
2020/01/31 18:20:32.1	356.160	0.250	0.070	0.210
2020/01/31 18:20:32.2	356.150	0.270	0.080	0.240
2020/01/31 18:20:32.3	356.130	0.280	0.090	0.280
2020/01/31 18:20:32.4	356.110	0.300	0.100	0.310
2020/01/31 18:20:32.5	356.090	0.320	0.100	0.350
2020/01/31 18:20:32.6	356.070	0.330	0.110	0.380
2020/01/31 18:20:32.7	356.050	0.350	0.110	0.420
2020/01/31 18:20:32.8	356.030	0.360	0.110	0.450
2020/01/31 18:20:32.9	356.020	0.380	0.100	0.480
2020/01/31 18:20:33.0	356.000	0.390	0.100	0.510
2020/01/31 18:20:33.1	355.980	0.400	0.090	0.540
2020/01/31 18:20:33.2	355.960	0.410	0.090	0.570
2020/01/31 18:20:33.3	355.950	0.410	0.080	0.600
2020/01/31 18:20:33.4	355.930	0.420	0.070	0.620
2020/01/31 18:20:33.5	355.920	0.420	0.050	0.650
2020/01/31 18:20:33.6	355.910	0.420	0.040	0.660
2020/01/31 18:20:33.7	355.890	0.430	0.030	0.680
2020/01/31 18:20:33.8	355.880	0.420	0.020	0.700
2020/01/31 18:20:33.9	355.870	0.420	0.010	0.710
2020/01/31 18:20:34.0	355.870	0.410	-0.010	0.720
2020/01/31 18:20:34.1	355.860	0.400	-0.020	0.720
2020/01/31 18:20:34.2	355.860	0.390	-0.030	0.720
2020/01/31 18:20:34.3	355.860	0.380	-0.040	0.720
2020/01/31 18:20:34.4	355.860	0.370	-0.050	0.720
2020/01/31 18:20:34.5	355.860	0.350	-0.060	0.710
2020/01/31 18:20:34.6	355.870	0.330	-0.070	0.700
2020/01/31 18:20:34.7	355.880	0.310	-0.070	0.680
2020/01/31 18:20:34.8	355.890	0.280	-0.080	0.660
2020/01/31 18:20:34.9	355.900	0.260	-0.080	0.630
2020/01/31 18:20:35.0	355.910	0.230	-0.090	0.610
2020/01/31 18:20:35.1	355.930	0.200	-0.090	0.580
2020/01/31 18:20:35.2	355.940	0.170	-0.080	0.550
2020/01/31 18:20:35.3	355.960	0.140	-0.080	0.510
2020/01/31 18:20:35.4	355.980	0.100	-0.080	0.480
2020/01/31 18:20:35.5	356.000	0.070	-0.070	0.440
2020/01/31 18:20:35.6	356.010	0.030	-0.060	0.410
2020/01/31 18:20:35.7	356.030	-0.010	-0.050	0.370
2020/01/31 18:20:35.8	356.050	-0.050	-0.030	0.330
2020/01/31 18:20:35.9	356.070	-0.090	-0.010	0.290
2020/01/31 18:20:36.0	356.080	-0.130	0.000	0.250
2020/01/31 18:20:36.1	356.090	-0.180	0.020	0.220
2020/01/31 18:20:36.2	356.100	-0.220	0.040	0.180
2020/01/31 18:20:36.3	356.110	-0.270	0.070	0.150
2020/01/31 18:20:36.4	356.110	-0.310	0.090	0.110
2020/01/31 18:20:36.5	356.110	-0.360	0.110	0.080
2020/01/31 18:20:36.6	356.110	-0.400	0.130	0.050
2020/01/31 18:20:36.7	356.110	-0.440	0.160	0.020
2020/01/31 18:20:36.8	356.100	-0.490	0.180	-0.010
2020/01/31 18:20:36.9	356.090	-0.530	0.200	-0.040
2020/01/31 18:20:37.0	356.080	-0.570	0.220	-0.070
2020/01/31 18:20:37.1	356.070	-0.610	0.230	-0.090
2020/01/31 18:20:37.2	356.060	-0.650	0.240	-0.120
2020/01/31 18:20:37.3	356.040	-0.680	0.250	-0.150
2020/01/31 18:20:37.4	356.030	-0.710	0.250	-0.170
2020/01/31 18:20:37.5	356.010	-0.740	0.250	-0.200
2020/01/31 18:20:37.6	356.000	-0.770	0.240	-0.220
2020/01/31 18:20:37.7	355.990	-0.790	0.220	-0.250
2020/01/31 18:20:37.8	355.980	-0.810	0.200	-0.280
2020/01/31 18:20:37.9	355.960	-0.820	0.180	-0.310
2020/01/31 18:20:38.0	355.960	-0.830	0.140	-0.340
2020/01/31 18:20:38.1	355.950	-0.840	0.110	-0.370
2020/01/31 18:20:38.2	355.940	-0.840	0.060	-0.410
2020/01/31 18:20:38.3	355.940	-0.840	0.010	-0.440
2020/01/31 18:20:38.4	355.940	-0.830	-0.050	-0.480
2020/01/31 18:20:38.5	355.940	-0.820	-0.110	-0.520
2020/01/31 18:20:38.6	355.940	-0.800	-0.180	-0.560
2020/01/31 18:20:38.7	355.940	-0.780	-0.260	-0.600
2020/01/31 18:20:38.8	355.960	-0.750	-0.330	-0.640
2020/01/31 18:20:38.9	355.970	-0.710	-0.410	-0.680
2020/01/31 18:20:39.0	355.970	-0.670	-0.500	-0.710
2020/01/31 18:20:39.1	355.980	-0.630	-0.580	-0.750
2020/01/31 18:20:39.2	355.980	-0.580	-0.660	-0.780
2020/01/31 18:20:39.3	355.990	-0.530	-0.740	-0.810
2020/01/31 18:20:39.4	356.000	-0.470	-0.820	-0.840
2020/01/31 18:20:39.5	356.000	-0.410	-0.900	-0.870
2020/01/31 18:20:39.6	356.010	-0.350	-0.970	-0.890
2020/01/31 18:20:39.7	356.020	-0.280	-1.040	-0.900
2020/01/31 18:20:39.8	356.010	-0.210	-1.100	-0.910
2020/01/31 18:20:39.9	356.020	-0.140	-1.160	-0.920
2020/01/31 18:20:40.0	356.020	-0.060	-1.210	-0.920
2020/01/31 18:20:40.1	356.030	0.010	-1.250	-0.920
2020/01/31 18:20:40.2	356.030	0.080	-1.280	-0.910
2020/01/31 18:20:40.3	356.040	0.160	-1.300	-0.900
2020/01/31 18:20:40.4	356.040	0.230	-1.310	-0.880
2020/01/31 18:20:40.5	356.050	0.300	-1.320	-0.860
2020/01/31 18:20:40.6	356.060	0.370	-1.320	-0.840
2020/01/31 18:20:40.7	356.060	0.440	-1.300	-0.810
2020/01/31 18:20:40.8	356.080	0.500	-1.280	-0.770
2020/01/31 18:20:40.9	356.080	0.560	-1.250	-0.740
2020/01/31 18:20:41.0	356.090	0.620	-1.210	-0.690
2020/01/31 18:20:41.1	356.100	0.680	-1.160	-0.650
2020/01/31 18:20:41.2	356.110	0.720	-1.100	-0.600
2020/01/31 18:20:41.3	356.120	0.770	-1.040	-0.550
2020/01/31 18:20:41.4	356.120	0.810	-0.970	-0.500
2020/01/31 18:20:41.5	356.130	0.840	-0.890	-0.440
2020/01/31 18:20:41.6	356.140	0.870	-0.810	-0.380
2020/01/31 18:20:41.7	356.140	0.890	-0.720	-0.320
2020/01/31 18:20:41.8	356.130	0.910	-0.630	-0.250
2020/01/31 18:20:41.9	356.140	0.920	-0.530	-0.180
2020/01/31 18:20:42.0	356.140	0.920	-0.440	-0.110
2020/01/31 18:20:42.1	356.140	0.920	-0.340	-0.050
2020/01/31 18:20:42.2	356.140	0.910	-0.240	0.020
2020/01/31 18:20:42.3	356.140	0.900	-0.140	0.090
2020/01/31 18:20:42.4	356.130	0.880	-0.040	0.170
2020/01/31 18:20:42.5	356.130	0.850	0.060	0.240
2020/01/31 18:20:42.6	356.120	0.820	0.150	0.310
2020/01/31 18:20:42.7	356.120	0.790	0.240	0.380
2020/01/31 18:20:42.8	356.100	0.750	0.320	0.450
2020/01/31 18:20:42.9	356.090	0.710	0.400	0.510
2020/01/31 18:20:43.0	356.090	0.660	0.470	0.580
2020/01/31 18:20:43.1	356.080	0.610	0.540	0.640
2020/01/31 18:20:43.2	356.070	0.560	0.600	0.700
2020/01/31 18:20:43.3	356.060	0.510	0.650	0.750
2020/01/31 18:20:43.4	356.050	0.450	0.690	0.800
2020/01/31 18:20:43.5	356.040	0.390	0.720	0.840
2020/01/31 18:20:43.6	356.040	0.340	0.750	0.870
2020/01/31 18:20:43.7	356.040	0.280	0.760	0.900
2020/01/31 18:20:43.8	356.040	0.220	0.770	0.920
2020/01/31 18:20:43.9	356.040	0.160	0.770	0.940
2020/01/31 18:20:44.0	356.040	0.100	0.760	0.940
2020/01/31 18:20:44.1	356.040	0.040	0.740	0.940
2020/01/31 18:20:44.2	356.050	-0.020	0.710	0.940
2020/01/31 18:20:44.3	356.050	-0.070	0.680	0.920
2020/01/31 18:20:44.4	356.060	-0.120	0.640	0.900
2020/01/31 18:20:44.5	356.070	-0.170	0.590	0.880
2020/01/31 18:20:44.6	356.090	-0.220	0.540	0.840
2020/01/31 18:20:44.7	356.110	-0.270	0.480	0.810
2020/01/31 18:20:44.8	356.130	-0.310	0.420	0.760
2020/01/31 18:20:44.9	356.150	-0.350	0.350	0.710
2020/01/31 18:20:45.0	356.170	-0.380	0.280	0.660
2020/01/31 18:20:45.1	356.200	-0.410	0.210	0.610
2020/01/31 18:20:45.2	356.220	-0.440	0.130	0.550
2020/01/31 18:20:45.3	356.250	-0.460	0.060	0.490
2020/01/31 18:20:45.4	356.280	-0.480	-0.020	0.430
2020/01/31 18:20:45.5	356.300	-0.500	-0.090	0.370
2020/01/31 18:20:45.6	356.330	-0.510	-0.170	0.310
2020/01/31 18:20:45.7	356.350	-0.520	-0.240	0.250
2020/01/31 18:20:45.8	356.380	-0.520	-0.310	0.190
2020/01/31 18:20:45.9	356.400	-0.520	-0.370	0.130
2020/01/31 18:20:46.0	356.420	-0.520	-0.430	0.080
2020/01/31 18:20:46.1	356.440	-0.510	-0.490	0.030
2020/01/31 18:20:46.2	356.460	-0.510	-0.540	-0.020
2020/01/31 18:20:46.3	356.470	-0.490	-0.590	-0.060
2020/01/31 18:20:46.4	356.480	-0.480	-0.630	-0.100
2020/01/31 18:20:46.5	356.490	-0.460	-0.670	-0.140
2020/01/31 18:20:46.6	356.500	-0.440	-0.710	-0.170
2020/01/31 18:20:46.7	356.500	-0.420	-0.730	-0.200
2020/01/31 18:20:46.8	356.500	-0.400	-0.760	-0.220
2020/01/31 18:20:46.9	356.500	-0.370	-0.770	-0.240
2020/01/31 18:20:47.0	356.500	-0.350	-0.780	-0.260
2020/01/31 18:20:47.1	356.490	-0.320	-0.790	-0.270
2020/01/31 18:20:47.2	356.480	-0.290	-0.790	-0.280
2020/01/31 18:20:47.3	356.470	-0.260	-0.790	-0.290
2020/01/31 18:20:47.4	356.460	-0.220	-0.780	-0.290
2020/01/31 18:20:47.5	356.450	-0.190	-0.770	-0.290
2020/01/31 18:20:47.6	356.440	-0.160	-0.760	-0.290
2020/01/31 18:20:47.7	356.430	-0.120	-0.740	-0.280
2020/01/31 18:20:47.8	356.410	-0.090	-0.720	-0.280
2020/01/31 18:20:47.9	356.390	-0.060	-0.700	-0.270
2020/01/31 18:20:48.0	356.380	-0.020	-0.670	-0.260
2020/01/31 18:20:48.1	356.370	0.010	-0.650	-0.250
2020/01/31 18:20:48.2	356.350	0.040	-0.630	-0.230
2020/01/31 18:20:48.3	356.340	0.070	-0.600	-0.220
2020/01/31 18:20:48.4	356.330	0.100	-0.570	-0.200
2020/01/31 18:20:48.5	356.320	0.130	-0.550	-0.180
2020/01/31 18:20:48.6	356.300	0.160	-0.520	-0.170
2020/01/31 18:20:48.7	356.290	0.180	-0.490	-0.150
2020/01/31 18:20:48.8	356.260	0.210	-0.460	-0.130
2020/01/31 18:20:48.9	356.250	0.230	-0.430	-0.110
2020/01/31 18:20:49.0	356.240	0.250	-0.410	-0.100
2020/01/31 18:20:49.1	356.220	0.270	-0.380	-0.080
2020/01/31 18:20:49.2	356.210	0.280	-0.350	-0.070
2020/01/31 18:20:49.3	356.200	0.290	-0.320	-0.050
2020/01/31 18:20:49.4	356.180	0.300	-0.290	-0.040
2020/01/31 18:20:49.5	356.170	0.310	-0.260	-0.030
2020/01/31 18:20:49.6	356.160	0.310	-0.230	-0.020
2020/01/31 18:20:49.7	356.150	0.310	-0.200	-0.020
2020/01/31 18:20:49.8	356.150	0.310	-0.170	-0.010
2020/01/31 18:20:49.9	356.140	0.310	-0.140	-0.010
2020/01/31 18:20:50.0	356.130	0.300	-0.100	-0.000
2020/01/31 18:20:50.1	356.120	0.290	-0.070	0.000
2020/01/31 18:20:50.2	356.110	0.280	-0.040	0.000
2020/01/31 18:20:50.3	356.100	0.260	-0.010	0.010
2020/01/31 18:20:50.4	356.100	0.250	0.030	0.010
2020/01/31 18:20:50.5	356.090	0.230	0.060	0.020
2020/01/31 18:20:50.6	356.090	0.210	0.090	0.020
2020/01/31 18:20:50.7	356.090	0.190	0.120	0.020
2020/01/31 18:20:50.8	356.080	0.170	0.150	0.030
2020/01/31 18:20:50.9	356.090	0.140	0.180	0.030
2020/01/31 18:20:51.0	356.090	0.120	0.200	0.040
2020/01/31 18:20:51.1	356.100	0.100	0.230	0.050
2020/01/31 18:20:51.2	356.100	0.070	0.250	0.050
2020/01/31 18:20:51.3	356.110	0.050	0.260	0.060
2020/01/31 18:20:51.4	356.120	0.030	0.270	0.060
2020/01/31 18:20:51.5	356.140	0.010	0.280	0.070
2020/01/31 18:20:51.6	356.150	-0.010	0.280	0.070
2020/01/31 18:20:51.7	356.170	-0.030	0.280	0.080
2020/01/31 18:20:51.8	356.190	-0.050	0.280	0.080
2020/01/31 18:20:51.9	356.210	-0.070	0.270	0.080
2020/01/31 18:20:52.0	356.230	-0.080	0.250	0.080
2020/01/31 18:20:52.1	356.250	-0.100	0.230	0.070
2020/01/31 18:20:52.2	356.280	-0.110	0.200	0.060
2020/01/31 18:20:52.3	356.310	-0.120	0.180	0.050
2020/01/31 18:20:52.4	356.330	-0.130	0.140	0.030
2020/01/31 18:20:52.5	356.360	-0.140	0.100	0.020
2020/01/31 18:20:52.6	356.390	-0.150	0.060	-0.010
2020/01/31 18:20:52.7	356.420	-0.150	0.020	-0.030
2020/01/31 18:20:52.8	356.470	-0.150	-0.030	-0.060
2020/01/31 18:20:52.9	356.500	-0.150	-0.070	-0.090
2020/01/31 18:20:53.0	356.540	-0.150	-0.120	-0.130
2020/01/31 18:20:53.1	356.570	-0.150	-0.170	-0.160
2020/01/31 18:20:53.2	356.600	-0.150	-0.220	-0.200
2020/01/31 18:20:53.3	356.640	-0.150	-0.260	-0.230
2020/01/31 18:20:53.4	356.670	-0.140	-0.310	-0.270
2020/01/31 18:20:53.5	356.700	-0.130	-0.350	-0.300
2020/01/31 18:20:53.6	356.730	-0.130	-0.390	-0.330
2020/01/31 18:20:53.7	356.760	-0.120	-0.420	-0.360
2020/01/31 18:20:53.8	356.780	-0.110	-0.450	-0.390
2020/01/31 18:20:53.9	356.800	-0.110	-0.480	-0.420
2020/01/31 18:20:54.0	356.820	-0.100	-0.510	-0.440
2020/01/31 18:20:54.1	356.840	-0.090	-0.530	-0.460
2020/01/31 18:20:54.2	356.850	-0.090	-0.540	-0.470
2020/01/31 18:20:54.3	356.870	-0.080	-0.550	-0.480
2020/01/31 18:20:54.4	356.880	-0.080	-0.560	-0.490
2020/01/31 18:20:54.5	356.880	-0.080	-0.560	-0.500
2020/01/31 18:20:54.6	356.890	-0.080	-0.560	-0.500
2020/01/31 18:20:54.7	356.890	-0.080	-0.560	-0.500
2020/01/31 18:20:54.8	356.890	-0.080	-0.550	-0.490
2020/01/31 18:20:54.9	356.890	-0.090	-0.540	-0.490
2020/01/31 18:20:55.0	356.880	-0.090	-0.530	-0.480
2020/01/31 18:20:55.1	356.870	-0.100	-0.510	-0.480
2020/01/31 18:20:55.2	356.870	-0.110	-0.500	-0.470
2020/01/31 18:20:55.3	356.860	-0.120	-0.480	-0.460
2020/01/31 18:20:55.4	356.850	-0.130	-0.460	-0.450
2020/01/31 18:20:55.5	356.830	-0.140	-0.440	-0.440
2020/01/31 18:20:55.6	356.820	-0.150	-0.420	-0.430
2020/01/31 18:20:55.7	356.810	-0.170	-0.400	-0.420
2020/01/31 18:20:55.8	356.790	-0.180	-0.370	-0.420
2020/01/31 18:20:55.9	356.780	-0.190	-0.350	-0.410
2020/01/31 18:20:56.0	356.770	-0.200	-0.330	-0.400
2020/01/31 18:20:56.1	356.750	-0.210	-0.310	-0.390
2020/01/31 18:20:56.2	356.740	-0.220	-0.290	-0.380
2020/01/31 18:20:56.3	356.730	-0.230	-0.270	-0.370
2020/01/31 18:20:56.4	356.720	-0.240	-0.250	-0.370
2020/01/31 18:20:56.5	356.720	-0.240	-0.230	-0.360
2020/01/31 18:20:56.6	356.710	-0.250	-0.220	-0.350
2020/01/31 18:20:56.7	356.700	-0.240	-0.200	-0.350
2020/01/31 18:20:56.8	356.700	-0.240	-0.190	-0.340
2020/01/31 18:20:56.9	356.690	-0.230	-0.180	-0.330
2020/01/31 18:20:57.0	356.690	-0.220	-0.180	-0.330
2020/01/31 18:20:57.1	356.700	-0.210	-0.170	-0.320
2020/01/31 18:20:57.2	356.700	-0.190	-0.160	-0.310
2020/01/31 18:20:57.3	356.700	-0.170	-0.160	-0.300
2020/01/31 18:20:57.4	356.710	-0.140	-0.160	-0.300
2020/01/31 18:20:57.5	356.720	-0.110	-0.160	-0.280
2020/01/31 18:20:57.6	356.730	-0.080	-0.170	-0.270
2020/01/31 18:20:57.7	356.740	-0.040	-0.170	-0.260
2020/01/31 18:20:57.8	356.750	0.000	-0.180	-0.250
2020/01/31 18:20:57.9	356.760	0.040	-0.190	-0.230
2020/01/31 18:20:58.0	356.770	0.090	-0.200	-0.210
2020/01/31 18:20:58.1	356.790	0.140	-0.200	-0.190
2020/01/31 18:20:58.2	356.800	0.190	-0.220	-0.170
2020/01/31 18:20:58.3	356.810	0.240	-0.230	-0.140
2020/01/31 18:20:58.4	356.820	0.290	-0.240	-0.110
2020/01/31 18:20:58.5	356.830	0.340	-0.250	-0.080
2020/01/31 18:20:58.6	356.840	0.390	-0.260	-0.040
2020/01/31 18:20:58.7	356.850	0.440	-0.270	-0.010
2020/01/31 18:20:58.8	356.850	0.490	-0.280	0.040
2020/01/31 18:20:58.9	356.850	0.530	-0.280	0.080
2020/01/31 18:20:59.0	356.860	0.580	-0.290	0.120
2020/01/31 18:20:59.1	356.860	0.620	-0.300	0.160
2020/01/31 18:20:59.2	356.860	0.650	-0.300	0.210
2020/01/31 18:20:59.3	356.860	0.690	-0.300	0.250
2020/01/31 18:20:59.4	356.860	0.720	-0.310	0.290
2020/01/31 18:20:59.5	356.860	0.740	-0.310	0.340
2020/01/31 18:20:59.6	356.860	0.760	-0.310	0.380
2020/01/31 18:20:59.7	356.860	0.770	-0.310	0.410
2020/01/31 18:20:59.8	356.870	0.780	-0.310	0.450
2020/01/31 18:20:59.9	356.870	0.780	-0.310	0.480
2020/01/31 18:21:00.0	356.880	0.780	-0.300	0.510
2020/01/31 18:21:00.1	356.880	0.770	-0.300	0.540
2020/01/31 18:21:00.2	356.880	0.760	-0.300	0.560
2020/01/31 18:21:00.3	356.890	0.740	-0.300	0.580
2020/01/31 18:21:00.4	356.900	0.710	-0.300	0.590
2020/01/31 18:21:00.5	356.910	0.680	-0.300	0.600
2020/01/31 18:21:00.6	356.930	0.650	-0.290	0.600
2020/01/31 18:21:00.7	356.940	0.610	-0.290	0.600
2020/01/31 18:21:00.8	356.980	0.570	-0.290	0.600
2020/01/31 18:21:00.9	357.000	0.520	-0.290	0.580
2020/01/31 18:21:01.0	357.030	0.470	-0.280	0.570
2020/01/31 18:21:01.1	357.050	0.420	-0.280	0.550
2020/01/31 18:21:01.2	357.080	0.360	-0.280	0.530
2020/01/31 18:21:01.3	357.100	0.300	-0.270	0.500
2020/01/31 18:21:01.4	357.130	0.240	-0.260	0.470
2020/01/31 18:21:01.5	357.160	0.180	-0.260	0.440
2020/01/31 18:21:01.6	357.190	0.120	-0.250	0.400
2020/01/31 18:21:01.7	357.220	0.060	-0.240	0.360
2020/01/31 18:21:01.8	357.240	-0.010	-0.230	0.320
2020/01/31 18:21:01.9	357.270	-0.070	-0.210	0.280
2020/01/31 18:21:02.0	357.300	-0.130	-0.190	0.240
2020/01/31 18:21:02.1	357.330	-0.190	-0.170	0.190
2020/01/31 18:21:02.2	357.350	-0.250	-0.150	0.150
2020/01/31 18:21:02.3	357.380	-0.310	-0.130	0.110
2020/01/31 18:21:02.4	357.400	-0.370	-0.100	0.060
2020/01/31 18:21:02.5	357.420	-0.420	-0.080	0.020
2020/01/31 18:21:02.6	357.440	-0.480	-0.050	-0.020
2020/01/31 18:21:02.7	357.450	-0.520	-0.010	-0.060
2020/01/31 18:21:02.8	357.480	-0.570	0.020	-0.100
2020/01/31 18:21:02.9	357.490	-0.610	0.050	-0.130
2020/01/31 18:21:03.0	357.500	-0.650	0.090	-0.170
2020/01/31 18:21:03.1	357.510	-0.690	0.120	-0.200
2020/01/31 18:21:03.2	357.510	-0.720	0.160	-0.230
2020/01/31 18:21:03.3	357.520	-0.750	0.190	-0.250
2020/01/31 18:21:03.4	357.520	-0.780	0.220	-0.280
2020/01/31 18:21:03.5	357.520	-0.800	0.250	-0.300
2020/01/31 18:21:03.6	357.520	-0.820	0.280	-0.320
2020/01/31 18:21:03.7	357.520	-0.840	0.310	-0.350
2020/01/31 18:21:03.8	357.510	-0.850	0.330	-0.370
2020/01/31 18:21:03.9	357.500	-0.850	0.350	-0.390
2020/01/31 18:21:04.0	357.500	-0.860	0.370	-0.400
2020/01/31 18:21:04.1	357.490	-0.860	0.380	-0.420
2020/01/31 18:21:04.2	357.490	-0.850	0.380	-0.440
2020/01/31 18:21:04.3	357.490	-0.850	0.390	-0.460
2020/01/31 18:21:04.4	357.480	-0.830	0.380	-0.470
2020/01/31 18:21:04.5	357.480	-0.820	0.370	-0.490
2020/01/31 18:21:04.6	357.480	-0.800	0.360	-0.500
2020/01/31 18:21:04.7	357.480	-0.780	0.340	-0.520
2020/01/31 18:21:04.8	357.470	-0.760	0.310	-0.530
2020/01/31 18:21:04.9	357.470	-0.730	0.280	-0.550
2020/01/31 18:21:05.0	357.470	-0.700	0.240	-0.560
2020/01/31 18:21:05.1	357.480	-0.660	0.200	-0.570
2020/01/31 18:21:05.2	357.480	-0.630	0.160	-0.580
2020/01/31 18:21:05.3	357.480	-0.590	0.110	-0.590
2020/01/31 18:21:05.4	357.480	-0.550	0.050	-0.600
2020/01/31 18:21:05.5	357.480	-0.510	-0.000	-0.600
2020/01/31 18:21:05.6	357.480	-0.470	-0.060	-0.600
2020/01/31 18:21:05.7	357.480	-0.420	-0.120	-0.600
2020/01/31 18:21:05.8	357.490	-0.370	-0.180	-0.600
2020/01/31 18:21:05.9	357.490	-0.330	-0.250	-0.590
2020/01/31 18:21:06.0	357.490	-0.280	-0.310	-0.570
2020/01/31 18:21:06.1	357.480	-0.230	-0.370	-0.560
2020/01/31 18:21:06.2	357.480	-0.180	-0.420	-0.540
2020/01/31 18:21:06.3	357.470	-0.130	-0.480	-0.520
2020/01/31 18:21:06.4	357.460	-0.090	-0.530	-0.490
2020/01/31 18:21:06.5	357.460	-0.040	-0.580	-0.460
2020/01/31 18:21:06.6	357.450	0.010	-0.630	-0.430
2020/01/31 18:21:06.7	357.440	0.050	-0.670	-0.400
2020/01/31 18:21:06.8	357.420	0.100	-0.710	-0.370
2020/01/31 18:21:06.9	357.410	0.140	-0.740	-0.330
2020/01/31 18:21:07.0	357.400	0.180	-0.770	-0.290
2020/01/31 18:21:07.1	357.390	0.220	-0.790	-0.260
2020/01/31 18:21:07.2	357.380	0.260	-0.810	-0.220
2020/01/31 18:21:07.3	357.370	0.300	-0.820	-0.180
2020/01/31 18:21:07.4	357.360	0.330	-0.820	-0.140
2020/01/31 18:21:07.5	357.350	0.360	-0.830	-0.100
2020/01/31 18:21:07.6	357.350	0.390	-0.820	-0.060
2020/01/31 18:21:07.7	357.350	0.420	-0.820	-0.020
2020/01/31 18:21:07.8	357.330	0.440	-0.800	0.020
2020/01/31 18:21:07.9	357.340	0.460	-0.790	0.060
2020/01/31 18:21:08.0	357.340	0.480	-0.770	0.090
2020/01/31 18:21:08.1	357.350	0.500	-0.750	0.130
2020/01/31 18:21:08.2	357.360	0.510	-0.730	0.160
2020/01/31 18:21:08.3	357.370	0.520	-0.700	0.190
2020/01/31 18:21:08.4	357.390	0.530	-0.680	0.220
2020/01/31 18:21:08.5	357.410	0.540	-0.660	0.240
2020/01/31 18:21:08.6	357.430	0.550	-0.630	0.270
2020/01/31 18:21:08.7	357.460	0.550	-0.610	0.290
2020/01/31 18:21:08.8	357.480	0.550	-0.580	0.310
2020/01/31 18:21:08.9	357.510	0.550	-0.560	0.330
2020/01/31 18:21:09.0	357.540	0.550	-0.540	0.340
2020/01/31 18:21:09.1	357.580	0.540	-0.520	0.360
2020/01/31 18:21:09.2	357.610	0.540	-0.500	0.370
2020/01/31 18:21:09.3	357.650	0.530	-0.480	0.380
2020/01/31 18:21:09.4	357.690	0.520	-0.470	0.390
2020/01/31 18:21:09.5	357.730	0.510	-0.450	0.390
2020/01/31 18:21:09.6	357.770	0.490	-0.440	0.400
2020/01/31 18:21:09.7	357.810	0.480	-0.420	0.400
2020/01/31 18:21:09.8	357.870	0.460	-0.410	0.400
2020/01/31 18:21:09.9	357.910	0.440	-0.400	0.400
2020/01/31 18:21:10.0	357.950	0.420	-0.380	0.390
2020/01/31 18:21:10.1	357.980	0.400	-0.370	0.380
2020/01/31 18:21:10.2	358.020	0.380	-0.350	0.370
2020/01/31 18:21:10.3	358.060	0.350	-0.340	0.360
2020/01/31 18:21:10.4	358.090	0.320	-0.320	0.340
2020/01/31 18:21:10.5	358.130	0.300	-0.300	0.320
2020/01/31 18:21:10.6	358.160	0.270	-0.280	0.290
2020/01/31 18:21:10.7	358.190	0.240	-0.260	0.270
2020/01/31 18:21:10.8	358.230	0.210	-0.240	0.230
2020/01/31 18:21:10.9	358.250	0.180	-0.210	0.200
2020/01/31 18:21:11.0	358.280	0.150	-0.190	0.170
2020/01/31 18:21:11.1	358.300	0.120	-0.160	0.140
2020/01/31 18:21:11.2	358.320	0.090	-0.130	0.110
2020/01/31 18:21:11.3	358.340	0.060	-0.100	0.080
2020/01/31 18:21:11.4	358.350	0.030	-0.070	0.050
2020/01/31 18:21:11.5	358.370	-0.000	-0.040	0.020
2020/01/31 18:21:11.6	358.380	-0.030	-0.010	-0.010
2020/01/31 18:21:11.7	358.380	-0.060	0.020	-0.040
2020/01/31 18:21:11.8	358.400	-0.090	0.060	-0.060
2020/01/31 18:21:11.9	358.400	-0.110	0.090	-0.090
2020/01/31 18:21:12.0	358.400	-0.140	0.120	-0.110
2020/01/31 18:21:12.1	358.400	-0.160	0.150	-0.130
2020/01/31 18:21:12.2	358.390	-0.180	0.180	-0.140
2020/01/31 18:21:12.3	358.380	-0.200	0.210	-0.150
2020/01/31 18:21:12.4	358.370	-0.220	0.240	-0.160
2020/01/31 18:21:12.5	358.360	-0.240	0.260	-0.170
2020/01/31 18:21:12.6	358.350	-0.250	0.280	-0.170
2020/01/31 18:21:12.7	358.330	-0.260	0.300	-0.170
2020/01/31 18:21:12.8	358.320	-0.270	0.320	-0.160
2020/01/31 18:21:12.9	358.300	-0.270	0.340	-0.160
2020/01/31 18:21:13.0	358.280	-0.280	0.350	-0.150
2020/01/31 18:21:13.1	358.250	-0.280	0.350	-0.130
2020/01/31 18:21:13.2	358.230	-0.270	0.360	-0.120
2020/01/31 18:21:13.3	358.200	-0.270	0.360	-0.100
2020/01/31 18:21:13.4	358.170	-0.260	0.350	-0.080
2020/01/31 18:21:13.5	358.150	-0.250	0.350	-0.060
2020/01/31 18:21:13.6	358.120	-0.230	0.340	-0.040
2020/01/31 18:21:13.7	358.090	-0.210	0.320	-0.010
2020/01/31 18:21:13.8	358.050	-0.190	0.300	0.010
2020/01/31 18:21:13.9	358.020	-0.170	0.280	0.040
2020/01/31 18:21:14.0	357.990	-0.140	0.260	0.060
2020/01/31 18:21:14.1	357.960	-0.120	0.230	0.090
2020/01/31 18:21:14.2	357.930	-0.090	0.200	0.110
2020/01/31 18:21:14.3	357.910	-0.060	0.170	0.140
2020/01/31 18:21:14.4	357.880	-0.020	0.130	0.160
2020/01/31 18:21:14.5	357.850	0.010	0.090	0.180
2020/01/31 18:21:14.6	357.830	0.050	0.050	0.200
2020/01/31 18:21:14.7	357.810	0.080	0.010	0.220
2020/01/31 18:21:14.8	357.800	0.120	-0.030	0.240
2020/01/31 18:21:14.9	357.790	0.150	-0.070	0.260
2020/01/31 18:21:15.0	357.780	0.190	-0.120	0.270
2020/01/31 18:21:15.1	357.770	0.220	-0.160	0.280
2020/01/31 18:21:15.2	357.760	0.260	-0.210	0.290
2020/01/31 18:21:15.3	357.760	0.290	-0.250	0.300
2020/01/31 18:21:15.4	357.760	0.320	-0.290	0.310
2020/01/31 18:21:15.5	357.760	0.340	-0.340	0.310
2020/01/31 18:21:15.6	357.770	0.370	-0.380	0.320
2020/01/31 18:21:15.7	357.780	0.390	-0.420	0.320
2020/01/31 18:21:15.8	357.770	0.410	-0.450	0.320
2020/01/31 18:21:15.9	357.790	0.420	-0.490	0.320
2020/01/31 18:21:16.0	357.810	0.430	-0.520	0.320
2020/01/31 18:21:16.1	357.830	0.430	-0.550	0.320
2020/01/31 18:21:16.2	357.850	0.440	-0.570	0.310
2020/01/31 18:21:16.3	357.870	0.430	-0.600	0.300
2020/01/31 18:21:16.4	357.900	0.420	-0.620	0.290
2020/01/31 18:21:16.5	357.930	0.410	-0.630	0.280
2020/01/31 18:21:16.6	357.960	0.390	-0.650	0.270
2020/01/31 18:21:16.7	357.990	0.370	-0.660	0.260
2020/01/31 18:21:16.8	358.010	0.340	-0.660	0.240
2020/01/31 18:21:16.9	358.050	0.310	-0.670	0.230
2020/01/31 18:21:17.0	358.080	0.270	-0.670	0.210
2020/01/31 18:21:17.1	358.120	0.230	-0.660	0.180
2020/01/31 18:21:17.2	358.160	0.190	-0.660	0.160
2020/01/31 18:21:17.3	358.190	0.140	-0.650	0.130
2020/01/31 18:21:17.4	358.230	0.090	-0.640	0.100
2020/01/31 18:21:17.5	358.270	0.040	-0.620	0.060
2020/01/31 18:21:17.6	358.310	-0.020	-0.610	0.020
2020/01/31 18:21:17.7	358.350	-0.080	-0.590	-0.020
2020/01/31 18:21:17.8	358.390	-0.140	-0.570	-0.060
2020/01/31 18:21:17.9	358.430	-0.200	-0.540	-0.110
2020/01/31 18:21:18.0	358.470	-0.260	-0.510	-0.150
2020/01/31 18:21:18.1	358.510	-0.320	-0.490	-0.200
2020/01/31 18:21:18.2	358.550	-0.370	-0.460	-0.250
2020/01/31 18:21:18.3	358.590	-0.430	-0.430	-0.310
2020/01/31 18:21:18.4	358.620	-0.480	-0.390	-0.360
2020/01/31 18:21:18.5	358.660	-0.540	-0.360	-0.410
2020/01/31 18:21:18.6	358.700	-0.590	-0.320	-0.460
2020/01/31 18:21:18.7	358.730	-0.630	-0.290	-0.510
2020/01/31 18:21:18.8	358.770	-0.670	-0.250	-0.550
2020/01/31 18:21:18.9	358.800	-0.710	-0.220	-0.600
2020/01/31 18:21:19.0	358.820	-0.740	-0.180	-0.640
2020/01/31 18:21:19.1	358.850	-0.770	-0.140	-0.670
2020/01/31 18:21:19.2	358.870	-0.790	-0.110	-0.700
2020/01/31 18:21:19.3	358.880	-0.810	-0.070	-0.730
2020/01/31 18:21:19.4	358.900	-0.830	-0.030	-0.750
2020/01/31 18:21:19.5	358.910	-0.830	-0.000	-0.770
2020/01/31 18:21:19.6	358.910	-0.840	0.030	-0.780
2020/01/31 18:21:19.7	358.920	-0.840	0.060	-0.790
2020/01/31 18:21:19.8	358.910	-0.830	0.090	-0.790
2020/01/31 18:21:19.9	358.910	-0.820	0.120	-0.790
2020/01/31 18:21:20.0	358.900	-0.800	0.140	-0.790
2020/01/31 18:21:20.1	358.890	-0.780	0.160	-0.780
2020/01/31 18:21:20.2	358.880	-0.760	0.180	-0.770
2020/01/31 18:21:20.3	358.870	-0.730	0.190	-0.760
2020/01/31 18:21:20.4	358.860	-0.700	0.210	-0.740
2020/01/31 18:21:20.5	358.840	-0.670	0.220	-0.730
2020/01/31 18:21:20.6	358.820	-0.630	0.220	-0.710
2020/01/31 18:21:20.7	358.810	-0.590	0.230	-0.690
2020/01/31 18:21:20.8	358.780	-0.550	0.230	-0.660
2020/01/31 18:21:20.9	358.760	-0.510	0.220	-0.640
2020/01/31 18:21:21.0	358.740	-0.460	0.220	-0.610
2020/01/31 18:21:21.1	358.720	-0.420	0.210	-0.590
2020/01/31 18:21:21.2	358.700	-0.370	0.200	-0.560
2020/01/31 18:21:21.3	358.680	-0.330	0.180	-0.530
2020/01/31 18:21:21.4	358.660	-0.280	0.170	-0.500
2020/01/31 18:21:21.5	358.640	-0.230	0.150	-0.460
2020/01/31 18:21:21.6	358.620	-0.180	0.130	-0.430
2020/01/31 18:21:21.7	358.600	-0.140	0.110	-0.390
2020/01/31 18:21:21.8	358.580	-0.090	0.080	-0.350
2020/01/31 18:21:21.9	358.560	-0.050	0.060	-0.310
2020/01/31 18:21:22.0	358.540	-0.000	0.030	-0.260
2020/01/31 18:21:22.1	358.520	0.040	0.010	-0.210
2020/01/31 18:21:22.2	358.510	0.080	-0.020	-0.160
2020/01/31 18:21:22.3	358.490	0.130	-0.050	-0.110
2020/01/31 18:21:22.4	358.470	0.170	-0.070	-0.050
2020/01/31 18:21:22.5	358.450	0.200	-0.100	0.010
2020/01/31 18:21:22.6	358.430	0.240	-0.130	0.070
2020/01/31 18:21:22.7	358.410	0.280	-0.150	0.140
2020/01/31 18:21:22.8	358.400	0.310	-0.180	0.200
2020/01/31 18:21:22.9	358.380	0.350	-0.200	0.270
2020/01/31 18:21:23.0	358.370	0.380	-0.220	0.340
2020/01/31 18:21:23.1	358.350	0.410	-0.250	0.410
2020/01/31 18:21:23.2	358.340	0.440	-0.270	0.470
2020/01/31 18:21:23.3	358.330	0.470	-0.290	0.540
2020/01/31 18:21:23.4	358.320	0.500	-0.320	0.600
2020/01/31 18:21:23.5	358.310	0.530	-0.340	0.670
2020/01/31 18:21:23.6	358.310	0.560	-0.360	0.730
2020/01/31 18:21:23.7	358.300	0.580	-0.390	0.780
2020/01/31 18:21:23.8	358.290	0.610	-0.410	0.840
2020/01/31 18:21:23.9	358.290	0.640	-0.440	0.890
2020/01/31 18:21:24.0	358.290	0.660	-0.460	0.930
2020/01/31 18:21:24.1	358.300	0.690	-0.490	0.970
2020/01/31 18:21:24.2	358.310	0.720	-0.520	1.010
2020/01/31 18:21:24.3	358.330	0.740	-0.540	1.040
2020/01/31 18:21:24.4	358.340	0.760	-0.570	1.060
2020/01/31 18:21:24.5	358.360	0.790	-0.600	1.080
2020/01/31 18:21:24.6	358.380	0.810	-0.630	1.090
2020/01/31 18:21:24.7	358.400	0.830	-0.660	1.100
2020/01/31 18:21:24.8	358.430	0.850	-0.690	1.110
2020/01/31 18:21:24.9	358.460	0.860	-0.720	1.100
2020/01/31 18:21:25.0	358.490	0.880	-0.740	1.100
2020/01/31 18:21:25.1	358.520	0.890	-0.770	1.080
2020/01/31 18:21:25.2	358.550	0.900	-0.800	1.070
2020/01/31 18:21:25.3	358.580	0.910	-0.820	1.040
2020/01/31 18:21:25.4	358.620	0.910	-0.840	1.020
2020/01/31 18:21:25.5	358.650	0.910	-0.860	0.980
2020/01/31 18:21:25.6	358.690	0.900	-0.880	0.950
2020/01/31 18:21:25.7	358.730	0.890	-0.890	0.900
2020/01/31 18:21:25.8	358.770	0.880	-0.910	0.860
2020/01/31 18:21:25.9	358.810	0.860	-0.920	0.810
2020/01/31 18:21:26.0	358.850	0.840	-0.930	0.760
2020/01/31 18:21:26.1	358.890	0.810	-0.930	0.700
2020/01/31 18:21:26.2	358.930	0.780	-0.930	0.640
2020/01/31 18:21:26.3	358.970	0.740	-0.920	0.570
2020/01/31 18:21:26.4	359.010	0.700	-0.910	0.500
2020/01/31 18:21:26.5	359.050	0.650	-0.890	0.430
2020/01/31 18:21:26.6	359.100	0.600	-0.870	0.350
2020/01/31 18:21:26.7	359.140	0.540	-0.850	0.270
2020/01/31 18:21:26.8	359.190	0.480	-0.810	0.190
2020/01/31 18:21:26.9	359.230	0.420	-0.780	0.100
2020/01/31 18:21:27.0	359.270	0.350	-0.740	0.020
2020/01/31 18:21:27.1	359.320	0.280	-0.700	-0.070
2020/01/31 18:21:27.2	359.360	0.210	-0.650	-0.160
2020/01/31 18:21:27.3	359.400	0.130	-0.600	-0.250
2020/01/31 18:21:27.4	359.440	0.050	-0.540	-0.340
2020/01/31 18:21:27.5	359.480	-0.030	-0.480	-0.430
2020/01/31 18:21:27.6	359.520	-0.110	-0.410	-0.520
2020/01/31 18:21:27.7	359.560	-0.190	-0.350	-0.610
2020/01/31 18:21:27.8	359.600	-0.270	-0.270	-0.700
2020/01/31 18:21:27.9	359.630	-0.350	-0.200	-0.790
2020/01/31 18:21:28.0	359.660	-0.430	-0.130	-0.870
2020/01/31 18:21:28.1	359.690	-0.510	-0.050	-0.950
2020/01/31 18:21:28.2	359.720	-0.590	0.030	-1.020
2020/01/31 18:21:28.3	359.740	-0.660	0.110	-1.090
2020/01/31 18:21:28.4	359.760	-0.730	0.190	-1.150
2020/01/31 18:21:28.5	359.780	-0.800	0.280	-1.200
2020/01/31 18:21:28.6	359.790	-0.860	0.360	-1.250
2020/01/31 18:21:28.7	359.800	-0.920	0.440	-1.290
2020/01/31 18:21:28.8	359.810	-0.970	0.520	-1.340
2020/01/31 18:21:28.9	359.810	-1.020	0.590	-1.360
2020/01/31 18:21:29.0	359.810	-1.070	0.670	-1.380
2020/01/31 18:21:29.1	359.810	-1.100	0.740	-1.390
2020/01/31 18:21:29.2	359.800	-1.130	0.800	-1.400
2020/01/31 18:21:29.3	359.790	-1.160	0.870	-1.400
2020/01/31 18:21:29.4	359.780	-1.180	0.920	-1.390
2020/01/31 18:21:29.5	359.760	-1.190	0.980	-1.370
2020/01/31 18:21:29.6	359.730	-1.200	1.020	-1.340
2020/01/31 18:21:29.7	359.710	-1.200	1.060	-1.310
2020/01/31 18:21:29.8	359.670	-1.190	1.090	-1.280
2020/01/31 18:21:29.9	359.640	-1.180	1.120	-1.230
2020/01/31 18:21:30.0	359.610	-1.160	1.140	-1.190
2020/01/31 18:21:30.1	359.580	-1.130	1.150	-1.140
2020/01/31 18:21:30.2	359.540	-1.100	1.150	-1.080
2020/01/31 18:21:30.3	359.500	-1.060	1.150	-1.020
2020/01/31 18:21:30.4	359.470	-1.020	1.130	-0.960
2020/01/31 18:21:30.5	359.430	-0.980	1.110	-0.890
2020/01/31 18:21:30.6	359.390	-0.920	1.080	-0.830
2020/01/31 18:21:30.7	359.350	-0.870	1.040	-0.760
2020/01/31 18:21:30.8	359.310	-0.810	1.000	-0.690
2020/01/31 18:21:30.9	359.290	-0.740	0.940	-0.620
2020/01/31 18:21:31.0	359.250	-0.680	0.880	-0.540
2020/01/31 18:21:31.1	359.210	-0.610	0.810	-0.470
2020/01/31 18:21:31.2	359.180	-0.540	0.730	-0.400
2020/01/31 18:21:31.3	359.140	-0.460	0.650	-0.330
2020/01/31 18:21:31.4	359.110	-0.390	0.560	-0.260
2020/01/31 18:21:31.5	359.080	-0.310	0.470	-0.200
2020/01/31 18:21:31.6	359.050	-0.240	0.370	-0.130
2020/01/31 18:21:31.7	359.020	-0.160	0.270	-0.070
2020/01/31 18:21:31.8	359.010	-0.090	0.160	-0.010
2020/01/31 18:21:31.9	358.990	-0.020	0.050	0.050
2020/01/31 18:21:32.0	358.970	0.060	-0.060	0.100
2020/01/31 18:21:32.1	358.960	0.130	-0.170	0.150
2020/01/31 18:21:32.2	358.950	0.200	-0.280	0.190
2020/01/31 18:21:32.3	358.940	0.260	-0.400	0.230
2020/01/31 18:21:32.4	358.940	0.330	-0.510	0.270
2020/01/31 18:21:32.5	358.950	0.390	-0.620	0.290
2020/01/31 18:21:32.6	358.960	0.440	-0.720	0.320
2020/01/31 18:21:32.7	358.970	0.500	-0.830	0.340
2020/01/31 18:21:32.8	358.980	0.550	-0.930	0.360
2020/01/31 18:21:32.9	359.000	0.590	-1.020	0.370
2020/01/31 18:21:33.0	359.020	0.630	-1.110	0.380
2020/01/31 18:21:33.1	359.050	0.670	-1.190	0.380
2020/01/31 18:21:33.2	359.080	0.710	-1.260	0.390
2020/01/31 18:21:33.3	359.110	0.730	-1.330	0.390
2020/01/31 18:21:33.4	359.140	0.760	-1.390	0.390
2020/01/31 18:21:33.5	359.180	0.780	-1.440	0.380
2020/01/31 18:21:33.6	359.210	0.790	-1.480	0.380
2020/01/31 18:21:33.7	359.250	0.800	-1.510	0.370
2020/01/31 18:21:33.8	359.270	0.810	-1.530	0.370
2020/01/31 18:21:33.9	359.300	0.810	-1.540	0.360
2020/01/31 18:21:34.0	359.340	0.810	-1.540	0.360
2020/01/31 18:21:34.1	359.370	0.800	-1.530	0.350
2020/01/31 18:21:34.2	359.410	0.780	-1.510	0.340
2020/01/31 18:21:34.3	359.440	0.770	-1.490	0.330
2020/01/31 18:21:34.4	359.470	0.750	-1.450	0.330
2020/01/31 18:21:34.5	359.510	0.720	-1.410	0.320
2020/01/31 18:21:34.6	359.540	0.690	-1.360	0.310
2020/01/31 18:21:34.7	359.570	0.660	-1.300	0.300
2020/01/31 18:21:34.8	359.590	0.620	-1.240	0.290
2020/01/31 18:21:34.9	359.620	0.580	-1.170	0.280
2020/01/31 18:21:35.0	359.640	0.540	-1.100	0.260
2020/01/31 18:21:35.1	359.670	0.490	-1.020	0.250
2020/01/31 18:21:35.2	359.690	0.450	-0.950	0.240
2020/01/31 18:21:35.3	359.710	0.400	-0.870	0.220
2020/01/31 18:21:35.4	359.730	0.350	-0.790	0.200
2020/01/31 18:21:35.5	359.760	0.290	-0.710	0.190
2020/01/31 18:21:35.6	359.780	0.240	-0.630	0.170
2020/01/31 18:21:35.7	359.800	0.190	-0.550	0.140
2020/01/31 18:21:35.8	359.820	0.130	-0.480	0.120
2020/01/31 18:21:35.9	359.850	0.080	-0.400	0.090
2020/01/31 18:21:36.0	359.870	0.030	-0.340	0.070
2020/01/31 18:21:36.1	359.890	-0.020	-0.270	0.040
2020/01/31 18:21:36.2	359.920	-0.070	-0.210	0.010
2020/01/31 18:21:36.3	359.940	-0.120	-0.160	-0.020
2020/01/31 18:21:36.4	359.970	-0.160	-0.110	-0.050
2020/01/31 18:21:36.5	0.000	-0.200	-0.060	-0.090
2020/01/31 18:21:36.6	0.030	-0.240	-0.020	-0.120
2020/01/31 18:21:36.7	0.060	-0.280	0.020	-0.150
2020/01/31 18:21:36.8	0.080	-0.310	0.050	-0.190
2020/01/31 18:21:36.9	0.110	-0.340	0.080	-0.230
2020/01/31 18:21:37.0	0.140	-0.370	0.110	-0.260
2020/01/31 18:21:37.1	0.170	-0.390	0.130	-0.290
2020/01/31 18:21:37.2	0.200	-0.410	0.150	-0.320
2020/01/31 18:21:37.3	0.220	-0.420	0.170	-0.350
2020/01/31 18:21:37.4	0.250	-0.430	0.190	-0.380
2020/01/31 18:21:37.5	0.270	-0.440	0.210	-0.400
2020/01/31 18:21:37.6	0.300	-0.440	0.220	-0.420
2020/01/31 18:21:37.7	0.320	-0.440	0.230	-0.440
2020/01/31 18:21:37.8	0.340	-0.440	0.250	-0.450
2020/01/31 18:21:37.9	0.350	-0.430	0.260	-0.460
2020/01/31 18:21:38.0	0.370	-0.420	0.270	-0.460
2020/01/31 18:21:38.1	0.380	-0.410	0.280	-0.470
2020/01/31 18:21:38.2	0.390	-0.390	0.290	-0.460
2020/01/31 18:21:38.3	0.400	-0.370	0.300	-0.450
2020/01/31 18:21:38.4	0.410	-0.340	0.310	-0.440
2020/01/31 18:21:38.5	0.410	-0.320	0.330	-0.420
2020/01/31 18:21:38.6	0.410	-0.290	0.340	-0.400
2020/01/31 18:21:38.7	0.410	-0.260	0.350	-0.380
2020/01/31 18:21:38.8	0.400	-0.230	0.360	-0.350
2020/01/31 18:21:38.9	0.400	-0.190	0.370	-0.320
2020/01/31 18:21:39.0	0.390	-0.160	0.380	-0.280
2020/01/31 18:21:39.1	0.370	-0.120	0.390	-0.240
2020/01/31 18:21:39.2	0.360	-0.090	0.400	-0.200
2020/01/31 18:21:39.3	0.340	-0.050	0.400	-0.160
2020/01/31 18:21:39.4	0.320	-0.020	0.410	-0.110
2020/01/31 18:21:39.5	0.300	0.020	0.410	-0.060
2020/01/31 18:21:39.6	0.280	0.050	0.410	-0.020
2020/01/31 18:21:39.7	0.260	0.090	0.410	0.030
2020/01/31 18:21:39.8	0.230	0.120	0.400	0.080
2020/01/31 18:21:39.9	0.200	0.150	0.400	0.130
2020/01/31 18:21:40.0	0.180	0.170	0.390	0.180
2020/01/31 18:21:40.1	0.150	0.200	0.370	0.220
2020/01/31 18:21:40.2	0.120	0.220	0.360	0.270
2020/01/31 18:21:40.3	0.100	0.240	0.340	0.310
2020/01/31 18:21:40.4	0.070	0.260	0.310	0.350
2020/01/31 18:21:40.5	0.050	0.270	0.290	0.390
2020/01/31 18:21:40.6	0.020	0.280	0.260	0.420
2020/01/31 18:21:40.7	0.000	0.290	0.230	0.450
2020/01/31 18:21:40.8	359.990	0.300	0.190	0.480
2020/01/31 18:21:40.9	359.970	0.300	0.150	0.500
2020/01/31 18:21:41.0	359.960	0.300	0.110	0.520
2020/01/31 18:21:41.1	359.950	0.300	0.070	0.530
2020/01/31 18:21:41.2	359.950	0.300	0.020	0.540
2020/01/31 18:21:41.3	359.950	0.290	-0.030	0.540
2020/01/31 18:21:41.4	359.960	0.280	-0.080	0.540
2020/01/31 18:21:41.5	359.970	0.280	-0.130	0.530
2020/01/31 18:21:41.6	359.980	0.270	-0.190	0.510
2020/01/31 18:21:41.7	0.000	0.250	-0.240	0.490
2020/01/31 18:21:41.8	0.040	0.240	-0.300	0.460
2020/01/31 18:21:41.9	0.080	0.230	-0.360	0.420
2020/01/31 18:21:42.0	0.110	0.220	-0.430	0.390
2020/01/31 18:21:42.1	0.160	0.210	-0.490	0.340
2020/01/31 18:21:42.2	0.200	0.200	-0.550	0.290
2020/01/31 18:21:42.3	0.260	0.190	-0.610	0.240
2020/01/31 18:21:42.4	0.310	0.180	-0.670	0.190
2020/01/31 18:21:42.5	0.370	0.170	-0.730	0.130
2020/01/31 18:21:42.6	0.430	0.160	-0.780	0.070
2020/01/31 18:21:42.7	0.500	0.150	-0.840	0.010
2020/01/31 18:21:42.8	0.550	0.140	-0.890	-0.060
2020/01/31 18:21:42.9	0.620	0.140	-0.930	-0.120
2020/01/31 18:21:43.0	0.690	0.130	-0.970	-0.180
2020/01/31 18:21:43.1	0.750	0.130	-1.010	-0.240
2020/01/31 18:21:43.2	0.820	0.130	-1.040	-0.300
2020/01/31 18:21:43.3	0.880	0.120	-1.060	-0.360
2020/01/31 18:21:43.4	0.950	0.120	-1.080	-0.410
2020/01/31 18:21:43.5	1.010	0.120	-1.080	-0.460
2020/01/31 18:21:43.6	1.070	0.120	-1.080	-0.510
2020/01/31 18:21:43.7	1.120	0.110	-1.080	-0.560
2020/01/31 18:21:43.8	1.170	0.110	-1.060	-0.600
2020/01/31 18:21:43.9	1.220	0.110	-1.040	-0.640
2020/01/31 18:21:44.0	1.270	0.100	-1.000	-0.670
2020/01/31 18:21:44.1	1.310	0.090	-0.960	-0.700
2020/01/31 18:21:44.2	1.350	0.090	-0.910	-0.730
2020/01/31 18:21:44.3	1.380	0.080	-0.860	-0.750
2020/01/31 18:21:44.4	1.410	0.060	-0.790	-0.770
2020/01/31 18:21:44.5	1.440	0.050	-0.720	-0.780
2020/01/31 18:21:44.6	1.460	0.040	-0.650	-0.790
2020/01/31 18:21:44.7	1.470	0.020	-0.560	-0.800
2020/01/31 18:21:44.8	1.490	0.000	-0.480	-0.800
2020/01/31 18:21:44.9	1.490	-0.020	-0.390	-0.790
2020/01/31 18:21:45.0	1.500	-0.040	-0.290	-0.780
2020/01/31 18:21:45.1	1.500	-0.060	-0.200	-0.760
2020/01/31 18:21:45.2	1.500	-0.080	-0.100	-0.740
2020/01/31 18:21:45.3	1.490	-0.110	-0.000	-0.720
2020/01/31 18:21:45.4	1.480	-0.130	0.100	-0.690
2020/01/31 18:21:45.5	1.470	-0.160	0.190	-0.650
2020/01/31 18:21:45.6	1.460	-0.180	0.290	-0.610
2020/01/31 18:21:45.7	1.440	-0.210	0.380	-0.570
2020/01/31 18:21:45.8	1.420	-0.240	0.460	-0.520
2020/01/31 18:21:45.9	1.410	-0.260	0.540	-0.470
2020/01/31 18:21:46.0	1.390	-0.290	0.610	-0.420
2020/01/31 18:21:46.1	1.370	-0.310	0.680	-0.370
2020/01/31 18:21:46.2	1.340	-0.340	0.730	-0.320
2020/01/31 18:21:46.3	1.320	-0.360	0.780	-0.260
2020/01/31 18:21:46.4	1.300	-0.380	0.820	-0.210
2020/01/31 18:21:46.5	1.280	-0.400	0.850	-0.160
2020/01/31 18:21:46.6	1.260	-0.420	0.870	-0.100
2020/01/31 18:21:46.7	1.240	-0.430	0.880	-0.050
2020/01/31 18:21:46.8	1.220	-0.450	0.870	-0.010
2020/01/31 18:21:46.9	1.210	-0.460	0.860	0.030
2020/01/31 18:21:47.0	1.190	-0.460	0.830	0.070
2020/01/31 18:21:47.1	1.170	-0.470	0.800	0.110
2020/01/31 18:21:47.2	1.160	-0.470	0.750	0.140
2020/01/31 18:21:47.3	1.150	-0.470	0.700	0.170
2020/01/31 18:21:47.4	1.140	-0.460	0.630	0.190
2020/01/31 18:21:47.5	1.140	-0.460	0.560	0.210
2020/01/31 18:21:47.6	1.140	-0.440	0.470	0.220
2020/01/31 18:21:47.7	1.140	-0.430	0.380	0.220
2020/01/31 18:21:47.8	1.150	-0.410	0.280	0.220
2020/01/31 18:21:47.9	1.160	-0.390	0.180	0.210
2020/01/31 18:21:48.0	1.170	-0.370	0.070	0.200
2020/01/31 18:21:48.1	1.190	-0.350	-0.040	0.180
2020/01/31 18:21:48.2	1.220	-0.320	-0.160	0.150
2020/01/31 18:21:48.3	1.250	-0.290	-0.280	0.120
2020/01/31 18:21:48.4	1.280	-0.260	-0.400	0.080
2020/01/31 18:21:48.5	1.310	-0.230	-0.520	0.040
2020/01/31 18:21:48.6	1.350	-0.190	-0.640	0.000
2020/01/31 18:21:48.7	1.390	-0.160	-0.760	-0.040
2020/01/31 18:21:48.8	1.460	-0.120	-0.870	-0.090
2020/01/31 18:21:48.9	1.510	-0.080	-0.980	-0.140
2020/01/31 18:21:49.0	1.560	-0.050	-1.080	-0.190
2020/01/31 18:21:49.1	1.610	-0.010	-1.170	-0.240
2020/01/31 18:21:49.2	1.660	0.030	-1.260	-0.290
2020/01/31 18:21:49.3	1.720	0.070	-1.340	-0.330
2020/01/31 18:21:49.4	1.780	0.100	-1.410	-0.380
2020/01/31 18:21:49.5	1.840	0.140	-1.460	-0.420
2020/01/31 18:21:49.6	1.890	0.170	-1.510	-0.460
2020/01/31 18:21:49.7	1.950	0.210	-1.540	-0.500
2020/01/31 18:21:49.8	2.010	0.240	-1.570	-0.540
2020/01/31 18:21:49.9	2.070	0.270	-1.580	-0.570
2020/01/31 18:21:50.0	2.130	0.300	-1.580	-0.600
2020/01/31 18:21:50.1	2.180	0.330	-1.560	-0.630
2020/01/31 18:21:50.2	2.240	0.350	-1.540	-0.650
2020/01/31 18:21:50.3	2.290	0.380	-1.500	-0.660
2020/01/31 18:21:50.4	2.340	0.400	-1.450	-0.670
2020/01/31 18:21:50.5	2.390	0.410	-1.390	-0.680
2020/01/31 18:21:50.6	2.440	0.430	-1.320	-0.680
2020/01/31 18:21:50.7	2.480	0.450	-1.230	-0.680
2020/01/31 18:21:50.8	2.530	0.460	-1.150	-0.670
2020/01/31 18:21:50.9	2.570	0.470	-1.040	-0.660
2020/01/31 18:21:51.0	2.600	0.470	-0.940	-0.640
2020/01/31 18:21:51.1	2.640	0.480	-0.820	-0.610
2020/01/31 18:21:51.2	2.670	0.480	-0.700	-0.580
2020/01/31 18:21:51.3	2.700	0.480	-0.580	-0.550
2020/01/31 18:21:51.4	2.720	0.480	-0.450	-0.510
2020/01/31 18:21:51.5	2.750	0.470	-0.320	-0.470
2020/01/31 18:21:51.6	2.770	0.470	-0.190	-0.430
2020/01/31 18:21:51.7	2.790	0.460	-0.060	-0.380
2020/01/31 18:21:51.8	2.790	0.450	0.060	-0.330
2020/01/31 18:21:51.9	2.800	0.440	0.190	-0.280
2020/01/31 18:21:52.0	2.820	0.420	0.300	-0.220
2020/01/31 18:21:52.1	2.830	0.410	0.420	-0.160
2020/01/31 18:21:52.2	2.830	0.390	0.530	-0.100
2020/01/31 18:21:52.3	2.840	0.370	0.630	-0.050
2020/01/31 18:21:52.4	2.850	0.350	0.720	0.010
2020/01/31 18:21:52.5	2.850	0.330	0.800	0.070
2020/01/31 18:21:52.6	2.860	0.310	0.870	0.130
2020/01/31 18:21:52.7	2.860	0.290	0.940	0.180
2020/01/31 18:21:52.8	2.850	0.270	0.990	0.230
2020/01/31 18:21:52.9	2.850	0.250	1.030	0.280
2020/01/31 18:21:53.0	2.860	0.230	1.060	0.320
2020/01/31 18:21:53.1	2.860	0.200	1.070	0.360
2020/01/31 18:21:53.2	2.870	0.180	1.080	0.400
2020/01/31 18:21:53.3	2.870	0.160	1.070	0.420
2020/01/31 18:21:53.4	2.880	0.140	1.050	0.450
2020/01/31 18:21:53.5	2.880	0.120	1.020	0.460
2020/01/31 18:21:53.6	2.890	0.100	0.980	0.470
2020/01/31 18:21:53.7	2.900	0.080	0.930	0.480
2020/01/31 18:21:53.8	2.920	0.060	0.870	0.480
2020/01/31 18:21:53.9	2.930	0.040	0.800	0.470
2020/01/31 18:21:54.0	2.930	0.030	0.720	0.460
2020/01/31 18:21:54.1	2.940	0.010	0.640	0.450
2020/01/31 18:21:54.2	2.950	-0.010	0.560	0.430
2020/01/31 18:21:54.3	2.960	-0.020	0.470	0.400
2020/01/31 18:21:54.4	2.970	-0.030	0.370	0.380
2020/01/31 18:21:54.5	2.970	-0.050	0.280	0.350
2020/01/31 18:21:54.6	2.980	-0.060	0.180	0.320
2020/01/31 18:21:54.7	2.990	-0.070	0.080	0.280
2020/01/31 18:21:54.8	2.990	-0.080	-0.010	0.240
2020/01/31 18:21:54.9	2.990	-0.090	-0.110	0.200
2020/01/31 18:21:55.0	3.000	-0.100	-0.200	0.150
2020/01/31 18:21:55.1	3.010	-0.110	-0.300	0.110
2020/01/31 18:21:55.2	3.020	-0.110	-0.380	0.060
2020/01/31 18:21:55.3	3.030	-0.120	-0.470	0.020
2020/01/31 18:21:55.4	3.040	-0.130	-0.550	-0.030
2020/01/31 18:21:55.5	3.060	-0.140	-0.620	-0.090
2020/01/31 18:21:55.6	3.070	-0.140	-0.690	-0.140
2020/01/31 18:21:55.7	3.090	-0.150	-0.760	-0.190
2020/01/31 18:21:55.8	3.110	-0.160	-0.820	-0.250
2020/01/31 18:21:55.9	3.130	-0.170	-0.870	-0.300
2020/01/31 18:21:56.0	3.150	-0.170	-0.920	-0.360
2020/01/31 18:21:56.1	3.170	-0.180	-0.960	-0.420
2020/01/31 18:21:56.2	3.200	-0.190	-0.990	-0.480
2020/01/31 18:21:56.3	3.230	-0.200	-1.020	-0.530
2020/01/31 18:21:56.4	3.260	-0.200	-1.040	-0.590
2020/01/31 18:21:56.5	3.290	-0.210	-1.050	-0.650
2020/01/31 18:21:56.6	3.330	-0.220	-1.060	-0.710
2020/01/31 18:21:56.7	3.360	-0.230	-1.070	-0.770
2020/01/31 18:21:56.8	3.400	-0.230	-1.070	-0.830
2020/01/31 18:21:56.9	3.440	-0.240	-1.060	-0.890
2020/01/31 18:21:57.0	3.490	-0.240	-1.050	-0.950
2020/01/31 18:21:57.1	3.530	-0.250	-1.030	-1.000
2020/01/31 18:21:57.2	3.580	-0.250	-1.010	-1.050
2020/01/31 18:21:57.3	3.630	-0.260	-0.990	-1.100
2020/01/31 18:21:57.4	3.680	-0.260	-0.960	-1.140
2020/01/31 18:21:57.5	3.730	-0.260	-0.930	-1.190
2020/01/31 18:21:57.6	3.780	-0.260	-0.890	-1.220
2020/01/31 18:21:57.7	3.830	-0.260	-0.850	-1.250
2020/01/31 18:21:57.8	3.880	-0.250	-0.810	-1.280
2020/01/31 18:21:57.9	3.930	-0.250	-0.760	-1.310
2020/01/31 18:21:58.0	3.980	-0.250	-0.710	-1.320
2020/01/31 18:21:58.1	4.030	-0.240	-0.660	-1.330
2020/01/31 18:21:58.2	4.080	-0.230	-0.610	-1.330
2020/01/31 18:21:58.3	4.120	-0.220	-0.550	-1.330
2020/01/31 18:21:58.4	4.170	-0.210	-0.490	-1.320
2020/01/31 18:21:58.5	4.210	-0.200	-0.430	-1.310
2020/01/31 18:21:58.6	4.250	-0.190	-0.370	-1.290
2020/01/31 18:21:58.7	4.280	-0.170	-0.310	-1.260
2020/01/31 18:21:58.8	4.320	-0.160	-0.240	-1.230
2020/01/31 18:21:58.9	4.350	-0.140	-0.180	-1.190
2020/01/31 18:21:59.0	4.380	-0.130	-0.120	-1.150
2020/01/31 18:21:59.1	4.410	-0.110	-0.050	-1.100
2020/01/31 18:21:59.2	4.440	-0.090	0.010	-1.060
2020/01/31 18:21:59.3	4.470	-0.070	0.070	-1.010
2020/01/31 18:21:59.4	4.500	-0.050	0.130	-0.950
2020/01/31 18:21:59.5	4.520	-0.040	0.180	-0.900
2020/01/31 18:21:59.6	4.550	-0.020	0.230	-0.840
2020/01/31 18:21:59.7	4.570	0.000	0.280	-0.780
2020/01/31 18:21:59.8	4.590	0.020	0.320	-0.730
2020/01/31 18:21:59.9	4.620	0.040	0.360	-0.670
2020/01/31 18:22:00.0	4.640	0.060	0.390	-0.620
2020/01/31 18:22:00.1	4.670	0.080	0.420	-0.560
2020/01/31 18:22:00.2	4.690	0.100	0.440	-0.510
2020/01/31 18:22:00.3	4.710	0.120	0.460	-0.450
2020/01/31 18:22:00.4	4.740	0.140	0.470	-0.400
2020/01/31 18:22:00.5	4.760	0.160	0.470	-0.350
2020/01/31 18:22:00.6	4.780	0.170	0.470	-0.300
2020/01/31 18:22:00.7	4.800	0.190	0.460	-0.250
2020/01/31 18:22:00.8	4.830	0.200	0.450	-0.210
2020/01/31 18:22:00.9	4.850	0.220	0.430	-0.160
2020/01/31 18:22:01.0	4.870	0.230	0.410	-0.120
2020/01/31 18:22:01.1	4.890	0.240	0.390	-0.080
2020/01/31 18:22:01.2	4.910	0.240	0.360	-0.040
2020/01/31 18:22:01.3	4.930	0.250	0.330	0.000
2020/01/31 18:22:01.4	4.940	0.250	0.290	0.040
2020/01/31 18:22:01.5	4.960	0.250	0.260	0.070
2020/01/31 18:22:01.6	4.970	0.250	0.220	0.100
2020/01/31 18:22:01.7	4.990	0.250	0.180	0.130
2020/01/31 18:22:01.8	5.000	0.250	0.140	0.160
2020/01/31 18:22:01.9	5.010	0.240	0.100	0.180
2020/01/31 18:22:02.0	5.020	0.230	0.060	0.200
2020/01/31 18:22:02.1	5.030	0.220	0.020	0.220
2020/01/31 18:22:02.2	5.040	0.210	-0.020	0.230
2020/01/31 18:22:02.3	5.040	0.200	-0.060	0.240
2020/01/31 18:22:02.4	5.050	0.180	-0.100	0.250
2020/01/31 18:22:02.5	5.050	0.170	-0.140	0.260
2020/01/31 18:22:02.6	5.060	0.150	-0.180	0.260
2020/01/31 18:22:02.7	5.060	0.130	-0.220	0.260
2020/01/31 18:22:02.8	5.060	0.110	-0.250	0.260
2020/01/31 18:22:02.9	5.070	0.090	-0.290	0.250
2020/01/31 18:22:03.0	5.070	0.070	-0.320	0.250
2020/01/31 18:22:03.1	5.070	0.040	-0.350	0.240
2020/01/31 18:22:03.2	5.070	0.020	-0.370	0.230
2020/01/31 18:22:03.3	5.070	-0.000	-0.400	0.210
2020/01/31 18:22:03.4	5.080	-0.020	-0.420	0.200
2020/01/31 18:22:03.5	5.080	-0.040	-0.450	0.180
2020/01/31 18:22:03.6	5.090	-0.060	-0.470	0.160
2020/01/31 18:22:03.7	5.100	-0.080	-0.490	0.140
2020/01/31 18:22:03.8	5.110	-0.100	-0.500	0.110
2020/01/31 18:22:03.9	5.130	-0.120	-0.520	0.090
2020/01/31 18:22:04.0	5.140	-0.130	-0.540	0.060
2020/01/31 18:22:04.1	5.160	-0.140	-0.550	0.030
2020/01/31 18:22:04.2	5.180	-0.150	-0.570	0.000
2020/01/31 18:22:04.3	5.200	-0.160	-0.580	-0.030
2020/01/31 18:22:04.4	5.230	-0.170	-0.590	-0.060
2020/01/31 18:22:04.5	5.260	-0.180	-0.610	-0.100
2020/01/31 18:22:04.6	5.290	-0.180	-0.620	-0.130
2020/01/31 18:22:04.7	5.320	-0.180	-0.630	-0.170
2020/01/31 18:22:04.8	5.350	-0.180	-0.630	-0.200
2020/01/31 18:22:04.9	5.390	-0.180	-0.640	-0.230
2020/01/31 18:22:05.0	5.430	-0.170	-0.650	-0.270
2020/01/31 18:22:05.1	5.470	-0.160	-0.650	-0.300
2020/01/31 18:22:05.2	5.510	-0.160	-0.650	-0.330
2020/01/31 18:22:05.3	5.550	-0.150	-0.650	-0.360
2020/01/31 18:22:05.4	5.590	-0.140	-0.650	-0.400
2020/01/31 18:22:05.5	5.640	-0.120	-0.640	-0.430
2020/01/31 18:22:05.6	5.680	-0.110	-0.630	-0.460
2020/01/31 18:22:05.7	5.730	-0.100	-0.620	-0.480
2020/01/31 18:22:05.8	5.780	-0.080	-0.610	-0.520
2020/01/31 18:22:05.9	5.830	-0.070	-0.590	-0.540
2020/01/31 18:22:06.0	5.880	-0.050	-0.580	-0.570
2020/01/31 18:22:06.1	5.940	-0.040	-0.560	-0.590
2020/01/31 18:22:06.2	5.990	-0.020	-0.530	-0.610
2020/01/31 18:22:06.3	6.050	-0.000	-0.510	-0.630
2020/01/31 18:22:06.4	6.100	0.010	-0.480	-0.650
2020/01/31 18:22:06.5	6.160	0.030	-0.460	-0.670
2020/01/31 18:22:06.6	6.220	0.040	-0.430	-0.690
2020/01/31 18:22:06.7	6.280	0.060	-0.400	-0.700
2020/01/31 18:22:06.8	6.330	0.070	-0.360	-0.710
2020/01/31 18:22:06.9	6.390	0.090	-0.330	-0.720
2020/01/31 18:22:07.0	6.450	0.100	-0.300	-0.720
2020/01/31 18:22:07.1	6.510	0.120	-0.270	-0.720
2020/01/31 18:22:07.2	6.570	0.130	-0.240	-0.720
2020/01/31 18:22:07.3	6.630	0.140	-0.210	-0.720
2020/01/31 18:22:07.4	6.690	0.150	-0.180	-0.720
2020/01/31 18:22:07.5	6.750	0.160	-0.150	-0.710
2020/01/31 18:22:07.6	6.800	0.170	-0.130	-0.690
2020/01/31 18:22:07.7	6.860	0.180	-0.100	-0.680
2020/01/31 18:22:07.8	6.890	0.190	-0.080	-0.650
2020/01/31 18:22:07.9	6.940	0.190	-0.060	-0.630
2020/01/31 18:22:08.0	6.990	0.190	-0.040	-0.600
2020/01/31 18:22:08.1	7.030	0.200	-0.020	-0.570
2020/01/31 18:22:08.2	7.070	0.200	-0.000	-0.540
2020/01/31 18:22:08.3	7.110	0.200	0.020	-0.500
2020/01/31 18:22:08.4	7.140	0.190	0.030	-0.470
2020/01/31 18:22:08.5	7.170	0.190	0.040	-0.430
2020/01/31 18:22:08.6	7.190	0.190	0.050	-0.380
2020/01/31 18:22:08.7	7.210	0.180	0.070	-0.340
2020/01/31 18:22:08.8	7.240	0.170	0.070	-0.300
2020/01/31 18:22:08.9	7.250	0.160	0.080	-0.250
2020/01/31 18:22:09.0	7.270	0.150	0.090	-0.210
2020/01/31 18:22:09.1	7.280	0.140	0.100	-0.160
2020/01/31 18:22:09.2	7.280	0.130	0.100	-0.120
2020/01/31 18:22:09.3	7.290	0.110	0.110	-0.080
2020/01/31 18:22:09.4	7.290	0.100	0.110	-0.030
2020/01/31 18:22:09.5	7.290	0.080	0.120	0.010
2020/01/31 18:22:09.6	7.300	0.070	0.120	0.050
2020/01/31 18:22:09.7	7.300	0.060	0.120	0.090
2020/01/31 18:22:09.8	7.300	0.040	0.130	0.120
2020/01/31 18:22:09.9	7.300	0.030	0.130	0.160
2020/01/31 18:22:10.0	7.300	0.020	0.120	0.180
2020/01/31 18:22:10.1	7.310	0.000	0.120	0.210
2020/01/31 18:22:10.2	7.310	-0.010	0.120	0.230
2020/01/31 18:22:10.3	7.320	-0.020	0.110	0.250
2020/01/31 18:22:10.4	7.330	-0.030	0.100	0.270
2020/01/31 18:22:10.5	7.340	-0.030	0.090	0.280
2020/01/31 18:22:10.6	7.350	-0.040	0.080	0.290
2020/01/31 18:22:10.7	7.370	-0.040	0.070	0.300
2020/01/31 18:22:10.8	7.380	-0.040	0.050	0.300
2020/01/31 18:22:10.9	7.400	-0.040	0.040	0.300
2020/01/31 18:22:11.0	7.420	-0.040	0.020	0.300
2020/01/31 18:22:11.1	7.440	-0.040	-0.000	0.300
2020/01/31 18:22:11.2	7.460	-0.040	-0.020	0.300
2020/01/31 18:22:11.3	7.490	-0.030	-0.040	0.290
2020/01/31 18:22:11.4	7.510	-0.030	-0.060	0.280
2020/01/31 18:22:11.5	7.540	-0.020	-0.080	0.280
2020/01/31 18:22:11.6	7.570	-0.020	-0.100	0.270
2020/01/31 18:22:11.7	7.600	-0.010	-0.130	0.260
2020/01/31 18:22:11.8	7.610	0.000	-0.150	0.240
2020/01/31 18:22:11.9	7.640	0.010	-0.170	0.240
2020/01/31 18:22:12.0	7.670	0.020	-0.180	0.230
2020/01/31 18:22:12.1	7.700	0.020	-0.200	0.220
2020/01/31 18:22:12.2	7.730	0.030	-0.220	0.210
2020/01/31 18:22:12.3	7.770	0.040	-0.230	0.200
2020/01/31 18:22:12.4	7.800	0.040	-0.240	0.190
2020/01/31 18:22:12.5	7.830	0.050	-0.250	0.180
2020/01/31 18:22:12.6	7.860	0.050	-0.250	0.180
2020/01/31 18:22:12.7	7.890	0.050	-0.260	0.170
2020/01/31 18:22:12.8	7.910	0.060	-0.260	0.170
2020/01/31 18:22:12.9	7.940	0.050	-0.250	0.160
2020/01/31 18:22:13.0	7.970	0.050	-0.250	0.160
2020/01/31 18:22:13.1	7.990	0.050	-0.240	0.160
2020/01/31 18:22:13.2	8.020	0.040	-0.230	0.160
2020/01/31 18:22:13.3	8.050	0.040	-0.210	0.160
2020/01/31 18:22:13.4	8.070	0.030	-0.200	0.160
2020/01/31 18:22:13.5	8.100	0.020	-0.180	0.170
2020/01/31 18:22:13.6	8.120	0.010	-0.160	0.170
2020/01/31 18:22:13.7	8.140	-0.010	-0.140	0.170
2020/01/31 18:22:13.8	8.180	-0.020	-0.120	0.180
2020/01/31 18:22:13.9	8.200	-0.040	-0.100	0.180
2020/01/31 18:22:14.0	8.220	-0.050	-0.080	0.190
2020/01/31 18:22:14.1	8.250	-0.070	-0.060	0.190
2020/01/31 18:22:14.2	8.270	-0.090	-0.040	0.190
2020/01/31 18:22:14.3	8.300	-0.110	-0.030	0.190
2020/01/31 18:22:14.4	8.320	-0.130	-0.020	0.190
2020/01/31 18:22:14.5	8.340	-0.150	-0.010	0.190
2020/01/31 18:22:14.6	8.370	-0.170	0.000	0.190
2020/01/31 18:22:14.7	8.390	-0.190	0.010	0.180
2020/01/31 18:22:14.8	8.420	-0.210	0.010	0.170
2020/01/31 18:22:14.9	8.450	-0.230	0.010	0.160
2020/01/31 18:22:15.0	8.480	-0.240	0.000	0.150
2020/01/31 18:22:15.1	8.500	-0.260	-0.010	0.130
2020/01/31 18:22:15.2	8.530	-0.280	-0.020	0.110
2020/01/31 18:22:15.3	8.560	-0.290	-0.040	0.090
2020/01/31 18:22:15.4	8.580	-0.310	-0.060	0.060
2020/01/31 18:22:15.5	8.610	-0.320	-0.080	0.030
2020/01/31 18:22:15.6	8.640	-0.330	-0.110	0.000
2020/01/31 18:22:15.7	8.670	-0.340	-0.140	-0.040
2020/01/31 18:22:15.8	8.700	-0.350	-0.170	-0.070
2020/01/31 18:22:15.9	8.730	-0.350	-0.210	-0.110
2020/01/31 18:22:16.0	8.760	-0.360	-0.240	-0.160
2020/01/31 18:22:16.1	8.790	-0.360	-0.280	-0.210
2020/01/31 18:22:16.2	8.820	-0.360	-0.320	-0.250
2020/01/31 18:22:16.3	8.860	-0.360	-0.360	-0.310
2020/01/31 18:22:16.4	8.890	-0.350	-0.410	-0.360
2020/01/31 18:22:16.5	8.920	-0.350	-0.450	-0.410
2020/01/31 18:22:16.6	8.960	-0.340	-0.490	-0.460
2020/01/31 18:22:16.7	8.990	-0.320	-0.530	-0.520
2020/01/31 18:22:16.8	9.030	-0.310	-0.570	-0.580
2020/01/31 18:22:16.9	9.070	-0.290	-0.610	-0.630
2020/01/31 18:22:17.0	9.110	-0.280	-0.650	-0.680
2020/01/31 18:22:17.1	9.140	-0.260	-0.680	-0.730
2020/01/31 18:22:17.2	9.180	-0.230	-0.720	-0.790
2020/01/31 18:22:17.3	9.220	-0.210	-0.750	-0.830
2020/01/31 18:22:17.4	9.260	-0.180	-0.780	-0.880
2020/01/31 18:22:17.5	9.300	-0.150	-0.800	-0.920
2020/01/31 18:22:17.6	9.350	-0.120	-0.820	-0.960
2020/01/31 18:22:17.7	9.390	-0.090	-0.840	-1.000
2020/01/31 18:22:17.8	9.430	-0.060	-0.850	-1.040
2020/01/31 18:22:17.9	9.470	-0.030	-0.860	-1.070
2020/01/31 18:22:18.0	9.510	0.010	-0.860	-1.100
2020/01/31 18:22:18.1	9.560	0.040	-0.860	-1.120
2020/01/31 18:22:18.2	9.610	0.080	-0.860	-1.140
2020/01/31 18:22:18.3	9.650	0.120	-0.850	-1.160
2020/01/31 18:22:18.4	9.700	0.150	-0.840	-1.170
2020/01/31 18:22:18.5	9.750	0.190	-0.820	-1.170
2020/01/31 18:22:18.6	9.800	0.230	-0.800	-1.180
2020/01/31 18:22:18.7	9.850	0.270	-0.780	-1.180
2020/01/31 18:22:18.8	9.910	0.300	-0.750	-1.170
2020/01/31 18:22:18.9	9.960	0.340	-0.720	-1.160
2020/01/31 18:22:19.0	10.010	0.370	-0.680	-1.150
2020/01/31 18:22:19.1	10.060	0.410	-0.650	-1.130
2020/01/31 18:22:19.2	10.110	0.440	-0.610	-1.110
2020/01/31 18:22:19.3	10.160	0.470	-0.560	-1.080
2020/01/31 18:22:19.4	10.210	0.500	-0.520	-1.050
2020/01/31 18:22:19.5	10.250	0.520	-0.470	-1.010
2020/01/31 18:22:19.6	10.300	0.540	-0.420	-0.970
2020/01/31 18:22:19.7	10.350	0.560	-0.370	-0.930
2020/01/31 18:22:19.8	10.390	0.580	-0.320	-0.870
2020/01/31 18:22:19.9	10.430	0.590	-0.260	-0.820
2020/01/31 18:22:20.0	10.470	0.600	-0.210	-0.770
2020/01/31 18:22:20.1	10.510	0.610	-0.160	-0.710
2020/01/31 18:22:20.2	10.550	0.610	-0.110	-0.650
2020/01/31 18:22:20.3	10.580	0.610	-0.050	-0.590
2020/01/31 18:22:20.4	10.610	0.610	-0.000	-0.520
2020/01/31 18:22:20.5	10.640	0.600	0.050	-0.450
2020/01/31 18:22:20.6	10.670	0.590	0.100	-0.390
2020/01/31 18:22:20.7	10.690	0.580	0.140	-0.320
2020/01/31 18:22:20.8	10.730	0.560	0.180	-0.240
2020/01/31 18:22:20.9	10.750	0.530	0.230	-0.170
2020/01/31 18:22:21.0	10.760	0.510	0.270	-0.100
2020/01/31 18:22:21.1	10.770	0.480	0.310	-0.040
2020/01/31 18:22:21.2	10.780	0.450	0.350	0.030
2020/01/31 18:22:21.3	10.790	0.410	0.390	0.100
2020/01/31 18:22:21.4	10.800	0.370	0.420	0.170
2020/01/31 18:22:21.5	10.800	0.330	0.450	0.230
2020/01/31 18:22:21.6	10.800	0.290	0.480	0.290
2020/01/31 18:22:21.7	10.800	0.240	0.510	0.350
2020/01/31 18:22:21.8	10.800	0.190	0.540	0.400
2020/01/31 18:22:21.9	10.800	0.150	0.560	0.450
2020/01/31 18:22:22.0	10.790	0.090	0.580	0.490
2020/01/31 18:22:22.1	10.790	0.040	0.590	0.540
2020/01/31 18:22:22.2	10.780	-0.010	0.600	0.570
2020/01/31 18:22:22.3	10.780	-0.060	0.600	0.610
2020/01/31 18:22:22.4	10.770	-0.120	0.610	0.630
2020/01/31 18:22:22.5	10.770	-0.170	0.600	0.660
2020/01/31 18:22:22.6	10.760	-0.220	0.590	0.670
2020/01/31 18:22:22.7	10.760	-0.270	0.580	0.680
2020/01/31 18:22:22.8	10.760	-0.320	0.560	0.690
2020/01/31 18:22:22.9	10.760	-0.370	0.540	0.690
2020/01/31 18:22:23.0	10.770	-0.410	0.520	0.690
2020/01/31 18:22:23.1	10.770	-0.450	0.490	0.680
2020/01/31 18:22:23.2	10.780	-0.490	0.450	0.660
2020/01/31 18:22:23.3	10.800	-0.530	0.410	0.640
2020/01/31 18:22:23.4	10.810	-0.560	0.360	0.610
2020/01/31 18:22:23.5	10.830	-0.590	0.320	0.580
2020/01/31 18:22:23.6	10.850	-0.620	0.260	0.540
2020/01/31 18:22:23.7	10.880	-0.640	0.210	0.500
2020/01/31 18:22:23.8	10.910	-0.660	0.150	0.450
2020/01/31 18:22:23.9	10.940	-0.680	0.090	0.400
2020/01/31 18:22:24.0	10.980	-0.690	0.020	0.340
2020/01/31 18:22:24.1	11.030	-0.690	-0.050	0.280
2020/01/31 18:22:24.2	11.070	-0.700	-0.110	0.210
2020/01/31 18:22:24.3	11.130	-0.690	-0.180	0.150
2020/01/31 18:22:24.4	11.180	-0.690	-0.250	0.070
2020/01/31 18:22:24.5	11.240	-0.680	-0.320	-0.000
2020/01/31 18:22:24.6	11.300	-0.670	-0.390	-0.080
2020/01/31 18:22:24.7	11.370	-0.650	-0.460	-0.160
2020/01/31 18:22:24.8	11.430	-0.630	-0.520	-0.240
2020/01/31 18:22:24.9	11.500	-0.610	-0.590	-0.320
2020/01/31 18:22:25.0	11.580	-0.580	-0.650	-0.400
2020/01/31 18:22:25.1	11.650	-0.550	-0.700	-0.480
2020/01/31 18:22:25.2	11.720	-0.520	-0.760	-0.550
2020/01/31 18:22:25.3	11.790	-0.480	-0.800	-0.630
2020/01/31 18:22:25.4	11.870	-0.450	-0.850	-0.690
2020/01/31 18:22:25.5	11.940	-0.410	-0.880	-0.760
2020/01/31 18:22:25.6	12.010	-0.370	-0.910	-0.810
2020/01/31 18:22:25.7	12.080	-0.330	-0.930	-0.870
2020/01/31 18:22:25.8	12.150	-0.280	-0.950	-0.910
2020/01/31 18:22:25.9	12.210	-0.240	-0.960	-0.960
2020/01/31 18:22:26.0	12.280	-0.200	-0.960	-0.990
2020/01/31 18:22:26.1	12.340	-0.160	-0.950	-1.020
2020/01/31 18:22:26.2	12.390	-0.120	-0.940	-1.050
2020/01/31 18:22:26.3	12.450	-0.070	-0.920	-1.070
2020/01/31 18:22:26.4	12.500	-0.030	-0.900	-1.080
2020/01/31 18:22:26.5	12.550	0.010	-0.870	-1.090
2020/01/31 18:22:26.6	12.600	0.050	-0.830	-1.090
2020/01/31 18:22:26.7	12.650	0.080	-0.790	-1.080
2020/01/31 18:22:26.8	12.710	0.120	-0.750	-1.070
2020/01/31 18:22:26.9	12.750	0.150	-0.700	-1.060
2020/01/31 18:22:27.0	12.780	0.180	-0.650	-1.040
2020/01/31 18:22:27.1	12.820	0.210	-0.590	-1.010
2020/01/31 18:22:27.2	12.850	0.240	-0.530	-0.980
2020/01/31 18:22:27.3	12.880	0.270	-0.480	-0.940
2020/01/31 18:22:27.4	12.900	0.290	-0.420	-0.900
2020/01/31 18:22:27.5	12.930	0.310	-0.360	-0.860
2020/01/31 18:22:27.6	12.950	0.330	-0.300	-0.810
2020/01/31 18:22:27.7	12.970	0.350	-0.240	-0.760
2020/01/31 18:22:27.8	12.980	0.360	-0.190	-0.700
2020/01/31 18:22:27.9	13.000	0.370	-0.140	-0.640
2020/01/31 18:22:28.0	13.010	0.380	-0.090	-0.580
2020/01/31 18:22:28.1	13.010	0.390	-0.040	-0.520
2020/01/31 18:22:28.2	13.020	0.400	0.000	-0.450
2020/01/31 18:22:28.3	13.020	0.400	0.040	-0.390
2020/01/31 18:22:28.4	13.020	0.400	0.070	-0.320
2020/01/31 18:22:28.5	13.020	0.400	0.100	-0.260
2020/01/31 18:22:28.6	13.020	0.390	0.130	-0.190
2020/01/31 18:22:28.7	13.010	0.390	0.150	-0.130
2020/01/31 18:22:28.8	13.000	0.380	0.170	-0.060
2020/01/31 18:22:28.9	12.990	0.370	0.180	-0.010
2020/01/31 18:22:29.0	12.980	0.360	0.180	0.050
2020/01/31 18:22:29.1	12.970	0.350	0.190	0.100
2020/01/31 18:22:29.2	12.970	0.330	0.180	0.150
2020/01/31 18:22:29.3	12.960	0.320	0.170	0.190
2020/01/31 18:22:29.4	12.960	0.300	0.160	0.230
2020/01/31 18:22:29.5	12.950	0.280	0.140	0.260
2020/01/31 18:22:29.6	12.950	0.260	0.120	0.280
2020/01/31 18:22:29.7	12.950	0.240	0.090	0.300
2020/01/31 18:22:29.8	12.970	0.220	0.070	0.320
2020/01/31 18:22:29.9	12.980	0.200	0.030	0.320
2020/01/31 18:22:30.0	12.990	0.170	-0.000	0.320
2020/01/31 18:22:30.1	13.000	0.150	-0.040	0.310
2020/01/31 18:22:30.2	13.020	0.130	-0.080	0.300
2020/01/31 18:22:30.3	13.050	0.110	-0.130	0.280
2020/01/31 18:22:30.4	13.070	0.080	-0.170	0.250
2020/01/31 18:22:30.5	13.100	0.060	-0.220	0.220
2020/01/31 18:22:30.6	13.130	0.040	-0.260	0.190
2020/01/31 18:22:30.7	13.170	0.020	-0.310	0.150
2020/01/31 18:22:30.8	13.200	-0.000	-0.360	0.100
2020/01/31 18:22:30.9	13.240	-0.020	-0.400	0.050
2020/01/31 18:22:31.0	13.280	-0.040	-0.440	0.010
2020/01/31 18:22:31.1	13.330	-0.060	-0.480	-0.040
2020/01/31 18:22:31.2	13.390	-0.070	-0.520	-0.090
2020/01/31 18:22:31.3	13.440	-0.090	-0.560	-0.150
2020/01/31 18:22:31.4	13.500	-0.100	-0.590	-0.200
2020/01/31 18:22:31.5	13.550	-0.110	-0.620	-0.250
2020/01/31 18:22:31.6	13.610	-0.120	-0.640	-0.310
2020/01/31 18:22:31.7	13.670	-0.140	-0.660	-0.360
2020/01/31 18:22:31.8	13.750	-0.140	-0.670	-0.410
2020/01/31 18:22:31.9	13.810	-0.150	-0.680	-0.460
2020/01/31 18:22:32.0	13.880	-0.160	-0.680	-0.510
2020/01/31 18:22:32.1	13.940	-0.160	-0.670	-0.550
2020/01/31 18:22:32.2	14.010	-0.160	-0.660	-0.590
2020/01/31 18:22:32.3	14.070	-0.170	-0.640	-0.630
2020/01/31 18:22:32.4	14.130	-0.170	-0.620	-0.660
2020/01/31 18:22:32.5	14.200	-0.170	-0.590	-0.690
2020/01/31 18:22:32.6	14.260	-0.160	-0.550	-0.710
2020/01/31 18:22:32.7	14.320	-0.160	-0.510	-0.720
2020/01/31 18:22:32.8	14.380	-0.150	-0.460	-0.740
2020/01/31 18:22:32.9	14.440	-0.150	-0.400	-0.740
2020/01/31 18:22:33.0	14.490	-0.140	-0.350	-0.750
2020/01/31 18:22:33.1	14.550	-0.130	-0.280	-0.740
2020/01/31 18:22:33.2	14.600	-0.110	-0.220	-0.730
2020/01/31 18:22:33.3	14.650	-0.100	-0.160	-0.720
2020/01/31 18:22:33.4	14.700	-0.080	-0.090	-0.700
2020/01/31 18:22:33.5	14.750	-0.060	-0.020	-0.680
2020/01/31 18:22:33.6	14.790	-0.050	0.040	-0.650
2020/01/31 18:22:33.7	14.840	-0.030	0.110	-0.620
2020/01/31 18:22:33.8	14.860	-0.000	0.160	-0.580
2020/01/31 18:22:33.9	14.900	0.020	0.220	-0.540
2020/01/31 18:22:34.0	14.940	0.040	0.280	-0.500
2020/01/31 18:22:34.1	14.980	0.060	0.330	-0.460
2020/01/31 18:22:34.2	15.010	0.090	0.370	-0.410
2020/01/31 18:22:34.3	15.040	0.110	0.410	-0.360
2020/01/31 18:22:34.4	15.080	0.140	0.450	-0.320
2020/01/31 18:22:34.5	15.110	0.160	0.470	-0.270
2020/01/31 18:22:34.6	15.140	0.180	0.490	-0.220
2020/01/31 18:22:34.7	15.160	0.200	0.500	-0.170
2020/01/31 18:22:34.8	15.180	0.220	0.510	-0.120
2020/01/31 18:22:34.9	15.200	0.240	0.510	-0.070
2020/01/31 18:22:35.0	15.220	0.260	0.500	-0.030
2020/01/31 18:22:35.1	15.240	0.270	0.480	0.010
2020/01/31 18:22:35.2	15.260	0.280	0.450	0.050
2020/01/31 18:22:35.3	15.280	0.290	0.420	0.090
2020/01/31 18:22:35.4	15.300	0.290	0.390	0.120
2020/01/31 18:22:35.5	15.320	0.290	0.340	0.140
2020/01/31 18:22:35.6	15.340	0.290	0.290	0.160
2020/01/31 18:22:35.7	15.360	0.290	0.240	0.180
2020/01/31 18:22:35.8	15.370	0.280	0.180	0.190
2020/01/31 18:22:35.9	15.390	0.270	0.120	0.200
2020/01/31 18:22:36.0	15.410	0.250	0.050	0.190
2020/01/31 18:22:36.1	15.430	0.230	-0.010	0.190
2020/01/31 18:22:36.2	15.450	0.210	-0.080	0.180
2020/01/31 18:22:36.3	15.470	0.190	-0.150	0.160
2020/01/31 18:22:36.4	15.500	0.160	-0.220	0.140
2020/01/31 18:22:36.5	15.520	0.130	-0.280	0.110
2020/01/31 18:22:36.6	15.550	0.090	-0.350	0.080
2020/01/31 18:22:36.7	15.580	0.060	-0.410	0.050
2020/01/31 18:22:36.8	15.620	0.020	-0.470	0.010
2020/01/31 18:22:36.9	15.650	-0.020	-0.530	-0.030
2020/01/31 18:22:37.0	15.680	-0.060	-0.580	-0.080
2020/01/31 18:22:37.1	15.720	-0.100	-0.630	-0.120
2020/01/31 18:22:37.2	15.760	-0.140	-0.670	-0.170
2020/01/31 18:22:37.3	15.800	-0.190	-0.710	-0.220
2020/01/31 18:22:37.4	15.850	-0.230	-0.740	-0.270
2020/01/31 18:22:37.5	15.890	-0.270	-0.770	-0.320
2020/01/31 18:22:37.6	15.940	-0.310	-0.790	-0.370
2020/01/31 18:22:37.7	15.990	-0.350	-0.800	-0.420
2020/01/31 18:22:37.8	16.030	-0.380	-0.800	-0.470
2020/01/31 18:22:37.9	16.080	-0.420	-0.800	-0.520
2020/01/31 18:22:38.0	16.130	-0.450	-0.790	-0.560
2020/01/31 18:22:38.1	16.180	-0.480	-0.770	-0.610
2020/01/31 18:22:38.2	16.230	-0.500	-0.750	-0.650
2020/01/31 18:22:38.3	16.290	-0.530	-0.720	-0.690
2020/01/31 18:22:38.4	16.340	-0.550	-0.690	-0.720
2020/01/31 18:22:38.5	16.390	-0.570	-0.650	-0.750
2020/01/31 18:22:38.6	16.440	-0.580	-0.600	-0.780
2020/01/31 18:22:38.7	16.480	-0.590	-0.560	-0.800
2020/01/31 18:22:38.8	16.540	-0.600	-0.500	-0.830
2020/01/31 18:22:38.9	16.590	-0.610	-0.450	-0.840
2020/01/31 18:22:39.0	16.630	-0.610	-0.390	-0.860
2020/01/31 18:22:39.1	16.670	-0.600	-0.330	-0.860
2020/01/31 18:22:39.2	16.710	-0.600	-0.270	-0.870
2020/01/31 18:22:39.3	16.750	-0.590	-0.220	-0.870
2020/01/31 18:22:39.4	16.780	-0.580	-0.160	-0.860
2020/01/31 18:22:39.5	16.810	-0.560	-0.100	-0.850
2020/01/31 18:22:39.6	16.840	-0.540	-0.040	-0.840
2020/01/31 18:22:39.7	16.870	-0.520	0.010	-0.820
2020/01/31 18:22:39.8	16.900	-0.500	0.060	-0.800
2020/01/31 18:22:39.9	16.920	-0.470	0.110	-0.780
2020/01/31 18:22:40.0	16.940	-0.440	0.150	-0.750
2020/01/31 18:22:40.1	16.960	-0.410	0.190	-0.720
2020/01/31 18:22:40.2	16.970	-0.380	0.220	-0.680
2020/01/31 18:22:40.3	16.990	-0.340	0.250	-0.640
2020/01/31 18:22:40.4	17.000	-0.300	0.270	-0.600
2020/01/31 18:22:40.5	17.010	-0.260	0.290	-0.560
2020/01/31 18:22:40.6	17.020	-0.220	0.300	-0.510
2020/01/31 18:22:40.7	17.030	-0.180	0.300	-0.460
2020/01/31 18:22:40.8	17.040	-0.130	0.300	-0.410
2020/01/31 18:22:40.9	17.050	-0.090	0.290	-0.360
2020/01/31 18:22:41.0	17.060	-0.040	0.280	-0.310
2020/01/31 18:22:41.1	17.070	0.010	0.250	-0.260
2020/01/31 18:22:41.2	17.080	0.050	0.230	-0.210
2020/01/31 18:22:41.3	17.090	0.100	0.200	-0.160
2020/01/31 18:22:41.4	17.100	0.150	0.160	-0.110
2020/01/31 18:22:41.5	17.110	0.200	0.120	-0.070
2020/01/31 18:22:41.6	17.130	0.250	0.070	-0.020
2020/01/31 18:22:41.7	17.150	0.290	0.020	0.020
2020/01/31 18:22:41.8	17.170	0.340	-0.030	0.060
2020/01/31 18:22:41.9	17.190	0.390	-0.090	0.100
2020/01/31 18:22:42.0	17.210	0.430	-0.150	0.140
2020/01/31 18:22:42.1	17.230	0.470	-0.210	0.180
2020/01/31 18:22:42.2	17.260	0.510	-0.270	0.210
2020/01/31 18:22:42.3	17.280	0.550	-0.330	0.240
2020/01/31 18:22:42.4	17.310	0.590	-0.390	0.270
2020/01/31 18:22:42.5	17.340	0.620	-0.450	0.300
2020/01/31 18:22:42.6	17.370	0.650	-0.500	0.330
2020/01/31 18:22:42.7	17.400	0.680	-0.550	0.350
2020/01/31 18:22:42.8	17.430	0.700	-0.610	0.380
2020/01/31 18:22:42.9	17.460	0.720	-0.650	0.400
2020/01/31 18:22:43.0	17.490	0.740	-0.690	0.420
2020/01/31 18:22:43.1	17.520	0.750	-0.730	0.430
2020/01/31 18:22:43.2	17.560	0.760	-0.760	0.440
2020/01/31 18:22:43.3	17.590	0.770	-0.790	0.450
2020/01/31 18:22:43.4	17.620	0.770	-0.810	0.450
2020/01/31 18:22:43.5	17.660	0.760	-0.830	0.450
2020/01/31 18:22:43.6	17.700	0.750	-0.840	0.440
2020/01/31 18:22:43.7	17.730	0.740	-0.840	0.430
2020/01/31 18:22:43.8	17.770	0.720	-0.840	0.410
2020/01/31 18:22:43.9	17.810	0.700	-0.830	0.390
2020/01/31 18:22:44.0	17.850	0.670	-0.820	0.370
2020/01/31 18:22:44.1	17.890	0.640	-0.810	0.350
2020/01/31 18:22:44.2	17.940	0.610	-0.780	0.320
2020/01/31 18:22:44.3	17.980	0.570	-0.760	0.290
2020/01/31 18:22:44.4	18.020	0.530	-0.730	0.250
2020/01/31 18:22:44.5	18.070	0.490	-0.690	0.210
2020/01/31 18:22:44.6	18.120	0.440	-0.660	0.170
2020/01/31 18:22:44.7	18.160	0.400	-0.610	0.130
2020/01/31 18:22:44.8	18.200	0.340	-0.570	0.080
2020/01/31 18:22:44.9	18.240	0.290	-0.520	0.040
2020/01/31 18:22:45.0	18.290	0.240	-0.470	-0.010
2020/01/31 18:22:45.1	18.340	0.180	-0.420	-0.060
2020/01/31 18:22:45.2	18.390	0.130	-0.360	-0.110
2020/01/31 18:22:45.3	18.440	0.070	-0.310	-0.170
2020/01/31 18:22:45.4	18.490	0.010	-0.250	-0.220
2020/01/31 18:22:45.5	18.540	-0.040	-0.190	-0.270
2020/01/31 18:22:45.6	18.590	-0.100	-0.130	-0.320
2020/01/31 18:22:45.7	18.640	-0.160	-0.070	-0.370
2020/01/31 18:22:45.8	18.690	-0.210	-0.010	-0.420
2020/01/31 18:22:45.9	18.740	-0.260	0.050	-0.470
2020/01/31 18:22:46.0	18.780	-0.320	0.110	-0.510
2020/01/31 18:22:46.1	18.820	-0.370	0.180	-0.560
2020/01/31 18:22:46.2	18.860	-0.420	0.230	-0.600
2020/01/31 18:22:46.3	18.900	-0.460	0.290	-0.640
2020/01/31 18:22:46.4	18.940	-0.500	0.350	-0.670
2020/01/31 18:22:46.5	18.970	-0.540	0.400	-0.710
2020/01/31 18:22:46.6	19.000	-0.580	0.460	-0.740
2020/01/31 18:22:46.7	19.030	-0.610	0.510	-0.770
2020/01/31 18:22:46.8	19.040	-0.640	0.550	-0.790
2020/01/31 18:22:46.9	19.070	-0.670	0.600	-0.820
2020/01/31 18:22:47.0	19.090	-0.690	0.630	-0.830
2020/01/31 18:22:47.1	19.120	-0.700	0.670	-0.850
2020/01/31 18:22:47.2	19.140	-0.710	0.690	-0.860
2020/01/31 18:22:47.3	19.160	-0.720	0.720	-0.870
2020/01/31 18:22:47.4	19.180	-0.720	0.730	-0.880
2020/01/31 18:22:47.5	19.190	-0.720	0.740	-0.880
2020/01/31 18:22:47.6	19.210	-0.710	0.750	-0.880
2020/01/31 18:22:47.7	19.230	-0.700	0.750	-0.870
2020/01/31 18:22:47.8	19.230	-0.680	0.740	-0.870
2020/01/31 18:22:47.9	19.250	-0.660	0.720	-0.850
2020/01/31 18:22:48.0	19.260	-0.640	0.700	-0.840
2020/01/31 18:22:48.1	19.280	-0.610	0.680	-0.820
2020/01/31 18:22:48.2	19.290	-0.570	0.640	-0.800
2020/01/31 18:22:48.3	19.310	-0.540	0.600	-0.780
2020/01/31 18:22:48.4	19.330	-0.500	0.560	-0.750
2020/01/31 18:22:48.5	19.350	-0.460	0.500	-0.720
2020/01/31 18:22:48.6	19.370	-0.410	0.450	-0.690
2020/01/31 18:22:48.7	19.390	-0.370	0.390	-0.660
2020/01/31 18:22:48.8	19.390	-0.320	0.320	-0.620
2020/01/31 18:22:48.9	19.410	-0.270	0.250	-0.590
2020/01/31 18:22:49.0	19.440	-0.220	0.180	-0.550
2020/01/31 18:22:49.1	19.460	-0.170	0.100	-0.520
2020/01/31 18:22:49.2	19.480	-0.130	0.030	-0.480
2020/01/31 18:22:49.3	19.510	-0.080	-0.050	-0.440
2020/01/31 18:22:49.4	19.530	-0.030	-0.130	-0.400
2020/01/31 18:22:49.5	19.560	0.010	-0.210	-0.370
2020/01/31 18:22:49.6	19.580	0.060	-0.290	-0.330
2020/01/31 18:22:49.7	19.610	0.100	-0.360	-0.290
2020/01/31 18:22:49.8	19.630	0.130	-0.440	-0.250
2020/01/31 18:22:49.9	19.660	0.170	-0.520	-0.210
2020/01/31 18:22:50.0	19.690	0.200	-0.590	-0.180
2020/01/31 18:22:50.1	19.720	0.230	-0.650	-0.140
2020/01/31 18:22:50.2	19.740	0.250	-0.710	-0.100
2020/01/31 18:22:50.3	19.770	0.280	-0.770	-0.070
2020/01/31 18:22:50.4	19.800	0.290	-0.820	-0.040
2020/01/31 18:22:50.5	19.830	0.310	-0.870	-0.010
2020/01/31 18:22:50.6	19.860	0.320	-0.910	0.020
2020/01/31 18:22:50.7	19.890	0.320	-0.950	0.050
2020/01/31 18:22:50.8	19.930	0.330	-0.970	0.080
2020/01/31 18:22:50.9	19.960	0.330	-1.000	0.100
2020/01/31 18:22:51.0	19.990	0.320	-1.010	0.130
2020/01/31 18:22:51.1	20.030	0.320	-1.020	0.150
2020/01/31 18:22:51.2	20.060	0.310	-1.030	0.170
2020/01/31 18:22:51.3	20.090	0.300	-1.020	0.190
2020/01/31 18:22:51.4	20.120	0.280	-1.010	0.210
2020/01/31 18:22:51.5	20.160	0.260	-1.000	0.230
2020/01/31 18:22:51.6	20.190	0.240	-0.980	0.240
2020/01/31 18:22:51.7	20.220	0.220	-0.950	0.260
2020/01/31 18:22:51.8	20.260	0.200	-0.920	0.280
2020/01/31 18:22:51.9	20.290	0.180	-0.890	0.290
2020/01/31 18:22:52.0	20.320	0.150	-0.850	0.300
2020/01/31 18:22:52.1	20.350	0.120	-0.810	0.310
2020/01/31 18:22:52.2	20.390	0.100	-0.760	0.320
2020/01/31 18:22:52.3	20.420	0.070	-0.710	0.330
2020/01/31 18:22:52.4	20.450	0.040	-0.660	0.340
2020/01/31 18:22:52.5	20.490	0.020	-0.610	0.340
2020/01/31 18:22:52.6	20.520	-0.010	-0.560	0.340
2020/01/31 18:22:52.7	20.550	-0.030	-0.500	0.340
2020/01/31 18:22:52.8	20.590	-0.060	-0.450	0.340
2020/01/31 18:22:52.9	20.630	-0.080	-0.400	0.340
2020/01/31 18:22:53.0	20.660	-0.100	-0.340	0.330
2020/01/31 18:22:53.1	20.700	-0.120	-0.290	0.320
2020/01/31 18:22:53.2	20.740	-0.140	-0.240	0.320
2020/01/31 18:22:53.3	20.770	-0.150	-0.190	0.310
2020/01/31 18:22:53.4	20.810	-0.170	-0.150	0.290
2020/01/31 18:22:53.5	20.840	-0.180	-0.100	0.280
2020/01/31 18:22:53.6	20.880	-0.190	-0.060	0.270
2020/01/31 18:22:53.7	20.910	-0.200	-0.020	0.250
2020/01/31 18:22:53.8	20.940	-0.200	0.020	0.230
2020/01/31 18:22:53.9	20.980	-0.210	0.050	0.210
2020/01/31 18:22:54.0	21.010	-0.210	0.080	0.190
2020/01/31 18:22:54.1	21.050	-0.210	0.110	0.170
2020/01/31 18:22:54.2	21.080	-0.210	0.130	0.150
2020/01/31 18:22:54.3	21.110	-0.200	0.150	0.130
2020/01/31 18:22:54.4	21.140	-0.200	0.170	0.100
2020/01/31 18:22:54.5	21.170	-0.190	0.180	0.080
2020/01/31 18:22:54.6	21.200	-0.180	0.200	0.050
2020/01/31 18:22:54.7	21.230	-0.170	0.200	0.030
2020/01/31 18:22:54.8	21.260	-0.160	0.210	0.000
2020/01/31 18:22:54.9	21.280	-0.150	0.210	-0.020
2020/01/31 18:22:55.0	21.310	-0.140	0.220	-0.040
2020/01/31 18:22:55.1	21.340	-0.120	0.210	-0.060
2020/01/31 18:22:55.2	21.360	-0.110	0.210	-0.080
2020/01/31 18:22:55.3	21.390	-0.090	0.200	-0.100
2020/01/31 18:22:55.4	21.410	-0.080	0.200	-0.120
2020/01/31 18:22:55.5	21.430	-0.060	0.190	-0.140
2020/01/31 18:22:55.6	21.460	-0.050	0.170	-0.160
2020/01/31 18:22:55.7	21.480	-0.030	0.160	-0.170
2020/01/31 18:22:55.8	21.490	-0.020	0.140	-0.180
2020/01/31 18:22:55.9	21.510	-0.000	0.120	-0.200
2020/01/31 18:22:56.0	21.530	0.020	0.100	-0.210
2020/01/31 18:22:56.1	21.560	0.030	0.080	-0.210
2020/01/31 18:22:56.2	21.580	0.050	0.050	-0.220
2020/01/31 18:22:56.3	21.600	0.060	0.030	-0.230
2020/01/31 18:22:56.4	21.620	0.080	-0.000	-0.230
2020/01/31 18:22:56.5	21.650	0.100	-0.030	-0.230
2020/01/31 18:22:56.6	21.670	0.110	-0.060	-0.230
2020/01/31 18:22:56.7	21.700	0.130	-0.090	-0.230
2020/01/31 18:22:56.8	21.730	0.150	-0.130	-0.230
2020/01/31 18:22:56.9	21.760	0.160	-0.160	-0.230
2020/01/31 18:22:57.0	21.790	0.180	-0.190	-0.230
2020/01/31 18:22:57.1	21.820	0.200	-0.230	-0.230
2020/01/31 18:22:57.2	21.850	0.210	-0.260	-0.230
2020/01/31 18:22:57.3	21.880	0.230	-0.290	-0.230
2020/01/31 18:22:57.4	21.920	0.240	-0.330	-0.230
2020/01/31 18:22:57.5	21.960	0.260	-0.360	-0.240
2020/01/31 18:22:57.6	22.000	0.270	-0.390	-0.240
2020/01/31 18:22:57.7	22.040	0.290	-0.420	-0.240
2020/01/31 18:22:57.8	22.090	0.300	-0.440	-0.250
2020/01/31 18:22:57.9	22.140	0.310	-0.460	-0.250
2020/01/31 18:22:58.0	22.180	0.330	-0.480	-0.260
2020/01/31 18:22:58.1	22.230	0.340	-0.500	-0.270
2020/01/31 18:22:58.2	22.280	0.350	-0.510	-0.280
2020/01/31 18:22:58.3	22.320	0.350	-0.520	-0.290
2020/01/31 18:22:58.4	22.370	0.360	-0.530	-0.300
2020/01/31 18:22:58.5	22.420	0.360	-0.530	-0.320
2020/01/31 18:22:58.6	22.460	0.370	-0.520	-0.330
2020/01/31 18:22:58.7	22.510	0.370	-0.520	-0.340
2020/01/31 18:22:58.8	22.540	0.370	-0.510	-0.360
2020/01/31 18:22:58.9	22.580	0.370	-0.490	-0.370
2020/01/31 18:22:59.0	22.630	0.360	-0.470	-0.390
2020/01/31 18:22:59.1	22.670	0.360	-0.440	-0.400
2020/01/31 18:22:59.2	22.700	0.350	-0.420	-0.420
2020/01/31 18:22:59.3	22.740	0.340	-0.380	-0.430
2020/01/31 18:22:59.4	22.780	0.330	-0.350	-0.450
2020/01/31 18:22:59.5	22.810	0.320	-0.310	-0.460
2020/01/31 18:22:59.6	22.840	0.310	-0.270	-0.470
2020/01/31 18:22:59.7	22.870	0.290	-0.230	-0.480
2020/01/31 18:22:59.8	22.900	0.280	-0.190	-0.490
2020/01/31 18:22:59.9	22.930	0.260	-0.140	-0.500
2020/01/31 18:23:00.0	22.950	0.240	-0.090	-0.500
2020/01/31 18:23:00.1	22.970	0.220	-0.050	-0.510
2020/01/31 18:23:00.2	23.000	0.200	-0.000	-0.510
2020/01/31 18:23:00.3	23.020	0.180	0.050	-0.510
2020/01/31 18:23:00.4	23.040	0.150	0.090	-0.510
2020/01/31 18:23:00.5	23.050	0.130	0.130	-0.500
2020/01/31 18:23:00.6	23.070	0.100	0.170	-0.500
2020/01/31 18:23:00.7	23.090	0.080	0.210	-0.490
2020/01/31 18:23:00.8	23.110	0.060	0.250	-0.480
2020/01/31 18:23:00.9	23.130	0.030	0.280	-0.470
2020/01/31 18:23:01.0	23.150	0.010	0.300	-0.460
2020/01/31 18:23:01.1	23.170	-0.020	0.320	-0.450
2020/01/31 18:23:01.2	23.190	-0.040	0.340	-0.440
2020/01/31 18:23:01.3	23.210	-0.060	0.350	-0.430
2020/01/31 18:23:01.4	23.240	-0.090	0.360	-0.410
2020/01/31 18:23:01.5	23.260	-0.110	0.360	-0.400
2020/01/31 18:23:01.6	23.290	-0.130	0.350	-0.390
2020/01/31 18:23:01.7	23.320	-0.150	0.340	-0.380
2020/01/31 18:23:01.8	23.340	-0.170	0.320	-0.370
2020/01/31 18:23:01.9	23.370	-0.190	0.300	-0.360
2020/01/31 18:23:02.0	23.400	-0.210	0.280	-0.360
2020/01/31 18:23:02.1	23.440	-0.220	0.250	-0.360
2020/01/31 18:23:02.2	23.470	-0.240	0.210	-0.350
2020/01/31 18:23:02.3	23.510	-0.260	0.180	-0.350
2020/01/31 18:23:02.4	23.550	-0.280	0.140	-0.350
2020/01/31 18:23:02.5	23.580	-0.300	0.090	-0.360
2020/01/31 18:23:02.6	23.620	-0.310	0.050	-0.360
2020/01/31 18:23:02.7	23.660	-0.330	0.000	-0.370
2020/01/31 18:23:02.8	23.720	-0.350	-0.040	-0.380
2020/01/31 18:23:02.9	23.750	-0.360	-0.090	-0.400
2020/01/31 18:23:03.0	23.790	-0.380	-0.140	-0.410
2020/01/31 18:23:03.1	23.830	-0.400	-0.190	-0.430
2020/01/31 18:23:03.2	23.870	-0.410	-0.240	-0.450
2020/01/31 18:23:03.3	23.910	-0.430	-0.290	-0.480
2020/01/31 18:23:03.4	23.960	-0.440	-0.330	-0.500
2020/01/31 18:23:03.5	24.000	-0.450	-0.380	-0.530
2020/01/31 18:23:03.6	24.040	-0.470	-0.420	-0.560
2020/01/31 18:23:03.7	24.090	-0.480	-0.460	-0.590
2020/01/31 18:23:03.8	24.130	-0.490	-0.500	-0.630
2020/01/31 18:23:03.9	24.170	-0.490	-0.530	-0.660
2020/01/31 18:23:04.0	24.220	-0.500	-0.560	-0.690
2020/01/31 18:23:04.1	24.270	-0.500	-0.590	-0.730
2020/01/31 18:23:04.2	24.320	-0.510	-0.620	-0.760
2020/01/31 18:23:04.3	24.360	-0.510	-0.640	-0.800
2020/01/31 18:23:04.4	24.410	-0.510	-0.660	-0.830
2020/01/31 18:23:04.5	24.460	-0.500	-0.670	-0.860
2020/01/31 18:23:04.6	24.510	-0.500	-0.680	-0.890
2020/01/31 18:23:04.7	24.560	-0.490	-0.680	-0.910
2020/01/31 18:23:04.8	24.600	-0.480	-0.680	-0.930
2020/01/31 18:23:04.9	24.640	-0.460	-0.670	-0.940
2020/01/31 18:23:05.0	24.680	-0.450	-0.660	-0.950
2020/01/31 18:23:05.1	24.720	-0.430	-0.640	-0.950
2020/01/31 18:23:05.2	24.760	-0.410	-0.620	-0.950
2020/01/31 18:23:05.3	24.800	-0.390	-0.600	-0.940
2020/01/31 18:23:05.4	24.830	-0.360	-0.570	-0.920
2020/01/31 18:23:05.5	24.860	-0.330	-0.540	-0.900
2020/01/31 18:23:05.6	24.890	-0.300	-0.500	-0.860
2020/01/31 18:23:05.7	24.920	-0.270	-0.460	-0.830
2020/01/31 18:23:05.8	24.930	-0.240	-0.420	-0.780
2020/01/31 18:23:05.9	24.950	-0.200	-0.380	-0.730
2020/01/31 18:23:06.0	24.960	-0.160	-0.330	-0.670
2020/01/31 18:23:06.1	24.980	-0.130	-0.290	-0.610
2020/01/31 18:23:06.2	24.990	-0.090	-0.240	-0.540
2020/01/31 18:23:06.3	25.000	-0.050	-0.190	-0.470
2020/01/31 18:23:06.4	25.000	-0.020	-0.140	-0.390
2020/01/31 18:23:06.5	25.010	0.020	-0.090	-0.320
2020/01/31 18:23:06.6	25.010	0.050	-0.040	-0.240
2020/01/31 18:23:06.7	25.010	0.090	0.010	-0.150
2020/01/31 18:23:06.8	25.010	0.120	0.050	-0.070
2020/01/31 18:23:06.9	25.010	0.150	0.090	0.010
2020/01/31 18:23:07.0	25.000	0.180	0.130	0.100
2020/01/31 18:23:07.1	25.000	0.200	0.170	0.180
2020/01/31 18:23:07.2	25.000	0.230	0.210	0.260
2020/01/31 18:23:07.3	24.990	0.250	0.240	0.340
2020/01/31 18:23:07.4	24.990	0.270	0.270	0.420
2020/01/31 18:23:07.5	24.980	0.290	0.300	0.490
2020/01/31 18:23:07.6	24.980	0.300	0.320	0.560
2020/01/31 18:23:07.7	24.980	0.320	0.330	0.620
2020/01/31 18:23:07.8	24.970	0.330	0.350	0.680
2020/01/31 18:23:07.9	24.970	0.340	0.350	0.740
2020/01/31 18:23:08.0	24.970	0.340	0.350	0.780
2020/01/31 18:23:08.1	24.970	0.340	0.340	0.830
2020/01/31 18:23:08.2	24.970	0.350	0.330	0.870
2020/01/31 18:23:08.3	24.980	0.350	0.310	0.900
2020/01/31 18:23:08.4	24.980	0.340	0.290	0.920
2020/01/31 18:23:08.5	24.990	0.340	0.260	0.940
2020/01/31 18:23:08.6	25.000	0.340	0.230	0.950
2020/01/31 18:23:08.7	25.010	0.330	0.190	0.960
2020/01/31 18:23:08.8	25.010	0.330	0.140	0.960
2020/01/31 18:23:08.9	25.030	0.320	0.090	0.950
2020/01/31 18:23:09.0	25.040	0.310	0.040	0.940
2020/01/31 18:23:09.1	25.060	0.300	-0.020	0.920
2020/01/31 18:23:09.2	25.080	0.290	-0.080	0.900
2020/01/31 18:23:09.3	25.110	0.290	-0.140	0.870
2020/01/31 18:23:09.4	25.140	0.280	-0.200	0.840
2020/01/31 18:23:09.5	25.170	0.270	-0.270	0.800
2020/01/31 18:23:09.6	25.200	0.260	-0.340	0.760
2020/01/31 18:23:09.7	25.240	0.260	-0.400	0.710
2020/01/31 18:23:09.8	25.280	0.250	-0.470	0.650
2020/01/31 18:23:09.9	25.320	0.250	-0.530	0.600
2020/01/31 18:23:10.0	25.370	0.240	-0.600	0.540
2020/01/31 18:23:10.1	25.420	0.240	-0.660	0.480
2020/01/31 18:23:10.2	25.470	0.240	-0.720	0.410
2020/01/31 18:23:10.3	25.530	0.230	-0.780	0.340
2020/01/31 18:23:10.4	25.590	0.230	-0.830	0.270
2020/01/31 18:23:10.5	25.650	0.230	-0.880	0.200
2020/01/31 18:23:10.6	25.710	0.230	-0.930	0.130
2020/01/31 18:23:10.7	25.770	0.230	-0.970	0.050
2020/01/31 18:23:10.8	25.830	0.230	-1.010	-0.020
2020/01/31 18:23:10.9	25.900	0.230	-1.040	-0.100
2020/01/31 18:23:11.0	25.970	0.230	-1.060	-0.180
2020/01/31 18:23:11.1	26.040	0.230	-1.090	-0.260
2020/01/31 18:23:11.2	26.110	0.230	-1.100	-0.330
2020/01/31 18:23:11.3	26.170	0.230	-1.110	-0.410
2020/01/31 18:23:11.4	26.240	0.230	-1.110	-0.490
2020/01/31 18:23:11.5	26.310	0.220	-1.110	-0.560
2020/01/31 18:23:11.6	26.380	0.220	-1.100	-0.640
2020/01/31 18:23:11.7	26.440	0.210	-1.080	-0.710
2020/01/31 18:23:11.8	26.520	0.200	-1.060	-0.790
2020/01/31 18:23:11.9	26.590	0.200	-1.030	-0.860
2020/01/31 18:23:12.0	26.650	0.190	-1.000	-0.920
2020/01/31 18:23:12.1	26.710	0.180	-0.960	-0.980
2020/01/31 18:23:12.2	26.760	0.160	-0.910	-1.040
2020/01/31 18:23:12.3	26.820	0.150	-0.860	-1.090
2020/01/31 18:23:12.4	26.870	0.130	-0.810	-1.140
2020/01/31 18:23:12.5	26.920	0.120	-0.750	-1.190
2020/01/31 18:23:12.6	26.960	0.100	-0.690	-1.230
2020/01/31 18:23:12.7	27.000	0.080	-0.630	-1.270
2020/01/31 18:23:12.8	27.060	0.060	-0.560	-1.290
2020/01/31 18:23:12.9	27.090	0.040	-0.480	-1.320
2020/01/31 18:23:13.0	27.120	0.020	-0.410	-1.340
2020/01/31 18:23:13.1	27.150	-0.000	-0.340	-1.360
2020/01/31 18:23:13.2	27.180	-0.030	-0.260	-1.370
2020/01/31 18:23:13.3	27.200	-0.050	-0.180	-1.370
2020/01/31 18:23:13.4	27.230	-0.070	-0.100	-1.370
2020/01/31 18:23:13.5	27.240	-0.100	-0.030	-1.370
2020/01/31 18:23:13.6	27.260	-0.120	0.050	-1.360
2020/01/31 18:23:13.7	27.270	-0.140	0.130	-1.340
2020/01/31 18:23:13.8	27.270	-0.160	0.200	-1.330
2020/01/31 18:23:13.9	27.280	-0.180	0.270	-1.310
2020/01/31 18:23:14.0	27.290	-0.200	0.340	-1.280
2020/01/31 18:23:14.1	27.300	-0.220	0.410	-1.250
2020/01/31 18:23:14.2	27.300	-0.240	0.470	-1.220
2020/01/31 18:23:14.3	27.310	-0.250	0.530	-1.180
2020/01/31 18:23:14.4	27.310	-0.260	0.580	-1.140
2020/01/31 18:23:14.5	27.320	-0.270	0.630	-1.090
2020/01/31 18:23:14.6	27.320	-0.280	0.680	-1.050
2020/01/31 18:23:14.7	27.320	-0.290	0.720	-1.000
2020/01/31 18:23:14.8	27.330	-0.290	0.760	-0.950
2020/01/31 18:23:14.9	27.330	-0.300	0.790	-0.890
2020/01/31 18:23:15.0	27.340	-0.300	0.810	-0.840
2020/01/31 18:23:15.1	27.340	-0.290	0.840	-0.780
2020/01/31 18:23:15.2	27.340	-0.290	0.850	-0.720
2020/01/31 18:23:15.3	27.350	-0.280	0.860	-0.660
2020/01/31 18:23:15.4	27.350	-0.270	0.870	-0.600
2020/01/31 18:23:15.5	27.360	-0.260	0.870	-0.540
2020/01/31 18:23:15.6	27.370	-0.250	0.860	-0.480
2020/01/31 18:23:15.7	27.370	-0.240	0.850	-0.420
2020/01/31 18:23:15.8	27.390	-0.220	0.840	-0.350
2020/01/31 18:23:15.9	27.390	-0.200	0.820	-0.280
2020/01/31 18:23:16.0	27.400	-0.180	0.800	-0.220
2020/01/31 18:23:16.1	27.400	-0.160	0.770	-0.150
2020/01/31 18:23:16.2	27.410	-0.140	0.740	-0.090
2020/01/31 18:23:16.3	27.420	-0.120	0.710	-0.020
2020/01/31 18:23:16.4	27.420	-0.100	0.670	0.040
2020/01/31 18:23:16.5	27.430	-0.080	0.630	0.110
2020/01/31 18:23:16.6	27.440	-0.060	0.590	0.170
2020/01/31 18:23:16.7	27.440	-0.040	0.540	0.240
2020/01/31 18:23:16.8	27.440	-0.020	0.490	0.300
2020/01/31 18:23:16.9	27.450	0.000	0.440	0.360
2020/01/31 18:23:17.0	27.460	0.020	0.380	0.420
2020/01/31 18:23:17.1	27.460	0.040	0.330	0.480
2020/01/31 18:23:17.2	27.470	0.060	0.270	0.540
2020/01/31 18:23:17.3	27.480	0.080	0.210	0.600
2020/01/31 18:23:17.4	27.490	0.090	0.150	0.650
2020/01/31 18:23:17.5	27.500	0.110	0.090	0.700
2020/01/31 18:23:17.6	27.510	0.120	0.030	0.750
2020/01/31 18:23:17.7	27.520	0.130	-0.040	0.790
2020/01/31 18:23:17.8	27.530	0.140	-0.100	0.840
2020/01/31 18:23:17.9	27.540	0.150	-0.160	0.880
2020/01/31 18:23:18.0	27.560	0.150	-0.220	0.910
2020/01/31 18:23:18.1	27.570	0.160	-0.280	0.940
2020/01/31 18:23:18.2	27.590	0.160	-0.340	0.970
2020/01/31 18:23:18.3	27.620	0.160	-0.400	0.990
2020/01/31 18:23:18.4	27.640	0.160	-0.450	1.010
2020/01/31 18:23:18.5	27.660	0.150	-0.510	1.030
2020/01/31 18:23:18.6	27.690	0.150	-0.560	1.040
2020/01/31 18:23:18.7	27.720	0.140	-0.610	1.040
2020/01/31 18:23:18.8	27.750	0.140	-0.660	1.040
2020/01/31 18:23:18.9	27.790	0.130	-0.710	1.040
2020/01/31 18:23:19.0	27.820	0.120	-0.750	1.030
2020/01/31 18:23:19.1	27.860	0.110	-0.790	1.020
2020/01/31 18:23:19.2	27.900	0.090	-0.820	1.010
2020/01/31 18:23:19.3	27.940	0.080	-0.860	0.990
2020/01/31 18:23:19.4	27.980	0.070	-0.880	0.970
2020/01/31 18:23:19.5	28.020	0.050	-0.910	0.940
2020/01/31 18:23:19.6	28.060	0.040	-0.930	0.910
2020/01/31 18:23:19.7	28.110	0.020	-0.950	0.880
2020/01/31 18:23:19.8	28.160	0.000	-0.960	0.850
2020/01/31 18:23:19.9	28.200	-0.010	-0.970	0.810
2020/01/31 18:23:20.0	28.240	-0.030	-0.980	0.780
2020/01/31 18:23:20.1	28.280	-0.050	-0.980	0.740
2020/01/31 18:23:20.2	28.320	-0.060	-0.980	0.690
2020/01/31 18:23:20.3	28.370	-0.080	-0.970	0.650
2020/01/31 18:23:20.4	28.410	-0.100	-0.960	0.610
2020/01/31 18:23:20.5	28.440	-0.120	-0.950	0.560
2020/01/31 18:23:20.6	28.480	-0.140	-0.930	0.510
2020/01/31 18:23:20.7	28.520	-0.160	-0.910	0.470
2020/01/31 18:23:20.8	28.550	-0.170	-0.890	0.410
2020/01/31 18:23:20.9	28.590	-0.190	-0.860	0.360
2020/01/31 18:23:21.0	28.620	-0.210	-0.830	0.310
2020/01/31 18:23:21.1	28.650	-0.230	-0.800	0.260
2020/01/31 18:23:21.2	28.680	-0.240	-0.770	0.200
2020/01/31 18:23:21.3	28.720	-0.260	-0.740	0.150
2020/01/31 18:23:21.4	28.750	-0.270	-0.700	0.090
2020/01/31 18:23:21.5	28.780	-0.290	-0.660	0.030
2020/01/31 18:23:21.6	28.810	-0.300	-0.620	-0.030
2020/01/31 18:23:21.7	28.840	-0.310	-0.580	-0.090
2020/01/31 18:23:21.8	28.860	-0.320	-0.540	-0.150
2020/01/31 18:23:21.9	28.880	-0.330	-0.500	-0.210
2020/01/31 18:23:22.0	28.910	-0.340	-0.460	-0.270
2020/01/31 18:23:22.1	28.940	-0.340	-0.420	-0.330
2020/01/31 18:23:22.2	28.960	-0.340	-0.380	-0.390
2020/01/31 18:23:22.3	28.990	-0.340	-0.340	-0.450
2020/01/31 18:23:22.4	29.020	-0.340	-0.300	-0.500
2020/01/31 18:23:22.5	29.040	-0.330	-0.270	-0.560
2020/01/31 18:23:22.6	29.070	-0.330	-0.230	-0.610
2020/01/31 18:23:22.7	29.090	-0.320	-0.200	-0.670
2020/01/31 18:23:22.8	29.110	-0.300	-0.160	-0.720
2020/01/31 18:23:22.9	29.130	-0.290	-0.130	-0.770
2020/01/31 18:23:23.0	29.160	-0.270	-0.110	-0.810
2020/01/31 18:23:23.1	29.180	-0.250	-0.080	-0.860
2020/01/31 18:23:23.2	29.210	-0.230	-0.060	-0.900
2020/01/31 18:23:23.3	29.230	-0.200	-0.040	-0.940
2020/01/31 18:23:23.4	29.260	-0.170	-0.020	-0.970
2020/01/31 18:23:23.5	29.280	-0.150	0.000	-1.000
2020/01/31 18:23:23.6	29.310	-0.120	0.010	-1.030
2020/01/31 18:23:23.7	29.330	-0.080	0.030	-1.060
2020/01/31 18:23:23.8	29.360	-0.050	0.040	-1.080
2020/01/31 18:23:23.9	29.390	-0.020	0.040	-1.090
2020/01/31 18:23:24.0	29.410	0.020	0.050	-1.100
2020/01/31 18:23:24.1	29.440	0.050	0.050	-1.110
2020/01/31 18:23:24.2	29.460	0.080	0.060	-1.120
2020/01/31 18:23:24.3	29.480	0.120	0.060	-1.120
2020/01/31 18:23:24.4	29.500	0.150	0.060	-1.110
2020/01/31 18:23:24.5	29.520	0.190	0.060	-1.100
2020/01/31 18:23:24.6	29.540	0.220	0.060	-1.080
2020/01/31 18:23:24.7	29.560	0.250	0.060	-1.060
2020/01/31 18:23:24.8	29.580	0.280	0.060	-1.030
2020/01/31 18:23:24.9	29.600	0.310	0.060	-1.000
2020/01/31 18:23:25.0	29.610	0.330	0.060	-0.960
2020/01/31 18:23:25.1	29.630	0.360	0.070	-0.910
2020/01/31 18:23:25.2	29.640	0.380	0.070	-0.870
2020/01/31 18:23:25.3	29.650	0.400	0.070	-0.820
2020/01/31 18:23:25.4	29.670	0.410	0.080	-0.760
2020/01/31 18:23:25.5	29.680	0.430	0.080	-0.700
2020/01/31 18:23:25.6	29.690	0.440	0.090	-0.640
2020/01/31 18:23:25.7	29.690	0.440	0.100	-0.570
2020/01/31 18:23:25.8	29.710	0.450	0.110	-0.510
2020/01/31 18:23:25.9	29.710	0.450	0.120	-0.440
2020/01/31 18:23:26.0	29.720	0.450	0.130	-0.370
2020/01/31 18:23:26.1	29.720	0.450	0.140	-0.300
2020/01/31 18:23:26.2	29.730	0.440	0.150	-0.220
2020/01/31 18:23:26.3	29.730	0.430	0.160	-0.150
2020/01/31 18:23:26.4	29.740	0.420	0.170	-0.080
2020/01/31 18:23:26.5	29.740	0.400	0.180	-0.010
2020/01/31 18:23:26.6	29.740	0.390	0.180	0.060
2020/01/31 18:23:26.7	29.750	0.370	0.190	0.120
2020/01/31 18:23:26.8	29.750	0.350	0.200	0.190
2020/01/31 18:23:26.9	29.750	0.320	0.200	0.250
2020/01/31 18:23:27.0	29.760	0.300	0.200	0.310
2020/01/31 18:23:27.1	29.760	0.270	0.200	0.360
2020/01/31 18:23:27.2	29.760	0.240	0.190	0.420
2020/01/31 18:23:27.3	29.760	0.220	0.180	0.460
2020/01/31 18:23:27.4	29.760	0.190	0.170	0.510
2020/01/31 18:23:27.5	29.760	0.160	0.160	0.550
2020/01/31 18:23:27.6	29.770	0.130	0.140	0.580
2020/01/31 18:23:27.7	29.770	0.100	0.110	0.610
2020/01/31 18:23:27.8	29.780	0.070	0.090	0.630
2020/01/31 18:23:27.9	29.780	0.040	0.060	0.650
2020/01/31 18:23:28.0	29.790	0.020	0.030	0.670
2020/01/31 18:23:28.1	29.790	-0.010	-0.000	0.680
2020/01/31 18:23:28.2	29.800	-0.030	-0.040	0.680
2020/01/31 18:23:28.3	29.810	-0.060	-0.080	0.680
2020/01/31 18:23:28.4	29.830	-0.080	-0.120	0.670
2020/01/31 18:23:28.5	29.840	-0.100	-0.160	0.660
2020/01/31 18:23:28.6	29.860	-0.120	-0.210	0.640
2020/01/31 18:23:28.7	29.880	-0.130	-0.250	0.610
2020/01/31 18:23:28.8	29.900	-0.150	-0.300	0.580
2020/01/31 18:23:28.9	29.930	-0.160	-0.350	0.550
2020/01/31 18:23:29.0	29.950	-0.170	-0.390	0.510
2020/01/31 18:23:29.1	29.990	-0.180	-0.440	0.470
2020/01/31 18:23:29.2	30.020	-0.190	-0.490	0.420
2020/01/31 18:23:29.3	30.060	-0.190	-0.530	0.370
2020/01/31 18:23:29.4	30.090	-0.190	-0.580	0.320
2020/01/31 18:23:29.5	30.130	-0.190	-0.620	0.270
2020/01/31 18:23:29.6	30.180	-0.190	-0.660	0.210
2020/01/31 18:23:29.7	30.220	-0.190	-0.690	0.160
2020/01/31 18:23:29.8	30.260	-0.180	-0.730	0.100
2020/01/31 18:23:29.9	30.310	-0.170	-0.760	0.040
2020/01/31 18:23:30.0	30.360	-0.160	-0.790	-0.010
2020/01/31 18:23:30.1	30.410	-0.150	-0.810	-0.070
2020/01/31 18:23:30.2	30.460	-0.140	-0.830	-0.130
2020/01/31 18:23:30.3	30.510	-0.130	-0.850	-0.180
2020/01/31 18:23:30.4	30.560	-0.110	-0.860	-0.240
2020/01/31 18:23:30.5	30.620	-0.100	-0.870	-0.290
2020/01/31 18:23:30.6	30.670	-0.080	-0.870	-0.340
2020/01/31 18:23:30.7	30.720	-0.070	-0.870	-0.390
2020/01/31 18:23:30.8	30.790	-0.050	-0.860	-0.440
2020/01/31 18:23:30.9	30.850	-0.040	-0.850	-0.480
2020/01/31 18:23:31.0	30.900	-0.020	-0.830	-0.520
2020/01/31 18:23:31.1	30.960	-0.010	-0.810	-0.560
2020/01/31 18:23:31.2	31.020	0.000	-0.780	-0.600
2020/01/31 18:23:31.3	31.070	0.020	-0.750	-0.630
2020/01/31 18:23:31.4	31.130	0.030	-0.720	-0.660
2020/01/31 18:23:31.5	31.180	0.040	-0.680	-0.690
2020/01/31 18:23:31.6	31.240	0.050	-0.640	-0.710
2020/01/31 18:23:31.7	31.290	0.050	-0.590	-0.730
2020/01/31 18:23:31.8	31.350	0.060	-0.540	-0.740
2020/01/31 18:23:31.9	31.400	0.060	-0.480	-0.760
2020/01/31 18:23:32.0	31.450	0.060	-0.430	-0.760
2020/01/31 18:23:32.1	31.490	0.070	-0.370	-0.770
2020/01/31 18:23:32.2	31.530	0.060	-0.310	-0.760
2020/01/31 18:23:32.3	31.570	0.060	-0.240	-0.760
2020/01/31 18:23:32.4	31.610	0.060	-0.180	-0.740
2020/01/31 18:23:32.5	31.640	0.050	-0.110	-0.730
2020/01/31 18:23:32.6	31.670	0.040	-0.040	-0.710
2020/01/31 18:23:32.7	31.690	0.040	0.030	-0.680
2020/01/31 18:23:32.8	31.720	0.030	0.100	-0.650
2020/01/31 18:23:32.9	31.740	0.010	0.170	-0.610
2020/01/31 18:23:33.0	31.750	0.000	0.230	-0.570
2020/01/31 18:23:33.1	31.760	-0.010	0.300	-0.530
2020/01/31 18:23:33.2	31.770	-0.030	0.360	-0.480
2020/01/31 18:23:33.3	31.770	-0.040	0.430	-0.440
2020/01/31 18:23:33.4	31.770	-0.060	0.490	-0.390
2020/01/31 18:23:33.5	31.760	-0.080	0.540	-0.330
2020/01/31 18:23:33.6	31.750	-0.100	0.600	-0.280
2020/01/31 18:23:33.7	31.740	-0.120	0.650	-0.230
2020/01/31 18:23:33.8	31.740	-0.130	0.690	-0.170
2020/01/31 18:23:33.9	31.730	-0.150	0.730	-0.120
2020/01/31 18:23:34.0	31.710	-0.170	0.770	-0.060
2020/01/31 18:23:34.1	31.690	-0.190	0.800	-0.010
2020/01/31 18:23:34.2	31.680	-0.210	0.830	0.040
2020/01/31 18:23:34.3	31.660	-0.220	0.850	0.090
2020/01/31 18:23:34.4	31.640	-0.240	0.860	0.140
2020/01/31 18:23:34.5	31.620	-0.250	0.870	0.190
2020/01/31 18:23:34.6	31.590	-0.260	0.880	0.230
2020/01/31 18:23:34.7	31.570	-0.280	0.880	0.270
2020/01/31 18:23:34.8	31.560	-0.290	0.870	0.320
2020/01/31 18:23:34.9	31.530	-0.300	0.860	0.350
2020/01/31 18:23:35.0	31.510	-0.300	0.850	0.390
2020/01/31 18:23:35.1	31.490	-0.310	0.820	0.430
2020/01/31 18:23:35.2	31.470	-0.310	0.790	0.470
2020/01/31 18:23:35.3	31.440	-0.310	0.760	0.500
2020/01/31 18:23:35.4	31.420	-0.310	0.720	0.530
2020/01/31 18:23:35.5	31.400	-0.310	0.680	0.560
2020/01/31 18:23:35.6	31.390	-0.310	0.630	0.580
2020/01/31 18:23:35.7	31.370	-0.300	0.580	0.610
2020/01/31 18:23:35.8	31.350	-0.290	0.520	0.640
2020/01/31 18:23:35.9	31.330	-0.280	0.460	0.660
2020/01/31 18:23:36.0	31.320	-0.270	0.390	0.670
2020/01/31 18:23:36.1	31.310	-0.260	0.310	0.690
2020/01/31 18:23:36.2	31.300	-0.240	0.230	0.700
2020/01/31 18:23:36.3	31.300	-0.230	0.150	0.700
2020/01/31 18:23:36.4	31.300	-0.210	0.060	0.700
2020/01/31 18:23:36.5	31.300	-0.190	-0.030	0.700
2020/01/31 18:23:36.6	31.310	-0.160	-0.130	0.690
2020/01/31 18:23:36.7	31.320	-0.140	-0.230	0.680
2020/01/31 18:23:36.8	31.350	-0.110	-0.330	0.650
2020/01/31 18:23:36.9	31.370	-0.090	-0.440	0.630
2020/01/31 18:23:37.0	31.400	-0.060	-0.550	0.600
2020/01/31 18:23:37.1	31.430	-0.030	-0.660	0.570
2020/01/31 18:23:37.2	31.460	-0.000	-0.780	0.530
2020/01/31 18:23:37.3	31.510	0.030	-0.890	0.480
2020/01/31 18:23:37.4	31.550	0.060	-1.000	0.430
2020/01/31 18:23:37.5	31.610	0.090	-1.110	0.380
2020/01/31 18:23:37.6	31.660	0.120	-1.210	0.320
2020/01/31 18:23:37.7	31.720	0.150	-1.320	0.260
2020/01/31 18:23:37.8	31.780	0.180	-1.410	0.190
2020/01/31 18:23:37.9	31.850	0.210	-1.510	0.120
2020/01/31 18:23:38.0	31.920	0.240	-1.590	0.050
2020/01/31 18:23:38.1	31.990	0.270	-1.670	-0.020
2020/01/31 18:23:38.2	32.070	0.300	-1.740	-0.100
2020/01/31 18:23:38.3	32.150	0.320	-1.800	-0.170
2020/01/31 18:23:38.4	32.230	0.350	-1.850	-0.250
2020/01/31 18:23:38.5	32.310	0.370	-1.890	-0.330
2020/01/31 18:23:38.6	32.390	0.390	-1.920	-0.400
2020/01/31 18:23:38.7	32.470	0.410	-1.930	-0.480
2020/01/31 18:23:38.8	32.550	0.430	-1.940	-0.560
2020/01/31 18:23:38.9	32.630	0.440	-1.930	-0.630
2020/01/31 18:23:39.0	32.710	0.460	-1.910	-0.700
2020/01/31 18:23:39.1	32.790	0.470	-1.880	-0.760
2020/01/31 18:23:39.2	32.860	0.480	-1.840	-0.820
2020/01/31 18:23:39.3	32.940	0.480	-1.790	-0.880
2020/01/31 18:23:39.4	33.010	0.490	-1.720	-0.930
2020/01/31 18:23:39.5	33.070	0.490	-1.650	-0.980
2020/01/31 18:23:39.6	33.140	0.490	-1.560	-1.020
2020/01/31 18:23:39.7	33.200	0.480	-1.460	-1.060
2020/01/31 18:23:39.8	33.270	0.480	-1.360	-1.080
2020/01/31 18:23:39.9	33.330	0.470	-1.240	-1.110
2020/01/31 18:23:40.0	33.380	0.450	-1.120	-1.130
2020/01/31 18:23:40.1	33.430	0.440	-0.990	-1.140
2020/01/31 18:23:40.2	33.470	0.420	-0.860	-1.140
2020/01/31 18:23:40.3	33.510	0.400	-0.720	-1.140
2020/01/31 18:23:40.4	33.550	0.380	-0.580	-1.130
2020/01/31 18:23:40.5	33.580	0.360	-0.430	-1.120
2020/01/31 18:23:40.6	33.600	0.330	-0.290	-1.100
2020/01/31 18:23:40.7	33.630	0.300	-0.140	-1.070
2020/01/31 18:23:40.8	33.630	0.270	0.000	-1.030
2020/01/31 18:23:40.9	33.640	0.240	0.140	-0.990
2020/01/31 18:23:41.0	33.650	0.210	0.280	-0.940
2020/01/31 18:23:41.1	33.650	0.170	0.420	-0.880
2020/01/31 18:23:41.2	33.650	0.140	0.550	-0.820
2020/01/31 18:23:41.3	33.640	0.100	0.680	-0.740
2020/01/31 18:23:41.4	33.630	0.060	0.800	-0.670
2020/01/31 18:23:41.5	33.610	0.020	0.910	-0.580
2020/01/31 18:23:41.6	33.590	-0.020	1.020	-0.490
2020/01/31 18:23:41.7	33.560	-0.060	1.110	-0.400
2020/01/31 18:23:41.8	33.540	-0.100	1.200	-0.300
2020/01/31 18:23:41.9	33.500	-0.140	1.280	-0.200
2020/01/31 18:23:42.0	33.460	-0.180	1.350	-0.100
2020/01/31 18:23:42.1	33.420	-0.210	1.410	0.000
2020/01/31 18:23:42.2	33.380	-0.250	1.460	0.100
2020/01/31 18:23:42.3	33.340	-0.290	1.500	0.210
2020/01/31 18:23:42.4	33.290	-0.320	1.530	0.310
2020/01/31 18:23:42.5	33.250	-0.350	1.550	0.400
2020/01/31 18:23:42.6	33.200	-0.380	1.560	0.500
2020/01/31 18:23:42.7	33.160	-0.410	1.560	0.590
2020/01/31 18:23:42.8	33.120	-0.440	1.550	0.680
2020/01/31 18:23:42.9	33.080	-0.460	1.520	0.760
2020/01/31 18:23:43.0	33.040	-0.480	1.480	0.830
2020/01/31 18:23:43.1	33.010	-0.500	1.440	0.890
2020/01/31 18:23:43.2	32.980	-0.510	1.380	0.940
2020/01/31 18:23:43.3	32.960	-0.520	1.320	0.990
2020/01/31 18:23:43.4	32.940	-0.520	1.240	1.030
2020/01/31 18:23:43.5	32.920	-0.520	1.150	1.060
2020/01/31 18:23:43.6	32.910	-0.520	1.060	1.080
2020/01/31 18:23:43.7	32.900	-0.510	0.960	1.100
2020/01/31 18:23:43.8	32.900	-0.500	0.850	1.110
2020/01/31 18:23:43.9	32.900	-0.480	0.730	1.100
2020/01/31 18:23:44.0	32.910	-0.460	0.610	1.090
2020/01/31 18:23:44.1	32.930	-0.440	0.480	1.080
2020/01/31 18:23:44.2	32.950	-0.410	0.350	1.060
2020/01/31 18:23:44.3	32.970	-0.370	0.220	1.030
2020/01/31 18:23:44.4	33.000	-0.340	0.080	0.990
2020/01/31 18:23:44.5	33.040	-0.300	-0.050	0.950
2020/01/31 18:23:44.6	33.080	-0.260	-0.190	0.910
2020/01/31 18:23:44.7	33.120	-0.210	-0.320	0.860
2020/01/31 18:23:44.8	33.160	-0.160	-0.460	0.810
2020/01/31 18:23:44.9	33.210	-0.110	-0.590	0.750
2020/01/31 18:23:45.0	33.270	-0.060	-0.710	0.700
2020/01/31 18:23:45.1	33.330	-0.010	-0.830	0.640
2020/01/31 18:23:45.2	33.390	0.040	-0.940	0.590
2020/01/31 18:23:45.3	33.450	0.100	-1.050	0.530
2020/01/31 18:23:45.4	33.510	0.150	-1.150	0.470
2020/01/31 18:23:45.5	33.580	0.200	-1.240	0.420
2020/01/31 18:23:45.6	33.650	0.250	-1.320	0.360
2020/01/31 18:23:45.7	33.720	0.300	-1.390	0.300
2020/01/31 18:23:45.8	33.800	0.350	-1.450	0.240
2020/01/31 18:23:45.9	33.870	0.390	-1.510	0.190
2020/01/31 18:23:46.0	33.950	0.440	-1.550	0.130
2020/01/31 18:23:46.1	34.020	0.470	-1.580	0.070
2020/01/31 18:23:46.2	34.100	0.510	-1.590	0.020
2020/01/31 18:23:46.3	34.170	0.530	-1.600	-0.030
2020/01/31 18:23:46.4	34.240	0.560	-1.600	-0.080
2020/01/31 18:23:46.5	34.320	0.580	-1.580	-0.130
2020/01/31 18:23:46.6	34.390	0.590	-1.550	-0.170
2020/01/31 18:23:46.7	34.460	0.600	-1.520	-0.210
2020/01/31 18:23:46.8	34.530	0.600	-1.470	-0.250
2020/01/31 18:23:46.9	34.590	0.600	-1.410	-0.290
2020/01/31 18:23:47.0	34.650	0.590	-1.340	-0.320
2020/01/31 18:23:47.1	34.710	0.570	-1.260	-0.350
2020/01/31 18:23:47.2	34.760	0.550	-1.180	-0.370
2020/01/31 18:23:47.3	34.810	0.530	-1.080	-0.400
2020/01/31 18:23:47.4	34.850	0.490	-0.980	-0.410
2020/01/31 18:23:47.5	34.890	0.460	-0.880	-0.420
2020/01/31 18:23:47.6	34.930	0.420	-0.770	-0.430
2020/01/31 18:23:47.7	34.960	0.370	-0.650	-0.430
2020/01/31 18:23:47.8	34.970	0.320	-0.540	-0.440
2020/01/31 18:23:47.9	34.990	0.270	-0.420	-0.430
2020/01/31 18:23:48.0	35.010	0.210	-0.300	-0.420
2020/01/31 18:23:48.1	35.020	0.150	-0.180	-0.410
2020/01/31 18:23:48.2	35.020	0.090	-0.060	-0.390
2020/01/31 18:23:48.3	35.020	0.030	0.050	-0.370
2020/01/31 18:23:48.4	35.020	-0.040	0.170	-0.350
2020/01/31 18:23:48.5	35.010	-0.100	0.270	-0.330
2020/01/31 18:23:48.6	35.000	-0.160	0.370	-0.300
2020/01/31 18:23:48.7	34.990	-0.230	0.470	-0.270
2020/01/31 18:23:48.8	34.980	-0.290	0.560	-0.240
2020/01/31 18:23:48.9	34.960	-0.350	0.640	-0.210
2020/01/31 18:23:49.0	34.930	-0.410	0.710	-0.180
2020/01/31 18:23:49.1	34.910	-0.460	0.780	-0.160
2020/01/31 18:23:49.2	34.880	-0.510	0.840	-0.130
2020/01/31 18:23:49.3	34.850	-0.560	0.880	-0.100
2020/01/31 18:23:49.4	34.830	-0.610	0.920	-0.080
2020/01/31 18:23:49.5	34.800	-0.640	0.950	-0.050
2020/01/31 18:23:49.6	34.770	-0.680	0.970	-0.030
2020/01/31 18:23:49.7	34.740	-0.710	0.980	-0.010
2020/01/31 18:23:49.8	34.730	-0.730	0.980	0.000
2020/01/31 18:23:49.9	34.700	-0.750	0.970	0.010
2020/01/31 18:23:50.0	34.680	-0.760	0.950	0.020
2020/01/31 18:23:50.1	34.660	-0.760	0.920	0.030
2020/01/31 18:23:50.2	34.640	-0.760	0.880	0.030
2020/01/31 18:23:50.3	34.620	-0.760	0.830	0.040
2020/01/31 18:23:50.4	34.610	-0.750	0.770	0.030
2020/01/31 18:23:50.5	34.600	-0.730	0.710	0.030
2020/01/31 18:23:50.6	34.590	-0.710	0.640	0.020
2020/01/31 18:23:50.7	34.580	-0.680	0.570	0.010
2020/01/31 18:23:50.8	34.600	-0.650	0.490	0.000
2020/01/31 18:23:50.9	34.600	-0.610	0.400	-0.010
2020/01/31 18:23:51.0	34.600	-0.570	0.320	-0.030
2020/01/31 18:23:51.1	34.610	-0.530	0.220	-0.050
2020/01/31 18:23:51.2	34.620	-0.480	0.130	-0.070
2020/01/31 18:23:51.3	34.630	-0.420	0.040	-0.090
2020/01/31 18:23:51.4	34.650	-0.370	-0.060	-0.110
2020/01/31 18:23:51.5	34.670	-0.310	-0.150	-0.140
2020/01/31 18:23:51.6	34.690	-0.260	-0.240	-0.160
2020/01/31 18:23:51.7	34.710	-0.200	-0.330	-0.180
2020/01/31 18:23:51.8	34.730	-0.140	-0.420	-0.210
2020/01/31 18:23:51.9	34.760	-0.080	-0.510	-0.230
2020/01/31 18:23:52.0	34.790	-0.020	-0.580	-0.250
2020/01/31 18:23:52.1	34.820	0.040	-0.660	-0.280
2020/01/31 18:23:52.2	34.850	0.100	-0.730	-0.300
2020/01/31 18:23:52.3	34.890	0.160	-0.790	-0.310
2020/01/31 18:23:52.4	34.920	0.210	-0.840	-0.330
2020/01/31 18:23:52.5	34.950	0.270	-0.890	-0.350
2020/01/31 18:23:52.6	34.990	0.310	-0.930	-0.360
2020/01/31 18:23:52.7	35.020	0.360	-0.960	-0.370
2020/01/31 18:23:52.8	35.050	0.410	-0.990	-0.380
2020/01/31 18:23:52.9	35.080	0.450	-1.010	-0.390
2020/01/31 18:23:53.0	35.120	0.480	-1.020	-0.390
2020/01/31 18:23:53.1	35.150	0.510	-1.020	-0.400
2020/01/31 18:23:53.2	35.190	0.540	-1.010	-0.400
2020/01/31 18:23:53.3	35.220	0.570	-1.000	-0.400
2020/01/31 18:23:53.4	35.250	0.590	-0.980	-0.390
2020/01/31 18:23:53.5	35.280	0.600	-0.950	-0.390
2020/01/31 18:23:53.6	35.320	0.610	-0.920	-0.380
2020/01/31 18:23:53.7	35.350	0.620	-0.880	-0.370
2020/01/31 18:23:53.8	35.360	0.630	-0.840	-0.360
2020/01/31 18:23:53.9	35.390	0.630	-0.790	-0.350
2020/01/31 18:23:54.0	35.420	0.620	-0.740	-0.330
2020/01/31 18:23:54.1	35.450	0.610	-0.690	-0.320
2020/01/31 18:23:54.2	35.480	0.600	-0.630	-0.300
2020/01/31 18:23:54.3	35.510	0.590	-0.570	-0.280
2020/01/31 18:23:54.4	35.540	0.570	-0.510	-0.260
2020/01/31 18:23:54.5	35.560	0.550	-0.460	-0.240
2020/01/31 18:23:54.6	35.590	0.520	-0.400	-0.210
2020/01/31 18:23:54.7	35.620	0.500	-0.340	-0.190
2020/01/31 18:23:54.8	35.630	0.470	-0.280	-0.170
2020/01/31 18:23:54.9	35.660	0.440	-0.230	-0.140
2020/01/31 18:23:55.0	35.690	0.410	-0.170	-0.120
2020/01/31 18:23:55.1	35.710	0.370	-0.120	-0.090
2020/01/31 18:23:55.2	35.740	0.340	-0.080	-0.070
2020/01/31 18:23:55.3	35.760	0.300	-0.040	-0.040
2020/01/31 18:23:55.4	35.790	0.270	0.000	-0.020
2020/01/31 18:23:55.5	35.810	0.230	0.040	0.010
2020/01/31 18:23:55.6	35.840	0.190	0.070	0.030
2020/01/31 18:23:55.7	35.860	0.150	0.100	0.060
2020/01/31 18:23:55.8	35.910	0.120	0.120	0.080
2020/01/31 18:23:55.9	35.930	0.080	0.140	0.110
2020/01/31 18:23:56.0	35.950	0.040	0.160	0.130
2020/01/31 18:23:56.1	35.970	0.010	0.170	0.160
2020/01/31 18:23:56.2	35.990	-0.030	0.180	0.180
2020/01/31 18:23:56.3	36.010	-0.070	0.190	0.200
2020/01/31 18:23:56.4	36.020	-0.100	0.190	0.220
2020/01/31 18:23:56.5	36.040	-0.130	0.190	0.240
2020/01/31 18:23:56.6	36.060	-0.160	0.190	0.260
2020/01/31 18:23:56.7	36.080	-0.190	0.180	0.280
2020/01/31 18:23:56.8	36.090	-0.220	0.170	0.290
2020/01/31 18:23:56.9	36.110	-0.250	0.160	0.300
2020/01/31 18:23:57.0	36.130	-0.270	0.140	0.310
2020/01/31 18:23:57.1	36.140	-0.290	0.120	0.320
2020/01/31 18:23:57.2	36.160	-0.310	0.100	0.310
2020/01/31 18:23:57.3	36.180	-0.330	0.080	0.310
2020/01/31 18:23:57.4	36.200	-0.340	0.050	0.300
2020/01/31 18:23:57.5	36.220	-0.360	0.020	0.290
2020/01/31 18:23:57.6	36.240	-0.360	-0.010	0.270
2020/01/31 18:23:57.7	36.260	-0.370	-0.040	0.250
2020/01/31 18:23:57.8	36.290	-0.380	-0.070	0.230
2020/01/31 18:23:57.9	36.310	-0.380	-0.110	0.200
2020/01/31 18:23:58.0	36.340	-0.370	-0.140	0.170
2020/01/31 18:23:58.1	36.370	-0.370	-0.180	0.140
2020/01/31 18:23:58.2	36.390	-0.360	-0.220	0.110
2020/01/31 18:23:58.3	36.420	-0.350	-0.250	0.080
2020/01/31 18:23:58.4	36.450	-0.330	-0.290	0.040
2020/01/31 18:23:58.5	36.480	-0.310	-0.320	0.010
2020/01/31 18:23:58.6	36.510	-0.290	-0.360	-0.020
2020/01/31 18:23:58.7	36.540	-0.270	-0.390	-0.050
2020/01/31 18:23:58.8	36.560	-0.240	-0.420	-0.080
2020/01/31 18:23:58.9	36.590	-0.210	-0.440	-0.100
2020/01/31 18:23:59.0	36.620	-0.180	-0.470	-0.120
2020/01/31 18:23:59.1	36.640	-0.140	-0.490	-0.140
2020/01/31 18:23:59.2	36.670	-0.110	-0.500	-0.150
2020/01/31 18:23:59.3	36.690	-0.070	-0.510	-0.160
2020/01/31 18:23:59.4	36.710	-0.040	-0.520	-0.160
2020/01/31 18:23:59.5	36.730	0.000	-0.520	-0.160
2020/01/31 18:23:59.6	36.750	0.040	-0.520	-0.160
2020/01/31 18:23:59.7	36.760	0.070	-0.510	-0.150
2020/01/31 18:23:59.8	36.790	0.110	-0.490	-0.130
2020/01/31 18:23:59.9	36.800	0.140	-0.480	-0.110
2020/01/31 18:24:00.0	36.810	0.170	-0.450	-0.090
2020/01/31 18:24:00.1	36.820	0.200	-0.420	-0.060
2020/01/31 18:24:00.2	36.830	0.230	-0.390	-0.030
2020/01/31 18:24:00.3	36.840	0.250	-0.350	0.000
2020/01/31 18:24:00.4	36.840	0.270	-0.310	0.040
2020/01/31 18:24:00.5	36.850	0.290	-0.270	0.080
2020/01/31 18:24:00.6	36.850	0.300	-0.220	0.120
2020/01/31 18:24:00.7	36.860	0.310	-0.170	0.170
2020/01/31 18:24:00.8	36.850	0.320	-0.130	0.210
2020/01/31 18:24:00.9	36.850	0.320	-0.080	0.260
2020/01/31 18:24:01.0	36.860	0.320	-0.020	0.310
2020/01/31 18:24:01.1	36.860	0.320	0.030	0.350
2020/01/31 18:24:01.2	36.860	0.310	0.080	0.400
2020/01/31 18:24:01.3	36.870	0.300	0.130	0.440
2020/01/31 18:24:01.4	36.870	0.280	0.170	0.490
2020/01/31 18:24:01.5	36.880	0.260	0.220	0.530
2020/01/31 18:24:01.6	36.890	0.240	0.260	0.570
2020/01/31 18:24:01.7	36.890	0.220	0.300	0.600
2020/01/31 18:24:01.8	36.900	0.190	0.340	0.630
2020/01/31 18:24:01.9	36.910	0.160	0.370	0.660
2020/01/31 18:24:02.0	36.920	0.130	0.400	0.680
2020/01/31 18:24:02.1	36.940	0.100	0.420	0.700
2020/01/31 18:24:02.2	36.950	0.070	0.440	0.720
2020/01/31 18:24:02.3	36.970	0.040	0.460	0.730
2020/01/31 18:24:02.4	36.990	0.000	0.470	0.740
2020/01/31 18:24:02.5	37.010	-0.030	0.480	0.750
2020/01/31 18:24:02.6	37.030	-0.060	0.480	0.750
2020/01/31 18:24:02.7	37.060	-0.090	0.480	0.740
2020/01/31 18:24:02.8	37.090	-0.120	0.470	0.740
2020/01/31 18:24:02.9	37.110	-0.150	0.460	0.730
2020/01/31 18:24:03.0	37.140	-0.170	0.450	0.710
2020/01/31 18:24:03.1	37.160	-0.190	0.430	0.690
2020/01/31 18:24:03.2	37.190	-0.210	0.410	0.680
2020/01/31 18:24:03.3	37.210	-0.220	0.380	0.650
2020/01/31 18:24:03.4	37.230	-0.230	0.350	0.630
2020/01/31 18:24:03.5	37.260	-0.240	0.320	0.610
2020/01/31 18:24:03.6	37.280	-0.250	0.280	0.580
2020/01/31 18:24:03.7	37.300	-0.250	0.250	0.560
2020/01/31 18:24:03.8	37.330	-0.240	0.210	0.530
2020/01/31 18:24:03.9	37.350	-0.230	0.160	0.500
2020/01/31 18:24:04.0	37.370	-0.220	0.120	0.480
2020/01/31 18:24:04.1	37.390	-0.210	0.070	0.450
2020/01/31 18:24:04.2	37.410	-0.190	0.020	0.420
2020/01/31 18:24:04.3	37.430	-0.170	-0.030	0.400
2020/01/31 18:24:04.4	37.450	-0.150	-0.090	0.370
2020/01/31 18:24:04.5	37.470	-0.120	-0.140	0.340
2020/01/31 18:24:04.6	37.490	-0.090	-0.200	0.310
2020/01/31 18:24:04.7	37.520	-0.060	-0.260	0.280
2020/01/31 18:24:04.8	37.550	-0.030	-0.320	0.250
2020/01/31 18:24:04.9	37.580	-0.000	-0.370	0.210
2020/01/31 18:24:05.0	37.610	0.030	-0.430	0.180
2020/01/31 18:24:05.1	37.640	0.060	-0.490	0.140
2020/01/31 18:24:05.2	37.670	0.090	-0.550	0.100
2020/01/31 18:24:05.3	37.710	0.120	-0.610	0.070
2020/01/31 18:24:05.4	37.740	0.150	-0.660	0.030
2020/01/31 18:24:05.5	37.780	0.180	-0.720	-0.020
2020/01/31 18:24:05.6	37.820	0.200	-0.770	-0.060
2020/01/31 18:24:05.7	37.870	0.230	-0.820	-0.100
2020/01/31 18:24:05.8	37.910	0.250	-0.860	-0.140
2020/01/31 18:24:05.9	37.950	0.260	-0.900	-0.180
2020/01/31 18:24:06.0	38.000	0.280	-0.940	-0.220
2020/01/31 18:24:06.1	38.050	0.290	-0.970	-0.260
2020/01/31 18:24:06.2	38.090	0.300	-1.000	-0.310
2020/01/31 18:24:06.3	38.140	0.300	-1.020	-0.340
2020/01/31 18:24:06.4	38.180	0.300	-1.040	-0.380
2020/01/31 18:24:06.5	38.230	0.290	-1.050	-0.420
2020/01/31 18:24:06.6	38.270	0.290	-1.050	-0.460
2020/01/31 18:24:06.7	38.310	0.270	-1.050	-0.490
2020/01/31 18:24:06.8	38.340	0.260	-1.040	-0.520
2020/01/31 18:24:06.9	38.380	0.240	-1.020	-0.550
2020/01/31 18:24:07.0	38.420	0.210	-1.000	-0.570
2020/01/31 18:24:07.1	38.450	0.190	-0.970	-0.600
2020/01/31 18:24:07.2	38.480	0.160	-0.940	-0.620
2020/01/31 18:24:07.3	38.510	0.120	-0.900	-0.650
2020/01/31 18:24:07.4	38.540	0.090	-0.850	-0.670
2020/01/31 18:24:07.5	38.560	0.050	-0.800	-0.690
2020/01/31 18:24:07.6	38.580	0.010	-0.750	-0.700
2020/01/31 18:24:07.7	38.600	-0.030	-0.690	-0.720
2020/01/31 18:24:07.8	38.610	-0.070	-0.630	-0.730
2020/01/31 18:24:07.9	38.620	-0.110	-0.560	-0.750
2020/01/31 18:24:08.0	38.630	-0.150	-0.490	-0.760
2020/01/31 18:24:08.1	38.640	-0.190	-0.430	-0.770
2020/01/31 18:24:08.2	38.640	-0.230	-0.360	-0.770
2020/01/31 18:24:08.3	38.650	-0.270	-0.290	-0.780
2020/01/31 18:24:08.4	38.650	-0.310	-0.220	-0.780
2020/01/31 18:24:08.5	38.650	-0.350	-0.150	-0.780
2020/01/31 18:24:08.6	38.650	-0.380	-0.080	-0.790
2020/01/31 18:24:08.7	38.650	-0.410	-0.010	-0.790
2020/01/31 18:24:08.8	38.640	-0.440	0.050	-0.780
2020/01/31 18:24:08.9	38.630	-0.460	0.110	-0.780
2020/01/31 18:24:09.0	38.630	-0.480	0.170	-0.770
2020/01/31 18:24:09.1	38.620	-0.490	0.220	-0.760
2020/01/31 18:24:09.2	38.620	-0.500	0.270	-0.760
2020/01/31 18:24:09.3	38.610	-0.510	0.310	-0.740
2020/01/31 18:24:09.4	38.610	-0.510	0.350	-0.730
2020/01/31 18:24:09.5	38.600	-0.510	0.390	-0.710
2020/01/31 18:24:09.6	38.590	-0.500	0.410	-0.700
2020/01/31 18:24:09.7	38.580	-0.490	0.440	-0.680
2020/01/31 18:24:09.8	38.570	-0.480	0.460	-0.650
2020/01/31 18:24:09.9	38.560	-0.460	0.470	-0.630
2020/01/31 18:24:10.0	38.560	-0.430	0.480	-0.600
2020/01/31 18:24:10.1	38.550	-0.410	0.480	-0.570
2020/01/31 18:24:10.2	38.550	-0.380	0.480	-0.540
2020/01/31 18:24:10.3	38.540	-0.340	0.470	-0.500
2020/01/31 18:24:10.4	38.540	-0.300	0.460	-0.470
2020/01/31 18:24:10.5	38.540	-0.260	0.440	-0.430
2020/01/31 18:24:10.6	38.540	-0.220	0.420	-0.390
2020/01/31 18:24:10.7	38.550	-0.170	0.390	-0.350
2020/01/31 18:24:10.8	38.550	-0.130	0.360	-0.310
2020/01/31 18:24:10.9	38.560	-0.080	0.330	-0.270
2020/01/31 18:24:11.0	38.570	-0.030	0.290	-0.230
2020/01/31 18:24:11.1	38.580	0.020	0.250	-0.190
2020/01/31 18:24:11.2	38.600	0.070	0.210	-0.150
2020/01/31 18:24:11.3	38.620	0.120	0.160	-0.110
2020/01/31 18:24:11.4	38.640	0.160	0.120	-0.070
2020/01/31 18:24:11.5	38.670	0.210	0.070	-0.030
2020/01/31 18:24:11.6	38.690	0.260	0.020	0.010
2020/01/31 18:24:11.7	38.730	0.300	-0.030	0.040
2020/01/31 18:24:11.8	38.750	0.340	-0.080	0.080
2020/01/31 18:24:11.9	38.790	0.380	-0.130	0.110
2020/01/31 18:24:12.0	38.830	0.420	-0.170	0.150
2020/01/31 18:24:12.1	38.870	0.450	-0.220	0.180
2020/01/31 18:24:12.2	38.920	0.490	-0.260	0.210
2020/01/31 18:24:12.3	38.960	0.510	-0.300	0.240
2020/01/31 18:24:12.4	39.010	0.540	-0.330	0.280
2020/01/31 18:24:12.5	39.060	0.560	-0.370	0.310
2020/01/31 18:24:12.6	39.110	0.580	-0.400	0.340
2020/01/31 18:24:12.7	39.160	0.590	-0.420	0.370
2020/01/31 18:24:12.8	39.220	0.600	-0.440	0.410
2020/01/31 18:24:12.9	39.270	0.610	-0.460	0.440
2020/01/31 18:24:13.0	39.320	0.610	-0.470	0.470
2020/01/31 18:24:13.1	39.370	0.610	-0.470	0.510
2020/01/31 18:24:13.2	39.430	0.600	-0.470	0.540
2020/01/31 18:24:13.3	39.480	0.590	-0.470	0.570
2020/01/31 18:24:13.4	39.530	0.580	-0.460	0.610
2020/01/31 18:24:13.5	39.570	0.570	-0.450	0.640
2020/01/31 18:24:13.6	39.620	0.550	-0.430	0.680
2020/01/31 18:24:13.7	39.670	0.530	-0.410	0.720
2020/01/31 18:24:13.8	39.720	0.510	-0.390	0.750
2020/01/31 18:24:13.9	39.760	0.480	-0.360	0.790
2020/01/31 18:24:14.0	39.810	0.450	-0.330	0.830
2020/01/31 18:24:14.1	39.840	0.420	-0.300	0.860
2020/01/31 18:24:14.2	39.880	0.390	-0.270	0.900
2020/01/31 18:24:14.3	39.920	0.360	-0.230	0.930
2020/01/31 18:24:14.4	39.950	0.330	-0.200	0.970
2020/01/31 18:24:14.5	39.980	0.290	-0.160	1.000
2020/01/31 18:24:14.6	40.010	0.260	-0.130	1.030
2020/01/31 18:24:14.7	40.040	0.230	-0.100	1.060
2020/01/31 18:24:14.8	40.060	0.190	-0.070	1.090
2020/01/31 18:24:14.9	40.090	0.160	-0.040	1.120
2020/01/31 18:24:15.0	40.110	0.130	-0.010	1.150
2020/01/31 18:24:15.1	40.130	0.090	0.010	1.170
2020/01/31 18:24:15.2	40.150	0.060	0.030	1.190
2020/01/31 18:24:15.3	40.170	0.030	0.050	1.210
2020/01/31 18:24:15.4	40.190	0.010	0.060	1.220
2020/01/31 18:24:15.5	40.200	-0.020	0.070	1.230
2020/01/31 18:24:15.6	40.210	-0.040	0.080	1.240
2020/01/31 18:24:15.7	40.230	-0.060	0.070	1.240
2020/01/31 18:24:15.8	40.250	-0.080	0.070	1.240
2020/01/31 18:24:15.9	40.260	-0.100	0.060	1.240
2020/01/31 18:24:16.0	40.260	-0.120	0.050	1.240
2020/01/31 18:24:16.1	40.270	-0.130	0.030	1.230
2020/01/31 18:24:16.2	40.280	-0.140	0.000	1.220
2020/01/31 18:24:16.3	40.280	-0.150	-0.030	1.200
2020/01/31 18:24:16.4	40.280	-0.160	-0.060	1.190
2020/01/31 18:24:16.5	40.290	-0.160	-0.090	1.160
2020/01/31 18:24:16.6	40.290	-0.170	-0.130	1.140
2020/01/31 18:24:16.7	40.290	-0.170	-0.170	1.110
2020/01/31 18:24:16.8	40.300	-0.170	-0.210	1.080
2020/01/31 18:24:16.9	40.290	-0.170	-0.250	1.050
2020/01/31 18:24:17.0	40.290	-0.170	-0.290	1.010
2020/01/31 18:24:17.1	40.290	-0.170	-0.330	0.970
2020/01/31 18:24:17.2	40.290	-0.160	-0.370	0.920
2020/01/31 18:24:17.3	40.290	-0.160	-0.410	0.880
2020/01/31 18:24:17.4	40.290	-0.160	-0.450	0.830
2020/01/31 18:24:17.5	40.290	-0.160	-0.480	0.770
2020/01/31 18:24:17.6	40.290	-0.150	-0.520	0.720
2020/01/31 18:24:17.7	40.290	-0.150	-0.550	0.660
2020/01/31 18:24:17.8	40.300	-0.150	-0.570	0.590
2020/01/31 18:24:17.9	40.310	-0.150	-0.590	0.530
2020/01/31 18:24:18.0	40.310	-0.150	-0.610	0.460
2020/01/31 18:24:18.1	40.320	-0.150	-0.620	0.390
2020/01/31 18:24:18.2	40.320	-0.160	-0.630	0.330
2020/01/31 18:24:18.3	40.330	-0.160	-0.630	0.260
2020/01/31 18:24:18.4	40.340	-0.170	-0.630	0.180
2020/01/31 18:24:18.5	40.350	-0.170	-0.620	0.110
2020/01/31 18:24:18.6	40.350	-0.180	-0.610	0.040
2020/01/31 18:24:18.7	40.360	-0.190	-0.590	-0.030
2020/01/31 18:24:18.8	40.370	-0.210	-0.570	-0.100
2020/01/31 18:24:18.9	40.380	-0.220	-0.540	-0.180
2020/01/31 18:24:19.0	40.390	-0.240	-0.500	-0.250
2020/01/31 18:24:19.1	40.410	-0.250	-0.460	-0.320
2020/01/31 18:24:19.2	40.420	-0.270	-0.420	-0.390
2020/01/31 18:24:19.3	40.430	-0.290	-0.370	-0.460
2020/01/31 18:24:19.4	40.450	-0.300	-0.320	-0.520
2020/01/31 18:24:19.5	40.460	-0.320	-0.270	-0.590
2020/01/31 18:24:19.6	40.480	-0.340	-0.220	-0.650
2020/01/31 18:24:19.7	40.490	-0.360	-0.160	-0.720
2020/01/31 18:24:19.8	40.510	-0.370	-0.100	-0.780
2020/01/31 18:24:19.9	40.530	-0.390	-0.040	-0.840
2020/01/31 18:24:20.0	40.550	-0.400	0.020	-0.900
2020/01/31 18:24:20.1	40.580	-0.420	0.080	-0.950
2020/01/31 18:24:20.2	40.600	-0.430	0.130	-1.000
2020/01/31 18:24:20.3	40.630	-0.440	0.190	-1.050
2020/01/31 18:24:20.4	40.660	-0.440	0.240	-1.100
2020/01/31 18:24:20.5	40.700	-0.450	0.280	-1.140
2020/01/31 18:24:20.6	40.740	-0.450	0.330	-1.180
2020/01/31 18:24:20.7	40.780	-0.440	0.370	-1.220
2020/01/31 18:24:20.8	40.820	-0.440	0.400	-1.260
2020/01/31 18:24:20.9	40.870	-0.430	0.430	-1.290
2020/01/31 18:24:21.0	40.920	-0.410	0.450	-1.320
2020/01/31 18:24:21.1	40.970	-0.390	0.470	-1.350
2020/01/31 18:24:21.2	41.020	-0.370	0.480	-1.380
2020/01/31 18:24:21.3	41.080	-0.350	0.480	-1.400
2020/01/31 18:24:21.4	41.140	-0.320	0.480	-1.410
2020/01/31 18:24:21.5	41.200	-0.290	0.480	-1.430
2020/01/31 18:24:21.6	41.260	-0.260	0.460	-1.430
2020/01/31 18:24:21.7	41.320	-0.220	0.450	-1.440
2020/01/31 18:24:21.8	41.390	-0.190	0.420	-1.440
2020/01/31 18:24:21.9	41.450	-0.150	0.390	-1.430
2020/01/31 18:24:22.0	41.520	-0.100	0.360	-1.430
2020/01/31 18:24:22.1	41.580	-0.060	0.330	-1.410
2020/01/31 18:24:22.2	41.640	-0.020	0.290	-1.390
2020/01/31 18:24:22.3	41.700	0.030	0.240	-1.370
2020/01/31 18:24:22.4	41.760	0.070	0.200	-1.340
2020/01/31 18:24:22.5	41.820	0.110	0.150	-1.300
2020/01/31 18:24:22.6	41.870	0.160	0.110	-1.260
2020/01/31 18:24:22.7	41.930	0.200	0.060	-1.220
2020/01/31 18:24:22.8	41.980	0.240	0.010	-1.160
2020/01/31 18:24:22.9	42.030	0.270	-0.040	-1.110
2020/01/31 18:24:23.0	42.070	0.310	-0.090	-1.040
2020/01/31 18:24:23.1	42.100	0.340	-0.130	-0.980
2020/01/31 18:24:23.2	42.130	0.370	-0.180	-0.910
2020/01/31 18:24:23.3	42.160	0.400	-0.220	-0.830
2020/01/31 18:24:23.4	42.180	0.420	-0.260	-0.750
2020/01/31 18:24:23.5	42.200	0.440	-0.300	-0.660
2020/01/31 18:24:23.6	42.210	0.450	-0.330	-0.570
2020/01/31 18:24:23.7	42.220	0.460	-0.360	-0.480
2020/01/31 18:24:23.8	42.220	0.470	-0.390	-0.380
2020/01/31 18:24:23.9	42.220	0.470	-0.420	-0.290
2020/01/31 18:24:24.0	42.210	0.470	-0.440	-0.190
2020/01/31 18:24:24.1	42.200	0.470	-0.470	-0.090
2020/01/31 18:24:24.2	42.190	0.460	-0.480	0.010
2020/01/31 18:24:24.3	42.170	0.450	-0.500	0.100
2020/01/31 18:24:24.4	42.160	0.440	-0.520	0.200
2020/01/31 18:24:24.5	42.140	0.420	-0.530	0.290
2020/01/31 18:24:24.6	42.110	0.400	-0.540	0.380
2020/01/31 18:24:24.7	42.090	0.370	-0.550	0.470
2020/01/31 18:24:24.8	42.080	0.350	-0.560	0.550
2020/01/31 18:24:24.9	42.050	0.320	-0.570	0.630
2020/01/31 18:24:25.0	42.030	0.290	-0.570	0.700
2020/01/31 18:24:25.1	42.010	0.260	-0.580	0.770
2020/01/31 18:24:25.2	41.990	0.230	-0.580	0.830
2020/01/31 18:24:25.3	41.970	0.200	-0.580	0.880
2020/01/31 18:24:25.4	41.960	0.160	-0.590	0.930
2020/01/31 18:24:25.5	41.940	0.130	-0.590	0.970
2020/01/31 18:24:25.6	41.930	0.100	-0.590	1.000
2020/01/31 18:24:25.7	41.930	0.070	-0.590	1.030
2020/01/31 18:24:25.8	41.930	0.040	-0.600	1.040
2020/01/31 18:24:25.9	41.930	0.010	-0.600	1.040
2020/01/31 18:24:26.0	41.940	-0.020	-0.600	1.040
2020/01/31 18:24:26.1	41.950	-0.040	-0.600	1.030
2020/01/31 18:24:26.2	41.970	-0.060	-0.610	1.010
2020/01/31 18:24:26.3	41.990	-0.080	-0.610	0.990
2020/01/31 18:24:26.4	42.020	-0.100	-0.610	0.950
2020/01/31 18:24:26.5	42.050	-0.120	-0.620	0.910
2020/01/31 18:24:26.6	42.080	-0.130	-0.620	0.870
2020/01/31 18:24:26.7	42.120	-0.140	-0.620	0.810
2020/01/31 18:24:26.8	42.160	-0.150	-0.620	0.750
2020/01/31 18:24:26.9	42.210	-0.150	-0.620	0.690
2020/01/31 18:24:27.0	42.250	-0.150	-0.630	0.630
2020/01/31 18:24:27.1	42.310	-0.150	-0.620	0.560
2020/01/31 18:24:27.2	42.360	-0.140	-0.620	0.490
2020/01/31 18:24:27.3	42.410	-0.140	-0.620	0.420
2020/01/31 18:24:27.4	42.470	-0.130	-0.610	0.350
2020/01/31 18:24:27.5	42.530	-0.110	-0.610	0.280
2020/01/31 18:24:27.6	42.590	-0.100	-0.600	0.200
2020/01/31 18:24:27.7	42.650	-0.080	-0.580	0.140
2020/01/31 18:24:27.8	42.720	-0.060	-0.570	0.070
2020/01/31 18:24:27.9	42.780	-0.040	-0.550	0.000
2020/01/31 18:24:28.0	42.840	-0.020	-0.530	-0.060
2020/01/31 18:24:28.1	42.900	-0.000	-0.510	-0.120
2020/01/31 18:24:28.2	42.960	0.020	-0.480	-0.180
2020/01/31 18:24:28.3	43.010	0.040	-0.450	-0.230
2020/01/31 18:24:28.4	43.070	0.070	-0.420	-0.270
2020/01/31 18:24:28.5	43.120	0.090	-0.390	-0.320
2020/01/31 18:24:28.6	43.180	0.110	-0.350	-0.350
2020/01/31 18:24:28.7	43.230	0.130	-0.310	-0.390
2020/01/31 18:24:28.8	43.270	0.150	-0.260	-0.410
2020/01/31 18:24:28.9	43.310	0.170	-0.210	-0.440
2020/01/31 18:24:29.0	43.350	0.190	-0.170	-0.450
2020/01/31 18:24:29.1	43.390	0.200	-0.110	-0.470
2020/01/31 18:24:29.2	43.430	0.210	-0.060	-0.480
2020/01/31 18:24:29.3	43.460	0.220	-0.010	-0.490
2020/01/31 18:24:29.4	43.490	0.230	0.050	-0.490
2020/01/31 18:24:29.5	43.510	0.230	0.100	-0.490
2020/01/31 18:24:29.6	43.530	0.240	0.160	-0.480
2020/01/31 18:24:29.7	43.550	0.230	0.220	-0.470
2020/01/31 18:24:29.8	43.570	0.230	0.270	-0.460
2020/01/31 18:24:29.9	43.580	0.220	0.320	-0.450
2020/01/31 18:24:30.0	43.590	0.210	0.370	-0.430
2020/01/31 18:24:30.1	43.600	0.190	0.420	-0.420
2020/01/31 18:24:30.2	43.610	0.180	0.470	-0.400
2020/01/31 18:24:30.3	43.610	0.160	0.510	-0.380
2020/01/31 18:24:30.4	43.620	0.130	0.560	-0.360
2020/01/31 18:24:30.5	43.620	0.110	0.590	-0.340
2020/01/31 18:24:30.6	43.620	0.080	0.620	-0.320
2020/01/31 18:24:30.7	43.620	0.050	0.650	-0.310
2020/01/31 18:24:30.8	43.640	0.020	0.670	-0.290
2020/01/31 18:24:30.9	43.640	-0.010	0.680	-0.280
2020/01/31 18:24:31.0	43.640	-0.040	0.690	-0.270
2020/01/31 18:24:31.1	43.650	-0.080	0.690	-0.260
2020/01/31 18:24:31.2	43.650	-0.110	0.690	-0.260
2020/01/31 18:24:31.3	43.660	-0.140	0.670	-0.250
2020/01/31 18:24:31.4	43.670	-0.180	0.660	-0.260
2020/01/31 18:24:31.5	43.680	-0.210	0.630	-0.260
2020/01/31 18:24:31.6	43.690	-0.240	0.600	-0.270
2020/01/31 18:24:31.7	43.710	-0.270	0.560	-0.280
2020/01/31 18:24:31.8	43.720	-0.300	0.520	-0.300
2020/01/31 18:24:31.9	43.740	-0.320	0.470	-0.320
2020/01/31 18:24:32.0	43.770	-0.350	0.420	-0.340
2020/01/31 18:24:32.1	43.790	-0.370	0.360	-0.370
2020/01/31 18:24:32.2	43.820	-0.390	0.300	-0.400
2020/01/31 18:24:32.3	43.850	-0.400	0.230	-0.430
2020/01/31 18:24:32.4	43.880	-0.410	0.170	-0.460
2020/01/31 18:24:32.5	43.910	-0.420	0.100	-0.500
2020/01/31 18:24:32.6	43.950	-0.430	0.030	-0.540
2020/01/31 18:24:32.7	43.990	-0.430	-0.030	-0.570
2020/01/31 18:24:32.8	44.020	-0.430	-0.100	-0.610
2020/01/31 18:24:32.9	44.060	-0.430	-0.170	-0.650
2020/01/31 18:24:33.0	44.100	-0.420	-0.230	-0.690
2020/01/31 18:24:33.1	44.140	-0.410	-0.290	-0.730
2020/01/31 18:24:33.2	44.180	-0.400	-0.340	-0.770
2020/01/31 18:24:33.3	44.220	-0.380	-0.390	-0.800
2020/01/31 18:24:33.4	44.260	-0.370	-0.440	-0.840
2020/01/31 18:24:33.5	44.300	-0.350	-0.480	-0.870
2020/01/31 18:24:33.6	44.340	-0.330	-0.510	-0.900
2020/01/31 18:24:33.7	44.380	-0.310	-0.540	-0.920
2020/01/31 18:24:33.8	44.420	-0.280	-0.570	-0.950
2020/01/31 18:24:33.9	44.450	-0.260	-0.580	-0.970
2020/01/31 18:24:34.0	44.490	-0.230	-0.600	-0.990
2020/01/31 18:24:34.1	44.520	-0.210	-0.600	-1.000
2020/01/31 18:24:34.2	44.550	-0.180	-0.600	-1.020
2020/01/31 18:24:34.3	44.580	-0.150	-0.600	-1.020
2020/01/31 18:24:34.4	44.610	-0.130	-0.590	-1.030
2020/01/31 18:24:34.5	44.640	-0.100	-0.580	-1.030
2020/01/31 18:24:34.6	44.670	-0.080	-0.560	-1.040
2020/01/31 18:24:34.7	44.690	-0.050	-0.550	-1.030
2020/01/31 18:24:34.8	44.730	-0.030	-0.530	-1.030
2020/01/31 18:24:34.9	44.750	-0.010	-0.510	-1.030
2020/01/31 18:24:35.0	44.780	0.010	-0.480	-1.020
2020/01/31 18:24:35.1	44.800	0.030	-0.460	-1.010
2020/01/31 18:24:35.2	44.820	0.050	-0.440	-1.000
2020/01/31 18:24:35.3	44.840	0.070	-0.420	-0.990
2020/01/31 18:24:35.4	44.870	0.080	-0.400	-0.990
2020/01/31 18:24:35.5	44.890	0.090	-0.380	-0.980
2020/01/31 18:24:35.6	44.910	0.110	-0.370	-0.970
2020/01/31 18:24:35.7	44.940	0.120	-0.360	-0.960
2020/01/31 18:24:35.8	44.960	0.130	-0.350	-0.950
2020/01/31 18:24:35.9	44.990	0.130	-0.350	-0.940
2020/01/31 18:24:36.0	45.020	0.140	-0.340	-0.930
2020/01/31 18:24:36.1	45.050	0.150	-0.350	-0.930
2020/01/31 18:24:36.2	45.080	0.150	-0.350	-0.920
2020/01/31 18:24:36.3	45.120	0.160	-0.360	-0.910
2020/01/31 18:24:36.4	45.150	0.160	-0.370	-0.910
2020/01/31 18:24:36.5	45.190	0.160	-0.380	-0.900
2020/01/31 18:24:36.6	45.230	0.160	-0.400	-0.900
2020/01/31 18:24:36.7	45.280	0.170	-0.420	-0.890
2020/01/31 18:24:36.8	45.330	0.170	-0.440	-0.880
2020/01/31 18:24:36.9	45.370	0.170	-0.460	-0.870
2020/01/31 18:24:37.0	45.420	0.170	-0.480	-0.870
2020/01/31 18:24:37.1	45.470	0.170	-0.500	-0.860
2020/01/31 18:24:37.2	45.520	0.170	-0.530	-0.840
2020/01/31 18:24:37.3	45.580	0.180	-0.550	-0.830
2020/01/31 18:24:37.4	45.630	0.180	-0.560	-0.810
2020/01/31 18:24:37.5	45.690	0.180	-0.580	-0.800
2020/01/31 18:24:37.6	45.750	0.180	-0.590	-0.780
2020/01/31 18:24:37.7	45.800	0.190	-0.600	-0.750
2020/01/31 18:24:37.8	45.850	0.190	-0.610	-0.730
2020/01/31 18:24:37.9	45.910	0.200	-0.620	-0.700
2020/01/31 18:24:38.0	45.970	0.200	-0.620	-0.670
2020/01/31 18:24:38.1	46.030	0.210	-0.620	-0.630
2020/01/31 18:24:38.2	46.090	0.210	-0.610	-0.600
2020/01/31 18:24:38.3	46.140	0.220	-0.600	-0.560
2020/01/31 18:24:38.4	46.200	0.230	-0.580	-0.520
2020/01/31 18:24:38.5	46.260	0.230	-0.560	-0.480
2020/01/31 18:24:38.6	46.320	0.240	-0.540	-0.430
2020/01/31 18:24:38.7	46.370	0.250	-0.510	-0.380
2020/01/31 18:24:38.8	46.430	0.260	-0.490	-0.330
2020/01/31 18:24:38.9	46.480	0.270	-0.450	-0.280
2020/01/31 18:24:39.0	46.530	0.270	-0.420	-0.220
2020/01/31 18:24:39.1	46.590	0.280	-0.380	-0.170
2020/01/31 18:24:39.2	46.640	0.290	-0.340	-0.110
2020/01/31 18:24:39.3	46.690	0.290	-0.300	-0.050
2020/01/31 18:24:39.4	46.740	0.300	-0.260	0.010
2020/01/31 18:24:39.5	46.780	0.300	-0.220	0.080
2020/01/31 18:24:39.6	46.820	0.310	-0.170	0.140
2020/01/31 18:24:39.7	46.870	0.310	-0.130	0.210
2020/01/31 18:24:39.8	46.890	0.310	-0.080	0.280
2020/01/31 18:24:39.9	46.930	0.310	-0.030	0.340
2020/01/31 18:24:40.0	46.960	0.310	0.010	0.410
2020/01/31 18:24:40.1	46.990	0.300	0.060	0.480
2020/01/31 18:24:40.2	47.010	0.300	0.100	0.550
2020/01/31 18:24:40.3	47.030	0.290	0.140	0.630
2020/01/31 18:24:40.4	47.050	0.280	0.180	0.700
2020/01/31 18:24:40.5	47.060	0.270	0.220	0.770
2020/01/31 18:24:40.6	47.070	0.260	0.260	0.830
2020/01/31 18:24:40.7	47.080	0.240	0.290	0.900
2020/01/31 18:24:40.8	47.090	0.220	0.320	0.970
2020/01/31 18:24:40.9	47.090	0.200	0.350	1.030
2020/01/31 18:24:41.0	47.090	0.180	0.380	1.090
2020/01/31 18:24:41.1	47.090	0.160	0.400	1.140
2020/01/31 18:24:41.2	47.090	0.130	0.420	1.200
2020/01/31 18:24:41.3	47.080	0.110	0.440	1.240
2020/01/31 18:24:41.4	47.080	0.080	0.460	1.280
2020/01/31 18:24:41.5	47.070	0.050	0.470	1.320
2020/01/31 18:24:41.6	47.070	0.020	0.470	1.350
2020/01/31 18:24:41.7	47.060	-0.010	0.470	1.370
2020/01/31 18:24:41.8	47.060	-0.040	0.470	1.390
2020/01/31 18:24:41.9	47.060	-0.080	0.460	1.390
2020/01/31 18:24:42.0	47.060	-0.110	0.450	1.390
2020/01/31 18:24:42.1	47.070	-0.150	0.430	1.380
2020/01/31 18:24:42.2	47.080	-0.180	0.410	1.360
2020/01/31 18:24:42.3	47.100	-0.210	0.380	1.330
2020/01/31 18:24:42.4	47.120	-0.240	0.350	1.300
2020/01/31 18:24:42.5	47.140	-0.280	0.320	1.250
2020/01/31 18:24:42.6	47.170	-0.310	0.270	1.190
2020/01/31 18:24:42.7	47.210	-0.340	0.230	1.130
2020/01/31 18:24:42.8	47.240	-0.360	0.180	1.050
2020/01/31 18:24:42.9	47.280	-0.390	0.130	0.970
2020/01/31 18:24:43.0	47.330	-0.410	0.070	0.880
2020/01/31 18:24:43.1	47.380	-0.430	0.020	0.780
2020/01/31 18:24:43.2	47.440	-0.450	-0.040	0.680
2020/01/31 18:24:43.3	47.500	-0.470	-0.100	0.570
2020/01/31 18:24:43.4	47.560	-0.480	-0.160	0.460
2020/01/31 18:24:43.5	47.620	-0.490	-0.210	0.340
2020/01/31 18:24:43.6	47.680	-0.500	-0.270	0.230
2020/01/31 18:24:43.7	47.750	-0.510	-0.330	0.110
2020/01/31 18:24:43.8	47.810	-0.510	-0.380	-0.010
2020/01/31 18:24:43.9	47.880	-0.510	-0.430	-0.130
2020/01/31 18:24:44.0	47.950	-0.510	-0.480	-0.250
2020/01/31 18:24:44.1	48.010	-0.500	-0.520	-0.370
2020/01/31 18:24:44.2	48.070	-0.490	-0.560	-0.480
2020/01/31 18:24:44.3	48.140	-0.480	-0.600	-0.590
2020/01/31 18:24:44.4	48.200	-0.460	-0.630	-0.690
2020/01/31 18:24:44.5	48.260	-0.450	-0.660	-0.800
2020/01/31 18:24:44.6	48.320	-0.420	-0.680	-0.900
2020/01/31 18:24:44.7	48.370	-0.400	-0.700	-0.990
2020/01/31 18:24:44.8	48.430	-0.370	-0.710	-1.080
2020/01/31 18:24:44.9	48.480	-0.340	-0.720	-1.160
2020/01/31 18:24:45.0	48.540	-0.310	-0.720	-1.230
2020/01/31 18:24:45.1	48.590	-0.270	-0.720	-1.300
2020/01/31 18:24:45.2	48.640	-0.240	-0.720	-1.370
2020/01/31 18:24:45.3	48.690	-0.200	-0.710	-1.420
2020/01/31 18:24:45.4	48.740	-0.160	-0.700	-1.480
2020/01/31 18:24:45.5	48.790	-0.110	-0.690	-1.520
2020/01/31 18:24:45.6	48.840	-0.070	-0.680	-1.560
2020/01/31 18:24:45.7	48.890	-0.020	-0.660	-1.590
2020/01/31 18:24:45.8	48.940	0.020	-0.640	-1.620
2020/01/31 18:24:45.9	48.990	0.070	-0.620	-1.650
2020/01/31 18:24:46.0	49.040	0.110	-0.600	-1.660
2020/01/31 18:24:46.1	49.090	0.160	-0.580	-1.680
2020/01/31 18:24:46.2	49.150	0.200	-0.550	-1.690
2020/01/31 18:24:46.3	49.200	0.250	-0.530	-1.700
2020/01/31 18:24:46.4	49.250	0.290	-0.500	-1.700
2020/01/31 18:24:46.5	49.310	0.330	-0.480	-1.690
2020/01/31 18:24:46.6	49.370	0.370	-0.450	-1.690
2020/01/31 18:24:46.7	49.430	0.400	-0.420	-1.680
2020/01/31 18:24:46.8	49.490	0.440	-0.400	-1.660
2020/01/31 18:24:46.9	49.550	0.470	-0.380	-1.640
2020/01/31 18:24:47.0	49.610	0.490	-0.350	-1.620
2020/01/31 18:24:47.1	49.670	0.520	-0.320	-1.590
2020/01/31 18:24:47.2	49.730	0.530	-0.290	-1.560
2020/01/31 18:24:47.3	49.790	0.550	-0.260	-1.520
2020/01/31 18:24:47.4	49.850	0.560	-0.230	-1.480
2020/01/31 18:24:47.5	49.900	0.560	-0.190	-1.440
2020/01/31 18:24:47.6	49.960	0.560	-0.160	-1.390
2020/01/31 18:24:47.7	50.020	0.560	-0.120	-1.330
2020/01/31 18:24:47.8	50.050	0.550	-0.090	-1.280
2020/01/31 18:24:47.9	50.100	0.530	-0.050	-1.210
2020/01/31 18:24:48.0	50.150	0.510	-0.010	-1.150
2020/01/31 18:24:48.1	50.200	0.480	0.030	-1.080
2020/01/31 18:24:48.2	50.240	0.460	0.070	-1.010
2020/01/31 18:24:48.3	50.280	0.420	0.100	-0.930
2020/01/31 18:24:48.4	50.330	0.380	0.140	-0.850
2020/01/31 18:24:48.5	50.360	0.340	0.180	-0.770
2020/01/31 18:24:48.6	50.400	0.290	0.220	-0.690
2020/01/31 18:24:48.7	50.440	0.250	0.250	-0.610
2020/01/31 18:24:48.8	50.460	0.190	0.290	-0.530
2020/01/31 18:24:48.9	50.490	0.140	0.320	-0.450
2020/01/31 18:24:49.0	50.520	0.080	0.350	-0.370
2020/01/31 18:24:49.1	50.550	0.030	0.380	-0.300
2020/01/31 18:24:49.2	50.580	-0.030	0.400	-0.230
2020/01/31 18:24:49.3	50.600	-0.090	0.430	-0.150
2020/01/31 18:24:49.4	50.630	-0.150	0.450	-0.090
2020/01/31 18:24:49.5	50.650	-0.210	0.460	-0.020
2020/01/31 18:24:49.6	50.670	-0.270	0.470	0.040
2020/01/31 18:24:49.7	50.700	-0.320	0.480	0.090
2020/01/31 18:24:49.8	50.710	-0.370	0.480	0.140
2020/01/31 18:24:49.9	50.730	-0.420	0.480	0.190
2020/01/31 18:24:50.0	50.750	-0.470	0.480	0.230
2020/01/31 18:24:50.1	50.770	-0.510	0.470	0.270
2020/01/31 18:24:50.2	50.790	-0.550	0.460	0.300
2020/01/31 18:24:50.3	50.810	-0.590	0.440	0.330
2020/01/31 18:24:50.4	50.830	-0.620	0.420	0.350
2020/01/31 18:24:50.5	50.850	-0.640	0.400	0.370
2020/01/31 18:24:50.6	50.870	-0.660	0.370	0.390
2020/01/31 18:24:50.7	50.890	-0.670	0.340	0.410
2020/01/31 18:24:50.8	50.900	-0.680	0.310	0.410
2020/01/31 18:24:50.9	50.920	-0.690	0.270	0.420
2020/01/31 18:24:51.0	50.940	-0.680	0.220	0.430
2020/01/31 18:24:51.1	50.960	-0.670	0.180	0.430
2020/01/31 18:24:51.2	50.990	-0.660	0.130	0.440
2020/01/31 18:24:51.3	51.010	-0.640	0.080	0.440
2020/01/31 18:24:51.4	51.030	-0.610	0.020	0.440
2020/01/31 18:24:51.5	51.060	-0.580	-0.040	0.430
2020/01/31 18:24:51.6	51.090	-0.550	-0.090	0.430
2020/01/31 18:24:51.7	51.120	-0.510	-0.150	0.420
2020/01/31 18:24:51.8	51.150	-0.460	-0.220	0.410
2020/01/31 18:24:51.9	51.180	-0.410	-0.280	0.400
2020/01/31 18:24:52.0	51.220	-0.360	-0.340	0.390
2020/01/31 18:24:52.1	51.260	-0.310	-0.410	0.380
2020/01/31 18:24:52.2	51.300	-0.250	-0.470	0.370
2020/01/31 18:24:52.3	51.340	-0.190	-0.540	0.350
2020/01/31 18:24:52.4	51.380	-0.120	-0.600	0.340
2020/01/31 18:24:52.5	51.430	-0.060	-0.660	0.320
2020/01/31 18:24:52.6	51.480	0.010	-0.720	0.310
2020/01/31 18:24:52.7	51.530	0.070	-0.780	0.290
2020/01/31 18:24:52.8	51.580	0.140	-0.840	0.270
2020/01/31 18:24:52.9	51.640	0.200	-0.890	0.250
2020/01/31 18:24:53.0	51.700	0.270	-0.950	0.230
2020/01/31 18:24:53.1	51.760	0.330	-1.000	0.210
2020/01/31 18:24:53.2	51.820	0.390	-1.050	0.180
2020/01/31 18:24:53.3	51.880	0.450	-1.100	0.160
2020/01/31 18:24:53.4	51.950	0.510	-1.140	0.130
2020/01/31 18:24:53.5	52.020	0.560	-1.170	0.110
2020/01/31 18:24:53.6	52.090	0.610	-1.210	0.080
2020/01/31 18:24:53.7	52.160	0.660	-1.240	0.050
2020/01/31 18:24:53.8	52.230	0.700	-1.260	0.030
2020/01/31 18:24:53.9	52.300	0.740	-1.280	0.000
2020/01/31 18:24:54.0	52.370	0.770	-1.290	-0.030
2020/01/31 18:24:54.1	52.450	0.800	-1.290	-0.060
2020/01/31 18:24:54.2	52.530	0.820	-1.290	-0.080
2020/01/31 18:24:54.3	52.600	0.830	-1.270	-0.110
2020/01/31 18:24:54.4	52.680	0.840	-1.250	-0.140
2020/01/31 18:24:54.5	52.750	0.840	-1.220	-0.160
2020/01/31 18:24:54.6	52.830	0.840	-1.190	-0.190
2020/01/31 18:24:54.7	52.900	0.830	-1.140	-0.210
2020/01/31 18:24:54.8	52.950	0.820	-1.090	-0.240
2020/01/31 18:24:54.9	53.020	0.800	-1.030	-0.260
2020/01/31 18:24:55.0	53.090	0.770	-0.960	-0.280
2020/01/31 18:24:55.1	53.150	0.730	-0.880	-0.290
2020/01/31 18:24:55.2	53.210	0.690	-0.800	-0.310
2020/01/31 18:24:55.3	53.260	0.650	-0.700	-0.330
2020/01/31 18:24:55.4	53.320	0.600	-0.610	-0.340
2020/01/31 18:24:55.5	53.370	0.540	-0.500	-0.350
2020/01/31 18:24:55.6	53.410	0.490	-0.390	-0.360
2020/01/31 18:24:55.7	53.450	0.420	-0.280	-0.370
2020/01/31 18:24:55.8	53.480	0.350	-0.170	-0.370
2020/01/31 18:24:55.9	53.510	0.280	-0.050	-0.370
2020/01/31 18:24:56.0	53.540	0.210	0.070	-0.370
2020/01/31 18:24:56.1	53.560	0.140	0.190	-0.370
2020/01/31 18:24:56.2	53.580	0.060	0.310	-0.360
2020/01/31 18:24:56.3	53.600	-0.020	0.430	-0.350
2020/01/31 18:24:56.4	53.620	-0.090	0.550	-0.340
2020/01/31 18:24:56.5	53.630	-0.170	0.660	-0.330
2020/01/31 18:24:56.6	53.640	-0.250	0.770	-0.320
2020/01/31 18:24:56.7	53.650	-0.320	0.870	-0.300
2020/01/31 18:24:56.8	53.660	-0.400	0.970	-0.290
2020/01/31 18:24:56.9	53.670	-0.470	1.060	-0.270
2020/01/31 18:24:57.0	53.670	-0.530	1.140	-0.260
2020/01/31 18:24:57.1	53.680	-0.600	1.210	-0.240
2020/01/31 18:24:57.2	53.690	-0.650	1.270	-0.230
2020/01/31 18:24:57.3	53.700	-0.710	1.320	-0.220
2020/01/31 18:24:57.4	53.710	-0.760	1.370	-0.210
2020/01/31 18:24:57.5	53.730	-0.800	1.400	-0.200
2020/01/31 18:24:57.6	53.750	-0.830	1.410	-0.190
2020/01/31 18:24:57.7	53.770	-0.860	1.420	-0.180
2020/01/31 18:24:57.8	53.790	-0.890	1.420	-0.180
2020/01/31 18:24:57.9	53.810	-0.900	1.400	-0.180
2020/01/31 18:24:58.0	53.840	-0.910	1.380	-0.180
2020/01/31 18:24:58.1	53.870	-0.920	1.340	-0.180
2020/01/31 18:24:58.2	53.910	-0.910	1.290	-0.190
2020/01/31 18:24:58.3	53.940	-0.900	1.230	-0.200
2020/01/31 18:24:58.4	53.980	-0.880	1.160	-0.210
2020/01/31 18:24:58.5	54.020	-0.860	1.090	-0.220
2020/01/31 18:24:58.6	54.070	-0.830	1.000	-0.230
2020/01/31 18:24:58.7	54.110	-0.800	0.910	-0.250
2020/01/31 18:24:58.8	54.160	-0.760	0.810	-0.260
2020/01/31 18:24:58.9	54.210	-0.710	0.710	-0.280
2020/01/31 18:24:59.0	54.260	-0.670	0.600	-0.300
2020/01/31 18:24:59.1	54.320	-0.610	0.490	-0.330
2020/01/31 18:24:59.2	54.370	-0.560	0.380	-0.350
2020/01/31 18:24:59.3	54.430	-0.500	0.260	-0.370
2020/01/31 18:24:59.4	54.490	-0.440	0.140	-0.400
2020/01/31 18:24:59.5	54.550	-0.380	0.020	-0.420
2020/01/31 18:24:59.6	54.620	-0.320	-0.100	-0.450
2020/01/31 18:24:59.7	54.680	-0.260	-0.210	-0.480
2020/01/31 18:24:59.8	54.750	-0.200	-0.330	-0.500
2020/01/31 18:24:59.9	54.810	-0.140	-0.440	-0.530
2020/01/31 18:25:00.0	54.870	-0.080	-0.550	-0.560
2020/01/31 18:25:00.1	54.940	-0.020	-0.660	-0.590
2020/01/31 18:25:00.2	55.000	0.040	-0.760	-0.620
2020/01/31 18:25:00.3	55.060	0.090	-0.850	-0.640
2020/01/31 18:25:00.4	55.120	0.150	-0.940	-0.670
2020/01/31 18:25:00.5	55.190	0.190	-1.020	-0.700
2020/01/31 18:25:00.6	55.250	0.240	-1.100	-0.720
2020/01/31 18:25:00.7	55.300	0.280	-1.160	-0.740
2020/01/31 18:25:00.8	55.350	0.320	-1.230	-0.770
2020/01/31 18:25:00.9	55.410	0.360	-1.280	-0.780
2020/01/31 18:25:01.0	55.460	0.390	-1.320	-0.800
2020/01/31 18:25:01.1	55.520	0.420	-1.360	-0.820
2020/01/31 18:25:01.2	55.570	0.440	-1.390	-0.830
2020/01/31 18:25:01.3	55.620	0.460	-1.410	-0.840
2020/01/31 18:25:01.4	55.670	0.480	-1.420	-0.840
2020/01/31 18:25:01.5	55.720	0.500	-1.420	-0.850
2020/01/31 18:25:01.6	55.760	0.510	-1.420	-0.850
2020/01/31 18:25:01.7	55.810	0.510	-1.410	-0.840
2020/01/31 18:25:01.8	55.840	0.520	-1.380	-0.840
2020/01/31 18:25:01.9	55.880	0.520	-1.360	-0.830
2020/01/31 18:25:02.0	55.930	0.520	-1.330	-0.820
2020/01/31 18:25:02.1	55.970	0.520	-1.290	-0.800
2020/01/31 18:25:02.2	56.010	0.520	-1.250	-0.790
2020/01/31 18:25:02.3	56.050	0.510	-1.210	-0.770
2020/01/31 18:25:02.4	56.100	0.500	-1.160	-0.750
2020/01/31 18:25:02.5	56.140	0.490	-1.110	-0.720
2020/01/31 18:25:02.6	56.180	0.480	-1.050	-0.700
2020/01/31 18:25:02.7	56.220	0.470	-1.000	-0.670
2020/01/31 18:25:02.8	56.270	0.460	-0.950	-0.640
2020/01/31 18:25:02.9	56.310	0.450	-0.890	-0.610
2020/01/31 18:25:03.0	56.350	0.440	-0.830	-0.580
2020/01/31 18:25:03.1	56.390	0.430	-0.770	-0.550
2020/01/31 18:25:03.2	56.440	0.420	-0.710	-0.520
2020/01/31 18:25:03.3	56.480	0.410	-0.650	-0.490
2020/01/31 18:25:03.4	56.520	0.400	-0.600	-0.460
2020/01/31 18:25:03.5	56.570	0.390	-0.540	-0.430
2020/01/31 18:25:03.6	56.610	0.380	-0.490	-0.390
2020/01/31 18:25:03.7	56.660	0.370	-0.430	-0.360
2020/01/31 18:25:03.8	56.710	0.360	-0.380	-0.330
2020/01/31 18:25:03.9	56.760	0.350	-0.330	-0.300
2020/01/31 18:25:04.0	56.800	0.340	-0.280	-0.270
2020/01/31 18:25:04.1	56.850	0.330	-0.230	-0.230
2020/01/31 18:25:04.2	56.900	0.330	-0.190	-0.200
2020/01/31 18:25:04.3	56.940	0.320	-0.140	-0.170
2020/01/31 18:25:04.4	56.990	0.310	-0.100	-0.130
2020/01/31 18:25:04.5	57.030	0.300	-0.060	-0.100
2020/01/31 18:25:04.6	57.070	0.300	-0.020	-0.060
2020/01/31 18:25:04.7	57.110	0.290	0.020	-0.030
2020/01/31 18:25:04.8	57.160	0.280	0.060	0.010
2020/01/31 18:25:04.9	57.200	0.270	0.090	0.050
2020/01/31 18:25:05.0	57.240	0.260	0.130	0.080
2020/01/31 18:25:05.1	57.280	0.240	0.170	0.110
2020/01/31 18:25:05.2	57.310	0.230	0.200	0.150
2020/01/31 18:25:05.3	57.350	0.210	0.240	0.180
2020/01/31 18:25:05.4	57.380	0.200	0.280	0.210
2020/01/31 18:25:05.5	57.420	0.180	0.310	0.240
2020/01/31 18:25:05.6	57.450	0.160	0.350	0.260
2020/01/31 18:25:05.7	57.480	0.140	0.380	0.290
2020/01/31 18:25:05.8	57.520	0.110	0.420	0.310
2020/01/31 18:25:05.9	57.550	0.080	0.460	0.330
2020/01/31 18:25:06.0	57.570	0.060	0.490	0.360
2020/01/31 18:25:06.1	57.600	0.020	0.530	0.380
2020/01/31 18:25:06.2	57.630	-0.010	0.560	0.390
2020/01/31 18:25:06.3	57.650	-0.040	0.600	0.410
2020/01/31 18:25:06.4	57.680	-0.080	0.630	0.420
2020/01/31 18:25:06.5	57.700	-0.120	0.660	0.430
2020/01/31 18:25:06.6	57.730	-0.150	0.700	0.440
2020/01/31 18:25:06.7	57.750	-0.190	0.730	0.440
2020/01/31 18:25:06.8	57.790	-0.230	0.750	0.450
2020/01/31 18:25:06.9	57.810	-0.280	0.780	0.450
2020/01/31 18:25:07.0	57.840	-0.320	0.800	0.440
2020/01/31 18:25:07.1	57.870	-0.360	0.820	0.440
2020/01/31 18:25:07.2	57.890	-0.400	0.830	0.420
2020/01/31 18:25:07.3	57.920	-0.440	0.840	0.410
2020/01/31 18:25:07.4	57.950	-0.480	0.840	0.390
2020/01/31 18:25:07.5	57.980	-0.520	0.840	0.370
2020/01/31 18:25:07.6	58.020	-0.550	0.830	0.340
2020/01/31 18:25:07.7	58.050	-0.590	0.820	0.310
2020/01/31 18:25:07.8	58.100	-0.620	0.790	0.270
2020/01/31 18:25:07.9	58.140	-0.650	0.770	0.230
2020/01/31 18:25:08.0	58.180	-0.680	0.740	0.190
2020/01/31 18:25:08.1	58.230	-0.700	0.700	0.150
2020/01/31 18:25:08.2	58.270	-0.720	0.650	0.100
2020/01/31 18:25:08.3	58.320	-0.740	0.600	0.040
2020/01/31 18:25:08.4	58.370	-0.750	0.550	-0.010
2020/01/31 18:25:08.5	58.430	-0.760	0.490	-0.070
2020/01/31 18:25:08.6	58.490	-0.760	0.420	-0.130
2020/01/31 18:25:08.7	58.550	-0.760	0.350	-0.190
2020/01/31 18:25:08.8	58.610	-0.750	0.270	-0.250
2020/01/31 18:25:08.9	58.670	-0.740	0.190	-0.310
2020/01/31 18:25:09.0	58.740	-0.730	0.100	-0.380
2020/01/31 18:25:09.1	58.810	-0.700	0.020	-0.440
2020/01/31 18:25:09.2	58.880	-0.680	-0.070	-0.510
2020/01/31 18:25:09.3	58.960	-0.650	-0.160	-0.570
2020/01/31 18:25:09.4	59.030	-0.610	-0.250	-0.630
2020/01/31 18:25:09.5	59.110	-0.570	-0.350	-0.690
2020/01/31 18:25:09.6	59.190	-0.520	-0.440	-0.750
2020/01/31 18:25:09.7	59.270	-0.470	-0.530	-0.810
2020/01/31 18:25:09.8	59.340	-0.420	-0.620	-0.860
2020/01/31 18:25:09.9	59.420	-0.370	-0.700	-0.920
2020/01/31 18:25:10.0	59.500	-0.310	-0.780	-0.970
2020/01/31 18:25:10.1	59.580	-0.240	-0.860	-1.010
2020/01/31 18:25:10.2	59.660	-0.180	-0.940	-1.050
2020/01/31 18:25:10.3	59.740	-0.120	-1.000	-1.090
2020/01/31 18:25:10.4	59.820	-0.050	-1.070	-1.130
2020/01/31 18:25:10.5	59.900	0.020	-1.120	-1.150
2020/01/31 18:25:10.6	59.970	0.080	-1.170	-1.180
2020/01/31 18:25:10.7	60.040	0.150	-1.210	-1.200
2020/01/31 18:25:10.8	60.120	0.210	-1.260	-1.210
2020/01/31 18:25:10.9	60.180	0.280	-1.280	-1.210
2020/01/31 18:25:11.0	60.250	0.340	-1.310	-1.220
2020/01/31 18:25:11.1	60.310	0.400	-1.320	-1.210
2020/01/31 18:25:11.2	60.360	0.450	-1.320	-1.200
2020/01/31 18:25:11.3	60.420	0.510	-1.320	-1.190
2020/01/31 18:25:11.4	60.460	0.550	-1.320	-1.170
2020/01/31 18:25:11.5	60.510	0.600	-1.300	-1.140
2020/01/31 18:25:11.6	60.550	0.640	-1.280	-1.110
2020/01/31 18:25:11.7	60.590	0.670	-1.250	-1.080
2020/01/31 18:25:11.8	60.640	0.700	-1.220	-1.040
2020/01/31 18:25:11.9	60.670	0.730	-1.180	-1.000
2020/01/31 18:25:12.0	60.710	0.750	-1.140	-0.960
2020/01/31 18:25:12.1	60.740	0.760	-1.090	-0.910
2020/01/31 18:25:12.2	60.770	0.770	-1.040	-0.870
2020/01/31 18:25:12.3	60.790	0.770	-0.980	-0.820
2020/01/31 18:25:12.4	60.820	0.770	-0.920	-0.770
2020/01/31 18:25:12.5	60.840	0.760	-0.850	-0.710
2020/01/31 18:25:12.6	60.870	0.750	-0.790	-0.660
2020/01/31 18:25:12.7	60.890	0.730	-0.720	-0.610
2020/01/31 18:25:12.8	60.910	0.710	-0.650	-0.550
2020/01/31 18:25:12.9	60.930	0.680	-0.570	-0.500
2020/01/31 18:25:13.0	60.950	0.650	-0.500	-0.450
2020/01/31 18:25:13.1	60.970	0.610	-0.420	-0.390
2020/01/31 18:25:13.2	60.990	0.580	-0.350	-0.340
2020/01/31 18:25:13.3	61.010	0.530	-0.270	-0.290
2020/01/31 18:25:13.4	61.040	0.490	-0.200	-0.240
2020/01/31 18:25:13.5	61.060	0.440	-0.120	-0.190
2020/01/31 18:25:13.6	61.080	0.390	-0.050	-0.140
2020/01/31 18:25:13.7	61.100	0.350	0.020	-0.100
2020/01/31 18:25:13.8	61.130	0.290	0.090	-0.050
2020/01/31 18:25:13.9	61.160	0.240	0.160	-0.010
2020/01/31 18:25:14.0	61.180	0.190	0.230	0.030
2020/01/31 18:25:14.1	61.210	0.140	0.290	0.070
2020/01/31 18:25:14.2	61.230	0.090	0.350	0.100
2020/01/31 18:25:14.3	61.260	0.050	0.400	0.130
2020/01/31 18:25:14.4	61.290	-0.000	0.460	0.160
2020/01/31 18:25:14.5	61.320	-0.050	0.500	0.190
2020/01/31 18:25:14.6	61.350	-0.090	0.540	0.210
2020/01/31 18:25:14.7	61.380	-0.130	0.580	0.220
2020/01/31 18:25:14.8	61.410	-0.160	0.610	0.230
2020/01/31 18:25:14.9	61.440	-0.200	0.640	0.240
2020/01/31 18:25:15.0	61.480	-0.230	0.660	0.250
2020/01/31 18:25:15.1	61.520	-0.250	0.670	0.250
2020/01/31 18:25:15.2	61.560	-0.280	0.680	0.250
2020/01/31 18:25:15.3	61.610	-0.300	0.680	0.250
2020/01/31 18:25:15.4	61.650	-0.310	0.670	0.240
2020/01/31 18:25:15.5	61.700	-0.320	0.660	0.230
2020/01/31 18:25:15.6	61.750	-0.330	0.650	0.220
2020/01/31 18:25:15.7	61.790	-0.340	0.630	0.210
2020/01/31 18:25:15.8	61.850	-0.340	0.600	0.200
2020/01/31 18:25:15.9	61.900	-0.340	0.570	0.190
2020/01/31 18:25:16.0	61.950	-0.340	0.530	0.170
2020/01/31 18:25:16.1	62.010	-0.330	0.490	0.160
2020/01/31 18:25:16.2	62.060	-0.320	0.440	0.150
2020/01/31 18:25:16.3	62.110	-0.310	0.390	0.130
2020/01/31 18:25:16.4	62.170	-0.300	0.340	0.120
2020/01/31 18:25:16.5	62.220	-0.280	0.290	0.110
2020/01/31 18:25:16.6	62.280	-0.270	0.230	0.090
2020/01/31 18:25:16.7	62.340	-0.250	0.170	0.080
2020/01/31 18:25:16.8	62.390	-0.230	0.120	0.070
2020/01/31 18:25:16.9	62.450	-0.210	0.060	0.050
2020/01/31 18:25:17.0	62.510	-0.200	-0.000	0.040
2020/01/31 18:25:17.1	62.570	-0.180	-0.060	0.030
2020/01/31 18:25:17.2	62.620	-0.160	-0.120	0.010
2020/01/31 18:25:17.3	62.680	-0.140	-0.170	-0.000
2020/01/31 18:25:17.4	62.740	-0.120	-0.230	-0.010
2020/01/31 18:25:17.5	62.800	-0.110	-0.280	-0.030
2020/01/31 18:25:17.6	62.860	-0.090	-0.330	-0.040
2020/01/31 18:25:17.7	62.920	-0.080	-0.370	-0.060
2020/01/31 18:25:17.8	62.970	-0.070	-0.410	-0.070
2020/01/31 18:25:17.9	63.030	-0.060	-0.450	-0.080
2020/01/31 18:25:18.0	63.080	-0.050	-0.490	-0.100
2020/01/31 18:25:18.1	63.140	-0.040	-0.510	-0.110
2020/01/31 18:25:18.2	63.190	-0.040	-0.540	-0.130
2020/01/31 18:25:18.3	63.250	-0.030	-0.560	-0.140
2020/01/31 18:25:18.4	63.300	-0.030	-0.580	-0.160
2020/01/31 18:25:18.5	63.350	-0.030	-0.590	-0.170
2020/01/31 18:25:18.6	63.390	-0.030	-0.600	-0.180
2020/01/31 18:25:18.7	63.440	-0.030	-0.600	-0.200
2020/01/31 18:25:18.8	63.480	-0.030	-0.600	-0.210
2020/01/31 18:25:18.9	63.520	-0.040	-0.600	-0.220
2020/01/31 18:25:19.0	63.570	-0.040	-0.590	-0.230
2020/01/31 18:25:19.1	63.610	-0.040	-0.570	-0.250
2020/01/31 18:25:19.2	63.640	-0.050	-0.560	-0.260
2020/01/31 18:25:19.3	63.680	-0.050	-0.540	-0.260
2020/01/31 18:25:19.4	63.720	-0.050	-0.520	-0.270
2020/01/31 18:25:19.5	63.750	-0.060	-0.500	-0.280
2020/01/31 18:25:19.6	63.790	-0.060	-0.470	-0.290
2020/01/31 18:25:19.7	63.820	-0.060	-0.450	-0.300
2020/01/31 18:25:19.8	63.850	-0.060	-0.420	-0.300
2020/01/31 18:25:19.9	63.880	-0.060	-0.400	-0.310
2020/01/31 18:25:20.0	63.920	-0.060	-0.370	-0.320
2020/01/31 18:25:20.1	63.950	-0.050	-0.340	-0.320
2020/01/31 18:25:20.2	63.990	-0.050	-0.320	-0.330
2020/01/31 18:25:20.3	64.020	-0.040	-0.290	-0.340
2020/01/31 18:25:20.4	64.060	-0.040	-0.270	-0.350
2020/01/31 18:25:20.5	64.090	-0.030	-0.240	-0.360
2020/01/31 18:25:20.6	64.130	-0.020	-0.220	-0.370
2020/01/31 18:25:20.7	64.170	-0.000	-0.210	-0.380
2020/01/31 18:25:20.8	64.200	0.010	-0.190	-0.390
2020/01/31 18:25:20.9	64.240	0.020	-0.170	-0.390
2020/01/31 18:25:21.0	64.280	0.040	-0.160	-0.400
2020/01/31 18:25:21.1	64.320	0.050	-0.150	-0.410
2020/01/31 18:25:21.2	64.370	0.070	-0.140	-0.410
2020/01/31 18:25:21.3	64.410	0.090	-0.140	-0.410
2020/01/31 18:25:21.4	64.450	0.110	-0.130	-0.410
2020/01/31 18:25:21.5	64.490	0.120	-0.130	-0.410
2020/01/31 18:25:21.6	64.530	0.140	-0.130	-0.410
2020/01/31 18:25:21.7	64.570	0.160	-0.130	-0.400
2020/01/31 18:25:21.8	64.600	0.180	-0.130	-0.390
2020/01/31 18:25:21.9	64.640	0.190	-0.130	-0.380
2020/01/31 18:25:22.0	64.680	0.210	-0.130	-0.370
2020/01/31 18:25:22.1	64.720	0.220	-0.140	-0.350
2020/01/31 18:25:22.2	64.760	0.230	-0.140	-0.340
2020/01/31 18:25:22.3	64.800	0.240	-0.140	-0.320
2020/01/31 18:25:22.4	64.840	0.250	-0.150	-0.300
2020/01/31 18:25:22.5	64.870	0.260	-0.150	-0.280
2020/01/31 18:25:22.6	64.910	0.270	-0.160	-0.250
2020/01/31 18:25:22.7	64.950	0.270	-0.160	-0.230
2020/01/31 18:25:22.8	64.980	0.270	-0.170	-0.200
2020/01/31 18:25:22.9	65.020	0.270	-0.170	-0.180
2020/01/31 18:25:23.0	65.050	0.270	-0.170	-0.150
2020/01/31 18:25:23.1	65.090	0.260	-0.170	-0.130
2020/01/31 18:25:23.2	65.120	0.260	-0.170	-0.110
2020/01/31 18:25:23.3	65.160	0.250	-0.170	-0.090
2020/01/31 18:25:23.4	65.190	0.230	-0.170	-0.070
2020/01/31 18:25:23.5	65.230	0.220	-0.170	-0.050
2020/01/31 18:25:23.6	65.270	0.200	-0.160	-0.040
2020/01/31 18:25:23.7	65.310	0.190	-0.160	-0.020
2020/01/31 18:25:23.8	65.340	0.170	-0.150	-0.010
2020/01/31 18:25:23.9	65.380	0.140	-0.150	-0.000
2020/01/31 18:25:24.0	65.420	0.120	-0.140	0.000
2020/01/31 18:25:24.1	65.460	0.090	-0.130	0.000
2020/01/31 18:25:24.2	65.500	0.070	-0.120	0.000
2020/01/31 18:25:24.3	65.540	0.040	-0.110	0.000
2020/01/31 18:25:24.4	65.580	0.010	-0.100	-0.000
2020/01/31 18:25:24.5	65.620	-0.020	-0.080	-0.010
2020/01/31 18:25:24.6	65.660	-0.050	-0.070	-0.020
2020/01/31 18:25:24.7	65.710	-0.080	-0.060	-0.030
2020/01/31 18:25:24.8	65.740	-0.110	-0.040	-0.040
2020/01/31 18:25:24.9	65.780	-0.150	-0.030	-0.060
2020/01/31 18:25:25.0	65.830	-0.180	-0.010	-0.070
2020/01/31 18:25:25.1	65.870	-0.200	0.000	-0.090
2020/01/31 18:25:25.2	65.910	-0.230	0.020	-0.110
2020/01/31 18:25:25.3	65.950	-0.260	0.030	-0.120
2020/01/31 18:25:25.4	65.990	-0.290	0.040	-0.140
2020/01/31 18:25:25.5	66.020	-0.310	0.060	-0.160
2020/01/31 18:25:25.6	66.060	-0.330	0.070	-0.170
2020/01/31 18:25:25.7	66.100	-0.350	0.080	-0.190
2020/01/31 18:25:25.8	66.130	-0.360	0.080	-0.200
2020/01/31 18:25:25.9	66.160	-0.370	0.090	-0.220
2020/01/31 18:25:26.0	66.200	-0.380	0.090	-0.230
2020/01/31 18:25:26.1	66.230	-0.390	0.090	-0.240
2020/01/31 18:25:26.2	66.270	-0.390	0.090	-0.250
2020/01/31 18:25:26.3	66.300	-0.390	0.080	-0.260
2020/01/31 18:25:26.4	66.340	-0.380	0.080	-0.270
2020/01/31 18:25:26.5	66.370	-0.370	0.060	-0.270
2020/01/31 18:25:26.6	66.410	-0.360	0.050	-0.280
2020/01/31 18:25:26.7	66.440	-0.340	0.030	-0.290
2020/01/31 18:25:26.8	66.480	-0.320	0.010	-0.290
2020/01/31 18:25:26.9	66.510	-0.300	-0.020	-0.290
2020/01/31 18:25:27.0	66.550	-0.270	-0.050	-0.290
2020/01/31 18:25:27.1	66.590	-0.240	-0.080	-0.300
2020/01/31 18:25:27.2	66.630	-0.210	-0.110	-0.300
2020/01/31 18:25:27.3	66.670	-0.170	-0.150	-0.300
2020/01/31 18:25:27.4	66.710	-0.130	-0.200	-0.300
2020/01/31 18:25:27.5	66.750	-0.090	-0.240	-0.300
2020/01/31 18:25:27.6	66.800	-0.050	-0.280	-0.300
2020/01/31 18:25:27.7	66.840	-0.000	-0.330	-0.300
2020/01/31 18:25:27.8	66.890	0.040	-0.380	-0.290
2020/01/31 18:25:27.9	66.930	0.090	-0.430	-0.290
2020/01/31 18:25:28.0	66.980	0.140	-0.480	-0.280
2020/01/31 18:25:28.1	67.030	0.180	-0.520	-0.280
2020/01/31 18:25:28.2	67.080	0.230	-0.570	-0.270
2020/01/31 18:25:28.3	67.130	0.270	-0.610	-0.260
2020/01/31 18:25:28.4	67.180	0.310	-0.650	-0.250
2020/01/31 18:25:28.5	67.230	0.350	-0.680	-0.230
2020/01/31 18:25:28.6	67.280	0.390	-0.710	-0.220
2020/01/31 18:25:28.7	67.330	0.430	-0.740	-0.200
2020/01/31 18:25:28.8	67.370	0.460	-0.760	-0.180
2020/01/31 18:25:28.9	67.420	0.490	-0.770	-0.160
2020/01/31 18:25:29.0	67.470	0.510	-0.780	-0.140
2020/01/31 18:25:29.1	67.510	0.530	-0.780	-0.110
2020/01/31 18:25:29.2	67.560	0.540	-0.770	-0.090
2020/01/31 18:25:29.3	67.600	0.560	-0.760	-0.060
2020/01/31 18:25:29.4	67.650	0.560	-0.740	-0.030
2020/01/31 18:25:29.5	67.690	0.560	-0.720	0.000
2020/01/31 18:25:29.6	67.730	0.560	-0.680	0.040
2020/01/31 18:25:29.7	67.760	0.550	-0.640	0.070
2020/01/31 18:25:29.8	67.810	0.540	-0.600	0.110
2020/01/31 18:25:29.9	67.850	0.520	-0.550	0.140
2020/01/31 18:25:30.0	67.880	0.500	-0.500	0.180
2020/01/31 18:25:30.1	67.910	0.470	-0.440	0.210
2020/01/31 18:25:30.2	67.940	0.440	-0.370	0.250
2020/01/31 18:25:30.3	67.970	0.410	-0.310	0.280
2020/01/31 18:25:30.4	67.990	0.370	-0.240	0.310
2020/01/31 18:25:30.5	68.020	0.330	-0.170	0.350
2020/01/31 18:25:30.6	68.040	0.280	-0.100	0.380
2020/01/31 18:25:30.7	68.060	0.240	-0.030	0.410
2020/01/31 18:25:30.8	68.070	0.190	0.040	0.430
2020/01/31 18:25:30.9	68.090	0.140	0.110	0.460
2020/01/31 18:25:31.0	68.110	0.090	0.180	0.480
2020/01/31 18:25:31.1	68.120	0.040	0.250	0.500
2020/01/31 18:25:31.2	68.140	-0.010	0.310	0.520
2020/01/31 18:25:31.3	68.150	-0.060	0.370	0.530
2020/01/31 18:25:31.4	68.160	-0.110	0.430	0.540
2020/01/31 18:25:31.5	68.170	-0.160	0.480	0.550
2020/01/31 18:25:31.6	68.190	-0.200	0.520	0.560
2020/01/31 18:25:31.7	68.200	-0.250	0.570	0.560
2020/01/31 18:25:31.8	68.210	-0.290	0.600	0.560
2020/01/31 18:25:31.9	68.220	-0.330	0.630	0.560
2020/01/31 18:25:32.0	68.230	-0.370	0.660	0.550
2020/01/31 18:25:32.1	68.240	-0.400	0.670	0.540
2020/01/31 18:25:32.2	68.250	-0.430	0.680	0.530
2020/01/31 18:25:32.3	68.260	-0.460	0.690	0.520
2020/01/31 18:25:32.4	68.280	-0.480	0.690	0.510
2020/01/31 18:25:32.5	68.290	-0.500	0.680	0.500
2020/01/31 18:25:32.6	68.300	-0.510	0.660	0.480
2020/01/31 18:25:32.7	68.310	-0.520	0.640	0.470
2020/01/31 18:25:32.8	68.330	-0.530	0.610	0.450
2020/01/31 18:25:32.9	68.340	-0.530	0.570	0.430
2020/01/31 18:25:33.0	68.360	-0.530	0.530	0.420
2020/01/31 18:25:33.1	68.380	-0.520	0.480	0.400
2020/01/31 18:25:33.2	68.400	-0.510	0.430	0.380
2020/01/31 18:25:33.3	68.420	-0.500	0.370	0.370
2020/01/31 18:25:33.4	68.440	-0.480	0.300	0.350
2020/01/31 18:25:33.5	68.460	-0.460	0.230	0.330
2020/01/31 18:25:33.6	68.490	-0.430	0.160	0.320
2020/01/31 18:25:33.7	68.520	-0.410	0.080	0.300
2020/01/31 18:25:33.8	68.540	-0.380	-0.000	0.280
2020/01/31 18:25:33.9	68.570	-0.340	-0.090	0.270
2020/01/31 18:25:34.0	68.600	-0.310	-0.170	0.250
2020/01/31 18:25:34.1	68.640	-0.270	-0.260	0.230
2020/01/31 18:25:34.2	68.680	-0.230	-0.340	0.220
2020/01/31 18:25:34.3	68.720	-0.190	-0.430	0.200
2020/01/31 18:25:34.4	68.760	-0.150	-0.510	0.180
2020/01/31 18:25:34.5	68.800	-0.110	-0.590	0.170
2020/01/31 18:25:34.6	68.850	-0.070	-0.670	0.150
2020/01/31 18:25:34.7	68.900	-0.030	-0.750	0.130
2020/01/31 18:25:34.8	68.950	0.010	-0.820	0.110
2020/01/31 18:25:34.9	69.000	0.040	-0.890	0.100
2020/01/31 18:25:35.0	69.050	0.080	-0.950	0.080
2020/01/31 18:25:35.1	69.100	0.110	-1.010	0.060
2020/01/31 18:25:35.2	69.150	0.140	-1.060	0.050
2020/01/31 18:25:35.3	69.210	0.170	-1.100	0.030
2020/01/31 18:25:35.4	69.260	0.200	-1.140	0.020
2020/01/31 18:25:35.5	69.310	0.220	-1.170	0.000
2020/01/31 18:25:35.6	69.360	0.240	-1.190	-0.010
2020/01/31 18:25:35.7	69.410	0.260	-1.200	-0.020
2020/01/31 18:25:35.8	69.470	0.270	-1.210	-0.030
2020/01/31 18:25:35.9	69.520	0.280	-1.210	-0.040
2020/01/31 18:25:36.0	69.570	0.290	-1.200	-0.050
2020/01/31 18:25:36.1	69.610	0.290	-1.180	-0.060
2020/01/31 18:25:36.2	69.660	0.290	-1.150	-0.060
2020/01/31 18:25:36.3	69.700	0.290	-1.120	-0.070
2020/01/31 18:25:36.4	69.740	0.280	-1.080	-0.070
2020/01/31 18:25:36.5	69.770	0.270	-1.030	-0.070
2020/01/31 18:25:36.6	69.810	0.260	-0.970	-0.070
2020/01/31 18:25:36.7	69.840	0.240	-0.910	-0.070
2020/01/31 18:25:36.8	69.870	0.220	-0.840	-0.060
2020/01/31 18:25:36.9	69.900	0.200	-0.770	-0.060
2020/01/31 18:25:37.0	69.920	0.180	-0.700	-0.050
2020/01/31 18:25:37.1	69.940	0.160	-0.620	-0.050
2020/01/31 18:25:37.2	69.960	0.130	-0.540	-0.040
2020/01/31 18:25:37.3	69.980	0.110	-0.450	-0.030
2020/01/31 18:25:37.4	69.990	0.080	-0.370	-0.030
2020/01/31 18:25:37.5	70.010	0.060	-0.280	-0.020
2020/01/31 18:25:37.6	70.020	0.030	-0.200	-0.010
2020/01/31 18:25:37.7	70.030	0.010	-0.110	-0.000
2020/01/31 18:25:37.8	70.030	-0.020	-0.020	0.000
2020/01/31 18:25:37.9	70.040	-0.040	0.060	0.010
2020/01/31 18:25:38.0	70.040	-0.060	0.140	0.010
2020/01/31 18:25:38.1	70.040	-0.090	0.220	0.020
2020/01/31 18:25:38.2	70.050	-0.110	0.300	0.030
2020/01/31 18:25:38.3	70.050	-0.120	0.370	0.030
2020/01/31 18:25:38.4	70.050	-0.140	0.440	0.040
2020/01/31 18:25:38.5	70.040	-0.150	0.500	0.040
2020/01/31 18:25:38.6	70.040	-0.160	0.560	0.040
2020/01/31 18:25:38.7	70.040	-0.170	0.620	0.050
2020/01/31 18:25:38.8	70.040	-0.180	0.660	0.050
2020/01/31 18:25:38.9	70.040	-0.180	0.700	0.050
2020/01/31 18:25:39.0	70.040	-0.190	0.740	0.050
2020/01/31 18:25:39.1	70.040	-0.190	0.780	0.050
2020/01/31 18:25:39.2	70.040	-0.180	0.800	0.050
2020/01/31 18:25:39.3	70.040	-0.180	0.820	0.050
2020/01/31 18:25:39.4	70.040	-0.170	0.830	0.040
2020/01/31 18:25:39.5	70.040	-0.160	0.840	0.040
2020/01/31 18:25:39.6	70.050	-0.150	0.840	0.040
2020/01/31 18:25:39.7	70.050	-0.140	0.840	0.030
2020/01/31 18:25:39.8	70.060	-0.120	0.830	0.030
2020/01/31 18:25:39.9	70.060	-0.110	0.810	0.030
2020/01/31 18:25:40.0	70.070	-0.090	0.780	0.020
2020/01/31 18:25:40.1	70.070	-0.070	0.750	0.020
2020/01/31 18:25:40.2	70.080	-0.050	0.710	0.010
2020/01/31 18:25:40.3	70.080	-0.030	0.670	0.010
2020/01/31 18:25:40.4	70.090	-0.010	0.620	-0.000
2020/01/31 18:25:40.5	70.100	0.010	0.570	-0.010
2020/01/31 18:25:40.6	70.110	0.030	0.510	-0.010
2020/01/31 18:25:40.7	70.120	0.050	0.450	-0.020
2020/01/31 18:25:40.8	70.130	0.070	0.370	-0.030
2020/01/31 18:25:40.9	70.140	0.090	0.300	-0.040
2020/01/31 18:25:41.0	70.160	0.110	0.220	-0.050
2020/01/31 18:25:41.1	70.170	0.130	0.140	-0.060
2020/01/31 18:25:41.2	70.190	0.150	0.060	-0.070
2020/01/31 18:25:41.3	70.210	0.170	-0.020	-0.080
2020/01/31 18:25:41.4	70.240	0.190	-0.110	-0.090
2020/01/31 18:25:41.5	70.260	0.210	-0.190	-0.110
2020/01/31 18:25:41.6	70.290	0.230	-0.280	-0.120
2020/01/31 18:25:41.7	70.310	0.240	-0.360	-0.140
2020/01/31 18:25:41.8	70.340	0.260	-0.440	-0.160
2020/01/31 18:25:41.9	70.380	0.270	-0.520	-0.170
2020/01/31 18:25:42.0	70.410	0.290	-0.600	-0.190
2020/01/31 18:25:42.1	70.440	0.300	-0.680	-0.210
2020/01/31 18:25:42.2	70.480	0.310	-0.750	-0.230
2020/01/31 18:25:42.3	70.520	0.320	-0.820	-0.240
2020/01/31 18:25:42.4	70.560	0.330	-0.880	-0.260
2020/01/31 18:25:42.5	70.600	0.340	-0.940	-0.270
2020/01/31 18:25:42.6	70.640	0.350	-0.990	-0.290
2020/01/31 18:25:42.7	70.680	0.350	-1.030	-0.300
2020/01/31 18:25:42.8	70.730	0.360	-1.080	-0.310
2020/01/31 18:25:42.9	70.770	0.360	-1.110	-0.320
2020/01/31 18:25:43.0	70.820	0.360	-1.130	-0.330
2020/01/31 18:25:43.1	70.860	0.370	-1.150	-0.330
2020/01/31 18:25:43.2	70.910	0.370	-1.160	-0.340
2020/01/31 18:25:43.3	70.950	0.370	-1.160	-0.330
2020/01/31 18:25:43.4	70.990	0.370	-1.160	-0.330
2020/01/31 18:25:43.5	71.040	0.360	-1.150	-0.320
2020/01/31 18:25:43.6	71.080	0.360	-1.130	-0.310
2020/01/31 18:25:43.7	71.120	0.360	-1.100	-0.290
2020/01/31 18:25:43.8	71.150	0.350	-1.070	-0.270
2020/01/31 18:25:43.9	71.190	0.340	-1.030	-0.240
2020/01/31 18:25:44.0	71.220	0.340	-0.990	-0.210
2020/01/31 18:25:44.1	71.250	0.330	-0.940	-0.180
2020/01/31 18:25:44.2	71.280	0.310	-0.880	-0.140
2020/01/31 18:25:44.3	71.310	0.300	-0.820	-0.100
2020/01/31 18:25:44.4	71.330	0.290	-0.760	-0.060
2020/01/31 18:25:44.5	71.350	0.270	-0.700	-0.010
2020/01/31 18:25:44.6	71.370	0.250	-0.630	0.040
2020/01/31 18:25:44.7	71.390	0.240	-0.560	0.100
2020/01/31 18:25:44.8	71.400	0.210	-0.480	0.160
2020/01/31 18:25:44.9	71.410	0.190	-0.410	0.210
2020/01/31 18:25:45.0	71.420	0.170	-0.340	0.270
2020/01/31 18:25:45.1	71.430	0.140	-0.260	0.340
2020/01/31 18:25:45.2	71.440	0.120	-0.190	0.400
2020/01/31 18:25:45.3	71.440	0.090	-0.120	0.460
2020/01/31 18:25:45.4	71.440	0.060	-0.050	0.530
2020/01/31 18:25:45.5	71.450	0.030	0.020	0.590
2020/01/31 18:25:45.6	71.450	-0.000	0.090	0.660
2020/01/31 18:25:45.7	71.450	-0.030	0.150	0.720
2020/01/31 18:25:45.8	71.450	-0.060	0.210	0.790
2020/01/31 18:25:45.9	71.440	-0.100	0.260	0.850
2020/01/31 18:25:46.0	71.440	-0.130	0.310	0.910
2020/01/31 18:25:46.1	71.430	-0.160	0.350	0.980
2020/01/31 18:25:46.2	71.430	-0.200	0.400	1.040
2020/01/31 18:25:46.3	71.420	-0.230	0.430	1.100
2020/01/31 18:25:46.4	71.410	-0.260	0.460	1.160
2020/01/31 18:25:46.5	71.400	-0.300	0.490	1.220
2020/01/31 18:25:46.6	71.390	-0.330	0.510	1.270
2020/01/31 18:25:46.7	71.370	-0.360	0.520	1.320
2020/01/31 18:25:46.8	71.360	-0.390	0.530	1.380
2020/01/31 18:25:46.9	71.350	-0.420	0.540	1.420
2020/01/31 18:25:47.0	71.330	-0.440	0.540	1.470
2020/01/31 18:25:47.1	71.320	-0.470	0.530	1.510
2020/01/31 18:25:47.2	71.310	-0.490	0.520	1.540
2020/01/31 18:25:47.3	71.290	-0.520	0.510	1.570
2020/01/31 18:25:47.4	71.280	-0.540	0.490	1.600
2020/01/31 18:25:47.5	71.270	-0.550	0.460	1.620
2020/01/31 18:25:47.6	71.260	-0.570	0.440	1.630
2020/01/31 18:25:47.7	71.260	-0.580	0.410	1.640
2020/01/31 18:25:47.8	71.260	-0.590	0.370	1.640
2020/01/31 18:25:47.9	71.250	-0.600	0.340	1.640
2020/01/31 18:25:48.0	71.250	-0.610	0.300	1.630
2020/01/31 18:25:48.1	71.260	-0.610	0.260	1.620
2020/01/31 18:25:48.2	71.260	-0.610	0.210	1.590
2020/01/31 18:25:48.3	71.270	-0.600	0.170	1.560
2020/01/31 18:25:48.4	71.290	-0.600	0.120	1.530
2020/01/31 18:25:48.5	71.300	-0.590	0.080	1.490
2020/01/31 18:25:48.6	71.320	-0.580	0.030	1.440
2020/01/31 18:25:48.7	71.340	-0.570	-0.010	1.390
2020/01/31 18:25:48.8	71.370	-0.550	-0.050	1.330
2020/01/31 18:25:48.9	71.390	-0.530	-0.100	1.270
2020/01/31 18:25:49.0	71.420	-0.510	-0.140	1.200
2020/01/31 18:25:49.1	71.460	-0.480	-0.180	1.130
2020/01/31 18:25:49.2	71.490	-0.460	-0.220	1.050
2020/01/31 18:25:49.3	71.530	-0.430	-0.250	0.980
2020/01/31 18:25:49.4	71.570	-0.400	-0.280	0.890
2020/01/31 18:25:49.5	71.610	-0.370	-0.320	0.810
2020/01/31 18:25:49.6	71.650	-0.340	-0.340	0.730
2020/01/31 18:25:49.7	71.690	-0.300	-0.370	0.640
2020/01/31 18:25:49.8	71.740	-0.270	-0.390	0.560
2020/01/31 18:25:49.9	71.790	-0.230	-0.410	0.470
2020/01/31 18:25:50.0	71.830	-0.190	-0.420	0.390
2020/01/31 18:25:50.1	71.870	-0.160	-0.440	0.310
2020/01/31 18:25:50.2	71.910	-0.120	-0.440	0.230
2020/01/31 18:25:50.3	71.940	-0.080	-0.450	0.150
2020/01/31 18:25:50.4	71.980	-0.050	-0.450	0.080
2020/01/31 18:25:50.5	72.010	-0.010	-0.450	0.010
2020/01/31 18:25:50.6	72.040	0.030	-0.450	-0.050
2020/01/31 18:25:50.7	72.070	0.060	-0.440	-0.120
2020/01/31 18:25:50.8	72.100	0.090	-0.430	-0.170
2020/01/31 18:25:50.9	72.120	0.130	-0.420	-0.220
2020/01/31 18:25:51.0	72.140	0.160	-0.410	-0.270
2020/01/31 18:25:51.1	72.160	0.190	-0.400	-0.320
2020/01/31 18:25:51.2	72.170	0.220	-0.380	-0.350
2020/01/31 18:25:51.3	72.180	0.240	-0.370	-0.390
2020/01/31 18:25:51.4	72.190	0.270	-0.350	-0.420
2020/01/31 18:25:51.5	72.200	0.290	-0.340	-0.440
2020/01/31 18:25:51.6	72.200	0.310	-0.320	-0.470
2020/01/31 18:25:51.7	72.200	0.330	-0.310	-0.480
2020/01/31 18:25:51.8	72.190	0.350	-0.290	-0.500
2020/01/31 18:25:51.9	72.190	0.360	-0.280	-0.510
2020/01/31 18:25:52.0	72.180	0.380	-0.270	-0.510
2020/01/31 18:25:52.1	72.180	0.390	-0.260	-0.520
2020/01/31 18:25:52.2	72.170	0.400	-0.250	-0.520
2020/01/31 18:25:52.3	72.160	0.410	-0.240	-0.520
2020/01/31 18:25:52.4	72.160	0.420	-0.230	-0.510
2020/01/31 18:25:52.5	72.150	0.420	-0.230	-0.510
2020/01/31 18:25:52.6	72.140	0.430	-0.230	-0.500
2020/01/31 18:25:52.7	72.130	0.430	-0.230	-0.500
2020/01/31 18:25:52.8	72.110	0.430	-0.230	-0.490
2020/01/31 18:25:52.9	72.100	0.430	-0.230	-0.480
2020/01/31 18:25:53.0	72.090	0.430	-0.240	-0.470
2020/01/31 18:25:53.1	72.080	0.430	-0.250	-0.460
2020/01/31 18:25:53.2	72.070	0.420	-0.260	-0.450
2020/01/31 18:25:53.3	72.070	0.420	-0.270	-0.440
2020/01/31 18:25:53.4	72.060	0.410	-0.290	-0.430
2020/01/31 18:25:53.5	72.050	0.410	-0.310	-0.420
2020/01/31 18:25:53.6	72.050	0.400	-0.320	-0.420
2020/01/31 18:25:53.7	72.050	0.390	-0.350	-0.410
2020/01/31 18:25:53.8	72.050	0.380	-0.370	-0.400
2020/01/31 18:25:53.9	72.050	0.370	-0.390	-0.390
2020/01/31 18:25:54.0	72.050	0.360	-0.410	-0.380
2020/01/31 18:25:54.1	72.060	0.350	-0.440	-0.380
2020/01/31 18:25:54.2	72.060	0.340	-0.460	-0.370
2020/01/31 18:25:54.3	72.070	0.330	-0.480	-0.370
2020/01/31 18:25:54.4	72.070	0.310	-0.500	-0.370
2020/01/31 18:25:54.5	72.080	0.300	-0.520	-0.360
2020/01/31 18:25:54.6	72.090	0.290	-0.540	-0.360
2020/01/31 18:25:54.7	72.100	0.270	-0.560	-0.350
2020/01/31 18:25:54.8	72.110	0.250	-0.580	-0.350
2020/01/31 18:25:54.9	72.120	0.240	-0.590	-0.350
2020/01/31 18:25:55.0	72.120	0.220	-0.600	-0.340
2020/01/31 18:25:55.1	72.130	0.200	-0.600	-0.330
2020/01/31 18:25:55.2	72.140	0.180	-0.610	-0.320
2020/01/31 18:25:55.3	72.140	0.160	-0.600	-0.310
2020/01/31 18:25:55.4	72.150	0.140	-0.600	-0.300
2020/01/31 18:25:55.5	72.150	0.120	-0.590	-0.290
2020/01/31 18:25:55.6	72.160	0.100	-0.580	-0.280
2020/01/31 18:25:55.7	72.160	0.070	-0.560	-0.260
2020/01/31 18:25:55.8	72.160	0.050	-0.540	-0.250
2020/01/31 18:25:55.9	72.160	0.030	-0.510	-0.230
2020/01/31 18:25:56.0	72.160	0.010	-0.480	-0.210
2020/01/31 18:25:56.1	72.160	-0.020	-0.450	-0.190
2020/01/31 18:25:56.2	72.160	-0.040	-0.410	-0.180
2020/01/31 18:25:56.3	72.160	-0.060	-0.370	-0.160
2020/01/31 18:25:56.4	72.160	-0.090	-0.330	-0.140
2020/01/31 18:25:56.5	72.160	-0.110	-0.280	-0.120
2020/01/31 18:25:56.6	72.160	-0.130	-0.230	-0.100
2020/01/31 18:25:56.7	72.160	-0.160	-0.180	-0.080
2020/01/31 18:25:56.8	72.160	-0.180	-0.130	-0.060
2020/01/31 18:25:56.9	72.170	-0.200	-0.070	-0.040
2020/01/31 18:25:57.0	72.170	-0.220	-0.020	-0.020
2020/01/31 18:25:57.1	72.170	-0.240	0.040	-0.000
2020/01/31 18:25:57.2	72.170	-0.250	0.100	0.020
2020/01/31 18:25:57.3	72.180	-0.270	0.150	0.030
2020/01/31 18:25:57.4	72.180	-0.290	0.210	0.050
2020/01/31 18:25:57.5	72.190	-0.300	0.260	0.070
2020/01/31 18:25:57.6	72.190	-0.310	0.310	0.090
2020/01/31 18:25:57.7	72.200	-0.330	0.370	0.110
2020/01/31 18:25:57.8	72.210	-0.340	0.410	0.130
2020/01/31 18:25:57.9	72.210	-0.340	0.460	0.150
2020/01/31 18:25:58.0	72.220	-0.350	0.510	0.170
2020/01/31 18:25:58.1	72.220	-0.360	0.550	0.200
2020/01/31 18:25:58.2	72.220	-0.360	0.580	0.220
2020/01/31 18:25:58.3	72.230	-0.360	0.620	0.240
2020/01/31 18:25:58.4	72.230	-0.360	0.650	0.270
2020/01/31 18:25:58.5	72.230	-0.360	0.670	0.300
2020/01/31 18:25:58.6	72.230	-0.360	0.690	0.330
2020/01/31 18:25:58.7	72.230	-0.350	0.710	0.350
2020/01/31 18:25:58.8	72.220	-0.350	0.720	0.380
2020/01/31 18:25:58.9	72.220	-0.340	0.730	0.410
2020/01/31 18:25:59.0	72.210	-0.330	0.730	0.450
2020/01/31 18:25:59.1	72.210	-0.320	0.730	0.480
2020/01/31 18:25:59.2	72.200	-0.310	0.720	0.510
2020/01/31 18:25:59.3	72.190	-0.300	0.700	0.540
2020/01/31 18:25:59.4	72.180	-0.290	0.680	0.570
2020/01/31 18:25:59.5	72.180	-0.270	0.650	0.600
2020/01/31 18:25:59.6	72.170	-0.260	0.620	0.630
2020/01/31 18:25:59.7	72.160	-0.240	0.580	0.650
2020/01/31 18:25:59.8	72.160	-0.220	0.540	0.680
2020/01/31 18:25:59.9	72.150	-0.200	0.490	0.710
2020/01/31 18:26:00.0	72.140	-0.190	0.430	0.730
2020/01/31 18:26:00.1	72.130	-0.170	0.370	0.740
2020/01/31 18:26:00.2	72.130	-0.150	0.310	0.760
2020/01/31 18:26:00.3	72.120	-0.130	0.240	0.770
2020/01/31 18:26:00.4	72.120	-0.100	0.170	0.780
2020/01/31 18:26:00.5	72.120	-0.080	0.090	0.790
2020/01/31 18:26:00.6	72.110	-0.060	0.010	0.800
2020/01/31 18:26:00.7	72.110	-0.040	-0.070	0.800
2020/01/31 18:26:00.8	72.130	-0.020	-0.150	0.800
2020/01/31 18:26:00.9	72.130	0.000	-0.230	0.800
2020/01/31 18:26:01.0	72.140	0.030	-0.310	0.800
2020/01/31 18:26:01.1	72.140	0.050	-0.400	0.790
2020/01/31 18:26:01.2	72.150	0.070	-0.480	0.790
2020/01/31 18:26:01.3	72.160	0.090	-0.560	0.780
2020/01/31 18:26:01.4	72.170	0.120	-0.640	0.770
2020/01/31 18:26:01.5	72.180	0.140	-0.720	0.760
2020/01/31 18:26:01.6	72.200	0.160	-0.800	0.760
2020/01/31 18:26:01.7	72.210	0.180	-0.870	0.750
2020/01/31 18:26:01.8	72.220	0.200	-0.940	0.740
2020/01/31 18:26:01.9	72.240	0.230	-1.000	0.740
2020/01/31 18:26:02.0	72.250	0.250	-1.060	0.730
2020/01/31 18:26:02.1	72.270	0.270	-1.110	0.730
2020/01/31 18:26:02.2	72.280	0.290	-1.160	0.720
2020/01/31 18:26:02.3	72.300	0.310	-1.200	0.720
2020/01/31 18:26:02.4	72.310	0.320	-1.240	0.720
2020/01/31 18:26:02.5	72.320	0.340	-1.270	0.720
2020/01/31 18:26:02.6	72.340	0.350	-1.290	0.720
2020/01/31 18:26:02.7	72.350	0.370	-1.310	0.720
2020/01/31 18:26:02.8	72.370	0.380	-1.310	0.710
2020/01/31 18:26:02.9	72.390	0.390	-1.310	0.710
2020/01/31 18:26:03.0	72.400	0.400	-1.310	0.710
2020/01/31 18:26:03.1	72.410	0.410	-1.300	0.710
2020/01/31 18:26:03.2	72.430	0.410	-1.280	0.710
2020/01/31 18:26:03.3	72.440	0.410	-1.260	0.710
2020/01/31 18:26:03.4	72.460	0.410	-1.230	0.700
2020/01/31 18:26:03.5	72.470	0.400	-1.200	0.700
2020/01/31 18:26:03.6	72.490	0.400	-1.160	0.690
2020/01/31 18:26:03.7	72.500	0.390	-1.110	0.680
2020/01/31 18:26:03.8	72.520	0.370	-1.060	0.670
2020/01/31 18:26:03.9	72.530	0.360	-1.000	0.660
2020/01/31 18:26:04.0	72.550	0.340	-0.940	0.640
2020/01/31 18:26:04.1	72.560	0.320	-0.870	0.630
2020/01/31 18:26:04.2	72.570	0.290	-0.800	0.610
2020/01/31 18:26:04.3	72.580	0.270	-0.730	0.600
2020/01/31 18:26:04.4	72.590	0.240	-0.650	0.580
2020/01/31 18:26:04.5	72.600	0.200	-0.570	0.560
2020/01/31 18:26:04.6	72.610	0.170	-0.490	0.550
2020/01/31 18:26:04.7	72.610	0.130	-0.400	0.530
2020/01/31 18:26:04.8	72.610	0.090	-0.310	0.520
2020/01/31 18:26:04.9	72.610	0.050	-0.220	0.500
2020/01/31 18:26:05.0	72.610	0.010	-0.130	0.490
2020/01/31 18:26:05.1	72.610	-0.030	-0.040	0.480
2020/01/31 18:26:05.2	72.600	-0.080	0.050	0.480
2020/01/31 18:26:05.3	72.590	-0.120	0.140	0.470
2020/01/31 18:26:05.4	72.580	-0.170	0.230	0.470
2020/01/31 18:26:05.5	72.560	-0.210	0.320	0.470
2020/01/31 18:26:05.6	72.550	-0.260	0.410	0.480
2020/01/31 18:26:05.7	72.520	-0.300	0.500	0.480
2020/01/31 18:26:05.8	72.510	-0.350	0.590	0.490
2020/01/31 18:26:05.9	72.480	-0.390	0.670	0.500
2020/01/31 18:26:06.0	72.450	-0.430	0.740	0.510
2020/01/31 18:26:06.1	72.420	-0.470	0.810	0.520
2020/01/31 18:26:06.2	72.390	-0.510	0.880	0.530
2020/01/31 18:26:06.3	72.350	-0.550	0.940	0.540
2020/01/31 18:26:06.4	72.310	-0.580	1.000	0.550
2020/01/31 18:26:06.5	72.270	-0.610	1.040	0.570
2020/01/31 18:26:06.6	72.230	-0.640	1.080	0.580
2020/01/31 18:26:06.7	72.190	-0.670	1.120	0.590
2020/01/31 18:26:06.8	72.150	-0.690	1.140	0.600
2020/01/31 18:26:06.9	72.110	-0.710	1.150	0.610
2020/01/31 18:26:07.0	72.060	-0.720	1.160	0.620
2020/01/31 18:26:07.1	72.020	-0.740	1.160	0.620
2020/01/31 18:26:07.2	71.970	-0.740	1.150	0.620
2020/01/31 18:26:07.3	71.930	-0.750	1.130	0.620
2020/01/31 18:26:07.4	71.890	-0.740	1.100	0.620
2020/01/31 18:26:07.5	71.850	-0.740	1.060	0.610
2020/01/31 18:26:07.6	71.820	-0.730	1.010	0.600
2020/01/31 18:26:07.7	71.780	-0.710	0.960	0.590
2020/01/31 18:26:07.8	71.750	-0.690	0.900	0.570
2020/01/31 18:26:07.9	71.720	-0.670	0.830	0.550
2020/01/31 18:26:08.0	71.690	-0.640	0.750	0.520
2020/01/31 18:26:08.1	71.670	-0.610	0.660	0.490
2020/01/31 18:26:08.2	71.650	-0.580	0.570	0.460
2020/01/31 18:26:08.3	71.640	-0.540	0.480	0.420
2020/01/31 18:26:08.4	71.630	-0.500	0.380	0.370
2020/01/31 18:26:08.5	71.620	-0.450	0.270	0.330
2020/01/31 18:26:08.6	71.610	-0.400	0.160	0.280
2020/01/31 18:26:08.7	71.610	-0.350	0.060	0.220
2020/01/31 18:26:08.8	71.610	-0.300	-0.060	0.170
2020/01/31 18:26:08.9	71.620	-0.250	-0.170	0.110
2020/01/31 18:26:09.0	71.620	-0.190	-0.280	0.050
2020/01/31 18:26:09.1	71.630	-0.130	-0.390	-0.010
2020/01/31 18:26:09.2	71.640	-0.080	-0.500	-0.080
2020/01/31 18:26:09.3	71.660	-0.020	-0.600	-0.140
2020/01/31 18:26:09.4	71.670	0.040	-0.700	-0.200
2020/01/31 18:26:09.5	71.680	0.100	-0.800	-0.260
2020/01/31 18:26:09.6	71.700	0.150	-0.890	-0.320
2020/01/31 18:26:09.7	71.710	0.210	-0.980	-0.380
2020/01/31 18:26:09.8	71.730	0.260	-1.060	-0.430
2020/01/31 18:26:09.9	71.750	0.320	-1.140	-0.490
2020/01/31 18:26:10.0	71.760	0.370	-1.200	-0.540
2020/01/31 18:26:10.1	71.770	0.410	-1.260	-0.590
2020/01/31 18:26:10.2	71.780	0.460	-1.310	-0.640
2020/01/31 18:26:10.3	71.790	0.500	-1.350	-0.680
2020/01/31 18:26:10.4	71.800	0.530	-1.380	-0.720
2020/01/31 18:26:10.5	71.800	0.570	-1.410	-0.760
2020/01/31 18:26:10.6	71.810	0.600	-1.430	-0.790
2020/01/31 18:26:10.7	71.810	0.620	-1.430	-0.820
2020/01/31 18:26:10.8	71.810	0.640	-1.430	-0.850
2020/01/31 18:26:10.9	71.810	0.660	-1.420	-0.870
2020/01/31 18:26:11.0	71.810	0.670	-1.410	-0.890
2020/01/31 18:26:11.1	71.800	0.680	-1.380	-0.910
2020/01/31 18:26:11.2	71.800	0.690	-1.350	-0.930
2020/01/31 18:26:11.3	71.790	0.690	-1.310	-0.940
2020/01/31 18:26:11.4	71.780	0.690	-1.270	-0.950
2020/01/31 18:26:11.5	71.770	0.680	-1.220	-0.950
2020/01/31 18:26:11.6	71.760	0.670	-1.170	-0.950
2020/01/31 18:26:11.7	71.750	0.650	-1.110	-0.950
2020/01/31 18:26:11.8	71.740	0.640	-1.040	-0.950
2020/01/31 18:26:11.9	71.720	0.620	-0.970	-0.950
2020/01/31 18:26:12.0	71.710	0.590	-0.910	-0.940
2020/01/31 18:26:12.1	71.690	0.570	-0.830	-0.930
2020/01/31 18:26:12.2	71.670	0.540	-0.760	-0.920
2020/01/31 18:26:12.3	71.660	0.510	-0.680	-0.900
2020/01/31 18:26:12.4	71.640	0.470	-0.610	-0.890
2020/01/31 18:26:12.5	71.620	0.440	-0.530	-0.870
2020/01/31 18:26:12.6	71.600	0.400	-0.450	-0.840
2020/01/31 18:26:12.7	71.590	0.360	-0.380	-0.820
2020/01/31 18:26:12.8	71.570	0.330	-0.300	-0.800
2020/01/31 18:26:12.9	71.550	0.290	-0.230	-0.770
2020/01/31 18:26:13.0	71.540	0.250	-0.160	-0.740
2020/01/31 18:26:13.1	71.520	0.210	-0.090	-0.710
2020/01/31 18:26:13.2	71.510	0.180	-0.020	-0.670
2020/01/31 18:26:13.3	71.500	0.140	0.040	-0.640
2020/01/31 18:26:13.4	71.480	0.100	0.100	-0.600
2020/01/31 18:26:13.5	71.470	0.070	0.160	-0.570
2020/01/31 18:26:13.6	71.460	0.040	0.210	-0.530
2020/01/31 18:26:13.7	71.450	0.010	0.260	-0.490
2020/01/31 18:26:13.8	71.440	-0.020	0.310	-0.450
2020/01/31 18:26:13.9	71.430	-0.050	0.350	-0.410
2020/01/31 18:26:14.0	71.420	-0.070	0.390	-0.370
2020/01/31 18:26:14.1	71.410	-0.090	0.420	-0.330
2020/01/31 18:26:14.2	71.400	-0.110	0.450	-0.290
2020/01/31 18:26:14.3	71.390	-0.130	0.480	-0.240
2020/01/31 18:26:14.4	71.380	-0.140	0.500	-0.190
2020/01/31 18:26:14.5	71.370	-0.160	0.520	-0.140
2020/01/31 18:26:14.6	71.360	-0.170	0.540	-0.090
2020/01/31 18:26:14.7	71.350	-0.170	0.560	-0.040
2020/01/31 18:26:14.8	71.340	-0.180	0.570	0.010
2020/01/31 18:26:14.9	71.320	-0.180	0.580	0.070
2020/01/31 18:26:15.0	71.310	-0.180	0.590	0.130
2020/01/31 18:26:15.1	71.300	-0.180	0.600	0.200
2020/01/31 18:26:15.2	71.280	-0.180	0.600	0.260
2020/01/31 18:26:15.3	71.270	-0.170	0.600	0.330
2020/01/31 18:26:15.4	71.250	-0.170	0.600	0.400
2020/01/31 18:26:15.5	71.230	-0.160	0.600	0.470
2020/01/31 18:26:15.6	71.220	-0.150	0.590	0.540
2020/01/31 18:26:15.7	71.200	-0.140	0.580	0.620
2020/01/31 18:26:15.8	71.190	-0.140	0.570	0.700
2020/01/31 18:26:15.9	71.170	-0.130	0.550	0.770
2020/01/31 18:26:16.0	71.150	-0.120	0.540	0.850
2020/01/31 18:26:16.1	71.130	-0.110	0.520	0.920
2020/01/31 18:26:16.2	71.110	-0.110	0.490	1.000
2020/01/31 18:26:16.3	71.090	-0.100	0.470	1.070
2020/01/31 18:26:16.4	71.070	-0.100	0.440	1.140
2020/01/31 18:26:16.5	71.050	-0.100	0.410	1.210
2020/01/31 18:26:16.6	71.030	-0.100	0.370	1.280
2020/01/31 18:26:16.7	71.010	-0.100	0.330	1.350
2020/01/31 18:26:16.8	70.990	-0.100	0.290	1.410
2020/01/31 18:26:16.9	70.970	-0.110	0.250	1.480
2020/01/31 18:26:17.0	70.950	-0.110	0.210	1.530
2020/01/31 18:26:17.1	70.940	-0.120	0.170	1.590
2020/01/31 18:26:17.2	70.920	-0.130	0.120	1.640
2020/01/31 18:26:17.3	70.900	-0.140	0.080	1.690
2020/01/31 18:26:17.4	70.880	-0.160	0.030	1.730
2020/01/31 18:26:17.5	70.860	-0.170	-0.010	1.770
2020/01/31 18:26:17.6	70.840	-0.190	-0.060	1.810
2020/01/31 18:26:17.7	70.820	-0.200	-0.110	1.840
2020/01/31 18:26:17.8	70.810	-0.220	-0.150	1.870
2020/01/31 18:26:17.9	70.790	-0.240	-0.200	1.890
2020/01/31 18:26:18.0	70.770	-0.260	-0.240	1.910
2020/01/31 18:26:18.1	70.740	-0.280	-0.280	1.930
2020/01/31 18:26:18.2	70.720	-0.290	-0.330	1.940
2020/01/31 18:26:18.3	70.700	-0.310	-0.370	1.950
2020/01/31 18:26:18.4	70.670	-0.320	-0.410	1.950
2020/01/31 18:26:18.5	70.650	-0.340	-0.450	1.950
2020/01/31 18:26:18.6	70.620	-0.350	-0.480	1.940
2020/01/31 18:26:18.7	70.600	-0.360	-0.520	1.930
2020/01/31 18:26:18.8	70.580	-0.370	-0.550	1.920
2020/01/31 18:26:18.9	70.550	-0.370	-0.590	1.900
2020/01/31 18:26:19.0	70.520	-0.380	-0.620	1.880
2020/01/31 18:26:19.1	70.500	-0.380	-0.640	1.860
2020/01/31 18:26:19.2	70.470	-0.370	-0.670	1.830
2020/01/31 18:26:19.3	70.440	-0.360	-0.700	1.800
2020/01/31 18:26:19.4	70.420	-0.350	-0.720	1.760
2020/01/31 18:26:19.5	70.400	-0.340	-0.740	1.720
2020/01/31 18:26:19.6	70.380	-0.320	-0.760	1.680
2020/01/31 18:26:19.7	70.360	-0.300	-0.770	1.630
2020/01/31 18:26:19.8	70.350	-0.270	-0.780	1.580
2020/01/31 18:26:19.9	70.330	-0.250	-0.790	1.530
2020/01/31 18:26:20.0	70.320	-0.220	-0.800	1.470
2020/01/31 18:26:20.1	70.310	-0.180	-0.800	1.410
2020/01/31 18:26:20.2	70.300	-0.150	-0.800	1.350
2020/01/31 18:26:20.3	70.290	-0.110	-0.800	1.290
2020/01/31 18:26:20.4	70.280	-0.080	-0.790	1.220
2020/01/31 18:26:20.5	70.270	-0.040	-0.780	1.150
2020/01/31 18:26:20.6	70.260	0.000	-0.770	1.080
2020/01/31 18:26:20.7	70.260	0.040	-0.750	1.020
2020/01/31 18:26:20.8	70.250	0.080	-0.730	0.940
2020/01/31 18:26:20.9	70.250	0.120	-0.710	0.870
2020/01/31 18:26:21.0	70.240	0.150	-0.680	0.800
2020/01/31 18:26:21.1	70.230	0.180	-0.640	0.730
2020/01/31 18:26:21.2	70.220	0.210	-0.610	0.660
2020/01/31 18:26:21.3	70.210	0.240	-0.570	0.590
2020/01/31 18:26:21.4	70.200	0.270	-0.520	0.520
2020/01/31 18:26:21.5	70.180	0.290	-0.480	0.450
2020/01/31 18:26:21.6	70.160	0.310	-0.430	0.380
2020/01/31 18:26:21.7	70.150	0.320	-0.380	0.310
2020/01/31 18:26:21.8	70.120	0.330	-0.330	0.240
2020/01/31 18:26:21.9	70.100	0.340	-0.280	0.170
2020/01/31 18:26:22.0	70.080	0.340	-0.220	0.100
2020/01/31 18:26:22.1	70.060	0.340	-0.170	0.030
2020/01/31 18:26:22.2	70.030	0.330	-0.120	-0.040
2020/01/31 18:26:22.3	70.010	0.330	-0.070	-0.120
2020/01/31 18:26:22.4	69.980	0.310	-0.020	-0.190
2020/01/31 18:26:22.5	69.950	0.300	0.020	-0.260
2020/01/31 18:26:22.6	69.920	0.280	0.070	-0.340
2020/01/31 18:26:22.7	69.900	0.250	0.110	-0.410
2020/01/31 18:26:22.8	69.870	0.230	0.150	-0.500
2020/01/31 18:26:22.9	69.840	0.200	0.180	-0.570
2020/01/31 18:26:23.0	69.810	0.170	0.210	-0.650
2020/01/31 18:26:23.1	69.780	0.140	0.240	-0.720
2020/01/31 18:26:23.2	69.750	0.110	0.260	-0.800
2020/01/31 18:26:23.3	69.720	0.080	0.280	-0.870
2020/01/31 18:26:23.4	69.690	0.050	0.290	-0.950
2020/01/31 18:26:23.5	69.670	0.020	0.300	-1.020
2020/01/31 18:26:23.6	69.640	-0.010	0.300	-1.090
2020/01/31 18:26:23.7	69.610	-0.040	0.290	-1.160
2020/01/31 18:26:23.8	69.590	-0.060	0.280	-1.230
2020/01/31 18:26:23.9	69.570	-0.090	0.260	-1.290
2020/01/31 18:26:24.0	69.540	-0.110	0.240	-1.350
2020/01/31 18:26:24.1	69.520	-0.120	0.210	-1.410
2020/01/31 18:26:24.2	69.500	-0.140	0.180	-1.470
2020/01/31 18:26:24.3	69.480	-0.150	0.150	-1.520
2020/01/31 18:26:24.4	69.460	-0.160	0.110	-1.570
2020/01/31 18:26:24.5	69.440	-0.160	0.060	-1.620
2020/01/31 18:26:24.6	69.420	-0.160	0.010	-1.660
2020/01/31 18:26:24.7	69.410	-0.160	-0.040	-1.690
2020/01/31 18:26:24.8	69.400	-0.150	-0.090	-1.730
2020/01/31 18:26:24.9	69.390	-0.140	-0.150	-1.760
2020/01/31 18:26:25.0	69.370	-0.130	-0.210	-1.780
2020/01/31 18:26:25.1	69.360	-0.110	-0.260	-1.800
2020/01/31 18:26:25.2	69.350	-0.090	-0.320	-1.820
2020/01/31 18:26:25.3	69.340	-0.070	-0.380	-1.830
2020/01/31 18:26:25.4	69.340	-0.040	-0.440	-1.840
2020/01/31 18:26:25.5	69.330	-0.010	-0.500	-1.850
2020/01/31 18:26:25.6	69.330	0.010	-0.550	-1.840
2020/01/31 18:26:25.7	69.330	0.040	-0.610	-1.840
2020/01/31 18:26:25.8	69.330	0.070	-0.660	-1.830
2020/01/31 18:26:25.9	69.330	0.100	-0.700	-1.810
2020/01/31 18:26:26.0	69.330	0.130	-0.740	-1.800
2020/01/31 18:26:26.1	69.330	0.160	-0.770	-1.770
2020/01/31 18:26:26.2	69.320	0.180	-0.800	-1.750
2020/01/31 18:26:26.3	69.320	0.210	-0.820	-1.710
2020/01/31 18:26:26.4	69.320	0.230	-0.840	-1.680
2020/01/31 18:26:26.5	69.310	0.250	-0.850	-1.640
2020/01/31 18:26:26.6	69.300	0.260	-0.850	-1.590
2020/01/31 18:26:26.7	69.300	0.270	-0.840	-1.540
2020/01/31 18:26:26.8	69.300	0.280	-0.830	-1.490
2020/01/31 18:26:26.9	69.280	0.290	-0.800	-1.430
2020/01/31 18:26:27.0	69.270	0.290	-0.780	-1.360
2020/01/31 18:26:27.1	69.250	0.290	-0.740	-1.290
2020/01/31 18:26:27.2	69.230	0.290	-0.690	-1.220
2020/01/31 18:26:27.3	69.210	0.280	-0.640	-1.140
2020/01/31 18:26:27.4	69.190	0.260	-0.590	-1.060
2020/01/31 18:26:27.5	69.160	0.250	-0.520	-0.970
2020/01/31 18:26:27.6	69.140	0.230	-0.460	-0.880
2020/01/31 18:26:27.7	69.110	0.210	-0.380	-0.790
2020/01/31 18:26:27.8	69.080	0.180	-0.310	-0.690
2020/01/31 18:26:27.9	69.050	0.150	-0.230	-0.590
2020/01/31 18:26:28.0	69.020	0.120	-0.140	-0.500
2020/01/31 18:26:28.1	68.980	0.090	-0.060	-0.390
2020/01/31 18:26:28.2	68.950	0.060	0.020	-0.290
2020/01/31 18:26:28.3	68.910	0.020	0.100	-0.190
2020/01/31 18:26:28.4	68.880	-0.010	0.180	-0.090
2020/01/31 18:26:28.5	68.850	-0.050	0.260	0.010
2020/01/31 18:26:28.6	68.810	-0.090	0.330	0.110
2020/01/31 18:26:28.7	68.780	-0.120	0.400	0.200
2020/01/31 18:26:28.8	68.750	-0.160	0.460	0.290
2020/01/31 18:26:28.9	68.730	-0.190	0.520	0.380
2020/01/31 18:26:29.0	68.700	-0.220	0.570	0.460
2020/01/31 18:26:29.1	68.690	-0.250	0.610	0.540
2020/01/31 18:26:29.2	68.670	-0.280	0.640	0.610
2020/01/31 18:26:29.3	68.660	-0.310	0.670	0.680
2020/01/31 18:26:29.4	68.650	-0.330	0.690	0.740
2020/01/31 18:26:29.5	68.640	-0.350	0.690	0.790
2020/01/31 18:26:29.6	68.640	-0.370	0.690	0.840
2020/01/31 18:26:29.7	68.640	-0.380	0.680	0.880
2020/01/31 18:26:29.8	68.630	-0.390	0.660	0.920
2020/01/31 18:26:29.9	68.640	-0.400	0.640	0.950
2020/01/31 18:26:30.0	68.650	-0.400	0.600	0.970
2020/01/31 18:26:30.1	68.660	-0.400	0.560	0.990
2020/01/31 18:26:30.2	68.670	-0.400	0.510	1.010
2020/01/31 18:26:30.3	68.690	-0.390	0.460	1.020
2020/01/31 18:26:30.4	68.710	-0.380	0.400	1.030
2020/01/31 18:26:30.5	68.720	-0.360	0.340	1.030
2020/01/31 18:26:30.6	68.740	-0.340	0.270	1.030
2020/01/31 18:26:30.7	68.760	-0.320	0.200	1.030
2020/01/31 18:26:30.8	68.780	-0.300	0.140	1.030
2020/01/31 18:26:30.9	68.790	-0.280	0.070	1.020
2020/01/31 18:26:31.0	68.810	-0.250	-0.010	1.020
2020/01/31 18:26:31.1	68.830	-0.220	-0.080	1.010
2020/01/31 18:26:31.2	68.840	-0.190	-0.150	1.000
2020/01/31 18:26:31.3	68.850	-0.160	-0.210	0.990
2020/01/31 18:26:31.4	68.870	-0.120	-0.280	0.980
2020/01/31 18:26:31.5	68.870	-0.090	-0.340	0.970
2020/01/31 18:26:31.6	68.880	-0.060	-0.390	0.960
2020/01/31 18:26:31.7	68.890	-0.020	-0.450	0.950
2020/01/31 18:26:31.8	68.890	0.010	-0.500	0.940
2020/01/31 18:26:31.9	68.890	0.040	-0.540	0.930
2020/01/31 18:26:32.0	68.890	0.070	-0.580	0.920
2020/01/31 18:26:32.1	68.880	0.100	-0.610	0.910
2020/01/31 18:26:32.2	68.880	0.130	-0.640	0.900
2020/01/31 18:26:32.3	68.870	0.160	-0.660	0.890
2020/01/31 18:26:32.4	68.850	0.180	-0.680	0.870
2020/01/31 18:26:32.5	68.840	0.200	-0.690	0.860
2020/01/31 18:26:32.6	68.820	0.220	-0.690	0.850
2020/01/31 18:26:32.7	68.800	0.230	-0.690	0.840
2020/01/31 18:26:32.8	68.770	0.240	-0.670	0.820
2020/01/31 18:26:32.9	68.750	0.250	-0.660	0.810
2020/01/31 18:26:33.0	68.720	0.260	-0.640	0.800
2020/01/31 18:26:33.1	68.690	0.260	-0.610	0.790
2020/01/31 18:26:33.2	68.650	0.260	-0.580	0.780
2020/01/31 18:26:33.3	68.620	0.250	-0.550	0.770
2020/01/31 18:26:33.4	68.580	0.240	-0.510	0.760
2020/01/31 18:26:33.5	68.540	0.230	-0.470	0.750
2020/01/31 18:26:33.6	68.500	0.220	-0.430	0.750
2020/01/31 18:26:33.7	68.460	0.200	-0.380	0.740
2020/01/31 18:26:33.8	68.410	0.180	-0.330	0.730
2020/01/31 18:26:33.9	68.360	0.160	-0.280	0.730
2020/01/31 18:26:34.0	68.320	0.140	-0.230	0.720
2020/01/31 18:26:34.1	68.270	0.120	-0.180	0.720
2020/01/31 18:26:34.2	68.220	0.090	-0.130	0.710
2020/01/31 18:26:34.3	68.180	0.060	-0.080	0.710
2020/01/31 18:26:34.4	68.130	0.040	-0.040	0.700
2020/01/31 18:26:34.5	68.080	0.010	0.000	0.700
2020/01/31 18:26:34.6	68.040	-0.020	0.040	0.690
2020/01/31 18:26:34.7	68.000	-0.050	0.070	0.680
2020/01/31 18:26:34.8	67.960	-0.070	0.100	0.670
2020/01/31 18:26:34.9	67.920	-0.100	0.130	0.660
2020/01/31 18:26:35.0	67.880	-0.120	0.140	0.650
2020/01/31 18:26:35.1	67.850	-0.140	0.150	0.630
2020/01/31 18:26:35.2	67.820	-0.160	0.160	0.610
2020/01/31 18:26:35.3	67.790	-0.180	0.150	0.590
2020/01/31 18:26:35.4	67.760	-0.190	0.140	0.560
2020/01/31 18:26:35.5	67.740	-0.200	0.130	0.540
2020/01/31 18:26:35.6	67.730	-0.210	0.110	0.500
2020/01/31 18:26:35.7	67.710	-0.220	0.080	0.470
2020/01/31 18:26:35.8	67.710	-0.220	0.050	0.430
2020/01/31 18:26:35.9	67.700	-0.220	0.010	0.390
2020/01/31 18:26:36.0	67.700	-0.210	-0.030	0.340
2020/01/31 18:26:36.1	67.700	-0.210	-0.070	0.290
2020/01/31 18:26:36.2	67.710	-0.200	-0.120	0.240
2020/01/31 18:26:36.3	67.710	-0.190	-0.170	0.190
2020/01/31 18:26:36.4	67.720	-0.170	-0.220	0.140
2020/01/31 18:26:36.5	67.740	-0.150	-0.280	0.080
2020/01/31 18:26:36.6	67.750	-0.140	-0.330	0.030
2020/01/31 18:26:36.7	67.770	-0.120	-0.380	-0.030
2020/01/31 18:26:36.8	67.780	-0.090	-0.430	-0.090
2020/01/31 18:26:36.9	67.800	-0.070	-0.480	-0.150
2020/01/31 18:26:37.0	67.820	-0.050	-0.530	-0.210
2020/01/31 18:26:37.1	67.840	-0.020	-0.570	-0.260
2020/01/31 18:26:37.2	67.860	0.000	-0.610	-0.320
2020/01/31 18:26:37.3	67.870	0.030	-0.650	-0.380
2020/01/31 18:26:37.4	67.890	0.050	-0.680	-0.430
2020/01/31 18:26:37.5	67.910	0.070	-0.700	-0.490
2020/01/31 18:26:37.6	67.920	0.090	-0.730	-0.540
2020/01/31 18:26:37.7	67.930	0.110	-0.740	-0.590
2020/01/31 18:26:37.8	67.950	0.130	-0.750	-0.640
2020/01/31 18:26:37.9	67.960	0.150	-0.760	-0.690
2020/01/31 18:26:38.0	67.970	0.160	-0.760	-0.740
2020/01/31 18:26:38.1	67.970	0.180	-0.750	-0.790
2020/01/31 18:26:38.2	67.980	0.190	-0.740	-0.840
2020/01/31 18:26:38.3	67.980	0.190	-0.720	-0.880
2020/01/31 18:26:38.4	67.980	0.200	-0.700	-0.920
2020/01/31 18:26:38.5	67.970	0.200	-0.670	-0.970
2020/01/31 18:26:38.6	67.970	0.200	-0.630	-1.000
2020/01/31 18:26:38.7	67.960	0.200	-0.590	-1.040
2020/01/31 18:26:38.8	67.950	0.190	-0.550	-1.080
2020/01/31 18:26:38.9	67.940	0.180	-0.500	-1.110
2020/01/31 18:26:39.0	67.930	0.170	-0.450	-1.140
2020/01/31 18:26:39.1	67.910	0.160	-0.400	-1.170
2020/01/31 18:26:39.2	67.890	0.150	-0.350	-1.190
2020/01/31 18:26:39.3	67.870	0.130	-0.300	-1.220
2020/01/31 18:26:39.4	67.850	0.110	-0.240	-1.240
2020/01/31 18:26:39.5	67.830	0.090	-0.190	-1.260
2020/01/31 18:26:39.6	67.810	0.070	-0.140	-1.280
2020/01/31 18:26:39.7	67.780	0.050	-0.080	-1.290
2020/01/31 18:26:39.8	67.760	0.030	-0.030	-1.300
2020/01/31 18:26:39.9	67.730	0.010	0.020	-1.320
2020/01/31 18:26:40.0	67.700	-0.010	0.060	-1.330
2020/01/31 18:26:40.1	67.680	-0.030	0.100	-1.340
2020/01/31 18:26:40.2	67.650	-0.050	0.140	-1.340
2020/01/31 18:26:40.3	67.620	-0.070	0.180	-1.350
2020/01/31 18:26:40.4	67.590	-0.090	0.210	-1.350
2020/01/31 18:26:40.5	67.560	-0.110	0.240	-1.350
2020/01/31 18:26:40.6	67.530	-0.120	0.260	-1.350
2020/01/31 18:26:40.7	67.500	-0.130	0.280	-1.340
2020/01/31 18:26:40.8	67.470	-0.140	0.290	-1.330
2020/01/31 18:26:40.9	67.440	-0.150	0.310	-1.320
2020/01/31 18:26:41.0	67.420	-0.150	0.310	-1.310
2020/01/31 18:26:41.1	67.390	-0.160	0.320	-1.290
2020/01/31 18:26:41.2	67.360	-0.160	0.310	-1.270
2020/01/31 18:26:41.3	67.340	-0.150	0.310	-1.250
2020/01/31 18:26:41.4	67.310	-0.150	0.300	-1.220
2020/01/31 18:26:41.5	67.290	-0.140	0.280	-1.190
2020/01/31 18:26:41.6	67.270	-0.130	0.270	-1.160
2020/01/31 18:26:41.7	67.250	-0.110	0.250	-1.130
2020/01/31 18:26:41.8	67.230	-0.090	0.220	-1.090
2020/01/31 18:26:41.9	67.210	-0.070	0.190	-1.050
2020/01/31 18:26:42.0	67.200	-0.050	0.160	-1.010
2020/01/31 18:26:42.1	67.180	-0.030	0.130	-0.970
2020/01/31 18:26:42.2	67.170	-0.000	0.100	-0.930
2020/01/31 18:26:42.3	67.160	0.030	0.060	-0.890
2020/01/31 18:26:42.4	67.150	0.060	0.020	-0.840
2020/01/31 18:26:42.5	67.140	0.090	-0.010	-0.800
2020/01/31 18:26:42.6	67.130	0.120	-0.050	-0.750
2020/01/31 18:26:42.7	67.130	0.150	-0.090	-0.710
2020/01/31 18:26:42.8	67.130	0.180	-0.130	-0.660
2020/01/31 18:26:42.9	67.130	0.210	-0.160	-0.620
2020/01/31 18:26:43.0	67.130	0.240	-0.200	-0.580
2020/01/31 18:26:43.1	67.130	0.270	-0.240	-0.530
2020/01/31 18:26:43.2	67.130	0.290	-0.270	-0.490
2020/01/31 18:26:43.3	67.140	0.320	-0.300	-0.450
2020/01/31 18:26:43.4	67.140	0.350	-0.330	-0.400
2020/01/31 18:26:43.5	67.150	0.370	-0.360	-0.360
2020/01/31 18:26:43.6	67.150	0.390	-0.380	-0.320
2020/01/31 18:26:43.7	67.160	0.400	-0.400	-0.280
2020/01/31 18:26:43.8	67.170	0.420	-0.420	-0.230
2020/01/31 18:26:43.9	67.170	0.430	-0.430	-0.190
2020/01/31 18:26:44.0	67.180	0.440	-0.440	-0.150
2020/01/31 18:26:44.1	67.190	0.440	-0.440	-0.110
2020/01/31 18:26:44.2	67.190	0.440	-0.450	-0.070
2020/01/31 18:26:44.3	67.200	0.440	-0.440	-0.030
2020/01/31 18:26:44.4	67.210	0.430	-0.440	0.010
2020/01/31 18:26:44.5	67.210	0.420	-0.430	0.050
2020/01/31 18:26:44.6	67.220	0.410	-0.410	0.090
2020/01/31 18:26:44.7	67.220	0.390	-0.400	0.130
2020/01/31 18:26:44.8	67.230	0.370	-0.380	0.170
2020/01/31 18:26:44.9	67.230	0.340	-0.350	0.210
2020/01/31 18:26:45.0	67.240	0.320	-0.330	0.250
2020/01/31 18:26:45.1	67.240	0.290	-0.300	0.290
2020/01/31 18:26:45.2	67.250	0.250	-0.270	0.330
2020/01/31 18:26:45.3	67.250	0.220	-0.240	0.370
2020/01/31 18:26:45.4	67.250	0.180	-0.200	0.410
2020/01/31 18:26:45.5	67.260	0.140	-0.170	0.450
2020/01/31 18:26:45.6	67.260	0.090	-0.130	0.490
2020/01/31 18:26:45.7	67.260	0.050	-0.100	0.520
2020/01/31 18:26:45.8	67.270	0.000	-0.060	0.560
2020/01/31 18:26:45.9	67.270	-0.040	-0.030	0.600
2020/01/31 18:26:46.0	67.270	-0.090	0.010	0.640
2020/01/31 18:26:46.1	67.270	-0.140	0.040	0.670
2020/01/31 18:26:46.2	67.270	-0.190	0.070	0.710
2020/01/31 18:26:46.3	67.260	-0.230	0.100	0.740
2020/01/31 18:26:46.4	67.260	-0.280	0.130	0.770
2020/01/31 18:26:46.5	67.260	-0.330	0.150	0.800
2020/01/31 18:26:46.6	67.250	-0.380	0.180	0.830
2020/01/31 18:26:46.7	67.250	-0.420	0.200	0.850
2020/01/31 18:26:46.8	67.240	-0.470	0.220	0.880
2020/01/31 18:26:46.9	67.230	-0.510	0.240	0.900
2020/01/31 18:26:47.0	67.220	-0.550	0.250	0.920
2020/01/31 18:26:47.1	67.210	-0.590	0.260	0.930
2020/01/31 18:26:47.2	67.200	-0.630	0.270	0.950
2020/01/31 18:26:47.3	67.190	-0.660	0.280	0.960
2020/01/31 18:26:47.4	67.180	-0.690	0.280	0.970
2020/01/31 18:26:47.5	67.160	-0.720	0.290	0.980
2020/01/31 18:26:47.6	67.150	-0.750	0.290	0.980
2020/01/31 18:26:47.7	67.130	-0.770	0.280	0.980
2020/01/31 18:26:47.8	67.110	-0.790	0.280	0.980
2020/01/31 18:26:47.9	67.090	-0.800	0.270	0.980
2020/01/31 18:26:48.0	67.070	-0.820	0.260	0.980
2020/01/31 18:26:48.1	67.050	-0.820	0.250	0.980
2020/01/31 18:26:48.2	67.030	-0.830	0.230	0.970
2020/01/31 18:26:48.3	67.000	-0.830	0.220	0.970
2020/01/31 18:26:48.4	66.980	-0.830	0.190	0.960
2020/01/31 18:26:48.5	66.950	-0.820	0.170	0.950
2020/01/31 18:26:48.6	66.930	-0.810	0.140	0.940
2020/01/31 18:26:48.7	66.900	-0.790	0.110	0.930
2020/01/31 18:26:48.8	66.870	-0.770	0.080	0.920
2020/01/31 18:26:48.9	66.840	-0.740	0.040	0.900
2020/01/31 18:26:49.0	66.820	-0.720	-0.000	0.880
2020/01/31 18:26:49.1	66.790	-0.680	-0.050	0.860
2020/01/31 18:26:49.2	66.770	-0.650	-0.100	0.840
2020/01/31 18:26:49.3	66.740	-0.610	-0.150	0.810
2020/01/31 18:26:49.4	66.720	-0.560	-0.200	0.780
2020/01/31 18:26:49.5	66.700	-0.510	-0.260	0.750
2020/01/31 18:26:49.6	66.680	-0.460	-0.320	0.710
2020/01/31 18:26:49.7	66.670	-0.400	-0.380	0.670
2020/01/31 18:26:49.8	66.650	-0.340	-0.440	0.620
2020/01/31 18:26:49.9	66.640	-0.280	-0.510	0.570
2020/01/31 18:26:50.0	66.630	-0.220	-0.570	0.510
2020/01/31 18:26:50.1	66.630	-0.150	-0.640	0.460
2020/01/31 18:26:50.2	66.630	-0.080	-0.700	0.400
2020/01/31 18:26:50.3	66.630	-0.010	-0.770	0.330
2020/01/31 18:26:50.4	66.630	0.060	-0.830	0.270
2020/01/31 18:26:50.5	66.640	0.130	-0.890	0.200
2020/01/31 18:26:50.6	66.650	0.210	-0.950	0.130
2020/01/31 18:26:50.7	66.660	0.280	-1.000	0.060
2020/01/31 18:26:50.8	66.680	0.350	-1.050	-0.010
2020/01/31 18:26:50.9	66.690	0.420	-1.100	-0.090
2020/01/31 18:26:51.0	66.710	0.490	-1.140	-0.160
2020/01/31 18:26:51.1	66.730	0.560	-1.170	-0.240
2020/01/31 18:26:51.2	66.750	0.620	-1.190	-0.310
2020/01/31 18:26:51.3	66.780	0.680	-1.210	-0.380
2020/01/31 18:26:51.4	66.800	0.740	-1.220	-0.460
2020/01/31 18:26:51.5	66.820	0.790	-1.230	-0.530
2020/01/31 18:26:51.6	66.850	0.840	-1.220	-0.590
2020/01/31 18:26:51.7	66.870	0.880	-1.210	-0.660
2020/01/31 18:26:51.8	66.900	0.920	-1.180	-0.720
2020/01/31 18:26:51.9	66.920	0.950	-1.150	-0.780
2020/01/31 18:26:52.0	66.940	0.970	-1.120	-0.830
2020/01/31 18:26:52.1	66.960	0.990	-1.070	-0.890
2020/01/31 18:26:52.2	66.980	1.000	-1.020	-0.930
2020/01/31 18:26:52.3	66.990	1.010	-0.960	-0.980
2020/01/31 18:26:52.4	67.010	1.010	-0.890	-1.020
2020/01/31 18:26:52.5	67.020	1.000	-0.820	-1.060
2020/01/31 18:26:52.6	67.030	0.980	-0.740	-1.090
2020/01/31 18:26:52.7	67.030	0.960	-0.660	-1.120
2020/01/31 18:26:52.8	67.040	0.940	-0.570	-1.140
2020/01/31 18:26:52.9	67.040	0.900	-0.480	-1.170
2020/01/31 18:26:53.0	67.040	0.870	-0.390	-1.190
2020/01/31 18:26:53.1	67.040	0.820	-0.290	-1.200
2020/01/31 18:26:53.2	67.030	0.780	-0.190	-1.220
2020/01/31 18:26:53.3	67.030	0.720	-0.090	-1.230
2020/01/31 18:26:53.4	67.020	0.670	0.000	-1.240
2020/01/31 18:26:53.5	67.010	0.610	0.100	-1.250
2020/01/31 18:26:53.6	66.990	0.550	0.200	-1.250
2020/01/31 18:26:53.7	66.980	0.480	0.290	-1.260
2020/01/31 18:26:53.8	66.970	0.410	0.380	-1.260
2020/01/31 18:26:53.9	66.960	0.350	0.460	-1.260
2020/01/31 18:26:54.0	66.940	0.280	0.540	-1.260
2020/01/31 18:26:54.1	66.920	0.210	0.620	-1.260
2020/01/31 18:26:54.2	66.910	0.140	0.690	-1.250
2020/01/31 18:26:54.3	66.890	0.080	0.750	-1.250
2020/01/31 18:26:54.4	66.880	0.010	0.810	-1.240
2020/01/31 18:26:54.5	66.860	-0.050	0.860	-1.240
2020/01/31 18:26:54.6	66.850	-0.110	0.900	-1.230
2020/01/31 18:26:54.7	66.840	-0.170	0.930	-1.230
2020/01/31 18:26:54.8	66.820	-0.220	0.950	-1.220
2020/01/31 18:26:54.9	66.810	-0.270	0.960	-1.220
2020/01/31 18:26:55.0	66.810	-0.320	0.970	-1.210
2020/01/31 18:26:55.1	66.810	-0.360	0.970	-1.200
2020/01/31 18:26:55.2	66.810	-0.400	0.950	-1.200
2020/01/31 18:26:55.3	66.810	-0.430	0.940	-1.190
2020/01/31 18:26:55.4	66.820	-0.460	0.910	-1.190
2020/01/31 18:26:55.5	66.820	-0.490	0.870	-1.180
2020/01/31 18:26:55.6	66.830	-0.510	0.830	-1.170
2020/01/31 18:26:55.7	66.840	-0.530	0.780	-1.170
2020/01/31 18:26:55.8	66.870	-0.540	0.730	-1.160
2020/01/31 18:26:55.9	66.880	-0.550	0.670	-1.150
2020/01/31 18:26:56.0	66.900	-0.550	0.600	-1.140
2020/01/31 18:26:56.1	66.920	-0.550	0.540	-1.130
2020/01/31 18:26:56.2	66.940	-0.550	0.460	-1.120
2020/01/31 18:26:56.3	66.960	-0.540	0.390	-1.110
2020/01/31 18:26:56.4	66.980	-0.530	0.320	-1.090
2020/01/31 18:26:56.5	67.000	-0.520	0.240	-1.080
2020/01/31 18:26:56.6	67.010	-0.510	0.160	-1.060
2020/01/31 18:26:56.7	67.030	-0.490	0.090	-1.030
2020/01/31 18:26:56.8	67.050	-0.470	0.010	-1.010
2020/01/31 18:26:56.9	67.070	-0.450	-0.060	-0.980
2020/01/31 18:26:57.0	67.080	-0.430	-0.130	-0.940
2020/01/31 18:26:57.1	67.100	-0.410	-0.200	-0.910
2020/01/31 18:26:57.2	67.110	-0.390	-0.270	-0.870
2020/01/31 18:26:57.3	67.120	-0.360	-0.330	-0.820
2020/01/31 18:26:57.4	67.130	-0.340	-0.380	-0.780
2020/01/31 18:26:57.5	67.130	-0.310	-0.440	-0.720
2020/01/31 18:26:57.6	67.140	-0.290	-0.490	-0.670
2020/01/31 18:26:57.7	67.140	-0.260	-0.530	-0.610
2020/01/31 18:26:57.8	67.140	-0.240	-0.570	-0.550
2020/01/31 18:26:57.9	67.140	-0.220	-0.610	-0.480
2020/01/31 18:26:58.0	67.140	-0.190	-0.640	-0.410
2020/01/31 18:26:58.1	67.140	-0.170	-0.670	-0.340
2020/01/31 18:26:58.2	67.130	-0.150	-0.690	-0.270
2020/01/31 18:26:58.3	67.130	-0.120	-0.710	-0.200
2020/01/31 18:26:58.4	67.120	-0.100	-0.730	-0.120
2020/01/31 18:26:58.5	67.110	-0.080	-0.740	-0.050
2020/01/31 18:26:58.6	67.100	-0.060	-0.750	0.030
2020/01/31 18:26:58.7	67.090	-0.040	-0.760	0.110
2020/01/31 18:26:58.8	67.090	-0.020	-0.760	0.190
2020/01/31 18:26:58.9	67.080	-0.000	-0.770	0.260
2020/01/31 18:26:59.0	67.070	0.020	-0.770	0.340
2020/01/31 18:26:59.1	67.060	0.030	-0.770	0.410
2020/01/31 18:26:59.2	67.060	0.050	-0.760	0.490
2020/01/31 18:26:59.3	67.050	0.070	-0.760	0.560
2020/01/31 18:26:59.4	67.050	0.090	-0.760	0.630
2020/01/31 18:26:59.5	67.050	0.110	-0.750	0.690
2020/01/31 18:26:59.6	67.050	0.130	-0.750	0.750
2020/01/31 18:26:59.7	67.050	0.140	-0.740	0.810
2020/01/31 18:26:59.8	67.050	0.160	-0.740	0.870
2020/01/31 18:26:59.9	67.060	0.180	-0.730	0.920
2020/01/31 18:27:00.0	67.070	0.200	-0.730	0.970
2020/01/31 18:27:00.1	67.080	0.220	-0.720	1.010
2020/01/31 18:27:00.2	67.090	0.240	-0.720	1.050
2020/01/31 18:27:00.3	67.110	0.260	-0.710	1.090
2020/01/31 18:27:00.4	67.130	0.280	-0.710	1.120
2020/01/31 18:27:00.5	67.150	0.300	-0.710	1.150
2020/01/31 18:27:00.6	67.170	0.320	-0.700	1.170
2020/01/31 18:27:00.7	67.190	0.340	-0.690	1.190
2020/01/31 18:27:00.8	67.220	0.350	-0.680	1.210
2020/01/31 18:27:00.9	67.240	0.370	-0.680	1.220
2020/01/31 18:27:01.0	67.270	0.390	-0.670	1.230
2020/01/31 18:27:01.1	67.290	0.400	-0.660	1.230
2020/01/31 18:27:01.2	67.320	0.420	-0.650	1.230
2020/01/31 18:27:01.3	67.340	0.430	-0.630	1.230
2020/01/31 18:27:01.4	67.370	0.440	-0.610	1.220
2020/01/31 18:27:01.5	67.400	0.440	-0.590	1.210
2020/01/31 18:27:01.6	67.420	0.450	-0.570	1.200
2020/01/31 18:27:01.7	67.440	0.450	-0.550	1.180
2020/01/31 18:27:01.8	67.450	0.450	-0.510	1.160
2020/01/31 18:27:01.9	67.470	0.440	-0.480	1.150
2020/01/31 18:27:02.0	67.490	0.440	-0.440	1.120
2020/01/31 18:27:02.1	67.500	0.430	-0.400	1.100
2020/01/31 18:27:02.2	67.520	0.410	-0.350	1.080
2020/01/31 18:27:02.3	67.530	0.390	-0.300	1.050
2020/01/31 18:27:02.4	67.550	0.370	-0.250	1.030
2020/01/31 18:27:02.5	67.550	0.350	-0.190	1.000
2020/01/31 18:27:02.6	67.560	0.320	-0.130	0.970
2020/01/31 18:27:02.7	67.570	0.290	-0.060	0.950
2020/01/31 18:27:02.8	67.570	0.260	0.010	0.920
2020/01/31 18:27:02.9	67.570	0.220	0.080	0.890
2020/01/31 18:27:03.0	67.570	0.190	0.150	0.860
2020/01/31 18:27:03.1	67.560	0.150	0.230	0.840
2020/01/31 18:27:03.2	67.560	0.100	0.300	0.810
2020/01/31 18:27:03.3	67.550	0.060	0.380	0.790
2020/01/31 18:27:03.4	67.540	0.020	0.460	0.760
2020/01/31 18:27:03.5	67.530	-0.030	0.540	0.730
2020/01/31 18:27:03.6	67.520	-0.080	0.610	0.710
2020/01/31 18:27:03.7	67.500	-0.120	0.690	0.680
2020/01/31 18:27:03.8	67.490	-0.170	0.760	0.650
2020/01/31 18:27:03.9	67.480	-0.210	0.830	0.620
2020/01/31 18:27:04.0	67.460	-0.260	0.890	0.590
2020/01/31 18:27:04.1	67.450	-0.300	0.950	0.560
2020/01/31 18:27:04.2	67.430	-0.340	1.000	0.530
2020/01/31 18:27:04.3	67.420	-0.380	1.050	0.490
2020/01/31 18:27:04.4	67.400	-0.420	1.090	0.460
2020/01/31 18:27:04.5	67.390	-0.450	1.120	0.420
2020/01/31 18:27:04.6	67.380	-0.490	1.140	0.380
2020/01/31 18:27:04.7	67.370	-0.520	1.160	0.340
2020/01/31 18:27:04.8	67.340	-0.540	1.160	0.290
2020/01/31 18:27:04.9	67.330	-0.560	1.160	0.240
2020/01/31 18:27:05.0	67.330	-0.580	1.140	0.200
2020/01/31 18:27:05.1	67.320	-0.590	1.120	0.150
2020/01/31 18:27:05.2	67.310	-0.610	1.080	0.090
2020/01/31 18:27:05.3	67.310	-0.610	1.040	0.040
2020/01/31 18:27:05.4	67.300	-0.610	0.990	-0.010
2020/01/31 18:27:05.5	67.300	-0.610	0.920	-0.070
2020/01/31 18:27:05.6	67.300	-0.610	0.850	-0.120
2020/01/31 18:27:05.7	67.300	-0.600	0.770	-0.180
2020/01/31 18:27:05.8	67.310	-0.580	0.670	-0.240
2020/01/31 18:27:05.9	67.320	-0.570	0.570	-0.300
2020/01/31 18:27:06.0	67.320	-0.550	0.460	-0.360
2020/01/31 18:27:06.1	67.330	-0.520	0.350	-0.420
2020/01/31 18:27:06.2	67.350	-0.490	0.230	-0.490
2020/01/31 18:27:06.3	67.360	-0.460	0.100	-0.550
2020/01/31 18:27:06.4	67.380	-0.430	-0.030	-0.610
2020/01/31 18:27:06.5	67.400	-0.390	-0.160	-0.670
2020/01/31 18:27:06.6	67.420	-0.350	-0.290	-0.740
2020/01/31 18:27:06.7	67.450	-0.310	-0.430	-0.800
2020/01/31 18:27:06.8	67.490	-0.270	-0.570	-0.860
2020/01/31 18:27:06.9	67.520	-0.220	-0.700	-0.920
2020/01/31 18:27:07.0	67.550	-0.180	-0.840	-0.980
2020/01/31 18:27:07.1	67.580	-0.130	-0.970	-1.030
2020/01/31 18:27:07.2	67.620	-0.080	-1.090	-1.090
2020/01/31 18:27:07.3	67.660	-0.030	-1.210	-1.140
2020/01/31 18:27:07.4	67.690	0.010	-1.320	-1.190
2020/01/31 18:27:07.5	67.730	0.060	-1.420	-1.240
2020/01/31 18:27:07.6	67.770	0.110	-1.520	-1.280
2020/01/31 18:27:07.7	67.810	0.150	-1.610	-1.320
2020/01/31 18:27:07.8	67.860	0.200	-1.680	-1.360
2020/01/31 18:27:07.9	67.890	0.240	-1.740	-1.390
2020/01/31 18:27:08.0	67.930	0.280	-1.800	-1.420
2020/01/31 18:27:08.1	67.970	0.320	-1.840	-1.440
2020/01/31 18:27:08.2	68.000	0.350	-1.860	-1.460
2020/01/31 18:27:08.3	68.030	0.380	-1.880	-1.460
2020/01/31 18:27:08.4	68.060	0.410	-1.880	-1.470
2020/01/31 18:27:08.5	68.090	0.440	-1.860	-1.460
2020/01/31 18:27:08.6	68.110	0.460	-1.830	-1.450
2020/01/31 18:27:08.7	68.130	0.480	-1.800	-1.440
2020/01/31 18:27:08.8	68.140	0.490	-1.740	-1.410
2020/01/31 18:27:08.9	68.160	0.500	-1.680	-1.380
2020/01/31 18:27:09.0	68.170	0.500	-1.600	-1.350
2020/01/31 18:27:09.1	68.170	0.500	-1.520	-1.310
2020/01/31 18:27:09.2	68.180	0.500	-1.420	-1.260
2020/01/31 18:27:09.3	68.180	0.490	-1.320	-1.210
2020/01/31 18:27:09.4	68.170	0.480	-1.200	-1.150
2020/01/31 18:27:09.5	68.170	0.460	-1.090	-1.090
2020/01/31 18:27:09.6	68.160	0.440	-0.960	-1.030
2020/01/31 18:27:09.7	68.150	0.420	-0.840	-0.960
2020/01/31 18:27:09.8	68.150	0.390	-0.710	-0.890
2020/01/31 18:27:09.9	68.140	0.360	-0.580	-0.820
2020/01/31 18:27:10.0	68.130	0.320	-0.450	-0.750
2020/01/31 18:27:10.1	68.110	0.290	-0.320	-0.680
2020/01/31 18:27:10.2	68.100	0.250	-0.190	-0.610
2020/01/31 18:27:10.3	68.090	0.210	-0.060	-0.540
2020/01/31 18:27:10.4	68.070	0.170	0.050	-0.460
2020/01/31 18:27:10.5	68.060	0.130	0.170	-0.400
2020/01/31 18:27:10.6	68.050	0.090	0.280	-0.330
2020/01/31 18:27:10.7	68.040	0.040	0.380	-0.260
2020/01/31 18:27:10.8	68.020	0.000	0.480	-0.200
2020/01/31 18:27:10.9	68.020	-0.040	0.560	-0.130
2020/01/31 18:27:11.0	68.010	-0.080	0.640	-0.070
2020/01/31 18:27:11.1	68.000	-0.120	0.710	-0.020
2020/01/31 18:27:11.2	67.990	-0.150	0.770	0.040
2020/01/31 18:27:11.3	67.990	-0.180	0.820	0.090
2020/01/31 18:27:11.4	67.980	-0.210	0.870	0.150
2020/01/31 18:27:11.5	67.980	-0.240	0.900	0.190
2020/01/31 18:27:11.6	67.980	-0.260	0.930	0.240
2020/01/31 18:27:11.7	67.980	-0.280	0.950	0.290
2020/01/31 18:27:11.8	67.980	-0.300	0.960	0.330
2020/01/31 18:27:11.9	67.980	-0.310	0.960	0.370
2020/01/31 18:27:12.0	67.980	-0.320	0.960	0.410
2020/01/31 18:27:12.1	67.980	-0.320	0.950	0.450
2020/01/31 18:27:12.2	67.980	-0.320	0.930	0.490
2020/01/31 18:27:12.3	67.980	-0.320	0.910	0.530
2020/01/31 18:27:12.4	67.980	-0.310	0.880	0.560
2020/01/31 18:27:12.5	67.980	-0.300	0.850	0.600
2020/01/31 18:27:12.6	67.990	-0.280	0.810	0.630
2020/01/31 18:27:12.7	67.990	-0.260	0.780	0.660
2020/01/31 18:27:12.8	67.990	-0.240	0.730	0.690
2020/01/31 18:27:12.9	67.990	-0.210	0.690	0.720
2020/01/31 18:27:13.0	68.000	-0.190	0.640	0.750
2020/01/31 18:27:13.1	68.000	-0.150	0.590	0.780
2020/01/31 18:27:13.2	68.000	-0.120	0.530	0.800
2020/01/31 18:27:13.3	68.000	-0.090	0.480	0.830
2020/01/31 18:27:13.4	68.010	-0.050	0.420	0.850
2020/01/31 18:27:13.5	68.010	-0.010	0.370	0.870
2020/01/31 18:27:13.6	68.020	0.030	0.310	0.890
2020/01/31 18:27:13.7	68.020	0.060	0.250	0.900
2020/01/31 18:27:13.8	68.030	0.100	0.190	0.920
2020/01/31 18:27:13.9	68.040	0.140	0.130	0.930
2020/01/31 18:27:14.0	68.040	0.180	0.070	0.940
2020/01/31 18:27:14.1	68.050	0.210	0.010	0.940
2020/01/31 18:27:14.2	68.060	0.250	-0.040	0.950
2020/01/31 18:27:14.3	68.070	0.280	-0.100	0.950
2020/01/31 18:27:14.4	68.080	0.310	-0.160	0.940
2020/01/31 18:27:14.5	68.090	0.340	-0.210	0.940
2020/01/31 18:27:14.6	68.100	0.360	-0.260	0.930
2020/01/31 18:27:14.7	68.110	0.380	-0.320	0.920
2020/01/31 18:27:14.8	68.110	0.400	-0.370	0.910
2020/01/31 18:27:14.9	68.120	0.420	-0.420	0.890
2020/01/31 18:27:15.0	68.130	0.430	-0.470	0.870
2020/01/31 18:27:15.1	68.140	0.440	-0.520	0.850
2020/01/31 18:27:15.2	68.160	0.450	-0.560	0.830
2020/01/31 18:27:15.3	68.170	0.460	-0.600	0.810
2020/01/31 18:27:15.4	68.180	0.460	-0.650	0.780
2020/01/31 18:27:15.5	68.200	0.450	-0.680	0.750
2020/01/31 18:27:15.6	68.210	0.450	-0.720	0.710
2020/01/31 18:27:15.7	68.230	0.440	-0.760	0.680
2020/01/31 18:27:15.8	68.240	0.420	-0.790	0.640
2020/01/31 18:27:15.9	68.260	0.410	-0.820	0.600
2020/01/31 18:27:16.0	68.280	0.390	-0.840	0.560
2020/01/31 18:27:16.1	68.290	0.370	-0.870	0.510
2020/01/31 18:27:16.2	68.310	0.350	-0.890	0.470
2020/01/31 18:27:16.3	68.330	0.330	-0.900	0.420
2020/01/31 18:27:16.4	68.350	0.300	-0.910	0.380
2020/01/31 18:27:16.5	68.370	0.280	-0.920	0.330
2020/01/31 18:27:16.6	68.390	0.250	-0.930	0.280
2020/01/31 18:27:16.7	68.410	0.220	-0.930	0.240
2020/01/31 18:27:16.8	68.430	0.190	-0.930	0.190
2020/01/31 18:27:16.9	68.450	0.170	-0.920	0.140
2020/01/31 18:27:17.0	68.480	0.140	-0.910	0.100
2020/01/31 18:27:17.1	68.500	0.110	-0.890	0.060
2020/01/31 18:27:17.2	68.530	0.090	-0.880	0.020
2020/01/31 18:27:17.3	68.560	0.060	-0.850	-0.010
2020/01/31 18:27:17.4	68.590	0.040	-0.830	-0.050
2020/01/31 18:27:17.5	68.620	0.020	-0.800	-0.080
2020/01/31 18:27:17.6	68.650	0.000	-0.770	-0.110
2020/01/31 18:27:17.7	68.680	-0.020	-0.740	-0.140
2020/01/31 18:27:17.8	68.710	-0.030	-0.710	-0.160
2020/01/31 18:27:17.9	68.750	-0.040	-0.670	-0.180
2020/01/31 18:27:18.0	68.780	-0.060	-0.630	-0.200
2020/01/31 18:27:18.1	68.820	-0.060	-0.590	-0.220
2020/01/31 18:27:18.2	68.850	-0.070	-0.550	-0.230
2020/01/31 18:27:18.3	68.880	-0.080	-0.510	-0.240
2020/01/31 18:27:18.4	68.920	-0.080	-0.470	-0.240
2020/01/31 18:27:18.5	68.950	-0.080	-0.420	-0.250
2020/01/31 18:27:18.6	68.980	-0.090	-0.380	-0.240
2020/01/31 18:27:18.7	69.010	-0.080	-0.340	-0.240
2020/01/31 18:27:18.8	69.040	-0.080	-0.290	-0.230
2020/01/31 18:27:18.9	69.070	-0.080	-0.250	-0.220
2020/01/31 18:27:19.0	69.090	-0.080	-0.200	-0.200
2020/01/31 18:27:19.1	69.110	-0.070	-0.160	-0.180
2020/01/31 18:27:19.2	69.140	-0.070	-0.110	-0.160
2020/01/31 18:27:19.3	69.160	-0.070	-0.070	-0.140
2020/01/31 18:27:19.4	69.170	-0.060	-0.020	-0.110
2020/01/31 18:27:19.5	69.190	-0.060	0.020	-0.080
2020/01/31 18:27:19.6	69.200	-0.060	0.060	-0.040
2020/01/31 18:27:19.7	69.210	-0.060	0.110	-0.010
2020/01/31 18:27:19.8	69.220	-0.060	0.150	0.030
2020/01/31 18:27:19.9	69.230	-0.060	0.190	0.070
2020/01/31 18:27:20.0	69.230	-0.060	0.240	0.110
2020/01/31 18:27:20.1	69.240	-0.060	0.280	0.150
2020/01/31 18:27:20.2	69.240	-0.070	0.310	0.190
2020/01/31 18:27:20.3	69.240	-0.070	0.350	0.230
2020/01/31 18:27:20.4	69.230	-0.080	0.390	0.270
2020/01/31 18:27:20.5	69.230	-0.090	0.420	0.310
2020/01/31 18:27:20.6	69.230	-0.100	0.450	0.350
2020/01/31 18:27:20.7	69.220	-0.110	0.490	0.390
2020/01/31 18:27:20.8	69.200	-0.120	0.510	0.420
2020/01/31 18:27:20.9	69.200	-0.140	0.540	0.460
2020/01/31 18:27:21.0	69.190	-0.160	0.560	0.490
2020/01/31 18:27:21.1	69.180	-0.170	0.580	0.520
2020/01/31 18:27:21.2	69.170	-0.190	0.600	0.550
2020/01/31 18:27:21.3	69.160	-0.210	0.620	0.570
2020/01/31 18:27:21.4	69.150	-0.230	0.640	0.590
2020/01/31 18:27:21.5	69.130	-0.260	0.650	0.610
2020/01/31 18:27:21.6	69.120	-0.280	0.660	0.630
2020/01/31 18:27:21.7	69.110	-0.300	0.660	0.650
2020/01/31 18:27:21.8	69.100	-0.320	0.670	0.660
2020/01/31 18:27:21.9	69.090	-0.350	0.670	0.670
2020/01/31 18:27:22.0	69.080	-0.370	0.670	0.680
2020/01/31 18:27:22.1	69.070	-0.390	0.660	0.690
2020/01/31 18:27:22.2	69.060	-0.410	0.650	0.690
2020/01/31 18:27:22.3	69.050	-0.430	0.640	0.690
2020/01/31 18:27:22.4	69.040	-0.450	0.630	0.690
2020/01/31 18:27:22.5	69.040	-0.470	0.610	0.690
2020/01/31 18:27:22.6	69.040	-0.490	0.590	0.690
2020/01/31 18:27:22.7	69.030	-0.500	0.560	0.680
2020/01/31 18:27:22.8	69.040	-0.520	0.530	0.670
2020/01/31 18:27:22.9	69.040	-0.530	0.500	0.660
2020/01/31 18:27:23.0	69.040	-0.540	0.460	0.640
2020/01/31 18:27:23.1	69.050	-0.540	0.420	0.620
2020/01/31 18:27:23.2	69.060	-0.550	0.380	0.600
2020/01/31 18:27:23.3	69.080	-0.550	0.330	0.570
2020/01/31 18:27:23.4	69.100	-0.550	0.270	0.540
2020/01/31 18:27:23.5	69.120	-0.540	0.210	0.500
2020/01/31 18:27:23.6	69.140	-0.530	0.150	0.460
2020/01/31 18:27:23.7	69.170	-0.520	0.080	0.420
2020/01/31 18:27:23.8	69.190	-0.510	0.010	0.370
2020/01/31 18:27:23.9	69.230	-0.490	-0.060	0.320
2020/01/31 18:27:24.0	69.260	-0.470	-0.140	0.260
2020/01/31 18:27:24.1	69.300	-0.450	-0.220	0.210
2020/01/31 18:27:24.2	69.340	-0.420	-0.300	0.150
2020/01/31 18:27:24.3	69.380	-0.390	-0.380	0.080
2020/01/31 18:27:24.4	69.420	-0.350	-0.470	0.020
2020/01/31 18:27:24.5	69.470	-0.320	-0.550	-0.040
2020/01/31 18:27:24.6	69.510	-0.280	-0.640	-0.110
2020/01/31 18:27:24.7	69.550	-0.240	-0.720	-0.170
2020/01/31 18:27:24.8	69.590	-0.190	-0.800	-0.240
2020/01/31 18:27:24.9	69.630	-0.140	-0.890	-0.300
2020/01/31 18:27:25.0	69.670	-0.100	-0.960	-0.350
2020/01/31 18:27:25.1	69.710	-0.050	-1.040	-0.410
2020/01/31 18:27:25.2	69.750	0.000	-1.110	-0.460
2020/01/31 18:27:25.3	69.790	0.060	-1.180	-0.510
2020/01/31 18:27:25.4	69.820	0.110	-1.240	-0.550
2020/01/31 18:27:25.5	69.850	0.160	-1.300	-0.600
2020/01/31 18:27:25.6	69.880	0.220	-1.350	-0.630
2020/01/31 18:27:25.7	69.910	0.270	-1.390	-0.660
2020/01/31 18:27:25.8	69.940	0.320	-1.430	-0.690
2020/01/31 18:27:25.9	69.960	0.370	-1.460	-0.710
2020/01/31 18:27:26.0	69.980	0.420	-1.490	-0.730
2020/01/31 18:27:26.1	70.000	0.470	-1.500	-0.750
2020/01/31 18:27:26.2	70.010	0.520	-1.510	-0.760
2020/01/31 18:27:26.3	70.020	0.560	-1.510	-0.760
2020/01/31 18:27:26.4	70.030	0.600	-1.500	-0.770
2020/01/31 18:27:26.5	70.040	0.640	-1.480	-0.760
2020/01/31 18:27:26.6	70.050	0.680	-1.460	-0.760
2020/01/31 18:27:26.7	70.050	0.710	-1.430	-0.750
2020/01/31 18:27:26.8	70.060	0.740	-1.380	-0.730
2020/01/31 18:27:26.9	70.060	0.760	-1.340	-0.720
2020/01/31 18:27:27.0	70.060	0.780	-1.280	-0.690
2020/01/31 18:27:27.1	70.060	0.800	-1.220	-0.670
2020/01/31 18:27:27.2	70.050	0.810	-1.150	-0.640
2020/01/31 18:27:27.3	70.050	0.810	-1.080	-0.610
2020/01/31 18:27:27.4	70.040	0.810	-1.000	-0.570
2020/01/31 18:27:27.5	70.040	0.810	-0.920	-0.530
2020/01/31 18:27:27.6	70.030	0.800	-0.840	-0.490
2020/01/31 18:27:27.7	70.020	0.790	-0.750	-0.450
2020/01/31 18:27:27.8	70.020	0.780	-0.660	-0.400
2020/01/31 18:27:27.9	70.010	0.760	-0.570	-0.360
2020/01/31 18:27:28.0	70.010	0.730	-0.470	-0.310
2020/01/31 18:27:28.1	70.000	0.700	-0.380	-0.260
2020/01/31 18:27:28.2	69.990	0.670	-0.280	-0.210
2020/01/31 18:27:28.3	69.980	0.630	-0.190	-0.160
2020/01/31 18:27:28.4	69.980	0.600	-0.100	-0.110
2020/01/31 18:27:28.5	69.970	0.550	-0.010	-0.070
2020/01/31 18:27:28.6	69.970	0.510	0.070	-0.020
2020/01/31 18:27:28.7	69.970	0.460	0.160	0.020
2020/01/31 18:27:28.8	69.970	0.410	0.240	0.060
2020/01/31 18:27:28.9	69.970	0.370	0.310	0.100
2020/01/31 18:27:29.0	69.970	0.320	0.380	0.130
2020/01/31 18:27:29.1	69.980	0.260	0.450	0.160
2020/01/31 18:27:29.2	69.990	0.210	0.510	0.190
2020/01/31 18:27:29.3	70.000	0.160	0.570	0.210
2020/01/31 18:27:29.4	70.010	0.110	0.620	0.230
2020/01/31 18:27:29.5	70.020	0.060	0.670	0.250
2020/01/31 18:27:29.6	70.040	0.010	0.710	0.260
2020/01/31 18:27:29.7	70.060	-0.030	0.750	0.270
2020/01/31 18:27:29.8	70.080	-0.080	0.790	0.270
2020/01/31 18:27:29.9	70.100	-0.120	0.810	0.280
2020/01/31 18:27:30.0	70.130	-0.160	0.840	0.280
2020/01/31 18:27:30.1	70.160	-0.190	0.850	0.280
2020/01/31 18:27:30.2	70.190	-0.230	0.870	0.280
2020/01/31 18:27:30.3	70.220	-0.260	0.880	0.280
2020/01/31 18:27:30.4	70.250	-0.290	0.880	0.280
2020/01/31 18:27:30.5	70.280	-0.310	0.890	0.270
2020/01/31 18:27:30.6	70.320	-0.330	0.880	0.270
2020/01/31 18:27:30.7	70.350	-0.350	0.880	0.270
2020/01/31 18:27:30.8	70.380	-0.360	0.870	0.270
2020/01/31 18:27:30.9	70.420	-0.380	0.850	0.270
2020/01/31 18:27:31.0	70.450	-0.380	0.840	0.270
2020/01/31 18:27:31.1	70.490	-0.390	0.820	0.270
2020/01/31 18:27:31.2	70.520	-0.390	0.800	0.270
2020/01/31 18:27:31.3	70.560	-0.400	0.770	0.280
2020/01/31 18:27:31.4	70.590	-0.390	0.740	0.280
2020/01/31 18:27:31.5	70.630	-0.390	0.710	0.280
2020/01/31 18:27:31.6	70.660	-0.390	0.670	0.290
2020/01/31 18:27:31.7	70.690	-0.380	0.630	0.300
2020/01/31 18:27:31.8	70.720	-0.370	0.580	0.300
2020/01/31 18:27:31.9	70.750	-0.360	0.540	0.310
2020/01/31 18:27:32.0	70.780	-0.350	0.490	0.320
2020/01/31 18:27:32.1	70.810	-0.340	0.430	0.330
2020/01/31 18:27:32.2	70.840	-0.320	0.370	0.340
2020/01/31 18:27:32.3	70.870	-0.310	0.320	0.340
2020/01/31 18:27:32.4	70.900	-0.300	0.250	0.350
2020/01/31 18:27:32.5	70.930	-0.280	0.190	0.360
2020/01/31 18:27:32.6	70.960	-0.270	0.120	0.370
2020/01/31 18:27:32.7	70.990	-0.250	0.050	0.380
2020/01/31 18:27:32.8	71.010	-0.240	-0.020	0.380
2020/01/31 18:27:32.9	71.040	-0.220	-0.090	0.390
2020/01/31 18:27:33.0	71.070	-0.210	-0.160	0.390
2020/01/31 18:27:33.1	71.100	-0.190	-0.230	0.400
2020/01/31 18:27:33.2	71.130	-0.180	-0.310	0.400
2020/01/31 18:27:33.3	71.160	-0.170	-0.380	0.400
2020/01/31 18:27:33.4	71.190	-0.150	-0.450	0.400
2020/01/31 18:27:33.5	71.220	-0.140	-0.520	0.400
2020/01/31 18:27:33.6	71.250	-0.130	-0.590	0.400
2020/01/31 18:27:33.7	71.280	-0.110	-0.650	0.400
2020/01/31 18:27:33.8	71.310	-0.100	-0.720	0.390
2020/01/31 18:27:33.9	71.340	-0.090	-0.780	0.390
2020/01/31 18:27:34.0	71.370	-0.080	-0.830	0.380
2020/01/31 18:27:34.1	71.400	-0.070	-0.890	0.370
2020/01/31 18:27:34.2	71.430	-0.060	-0.940	0.370
2020/01/31 18:27:34.3	71.460	-0.040	-0.980	0.360
2020/01/31 18:27:34.4	71.480	-0.030	-1.010	0.350
2020/01/31 18:27:34.5	71.510	-0.020	-1.050	0.340
2020/01/31 18:27:34.6	71.530	-0.020	-1.070	0.340
2020/01/31 18:27:34.7	71.550	-0.010	-1.090	0.340
2020/01/31 18:27:34.8	71.570	0.000	-1.100	0.330
2020/01/31 18:27:34.9	71.590	0.010	-1.110	0.330
2020/01/31 18:27:35.0	71.600	0.010	-1.110	0.330
2020/01/31 18:27:35.1	71.610	0.020	-1.100	0.340
2020/01/31 18:27:35.2	71.620	0.020	-1.080	0.340
2020/01/31 18:27:35.3	71.630	0.030	-1.060	0.340
2020/01/31 18:27:35.4	71.640	0.030	-1.030	0.350
2020/01/31 18:27:35.5	71.640	0.030	-1.000	0.360
2020/01/31 18:27:35.6	71.640	0.030	-0.960	0.370
2020/01/31 18:27:35.7	71.640	0.030	-0.910	0.380
2020/01/31 18:27:35.8	71.630	0.030	-0.860	0.390
2020/01/31 18:27:35.9	71.620	0.030	-0.800	0.400
2020/01/31 18:27:36.0	71.610	0.020	-0.740	0.410
2020/01/31 18:27:36.1	71.600	0.020	-0.680	0.420
2020/01/31 18:27:36.2	71.590	0.010	-0.610	0.430
2020/01/31 18:27:36.3	71.570	0.010	-0.540	0.450
2020/01/31 18:27:36.4	71.560	0.000	-0.470	0.460
2020/01/31 18:27:36.5	71.540	-0.000	-0.400	0.470
2020/01/31 18:27:36.6	71.520	-0.010	-0.330	0.480
2020/01/31 18:27:36.7	71.500	-0.020	-0.260	0.490
2020/01/31 18:27:36.8	71.490	-0.030	-0.190	0.500
2020/01/31 18:27:36.9	71.470	-0.030	-0.120	0.500
2020/01/31 18:27:37.0	71.460	-0.040	-0.050	0.510
2020/01/31 18:27:37.1	71.440	-0.050	0.010	0.510
2020/01/31 18:27:37.2	71.430	-0.050	0.070	0.510
2020/01/31 18:27:37.3	71.410	-0.060	0.120	0.510
2020/01/31 18:27:37.4	71.400	-0.060	0.170	0.510
2020/01/31 18:27:37.5	71.400	-0.070	0.220	0.500
2020/01/31 18:27:37.6	71.390	-0.070	0.260	0.490
2020/01/31 18:27:37.7	71.390	-0.070	0.290	0.470
2020/01/31 18:27:37.8	71.390	-0.070	0.320	0.460
2020/01/31 18:27:37.9	71.390	-0.070	0.340	0.430
2020/01/31 18:27:38.0	71.400	-0.060	0.360	0.410
2020/01/31 18:27:38.1	71.400	-0.060	0.370	0.380
2020/01/31 18:27:38.2	71.420	-0.050	0.370	0.350
2020/01/31 18:27:38.3	71.430	-0.040	0.360	0.310
2020/01/31 18:27:38.4	71.450	-0.030	0.350	0.270
2020/01/31 18:27:38.5	71.470	-0.020	0.340	0.230
2020/01/31 18:27:38.6	71.490	-0.010	0.320	0.190
2020/01/31 18:27:38.7	71.510	0.000	0.290	0.140
2020/01/31 18:27:38.8	71.540	0.020	0.260	0.090
2020/01/31 18:27:38.9	71.570	0.030	0.230	0.040
2020/01/31 18:27:39.0	71.600	0.050	0.190	-0.010
2020/01/31 18:27:39.1	71.630	0.070	0.150	-0.060
2020/01/31 18:27:39.2	71.660	0.080	0.110	-0.120
2020/01/31 18:27:39.3	71.700	0.100	0.060	-0.170
2020/01/31 18:27:39.4	71.730	0.120	0.020	-0.230
2020/01/31 18:27:39.5	71.760	0.130	-0.030	-0.280
2020/01/31 18:27:39.6	71.800	0.150	-0.080	-0.340
2020/01/31 18:27:39.7	71.830	0.160	-0.120	-0.390
2020/01/31 18:27:39.8	71.870	0.180	-0.170	-0.440
2020/01/31 18:27:39.9	71.900	0.190	-0.210	-0.490
2020/01/31 18:27:40.0	71.930	0.200	-0.250	-0.540
2020/01/31 18:27:40.1	71.960	0.210	-0.280	-0.580
2020/01/31 18:27:40.2	71.990	0.220	-0.310	-0.620
2020/01/31 18:27:40.3	72.010	0.230	-0.340	-0.660
2020/01/31 18:27:40.4	72.040	0.230	-0.370	-0.690
2020/01/31 18:27:40.5	72.060	0.230	-0.390	-0.720
2020/01/31 18:27:40.6	72.080	0.230	-0.400	-0.750
2020/01/31 18:27:40.7	72.100	0.230	-0.410	-0.770
2020/01/31 18:27:40.8	72.120	0.230	-0.420	-0.790
2020/01/31 18:27:40.9	72.140	0.220	-0.420	-0.800
2020/01/31 18:27:41.0	72.160	0.220	-0.420	-0.820
2020/01/31 18:27:41.1	72.180	0.210	-0.410	-0.830
2020/01/31 18:27:41.2	72.190	0.200	-0.400	-0.830
2020/01/31 18:27:41.3	72.210	0.190	-0.390	-0.830
2020/01/31 18:27:41.4	72.220	0.170	-0.380	-0.830
2020/01/31 18:27:41.5	72.240	0.160	-0.360	-0.830
2020/01/31 18:27:41.6	72.260	0.150	-0.340	-0.830
2020/01/31 18:27:41.7	72.280	0.130	-0.320	-0.820
2020/01/31 18:27:41.8	72.290	0.110	-0.290	-0.810
2020/01/31 18:27:41.9	72.310	0.100	-0.270	-0.800
2020/01/31 18:27:42.0	72.340	0.080	-0.250	-0.790
2020/01/31 18:27:42.1	72.360	0.060	-0.220	-0.780
2020/01/31 18:27:42.2	72.380	0.050	-0.200	-0.770
2020/01/31 18:27:42.3	72.410	0.030	-0.180	-0.750
2020/01/31 18:27:42.4	72.430	0.010	-0.160	-0.740
2020/01/31 18:27:42.5	72.460	-0.000	-0.140	-0.720
2020/01/31 18:27:42.6	72.490	-0.010	-0.130	-0.710
2020/01/31 18:27:42.7	72.520	-0.030	-0.110	-0.690
2020/01/31 18:27:42.8	72.540	-0.040	-0.100	-0.670
2020/01/31 18:27:42.9	72.580	-0.050	-0.090	-0.660
2020/01/31 18:27:43.0	72.610	-0.060	-0.080	-0.640
2020/01/31 18:27:43.1	72.640	-0.070	-0.080	-0.620
2020/01/31 18:27:43.2	72.670	-0.080	-0.080	-0.600
2020/01/31 18:27:43.3	72.700	-0.090	-0.070	-0.580
2020/01/31 18:27:43.4	72.740	-0.090	-0.080	-0.550
2020/01/31 18:27:43.5	72.770	-0.090	-0.080	-0.530
2020/01/31 18:27:43.6	72.800	-0.100	-0.080	-0.510
2020/01/31 18:27:43.7	72.830	-0.100	-0.090	-0.480
2020/01/31 18:27:43.8	72.860	-0.100	-0.100	-0.460
2020/01/31 18:27:43.9	72.890	-0.100	-0.100	-0.430
2020/01/31 18:27:44.0	72.920	-0.090	-0.110	-0.400
2020/01/31 18:27:44.1	72.940	-0.090	-0.120	-0.370
2020/01/31 18:27:44.2	72.960	-0.090	-0.120	-0.330
2020/01/31 18:27:44.3	72.980	-0.080	-0.130	-0.300
2020/01/31 18:27:44.4	73.000	-0.080	-0.130	-0.260
2020/01/31 18:27:44.5	73.020	-0.070	-0.130	-0.220
2020/01/31 18:27:44.6	73.030	-0.060	-0.130	-0.170
2020/01/31 18:27:44.7	73.040	-0.060	-0.130	-0.130
2020/01/31 18:27:44.8	73.060	-0.050	-0.130	-0.080
2020/01/31 18:27:44.9	73.060	-0.050	-0.120	-0.020
2020/01/31 18:27:45.0	73.060	-0.040	-0.110	0.030
2020/01/31 18:27:45.1	73.060	-0.040	-0.100	0.090
2020/01/31 18:27:45.2	73.050	-0.030	-0.090	0.150
2020/01/31 18:27:45.3	73.040	-0.030	-0.080	0.210
2020/01/31 18:27:45.4	73.030	-0.030	-0.060	0.270
2020/01/31 18:27:45.5	73.020	-0.020	-0.050	0.330
2020/01/31 18:27:45.6	73.000	-0.020	-0.030	0.400
2020/01/31 18:27:45.7	72.980	-0.020	-0.020	0.460
2020/01/31 18:27:45.8	72.960	-0.020	-0.000	0.530
2020/01/31 18:27:45.9	72.940	-0.030	0.010	0.600
2020/01/31 18:27:46.0	72.910	-0.030	0.030	0.660
2020/01/31 18:27:46.1	72.880	-0.040	0.040	0.720
2020/01/31 18:27:46.2	72.850	-0.040	0.050	0.790
2020/01/31 18:27:46.3	72.820	-0.050	0.060	0.850
2020/01/31 18:27:46.4	72.790	-0.060	0.070	0.900
2020/01/31 18:27:46.5	72.760	-0.060	0.080	0.960
2020/01/31 18:27:46.6	72.730	-0.070	0.080	1.010
2020/01/31 18:27:46.7	72.700	-0.090	0.080	1.060
2020/01/31 18:27:46.8	72.680	-0.100	0.080	1.100
2020/01/31 18:27:46.9	72.650	-0.110	0.080	1.140
2020/01/31 18:27:47.0	72.620	-0.120	0.070	1.180
2020/01/31 18:27:47.1	72.590	-0.140	0.060	1.210
2020/01/31 18:27:47.2	72.560	-0.150	0.050	1.240
2020/01/31 18:27:47.3	72.530	-0.160	0.040	1.260
2020/01/31 18:27:47.4	72.510	-0.180	0.020	1.280
2020/01/31 18:27:47.5	72.480	-0.190	-0.000	1.290
2020/01/31 18:27:47.6	72.460	-0.200	-0.020	1.300
2020/01/31 18:27:47.7	72.440	-0.210	-0.050	1.300
2020/01/31 18:27:47.8	72.420	-0.220	-0.080	1.300
2020/01/31 18:27:47.9	72.410	-0.230	-0.110	1.290
2020/01/31 18:27:48.0	72.400	-0.240	-0.140	1.280
2020/01/31 18:27:48.1	72.390	-0.250	-0.170	1.260
2020/01/31 18:27:48.2	72.380	-0.250	-0.210	1.230
2020/01/31 18:27:48.3	72.380	-0.250	-0.240	1.200
2020/01/31 18:27:48.4	72.380	-0.260	-0.280	1.160
2020/01/31 18:27:48.5	72.390	-0.250	-0.320	1.120
2020/01/31 18:27:48.6	72.400	-0.250	-0.360	1.070
2020/01/31 18:27:48.7	72.410	-0.240	-0.390	1.020
2020/01/31 18:27:48.8	72.420	-0.240	-0.430	0.960
2020/01/31 18:27:48.9	72.450	-0.230	-0.470	0.900
2020/01/31 18:27:49.0	72.470	-0.210	-0.510	0.830
2020/01/31 18:27:49.1	72.500	-0.200	-0.550	0.760
2020/01/31 18:27:49.2	72.530	-0.180	-0.580	0.690
2020/01/31 18:27:49.3	72.570	-0.160	-0.610	0.610
2020/01/31 18:27:49.4	72.610	-0.140	-0.640	0.530
2020/01/31 18:27:49.5	72.660	-0.110	-0.670	0.450
2020/01/31 18:27:49.6	72.710	-0.090	-0.700	0.370
2020/01/31 18:27:49.7	72.760	-0.060	-0.720	0.280
2020/01/31 18:27:49.8	72.800	-0.030	-0.740	0.200
2020/01/31 18:27:49.9	72.860	-0.000	-0.750	0.120
2020/01/31 18:27:50.0	72.920	0.020	-0.760	0.030
2020/01/31 18:27:50.1	72.970	0.050	-0.770	-0.050
2020/01/31 18:27:50.2	73.030	0.080	-0.770	-0.130
2020/01/31 18:27:50.3	73.090	0.110	-0.770	-0.200
2020/01/31 18:27:50.4	73.150	0.140	-0.760	-0.270
2020/01/31 18:27:50.5	73.210	0.170	-0.750	-0.340
2020/01/31 18:27:50.6	73.260	0.190	-0.730	-0.410
2020/01/31 18:27:50.7	73.310	0.220	-0.710	-0.460
2020/01/31 18:27:50.8	73.360	0.240	-0.680	-0.520
2020/01/31 18:27:50.9	73.410	0.260	-0.640	-0.570
2020/01/31 18:27:51.0	73.450	0.280	-0.600	-0.610
2020/01/31 18:27:51.1	73.490	0.290	-0.560	-0.650
2020/01/31 18:27:51.2	73.520	0.310	-0.510	-0.680
2020/01/31 18:27:51.3	73.550	0.320	-0.460	-0.700
2020/01/31 18:27:51.4	73.570	0.320	-0.400	-0.720
2020/01/31 18:27:51.5	73.590	0.330	-0.340	-0.740
2020/01/31 18:27:51.6	73.600	0.330	-0.280	-0.750
2020/01/31 18:27:51.7	73.600	0.330	-0.220	-0.750
2020/01/31 18:27:51.8	73.610	0.320	-0.150	-0.750
2020/01/31 18:27:51.9	73.610	0.310	-0.090	-0.740
2020/01/31 18:27:52.0	73.600	0.310	-0.020	-0.730
2020/01/31 18:27:52.1	73.590	0.290	0.040	-0.720
2020/01/31 18:27:52.2	73.580	0.280	0.100	-0.710
2020/01/31 18:27:52.3	73.560	0.270	0.160	-0.690
2020/01/31 18:27:52.4	73.540	0.250	0.220	-0.680
2020/01/31 18:27:52.5	73.510	0.230	0.270	-0.660
2020/01/31 18:27:52.6	73.490	0.210	0.320	-0.640
2020/01/31 18:27:52.7	73.460	0.190	0.360	-0.630
2020/01/31 18:27:52.8	73.450	0.170	0.400	-0.610
2020/01/31 18:27:52.9	73.420	0.150	0.430	-0.600
2020/01/31 18:27:53.0	73.390	0.120	0.450	-0.580
2020/01/31 18:27:53.1	73.370	0.100	0.470	-0.570
2020/01/31 18:27:53.2	73.340	0.080	0.480	-0.560
2020/01/31 18:27:53.3	73.310	0.060	0.490	-0.550
2020/01/31 18:27:53.4	73.290	0.040	0.490	-0.540
2020/01/31 18:27:53.5	73.260	0.020	0.480	-0.540
2020/01/31 18:27:53.6	73.240	0.000	0.470	-0.530
2020/01/31 18:27:53.7	73.220	-0.020	0.450	-0.530
2020/01/31 18:27:53.8	73.200	-0.030	0.430	-0.520
2020/01/31 18:27:53.9	73.180	-0.050	0.400	-0.520
2020/01/31 18:27:54.0	73.160	-0.070	0.370	-0.520
2020/01/31 18:27:54.1	73.140	-0.080	0.340	-0.510
2020/01/31 18:27:54.2	73.120	-0.090	0.300	-0.510
2020/01/31 18:27:54.3	73.100	-0.100	0.270	-0.500
2020/01/31 18:27:54.4	73.090	-0.110	0.230	-0.490
2020/01/31 18:27:54.5	73.070	-0.120	0.190	-0.480
2020/01/31 18:27:54.6	73.060	-0.130	0.140	-0.470
2020/01/31 18:27:54.7	73.040	-0.140	0.100	-0.460
2020/01/31 18:27:54.8	73.020	-0.140	0.060	-0.440
2020/01/31 18:27:54.9	73.010	-0.150	0.020	-0.420
2020/01/31 18:27:55.0	72.990	-0.150	-0.020	-0.400
2020/01/31 18:27:55.1	72.980	-0.160	-0.060	-0.380
2020/01/31 18:27:55.2	72.970	-0.160	-0.100	-0.360
2020/01/31 18:27:55.3	72.960	-0.160	-0.140	-0.340
2020/01/31 18:27:55.4	72.950	-0.170	-0.170	-0.310
2020/01/31 18:27:55.5	72.940	-0.170	-0.210	-0.290
2020/01/31 18:27:55.6	72.930	-0.170	-0.240	-0.260
2020/01/31 18:27:55.7	72.920	-0.170	-0.270	-0.240
2020/01/31 18:27:55.8	72.920	-0.170	-0.310	-0.210
2020/01/31 18:27:55.9	72.920	-0.170	-0.330	-0.190
2020/01/31 18:27:56.0	72.910	-0.160	-0.360	-0.160
2020/01/31 18:27:56.1	72.910	-0.160	-0.390	-0.140
2020/01/31 18:27:56.2	72.920	-0.160	-0.410	-0.120
2020/01/31 18:27:56.3	72.920	-0.160	-0.430	-0.100
2020/01/31 18:27:56.4	72.920	-0.150	-0.460	-0.080
2020/01/31 18:27:56.5	72.930	-0.150	-0.480	-0.060
2020/01/31 18:27:56.6	72.940	-0.140	-0.490	-0.040
2020/01/31 18:27:56.7	72.950	-0.140	-0.510	-0.030
2020/01/31 18:27:56.8	72.960	-0.130	-0.530	-0.020
2020/01/31 18:27:56.9	72.980	-0.130	-0.540	-0.000
2020/01/31 18:27:57.0	72.990	-0.120	-0.560	0.010
2020/01/31 18:27:57.1	73.010	-0.110	-0.570	0.010
2020/01/31 18:27:57.2	73.020	-0.100	-0.580	0.020
2020/01/31 18:27:57.3	73.040	-0.090	-0.590	0.020
2020/01/31 18:27:57.4	73.060	-0.080	-0.600	0.030
2020/01/31 18:27:57.5	73.080	-0.070	-0.610	0.030
2020/01/31 18:27:57.6	73.110	-0.060	-0.610	0.030
2020/01/31 18:27:57.7	73.130	-0.050	-0.620	0.020
2020/01/31 18:27:57.8	73.150	-0.040	-0.620	0.020
2020/01/31 18:27:57.9	73.180	-0.030	-0.630	0.010
2020/01/31 18:27:58.0	73.210	-0.020	-0.630	0.010
2020/01/31 18:27:58.1	73.230	-0.000	-0.630	-0.000
2020/01/31 18:27:58.2	73.260	0.010	-0.630	-0.010
2020/01/31 18:27:58.3	73.300	0.020	-0.630	-0.020
2020/01/31 18:27:58.4	73.330	0.030	-0.620	-0.040
2020/01/31 18:27:58.5	73.360	0.040	-0.620	-0.050
2020/01/31 18:27:58.6	73.390	0.050	-0.610	-0.060
2020/01/31 18:27:58.7	73.420	0.060	-0.600	-0.070
2020/01/31 18:27:58.8	73.450	0.070	-0.580	-0.080
2020/01/31 18:27:58.9	73.480	0.080	-0.570	-0.090
2020/01/31 18:27:59.0	73.510	0.090	-0.550	-0.100
2020/01/31 18:27:59.1	73.540	0.090	-0.520	-0.110
2020/01/31 18:27:59.2	73.570	0.100	-0.500	-0.110
2020/01/31 18:27:59.3	73.590	0.100	-0.470	-0.110
2020/01/31 18:27:59.4	73.610	0.110	-0.430	-0.110
2020/01/31 18:27:59.5	73.640	0.110	-0.390	-0.110
2020/01/31 18:27:59.6	73.650	0.110	-0.350	-0.100
2020/01/31 18:27:59.7	73.670	0.110	-0.310	-0.090
2020/01/31 18:27:59.8	73.690	0.110	-0.250	-0.070
2020/01/31 18:27:59.9	73.700	0.100	-0.200	-0.050
2020/01/31 18:28:00.0	73.700	0.100	-0.150	-0.030
2020/01/31 18:28:00.1	73.710	0.090	-0.090	-0.010
2020/01/31 18:28:00.2	73.710	0.080	-0.030	0.020
2020/01/31 18:28:00.3	73.710	0.070	0.030	0.060
2020/01/31 18:28:00.4	73.700	0.060	0.090	0.090
2020/01/31 18:28:00.5	73.690	0.050	0.150	0.130
2020/01/31 18:28:00.6	73.680	0.030	0.210	0.180
2020/01/31 18:28:00.7	73.670	0.020	0.260	0.220
2020/01/31 18:28:00.8	73.660	0.010	0.320	0.270
2020/01/31 18:28:00.9	73.640	-0.010	0.370	0.320
2020/01/31 18:28:01.0	73.620	-0.020	0.420	0.360
2020/01/31 18:28:01.1	73.610	-0.040	0.470	0.410
2020/01/31 18:28:01.2	73.580	-0.050	0.510	0.460
2020/01/31 18:28:01.3	73.560	-0.060	0.550	0.510
2020/01/31 18:28:01.4	73.540	-0.080	0.580	0.560
2020/01/31 18:28:01.5	73.520	-0.090	0.610	0.610
2020/01/31 18:28:01.6	73.500	-0.100	0.620	0.650
2020/01/31 18:28:01.7	73.480	-0.100	0.630	0.690
2020/01/31 18:28:01.8	73.470	-0.110	0.630	0.730
2020/01/31 18:28:01.9	73.450	-0.120	0.630	0.770
2020/01/31 18:28:02.0	73.430	-0.120	0.610	0.800
2020/01/31 18:28:02.1	73.420	-0.120	0.590	0.830
2020/01/31 18:28:02.2	73.400	-0.120	0.560	0.850
2020/01/31 18:28:02.3	73.390	-0.110	0.520	0.880
2020/01/31 18:28:02.4	73.380	-0.110	0.480	0.890
2020/01/31 18:28:02.5	73.370	-0.100	0.420	0.910
2020/01/31 18:28:02.6	73.360	-0.090	0.360	0.910
2020/01/31 18:28:02.7	73.360	-0.070	0.300	0.920
2020/01/31 18:28:02.8	73.360	-0.060	0.220	0.920
2020/01/31 18:28:02.9	73.350	-0.040	0.150	0.910
2020/01/31 18:28:03.0	73.350	-0.020	0.070	0.910
2020/01/31 18:28:03.1	73.350	-0.000	-0.020	0.890
2020/01/31 18:28:03.2	73.350	0.020	-0.100	0.880
2020/01/31 18:28:03.3	73.350	0.040	-0.190	0.860
2020/01/31 18:28:03.4	73.360	0.060	-0.280	0.840
2020/01/31 18:28:03.5	73.360	0.090	-0.360	0.820
2020/01/31 18:28:03.6	73.360	0.110	-0.450	0.790
2020/01/31 18:28:03.7	73.370	0.130	-0.530	0.760
2020/01/31 18:28:03.8	73.370	0.150	-0.610	0.730
2020/01/31 18:28:03.9	73.370	0.170	-0.680	0.700
2020/01/31 18:28:04.0	73.380	0.190	-0.750	0.670
2020/01/31 18:28:04.1	73.380	0.210	-0.820	0.640
2020/01/31 18:28:04.2	73.390	0.220	-0.870	0.610
2020/01/31 18:28:04.3	73.390	0.230	-0.920	0.570
2020/01/31 18:28:04.4	73.390	0.240	-0.960	0.540
2020/01/31 18:28:04.5	73.400	0.250	-1.000	0.510
2020/01/31 18:28:04.6	73.400	0.250	-1.020	0.470
2020/01/31 18:28:04.7	73.410	0.250	-1.040	0.440
2020/01/31 18:28:04.8	73.420	0.240	-1.050	0.400
2020/01/31 18:28:04.9	73.420	0.230	-1.050	0.370
2020/01/31 18:28:05.0	73.430	0.220	-1.040	0.330
2020/01/31 18:28:05.1	73.430	0.200	-1.020	0.300
2020/01/31 18:28:05.2	73.440	0.190	-1.000	0.260
2020/01/31 18:28:05.3	73.440	0.160	-0.970	0.230
2020/01/31 18:28:05.4	73.450	0.140	-0.930	0.190
2020/01/31 18:28:05.5	73.450	0.110	-0.890	0.160
2020/01/31 18:28:05.6	73.460	0.080	-0.830	0.120
2020/01/31 18:28:05.7	73.460	0.040	-0.780	0.090
2020/01/31 18:28:05.8	73.470	0.010	-0.720	0.050
2020/01/31 18:28:05.9	73.480	-0.030	-0.650	0.010
2020/01/31 18:28:06.0	73.480	-0.060	-0.580	-0.020
2020/01/31 18:28:06.1	73.490	-0.100	-0.510	-0.050
2020/01/31 18:28:06.2	73.490	-0.140	-0.440	-0.090
2020/01/31 18:28:06.3	73.500	-0.180	-0.360	-0.120
2020/01/31 18:28:06.4	73.500	-0.220	-0.290	-0.150
2020/01/31 18:28:06.5	73.510	-0.250	-0.210	-0.180
2020/01/31 18:28:06.6	73.510	-0.290	-0.130	-0.200
2020/01/31 18:28:06.7	73.520	-0.320	-0.060	-0.230
2020/01/31 18:28:06.8	73.520	-0.350	0.020	-0.260
2020/01/31 18:28:06.9	73.530	-0.380	0.090	-0.280
2020/01/31 18:28:07.0	73.540	-0.410	0.150	-0.310
2020/01/31 18:28:07.1	73.540	-0.430	0.220	-0.330
2020/01/31 18:28:07.2	73.550	-0.450	0.280	-0.350
2020/01/31 18:28:07.3	73.560	-0.470	0.340	-0.370
2020/01/31 18:28:07.4	73.560	-0.480	0.390	-0.380
2020/01/31 18:28:07.5	73.570	-0.490	0.440	-0.400
2020/01/31 18:28:07.6	73.580	-0.490	0.480	-0.420
2020/01/31 18:28:07.7	73.590	-0.490	0.510	-0.430
2020/01/31 18:28:07.8	73.590	-0.490	0.550	-0.450
2020/01/31 18:28:07.9	73.600	-0.480	0.570	-0.470
2020/01/31 18:28:08.0	73.610	-0.470	0.590	-0.480
2020/01/31 18:28:08.1	73.620	-0.460	0.600	-0.500
2020/01/31 18:28:08.2	73.640	-0.440	0.600	-0.510
2020/01/31 18:28:08.3	73.650	-0.410	0.600	-0.520
2020/01/31 18:28:08.4	73.660	-0.390	0.590	-0.540
2020/01/31 18:28:08.5	73.680	-0.360	0.570	-0.550
2020/01/31 18:28:08.6	73.690	-0.320	0.550	-0.560
2020/01/31 18:28:08.7	73.710	-0.290	0.520	-0.570
2020/01/31 18:28:08.8	73.730	-0.250	0.490	-0.580
2020/01/31 18:28:08.9	73.740	-0.210	0.450	-0.580
2020/01/31 18:28:09.0	73.750	-0.170	0.410	-0.590
2020/01/31 18:28:09.1	73.770	-0.120	0.360	-0.590
2020/01/31 18:28:09.2	73.780	-0.080	0.310	-0.590
2020/01/31 18:28:09.3	73.790	-0.030	0.260	-0.590
2020/01/31 18:28:09.4	73.790	0.010	0.200	-0.590
2020/01/31 18:28:09.5	73.800	0.050	0.140	-0.580
2020/01/31 18:28:09.6	73.800	0.100	0.080	-0.570
2020/01/31 18:28:09.7	73.810	0.140	0.020	-0.560
2020/01/31 18:28:09.8	73.810	0.180	-0.050	-0.540
2020/01/31 18:28:09.9	73.810	0.220	-0.110	-0.530
2020/01/31 18:28:10.0	73.810	0.260	-0.170	-0.510
2020/01/31 18:28:10.1	73.800	0.290	-0.230	-0.490
2020/01/31 18:28:10.2	73.800	0.330	-0.300	-0.470
2020/01/31 18:28:10.3	73.800	0.360	-0.360	-0.440
2020/01/31 18:28:10.4	73.790	0.380	-0.420	-0.420
2020/01/31 18:28:10.5	73.780	0.410	-0.470	-0.390
2020/01/31 18:28:10.6	73.780	0.430	-0.530	-0.370
2020/01/31 18:28:10.7	73.780	0.440	-0.580	-0.340
2020/01/31 18:28:10.8	73.780	0.460	-0.630	-0.320
2020/01/31 18:28:10.9	73.780	0.470	-0.680	-0.290
2020/01/31 18:28:11.0	73.780	0.470	-0.720	-0.260
2020/01/31 18:28:11.1	73.780	0.480	-0.770	-0.240
2020/01/31 18:28:11.2	73.780	0.480	-0.810	-0.210
2020/01/31 18:28:11.3	73.780	0.480	-0.840	-0.190
2020/01/31 18:28:11.4	73.790	0.470	-0.870	-0.170
2020/01/31 18:28:11.5	73.800	0.460	-0.900	-0.140
2020/01/31 18:28:11.6	73.810	0.450	-0.930	-0.120
2020/01/31 18:28:11.7	73.830	0.440	-0.950	-0.100
2020/01/31 18:28:11.8	73.840	0.430	-0.970	-0.090
2020/01/31 18:28:11.9	73.860	0.410	-0.980	-0.070
2020/01/31 18:28:12.0	73.880	0.390	-0.980	-0.050
2020/01/31 18:28:12.1	73.900	0.370	-0.980	-0.040
2020/01/31 18:28:12.2	73.920	0.350	-0.980	-0.020
2020/01/31 18:28:12.3	73.950	0.320	-0.970	-0.000
2020/01/31 18:28:12.4	73.970	0.300	-0.950	0.010
2020/01/31 18:28:12.5	74.000	0.280	-0.930	0.030
2020/01/31 18:28:12.6	74.030	0.250	-0.900	0.040
2020/01/31 18:28:12.7	74.060	0.220	-0.870	0.050
2020/01/31 18:28:12.8	74.090	0.200	-0.830	0.070
2020/01/31 18:28:12.9	74.120	0.170	-0.780	0.080
2020/01/31 18:28:13.0	74.150	0.140	-0.730	0.100
2020/01/31 18:28:13.1	74.170	0.110	-0.670	0.110
2020/01/31 18:28:13.2	74.200	0.080	-0.610	0.120
2020/01/31 18:28:13.3	74.220	0.050	-0.540	0.140
2020/01/31 18:28:13.4	74.250	0.020	-0.470	0.150
2020/01/31 18:28:13.5	74.270	-0.010	-0.400	0.160
2020/01/31 18:28:13.6	74.290	-0.040	-0.320	0.170
2020/01/31 18:28:13.7	74.300	-0.070	-0.240	0.190
2020/01/31 18:28:13.8	74.320	-0.100	-0.150	0.190
2020/01/31 18:28:13.9	74.340	-0.130	-0.060	0.210
2020/01/31 18:28:14.0	74.340	-0.160	0.020	0.220
2020/01/31 18:28:14.1	74.350	-0.190	0.110	0.230
2020/01/31 18:28:14.2	74.350	-0.220	0.200	0.240
2020/01/31 18:28:14.3	74.350	-0.250	0.280	0.260
2020/01/31 18:28:14.4	74.350	-0.280	0.370	0.270
2020/01/31 18:28:14.5	74.340	-0.310	0.450	0.280
2020/01/31 18:28:14.6	74.340	-0.330	0.530	0.300
2020/01/31 18:28:14.7	74.330	-0.360	0.610	0.320
2020/01/31 18:28:14.8	74.320	-0.380	0.680	0.340
2020/01/31 18:28:14.9	74.300	-0.400	0.750	0.350
2020/01/31 18:28:15.0	74.290	-0.420	0.810	0.370
2020/01/31 18:28:15.1	74.270	-0.440	0.860	0.400
2020/01/31 18:28:15.2	74.250	-0.460	0.910	0.420
2020/01/31 18:28:15.3	74.230	-0.470	0.950	0.440
2020/01/31 18:28:15.4	74.210	-0.480	0.980	0.460
2020/01/31 18:28:15.5	74.190	-0.490	1.010	0.490
2020/01/31 18:28:15.6	74.170	-0.500	1.020	0.510
2020/01/31 18:28:15.7	74.150	-0.500	1.030	0.530
2020/01/31 18:28:15.8	74.130	-0.500	1.030	0.560
2020/01/31 18:28:15.9	74.110	-0.490	1.020	0.580
2020/01/31 18:28:16.0	74.090	-0.490	0.990	0.600
2020/01/31 18:28:16.1	74.070	-0.480	0.960	0.620
2020/01/31 18:28:16.2	74.050	-0.460	0.920	0.640
2020/01/31 18:28:16.3	74.040	-0.450	0.870	0.650
2020/01/31 18:28:16.4	74.020	-0.430	0.810	0.670
2020/01/31 18:28:16.5	74.000	-0.400	0.750	0.680
2020/01/31 18:28:16.6	73.990	-0.380	0.670	0.690
2020/01/31 18:28:16.7	73.980	-0.350	0.590	0.700
2020/01/31 18:28:16.8	73.960	-0.320	0.490	0.700
2020/01/31 18:28:16.9	73.960	-0.280	0.400	0.700
2020/01/31 18:28:17.0	73.950	-0.250	0.290	0.700
2020/01/31 18:28:17.1	73.950	-0.210	0.190	0.690
2020/01/31 18:28:17.2	73.950	-0.170	0.070	0.690
2020/01/31 18:28:17.3	73.950	-0.130	-0.040	0.680
2020/01/31 18:28:17.4	73.950	-0.080	-0.160	0.660
2020/01/31 18:28:17.5	73.950	-0.040	-0.280	0.650
2020/01/31 18:28:17.6	73.960	0.000	-0.400	0.630
2020/01/31 18:28:17.7	73.970	0.050	-0.520	0.610
2020/01/31 18:28:17.8	73.960	0.090	-0.640	0.590
2020/01/31 18:28:17.9	73.970	0.140	-0.750	0.560
2020/01/31 18:28:18.0	73.990	0.180	-0.870	0.530
2020/01/31 18:28:18.1	74.000	0.230	-0.980	0.500
2020/01/31 18:28:18.2	74.020	0.270	-1.080	0.460
2020/01/31 18:28:18.3	74.030	0.310	-1.180	0.420
2020/01/31 18:28:18.4	74.050	0.350	-1.270	0.380
2020/01/31 18:28:18.5	74.070	0.390	-1.360	0.340
2020/01/31 18:28:18.6	74.090	0.420	-1.430	0.300
2020/01/31 18:28:18.7	74.110	0.460	-1.500	0.260
2020/01/31 18:28:18.8	74.130	0.490	-1.560	0.210
2020/01/31 18:28:18.9	74.160	0.520	-1.610	0.160
2020/01/31 18:28:19.0	74.180	0.550	-1.650	0.120
2020/01/31 18:28:19.1	74.200	0.570	-1.670	0.070
2020/01/31 18:28:19.2	74.230	0.590	-1.690	0.030
2020/01/31 18:28:19.3	74.250	0.610	-1.690	-0.020
2020/01/31 18:28:19.4	74.280	0.630	-1.690	-0.060
2020/01/31 18:28:19.5	74.310	0.640	-1.670	-0.100
2020/01/31 18:28:19.6	74.330	0.650	-1.640	-0.140
2020/01/31 18:28:19.7	74.360	0.650	-1.600	-0.180
2020/01/31 18:28:19.8	74.380	0.660	-1.550	-0.220
2020/01/31 18:28:19.9	74.400	0.660	-1.490	-0.250
2020/01/31 18:28:20.0	74.430	0.650	-1.420	-0.280
2020/01/31 18:28:20.1	74.450	0.640	-1.350	-0.320
2020/01/31 18:28:20.2	74.480	0.630	-1.260	-0.350
2020/01/31 18:28:20.3	74.500	0.620	-1.170	-0.370
2020/01/31 18:28:20.4	74.520	0.600	-1.070	-0.400
2020/01/31 18:28:20.5	74.550	0.580	-0.970	-0.420
2020/01/31 18:28:20.6	74.570	0.560	-0.860	-0.440
2020/01/31 18:28:20.7	74.590	0.530	-0.750	-0.460
2020/01/31 18:28:20.8	74.620	0.500	-0.640	-0.480
2020/01/31 18:28:20.9	74.640	0.470	-0.520	-0.490
2020/01/31 18:28:21.0	74.660	0.430	-0.410	-0.510
2020/01/31 18:28:21.1	74.680	0.400	-0.290	-0.510
2020/01/31 18:28:21.2	74.700	0.360	-0.170	-0.520
2020/01/31 18:28:21.3	74.720	0.320	-0.060	-0.520
2020/01/31 18:28:21.4	74.740	0.280	0.050	-0.520
2020/01/31 18:28:21.5	74.760	0.240	0.160	-0.520
2020/01/31 18:28:21.6	74.780	0.190	0.270	-0.510
2020/01/31 18:28:21.7	74.800	0.150	0.370	-0.510
2020/01/31 18:28:21.8	74.820	0.110	0.470	-0.490
2020/01/31 18:28:21.9	74.840	0.060	0.560	-0.480
2020/01/31 18:28:22.0	74.860	0.020	0.640	-0.470
2020/01/31 18:28:22.1	74.880	-0.030	0.720	-0.450
2020/01/31 18:28:22.2	74.890	-0.070	0.790	-0.430
2020/01/31 18:28:22.3	74.910	-0.120	0.860	-0.410
2020/01/31 18:28:22.4	74.930	-0.160	0.910	-0.390
2020/01/31 18:28:22.5	74.940	-0.200	0.960	-0.360
2020/01/31 18:28:22.6	74.960	-0.250	1.000	-0.340
2020/01/31 18:28:22.7	74.970	-0.290	1.040	-0.310
2020/01/31 18:28:22.8	74.980	-0.320	1.070	-0.280
2020/01/31 18:28:22.9	74.990	-0.360	1.090	-0.250
2020/01/31 18:28:23.0	75.000	-0.400	1.100	-0.220
2020/01/31 18:28:23.1	75.010	-0.430	1.110	-0.190
2020/01/31 18:28:23.2	75.020	-0.470	1.110	-0.150
2020/01/31 18:28:23.3	75.020	-0.500	1.110	-0.120
2020/01/31 18:28:23.4	75.020	-0.530	1.100	-0.080
2020/01/31 18:28:23.5	75.020	-0.560	1.080	-0.050
2020/01/31 18:28:23.6	75.020	-0.580	1.060	-0.010
2020/01/31 18:28:23.7	75.020	-0.610	1.040	0.020
2020/01/31 18:28:23.8	75.000	-0.630	1.000	0.060
2020/01/31 18:28:23.9	74.990	-0.650	0.970	0.090
2020/01/31 18:28:24.0	74.980	-0.670	0.930	0.130
2020/01/31 18:28:24.1	74.970	-0.680	0.880	0.160
2020/01/31 18:28:24.2	74.960	-0.700	0.830	0.190
2020/01/31 18:28:24.3	74.940	-0.710	0.780	0.230
2020/01/31 18:28:24.4	74.930	-0.720	0.720	0.260
2020/01/31 18:28:24.5	74.920	-0.720	0.660	0.290
2020/01/31 18:28:24.6	74.900	-0.730	0.600	0.320
2020/01/31 18:28:24.7	74.890	-0.730	0.530	0.340
2020/01/31 18:28:24.8	74.870	-0.730	0.460	0.370
2020/01/31 18:28:24.9	74.860	-0.730	0.390	0.390
2020/01/31 18:28:25.0	74.850	-0.720	0.320	0.420
2020/01/31 18:28:25.1	74.850	-0.710	0.240	0.440
2020/01/31 18:28:25.2	74.840	-0.700	0.170	0.450
2020/01/31 18:28:25.3	74.840	-0.690	0.090	0.470
2020/01/31 18:28:25.4	74.840	-0.680	0.010	0.480
2020/01/31 18:28:25.5	74.840	-0.660	-0.070	0.490
2020/01/31 18:28:25.6	74.850	-0.640	-0.150	0.500
2020/01/31 18:28:25.7	74.850	-0.620	-0.230	0.510
2020/01/31 18:28:25.8	74.860	-0.590	-0.300	0.520
2020/01/31 18:28:25.9	74.880	-0.560	-0.380	0.520
2020/01/31 18:28:26.0	74.890	-0.530	-0.450	0.520
2020/01/31 18:28:26.1	74.910	-0.500	-0.520	0.520
2020/01/31 18:28:26.2	74.940	-0.470	-0.590	0.520
2020/01/31 18:28:26.3	74.960	-0.430	-0.650	0.520
2020/01/31 18:28:26.4	74.980	-0.390	-0.710	0.520
2020/01/31 18:28:26.5	75.010	-0.350	-0.770	0.510
2020/01/31 18:28:26.6	75.040	-0.310	-0.820	0.510
2020/01/31 18:28:26.7	75.070	-0.270	-0.860	0.500
2020/01/31 18:28:26.8	75.090	-0.230	-0.910	0.490
2020/01/31 18:28:26.9	75.120	-0.190	-0.940	0.480
2020/01/31 18:28:27.0	75.150	-0.140	-0.980	0.470
2020/01/31 18:28:27.1	75.180	-0.100	-1.000	0.460
2020/01/31 18:28:27.2	75.200	-0.060	-1.020	0.450
2020/01/31 18:28:27.3	75.230	-0.010	-1.040	0.440
2020/01/31 18:28:27.4	75.250	0.030	-1.050	0.430
2020/01/31 18:28:27.5	75.280	0.070	-1.050	0.420
2020/01/31 18:28:27.6	75.300	0.110	-1.050	0.410
2020/01/31 18:28:27.7	75.310	0.150	-1.050	0.390
2020/01/31 18:28:27.8	75.340	0.190	-1.040	0.380
2020/01/31 18:28:27.9	75.350	0.220	-1.020	0.370
2020/01/31 18:28:28.0	75.360	0.260	-1.010	0.360
2020/01/31 18:28:28.1	75.370	0.290	-0.980	0.340
2020/01/31 18:28:28.2	75.380	0.320	-0.960	0.330
2020/01/31 18:28:28.3	75.380	0.350	-0.930	0.320
2020/01/31 18:28:28.4	75.380	0.370	-0.900	0.320
2020/01/31 18:28:28.5	75.380	0.390	-0.860	0.310
2020/01/31 18:28:28.6	75.380	0.420	-0.830	0.300
2020/01/31 18:28:28.7	75.370	0.430	-0.790	0.300
2020/01/31 18:28:28.8	75.370	0.450	-0.740	0.290
2020/01/31 18:28:28.9	75.360	0.460	-0.700	0.290
2020/01/31 18:28:29.0	75.340	0.470	-0.660	0.290
2020/01/31 18:28:29.1	75.330	0.480	-0.620	0.290
2020/01/31 18:28:29.2	75.320	0.490	-0.580	0.290
2020/01/31 18:28:29.3	75.300	0.490	-0.540	0.290
2020/01/31 18:28:29.4	75.280	0.490	-0.500	0.300
2020/01/31 18:28:29.5	75.260	0.490	-0.460	0.300
2020/01/31 18:28:29.6	75.240	0.490	-0.430	0.300
2020/01/31 18:28:29.7	75.230	0.490	-0.390	0.310
2020/01/31 18:28:29.8	75.200	0.480	-0.370	0.310
2020/01/31 18:28:29.9	75.190	0.480	-0.340	0.320
2020/01/31 18:28:30.0	75.170	0.470	-0.310	0.320
2020/01/31 18:28:30.1	75.160	0.460	-0.290	0.320
2020/01/31 18:28:30.2	75.140	0.450	-0.270	0.330
2020/01/31 18:28:30.3	75.130	0.450	-0.250	0.330
2020/01/31 18:28:30.4	75.120	0.440	-0.240	0.330
2020/01/31 18:28:30.5	75.110	0.430	-0.230	0.320
2020/01/31 18:28:30.6	75.110	0.420	-0.220	0.320
2020/01/31 18:28:30.7	75.100	0.420	-0.220	0.310
2020/01/31 18:28:30.8	75.100	0.410	-0.210	0.300
2020/01/31 18:28:30.9	75.100	0.400	-0.220	0.290
2020/01/31 18:28:31.0	75.100	0.400	-0.220	0.280
2020/01/31 18:28:31.1	75.110	0.390	-0.230	0.260
2020/01/31 18:28:31.2	75.110	0.390	-0.240	0.240
2020/01/31 18:28:31.3	75.120	0.380	-0.260	0.220
2020/01/31 18:28:31.4	75.130	0.380	-0.270	0.190
2020/01/31 18:28:31.5	75.140	0.380	-0.280	0.170
2020/01/31 18:28:31.6	75.150	0.370	-0.300	0.140
2020/01/31 18:28:31.7	75.160	0.370	-0.310	0.100
2020/01/31 18:28:31.8	75.180	0.370	-0.320	0.070
2020/01/31 18:28:31.9	75.200	0.370	-0.340	0.030
2020/01/31 18:28:32.0	75.210	0.370	-0.340	-0.010
2020/01/31 18:28:32.1	75.230	0.370	-0.350	-0.040
2020/01/31 18:28:32.2	75.250	0.370	-0.350	-0.080
2020/01/31 18:28:32.3	75.270	0.370	-0.350	-0.120
2020/01/31 18:28:32.4	75.290	0.370	-0.350	-0.160
2020/01/31 18:28:32.5	75.300	0.380	-0.340	-0.200
2020/01/31 18:28:32.6	75.330	0.380	-0.330	-0.230
2020/01/31 18:28:32.7	75.340	0.370	-0.310	-0.270
2020/01/31 18:28:32.8	75.380	0.370	-0.290	-0.300
2020/01/31 18:28:32.9	75.400	0.370	-0.260	-0.340
2020/01/31 18:28:33.0	75.420	0.370	-0.230	-0.370
2020/01/31 18:28:33.1	75.440	0.360	-0.200	-0.400
2020/01/31 18:28:33.2	75.460	0.350	-0.160	-0.430
2020/01/31 18:28:33.3	75.480	0.350	-0.110	-0.450
2020/01/31 18:28:33.4	75.500	0.340	-0.060	-0.470
2020/01/31 18:28:33.5	75.520	0.320	-0.010	-0.490
2020/01/31 18:28:33.6	75.540	0.310	0.040	-0.510
2020/01/31 18:28:33.7	75.560	0.290	0.100	-0.520
2020/01/31 18:28:33.8	75.570	0.270	0.150	-0.540
2020/01/31 18:28:33.9	75.580	0.250	0.210	-0.540
2020/01/31 18:28:34.0	75.600	0.230	0.270	-0.550
2020/01/31 18:28:34.1	75.610	0.200	0.340	-0.540
2020/01/31 18:28:34.2	75.630	0.170	0.400	-0.540
2020/01/31 18:28:34.3	75.640	0.140	0.460	-0.530
2020/01/31 18:28:34.4	75.650	0.110	0.520	-0.520
2020/01/31 18:28:34.5	75.660	0.070	0.570	-0.500
2020/01/31 18:28:34.6	75.670	0.040	0.630	-0.480
2020/01/31 18:28:34.7	75.680	-0.000	0.680	-0.460
2020/01/31 18:28:34.8	75.680	-0.040	0.730	-0.430
2020/01/31 18:28:34.9	75.680	-0.080	0.780	-0.400
2020/01/31 18:28:35.0	75.680	-0.120	0.820	-0.370
2020/01/31 18:28:35.1	75.680	-0.170	0.860	-0.330
2020/01/31 18:28:35.2	75.670	-0.210	0.890	-0.290
2020/01/31 18:28:35.3	75.660	-0.250	0.920	-0.240
2020/01/31 18:28:35.4	75.650	-0.300	0.940	-0.190
2020/01/31 18:28:35.5	75.640	-0.340	0.960	-0.140
2020/01/31 18:28:35.6	75.630	-0.380	0.960	-0.090
2020/01/31 18:28:35.7	75.610	-0.420	0.970	-0.040
2020/01/31 18:28:35.8	75.600	-0.460	0.960	0.020
2020/01/31 18:28:35.9	75.580	-0.490	0.950	0.080
2020/01/31 18:28:36.0	75.560	-0.530	0.930	0.130
2020/01/31 18:28:36.1	75.540	-0.560	0.900	0.190
2020/01/31 18:28:36.2	75.510	-0.590	0.870	0.250
2020/01/31 18:28:36.3	75.490	-0.620	0.820	0.300
2020/01/31 18:28:36.4	75.470	-0.640	0.770	0.360
2020/01/31 18:28:36.5	75.440	-0.660	0.710	0.410
2020/01/31 18:28:36.6	75.420	-0.680	0.650	0.460
2020/01/31 18:28:36.7	75.400	-0.690	0.580	0.500
2020/01/31 18:28:36.8	75.380	-0.700	0.490	0.540
2020/01/31 18:28:36.9	75.360	-0.700	0.410	0.580
2020/01/31 18:28:37.0	75.350	-0.700	0.310	0.610
2020/01/31 18:28:37.1	75.340	-0.700	0.210	0.640
2020/01/31 18:28:37.2	75.330	-0.690	0.110	0.670
2020/01/31 18:28:37.3	75.330	-0.680	0.000	0.680
2020/01/31 18:28:37.4	75.330	-0.660	-0.110	0.700
2020/01/31 18:28:37.5	75.340	-0.640	-0.230	0.700
2020/01/31 18:28:37.6	75.340	-0.610	-0.350	0.710
2020/01/31 18:28:37.7	75.360	-0.590	-0.460	0.710
2020/01/31 18:28:37.8	75.370	-0.550	-0.590	0.700
2020/01/31 18:28:37.9	75.390	-0.520	-0.710	0.690
2020/01/31 18:28:38.0	75.410	-0.480	-0.830	0.680
2020/01/31 18:28:38.1	75.440	-0.440	-0.940	0.660
2020/01/31 18:28:38.2	75.470	-0.390	-1.060	0.640
2020/01/31 18:28:38.3	75.500	-0.350	-1.170	0.620
2020/01/31 18:28:38.4	75.530	-0.300	-1.270	0.600
2020/01/31 18:28:38.5	75.570	-0.250	-1.370	0.580
2020/01/31 18:28:38.6	75.610	-0.200	-1.460	0.550
2020/01/31 18:28:38.7	75.650	-0.140	-1.540	0.530
2020/01/31 18:28:38.8	75.690	-0.090	-1.610	0.500
2020/01/31 18:28:38.9	75.730	-0.040	-1.670	0.480
2020/01/31 18:28:39.0	75.780	0.010	-1.730	0.460
2020/01/31 18:28:39.1	75.820	0.060	-1.770	0.440
2020/01/31 18:28:39.2	75.860	0.110	-1.790	0.420
2020/01/31 18:28:39.3	75.910	0.150	-1.810	0.410
2020/01/31 18:28:39.4	75.950	0.200	-1.810	0.400
2020/01/31 18:28:39.5	75.990	0.240	-1.800	0.390
2020/01/31 18:28:39.6	76.020	0.270	-1.780	0.380
2020/01/31 18:28:39.7	76.060	0.300	-1.740	0.370
2020/01/31 18:28:39.8	76.090	0.330	-1.680	0.370
2020/01/31 18:28:39.9	76.120	0.360	-1.620	0.370
2020/01/31 18:28:40.0	76.140	0.380	-1.550	0.370
2020/01/31 18:28:40.1	76.160	0.390	-1.470	0.380
2020/01/31 18:28:40.2	76.180	0.400	-1.370	0.380
2020/01/31 18:28:40.3	76.200	0.400	-1.270	0.390
2020/01/31 18:28:40.4	76.210	0.400	-1.150	0.410
2020/01/31 18:28:40.5	76.210	0.400	-1.030	0.420
2020/01/31 18:28:40.6	76.220	0.390	-0.900	0.430
2020/01/31 18:28:40.7	76.210	0.370	-0.770	0.450
2020/01/31 18:28:40.8	76.210	0.350	-0.630	0.470
2020/01/31 18:28:40.9	76.200	0.330	-0.490	0.480
2020/01/31 18:28:41.0	76.180	0.300	-0.350	0.510
2020/01/31 18:28:41.1	76.160	0.270	-0.200	0.530
2020/01/31 18:28:41.2	76.130	0.240	-0.060	0.550
2020/01/31 18:28:41.3	76.100	0.200	0.090	0.570
2020/01/31 18:28:41.4	76.070	0.160	0.230	0.590
2020/01/31 18:28:41.5	76.030	0.110	0.370	0.610
2020/01/31 18:28:41.6	75.980	0.070	0.500	0.630
2020/01/31 18:28:41.7	75.930	0.020	0.630	0.650
2020/01/31 18:28:41.8	75.880	-0.030	0.760	0.670
2020/01/31 18:28:41.9	75.830	-0.070	0.870	0.690
2020/01/31 18:28:42.0	75.770	-0.120	0.970	0.700
2020/01/31 18:28:42.1	75.710	-0.170	1.070	0.710
2020/01/31 18:28:42.2	75.650	-0.210	1.150	0.720
2020/01/31 18:28:42.3	75.590	-0.260	1.230	0.730
2020/01/31 18:28:42.4	75.530	-0.300	1.290	0.730
2020/01/31 18:28:42.5	75.480	-0.340	1.340	0.720
2020/01/31 18:28:42.6	75.420	-0.380	1.380	0.710
2020/01/31 18:28:42.7	75.360	-0.410	1.410	0.700
2020/01/31 18:28:42.8	75.300	-0.440	1.420	0.680
2020/01/31 18:28:42.9	75.240	-0.460	1.420	0.660
2020/01/31 18:28:43.0	75.190	-0.480	1.410	0.630
2020/01/31 18:28:43.1	75.140	-0.500	1.380	0.600
2020/01/31 18:28:43.2	75.090	-0.510	1.340	0.570
2020/01/31 18:28:43.3	75.050	-0.510	1.290	0.530
2020/01/31 18:28:43.4	75.010	-0.510	1.230	0.480
2020/01/31 18:28:43.5	74.980	-0.510	1.160	0.440
2020/01/31 18:28:43.6	74.940	-0.500	1.070	0.390
2020/01/31 18:28:43.7	74.920	-0.480	0.980	0.330
2020/01/31 18:28:43.8	74.880	-0.460	0.870	0.280
2020/01/31 18:28:43.9	74.860	-0.430	0.760	0.220
2020/01/31 18:28:44.0	74.850	-0.400	0.640	0.150
2020/01/31 18:28:44.1	74.840	-0.370	0.510	0.090
2020/01/31 18:28:44.2	74.830	-0.330	0.370	0.020
2020/01/31 18:28:44.3	74.830	-0.280	0.230	-0.050
2020/01/31 18:28:44.4	74.830	-0.230	0.090	-0.130
2020/01/31 18:28:44.5	74.840	-0.180	-0.050	-0.200
2020/01/31 18:28:44.6	74.850	-0.130	-0.200	-0.270
2020/01/31 18:28:44.7	74.860	-0.080	-0.350	-0.350
2020/01/31 18:28:44.8	74.890	-0.020	-0.490	-0.430
2020/01/31 18:28:44.9	74.920	0.040	-0.630	-0.510
2020/01/31 18:28:45.0	74.940	0.100	-0.770	-0.590
2020/01/31 18:28:45.1	74.970	0.150	-0.900	-0.670
2020/01/31 18:28:45.2	75.000	0.210	-1.030	-0.750
2020/01/31 18:28:45.3	75.030	0.270	-1.140	-0.830
2020/01/31 18:28:45.4	75.060	0.330	-1.250	-0.910
2020/01/31 18:28:45.5	75.100	0.380	-1.350	-0.990
2020/01/31 18:28:45.6	75.130	0.440	-1.440	-1.070
2020/01/31 18:28:45.7	75.170	0.490	-1.520	-1.150
2020/01/31 18:28:45.8	75.210	0.540	-1.590	-1.220
2020/01/31 18:28:45.9	75.250	0.580	-1.650	-1.290
2020/01/31 18:28:46.0	75.290	0.620	-1.690	-1.360
2020/01/31 18:28:46.1	75.330	0.660	-1.720	-1.430
2020/01/31 18:28:46.2	75.370	0.700	-1.740	-1.500
2020/01/31 18:28:46.3	75.400	0.730	-1.750	-1.560
2020/01/31 18:28:46.4	75.440	0.750	-1.740	-1.610
2020/01/31 18:28:46.5	75.470	0.780	-1.720	-1.660
2020/01/31 18:28:46.6	75.510	0.790	-1.700	-1.710
2020/01/31 18:28:46.7	75.540	0.810	-1.650	-1.750
2020/01/31 18:28:46.8	75.570	0.820	-1.600	-1.780
2020/01/31 18:28:46.9	75.600	0.820	-1.540	-1.800
2020/01/31 18:28:47.0	75.620	0.820	-1.470	-1.820
2020/01/31 18:28:47.1	75.640	0.820	-1.390	-1.840
2020/01/31 18:28:47.2	75.660	0.810	-1.300	-1.840
2020/01/31 18:28:47.3	75.670	0.800	-1.200	-1.840
2020/01/31 18:28:47.4	75.680	0.780	-1.100	-1.820
2020/01/31 18:28:47.5	75.690	0.760	-0.990	-1.810
2020/01/31 18:28:47.6	75.700	0.740	-0.880	-1.780
2020/01/31 18:28:47.7	75.700	0.710	-0.760	-1.740
2020/01/31 18:28:47.8	75.690	0.680	-0.640	-1.700
2020/01/31 18:28:47.9	75.690	0.650	-0.510	-1.650
2020/01/31 18:28:48.0	75.680	0.610	-0.390	-1.590
2020/01/31 18:28:48.1	75.670	0.570	-0.260	-1.530
2020/01/31 18:28:48.2	75.650	0.530	-0.140	-1.450
2020/01/31 18:28:48.3	75.640	0.480	-0.020	-1.380
2020/01/31 18:28:48.4	75.620	0.430	0.110	-1.290
2020/01/31 18:28:48.5	75.590	0.380	0.220	-1.200
2020/01/31 18:28:48.6	75.570	0.330	0.340	-1.100
2020/01/31 18:28:48.7	75.540	0.280	0.450	-1.000
2020/01/31 18:28:48.8	75.510	0.220	0.560	-0.890
2020/01/31 18:28:48.9	75.480	0.170	0.660	-0.780
2020/01/31 18:28:49.0	75.450	0.110	0.750	-0.670
2020/01/31 18:28:49.1	75.420	0.050	0.830	-0.550
2020/01/31 18:28:49.2	75.380	-0.000	0.910	-0.440
2020/01/31 18:28:49.3	75.340	-0.060	0.980	-0.320
2020/01/31 18:28:49.4	75.310	-0.110	1.040	-0.200
2020/01/31 18:28:49.5	75.270	-0.170	1.090	-0.080
2020/01/31 18:28:49.6	75.240	-0.220	1.140	0.040
2020/01/31 18:28:49.7	75.200	-0.270	1.170	0.160
2020/01/31 18:28:49.8	75.160	-0.320	1.190	0.280
2020/01/31 18:28:49.9	75.130	-0.370	1.200	0.390
2020/01/31 18:28:50.0	75.100	-0.410	1.200	0.500
2020/01/31 18:28:50.1	75.070	-0.460	1.200	0.610
2020/01/31 18:28:50.2	75.050	-0.500	1.180	0.720
2020/01/31 18:28:50.3	75.020	-0.530	1.160	0.820
2020/01/31 18:28:50.4	75.000	-0.570	1.130	0.910
2020/01/31 18:28:50.5	74.980	-0.600	1.090	1.000
2020/01/31 18:28:50.6	74.960	-0.620	1.040	1.090
2020/01/31 18:28:50.7	74.940	-0.650	0.990	1.170
2020/01/31 18:28:50.8	74.930	-0.670	0.920	1.250
2020/01/31 18:28:50.9	74.920	-0.680	0.860	1.320
2020/01/31 18:28:51.0	74.910	-0.690	0.780	1.380
2020/01/31 18:28:51.1	74.900	-0.700	0.710	1.440
2020/01/31 18:28:51.2	74.900	-0.710	0.630	1.490
2020/01/31 18:28:51.3	74.890	-0.710	0.540	1.540
2020/01/31 18:28:51.4	74.890	-0.700	0.450	1.580
2020/01/31 18:28:51.5	74.900	-0.700	0.360	1.620
2020/01/31 18:28:51.6	74.900	-0.680	0.270	1.650
2020/01/31 18:28:51.7	74.910	-0.670	0.180	1.680
2020/01/31 18:28:51.8	74.910	-0.650	0.090	1.700
2020/01/31 18:28:51.9	74.920	-0.630	-0.010	1.710
2020/01/31 18:28:52.0	74.930	-0.610	-0.100	1.720
2020/01/31 18:28:52.1	74.940	-0.580	-0.190	1.730
2020/01/31 18:28:52.2	74.950	-0.550	-0.280	1.740
2020/01/31 18:28:52.3	74.970	-0.520	-0.370	1.740
2020/01/31 18:28:52.4	74.980	-0.480	-0.460	1.730
2020/01/31 18:28:52.5	75.000	-0.450	-0.540	1.730
2020/01/31 18:28:52.6	75.010	-0.410	-0.620	1.720
2020/01/31 18:28:52.7	75.030	-0.370	-0.700	1.700
2020/01/31 18:28:52.8	75.040	-0.330	-0.770	1.690
2020/01/31 18:28:52.9	75.050	-0.290	-0.840	1.670
2020/01/31 18:28:53.0	75.070	-0.240	-0.910	1.660
2020/01/31 18:28:53.1	75.080	-0.200	-0.960	1.640
2020/01/31 18:28:53.2	75.100	-0.160	-1.020	1.620
2020/01/31 18:28:53.3	75.110	-0.110	-1.070	1.590
2020/01/31 18:28:53.4	75.120	-0.070	-1.110	1.570
2020/01/31 18:28:53.5	75.130	-0.030	-1.150	1.550
2020/01/31 18:28:53.6	75.140	0.010	-1.180	1.520
2020/01/31 18:28:53.7	75.140	0.060	-1.200	1.490
2020/01/31 18:28:53.8	75.150	0.090	-1.220	1.470
2020/01/31 18:28:53.9	75.150	0.130	-1.230	1.440
2020/01/31 18:28:54.0	75.160	0.170	-1.240	1.420
2020/01/31 18:28:54.1	75.160	0.200	-1.240	1.390
2020/01/31 18:28:54.2	75.160	0.240	-1.230	1.360
2020/01/31 18:28:54.3	75.160	0.270	-1.220	1.330
2020/01/31 18:28:54.4	75.160	0.290	-1.200	1.290
2020/01/31 18:28:54.5	75.150	0.320	-1.170	1.260
2020/01/31 18:28:54.6	75.150	0.340	-1.140	1.230
2020/01/31 18:28:54.7	75.150	0.370	-1.110	1.190
2020/01/31 18:28:54.8	75.140	0.380	-1.060	1.150
2020/01/31 18:28:54.9	75.140	0.400	-1.010	1.110
2020/01/31 18:28:55.0	75.130	0.410	-0.960	1.060
2020/01/31 18:28:55.1	75.130	0.420	-0.910	1.020
2020/01/31 18:28:55.2	75.120	0.430	-0.850	0.970
2020/01/31 18:28:55.3	75.110	0.440	-0.790	0.920
2020/01/31 18:28:55.4	75.100	0.440	-0.720	0.870
2020/01/31 18:28:55.5	75.090	0.440	-0.650	0.810
2020/01/31 18:28:55.6	75.080	0.440	-0.580	0.750
2020/01/31 18:28:55.7	75.070	0.440	-0.500	0.700
2020/01/31 18:28:55.8	75.070	0.430	-0.430	0.630
2020/01/31 18:28:55.9	75.060	0.420	-0.350	0.570
2020/01/31 18:28:56.0	75.040	0.410	-0.270	0.500
2020/01/31 18:28:56.1	75.030	0.390	-0.190	0.440
2020/01/31 18:28:56.2	75.010	0.380	-0.120	0.370
2020/01/31 18:28:56.3	75.000	0.360	-0.040	0.300
2020/01/31 18:28:56.4	74.980	0.340	0.040	0.230
2020/01/31 18:28:56.5	74.970	0.320	0.110	0.160
2020/01/31 18:28:56.6	74.950	0.300	0.180	0.090
2020/01/31 18:28:56.7	74.930	0.270	0.250	0.020
2020/01/31 18:28:56.8	74.910	0.250	0.310	-0.060
2020/01/31 18:28:56.9	74.890	0.220	0.370	-0.130
2020/01/31 18:28:57.0	74.870	0.200	0.430	-0.200
2020/01/31 18:28:57.1	74.850	0.170	0.480	-0.280
2020/01/31 18:28:57.2	74.830	0.140	0.530	-0.350
2020/01/31 18:28:57.3	74.810	0.110	0.570	-0.420
2020/01/31 18:28:57.4	74.790	0.080	0.610	-0.490
2020/01/31 18:28:57.5	74.770	0.050	0.640	-0.560
2020/01/31 18:28:57.6	74.750	0.020	0.660	-0.620
2020/01/31 18:28:57.7	74.730	-0.010	0.680	-0.690
2020/01/31 18:28:57.8	74.700	-0.040	0.690	-0.750
2020/01/31 18:28:57.9	74.680	-0.070	0.700	-0.820
2020/01/31 18:28:58.0	74.660	-0.100	0.700	-0.880
2020/01/31 18:28:58.1	74.640	-0.120	0.690	-0.930
2020/01/31 18:28:58.2	74.620	-0.150	0.680	-0.990
2020/01/31 18:28:58.3	74.600	-0.180	0.660	-1.040
2020/01/31 18:28:58.4	74.590	-0.200	0.630	-1.100
2020/01/31 18:28:58.5	74.570	-0.220	0.600	-1.140
2020/01/31 18:28:58.6	74.560	-0.240	0.570	-1.190
2020/01/31 18:28:58.7	74.540	-0.260	0.530	-1.240
2020/01/31 18:28:58.8	74.530	-0.280	0.480	-1.280
2020/01/31 18:28:58.9	74.520	-0.290	0.430	-1.320
2020/01/31 18:28:59.0	74.510	-0.300	0.370	-1.360
2020/01/31 18:28:59.1	74.510	-0.310	0.320	-1.390
2020/01/31 18:28:59.2	74.510	-0.320	0.260	-1.420
2020/01/31 18:28:59.3	74.510	-0.330	0.190	-1.450
2020/01/31 18:28:59.4	74.510	-0.330	0.130	-1.480
2020/01/31 18:28:59.5	74.510	-0.330	0.060	-1.510
2020/01/31 18:28:59.6	74.520	-0.320	-0.010	-1.540
2020/01/31 18:28:59.7	74.530	-0.320	-0.080	-1.560
2020/01/31 18:28:59.8	74.540	-0.310	-0.150	-1.590
2020/01/31 18:28:59.9	74.550	-0.290	-0.220	-1.610
2020/01/31 18:29:00.0	74.570	-0.280	-0.290	-1.630
2020/01/31 18:29:00.1	74.590	-0.260	-0.360	-1.650
2020/01/31 18:29:00.2	74.610	-0.240	-0.420	-1.670
2020/01/31 18:29:00.3	74.630	-0.220	-0.490	-1.690
2020/01/31 18:29:00.4	74.650	-0.200	-0.550	-1.700
2020/01/31 18:29:00.5	74.670	-0.170	-0.610	-1.710
2020/01/31 18:29:00.6	74.690	-0.140	-0.670	-1.720
2020/01/31 18:29:00.7	74.720	-0.110	-0.720	-1.730
2020/01/31 18:29:00.8	74.730	-0.080	-0.770	-1.730
2020/01/31 18:29:00.9	74.760	-0.050	-0.820	-1.730
2020/01/31 18:29:01.0	74.780	-0.020	-0.860	-1.730
2020/01/31 18:29:01.1	74.800	0.010	-0.890	-1.720
2020/01/31 18:29:01.2	74.820	0.040	-0.920	-1.710
2020/01/31 18:29:01.3	74.840	0.080	-0.950	-1.700
2020/01/31 18:29:01.4	74.860	0.110	-0.970	-1.680
2020/01/31 18:29:01.5	74.880	0.140	-0.980	-1.660
2020/01/31 18:29:01.6	74.900	0.170	-0.990	-1.640
2020/01/31 18:29:01.7	74.920	0.200	-1.000	-1.610
2020/01/31 18:29:01.8	74.950	0.220	-1.000	-1.570
2020/01/31 18:29:01.9	74.970	0.250	-0.990	-1.540
2020/01/31 18:29:02.0	74.980	0.270	-0.980	-1.500
2020/01/31 18:29:02.1	75.000	0.290	-0.960	-1.450
2020/01/31 18:29:02.2	75.010	0.310	-0.940	-1.410
2020/01/31 18:29:02.3	75.020	0.320	-0.910	-1.350
2020/01/31 18:29:02.4	75.030	0.330	-0.870	-1.300
2020/01/31 18:29:02.5	75.030	0.340	-0.830	-1.240
2020/01/31 18:29:02.6	75.030	0.340	-0.790	-1.170
2020/01/31 18:29:02.7	75.030	0.350	-0.740	-1.110
2020/01/31 18:29:02.8	75.030	0.350	-0.690	-1.030
2020/01/31 18:29:02.9	75.020	0.340	-0.630	-0.960
2020/01/31 18:29:03.0	75.020	0.330	-0.570	-0.880
2020/01/31 18:29:03.1	75.010	0.320	-0.500	-0.790
2020/01/31 18:29:03.2	74.990	0.310	-0.440	-0.710
2020/01/31 18:29:03.3	74.980	0.290	-0.370	-0.620
2020/01/31 18:29:03.4	74.960	0.270	-0.300	-0.520
2020/01/31 18:29:03.5	74.930	0.250	-0.220	-0.430
2020/01/31 18:29:03.6	74.910	0.230	-0.150	-0.330
2020/01/31 18:29:03.7	74.880	0.200	-0.080	-0.230
2020/01/31 18:29:03.8	74.850	0.170	-0.000	-0.130
2020/01/31 18:29:03.9	74.820	0.140	0.070	-0.030
2020/01/31 18:29:04.0	74.790	0.110	0.140	0.070
2020/01/31 18:29:04.1	74.750	0.080	0.210	0.170
2020/01/31 18:29:04.2	74.710	0.050	0.280	0.270
2020/01/31 18:29:04.3	74.680	0.020	0.340	0.370
2020/01/31 18:29:04.4	74.640	-0.010	0.400	0.470
2020/01/31 18:29:04.5	74.600	-0.040	0.450	0.570
2020/01/31 18:29:04.6	74.560	-0.070	0.500	0.660
2020/01/31 18:29:04.7	74.530	-0.100	0.550	0.750
2020/01/31 18:29:04.8	74.500	-0.130	0.590	0.840
2020/01/31 18:29:04.9	74.470	-0.160	0.620	0.920
2020/01/31 18:29:05.0	74.430	-0.180	0.650	1.000
2020/01/31 18:29:05.1	74.400	-0.200	0.670	1.070
2020/01/31 18:29:05.2	74.370	-0.220	0.680	1.130
2020/01/31 18:29:05.3	74.340	-0.240	0.690	1.190
2020/01/31 18:29:05.4	74.310	-0.260	0.690	1.240
2020/01/31 18:29:05.5	74.290	-0.270	0.680	1.290
2020/01/31 18:29:05.6	74.270	-0.280	0.670	1.320
2020/01/31 18:29:05.7	74.250	-0.290	0.650	1.350
2020/01/31 18:29:05.8	74.250	-0.290	0.620	1.380
2020/01/31 18:29:05.9	74.240	-0.290	0.590	1.400
2020/01/31 18:29:06.0	74.230	-0.290	0.550	1.410
2020/01/31 18:29:06.1	74.220	-0.290	0.510	1.410
2020/01/31 18:29:06.2	74.220	-0.280	0.460	1.400
2020/01/31 18:29:06.3	74.220	-0.280	0.400	1.390
2020/01/31 18:29:06.4	74.220	-0.270	0.350	1.370
2020/01/31 18:29:06.5	74.230	-0.260	0.290	1.350
2020/01/31 18:29:06.6	74.240	-0.240	0.220	1.320
2020/01/31 18:29:06.7	74.260	-0.230	0.160	1.290
2020/01/31 18:29:06.8	74.270	-0.210	0.090	1.250
2020/01/31 18:29:06.9	74.290	-0.190	0.030	1.210
2020/01/31 18:29:07.0	74.310	-0.180	-0.040	1.160
2020/01/31 18:29:07.1	74.330	-0.160	-0.110	1.110
2020/01/31 18:29:07.2	74.360	-0.140	-0.170	1.060
2020/01/31 18:29:07.3	74.390	-0.120	-0.230	1.010
2020/01/31 18:29:07.4	74.420	-0.100	-0.290	0.960
2020/01/31 18:29:07.5	74.450	-0.070	-0.350	0.900
2020/01/31 18:29:07.6	74.480	-0.050	-0.410	0.840
2020/01/31 18:29:07.7	74.510	-0.030	-0.460	0.790
2020/01/31 18:29:07.8	74.540	-0.010	-0.500	0.730
2020/01/31 18:29:07.9	74.570	0.010	-0.550	0.670
2020/01/31 18:29:08.0	74.600	0.030	-0.580	0.620
2020/01/31 18:29:08.1	74.640	0.050	-0.620	0.560
2020/01/31 18:29:08.2	74.670	0.060	-0.650	0.510
2020/01/31 18:29:08.3	74.700	0.080	-0.680	0.460
2020/01/31 18:29:08.4	74.730	0.100	-0.700	0.400
2020/01/31 18:29:08.5	74.760	0.110	-0.710	0.360
2020/01/31 18:29:08.6	74.790	0.130	-0.730	0.310
2020/01/31 18:29:08.7	74.820	0.140	-0.730	0.260
2020/01/31 18:29:08.8	74.830	0.150	-0.730	0.220
2020/01/31 18:29:08.9	74.860	0.160	-0.730	0.180
2020/01/31 18:29:09.0	74.880	0.170	-0.730	0.150
2020/01/31 18:29:09.1	74.900	0.180	-0.720	0.110
2020/01/31 18:29:09.2	74.920	0.190	-0.710	0.080
2020/01/31 18:29:09.3	74.930	0.190	-0.690	0.060
2020/01/31 18:29:09.4	74.950	0.200	-0.670	0.030
2020/01/31 18:29:09.5	74.960	0.200	-0.650	0.010
2020/01/31 18:29:09.6	74.970	0.200	-0.630	-0.010
2020/01/31 18:29:09.7	74.970	0.200	-0.600	-0.020
2020/01/31 18:29:09.8	74.980	0.200	-0.570	-0.040
2020/01/31 18:29:09.9	74.980	0.190	-0.540	-0.050
2020/01/31 18:29:10.0	74.980	0.190	-0.510	-0.050
2020/01/31 18:29:10.1	74.980	0.180	-0.470	-0.060
2020/01/31 18:29:10.2	74.970	0.170	-0.440	-0.060
2020/01/31 18:29:10.3	74.970	0.160	-0.400	-0.060
2020/01/31 18:29:10.4	74.950	0.150	-0.370	-0.060
2020/01/31 18:29:10.5	74.940	0.130	-0.340	-0.050
2020/01/31 18:29:10.6	74.920	0.120	-0.300	-0.040
2020/01/31 18:29:10.7	74.900	0.100	-0.270	-0.040
2020/01/31 18:29:10.8	74.880	0.090	-0.240	-0.030
2020/01/31 18:29:10.9	74.860	0.070	-0.210	-0.020
2020/01/31 18:29:11.0	74.830	0.050	-0.180	-0.010
2020/01/31 18:29:11.1	74.800	0.030	-0.160	0.000
2020/01/31 18:29:11.2	74.770	0.010	-0.130	0.010
2020/01/31 18:29:11.3	74.740	-0.010	-0.110	0.020
2020/01/31 18:29:11.4	74.710	-0.030	-0.090	0.030
2020/01/31 18:29:11.5	74.680	-0.040	-0.080	0.040
2020/01/31 18:29:11.6	74.650	-0.060	-0.060	0.040
2020/01/31 18:29:11.7	74.610	-0.080	-0.050	0.050
2020/01/31 18:29:11.8	74.590	-0.100	-0.040	0.040
2020/01/31 18:29:11.9	74.560	-0.110	-0.040	0.040
2020/01/31 18:29:12.0	74.530	-0.130	-0.040	0.040
2020/01/31 18:29:12.1	74.500	-0.140	-0.040	0.030
2020/01/31 18:29:12.2	74.470	-0.150	-0.040	0.020
2020/01/31 18:29:12.3	74.450	-0.160	-0.050	0.010
2020/01/31 18:29:12.4	74.430	-0.170	-0.060	-0.010
2020/01/31 18:29:12.5	74.410	-0.170	-0.070	-0.030
2020/01/31 18:29:12.6	74.390	-0.170	-0.090	-0.050
2020/01/31 18:29:12.7	74.380	-0.170	-0.110	-0.080
2020/01/31 18:29:12.8	74.360	-0.170	-0.130	-0.110
2020/01/31 18:29:12.9	74.350	-0.160	-0.140	-0.140
2020/01/31 18:29:13.0	74.350	-0.150	-0.170	-0.170
2020/01/31 18:29:13.1	74.340	-0.140	-0.190	-0.200
2020/01/31 18:29:13.2	74.340	-0.130	-0.210	-0.240
2020/01/31 18:29:13.3	74.340	-0.110	-0.230	-0.270
2020/01/31 18:29:13.4	74.350	-0.090	-0.250	-0.310
2020/01/31 18:29:13.5	74.350	-0.070	-0.270	-0.350
2020/01/31 18:29:13.6	74.360	-0.040	-0.290	-0.380
2020/01/31 18:29:13.7	74.370	-0.020	-0.310	-0.420
2020/01/31 18:29:13.8	74.380	0.010	-0.330	-0.460
2020/01/31 18:29:13.9	74.400	0.040	-0.340	-0.490
2020/01/31 18:29:14.0	74.410	0.070	-0.350	-0.520
2020/01/31 18:29:14.1	74.430	0.100	-0.360	-0.560
2020/01/31 18:29:14.2	74.440	0.130	-0.370	-0.590
2020/01/31 18:29:14.3	74.460	0.160	-0.370	-0.610
2020/01/31 18:29:14.4	74.470	0.190	-0.370	-0.640
2020/01/31 18:29:14.5	74.490	0.220	-0.370	-0.660
2020/01/31 18:29:14.6	74.500	0.250	-0.360	-0.680
2020/01/31 18:29:14.7	74.520	0.280	-0.350	-0.700
2020/01/31 18:29:14.8	74.530	0.300	-0.330	-0.720
2020/01/31 18:29:14.9	74.540	0.320	-0.320	-0.730
2020/01/31 18:29:15.0	74.550	0.340	-0.290	-0.740
2020/01/31 18:29:15.1	74.560	0.360	-0.270	-0.750
2020/01/31 18:29:15.2	74.570	0.370	-0.240	-0.750
2020/01/31 18:29:15.3	74.580	0.380	-0.210	-0.760
2020/01/31 18:29:15.4	74.580	0.390	-0.180	-0.760
2020/01/31 18:29:15.5	74.590	0.390	-0.150	-0.750
2020/01/31 18:29:15.6	74.590	0.390	-0.110	-0.750
2020/01/31 18:29:15.7	74.590	0.390	-0.070	-0.740
2020/01/31 18:29:15.8	74.590	0.380	-0.030	-0.730
2020/01/31 18:29:15.9	74.590	0.360	0.010	-0.720
2020/01/31 18:29:16.0	74.580	0.350	0.050	-0.700
2020/01/31 18:29:16.1	74.580	0.330	0.090	-0.690
2020/01/31 18:29:16.2	74.570	0.300	0.130	-0.670
2020/01/31 18:29:16.3	74.570	0.270	0.170	-0.650
2020/01/31 18:29:16.4	74.560	0.240	0.210	-0.630
2020/01/31 18:29:16.5	74.550	0.210	0.240	-0.610
2020/01/31 18:29:16.6	74.540	0.170	0.280	-0.590
2020/01/31 18:29:16.7	74.530	0.130	0.310	-0.570
2020/01/31 18:29:16.8	74.520	0.090	0.340	-0.550
2020/01/31 18:29:16.9	74.510	0.040	0.370	-0.530
2020/01/31 18:29:17.0	74.510	-0.000	0.390	-0.520
2020/01/31 18:29:17.1	74.500	-0.050	0.410	-0.500
2020/01/31 18:29:17.2	74.500	-0.090	0.430	-0.480
2020/01/31 18:29:17.3	74.490	-0.140	0.440	-0.470
2020/01/31 18:29:17.4	74.490	-0.180	0.450	-0.460
2020/01/31 18:29:17.5	74.490	-0.230	0.450	-0.450
2020/01/31 18:29:17.6	74.490	-0.270	0.450	-0.440
2020/01/31 18:29:17.7	74.490	-0.310	0.440	-0.430
2020/01/31 18:29:17.8	74.480	-0.350	0.430	-0.430
2020/01/31 18:29:17.9	74.490	-0.390	0.410	-0.420
2020/01/31 18:29:18.0	74.500	-0.420	0.390	-0.420
2020/01/31 18:29:18.1	74.500	-0.450	0.360	-0.420
2020/01/31 18:29:18.2	74.510	-0.480	0.330	-0.420
2020/01/31 18:29:18.3	74.520	-0.500	0.290	-0.420
2020/01/31 18:29:18.4	74.530	-0.510	0.250	-0.420
2020/01/31 18:29:18.5	74.540	-0.530	0.210	-0.420
2020/01/31 18:29:18.6	74.550	-0.530	0.160	-0.420
2020/01/31 18:29:18.7	74.570	-0.540	0.110	-0.430
2020/01/31 18:29:18.8	74.580	-0.530	0.060	-0.430
2020/01/31 18:29:18.9	74.600	-0.520	-0.000	-0.430
2020/01/31 18:29:19.0	74.610	-0.510	-0.070	-0.430
2020/01/31 18:29:19.1	74.620	-0.490	-0.130	-0.420
2020/01/31 18:29:19.2	74.640	-0.460	-0.200	-0.420
2020/01/31 18:29:19.3	74.650	-0.430	-0.260	-0.420
2020/01/31 18:29:19.4	74.660	-0.400	-0.330	-0.410
2020/01/31 18:29:19.5	74.680	-0.360	-0.400	-0.400
2020/01/31 18:29:19.6	74.690	-0.320	-0.470	-0.390
2020/01/31 18:29:19.7	74.710	-0.270	-0.540	-0.380
2020/01/31 18:29:19.8	74.720	-0.220	-0.610	-0.360
2020/01/31 18:29:19.9	74.740	-0.160	-0.680	-0.350
2020/01/31 18:29:20.0	74.750	-0.100	-0.750	-0.330
2020/01/31 18:29:20.1	74.770	-0.040	-0.810	-0.310
2020/01/31 18:29:20.2	74.790	0.020	-0.870	-0.290
2020/01/31 18:29:20.3	74.810	0.080	-0.930	-0.260
2020/01/31 18:29:20.4	74.830	0.140	-0.980	-0.240
2020/01/31 18:29:20.5	74.850	0.210	-1.020	-0.210
2020/01/31 18:29:20.6	74.870	0.270	-1.070	-0.180
2020/01/31 18:29:20.7	74.890	0.330	-1.100	-0.140
2020/01/31 18:29:20.8	74.900	0.390	-1.130	-0.110
2020/01/31 18:29:20.9	74.930	0.450	-1.150	-0.070
2020/01/31 18:29:21.0	74.950	0.500	-1.170	-0.030
2020/01/31 18:29:21.1	74.970	0.550	-1.170	0.010
2020/01/31 18:29:21.2	74.980	0.590	-1.170	0.060
2020/01/31 18:29:21.3	75.000	0.630	-1.160	0.100
2020/01/31 18:29:21.4	75.020	0.670	-1.140	0.160
2020/01/31 18:29:21.5	75.030	0.700	-1.120	0.210
2020/01/31 18:29:21.6	75.040	0.720	-1.080	0.270
2020/01/31 18:29:21.7	75.050	0.730	-1.030	0.330
2020/01/31 18:29:21.8	75.060	0.740	-0.980	0.390
2020/01/31 18:29:21.9	75.060	0.740	-0.920	0.450
2020/01/31 18:29:22.0	75.060	0.740	-0.850	0.520
2020/01/31 18:29:22.1	75.060	0.720	-0.780	0.580
2020/01/31 18:29:22.2	75.060	0.700	-0.700	0.640
2020/01/31 18:29:22.3	75.050	0.680	-0.610	0.710
2020/01/31 18:29:22.4	75.050	0.640	-0.520	0.770
2020/01/31 18:29:22.5	75.040	0.600	-0.430	0.820
2020/01/31 18:29:22.6	75.020	0.550	-0.340	0.880
2020/01/31 18:29:22.7	75.010	0.500	-0.240	0.930
2020/01/31 18:29:22.8	74.990	0.440	-0.140	0.980
2020/01/31 18:29:22.9	74.970	0.380	-0.050	1.030
2020/01/31 18:29:23.0	74.950	0.310	0.050	1.070
2020/01/31 18:29:23.1	74.930	0.230	0.140	1.110
2020/01/31 18:29:23.2	74.900	0.160	0.240	1.140
2020/01/31 18:29:23.3	74.880	0.080	0.330	1.170
2020/01/31 18:29:23.4	74.850	-0.000	0.420	1.200
2020/01/31 18:29:23.5	74.830	-0.080	0.500	1.220
2020/01/31 18:29:23.6	74.800	-0.160	0.580	1.230
2020/01/31 18:29:23.7	74.770	-0.250	0.650	1.250
2020/01/31 18:29:23.8	74.750	-0.330	0.730	1.250
2020/01/31 18:29:23.9	74.720	-0.410	0.790	1.250
2020/01/31 18:29:24.0	74.700	-0.490	0.850	1.250
2020/01/31 18:29:24.1	74.670	-0.560	0.900	1.240
2020/01/31 18:29:24.2	74.650	-0.630	0.950	1.230
2020/01/31 18:29:24.3	74.620	-0.700	0.980	1.210
2020/01/31 18:29:24.4	74.600	-0.760	1.020	1.180
2020/01/31 18:29:24.5	74.590	-0.820	1.040	1.150
2020/01/31 18:29:24.6	74.570	-0.870	1.050	1.120
2020/01/31 18:29:24.7	74.560	-0.920	1.060	1.080
2020/01/31 18:29:24.8	74.550	-0.960	1.060	1.030
2020/01/31 18:29:24.9	74.540	-0.990	1.050	0.980
2020/01/31 18:29:25.0	74.540	-1.020	1.030	0.920
2020/01/31 18:29:25.1	74.540	-1.040	1.000	0.860
2020/01/31 18:29:25.2	74.540	-1.050	0.960	0.790
2020/01/31 18:29:25.3	74.540	-1.050	0.920	0.710
2020/01/31 18:29:25.4	74.550	-1.050	0.860	0.640
2020/01/31 18:29:25.5	74.560	-1.030	0.800	0.560
2020/01/31 18:29:25.6	74.570	-1.020	0.730	0.470
2020/01/31 18:29:25.7	74.590	-0.990	0.650	0.390
2020/01/31 18:29:25.8	74.600	-0.960	0.560	0.290
2020/01/31 18:29:25.9	74.620	-0.920	0.460	0.200
2020/01/31 18:29:26.0	74.640	-0.870	0.370	0.110
2020/01/31 18:29:26.1	74.660	-0.820	0.260	0.020
2020/01/31 18:29:26.2	74.680	-0.760	0.160	-0.070
2020/01/31 18:29:26.3	74.700	-0.700	0.050	-0.170
2020/01/31 18:29:26.4	74.720	-0.630	-0.060	-0.260
2020/01/31 18:29:26.5	74.740	-0.560	-0.170	-0.360
2020/01/31 18:29:26.6	74.760	-0.480	-0.280	-0.450
2020/01/31 18:29:26.7	74.780	-0.400	-0.390	-0.540
2020/01/31 18:29:26.8	74.800	-0.320	-0.500	-0.630
2020/01/31 18:29:26.9	74.820	-0.240	-0.610	-0.720
2020/01/31 18:29:27.0	74.840	-0.160	-0.710	-0.800
2020/01/31 18:29:27.1	74.860	-0.080	-0.810	-0.890
2020/01/31 18:29:27.2	74.870	0.000	-0.900	-0.970
2020/01/31 18:29:27.3	74.890	0.090	-0.990	-1.050
2020/01/31 18:29:27.4	74.910	0.170	-1.070	-1.130
2020/01/31 18:29:27.5	74.920	0.240	-1.140	-1.200
2020/01/31 18:29:27.6	74.940	0.320	-1.210	-1.270
2020/01/31 18:29:27.7	74.950	0.390	-1.270	-1.340
2020/01/31 18:29:27.8	74.980	0.460	-1.310	-1.400
2020/01/31 18:29:27.9	74.990	0.520	-1.350	-1.450
2020/01/31 18:29:28.0	75.010	0.580	-1.380	-1.510
2020/01/31 18:29:28.1	75.020	0.640	-1.410	-1.560
2020/01/31 18:29:28.2	75.030	0.690	-1.420	-1.600
2020/01/31 18:29:28.3	75.040	0.730	-1.430	-1.640
2020/01/31 18:29:28.4	75.040	0.770	-1.420	-1.670
2020/01/31 18:29:28.5	75.050	0.800	-1.410	-1.700
2020/01/31 18:29:28.6	75.060	0.830	-1.390	-1.730
2020/01/31 18:29:28.7	75.060	0.850	-1.360	-1.740
2020/01/31 18:29:28.8	75.070	0.860	-1.330	-1.760
2020/01/31 18:29:28.9	75.080	0.870	-1.280	-1.770
2020/01/31 18:29:29.0	75.080	0.870	-1.240	-1.770
2020/01/31 18:29:29.1	75.080	0.870	-1.180	-1.770
2020/01/31 18:29:29.2	75.090	0.860	-1.120	-1.770
2020/01/31 18:29:29.3	75.090	0.850	-1.060	-1.760
2020/01/31 18:29:29.4	75.090	0.830	-0.990	-1.740
2020/01/31 18:29:29.5	75.090	0.800	-0.920	-1.730
2020/01/31 18:29:29.6	75.090	0.770	-0.840	-1.700
2020/01/31 18:29:29.7	75.090	0.740	-0.760	-1.670
2020/01/31 18:29:29.8	75.100	0.710	-0.680	-1.650
2020/01/31 18:29:29.9	75.100	0.670	-0.600	-1.610
2020/01/31 18:29:30.0	75.100	0.630	-0.520	-1.570
2020/01/31 18:29:30.1	75.100	0.590	-0.440	-1.530
2020/01/31 18:29:30.2	75.100	0.540	-0.360	-1.480
2020/01/31 18:29:30.3	75.100	0.500	-0.280	-1.430
2020/01/31 18:29:30.4	75.100	0.450	-0.200	-1.370
2020/01/31 18:29:30.5	75.100	0.400	-0.120	-1.310
2020/01/31 18:29:30.6	75.100	0.360	-0.050	-1.250
2020/01/31 18:29:30.7	75.100	0.310	0.030	-1.180
2020/01/31 18:29:30.8	75.110	0.270	0.100	-1.120
2020/01/31 18:29:30.9	75.110	0.230	0.170	-1.040
2020/01/31 18:29:31.0	75.110	0.180	0.240	-0.970
2020/01/31 18:29:31.1	75.110	0.150	0.300	-0.890
2020/01/31 18:29:31.2	75.100	0.110	0.360	-0.810
2020/01/31 18:29:31.3	75.100	0.070	0.420	-0.730
2020/01/31 18:29:31.4	75.100	0.040	0.470	-0.650
2020/01/31 18:29:31.5	75.090	0.010	0.520	-0.570
2020/01/31 18:29:31.6	75.090	-0.020	0.570	-0.480
2020/01/31 18:29:31.7	75.090	-0.050	0.610	-0.400
2020/01/31 18:29:31.8	75.070	-0.070	0.650	-0.310
2020/01/31 18:29:31.9	75.060	-0.100	0.680	-0.230
2020/01/31 18:29:32.0	75.060	-0.120	0.710	-0.150
2020/01/31 18:29:32.1	75.050	-0.140	0.740	-0.070
2020/01/31 18:29:32.2	75.040	-0.160	0.760	0.010
2020/01/31 18:29:32.3	75.040	-0.170	0.770	0.080
2020/01/31 18:29:32.4	75.030	-0.180	0.780	0.160
2020/01/31 18:29:32.5	75.020	-0.200	0.790	0.230
2020/01/31 18:29:32.6	75.010	-0.210	0.790	0.300
2020/01/31 18:29:32.7	75.000	-0.220	0.790	0.360
2020/01/31 18:29:32.8	74.980	-0.230	0.780	0.420
2020/01/31 18:29:32.9	74.970	-0.240	0.770	0.490
2020/01/31 18:29:33.0	74.960	-0.250	0.760	0.550
2020/01/31 18:29:33.1	74.950	-0.250	0.740	0.600
2020/01/31 18:29:33.2	74.940	-0.260	0.720	0.660
2020/01/31 18:29:33.3	74.920	-0.270	0.690	0.710
2020/01/31 18:29:33.4	74.910	-0.280	0.660	0.760
2020/01/31 18:29:33.5	74.900	-0.280	0.620	0.810
2020/01/31 18:29:33.6	74.890	-0.290	0.590	0.860
2020/01/31 18:29:33.7	74.880	-0.290	0.550	0.910
2020/01/31 18:29:33.8	74.870	-0.300	0.500	0.950
2020/01/31 18:29:33.9	74.860	-0.300	0.460	0.990
2020/01/31 18:29:34.0	74.850	-0.310	0.410	1.030
2020/01/31 18:29:34.1	74.840	-0.310	0.360	1.070
2020/01/31 18:29:34.2	74.840	-0.320	0.300	1.100
2020/01/31 18:29:34.3	74.840	-0.320	0.250	1.130
2020/01/31 18:29:34.4	74.830	-0.320	0.190	1.160
2020/01/31 18:29:34.5	74.840	-0.320	0.130	1.190
2020/01/31 18:29:34.6	74.840	-0.320	0.070	1.210
2020/01/31 18:29:34.7	74.840	-0.320	0.000	1.230
2020/01/31 18:29:34.8	74.860	-0.320	-0.060	1.250
2020/01/31 18:29:34.9	74.870	-0.320	-0.130	1.260
2020/01/31 18:29:35.0	74.880	-0.310	-0.190	1.270
2020/01/31 18:29:35.1	74.900	-0.300	-0.260	1.280
2020/01/31 18:29:35.2	74.920	-0.290	-0.330	1.280
2020/01/31 18:29:35.3	74.940	-0.280	-0.400	1.280
2020/01/31 18:29:35.4	74.960	-0.270	-0.460	1.280
2020/01/31 18:29:35.5	74.990	-0.250	-0.530	1.280
2020/01/31 18:29:35.6	75.010	-0.230	-0.600	1.270
2020/01/31 18:29:35.7	75.040	-0.210	-0.660	1.260
2020/01/31 18:29:35.8	75.070	-0.180	-0.730	1.250
2020/01/31 18:29:35.9	75.100	-0.160	-0.790	1.240
2020/01/31 18:29:36.0	75.130	-0.130	-0.850	1.220
2020/01/31 18:29:36.1	75.160	-0.100	-0.900	1.210
2020/01/31 18:29:36.2	75.190	-0.060	-0.950	1.190
2020/01/31 18:29:36.3	75.220	-0.030	-1.000	1.170
2020/01/31 18:29:36.4	75.250	0.010	-1.050	1.160
2020/01/31 18:29:36.5	75.280	0.050	-1.090	1.140
2020/01/31 18:29:36.6	75.310	0.080	-1.120	1.120
2020/01/31 18:29:36.7	75.340	0.120	-1.150	1.100
2020/01/31 18:29:36.8	75.370	0.160	-1.170	1.080
2020/01/31 18:29:36.9	75.400	0.190	-1.190	1.070
2020/01/31 18:29:37.0	75.420	0.230	-1.200	1.050
2020/01/31 18:29:37.1	75.450	0.260	-1.210	1.030
2020/01/31 18:29:37.2	75.480	0.290	-1.200	1.010
2020/01/31 18:29:37.3	75.500	0.320	-1.200	1.000
2020/01/31 18:29:37.4	75.520	0.350	-1.180	0.980
2020/01/31 18:29:37.5	75.540	0.370	-1.160	0.960
2020/01/31 18:29:37.6	75.560	0.390	-1.140	0.940
2020/01/31 18:29:37.7	75.580	0.410	-1.100	0.920
2020/01/31 18:29:37.8	75.620	0.420	-1.060	0.910
2020/01/31 18:29:37.9	75.630	0.420	-1.010	0.890
2020/01/31 18:29:38.0	75.640	0.430	-0.960	0.870
2020/01/31 18:29:38.1	75.650	0.430	-0.910	0.850
2020/01/31 18:29:38.2	75.660	0.420	-0.840	0.830
2020/01/31 18:29:38.3	75.660	0.410	-0.770	0.810
2020/01/31 18:29:38.4	75.660	0.400	-0.700	0.800
2020/01/31 18:29:38.5	75.660	0.380	-0.620	0.780
2020/01/31 18:29:38.6	75.650	0.350	-0.540	0.760
2020/01/31 18:29:38.7	75.640	0.320	-0.460	0.740
2020/01/31 18:29:38.8	75.620	0.290	-0.370	0.720
2020/01/31 18:29:38.9	75.610	0.260	-0.280	0.700
2020/01/31 18:29:39.0	75.590	0.220	-0.190	0.680
2020/01/31 18:29:39.1	75.570	0.180	-0.100	0.660
2020/01/31 18:29:39.2	75.540	0.130	-0.010	0.640
2020/01/31 18:29:39.3	75.520	0.090	0.090	0.620
2020/01/31 18:29:39.4	75.490	0.040	0.180	0.600
2020/01/31 18:29:39.5	75.460	-0.010	0.270	0.580
2020/01/31 18:29:39.6	75.430	-0.060	0.350	0.560
2020/01/31 18:29:39.7	75.390	-0.110	0.440	0.540
2020/01/31 18:29:39.8	75.360	-0.160	0.530	0.510
2020/01/31 18:29:39.9	75.330	-0.210	0.600	0.490
2020/01/31 18:29:40.0	75.290	-0.260	0.670	0.460
2020/01/31 18:29:40.1	75.260	-0.310	0.740	0.440
2020/01/31 18:29:40.2	75.230	-0.350	0.800	0.410
2020/01/31 18:29:40.3	75.190	-0.400	0.850	0.370
2020/01/31 18:29:40.4	75.160	-0.440	0.890	0.340
2020/01/31 18:29:40.5	75.130	-0.480	0.930	0.300
2020/01/31 18:29:40.6	75.100	-0.510	0.960	0.260
2020/01/31 18:29:40.7	75.070	-0.540	0.980	0.220
2020/01/31 18:29:40.8	75.030	-0.570	0.990	0.170
2020/01/31 18:29:40.9	75.000	-0.600	0.990	0.120
2020/01/31 18:29:41.0	74.970	-0.620	0.990	0.060
2020/01/31 18:29:41.1	74.950	-0.640	0.980	0.010
2020/01/31 18:29:41.2	74.930	-0.650	0.970	-0.050
2020/01/31 18:29:41.3	74.910	-0.660	0.950	-0.120
2020/01/31 18:29:41.4	74.890	-0.670	0.920	-0.180
2020/01/31 18:29:41.5	74.870	-0.670	0.880	-0.250
2020/01/31 18:29:41.6	74.860	-0.670	0.840	-0.320
2020/01/31 18:29:41.7	74.840	-0.670	0.790	-0.390
2020/01/31 18:29:41.8	74.820	-0.660	0.740	-0.470
2020/01/31 18:29:41.9	74.810	-0.650	0.680	-0.540
2020/01/31 18:29:42.0	74.800	-0.640	0.610	-0.620
2020/01/31 18:29:42.1	74.790	-0.620	0.540	-0.690
2020/01/31 18:29:42.2	74.790	-0.600	0.470	-0.770
2020/01/31 18:29:42.3	74.790	-0.580	0.390	-0.850
2020/01/31 18:29:42.4	74.790	-0.550	0.310	-0.920
2020/01/31 18:29:42.5	74.800	-0.520	0.220	-1.000
2020/01/31 18:29:42.6	74.800	-0.480	0.130	-1.080
2020/01/31 18:29:42.7	74.810	-0.450	0.040	-1.150
2020/01/31 18:29:42.8	74.830	-0.410	-0.050	-1.230
2020/01/31 18:29:42.9	74.840	-0.360	-0.150	-1.300
2020/01/31 18:29:43.0	74.860	-0.320	-0.250	-1.380
2020/01/31 18:29:43.1	74.880	-0.270	-0.340	-1.450
2020/01/31 18:29:43.2	74.900	-0.220	-0.440	-1.530
2020/01/31 18:29:43.3	74.930	-0.170	-0.540	-1.600
2020/01/31 18:29:43.4	74.960	-0.120	-0.630	-1.670
2020/01/31 18:29:43.5	74.990	-0.070	-0.730	-1.740
2020/01/31 18:29:43.6	75.020	-0.010	-0.820	-1.810
2020/01/31 18:29:43.7	75.060	0.040	-0.910	-1.880
2020/01/31 18:29:43.8	75.110	0.100	-1.000	-1.940
2020/01/31 18:29:43.9	75.150	0.160	-1.080	-2.010
2020/01/31 18:29:44.0	75.190	0.220	-1.160	-2.070
2020/01/31 18:29:44.1	75.230	0.280	-1.230	-2.130
2020/01/31 18:29:44.2	75.270	0.330	-1.300	-2.180
2020/01/31 18:29:44.3	75.310	0.390	-1.360	-2.230
2020/01/31 18:29:44.4	75.360	0.450	-1.420	-2.270
2020/01/31 18:29:44.5	75.400	0.500	-1.470	-2.310
2020/01/31 18:29:44.6	75.430	0.560	-1.510	-2.340
2020/01/31 18:29:44.7	75.470	0.610	-1.540	-2.370
2020/01/31 18:29:44.8	75.520	0.660	-1.560	-2.390
2020/01/31 18:29:44.9	75.550	0.700	-1.580	-2.400
2020/01/31 18:29:45.0	75.580	0.740	-1.580	-2.400
2020/01/31 18:29:45.1	75.610	0.780	-1.580	-2.390
2020/01/31 18:29:45.2	75.630	0.810	-1.560	-2.380
2020/01/31 18:29:45.3	75.650	0.840	-1.540	-2.360
2020/01/31 18:29:45.4	75.670	0.860	-1.510	-2.330
2020/01/31 18:29:45.5	75.680	0.880	-1.470	-2.290
2020/01/31 18:29:45.6	75.690	0.890	-1.420	-2.240
2020/01/31 18:29:45.7	75.700	0.900	-1.360	-2.180
2020/01/31 18:29:45.8	75.720	0.900	-1.290	-2.120
2020/01/31 18:29:45.9	75.720	0.890	-1.210	-2.050
2020/01/31 18:29:46.0	75.710	0.880	-1.130	-1.970
2020/01/31 18:29:46.1	75.700	0.870	-1.040	-1.880
2020/01/31 18:29:46.2	75.690	0.840	-0.940	-1.790
2020/01/31 18:29:46.3	75.680	0.820	-0.840	-1.690
2020/01/31 18:29:46.4	75.660	0.780	-0.730	-1.590
2020/01/31 18:29:46.5	75.650	0.750	-0.620	-1.480
2020/01/31 18:29:46.6	75.620	0.700	-0.510	-1.370
2020/01/31 18:29:46.7	75.600	0.660	-0.390	-1.250
2020/01/31 18:29:46.8	75.570	0.610	-0.270	-1.130
2020/01/31 18:29:46.9	75.540	0.550	-0.150	-1.010
2020/01/31 18:29:47.0	75.520	0.490	-0.030	-0.880
2020/01/31 18:29:47.1	75.490	0.440	0.090	-0.760
2020/01/31 18:29:47.2	75.460	0.370	0.200	-0.630
2020/01/31 18:29:47.3	75.430	0.310	0.320	-0.510
2020/01/31 18:29:47.4	75.400	0.250	0.420	-0.380
2020/01/31 18:29:47.5	75.370	0.180	0.530	-0.260
2020/01/31 18:29:47.6	75.340	0.120	0.630	-0.140
2020/01/31 18:29:47.7	75.310	0.050	0.720	-0.020
2020/01/31 18:29:47.8	75.280	-0.010	0.810	0.090
2020/01/31 18:29:47.9	75.250	-0.070	0.890	0.210
2020/01/31 18:29:48.0	75.220	-0.130	0.960	0.320
2020/01/31 18:29:48.1	75.190	-0.190	1.030	0.430
2020/01/31 18:29:48.2	75.160	-0.240	1.090	0.540
2020/01/31 18:29:48.3	75.130	-0.300	1.140	0.640
2020/01/31 18:29:48.4	75.100	-0.350	1.180	0.740
2020/01/31 18:29:48.5	75.070	-0.390	1.210	0.830
2020/01/31 18:29:48.6	75.040	-0.440	1.230	0.920
2020/01/31 18:29:48.7	75.010	-0.480	1.250	1.010
2020/01/31 18:29:48.8	74.980	-0.510	1.250	1.090
2020/01/31 18:29:48.9	74.960	-0.540	1.250	1.160
2020/01/31 18:29:49.0	74.930	-0.570	1.240	1.230
2020/01/31 18:29:49.1	74.900	-0.590	1.220	1.300
2020/01/31 18:29:49.2	74.880	-0.610	1.190	1.350
2020/01/31 18:29:49.3	74.860	-0.620	1.150	1.410
2020/01/31 18:29:49.4	74.840	-0.630	1.110	1.450
2020/01/31 18:29:49.5	74.820	-0.630	1.050	1.490
2020/01/31 18:29:49.6	74.800	-0.630	1.000	1.520
2020/01/31 18:29:49.7	74.790	-0.630	0.930	1.550
2020/01/31 18:29:49.8	74.770	-0.620	0.860	1.570
2020/01/31 18:29:49.9	74.760	-0.610	0.780	1.590
2020/01/31 18:29:50.0	74.760	-0.590	0.700	1.600
2020/01/31 18:29:50.1	74.760	-0.570	0.610	1.600
2020/01/31 18:29:50.2	74.760	-0.540	0.520	1.600
2020/01/31 18:29:50.3	74.760	-0.510	0.420	1.590
2020/01/31 18:29:50.4	74.770	-0.480	0.330	1.580
2020/01/31 18:29:50.5	74.780	-0.450	0.220	1.570
2020/01/31 18:29:50.6	74.790	-0.410	0.120	1.550
2020/01/31 18:29:50.7	74.810	-0.370	0.020	1.520
2020/01/31 18:29:50.8	74.820	-0.330	-0.080	1.500
2020/01/31 18:29:50.9	74.840	-0.290	-0.190	1.470
2020/01/31 18:29:51.0	74.870	-0.250	-0.290	1.440
2020/01/31 18:29:51.1	74.890	-0.210	-0.390	1.400
2020/01/31 18:29:51.2	74.920	-0.160	-0.490	1.370
2020/01/31 18:29:51.3	74.950	-0.120	-0.590	1.330
2020/01/31 18:29:51.4	74.980	-0.080	-0.680	1.300
2020/01/31 18:29:51.5	75.010	-0.030	-0.770	1.260
2020/01/31 18:29:51.6	75.040	0.010	-0.850	1.220
2020/01/31 18:29:51.7	75.080	0.040	-0.930	1.190
2020/01/31 18:29:51.8	75.100	0.080	-1.010	1.150
2020/01/31 18:29:51.9	75.130	0.120	-1.080	1.110
2020/01/31 18:29:52.0	75.170	0.150	-1.140	1.080
2020/01/31 18:29:52.1	75.200	0.180	-1.190	1.040
2020/01/31 18:29:52.2	75.230	0.200	-1.240	1.010
2020/01/31 18:29:52.3	75.260	0.230	-1.280	0.970
2020/01/31 18:29:52.4	75.290	0.250	-1.310	0.940
2020/01/31 18:29:52.5	75.320	0.270	-1.330	0.910
2020/01/31 18:29:52.6	75.350	0.280	-1.350	0.880
2020/01/31 18:29:52.7	75.380	0.290	-1.360	0.850
2020/01/31 18:29:52.8	75.410	0.300	-1.350	0.820
2020/01/31 18:29:52.9	75.430	0.300	-1.340	0.790
2020/01/31 18:29:53.0	75.460	0.310	-1.330	0.760
2020/01/31 18:29:53.1	75.480	0.310	-1.300	0.740
2020/01/31 18:29:53.2	75.490	0.300	-1.270	0.720
2020/01/31 18:29:53.3	75.510	0.300	-1.230	0.690
2020/01/31 18:29:53.4	75.530	0.290	-1.190	0.670
2020/01/31 18:29:53.5	75.540	0.280	-1.140	0.650
2020/01/31 18:29:53.6	75.550	0.270	-1.080	0.630
2020/01/31 18:29:53.7	75.560	0.250	-1.020	0.610
2020/01/31 18:29:53.8	75.560	0.240	-0.950	0.600
2020/01/31 18:29:53.9	75.570	0.220	-0.880	0.580
2020/01/31 18:29:54.0	75.570	0.200	-0.800	0.560
2020/01/31 18:29:54.1	75.570	0.180	-0.730	0.550
2020/01/31 18:29:54.2	75.570	0.160	-0.650	0.530
2020/01/31 18:29:54.3	75.560	0.140	-0.570	0.510
2020/01/31 18:29:54.4	75.550	0.120	-0.490	0.500
2020/01/31 18:29:54.5	75.540	0.090	-0.400	0.480
2020/01/31 18:29:54.6	75.530	0.070	-0.320	0.460
2020/01/31 18:29:54.7	75.520	0.050	-0.240	0.440
2020/01/31 18:29:54.8	75.500	0.020	-0.160	0.420
2020/01/31 18:29:54.9	75.480	0.000	-0.080	0.400
2020/01/31 18:29:55.0	75.460	-0.020	0.000	0.380
2020/01/31 18:29:55.1	75.440	-0.050	0.080	0.370
2020/01/31 18:29:55.2	75.410	-0.070	0.150	0.340
2020/01/31 18:29:55.3	75.380	-0.090	0.230	0.320
2020/01/31 18:29:55.4	75.350	-0.110	0.290	0.300
2020/01/31 18:29:55.5	75.320	-0.130	0.360	0.280
2020/01/31 18:29:55.6	75.290	-0.150	0.420	0.250
2020/01/31 18:29:55.7	75.250	-0.170	0.470	0.230
2020/01/31 18:29:55.8	75.210	-0.190	0.520	0.200
2020/01/31 18:29:55.9	75.170	-0.200	0.570	0.180
2020/01/31 18:29:56.0	75.130	-0.220	0.610	0.150
2020/01/31 18:29:56.1	75.090	-0.230	0.640	0.120
2020/01/31 18:29:56.2	75.060	-0.240	0.670	0.100
2020/01/31 18:29:56.3	75.020	-0.250	0.700	0.060
2020/01/31 18:29:56.4	74.980	-0.260	0.710	0.030
2020/01/31 18:29:56.5	74.940	-0.270	0.720	-0.000
2020/01/31 18:29:56.6	74.900	-0.270	0.720	-0.040
2020/01/31 18:29:56.7	74.870	-0.270	0.720	-0.070
2020/01/31 18:29:56.8	74.830	-0.270	0.710	-0.110
2020/01/31 18:29:56.9	74.800	-0.270	0.690	-0.160
2020/01/31 18:29:57.0	74.770	-0.270	0.670	-0.200
2020/01/31 18:29:57.1	74.740	-0.260	0.640	-0.250
2020/01/31 18:29:57.2	74.710	-0.250	0.600	-0.300
2020/01/31 18:29:57.3	74.690	-0.240	0.550	-0.350
2020/01/31 18:29:57.4	74.670	-0.230	0.510	-0.400
2020/01/31 18:29:57.5	74.650	-0.210	0.450	-0.460
2020/01/31 18:29:57.6	74.630	-0.200	0.390	-0.520
2020/01/31 18:29:57.7	74.620	-0.180	0.320	-0.580
2020/01/31 18:29:57.8	74.610	-0.150	0.250	-0.640
2020/01/31 18:29:57.9	74.600	-0.130	0.180	-0.700
2020/01/31 18:29:58.0	74.600	-0.100	0.100	-0.760
2020/01/31 18:29:58.1	74.590	-0.080	0.030	-0.830
2020/01/31 18:29:58.2	74.590	-0.050	-0.050	-0.890
2020/01/31 18:29:58.3	74.580	-0.020	-0.140	-0.950
2020/01/31 18:29:58.4	74.580	0.010	-0.220	-1.020
2020/01/31 18:29:58.5	74.580	0.050	-0.300	-1.080
2020/01/31 18:29:58.6	74.580	0.080	-0.380	-1.140
2020/01/31 18:29:58.7	74.590	0.110	-0.460	-1.200
2020/01/31 18:29:58.8	74.590	0.140	-0.530	-1.260
2020/01/31 18:29:58.9	74.590	0.170	-0.600	-1.310
2020/01/31 18:29:59.0	74.590	0.200	-0.670	-1.360
2020/01/31 18:29:59.1	74.600	0.230	-0.730	-1.410
2020/01/31 18:29:59.2	74.600	0.260	-0.790	-1.460
2020/01/31 18:29:59.3	74.610	0.290	-0.850	-1.510
2020/01/31 18:29:59.4	74.610	0.310	-0.890	-1.550
2020/01/31 18:29:59.5	74.620	0.340	-0.930	-1.580
2020/01/31 18:29:59.6	74.620	0.360	-0.960	-1.620
2020/01/31 18:29:59.7	74.630	0.370	-0.990	-1.650
2020/01/31 18:29:59.8	74.630	0.390	-1.010	-1.670
2020/01/31 18:29:59.9	74.640	0.400	-1.020	-1.700
2020/01/31 18:30:00.0	74.650	0.410	-1.020	-1.720
2020/01/31 18:30:00.1	74.650	0.410	-1.020	-1.730
2020/01/31 18:30:00.2	74.660	0.420	-1.010	-1.740
2020/01/31 18:30:00.3	74.670	0.420	-0.990	-1.750
2020/01/31 18:30:00.4	74.670	0.420	-0.970	-1.750
2020/01/31 18:30:00.5	74.680	0.410	-0.940	-1.750
2020/01/31 18:30:00.6	74.690	0.400	-0.900	-1.740
2020/01/31 18:30:00.7	74.700	0.390	-0.860	-1.730
2020/01/31 18:30:00.8	74.710	0.380	-0.810	-1.720
2020/01/31 18:30:00.9	74.710	0.370	-0.760	-1.700
2020/01/31 18:30:01.0	74.720	0.350	-0.700	-1.670
2020/01/31 18:30:01.1	74.730	0.330	-0.640	-1.650
2020/01/31 18:30:01.2	74.740	0.310	-0.580	-1.610
2020/01/31 18:30:01.3	74.750	0.290	-0.520	-1.580
2020/01/31 18:30:01.4	74.760	0.270	-0.450	-1.540
2020/01/31 18:30:01.5	74.770	0.240	-0.380	-1.490
2020/01/31 18:30:01.6	74.780	0.220	-0.320	-1.440
2020/01/31 18:30:01.7	74.790	0.200	-0.250	-1.390
2020/01/31 18:30:01.8	74.810	0.170	-0.180	-1.330
2020/01/31 18:30:01.9	74.830	0.150	-0.120	-1.270
2020/01/31 18:30:02.0	74.840	0.120	-0.050	-1.200
2020/01/31 18:30:02.1	74.850	0.100	0.010	-1.140
2020/01/31 18:30:02.2	74.870	0.070	0.060	-1.070
2020/01/31 18:30:02.3	74.880	0.050	0.120	-0.990
2020/01/31 18:30:02.4	74.900	0.030	0.170	-0.920
2020/01/31 18:30:02.5	74.910	0.000	0.220	-0.840
2020/01/31 18:30:02.6	74.930	-0.020	0.260	-0.750
2020/01/31 18:30:02.7	74.940	-0.040	0.300	-0.670
2020/01/31 18:30:02.8	74.950	-0.060	0.340	-0.580
2020/01/31 18:30:02.9	74.970	-0.080	0.370	-0.490
2020/01/31 18:30:03.0	74.980	-0.100	0.390	-0.400
2020/01/31 18:30:03.1	74.990	-0.120	0.420	-0.310
2020/01/31 18:30:03.2	75.010	-0.140	0.440	-0.210
2020/01/31 18:30:03.3	75.020	-0.150	0.450	-0.120
2020/01/31 18:30:03.4	75.030	-0.170	0.460	-0.020
2020/01/31 18:30:03.5	75.040	-0.190	0.470	0.070
2020/01/31 18:30:03.6	75.050	-0.200	0.480	0.170
2020/01/31 18:30:03.7	75.050	-0.210	0.480	0.260
2020/01/31 18:30:03.8	75.050	-0.230	0.470	0.360
2020/01/31 18:30:03.9	75.060	-0.240	0.460	0.450
2020/01/31 18:30:04.0	75.060	-0.250	0.450	0.550
2020/01/31 18:30:04.1	75.070	-0.260	0.440	0.640
2020/01/31 18:30:04.2	75.070	-0.270	0.420	0.730
2020/01/31 18:30:04.3	75.070	-0.280	0.410	0.820
2020/01/31 18:30:04.4	75.070	-0.280	0.390	0.910
2020/01/31 18:30:04.5	75.060	-0.290	0.360	0.990
2020/01/31 18:30:04.6	75.060	-0.300	0.340	1.080
2020/01/31 18:30:04.7	75.050	-0.300	0.310	1.160
2020/01/31 18:30:04.8	75.040	-0.310	0.280	1.240
2020/01/31 18:30:04.9	75.030	-0.310	0.260	1.320
2020/01/31 18:30:05.0	75.020	-0.310	0.220	1.400
2020/01/31 18:30:05.1	75.010	-0.310	0.190	1.470
2020/01/31 18:30:05.2	74.990	-0.320	0.160	1.550
2020/01/31 18:30:05.3	74.970	-0.320	0.130	1.620
2020/01/31 18:30:05.4	74.950	-0.320	0.100	1.680
2020/01/31 18:30:05.5	74.920	-0.320	0.060	1.750
2020/01/31 18:30:05.6	74.900	-0.310	0.030	1.810
2020/01/31 18:30:05.7	74.870	-0.310	-0.000	1.870
2020/01/31 18:30:05.8	74.850	-0.310	-0.040	1.930
2020/01/31 18:30:05.9	74.820	-0.310	-0.070	1.980
2020/01/31 18:30:06.0	74.790	-0.300	-0.110	2.030
2020/01/31 18:30:06.1	74.760	-0.300	-0.140	2.080
2020/01/31 18:30:06.2	74.730	-0.290	-0.170	2.120
2020/01/31 18:30:06.3	74.700	-0.280	-0.210	2.160
2020/01/31 18:30:06.4	74.670	-0.270	-0.240	2.190
2020/01/31 18:30:06.5	74.640	-0.270	-0.270	2.220
2020/01/31 18:30:06.6	74.610	-0.260	-0.310	2.250
2020/01/31 18:30:06.7	74.590	-0.240	-0.340	2.270
2020/01/31 18:30:06.8	74.570	-0.230	-0.360	2.280
2020/01/31 18:30:06.9	74.550	-0.220	-0.400	2.290
2020/01/31 18:30:07.0	74.530	-0.200	-0.430	2.290
2020/01/31 18:30:07.1	74.510	-0.190	-0.460	2.290
2020/01/31 18:30:07.2	74.500	-0.170	-0.490	2.280
2020/01/31 18:30:07.3	74.490	-0.150	-0.520	2.260
2020/01/31 18:30:07.4	74.480	-0.140	-0.550	2.250
2020/01/31 18:30:07.5	74.470	-0.120	-0.580	2.220
2020/01/31 18:30:07.6	74.470	-0.090	-0.610	2.190
2020/01/31 18:30:07.7	74.470	-0.070	-0.640	2.160
2020/01/31 18:30:07.8	74.470	-0.050	-0.660	2.120
2020/01/31 18:30:07.9	74.480	-0.030	-0.690	2.070
2020/01/31 18:30:08.0	74.490	-0.000	-0.710	2.020
2020/01/31 18:30:08.1	74.500	0.020	-0.720	1.970
2020/01/31 18:30:08.2	74.510	0.050	-0.740	1.910
2020/01/31 18:30:08.3	74.520	0.070	-0.750	1.840
2020/01/31 18:30:08.4	74.530	0.090	-0.760	1.770
2020/01/31 18:30:08.5	74.550	0.120	-0.770	1.700
2020/01/31 18:30:08.6	74.570	0.140	-0.780	1.630
2020/01/31 18:30:08.7	74.580	0.170	-0.780	1.550
2020/01/31 18:30:08.8	74.590	0.190	-0.780	1.460
2020/01/31 18:30:08.9	74.610	0.210	-0.770	1.380
2020/01/31 18:30:09.0	74.630	0.240	-0.770	1.290
2020/01/31 18:30:09.1	74.650	0.260	-0.760	1.200
2020/01/31 18:30:09.2	74.660	0.280	-0.740	1.110
2020/01/31 18:30:09.3	74.680	0.300	-0.730	1.020
2020/01/31 18:30:09.4	74.690	0.310	-0.710	0.920
2020/01/31 18:30:09.5	74.710	0.330	-0.690	0.820
2020/01/31 18:30:09.6	74.720	0.340	-0.670	0.730
2020/01/31 18:30:09.7	74.730	0.360	-0.640	0.630
2020/01/31 18:30:09.8	74.740	0.370	-0.610	0.530
2020/01/31 18:30:09.9	74.750	0.380	-0.580	0.430
2020/01/31 18:30:10.0	74.760	0.380	-0.550	0.330
2020/01/31 18:30:10.1	74.770	0.390	-0.510	0.230
2020/01/31 18:30:10.2	74.770	0.390	-0.470	0.140
2020/01/31 18:30:10.3	74.780	0.390	-0.430	0.040
2020/01/31 18:30:10.4	74.780	0.390	-0.390	-0.060
2020/01/31 18:30:10.5	74.790	0.390	-0.350	-0.160
2020/01/31 18:30:10.6	74.790	0.390	-0.300	-0.250
2020/01/31 18:30:10.7	74.790	0.380	-0.260	-0.350
2020/01/31 18:30:10.8	74.800	0.380	-0.200	-0.440
2020/01/31 18:30:10.9	74.800	0.370	-0.160	-0.530
2020/01/31 18:30:11.0	74.800	0.360	-0.110	-0.620
2020/01/31 18:30:11.1	74.800	0.340	-0.060	-0.710
2020/01/31 18:30:11.2	74.800	0.330	-0.020	-0.790
2020/01/31 18:30:11.3	74.800	0.310	0.030	-0.870
2020/01/31 18:30:11.4	74.790	0.300	0.070	-0.950
2020/01/31 18:30:11.5	74.790	0.280	0.120	-1.030
2020/01/31 18:30:11.6	74.780	0.260	0.160	-1.100
2020/01/31 18:30:11.7	74.780	0.250	0.200	-1.170
2020/01/31 18:30:11.8	74.760	0.230	0.240	-1.240
2020/01/31 18:30:11.9	74.750	0.210	0.270	-1.300
2020/01/31 18:30:12.0	74.740	0.190	0.310	-1.360
2020/01/31 18:30:12.1	74.730	0.170	0.340	-1.410
2020/01/31 18:30:12.2	74.720	0.150	0.360	-1.460
2020/01/31 18:30:12.3	74.710	0.130	0.380	-1.510
2020/01/31 18:30:12.4	74.690	0.110	0.400	-1.550
2020/01/31 18:30:12.5	74.680	0.090	0.410	-1.580
2020/01/31 18:30:12.6	74.670	0.070	0.420	-1.620
2020/01/31 18:30:12.7	74.650	0.050	0.430	-1.650
2020/01/31 18:30:12.8	74.640	0.030	0.430	-1.670
2020/01/31 18:30:12.9	74.620	0.010	0.420	-1.700
2020/01/31 18:30:13.0	74.600	-0.000	0.410	-1.720
2020/01/31 18:30:13.1	74.590	-0.020	0.400	-1.730
2020/01/31 18:30:13.2	74.570	-0.030	0.380	-1.740
2020/01/31 18:30:13.3	74.560	-0.050	0.360	-1.750
2020/01/31 18:30:13.4	74.550	-0.060	0.330	-1.760
2020/01/31 18:30:13.5	74.530	-0.070	0.300	-1.760
2020/01/31 18:30:13.6	74.520	-0.080	0.260	-1.770
2020/01/31 18:30:13.7	74.510	-0.090	0.230	-1.760
2020/01/31 18:30:13.8	74.500	-0.100	0.190	-1.760
2020/01/31 18:30:13.9	74.490	-0.110	0.140	-1.750
2020/01/31 18:30:14.0	74.480	-0.110	0.100	-1.740
2020/01/31 18:30:14.1	74.480	-0.120	0.050	-1.730
2020/01/31 18:30:14.2	74.470	-0.120	-0.000	-1.710
2020/01/31 18:30:14.3	74.460	-0.120	-0.050	-1.700
2020/01/31 18:30:14.4	74.460	-0.130	-0.110	-1.680
2020/01/31 18:30:14.5	74.450	-0.130	-0.160	-1.650
2020/01/31 18:30:14.6	74.450	-0.130	-0.210	-1.630
2020/01/31 18:30:14.7	74.450	-0.120	-0.260	-1.600
2020/01/31 18:30:14.8	74.440	-0.120	-0.310	-1.570
2020/01/31 18:30:14.9	74.440	-0.120	-0.360	-1.540
2020/01/31 18:30:15.0	74.440	-0.120	-0.410	-1.510
2020/01/31 18:30:15.1	74.440	-0.110	-0.460	-1.480
2020/01/31 18:30:15.2	74.450	-0.110	-0.500	-1.440
2020/01/31 18:30:15.3	74.450	-0.110	-0.540	-1.400
2020/01/31 18:30:15.4	74.450	-0.100	-0.580	-1.350
2020/01/31 18:30:15.5	74.460	-0.100	-0.620	-1.310
2020/01/31 18:30:15.6	74.460	-0.090	-0.650	-1.260
2020/01/31 18:30:15.7	74.470	-0.090	-0.670	-1.210
2020/01/31 18:30:15.8	74.490	-0.080	-0.700	-1.160
2020/01/31 18:30:15.9	74.500	-0.080	-0.720	-1.110
2020/01/31 18:30:16.0	74.510	-0.070	-0.730	-1.050
2020/01/31 18:30:16.1	74.520	-0.070	-0.740	-0.990
2020/01/31 18:30:16.2	74.530	-0.060	-0.740	-0.930
2020/01/31 18:30:16.3	74.540	-0.060	-0.740	-0.860
2020/01/31 18:30:16.4	74.550	-0.060	-0.730	-0.800
2020/01/31 18:30:16.5	74.570	-0.050	-0.720	-0.730
2020/01/31 18:30:16.6	74.580	-0.050	-0.700	-0.650
2020/01/31 18:30:16.7	74.600	-0.050	-0.680	-0.580
2020/01/31 18:30:16.8	74.620	-0.050	-0.650	-0.500
2020/01/31 18:30:16.9	74.640	-0.050	-0.610	-0.430
2020/01/31 18:30:17.0	74.660	-0.060	-0.580	-0.350
2020/01/31 18:30:17.1	74.670	-0.060	-0.540	-0.270
2020/01/31 18:30:17.2	74.690	-0.060	-0.500	-0.190
2020/01/31 18:30:17.3	74.710	-0.070	-0.450	-0.110
2020/01/31 18:30:17.4	74.730	-0.070	-0.410	-0.030
2020/01/31 18:30:17.5	74.750	-0.080	-0.360	0.050
2020/01/31 18:30:17.6	74.770	-0.080	-0.310	0.130
2020/01/31 18:30:17.7	74.790	-0.090	-0.260	0.210
2020/01/31 18:30:17.8	74.810	-0.090	-0.210	0.300
2020/01/31 18:30:17.9	74.830	-0.100	-0.160	0.380
2020/01/31 18:30:18.0	74.850	-0.100	-0.120	0.460
2020/01/31 18:30:18.1	74.870	-0.110	-0.070	0.540
2020/01/31 18:30:18.2	74.890	-0.110	-0.030	0.610
2020/01/31 18:30:18.3	74.910	-0.120	0.020	0.690
2020/01/31 18:30:18.4	74.930	-0.120	0.060	0.770
2020/01/31 18:30:18.5	74.950	-0.130	0.100	0.850
2020/01/31 18:30:18.6	74.960	-0.130	0.130	0.930
2020/01/31 18:30:18.7	74.980	-0.130	0.160	1.000
2020/01/31 18:30:18.8	74.990	-0.130	0.190	1.080
2020/01/31 18:30:18.9	75.000	-0.130	0.220	1.160
2020/01/31 18:30:19.0	75.010	-0.130	0.240	1.230
2020/01/31 18:30:19.1	75.020	-0.120	0.260	1.310
2020/01/31 18:30:19.2	75.020	-0.120	0.280	1.390
2020/01/31 18:30:19.3	75.030	-0.110	0.290	1.460
2020/01/31 18:30:19.4	75.030	-0.110	0.300	1.540
2020/01/31 18:30:19.5	75.030	-0.100	0.300	1.610
2020/01/31 18:30:19.6	75.030	-0.090	0.300	1.680
2020/01/31 18:30:19.7	75.020	-0.080	0.300	1.750
2020/01/31 18:30:19.8	75.030	-0.070	0.300	1.820
2020/01/31 18:30:19.9	75.020	-0.060	0.290	1.880
2020/01/31 18:30:20.0	75.020	-0.050	0.280	1.940
2020/01/31 18:30:20.1	75.010	-0.040	0.270	1.990
2020/01/31 18:30:20.2	75.000	-0.030	0.250	2.050
2020/01/31 18:30:20.3	74.990	-0.020	0.230	2.090
2020/01/31 18:30:20.4	74.980	-0.020	0.210	2.140
2020/01/31 18:30:20.5	74.970	-0.010	0.190	2.170
2020/01/31 18:30:20.6	74.970	0.000	0.170	2.210
2020/01/31 18:30:20.7	74.960	0.010	0.140	2.230
2020/01/31 18:30:20.8	74.950	0.010	0.110	2.250
2020/01/31 18:30:20.9	74.940	0.020	0.090	2.270
2020/01/31 18:30:21.0	74.930	0.020	0.060	2.280
2020/01/31 18:30:21.1	74.930	0.020	0.030	2.280
2020/01/31 18:30:21.2	74.920	0.020	-0.000	2.280
2020/01/31 18:30:21.3	74.910	0.020	-0.030	2.270
2020/01/31 18:30:21.4	74.910	0.020	-0.060	2.250
2020/01/31 18:30:21.5	74.910	0.020	-0.090	2.230
2020/01/31 18:30:21.6	74.900	0.020	-0.120	2.200
2020/01/31 18:30:21.7	74.900	0.010	-0.150	2.170
2020/01/31 18:30:21.8	74.910	0.010	-0.180	2.130
2020/01/31 18:30:21.9	74.910	0.000	-0.210	2.090
2020/01/31 18:30:22.0	74.910	-0.010	-0.240	2.040
2020/01/31 18:30:22.1	74.910	-0.010	-0.270	1.990
2020/01/31 18:30:22.2	74.910	-0.020	-0.300	1.930
2020/01/31 18:30:22.3	74.920	-0.030	-0.320	1.870
2020/01/31 18:30:22.4	74.920	-0.040	-0.350	1.800
2020/01/31 18:30:22.5	74.930	-0.050	-0.370	1.730
2020/01/31 18:30:22.6	74.930	-0.060	-0.390	1.660
2020/01/31 18:30:22.7	74.940	-0.070	-0.410	1.580
2020/01/31 18:30:22.8	74.940	-0.070	-0.430	1.500
2020/01/31 18:30:22.9	74.950	-0.080	-0.440	1.420
2020/01/31 18:30:23.0	74.960	-0.090	-0.460	1.330
2020/01/31 18:30:23.1	74.970	-0.100	-0.470	1.240
2020/01/31 18:30:23.2	74.980	-0.100	-0.480	1.160
2020/01/31 18:30:23.3	74.990	-0.110	-0.480	1.070
2020/01/31 18:30:23.4	74.990	-0.120	-0.490	0.980
2020/01/31 18:30:23.5	75.000	-0.120	-0.490	0.890
2020/01/31 18:30:23.6	75.010	-0.120	-0.480	0.800
2020/01/31 18:30:23.7	75.010	-0.130	-0.480	0.720
2020/01/31 18:30:23.8	75.010	-0.130	-0.460	0.620
2020/01/31 18:30:23.9	75.010	-0.130	-0.450	0.540
2020/01/31 18:30:24.0	75.010	-0.130	-0.440	0.450
2020/01/31 18:30:24.1	75.010	-0.120	-0.420	0.370
2020/01/31 18:30:24.2	75.010	-0.120	-0.400	0.290
2020/01/31 18:30:24.3	75.010	-0.120	-0.380	0.210
2020/01/31 18:30:24.4	75.010	-0.110	-0.360	0.130
2020/01/31 18:30:24.5	75.010	-0.110	-0.330	0.060
2020/01/31 18:30:24.6	75.000	-0.100	-0.310	-0.020
2020/01/31 18:30:24.7	75.000	-0.090	-0.290	-0.090
2020/01/31 18:30:24.8	74.970	-0.080	-0.260	-0.160
2020/01/31 18:30:24.9	74.970	-0.070	-0.240	-0.230
2020/01/31 18:30:25.0	74.960	-0.060	-0.220	-0.300
2020/01/31 18:30:25.1	74.950	-0.050	-0.190	-0.360
2020/01/31 18:30:25.2	74.950	-0.040	-0.170	-0.430
2020/01/31 18:30:25.3	74.940	-0.030	-0.150	-0.490
2020/01/31 18:30:25.4	74.930	-0.010	-0.140	-0.550
2020/01/31 18:30:25.5	74.920	0.000	-0.120	-0.610
2020/01/31 18:30:25.6	74.920	0.010	-0.110	-0.670
2020/01/31 18:30:25.7	74.910	0.030	-0.100	-0.730
2020/01/31 18:30:25.8	74.900	0.040	-0.090	-0.780
2020/01/31 18:30:25.9	74.900	0.050	-0.080	-0.840
2020/01/31 18:30:26.0	74.890	0.070	-0.080	-0.890
2020/01/31 18:30:26.1	74.890	0.080	-0.080	-0.940
2020/01/31 18:30:26.2	74.880	0.090	-0.080	-0.990
2020/01/31 18:30:26.3	74.880	0.100	-0.090	-1.030
2020/01/31 18:30:26.4	74.870	0.110	-0.100	-1.070
2020/01/31 18:30:26.5	74.870	0.120	-0.110	-1.110
2020/01/31 18:30:26.6	74.870	0.130	-0.120	-1.150
2020/01/31 18:30:26.7	74.870	0.140	-0.140	-1.190
2020/01/31 18:30:26.8	74.860	0.150	-0.150	-1.220
2020/01/31 18:30:26.9	74.860	0.150	-0.170	-1.250
2020/01/31 18:30:27.0	74.860	0.160	-0.190	-1.270
2020/01/31 18:30:27.1	74.860	0.160	-0.220	-1.300
2020/01/31 18:30:27.2	74.860	0.170	-0.240	-1.320
2020/01/31 18:30:27.3	74.870	0.170	-0.270	-1.330
2020/01/31 18:30:27.4	74.870	0.170	-0.300	-1.350
2020/01/31 18:30:27.5	74.870	0.180	-0.330	-1.360
2020/01/31 18:30:27.6	74.880	0.180	-0.360	-1.370
2020/01/31 18:30:27.7	74.880	0.180	-0.390	-1.380
2020/01/31 18:30:27.8	74.900	0.180	-0.420	-1.380
2020/01/31 18:30:27.9	74.910	0.180	-0.450	-1.380
2020/01/31 18:30:28.0	74.920	0.170	-0.480	-1.380
2020/01/31 18:30:28.1	74.930	0.170	-0.500	-1.380
2020/01/31 18:30:28.2	74.940	0.170	-0.530	-1.370
2020/01/31 18:30:28.3	74.950	0.170	-0.550	-1.360
2020/01/31 18:30:28.4	74.970	0.170	-0.570	-1.350
2020/01/31 18:30:28.5	74.980	0.160	-0.590	-1.340
2020/01/31 18:30:28.6	75.000	0.160	-0.610	-1.320
2020/01/31 18:30:28.7	75.020	0.160	-0.620	-1.300
2020/01/31 18:30:28.8	75.060	0.160	-0.630	-1.280
2020/01/31 18:30:28.9	75.080	0.150	-0.640	-1.250
2020/01/31 18:30:29.0	75.100	0.150	-0.640	-1.220
2020/01/31 18:30:29.1	75.120	0.150	-0.640	-1.190
2020/01/31 18:30:29.2	75.140	0.140	-0.630	-1.160
2020/01/31 18:30:29.3	75.160	0.140	-0.620	-1.120
2020/01/31 18:30:29.4	75.180	0.130	-0.610	-1.080
2020/01/31 18:30:29.5	75.200	0.130	-0.590	-1.030
2020/01/31 18:30:29.6	75.220	0.130	-0.570	-0.990
2020/01/31 18:30:29.7	75.240	0.120	-0.540	-0.940
2020/01/31 18:30:29.8	75.260	0.120	-0.510	-0.880
2020/01/31 18:30:29.9	75.280	0.110	-0.480	-0.830
2020/01/31 18:30:30.0	75.290	0.100	-0.440	-0.770
2020/01/31 18:30:30.1	75.310	0.100	-0.400	-0.710
2020/01/31 18:30:30.2	75.330	0.090	-0.360	-0.650
2020/01/31 18:30:30.3	75.340	0.090	-0.310	-0.580
2020/01/31 18:30:30.4	75.350	0.080	-0.270	-0.520
2020/01/31 18:30:30.5	75.360	0.070	-0.220	-0.450
2020/01/31 18:30:30.6	75.370	0.060	-0.160	-0.380
2020/01/31 18:30:30.7	75.380	0.060	-0.110	-0.310
2020/01/31 18:30:30.8	75.370	0.050	-0.060	-0.230
2020/01/31 18:30:30.9	75.380	0.040	-0.010	-0.160
2020/01/31 18:30:31.0	75.380	0.030	0.050	-0.080
2020/01/31 18:30:31.1	75.380	0.020	0.100	-0.000
2020/01/31 18:30:31.2	75.390	0.020	0.160	0.080
2020/01/31 18:30:31.3	75.390	0.010	0.210	0.160
2020/01/31 18:30:31.4	75.380	0.000	0.260	0.240
2020/01/31 18:30:31.5	75.380	-0.010	0.310	0.320
2020/01/31 18:30:31.6	75.370	-0.010	0.360	0.400
2020/01/31 18:30:31.7	75.370	-0.020	0.410	0.480
2020/01/31 18:30:31.8	75.360	-0.030	0.450	0.570
2020/01/31 18:30:31.9	75.360	-0.030	0.490	0.650
2020/01/31 18:30:32.0	75.340	-0.040	0.530	0.730
2020/01/31 18:30:32.1	75.330	-0.040	0.560	0.810
2020/01/31 18:30:32.2	75.320	-0.050	0.590	0.890
2020/01/31 18:30:32.3	75.310	-0.050	0.620	0.970
2020/01/31 18:30:32.4	75.290	-0.050	0.640	1.050
2020/01/31 18:30:32.5	75.280	-0.060	0.650	1.130
2020/01/31 18:30:32.6	75.270	-0.060	0.660	1.210
2020/01/31 18:30:32.7	75.250	-0.060	0.670	1.290
2020/01/31 18:30:32.8	75.240	-0.060	0.670	1.360
2020/01/31 18:30:32.9	75.230	-0.060	0.670	1.430
2020/01/31 18:30:33.0	75.210	-0.060	0.660	1.500
2020/01/31 18:30:33.1	75.200	-0.050	0.640	1.570
2020/01/31 18:30:33.2	75.190	-0.050	0.620	1.640
2020/01/31 18:30:33.3	75.180	-0.040	0.590	1.700
2020/01/31 18:30:33.4	75.160	-0.040	0.560	1.760
2020/01/31 18:30:33.5	75.150	-0.030	0.530	1.820
2020/01/31 18:30:33.6	75.140	-0.030	0.480	1.870
2020/01/31 18:30:33.7	75.140	-0.020	0.440	1.920
2020/01/31 18:30:33.8	75.140	-0.010	0.380	1.970
2020/01/31 18:30:33.9	75.130	-0.000	0.320	2.010
2020/01/31 18:30:34.0	75.130	0.000	0.260	2.040
2020/01/31 18:30:34.1	75.130	0.010	0.200	2.070
2020/01/31 18:30:34.2	75.130	0.020	0.130	2.100
2020/01/31 18:30:34.3	75.130	0.030	0.060	2.110
2020/01/31 18:30:34.4	75.130	0.030	-0.010	2.130
2020/01/31 18:30:34.5	75.140	0.040	-0.090	2.130
2020/01/31 18:30:34.6	75.140	0.050	-0.160	2.130
2020/01/31 18:30:34.7	75.150	0.050	-0.240	2.130
2020/01/31 18:30:34.8	75.160	0.050	-0.310	2.110
2020/01/31 18:30:34.9	75.170	0.060	-0.380	2.090
2020/01/31 18:30:35.0	75.180	0.060	-0.450	2.070
2020/01/31 18:30:35.1	75.190	0.060	-0.520	2.040
2020/01/31 18:30:35.2	75.210	0.060	-0.590	2.000
2020/01/31 18:30:35.3	75.220	0.050	-0.650	1.970
2020/01/31 18:30:35.4	75.240	0.050	-0.710	1.920
2020/01/31 18:30:35.5	75.260	0.040	-0.760	1.870
2020/01/31 18:30:35.6	75.280	0.040	-0.810	1.820
2020/01/31 18:30:35.7	75.300	0.030	-0.850	1.770
2020/01/31 18:30:35.8	75.300	0.020	-0.890	1.710
2020/01/31 18:30:35.9	75.320	0.010	-0.920	1.650
2020/01/31 18:30:36.0	75.350	-0.010	-0.940	1.590
2020/01/31 18:30:36.1	75.370	-0.020	-0.960	1.530
2020/01/31 18:30:36.2	75.390	-0.030	-0.970	1.470
2020/01/31 18:30:36.3	75.410	-0.050	-0.970	1.410
2020/01/31 18:30:36.4	75.430	-0.070	-0.970	1.350
2020/01/31 18:30:36.5	75.450	-0.080	-0.960	1.290
2020/01/31 18:30:36.6	75.480	-0.100	-0.940	1.230
2020/01/31 18:30:36.7	75.500	-0.120	-0.920	1.170
2020/01/31 18:30:36.8	75.510	-0.140	-0.880	1.110
2020/01/31 18:30:36.9	75.540	-0.150	-0.850	1.060
2020/01/31 18:30:37.0	75.560	-0.170	-0.810	1.010
2020/01/31 18:30:37.1	75.580	-0.190	-0.770	0.960
2020/01/31 18:30:37.2	75.610	-0.210	-0.730	0.910
2020/01/31 18:30:37.3	75.630	-0.230	-0.680	0.860
2020/01/31 18:30:37.4	75.650	-0.240	-0.630	0.820
2020/01/31 18:30:37.5	75.670	-0.260	-0.580	0.780
2020/01/31 18:30:37.6	75.690	-0.280	-0.520	0.740
2020/01/31 18:30:37.7	75.710	-0.300	-0.470	0.710
2020/01/31 18:30:37.8	75.730	-0.320	-0.410	0.680
2020/01/31 18:30:37.9	75.740	-0.330	-0.350	0.650
2020/01/31 18:30:38.0	75.750	-0.350	-0.290	0.620
2020/01/31 18:30:38.1	75.760	-0.370	-0.240	0.590
2020/01/31 18:30:38.2	75.770	-0.380	-0.180	0.570
2020/01/31 18:30:38.3	75.770	-0.400	-0.120	0.550
2020/01/31 18:30:38.4	75.770	-0.410	-0.070	0.530
2020/01/31 18:30:38.5	75.770	-0.430	-0.010	0.510
2020/01/31 18:30:38.6	75.770	-0.440	0.040	0.500
2020/01/31 18:30:38.7	75.760	-0.450	0.090	0.480
2020/01/31 18:30:38.8	75.750	-0.460	0.130	0.470
2020/01/31 18:30:38.9	75.730	-0.470	0.180	0.460
2020/01/31 18:30:39.0	75.710	-0.480	0.220	0.450
2020/01/31 18:30:39.1	75.690	-0.490	0.250	0.440
2020/01/31 18:30:39.2	75.670	-0.500	0.280	0.430
2020/01/31 18:30:39.3	75.650	-0.500	0.310	0.420
2020/01/31 18:30:39.4	75.620	-0.500	0.340	0.410
2020/01/31 18:30:39.5	75.590	-0.510	0.360	0.410
2020/01/31 18:30:39.6	75.560	-0.500	0.370	0.400
2020/01/31 18:30:39.7	75.520	-0.500	0.380	0.400
2020/01/31 18:30:39.8	75.490	-0.500	0.390	0.390
2020/01/31 18:30:39.9	75.450	-0.490	0.390	0.380
2020/01/31 18:30:40.0	75.420	-0.480	0.380	0.380
2020/01/31 18:30:40.1	75.390	-0.470	0.370	0.370
2020/01/31 18:30:40.2	75.350	-0.450	0.360	0.360
2020/01/31 18:30:40.3	75.320	-0.430	0.340	0.340
2020/01/31 18:30:40.4	75.290	-0.410	0.310	0.330
2020/01/31 18:30:40.5	75.260	-0.390	0.280	0.310
2020/01/31 18:30:40.6	75.240	-0.370	0.240	0.290
2020/01/31 18:30:40.7	75.220	-0.340	0.200	0.270
2020/01/31 18:30:40.8	75.210	-0.310	0.160	0.240
2020/01/31 18:30:40.9	75.190	-0.280	0.110	0.220
2020/01/31 18:30:41.0	75.170	-0.250	0.060	0.190
2020/01/31 18:30:41.1	75.160	-0.210	0.000	0.150
2020/01/31 18:30:41.2	75.160	-0.180	-0.050	0.120
2020/01/31 18:30:41.3	75.150	-0.140	-0.110	0.080
2020/01/31 18:30:41.4	75.150	-0.100	-0.170	0.040
2020/01/31 18:30:41.5	75.140	-0.060	-0.230	-0.000
2020/01/31 18:30:41.6	75.140	-0.020	-0.290	-0.050
2020/01/31 18:30:41.7	75.150	0.020	-0.340	-0.090
2020/01/31 18:30:41.8	75.150	0.060	-0.400	-0.130
2020/01/31 18:30:41.9	75.150	0.100	-0.450	-0.180
2020/01/31 18:30:42.0	75.150	0.140	-0.500	-0.220
2020/01/31 18:30:42.1	75.160	0.180	-0.550	-0.270
2020/01/31 18:30:42.2	75.160	0.220	-0.600	-0.310
2020/01/31 18:30:42.3	75.170	0.250	-0.640	-0.360
2020/01/31 18:30:42.4	75.170	0.290	-0.670	-0.400
2020/01/31 18:30:42.5	75.180	0.320	-0.710	-0.450
2020/01/31 18:30:42.6	75.180	0.360	-0.730	-0.490
2020/01/31 18:30:42.7	75.180	0.390	-0.760	-0.530
2020/01/31 18:30:42.8	75.190	0.420	-0.780	-0.580
2020/01/31 18:30:42.9	75.190	0.450	-0.790	-0.620
2020/01/31 18:30:43.0	75.190	0.480	-0.800	-0.660
2020/01/31 18:30:43.1	75.190	0.500	-0.800	-0.700
2020/01/31 18:30:43.2	75.190	0.520	-0.800	-0.740
2020/01/31 18:30:43.3	75.190	0.540	-0.790	-0.780
2020/01/31 18:30:43.4	75.190	0.560	-0.780	-0.820
2020/01/31 18:30:43.5	75.190	0.570	-0.770	-0.850
2020/01/31 18:30:43.6	75.190	0.590	-0.750	-0.890
2020/01/31 18:30:43.7	75.180	0.600	-0.730	-0.920
2020/01/31 18:30:43.8	75.190	0.600	-0.700	-0.950
2020/01/31 18:30:43.9	75.190	0.610	-0.670	-0.970
2020/01/31 18:30:44.0	75.190	0.610	-0.630	-1.000
2020/01/31 18:30:44.1	75.190	0.610	-0.600	-1.020
2020/01/31 18:30:44.2	75.190	0.610	-0.560	-1.040
2020/01/31 18:30:44.3	75.200	0.600	-0.520	-1.060
2020/01/31 18:30:44.4	75.200	0.600	-0.480	-1.070
2020/01/31 18:30:44.5	75.210	0.590	-0.440	-1.080
2020/01/31 18:30:44.6	75.220	0.580	-0.390	-1.090
2020/01/31 18:30:44.7	75.230	0.560	-0.350	-1.100
2020/01/31 18:30:44.8	75.230	0.550	-0.310	-1.100
2020/01/31 18:30:44.9	75.240	0.530	-0.270	-1.090
2020/01/31 18:30:45.0	75.260	0.510	-0.230	-1.090
2020/01/31 18:30:45.1	75.270	0.490	-0.190	-1.080
2020/01/31 18:30:45.2	75.280	0.470	-0.150	-1.060
2020/01/31 18:30:45.3	75.300	0.450	-0.120	-1.050
2020/01/31 18:30:45.4	75.310	0.420	-0.090	-1.030
2020/01/31 18:30:45.5	75.330	0.400	-0.060	-1.000
2020/01/31 18:30:45.6	75.350	0.380	-0.030	-0.970
2020/01/31 18:30:45.7	75.360	0.350	-0.000	-0.930
2020/01/31 18:30:45.8	75.370	0.320	0.020	-0.890
2020/01/31 18:30:45.9	75.380	0.300	0.040	-0.850
2020/01/31 18:30:46.0	75.400	0.270	0.060	-0.800
2020/01/31 18:30:46.1	75.410	0.250	0.080	-0.750
2020/01/31 18:30:46.2	75.420	0.220	0.090	-0.690
2020/01/31 18:30:46.3	75.430	0.190	0.100	-0.620
2020/01/31 18:30:46.4	75.440	0.170	0.110	-0.550
2020/01/31 18:30:46.5	75.450	0.140	0.120	-0.480
2020/01/31 18:30:46.6	75.460	0.120	0.130	-0.400
2020/01/31 18:30:46.7	75.470	0.090	0.140	-0.320
2020/01/31 18:30:46.8	75.470	0.070	0.150	-0.230
2020/01/31 18:30:46.9	75.470	0.050	0.160	-0.140
2020/01/31 18:30:47.0	75.470	0.030	0.170	-0.040
2020/01/31 18:30:47.1	75.470	0.000	0.170	0.060
2020/01/31 18:30:47.2	75.470	-0.020	0.180	0.160
2020/01/31 18:30:47.3	75.470	-0.040	0.190	0.270
2020/01/31 18:30:47.4	75.460	-0.060	0.190	0.370
2020/01/31 18:30:47.5	75.450	-0.080	0.200	0.480
2020/01/31 18:30:47.6	75.440	-0.100	0.210	0.600
2020/01/31 18:30:47.7	75.430	-0.120	0.220	0.710
2020/01/31 18:30:47.8	75.430	-0.130	0.220	0.830
2020/01/31 18:30:47.9	75.410	-0.150	0.230	0.940
2020/01/31 18:30:48.0	75.400	-0.170	0.240	1.060
2020/01/31 18:30:48.1	75.380	-0.180	0.250	1.170
2020/01/31 18:30:48.2	75.360	-0.200	0.250	1.290
2020/01/31 18:30:48.3	75.350	-0.210	0.260	1.400
2020/01/31 18:30:48.4	75.330	-0.230	0.270	1.510
2020/01/31 18:30:48.5	75.300	-0.240	0.270	1.620
2020/01/31 18:30:48.6	75.280	-0.260	0.280	1.730
2020/01/31 18:30:48.7	75.260	-0.270	0.280	1.840
2020/01/31 18:30:48.8	75.250	-0.290	0.290	1.940
2020/01/31 18:30:48.9	75.230	-0.300	0.290	2.040
2020/01/31 18:30:49.0	75.200	-0.320	0.290	2.130
2020/01/31 18:30:49.1	75.180	-0.330	0.290	2.210
2020/01/31 18:30:49.2	75.160	-0.340	0.290	2.300
2020/01/31 18:30:49.3	75.130	-0.360	0.280	2.370
2020/01/31 18:30:49.4	75.110	-0.370	0.270	2.440
2020/01/31 18:30:49.5	75.090	-0.380	0.260	2.500
2020/01/31 18:30:49.6	75.070	-0.390	0.250	2.560
2020/01/31 18:30:49.7	75.050	-0.400	0.240	2.610
2020/01/31 18:30:49.8	75.040	-0.410	0.220	2.660
2020/01/31 18:30:49.9	75.020	-0.420	0.200	2.690
2020/01/31 18:30:50.0	75.000	-0.420	0.180	2.720
2020/01/31 18:30:50.1	74.990	-0.430	0.150	2.740
2020/01/31 18:30:50.2	74.980	-0.430	0.120	2.750
2020/01/31 18:30:50.3	74.960	-0.440	0.090	2.760
2020/01/31 18:30:50.4	74.950	-0.440	0.060	2.760
2020/01/31 18:30:50.5	74.940	-0.440	0.020	2.750
2020/01/31 18:30:50.6	74.930	-0.440	-0.010	2.740
2020/01/31 18:30:50.7	74.920	-0.430	-0.060	2.720
2020/01/31 18:30:50.8	74.920	-0.430	-0.100	2.690
2020/01/31 18:30:50.9	74.920	-0.420	-0.140	2.660
2020/01/31 18:30:51.0	74.910	-0.410	-0.180	2.620
2020/01/31 18:30:51.1	74.910	-0.400	-0.230	2.580
2020/01/31 18:30:51.2	74.910	-0.390	-0.280	2.530
2020/01/31 18:30:51.3	74.910	-0.380	-0.320	2.480
2020/01/31 18:30:51.4	74.910	-0.360	-0.370	2.420
2020/01/31 18:30:51.5	74.910	-0.340	-0.420	2.360
2020/01/31 18:30:51.6	74.910	-0.320	-0.460	2.300
2020/01/31 18:30:51.7	74.910	-0.300	-0.510	2.230
2020/01/31 18:30:51.8	74.910	-0.280	-0.550	2.160
2020/01/31 18:30:51.9	74.920	-0.260	-0.600	2.090
2020/01/31 18:30:52.0	74.920	-0.240	-0.640	2.010
2020/01/31 18:30:52.1	74.930	-0.210	-0.680	1.930
2020/01/31 18:30:52.2	74.930	-0.180	-0.710	1.840
2020/01/31 18:30:52.3	74.940	-0.160	-0.750	1.760
2020/01/31 18:30:52.4	74.950	-0.130	-0.780	1.670
2020/01/31 18:30:52.5	74.960	-0.100	-0.810	1.580
2020/01/31 18:30:52.6	74.960	-0.070	-0.830	1.490
2020/01/31 18:30:52.7	74.970	-0.040	-0.860	1.390
2020/01/31 18:30:52.8	74.980	-0.010	-0.870	1.290
2020/01/31 18:30:52.9	74.990	0.020	-0.890	1.200
2020/01/31 18:30:53.0	75.000	0.050	-0.900	1.100
2020/01/31 18:30:53.1	75.010	0.080	-0.900	1.000
2020/01/31 18:30:53.2	75.030	0.110	-0.900	0.900
2020/01/31 18:30:53.3	75.040	0.140	-0.900	0.800
2020/01/31 18:30:53.4	75.050	0.160	-0.900	0.700
2020/01/31 18:30:53.5	75.060	0.190	-0.890	0.600
2020/01/31 18:30:53.6	75.070	0.220	-0.870	0.510
2020/01/31 18:30:53.7	75.080	0.240	-0.850	0.410
2020/01/31 18:30:53.8	75.090	0.260	-0.820	0.310
2020/01/31 18:30:53.9	75.100	0.280	-0.800	0.210
2020/01/31 18:30:54.0	75.110	0.300	-0.760	0.120
2020/01/31 18:30:54.1	75.120	0.310	-0.730	0.040
2020/01/31 18:30:54.2	75.120	0.320	-0.690	-0.050
2020/01/31 18:30:54.3	75.130	0.330	-0.650	-0.130
2020/01/31 18:30:54.4	75.130	0.340	-0.610	-0.200
2020/01/31 18:30:54.5	75.130	0.350	-0.560	-0.280
2020/01/31 18:30:54.6	75.130	0.350	-0.510	-0.350
2020/01/31 18:30:54.7	75.120	0.350	-0.460	-0.410
2020/01/31 18:30:54.8	75.120	0.350	-0.410	-0.460
2020/01/31 18:30:54.9	75.110	0.340	-0.350	-0.520
2020/01/31 18:30:55.0	75.100	0.330	-0.300	-0.570
2020/01/31 18:30:55.1	75.090	0.320	-0.240	-0.620
2020/01/31 18:30:55.2	75.070	0.310	-0.190	-0.660
2020/01/31 18:30:55.3	75.060	0.300	-0.140	-0.700
2020/01/31 18:30:55.4	75.040	0.280	-0.080	-0.730
2020/01/31 18:30:55.5	75.020	0.260	-0.030	-0.760
2020/01/31 18:30:55.6	74.990	0.240	0.020	-0.790
2020/01/31 18:30:55.7	74.970	0.210	0.070	-0.810
2020/01/31 18:30:55.8	74.930	0.190	0.110	-0.830
2020/01/31 18:30:55.9	74.910	0.160	0.160	-0.840
2020/01/31 18:30:56.0	74.880	0.130	0.200	-0.850
2020/01/31 18:30:56.1	74.840	0.100	0.240	-0.860
2020/01/31 18:30:56.2	74.810	0.070	0.270	-0.860
2020/01/31 18:30:56.3	74.780	0.040	0.300	-0.860
2020/01/31 18:30:56.4	74.740	0.010	0.330	-0.860
2020/01/31 18:30:56.5	74.710	-0.030	0.360	-0.850
2020/01/31 18:30:56.6	74.670	-0.060	0.380	-0.850
2020/01/31 18:30:56.7	74.640	-0.090	0.400	-0.840
2020/01/31 18:30:56.8	74.600	-0.120	0.410	-0.830
2020/01/31 18:30:56.9	74.570	-0.150	0.420	-0.820
2020/01/31 18:30:57.0	74.540	-0.180	0.430	-0.810
2020/01/31 18:30:57.1	74.510	-0.210	0.430	-0.800
2020/01/31 18:30:57.2	74.480	-0.240	0.420	-0.790
2020/01/31 18:30:57.3	74.450	-0.260	0.420	-0.780
2020/01/31 18:30:57.4	74.430	-0.280	0.410	-0.760
2020/01/31 18:30:57.5	74.410	-0.310	0.390	-0.750
2020/01/31 18:30:57.6	74.390	-0.320	0.380	-0.740
2020/01/31 18:30:57.7	74.370	-0.340	0.360	-0.730
2020/01/31 18:30:57.8	74.350	-0.350	0.330	-0.730
2020/01/31 18:30:57.9	74.340	-0.360	0.300	-0.720
2020/01/31 18:30:58.0	74.330	-0.370	0.270	-0.710
2020/01/31 18:30:58.1	74.330	-0.370	0.240	-0.700
2020/01/31 18:30:58.2	74.320	-0.370	0.200	-0.690
2020/01/31 18:30:58.3	74.330	-0.370	0.160	-0.690
2020/01/31 18:30:58.4	74.330	-0.360	0.120	-0.680
2020/01/31 18:30:58.5	74.340	-0.350	0.070	-0.670
2020/01/31 18:30:58.6	74.350	-0.340	0.030	-0.660
2020/01/31 18:30:58.7	74.360	-0.330	-0.020	-0.660
2020/01/31 18:30:58.8	74.360	-0.310	-0.070	-0.650
2020/01/31 18:30:58.9	74.380	-0.290	-0.120	-0.640
2020/01/31 18:30:59.0	74.400	-0.260	-0.170	-0.630
2020/01/31 18:30:59.1	74.420	-0.240	-0.220	-0.620
2020/01/31 18:30:59.2	74.440	-0.210	-0.270	-0.600
2020/01/31 18:30:59.3	74.460	-0.180	-0.320	-0.590
2020/01/31 18:30:59.4	74.480	-0.140	-0.360	-0.570
2020/01/31 18:30:59.5	74.500	-0.110	-0.410	-0.550
2020/01/31 18:30:59.6	74.530	-0.080	-0.450	-0.520
2020/01/31 18:30:59.7	74.550	-0.040	-0.490	-0.500
2020/01/31 18:30:59.8	74.550	-0.010	-0.530	-0.460
2020/01/31 18:30:59.9	74.570	0.030	-0.560	-0.430
2020/01/31 18:31:00.0	74.590	0.060	-0.590	-0.390
2020/01/31 18:31:00.1	74.610	0.100	-0.620	-0.350
2020/01/31 18:31:00.2	74.620	0.130	-0.640	-0.300
2020/01/31 18:31:00.3	74.630	0.160	-0.650	-0.250
2020/01/31 18:31:00.4	74.640	0.190	-0.660	-0.200
2020/01/31 18:31:00.5	74.640	0.220	-0.660	-0.140
2020/01/31 18:31:00.6	74.640	0.250	-0.660	-0.080
2020/01/31 18:31:00.7	74.640	0.270	-0.660	-0.020
2020/01/31 18:31:00.8	74.650	0.290	-0.640	0.050
2020/01/31 18:31:00.9	74.650	0.300	-0.630	0.120
2020/01/31 18:31:01.0	74.640	0.320	-0.600	0.190
2020/01/31 18:31:01.1	74.620	0.320	-0.580	0.260
2020/01/31 18:31:01.2	74.610	0.330	-0.540	0.340
2020/01/31 18:31:01.3	74.590	0.330	-0.510	0.420
2020/01/31 18:31:01.4	74.570	0.330	-0.470	0.490
2020/01/31 18:31:01.5	74.540	0.320	-0.420	0.570
2020/01/31 18:31:01.6	74.520	0.310	-0.370	0.650
2020/01/31 18:31:01.7	74.490	0.290	-0.320	0.730
2020/01/31 18:31:01.8	74.460	0.270	-0.270	0.810
2020/01/31 18:31:01.9	74.430	0.250	-0.220	0.890
2020/01/31 18:31:02.0	74.400	0.230	-0.160	0.970
2020/01/31 18:31:02.1	74.360	0.200	-0.110	1.050
2020/01/31 18:31:02.2	74.320	0.170	-0.050	1.120
2020/01/31 18:31:02.3	74.290	0.130	0.000	1.200
2020/01/31 18:31:02.4	74.250	0.100	0.060	1.270
2020/01/31 18:31:02.5	74.210	0.060	0.110	1.340
2020/01/31 18:31:02.6	74.170	0.020	0.160	1.410
2020/01/31 18:31:02.7	74.140	-0.020	0.200	1.470
2020/01/31 18:31:02.8	74.120	-0.060	0.240	1.530
2020/01/31 18:31:02.9	74.080	-0.100	0.280	1.580
2020/01/31 18:31:03.0	74.050	-0.140	0.310	1.630
2020/01/31 18:31:03.1	74.020	-0.180	0.340	1.680
2020/01/31 18:31:03.2	73.990	-0.220	0.360	1.720
2020/01/31 18:31:03.3	73.960	-0.260	0.370	1.750
2020/01/31 18:31:03.4	73.930	-0.290	0.380	1.780
2020/01/31 18:31:03.5	73.910	-0.320	0.380	1.810
2020/01/31 18:31:03.6	73.890	-0.350	0.370	1.820
2020/01/31 18:31:03.7	73.880	-0.370	0.350	1.840
2020/01/31 18:31:03.8	73.870	-0.390	0.340	1.840
2020/01/31 18:31:03.9	73.860	-0.410	0.310	1.840
2020/01/31 18:31:04.0	73.860	-0.420	0.270	1.840
2020/01/31 18:31:04.1	73.850	-0.430	0.230	1.820
2020/01/31 18:31:04.2	73.860	-0.440	0.190	1.810
2020/01/31 18:31:04.3	73.860	-0.430	0.130	1.780
2020/01/31 18:31:04.4	73.870	-0.430	0.080	1.750
2020/01/31 18:31:04.5	73.880	-0.420	0.020	1.720
2020/01/31 18:31:04.6	73.890	-0.400	-0.050	1.680
2020/01/31 18:31:04.7	73.910	-0.380	-0.120	1.640
2020/01/31 18:31:04.8	73.930	-0.350	-0.190	1.590
2020/01/31 18:31:04.9	73.960	-0.320	-0.260	1.540
2020/01/31 18:31:05.0	73.980	-0.290	-0.330	1.490
2020/01/31 18:31:05.1	74.010	-0.250	-0.400	1.440
2020/01/31 18:31:05.2	74.030	-0.200	-0.470	1.380
2020/01/31 18:31:05.3	74.060	-0.160	-0.540	1.330
2020/01/31 18:31:05.4	74.090	-0.110	-0.600	1.270
2020/01/31 18:31:05.5	74.120	-0.060	-0.660	1.210
2020/01/31 18:31:05.6	74.150	-0.010	-0.720	1.160
2020/01/31 18:31:05.7	74.170	0.050	-0.770	1.100
2020/01/31 18:31:05.8	74.200	0.100	-0.810	1.050
2020/01/31 18:31:05.9	74.220	0.160	-0.850	1.000
2020/01/31 18:31:06.0	74.240	0.210	-0.880	0.940
2020/01/31 18:31:06.1	74.260	0.270	-0.900	0.890
2020/01/31 18:31:06.2	74.280	0.320	-0.920	0.850
2020/01/31 18:31:06.3	74.300	0.370	-0.930	0.800
2020/01/31 18:31:06.4	74.310	0.410	-0.930	0.760
2020/01/31 18:31:06.5	74.310	0.460	-0.920	0.730
2020/01/31 18:31:06.6	74.310	0.500	-0.910	0.690
2020/01/31 18:31:06.7	74.310	0.530	-0.880	0.660
2020/01/31 18:31:06.8	74.310	0.560	-0.850	0.630
2020/01/31 18:31:06.9	74.290	0.590	-0.810	0.600
2020/01/31 18:31:07.0	74.280	0.610	-0.770	0.580
2020/01/31 18:31:07.1	74.260	0.630	-0.710	0.560
2020/01/31 18:31:07.2	74.240	0.640	-0.660	0.550
2020/01/31 18:31:07.3	74.210	0.640	-0.590	0.540
2020/01/31 18:31:07.4	74.180	0.640	-0.520	0.530
2020/01/31 18:31:07.5	74.150	0.630	-0.450	0.520
2020/01/31 18:31:07.6	74.110	0.620	-0.370	0.520
2020/01/31 18:31:07.7	74.070	0.600	-0.290	0.510
2020/01/31 18:31:07.8	74.030	0.580	-0.200	0.520
2020/01/31 18:31:07.9	73.990	0.550	-0.120	0.520
2020/01/31 18:31:08.0	73.940	0.520	-0.030	0.520
2020/01/31 18:31:08.1	73.890	0.480	0.050	0.520
2020/01/31 18:31:08.2	73.850	0.440	0.130	0.520
2020/01/31 18:31:08.3	73.800	0.390	0.210	0.530
2020/01/31 18:31:08.4	73.750	0.340	0.280	0.530
2020/01/31 18:31:08.5	73.710	0.290	0.350	0.530
2020/01/31 18:31:08.6	73.660	0.240	0.420	0.530
2020/01/31 18:31:08.7	73.620	0.180	0.480	0.530
2020/01/31 18:31:08.8	73.580	0.120	0.530	0.520
2020/01/31 18:31:08.9	73.540	0.070	0.570	0.510
2020/01/31 18:31:09.0	73.510	0.010	0.610	0.500
2020/01/31 18:31:09.1	73.480	-0.050	0.640	0.490
2020/01/31 18:31:09.2	73.450	-0.110	0.660	0.470
2020/01/31 18:31:09.3	73.420	-0.170	0.670	0.450
2020/01/31 18:31:09.4	73.400	-0.220	0.670	0.430
2020/01/31 18:31:09.5	73.390	-0.280	0.660	0.400
2020/01/31 18:31:09.6	73.370	-0.330	0.640	0.370
2020/01/31 18:31:09.7	73.360	-0.380	0.610	0.340
2020/01/31 18:31:09.8	73.350	-0.430	0.580	0.310
2020/01/31 18:31:09.9	73.350	-0.470	0.540	0.270
2020/01/31 18:31:10.0	73.350	-0.510	0.490	0.220
2020/01/31 18:31:10.1	73.360	-0.540	0.430	0.180
2020/01/31 18:31:10.2	73.360	-0.570	0.370	0.130
2020/01/31 18:31:10.3	73.370	-0.600	0.300	0.090
2020/01/31 18:31:10.4	73.380	-0.620	0.230	0.040
2020/01/31 18:31:10.5	73.390	-0.640	0.160	-0.010
2020/01/31 18:31:10.6	73.410	-0.650	0.080	-0.060
2020/01/31 18:31:10.7	73.420	-0.660	0.000	-0.110
2020/01/31 18:31:10.8	73.430	-0.660	-0.080	-0.160
2020/01/31 18:31:10.9	73.450	-0.660	-0.160	-0.200
2020/01/31 18:31:11.0	73.460	-0.650	-0.240	-0.250
2020/01/31 18:31:11.1	73.480	-0.640	-0.310	-0.290
2020/01/31 18:31:11.2	73.500	-0.620	-0.390	-0.330
2020/01/31 18:31:11.3	73.510	-0.600	-0.460	-0.360
2020/01/31 18:31:11.4	73.530	-0.580	-0.520	-0.400
2020/01/31 18:31:11.5	73.540	-0.550	-0.580	-0.430
2020/01/31 18:31:11.6	73.560	-0.520	-0.640	-0.450
2020/01/31 18:31:11.7	73.570	-0.480	-0.690	-0.470
2020/01/31 18:31:11.8	73.590	-0.440	-0.740	-0.490
2020/01/31 18:31:11.9	73.600	-0.400	-0.780	-0.500
2020/01/31 18:31:12.0	73.610	-0.360	-0.810	-0.520
2020/01/31 18:31:12.1	73.620	-0.320	-0.840	-0.520
2020/01/31 18:31:12.2	73.630	-0.270	-0.860	-0.530
2020/01/31 18:31:12.3	73.630	-0.230	-0.870	-0.530
2020/01/31 18:31:12.4	73.640	-0.180	-0.880	-0.530
2020/01/31 18:31:12.5	73.650	-0.140	-0.880	-0.530
2020/01/31 18:31:12.6	73.650	-0.090	-0.880	-0.530
2020/01/31 18:31:12.7	73.660	-0.040	-0.870	-0.520
2020/01/31 18:31:12.8	73.660	-0.000	-0.850	-0.500
2020/01/31 18:31:12.9	73.660	0.040	-0.830	-0.490
2020/01/31 18:31:13.0	73.660	0.080	-0.800	-0.470
2020/01/31 18:31:13.1	73.660	0.120	-0.770	-0.450
2020/01/31 18:31:13.2	73.660	0.150	-0.730	-0.430
2020/01/31 18:31:13.3	73.660	0.190	-0.690	-0.400
2020/01/31 18:31:13.4	73.650	0.220	-0.650	-0.370
2020/01/31 18:31:13.5	73.650	0.250	-0.610	-0.340
2020/01/31 18:31:13.6	73.640	0.270	-0.560	-0.300
2020/01/31 18:31:13.7	73.630	0.290	-0.510	-0.270
2020/01/31 18:31:13.8	73.620	0.310	-0.460	-0.220
2020/01/31 18:31:13.9	73.610	0.320	-0.410	-0.180
2020/01/31 18:31:14.0	73.600	0.340	-0.350	-0.130
2020/01/31 18:31:14.1	73.590	0.340	-0.300	-0.090
2020/01/31 18:31:14.2	73.570	0.350	-0.250	-0.040
2020/01/31 18:31:14.3	73.560	0.350	-0.200	0.010
2020/01/31 18:31:14.4	73.540	0.350	-0.150	0.070
2020/01/31 18:31:14.5	73.520	0.350	-0.110	0.120
2020/01/31 18:31:14.6	73.510	0.350	-0.060	0.170
2020/01/31 18:31:14.7	73.490	0.340	-0.020	0.220
2020/01/31 18:31:14.8	73.470	0.330	0.010	0.270
2020/01/31 18:31:14.9	73.450	0.320	0.050	0.330
2020/01/31 18:31:15.0	73.440	0.300	0.080	0.380
2020/01/31 18:31:15.1	73.420	0.290	0.110	0.430
2020/01/31 18:31:15.2	73.400	0.270	0.140	0.470
2020/01/31 18:31:15.3	73.380	0.260	0.160	0.520
2020/01/31 18:31:15.4	73.370	0.240	0.180	0.570
2020/01/31 18:31:15.5	73.350	0.220	0.190	0.610
2020/01/31 18:31:15.6	73.330	0.200	0.200	0.650
2020/01/31 18:31:15.7	73.310	0.180	0.210	0.690
2020/01/31 18:31:15.8	73.300	0.170	0.220	0.730
2020/01/31 18:31:15.9	73.280	0.150	0.230	0.760
2020/01/31 18:31:16.0	73.270	0.130	0.230	0.790
2020/01/31 18:31:16.1	73.250	0.110	0.230	0.820
2020/01/31 18:31:16.2	73.230	0.090	0.230	0.850
2020/01/31 18:31:16.3	73.220	0.070	0.230	0.870
2020/01/31 18:31:16.4	73.200	0.050	0.230	0.900
2020/01/31 18:31:16.5	73.180	0.040	0.230	0.920
2020/01/31 18:31:16.6	73.170	0.020	0.220	0.950
2020/01/31 18:31:16.7	73.150	0.000	0.220	0.970
2020/01/31 18:31:16.8	73.130	-0.010	0.210	0.990
2020/01/31 18:31:16.9	73.110	-0.030	0.200	1.010
2020/01/31 18:31:17.0	73.100	-0.040	0.190	1.020
2020/01/31 18:31:17.1	73.080	-0.050	0.180	1.040
2020/01/31 18:31:17.2	73.070	-0.060	0.170	1.050
2020/01/31 18:31:17.3	73.060	-0.080	0.160	1.070
2020/01/31 18:31:17.4	73.040	-0.090	0.140	1.080
2020/01/31 18:31:17.5	73.030	-0.100	0.130	1.090
2020/01/31 18:31:17.6	73.020	-0.100	0.110	1.100
2020/01/31 18:31:17.7	73.020	-0.110	0.090	1.100
2020/01/31 18:31:17.8	73.000	-0.120	0.070	1.110
2020/01/31 18:31:17.9	73.000	-0.120	0.050	1.110
2020/01/31 18:31:18.0	73.000	-0.130	0.030	1.100
2020/01/31 18:31:18.1	73.000	-0.130	0.010	1.100
2020/01/31 18:31:18.2	73.000	-0.130	-0.020	1.090
2020/01/31 18:31:18.3	73.000	-0.130	-0.040	1.080
2020/01/31 18:31:18.4	73.010	-0.130	-0.070	1.060
2020/01/31 18:31:18.5	73.020	-0.130	-0.090	1.050
2020/01/31 18:31:18.6	73.030	-0.130	-0.120	1.030
2020/01/31 18:31:18.7	73.050	-0.120	-0.150	1.000
2020/01/31 18:31:18.8	73.070	-0.110	-0.180	0.970
2020/01/31 18:31:18.9	73.100	-0.110	-0.210	0.940
2020/01/31 18:31:19.0	73.120	-0.100	-0.240	0.910
2020/01/31 18:31:19.1	73.140	-0.090	-0.270	0.880
2020/01/31 18:31:19.2	73.170	-0.070	-0.300	0.840
2020/01/31 18:31:19.3	73.200	-0.060	-0.330	0.810
2020/01/31 18:31:19.4	73.230	-0.050	-0.350	0.770
2020/01/31 18:31:19.5	73.260	-0.030	-0.380	0.730
2020/01/31 18:31:19.6	73.300	-0.010	-0.410	0.690
2020/01/31 18:31:19.7	73.330	0.000	-0.430	0.650
2020/01/31 18:31:19.8	73.350	0.020	-0.450	0.620
2020/01/31 18:31:19.9	73.390	0.040	-0.470	0.580
2020/01/31 18:31:20.0	73.420	0.050	-0.490	0.540
2020/01/31 18:31:20.1	73.460	0.070	-0.510	0.500
2020/01/31 18:31:20.2	73.490	0.080	-0.520	0.470
2020/01/31 18:31:20.3	73.520	0.100	-0.530	0.440
2020/01/31 18:31:20.4	73.550	0.110	-0.530	0.410
2020/01/31 18:31:20.5	73.580	0.130	-0.540	0.380
2020/01/31 18:31:20.6	73.610	0.140	-0.540	0.360
2020/01/31 18:31:20.7	73.630	0.150	-0.540	0.340
2020/01/31 18:31:20.8	73.660	0.160	-0.530	0.320
2020/01/31 18:31:20.9	73.680	0.160	-0.520	0.310
2020/01/31 18:31:21.0	73.700	0.170	-0.510	0.300
2020/01/31 18:31:21.1	73.710	0.170	-0.490	0.290
2020/01/31 18:31:21.2	73.720	0.170	-0.470	0.290
2020/01/31 18:31:21.3	73.730	0.170	-0.450	0.290
2020/01/31 18:31:21.4	73.740	0.170	-0.420	0.300
2020/01/31 18:31:21.5	73.740	0.160	-0.400	0.310
2020/01/31 18:31:21.6	73.730	0.160	-0.370	0.320
2020/01/31 18:31:21.7	73.730	0.150	-0.340	0.340
2020/01/31 18:31:21.8	73.720	0.140	-0.300	0.360
2020/01/31 18:31:21.9	73.700	0.120	-0.260	0.380
2020/01/31 18:31:22.0	73.680	0.110	-0.220	0.410
2020/01/31 18:31:22.1	73.660	0.090	-0.190	0.440
2020/01/31 18:31:22.2	73.640	0.070	-0.150	0.460
2020/01/31 18:31:22.3	73.610	0.050	-0.110	0.500
2020/01/31 18:31:22.4	73.580	0.030	-0.070	0.530
2020/01/31 18:31:22.5	73.550	0.010	-0.040	0.560
2020/01/31 18:31:22.6	73.520	-0.010	-0.000	0.590
2020/01/31 18:31:22.7	73.480	-0.040	0.030	0.620
2020/01/31 18:31:22.8	73.440	-0.060	0.070	0.650
2020/01/31 18:31:22.9	73.400	-0.080	0.090	0.670
2020/01/31 18:31:23.0	73.360	-0.100	0.120	0.690
2020/01/31 18:31:23.1	73.320	-0.130	0.140	0.720
2020/01/31 18:31:23.2	73.290	-0.150	0.150	0.730
2020/01/31 18:31:23.3	73.250	-0.170	0.160	0.750
2020/01/31 18:31:23.4	73.210	-0.190	0.170	0.750
2020/01/31 18:31:23.5	73.170	-0.210	0.170	0.760
2020/01/31 18:31:23.6	73.140	-0.230	0.170	0.760
2020/01/31 18:31:23.7	73.110	-0.240	0.160	0.750
2020/01/31 18:31:23.8	73.080	-0.250	0.150	0.740
2020/01/31 18:31:23.9	73.050	-0.270	0.130	0.730
2020/01/31 18:31:24.0	73.030	-0.270	0.110	0.710
2020/01/31 18:31:24.1	73.010	-0.280	0.080	0.680
2020/01/31 18:31:24.2	72.990	-0.290	0.050	0.650
2020/01/31 18:31:24.3	72.980	-0.290	0.020	0.620
2020/01/31 18:31:24.4	72.960	-0.290	-0.020	0.580
2020/01/31 18:31:24.5	72.960	-0.280	-0.060	0.540
2020/01/31 18:31:24.6	72.950	-0.280	-0.100	0.500
2020/01/31 18:31:24.7	72.950	-0.270	-0.140	0.450
2020/01/31 18:31:24.8	72.940	-0.260	-0.190	0.400
2020/01/31 18:31:24.9	72.940	-0.240	-0.230	0.350
2020/01/31 18:31:25.0	72.950	-0.230	-0.280	0.300
2020/01/31 18:31:25.1	72.950	-0.210	-0.320	0.250
2020/01/31 18:31:25.2	72.960	-0.190	-0.370	0.190
2020/01/31 18:31:25.3	72.970	-0.170	-0.410	0.140
2020/01/31 18:31:25.4	72.980	-0.150	-0.450	0.090
2020/01/31 18:31:25.5	72.990	-0.120	-0.490	0.040
2020/01/31 18:31:25.6	73.000	-0.100	-0.520	-0.010
2020/01/31 18:31:25.7	73.010	-0.070	-0.550	-0.060
2020/01/31 18:31:25.8	73.030	-0.050	-0.580	-0.100
2020/01/31 18:31:25.9	73.040	-0.020	-0.610	-0.150
2020/01/31 18:31:26.0	73.050	0.010	-0.630	-0.190
2020/01/31 18:31:26.1	73.070	0.040	-0.640	-0.240
2020/01/31 18:31:26.2	73.080	0.060	-0.660	-0.280
2020/01/31 18:31:26.3	73.100	0.090	-0.660	-0.320
2020/01/31 18:31:26.4	73.110	0.110	-0.670	-0.350
2020/01/31 18:31:26.5	73.120	0.140	-0.670	-0.390
2020/01/31 18:31:26.6	73.140	0.160	-0.660	-0.420
2020/01/31 18:31:26.7	73.150	0.180	-0.650	-0.460
2020/01/31 18:31:26.8	73.170	0.200	-0.640	-0.490
2020/01/31 18:31:26.9	73.180	0.210	-0.620	-0.520
2020/01/31 18:31:27.0	73.190	0.230	-0.600	-0.540
2020/01/31 18:31:27.1	73.210	0.240	-0.570	-0.570
2020/01/31 18:31:27.2	73.220	0.250	-0.540	-0.590
2020/01/31 18:31:27.3	73.230	0.260	-0.510	-0.610
2020/01/31 18:31:27.4	73.250	0.260	-0.470	-0.630
2020/01/31 18:31:27.5	73.260	0.270	-0.440	-0.640
2020/01/31 18:31:27.6	73.270	0.270	-0.390	-0.660
2020/01/31 18:31:27.7	73.280	0.270	-0.350	-0.660
2020/01/31 18:31:27.8	73.280	0.260	-0.310	-0.670
2020/01/31 18:31:27.9	73.290	0.260	-0.260	-0.670
2020/01/31 18:31:28.0	73.300	0.250	-0.210	-0.670
2020/01/31 18:31:28.1	73.300	0.240	-0.160	-0.660
2020/01/31 18:31:28.2	73.310	0.230	-0.110	-0.650
2020/01/31 18:31:28.3	73.310	0.220	-0.060	-0.640
2020/01/31 18:31:28.4	73.320	0.200	-0.010	-0.620
2020/01/31 18:31:28.5	73.320	0.190	0.040	-0.600
2020/01/31 18:31:28.6	73.330	0.170	0.090	-0.580
2020/01/31 18:31:28.7	73.330	0.150	0.140	-0.550
2020/01/31 18:31:28.8	73.310	0.130	0.190	-0.520
2020/01/31 18:31:28.9	73.310	0.110	0.230	-0.480
2020/01/31 18:31:29.0	73.310	0.090	0.280	-0.450
2020/01/31 18:31:29.1	73.310	0.070	0.320	-0.410
2020/01/31 18:31:29.2	73.310	0.050	0.360	-0.360
2020/01/31 18:31:29.3	73.310	0.030	0.390	-0.310
2020/01/31 18:31:29.4	73.300	0.010	0.420	-0.270
2020/01/31 18:31:29.5	73.300	-0.010	0.450	-0.220
2020/01/31 18:31:29.6	73.300	-0.030	0.470	-0.170
2020/01/31 18:31:29.7	73.300	-0.040	0.490	-0.110
2020/01/31 18:31:29.8	73.290	-0.060	0.500	-0.060
2020/01/31 18:31:29.9	73.290	-0.080	0.500	-0.000
2020/01/31 18:31:30.0	73.290	-0.090	0.500	0.050
2020/01/31 18:31:30.1	73.290	-0.110	0.500	0.100
2020/01/31 18:31:30.2	73.290	-0.120	0.480	0.150
2020/01/31 18:31:30.3	73.290	-0.130	0.460	0.200
2020/01/31 18:31:30.4	73.300	-0.140	0.440	0.250
2020/01/31 18:31:30.5	73.300	-0.150	0.410	0.290
2020/01/31 18:31:30.6	73.310	-0.160	0.370	0.340
2020/01/31 18:31:30.7	73.320	-0.160	0.330	0.380
2020/01/31 18:31:30.8	73.330	-0.170	0.280	0.410
2020/01/31 18:31:30.9	73.340	-0.170	0.230	0.450
2020/01/31 18:31:31.0	73.360	-0.170	0.170	0.480
2020/01/31 18:31:31.1	73.370	-0.170	0.110	0.510
2020/01/31 18:31:31.2	73.390	-0.170	0.040	0.530
2020/01/31 18:31:31.3	73.410	-0.160	-0.020	0.550
2020/01/31 18:31:31.4	73.430	-0.150	-0.100	0.570
2020/01/31 18:31:31.5	73.450	-0.140	-0.170	0.590
2020/01/31 18:31:31.6	73.470	-0.130	-0.240	0.600
2020/01/31 18:31:31.7	73.490	-0.120	-0.320	0.610
2020/01/31 18:31:31.8	73.520	-0.110	-0.390	0.620
2020/01/31 18:31:31.9	73.540	-0.090	-0.460	0.630
2020/01/31 18:31:32.0	73.560	-0.070	-0.530	0.640
2020/01/31 18:31:32.1	73.580	-0.060	-0.600	0.640
2020/01/31 18:31:32.2	73.610	-0.040	-0.660	0.640
2020/01/31 18:31:32.3	73.630	-0.020	-0.720	0.650
2020/01/31 18:31:32.4	73.650	0.000	-0.780	0.650
2020/01/31 18:31:32.5	73.670	0.030	-0.830	0.660
2020/01/31 18:31:32.6	73.690	0.050	-0.870	0.660
2020/01/31 18:31:32.7	73.710	0.070	-0.900	0.670
2020/01/31 18:31:32.8	73.720	0.090	-0.930	0.670
2020/01/31 18:31:32.9	73.730	0.110	-0.960	0.680
2020/01/31 18:31:33.0	73.740	0.140	-0.970	0.690
2020/01/31 18:31:33.1	73.750	0.160	-0.970	0.710
2020/01/31 18:31:33.2	73.750	0.180	-0.970	0.720
2020/01/31 18:31:33.3	73.760	0.200	-0.960	0.740
2020/01/31 18:31:33.4	73.760	0.210	-0.940	0.750
2020/01/31 18:31:33.5	73.760	0.230	-0.920	0.770
2020/01/31 18:31:33.6	73.750	0.240	-0.880	0.790
2020/01/31 18:31:33.7	73.750	0.250	-0.840	0.820
2020/01/31 18:31:33.8	73.760	0.260	-0.790	0.840
2020/01/31 18:31:33.9	73.740	0.270	-0.740	0.860
2020/01/31 18:31:34.0	73.730	0.280	-0.680	0.880
2020/01/31 18:31:34.1	73.720	0.280	-0.620	0.910
2020/01/31 18:31:34.2	73.700	0.280	-0.560	0.930
2020/01/31 18:31:34.3	73.680	0.280	-0.490	0.950
2020/01/31 18:31:34.4	73.660	0.270	-0.410	0.970
2020/01/31 18:31:34.5	73.640	0.270	-0.340	0.990
2020/01/31 18:31:34.6	73.620	0.260	-0.260	1.010
2020/01/31 18:31:34.7	73.600	0.250	-0.190	1.030
2020/01/31 18:31:34.8	73.580	0.230	-0.110	1.040
2020/01/31 18:31:34.9	73.550	0.220	-0.030	1.060
2020/01/31 18:31:35.0	73.530	0.200	0.040	1.070
2020/01/31 18:31:35.1	73.510	0.180	0.110	1.080
2020/01/31 18:31:35.2	73.490	0.160	0.190	1.080
2020/01/31 18:31:35.3	73.470	0.140	0.250	1.090
2020/01/31 18:31:35.4	73.450	0.110	0.320	1.090
2020/01/31 18:31:35.5	73.430	0.090	0.380	1.090
2020/01/31 18:31:35.6	73.410	0.060	0.430	1.090
2020/01/31 18:31:35.7	73.390	0.040	0.480	1.080
2020/01/31 18:31:35.8	73.370	0.010	0.530	1.070
2020/01/31 18:31:35.9	73.360	-0.020	0.570	1.060
2020/01/31 18:31:36.0	73.340	-0.040	0.610	1.050
2020/01/31 18:31:36.1	73.330	-0.070	0.630	1.030
2020/01/31 18:31:36.2	73.320	-0.100	0.650	1.010
2020/01/31 18:31:36.3	73.320	-0.120	0.670	0.980
2020/01/31 18:31:36.4	73.310	-0.150	0.680	0.960
2020/01/31 18:31:36.5	73.310	-0.170	0.680	0.930
2020/01/31 18:31:36.6	73.300	-0.190	0.670	0.890
2020/01/31 18:31:36.7	73.300	-0.210	0.660	0.860
2020/01/31 18:31:36.8	73.290	-0.230	0.650	0.820
2020/01/31 18:31:36.9	73.300	-0.250	0.620	0.780
2020/01/31 18:31:37.0	73.300	-0.260	0.600	0.740
2020/01/31 18:31:37.1	73.300	-0.280	0.560	0.700
2020/01/31 18:31:37.2	73.310	-0.290	0.520	0.660
2020/01/31 18:31:37.3	73.320	-0.300	0.480	0.610
2020/01/31 18:31:37.4	73.320	-0.300	0.430	0.570
2020/01/31 18:31:37.5	73.330	-0.310	0.380	0.520
2020/01/31 18:31:37.6	73.340	-0.310	0.320	0.470
2020/01/31 18:31:37.7	73.350	-0.320	0.260	0.430
2020/01/31 18:31:37.8	73.360	-0.320	0.200	0.380
2020/01/31 18:31:37.9	73.370	-0.310	0.130	0.330
2020/01/31 18:31:38.0	73.380	-0.310	0.070	0.280
2020/01/31 18:31:38.1	73.390	-0.310	0.000	0.230
2020/01/31 18:31:38.2	73.400	-0.300	-0.070	0.180
2020/01/31 18:31:38.3	73.410	-0.290	-0.130	0.130
2020/01/31 18:31:38.4	73.420	-0.280	-0.200	0.090
2020/01/31 18:31:38.5	73.430	-0.270	-0.270	0.040
2020/01/31 18:31:38.6	73.440	-0.260	-0.340	-0.010
2020/01/31 18:31:38.7	73.450	-0.250	-0.400	-0.050
2020/01/31 18:31:38.8	73.450	-0.230	-0.460	-0.100
2020/01/31 18:31:38.9	73.460	-0.220	-0.520	-0.140
2020/01/31 18:31:39.0	73.470	-0.200	-0.580	-0.190
2020/01/31 18:31:39.1	73.480	-0.180	-0.630	-0.230
2020/01/31 18:31:39.2	73.480	-0.170	-0.680	-0.270
2020/01/31 18:31:39.3	73.490	-0.150	-0.730	-0.310
2020/01/31 18:31:39.4	73.490	-0.130	-0.780	-0.350
2020/01/31 18:31:39.5	73.500	-0.110	-0.810	-0.390
2020/01/31 18:31:39.6	73.500	-0.100	-0.850	-0.420
2020/01/31 18:31:39.7	73.510	-0.080	-0.880	-0.450
2020/01/31 18:31:39.8	73.520	-0.060	-0.910	-0.490
2020/01/31 18:31:39.9	73.530	-0.040	-0.930	-0.520
2020/01/31 18:31:40.0	73.530	-0.030	-0.950	-0.550
2020/01/31 18:31:40.1	73.540	-0.010	-0.960	-0.570
2020/01/31 18:31:40.2	73.540	0.010	-0.970	-0.600
2020/01/31 18:31:40.3	73.550	0.020	-0.980	-0.620
2020/01/31 18:31:40.4	73.550	0.040	-0.980	-0.640
2020/01/31 18:31:40.5	73.560	0.060	-0.970	-0.660
2020/01/31 18:31:40.6	73.560	0.070	-0.970	-0.680
2020/01/31 18:31:40.7	73.570	0.080	-0.960	-0.690
2020/01/31 18:31:40.8	73.580	0.100	-0.940	-0.700
2020/01/31 18:31:40.9	73.580	0.110	-0.920	-0.720
2020/01/31 18:31:41.0	73.590	0.120	-0.900	-0.730
2020/01/31 18:31:41.1	73.600	0.130	-0.870	-0.730
2020/01/31 18:31:41.2	73.600	0.150	-0.840	-0.740
2020/01/31 18:31:41.3	73.610	0.160	-0.810	-0.740
2020/01/31 18:31:41.4	73.620	0.170	-0.780	-0.740
2020/01/31 18:31:41.5	73.630	0.180	-0.740	-0.740
2020/01/31 18:31:41.6	73.640	0.190	-0.710	-0.740
2020/01/31 18:31:41.7	73.650	0.200	-0.670	-0.740
2020/01/31 18:31:41.8	73.660	0.210	-0.630	-0.730
2020/01/31 18:31:41.9	73.670	0.220	-0.590	-0.730
2020/01/31 18:31:42.0	73.680	0.220	-0.550	-0.720
2020/01/31 18:31:42.1	73.690	0.230	-0.500	-0.710
2020/01/31 18:31:42.2	73.700	0.240	-0.460	-0.700
2020/01/31 18:31:42.3	73.710	0.250	-0.420	-0.680
2020/01/31 18:31:42.4	73.730	0.260	-0.380	-0.670
2020/01/31 18:31:42.5	73.740	0.260	-0.340	-0.650
2020/01/31 18:31:42.6	73.750	0.270	-0.300	-0.630
2020/01/31 18:31:42.7	73.760	0.270	-0.260	-0.610
2020/01/31 18:31:42.8	73.780	0.280	-0.220	-0.590
2020/01/31 18:31:42.9	73.780	0.280	-0.180	-0.570
2020/01/31 18:31:43.0	73.790	0.290	-0.140	-0.540
2020/01/31 18:31:43.1	73.800	0.290	-0.110	-0.510
2020/01/31 18:31:43.2	73.800	0.290	-0.070	-0.470
2020/01/31 18:31:43.3	73.800	0.290	-0.030	-0.440
2020/01/31 18:31:43.4	73.800	0.290	0.010	-0.400
2020/01/31 18:31:43.5	73.800	0.290	0.040	-0.350
2020/01/31 18:31:43.6	73.790	0.280	0.080	-0.310
2020/01/31 18:31:43.7	73.780	0.280	0.120	-0.260
2020/01/31 18:31:43.8	73.770	0.270	0.160	-0.200
2020/01/31 18:31:43.9	73.750	0.260	0.200	-0.150
2020/01/31 18:31:44.0	73.730	0.250	0.230	-0.090
2020/01/31 18:31:44.1	73.710	0.230	0.270	-0.030
2020/01/31 18:31:44.2	73.690	0.210	0.310	0.040
2020/01/31 18:31:44.3	73.660	0.190	0.350	0.100
2020/01/31 18:31:44.4	73.630	0.170	0.380	0.160
2020/01/31 18:31:44.5	73.600	0.150	0.420	0.230
2020/01/31 18:31:44.6	73.570	0.120	0.450	0.290
2020/01/31 18:31:44.7	73.540	0.090	0.490	0.360
2020/01/31 18:31:44.8	73.490	0.060	0.520	0.420
2020/01/31 18:31:44.9	73.460	0.030	0.550	0.480
2020/01/31 18:31:45.0	73.420	-0.000	0.580	0.540
2020/01/31 18:31:45.1	73.390	-0.040	0.610	0.600
2020/01/31 18:31:45.2	73.350	-0.070	0.630	0.660
2020/01/31 18:31:45.3	73.310	-0.110	0.660	0.710
2020/01/31 18:31:45.4	73.280	-0.150	0.680	0.760
2020/01/31 18:31:45.5	73.240	-0.180	0.690	0.800
2020/01/31 18:31:45.6	73.210	-0.220	0.710	0.850
2020/01/31 18:31:45.7	73.170	-0.260	0.720	0.880
2020/01/31 18:31:45.8	73.130	-0.300	0.730	0.910
2020/01/31 18:31:45.9	73.110	-0.330	0.730	0.940
2020/01/31 18:31:46.0	73.080	-0.360	0.730	0.960
2020/01/31 18:31:46.1	73.050	-0.400	0.720	0.980
2020/01/31 18:31:46.2	73.030	-0.420	0.710	0.990
2020/01/31 18:31:46.3	73.010	-0.450	0.690	1.000
2020/01/31 18:31:46.4	73.000	-0.480	0.660	1.000
2020/01/31 18:31:46.5	72.990	-0.500	0.630	0.990
2020/01/31 18:31:46.6	72.980	-0.510	0.590	0.980
2020/01/31 18:31:46.7	72.970	-0.530	0.550	0.970
2020/01/31 18:31:46.8	72.970	-0.530	0.490	0.950
2020/01/31 18:31:46.9	72.970	-0.540	0.430	0.920
2020/01/31 18:31:47.0	72.980	-0.540	0.370	0.890
2020/01/31 18:31:47.1	72.990	-0.540	0.300	0.850
2020/01/31 18:31:47.2	73.010	-0.530	0.220	0.810
2020/01/31 18:31:47.3	73.030	-0.510	0.130	0.770
2020/01/31 18:31:47.4	73.050	-0.490	0.050	0.720
2020/01/31 18:31:47.5	73.080	-0.470	-0.050	0.670
2020/01/31 18:31:47.6	73.110	-0.440	-0.140	0.610
2020/01/31 18:31:47.7	73.140	-0.410	-0.240	0.560
2020/01/31 18:31:47.8	73.170	-0.370	-0.340	0.500
2020/01/31 18:31:47.9	73.210	-0.330	-0.450	0.450
2020/01/31 18:31:48.0	73.250	-0.280	-0.550	0.390
2020/01/31 18:31:48.1	73.300	-0.240	-0.650	0.340
2020/01/31 18:31:48.2	73.340	-0.180	-0.750	0.290
2020/01/31 18:31:48.3	73.380	-0.130	-0.850	0.240
2020/01/31 18:31:48.4	73.430	-0.070	-0.940	0.190
2020/01/31 18:31:48.5	73.470	-0.020	-1.030	0.150
2020/01/31 18:31:48.6	73.510	0.040	-1.110	0.120
2020/01/31 18:31:48.7	73.550	0.100	-1.190	0.080
2020/01/31 18:31:48.8	73.600	0.160	-1.260	0.050
2020/01/31 18:31:48.9	73.640	0.220	-1.320	0.030
2020/01/31 18:31:49.0	73.680	0.280	-1.370	0.010
2020/01/31 18:31:49.1	73.710	0.340	-1.410	-0.010
2020/01/31 18:31:49.2	73.750	0.390	-1.440	-0.020
2020/01/31 18:31:49.3	73.780	0.450	-1.470	-0.030
2020/01/31 18:31:49.4	73.800	0.500	-1.480	-0.030
2020/01/31 18:31:49.5	73.830	0.540	-1.490	-0.030
2020/01/31 18:31:49.6	73.850	0.580	-1.480	-0.030
2020/01/31 18:31:49.7	73.860	0.620	-1.470	-0.020
2020/01/31 18:31:49.8	73.880	0.660	-1.440	-0.000
2020/01/31 18:31:49.9	73.890	0.680	-1.410	0.010
2020/01/31 18:31:50.0	73.890	0.710	-1.370	0.020
2020/01/31 18:31:50.1	73.900	0.720	-1.320	0.040
2020/01/31 18:31:50.2	73.900	0.730	-1.260	0.060
2020/01/31 18:31:50.3	73.900	0.740	-1.200	0.080
2020/01/31 18:31:50.4	73.890	0.740	-1.130	0.100
2020/01/31 18:31:50.5	73.880	0.730	-1.050	0.120
2020/01/31 18:31:50.6	73.870	0.720	-0.970	0.140
2020/01/31 18:31:50.7	73.860	0.700	-0.890	0.160
2020/01/31 18:31:50.8	73.860	0.680	-0.800	0.170
2020/01/31 18:31:50.9	73.840	0.650	-0.710	0.190
2020/01/31 18:31:51.0	73.830	0.620	-0.610	0.210
2020/01/31 18:31:51.1	73.810	0.580	-0.520	0.230
2020/01/31 18:31:51.2	73.790	0.540	-0.420	0.240
2020/01/31 18:31:51.3	73.770	0.500	-0.320	0.260
2020/01/31 18:31:51.4	73.740	0.450	-0.220	0.280
2020/01/31 18:31:51.5	73.720	0.390	-0.130	0.290
2020/01/31 18:31:51.6	73.700	0.340	-0.030	0.300
2020/01/31 18:31:51.7	73.670	0.280	0.060	0.310
2020/01/31 18:31:51.8	73.640	0.220	0.160	0.330
2020/01/31 18:31:51.9	73.620	0.160	0.250	0.330
2020/01/31 18:31:52.0	73.590	0.100	0.340	0.340
2020/01/31 18:31:52.1	73.560	0.040	0.420	0.350
2020/01/31 18:31:52.2	73.530	-0.020	0.500	0.350
2020/01/31 18:31:52.3	73.500	-0.080	0.570	0.350
2020/01/31 18:31:52.4	73.470	-0.150	0.650	0.360
2020/01/31 18:31:52.5	73.430	-0.210	0.710	0.350
2020/01/31 18:31:52.6	73.400	-0.260	0.780	0.350
2020/01/31 18:31:52.7	73.370	-0.320	0.830	0.350
2020/01/31 18:31:52.8	73.330	-0.370	0.890	0.340
2020/01/31 18:31:52.9	73.300	-0.420	0.940	0.330
2020/01/31 18:31:53.0	73.270	-0.470	0.980	0.320
2020/01/31 18:31:53.1	73.240	-0.520	1.020	0.310
2020/01/31 18:31:53.2	73.200	-0.560	1.050	0.290
2020/01/31 18:31:53.3	73.170	-0.600	1.080	0.280
2020/01/31 18:31:53.4	73.140	-0.630	1.100	0.260
2020/01/31 18:31:53.5	73.110	-0.660	1.110	0.240
2020/01/31 18:31:53.6	73.080	-0.680	1.120	0.220
2020/01/31 18:31:53.7	73.060	-0.700	1.130	0.190
2020/01/31 18:31:53.8	73.020	-0.720	1.120	0.170
2020/01/31 18:31:53.9	72.990	-0.730	1.110	0.140
2020/01/31 18:31:54.0	72.970	-0.740	1.100	0.110
2020/01/31 18:31:54.1	72.950	-0.740	1.080	0.080
2020/01/31 18:31:54.2	72.930	-0.740	1.050	0.050
2020/01/31 18:31:54.3	72.920	-0.730	1.010	0.020
2020/01/31 18:31:54.4	72.900	-0.720	0.970	-0.010
2020/01/31 18:31:54.5	72.890	-0.700	0.920	-0.040
2020/01/31 18:31:54.6	72.880	-0.680	0.860	-0.080
2020/01/31 18:31:54.7	72.880	-0.660	0.800	-0.110
2020/01/31 18:31:54.8	72.860	-0.630	0.730	-0.150
2020/01/31 18:31:54.9	72.860	-0.600	0.650	-0.190
2020/01/31 18:31:55.0	72.860	-0.560	0.570	-0.220
2020/01/31 18:31:55.1	72.870	-0.520	0.480	-0.260
2020/01/31 18:31:55.2	72.870	-0.480	0.380	-0.300
2020/01/31 18:31:55.3	72.880	-0.440	0.280	-0.340
2020/01/31 18:31:55.4	72.900	-0.390	0.170	-0.380
2020/01/31 18:31:55.5	72.910	-0.340	0.060	-0.420
2020/01/31 18:31:55.6	72.930	-0.290	-0.050	-0.460
2020/01/31 18:31:55.7	72.950	-0.230	-0.170	-0.500
2020/01/31 18:31:55.8	72.990	-0.180	-0.290	-0.540
2020/01/31 18:31:55.9	73.020	-0.120	-0.410	-0.580
2020/01/31 18:31:56.0	73.050	-0.060	-0.540	-0.620
2020/01/31 18:31:56.1	73.080	-0.010	-0.660	-0.660
2020/01/31 18:31:56.2	73.110	0.050	-0.780	-0.690
2020/01/31 18:31:56.3	73.150	0.110	-0.900	-0.730
2020/01/31 18:31:56.4	73.180	0.160	-1.010	-0.770
2020/01/31 18:31:56.5	73.220	0.220	-1.120	-0.800
2020/01/31 18:31:56.6	73.260	0.270	-1.230	-0.830
2020/01/31 18:31:56.7	73.310	0.320	-1.330	-0.860
2020/01/31 18:31:56.8	73.350	0.380	-1.420	-0.880
2020/01/31 18:31:56.9	73.390	0.420	-1.510	-0.910
2020/01/31 18:31:57.0	73.430	0.470	-1.590	-0.930
2020/01/31 18:31:57.1	73.480	0.510	-1.660	-0.940
2020/01/31 18:31:57.2	73.520	0.550	-1.720	-0.950
2020/01/31 18:31:57.3	73.560	0.590	-1.770	-0.960
2020/01/31 18:31:57.4	73.600	0.630	-1.810	-0.970
2020/01/31 18:31:57.5	73.630	0.660	-1.840	-0.960
2020/01/31 18:31:57.6	73.670	0.680	-1.860	-0.960
2020/01/31 18:31:57.7	73.700	0.710	-1.870	-0.950
2020/01/31 18:31:57.8	73.740	0.730	-1.860	-0.930
2020/01/31 18:31:57.9	73.770	0.740	-1.850	-0.900
2020/01/31 18:31:58.0	73.790	0.760	-1.820	-0.870
2020/01/31 18:31:58.1	73.810	0.760	-1.780	-0.840
2020/01/31 18:31:58.2	73.830	0.770	-1.730	-0.800
2020/01/31 18:31:58.3	73.850	0.770	-1.680	-0.750
2020/01/31 18:31:58.4	73.850	0.760	-1.610	-0.700
2020/01/31 18:31:58.5	73.860	0.760	-1.530	-0.640
2020/01/31 18:31:58.6	73.860	0.740	-1.440	-0.580
2020/01/31 18:31:58.7	73.860	0.730	-1.350	-0.510
2020/01/31 18:31:58.8	73.870	0.710	-1.240	-0.440
2020/01/31 18:31:58.9	73.860	0.680	-1.130	-0.370
2020/01/31 18:31:59.0	73.840	0.650	-1.020	-0.290
2020/01/31 18:31:59.1	73.830	0.620	-0.890	-0.200
2020/01/31 18:31:59.2	73.810	0.590	-0.770	-0.120
2020/01/31 18:31:59.3	73.780	0.550	-0.640	-0.030
2020/01/31 18:31:59.4	73.760	0.510	-0.510	0.060
2020/01/31 18:31:59.5	73.730	0.460	-0.370	0.150
2020/01/31 18:31:59.6	73.690	0.420	-0.240	0.240
2020/01/31 18:31:59.7	73.660	0.370	-0.100	0.330
2020/01/31 18:31:59.8	73.620	0.310	0.040	0.420
2020/01/31 18:31:59.9	73.580	0.260	0.170	0.510
2020/01/31 18:32:00.0	73.540	0.200	0.310	0.590
2020/01/31 18:32:00.1	73.500	0.150	0.440	0.670
2020/01/31 18:32:00.2	73.450	0.090	0.560	0.750
2020/01/31 18:32:00.3	73.410	0.030	0.680	0.820
2020/01/31 18:32:00.4	73.370	-0.030	0.800	0.890
2020/01/31 18:32:00.5	73.330	-0.090	0.910	0.960
2020/01/31 18:32:00.6	73.280	-0.150	1.010	1.010
2020/01/31 18:32:00.7	73.240	-0.210	1.110	1.070
2020/01/31 18:32:00.8	73.200	-0.270	1.200	1.110
2020/01/31 18:32:00.9	73.160	-0.330	1.280	1.150
2020/01/31 18:32:01.0	73.130	-0.380	1.360	1.180
2020/01/31 18:32:01.1	73.090	-0.440	1.420	1.200
2020/01/31 18:32:01.2	73.060	-0.490	1.470	1.220
2020/01/31 18:32:01.3	73.040	-0.540	1.520	1.230
2020/01/31 18:32:01.4	73.010	-0.590	1.550	1.230
2020/01/31 18:32:01.5	72.990	-0.630	1.580	1.220
2020/01/31 18:32:01.6	72.980	-0.670	1.590	1.210
2020/01/31 18:32:01.7	72.960	-0.710	1.590	1.190
2020/01/31 18:32:01.8	72.940	-0.740	1.590	1.160
2020/01/31 18:32:01.9	72.940	-0.770	1.570	1.120
2020/01/31 18:32:02.0	72.940	-0.790	1.540	1.080
2020/01/31 18:32:02.1	72.940	-0.810	1.500	1.030
2020/01/31 18:32:02.2	72.950	-0.830	1.450	0.980
2020/01/31 18:32:02.3	72.950	-0.840	1.380	0.920
2020/01/31 18:32:02.4	72.970	-0.850	1.310	0.860
2020/01/31 18:32:02.5	72.980	-0.850	1.230	0.800
2020/01/31 18:32:02.6	73.000	-0.840	1.140	0.730
2020/01/31 18:32:02.7	73.020	-0.830	1.050	0.660
2020/01/31 18:32:02.8	73.030	-0.810	0.940	0.590
2020/01/31 18:32:02.9	73.050	-0.790	0.830	0.520
2020/01/31 18:32:03.0	73.080	-0.770	0.720	0.450
2020/01/31 18:32:03.1	73.100	-0.740	0.600	0.380
2020/01/31 18:32:03.2	73.130	-0.700	0.470	0.320
2020/01/31 18:32:03.3	73.150	-0.670	0.350	0.250
2020/01/31 18:32:03.4	73.180	-0.620	0.220	0.190
2020/01/31 18:32:03.5	73.200	-0.580	0.090	0.140
2020/01/31 18:32:03.6	73.220	-0.530	-0.040	0.080
2020/01/31 18:32:03.7	73.250	-0.480	-0.170	0.030
2020/01/31 18:32:03.8	73.270	-0.420	-0.300	-0.020
2020/01/31 18:32:03.9	73.290	-0.370	-0.420	-0.070
2020/01/31 18:32:04.0	73.310	-0.310	-0.540	-0.110
2020/01/31 18:32:04.1	73.330	-0.250	-0.660	-0.140
2020/01/31 18:32:04.2	73.340	-0.190	-0.770	-0.180
2020/01/31 18:32:04.3	73.360	-0.130	-0.880	-0.210
2020/01/31 18:32:04.4	73.370	-0.070	-0.990	-0.240
2020/01/31 18:32:04.5	73.380	-0.010	-1.080	-0.260
2020/01/31 18:32:04.6	73.390	0.040	-1.170	-0.280
2020/01/31 18:32:04.7	73.400	0.100	-1.260	-0.300
2020/01/31 18:32:04.8	73.420	0.150	-1.330	-0.320
2020/01/31 18:32:04.9	73.430	0.210	-1.400	-0.330
2020/01/31 18:32:05.0	73.430	0.260	-1.460	-0.350
2020/01/31 18:32:05.1	73.430	0.300	-1.520	-0.360
2020/01/31 18:32:05.2	73.440	0.350	-1.560	-0.370
2020/01/31 18:32:05.3	73.440	0.390	-1.600	-0.380
2020/01/31 18:32:05.4	73.440	0.420	-1.630	-0.390
2020/01/31 18:32:05.5	73.440	0.460	-1.650	-0.400
2020/01/31 18:32:05.6	73.440	0.490	-1.670	-0.410
2020/01/31 18:32:05.7	73.440	0.520	-1.670	-0.420
2020/01/31 18:32:05.8	73.460	0.540	-1.670	-0.420
2020/01/31 18:32:05.9	73.460	0.560	-1.660	-0.430
2020/01/31 18:32:06.0	73.460	0.580	-1.650	-0.430
2020/01/31 18:32:06.1	73.460	0.590	-1.620	-0.440
2020/01/31 18:32:06.2	73.460	0.600	-1.600	-0.440
2020/01/31 18:32:06.3	73.460	0.610	-1.560	-0.440
2020/01/31 18:32:06.4	73.470	0.610	-1.520	-0.440
2020/01/31 18:32:06.5	73.470	0.610	-1.470	-0.440
2020/01/31 18:32:06.6	73.480	0.610	-1.420	-0.440
2020/01/31 18:32:06.7	73.480	0.610	-1.360	-0.430
2020/01/31 18:32:06.8	73.490	0.600	-1.300	-0.430
2020/01/31 18:32:06.9	73.490	0.590	-1.230	-0.420
2020/01/31 18:32:07.0	73.500	0.580	-1.160	-0.400
2020/01/31 18:32:07.1	73.510	0.570	-1.090	-0.390
2020/01/31 18:32:07.2	73.520	0.560	-1.010	-0.370
2020/01/31 18:32:07.3	73.520	0.540	-0.930	-0.350
2020/01/31 18:32:07.4	73.530	0.530	-0.850	-0.330
2020/01/31 18:32:07.5	73.540	0.510	-0.770	-0.300
2020/01/31 18:32:07.6	73.550	0.500	-0.690	-0.270
2020/01/31 18:32:07.7	73.560	0.480	-0.610	-0.240
2020/01/31 18:32:07.8	73.570	0.460	-0.520	-0.210
2020/01/31 18:32:07.9	73.580	0.440	-0.440	-0.170
2020/01/31 18:32:08.0	73.590	0.420	-0.350	-0.130
2020/01/31 18:32:08.1	73.600	0.400	-0.270	-0.090
2020/01/31 18:32:08.2	73.610	0.380	-0.190	-0.040
2020/01/31 18:32:08.3	73.610	0.360	-0.100	0.000
2020/01/31 18:32:08.4	73.620	0.340	-0.020	0.050
2020/01/31 18:32:08.5	73.620	0.320	0.060	0.100
2020/01/31 18:32:08.6	73.630	0.290	0.140	0.150
2020/01/31 18:32:08.7	73.630	0.270	0.220	0.210
2020/01/31 18:32:08.8	73.610	0.240	0.300	0.260
2020/01/31 18:32:08.9	73.610	0.220	0.370	0.310
2020/01/31 18:32:09.0	73.610	0.190	0.450	0.370
2020/01/31 18:32:09.1	73.600	0.160	0.520	0.430
2020/01/31 18:32:09.2	73.590	0.130	0.590	0.480
2020/01/31 18:32:09.3	73.580	0.100	0.650	0.540
2020/01/31 18:32:09.4	73.570	0.070	0.720	0.590
2020/01/31 18:32:09.5	73.560	0.040	0.780	0.640
2020/01/31 18:32:09.6	73.550	0.010	0.830	0.690
2020/01/31 18:32:09.7	73.530	-0.030	0.880	0.740
2020/01/31 18:32:09.8	73.520	-0.060	0.930	0.790
2020/01/31 18:32:09.9	73.500	-0.090	0.970	0.830
2020/01/31 18:32:10.0	73.490	-0.130	1.010	0.880
2020/01/31 18:32:10.1	73.470	-0.160	1.040	0.920
2020/01/31 18:32:10.2	73.450	-0.200	1.070	0.950
2020/01/31 18:32:10.3	73.430	-0.230	1.090	0.980
2020/01/31 18:32:10.4	73.410	-0.260	1.100	1.010
2020/01/31 18:32:10.5	73.390	-0.300	1.110	1.040
2020/01/31 18:32:10.6	73.370	-0.330	1.110	1.060
2020/01/31 18:32:10.7	73.360	-0.360	1.100	1.070
2020/01/31 18:32:10.8	73.330	-0.390	1.100	1.080
2020/01/31 18:32:10.9	73.310	-0.420	1.080	1.090
2020/01/31 18:32:11.0	73.300	-0.440	1.050	1.090
2020/01/31 18:32:11.1	73.290	-0.470	1.020	1.090
2020/01/31 18:32:11.2	73.280	-0.490	0.980	1.080
2020/01/31 18:32:11.3	73.270	-0.510	0.930	1.070
2020/01/31 18:32:11.4	73.260	-0.520	0.880	1.050
2020/01/31 18:32:11.5	73.250	-0.540	0.820	1.030
2020/01/31 18:32:11.6	73.250	-0.550	0.750	1.010
2020/01/31 18:32:11.7	73.250	-0.550	0.690	0.980
2020/01/31 18:32:11.8	73.260	-0.560	0.600	0.940
2020/01/31 18:32:11.9	73.260	-0.560	0.530	0.900
2020/01/31 18:32:12.0	73.270	-0.560	0.440	0.860
2020/01/31 18:32:12.1	73.280	-0.550	0.360	0.820
2020/01/31 18:32:12.2	73.280	-0.550	0.270	0.780
2020/01/31 18:32:12.3	73.290	-0.540	0.180	0.730
2020/01/31 18:32:12.4	73.300	-0.520	0.090	0.680
2020/01/31 18:32:12.5	73.310	-0.510	-0.000	0.640
2020/01/31 18:32:12.6	73.330	-0.490	-0.090	0.590
2020/01/31 18:32:12.7	73.340	-0.470	-0.180	0.550
2020/01/31 18:32:12.8	73.340	-0.440	-0.270	0.500
2020/01/31 18:32:12.9	73.350	-0.420	-0.350	0.460
2020/01/31 18:32:13.0	73.360	-0.390	-0.440	0.420
2020/01/31 18:32:13.1	73.370	-0.360	-0.510	0.380
2020/01/31 18:32:13.2	73.380	-0.330	-0.590	0.340
2020/01/31 18:32:13.3	73.390	-0.300	-0.660	0.300
2020/01/31 18:32:13.4	73.390	-0.270	-0.730	0.270
2020/01/31 18:32:13.5	73.400	-0.240	-0.790	0.230
2020/01/31 18:32:13.6	73.400	-0.210	-0.840	0.200
2020/01/31 18:32:13.7	73.400	-0.170	-0.890	0.170
2020/01/31 18:32:13.8	73.410	-0.140	-0.940	0.140
2020/01/31 18:32:13.9	73.410	-0.110	-0.980	0.110
2020/01/31 18:32:14.0	73.410	-0.080	-1.010	0.080
2020/01/31 18:32:14.1	73.410	-0.040	-1.040	0.060
2020/01/31 18:32:14.2	73.410	-0.010	-1.060	0.040
2020/01/31 18:32:14.3	73.410	0.020	-1.080	0.010
2020/01/31 18:32:14.4	73.410	0.050	-1.100	-0.010
2020/01/31 18:32:14.5	73.410	0.080	-1.110	-0.030
2020/01/31 18:32:14.6	73.410	0.110	-1.110	-0.060
2020/01/31 18:32:14.7	73.410	0.130	-1.110	-0.080
2020/01/31 18:32:14.8	73.420	0.160	-1.110	-0.100
2020/01/31 18:32:14.9	73.420	0.190	-1.100	-0.120
2020/01/31 18:32:15.0	73.420	0.210	-1.080	-0.140
2020/01/31 18:32:15.1	73.430	0.240	-1.070	-0.170
2020/01/31 18:32:15.2	73.430	0.260	-1.050	-0.190
2020/01/31 18:32:15.3	73.440	0.280	-1.030	-0.210
2020/01/31 18:32:15.4	73.450	0.300	-1.010	-0.240
2020/01/31 18:32:15.5	73.460	0.330	-0.980	-0.260
2020/01/31 18:32:15.6	73.470	0.350	-0.960	-0.280
2020/01/31 18:32:15.7	73.480	0.370	-0.930	-0.310
2020/01/31 18:32:15.8	73.490	0.390	-0.900	-0.330
2020/01/31 18:32:15.9	73.510	0.410	-0.870	-0.350
2020/01/31 18:32:16.0	73.520	0.430	-0.840	-0.370
2020/01/31 18:32:16.1	73.540	0.440	-0.810	-0.390
2020/01/31 18:32:16.2	73.550	0.460	-0.780	-0.400
2020/01/31 18:32:16.3	73.570	0.480	-0.750	-0.420
2020/01/31 18:32:16.4	73.590	0.500	-0.710	-0.430
2020/01/31 18:32:16.5	73.610	0.510	-0.680	-0.440
2020/01/31 18:32:16.6	73.630	0.520	-0.640	-0.440
2020/01/31 18:32:16.7	73.650	0.540	-0.610	-0.440
2020/01/31 18:32:16.8	73.660	0.550	-0.570	-0.440
2020/01/31 18:32:16.9	73.680	0.560	-0.540	-0.440
2020/01/31 18:32:17.0	73.700	0.570	-0.500	-0.430
2020/01/31 18:32:17.1	73.710	0.570	-0.460	-0.410
2020/01/31 18:32:17.2	73.730	0.580	-0.420	-0.390
2020/01/31 18:32:17.3	73.740	0.580	-0.390	-0.370
2020/01/31 18:32:17.4	73.750	0.580	-0.340	-0.350
2020/01/31 18:32:17.5	73.760	0.580	-0.300	-0.320
2020/01/31 18:32:17.6	73.770	0.570	-0.260	-0.280
2020/01/31 18:32:17.7	73.770	0.570	-0.220	-0.240
2020/01/31 18:32:17.8	73.780	0.550	-0.170	-0.200
2020/01/31 18:32:17.9	73.790	0.540	-0.120	-0.160
2020/01/31 18:32:18.0	73.780	0.520	-0.080	-0.110
2020/01/31 18:32:18.1	73.780	0.500	-0.030	-0.060
2020/01/31 18:32:18.2	73.780	0.480	0.020	-0.010
2020/01/31 18:32:18.3	73.770	0.450	0.060	0.050
2020/01/31 18:32:18.4	73.760	0.420	0.110	0.100
2020/01/31 18:32:18.5	73.750	0.390	0.160	0.160
2020/01/31 18:32:18.6	73.740	0.350	0.200	0.220
2020/01/31 18:32:18.7	73.730	0.320	0.250	0.280
2020/01/31 18:32:18.8	73.710	0.280	0.290	0.340
2020/01/31 18:32:18.9	73.700	0.240	0.330	0.400
2020/01/31 18:32:19.0	73.680	0.190	0.370	0.450
2020/01/31 18:32:19.1	73.660	0.150	0.410	0.510
2020/01/31 18:32:19.2	73.650	0.100	0.440	0.560
2020/01/31 18:32:19.3	73.630	0.050	0.470	0.610
2020/01/31 18:32:19.4	73.610	0.000	0.500	0.660
2020/01/31 18:32:19.5	73.590	-0.040	0.530	0.700
2020/01/31 18:32:19.6	73.580	-0.090	0.550	0.740
2020/01/31 18:32:19.7	73.560	-0.140	0.580	0.780
2020/01/31 18:32:19.8	73.540	-0.190	0.590	0.820
2020/01/31 18:32:19.9	73.520	-0.230	0.600	0.840
2020/01/31 18:32:20.0	73.510	-0.280	0.610	0.870
2020/01/31 18:32:20.1	73.490	-0.320	0.620	0.890
2020/01/31 18:32:20.2	73.480	-0.360	0.630	0.900
2020/01/31 18:32:20.3	73.460	-0.400	0.630	0.910
2020/01/31 18:32:20.4	73.450	-0.440	0.620	0.920
2020/01/31 18:32:20.5	73.440	-0.470	0.620	0.920
2020/01/31 18:32:20.6	73.430	-0.500	0.610	0.920
2020/01/31 18:32:20.7	73.420	-0.530	0.600	0.910
2020/01/31 18:32:20.8	73.400	-0.550	0.580	0.900
2020/01/31 18:32:20.9	73.390	-0.570	0.560	0.890
2020/01/31 18:32:21.0	73.380	-0.580	0.540	0.870
2020/01/31 18:32:21.1	73.370	-0.590	0.520	0.850
2020/01/31 18:32:21.2	73.360	-0.600	0.490	0.830
2020/01/31 18:32:21.3	73.350	-0.610	0.470	0.800
2020/01/31 18:32:21.4	73.340	-0.610	0.430	0.780
2020/01/31 18:32:21.5	73.330	-0.600	0.400	0.750
2020/01/31 18:32:21.6	73.330	-0.590	0.370	0.720
2020/01/31 18:32:21.7	73.320	-0.580	0.330	0.690
2020/01/31 18:32:21.8	73.310	-0.570	0.290	0.660
2020/01/31 18:32:21.9	73.310	-0.550	0.250	0.630
2020/01/31 18:32:22.0	73.300	-0.530	0.200	0.600
2020/01/31 18:32:22.1	73.300	-0.500	0.150	0.560
2020/01/31 18:32:22.2	73.300	-0.480	0.110	0.530
2020/01/31 18:32:22.3	73.300	-0.450	0.050	0.500
2020/01/31 18:32:22.4	73.300	-0.410	-0.000	0.460
2020/01/31 18:32:22.5	73.300	-0.380	-0.060	0.430
2020/01/31 18:32:22.6	73.300	-0.350	-0.110	0.400
2020/01/31 18:32:22.7	73.310	-0.310	-0.170	0.360
2020/01/31 18:32:22.8	73.310	-0.270	-0.230	0.330
2020/01/31 18:32:22.9	73.320	-0.240	-0.290	0.290
2020/01/31 18:32:23.0	73.330	-0.200	-0.360	0.260
2020/01/31 18:32:23.1	73.340	-0.160	-0.420	0.220
2020/01/31 18:32:23.2	73.360	-0.120	-0.480	0.190
2020/01/31 18:32:23.3	73.370	-0.090	-0.540	0.150
2020/01/31 18:32:23.4	73.390	-0.050	-0.600	0.120
2020/01/31 18:32:23.5	73.400	-0.020	-0.660	0.080
2020/01/31 18:32:23.6	73.420	0.010	-0.720	0.050
2020/01/31 18:32:23.7	73.450	0.040	-0.770	0.020
2020/01/31 18:32:23.8	73.470	0.070	-0.830	-0.010
2020/01/31 18:32:23.9	73.490	0.100	-0.880	-0.040
2020/01/31 18:32:24.0	73.520	0.120	-0.920	-0.070
2020/01/31 18:32:24.1	73.540	0.140	-0.970	-0.100
2020/01/31 18:32:24.2	73.570	0.160	-1.000	-0.130
2020/01/31 18:32:24.3	73.590	0.180	-1.040	-0.160
2020/01/31 18:32:24.4	73.620	0.190	-1.060	-0.180
2020/01/31 18:32:24.5	73.640	0.210	-1.090	-0.210
2020/01/31 18:32:24.6	73.660	0.210	-1.100	-0.230
2020/01/31 18:32:24.7	73.690	0.220	-1.110	-0.250
2020/01/31 18:32:24.8	73.720	0.220	-1.110	-0.270
2020/01/31 18:32:24.9	73.740	0.220	-1.110	-0.280
2020/01/31 18:32:25.0	73.760	0.220	-1.100	-0.290
2020/01/31 18:32:25.1	73.780	0.220	-1.080	-0.300
2020/01/31 18:32:25.2	73.800	0.210	-1.060	-0.310
2020/01/31 18:32:25.3	73.810	0.200	-1.030	-0.310
2020/01/31 18:32:25.4	73.830	0.190	-1.000	-0.310
2020/01/31 18:32:25.5	73.840	0.180	-0.950	-0.300
2020/01/31 18:32:25.6	73.850	0.170	-0.900	-0.290
2020/01/31 18:32:25.7	73.860	0.150	-0.850	-0.280
2020/01/31 18:32:25.8	73.880	0.130	-0.790	-0.260
2020/01/31 18:32:25.9	73.880	0.120	-0.720	-0.240
2020/01/31 18:32:26.0	73.880	0.100	-0.650	-0.210
2020/01/31 18:32:26.1	73.880	0.080	-0.580	-0.180
2020/01/31 18:32:26.2	73.880	0.060	-0.510	-0.150
2020/01/31 18:32:26.3	73.870	0.040	-0.430	-0.120
2020/01/31 18:32:26.4	73.860	0.020	-0.350	-0.080
2020/01/31 18:32:26.5	73.850	-0.000	-0.270	-0.040
2020/01/31 18:32:26.6	73.840	-0.020	-0.190	0.000
2020/01/31 18:32:26.7	73.830	-0.040	-0.110	0.050
2020/01/31 18:32:26.8	73.800	-0.060	-0.030	0.090
2020/01/31 18:32:26.9	73.790	-0.080	0.040	0.140
2020/01/31 18:32:27.0	73.770	-0.100	0.120	0.180
2020/01/31 18:32:27.1	73.760	-0.110	0.180	0.230
2020/01/31 18:32:27.2	73.740	-0.120	0.250	0.280
2020/01/31 18:32:27.3	73.720	-0.130	0.310	0.320
2020/01/31 18:32:27.4	73.700	-0.140	0.360	0.360
2020/01/31 18:32:27.5	73.690	-0.150	0.400	0.410
2020/01/31 18:32:27.6	73.670	-0.150	0.440	0.450
2020/01/31 18:32:27.7	73.660	-0.150	0.480	0.490
2020/01/31 18:32:27.8	73.640	-0.150	0.510	0.520
2020/01/31 18:32:27.9	73.620	-0.150	0.530	0.560
2020/01/31 18:32:28.0	73.610	-0.140	0.540	0.590
2020/01/31 18:32:28.1	73.600	-0.140	0.540	0.610
2020/01/31 18:32:28.2	73.590	-0.130	0.540	0.630
2020/01/31 18:32:28.3	73.580	-0.110	0.530	0.650
2020/01/31 18:32:28.4	73.580	-0.100	0.520	0.670
2020/01/31 18:32:28.5	73.570	-0.080	0.500	0.680
2020/01/31 18:32:28.6	73.570	-0.060	0.470	0.690
2020/01/31 18:32:28.7	73.570	-0.040	0.440	0.700
2020/01/31 18:32:28.8	73.550	-0.020	0.410	0.690
2020/01/31 18:32:28.9	73.550	0.010	0.370	0.690
2020/01/31 18:32:29.0	73.550	0.030	0.320	0.690
2020/01/31 18:32:29.1	73.550	0.060	0.280	0.690
2020/01/31 18:32:29.2	73.550	0.080	0.230	0.680
2020/01/31 18:32:29.3	73.550	0.110	0.180	0.670
2020/01/31 18:32:29.4	73.550	0.140	0.130	0.660
2020/01/31 18:32:29.5	73.550	0.160	0.080	0.650
2020/01/31 18:32:29.6	73.550	0.190	0.030	0.640
2020/01/31 18:32:29.7	73.550	0.220	-0.020	0.630
2020/01/31 18:32:29.8	73.550	0.240	-0.080	0.620
2020/01/31 18:32:29.9	73.550	0.270	-0.130	0.610
2020/01/31 18:32:30.0	73.550	0.290	-0.170	0.590
2020/01/31 18:32:30.1	73.550	0.310	-0.220	0.580
2020/01/31 18:32:30.2	73.550	0.330	-0.260	0.560
2020/01/31 18:32:30.3	73.550	0.350	-0.310	0.540
2020/01/31 18:32:30.4	73.550	0.370	-0.350	0.530
2020/01/31 18:32:30.5	73.550	0.380	-0.380	0.510
2020/01/31 18:32:30.6	73.550	0.400	-0.420	0.490
2020/01/31 18:32:30.7	73.560	0.410	-0.450	0.480
2020/01/31 18:32:30.8	73.560	0.420	-0.470	0.460
2020/01/31 18:32:30.9	73.560	0.420	-0.500	0.440
2020/01/31 18:32:31.0	73.570	0.430	-0.520	0.420
2020/01/31 18:32:31.1	73.570	0.430	-0.540	0.400
2020/01/31 18:32:31.2	73.580	0.430	-0.550	0.380
2020/01/31 18:32:31.3	73.580	0.430	-0.560	0.360
2020/01/31 18:32:31.4	73.590	0.430	-0.570	0.330
2020/01/31 18:32:31.5	73.590	0.430	-0.580	0.310
2020/01/31 18:32:31.6	73.600	0.420	-0.580	0.290
2020/01/31 18:32:31.7	73.600	0.410	-0.580	0.260
2020/01/31 18:32:31.8	73.620	0.400	-0.580	0.230
2020/01/31 18:32:31.9	73.620	0.390	-0.570	0.210
2020/01/31 18:32:32.0	73.630	0.370	-0.560	0.180
2020/01/31 18:32:32.1	73.630	0.360	-0.550	0.150
2020/01/31 18:32:32.2	73.630	0.340	-0.530	0.120
2020/01/31 18:32:32.3	73.630	0.320	-0.510	0.090
2020/01/31 18:32:32.4	73.620	0.300	-0.490	0.050
2020/01/31 18:32:32.5	73.620	0.280	-0.470	0.020
2020/01/31 18:32:32.6	73.620	0.260	-0.440	-0.010
2020/01/31 18:32:32.7	73.610	0.240	-0.410	-0.040
2020/01/31 18:32:32.8	73.610	0.210	-0.380	-0.070
2020/01/31 18:32:32.9	73.600	0.190	-0.350	-0.100
2020/01/31 18:32:33.0	73.600	0.160	-0.310	-0.130
2020/01/31 18:32:33.1	73.590	0.140	-0.280	-0.160
2020/01/31 18:32:33.2	73.580	0.110	-0.240	-0.190
2020/01/31 18:32:33.3	73.570	0.090	-0.210	-0.220
2020/01/31 18:32:33.4	73.560	0.060	-0.170	-0.240
2020/01/31 18:32:33.5	73.560	0.030	-0.130	-0.270
2020/01/31 18:32:33.6	73.550	0.010	-0.100	-0.290
2020/01/31 18:32:33.7	73.540	-0.020	-0.060	-0.310
2020/01/31 18:32:33.8	73.530	-0.040	-0.030	-0.330
2020/01/31 18:32:33.9	73.520	-0.060	0.010	-0.340
2020/01/31 18:32:34.0	73.520	-0.090	0.040	-0.350
2020/01/31 18:32:34.1	73.520	-0.110	0.070	-0.360
2020/01/31 18:32:34.2	73.520	-0.130	0.090	-0.370
2020/01/31 18:32:34.3	73.510	-0.150	0.120	-0.370
2020/01/31 18:32:34.4	73.520	-0.170	0.140	-0.370
2020/01/31 18:32:34.5	73.520	-0.180	0.160	-0.370
2020/01/31 18:32:34.6	73.520	-0.200	0.170	-0.360
2020/01/31 18:32:34.7	73.530	-0.210	0.180	-0.350
2020/01/31 18:32:34.8	73.530	-0.220	0.190	-0.340
2020/01/31 18:32:34.9	73.540	-0.240	0.200	-0.320
2020/01/31 18:32:35.0	73.550	-0.240	0.200	-0.300
2020/01/31 18:32:35.1	73.560	-0.250	0.200	-0.280
2020/01/31 18:32:35.2	73.580	-0.260	0.190	-0.260
2020/01/31 18:32:35.3	73.590	-0.260	0.190	-0.230
2020/01/31 18:32:35.4	73.610	-0.260	0.180	-0.210
2020/01/31 18:32:35.5	73.620	-0.260	0.160	-0.170
2020/01/31 18:32:35.6	73.640	-0.260	0.150	-0.140
2020/01/31 18:32:35.7	73.660	-0.260	0.130	-0.110
2020/01/31 18:32:35.8	73.660	-0.260	0.120	-0.070
2020/01/31 18:32:35.9	73.680	-0.250	0.090	-0.030
2020/01/31 18:32:36.0	73.700	-0.250	0.070	0.010
2020/01/31 18:32:36.1	73.720	-0.240	0.050	0.060
2020/01/31 18:32:36.2	73.730	-0.240	0.020	0.100
2020/01/31 18:32:36.3	73.750	-0.230	-0.000	0.150
2020/01/31 18:32:36.4	73.770	-0.220	-0.030	0.190
2020/01/31 18:32:36.5	73.780	-0.210	-0.060	0.240
2020/01/31 18:32:36.6	73.800	-0.200	-0.090	0.290
2020/01/31 18:32:36.7	73.810	-0.200	-0.120	0.330
2020/01/31 18:32:36.8	73.830	-0.190	-0.150	0.380
2020/01/31 18:32:36.9	73.840	-0.180	-0.180	0.430
2020/01/31 18:32:37.0	73.860	-0.170	-0.220	0.480
2020/01/31 18:32:37.1	73.870	-0.160	-0.250	0.520
2020/01/31 18:32:37.2	73.880	-0.160	-0.280	0.560
2020/01/31 18:32:37.3	73.880	-0.150	-0.310	0.610
2020/01/31 18:32:37.4	73.890	-0.140	-0.340	0.650
2020/01/31 18:32:37.5	73.900	-0.140	-0.360	0.680
2020/01/31 18:32:37.6	73.900	-0.130	-0.390	0.720
2020/01/31 18:32:37.7	73.910	-0.130	-0.420	0.750
2020/01/31 18:32:37.8	73.910	-0.130	-0.440	0.780
2020/01/31 18:32:37.9	73.910	-0.120	-0.470	0.810
2020/01/31 18:32:38.0	73.910	-0.120	-0.490	0.840
2020/01/31 18:32:38.1	73.910	-0.120	-0.510	0.860
2020/01/31 18:32:38.2	73.910	-0.120	-0.520	0.880
2020/01/31 18:32:38.3	73.910	-0.120	-0.540	0.900
2020/01/31 18:32:38.4	73.910	-0.120	-0.550	0.920
2020/01/31 18:32:38.5	73.910	-0.120	-0.560	0.930
2020/01/31 18:32:38.6	73.900	-0.110	-0.570	0.940
2020/01/31 18:32:38.7	73.900	-0.110	-0.580	0.950
2020/01/31 18:32:38.8	73.900	-0.110	-0.580	0.960
2020/01/31 18:32:38.9	73.900	-0.110	-0.580	0.970
2020/01/31 18:32:39.0	73.890	-0.110	-0.570	0.970
2020/01/31 18:32:39.1	73.880	-0.110	-0.570	0.970
2020/01/31 18:32:39.2	73.880	-0.110	-0.560	0.970
2020/01/31 18:32:39.3	73.870	-0.100	-0.540	0.960
2020/01/31 18:32:39.4	73.860	-0.100	-0.530	0.960
2020/01/31 18:32:39.5	73.860	-0.090	-0.510	0.950
2020/01/31 18:32:39.6	73.850	-0.090	-0.490	0.940
2020/01/31 18:32:39.7	73.840	-0.080	-0.460	0.930
2020/01/31 18:32:39.8	73.840	-0.070	-0.440	0.920
2020/01/31 18:32:39.9	73.830	-0.060	-0.410	0.910
2020/01/31 18:32:40.0	73.830	-0.060	-0.380	0.890
2020/01/31 18:32:40.1	73.820	-0.050	-0.350	0.880
2020/01/31 18:32:40.2	73.810	-0.040	-0.320	0.870
2020/01/31 18:32:40.3	73.810	-0.020	-0.290	0.850
2020/01/31 18:32:40.4	73.800	-0.010	-0.260	0.840
2020/01/31 18:32:40.5	73.790	-0.000	-0.230	0.820
2020/01/31 18:32:40.6	73.790	0.010	-0.200	0.800
2020/01/31 18:32:40.7	73.780	0.020	-0.170	0.780
2020/01/31 18:32:40.8	73.790	0.040	-0.140	0.770
2020/01/31 18:32:40.9	73.790	0.050	-0.110	0.750
2020/01/31 18:32:41.0	73.780	0.060	-0.080	0.730
2020/01/31 18:32:41.1	73.780	0.070	-0.050	0.710
2020/01/31 18:32:41.2	73.780	0.080	-0.030	0.690
2020/01/31 18:32:41.3	73.780	0.090	-0.000	0.660
2020/01/31 18:32:41.4	73.780	0.100	0.020	0.640
2020/01/31 18:32:41.5	73.780	0.110	0.040	0.610
2020/01/31 18:32:41.6	73.780	0.120	0.050	0.580
2020/01/31 18:32:41.7	73.780	0.130	0.070	0.560
2020/01/31 18:32:41.8	73.780	0.130	0.080	0.520
2020/01/31 18:32:41.9	73.780	0.130	0.100	0.490
2020/01/31 18:32:42.0	73.790	0.140	0.110	0.460
2020/01/31 18:32:42.1	73.790	0.140	0.110	0.420
2020/01/31 18:32:42.2	73.800	0.140	0.120	0.380
2020/01/31 18:32:42.3	73.810	0.130	0.130	0.340
2020/01/31 18:32:42.4	73.810	0.130	0.130	0.300
2020/01/31 18:32:42.5	73.820	0.120	0.140	0.260
2020/01/31 18:32:42.6	73.830	0.120	0.140	0.220
2020/01/31 18:32:42.7	73.840	0.110	0.140	0.170
2020/01/31 18:32:42.8	73.830	0.100	0.150	0.130
2020/01/31 18:32:42.9	73.830	0.090	0.150	0.080
2020/01/31 18:32:43.0	73.840	0.080	0.150	0.040
2020/01/31 18:32:43.1	73.840	0.070	0.150	-0.000
2020/01/31 18:32:43.2	73.850	0.060	0.150	-0.040
2020/01/31 18:32:43.3	73.850	0.050	0.160	-0.080
2020/01/31 18:32:43.4	73.850	0.040	0.160	-0.120
2020/01/31 18:32:43.5	73.850	0.020	0.160	-0.150
2020/01/31 18:32:43.6	73.840	0.010	0.170	-0.180
2020/01/31 18:32:43.7	73.830	0.000	0.170	-0.210
2020/01/31 18:32:43.8	73.820	-0.010	0.180	-0.240
2020/01/31 18:32:43.9	73.810	-0.020	0.180	-0.260
2020/01/31 18:32:44.0	73.800	-0.030	0.180	-0.270
2020/01/31 18:32:44.1	73.780	-0.040	0.190	-0.280
2020/01/31 18:32:44.2	73.770	-0.040	0.190	-0.290
2020/01/31 18:32:44.3	73.750	-0.050	0.190	-0.300
2020/01/31 18:32:44.4	73.730	-0.060	0.180	-0.300
2020/01/31 18:32:44.5	73.710	-0.060	0.180	-0.300
2020/01/31 18:32:44.6	73.690	-0.060	0.170	-0.300
2020/01/31 18:32:44.7	73.670	-0.060	0.160	-0.290
2020/01/31 18:32:44.8	73.650	-0.060	0.140	-0.280
2020/01/31 18:32:44.9	73.630	-0.060	0.120	-0.270
2020/01/31 18:32:45.0	73.620	-0.060	0.100	-0.260
2020/01/31 18:32:45.1	73.600	-0.060	0.080	-0.260
2020/01/31 18:32:45.2	73.590	-0.050	0.050	-0.250
2020/01/31 18:32:45.3	73.570	-0.050	0.010	-0.240
2020/01/31 18:32:45.4	73.560	-0.040	-0.020	-0.230
2020/01/31 18:32:45.5	73.560	-0.030	-0.070	-0.220
2020/01/31 18:32:45.6	73.550	-0.020	-0.110	-0.210
2020/01/31 18:32:45.7	73.550	-0.010	-0.160	-0.210
2020/01/31 18:32:45.8	73.560	-0.000	-0.210	-0.200
2020/01/31 18:32:45.9	73.560	0.010	-0.260	-0.200
2020/01/31 18:32:46.0	73.570	0.020	-0.320	-0.190
2020/01/31 18:32:46.1	73.580	0.030	-0.380	-0.190
2020/01/31 18:32:46.2	73.590	0.050	-0.440	-0.180
2020/01/31 18:32:46.3	73.600	0.060	-0.500	-0.180
2020/01/31 18:32:46.4	73.620	0.070	-0.560	-0.180
2020/01/31 18:32:46.5	73.640	0.080	-0.620	-0.180
2020/01/31 18:32:46.6	73.660	0.100	-0.680	-0.180
2020/01/31 18:32:46.7	73.690	0.110	-0.730	-0.180
2020/01/31 18:32:46.8	73.720	0.120	-0.800	-0.180
2020/01/31 18:32:46.9	73.740	0.130	-0.850	-0.180
2020/01/31 18:32:47.0	73.770	0.140	-0.900	-0.180
2020/01/31 18:32:47.1	73.800	0.150	-0.940	-0.180
2020/01/31 18:32:47.2	73.840	0.160	-0.980	-0.190
2020/01/31 18:32:47.3	73.870	0.170	-1.010	-0.190
2020/01/31 18:32:47.4	73.910	0.170	-1.040	-0.200
2020/01/31 18:32:47.5	73.940	0.180	-1.070	-0.200
2020/01/31 18:32:47.6	73.980	0.180	-1.080	-0.210
2020/01/31 18:32:47.7	74.010	0.180	-1.090	-0.220
2020/01/31 18:32:47.8	74.060	0.190	-1.090	-0.230
2020/01/31 18:32:47.9	74.090	0.190	-1.090	-0.230
2020/01/31 18:32:48.0	74.130	0.180	-1.080	-0.240
2020/01/31 18:32:48.1	74.160	0.180	-1.060	-0.240
2020/01/31 18:32:48.2	74.200	0.180	-1.040	-0.250
2020/01/31 18:32:48.3	74.230	0.180	-1.010	-0.250
2020/01/31 18:32:48.4	74.260	0.170	-0.970	-0.250
2020/01/31 18:32:48.5	74.280	0.160	-0.920	-0.240
2020/01/31 18:32:48.6	74.310	0.160	-0.870	-0.240
2020/01/31 18:32:48.7	74.330	0.150	-0.810	-0.230
2020/01/31 18:32:48.8	74.350	0.140	-0.750	-0.210
2020/01/31 18:32:48.9	74.370	0.130	-0.680	-0.200
2020/01/31 18:32:49.0	74.390	0.120	-0.610	-0.180
2020/01/31 18:32:49.1	74.400	0.110	-0.530	-0.160
2020/01/31 18:32:49.2	74.410	0.100	-0.450	-0.130
2020/01/31 18:32:49.3	74.420	0.090	-0.370	-0.100
2020/01/31 18:32:49.4	74.420	0.070	-0.280	-0.070
2020/01/31 18:32:49.5	74.420	0.060	-0.190	-0.030
2020/01/31 18:32:49.6	74.420	0.050	-0.110	0.010
2020/01/31 18:32:49.7	74.420	0.030	-0.020	0.050
2020/01/31 18:32:49.8	74.410	0.010	0.070	0.100
2020/01/31 18:32:49.9	74.400	-0.000	0.160	0.150
2020/01/31 18:32:50.0	74.390	-0.020	0.240	0.200
2020/01/31 18:32:50.1	74.380	-0.040	0.330	0.250
2020/01/31 18:32:50.2	74.370	-0.060	0.400	0.310
2020/01/31 18:32:50.3	74.350	-0.080	0.480	0.360
2020/01/31 18:32:50.4	74.340	-0.100	0.540	0.420
2020/01/31 18:32:50.5	74.320	-0.120	0.610	0.470
2020/01/31 18:32:50.6	74.300	-0.140	0.660	0.520
2020/01/31 18:32:50.7	74.280	-0.160	0.710	0.580
2020/01/31 18:32:50.8	74.250	-0.180	0.750	0.630
2020/01/31 18:32:50.9	74.230	-0.200	0.790	0.680
2020/01/31 18:32:51.0	74.210	-0.220	0.820	0.730
2020/01/31 18:32:51.1	74.190	-0.240	0.840	0.770
2020/01/31 18:32:51.2	74.170	-0.250	0.850	0.820
2020/01/31 18:32:51.3	74.150	-0.270	0.860	0.860
2020/01/31 18:32:51.4	74.130	-0.290	0.860	0.900
2020/01/31 18:32:51.5	74.110	-0.300	0.850	0.940
2020/01/31 18:32:51.6	74.090	-0.310	0.830	0.970
2020/01/31 18:32:51.7	74.070	-0.330	0.810	1.000
2020/01/31 18:32:51.8	74.050	-0.340	0.780	1.030
2020/01/31 18:32:51.9	74.040	-0.340	0.740	1.060
2020/01/31 18:32:52.0	74.020	-0.350	0.700	1.090
2020/01/31 18:32:52.1	74.000	-0.350	0.650	1.110
2020/01/31 18:32:52.2	73.990	-0.360	0.600	1.140
2020/01/31 18:32:52.3	73.980	-0.360	0.550	1.160
2020/01/31 18:32:52.4	73.960	-0.350	0.490	1.180
2020/01/31 18:32:52.5	73.950	-0.350	0.430	1.200
2020/01/31 18:32:52.6	73.940	-0.340	0.360	1.220
2020/01/31 18:32:52.7	73.930	-0.330	0.290	1.240
2020/01/31 18:32:52.8	73.910	-0.320	0.220	1.260
2020/01/31 18:32:52.9	73.900	-0.300	0.150	1.270
2020/01/31 18:32:53.0	73.900	-0.290	0.080	1.290
2020/01/31 18:32:53.1	73.890	-0.270	0.010	1.300
2020/01/31 18:32:53.2	73.880	-0.250	-0.070	1.310
2020/01/31 18:32:53.3	73.880	-0.220	-0.140	1.320
2020/01/31 18:32:53.4	73.880	-0.200	-0.210	1.320
2020/01/31 18:32:53.5	73.880	-0.180	-0.280	1.320
2020/01/31 18:32:53.6	73.880	-0.150	-0.350	1.320
2020/01/31 18:32:53.7	73.890	-0.120	-0.420	1.310
2020/01/31 18:32:53.8	73.900	-0.090	-0.490	1.300
2020/01/31 18:32:53.9	73.910	-0.060	-0.550	1.290
2020/01/31 18:32:54.0	73.930	-0.030	-0.610	1.270
2020/01/31 18:32:54.1	73.940	-0.000	-0.670	1.240
2020/01/31 18:32:54.2	73.960	0.030	-0.730	1.210
2020/01/31 18:32:54.3	73.980	0.060	-0.780	1.180
2020/01/31 18:32:54.4	74.000	0.080	-0.830	1.140
2020/01/31 18:32:54.5	74.030	0.110	-0.870	1.100
2020/01/31 18:32:54.6	74.060	0.140	-0.910	1.060
2020/01/31 18:32:54.7	74.090	0.170	-0.950	1.010
2020/01/31 18:32:54.8	74.140	0.190	-0.980	0.960
2020/01/31 18:32:54.9	74.170	0.220	-1.000	0.910
2020/01/31 18:32:55.0	74.200	0.240	-1.030	0.850
2020/01/31 18:32:55.1	74.230	0.260	-1.040	0.790
2020/01/31 18:32:55.2	74.270	0.280	-1.050	0.740
2020/01/31 18:32:55.3	74.300	0.300	-1.060	0.680
2020/01/31 18:32:55.4	74.330	0.320	-1.060	0.620
2020/01/31 18:32:55.5	74.360	0.330	-1.050	0.560
2020/01/31 18:32:55.6	74.390	0.340	-1.040	0.510
2020/01/31 18:32:55.7	74.420	0.350	-1.020	0.450
2020/01/31 18:32:55.8	74.440	0.360	-1.000	0.400
2020/01/31 18:32:55.9	74.470	0.360	-0.970	0.350
2020/01/31 18:32:56.0	74.490	0.370	-0.930	0.300
2020/01/31 18:32:56.1	74.500	0.370	-0.890	0.250
2020/01/31 18:32:56.2	74.520	0.370	-0.850	0.210
2020/01/31 18:32:56.3	74.530	0.360	-0.800	0.170
2020/01/31 18:32:56.4	74.540	0.360	-0.750	0.130
2020/01/31 18:32:56.5	74.550	0.350	-0.690	0.090
2020/01/31 18:32:56.6	74.560	0.340	-0.640	0.060
2020/01/31 18:32:56.7	74.560	0.330	-0.580	0.030
2020/01/31 18:32:56.8	74.560	0.310	-0.510	-0.000
2020/01/31 18:32:56.9	74.560	0.300	-0.450	-0.030
2020/01/31 18:32:57.0	74.560	0.280	-0.380	-0.050
2020/01/31 18:32:57.1	74.550	0.260	-0.320	-0.080
2020/01/31 18:32:57.2	74.550	0.240	-0.250	-0.100
2020/01/31 18:32:57.3	74.550	0.220	-0.190	-0.120
2020/01/31 18:32:57.4	74.540	0.200	-0.130	-0.140
2020/01/31 18:32:57.5	74.540	0.180	-0.070	-0.160
2020/01/31 18:32:57.6	74.530	0.160	-0.010	-0.170
2020/01/31 18:32:57.7	74.520	0.130	0.040	-0.190
2020/01/31 18:32:57.8	74.490	0.110	0.100	-0.210
2020/01/31 18:32:57.9	74.480	0.090	0.150	-0.220
2020/01/31 18:32:58.0	74.480	0.060	0.190	-0.240
2020/01/31 18:32:58.1	74.470	0.040	0.240	-0.250
2020/01/31 18:32:58.2	74.460	0.020	0.280	-0.270
2020/01/31 18:32:58.3	74.460	-0.010	0.310	-0.280
2020/01/31 18:32:58.4	74.450	-0.030	0.340	-0.300
2020/01/31 18:32:58.5	74.440	-0.050	0.370	-0.310
2020/01/31 18:32:58.6	74.440	-0.070	0.400	-0.330
2020/01/31 18:32:58.7	74.430	-0.090	0.420	-0.340
2020/01/31 18:32:58.8	74.410	-0.110	0.430	-0.360
2020/01/31 18:32:58.9	74.410	-0.130	0.440	-0.370
2020/01/31 18:32:59.0	74.400	-0.150	0.450	-0.380
2020/01/31 18:32:59.1	74.390	-0.160	0.460	-0.380
2020/01/31 18:32:59.2	74.390	-0.170	0.460	-0.390
2020/01/31 18:32:59.3	74.380	-0.190	0.460	-0.390
2020/01/31 18:32:59.4	74.370	-0.190	0.450	-0.390
2020/01/31 18:32:59.5	74.360	-0.200	0.440	-0.390
2020/01/31 18:32:59.6	74.350	-0.210	0.430	-0.380
2020/01/31 18:32:59.7	74.340	-0.210	0.410	-0.370
2020/01/31 18:32:59.8	74.330	-0.220	0.390	-0.360
2020/01/31 18:32:59.9	74.320	-0.220	0.370	-0.350
2020/01/31 18:33:00.0	74.310	-0.220	0.350	-0.330
2020/01/31 18:33:00.1	74.310	-0.210	0.320	-0.310
2020/01/31 18:33:00.2	74.300	-0.210	0.290	-0.290
2020/01/31 18:33:00.3	74.290	-0.200	0.260	-0.270
2020/01/31 18:33:00.4	74.280	-0.200	0.230	-0.250
2020/01/31 18:33:00.5	74.270	-0.190	0.190	-0.220
2020/01/31 18:33:00.6	74.270	-0.180	0.160	-0.190
2020/01/31 18:33:00.7	74.260	-0.170	0.120	-0.170
2020/01/31 18:33:00.8	74.250	-0.160	0.080	-0.140
2020/01/31 18:33:00.9	74.240	-0.150	0.040	-0.110
2020/01/31 18:33:01.0	74.240	-0.140	0.000	-0.070
2020/01/31 18:33:01.1	74.230	-0.130	-0.040	-0.040
2020/01/31 18:33:01.2	74.220	-0.120	-0.080	-0.010
2020/01/31 18:33:01.3	74.210	-0.110	-0.120	0.020
2020/01/31 18:33:01.4	74.210	-0.100	-0.160	0.060
2020/01/31 18:33:01.5	74.200	-0.090	-0.200	0.090
2020/01/31 18:33:01.6	74.190	-0.090	-0.240	0.130
2020/01/31 18:33:01.7	74.180	-0.080	-0.270	0.170
2020/01/31 18:33:01.8	74.180	-0.080	-0.310	0.210
2020/01/31 18:33:01.9	74.170	-0.080	-0.340	0.240
2020/01/31 18:33:02.0	74.160	-0.080	-0.370	0.270
2020/01/31 18:33:02.1	74.150	-0.080	-0.400	0.300
2020/01/31 18:33:02.2	74.140	-0.080	-0.430	0.330
2020/01/31 18:33:02.3	74.130	-0.080	-0.460	0.360
2020/01/31 18:33:02.4	74.120	-0.090	-0.480	0.390
2020/01/31 18:33:02.5	74.120	-0.100	-0.500	0.410
2020/01/31 18:33:02.6	74.110	-0.110	-0.520	0.430
2020/01/31 18:33:02.7	74.110	-0.120	-0.540	0.450
2020/01/31 18:33:02.8	74.100	-0.130	-0.550	0.460
2020/01/31 18:33:02.9	74.100	-0.140	-0.560	0.470
2020/01/31 18:33:03.0	74.100	-0.160	-0.570	0.480
2020/01/31 18:33:03.1	74.100	-0.170	-0.570	0.480
2020/01/31 18:33:03.2	74.100	-0.190	-0.570	0.490
2020/01/31 18:33:03.3	74.100	-0.200	-0.570	0.490
2020/01/31 18:33:03.4	74.110	-0.220	-0.560	0.490
2020/01/31 18:33:03.5	74.110	-0.230	-0.560	0.490
2020/01/31 18:33:03.6	74.120	-0.240	-0.540	0.480
2020/01/31 18:33:03.7	74.130	-0.250	-0.530	0.480
2020/01/31 18:33:03.8	74.140	-0.270	-0.510	0.470
2020/01/31 18:33:03.9	74.150	-0.270	-0.490	0.460
2020/01/31 18:33:04.0	74.160	-0.280	-0.470	0.460
2020/01/31 18:33:04.1	74.170	-0.290	-0.450	0.450
2020/01/31 18:33:04.2	74.190	-0.290	-0.420	0.440
2020/01/31 18:33:04.3	74.200	-0.290	-0.390	0.430
2020/01/31 18:33:04.4	74.210	-0.290	-0.360	0.420
2020/01/31 18:33:04.5	74.230	-0.280	-0.330	0.410
2020/01/31 18:33:04.6	74.250	-0.280	-0.300	0.410
2020/01/31 18:33:04.7	74.260	-0.270	-0.270	0.400
2020/01/31 18:33:04.8	74.280	-0.250	-0.240	0.390
2020/01/31 18:33:04.9	74.290	-0.240	-0.210	0.380
2020/01/31 18:33:05.0	74.310	-0.220	-0.180	0.380
2020/01/31 18:33:05.1	74.330	-0.200	-0.150	0.370
2020/01/31 18:33:05.2	74.350	-0.170	-0.130	0.360
2020/01/31 18:33:05.3	74.370	-0.150	-0.110	0.360
2020/01/31 18:33:05.4	74.390	-0.120	-0.090	0.350
2020/01/31 18:33:05.5	74.410	-0.090	-0.070	0.340
2020/01/31 18:33:05.6	74.430	-0.060	-0.060	0.340
2020/01/31 18:33:05.7	74.450	-0.020	-0.060	0.340
2020/01/31 18:33:05.8	74.470	0.010	-0.050	0.340
2020/01/31 18:33:05.9	74.490	0.050	-0.060	0.340
2020/01/31 18:33:06.0	74.510	0.080	-0.060	0.340
2020/01/31 18:33:06.1	74.530	0.120	-0.070	0.340
2020/01/31 18:33:06.2	74.540	0.150	-0.080	0.350
2020/01/31 18:33:06.3	74.560	0.190	-0.100	0.360
2020/01/31 18:33:06.4	74.570	0.230	-0.120	0.370
2020/01/31 18:33:06.5	74.580	0.260	-0.140	0.380
2020/01/31 18:33:06.6	74.600	0.290	-0.170	0.400
2020/01/31 18:33:06.7	74.610	0.320	-0.200	0.410
2020/01/31 18:33:06.8	74.620	0.350	-0.230	0.430
2020/01/31 18:33:06.9	74.630	0.380	-0.250	0.450
2020/01/31 18:33:07.0	74.630	0.400	-0.280	0.470
2020/01/31 18:33:07.1	74.640	0.430	-0.310	0.490
2020/01/31 18:33:07.2	74.650	0.440	-0.340	0.520
2020/01/31 18:33:07.3	74.650	0.460	-0.360	0.540
2020/01/31 18:33:07.4	74.650	0.470	-0.390	0.570
2020/01/31 18:33:07.5	74.650	0.480	-0.410	0.600
2020/01/31 18:33:07.6	74.650	0.480	-0.420	0.630
2020/01/31 18:33:07.7	74.650	0.480	-0.440	0.660
2020/01/31 18:33:07.8	74.640	0.480	-0.440	0.690
2020/01/31 18:33:07.9	74.640	0.470	-0.450	0.720
2020/01/31 18:33:08.0	74.640	0.450	-0.450	0.750
2020/01/31 18:33:08.1	74.630	0.440	-0.440	0.780
2020/01/31 18:33:08.2	74.620	0.420	-0.430	0.810
2020/01/31 18:33:08.3	74.620	0.390	-0.410	0.840
2020/01/31 18:33:08.4	74.610	0.360	-0.390	0.870
2020/01/31 18:33:08.5	74.600	0.330	-0.360	0.900
2020/01/31 18:33:08.6	74.590	0.290	-0.330	0.930
2020/01/31 18:33:08.7	74.580	0.260	-0.300	0.950
2020/01/31 18:33:08.8	74.560	0.210	-0.260	0.970
2020/01/31 18:33:08.9	74.550	0.170	-0.210	0.990
2020/01/31 18:33:09.0	74.540	0.120	-0.170	1.000
2020/01/31 18:33:09.1	74.520	0.080	-0.120	1.020
2020/01/31 18:33:09.2	74.500	0.030	-0.070	1.030
2020/01/31 18:33:09.3	74.490	-0.020	-0.020	1.030
2020/01/31 18:33:09.4	74.470	-0.070	0.040	1.030
2020/01/31 18:33:09.5	74.450	-0.130	0.090	1.030
2020/01/31 18:33:09.6	74.430	-0.180	0.150	1.020
2020/01/31 18:33:09.7	74.410	-0.230	0.200	1.010
2020/01/31 18:33:09.8	74.390	-0.270	0.250	0.990
2020/01/31 18:33:09.9	74.370	-0.320	0.300	0.970
2020/01/31 18:33:10.0	74.350	-0.370	0.350	0.950
2020/01/31 18:33:10.1	74.330	-0.410	0.390	0.920
2020/01/31 18:33:10.2	74.310	-0.450	0.430	0.890
2020/01/31 18:33:10.3	74.290	-0.490	0.460	0.850
2020/01/31 18:33:10.4	74.270	-0.520	0.500	0.820
2020/01/31 18:33:10.5	74.250	-0.550	0.520	0.780
2020/01/31 18:33:10.6	74.230	-0.580	0.540	0.730
2020/01/31 18:33:10.7	74.210	-0.600	0.560	0.690
2020/01/31 18:33:10.8	74.200	-0.620	0.570	0.640
2020/01/31 18:33:10.9	74.190	-0.630	0.570	0.580
2020/01/31 18:33:11.0	74.170	-0.640	0.570	0.530
2020/01/31 18:33:11.1	74.150	-0.640	0.560	0.480
2020/01/31 18:33:11.2	74.140	-0.640	0.550	0.420
2020/01/31 18:33:11.3	74.120	-0.640	0.530	0.360
2020/01/31 18:33:11.4	74.110	-0.620	0.500	0.300
2020/01/31 18:33:11.5	74.100	-0.610	0.470	0.240
2020/01/31 18:33:11.6	74.090	-0.580	0.430	0.180
2020/01/31 18:33:11.7	74.090	-0.560	0.390	0.120
2020/01/31 18:33:11.8	74.070	-0.520	0.340	0.050
2020/01/31 18:33:11.9	74.070	-0.490	0.290	-0.010
2020/01/31 18:33:12.0	74.070	-0.450	0.230	-0.070
2020/01/31 18:33:12.1	74.060	-0.400	0.160	-0.130
2020/01/31 18:33:12.2	74.070	-0.350	0.100	-0.200
2020/01/31 18:33:12.3	74.070	-0.300	0.030	-0.260
2020/01/31 18:33:12.4	74.070	-0.240	-0.040	-0.320
2020/01/31 18:33:12.5	74.080	-0.190	-0.120	-0.370
2020/01/31 18:33:12.6	74.090	-0.130	-0.190	-0.430
2020/01/31 18:33:12.7	74.100	-0.070	-0.270	-0.490
2020/01/31 18:33:12.8	74.110	-0.000	-0.350	-0.540
2020/01/31 18:33:12.9	74.120	0.060	-0.430	-0.590
2020/01/31 18:33:13.0	74.140	0.120	-0.510	-0.650
2020/01/31 18:33:13.1	74.160	0.190	-0.590	-0.700
2020/01/31 18:33:13.2	74.180	0.250	-0.660	-0.750
2020/01/31 18:33:13.3	74.200	0.310	-0.740	-0.790
2020/01/31 18:33:13.4	74.230	0.370	-0.810	-0.840
2020/01/31 18:33:13.5	74.250	0.430	-0.880	-0.880
2020/01/31 18:33:13.6	74.270	0.480	-0.940	-0.920
2020/01/31 18:33:13.7	74.300	0.530	-1.000	-0.960
2020/01/31 18:33:13.8	74.330	0.580	-1.060	-0.990
2020/01/31 18:33:13.9	74.360	0.620	-1.110	-1.020
2020/01/31 18:33:14.0	74.380	0.660	-1.160	-1.050
2020/01/31 18:33:14.1	74.400	0.700	-1.210	-1.080
2020/01/31 18:33:14.2	74.420	0.720	-1.240	-1.100
2020/01/31 18:33:14.3	74.440	0.750	-1.270	-1.120
2020/01/31 18:33:14.4	74.460	0.770	-1.300	-1.140
2020/01/31 18:33:14.5	74.480	0.780	-1.320	-1.150
2020/01/31 18:33:14.6	74.490	0.790	-1.330	-1.170
2020/01/31 18:33:14.7	74.500	0.790	-1.330	-1.180
2020/01/31 18:33:14.8	74.520	0.790	-1.320	-1.180
2020/01/31 18:33:14.9	74.520	0.780	-1.310	-1.180
2020/01/31 18:33:15.0	74.520	0.770	-1.290	-1.180
2020/01/31 18:33:15.1	74.520	0.750	-1.260	-1.180
2020/01/31 18:33:15.2	74.520	0.730	-1.220	-1.170
2020/01/31 18:33:15.3	74.510	0.700	-1.180	-1.160
2020/01/31 18:33:15.4	74.500	0.670	-1.130	-1.150
2020/01/31 18:33:15.5	74.490	0.630	-1.070	-1.130
2020/01/31 18:33:15.6	74.470	0.590	-1.000	-1.110
2020/01/31 18:33:15.7	74.450	0.540	-0.930	-1.090
2020/01/31 18:33:15.8	74.430	0.500	-0.840	-1.060
2020/01/31 18:33:15.9	74.410	0.440	-0.760	-1.020
2020/01/31 18:33:16.0	74.390	0.390	-0.660	-0.980
2020/01/31 18:33:16.1	74.360	0.340	-0.570	-0.940
2020/01/31 18:33:16.2	74.330	0.280	-0.460	-0.900
2020/01/31 18:33:16.3	74.300	0.220	-0.360	-0.850
2020/01/31 18:33:16.4	74.270	0.160	-0.250	-0.790
2020/01/31 18:33:16.5	74.240	0.100	-0.140	-0.740
2020/01/31 18:33:16.6	74.210	0.040	-0.030	-0.680
2020/01/31 18:33:16.7	74.170	-0.010	0.080	-0.620
2020/01/31 18:33:16.8	74.150	-0.070	0.190	-0.550
2020/01/31 18:33:16.9	74.120	-0.130	0.300	-0.490
2020/01/31 18:33:17.0	74.090	-0.180	0.400	-0.420
2020/01/31 18:33:17.1	74.060	-0.240	0.500	-0.360
2020/01/31 18:33:17.2	74.030	-0.290	0.600	-0.290
2020/01/31 18:33:17.3	74.010	-0.330	0.690	-0.230
2020/01/31 18:33:17.4	73.990	-0.380	0.770	-0.160
2020/01/31 18:33:17.5	73.970	-0.420	0.850	-0.100
2020/01/31 18:33:17.6	73.950	-0.460	0.920	-0.040
2020/01/31 18:33:17.7	73.930	-0.500	0.980	0.020
2020/01/31 18:33:17.8	73.910	-0.530	1.030	0.080
2020/01/31 18:33:17.9	73.900	-0.560	1.070	0.140
2020/01/31 18:33:18.0	73.890	-0.580	1.100	0.190
2020/01/31 18:33:18.1	73.890	-0.600	1.120	0.240
2020/01/31 18:33:18.2	73.890	-0.620	1.130	0.290
2020/01/31 18:33:18.3	73.890	-0.630	1.130	0.340
2020/01/31 18:33:18.4	73.890	-0.640	1.130	0.380
2020/01/31 18:33:18.5	73.900	-0.640	1.110	0.420
2020/01/31 18:33:18.6	73.910	-0.650	1.080	0.460
2020/01/31 18:33:18.7	73.920	-0.640	1.050	0.490
2020/01/31 18:33:18.8	73.940	-0.640	1.000	0.520
2020/01/31 18:33:18.9	73.960	-0.630	0.950	0.550
2020/01/31 18:33:19.0	73.980	-0.620	0.890	0.580
2020/01/31 18:33:19.1	74.000	-0.610	0.830	0.610
2020/01/31 18:33:19.2	74.030	-0.590	0.760	0.640
2020/01/31 18:33:19.3	74.050	-0.580	0.690	0.660
2020/01/31 18:33:19.4	74.080	-0.560	0.610	0.680
2020/01/31 18:33:19.5	74.110	-0.540	0.530	0.710
2020/01/31 18:33:19.6	74.140	-0.510	0.450	0.730
2020/01/31 18:33:19.7	74.170	-0.490	0.370	0.750
2020/01/31 18:33:19.8	74.200	-0.470	0.290	0.770
2020/01/31 18:33:19.9	74.230	-0.440	0.210	0.800
2020/01/31 18:33:20.0	74.260	-0.420	0.130	0.820
2020/01/31 18:33:20.1	74.290	-0.400	0.050	0.840
2020/01/31 18:33:20.2	74.310	-0.370	-0.020	0.870
2020/01/31 18:33:20.3	74.340	-0.350	-0.090	0.890
2020/01/31 18:33:20.4	74.360	-0.330	-0.160	0.920
2020/01/31 18:33:20.5	74.380	-0.300	-0.220	0.950
2020/01/31 18:33:20.6	74.400	-0.280	-0.280	0.970
2020/01/31 18:33:20.7	74.420	-0.260	-0.330	1.000
2020/01/31 18:33:20.8	74.430	-0.240	-0.380	1.040
2020/01/31 18:33:20.9	74.450	-0.230	-0.420	1.070
2020/01/31 18:33:21.0	74.460	-0.210	-0.460	1.100
2020/01/31 18:33:21.1	74.470	-0.200	-0.490	1.130
2020/01/31 18:33:21.2	74.480	-0.180	-0.520	1.160
2020/01/31 18:33:21.3	74.480	-0.170	-0.540	1.190
2020/01/31 18:33:21.4	74.490	-0.160	-0.560	1.220
2020/01/31 18:33:21.5	74.490	-0.150	-0.570	1.250
2020/01/31 18:33:21.6	74.490	-0.140	-0.580	1.280
2020/01/31 18:33:21.7	74.490	-0.130	-0.590	1.300
2020/01/31 18:33:21.8	74.470	-0.130	-0.600	1.320
2020/01/31 18:33:21.9	74.470	-0.120	-0.600	1.340
2020/01/31 18:33:22.0	74.470	-0.120	-0.600	1.360
2020/01/31 18:33:22.1	74.460	-0.120	-0.600	1.370
2020/01/31 18:33:22.2	74.450	-0.120	-0.590	1.380
2020/01/31 18:33:22.3	74.440	-0.110	-0.590	1.380
2020/01/31 18:33:22.4	74.430	-0.110	-0.590	1.380
2020/01/31 18:33:22.5	74.420	-0.110	-0.580	1.380
2020/01/31 18:33:22.6	74.400	-0.110	-0.580	1.370
2020/01/31 18:33:22.7	74.390	-0.110	-0.570	1.360
2020/01/31 18:33:22.8	74.390	-0.110	-0.570	1.340
2020/01/31 18:33:22.9	74.370	-0.110	-0.560	1.320
2020/01/31 18:33:23.0	74.350	-0.110	-0.560	1.290
2020/01/31 18:33:23.1	74.340	-0.110	-0.550	1.270
2020/01/31 18:33:23.2	74.320	-0.110	-0.550	1.240
2020/01/31 18:33:23.3	74.300	-0.110	-0.540	1.200
2020/01/31 18:33:23.4	74.280	-0.100	-0.540	1.170
2020/01/31 18:33:23.5	74.250	-0.100	-0.540	1.130
2020/01/31 18:33:23.6	74.230	-0.100	-0.530	1.100
2020/01/31 18:33:23.7	74.210	-0.090	-0.530	1.060
2020/01/31 18:33:23.8	74.190	-0.080	-0.520	1.020
2020/01/31 18:33:23.9	74.160	-0.070	-0.520	0.980
2020/01/31 18:33:24.0	74.130	-0.060	-0.510	0.940
2020/01/31 18:33:24.1	74.110	-0.050	-0.510	0.900
2020/01/31 18:33:24.2	74.080	-0.040	-0.510	0.860
2020/01/31 18:33:24.3	74.050	-0.020	-0.510	0.820
2020/01/31 18:33:24.4	74.030	-0.010	-0.510	0.780
2020/01/31 18:33:24.5	74.000	0.010	-0.500	0.740
2020/01/31 18:33:24.6	73.970	0.030	-0.510	0.700
2020/01/31 18:33:24.7	73.950	0.050	-0.510	0.650
2020/01/31 18:33:24.8	73.910	0.080	-0.510	0.610
2020/01/31 18:33:24.9	73.890	0.100	-0.510	0.570
2020/01/31 18:33:25.0	73.870	0.130	-0.520	0.520
2020/01/31 18:33:25.1	73.850	0.150	-0.520	0.480
2020/01/31 18:33:25.2	73.830	0.180	-0.530	0.430
2020/01/31 18:33:25.3	73.820	0.210	-0.540	0.390
2020/01/31 18:33:25.4	73.800	0.240	-0.550	0.340
2020/01/31 18:33:25.5	73.790	0.270	-0.560	0.290
2020/01/31 18:33:25.6	73.780	0.300	-0.570	0.240
2020/01/31 18:33:25.7	73.780	0.330	-0.580	0.190
2020/01/31 18:33:25.8	73.790	0.360	-0.590	0.140
2020/01/31 18:33:25.9	73.790	0.390	-0.590	0.090
2020/01/31 18:33:26.0	73.800	0.420	-0.600	0.030
2020/01/31 18:33:26.1	73.800	0.450	-0.610	-0.020
2020/01/31 18:33:26.2	73.800	0.470	-0.610	-0.080
2020/01/31 18:33:26.3	73.810	0.500	-0.610	-0.130
2020/01/31 18:33:26.4	73.820	0.520	-0.610	-0.190
2020/01/31 18:33:26.5	73.830	0.540	-0.610	-0.250
2020/01/31 18:33:26.6	73.840	0.560	-0.610	-0.310
2020/01/31 18:33:26.7	73.860	0.580	-0.600	-0.360
2020/01/31 18:33:26.8	73.860	0.600	-0.580	-0.420
2020/01/31 18:33:26.9	73.880	0.610	-0.570	-0.480
2020/01/31 18:33:27.0	73.890	0.620	-0.550	-0.540
2020/01/31 18:33:27.1	73.900	0.620	-0.530	-0.590
2020/01/31 18:33:27.2	73.920	0.620	-0.500	-0.650
2020/01/31 18:33:27.3	73.930	0.620	-0.470	-0.700
2020/01/31 18:33:27.4	73.940	0.620	-0.440	-0.750
2020/01/31 18:33:27.5	73.950	0.610	-0.400	-0.800
2020/01/31 18:33:27.6	73.960	0.600	-0.360	-0.850
2020/01/31 18:33:27.7	73.960	0.590	-0.310	-0.900
2020/01/31 18:33:27.8	73.960	0.570	-0.260	-0.940
2020/01/31 18:33:27.9	73.970	0.550	-0.220	-0.980
2020/01/31 18:33:28.0	73.960	0.530	-0.160	-1.010
2020/01/31 18:33:28.1	73.960	0.510	-0.110	-1.040
2020/01/31 18:33:28.2	73.960	0.480	-0.060	-1.070
2020/01/31 18:33:28.3	73.950	0.450	0.000	-1.100
2020/01/31 18:33:28.4	73.940	0.420	0.060	-1.120
2020/01/31 18:33:28.5	73.930	0.390	0.110	-1.140
2020/01/31 18:33:28.6	73.910	0.350	0.170	-1.160
2020/01/31 18:33:28.7	73.900	0.320	0.220	-1.170
2020/01/31 18:33:28.8	73.880	0.280	0.280	-1.170
2020/01/31 18:33:28.9	73.860	0.250	0.330	-1.180
2020/01/31 18:33:29.0	73.840	0.210	0.380	-1.180
2020/01/31 18:33:29.1	73.820	0.170	0.430	-1.180
2020/01/31 18:33:29.2	73.800	0.140	0.470	-1.180
2020/01/31 18:33:29.3	73.780	0.100	0.510	-1.170
2020/01/31 18:33:29.4	73.760	0.060	0.540	-1.160
2020/01/31 18:33:29.5	73.740	0.030	0.570	-1.150
2020/01/31 18:33:29.6	73.720	-0.000	0.600	-1.130
2020/01/31 18:33:29.7	73.700	-0.030	0.620	-1.120
2020/01/31 18:33:29.8	73.680	-0.060	0.630	-1.100
2020/01/31 18:33:29.9	73.660	-0.090	0.640	-1.080
2020/01/31 18:33:30.0	73.650	-0.120	0.640	-1.050
2020/01/31 18:33:30.1	73.630	-0.140	0.640	-1.030
2020/01/31 18:33:30.2	73.620	-0.160	0.640	-1.000
2020/01/31 18:33:30.3	73.610	-0.180	0.620	-0.970
2020/01/31 18:33:30.4	73.610	-0.200	0.600	-0.940
2020/01/31 18:33:30.5	73.600	-0.210	0.580	-0.910
2020/01/31 18:33:30.6	73.600	-0.220	0.550	-0.870
2020/01/31 18:33:30.7	73.600	-0.230	0.520	-0.840
2020/01/31 18:33:30.8	73.600	-0.240	0.480	-0.800
2020/01/31 18:33:30.9	73.600	-0.240	0.430	-0.770
2020/01/31 18:33:31.0	73.610	-0.240	0.390	-0.730
2020/01/31 18:33:31.1	73.620	-0.240	0.330	-0.700
2020/01/31 18:33:31.2	73.630	-0.240	0.280	-0.660
2020/01/31 18:33:31.3	73.640	-0.240	0.230	-0.620
2020/01/31 18:33:31.4	73.650	-0.230	0.170	-0.580
2020/01/31 18:33:31.5	73.660	-0.230	0.110	-0.540
2020/01/31 18:33:31.6	73.670	-0.220	0.050	-0.500
2020/01/31 18:33:31.7	73.690	-0.210	-0.010	-0.450
2020/01/31 18:33:31.8	73.700	-0.200	-0.070	-0.410
2020/01/31 18:33:31.9	73.710	-0.190	-0.130	-0.370
2020/01/31 18:33:32.0	73.730	-0.180	-0.190	-0.320
2020/01/31 18:33:32.1	73.740	-0.170	-0.240	-0.280
2020/01/31 18:33:32.2	73.750	-0.160	-0.290	-0.230
2020/01/31 18:33:32.3	73.770	-0.150	-0.340	-0.180
2020/01/31 18:33:32.4	73.780	-0.140	-0.390	-0.130
2020/01/31 18:33:32.5	73.790	-0.130	-0.430	-0.080
2020/01/31 18:33:32.6	73.810	-0.120	-0.470	-0.040
2020/01/31 18:33:32.7	73.820	-0.110	-0.510	0.010
2020/01/31 18:33:32.8	73.840	-0.110	-0.540	0.070
2020/01/31 18:33:32.9	73.850	-0.100	-0.560	0.120
2020/01/31 18:33:33.0	73.860	-0.090	-0.580	0.170
2020/01/31 18:33:33.1	73.870	-0.090	-0.600	0.220
2020/01/31 18:33:33.2	73.890	-0.080	-0.610	0.270
2020/01/31 18:33:33.3	73.900	-0.080	-0.610	0.330
2020/01/31 18:33:33.4	73.910	-0.080	-0.620	0.380
2020/01/31 18:33:33.5	73.930	-0.080	-0.610	0.430
2020/01/31 18:33:33.6	73.940	-0.080	-0.600	0.480
2020/01/31 18:33:33.7	73.950	-0.080	-0.590	0.540
2020/01/31 18:33:33.8	73.970	-0.080	-0.570	0.590
2020/01/31 18:33:33.9	73.990	-0.080	-0.550	0.640
2020/01/31 18:33:34.0	74.000	-0.080	-0.530	0.690
2020/01/31 18:33:34.1	74.020	-0.090	-0.510	0.740
2020/01/31 18:33:34.2	74.040	-0.090	-0.480	0.790
2020/01/31 18:33:34.3	74.050	-0.100	-0.450	0.840
2020/01/31 18:33:34.4	74.070	-0.100	-0.420	0.890
2020/01/31 18:33:34.5	74.090	-0.110	-0.390	0.940
2020/01/31 18:33:34.6	74.100	-0.110	-0.360	0.980
2020/01/31 18:33:34.7	74.120	-0.120	-0.320	1.020
2020/01/31 18:33:34.8	74.140	-0.130	-0.290	1.070
2020/01/31 18:33:34.9	74.150	-0.130	-0.260	1.120
2020/01/31 18:33:35.0	74.170	-0.140	-0.230	1.160
2020/01/31 18:33:35.1	74.180	-0.150	-0.200	1.200
2020/01/31 18:33:35.2	74.200	-0.150	-0.170	1.240
2020/01/31 18:33:35.3	74.210	-0.160	-0.140	1.280
2020/01/31 18:33:35.4	74.220	-0.170	-0.110	1.310
2020/01/31 18:33:35.5	74.230	-0.180	-0.090	1.350
2020/01/31 18:33:35.6	74.240	-0.180	-0.060	1.390
2020/01/31 18:33:35.7	74.250	-0.190	-0.040	1.420
2020/01/31 18:33:35.8	74.260	-0.200	-0.020	1.450
2020/01/31 18:33:35.9	74.260	-0.200	-0.010	1.480
2020/01/31 18:33:36.0	74.270	-0.210	0.010	1.520
2020/01/31 18:33:36.1	74.270	-0.210	0.020	1.540
2020/01/31 18:33:36.2	74.260	-0.220	0.030	1.570
2020/01/31 18:33:36.3	74.260	-0.220	0.040	1.600
2020/01/31 18:33:36.4	74.250	-0.230	0.050	1.620
2020/01/31 18:33:36.5	74.250	-0.230	0.060	1.650
2020/01/31 18:33:36.6	74.230	-0.230	0.060	1.670
2020/01/31 18:33:36.7	74.220	-0.230	0.060	1.680
2020/01/31 18:33:36.8	74.200	-0.230	0.060	1.700
2020/01/31 18:33:36.9	74.180	-0.230	0.060	1.710
2020/01/31 18:33:37.0	74.170	-0.230	0.050	1.720
2020/01/31 18:33:37.1	74.150	-0.230	0.050	1.720
2020/01/31 18:33:37.2	74.130	-0.220	0.040	1.720
2020/01/31 18:33:37.3	74.110	-0.220	0.030	1.720
2020/01/31 18:33:37.4	74.090	-0.210	0.020	1.710
2020/01/31 18:33:37.5	74.070	-0.200	0.000	1.700
2020/01/31 18:33:37.6	74.040	-0.190	-0.010	1.680
2020/01/31 18:33:37.7	74.020	-0.180	-0.030	1.660
2020/01/31 18:33:37.8	73.990	-0.170	-0.040	1.630
2020/01/31 18:33:37.9	73.960	-0.160	-0.060	1.600
2020/01/31 18:33:38.0	73.940	-0.140	-0.080	1.570
2020/01/31 18:33:38.1	73.910	-0.130	-0.100	1.530
2020/01/31 18:33:38.2	73.890	-0.110	-0.120	1.490
2020/01/31 18:33:38.3	73.860	-0.090	-0.150	1.440
2020/01/31 18:33:38.4	73.830	-0.080	-0.170	1.390
2020/01/31 18:33:38.5	73.810	-0.060	-0.190	1.340
2020/01/31 18:33:38.6	73.780	-0.040	-0.210	1.290
2020/01/31 18:33:38.7	73.750	-0.020	-0.240	1.230
2020/01/31 18:33:38.8	73.720	-0.000	-0.260	1.170
2020/01/31 18:33:38.9	73.700	0.020	-0.280	1.110
2020/01/31 18:33:39.0	73.670	0.040	-0.300	1.050
2020/01/31 18:33:39.1	73.640	0.060	-0.320	0.980
2020/01/31 18:33:39.2	73.620	0.080	-0.340	0.920
2020/01/31 18:33:39.3	73.590	0.090	-0.360	0.850
2020/01/31 18:33:39.4	73.570	0.110	-0.380	0.780
2020/01/31 18:33:39.5	73.540	0.130	-0.390	0.710
2020/01/31 18:33:39.6	73.520	0.140	-0.410	0.640
2020/01/31 18:33:39.7	73.500	0.160	-0.430	0.560
2020/01/31 18:33:39.8	73.480	0.170	-0.440	0.490
2020/01/31 18:33:39.9	73.460	0.190	-0.450	0.420
2020/01/31 18:33:40.0	73.450	0.200	-0.460	0.340
2020/01/31 18:33:40.1	73.430	0.210	-0.480	0.260
2020/01/31 18:33:40.2	73.420	0.220	-0.490	0.180
2020/01/31 18:33:40.3	73.410	0.220	-0.500	0.100
2020/01/31 18:33:40.4	73.410	0.230	-0.510	0.020
2020/01/31 18:33:40.5	73.400	0.240	-0.520	-0.070
2020/01/31 18:33:40.6	73.400	0.240	-0.530	-0.150
2020/01/31 18:33:40.7	73.400	0.250	-0.540	-0.240
2020/01/31 18:33:40.8	73.410	0.250	-0.550	-0.330
2020/01/31 18:33:40.9	73.410	0.250	-0.560	-0.410
2020/01/31 18:33:41.0	73.420	0.250	-0.560	-0.500
2020/01/31 18:33:41.1	73.430	0.260	-0.570	-0.590
2020/01/31 18:33:41.2	73.440	0.260	-0.580	-0.680
2020/01/31 18:33:41.3	73.450	0.260	-0.580	-0.770
2020/01/31 18:33:41.4	73.470	0.260	-0.590	-0.860
2020/01/31 18:33:41.5	73.490	0.260	-0.590	-0.950
2020/01/31 18:33:41.6	73.510	0.260	-0.600	-1.040
2020/01/31 18:33:41.7	73.530	0.260	-0.600	-1.130
2020/01/31 18:33:41.8	73.550	0.260	-0.600	-1.210
2020/01/31 18:33:41.9	73.580	0.260	-0.600	-1.300
2020/01/31 18:33:42.0	73.610	0.260	-0.600	-1.380
2020/01/31 18:33:42.1	73.640	0.260	-0.590	-1.470
2020/01/31 18:33:42.2	73.670	0.260	-0.590	-1.550
2020/01/31 18:33:42.3	73.710	0.260	-0.580	-1.630
2020/01/31 18:33:42.4	73.750	0.250	-0.570	-1.710
2020/01/31 18:33:42.5	73.780	0.250	-0.560	-1.780
2020/01/31 18:33:42.6	73.820	0.250	-0.550	-1.850
2020/01/31 18:33:42.7	73.860	0.250	-0.530	-1.920
2020/01/31 18:33:42.8	73.900	0.250	-0.510	-1.980
2020/01/31 18:33:42.9	73.940	0.250	-0.480	-2.030
2020/01/31 18:33:43.0	73.980	0.250	-0.460	-2.080
2020/01/31 18:33:43.1	74.020	0.240	-0.430	-2.120
2020/01/31 18:33:43.2	74.050	0.240	-0.400	-2.150
2020/01/31 18:33:43.3	74.080	0.230	-0.360	-2.180
2020/01/31 18:33:43.4	74.110	0.230	-0.320	-2.190
2020/01/31 18:33:43.5	74.140	0.220	-0.280	-2.200
2020/01/31 18:33:43.6	74.160	0.220	-0.240	-2.200
2020/01/31 18:33:43.7	74.190	0.210	-0.190	-2.190
2020/01/31 18:33:43.8	74.230	0.200	-0.140	-2.170
2020/01/31 18:33:43.9	74.240	0.190	-0.090	-2.150
2020/01/31 18:33:44.0	74.260	0.180	-0.040	-2.110
2020/01/31 18:33:44.1	74.270	0.170	0.020	-2.070
2020/01/31 18:33:44.2	74.280	0.160	0.070	-2.010
2020/01/31 18:33:44.3	74.290	0.150	0.130	-1.950
2020/01/31 18:33:44.4	74.290	0.140	0.180	-1.890
2020/01/31 18:33:44.5	74.300	0.120	0.230	-1.810
2020/01/31 18:33:44.6	74.300	0.110	0.280	-1.730
2020/01/31 18:33:44.7	74.300	0.090	0.330	-1.640
2020/01/31 18:33:44.8	74.290	0.080	0.380	-1.550
2020/01/31 18:33:44.9	74.290	0.060	0.420	-1.450
2020/01/31 18:33:45.0	74.290	0.050	0.470	-1.350
2020/01/31 18:33:45.1	74.280	0.030	0.510	-1.240
2020/01/31 18:33:45.2	74.280	0.010	0.540	-1.130
2020/01/31 18:33:45.3	74.280	-0.000	0.570	-1.020
2020/01/31 18:33:45.4	74.280	-0.020	0.600	-0.910
2020/01/31 18:33:45.5	74.280	-0.040	0.620	-0.800
2020/01/31 18:33:45.6	74.270	-0.060	0.640	-0.680
2020/01/31 18:33:45.7	74.270	-0.070	0.660	-0.570
2020/01/31 18:33:45.8	74.280	-0.090	0.660	-0.450
2020/01/31 18:33:45.9	74.280	-0.110	0.670	-0.330
2020/01/31 18:33:46.0	74.280	-0.120	0.670	-0.220
2020/01/31 18:33:46.1	74.280	-0.140	0.660	-0.110
2020/01/31 18:33:46.2	74.280	-0.160	0.650	0.000
2020/01/31 18:33:46.3	74.270	-0.170	0.640	0.110
2020/01/31 18:33:46.4	74.270	-0.190	0.620	0.220
2020/01/31 18:33:46.5	74.270	-0.200	0.600	0.330
2020/01/31 18:33:46.6	74.270	-0.210	0.570	0.430
2020/01/31 18:33:46.7	74.260	-0.230	0.540	0.540
2020/01/31 18:33:46.8	74.250	-0.240	0.500	0.650
2020/01/31 18:33:46.9	74.250	-0.250	0.460	0.750
2020/01/31 18:33:47.0	74.240	-0.260	0.420	0.850
2020/01/31 18:33:47.1	74.230	-0.270	0.370	0.950
2020/01/31 18:33:47.2	74.220	-0.280	0.320	1.040
2020/01/31 18:33:47.3	74.210	-0.280	0.260	1.140
2020/01/31 18:33:47.4	74.200	-0.290	0.210	1.230
2020/01/31 18:33:47.5	74.190	-0.290	0.150	1.320
2020/01/31 18:33:47.6	74.180	-0.300	0.090	1.400
2020/01/31 18:33:47.7	74.170	-0.300	0.020	1.490
2020/01/31 18:33:47.8	74.160	-0.300	-0.050	1.570
2020/01/31 18:33:47.9	74.150	-0.300	-0.110	1.640
2020/01/31 18:33:48.0	74.140	-0.290	-0.180	1.720
2020/01/31 18:33:48.1	74.130	-0.290	-0.240	1.790
2020/01/31 18:33:48.2	74.120	-0.280	-0.310	1.850
2020/01/31 18:33:48.3	74.110	-0.270	-0.380	1.910
2020/01/31 18:33:48.4	74.110	-0.260	-0.440	1.970
2020/01/31 18:33:48.5	74.100	-0.250	-0.500	2.020
2020/01/31 18:33:48.6	74.090	-0.240	-0.560	2.070
2020/01/31 18:33:48.7	74.090	-0.220	-0.620	2.110
2020/01/31 18:33:48.8	74.090	-0.210	-0.680	2.150
2020/01/31 18:33:48.9	74.090	-0.190	-0.730	2.180
2020/01/31 18:33:49.0	74.090	-0.170	-0.780	2.210
2020/01/31 18:33:49.1	74.090	-0.150	-0.820	2.240
2020/01/31 18:33:49.2	74.080	-0.130	-0.850	2.260
2020/01/31 18:33:49.3	74.080	-0.110	-0.890	2.280
2020/01/31 18:33:49.4	74.080	-0.090	-0.910	2.290
2020/01/31 18:33:49.5	74.070	-0.070	-0.930	2.300
2020/01/31 18:33:49.6	74.070	-0.050	-0.950	2.310
2020/01/31 18:33:49.7	74.060	-0.030	-0.960	2.310
2020/01/31 18:33:49.8	74.070	-0.010	-0.960	2.310
2020/01/31 18:33:49.9	74.060	0.010	-0.960	2.300
2020/01/31 18:33:50.0	74.060	0.030	-0.950	2.290
2020/01/31 18:33:50.1	74.050	0.050	-0.940	2.280
2020/01/31 18:33:50.2	74.040	0.070	-0.920	2.260
2020/01/31 18:33:50.3	74.040	0.090	-0.900	2.240
2020/01/31 18:33:50.4	74.030	0.110	-0.870	2.210
2020/01/31 18:33:50.5	74.020	0.130	-0.840	2.180
2020/01/31 18:33:50.6	74.020	0.140	-0.810	2.140
2020/01/31 18:33:50.7	74.010	0.160	-0.780	2.100
2020/01/31 18:33:50.8	74.000	0.170	-0.740	2.040
2020/01/31 18:33:50.9	73.990	0.180	-0.700	1.990
2020/01/31 18:33:51.0	73.990	0.200	-0.660	1.930
2020/01/31 18:33:51.1	73.990	0.210	-0.620	1.870
2020/01/31 18:33:51.2	73.990	0.220	-0.580	1.800
2020/01/31 18:33:51.3	73.990	0.230	-0.550	1.730
2020/01/31 18:33:51.4	73.990	0.230	-0.510	1.650
2020/01/31 18:33:51.5	73.990	0.240	-0.470	1.570
2020/01/31 18:33:51.6	73.990	0.250	-0.430	1.490
2020/01/31 18:33:51.7	73.990	0.250	-0.400	1.400
2020/01/31 18:33:51.8	74.000	0.260	-0.360	1.300
2020/01/31 18:33:51.9	74.000	0.260	-0.330	1.210
2020/01/31 18:33:52.0	74.010	0.260	-0.300	1.110
2020/01/31 18:33:52.1	74.020	0.270	-0.270	1.020
2020/01/31 18:33:52.2	74.020	0.270	-0.250	0.920
2020/01/31 18:33:52.3	74.030	0.270	-0.220	0.820
2020/01/31 18:33:52.4	74.040	0.270	-0.200	0.720
2020/01/31 18:33:52.5	74.040	0.270	-0.180	0.620
2020/01/31 18:33:52.6	74.050	0.270	-0.160	0.520
2020/01/31 18:33:52.7	74.060	0.260	-0.140	0.430
2020/01/31 18:33:52.8	74.070	0.260	-0.120	0.330
2020/01/31 18:33:52.9	74.080	0.260	-0.110	0.240
2020/01/31 18:33:53.0	74.080	0.250	-0.090	0.150
2020/01/31 18:33:53.1	74.090	0.250	-0.080	0.060
2020/01/31 18:33:53.2	74.090	0.240	-0.060	-0.030
2020/01/31 18:33:53.3	74.100	0.230	-0.050	-0.110
2020/01/31 18:33:53.4	74.100	0.230	-0.040	-0.190
2020/01/31 18:33:53.5	74.100	0.220	-0.020	-0.260
2020/01/31 18:33:53.6	74.100	0.210	-0.010	-0.340
2020/01/31 18:33:53.7	74.110	0.200	0.010	-0.410
2020/01/31 18:33:53.8	74.090	0.180	0.020	-0.480
2020/01/31 18:33:53.9	74.090	0.170	0.040	-0.540
2020/01/31 18:33:54.0	74.090	0.160	0.050	-0.600
2020/01/31 18:33:54.1	74.090	0.140	0.070	-0.660
2020/01/31 18:33:54.2	74.090	0.130	0.080	-0.710
2020/01/31 18:33:54.3	74.080	0.110	0.100	-0.760
2020/01/31 18:33:54.4	74.080	0.090	0.110	-0.810
2020/01/31 18:33:54.5	74.080	0.070	0.130	-0.860
2020/01/31 18:33:54.6	74.080	0.050	0.140	-0.900
2020/01/31 18:33:54.7	74.070	0.030	0.160	-0.950
2020/01/31 18:33:54.8	74.070	0.010	0.170	-0.980
2020/01/31 18:33:54.9	74.060	-0.010	0.180	-1.020
2020/01/31 18:33:55.0	74.060	-0.030	0.190	-1.060
2020/01/31 18:33:55.1	74.060	-0.050	0.210	-1.100
2020/01/31 18:33:55.2	74.060	-0.070	0.220	-1.140
2020/01/31 18:33:55.3	74.060	-0.090	0.220	-1.170
2020/01/31 18:33:55.4	74.060	-0.110	0.230	-1.210
2020/01/31 18:33:55.5	74.060	-0.130	0.240	-1.240
2020/01/31 18:33:55.6	74.070	-0.150	0.240	-1.270
2020/01/31 18:33:55.7	74.070	-0.170	0.240	-1.300
2020/01/31 18:33:55.8	74.080	-0.190	0.240	-1.340
2020/01/31 18:33:55.9	74.100	-0.200	0.240	-1.370
2020/01/31 18:33:56.0	74.110	-0.220	0.230	-1.390
2020/01/31 18:33:56.1	74.120	-0.230	0.230	-1.420
2020/01/31 18:33:56.2	74.140	-0.240	0.220	-1.450
2020/01/31 18:33:56.3	74.160	-0.250	0.200	-1.470
2020/01/31 18:33:56.4	74.180	-0.260	0.190	-1.490
2020/01/31 18:33:56.5	74.210	-0.270	0.170	-1.510
2020/01/31 18:33:56.6	74.230	-0.270	0.150	-1.530
2020/01/31 18:33:56.7	74.260	-0.270	0.130	-1.550
2020/01/31 18:33:56.8	74.290	-0.270	0.110	-1.550
2020/01/31 18:33:56.9	74.320	-0.270	0.090	-1.560
2020/01/31 18:33:57.0	74.350	-0.270	0.060	-1.570
2020/01/31 18:33:57.1	74.380	-0.260	0.030	-1.570
2020/01/31 18:33:57.2	74.410	-0.260	0.000	-1.570
2020/01/31 18:33:57.3	74.440	-0.250	-0.020	-1.560
2020/01/31 18:33:57.4	74.460	-0.240	-0.050	-1.550
2020/01/31 18:33:57.5	74.490	-0.220	-0.080	-1.540
2020/01/31 18:33:57.6	74.510	-0.210	-0.110	-1.520
2020/01/31 18:33:57.7	74.540	-0.190	-0.130	-1.500
2020/01/31 18:33:57.8	74.560	-0.180	-0.160	-1.470
2020/01/31 18:33:57.9	74.580	-0.160	-0.180	-1.430
2020/01/31 18:33:58.0	74.600	-0.140	-0.210	-1.400
2020/01/31 18:33:58.1	74.610	-0.130	-0.230	-1.360
2020/01/31 18:33:58.2	74.620	-0.110	-0.250	-1.310
2020/01/31 18:33:58.3	74.620	-0.090	-0.260	-1.260
2020/01/31 18:33:58.4	74.630	-0.070	-0.280	-1.200
2020/01/31 18:33:58.5	74.630	-0.060	-0.290	-1.140
2020/01/31 18:33:58.6	74.630	-0.040	-0.300	-1.080
2020/01/31 18:33:58.7	74.620	-0.020	-0.310	-1.010
2020/01/31 18:33:58.8	74.600	-0.010	-0.320	-0.940
2020/01/31 18:33:58.9	74.590	0.010	-0.330	-0.860
2020/01/31 18:33:59.0	74.580	0.020	-0.330	-0.790
2020/01/31 18:33:59.1	74.560	0.030	-0.340	-0.710
2020/01/31 18:33:59.2	74.550	0.040	-0.340	-0.620
2020/01/31 18:33:59.3	74.530	0.050	-0.340	-0.540
2020/01/31 18:33:59.4	74.510	0.060	-0.340	-0.450
2020/01/31 18:33:59.5	74.490	0.060	-0.340	-0.360
2020/01/31 18:33:59.6	74.460	0.070	-0.330	-0.270
2020/01/31 18:33:59.7	74.440	0.070	-0.330	-0.180
2020/01/31 18:33:59.8	74.410	0.070	-0.330	-0.090
2020/01/31 18:33:59.9	74.380	0.070	-0.320	0.010
2020/01/31 18:34:00.0	74.360	0.060	-0.320	0.100
2020/01/31 18:34:00.1	74.330	0.060	-0.320	0.200
2020/01/31 18:34:00.2	74.300	0.050	-0.310	0.290
2020/01/31 18:34:00.3	74.280	0.040	-0.310	0.390
2020/01/31 18:34:00.4	74.250	0.030	-0.310	0.480
2020/01/31 18:34:00.5	74.220	0.020	-0.310	0.570
2020/01/31 18:34:00.6	74.190	0.010	-0.300	0.670
2020/01/31 18:34:00.7	74.170	-0.000	-0.300	0.760
2020/01/31 18:34:00.8	74.140	-0.010	-0.300	0.850
2020/01/31 18:34:00.9	74.120	-0.030	-0.300	0.930
2020/01/31 18:34:01.0	74.100	-0.040	-0.300	1.020
2020/01/31 18:34:01.1	74.070	-0.060	-0.300	1.100
2020/01/31 18:34:01.2	74.050	-0.080	-0.310	1.180
2020/01/31 18:34:01.3	74.030	-0.090	-0.310	1.250
2020/01/31 18:34:01.4	74.010	-0.110	-0.310	1.320
2020/01/31 18:34:01.5	74.000	-0.130	-0.320	1.390
2020/01/31 18:34:01.6	73.980	-0.140	-0.320	1.460
2020/01/31 18:34:01.7	73.970	-0.160	-0.330	1.520
2020/01/31 18:34:01.8	73.960	-0.170	-0.330	1.580
2020/01/31 18:34:01.9	73.950	-0.190	-0.330	1.630
2020/01/31 18:34:02.0	73.940	-0.200	-0.340	1.680
2020/01/31 18:34:02.1	73.930	-0.210	-0.340	1.730
2020/01/31 18:34:02.2	73.930	-0.230	-0.350	1.770
2020/01/31 18:34:02.3	73.920	-0.230	-0.350	1.800
2020/01/31 18:34:02.4	73.920	-0.240	-0.350	1.830
2020/01/31 18:34:02.5	73.920	-0.250	-0.350	1.860
2020/01/31 18:34:02.6	73.930	-0.250	-0.350	1.880
2020/01/31 18:34:02.7	73.930	-0.250	-0.350	1.900
2020/01/31 18:34:02.8	73.940	-0.250	-0.350	1.910
2020/01/31 18:34:02.9	73.950	-0.250	-0.350	1.920
2020/01/31 18:34:03.0	73.960	-0.240	-0.350	1.920
2020/01/31 18:34:03.1	73.980	-0.230	-0.350	1.910
2020/01/31 18:34:03.2	73.990	-0.220	-0.340	1.900
2020/01/31 18:34:03.3	74.010	-0.210	-0.340	1.880
2020/01/31 18:34:03.4	74.030	-0.190	-0.340	1.860
2020/01/31 18:34:03.5	74.050	-0.170	-0.340	1.830
2020/01/31 18:34:03.6	74.070	-0.150	-0.340	1.790
2020/01/31 18:34:03.7	74.100	-0.130	-0.340	1.750
2020/01/31 18:34:03.8	74.120	-0.100	-0.330	1.700
2020/01/31 18:34:03.9	74.150	-0.070	-0.330	1.650
2020/01/31 18:34:04.0	74.180	-0.040	-0.340	1.600
2020/01/31 18:34:04.1	74.200	-0.010	-0.340	1.540
2020/01/31 18:34:04.2	74.230	0.030	-0.340	1.480
2020/01/31 18:34:04.3	74.260	0.060	-0.340	1.420
2020/01/31 18:34:04.4	74.290	0.100	-0.350	1.360
2020/01/31 18:34:04.5	74.320	0.140	-0.350	1.290
2020/01/31 18:34:04.6	74.340	0.170	-0.350	1.230
2020/01/31 18:34:04.7	74.370	0.210	-0.360	1.160
2020/01/31 18:34:04.8	74.410	0.250	-0.360	1.100
2020/01/31 18:34:04.9	74.430	0.280	-0.360	1.030
2020/01/31 18:34:05.0	74.450	0.320	-0.370	0.970
2020/01/31 18:34:05.1	74.470	0.350	-0.370	0.900
2020/01/31 18:34:05.2	74.490	0.380	-0.370	0.830
2020/01/31 18:34:05.3	74.510	0.410	-0.370	0.770
2020/01/31 18:34:05.4	74.530	0.440	-0.370	0.710
2020/01/31 18:34:05.5	74.550	0.460	-0.370	0.650
2020/01/31 18:34:05.6	74.560	0.480	-0.360	0.590
2020/01/31 18:34:05.7	74.570	0.500	-0.350	0.530
2020/01/31 18:34:05.8	74.580	0.520	-0.340	0.480
2020/01/31 18:34:05.9	74.590	0.530	-0.330	0.420
2020/01/31 18:34:06.0	74.600	0.530	-0.310	0.370
2020/01/31 18:34:06.1	74.610	0.540	-0.300	0.320
2020/01/31 18:34:06.2	74.620	0.540	-0.280	0.270
2020/01/31 18:34:06.3	74.620	0.530	-0.250	0.220
2020/01/31 18:34:06.4	74.630	0.530	-0.230	0.170
2020/01/31 18:34:06.5	74.630	0.510	-0.200	0.120
2020/01/31 18:34:06.6	74.630	0.500	-0.170	0.070
2020/01/31 18:34:06.7	74.630	0.480	-0.140	0.030
2020/01/31 18:34:06.8	74.630	0.460	-0.100	-0.020
2020/01/31 18:34:06.9	74.620	0.430	-0.070	-0.060
2020/01/31 18:34:07.0	74.620	0.410	-0.030	-0.110
2020/01/31 18:34:07.1	74.620	0.380	0.010	-0.150
2020/01/31 18:34:07.2	74.610	0.340	0.050	-0.200
2020/01/31 18:34:07.3	74.610	0.310	0.080	-0.240
2020/01/31 18:34:07.4	74.600	0.270	0.120	-0.290
2020/01/31 18:34:07.5	74.590	0.230	0.160	-0.330
2020/01/31 18:34:07.6	74.580	0.190	0.200	-0.380
2020/01/31 18:34:07.7	74.570	0.150	0.230	-0.430
2020/01/31 18:34:07.8	74.550	0.110	0.260	-0.480
2020/01/31 18:34:07.9	74.540	0.070	0.300	-0.520
2020/01/31 18:34:08.0	74.530	0.020	0.330	-0.570
2020/01/31 18:34:08.1	74.510	-0.020	0.360	-0.620
2020/01/31 18:34:08.2	74.500	-0.060	0.380	-0.670
2020/01/31 18:34:08.3	74.490	-0.100	0.410	-0.720
2020/01/31 18:34:08.4	74.470	-0.130	0.430	-0.760
2020/01/31 18:34:08.5	74.450	-0.170	0.450	-0.810
2020/01/31 18:34:08.6	74.440	-0.210	0.470	-0.850
2020/01/31 18:34:08.7	74.420	-0.240	0.480	-0.890
2020/01/31 18:34:08.8	74.410	-0.270	0.490	-0.940
2020/01/31 18:34:08.9	74.390	-0.300	0.500	-0.980
2020/01/31 18:34:09.0	74.370	-0.320	0.500	-1.010
2020/01/31 18:34:09.1	74.360	-0.340	0.510	-1.050
2020/01/31 18:34:09.2	74.340	-0.360	0.500	-1.080
2020/01/31 18:34:09.3	74.320	-0.380	0.500	-1.100
2020/01/31 18:34:09.4	74.300	-0.390	0.490	-1.130
2020/01/31 18:34:09.5	74.280	-0.400	0.480	-1.150
2020/01/31 18:34:09.6	74.260	-0.410	0.460	-1.160
2020/01/31 18:34:09.7	74.250	-0.410	0.440	-1.170
2020/01/31 18:34:09.8	74.230	-0.410	0.420	-1.180
2020/01/31 18:34:09.9	74.210	-0.410	0.390	-1.180
2020/01/31 18:34:10.0	74.190	-0.400	0.360	-1.180
2020/01/31 18:34:10.1	74.180	-0.390	0.330	-1.170
2020/01/31 18:34:10.2	74.160	-0.380	0.290	-1.160
2020/01/31 18:34:10.3	74.150	-0.370	0.250	-1.150
2020/01/31 18:34:10.4	74.140	-0.350	0.210	-1.130
2020/01/31 18:34:10.5	74.120	-0.340	0.170	-1.110
2020/01/31 18:34:10.6	74.110	-0.320	0.120	-1.080
2020/01/31 18:34:10.7	74.110	-0.300	0.070	-1.050
2020/01/31 18:34:10.8	74.100	-0.280	0.020	-1.020
2020/01/31 18:34:10.9	74.100	-0.250	-0.030	-0.980
2020/01/31 18:34:11.0	74.090	-0.230	-0.090	-0.940
2020/01/31 18:34:11.1	74.090	-0.210	-0.140	-0.900
2020/01/31 18:34:11.2	74.090	-0.190	-0.200	-0.860
2020/01/31 18:34:11.3	74.080	-0.160	-0.260	-0.810
2020/01/31 18:34:11.4	74.090	-0.140	-0.320	-0.760
2020/01/31 18:34:11.5	74.090	-0.120	-0.370	-0.710
2020/01/31 18:34:11.6	74.090	-0.100	-0.430	-0.660
2020/01/31 18:34:11.7	74.100	-0.080	-0.490	-0.610
2020/01/31 18:34:11.8	74.120	-0.070	-0.540	-0.550
2020/01/31 18:34:11.9	74.130	-0.050	-0.600	-0.500
2020/01/31 18:34:12.0	74.140	-0.040	-0.650	-0.450
2020/01/31 18:34:12.1	74.160	-0.030	-0.700	-0.400
2020/01/31 18:34:12.2	74.180	-0.020	-0.750	-0.340
2020/01/31 18:34:12.3	74.200	-0.010	-0.800	-0.300
2020/01/31 18:34:12.4	74.220	-0.010	-0.840	-0.250
2020/01/31 18:34:12.5	74.240	-0.000	-0.880	-0.200
2020/01/31 18:34:12.6	74.270	-0.000	-0.920	-0.160
2020/01/31 18:34:12.7	74.300	-0.000	-0.960	-0.110
2020/01/31 18:34:12.8	74.330	-0.010	-0.990	-0.070
2020/01/31 18:34:12.9	74.360	-0.010	-1.020	-0.030
2020/01/31 18:34:13.0	74.390	-0.020	-1.040	0.010
2020/01/31 18:34:13.1	74.420	-0.030	-1.060	0.040
2020/01/31 18:34:13.2	74.460	-0.040	-1.070	0.070
2020/01/31 18:34:13.3	74.490	-0.050	-1.080	0.100
2020/01/31 18:34:13.4	74.520	-0.060	-1.080	0.130
2020/01/31 18:34:13.5	74.550	-0.080	-1.080	0.160
2020/01/31 18:34:13.6	74.580	-0.090	-1.070	0.190
2020/01/31 18:34:13.7	74.610	-0.100	-1.050	0.210
2020/01/31 18:34:13.8	74.640	-0.120	-1.020	0.230
2020/01/31 18:34:13.9	74.670	-0.130	-1.000	0.260
2020/01/31 18:34:14.0	74.700	-0.140	-0.970	0.280
2020/01/31 18:34:14.1	74.720	-0.150	-0.930	0.310
2020/01/31 18:34:14.2	74.740	-0.160	-0.890	0.330
2020/01/31 18:34:14.3	74.760	-0.170	-0.840	0.360
2020/01/31 18:34:14.4	74.780	-0.170	-0.790	0.380
2020/01/31 18:34:14.5	74.800	-0.180	-0.730	0.410
2020/01/31 18:34:14.6	74.820	-0.180	-0.670	0.440
2020/01/31 18:34:14.7	74.830	-0.180	-0.610	0.470
2020/01/31 18:34:14.8	74.850	-0.170	-0.550	0.510
2020/01/31 18:34:14.9	74.860	-0.170	-0.480	0.540
2020/01/31 18:34:15.0	74.860	-0.160	-0.410	0.570
2020/01/31 18:34:15.1	74.870	-0.150	-0.340	0.610
2020/01/31 18:34:15.2	74.870	-0.140	-0.270	0.650
2020/01/31 18:34:15.3	74.870	-0.120	-0.210	0.680
2020/01/31 18:34:15.4	74.870	-0.100	-0.140	0.720
2020/01/31 18:34:15.5	74.870	-0.080	-0.070	0.760
2020/01/31 18:34:15.6	74.860	-0.060	-0.010	0.800
2020/01/31 18:34:15.7	74.860	-0.040	0.050	0.840
2020/01/31 18:34:15.8	74.840	-0.010	0.110	0.880
2020/01/31 18:34:15.9	74.830	0.020	0.170	0.920
2020/01/31 18:34:16.0	74.830	0.040	0.220	0.960
2020/01/31 18:34:16.1	74.820	0.070	0.260	0.990
2020/01/31 18:34:16.2	74.810	0.100	0.300	1.030
2020/01/31 18:34:16.3	74.790	0.130	0.340	1.070
2020/01/31 18:34:16.4	74.780	0.160	0.370	1.100
2020/01/31 18:34:16.5	74.770	0.190	0.400	1.130
2020/01/31 18:34:16.6	74.750	0.220	0.420	1.170
2020/01/31 18:34:16.7	74.740	0.250	0.440	1.200
2020/01/31 18:34:16.8	74.720	0.280	0.450	1.230
2020/01/31 18:34:16.9	74.700	0.300	0.450	1.260
2020/01/31 18:34:17.0	74.680	0.330	0.460	1.280
2020/01/31 18:34:17.1	74.660	0.350	0.460	1.310
2020/01/31 18:34:17.2	74.640	0.370	0.450	1.330
2020/01/31 18:34:17.3	74.620	0.380	0.440	1.350
2020/01/31 18:34:17.4	74.600	0.400	0.430	1.370
2020/01/31 18:34:17.5	74.580	0.410	0.410	1.380
2020/01/31 18:34:17.6	74.560	0.420	0.390	1.400
2020/01/31 18:34:17.7	74.540	0.420	0.360	1.400
2020/01/31 18:34:17.8	74.510	0.430	0.330	1.410
2020/01/31 18:34:17.9	74.480	0.430	0.300	1.410
2020/01/31 18:34:18.0	74.460	0.420	0.270	1.410
2020/01/31 18:34:18.1	74.440	0.420	0.240	1.400
2020/01/31 18:34:18.2	74.430	0.410	0.200	1.390
2020/01/31 18:34:18.3	74.410	0.400	0.170	1.370
2020/01/31 18:34:18.4	74.390	0.380	0.130	1.350
2020/01/31 18:34:18.5	74.380	0.360	0.090	1.330
2020/01/31 18:34:18.6	74.360	0.340	0.060	1.300
2020/01/31 18:34:18.7	74.350	0.320	0.020	1.270
2020/01/31 18:34:18.8	74.340	0.300	-0.020	1.240
2020/01/31 18:34:18.9	74.330	0.270	-0.060	1.200
2020/01/31 18:34:19.0	74.320	0.250	-0.090	1.160
2020/01/31 18:34:19.1	74.320	0.220	-0.120	1.120
2020/01/31 18:34:19.2	74.310	0.190	-0.150	1.070
2020/01/31 18:34:19.3	74.310	0.160	-0.180	1.020
2020/01/31 18:34:19.4	74.310	0.140	-0.210	0.970
2020/01/31 18:34:19.5	74.310	0.110	-0.240	0.910
2020/01/31 18:34:19.6	74.310	0.080	-0.260	0.860
2020/01/31 18:34:19.7	74.310	0.050	-0.280	0.800
2020/01/31 18:34:19.8	74.330	0.020	-0.300	0.740
2020/01/31 18:34:19.9	74.340	-0.010	-0.320	0.680
2020/01/31 18:34:20.0	74.350	-0.030	-0.330	0.610
2020/01/31 18:34:20.1	74.360	-0.060	-0.340	0.550
2020/01/31 18:34:20.2	74.370	-0.080	-0.350	0.490
2020/01/31 18:34:20.3	74.390	-0.100	-0.360	0.420
2020/01/31 18:34:20.4	74.400	-0.120	-0.370	0.350
2020/01/31 18:34:20.5	74.420	-0.140	-0.370	0.290
2020/01/31 18:34:20.6	74.440	-0.160	-0.380	0.220
2020/01/31 18:34:20.7	74.460	-0.170	-0.380	0.160
2020/01/31 18:34:20.8	74.480	-0.180	-0.380	0.090
2020/01/31 18:34:20.9	74.500	-0.190	-0.370	0.020
2020/01/31 18:34:21.0	74.530	-0.200	-0.370	-0.040
2020/01/31 18:34:21.1	74.550	-0.210	-0.370	-0.100
2020/01/31 18:34:21.2	74.580	-0.210	-0.370	-0.160
2020/01/31 18:34:21.3	74.600	-0.210	-0.360	-0.220
2020/01/31 18:34:21.4	74.620	-0.210	-0.360	-0.280
2020/01/31 18:34:21.5	74.650	-0.210	-0.350	-0.340
2020/01/31 18:34:21.6	74.670	-0.210	-0.350	-0.400
2020/01/31 18:34:21.7	74.700	-0.210	-0.340	-0.450
2020/01/31 18:34:21.8	74.720	-0.210	-0.340	-0.500
2020/01/31 18:34:21.9	74.740	-0.200	-0.330	-0.550
2020/01/31 18:34:22.0	74.760	-0.190	-0.330	-0.600
2020/01/31 18:34:22.1	74.790	-0.190	-0.320	-0.640
2020/01/31 18:34:22.2	74.810	-0.180	-0.320	-0.690
2020/01/31 18:34:22.3	74.830	-0.170	-0.310	-0.730
2020/01/31 18:34:22.4	74.850	-0.170	-0.310	-0.760
2020/01/31 18:34:22.5	74.870	-0.160	-0.300	-0.800
2020/01/31 18:34:22.6	74.890	-0.150	-0.300	-0.830
2020/01/31 18:34:22.7	74.910	-0.140	-0.290	-0.860
2020/01/31 18:34:22.8	74.930	-0.140	-0.290	-0.890
2020/01/31 18:34:22.9	74.950	-0.130	-0.290	-0.910
2020/01/31 18:34:23.0	74.960	-0.130	-0.280	-0.930
2020/01/31 18:34:23.1	74.980	-0.120	-0.280	-0.940
2020/01/31 18:34:23.2	74.990	-0.120	-0.270	-0.950
2020/01/31 18:34:23.3	75.010	-0.110	-0.260	-0.960
2020/01/31 18:34:23.4	75.020	-0.110	-0.260	-0.960
2020/01/31 18:34:23.5	75.040	-0.110	-0.250	-0.960
2020/01/31 18:34:23.6	75.050	-0.110	-0.240	-0.950
2020/01/31 18:34:23.7	75.060	-0.110	-0.230	-0.950
2020/01/31 18:34:23.8	75.070	-0.110	-0.220	-0.930
2020/01/31 18:34:23.9	75.080	-0.110	-0.210	-0.910
2020/01/31 18:34:24.0	75.080	-0.110	-0.200	-0.890
2020/01/31 18:34:24.1	75.090	-0.120	-0.190	-0.870
2020/01/31 18:34:24.2	75.100	-0.120	-0.170	-0.840
2020/01/31 18:34:24.3	75.100	-0.120	-0.160	-0.810
2020/01/31 18:34:24.4	75.110	-0.130	-0.140	-0.780
2020/01/31 18:34:24.5	75.110	-0.130	-0.130	-0.740
2020/01/31 18:34:24.6	75.120	-0.130	-0.110	-0.710
2020/01/31 18:34:24.7	75.120	-0.140	-0.090	-0.670
2020/01/31 18:34:24.8	75.120	-0.140	-0.080	-0.630
2020/01/31 18:34:24.9	75.120	-0.150	-0.060	-0.590
2020/01/31 18:34:25.0	75.120	-0.150	-0.040	-0.540
2020/01/31 18:34:25.1	75.120	-0.150	-0.020	-0.500
2020/01/31 18:34:25.2	75.120	-0.150	-0.010	-0.450
2020/01/31 18:34:25.3	75.120	-0.150	0.010	-0.410
2020/01/31 18:34:25.4	75.120	-0.150	0.020	-0.360
2020/01/31 18:34:25.5	75.120	-0.150	0.040	-0.310
2020/01/31 18:34:25.6	75.120	-0.150	0.050	-0.260
2020/01/31 18:34:25.7	75.120	-0.150	0.060	-0.210
2020/01/31 18:34:25.8	75.110	-0.140	0.070	-0.160
2020/01/31 18:34:25.9	75.110	-0.140	0.070	-0.120
2020/01/31 18:34:26.0	75.110	-0.130	0.070	-0.070
2020/01/31 18:34:26.1	75.100	-0.120	0.080	-0.020
2020/01/31 18:34:26.2	75.100	-0.110	0.080	0.020
2020/01/31 18:34:26.3	75.090	-0.090	0.070	0.070
2020/01/31 18:34:26.4	75.090	-0.080	0.060	0.110
2020/01/31 18:34:26.5	75.080	-0.070	0.060	0.160
2020/01/31 18:34:26.6	75.070	-0.050	0.040	0.200
2020/01/31 18:34:26.7	75.070	-0.030	0.030	0.250
2020/01/31 18:34:26.8	75.050	-0.020	0.020	0.290
2020/01/31 18:34:26.9	75.040	0.000	-0.000	0.340
2020/01/31 18:34:27.0	75.030	0.020	-0.020	0.380
2020/01/31 18:34:27.1	75.010	0.040	-0.040	0.430
2020/01/31 18:34:27.2	75.000	0.060	-0.060	0.470
2020/01/31 18:34:27.3	74.990	0.080	-0.090	0.520
2020/01/31 18:34:27.4	74.970	0.100	-0.110	0.570
2020/01/31 18:34:27.5	74.950	0.120	-0.140	0.610
2020/01/31 18:34:27.6	74.940	0.140	-0.160	0.660
2020/01/31 18:34:27.7	74.920	0.160	-0.180	0.710
2020/01/31 18:34:27.8	74.900	0.170	-0.210	0.760
2020/01/31 18:34:27.9	74.880	0.190	-0.230	0.810
2020/01/31 18:34:28.0	74.860	0.200	-0.250	0.860
2020/01/31 18:34:28.1	74.840	0.210	-0.270	0.900
2020/01/31 18:34:28.2	74.820	0.220	-0.290	0.950
2020/01/31 18:34:28.3	74.800	0.230	-0.310	0.990
2020/01/31 18:34:28.4	74.790	0.240	-0.320	1.030
2020/01/31 18:34:28.5	74.770	0.250	-0.330	1.070
2020/01/31 18:34:28.6	74.750	0.250	-0.340	1.100
2020/01/31 18:34:28.7	74.730	0.250	-0.350	1.140
2020/01/31 18:34:28.8	74.720	0.250	-0.360	1.160
2020/01/31 18:34:28.9	74.710	0.240	-0.360	1.190
2020/01/31 18:34:29.0	74.690	0.240	-0.360	1.210
2020/01/31 18:34:29.1	74.680	0.230	-0.370	1.230
2020/01/31 18:34:29.2	74.670	0.220	-0.370	1.250
2020/01/31 18:34:29.3	74.660	0.210	-0.370	1.260
2020/01/31 18:34:29.4	74.650	0.200	-0.360	1.270
2020/01/31 18:34:29.5	74.640	0.180	-0.360	1.270
2020/01/31 18:34:29.6	74.640	0.170	-0.360	1.270
2020/01/31 18:34:29.7	74.630	0.150	-0.350	1.270
2020/01/31 18:34:29.8	74.620	0.130	-0.350	1.260
2020/01/31 18:34:29.9	74.620	0.110	-0.340	1.250
2020/01/31 18:34:30.0	74.620	0.090	-0.330	1.240
2020/01/31 18:34:30.1	74.620	0.070	-0.330	1.220
2020/01/31 18:34:30.2	74.620	0.050	-0.320	1.200
2020/01/31 18:34:30.3	74.620	0.030	-0.320	1.180
2020/01/31 18:34:30.4	74.630	0.010	-0.310	1.160
2020/01/31 18:34:30.5	74.630	-0.010	-0.300	1.130
2020/01/31 18:34:30.6	74.630	-0.030	-0.300	1.100
2020/01/31 18:34:30.7	74.640	-0.050	-0.290	1.070
2020/01/31 18:34:30.8	74.650	-0.060	-0.290	1.040
2020/01/31 18:34:30.9	74.650	-0.080	-0.280	1.000
2020/01/31 18:34:31.0	74.660	-0.090	-0.280	0.970
2020/01/31 18:34:31.1	74.680	-0.100	-0.270	0.930
2020/01/31 18:34:31.2	74.690	-0.110	-0.270	0.890
2020/01/31 18:34:31.3	74.700	-0.120	-0.270	0.850
2020/01/31 18:34:31.4	74.710	-0.120	-0.270	0.810
2020/01/31 18:34:31.5	74.730	-0.120	-0.270	0.760
2020/01/31 18:34:31.6	74.750	-0.120	-0.270	0.720
2020/01/31 18:34:31.7	74.770	-0.110	-0.270	0.670
2020/01/31 18:34:31.8	74.780	-0.110	-0.280	0.620
2020/01/31 18:34:31.9	74.810	-0.100	-0.280	0.570
2020/01/31 18:34:32.0	74.830	-0.080	-0.280	0.520
2020/01/31 18:34:32.1	74.860	-0.070	-0.290	0.470
2020/01/31 18:34:32.2	74.880	-0.050	-0.300	0.410
2020/01/31 18:34:32.3	74.910	-0.030	-0.300	0.350
2020/01/31 18:34:32.4	74.940	-0.010	-0.310	0.290
2020/01/31 18:34:32.5	74.980	0.020	-0.320	0.230
2020/01/31 18:34:32.6	75.010	0.040	-0.340	0.170
2020/01/31 18:34:32.7	75.050	0.070	-0.350	0.100
2020/01/31 18:34:32.8	75.090	0.100	-0.360	0.040
2020/01/31 18:34:32.9	75.130	0.130	-0.380	-0.020
2020/01/31 18:34:33.0	75.170	0.160	-0.390	-0.090
2020/01/31 18:34:33.1	75.210	0.200	-0.400	-0.150
2020/01/31 18:34:33.2	75.250	0.230	-0.410	-0.210
2020/01/31 18:34:33.3	75.290	0.260	-0.430	-0.270
2020/01/31 18:34:33.4	75.330	0.290	-0.440	-0.320
2020/01/31 18:34:33.5	75.370	0.320	-0.450	-0.370
2020/01/31 18:34:33.6	75.400	0.350	-0.450	-0.420
2020/01/31 18:34:33.7	75.440	0.380	-0.460	-0.460
2020/01/31 18:34:33.8	75.480	0.400	-0.460	-0.500
2020/01/31 18:34:33.9	75.510	0.430	-0.450	-0.530
2020/01/31 18:34:34.0	75.540	0.450	-0.450	-0.560
2020/01/31 18:34:34.1	75.560	0.460	-0.440	-0.580
2020/01/31 18:34:34.2	75.590	0.480	-0.430	-0.600
2020/01/31 18:34:34.3	75.600	0.490	-0.410	-0.610
2020/01/31 18:34:34.4	75.620	0.490	-0.390	-0.610
2020/01/31 18:34:34.5	75.630	0.490	-0.360	-0.610
2020/01/31 18:34:34.6	75.640	0.490	-0.330	-0.600
2020/01/31 18:34:34.7	75.640	0.480	-0.290	-0.580
2020/01/31 18:34:34.8	75.650	0.470	-0.250	-0.560
2020/01/31 18:34:34.9	75.650	0.460	-0.210	-0.540
2020/01/31 18:34:35.0	75.640	0.440	-0.160	-0.500
2020/01/31 18:34:35.1	75.630	0.410	-0.110	-0.470
2020/01/31 18:34:35.2	75.610	0.380	-0.050	-0.420
2020/01/31 18:34:35.3	75.590	0.350	0.010	-0.380
2020/01/31 18:34:35.4	75.570	0.310	0.080	-0.330
2020/01/31 18:34:35.5	75.540	0.270	0.140	-0.270
2020/01/31 18:34:35.6	75.510	0.220	0.210	-0.210
2020/01/31 18:34:35.7	75.480	0.170	0.280	-0.150
2020/01/31 18:34:35.8	75.460	0.120	0.350	-0.090
2020/01/31 18:34:35.9	75.420	0.060	0.410	-0.020
2020/01/31 18:34:36.0	75.380	0.010	0.480	0.040
2020/01/31 18:34:36.1	75.340	-0.050	0.540	0.110
2020/01/31 18:34:36.2	75.290	-0.120	0.610	0.170
2020/01/31 18:34:36.3	75.250	-0.180	0.660	0.240
2020/01/31 18:34:36.4	75.200	-0.240	0.720	0.300
2020/01/31 18:34:36.5	75.160	-0.300	0.760	0.370
2020/01/31 18:34:36.6	75.110	-0.370	0.810	0.430
2020/01/31 18:34:36.7	75.060	-0.430	0.840	0.490
2020/01/31 18:34:36.8	75.020	-0.490	0.870	0.540
2020/01/31 18:34:36.9	74.970	-0.550	0.890	0.600
2020/01/31 18:34:37.0	74.930	-0.600	0.910	0.650
2020/01/31 18:34:37.1	74.880	-0.660	0.910	0.700
2020/01/31 18:34:37.2	74.830	-0.710	0.910	0.740
2020/01/31 18:34:37.3	74.790	-0.750	0.900	0.780
2020/01/31 18:34:37.4	74.750	-0.790	0.880	0.810
2020/01/31 18:34:37.5	74.710	-0.830	0.860	0.840
2020/01/31 18:34:37.6	74.670	-0.860	0.820	0.860
2020/01/31 18:34:37.7	74.630	-0.890	0.780	0.880
2020/01/31 18:34:37.8	74.590	-0.910	0.720	0.900
2020/01/31 18:34:37.9	74.560	-0.930	0.660	0.910
2020/01/31 18:34:38.0	74.530	-0.940	0.590	0.910
2020/01/31 18:34:38.1	74.500	-0.940	0.520	0.900
2020/01/31 18:34:38.2	74.480	-0.940	0.440	0.900
2020/01/31 18:34:38.3	74.460	-0.930	0.350	0.880
2020/01/31 18:34:38.4	74.450	-0.910	0.260	0.860
2020/01/31 18:34:38.5	74.440	-0.890	0.160	0.830
2020/01/31 18:34:38.6	74.430	-0.860	0.060	0.800
2020/01/31 18:34:38.7	74.430	-0.830	-0.050	0.770
2020/01/31 18:34:38.8	74.430	-0.790	-0.160	0.720
2020/01/31 18:34:38.9	74.440	-0.750	-0.270	0.680
2020/01/31 18:34:39.0	74.450	-0.700	-0.380	0.630
2020/01/31 18:34:39.1	74.460	-0.640	-0.500	0.580
2020/01/31 18:34:39.2	74.480	-0.590	-0.610	0.520
2020/01/31 18:34:39.3	74.500	-0.520	-0.720	0.470
2020/01/31 18:34:39.4	74.520	-0.460	-0.820	0.410
2020/01/31 18:34:39.5	74.550	-0.390	-0.930	0.350
2020/01/31 18:34:39.6	74.580	-0.320	-1.030	0.290
2020/01/31 18:34:39.7	74.610	-0.250	-1.120	0.230
2020/01/31 18:34:39.8	74.650	-0.170	-1.210	0.170
2020/01/31 18:34:39.9	74.690	-0.090	-1.300	0.110
2020/01/31 18:34:40.0	74.730	-0.020	-1.370	0.050
2020/01/31 18:34:40.1	74.770	0.060	-1.440	-0.000
2020/01/31 18:34:40.2	74.810	0.140	-1.500	-0.060
2020/01/31 18:34:40.3	74.850	0.210	-1.550	-0.110
2020/01/31 18:34:40.4	74.890	0.280	-1.590	-0.160
2020/01/31 18:34:40.5	74.930	0.360	-1.620	-0.200
2020/01/31 18:34:40.6	74.970	0.430	-1.640	-0.240
2020/01/31 18:34:40.7	75.010	0.490	-1.650	-0.280
2020/01/31 18:34:40.8	75.060	0.550	-1.650	-0.310
2020/01/31 18:34:40.9	75.100	0.610	-1.650	-0.350
2020/01/31 18:34:41.0	75.140	0.670	-1.630	-0.370
2020/01/31 18:34:41.1	75.170	0.720	-1.600	-0.390
2020/01/31 18:34:41.2	75.200	0.760	-1.560	-0.410
2020/01/31 18:34:41.3	75.230	0.800	-1.520	-0.430
2020/01/31 18:34:41.4	75.260	0.830	-1.460	-0.440
2020/01/31 18:34:41.5	75.280	0.860	-1.400	-0.440
2020/01/31 18:34:41.6	75.300	0.890	-1.330	-0.450
2020/01/31 18:34:41.7	75.320	0.900	-1.250	-0.440
2020/01/31 18:34:41.8	75.330	0.910	-1.160	-0.440
2020/01/31 18:34:41.9	75.340	0.920	-1.080	-0.430
2020/01/31 18:34:42.0	75.350	0.920	-0.980	-0.420
2020/01/31 18:34:42.1	75.360	0.910	-0.880	-0.410
2020/01/31 18:34:42.2	75.360	0.900	-0.780	-0.400
2020/01/31 18:34:42.3	75.360	0.880	-0.680	-0.380
2020/01/31 18:34:42.4	75.360	0.860	-0.570	-0.370
2020/01/31 18:34:42.5	75.350	0.830	-0.460	-0.350
2020/01/31 18:34:42.6	75.340	0.790	-0.350	-0.320
2020/01/31 18:34:42.7	75.330	0.760	-0.240	-0.300
2020/01/31 18:34:42.8	75.310	0.720	-0.130	-0.280
2020/01/31 18:34:42.9	75.290	0.670	-0.020	-0.260
2020/01/31 18:34:43.0	75.270	0.620	0.090	-0.230
2020/01/31 18:34:43.1	75.250	0.570	0.190	-0.200
2020/01/31 18:34:43.2	75.220	0.520	0.300	-0.180
2020/01/31 18:34:43.3	75.190	0.470	0.400	-0.150
2020/01/31 18:34:43.4	75.160	0.410	0.490	-0.120
2020/01/31 18:34:43.5	75.130	0.350	0.580	-0.090
2020/01/31 18:34:43.6	75.090	0.290	0.670	-0.050
2020/01/31 18:34:43.7	75.060	0.240	0.750	-0.020
2020/01/31 18:34:43.8	75.010	0.180	0.820	0.010
2020/01/31 18:34:43.9	74.970	0.120	0.890	0.040
2020/01/31 18:34:44.0	74.930	0.070	0.950	0.070
2020/01/31 18:34:44.1	74.900	0.010	1.010	0.100
2020/01/31 18:34:44.2	74.860	-0.040	1.050	0.140
2020/01/31 18:34:44.3	74.830	-0.090	1.090	0.170
2020/01/31 18:34:44.4	74.790	-0.130	1.120	0.200
2020/01/31 18:34:44.5	74.760	-0.180	1.140	0.230
2020/01/31 18:34:44.6	74.730	-0.220	1.160	0.260
2020/01/31 18:34:44.7	74.700	-0.260	1.160	0.290
2020/01/31 18:34:44.8	74.670	-0.290	1.160	0.320
2020/01/31 18:34:44.9	74.650	-0.320	1.140	0.350
2020/01/31 18:34:45.0	74.630	-0.350	1.130	0.380
2020/01/31 18:34:45.1	74.610	-0.370	1.100	0.400
2020/01/31 18:34:45.2	74.590	-0.390	1.060	0.420
2020/01/31 18:34:45.3	74.580	-0.410	1.020	0.440
2020/01/31 18:34:45.4	74.570	-0.420	0.970	0.460
2020/01/31 18:34:45.5	74.560	-0.430	0.910	0.480
2020/01/31 18:34:45.6	74.560	-0.440	0.850	0.490
2020/01/31 18:34:45.7	74.560	-0.440	0.780	0.510
2020/01/31 18:34:45.8	74.570	-0.440	0.700	0.520
2020/01/31 18:34:45.9	74.570	-0.440	0.620	0.530
2020/01/31 18:34:46.0	74.580	-0.440	0.540	0.530
2020/01/31 18:34:46.1	74.590	-0.430	0.450	0.540
2020/01/31 18:34:46.2	74.610	-0.420	0.360	0.540
2020/01/31 18:34:46.3	74.620	-0.410	0.270	0.540
2020/01/31 18:34:46.4	74.640	-0.400	0.180	0.530
2020/01/31 18:34:46.5	74.660	-0.380	0.090	0.530
2020/01/31 18:34:46.6	74.680	-0.370	-0.010	0.520
2020/01/31 18:34:46.7	74.700	-0.350	-0.100	0.520
2020/01/31 18:34:46.8	74.730	-0.340	-0.190	0.510
2020/01/31 18:34:46.9	74.750	-0.320	-0.280	0.500
2020/01/31 18:34:47.0	74.780	-0.300	-0.360	0.490
2020/01/31 18:34:47.1	74.800	-0.280	-0.440	0.490
2020/01/31 18:34:47.2	74.820	-0.270	-0.520	0.470
2020/01/31 18:34:47.3	74.850	-0.250	-0.580	0.460
2020/01/31 18:34:47.4	74.870	-0.240	-0.650	0.450
2020/01/31 18:34:47.5	74.890	-0.220	-0.710	0.440
2020/01/31 18:34:47.6	74.910	-0.210	-0.760	0.430
2020/01/31 18:34:47.7	74.930	-0.200	-0.810	0.420
2020/01/31 18:34:47.8	74.940	-0.180	-0.840	0.420
2020/01/31 18:34:47.9	74.960	-0.170	-0.870	0.410
2020/01/31 18:34:48.0	74.970	-0.170	-0.900	0.400
2020/01/31 18:34:48.1	74.980	-0.160	-0.920	0.390
2020/01/31 18:34:48.2	74.990	-0.150	-0.930	0.390
2020/01/31 18:34:48.3	75.000	-0.150	-0.940	0.390
2020/01/31 18:34:48.4	75.000	-0.140	-0.940	0.380
2020/01/31 18:34:48.5	75.000	-0.140	-0.930	0.380
2020/01/31 18:34:48.6	75.000	-0.130	-0.920	0.380
2020/01/31 18:34:48.7	74.990	-0.130	-0.900	0.390
2020/01/31 18:34:48.8	74.980	-0.130	-0.880	0.400
2020/01/31 18:34:48.9	74.970	-0.130	-0.860	0.400
2020/01/31 18:34:49.0	74.960	-0.130	-0.830	0.410
2020/01/31 18:34:49.1	74.940	-0.130	-0.800	0.420
2020/01/31 18:34:49.2	74.930	-0.120	-0.770	0.440
2020/01/31 18:34:49.3	74.910	-0.120	-0.730	0.450
2020/01/31 18:34:49.4	74.880	-0.120	-0.700	0.470
2020/01/31 18:34:49.5	74.860	-0.120	-0.660	0.480
2020/01/31 18:34:49.6	74.840	-0.110	-0.620	0.500
2020/01/31 18:34:49.7	74.810	-0.110	-0.590	0.520
2020/01/31 18:34:49.8	74.800	-0.100	-0.550	0.540
2020/01/31 18:34:49.9	74.770	-0.090	-0.520	0.560
2020/01/31 18:34:50.0	74.750	-0.080	-0.490	0.580
2020/01/31 18:34:50.1	74.720	-0.070	-0.470	0.600
2020/01/31 18:34:50.2	74.690	-0.060	-0.440	0.610
2020/01/31 18:34:50.3	74.660	-0.040	-0.430	0.630
2020/01/31 18:34:50.4	74.640	-0.020	-0.410	0.640
2020/01/31 18:34:50.5	74.610	-0.010	-0.400	0.660
2020/01/31 18:34:50.6	74.580	0.010	-0.390	0.670
2020/01/31 18:34:50.7	74.560	0.030	-0.390	0.670
2020/01/31 18:34:50.8	74.540	0.060	-0.390	0.680
2020/01/31 18:34:50.9	74.520	0.080	-0.400	0.680
2020/01/31 18:34:51.0	74.500	0.110	-0.410	0.680
2020/01/31 18:34:51.1	74.480	0.130	-0.420	0.680
2020/01/31 18:34:51.2	74.470	0.160	-0.440	0.680
2020/01/31 18:34:51.3	74.460	0.180	-0.450	0.670
2020/01/31 18:34:51.4	74.450	0.210	-0.470	0.650
2020/01/31 18:34:51.5	74.440	0.240	-0.490	0.640
2020/01/31 18:34:51.6	74.440	0.260	-0.520	0.620
2020/01/31 18:34:51.7	74.440	0.290	-0.540	0.600
2020/01/31 18:34:51.8	74.450	0.320	-0.560	0.580
2020/01/31 18:34:51.9	74.450	0.340	-0.570	0.550
2020/01/31 18:34:52.0	74.460	0.360	-0.590	0.530
2020/01/31 18:34:52.1	74.470	0.380	-0.600	0.500
2020/01/31 18:34:52.2	74.480	0.400	-0.610	0.480
2020/01/31 18:34:52.3	74.490	0.420	-0.610	0.450
2020/01/31 18:34:52.4	74.510	0.440	-0.610	0.420
2020/01/31 18:34:52.5	74.520	0.450	-0.600	0.390
2020/01/31 18:34:52.6	74.530	0.460	-0.590	0.370
2020/01/31 18:34:52.7	74.550	0.470	-0.570	0.340
2020/01/31 18:34:52.8	74.550	0.470	-0.540	0.320
2020/01/31 18:34:52.9	74.570	0.480	-0.510	0.290
2020/01/31 18:34:53.0	74.580	0.470	-0.470	0.270
2020/01/31 18:34:53.1	74.590	0.470	-0.420	0.250
2020/01/31 18:34:53.2	74.600	0.460	-0.370	0.230
2020/01/31 18:34:53.3	74.610	0.450	-0.310	0.210
2020/01/31 18:34:53.4	74.620	0.430	-0.240	0.190
2020/01/31 18:34:53.5	74.630	0.420	-0.170	0.180
2020/01/31 18:34:53.6	74.630	0.400	-0.100	0.160
2020/01/31 18:34:53.7	74.630	0.370	-0.020	0.140
2020/01/31 18:34:53.8	74.630	0.340	0.060	0.130
2020/01/31 18:34:53.9	74.630	0.310	0.140	0.120
2020/01/31 18:34:54.0	74.630	0.280	0.230	0.100
2020/01/31 18:34:54.1	74.630	0.250	0.310	0.090
2020/01/31 18:34:54.2	74.620	0.210	0.390	0.070
2020/01/31 18:34:54.3	74.620	0.170	0.470	0.060
2020/01/31 18:34:54.4	74.610	0.130	0.540	0.040
2020/01/31 18:34:54.5	74.600	0.090	0.610	0.020
2020/01/31 18:34:54.6	74.590	0.050	0.680	0.000
2020/01/31 18:34:54.7	74.590	0.010	0.740	-0.020
2020/01/31 18:34:54.8	74.580	-0.030	0.790	-0.050
2020/01/31 18:34:54.9	74.570	-0.070	0.840	-0.070
2020/01/31 18:34:55.0	74.560	-0.110	0.880	-0.100
2020/01/31 18:34:55.1	74.550	-0.150	0.910	-0.120
2020/01/31 18:34:55.2	74.540	-0.180	0.940	-0.150
2020/01/31 18:34:55.3	74.540	-0.220	0.950	-0.180
2020/01/31 18:34:55.4	74.530	-0.250	0.960	-0.210
2020/01/31 18:34:55.5	74.520	-0.280	0.950	-0.240
2020/01/31 18:34:55.6	74.510	-0.300	0.940	-0.270
2020/01/31 18:34:55.7	74.510	-0.320	0.930	-0.300
2020/01/31 18:34:55.8	74.510	-0.340	0.900	-0.330
2020/01/31 18:34:55.9	74.500	-0.360	0.860	-0.360
2020/01/31 18:34:56.0	74.500	-0.370	0.820	-0.390
2020/01/31 18:34:56.1	74.490	-0.380	0.770	-0.420
2020/01/31 18:34:56.2	74.490	-0.380	0.710	-0.450
2020/01/31 18:34:56.3	74.480	-0.380	0.650	-0.480
2020/01/31 18:34:56.4	74.480	-0.370	0.580	-0.510
2020/01/31 18:34:56.5	74.470	-0.370	0.500	-0.530
2020/01/31 18:34:56.6	74.470	-0.350	0.420	-0.560
2020/01/31 18:34:56.7	74.460	-0.340	0.340	-0.580
2020/01/31 18:34:56.8	74.470	-0.320	0.250	-0.600
2020/01/31 18:34:56.9	74.470	-0.300	0.160	-0.620
2020/01/31 18:34:57.0	74.460	-0.270	0.060	-0.640
2020/01/31 18:34:57.1	74.460	-0.250	-0.030	-0.660
2020/01/31 18:34:57.2	74.460	-0.220	-0.120	-0.670
2020/01/31 18:34:57.3	74.460	-0.180	-0.220	-0.680
2020/01/31 18:34:57.4	74.460	-0.150	-0.310	-0.690
2020/01/31 18:34:57.5	74.470	-0.120	-0.400	-0.700
2020/01/31 18:34:57.6	74.470	-0.080	-0.490	-0.700
2020/01/31 18:34:57.7	74.470	-0.050	-0.580	-0.710
2020/01/31 18:34:57.8	74.470	-0.010	-0.660	-0.710
2020/01/31 18:34:57.9	74.470	0.020	-0.740	-0.700
2020/01/31 18:34:58.0	74.480	0.060	-0.810	-0.700
2020/01/31 18:34:58.1	74.490	0.090	-0.870	-0.690
2020/01/31 18:34:58.2	74.490	0.120	-0.940	-0.680
2020/01/31 18:34:58.3	74.500	0.150	-0.990	-0.670
2020/01/31 18:34:58.4	74.510	0.180	-1.040	-0.650
2020/01/31 18:34:58.5	74.520	0.210	-1.080	-0.630
2020/01/31 18:34:58.6	74.520	0.230	-1.110	-0.610
2020/01/31 18:34:58.7	74.530	0.250	-1.140	-0.590
2020/01/31 18:34:58.8	74.540	0.270	-1.160	-0.560
2020/01/31 18:34:58.9	74.550	0.290	-1.180	-0.530
2020/01/31 18:34:59.0	74.550	0.300	-1.180	-0.500
2020/01/31 18:34:59.1	74.560	0.300	-1.180	-0.470
2020/01/31 18:34:59.2	74.560	0.310	-1.170	-0.430
2020/01/31 18:34:59.3	74.560	0.310	-1.160	-0.390
2020/01/31 18:34:59.4	74.570	0.310	-1.130	-0.350
2020/01/31 18:34:59.5	74.560	0.300	-1.100	-0.310
2020/01/31 18:34:59.6	74.560	0.290	-1.070	-0.270
2020/01/31 18:34:59.7	74.560	0.270	-1.020	-0.220
2020/01/31 18:34:59.8	74.570	0.250	-0.970	-0.170
2020/01/31 18:34:59.9	74.560	0.230	-0.910	-0.130
2020/01/31 18:35:00.0	74.550	0.210	-0.850	-0.080
2020/01/31 18:35:00.1	74.540	0.180	-0.790	-0.030
2020/01/31 18:35:00.2	74.540	0.150	-0.710	0.020
2020/01/31 18:35:00.3	74.520	0.120	-0.640	0.070
2020/01/31 18:35:00.4	74.510	0.080	-0.560	0.120
2020/01/31 18:35:00.5	74.500	0.050	-0.470	0.170
2020/01/31 18:35:00.6	74.490	0.010	-0.390	0.220
2020/01/31 18:35:00.7	74.480	-0.030	-0.300	0.270
2020/01/31 18:35:00.8	74.460	-0.070	-0.210	0.310
2020/01/31 18:35:00.9	74.450	-0.110	-0.120	0.360
2020/01/31 18:35:01.0	74.440	-0.150	-0.040	0.410
2020/01/31 18:35:01.1	74.420	-0.180	0.050	0.460
2020/01/31 18:35:01.2	74.410	-0.220	0.130	0.500
2020/01/31 18:35:01.3	74.400	-0.260	0.220	0.550
2020/01/31 18:35:01.4	74.380	-0.290	0.290	0.590
2020/01/31 18:35:01.5	74.370	-0.330	0.370	0.630
2020/01/31 18:35:01.6	74.360	-0.360	0.440	0.670
2020/01/31 18:35:01.7	74.350	-0.390	0.500	0.700
2020/01/31 18:35:01.8	74.340	-0.410	0.560	0.730
2020/01/31 18:35:01.9	74.330	-0.430	0.610	0.760
2020/01/31 18:35:02.0	74.330	-0.450	0.650	0.790
2020/01/31 18:35:02.1	74.320	-0.470	0.680	0.820
2020/01/31 18:35:02.2	74.320	-0.480	0.710	0.840
2020/01/31 18:35:02.3	74.320	-0.480	0.730	0.860
2020/01/31 18:35:02.4	74.320	-0.490	0.740	0.880
2020/01/31 18:35:02.5	74.320	-0.490	0.740	0.900
2020/01/31 18:35:02.6	74.320	-0.480	0.730	0.910
2020/01/31 18:35:02.7	74.320	-0.480	0.710	0.920
2020/01/31 18:35:02.8	74.320	-0.470	0.690	0.930
2020/01/31 18:35:02.9	74.320	-0.450	0.650	0.940
2020/01/31 18:35:03.0	74.330	-0.430	0.610	0.940
2020/01/31 18:35:03.1	74.330	-0.410	0.560	0.940
2020/01/31 18:35:03.2	74.340	-0.390	0.510	0.950
2020/01/31 18:35:03.3	74.350	-0.360	0.450	0.940
2020/01/31 18:35:03.4	74.360	-0.330	0.380	0.940
2020/01/31 18:35:03.5	74.370	-0.300	0.300	0.940
2020/01/31 18:35:03.6	74.390	-0.270	0.220	0.930
2020/01/31 18:35:03.7	74.400	-0.240	0.140	0.920
2020/01/31 18:35:03.8	74.410	-0.200	0.050	0.910
2020/01/31 18:35:03.9	74.430	-0.170	-0.040	0.900
2020/01/31 18:35:04.0	74.450	-0.130	-0.130	0.880
2020/01/31 18:35:04.1	74.460	-0.090	-0.220	0.860
2020/01/31 18:35:04.2	74.480	-0.050	-0.320	0.840
2020/01/31 18:35:04.3	74.510	-0.020	-0.410	0.820
2020/01/31 18:35:04.4	74.530	0.020	-0.500	0.790
2020/01/31 18:35:04.5	74.550	0.060	-0.590	0.770
2020/01/31 18:35:04.6	74.570	0.090	-0.680	0.740
2020/01/31 18:35:04.7	74.600	0.120	-0.770	0.710
2020/01/31 18:35:04.8	74.620	0.160	-0.850	0.680
2020/01/31 18:35:04.9	74.640	0.190	-0.930	0.640
2020/01/31 18:35:05.0	74.670	0.220	-0.990	0.610
2020/01/31 18:35:05.1	74.690	0.250	-1.060	0.570
2020/01/31 18:35:05.2	74.710	0.270	-1.110	0.540
2020/01/31 18:35:05.3	74.730	0.290	-1.160	0.500
2020/01/31 18:35:05.4	74.750	0.310	-1.200	0.460
2020/01/31 18:35:05.5	74.770	0.330	-1.230	0.430
2020/01/31 18:35:05.6	74.790	0.350	-1.250	0.400
2020/01/31 18:35:05.7	74.800	0.360	-1.250	0.360
2020/01/31 18:35:05.8	74.820	0.370	-1.250	0.340
2020/01/31 18:35:05.9	74.830	0.380	-1.240	0.310
2020/01/31 18:35:06.0	74.830	0.390	-1.220	0.280
2020/01/31 18:35:06.1	74.830	0.390	-1.180	0.260
2020/01/31 18:35:06.2	74.830	0.390	-1.140	0.240
2020/01/31 18:35:06.3	74.820	0.390	-1.080	0.230
2020/01/31 18:35:06.4	74.810	0.390	-1.020	0.220
2020/01/31 18:35:06.5	74.790	0.380	-0.940	0.210
2020/01/31 18:35:06.6	74.770	0.370	-0.860	0.200
2020/01/31 18:35:06.7	74.750	0.360	-0.770	0.200
2020/01/31 18:35:06.8	74.740	0.350	-0.680	0.200
2020/01/31 18:35:06.9	74.710	0.340	-0.580	0.200
2020/01/31 18:35:07.0	74.670	0.320	-0.480	0.210
2020/01/31 18:35:07.1	74.640	0.310	-0.370	0.220
2020/01/31 18:35:07.2	74.600	0.290	-0.260	0.230
2020/01/31 18:35:07.3	74.560	0.270	-0.160	0.240
2020/01/31 18:35:07.4	74.530	0.250	-0.050	0.250
2020/01/31 18:35:07.5	74.490	0.230	0.050	0.270
2020/01/31 18:35:07.6	74.450	0.220	0.150	0.280
2020/01/31 18:35:07.7	74.410	0.200	0.240	0.300
2020/01/31 18:35:07.8	74.380	0.180	0.330	0.310
2020/01/31 18:35:07.9	74.340	0.160	0.410	0.330
2020/01/31 18:35:08.0	74.300	0.140	0.480	0.340
2020/01/31 18:35:08.1	74.270	0.130	0.550	0.350
2020/01/31 18:35:08.2	74.230	0.110	0.600	0.360
2020/01/31 18:35:08.3	74.200	0.100	0.650	0.360
2020/01/31 18:35:08.4	74.180	0.080	0.680	0.370
2020/01/31 18:35:08.5	74.150	0.070	0.710	0.370
2020/01/31 18:35:08.6	74.130	0.060	0.730	0.370
2020/01/31 18:35:08.7	74.110	0.050	0.730	0.360
2020/01/31 18:35:08.8	74.110	0.040	0.730	0.350
2020/01/31 18:35:08.9	74.100	0.030	0.720	0.340
2020/01/31 18:35:09.0	74.090	0.030	0.700	0.330
2020/01/31 18:35:09.1	74.090	0.020	0.660	0.310
2020/01/31 18:35:09.2	74.090	0.020	0.630	0.280
2020/01/31 18:35:09.3	74.090	0.020	0.580	0.260
2020/01/31 18:35:09.4	74.100	0.010	0.530	0.230
2020/01/31 18:35:09.5	74.110	0.010	0.470	0.200
2020/01/31 18:35:09.6	74.120	0.010	0.410	0.160
2020/01/31 18:35:09.7	74.140	0.020	0.340	0.120
2020/01/31 18:35:09.8	74.150	0.020	0.270	0.080
2020/01/31 18:35:09.9	74.180	0.020	0.200	0.040
2020/01/31 18:35:10.0	74.200	0.020	0.130	-0.010
2020/01/31 18:35:10.1	74.230	0.030	0.050	-0.050
2020/01/31 18:35:10.2	74.260	0.030	-0.020	-0.100
2020/01/31 18:35:10.3	74.290	0.040	-0.090	-0.140
2020/01/31 18:35:10.4	74.320	0.040	-0.150	-0.190
2020/01/31 18:35:10.5	74.350	0.050	-0.210	-0.240
2020/01/31 18:35:10.6	74.380	0.050	-0.270	-0.280
2020/01/31 18:35:10.7	74.410	0.060	-0.330	-0.330
2020/01/31 18:35:10.8	74.430	0.070	-0.380	-0.370
2020/01/31 18:35:10.9	74.460	0.070	-0.430	-0.410
2020/01/31 18:35:11.0	74.490	0.080	-0.470	-0.460
2020/01/31 18:35:11.1	74.520	0.090	-0.500	-0.490
2020/01/31 18:35:11.2	74.550	0.090	-0.530	-0.530
2020/01/31 18:35:11.3	74.580	0.100	-0.560	-0.560
2020/01/31 18:35:11.4	74.600	0.100	-0.570	-0.590
2020/01/31 18:35:11.5	74.630	0.110	-0.590	-0.620
2020/01/31 18:35:11.6	74.650	0.110	-0.590	-0.650
2020/01/31 18:35:11.7	74.670	0.120	-0.600	-0.670
2020/01/31 18:35:11.8	74.680	0.120	-0.590	-0.690
2020/01/31 18:35:11.9	74.700	0.120	-0.590	-0.710
2020/01/31 18:35:12.0	74.720	0.120	-0.580	-0.720
2020/01/31 18:35:12.1	74.740	0.120	-0.570	-0.730
2020/01/31 18:35:12.2	74.750	0.120	-0.550	-0.740
2020/01/31 18:35:12.3	74.770	0.120	-0.530	-0.750
2020/01/31 18:35:12.4	74.780	0.120	-0.510	-0.760
2020/01/31 18:35:12.5	74.800	0.120	-0.490	-0.760
2020/01/31 18:35:12.6	74.810	0.110	-0.470	-0.760
2020/01/31 18:35:12.7	74.830	0.110	-0.440	-0.760
2020/01/31 18:35:12.8	74.840	0.100	-0.420	-0.750
2020/01/31 18:35:12.9	74.860	0.100	-0.400	-0.740
2020/01/31 18:35:13.0	74.870	0.090	-0.370	-0.730
2020/01/31 18:35:13.1	74.880	0.080	-0.340	-0.720
2020/01/31 18:35:13.2	74.890	0.070	-0.320	-0.700
2020/01/31 18:35:13.3	74.900	0.070	-0.300	-0.680
2020/01/31 18:35:13.4	74.910	0.060	-0.270	-0.650
2020/01/31 18:35:13.5	74.920	0.050	-0.250	-0.620
2020/01/31 18:35:13.6	74.930	0.040	-0.230	-0.590
2020/01/31 18:35:13.7	74.940	0.030	-0.210	-0.550
2020/01/31 18:35:13.8	74.950	0.010	-0.180	-0.510
2020/01/31 18:35:13.9	74.960	0.000	-0.160	-0.460
2020/01/31 18:35:14.0	74.960	-0.010	-0.140	-0.410
2020/01/31 18:35:14.1	74.960	-0.020	-0.120	-0.350
2020/01/31 18:35:14.2	74.960	-0.030	-0.110	-0.290
2020/01/31 18:35:14.3	74.960	-0.040	-0.090	-0.230
2020/01/31 18:35:14.4	74.950	-0.060	-0.070	-0.160
2020/01/31 18:35:14.5	74.950	-0.070	-0.050	-0.090
2020/01/31 18:35:14.6	74.940	-0.080	-0.040	-0.020
2020/01/31 18:35:14.7	74.930	-0.090	-0.020	0.060
2020/01/31 18:35:14.8	74.910	-0.100	-0.010	0.140
2020/01/31 18:35:14.9	74.900	-0.110	0.000	0.220
2020/01/31 18:35:15.0	74.890	-0.120	0.020	0.300
2020/01/31 18:35:15.1	74.880	-0.130	0.030	0.390
2020/01/31 18:35:15.2	74.860	-0.140	0.040	0.470
2020/01/31 18:35:15.3	74.850	-0.150	0.050	0.550
2020/01/31 18:35:15.4	74.830	-0.160	0.050	0.630
2020/01/31 18:35:15.5	74.820	-0.170	0.060	0.710
2020/01/31 18:35:15.6	74.810	-0.180	0.060	0.790
2020/01/31 18:35:15.7	74.790	-0.190	0.060	0.860
2020/01/31 18:35:15.8	74.780	-0.190	0.070	0.940
2020/01/31 18:35:15.9	74.760	-0.200	0.060	1.000
2020/01/31 18:35:16.0	74.750	-0.210	0.060	1.070
2020/01/31 18:35:16.1	74.730	-0.220	0.060	1.130
2020/01/31 18:35:16.2	74.720	-0.230	0.060	1.190
2020/01/31 18:35:16.3	74.710	-0.240	0.050	1.240
2020/01/31 18:35:16.4	74.690	-0.240	0.050	1.290
2020/01/31 18:35:16.5	74.680	-0.250	0.040	1.330
2020/01/31 18:35:16.6	74.670	-0.260	0.030	1.370
2020/01/31 18:35:16.7	74.660	-0.270	0.030	1.410
2020/01/31 18:35:16.8	74.650	-0.280	0.020	1.440
2020/01/31 18:35:16.9	74.640	-0.280	0.010	1.470
2020/01/31 18:35:17.0	74.630	-0.290	0.010	1.500
2020/01/31 18:35:17.1	74.620	-0.300	0.000	1.520
2020/01/31 18:35:17.2	74.620	-0.310	-0.000	1.530
2020/01/31 18:35:17.3	74.610	-0.310	-0.010	1.550
2020/01/31 18:35:17.4	74.600	-0.320	-0.010	1.560
2020/01/31 18:35:17.5	74.600	-0.320	-0.010	1.570
2020/01/31 18:35:17.6	74.590	-0.330	-0.020	1.570
2020/01/31 18:35:17.7	74.590	-0.330	-0.020	1.570
2020/01/31 18:35:17.8	74.580	-0.340	-0.020	1.560
2020/01/31 18:35:17.9	74.570	-0.340	-0.030	1.550
2020/01/31 18:35:18.0	74.580	-0.340	-0.030	1.540
2020/01/31 18:35:18.1	74.580	-0.340	-0.030	1.520
2020/01/31 18:35:18.2	74.580	-0.340	-0.040	1.490
2020/01/31 18:35:18.3	74.590	-0.340	-0.050	1.470
2020/01/31 18:35:18.4	74.590	-0.340	-0.050	1.430
2020/01/31 18:35:18.5	74.600	-0.340	-0.060	1.400
2020/01/31 18:35:18.6	74.610	-0.330	-0.080	1.350
2020/01/31 18:35:18.7	74.630	-0.320	-0.090	1.310
2020/01/31 18:35:18.8	74.630	-0.320	-0.100	1.250
2020/01/31 18:35:18.9	74.650	-0.300	-0.120	1.200
2020/01/31 18:35:19.0	74.670	-0.290	-0.140	1.140
2020/01/31 18:35:19.1	74.680	-0.280	-0.160	1.070
2020/01/31 18:35:19.2	74.700	-0.260	-0.190	1.010
2020/01/31 18:35:19.3	74.720	-0.240	-0.210	0.930
2020/01/31 18:35:19.4	74.740	-0.230	-0.240	0.860
2020/01/31 18:35:19.5	74.770	-0.200	-0.270	0.790
2020/01/31 18:35:19.6	74.790	-0.180	-0.300	0.710
2020/01/31 18:35:19.7	74.810	-0.160	-0.330	0.630
2020/01/31 18:35:19.8	74.830	-0.130	-0.360	0.560
2020/01/31 18:35:19.9	74.850	-0.100	-0.390	0.480
2020/01/31 18:35:20.0	74.870	-0.070	-0.420	0.400
2020/01/31 18:35:20.1	74.890	-0.040	-0.450	0.330
2020/01/31 18:35:20.2	74.910	-0.010	-0.480	0.260
2020/01/31 18:35:20.3	74.920	0.020	-0.500	0.190
2020/01/31 18:35:20.4	74.940	0.060	-0.530	0.120
2020/01/31 18:35:20.5	74.950	0.090	-0.550	0.050
2020/01/31 18:35:20.6	74.970	0.120	-0.570	-0.010
2020/01/31 18:35:20.7	74.980	0.160	-0.590	-0.070
2020/01/31 18:35:20.8	74.990	0.190	-0.610	-0.130
2020/01/31 18:35:20.9	75.000	0.230	-0.620	-0.180
2020/01/31 18:35:21.0	75.010	0.260	-0.640	-0.230
2020/01/31 18:35:21.1	75.010	0.300	-0.650	-0.280
2020/01/31 18:35:21.2	75.020	0.330	-0.650	-0.320
2020/01/31 18:35:21.3	75.020	0.360	-0.660	-0.360
2020/01/31 18:35:21.4	75.020	0.390	-0.660	-0.400
2020/01/31 18:35:21.5	75.020	0.420	-0.660	-0.430
2020/01/31 18:35:21.6	75.020	0.450	-0.660	-0.460
2020/01/31 18:35:21.7	75.010	0.470	-0.660	-0.490
2020/01/31 18:35:21.8	75.010	0.490	-0.650	-0.510
2020/01/31 18:35:21.9	75.000	0.510	-0.640	-0.530
2020/01/31 18:35:22.0	75.000	0.530	-0.630	-0.550
2020/01/31 18:35:22.1	74.990	0.550	-0.620	-0.570
2020/01/31 18:35:22.2	74.980	0.560	-0.600	-0.580
2020/01/31 18:35:22.3	74.960	0.580	-0.590	-0.590
2020/01/31 18:35:22.4	74.950	0.580	-0.570	-0.610
2020/01/31 18:35:22.5	74.940	0.590	-0.550	-0.620
2020/01/31 18:35:22.6	74.920	0.590	-0.530	-0.620
2020/01/31 18:35:22.7	74.910	0.590	-0.510	-0.630
2020/01/31 18:35:22.8	74.900	0.590	-0.480	-0.640
2020/01/31 18:35:22.9	74.880	0.580	-0.460	-0.640
2020/01/31 18:35:23.0	74.870	0.580	-0.440	-0.650
2020/01/31 18:35:23.1	74.860	0.560	-0.420	-0.660
2020/01/31 18:35:23.2	74.840	0.550	-0.400	-0.660
2020/01/31 18:35:23.3	74.830	0.530	-0.380	-0.670
2020/01/31 18:35:23.4	74.820	0.510	-0.360	-0.680
2020/01/31 18:35:23.5	74.810	0.490	-0.340	-0.690
2020/01/31 18:35:23.6	74.800	0.470	-0.320	-0.700
2020/01/31 18:35:23.7	74.790	0.440	-0.310	-0.720
2020/01/31 18:35:23.8	74.780	0.410	-0.290	-0.730
2020/01/31 18:35:23.9	74.770	0.390	-0.280	-0.740
2020/01/31 18:35:24.0	74.770	0.350	-0.260	-0.760
2020/01/31 18:35:24.1	74.770	0.320	-0.250	-0.780
2020/01/31 18:35:24.2	74.780	0.290	-0.230	-0.800
2020/01/31 18:35:24.3	74.780	0.260	-0.220	-0.810
2020/01/31 18:35:24.4	74.790	0.220	-0.210	-0.830
2020/01/31 18:35:24.5	74.800	0.190	-0.190	-0.850
2020/01/31 18:35:24.6	74.810	0.150	-0.180	-0.870
2020/01/31 18:35:24.7	74.820	0.120	-0.160	-0.890
2020/01/31 18:35:24.8	74.840	0.080	-0.150	-0.920
2020/01/31 18:35:24.9	74.860	0.050	-0.130	-0.930
2020/01/31 18:35:25.0	74.870	0.010	-0.110	-0.950
2020/01/31 18:35:25.1	74.890	-0.020	-0.090	-0.970
2020/01/31 18:35:25.2	74.910	-0.050	-0.070	-0.980
2020/01/31 18:35:25.3	74.940	-0.090	-0.040	-0.990
2020/01/31 18:35:25.4	74.960	-0.120	-0.020	-1.000
2020/01/31 18:35:25.5	74.980	-0.150	0.010	-1.000
2020/01/31 18:35:25.6	75.000	-0.170	0.040	-1.000
2020/01/31 18:35:25.7	75.020	-0.200	0.070	-1.000
2020/01/31 18:35:25.8	75.060	-0.230	0.100	-0.990
2020/01/31 18:35:25.9	75.080	-0.250	0.140	-0.970
2020/01/31 18:35:26.0	75.100	-0.280	0.180	-0.960
2020/01/31 18:35:26.1	75.120	-0.300	0.210	-0.940
2020/01/31 18:35:26.2	75.140	-0.320	0.250	-0.920
2020/01/31 18:35:26.3	75.150	-0.340	0.290	-0.890
2020/01/31 18:35:26.4	75.170	-0.360	0.330	-0.860
2020/01/31 18:35:26.5	75.180	-0.380	0.370	-0.830
2020/01/31 18:35:26.6	75.200	-0.400	0.400	-0.790
2020/01/31 18:35:26.7	75.210	-0.410	0.440	-0.740
2020/01/31 18:35:26.8	75.220	-0.420	0.480	-0.700
2020/01/31 18:35:26.9	75.230	-0.440	0.510	-0.650
2020/01/31 18:35:27.0	75.240	-0.450	0.540	-0.590
2020/01/31 18:35:27.1	75.240	-0.460	0.570	-0.530
2020/01/31 18:35:27.2	75.250	-0.470	0.600	-0.470
2020/01/31 18:35:27.3	75.250	-0.470	0.620	-0.400
2020/01/31 18:35:27.4	75.260	-0.480	0.640	-0.330
2020/01/31 18:35:27.5	75.260	-0.480	0.660	-0.250
2020/01/31 18:35:27.6	75.270	-0.490	0.670	-0.180
2020/01/31 18:35:27.7	75.270	-0.490	0.680	-0.100
2020/01/31 18:35:27.8	75.280	-0.490	0.680	-0.020
2020/01/31 18:35:27.9	75.280	-0.490	0.680	0.070
2020/01/31 18:35:28.0	75.280	-0.490	0.680	0.150
2020/01/31 18:35:28.1	75.280	-0.480	0.670	0.240
2020/01/31 18:35:28.2	75.280	-0.480	0.660	0.330
2020/01/31 18:35:28.3	75.290	-0.470	0.640	0.420
2020/01/31 18:35:28.4	75.290	-0.470	0.620	0.510
2020/01/31 18:35:28.5	75.290	-0.460	0.600	0.600
2020/01/31 18:35:28.6	75.290	-0.450	0.560	0.690
2020/01/31 18:35:28.7	75.290	-0.440	0.530	0.780
2020/01/31 18:35:28.8	75.290	-0.430	0.490	0.880
2020/01/31 18:35:28.9	75.290	-0.410	0.440	0.970
2020/01/31 18:35:29.0	75.290	-0.400	0.400	1.060
2020/01/31 18:35:29.1	75.290	-0.380	0.340	1.150
2020/01/31 18:35:29.2	75.290	-0.370	0.290	1.240
2020/01/31 18:35:29.3	75.290	-0.350	0.230	1.330
2020/01/31 18:35:29.4	75.300	-0.330	0.170	1.410
2020/01/31 18:35:29.5	75.300	-0.310	0.100	1.500
2020/01/31 18:35:29.6	75.300	-0.290	0.030	1.580
2020/01/31 18:35:29.7	75.310	-0.270	-0.040	1.650
2020/01/31 18:35:29.8	75.310	-0.250	-0.120	1.730
2020/01/31 18:35:29.9	75.320	-0.220	-0.200	1.790
2020/01/31 18:35:30.0	75.320	-0.200	-0.270	1.860
2020/01/31 18:35:30.1	75.330	-0.180	-0.350	1.910
2020/01/31 18:35:30.2	75.330	-0.160	-0.430	1.960
2020/01/31 18:35:30.3	75.340	-0.130	-0.510	2.010
2020/01/31 18:35:30.4	75.350	-0.110	-0.590	2.050
2020/01/31 18:35:30.5	75.360	-0.090	-0.670	2.080
2020/01/31 18:35:30.6	75.370	-0.060	-0.750	2.100
2020/01/31 18:35:30.7	75.380	-0.040	-0.830	2.120
2020/01/31 18:35:30.8	75.400	-0.020	-0.910	2.130
2020/01/31 18:35:30.9	75.410	0.000	-0.980	2.130
2020/01/31 18:35:31.0	75.430	0.030	-1.050	2.130
2020/01/31 18:35:31.1	75.440	0.050	-1.110	2.110
2020/01/31 18:35:31.2	75.450	0.070	-1.170	2.090
2020/01/31 18:35:31.3	75.470	0.090	-1.230	2.070
2020/01/31 18:35:31.4	75.480	0.110	-1.280	2.030
2020/01/31 18:35:31.5	75.490	0.130	-1.330	2.000
2020/01/31 18:35:31.6	75.500	0.150	-1.370	1.950
2020/01/31 18:35:31.7	75.520	0.170	-1.400	1.900
2020/01/31 18:35:31.8	75.530	0.190	-1.430	1.850
2020/01/31 18:35:31.9	75.540	0.210	-1.450	1.790
2020/01/31 18:35:32.0	75.550	0.230	-1.460	1.730
2020/01/31 18:35:32.1	75.560	0.250	-1.460	1.670
2020/01/31 18:35:32.2	75.570	0.270	-1.460	1.610
2020/01/31 18:35:32.3	75.580	0.290	-1.450	1.540
2020/01/31 18:35:32.4	75.590	0.310	-1.430	1.480
2020/01/31 18:35:32.5	75.600	0.330	-1.400	1.410
2020/01/31 18:35:32.6	75.610	0.350	-1.360	1.340
2020/01/31 18:35:32.7	75.620	0.360	-1.320	1.270
2020/01/31 18:35:32.8	75.620	0.380	-1.260	1.200
2020/01/31 18:35:32.9	75.630	0.400	-1.200	1.130
2020/01/31 18:35:33.0	75.640	0.410	-1.140	1.060
2020/01/31 18:35:33.1	75.650	0.430	-1.070	0.980
2020/01/31 18:35:33.2	75.660	0.440	-0.990	0.910
2020/01/31 18:35:33.3	75.660	0.450	-0.910	0.840
2020/01/31 18:35:33.4	75.670	0.470	-0.830	0.770
2020/01/31 18:35:33.5	75.680	0.480	-0.740	0.700
2020/01/31 18:35:33.6	75.690	0.480	-0.650	0.640
2020/01/31 18:35:33.7	75.700	0.490	-0.560	0.570
2020/01/31 18:35:33.8	75.710	0.500	-0.460	0.500
2020/01/31 18:35:33.9	75.720	0.500	-0.360	0.440
2020/01/31 18:35:34.0	75.720	0.500	-0.260	0.380
2020/01/31 18:35:34.1	75.730	0.500	-0.160	0.320
2020/01/31 18:35:34.2	75.730	0.500	-0.070	0.270
2020/01/31 18:35:34.3	75.740	0.490	0.030	0.210
2020/01/31 18:35:34.4	75.740	0.480	0.120	0.170
2020/01/31 18:35:34.5	75.740	0.470	0.220	0.120
2020/01/31 18:35:34.6	75.740	0.460	0.310	0.080
2020/01/31 18:35:34.7	75.730	0.440	0.390	0.040
2020/01/31 18:35:34.8	75.720	0.430	0.480	0.010
2020/01/31 18:35:34.9	75.710	0.410	0.550	-0.020
2020/01/31 18:35:35.0	75.700	0.380	0.630	-0.050
2020/01/31 18:35:35.1	75.690	0.360	0.690	-0.080
2020/01/31 18:35:35.2	75.670	0.330	0.750	-0.100
2020/01/31 18:35:35.3	75.660	0.300	0.810	-0.120
2020/01/31 18:35:35.4	75.640	0.280	0.850	-0.140
2020/01/31 18:35:35.5	75.620	0.240	0.890	-0.150
2020/01/31 18:35:35.6	75.590	0.210	0.930	-0.170
2020/01/31 18:35:35.7	75.570	0.180	0.950	-0.190
2020/01/31 18:35:35.8	75.530	0.140	0.970	-0.200
2020/01/31 18:35:35.9	75.500	0.110	0.980	-0.220
2020/01/31 18:35:36.0	75.480	0.070	0.980	-0.240
2020/01/31 18:35:36.1	75.450	0.040	0.970	-0.260
2020/01/31 18:35:36.2	75.420	-0.000	0.960	-0.280
2020/01/31 18:35:36.3	75.400	-0.040	0.930	-0.300
2020/01/31 18:35:36.4	75.370	-0.070	0.900	-0.330
2020/01/31 18:35:36.5	75.350	-0.100	0.860	-0.350
2020/01/31 18:35:36.6	75.320	-0.140	0.820	-0.380
2020/01/31 18:35:36.7	75.310	-0.170	0.770	-0.410
2020/01/31 18:35:36.8	75.280	-0.200	0.710	-0.450
2020/01/31 18:35:36.9	75.270	-0.220	0.640	-0.490
2020/01/31 18:35:37.0	75.260	-0.250	0.570	-0.530
2020/01/31 18:35:37.1	75.250	-0.270	0.490	-0.570
2020/01/31 18:35:37.2	75.240	-0.290	0.410	-0.620
2020/01/31 18:35:37.3	75.240	-0.310	0.320	-0.670
2020/01/31 18:35:37.4	75.250	-0.320	0.230	-0.720
2020/01/31 18:35:37.5	75.260	-0.330	0.130	-0.770
2020/01/31 18:35:37.6	75.270	-0.340	0.040	-0.830
2020/01/31 18:35:37.7	75.280	-0.340	-0.060	-0.880
2020/01/31 18:35:37.8	75.290	-0.340	-0.160	-0.930
2020/01/31 18:35:37.9	75.310	-0.340	-0.260	-0.980
2020/01/31 18:35:38.0	75.330	-0.330	-0.360	-1.030
2020/01/31 18:35:38.1	75.360	-0.320	-0.460	-1.080
2020/01/31 18:35:38.2	75.380	-0.310	-0.550	-1.130
2020/01/31 18:35:38.3	75.410	-0.300	-0.640	-1.170
2020/01/31 18:35:38.4	75.430	-0.280	-0.720	-1.210
2020/01/31 18:35:38.5	75.460	-0.260	-0.800	-1.250
2020/01/31 18:35:38.6	75.490	-0.250	-0.880	-1.280
2020/01/31 18:35:38.7	75.510	-0.220	-0.940	-1.310
2020/01/31 18:35:38.8	75.540	-0.200	-1.010	-1.330
2020/01/31 18:35:38.9	75.560	-0.180	-1.060	-1.340
2020/01/31 18:35:39.0	75.590	-0.160	-1.110	-1.360
2020/01/31 18:35:39.1	75.620	-0.130	-1.150	-1.360
2020/01/31 18:35:39.2	75.640	-0.110	-1.170	-1.360
2020/01/31 18:35:39.3	75.660	-0.090	-1.190	-1.360
2020/01/31 18:35:39.4	75.690	-0.070	-1.210	-1.350
2020/01/31 18:35:39.5	75.710	-0.050	-1.210	-1.330
2020/01/31 18:35:39.6	75.730	-0.030	-1.200	-1.310
2020/01/31 18:35:39.7	75.750	-0.020	-1.190	-1.280
2020/01/31 18:35:39.8	75.770	-0.000	-1.160	-1.250
2020/01/31 18:35:39.9	75.790	0.010	-1.130	-1.210
2020/01/31 18:35:40.0	75.800	0.020	-1.100	-1.180
2020/01/31 18:35:40.1	75.810	0.030	-1.050	-1.130
2020/01/31 18:35:40.2	75.820	0.030	-1.000	-1.090
2020/01/31 18:35:40.3	75.830	0.030	-0.940	-1.040
2020/01/31 18:35:40.4	75.840	0.030	-0.870	-0.980
2020/01/31 18:35:40.5	75.840	0.020	-0.800	-0.930
2020/01/31 18:35:40.6	75.840	0.020	-0.720	-0.870
2020/01/31 18:35:40.7	75.840	0.010	-0.640	-0.810
2020/01/31 18:35:40.8	75.840	-0.010	-0.560	-0.750
2020/01/31 18:35:40.9	75.840	-0.020	-0.470	-0.690
2020/01/31 18:35:41.0	75.830	-0.040	-0.380	-0.630
2020/01/31 18:35:41.1	75.820	-0.060	-0.290	-0.560
2020/01/31 18:35:41.2	75.820	-0.080	-0.200	-0.500
2020/01/31 18:35:41.3	75.810	-0.100	-0.110	-0.430
2020/01/31 18:35:41.4	75.800	-0.120	-0.020	-0.370
2020/01/31 18:35:41.5	75.790	-0.150	0.070	-0.310
2020/01/31 18:35:41.6	75.780	-0.170	0.150	-0.240
2020/01/31 18:35:41.7	75.770	-0.200	0.230	-0.180
2020/01/31 18:35:41.8	75.770	-0.220	0.310	-0.120
2020/01/31 18:35:41.9	75.770	-0.240	0.380	-0.060
2020/01/31 18:35:42.0	75.760	-0.270	0.450	-0.000
2020/01/31 18:35:42.1	75.750	-0.290	0.510	0.050
2020/01/31 18:35:42.2	75.740	-0.310	0.570	0.110
2020/01/31 18:35:42.3	75.740	-0.330	0.610	0.160
2020/01/31 18:35:42.4	75.730	-0.340	0.660	0.210
2020/01/31 18:35:42.5	75.730	-0.360	0.690	0.260
2020/01/31 18:35:42.6	75.720	-0.370	0.710	0.300
2020/01/31 18:35:42.7	75.720	-0.380	0.730	0.340
2020/01/31 18:35:42.8	75.710	-0.380	0.740	0.390
2020/01/31 18:35:42.9	75.710	-0.390	0.750	0.420
2020/01/31 18:35:43.0	75.710	-0.390	0.740	0.460
2020/01/31 18:35:43.1	75.710	-0.390	0.730	0.500
2020/01/31 18:35:43.2	75.720	-0.380	0.710	0.530
2020/01/31 18:35:43.3	75.720	-0.370	0.680	0.560
2020/01/31 18:35:43.4	75.730	-0.360	0.650	0.600
2020/01/31 18:35:43.5	75.730	-0.350	0.610	0.630
2020/01/31 18:35:43.6	75.730	-0.340	0.570	0.660
2020/01/31 18:35:43.7	75.730	-0.320	0.520	0.700
2020/01/31 18:35:43.8	75.740	-0.300	0.470	0.730
2020/01/31 18:35:43.9	75.740	-0.280	0.410	0.770
2020/01/31 18:35:44.0	75.740	-0.260	0.360	0.800
2020/01/31 18:35:44.1	75.730	-0.230	0.300	0.840
2020/01/31 18:35:44.2	75.730	-0.210	0.250	0.880
2020/01/31 18:35:44.3	75.720	-0.180	0.190	0.920
2020/01/31 18:35:44.4	75.710	-0.150	0.130	0.970
2020/01/31 18:35:44.5	75.700	-0.130	0.080	1.010
2020/01/31 18:35:44.6	75.690	-0.100	0.020	1.050
2020/01/31 18:35:44.7	75.670	-0.080	-0.030	1.100
2020/01/31 18:35:44.8	75.650	-0.050	-0.080	1.150
2020/01/31 18:35:44.9	75.630	-0.030	-0.130	1.190
2020/01/31 18:35:45.0	75.610	-0.000	-0.180	1.230
2020/01/31 18:35:45.1	75.590	0.020	-0.220	1.270
2020/01/31 18:35:45.2	75.570	0.040	-0.260	1.310
2020/01/31 18:35:45.3	75.540	0.060	-0.300	1.350
2020/01/31 18:35:45.4	75.520	0.080	-0.340	1.380
2020/01/31 18:35:45.5	75.490	0.100	-0.380	1.420
2020/01/31 18:35:45.6	75.470	0.110	-0.410	1.440
2020/01/31 18:35:45.7	75.440	0.130	-0.440	1.470
2020/01/31 18:35:45.8	75.410	0.140	-0.470	1.480
2020/01/31 18:35:45.9	75.390	0.150	-0.500	1.500
2020/01/31 18:35:46.0	75.360	0.160	-0.520	1.510
2020/01/31 18:35:46.1	75.340	0.170	-0.550	1.510
2020/01/31 18:35:46.2	75.320	0.180	-0.570	1.510
2020/01/31 18:35:46.3	75.300	0.180	-0.590	1.500
2020/01/31 18:35:46.4	75.290	0.190	-0.610	1.490
2020/01/31 18:35:46.5	75.270	0.190	-0.630	1.470
2020/01/31 18:35:46.6	75.260	0.200	-0.650	1.450
2020/01/31 18:35:46.7	75.250	0.200	-0.670	1.420
2020/01/31 18:35:46.8	75.240	0.200	-0.680	1.380
2020/01/31 18:35:46.9	75.230	0.210	-0.700	1.350
2020/01/31 18:35:47.0	75.230	0.210	-0.710	1.310
2020/01/31 18:35:47.1	75.230	0.210	-0.730	1.260
2020/01/31 18:35:47.2	75.230	0.220	-0.740	1.210
2020/01/31 18:35:47.3	75.230	0.220	-0.760	1.160
2020/01/31 18:35:47.4	75.230	0.230	-0.770	1.100
2020/01/31 18:35:47.5	75.240	0.230	-0.780	1.040
2020/01/31 18:35:47.6	75.250	0.240	-0.800	0.980
2020/01/31 18:35:47.7	75.260	0.250	-0.810	0.910
2020/01/31 18:35:47.8	75.280	0.250	-0.820	0.840
2020/01/31 18:35:47.9	75.290	0.260	-0.830	0.770
2020/01/31 18:35:48.0	75.310	0.270	-0.840	0.700
2020/01/31 18:35:48.1	75.320	0.290	-0.840	0.630
2020/01/31 18:35:48.2	75.340	0.300	-0.850	0.560
2020/01/31 18:35:48.3	75.360	0.310	-0.850	0.490
2020/01/31 18:35:48.4	75.380	0.320	-0.850	0.420
2020/01/31 18:35:48.5	75.390	0.340	-0.850	0.350
2020/01/31 18:35:48.6	75.410	0.350	-0.850	0.280
2020/01/31 18:35:48.7	75.430	0.370	-0.840	0.220
2020/01/31 18:35:48.8	75.450	0.380	-0.830	0.150
2020/01/31 18:35:48.9	75.470	0.390	-0.810	0.090
2020/01/31 18:35:49.0	75.490	0.410	-0.800	0.030
2020/01/31 18:35:49.1	75.500	0.420	-0.780	-0.030
2020/01/31 18:35:49.2	75.520	0.430	-0.750	-0.080
2020/01/31 18:35:49.3	75.530	0.440	-0.720	-0.130
2020/01/31 18:35:49.4	75.540	0.450	-0.690	-0.170
2020/01/31 18:35:49.5	75.550	0.460	-0.660	-0.210
2020/01/31 18:35:49.6	75.560	0.460	-0.620	-0.250
2020/01/31 18:35:49.7	75.570	0.470	-0.570	-0.290
2020/01/31 18:35:49.8	75.580	0.470	-0.520	-0.320
2020/01/31 18:35:49.9	75.580	0.460	-0.470	-0.340
2020/01/31 18:35:50.0	75.590	0.460	-0.410	-0.360
2020/01/31 18:35:50.1	75.590	0.450	-0.360	-0.380
2020/01/31 18:35:50.2	75.590	0.440	-0.290	-0.390
2020/01/31 18:35:50.3	75.590	0.430	-0.230	-0.400
2020/01/31 18:35:50.4	75.590	0.410	-0.160	-0.410
2020/01/31 18:35:50.5	75.580	0.390	-0.090	-0.410
2020/01/31 18:35:50.6	75.580	0.370	-0.020	-0.410
2020/01/31 18:35:50.7	75.570	0.340	0.050	-0.410
2020/01/31 18:35:50.8	75.550	0.310	0.120	-0.400
2020/01/31 18:35:50.9	75.540	0.280	0.200	-0.390
2020/01/31 18:35:51.0	75.520	0.240	0.270	-0.380
2020/01/31 18:35:51.1	75.510	0.200	0.340	-0.360
2020/01/31 18:35:51.2	75.490	0.160	0.410	-0.350
2020/01/31 18:35:51.3	75.470	0.120	0.480	-0.330
2020/01/31 18:35:51.4	75.450	0.080	0.550	-0.310
2020/01/31 18:35:51.5	75.420	0.030	0.610	-0.290
2020/01/31 18:35:51.6	75.400	-0.010	0.670	-0.270
2020/01/31 18:35:51.7	75.370	-0.060	0.730	-0.250
2020/01/31 18:35:51.8	75.350	-0.110	0.780	-0.220
2020/01/31 18:35:51.9	75.310	-0.160	0.830	-0.200
2020/01/31 18:35:52.0	75.280	-0.210	0.870	-0.180
2020/01/31 18:35:52.1	75.240	-0.260	0.900	-0.160
2020/01/31 18:35:52.2	75.210	-0.300	0.930	-0.140
2020/01/31 18:35:52.3	75.170	-0.350	0.950	-0.110
2020/01/31 18:35:52.4	75.140	-0.400	0.970	-0.090
2020/01/31 18:35:52.5	75.100	-0.440	0.980	-0.080
2020/01/31 18:35:52.6	75.060	-0.480	0.980	-0.060
2020/01/31 18:35:52.7	75.030	-0.510	0.970	-0.040
2020/01/31 18:35:52.8	75.000	-0.550	0.950	-0.030
2020/01/31 18:35:52.9	74.960	-0.580	0.930	-0.020
2020/01/31 18:35:53.0	74.930	-0.600	0.900	-0.010
2020/01/31 18:35:53.1	74.900	-0.630	0.860	-0.010
2020/01/31 18:35:53.2	74.870	-0.640	0.810	-0.010
2020/01/31 18:35:53.3	74.850	-0.660	0.750	-0.010
2020/01/31 18:35:53.4	74.830	-0.660	0.690	-0.010
2020/01/31 18:35:53.5	74.810	-0.670	0.620	-0.020
2020/01/31 18:35:53.6	74.790	-0.660	0.540	-0.030
2020/01/31 18:35:53.7	74.780	-0.660	0.450	-0.040
2020/01/31 18:35:53.8	74.760	-0.640	0.360	-0.050
2020/01/31 18:35:53.9	74.760	-0.620	0.260	-0.070
2020/01/31 18:35:54.0	74.760	-0.600	0.160	-0.090
2020/01/31 18:35:54.1	74.760	-0.570	0.050	-0.120
2020/01/31 18:35:54.2	74.770	-0.530	-0.060	-0.140
2020/01/31 18:35:54.3	74.780	-0.490	-0.170	-0.170
2020/01/31 18:35:54.4	74.800	-0.450	-0.290	-0.200
2020/01/31 18:35:54.5	74.810	-0.400	-0.410	-0.240
2020/01/31 18:35:54.6	74.840	-0.350	-0.530	-0.270
2020/01/31 18:35:54.7	74.860	-0.300	-0.650	-0.300
2020/01/31 18:35:54.8	74.890	-0.240	-0.760	-0.340
2020/01/31 18:35:54.9	74.920	-0.180	-0.880	-0.380
2020/01/31 18:35:55.0	74.950	-0.120	-0.990	-0.410
2020/01/31 18:35:55.1	74.990	-0.050	-1.090	-0.450
2020/01/31 18:35:55.2	75.030	0.010	-1.190	-0.480
2020/01/31 18:35:55.3	75.070	0.080	-1.290	-0.510
2020/01/31 18:35:55.4	75.110	0.140	-1.370	-0.540
2020/01/31 18:35:55.5	75.150	0.200	-1.450	-0.570
2020/01/31 18:35:55.6	75.190	0.260	-1.510	-0.590
2020/01/31 18:35:55.7	75.230	0.320	-1.570	-0.610
2020/01/31 18:35:55.8	75.280	0.370	-1.610	-0.630
2020/01/31 18:35:55.9	75.310	0.430	-1.650	-0.640
2020/01/31 18:35:56.0	75.350	0.470	-1.660	-0.640
2020/01/31 18:35:56.1	75.380	0.520	-1.670	-0.640
2020/01/31 18:35:56.2	75.410	0.550	-1.660	-0.640
2020/01/31 18:35:56.3	75.440	0.590	-1.640	-0.630
2020/01/31 18:35:56.4	75.460	0.610	-1.610	-0.610
2020/01/31 18:35:56.5	75.470	0.630	-1.560	-0.590
2020/01/31 18:35:56.6	75.490	0.650	-1.500	-0.560
2020/01/31 18:35:56.7	75.490	0.650	-1.420	-0.530
2020/01/31 18:35:56.8	75.490	0.650	-1.330	-0.490
2020/01/31 18:35:56.9	75.490	0.650	-1.230	-0.440
2020/01/31 18:35:57.0	75.490	0.630	-1.120	-0.390
2020/01/31 18:35:57.1	75.480	0.610	-1.000	-0.340
2020/01/31 18:35:57.2	75.460	0.580	-0.870	-0.290
2020/01/31 18:35:57.3	75.440	0.550	-0.740	-0.230
2020/01/31 18:35:57.4	75.420	0.510	-0.600	-0.170
2020/01/31 18:35:57.5	75.390	0.460	-0.450	-0.100
2020/01/31 18:35:57.6	75.360	0.410	-0.300	-0.040
2020/01/31 18:35:57.7	75.320	0.360	-0.150	0.030
2020/01/31 18:35:57.8	75.290	0.300	-0.000	0.100
2020/01/31 18:35:57.9	75.250	0.230	0.150	0.170
2020/01/31 18:35:58.0	75.210	0.160	0.290	0.230
2020/01/31 18:35:58.1	75.170	0.090	0.430	0.300
2020/01/31 18:35:58.2	75.120	0.020	0.570	0.360
2020/01/31 18:35:58.3	75.070	-0.050	0.700	0.430
2020/01/31 18:35:58.4	75.020	-0.130	0.830	0.490
2020/01/31 18:35:58.5	74.970	-0.200	0.940	0.550
2020/01/31 18:35:58.6	74.930	-0.280	1.050	0.600
2020/01/31 18:35:58.7	74.880	-0.350	1.140	0.650
2020/01/31 18:35:58.8	74.820	-0.420	1.230	0.700
2020/01/31 18:35:58.9	74.770	-0.490	1.300	0.740
2020/01/31 18:35:59.0	74.730	-0.550	1.360	0.780
2020/01/31 18:35:59.1	74.680	-0.620	1.400	0.820
2020/01/31 18:35:59.2	74.640	-0.670	1.430	0.840
2020/01/31 18:35:59.3	74.600	-0.730	1.450	0.870
2020/01/31 18:35:59.4	74.560	-0.770	1.450	0.890
2020/01/31 18:35:59.5	74.530	-0.810	1.440	0.900
2020/01/31 18:35:59.6	74.500	-0.850	1.420	0.910
2020/01/31 18:35:59.7	74.470	-0.880	1.380	0.920
2020/01/31 18:35:59.8	74.430	-0.900	1.330	0.910
2020/01/31 18:35:59.9	74.410	-0.910	1.270	0.900
2020/01/31 18:36:00.0	74.390	-0.920	1.190	0.890
2020/01/31 18:36:00.1	74.380	-0.920	1.100	0.870
2020/01/31 18:36:00.2	74.370	-0.910	1.000	0.850
2020/01/31 18:36:00.3	74.360	-0.900	0.890	0.820
2020/01/31 18:36:00.4	74.360	-0.870	0.770	0.780
2020/01/31 18:36:00.5	74.360	-0.840	0.640	0.740
2020/01/31 18:36:00.6	74.360	-0.810	0.510	0.700
2020/01/31 18:36:00.7	74.370	-0.760	0.370	0.650
2020/01/31 18:36:00.8	74.380	-0.710	0.220	0.600
2020/01/31 18:36:00.9	74.400	-0.660	0.070	0.550
2020/01/31 18:36:01.0	74.410	-0.600	-0.070	0.490
2020/01/31 18:36:01.1	74.430	-0.530	-0.220	0.440
2020/01/31 18:36:01.2	74.460	-0.460	-0.370	0.380
2020/01/31 18:36:01.3	74.480	-0.390	-0.510	0.320
2020/01/31 18:36:01.4	74.500	-0.310	-0.650	0.270
2020/01/31 18:36:01.5	74.530	-0.230	-0.790	0.210
2020/01/31 18:36:01.6	74.560	-0.150	-0.920	0.150
2020/01/31 18:36:01.7	74.580	-0.070	-1.040	0.100
2020/01/31 18:36:01.8	74.610	0.010	-1.150	0.050
2020/01/31 18:36:01.9	74.640	0.090	-1.250	0.000
2020/01/31 18:36:02.0	74.660	0.170	-1.340	-0.040
2020/01/31 18:36:02.1	74.680	0.240	-1.420	-0.080
2020/01/31 18:36:02.2	74.700	0.320	-1.490	-0.120
2020/01/31 18:36:02.3	74.720	0.390	-1.550	-0.160
2020/01/31 18:36:02.4	74.740	0.460	-1.590	-0.190
2020/01/31 18:36:02.5	74.750	0.520	-1.620	-0.220
2020/01/31 18:36:02.6	74.770	0.570	-1.640	-0.240
2020/01/31 18:36:02.7	74.780	0.620	-1.650	-0.260
2020/01/31 18:36:02.8	74.790	0.670	-1.640	-0.270
2020/01/31 18:36:02.9	74.790	0.700	-1.630	-0.280
2020/01/31 18:36:03.0	74.790	0.740	-1.600	-0.290
2020/01/31 18:36:03.1	74.790	0.760	-1.550	-0.290
2020/01/31 18:36:03.2	74.780	0.770	-1.500	-0.290
2020/01/31 18:36:03.3	74.770	0.780	-1.440	-0.290
2020/01/31 18:36:03.4	74.760	0.790	-1.360	-0.290
2020/01/31 18:36:03.5	74.740	0.780	-1.280	-0.280
2020/01/31 18:36:03.6	74.720	0.770	-1.190	-0.270
2020/01/31 18:36:03.7	74.700	0.750	-1.100	-0.260
2020/01/31 18:36:03.8	74.690	0.730	-0.990	-0.250
2020/01/31 18:36:03.9	74.670	0.690	-0.880	-0.240
2020/01/31 18:36:04.0	74.640	0.660	-0.770	-0.230
2020/01/31 18:36:04.1	74.610	0.620	-0.660	-0.220
2020/01/31 18:36:04.2	74.570	0.570	-0.550	-0.200
2020/01/31 18:36:04.3	74.540	0.520	-0.430	-0.190
2020/01/31 18:36:04.4	74.510	0.470	-0.320	-0.190
2020/01/31 18:36:04.5	74.470	0.410	-0.210	-0.180
2020/01/31 18:36:04.6	74.440	0.350	-0.100	-0.170
2020/01/31 18:36:04.7	74.400	0.290	0.010	-0.170
2020/01/31 18:36:04.8	74.360	0.230	0.120	-0.180
2020/01/31 18:36:04.9	74.330	0.170	0.210	-0.180
2020/01/31 18:36:05.0	74.290	0.110	0.310	-0.190
2020/01/31 18:36:05.1	74.250	0.050	0.390	-0.200
2020/01/31 18:36:05.2	74.220	-0.000	0.470	-0.210
2020/01/31 18:36:05.3	74.180	-0.060	0.540	-0.220
2020/01/31 18:36:05.4	74.150	-0.110	0.610	-0.240
2020/01/31 18:36:05.5	74.120	-0.160	0.670	-0.260
2020/01/31 18:36:05.6	74.090	-0.200	0.720	-0.280
2020/01/31 18:36:05.7	74.060	-0.240	0.760	-0.310
2020/01/31 18:36:05.8	74.040	-0.280	0.790	-0.330
2020/01/31 18:36:05.9	74.020	-0.310	0.810	-0.360
2020/01/31 18:36:06.0	73.990	-0.340	0.830	-0.390
2020/01/31 18:36:06.1	73.980	-0.360	0.830	-0.430
2020/01/31 18:36:06.2	73.960	-0.380	0.830	-0.460
2020/01/31 18:36:06.3	73.950	-0.390	0.820	-0.490
2020/01/31 18:36:06.4	73.940	-0.390	0.800	-0.530
2020/01/31 18:36:06.5	73.930	-0.400	0.770	-0.560
2020/01/31 18:36:06.6	73.920	-0.390	0.740	-0.590
2020/01/31 18:36:06.7	73.920	-0.380	0.700	-0.630
2020/01/31 18:36:06.8	73.920	-0.370	0.660	-0.660
2020/01/31 18:36:06.9	73.920	-0.360	0.600	-0.690
2020/01/31 18:36:07.0	73.920	-0.340	0.550	-0.720
2020/01/31 18:36:07.1	73.920	-0.310	0.490	-0.740
2020/01/31 18:36:07.2	73.930	-0.290	0.430	-0.770
2020/01/31 18:36:07.3	73.930	-0.260	0.360	-0.790
2020/01/31 18:36:07.4	73.940	-0.230	0.300	-0.800
2020/01/31 18:36:07.5	73.950	-0.190	0.230	-0.820
2020/01/31 18:36:07.6	73.950	-0.160	0.160	-0.830
2020/01/31 18:36:07.7	73.960	-0.120	0.090	-0.840
2020/01/31 18:36:07.8	73.960	-0.090	0.020	-0.840
2020/01/31 18:36:07.9	73.960	-0.050	-0.050	-0.840
2020/01/31 18:36:08.0	73.960	-0.020	-0.110	-0.830
2020/01/31 18:36:08.1	73.970	0.020	-0.180	-0.830
2020/01/31 18:36:08.2	73.970	0.060	-0.240	-0.810
2020/01/31 18:36:08.3	73.970	0.090	-0.300	-0.800
2020/01/31 18:36:08.4	73.960	0.120	-0.350	-0.780
2020/01/31 18:36:08.5	73.960	0.160	-0.400	-0.750
2020/01/31 18:36:08.6	73.950	0.190	-0.450	-0.720
2020/01/31 18:36:08.7	73.950	0.220	-0.490	-0.690
2020/01/31 18:36:08.8	73.930	0.240	-0.530	-0.650
2020/01/31 18:36:08.9	73.920	0.270	-0.560	-0.620
2020/01/31 18:36:09.0	73.910	0.290	-0.600	-0.580
2020/01/31 18:36:09.1	73.890	0.310	-0.620	-0.530
2020/01/31 18:36:09.2	73.880	0.330	-0.650	-0.490
2020/01/31 18:36:09.3	73.860	0.350	-0.670	-0.440
2020/01/31 18:36:09.4	73.850	0.360	-0.680	-0.390
2020/01/31 18:36:09.5	73.840	0.380	-0.700	-0.350
2020/01/31 18:36:09.6	73.820	0.390	-0.710	-0.300
2020/01/31 18:36:09.7	73.810	0.400	-0.720	-0.250
2020/01/31 18:36:09.8	73.800	0.400	-0.730	-0.200
2020/01/31 18:36:09.9	73.790	0.410	-0.740	-0.160
2020/01/31 18:36:10.0	73.790	0.420	-0.740	-0.120
2020/01/31 18:36:10.1	73.780	0.420	-0.750	-0.080
2020/01/31 18:36:10.2	73.780	0.420	-0.760	-0.040
2020/01/31 18:36:10.3	73.780	0.420	-0.770	-0.000
2020/01/31 18:36:10.4	73.790	0.420	-0.770	0.030
2020/01/31 18:36:10.5	73.800	0.420	-0.780	0.060
2020/01/31 18:36:10.6	73.810	0.420	-0.790	0.090
2020/01/31 18:36:10.7	73.820	0.410	-0.800	0.120
2020/01/31 18:36:10.8	73.830	0.410	-0.810	0.140
2020/01/31 18:36:10.9	73.850	0.410	-0.820	0.160
2020/01/31 18:36:11.0	73.870	0.400	-0.830	0.180
2020/01/31 18:36:11.1	73.900	0.400	-0.840	0.200
2020/01/31 18:36:11.2	73.920	0.390	-0.840	0.220
2020/01/31 18:36:11.3	73.950	0.390	-0.840	0.240
2020/01/31 18:36:11.4	73.980	0.380	-0.850	0.250
2020/01/31 18:36:11.5	74.010	0.370	-0.840	0.270
2020/01/31 18:36:11.6	74.040	0.360	-0.840	0.290
2020/01/31 18:36:11.7	74.070	0.350	-0.830	0.300
2020/01/31 18:36:11.8	74.100	0.340	-0.810	0.320
2020/01/31 18:36:11.9	74.130	0.330	-0.800	0.340
2020/01/31 18:36:12.0	74.160	0.320	-0.770	0.360
2020/01/31 18:36:12.1	74.180	0.300	-0.740	0.380
2020/01/31 18:36:12.2	74.210	0.280	-0.700	0.410
2020/01/31 18:36:12.3	74.240	0.260	-0.660	0.430
2020/01/31 18:36:12.4	74.260	0.240	-0.610	0.460
2020/01/31 18:36:12.5	74.280	0.220	-0.550	0.490
2020/01/31 18:36:12.6	74.290	0.200	-0.490	0.520
2020/01/31 18:36:12.7	74.310	0.170	-0.420	0.560
2020/01/31 18:36:12.8	74.320	0.140	-0.340	0.600
2020/01/31 18:36:12.9	74.330	0.110	-0.250	0.640
2020/01/31 18:36:13.0	74.330	0.070	-0.160	0.680
2020/01/31 18:36:13.1	74.320	0.040	-0.070	0.720
2020/01/31 18:36:13.2	74.320	-0.000	0.030	0.760
2020/01/31 18:36:13.3	74.310	-0.040	0.140	0.800
2020/01/31 18:36:13.4	74.290	-0.090	0.250	0.840
2020/01/31 18:36:13.5	74.270	-0.130	0.360	0.880
2020/01/31 18:36:13.6	74.250	-0.180	0.470	0.920
2020/01/31 18:36:13.7	74.220	-0.230	0.590	0.970
2020/01/31 18:36:13.8	74.180	-0.280	0.710	1.010
2020/01/31 18:36:13.9	74.150	-0.330	0.820	1.050
2020/01/31 18:36:14.0	74.100	-0.380	0.940	1.090
2020/01/31 18:36:14.1	74.060	-0.440	1.050	1.140
2020/01/31 18:36:14.2	74.010	-0.490	1.160	1.180
2020/01/31 18:36:14.3	73.960	-0.550	1.260	1.220
2020/01/31 18:36:14.4	73.900	-0.600	1.360	1.260
2020/01/31 18:36:14.5	73.840	-0.650	1.450	1.290
2020/01/31 18:36:14.6	73.780	-0.710	1.530	1.330
2020/01/31 18:36:14.7	73.720	-0.760	1.600	1.360
2020/01/31 18:36:14.8	73.660	-0.810	1.660	1.390
2020/01/31 18:36:14.9	73.600	-0.850	1.710	1.420
2020/01/31 18:36:15.0	73.530	-0.890	1.750	1.450
2020/01/31 18:36:15.1	73.470	-0.930	1.780	1.460
2020/01/31 18:36:15.2	73.410	-0.970	1.790	1.480
2020/01/31 18:36:15.3	73.350	-1.000	1.780	1.490
2020/01/31 18:36:15.4	73.290	-1.020	1.770	1.490
2020/01/31 18:36:15.5	73.240	-1.040	1.730	1.490
2020/01/31 18:36:15.6	73.190	-1.060	1.690	1.480
2020/01/31 18:36:15.7	73.140	-1.070	1.620	1.460
2020/01/31 18:36:15.8	73.090	-1.070	1.540	1.430
2020/01/31 18:36:15.9	73.060	-1.060	1.450	1.400
2020/01/31 18:36:16.0	73.030	-1.050	1.340	1.360
2020/01/31 18:36:16.1	73.000	-1.030	1.210	1.310
2020/01/31 18:36:16.2	72.980	-1.000	1.070	1.250
2020/01/31 18:36:16.3	72.970	-0.970	0.920	1.190
2020/01/31 18:36:16.4	72.970	-0.930	0.750	1.120
2020/01/31 18:36:16.5	72.970	-0.880	0.570	1.030
2020/01/31 18:36:16.6	72.980	-0.820	0.380	0.940
2020/01/31 18:36:16.7	73.000	-0.760	0.190	0.840
2020/01/31 18:36:16.8	73.030	-0.690	-0.020	0.740
2020/01/31 18:36:16.9	73.060	-0.610	-0.230	0.630
2020/01/31 18:36:17.0	73.090	-0.530	-0.440	0.510
2020/01/31 18:36:17.1	73.130	-0.450	-0.660	0.390
2020/01/31 18:36:17.2	73.170	-0.360	-0.870	0.270
2020/01/31 18:36:17.3	73.220	-0.260	-1.090	0.140
2020/01/31 18:36:17.4	73.270	-0.170	-1.300	0.010
2020/01/31 18:36:17.5	73.310	-0.070	-1.500	-0.110
2020/01/31 18:36:17.6	73.360	0.030	-1.700	-0.240
2020/01/31 18:36:17.7	73.410	0.130	-1.880	-0.360
2020/01/31 18:36:17.8	73.470	0.230	-2.070	-0.490
2020/01/31 18:36:17.9	73.520	0.330	-2.230	-0.600
2020/01/31 18:36:18.0	73.570	0.430	-2.380	-0.710
2020/01/31 18:36:18.1	73.610	0.520	-2.510	-0.820
2020/01/31 18:36:18.2	73.650	0.610	-2.630	-0.920
2020/01/31 18:36:18.3	73.690	0.700	-2.720	-1.010
2020/01/31 18:36:18.4	73.720	0.780	-2.800	-1.090
2020/01/31 18:36:18.5	73.750	0.850	-2.860	-1.170
2020/01/31 18:36:18.6	73.780	0.920	-2.890	-1.240
2020/01/31 18:36:18.7	73.800	0.980	-2.910	-1.300
2020/01/31 18:36:18.8	73.820	1.030	-2.900	-1.350
2020/01/31 18:36:18.9	73.830	1.080	-2.870	-1.390
2020/01/31 18:36:19.0	73.840	1.120	-2.820	-1.430
2020/01/31 18:36:19.1	73.850	1.140	-2.750	-1.450
2020/01/31 18:36:19.2	73.850	1.160	-2.660	-1.470
2020/01/31 18:36:19.3	73.850	1.170	-2.550	-1.480
2020/01/31 18:36:19.4	73.840	1.180	-2.420	-1.480
2020/01/31 18:36:19.5	73.830	1.170	-2.280	-1.470
2020/01/31 18:36:19.6	73.820	1.150	-2.120	-1.450
2020/01/31 18:36:19.7	73.800	1.130	-1.950	-1.430
2020/01/31 18:36:19.8	73.770	1.100	-1.760	-1.400
2020/01/31 18:36:19.9	73.750	1.060	-1.560	-1.360
2020/01/31 18:36:20.0	73.720	1.010	-1.360	-1.310
2020/01/31 18:36:20.1	73.690	0.960	-1.150	-1.260
2020/01/31 18:36:20.2	73.660	0.900	-0.940	-1.190
2020/01/31 18:36:20.3	73.630	0.840	-0.720	-1.130
2020/01/31 18:36:20.4	73.590	0.770	-0.510	-1.060
2020/01/31 18:36:20.5	73.550	0.700	-0.290	-0.980
2020/01/31 18:36:20.6	73.520	0.630	-0.080	-0.900
2020/01/31 18:36:20.7	73.480	0.550	0.120	-0.820
2020/01/31 18:36:20.8	73.440	0.480	0.320	-0.730
2020/01/31 18:36:20.9	73.400	0.400	0.520	-0.650
2020/01/31 18:36:21.0	73.360	0.320	0.700	-0.560
2020/01/31 18:36:21.1	73.310	0.240	0.870	-0.470
2020/01/31 18:36:21.2	73.270	0.170	1.030	-0.380
2020/01/31 18:36:21.3	73.230	0.090	1.180	-0.290
2020/01/31 18:36:21.4	73.180	0.020	1.320	-0.200
2020/01/31 18:36:21.5	73.140	-0.050	1.440	-0.110
2020/01/31 18:36:21.6	73.100	-0.110	1.550	-0.030
2020/01/31 18:36:21.7	73.060	-0.170	1.640	0.060
2020/01/31 18:36:21.8	73.020	-0.230	1.720	0.140
2020/01/31 18:36:21.9	72.980	-0.280	1.780	0.210
2020/01/31 18:36:22.0	72.950	-0.330	1.830	0.290
2020/01/31 18:36:22.1	72.910	-0.380	1.860	0.360
2020/01/31 18:36:22.2	72.880	-0.410	1.880	0.420
2020/01/31 18:36:22.3	72.850	-0.450	1.880	0.490
2020/01/31 18:36:22.4	72.820	-0.480	1.870	0.550
2020/01/31 18:36:22.5	72.790	-0.500	1.840	0.600
2020/01/31 18:36:22.6	72.770	-0.510	1.800	0.650
2020/01/31 18:36:22.7	72.750	-0.530	1.750	0.690
2020/01/31 18:36:22.8	72.730	-0.530	1.680	0.740
2020/01/31 18:36:22.9	72.720	-0.530	1.600	0.770
2020/01/31 18:36:23.0	72.700	-0.530	1.510	0.800
2020/01/31 18:36:23.1	72.690	-0.520	1.410	0.830
2020/01/31 18:36:23.2	72.680	-0.510	1.310	0.850
2020/01/31 18:36:23.3	72.680	-0.500	1.200	0.870
2020/01/31 18:36:23.4	72.670	-0.480	1.080	0.880
2020/01/31 18:36:23.5	72.670	-0.460	0.950	0.890
2020/01/31 18:36:23.6	72.670	-0.430	0.820	0.890
2020/01/31 18:36:23.7	72.670	-0.400	0.690	0.890
2020/01/31 18:36:23.8	72.670	-0.380	0.550	0.890
2020/01/31 18:36:23.9	72.670	-0.340	0.410	0.890
2020/01/31 18:36:24.0	72.680	-0.310	0.280	0.880
2020/01/31 18:36:24.1	72.690	-0.280	0.140	0.860
2020/01/31 18:36:24.2	72.690	-0.240	0.010	0.850
2020/01/31 18:36:24.3	72.700	-0.210	-0.120	0.830
2020/01/31 18:36:24.4	72.710	-0.180	-0.250	0.810
2020/01/31 18:36:24.5	72.710	-0.140	-0.370	0.790
2020/01/31 18:36:24.6	72.720	-0.110	-0.480	0.770
2020/01/31 18:36:24.7	72.730	-0.080	-0.590	0.750
2020/01/31 18:36:24.8	72.750	-0.050	-0.690	0.730
2020/01/31 18:36:24.9	72.750	-0.020	-0.780	0.710
2020/01/31 18:36:25.0	72.760	0.010	-0.870	0.690
2020/01/31 18:36:25.1	72.770	0.040	-0.940	0.670
2020/01/31 18:36:25.2	72.770	0.060	-1.010	0.640
2020/01/31 18:36:25.3	72.780	0.090	-1.060	0.620
2020/01/31 18:36:25.4	72.780	0.110	-1.110	0.600
2020/01/31 18:36:25.5	72.780	0.120	-1.150	0.580
2020/01/31 18:36:25.6	72.790	0.140	-1.170	0.560
2020/01/31 18:36:25.7	72.790	0.160	-1.190	0.540
2020/01/31 18:36:25.8	72.790	0.170	-1.200	0.520
2020/01/31 18:36:25.9	72.790	0.180	-1.200	0.500
2020/01/31 18:36:26.0	72.790	0.190	-1.200	0.480
2020/01/31 18:36:26.1	72.790	0.200	-1.180	0.460
2020/01/31 18:36:26.2	72.800	0.200	-1.170	0.440
2020/01/31 18:36:26.3	72.800	0.210	-1.140	0.420
2020/01/31 18:36:26.4	72.800	0.210	-1.110	0.410
2020/01/31 18:36:26.5	72.800	0.210	-1.080	0.390
2020/01/31 18:36:26.6	72.800	0.210	-1.040	0.380
2020/01/31 18:36:26.7	72.800	0.210	-1.000	0.360
2020/01/31 18:36:26.8	72.800	0.210	-0.960	0.350
2020/01/31 18:36:26.9	72.800	0.210	-0.910	0.330
2020/01/31 18:36:27.0	72.800	0.210	-0.870	0.320
2020/01/31 18:36:27.1	72.810	0.200	-0.820	0.310
2020/01/31 18:36:27.2	72.810	0.200	-0.770	0.300
2020/01/31 18:36:27.3	72.810	0.190	-0.720	0.280
2020/01/31 18:36:27.4	72.810	0.190	-0.670	0.280
2020/01/31 18:36:27.5	72.820	0.180	-0.620	0.270
2020/01/31 18:36:27.6	72.820	0.170	-0.560	0.260
2020/01/31 18:36:27.7	72.820	0.170	-0.510	0.260
2020/01/31 18:36:27.8	72.830	0.160	-0.460	0.250
2020/01/31 18:36:27.9	72.830	0.150	-0.410	0.250
2020/01/31 18:36:28.0	72.830	0.140	-0.360	0.250
2020/01/31 18:36:28.1	72.830	0.130	-0.310	0.260
2020/01/31 18:36:28.2	72.830	0.120	-0.250	0.260
2020/01/31 18:36:28.3	72.830	0.110	-0.200	0.270
2020/01/31 18:36:28.4	72.830	0.100	-0.150	0.270
2020/01/31 18:36:28.5	72.830	0.080	-0.100	0.280
2020/01/31 18:36:28.6	72.830	0.070	-0.050	0.300
2020/01/31 18:36:28.7	72.820	0.060	-0.000	0.310
2020/01/31 18:36:28.8	72.830	0.050	0.050	0.320
2020/01/31 18:36:28.9	72.820	0.030	0.090	0.340
2020/01/31 18:36:29.0	72.820	0.020	0.140	0.360
2020/01/31 18:36:29.1	72.810	0.010	0.180	0.370
2020/01/31 18:36:29.2	72.800	-0.010	0.220	0.390
2020/01/31 18:36:29.3	72.790	-0.020	0.260	0.410
2020/01/31 18:36:29.4	72.780	-0.040	0.290	0.430
2020/01/31 18:36:29.5	72.760	-0.050	0.320	0.450
2020/01/31 18:36:29.6	72.750	-0.070	0.350	0.470
2020/01/31 18:36:29.7	72.730	-0.080	0.380	0.490
2020/01/31 18:36:29.8	72.700	-0.100	0.400	0.520
2020/01/31 18:36:29.9	72.680	-0.110	0.410	0.540
2020/01/31 18:36:30.0	72.660	-0.120	0.430	0.560
2020/01/31 18:36:30.1	72.640	-0.140	0.440	0.580
2020/01/31 18:36:30.2	72.620	-0.150	0.440	0.600
2020/01/31 18:36:30.3	72.590	-0.160	0.440	0.620
2020/01/31 18:36:30.4	72.570	-0.170	0.440	0.630
2020/01/31 18:36:30.5	72.540	-0.180	0.440	0.650
2020/01/31 18:36:30.6	72.520	-0.190	0.420	0.660
2020/01/31 18:36:30.7	72.490	-0.200	0.410	0.670
2020/01/31 18:36:30.8	72.470	-0.200	0.390	0.680
2020/01/31 18:36:30.9	72.440	-0.210	0.370	0.690
2020/01/31 18:36:31.0	72.410	-0.220	0.340	0.700
2020/01/31 18:36:31.1	72.390	-0.220	0.310	0.700
2020/01/31 18:36:31.2	72.360	-0.220	0.280	0.700
2020/01/31 18:36:31.3	72.340	-0.220	0.250	0.700
2020/01/31 18:36:31.4	72.310	-0.220	0.210	0.690
2020/01/31 18:36:31.5	72.290	-0.220	0.170	0.690
2020/01/31 18:36:31.6	72.270	-0.220	0.130	0.680
2020/01/31 18:36:31.7	72.240	-0.220	0.090	0.660
2020/01/31 18:36:31.8	72.230	-0.210	0.050	0.650
2020/01/31 18:36:31.9	72.200	-0.200	0.010	0.630
2020/01/31 18:36:32.0	72.180	-0.190	-0.040	0.610
2020/01/31 18:36:32.1	72.160	-0.190	-0.080	0.590
2020/01/31 18:36:32.2	72.140	-0.170	-0.130	0.560
2020/01/31 18:36:32.3	72.120	-0.160	-0.170	0.540
2020/01/31 18:36:32.4	72.100	-0.150	-0.220	0.510
2020/01/31 18:36:32.5	72.090	-0.130	-0.260	0.480
2020/01/31 18:36:32.6	72.070	-0.110	-0.310	0.440
2020/01/31 18:36:32.7	72.060	-0.100	-0.350	0.410
2020/01/31 18:36:32.8	72.050	-0.070	-0.400	0.370
2020/01/31 18:36:32.9	72.040	-0.050	-0.440	0.330
2020/01/31 18:36:33.0	72.030	-0.030	-0.490	0.290
2020/01/31 18:36:33.1	72.020	-0.010	-0.530	0.250
2020/01/31 18:36:33.2	72.010	0.020	-0.580	0.200
2020/01/31 18:36:33.3	72.000	0.040	-0.620	0.160
2020/01/31 18:36:33.4	72.000	0.070	-0.670	0.110
2020/01/31 18:36:33.5	71.990	0.100	-0.710	0.060
2020/01/31 18:36:33.6	71.990	0.130	-0.750	0.010
2020/01/31 18:36:33.7	71.990	0.160	-0.790	-0.050
2020/01/31 18:36:33.8	72.000	0.190	-0.830	-0.100
2020/01/31 18:36:33.9	72.000	0.220	-0.860	-0.150
2020/01/31 18:36:34.0	72.000	0.250	-0.900	-0.210
2020/01/31 18:36:34.1	72.010	0.270	-0.930	-0.260
2020/01/31 18:36:34.2	72.020	0.300	-0.970	-0.320
2020/01/31 18:36:34.3	72.030	0.330	-0.990	-0.380
2020/01/31 18:36:34.4	72.030	0.360	-1.020	-0.430
2020/01/31 18:36:34.5	72.040	0.390	-1.040	-0.490
2020/01/31 18:36:34.6	72.050	0.410	-1.060	-0.540
2020/01/31 18:36:34.7	72.060	0.430	-1.070	-0.590
2020/01/31 18:36:34.8	72.070	0.460	-1.080	-0.640
2020/01/31 18:36:34.9	72.080	0.480	-1.080	-0.690
2020/01/31 18:36:35.0	72.090	0.490	-1.080	-0.740
2020/01/31 18:36:35.1	72.100	0.510	-1.070	-0.780
2020/01/31 18:36:35.2	72.100	0.520	-1.060	-0.820
2020/01/31 18:36:35.3	72.110	0.530	-1.040	-0.860
2020/01/31 18:36:35.4	72.120	0.540	-1.010	-0.900
2020/01/31 18:36:35.5	72.120	0.540	-0.980	-0.930
2020/01/31 18:36:35.6	72.130	0.540	-0.940	-0.970
2020/01/31 18:36:35.7	72.130	0.540	-0.900	-0.990
2020/01/31 18:36:35.8	72.130	0.530	-0.840	-1.020
2020/01/31 18:36:35.9	72.130	0.520	-0.790	-1.040
2020/01/31 18:36:36.0	72.130	0.510	-0.720	-1.050
2020/01/31 18:36:36.1	72.130	0.490	-0.660	-1.070
2020/01/31 18:36:36.2	72.130	0.480	-0.580	-1.070
2020/01/31 18:36:36.3	72.120	0.460	-0.510	-1.080
2020/01/31 18:36:36.4	72.120	0.430	-0.430	-1.080
2020/01/31 18:36:36.5	72.110	0.410	-0.340	-1.080
2020/01/31 18:36:36.6	72.100	0.380	-0.250	-1.070
2020/01/31 18:36:36.7	72.100	0.350	-0.160	-1.060
2020/01/31 18:36:36.8	72.090	0.310	-0.070	-1.040
2020/01/31 18:36:36.9	72.080	0.280	0.020	-1.030
2020/01/31 18:36:37.0	72.070	0.240	0.110	-1.010
2020/01/31 18:36:37.1	72.060	0.210	0.200	-0.980
2020/01/31 18:36:37.2	72.050	0.170	0.300	-0.960
2020/01/31 18:36:37.3	72.030	0.130	0.380	-0.930
2020/01/31 18:36:37.4	72.020	0.090	0.470	-0.900
2020/01/31 18:36:37.5	72.010	0.050	0.550	-0.870
2020/01/31 18:36:37.6	72.000	0.010	0.630	-0.830
2020/01/31 18:36:37.7	71.990	-0.030	0.700	-0.790
2020/01/31 18:36:37.8	71.970	-0.060	0.770	-0.760
2020/01/31 18:36:37.9	71.960	-0.100	0.830	-0.720
2020/01/31 18:36:38.0	71.950	-0.140	0.890	-0.680
2020/01/31 18:36:38.1	71.940	-0.170	0.940	-0.630
2020/01/31 18:36:38.2	71.930	-0.210	0.980	-0.590
2020/01/31 18:36:38.3	71.920	-0.240	1.020	-0.540
2020/01/31 18:36:38.4	71.910	-0.270	1.050	-0.500
2020/01/31 18:36:38.5	71.900	-0.300	1.070	-0.450
2020/01/31 18:36:38.6	71.890	-0.320	1.080	-0.400
2020/01/31 18:36:38.7	71.890	-0.350	1.090	-0.350
2020/01/31 18:36:38.8	71.890	-0.370	1.090	-0.300
2020/01/31 18:36:38.9	71.890	-0.390	1.080	-0.250
2020/01/31 18:36:39.0	71.880	-0.400	1.070	-0.200
2020/01/31 18:36:39.1	71.880	-0.420	1.040	-0.150
2020/01/31 18:36:39.2	71.880	-0.430	1.010	-0.100
2020/01/31 18:36:39.3	71.870	-0.440	0.970	-0.050
2020/01/31 18:36:39.4	71.870	-0.450	0.930	-0.000
2020/01/31 18:36:39.5	71.870	-0.460	0.880	0.050
2020/01/31 18:36:39.6	71.880	-0.460	0.820	0.100
2020/01/31 18:36:39.7	71.880	-0.460	0.760	0.150
2020/01/31 18:36:39.8	71.880	-0.460	0.690	0.200
2020/01/31 18:36:39.9	71.880	-0.460	0.620	0.250
2020/01/31 18:36:40.0	71.890	-0.450	0.550	0.300
2020/01/31 18:36:40.1	71.890	-0.450	0.470	0.350
2020/01/31 18:36:40.2	71.900	-0.440	0.390	0.400
2020/01/31 18:36:40.3	71.900	-0.430	0.300	0.450
2020/01/31 18:36:40.4	71.910	-0.420	0.220	0.500
2020/01/31 18:36:40.5	71.920	-0.410	0.130	0.540
2020/01/31 18:36:40.6	71.930	-0.400	0.040	0.590
2020/01/31 18:36:40.7	71.930	-0.380	-0.040	0.630
2020/01/31 18:36:40.8	71.930	-0.370	-0.130	0.670
2020/01/31 18:36:40.9	71.940	-0.350	-0.220	0.710
2020/01/31 18:36:41.0	71.950	-0.330	-0.300	0.750
2020/01/31 18:36:41.1	71.960	-0.320	-0.380	0.790
2020/01/31 18:36:41.2	71.970	-0.300	-0.470	0.820
2020/01/31 18:36:41.3	71.980	-0.280	-0.550	0.850
2020/01/31 18:36:41.4	72.000	-0.260	-0.620	0.880
2020/01/31 18:36:41.5	72.010	-0.240	-0.700	0.900
2020/01/31 18:36:41.6	72.020	-0.220	-0.770	0.920
2020/01/31 18:36:41.7	72.040	-0.200	-0.840	0.940
2020/01/31 18:36:41.8	72.060	-0.180	-0.900	0.960
2020/01/31 18:36:41.9	72.070	-0.160	-0.970	0.970
2020/01/31 18:36:42.0	72.090	-0.140	-1.020	0.980
2020/01/31 18:36:42.1	72.100	-0.120	-1.080	0.990
2020/01/31 18:36:42.2	72.110	-0.100	-1.130	1.000
2020/01/31 18:36:42.3	72.130	-0.080	-1.170	1.000
2020/01/31 18:36:42.4	72.140	-0.060	-1.210	1.000
2020/01/31 18:36:42.5	72.150	-0.040	-1.240	1.000
2020/01/31 18:36:42.6	72.170	-0.020	-1.270	1.000
2020/01/31 18:36:42.7	72.180	-0.010	-1.290	1.000
2020/01/31 18:36:42.8	72.190	0.010	-1.310	0.990
2020/01/31 18:36:42.9	72.200	0.030	-1.320	0.980
2020/01/31 18:36:43.0	72.210	0.040	-1.320	0.970
2020/01/31 18:36:43.1	72.220	0.060	-1.320	0.960
2020/01/31 18:36:43.2	72.220	0.070	-1.310	0.950
2020/01/31 18:36:43.3	72.230	0.080	-1.290	0.930
2020/01/31 18:36:43.4	72.230	0.090	-1.270	0.920
2020/01/31 18:36:43.5	72.230	0.100	-1.240	0.900
2020/01/31 18:36:43.6	72.230	0.110	-1.200	0.880
2020/01/31 18:36:43.7	72.220	0.120	-1.160	0.870
2020/01/31 18:36:43.8	72.220	0.130	-1.100	0.850
2020/01/31 18:36:43.9	72.210	0.140	-1.050	0.830
2020/01/31 18:36:44.0	72.200	0.150	-0.990	0.820
2020/01/31 18:36:44.1	72.190	0.150	-0.930	0.800
2020/01/31 18:36:44.2	72.180	0.160	-0.860	0.790
2020/01/31 18:36:44.3	72.160	0.160	-0.780	0.770
2020/01/31 18:36:44.4	72.150	0.170	-0.710	0.760
2020/01/31 18:36:44.5	72.130	0.170	-0.630	0.750
2020/01/31 18:36:44.6	72.110	0.170	-0.540	0.740
2020/01/31 18:36:44.7	72.090	0.170	-0.460	0.730
2020/01/31 18:36:44.8	72.070	0.170	-0.380	0.720
2020/01/31 18:36:44.9	72.040	0.170	-0.290	0.710
2020/01/31 18:36:45.0	72.020	0.170	-0.200	0.710
2020/01/31 18:36:45.1	71.990	0.160	-0.120	0.700
2020/01/31 18:36:45.2	71.960	0.160	-0.040	0.690
2020/01/31 18:36:45.3	71.940	0.150	0.040	0.680
2020/01/31 18:36:45.4	71.910	0.150	0.120	0.680
2020/01/31 18:36:45.5	71.880	0.140	0.190	0.670
2020/01/31 18:36:45.6	71.850	0.130	0.260	0.660
2020/01/31 18:36:45.7	71.820	0.130	0.330	0.650
2020/01/31 18:36:45.8	71.780	0.120	0.390	0.640
2020/01/31 18:36:45.9	71.750	0.110	0.450	0.620
2020/01/31 18:36:46.0	71.710	0.100	0.500	0.610
2020/01/31 18:36:46.1	71.680	0.090	0.540	0.590
2020/01/31 18:36:46.2	71.650	0.080	0.580	0.570
2020/01/31 18:36:46.3	71.620	0.070	0.610	0.550
2020/01/31 18:36:46.4	71.590	0.060	0.640	0.520
2020/01/31 18:36:46.5	71.570	0.050	0.660	0.490
2020/01/31 18:36:46.6	71.540	0.040	0.680	0.460
2020/01/31 18:36:46.7	71.510	0.030	0.690	0.420
2020/01/31 18:36:46.8	71.490	0.020	0.690	0.380
2020/01/31 18:36:46.9	71.470	0.020	0.690	0.330
2020/01/31 18:36:47.0	71.450	0.010	0.680	0.290
2020/01/31 18:36:47.1	71.440	0.010	0.660	0.230
2020/01/31 18:36:47.2	71.430	0.010	0.640	0.180
2020/01/31 18:36:47.3	71.420	0.010	0.620	0.120
2020/01/31 18:36:47.4	71.410	0.010	0.580	0.050
2020/01/31 18:36:47.5	71.410	0.010	0.550	-0.020
2020/01/31 18:36:47.6	71.410	0.010	0.510	-0.090
2020/01/31 18:36:47.7	71.410	0.020	0.460	-0.160
2020/01/31 18:36:47.8	71.420	0.030	0.410	-0.250
2020/01/31 18:36:47.9	71.430	0.040	0.350	-0.330
2020/01/31 18:36:48.0	71.450	0.050	0.300	-0.410
2020/01/31 18:36:48.1	71.470	0.060	0.230	-0.500
2020/01/31 18:36:48.2	71.490	0.070	0.170	-0.590
2020/01/31 18:36:48.3	71.510	0.090	0.100	-0.680
2020/01/31 18:36:48.4	71.540	0.100	0.030	-0.770
2020/01/31 18:36:48.5	71.570	0.120	-0.040	-0.860
2020/01/31 18:36:48.6	71.600	0.140	-0.120	-0.950
2020/01/31 18:36:48.7	71.630	0.160	-0.190	-1.040
2020/01/31 18:36:48.8	71.650	0.180	-0.270	-1.130
2020/01/31 18:36:48.9	71.690	0.200	-0.340	-1.220
2020/01/31 18:36:49.0	71.720	0.220	-0.420	-1.300
2020/01/31 18:36:49.1	71.760	0.230	-0.490	-1.380
2020/01/31 18:36:49.2	71.800	0.250	-0.560	-1.460
2020/01/31 18:36:49.3	71.830	0.270	-0.620	-1.530
2020/01/31 18:36:49.4	71.870	0.280	-0.680	-1.600
2020/01/31 18:36:49.5	71.910	0.300	-0.740	-1.660
2020/01/31 18:36:49.6	71.950	0.310	-0.790	-1.720
2020/01/31 18:36:49.7	71.980	0.320	-0.840	-1.770
2020/01/31 18:36:49.8	72.010	0.330	-0.880	-1.820
2020/01/31 18:36:49.9	72.040	0.330	-0.910	-1.850
2020/01/31 18:36:50.0	72.070	0.330	-0.940	-1.880
2020/01/31 18:36:50.1	72.100	0.330	-0.950	-1.910
2020/01/31 18:36:50.2	72.120	0.330	-0.960	-1.920
2020/01/31 18:36:50.3	72.140	0.330	-0.960	-1.930
2020/01/31 18:36:50.4	72.160	0.320	-0.960	-1.930
2020/01/31 18:36:50.5	72.170	0.300	-0.940	-1.920
2020/01/31 18:36:50.6	72.180	0.290	-0.920	-1.910
2020/01/31 18:36:50.7	72.190	0.270	-0.890	-1.890
2020/01/31 18:36:50.8	72.200	0.250	-0.840	-1.860
2020/01/31 18:36:50.9	72.200	0.220	-0.800	-1.820
2020/01/31 18:36:51.0	72.200	0.190	-0.750	-1.780
2020/01/31 18:36:51.1	72.190	0.160	-0.690	-1.740
2020/01/31 18:36:51.2	72.180	0.130	-0.630	-1.680
2020/01/31 18:36:51.3	72.170	0.100	-0.560	-1.630
2020/01/31 18:36:51.4	72.150	0.060	-0.490	-1.570
2020/01/31 18:36:51.5	72.140	0.020	-0.420	-1.500
2020/01/31 18:36:51.6	72.120	-0.020	-0.340	-1.440
2020/01/31 18:36:51.7	72.100	-0.060	-0.260	-1.360
2020/01/31 18:36:51.8	72.080	-0.110	-0.180	-1.290
2020/01/31 18:36:51.9	72.060	-0.150	-0.100	-1.210
2020/01/31 18:36:52.0	72.040	-0.190	-0.020	-1.140
2020/01/31 18:36:52.1	72.020	-0.240	0.050	-1.060
2020/01/31 18:36:52.2	71.990	-0.280	0.130	-0.980
2020/01/31 18:36:52.3	71.970	-0.320	0.200	-0.900
2020/01/31 18:36:52.4	71.950	-0.360	0.270	-0.810
2020/01/31 18:36:52.5	71.920	-0.400	0.340	-0.730
2020/01/31 18:36:52.6	71.900	-0.430	0.390	-0.650
2020/01/31 18:36:52.7	71.880	-0.460	0.450	-0.570
2020/01/31 18:36:52.8	71.860	-0.490	0.500	-0.490
2020/01/31 18:36:52.9	71.850	-0.520	0.540	-0.410
2020/01/31 18:36:53.0	71.830	-0.540	0.570	-0.330
2020/01/31 18:36:53.1	71.820	-0.560	0.590	-0.250
2020/01/31 18:36:53.2	71.820	-0.570	0.610	-0.180
2020/01/31 18:36:53.3	71.810	-0.580	0.620	-0.110
2020/01/31 18:36:53.4	71.810	-0.590	0.620	-0.040
2020/01/31 18:36:53.5	71.810	-0.590	0.610	0.030
2020/01/31 18:36:53.6	71.810	-0.590	0.600	0.100
2020/01/31 18:36:53.7	71.820	-0.580	0.570	0.160
2020/01/31 18:36:53.8	71.830	-0.570	0.540	0.220
2020/01/31 18:36:53.9	71.850	-0.560	0.500	0.280
2020/01/31 18:36:54.0	71.860	-0.540	0.450	0.340
2020/01/31 18:36:54.1	71.880	-0.520	0.400	0.390
2020/01/31 18:36:54.2	71.900	-0.490	0.340	0.440
2020/01/31 18:36:54.3	71.930	-0.470	0.270	0.490
2020/01/31 18:36:54.4	71.950	-0.440	0.200	0.540
2020/01/31 18:36:54.5	71.980	-0.400	0.130	0.590
2020/01/31 18:36:54.6	72.010	-0.370	0.050	0.630
2020/01/31 18:36:54.7	72.040	-0.340	-0.020	0.670
2020/01/31 18:36:54.8	72.070	-0.300	-0.110	0.720
2020/01/31 18:36:54.9	72.100	-0.260	-0.190	0.760
2020/01/31 18:36:55.0	72.130	-0.230	-0.260	0.790
2020/01/31 18:36:55.1	72.160	-0.190	-0.340	0.830
2020/01/31 18:36:55.2	72.190	-0.150	-0.410	0.870
2020/01/31 18:36:55.3	72.210	-0.120	-0.480	0.900
2020/01/31 18:36:55.4	72.240	-0.080	-0.540	0.930
2020/01/31 18:36:55.5	72.270	-0.050	-0.600	0.970
2020/01/31 18:36:55.6	72.290	-0.010	-0.650	1.000
2020/01/31 18:36:55.7	72.310	0.020	-0.700	1.030
2020/01/31 18:36:55.8	72.320	0.040	-0.730	1.060
2020/01/31 18:36:55.9	72.340	0.070	-0.760	1.080
2020/01/31 18:36:56.0	72.350	0.090	-0.780	1.110
2020/01/31 18:36:56.1	72.370	0.120	-0.800	1.140
2020/01/31 18:36:56.2	72.370	0.130	-0.800	1.170
2020/01/31 18:36:56.3	72.380	0.150	-0.800	1.200
2020/01/31 18:36:56.4	72.380	0.160	-0.790	1.220
2020/01/31 18:36:56.5	72.380	0.170	-0.770	1.250
2020/01/31 18:36:56.6	72.370	0.180	-0.740	1.270
2020/01/31 18:36:56.7	72.370	0.190	-0.710	1.300
2020/01/31 18:36:56.8	72.350	0.190	-0.670	1.320
2020/01/31 18:36:56.9	72.340	0.190	-0.620	1.350
2020/01/31 18:36:57.0	72.320	0.190	-0.570	1.370
2020/01/31 18:36:57.1	72.310	0.180	-0.510	1.390
2020/01/31 18:36:57.2	72.280	0.170	-0.450	1.410
2020/01/31 18:36:57.3	72.260	0.170	-0.390	1.430
2020/01/31 18:36:57.4	72.240	0.150	-0.320	1.450
2020/01/31 18:36:57.5	72.210	0.140	-0.250	1.460
2020/01/31 18:36:57.6	72.190	0.130	-0.180	1.470
2020/01/31 18:36:57.7	72.160	0.110	-0.110	1.480
2020/01/31 18:36:57.8	72.130	0.090	-0.040	1.480
2020/01/31 18:36:57.9	72.100	0.080	0.030	1.480
2020/01/31 18:36:58.0	72.070	0.060	0.090	1.480
2020/01/31 18:36:58.1	72.040	0.040	0.150	1.470
2020/01/31 18:36:58.2	72.000	0.020	0.200	1.460
2020/01/31 18:36:58.3	71.970	0.000	0.250	1.450
2020/01/31 18:36:58.4	71.940	-0.020	0.300	1.430
2020/01/31 18:36:58.5	71.910	-0.040	0.330	1.400
2020/01/31 18:36:58.6	71.880	-0.050	0.360	1.370
2020/01/31 18:36:58.7	71.850	-0.070	0.390	1.330
2020/01/31 18:36:58.8	71.810	-0.080	0.400	1.290
2020/01/31 18:36:58.9	71.780	-0.100	0.410	1.240
2020/01/31 18:36:59.0	71.760	-0.110	0.410	1.180
2020/01/31 18:36:59.1	71.740	-0.110	0.400	1.120
2020/01/31 18:36:59.2	71.710	-0.120	0.390	1.060
2020/01/31 18:36:59.3	71.700	-0.120	0.370	0.990
2020/01/31 18:36:59.4	71.680	-0.130	0.330	0.910
2020/01/31 18:36:59.5	71.670	-0.120	0.300	0.840
2020/01/31 18:36:59.6	71.660	-0.120	0.250	0.750
2020/01/31 18:36:59.7	71.650	-0.110	0.200	0.660
2020/01/31 18:36:59.8	71.640	-0.100	0.150	0.570
2020/01/31 18:36:59.9	71.640	-0.090	0.090	0.480
2020/01/31 18:37:00.0	71.640	-0.070	0.020	0.380
2020/01/31 18:37:00.1	71.650	-0.050	-0.050	0.280
2020/01/31 18:37:00.2	71.670	-0.030	-0.130	0.180
2020/01/31 18:37:00.3	71.680	-0.010	-0.200	0.080
2020/01/31 18:37:00.4	71.700	0.020	-0.280	-0.020
2020/01/31 18:37:00.5	71.730	0.050	-0.360	-0.130
2020/01/31 18:37:00.6	71.750	0.080	-0.450	-0.230
2020/01/31 18:37:00.7	71.790	0.110	-0.530	-0.340
2020/01/31 18:37:00.8	71.830	0.140	-0.610	-0.440
2020/01/31 18:37:00.9	71.860	0.170	-0.690	-0.540
2020/01/31 18:37:01.0	71.900	0.210	-0.760	-0.640
2020/01/31 18:37:01.1	71.950	0.240	-0.840	-0.740
2020/01/31 18:37:01.2	71.990	0.270	-0.900	-0.840
2020/01/31 18:37:01.3	72.030	0.310	-0.970	-0.940
2020/01/31 18:37:01.4	72.080	0.340	-1.020	-1.040
2020/01/31 18:37:01.5	72.130	0.360	-1.070	-1.130
2020/01/31 18:37:01.6	72.170	0.390	-1.120	-1.220
2020/01/31 18:37:01.7	72.220	0.410	-1.150	-1.300
2020/01/31 18:37:01.8	72.250	0.430	-1.170	-1.380
2020/01/31 18:37:01.9	72.300	0.450	-1.190	-1.460
2020/01/31 18:37:02.0	72.330	0.460	-1.200	-1.530
2020/01/31 18:37:02.1	72.370	0.470	-1.200	-1.600
2020/01/31 18:37:02.2	72.400	0.480	-1.190	-1.670
2020/01/31 18:37:02.3	72.430	0.480	-1.180	-1.730
2020/01/31 18:37:02.4	72.460	0.470	-1.150	-1.780
2020/01/31 18:37:02.5	72.480	0.470	-1.120	-1.830
2020/01/31 18:37:02.6	72.500	0.450	-1.070	-1.880
2020/01/31 18:37:02.7	72.510	0.440	-1.020	-1.910
2020/01/31 18:37:02.8	72.540	0.420	-0.960	-1.940
2020/01/31 18:37:02.9	72.550	0.390	-0.900	-1.970
2020/01/31 18:37:03.0	72.550	0.360	-0.820	-1.990
2020/01/31 18:37:03.1	72.550	0.330	-0.740	-2.000
2020/01/31 18:37:03.2	72.550	0.300	-0.650	-2.010
2020/01/31 18:37:03.3	72.540	0.260	-0.560	-2.010
2020/01/31 18:37:03.4	72.530	0.220	-0.460	-2.000
2020/01/31 18:37:03.5	72.510	0.180	-0.360	-1.990
2020/01/31 18:37:03.6	72.500	0.130	-0.260	-1.970
2020/01/31 18:37:03.7	72.480	0.080	-0.160	-1.950
2020/01/31 18:37:03.8	72.470	0.040	-0.050	-1.920
2020/01/31 18:37:03.9	72.450	-0.010	0.050	-1.890
2020/01/31 18:37:04.0	72.430	-0.060	0.160	-1.850
2020/01/31 18:37:04.1	72.410	-0.110	0.260	-1.800
2020/01/31 18:37:04.2	72.390	-0.160	0.360	-1.750
2020/01/31 18:37:04.3	72.370	-0.200	0.450	-1.700
2020/01/31 18:37:04.4	72.340	-0.250	0.540	-1.640
2020/01/31 18:37:04.5	72.320	-0.290	0.630	-1.570
2020/01/31 18:37:04.6	72.300	-0.340	0.710	-1.510
2020/01/31 18:37:04.7	72.280	-0.380	0.790	-1.440
2020/01/31 18:37:04.8	72.260	-0.410	0.850	-1.360
2020/01/31 18:37:04.9	72.230	-0.450	0.910	-1.280
2020/01/31 18:37:05.0	72.210	-0.480	0.970	-1.200
2020/01/31 18:37:05.1	72.190	-0.510	1.020	-1.120
2020/01/31 18:37:05.2	72.170	-0.530	1.060	-1.040
2020/01/31 18:37:05.3	72.150	-0.560	1.090	-0.950
2020/01/31 18:37:05.4	72.130	-0.570	1.120	-0.860
2020/01/31 18:37:05.5	72.110	-0.590	1.140	-0.780
2020/01/31 18:37:05.6	72.090	-0.600	1.140	-0.690
2020/01/31 18:37:05.7	72.070	-0.610	1.140	-0.610
2020/01/31 18:37:05.8	72.060	-0.610	1.140	-0.520
2020/01/31 18:37:05.9	72.050	-0.610	1.120	-0.430
2020/01/31 18:37:06.0	72.030	-0.610	1.100	-0.350
2020/01/31 18:37:06.1	72.020	-0.600	1.070	-0.270
2020/01/31 18:37:06.2	72.010	-0.590	1.030	-0.190
2020/01/31 18:37:06.3	72.000	-0.570	0.990	-0.120
2020/01/31 18:37:06.4	72.000	-0.560	0.930	-0.040
2020/01/31 18:37:06.5	71.990	-0.530	0.870	0.030
2020/01/31 18:37:06.6	71.990	-0.510	0.810	0.100
2020/01/31 18:37:06.7	71.990	-0.480	0.740	0.160
2020/01/31 18:37:06.8	72.000	-0.450	0.660	0.230
2020/01/31 18:37:06.9	72.000	-0.420	0.570	0.290
2020/01/31 18:37:07.0	72.010	-0.390	0.490	0.340
2020/01/31 18:37:07.1	72.020	-0.350	0.400	0.400
2020/01/31 18:37:07.2	72.040	-0.310	0.300	0.440
2020/01/31 18:37:07.3	72.060	-0.270	0.200	0.490
2020/01/31 18:37:07.4	72.080	-0.230	0.100	0.530
2020/01/31 18:37:07.5	72.100	-0.190	-0.000	0.570
2020/01/31 18:37:07.6	72.130	-0.150	-0.110	0.600
2020/01/31 18:37:07.7	72.160	-0.110	-0.210	0.630
2020/01/31 18:37:07.8	72.190	-0.070	-0.320	0.660
2020/01/31 18:37:07.9	72.220	-0.030	-0.420	0.680
2020/01/31 18:37:08.0	72.260	0.020	-0.520	0.700
2020/01/31 18:37:08.1	72.310	0.060	-0.630	0.720
2020/01/31 18:37:08.2	72.350	0.100	-0.720	0.730
2020/01/31 18:37:08.3	72.400	0.140	-0.820	0.740
2020/01/31 18:37:08.4	72.440	0.170	-0.910	0.750
2020/01/31 18:37:08.5	72.490	0.210	-1.000	0.750
2020/01/31 18:37:08.6	72.540	0.240	-1.080	0.760
2020/01/31 18:37:08.7	72.590	0.280	-1.150	0.760
2020/01/31 18:37:08.8	72.650	0.310	-1.220	0.750
2020/01/31 18:37:08.9	72.700	0.330	-1.280	0.750
2020/01/31 18:37:09.0	72.750	0.360	-1.340	0.750
2020/01/31 18:37:09.1	72.800	0.380	-1.390	0.740
2020/01/31 18:37:09.2	72.840	0.400	-1.420	0.730
2020/01/31 18:37:09.3	72.890	0.420	-1.450	0.730
2020/01/31 18:37:09.4	72.930	0.440	-1.480	0.720
2020/01/31 18:37:09.5	72.970	0.450	-1.490	0.720
2020/01/31 18:37:09.6	73.000	0.460	-1.490	0.710
2020/01/31 18:37:09.7	73.040	0.470	-1.490	0.710
2020/01/31 18:37:09.8	73.050	0.470	-1.470	0.710
2020/01/31 18:37:09.9	73.080	0.470	-1.440	0.710
2020/01/31 18:37:10.0	73.100	0.470	-1.410	0.710
2020/01/31 18:37:10.1	73.120	0.460	-1.370	0.710
2020/01/31 18:37:10.2	73.130	0.450	-1.330	0.720
2020/01/31 18:37:10.3	73.140	0.440	-1.270	0.730
2020/01/31 18:37:10.4	73.150	0.430	-1.210	0.740
2020/01/31 18:37:10.5	73.150	0.410	-1.150	0.750
2020/01/31 18:37:10.6	73.150	0.390	-1.080	0.770
2020/01/31 18:37:10.7	73.140	0.370	-1.000	0.790
2020/01/31 18:37:10.8	73.140	0.340	-0.920	0.820
2020/01/31 18:37:10.9	73.130	0.320	-0.840	0.850
2020/01/31 18:37:11.0	73.110	0.290	-0.750	0.880
2020/01/31 18:37:11.1	73.090	0.260	-0.660	0.910
2020/01/31 18:37:11.2	73.070	0.230	-0.570	0.950
2020/01/31 18:37:11.3	73.040	0.200	-0.480	0.990
2020/01/31 18:37:11.4	73.010	0.170	-0.400	1.030
2020/01/31 18:37:11.5	72.980	0.140	-0.310	1.080
2020/01/31 18:37:11.6	72.950	0.110	-0.220	1.120
2020/01/31 18:37:11.7	72.910	0.070	-0.140	1.170
2020/01/31 18:37:11.8	72.860	0.040	-0.050	1.220
2020/01/31 18:37:11.9	72.830	0.010	0.020	1.270
2020/01/31 18:37:12.0	72.790	-0.020	0.100	1.310
2020/01/31 18:37:12.1	72.750	-0.040	0.170	1.360
2020/01/31 18:37:12.2	72.720	-0.070	0.230	1.400
2020/01/31 18:37:12.3	72.680	-0.100	0.300	1.440
2020/01/31 18:37:12.4	72.650	-0.120	0.350	1.480
2020/01/31 18:37:12.5	72.620	-0.140	0.400	1.510
2020/01/31 18:37:12.6	72.590	-0.160	0.440	1.530
2020/01/31 18:37:12.7	72.560	-0.180	0.480	1.560
2020/01/31 18:37:12.8	72.540	-0.200	0.520	1.570
2020/01/31 18:37:12.9	72.510	-0.220	0.540	1.580
2020/01/31 18:37:13.0	72.490	-0.230	0.560	1.590
2020/01/31 18:37:13.1	72.470	-0.240	0.580	1.590
2020/01/31 18:37:13.2	72.450	-0.250	0.590	1.580
2020/01/31 18:37:13.3	72.430	-0.260	0.600	1.570
2020/01/31 18:37:13.4	72.420	-0.270	0.600	1.550
2020/01/31 18:37:13.5	72.400	-0.280	0.600	1.520
2020/01/31 18:37:13.6	72.390	-0.280	0.590	1.490
2020/01/31 18:37:13.7	72.380	-0.280	0.580	1.450
2020/01/31 18:37:13.8	72.380	-0.290	0.570	1.410
2020/01/31 18:37:13.9	72.380	-0.290	0.550	1.370
2020/01/31 18:37:14.0	72.370	-0.290	0.540	1.310
2020/01/31 18:37:14.1	72.370	-0.290	0.520	1.260
2020/01/31 18:37:14.2	72.360	-0.280	0.500	1.200
2020/01/31 18:37:14.3	72.360	-0.280	0.480	1.130
2020/01/31 18:37:14.4	72.360	-0.280	0.460	1.060
2020/01/31 18:37:14.5	72.360	-0.270	0.430	0.980
2020/01/31 18:37:14.6	72.360	-0.270	0.410	0.900
2020/01/31 18:37:14.7	72.370	-0.260	0.380	0.820
2020/01/31 18:37:14.8	72.370	-0.250	0.360	0.740
2020/01/31 18:37:14.9	72.370	-0.240	0.340	0.650
2020/01/31 18:37:15.0	72.380	-0.240	0.310	0.560
2020/01/31 18:37:15.1	72.380	-0.230	0.290	0.470
2020/01/31 18:37:15.2	72.390	-0.220	0.260	0.370
2020/01/31 18:37:15.3	72.400	-0.210	0.240	0.270
2020/01/31 18:37:15.4	72.400	-0.200	0.210	0.170
2020/01/31 18:37:15.5	72.410	-0.180	0.180	0.070
2020/01/31 18:37:15.6	72.420	-0.170	0.150	-0.030
2020/01/31 18:37:15.7	72.430	-0.160	0.130	-0.130
2020/01/31 18:37:15.8	72.430	-0.140	0.100	-0.240
2020/01/31 18:37:15.9	72.440	-0.130	0.070	-0.340
2020/01/31 18:37:16.0	72.450	-0.110	0.040	-0.450
2020/01/31 18:37:16.1	72.460	-0.090	0.000	-0.560
2020/01/31 18:37:16.2	72.480	-0.080	-0.030	-0.660
2020/01/31 18:37:16.3	72.490	-0.060	-0.070	-0.770
2020/01/31 18:37:16.4	72.510	-0.040	-0.110	-0.880
2020/01/31 18:37:16.5	72.530	-0.010	-0.150	-0.990
2020/01/31 18:37:16.6	72.550	0.010	-0.200	-1.090
2020/01/31 18:37:16.7	72.580	0.030	-0.240	-1.200
2020/01/31 18:37:16.8	72.590	0.050	-0.290	-1.310
2020/01/31 18:37:16.9	72.620	0.080	-0.340	-1.410
2020/01/31 18:37:17.0	72.650	0.100	-0.390	-1.510
2020/01/31 18:37:17.1	72.680	0.130	-0.440	-1.610
2020/01/31 18:37:17.2	72.710	0.150	-0.490	-1.700
2020/01/31 18:37:17.3	72.740	0.180	-0.540	-1.800
2020/01/31 18:37:17.4	72.770	0.200	-0.600	-1.880
2020/01/31 18:37:17.5	72.810	0.230	-0.650	-1.970
2020/01/31 18:37:17.6	72.840	0.250	-0.700	-2.040
2020/01/31 18:37:17.7	72.880	0.270	-0.740	-2.110
2020/01/31 18:37:17.8	72.900	0.300	-0.790	-2.180
2020/01/31 18:37:17.9	72.930	0.320	-0.840	-2.240
2020/01/31 18:37:18.0	72.960	0.340	-0.870	-2.290
2020/01/31 18:37:18.1	72.990	0.360	-0.910	-2.330
2020/01/31 18:37:18.2	73.020	0.380	-0.940	-2.370
2020/01/31 18:37:18.3	73.050	0.390	-0.960	-2.390
2020/01/31 18:37:18.4	73.080	0.400	-0.980	-2.410
2020/01/31 18:37:18.5	73.110	0.410	-1.000	-2.420
2020/01/31 18:37:18.6	73.130	0.420	-1.000	-2.420
2020/01/31 18:37:18.7	73.150	0.430	-1.000	-2.420
2020/01/31 18:37:18.8	73.170	0.430	-1.000	-2.400
2020/01/31 18:37:18.9	73.190	0.430	-0.980	-2.370
2020/01/31 18:37:19.0	73.200	0.420	-0.960	-2.340
2020/01/31 18:37:19.1	73.210	0.420	-0.940	-2.310
2020/01/31 18:37:19.2	73.220	0.410	-0.900	-2.260
2020/01/31 18:37:19.3	73.220	0.390	-0.870	-2.210
2020/01/31 18:37:19.4	73.220	0.380	-0.820	-2.150
2020/01/31 18:37:19.5	73.220	0.360	-0.770	-2.090
2020/01/31 18:37:19.6	73.220	0.340	-0.720	-2.020
2020/01/31 18:37:19.7	73.220	0.310	-0.650	-1.940
2020/01/31 18:37:19.8	73.200	0.280	-0.590	-1.860
2020/01/31 18:37:19.9	73.200	0.250	-0.530	-1.770
2020/01/31 18:37:20.0	73.180	0.220	-0.450	-1.680
2020/01/31 18:37:20.1	73.170	0.190	-0.380	-1.580
2020/01/31 18:37:20.2	73.160	0.150	-0.300	-1.480
2020/01/31 18:37:20.3	73.140	0.120	-0.230	-1.380
2020/01/31 18:37:20.4	73.130	0.080	-0.150	-1.270
2020/01/31 18:37:20.5	73.110	0.040	-0.080	-1.160
2020/01/31 18:37:20.6	73.090	0.000	-0.000	-1.050
2020/01/31 18:37:20.7	73.080	-0.040	0.070	-0.940
2020/01/31 18:37:20.8	73.060	-0.070	0.140	-0.820
2020/01/31 18:37:20.9	73.050	-0.110	0.210	-0.700
2020/01/31 18:37:21.0	73.030	-0.150	0.280	-0.580
2020/01/31 18:37:21.1	73.020	-0.190	0.330	-0.460
2020/01/31 18:37:21.2	73.010	-0.220	0.390	-0.340
2020/01/31 18:37:21.3	72.990	-0.250	0.440	-0.220
2020/01/31 18:37:21.4	72.980	-0.280	0.480	-0.100
2020/01/31 18:37:21.5	72.970	-0.310	0.510	0.030
2020/01/31 18:37:21.6	72.960	-0.340	0.540	0.150
2020/01/31 18:37:21.7	72.950	-0.360	0.560	0.270
2020/01/31 18:37:21.8	72.950	-0.380	0.580	0.390
2020/01/31 18:37:21.9	72.950	-0.400	0.590	0.510
2020/01/31 18:37:22.0	72.940	-0.420	0.590	0.630
2020/01/31 18:37:22.1	72.940	-0.430	0.580	0.750
2020/01/31 18:37:22.2	72.940	-0.430	0.570	0.860
2020/01/31 18:37:22.3	72.940	-0.440	0.550	0.980
2020/01/31 18:37:22.4	72.950	-0.440	0.520	1.090
2020/01/31 18:37:22.5	72.950	-0.440	0.490	1.200
2020/01/31 18:37:22.6	72.960	-0.430	0.450	1.300
2020/01/31 18:37:22.7	72.960	-0.430	0.400	1.410
2020/01/31 18:37:22.8	72.970	-0.420	0.350	1.510
2020/01/31 18:37:22.9	72.980	-0.400	0.300	1.600
2020/01/31 18:37:23.0	72.990	-0.390	0.240	1.700
2020/01/31 18:37:23.1	73.000	-0.370	0.190	1.790
2020/01/31 18:37:23.2	73.020	-0.350	0.130	1.870
2020/01/31 18:37:23.3	73.030	-0.330	0.070	1.960
2020/01/31 18:37:23.4	73.040	-0.310	0.010	2.040
2020/01/31 18:37:23.5	73.060	-0.280	-0.050	2.110
2020/01/31 18:37:23.6	73.070	-0.260	-0.110	2.180
2020/01/31 18:37:23.7	73.080	-0.240	-0.160	2.250
2020/01/31 18:37:23.8	73.100	-0.210	-0.220	2.320
2020/01/31 18:37:23.9	73.110	-0.180	-0.270	2.380
2020/01/31 18:37:24.0	73.120	-0.160	-0.310	2.430
2020/01/31 18:37:24.1	73.130	-0.130	-0.350	2.480
2020/01/31 18:37:24.2	73.140	-0.110	-0.380	2.530
2020/01/31 18:37:24.3	73.150	-0.080	-0.410	2.570
2020/01/31 18:37:24.4	73.150	-0.060	-0.440	2.610
2020/01/31 18:37:24.5	73.160	-0.040	-0.460	2.650
2020/01/31 18:37:24.6	73.160	-0.020	-0.470	2.680
2020/01/31 18:37:24.7	73.170	0.000	-0.480	2.700
2020/01/31 18:37:24.8	73.170	0.020	-0.480	2.720
2020/01/31 18:37:24.9	73.160	0.040	-0.480	2.740
2020/01/31 18:37:25.0	73.160	0.050	-0.470	2.750
2020/01/31 18:37:25.1	73.160	0.070	-0.460	2.760
2020/01/31 18:37:25.2	73.150	0.080	-0.440	2.760
2020/01/31 18:37:25.3	73.140	0.090	-0.420	2.760
2020/01/31 18:37:25.4	73.130	0.100	-0.390	2.750
2020/01/31 18:37:25.5	73.120	0.100	-0.370	2.740
2020/01/31 18:37:25.6	73.100	0.110	-0.340	2.720
2020/01/31 18:37:25.7	73.090	0.110	-0.300	2.700
2020/01/31 18:37:25.8	73.080	0.110	-0.270	2.670
2020/01/31 18:37:25.9	73.060	0.100	-0.240	2.640
2020/01/31 18:37:26.0	73.040	0.100	-0.200	2.600
2020/01/31 18:37:26.1	73.020	0.100	-0.170	2.560
2020/01/31 18:37:26.2	73.000	0.090	-0.140	2.510
2020/01/31 18:37:26.3	72.980	0.080	-0.120	2.460
2020/01/31 18:37:26.4	72.970	0.070	-0.090	2.400
2020/01/31 18:37:26.5	72.950	0.060	-0.070	2.330
2020/01/31 18:37:26.6	72.930	0.050	-0.050	2.260
2020/01/31 18:37:26.7	72.910	0.040	-0.040	2.180
2020/01/31 18:37:26.8	72.890	0.030	-0.030	2.100
2020/01/31 18:37:26.9	72.870	0.030	-0.020	2.010
2020/01/31 18:37:27.0	72.860	0.020	-0.030	1.910
2020/01/31 18:37:27.1	72.850	0.010	-0.040	1.810
2020/01/31 18:37:27.2	72.840	-0.000	-0.050	1.710
2020/01/31 18:37:27.3	72.840	-0.010	-0.070	1.600
2020/01/31 18:37:27.4	72.830	-0.010	-0.090	1.490
2020/01/31 18:37:27.5	72.830	-0.020	-0.120	1.370
2020/01/31 18:37:27.6	72.840	-0.020	-0.160	1.250
2020/01/31 18:37:27.7	72.840	-0.020	-0.200	1.120
2020/01/31 18:37:27.8	72.840	-0.020	-0.240	1.000
2020/01/31 18:37:27.9	72.850	-0.010	-0.290	0.870
2020/01/31 18:37:28.0	72.860	-0.010	-0.340	0.730
2020/01/31 18:37:28.1	72.870	-0.000	-0.390	0.600
2020/01/31 18:37:28.2	72.890	0.010	-0.450	0.460
2020/01/31 18:37:28.3	72.910	0.020	-0.500	0.320
2020/01/31 18:37:28.4	72.930	0.030	-0.560	0.190
2020/01/31 18:37:28.5	72.950	0.040	-0.610	0.050
2020/01/31 18:37:28.6	72.970	0.060	-0.670	-0.090
2020/01/31 18:37:28.7	73.000	0.080	-0.720	-0.230
2020/01/31 18:37:28.8	73.030	0.100	-0.760	-0.370
2020/01/31 18:37:28.9	73.060	0.120	-0.800	-0.500
2020/01/31 18:37:29.0	73.080	0.140	-0.840	-0.640
2020/01/31 18:37:29.1	73.110	0.160	-0.870	-0.770
2020/01/31 18:37:29.2	73.140	0.180	-0.900	-0.890
2020/01/31 18:37:29.3	73.170	0.210	-0.910	-1.010
2020/01/31 18:37:29.4	73.190	0.230	-0.930	-1.130
2020/01/31 18:37:29.5	73.220	0.250	-0.930	-1.240
2020/01/31 18:37:29.6	73.240	0.270	-0.920	-1.350
2020/01/31 18:37:29.7	73.270	0.300	-0.910	-1.450
2020/01/31 18:37:29.8	73.290	0.320	-0.890	-1.540
2020/01/31 18:37:29.9	73.310	0.330	-0.860	-1.630
2020/01/31 18:37:30.0	73.330	0.350	-0.820	-1.700
2020/01/31 18:37:30.1	73.350	0.360	-0.770	-1.770
2020/01/31 18:37:30.2	73.360	0.380	-0.710	-1.840
2020/01/31 18:37:30.3	73.370	0.380	-0.650	-1.890
2020/01/31 18:37:30.4	73.380	0.390	-0.580	-1.940
2020/01/31 18:37:30.5	73.380	0.390	-0.500	-1.980
2020/01/31 18:37:30.6	73.380	0.390	-0.420	-2.010
2020/01/31 18:37:30.7	73.380	0.380	-0.340	-2.040
2020/01/31 18:37:30.8	73.370	0.380	-0.240	-2.050
2020/01/31 18:37:30.9	73.370	0.360	-0.150	-2.070
2020/01/31 18:37:31.0	73.360	0.350	-0.050	-2.070
2020/01/31 18:37:31.1	73.340	0.320	0.050	-2.070
2020/01/31 18:37:31.2	73.320	0.300	0.140	-2.070
2020/01/31 18:37:31.3	73.310	0.270	0.240	-2.050
2020/01/31 18:37:31.4	73.280	0.240	0.330	-2.040
2020/01/31 18:37:31.5	73.260	0.210	0.430	-2.020
2020/01/31 18:37:31.6	73.230	0.170	0.510	-1.990
2020/01/31 18:37:31.7	73.210	0.130	0.600	-1.960
2020/01/31 18:37:31.8	73.180	0.090	0.670	-1.930
2020/01/31 18:37:31.9	73.150	0.040	0.750	-1.890
2020/01/31 18:37:32.0	73.120	0.000	0.810	-1.850
2020/01/31 18:37:32.1	73.090	-0.040	0.870	-1.800
2020/01/31 18:37:32.2	73.060	-0.090	0.920	-1.750
2020/01/31 18:37:32.3	73.030	-0.130	0.960	-1.700
2020/01/31 18:37:32.4	73.000	-0.180	0.990	-1.640
2020/01/31 18:37:32.5	72.980	-0.220	1.020	-1.590
2020/01/31 18:37:32.6	72.950	-0.260	1.030	-1.530
2020/01/31 18:37:32.7	72.920	-0.300	1.030	-1.460
2020/01/31 18:37:32.8	72.910	-0.330	1.020	-1.400
2020/01/31 18:37:32.9	72.880	-0.360	1.000	-1.330
2020/01/31 18:37:33.0	72.870	-0.390	0.970	-1.270
2020/01/31 18:37:33.1	72.850	-0.420	0.930	-1.200
2020/01/31 18:37:33.2	72.830	-0.430	0.880	-1.130
2020/01/31 18:37:33.3	72.820	-0.450	0.820	-1.060
2020/01/31 18:37:33.4	72.810	-0.460	0.750	-0.980
2020/01/31 18:37:33.5	72.810	-0.460	0.670	-0.910
2020/01/31 18:37:33.6	72.800	-0.460	0.580	-0.840
2020/01/31 18:37:33.7	72.800	-0.450	0.480	-0.760
2020/01/31 18:37:33.8	72.820	-0.440	0.380	-0.690
2020/01/31 18:37:33.9	72.830	-0.420	0.270	-0.610
2020/01/31 18:37:34.0	72.840	-0.390	0.150	-0.540
2020/01/31 18:37:34.1	72.850	-0.370	0.030	-0.460
2020/01/31 18:37:34.2	72.860	-0.330	-0.090	-0.390
2020/01/31 18:37:34.3	72.880	-0.300	-0.220	-0.320
2020/01/31 18:37:34.4	72.910	-0.260	-0.350	-0.250
2020/01/31 18:37:34.5	72.930	-0.210	-0.470	-0.180
2020/01/31 18:37:34.6	72.960	-0.170	-0.600	-0.100
2020/01/31 18:37:34.7	72.990	-0.120	-0.720	-0.030
2020/01/31 18:37:34.8	73.020	-0.070	-0.850	0.040
2020/01/31 18:37:34.9	73.050	-0.020	-0.960	0.110
2020/01/31 18:37:35.0	73.090	0.030	-1.070	0.180
2020/01/31 18:37:35.1	73.120	0.080	-1.170	0.250
2020/01/31 18:37:35.2	73.160	0.130	-1.270	0.310
2020/01/31 18:37:35.3	73.190	0.180	-1.360	0.380
2020/01/31 18:37:35.4	73.220	0.230	-1.430	0.450
2020/01/31 18:37:35.5	73.260	0.270	-1.500	0.520
2020/01/31 18:37:35.6	73.290	0.310	-1.550	0.590
2020/01/31 18:37:35.7	73.320	0.350	-1.590	0.650
2020/01/31 18:37:35.8	73.350	0.380	-1.620	0.730
2020/01/31 18:37:35.9	73.370	0.410	-1.640	0.800
2020/01/31 18:37:36.0	73.390	0.430	-1.640	0.860
2020/01/31 18:37:36.1	73.410	0.450	-1.630	0.930
2020/01/31 18:37:36.2	73.430	0.460	-1.600	1.000
2020/01/31 18:37:36.3	73.440	0.470	-1.560	1.070
2020/01/31 18:37:36.4	73.450	0.470	-1.510	1.130
2020/01/31 18:37:36.5	73.460	0.460	-1.450	1.200
2020/01/31 18:37:36.6	73.460	0.450	-1.370	1.260
2020/01/31 18:37:36.7	73.460	0.440	-1.290	1.320
2020/01/31 18:37:36.8	73.440	0.410	-1.190	1.380
2020/01/31 18:37:36.9	73.430	0.390	-1.080	1.440
2020/01/31 18:37:37.0	73.430	0.350	-0.970	1.500
2020/01/31 18:37:37.1	73.420	0.310	-0.850	1.550
2020/01/31 18:37:37.2	73.410	0.270	-0.720	1.600
2020/01/31 18:37:37.3	73.390	0.230	-0.590	1.650
2020/01/31 18:37:37.4	73.380	0.180	-0.450	1.690
2020/01/31 18:37:37.5	73.360	0.120	-0.310	1.740
2020/01/31 18:37:37.6	73.340	0.070	-0.170	1.770
2020/01/31 18:37:37.7	73.320	0.010	-0.030	1.810
2020/01/31 18:37:37.8	73.290	-0.050	0.110	1.840
2020/01/31 18:37:37.9	73.270	-0.110	0.240	1.870
2020/01/31 18:37:38.0	73.250	-0.170	0.380	1.900
2020/01/31 18:37:38.1	73.220	-0.230	0.500	1.920
2020/01/31 18:37:38.2	73.200	-0.290	0.620	1.940
2020/01/31 18:37:38.3	73.170	-0.350	0.730	1.950
2020/01/31 18:37:38.4	73.150	-0.410	0.840	1.960
2020/01/31 18:37:38.5	73.130	-0.460	0.930	1.960
2020/01/31 18:37:38.6	73.100	-0.510	1.020	1.960
2020/01/31 18:37:38.7	73.080	-0.560	1.100	1.960
2020/01/31 18:37:38.8	73.060	-0.600	1.160	1.950
2020/01/31 18:37:38.9	73.040	-0.640	1.220	1.940
2020/01/31 18:37:39.0	73.010	-0.670	1.260	1.920
2020/01/31 18:37:39.1	72.990	-0.700	1.290	1.900
2020/01/31 18:37:39.2	72.970	-0.720	1.310	1.870
2020/01/31 18:37:39.3	72.950	-0.740	1.320	1.840
2020/01/31 18:37:39.4	72.920	-0.750	1.310	1.800
2020/01/31 18:37:39.5	72.900	-0.760	1.300	1.760
2020/01/31 18:37:39.6	72.880	-0.760	1.270	1.720
2020/01/31 18:37:39.7	72.860	-0.760	1.240	1.670
2020/01/31 18:37:39.8	72.850	-0.750	1.190	1.620
2020/01/31 18:37:39.9	72.840	-0.730	1.130	1.560
2020/01/31 18:37:40.0	72.820	-0.710	1.070	1.500
2020/01/31 18:37:40.1	72.800	-0.690	0.990	1.430
2020/01/31 18:37:40.2	72.780	-0.660	0.910	1.360
2020/01/31 18:37:40.3	72.760	-0.630	0.820	1.290
2020/01/31 18:37:40.4	72.740	-0.590	0.730	1.220
2020/01/31 18:37:40.5	72.720	-0.550	0.630	1.150
2020/01/31 18:37:40.6	72.700	-0.510	0.520	1.070
2020/01/31 18:37:40.7	72.690	-0.460	0.410	0.990
2020/01/31 18:37:40.8	72.670	-0.410	0.300	0.920
2020/01/31 18:37:40.9	72.650	-0.360	0.190	0.840
2020/01/31 18:37:41.0	72.630	-0.310	0.070	0.750
2020/01/31 18:37:41.1	72.610	-0.250	-0.050	0.670
2020/01/31 18:37:41.2	72.590	-0.200	-0.160	0.590
2020/01/31 18:37:41.3	72.570	-0.140	-0.280	0.510
2020/01/31 18:37:41.4	72.550	-0.080	-0.400	0.420
2020/01/31 18:37:41.5	72.530	-0.030	-0.520	0.340
2020/01/31 18:37:41.6	72.510	0.030	-0.630	0.250
2020/01/31 18:37:41.7	72.500	0.080	-0.740	0.170
2020/01/31 18:37:41.8	72.490	0.140	-0.850	0.080
2020/01/31 18:37:41.9	72.480	0.190	-0.960	-0.010
2020/01/31 18:37:42.0	72.470	0.250	-1.060	-0.100
2020/01/31 18:37:42.1	72.460	0.300	-1.150	-0.180
2020/01/31 18:37:42.2	72.450	0.350	-1.240	-0.270
2020/01/31 18:37:42.3	72.450	0.390	-1.320	-0.360
2020/01/31 18:37:42.4	72.450	0.440	-1.400	-0.440
2020/01/31 18:37:42.5	72.450	0.480	-1.470	-0.530
2020/01/31 18:37:42.6	72.450	0.520	-1.530	-0.620
2020/01/31 18:37:42.7	72.460	0.560	-1.590	-0.700
2020/01/31 18:37:42.8	72.480	0.590	-1.630	-0.780
2020/01/31 18:37:42.9	72.490	0.630	-1.670	-0.860
2020/01/31 18:37:43.0	72.510	0.660	-1.700	-0.940
2020/01/31 18:37:43.1	72.520	0.680	-1.710	-1.020
2020/01/31 18:37:43.2	72.540	0.700	-1.720	-1.100
2020/01/31 18:37:43.3	72.560	0.720	-1.720	-1.170
2020/01/31 18:37:43.4	72.590	0.740	-1.710	-1.250
2020/01/31 18:37:43.5	72.620	0.750	-1.690	-1.320
2020/01/31 18:37:43.6	72.640	0.760	-1.670	-1.380
2020/01/31 18:37:43.7	72.670	0.770	-1.630	-1.440
2020/01/31 18:37:43.8	72.700	0.770	-1.580	-1.510
2020/01/31 18:37:43.9	72.730	0.770	-1.530	-1.560
2020/01/31 18:37:44.0	72.760	0.770	-1.460	-1.610
2020/01/31 18:37:44.1	72.790	0.760	-1.390	-1.650
2020/01/31 18:37:44.2	72.820	0.750	-1.310	-1.690
2020/01/31 18:37:44.3	72.850	0.740	-1.220	-1.720
2020/01/31 18:37:44.4	72.880	0.720	-1.130	-1.750
2020/01/31 18:37:44.5	72.900	0.700	-1.030	-1.770
2020/01/31 18:37:44.6	72.930	0.680	-0.920	-1.780
2020/01/31 18:37:44.7	72.950	0.650	-0.810	-1.790
2020/01/31 18:37:44.8	72.960	0.620	-0.690	-1.780
2020/01/31 18:37:44.9	72.980	0.590	-0.570	-1.780
2020/01/31 18:37:45.0	73.000	0.560	-0.440	-1.770
2020/01/31 18:37:45.1	73.020	0.520	-0.320	-1.750
2020/01/31 18:37:45.2	73.030	0.480	-0.190	-1.720
2020/01/31 18:37:45.3	73.040	0.440	-0.060	-1.690
2020/01/31 18:37:45.4	73.040	0.400	0.060	-1.650
2020/01/31 18:37:45.5	73.050	0.350	0.190	-1.610
2020/01/31 18:37:45.6	73.050	0.300	0.310	-1.560
2020/01/31 18:37:45.7	73.050	0.250	0.440	-1.500
2020/01/31 18:37:45.8	73.040	0.200	0.550	-1.440
2020/01/31 18:37:45.9	73.030	0.150	0.670	-1.370
2020/01/31 18:37:46.0	73.020	0.100	0.780	-1.300
2020/01/31 18:37:46.1	73.010	0.040	0.880	-1.230
2020/01/31 18:37:46.2	72.990	-0.020	0.980	-1.150
2020/01/31 18:37:46.3	72.980	-0.070	1.070	-1.060
2020/01/31 18:37:46.4	72.960	-0.130	1.150	-0.980
2020/01/31 18:37:46.5	72.930	-0.180	1.220	-0.890
2020/01/31 18:37:46.6	72.910	-0.240	1.290	-0.790
2020/01/31 18:37:46.7	72.880	-0.300	1.350	-0.690
2020/01/31 18:37:46.8	72.860	-0.350	1.390	-0.590
2020/01/31 18:37:46.9	72.820	-0.400	1.430	-0.490
2020/01/31 18:37:47.0	72.790	-0.450	1.460	-0.390
2020/01/31 18:37:47.1	72.750	-0.500	1.480	-0.280
2020/01/31 18:37:47.2	72.710	-0.550	1.490	-0.170
2020/01/31 18:37:47.3	72.670	-0.600	1.490	-0.060
2020/01/31 18:37:47.4	72.630	-0.640	1.480	0.050
2020/01/31 18:37:47.5	72.590	-0.680	1.460	0.160
2020/01/31 18:37:47.6	72.540	-0.710	1.440	0.270
2020/01/31 18:37:47.7	72.500	-0.740	1.400	0.380
2020/01/31 18:37:47.8	72.480	-0.770	1.350	0.490
2020/01/31 18:37:47.9	72.430	-0.800	1.300	0.600
2020/01/31 18:37:48.0	72.390	-0.820	1.230	0.700
2020/01/31 18:37:48.1	72.350	-0.830	1.160	0.800
2020/01/31 18:37:48.2	72.310	-0.840	1.080	0.900
2020/01/31 18:37:48.3	72.280	-0.850	0.990	1.000
2020/01/31 18:37:48.4	72.240	-0.850	0.890	1.090
2020/01/31 18:37:48.5	72.210	-0.840	0.790	1.170
2020/01/31 18:37:48.6	72.190	-0.830	0.680	1.250
2020/01/31 18:37:48.7	72.160	-0.820	0.570	1.330
2020/01/31 18:37:48.8	72.130	-0.800	0.440	1.400
2020/01/31 18:37:48.9	72.120	-0.770	0.310	1.460
2020/01/31 18:37:49.0	72.110	-0.740	0.180	1.520
2020/01/31 18:37:49.1	72.100	-0.710	0.050	1.570
2020/01/31 18:37:49.2	72.090	-0.670	-0.090	1.610
2020/01/31 18:37:49.3	72.090	-0.630	-0.230	1.650
2020/01/31 18:37:49.4	72.090	-0.580	-0.370	1.690
2020/01/31 18:37:49.5	72.100	-0.530	-0.510	1.720
2020/01/31 18:37:49.6	72.110	-0.480	-0.650	1.740
2020/01/31 18:37:49.7	72.120	-0.430	-0.780	1.760
2020/01/31 18:37:49.8	72.140	-0.370	-0.920	1.770
2020/01/31 18:37:49.9	72.160	-0.310	-1.050	1.780
2020/01/31 18:37:50.0	72.190	-0.250	-1.170	1.790
2020/01/31 18:37:50.1	72.210	-0.190	-1.290	1.790
2020/01/31 18:37:50.2	72.240	-0.130	-1.410	1.780
2020/01/31 18:37:50.3	72.270	-0.070	-1.510	1.780
2020/01/31 18:37:50.4	72.300	-0.010	-1.610	1.770
2020/01/31 18:37:50.5	72.340	0.050	-1.690	1.760
2020/01/31 18:37:50.6	72.370	0.110	-1.770	1.740
2020/01/31 18:37:50.7	72.410	0.170	-1.840	1.720
2020/01/31 18:37:50.8	72.450	0.220	-1.890	1.710
2020/01/31 18:37:50.9	72.490	0.270	-1.930	1.680
2020/01/31 18:37:51.0	72.530	0.320	-1.960	1.660
2020/01/31 18:37:51.1	72.570	0.370	-1.980	1.630
2020/01/31 18:37:51.2	72.610	0.410	-1.980	1.600
2020/01/31 18:37:51.3	72.650	0.450	-1.970	1.570
2020/01/31 18:37:51.4	72.680	0.480	-1.950	1.540
2020/01/31 18:37:51.5	72.720	0.510	-1.910	1.510
2020/01/31 18:37:51.6	72.750	0.530	-1.860	1.470
2020/01/31 18:37:51.7	72.790	0.550	-1.800	1.440
2020/01/31 18:37:51.8	72.820	0.570	-1.720	1.410
2020/01/31 18:37:51.9	72.840	0.580	-1.640	1.370
2020/01/31 18:37:52.0	72.860	0.590	-1.550	1.340
2020/01/31 18:37:52.1	72.880	0.590	-1.440	1.310
2020/01/31 18:37:52.2	72.900	0.590	-1.330	1.280
2020/01/31 18:37:52.3	72.910	0.580	-1.210	1.250
2020/01/31 18:37:52.4	72.920	0.570	-1.080	1.230
2020/01/31 18:37:52.5	72.920	0.550	-0.950	1.200
2020/01/31 18:37:52.6	72.920	0.530	-0.810	1.170
2020/01/31 18:37:52.7	72.920	0.510	-0.670	1.150
2020/01/31 18:37:52.8	72.910	0.490	-0.510	1.120
2020/01/31 18:37:52.9	72.900	0.460	-0.370	1.100
2020/01/31 18:37:53.0	72.890	0.420	-0.220	1.080
2020/01/31 18:37:53.1	72.870	0.390	-0.080	1.050
2020/01/31 18:37:53.2	72.850	0.360	0.070	1.030
2020/01/31 18:37:53.3	72.830	0.320	0.210	1.010
2020/01/31 18:37:53.4	72.810	0.280	0.340	0.980
2020/01/31 18:37:53.5	72.780	0.240	0.470	0.960
2020/01/31 18:37:53.6	72.750	0.200	0.600	0.930
2020/01/31 18:37:53.7	72.720	0.160	0.710	0.910
2020/01/31 18:37:53.8	72.690	0.120	0.830	0.880
2020/01/31 18:37:53.9	72.660	0.080	0.930	0.850
2020/01/31 18:37:54.0	72.620	0.040	1.020	0.820
2020/01/31 18:37:54.1	72.590	0.000	1.100	0.790
2020/01/31 18:37:54.2	72.560	-0.030	1.170	0.750
2020/01/31 18:37:54.3	72.520	-0.070	1.230	0.710
2020/01/31 18:37:54.4	72.490	-0.100	1.270	0.670
2020/01/31 18:37:54.5	72.460	-0.130	1.310	0.630
2020/01/31 18:37:54.6	72.420	-0.160	1.330	0.580
2020/01/31 18:37:54.7	72.390	-0.180	1.350	0.540
2020/01/31 18:37:54.8	72.370	-0.210	1.350	0.480
2020/01/31 18:37:54.9	72.340	-0.230	1.340	0.430
2020/01/31 18:37:55.0	72.310	-0.250	1.310	0.370
2020/01/31 18:37:55.1	72.280	-0.260	1.280	0.310
2020/01/31 18:37:55.2	72.250	-0.280	1.240	0.250
2020/01/31 18:37:55.3	72.230	-0.290	1.180	0.180
2020/01/31 18:37:55.4	72.200	-0.300	1.120	0.110
2020/01/31 18:37:55.5	72.180	-0.300	1.050	0.040
2020/01/31 18:37:55.6	72.160	-0.310	0.970	-0.030
2020/01/31 18:37:55.7	72.140	-0.310	0.890	-0.110
2020/01/31 18:37:55.8	72.110	-0.310	0.800	-0.180
2020/01/31 18:37:55.9	72.090	-0.310	0.700	-0.260
2020/01/31 18:37:56.0	72.070	-0.310	0.590	-0.340
2020/01/31 18:37:56.1	72.060	-0.300	0.490	-0.420
2020/01/31 18:37:56.2	72.040	-0.290	0.380	-0.500
2020/01/31 18:37:56.3	72.030	-0.280	0.260	-0.580
2020/01/31 18:37:56.4	72.020	-0.270	0.150	-0.660
2020/01/31 18:37:56.5	72.010	-0.260	0.030	-0.750
2020/01/31 18:37:56.6	72.000	-0.250	-0.090	-0.830
2020/01/31 18:37:56.7	71.990	-0.230	-0.200	-0.910
2020/01/31 18:37:56.8	71.990	-0.220	-0.320	-1.000
2020/01/31 18:37:56.9	71.980	-0.200	-0.430	-1.080
2020/01/31 18:37:57.0	71.980	-0.180	-0.540	-1.160
2020/01/31 18:37:57.1	71.980	-0.160	-0.650	-1.240
2020/01/31 18:37:57.2	71.980	-0.140	-0.750	-1.320
2020/01/31 18:37:57.3	71.980	-0.120	-0.850	-1.390
2020/01/31 18:37:57.4	71.990	-0.090	-0.950	-1.470
2020/01/31 18:37:57.5	71.990	-0.070	-1.040	-1.540
2020/01/31 18:37:57.6	72.000	-0.040	-1.120	-1.610
2020/01/31 18:37:57.7	72.010	-0.020	-1.190	-1.680
2020/01/31 18:37:57.8	72.010	0.010	-1.270	-1.740
2020/01/31 18:37:57.9	72.020	0.040	-1.330	-1.800
2020/01/31 18:37:58.0	72.040	0.070	-1.380	-1.860
2020/01/31 18:37:58.1	72.060	0.100	-1.430	-1.920
2020/01/31 18:37:58.2	72.080	0.130	-1.470	-1.970
2020/01/31 18:37:58.3	72.110	0.160	-1.500	-2.020
2020/01/31 18:37:58.4	72.140	0.190	-1.520	-2.060
2020/01/31 18:37:58.5	72.170	0.230	-1.540	-2.100
2020/01/31 18:37:58.6	72.200	0.260	-1.540	-2.130
2020/01/31 18:37:58.7	72.240	0.290	-1.540	-2.160
2020/01/31 18:37:58.8	72.280	0.320	-1.530	-2.190
2020/01/31 18:37:58.9	72.320	0.350	-1.510	-2.210
2020/01/31 18:37:59.0	72.370	0.380	-1.490	-2.220
2020/01/31 18:37:59.1	72.410	0.410	-1.460	-2.230
2020/01/31 18:37:59.2	72.460	0.440	-1.420	-2.230
2020/01/31 18:37:59.3	72.500	0.470	-1.370	-2.230
2020/01/31 18:37:59.4	72.550	0.490	-1.320	-2.210
2020/01/31 18:37:59.5	72.590	0.510	-1.260	-2.200
2020/01/31 18:37:59.6	72.640	0.530	-1.190	-2.170
2020/01/31 18:37:59.7	72.690	0.550	-1.120	-2.140
2020/01/31 18:37:59.8	72.730	0.570	-1.040	-2.090
2020/01/31 18:37:59.9	72.770	0.580	-0.960	-2.040
2020/01/31 18:38:00.0	72.810	0.580	-0.870	-1.990
2020/01/31 18:38:00.1	72.850	0.590	-0.780	-1.930
2020/01/31 18:38:00.2	72.890	0.590	-0.690	-1.860
2020/01/31 18:38:00.3	72.920	0.580	-0.590	-1.780
2020/01/31 18:38:00.4	72.950	0.570	-0.490	-1.700
2020/01/31 18:38:00.5	72.970	0.560	-0.380	-1.610
2020/01/31 18:38:00.6	72.990	0.540	-0.280	-1.510
2020/01/31 18:38:00.7	73.010	0.520	-0.170	-1.410
2020/01/31 18:38:00.8	73.010	0.500	-0.070	-1.290
2020/01/31 18:38:00.9	73.020	0.470	0.040	-1.180
2020/01/31 18:38:01.0	73.020	0.430	0.150	-1.060
2020/01/31 18:38:01.1	73.020	0.390	0.260	-0.930
2020/01/31 18:38:01.2	73.010	0.350	0.370	-0.800
2020/01/31 18:38:01.3	73.000	0.300	0.480	-0.660
2020/01/31 18:38:01.4	72.980	0.250	0.580	-0.520
2020/01/31 18:38:01.5	72.950	0.200	0.680	-0.370
2020/01/31 18:38:01.6	72.930	0.140	0.780	-0.230
2020/01/31 18:38:01.7	72.890	0.080	0.880	-0.080
2020/01/31 18:38:01.8	72.860	0.020	0.980	0.080
2020/01/31 18:38:01.9	72.830	-0.040	1.060	0.230
2020/01/31 18:38:02.0	72.790	-0.100	1.140	0.380
2020/01/31 18:38:02.1	72.740	-0.170	1.210	0.530
2020/01/31 18:38:02.2	72.700	-0.230	1.270	0.680
2020/01/31 18:38:02.3	72.650	-0.290	1.330	0.820
2020/01/31 18:38:02.4	72.610	-0.360	1.380	0.970
2020/01/31 18:38:02.5	72.560	-0.420	1.420	1.100
2020/01/31 18:38:02.6	72.510	-0.480	1.450	1.240
2020/01/31 18:38:02.7	72.470	-0.540	1.460	1.370
2020/01/31 18:38:02.8	72.420	-0.590	1.470	1.490
2020/01/31 18:38:02.9	72.380	-0.640	1.470	1.600
2020/01/31 18:38:03.0	72.340	-0.690	1.450	1.710
2020/01/31 18:38:03.1	72.310	-0.740	1.430	1.810
2020/01/31 18:38:03.2	72.280	-0.780	1.400	1.910
2020/01/31 18:38:03.3	72.250	-0.810	1.350	1.990
2020/01/31 18:38:03.4	72.230	-0.840	1.300	2.070
2020/01/31 18:38:03.5	72.210	-0.870	1.230	2.130
2020/01/31 18:38:03.6	72.200	-0.890	1.160	2.190
2020/01/31 18:38:03.7	72.190	-0.900	1.080	2.240
2020/01/31 18:38:03.8	72.190	-0.910	0.990	2.290
2020/01/31 18:38:03.9	72.190	-0.910	0.890	2.320
2020/01/31 18:38:04.0	72.190	-0.910	0.780	2.340
2020/01/31 18:38:04.1	72.200	-0.900	0.670	2.360
2020/01/31 18:38:04.2	72.210	-0.890	0.550	2.370
2020/01/31 18:38:04.3	72.230	-0.870	0.430	2.370
2020/01/31 18:38:04.4	72.250	-0.840	0.300	2.370
2020/01/31 18:38:04.5	72.280	-0.810	0.160	2.350
2020/01/31 18:38:04.6	72.300	-0.770	0.030	2.340
2020/01/31 18:38:04.7	72.330	-0.730	-0.110	2.310
2020/01/31 18:38:04.8	72.360	-0.680	-0.240	2.280
2020/01/31 18:38:04.9	72.400	-0.630	-0.380	2.250
2020/01/31 18:38:05.0	72.440	-0.570	-0.520	2.210
2020/01/31 18:38:05.1	72.470	-0.510	-0.650	2.160
2020/01/31 18:38:05.2	72.510	-0.450	-0.780	2.120
2020/01/31 18:38:05.3	72.560	-0.380	-0.910	2.060
2020/01/31 18:38:05.4	72.600	-0.310	-1.040	2.010
2020/01/31 18:38:05.5	72.640	-0.240	-1.160	1.950
2020/01/31 18:38:05.6	72.680	-0.170	-1.270	1.890
2020/01/31 18:38:05.7	72.720	-0.100	-1.380	1.830
2020/01/31 18:38:05.8	72.750	-0.030	-1.470	1.770
2020/01/31 18:38:05.9	72.790	0.050	-1.560	1.700
2020/01/31 18:38:06.0	72.830	0.120	-1.650	1.640
2020/01/31 18:38:06.1	72.870	0.190	-1.720	1.570
2020/01/31 18:38:06.2	72.900	0.260	-1.780	1.510
2020/01/31 18:38:06.3	72.930	0.320	-1.830	1.440
2020/01/31 18:38:06.4	72.960	0.390	-1.870	1.380
2020/01/31 18:38:06.5	72.990	0.450	-1.900	1.310
2020/01/31 18:38:06.6	73.020	0.500	-1.920	1.250
2020/01/31 18:38:06.7	73.050	0.550	-1.930	1.190
2020/01/31 18:38:06.8	73.070	0.600	-1.920	1.130
2020/01/31 18:38:06.9	73.090	0.640	-1.910	1.070
2020/01/31 18:38:07.0	73.100	0.680	-1.880	1.010
2020/01/31 18:38:07.1	73.120	0.700	-1.840	0.960
2020/01/31 18:38:07.2	73.130	0.730	-1.780	0.910
2020/01/31 18:38:07.3	73.140	0.740	-1.720	0.860
2020/01/31 18:38:07.4	73.140	0.750	-1.650	0.810
2020/01/31 18:38:07.5	73.140	0.750	-1.560	0.770
2020/01/31 18:38:07.6	73.140	0.750	-1.470	0.730
2020/01/31 18:38:07.7	73.130	0.740	-1.360	0.700
2020/01/31 18:38:07.8	73.120	0.720	-1.250	0.660
2020/01/31 18:38:07.9	73.100	0.700	-1.130	0.630
2020/01/31 18:38:08.0	73.080	0.670	-1.010	0.600
2020/01/31 18:38:08.1	73.060	0.640	-0.880	0.580
2020/01/31 18:38:08.2	73.030	0.600	-0.740	0.550
2020/01/31 18:38:08.3	73.000	0.550	-0.610	0.530
2020/01/31 18:38:08.4	72.970	0.510	-0.470	0.510
2020/01/31 18:38:08.5	72.930	0.460	-0.330	0.490
2020/01/31 18:38:08.6	72.890	0.400	-0.200	0.470
2020/01/31 18:38:08.7	72.850	0.340	-0.060	0.440
2020/01/31 18:38:08.8	72.810	0.290	0.070	0.420
2020/01/31 18:38:08.9	72.760	0.230	0.200	0.400
2020/01/31 18:38:09.0	72.720	0.170	0.320	0.380
2020/01/31 18:38:09.1	72.670	0.110	0.430	0.350
2020/01/31 18:38:09.2	72.620	0.050	0.540	0.320
2020/01/31 18:38:09.3	72.580	-0.010	0.640	0.290
2020/01/31 18:38:09.4	72.530	-0.060	0.730	0.260
2020/01/31 18:38:09.5	72.490	-0.120	0.820	0.220
2020/01/31 18:38:09.6	72.450	-0.160	0.890	0.180
2020/01/31 18:38:09.7	72.410	-0.210	0.950	0.130
2020/01/31 18:38:09.8	72.380	-0.250	1.000	0.070
2020/01/31 18:38:09.9	72.350	-0.290	1.040	0.010
2020/01/31 18:38:10.0	72.320	-0.320	1.070	-0.050
2020/01/31 18:38:10.1	72.290	-0.340	1.080	-0.120
2020/01/31 18:38:10.2	72.270	-0.370	1.090	-0.190
2020/01/31 18:38:10.3	72.260	-0.380	1.080	-0.270
2020/01/31 18:38:10.4	72.240	-0.390	1.060	-0.360
2020/01/31 18:38:10.5	72.230	-0.390	1.040	-0.450
2020/01/31 18:38:10.6	72.230	-0.390	1.000	-0.540
2020/01/31 18:38:10.7	72.230	-0.380	0.950	-0.630
2020/01/31 18:38:10.8	72.230	-0.370	0.890	-0.730
2020/01/31 18:38:10.9	72.240	-0.350	0.830	-0.830
2020/01/31 18:38:11.0	72.250	-0.320	0.760	-0.930
2020/01/31 18:38:11.1	72.270	-0.290	0.680	-1.040
2020/01/31 18:38:11.2	72.280	-0.260	0.600	-1.140
2020/01/31 18:38:11.3	72.300	-0.220	0.520	-1.240
2020/01/31 18:38:11.4	72.320	-0.180	0.430	-1.340
2020/01/31 18:38:11.5	72.340	-0.140	0.340	-1.440
2020/01/31 18:38:11.6	72.370	-0.090	0.250	-1.530
2020/01/31 18:38:11.7	72.390	-0.040	0.160	-1.620
2020/01/31 18:38:11.8	72.410	0.010	0.070	-1.710
2020/01/31 18:38:11.9	72.440	0.060	-0.020	-1.790
2020/01/31 18:38:12.0	72.470	0.110	-0.110	-1.870
2020/01/31 18:38:12.1	72.490	0.160	-0.190	-1.950
2020/01/31 18:38:12.2	72.520	0.210	-0.270	-2.010
2020/01/31 18:38:12.3	72.540	0.260	-0.340	-2.080
2020/01/31 18:38:12.4	72.560	0.300	-0.410	-2.130
2020/01/31 18:38:12.5	72.580	0.340	-0.480	-2.180
2020/01/31 18:38:12.6	72.600	0.390	-0.540	-2.230
2020/01/31 18:38:12.7	72.620	0.420	-0.590	-2.260
2020/01/31 18:38:12.8	72.640	0.450	-0.640	-2.290
2020/01/31 18:38:12.9	72.650	0.480	-0.680	-2.320
2020/01/31 18:38:13.0	72.670	0.510	-0.710	-2.330
2020/01/31 18:38:13.1	72.680	0.530	-0.740	-2.340
2020/01/31 18:38:13.2	72.700	0.540	-0.760	-2.350
2020/01/31 18:38:13.3	72.710	0.550	-0.770	-2.340
2020/01/31 18:38:13.4	72.720	0.560	-0.780	-2.330
2020/01/31 18:38:13.5	72.730	0.560	-0.780	-2.320
2020/01/31 18:38:13.6	72.740	0.550	-0.780	-2.300
2020/01/31 18:38:13.7	72.750	0.540	-0.770	-2.270
2020/01/31 18:38:13.8	72.770	0.530	-0.760	-2.230
2020/01/31 18:38:13.9	72.780	0.510	-0.740	-2.200
2020/01/31 18:38:14.0	72.790	0.490	-0.720	-2.160
2020/01/31 18:38:14.1	72.800	0.460	-0.690	-2.110
2020/01/31 18:38:14.2	72.810	0.430	-0.660	-2.060
2020/01/31 18:38:14.3	72.820	0.390	-0.620	-2.010
2020/01/31 18:38:14.4	72.830	0.350	-0.580	-1.960
2020/01/31 18:38:14.5	72.850	0.310	-0.540	-1.900
2020/01/31 18:38:14.6	72.860	0.270	-0.500	-1.830
2020/01/31 18:38:14.7	72.870	0.220	-0.450	-1.770
2020/01/31 18:38:14.8	72.890	0.170	-0.410	-1.700
2020/01/31 18:38:14.9	72.900	0.130	-0.360	-1.620
2020/01/31 18:38:15.0	72.910	0.080	-0.310	-1.550
2020/01/31 18:38:15.1	72.920	0.030	-0.260	-1.470
2020/01/31 18:38:15.2	72.940	-0.020	-0.210	-1.390
2020/01/31 18:38:15.3	72.950	-0.060	-0.170	-1.310
2020/01/31 18:38:15.4	72.960	-0.110	-0.120	-1.220
2020/01/31 18:38:15.5	72.980	-0.150	-0.070	-1.130
2020/01/31 18:38:15.6	72.990	-0.190	-0.030	-1.040
2020/01/31 18:38:15.7	73.000	-0.230	0.020	-0.950
2020/01/31 18:38:15.8	73.020	-0.270	0.060	-0.850
2020/01/31 18:38:15.9	73.030	-0.300	0.100	-0.750
2020/01/31 18:38:16.0	73.040	-0.330	0.130	-0.640
2020/01/31 18:38:16.1	73.040	-0.360	0.170	-0.540
2020/01/31 18:38:16.2	73.050	-0.380	0.200	-0.430
2020/01/31 18:38:16.3	73.060	-0.400	0.230	-0.320
2020/01/31 18:38:16.4	73.060	-0.410	0.260	-0.210
2020/01/31 18:38:16.5	73.060	-0.420	0.290	-0.090
2020/01/31 18:38:16.6	73.070	-0.430	0.310	0.020
2020/01/31 18:38:16.7	73.070	-0.440	0.330	0.140
2020/01/31 18:38:16.8	73.070	-0.440	0.350	0.260
2020/01/31 18:38:16.9	73.060	-0.430	0.360	0.380
2020/01/31 18:38:17.0	73.060	-0.430	0.370	0.490
2020/01/31 18:38:17.1	73.060	-0.420	0.380	0.610
2020/01/31 18:38:17.2	73.060	-0.410	0.380	0.730
2020/01/31 18:38:17.3	73.050	-0.390	0.380	0.840
2020/01/31 18:38:17.4	73.050	-0.380	0.370	0.950
2020/01/31 18:38:17.5	73.040	-0.360	0.370	1.060
2020/01/31 18:38:17.6	73.030	-0.340	0.350	1.170
2020/01/31 18:38:17.7	73.030	-0.310	0.340	1.280
2020/01/31 18:38:17.8	73.030	-0.290	0.320	1.380
2020/01/31 18:38:17.9	73.030	-0.260	0.300	1.480
2020/01/31 18:38:18.0	73.020	-0.240	0.270	1.580
2020/01/31 18:38:18.1	73.010	-0.210	0.240	1.670
2020/01/31 18:38:18.2	73.010	-0.180	0.210	1.760
2020/01/31 18:38:18.3	73.000	-0.150	0.170	1.840
2020/01/31 18:38:18.4	72.990	-0.130	0.130	1.920
2020/01/31 18:38:18.5	72.990	-0.100	0.090	2.000
2020/01/31 18:38:18.6	72.980	-0.070	0.040	2.070
2020/01/31 18:38:18.7	72.970	-0.050	-0.000	2.140
2020/01/31 18:38:18.8	72.950	-0.020	-0.060	2.210
2020/01/31 18:38:18.9	72.940	0.000	-0.100	2.270
2020/01/31 18:38:19.0	72.930	0.030	-0.150	2.320
2020/01/31 18:38:19.1	72.920	0.050	-0.210	2.370
2020/01/31 18:38:19.2	72.910	0.070	-0.260	2.410
2020/01/31 18:38:19.3	72.900	0.090	-0.310	2.450
2020/01/31 18:38:19.4	72.890	0.100	-0.360	2.490
2020/01/31 18:38:19.5	72.880	0.120	-0.410	2.520
2020/01/31 18:38:19.6	72.870	0.130	-0.460	2.540
2020/01/31 18:38:19.7	72.870	0.140	-0.510	2.560
2020/01/31 18:38:19.8	72.860	0.150	-0.550	2.580
2020/01/31 18:38:19.9	72.850	0.160	-0.600	2.590
2020/01/31 18:38:20.0	72.840	0.170	-0.640	2.590
2020/01/31 18:38:20.1	72.840	0.170	-0.680	2.590
2020/01/31 18:38:20.2	72.830	0.170	-0.720	2.590
2020/01/31 18:38:20.3	72.830	0.170	-0.760	2.580
2020/01/31 18:38:20.4	72.830	0.170	-0.790	2.570
2020/01/31 18:38:20.5	72.840	0.170	-0.820	2.550
2020/01/31 18:38:20.6	72.840	0.170	-0.850	2.520
2020/01/31 18:38:20.7	72.850	0.160	-0.870	2.490
2020/01/31 18:38:20.8	72.850	0.150	-0.900	2.460
2020/01/31 18:38:20.9	72.870	0.150	-0.910	2.420
2020/01/31 18:38:21.0	72.880	0.140	-0.930	2.380
2020/01/31 18:38:21.1	72.900	0.130	-0.940	2.330
2020/01/31 18:38:21.2	72.910	0.120	-0.950	2.280
2020/01/31 18:38:21.3	72.940	0.100	-0.950	2.220
2020/01/31 18:38:21.4	72.960	0.090	-0.950	2.160
2020/01/31 18:38:21.5	72.980	0.080	-0.950	2.100
2020/01/31 18:38:21.6	73.010	0.060	-0.940	2.040
2020/01/31 18:38:21.7	73.040	0.050	-0.920	1.970
2020/01/31 18:38:21.8	73.060	0.040	-0.900	1.890
2020/01/31 18:38:21.9	73.090	0.020	-0.880	1.820
2020/01/31 18:38:22.0	73.120	0.010	-0.850	1.740
2020/01/31 18:38:22.1	73.150	-0.010	-0.820	1.660
2020/01/31 18:38:22.2	73.180	-0.020	-0.780	1.580
2020/01/31 18:38:22.3	73.210	-0.040	-0.740	1.490
2020/01/31 18:38:22.4	73.240	-0.050	-0.690	1.410
2020/01/31 18:38:22.5	73.270	-0.060	-0.640	1.320
2020/01/31 18:38:22.6	73.300	-0.080	-0.580	1.240
2020/01/31 18:38:22.7	73.320	-0.090	-0.520	1.150
2020/01/31 18:38:22.8	73.350	-0.100	-0.450	1.060
2020/01/31 18:38:22.9	73.370	-0.120	-0.380	0.970
2020/01/31 18:38:23.0	73.390	-0.130	-0.310	0.890
2020/01/31 18:38:23.1	73.410	-0.140	-0.230	0.810
2020/01/31 18:38:23.2	73.430	-0.150	-0.150	0.720
2020/01/31 18:38:23.3	73.440	-0.170	-0.070	0.640
2020/01/31 18:38:23.4	73.450	-0.180	0.010	0.560
2020/01/31 18:38:23.5	73.460	-0.190	0.100	0.490
2020/01/31 18:38:23.6	73.470	-0.200	0.180	0.410
2020/01/31 18:38:23.7	73.470	-0.210	0.270	0.340
2020/01/31 18:38:23.8	73.490	-0.220	0.350	0.270
2020/01/31 18:38:23.9	73.480	-0.230	0.430	0.200
2020/01/31 18:38:24.0	73.480	-0.240	0.510	0.140
2020/01/31 18:38:24.1	73.470	-0.250	0.580	0.070
2020/01/31 18:38:24.2	73.470	-0.260	0.650	0.010
2020/01/31 18:38:24.3	73.460	-0.270	0.720	-0.050
2020/01/31 18:38:24.4	73.440	-0.270	0.780	-0.110
2020/01/31 18:38:24.5	73.430	-0.280	0.830	-0.170
2020/01/31 18:38:24.6	73.420	-0.290	0.880	-0.230
2020/01/31 18:38:24.7	73.400	-0.290	0.920	-0.280
2020/01/31 18:38:24.8	73.380	-0.290	0.950	-0.340
2020/01/31 18:38:24.9	73.370	-0.290	0.980	-0.390
2020/01/31 18:38:25.0	73.350	-0.290	0.990	-0.450
2020/01/31 18:38:25.1	73.330	-0.290	1.000	-0.500
2020/01/31 18:38:25.2	73.320	-0.280	1.000	-0.560
2020/01/31 18:38:25.3	73.300	-0.280	0.990	-0.620
2020/01/31 18:38:25.4	73.280	-0.270	0.970	-0.670
2020/01/31 18:38:25.5	73.270	-0.260	0.940	-0.730
2020/01/31 18:38:25.6	73.250	-0.240	0.900	-0.780
2020/01/31 18:38:25.7	73.240	-0.230	0.850	-0.840
2020/01/31 18:38:25.8	73.220	-0.210	0.790	-0.900
2020/01/31 18:38:25.9	73.210	-0.190	0.720	-0.960
2020/01/31 18:38:26.0	73.200	-0.160	0.650	-1.020
2020/01/31 18:38:26.1	73.190	-0.140	0.570	-1.080
2020/01/31 18:38:26.2	73.180	-0.110	0.480	-1.140
2020/01/31 18:38:26.3	73.180	-0.080	0.390	-1.210
2020/01/31 18:38:26.4	73.180	-0.050	0.290	-1.270
2020/01/31 18:38:26.5	73.180	-0.020	0.180	-1.340
2020/01/31 18:38:26.6	73.190	0.020	0.070	-1.400
2020/01/31 18:38:26.7	73.190	0.060	-0.040	-1.470
2020/01/31 18:38:26.8	73.190	0.100	-0.160	-1.530
2020/01/31 18:38:26.9	73.210	0.140	-0.280	-1.600
2020/01/31 18:38:27.0	73.220	0.180	-0.400	-1.660
2020/01/31 18:38:27.1	73.230	0.220	-0.520	-1.720
2020/01/31 18:38:27.2	73.250	0.260	-0.630	-1.790
2020/01/31 18:38:27.3	73.260	0.300	-0.750	-1.850
2020/01/31 18:38:27.4	73.280	0.340	-0.860	-1.900
2020/01/31 18:38:27.5	73.300	0.380	-0.970	-1.960
2020/01/31 18:38:27.6	73.320	0.420	-1.070	-2.010
2020/01/31 18:38:27.7	73.340	0.450	-1.160	-2.060
2020/01/31 18:38:27.8	73.350	0.490	-1.250	-2.100
2020/01/31 18:38:27.9	73.370	0.520	-1.340	-2.140
2020/01/31 18:38:28.0	73.390	0.550	-1.410	-2.170
2020/01/31 18:38:28.1	73.410	0.580	-1.470	-2.200
2020/01/31 18:38:28.2	73.430	0.610	-1.520	-2.230
2020/01/31 18:38:28.3	73.450	0.630	-1.570	-2.250
2020/01/31 18:38:28.4	73.460	0.650	-1.600	-2.260
2020/01/31 18:38:28.5	73.480	0.660	-1.620	-2.270
2020/01/31 18:38:28.6	73.500	0.680	-1.630	-2.270
2020/01/31 18:38:28.7	73.510	0.680	-1.630	-2.270
2020/01/31 18:38:28.8	73.530	0.690	-1.620	-2.260
2020/01/31 18:38:28.9	73.540	0.690	-1.590	-2.240
2020/01/31 18:38:29.0	73.550	0.690	-1.560	-2.220
2020/01/31 18:38:29.1	73.560	0.680	-1.510	-2.200
2020/01/31 18:38:29.2	73.570	0.670	-1.450	-2.160
2020/01/31 18:38:29.3	73.580	0.650	-1.380	-2.120
2020/01/31 18:38:29.4	73.580	0.640	-1.310	-2.070
2020/01/31 18:38:29.5	73.590	0.610	-1.220	-2.020
2020/01/31 18:38:29.6	73.590	0.590	-1.130	-1.960
2020/01/31 18:38:29.7	73.590	0.560	-1.020	-1.890
2020/01/31 18:38:29.8	73.590	0.530	-0.910	-1.820
2020/01/31 18:38:29.9	73.590	0.490	-0.790	-1.740
2020/01/31 18:38:30.0	73.580	0.450	-0.670	-1.650
2020/01/31 18:38:30.1	73.580	0.420	-0.550	-1.560
2020/01/31 18:38:30.2	73.570	0.370	-0.420	-1.460
2020/01/31 18:38:30.3	73.570	0.330	-0.290	-1.350
2020/01/31 18:38:30.4	73.560	0.280	-0.160	-1.240
2020/01/31 18:38:30.5	73.550	0.240	-0.040	-1.130
2020/01/31 18:38:30.6	73.540	0.190	0.090	-1.010
2020/01/31 18:38:30.7	73.530	0.140	0.220	-0.880
2020/01/31 18:38:30.8	73.510	0.090	0.330	-0.750
2020/01/31 18:38:30.9	73.500	0.050	0.450	-0.620
2020/01/31 18:38:31.0	73.490	-0.000	0.560	-0.490
2020/01/31 18:38:31.1	73.480	-0.050	0.660	-0.360
2020/01/31 18:38:31.2	73.480	-0.100	0.760	-0.220
2020/01/31 18:38:31.3	73.470	-0.140	0.840	-0.090
2020/01/31 18:38:31.4	73.470	-0.180	0.920	0.050
2020/01/31 18:38:31.5	73.460	-0.220	0.990	0.180
2020/01/31 18:38:31.6	73.460	-0.260	1.040	0.310
2020/01/31 18:38:31.7	73.460	-0.300	1.090	0.440
2020/01/31 18:38:31.8	73.470	-0.330	1.120	0.570
2020/01/31 18:38:31.9	73.480	-0.360	1.150	0.700
2020/01/31 18:38:32.0	73.490	-0.390	1.160	0.830
2020/01/31 18:38:32.1	73.500	-0.410	1.160	0.950
2020/01/31 18:38:32.2	73.510	-0.430	1.140	1.070
2020/01/31 18:38:32.3	73.520	-0.450	1.120	1.190
2020/01/31 18:38:32.4	73.530	-0.460	1.090	1.300
2020/01/31 18:38:32.5	73.550	-0.470	1.050	1.410
2020/01/31 18:38:32.6	73.560	-0.480	0.990	1.520
2020/01/31 18:38:32.7	73.580	-0.480	0.930	1.630
2020/01/31 18:38:32.8	73.600	-0.480	0.860	1.740
2020/01/31 18:38:32.9	73.620	-0.470	0.790	1.840
2020/01/31 18:38:33.0	73.630	-0.470	0.700	1.930
2020/01/31 18:38:33.1	73.650	-0.460	0.620	2.020
2020/01/31 18:38:33.2	73.670	-0.440	0.520	2.110
2020/01/31 18:38:33.3	73.690	-0.430	0.430	2.200
2020/01/31 18:38:33.4	73.710	-0.410	0.330	2.280
2020/01/31 18:38:33.5	73.730	-0.390	0.230	2.360
2020/01/31 18:38:33.6	73.750	-0.370	0.120	2.430
2020/01/31 18:38:33.7	73.760	-0.340	0.020	2.500
2020/01/31 18:38:33.8	73.790	-0.320	-0.080	2.570
2020/01/31 18:38:33.9	73.810	-0.290	-0.190	2.630
2020/01/31 18:38:34.0	73.830	-0.260	-0.290	2.690
2020/01/31 18:38:34.1	73.850	-0.230	-0.380	2.750
2020/01/31 18:38:34.2	73.870	-0.200	-0.470	2.790
2020/01/31 18:38:34.3	73.890	-0.170	-0.560	2.840
2020/01/31 18:38:34.4	73.910	-0.140	-0.650	2.880
2020/01/31 18:38:34.5	73.930	-0.110	-0.720	2.910
2020/01/31 18:38:34.6	73.950	-0.090	-0.790	2.950
2020/01/31 18:38:34.7	73.970	-0.060	-0.860	2.970
2020/01/31 18:38:34.8	74.000	-0.030	-0.920	3.000
2020/01/31 18:38:34.9	74.020	-0.010	-0.960	3.010
2020/01/31 18:38:35.0	74.030	0.020	-1.000	3.030
2020/01/31 18:38:35.1	74.050	0.040	-1.030	3.040
2020/01/31 18:38:35.2	74.070	0.060	-1.050	3.050
2020/01/31 18:38:35.3	74.090	0.080	-1.060	3.050
2020/01/31 18:38:35.4	74.100	0.100	-1.070	3.050
2020/01/31 18:38:35.5	74.110	0.110	-1.060	3.040
2020/01/31 18:38:35.6	74.120	0.120	-1.040	3.030
2020/01/31 18:38:35.7	74.130	0.130	-1.020	3.010
2020/01/31 18:38:35.8	74.130	0.140	-0.980	2.990
2020/01/31 18:38:35.9	74.140	0.140	-0.940	2.960
2020/01/31 18:38:36.0	74.150	0.140	-0.900	2.920
2020/01/31 18:38:36.1	74.150	0.140	-0.850	2.880
2020/01/31 18:38:36.2	74.150	0.140	-0.790	2.830
2020/01/31 18:38:36.3	74.150	0.130	-0.730	2.770
2020/01/31 18:38:36.4	74.150	0.120	-0.670	2.710
2020/01/31 18:38:36.5	74.150	0.110	-0.600	2.640
2020/01/31 18:38:36.6	74.140	0.090	-0.530	2.570
2020/01/31 18:38:36.7	74.130	0.080	-0.460	2.490
2020/01/31 18:38:36.8	74.150	0.060	-0.390	2.410
2020/01/31 18:38:36.9	74.140	0.040	-0.320	2.320
2020/01/31 18:38:37.0	74.120	0.010	-0.240	2.230
2020/01/31 18:38:37.1	74.110	-0.010	-0.170	2.130
2020/01/31 18:38:37.2	74.090	-0.040	-0.100	2.030
2020/01/31 18:38:37.3	74.070	-0.060	-0.040	1.930
2020/01/31 18:38:37.4	74.050	-0.090	0.030	1.830
2020/01/31 18:38:37.5	74.030	-0.120	0.100	1.720
2020/01/31 18:38:37.6	74.010	-0.150	0.160	1.610
2020/01/31 18:38:37.7	73.990	-0.180	0.210	1.500
2020/01/31 18:38:37.8	73.970	-0.200	0.270	1.390
2020/01/31 18:38:37.9	73.940	-0.230	0.320	1.280
2020/01/31 18:38:38.0	73.920	-0.260	0.360	1.160
2020/01/31 18:38:38.1	73.890	-0.290	0.410	1.040
2020/01/31 18:38:38.2	73.870	-0.310	0.440	0.930
2020/01/31 18:38:38.3	73.840	-0.330	0.470	0.810
2020/01/31 18:38:38.4	73.820	-0.350	0.490	0.680
2020/01/31 18:38:38.5	73.790	-0.370	0.510	0.560
2020/01/31 18:38:38.6	73.770	-0.390	0.520	0.430
2020/01/31 18:38:38.7	73.750	-0.400	0.530	0.310
2020/01/31 18:38:38.8	73.720	-0.410	0.530	0.170
2020/01/31 18:38:38.9	73.700	-0.420	0.520	0.040
2020/01/31 18:38:39.0	73.690	-0.430	0.500	-0.090
2020/01/31 18:38:39.1	73.680	-0.430	0.480	-0.220
2020/01/31 18:38:39.2	73.670	-0.420	0.450	-0.360
2020/01/31 18:38:39.3	73.670	-0.410	0.420	-0.490
2020/01/31 18:38:39.4	73.670	-0.400	0.380	-0.630
2020/01/31 18:38:39.5	73.670	-0.390	0.330	-0.760
2020/01/31 18:38:39.6	73.680	-0.370	0.280	-0.900
2020/01/31 18:38:39.7	73.680	-0.340	0.220	-1.030
2020/01/31 18:38:39.8	73.690	-0.310	0.160	-1.170
2020/01/31 18:38:39.9	73.700	-0.280	0.090	-1.300
2020/01/31 18:38:40.0	73.720	-0.240	0.020	-1.430
2020/01/31 18:38:40.1	73.740	-0.200	-0.050	-1.560
2020/01/31 18:38:40.2	73.760	-0.160	-0.120	-1.680
2020/01/31 18:38:40.3	73.790	-0.110	-0.200	-1.800
2020/01/31 18:38:40.4	73.810	-0.070	-0.270	-1.920
2020/01/31 18:38:40.5	73.840	-0.020	-0.350	-2.030
2020/01/31 18:38:40.6	73.870	0.040	-0.420	-2.140
2020/01/31 18:38:40.7	73.900	0.090	-0.500	-2.240
2020/01/31 18:38:40.8	73.930	0.140	-0.570	-2.340
2020/01/31 18:38:40.9	73.960	0.200	-0.630	-2.430
2020/01/31 18:38:41.0	73.980	0.250	-0.700	-2.510
2020/01/31 18:38:41.1	74.010	0.300	-0.760	-2.590
2020/01/31 18:38:41.2	74.040	0.350	-0.810	-2.650
2020/01/31 18:38:41.3	74.060	0.400	-0.860	-2.710
2020/01/31 18:38:41.4	74.090	0.440	-0.900	-2.760
2020/01/31 18:38:41.5	74.110	0.480	-0.930	-2.800
2020/01/31 18:38:41.6	74.120	0.520	-0.960	-2.840
2020/01/31 18:38:41.7	74.140	0.560	-0.990	-2.860
2020/01/31 18:38:41.8	74.150	0.590	-1.000	-2.870
2020/01/31 18:38:41.9	74.160	0.610	-1.010	-2.870
2020/01/31 18:38:42.0	74.160	0.630	-1.010	-2.870
2020/01/31 18:38:42.1	74.170	0.650	-1.000	-2.860
2020/01/31 18:38:42.2	74.170	0.660	-0.990	-2.840
2020/01/31 18:38:42.3	74.160	0.660	-0.970	-2.810
2020/01/31 18:38:42.4	74.160	0.660	-0.950	-2.770
2020/01/31 18:38:42.5	74.150	0.660	-0.920	-2.730
2020/01/31 18:38:42.6	74.140	0.650	-0.880	-2.680
2020/01/31 18:38:42.7	74.130	0.630	-0.840	-2.630
2020/01/31 18:38:42.8	74.120	0.610	-0.800	-2.560
2020/01/31 18:38:42.9	74.100	0.580	-0.750	-2.490
2020/01/31 18:38:43.0	74.090	0.550	-0.700	-2.420
2020/01/31 18:38:43.1	74.070	0.520	-0.650	-2.340
2020/01/31 18:38:43.2	74.050	0.480	-0.590	-2.260
2020/01/31 18:38:43.3	74.030	0.440	-0.530	-2.170
2020/01/31 18:38:43.4	74.010	0.400	-0.470	-2.080
2020/01/31 18:38:43.5	73.990	0.350	-0.420	-1.980
2020/01/31 18:38:43.6	73.970	0.300	-0.360	-1.890
2020/01/31 18:38:43.7	73.950	0.250	-0.300	-1.790
2020/01/31 18:38:43.8	73.920	0.200	-0.240	-1.680
2020/01/31 18:38:43.9	73.900	0.150	-0.190	-1.580
2020/01/31 18:38:44.0	73.880	0.100	-0.130	-1.480
2020/01/31 18:38:44.1	73.860	0.040	-0.080	-1.380
2020/01/31 18:38:44.2	73.840	-0.010	-0.030	-1.280
2020/01/31 18:38:44.3	73.830	-0.060	0.010	-1.180
2020/01/31 18:38:44.4	73.810	-0.100	0.060	-1.080
2020/01/31 18:38:44.5	73.800	-0.150	0.100	-0.980
2020/01/31 18:38:44.6	73.790	-0.190	0.140	-0.890
2020/01/31 18:38:44.7	73.780	-0.230	0.170	-0.790
2020/01/31 18:38:44.8	73.780	-0.270	0.200	-0.700
2020/01/31 18:38:44.9	73.770	-0.300	0.230	-0.610
2020/01/31 18:38:45.0	73.770	-0.320	0.250	-0.530
2020/01/31 18:38:45.1	73.760	-0.350	0.270	-0.440
2020/01/31 18:38:45.2	73.760	-0.370	0.290	-0.360
2020/01/31 18:38:45.3	73.760	-0.380	0.300	-0.280
2020/01/31 18:38:45.4	73.770	-0.390	0.310	-0.200
2020/01/31 18:38:45.5	73.770	-0.390	0.310	-0.130
2020/01/31 18:38:45.6	73.780	-0.390	0.310	-0.060
2020/01/31 18:38:45.7	73.790	-0.380	0.310	0.010
2020/01/31 18:38:45.8	73.800	-0.370	0.300	0.090
2020/01/31 18:38:45.9	73.820	-0.360	0.290	0.150
2020/01/31 18:38:46.0	73.830	-0.340	0.280	0.220
2020/01/31 18:38:46.1	73.850	-0.320	0.270	0.280
2020/01/31 18:38:46.2	73.870	-0.290	0.250	0.340
2020/01/31 18:38:46.3	73.890	-0.270	0.230	0.400
2020/01/31 18:38:46.4	73.910	-0.230	0.210	0.460
2020/01/31 18:38:46.5	73.940	-0.200	0.190	0.520
2020/01/31 18:38:46.6	73.960	-0.160	0.170	0.580
2020/01/31 18:38:46.7	73.990	-0.130	0.140	0.640
2020/01/31 18:38:46.8	74.010	-0.090	0.120	0.700
2020/01/31 18:38:46.9	74.040	-0.050	0.100	0.760
2020/01/31 18:38:47.0	74.070	-0.010	0.070	0.820
2020/01/31 18:38:47.1	74.100	0.030	0.050	0.880
2020/01/31 18:38:47.2	74.120	0.070	0.020	0.950
2020/01/31 18:38:47.3	74.150	0.100	0.000	1.010
2020/01/31 18:38:47.4	74.180	0.140	-0.020	1.070
2020/01/31 18:38:47.5	74.210	0.170	-0.040	1.140
2020/01/31 18:38:47.6	74.240	0.200	-0.060	1.200
2020/01/31 18:38:47.7	74.260	0.230	-0.080	1.270
2020/01/31 18:38:47.8	74.290	0.260	-0.090	1.340
2020/01/31 18:38:47.9	74.320	0.290	-0.110	1.410
2020/01/31 18:38:48.0	74.340	0.310	-0.120	1.480
2020/01/31 18:38:48.1	74.370	0.320	-0.130	1.540
2020/01/31 18:38:48.2	74.390	0.340	-0.140	1.610
2020/01/31 18:38:48.3	74.410	0.350	-0.140	1.680
2020/01/31 18:38:48.4	74.420	0.360	-0.150	1.740
2020/01/31 18:38:48.5	74.440	0.360	-0.150	1.810
2020/01/31 18:38:48.6	74.450	0.360	-0.160	1.880
2020/01/31 18:38:48.7	74.470	0.360	-0.160	1.940
2020/01/31 18:38:48.8	74.490	0.350	-0.160	2.000
2020/01/31 18:38:48.9	74.500	0.350	-0.160	2.060
2020/01/31 18:38:49.0	74.510	0.330	-0.150	2.120
2020/01/31 18:38:49.1	74.510	0.320	-0.150	2.170
2020/01/31 18:38:49.2	74.520	0.300	-0.140	2.220
2020/01/31 18:38:49.3	74.530	0.280	-0.130	2.270
2020/01/31 18:38:49.4	74.530	0.260	-0.130	2.320
2020/01/31 18:38:49.5	74.540	0.230	-0.120	2.360
2020/01/31 18:38:49.6	74.540	0.200	-0.110	2.390
2020/01/31 18:38:49.7	74.540	0.180	-0.100	2.430
2020/01/31 18:38:49.8	74.550	0.150	-0.090	2.450
2020/01/31 18:38:49.9	74.560	0.120	-0.080	2.480
2020/01/31 18:38:50.0	74.560	0.080	-0.070	2.500
2020/01/31 18:38:50.1	74.560	0.050	-0.060	2.510
2020/01/31 18:38:50.2	74.560	0.020	-0.050	2.530
2020/01/31 18:38:50.3	74.560	-0.010	-0.050	2.530
2020/01/31 18:38:50.4	74.560	-0.040	-0.040	2.530
2020/01/31 18:38:50.5	74.550	-0.080	-0.030	2.530
2020/01/31 18:38:50.6	74.550	-0.110	-0.030	2.530
2020/01/31 18:38:50.7	74.550	-0.140	-0.020	2.520
2020/01/31 18:38:50.8	74.540	-0.170	-0.020	2.500
2020/01/31 18:38:50.9	74.540	-0.190	-0.020	2.490
2020/01/31 18:38:51.0	74.540	-0.220	-0.020	2.460
2020/01/31 18:38:51.1	74.530	-0.250	-0.020	2.440
2020/01/31 18:38:51.2	74.530	-0.270	-0.020	2.410
2020/01/31 18:38:51.3	74.520	-0.300	-0.030	2.380
2020/01/31 18:38:51.4	74.520	-0.320	-0.030	2.340
2020/01/31 18:38:51.5	74.510	-0.340	-0.040	2.300
2020/01/31 18:38:51.6	74.500	-0.360	-0.050	2.260
2020/01/31 18:38:51.7	74.500	-0.380	-0.060	2.210
2020/01/31 18:38:51.8	74.480	-0.400	-0.070	2.160
2020/01/31 18:38:51.9	74.470	-0.410	-0.080	2.100
2020/01/31 18:38:52.0	74.460	-0.420	-0.100	2.050
2020/01/31 18:38:52.1	74.460	-0.440	-0.110	1.990
2020/01/31 18:38:52.2	74.450	-0.450	-0.130	1.930
2020/01/31 18:38:52.3	74.440	-0.450	-0.150	1.860
2020/01/31 18:38:52.4	74.440	-0.460	-0.170	1.790
2020/01/31 18:38:52.5	74.430	-0.470	-0.190	1.720
2020/01/31 18:38:52.6	74.420	-0.470	-0.210	1.650
2020/01/31 18:38:52.7	74.420	-0.470	-0.230	1.570
2020/01/31 18:38:52.8	74.420	-0.470	-0.260	1.490
2020/01/31 18:38:52.9	74.420	-0.470	-0.280	1.410
2020/01/31 18:38:53.0	74.420	-0.470	-0.310	1.330
2020/01/31 18:38:53.1	74.420	-0.470	-0.330	1.240
2020/01/31 18:38:53.2	74.420	-0.460	-0.360	1.150
2020/01/31 18:38:53.3	74.420	-0.450	-0.380	1.060
2020/01/31 18:38:53.4	74.420	-0.440	-0.400	0.960
2020/01/31 18:38:53.5	74.430	-0.430	-0.430	0.870
2020/01/31 18:38:53.6	74.430	-0.420	-0.450	0.770
2020/01/31 18:38:53.7	74.440	-0.410	-0.470	0.660
2020/01/31 18:38:53.8	74.440	-0.390	-0.490	0.560
2020/01/31 18:38:53.9	74.450	-0.370	-0.510	0.460
2020/01/31 18:38:54.0	74.460	-0.360	-0.530	0.350
2020/01/31 18:38:54.1	74.470	-0.340	-0.540	0.240
2020/01/31 18:38:54.2	74.480	-0.320	-0.560	0.130
2020/01/31 18:38:54.3	74.490	-0.290	-0.570	0.020
2020/01/31 18:38:54.4	74.500	-0.270	-0.570	-0.090
2020/01/31 18:38:54.5	74.500	-0.250	-0.580	-0.200
2020/01/31 18:38:54.6	74.510	-0.220	-0.580	-0.310
2020/01/31 18:38:54.7	74.520	-0.200	-0.580	-0.420
2020/01/31 18:38:54.8	74.530	-0.170	-0.570	-0.530
2020/01/31 18:38:54.9	74.540	-0.150	-0.570	-0.640
2020/01/31 18:38:55.0	74.540	-0.120	-0.560	-0.750
2020/01/31 18:38:55.1	74.550	-0.090	-0.550	-0.850
2020/01/31 18:38:55.2	74.560	-0.070	-0.540	-0.960
2020/01/31 18:38:55.3	74.560	-0.040	-0.520	-1.060
2020/01/31 18:38:55.4	74.570	-0.010	-0.510	-1.160
2020/01/31 18:38:55.5	74.570	0.010	-0.490	-1.260
2020/01/31 18:38:55.6	74.580	0.040	-0.480	-1.350
2020/01/31 18:38:55.7	74.580	0.070	-0.460	-1.440
2020/01/31 18:38:55.8	74.580	0.090	-0.440	-1.530
2020/01/31 18:38:55.9	74.580	0.120	-0.420	-1.620
2020/01/31 18:38:56.0	74.590	0.140	-0.410	-1.700
2020/01/31 18:38:56.1	74.590	0.170	-0.390	-1.780
2020/01/31 18:38:56.2	74.600	0.190	-0.370	-1.850
2020/01/31 18:38:56.3	74.600	0.220	-0.360	-1.920
2020/01/31 18:38:56.4	74.610	0.240	-0.350	-1.980
2020/01/31 18:38:56.5	74.620	0.270	-0.340	-2.040
2020/01/31 18:38:56.6	74.630	0.290	-0.330	-2.100
2020/01/31 18:38:56.7	74.640	0.310	-0.320	-2.150
2020/01/31 18:38:56.8	74.660	0.340	-0.310	-2.190
2020/01/31 18:38:56.9	74.670	0.360	-0.310	-2.230
2020/01/31 18:38:57.0	74.690	0.380	-0.310	-2.270
2020/01/31 18:38:57.1	74.700	0.400	-0.300	-2.300
2020/01/31 18:38:57.2	74.720	0.430	-0.310	-2.330
2020/01/31 18:38:57.3	74.740	0.450	-0.310	-2.350
2020/01/31 18:38:57.4	74.760	0.470	-0.310	-2.370
2020/01/31 18:38:57.5	74.790	0.490	-0.310	-2.380
2020/01/31 18:38:57.6	74.810	0.510	-0.320	-2.390
2020/01/31 18:38:57.7	74.830	0.520	-0.320	-2.390
2020/01/31 18:38:57.8	74.850	0.540	-0.330	-2.380
2020/01/31 18:38:57.9	74.870	0.550	-0.340	-2.370
2020/01/31 18:38:58.0	74.890	0.570	-0.340	-2.350
2020/01/31 18:38:58.1	74.910	0.580	-0.340	-2.320
2020/01/31 18:38:58.2	74.930	0.590	-0.350	-2.290
2020/01/31 18:38:58.3	74.950	0.600	-0.350	-2.250
2020/01/31 18:38:58.4	74.960	0.610	-0.350	-2.210
2020/01/31 18:38:58.5	74.970	0.610	-0.340	-2.150
2020/01/31 18:38:58.6	74.970	0.610	-0.330	-2.090
2020/01/31 18:38:58.7	74.980	0.610	-0.330	-2.030
2020/01/31 18:38:58.8	74.980	0.610	-0.310	-1.950
2020/01/31 18:38:58.9	74.980	0.600	-0.300	-1.870
2020/01/31 18:38:59.0	74.970	0.590	-0.270	-1.790
2020/01/31 18:38:59.1	74.960	0.580	-0.250	-1.700
2020/01/31 18:38:59.2	74.950	0.570	-0.220	-1.610
2020/01/31 18:38:59.3	74.930	0.550	-0.190	-1.510
2020/01/31 18:38:59.4	74.910	0.530	-0.150	-1.410
2020/01/31 18:38:59.5	74.880	0.500	-0.120	-1.310
2020/01/31 18:38:59.6	74.860	0.470	-0.070	-1.200
2020/01/31 18:38:59.7	74.830	0.440	-0.030	-1.090
2020/01/31 18:38:59.8	74.810	0.410	0.020	-0.970
2020/01/31 18:38:59.9	74.780	0.370	0.070	-0.860
2020/01/31 18:39:00.0	74.740	0.330	0.120	-0.740
2020/01/31 18:39:00.1	74.710	0.290	0.170	-0.630
2020/01/31 18:39:00.2	74.670	0.250	0.220	-0.510
2020/01/31 18:39:00.3	74.630	0.200	0.270	-0.400
2020/01/31 18:39:00.4	74.600	0.160	0.320	-0.280
2020/01/31 18:39:00.5	74.560	0.110	0.360	-0.170
2020/01/31 18:39:00.6	74.530	0.060	0.410	-0.060
2020/01/31 18:39:00.7	74.500	0.010	0.450	0.050
2020/01/31 18:39:00.8	74.460	-0.050	0.490	0.150
2020/01/31 18:39:00.9	74.430	-0.100	0.530	0.260
2020/01/31 18:39:01.0	74.410	-0.150	0.560	0.350
2020/01/31 18:39:01.1	74.390	-0.200	0.590	0.440
2020/01/31 18:39:01.2	74.370	-0.250	0.610	0.530
2020/01/31 18:39:01.3	74.350	-0.300	0.630	0.620
2020/01/31 18:39:01.4	74.330	-0.350	0.650	0.690
2020/01/31 18:39:01.5	74.320	-0.390	0.650	0.770
2020/01/31 18:39:01.6	74.310	-0.440	0.660	0.840
2020/01/31 18:39:01.7	74.310	-0.480	0.650	0.900
2020/01/31 18:39:01.8	74.310	-0.510	0.640	0.960
2020/01/31 18:39:01.9	74.310	-0.550	0.630	1.020
2020/01/31 18:39:02.0	74.310	-0.580	0.610	1.070
2020/01/31 18:39:02.1	74.320	-0.610	0.580	1.110
2020/01/31 18:39:02.2	74.330	-0.630	0.550	1.160
2020/01/31 18:39:02.3	74.340	-0.650	0.520	1.200
2020/01/31 18:39:02.4	74.350	-0.670	0.480	1.230
2020/01/31 18:39:02.5	74.370	-0.680	0.430	1.260
2020/01/31 18:39:02.6	74.390	-0.680	0.380	1.290
2020/01/31 18:39:02.7	74.410	-0.680	0.330	1.310
2020/01/31 18:39:02.8	74.450	-0.680	0.270	1.340
2020/01/31 18:39:02.9	74.480	-0.670	0.210	1.360
2020/01/31 18:39:03.0	74.510	-0.660	0.140	1.370
2020/01/31 18:39:03.1	74.550	-0.650	0.080	1.380
2020/01/31 18:39:03.2	74.590	-0.630	0.010	1.400
2020/01/31 18:39:03.3	74.630	-0.600	-0.060	1.400
2020/01/31 18:39:03.4	74.670	-0.570	-0.130	1.410
2020/01/31 18:39:03.5	74.720	-0.540	-0.200	1.420
2020/01/31 18:39:03.6	74.770	-0.510	-0.270	1.420
2020/01/31 18:39:03.7	74.820	-0.470	-0.340	1.430
2020/01/31 18:39:03.8	74.870	-0.430	-0.410	1.430
2020/01/31 18:39:03.9	74.920	-0.390	-0.470	1.430
2020/01/31 18:39:04.0	74.980	-0.340	-0.530	1.440
2020/01/31 18:39:04.1	75.030	-0.290	-0.600	1.440
2020/01/31 18:39:04.2	75.090	-0.250	-0.650	1.440
2020/01/31 18:39:04.3	75.140	-0.200	-0.710	1.440
2020/01/31 18:39:04.4	75.200	-0.150	-0.760	1.440
2020/01/31 18:39:04.5	75.260	-0.100	-0.810	1.440
2020/01/31 18:39:04.6	75.310	-0.060	-0.850	1.440
2020/01/31 18:39:04.7	75.370	-0.010	-0.890	1.440
2020/01/31 18:39:04.8	75.420	0.030	-0.920	1.440
2020/01/31 18:39:04.9	75.470	0.080	-0.950	1.440
2020/01/31 18:39:05.0	75.510	0.120	-0.970	1.450
2020/01/31 18:39:05.1	75.560	0.150	-0.990	1.450
2020/01/31 18:39:05.2	75.600	0.190	-1.000	1.450
2020/01/31 18:39:05.3	75.640	0.220	-1.010	1.460
2020/01/31 18:39:05.4	75.670	0.250	-1.010	1.460
2020/01/31 18:39:05.5	75.700	0.280	-1.010	1.470
2020/01/31 18:39:05.6	75.720	0.300	-1.000	1.470
2020/01/31 18:39:05.7	75.740	0.310	-0.990	1.480
2020/01/31 18:39:05.8	75.750	0.330	-0.970	1.480
2020/01/31 18:39:05.9	75.760	0.340	-0.950	1.490
2020/01/31 18:39:06.0	75.760	0.340	-0.920	1.500
2020/01/31 18:39:06.1	75.760	0.340	-0.880	1.510
2020/01/31 18:39:06.2	75.750	0.340	-0.850	1.510
2020/01/31 18:39:06.3	75.740	0.340	-0.800	1.520
2020/01/31 18:39:06.4	75.720	0.330	-0.760	1.530
2020/01/31 18:39:06.5	75.700	0.310	-0.700	1.530
2020/01/31 18:39:06.6	75.670	0.300	-0.650	1.540
2020/01/31 18:39:06.7	75.640	0.280	-0.590	1.550
2020/01/31 18:39:06.8	75.590	0.260	-0.530	1.550
2020/01/31 18:39:06.9	75.550	0.230	-0.460	1.560
2020/01/31 18:39:07.0	75.510	0.200	-0.400	1.560
2020/01/31 18:39:07.1	75.460	0.170	-0.330	1.570
2020/01/31 18:39:07.2	75.420	0.140	-0.270	1.570
2020/01/31 18:39:07.3	75.370	0.110	-0.200	1.570
2020/01/31 18:39:07.4	75.310	0.080	-0.130	1.560
2020/01/31 18:39:07.5	75.260	0.040	-0.070	1.560
2020/01/31 18:39:07.6	75.210	0.010	-0.000	1.550
2020/01/31 18:39:07.7	75.150	-0.030	0.060	1.530
2020/01/31 18:39:07.8	75.090	-0.060	0.120	1.520
2020/01/31 18:39:07.9	75.040	-0.100	0.180	1.500
2020/01/31 18:39:08.0	74.980	-0.130	0.230	1.470
2020/01/31 18:39:08.1	74.920	-0.170	0.280	1.440
2020/01/31 18:39:08.2	74.860	-0.200	0.330	1.410
2020/01/31 18:39:08.3	74.810	-0.230	0.370	1.370
2020/01/31 18:39:08.4	74.750	-0.260	0.410	1.320
2020/01/31 18:39:08.5	74.690	-0.290	0.440	1.270
2020/01/31 18:39:08.6	74.640	-0.310	0.470	1.210
2020/01/31 18:39:08.7	74.580	-0.340	0.490	1.150
2020/01/31 18:39:08.8	74.540	-0.360	0.510	1.090
2020/01/31 18:39:08.9	74.490	-0.380	0.520	1.020
2020/01/31 18:39:09.0	74.440	-0.390	0.520	0.940
2020/01/31 18:39:09.1	74.390	-0.400	0.520	0.860
2020/01/31 18:39:09.2	74.350	-0.410	0.520	0.770
2020/01/31 18:39:09.3	74.310	-0.420	0.510	0.680
2020/01/31 18:39:09.4	74.270	-0.420	0.490	0.590
2020/01/31 18:39:09.5	74.240	-0.420	0.460	0.490
2020/01/31 18:39:09.6	74.210	-0.410	0.440	0.380
2020/01/31 18:39:09.7	74.180	-0.400	0.400	0.280
2020/01/31 18:39:09.8	74.160	-0.390	0.360	0.170
2020/01/31 18:39:09.9	74.150	-0.380	0.320	0.050
2020/01/31 18:39:10.0	74.130	-0.360	0.280	-0.060
2020/01/31 18:39:10.1	74.120	-0.340	0.220	-0.180
2020/01/31 18:39:10.2	74.110	-0.310	0.170	-0.300
2020/01/31 18:39:10.3	74.110	-0.280	0.110	-0.430
2020/01/31 18:39:10.4	74.110	-0.250	0.050	-0.550
2020/01/31 18:39:10.5	74.120	-0.210	-0.020	-0.680
2020/01/31 18:39:10.6	74.130	-0.180	-0.080	-0.810
2020/01/31 18:39:10.7	74.140	-0.130	-0.150	-0.940
2020/01/31 18:39:10.8	74.160	-0.090	-0.220	-1.070
2020/01/31 18:39:10.9	74.180	-0.050	-0.290	-1.200
2020/01/31 18:39:11.0	74.210	0.000	-0.360	-1.330
2020/01/31 18:39:11.1	74.240	0.050	-0.430	-1.460
2020/01/31 18:39:11.2	74.280	0.100	-0.510	-1.590
2020/01/31 18:39:11.3	74.320	0.150	-0.580	-1.730
2020/01/31 18:39:11.4	74.370	0.200	-0.640	-1.860
2020/01/31 18:39:11.5	74.420	0.250	-0.710	-1.980
2020/01/31 18:39:11.6	74.470	0.300	-0.770	-2.110
2020/01/31 18:39:11.7	74.530	0.350	-0.830	-2.240
2020/01/31 18:39:11.8	74.590	0.390	-0.890	-2.350
2020/01/31 18:39:11.9	74.650	0.440	-0.940	-2.470
2020/01/31 18:39:12.0	74.710	0.480	-0.990	-2.580
2020/01/31 18:39:12.1	74.770	0.520	-1.020	-2.690
2020/01/31 18:39:12.2	74.830	0.560	-1.060	-2.790
2020/01/31 18:39:12.3	74.900	0.600	-1.080	-2.880
2020/01/31 18:39:12.4	74.960	0.630	-1.100	-2.960
2020/01/31 18:39:12.5	75.010	0.660	-1.110	-3.030
2020/01/31 18:39:12.6	75.070	0.680	-1.110	-3.090
2020/01/31 18:39:12.7	75.120	0.700	-1.110	-3.150
2020/01/31 18:39:12.8	75.170	0.710	-1.090	-3.190
2020/01/31 18:39:12.9	75.210	0.720	-1.070	-3.210
2020/01/31 18:39:13.0	75.250	0.730	-1.040	-3.230
2020/01/31 18:39:13.1	75.290	0.730	-1.000	-3.240
2020/01/31 18:39:13.2	75.310	0.720	-0.960	-3.230
2020/01/31 18:39:13.3	75.340	0.710	-0.910	-3.210
2020/01/31 18:39:13.4	75.360	0.700	-0.850	-3.180
2020/01/31 18:39:13.5	75.370	0.680	-0.780	-3.140
2020/01/31 18:39:13.6	75.380	0.660	-0.710	-3.080
2020/01/31 18:39:13.7	75.380	0.630	-0.640	-3.010
2020/01/31 18:39:13.8	75.370	0.600	-0.560	-2.930
2020/01/31 18:39:13.9	75.360	0.570	-0.470	-2.840
2020/01/31 18:39:14.0	75.340	0.530	-0.390	-2.740
2020/01/31 18:39:14.1	75.330	0.490	-0.300	-2.620
2020/01/31 18:39:14.2	75.300	0.450	-0.200	-2.500
2020/01/31 18:39:14.3	75.280	0.400	-0.110	-2.370
2020/01/31 18:39:14.4	75.250	0.360	-0.020	-2.230
2020/01/31 18:39:14.5	75.220	0.310	0.070	-2.090
2020/01/31 18:39:14.6	75.180	0.260	0.160	-1.930
2020/01/31 18:39:14.7	75.140	0.200	0.240	-1.770
2020/01/31 18:39:14.8	75.120	0.150	0.330	-1.610
2020/01/31 18:39:14.9	75.080	0.100	0.410	-1.440
2020/01/31 18:39:15.0	75.040	0.050	0.490	-1.260
2020/01/31 18:39:15.1	75.000	-0.010	0.560	-1.080
2020/01/31 18:39:15.2	74.950	-0.060	0.620	-0.900
2020/01/31 18:39:15.3	74.910	-0.110	0.680	-0.720
2020/01/31 18:39:15.4	74.870	-0.160	0.730	-0.540
2020/01/31 18:39:15.5	74.830	-0.210	0.770	-0.360
2020/01/31 18:39:15.6	74.790	-0.250	0.810	-0.180
2020/01/31 18:39:15.7	74.750	-0.300	0.840	0.000
2020/01/31 18:39:15.8	74.730	-0.340	0.860	0.190
2020/01/31 18:39:15.9	74.690	-0.380	0.880	0.360
2020/01/31 18:39:16.0	74.660	-0.420	0.880	0.530
2020/01/31 18:39:16.1	74.630	-0.450	0.880	0.700
2020/01/31 18:39:16.2	74.610	-0.480	0.870	0.870
2020/01/31 18:39:16.3	74.590	-0.500	0.860	1.030
2020/01/31 18:39:16.4	74.570	-0.530	0.830	1.180
2020/01/31 18:39:16.5	74.550	-0.550	0.800	1.330
2020/01/31 18:39:16.6	74.540	-0.560	0.770	1.470
2020/01/31 18:39:16.7	74.530	-0.570	0.730	1.610
2020/01/31 18:39:16.8	74.510	-0.580	0.680	1.740
2020/01/31 18:39:16.9	74.510	-0.580	0.620	1.860
2020/01/31 18:39:17.0	74.510	-0.590	0.570	1.980
2020/01/31 18:39:17.1	74.510	-0.580	0.500	2.090
2020/01/31 18:39:17.2	74.520	-0.570	0.440	2.190
2020/01/31 18:39:17.3	74.530	-0.560	0.370	2.290
2020/01/31 18:39:17.4	74.540	-0.550	0.300	2.380
2020/01/31 18:39:17.5	74.560	-0.530	0.220	2.460
2020/01/31 18:39:17.6	74.580	-0.520	0.150	2.540
2020/01/31 18:39:17.7	74.600	-0.490	0.080	2.600
2020/01/31 18:39:17.8	74.630	-0.470	-0.000	2.670
2020/01/31 18:39:17.9	74.650	-0.440	-0.080	2.730
2020/01/31 18:39:18.0	74.670	-0.420	-0.150	2.780
2020/01/31 18:39:18.1	74.700	-0.390	-0.220	2.820
2020/01/31 18:39:18.2	74.720	-0.360	-0.290	2.860
2020/01/31 18:39:18.3	74.740	-0.330	-0.360	2.900
2020/01/31 18:39:18.4	74.770	-0.300	-0.420	2.930
2020/01/31 18:39:18.5	74.790	-0.270	-0.470	2.950
2020/01/31 18:39:18.6	74.810	-0.240	-0.530	2.970
2020/01/31 18:39:18.7	74.830	-0.210	-0.580	2.990
2020/01/31 18:39:18.8	74.850	-0.180	-0.620	3.010
2020/01/31 18:39:18.9	74.860	-0.160	-0.650	3.020
2020/01/31 18:39:19.0	74.880	-0.130	-0.690	3.020
2020/01/31 18:39:19.1	74.890	-0.110	-0.710	3.030
2020/01/31 18:39:19.2	74.900	-0.090	-0.730	3.030
2020/01/31 18:39:19.3	74.910	-0.070	-0.740	3.020
2020/01/31 18:39:19.4	74.910	-0.050	-0.750	3.020
2020/01/31 18:39:19.5	74.910	-0.040	-0.750	3.010
2020/01/31 18:39:19.6	74.910	-0.030	-0.750	3.000
2020/01/31 18:39:19.7	74.910	-0.020	-0.740	2.980
2020/01/31 18:39:19.8	74.910	-0.010	-0.730	2.960
2020/01/31 18:39:19.9	74.900	-0.010	-0.710	2.940
2020/01/31 18:39:20.0	74.890	-0.000	-0.690	2.920
2020/01/31 18:39:20.1	74.880	-0.000	-0.670	2.890
2020/01/31 18:39:20.2	74.870	-0.000	-0.640	2.860
2020/01/31 18:39:20.3	74.860	-0.010	-0.620	2.820
2020/01/31 18:39:20.4	74.850	-0.010	-0.590	2.780
2020/01/31 18:39:20.5	74.830	-0.010	-0.560	2.730
2020/01/31 18:39:20.6	74.820	-0.020	-0.530	2.680
2020/01/31 18:39:20.7	74.810	-0.030	-0.500	2.620
2020/01/31 18:39:20.8	74.790	-0.030	-0.460	2.560
2020/01/31 18:39:20.9	74.780	-0.040	-0.430	2.490
2020/01/31 18:39:21.0	74.760	-0.040	-0.410	2.420
2020/01/31 18:39:21.1	74.750	-0.050	-0.380	2.350
2020/01/31 18:39:21.2	74.740	-0.060	-0.360	2.260
2020/01/31 18:39:21.3	74.730	-0.060	-0.340	2.180
2020/01/31 18:39:21.4	74.730	-0.060	-0.320	2.090
2020/01/31 18:39:21.5	74.720	-0.060	-0.300	1.990
2020/01/31 18:39:21.6	74.720	-0.060	-0.290	1.890
2020/01/31 18:39:21.7	74.720	-0.060	-0.280	1.780
2020/01/31 18:39:21.8	74.720	-0.060	-0.270	1.670
2020/01/31 18:39:21.9	74.720	-0.050	-0.270	1.560
2020/01/31 18:39:22.0	74.720	-0.050	-0.260	1.440
2020/01/31 18:39:22.1	74.730	-0.040	-0.260	1.320
2020/01/31 18:39:22.2	74.730	-0.030	-0.260	1.200
2020/01/31 18:39:22.3	74.740	-0.020	-0.260	1.070
2020/01/31 18:39:22.4	74.750	-0.000	-0.270	0.940
2020/01/31 18:39:22.5	74.760	0.010	-0.270	0.810
2020/01/31 18:39:22.6	74.770	0.020	-0.280	0.680
2020/01/31 18:39:22.7	74.780	0.040	-0.290	0.550
2020/01/31 18:39:22.8	74.790	0.050	-0.290	0.420
2020/01/31 18:39:22.9	74.800	0.070	-0.300	0.290
2020/01/31 18:39:23.0	74.810	0.090	-0.300	0.160
2020/01/31 18:39:23.1	74.820	0.100	-0.310	0.030
2020/01/31 18:39:23.2	74.820	0.120	-0.310	-0.090
2020/01/31 18:39:23.3	74.830	0.130	-0.320	-0.210
2020/01/31 18:39:23.4	74.830	0.140	-0.320	-0.330
2020/01/31 18:39:23.5	74.830	0.150	-0.320	-0.440
2020/01/31 18:39:23.6	74.830	0.160	-0.320	-0.550
2020/01/31 18:39:23.7	74.820	0.170	-0.320	-0.660
2020/01/31 18:39:23.8	74.810	0.180	-0.310	-0.760
2020/01/31 18:39:23.9	74.800	0.180	-0.300	-0.860
2020/01/31 18:39:24.0	74.790	0.180	-0.300	-0.950
2020/01/31 18:39:24.1	74.770	0.180	-0.280	-1.040
2020/01/31 18:39:24.2	74.750	0.180	-0.270	-1.120
2020/01/31 18:39:24.3	74.730	0.180	-0.260	-1.200
2020/01/31 18:39:24.4	74.710	0.170	-0.240	-1.280
2020/01/31 18:39:24.5	74.690	0.170	-0.230	-1.350
2020/01/31 18:39:24.6	74.670	0.160	-0.210	-1.410
2020/01/31 18:39:24.7	74.640	0.150	-0.190	-1.470
2020/01/31 18:39:24.8	74.630	0.130	-0.170	-1.530
2020/01/31 18:39:24.9	74.600	0.120	-0.140	-1.590
2020/01/31 18:39:25.0	74.570	0.100	-0.120	-1.640
2020/01/31 18:39:25.1	74.550	0.090	-0.100	-1.690
2020/01/31 18:39:25.2	74.520	0.070	-0.080	-1.730
2020/01/31 18:39:25.3	74.490	0.050	-0.060	-1.770
2020/01/31 18:39:25.4	74.470	0.030	-0.040	-1.810
2020/01/31 18:39:25.5	74.440	0.020	-0.020	-1.850
2020/01/31 18:39:25.6	74.420	-0.000	-0.010	-1.880
2020/01/31 18:39:25.7	74.390	-0.020	0.010	-1.920
2020/01/31 18:39:25.8	74.360	-0.040	0.020	-1.950
2020/01/31 18:39:25.9	74.340	-0.050	0.030	-1.980
2020/01/31 18:39:26.0	74.320	-0.070	0.030	-2.000
2020/01/31 18:39:26.1	74.300	-0.080	0.040	-2.030
2020/01/31 18:39:26.2	74.280	-0.100	0.040	-2.060
2020/01/31 18:39:26.3	74.270	-0.110	0.040	-2.080
2020/01/31 18:39:26.4	74.250	-0.120	0.030	-2.100
2020/01/31 18:39:26.5	74.240	-0.120	0.020	-2.120
2020/01/31 18:39:26.6	74.220	-0.130	0.010	-2.140
2020/01/31 18:39:26.7	74.210	-0.130	0.000	-2.150
2020/01/31 18:39:26.8	74.190	-0.130	-0.010	-2.170
2020/01/31 18:39:26.9	74.180	-0.130	-0.030	-2.180
2020/01/31 18:39:27.0	74.170	-0.120	-0.050	-2.180
2020/01/31 18:39:27.1	74.160	-0.120	-0.070	-2.190
2020/01/31 18:39:27.2	74.150	-0.110	-0.090	-2.190
2020/01/31 18:39:27.3	74.140	-0.090	-0.120	-2.190
2020/01/31 18:39:27.4	74.140	-0.080	-0.140	-2.190
2020/01/31 18:39:27.5	74.130	-0.060	-0.170	-2.180
2020/01/31 18:39:27.6	74.130	-0.040	-0.200	-2.170
2020/01/31 18:39:27.7	74.130	-0.020	-0.220	-2.150
2020/01/31 18:39:27.8	74.130	0.000	-0.250	-2.130
2020/01/31 18:39:27.9	74.130	0.030	-0.270	-2.110
2020/01/31 18:39:28.0	74.130	0.050	-0.300	-2.090
2020/01/31 18:39:28.1	74.140	0.080	-0.320	-2.060
2020/01/31 18:39:28.2	74.140	0.110	-0.350	-2.020
2020/01/31 18:39:28.3	74.150	0.140	-0.370	-1.980
2020/01/31 18:39:28.4	74.160	0.170	-0.390	-1.940
2020/01/31 18:39:28.5	74.170	0.200	-0.410	-1.900
2020/01/31 18:39:28.6	74.180	0.230	-0.430	-1.850
2020/01/31 18:39:28.7	74.190	0.260	-0.440	-1.790
2020/01/31 18:39:28.8	74.220	0.290	-0.460	-1.740
2020/01/31 18:39:28.9	74.230	0.320	-0.470	-1.670
2020/01/31 18:39:29.0	74.250	0.350	-0.480	-1.610
2020/01/31 18:39:29.1	74.260	0.370	-0.490	-1.540
2020/01/31 18:39:29.2	74.280	0.400	-0.490	-1.470
2020/01/31 18:39:29.3	74.300	0.420	-0.490	-1.390
2020/01/31 18:39:29.4	74.310	0.440	-0.490	-1.310
2020/01/31 18:39:29.5	74.330	0.460	-0.480	-1.220
2020/01/31 18:39:29.6	74.350	0.480	-0.480	-1.140
2020/01/31 18:39:29.7	74.370	0.490	-0.470	-1.050
2020/01/31 18:39:29.8	74.390	0.500	-0.450	-0.950
2020/01/31 18:39:29.9	74.410	0.510	-0.430	-0.850
2020/01/31 18:39:30.0	74.430	0.520	-0.410	-0.750
2020/01/31 18:39:30.1	74.440	0.520	-0.390	-0.650
2020/01/31 18:39:30.2	74.450	0.520	-0.360	-0.540
2020/01/31 18:39:30.3	74.470	0.520	-0.340	-0.430
2020/01/31 18:39:30.4	74.480	0.510	-0.310	-0.320
2020/01/31 18:39:30.5	74.480	0.500	-0.270	-0.210
2020/01/31 18:39:30.6	74.490	0.490	-0.240	-0.100
2020/01/31 18:39:30.7	74.500	0.470	-0.200	0.020
2020/01/31 18:39:30.8	74.520	0.460	-0.160	0.130
2020/01/31 18:39:30.9	74.520	0.440	-0.120	0.250
2020/01/31 18:39:31.0	74.520	0.410	-0.080	0.360
2020/01/31 18:39:31.1	74.520	0.390	-0.040	0.480
2020/01/31 18:39:31.2	74.520	0.360	0.000	0.590
2020/01/31 18:39:31.3	74.520	0.330	0.040	0.710
2020/01/31 18:39:31.4	74.520	0.300	0.090	0.820
2020/01/31 18:39:31.5	74.520	0.270	0.130	0.930
2020/01/31 18:39:31.6	74.510	0.240	0.170	1.040
2020/01/31 18:39:31.7	74.510	0.200	0.210	1.150
2020/01/31 18:39:31.8	74.510	0.170	0.250	1.260
2020/01/31 18:39:31.9	74.510	0.130	0.290	1.370
2020/01/31 18:39:32.0	74.500	0.100	0.330	1.470
2020/01/31 18:39:32.1	74.500	0.060	0.370	1.570
2020/01/31 18:39:32.2	74.500	0.020	0.400	1.660
2020/01/31 18:39:32.3	74.500	-0.010	0.430	1.760
2020/01/31 18:39:32.4	74.490	-0.050	0.460	1.850
2020/01/31 18:39:32.5	74.490	-0.090	0.490	1.940
2020/01/31 18:39:32.6	74.490	-0.120	0.510	2.020
2020/01/31 18:39:32.7	74.490	-0.160	0.530	2.100
2020/01/31 18:39:32.8	74.490	-0.190	0.540	2.170
2020/01/31 18:39:32.9	74.490	-0.220	0.550	2.250
2020/01/31 18:39:33.0	74.490	-0.250	0.560	2.310
2020/01/31 18:39:33.1	74.490	-0.280	0.560	2.380
2020/01/31 18:39:33.2	74.490	-0.310	0.550	2.430
2020/01/31 18:39:33.3	74.500	-0.340	0.550	2.490
2020/01/31 18:39:33.4	74.500	-0.370	0.530	2.540
2020/01/31 18:39:33.5	74.500	-0.390	0.510	2.580
2020/01/31 18:39:33.6	74.500	-0.410	0.490	2.620
2020/01/31 18:39:33.7	74.510	-0.430	0.450	2.660
2020/01/31 18:39:33.8	74.520	-0.450	0.420	2.690
2020/01/31 18:39:33.9	74.520	-0.470	0.380	2.710
2020/01/31 18:39:34.0	74.530	-0.490	0.340	2.730
2020/01/31 18:39:34.1	74.530	-0.500	0.290	2.750
2020/01/31 18:39:34.2	74.540	-0.510	0.230	2.760
2020/01/31 18:39:34.3	74.550	-0.520	0.180	2.760
2020/01/31 18:39:34.4	74.550	-0.530	0.120	2.760
2020/01/31 18:39:34.5	74.560	-0.530	0.060	2.750
2020/01/31 18:39:34.6	74.570	-0.530	-0.010	2.750
2020/01/31 18:39:34.7	74.580	-0.540	-0.070	2.730
2020/01/31 18:39:34.8	74.590	-0.540	-0.140	2.700
2020/01/31 18:39:34.9	74.590	-0.530	-0.210	2.680
2020/01/31 18:39:35.0	74.600	-0.530	-0.270	2.650
2020/01/31 18:39:35.1	74.610	-0.530	-0.330	2.610
2020/01/31 18:39:35.2	74.620	-0.520	-0.400	2.570
2020/01/31 18:39:35.3	74.620	-0.510	-0.450	2.530
2020/01/31 18:39:35.4	74.630	-0.500	-0.510	2.480
2020/01/31 18:39:35.5	74.640	-0.490	-0.560	2.430
2020/01/31 18:39:35.6	74.640	-0.480	-0.610	2.380
2020/01/31 18:39:35.7	74.640	-0.470	-0.660	2.320
2020/01/31 18:39:35.8	74.640	-0.460	-0.690	2.250
2020/01/31 18:39:35.9	74.640	-0.440	-0.730	2.190
2020/01/31 18:39:36.0	74.640	-0.430	-0.760	2.120
2020/01/31 18:39:36.1	74.630	-0.420	-0.780	2.050
2020/01/31 18:39:36.2	74.630	-0.400	-0.800	1.970
2020/01/31 18:39:36.3	74.620	-0.390	-0.810	1.900
2020/01/31 18:39:36.4	74.610	-0.370	-0.820	1.820
2020/01/31 18:39:36.5	74.600	-0.360	-0.820	1.740
2020/01/31 18:39:36.6	74.580	-0.340	-0.820	1.650
2020/01/31 18:39:36.7	74.570	-0.320	-0.810	1.570
2020/01/31 18:39:36.8	74.550	-0.310	-0.790	1.480
2020/01/31 18:39:36.9	74.530	-0.290	-0.770	1.390
2020/01/31 18:39:37.0	74.510	-0.280	-0.740	1.290
2020/01/31 18:39:37.1	74.490	-0.260	-0.720	1.200
2020/01/31 18:39:37.2	74.470	-0.240	-0.690	1.100
2020/01/31 18:39:37.3	74.440	-0.220	-0.650	1.010
2020/01/31 18:39:37.4	74.420	-0.210	-0.610	0.910
2020/01/31 18:39:37.5	74.400	-0.190	-0.570	0.810
2020/01/31 18:39:37.6	74.370	-0.170	-0.530	0.700
2020/01/31 18:39:37.7	74.350	-0.150	-0.490	0.600
2020/01/31 18:39:37.8	74.330	-0.140	-0.450	0.500
2020/01/31 18:39:37.9	74.310	-0.120	-0.410	0.390
2020/01/31 18:39:38.0	74.280	-0.100	-0.370	0.280
2020/01/31 18:39:38.1	74.260	-0.080	-0.330	0.180
2020/01/31 18:39:38.2	74.230	-0.060	-0.300	0.070
2020/01/31 18:39:38.3	74.210	-0.040	-0.260	-0.040
2020/01/31 18:39:38.4	74.190	-0.010	-0.240	-0.150
2020/01/31 18:39:38.5	74.170	0.010	-0.210	-0.260
2020/01/31 18:39:38.6	74.150	0.030	-0.190	-0.370
2020/01/31 18:39:38.7	74.130	0.060	-0.180	-0.470
2020/01/31 18:39:38.8	74.110	0.080	-0.170	-0.580
2020/01/31 18:39:38.9	74.100	0.110	-0.170	-0.690
2020/01/31 18:39:39.0	74.080	0.130	-0.170	-0.800
2020/01/31 18:39:39.1	74.080	0.160	-0.180	-0.910
2020/01/31 18:39:39.2	74.070	0.190	-0.190	-1.010
2020/01/31 18:39:39.3	74.070	0.210	-0.210	-1.120
2020/01/31 18:39:39.4	74.070	0.240	-0.240	-1.230
2020/01/31 18:39:39.5	74.070	0.270	-0.270	-1.330
2020/01/31 18:39:39.6	74.080	0.300	-0.310	-1.440
2020/01/31 18:39:39.7	74.090	0.330	-0.350	-1.540
2020/01/31 18:39:39.8	74.100	0.360	-0.390	-1.650
2020/01/31 18:39:39.9	74.120	0.390	-0.430	-1.750
2020/01/31 18:39:40.0	74.140	0.420	-0.480	-1.840
2020/01/31 18:39:40.1	74.160	0.450	-0.530	-1.940
2020/01/31 18:39:40.2	74.190	0.470	-0.580	-2.030
2020/01/31 18:39:40.3	74.220	0.500	-0.640	-2.120
2020/01/31 18:39:40.4	74.250	0.530	-0.690	-2.210
2020/01/31 18:39:40.5	74.280	0.550	-0.730	-2.290
2020/01/31 18:39:40.6	74.320	0.580	-0.780	-2.360
2020/01/31 18:39:40.7	74.350	0.600	-0.820	-2.440
2020/01/31 18:39:40.8	74.390	0.620	-0.850	-2.500
2020/01/31 18:39:40.9	74.430	0.630	-0.880	-2.560
2020/01/31 18:39:41.0	74.460	0.650	-0.900	-2.620
2020/01/31 18:39:41.1	74.500	0.660	-0.920	-2.660
2020/01/31 18:39:41.2	74.530	0.670	-0.930	-2.700
2020/01/31 18:39:41.3	74.570	0.680	-0.930	-2.740
2020/01/31 18:39:41.4	74.600	0.690	-0.920	-2.760
2020/01/31 18:39:41.5	74.630	0.690	-0.900	-2.780
2020/01/31 18:39:41.6	74.660	0.680	-0.870	-2.790
2020/01/31 18:39:41.7	74.680	0.680	-0.830	-2.790
2020/01/31 18:39:41.8	74.690	0.670	-0.790	-2.780
2020/01/31 18:39:41.9	74.710	0.650	-0.730	-2.770
2020/01/31 18:39:42.0	74.730	0.640	-0.670	-2.750
2020/01/31 18:39:42.1	74.750	0.610	-0.590	-2.720
2020/01/31 18:39:42.2	74.760	0.590	-0.510	-2.680
2020/01/31 18:39:42.3	74.770	0.560	-0.420	-2.640
2020/01/31 18:39:42.4	74.770	0.520	-0.320	-2.580
2020/01/31 18:39:42.5	74.770	0.480	-0.210	-2.530
2020/01/31 18:39:42.6	74.770	0.440	-0.100	-2.460
2020/01/31 18:39:42.7	74.770	0.390	0.020	-2.390
2020/01/31 18:39:42.8	74.770	0.340	0.140	-2.300
2020/01/31 18:39:42.9	74.760	0.290	0.260	-2.220
2020/01/31 18:39:43.0	74.740	0.230	0.390	-2.120
2020/01/31 18:39:43.1	74.720	0.180	0.510	-2.020
2020/01/31 18:39:43.2	74.700	0.110	0.630	-1.920
2020/01/31 18:39:43.3	74.670	0.050	0.760	-1.810
2020/01/31 18:39:43.4	74.640	-0.010	0.870	-1.690
2020/01/31 18:39:43.5	74.610	-0.080	0.990	-1.570
2020/01/31 18:39:43.6	74.580	-0.140	1.090	-1.440
2020/01/31 18:39:43.7	74.540	-0.210	1.190	-1.310
2020/01/31 18:39:43.8	74.490	-0.270	1.290	-1.170
2020/01/31 18:39:43.9	74.450	-0.330	1.370	-1.030
2020/01/31 18:39:44.0	74.410	-0.390	1.440	-0.890
2020/01/31 18:39:44.1	74.370	-0.450	1.500	-0.740
2020/01/31 18:39:44.2	74.330	-0.510	1.540	-0.600
2020/01/31 18:39:44.3	74.280	-0.560	1.580	-0.450
2020/01/31 18:39:44.4	74.240	-0.610	1.600	-0.300
2020/01/31 18:39:44.5	74.200	-0.660	1.600	-0.160
2020/01/31 18:39:44.6	74.160	-0.700	1.600	-0.010
2020/01/31 18:39:44.7	74.120	-0.730	1.570	0.130
2020/01/31 18:39:44.8	74.090	-0.760	1.530	0.270
2020/01/31 18:39:44.9	74.060	-0.790	1.470	0.410
2020/01/31 18:39:45.0	74.030	-0.810	1.410	0.540
2020/01/31 18:39:45.1	74.000	-0.820	1.320	0.670
2020/01/31 18:39:45.2	73.980	-0.830	1.230	0.790
2020/01/31 18:39:45.3	73.970	-0.830	1.120	0.910
2020/01/31 18:39:45.4	73.960	-0.830	0.990	1.010
2020/01/31 18:39:45.5	73.950	-0.810	0.860	1.110
2020/01/31 18:39:45.6	73.950	-0.800	0.720	1.210
2020/01/31 18:39:45.7	73.950	-0.770	0.560	1.290
2020/01/31 18:39:45.8	73.970	-0.740	0.400	1.380
2020/01/31 18:39:45.9	73.980	-0.710	0.240	1.450
2020/01/31 18:39:46.0	74.000	-0.670	0.060	1.510
2020/01/31 18:39:46.1	74.030	-0.620	-0.110	1.560
2020/01/31 18:39:46.2	74.060	-0.570	-0.290	1.610
2020/01/31 18:39:46.3	74.090	-0.520	-0.470	1.650
2020/01/31 18:39:46.4	74.130	-0.460	-0.640	1.680
2020/01/31 18:39:46.5	74.170	-0.400	-0.820	1.700
2020/01/31 18:39:46.6	74.220	-0.330	-0.990	1.720
2020/01/31 18:39:46.7	74.270	-0.260	-1.150	1.740
2020/01/31 18:39:46.8	74.330	-0.190	-1.310	1.750
2020/01/31 18:39:46.9	74.380	-0.120	-1.450	1.760
2020/01/31 18:39:47.0	74.440	-0.050	-1.580	1.760
2020/01/31 18:39:47.1	74.500	0.030	-1.700	1.760
2020/01/31 18:39:47.2	74.560	0.100	-1.810	1.770
2020/01/31 18:39:47.3	74.610	0.170	-1.900	1.770
2020/01/31 18:39:47.4	74.670	0.240	-1.980	1.770
2020/01/31 18:39:47.5	74.730	0.310	-2.040	1.780
2020/01/31 18:39:47.6	74.780	0.370	-2.080	1.780
2020/01/31 18:39:47.7	74.840	0.430	-2.110	1.790
2020/01/31 18:39:47.8	74.870	0.490	-2.110	1.790
2020/01/31 18:39:47.9	74.920	0.540	-2.100	1.800
2020/01/31 18:39:48.0	74.970	0.590	-2.080	1.810
2020/01/31 18:39:48.1	75.010	0.630	-2.040	1.830
2020/01/31 18:39:48.2	75.050	0.670	-1.980	1.850
2020/01/31 18:39:48.3	75.080	0.700	-1.910	1.870
2020/01/31 18:39:48.4	75.120	0.720	-1.820	1.890
2020/01/31 18:39:48.5	75.140	0.740	-1.720	1.910
2020/01/31 18:39:48.6	75.170	0.750	-1.610	1.930
2020/01/31 18:39:48.7	75.190	0.750	-1.490	1.960
2020/01/31 18:39:48.8	75.210	0.750	-1.350	1.990
2020/01/31 18:39:48.9	75.220	0.740	-1.210	2.020
2020/01/31 18:39:49.0	75.230	0.720	-1.060	2.050
2020/01/31 18:39:49.1	75.240	0.700	-0.910	2.070
2020/01/31 18:39:49.2	75.240	0.680	-0.750	2.100
2020/01/31 18:39:49.3	75.230	0.640	-0.600	2.120
2020/01/31 18:39:49.4	75.220	0.600	-0.440	2.140
2020/01/31 18:39:49.5	75.210	0.560	-0.280	2.170
2020/01/31 18:39:49.6	75.200	0.510	-0.130	2.190
2020/01/31 18:39:49.7	75.180	0.460	0.030	2.210
2020/01/31 18:39:49.8	75.180	0.410	0.180	2.230
2020/01/31 18:39:49.9	75.150	0.350	0.320	2.240
2020/01/31 18:39:50.0	75.130	0.290	0.450	2.260
2020/01/31 18:39:50.1	75.100	0.230	0.570	2.270
2020/01/31 18:39:50.2	75.070	0.170	0.680	2.280
2020/01/31 18:39:50.3	75.040	0.110	0.790	2.290
2020/01/31 18:39:50.4	75.010	0.050	0.880	2.290
2020/01/31 18:39:50.5	74.970	-0.010	0.960	2.300
2020/01/31 18:39:50.6	74.940	-0.070	1.020	2.290
2020/01/31 18:39:50.7	74.900	-0.130	1.080	2.290
2020/01/31 18:39:50.8	74.860	-0.190	1.110	2.280
2020/01/31 18:39:50.9	74.820	-0.240	1.140	2.260
2020/01/31 18:39:51.0	74.780	-0.290	1.160	2.240
2020/01/31 18:39:51.1	74.750	-0.340	1.160	2.210
2020/01/31 18:39:51.2	74.710	-0.380	1.160	2.180
2020/01/31 18:39:51.3	74.680	-0.420	1.140	2.140
2020/01/31 18:39:51.4	74.650	-0.460	1.110	2.090
2020/01/31 18:39:51.5	74.610	-0.490	1.070	2.040
2020/01/31 18:39:51.6	74.590	-0.520	1.020	1.990
2020/01/31 18:39:51.7	74.560	-0.540	0.960	1.920
2020/01/31 18:39:51.8	74.530	-0.560	0.900	1.850
2020/01/31 18:39:51.9	74.500	-0.570	0.830	1.770
2020/01/31 18:39:52.0	74.480	-0.580	0.750	1.690
2020/01/31 18:39:52.1	74.470	-0.580	0.670	1.600
2020/01/31 18:39:52.2	74.450	-0.580	0.580	1.500
2020/01/31 18:39:52.3	74.440	-0.580	0.490	1.390
2020/01/31 18:39:52.4	74.430	-0.570	0.390	1.280
2020/01/31 18:39:52.5	74.420	-0.550	0.290	1.170
2020/01/31 18:39:52.6	74.420	-0.540	0.190	1.050
2020/01/31 18:39:52.7	74.420	-0.510	0.090	0.920
2020/01/31 18:39:52.8	74.430	-0.490	-0.010	0.790
2020/01/31 18:39:52.9	74.430	-0.460	-0.110	0.650
2020/01/31 18:39:53.0	74.440	-0.430	-0.200	0.510
2020/01/31 18:39:53.1	74.450	-0.400	-0.300	0.360
2020/01/31 18:39:53.2	74.460	-0.360	-0.380	0.220
2020/01/31 18:39:53.3	74.470	-0.330	-0.470	0.060
2020/01/31 18:39:53.4	74.490	-0.290	-0.550	-0.090
2020/01/31 18:39:53.5	74.500	-0.250	-0.630	-0.240
2020/01/31 18:39:53.6	74.520	-0.210	-0.700	-0.400
2020/01/31 18:39:53.7	74.540	-0.170	-0.760	-0.550
2020/01/31 18:39:53.8	74.560	-0.130	-0.820	-0.710
2020/01/31 18:39:53.9	74.580	-0.090	-0.870	-0.860
2020/01/31 18:39:54.0	74.600	-0.050	-0.910	-1.010
2020/01/31 18:39:54.1	74.630	-0.010	-0.950	-1.160
2020/01/31 18:39:54.2	74.650	0.020	-0.980	-1.300
2020/01/31 18:39:54.3	74.680	0.060	-1.000	-1.440
2020/01/31 18:39:54.4	74.700	0.090	-1.010	-1.570
2020/01/31 18:39:54.5	74.720	0.120	-1.010	-1.690
2020/01/31 18:39:54.6	74.750	0.150	-1.010	-1.810
2020/01/31 18:39:54.7	74.770	0.180	-1.000	-1.920
2020/01/31 18:39:54.8	74.790	0.210	-0.970	-2.030
2020/01/31 18:39:54.9	74.810	0.230	-0.950	-2.120
2020/01/31 18:39:55.0	74.830	0.250	-0.910	-2.200
2020/01/31 18:39:55.1	74.850	0.260	-0.870	-2.280
2020/01/31 18:39:55.2	74.860	0.280	-0.830	-2.340
2020/01/31 18:39:55.3	74.880	0.290	-0.780	-2.400
2020/01/31 18:39:55.4	74.890	0.300	-0.720	-2.440
2020/01/31 18:39:55.5	74.910	0.300	-0.660	-2.480
2020/01/31 18:39:55.6	74.920	0.310	-0.600	-2.500
2020/01/31 18:39:55.7	74.930	0.310	-0.530	-2.520
2020/01/31 18:39:55.8	74.930	0.300	-0.460	-2.520
2020/01/31 18:39:55.9	74.940	0.300	-0.390	-2.520
2020/01/31 18:39:56.0	74.940	0.290	-0.320	-2.500
2020/01/31 18:39:56.1	74.950	0.280	-0.250	-2.480
2020/01/31 18:39:56.2	74.950	0.270	-0.180	-2.450
2020/01/31 18:39:56.3	74.950	0.260	-0.110	-2.410
2020/01/31 18:39:56.4	74.950	0.250	-0.050	-2.370
2020/01/31 18:39:56.5	74.950	0.230	0.010	-2.320
2020/01/31 18:39:56.6	74.950	0.220	0.070	-2.260
2020/01/31 18:39:56.7	74.950	0.200	0.120	-2.200
2020/01/31 18:39:56.8	74.950	0.180	0.170	-2.120
2020/01/31 18:39:56.9	74.950	0.160	0.210	-2.050
2020/01/31 18:39:57.0	74.950	0.150	0.240	-1.970
2020/01/31 18:39:57.1	74.950	0.130	0.270	-1.890
2020/01/31 18:39:57.2	74.950	0.110	0.280	-1.810
2020/01/31 18:39:57.3	74.950	0.100	0.290	-1.730
2020/01/31 18:39:57.4	74.950	0.080	0.300	-1.640
2020/01/31 18:39:57.5	74.960	0.060	0.290	-1.550
2020/01/31 18:39:57.6	74.960	0.050	0.280	-1.460
2020/01/31 18:39:57.7	74.960	0.040	0.260	-1.370
2020/01/31 18:39:57.8	74.980	0.020	0.230	-1.280
2020/01/31 18:39:57.9	74.980	0.010	0.200	-1.190
2020/01/31 18:39:58.0	74.990	0.000	0.160	-1.090
2020/01/31 18:39:58.1	74.990	-0.010	0.120	-1.000
2020/01/31 18:39:58.2	75.000	-0.020	0.070	-0.910
2020/01/31 18:39:58.3	75.010	-0.020	0.010	-0.810
2020/01/31 18:39:58.4	75.010	-0.030	-0.050	-0.720
2020/01/31 18:39:58.5	75.020	-0.030	-0.110	-0.620
2020/01/31 18:39:58.6	75.020	-0.030	-0.170	-0.530
2020/01/31 18:39:58.7	75.030	-0.030	-0.230	-0.430
2020/01/31 18:39:58.8	75.040	-0.030	-0.300	-0.330
2020/01/31 18:39:58.9	75.040	-0.030	-0.370	-0.230
2020/01/31 18:39:59.0	75.050	-0.030	-0.430	-0.130
2020/01/31 18:39:59.1	75.050	-0.030	-0.490	-0.030
2020/01/31 18:39:59.2	75.050	-0.020	-0.550	0.070
2020/01/31 18:39:59.3	75.050	-0.020	-0.600	0.170
2020/01/31 18:39:59.4	75.060	-0.010	-0.650	0.280
2020/01/31 18:39:59.5	75.060	-0.010	-0.700	0.380
2020/01/31 18:39:59.6	75.060	0.000	-0.740	0.480
2020/01/31 18:39:59.7	75.060	0.010	-0.770	0.580
2020/01/31 18:39:59.8	75.040	0.010	-0.800	0.690
2020/01/31 18:39:59.9	75.040	0.020	-0.820	0.790
2020/01/31 18:40:00.0	75.040	0.030	-0.840	0.890
2020/01/31 18:40:00.1	75.030	0.030	-0.840	1.000
2020/01/31 18:40:00.2	75.030	0.040	-0.840	1.100
2020/01/31 18:40:00.3	75.030	0.040	-0.840	1.200
2020/01/31 18:40:00.4	75.020	0.050	-0.820	1.300
2020/01/31 18:40:00.5	75.020	0.050	-0.800	1.400
2020/01/31 18:40:00.6	75.010	0.050	-0.780	1.490
2020/01/31 18:40:00.7	75.000	0.050	-0.740	1.590
2020/01/31 18:40:00.8	75.010	0.050	-0.700	1.680
2020/01/31 18:40:00.9	75.010	0.050	-0.660	1.770
2020/01/31 18:40:01.0	75.000	0.050	-0.600	1.860
2020/01/31 18:40:01.1	74.990	0.040	-0.540	1.950
2020/01/31 18:40:01.2	74.980	0.040	-0.470	2.030
2020/01/31 18:40:01.3	74.970	0.030	-0.400	2.110
2020/01/31 18:40:01.4	74.960	0.020	-0.330	2.180
2020/01/31 18:40:01.5	74.950	0.010	-0.250	2.250
2020/01/31 18:40:01.6	74.940	0.000	-0.170	2.320
2020/01/31 18:40:01.7	74.930	-0.010	-0.080	2.380
2020/01/31 18:40:01.8	74.920	-0.020	0.010	2.440
2020/01/31 18:40:01.9	74.910	-0.040	0.100	2.490
2020/01/31 18:40:02.0	74.900	-0.050	0.190	2.530
2020/01/31 18:40:02.1	74.890	-0.070	0.270	2.570
2020/01/31 18:40:02.2	74.880	-0.090	0.360	2.600
2020/01/31 18:40:02.3	74.870	-0.100	0.450	2.630
2020/01/31 18:40:02.4	74.860	-0.120	0.530	2.650
2020/01/31 18:40:02.5	74.860	-0.140	0.610	2.660
2020/01/31 18:40:02.6	74.850	-0.150	0.680	2.660
2020/01/31 18:40:02.7	74.840	-0.170	0.750	2.660
2020/01/31 18:40:02.8	74.830	-0.190	0.820	2.650
2020/01/31 18:40:02.9	74.820	-0.200	0.880	2.630
2020/01/31 18:40:03.0	74.820	-0.220	0.930	2.610
2020/01/31 18:40:03.1	74.820	-0.230	0.980	2.570
2020/01/31 18:40:03.2	74.810	-0.240	1.010	2.530
2020/01/31 18:40:03.3	74.810	-0.250	1.040	2.480
2020/01/31 18:40:03.4	74.810	-0.260	1.060	2.430
2020/01/31 18:40:03.5	74.810	-0.270	1.070	2.370
2020/01/31 18:40:03.6	74.820	-0.280	1.070	2.300
2020/01/31 18:40:03.7	74.820	-0.280	1.060	2.220
2020/01/31 18:40:03.8	74.820	-0.280	1.040	2.140
2020/01/31 18:40:03.9	74.820	-0.280	1.010	2.050
2020/01/31 18:40:04.0	74.830	-0.280	0.980	1.950
2020/01/31 18:40:04.1	74.840	-0.280	0.930	1.860
2020/01/31 18:40:04.2	74.850	-0.270	0.870	1.750
2020/01/31 18:40:04.3	74.860	-0.260	0.810	1.640
2020/01/31 18:40:04.4	74.870	-0.250	0.730	1.530
2020/01/31 18:40:04.5	74.890	-0.230	0.650	1.420
2020/01/31 18:40:04.6	74.900	-0.220	0.560	1.300
2020/01/31 18:40:04.7	74.920	-0.200	0.470	1.180
2020/01/31 18:40:04.8	74.930	-0.180	0.370	1.050
2020/01/31 18:40:04.9	74.940	-0.150	0.260	0.930
2020/01/31 18:40:05.0	74.960	-0.130	0.150	0.800
2020/01/31 18:40:05.1	74.980	-0.100	0.040	0.680
2020/01/31 18:40:05.2	75.000	-0.070	-0.080	0.560
2020/01/31 18:40:05.3	75.020	-0.040	-0.190	0.430
2020/01/31 18:40:05.4	75.040	-0.010	-0.310	0.310
2020/01/31 18:40:05.5	75.060	0.020	-0.430	0.190
2020/01/31 18:40:05.6	75.080	0.060	-0.550	0.070
2020/01/31 18:40:05.7	75.090	0.090	-0.660	-0.040
2020/01/31 18:40:05.8	75.120	0.130	-0.780	-0.150
2020/01/31 18:40:05.9	75.140	0.160	-0.890	-0.260
2020/01/31 18:40:06.0	75.150	0.200	-1.000	-0.370
2020/01/31 18:40:06.1	75.170	0.230	-1.100	-0.470
2020/01/31 18:40:06.2	75.190	0.270	-1.190	-0.570
2020/01/31 18:40:06.3	75.210	0.300	-1.280	-0.670
2020/01/31 18:40:06.4	75.230	0.330	-1.360	-0.760
2020/01/31 18:40:06.5	75.240	0.370	-1.430	-0.850
2020/01/31 18:40:06.6	75.260	0.400	-1.500	-0.930
2020/01/31 18:40:06.7	75.280	0.420	-1.560	-1.010
2020/01/31 18:40:06.8	75.310	0.450	-1.600	-1.090
2020/01/31 18:40:06.9	75.320	0.470	-1.640	-1.160
2020/01/31 18:40:07.0	75.340	0.490	-1.670	-1.220
2020/01/31 18:40:07.1	75.350	0.510	-1.690	-1.280
2020/01/31 18:40:07.2	75.360	0.520	-1.700	-1.340
2020/01/31 18:40:07.3	75.370	0.530	-1.690	-1.380
2020/01/31 18:40:07.4	75.380	0.540	-1.680	-1.430
2020/01/31 18:40:07.5	75.390	0.540	-1.660	-1.460
2020/01/31 18:40:07.6	75.390	0.540	-1.620	-1.490
2020/01/31 18:40:07.7	75.390	0.530	-1.580	-1.510
2020/01/31 18:40:07.8	75.400	0.520	-1.520	-1.530
2020/01/31 18:40:07.9	75.400	0.510	-1.460	-1.540
2020/01/31 18:40:08.0	75.400	0.490	-1.390	-1.540
2020/01/31 18:40:08.1	75.390	0.470	-1.310	-1.540
2020/01/31 18:40:08.2	75.380	0.440	-1.220	-1.530
2020/01/31 18:40:08.3	75.370	0.410	-1.130	-1.520
2020/01/31 18:40:08.4	75.350	0.370	-1.030	-1.500
2020/01/31 18:40:08.5	75.340	0.340	-0.930	-1.470
2020/01/31 18:40:08.6	75.320	0.300	-0.820	-1.440
2020/01/31 18:40:08.7	75.300	0.260	-0.710	-1.410
2020/01/31 18:40:08.8	75.280	0.210	-0.590	-1.370
2020/01/31 18:40:08.9	75.260	0.160	-0.470	-1.320
2020/01/31 18:40:09.0	75.230	0.110	-0.360	-1.270
2020/01/31 18:40:09.1	75.210	0.070	-0.240	-1.220
2020/01/31 18:40:09.2	75.180	0.020	-0.120	-1.160
2020/01/31 18:40:09.3	75.160	-0.040	-0.010	-1.110
2020/01/31 18:40:09.4	75.130	-0.090	0.100	-1.050
2020/01/31 18:40:09.5	75.100	-0.130	0.210	-0.980
2020/01/31 18:40:09.6	75.080	-0.180	0.310	-0.920
2020/01/31 18:40:09.7	75.050	-0.230	0.410	-0.850
2020/01/31 18:40:09.8	75.040	-0.280	0.510	-0.780
2020/01/31 18:40:09.9	75.010	-0.320	0.600	-0.720
2020/01/31 18:40:10.0	74.990	-0.360	0.680	-0.650
2020/01/31 18:40:10.1	74.970	-0.400	0.760	-0.580
2020/01/31 18:40:10.2	74.950	-0.430	0.820	-0.520
2020/01/31 18:40:10.3	74.930	-0.460	0.880	-0.450
2020/01/31 18:40:10.4	74.910	-0.490	0.930	-0.390
2020/01/31 18:40:10.5	74.890	-0.510	0.970	-0.320
2020/01/31 18:40:10.6	74.880	-0.530	1.000	-0.260
2020/01/31 18:40:10.7	74.860	-0.540	1.030	-0.200
2020/01/31 18:40:10.8	74.860	-0.550	1.040	-0.140
2020/01/31 18:40:10.9	74.850	-0.560	1.050	-0.080
2020/01/31 18:40:11.0	74.840	-0.560	1.040	-0.030
2020/01/31 18:40:11.1	74.840	-0.560	1.030	0.020
2020/01/31 18:40:11.2	74.830	-0.550	1.010	0.070
2020/01/31 18:40:11.3	74.830	-0.540	0.970	0.120
2020/01/31 18:40:11.4	74.820	-0.530	0.940	0.170
2020/01/31 18:40:11.5	74.820	-0.510	0.890	0.210
2020/01/31 18:40:11.6	74.820	-0.490	0.840	0.250
2020/01/31 18:40:11.7	74.820	-0.470	0.780	0.290
2020/01/31 18:40:11.8	74.820	-0.440	0.710	0.330
2020/01/31 18:40:11.9	74.820	-0.410	0.640	0.370
2020/01/31 18:40:12.0	74.820	-0.380	0.560	0.400
2020/01/31 18:40:12.1	74.830	-0.340	0.480	0.440
2020/01/31 18:40:12.2	74.830	-0.300	0.400	0.470
2020/01/31 18:40:12.3	74.830	-0.270	0.310	0.500
2020/01/31 18:40:12.4	74.830	-0.230	0.230	0.530
2020/01/31 18:40:12.5	74.830	-0.190	0.140	0.550
2020/01/31 18:40:12.6	74.830	-0.150	0.050	0.580
2020/01/31 18:40:12.7	74.830	-0.110	-0.040	0.600
2020/01/31 18:40:12.8	74.830	-0.070	-0.120	0.630
2020/01/31 18:40:12.9	74.830	-0.030	-0.210	0.650
2020/01/31 18:40:13.0	74.830	0.000	-0.290	0.660
2020/01/31 18:40:13.1	74.830	0.040	-0.360	0.680
2020/01/31 18:40:13.2	74.830	0.070	-0.440	0.690
2020/01/31 18:40:13.3	74.830	0.110	-0.500	0.710
2020/01/31 18:40:13.4	74.830	0.140	-0.570	0.720
2020/01/31 18:40:13.5	74.830	0.170	-0.620	0.720
2020/01/31 18:40:13.6	74.840	0.190	-0.670	0.730
2020/01/31 18:40:13.7	74.840	0.220	-0.720	0.740
2020/01/31 18:40:13.8	74.840	0.240	-0.760	0.740
2020/01/31 18:40:13.9	74.840	0.260	-0.790	0.740
2020/01/31 18:40:14.0	74.850	0.280	-0.810	0.740
2020/01/31 18:40:14.1	74.850	0.290	-0.830	0.750
2020/01/31 18:40:14.2	74.860	0.300	-0.840	0.750
2020/01/31 18:40:14.3	74.870	0.310	-0.850	0.750
2020/01/31 18:40:14.4	74.880	0.320	-0.840	0.740
2020/01/31 18:40:14.5	74.890	0.320	-0.840	0.740
2020/01/31 18:40:14.6	74.900	0.330	-0.820	0.740
2020/01/31 18:40:14.7	74.910	0.330	-0.800	0.740
2020/01/31 18:40:14.8	74.940	0.320	-0.780	0.740
2020/01/31 18:40:14.9	74.950	0.320	-0.750	0.730
2020/01/31 18:40:15.0	74.970	0.310	-0.710	0.730
2020/01/31 18:40:15.1	74.990	0.310	-0.670	0.720
2020/01/31 18:40:15.2	75.000	0.300	-0.630	0.720
2020/01/31 18:40:15.3	75.020	0.290	-0.590	0.720
2020/01/31 18:40:15.4	75.050	0.280	-0.550	0.710
2020/01/31 18:40:15.5	75.070	0.270	-0.500	0.710
2020/01/31 18:40:15.6	75.090	0.250	-0.460	0.700
2020/01/31 18:40:15.7	75.110	0.240	-0.410	0.700
2020/01/31 18:40:15.8	75.120	0.230	-0.360	0.690
2020/01/31 18:40:15.9	75.150	0.220	-0.320	0.690
2020/01/31 18:40:16.0	75.170	0.210	-0.280	0.690
2020/01/31 18:40:16.1	75.200	0.190	-0.240	0.680
2020/01/31 18:40:16.2	75.220	0.180	-0.210	0.680
2020/01/31 18:40:16.3	75.250	0.170	-0.180	0.680
2020/01/31 18:40:16.4	75.270	0.160	-0.150	0.680
2020/01/31 18:40:16.5	75.300	0.160	-0.130	0.680
2020/01/31 18:40:16.6	75.320	0.150	-0.110	0.680
2020/01/31 18:40:16.7	75.350	0.140	-0.100	0.680
2020/01/31 18:40:16.8	75.390	0.140	-0.100	0.690
2020/01/31 18:40:16.9	75.410	0.140	-0.090	0.690
2020/01/31 18:40:17.0	75.440	0.130	-0.090	0.700
2020/01/31 18:40:17.1	75.460	0.130	-0.090	0.700
2020/01/31 18:40:17.2	75.480	0.140	-0.100	0.710
2020/01/31 18:40:17.3	75.500	0.140	-0.110	0.720
2020/01/31 18:40:17.4	75.520	0.140	-0.120	0.730
2020/01/31 18:40:17.5	75.540	0.150	-0.140	0.740
2020/01/31 18:40:17.6	75.560	0.150	-0.160	0.740
2020/01/31 18:40:17.7	75.580	0.160	-0.180	0.750
2020/01/31 18:40:17.8	75.590	0.170	-0.190	0.770
2020/01/31 18:40:17.9	75.600	0.170	-0.210	0.770
2020/01/31 18:40:18.0	75.620	0.180	-0.230	0.780
2020/01/31 18:40:18.1	75.630	0.190	-0.260	0.790
2020/01/31 18:40:18.2	75.650	0.200	-0.270	0.800
2020/01/31 18:40:18.3	75.660	0.200	-0.290	0.810
2020/01/31 18:40:18.4	75.670	0.210	-0.300	0.820
2020/01/31 18:40:18.5	75.680	0.210	-0.310	0.840
2020/01/31 18:40:18.6	75.680	0.220	-0.320	0.850
2020/01/31 18:40:18.7	75.690	0.220	-0.320	0.860
2020/01/31 18:40:18.8	75.690	0.210	-0.320	0.870
2020/01/31 18:40:18.9	75.690	0.210	-0.320	0.880
2020/01/31 18:40:19.0	75.690	0.200	-0.300	0.900
2020/01/31 18:40:19.1	75.690	0.190	-0.290	0.910
2020/01/31 18:40:19.2	75.680	0.180	-0.270	0.920
2020/01/31 18:40:19.3	75.670	0.160	-0.240	0.940
2020/01/31 18:40:19.4	75.660	0.140	-0.210	0.950
2020/01/31 18:40:19.5	75.640	0.120	-0.180	0.970
2020/01/31 18:40:19.6	75.620	0.090	-0.140	0.980
2020/01/31 18:40:19.7	75.600	0.060	-0.100	0.990
2020/01/31 18:40:19.8	75.570	0.030	-0.050	1.010
2020/01/31 18:40:19.9	75.540	-0.010	0.000	1.020
2020/01/31 18:40:20.0	75.510	-0.040	0.050	1.030
2020/01/31 18:40:20.1	75.470	-0.090	0.110	1.040
2020/01/31 18:40:20.2	75.440	-0.130	0.170	1.050
2020/01/31 18:40:20.3	75.400	-0.180	0.220	1.060
2020/01/31 18:40:20.4	75.350	-0.220	0.280	1.070
2020/01/31 18:40:20.5	75.310	-0.270	0.340	1.070
2020/01/31 18:40:20.6	75.260	-0.320	0.400	1.070
2020/01/31 18:40:20.7	75.220	-0.370	0.460	1.070
2020/01/31 18:40:20.8	75.170	-0.430	0.510	1.070
2020/01/31 18:40:20.9	75.120	-0.480	0.560	1.060
2020/01/31 18:40:21.0	75.070	-0.520	0.610	1.050
2020/01/31 18:40:21.1	75.010	-0.570	0.660	1.040
2020/01/31 18:40:21.2	74.960	-0.620	0.700	1.030
2020/01/31 18:40:21.3	74.910	-0.660	0.730	1.010
2020/01/31 18:40:21.4	74.860	-0.700	0.760	0.980
2020/01/31 18:40:21.5	74.810	-0.740	0.790	0.950
2020/01/31 18:40:21.6	74.770	-0.770	0.800	0.920
2020/01/31 18:40:21.7	74.720	-0.800	0.810	0.890
2020/01/31 18:40:21.8	74.670	-0.820	0.820	0.850
2020/01/31 18:40:21.9	74.630	-0.840	0.810	0.810
2020/01/31 18:40:22.0	74.590	-0.860	0.800	0.770
2020/01/31 18:40:22.1	74.550	-0.870	0.770	0.720
2020/01/31 18:40:22.2	74.510	-0.870	0.740	0.670
2020/01/31 18:40:22.3	74.480	-0.860	0.710	0.610
2020/01/31 18:40:22.4	74.450	-0.860	0.660	0.560
2020/01/31 18:40:22.5	74.420	-0.840	0.600	0.500
2020/01/31 18:40:22.6	74.400	-0.820	0.540	0.430
2020/01/31 18:40:22.7	74.380	-0.790	0.470	0.370
2020/01/31 18:40:22.8	74.370	-0.760	0.390	0.300
2020/01/31 18:40:22.9	74.360	-0.720	0.300	0.230
2020/01/31 18:40:23.0	74.360	-0.680	0.210	0.160
2020/01/31 18:40:23.1	74.350	-0.630	0.110	0.080
2020/01/31 18:40:23.2	74.360	-0.580	0.000	-0.000
2020/01/31 18:40:23.3	74.360	-0.520	-0.110	-0.090
2020/01/31 18:40:23.4	74.380	-0.460	-0.220	-0.170
2020/01/31 18:40:23.5	74.390	-0.400	-0.340	-0.260
2020/01/31 18:40:23.6	74.410	-0.330	-0.460	-0.350
2020/01/31 18:40:23.7	74.440	-0.270	-0.580	-0.450
2020/01/31 18:40:23.8	74.470	-0.200	-0.700	-0.540
2020/01/31 18:40:23.9	74.500	-0.130	-0.820	-0.640
2020/01/31 18:40:24.0	74.540	-0.060	-0.940	-0.740
2020/01/31 18:40:24.1	74.580	0.010	-1.060	-0.830
2020/01/31 18:40:24.2	74.620	0.090	-1.170	-0.930
2020/01/31 18:40:24.3	74.670	0.150	-1.280	-1.030
2020/01/31 18:40:24.4	74.720	0.220	-1.380	-1.130
2020/01/31 18:40:24.5	74.770	0.290	-1.480	-1.220
2020/01/31 18:40:24.6	74.820	0.350	-1.560	-1.320
2020/01/31 18:40:24.7	74.870	0.410	-1.640	-1.410
2020/01/31 18:40:24.8	74.910	0.470	-1.720	-1.500
2020/01/31 18:40:24.9	74.960	0.520	-1.780	-1.580
2020/01/31 18:40:25.0	75.000	0.570	-1.830	-1.660
2020/01/31 18:40:25.1	75.050	0.620	-1.860	-1.740
2020/01/31 18:40:25.2	75.100	0.660	-1.890	-1.810
2020/01/31 18:40:25.3	75.140	0.700	-1.910	-1.870
2020/01/31 18:40:25.4	75.180	0.730	-1.910	-1.930
2020/01/31 18:40:25.5	75.220	0.760	-1.900	-1.980
2020/01/31 18:40:25.6	75.260	0.790	-1.880	-2.030
2020/01/31 18:40:25.7	75.290	0.800	-1.850	-2.060
2020/01/31 18:40:25.8	75.310	0.820	-1.800	-2.090
2020/01/31 18:40:25.9	75.330	0.830	-1.750	-2.110
2020/01/31 18:40:26.0	75.350	0.830	-1.680	-2.120
2020/01/31 18:40:26.1	75.370	0.830	-1.610	-2.120
2020/01/31 18:40:26.2	75.380	0.830	-1.520	-2.120
2020/01/31 18:40:26.3	75.390	0.820	-1.420	-2.100
2020/01/31 18:40:26.4	75.390	0.810	-1.320	-2.070
2020/01/31 18:40:26.5	75.390	0.790	-1.210	-2.040
2020/01/31 18:40:26.6	75.380	0.770	-1.090	-1.990
2020/01/31 18:40:26.7	75.370	0.740	-0.970	-1.940
2020/01/31 18:40:26.8	75.350	0.720	-0.830	-1.870
2020/01/31 18:40:26.9	75.330	0.690	-0.700	-1.800
2020/01/31 18:40:27.0	75.310	0.650	-0.570	-1.730
2020/01/31 18:40:27.1	75.280	0.620	-0.440	-1.640
2020/01/31 18:40:27.2	75.260	0.580	-0.300	-1.550
2020/01/31 18:40:27.3	75.230	0.540	-0.170	-1.450
2020/01/31 18:40:27.4	75.190	0.490	-0.040	-1.340
2020/01/31 18:40:27.5	75.160	0.450	0.090	-1.230
2020/01/31 18:40:27.6	75.120	0.410	0.220	-1.120
2020/01/31 18:40:27.7	75.090	0.360	0.340	-1.000
2020/01/31 18:40:27.8	75.070	0.310	0.450	-0.880
2020/01/31 18:40:27.9	75.030	0.270	0.560	-0.750
2020/01/31 18:40:28.0	74.990	0.220	0.660	-0.630
2020/01/31 18:40:28.1	74.960	0.180	0.760	-0.500
2020/01/31 18:40:28.2	74.920	0.140	0.840	-0.370
2020/01/31 18:40:28.3	74.890	0.090	0.920	-0.250
2020/01/31 18:40:28.4	74.860	0.050	0.990	-0.120
2020/01/31 18:40:28.5	74.830	0.010	1.050	0.010
2020/01/31 18:40:28.6	74.800	-0.020	1.100	0.130
2020/01/31 18:40:28.7	74.770	-0.060	1.150	0.250
2020/01/31 18:40:28.8	74.740	-0.090	1.180	0.380
2020/01/31 18:40:28.9	74.720	-0.120	1.200	0.490
2020/01/31 18:40:29.0	74.700	-0.150	1.220	0.600
2020/01/31 18:40:29.1	74.680	-0.180	1.230	0.710
2020/01/31 18:40:29.2	74.660	-0.200	1.230	0.820
2020/01/31 18:40:29.3	74.650	-0.220	1.220	0.920
2020/01/31 18:40:29.4	74.630	-0.240	1.200	1.020
2020/01/31 18:40:29.5	74.620	-0.260	1.180	1.120
2020/01/31 18:40:29.6	74.610	-0.270	1.150	1.210
2020/01/31 18:40:29.7	74.600	-0.290	1.120	1.300
2020/01/31 18:40:29.8	74.600	-0.290	1.070	1.380
2020/01/31 18:40:29.9	74.590	-0.300	1.030	1.460
2020/01/31 18:40:30.0	74.580	-0.310	0.970	1.530
2020/01/31 18:40:30.1	74.570	-0.310	0.920	1.600
2020/01/31 18:40:30.2	74.570	-0.310	0.860	1.670
2020/01/31 18:40:30.3	74.560	-0.310	0.800	1.730
2020/01/31 18:40:30.4	74.560	-0.310	0.740	1.790
2020/01/31 18:40:30.5	74.560	-0.310	0.670	1.840
2020/01/31 18:40:30.6	74.550	-0.300	0.610	1.890
2020/01/31 18:40:30.7	74.550	-0.300	0.540	1.930
2020/01/31 18:40:30.8	74.550	-0.290	0.470	1.980
2020/01/31 18:40:30.9	74.550	-0.290	0.400	2.010
2020/01/31 18:40:31.0	74.550	-0.280	0.340	2.040
2020/01/31 18:40:31.1	74.540	-0.270	0.270	2.070
2020/01/31 18:40:31.2	74.540	-0.270	0.210	2.100
2020/01/31 18:40:31.3	74.540	-0.260	0.150	2.110
2020/01/31 18:40:31.4	74.540	-0.250	0.090	2.130
2020/01/31 18:40:31.5	74.540	-0.240	0.030	2.140
2020/01/31 18:40:31.6	74.540	-0.240	-0.030	2.150
2020/01/31 18:40:31.7	74.530	-0.230	-0.080	2.150
2020/01/31 18:40:31.8	74.520	-0.220	-0.130	2.150
2020/01/31 18:40:31.9	74.520	-0.220	-0.170	2.150
2020/01/31 18:40:32.0	74.520	-0.210	-0.220	2.140
2020/01/31 18:40:32.1	74.520	-0.210	-0.260	2.130
2020/01/31 18:40:32.2	74.520	-0.200	-0.300	2.120
2020/01/31 18:40:32.3	74.520	-0.200	-0.340	2.100
2020/01/31 18:40:32.4	74.520	-0.190	-0.370	2.070
2020/01/31 18:40:32.5	74.520	-0.180	-0.410	2.050
2020/01/31 18:40:32.6	74.530	-0.180	-0.440	2.020
2020/01/31 18:40:32.7	74.540	-0.170	-0.470	1.980
2020/01/31 18:40:32.8	74.550	-0.170	-0.500	1.940
2020/01/31 18:40:32.9	74.560	-0.160	-0.520	1.890
2020/01/31 18:40:33.0	74.570	-0.150	-0.550	1.840
2020/01/31 18:40:33.1	74.590	-0.150	-0.570	1.790
2020/01/31 18:40:33.2	74.600	-0.140	-0.600	1.730
2020/01/31 18:40:33.3	74.620	-0.130	-0.620	1.670
2020/01/31 18:40:33.4	74.640	-0.120	-0.640	1.610
2020/01/31 18:40:33.5	74.660	-0.110	-0.670	1.540
2020/01/31 18:40:33.6	74.690	-0.100	-0.690	1.470
2020/01/31 18:40:33.7	74.710	-0.090	-0.710	1.390
2020/01/31 18:40:33.8	74.750	-0.070	-0.730	1.320
2020/01/31 18:40:33.9	74.780	-0.060	-0.750	1.240
2020/01/31 18:40:34.0	74.800	-0.040	-0.760	1.160
2020/01/31 18:40:34.1	74.830	-0.030	-0.780	1.090
2020/01/31 18:40:34.2	74.860	-0.010	-0.790	1.010
2020/01/31 18:40:34.3	74.890	0.000	-0.810	0.930
2020/01/31 18:40:34.4	74.920	0.020	-0.820	0.860
2020/01/31 18:40:34.5	74.940	0.030	-0.820	0.790
2020/01/31 18:40:34.6	74.970	0.050	-0.830	0.710
2020/01/31 18:40:34.7	74.990	0.070	-0.830	0.650
2020/01/31 18:40:34.8	75.000	0.080	-0.830	0.580
2020/01/31 18:40:34.9	75.020	0.090	-0.830	0.520
2020/01/31 18:40:35.0	75.040	0.100	-0.820	0.460
2020/01/31 18:40:35.1	75.050	0.110	-0.810	0.400
2020/01/31 18:40:35.2	75.060	0.120	-0.800	0.340
2020/01/31 18:40:35.3	75.070	0.130	-0.780	0.290
2020/01/31 18:40:35.4	75.080	0.130	-0.760	0.240
2020/01/31 18:40:35.5	75.080	0.130	-0.740	0.200
2020/01/31 18:40:35.6	75.080	0.130	-0.710	0.150
2020/01/31 18:40:35.7	75.080	0.130	-0.680	0.110
2020/01/31 18:40:35.8	75.070	0.130	-0.650	0.080
2020/01/31 18:40:35.9	75.060	0.120	-0.610	0.040
2020/01/31 18:40:36.0	75.040	0.110	-0.570	0.010
2020/01/31 18:40:36.1	75.030	0.100	-0.530	-0.020
2020/01/31 18:40:36.2	75.010	0.080	-0.490	-0.050
2020/01/31 18:40:36.3	74.990	0.060	-0.440	-0.080
2020/01/31 18:40:36.4	74.970	0.050	-0.390	-0.110
2020/01/31 18:40:36.5	74.950	0.030	-0.340	-0.140
2020/01/31 18:40:36.6	74.920	0.000	-0.300	-0.160
2020/01/31 18:40:36.7	74.900	-0.020	-0.250	-0.180
2020/01/31 18:40:36.8	74.870	-0.040	-0.200	-0.210
2020/01/31 18:40:36.9	74.840	-0.070	-0.150	-0.230
2020/01/31 18:40:37.0	74.810	-0.090	-0.100	-0.250
2020/01/31 18:40:37.1	74.780	-0.120	-0.050	-0.270
2020/01/31 18:40:37.2	74.740	-0.150	-0.000	-0.290
2020/01/31 18:40:37.3	74.710	-0.170	0.040	-0.310
2020/01/31 18:40:37.4	74.680	-0.200	0.080	-0.330
2020/01/31 18:40:37.5	74.640	-0.220	0.120	-0.350
2020/01/31 18:40:37.6	74.610	-0.240	0.150	-0.360
2020/01/31 18:40:37.7	74.570	-0.260	0.180	-0.380
2020/01/31 18:40:37.8	74.540	-0.280	0.220	-0.400
2020/01/31 18:40:37.9	74.510	-0.290	0.240	-0.410
2020/01/31 18:40:38.0	74.480	-0.310	0.260	-0.430
2020/01/31 18:40:38.1	74.450	-0.320	0.270	-0.450
2020/01/31 18:40:38.2	74.420	-0.320	0.280	-0.460
2020/01/31 18:40:38.3	74.390	-0.330	0.280	-0.480
2020/01/31 18:40:38.4	74.360	-0.330	0.280	-0.500
2020/01/31 18:40:38.5	74.340	-0.330	0.270	-0.510
2020/01/31 18:40:38.6	74.310	-0.320	0.260	-0.530
2020/01/31 18:40:38.7	74.290	-0.310	0.240	-0.550
2020/01/31 18:40:38.8	74.280	-0.300	0.220	-0.570
2020/01/31 18:40:38.9	74.260	-0.280	0.190	-0.590
2020/01/31 18:40:39.0	74.250	-0.260	0.150	-0.610
2020/01/31 18:40:39.1	74.230	-0.240	0.110	-0.630
2020/01/31 18:40:39.2	74.220	-0.210	0.070	-0.650
2020/01/31 18:40:39.3	74.220	-0.190	0.030	-0.670
2020/01/31 18:40:39.4	74.210	-0.160	-0.020	-0.690
2020/01/31 18:40:39.5	74.200	-0.120	-0.080	-0.710
2020/01/31 18:40:39.6	74.200	-0.090	-0.130	-0.730
2020/01/31 18:40:39.7	74.200	-0.050	-0.190	-0.750
2020/01/31 18:40:39.8	74.200	-0.010	-0.250	-0.770
2020/01/31 18:40:39.9	74.200	0.030	-0.310	-0.800
2020/01/31 18:40:40.0	74.200	0.070	-0.370	-0.820
2020/01/31 18:40:40.1	74.200	0.110	-0.430	-0.840
2020/01/31 18:40:40.2	74.210	0.150	-0.480	-0.870
2020/01/31 18:40:40.3	74.210	0.190	-0.540	-0.890
2020/01/31 18:40:40.4	74.220	0.230	-0.590	-0.910
2020/01/31 18:40:40.5	74.230	0.270	-0.640	-0.930
2020/01/31 18:40:40.6	74.240	0.310	-0.690	-0.960
2020/01/31 18:40:40.7	74.250	0.340	-0.730	-0.980
2020/01/31 18:40:40.8	74.270	0.380	-0.770	-0.990
2020/01/31 18:40:40.9	74.280	0.410	-0.800	-1.010
2020/01/31 18:40:41.0	74.290	0.440	-0.830	-1.030
2020/01/31 18:40:41.1	74.310	0.470	-0.850	-1.040
2020/01/31 18:40:41.2	74.320	0.500	-0.870	-1.050
2020/01/31 18:40:41.3	74.340	0.520	-0.870	-1.060
2020/01/31 18:40:41.4	74.360	0.540	-0.880	-1.070
2020/01/31 18:40:41.5	74.370	0.560	-0.870	-1.070
2020/01/31 18:40:41.6	74.390	0.570	-0.860	-1.080
2020/01/31 18:40:41.7	74.410	0.580	-0.840	-1.070
2020/01/31 18:40:41.8	74.440	0.590	-0.820	-1.070
2020/01/31 18:40:41.9	74.460	0.600	-0.790	-1.060
2020/01/31 18:40:42.0	74.470	0.600	-0.750	-1.050
2020/01/31 18:40:42.1	74.490	0.590	-0.710	-1.030
2020/01/31 18:40:42.2	74.510	0.590	-0.670	-1.020
2020/01/31 18:40:42.3	74.530	0.580	-0.610	-1.000
2020/01/31 18:40:42.4	74.550	0.570	-0.560	-0.970
2020/01/31 18:40:42.5	74.560	0.550	-0.500	-0.940
2020/01/31 18:40:42.6	74.580	0.530	-0.440	-0.910
2020/01/31 18:40:42.7	74.590	0.510	-0.370	-0.870
2020/01/31 18:40:42.8	74.610	0.480	-0.310	-0.830
2020/01/31 18:40:42.9	74.620	0.450	-0.240	-0.790
2020/01/31 18:40:43.0	74.630	0.420	-0.160	-0.740
2020/01/31 18:40:43.1	74.640	0.390	-0.090	-0.680
2020/01/31 18:40:43.2	74.650	0.350	-0.020	-0.620
2020/01/31 18:40:43.3	74.650	0.310	0.060	-0.560
2020/01/31 18:40:43.4	74.660	0.270	0.130	-0.500
2020/01/31 18:40:43.5	74.660	0.230	0.200	-0.430
2020/01/31 18:40:43.6	74.660	0.190	0.270	-0.350
2020/01/31 18:40:43.7	74.660	0.140	0.340	-0.280
2020/01/31 18:40:43.8	74.640	0.100	0.410	-0.190
2020/01/31 18:40:43.9	74.640	0.050	0.480	-0.110
2020/01/31 18:40:44.0	74.630	0.000	0.540	-0.030
2020/01/31 18:40:44.1	74.620	-0.040	0.600	0.050
2020/01/31 18:40:44.2	74.610	-0.090	0.650	0.130
2020/01/31 18:40:44.3	74.600	-0.130	0.700	0.210
2020/01/31 18:40:44.4	74.590	-0.180	0.740	0.290
2020/01/31 18:40:44.5	74.570	-0.220	0.780	0.370
2020/01/31 18:40:44.6	74.560	-0.260	0.810	0.450
2020/01/31 18:40:44.7	74.540	-0.300	0.840	0.520
2020/01/31 18:40:44.8	74.530	-0.340	0.850	0.600
2020/01/31 18:40:44.9	74.510	-0.370	0.870	0.670
2020/01/31 18:40:45.0	74.490	-0.410	0.870	0.730
2020/01/31 18:40:45.1	74.480	-0.440	0.870	0.800
2020/01/31 18:40:45.2	74.460	-0.460	0.860	0.860
2020/01/31 18:40:45.3	74.440	-0.490	0.850	0.910
2020/01/31 18:40:45.4	74.420	-0.510	0.820	0.970
2020/01/31 18:40:45.5	74.410	-0.520	0.800	1.020
2020/01/31 18:40:45.6	74.390	-0.540	0.760	1.060
2020/01/31 18:40:45.7	74.380	-0.550	0.720	1.100
2020/01/31 18:40:45.8	74.370	-0.560	0.670	1.140
2020/01/31 18:40:45.9	74.360	-0.560	0.610	1.170
2020/01/31 18:40:46.0	74.350	-0.560	0.550	1.200
2020/01/31 18:40:46.1	74.340	-0.550	0.490	1.230
2020/01/31 18:40:46.2	74.340	-0.550	0.420	1.250
2020/01/31 18:40:46.3	74.330	-0.540	0.350	1.270
2020/01/31 18:40:46.4	74.330	-0.520	0.280	1.280
2020/01/31 18:40:46.5	74.330	-0.510	0.200	1.300
2020/01/31 18:40:46.6	74.330	-0.490	0.120	1.310
2020/01/31 18:40:46.7	74.330	-0.460	0.040	1.310
2020/01/31 18:40:46.8	74.350	-0.440	-0.030	1.310
2020/01/31 18:40:46.9	74.350	-0.410	-0.110	1.320
2020/01/31 18:40:47.0	74.360	-0.380	-0.190	1.310
2020/01/31 18:40:47.1	74.370	-0.350	-0.260	1.310
2020/01/31 18:40:47.2	74.380	-0.310	-0.330	1.310
2020/01/31 18:40:47.3	74.400	-0.280	-0.400	1.300
2020/01/31 18:40:47.4	74.410	-0.240	-0.470	1.290
2020/01/31 18:40:47.5	74.430	-0.210	-0.540	1.270
2020/01/31 18:40:47.6	74.450	-0.170	-0.600	1.260
2020/01/31 18:40:47.7	74.480	-0.130	-0.660	1.240
2020/01/31 18:40:47.8	74.500	-0.100	-0.710	1.220
2020/01/31 18:40:47.9	74.530	-0.060	-0.760	1.200
2020/01/31 18:40:48.0	74.550	-0.020	-0.800	1.170
2020/01/31 18:40:48.1	74.580	0.010	-0.840	1.150
2020/01/31 18:40:48.2	74.610	0.050	-0.880	1.120
2020/01/31 18:40:48.3	74.640	0.080	-0.910	1.080
2020/01/31 18:40:48.4	74.680	0.120	-0.940	1.050
2020/01/31 18:40:48.5	74.710	0.150	-0.960	1.010
2020/01/31 18:40:48.6	74.740	0.180	-0.970	0.980
2020/01/31 18:40:48.7	74.770	0.200	-0.980	0.940
2020/01/31 18:40:48.8	74.810	0.230	-0.990	0.900
2020/01/31 18:40:48.9	74.840	0.250	-0.990	0.860
2020/01/31 18:40:49.0	74.870	0.270	-0.980	0.820
2020/01/31 18:40:49.1	74.900	0.290	-0.970	0.780
2020/01/31 18:40:49.2	74.930	0.310	-0.960	0.740
2020/01/31 18:40:49.3	74.960	0.320	-0.940	0.700
2020/01/31 18:40:49.4	74.980	0.330	-0.920	0.660
2020/01/31 18:40:49.5	75.010	0.340	-0.890	0.630
2020/01/31 18:40:49.6	75.030	0.350	-0.860	0.590
2020/01/31 18:40:49.7	75.050	0.350	-0.830	0.550
2020/01/31 18:40:49.8	75.070	0.350	-0.790	0.520
2020/01/31 18:40:49.9	75.080	0.350	-0.750	0.480
2020/01/31 18:40:50.0	75.090	0.350	-0.710	0.450
2020/01/31 18:40:50.1	75.100	0.340	-0.660	0.420
2020/01/31 18:40:50.2	75.110	0.330	-0.610	0.390
2020/01/31 18:40:50.3	75.110	0.320	-0.560	0.370
2020/01/31 18:40:50.4	75.110	0.310	-0.510	0.340
2020/01/31 18:40:50.5	75.110	0.300	-0.460	0.320
2020/01/31 18:40:50.6	75.110	0.280	-0.410	0.290
2020/01/31 18:40:50.7	75.110	0.260	-0.350	0.270
2020/01/31 18:40:50.8	75.090	0.240	-0.300	0.250
2020/01/31 18:40:50.9	75.080	0.220	-0.240	0.230
2020/01/31 18:40:51.0	75.070	0.200	-0.190	0.220
2020/01/31 18:40:51.1	75.060	0.180	-0.140	0.200
2020/01/31 18:40:51.2	75.040	0.160	-0.090	0.190
2020/01/31 18:40:51.3	75.020	0.130	-0.040	0.170
2020/01/31 18:40:51.4	75.000	0.110	0.010	0.160
2020/01/31 18:40:51.5	74.980	0.090	0.050	0.160
2020/01/31 18:40:51.6	74.950	0.060	0.100	0.150
2020/01/31 18:40:51.7	74.920	0.040	0.140	0.140
2020/01/31 18:40:51.8	74.890	0.010	0.180	0.140
2020/01/31 18:40:51.9	74.860	-0.010	0.220	0.130
2020/01/31 18:40:52.0	74.830	-0.040	0.250	0.130
2020/01/31 18:40:52.1	74.800	-0.060	0.290	0.130
2020/01/31 18:40:52.2	74.770	-0.080	0.310	0.130
2020/01/31 18:40:52.3	74.730	-0.100	0.340	0.130
2020/01/31 18:40:52.4	74.700	-0.130	0.360	0.130
2020/01/31 18:40:52.5	74.660	-0.150	0.380	0.120
2020/01/31 18:40:52.6	74.630	-0.160	0.400	0.120
2020/01/31 18:40:52.7	74.590	-0.180	0.410	0.120
2020/01/31 18:40:52.8	74.550	-0.200	0.420	0.120
2020/01/31 18:40:52.9	74.520	-0.210	0.420	0.110
2020/01/31 18:40:53.0	74.480	-0.230	0.420	0.110
2020/01/31 18:40:53.1	74.450	-0.240	0.410	0.100
2020/01/31 18:40:53.2	74.420	-0.250	0.400	0.090
2020/01/31 18:40:53.3	74.390	-0.260	0.390	0.080
2020/01/31 18:40:53.4	74.370	-0.270	0.370	0.060
2020/01/31 18:40:53.5	74.340	-0.270	0.350	0.040
2020/01/31 18:40:53.6	74.320	-0.280	0.330	0.030
2020/01/31 18:40:53.7	74.300	-0.280	0.300	0.000
2020/01/31 18:40:53.8	74.280	-0.280	0.260	-0.020
2020/01/31 18:40:53.9	74.260	-0.280	0.220	-0.050
2020/01/31 18:40:54.0	74.250	-0.280	0.180	-0.080
2020/01/31 18:40:54.1	74.240	-0.270	0.140	-0.120
2020/01/31 18:40:54.2	74.240	-0.270	0.090	-0.150
2020/01/31 18:40:54.3	74.240	-0.260	0.030	-0.200
2020/01/31 18:40:54.4	74.240	-0.250	-0.020	-0.240
2020/01/31 18:40:54.5	74.240	-0.240	-0.080	-0.290
2020/01/31 18:40:54.6	74.250	-0.230	-0.140	-0.340
2020/01/31 18:40:54.7	74.260	-0.220	-0.200	-0.390
2020/01/31 18:40:54.8	74.290	-0.210	-0.260	-0.450
2020/01/31 18:40:54.9	74.310	-0.190	-0.330	-0.500
2020/01/31 18:40:55.0	74.330	-0.170	-0.390	-0.560
2020/01/31 18:40:55.1	74.350	-0.150	-0.460	-0.620
2020/01/31 18:40:55.2	74.380	-0.130	-0.530	-0.680
2020/01/31 18:40:55.3	74.410	-0.110	-0.600	-0.740
2020/01/31 18:40:55.4	74.450	-0.090	-0.660	-0.800
2020/01/31 18:40:55.5	74.490	-0.060	-0.730	-0.860
2020/01/31 18:40:55.6	74.530	-0.040	-0.790	-0.920
2020/01/31 18:40:55.7	74.570	-0.010	-0.850	-0.980
2020/01/31 18:40:55.8	74.610	0.010	-0.910	-1.030
2020/01/31 18:40:55.9	74.650	0.040	-0.960	-1.080
2020/01/31 18:40:56.0	74.700	0.070	-1.000	-1.120
2020/01/31 18:40:56.1	74.740	0.100	-1.050	-1.160
2020/01/31 18:40:56.2	74.790	0.120	-1.080	-1.200
2020/01/31 18:40:56.3	74.840	0.150	-1.110	-1.240
2020/01/31 18:40:56.4	74.890	0.170	-1.130	-1.260
2020/01/31 18:40:56.5	74.930	0.200	-1.150	-1.290
2020/01/31 18:40:56.6	74.980	0.220	-1.160	-1.310
2020/01/31 18:40:56.7	75.020	0.250	-1.150	-1.320
2020/01/31 18:40:56.8	75.060	0.270	-1.140	-1.320
2020/01/31 18:40:56.9	75.100	0.280	-1.130	-1.320
2020/01/31 18:40:57.0	75.140	0.300	-1.100	-1.320
2020/01/31 18:40:57.1	75.170	0.320	-1.070	-1.310
2020/01/31 18:40:57.2	75.200	0.330	-1.020	-1.290
2020/01/31 18:40:57.3	75.230	0.340	-0.970	-1.260
2020/01/31 18:40:57.4	75.250	0.350	-0.910	-1.230
2020/01/31 18:40:57.5	75.270	0.360	-0.850	-1.190
2020/01/31 18:40:57.6	75.290	0.360	-0.770	-1.140
2020/01/31 18:40:57.7	75.300	0.360	-0.690	-1.090
2020/01/31 18:40:57.8	75.300	0.360	-0.610	-1.030
2020/01/31 18:40:57.9	75.300	0.360	-0.520	-0.960
2020/01/31 18:40:58.0	75.300	0.360	-0.420	-0.890
2020/01/31 18:40:58.1	75.300	0.350	-0.330	-0.810
2020/01/31 18:40:58.2	75.290	0.340	-0.230	-0.730
2020/01/31 18:40:58.3	75.280	0.330	-0.130	-0.640
2020/01/31 18:40:58.4	75.260	0.320	-0.030	-0.550
2020/01/31 18:40:58.5	75.250	0.310	0.060	-0.450
2020/01/31 18:40:58.6	75.230	0.290	0.160	-0.350
2020/01/31 18:40:58.7	75.210	0.280	0.250	-0.250
2020/01/31 18:40:58.8	75.210	0.260	0.340	-0.150
2020/01/31 18:40:58.9	75.190	0.240	0.420	-0.050
2020/01/31 18:40:59.0	75.170	0.230	0.500	0.060
2020/01/31 18:40:59.1	75.160	0.210	0.560	0.160
2020/01/31 18:40:59.2	75.140	0.190	0.630	0.260
2020/01/31 18:40:59.3	75.130	0.180	0.680	0.350
2020/01/31 18:40:59.4	75.120	0.160	0.730	0.450
2020/01/31 18:40:59.5	75.110	0.140	0.760	0.540
2020/01/31 18:40:59.6	75.100	0.120	0.790	0.620
2020/01/31 18:40:59.7	75.100	0.110	0.810	0.710
2020/01/31 18:40:59.8	75.090	0.090	0.820	0.780
2020/01/31 18:40:59.9	75.080	0.070	0.830	0.860
2020/01/31 18:41:00.0	75.080	0.060	0.830	0.920
2020/01/31 18:41:00.1	75.080	0.040	0.820	0.980
2020/01/31 18:41:00.2	75.080	0.030	0.800	1.040
2020/01/31 18:41:00.3	75.080	0.010	0.780	1.090
2020/01/31 18:41:00.4	75.080	-0.010	0.750	1.130
2020/01/31 18:41:00.5	75.080	-0.020	0.710	1.170
2020/01/31 18:41:00.6	75.080	-0.040	0.680	1.210
2020/01/31 18:41:00.7	75.080	-0.060	0.640	1.230
2020/01/31 18:41:00.8	75.070	-0.070	0.590	1.250
2020/01/31 18:41:00.9	75.070	-0.090	0.550	1.270
2020/01/31 18:41:01.0	75.070	-0.110	0.500	1.280
2020/01/31 18:41:01.1	75.060	-0.130	0.450	1.290
2020/01/31 18:41:01.2	75.060	-0.140	0.400	1.290
2020/01/31 18:41:01.3	75.060	-0.160	0.350	1.280
2020/01/31 18:41:01.4	75.050	-0.180	0.310	1.280
2020/01/31 18:41:01.5	75.040	-0.200	0.260	1.260
2020/01/31 18:41:01.6	75.040	-0.210	0.210	1.250
2020/01/31 18:41:01.7	75.030	-0.230	0.170	1.230
2020/01/31 18:41:01.8	75.030	-0.250	0.130	1.210
2020/01/31 18:41:01.9	75.020	-0.260	0.090	1.190
2020/01/31 18:41:02.0	75.020	-0.280	0.060	1.160
2020/01/31 18:41:02.1	75.010	-0.300	0.020	1.130
2020/01/31 18:41:02.2	75.000	-0.310	-0.010	1.110
2020/01/31 18:41:02.3	74.990	-0.320	-0.040	1.070
2020/01/31 18:41:02.4	74.980	-0.330	-0.070	1.040
2020/01/31 18:41:02.5	74.980	-0.350	-0.090	1.010
2020/01/31 18:41:02.6	74.970	-0.350	-0.120	0.980
2020/01/31 18:41:02.7	74.970	-0.360	-0.140	0.950
2020/01/31 18:41:02.8	74.950	-0.370	-0.160	0.910
2020/01/31 18:41:02.9	74.950	-0.370	-0.180	0.880
2020/01/31 18:41:03.0	74.950	-0.370	-0.190	0.840
2020/01/31 18:41:03.1	74.950	-0.370	-0.210	0.810
2020/01/31 18:41:03.2	74.960	-0.360	-0.230	0.770
2020/01/31 18:41:03.3	74.960	-0.350	-0.240	0.730
2020/01/31 18:41:03.4	74.970	-0.340	-0.260	0.700
2020/01/31 18:41:03.5	74.980	-0.330	-0.280	0.660
2020/01/31 18:41:03.6	74.990	-0.310	-0.300	0.620
2020/01/31 18:41:03.7	75.010	-0.290	-0.320	0.580
2020/01/31 18:41:03.8	75.030	-0.270	-0.340	0.540
2020/01/31 18:41:03.9	75.050	-0.250	-0.360	0.500
2020/01/31 18:41:04.0	75.070	-0.220	-0.390	0.470
2020/01/31 18:41:04.1	75.090	-0.190	-0.420	0.430
2020/01/31 18:41:04.2	75.120	-0.160	-0.440	0.390
2020/01/31 18:41:04.3	75.150	-0.130	-0.480	0.350
2020/01/31 18:41:04.4	75.170	-0.090	-0.510	0.320
2020/01/31 18:41:04.5	75.200	-0.050	-0.550	0.280
2020/01/31 18:41:04.6	75.230	-0.010	-0.580	0.240
2020/01/31 18:41:04.7	75.260	0.030	-0.620	0.210
2020/01/31 18:41:04.8	75.290	0.070	-0.670	0.180
2020/01/31 18:41:04.9	75.320	0.110	-0.710	0.140
2020/01/31 18:41:05.0	75.350	0.150	-0.750	0.110
2020/01/31 18:41:05.1	75.390	0.180	-0.800	0.070
2020/01/31 18:41:05.2	75.420	0.220	-0.840	0.040
2020/01/31 18:41:05.3	75.460	0.260	-0.890	0.010
2020/01/31 18:41:05.4	75.490	0.300	-0.930	-0.030
2020/01/31 18:41:05.5	75.530	0.330	-0.970	-0.060
2020/01/31 18:41:05.6	75.560	0.370	-1.010	-0.090
2020/01/31 18:41:05.7	75.600	0.400	-1.050	-0.120
2020/01/31 18:41:05.8	75.630	0.420	-1.090	-0.150
2020/01/31 18:41:05.9	75.660	0.450	-1.120	-0.180
2020/01/31 18:41:06.0	75.700	0.470	-1.150	-0.210
2020/01/31 18:41:06.1	75.730	0.490	-1.170	-0.240
2020/01/31 18:41:06.2	75.760	0.500	-1.190	-0.270
2020/01/31 18:41:06.3	75.790	0.510	-1.210	-0.290
2020/01/31 18:41:06.4	75.810	0.520	-1.210	-0.310
2020/01/31 18:41:06.5	75.840	0.530	-1.210	-0.330
2020/01/31 18:41:06.6	75.860	0.530	-1.210	-0.350
2020/01/31 18:41:06.7	75.880	0.520	-1.190	-0.360
2020/01/31 18:41:06.8	75.900	0.520	-1.160	-0.370
2020/01/31 18:41:06.9	75.910	0.510	-1.130	-0.380
2020/01/31 18:41:07.0	75.920	0.490	-1.090	-0.380
2020/01/31 18:41:07.1	75.930	0.470	-1.040	-0.370
2020/01/31 18:41:07.2	75.940	0.450	-0.990	-0.370
2020/01/31 18:41:07.3	75.940	0.430	-0.920	-0.350
2020/01/31 18:41:07.4	75.930	0.400	-0.850	-0.330
2020/01/31 18:41:07.5	75.930	0.370	-0.770	-0.310
2020/01/31 18:41:07.6	75.920	0.330	-0.690	-0.280
2020/01/31 18:41:07.7	75.900	0.300	-0.590	-0.250
2020/01/31 18:41:07.8	75.890	0.260	-0.490	-0.210
2020/01/31 18:41:07.9	75.870	0.220	-0.390	-0.170
2020/01/31 18:41:08.0	75.840	0.170	-0.280	-0.120
2020/01/31 18:41:08.1	75.810	0.130	-0.160	-0.070
2020/01/31 18:41:08.2	75.780	0.080	-0.050	-0.020
2020/01/31 18:41:08.3	75.740	0.030	0.070	0.030
2020/01/31 18:41:08.4	75.700	-0.020	0.190	0.090
2020/01/31 18:41:08.5	75.660	-0.070	0.310	0.150
2020/01/31 18:41:08.6	75.620	-0.120	0.430	0.210
2020/01/31 18:41:08.7	75.570	-0.170	0.540	0.280
2020/01/31 18:41:08.8	75.520	-0.220	0.660	0.340
2020/01/31 18:41:08.9	75.470	-0.260	0.770	0.400
2020/01/31 18:41:09.0	75.410	-0.310	0.870	0.460
2020/01/31 18:41:09.1	75.360	-0.360	0.970	0.520
2020/01/31 18:41:09.2	75.310	-0.400	1.060	0.580
2020/01/31 18:41:09.3	75.250	-0.450	1.140	0.630
2020/01/31 18:41:09.4	75.200	-0.490	1.210	0.680
2020/01/31 18:41:09.5	75.150	-0.530	1.270	0.730
2020/01/31 18:41:09.6	75.100	-0.560	1.320	0.770
2020/01/31 18:41:09.7	75.050	-0.590	1.360	0.810
2020/01/31 18:41:09.8	75.000	-0.620	1.390	0.840
2020/01/31 18:41:09.9	74.950	-0.640	1.410	0.860
2020/01/31 18:41:10.0	74.910	-0.660	1.410	0.880
2020/01/31 18:41:10.1	74.870	-0.680	1.400	0.890
2020/01/31 18:41:10.2	74.830	-0.690	1.370	0.900
2020/01/31 18:41:10.3	74.800	-0.690	1.340	0.900
2020/01/31 18:41:10.4	74.770	-0.690	1.290	0.890
2020/01/31 18:41:10.5	74.750	-0.690	1.230	0.880
2020/01/31 18:41:10.6	74.730	-0.680	1.160	0.860
2020/01/31 18:41:10.7	74.710	-0.660	1.070	0.830
2020/01/31 18:41:10.8	74.700	-0.640	0.980	0.800
2020/01/31 18:41:10.9	74.690	-0.620	0.870	0.760
2020/01/31 18:41:11.0	74.690	-0.590	0.760	0.720
2020/01/31 18:41:11.1	74.690	-0.550	0.640	0.680
2020/01/31 18:41:11.2	74.690	-0.510	0.510	0.620
2020/01/31 18:41:11.3	74.700	-0.470	0.380	0.570
2020/01/31 18:41:11.4	74.710	-0.430	0.250	0.510
2020/01/31 18:41:11.5	74.730	-0.380	0.110	0.450
2020/01/31 18:41:11.6	74.750	-0.330	-0.030	0.390
2020/01/31 18:41:11.7	74.770	-0.280	-0.180	0.320
2020/01/31 18:41:11.8	74.820	-0.220	-0.320	0.250
2020/01/31 18:41:11.9	74.850	-0.170	-0.460	0.180
2020/01/31 18:41:12.0	74.880	-0.110	-0.590	0.110
2020/01/31 18:41:12.1	74.920	-0.060	-0.730	0.040
2020/01/31 18:41:12.2	74.960	-0.000	-0.850	-0.030
2020/01/31 18:41:12.3	75.000	0.050	-0.970	-0.100
2020/01/31 18:41:12.4	75.040	0.100	-1.090	-0.180
2020/01/31 18:41:12.5	75.080	0.150	-1.190	-0.250
2020/01/31 18:41:12.6	75.120	0.200	-1.290	-0.310
2020/01/31 18:41:12.7	75.170	0.250	-1.370	-0.380
2020/01/31 18:41:12.8	75.200	0.300	-1.450	-0.440
2020/01/31 18:41:12.9	75.250	0.340	-1.520	-0.500
2020/01/31 18:41:13.0	75.290	0.370	-1.570	-0.550
2020/01/31 18:41:13.1	75.340	0.410	-1.610	-0.610
2020/01/31 18:41:13.2	75.380	0.440	-1.630	-0.660
2020/01/31 18:41:13.3	75.420	0.470	-1.650	-0.700
2020/01/31 18:41:13.4	75.470	0.490	-1.650	-0.740
2020/01/31 18:41:13.5	75.510	0.510	-1.650	-0.780
2020/01/31 18:41:13.6	75.540	0.520	-1.630	-0.810
2020/01/31 18:41:13.7	75.580	0.530	-1.590	-0.830
2020/01/31 18:41:13.8	75.620	0.540	-1.550	-0.850
2020/01/31 18:41:13.9	75.650	0.540	-1.500	-0.860
2020/01/31 18:41:14.0	75.680	0.540	-1.440	-0.870
2020/01/31 18:41:14.1	75.710	0.540	-1.370	-0.880
2020/01/31 18:41:14.2	75.740	0.530	-1.290	-0.870
2020/01/31 18:41:14.3	75.760	0.520	-1.210	-0.860
2020/01/31 18:41:14.4	75.790	0.510	-1.120	-0.850
2020/01/31 18:41:14.5	75.800	0.500	-1.020	-0.830
2020/01/31 18:41:14.6	75.820	0.480	-0.920	-0.800
2020/01/31 18:41:14.7	75.830	0.460	-0.820	-0.770
2020/01/31 18:41:14.8	75.840	0.440	-0.720	-0.730
2020/01/31 18:41:14.9	75.840	0.420	-0.610	-0.690
2020/01/31 18:41:15.0	75.850	0.390	-0.510	-0.640
2020/01/31 18:41:15.1	75.850	0.370	-0.400	-0.590
2020/01/31 18:41:15.2	75.850	0.340	-0.300	-0.530
2020/01/31 18:41:15.3	75.850	0.320	-0.200	-0.470
2020/01/31 18:41:15.4	75.840	0.290	-0.100	-0.400
2020/01/31 18:41:15.5	75.830	0.270	-0.010	-0.330
2020/01/31 18:41:15.6	75.820	0.240	0.080	-0.260
2020/01/31 18:41:15.7	75.800	0.210	0.160	-0.180
2020/01/31 18:41:15.8	75.790	0.190	0.240	-0.100
2020/01/31 18:41:15.9	75.770	0.160	0.320	-0.010
2020/01/31 18:41:16.0	75.750	0.140	0.380	0.070
2020/01/31 18:41:16.1	75.720	0.110	0.440	0.160
2020/01/31 18:41:16.2	75.690	0.090	0.500	0.250
2020/01/31 18:41:16.3	75.660	0.070	0.550	0.340
2020/01/31 18:41:16.4	75.630	0.040	0.590	0.440
2020/01/31 18:41:16.5	75.600	0.020	0.630	0.530
2020/01/31 18:41:16.6	75.560	-0.000	0.660	0.620
2020/01/31 18:41:16.7	75.520	-0.020	0.680	0.710
2020/01/31 18:41:16.8	75.490	-0.050	0.700	0.810
2020/01/31 18:41:16.9	75.450	-0.070	0.710	0.900
2020/01/31 18:41:17.0	75.410	-0.090	0.710	0.980
2020/01/31 18:41:17.1	75.370	-0.110	0.720	1.070
2020/01/31 18:41:17.2	75.320	-0.130	0.710	1.150
2020/01/31 18:41:17.3	75.280	-0.150	0.700	1.230
2020/01/31 18:41:17.4	75.240	-0.170	0.690	1.300
2020/01/31 18:41:17.5	75.200	-0.190	0.670	1.370
2020/01/31 18:41:17.6	75.150	-0.200	0.650	1.440
2020/01/31 18:41:17.7	75.110	-0.220	0.630	1.510
2020/01/31 18:41:17.8	75.070	-0.240	0.610	1.570
2020/01/31 18:41:17.9	75.030	-0.250	0.580	1.620
2020/01/31 18:41:18.0	74.990	-0.270	0.550	1.680
2020/01/31 18:41:18.1	74.950	-0.280	0.510	1.720
2020/01/31 18:41:18.2	74.920	-0.300	0.480	1.770
2020/01/31 18:41:18.3	74.890	-0.310	0.440	1.810
2020/01/31 18:41:18.4	74.860	-0.320	0.400	1.840
2020/01/31 18:41:18.5	74.830	-0.330	0.360	1.870
2020/01/31 18:41:18.6	74.810	-0.340	0.320	1.890
2020/01/31 18:41:18.7	74.790	-0.350	0.280	1.910
2020/01/31 18:41:18.8	74.760	-0.350	0.240	1.920
2020/01/31 18:41:18.9	74.740	-0.360	0.200	1.930
2020/01/31 18:41:19.0	74.730	-0.360	0.160	1.930
2020/01/31 18:41:19.1	74.720	-0.360	0.120	1.920
2020/01/31 18:41:19.2	74.720	-0.360	0.080	1.910
2020/01/31 18:41:19.3	74.720	-0.360	0.040	1.890
2020/01/31 18:41:19.4	74.720	-0.350	0.000	1.870
2020/01/31 18:41:19.5	74.730	-0.340	-0.040	1.840
2020/01/31 18:41:19.6	74.730	-0.330	-0.080	1.800
2020/01/31 18:41:19.7	74.750	-0.320	-0.120	1.760
2020/01/31 18:41:19.8	74.760	-0.310	-0.160	1.710
2020/01/31 18:41:19.9	74.780	-0.300	-0.190	1.660
2020/01/31 18:41:20.0	74.800	-0.280	-0.230	1.600
2020/01/31 18:41:20.1	74.820	-0.260	-0.270	1.540
2020/01/31 18:41:20.2	74.850	-0.240	-0.300	1.470
2020/01/31 18:41:20.3	74.880	-0.220	-0.340	1.400
2020/01/31 18:41:20.4	74.910	-0.200	-0.380	1.320
2020/01/31 18:41:20.5	74.940	-0.170	-0.410	1.240
2020/01/31 18:41:20.6	74.970	-0.150	-0.440	1.150
2020/01/31 18:41:20.7	75.010	-0.120	-0.480	1.070
2020/01/31 18:41:20.8	75.050	-0.100	-0.510	0.980
2020/01/31 18:41:20.9	75.080	-0.070	-0.540	0.890
2020/01/31 18:41:21.0	75.120	-0.040	-0.570	0.800
2020/01/31 18:41:21.1	75.150	-0.010	-0.600	0.700
2020/01/31 18:41:21.2	75.190	0.020	-0.630	0.610
2020/01/31 18:41:21.3	75.220	0.050	-0.650	0.520
2020/01/31 18:41:21.4	75.250	0.080	-0.680	0.430
2020/01/31 18:41:21.5	75.280	0.110	-0.700	0.330
2020/01/31 18:41:21.6	75.310	0.130	-0.720	0.240
2020/01/31 18:41:21.7	75.340	0.160	-0.740	0.160
2020/01/31 18:41:21.8	75.370	0.190	-0.760	0.080
2020/01/31 18:41:21.9	75.390	0.210	-0.770	-0.000
2020/01/31 18:41:22.0	75.410	0.240	-0.780	-0.080
2020/01/31 18:41:22.1	75.430	0.260	-0.790	-0.160
2020/01/31 18:41:22.2	75.440	0.280	-0.800	-0.230
2020/01/31 18:41:22.3	75.450	0.300	-0.810	-0.290
2020/01/31 18:41:22.4	75.460	0.320	-0.810	-0.350
2020/01/31 18:41:22.5	75.470	0.340	-0.810	-0.410
2020/01/31 18:41:22.6	75.470	0.350	-0.810	-0.460
2020/01/31 18:41:22.7	75.470	0.360	-0.810	-0.500
2020/01/31 18:41:22.8	75.460	0.370	-0.800	-0.540
2020/01/31 18:41:22.9	75.450	0.380	-0.790	-0.570
2020/01/31 18:41:23.0	75.440	0.390	-0.770	-0.600
2020/01/31 18:41:23.1	75.430	0.400	-0.760	-0.620
2020/01/31 18:41:23.2	75.420	0.400	-0.740	-0.640
2020/01/31 18:41:23.3	75.400	0.400	-0.720	-0.640
2020/01/31 18:41:23.4	75.380	0.400	-0.690	-0.650
2020/01/31 18:41:23.5	75.360	0.390	-0.670	-0.640
2020/01/31 18:41:23.6	75.330	0.390	-0.640	-0.630
2020/01/31 18:41:23.7	75.300	0.380	-0.610	-0.620
2020/01/31 18:41:23.8	75.280	0.370	-0.570	-0.600
2020/01/31 18:41:23.9	75.250	0.360	-0.540	-0.570
2020/01/31 18:41:24.0	75.220	0.350	-0.500	-0.540
2020/01/31 18:41:24.1	75.180	0.340	-0.460	-0.510
2020/01/31 18:41:24.2	75.140	0.320	-0.420	-0.480
2020/01/31 18:41:24.3	75.110	0.310	-0.370	-0.440
2020/01/31 18:41:24.4	75.070	0.290	-0.330	-0.400
2020/01/31 18:41:24.5	75.030	0.270	-0.280	-0.360
2020/01/31 18:41:24.6	75.000	0.250	-0.240	-0.310
2020/01/31 18:41:24.7	74.960	0.240	-0.190	-0.270
2020/01/31 18:41:24.8	74.920	0.220	-0.140	-0.220
2020/01/31 18:41:24.9	74.880	0.190	-0.090	-0.180
2020/01/31 18:41:25.0	74.850	0.170	-0.050	-0.130
2020/01/31 18:41:25.1	74.810	0.150	-0.000	-0.090
2020/01/31 18:41:25.2	74.780	0.130	0.040	-0.050
2020/01/31 18:41:25.3	74.750	0.110	0.080	-0.010
2020/01/31 18:41:25.4	74.720	0.090	0.120	0.030
2020/01/31 18:41:25.5	74.700	0.070	0.160	0.070
2020/01/31 18:41:25.6	74.670	0.050	0.200	0.100
2020/01/31 18:41:25.7	74.650	0.020	0.230	0.140
2020/01/31 18:41:25.8	74.640	0.000	0.260	0.170
2020/01/31 18:41:25.9	74.620	-0.020	0.290	0.190
2020/01/31 18:41:26.0	74.610	-0.040	0.310	0.220
2020/01/31 18:41:26.1	74.600	-0.060	0.330	0.240
2020/01/31 18:41:26.2	74.600	-0.080	0.350	0.250
2020/01/31 18:41:26.3	74.600	-0.100	0.370	0.260
2020/01/31 18:41:26.4	74.590	-0.120	0.380	0.270
2020/01/31 18:41:26.5	74.600	-0.140	0.380	0.280
2020/01/31 18:41:26.6	74.600	-0.160	0.390	0.280
2020/01/31 18:41:26.7	74.610	-0.170	0.390	0.280
2020/01/31 18:41:26.8	74.610	-0.190	0.390	0.280
2020/01/31 18:41:26.9	74.620	-0.210	0.380	0.270
2020/01/31 18:41:27.0	74.640	-0.230	0.370	0.270
2020/01/31 18:41:27.1	74.650	-0.240	0.360	0.260
2020/01/31 18:41:27.2	74.660	-0.260	0.350	0.250
2020/01/31 18:41:27.3	74.680	-0.270	0.330	0.240
2020/01/31 18:41:27.4	74.700	-0.280	0.310	0.220
2020/01/31 18:41:27.5	74.720	-0.290	0.290	0.210
2020/01/31 18:41:27.6	74.740	-0.310	0.270	0.200
2020/01/31 18:41:27.7	74.760	-0.320	0.250	0.190
2020/01/31 18:41:27.8	74.780	-0.320	0.220	0.180
2020/01/31 18:41:27.9	74.800	-0.330	0.200	0.170
2020/01/31 18:41:28.0	74.820	-0.340	0.170	0.160
2020/01/31 18:41:28.1	74.840	-0.340	0.140	0.150
2020/01/31 18:41:28.2	74.850	-0.350	0.110	0.150
2020/01/31 18:41:28.3	74.870	-0.350	0.080	0.150
2020/01/31 18:41:28.4	74.880	-0.350	0.050	0.150
2020/01/31 18:41:28.5	74.900	-0.350	0.020	0.150
2020/01/31 18:41:28.6	74.910	-0.350	-0.000	0.160
2020/01/31 18:41:28.7	74.920	-0.350	-0.030	0.160
2020/01/31 18:41:28.8	74.940	-0.350	-0.070	0.180
2020/01/31 18:41:28.9	74.950	-0.340	-0.090	0.190
2020/01/31 18:41:29.0	74.950	-0.340	-0.120	0.200
2020/01/31 18:41:29.1	74.960	-0.330	-0.150	0.220
2020/01/31 18:41:29.2	74.960	-0.320	-0.180	0.240
2020/01/31 18:41:29.3	74.960	-0.310	-0.200	0.260
2020/01/31 18:41:29.4	74.960	-0.300	-0.230	0.280
2020/01/31 18:41:29.5	74.960	-0.290	-0.250	0.300
2020/01/31 18:41:29.6	74.960	-0.270	-0.280	0.320
2020/01/31 18:41:29.7	74.960	-0.260	-0.300	0.350
2020/01/31 18:41:29.8	74.940	-0.240	-0.330	0.370
2020/01/31 18:41:29.9	74.930	-0.220	-0.350	0.400
2020/01/31 18:41:30.0	74.920	-0.200	-0.370	0.420
2020/01/31 18:41:30.1	74.910	-0.180	-0.390	0.450
2020/01/31 18:41:30.2	74.900	-0.160	-0.410	0.470
2020/01/31 18:41:30.3	74.890	-0.140	-0.430	0.500
2020/01/31 18:41:30.4	74.880	-0.120	-0.450	0.520
2020/01/31 18:41:30.5	74.860	-0.100	-0.460	0.540
2020/01/31 18:41:30.6	74.840	-0.080	-0.480	0.560
2020/01/31 18:41:30.7	74.830	-0.060	-0.490	0.580
2020/01/31 18:41:30.8	74.810	-0.040	-0.500	0.600
2020/01/31 18:41:30.9	74.790	-0.010	-0.510	0.620
2020/01/31 18:41:31.0	74.770	0.010	-0.520	0.640
2020/01/31 18:41:31.1	74.750	0.030	-0.530	0.650
2020/01/31 18:41:31.2	74.730	0.050	-0.530	0.670
2020/01/31 18:41:31.3	74.710	0.070	-0.540	0.680
2020/01/31 18:41:31.4	74.690	0.090	-0.540	0.690
2020/01/31 18:41:31.5	74.670	0.110	-0.540	0.690
2020/01/31 18:41:31.6	74.650	0.120	-0.540	0.700
2020/01/31 18:41:31.7	74.640	0.140	-0.540	0.710
2020/01/31 18:41:31.8	74.630	0.160	-0.530	0.710
2020/01/31 18:41:31.9	74.610	0.170	-0.530	0.710
2020/01/31 18:41:32.0	74.600	0.190	-0.530	0.710
2020/01/31 18:41:32.1	74.590	0.200	-0.520	0.700
2020/01/31 18:41:32.2	74.580	0.210	-0.510	0.700
2020/01/31 18:41:32.3	74.580	0.220	-0.500	0.690
2020/01/31 18:41:32.4	74.570	0.230	-0.490	0.680
2020/01/31 18:41:32.5	74.570	0.240	-0.480	0.670
2020/01/31 18:41:32.6	74.570	0.250	-0.470	0.660
2020/01/31 18:41:32.7	74.570	0.250	-0.460	0.650
2020/01/31 18:41:32.8	74.570	0.260	-0.440	0.630
2020/01/31 18:41:32.9	74.580	0.260	-0.420	0.620
2020/01/31 18:41:33.0	74.590	0.260	-0.400	0.600
2020/01/31 18:41:33.1	74.600	0.260	-0.380	0.590
2020/01/31 18:41:33.2	74.610	0.260	-0.360	0.570
2020/01/31 18:41:33.3	74.620	0.260	-0.330	0.550
2020/01/31 18:41:33.4	74.630	0.260	-0.310	0.530
2020/01/31 18:41:33.5	74.650	0.260	-0.280	0.520
2020/01/31 18:41:33.6	74.670	0.250	-0.250	0.500
2020/01/31 18:41:33.7	74.680	0.250	-0.220	0.480
2020/01/31 18:41:33.8	74.700	0.240	-0.190	0.470
2020/01/31 18:41:33.9	74.720	0.230	-0.160	0.450
2020/01/31 18:41:34.0	74.730	0.220	-0.130	0.440
2020/01/31 18:41:34.1	74.740	0.210	-0.090	0.420
2020/01/31 18:41:34.2	74.760	0.200	-0.060	0.410
2020/01/31 18:41:34.3	74.770	0.190	-0.020	0.400
2020/01/31 18:41:34.4	74.770	0.170	0.010	0.390
2020/01/31 18:41:34.5	74.780	0.160	0.050	0.370
2020/01/31 18:41:34.6	74.780	0.150	0.080	0.360
2020/01/31 18:41:34.7	74.780	0.130	0.110	0.350
2020/01/31 18:41:34.8	74.780	0.120	0.150	0.350
2020/01/31 18:41:34.9	74.780	0.100	0.180	0.340
2020/01/31 18:41:35.0	74.770	0.080	0.210	0.330
2020/01/31 18:41:35.1	74.760	0.070	0.230	0.320
2020/01/31 18:41:35.2	74.750	0.050	0.260	0.320
2020/01/31 18:41:35.3	74.730	0.030	0.280	0.310
2020/01/31 18:41:35.4	74.710	0.020	0.300	0.310
2020/01/31 18:41:35.5	74.690	0.000	0.310	0.310
2020/01/31 18:41:35.6	74.670	-0.020	0.330	0.300
2020/01/31 18:41:35.7	74.650	-0.030	0.340	0.300
2020/01/31 18:41:35.8	74.620	-0.050	0.340	0.290
2020/01/31 18:41:35.9	74.600	-0.060	0.350	0.290
2020/01/31 18:41:36.0	74.570	-0.070	0.340	0.290
2020/01/31 18:41:36.1	74.550	-0.090	0.340	0.290
2020/01/31 18:41:36.2	74.520	-0.100	0.330	0.280
2020/01/31 18:41:36.3	74.490	-0.110	0.310	0.280
2020/01/31 18:41:36.4	74.470	-0.120	0.290	0.270
2020/01/31 18:41:36.5	74.450	-0.120	0.270	0.270
2020/01/31 18:41:36.6	74.420	-0.130	0.240	0.260
2020/01/31 18:41:36.7	74.400	-0.130	0.210	0.250
2020/01/31 18:41:36.8	74.390	-0.140	0.170	0.240
2020/01/31 18:41:36.9	74.370	-0.140	0.130	0.230
2020/01/31 18:41:37.0	74.360	-0.140	0.090	0.220
2020/01/31 18:41:37.1	74.340	-0.140	0.040	0.200
2020/01/31 18:41:37.2	74.340	-0.130	-0.010	0.180
2020/01/31 18:41:37.3	74.330	-0.130	-0.070	0.160
2020/01/31 18:41:37.4	74.330	-0.120	-0.120	0.130
2020/01/31 18:41:37.5	74.320	-0.120	-0.180	0.110
2020/01/31 18:41:37.6	74.320	-0.110	-0.240	0.080
2020/01/31 18:41:37.7	74.330	-0.100	-0.300	0.050
2020/01/31 18:41:37.8	74.340	-0.090	-0.360	0.020
2020/01/31 18:41:37.9	74.350	-0.080	-0.420	-0.000
2020/01/31 18:41:38.0	74.360	-0.060	-0.480	-0.030
2020/01/31 18:41:38.1	74.360	-0.050	-0.530	-0.060
2020/01/31 18:41:38.2	74.370	-0.040	-0.590	-0.090
2020/01/31 18:41:38.3	74.380	-0.020	-0.640	-0.120
2020/01/31 18:41:38.4	74.390	-0.010	-0.690	-0.140
2020/01/31 18:41:38.5	74.400	0.000	-0.730	-0.170
2020/01/31 18:41:38.6	74.410	0.020	-0.770	-0.190
2020/01/31 18:41:38.7	74.420	0.030	-0.810	-0.210
2020/01/31 18:41:38.8	74.430	0.040	-0.840	-0.230
2020/01/31 18:41:38.9	74.430	0.060	-0.870	-0.250
2020/01/31 18:41:39.0	74.440	0.070	-0.890	-0.270
2020/01/31 18:41:39.1	74.450	0.080	-0.910	-0.280
2020/01/31 18:41:39.2	74.460	0.090	-0.920	-0.290
2020/01/31 18:41:39.3	74.470	0.100	-0.920	-0.300
2020/01/31 18:41:39.4	74.480	0.110	-0.920	-0.310
2020/01/31 18:41:39.5	74.480	0.120	-0.920	-0.310
2020/01/31 18:41:39.6	74.490	0.130	-0.910	-0.320
2020/01/31 18:41:39.7	74.500	0.130	-0.890	-0.320
2020/01/31 18:41:39.8	74.500	0.140	-0.870	-0.310
2020/01/31 18:41:39.9	74.510	0.140	-0.840	-0.310
2020/01/31 18:41:40.0	74.520	0.150	-0.810	-0.300
2020/01/31 18:41:40.1	74.530	0.150	-0.780	-0.290
2020/01/31 18:41:40.2	74.540	0.150	-0.740	-0.280
2020/01/31 18:41:40.3	74.550	0.150	-0.700	-0.260
2020/01/31 18:41:40.4	74.560	0.150	-0.660	-0.250
2020/01/31 18:41:40.5	74.570	0.150	-0.610	-0.230
2020/01/31 18:41:40.6	74.580	0.150	-0.560	-0.210
2020/01/31 18:41:40.7	74.590	0.150	-0.510	-0.190
2020/01/31 18:41:40.8	74.620	0.150	-0.450	-0.170
2020/01/31 18:41:40.9	74.630	0.140	-0.400	-0.140
2020/01/31 18:41:41.0	74.640	0.140	-0.350	-0.120
2020/01/31 18:41:41.1	74.650	0.140	-0.290	-0.090
2020/01/31 18:41:41.2	74.660	0.130	-0.240	-0.060
2020/01/31 18:41:41.3	74.670	0.120	-0.180	-0.040
2020/01/31 18:41:41.4	74.670	0.120	-0.130	-0.010
2020/01/31 18:41:41.5	74.680	0.110	-0.080	0.010
2020/01/31 18:41:41.6	74.680	0.100	-0.030	0.040
2020/01/31 18:41:41.7	74.690	0.100	0.020	0.070
2020/01/31 18:41:41.8	74.680	0.090	0.070	0.090
2020/01/31 18:41:41.9	74.680	0.080	0.120	0.120
2020/01/31 18:41:42.0	74.680	0.070	0.160	0.140
2020/01/31 18:41:42.1	74.680	0.060	0.200	0.160
2020/01/31 18:41:42.2	74.670	0.050	0.240	0.180
2020/01/31 18:41:42.3	74.670	0.040	0.280	0.210
2020/01/31 18:41:42.4	74.660	0.020	0.310	0.230
2020/01/31 18:41:42.5	74.660	0.010	0.340	0.240
2020/01/31 18:41:42.6	74.650	-0.000	0.370	0.260
2020/01/31 18:41:42.7	74.640	-0.020	0.390	0.280
2020/01/31 18:41:42.8	74.630	-0.030	0.410	0.300
2020/01/31 18:41:42.9	74.620	-0.040	0.430	0.320
2020/01/31 18:41:43.0	74.610	-0.060	0.440	0.330
2020/01/31 18:41:43.1	74.590	-0.070	0.460	0.350
2020/01/31 18:41:43.2	74.580	-0.090	0.470	0.370
2020/01/31 18:41:43.3	74.570	-0.100	0.470	0.380
2020/01/31 18:41:43.4	74.550	-0.120	0.480	0.400
2020/01/31 18:41:43.5	74.540	-0.130	0.480	0.420
2020/01/31 18:41:43.6	74.520	-0.140	0.480	0.430
2020/01/31 18:41:43.7	74.510	-0.160	0.470	0.450
2020/01/31 18:41:43.8	74.500	-0.170	0.470	0.460
2020/01/31 18:41:43.9	74.490	-0.180	0.460	0.480
2020/01/31 18:41:44.0	74.480	-0.200	0.440	0.490
2020/01/31 18:41:44.1	74.470	-0.210	0.430	0.500
2020/01/31 18:41:44.2	74.460	-0.220	0.410	0.510
2020/01/31 18:41:44.3	74.450	-0.230	0.390	0.520
2020/01/31 18:41:44.4	74.440	-0.240	0.370	0.520
2020/01/31 18:41:44.5	74.440	-0.260	0.350	0.530
2020/01/31 18:41:44.6	74.440	-0.270	0.320	0.530
2020/01/31 18:41:44.7	74.440	-0.270	0.300	0.530
2020/01/31 18:41:44.8	74.430	-0.280	0.270	0.530
2020/01/31 18:41:44.9	74.440	-0.290	0.240	0.530
2020/01/31 18:41:45.0	74.440	-0.300	0.210	0.520
2020/01/31 18:41:45.1	74.450	-0.300	0.180	0.510
2020/01/31 18:41:45.2	74.450	-0.310	0.140	0.500
2020/01/31 18:41:45.3	74.460	-0.310	0.110	0.490
2020/01/31 18:41:45.4	74.470	-0.320	0.080	0.470
2020/01/31 18:41:45.5	74.480	-0.320	0.040	0.450
2020/01/31 18:41:45.6	74.500	-0.320	0.010	0.430
2020/01/31 18:41:45.7	74.510	-0.320	-0.030	0.410
2020/01/31 18:41:45.8	74.520	-0.320	-0.060	0.390
2020/01/31 18:41:45.9	74.530	-0.320	-0.090	0.360
2020/01/31 18:41:46.0	74.550	-0.320	-0.130	0.340
2020/01/31 18:41:46.1	74.570	-0.320	-0.160	0.310
2020/01/31 18:41:46.2	74.590	-0.310	-0.200	0.280
2020/01/31 18:41:46.3	74.600	-0.300	-0.230	0.250
2020/01/31 18:41:46.4	74.620	-0.290	-0.270	0.220
2020/01/31 18:41:46.5	74.640	-0.280	-0.300	0.190
2020/01/31 18:41:46.6	74.660	-0.270	-0.330	0.160
2020/01/31 18:41:46.7	74.680	-0.260	-0.360	0.130
2020/01/31 18:41:46.8	74.710	-0.250	-0.400	0.090
2020/01/31 18:41:46.9	74.730	-0.230	-0.430	0.060
2020/01/31 18:41:47.0	74.750	-0.210	-0.460	0.030
2020/01/31 18:41:47.1	74.780	-0.190	-0.490	0.010
2020/01/31 18:41:47.2	74.800	-0.170	-0.520	-0.020
2020/01/31 18:41:47.3	74.820	-0.150	-0.550	-0.040
2020/01/31 18:41:47.4	74.840	-0.130	-0.580	-0.070
2020/01/31 18:41:47.5	74.850	-0.100	-0.600	-0.090
2020/01/31 18:41:47.6	74.870	-0.070	-0.630	-0.100
2020/01/31 18:41:47.7	74.890	-0.050	-0.650	-0.120
2020/01/31 18:41:47.8	74.900	-0.020	-0.680	-0.130
2020/01/31 18:41:47.9	74.910	0.010	-0.700	-0.130
2020/01/31 18:41:48.0	74.930	0.040	-0.710	-0.140
2020/01/31 18:41:48.1	74.940	0.070	-0.730	-0.140
2020/01/31 18:41:48.2	74.950	0.100	-0.740	-0.140
2020/01/31 18:41:48.3	74.960	0.120	-0.750	-0.130
2020/01/31 18:41:48.4	74.960	0.150	-0.760	-0.130
2020/01/31 18:41:48.5	74.970	0.180	-0.760	-0.120
2020/01/31 18:41:48.6	74.980	0.210	-0.760	-0.110
2020/01/31 18:41:48.7	74.980	0.230	-0.760	-0.090
2020/01/31 18:41:48.8	74.970	0.260	-0.760	-0.070
2020/01/31 18:41:48.9	74.970	0.280	-0.750	-0.050
2020/01/31 18:41:49.0	74.970	0.300	-0.740	-0.030
2020/01/31 18:41:49.1	74.970	0.320	-0.720	-0.010
2020/01/31 18:41:49.2	74.970	0.340	-0.710	0.010
2020/01/31 18:41:49.3	74.970	0.350	-0.690	0.030
2020/01/31 18:41:49.4	74.970	0.370	-0.670	0.050
2020/01/31 18:41:49.5	74.970	0.380	-0.650	0.080
2020/01/31 18:41:49.6	74.960	0.380	-0.620	0.100
2020/01/31 18:41:49.7	74.960	0.390	-0.590	0.120
2020/01/31 18:41:49.8	74.960	0.390	-0.560	0.150
2020/01/31 18:41:49.9	74.960	0.390	-0.530	0.170
2020/01/31 18:41:50.0	74.950	0.390	-0.500	0.190
2020/01/31 18:41:50.1	74.950	0.380	-0.460	0.210
2020/01/31 18:41:50.2	74.940	0.370	-0.430	0.230
2020/01/31 18:41:50.3	74.940	0.360	-0.390	0.250
2020/01/31 18:41:50.4	74.930	0.350	-0.350	0.270
2020/01/31 18:41:50.5	74.930	0.330	-0.310	0.290
2020/01/31 18:41:50.6	74.920	0.310	-0.270	0.310
2020/01/31 18:41:50.7	74.920	0.290	-0.230	0.320
2020/01/31 18:41:50.8	74.910	0.270	-0.190	0.340
2020/01/31 18:41:50.9	74.900	0.250	-0.150	0.350
2020/01/31 18:41:51.0	74.900	0.220	-0.120	0.370
2020/01/31 18:41:51.1	74.890	0.200	-0.080	0.380
2020/01/31 18:41:51.2	74.890	0.170	-0.040	0.390
2020/01/31 18:41:51.3	74.880	0.140	-0.010	0.390
2020/01/31 18:41:51.4	74.880	0.120	0.020	0.400
2020/01/31 18:41:51.5	74.880	0.090	0.050	0.400
2020/01/31 18:41:51.6	74.870	0.060	0.080	0.410
2020/01/31 18:41:51.7	74.870	0.030	0.100	0.410
2020/01/31 18:41:51.8	74.880	0.010	0.130	0.410
2020/01/31 18:41:51.9	74.880	-0.020	0.150	0.410
2020/01/31 18:41:52.0	74.880	-0.040	0.160	0.410
2020/01/31 18:41:52.1	74.880	-0.070	0.180	0.400
2020/01/31 18:41:52.2	74.880	-0.090	0.190	0.390
2020/01/31 18:41:52.3	74.890	-0.110	0.200	0.390
2020/01/31 18:41:52.4	74.890	-0.130	0.200	0.380
2020/01/31 18:41:52.5	74.900	-0.140	0.210	0.370
2020/01/31 18:41:52.6	74.910	-0.160	0.210	0.360
2020/01/31 18:41:52.7	74.910	-0.170	0.210	0.350
2020/01/31 18:41:52.8	74.920	-0.170	0.200	0.340
2020/01/31 18:41:52.9	74.930	-0.180	0.190	0.320
2020/01/31 18:41:53.0	74.940	-0.180	0.180	0.310
2020/01/31 18:41:53.1	74.950	-0.180	0.170	0.290
2020/01/31 18:41:53.2	74.960	-0.180	0.160	0.280
2020/01/31 18:41:53.3	74.970	-0.180	0.140	0.260
2020/01/31 18:41:53.4	74.990	-0.170	0.120	0.250
2020/01/31 18:41:53.5	75.000	-0.160	0.100	0.230
2020/01/31 18:41:53.6	75.020	-0.140	0.080	0.220
2020/01/31 18:41:53.7	75.030	-0.130	0.050	0.200
2020/01/31 18:41:53.8	75.050	-0.110	0.030	0.180
2020/01/31 18:41:53.9	75.070	-0.090	-0.000	0.160
2020/01/31 18:41:54.0	75.090	-0.070	-0.030	0.150
2020/01/31 18:41:54.1	75.110	-0.050	-0.060	0.130
2020/01/31 18:41:54.2	75.130	-0.030	-0.090	0.110
2020/01/31 18:41:54.3	75.160	-0.010	-0.120	0.090
2020/01/31 18:41:54.4	75.180	0.020	-0.150	0.080
2020/01/31 18:41:54.5	75.210	0.040	-0.190	0.060
2020/01/31 18:41:54.6	75.230	0.060	-0.220	0.040
2020/01/31 18:41:54.7	75.260	0.080	-0.250	0.020
2020/01/31 18:41:54.8	75.280	0.110	-0.280	0.000
2020/01/31 18:41:54.9	75.300	0.120	-0.310	-0.020
2020/01/31 18:41:55.0	75.330	0.140	-0.340	-0.040
2020/01/31 18:41:55.1	75.360	0.160	-0.370	-0.060
2020/01/31 18:41:55.2	75.380	0.170	-0.390	-0.080
2020/01/31 18:41:55.3	75.410	0.190	-0.410	-0.090
2020/01/31 18:41:55.4	75.430	0.190	-0.430	-0.110
2020/01/31 18:41:55.5	75.450	0.200	-0.450	-0.130
2020/01/31 18:41:55.6	75.470	0.200	-0.460	-0.140
2020/01/31 18:41:55.7	75.490	0.200	-0.470	-0.160
2020/01/31 18:41:55.8	75.500	0.200	-0.480	-0.170
2020/01/31 18:41:55.9	75.520	0.200	-0.480	-0.180
2020/01/31 18:41:56.0	75.530	0.190	-0.480	-0.190
2020/01/31 18:41:56.1	75.540	0.180	-0.470	-0.200
2020/01/31 18:41:56.2	75.550	0.160	-0.460	-0.200
2020/01/31 18:41:56.3	75.560	0.150	-0.450	-0.200
2020/01/31 18:41:56.4	75.560	0.130	-0.430	-0.200
2020/01/31 18:41:56.5	75.570	0.100	-0.410	-0.200
2020/01/31 18:41:56.6	75.570	0.080	-0.380	-0.200
2020/01/31 18:41:56.7	75.570	0.050	-0.350	-0.200
2020/01/31 18:41:56.8	75.560	0.030	-0.310	-0.190
2020/01/31 18:41:56.9	75.560	-0.000	-0.270	-0.180
2020/01/31 18:41:57.0	75.550	-0.030	-0.230	-0.170
2020/01/31 18:41:57.1	75.540	-0.060	-0.190	-0.150
2020/01/31 18:41:57.2	75.530	-0.090	-0.150	-0.140
2020/01/31 18:41:57.3	75.520	-0.120	-0.100	-0.120
2020/01/31 18:41:57.4	75.510	-0.150	-0.050	-0.110
2020/01/31 18:41:57.5	75.490	-0.180	-0.000	-0.090
2020/01/31 18:41:57.6	75.480	-0.210	0.050	-0.070
2020/01/31 18:41:57.7	75.460	-0.230	0.090	-0.050
2020/01/31 18:41:57.8	75.440	-0.250	0.140	-0.030
2020/01/31 18:41:57.9	75.420	-0.270	0.190	-0.010
2020/01/31 18:41:58.0	75.410	-0.290	0.230	0.010
2020/01/31 18:41:58.1	75.390	-0.310	0.270	0.030
2020/01/31 18:41:58.2	75.380	-0.320	0.300	0.050
2020/01/31 18:41:58.3	75.370	-0.330	0.330	0.070
2020/01/31 18:41:58.4	75.350	-0.330	0.360	0.090
2020/01/31 18:41:58.5	75.350	-0.340	0.390	0.110
2020/01/31 18:41:58.6	75.340	-0.330	0.400	0.120
2020/01/31 18:41:58.7	75.330	-0.330	0.410	0.140
2020/01/31 18:41:58.8	75.320	-0.320	0.420	0.160
2020/01/31 18:41:58.9	75.310	-0.310	0.420	0.170
2020/01/31 18:41:59.0	75.310	-0.300	0.420	0.190
2020/01/31 18:41:59.1	75.310	-0.280	0.410	0.210
2020/01/31 18:41:59.2	75.300	-0.260	0.400	0.220
2020/01/31 18:41:59.3	75.300	-0.240	0.380	0.240
2020/01/31 18:41:59.4	75.300	-0.220	0.350	0.260
2020/01/31 18:41:59.5	75.300	-0.200	0.320	0.270
2020/01/31 18:41:59.6	75.300	-0.170	0.290	0.290
2020/01/31 18:41:59.7	75.300	-0.150	0.250	0.310
2020/01/31 18:41:59.8	75.310	-0.120	0.210	0.330
2020/01/31 18:41:59.9	75.310	-0.090	0.170	0.350
2020/01/31 18:42:00.0	75.310	-0.070	0.120	0.370
2020/01/31 18:42:00.1	75.320	-0.040	0.070	0.390
2020/01/31 18:42:00.2	75.320	-0.020	0.020	0.400
2020/01/31 18:42:00.3	75.320	0.000	-0.030	0.420
2020/01/31 18:42:00.4	75.330	0.020	-0.080	0.430
2020/01/31 18:42:00.5	75.330	0.040	-0.140	0.440
2020/01/31 18:42:00.6	75.340	0.060	-0.200	0.450
2020/01/31 18:42:00.7	75.350	0.080	-0.250	0.450
2020/01/31 18:42:00.8	75.370	0.090	-0.310	0.450
2020/01/31 18:42:00.9	75.380	0.100	-0.370	0.450
2020/01/31 18:42:01.0	75.400	0.110	-0.420	0.450
2020/01/31 18:42:01.1	75.410	0.120	-0.470	0.440
2020/01/31 18:42:01.2	75.430	0.120	-0.520	0.430
2020/01/31 18:42:01.3	75.450	0.120	-0.570	0.410
2020/01/31 18:42:01.4	75.470	0.120	-0.620	0.390
2020/01/31 18:42:01.5	75.490	0.110	-0.660	0.370
2020/01/31 18:42:01.6	75.520	0.100	-0.700	0.350
2020/01/31 18:42:01.7	75.540	0.100	-0.730	0.320
2020/01/31 18:42:01.8	75.570	0.080	-0.760	0.290
2020/01/31 18:42:01.9	75.590	0.070	-0.790	0.260
2020/01/31 18:42:02.0	75.620	0.050	-0.810	0.230
2020/01/31 18:42:02.1	75.650	0.040	-0.830	0.200
2020/01/31 18:42:02.2	75.680	0.020	-0.840	0.170
2020/01/31 18:42:02.3	75.710	-0.000	-0.850	0.130
2020/01/31 18:42:02.4	75.730	-0.030	-0.850	0.100
2020/01/31 18:42:02.5	75.760	-0.050	-0.840	0.070
2020/01/31 18:42:02.6	75.790	-0.070	-0.830	0.040
2020/01/31 18:42:02.7	75.820	-0.100	-0.820	0.010
2020/01/31 18:42:02.8	75.830	-0.120	-0.800	-0.010
2020/01/31 18:42:02.9	75.860	-0.140	-0.780	-0.040
2020/01/31 18:42:03.0	75.880	-0.170	-0.750	-0.060
2020/01/31 18:42:03.1	75.900	-0.190	-0.720	-0.080
2020/01/31 18:42:03.2	75.920	-0.210	-0.680	-0.090
2020/01/31 18:42:03.3	75.950	-0.230	-0.640	-0.100
2020/01/31 18:42:03.4	75.970	-0.250	-0.600	-0.110
2020/01/31 18:42:03.5	75.980	-0.270	-0.550	-0.110
2020/01/31 18:42:03.6	76.000	-0.280	-0.510	-0.110
2020/01/31 18:42:03.7	76.020	-0.300	-0.460	-0.100
2020/01/31 18:42:03.8	76.040	-0.310	-0.400	-0.080
2020/01/31 18:42:03.9	76.050	-0.320	-0.350	-0.070
2020/01/31 18:42:04.0	76.060	-0.330	-0.300	-0.040
2020/01/31 18:42:04.1	76.070	-0.330	-0.250	-0.020
2020/01/31 18:42:04.2	76.080	-0.330	-0.200	0.010
2020/01/31 18:42:04.3	76.080	-0.330	-0.150	0.040
2020/01/31 18:42:04.4	76.090	-0.330	-0.110	0.080
2020/01/31 18:42:04.5	76.090	-0.320	-0.060	0.120
2020/01/31 18:42:04.6	76.090	-0.310	-0.020	0.170
2020/01/31 18:42:04.7	76.100	-0.300	0.020	0.210
2020/01/31 18:42:04.8	76.090	-0.290	0.050	0.260
2020/01/31 18:42:04.9	76.090	-0.270	0.090	0.310
2020/01/31 18:42:05.0	76.090	-0.250	0.120	0.360
2020/01/31 18:42:05.1	76.090	-0.230	0.140	0.410
2020/01/31 18:42:05.2	76.090	-0.210	0.170	0.460
2020/01/31 18:42:05.3	76.090	-0.190	0.180	0.510
2020/01/31 18:42:05.4	76.090	-0.160	0.200	0.560
2020/01/31 18:42:05.5	76.090	-0.130	0.210	0.610
2020/01/31 18:42:05.6	76.100	-0.110	0.220	0.660
2020/01/31 18:42:05.7	76.100	-0.080	0.220	0.700
2020/01/31 18:42:05.8	76.100	-0.050	0.220	0.750
2020/01/31 18:42:05.9	76.100	-0.010	0.220	0.790
2020/01/31 18:42:06.0	76.110	0.020	0.210	0.830
2020/01/31 18:42:06.1	76.110	0.050	0.200	0.860
2020/01/31 18:42:06.2	76.110	0.080	0.190	0.890
2020/01/31 18:42:06.3	76.110	0.110	0.170	0.920
2020/01/31 18:42:06.4	76.110	0.140	0.160	0.950
2020/01/31 18:42:06.5	76.110	0.170	0.140	0.970
2020/01/31 18:42:06.6	76.110	0.200	0.120	0.990
2020/01/31 18:42:06.7	76.110	0.230	0.100	1.000
2020/01/31 18:42:06.8	76.110	0.250	0.070	1.020
2020/01/31 18:42:06.9	76.110	0.280	0.050	1.030
2020/01/31 18:42:07.0	76.100	0.300	0.020	1.030
2020/01/31 18:42:07.1	76.090	0.320	0.000	1.030
2020/01/31 18:42:07.2	76.080	0.340	-0.020	1.030
2020/01/31 18:42:07.3	76.070	0.360	-0.040	1.030
2020/01/31 18:42:07.4	76.060	0.370	-0.060	1.020
2020/01/31 18:42:07.5	76.040	0.380	-0.080	1.010
2020/01/31 18:42:07.6	76.020	0.390	-0.100	1.000
2020/01/31 18:42:07.7	76.010	0.400	-0.120	0.990
2020/01/31 18:42:07.8	75.990	0.400	-0.130	0.970
2020/01/31 18:42:07.9	75.970	0.400	-0.140	0.950
2020/01/31 18:42:08.0	75.940	0.400	-0.150	0.930
2020/01/31 18:42:08.1	75.910	0.400	-0.160	0.900
2020/01/31 18:42:08.2	75.890	0.390	-0.170	0.870
2020/01/31 18:42:08.3	75.860	0.380	-0.170	0.850
2020/01/31 18:42:08.4	75.830	0.370	-0.170	0.810
2020/01/31 18:42:08.5	75.800	0.360	-0.170	0.780
2020/01/31 18:42:08.6	75.770	0.340	-0.170	0.750
2020/01/31 18:42:08.7	75.740	0.330	-0.170	0.710
2020/01/31 18:42:08.8	75.720	0.310	-0.160	0.680
2020/01/31 18:42:08.9	75.690	0.290	-0.160	0.640
2020/01/31 18:42:09.0	75.660	0.270	-0.160	0.600
2020/01/31 18:42:09.1	75.630	0.250	-0.150	0.560
2020/01/31 18:42:09.2	75.610	0.220	-0.150	0.520
2020/01/31 18:42:09.3	75.580	0.200	-0.140	0.480
2020/01/31 18:42:09.4	75.560	0.180	-0.140	0.440
2020/01/31 18:42:09.5	75.540	0.160	-0.140	0.400
2020/01/31 18:42:09.6	75.520	0.130	-0.140	0.350
2020/01/31 18:42:09.7	75.500	0.110	-0.140	0.310
2020/01/31 18:42:09.8	75.490	0.090	-0.140	0.270
2020/01/31 18:42:09.9	75.480	0.070	-0.140	0.220
2020/01/31 18:42:10.0	75.470	0.050	-0.150	0.180
2020/01/31 18:42:10.1	75.460	0.040	-0.160	0.130
2020/01/31 18:42:10.2	75.450	0.020	-0.170	0.080
2020/01/31 18:42:10.3	75.450	0.010	-0.190	0.030
2020/01/31 18:42:10.4	75.450	-0.000	-0.210	-0.020
2020/01/31 18:42:10.5	75.460	-0.010	-0.230	-0.070
2020/01/31 18:42:10.6	75.460	-0.020	-0.250	-0.120
2020/01/31 18:42:10.7	75.480	-0.030	-0.280	-0.170
2020/01/31 18:42:10.8	75.490	-0.030	-0.310	-0.220
2020/01/31 18:42:10.9	75.510	-0.030	-0.340	-0.270
2020/01/31 18:42:11.0	75.530	-0.030	-0.370	-0.330
2020/01/31 18:42:11.1	75.560	-0.020	-0.400	-0.380
2020/01/31 18:42:11.2	75.580	-0.020	-0.430	-0.430
2020/01/31 18:42:11.3	75.620	-0.010	-0.470	-0.490
2020/01/31 18:42:11.4	75.650	-0.000	-0.500	-0.540
2020/01/31 18:42:11.5	75.690	0.010	-0.540	-0.590
2020/01/31 18:42:11.6	75.730	0.020	-0.570	-0.640
2020/01/31 18:42:11.7	75.770	0.040	-0.600	-0.690
2020/01/31 18:42:11.8	75.800	0.050	-0.630	-0.740
2020/01/31 18:42:11.9	75.850	0.070	-0.660	-0.780
2020/01/31 18:42:12.0	75.900	0.080	-0.680	-0.830
2020/01/31 18:42:12.1	75.940	0.100	-0.710	-0.870
2020/01/31 18:42:12.2	75.990	0.120	-0.730	-0.900
2020/01/31 18:42:12.3	76.040	0.140	-0.740	-0.930
2020/01/31 18:42:12.4	76.090	0.150	-0.750	-0.960
2020/01/31 18:42:12.5	76.140	0.170	-0.760	-0.980
2020/01/31 18:42:12.6	76.180	0.180	-0.760	-1.000
2020/01/31 18:42:12.7	76.230	0.190	-0.760	-1.010
2020/01/31 18:42:12.8	76.280	0.210	-0.750	-1.010
2020/01/31 18:42:12.9	76.330	0.210	-0.740	-1.010
2020/01/31 18:42:13.0	76.370	0.220	-0.720	-1.010
2020/01/31 18:42:13.1	76.410	0.230	-0.700	-1.000
2020/01/31 18:42:13.2	76.450	0.230	-0.670	-0.980
2020/01/31 18:42:13.3	76.490	0.230	-0.630	-0.960
2020/01/31 18:42:13.4	76.520	0.220	-0.590	-0.930
2020/01/31 18:42:13.5	76.560	0.220	-0.540	-0.890
2020/01/31 18:42:13.6	76.590	0.210	-0.490	-0.850
2020/01/31 18:42:13.7	76.610	0.190	-0.440	-0.800
2020/01/31 18:42:13.8	76.630	0.180	-0.380	-0.750
2020/01/31 18:42:13.9	76.650	0.160	-0.320	-0.690
2020/01/31 18:42:14.0	76.670	0.140	-0.260	-0.630
2020/01/31 18:42:14.1	76.690	0.110	-0.190	-0.560
2020/01/31 18:42:14.2	76.700	0.080	-0.120	-0.490
2020/01/31 18:42:14.3	76.710	0.050	-0.050	-0.410
2020/01/31 18:42:14.4	76.720	0.020	0.020	-0.330
2020/01/31 18:42:14.5	76.730	-0.020	0.100	-0.240
2020/01/31 18:42:14.6	76.740	-0.050	0.170	-0.150
2020/01/31 18:42:14.7	76.740	-0.090	0.240	-0.060
2020/01/31 18:42:14.8	76.750	-0.130	0.310	0.030
2020/01/31 18:42:14.9	76.750	-0.170	0.370	0.120
2020/01/31 18:42:15.0	76.750	-0.220	0.430	0.220
2020/01/31 18:42:15.1	76.740	-0.260	0.490	0.310
2020/01/31 18:42:15.2	76.740	-0.300	0.550	0.410
2020/01/31 18:42:15.3	76.730	-0.340	0.600	0.500
2020/01/31 18:42:15.4	76.730	-0.380	0.640	0.600
2020/01/31 18:42:15.5	76.720	-0.430	0.680	0.690
2020/01/31 18:42:15.6	76.710	-0.470	0.720	0.780
2020/01/31 18:42:15.7	76.700	-0.500	0.750	0.870
2020/01/31 18:42:15.8	76.700	-0.540	0.780	0.970
2020/01/31 18:42:15.9	76.690	-0.580	0.800	1.050
2020/01/31 18:42:16.0	76.670	-0.610	0.820	1.140
2020/01/31 18:42:16.1	76.660	-0.640	0.830	1.220
2020/01/31 18:42:16.2	76.640	-0.670	0.840	1.290
2020/01/31 18:42:16.3	76.620	-0.690	0.840	1.370
2020/01/31 18:42:16.4	76.600	-0.710	0.840	1.430
2020/01/31 18:42:16.5	76.570	-0.730	0.840	1.500
2020/01/31 18:42:16.6	76.550	-0.740	0.830	1.560
2020/01/31 18:42:16.7	76.520	-0.760	0.820	1.620
2020/01/31 18:42:16.8	76.500	-0.760	0.800	1.670
2020/01/31 18:42:16.9	76.470	-0.770	0.780	1.720
2020/01/31 18:42:17.0	76.430	-0.770	0.750	1.760
2020/01/31 18:42:17.1	76.400	-0.760	0.720	1.800
2020/01/31 18:42:17.2	76.370	-0.760	0.690	1.840
2020/01/31 18:42:17.3	76.340	-0.750	0.650	1.870
2020/01/31 18:42:17.4	76.300	-0.730	0.610	1.890
2020/01/31 18:42:17.5	76.270	-0.710	0.560	1.910
2020/01/31 18:42:17.6	76.230	-0.690	0.510	1.920
2020/01/31 18:42:17.7	76.200	-0.670	0.460	1.920
2020/01/31 18:42:17.8	76.180	-0.640	0.400	1.920
2020/01/31 18:42:17.9	76.150	-0.610	0.340	1.920
2020/01/31 18:42:18.0	76.120	-0.580	0.270	1.900
2020/01/31 18:42:18.1	76.090	-0.540	0.200	1.880
2020/01/31 18:42:18.2	76.060	-0.510	0.130	1.850
2020/01/31 18:42:18.3	76.040	-0.470	0.060	1.820
2020/01/31 18:42:18.4	76.010	-0.430	-0.010	1.780
2020/01/31 18:42:18.5	75.990	-0.390	-0.090	1.730
2020/01/31 18:42:18.6	75.970	-0.350	-0.170	1.680
2020/01/31 18:42:18.7	75.960	-0.300	-0.250	1.630
2020/01/31 18:42:18.8	75.940	-0.260	-0.330	1.560
2020/01/31 18:42:18.9	75.930	-0.210	-0.410	1.500
2020/01/31 18:42:19.0	75.920	-0.170	-0.490	1.430
2020/01/31 18:42:19.1	75.910	-0.130	-0.570	1.360
2020/01/31 18:42:19.2	75.900	-0.080	-0.650	1.280
2020/01/31 18:42:19.3	75.900	-0.040	-0.730	1.200
2020/01/31 18:42:19.4	75.890	0.000	-0.810	1.120
2020/01/31 18:42:19.5	75.890	0.040	-0.880	1.030
2020/01/31 18:42:19.6	75.890	0.080	-0.960	0.950
2020/01/31 18:42:19.7	75.900	0.120	-1.030	0.860
2020/01/31 18:42:19.8	75.910	0.160	-1.090	0.770
2020/01/31 18:42:19.9	75.920	0.200	-1.150	0.680
2020/01/31 18:42:20.0	75.930	0.230	-1.210	0.590
2020/01/31 18:42:20.1	75.940	0.270	-1.260	0.500
2020/01/31 18:42:20.2	75.950	0.300	-1.310	0.410
2020/01/31 18:42:20.3	75.970	0.330	-1.360	0.320
2020/01/31 18:42:20.4	75.980	0.360	-1.400	0.240
2020/01/31 18:42:20.5	76.000	0.390	-1.430	0.150
2020/01/31 18:42:20.6	76.020	0.410	-1.460	0.060
2020/01/31 18:42:20.7	76.050	0.440	-1.480	-0.020
2020/01/31 18:42:20.8	76.070	0.460	-1.490	-0.100
2020/01/31 18:42:20.9	76.090	0.490	-1.500	-0.180
2020/01/31 18:42:21.0	76.120	0.510	-1.500	-0.260
2020/01/31 18:42:21.1	76.140	0.530	-1.500	-0.330
2020/01/31 18:42:21.2	76.170	0.550	-1.490	-0.400
2020/01/31 18:42:21.3	76.200	0.570	-1.470	-0.470
2020/01/31 18:42:21.4	76.230	0.580	-1.450	-0.530
2020/01/31 18:42:21.5	76.260	0.600	-1.420	-0.590
2020/01/31 18:42:21.6	76.290	0.620	-1.390	-0.640
2020/01/31 18:42:21.7	76.320	0.630	-1.350	-0.690
2020/01/31 18:42:21.8	76.340	0.640	-1.300	-0.730
2020/01/31 18:42:21.9	76.380	0.660	-1.250	-0.770
2020/01/31 18:42:22.0	76.410	0.670	-1.200	-0.800
2020/01/31 18:42:22.1	76.440	0.680	-1.140	-0.830
2020/01/31 18:42:22.2	76.470	0.690	-1.080	-0.850
2020/01/31 18:42:22.3	76.500	0.700	-1.020	-0.870
2020/01/31 18:42:22.4	76.530	0.710	-0.960	-0.880
2020/01/31 18:42:22.5	76.560	0.720	-0.890	-0.890
2020/01/31 18:42:22.6	76.590	0.720	-0.820	-0.900
2020/01/31 18:42:22.7	76.630	0.730	-0.750	-0.890
2020/01/31 18:42:22.8	76.660	0.730	-0.680	-0.890
2020/01/31 18:42:22.9	76.690	0.730	-0.610	-0.870
2020/01/31 18:42:23.0	76.710	0.730	-0.530	-0.860
2020/01/31 18:42:23.1	76.740	0.720	-0.460	-0.840
2020/01/31 18:42:23.2	76.760	0.720	-0.380	-0.810
2020/01/31 18:42:23.3	76.780	0.710	-0.310	-0.780
2020/01/31 18:42:23.4	76.800	0.700	-0.230	-0.750
2020/01/31 18:42:23.5	76.810	0.680	-0.150	-0.710
2020/01/31 18:42:23.6	76.830	0.670	-0.070	-0.660
2020/01/31 18:42:23.7	76.840	0.650	0.010	-0.620
2020/01/31 18:42:23.8	76.830	0.620	0.090	-0.570
2020/01/31 18:42:23.9	76.830	0.590	0.170	-0.520
2020/01/31 18:42:24.0	76.830	0.560	0.250	-0.470
2020/01/31 18:42:24.1	76.830	0.530	0.330	-0.410
2020/01/31 18:42:24.2	76.820	0.490	0.410	-0.360
2020/01/31 18:42:24.3	76.810	0.450	0.490	-0.310
2020/01/31 18:42:24.4	76.790	0.410	0.570	-0.250
2020/01/31 18:42:24.5	76.770	0.360	0.650	-0.200
2020/01/31 18:42:24.6	76.750	0.310	0.720	-0.140
2020/01/31 18:42:24.7	76.720	0.250	0.800	-0.090
2020/01/31 18:42:24.8	76.690	0.200	0.870	-0.030
2020/01/31 18:42:24.9	76.650	0.140	0.940	0.020
2020/01/31 18:42:25.0	76.620	0.080	1.010	0.070
2020/01/31 18:42:25.1	76.580	0.020	1.070	0.120
2020/01/31 18:42:25.2	76.540	-0.050	1.130	0.160
2020/01/31 18:42:25.3	76.490	-0.110	1.180	0.210
2020/01/31 18:42:25.4	76.450	-0.170	1.230	0.250
2020/01/31 18:42:25.5	76.400	-0.240	1.270	0.290
2020/01/31 18:42:25.6	76.360	-0.300	1.310	0.330
2020/01/31 18:42:25.7	76.310	-0.370	1.340	0.360
2020/01/31 18:42:25.8	76.270	-0.430	1.360	0.400
2020/01/31 18:42:25.9	76.230	-0.490	1.380	0.430
2020/01/31 18:42:26.0	76.180	-0.550	1.390	0.460
2020/01/31 18:42:26.1	76.130	-0.610	1.390	0.490
2020/01/31 18:42:26.2	76.090	-0.660	1.390	0.510
2020/01/31 18:42:26.3	76.040	-0.710	1.370	0.530
2020/01/31 18:42:26.4	76.000	-0.760	1.350	0.550
2020/01/31 18:42:26.5	75.960	-0.800	1.320	0.570
2020/01/31 18:42:26.6	75.920	-0.840	1.290	0.590
2020/01/31 18:42:26.7	75.890	-0.870	1.240	0.600
2020/01/31 18:42:26.8	75.860	-0.900	1.180	0.610
2020/01/31 18:42:26.9	75.830	-0.920	1.120	0.620
2020/01/31 18:42:27.0	75.800	-0.930	1.050	0.630
2020/01/31 18:42:27.1	75.780	-0.940	0.970	0.630
2020/01/31 18:42:27.2	75.750	-0.940	0.890	0.630
2020/01/31 18:42:27.3	75.740	-0.940	0.790	0.630
2020/01/31 18:42:27.4	75.720	-0.930	0.690	0.630
2020/01/31 18:42:27.5	75.710	-0.910	0.590	0.620
2020/01/31 18:42:27.6	75.710	-0.890	0.480	0.620
2020/01/31 18:42:27.7	75.710	-0.860	0.360	0.610
2020/01/31 18:42:27.8	75.710	-0.820	0.240	0.600
2020/01/31 18:42:27.9	75.710	-0.780	0.120	0.580
2020/01/31 18:42:28.0	75.720	-0.740	-0.010	0.570
2020/01/31 18:42:28.1	75.730	-0.690	-0.140	0.550
2020/01/31 18:42:28.2	75.750	-0.640	-0.270	0.530
2020/01/31 18:42:28.3	75.770	-0.580	-0.390	0.510
2020/01/31 18:42:28.4	75.790	-0.520	-0.520	0.480
2020/01/31 18:42:28.5	75.820	-0.450	-0.650	0.460
2020/01/31 18:42:28.6	75.840	-0.390	-0.770	0.430
2020/01/31 18:42:28.7	75.870	-0.320	-0.890	0.400
2020/01/31 18:42:28.8	75.900	-0.250	-1.010	0.370
2020/01/31 18:42:28.9	75.940	-0.180	-1.120	0.340
2020/01/31 18:42:29.0	75.970	-0.110	-1.220	0.320
2020/01/31 18:42:29.1	76.000	-0.040	-1.320	0.290
2020/01/31 18:42:29.2	76.040	0.030	-1.410	0.260
2020/01/31 18:42:29.3	76.070	0.100	-1.500	0.230
2020/01/31 18:42:29.4	76.110	0.160	-1.570	0.200
2020/01/31 18:42:29.5	76.140	0.230	-1.640	0.170
2020/01/31 18:42:29.6	76.180	0.290	-1.700	0.150
2020/01/31 18:42:29.7	76.210	0.340	-1.750	0.120
2020/01/31 18:42:29.8	76.250	0.400	-1.790	0.100
2020/01/31 18:42:29.9	76.280	0.450	-1.820	0.080
2020/01/31 18:42:30.0	76.310	0.490	-1.850	0.060
2020/01/31 18:42:30.1	76.340	0.540	-1.860	0.040
2020/01/31 18:42:30.2	76.370	0.570	-1.860	0.030
2020/01/31 18:42:30.3	76.400	0.600	-1.850	0.020
2020/01/31 18:42:30.4	76.420	0.630	-1.840	0.010
2020/01/31 18:42:30.5	76.440	0.650	-1.810	0.000
2020/01/31 18:42:30.6	76.470	0.670	-1.770	0.000
2020/01/31 18:42:30.7	76.480	0.690	-1.730	0.000
2020/01/31 18:42:30.8	76.500	0.690	-1.670	0.010
2020/01/31 18:42:30.9	76.510	0.700	-1.610	0.020
2020/01/31 18:42:31.0	76.520	0.700	-1.540	0.030
2020/01/31 18:42:31.1	76.530	0.690	-1.460	0.050
2020/01/31 18:42:31.2	76.540	0.680	-1.380	0.070
2020/01/31 18:42:31.3	76.540	0.670	-1.290	0.100
2020/01/31 18:42:31.4	76.540	0.650	-1.190	0.130
2020/01/31 18:42:31.5	76.530	0.630	-1.090	0.170
2020/01/31 18:42:31.6	76.530	0.610	-0.990	0.200
2020/01/31 18:42:31.7	76.520	0.580	-0.880	0.240
2020/01/31 18:42:31.8	76.510	0.550	-0.770	0.290
2020/01/31 18:42:31.9	76.490	0.520	-0.650	0.340
2020/01/31 18:42:32.0	76.480	0.480	-0.540	0.380
2020/01/31 18:42:32.1	76.460	0.440	-0.420	0.430
2020/01/31 18:42:32.2	76.430	0.410	-0.300	0.480
2020/01/31 18:42:32.3	76.410	0.370	-0.190	0.530
2020/01/31 18:42:32.4	76.380	0.330	-0.070	0.590
2020/01/31 18:42:32.5	76.350	0.290	0.040	0.640
2020/01/31 18:42:32.6	76.320	0.240	0.150	0.690
2020/01/31 18:42:32.7	76.290	0.200	0.260	0.730
2020/01/31 18:42:32.8	76.260	0.160	0.360	0.780
2020/01/31 18:42:32.9	76.220	0.120	0.460	0.830
2020/01/31 18:42:33.0	76.190	0.080	0.560	0.870
2020/01/31 18:42:33.1	76.150	0.040	0.640	0.910
2020/01/31 18:42:33.2	76.120	-0.000	0.730	0.950
2020/01/31 18:42:33.3	76.080	-0.040	0.810	0.980
2020/01/31 18:42:33.4	76.040	-0.080	0.880	1.010
2020/01/31 18:42:33.5	76.000	-0.120	0.950	1.040
2020/01/31 18:42:33.6	75.960	-0.150	1.010	1.060
2020/01/31 18:42:33.7	75.920	-0.190	1.070	1.080
2020/01/31 18:42:33.8	75.880	-0.220	1.120	1.100
2020/01/31 18:42:33.9	75.840	-0.250	1.160	1.110
2020/01/31 18:42:34.0	75.800	-0.280	1.200	1.120
2020/01/31 18:42:34.1	75.770	-0.310	1.230	1.120
2020/01/31 18:42:34.2	75.730	-0.330	1.250	1.130
2020/01/31 18:42:34.3	75.700	-0.360	1.270	1.120
2020/01/31 18:42:34.4	75.660	-0.380	1.280	1.120
2020/01/31 18:42:34.5	75.630	-0.400	1.280	1.110
2020/01/31 18:42:34.6	75.600	-0.420	1.280	1.090
2020/01/31 18:42:34.7	75.570	-0.440	1.260	1.070
2020/01/31 18:42:34.8	75.540	-0.460	1.240	1.050
2020/01/31 18:42:34.9	75.510	-0.470	1.210	1.030
2020/01/31 18:42:35.0	75.490	-0.480	1.180	1.000
2020/01/31 18:42:35.1	75.470	-0.490	1.140	0.970
2020/01/31 18:42:35.2	75.440	-0.500	1.090	0.940
2020/01/31 18:42:35.3	75.420	-0.510	1.030	0.910
2020/01/31 18:42:35.4	75.410	-0.510	0.970	0.870
2020/01/31 18:42:35.5	75.390	-0.510	0.900	0.830
2020/01/31 18:42:35.6	75.380	-0.510	0.830	0.790
2020/01/31 18:42:35.7	75.360	-0.510	0.750	0.740
2020/01/31 18:42:35.8	75.360	-0.500	0.660	0.700
2020/01/31 18:42:35.9	75.350	-0.490	0.570	0.650
2020/01/31 18:42:36.0	75.340	-0.480	0.470	0.600
2020/01/31 18:42:36.1	75.330	-0.470	0.370	0.550
2020/01/31 18:42:36.2	75.330	-0.460	0.260	0.500
2020/01/31 18:42:36.3	75.320	-0.440	0.160	0.450
2020/01/31 18:42:36.4	75.320	-0.430	0.040	0.400
2020/01/31 18:42:36.5	75.320	-0.400	-0.070	0.360
2020/01/31 18:42:36.6	75.320	-0.380	-0.180	0.310
2020/01/31 18:42:36.7	75.310	-0.360	-0.290	0.260
2020/01/31 18:42:36.8	75.310	-0.330	-0.410	0.210
2020/01/31 18:42:36.9	75.310	-0.300	-0.520	0.160
2020/01/31 18:42:37.0	75.310	-0.280	-0.630	0.120
2020/01/31 18:42:37.1	75.310	-0.240	-0.730	0.070
2020/01/31 18:42:37.2	75.310	-0.210	-0.840	0.030
2020/01/31 18:42:37.3	75.310	-0.180	-0.930	-0.010
2020/01/31 18:42:37.4	75.310	-0.140	-1.030	-0.060
2020/01/31 18:42:37.5	75.310	-0.110	-1.120	-0.100
2020/01/31 18:42:37.6	75.320	-0.070	-1.200	-0.140
2020/01/31 18:42:37.7	75.320	-0.040	-1.280	-0.170
2020/01/31 18:42:37.8	75.320	0.000	-1.350	-0.210
2020/01/31 18:42:37.9	75.330	0.040	-1.420	-0.250
2020/01/31 18:42:38.0	75.330	0.070	-1.470	-0.280
2020/01/31 18:42:38.1	75.340	0.110	-1.520	-0.320
2020/01/31 18:42:38.2	75.350	0.150	-1.560	-0.360
2020/01/31 18:42:38.3	75.360	0.180	-1.600	-0.390
2020/01/31 18:42:38.4	75.370	0.220	-1.620	-0.420
2020/01/31 18:42:38.5	75.380	0.250	-1.640	-0.450
2020/01/31 18:42:38.6	75.390	0.290	-1.650	-0.490
2020/01/31 18:42:38.7	75.400	0.320	-1.650	-0.510
2020/01/31 18:42:38.8	75.420	0.350	-1.650	-0.540
2020/01/31 18:42:38.9	75.430	0.380	-1.630	-0.560
2020/01/31 18:42:39.0	75.440	0.400	-1.610	-0.590
2020/01/31 18:42:39.1	75.460	0.430	-1.580	-0.610
2020/01/31 18:42:39.2	75.470	0.450	-1.540	-0.620
2020/01/31 18:42:39.3	75.480	0.470	-1.500	-0.640
2020/01/31 18:42:39.4	75.490	0.490	-1.440	-0.650
2020/01/31 18:42:39.5	75.500	0.510	-1.380	-0.650
2020/01/31 18:42:39.6	75.510	0.520	-1.320	-0.650
2020/01/31 18:42:39.7	75.520	0.540	-1.250	-0.650
2020/01/31 18:42:39.8	75.520	0.550	-1.170	-0.640
2020/01/31 18:42:39.9	75.520	0.550	-1.090	-0.630
2020/01/31 18:42:40.0	75.530	0.560	-1.000	-0.610
2020/01/31 18:42:40.1	75.530	0.560	-0.910	-0.590
2020/01/31 18:42:40.2	75.520	0.560	-0.820	-0.560
2020/01/31 18:42:40.3	75.520	0.560	-0.720	-0.530
2020/01/31 18:42:40.4	75.520	0.560	-0.620	-0.490
2020/01/31 18:42:40.5	75.510	0.550	-0.520	-0.450
2020/01/31 18:42:40.6	75.500	0.540	-0.420	-0.400
2020/01/31 18:42:40.7	75.490	0.530	-0.320	-0.350
2020/01/31 18:42:40.8	75.490	0.520	-0.220	-0.300
2020/01/31 18:42:40.9	75.480	0.500	-0.120	-0.250
2020/01/31 18:42:41.0	75.470	0.480	-0.020	-0.190
2020/01/31 18:42:41.1	75.460	0.460	0.070	-0.130
2020/01/31 18:42:41.2	75.450	0.440	0.160	-0.070
2020/01/31 18:42:41.3	75.440	0.420	0.250	-0.000
2020/01/31 18:42:41.4	75.420	0.390	0.340	0.060
2020/01/31 18:42:41.5	75.410	0.360	0.420	0.130
2020/01/31 18:42:41.6	75.400	0.330	0.500	0.190
2020/01/31 18:42:41.7	75.380	0.300	0.570	0.260
2020/01/31 18:42:41.8	75.380	0.270	0.640	0.330
2020/01/31 18:42:41.9	75.360	0.230	0.710	0.400
2020/01/31 18:42:42.0	75.350	0.200	0.770	0.460
2020/01/31 18:42:42.1	75.330	0.160	0.830	0.520
2020/01/31 18:42:42.2	75.320	0.120	0.880	0.590
2020/01/31 18:42:42.3	75.300	0.090	0.930	0.650
2020/01/31 18:42:42.4	75.280	0.050	0.980	0.710
2020/01/31 18:42:42.5	75.260	0.010	1.020	0.760
2020/01/31 18:42:42.6	75.250	-0.030	1.060	0.820
2020/01/31 18:42:42.7	75.230	-0.070	1.090	0.870
2020/01/31 18:42:42.8	75.200	-0.110	1.120	0.910
2020/01/31 18:42:42.9	75.180	-0.150	1.140	0.960
2020/01/31 18:42:43.0	75.160	-0.190	1.160	1.000
2020/01/31 18:42:43.1	75.140	-0.230	1.180	1.040
2020/01/31 18:42:43.2	75.120	-0.270	1.180	1.080
2020/01/31 18:42:43.3	75.090	-0.300	1.190	1.110
2020/01/31 18:42:43.4	75.070	-0.340	1.180	1.140
2020/01/31 18:42:43.5	75.040	-0.370	1.170	1.170
2020/01/31 18:42:43.6	75.020	-0.400	1.160	1.190
2020/01/31 18:42:43.7	74.990	-0.430	1.130	1.210
2020/01/31 18:42:43.8	74.970	-0.460	1.100	1.230
2020/01/31 18:42:43.9	74.940	-0.480	1.070	1.240
2020/01/31 18:42:44.0	74.910	-0.500	1.030	1.250
2020/01/31 18:42:44.1	74.890	-0.520	0.980	1.260
2020/01/31 18:42:44.2	74.860	-0.540	0.930	1.260
2020/01/31 18:42:44.3	74.840	-0.550	0.860	1.260
2020/01/31 18:42:44.4	74.810	-0.560	0.800	1.250
2020/01/31 18:42:44.5	74.790	-0.570	0.730	1.240
2020/01/31 18:42:44.6	74.760	-0.570	0.650	1.230
2020/01/31 18:42:44.7	74.740	-0.570	0.560	1.210
2020/01/31 18:42:44.8	74.720	-0.560	0.470	1.190
2020/01/31 18:42:44.9	74.710	-0.560	0.380	1.170
2020/01/31 18:42:45.0	74.690	-0.540	0.280	1.150
2020/01/31 18:42:45.1	74.670	-0.530	0.170	1.120
2020/01/31 18:42:45.2	74.660	-0.510	0.070	1.090
2020/01/31 18:42:45.3	74.650	-0.480	-0.040	1.060
2020/01/31 18:42:45.4	74.640	-0.460	-0.160	1.030
2020/01/31 18:42:45.5	74.630	-0.420	-0.270	1.000
2020/01/31 18:42:45.6	74.620	-0.390	-0.390	0.960
2020/01/31 18:42:45.7	74.610	-0.350	-0.510	0.930
2020/01/31 18:42:45.8	74.610	-0.310	-0.630	0.890
2020/01/31 18:42:45.9	74.600	-0.270	-0.740	0.860
2020/01/31 18:42:46.0	74.600	-0.220	-0.860	0.820
2020/01/31 18:42:46.1	74.600	-0.170	-0.970	0.790
2020/01/31 18:42:46.2	74.600	-0.120	-1.080	0.760
2020/01/31 18:42:46.3	74.600	-0.060	-1.180	0.730
2020/01/31 18:42:46.4	74.600	-0.010	-1.280	0.700
2020/01/31 18:42:46.5	74.600	0.040	-1.380	0.670
2020/01/31 18:42:46.6	74.600	0.100	-1.470	0.640
2020/01/31 18:42:46.7	74.600	0.150	-1.550	0.610
2020/01/31 18:42:46.8	74.620	0.210	-1.630	0.590
2020/01/31 18:42:46.9	74.620	0.260	-1.690	0.570
2020/01/31 18:42:47.0	74.620	0.320	-1.750	0.550
2020/01/31 18:42:47.1	74.620	0.370	-1.800	0.520
2020/01/31 18:42:47.2	74.620	0.420	-1.840	0.500
2020/01/31 18:42:47.3	74.630	0.460	-1.870	0.480
2020/01/31 18:42:47.4	74.630	0.500	-1.890	0.460
2020/01/31 18:42:47.5	74.630	0.540	-1.900	0.440
2020/01/31 18:42:47.6	74.640	0.580	-1.900	0.420
2020/01/31 18:42:47.7	74.640	0.610	-1.880	0.400
2020/01/31 18:42:47.8	74.640	0.640	-1.860	0.380
2020/01/31 18:42:47.9	74.650	0.660	-1.830	0.360
2020/01/31 18:42:48.0	74.650	0.680	-1.780	0.340
2020/01/31 18:42:48.1	74.650	0.690	-1.730	0.320
2020/01/31 18:42:48.2	74.660	0.700	-1.660	0.290
2020/01/31 18:42:48.3	74.660	0.700	-1.590	0.270
2020/01/31 18:42:48.4	74.660	0.690	-1.500	0.250
2020/01/31 18:42:48.5	74.660	0.680	-1.410	0.220
2020/01/31 18:42:48.6	74.670	0.670	-1.310	0.190
2020/01/31 18:42:48.7	74.670	0.650	-1.200	0.170
2020/01/31 18:42:48.8	74.680	0.630	-1.080	0.140
2020/01/31 18:42:48.9	74.680	0.600	-0.960	0.110
2020/01/31 18:42:49.0	74.680	0.560	-0.840	0.090
2020/01/31 18:42:49.1	74.680	0.530	-0.710	0.060
2020/01/31 18:42:49.2	74.680	0.480	-0.580	0.030
2020/01/31 18:42:49.3	74.680	0.440	-0.440	0.000
2020/01/31 18:42:49.4	74.680	0.390	-0.310	-0.020
2020/01/31 18:42:49.5	74.680	0.340	-0.180	-0.050
2020/01/31 18:42:49.6	74.680	0.290	-0.040	-0.070
2020/01/31 18:42:49.7	74.680	0.230	0.090	-0.100
2020/01/31 18:42:49.8	74.670	0.180	0.220	-0.120
2020/01/31 18:42:49.9	74.670	0.120	0.350	-0.140
2020/01/31 18:42:50.0	74.660	0.060	0.470	-0.160
2020/01/31 18:42:50.1	74.650	0.010	0.580	-0.180
2020/01/31 18:42:50.2	74.640	-0.050	0.690	-0.200
2020/01/31 18:42:50.3	74.630	-0.100	0.800	-0.210
2020/01/31 18:42:50.4	74.620	-0.160	0.900	-0.220
2020/01/31 18:42:50.5	74.610	-0.210	0.990	-0.230
2020/01/31 18:42:50.6	74.590	-0.260	1.070	-0.240
2020/01/31 18:42:50.7	74.580	-0.310	1.150	-0.250
2020/01/31 18:42:50.8	74.570	-0.360	1.210	-0.260
2020/01/31 18:42:50.9	74.550	-0.400	1.270	-0.260
2020/01/31 18:42:51.0	74.530	-0.440	1.320	-0.260
2020/01/31 18:42:51.1	74.510	-0.480	1.360	-0.270
2020/01/31 18:42:51.2	74.490	-0.510	1.390	-0.270
2020/01/31 18:42:51.3	74.470	-0.540	1.410	-0.260
2020/01/31 18:42:51.4	74.450	-0.560	1.420	-0.260
2020/01/31 18:42:51.5	74.430	-0.590	1.430	-0.260
2020/01/31 18:42:51.6	74.400	-0.600	1.420	-0.260
2020/01/31 18:42:51.7	74.380	-0.620	1.400	-0.250
2020/01/31 18:42:51.8	74.360	-0.630	1.380	-0.250
2020/01/31 18:42:51.9	74.340	-0.630	1.340	-0.240
2020/01/31 18:42:52.0	74.310	-0.640	1.300	-0.230
2020/01/31 18:42:52.1	74.290	-0.640	1.250	-0.230
2020/01/31 18:42:52.2	74.270	-0.630	1.190	-0.220
2020/01/31 18:42:52.3	74.250	-0.620	1.130	-0.210
2020/01/31 18:42:52.4	74.230	-0.610	1.060	-0.210
2020/01/31 18:42:52.5	74.210	-0.600	0.980	-0.200
2020/01/31 18:42:52.6	74.200	-0.580	0.890	-0.190
2020/01/31 18:42:52.7	74.180	-0.560	0.800	-0.180
2020/01/31 18:42:52.8	74.160	-0.540	0.710	-0.170
2020/01/31 18:42:52.9	74.150	-0.520	0.610	-0.160
2020/01/31 18:42:53.0	74.130	-0.490	0.510	-0.150
2020/01/31 18:42:53.1	74.120	-0.470	0.400	-0.140
2020/01/31 18:42:53.2	74.110	-0.440	0.300	-0.140
2020/01/31 18:42:53.3	74.100	-0.410	0.190	-0.130
2020/01/31 18:42:53.4	74.100	-0.380	0.080	-0.120
2020/01/31 18:42:53.5	74.090	-0.350	-0.030	-0.110
2020/01/31 18:42:53.6	74.080	-0.320	-0.130	-0.110
2020/01/31 18:42:53.7	74.080	-0.290	-0.240	-0.100
2020/01/31 18:42:53.8	74.070	-0.260	-0.340	-0.090
2020/01/31 18:42:53.9	74.070	-0.230	-0.440	-0.090
2020/01/31 18:42:54.0	74.070	-0.200	-0.530	-0.080
2020/01/31 18:42:54.1	74.060	-0.170	-0.620	-0.070
2020/01/31 18:42:54.2	74.060	-0.150	-0.700	-0.070
2020/01/31 18:42:54.3	74.060	-0.120	-0.780	-0.060
2020/01/31 18:42:54.4	74.060	-0.090	-0.860	-0.060
2020/01/31 18:42:54.5	74.050	-0.070	-0.930	-0.050
2020/01/31 18:42:54.6	74.050	-0.040	-0.990	-0.050
2020/01/31 18:42:54.7	74.050	-0.020	-1.040	-0.040
2020/01/31 18:42:54.8	74.050	0.000	-1.090	-0.040
2020/01/31 18:42:54.9	74.050	0.020	-1.130	-0.030
2020/01/31 18:42:55.0	74.040	0.040	-1.170	-0.030
2020/01/31 18:42:55.1	74.030	0.060	-1.190	-0.020
2020/01/31 18:42:55.2	74.030	0.080	-1.210	-0.010
2020/01/31 18:42:55.3	74.020	0.090	-1.230	-0.010
2020/01/31 18:42:55.4	74.010	0.110	-1.240	-0.000
2020/01/31 18:42:55.5	74.000	0.120	-1.240	0.010
2020/01/31 18:42:55.6	73.980	0.140	-1.240	0.010
2020/01/31 18:42:55.7	73.970	0.150	-1.230	0.020
2020/01/31 18:42:55.8	73.960	0.170	-1.210	0.030
2020/01/31 18:42:55.9	73.950	0.180	-1.200	0.030
2020/01/31 18:42:56.0	73.930	0.190	-1.180	0.040
2020/01/31 18:42:56.1	73.920	0.200	-1.160	0.050
2020/01/31 18:42:56.2	73.910	0.220	-1.130	0.050
2020/01/31 18:42:56.3	73.910	0.230	-1.110	0.060
2020/01/31 18:42:56.4	73.900	0.240	-1.080	0.060
2020/01/31 18:42:56.5	73.890	0.250	-1.050	0.060
2020/01/31 18:42:56.6	73.890	0.270	-1.020	0.070
2020/01/31 18:42:56.7	73.880	0.280	-0.990	0.070
2020/01/31 18:42:56.8	73.890	0.290	-0.970	0.070
2020/01/31 18:42:56.9	73.890	0.310	-0.940	0.070
2020/01/31 18:42:57.0	73.900	0.320	-0.910	0.080
2020/01/31 18:42:57.1	73.900	0.340	-0.890	0.080
2020/01/31 18:42:57.2	73.910	0.360	-0.860	0.080
2020/01/31 18:42:57.3	73.920	0.370	-0.840	0.080
2020/01/31 18:42:57.4	73.930	0.390	-0.810	0.080
2020/01/31 18:42:57.5	73.950	0.410	-0.790	0.080
2020/01/31 18:42:57.6	73.970	0.430	-0.770	0.080
2020/01/31 18:42:57.7	73.980	0.450	-0.740	0.080
2020/01/31 18:42:57.8	74.000	0.470	-0.720	0.090
2020/01/31 18:42:57.9	74.020	0.490	-0.700	0.090
2020/01/31 18:42:58.0	74.050	0.500	-0.670	0.090
2020/01/31 18:42:58.1	74.070	0.520	-0.650	0.100
2020/01/31 18:42:58.2	74.090	0.540	-0.620	0.100
2020/01/31 18:42:58.3	74.120	0.550	-0.590	0.110
2020/01/31 18:42:58.4	74.140	0.570	-0.560	0.110
2020/01/31 18:42:58.5	74.160	0.580	-0.530	0.120
2020/01/31 18:42:58.6	74.180	0.590	-0.490	0.130
2020/01/31 18:42:58.7	74.210	0.600	-0.450	0.150
2020/01/31 18:42:58.8	74.220	0.610	-0.410	0.160
2020/01/31 18:42:58.9	74.240	0.610	-0.360	0.170
2020/01/31 18:42:59.0	74.260	0.610	-0.310	0.190
2020/01/31 18:42:59.1	74.270	0.610	-0.260	0.210
2020/01/31 18:42:59.2	74.290	0.600	-0.210	0.230
2020/01/31 18:42:59.3	74.300	0.600	-0.150	0.250
2020/01/31 18:42:59.4	74.300	0.580	-0.090	0.280
2020/01/31 18:42:59.5	74.310	0.570	-0.030	0.310
2020/01/31 18:42:59.6	74.310	0.550	0.040	0.340
2020/01/31 18:42:59.7	74.300	0.530	0.110	0.370
2020/01/31 18:42:59.8	74.290	0.500	0.180	0.410
2020/01/31 18:42:59.9	74.280	0.470	0.260	0.450
2020/01/31 18:43:00.0	74.260	0.440	0.330	0.490
2020/01/31 18:43:00.1	74.250	0.400	0.410	0.540
2020/01/31 18:43:00.2	74.220	0.360	0.480	0.590
2020/01/31 18:43:00.3	74.200	0.320	0.560	0.630
2020/01/31 18:43:00.4	74.170	0.270	0.630	0.680
2020/01/31 18:43:00.5	74.140	0.220	0.700	0.740
2020/01/31 18:43:00.6	74.100	0.170	0.770	0.790
2020/01/31 18:43:00.7	74.060	0.120	0.840	0.840
2020/01/31 18:43:00.8	74.010	0.060	0.900	0.890
2020/01/31 18:43:00.9	73.970	0.000	0.960	0.940
2020/01/31 18:43:01.0	73.930	-0.050	1.020	0.990
2020/01/31 18:43:01.1	73.880	-0.110	1.070	1.030
2020/01/31 18:43:01.2	73.840	-0.170	1.120	1.070
2020/01/31 18:43:01.3	73.790	-0.230	1.160	1.110
2020/01/31 18:43:01.4	73.750	-0.300	1.190	1.140
2020/01/31 18:43:01.5	73.700	-0.360	1.220	1.170
2020/01/31 18:43:01.6	73.660	-0.410	1.240	1.190
2020/01/31 18:43:01.7	73.610	-0.470	1.250	1.210
2020/01/31 18:43:01.8	73.570	-0.530	1.260	1.220
2020/01/31 18:43:01.9	73.520	-0.580	1.260	1.220
2020/01/31 18:43:02.0	73.480	-0.630	1.250	1.220
2020/01/31 18:43:02.1	73.450	-0.680	1.230	1.210
2020/01/31 18:43:02.2	73.410	-0.720	1.210	1.190
2020/01/31 18:43:02.3	73.380	-0.760	1.170	1.170
2020/01/31 18:43:02.4	73.350	-0.800	1.130	1.140
2020/01/31 18:43:02.5	73.320	-0.830	1.080	1.110
2020/01/31 18:43:02.6	73.300	-0.850	1.030	1.060
2020/01/31 18:43:02.7	73.280	-0.870	0.960	1.020
2020/01/31 18:43:02.8	73.270	-0.890	0.890	0.960
2020/01/31 18:43:02.9	73.250	-0.900	0.810	0.900
2020/01/31 18:43:03.0	73.240	-0.900	0.720	0.840
2020/01/31 18:43:03.1	73.230	-0.900	0.630	0.770
2020/01/31 18:43:03.2	73.230	-0.900	0.530	0.700
2020/01/31 18:43:03.3	73.230	-0.880	0.420	0.620
2020/01/31 18:43:03.4	73.240	-0.870	0.310	0.550
2020/01/31 18:43:03.5	73.250	-0.840	0.190	0.460
2020/01/31 18:43:03.6	73.260	-0.810	0.070	0.380
2020/01/31 18:43:03.7	73.270	-0.780	-0.050	0.300
2020/01/31 18:43:03.8	73.320	-0.740	-0.180	0.210
2020/01/31 18:43:03.9	73.340	-0.690	-0.300	0.120
2020/01/31 18:43:04.0	73.370	-0.650	-0.430	0.040
2020/01/31 18:43:04.1	73.400	-0.590	-0.560	-0.050
2020/01/31 18:43:04.2	73.430	-0.540	-0.690	-0.140
2020/01/31 18:43:04.3	73.460	-0.480	-0.820	-0.230
2020/01/31 18:43:04.4	73.500	-0.420	-0.950	-0.310
2020/01/31 18:43:04.5	73.540	-0.360	-1.070	-0.400
2020/01/31 18:43:04.6	73.590	-0.290	-1.190	-0.490
2020/01/31 18:43:04.7	73.630	-0.230	-1.310	-0.570
2020/01/31 18:43:04.8	73.670	-0.160	-1.420	-0.650
2020/01/31 18:43:04.9	73.720	-0.100	-1.520	-0.730
2020/01/31 18:43:05.0	73.760	-0.030	-1.620	-0.800
2020/01/31 18:43:05.1	73.810	0.030	-1.710	-0.870
2020/01/31 18:43:05.2	73.850	0.100	-1.790	-0.940
2020/01/31 18:43:05.3	73.890	0.160	-1.860	-1.010
2020/01/31 18:43:05.4	73.940	0.220	-1.920	-1.070
2020/01/31 18:43:05.5	73.980	0.280	-1.970	-1.120
2020/01/31 18:43:05.6	74.010	0.330	-2.010	-1.170
2020/01/31 18:43:05.7	74.050	0.380	-2.040	-1.210
2020/01/31 18:43:05.8	74.050	0.430	-2.060	-1.250
2020/01/31 18:43:05.9	74.080	0.470	-2.060	-1.280
2020/01/31 18:43:06.0	74.100	0.510	-2.060	-1.300
2020/01/31 18:43:06.1	74.120	0.550	-2.040	-1.320
2020/01/31 18:43:06.2	74.140	0.580	-2.000	-1.330
2020/01/31 18:43:06.3	74.150	0.610	-1.960	-1.340
2020/01/31 18:43:06.4	74.150	0.640	-1.900	-1.330
2020/01/31 18:43:06.5	74.150	0.660	-1.830	-1.320
2020/01/31 18:43:06.6	74.150	0.670	-1.750	-1.310
2020/01/31 18:43:06.7	74.150	0.680	-1.660	-1.290
2020/01/31 18:43:06.8	74.130	0.690	-1.550	-1.260
2020/01/31 18:43:06.9	74.120	0.700	-1.440	-1.230
2020/01/31 18:43:07.0	74.100	0.690	-1.330	-1.190
2020/01/31 18:43:07.1	74.080	0.690	-1.200	-1.150
2020/01/31 18:43:07.2	74.060	0.680	-1.070	-1.100
2020/01/31 18:43:07.3	74.030	0.670	-0.940	-1.050
2020/01/31 18:43:07.4	74.010	0.660	-0.800	-1.000
2020/01/31 18:43:07.5	73.980	0.640	-0.660	-0.940
2020/01/31 18:43:07.6	73.950	0.620	-0.520	-0.880
2020/01/31 18:43:07.7	73.920	0.600	-0.380	-0.820
2020/01/31 18:43:07.8	73.900	0.570	-0.240	-0.760
2020/01/31 18:43:07.9	73.880	0.550	-0.100	-0.700
2020/01/31 18:43:08.0	73.850	0.520	0.030	-0.630
2020/01/31 18:43:08.1	73.820	0.490	0.160	-0.570
2020/01/31 18:43:08.2	73.800	0.460	0.280	-0.510
2020/01/31 18:43:08.3	73.770	0.420	0.390	-0.450
2020/01/31 18:43:08.4	73.750	0.390	0.500	-0.390
2020/01/31 18:43:08.5	73.730	0.360	0.600	-0.330
2020/01/31 18:43:08.6	73.710	0.320	0.700	-0.270
2020/01/31 18:43:08.7	73.690	0.290	0.780	-0.210
2020/01/31 18:43:08.8	73.690	0.250	0.860	-0.150
2020/01/31 18:43:08.9	73.670	0.220	0.930	-0.100
2020/01/31 18:43:09.0	73.660	0.180	0.990	-0.040
2020/01/31 18:43:09.1	73.650	0.150	1.040	0.020
2020/01/31 18:43:09.2	73.630	0.110	1.090	0.080
2020/01/31 18:43:09.3	73.620	0.080	1.120	0.130
2020/01/31 18:43:09.4	73.610	0.040	1.150	0.190
2020/01/31 18:43:09.5	73.600	0.010	1.170	0.250
2020/01/31 18:43:09.6	73.580	-0.020	1.190	0.310
2020/01/31 18:43:09.7	73.570	-0.050	1.200	0.370
2020/01/31 18:43:09.8	73.560	-0.080	1.200	0.430
2020/01/31 18:43:09.9	73.540	-0.110	1.190	0.490
2020/01/31 18:43:10.0	73.530	-0.140	1.180	0.550
2020/01/31 18:43:10.1	73.510	-0.170	1.170	0.610
2020/01/31 18:43:10.2	73.500	-0.200	1.150	0.670
2020/01/31 18:43:10.3	73.480	-0.220	1.120	0.730
2020/01/31 18:43:10.4	73.470	-0.250	1.090	0.780
2020/01/31 18:43:10.5	73.450	-0.270	1.060	0.840
2020/01/31 18:43:10.6	73.430	-0.290	1.020	0.890
2020/01/31 18:43:10.7	73.420	-0.310	0.980	0.940
2020/01/31 18:43:10.8	73.400	-0.330	0.930	0.990
2020/01/31 18:43:10.9	73.390	-0.340	0.880	1.040
2020/01/31 18:43:11.0	73.370	-0.360	0.820	1.080
2020/01/31 18:43:11.1	73.360	-0.370	0.770	1.110
2020/01/31 18:43:11.2	73.350	-0.380	0.700	1.150
2020/01/31 18:43:11.3	73.340	-0.390	0.640	1.170
2020/01/31 18:43:11.4	73.330	-0.400	0.570	1.190
2020/01/31 18:43:11.5	73.320	-0.400	0.500	1.210
2020/01/31 18:43:11.6	73.320	-0.400	0.430	1.220
2020/01/31 18:43:11.7	73.320	-0.400	0.350	1.230
2020/01/31 18:43:11.8	73.320	-0.400	0.280	1.230
2020/01/31 18:43:11.9	73.320	-0.400	0.200	1.220
2020/01/31 18:43:12.0	73.330	-0.390	0.110	1.210
2020/01/31 18:43:12.1	73.340	-0.380	0.030	1.190
2020/01/31 18:43:12.2	73.350	-0.370	-0.050	1.170
2020/01/31 18:43:12.3	73.360	-0.360	-0.140	1.150
2020/01/31 18:43:12.4	73.380	-0.350	-0.220	1.120
2020/01/31 18:43:12.5	73.390	-0.330	-0.310	1.080
2020/01/31 18:43:12.6	73.410	-0.310	-0.390	1.050
2020/01/31 18:43:12.7	73.430	-0.290	-0.470	1.010
2020/01/31 18:43:12.8	73.450	-0.270	-0.560	0.960
2020/01/31 18:43:12.9	73.470	-0.250	-0.640	0.920
2020/01/31 18:43:13.0	73.500	-0.230	-0.710	0.880
2020/01/31 18:43:13.1	73.520	-0.200	-0.780	0.830
2020/01/31 18:43:13.2	73.540	-0.180	-0.850	0.780
2020/01/31 18:43:13.3	73.560	-0.150	-0.920	0.740
2020/01/31 18:43:13.4	73.580	-0.130	-0.980	0.690
2020/01/31 18:43:13.5	73.610	-0.100	-1.030	0.640
2020/01/31 18:43:13.6	73.630	-0.070	-1.080	0.590
2020/01/31 18:43:13.7	73.650	-0.050	-1.130	0.550
2020/01/31 18:43:13.8	73.660	-0.020	-1.170	0.510
2020/01/31 18:43:13.9	73.680	0.010	-1.200	0.460
2020/01/31 18:43:14.0	73.700	0.030	-1.230	0.420
2020/01/31 18:43:14.1	73.720	0.060	-1.250	0.380
2020/01/31 18:43:14.2	73.730	0.080	-1.270	0.340
2020/01/31 18:43:14.3	73.750	0.110	-1.280	0.310
2020/01/31 18:43:14.4	73.760	0.130	-1.280	0.270
2020/01/31 18:43:14.5	73.770	0.150	-1.280	0.240
2020/01/31 18:43:14.6	73.780	0.170	-1.270	0.220
2020/01/31 18:43:14.7	73.790	0.190	-1.260	0.190
2020/01/31 18:43:14.8	73.790	0.210	-1.230	0.170
2020/01/31 18:43:14.9	73.800	0.230	-1.210	0.150
2020/01/31 18:43:15.0	73.810	0.250	-1.180	0.140
2020/01/31 18:43:15.1	73.810	0.260	-1.140	0.120
2020/01/31 18:43:15.2	73.820	0.270	-1.100	0.110
2020/01/31 18:43:15.3	73.830	0.290	-1.060	0.110
2020/01/31 18:43:15.4	73.840	0.300	-1.010	0.100
2020/01/31 18:43:15.5	73.850	0.310	-0.960	0.100
2020/01/31 18:43:15.6	73.860	0.320	-0.910	0.090
2020/01/31 18:43:15.7	73.860	0.320	-0.860	0.090
2020/01/31 18:43:15.8	73.880	0.330	-0.800	0.090
2020/01/31 18:43:15.9	73.890	0.330	-0.740	0.100
2020/01/31 18:43:16.0	73.900	0.330	-0.680	0.100
2020/01/31 18:43:16.1	73.910	0.340	-0.620	0.100
2020/01/31 18:43:16.2	73.920	0.340	-0.560	0.110
2020/01/31 18:43:16.3	73.940	0.340	-0.510	0.110
2020/01/31 18:43:16.4	73.950	0.330	-0.450	0.120
2020/01/31 18:43:16.5	73.960	0.330	-0.390	0.130
2020/01/31 18:43:16.6	73.970	0.330	-0.340	0.140
2020/01/31 18:43:16.7	73.980	0.320	-0.290	0.150
2020/01/31 18:43:16.8	73.990	0.320	-0.230	0.170
2020/01/31 18:43:16.9	74.000	0.310	-0.180	0.180
2020/01/31 18:43:17.0	74.010	0.310	-0.130	0.200
2020/01/31 18:43:17.1	74.010	0.300	-0.080	0.220
2020/01/31 18:43:17.2	74.020	0.290	-0.040	0.230
2020/01/31 18:43:17.3	74.020	0.290	0.010	0.250
2020/01/31 18:43:17.4	74.020	0.280	0.050	0.270
2020/01/31 18:43:17.5	74.010	0.270	0.100	0.300
2020/01/31 18:43:17.6	74.010	0.260	0.140	0.320
2020/01/31 18:43:17.7	74.000	0.250	0.180	0.340
2020/01/31 18:43:17.8	73.990	0.240	0.220	0.370
2020/01/31 18:43:17.9	73.980	0.230	0.260	0.390
2020/01/31 18:43:18.0	73.960	0.210	0.300	0.420
2020/01/31 18:43:18.1	73.950	0.200	0.340	0.440
2020/01/31 18:43:18.2	73.930	0.190	0.380	0.470
2020/01/31 18:43:18.3	73.910	0.170	0.410	0.490
2020/01/31 18:43:18.4	73.890	0.160	0.450	0.520
2020/01/31 18:43:18.5	73.870	0.140	0.480	0.540
2020/01/31 18:43:18.6	73.850	0.120	0.520	0.560
2020/01/31 18:43:18.7	73.820	0.100	0.550	0.580
2020/01/31 18:43:18.8	73.810	0.080	0.580	0.600
2020/01/31 18:43:18.9	73.780	0.060	0.600	0.620
2020/01/31 18:43:19.0	73.750	0.030	0.630	0.630
2020/01/31 18:43:19.1	73.730	0.010	0.650	0.640
2020/01/31 18:43:19.2	73.700	-0.020	0.670	0.650
2020/01/31 18:43:19.3	73.670	-0.040	0.680	0.660
2020/01/31 18:43:19.4	73.640	-0.070	0.690	0.660
2020/01/31 18:43:19.5	73.620	-0.100	0.700	0.660
2020/01/31 18:43:19.6	73.590	-0.130	0.700	0.650
2020/01/31 18:43:19.7	73.570	-0.160	0.700	0.650
2020/01/31 18:43:19.8	73.560	-0.190	0.700	0.640
2020/01/31 18:43:19.9	73.530	-0.220	0.690	0.620
2020/01/31 18:43:20.0	73.510	-0.250	0.670	0.600
2020/01/31 18:43:20.1	73.490	-0.280	0.660	0.580
2020/01/31 18:43:20.2	73.470	-0.300	0.630	0.560
2020/01/31 18:43:20.3	73.460	-0.330	0.610	0.540
2020/01/31 18:43:20.4	73.440	-0.360	0.580	0.510
2020/01/31 18:43:20.5	73.430	-0.380	0.540	0.480
2020/01/31 18:43:20.6	73.420	-0.400	0.500	0.440
2020/01/31 18:43:20.7	73.410	-0.430	0.460	0.410
2020/01/31 18:43:20.8	73.410	-0.450	0.410	0.380
2020/01/31 18:43:20.9	73.410	-0.460	0.360	0.340
2020/01/31 18:43:21.0	73.400	-0.480	0.310	0.300
2020/01/31 18:43:21.1	73.400	-0.490	0.250	0.260
2020/01/31 18:43:21.2	73.400	-0.500	0.190	0.220
2020/01/31 18:43:21.3	73.400	-0.500	0.120	0.180
2020/01/31 18:43:21.4	73.410	-0.500	0.060	0.140
2020/01/31 18:43:21.5	73.410	-0.500	-0.010	0.090
2020/01/31 18:43:21.6	73.420	-0.500	-0.080	0.050
2020/01/31 18:43:21.7	73.430	-0.490	-0.150	0.010
2020/01/31 18:43:21.8	73.450	-0.480	-0.220	-0.040
2020/01/31 18:43:21.9	73.460	-0.470	-0.290	-0.080
2020/01/31 18:43:22.0	73.480	-0.450	-0.360	-0.120
2020/01/31 18:43:22.1	73.500	-0.440	-0.430	-0.160
2020/01/31 18:43:22.2	73.520	-0.410	-0.500	-0.210
2020/01/31 18:43:22.3	73.540	-0.390	-0.570	-0.250
2020/01/31 18:43:22.4	73.560	-0.360	-0.640	-0.290
2020/01/31 18:43:22.5	73.580	-0.330	-0.700	-0.330
2020/01/31 18:43:22.6	73.600	-0.300	-0.770	-0.380
2020/01/31 18:43:22.7	73.630	-0.270	-0.820	-0.420
2020/01/31 18:43:22.8	73.650	-0.240	-0.880	-0.460
2020/01/31 18:43:22.9	73.680	-0.200	-0.930	-0.500
2020/01/31 18:43:23.0	73.700	-0.160	-0.980	-0.540
2020/01/31 18:43:23.1	73.730	-0.120	-1.020	-0.580
2020/01/31 18:43:23.2	73.760	-0.090	-1.060	-0.620
2020/01/31 18:43:23.3	73.780	-0.050	-1.090	-0.650
2020/01/31 18:43:23.4	73.810	-0.010	-1.120	-0.690
2020/01/31 18:43:23.5	73.840	0.030	-1.140	-0.730
2020/01/31 18:43:23.6	73.860	0.070	-1.150	-0.760
2020/01/31 18:43:23.7	73.890	0.110	-1.160	-0.790
2020/01/31 18:43:23.8	73.910	0.150	-1.160	-0.820
2020/01/31 18:43:23.9	73.940	0.180	-1.160	-0.850
2020/01/31 18:43:24.0	73.960	0.220	-1.150	-0.880
2020/01/31 18:43:24.1	73.990	0.250	-1.140	-0.900
2020/01/31 18:43:24.2	74.010	0.290	-1.120	-0.920
2020/01/31 18:43:24.3	74.040	0.320	-1.090	-0.940
2020/01/31 18:43:24.4	74.060	0.340	-1.060	-0.950
2020/01/31 18:43:24.5	74.080	0.370	-1.030	-0.960
2020/01/31 18:43:24.6	74.100	0.390	-0.990	-0.960
2020/01/31 18:43:24.7	74.120	0.410	-0.950	-0.960
2020/01/31 18:43:24.8	74.130	0.430	-0.900	-0.960
2020/01/31 18:43:24.9	74.150	0.450	-0.850	-0.950
2020/01/31 18:43:25.0	74.160	0.460	-0.790	-0.930
2020/01/31 18:43:25.1	74.180	0.470	-0.740	-0.910
2020/01/31 18:43:25.2	74.190	0.480	-0.680	-0.890
2020/01/31 18:43:25.3	74.200	0.490	-0.620	-0.850
2020/01/31 18:43:25.4	74.200	0.490	-0.550	-0.820
2020/01/31 18:43:25.5	74.210	0.490	-0.490	-0.770
2020/01/31 18:43:25.6	74.210	0.490	-0.430	-0.720
2020/01/31 18:43:25.7	74.210	0.490	-0.360	-0.670
2020/01/31 18:43:25.8	74.210	0.480	-0.300	-0.610
2020/01/31 18:43:25.9	74.200	0.470	-0.230	-0.550
2020/01/31 18:43:26.0	74.200	0.450	-0.170	-0.480
2020/01/31 18:43:26.1	74.190	0.440	-0.110	-0.410
2020/01/31 18:43:26.2	74.180	0.420	-0.050	-0.330
2020/01/31 18:43:26.3	74.160	0.400	0.010	-0.250
2020/01/31 18:43:26.4	74.150	0.380	0.070	-0.170
2020/01/31 18:43:26.5	74.130	0.350	0.130	-0.080
2020/01/31 18:43:26.6	74.110	0.330	0.180	0.010
2020/01/31 18:43:26.7	74.090	0.300	0.230	0.100
2020/01/31 18:43:26.8	74.070	0.270	0.280	0.190
2020/01/31 18:43:26.9	74.040	0.240	0.330	0.280
2020/01/31 18:43:27.0	74.020	0.210	0.370	0.370
2020/01/31 18:43:27.1	74.000	0.170	0.420	0.460
2020/01/31 18:43:27.2	73.970	0.140	0.460	0.550
2020/01/31 18:43:27.3	73.940	0.100	0.490	0.640
2020/01/31 18:43:27.4	73.920	0.070	0.530	0.730
2020/01/31 18:43:27.5	73.890	0.030	0.560	0.810
2020/01/31 18:43:27.6	73.860	-0.010	0.580	0.900
2020/01/31 18:43:27.7	73.830	-0.040	0.610	0.980
2020/01/31 18:43:27.8	73.800	-0.080	0.630	1.050
2020/01/31 18:43:27.9	73.780	-0.110	0.640	1.120
2020/01/31 18:43:28.0	73.750	-0.150	0.650	1.190
2020/01/31 18:43:28.1	73.720	-0.180	0.660	1.260
2020/01/31 18:43:28.2	73.690	-0.210	0.660	1.320
2020/01/31 18:43:28.3	73.670	-0.240	0.660	1.370
2020/01/31 18:43:28.4	73.640	-0.270	0.650	1.420
2020/01/31 18:43:28.5	73.620	-0.300	0.640	1.460
2020/01/31 18:43:28.6	73.600	-0.320	0.620	1.500
2020/01/31 18:43:28.7	73.570	-0.340	0.590	1.530
2020/01/31 18:43:28.8	73.550	-0.360	0.560	1.560
2020/01/31 18:43:28.9	73.530	-0.370	0.530	1.580
2020/01/31 18:43:29.0	73.520	-0.390	0.490	1.590
2020/01/31 18:43:29.1	73.510	-0.400	0.450	1.600
2020/01/31 18:43:29.2	73.500	-0.400	0.400	1.590
2020/01/31 18:43:29.3	73.490	-0.410	0.340	1.590
2020/01/31 18:43:29.4	73.480	-0.410	0.280	1.580
2020/01/31 18:43:29.5	73.480	-0.400	0.220	1.560
2020/01/31 18:43:29.6	73.480	-0.400	0.160	1.530
2020/01/31 18:43:29.7	73.480	-0.390	0.090	1.500
2020/01/31 18:43:29.8	73.490	-0.370	0.020	1.470
2020/01/31 18:43:29.9	73.490	-0.360	-0.050	1.430
2020/01/31 18:43:30.0	73.500	-0.340	-0.120	1.390
2020/01/31 18:43:30.1	73.510	-0.320	-0.190	1.350
2020/01/31 18:43:30.2	73.520	-0.300	-0.260	1.300
2020/01/31 18:43:30.3	73.540	-0.270	-0.320	1.250
2020/01/31 18:43:30.4	73.550	-0.250	-0.390	1.200
2020/01/31 18:43:30.5	73.570	-0.220	-0.450	1.140
2020/01/31 18:43:30.6	73.590	-0.190	-0.510	1.080
2020/01/31 18:43:30.7	73.620	-0.160	-0.560	1.030
2020/01/31 18:43:30.8	73.640	-0.120	-0.620	0.970
2020/01/31 18:43:30.9	73.670	-0.090	-0.660	0.910
2020/01/31 18:43:31.0	73.690	-0.060	-0.700	0.850
2020/01/31 18:43:31.1	73.720	-0.020	-0.740	0.800
2020/01/31 18:43:31.2	73.750	0.010	-0.770	0.740
2020/01/31 18:43:31.3	73.780	0.050	-0.800	0.680
2020/01/31 18:43:31.4	73.810	0.080	-0.820	0.620
2020/01/31 18:43:31.5	73.840	0.110	-0.830	0.570
2020/01/31 18:43:31.6	73.880	0.140	-0.840	0.510
2020/01/31 18:43:31.7	73.910	0.170	-0.850	0.460
2020/01/31 18:43:31.8	73.950	0.200	-0.850	0.410
2020/01/31 18:43:31.9	73.980	0.230	-0.840	0.360
2020/01/31 18:43:32.0	74.010	0.250	-0.830	0.310
2020/01/31 18:43:32.1	74.040	0.280	-0.820	0.260
2020/01/31 18:43:32.2	74.070	0.300	-0.800	0.210
2020/01/31 18:43:32.3	74.100	0.320	-0.780	0.170
2020/01/31 18:43:32.4	74.140	0.330	-0.750	0.130
2020/01/31 18:43:32.5	74.170	0.350	-0.720	0.090
2020/01/31 18:43:32.6	74.190	0.360	-0.690	0.050
2020/01/31 18:43:32.7	74.220	0.370	-0.660	0.020
2020/01/31 18:43:32.8	74.240	0.380	-0.610	-0.020
2020/01/31 18:43:32.9	74.270	0.380	-0.570	-0.050
2020/01/31 18:43:33.0	74.290	0.380	-0.530	-0.080
2020/01/31 18:43:33.1	74.320	0.380	-0.490	-0.110
2020/01/31 18:43:33.2	74.340	0.380	-0.450	-0.130
2020/01/31 18:43:33.3	74.360	0.370	-0.400	-0.160
2020/01/31 18:43:33.4	74.380	0.360	-0.360	-0.180
2020/01/31 18:43:33.5	74.400	0.350	-0.320	-0.190
2020/01/31 18:43:33.6	74.420	0.340	-0.270	-0.210
2020/01/31 18:43:33.7	74.430	0.320	-0.230	-0.220
2020/01/31 18:43:33.8	74.450	0.310	-0.190	-0.230
2020/01/31 18:43:33.9	74.460	0.290	-0.150	-0.230
2020/01/31 18:43:34.0	74.470	0.270	-0.110	-0.240
2020/01/31 18:43:34.1	74.470	0.240	-0.080	-0.240
2020/01/31 18:43:34.2	74.480	0.220	-0.040	-0.230
2020/01/31 18:43:34.3	74.480	0.190	-0.010	-0.230
2020/01/31 18:43:34.4	74.480	0.170	0.020	-0.220
2020/01/31 18:43:34.5	74.480	0.140	0.050	-0.210
2020/01/31 18:43:34.6	74.480	0.110	0.070	-0.190
2020/01/31 18:43:34.7	74.470	0.080	0.100	-0.180
2020/01/31 18:43:34.8	74.470	0.050	0.120	-0.160
2020/01/31 18:43:34.9	74.460	0.020	0.140	-0.140
2020/01/31 18:43:35.0	74.450	-0.020	0.150	-0.120
2020/01/31 18:43:35.1	74.430	-0.050	0.170	-0.090
2020/01/31 18:43:35.2	74.420	-0.080	0.180	-0.060
2020/01/31 18:43:35.3	74.400	-0.110	0.180	-0.040
2020/01/31 18:43:35.4	74.380	-0.140	0.190	-0.010
2020/01/31 18:43:35.5	74.360	-0.170	0.190	0.020
2020/01/31 18:43:35.6	74.340	-0.210	0.190	0.050
2020/01/31 18:43:35.7	74.310	-0.240	0.190	0.080
2020/01/31 18:43:35.8	74.290	-0.270	0.190	0.120
2020/01/31 18:43:35.9	74.260	-0.290	0.180	0.150
2020/01/31 18:43:36.0	74.230	-0.320	0.170	0.180
2020/01/31 18:43:36.1	74.200	-0.350	0.160	0.210
2020/01/31 18:43:36.2	74.180	-0.370	0.150	0.240
2020/01/31 18:43:36.3	74.150	-0.400	0.140	0.270
2020/01/31 18:43:36.4	74.120	-0.420	0.120	0.300
2020/01/31 18:43:36.5	74.080	-0.440	0.110	0.330
2020/01/31 18:43:36.6	74.050	-0.450	0.090	0.350
2020/01/31 18:43:36.7	74.020	-0.470	0.070	0.380
2020/01/31 18:43:36.8	74.000	-0.480	0.060	0.400
2020/01/31 18:43:36.9	73.970	-0.490	0.040	0.420
2020/01/31 18:43:37.0	73.940	-0.500	0.020	0.440
2020/01/31 18:43:37.1	73.910	-0.510	-0.000	0.450
2020/01/31 18:43:37.2	73.880	-0.510	-0.020	0.460
2020/01/31 18:43:37.3	73.850	-0.510	-0.040	0.470
2020/01/31 18:43:37.4	73.830	-0.510	-0.060	0.480
2020/01/31 18:43:37.5	73.800	-0.500	-0.080	0.480
2020/01/31 18:43:37.6	73.780	-0.490	-0.100	0.480
2020/01/31 18:43:37.7	73.760	-0.480	-0.120	0.480
2020/01/31 18:43:37.8	73.740	-0.470	-0.130	0.480
2020/01/31 18:43:37.9	73.720	-0.450	-0.150	0.460
2020/01/31 18:43:38.0	73.700	-0.440	-0.170	0.450
2020/01/31 18:43:38.1	73.690	-0.410	-0.180	0.430
2020/01/31 18:43:38.2	73.680	-0.390	-0.190	0.410
2020/01/31 18:43:38.3	73.670	-0.360	-0.210	0.390
2020/01/31 18:43:38.4	73.670	-0.340	-0.220	0.360
2020/01/31 18:43:38.5	73.660	-0.310	-0.230	0.340
2020/01/31 18:43:38.6	73.660	-0.280	-0.240	0.300
2020/01/31 18:43:38.7	73.660	-0.240	-0.240	0.270
2020/01/31 18:43:38.8	73.660	-0.210	-0.250	0.230
2020/01/31 18:43:38.9	73.660	-0.170	-0.260	0.200
2020/01/31 18:43:39.0	73.670	-0.140	-0.260	0.160
2020/01/31 18:43:39.1	73.680	-0.100	-0.270	0.120
2020/01/31 18:43:39.2	73.690	-0.060	-0.270	0.090
2020/01/31 18:43:39.3	73.710	-0.020	-0.270	0.050
2020/01/31 18:43:39.4	73.720	0.020	-0.280	0.010
2020/01/31 18:43:39.5	73.740	0.060	-0.280	-0.030
2020/01/31 18:43:39.6	73.760	0.090	-0.280	-0.070
2020/01/31 18:43:39.7	73.780	0.130	-0.290	-0.110
2020/01/31 18:43:39.8	73.800	0.170	-0.290	-0.140
2020/01/31 18:43:39.9	73.820	0.200	-0.300	-0.180
2020/01/31 18:43:40.0	73.850	0.240	-0.310	-0.210
2020/01/31 18:43:40.1	73.880	0.270	-0.310	-0.250
2020/01/31 18:43:40.2	73.900	0.300	-0.320	-0.280
2020/01/31 18:43:40.3	73.930	0.330	-0.330	-0.310
2020/01/31 18:43:40.4	73.960	0.360	-0.340	-0.340
2020/01/31 18:43:40.5	73.990	0.390	-0.350	-0.370
2020/01/31 18:43:40.6	74.020	0.410	-0.360	-0.400
2020/01/31 18:43:40.7	74.050	0.430	-0.370	-0.420
2020/01/31 18:43:40.8	74.080	0.450	-0.390	-0.440
2020/01/31 18:43:40.9	74.110	0.470	-0.400	-0.460
2020/01/31 18:43:41.0	74.140	0.490	-0.410	-0.480
2020/01/31 18:43:41.1	74.170	0.500	-0.420	-0.500
2020/01/31 18:43:41.2	74.200	0.510	-0.430	-0.510
2020/01/31 18:43:41.3	74.230	0.520	-0.440	-0.520
2020/01/31 18:43:41.4	74.260	0.520	-0.450	-0.530
2020/01/31 18:43:41.5	74.280	0.520	-0.460	-0.540
2020/01/31 18:43:41.6	74.310	0.520	-0.460	-0.540
2020/01/31 18:43:41.7	74.340	0.520	-0.460	-0.540
2020/01/31 18:43:41.8	74.360	0.520	-0.460	-0.540
2020/01/31 18:43:41.9	74.380	0.510	-0.460	-0.530
2020/01/31 18:43:42.0	74.400	0.510	-0.460	-0.530
2020/01/31 18:43:42.1	74.430	0.500	-0.460	-0.520
2020/01/31 18:43:42.2	74.440	0.480	-0.450	-0.510
2020/01/31 18:43:42.3	74.460	0.470	-0.450	-0.500
2020/01/31 18:43:42.4	74.480	0.460	-0.440	-0.480
2020/01/31 18:43:42.5	74.490	0.440	-0.420	-0.470
2020/01/31 18:43:42.6	74.500	0.430	-0.410	-0.450
2020/01/31 18:43:42.7	74.510	0.410	-0.400	-0.430
2020/01/31 18:43:42.8	74.520	0.390	-0.380	-0.410
2020/01/31 18:43:42.9	74.530	0.370	-0.360	-0.390
2020/01/31 18:43:43.0	74.530	0.360	-0.340	-0.370
2020/01/31 18:43:43.1	74.530	0.340	-0.330	-0.340
2020/01/31 18:43:43.2	74.530	0.320	-0.300	-0.320
2020/01/31 18:43:43.3	74.530	0.300	-0.280	-0.290
2020/01/31 18:43:43.4	74.530	0.280	-0.260	-0.260
2020/01/31 18:43:43.5	74.530	0.260	-0.240	-0.230
2020/01/31 18:43:43.6	74.520	0.240	-0.220	-0.190
2020/01/31 18:43:43.7	74.520	0.220	-0.200	-0.160
2020/01/31 18:43:43.8	74.510	0.200	-0.170	-0.120
2020/01/31 18:43:43.9	74.500	0.180	-0.150	-0.080
2020/01/31 18:43:44.0	74.490	0.160	-0.130	-0.040
2020/01/31 18:43:44.1	74.480	0.140	-0.110	0.000
2020/01/31 18:43:44.2	74.460	0.120	-0.100	0.050
2020/01/31 18:43:44.3	74.450	0.100	-0.080	0.090
2020/01/31 18:43:44.4	74.440	0.090	-0.060	0.140
2020/01/31 18:43:44.5	74.420	0.070	-0.040	0.190
2020/01/31 18:43:44.6	74.410	0.050	-0.030	0.240
2020/01/31 18:43:44.7	74.390	0.030	-0.020	0.290
2020/01/31 18:43:44.8	74.370	0.010	-0.000	0.340
2020/01/31 18:43:44.9	74.350	-0.010	0.010	0.400
2020/01/31 18:43:45.0	74.340	-0.020	0.020	0.450
2020/01/31 18:43:45.1	74.320	-0.040	0.030	0.510
2020/01/31 18:43:45.2	74.300	-0.060	0.040	0.570
2020/01/31 18:43:45.3	74.290	-0.080	0.050	0.630
2020/01/31 18:43:45.4	74.270	-0.100	0.060	0.690
2020/01/31 18:43:45.5	74.250	-0.120	0.070	0.740
2020/01/31 18:43:45.6	74.240	-0.140	0.080	0.800
2020/01/31 18:43:45.7	74.220	-0.160	0.090	0.860
2020/01/31 18:43:45.8	74.190	-0.180	0.100	0.920
2020/01/31 18:43:45.9	74.180	-0.200	0.110	0.980
2020/01/31 18:43:46.0	74.170	-0.220	0.120	1.030
2020/01/31 18:43:46.1	74.160	-0.240	0.140	1.080
2020/01/31 18:43:46.2	74.150	-0.260	0.150	1.130
2020/01/31 18:43:46.3	74.150	-0.280	0.160	1.180
2020/01/31 18:43:46.4	74.140	-0.300	0.170	1.220
2020/01/31 18:43:46.5	74.140	-0.320	0.180	1.260
2020/01/31 18:43:46.6	74.140	-0.340	0.190	1.300
2020/01/31 18:43:46.7	74.140	-0.360	0.190	1.330
2020/01/31 18:43:46.8	74.130	-0.380	0.200	1.350
2020/01/31 18:43:46.9	74.130	-0.400	0.200	1.370
2020/01/31 18:43:47.0	74.140	-0.410	0.210	1.390
2020/01/31 18:43:47.1	74.140	-0.430	0.210	1.400
2020/01/31 18:43:47.2	74.150	-0.450	0.210	1.410
2020/01/31 18:43:47.3	74.160	-0.470	0.220	1.410
2020/01/31 18:43:47.4	74.160	-0.480	0.220	1.410
2020/01/31 18:43:47.5	74.170	-0.500	0.210	1.410
2020/01/31 18:43:47.6	74.170	-0.510	0.210	1.400
2020/01/31 18:43:47.7	74.180	-0.520	0.210	1.390
2020/01/31 18:43:47.8	74.180	-0.530	0.200	1.380
2020/01/31 18:43:47.9	74.190	-0.540	0.190	1.360
2020/01/31 18:43:48.0	74.190	-0.550	0.180	1.340
2020/01/31 18:43:48.1	74.200	-0.560	0.170	1.310
2020/01/31 18:43:48.2	74.200	-0.560	0.160	1.290
2020/01/31 18:43:48.3	74.200	-0.560	0.150	1.260
2020/01/31 18:43:48.4	74.210	-0.560	0.140	1.230
2020/01/31 18:43:48.5	74.210	-0.560	0.120	1.190
2020/01/31 18:43:48.6	74.220	-0.560	0.100	1.160
2020/01/31 18:43:48.7	74.220	-0.550	0.080	1.120
2020/01/31 18:43:48.8	74.220	-0.540	0.060	1.080
2020/01/31 18:43:48.9	74.220	-0.530	0.040	1.030
2020/01/31 18:43:49.0	74.220	-0.520	0.020	0.990
2020/01/31 18:43:49.1	74.230	-0.500	-0.010	0.950
2020/01/31 18:43:49.2	74.230	-0.490	-0.030	0.900
2020/01/31 18:43:49.3	74.240	-0.460	-0.060	0.860
2020/01/31 18:43:49.4	74.240	-0.440	-0.090	0.810
2020/01/31 18:43:49.5	74.250	-0.420	-0.120	0.760
2020/01/31 18:43:49.6	74.260	-0.390	-0.150	0.710
2020/01/31 18:43:49.7	74.270	-0.360	-0.180	0.660
2020/01/31 18:43:49.8	74.300	-0.330	-0.210	0.610
2020/01/31 18:43:49.9	74.310	-0.290	-0.250	0.560
2020/01/31 18:43:50.0	74.320	-0.250	-0.280	0.510
2020/01/31 18:43:50.1	74.330	-0.220	-0.320	0.460
2020/01/31 18:43:50.2	74.340	-0.180	-0.360	0.410
2020/01/31 18:43:50.3	74.360	-0.140	-0.400	0.350
2020/01/31 18:43:50.4	74.370	-0.100	-0.440	0.300
2020/01/31 18:43:50.5	74.380	-0.050	-0.480	0.250
2020/01/31 18:43:50.6	74.400	-0.010	-0.520	0.190
2020/01/31 18:43:50.7	74.420	0.030	-0.560	0.140
2020/01/31 18:43:50.8	74.440	0.080	-0.600	0.090
2020/01/31 18:43:50.9	74.450	0.120	-0.640	0.040
2020/01/31 18:43:51.0	74.470	0.170	-0.680	-0.010
2020/01/31 18:43:51.1	74.480	0.210	-0.720	-0.060
2020/01/31 18:43:51.2	74.500	0.250	-0.760	-0.110
2020/01/31 18:43:51.3	74.510	0.300	-0.800	-0.160
2020/01/31 18:43:51.4	74.530	0.340	-0.840	-0.210
2020/01/31 18:43:51.5	74.540	0.380	-0.870	-0.250
2020/01/31 18:43:51.6	74.550	0.420	-0.900	-0.300
2020/01/31 18:43:51.7	74.570	0.460	-0.930	-0.340
2020/01/31 18:43:51.8	74.580	0.490	-0.960	-0.390
2020/01/31 18:43:51.9	74.590	0.530	-0.980	-0.430
2020/01/31 18:43:52.0	74.600	0.560	-1.010	-0.470
2020/01/31 18:43:52.1	74.610	0.590	-1.020	-0.510
2020/01/31 18:43:52.2	74.620	0.620	-1.040	-0.550
2020/01/31 18:43:52.3	74.630	0.650	-1.050	-0.590
2020/01/31 18:43:52.4	74.640	0.670	-1.050	-0.620
2020/01/31 18:43:52.5	74.650	0.690	-1.050	-0.660
2020/01/31 18:43:52.6	74.660	0.710	-1.050	-0.690
2020/01/31 18:43:52.7	74.660	0.730	-1.040	-0.720
2020/01/31 18:43:52.8	74.670	0.740	-1.020	-0.760
2020/01/31 18:43:52.9	74.680	0.750	-1.000	-0.790
2020/01/31 18:43:53.0	74.690	0.750	-0.970	-0.810
2020/01/31 18:43:53.1	74.690	0.760	-0.940	-0.840
2020/01/31 18:43:53.2	74.700	0.760	-0.900	-0.860
2020/01/31 18:43:53.3	74.700	0.750	-0.860	-0.890
2020/01/31 18:43:53.4	74.700	0.750	-0.810	-0.910
2020/01/31 18:43:53.5	74.710	0.740	-0.750	-0.920
2020/01/31 18:43:53.6	74.710	0.720	-0.690	-0.940
2020/01/31 18:43:53.7	74.710	0.710	-0.630	-0.950
2020/01/31 18:43:53.8	74.710	0.690	-0.560	-0.960
2020/01/31 18:43:53.9	74.710	0.670	-0.480	-0.960
2020/01/31 18:43:54.0	74.710	0.640	-0.410	-0.970
2020/01/31 18:43:54.1	74.710	0.610	-0.330	-0.970
2020/01/31 18:43:54.2	74.710	0.580	-0.240	-0.960
2020/01/31 18:43:54.3	74.700	0.550	-0.160	-0.960
2020/01/31 18:43:54.4	74.690	0.510	-0.070	-0.940
2020/01/31 18:43:54.5	74.680	0.480	0.010	-0.930
2020/01/31 18:43:54.6	74.680	0.440	0.100	-0.910
2020/01/31 18:43:54.7	74.660	0.400	0.190	-0.880
2020/01/31 18:43:54.8	74.660	0.360	0.280	-0.860
2020/01/31 18:43:54.9	74.640	0.310	0.370	-0.820
2020/01/31 18:43:55.0	74.630	0.270	0.450	-0.790
2020/01/31 18:43:55.1	74.610	0.220	0.530	-0.750
2020/01/31 18:43:55.2	74.600	0.180	0.610	-0.700
2020/01/31 18:43:55.3	74.580	0.130	0.690	-0.650
2020/01/31 18:43:55.4	74.570	0.080	0.760	-0.600
2020/01/31 18:43:55.5	74.550	0.040	0.820	-0.550
2020/01/31 18:43:55.6	74.540	-0.010	0.880	-0.490
2020/01/31 18:43:55.7	74.520	-0.060	0.940	-0.440
2020/01/31 18:43:55.8	74.510	-0.100	0.980	-0.380
2020/01/31 18:43:55.9	74.490	-0.150	1.030	-0.320
2020/01/31 18:43:56.0	74.480	-0.190	1.060	-0.260
2020/01/31 18:43:56.1	74.480	-0.230	1.080	-0.200
2020/01/31 18:43:56.2	74.470	-0.280	1.100	-0.150
2020/01/31 18:43:56.3	74.460	-0.320	1.110	-0.090
2020/01/31 18:43:56.4	74.460	-0.360	1.110	-0.030
2020/01/31 18:43:56.5	74.460	-0.390	1.110	0.020
2020/01/31 18:43:56.6	74.450	-0.430	1.090	0.070
2020/01/31 18:43:56.7	74.450	-0.460	1.070	0.120
2020/01/31 18:43:56.8	74.440	-0.490	1.040	0.180
2020/01/31 18:43:56.9	74.440	-0.520	1.000	0.230
2020/01/31 18:43:57.0	74.450	-0.550	0.960	0.270
2020/01/31 18:43:57.1	74.450	-0.570	0.910	0.320
2020/01/31 18:43:57.2	74.450	-0.600	0.850	0.360
2020/01/31 18:43:57.3	74.450	-0.610	0.790	0.410
2020/01/31 18:43:57.4	74.460	-0.630	0.720	0.450
2020/01/31 18:43:57.5	74.460	-0.640	0.650	0.490
2020/01/31 18:43:57.6	74.460	-0.650	0.570	0.530
2020/01/31 18:43:57.7	74.470	-0.660	0.490	0.570
2020/01/31 18:43:57.8	74.480	-0.660	0.410	0.610
2020/01/31 18:43:57.9	74.480	-0.660	0.320	0.650
2020/01/31 18:43:58.0	74.490	-0.660	0.230	0.690
2020/01/31 18:43:58.1	74.490	-0.650	0.140	0.720
2020/01/31 18:43:58.2	74.500	-0.650	0.050	0.760
2020/01/31 18:43:58.3	74.510	-0.630	-0.040	0.790
2020/01/31 18:43:58.4	74.520	-0.620	-0.140	0.820
2020/01/31 18:43:58.5	74.530	-0.600	-0.230	0.850
2020/01/31 18:43:58.6	74.540	-0.580	-0.330	0.870
2020/01/31 18:43:58.7	74.550	-0.560	-0.420	0.900
2020/01/31 18:43:58.8	74.560	-0.530	-0.510	0.920
2020/01/31 18:43:58.9	74.580	-0.500	-0.600	0.940
2020/01/31 18:43:59.0	74.600	-0.470	-0.690	0.950
2020/01/31 18:43:59.1	74.620	-0.440	-0.780	0.970
2020/01/31 18:43:59.2	74.640	-0.410	-0.860	0.980
2020/01/31 18:43:59.3	74.660	-0.370	-0.940	0.980
2020/01/31 18:43:59.4	74.680	-0.330	-1.010	0.990
2020/01/31 18:43:59.5	74.710	-0.300	-1.080	1.000
2020/01/31 18:43:59.6	74.730	-0.260	-1.150	1.000
2020/01/31 18:43:59.7	74.760	-0.220	-1.210	1.000
2020/01/31 18:43:59.8	74.780	-0.180	-1.260	1.000
2020/01/31 18:43:59.9	74.810	-0.140	-1.310	1.000
2020/01/31 18:44:00.0	74.840	-0.100	-1.350	1.000
2020/01/31 18:44:00.1	74.860	-0.060	-1.380	1.000
2020/01/31 18:44:00.2	74.890	-0.020	-1.410	1.000
2020/01/31 18:44:00.3	74.910	0.020	-1.430	1.000
2020/01/31 18:44:00.4	74.930	0.050	-1.440	1.000
2020/01/31 18:44:00.5	74.960	0.090	-1.450	1.000
2020/01/31 18:44:00.6	74.980	0.120	-1.440	1.010
2020/01/31 18:44:00.7	74.990	0.150	-1.430	1.010
2020/01/31 18:44:00.8	75.020	0.180	-1.420	1.020
2020/01/31 18:44:00.9	75.040	0.210	-1.390	1.020
2020/01/31 18:44:01.0	75.050	0.240	-1.360	1.030
2020/01/31 18:44:01.1	75.060	0.260	-1.330	1.030
2020/01/31 18:44:01.2	75.070	0.280	-1.280	1.040
2020/01/31 18:44:01.3	75.080	0.300	-1.230	1.040
2020/01/31 18:44:01.4	75.090	0.320	-1.180	1.050
2020/01/31 18:44:01.5	75.100	0.330	-1.120	1.060
2020/01/31 18:44:01.6	75.100	0.340	-1.050	1.070
2020/01/31 18:44:01.7	75.100	0.350	-0.980	1.080
2020/01/31 18:44:01.8	75.110	0.350	-0.900	1.080
2020/01/31 18:44:01.9	75.110	0.360	-0.820	1.090
2020/01/31 18:44:02.0	75.110	0.360	-0.740	1.090
2020/01/31 18:44:02.1	75.100	0.360	-0.650	1.100
2020/01/31 18:44:02.2	75.100	0.350	-0.570	1.100
2020/01/31 18:44:02.3	75.100	0.350	-0.480	1.110
2020/01/31 18:44:02.4	75.090	0.340	-0.390	1.110
2020/01/31 18:44:02.5	75.090	0.330	-0.290	1.110
2020/01/31 18:44:02.6	75.080	0.320	-0.200	1.100
2020/01/31 18:44:02.7	75.070	0.300	-0.110	1.100
2020/01/31 18:44:02.8	75.070	0.290	-0.020	1.090
2020/01/31 18:44:02.9	75.070	0.270	0.070	1.080
2020/01/31 18:44:03.0	75.060	0.250	0.160	1.070
2020/01/31 18:44:03.1	75.060	0.230	0.250	1.050
2020/01/31 18:44:03.2	75.050	0.210	0.340	1.030
2020/01/31 18:44:03.3	75.050	0.190	0.420	1.010
2020/01/31 18:44:03.4	75.040	0.170	0.490	0.990
2020/01/31 18:44:03.5	75.040	0.150	0.570	0.960
2020/01/31 18:44:03.6	75.030	0.130	0.640	0.930
2020/01/31 18:44:03.7	75.030	0.110	0.700	0.900
2020/01/31 18:44:03.8	75.030	0.090	0.760	0.860
2020/01/31 18:44:03.9	75.030	0.060	0.820	0.830
2020/01/31 18:44:04.0	75.020	0.040	0.860	0.790
2020/01/31 18:44:04.1	75.020	0.020	0.900	0.750
2020/01/31 18:44:04.2	75.010	0.000	0.940	0.710
2020/01/31 18:44:04.3	75.010	-0.020	0.960	0.670
2020/01/31 18:44:04.4	75.000	-0.040	0.980	0.630
2020/01/31 18:44:04.5	75.000	-0.060	1.000	0.590
2020/01/31 18:44:04.6	74.990	-0.080	1.000	0.540
2020/01/31 18:44:04.7	74.980	-0.100	1.000	0.500
2020/01/31 18:44:04.8	74.970	-0.120	0.990	0.460
2020/01/31 18:44:04.9	74.960	-0.130	0.980	0.410
2020/01/31 18:44:05.0	74.950	-0.150	0.960	0.370
2020/01/31 18:44:05.1	74.940	-0.170	0.930	0.320
2020/01/31 18:44:05.2	74.930	-0.190	0.900	0.280
2020/01/31 18:44:05.3	74.910	-0.210	0.860	0.240
2020/01/31 18:44:05.4	74.900	-0.220	0.810	0.200
2020/01/31 18:44:05.5	74.880	-0.240	0.760	0.150
2020/01/31 18:44:05.6	74.870	-0.250	0.710	0.110
2020/01/31 18:44:05.7	74.850	-0.270	0.650	0.070
2020/01/31 18:44:05.8	74.830	-0.280	0.590	0.030
2020/01/31 18:44:05.9	74.820	-0.300	0.530	-0.010
2020/01/31 18:44:06.0	74.800	-0.310	0.460	-0.050
2020/01/31 18:44:06.1	74.780	-0.320	0.380	-0.090
2020/01/31 18:44:06.2	74.760	-0.330	0.310	-0.130
2020/01/31 18:44:06.3	74.740	-0.340	0.230	-0.170
2020/01/31 18:44:06.4	74.720	-0.350	0.150	-0.210
2020/01/31 18:44:06.5	74.710	-0.360	0.070	-0.250
2020/01/31 18:44:06.6	74.690	-0.360	-0.010	-0.290
2020/01/31 18:44:06.7	74.680	-0.360	-0.100	-0.330
2020/01/31 18:44:06.8	74.670	-0.360	-0.190	-0.370
2020/01/31 18:44:06.9	74.660	-0.360	-0.270	-0.410
2020/01/31 18:44:07.0	74.660	-0.360	-0.350	-0.460
2020/01/31 18:44:07.1	74.650	-0.350	-0.430	-0.500
2020/01/31 18:44:07.2	74.650	-0.340	-0.510	-0.540
2020/01/31 18:44:07.3	74.660	-0.330	-0.590	-0.580
2020/01/31 18:44:07.4	74.670	-0.310	-0.670	-0.620
2020/01/31 18:44:07.5	74.680	-0.300	-0.740	-0.660
2020/01/31 18:44:07.6	74.690	-0.270	-0.820	-0.700
2020/01/31 18:44:07.7	74.710	-0.250	-0.890	-0.740
2020/01/31 18:44:07.8	74.720	-0.220	-0.950	-0.780
2020/01/31 18:44:07.9	74.750	-0.190	-1.020	-0.820
2020/01/31 18:44:08.0	74.780	-0.160	-1.080	-0.860
2020/01/31 18:44:08.1	74.810	-0.120	-1.140	-0.900
2020/01/31 18:44:08.2	74.850	-0.080	-1.200	-0.940
2020/01/31 18:44:08.3	74.880	-0.040	-1.250	-0.980
2020/01/31 18:44:08.4	74.920	-0.000	-1.290	-1.010
2020/01/31 18:44:08.5	74.970	0.040	-1.330	-1.050
2020/01/31 18:44:08.6	75.010	0.090	-1.370	-1.080
2020/01/31 18:44:08.7	75.050	0.140	-1.400	-1.110
2020/01/31 18:44:08.8	75.110	0.180	-1.430	-1.140
2020/01/31 18:44:08.9	75.150	0.230	-1.440	-1.160
2020/01/31 18:44:09.0	75.200	0.280	-1.460	-1.180
2020/01/31 18:44:09.1	75.240	0.330	-1.460	-1.200
2020/01/31 18:44:09.2	75.280	0.370	-1.460	-1.210
2020/01/31 18:44:09.3	75.320	0.420	-1.450	-1.220
2020/01/31 18:44:09.4	75.350	0.460	-1.440	-1.220
2020/01/31 18:44:09.5	75.390	0.500	-1.420	-1.220
2020/01/31 18:44:09.6	75.420	0.540	-1.390	-1.220
2020/01/31 18:44:09.7	75.440	0.570	-1.350	-1.210
2020/01/31 18:44:09.8	75.440	0.600	-1.300	-1.190
2020/01/31 18:44:09.9	75.450	0.630	-1.250	-1.180
2020/01/31 18:44:10.0	75.470	0.650	-1.190	-1.160
2020/01/31 18:44:10.1	75.470	0.670	-1.120	-1.130
2020/01/31 18:44:10.2	75.480	0.680	-1.050	-1.100
2020/01/31 18:44:10.3	75.480	0.690	-0.970	-1.060
2020/01/31 18:44:10.4	75.470	0.700	-0.880	-1.020
2020/01/31 18:44:10.5	75.460	0.700	-0.780	-0.980
2020/01/31 18:44:10.6	75.450	0.700	-0.680	-0.930
2020/01/31 18:44:10.7	75.430	0.690	-0.570	-0.880
2020/01/31 18:44:10.8	75.400	0.680	-0.460	-0.820
2020/01/31 18:44:10.9	75.380	0.660	-0.340	-0.760
2020/01/31 18:44:11.0	75.350	0.640	-0.220	-0.690
2020/01/31 18:44:11.1	75.320	0.610	-0.100	-0.620
2020/01/31 18:44:11.2	75.280	0.580	0.020	-0.550
2020/01/31 18:44:11.3	75.250	0.550	0.140	-0.470
2020/01/31 18:44:11.4	75.210	0.510	0.270	-0.390
2020/01/31 18:44:11.5	75.170	0.470	0.390	-0.300
2020/01/31 18:44:11.6	75.130	0.430	0.500	-0.220
2020/01/31 18:44:11.7	75.090	0.380	0.620	-0.130
2020/01/31 18:44:11.8	75.040	0.340	0.730	-0.040
2020/01/31 18:44:11.9	75.000	0.290	0.830	0.050
2020/01/31 18:44:12.0	74.960	0.240	0.920	0.130
2020/01/31 18:44:12.1	74.920	0.190	1.010	0.220
2020/01/31 18:44:12.2	74.890	0.140	1.090	0.310
2020/01/31 18:44:12.3	74.860	0.090	1.160	0.390
2020/01/31 18:44:12.4	74.820	0.040	1.220	0.470
2020/01/31 18:44:12.5	74.800	-0.000	1.270	0.550
2020/01/31 18:44:12.6	74.770	-0.050	1.310	0.620
2020/01/31 18:44:12.7	74.750	-0.100	1.330	0.690
2020/01/31 18:44:12.8	74.740	-0.140	1.350	0.760
2020/01/31 18:44:12.9	74.720	-0.180	1.350	0.830
2020/01/31 18:44:13.0	74.710	-0.220	1.350	0.880
2020/01/31 18:44:13.1	74.700	-0.250	1.330	0.940
2020/01/31 18:44:13.2	74.700	-0.280	1.300	0.980
2020/01/31 18:44:13.3	74.690	-0.310	1.260	1.030
2020/01/31 18:44:13.4	74.700	-0.340	1.210	1.060
2020/01/31 18:44:13.5	74.700	-0.360	1.150	1.100
2020/01/31 18:44:13.6	74.710	-0.380	1.080	1.130
2020/01/31 18:44:13.7	74.720	-0.390	1.000	1.150
2020/01/31 18:44:13.8	74.730	-0.400	0.910	1.170
2020/01/31 18:44:13.9	74.750	-0.410	0.820	1.190
2020/01/31 18:44:14.0	74.770	-0.420	0.720	1.200
2020/01/31 18:44:14.1	74.790	-0.420	0.610	1.210
2020/01/31 18:44:14.2	74.810	-0.420	0.500	1.210
2020/01/31 18:44:14.3	74.840	-0.420	0.390	1.210
2020/01/31 18:44:14.4	74.860	-0.410	0.270	1.210
2020/01/31 18:44:14.5	74.890	-0.400	0.150	1.210
2020/01/31 18:44:14.6	74.920	-0.390	0.030	1.210
2020/01/31 18:44:14.7	74.940	-0.370	-0.090	1.210
2020/01/31 18:44:14.8	74.970	-0.360	-0.210	1.200
2020/01/31 18:44:14.9	75.000	-0.340	-0.320	1.190
2020/01/31 18:44:15.0	75.030	-0.320	-0.440	1.190
2020/01/31 18:44:15.1	75.050	-0.300	-0.550	1.180
2020/01/31 18:44:15.2	75.080	-0.280	-0.650	1.180
2020/01/31 18:44:15.3	75.100	-0.260	-0.750	1.170
2020/01/31 18:44:15.4	75.130	-0.230	-0.840	1.170
2020/01/31 18:44:15.5	75.150	-0.210	-0.930	1.160
2020/01/31 18:44:15.6	75.180	-0.190	-1.000	1.160
2020/01/31 18:44:15.7	75.200	-0.170	-1.070	1.150
2020/01/31 18:44:15.8	75.220	-0.140	-1.140	1.150
2020/01/31 18:44:15.9	75.240	-0.120	-1.190	1.150
2020/01/31 18:44:16.0	75.260	-0.100	-1.230	1.150
2020/01/31 18:44:16.1	75.270	-0.080	-1.260	1.160
2020/01/31 18:44:16.2	75.290	-0.060	-1.290	1.160
2020/01/31 18:44:16.3	75.300	-0.050	-1.300	1.170
2020/01/31 18:44:16.4	75.320	-0.030	-1.310	1.180
2020/01/31 18:44:16.5	75.330	-0.020	-1.310	1.190
2020/01/31 18:44:16.6	75.330	-0.010	-1.300	1.210
2020/01/31 18:44:16.7	75.340	-0.000	-1.280	1.220
2020/01/31 18:44:16.8	75.340	0.010	-1.250	1.240
2020/01/31 18:44:16.9	75.340	0.010	-1.210	1.270
2020/01/31 18:44:17.0	75.340	0.010	-1.170	1.290
2020/01/31 18:44:17.1	75.340	0.010	-1.130	1.320
2020/01/31 18:44:17.2	75.330	0.010	-1.070	1.350
2020/01/31 18:44:17.3	75.320	0.010	-1.010	1.380
2020/01/31 18:44:17.4	75.310	0.000	-0.950	1.410
2020/01/31 18:44:17.5	75.300	-0.010	-0.890	1.440
2020/01/31 18:44:17.6	75.290	-0.010	-0.820	1.470
2020/01/31 18:44:17.7	75.270	-0.030	-0.750	1.500
2020/01/31 18:44:17.8	75.260	-0.040	-0.670	1.530
2020/01/31 18:44:17.9	75.250	-0.050	-0.590	1.560
2020/01/31 18:44:18.0	75.230	-0.060	-0.520	1.580
2020/01/31 18:44:18.1	75.220	-0.080	-0.450	1.600
2020/01/31 18:44:18.2	75.200	-0.100	-0.370	1.620
2020/01/31 18:44:18.3	75.190	-0.110	-0.300	1.640
2020/01/31 18:44:18.4	75.180	-0.130	-0.230	1.650
2020/01/31 18:44:18.5	75.160	-0.140	-0.170	1.660
2020/01/31 18:44:18.6	75.150	-0.160	-0.100	1.670
2020/01/31 18:44:18.7	75.140	-0.180	-0.040	1.670
2020/01/31 18:44:18.8	75.130	-0.190	0.010	1.660
2020/01/31 18:44:18.9	75.130	-0.210	0.070	1.660
2020/01/31 18:44:19.0	75.120	-0.220	0.120	1.640
2020/01/31 18:44:19.1	75.120	-0.230	0.160	1.620
2020/01/31 18:44:19.2	75.110	-0.240	0.210	1.590
2020/01/31 18:44:19.3	75.110	-0.260	0.240	1.560
2020/01/31 18:44:19.4	75.110	-0.270	0.280	1.530
2020/01/31 18:44:19.5	75.120	-0.280	0.300	1.480
2020/01/31 18:44:19.6	75.120	-0.280	0.330	1.440
2020/01/31 18:44:19.7	75.120	-0.290	0.350	1.390
2020/01/31 18:44:19.8	75.130	-0.300	0.370	1.330
2020/01/31 18:44:19.9	75.140	-0.300	0.380	1.270
2020/01/31 18:44:20.0	75.140	-0.310	0.390	1.200
2020/01/31 18:44:20.1	75.150	-0.310	0.390	1.130
2020/01/31 18:44:20.2	75.150	-0.310	0.390	1.060
2020/01/31 18:44:20.3	75.160	-0.310	0.390	0.980
2020/01/31 18:44:20.4	75.160	-0.310	0.380	0.900
2020/01/31 18:44:20.5	75.170	-0.310	0.370	0.820
2020/01/31 18:44:20.6	75.170	-0.310	0.360	0.730
2020/01/31 18:44:20.7	75.180	-0.310	0.340	0.640
2020/01/31 18:44:20.8	75.170	-0.310	0.330	0.550
2020/01/31 18:44:20.9	75.180	-0.300	0.310	0.460
2020/01/31 18:44:21.0	75.180	-0.300	0.280	0.360
2020/01/31 18:44:21.1	75.180	-0.290	0.260	0.270
2020/01/31 18:44:21.2	75.190	-0.290	0.240	0.170
2020/01/31 18:44:21.3	75.190	-0.280	0.210	0.070
2020/01/31 18:44:21.4	75.190	-0.280	0.190	-0.030
2020/01/31 18:44:21.5	75.190	-0.270	0.160	-0.130
2020/01/31 18:44:21.6	75.190	-0.260	0.140	-0.220
2020/01/31 18:44:21.7	75.190	-0.250	0.110	-0.320
2020/01/31 18:44:21.8	75.200	-0.240	0.080	-0.420
2020/01/31 18:44:21.9	75.190	-0.230	0.060	-0.510
2020/01/31 18:44:22.0	75.190	-0.220	0.030	-0.600
2020/01/31 18:44:22.1	75.190	-0.210	0.010	-0.690
2020/01/31 18:44:22.2	75.190	-0.200	-0.020	-0.780
2020/01/31 18:44:22.3	75.190	-0.180	-0.040	-0.860
2020/01/31 18:44:22.4	75.180	-0.170	-0.060	-0.940
2020/01/31 18:44:22.5	75.180	-0.150	-0.090	-1.020
2020/01/31 18:44:22.6	75.180	-0.130	-0.110	-1.090
2020/01/31 18:44:22.7	75.170	-0.110	-0.130	-1.160
2020/01/31 18:44:22.8	75.150	-0.090	-0.150	-1.230
2020/01/31 18:44:22.9	75.150	-0.070	-0.170	-1.290
2020/01/31 18:44:23.0	75.140	-0.050	-0.190	-1.340
2020/01/31 18:44:23.1	75.140	-0.020	-0.210	-1.400
2020/01/31 18:44:23.2	75.140	0.010	-0.240	-1.450
2020/01/31 18:44:23.3	75.140	0.040	-0.260	-1.490
2020/01/31 18:44:23.4	75.140	0.070	-0.280	-1.540
2020/01/31 18:44:23.5	75.140	0.100	-0.310	-1.570
2020/01/31 18:44:23.6	75.140	0.130	-0.330	-1.610
2020/01/31 18:44:23.7	75.140	0.170	-0.350	-1.630
2020/01/31 18:44:23.8	75.130	0.200	-0.380	-1.660
2020/01/31 18:44:23.9	75.130	0.240	-0.410	-1.690
2020/01/31 18:44:24.0	75.140	0.280	-0.430	-1.700
2020/01/31 18:44:24.1	75.140	0.320	-0.460	-1.710
2020/01/31 18:44:24.2	75.140	0.360	-0.490	-1.720
2020/01/31 18:44:24.3	75.150	0.400	-0.520	-1.730
2020/01/31 18:44:24.4	75.150	0.440	-0.550	-1.730
2020/01/31 18:44:24.5	75.150	0.480	-0.580	-1.720
2020/01/31 18:44:24.6	75.160	0.520	-0.600	-1.710
2020/01/31 18:44:24.7	75.160	0.560	-0.630	-1.700
2020/01/31 18:44:24.8	75.160	0.590	-0.660	-1.670
2020/01/31 18:44:24.9	75.160	0.630	-0.680	-1.650
2020/01/31 18:44:25.0	75.170	0.660	-0.710	-1.630
2020/01/31 18:44:25.1	75.170	0.700	-0.730	-1.600
2020/01/31 18:44:25.2	75.170	0.730	-0.750	-1.570
2020/01/31 18:44:25.3	75.170	0.760	-0.770	-1.530
2020/01/31 18:44:25.4	75.180	0.780	-0.780	-1.490
2020/01/31 18:44:25.5	75.180	0.800	-0.790	-1.440
2020/01/31 18:44:25.6	75.180	0.820	-0.800	-1.390
2020/01/31 18:44:25.7	75.180	0.840	-0.810	-1.340
2020/01/31 18:44:25.8	75.170	0.850	-0.810	-1.280
2020/01/31 18:44:25.9	75.170	0.860	-0.810	-1.220
2020/01/31 18:44:26.0	75.170	0.860	-0.810	-1.160
2020/01/31 18:44:26.1	75.170	0.860	-0.800	-1.100
2020/01/31 18:44:26.2	75.160	0.860	-0.780	-1.030
2020/01/31 18:44:26.3	75.160	0.850	-0.760	-0.960
2020/01/31 18:44:26.4	75.160	0.840	-0.740	-0.880
2020/01/31 18:44:26.5	75.150	0.820	-0.720	-0.810
2020/01/31 18:44:26.6	75.150	0.800	-0.690	-0.730
2020/01/31 18:44:26.7	75.140	0.770	-0.650	-0.650
2020/01/31 18:44:26.8	75.150	0.740	-0.610	-0.560
2020/01/31 18:44:26.9	75.140	0.710	-0.570	-0.470
2020/01/31 18:44:27.0	75.140	0.670	-0.520	-0.390
2020/01/31 18:44:27.1	75.130	0.630	-0.470	-0.300
2020/01/31 18:44:27.2	75.120	0.580	-0.420	-0.210
2020/01/31 18:44:27.3	75.120	0.540	-0.370	-0.110
2020/01/31 18:44:27.4	75.110	0.490	-0.320	-0.020
2020/01/31 18:44:27.5	75.110	0.430	-0.260	0.080
2020/01/31 18:44:27.6	75.100	0.380	-0.200	0.170
2020/01/31 18:44:27.7	75.100	0.320	-0.140	0.270
2020/01/31 18:44:27.8	75.100	0.270	-0.090	0.360
2020/01/31 18:44:27.9	75.090	0.210	-0.030	0.460
2020/01/31 18:44:28.0	75.090	0.150	0.030	0.550
2020/01/31 18:44:28.1	75.090	0.090	0.080	0.640
2020/01/31 18:44:28.2	75.090	0.030	0.130	0.730
2020/01/31 18:44:28.3	75.090	-0.030	0.180	0.810
2020/01/31 18:44:28.4	75.100	-0.090	0.230	0.890
2020/01/31 18:44:28.5	75.100	-0.140	0.270	0.970
2020/01/31 18:44:28.6	75.110	-0.200	0.310	1.040
2020/01/31 18:44:28.7	75.120	-0.250	0.340	1.110
2020/01/31 18:44:28.8	75.130	-0.300	0.380	1.170
2020/01/31 18:44:28.9	75.150	-0.350	0.410	1.230
2020/01/31 18:44:29.0	75.160	-0.390	0.430	1.290
2020/01/31 18:44:29.1	75.180	-0.440	0.450	1.340
2020/01/31 18:44:29.2	75.200	-0.480	0.470	1.390
2020/01/31 18:44:29.3	75.220	-0.510	0.490	1.430
2020/01/31 18:44:29.4	75.250	-0.540	0.500	1.470
2020/01/31 18:44:29.5	75.270	-0.570	0.510	1.500
2020/01/31 18:44:29.6	75.290	-0.600	0.520	1.530
2020/01/31 18:44:29.7	75.310	-0.620	0.520	1.560
2020/01/31 18:44:29.8	75.340	-0.640	0.520	1.590
2020/01/31 18:44:29.9	75.360	-0.650	0.520	1.620
2020/01/31 18:44:30.0	75.380	-0.670	0.520	1.640
2020/01/31 18:44:30.1	75.400	-0.670	0.520	1.660
2020/01/31 18:44:30.2	75.420	-0.680	0.520	1.690
2020/01/31 18:44:30.3	75.440	-0.680	0.510	1.710
2020/01/31 18:44:30.4	75.460	-0.670	0.510	1.730
2020/01/31 18:44:30.5	75.470	-0.670	0.500	1.750
2020/01/31 18:44:30.6	75.480	-0.660	0.490	1.760
2020/01/31 18:44:30.7	75.490	-0.650	0.490	1.780
2020/01/31 18:44:30.8	75.510	-0.640	0.480	1.800
2020/01/31 18:44:30.9	75.520	-0.620	0.470	1.820
2020/01/31 18:44:31.0	75.520	-0.600	0.460	1.830
2020/01/31 18:44:31.1	75.530	-0.580	0.450	1.850
2020/01/31 18:44:31.2	75.530	-0.560	0.440	1.870
2020/01/31 18:44:31.3	75.530	-0.540	0.420	1.880
2020/01/31 18:44:31.4	75.530	-0.520	0.410	1.900
2020/01/31 18:44:31.5	75.530	-0.500	0.390	1.910
2020/01/31 18:44:31.6	75.520	-0.480	0.370	1.930
2020/01/31 18:44:31.7	75.520	-0.460	0.350	1.940
2020/01/31 18:44:31.8	75.530	-0.430	0.320	1.960
2020/01/31 18:44:31.9	75.520	-0.410	0.290	1.970
2020/01/31 18:44:32.0	75.520	-0.390	0.260	1.980
2020/01/31 18:44:32.1	75.510	-0.370	0.230	1.980
2020/01/31 18:44:32.2	75.500	-0.350	0.190	1.990
2020/01/31 18:44:32.3	75.500	-0.330	0.160	1.990
2020/01/31 18:44:32.4	75.490	-0.320	0.120	1.990
2020/01/31 18:44:32.5	75.480	-0.300	0.070	1.990
2020/01/31 18:44:32.6	75.480	-0.290	0.030	1.990
2020/01/31 18:44:32.7	75.470	-0.270	-0.020	1.980
2020/01/31 18:44:32.8	75.490	-0.260	-0.070	1.970
2020/01/31 18:44:32.9	75.480	-0.250	-0.120	1.960
2020/01/31 18:44:33.0	75.480	-0.240	-0.180	1.940
2020/01/31 18:44:33.1	75.480	-0.230	-0.240	1.920
2020/01/31 18:44:33.2	75.480	-0.220	-0.290	1.890
2020/01/31 18:44:33.3	75.480	-0.210	-0.350	1.860
2020/01/31 18:44:33.4	75.480	-0.200	-0.420	1.830
2020/01/31 18:44:33.5	75.490	-0.200	-0.480	1.790
2020/01/31 18:44:33.6	75.490	-0.190	-0.540	1.750
2020/01/31 18:44:33.7	75.500	-0.180	-0.600	1.710
2020/01/31 18:44:33.8	75.500	-0.170	-0.670	1.660
2020/01/31 18:44:33.9	75.510	-0.170	-0.730	1.610
2020/01/31 18:44:34.0	75.520	-0.160	-0.790	1.560
2020/01/31 18:44:34.1	75.530	-0.150	-0.850	1.500
2020/01/31 18:44:34.2	75.540	-0.140	-0.910	1.440
2020/01/31 18:44:34.3	75.550	-0.120	-0.970	1.390
2020/01/31 18:44:34.4	75.560	-0.110	-1.020	1.320
2020/01/31 18:44:34.5	75.580	-0.090	-1.070	1.260
2020/01/31 18:44:34.6	75.590	-0.080	-1.120	1.200
2020/01/31 18:44:34.7	75.600	-0.060	-1.160	1.130
2020/01/31 18:44:34.8	75.620	-0.040	-1.200	1.060
2020/01/31 18:44:34.9	75.630	-0.020	-1.230	1.000
2020/01/31 18:44:35.0	75.650	0.010	-1.260	0.930
2020/01/31 18:44:35.1	75.660	0.030	-1.290	0.870
2020/01/31 18:44:35.2	75.670	0.060	-1.310	0.800
2020/01/31 18:44:35.3	75.680	0.090	-1.320	0.740
2020/01/31 18:44:35.4	75.680	0.120	-1.330	0.680
2020/01/31 18:44:35.5	75.690	0.150	-1.330	0.610
2020/01/31 18:44:35.6	75.690	0.180	-1.320	0.550
2020/01/31 18:44:35.7	75.700	0.210	-1.300	0.490
2020/01/31 18:44:35.8	75.690	0.240	-1.280	0.440
2020/01/31 18:44:35.9	75.690	0.270	-1.260	0.380
2020/01/31 18:44:36.0	75.690	0.300	-1.220	0.330
2020/01/31 18:44:36.1	75.680	0.320	-1.180	0.270
2020/01/31 18:44:36.2	75.670	0.350	-1.140	0.220
2020/01/31 18:44:36.3	75.660	0.380	-1.080	0.170
2020/01/31 18:44:36.4	75.650	0.400	-1.030	0.120
2020/01/31 18:44:36.5	75.630	0.420	-0.960	0.070
2020/01/31 18:44:36.6	75.620	0.440	-0.900	0.020
2020/01/31 18:44:36.7	75.600	0.450	-0.820	-0.030
2020/01/31 18:44:36.8	75.580	0.470	-0.740	-0.080
2020/01/31 18:44:36.9	75.560	0.480	-0.670	-0.130
2020/01/31 18:44:37.0	75.540	0.480	-0.580	-0.170
2020/01/31 18:44:37.1	75.520	0.480	-0.500	-0.220
2020/01/31 18:44:37.2	75.490	0.480	-0.410	-0.270
2020/01/31 18:44:37.3	75.470	0.480	-0.330	-0.310
2020/01/31 18:44:37.4	75.440	0.470	-0.240	-0.360
2020/01/31 18:44:37.5	75.420	0.460	-0.150	-0.410
2020/01/31 18:44:37.6	75.400	0.440	-0.060	-0.450
2020/01/31 18:44:37.7	75.370	0.420	0.030	-0.500
2020/01/31 18:44:37.8	75.340	0.400	0.110	-0.540
2020/01/31 18:44:37.9	75.310	0.380	0.200	-0.590
2020/01/31 18:44:38.0	75.290	0.350	0.280	-0.630
2020/01/31 18:44:38.1	75.270	0.320	0.360	-0.680
2020/01/31 18:44:38.2	75.260	0.290	0.440	-0.720
2020/01/31 18:44:38.3	75.240	0.250	0.510	-0.770
2020/01/31 18:44:38.4	75.220	0.220	0.580	-0.810
2020/01/31 18:44:38.5	75.210	0.180	0.640	-0.860
2020/01/31 18:44:38.6	75.200	0.140	0.700	-0.900
2020/01/31 18:44:38.7	75.190	0.100	0.750	-0.940
2020/01/31 18:44:38.8	75.180	0.060	0.800	-0.980
2020/01/31 18:44:38.9	75.180	0.020	0.840	-1.020
2020/01/31 18:44:39.0	75.180	-0.010	0.880	-1.060
2020/01/31 18:44:39.1	75.180	-0.050	0.910	-1.090
2020/01/31 18:44:39.2	75.180	-0.090	0.930	-1.130
2020/01/31 18:44:39.3	75.190	-0.120	0.940	-1.160
2020/01/31 18:44:39.4	75.200	-0.150	0.950	-1.190
2020/01/31 18:44:39.5	75.220	-0.180	0.950	-1.230
2020/01/31 18:44:39.6	75.230	-0.210	0.940	-1.250
2020/01/31 18:44:39.7	75.250	-0.230	0.930	-1.280
2020/01/31 18:44:39.8	75.270	-0.250	0.910	-1.310
2020/01/31 18:44:39.9	75.290	-0.270	0.890	-1.330
2020/01/31 18:44:40.0	75.320	-0.280	0.860	-1.350
2020/01/31 18:44:40.1	75.350	-0.290	0.820	-1.370
2020/01/31 18:44:40.2	75.380	-0.300	0.780	-1.390
2020/01/31 18:44:40.3	75.410	-0.300	0.730	-1.410
2020/01/31 18:44:40.4	75.440	-0.300	0.680	-1.420
2020/01/31 18:44:40.5	75.470	-0.290	0.630	-1.430
2020/01/31 18:44:40.6	75.500	-0.280	0.570	-1.440
2020/01/31 18:44:40.7	75.530	-0.260	0.510	-1.450
2020/01/31 18:44:40.8	75.560	-0.240	0.440	-1.450
2020/01/31 18:44:40.9	75.590	-0.220	0.370	-1.450
2020/01/31 18:44:41.0	75.620	-0.200	0.300	-1.450
2020/01/31 18:44:41.1	75.650	-0.170	0.230	-1.440
2020/01/31 18:44:41.2	75.670	-0.130	0.150	-1.420
2020/01/31 18:44:41.3	75.690	-0.100	0.080	-1.410
2020/01/31 18:44:41.4	75.720	-0.060	0.000	-1.380
2020/01/31 18:44:41.5	75.730	-0.020	-0.070	-1.360
2020/01/31 18:44:41.6	75.750	0.020	-0.150	-1.330
2020/01/31 18:44:41.7	75.760	0.060	-0.220	-1.290
2020/01/31 18:44:41.8	75.770	0.100	-0.300	-1.240
2020/01/31 18:44:41.9	75.770	0.150	-0.360	-1.200
2020/01/31 18:44:42.0	75.780	0.190	-0.430	-1.150
2020/01/31 18:44:42.1	75.780	0.230	-0.490	-1.090
2020/01/31 18:44:42.2	75.790	0.270	-0.550	-1.030
2020/01/31 18:44:42.3	75.790	0.310	-0.610	-0.970
2020/01/31 18:44:42.4	75.780	0.350	-0.660	-0.900
2020/01/31 18:44:42.5	75.780	0.380	-0.710	-0.830
2020/01/31 18:44:42.6	75.770	0.410	-0.750	-0.750
2020/01/31 18:44:42.7	75.770	0.440	-0.790	-0.670
2020/01/31 18:44:42.8	75.750	0.470	-0.820	-0.590
2020/01/31 18:44:42.9	75.750	0.490	-0.850	-0.500
2020/01/31 18:44:43.0	75.740	0.510	-0.880	-0.400
2020/01/31 18:44:43.1	75.730	0.520	-0.900	-0.310
2020/01/31 18:44:43.2	75.720	0.530	-0.910	-0.210
2020/01/31 18:44:43.3	75.710	0.540	-0.930	-0.110
2020/01/31 18:44:43.4	75.700	0.540	-0.930	0.000
2020/01/31 18:44:43.5	75.680	0.530	-0.940	0.110
2020/01/31 18:44:43.6	75.680	0.530	-0.930	0.220
2020/01/31 18:44:43.7	75.670	0.510	-0.930	0.330
2020/01/31 18:44:43.8	75.660	0.500	-0.920	0.450
2020/01/31 18:44:43.9	75.660	0.480	-0.900	0.560
2020/01/31 18:44:44.0	75.650	0.450	-0.890	0.680
2020/01/31 18:44:44.1	75.640	0.430	-0.860	0.800
2020/01/31 18:44:44.2	75.640	0.390	-0.840	0.910
2020/01/31 18:44:44.3	75.630	0.360	-0.810	1.020
2020/01/31 18:44:44.4	75.630	0.320	-0.780	1.140
2020/01/31 18:44:44.5	75.630	0.280	-0.750	1.250
2020/01/31 18:44:44.6	75.630	0.240	-0.710	1.360
2020/01/31 18:44:44.7	75.630	0.190	-0.670	1.460
2020/01/31 18:44:44.8	75.650	0.140	-0.640	1.560
2020/01/31 18:44:44.9	75.650	0.100	-0.600	1.660
2020/01/31 18:44:45.0	75.660	0.050	-0.550	1.750
2020/01/31 18:44:45.1	75.670	0.000	-0.510	1.840
2020/01/31 18:44:45.2	75.680	-0.050	-0.470	1.920
2020/01/31 18:44:45.3	75.690	-0.090	-0.430	2.000
2020/01/31 18:44:45.4	75.700	-0.140	-0.390	2.070
2020/01/31 18:44:45.5	75.720	-0.190	-0.350	2.140
2020/01/31 18:44:45.6	75.730	-0.230	-0.310	2.200
2020/01/31 18:44:45.7	75.750	-0.270	-0.270	2.250
2020/01/31 18:44:45.8	75.780	-0.310	-0.230	2.310
2020/01/31 18:44:45.9	75.800	-0.350	-0.190	2.350
2020/01/31 18:44:46.0	75.820	-0.380	-0.160	2.390
2020/01/31 18:44:46.1	75.830	-0.410	-0.120	2.430
2020/01/31 18:44:46.2	75.850	-0.430	-0.090	2.460
2020/01/31 18:44:46.3	75.870	-0.460	-0.060	2.480
2020/01/31 18:44:46.4	75.890	-0.480	-0.030	2.500
2020/01/31 18:44:46.5	75.900	-0.490	0.000	2.520
2020/01/31 18:44:46.6	75.920	-0.500	0.030	2.530
2020/01/31 18:44:46.7	75.930	-0.510	0.060	2.540
2020/01/31 18:44:46.8	75.960	-0.520	0.080	2.550
2020/01/31 18:44:46.9	75.970	-0.520	0.100	2.550
2020/01/31 18:44:47.0	75.980	-0.520	0.120	2.540
2020/01/31 18:44:47.1	75.990	-0.520	0.150	2.540
2020/01/31 18:44:47.2	76.000	-0.520	0.170	2.530
2020/01/31 18:44:47.3	76.010	-0.510	0.190	2.520
2020/01/31 18:44:47.4	76.020	-0.500	0.210	2.500
2020/01/31 18:44:47.5	76.020	-0.490	0.220	2.480
2020/01/31 18:44:47.6	76.020	-0.470	0.240	2.460
2020/01/31 18:44:47.7	76.030	-0.460	0.250	2.440
2020/01/31 18:44:47.8	76.030	-0.440	0.270	2.410
2020/01/31 18:44:47.9	76.030	-0.430	0.280	2.390
2020/01/31 18:44:48.0	76.030	-0.410	0.290	2.360
2020/01/31 18:44:48.1	76.020	-0.390	0.290	2.320
2020/01/31 18:44:48.2	76.020	-0.370	0.300	2.290
2020/01/31 18:44:48.3	76.010	-0.350	0.300	2.250
2020/01/31 18:44:48.4	76.010	-0.330	0.310	2.210
2020/01/31 18:44:48.5	76.000	-0.310	0.310	2.170
2020/01/31 18:44:48.6	76.000	-0.300	0.310	2.130
2020/01/31 18:44:48.7	75.990	-0.280	0.300	2.080
2020/01/31 18:44:48.8	75.980	-0.260	0.300	2.030
2020/01/31 18:44:48.9	75.970	-0.250	0.290	1.980
2020/01/31 18:44:49.0	75.960	-0.230	0.280	1.920
2020/01/31 18:44:49.1	75.960	-0.220	0.270	1.860
2020/01/31 18:44:49.2	75.950	-0.200	0.260	1.800
2020/01/31 18:44:49.3	75.940	-0.190	0.240	1.730
2020/01/31 18:44:49.4	75.930	-0.180	0.230	1.660
2020/01/31 18:44:49.5	75.930	-0.170	0.210	1.590
2020/01/31 18:44:49.6	75.920	-0.160	0.190	1.520
2020/01/31 18:44:49.7	75.920	-0.160	0.170	1.440
2020/01/31 18:44:49.8	75.910	-0.150	0.150	1.350
2020/01/31 18:44:49.9	75.900	-0.150	0.130	1.270
2020/01/31 18:44:50.0	75.900	-0.140	0.100	1.180
2020/01/31 18:44:50.1	75.900	-0.140	0.070	1.080
2020/01/31 18:44:50.2	75.900	-0.140	0.040	0.990
2020/01/31 18:44:50.3	75.900	-0.130	0.010	0.890
2020/01/31 18:44:50.4	75.900	-0.130	-0.020	0.780
2020/01/31 18:44:50.5	75.910	-0.130	-0.050	0.680
2020/01/31 18:44:50.6	75.910	-0.130	-0.080	0.570
2020/01/31 18:44:50.7	75.910	-0.120	-0.120	0.460
2020/01/31 18:44:50.8	75.920	-0.120	-0.150	0.350
2020/01/31 18:44:50.9	75.920	-0.120	-0.190	0.240
2020/01/31 18:44:51.0	75.930	-0.120	-0.220	0.120
2020/01/31 18:44:51.1	75.940	-0.110	-0.250	0.010
2020/01/31 18:44:51.2	75.950	-0.110	-0.290	-0.100
2020/01/31 18:44:51.3	75.960	-0.100	-0.320	-0.220
2020/01/31 18:44:51.4	75.970	-0.090	-0.350	-0.330
2020/01/31 18:44:51.5	75.980	-0.090	-0.380	-0.440
2020/01/31 18:44:51.6	75.990	-0.080	-0.410	-0.550
2020/01/31 18:44:51.7	76.000	-0.070	-0.430	-0.650
2020/01/31 18:44:51.8	75.990	-0.060	-0.460	-0.760
2020/01/31 18:44:51.9	76.000	-0.040	-0.480	-0.860
2020/01/31 18:44:52.0	76.010	-0.030	-0.500	-0.950
2020/01/31 18:44:52.1	76.020	-0.020	-0.520	-1.050
2020/01/31 18:44:52.2	76.030	-0.000	-0.540	-1.130
2020/01/31 18:44:52.3	76.030	0.010	-0.550	-1.220
2020/01/31 18:44:52.4	76.040	0.030	-0.570	-1.300
2020/01/31 18:44:52.5	76.040	0.050	-0.580	-1.370
2020/01/31 18:44:52.6	76.050	0.060	-0.590	-1.450
2020/01/31 18:44:52.7	76.050	0.080	-0.600	-1.510
2020/01/31 18:44:52.8	76.060	0.100	-0.610	-1.580
2020/01/31 18:44:52.9	76.070	0.120	-0.620	-1.640
2020/01/31 18:44:53.0	76.070	0.140	-0.630	-1.690
2020/01/31 18:44:53.1	76.080	0.160	-0.630	-1.740
2020/01/31 18:44:53.2	76.080	0.180	-0.630	-1.790
2020/01/31 18:44:53.3	76.090	0.200	-0.630	-1.830
2020/01/31 18:44:53.4	76.100	0.210	-0.630	-1.870
2020/01/31 18:44:53.5	76.100	0.230	-0.630	-1.900
2020/01/31 18:44:53.6	76.110	0.250	-0.630	-1.930
2020/01/31 18:44:53.7	76.120	0.270	-0.620	-1.960
2020/01/31 18:44:53.8	76.130	0.280	-0.620	-1.980
2020/01/31 18:44:53.9	76.140	0.300	-0.610	-2.000
2020/01/31 18:44:54.0	76.150	0.320	-0.610	-2.020
2020/01/31 18:44:54.1	76.150	0.330	-0.600	-2.030
2020/01/31 18:44:54.2	76.160	0.340	-0.590	-2.040
2020/01/31 18:44:54.3	76.170	0.360	-0.580	-2.040
2020/01/31 18:44:54.4	76.170	0.370	-0.560	-2.030
2020/01/31 18:44:54.5	76.180	0.380	-0.550	-2.030
2020/01/31 18:44:54.6	76.190	0.380	-0.530	-2.010
2020/01/31 18:44:54.7	76.190	0.390	-0.510	-2.000
2020/01/31 18:44:54.8	76.190	0.400	-0.490	-1.970
2020/01/31 18:44:54.9	76.190	0.400	-0.470	-1.950
2020/01/31 18:44:55.0	76.190	0.400	-0.440	-1.910
2020/01/31 18:44:55.1	76.190	0.400	-0.420	-1.870
2020/01/31 18:44:55.2	76.190	0.400	-0.390	-1.830
2020/01/31 18:44:55.3	76.190	0.400	-0.360	-1.780
2020/01/31 18:44:55.4	76.180	0.400	-0.320	-1.730
2020/01/31 18:44:55.5	76.170	0.390	-0.290	-1.670
2020/01/31 18:44:55.6	76.160	0.380	-0.250	-1.610
2020/01/31 18:44:55.7	76.150	0.370	-0.210	-1.540
2020/01/31 18:44:55.8	76.150	0.370	-0.170	-1.460
2020/01/31 18:44:55.9	76.130	0.350	-0.130	-1.380
2020/01/31 18:44:56.0	76.120	0.340	-0.080	-1.300
2020/01/31 18:44:56.1	76.100	0.330	-0.040	-1.220
2020/01/31 18:44:56.2	76.080	0.320	0.000	-1.130
2020/01/31 18:44:56.3	76.070	0.300	0.050	-1.040
2020/01/31 18:44:56.4	76.050	0.280	0.090	-0.940
2020/01/31 18:44:56.5	76.030	0.270	0.130	-0.850
2020/01/31 18:44:56.6	76.010	0.250	0.170	-0.750
2020/01/31 18:44:56.7	75.990	0.230	0.210	-0.650
2020/01/31 18:44:56.8	75.960	0.220	0.240	-0.540
2020/01/31 18:44:56.9	75.940	0.200	0.270	-0.440
2020/01/31 18:44:57.0	75.920	0.180	0.300	-0.340
2020/01/31 18:44:57.1	75.910	0.160	0.320	-0.230
2020/01/31 18:44:57.2	75.890	0.140	0.340	-0.130
2020/01/31 18:44:57.3	75.870	0.120	0.350	-0.020
2020/01/31 18:44:57.4	75.860	0.110	0.360	0.080
2020/01/31 18:44:57.5	75.850	0.090	0.360	0.180
2020/01/31 18:44:57.6	75.840	0.070	0.360	0.290
2020/01/31 18:44:57.7	75.830	0.060	0.350	0.390
2020/01/31 18:44:57.8	75.830	0.040	0.340	0.490
2020/01/31 18:44:57.9	75.820	0.020	0.330	0.590
2020/01/31 18:44:58.0	75.820	0.010	0.310	0.680
2020/01/31 18:44:58.1	75.820	-0.000	0.280	0.780
2020/01/31 18:44:58.2	75.830	-0.020	0.260	0.870
2020/01/31 18:44:58.3	75.830	-0.030	0.220	0.960
2020/01/31 18:44:58.4	75.840	-0.040	0.190	1.040
2020/01/31 18:44:58.5	75.850	-0.050	0.150	1.130
2020/01/31 18:44:58.6	75.870	-0.060	0.110	1.210
2020/01/31 18:44:58.7	75.880	-0.070	0.070	1.280
2020/01/31 18:44:58.8	75.900	-0.070	0.030	1.360
2020/01/31 18:44:58.9	75.920	-0.080	-0.020	1.430
2020/01/31 18:44:59.0	75.940	-0.080	-0.060	1.500
2020/01/31 18:44:59.1	75.970	-0.090	-0.110	1.560
2020/01/31 18:44:59.2	75.990	-0.090	-0.150	1.620
2020/01/31 18:44:59.3	76.020	-0.090	-0.200	1.680
2020/01/31 18:44:59.4	76.050	-0.090	-0.250	1.730
2020/01/31 18:44:59.5	76.080	-0.090	-0.290	1.780
2020/01/31 18:44:59.6	76.110	-0.090	-0.340	1.830
2020/01/31 18:44:59.7	76.140	-0.080	-0.380	1.880
2020/01/31 18:44:59.8	76.190	-0.080	-0.420	1.920
2020/01/31 18:44:59.9	76.220	-0.070	-0.460	1.960
2020/01/31 18:45:00.0	76.250	-0.070	-0.490	1.990
2020/01/31 18:45:00.1	76.280	-0.060	-0.530	2.020
2020/01/31 18:45:00.2	76.310	-0.050	-0.560	2.050
2020/01/31 18:45:00.3	76.340	-0.040	-0.580	2.080
2020/01/31 18:45:00.4	76.370	-0.040	-0.600	2.110
2020/01/31 18:45:00.5	76.390	-0.030	-0.620	2.130
2020/01/31 18:45:00.6	76.420	-0.020	-0.630	2.150
2020/01/31 18:45:00.7	76.440	-0.020	-0.640	2.170
2020/01/31 18:45:00.8	76.460	-0.010	-0.650	2.180
2020/01/31 18:45:00.9	76.480	-0.010	-0.650	2.190
2020/01/31 18:45:01.0	76.500	-0.000	-0.640	2.200
2020/01/31 18:45:01.1	76.510	-0.000	-0.630	2.210
2020/01/31 18:45:01.2	76.520	-0.000	-0.610	2.220
2020/01/31 18:45:01.3	76.530	-0.000	-0.590	2.230
2020/01/31 18:45:01.4	76.540	-0.010	-0.560	2.230
2020/01/31 18:45:01.5	76.550	-0.010	-0.530	2.240
2020/01/31 18:45:01.6	76.550	-0.020	-0.490	2.240
2020/01/31 18:45:01.7	76.550	-0.030	-0.450	2.240
2020/01/31 18:45:01.8	76.560	-0.040	-0.410	2.240
2020/01/31 18:45:01.9	76.560	-0.060	-0.360	2.230
2020/01/31 18:45:02.0	76.550	-0.070	-0.310	2.230
2020/01/31 18:45:02.1	76.550	-0.090	-0.260	2.220
2020/01/31 18:45:02.2	76.540	-0.110	-0.210	2.210
2020/01/31 18:45:02.3	76.530	-0.130	-0.150	2.200
2020/01/31 18:45:02.4	76.520	-0.150	-0.100	2.190
2020/01/31 18:45:02.5	76.510	-0.180	-0.040	2.170
2020/01/31 18:45:02.6	76.500	-0.200	0.010	2.160
2020/01/31 18:45:02.7	76.490	-0.220	0.060	2.140
2020/01/31 18:45:02.8	76.480	-0.250	0.120	2.110
2020/01/31 18:45:02.9	76.470	-0.270	0.160	2.090
2020/01/31 18:45:03.0	76.460	-0.300	0.210	2.060
2020/01/31 18:45:03.1	76.440	-0.320	0.250	2.030
2020/01/31 18:45:03.2	76.430	-0.340	0.280	1.990
2020/01/31 18:45:03.3	76.420	-0.360	0.310	1.960
2020/01/31 18:45:03.4	76.410	-0.380	0.340	1.920
2020/01/31 18:45:03.5	76.400	-0.390	0.360	1.880
2020/01/31 18:45:03.6	76.400	-0.410	0.370	1.830
2020/01/31 18:45:03.7	76.390	-0.420	0.380	1.780
2020/01/31 18:45:03.8	76.380	-0.430	0.380	1.730
2020/01/31 18:45:03.9	76.380	-0.430	0.380	1.680
2020/01/31 18:45:04.0	76.370	-0.430	0.380	1.620
2020/01/31 18:45:04.1	76.370	-0.430	0.360	1.560
2020/01/31 18:45:04.2	76.360	-0.430	0.350	1.500
2020/01/31 18:45:04.3	76.360	-0.430	0.330	1.430
2020/01/31 18:45:04.4	76.360	-0.420	0.300	1.360
2020/01/31 18:45:04.5	76.350	-0.410	0.280	1.290
2020/01/31 18:45:04.6	76.350	-0.390	0.250	1.220
2020/01/31 18:45:04.7	76.340	-0.380	0.220	1.150
2020/01/31 18:45:04.8	76.350	-0.360	0.180	1.070
2020/01/31 18:45:04.9	76.340	-0.340	0.150	0.990
2020/01/31 18:45:05.0	76.340	-0.320	0.110	0.910
2020/01/31 18:45:05.1	76.330	-0.300	0.080	0.830
2020/01/31 18:45:05.2	76.320	-0.280	0.040	0.750
2020/01/31 18:45:05.3	76.320	-0.260	0.010	0.660
2020/01/31 18:45:05.4	76.310	-0.240	-0.030	0.570
2020/01/31 18:45:05.5	76.300	-0.210	-0.060	0.480
2020/01/31 18:45:05.6	76.290	-0.190	-0.090	0.390
2020/01/31 18:45:05.7	76.280	-0.170	-0.120	0.300
2020/01/31 18:45:05.8	76.270	-0.150	-0.150	0.210
2020/01/31 18:45:05.9	76.260	-0.130	-0.170	0.110
2020/01/31 18:45:06.0	76.250	-0.120	-0.190	0.020
2020/01/31 18:45:06.1	76.240	-0.100	-0.210	-0.080
2020/01/31 18:45:06.2	76.220	-0.090	-0.220	-0.180
2020/01/31 18:45:06.3	76.210	-0.080	-0.230	-0.270
2020/01/31 18:45:06.4	76.200	-0.070	-0.240	-0.370
2020/01/31 18:45:06.5	76.180	-0.060	-0.250	-0.470
2020/01/31 18:45:06.6	76.170	-0.050	-0.250	-0.560
2020/01/31 18:45:06.7	76.150	-0.050	-0.250	-0.650
2020/01/31 18:45:06.8	76.140	-0.040	-0.250	-0.750
2020/01/31 18:45:06.9	76.120	-0.040	-0.250	-0.840
2020/01/31 18:45:07.0	76.110	-0.050	-0.240	-0.930
2020/01/31 18:45:07.1	76.090	-0.050	-0.240	-1.010
2020/01/31 18:45:07.2	76.080	-0.050	-0.230	-1.100
2020/01/31 18:45:07.3	76.060	-0.060	-0.230	-1.180
2020/01/31 18:45:07.4	76.050	-0.070	-0.220	-1.250
2020/01/31 18:45:07.5	76.030	-0.070	-0.220	-1.330
2020/01/31 18:45:07.6	76.020	-0.080	-0.220	-1.400
2020/01/31 18:45:07.7	76.010	-0.090	-0.220	-1.470
2020/01/31 18:45:07.8	76.000	-0.100	-0.220	-1.530
2020/01/31 18:45:07.9	75.990	-0.110	-0.230	-1.590
2020/01/31 18:45:08.0	75.990	-0.120	-0.240	-1.650
2020/01/31 18:45:08.1	75.980	-0.120	-0.250	-1.710
2020/01/31 18:45:08.2	75.980	-0.130	-0.270	-1.760
2020/01/31 18:45:08.3	75.980	-0.130	-0.290	-1.810
2020/01/31 18:45:08.4	75.980	-0.130	-0.310	-1.850
2020/01/31 18:45:08.5	75.990	-0.130	-0.340	-1.890
2020/01/31 18:45:08.6	76.000	-0.130	-0.370	-1.930
2020/01/31 18:45:08.7	76.000	-0.130	-0.400	-1.960
2020/01/31 18:45:08.8	76.010	-0.120	-0.450	-1.990
2020/01/31 18:45:08.9	76.020	-0.110	-0.490	-2.010
2020/01/31 18:45:09.0	76.030	-0.100	-0.530	-2.030
2020/01/31 18:45:09.1	76.050	-0.080	-0.580	-2.040
2020/01/31 18:45:09.2	76.070	-0.060	-0.630	-2.050
2020/01/31 18:45:09.3	76.090	-0.040	-0.680	-2.050
2020/01/31 18:45:09.4	76.100	-0.020	-0.730	-2.050
2020/01/31 18:45:09.5	76.120	0.010	-0.780	-2.040
2020/01/31 18:45:09.6	76.140	0.040	-0.820	-2.020
2020/01/31 18:45:09.7	76.160	0.070	-0.870	-2.000
2020/01/31 18:45:09.8	76.170	0.110	-0.920	-1.970
2020/01/31 18:45:09.9	76.190	0.140	-0.960	-1.940
2020/01/31 18:45:10.0	76.210	0.180	-1.000	-1.900
2020/01/31 18:45:10.1	76.220	0.220	-1.030	-1.860
2020/01/31 18:45:10.2	76.230	0.260	-1.060	-1.810
2020/01/31 18:45:10.3	76.250	0.300	-1.080	-1.760
2020/01/31 18:45:10.4	76.260	0.340	-1.100	-1.700
2020/01/31 18:45:10.5	76.260	0.380	-1.110	-1.630
2020/01/31 18:45:10.6	76.270	0.420	-1.120	-1.560
2020/01/31 18:45:10.7	76.270	0.460	-1.120	-1.480
2020/01/31 18:45:10.8	76.270	0.500	-1.110	-1.400
2020/01/31 18:45:10.9	76.270	0.540	-1.100	-1.320
2020/01/31 18:45:11.0	76.260	0.570	-1.080	-1.230
2020/01/31 18:45:11.1	76.260	0.600	-1.050	-1.140
2020/01/31 18:45:11.2	76.250	0.630	-1.020	-1.050
2020/01/31 18:45:11.3	76.240	0.660	-0.980	-0.950
2020/01/31 18:45:11.4	76.230	0.680	-0.930	-0.860
2020/01/31 18:45:11.5	76.220	0.700	-0.870	-0.760
2020/01/31 18:45:11.6	76.200	0.710	-0.810	-0.670
2020/01/31 18:45:11.7	76.190	0.720	-0.750	-0.580
2020/01/31 18:45:11.8	76.170	0.730	-0.680	-0.480
2020/01/31 18:45:11.9	76.160	0.730	-0.610	-0.380
2020/01/31 18:45:12.0	76.140	0.730	-0.530	-0.290
2020/01/31 18:45:12.1	76.130	0.720	-0.450	-0.200
2020/01/31 18:45:12.2	76.120	0.710	-0.360	-0.110
2020/01/31 18:45:12.3	76.100	0.700	-0.270	-0.030
2020/01/31 18:45:12.4	76.090	0.680	-0.180	0.060
2020/01/31 18:45:12.5	76.070	0.650	-0.100	0.140
2020/01/31 18:45:12.6	76.060	0.620	-0.000	0.220
2020/01/31 18:45:12.7	76.050	0.590	0.090	0.300
2020/01/31 18:45:12.8	76.040	0.560	0.180	0.380
2020/01/31 18:45:12.9	76.030	0.520	0.270	0.450
2020/01/31 18:45:13.0	76.020	0.480	0.360	0.530
2020/01/31 18:45:13.1	76.000	0.430	0.440	0.600
2020/01/31 18:45:13.2	75.990	0.390	0.530	0.670
2020/01/31 18:45:13.3	75.980	0.340	0.600	0.740
2020/01/31 18:45:13.4	75.970	0.290	0.680	0.810
2020/01/31 18:45:13.5	75.960	0.240	0.750	0.880
2020/01/31 18:45:13.6	75.940	0.190	0.820	0.950
2020/01/31 18:45:13.7	75.930	0.140	0.880	1.020
2020/01/31 18:45:13.8	75.920	0.090	0.940	1.090
2020/01/31 18:45:13.9	75.900	0.040	0.990	1.150
2020/01/31 18:45:14.0	75.890	-0.010	1.040	1.220
2020/01/31 18:45:14.1	75.870	-0.060	1.080	1.280
2020/01/31 18:45:14.2	75.850	-0.110	1.120	1.350
2020/01/31 18:45:14.3	75.840	-0.160	1.150	1.410
2020/01/31 18:45:14.4	75.820	-0.200	1.170	1.470
2020/01/31 18:45:14.5	75.800	-0.250	1.190	1.530
2020/01/31 18:45:14.6	75.780	-0.290	1.200	1.590
2020/01/31 18:45:14.7	75.770	-0.330	1.200	1.650
2020/01/31 18:45:14.8	75.750	-0.360	1.200	1.710
2020/01/31 18:45:14.9	75.740	-0.390	1.190	1.760
2020/01/31 18:45:15.0	75.720	-0.420	1.170	1.800
2020/01/31 18:45:15.1	75.700	-0.450	1.150	1.850
2020/01/31 18:45:15.2	75.690	-0.470	1.120	1.890
2020/01/31 18:45:15.3	75.670	-0.490	1.080	1.920
2020/01/31 18:45:15.4	75.660	-0.510	1.040	1.960
2020/01/31 18:45:15.5	75.640	-0.530	0.980	1.980
2020/01/31 18:45:15.6	75.630	-0.540	0.930	2.010
2020/01/31 18:45:15.7	75.620	-0.540	0.860	2.030
2020/01/31 18:45:15.8	75.610	-0.550	0.790	2.050
2020/01/31 18:45:15.9	75.600	-0.550	0.710	2.060
2020/01/31 18:45:16.0	75.600	-0.540	0.630	2.070
2020/01/31 18:45:16.1	75.590	-0.540	0.550	2.080
2020/01/31 18:45:16.2	75.580	-0.530	0.460	2.080
2020/01/31 18:45:16.3	75.580	-0.520	0.360	2.080
2020/01/31 18:45:16.4	75.580	-0.500	0.260	2.070
2020/01/31 18:45:16.5	75.590	-0.490	0.160	2.060
2020/01/31 18:45:16.6	75.590	-0.470	0.050	2.050
2020/01/31 18:45:16.7	75.600	-0.450	-0.050	2.030
2020/01/31 18:45:16.8	75.610	-0.420	-0.160	2.000
2020/01/31 18:45:16.9	75.630	-0.400	-0.280	1.970
2020/01/31 18:45:17.0	75.650	-0.370	-0.390	1.940
2020/01/31 18:45:17.1	75.670	-0.340	-0.500	1.900
2020/01/31 18:45:17.2	75.690	-0.310	-0.610	1.850
2020/01/31 18:45:17.3	75.720	-0.280	-0.720	1.800
2020/01/31 18:45:17.4	75.750	-0.250	-0.830	1.750
2020/01/31 18:45:17.5	75.790	-0.220	-0.940	1.690
2020/01/31 18:45:17.6	75.830	-0.190	-1.040	1.640
2020/01/31 18:45:17.7	75.870	-0.160	-1.140	1.570
2020/01/31 18:45:17.8	75.900	-0.130	-1.240	1.510
2020/01/31 18:45:17.9	75.950	-0.100	-1.330	1.440
2020/01/31 18:45:18.0	75.990	-0.070	-1.410	1.370
2020/01/31 18:45:18.1	76.030	-0.050	-1.490	1.300
2020/01/31 18:45:18.2	76.070	-0.020	-1.560	1.230
2020/01/31 18:45:18.3	76.110	0.000	-1.630	1.160
2020/01/31 18:45:18.4	76.150	0.020	-1.680	1.090
2020/01/31 18:45:18.5	76.180	0.050	-1.730	1.020
2020/01/31 18:45:18.6	76.220	0.060	-1.760	0.950
2020/01/31 18:45:18.7	76.250	0.080	-1.780	0.880
2020/01/31 18:45:18.8	76.270	0.090	-1.800	0.820
2020/01/31 18:45:18.9	76.290	0.100	-1.800	0.760
2020/01/31 18:45:19.0	76.310	0.110	-1.780	0.700
2020/01/31 18:45:19.1	76.330	0.120	-1.760	0.650
2020/01/31 18:45:19.2	76.350	0.120	-1.730	0.600
2020/01/31 18:45:19.3	76.360	0.120	-1.680	0.550
2020/01/31 18:45:19.4	76.370	0.120	-1.620	0.510
2020/01/31 18:45:19.5	76.370	0.120	-1.550	0.470
2020/01/31 18:45:19.6	76.370	0.110	-1.460	0.430
2020/01/31 18:45:19.7	76.370	0.100	-1.370	0.400
2020/01/31 18:45:19.8	76.360	0.090	-1.270	0.380
2020/01/31 18:45:19.9	76.350	0.070	-1.150	0.350
2020/01/31 18:45:20.0	76.330	0.060	-1.030	0.330
2020/01/31 18:45:20.1	76.310	0.040	-0.910	0.320
2020/01/31 18:45:20.2	76.290	0.020	-0.770	0.310
2020/01/31 18:45:20.3	76.260	-0.000	-0.640	0.300
2020/01/31 18:45:20.4	76.230	-0.030	-0.490	0.290
2020/01/31 18:45:20.5	76.200	-0.050	-0.350	0.290
2020/01/31 18:45:20.6	76.160	-0.080	-0.200	0.290
2020/01/31 18:45:20.7	76.120	-0.110	-0.050	0.290
2020/01/31 18:45:20.8	76.090	-0.140	0.100	0.300
2020/01/31 18:45:20.9	76.040	-0.160	0.240	0.300
2020/01/31 18:45:21.0	76.000	-0.190	0.380	0.310
2020/01/31 18:45:21.1	75.950	-0.220	0.520	0.320
2020/01/31 18:45:21.2	75.900	-0.250	0.650	0.330
2020/01/31 18:45:21.3	75.850	-0.280	0.780	0.330
2020/01/31 18:45:21.4	75.800	-0.310	0.900	0.340
2020/01/31 18:45:21.5	75.740	-0.330	1.010	0.350
2020/01/31 18:45:21.6	75.690	-0.360	1.110	0.350
2020/01/31 18:45:21.7	75.640	-0.380	1.200	0.360
2020/01/31 18:45:21.8	75.600	-0.410	1.270	0.360
2020/01/31 18:45:21.9	75.550	-0.430	1.340	0.360
2020/01/31 18:45:22.0	75.490	-0.450	1.400	0.360
2020/01/31 18:45:22.1	75.440	-0.460	1.450	0.350
2020/01/31 18:45:22.2	75.390	-0.480	1.490	0.350
2020/01/31 18:45:22.3	75.340	-0.490	1.510	0.330
2020/01/31 18:45:22.4	75.290	-0.500	1.520	0.320
2020/01/31 18:45:22.5	75.240	-0.500	1.510	0.300
2020/01/31 18:45:22.6	75.190	-0.510	1.500	0.270
2020/01/31 18:45:22.7	75.150	-0.500	1.470	0.240
2020/01/31 18:45:22.8	75.120	-0.500	1.430	0.210
2020/01/31 18:45:22.9	75.080	-0.490	1.380	0.180
2020/01/31 18:45:23.0	75.040	-0.480	1.310	0.130
2020/01/31 18:45:23.1	75.000	-0.460	1.230	0.090
2020/01/31 18:45:23.2	74.970	-0.440	1.140	0.040
2020/01/31 18:45:23.3	74.940	-0.420	1.040	-0.010
2020/01/31 18:45:23.4	74.920	-0.390	0.930	-0.070
2020/01/31 18:45:23.5	74.900	-0.360	0.810	-0.130
2020/01/31 18:45:23.6	74.880	-0.330	0.680	-0.200
2020/01/31 18:45:23.7	74.870	-0.290	0.550	-0.270
2020/01/31 18:45:23.8	74.840	-0.240	0.410	-0.340
2020/01/31 18:45:23.9	74.840	-0.200	0.260	-0.410
2020/01/31 18:45:24.0	74.840	-0.150	0.100	-0.490
2020/01/31 18:45:24.1	74.840	-0.090	-0.060	-0.570
2020/01/31 18:45:24.2	74.850	-0.040	-0.220	-0.660
2020/01/31 18:45:24.3	74.860	0.020	-0.390	-0.740
2020/01/31 18:45:24.4	74.880	0.080	-0.550	-0.830
2020/01/31 18:45:24.5	74.900	0.150	-0.720	-0.910
2020/01/31 18:45:24.6	74.930	0.210	-0.880	-1.000
2020/01/31 18:45:24.7	74.950	0.280	-1.040	-1.090
2020/01/31 18:45:24.8	74.960	0.340	-1.210	-1.180
2020/01/31 18:45:24.9	75.000	0.410	-1.360	-1.260
2020/01/31 18:45:25.0	75.030	0.480	-1.500	-1.340
2020/01/31 18:45:25.1	75.060	0.550	-1.640	-1.420
2020/01/31 18:45:25.2	75.100	0.610	-1.770	-1.490
2020/01/31 18:45:25.3	75.130	0.680	-1.890	-1.560
2020/01/31 18:45:25.4	75.160	0.740	-1.990	-1.630
2020/01/31 18:45:25.5	75.200	0.800	-2.090	-1.690
2020/01/31 18:45:25.6	75.230	0.860	-2.170	-1.740
2020/01/31 18:45:25.7	75.260	0.910	-2.240	-1.790
2020/01/31 18:45:25.8	75.290	0.960	-2.290	-1.820
2020/01/31 18:45:25.9	75.310	1.010	-2.320	-1.850
2020/01/31 18:45:26.0	75.340	1.050	-2.340	-1.880
2020/01/31 18:45:26.1	75.360	1.080	-2.350	-1.890
2020/01/31 18:45:26.2	75.380	1.110	-2.340	-1.900
2020/01/31 18:45:26.3	75.400	1.130	-2.310	-1.900
2020/01/31 18:45:26.4	75.410	1.150	-2.270	-1.890
2020/01/31 18:45:26.5	75.420	1.160	-2.210	-1.870
2020/01/31 18:45:26.6	75.430	1.160	-2.130	-1.850
2020/01/31 18:45:26.7	75.440	1.160	-2.040	-1.810
2020/01/31 18:45:26.8	75.440	1.140	-1.940	-1.770
2020/01/31 18:45:26.9	75.430	1.130	-1.820	-1.720
2020/01/31 18:45:27.0	75.430	1.100	-1.690	-1.660
2020/01/31 18:45:27.1	75.420	1.070	-1.550	-1.600
2020/01/31 18:45:27.2	75.410	1.030	-1.400	-1.530
2020/01/31 18:45:27.3	75.400	0.980	-1.240	-1.450
2020/01/31 18:45:27.4	75.390	0.930	-1.070	-1.360
2020/01/31 18:45:27.5	75.370	0.880	-0.890	-1.270
2020/01/31 18:45:27.6	75.350	0.810	-0.710	-1.170
2020/01/31 18:45:27.7	75.330	0.750	-0.520	-1.070
2020/01/31 18:45:27.8	75.310	0.670	-0.330	-0.950
2020/01/31 18:45:27.9	75.290	0.600	-0.140	-0.840
2020/01/31 18:45:28.0	75.260	0.520	0.050	-0.720
2020/01/31 18:45:28.1	75.230	0.440	0.240	-0.590
2020/01/31 18:45:28.2	75.200	0.360	0.420	-0.470
2020/01/31 18:45:28.3	75.170	0.270	0.600	-0.340
2020/01/31 18:45:28.4	75.140	0.180	0.770	-0.210
2020/01/31 18:45:28.5	75.110	0.100	0.940	-0.070
2020/01/31 18:45:28.6	75.080	0.010	1.100	0.060
2020/01/31 18:45:28.7	75.050	-0.080	1.250	0.190
2020/01/31 18:45:28.8	75.020	-0.160	1.390	0.330
2020/01/31 18:45:28.9	74.990	-0.250	1.520	0.460
2020/01/31 18:45:29.0	74.960	-0.330	1.630	0.580
2020/01/31 18:45:29.1	74.940	-0.400	1.740	0.710
2020/01/31 18:45:29.2	74.910	-0.480	1.830	0.830
2020/01/31 18:45:29.3	74.880	-0.550	1.900	0.950
2020/01/31 18:45:29.4	74.860	-0.620	1.970	1.060
2020/01/31 18:45:29.5	74.830	-0.680	2.020	1.170
2020/01/31 18:45:29.6	74.810	-0.740	2.050	1.280
2020/01/31 18:45:29.7	74.790	-0.790	2.070	1.380
2020/01/31 18:45:29.8	74.770	-0.830	2.080	1.470
2020/01/31 18:45:29.9	74.750	-0.870	2.070	1.560
2020/01/31 18:45:30.0	74.730	-0.910	2.050	1.650
2020/01/31 18:45:30.1	74.710	-0.940	2.020	1.730
2020/01/31 18:45:30.2	74.690	-0.960	1.970	1.810
2020/01/31 18:45:30.3	74.680	-0.980	1.910	1.890
2020/01/31 18:45:30.4	74.660	-0.990	1.840	1.960
2020/01/31 18:45:30.5	74.650	-1.000	1.760	2.020
2020/01/31 18:45:30.6	74.640	-1.000	1.670	2.090
2020/01/31 18:45:30.7	74.630	-0.990	1.570	2.150
2020/01/31 18:45:30.8	74.620	-0.990	1.460	2.210
2020/01/31 18:45:30.9	74.620	-0.970	1.340	2.250
2020/01/31 18:45:31.0	74.610	-0.950	1.220	2.300
2020/01/31 18:45:31.1	74.610	-0.930	1.090	2.340
2020/01/31 18:45:31.2	74.600	-0.900	0.950	2.380
2020/01/31 18:45:31.3	74.600	-0.870	0.810	2.410
2020/01/31 18:45:31.4	74.610	-0.830	0.670	2.440
2020/01/31 18:45:31.5	74.610	-0.800	0.520	2.460
2020/01/31 18:45:31.6	74.620	-0.760	0.370	2.480
2020/01/31 18:45:31.7	74.620	-0.710	0.220	2.500
2020/01/31 18:45:31.8	74.630	-0.670	0.070	2.510
2020/01/31 18:45:31.9	74.640	-0.620	-0.080	2.520
2020/01/31 18:45:32.0	74.650	-0.570	-0.230	2.520
2020/01/31 18:45:32.1	74.670	-0.530	-0.380	2.520
2020/01/31 18:45:32.2	74.690	-0.480	-0.520	2.510
2020/01/31 18:45:32.3	74.710	-0.430	-0.670	2.500
2020/01/31 18:45:32.4	74.730	-0.380	-0.800	2.480
2020/01/31 18:45:32.5	74.750	-0.330	-0.930	2.460
2020/01/31 18:45:32.6	74.770	-0.280	-1.060	2.440
2020/01/31 18:45:32.7	74.800	-0.230	-1.170	2.410
2020/01/31 18:45:32.8	74.820	-0.180	-1.280	2.380
2020/01/31 18:45:32.9	74.840	-0.130	-1.390	2.350
2020/01/31 18:45:33.0	74.870	-0.090	-1.480	2.310
2020/01/31 18:45:33.1	74.890	-0.040	-1.560	2.270
2020/01/31 18:45:33.2	74.910	-0.000	-1.630	2.230
2020/01/31 18:45:33.3	74.940	0.040	-1.700	2.190
2020/01/31 18:45:33.4	74.960	0.080	-1.750	2.150
2020/01/31 18:45:33.5	74.970	0.110	-1.790	2.100
2020/01/31 18:45:33.6	74.990	0.140	-1.820	2.060
2020/01/31 18:45:33.7	75.000	0.180	-1.840	2.010
2020/01/31 18:45:33.8	75.010	0.200	-1.850	1.960
2020/01/31 18:45:33.9	75.020	0.230	-1.850	1.910
2020/01/31 18:45:34.0	75.020	0.250	-1.840	1.860
2020/01/31 18:45:34.1	75.020	0.270	-1.810	1.810
2020/01/31 18:45:34.2	75.020	0.290	-1.780	1.760
2020/01/31 18:45:34.3	75.020	0.300	-1.740	1.710
2020/01/31 18:45:34.4	75.010	0.320	-1.690	1.660
2020/01/31 18:45:34.5	75.000	0.320	-1.640	1.610
2020/01/31 18:45:34.6	74.980	0.330	-1.570	1.560
2020/01/31 18:45:34.7	74.960	0.330	-1.500	1.510
2020/01/31 18:45:34.8	74.940	0.330	-1.420	1.460
2020/01/31 18:45:34.9	74.920	0.330	-1.330	1.410
2020/01/31 18:45:35.0	74.890	0.330	-1.240	1.360
2020/01/31 18:45:35.1	74.850	0.320	-1.150	1.310
2020/01/31 18:45:35.2	74.810	0.310	-1.050	1.270
2020/01/31 18:45:35.3	74.770	0.300	-0.950	1.220
2020/01/31 18:45:35.4	74.720	0.290	-0.850	1.180
2020/01/31 18:45:35.5	74.670	0.280	-0.740	1.130
2020/01/31 18:45:35.6	74.620	0.260	-0.640	1.090
2020/01/31 18:45:35.7	74.570	0.250	-0.530	1.050
2020/01/31 18:45:35.8	74.520	0.230	-0.430	1.010
2020/01/31 18:45:35.9	74.460	0.210	-0.330	0.970
2020/01/31 18:45:36.0	74.400	0.200	-0.230	0.930
2020/01/31 18:45:36.1	74.340	0.180	-0.130	0.890
2020/01/31 18:45:36.2	74.280	0.160	-0.040	0.850
2020/01/31 18:45:36.3	74.220	0.140	0.050	0.800
2020/01/31 18:45:36.4	74.150	0.130	0.130	0.760
2020/01/31 18:45:36.5	74.090	0.110	0.210	0.710
2020/01/31 18:45:36.6	74.040	0.090	0.280	0.660
2020/01/31 18:45:36.7	73.980	0.080	0.340	0.610
2020/01/31 18:45:36.8	73.920	0.060	0.400	0.550
2020/01/31 18:45:36.9	73.860	0.050	0.450	0.500
2020/01/31 18:45:37.0	73.810	0.040	0.490	0.440
2020/01/31 18:45:37.1	73.760	0.030	0.520	0.370
2020/01/31 18:45:37.2	73.720	0.030	0.550	0.300
2020/01/31 18:45:37.3	73.670	0.020	0.570	0.230
2020/01/31 18:45:37.4	73.630	0.020	0.580	0.160
2020/01/31 18:45:37.5	73.600	0.010	0.580	0.080
2020/01/31 18:45:37.6	73.560	0.010	0.580	-0.000
2020/01/31 18:45:37.7	73.530	0.020	0.570	-0.090
2020/01/31 18:45:37.8	73.520	0.020	0.550	-0.180
2020/01/31 18:45:37.9	73.490	0.030	0.520	-0.270
2020/01/31 18:45:38.0	73.480	0.030	0.490	-0.370
2020/01/31 18:45:38.1	73.460	0.040	0.450	-0.470
2020/01/31 18:45:38.2	73.450	0.050	0.410	-0.570
2020/01/31 18:45:38.3	73.440	0.070	0.370	-0.680
2020/01/31 18:45:38.4	73.440	0.080	0.320	-0.790
2020/01/31 18:45:38.5	73.440	0.100	0.260	-0.900
2020/01/31 18:45:38.6	73.440	0.110	0.210	-1.010
2020/01/31 18:45:38.7	73.440	0.130	0.150	-1.120
2020/01/31 18:45:38.8	73.450	0.150	0.090	-1.230
2020/01/31 18:45:38.9	73.460	0.170	0.030	-1.340
2020/01/31 18:45:39.0	73.470	0.190	-0.030	-1.440
2020/01/31 18:45:39.1	73.490	0.210	-0.090	-1.550
2020/01/31 18:45:39.2	73.500	0.230	-0.140	-1.650
2020/01/31 18:45:39.3	73.520	0.250	-0.200	-1.750
2020/01/31 18:45:39.4	73.540	0.270	-0.250	-1.850
2020/01/31 18:45:39.5	73.560	0.290	-0.300	-1.940
2020/01/31 18:45:39.6	73.580	0.310	-0.340	-2.020
2020/01/31 18:45:39.7	73.600	0.320	-0.380	-2.110
2020/01/31 18:45:39.8	73.630	0.340	-0.420	-2.170
2020/01/31 18:45:39.9	73.650	0.350	-0.450	-2.240
2020/01/31 18:45:40.0	73.670	0.360	-0.480	-2.310
2020/01/31 18:45:40.1	73.690	0.370	-0.500	-2.360
2020/01/31 18:45:40.2	73.710	0.380	-0.520	-2.410
2020/01/31 18:45:40.3	73.730	0.390	-0.530	-2.450
2020/01/31 18:45:40.4	73.750	0.390	-0.530	-2.480
2020/01/31 18:45:40.5	73.760	0.390	-0.530	-2.510
2020/01/31 18:45:40.6	73.780	0.390	-0.520	-2.530
2020/01/31 18:45:40.7	73.790	0.380	-0.510	-2.540
2020/01/31 18:45:40.8	73.800	0.380	-0.500	-2.540
2020/01/31 18:45:40.9	73.810	0.370	-0.470	-2.530
2020/01/31 18:45:41.0	73.820	0.350	-0.450	-2.520
2020/01/31 18:45:41.1	73.820	0.340	-0.410	-2.500
2020/01/31 18:45:41.2	73.820	0.320	-0.380	-2.470
2020/01/31 18:45:41.3	73.820	0.300	-0.340	-2.440
2020/01/31 18:45:41.4	73.820	0.280	-0.290	-2.390
2020/01/31 18:45:41.5	73.820	0.260	-0.250	-2.340
2020/01/31 18:45:41.6	73.810	0.230	-0.200	-2.280
2020/01/31 18:45:41.7	73.800	0.210	-0.150	-2.220
2020/01/31 18:45:41.8	73.790	0.180	-0.100	-2.140
2020/01/31 18:45:41.9	73.780	0.150	-0.050	-2.060
2020/01/31 18:45:42.0	73.760	0.120	0.000	-1.970
2020/01/31 18:45:42.1	73.750	0.090	0.050	-1.880
2020/01/31 18:45:42.2	73.730	0.070	0.100	-1.780
2020/01/31 18:45:42.3	73.710	0.040	0.140	-1.680
2020/01/31 18:45:42.4	73.690	0.010	0.190	-1.570
2020/01/31 18:45:42.5	73.670	-0.020	0.230	-1.460
2020/01/31 18:45:42.6	73.650	-0.040	0.260	-1.340
2020/01/31 18:45:42.7	73.630	-0.070	0.290	-1.220
2020/01/31 18:45:42.8	73.630	-0.090	0.310	-1.100
2020/01/31 18:45:42.9	73.610	-0.120	0.330	-0.970
2020/01/31 18:45:43.0	73.590	-0.140	0.340	-0.840
2020/01/31 18:45:43.1	73.570	-0.160	0.350	-0.720
2020/01/31 18:45:43.2	73.550	-0.180	0.350	-0.590
2020/01/31 18:45:43.3	73.540	-0.190	0.340	-0.450
2020/01/31 18:45:43.4	73.520	-0.210	0.330	-0.320
2020/01/31 18:45:43.5	73.510	-0.220	0.310	-0.190
2020/01/31 18:45:43.6	73.490	-0.230	0.290	-0.060
2020/01/31 18:45:43.7	73.480	-0.230	0.260	0.080
2020/01/31 18:45:43.8	73.460	-0.240	0.230	0.220
2020/01/31 18:45:43.9	73.450	-0.240	0.190	0.350
2020/01/31 18:45:44.0	73.440	-0.240	0.150	0.490
2020/01/31 18:45:44.1	73.420	-0.240	0.100	0.620
2020/01/31 18:45:44.2	73.410	-0.240	0.050	0.750
2020/01/31 18:45:44.3	73.400	-0.240	0.000	0.890
2020/01/31 18:45:44.4	73.390	-0.230	-0.050	1.020
2020/01/31 18:45:44.5	73.380	-0.230	-0.100	1.150
2020/01/31 18:45:44.6	73.370	-0.220	-0.150	1.270
2020/01/31 18:45:44.7	73.360	-0.210	-0.210	1.400
2020/01/31 18:45:44.8	73.360	-0.200	-0.260	1.530
2020/01/31 18:45:44.9	73.350	-0.190	-0.310	1.650
2020/01/31 18:45:45.0	73.340	-0.180	-0.360	1.770
2020/01/31 18:45:45.1	73.330	-0.170	-0.400	1.880
2020/01/31 18:45:45.2	73.320	-0.160	-0.450	1.990
2020/01/31 18:45:45.3	73.310	-0.150	-0.490	2.090
2020/01/31 18:45:45.4	73.310	-0.140	-0.520	2.190
2020/01/31 18:45:45.5	73.300	-0.130	-0.560	2.290
2020/01/31 18:45:45.6	73.290	-0.120	-0.580	2.380
2020/01/31 18:45:45.7	73.290	-0.110	-0.610	2.460
2020/01/31 18:45:45.8	73.280	-0.100	-0.620	2.540
2020/01/31 18:45:45.9	73.270	-0.100	-0.640	2.610
2020/01/31 18:45:46.0	73.270	-0.090	-0.640	2.670
2020/01/31 18:45:46.1	73.260	-0.090	-0.650	2.730
2020/01/31 18:45:46.2	73.260	-0.080	-0.640	2.780
2020/01/31 18:45:46.3	73.260	-0.080	-0.630	2.830
2020/01/31 18:45:46.4	73.260	-0.080	-0.620	2.860
2020/01/31 18:45:46.5	73.260	-0.080	-0.600	2.890
2020/01/31 18:45:46.6	73.260	-0.080	-0.580	2.920
2020/01/31 18:45:46.7	73.260	-0.080	-0.550	2.940
2020/01/31 18:45:46.8	73.250	-0.080	-0.510	2.950
2020/01/31 18:45:46.9	73.250	-0.090	-0.470	2.960
2020/01/31 18:45:47.0	73.250	-0.090	-0.430	2.960
2020/01/31 18:45:47.1	73.250	-0.100	-0.390	2.950
2020/01/31 18:45:47.2	73.250	-0.110	-0.340	2.940
2020/01/31 18:45:47.3	73.250	-0.120	-0.290	2.930
2020/01/31 18:45:47.4	73.250	-0.130	-0.230	2.910
2020/01/31 18:45:47.5	73.250	-0.140	-0.180	2.890
2020/01/31 18:45:47.6	73.240	-0.150	-0.120	2.870
2020/01/31 18:45:47.7	73.240	-0.160	-0.060	2.840
2020/01/31 18:45:47.8	73.220	-0.170	0.000	2.810
2020/01/31 18:45:47.9	73.210	-0.180	0.060	2.770
2020/01/31 18:45:48.0	73.200	-0.190	0.120	2.740
2020/01/31 18:45:48.1	73.190	-0.210	0.180	2.700
2020/01/31 18:45:48.2	73.170	-0.220	0.230	2.660
2020/01/31 18:45:48.3	73.160	-0.230	0.290	2.610
2020/01/31 18:45:48.4	73.140	-0.240	0.340	2.560
2020/01/31 18:45:48.5	73.120	-0.260	0.390	2.520
2020/01/31 18:45:48.6	73.100	-0.270	0.430	2.460
2020/01/31 18:45:48.7	73.080	-0.280	0.470	2.410
2020/01/31 18:45:48.8	73.060	-0.290	0.510	2.360
2020/01/31 18:45:48.9	73.030	-0.290	0.540	2.300
2020/01/31 18:45:49.0	73.010	-0.300	0.560	2.230
2020/01/31 18:45:49.1	72.990	-0.300	0.570	2.170
2020/01/31 18:45:49.2	72.970	-0.310	0.580	2.100
2020/01/31 18:45:49.3	72.950	-0.310	0.590	2.030
2020/01/31 18:45:49.4	72.920	-0.310	0.580	1.950
2020/01/31 18:45:49.5	72.900	-0.300	0.570	1.870
2020/01/31 18:45:49.6	72.890	-0.300	0.550	1.780
2020/01/31 18:45:49.7	72.870	-0.290	0.520	1.690
2020/01/31 18:45:49.8	72.850	-0.280	0.480	1.590
2020/01/31 18:45:49.9	72.840	-0.270	0.440	1.490
2020/01/31 18:45:50.0	72.830	-0.260	0.390	1.380
2020/01/31 18:45:50.1	72.820	-0.240	0.330	1.270
2020/01/31 18:45:50.2	72.810	-0.220	0.260	1.150
2020/01/31 18:45:50.3	72.810	-0.200	0.190	1.020
2020/01/31 18:45:50.4	72.810	-0.170	0.110	0.890
2020/01/31 18:45:50.5	72.810	-0.150	0.030	0.750
2020/01/31 18:45:50.6	72.820	-0.120	-0.050	0.610
2020/01/31 18:45:50.7	72.820	-0.090	-0.140	0.460
2020/01/31 18:45:50.8	72.830	-0.060	-0.240	0.300
2020/01/31 18:45:50.9	72.840	-0.030	-0.330	0.150
2020/01/31 18:45:51.0	72.860	0.010	-0.430	-0.010
2020/01/31 18:45:51.1	72.870	0.050	-0.520	-0.170
2020/01/31 18:45:51.2	72.890	0.080	-0.620	-0.330
2020/01/31 18:45:51.3	72.900	0.120	-0.710	-0.490
2020/01/31 18:45:51.4	72.920	0.160	-0.800	-0.650
2020/01/31 18:45:51.5	72.930	0.190	-0.890	-0.810
2020/01/31 18:45:51.6	72.950	0.230	-0.970	-0.970
2020/01/31 18:45:51.7	72.970	0.270	-1.040	-1.120
2020/01/31 18:45:51.8	72.990	0.310	-1.120	-1.270
2020/01/31 18:45:51.9	73.010	0.340	-1.180	-1.420
2020/01/31 18:45:52.0	73.020	0.380	-1.230	-1.550
2020/01/31 18:45:52.1	73.030	0.410	-1.280	-1.690
2020/01/31 18:45:52.2	73.050	0.440	-1.320	-1.810
2020/01/31 18:45:52.3	73.060	0.470	-1.350	-1.930
2020/01/31 18:45:52.4	73.060	0.500	-1.370	-2.050
2020/01/31 18:45:52.5	73.070	0.520	-1.380	-2.150
2020/01/31 18:45:52.6	73.070	0.540	-1.390	-2.240
2020/01/31 18:45:52.7	73.080	0.560	-1.380	-2.330
2020/01/31 18:45:52.8	73.080	0.580	-1.370	-2.410
2020/01/31 18:45:52.9	73.080	0.590	-1.350	-2.470
2020/01/31 18:45:53.0	73.080	0.600	-1.320	-2.530
2020/01/31 18:45:53.1	73.070	0.600	-1.280	-2.590
2020/01/31 18:45:53.2	73.060	0.610	-1.240	-2.630
2020/01/31 18:45:53.3	73.050	0.610	-1.190	-2.660
2020/01/31 18:45:53.4	73.040	0.600	-1.140	-2.680
2020/01/31 18:45:53.5	73.030	0.600	-1.080	-2.690
2020/01/31 18:45:53.6	73.010	0.590	-1.020	-2.690
2020/01/31 18:45:53.7	73.000	0.580	-0.950	-2.690
2020/01/31 18:45:53.8	72.970	0.560	-0.870	-2.670
2020/01/31 18:45:53.9	72.950	0.550	-0.800	-2.640
2020/01/31 18:45:54.0	72.920	0.520	-0.720	-2.610
2020/01/31 18:45:54.1	72.900	0.500	-0.640	-2.570
2020/01/31 18:45:54.2	72.870	0.480	-0.570	-2.520
2020/01/31 18:45:54.3	72.850	0.450	-0.490	-2.460
2020/01/31 18:45:54.4	72.820	0.420	-0.410	-2.400
2020/01/31 18:45:54.5	72.790	0.390	-0.330	-2.330
2020/01/31 18:45:54.6	72.760	0.360	-0.260	-2.260
2020/01/31 18:45:54.7	72.730	0.320	-0.180	-2.180
2020/01/31 18:45:54.8	72.690	0.290	-0.110	-2.100
2020/01/31 18:45:54.9	72.670	0.250	-0.040	-2.010
2020/01/31 18:45:55.0	72.640	0.220	0.020	-1.920
2020/01/31 18:45:55.1	72.610	0.180	0.090	-1.830
2020/01/31 18:45:55.2	72.580	0.150	0.150	-1.740
2020/01/31 18:45:55.3	72.550	0.110	0.210	-1.650
2020/01/31 18:45:55.4	72.530	0.070	0.260	-1.550
2020/01/31 18:45:55.5	72.510	0.040	0.320	-1.460
2020/01/31 18:45:55.6	72.480	0.000	0.370	-1.360
2020/01/31 18:45:55.7	72.460	-0.030	0.410	-1.270
2020/01/31 18:45:55.8	72.440	-0.060	0.460	-1.170
2020/01/31 18:45:55.9	72.420	-0.100	0.500	-1.080
2020/01/31 18:45:56.0	72.400	-0.130	0.530	-0.990
2020/01/31 18:45:56.1	72.390	-0.160	0.570	-0.900
2020/01/31 18:45:56.2	72.380	-0.180	0.600	-0.810
2020/01/31 18:45:56.3	72.370	-0.210	0.630	-0.730
2020/01/31 18:45:56.4	72.360	-0.230	0.660	-0.640
2020/01/31 18:45:56.5	72.360	-0.250	0.690	-0.560
2020/01/31 18:45:56.6	72.360	-0.270	0.710	-0.480
2020/01/31 18:45:56.7	72.360	-0.290	0.730	-0.400
2020/01/31 18:45:56.8	72.370	-0.300	0.740	-0.320
2020/01/31 18:45:56.9	72.380	-0.320	0.760	-0.240
2020/01/31 18:45:57.0	72.380	-0.330	0.770	-0.170
2020/01/31 18:45:57.1	72.390	-0.340	0.780	-0.100
2020/01/31 18:45:57.2	72.410	-0.340	0.790	-0.030
2020/01/31 18:45:57.3	72.420	-0.350	0.790	0.030
2020/01/31 18:45:57.4	72.440	-0.360	0.790	0.100
2020/01/31 18:45:57.5	72.450	-0.360	0.790	0.160
2020/01/31 18:45:57.6	72.470	-0.360	0.780	0.220
2020/01/31 18:45:57.7	72.490	-0.360	0.770	0.280
2020/01/31 18:45:57.8	72.520	-0.360	0.750	0.350
2020/01/31 18:45:57.9	72.540	-0.360	0.740	0.400
2020/01/31 18:45:58.0	72.570	-0.360	0.720	0.460
2020/01/31 18:45:58.1	72.590	-0.350	0.690	0.520
2020/01/31 18:45:58.2	72.620	-0.350	0.660	0.570
2020/01/31 18:45:58.3	72.640	-0.340	0.630	0.630
2020/01/31 18:45:58.4	72.670	-0.330	0.590	0.680
2020/01/31 18:45:58.5	72.690	-0.330	0.550	0.740
2020/01/31 18:45:58.6	72.720	-0.320	0.500	0.790
2020/01/31 18:45:58.7	72.750	-0.310	0.450	0.840
2020/01/31 18:45:58.8	72.780	-0.300	0.400	0.900
2020/01/31 18:45:58.9	72.810	-0.280	0.340	0.960
2020/01/31 18:45:59.0	72.830	-0.270	0.280	1.010
2020/01/31 18:45:59.1	72.860	-0.260	0.220	1.060
2020/01/31 18:45:59.2	72.890	-0.240	0.150	1.120
2020/01/31 18:45:59.3	72.920	-0.230	0.080	1.170
2020/01/31 18:45:59.4	72.950	-0.210	0.010	1.230
2020/01/31 18:45:59.5	72.980	-0.190	-0.070	1.280
2020/01/31 18:45:59.6	73.010	-0.170	-0.140	1.330
2020/01/31 18:45:59.7	73.040	-0.150	-0.220	1.380
2020/01/31 18:45:59.8	73.060	-0.130	-0.310	1.440
2020/01/31 18:45:59.9	73.090	-0.110	-0.390	1.490
2020/01/31 18:46:00.0	73.120	-0.090	-0.470	1.540
2020/01/31 18:46:00.1	73.150	-0.060	-0.540	1.590
2020/01/31 18:46:00.2	73.180	-0.040	-0.620	1.630
2020/01/31 18:46:00.3	73.210	-0.010	-0.700	1.680
2020/01/31 18:46:00.4	73.230	0.010	-0.770	1.730
2020/01/31 18:46:00.5	73.260	0.040	-0.840	1.770
2020/01/31 18:46:00.6	73.280	0.070	-0.910	1.820
2020/01/31 18:46:00.7	73.300	0.090	-0.970	1.860
2020/01/31 18:46:00.8	73.320	0.120	-1.030	1.900
2020/01/31 18:46:00.9	73.340	0.150	-1.080	1.940
2020/01/31 18:46:01.0	73.360	0.180	-1.120	1.980
2020/01/31 18:46:01.1	73.370	0.200	-1.160	2.020
2020/01/31 18:46:01.2	73.380	0.230	-1.190	2.060
2020/01/31 18:46:01.3	73.380	0.250	-1.220	2.090
2020/01/31 18:46:01.4	73.390	0.280	-1.240	2.120
2020/01/31 18:46:01.5	73.390	0.300	-1.250	2.140
2020/01/31 18:46:01.6	73.390	0.320	-1.250	2.170
2020/01/31 18:46:01.7	73.390	0.330	-1.250	2.190
2020/01/31 18:46:01.8	73.390	0.350	-1.240	2.200
2020/01/31 18:46:01.9	73.380	0.360	-1.220	2.220
2020/01/31 18:46:02.0	73.370	0.370	-1.190	2.220
2020/01/31 18:46:02.1	73.350	0.380	-1.160	2.220
2020/01/31 18:46:02.2	73.340	0.380	-1.120	2.220
2020/01/31 18:46:02.3	73.320	0.380	-1.070	2.210
2020/01/31 18:46:02.4	73.300	0.380	-1.020	2.200
2020/01/31 18:46:02.5	73.280	0.380	-0.960	2.190
2020/01/31 18:46:02.6	73.250	0.370	-0.890	2.170
2020/01/31 18:46:02.7	73.230	0.360	-0.820	2.140
2020/01/31 18:46:02.8	73.210	0.350	-0.740	2.110
2020/01/31 18:46:02.9	73.180	0.330	-0.660	2.080
2020/01/31 18:46:03.0	73.150	0.320	-0.580	2.050
2020/01/31 18:46:03.1	73.120	0.300	-0.500	2.010
2020/01/31 18:46:03.2	73.090	0.270	-0.410	1.970
2020/01/31 18:46:03.3	73.060	0.250	-0.330	1.920
2020/01/31 18:46:03.4	73.020	0.220	-0.240	1.870
2020/01/31 18:46:03.5	72.990	0.200	-0.160	1.820
2020/01/31 18:46:03.6	72.960	0.170	-0.080	1.770
2020/01/31 18:46:03.7	72.930	0.140	0.000	1.710
2020/01/31 18:46:03.8	72.890	0.110	0.090	1.650
2020/01/31 18:46:03.9	72.860	0.080	0.160	1.580
2020/01/31 18:46:04.0	72.830	0.050	0.230	1.520
2020/01/31 18:46:04.1	72.800	0.020	0.290	1.450
2020/01/31 18:46:04.2	72.770	-0.010	0.350	1.380
2020/01/31 18:46:04.3	72.740	-0.040	0.410	1.310
2020/01/31 18:46:04.4	72.720	-0.070	0.460	1.240
2020/01/31 18:46:04.5	72.700	-0.100	0.500	1.160
2020/01/31 18:46:04.6	72.680	-0.130	0.530	1.080
2020/01/31 18:46:04.7	72.660	-0.150	0.560	1.000
2020/01/31 18:46:04.8	72.640	-0.180	0.590	0.920
2020/01/31 18:46:04.9	72.630	-0.200	0.610	0.840
2020/01/31 18:46:05.0	72.610	-0.220	0.620	0.750
2020/01/31 18:46:05.1	72.600	-0.240	0.620	0.670
2020/01/31 18:46:05.2	72.590	-0.250	0.620	0.580
2020/01/31 18:46:05.3	72.580	-0.270	0.610	0.490
2020/01/31 18:46:05.4	72.580	-0.280	0.600	0.400
2020/01/31 18:46:05.5	72.570	-0.290	0.580	0.310
2020/01/31 18:46:05.6	72.570	-0.300	0.560	0.220
2020/01/31 18:46:05.7	72.570	-0.310	0.530	0.120
2020/01/31 18:46:05.8	72.560	-0.310	0.500	0.030
2020/01/31 18:46:05.9	72.560	-0.320	0.470	-0.070
2020/01/31 18:46:06.0	72.560	-0.320	0.430	-0.160
2020/01/31 18:46:06.1	72.570	-0.320	0.390	-0.260
2020/01/31 18:46:06.2	72.570	-0.320	0.350	-0.350
2020/01/31 18:46:06.3	72.570	-0.320	0.310	-0.450
2020/01/31 18:46:06.4	72.580	-0.310	0.260	-0.550
2020/01/31 18:46:06.5	72.580	-0.310	0.220	-0.640
2020/01/31 18:46:06.6	72.590	-0.300	0.170	-0.740
2020/01/31 18:46:06.7	72.590	-0.290	0.130	-0.840
2020/01/31 18:46:06.8	72.610	-0.290	0.080	-0.930
2020/01/31 18:46:06.9	72.620	-0.280	0.040	-1.030
2020/01/31 18:46:07.0	72.620	-0.270	-0.000	-1.120
2020/01/31 18:46:07.1	72.630	-0.270	-0.050	-1.220
2020/01/31 18:46:07.2	72.640	-0.260	-0.090	-1.310
2020/01/31 18:46:07.3	72.650	-0.250	-0.130	-1.410
2020/01/31 18:46:07.4	72.660	-0.240	-0.160	-1.500
2020/01/31 18:46:07.5	72.680	-0.240	-0.200	-1.590
2020/01/31 18:46:07.6	72.690	-0.230	-0.230	-1.680
2020/01/31 18:46:07.7	72.700	-0.230	-0.270	-1.770
2020/01/31 18:46:07.8	72.710	-0.220	-0.300	-1.850
2020/01/31 18:46:07.9	72.730	-0.220	-0.330	-1.940
2020/01/31 18:46:08.0	72.740	-0.210	-0.360	-2.010
2020/01/31 18:46:08.1	72.760	-0.210	-0.380	-2.090
2020/01/31 18:46:08.2	72.770	-0.200	-0.410	-2.160
2020/01/31 18:46:08.3	72.790	-0.200	-0.430	-2.230
2020/01/31 18:46:08.4	72.810	-0.190	-0.460	-2.290
2020/01/31 18:46:08.5	72.830	-0.190	-0.480	-2.350
2020/01/31 18:46:08.6	72.850	-0.190	-0.500	-2.410
2020/01/31 18:46:08.7	72.870	-0.180	-0.520	-2.450
2020/01/31 18:46:08.8	72.880	-0.180	-0.540	-2.500
2020/01/31 18:46:08.9	72.900	-0.170	-0.560	-2.530
2020/01/31 18:46:09.0	72.930	-0.160	-0.580	-2.570
2020/01/31 18:46:09.1	72.950	-0.150	-0.600	-2.590
2020/01/31 18:46:09.2	72.970	-0.140	-0.620	-2.610
2020/01/31 18:46:09.3	73.000	-0.130	-0.650	-2.630
2020/01/31 18:46:09.4	73.020	-0.120	-0.670	-2.630
2020/01/31 18:46:09.5	73.050	-0.110	-0.690	-2.640
2020/01/31 18:46:09.6	73.080	-0.090	-0.710	-2.630
2020/01/31 18:46:09.7	73.100	-0.070	-0.730	-2.620
2020/01/31 18:46:09.8	73.130	-0.060	-0.750	-2.600
2020/01/31 18:46:09.9	73.150	-0.040	-0.770	-2.580
2020/01/31 18:46:10.0	73.180	-0.010	-0.780	-2.550
2020/01/31 18:46:10.1	73.210	0.010	-0.800	-2.510
2020/01/31 18:46:10.2	73.240	0.030	-0.810	-2.470
2020/01/31 18:46:10.3	73.270	0.060	-0.820	-2.420
2020/01/31 18:46:10.4	73.290	0.080	-0.820	-2.370
2020/01/31 18:46:10.5	73.320	0.110	-0.830	-2.300
2020/01/31 18:46:10.6	73.350	0.140	-0.830	-2.230
2020/01/31 18:46:10.7	73.370	0.170	-0.820	-2.160
2020/01/31 18:46:10.8	73.390	0.200	-0.810	-2.070
2020/01/31 18:46:10.9	73.410	0.220	-0.800	-1.980
2020/01/31 18:46:11.0	73.430	0.250	-0.790	-1.880
2020/01/31 18:46:11.1	73.440	0.280	-0.770	-1.770
2020/01/31 18:46:11.2	73.450	0.300	-0.740	-1.660
2020/01/31 18:46:11.3	73.460	0.320	-0.710	-1.540
2020/01/31 18:46:11.4	73.460	0.350	-0.680	-1.410
2020/01/31 18:46:11.5	73.460	0.370	-0.640	-1.280
2020/01/31 18:46:11.6	73.460	0.390	-0.600	-1.140
2020/01/31 18:46:11.7	73.450	0.400	-0.550	-1.000
2020/01/31 18:46:11.8	73.450	0.410	-0.510	-0.840
2020/01/31 18:46:11.9	73.440	0.430	-0.460	-0.690
2020/01/31 18:46:12.0	73.420	0.430	-0.400	-0.530
2020/01/31 18:46:12.1	73.400	0.440	-0.350	-0.370
2020/01/31 18:46:12.2	73.380	0.440	-0.290	-0.210
2020/01/31 18:46:12.3	73.360	0.440	-0.230	-0.050
2020/01/31 18:46:12.4	73.330	0.440	-0.170	0.120
2020/01/31 18:46:12.5	73.300	0.430	-0.120	0.280
2020/01/31 18:46:12.6	73.270	0.420	-0.060	0.440
2020/01/31 18:46:12.7	73.250	0.410	-0.000	0.600
2020/01/31 18:46:12.8	73.220	0.400	0.050	0.760
2020/01/31 18:46:12.9	73.190	0.380	0.110	0.910
2020/01/31 18:46:13.0	73.160	0.360	0.160	1.050
2020/01/31 18:46:13.1	73.130	0.340	0.210	1.200
2020/01/31 18:46:13.2	73.100	0.320	0.250	1.330
2020/01/31 18:46:13.3	73.070	0.290	0.290	1.460
2020/01/31 18:46:13.4	73.050	0.270	0.330	1.590
2020/01/31 18:46:13.5	73.020	0.240	0.370	1.700
2020/01/31 18:46:13.6	73.000	0.210	0.400	1.810
2020/01/31 18:46:13.7	72.970	0.180	0.430	1.910
2020/01/31 18:46:13.8	72.960	0.150	0.450	2.010
2020/01/31 18:46:13.9	72.940	0.120	0.470	2.100
2020/01/31 18:46:14.0	72.930	0.100	0.490	2.180
2020/01/31 18:46:14.1	72.910	0.070	0.500	2.250
2020/01/31 18:46:14.2	72.900	0.040	0.500	2.320
2020/01/31 18:46:14.3	72.890	0.010	0.510	2.380
2020/01/31 18:46:14.4	72.880	-0.010	0.500	2.430
2020/01/31 18:46:14.5	72.870	-0.040	0.500	2.480
2020/01/31 18:46:14.6	72.870	-0.060	0.490	2.520
2020/01/31 18:46:14.7	72.860	-0.090	0.480	2.560
2020/01/31 18:46:14.8	72.850	-0.110	0.460	2.590
2020/01/31 18:46:14.9	72.850	-0.130	0.440	2.620
2020/01/31 18:46:15.0	72.850	-0.150	0.420	2.640
2020/01/31 18:46:15.1	72.850	-0.170	0.400	2.660
2020/01/31 18:46:15.2	72.840	-0.180	0.380	2.680
2020/01/31 18:46:15.3	72.840	-0.200	0.360	2.690
2020/01/31 18:46:15.4	72.840	-0.210	0.330	2.700
2020/01/31 18:46:15.5	72.840	-0.220	0.310	2.700
2020/01/31 18:46:15.6	72.840	-0.230	0.280	2.700
2020/01/31 18:46:15.7	72.840	-0.240	0.260	2.700
2020/01/31 18:46:15.8	72.830	-0.250	0.240	2.700
2020/01/31 18:46:15.9	72.830	-0.260	0.220	2.690
2020/01/31 18:46:16.0	72.830	-0.260	0.190	2.680
2020/01/31 18:46:16.1	72.830	-0.260	0.170	2.660
2020/01/31 18:46:16.2	72.830	-0.270	0.150	2.640
2020/01/31 18:46:16.3	72.830	-0.270	0.130	2.620
2020/01/31 18:46:16.4	72.830	-0.270	0.110	2.590
2020/01/31 18:46:16.5	72.830	-0.270	0.090	2.560
2020/01/31 18:46:16.6	72.830	-0.270	0.070	2.530
2020/01/31 18:46:16.7	72.840	-0.260	0.040	2.490
2020/01/31 18:46:16.8	72.840	-0.260	0.030	2.440
2020/01/31 18:46:16.9	72.850	-0.250	0.000	2.390
2020/01/31 18:46:17.0	72.860	-0.250	-0.030	2.330
2020/01/31 18:46:17.1	72.870	-0.240	-0.050	2.270
2020/01/31 18:46:17.2	72.880	-0.230	-0.080	2.200
2020/01/31 18:46:17.3	72.900	-0.220	-0.120	2.120
2020/01/31 18:46:17.4	72.920	-0.210	-0.150	2.040
2020/01/31 18:46:17.5	72.940	-0.200	-0.190	1.950
2020/01/31 18:46:17.6	72.960	-0.190	-0.230	1.860
2020/01/31 18:46:17.7	72.990	-0.170	-0.270	1.760
2020/01/31 18:46:17.8	73.020	-0.160	-0.320	1.650
2020/01/31 18:46:17.9	73.050	-0.140	-0.370	1.530
2020/01/31 18:46:18.0	73.090	-0.120	-0.420	1.420
2020/01/31 18:46:18.1	73.130	-0.110	-0.460	1.290
2020/01/31 18:46:18.2	73.170	-0.090	-0.510	1.170
2020/01/31 18:46:18.3	73.210	-0.070	-0.560	1.040
2020/01/31 18:46:18.4	73.250	-0.050	-0.610	0.910
2020/01/31 18:46:18.5	73.300	-0.030	-0.660	0.770
2020/01/31 18:46:18.6	73.340	-0.010	-0.710	0.640
2020/01/31 18:46:18.7	73.390	0.020	-0.750	0.510
2020/01/31 18:46:18.8	73.430	0.040	-0.790	0.370
2020/01/31 18:46:18.9	73.470	0.060	-0.820	0.250
2020/01/31 18:46:19.0	73.510	0.080	-0.860	0.120
2020/01/31 18:46:19.1	73.550	0.100	-0.880	-0.000
2020/01/31 18:46:19.2	73.590	0.120	-0.910	-0.120
2020/01/31 18:46:19.3	73.630	0.140	-0.920	-0.230
2020/01/31 18:46:19.4	73.660	0.160	-0.940	-0.340
2020/01/31 18:46:19.5	73.690	0.170	-0.940	-0.440
2020/01/31 18:46:19.6	73.720	0.190	-0.940	-0.540
2020/01/31 18:46:19.7	73.750	0.200	-0.940	-0.630
2020/01/31 18:46:19.8	73.770	0.220	-0.930	-0.710
2020/01/31 18:46:19.9	73.790	0.230	-0.910	-0.780
2020/01/31 18:46:20.0	73.810	0.240	-0.890	-0.850
2020/01/31 18:46:20.1	73.820	0.240	-0.860	-0.920
2020/01/31 18:46:20.2	73.830	0.250	-0.830	-0.980
2020/01/31 18:46:20.3	73.830	0.250	-0.790	-1.030
2020/01/31 18:46:20.4	73.840	0.250	-0.750	-1.070
2020/01/31 18:46:20.5	73.840	0.250	-0.710	-1.110
2020/01/31 18:46:20.6	73.840	0.240	-0.660	-1.140
2020/01/31 18:46:20.7	73.830	0.240	-0.610	-1.170
2020/01/31 18:46:20.8	73.830	0.230	-0.550	-1.190
2020/01/31 18:46:20.9	73.820	0.220	-0.500	-1.210
2020/01/31 18:46:21.0	73.810	0.210	-0.440	-1.220
2020/01/31 18:46:21.1	73.800	0.190	-0.380	-1.230
2020/01/31 18:46:21.2	73.780	0.180	-0.320	-1.230
2020/01/31 18:46:21.3	73.770	0.160	-0.270	-1.230
2020/01/31 18:46:21.4	73.750	0.140	-0.210	-1.230
2020/01/31 18:46:21.5	73.730	0.120	-0.150	-1.220
2020/01/31 18:46:21.6	73.710	0.100	-0.090	-1.210
2020/01/31 18:46:21.7	73.690	0.070	-0.040	-1.200
2020/01/31 18:46:21.8	73.680	0.050	0.010	-1.180
2020/01/31 18:46:21.9	73.660	0.030	0.060	-1.160
2020/01/31 18:46:22.0	73.640	0.000	0.110	-1.140
2020/01/31 18:46:22.1	73.610	-0.030	0.160	-1.120
2020/01/31 18:46:22.2	73.590	-0.050	0.210	-1.100
2020/01/31 18:46:22.3	73.570	-0.080	0.250	-1.070
2020/01/31 18:46:22.4	73.550	-0.100	0.280	-1.050
2020/01/31 18:46:22.5	73.520	-0.130	0.320	-1.020
2020/01/31 18:46:22.6	73.500	-0.150	0.350	-0.990
2020/01/31 18:46:22.7	73.480	-0.180	0.380	-0.960
2020/01/31 18:46:22.8	73.460	-0.200	0.400	-0.930
2020/01/31 18:46:22.9	73.430	-0.230	0.420	-0.900
2020/01/31 18:46:23.0	73.410	-0.250	0.440	-0.870
2020/01/31 18:46:23.1	73.390	-0.270	0.450	-0.840
2020/01/31 18:46:23.2	73.370	-0.290	0.460	-0.810
2020/01/31 18:46:23.3	73.350	-0.310	0.470	-0.780
2020/01/31 18:46:23.4	73.330	-0.330	0.480	-0.750
2020/01/31 18:46:23.5	73.310	-0.350	0.480	-0.720
2020/01/31 18:46:23.6	73.290	-0.370	0.480	-0.690
2020/01/31 18:46:23.7	73.270	-0.380	0.470	-0.660
2020/01/31 18:46:23.8	73.240	-0.400	0.460	-0.620
2020/01/31 18:46:23.9	73.220	-0.410	0.450	-0.590
2020/01/31 18:46:24.0	73.210	-0.420	0.440	-0.560
2020/01/31 18:46:24.1	73.190	-0.430	0.420	-0.530
2020/01/31 18:46:24.2	73.180	-0.440	0.410	-0.500
2020/01/31 18:46:24.3	73.160	-0.440	0.380	-0.470
2020/01/31 18:46:24.4	73.150	-0.440	0.360	-0.440
2020/01/31 18:46:24.5	73.140	-0.450	0.340	-0.410
2020/01/31 18:46:24.6	73.130	-0.440	0.310	-0.380
2020/01/31 18:46:24.7	73.120	-0.440	0.280	-0.350
2020/01/31 18:46:24.8	73.120	-0.440	0.240	-0.310
2020/01/31 18:46:24.9	73.110	-0.430	0.210	-0.280
2020/01/31 18:46:25.0	73.110	-0.420	0.170	-0.250
2020/01/31 18:46:25.1	73.110	-0.400	0.130	-0.220
2020/01/31 18:46:25.2	73.110	-0.390	0.090	-0.180
2020/01/31 18:46:25.3	73.110	-0.370	0.050	-0.150
2020/01/31 18:46:25.4	73.120	-0.350	-0.000	-0.120
2020/01/31 18:46:25.5	73.120	-0.320	-0.050	-0.080
2020/01/31 18:46:25.6	73.140	-0.300	-0.100	-0.050
2020/01/31 18:46:25.7	73.150	-0.270	-0.160	-0.020
2020/01/31 18:46:25.8	73.160	-0.230	-0.220	0.020
2020/01/31 18:46:25.9	73.180	-0.200	-0.270	0.050
2020/01/31 18:46:26.0	73.200	-0.160	-0.330	0.080
2020/01/31 18:46:26.1	73.230	-0.120	-0.390	0.100
2020/01/31 18:46:26.2	73.260	-0.080	-0.450	0.130
2020/01/31 18:46:26.3	73.290	-0.040	-0.510	0.160
2020/01/31 18:46:26.4	73.320	0.000	-0.580	0.180
2020/01/31 18:46:26.5	73.360	0.050	-0.640	0.200
2020/01/31 18:46:26.6	73.390	0.090	-0.700	0.220
2020/01/31 18:46:26.7	73.430	0.140	-0.760	0.240
2020/01/31 18:46:26.8	73.480	0.190	-0.810	0.260
2020/01/31 18:46:26.9	73.530	0.230	-0.870	0.270
2020/01/31 18:46:27.0	73.570	0.280	-0.920	0.290
2020/01/31 18:46:27.1	73.620	0.330	-0.970	0.300
2020/01/31 18:46:27.2	73.670	0.370	-1.020	0.320
2020/01/31 18:46:27.3	73.720	0.420	-1.060	0.330
2020/01/31 18:46:27.4	73.770	0.460	-1.100	0.340
2020/01/31 18:46:27.5	73.820	0.500	-1.130	0.360
2020/01/31 18:46:27.6	73.870	0.530	-1.150	0.370
2020/01/31 18:46:27.7	73.910	0.570	-1.170	0.390
2020/01/31 18:46:27.8	73.960	0.600	-1.190	0.420
2020/01/31 18:46:27.9	74.000	0.630	-1.190	0.440
2020/01/31 18:46:28.0	74.030	0.650	-1.190	0.470
2020/01/31 18:46:28.1	74.070	0.670	-1.180	0.490
2020/01/31 18:46:28.2	74.100	0.680	-1.160	0.530
2020/01/31 18:46:28.3	74.130	0.690	-1.140	0.560
2020/01/31 18:46:28.4	74.150	0.700	-1.100	0.600
2020/01/31 18:46:28.5	74.160	0.700	-1.060	0.650
2020/01/31 18:46:28.6	74.180	0.690	-1.010	0.690
2020/01/31 18:46:28.7	74.180	0.680	-0.950	0.740
2020/01/31 18:46:28.8	74.190	0.660	-0.880	0.800
2020/01/31 18:46:28.9	74.180	0.640	-0.810	0.860
2020/01/31 18:46:29.0	74.180	0.620	-0.720	0.920
2020/01/31 18:46:29.1	74.170	0.590	-0.640	0.980
2020/01/31 18:46:29.2	74.150	0.550	-0.550	1.040
2020/01/31 18:46:29.3	74.130	0.510	-0.450	1.100
2020/01/31 18:46:29.4	74.110	0.470	-0.350	1.170
2020/01/31 18:46:29.5	74.080	0.420	-0.240	1.230
2020/01/31 18:46:29.6	74.050	0.370	-0.140	1.300
2020/01/31 18:46:29.7	74.020	0.320	-0.030	1.360
2020/01/31 18:46:29.8	73.980	0.260	0.080	1.420
2020/01/31 18:46:29.9	73.940	0.200	0.180	1.480
2020/01/31 18:46:30.0	73.910	0.140	0.290	1.540
2020/01/31 18:46:30.1	73.870	0.080	0.390	1.590
2020/01/31 18:46:30.2	73.830	0.020	0.480	1.630
2020/01/31 18:46:30.3	73.790	-0.040	0.580	1.670
2020/01/31 18:46:30.4	73.750	-0.100	0.660	1.700
2020/01/31 18:46:30.5	73.710	-0.160	0.740	1.730
2020/01/31 18:46:30.6	73.670	-0.220	0.810	1.750
2020/01/31 18:46:30.7	73.640	-0.280	0.880	1.760
2020/01/31 18:46:30.8	73.600	-0.330	0.930	1.760
2020/01/31 18:46:30.9	73.570	-0.380	0.980	1.750
2020/01/31 18:46:31.0	73.540	-0.430	1.020	1.740
2020/01/31 18:46:31.1	73.510	-0.470	1.050	1.720
2020/01/31 18:46:31.2	73.480	-0.510	1.070	1.680
2020/01/31 18:46:31.3	73.460	-0.550	1.080	1.650
2020/01/31 18:46:31.4	73.440	-0.580	1.080	1.600
2020/01/31 18:46:31.5	73.430	-0.610	1.070	1.550
2020/01/31 18:46:31.6	73.410	-0.630	1.060	1.490
2020/01/31 18:46:31.7	73.400	-0.640	1.030	1.420
2020/01/31 18:46:31.8	73.390	-0.650	1.000	1.350
2020/01/31 18:46:31.9	73.390	-0.660	0.960	1.270
2020/01/31 18:46:32.0	73.380	-0.660	0.910	1.190
2020/01/31 18:46:32.1	73.380	-0.650	0.860	1.110
2020/01/31 18:46:32.2	73.380	-0.640	0.800	1.030
2020/01/31 18:46:32.3	73.390	-0.620	0.730	0.940
2020/01/31 18:46:32.4	73.390	-0.600	0.660	0.850
2020/01/31 18:46:32.5	73.400	-0.570	0.590	0.760
2020/01/31 18:46:32.6	73.410	-0.540	0.510	0.670
2020/01/31 18:46:32.7	73.420	-0.510	0.430	0.580
2020/01/31 18:46:32.8	73.450	-0.470	0.340	0.490
2020/01/31 18:46:32.9	73.460	-0.430	0.260	0.400
2020/01/31 18:46:33.0	73.480	-0.380	0.170	0.300
2020/01/31 18:46:33.1	73.500	-0.330	0.080	0.210
2020/01/31 18:46:33.2	73.530	-0.280	-0.010	0.120
2020/01/31 18:46:33.3	73.550	-0.230	-0.100	0.030
2020/01/31 18:46:33.4	73.580	-0.170	-0.190	-0.060
2020/01/31 18:46:33.5	73.610	-0.120	-0.280	-0.150
2020/01/31 18:46:33.6	73.640	-0.070	-0.370	-0.240
2020/01/31 18:46:33.7	73.670	-0.010	-0.460	-0.320
2020/01/31 18:46:33.8	73.700	0.040	-0.540	-0.410
2020/01/31 18:46:33.9	73.740	0.090	-0.620	-0.490
2020/01/31 18:46:34.0	73.770	0.140	-0.690	-0.560
2020/01/31 18:46:34.1	73.810	0.190	-0.760	-0.640
2020/01/31 18:46:34.2	73.850	0.240	-0.830	-0.710
2020/01/31 18:46:34.3	73.880	0.280	-0.890	-0.780
2020/01/31 18:46:34.4	73.920	0.320	-0.950	-0.840
2020/01/31 18:46:34.5	73.950	0.350	-1.000	-0.890
2020/01/31 18:46:34.6	73.980	0.390	-1.040	-0.950
2020/01/31 18:46:34.7	74.020	0.410	-1.080	-0.990
2020/01/31 18:46:34.8	74.040	0.430	-1.110	-1.030
2020/01/31 18:46:34.9	74.070	0.450	-1.140	-1.070
2020/01/31 18:46:35.0	74.090	0.470	-1.150	-1.100
2020/01/31 18:46:35.1	74.120	0.470	-1.160	-1.130
2020/01/31 18:46:35.2	74.140	0.480	-1.170	-1.150
2020/01/31 18:46:35.3	74.150	0.470	-1.170	-1.160
2020/01/31 18:46:35.4	74.170	0.460	-1.160	-1.180
2020/01/31 18:46:35.5	74.180	0.450	-1.140	-1.180
2020/01/31 18:46:35.6	74.180	0.430	-1.120	-1.190
2020/01/31 18:46:35.7	74.190	0.410	-1.090	-1.190
2020/01/31 18:46:35.8	74.180	0.380	-1.050	-1.180
2020/01/31 18:46:35.9	74.180	0.350	-1.010	-1.170
2020/01/31 18:46:36.0	74.180	0.310	-0.970	-1.160
2020/01/31 18:46:36.1	74.170	0.280	-0.920	-1.150
2020/01/31 18:46:36.2	74.160	0.230	-0.870	-1.140
2020/01/31 18:46:36.3	74.150	0.190	-0.810	-1.120
2020/01/31 18:46:36.4	74.130	0.140	-0.750	-1.110
2020/01/31 18:46:36.5	74.120	0.090	-0.690	-1.090
2020/01/31 18:46:36.6	74.100	0.040	-0.630	-1.060
2020/01/31 18:46:36.7	74.080	-0.010	-0.570	-1.040
2020/01/31 18:46:36.8	74.060	-0.070	-0.510	-1.010
2020/01/31 18:46:36.9	74.040	-0.120	-0.440	-0.980
2020/01/31 18:46:37.0	74.010	-0.170	-0.370	-0.950
2020/01/31 18:46:37.1	73.990	-0.220	-0.310	-0.920
2020/01/31 18:46:37.2	73.960	-0.270	-0.240	-0.890
2020/01/31 18:46:37.3	73.940	-0.310	-0.180	-0.850
2020/01/31 18:46:37.4	73.910	-0.350	-0.120	-0.810
2020/01/31 18:46:37.5	73.880	-0.390	-0.060	-0.770
2020/01/31 18:46:37.6	73.860	-0.430	0.000	-0.720
2020/01/31 18:46:37.7	73.830	-0.460	0.060	-0.680
2020/01/31 18:46:37.8	73.800	-0.480	0.120	-0.620
2020/01/31 18:46:37.9	73.780	-0.510	0.170	-0.570
2020/01/31 18:46:38.0	73.750	-0.520	0.220	-0.520
2020/01/31 18:46:38.1	73.720	-0.540	0.270	-0.460
2020/01/31 18:46:38.2	73.700	-0.550	0.310	-0.410
2020/01/31 18:46:38.3	73.670	-0.550	0.360	-0.350
2020/01/31 18:46:38.4	73.650	-0.550	0.390	-0.290
2020/01/31 18:46:38.5	73.620	-0.540	0.430	-0.220
2020/01/31 18:46:38.6	73.600	-0.530	0.460	-0.160
2020/01/31 18:46:38.7	73.570	-0.520	0.480	-0.090
2020/01/31 18:46:38.8	73.550	-0.500	0.510	-0.020
2020/01/31 18:46:38.9	73.530	-0.480	0.530	0.050
2020/01/31 18:46:39.0	73.510	-0.450	0.540	0.130
2020/01/31 18:46:39.1	73.480	-0.420	0.550	0.200
2020/01/31 18:46:39.2	73.460	-0.390	0.560	0.280
2020/01/31 18:46:39.3	73.440	-0.350	0.560	0.350
2020/01/31 18:46:39.4	73.420	-0.320	0.550	0.430
2020/01/31 18:46:39.5	73.400	-0.280	0.540	0.510
2020/01/31 18:46:39.6	73.380	-0.240	0.530	0.580
2020/01/31 18:46:39.7	73.360	-0.200	0.510	0.650
2020/01/31 18:46:39.8	73.340	-0.150	0.480	0.730
2020/01/31 18:46:39.9	73.330	-0.110	0.450	0.800
2020/01/31 18:46:40.0	73.310	-0.070	0.420	0.860
2020/01/31 18:46:40.1	73.300	-0.020	0.380	0.920
2020/01/31 18:46:40.2	73.280	0.020	0.340	0.980
2020/01/31 18:46:40.3	73.270	0.060	0.290	1.030
2020/01/31 18:46:40.4	73.260	0.110	0.250	1.070
2020/01/31 18:46:40.5	73.260	0.150	0.190	1.120
2020/01/31 18:46:40.6	73.250	0.190	0.140	1.150
2020/01/31 18:46:40.7	73.250	0.220	0.080	1.180
2020/01/31 18:46:40.8	73.240	0.260	0.030	1.210
2020/01/31 18:46:40.9	73.240	0.300	-0.030	1.230
2020/01/31 18:46:41.0	73.250	0.330	-0.100	1.240
2020/01/31 18:46:41.1	73.250	0.360	-0.160	1.250
2020/01/31 18:46:41.2	73.260	0.390	-0.220	1.260
2020/01/31 18:46:41.3	73.280	0.420	-0.280	1.260
2020/01/31 18:46:41.4	73.290	0.440	-0.340	1.250
2020/01/31 18:46:41.5	73.310	0.470	-0.400	1.240
2020/01/31 18:46:41.6	73.340	0.490	-0.460	1.230
2020/01/31 18:46:41.7	73.360	0.510	-0.510	1.210
2020/01/31 18:46:41.8	73.390	0.530	-0.570	1.200
2020/01/31 18:46:41.9	73.420	0.540	-0.620	1.180
2020/01/31 18:46:42.0	73.460	0.550	-0.670	1.150
2020/01/31 18:46:42.1	73.490	0.570	-0.720	1.130
2020/01/31 18:46:42.2	73.530	0.580	-0.760	1.100
2020/01/31 18:46:42.3	73.570	0.590	-0.800	1.070
2020/01/31 18:46:42.4	73.610	0.590	-0.830	1.040
2020/01/31 18:46:42.5	73.650	0.600	-0.860	1.020
2020/01/31 18:46:42.6	73.700	0.600	-0.890	0.990
2020/01/31 18:46:42.7	73.740	0.600	-0.910	0.960
2020/01/31 18:46:42.8	73.790	0.600	-0.930	0.940
2020/01/31 18:46:42.9	73.830	0.590	-0.940	0.910
2020/01/31 18:46:43.0	73.870	0.590	-0.950	0.890
2020/01/31 18:46:43.1	73.910	0.580	-0.950	0.870
2020/01/31 18:46:43.2	73.950	0.570	-0.950	0.850
2020/01/31 18:46:43.3	73.990	0.560	-0.940	0.830
2020/01/31 18:46:43.4	74.020	0.550	-0.930	0.820
2020/01/31 18:46:43.5	74.050	0.530	-0.920	0.810
2020/01/31 18:46:43.6	74.080	0.510	-0.900	0.800
2020/01/31 18:46:43.7	74.100	0.490	-0.870	0.790
2020/01/31 18:46:43.8	74.120	0.470	-0.840	0.790
2020/01/31 18:46:43.9	74.140	0.440	-0.800	0.790
2020/01/31 18:46:44.0	74.150	0.410	-0.760	0.790
2020/01/31 18:46:44.1	74.170	0.390	-0.720	0.790
2020/01/31 18:46:44.2	74.170	0.350	-0.670	0.800
2020/01/31 18:46:44.3	74.170	0.320	-0.620	0.810
2020/01/31 18:46:44.4	74.170	0.290	-0.560	0.810
2020/01/31 18:46:44.5	74.170	0.250	-0.500	0.830
2020/01/31 18:46:44.6	74.160	0.210	-0.440	0.840
2020/01/31 18:46:44.7	74.140	0.170	-0.380	0.850
2020/01/31 18:46:44.8	74.130	0.130	-0.310	0.860
2020/01/31 18:46:44.9	74.110	0.090	-0.240	0.880
2020/01/31 18:46:45.0	74.090	0.050	-0.170	0.890
2020/01/31 18:46:45.1	74.060	0.010	-0.100	0.910
2020/01/31 18:46:45.2	74.030	-0.030	-0.030	0.930
2020/01/31 18:46:45.3	73.990	-0.070	0.040	0.940
2020/01/31 18:46:45.4	73.950	-0.110	0.120	0.960
2020/01/31 18:46:45.5	73.910	-0.150	0.190	0.980
2020/01/31 18:46:45.6	73.860	-0.190	0.260	1.000
2020/01/31 18:46:45.7	73.820	-0.230	0.330	1.020
2020/01/31 18:46:45.8	73.760	-0.260	0.400	1.040
2020/01/31 18:46:45.9	73.710	-0.300	0.470	1.060
2020/01/31 18:46:46.0	73.650	-0.330	0.540	1.080
2020/01/31 18:46:46.1	73.600	-0.360	0.600	1.100
2020/01/31 18:46:46.2	73.540	-0.390	0.650	1.120
2020/01/31 18:46:46.3	73.490	-0.420	0.710	1.140
2020/01/31 18:46:46.4	73.440	-0.440	0.750	1.150
2020/01/31 18:46:46.5	73.380	-0.470	0.790	1.160
2020/01/31 18:46:46.6	73.330	-0.490	0.830	1.170
2020/01/31 18:46:46.7	73.280	-0.510	0.860	1.180
2020/01/31 18:46:46.8	73.230	-0.520	0.880	1.180
2020/01/31 18:46:46.9	73.190	-0.530	0.890	1.180
2020/01/31 18:46:47.0	73.150	-0.540	0.890	1.170
2020/01/31 18:46:47.1	73.110	-0.550	0.890	1.160
2020/01/31 18:46:47.2	73.080	-0.550	0.880	1.140
2020/01/31 18:46:47.3	73.050	-0.560	0.850	1.120
2020/01/31 18:46:47.4	73.030	-0.550	0.820	1.090
2020/01/31 18:46:47.5	73.020	-0.550	0.780	1.060
2020/01/31 18:46:47.6	73.000	-0.540	0.740	1.020
2020/01/31 18:46:47.7	73.000	-0.530	0.680	0.980
2020/01/31 18:46:47.8	73.010	-0.520	0.620	0.930
2020/01/31 18:46:47.9	73.020	-0.510	0.550	0.880
2020/01/31 18:46:48.0	73.030	-0.490	0.480	0.820
2020/01/31 18:46:48.1	73.040	-0.470	0.400	0.760
2020/01/31 18:46:48.2	73.060	-0.450	0.320	0.700
2020/01/31 18:46:48.3	73.080	-0.430	0.230	0.630
2020/01/31 18:46:48.4	73.110	-0.400	0.140	0.560
2020/01/31 18:46:48.5	73.140	-0.370	0.050	0.480
2020/01/31 18:46:48.6	73.180	-0.350	-0.050	0.410
2020/01/31 18:46:48.7	73.220	-0.320	-0.140	0.330
2020/01/31 18:46:48.8	73.260	-0.290	-0.240	0.260
2020/01/31 18:46:48.9	73.300	-0.260	-0.330	0.180
2020/01/31 18:46:49.0	73.350	-0.220	-0.420	0.110
2020/01/31 18:46:49.1	73.390	-0.190	-0.510	0.030
2020/01/31 18:46:49.2	73.430	-0.160	-0.600	-0.040
2020/01/31 18:46:49.3	73.480	-0.130	-0.680	-0.120
2020/01/31 18:46:49.4	73.520	-0.090	-0.760	-0.190
2020/01/31 18:46:49.5	73.560	-0.060	-0.830	-0.250
2020/01/31 18:46:49.6	73.600	-0.030	-0.890	-0.320
2020/01/31 18:46:49.7	73.640	0.000	-0.950	-0.380
2020/01/31 18:46:49.8	73.670	0.030	-0.990	-0.440
2020/01/31 18:46:49.9	73.700	0.060	-1.040	-0.490
2020/01/31 18:46:50.0	73.720	0.090	-1.070	-0.540
2020/01/31 18:46:50.1	73.750	0.120	-1.100	-0.580
2020/01/31 18:46:50.2	73.760	0.150	-1.110	-0.620
2020/01/31 18:46:50.3	73.780	0.170	-1.120	-0.650
2020/01/31 18:46:50.4	73.790	0.190	-1.120	-0.680
2020/01/31 18:46:50.5	73.790	0.220	-1.120	-0.700
2020/01/31 18:46:50.6	73.790	0.240	-1.110	-0.720
2020/01/31 18:46:50.7	73.790	0.250	-1.080	-0.740
2020/01/31 18:46:50.8	73.790	0.270	-1.060	-0.750
2020/01/31 18:46:50.9	73.770	0.290	-1.030	-0.750
2020/01/31 18:46:51.0	73.760	0.300	-0.990	-0.760
2020/01/31 18:46:51.1	73.740	0.310	-0.950	-0.760
2020/01/31 18:46:51.2	73.720	0.320	-0.910	-0.760
2020/01/31 18:46:51.3	73.690	0.330	-0.860	-0.750
2020/01/31 18:46:51.4	73.660	0.340	-0.810	-0.740
2020/01/31 18:46:51.5	73.630	0.350	-0.760	-0.730
2020/01/31 18:46:51.6	73.600	0.350	-0.710	-0.710
2020/01/31 18:46:51.7	73.570	0.360	-0.660	-0.700
2020/01/31 18:46:51.8	73.540	0.360	-0.600	-0.680
2020/01/31 18:46:51.9	73.510	0.360	-0.550	-0.660
2020/01/31 18:46:52.0	73.470	0.370	-0.500	-0.640
2020/01/31 18:46:52.1	73.440	0.370	-0.450	-0.620
2020/01/31 18:46:52.2	73.410	0.370	-0.410	-0.590
2020/01/31 18:46:52.3	73.380	0.370	-0.360	-0.570
2020/01/31 18:46:52.4	73.350	0.370	-0.320	-0.540
2020/01/31 18:46:52.5	73.320	0.370	-0.290	-0.510
2020/01/31 18:46:52.6	73.290	0.370	-0.250	-0.490
2020/01/31 18:46:52.7	73.270	0.360	-0.220	-0.460
2020/01/31 18:46:52.8	73.240	0.360	-0.200	-0.430
2020/01/31 18:46:52.9	73.220	0.360	-0.170	-0.400
2020/01/31 18:46:53.0	73.200	0.350	-0.150	-0.360
2020/01/31 18:46:53.1	73.180	0.350	-0.140	-0.330
2020/01/31 18:46:53.2	73.160	0.350	-0.120	-0.290
2020/01/31 18:46:53.3	73.150	0.340	-0.110	-0.260
2020/01/31 18:46:53.4	73.130	0.330	-0.100	-0.220
2020/01/31 18:46:53.5	73.120	0.320	-0.090	-0.180
2020/01/31 18:46:53.6	73.110	0.310	-0.080	-0.150
2020/01/31 18:46:53.7	73.100	0.300	-0.070	-0.110
2020/01/31 18:46:53.8	73.090	0.280	-0.070	-0.060
2020/01/31 18:46:53.9	73.090	0.270	-0.060	-0.020
2020/01/31 18:46:54.0	73.090	0.250	-0.050	0.020
2020/01/31 18:46:54.1	73.080	0.230	-0.040	0.060
2020/01/31 18:46:54.2	73.080	0.210	-0.020	0.100
2020/01/31 18:46:54.3	73.080	0.180	-0.010	0.140
2020/01/31 18:46:54.4	73.090	0.160	0.010	0.170
2020/01/31 18:46:54.5	73.090	0.130	0.030	0.210
2020/01/31 18:46:54.6	73.100	0.100	0.050	0.250
2020/01/31 18:46:54.7	73.100	0.060	0.070	0.280
2020/01/31 18:46:54.8	73.100	0.030	0.100	0.310
2020/01/31 18:46:54.9	73.110	-0.010	0.130	0.340
2020/01/31 18:46:55.0	73.120	-0.040	0.160	0.370
2020/01/31 18:46:55.1	73.130	-0.080	0.190	0.400
2020/01/31 18:46:55.2	73.140	-0.120	0.230	0.420
2020/01/31 18:46:55.3	73.150	-0.160	0.260	0.450
2020/01/31 18:46:55.4	73.160	-0.200	0.300	0.470
2020/01/31 18:46:55.5	73.170	-0.240	0.340	0.490
2020/01/31 18:46:55.6	73.180	-0.280	0.380	0.510
2020/01/31 18:46:55.7	73.190	-0.320	0.420	0.530
2020/01/31 18:46:55.8	73.190	-0.350	0.460	0.550
2020/01/31 18:46:55.9	73.200	-0.390	0.490	0.570
2020/01/31 18:46:56.0	73.210	-0.420	0.530	0.590
2020/01/31 18:46:56.1	73.220	-0.460	0.560	0.600
2020/01/31 18:46:56.2	73.220	-0.480	0.600	0.620
2020/01/31 18:46:56.3	73.230	-0.510	0.620	0.630
2020/01/31 18:46:56.4	73.240	-0.530	0.650	0.650
2020/01/31 18:46:56.5	73.240	-0.550	0.670	0.660
2020/01/31 18:46:56.6	73.250	-0.570	0.690	0.670
2020/01/31 18:46:56.7	73.250	-0.580	0.700	0.690
2020/01/31 18:46:56.8	73.260	-0.580	0.700	0.700
2020/01/31 18:46:56.9	73.260	-0.590	0.700	0.710
2020/01/31 18:46:57.0	73.270	-0.580	0.690	0.720
2020/01/31 18:46:57.1	73.270	-0.580	0.670	0.720
2020/01/31 18:46:57.2	73.280	-0.570	0.650	0.730
2020/01/31 18:46:57.3	73.280	-0.550	0.620	0.740
2020/01/31 18:46:57.4	73.290	-0.530	0.580	0.750
2020/01/31 18:46:57.5	73.290	-0.510	0.530	0.750
2020/01/31 18:46:57.6	73.300	-0.480	0.480	0.760
2020/01/31 18:46:57.7	73.300	-0.450	0.420	0.760
2020/01/31 18:46:57.8	73.310	-0.410	0.360	0.770
2020/01/31 18:46:57.9	73.310	-0.370	0.290	0.780
2020/01/31 18:46:58.0	73.310	-0.330	0.210	0.780
2020/01/31 18:46:58.1	73.320	-0.290	0.140	0.790
2020/01/31 18:46:58.2	73.320	-0.240	0.050	0.790
2020/01/31 18:46:58.3	73.320	-0.190	-0.040	0.790
2020/01/31 18:46:58.4	73.320	-0.140	-0.130	0.800
2020/01/31 18:46:58.5	73.320	-0.090	-0.220	0.800
2020/01/31 18:46:58.6	73.320	-0.030	-0.310	0.800
2020/01/31 18:46:58.7	73.320	0.020	-0.410	0.800
2020/01/31 18:46:58.8	73.330	0.070	-0.510	0.810
2020/01/31 18:46:58.9	73.330	0.130	-0.600	0.810
2020/01/31 18:46:59.0	73.330	0.180	-0.700	0.810
2020/01/31 18:46:59.1	73.330	0.230	-0.790	0.810
2020/01/31 18:46:59.2	73.330	0.280	-0.880	0.810
2020/01/31 18:46:59.3	73.320	0.330	-0.970	0.810
2020/01/31 18:46:59.4	73.320	0.380	-1.050	0.800
2020/01/31 18:46:59.5	73.320	0.420	-1.130	0.800
2020/01/31 18:46:59.6	73.320	0.460	-1.210	0.800
2020/01/31 18:46:59.7	73.330	0.500	-1.280	0.790
2020/01/31 18:46:59.8	73.320	0.540	-1.340	0.790
2020/01/31 18:46:59.9	73.330	0.570	-1.400	0.780
2020/01/31 18:47:00.0	73.330	0.600	-1.450	0.770
2020/01/31 18:47:00.1	73.330	0.620	-1.490	0.760
2020/01/31 18:47:00.2	73.330	0.640	-1.520	0.750
2020/01/31 18:47:00.3	73.340	0.660	-1.550	0.740
2020/01/31 18:47:00.4	73.340	0.670	-1.570	0.720
2020/01/31 18:47:00.5	73.350	0.680	-1.570	0.710
2020/01/31 18:47:00.6	73.350	0.690	-1.570	0.690
2020/01/31 18:47:00.7	73.360	0.690	-1.560	0.670
2020/01/31 18:47:00.8	73.360	0.690	-1.540	0.650
2020/01/31 18:47:00.9	73.360	0.680	-1.520	0.620
2020/01/31 18:47:01.0	73.370	0.670	-1.480	0.600
2020/01/31 18:47:01.1	73.380	0.660	-1.440	0.570
2020/01/31 18:47:01.2	73.390	0.640	-1.390	0.550
2020/01/31 18:47:01.3	73.400	0.620	-1.330	0.520
2020/01/31 18:47:01.4	73.410	0.600	-1.260	0.490
2020/01/31 18:47:01.5	73.420	0.580	-1.180	0.460
2020/01/31 18:47:01.6	73.430	0.550	-1.100	0.430
2020/01/31 18:47:01.7	73.440	0.520	-1.010	0.400
2020/01/31 18:47:01.8	73.450	0.490	-0.920	0.370
2020/01/31 18:47:01.9	73.470	0.460	-0.820	0.340
2020/01/31 18:47:02.0	73.480	0.420	-0.720	0.310
2020/01/31 18:47:02.1	73.490	0.390	-0.610	0.280
2020/01/31 18:47:02.2	73.500	0.350	-0.500	0.260
2020/01/31 18:47:02.3	73.510	0.310	-0.390	0.230
2020/01/31 18:47:02.4	73.520	0.270	-0.270	0.210
2020/01/31 18:47:02.5	73.530	0.230	-0.160	0.190
2020/01/31 18:47:02.6	73.540	0.190	-0.040	0.170
2020/01/31 18:47:02.7	73.540	0.140	0.080	0.150
2020/01/31 18:47:02.8	73.550	0.100	0.200	0.140
2020/01/31 18:47:02.9	73.550	0.060	0.310	0.120
2020/01/31 18:47:03.0	73.550	0.010	0.430	0.110
2020/01/31 18:47:03.1	73.550	-0.030	0.540	0.100
2020/01/31 18:47:03.2	73.550	-0.080	0.650	0.090
2020/01/31 18:47:03.3	73.550	-0.120	0.750	0.090
2020/01/31 18:47:03.4	73.550	-0.170	0.860	0.080
2020/01/31 18:47:03.5	73.550	-0.210	0.950	0.080
2020/01/31 18:47:03.6	73.540	-0.250	1.040	0.080
2020/01/31 18:47:03.7	73.530	-0.300	1.130	0.080
2020/01/31 18:47:03.8	73.530	-0.340	1.210	0.080
2020/01/31 18:47:03.9	73.520	-0.380	1.280	0.080
2020/01/31 18:47:04.0	73.510	-0.420	1.340	0.090
2020/01/31 18:47:04.1	73.500	-0.450	1.400	0.100
2020/01/31 18:47:04.2	73.490	-0.490	1.450	0.100
2020/01/31 18:47:04.3	73.480	-0.520	1.490	0.110
2020/01/31 18:47:04.4	73.470	-0.560	1.520	0.120
2020/01/31 18:47:04.5	73.460	-0.580	1.540	0.130
2020/01/31 18:47:04.6	73.440	-0.610	1.540	0.140
2020/01/31 18:47:04.7	73.430	-0.630	1.540	0.150
2020/01/31 18:47:04.8	73.420	-0.650	1.530	0.170
2020/01/31 18:47:04.9	73.410	-0.670	1.510	0.170
2020/01/31 18:47:05.0	73.410	-0.680	1.480	0.180
2020/01/31 18:47:05.1	73.400	-0.690	1.430	0.190
2020/01/31 18:47:05.2	73.390	-0.700	1.380	0.200
2020/01/31 18:47:05.3	73.390	-0.700	1.310	0.200
2020/01/31 18:47:05.4	73.390	-0.700	1.240	0.210
2020/01/31 18:47:05.5	73.390	-0.700	1.150	0.210
2020/01/31 18:47:05.6	73.390	-0.690	1.050	0.200
2020/01/31 18:47:05.7	73.390	-0.680	0.950	0.200
2020/01/31 18:47:05.8	73.390	-0.660	0.840	0.200
2020/01/31 18:47:05.9	73.400	-0.640	0.710	0.190
2020/01/31 18:47:06.0	73.410	-0.610	0.580	0.180
2020/01/31 18:47:06.1	73.430	-0.590	0.450	0.160
2020/01/31 18:47:06.2	73.440	-0.560	0.300	0.150
2020/01/31 18:47:06.3	73.460	-0.520	0.160	0.130
2020/01/31 18:47:06.4	73.470	-0.480	0.010	0.120
2020/01/31 18:47:06.5	73.490	-0.440	-0.140	0.100
2020/01/31 18:47:06.6	73.510	-0.400	-0.300	0.080
2020/01/31 18:47:06.7	73.530	-0.360	-0.450	0.060
2020/01/31 18:47:06.8	73.540	-0.310	-0.610	0.040
2020/01/31 18:47:06.9	73.560	-0.260	-0.760	0.020
2020/01/31 18:47:07.0	73.580	-0.210	-0.900	0.010
2020/01/31 18:47:07.1	73.590	-0.160	-1.040	-0.010
2020/01/31 18:47:07.2	73.610	-0.110	-1.180	-0.030
2020/01/31 18:47:07.3	73.620	-0.060	-1.310	-0.040
2020/01/31 18:47:07.4	73.640	-0.010	-1.430	-0.060
2020/01/31 18:47:07.5	73.650	0.040	-1.540	-0.070
2020/01/31 18:47:07.6	73.660	0.090	-1.640	-0.090
2020/01/31 18:47:07.7	73.670	0.140	-1.740	-0.100
2020/01/31 18:47:07.8	73.690	0.180	-1.820	-0.110
2020/01/31 18:47:07.9	73.690	0.230	-1.890	-0.120
2020/01/31 18:47:08.0	73.700	0.270	-1.950	-0.130
2020/01/31 18:47:08.1	73.710	0.310	-1.990	-0.140
2020/01/31 18:47:08.2	73.710	0.350	-2.030	-0.150
2020/01/31 18:47:08.3	73.720	0.390	-2.050	-0.150
2020/01/31 18:47:08.4	73.720	0.420	-2.060	-0.160
2020/01/31 18:47:08.5	73.730	0.450	-2.050	-0.160
2020/01/31 18:47:08.6	73.730	0.480	-2.040	-0.170
2020/01/31 18:47:08.7	73.730	0.500	-2.010	-0.170
2020/01/31 18:47:08.8	73.730	0.520	-1.970	-0.160
2020/01/31 18:47:08.9	73.740	0.540	-1.920	-0.160
2020/01/31 18:47:09.0	73.740	0.550	-1.860	-0.160
2020/01/31 18:47:09.1	73.750	0.560	-1.790	-0.160
2020/01/31 18:47:09.2	73.750	0.560	-1.710	-0.150
2020/01/31 18:47:09.3	73.760	0.560	-1.620	-0.140
2020/01/31 18:47:09.4	73.770	0.560	-1.520	-0.130
2020/01/31 18:47:09.5	73.780	0.560	-1.420	-0.120
2020/01/31 18:47:09.6	73.790	0.550	-1.310	-0.110
2020/01/31 18:47:09.7	73.800	0.530	-1.190	-0.100
2020/01/31 18:47:09.8	73.800	0.520	-1.070	-0.090
2020/01/31 18:47:09.9	73.820	0.500	-0.940	-0.070
2020/01/31 18:47:10.0	73.830	0.480	-0.810	-0.050
2020/01/31 18:47:10.1	73.840	0.450	-0.680	-0.030
2020/01/31 18:47:10.2	73.850	0.420	-0.550	-0.010
2020/01/31 18:47:10.3	73.860	0.400	-0.410	0.020
2020/01/31 18:47:10.4	73.870	0.360	-0.280	0.040
2020/01/31 18:47:10.5	73.880	0.330	-0.150	0.070
2020/01/31 18:47:10.6	73.890	0.290	-0.010	0.100
2020/01/31 18:47:10.7	73.900	0.260	0.110	0.130
2020/01/31 18:47:10.8	73.910	0.220	0.240	0.160
2020/01/31 18:47:10.9	73.910	0.180	0.370	0.200
2020/01/31 18:47:11.0	73.910	0.140	0.480	0.230
2020/01/31 18:47:11.1	73.920	0.100	0.600	0.270
2020/01/31 18:47:11.2	73.920	0.060	0.710	0.300
2020/01/31 18:47:11.3	73.920	0.020	0.810	0.340
2020/01/31 18:47:11.4	73.920	-0.020	0.900	0.370
2020/01/31 18:47:11.5	73.920	-0.050	0.990	0.400
2020/01/31 18:47:11.6	73.910	-0.090	1.060	0.440
2020/01/31 18:47:11.7	73.910	-0.120	1.130	0.470
2020/01/31 18:47:11.8	73.910	-0.160	1.190	0.500
2020/01/31 18:47:11.9	73.910	-0.190	1.240	0.530
2020/01/31 18:47:12.0	73.900	-0.220	1.280	0.560
2020/01/31 18:47:12.1	73.900	-0.240	1.310	0.580
2020/01/31 18:47:12.2	73.890	-0.260	1.330	0.600
2020/01/31 18:47:12.3	73.890	-0.280	1.340	0.630
2020/01/31 18:47:12.4	73.880	-0.300	1.350	0.640
2020/01/31 18:47:12.5	73.880	-0.320	1.340	0.660
2020/01/31 18:47:12.6	73.880	-0.330	1.320	0.670
2020/01/31 18:47:12.7	73.870	-0.330	1.290	0.680
2020/01/31 18:47:12.8	73.870	-0.340	1.250	0.690
2020/01/31 18:47:12.9	73.870	-0.340	1.200	0.700
2020/01/31 18:47:13.0	73.880	-0.340	1.150	0.700
2020/01/31 18:47:13.1	73.880	-0.340	1.090	0.690
2020/01/31 18:47:13.2	73.890	-0.330	1.020	0.690
2020/01/31 18:47:13.3	73.900	-0.320	0.940	0.680
2020/01/31 18:47:13.4	73.910	-0.310	0.860	0.670
2020/01/31 18:47:13.5	73.920	-0.290	0.780	0.650
2020/01/31 18:47:13.6	73.930	-0.280	0.680	0.640
2020/01/31 18:47:13.7	73.950	-0.260	0.590	0.620
2020/01/31 18:47:13.8	73.970	-0.240	0.490	0.600
2020/01/31 18:47:13.9	73.990	-0.220	0.390	0.580
2020/01/31 18:47:14.0	74.010	-0.190	0.290	0.550
2020/01/31 18:47:14.1	74.040	-0.170	0.190	0.530
2020/01/31 18:47:14.2	74.060	-0.150	0.090	0.510
2020/01/31 18:47:14.3	74.080	-0.120	-0.000	0.480
2020/01/31 18:47:14.4	74.100	-0.100	-0.100	0.460
2020/01/31 18:47:14.5	74.120	-0.070	-0.190	0.440
2020/01/31 18:47:14.6	74.140	-0.050	-0.280	0.420
2020/01/31 18:47:14.7	74.160	-0.030	-0.370	0.400
2020/01/31 18:47:14.8	74.180	-0.010	-0.460	0.390
2020/01/31 18:47:14.9	74.200	0.010	-0.530	0.380
2020/01/31 18:47:15.0	74.210	0.030	-0.600	0.370
2020/01/31 18:47:15.1	74.220	0.050	-0.670	0.360
2020/01/31 18:47:15.2	74.230	0.070	-0.730	0.350
2020/01/31 18:47:15.3	74.240	0.080	-0.780	0.340
2020/01/31 18:47:15.4	74.240	0.090	-0.820	0.340
2020/01/31 18:47:15.5	74.240	0.100	-0.860	0.340
2020/01/31 18:47:15.6	74.240	0.110	-0.890	0.340
2020/01/31 18:47:15.7	74.240	0.120	-0.920	0.340
2020/01/31 18:47:15.8	74.230	0.130	-0.940	0.350
2020/01/31 18:47:15.9	74.220	0.130	-0.950	0.350
2020/01/31 18:47:16.0	74.210	0.130	-0.960	0.360
2020/01/31 18:47:16.1	74.200	0.130	-0.960	0.370
2020/01/31 18:47:16.2	74.190	0.130	-0.960	0.370
2020/01/31 18:47:16.3	74.170	0.130	-0.950	0.380
2020/01/31 18:47:16.4	74.160	0.130	-0.930	0.390
2020/01/31 18:47:16.5	74.140	0.130	-0.920	0.400
2020/01/31 18:47:16.6	74.120	0.130	-0.900	0.400
2020/01/31 18:47:16.7	74.100	0.120	-0.870	0.410
2020/01/31 18:47:16.8	74.080	0.120	-0.840	0.410
2020/01/31 18:47:16.9	74.070	0.120	-0.820	0.420
2020/01/31 18:47:17.0	74.050	0.110	-0.790	0.420
2020/01/31 18:47:17.1	74.030	0.110	-0.760	0.420
2020/01/31 18:47:17.2	74.010	0.110	-0.730	0.420
2020/01/31 18:47:17.3	74.000	0.110	-0.700	0.420
2020/01/31 18:47:17.4	73.980	0.110	-0.680	0.410
2020/01/31 18:47:17.5	73.970	0.120	-0.650	0.410
2020/01/31 18:47:17.6	73.950	0.120	-0.630	0.400
2020/01/31 18:47:17.7	73.940	0.130	-0.600	0.390
2020/01/31 18:47:17.8	73.930	0.130	-0.590	0.380
2020/01/31 18:47:17.9	73.920	0.140	-0.570	0.360
2020/01/31 18:47:18.0	73.910	0.150	-0.560	0.350
2020/01/31 18:47:18.1	73.910	0.150	-0.540	0.330
2020/01/31 18:47:18.2	73.900	0.160	-0.530	0.310
2020/01/31 18:47:18.3	73.900	0.170	-0.530	0.290
2020/01/31 18:47:18.4	73.910	0.180	-0.520	0.270
2020/01/31 18:47:18.5	73.910	0.190	-0.520	0.250
2020/01/31 18:47:18.6	73.920	0.200	-0.520	0.230
2020/01/31 18:47:18.7	73.930	0.210	-0.520	0.200
2020/01/31 18:47:18.8	73.940	0.220	-0.520	0.180
2020/01/31 18:47:18.9	73.960	0.230	-0.520	0.150
2020/01/31 18:47:19.0	73.970	0.240	-0.520	0.130
2020/01/31 18:47:19.1	73.990	0.250	-0.520	0.100
2020/01/31 18:47:19.2	74.010	0.250	-0.510	0.070
2020/01/31 18:47:19.3	74.030	0.260	-0.510	0.050
2020/01/31 18:47:19.4	74.060	0.260	-0.510	0.020
2020/01/31 18:47:19.5	74.080	0.260	-0.500	-0.000
2020/01/31 18:47:19.6	74.110	0.260	-0.490	-0.020
2020/01/31 18:47:19.7	74.140	0.260	-0.470	-0.050
2020/01/31 18:47:19.8	74.170	0.250	-0.460	-0.060
2020/01/31 18:47:19.9	74.190	0.240	-0.430	-0.080
2020/01/31 18:47:20.0	74.220	0.230	-0.410	-0.100
2020/01/31 18:47:20.1	74.250	0.220	-0.380	-0.110
2020/01/31 18:47:20.2	74.270	0.210	-0.340	-0.130
2020/01/31 18:47:20.3	74.290	0.190	-0.310	-0.140
2020/01/31 18:47:20.4	74.320	0.170	-0.260	-0.150
2020/01/31 18:47:20.5	74.330	0.150	-0.220	-0.150
2020/01/31 18:47:20.6	74.350	0.120	-0.160	-0.150
2020/01/31 18:47:20.7	74.370	0.100	-0.110	-0.160
2020/01/31 18:47:20.8	74.390	0.070	-0.050	-0.160
2020/01/31 18:47:20.9	74.400	0.040	0.010	-0.150
2020/01/31 18:47:21.0	74.400	0.010	0.070	-0.150
2020/01/31 18:47:21.1	74.410	-0.020	0.140	-0.140
2020/01/31 18:47:21.2	74.420	-0.050	0.200	-0.130
2020/01/31 18:47:21.3	74.420	-0.080	0.270	-0.120
2020/01/31 18:47:21.4	74.420	-0.110	0.330	-0.100
2020/01/31 18:47:21.5	74.420	-0.150	0.400	-0.090
2020/01/31 18:47:21.6	74.410	-0.180	0.460	-0.070
2020/01/31 18:47:21.7	74.410	-0.210	0.520	-0.050
2020/01/31 18:47:21.8	74.410	-0.240	0.570	-0.030
2020/01/31 18:47:21.9	74.400	-0.270	0.620	-0.010
2020/01/31 18:47:22.0	74.390	-0.300	0.660	0.010
2020/01/31 18:47:22.1	74.380	-0.320	0.700	0.030
2020/01/31 18:47:22.2	74.380	-0.350	0.740	0.050
2020/01/31 18:47:22.3	74.370	-0.370	0.770	0.070
2020/01/31 18:47:22.4	74.360	-0.390	0.790	0.090
2020/01/31 18:47:22.5	74.350	-0.410	0.800	0.100
2020/01/31 18:47:22.6	74.340	-0.420	0.810	0.120
2020/01/31 18:47:22.7	74.330	-0.430	0.810	0.140
2020/01/31 18:47:22.8	74.330	-0.440	0.800	0.160
2020/01/31 18:47:22.9	74.320	-0.450	0.780	0.170
2020/01/31 18:47:23.0	74.310	-0.450	0.760	0.180
2020/01/31 18:47:23.1	74.300	-0.450	0.730	0.200
2020/01/31 18:47:23.2	74.300	-0.450	0.690	0.210
2020/01/31 18:47:23.3	74.290	-0.450	0.650	0.220
2020/01/31 18:47:23.4	74.290	-0.440	0.600	0.220
2020/01/31 18:47:23.5	74.280	-0.430	0.540	0.230
2020/01/31 18:47:23.6	74.280	-0.420	0.480	0.230
2020/01/31 18:47:23.7	74.280	-0.400	0.410	0.240
2020/01/31 18:47:23.8	74.280	-0.380	0.340	0.240
2020/01/31 18:47:23.9	74.280	-0.360	0.270	0.240
2020/01/31 18:47:24.0	74.280	-0.340	0.190	0.240
2020/01/31 18:47:24.1	74.280	-0.320	0.120	0.230
2020/01/31 18:47:24.2	74.290	-0.290	0.040	0.230
2020/01/31 18:47:24.3	74.290	-0.270	-0.040	0.230
2020/01/31 18:47:24.4	74.300	-0.240	-0.120	0.220
2020/01/31 18:47:24.5	74.310	-0.210	-0.200	0.220
2020/01/31 18:47:24.6	74.310	-0.180	-0.280	0.210
2020/01/31 18:47:24.7	74.320	-0.150	-0.350	0.200
2020/01/31 18:47:24.8	74.330	-0.130	-0.420	0.200
2020/01/31 18:47:24.9	74.340	-0.100	-0.490	0.190
2020/01/31 18:47:25.0	74.350	-0.070	-0.560	0.180
2020/01/31 18:47:25.1	74.360	-0.040	-0.610	0.170
2020/01/31 18:47:25.2	74.380	-0.010	-0.670	0.170
2020/01/31 18:47:25.3	74.390	0.010	-0.720	0.160
2020/01/31 18:47:25.4	74.400	0.040	-0.760	0.150
2020/01/31 18:47:25.5	74.420	0.060	-0.800	0.150
2020/01/31 18:47:25.6	74.430	0.080	-0.830	0.140
2020/01/31 18:47:25.7	74.450	0.110	-0.850	0.140
2020/01/31 18:47:25.8	74.470	0.120	-0.870	0.130
2020/01/31 18:47:25.9	74.480	0.140	-0.880	0.130
2020/01/31 18:47:26.0	74.500	0.160	-0.890	0.130
2020/01/31 18:47:26.1	74.520	0.180	-0.890	0.130
2020/01/31 18:47:26.2	74.530	0.190	-0.880	0.120
2020/01/31 18:47:26.3	74.540	0.200	-0.880	0.120
2020/01/31 18:47:26.4	74.560	0.210	-0.860	0.120
2020/01/31 18:47:26.5	74.570	0.220	-0.840	0.120
2020/01/31 18:47:26.6	74.580	0.230	-0.820	0.120
2020/01/31 18:47:26.7	74.590	0.230	-0.790	0.120
2020/01/31 18:47:26.8	74.610	0.240	-0.760	0.130
2020/01/31 18:47:26.9	74.630	0.240	-0.730	0.130
2020/01/31 18:47:27.0	74.640	0.250	-0.690	0.130
2020/01/31 18:47:27.1	74.640	0.250	-0.660	0.130
2020/01/31 18:47:27.2	74.650	0.250	-0.620	0.130
2020/01/31 18:47:27.3	74.660	0.250	-0.580	0.140
2020/01/31 18:47:27.4	74.670	0.250	-0.540	0.140
2020/01/31 18:47:27.5	74.680	0.250	-0.500	0.140
2020/01/31 18:47:27.6	74.690	0.250	-0.460	0.140
2020/01/31 18:47:27.7	74.690	0.250	-0.430	0.140
2020/01/31 18:47:27.8	74.700	0.250	-0.390	0.140
2020/01/31 18:47:27.9	74.710	0.250	-0.360	0.150
2020/01/31 18:47:28.0	74.710	0.240	-0.320	0.150
2020/01/31 18:47:28.1	74.710	0.240	-0.290	0.150
2020/01/31 18:47:28.2	74.720	0.240	-0.260	0.150
2020/01/31 18:47:28.3	74.720	0.230	-0.230	0.160
2020/01/31 18:47:28.4	74.720	0.230	-0.200	0.160
2020/01/31 18:47:28.5	74.720	0.230	-0.170	0.170
2020/01/31 18:47:28.6	74.720	0.220	-0.150	0.170
2020/01/31 18:47:28.7	74.710	0.220	-0.130	0.180
2020/01/31 18:47:28.8	74.710	0.210	-0.110	0.190
2020/01/31 18:47:28.9	74.710	0.210	-0.090	0.200
2020/01/31 18:47:29.0	74.700	0.200	-0.080	0.220
2020/01/31 18:47:29.1	74.690	0.190	-0.070	0.230
2020/01/31 18:47:29.2	74.680	0.190	-0.060	0.250
2020/01/31 18:47:29.3	74.670	0.180	-0.060	0.270
2020/01/31 18:47:29.4	74.660	0.170	-0.050	0.290
2020/01/31 18:47:29.5	74.650	0.170	-0.050	0.310
2020/01/31 18:47:29.6	74.640	0.160	-0.050	0.340
2020/01/31 18:47:29.7	74.630	0.150	-0.060	0.360
2020/01/31 18:47:29.8	74.600	0.140	-0.060	0.390
2020/01/31 18:47:29.9	74.590	0.130	-0.070	0.410
2020/01/31 18:47:30.0	74.570	0.120	-0.080	0.440
2020/01/31 18:47:30.1	74.560	0.110	-0.090	0.460
2020/01/31 18:47:30.2	74.550	0.100	-0.100	0.480
2020/01/31 18:47:30.3	74.530	0.090	-0.110	0.510
2020/01/31 18:47:30.4	74.520	0.080	-0.120	0.530
2020/01/31 18:47:30.5	74.510	0.070	-0.130	0.540
2020/01/31 18:47:30.6	74.500	0.050	-0.140	0.560
2020/01/31 18:47:30.7	74.490	0.040	-0.150	0.570
2020/01/31 18:47:30.8	74.490	0.030	-0.150	0.580
2020/01/31 18:47:30.9	74.480	0.020	-0.160	0.590
2020/01/31 18:47:31.0	74.480	0.000	-0.160	0.590
2020/01/31 18:47:31.1	74.480	-0.010	-0.170	0.590
2020/01/31 18:47:31.2	74.480	-0.020	-0.170	0.590
2020/01/31 18:47:31.3	74.480	-0.040	-0.170	0.590
2020/01/31 18:47:31.4	74.480	-0.050	-0.170	0.580
2020/01/31 18:47:31.5	74.490	-0.060	-0.170	0.570
2020/01/31 18:47:31.6	74.490	-0.080	-0.170	0.550
2020/01/31 18:47:31.7	74.500	-0.090	-0.160	0.540
2020/01/31 18:47:31.8	74.510	-0.100	-0.150	0.530
2020/01/31 18:47:31.9	74.510	-0.120	-0.140	0.510
2020/01/31 18:47:32.0	74.520	-0.130	-0.130	0.490
2020/01/31 18:47:32.1	74.540	-0.140	-0.110	0.470
2020/01/31 18:47:32.2	74.550	-0.150	-0.090	0.450
2020/01/31 18:47:32.3	74.560	-0.160	-0.070	0.430
2020/01/31 18:47:32.4	74.570	-0.180	-0.050	0.410
2020/01/31 18:47:32.5	74.590	-0.190	-0.030	0.390
2020/01/31 18:47:32.6	74.600	-0.200	-0.010	0.370
2020/01/31 18:47:32.7	74.620	-0.210	0.010	0.350
2020/01/31 18:47:32.8	74.630	-0.220	0.040	0.330
2020/01/31 18:47:32.9	74.650	-0.230	0.060	0.310
2020/01/31 18:47:33.0	74.670	-0.240	0.080	0.300
2020/01/31 18:47:33.1	74.690	-0.250	0.100	0.280
2020/01/31 18:47:33.2	74.710	-0.250	0.120	0.260
2020/01/31 18:47:33.3	74.730	-0.260	0.140	0.250
2020/01/31 18:47:33.4	74.750	-0.270	0.160	0.240
2020/01/31 18:47:33.5	74.780	-0.270	0.170	0.230
2020/01/31 18:47:33.6	74.800	-0.280	0.180	0.220
2020/01/31 18:47:33.7	74.830	-0.280	0.190	0.210
2020/01/31 18:47:33.8	74.850	-0.280	0.200	0.200
2020/01/31 18:47:33.9	74.880	-0.280	0.200	0.190
2020/01/31 18:47:34.0	74.900	-0.280	0.200	0.190
2020/01/31 18:47:34.1	74.930	-0.280	0.200	0.180
2020/01/31 18:47:34.2	74.960	-0.280	0.190	0.180
2020/01/31 18:47:34.3	74.980	-0.270	0.180	0.180
2020/01/31 18:47:34.4	75.010	-0.270	0.170	0.180
2020/01/31 18:47:34.5	75.030	-0.260	0.160	0.180
2020/01/31 18:47:34.6	75.060	-0.250	0.150	0.180
2020/01/31 18:47:34.7	75.080	-0.240	0.130	0.180
2020/01/31 18:47:34.8	75.110	-0.230	0.110	0.180
2020/01/31 18:47:34.9	75.130	-0.220	0.090	0.190
2020/01/31 18:47:35.0	75.150	-0.210	0.070	0.190
2020/01/31 18:47:35.1	75.170	-0.190	0.040	0.190
2020/01/31 18:47:35.2	75.190	-0.180	0.020	0.200
2020/01/31 18:47:35.3	75.200	-0.160	-0.010	0.200
2020/01/31 18:47:35.4	75.220	-0.140	-0.040	0.210
2020/01/31 18:47:35.5	75.230	-0.120	-0.070	0.210
2020/01/31 18:47:35.6	75.240	-0.100	-0.100	0.210
2020/01/31 18:47:35.7	75.260	-0.080	-0.130	0.210
2020/01/31 18:47:35.8	75.260	-0.060	-0.160	0.220
2020/01/31 18:47:35.9	75.270	-0.040	-0.200	0.220
2020/01/31 18:47:36.0	75.280	-0.020	-0.230	0.220
2020/01/31 18:47:36.1	75.290	0.000	-0.270	0.220
2020/01/31 18:47:36.2	75.300	0.030	-0.300	0.210
2020/01/31 18:47:36.3	75.310	0.050	-0.340	0.210
2020/01/31 18:47:36.4	75.320	0.070	-0.370	0.210
2020/01/31 18:47:36.5	75.330	0.090	-0.400	0.200
2020/01/31 18:47:36.6	75.340	0.110	-0.440	0.200
2020/01/31 18:47:36.7	75.350	0.130	-0.470	0.190
2020/01/31 18:47:36.8	75.370	0.150	-0.500	0.190
2020/01/31 18:47:36.9	75.370	0.170	-0.530	0.180
2020/01/31 18:47:37.0	75.380	0.190	-0.560	0.180
2020/01/31 18:47:37.1	75.390	0.210	-0.590	0.170
2020/01/31 18:47:37.2	75.400	0.220	-0.610	0.170
2020/01/31 18:47:37.3	75.410	0.240	-0.630	0.160
2020/01/31 18:47:37.4	75.420	0.250	-0.650	0.160
2020/01/31 18:47:37.5	75.420	0.260	-0.670	0.160
2020/01/31 18:47:37.6	75.430	0.270	-0.680	0.170
2020/01/31 18:47:37.7	75.430	0.280	-0.690	0.170
2020/01/31 18:47:37.8	75.430	0.280	-0.700	0.180
2020/01/31 18:47:37.9	75.430	0.280	-0.700	0.180
2020/01/31 18:47:38.0	75.430	0.290	-0.700	0.190
2020/01/31 18:47:38.1	75.430	0.290	-0.690	0.200
2020/01/31 18:47:38.2	75.420	0.290	-0.680	0.220
2020/01/31 18:47:38.3	75.420	0.280	-0.670	0.230
2020/01/31 18:47:38.4	75.410	0.280	-0.650	0.240
2020/01/31 18:47:38.5	75.410	0.270	-0.630	0.260
2020/01/31 18:47:38.6	75.400	0.260	-0.610	0.280
2020/01/31 18:47:38.7	75.390	0.250	-0.580	0.290
2020/01/31 18:47:38.8	75.370	0.240	-0.550	0.310
2020/01/31 18:47:38.9	75.360	0.230	-0.520	0.330
2020/01/31 18:47:39.0	75.340	0.220	-0.480	0.350
2020/01/31 18:47:39.1	75.330	0.200	-0.450	0.360
2020/01/31 18:47:39.2	75.320	0.190	-0.410	0.380
2020/01/31 18:47:39.3	75.300	0.170	-0.370	0.390
2020/01/31 18:47:39.4	75.290	0.150	-0.330	0.400
2020/01/31 18:47:39.5	75.270	0.140	-0.290	0.410
2020/01/31 18:47:39.6	75.260	0.120	-0.250	0.420
2020/01/31 18:47:39.7	75.250	0.100	-0.210	0.430
2020/01/31 18:47:39.8	75.230	0.090	-0.160	0.430
2020/01/31 18:47:39.9	75.210	0.070	-0.120	0.440
2020/01/31 18:47:40.0	75.200	0.050	-0.090	0.440
2020/01/31 18:47:40.1	75.190	0.040	-0.050	0.430
2020/01/31 18:47:40.2	75.180	0.020	-0.010	0.430
2020/01/31 18:47:40.3	75.170	0.010	0.020	0.420
2020/01/31 18:47:40.4	75.160	-0.000	0.050	0.410
2020/01/31 18:47:40.5	75.160	-0.020	0.080	0.400
2020/01/31 18:47:40.6	75.150	-0.030	0.110	0.390
2020/01/31 18:47:40.7	75.150	-0.040	0.140	0.380
2020/01/31 18:47:40.8	75.150	-0.050	0.160	0.360
2020/01/31 18:47:40.9	75.150	-0.050	0.180	0.350
2020/01/31 18:47:41.0	75.150	-0.060	0.200	0.330
2020/01/31 18:47:41.1	75.150	-0.070	0.210	0.310
2020/01/31 18:47:41.2	75.150	-0.070	0.220	0.290
2020/01/31 18:47:41.3	75.160	-0.070	0.230	0.270
2020/01/31 18:47:41.4	75.170	-0.080	0.230	0.240
2020/01/31 18:47:41.5	75.180	-0.080	0.230	0.220
2020/01/31 18:47:41.6	75.190	-0.080	0.230	0.200
2020/01/31 18:47:41.7	75.200	-0.080	0.220	0.180
2020/01/31 18:47:41.8	75.210	-0.080	0.210	0.160
2020/01/31 18:47:41.9	75.230	-0.080	0.200	0.140
2020/01/31 18:47:42.0	75.240	-0.080	0.190	0.120
2020/01/31 18:47:42.1	75.260	-0.070	0.180	0.100
2020/01/31 18:47:42.2	75.270	-0.070	0.160	0.080
2020/01/31 18:47:42.3	75.290	-0.070	0.150	0.070
2020/01/31 18:47:42.4	75.310	-0.070	0.130	0.050
2020/01/31 18:47:42.5	75.320	-0.070	0.110	0.040
2020/01/31 18:47:42.6	75.340	-0.070	0.100	0.030
2020/01/31 18:47:42.7	75.360	-0.070	0.080	0.030
2020/01/31 18:47:42.8	75.380	-0.070	0.060	0.020
2020/01/31 18:47:42.9	75.390	-0.070	0.050	0.020
2020/01/31 18:47:43.0	75.410	-0.070	0.030	0.020
2020/01/31 18:47:43.1	75.430	-0.070	0.020	0.020
2020/01/31 18:47:43.2	75.450	-0.070	0.000	0.020
2020/01/31 18:47:43.3	75.470	-0.070	-0.010	0.020
2020/01/31 18:47:43.4	75.480	-0.080	-0.030	0.020
2020/01/31 18:47:43.5	75.500	-0.080	-0.040	0.020
2020/01/31 18:47:43.6	75.520	-0.090	-0.060	0.030
2020/01/31 18:47:43.7	75.540	-0.090	-0.070	0.030
2020/01/31 18:47:43.8	75.560	-0.100	-0.090	0.040
2020/01/31 18:47:43.9	75.590	-0.110	-0.100	0.040
2020/01/31 18:47:44.0	75.610	-0.120	-0.120	0.040
2020/01/31 18:47:44.1	75.630	-0.130	-0.130	0.040
2020/01/31 18:47:44.2	75.660	-0.140	-0.150	0.040
2020/01/31 18:47:44.3	75.680	-0.150	-0.160	0.030
2020/01/31 18:47:44.4	75.710	-0.160	-0.180	0.030
2020/01/31 18:47:44.5	75.730	-0.170	-0.200	0.020
2020/01/31 18:47:44.6	75.760	-0.180	-0.220	0.010
2020/01/31 18:47:44.7	75.790	-0.190	-0.240	0.000
2020/01/31 18:47:44.8	75.810	-0.200	-0.260	-0.010
2020/01/31 18:47:44.9	75.840	-0.210	-0.280	-0.020
2020/01/31 18:47:45.0	75.870	-0.210	-0.300	-0.040
2020/01/31 18:47:45.1	75.890	-0.220	-0.310	-0.050
2020/01/31 18:47:45.2	75.920	-0.230	-0.330	-0.070
2020/01/31 18:47:45.3	75.950	-0.230	-0.350	-0.080
2020/01/31 18:47:45.4	75.970	-0.230	-0.360	-0.100
2020/01/31 18:47:45.5	76.000	-0.240	-0.380	-0.110
2020/01/31 18:47:45.6	76.030	-0.240	-0.390	-0.130
2020/01/31 18:47:45.7	76.050	-0.230	-0.400	-0.140
2020/01/31 18:47:45.8	76.070	-0.230	-0.410	-0.150
2020/01/31 18:47:45.9	76.090	-0.220	-0.420	-0.160
2020/01/31 18:47:46.0	76.120	-0.220	-0.430	-0.160
2020/01/31 18:47:46.1	76.140	-0.210	-0.430	-0.170
2020/01/31 18:47:46.2	76.150	-0.190	-0.430	-0.170
2020/01/31 18:47:46.3	76.170	-0.180	-0.430	-0.170
2020/01/31 18:47:46.4	76.190	-0.170	-0.430	-0.160
2020/01/31 18:47:46.5	76.200	-0.150	-0.430	-0.150
2020/01/31 18:47:46.6	76.220	-0.130	-0.420	-0.140
2020/01/31 18:47:46.7	76.230	-0.110	-0.410	-0.120
2020/01/31 18:47:46.8	76.230	-0.100	-0.410	-0.100
2020/01/31 18:47:46.9	76.240	-0.080	-0.400	-0.080
2020/01/31 18:47:47.0	76.250	-0.060	-0.390	-0.050
2020/01/31 18:47:47.1	76.260	-0.030	-0.380	-0.020
2020/01/31 18:47:47.2	76.260	-0.010	-0.370	0.010
2020/01/31 18:47:47.3	76.260	0.000	-0.350	0.050
2020/01/31 18:47:47.4	76.270	0.020	-0.340	0.090
2020/01/31 18:47:47.5	76.270	0.040	-0.330	0.130
2020/01/31 18:47:47.6	76.270	0.060	-0.310	0.180
2020/01/31 18:47:47.7	76.270	0.080	-0.300	0.230
2020/01/31 18:47:47.8	76.270	0.090	-0.290	0.270
2020/01/31 18:47:47.9	76.260	0.100	-0.270	0.330
2020/01/31 18:47:48.0	76.260	0.110	-0.260	0.380
2020/01/31 18:47:48.1	76.250	0.130	-0.250	0.430
2020/01/31 18:47:48.2	76.250	0.130	-0.230	0.490
2020/01/31 18:47:48.3	76.240	0.140	-0.220	0.540
2020/01/31 18:47:48.4	76.230	0.150	-0.210	0.590
2020/01/31 18:47:48.5	76.220	0.150	-0.200	0.650
2020/01/31 18:47:48.6	76.220	0.150	-0.190	0.700
2020/01/31 18:47:48.7	76.210	0.160	-0.190	0.750
2020/01/31 18:47:48.8	76.210	0.160	-0.180	0.800
2020/01/31 18:47:48.9	76.200	0.160	-0.170	0.840
2020/01/31 18:47:49.0	76.190	0.160	-0.170	0.890
2020/01/31 18:47:49.1	76.180	0.160	-0.170	0.930
2020/01/31 18:47:49.2	76.170	0.150	-0.170	0.970
2020/01/31 18:47:49.3	76.170	0.150	-0.170	1.000
2020/01/31 18:47:49.4	76.160	0.150	-0.180	1.030
2020/01/31 18:47:49.5	76.150	0.150	-0.180	1.060
2020/01/31 18:47:49.6	76.150	0.150	-0.190	1.090
2020/01/31 18:47:49.7	76.150	0.150	-0.200	1.110
2020/01/31 18:47:49.8	76.150	0.150	-0.210	1.130
2020/01/31 18:47:49.9	76.150	0.150	-0.220	1.150
2020/01/31 18:47:50.0	76.150	0.150	-0.230	1.160
2020/01/31 18:47:50.1	76.150	0.160	-0.240	1.170
2020/01/31 18:47:50.2	76.160	0.170	-0.250	1.180
2020/01/31 18:47:50.3	76.160	0.170	-0.260	1.180
2020/01/31 18:47:50.4	76.170	0.180	-0.280	1.180
2020/01/31 18:47:50.5	76.180	0.190	-0.290	1.180
2020/01/31 18:47:50.6	76.190	0.200	-0.290	1.170
2020/01/31 18:47:50.7	76.200	0.210	-0.300	1.160
2020/01/31 18:47:50.8	76.210	0.220	-0.300	1.150
2020/01/31 18:47:50.9	76.220	0.230	-0.310	1.140
2020/01/31 18:47:51.0	76.230	0.240	-0.310	1.130
2020/01/31 18:47:51.1	76.240	0.250	-0.300	1.110
2020/01/31 18:47:51.2	76.260	0.260	-0.300	1.090
2020/01/31 18:47:51.3	76.270	0.270	-0.290	1.070
2020/01/31 18:47:51.4	76.280	0.270	-0.280	1.050
2020/01/31 18:47:51.5	76.280	0.280	-0.260	1.030
2020/01/31 18:47:51.6	76.290	0.280	-0.240	1.010
2020/01/31 18:47:51.7	76.300	0.270	-0.220	0.990
2020/01/31 18:47:51.8	76.310	0.270	-0.190	0.960
2020/01/31 18:47:51.9	76.310	0.260	-0.160	0.940
2020/01/31 18:47:52.0	76.310	0.250	-0.120	0.910
2020/01/31 18:47:52.1	76.310	0.230	-0.090	0.880
2020/01/31 18:47:52.2	76.300	0.210	-0.050	0.850
2020/01/31 18:47:52.3	76.300	0.190	-0.010	0.820
2020/01/31 18:47:52.4	76.290	0.170	0.030	0.790
2020/01/31 18:47:52.5	76.280	0.140	0.070	0.760
2020/01/31 18:47:52.6	76.270	0.110	0.120	0.730
2020/01/31 18:47:52.7	76.250	0.070	0.160	0.690
2020/01/31 18:47:52.8	76.240	0.030	0.200	0.660
2020/01/31 18:47:52.9	76.230	-0.010	0.240	0.620
2020/01/31 18:47:53.0	76.210	-0.050	0.280	0.570
2020/01/31 18:47:53.1	76.200	-0.090	0.320	0.530
2020/01/31 18:47:53.2	76.190	-0.130	0.350	0.490
2020/01/31 18:47:53.3	76.170	-0.180	0.380	0.440
2020/01/31 18:47:53.4	76.160	-0.220	0.410	0.390
2020/01/31 18:47:53.5	76.150	-0.270	0.440	0.340
2020/01/31 18:47:53.6	76.140	-0.310	0.460	0.290
2020/01/31 18:47:53.7	76.130	-0.350	0.470	0.230
2020/01/31 18:47:53.8	76.130	-0.390	0.480	0.170
2020/01/31 18:47:53.9	76.120	-0.430	0.490	0.110
2020/01/31 18:47:54.0	76.120	-0.470	0.490	0.050
2020/01/31 18:47:54.1	76.120	-0.500	0.480	-0.010
2020/01/31 18:47:54.2	76.130	-0.530	0.470	-0.070
2020/01/31 18:47:54.3	76.130	-0.560	0.460	-0.140
2020/01/31 18:47:54.4	76.140	-0.580	0.440	-0.210
2020/01/31 18:47:54.5	76.150	-0.600	0.410	-0.270
2020/01/31 18:47:54.6	76.160	-0.610	0.380	-0.340
2020/01/31 18:47:54.7	76.180	-0.620	0.340	-0.410
2020/01/31 18:47:54.8	76.190	-0.630	0.300	-0.480
2020/01/31 18:47:54.9	76.220	-0.630	0.260	-0.550
2020/01/31 18:47:55.0	76.240	-0.620	0.210	-0.620
2020/01/31 18:47:55.1	76.260	-0.610	0.160	-0.690
2020/01/31 18:47:55.2	76.290	-0.590	0.100	-0.750
2020/01/31 18:47:55.3	76.310	-0.570	0.040	-0.820
2020/01/31 18:47:55.4	76.340	-0.550	-0.020	-0.880
2020/01/31 18:47:55.5	76.380	-0.520	-0.090	-0.950
2020/01/31 18:47:55.6	76.410	-0.480	-0.150	-1.010
2020/01/31 18:47:55.7	76.440	-0.450	-0.220	-1.070
2020/01/31 18:47:55.8	76.470	-0.400	-0.290	-1.120
2020/01/31 18:47:55.9	76.510	-0.360	-0.360	-1.170
2020/01/31 18:47:56.0	76.550	-0.310	-0.430	-1.220
2020/01/31 18:47:56.1	76.590	-0.260	-0.490	-1.270
2020/01/31 18:47:56.2	76.620	-0.210	-0.560	-1.310
2020/01/31 18:47:56.3	76.660	-0.160	-0.620	-1.350
2020/01/31 18:47:56.4	76.700	-0.100	-0.690	-1.390
2020/01/31 18:47:56.5	76.740	-0.050	-0.750	-1.420
2020/01/31 18:47:56.6	76.780	0.010	-0.800	-1.440
2020/01/31 18:47:56.7	76.810	0.070	-0.860	-1.470
2020/01/31 18:47:56.8	76.840	0.120	-0.910	-1.480
2020/01/31 18:47:56.9	76.870	0.170	-0.950	-1.490
2020/01/31 18:47:57.0	76.910	0.230	-0.990	-1.490
2020/01/31 18:47:57.1	76.940	0.280	-1.030	-1.490
2020/01/31 18:47:57.2	76.970	0.330	-1.060	-1.480
2020/01/31 18:47:57.3	76.990	0.370	-1.090	-1.470
2020/01/31 18:47:57.4	77.020	0.420	-1.100	-1.450
2020/01/31 18:47:57.5	77.040	0.460	-1.120	-1.420
2020/01/31 18:47:57.6	77.070	0.500	-1.120	-1.390
2020/01/31 18:47:57.7	77.090	0.530	-1.130	-1.350
2020/01/31 18:47:57.8	77.100	0.560	-1.120	-1.300
2020/01/31 18:47:57.9	77.110	0.590	-1.110	-1.250
2020/01/31 18:47:58.0	77.120	0.610	-1.090	-1.190
2020/01/31 18:47:58.1	77.140	0.630	-1.070	-1.130
2020/01/31 18:47:58.2	77.140	0.650	-1.040	-1.060
2020/01/31 18:47:58.3	77.150	0.660	-1.010	-0.980
2020/01/31 18:47:58.4	77.150	0.660	-0.970	-0.900
2020/01/31 18:47:58.5	77.160	0.670	-0.930	-0.820
2020/01/31 18:47:58.6	77.160	0.660	-0.890	-0.730
2020/01/31 18:47:58.7	77.150	0.660	-0.840	-0.630
2020/01/31 18:47:58.8	77.150	0.650	-0.780	-0.530
2020/01/31 18:47:58.9	77.150	0.640	-0.730	-0.430
2020/01/31 18:47:59.0	77.140	0.620	-0.670	-0.320
2020/01/31 18:47:59.1	77.120	0.600	-0.600	-0.210
2020/01/31 18:47:59.2	77.110	0.580	-0.540	-0.100
2020/01/31 18:47:59.3	77.090	0.550	-0.470	0.010
2020/01/31 18:47:59.4	77.070	0.520	-0.400	0.130
2020/01/31 18:47:59.5	77.050	0.490	-0.340	0.250
2020/01/31 18:47:59.6	77.020	0.450	-0.270	0.360
2020/01/31 18:47:59.7	77.000	0.410	-0.200	0.480
2020/01/31 18:47:59.8	76.960	0.370	-0.120	0.600
2020/01/31 18:47:59.9	76.930	0.330	-0.050	0.720
2020/01/31 18:48:00.0	76.900	0.290	0.020	0.830
2020/01/31 18:48:00.1	76.870	0.250	0.080	0.940
2020/01/31 18:48:00.2	76.840	0.200	0.150	1.050
2020/01/31 18:48:00.3	76.800	0.160	0.210	1.150
2020/01/31 18:48:00.4	76.770	0.110	0.280	1.250
2020/01/31 18:48:00.5	76.740	0.060	0.340	1.350
2020/01/31 18:48:00.6	76.700	0.010	0.390	1.440
2020/01/31 18:48:00.7	76.670	-0.030	0.450	1.530
2020/01/31 18:48:00.8	76.630	-0.080	0.500	1.610
2020/01/31 18:48:00.9	76.590	-0.130	0.540	1.690
2020/01/31 18:48:01.0	76.560	-0.170	0.590	1.760
2020/01/31 18:48:01.1	76.530	-0.220	0.630	1.830
2020/01/31 18:48:01.2	76.490	-0.260	0.660	1.890
2020/01/31 18:48:01.3	76.460	-0.310	0.690	1.940
2020/01/31 18:48:01.4	76.430	-0.350	0.720	1.990
2020/01/31 18:48:01.5	76.400	-0.390	0.740	2.040
2020/01/31 18:48:01.6	76.370	-0.430	0.760	2.070
2020/01/31 18:48:01.7	76.340	-0.470	0.770	2.110
2020/01/31 18:48:01.8	76.320	-0.500	0.780	2.130
2020/01/31 18:48:01.9	76.300	-0.540	0.780	2.150
2020/01/31 18:48:02.0	76.270	-0.570	0.780	2.170
2020/01/31 18:48:02.1	76.250	-0.600	0.770	2.180
2020/01/31 18:48:02.2	76.230	-0.620	0.760	2.180
2020/01/31 18:48:02.3	76.210	-0.650	0.750	2.180
2020/01/31 18:48:02.4	76.190	-0.670	0.730	2.170
2020/01/31 18:48:02.5	76.180	-0.690	0.700	2.160
2020/01/31 18:48:02.6	76.170	-0.710	0.670	2.140
2020/01/31 18:48:02.7	76.160	-0.720	0.640	2.110
2020/01/31 18:48:02.8	76.160	-0.730	0.600	2.090
2020/01/31 18:48:02.9	76.160	-0.740	0.560	2.050
2020/01/31 18:48:03.0	76.160	-0.750	0.510	2.010
2020/01/31 18:48:03.1	76.170	-0.750	0.460	1.960
2020/01/31 18:48:03.2	76.170	-0.750	0.410	1.910
2020/01/31 18:48:03.3	76.180	-0.740	0.350	1.850
2020/01/31 18:48:03.4	76.200	-0.730	0.290	1.780
2020/01/31 18:48:03.5	76.210	-0.720	0.230	1.720
2020/01/31 18:48:03.6	76.230	-0.710	0.170	1.640
2020/01/31 18:48:03.7	76.260	-0.690	0.100	1.570
2020/01/31 18:48:03.8	76.280	-0.670	0.040	1.480
2020/01/31 18:48:03.9	76.310	-0.640	-0.030	1.400
2020/01/31 18:48:04.0	76.340	-0.620	-0.100	1.310
2020/01/31 18:48:04.1	76.370	-0.580	-0.180	1.220
2020/01/31 18:48:04.2	76.400	-0.550	-0.250	1.130
2020/01/31 18:48:04.3	76.440	-0.510	-0.320	1.030
2020/01/31 18:48:04.4	76.470	-0.470	-0.390	0.940
2020/01/31 18:48:04.5	76.510	-0.430	-0.460	0.840
2020/01/31 18:48:04.6	76.550	-0.390	-0.530	0.740
2020/01/31 18:48:04.7	76.590	-0.340	-0.600	0.640
2020/01/31 18:48:04.8	76.630	-0.290	-0.670	0.540
2020/01/31 18:48:04.9	76.670	-0.240	-0.730	0.440
2020/01/31 18:48:05.0	76.710	-0.190	-0.790	0.340
2020/01/31 18:48:05.1	76.750	-0.140	-0.850	0.240
2020/01/31 18:48:05.2	76.790	-0.080	-0.910	0.140
2020/01/31 18:48:05.3	76.830	-0.030	-0.960	0.040
2020/01/31 18:48:05.4	76.870	0.030	-1.010	-0.060
2020/01/31 18:48:05.5	76.910	0.080	-1.050	-0.150
2020/01/31 18:48:05.6	76.950	0.140	-1.090	-0.240
2020/01/31 18:48:05.7	76.980	0.190	-1.120	-0.330
2020/01/31 18:48:05.8	77.010	0.250	-1.150	-0.420
2020/01/31 18:48:05.9	77.040	0.300	-1.180	-0.500
2020/01/31 18:48:06.0	77.070	0.350	-1.190	-0.580
2020/01/31 18:48:06.1	77.100	0.400	-1.210	-0.650
2020/01/31 18:48:06.2	77.120	0.440	-1.210	-0.720
2020/01/31 18:48:06.3	77.140	0.490	-1.220	-0.780
2020/01/31 18:48:06.4	77.160	0.530	-1.210	-0.840
2020/01/31 18:48:06.5	77.180	0.570	-1.200	-0.890
2020/01/31 18:48:06.6	77.200	0.600	-1.180	-0.930
2020/01/31 18:48:06.7	77.210	0.630	-1.160	-0.970
2020/01/31 18:48:06.8	77.210	0.660	-1.130	-1.010
2020/01/31 18:48:06.9	77.220	0.680	-1.100	-1.030
2020/01/31 18:48:07.0	77.230	0.700	-1.060	-1.060
2020/01/31 18:48:07.1	77.230	0.720	-1.020	-1.080
2020/01/31 18:48:07.2	77.240	0.730	-0.970	-1.090
2020/01/31 18:48:07.3	77.240	0.740	-0.920	-1.100
2020/01/31 18:48:07.4	77.240	0.740	-0.860	-1.100
2020/01/31 18:48:07.5	77.240	0.740	-0.800	-1.090
2020/01/31 18:48:07.6	77.240	0.740	-0.740	-1.090
2020/01/31 18:48:07.7	77.230	0.730	-0.670	-1.080
2020/01/31 18:48:07.8	77.220	0.720	-0.600	-1.060
2020/01/31 18:48:07.9	77.210	0.700	-0.530	-1.040
2020/01/31 18:48:08.0	77.200	0.680	-0.450	-1.020
2020/01/31 18:48:08.1	77.200	0.660	-0.370	-0.990
2020/01/31 18:48:08.2	77.190	0.630	-0.300	-0.960
2020/01/31 18:48:08.3	77.170	0.600	-0.220	-0.920
2020/01/31 18:48:08.4	77.160	0.560	-0.130	-0.890
2020/01/31 18:48:08.5	77.150	0.530	-0.050	-0.850
2020/01/31 18:48:08.6	77.130	0.490	0.030	-0.810
2020/01/31 18:48:08.7	77.110	0.440	0.110	-0.760
2020/01/31 18:48:08.8	77.100	0.400	0.200	-0.720
2020/01/31 18:48:08.9	77.080	0.350	0.280	-0.670
2020/01/31 18:48:09.0	77.050	0.310	0.360	-0.620
2020/01/31 18:48:09.1	77.030	0.260	0.440	-0.570
2020/01/31 18:48:09.2	77.000	0.210	0.520	-0.520
2020/01/31 18:48:09.3	76.980	0.160	0.590	-0.460
2020/01/31 18:48:09.4	76.950	0.110	0.660	-0.410
2020/01/31 18:48:09.5	76.920	0.050	0.730	-0.350
2020/01/31 18:48:09.6	76.880	0.000	0.790	-0.290
2020/01/31 18:48:09.7	76.850	-0.050	0.850	-0.230
2020/01/31 18:48:09.8	76.830	-0.090	0.900	-0.170
2020/01/31 18:48:09.9	76.790	-0.140	0.950	-0.110
2020/01/31 18:48:10.0	76.760	-0.190	0.990	-0.040
2020/01/31 18:48:10.1	76.720	-0.230	1.030	0.020
2020/01/31 18:48:10.2	76.680	-0.280	1.060	0.090
2020/01/31 18:48:10.3	76.650	-0.320	1.080	0.150
2020/01/31 18:48:10.4	76.610	-0.350	1.100	0.220
2020/01/31 18:48:10.5	76.570	-0.390	1.110	0.280
2020/01/31 18:48:10.6	76.540	-0.420	1.110	0.350
2020/01/31 18:48:10.7	76.500	-0.450	1.100	0.410
2020/01/31 18:48:10.8	76.480	-0.470	1.080	0.480
2020/01/31 18:48:10.9	76.450	-0.500	1.050	0.540
2020/01/31 18:48:11.0	76.420	-0.520	1.020	0.610
2020/01/31 18:48:11.1	76.390	-0.530	0.980	0.670
2020/01/31 18:48:11.2	76.360	-0.540	0.930	0.730
2020/01/31 18:48:11.3	76.340	-0.550	0.870	0.790
2020/01/31 18:48:11.4	76.320	-0.550	0.800	0.840
2020/01/31 18:48:11.5	76.300	-0.550	0.720	0.900
2020/01/31 18:48:11.6	76.280	-0.550	0.640	0.950
2020/01/31 18:48:11.7	76.270	-0.550	0.550	0.990
2020/01/31 18:48:11.8	76.260	-0.540	0.460	1.040
2020/01/31 18:48:11.9	76.250	-0.520	0.360	1.080
2020/01/31 18:48:12.0	76.250	-0.510	0.260	1.110
2020/01/31 18:48:12.1	76.250	-0.490	0.150	1.140
2020/01/31 18:48:12.2	76.250	-0.460	0.030	1.170
2020/01/31 18:48:12.3	76.260	-0.440	-0.080	1.190
2020/01/31 18:48:12.4	76.270	-0.410	-0.200	1.200
2020/01/31 18:48:12.5	76.290	-0.380	-0.320	1.210
2020/01/31 18:48:12.6	76.300	-0.350	-0.450	1.220
2020/01/31 18:48:12.7	76.320	-0.310	-0.570	1.220
2020/01/31 18:48:12.8	76.350	-0.280	-0.690	1.220
2020/01/31 18:48:12.9	76.380	-0.240	-0.810	1.210
2020/01/31 18:48:13.0	76.410	-0.200	-0.920	1.200
2020/01/31 18:48:13.1	76.440	-0.170	-1.030	1.190
2020/01/31 18:48:13.2	76.470	-0.130	-1.140	1.170
2020/01/31 18:48:13.3	76.500	-0.090	-1.240	1.150
2020/01/31 18:48:13.4	76.530	-0.050	-1.330	1.130
2020/01/31 18:48:13.5	76.570	-0.010	-1.420	1.110
2020/01/31 18:48:13.6	76.600	0.020	-1.500	1.090
2020/01/31 18:48:13.7	76.630	0.060	-1.560	1.060
2020/01/31 18:48:13.8	76.670	0.090	-1.620	1.040
2020/01/31 18:48:13.9	76.700	0.130	-1.670	1.020
2020/01/31 18:48:14.0	76.730	0.160	-1.710	1.000
2020/01/31 18:48:14.1	76.760	0.190	-1.730	0.980
2020/01/31 18:48:14.2	76.780	0.220	-1.750	0.960
2020/01/31 18:48:14.3	76.810	0.240	-1.750	0.940
2020/01/31 18:48:14.4	76.830	0.270	-1.740	0.920
2020/01/31 18:48:14.5	76.850	0.290	-1.720	0.900
2020/01/31 18:48:14.6	76.870	0.310	-1.690	0.890
2020/01/31 18:48:14.7	76.890	0.320	-1.650	0.870
2020/01/31 18:48:14.8	76.900	0.340	-1.600	0.860
2020/01/31 18:48:14.9	76.910	0.350	-1.540	0.850
2020/01/31 18:48:15.0	76.920	0.360	-1.470	0.840
2020/01/31 18:48:15.1	76.930	0.360	-1.390	0.840
2020/01/31 18:48:15.2	76.940	0.370	-1.300	0.830
2020/01/31 18:48:15.3	76.940	0.370	-1.210	0.830
2020/01/31 18:48:15.4	76.940	0.370	-1.110	0.830
2020/01/31 18:48:15.5	76.940	0.370	-1.000	0.830
2020/01/31 18:48:15.6	76.930	0.360	-0.890	0.830
2020/01/31 18:48:15.7	76.930	0.350	-0.770	0.840
2020/01/31 18:48:15.8	76.920	0.340	-0.650	0.840
2020/01/31 18:48:15.9	76.910	0.330	-0.530	0.850
2020/01/31 18:48:16.0	76.900	0.320	-0.410	0.860
2020/01/31 18:48:16.1	76.880	0.300	-0.290	0.870
2020/01/31 18:48:16.2	76.870	0.280	-0.160	0.870
2020/01/31 18:48:16.3	76.850	0.260	-0.040	0.880
2020/01/31 18:48:16.4	76.830	0.240	0.080	0.890
2020/01/31 18:48:16.5	76.810	0.220	0.190	0.900
2020/01/31 18:48:16.6	76.790	0.190	0.310	0.910
2020/01/31 18:48:16.7	76.770	0.160	0.410	0.920
2020/01/31 18:48:16.8	76.750	0.140	0.520	0.920
2020/01/31 18:48:16.9	76.720	0.110	0.620	0.930
2020/01/31 18:48:17.0	76.690	0.080	0.710	0.940
2020/01/31 18:48:17.1	76.660	0.050	0.790	0.940
2020/01/31 18:48:17.2	76.640	0.020	0.870	0.940
2020/01/31 18:48:17.3	76.610	-0.010	0.930	0.940
2020/01/31 18:48:17.4	76.580	-0.050	0.990	0.940
2020/01/31 18:48:17.5	76.550	-0.080	1.040	0.940
2020/01/31 18:48:17.6	76.510	-0.110	1.080	0.930
2020/01/31 18:48:17.7	76.480	-0.140	1.120	0.920
2020/01/31 18:48:17.8	76.460	-0.170	1.140	0.910
2020/01/31 18:48:17.9	76.430	-0.200	1.150	0.900
2020/01/31 18:48:18.0	76.400	-0.230	1.160	0.880
2020/01/31 18:48:18.1	76.370	-0.250	1.160	0.850
2020/01/31 18:48:18.2	76.340	-0.280	1.140	0.830
2020/01/31 18:48:18.3	76.320	-0.300	1.120	0.800
2020/01/31 18:48:18.4	76.300	-0.320	1.100	0.770
2020/01/31 18:48:18.5	76.270	-0.340	1.060	0.730
2020/01/31 18:48:18.6	76.250	-0.360	1.020	0.700
2020/01/31 18:48:18.7	76.230	-0.370	0.970	0.660
2020/01/31 18:48:18.8	76.220	-0.380	0.920	0.610
2020/01/31 18:48:18.9	76.200	-0.390	0.860	0.570
2020/01/31 18:48:19.0	76.190	-0.400	0.790	0.520
2020/01/31 18:48:19.1	76.180	-0.400	0.720	0.470
2020/01/31 18:48:19.2	76.170	-0.400	0.650	0.420
2020/01/31 18:48:19.3	76.170	-0.400	0.570	0.370
2020/01/31 18:48:19.4	76.170	-0.390	0.490	0.320
2020/01/31 18:48:19.5	76.160	-0.390	0.410	0.270
2020/01/31 18:48:19.6	76.160	-0.370	0.320	0.210
2020/01/31 18:48:19.7	76.170	-0.360	0.230	0.150
2020/01/31 18:48:19.8	76.170	-0.340	0.140	0.100
2020/01/31 18:48:19.9	76.180	-0.330	0.050	0.040
2020/01/31 18:48:20.0	76.190	-0.300	-0.030	-0.020
2020/01/31 18:48:20.1	76.200	-0.280	-0.120	-0.080
2020/01/31 18:48:20.2	76.210	-0.260	-0.210	-0.140
2020/01/31 18:48:20.3	76.220	-0.230	-0.300	-0.200
2020/01/31 18:48:20.4	76.240	-0.200	-0.380	-0.250
2020/01/31 18:48:20.5	76.250	-0.170	-0.460	-0.310
2020/01/31 18:48:20.6	76.270	-0.140	-0.540	-0.370
2020/01/31 18:48:20.7	76.280	-0.110	-0.610	-0.420
2020/01/31 18:48:20.8	76.290	-0.080	-0.680	-0.480
2020/01/31 18:48:20.9	76.300	-0.040	-0.750	-0.530
2020/01/31 18:48:21.0	76.320	-0.010	-0.810	-0.570
2020/01/31 18:48:21.1	76.330	0.020	-0.870	-0.620
2020/01/31 18:48:21.2	76.340	0.050	-0.920	-0.660
2020/01/31 18:48:21.3	76.350	0.080	-0.960	-0.700
2020/01/31 18:48:21.4	76.360	0.110	-1.000	-0.730
2020/01/31 18:48:21.5	76.360	0.140	-1.040	-0.760
2020/01/31 18:48:21.6	76.370	0.160	-1.070	-0.790
2020/01/31 18:48:21.7	76.370	0.180	-1.090	-0.810
2020/01/31 18:48:21.8	76.360	0.210	-1.110	-0.820
2020/01/31 18:48:21.9	76.360	0.230	-1.120	-0.830
2020/01/31 18:48:22.0	76.350	0.240	-1.120	-0.840
2020/01/31 18:48:22.1	76.350	0.260	-1.110	-0.840
2020/01/31 18:48:22.2	76.340	0.270	-1.100	-0.830
2020/01/31 18:48:22.3	76.320	0.280	-1.090	-0.820
2020/01/31 18:48:22.4	76.310	0.290	-1.060	-0.810
2020/01/31 18:48:22.5	76.290	0.290	-1.040	-0.790
2020/01/31 18:48:22.6	76.280	0.290	-1.000	-0.760
2020/01/31 18:48:22.7	76.260	0.290	-0.960	-0.730
2020/01/31 18:48:22.8	76.240	0.290	-0.920	-0.690
2020/01/31 18:48:22.9	76.210	0.290	-0.870	-0.650
2020/01/31 18:48:23.0	76.190	0.280	-0.820	-0.610
2020/01/31 18:48:23.1	76.160	0.270	-0.770	-0.560
2020/01/31 18:48:23.2	76.140	0.260	-0.720	-0.510
2020/01/31 18:48:23.3	76.110	0.250	-0.660	-0.460
2020/01/31 18:48:23.4	76.090	0.240	-0.600	-0.400
2020/01/31 18:48:23.5	76.060	0.230	-0.540	-0.340
2020/01/31 18:48:23.6	76.030	0.210	-0.480	-0.280
2020/01/31 18:48:23.7	76.010	0.200	-0.430	-0.220
2020/01/31 18:48:23.8	75.990	0.180	-0.370	-0.160
2020/01/31 18:48:23.9	75.970	0.170	-0.320	-0.100
2020/01/31 18:48:24.0	75.940	0.150	-0.270	-0.040
2020/01/31 18:48:24.1	75.930	0.140	-0.220	0.010
2020/01/31 18:48:24.2	75.910	0.120	-0.170	0.070
2020/01/31 18:48:24.3	75.890	0.100	-0.130	0.120
2020/01/31 18:48:24.4	75.880	0.090	-0.090	0.170
2020/01/31 18:48:24.5	75.870	0.080	-0.060	0.210
2020/01/31 18:48:24.6	75.860	0.060	-0.030	0.260
2020/01/31 18:48:24.7	75.850	0.050	-0.000	0.300
2020/01/31 18:48:24.8	75.860	0.040	0.020	0.330
2020/01/31 18:48:24.9	75.860	0.030	0.040	0.370
2020/01/31 18:48:25.0	75.860	0.020	0.050	0.390
2020/01/31 18:48:25.1	75.860	0.010	0.060	0.420
2020/01/31 18:48:25.2	75.870	0.000	0.070	0.440
2020/01/31 18:48:25.3	75.870	-0.000	0.080	0.460
2020/01/31 18:48:25.4	75.880	-0.010	0.080	0.470
2020/01/31 18:48:25.5	75.890	-0.010	0.080	0.490
2020/01/31 18:48:25.6	75.900	-0.010	0.070	0.500
2020/01/31 18:48:25.7	75.910	-0.010	0.070	0.510
2020/01/31 18:48:25.8	75.920	-0.010	0.060	0.520
2020/01/31 18:48:25.9	75.940	-0.010	0.050	0.530
2020/01/31 18:48:26.0	75.950	-0.010	0.050	0.540
2020/01/31 18:48:26.1	75.960	-0.010	0.040	0.550
2020/01/31 18:48:26.2	75.970	-0.000	0.030	0.560
2020/01/31 18:48:26.3	75.980	0.000	0.020	0.570
2020/01/31 18:48:26.4	75.980	0.010	0.020	0.580
2020/01/31 18:48:26.5	75.990	0.010	0.010	0.590
2020/01/31 18:48:26.6	75.990	0.020	0.010	0.610
2020/01/31 18:48:26.7	76.000	0.020	0.010	0.620
2020/01/31 18:48:26.8	76.000	0.030	0.010	0.640
2020/01/31 18:48:26.9	76.000	0.030	0.020	0.650
2020/01/31 18:48:27.0	75.990	0.040	0.020	0.670
2020/01/31 18:48:27.1	75.980	0.040	0.030	0.690
2020/01/31 18:48:27.2	75.970	0.050	0.040	0.710
2020/01/31 18:48:27.3	75.960	0.050	0.060	0.740
2020/01/31 18:48:27.4	75.940	0.050	0.070	0.760
2020/01/31 18:48:27.5	75.920	0.050	0.090	0.780
2020/01/31 18:48:27.6	75.900	0.050	0.110	0.810
2020/01/31 18:48:27.7	75.870	0.050	0.130	0.830
2020/01/31 18:48:27.8	75.840	0.040	0.160	0.860
2020/01/31 18:48:27.9	75.810	0.040	0.180	0.880
2020/01/31 18:48:28.0	75.780	0.030	0.210	0.910
2020/01/31 18:48:28.1	75.750	0.020	0.230	0.930
2020/01/31 18:48:28.2	75.710	0.010	0.260	0.950
2020/01/31 18:48:28.3	75.680	-0.010	0.290	0.980
2020/01/31 18:48:28.4	75.640	-0.020	0.310	1.000
2020/01/31 18:48:28.5	75.600	-0.040	0.340	1.010
2020/01/31 18:48:28.6	75.560	-0.060	0.360	1.030
2020/01/31 18:48:28.7	75.520	-0.070	0.380	1.050
2020/01/31 18:48:28.8	75.490	-0.090	0.400	1.060
2020/01/31 18:48:28.9	75.460	-0.110	0.410	1.070
2020/01/31 18:48:29.0	75.420	-0.140	0.420	1.070
2020/01/31 18:48:29.1	75.390	-0.160	0.420	1.080
2020/01/31 18:48:29.2	75.350	-0.180	0.420	1.080
2020/01/31 18:48:29.3	75.320	-0.200	0.410	1.080
2020/01/31 18:48:29.4	75.290	-0.220	0.400	1.080
2020/01/31 18:48:29.5	75.270	-0.240	0.380	1.070
2020/01/31 18:48:29.6	75.240	-0.260	0.360	1.060
2020/01/31 18:48:29.7	75.220	-0.270	0.330	1.050
2020/01/31 18:48:29.8	75.210	-0.290	0.300	1.030
2020/01/31 18:48:29.9	75.190	-0.300	0.260	1.020
2020/01/31 18:48:30.0	75.180	-0.320	0.210	0.990
2020/01/31 18:48:30.1	75.170	-0.330	0.170	0.970
2020/01/31 18:48:30.2	75.160	-0.330	0.110	0.940
2020/01/31 18:48:30.3	75.150	-0.340	0.060	0.920
2020/01/31 18:48:30.4	75.150	-0.340	-0.000	0.890
2020/01/31 18:48:30.5	75.150	-0.340	-0.070	0.850
2020/01/31 18:48:30.6	75.150	-0.340	-0.130	0.820
2020/01/31 18:48:30.7	75.150	-0.330	-0.200	0.780
2020/01/31 18:48:30.8	75.150	-0.330	-0.260	0.740
2020/01/31 18:48:30.9	75.160	-0.320	-0.330	0.700
2020/01/31 18:48:31.0	75.170	-0.310	-0.400	0.660
2020/01/31 18:48:31.1	75.180	-0.290	-0.470	0.620
2020/01/31 18:48:31.2	75.200	-0.270	-0.540	0.570
2020/01/31 18:48:31.3	75.210	-0.260	-0.600	0.530
2020/01/31 18:48:31.4	75.230	-0.240	-0.660	0.480
2020/01/31 18:48:31.5	75.250	-0.210	-0.730	0.440
2020/01/31 18:48:31.6	75.260	-0.190	-0.790	0.390
2020/01/31 18:48:31.7	75.280	-0.160	-0.840	0.350
2020/01/31 18:48:31.8	75.290	-0.140	-0.890	0.310
2020/01/31 18:48:31.9	75.310	-0.110	-0.940	0.260
2020/01/31 18:48:32.0	75.330	-0.080	-0.980	0.220
2020/01/31 18:48:32.1	75.340	-0.050	-1.020	0.180
2020/01/31 18:48:32.2	75.360	-0.030	-1.050	0.140
2020/01/31 18:48:32.3	75.380	0.000	-1.080	0.110
2020/01/31 18:48:32.4	75.390	0.030	-1.110	0.070
2020/01/31 18:48:32.5	75.410	0.060	-1.120	0.040
2020/01/31 18:48:32.6	75.420	0.080	-1.140	0.010
2020/01/31 18:48:32.7	75.420	0.110	-1.140	-0.020
2020/01/31 18:48:32.8	75.420	0.130	-1.150	-0.050
2020/01/31 18:48:32.9	75.430	0.150	-1.140	-0.070
2020/01/31 18:48:33.0	75.430	0.180	-1.130	-0.100
2020/01/31 18:48:33.1	75.430	0.200	-1.110	-0.120
2020/01/31 18:48:33.2	75.430	0.210	-1.090	-0.130
2020/01/31 18:48:33.3	75.420	0.230	-1.060	-0.150
2020/01/31 18:48:33.4	75.410	0.240	-1.030	-0.160
2020/01/31 18:48:33.5	75.400	0.250	-0.990	-0.170
2020/01/31 18:48:33.6	75.390	0.260	-0.940	-0.170
2020/01/31 18:48:33.7	75.370	0.270	-0.890	-0.180
2020/01/31 18:48:33.8	75.360	0.280	-0.830	-0.180
2020/01/31 18:48:33.9	75.340	0.280	-0.780	-0.180
2020/01/31 18:48:34.0	75.310	0.280	-0.710	-0.170
2020/01/31 18:48:34.1	75.290	0.280	-0.650	-0.160
2020/01/31 18:48:34.2	75.260	0.280	-0.590	-0.150
2020/01/31 18:48:34.3	75.230	0.270	-0.520	-0.140
2020/01/31 18:48:34.4	75.200	0.270	-0.450	-0.130
2020/01/31 18:48:34.5	75.170	0.260	-0.380	-0.110
2020/01/31 18:48:34.6	75.130	0.250	-0.310	-0.090
2020/01/31 18:48:34.7	75.100	0.240	-0.240	-0.070
2020/01/31 18:48:34.8	75.060	0.230	-0.170	-0.050
2020/01/31 18:48:34.9	75.030	0.210	-0.100	-0.020
2020/01/31 18:48:35.0	74.990	0.200	-0.040	-0.000
2020/01/31 18:48:35.1	74.950	0.180	0.030	0.030
2020/01/31 18:48:35.2	74.910	0.170	0.090	0.050
2020/01/31 18:48:35.3	74.870	0.150	0.150	0.080
2020/01/31 18:48:35.4	74.820	0.140	0.200	0.100
2020/01/31 18:48:35.5	74.780	0.120	0.250	0.130
2020/01/31 18:48:35.6	74.740	0.110	0.300	0.150
2020/01/31 18:48:35.7	74.700	0.090	0.340	0.180
2020/01/31 18:48:35.8	74.670	0.080	0.380	0.200
2020/01/31 18:48:35.9	74.630	0.060	0.410	0.210
2020/01/31 18:48:36.0	74.590	0.050	0.440	0.230
2020/01/31 18:48:36.1	74.560	0.040	0.460	0.250
2020/01/31 18:48:36.2	74.530	0.030	0.480	0.260
2020/01/31 18:48:36.3	74.500	0.020	0.490	0.260
2020/01/31 18:48:36.4	74.470	0.010	0.490	0.270
2020/01/31 18:48:36.5	74.450	0.010	0.490	0.270
2020/01/31 18:48:36.6	74.430	0.000	0.490	0.270
2020/01/31 18:48:36.7	74.410	0.000	0.470	0.260
2020/01/31 18:48:36.8	74.400	0.000	0.460	0.250
2020/01/31 18:48:36.9	74.390	0.000	0.440	0.240
2020/01/31 18:48:37.0	74.380	0.010	0.410	0.220
2020/01/31 18:48:37.1	74.380	0.010	0.390	0.200
2020/01/31 18:48:37.2	74.380	0.020	0.350	0.170
2020/01/31 18:48:37.3	74.380	0.030	0.320	0.140
2020/01/31 18:48:37.4	74.380	0.040	0.280	0.110
2020/01/31 18:48:37.5	74.390	0.050	0.240	0.080
2020/01/31 18:48:37.6	74.400	0.060	0.200	0.050
2020/01/31 18:48:37.7	74.410	0.070	0.160	0.010
2020/01/31 18:48:37.8	74.420	0.090	0.120	-0.020
2020/01/31 18:48:37.9	74.440	0.100	0.080	-0.060
2020/01/31 18:48:38.0	74.450	0.110	0.040	-0.090
2020/01/31 18:48:38.1	74.470	0.130	-0.000	-0.130
2020/01/31 18:48:38.2	74.490	0.140	-0.040	-0.160
2020/01/31 18:48:38.3	74.510	0.150	-0.070	-0.190
2020/01/31 18:48:38.4	74.520	0.170	-0.100	-0.220
2020/01/31 18:48:38.5	74.540	0.180	-0.120	-0.250
2020/01/31 18:48:38.6	74.560	0.190	-0.150	-0.280
2020/01/31 18:48:38.7	74.580	0.200	-0.170	-0.300
2020/01/31 18:48:38.8	74.590	0.200	-0.180	-0.320
2020/01/31 18:48:38.9	74.610	0.210	-0.190	-0.350
2020/01/31 18:48:39.0	74.620	0.210	-0.200	-0.360
2020/01/31 18:48:39.1	74.630	0.210	-0.200	-0.380
2020/01/31 18:48:39.2	74.650	0.210	-0.200	-0.400
2020/01/31 18:48:39.3	74.660	0.210	-0.200	-0.410
2020/01/31 18:48:39.4	74.670	0.200	-0.200	-0.420
2020/01/31 18:48:39.5	74.680	0.190	-0.190	-0.430
2020/01/31 18:48:39.6	74.690	0.180	-0.180	-0.440
2020/01/31 18:48:39.7	74.700	0.170	-0.160	-0.440
2020/01/31 18:48:39.8	74.700	0.150	-0.150	-0.440
2020/01/31 18:48:39.9	74.700	0.130	-0.140	-0.440
2020/01/31 18:48:40.0	74.710	0.110	-0.120	-0.440
2020/01/31 18:48:40.1	74.710	0.090	-0.100	-0.440
2020/01/31 18:48:40.2	74.710	0.070	-0.080	-0.430
2020/01/31 18:48:40.3	74.710	0.040	-0.060	-0.420
2020/01/31 18:48:40.4	74.710	0.010	-0.040	-0.410
2020/01/31 18:48:40.5	74.710	-0.010	-0.020	-0.390
2020/01/31 18:48:40.6	74.710	-0.040	0.000	-0.370
2020/01/31 18:48:40.7	74.700	-0.070	0.020	-0.350
2020/01/31 18:48:40.8	74.690	-0.110	0.040	-0.330
2020/01/31 18:48:40.9	74.680	-0.140	0.060	-0.300
2020/01/31 18:48:41.0	74.670	-0.170	0.070	-0.270
2020/01/31 18:48:41.1	74.660	-0.200	0.080	-0.240
2020/01/31 18:48:41.2	74.640	-0.230	0.100	-0.200
2020/01/31 18:48:41.3	74.630	-0.260	0.100	-0.160
2020/01/31 18:48:41.4	74.610	-0.280	0.110	-0.120
2020/01/31 18:48:41.5	74.600	-0.310	0.110	-0.080
2020/01/31 18:48:41.6	74.580	-0.330	0.110	-0.030
2020/01/31 18:48:41.7	74.560	-0.360	0.110	0.020
2020/01/31 18:48:41.8	74.550	-0.380	0.100	0.070
2020/01/31 18:48:41.9	74.530	-0.390	0.100	0.120
2020/01/31 18:48:42.0	74.510	-0.410	0.080	0.180
2020/01/31 18:48:42.1	74.490	-0.420	0.070	0.230
2020/01/31 18:48:42.2	74.470	-0.430	0.050	0.290
2020/01/31 18:48:42.3	74.450	-0.440	0.030	0.350
2020/01/31 18:48:42.4	74.430	-0.440	0.000	0.410
2020/01/31 18:48:42.5	74.410	-0.450	-0.030	0.470
2020/01/31 18:48:42.6	74.390	-0.450	-0.060	0.530
2020/01/31 18:48:42.7	74.370	-0.440	-0.100	0.590
2020/01/31 18:48:42.8	74.350	-0.440	-0.130	0.640
2020/01/31 18:48:42.9	74.330	-0.430	-0.170	0.700
2020/01/31 18:48:43.0	74.320	-0.420	-0.220	0.760
2020/01/31 18:48:43.1	74.300	-0.410	-0.260	0.810
2020/01/31 18:48:43.2	74.290	-0.390	-0.310	0.860
2020/01/31 18:48:43.3	74.270	-0.370	-0.360	0.910
2020/01/31 18:48:43.4	74.260	-0.360	-0.410	0.960
2020/01/31 18:48:43.5	74.250	-0.340	-0.460	1.000
2020/01/31 18:48:43.6	74.250	-0.320	-0.510	1.050
2020/01/31 18:48:43.7	74.240	-0.300	-0.560	1.090
2020/01/31 18:48:43.8	74.230	-0.270	-0.620	1.120
2020/01/31 18:48:43.9	74.230	-0.250	-0.670	1.160
2020/01/31 18:48:44.0	74.220	-0.230	-0.710	1.180
2020/01/31 18:48:44.1	74.220	-0.210	-0.760	1.210
2020/01/31 18:48:44.2	74.220	-0.180	-0.800	1.230
2020/01/31 18:48:44.3	74.230	-0.160	-0.850	1.250
2020/01/31 18:48:44.4	74.230	-0.140	-0.880	1.260
2020/01/31 18:48:44.5	74.230	-0.120	-0.920	1.270
2020/01/31 18:48:44.6	74.240	-0.100	-0.950	1.280
2020/01/31 18:48:44.7	74.240	-0.080	-0.970	1.280
2020/01/31 18:48:44.8	74.250	-0.060	-0.990	1.270
2020/01/31 18:48:44.9	74.260	-0.040	-1.010	1.270
2020/01/31 18:48:45.0	74.270	-0.020	-1.020	1.260
2020/01/31 18:48:45.1	74.270	-0.000	-1.020	1.250
2020/01/31 18:48:45.2	74.280	0.010	-1.020	1.230
2020/01/31 18:48:45.3	74.290	0.030	-1.020	1.220
2020/01/31 18:48:45.4	74.300	0.050	-1.010	1.190
2020/01/31 18:48:45.5	74.310	0.060	-0.990	1.170
2020/01/31 18:48:45.6	74.320	0.080	-0.970	1.140
2020/01/31 18:48:45.7	74.330	0.090	-0.940	1.110
2020/01/31 18:48:45.8	74.340	0.100	-0.910	1.080
2020/01/31 18:48:45.9	74.350	0.120	-0.870	1.050
2020/01/31 18:48:46.0	74.360	0.130	-0.830	1.020
2020/01/31 18:48:46.1	74.370	0.140	-0.790	0.980
2020/01/31 18:48:46.2	74.380	0.150	-0.730	0.940
2020/01/31 18:48:46.3	74.380	0.170	-0.680	0.900
2020/01/31 18:48:46.4	74.390	0.180	-0.620	0.860
2020/01/31 18:48:46.5	74.400	0.190	-0.560	0.810
2020/01/31 18:48:46.6	74.410	0.200	-0.500	0.770
2020/01/31 18:48:46.7	74.410	0.210	-0.440	0.720
2020/01/31 18:48:46.8	74.420	0.220	-0.370	0.670
2020/01/31 18:48:46.9	74.420	0.220	-0.310	0.620
2020/01/31 18:48:47.0	74.430	0.230	-0.240	0.580
2020/01/31 18:48:47.1	74.430	0.230	-0.170	0.530
2020/01/31 18:48:47.2	74.430	0.240	-0.110	0.480
2020/01/31 18:48:47.3	74.430	0.240	-0.050	0.430
2020/01/31 18:48:47.4	74.430	0.240	0.020	0.380
2020/01/31 18:48:47.5	74.430	0.240	0.080	0.330
2020/01/31 18:48:47.6	74.430	0.240	0.140	0.290
2020/01/31 18:48:47.7	74.430	0.240	0.200	0.240
2020/01/31 18:48:47.8	74.420	0.240	0.250	0.200
2020/01/31 18:48:47.9	74.410	0.230	0.310	0.160
2020/01/31 18:48:48.0	74.410	0.230	0.360	0.120
2020/01/31 18:48:48.1	74.400	0.220	0.400	0.080
2020/01/31 18:48:48.2	74.390	0.210	0.450	0.040
2020/01/31 18:48:48.3	74.390	0.200	0.490	0.010
2020/01/31 18:48:48.4	74.380	0.190	0.520	-0.020
2020/01/31 18:48:48.5	74.370	0.180	0.560	-0.040
2020/01/31 18:48:48.6	74.350	0.170	0.590	-0.070
2020/01/31 18:48:48.7	74.340	0.150	0.610	-0.090
2020/01/31 18:48:48.8	74.320	0.140	0.640	-0.110
2020/01/31 18:48:48.9	74.310	0.120	0.660	-0.130
2020/01/31 18:48:49.0	74.300	0.110	0.670	-0.140
2020/01/31 18:48:49.1	74.280	0.090	0.680	-0.160
2020/01/31 18:48:49.2	74.270	0.080	0.680	-0.170
2020/01/31 18:48:49.3	74.250	0.060	0.680	-0.190
2020/01/31 18:48:49.4	74.240	0.050	0.680	-0.200
2020/01/31 18:48:49.5	74.220	0.040	0.660	-0.220
2020/01/31 18:48:49.6	74.210	0.020	0.650	-0.230
2020/01/31 18:48:49.7	74.190	0.010	0.620	-0.250
2020/01/31 18:48:49.8	74.170	0.000	0.590	-0.260
2020/01/31 18:48:49.9	74.160	-0.010	0.560	-0.280
2020/01/31 18:48:50.0	74.150	-0.020	0.520	-0.300
2020/01/31 18:48:50.1	74.130	-0.020	0.480	-0.330
2020/01/31 18:48:50.2	74.120	-0.030	0.430	-0.350
2020/01/31 18:48:50.3	74.110	-0.030	0.380	-0.380
2020/01/31 18:48:50.4	74.090	-0.030	0.320	-0.400
2020/01/31 18:48:50.5	74.080	-0.030	0.260	-0.430
2020/01/31 18:48:50.6	74.070	-0.030	0.200	-0.460
2020/01/31 18:48:50.7	74.070	-0.020	0.130	-0.490
2020/01/31 18:48:50.8	74.050	-0.020	0.060	-0.520
2020/01/31 18:48:50.9	74.040	-0.010	-0.010	-0.550
2020/01/31 18:48:51.0	74.040	0.000	-0.090	-0.580
2020/01/31 18:48:51.1	74.040	0.020	-0.160	-0.610
2020/01/31 18:48:51.2	74.040	0.030	-0.240	-0.640
2020/01/31 18:48:51.3	74.040	0.050	-0.310	-0.670
2020/01/31 18:48:51.4	74.040	0.070	-0.380	-0.700
2020/01/31 18:48:51.5	74.050	0.080	-0.460	-0.730
2020/01/31 18:48:51.6	74.060	0.100	-0.530	-0.750
2020/01/31 18:48:51.7	74.070	0.120	-0.590	-0.780
2020/01/31 18:48:51.8	74.090	0.140	-0.660	-0.800
2020/01/31 18:48:51.9	74.100	0.160	-0.720	-0.810
2020/01/31 18:48:52.0	74.110	0.180	-0.780	-0.830
2020/01/31 18:48:52.1	74.130	0.200	-0.830	-0.840
2020/01/31 18:48:52.2	74.140	0.220	-0.870	-0.860
2020/01/31 18:48:52.3	74.160	0.240	-0.910	-0.860
2020/01/31 18:48:52.4	74.180	0.250	-0.940	-0.870
2020/01/31 18:48:52.5	74.190	0.270	-0.970	-0.870
2020/01/31 18:48:52.6	74.210	0.280	-0.990	-0.870
2020/01/31 18:48:52.7	74.230	0.290	-1.000	-0.870
2020/01/31 18:48:52.8	74.240	0.300	-1.000	-0.860
2020/01/31 18:48:52.9	74.260	0.300	-1.000	-0.850
2020/01/31 18:48:53.0	74.280	0.300	-0.990	-0.840
2020/01/31 18:48:53.1	74.300	0.300	-0.980	-0.830
2020/01/31 18:48:53.2	74.320	0.290	-0.950	-0.810
2020/01/31 18:48:53.3	74.340	0.280	-0.930	-0.790
2020/01/31 18:48:53.4	74.360	0.270	-0.890	-0.780
2020/01/31 18:48:53.5	74.380	0.260	-0.850	-0.750
2020/01/31 18:48:53.6	74.400	0.240	-0.800	-0.730
2020/01/31 18:48:53.7	74.430	0.220	-0.750	-0.710
2020/01/31 18:48:53.8	74.460	0.200	-0.700	-0.680
2020/01/31 18:48:53.9	74.480	0.170	-0.640	-0.660
2020/01/31 18:48:54.0	74.500	0.150	-0.580	-0.630
2020/01/31 18:48:54.1	74.530	0.120	-0.520	-0.590
2020/01/31 18:48:54.2	74.550	0.090	-0.450	-0.560
2020/01/31 18:48:54.3	74.570	0.060	-0.380	-0.520
2020/01/31 18:48:54.4	74.590	0.020	-0.310	-0.480
2020/01/31 18:48:54.5	74.600	-0.010	-0.240	-0.440
2020/01/31 18:48:54.6	74.620	-0.050	-0.170	-0.400
2020/01/31 18:48:54.7	74.640	-0.080	-0.110	-0.350
2020/01/31 18:48:54.8	74.660	-0.110	-0.040	-0.290
2020/01/31 18:48:54.9	74.670	-0.150	0.030	-0.240
2020/01/31 18:48:55.0	74.680	-0.180	0.100	-0.190
2020/01/31 18:48:55.1	74.690	-0.210	0.160	-0.130
2020/01/31 18:48:55.2	74.700	-0.240	0.220	-0.070
2020/01/31 18:48:55.3	74.700	-0.270	0.270	-0.000
2020/01/31 18:48:55.4	74.700	-0.290	0.330	0.060
2020/01/31 18:48:55.5	74.710	-0.320	0.380	0.130
2020/01/31 18:48:55.6	74.700	-0.340	0.420	0.200
2020/01/31 18:48:55.7	74.700	-0.360	0.460	0.270
2020/01/31 18:48:55.8	74.700	-0.380	0.490	0.350
2020/01/31 18:48:55.9	74.700	-0.390	0.510	0.420
2020/01/31 18:48:56.0	74.690	-0.400	0.540	0.500
2020/01/31 18:48:56.1	74.690	-0.410	0.550	0.570
2020/01/31 18:48:56.2	74.680	-0.420	0.560	0.650
2020/01/31 18:48:56.3	74.680	-0.430	0.570	0.720
2020/01/31 18:48:56.4	74.680	-0.430	0.570	0.800
2020/01/31 18:48:56.5	74.670	-0.430	0.560	0.870
2020/01/31 18:48:56.6	74.670	-0.430	0.550	0.940
2020/01/31 18:48:56.7	74.660	-0.430	0.530	1.010
2020/01/31 18:48:56.8	74.660	-0.420	0.500	1.090
2020/01/31 18:48:56.9	74.660	-0.410	0.470	1.150
2020/01/31 18:48:57.0	74.660	-0.400	0.440	1.210
2020/01/31 18:48:57.1	74.660	-0.390	0.400	1.270
2020/01/31 18:48:57.2	74.660	-0.380	0.360	1.330
2020/01/31 18:48:57.3	74.660	-0.370	0.310	1.380
2020/01/31 18:48:57.4	74.670	-0.360	0.260	1.430
2020/01/31 18:48:57.5	74.670	-0.340	0.210	1.480
2020/01/31 18:48:57.6	74.670	-0.330	0.160	1.520
2020/01/31 18:48:57.7	74.680	-0.310	0.110	1.560
2020/01/31 18:48:57.8	74.690	-0.300	0.050	1.600
2020/01/31 18:48:57.9	74.700	-0.280	0.000	1.630
2020/01/31 18:48:58.0	74.700	-0.270	-0.050	1.650
2020/01/31 18:48:58.1	74.710	-0.250	-0.100	1.680
2020/01/31 18:48:58.2	74.720	-0.240	-0.140	1.700
2020/01/31 18:48:58.3	74.720	-0.220	-0.190	1.710
2020/01/31 18:48:58.4	74.730	-0.210	-0.230	1.720
2020/01/31 18:48:58.5	74.730	-0.190	-0.270	1.730
2020/01/31 18:48:58.6	74.740	-0.180	-0.300	1.730
2020/01/31 18:48:58.7	74.750	-0.170	-0.340	1.730
2020/01/31 18:48:58.8	74.750	-0.160	-0.360	1.720
2020/01/31 18:48:58.9	74.750	-0.140	-0.390	1.710
2020/01/31 18:48:59.0	74.760	-0.130	-0.410	1.700
2020/01/31 18:48:59.1	74.770	-0.120	-0.430	1.680
2020/01/31 18:48:59.2	74.770	-0.110	-0.440	1.660
2020/01/31 18:48:59.3	74.780	-0.100	-0.450	1.640
2020/01/31 18:48:59.4	74.780	-0.090	-0.460	1.610
2020/01/31 18:48:59.5	74.790	-0.080	-0.460	1.580
2020/01/31 18:48:59.6	74.790	-0.070	-0.470	1.540
2020/01/31 18:48:59.7	74.790	-0.060	-0.470	1.510
2020/01/31 18:48:59.8	74.800	-0.050	-0.460	1.460
2020/01/31 18:48:59.9	74.810	-0.040	-0.460	1.420
2020/01/31 18:49:00.0	74.810	-0.030	-0.460	1.370
2020/01/31 18:49:00.1	74.820	-0.020	-0.460	1.310
2020/01/31 18:49:00.2	74.820	-0.010	-0.460	1.260
2020/01/31 18:49:00.3	74.820	0.010	-0.460	1.200
2020/01/31 18:49:00.4	74.820	0.020	-0.460	1.140
2020/01/31 18:49:00.5	74.830	0.030	-0.470	1.080
2020/01/31 18:49:00.6	74.830	0.050	-0.470	1.010
2020/01/31 18:49:00.7	74.830	0.070	-0.480	0.950
2020/01/31 18:49:00.8	74.840	0.080	-0.490	0.880
2020/01/31 18:49:00.9	74.840	0.100	-0.500	0.810
2020/01/31 18:49:01.0	74.850	0.120	-0.510	0.740
2020/01/31 18:49:01.1	74.850	0.150	-0.530	0.670
2020/01/31 18:49:01.2	74.850	0.170	-0.540	0.600
2020/01/31 18:49:01.3	74.860	0.200	-0.560	0.530
2020/01/31 18:49:01.4	74.860	0.220	-0.590	0.460
2020/01/31 18:49:01.5	74.870	0.250	-0.610	0.380
2020/01/31 18:49:01.6	74.880	0.280	-0.640	0.310
2020/01/31 18:49:01.7	74.880	0.310	-0.660	0.240
2020/01/31 18:49:01.8	74.890	0.340	-0.680	0.160
2020/01/31 18:49:01.9	74.900	0.380	-0.710	0.090
2020/01/31 18:49:02.0	74.920	0.410	-0.740	0.010
2020/01/31 18:49:02.1	74.930	0.440	-0.770	-0.060
2020/01/31 18:49:02.2	74.940	0.480	-0.790	-0.130
2020/01/31 18:49:02.3	74.960	0.510	-0.820	-0.200
2020/01/31 18:49:02.4	74.970	0.540	-0.840	-0.270
2020/01/31 18:49:02.5	74.990	0.570	-0.860	-0.330
2020/01/31 18:49:02.6	75.000	0.600	-0.880	-0.400
2020/01/31 18:49:02.7	75.020	0.630	-0.890	-0.460
2020/01/31 18:49:02.8	75.020	0.660	-0.900	-0.510
2020/01/31 18:49:02.9	75.030	0.680	-0.900	-0.570
2020/01/31 18:49:03.0	75.050	0.700	-0.900	-0.620
2020/01/31 18:49:03.1	75.060	0.710	-0.890	-0.670
2020/01/31 18:49:03.2	75.070	0.730	-0.870	-0.710
2020/01/31 18:49:03.3	75.070	0.730	-0.840	-0.750
2020/01/31 18:49:03.4	75.080	0.730	-0.810	-0.790
2020/01/31 18:49:03.5	75.080	0.730	-0.770	-0.830
2020/01/31 18:49:03.6	75.080	0.720	-0.730	-0.860
2020/01/31 18:49:03.7	75.080	0.710	-0.680	-0.880
2020/01/31 18:49:03.8	75.080	0.690	-0.610	-0.910
2020/01/31 18:49:03.9	75.070	0.670	-0.550	-0.930
2020/01/31 18:49:04.0	75.060	0.640	-0.470	-0.950
2020/01/31 18:49:04.1	75.050	0.610	-0.400	-0.960
2020/01/31 18:49:04.2	75.040	0.570	-0.310	-0.980
2020/01/31 18:49:04.3	75.020	0.520	-0.230	-0.990
2020/01/31 18:49:04.4	75.000	0.480	-0.140	-1.000
2020/01/31 18:49:04.5	74.980	0.420	-0.040	-1.010
2020/01/31 18:49:04.6	74.960	0.370	0.060	-1.010
2020/01/31 18:49:04.7	74.940	0.310	0.160	-1.010
2020/01/31 18:49:04.8	74.900	0.240	0.260	-1.010
2020/01/31 18:49:04.9	74.880	0.180	0.360	-1.010
2020/01/31 18:49:05.0	74.850	0.110	0.460	-1.010
2020/01/31 18:49:05.1	74.830	0.040	0.560	-1.010
2020/01/31 18:49:05.2	74.810	-0.040	0.660	-1.000
2020/01/31 18:49:05.3	74.780	-0.110	0.750	-1.000
2020/01/31 18:49:05.4	74.760	-0.180	0.840	-0.990
2020/01/31 18:49:05.5	74.740	-0.250	0.920	-0.980
2020/01/31 18:49:05.6	74.720	-0.330	1.000	-0.980
2020/01/31 18:49:05.7	74.700	-0.400	1.080	-0.970
2020/01/31 18:49:05.8	74.690	-0.470	1.140	-0.970
2020/01/31 18:49:05.9	74.680	-0.530	1.200	-0.960
2020/01/31 18:49:06.0	74.660	-0.600	1.250	-0.950
2020/01/31 18:49:06.1	74.660	-0.660	1.290	-0.950
2020/01/31 18:49:06.2	74.650	-0.710	1.320	-0.940
2020/01/31 18:49:06.3	74.650	-0.760	1.340	-0.940
2020/01/31 18:49:06.4	74.640	-0.810	1.340	-0.940
2020/01/31 18:49:06.5	74.650	-0.850	1.340	-0.930
2020/01/31 18:49:06.6	74.650	-0.890	1.330	-0.930
2020/01/31 18:49:06.7	74.660	-0.920	1.310	-0.930
2020/01/31 18:49:06.8	74.670	-0.950	1.270	-0.930
2020/01/31 18:49:06.9	74.690	-0.960	1.230	-0.930
2020/01/31 18:49:07.0	74.700	-0.970	1.180	-0.930
2020/01/31 18:49:07.1	74.720	-0.980	1.110	-0.930
2020/01/31 18:49:07.2	74.750	-0.980	1.040	-0.930
2020/01/31 18:49:07.3	74.770	-0.970	0.950	-0.930
2020/01/31 18:49:07.4	74.800	-0.960	0.860	-0.930
2020/01/31 18:49:07.5	74.830	-0.930	0.760	-0.920
2020/01/31 18:49:07.6	74.860	-0.910	0.660	-0.920
2020/01/31 18:49:07.7	74.890	-0.870	0.550	-0.920
2020/01/31 18:49:07.8	74.930	-0.830	0.430	-0.910
2020/01/31 18:49:07.9	74.960	-0.790	0.310	-0.900
2020/01/31 18:49:08.0	75.000	-0.740	0.180	-0.890
2020/01/31 18:49:08.1	75.040	-0.690	0.060	-0.870
2020/01/31 18:49:08.2	75.070	-0.630	-0.070	-0.860
2020/01/31 18:49:08.3	75.110	-0.570	-0.200	-0.840
2020/01/31 18:49:08.4	75.140	-0.500	-0.320	-0.810
2020/01/31 18:49:08.5	75.180	-0.440	-0.450	-0.790
2020/01/31 18:49:08.6	75.210	-0.370	-0.570	-0.760
2020/01/31 18:49:08.7	75.240	-0.300	-0.690	-0.720
2020/01/31 18:49:08.8	75.280	-0.220	-0.810	-0.680
2020/01/31 18:49:08.9	75.310	-0.150	-0.920	-0.640
2020/01/31 18:49:09.0	75.340	-0.080	-1.030	-0.600
2020/01/31 18:49:09.1	75.360	-0.010	-1.130	-0.550
2020/01/31 18:49:09.2	75.390	0.060	-1.220	-0.500
2020/01/31 18:49:09.3	75.410	0.130	-1.310	-0.440
2020/01/31 18:49:09.4	75.430	0.190	-1.380	-0.390
2020/01/31 18:49:09.5	75.440	0.250	-1.450	-0.320
2020/01/31 18:49:09.6	75.460	0.310	-1.510	-0.260
2020/01/31 18:49:09.7	75.470	0.370	-1.560	-0.200
2020/01/31 18:49:09.8	75.480	0.420	-1.610	-0.130
2020/01/31 18:49:09.9	75.490	0.470	-1.640	-0.060
2020/01/31 18:49:10.0	75.500	0.510	-1.660	0.010
2020/01/31 18:49:10.1	75.510	0.550	-1.680	0.090
2020/01/31 18:49:10.2	75.510	0.590	-1.680	0.160
2020/01/31 18:49:10.3	75.510	0.620	-1.680	0.240
2020/01/31 18:49:10.4	75.510	0.650	-1.660	0.320
2020/01/31 18:49:10.5	75.510	0.670	-1.630	0.400
2020/01/31 18:49:10.6	75.510	0.680	-1.600	0.470
2020/01/31 18:49:10.7	75.500	0.700	-1.560	0.550
2020/01/31 18:49:10.8	75.510	0.710	-1.500	0.640
2020/01/31 18:49:10.9	75.500	0.710	-1.440	0.720
2020/01/31 18:49:11.0	75.490	0.710	-1.380	0.800
2020/01/31 18:49:11.1	75.470	0.710	-1.300	0.880
2020/01/31 18:49:11.2	75.460	0.700	-1.220	0.960
2020/01/31 18:49:11.3	75.440	0.690	-1.140	1.040
2020/01/31 18:49:11.4	75.430	0.680	-1.050	1.110
2020/01/31 18:49:11.5	75.410	0.660	-0.950	1.190
2020/01/31 18:49:11.6	75.390	0.640	-0.860	1.260
2020/01/31 18:49:11.7	75.360	0.620	-0.750	1.340
2020/01/31 18:49:11.8	75.330	0.590	-0.650	1.410
2020/01/31 18:49:11.9	75.310	0.560	-0.540	1.480
2020/01/31 18:49:12.0	75.280	0.530	-0.440	1.540
2020/01/31 18:49:12.1	75.250	0.500	-0.330	1.610
2020/01/31 18:49:12.2	75.220	0.470	-0.230	1.670
2020/01/31 18:49:12.3	75.180	0.430	-0.130	1.730
2020/01/31 18:49:12.4	75.150	0.390	-0.030	1.780
2020/01/31 18:49:12.5	75.120	0.360	0.070	1.830
2020/01/31 18:49:12.6	75.080	0.320	0.160	1.870
2020/01/31 18:49:12.7	75.050	0.280	0.250	1.920
2020/01/31 18:49:12.8	75.020	0.240	0.330	1.960
2020/01/31 18:49:12.9	74.990	0.200	0.410	1.990
2020/01/31 18:49:13.0	74.950	0.160	0.480	2.010
2020/01/31 18:49:13.1	74.920	0.120	0.550	2.040
2020/01/31 18:49:13.2	74.900	0.080	0.610	2.050
2020/01/31 18:49:13.3	74.870	0.050	0.660	2.060
2020/01/31 18:49:13.4	74.850	0.010	0.700	2.070
2020/01/31 18:49:13.5	74.820	-0.030	0.740	2.060
2020/01/31 18:49:13.6	74.810	-0.060	0.770	2.050
2020/01/31 18:49:13.7	74.790	-0.090	0.790	2.040
2020/01/31 18:49:13.8	74.780	-0.120	0.810	2.010
2020/01/31 18:49:13.9	74.770	-0.150	0.810	1.980
2020/01/31 18:49:14.0	74.770	-0.170	0.810	1.940
2020/01/31 18:49:14.1	74.760	-0.200	0.800	1.900
2020/01/31 18:49:14.2	74.760	-0.220	0.780	1.850
2020/01/31 18:49:14.3	74.770	-0.240	0.760	1.790
2020/01/31 18:49:14.4	74.770	-0.250	0.730	1.730
2020/01/31 18:49:14.5	74.780	-0.270	0.700	1.660
2020/01/31 18:49:14.6	74.790	-0.280	0.660	1.580
2020/01/31 18:49:14.7	74.810	-0.290	0.610	1.500
2020/01/31 18:49:14.8	74.830	-0.290	0.560	1.410
2020/01/31 18:49:14.9	74.850	-0.290	0.500	1.320
2020/01/31 18:49:15.0	74.870	-0.290	0.450	1.220
2020/01/31 18:49:15.1	74.890	-0.290	0.390	1.130
2020/01/31 18:49:15.2	74.910	-0.280	0.320	1.030
2020/01/31 18:49:15.3	74.940	-0.280	0.260	0.930
2020/01/31 18:49:15.4	74.960	-0.260	0.200	0.830
2020/01/31 18:49:15.5	74.980	-0.250	0.130	0.720
2020/01/31 18:49:15.6	75.010	-0.240	0.070	0.620
2020/01/31 18:49:15.7	75.030	-0.220	0.000	0.520
2020/01/31 18:49:15.8	75.050	-0.200	-0.050	0.420
2020/01/31 18:49:15.9	75.070	-0.180	-0.110	0.320
2020/01/31 18:49:16.0	75.090	-0.160	-0.170	0.220
2020/01/31 18:49:16.1	75.110	-0.140	-0.220	0.130
2020/01/31 18:49:16.2	75.130	-0.120	-0.270	0.040
2020/01/31 18:49:16.3	75.140	-0.100	-0.320	-0.050
2020/01/31 18:49:16.4	75.160	-0.080	-0.360	-0.130
2020/01/31 18:49:16.5	75.170	-0.060	-0.400	-0.210
2020/01/31 18:49:16.6	75.180	-0.040	-0.430	-0.290
2020/01/31 18:49:16.7	75.190	-0.030	-0.460	-0.370
2020/01/31 18:49:16.8	75.210	-0.010	-0.480	-0.440
2020/01/31 18:49:16.9	75.220	0.000	-0.500	-0.500
2020/01/31 18:49:17.0	75.220	0.020	-0.520	-0.570
2020/01/31 18:49:17.1	75.230	0.030	-0.530	-0.630
2020/01/31 18:49:17.2	75.230	0.030	-0.540	-0.680
2020/01/31 18:49:17.3	75.230	0.040	-0.540	-0.740
2020/01/31 18:49:17.4	75.230	0.050	-0.540	-0.790
2020/01/31 18:49:17.5	75.230	0.050	-0.530	-0.840
2020/01/31 18:49:17.6	75.230	0.050	-0.520	-0.880
2020/01/31 18:49:17.7	75.220	0.050	-0.510	-0.920
2020/01/31 18:49:17.8	75.220	0.040	-0.500	-0.960
2020/01/31 18:49:17.9	75.220	0.040	-0.480	-0.990
2020/01/31 18:49:18.0	75.210	0.030	-0.460	-1.030
2020/01/31 18:49:18.1	75.210	0.020	-0.440	-1.050
2020/01/31 18:49:18.2	75.200	0.010	-0.420	-1.080
2020/01/31 18:49:18.3	75.200	-0.000	-0.390	-1.100
2020/01/31 18:49:18.4	75.190	-0.020	-0.360	-1.110
2020/01/31 18:49:18.5	75.190	-0.030	-0.340	-1.130
2020/01/31 18:49:18.6	75.180	-0.040	-0.310	-1.140
2020/01/31 18:49:18.7	75.180	-0.060	-0.280	-1.140
2020/01/31 18:49:18.8	75.170	-0.070	-0.250	-1.140
2020/01/31 18:49:18.9	75.160	-0.080	-0.220	-1.140
2020/01/31 18:49:19.0	75.160	-0.090	-0.200	-1.140
2020/01/31 18:49:19.1	75.160	-0.100	-0.170	-1.130
2020/01/31 18:49:19.2	75.150	-0.110	-0.150	-1.120
2020/01/31 18:49:19.3	75.150	-0.120	-0.120	-1.110
2020/01/31 18:49:19.4	75.150	-0.130	-0.100	-1.090
2020/01/31 18:49:19.5	75.150	-0.130	-0.090	-1.080
2020/01/31 18:49:19.6	75.150	-0.140	-0.070	-1.060
2020/01/31 18:49:19.7	75.150	-0.140	-0.060	-1.030
2020/01/31 18:49:19.8	75.140	-0.140	-0.050	-1.010
2020/01/31 18:49:19.9	75.140	-0.140	-0.050	-0.980
2020/01/31 18:49:20.0	75.150	-0.130	-0.040	-0.960
2020/01/31 18:49:20.1	75.150	-0.120	-0.040	-0.930
2020/01/31 18:49:20.2	75.160	-0.110	-0.050	-0.900
2020/01/31 18:49:20.3	75.170	-0.100	-0.050	-0.870
2020/01/31 18:49:20.4	75.180	-0.090	-0.060	-0.840
2020/01/31 18:49:20.5	75.190	-0.080	-0.070	-0.810
2020/01/31 18:49:20.6	75.200	-0.060	-0.080	-0.770
2020/01/31 18:49:20.7	75.210	-0.050	-0.100	-0.740
2020/01/31 18:49:20.8	75.230	-0.030	-0.120	-0.710
2020/01/31 18:49:20.9	75.240	-0.010	-0.130	-0.670
2020/01/31 18:49:21.0	75.260	0.010	-0.160	-0.640
2020/01/31 18:49:21.1	75.280	0.020	-0.180	-0.610
2020/01/31 18:49:21.2	75.300	0.040	-0.200	-0.580
2020/01/31 18:49:21.3	75.310	0.060	-0.220	-0.540
2020/01/31 18:49:21.4	75.330	0.070	-0.250	-0.510
2020/01/31 18:49:21.5	75.350	0.090	-0.270	-0.480
2020/01/31 18:49:21.6	75.370	0.100	-0.290	-0.450
2020/01/31 18:49:21.7	75.390	0.120	-0.310	-0.420
2020/01/31 18:49:21.8	75.420	0.130	-0.330	-0.390
2020/01/31 18:49:21.9	75.440	0.140	-0.350	-0.360
2020/01/31 18:49:22.0	75.460	0.150	-0.360	-0.330
2020/01/31 18:49:22.1	75.470	0.150	-0.370	-0.300
2020/01/31 18:49:22.2	75.490	0.160	-0.380	-0.270
2020/01/31 18:49:22.3	75.500	0.160	-0.380	-0.240
2020/01/31 18:49:22.4	75.520	0.160	-0.390	-0.210
2020/01/31 18:49:22.5	75.530	0.160	-0.380	-0.170
2020/01/31 18:49:22.6	75.530	0.160	-0.380	-0.140
2020/01/31 18:49:22.7	75.540	0.160	-0.370	-0.110
2020/01/31 18:49:22.8	75.560	0.150	-0.360	-0.070
2020/01/31 18:49:22.9	75.570	0.150	-0.340	-0.030
2020/01/31 18:49:23.0	75.570	0.140	-0.320	0.010
2020/01/31 18:49:23.1	75.570	0.130	-0.300	0.060
2020/01/31 18:49:23.2	75.560	0.120	-0.280	0.100
2020/01/31 18:49:23.3	75.560	0.110	-0.250	0.150
2020/01/31 18:49:23.4	75.550	0.100	-0.220	0.200
2020/01/31 18:49:23.5	75.540	0.090	-0.190	0.250
2020/01/31 18:49:23.6	75.520	0.080	-0.160	0.300
2020/01/31 18:49:23.7	75.510	0.070	-0.130	0.360
2020/01/31 18:49:23.8	75.500	0.060	-0.100	0.420
2020/01/31 18:49:23.9	75.480	0.050	-0.070	0.480
2020/01/31 18:49:24.0	75.460	0.040	-0.040	0.540
2020/01/31 18:49:24.1	75.430	0.030	-0.010	0.600
2020/01/31 18:49:24.2	75.410	0.030	0.020	0.670
2020/01/31 18:49:24.3	75.380	0.020	0.040	0.730
2020/01/31 18:49:24.4	75.350	0.010	0.060	0.800
2020/01/31 18:49:24.5	75.320	0.010	0.080	0.870
2020/01/31 18:49:24.6	75.290	0.010	0.100	0.930
2020/01/31 18:49:24.7	75.270	0.010	0.110	1.000
2020/01/31 18:49:24.8	75.230	0.010	0.110	1.060
2020/01/31 18:49:24.9	75.200	0.020	0.120	1.130
2020/01/31 18:49:25.0	75.180	0.020	0.110	1.190
2020/01/31 18:49:25.1	75.150	0.030	0.110	1.250
2020/01/31 18:49:25.2	75.130	0.040	0.090	1.310
2020/01/31 18:49:25.3	75.110	0.050	0.080	1.360
2020/01/31 18:49:25.4	75.090	0.060	0.060	1.410
2020/01/31 18:49:25.5	75.070	0.080	0.030	1.460
2020/01/31 18:49:25.6	75.060	0.100	-0.000	1.500
2020/01/31 18:49:25.7	75.040	0.110	-0.040	1.540
2020/01/31 18:49:25.8	75.040	0.130	-0.080	1.570
2020/01/31 18:49:25.9	75.040	0.150	-0.120	1.600
2020/01/31 18:49:26.0	75.040	0.180	-0.160	1.630
2020/01/31 18:49:26.1	75.040	0.200	-0.210	1.650
2020/01/31 18:49:26.2	75.050	0.220	-0.260	1.660
2020/01/31 18:49:26.3	75.050	0.240	-0.310	1.670
2020/01/31 18:49:26.4	75.070	0.260	-0.370	1.670
2020/01/31 18:49:26.5	75.090	0.280	-0.420	1.660
2020/01/31 18:49:26.6	75.110	0.300	-0.470	1.650
2020/01/31 18:49:26.7	75.130	0.320	-0.520	1.640
2020/01/31 18:49:26.8	75.150	0.330	-0.560	1.620
2020/01/31 18:49:26.9	75.180	0.340	-0.610	1.590
2020/01/31 18:49:27.0	75.210	0.350	-0.650	1.560
2020/01/31 18:49:27.1	75.240	0.360	-0.690	1.530
2020/01/31 18:49:27.2	75.270	0.370	-0.730	1.490
2020/01/31 18:49:27.3	75.300	0.370	-0.750	1.450
2020/01/31 18:49:27.4	75.340	0.370	-0.770	1.410
2020/01/31 18:49:27.5	75.370	0.360	-0.790	1.370
2020/01/31 18:49:27.6	75.400	0.350	-0.800	1.320
2020/01/31 18:49:27.7	75.430	0.340	-0.800	1.280
2020/01/31 18:49:27.8	75.460	0.320	-0.790	1.230
2020/01/31 18:49:27.9	75.480	0.310	-0.780	1.180
2020/01/31 18:49:28.0	75.500	0.280	-0.750	1.140
2020/01/31 18:49:28.1	75.530	0.260	-0.720	1.090
2020/01/31 18:49:28.2	75.540	0.230	-0.680	1.050
2020/01/31 18:49:28.3	75.560	0.200	-0.630	1.010
2020/01/31 18:49:28.4	75.570	0.160	-0.580	0.970
2020/01/31 18:49:28.5	75.580	0.130	-0.520	0.930
2020/01/31 18:49:28.6	75.580	0.090	-0.450	0.890
2020/01/31 18:49:28.7	75.590	0.040	-0.380	0.850
2020/01/31 18:49:28.8	75.580	0.000	-0.300	0.810
2020/01/31 18:49:28.9	75.580	-0.040	-0.220	0.780
2020/01/31 18:49:29.0	75.570	-0.090	-0.140	0.740
2020/01/31 18:49:29.1	75.560	-0.140	-0.050	0.710
2020/01/31 18:49:29.2	75.550	-0.180	0.030	0.670
2020/01/31 18:49:29.3	75.530	-0.230	0.120	0.640
2020/01/31 18:49:29.4	75.520	-0.280	0.200	0.610
2020/01/31 18:49:29.5	75.500	-0.320	0.290	0.570
2020/01/31 18:49:29.6	75.480	-0.370	0.370	0.530
2020/01/31 18:49:29.7	75.460	-0.410	0.440	0.490
2020/01/31 18:49:29.8	75.440	-0.450	0.510	0.450
2020/01/31 18:49:29.9	75.420	-0.490	0.580	0.410
2020/01/31 18:49:30.0	75.400	-0.520	0.640	0.370
2020/01/31 18:49:30.1	75.380	-0.550	0.690	0.320
2020/01/31 18:49:30.2	75.360	-0.580	0.740	0.280
2020/01/31 18:49:30.3	75.340	-0.600	0.780	0.220
2020/01/31 18:49:30.4	75.320	-0.620	0.800	0.170
2020/01/31 18:49:30.5	75.300	-0.640	0.820	0.120
2020/01/31 18:49:30.6	75.280	-0.650	0.830	0.060
2020/01/31 18:49:30.7	75.270	-0.660	0.830	0.000
2020/01/31 18:49:30.8	75.260	-0.660	0.820	-0.060
2020/01/31 18:49:30.9	75.240	-0.650	0.800	-0.130
2020/01/31 18:49:31.0	75.240	-0.650	0.770	-0.190
2020/01/31 18:49:31.1	75.230	-0.630	0.740	-0.250
2020/01/31 18:49:31.2	75.220	-0.610	0.690	-0.320
2020/01/31 18:49:31.3	75.220	-0.590	0.640	-0.380
2020/01/31 18:49:31.4	75.210	-0.560	0.570	-0.450
2020/01/31 18:49:31.5	75.210	-0.530	0.500	-0.510
2020/01/31 18:49:31.6	75.210	-0.490	0.430	-0.580
2020/01/31 18:49:31.7	75.210	-0.450	0.340	-0.640
2020/01/31 18:49:31.8	75.210	-0.410	0.250	-0.700
2020/01/31 18:49:31.9	75.210	-0.370	0.160	-0.770
2020/01/31 18:49:32.0	75.220	-0.320	0.070	-0.820
2020/01/31 18:49:32.1	75.230	-0.270	-0.030	-0.880
2020/01/31 18:49:32.2	75.230	-0.210	-0.130	-0.940
2020/01/31 18:49:32.3	75.240	-0.160	-0.230	-0.990
2020/01/31 18:49:32.4	75.250	-0.100	-0.320	-1.040
2020/01/31 18:49:32.5	75.270	-0.050	-0.420	-1.080
2020/01/31 18:49:32.6	75.280	0.010	-0.510	-1.130
2020/01/31 18:49:32.7	75.290	0.060	-0.600	-1.170
2020/01/31 18:49:32.8	75.290	0.120	-0.680	-1.200
2020/01/31 18:49:32.9	75.300	0.170	-0.760	-1.240
2020/01/31 18:49:33.0	75.310	0.220	-0.830	-1.270
2020/01/31 18:49:33.1	75.320	0.270	-0.900	-1.290
2020/01/31 18:49:33.2	75.320	0.320	-0.960	-1.310
2020/01/31 18:49:33.3	75.330	0.360	-1.010	-1.330
2020/01/31 18:49:33.4	75.340	0.400	-1.050	-1.350
2020/01/31 18:49:33.5	75.340	0.440	-1.090	-1.350
2020/01/31 18:49:33.6	75.340	0.480	-1.110	-1.360
2020/01/31 18:49:33.7	75.350	0.510	-1.130	-1.360
2020/01/31 18:49:33.8	75.330	0.540	-1.140	-1.360
2020/01/31 18:49:33.9	75.330	0.560	-1.140	-1.350
2020/01/31 18:49:34.0	75.330	0.580	-1.140	-1.340
2020/01/31 18:49:34.1	75.330	0.600	-1.120	-1.320
2020/01/31 18:49:34.2	75.330	0.610	-1.100	-1.300
2020/01/31 18:49:34.3	75.320	0.620	-1.070	-1.280
2020/01/31 18:49:34.4	75.320	0.630	-1.030	-1.260
2020/01/31 18:49:34.5	75.310	0.630	-0.990	-1.230
2020/01/31 18:49:34.6	75.310	0.630	-0.940	-1.200
2020/01/31 18:49:34.7	75.300	0.630	-0.890	-1.170
2020/01/31 18:49:34.8	75.300	0.620	-0.830	-1.130
2020/01/31 18:49:34.9	75.290	0.610	-0.780	-1.100
2020/01/31 18:49:35.0	75.290	0.600	-0.720	-1.060
2020/01/31 18:49:35.1	75.280	0.590	-0.660	-1.020
2020/01/31 18:49:35.2	75.270	0.570	-0.600	-0.980
2020/01/31 18:49:35.3	75.270	0.550	-0.530	-0.940
2020/01/31 18:49:35.4	75.260	0.530	-0.470	-0.900
2020/01/31 18:49:35.5	75.250	0.510	-0.410	-0.860
2020/01/31 18:49:35.6	75.250	0.480	-0.360	-0.820
2020/01/31 18:49:35.7	75.240	0.460	-0.300	-0.770
2020/01/31 18:49:35.8	75.240	0.430	-0.250	-0.730
2020/01/31 18:49:35.9	75.230	0.410	-0.200	-0.680
2020/01/31 18:49:36.0	75.230	0.380	-0.150	-0.630
2020/01/31 18:49:36.1	75.220	0.350	-0.100	-0.580
2020/01/31 18:49:36.2	75.220	0.320	-0.060	-0.530
2020/01/31 18:49:36.3	75.210	0.290	-0.020	-0.470
2020/01/31 18:49:36.4	75.210	0.260	0.020	-0.420
2020/01/31 18:49:36.5	75.210	0.230	0.050	-0.360
2020/01/31 18:49:36.6	75.210	0.200	0.080	-0.300
2020/01/31 18:49:36.7	75.210	0.170	0.110	-0.240
2020/01/31 18:49:36.8	75.210	0.140	0.140	-0.170
2020/01/31 18:49:36.9	75.210	0.110	0.170	-0.100
2020/01/31 18:49:37.0	75.210	0.080	0.190	-0.030
2020/01/31 18:49:37.1	75.210	0.060	0.210	0.040
2020/01/31 18:49:37.2	75.210	0.030	0.230	0.110
2020/01/31 18:49:37.3	75.210	-0.000	0.250	0.190
2020/01/31 18:49:37.4	75.210	-0.030	0.260	0.260
2020/01/31 18:49:37.5	75.210	-0.060	0.280	0.340
2020/01/31 18:49:37.6	75.210	-0.090	0.300	0.420
2020/01/31 18:49:37.7	75.210	-0.120	0.310	0.500
2020/01/31 18:49:37.8	75.210	-0.150	0.330	0.590
2020/01/31 18:49:37.9	75.210	-0.180	0.340	0.670
2020/01/31 18:49:38.0	75.200	-0.210	0.360	0.750
2020/01/31 18:49:38.1	75.200	-0.230	0.370	0.840
2020/01/31 18:49:38.2	75.200	-0.260	0.380	0.910
2020/01/31 18:49:38.3	75.200	-0.290	0.390	0.990
2020/01/31 18:49:38.4	75.190	-0.320	0.400	1.070
2020/01/31 18:49:38.5	75.190	-0.350	0.410	1.140
2020/01/31 18:49:38.6	75.180	-0.380	0.410	1.210
2020/01/31 18:49:38.7	75.180	-0.400	0.420	1.270
2020/01/31 18:49:38.8	75.190	-0.430	0.420	1.340
2020/01/31 18:49:38.9	75.180	-0.450	0.420	1.400
2020/01/31 18:49:39.0	75.180	-0.480	0.420	1.450
2020/01/31 18:49:39.1	75.170	-0.500	0.410	1.510
2020/01/31 18:49:39.2	75.160	-0.520	0.400	1.560
2020/01/31 18:49:39.3	75.160	-0.540	0.390	1.600
2020/01/31 18:49:39.4	75.150	-0.560	0.380	1.640
2020/01/31 18:49:39.5	75.140	-0.570	0.370	1.680
2020/01/31 18:49:39.6	75.130	-0.590	0.350	1.720
2020/01/31 18:49:39.7	75.120	-0.600	0.330	1.750
2020/01/31 18:49:39.8	75.120	-0.610	0.310	1.770
2020/01/31 18:49:39.9	75.110	-0.610	0.280	1.800
2020/01/31 18:49:40.0	75.100	-0.610	0.250	1.820
2020/01/31 18:49:40.1	75.090	-0.610	0.220	1.830
2020/01/31 18:49:40.2	75.090	-0.610	0.190	1.840
2020/01/31 18:49:40.3	75.080	-0.600	0.150	1.840
2020/01/31 18:49:40.4	75.070	-0.590	0.110	1.850
2020/01/31 18:49:40.5	75.060	-0.570	0.070	1.840
2020/01/31 18:49:40.6	75.060	-0.550	0.030	1.840
2020/01/31 18:49:40.7	75.060	-0.530	-0.020	1.820
2020/01/31 18:49:40.8	75.060	-0.510	-0.070	1.810
2020/01/31 18:49:40.9	75.060	-0.480	-0.120	1.790
2020/01/31 18:49:41.0	75.060	-0.450	-0.170	1.760
2020/01/31 18:49:41.1	75.070	-0.410	-0.220	1.730
2020/01/31 18:49:41.2	75.080	-0.370	-0.280	1.700
2020/01/31 18:49:41.3	75.090	-0.330	-0.330	1.660
2020/01/31 18:49:41.4	75.100	-0.280	-0.390	1.620
2020/01/31 18:49:41.5	75.120	-0.240	-0.450	1.570
2020/01/31 18:49:41.6	75.140	-0.190	-0.510	1.520
2020/01/31 18:49:41.7	75.160	-0.140	-0.570	1.470
2020/01/31 18:49:41.8	75.190	-0.080	-0.620	1.410
2020/01/31 18:49:41.9	75.220	-0.030	-0.680	1.350
2020/01/31 18:49:42.0	75.250	0.030	-0.740	1.290
2020/01/31 18:49:42.1	75.280	0.080	-0.800	1.220
2020/01/31 18:49:42.2	75.310	0.140	-0.850	1.150
2020/01/31 18:49:42.3	75.350	0.200	-0.900	1.090
2020/01/31 18:49:42.4	75.380	0.250	-0.950	1.020
2020/01/31 18:49:42.5	75.420	0.310	-0.990	0.950
2020/01/31 18:49:42.6	75.450	0.360	-1.030	0.880
2020/01/31 18:49:42.7	75.480	0.410	-1.070	0.820
2020/01/31 18:49:42.8	75.510	0.460	-1.100	0.750
2020/01/31 18:49:42.9	75.540	0.510	-1.120	0.690
2020/01/31 18:49:43.0	75.570	0.550	-1.140	0.630
2020/01/31 18:49:43.1	75.590	0.590	-1.140	0.570
2020/01/31 18:49:43.2	75.600	0.630	-1.140	0.520
2020/01/31 18:49:43.3	75.620	0.660	-1.130	0.470
2020/01/31 18:49:43.4	75.620	0.680	-1.120	0.420
2020/01/31 18:49:43.5	75.630	0.710	-1.090	0.370
2020/01/31 18:49:43.6	75.620	0.730	-1.060	0.330
2020/01/31 18:49:43.7	75.620	0.740	-1.020	0.300
2020/01/31 18:49:43.8	75.590	0.750	-0.970	0.260
2020/01/31 18:49:43.9	75.580	0.750	-0.910	0.220
2020/01/31 18:49:44.0	75.560	0.750	-0.840	0.190
2020/01/31 18:49:44.1	75.530	0.750	-0.770	0.170
2020/01/31 18:49:44.2	75.510	0.740	-0.700	0.140
2020/01/31 18:49:44.3	75.480	0.720	-0.620	0.110
2020/01/31 18:49:44.4	75.440	0.700	-0.530	0.090
2020/01/31 18:49:44.5	75.400	0.670	-0.450	0.070
2020/01/31 18:49:44.6	75.370	0.650	-0.360	0.050
2020/01/31 18:49:44.7	75.330	0.610	-0.260	0.020
2020/01/31 18:49:44.8	75.290	0.580	-0.170	0.000
2020/01/31 18:49:44.9	75.250	0.540	-0.080	-0.020
2020/01/31 18:49:45.0	75.210	0.490	0.010	-0.050
2020/01/31 18:49:45.1	75.170	0.450	0.100	-0.070
2020/01/31 18:49:45.2	75.120	0.400	0.180	-0.100
2020/01/31 18:49:45.3	75.080	0.350	0.260	-0.130
2020/01/31 18:49:45.4	75.040	0.300	0.340	-0.160
2020/01/31 18:49:45.5	75.000	0.240	0.410	-0.200
2020/01/31 18:49:45.6	74.970	0.190	0.470	-0.230
2020/01/31 18:49:45.7	74.930	0.130	0.530	-0.270
2020/01/31 18:49:45.8	74.900	0.080	0.580	-0.320
2020/01/31 18:49:45.9	74.870	0.030	0.630	-0.360
2020/01/31 18:49:46.0	74.840	-0.030	0.670	-0.410
2020/01/31 18:49:46.1	74.810	-0.080	0.700	-0.460
2020/01/31 18:49:46.2	74.790	-0.130	0.720	-0.510
2020/01/31 18:49:46.3	74.770	-0.180	0.730	-0.560
2020/01/31 18:49:46.4	74.750	-0.220	0.740	-0.620
2020/01/31 18:49:46.5	74.730	-0.270	0.740	-0.670
2020/01/31 18:49:46.6	74.710	-0.310	0.740	-0.730
2020/01/31 18:49:46.7	74.700	-0.350	0.720	-0.780
2020/01/31 18:49:46.8	74.670	-0.380	0.700	-0.840
2020/01/31 18:49:46.9	74.660	-0.420	0.680	-0.890
2020/01/31 18:49:47.0	74.660	-0.450	0.650	-0.940
2020/01/31 18:49:47.1	74.650	-0.470	0.610	-0.990
2020/01/31 18:49:47.2	74.650	-0.490	0.570	-1.040
2020/01/31 18:49:47.3	74.650	-0.510	0.530	-1.090
2020/01/31 18:49:47.4	74.650	-0.530	0.480	-1.130
2020/01/31 18:49:47.5	74.650	-0.540	0.430	-1.170
2020/01/31 18:49:47.6	74.660	-0.550	0.370	-1.210
2020/01/31 18:49:47.7	74.670	-0.560	0.310	-1.250
2020/01/31 18:49:47.8	74.680	-0.560	0.260	-1.280
2020/01/31 18:49:47.9	74.690	-0.560	0.190	-1.310
2020/01/31 18:49:48.0	74.710	-0.550	0.130	-1.330
2020/01/31 18:49:48.1	74.730	-0.540	0.070	-1.350
2020/01/31 18:49:48.2	74.750	-0.530	0.010	-1.370
2020/01/31 18:49:48.3	74.770	-0.520	-0.060	-1.390
2020/01/31 18:49:48.4	74.800	-0.500	-0.120	-1.400
2020/01/31 18:49:48.5	74.830	-0.490	-0.180	-1.410
2020/01/31 18:49:48.6	74.860	-0.470	-0.240	-1.410
2020/01/31 18:49:48.7	74.890	-0.440	-0.300	-1.410
2020/01/31 18:49:48.8	74.910	-0.420	-0.360	-1.410
2020/01/31 18:49:48.9	74.950	-0.390	-0.410	-1.400
2020/01/31 18:49:49.0	74.990	-0.370	-0.460	-1.390
2020/01/31 18:49:49.1	75.030	-0.340	-0.510	-1.380
2020/01/31 18:49:49.2	75.070	-0.310	-0.550	-1.360
2020/01/31 18:49:49.3	75.110	-0.280	-0.590	-1.340
2020/01/31 18:49:49.4	75.150	-0.250	-0.620	-1.310
2020/01/31 18:49:49.5	75.190	-0.220	-0.650	-1.290
2020/01/31 18:49:49.6	75.230	-0.190	-0.680	-1.250
2020/01/31 18:49:49.7	75.270	-0.150	-0.700	-1.220
2020/01/31 18:49:49.8	75.310	-0.120	-0.710	-1.180
2020/01/31 18:49:49.9	75.340	-0.090	-0.730	-1.130
2020/01/31 18:49:50.0	75.380	-0.070	-0.730	-1.090
2020/01/31 18:49:50.1	75.420	-0.040	-0.740	-1.040
2020/01/31 18:49:50.2	75.450	-0.010	-0.740	-0.980
2020/01/31 18:49:50.3	75.480	0.010	-0.730	-0.930
2020/01/31 18:49:50.4	75.510	0.040	-0.720	-0.870
2020/01/31 18:49:50.5	75.530	0.060	-0.710	-0.800
2020/01/31 18:49:50.6	75.550	0.080	-0.690	-0.730
2020/01/31 18:49:50.7	75.570	0.100	-0.670	-0.660
2020/01/31 18:49:50.8	75.580	0.120	-0.640	-0.580
2020/01/31 18:49:50.9	75.590	0.130	-0.620	-0.500
2020/01/31 18:49:51.0	75.590	0.140	-0.590	-0.410
2020/01/31 18:49:51.1	75.600	0.150	-0.560	-0.330
2020/01/31 18:49:51.2	75.590	0.160	-0.520	-0.230
2020/01/31 18:49:51.3	75.590	0.170	-0.490	-0.140
2020/01/31 18:49:51.4	75.580	0.170	-0.450	-0.040
2020/01/31 18:49:51.5	75.560	0.170	-0.420	0.060
2020/01/31 18:49:51.6	75.550	0.170	-0.380	0.170
2020/01/31 18:49:51.7	75.530	0.170	-0.340	0.280
2020/01/31 18:49:51.8	75.510	0.170	-0.310	0.390
2020/01/31 18:49:51.9	75.490	0.160	-0.280	0.500
2020/01/31 18:49:52.0	75.460	0.150	-0.240	0.610
2020/01/31 18:49:52.1	75.430	0.150	-0.210	0.730
2020/01/31 18:49:52.2	75.390	0.140	-0.190	0.840
2020/01/31 18:49:52.3	75.360	0.130	-0.160	0.950
2020/01/31 18:49:52.4	75.330	0.120	-0.140	1.070
2020/01/31 18:49:52.5	75.290	0.110	-0.120	1.180
2020/01/31 18:49:52.6	75.260	0.090	-0.100	1.280
2020/01/31 18:49:52.7	75.230	0.080	-0.090	1.390
2020/01/31 18:49:52.8	75.200	0.070	-0.080	1.490
2020/01/31 18:49:52.9	75.170	0.060	-0.070	1.580
2020/01/31 18:49:53.0	75.140	0.050	-0.070	1.670
2020/01/31 18:49:53.1	75.120	0.040	-0.070	1.750
2020/01/31 18:49:53.2	75.090	0.040	-0.070	1.830
2020/01/31 18:49:53.3	75.070	0.030	-0.080	1.900
2020/01/31 18:49:53.4	75.060	0.020	-0.090	1.960
2020/01/31 18:49:53.5	75.040	0.020	-0.100	2.010
2020/01/31 18:49:53.6	75.030	0.020	-0.110	2.060
2020/01/31 18:49:53.7	75.020	0.020	-0.120	2.100
2020/01/31 18:49:53.8	75.010	0.020	-0.140	2.130
2020/01/31 18:49:53.9	75.010	0.020	-0.160	2.150
2020/01/31 18:49:54.0	75.010	0.020	-0.170	2.160
2020/01/31 18:49:54.1	75.020	0.030	-0.190	2.170
2020/01/31 18:49:54.2	75.030	0.030	-0.200	2.170
2020/01/31 18:49:54.3	75.040	0.040	-0.220	2.160
2020/01/31 18:49:54.4	75.050	0.050	-0.230	2.150
2020/01/31 18:49:54.5	75.060	0.050	-0.240	2.130
2020/01/31 18:49:54.6	75.070	0.060	-0.250	2.110
2020/01/31 18:49:54.7	75.080	0.070	-0.250	2.080
2020/01/31 18:49:54.8	75.110	0.080	-0.250	2.040
2020/01/31 18:49:54.9	75.120	0.090	-0.240	2.000
2020/01/31 18:49:55.0	75.140	0.100	-0.240	1.960
2020/01/31 18:49:55.1	75.150	0.110	-0.230	1.910
2020/01/31 18:49:55.2	75.160	0.110	-0.220	1.860
2020/01/31 18:49:55.3	75.170	0.120	-0.200	1.800
2020/01/31 18:49:55.4	75.180	0.130	-0.180	1.750
2020/01/31 18:49:55.5	75.190	0.130	-0.160	1.690
2020/01/31 18:49:55.6	75.190	0.130	-0.130	1.620
2020/01/31 18:49:55.7	75.200	0.140	-0.100	1.560
2020/01/31 18:49:55.8	75.200	0.140	-0.080	1.490
2020/01/31 18:49:55.9	75.200	0.140	-0.040	1.420
2020/01/31 18:49:56.0	75.200	0.140	-0.010	1.350
2020/01/31 18:49:56.1	75.200	0.130	0.030	1.280
2020/01/31 18:49:56.2	75.200	0.130	0.060	1.200
2020/01/31 18:49:56.3	75.200	0.120	0.100	1.130
2020/01/31 18:49:56.4	75.190	0.120	0.130	1.050
2020/01/31 18:49:56.5	75.180	0.110	0.170	0.970
2020/01/31 18:49:56.6	75.180	0.100	0.200	0.890
2020/01/31 18:49:56.7	75.170	0.090	0.230	0.810
2020/01/31 18:49:56.8	75.170	0.080	0.260	0.730
2020/01/31 18:49:56.9	75.160	0.070	0.290	0.650
2020/01/31 18:49:57.0	75.150	0.050	0.310	0.570
2020/01/31 18:49:57.1	75.140	0.040	0.330	0.490
2020/01/31 18:49:57.2	75.130	0.030	0.340	0.410
2020/01/31 18:49:57.3	75.120	0.020	0.350	0.330
2020/01/31 18:49:57.4	75.110	0.010	0.360	0.250
2020/01/31 18:49:57.5	75.110	-0.000	0.360	0.170
2020/01/31 18:49:57.6	75.100	-0.010	0.350	0.100
2020/01/31 18:49:57.7	75.090	-0.020	0.340	0.020
2020/01/31 18:49:57.8	75.080	-0.030	0.330	-0.060
2020/01/31 18:49:57.9	75.080	-0.040	0.310	-0.130
2020/01/31 18:49:58.0	75.080	-0.040	0.280	-0.210
2020/01/31 18:49:58.1	75.080	-0.050	0.250	-0.280
2020/01/31 18:49:58.2	75.080	-0.050	0.220	-0.360
2020/01/31 18:49:58.3	75.090	-0.050	0.180	-0.430
2020/01/31 18:49:58.4	75.100	-0.040	0.130	-0.500
2020/01/31 18:49:58.5	75.110	-0.040	0.090	-0.570
2020/01/31 18:49:58.6	75.120	-0.040	0.030	-0.640
2020/01/31 18:49:58.7	75.130	-0.030	-0.020	-0.710
2020/01/31 18:49:58.8	75.140	-0.020	-0.080	-0.780
2020/01/31 18:49:58.9	75.150	-0.010	-0.140	-0.850
2020/01/31 18:49:59.0	75.170	-0.000	-0.200	-0.910
2020/01/31 18:49:59.1	75.190	0.010	-0.260	-0.970
2020/01/31 18:49:59.2	75.210	0.020	-0.320	-1.030
2020/01/31 18:49:59.3	75.230	0.030	-0.380	-1.090
2020/01/31 18:49:59.4	75.250	0.050	-0.450	-1.150
2020/01/31 18:49:59.5	75.270	0.060	-0.510	-1.200
2020/01/31 18:49:59.6	75.290	0.080	-0.570	-1.250
2020/01/31 18:49:59.7	75.320	0.090	-0.630	-1.290
2020/01/31 18:49:59.8	75.310	0.100	-0.690	-1.340
2020/01/31 18:49:59.9	75.330	0.120	-0.740	-1.380
2020/01/31 18:50:00.0	75.350	0.130	-0.790	-1.410
2020/01/31 18:50:00.1	75.370	0.150	-0.840	-1.440
2020/01/31 18:50:00.2	75.390	0.160	-0.880	-1.470
2020/01/31 18:50:00.3	75.410	0.170	-0.920	-1.490
2020/01/31 18:50:00.4	75.420	0.180	-0.960	-1.510
2020/01/31 18:50:00.5	75.440	0.190	-0.990	-1.530
2020/01/31 18:50:00.6	75.450	0.200	-1.010	-1.540
2020/01/31 18:50:00.7	75.470	0.210	-1.030	-1.540
2020/01/31 18:50:00.8	75.480	0.220	-1.040	-1.540
2020/01/31 18:50:00.9	75.490	0.220	-1.050	-1.530
2020/01/31 18:50:01.0	75.500	0.230	-1.050	-1.520
2020/01/31 18:50:01.1	75.500	0.230	-1.040	-1.510
2020/01/31 18:50:01.2	75.510	0.230	-1.030	-1.480
2020/01/31 18:50:01.3	75.510	0.230	-1.020	-1.460
2020/01/31 18:50:01.4	75.520	0.220	-0.990	-1.430
2020/01/31 18:50:01.5	75.520	0.220	-0.960	-1.390
2020/01/31 18:50:01.6	75.520	0.210	-0.920	-1.350
2020/01/31 18:50:01.7	75.520	0.200	-0.880	-1.310
2020/01/31 18:50:01.8	75.500	0.180	-0.830	-1.260
2020/01/31 18:50:01.9	75.500	0.170	-0.780	-1.210
2020/01/31 18:50:02.0	75.490	0.150	-0.720	-1.150
2020/01/31 18:50:02.1	75.480	0.130	-0.660	-1.090
2020/01/31 18:50:02.2	75.480	0.110	-0.590	-1.030
2020/01/31 18:50:02.3	75.470	0.090	-0.520	-0.960
2020/01/31 18:50:02.4	75.460	0.060	-0.440	-0.900
2020/01/31 18:50:02.5	75.450	0.030	-0.370	-0.820
2020/01/31 18:50:02.6	75.430	0.010	-0.290	-0.750
2020/01/31 18:50:02.7	75.420	-0.020	-0.210	-0.680
2020/01/31 18:50:02.8	75.420	-0.060	-0.120	-0.590
2020/01/31 18:50:02.9	75.410	-0.090	-0.040	-0.520
2020/01/31 18:50:03.0	75.390	-0.120	0.050	-0.440
2020/01/31 18:50:03.1	75.380	-0.150	0.130	-0.360
2020/01/31 18:50:03.2	75.360	-0.190	0.210	-0.280
2020/01/31 18:50:03.3	75.340	-0.220	0.290	-0.200
2020/01/31 18:50:03.4	75.330	-0.260	0.360	-0.120
2020/01/31 18:50:03.5	75.310	-0.290	0.440	-0.040
2020/01/31 18:50:03.6	75.290	-0.330	0.500	0.040
2020/01/31 18:50:03.7	75.270	-0.360	0.570	0.110
2020/01/31 18:50:03.8	75.260	-0.390	0.620	0.190
2020/01/31 18:50:03.9	75.240	-0.430	0.680	0.270
2020/01/31 18:50:04.0	75.220	-0.460	0.730	0.340
2020/01/31 18:50:04.1	75.200	-0.490	0.770	0.410
2020/01/31 18:50:04.2	75.180	-0.510	0.800	0.480
2020/01/31 18:50:04.3	75.170	-0.540	0.830	0.550
2020/01/31 18:50:04.4	75.150	-0.560	0.850	0.620
2020/01/31 18:50:04.5	75.140	-0.580	0.860	0.680
2020/01/31 18:50:04.6	75.120	-0.600	0.870	0.740
2020/01/31 18:50:04.7	75.110	-0.620	0.870	0.800
2020/01/31 18:50:04.8	75.110	-0.630	0.870	0.860
2020/01/31 18:50:04.9	75.100	-0.640	0.850	0.910
2020/01/31 18:50:05.0	75.090	-0.650	0.830	0.960
2020/01/31 18:50:05.1	75.090	-0.650	0.800	1.000
2020/01/31 18:50:05.2	75.080	-0.650	0.770	1.040
2020/01/31 18:50:05.3	75.080	-0.650	0.730	1.080
2020/01/31 18:50:05.4	75.080	-0.640	0.680	1.120
2020/01/31 18:50:05.5	75.080	-0.630	0.630	1.150
2020/01/31 18:50:05.6	75.080	-0.620	0.580	1.180
2020/01/31 18:50:05.7	75.080	-0.600	0.520	1.210
2020/01/31 18:50:05.8	75.090	-0.580	0.460	1.230
2020/01/31 18:50:05.9	75.100	-0.560	0.400	1.250
2020/01/31 18:50:06.0	75.110	-0.530	0.330	1.270
2020/01/31 18:50:06.1	75.120	-0.500	0.260	1.290
2020/01/31 18:50:06.2	75.130	-0.460	0.190	1.300
2020/01/31 18:50:06.3	75.140	-0.430	0.110	1.310
2020/01/31 18:50:06.4	75.150	-0.390	0.040	1.320
2020/01/31 18:50:06.5	75.170	-0.340	-0.040	1.330
2020/01/31 18:50:06.6	75.180	-0.300	-0.110	1.330
2020/01/31 18:50:06.7	75.200	-0.250	-0.190	1.330
2020/01/31 18:50:06.8	75.220	-0.200	-0.260	1.340
2020/01/31 18:50:06.9	75.240	-0.150	-0.340	1.330
2020/01/31 18:50:07.0	75.250	-0.100	-0.410	1.330
2020/01/31 18:50:07.1	75.270	-0.050	-0.490	1.320
2020/01/31 18:50:07.2	75.290	0.000	-0.560	1.320
2020/01/31 18:50:07.3	75.310	0.050	-0.630	1.310
2020/01/31 18:50:07.4	75.330	0.110	-0.700	1.300
2020/01/31 18:50:07.5	75.350	0.160	-0.760	1.290
2020/01/31 18:50:07.6	75.370	0.210	-0.820	1.270
2020/01/31 18:50:07.7	75.390	0.260	-0.880	1.260
2020/01/31 18:50:07.8	75.400	0.310	-0.940	1.240
2020/01/31 18:50:07.9	75.420	0.350	-0.990	1.230
2020/01/31 18:50:08.0	75.430	0.400	-1.030	1.210
2020/01/31 18:50:08.1	75.450	0.440	-1.070	1.200
2020/01/31 18:50:08.2	75.470	0.470	-1.110	1.180
2020/01/31 18:50:08.3	75.480	0.510	-1.130	1.160
2020/01/31 18:50:08.4	75.490	0.540	-1.160	1.150
2020/01/31 18:50:08.5	75.510	0.570	-1.180	1.130
2020/01/31 18:50:08.6	75.520	0.590	-1.190	1.110
2020/01/31 18:50:08.7	75.530	0.610	-1.190	1.090
2020/01/31 18:50:08.8	75.540	0.630	-1.180	1.080
2020/01/31 18:50:08.9	75.540	0.640	-1.170	1.060
2020/01/31 18:50:09.0	75.550	0.650	-1.160	1.040
2020/01/31 18:50:09.1	75.550	0.650	-1.130	1.030
2020/01/31 18:50:09.2	75.550	0.650	-1.100	1.010
2020/01/31 18:50:09.3	75.540	0.640	-1.070	0.990
2020/01/31 18:50:09.4	75.540	0.630	-1.020	0.970
2020/01/31 18:50:09.5	75.530	0.620	-0.970	0.950
2020/01/31 18:50:09.6	75.520	0.600	-0.920	0.930
2020/01/31 18:50:09.7	75.500	0.570	-0.860	0.910
2020/01/31 18:50:09.8	75.480	0.550	-0.790	0.890
2020/01/31 18:50:09.9	75.460	0.520	-0.720	0.870
2020/01/31 18:50:10.0	75.440	0.490	-0.650	0.850
2020/01/31 18:50:10.1	75.420	0.450	-0.570	0.830
2020/01/31 18:50:10.2	75.400	0.410	-0.490	0.810
2020/01/31 18:50:10.3	75.370	0.380	-0.400	0.790
2020/01/31 18:50:10.4	75.340	0.330	-0.320	0.760
2020/01/31 18:50:10.5	75.320	0.290	-0.230	0.740
2020/01/31 18:50:10.6	75.290	0.250	-0.140	0.720
2020/01/31 18:50:10.7	75.260	0.210	-0.060	0.690
2020/01/31 18:50:10.8	75.220	0.160	0.030	0.670
2020/01/31 18:50:10.9	75.200	0.120	0.110	0.640
2020/01/31 18:50:11.0	75.170	0.080	0.190	0.610
2020/01/31 18:50:11.1	75.140	0.040	0.270	0.580
2020/01/31 18:50:11.2	75.120	0.000	0.340	0.550
2020/01/31 18:50:11.3	75.090	-0.040	0.410	0.510
2020/01/31 18:50:11.4	75.070	-0.070	0.470	0.470
2020/01/31 18:50:11.5	75.050	-0.110	0.520	0.430
2020/01/31 18:50:11.6	75.030	-0.140	0.570	0.390
2020/01/31 18:50:11.7	75.020	-0.160	0.600	0.340
2020/01/31 18:50:11.8	75.010	-0.190	0.640	0.290
2020/01/31 18:50:11.9	75.000	-0.210	0.660	0.240
2020/01/31 18:50:12.0	74.990	-0.230	0.670	0.180
2020/01/31 18:50:12.1	74.980	-0.240	0.670	0.130
2020/01/31 18:50:12.2	74.980	-0.250	0.670	0.070
2020/01/31 18:50:12.3	74.980	-0.260	0.660	0.000
2020/01/31 18:50:12.4	74.980	-0.260	0.630	-0.060
2020/01/31 18:50:12.5	74.980	-0.260	0.600	-0.120
2020/01/31 18:50:12.6	74.990	-0.260	0.570	-0.190
2020/01/31 18:50:12.7	75.000	-0.250	0.520	-0.260
2020/01/31 18:50:12.8	75.010	-0.240	0.470	-0.330
2020/01/31 18:50:12.9	75.020	-0.230	0.410	-0.390
2020/01/31 18:50:13.0	75.040	-0.220	0.350	-0.460
2020/01/31 18:50:13.1	75.050	-0.200	0.280	-0.530
2020/01/31 18:50:13.2	75.070	-0.180	0.210	-0.600
2020/01/31 18:50:13.3	75.090	-0.160	0.140	-0.670
2020/01/31 18:50:13.4	75.110	-0.130	0.060	-0.730
2020/01/31 18:50:13.5	75.130	-0.110	-0.010	-0.800
2020/01/31 18:50:13.6	75.150	-0.080	-0.090	-0.860
2020/01/31 18:50:13.7	75.180	-0.050	-0.160	-0.920
2020/01/31 18:50:13.8	75.200	-0.020	-0.230	-0.970
2020/01/31 18:50:13.9	75.220	0.000	-0.300	-1.020
2020/01/31 18:50:14.0	75.240	0.030	-0.360	-1.070
2020/01/31 18:50:14.1	75.260	0.060	-0.420	-1.110
2020/01/31 18:50:14.2	75.280	0.090	-0.480	-1.150
2020/01/31 18:50:14.3	75.300	0.110	-0.530	-1.180
2020/01/31 18:50:14.4	75.320	0.140	-0.570	-1.210
2020/01/31 18:50:14.5	75.330	0.160	-0.610	-1.230
2020/01/31 18:50:14.6	75.340	0.180	-0.630	-1.250
2020/01/31 18:50:14.7	75.350	0.200	-0.660	-1.260
2020/01/31 18:50:14.8	75.350	0.220	-0.670	-1.260
2020/01/31 18:50:14.9	75.360	0.230	-0.680	-1.250
2020/01/31 18:50:15.0	75.360	0.250	-0.680	-1.240
2020/01/31 18:50:15.1	75.360	0.260	-0.680	-1.230
2020/01/31 18:50:15.2	75.360	0.270	-0.660	-1.210
2020/01/31 18:50:15.3	75.350	0.270	-0.640	-1.180
2020/01/31 18:50:15.4	75.350	0.270	-0.620	-1.140
2020/01/31 18:50:15.5	75.340	0.270	-0.580	-1.100
2020/01/31 18:50:15.6	75.330	0.270	-0.550	-1.060
2020/01/31 18:50:15.7	75.320	0.260	-0.510	-1.010
2020/01/31 18:50:15.8	75.300	0.260	-0.460	-0.950
2020/01/31 18:50:15.9	75.290	0.240	-0.420	-0.890
2020/01/31 18:50:16.0	75.270	0.230	-0.370	-0.830
2020/01/31 18:50:16.1	75.260	0.220	-0.320	-0.760
2020/01/31 18:50:16.2	75.240	0.200	-0.270	-0.690
2020/01/31 18:50:16.3	75.220	0.180	-0.220	-0.620
2020/01/31 18:50:16.4	75.210	0.160	-0.170	-0.540
2020/01/31 18:50:16.5	75.190	0.130	-0.120	-0.470
2020/01/31 18:50:16.6	75.170	0.110	-0.070	-0.390
2020/01/31 18:50:16.7	75.160	0.080	-0.030	-0.310
2020/01/31 18:50:16.8	75.130	0.060	0.010	-0.230
2020/01/31 18:50:16.9	75.120	0.030	0.040	-0.150
2020/01/31 18:50:17.0	75.110	0.000	0.080	-0.080
2020/01/31 18:50:17.1	75.090	-0.030	0.100	0.000
2020/01/31 18:50:17.2	75.080	-0.050	0.130	0.070
2020/01/31 18:50:17.3	75.080	-0.080	0.150	0.150
2020/01/31 18:50:17.4	75.070	-0.110	0.160	0.220
2020/01/31 18:50:17.5	75.060	-0.130	0.170	0.280
2020/01/31 18:50:17.6	75.060	-0.160	0.170	0.350
2020/01/31 18:50:17.7	75.050	-0.180	0.170	0.410
2020/01/31 18:50:17.8	75.040	-0.210	0.170	0.470
2020/01/31 18:50:17.9	75.040	-0.230	0.160	0.530
2020/01/31 18:50:18.0	75.040	-0.250	0.150	0.580
2020/01/31 18:50:18.1	75.050	-0.260	0.130	0.630
2020/01/31 18:50:18.2	75.050	-0.280	0.110	0.680
2020/01/31 18:50:18.3	75.050	-0.290	0.080	0.720
2020/01/31 18:50:18.4	75.060	-0.310	0.060	0.770
2020/01/31 18:50:18.5	75.060	-0.320	0.030	0.810
2020/01/31 18:50:18.6	75.060	-0.320	0.000	0.850
2020/01/31 18:50:18.7	75.070	-0.330	-0.030	0.890
2020/01/31 18:50:18.8	75.070	-0.340	-0.060	0.930
2020/01/31 18:50:18.9	75.080	-0.340	-0.090	0.960
2020/01/31 18:50:19.0	75.080	-0.340	-0.110	0.990
2020/01/31 18:50:19.1	75.080	-0.340	-0.140	1.030
2020/01/31 18:50:19.2	75.080	-0.340	-0.170	1.060
2020/01/31 18:50:19.3	75.080	-0.340	-0.190	1.090
2020/01/31 18:50:19.4	75.080	-0.330	-0.210	1.120
2020/01/31 18:50:19.5	75.080	-0.330	-0.230	1.150
2020/01/31 18:50:19.6	75.070	-0.320	-0.240	1.170
2020/01/31 18:50:19.7	75.070	-0.310	-0.260	1.200
2020/01/31 18:50:19.8	75.070	-0.300	-0.260	1.220
2020/01/31 18:50:19.9	75.070	-0.290	-0.270	1.240
2020/01/31 18:50:20.0	75.060	-0.280	-0.280	1.260
2020/01/31 18:50:20.1	75.060	-0.270	-0.280	1.280
2020/01/31 18:50:20.2	75.050	-0.260	-0.280	1.290
2020/01/31 18:50:20.3	75.040	-0.250	-0.280	1.310
2020/01/31 18:50:20.4	75.040	-0.230	-0.280	1.320
2020/01/31 18:50:20.5	75.030	-0.220	-0.280	1.330
2020/01/31 18:50:20.6	75.020	-0.210	-0.270	1.330
2020/01/31 18:50:20.7	75.020	-0.190	-0.270	1.340
2020/01/31 18:50:20.8	75.010	-0.180	-0.260	1.340
2020/01/31 18:50:20.9	75.010	-0.160	-0.260	1.340
2020/01/31 18:50:21.0	75.000	-0.150	-0.250	1.330
2020/01/31 18:50:21.1	75.000	-0.140	-0.250	1.330
2020/01/31 18:50:21.2	75.000	-0.120	-0.250	1.320
2020/01/31 18:50:21.3	75.000	-0.110	-0.240	1.300
2020/01/31 18:50:21.4	75.000	-0.090	-0.240	1.290
2020/01/31 18:50:21.5	75.010	-0.070	-0.240	1.270
2020/01/31 18:50:21.6	75.010	-0.060	-0.240	1.250
2020/01/31 18:50:21.7	75.020	-0.040	-0.250	1.230
2020/01/31 18:50:21.8	75.020	-0.030	-0.250	1.200
2020/01/31 18:50:21.9	75.030	-0.010	-0.250	1.180
2020/01/31 18:50:22.0	75.040	0.000	-0.260	1.140
2020/01/31 18:50:22.1	75.050	0.020	-0.270	1.110
2020/01/31 18:50:22.2	75.060	0.030	-0.270	1.080
2020/01/31 18:50:22.3	75.070	0.050	-0.280	1.040
2020/01/31 18:50:22.4	75.080	0.060	-0.290	1.010
2020/01/31 18:50:22.5	75.090	0.080	-0.300	0.970
2020/01/31 18:50:22.6	75.110	0.090	-0.300	0.930
2020/01/31 18:50:22.7	75.120	0.100	-0.310	0.890
2020/01/31 18:50:22.8	75.140	0.110	-0.320	0.850
2020/01/31 18:50:22.9	75.150	0.120	-0.320	0.810
2020/01/31 18:50:23.0	75.160	0.130	-0.330	0.770
2020/01/31 18:50:23.1	75.160	0.140	-0.330	0.740
2020/01/31 18:50:23.2	75.170	0.150	-0.330	0.700
2020/01/31 18:50:23.3	75.170	0.160	-0.330	0.660
2020/01/31 18:50:23.4	75.180	0.160	-0.320	0.630
2020/01/31 18:50:23.5	75.180	0.170	-0.320	0.600
2020/01/31 18:50:23.6	75.170	0.170	-0.310	0.570
2020/01/31 18:50:23.7	75.170	0.180	-0.300	0.540
2020/01/31 18:50:23.8	75.180	0.180	-0.280	0.520
2020/01/31 18:50:23.9	75.170	0.180	-0.270	0.490
2020/01/31 18:50:24.0	75.160	0.180	-0.250	0.470
2020/01/31 18:50:24.1	75.150	0.170	-0.240	0.450
2020/01/31 18:50:24.2	75.140	0.170	-0.220	0.430
2020/01/31 18:50:24.3	75.130	0.170	-0.200	0.410
2020/01/31 18:50:24.4	75.110	0.170	-0.180	0.390
2020/01/31 18:50:24.5	75.100	0.160	-0.160	0.370
2020/01/31 18:50:24.6	75.080	0.160	-0.140	0.360
2020/01/31 18:50:24.7	75.070	0.150	-0.120	0.340
2020/01/31 18:50:24.8	75.050	0.150	-0.110	0.330
2020/01/31 18:50:24.9	75.030	0.140	-0.090	0.310
2020/01/31 18:50:25.0	75.010	0.140	-0.070	0.300
2020/01/31 18:50:25.1	75.000	0.130	-0.050	0.290
2020/01/31 18:50:25.2	74.990	0.130	-0.040	0.270
2020/01/31 18:50:25.3	74.970	0.120	-0.030	0.260
2020/01/31 18:50:25.4	74.960	0.120	-0.020	0.250
2020/01/31 18:50:25.5	74.950	0.110	-0.010	0.230
2020/01/31 18:50:25.6	74.940	0.110	-0.000	0.220
2020/01/31 18:50:25.7	74.930	0.110	-0.000	0.200
2020/01/31 18:50:25.8	74.910	0.100	-0.000	0.190
2020/01/31 18:50:25.9	74.900	0.100	-0.000	0.180
2020/01/31 18:50:26.0	74.900	0.100	-0.010	0.160
2020/01/31 18:50:26.1	74.890	0.100	-0.020	0.150
2020/01/31 18:50:26.2	74.890	0.090	-0.030	0.130
2020/01/31 18:50:26.3	74.880	0.090	-0.040	0.120
2020/01/31 18:50:26.4	74.880	0.090	-0.060	0.100
2020/01/31 18:50:26.5	74.880	0.090	-0.070	0.080
2020/01/31 18:50:26.6	74.880	0.090	-0.090	0.070
2020/01/31 18:50:26.7	74.870	0.080	-0.120	0.050
2020/01/31 18:50:26.8	74.880	0.080	-0.140	0.040
2020/01/31 18:50:26.9	74.880	0.080	-0.160	0.020
2020/01/31 18:50:27.0	74.880	0.080	-0.190	0.000
2020/01/31 18:50:27.1	74.880	0.080	-0.220	-0.020
2020/01/31 18:50:27.2	74.880	0.070	-0.240	-0.030
2020/01/31 18:50:27.3	74.880	0.070	-0.270	-0.050
2020/01/31 18:50:27.4	74.890	0.070	-0.300	-0.070
2020/01/31 18:50:27.5	74.890	0.070	-0.320	-0.090
2020/01/31 18:50:27.6	74.900	0.070	-0.350	-0.110
2020/01/31 18:50:27.7	74.910	0.060	-0.370	-0.130
2020/01/31 18:50:27.8	74.910	0.060	-0.390	-0.150
2020/01/31 18:50:27.9	74.920	0.060	-0.410	-0.170
2020/01/31 18:50:28.0	74.920	0.060	-0.430	-0.190
2020/01/31 18:50:28.1	74.930	0.060	-0.440	-0.200
2020/01/31 18:50:28.2	74.940	0.060	-0.450	-0.220
2020/01/31 18:50:28.3	74.950	0.060	-0.460	-0.240
2020/01/31 18:50:28.4	74.960	0.060	-0.470	-0.250
2020/01/31 18:50:28.5	74.970	0.060	-0.470	-0.270
2020/01/31 18:50:28.6	74.980	0.060	-0.470	-0.280
2020/01/31 18:50:28.7	74.980	0.060	-0.460	-0.290
2020/01/31 18:50:28.8	74.980	0.060	-0.460	-0.310
2020/01/31 18:50:28.9	74.990	0.060	-0.450	-0.320
2020/01/31 18:50:29.0	75.000	0.060	-0.440	-0.330
2020/01/31 18:50:29.1	75.010	0.070	-0.420	-0.340
2020/01/31 18:50:29.2	75.010	0.070	-0.410	-0.340
2020/01/31 18:50:29.3	75.020	0.070	-0.390	-0.350
2020/01/31 18:50:29.4	75.020	0.080	-0.370	-0.360
2020/01/31 18:50:29.5	75.020	0.080	-0.350	-0.360
2020/01/31 18:50:29.6	75.030	0.080	-0.330	-0.360
2020/01/31 18:50:29.7	75.030	0.080	-0.300	-0.370
2020/01/31 18:50:29.8	75.030	0.090	-0.280	-0.370
2020/01/31 18:50:29.9	75.030	0.090	-0.250	-0.370
2020/01/31 18:50:30.0	75.030	0.090	-0.230	-0.370
2020/01/31 18:50:30.1	75.020	0.090	-0.200	-0.360
2020/01/31 18:50:30.2	75.020	0.090	-0.180	-0.360
2020/01/31 18:50:30.3	75.020	0.080	-0.150	-0.350
2020/01/31 18:50:30.4	75.010	0.080	-0.130	-0.340
2020/01/31 18:50:30.5	75.010	0.080	-0.100	-0.330
2020/01/31 18:50:30.6	75.000	0.070	-0.070	-0.320
2020/01/31 18:50:30.7	74.990	0.060	-0.050	-0.300
2020/01/31 18:50:30.8	74.980	0.050	-0.020	-0.280
2020/01/31 18:50:30.9	74.970	0.040	0.000	-0.260
2020/01/31 18:50:31.0	74.960	0.030	0.030	-0.240
2020/01/31 18:50:31.1	74.950	0.020	0.050	-0.210
2020/01/31 18:50:31.2	74.930	0.000	0.080	-0.180
2020/01/31 18:50:31.3	74.920	-0.010	0.100	-0.150
2020/01/31 18:50:31.4	74.900	-0.030	0.130	-0.120
2020/01/31 18:50:31.5	74.880	-0.050	0.150	-0.080
2020/01/31 18:50:31.6	74.860	-0.070	0.180	-0.040
2020/01/31 18:50:31.7	74.840	-0.090	0.200	0.000
2020/01/31 18:50:31.8	74.830	-0.110	0.220	0.050
2020/01/31 18:50:31.9	74.810	-0.130	0.240	0.090
2020/01/31 18:50:32.0	74.790	-0.150	0.260	0.140
2020/01/31 18:50:32.1	74.770	-0.170	0.270	0.190
2020/01/31 18:50:32.2	74.740	-0.190	0.290	0.230
2020/01/31 18:50:32.3	74.730	-0.210	0.300	0.280
2020/01/31 18:50:32.4	74.710	-0.230	0.310	0.330
2020/01/31 18:50:32.5	74.690	-0.240	0.320	0.380
2020/01/31 18:50:32.6	74.670	-0.260	0.330	0.420
2020/01/31 18:50:32.7	74.660	-0.280	0.330	0.470
2020/01/31 18:50:32.8	74.650	-0.290	0.330	0.510
2020/01/31 18:50:32.9	74.640	-0.300	0.330	0.560
2020/01/31 18:50:33.0	74.630	-0.310	0.330	0.600
2020/01/31 18:50:33.1	74.620	-0.320	0.320	0.640
2020/01/31 18:50:33.2	74.620	-0.320	0.310	0.680
2020/01/31 18:50:33.3	74.620	-0.320	0.290	0.710
2020/01/31 18:50:33.4	74.620	-0.320	0.270	0.750
2020/01/31 18:50:33.5	74.630	-0.320	0.250	0.780
2020/01/31 18:50:33.6	74.630	-0.320	0.220	0.810
2020/01/31 18:50:33.7	74.640	-0.310	0.190	0.830
2020/01/31 18:50:33.8	74.670	-0.300	0.160	0.860
2020/01/31 18:50:33.9	74.680	-0.290	0.120	0.880
2020/01/31 18:50:34.0	74.700	-0.280	0.080	0.900
2020/01/31 18:50:34.1	74.710	-0.270	0.030	0.910
2020/01/31 18:50:34.2	74.730	-0.250	-0.010	0.930
2020/01/31 18:50:34.3	74.750	-0.230	-0.060	0.940
2020/01/31 18:50:34.4	74.770	-0.220	-0.110	0.950
2020/01/31 18:50:34.5	74.790	-0.200	-0.160	0.950
2020/01/31 18:50:34.6	74.810	-0.180	-0.210	0.960
2020/01/31 18:50:34.7	74.830	-0.160	-0.270	0.960
2020/01/31 18:50:34.8	74.860	-0.140	-0.320	0.960
2020/01/31 18:50:34.9	74.880	-0.120	-0.370	0.960
2020/01/31 18:50:35.0	74.900	-0.090	-0.420	0.960
2020/01/31 18:50:35.1	74.920	-0.070	-0.480	0.950
2020/01/31 18:50:35.2	74.940	-0.050	-0.530	0.950
2020/01/31 18:50:35.3	74.960	-0.030	-0.580	0.940
2020/01/31 18:50:35.4	74.980	-0.010	-0.630	0.930
2020/01/31 18:50:35.5	74.990	0.010	-0.680	0.920
2020/01/31 18:50:35.6	75.010	0.030	-0.720	0.910
2020/01/31 18:50:35.7	75.030	0.050	-0.760	0.900
2020/01/31 18:50:35.8	75.040	0.070	-0.800	0.880
2020/01/31 18:50:35.9	75.060	0.090	-0.830	0.870
2020/01/31 18:50:36.0	75.070	0.110	-0.860	0.860
2020/01/31 18:50:36.1	75.080	0.120	-0.890	0.840
2020/01/31 18:50:36.2	75.090	0.140	-0.910	0.830
2020/01/31 18:50:36.3	75.100	0.160	-0.930	0.810
2020/01/31 18:50:36.4	75.110	0.170	-0.940	0.800
2020/01/31 18:50:36.5	75.120	0.180	-0.940	0.790
2020/01/31 18:50:36.6	75.120	0.200	-0.950	0.770
2020/01/31 18:50:36.7	75.130	0.210	-0.940	0.760
2020/01/31 18:50:36.8	75.130	0.220	-0.930	0.750
2020/01/31 18:50:36.9	75.130	0.230	-0.910	0.740
2020/01/31 18:50:37.0	75.120	0.240	-0.890	0.730
2020/01/31 18:50:37.1	75.120	0.250	-0.860	0.730
2020/01/31 18:50:37.2	75.120	0.250	-0.830	0.720
2020/01/31 18:50:37.3	75.110	0.260	-0.800	0.720
2020/01/31 18:50:37.4	75.100	0.260	-0.760	0.710
2020/01/31 18:50:37.5	75.090	0.270	-0.710	0.710
2020/01/31 18:50:37.6	75.090	0.270	-0.660	0.710
2020/01/31 18:50:37.7	75.070	0.270	-0.610	0.720
2020/01/31 18:50:37.8	75.060	0.260	-0.560	0.720
2020/01/31 18:50:37.9	75.050	0.260	-0.500	0.720
2020/01/31 18:50:38.0	75.030	0.260	-0.440	0.730
2020/01/31 18:50:38.1	75.020	0.250	-0.380	0.740
2020/01/31 18:50:38.2	75.000	0.240	-0.320	0.740
2020/01/31 18:50:38.3	74.990	0.230	-0.260	0.750
2020/01/31 18:50:38.4	74.970	0.210	-0.200	0.760
2020/01/31 18:50:38.5	74.950	0.200	-0.140	0.770
2020/01/31 18:50:38.6	74.940	0.180	-0.090	0.780
2020/01/31 18:50:38.7	74.920	0.170	-0.030	0.790
2020/01/31 18:50:38.8	74.910	0.150	0.020	0.790
2020/01/31 18:50:38.9	74.890	0.120	0.080	0.800
2020/01/31 18:50:39.0	74.880	0.100	0.120	0.810
2020/01/31 18:50:39.1	74.860	0.080	0.170	0.820
2020/01/31 18:50:39.2	74.840	0.050	0.210	0.830
2020/01/31 18:50:39.3	74.820	0.020	0.250	0.830
2020/01/31 18:50:39.4	74.800	-0.000	0.290	0.840
2020/01/31 18:50:39.5	74.790	-0.030	0.330	0.840
2020/01/31 18:50:39.6	74.770	-0.060	0.360	0.840
2020/01/31 18:50:39.7	74.750	-0.090	0.380	0.840
2020/01/31 18:50:39.8	74.730	-0.120	0.410	0.830
2020/01/31 18:50:39.9	74.720	-0.150	0.420	0.820
2020/01/31 18:50:40.0	74.700	-0.180	0.440	0.810
2020/01/31 18:50:40.1	74.690	-0.210	0.450	0.800
2020/01/31 18:50:40.2	74.670	-0.240	0.460	0.780
2020/01/31 18:50:40.3	74.660	-0.260	0.460	0.760
2020/01/31 18:50:40.4	74.650	-0.290	0.460	0.730
2020/01/31 18:50:40.5	74.640	-0.320	0.460	0.700
2020/01/31 18:50:40.6	74.630	-0.340	0.450	0.670
2020/01/31 18:50:40.7	74.620	-0.360	0.440	0.630
2020/01/31 18:50:40.8	74.610	-0.380	0.430	0.580
2020/01/31 18:50:40.9	74.610	-0.400	0.410	0.540
2020/01/31 18:50:41.0	74.600	-0.410	0.400	0.490
2020/01/31 18:50:41.1	74.600	-0.420	0.380	0.440
2020/01/31 18:50:41.2	74.600	-0.430	0.360	0.390
2020/01/31 18:50:41.3	74.600	-0.440	0.330	0.330
2020/01/31 18:50:41.4	74.600	-0.440	0.310	0.270
2020/01/31 18:50:41.5	74.600	-0.440	0.280	0.210
2020/01/31 18:50:41.6	74.600	-0.440	0.260	0.150
2020/01/31 18:50:41.7	74.610	-0.440	0.230	0.090
2020/01/31 18:50:41.8	74.610	-0.430	0.200	0.030
2020/01/31 18:50:41.9	74.620	-0.420	0.170	-0.030
2020/01/31 18:50:42.0	74.630	-0.400	0.140	-0.090
2020/01/31 18:50:42.1	74.640	-0.390	0.100	-0.140
2020/01/31 18:50:42.2	74.640	-0.370	0.070	-0.200
2020/01/31 18:50:42.3	74.660	-0.350	0.030	-0.260
2020/01/31 18:50:42.4	74.670	-0.330	-0.000	-0.310
2020/01/31 18:50:42.5	74.680	-0.300	-0.040	-0.360
2020/01/31 18:50:42.6	74.690	-0.270	-0.080	-0.410
2020/01/31 18:50:42.7	74.700	-0.240	-0.110	-0.460
2020/01/31 18:50:42.8	74.710	-0.210	-0.150	-0.500
2020/01/31 18:50:42.9	74.720	-0.180	-0.190	-0.540
2020/01/31 18:50:43.0	74.730	-0.150	-0.230	-0.570
2020/01/31 18:50:43.1	74.750	-0.120	-0.270	-0.610
2020/01/31 18:50:43.2	74.760	-0.080	-0.310	-0.640
2020/01/31 18:50:43.3	74.770	-0.050	-0.350	-0.660
2020/01/31 18:50:43.4	74.790	-0.020	-0.390	-0.690
2020/01/31 18:50:43.5	74.800	0.020	-0.430	-0.700
2020/01/31 18:50:43.6	74.810	0.050	-0.470	-0.720
2020/01/31 18:50:43.7	74.820	0.080	-0.500	-0.730
2020/01/31 18:50:43.8	74.830	0.110	-0.540	-0.740
2020/01/31 18:50:43.9	74.840	0.140	-0.570	-0.750
2020/01/31 18:50:44.0	74.850	0.170	-0.610	-0.750
2020/01/31 18:50:44.1	74.860	0.200	-0.640	-0.750
2020/01/31 18:50:44.2	74.880	0.230	-0.670	-0.740
2020/01/31 18:50:44.3	74.890	0.250	-0.690	-0.740
2020/01/31 18:50:44.4	74.900	0.270	-0.710	-0.730
2020/01/31 18:50:44.5	74.910	0.300	-0.740	-0.720
2020/01/31 18:50:44.6	74.920	0.320	-0.750	-0.710
2020/01/31 18:50:44.7	74.930	0.330	-0.770	-0.700
2020/01/31 18:50:44.8	74.950	0.350	-0.780	-0.680
2020/01/31 18:50:44.9	74.960	0.360	-0.790	-0.660
2020/01/31 18:50:45.0	74.970	0.370	-0.790	-0.640
2020/01/31 18:50:45.1	74.980	0.380	-0.790	-0.620
2020/01/31 18:50:45.2	74.990	0.390	-0.780	-0.590
2020/01/31 18:50:45.3	75.000	0.400	-0.770	-0.570
2020/01/31 18:50:45.4	75.010	0.400	-0.760	-0.540
2020/01/31 18:50:45.5	75.020	0.400	-0.740	-0.510
2020/01/31 18:50:45.6	75.030	0.400	-0.720	-0.480
2020/01/31 18:50:45.7	75.030	0.400	-0.700	-0.450
2020/01/31 18:50:45.8	75.040	0.390	-0.680	-0.410
2020/01/31 18:50:45.9	75.040	0.390	-0.650	-0.380
2020/01/31 18:50:46.0	75.050	0.380	-0.610	-0.340
2020/01/31 18:50:46.1	75.050	0.370	-0.580	-0.300
2020/01/31 18:50:46.2	75.060	0.360	-0.540	-0.270
2020/01/31 18:50:46.3	75.060	0.340	-0.510	-0.230
2020/01/31 18:50:46.4	75.070	0.330	-0.470	-0.190
2020/01/31 18:50:46.5	75.070	0.310	-0.430	-0.160
2020/01/31 18:50:46.6	75.070	0.290	-0.380	-0.120
2020/01/31 18:50:46.7	75.080	0.270	-0.340	-0.080
2020/01/31 18:50:46.8	75.090	0.250	-0.300	-0.040
2020/01/31 18:50:46.9	75.090	0.220	-0.260	0.000
2020/01/31 18:50:47.0	75.090	0.200	-0.220	0.040
2020/01/31 18:50:47.1	75.090	0.170	-0.170	0.080
2020/01/31 18:50:47.2	75.090	0.150	-0.130	0.130
2020/01/31 18:50:47.3	75.080	0.120	-0.090	0.170
2020/01/31 18:50:47.4	75.080	0.090	-0.050	0.220
2020/01/31 18:50:47.5	75.070	0.060	-0.010	0.260
2020/01/31 18:50:47.6	75.070	0.030	0.030	0.310
2020/01/31 18:50:47.7	75.060	0.000	0.060	0.360
2020/01/31 18:50:47.8	75.050	-0.030	0.090	0.420
2020/01/31 18:50:47.9	75.040	-0.060	0.130	0.470
2020/01/31 18:50:48.0	75.030	-0.090	0.160	0.520
2020/01/31 18:50:48.1	75.010	-0.110	0.200	0.580
2020/01/31 18:50:48.2	74.990	-0.140	0.230	0.630
2020/01/31 18:50:48.3	74.970	-0.170	0.260	0.690
2020/01/31 18:50:48.4	74.950	-0.190	0.280	0.750
2020/01/31 18:50:48.5	74.920	-0.220	0.310	0.810
2020/01/31 18:50:48.6	74.900	-0.240	0.330	0.870
2020/01/31 18:50:48.7	74.870	-0.260	0.360	0.930
2020/01/31 18:50:48.8	74.840	-0.290	0.380	0.990
2020/01/31 18:50:48.9	74.810	-0.300	0.400	1.050
2020/01/31 18:50:49.0	74.780	-0.320	0.410	1.110
2020/01/31 18:50:49.1	74.760	-0.330	0.420	1.160
2020/01/31 18:50:49.2	74.730	-0.350	0.430	1.220
2020/01/31 18:50:49.3	74.700	-0.360	0.430	1.270
2020/01/31 18:50:49.4	74.680	-0.360	0.430	1.320
2020/01/31 18:50:49.5	74.650	-0.370	0.420	1.360
2020/01/31 18:50:49.6	74.630	-0.370	0.410	1.400
2020/01/31 18:50:49.7	74.610	-0.370	0.400	1.440
2020/01/31 18:50:49.8	74.600	-0.370	0.380	1.470
2020/01/31 18:50:49.9	74.580	-0.360	0.360	1.500
2020/01/31 18:50:50.0	74.570	-0.350	0.330	1.520
2020/01/31 18:50:50.1	74.570	-0.340	0.300	1.540
2020/01/31 18:50:50.2	74.570	-0.330	0.260	1.550
2020/01/31 18:50:50.3	74.570	-0.310	0.230	1.550
2020/01/31 18:50:50.4	74.570	-0.290	0.180	1.550
2020/01/31 18:50:50.5	74.580	-0.270	0.140	1.550
2020/01/31 18:50:50.6	74.590	-0.250	0.090	1.540
2020/01/31 18:50:50.7	74.600	-0.230	0.040	1.520
2020/01/31 18:50:50.8	74.620	-0.200	-0.010	1.500
2020/01/31 18:50:50.9	74.640	-0.170	-0.060	1.480
2020/01/31 18:50:51.0	74.650	-0.140	-0.110	1.450
2020/01/31 18:50:51.1	74.670	-0.110	-0.160	1.420
2020/01/31 18:50:51.2	74.700	-0.080	-0.220	1.390
2020/01/31 18:50:51.3	74.720	-0.050	-0.270	1.350
2020/01/31 18:50:51.4	74.740	-0.020	-0.320	1.310
2020/01/31 18:50:51.5	74.760	0.020	-0.370	1.270
2020/01/31 18:50:51.6	74.790	0.050	-0.420	1.230
2020/01/31 18:50:51.7	74.810	0.080	-0.460	1.190
2020/01/31 18:50:51.8	74.840	0.110	-0.500	1.140
2020/01/31 18:50:51.9	74.860	0.140	-0.540	1.090
2020/01/31 18:50:52.0	74.880	0.170	-0.570	1.050
2020/01/31 18:50:52.1	74.900	0.200	-0.600	1.000
2020/01/31 18:50:52.2	74.920	0.230	-0.630	0.950
2020/01/31 18:50:52.3	74.940	0.250	-0.650	0.900
2020/01/31 18:50:52.4	74.960	0.280	-0.670	0.850
2020/01/31 18:50:52.5	74.980	0.300	-0.690	0.800
2020/01/31 18:50:52.6	75.000	0.320	-0.700	0.750
2020/01/31 18:50:52.7	75.020	0.330	-0.710	0.700
2020/01/31 18:50:52.8	75.030	0.350	-0.710	0.650
2020/01/31 18:50:52.9	75.040	0.360	-0.700	0.610
2020/01/31 18:50:53.0	75.050	0.360	-0.700	0.560
2020/01/31 18:50:53.1	75.070	0.370	-0.690	0.520
2020/01/31 18:50:53.2	75.080	0.370	-0.680	0.470
2020/01/31 18:50:53.3	75.090	0.370	-0.660	0.430
2020/01/31 18:50:53.4	75.090	0.360	-0.640	0.390
2020/01/31 18:50:53.5	75.100	0.360	-0.610	0.360
2020/01/31 18:50:53.6	75.100	0.340	-0.590	0.320
2020/01/31 18:50:53.7	75.110	0.330	-0.550	0.290
2020/01/31 18:50:53.8	75.090	0.310	-0.520	0.270
2020/01/31 18:50:53.9	75.090	0.290	-0.480	0.250
2020/01/31 18:50:54.0	75.090	0.270	-0.440	0.230
2020/01/31 18:50:54.1	75.080	0.250	-0.400	0.210
2020/01/31 18:50:54.2	75.070	0.220	-0.360	0.190
2020/01/31 18:50:54.3	75.070	0.190	-0.310	0.190
2020/01/31 18:50:54.4	75.050	0.160	-0.260	0.180
2020/01/31 18:50:54.5	75.040	0.130	-0.220	0.170
2020/01/31 18:50:54.6	75.030	0.090	-0.170	0.170
2020/01/31 18:50:54.7	75.010	0.060	-0.120	0.170
2020/01/31 18:50:54.8	74.980	0.020	-0.070	0.180
2020/01/31 18:50:54.9	74.960	-0.020	-0.020	0.180
2020/01/31 18:50:55.0	74.940	-0.050	0.030	0.190
2020/01/31 18:50:55.1	74.920	-0.090	0.080	0.200
2020/01/31 18:50:55.2	74.900	-0.130	0.120	0.220
2020/01/31 18:50:55.3	74.880	-0.170	0.160	0.230
2020/01/31 18:50:55.4	74.860	-0.200	0.200	0.240
2020/01/31 18:50:55.5	74.830	-0.240	0.240	0.260
2020/01/31 18:50:55.6	74.810	-0.270	0.270	0.270
2020/01/31 18:50:55.7	74.790	-0.300	0.300	0.290
2020/01/31 18:50:55.8	74.770	-0.330	0.330	0.300
2020/01/31 18:50:55.9	74.750	-0.360	0.350	0.310
2020/01/31 18:50:56.0	74.730	-0.390	0.360	0.320
2020/01/31 18:50:56.1	74.710	-0.410	0.370	0.330
2020/01/31 18:50:56.2	74.690	-0.430	0.380	0.330
2020/01/31 18:50:56.3	74.680	-0.450	0.370	0.340
2020/01/31 18:50:56.4	74.660	-0.470	0.370	0.340
2020/01/31 18:50:56.5	74.650	-0.480	0.350	0.330
2020/01/31 18:50:56.6	74.640	-0.480	0.340	0.330
2020/01/31 18:50:56.7	74.630	-0.490	0.310	0.320
2020/01/31 18:50:56.8	74.620	-0.490	0.280	0.310
2020/01/31 18:50:56.9	74.620	-0.480	0.250	0.300
2020/01/31 18:50:57.0	74.620	-0.480	0.210	0.280
2020/01/31 18:50:57.1	74.620	-0.460	0.160	0.270
2020/01/31 18:50:57.2	74.620	-0.450	0.110	0.250
2020/01/31 18:50:57.3	74.630	-0.430	0.060	0.230
2020/01/31 18:50:57.4	74.640	-0.410	0.000	0.200
2020/01/31 18:50:57.5	74.650	-0.390	-0.060	0.180
2020/01/31 18:50:57.6	74.660	-0.360	-0.120	0.150
2020/01/31 18:50:57.7	74.680	-0.330	-0.180	0.120
2020/01/31 18:50:57.8	74.700	-0.290	-0.250	0.090
2020/01/31 18:50:57.9	74.720	-0.260	-0.310	0.060
2020/01/31 18:50:58.0	74.740	-0.220	-0.380	0.030
2020/01/31 18:50:58.1	74.770	-0.180	-0.450	-0.000
2020/01/31 18:50:58.2	74.800	-0.150	-0.520	-0.030
2020/01/31 18:50:58.3	74.830	-0.110	-0.580	-0.070
2020/01/31 18:50:58.4	74.860	-0.070	-0.650	-0.100
2020/01/31 18:50:58.5	74.890	-0.020	-0.710	-0.130
2020/01/31 18:50:58.6	74.930	0.020	-0.760	-0.170
2020/01/31 18:50:58.7	74.960	0.050	-0.810	-0.200
2020/01/31 18:50:58.8	75.000	0.090	-0.860	-0.220
2020/01/31 18:50:58.9	75.040	0.130	-0.900	-0.250
2020/01/31 18:50:59.0	75.070	0.160	-0.940	-0.270
2020/01/31 18:50:59.1	75.100	0.190	-0.960	-0.290
2020/01/31 18:50:59.2	75.130	0.220	-0.980	-0.310
2020/01/31 18:50:59.3	75.160	0.250	-0.990	-0.320
2020/01/31 18:50:59.4	75.180	0.280	-0.990	-0.330
2020/01/31 18:50:59.5	75.200	0.300	-0.980	-0.340
2020/01/31 18:50:59.6	75.210	0.310	-0.960	-0.340
2020/01/31 18:50:59.7	75.220	0.330	-0.940	-0.330
2020/01/31 18:50:59.8	75.230	0.340	-0.900	-0.320
2020/01/31 18:50:59.9	75.230	0.350	-0.860	-0.310
2020/01/31 18:51:00.0	75.230	0.350	-0.800	-0.280
2020/01/31 18:51:00.1	75.220	0.350	-0.740	-0.260
2020/01/31 18:51:00.2	75.210	0.350	-0.680	-0.220
2020/01/31 18:51:00.3	75.190	0.350	-0.600	-0.190
2020/01/31 18:51:00.4	75.170	0.340	-0.520	-0.150
2020/01/31 18:51:00.5	75.140	0.330	-0.440	-0.100
2020/01/31 18:51:00.6	75.110	0.320	-0.350	-0.050
2020/01/31 18:51:00.7	75.080	0.300	-0.260	0.000
2020/01/31 18:51:00.8	75.040	0.280	-0.160	0.060
2020/01/31 18:51:00.9	74.990	0.260	-0.070	0.120
2020/01/31 18:51:01.0	74.950	0.240	0.030	0.180
2020/01/31 18:51:01.1	74.900	0.220	0.120	0.250
2020/01/31 18:51:01.2	74.860	0.200	0.210	0.310
2020/01/31 18:51:01.3	74.810	0.170	0.300	0.370
2020/01/31 18:51:01.4	74.760	0.150	0.380	0.440
2020/01/31 18:51:01.5	74.710	0.120	0.460	0.500
2020/01/31 18:51:01.6	74.660	0.100	0.530	0.560
2020/01/31 18:51:01.7	74.610	0.080	0.600	0.620
2020/01/31 18:51:01.8	74.560	0.050	0.650	0.680
2020/01/31 18:51:01.9	74.520	0.030	0.700	0.740
2020/01/31 18:51:02.0	74.470	0.010	0.740	0.790
2020/01/31 18:51:02.1	74.430	-0.010	0.770	0.840
2020/01/31 18:51:02.2	74.380	-0.030	0.790	0.880
2020/01/31 18:51:02.3	74.340	-0.040	0.810	0.930
2020/01/31 18:51:02.4	74.300	-0.060	0.810	0.960
2020/01/31 18:51:02.5	74.260	-0.070	0.800	1.000
2020/01/31 18:51:02.6	74.220	-0.080	0.790	1.030
2020/01/31 18:51:02.7	74.190	-0.090	0.770	1.060
2020/01/31 18:51:02.8	74.150	-0.100	0.740	1.080
2020/01/31 18:51:02.9	74.120	-0.110	0.700	1.100
2020/01/31 18:51:03.0	74.090	-0.110	0.650	1.120
2020/01/31 18:51:03.1	74.060	-0.110	0.600	1.130
2020/01/31 18:51:03.2	74.040	-0.120	0.550	1.140
2020/01/31 18:51:03.3	74.010	-0.120	0.480	1.150
2020/01/31 18:51:03.4	73.990	-0.120	0.420	1.140
2020/01/31 18:51:03.5	73.970	-0.110	0.340	1.140
2020/01/31 18:51:03.6	73.950	-0.110	0.270	1.130
2020/01/31 18:51:03.7	73.940	-0.110	0.190	1.120
2020/01/31 18:51:03.8	73.940	-0.100	0.110	1.100
2020/01/31 18:51:03.9	73.930	-0.100	0.030	1.070
2020/01/31 18:51:04.0	73.920	-0.090	-0.060	1.050
2020/01/31 18:51:04.1	73.920	-0.080	-0.140	1.020
2020/01/31 18:51:04.2	73.920	-0.070	-0.220	0.980
2020/01/31 18:51:04.3	73.920	-0.060	-0.310	0.940
2020/01/31 18:51:04.4	73.930	-0.050	-0.390	0.900
2020/01/31 18:51:04.5	73.940	-0.040	-0.470	0.850
2020/01/31 18:51:04.6	73.950	-0.030	-0.550	0.800
2020/01/31 18:51:04.7	73.970	-0.020	-0.630	0.750
2020/01/31 18:51:04.8	73.990	-0.010	-0.700	0.700
2020/01/31 18:51:04.9	74.010	0.000	-0.770	0.640
2020/01/31 18:51:05.0	74.040	0.020	-0.840	0.580
2020/01/31 18:51:05.1	74.070	0.030	-0.900	0.520
2020/01/31 18:51:05.2	74.110	0.040	-0.960	0.460
2020/01/31 18:51:05.3	74.150	0.060	-1.010	0.390
2020/01/31 18:51:05.4	74.190	0.070	-1.060	0.330
2020/01/31 18:51:05.5	74.230	0.090	-1.100	0.270
2020/01/31 18:51:05.6	74.280	0.100	-1.140	0.210
2020/01/31 18:51:05.7	74.330	0.120	-1.170	0.140
2020/01/31 18:51:05.8	74.370	0.130	-1.200	0.080
2020/01/31 18:51:05.9	74.420	0.150	-1.220	0.030
2020/01/31 18:51:06.0	74.470	0.160	-1.240	-0.030
2020/01/31 18:51:06.1	74.520	0.180	-1.250	-0.080
2020/01/31 18:51:06.2	74.570	0.190	-1.250	-0.120
2020/01/31 18:51:06.3	74.620	0.200	-1.250	-0.160
2020/01/31 18:51:06.4	74.670	0.220	-1.230	-0.200
2020/01/31 18:51:06.5	74.720	0.230	-1.220	-0.230
2020/01/31 18:51:06.6	74.760	0.240	-1.190	-0.250
2020/01/31 18:51:06.7	74.800	0.250	-1.160	-0.270
2020/01/31 18:51:06.8	74.840	0.260	-1.110	-0.280
2020/01/31 18:51:06.9	74.880	0.260	-1.070	-0.280
2020/01/31 18:51:07.0	74.910	0.270	-1.010	-0.280
2020/01/31 18:51:07.1	74.940	0.270	-0.950	-0.270
2020/01/31 18:51:07.2	74.960	0.270	-0.880	-0.250
2020/01/31 18:51:07.3	74.980	0.270	-0.800	-0.230
2020/01/31 18:51:07.4	74.990	0.260	-0.720	-0.190
2020/01/31 18:51:07.5	75.000	0.250	-0.630	-0.160
2020/01/31 18:51:07.6	75.000	0.240	-0.540	-0.110
2020/01/31 18:51:07.7	75.000	0.230	-0.440	-0.060
2020/01/31 18:51:07.8	75.000	0.210	-0.350	-0.000
2020/01/31 18:51:07.9	74.990	0.200	-0.240	0.060
2020/01/31 18:51:08.0	74.980	0.170	-0.130	0.130
2020/01/31 18:51:08.1	74.960	0.150	-0.020	0.200
2020/01/31 18:51:08.2	74.930	0.130	0.090	0.280
2020/01/31 18:51:08.3	74.900	0.100	0.210	0.360
2020/01/31 18:51:08.4	74.870	0.070	0.320	0.450
2020/01/31 18:51:08.5	74.840	0.040	0.430	0.540
2020/01/31 18:51:08.6	74.800	0.000	0.540	0.640
2020/01/31 18:51:08.7	74.750	-0.030	0.640	0.730
2020/01/31 18:51:08.8	74.720	-0.070	0.740	0.830
2020/01/31 18:51:08.9	74.670	-0.110	0.840	0.930
2020/01/31 18:51:09.0	74.620	-0.150	0.920	1.030
2020/01/31 18:51:09.1	74.570	-0.180	1.000	1.130
2020/01/31 18:51:09.2	74.510	-0.220	1.070	1.220
2020/01/31 18:51:09.3	74.460	-0.260	1.140	1.320
2020/01/31 18:51:09.4	74.400	-0.300	1.190	1.410
2020/01/31 18:51:09.5	74.340	-0.340	1.230	1.490
2020/01/31 18:51:09.6	74.290	-0.370	1.270	1.570
2020/01/31 18:51:09.7	74.230	-0.410	1.290	1.650
2020/01/31 18:51:09.8	74.180	-0.440	1.300	1.710
2020/01/31 18:51:09.9	74.130	-0.480	1.300	1.780
2020/01/31 18:51:10.0	74.070	-0.510	1.280	1.830
2020/01/31 18:51:10.1	74.030	-0.530	1.260	1.880
2020/01/31 18:51:10.2	73.980	-0.560	1.230	1.920
2020/01/31 18:51:10.3	73.930	-0.580	1.180	1.950
2020/01/31 18:51:10.4	73.890	-0.600	1.130	1.980
2020/01/31 18:51:10.5	73.850	-0.620	1.060	1.990
2020/01/31 18:51:10.6	73.820	-0.630	0.990	2.000
2020/01/31 18:51:10.7	73.780	-0.650	0.900	2.000
2020/01/31 18:51:10.8	73.760	-0.650	0.810	1.990
2020/01/31 18:51:10.9	73.730	-0.660	0.710	1.980
2020/01/31 18:51:11.0	73.700	-0.660	0.610	1.960
2020/01/31 18:51:11.1	73.670	-0.660	0.500	1.930
2020/01/31 18:51:11.2	73.650	-0.660	0.380	1.890
2020/01/31 18:51:11.3	73.630	-0.650	0.260	1.850
2020/01/31 18:51:11.4	73.610	-0.640	0.140	1.800
2020/01/31 18:51:11.5	73.590	-0.630	0.020	1.750
2020/01/31 18:51:11.6	73.580	-0.620	-0.100	1.690
2020/01/31 18:51:11.7	73.570	-0.600	-0.230	1.630
2020/01/31 18:51:11.8	73.560	-0.580	-0.350	1.560
2020/01/31 18:51:11.9	73.550	-0.560	-0.470	1.490
2020/01/31 18:51:12.0	73.540	-0.530	-0.580	1.410
2020/01/31 18:51:12.1	73.540	-0.510	-0.690	1.330
2020/01/31 18:51:12.2	73.530	-0.480	-0.800	1.250
2020/01/31 18:51:12.3	73.530	-0.450	-0.900	1.160
2020/01/31 18:51:12.4	73.530	-0.420	-1.000	1.080
2020/01/31 18:51:12.5	73.530	-0.390	-1.080	0.990
2020/01/31 18:51:12.6	73.530	-0.350	-1.160	0.900
2020/01/31 18:51:12.7	73.530	-0.320	-1.230	0.810
2020/01/31 18:51:12.8	73.540	-0.290	-1.290	0.710
2020/01/31 18:51:12.9	73.550	-0.250	-1.340	0.620
2020/01/31 18:51:13.0	73.550	-0.210	-1.390	0.530
2020/01/31 18:51:13.1	73.560	-0.180	-1.420	0.440
2020/01/31 18:51:13.2	73.570	-0.140	-1.440	0.350
2020/01/31 18:51:13.3	73.580	-0.100	-1.460	0.260
2020/01/31 18:51:13.4	73.590	-0.070	-1.460	0.170
2020/01/31 18:51:13.5	73.610	-0.030	-1.460	0.090
2020/01/31 18:51:13.6	73.620	0.010	-1.440	0.000
2020/01/31 18:51:13.7	73.640	0.050	-1.420	-0.080
2020/01/31 18:51:13.8	73.650	0.080	-1.400	-0.160
2020/01/31 18:51:13.9	73.660	0.120	-1.360	-0.230
2020/01/31 18:51:14.0	73.680	0.160	-1.320	-0.310
2020/01/31 18:51:14.1	73.700	0.190	-1.280	-0.380
2020/01/31 18:51:14.2	73.720	0.230	-1.230	-0.440
2020/01/31 18:51:14.3	73.740	0.270	-1.170	-0.510
2020/01/31 18:51:14.4	73.760	0.300	-1.120	-0.570
2020/01/31 18:51:14.5	73.770	0.340	-1.060	-0.630
2020/01/31 18:51:14.6	73.790	0.370	-1.000	-0.680
2020/01/31 18:51:14.7	73.810	0.410	-0.940	-0.730
2020/01/31 18:51:14.8	73.840	0.440	-0.870	-0.770
2020/01/31 18:51:14.9	73.860	0.470	-0.810	-0.810
2020/01/31 18:51:15.0	73.870	0.500	-0.750	-0.850
2020/01/31 18:51:15.1	73.890	0.530	-0.690	-0.880
2020/01/31 18:51:15.2	73.910	0.560	-0.640	-0.900
2020/01/31 18:51:15.3	73.920	0.580	-0.580	-0.930
2020/01/31 18:51:15.4	73.940	0.610	-0.530	-0.940
2020/01/31 18:51:15.5	73.950	0.630	-0.480	-0.960
2020/01/31 18:51:15.6	73.970	0.650	-0.430	-0.960
2020/01/31 18:51:15.7	73.980	0.670	-0.390	-0.970
2020/01/31 18:51:15.8	73.980	0.690	-0.350	-0.960
2020/01/31 18:51:15.9	73.990	0.700	-0.310	-0.960
2020/01/31 18:51:16.0	74.000	0.720	-0.270	-0.950
2020/01/31 18:51:16.1	74.000	0.730	-0.240	-0.930
2020/01/31 18:51:16.2	74.010	0.730	-0.210	-0.910
2020/01/31 18:51:16.3	74.010	0.740	-0.190	-0.890
2020/01/31 18:51:16.4	74.020	0.740	-0.160	-0.860
2020/01/31 18:51:16.5	74.020	0.740	-0.140	-0.830
2020/01/31 18:51:16.6	74.020	0.740	-0.120	-0.800
2020/01/31 18:51:16.7	74.020	0.740	-0.100	-0.760
2020/01/31 18:51:16.8	74.020	0.730	-0.080	-0.710
2020/01/31 18:51:16.9	74.020	0.720	-0.060	-0.670
2020/01/31 18:51:17.0	74.010	0.710	-0.040	-0.610
2020/01/31 18:51:17.1	74.000	0.690	-0.020	-0.560
2020/01/31 18:51:17.2	73.990	0.670	-0.010	-0.500
2020/01/31 18:51:17.3	73.980	0.650	0.020	-0.440
2020/01/31 18:51:17.4	73.960	0.630	0.040	-0.370
2020/01/31 18:51:17.5	73.950	0.600	0.060	-0.300
2020/01/31 18:51:17.6	73.920	0.580	0.080	-0.230
2020/01/31 18:51:17.7	73.900	0.540	0.110	-0.150
2020/01/31 18:51:17.8	73.870	0.510	0.140	-0.070
2020/01/31 18:51:17.9	73.840	0.470	0.170	0.010
2020/01/31 18:51:18.0	73.810	0.440	0.200	0.090
2020/01/31 18:51:18.1	73.780	0.400	0.230	0.180
2020/01/31 18:51:18.2	73.740	0.350	0.270	0.260
2020/01/31 18:51:18.3	73.700	0.310	0.300	0.350
2020/01/31 18:51:18.4	73.660	0.260	0.340	0.430
2020/01/31 18:51:18.5	73.610	0.220	0.380	0.510
2020/01/31 18:51:18.6	73.560	0.170	0.420	0.600
2020/01/31 18:51:18.7	73.520	0.120	0.460	0.680
2020/01/31 18:51:18.8	73.480	0.070	0.500	0.760
2020/01/31 18:51:18.9	73.420	0.010	0.530	0.840
2020/01/31 18:51:19.0	73.370	-0.040	0.570	0.920
2020/01/31 18:51:19.1	73.320	-0.090	0.610	1.000
2020/01/31 18:51:19.2	73.270	-0.140	0.640	1.070
2020/01/31 18:51:19.3	73.220	-0.190	0.670	1.140
2020/01/31 18:51:19.4	73.160	-0.240	0.700	1.210
2020/01/31 18:51:19.5	73.110	-0.290	0.720	1.280
2020/01/31 18:51:19.6	73.060	-0.330	0.740	1.340
2020/01/31 18:51:19.7	73.010	-0.380	0.760	1.400
2020/01/31 18:51:19.8	72.970	-0.420	0.770	1.450
2020/01/31 18:51:19.9	72.930	-0.460	0.770	1.500
2020/01/31 18:51:20.0	72.880	-0.500	0.770	1.550
2020/01/31 18:51:20.1	72.840	-0.530	0.770	1.590
2020/01/31 18:51:20.2	72.800	-0.560	0.760	1.630
2020/01/31 18:51:20.3	72.770	-0.590	0.740	1.660
2020/01/31 18:51:20.4	72.730	-0.610	0.710	1.680
2020/01/31 18:51:20.5	72.700	-0.630	0.680	1.700
2020/01/31 18:51:20.6	72.670	-0.640	0.650	1.720
2020/01/31 18:51:20.7	72.650	-0.650	0.600	1.730
2020/01/31 18:51:20.8	72.640	-0.660	0.550	1.740
2020/01/31 18:51:20.9	72.620	-0.660	0.500	1.740
2020/01/31 18:51:21.0	72.610	-0.660	0.430	1.740
2020/01/31 18:51:21.1	72.590	-0.660	0.360	1.730
2020/01/31 18:51:21.2	72.590	-0.650	0.290	1.720
2020/01/31 18:51:21.3	72.580	-0.630	0.210	1.700
2020/01/31 18:51:21.4	72.580	-0.620	0.130	1.680
2020/01/31 18:51:21.5	72.580	-0.590	0.040	1.650
2020/01/31 18:51:21.6	72.590	-0.570	-0.050	1.620
2020/01/31 18:51:21.7	72.600	-0.540	-0.140	1.580
2020/01/31 18:51:21.8	72.610	-0.510	-0.230	1.540
2020/01/31 18:51:21.9	72.630	-0.480	-0.330	1.500
2020/01/31 18:51:22.0	72.640	-0.440	-0.420	1.450
2020/01/31 18:51:22.1	72.660	-0.400	-0.510	1.400
2020/01/31 18:51:22.2	72.680	-0.360	-0.600	1.350
2020/01/31 18:51:22.3	72.710	-0.320	-0.690	1.300
2020/01/31 18:51:22.4	72.730	-0.280	-0.770	1.240
2020/01/31 18:51:22.5	72.760	-0.230	-0.850	1.180
2020/01/31 18:51:22.6	72.790	-0.190	-0.920	1.120
2020/01/31 18:51:22.7	72.820	-0.150	-0.990	1.070
2020/01/31 18:51:22.8	72.850	-0.100	-1.050	1.010
2020/01/31 18:51:22.9	72.880	-0.060	-1.100	0.950
2020/01/31 18:51:23.0	72.910	-0.020	-1.140	0.890
2020/01/31 18:51:23.1	72.940	0.020	-1.180	0.840
2020/01/31 18:51:23.2	72.970	0.060	-1.210	0.780
2020/01/31 18:51:23.3	72.990	0.090	-1.220	0.730
2020/01/31 18:51:23.4	73.020	0.130	-1.230	0.670
2020/01/31 18:51:23.5	73.050	0.150	-1.230	0.630
2020/01/31 18:51:23.6	73.070	0.180	-1.220	0.580
2020/01/31 18:51:23.7	73.100	0.210	-1.200	0.530
2020/01/31 18:51:23.8	73.120	0.220	-1.170	0.500
2020/01/31 18:51:23.9	73.140	0.240	-1.130	0.460
2020/01/31 18:51:24.0	73.160	0.250	-1.080	0.420
2020/01/31 18:51:24.1	73.180	0.260	-1.030	0.390
2020/01/31 18:51:24.2	73.190	0.270	-0.970	0.370
2020/01/31 18:51:24.3	73.210	0.270	-0.900	0.350
2020/01/31 18:51:24.4	73.220	0.270	-0.820	0.330
2020/01/31 18:51:24.5	73.230	0.260	-0.750	0.310
2020/01/31 18:51:24.6	73.230	0.250	-0.660	0.310
2020/01/31 18:51:24.7	73.240	0.240	-0.570	0.300
2020/01/31 18:51:24.8	73.240	0.220	-0.490	0.300
2020/01/31 18:51:24.9	73.240	0.200	-0.390	0.300
2020/01/31 18:51:25.0	73.240	0.180	-0.300	0.310
2020/01/31 18:51:25.1	73.230	0.160	-0.210	0.320
2020/01/31 18:51:25.2	73.230	0.130	-0.120	0.340
2020/01/31 18:51:25.3	73.210	0.110	-0.030	0.360
2020/01/31 18:51:25.4	73.200	0.080	0.050	0.380
2020/01/31 18:51:25.5	73.190	0.050	0.130	0.400
2020/01/31 18:51:25.6	73.170	0.030	0.210	0.430
2020/01/31 18:51:25.7	73.150	-0.000	0.280	0.450
2020/01/31 18:51:25.8	73.140	-0.030	0.350	0.480
2020/01/31 18:51:25.9	73.120	-0.060	0.410	0.510
2020/01/31 18:51:26.0	73.090	-0.080	0.460	0.540
2020/01/31 18:51:26.1	73.070	-0.100	0.510	0.560
2020/01/31 18:51:26.2	73.050	-0.130	0.550	0.590
2020/01/31 18:51:26.3	73.020	-0.150	0.580	0.620
2020/01/31 18:51:26.4	73.000	-0.160	0.600	0.640
2020/01/31 18:51:26.5	72.970	-0.180	0.610	0.660
2020/01/31 18:51:26.6	72.950	-0.190	0.620	0.680
2020/01/31 18:51:26.7	72.920	-0.200	0.610	0.700
2020/01/31 18:51:26.8	72.890	-0.210	0.600	0.710
2020/01/31 18:51:26.9	72.860	-0.210	0.580	0.720
2020/01/31 18:51:27.0	72.840	-0.210	0.550	0.730
2020/01/31 18:51:27.1	72.810	-0.210	0.520	0.730
2020/01/31 18:51:27.2	72.790	-0.210	0.480	0.740
2020/01/31 18:51:27.3	72.760	-0.200	0.430	0.740
2020/01/31 18:51:27.4	72.740	-0.190	0.380	0.730
2020/01/31 18:51:27.5	72.710	-0.170	0.330	0.730
2020/01/31 18:51:27.6	72.690	-0.160	0.270	0.720
2020/01/31 18:51:27.7	72.660	-0.140	0.210	0.710
2020/01/31 18:51:27.8	72.640	-0.120	0.140	0.700
2020/01/31 18:51:27.9	72.620	-0.100	0.080	0.690
2020/01/31 18:51:28.0	72.590	-0.080	0.010	0.680
2020/01/31 18:51:28.1	72.560	-0.060	-0.050	0.660
2020/01/31 18:51:28.2	72.540	-0.030	-0.120	0.650
2020/01/31 18:51:28.3	72.510	-0.010	-0.190	0.630
2020/01/31 18:51:28.4	72.480	0.010	-0.250	0.620
2020/01/31 18:51:28.5	72.450	0.030	-0.310	0.600
2020/01/31 18:51:28.6	72.420	0.060	-0.370	0.580
2020/01/31 18:51:28.7	72.390	0.070	-0.430	0.570
2020/01/31 18:51:28.8	72.350	0.090	-0.480	0.550
2020/01/31 18:51:28.9	72.320	0.110	-0.530	0.530
2020/01/31 18:51:29.0	72.290	0.120	-0.580	0.510
2020/01/31 18:51:29.1	72.250	0.130	-0.620	0.490
2020/01/31 18:51:29.2	72.220	0.140	-0.660	0.470
2020/01/31 18:51:29.3	72.190	0.150	-0.690	0.440
2020/01/31 18:51:29.4	72.160	0.150	-0.720	0.420
2020/01/31 18:51:29.5	72.130	0.160	-0.740	0.390
2020/01/31 18:51:29.6	72.100	0.150	-0.760	0.370
2020/01/31 18:51:29.7	72.070	0.150	-0.780	0.340
2020/01/31 18:51:29.8	72.040	0.140	-0.790	0.310
2020/01/31 18:51:29.9	72.010	0.140	-0.800	0.280
2020/01/31 18:51:30.0	71.980	0.130	-0.810	0.240
2020/01/31 18:51:30.1	71.960	0.120	-0.810	0.210
2020/01/31 18:51:30.2	71.940	0.100	-0.810	0.180
2020/01/31 18:51:30.3	71.920	0.090	-0.800	0.150
2020/01/31 18:51:30.4	71.900	0.070	-0.800	0.110
2020/01/31 18:51:30.5	71.890	0.060	-0.790	0.080
2020/01/31 18:51:30.6	71.880	0.040	-0.780	0.040
2020/01/31 18:51:30.7	71.870	0.030	-0.760	0.000
2020/01/31 18:51:30.8	71.850	0.010	-0.740	-0.030
2020/01/31 18:51:30.9	71.850	-0.000	-0.730	-0.070
2020/01/31 18:51:31.0	71.840	-0.010	-0.710	-0.110
2020/01/31 18:51:31.1	71.840	-0.030	-0.690	-0.140
2020/01/31 18:51:31.2	71.840	-0.040	-0.670	-0.180
2020/01/31 18:51:31.3	71.850	-0.040	-0.640	-0.220
2020/01/31 18:51:31.4	71.850	-0.050	-0.620	-0.260
2020/01/31 18:51:31.5	71.860	-0.050	-0.590	-0.300
2020/01/31 18:51:31.6	71.870	-0.050	-0.570	-0.330
2020/01/31 18:51:31.7	71.880	-0.050	-0.540	-0.370
2020/01/31 18:51:31.8	71.890	-0.050	-0.520	-0.410
2020/01/31 18:51:31.9	71.900	-0.040	-0.490	-0.450
2020/01/31 18:51:32.0	71.920	-0.030	-0.460	-0.480
2020/01/31 18:51:32.1	71.930	-0.010	-0.430	-0.510
2020/01/31 18:51:32.2	71.950	0.000	-0.410	-0.540
2020/01/31 18:51:32.3	71.960	0.020	-0.380	-0.580
2020/01/31 18:51:32.4	71.980	0.040	-0.350	-0.610
2020/01/31 18:51:32.5	71.990	0.070	-0.320	-0.630
2020/01/31 18:51:32.6	72.010	0.090	-0.300	-0.660
2020/01/31 18:51:32.7	72.030	0.120	-0.270	-0.690
2020/01/31 18:51:32.8	72.040	0.150	-0.250	-0.710
2020/01/31 18:51:32.9	72.060	0.180	-0.220	-0.730
2020/01/31 18:51:33.0	72.080	0.210	-0.190	-0.750
2020/01/31 18:51:33.1	72.110	0.250	-0.170	-0.770
2020/01/31 18:51:33.2	72.130	0.280	-0.140	-0.780
2020/01/31 18:51:33.3	72.150	0.310	-0.120	-0.800
2020/01/31 18:51:33.4	72.170	0.350	-0.100	-0.810
2020/01/31 18:51:33.5	72.190	0.380	-0.070	-0.820
2020/01/31 18:51:33.6	72.210	0.410	-0.050	-0.820
2020/01/31 18:51:33.7	72.240	0.440	-0.020	-0.820
2020/01/31 18:51:33.8	72.270	0.470	0.000	-0.820
2020/01/31 18:51:33.9	72.290	0.500	0.030	-0.810
2020/01/31 18:51:34.0	72.310	0.520	0.050	-0.800
2020/01/31 18:51:34.1	72.330	0.540	0.080	-0.780
2020/01/31 18:51:34.2	72.350	0.560	0.100	-0.760
2020/01/31 18:51:34.3	72.370	0.570	0.130	-0.730
2020/01/31 18:51:34.4	72.380	0.590	0.160	-0.700
2020/01/31 18:51:34.5	72.400	0.590	0.180	-0.660
2020/01/31 18:51:34.6	72.410	0.600	0.210	-0.620
2020/01/31 18:51:34.7	72.430	0.590	0.240	-0.580
2020/01/31 18:51:34.8	72.450	0.590	0.260	-0.530
2020/01/31 18:51:34.9	72.460	0.580	0.290	-0.480
2020/01/31 18:51:35.0	72.470	0.560	0.320	-0.420
2020/01/31 18:51:35.1	72.470	0.540	0.340	-0.360
2020/01/31 18:51:35.2	72.480	0.520	0.370	-0.300
2020/01/31 18:51:35.3	72.480	0.490	0.390	-0.240
2020/01/31 18:51:35.4	72.480	0.460	0.420	-0.170
2020/01/31 18:51:35.5	72.480	0.420	0.440	-0.110
2020/01/31 18:51:35.6	72.470	0.380	0.470	-0.040
2020/01/31 18:51:35.7	72.460	0.330	0.490	0.040
2020/01/31 18:51:35.8	72.450	0.280	0.510	0.110
2020/01/31 18:51:35.9	72.440	0.230	0.530	0.190
2020/01/31 18:51:36.0	72.430	0.180	0.540	0.260
2020/01/31 18:51:36.1	72.410	0.120	0.560	0.330
2020/01/31 18:51:36.2	72.390	0.060	0.570	0.410
2020/01/31 18:51:36.3	72.370	-0.000	0.590	0.480
2020/01/31 18:51:36.4	72.340	-0.070	0.600	0.560
2020/01/31 18:51:36.5	72.310	-0.130	0.610	0.630
2020/01/31 18:51:36.6	72.280	-0.200	0.610	0.700
2020/01/31 18:51:36.7	72.250	-0.270	0.620	0.780
2020/01/31 18:51:36.8	72.230	-0.330	0.620	0.840
2020/01/31 18:51:36.9	72.200	-0.400	0.620	0.910
2020/01/31 18:51:37.0	72.170	-0.460	0.610	0.980
2020/01/31 18:51:37.1	72.130	-0.520	0.610	1.040
2020/01/31 18:51:37.2	72.100	-0.580	0.600	1.100
2020/01/31 18:51:37.3	72.070	-0.640	0.580	1.150
2020/01/31 18:51:37.4	72.050	-0.690	0.560	1.200
2020/01/31 18:51:37.5	72.020	-0.740	0.540	1.250
2020/01/31 18:51:37.6	71.990	-0.790	0.510	1.290
2020/01/31 18:51:37.7	71.970	-0.830	0.480	1.330
2020/01/31 18:51:37.8	71.960	-0.860	0.450	1.360
2020/01/31 18:51:37.9	71.940	-0.890	0.410	1.380
2020/01/31 18:51:38.0	71.920	-0.920	0.370	1.400
2020/01/31 18:51:38.1	71.910	-0.940	0.320	1.420
2020/01/31 18:51:38.2	71.900	-0.960	0.270	1.430
2020/01/31 18:51:38.3	71.890	-0.970	0.220	1.440
2020/01/31 18:51:38.4	71.890	-0.970	0.160	1.440
2020/01/31 18:51:38.5	71.880	-0.970	0.100	1.430
2020/01/31 18:51:38.6	71.880	-0.960	0.030	1.430
2020/01/31 18:51:38.7	71.880	-0.950	-0.030	1.420
2020/01/31 18:51:38.8	71.870	-0.930	-0.100	1.410
2020/01/31 18:51:38.9	71.880	-0.910	-0.170	1.390
2020/01/31 18:51:39.0	71.880	-0.880	-0.250	1.370
2020/01/31 18:51:39.1	71.880	-0.850	-0.320	1.360
2020/01/31 18:51:39.2	71.880	-0.810	-0.400	1.330
2020/01/31 18:51:39.3	71.890	-0.770	-0.470	1.310
2020/01/31 18:51:39.4	71.890	-0.730	-0.550	1.290
2020/01/31 18:51:39.5	71.900	-0.680	-0.630	1.260
2020/01/31 18:51:39.6	71.900	-0.630	-0.700	1.240
2020/01/31 18:51:39.7	71.910	-0.580	-0.780	1.210
2020/01/31 18:51:39.8	71.900	-0.520	-0.850	1.180
2020/01/31 18:51:39.9	71.910	-0.460	-0.920	1.160
2020/01/31 18:51:40.0	71.910	-0.400	-0.990	1.130
2020/01/31 18:51:40.1	71.920	-0.340	-1.060	1.100
2020/01/31 18:51:40.2	71.930	-0.280	-1.120	1.070
2020/01/31 18:51:40.3	71.940	-0.220	-1.190	1.040
2020/01/31 18:51:40.4	71.940	-0.160	-1.240	1.000
2020/01/31 18:51:40.5	71.960	-0.100	-1.290	0.970
2020/01/31 18:51:40.6	71.970	-0.040	-1.340	0.940
2020/01/31 18:51:40.7	71.980	0.020	-1.380	0.900
2020/01/31 18:51:40.8	71.990	0.080	-1.420	0.870
2020/01/31 18:51:40.9	72.010	0.140	-1.450	0.830
2020/01/31 18:51:41.0	72.020	0.190	-1.470	0.790
2020/01/31 18:51:41.1	72.040	0.250	-1.500	0.750
2020/01/31 18:51:41.2	72.060	0.300	-1.510	0.710
2020/01/31 18:51:41.3	72.080	0.340	-1.520	0.670
2020/01/31 18:51:41.4	72.100	0.390	-1.520	0.620
2020/01/31 18:51:41.5	72.120	0.430	-1.520	0.580
2020/01/31 18:51:41.6	72.140	0.470	-1.510	0.530
2020/01/31 18:51:41.7	72.170	0.510	-1.490	0.490
2020/01/31 18:51:41.8	72.200	0.550	-1.480	0.440
2020/01/31 18:51:41.9	72.220	0.580	-1.450	0.390
2020/01/31 18:51:42.0	72.250	0.610	-1.410	0.340
2020/01/31 18:51:42.1	72.270	0.630	-1.370	0.300
2020/01/31 18:51:42.2	72.290	0.650	-1.320	0.250
2020/01/31 18:51:42.3	72.320	0.670	-1.270	0.210
2020/01/31 18:51:42.4	72.340	0.680	-1.210	0.170
2020/01/31 18:51:42.5	72.360	0.690	-1.140	0.130
2020/01/31 18:51:42.6	72.380	0.700	-1.070	0.090
2020/01/31 18:51:42.7	72.400	0.700	-0.980	0.050
2020/01/31 18:51:42.8	72.420	0.700	-0.890	0.020
2020/01/31 18:51:42.9	72.430	0.690	-0.800	-0.010
2020/01/31 18:51:43.0	72.440	0.690	-0.700	-0.040
2020/01/31 18:51:43.1	72.440	0.670	-0.590	-0.060
2020/01/31 18:51:43.2	72.450	0.660	-0.480	-0.080
2020/01/31 18:51:43.3	72.450	0.640	-0.370	-0.100
2020/01/31 18:51:43.4	72.440	0.620	-0.250	-0.120
2020/01/31 18:51:43.5	72.440	0.590	-0.140	-0.140
2020/01/31 18:51:43.6	72.430	0.560	-0.010	-0.150
2020/01/31 18:51:43.7	72.410	0.530	0.110	-0.170
2020/01/31 18:51:43.8	72.390	0.490	0.230	-0.180
2020/01/31 18:51:43.9	72.370	0.450	0.360	-0.190
2020/01/31 18:51:44.0	72.350	0.410	0.480	-0.200
2020/01/31 18:51:44.1	72.320	0.370	0.600	-0.210
2020/01/31 18:51:44.2	72.290	0.330	0.720	-0.220
2020/01/31 18:51:44.3	72.260	0.280	0.830	-0.230
2020/01/31 18:51:44.4	72.220	0.240	0.940	-0.240
2020/01/31 18:51:44.5	72.180	0.190	1.050	-0.250
2020/01/31 18:51:44.6	72.140	0.140	1.150	-0.260
2020/01/31 18:51:44.7	72.100	0.090	1.240	-0.270
2020/01/31 18:51:44.8	72.060	0.040	1.320	-0.280
2020/01/31 18:51:44.9	72.010	-0.000	1.400	-0.290
2020/01/31 18:51:45.0	71.970	-0.050	1.460	-0.300
2020/01/31 18:51:45.1	71.920	-0.100	1.520	-0.310
2020/01/31 18:51:45.2	71.870	-0.140	1.560	-0.330
2020/01/31 18:51:45.3	71.830	-0.180	1.600	-0.340
2020/01/31 18:51:45.4	71.780	-0.220	1.620	-0.360
2020/01/31 18:51:45.5	71.730	-0.260	1.630	-0.370
2020/01/31 18:51:45.6	71.690	-0.290	1.620	-0.390
2020/01/31 18:51:45.7	71.640	-0.320	1.610	-0.410
2020/01/31 18:51:45.8	71.600	-0.350	1.580	-0.430
2020/01/31 18:51:45.9	71.560	-0.370	1.540	-0.450
2020/01/31 18:51:46.0	71.520	-0.390	1.490	-0.480
2020/01/31 18:51:46.1	71.490	-0.400	1.420	-0.500
2020/01/31 18:51:46.2	71.450	-0.410	1.340	-0.530
2020/01/31 18:51:46.3	71.420	-0.420	1.260	-0.560
2020/01/31 18:51:46.4	71.400	-0.420	1.160	-0.590
2020/01/31 18:51:46.5	71.370	-0.410	1.050	-0.620
2020/01/31 18:51:46.6	71.360	-0.400	0.930	-0.650
2020/01/31 18:51:46.7	71.340	-0.390	0.800	-0.680
2020/01/31 18:51:46.8	71.320	-0.370	0.660	-0.720
2020/01/31 18:51:46.9	71.320	-0.350	0.520	-0.760
2020/01/31 18:51:47.0	71.320	-0.320	0.370	-0.790
2020/01/31 18:51:47.1	71.320	-0.290	0.220	-0.830
2020/01/31 18:51:47.2	71.330	-0.250	0.060	-0.870
2020/01/31 18:51:47.3	71.340	-0.220	-0.100	-0.910
2020/01/31 18:51:47.4	71.350	-0.170	-0.260	-0.950
2020/01/31 18:51:47.5	71.370	-0.130	-0.430	-0.990
2020/01/31 18:51:47.6	71.400	-0.080	-0.590	-1.030
2020/01/31 18:51:47.7	71.420	-0.040	-0.750	-1.070
2020/01/31 18:51:47.8	71.460	0.010	-0.910	-1.100
2020/01/31 18:51:47.9	71.490	0.060	-1.060	-1.140
2020/01/31 18:51:48.0	71.530	0.110	-1.200	-1.180
2020/01/31 18:51:48.1	71.570	0.160	-1.340	-1.220
2020/01/31 18:51:48.2	71.620	0.210	-1.470	-1.260
2020/01/31 18:51:48.3	71.660	0.260	-1.590	-1.290
2020/01/31 18:51:48.4	71.710	0.300	-1.700	-1.320
2020/01/31 18:51:48.5	71.760	0.340	-1.800	-1.350
2020/01/31 18:51:48.6	71.800	0.380	-1.890	-1.370
2020/01/31 18:51:48.7	71.850	0.420	-1.960	-1.390
2020/01/31 18:51:48.8	71.900	0.450	-2.020	-1.410
2020/01/31 18:51:48.9	71.950	0.480	-2.060	-1.420
2020/01/31 18:51:49.0	72.000	0.510	-2.100	-1.430
2020/01/31 18:51:49.1	72.040	0.520	-2.120	-1.430
2020/01/31 18:51:49.2	72.090	0.540	-2.120	-1.420
2020/01/31 18:51:49.3	72.130	0.550	-2.110	-1.410
2020/01/31 18:51:49.4	72.160	0.550	-2.090	-1.390
2020/01/31 18:51:49.5	72.200	0.550	-2.050	-1.360
2020/01/31 18:51:49.6	72.230	0.540	-2.000	-1.330
2020/01/31 18:51:49.7	72.260	0.530	-1.930	-1.290
2020/01/31 18:51:49.8	72.290	0.520	-1.860	-1.240
2020/01/31 18:51:49.9	72.310	0.490	-1.780	-1.180
2020/01/31 18:51:50.0	72.330	0.470	-1.680	-1.130
2020/01/31 18:51:50.1	72.350	0.430	-1.580	-1.060
2020/01/31 18:51:50.2	72.370	0.400	-1.470	-0.990
2020/01/31 18:51:50.3	72.380	0.360	-1.350	-0.920
2020/01/31 18:51:50.4	72.390	0.320	-1.220	-0.840
2020/01/31 18:51:50.5	72.400	0.270	-1.090	-0.760
2020/01/31 18:51:50.6	72.410	0.220	-0.960	-0.680
2020/01/31 18:51:50.7	72.410	0.170	-0.820	-0.590
2020/01/31 18:51:50.8	72.410	0.110	-0.680	-0.500
2020/01/31 18:51:50.9	72.410	0.060	-0.540	-0.410
2020/01/31 18:51:51.0	72.410	0.000	-0.400	-0.320
2020/01/31 18:51:51.1	72.410	-0.050	-0.260	-0.230
2020/01/31 18:51:51.2	72.400	-0.110	-0.120	-0.130
2020/01/31 18:51:51.3	72.390	-0.160	0.010	-0.040
2020/01/31 18:51:51.4	72.390	-0.220	0.140	0.060
2020/01/31 18:51:51.5	72.380	-0.270	0.270	0.150
2020/01/31 18:51:51.6	72.360	-0.320	0.400	0.250
2020/01/31 18:51:51.7	72.350	-0.370	0.520	0.350
2020/01/31 18:51:51.8	72.330	-0.420	0.630	0.440
2020/01/31 18:51:51.9	72.310	-0.460	0.740	0.540
2020/01/31 18:51:52.0	72.290	-0.510	0.850	0.630
2020/01/31 18:51:52.1	72.270	-0.540	0.950	0.730
2020/01/31 18:51:52.2	72.250	-0.580	1.050	0.820
2020/01/31 18:51:52.3	72.230	-0.610	1.130	0.920
2020/01/31 18:51:52.4	72.200	-0.640	1.220	1.010
2020/01/31 18:51:52.5	72.170	-0.660	1.290	1.100
2020/01/31 18:51:52.6	72.140	-0.680	1.360	1.190
2020/01/31 18:51:52.7	72.110	-0.700	1.420	1.280
2020/01/31 18:51:52.8	72.080	-0.710	1.480	1.360
2020/01/31 18:51:52.9	72.050	-0.720	1.530	1.450
2020/01/31 18:51:53.0	72.010	-0.720	1.570	1.530
2020/01/31 18:51:53.1	71.980	-0.720	1.590	1.600
2020/01/31 18:51:53.2	71.940	-0.720	1.610	1.680
2020/01/31 18:51:53.3	71.900	-0.720	1.620	1.740
2020/01/31 18:51:53.4	71.860	-0.700	1.630	1.810
2020/01/31 18:51:53.5	71.830	-0.690	1.620	1.870
2020/01/31 18:51:53.6	71.790	-0.670	1.600	1.920
2020/01/31 18:51:53.7	71.750	-0.650	1.570	1.970
2020/01/31 18:51:53.8	71.720	-0.630	1.530	2.020
2020/01/31 18:51:53.9	71.690	-0.600	1.490	2.050
2020/01/31 18:51:54.0	71.660	-0.570	1.430	2.080
2020/01/31 18:51:54.1	71.630	-0.540	1.360	2.100
2020/01/31 18:51:54.2	71.610	-0.510	1.290	2.120
2020/01/31 18:51:54.3	71.580	-0.470	1.200	2.130
2020/01/31 18:51:54.4	71.560	-0.430	1.110	2.130
2020/01/31 18:51:54.5	71.550	-0.390	1.000	2.130
2020/01/31 18:51:54.6	71.530	-0.350	0.900	2.120
2020/01/31 18:51:54.7	71.520	-0.310	0.780	2.100
2020/01/31 18:51:54.8	71.520	-0.260	0.650	2.080
2020/01/31 18:51:54.9	71.520	-0.220	0.530	2.050
2020/01/31 18:51:55.0	71.520	-0.170	0.390	2.020
2020/01/31 18:51:55.1	71.520	-0.130	0.260	1.980
2020/01/31 18:51:55.2	71.530	-0.080	0.120	1.930
2020/01/31 18:51:55.3	71.530	-0.040	-0.020	1.890
2020/01/31 18:51:55.4	71.550	0.010	-0.160	1.830
2020/01/31 18:51:55.5	71.560	0.050	-0.300	1.780
2020/01/31 18:51:55.6	71.580	0.100	-0.430	1.720
2020/01/31 18:51:55.7	71.590	0.140	-0.570	1.660
2020/01/31 18:51:55.8	71.610	0.180	-0.700	1.590
2020/01/31 18:51:55.9	71.640	0.220	-0.830	1.520
2020/01/31 18:51:56.0	71.660	0.260	-0.960	1.450
2020/01/31 18:51:56.1	71.690	0.300	-1.080	1.380
2020/01/31 18:51:56.2	71.720	0.340	-1.190	1.310
2020/01/31 18:51:56.3	71.750	0.370	-1.300	1.230
2020/01/31 18:51:56.4	71.780	0.400	-1.400	1.150
2020/01/31 18:51:56.5	71.810	0.430	-1.500	1.070
2020/01/31 18:51:56.6	71.840	0.460	-1.580	0.990
2020/01/31 18:51:56.7	71.880	0.480	-1.650	0.910
2020/01/31 18:51:56.8	71.900	0.510	-1.720	0.820
2020/01/31 18:51:56.9	71.930	0.530	-1.770	0.740
2020/01/31 18:51:57.0	71.960	0.540	-1.820	0.660
2020/01/31 18:51:57.1	71.990	0.560	-1.850	0.570
2020/01/31 18:51:57.2	72.020	0.570	-1.870	0.490
2020/01/31 18:51:57.3	72.050	0.590	-1.890	0.410
2020/01/31 18:51:57.4	72.080	0.600	-1.890	0.340
2020/01/31 18:51:57.5	72.100	0.600	-1.880	0.260
2020/01/31 18:51:57.6	72.120	0.610	-1.860	0.190
2020/01/31 18:51:57.7	72.140	0.610	-1.830	0.120
2020/01/31 18:51:57.8	72.160	0.610	-1.790	0.050
2020/01/31 18:51:57.9	72.170	0.610	-1.740	-0.010
2020/01/31 18:51:58.0	72.180	0.610	-1.680	-0.060
2020/01/31 18:51:58.1	72.190	0.610	-1.620	-0.120
2020/01/31 18:51:58.2	72.200	0.600	-1.540	-0.170
2020/01/31 18:51:58.3	72.200	0.600	-1.460	-0.210
2020/01/31 18:51:58.4	72.210	0.590	-1.380	-0.250
2020/01/31 18:51:58.5	72.210	0.580	-1.290	-0.290
2020/01/31 18:51:58.6	72.200	0.570	-1.190	-0.320
2020/01/31 18:51:58.7	72.200	0.550	-1.100	-0.350
2020/01/31 18:51:58.8	72.190	0.540	-1.000	-0.380
2020/01/31 18:51:58.9	72.180	0.530	-0.890	-0.410
2020/01/31 18:51:59.0	72.170	0.510	-0.790	-0.430
2020/01/31 18:51:59.1	72.160	0.490	-0.690	-0.440
2020/01/31 18:51:59.2	72.150	0.470	-0.590	-0.460
2020/01/31 18:51:59.3	72.130	0.450	-0.490	-0.470
2020/01/31 18:51:59.4	72.110	0.430	-0.400	-0.480
2020/01/31 18:51:59.5	72.100	0.410	-0.300	-0.480
2020/01/31 18:51:59.6	72.080	0.390	-0.220	-0.490
2020/01/31 18:51:59.7	72.060	0.370	-0.130	-0.490
2020/01/31 18:51:59.8	72.050	0.340	-0.050	-0.480
2020/01/31 18:51:59.9	72.030	0.320	0.020	-0.470
2020/01/31 18:52:00.0	72.020	0.290	0.090	-0.460
2020/01/31 18:52:00.1	72.000	0.270	0.150	-0.450
2020/01/31 18:52:00.2	71.980	0.240	0.200	-0.430
2020/01/31 18:52:00.3	71.970	0.220	0.250	-0.410
2020/01/31 18:52:00.4	71.950	0.190	0.300	-0.390
2020/01/31 18:52:00.5	71.930	0.160	0.340	-0.360
2020/01/31 18:52:00.6	71.920	0.140	0.380	-0.330
2020/01/31 18:52:00.7	71.910	0.110	0.410	-0.300
2020/01/31 18:52:00.8	71.890	0.080	0.430	-0.260
2020/01/31 18:52:00.9	71.870	0.050	0.460	-0.230
2020/01/31 18:52:01.0	71.860	0.030	0.480	-0.190
2020/01/31 18:52:01.1	71.850	-0.000	0.500	-0.150
2020/01/31 18:52:01.2	71.840	-0.030	0.520	-0.100
2020/01/31 18:52:01.3	71.830	-0.060	0.540	-0.060
2020/01/31 18:52:01.4	71.810	-0.090	0.560	-0.010
2020/01/31 18:52:01.5	71.800	-0.110	0.570	0.040
2020/01/31 18:52:01.6	71.790	-0.140	0.590	0.080
2020/01/31 18:52:01.7	71.780	-0.170	0.600	0.130
2020/01/31 18:52:01.8	71.780	-0.200	0.610	0.180
2020/01/31 18:52:01.9	71.770	-0.220	0.620	0.220
2020/01/31 18:52:02.0	71.770	-0.250	0.630	0.260
2020/01/31 18:52:02.1	71.760	-0.270	0.640	0.300
2020/01/31 18:52:02.2	71.750	-0.300	0.650	0.340
2020/01/31 18:52:02.3	71.740	-0.320	0.650	0.380
2020/01/31 18:52:02.4	71.730	-0.340	0.650	0.410
2020/01/31 18:52:02.5	71.730	-0.360	0.650	0.440
2020/01/31 18:52:02.6	71.720	-0.380	0.650	0.460
2020/01/31 18:52:02.7	71.710	-0.390	0.650	0.490
2020/01/31 18:52:02.8	71.710	-0.410	0.630	0.510
2020/01/31 18:52:02.9	71.700	-0.420	0.620	0.520
2020/01/31 18:52:03.0	71.700	-0.430	0.610	0.530
2020/01/31 18:52:03.1	71.690	-0.440	0.590	0.540
2020/01/31 18:52:03.2	71.690	-0.440	0.560	0.540
2020/01/31 18:52:03.3	71.690	-0.440	0.540	0.540
2020/01/31 18:52:03.4	71.690	-0.440	0.500	0.530
2020/01/31 18:52:03.5	71.690	-0.440	0.470	0.530
2020/01/31 18:52:03.6	71.690	-0.430	0.430	0.520
2020/01/31 18:52:03.7	71.690	-0.420	0.390	0.510
2020/01/31 18:52:03.8	71.690	-0.410	0.340	0.490
2020/01/31 18:52:03.9	71.690	-0.390	0.290	0.480
2020/01/31 18:52:04.0	71.700	-0.370	0.240	0.460
2020/01/31 18:52:04.1	71.700	-0.350	0.180	0.440
2020/01/31 18:52:04.2	71.710	-0.330	0.120	0.420
2020/01/31 18:52:04.3	71.720	-0.300	0.060	0.400
2020/01/31 18:52:04.4	71.730	-0.280	0.000	0.380
2020/01/31 18:52:04.5	71.740	-0.250	-0.060	0.360
2020/01/31 18:52:04.6	71.750	-0.210	-0.120	0.340
2020/01/31 18:52:04.7	71.770	-0.180	-0.180	0.320
2020/01/31 18:52:04.8	71.780	-0.150	-0.240	0.300
2020/01/31 18:52:04.9	71.790	-0.110	-0.300	0.290
2020/01/31 18:52:05.0	71.810	-0.080	-0.360	0.270
2020/01/31 18:52:05.1	71.830	-0.040	-0.410	0.250
2020/01/31 18:52:05.2	71.850	-0.010	-0.470	0.240
2020/01/31 18:52:05.3	71.870	0.030	-0.520	0.230
2020/01/31 18:52:05.4	71.890	0.060	-0.560	0.220
2020/01/31 18:52:05.5	71.910	0.090	-0.610	0.210
2020/01/31 18:52:05.6	71.930	0.120	-0.640	0.200
2020/01/31 18:52:05.7	71.950	0.150	-0.680	0.190
2020/01/31 18:52:05.8	71.970	0.180	-0.710	0.190
2020/01/31 18:52:05.9	71.990	0.200	-0.730	0.190
2020/01/31 18:52:06.0	72.010	0.230	-0.750	0.190
2020/01/31 18:52:06.1	72.030	0.250	-0.770	0.190
2020/01/31 18:52:06.2	72.050	0.260	-0.770	0.190
2020/01/31 18:52:06.3	72.060	0.280	-0.780	0.200
2020/01/31 18:52:06.4	72.080	0.290	-0.780	0.200
2020/01/31 18:52:06.5	72.090	0.290	-0.770	0.210
2020/01/31 18:52:06.6	72.110	0.300	-0.760	0.210
2020/01/31 18:52:06.7	72.120	0.300	-0.740	0.220
2020/01/31 18:52:06.8	72.130	0.290	-0.710	0.220
2020/01/31 18:52:06.9	72.140	0.290	-0.690	0.230
2020/01/31 18:52:07.0	72.150	0.280	-0.660	0.240
2020/01/31 18:52:07.1	72.160	0.270	-0.630	0.240
2020/01/31 18:52:07.2	72.170	0.260	-0.590	0.250
2020/01/31 18:52:07.3	72.180	0.240	-0.560	0.260
2020/01/31 18:52:07.4	72.190	0.220	-0.520	0.260
2020/01/31 18:52:07.5	72.200	0.200	-0.480	0.270
2020/01/31 18:52:07.6	72.210	0.180	-0.440	0.270
2020/01/31 18:52:07.7	72.220	0.160	-0.400	0.280
2020/01/31 18:52:07.8	72.230	0.140	-0.370	0.280
2020/01/31 18:52:07.9	72.230	0.120	-0.330	0.280
2020/01/31 18:52:08.0	72.240	0.100	-0.290	0.280
2020/01/31 18:52:08.1	72.250	0.080	-0.250	0.280
2020/01/31 18:52:08.2	72.260	0.060	-0.220	0.280
2020/01/31 18:52:08.3	72.270	0.040	-0.190	0.270
2020/01/31 18:52:08.4	72.280	0.020	-0.160	0.270
2020/01/31 18:52:08.5	72.290	-0.000	-0.130	0.260
2020/01/31 18:52:08.6	72.300	-0.020	-0.110	0.250
2020/01/31 18:52:08.7	72.310	-0.030	-0.080	0.250
2020/01/31 18:52:08.8	72.320	-0.050	-0.060	0.240
2020/01/31 18:52:08.9	72.330	-0.060	-0.050	0.230
2020/01/31 18:52:09.0	72.340	-0.070	-0.030	0.220
2020/01/31 18:52:09.1	72.350	-0.080	-0.020	0.210
2020/01/31 18:52:09.2	72.350	-0.090	-0.010	0.210
2020/01/31 18:52:09.3	72.360	-0.090	-0.000	0.200
2020/01/31 18:52:09.4	72.360	-0.100	0.010	0.200
2020/01/31 18:52:09.5	72.360	-0.100	0.010	0.200
2020/01/31 18:52:09.6	72.360	-0.100	0.020	0.200
2020/01/31 18:52:09.7	72.360	-0.100	0.020	0.200
2020/01/31 18:52:09.8	72.360	-0.100	0.020	0.200
2020/01/31 18:52:09.9	72.360	-0.100	0.030	0.210
2020/01/31 18:52:10.0	72.350	-0.100	0.030	0.220
2020/01/31 18:52:10.1	72.330	-0.100	0.030	0.230
2020/01/31 18:52:10.2	72.320	-0.090	0.040	0.240
2020/01/31 18:52:10.3	72.300	-0.090	0.040	0.260
2020/01/31 18:52:10.4	72.290	-0.090	0.050	0.280
2020/01/31 18:52:10.5	72.270	-0.090	0.050	0.300
2020/01/31 18:52:10.6	72.240	-0.090	0.060	0.320
2020/01/31 18:52:10.7	72.220	-0.090	0.060	0.350
2020/01/31 18:52:10.8	72.190	-0.090	0.070	0.370
2020/01/31 18:52:10.9	72.170	-0.090	0.080	0.400
2020/01/31 18:52:11.0	72.140	-0.090	0.080	0.430
2020/01/31 18:52:11.1	72.110	-0.090	0.090	0.460
2020/01/31 18:52:11.2	72.080	-0.090	0.100	0.490
2020/01/31 18:52:11.3	72.060	-0.090	0.100	0.520
2020/01/31 18:52:11.4	72.030	-0.100	0.100	0.550
2020/01/31 18:52:11.5	72.000	-0.100	0.110	0.580
2020/01/31 18:52:11.6	71.970	-0.100	0.110	0.610
2020/01/31 18:52:11.7	71.950	-0.110	0.100	0.630
2020/01/31 18:52:11.8	71.930	-0.110	0.100	0.660
2020/01/31 18:52:11.9	71.910	-0.110	0.090	0.680
2020/01/31 18:52:12.0	71.890	-0.120	0.080	0.700
2020/01/31 18:52:12.1	71.870	-0.120	0.060	0.720
2020/01/31 18:52:12.2	71.860	-0.120	0.040	0.740
2020/01/31 18:52:12.3	71.850	-0.120	0.020	0.750
2020/01/31 18:52:12.4	71.840	-0.120	-0.000	0.760
2020/01/31 18:52:12.5	71.840	-0.120	-0.030	0.760
2020/01/31 18:52:12.6	71.840	-0.120	-0.070	0.770
2020/01/31 18:52:12.7	71.840	-0.110	-0.100	0.770
2020/01/31 18:52:12.8	71.840	-0.110	-0.140	0.770
2020/01/31 18:52:12.9	71.850	-0.100	-0.180	0.760
2020/01/31 18:52:13.0	71.860	-0.100	-0.230	0.750
2020/01/31 18:52:13.1	71.870	-0.090	-0.270	0.750
2020/01/31 18:52:13.2	71.890	-0.080	-0.320	0.730
2020/01/31 18:52:13.3	71.910	-0.060	-0.370	0.720
2020/01/31 18:52:13.4	71.930	-0.050	-0.410	0.710
2020/01/31 18:52:13.5	71.950	-0.030	-0.460	0.690
2020/01/31 18:52:13.6	71.970	-0.020	-0.510	0.670
2020/01/31 18:52:13.7	71.990	-0.000	-0.550	0.650
2020/01/31 18:52:13.8	72.010	0.020	-0.600	0.640
2020/01/31 18:52:13.9	72.040	0.040	-0.640	0.620
2020/01/31 18:52:14.0	72.060	0.060	-0.680	0.600
2020/01/31 18:52:14.1	72.090	0.080	-0.710	0.580
2020/01/31 18:52:14.2	72.110	0.100	-0.740	0.560
2020/01/31 18:52:14.3	72.130	0.120	-0.770	0.540
2020/01/31 18:52:14.4	72.160	0.140	-0.800	0.520
2020/01/31 18:52:14.5	72.180	0.170	-0.810	0.500
2020/01/31 18:52:14.6	72.200	0.190	-0.830	0.490
2020/01/31 18:52:14.7	72.210	0.210	-0.840	0.470
2020/01/31 18:52:14.8	72.230	0.230	-0.850	0.460
2020/01/31 18:52:14.9	72.250	0.250	-0.850	0.440
2020/01/31 18:52:15.0	72.260	0.270	-0.840	0.430
2020/01/31 18:52:15.1	72.270	0.290	-0.840	0.420
2020/01/31 18:52:15.2	72.280	0.300	-0.820	0.400
2020/01/31 18:52:15.3	72.290	0.320	-0.810	0.390
2020/01/31 18:52:15.4	72.300	0.330	-0.790	0.370
2020/01/31 18:52:15.5	72.310	0.340	-0.760	0.350
2020/01/31 18:52:15.6	72.320	0.350	-0.740	0.340
2020/01/31 18:52:15.7	72.320	0.360	-0.710	0.320
2020/01/31 18:52:15.8	72.330	0.360	-0.670	0.290
2020/01/31 18:52:15.9	72.340	0.360	-0.640	0.270
2020/01/31 18:52:16.0	72.340	0.360	-0.600	0.240
2020/01/31 18:52:16.1	72.350	0.360	-0.560	0.220
2020/01/31 18:52:16.2	72.360	0.360	-0.520	0.190
2020/01/31 18:52:16.3	72.360	0.350	-0.480	0.160
2020/01/31 18:52:16.4	72.370	0.340	-0.430	0.120
2020/01/31 18:52:16.5	72.380	0.330	-0.390	0.090
2020/01/31 18:52:16.6	72.390	0.310	-0.340	0.050
2020/01/31 18:52:16.7	72.400	0.300	-0.290	0.020
2020/01/31 18:52:16.8	72.410	0.280	-0.250	-0.020
2020/01/31 18:52:16.9	72.420	0.260	-0.200	-0.060
2020/01/31 18:52:17.0	72.430	0.250	-0.150	-0.100
2020/01/31 18:52:17.1	72.440	0.220	-0.100	-0.130
2020/01/31 18:52:17.2	72.460	0.200	-0.050	-0.170
2020/01/31 18:52:17.3	72.470	0.180	0.010	-0.210
2020/01/31 18:52:17.4	72.480	0.160	0.060	-0.240
2020/01/31 18:52:17.5	72.490	0.130	0.110	-0.270
2020/01/31 18:52:17.6	72.500	0.110	0.160	-0.300
2020/01/31 18:52:17.7	72.510	0.090	0.220	-0.330
2020/01/31 18:52:17.8	72.520	0.060	0.270	-0.350
2020/01/31 18:52:17.9	72.530	0.040	0.320	-0.380
2020/01/31 18:52:18.0	72.540	0.020	0.370	-0.400
2020/01/31 18:52:18.1	72.550	-0.010	0.410	-0.410
2020/01/31 18:52:18.2	72.560	-0.030	0.460	-0.430
2020/01/31 18:52:18.3	72.570	-0.050	0.500	-0.430
2020/01/31 18:52:18.4	72.580	-0.070	0.540	-0.440
2020/01/31 18:52:18.5	72.580	-0.090	0.580	-0.440
2020/01/31 18:52:18.6	72.580	-0.110	0.620	-0.440
2020/01/31 18:52:18.7	72.590	-0.120	0.650	-0.430
2020/01/31 18:52:18.8	72.590	-0.140	0.680	-0.430
2020/01/31 18:52:18.9	72.590	-0.150	0.700	-0.410
2020/01/31 18:52:19.0	72.590	-0.160	0.720	-0.390
2020/01/31 18:52:19.1	72.580	-0.170	0.730	-0.370
2020/01/31 18:52:19.2	72.580	-0.180	0.740	-0.350
2020/01/31 18:52:19.3	72.570	-0.190	0.750	-0.320
2020/01/31 18:52:19.4	72.560	-0.200	0.750	-0.300
2020/01/31 18:52:19.5	72.550	-0.210	0.740	-0.270
2020/01/31 18:52:19.6	72.540	-0.210	0.730	-0.230
2020/01/31 18:52:19.7	72.530	-0.220	0.720	-0.200
2020/01/31 18:52:19.8	72.520	-0.220	0.690	-0.160
2020/01/31 18:52:19.9	72.510	-0.220	0.660	-0.130
2020/01/31 18:52:20.0	72.500	-0.220	0.630	-0.100
2020/01/31 18:52:20.1	72.490	-0.220	0.590	-0.070
2020/01/31 18:52:20.2	72.480	-0.220	0.540	-0.040
2020/01/31 18:52:20.3	72.470	-0.220	0.490	-0.010
2020/01/31 18:52:20.4	72.460	-0.210	0.440	0.020
2020/01/31 18:52:20.5	72.460	-0.210	0.380	0.050
2020/01/31 18:52:20.6	72.450	-0.210	0.310	0.080
2020/01/31 18:52:20.7	72.450	-0.200	0.250	0.100
2020/01/31 18:52:20.8	72.450	-0.190	0.170	0.130
2020/01/31 18:52:20.9	72.450	-0.190	0.100	0.150
2020/01/31 18:52:21.0	72.450	-0.180	0.020	0.170
2020/01/31 18:52:21.1	72.460	-0.170	-0.060	0.190
2020/01/31 18:52:21.2	72.460	-0.170	-0.140	0.210
2020/01/31 18:52:21.3	72.470	-0.160	-0.220	0.230
2020/01/31 18:52:21.4	72.480	-0.150	-0.300	0.240
2020/01/31 18:52:21.5	72.490	-0.140	-0.370	0.260
2020/01/31 18:52:21.6	72.500	-0.130	-0.450	0.280
2020/01/31 18:52:21.7	72.510	-0.120	-0.530	0.300
2020/01/31 18:52:21.8	72.530	-0.100	-0.600	0.310
2020/01/31 18:52:21.9	72.540	-0.090	-0.660	0.330
2020/01/31 18:52:22.0	72.560	-0.080	-0.730	0.340
2020/01/31 18:52:22.1	72.580	-0.060	-0.790	0.360
2020/01/31 18:52:22.2	72.600	-0.050	-0.850	0.380
2020/01/31 18:52:22.3	72.620	-0.040	-0.900	0.400
2020/01/31 18:52:22.4	72.640	-0.020	-0.950	0.420
2020/01/31 18:52:22.5	72.660	-0.010	-0.990	0.430
2020/01/31 18:52:22.6	72.680	0.010	-1.030	0.460
2020/01/31 18:52:22.7	72.710	0.020	-1.060	0.480
2020/01/31 18:52:22.8	72.720	0.030	-1.080	0.500
2020/01/31 18:52:22.9	72.740	0.050	-1.100	0.530
2020/01/31 18:52:23.0	72.760	0.060	-1.110	0.550
2020/01/31 18:52:23.1	72.780	0.070	-1.120	0.580
2020/01/31 18:52:23.2	72.800	0.080	-1.110	0.610
2020/01/31 18:52:23.3	72.810	0.090	-1.110	0.630
2020/01/31 18:52:23.4	72.830	0.090	-1.090	0.660
2020/01/31 18:52:23.5	72.840	0.100	-1.070	0.690
2020/01/31 18:52:23.6	72.860	0.100	-1.050	0.720
2020/01/31 18:52:23.7	72.870	0.110	-1.020	0.740
2020/01/31 18:52:23.8	72.880	0.110	-0.980	0.770
2020/01/31 18:52:23.9	72.890	0.110	-0.940	0.800
2020/01/31 18:52:24.0	72.900	0.100	-0.890	0.820
2020/01/31 18:52:24.1	72.910	0.100	-0.840	0.840
2020/01/31 18:52:24.2	72.910	0.090	-0.790	0.860
2020/01/31 18:52:24.3	72.920	0.090	-0.730	0.880
2020/01/31 18:52:24.4	72.920	0.080	-0.670	0.900
2020/01/31 18:52:24.5	72.930	0.070	-0.610	0.910
2020/01/31 18:52:24.6	72.930	0.060	-0.550	0.920
2020/01/31 18:52:24.7	72.940	0.040	-0.490	0.920
2020/01/31 18:52:24.8	72.930	0.030	-0.420	0.930
2020/01/31 18:52:24.9	72.940	0.020	-0.360	0.930
2020/01/31 18:52:25.0	72.940	0.000	-0.300	0.920
2020/01/31 18:52:25.1	72.940	-0.010	-0.240	0.920
2020/01/31 18:52:25.2	72.950	-0.020	-0.180	0.900
2020/01/31 18:52:25.3	72.950	-0.040	-0.120	0.890
2020/01/31 18:52:25.4	72.950	-0.050	-0.060	0.870
2020/01/31 18:52:25.5	72.960	-0.060	-0.010	0.850
2020/01/31 18:52:25.6	72.960	-0.080	0.040	0.830
2020/01/31 18:52:25.7	72.960	-0.090	0.080	0.800
2020/01/31 18:52:25.8	72.970	-0.100	0.120	0.770
2020/01/31 18:52:25.9	72.980	-0.100	0.160	0.730
2020/01/31 18:52:26.0	72.980	-0.110	0.190	0.700
2020/01/31 18:52:26.1	72.980	-0.110	0.220	0.660
2020/01/31 18:52:26.2	72.990	-0.120	0.250	0.630
2020/01/31 18:52:26.3	72.990	-0.120	0.270	0.590
2020/01/31 18:52:26.4	73.000	-0.120	0.280	0.540
2020/01/31 18:52:26.5	73.000	-0.120	0.300	0.500
2020/01/31 18:52:26.6	73.010	-0.110	0.310	0.460
2020/01/31 18:52:26.7	73.010	-0.100	0.310	0.420
2020/01/31 18:52:26.8	73.020	-0.100	0.320	0.380
2020/01/31 18:52:26.9	73.030	-0.090	0.320	0.340
2020/01/31 18:52:27.0	73.040	-0.070	0.310	0.300
2020/01/31 18:52:27.1	73.040	-0.060	0.310	0.260
2020/01/31 18:52:27.2	73.050	-0.050	0.300	0.220
2020/01/31 18:52:27.3	73.050	-0.030	0.290	0.180
2020/01/31 18:52:27.4	73.060	-0.020	0.280	0.150
2020/01/31 18:52:27.5	73.070	-0.000	0.270	0.120
2020/01/31 18:52:27.6	73.070	0.020	0.250	0.090
2020/01/31 18:52:27.7	73.080	0.030	0.240	0.060
2020/01/31 18:52:27.8	73.090	0.050	0.220	0.030
2020/01/31 18:52:27.9	73.100	0.070	0.200	0.010
2020/01/31 18:52:28.0	73.100	0.080	0.180	-0.020
2020/01/31 18:52:28.1	73.110	0.100	0.160	-0.040
2020/01/31 18:52:28.2	73.120	0.110	0.140	-0.060
2020/01/31 18:52:28.3	73.130	0.120	0.120	-0.080
2020/01/31 18:52:28.4	73.140	0.130	0.100	-0.100
2020/01/31 18:52:28.5	73.160	0.140	0.080	-0.120
2020/01/31 18:52:28.6	73.170	0.150	0.060	-0.140
2020/01/31 18:52:28.7	73.180	0.150	0.040	-0.160
2020/01/31 18:52:28.8	73.190	0.150	0.030	-0.180
2020/01/31 18:52:28.9	73.210	0.150	0.010	-0.190
2020/01/31 18:52:29.0	73.220	0.150	-0.010	-0.200
2020/01/31 18:52:29.1	73.230	0.150	-0.030	-0.210
2020/01/31 18:52:29.2	73.240	0.140	-0.050	-0.220
2020/01/31 18:52:29.3	73.250	0.130	-0.060	-0.230
2020/01/31 18:52:29.4	73.260	0.120	-0.080	-0.240
2020/01/31 18:52:29.5	73.270	0.110	-0.090	-0.250
2020/01/31 18:52:29.6	73.280	0.100	-0.110	-0.250
2020/01/31 18:52:29.7	73.290	0.090	-0.120	-0.250
2020/01/31 18:52:29.8	73.290	0.070	-0.140	-0.250
2020/01/31 18:52:29.9	73.300	0.050	-0.150	-0.250
2020/01/31 18:52:30.0	73.300	0.040	-0.160	-0.240
2020/01/31 18:52:30.1	73.310	0.020	-0.180	-0.240
2020/01/31 18:52:30.2	73.310	0.000	-0.190	-0.230
2020/01/31 18:52:30.3	73.310	-0.020	-0.200	-0.220
2020/01/31 18:52:30.4	73.310	-0.040	-0.210	-0.210
2020/01/31 18:52:30.5	73.310	-0.050	-0.220	-0.190
2020/01/31 18:52:30.6	73.310	-0.070	-0.230	-0.170
2020/01/31 18:52:30.7	73.300	-0.090	-0.250	-0.160
2020/01/31 18:52:30.8	73.310	-0.100	-0.260	-0.140
2020/01/31 18:52:30.9	73.300	-0.120	-0.270	-0.110
2020/01/31 18:52:31.0	73.300	-0.130	-0.280	-0.090
2020/01/31 18:52:31.1	73.290	-0.140	-0.290	-0.060
2020/01/31 18:52:31.2	73.280	-0.150	-0.300	-0.040
2020/01/31 18:52:31.3	73.280	-0.160	-0.310	-0.010
2020/01/31 18:52:31.4	73.270	-0.170	-0.320	0.020
2020/01/31 18:52:31.5	73.260	-0.170	-0.330	0.050
2020/01/31 18:52:31.6	73.250	-0.180	-0.340	0.080
2020/01/31 18:52:31.7	73.240	-0.180	-0.350	0.110
2020/01/31 18:52:31.8	73.220	-0.180	-0.360	0.150
2020/01/31 18:52:31.9	73.210	-0.180	-0.360	0.180
2020/01/31 18:52:32.0	73.200	-0.180	-0.370	0.210
2020/01/31 18:52:32.1	73.200	-0.170	-0.380	0.240
2020/01/31 18:52:32.2	73.190	-0.170	-0.390	0.260
2020/01/31 18:52:32.3	73.180	-0.160	-0.400	0.290
2020/01/31 18:52:32.4	73.180	-0.150	-0.400	0.310
2020/01/31 18:52:32.5	73.180	-0.140	-0.410	0.330
2020/01/31 18:52:32.6	73.180	-0.120	-0.420	0.350
2020/01/31 18:52:32.7	73.180	-0.110	-0.430	0.370
2020/01/31 18:52:32.8	73.180	-0.090	-0.440	0.380
2020/01/31 18:52:32.9	73.190	-0.080	-0.440	0.390
2020/01/31 18:52:33.0	73.200	-0.060	-0.450	0.400
2020/01/31 18:52:33.1	73.210	-0.040	-0.460	0.410
2020/01/31 18:52:33.2	73.220	-0.020	-0.470	0.410
2020/01/31 18:52:33.3	73.240	-0.000	-0.480	0.420
2020/01/31 18:52:33.4	73.260	0.020	-0.490	0.410
2020/01/31 18:52:33.5	73.280	0.040	-0.500	0.410
2020/01/31 18:52:33.6	73.310	0.060	-0.510	0.400
2020/01/31 18:52:33.7	73.340	0.080	-0.520	0.400
2020/01/31 18:52:33.8	73.370	0.100	-0.520	0.390
2020/01/31 18:52:33.9	73.400	0.120	-0.530	0.370
2020/01/31 18:52:34.0	73.430	0.140	-0.540	0.360
2020/01/31 18:52:34.1	73.470	0.160	-0.550	0.340
2020/01/31 18:52:34.2	73.510	0.180	-0.550	0.330
2020/01/31 18:52:34.3	73.550	0.200	-0.550	0.310
2020/01/31 18:52:34.4	73.590	0.210	-0.550	0.290
2020/01/31 18:52:34.5	73.640	0.230	-0.550	0.280
2020/01/31 18:52:34.6	73.680	0.240	-0.550	0.260
2020/01/31 18:52:34.7	73.720	0.260	-0.540	0.250
2020/01/31 18:52:34.8	73.760	0.270	-0.540	0.240
2020/01/31 18:52:34.9	73.800	0.280	-0.530	0.230
2020/01/31 18:52:35.0	73.830	0.280	-0.510	0.220
2020/01/31 18:52:35.1	73.870	0.290	-0.490	0.210
2020/01/31 18:52:35.2	73.900	0.300	-0.470	0.210
2020/01/31 18:52:35.3	73.940	0.300	-0.450	0.210
2020/01/31 18:52:35.4	73.970	0.300	-0.420	0.210
2020/01/31 18:52:35.5	74.000	0.300	-0.390	0.220
2020/01/31 18:52:35.6	74.030	0.300	-0.350	0.220
2020/01/31 18:52:35.7	74.050	0.300	-0.310	0.230
2020/01/31 18:52:35.8	74.060	0.290	-0.270	0.250
2020/01/31 18:52:35.9	74.090	0.290	-0.220	0.270
2020/01/31 18:52:36.0	74.110	0.280	-0.180	0.290
2020/01/31 18:52:36.1	74.120	0.270	-0.130	0.310
2020/01/31 18:52:36.2	74.140	0.260	-0.080	0.330
2020/01/31 18:52:36.3	74.160	0.250	-0.030	0.360
2020/01/31 18:52:36.4	74.170	0.240	0.020	0.390
2020/01/31 18:52:36.5	74.180	0.230	0.070	0.420
2020/01/31 18:52:36.6	74.190	0.210	0.120	0.450
2020/01/31 18:52:36.7	74.200	0.200	0.170	0.480
2020/01/31 18:52:36.8	74.210	0.180	0.220	0.510
2020/01/31 18:52:36.9	74.210	0.160	0.270	0.540
2020/01/31 18:52:37.0	74.220	0.150	0.310	0.580
2020/01/31 18:52:37.1	74.220	0.120	0.360	0.620
2020/01/31 18:52:37.2	74.220	0.100	0.400	0.650
2020/01/31 18:52:37.3	74.220	0.080	0.440	0.690
2020/01/31 18:52:37.4	74.220	0.060	0.480	0.730
2020/01/31 18:52:37.5	74.210	0.030	0.510	0.770
2020/01/31 18:52:37.6	74.200	0.000	0.550	0.820
2020/01/31 18:52:37.7	74.190	-0.020	0.570	0.860
2020/01/31 18:52:37.8	74.180	-0.050	0.600	0.910
2020/01/31 18:52:37.9	74.170	-0.080	0.620	0.950
2020/01/31 18:52:38.0	74.150	-0.110	0.640	0.990
2020/01/31 18:52:38.1	74.120	-0.140	0.650	1.030
2020/01/31 18:52:38.2	74.100	-0.170	0.660	1.070
2020/01/31 18:52:38.3	74.070	-0.200	0.670	1.110
2020/01/31 18:52:38.4	74.040	-0.240	0.670	1.140
2020/01/31 18:52:38.5	74.010	-0.270	0.670	1.170
2020/01/31 18:52:38.6	73.980	-0.300	0.660	1.200
2020/01/31 18:52:38.7	73.940	-0.330	0.650	1.230
2020/01/31 18:52:38.8	73.910	-0.360	0.630	1.250
2020/01/31 18:52:38.9	73.870	-0.390	0.610	1.270
2020/01/31 18:52:39.0	73.840	-0.420	0.580	1.280
2020/01/31 18:52:39.1	73.810	-0.450	0.540	1.290
2020/01/31 18:52:39.2	73.780	-0.470	0.500	1.290
2020/01/31 18:52:39.3	73.750	-0.490	0.460	1.280
2020/01/31 18:52:39.4	73.720	-0.510	0.410	1.270
2020/01/31 18:52:39.5	73.700	-0.530	0.350	1.260
2020/01/31 18:52:39.6	73.670	-0.540	0.290	1.230
2020/01/31 18:52:39.7	73.650	-0.560	0.230	1.210
2020/01/31 18:52:39.8	73.640	-0.560	0.160	1.180
2020/01/31 18:52:39.9	73.620	-0.570	0.090	1.140
2020/01/31 18:52:40.0	73.610	-0.570	0.010	1.090
2020/01/31 18:52:40.1	73.600	-0.560	-0.070	1.050
2020/01/31 18:52:40.2	73.600	-0.560	-0.150	1.000
2020/01/31 18:52:40.3	73.600	-0.540	-0.240	0.940
2020/01/31 18:52:40.4	73.600	-0.530	-0.320	0.890
2020/01/31 18:52:40.5	73.610	-0.510	-0.410	0.830
2020/01/31 18:52:40.6	73.620	-0.480	-0.490	0.770
2020/01/31 18:52:40.7	73.630	-0.450	-0.580	0.710
2020/01/31 18:52:40.8	73.650	-0.420	-0.660	0.640
2020/01/31 18:52:40.9	73.670	-0.380	-0.740	0.580
2020/01/31 18:52:41.0	73.690	-0.340	-0.820	0.520
2020/01/31 18:52:41.1	73.720	-0.300	-0.900	0.460
2020/01/31 18:52:41.2	73.750	-0.250	-0.970	0.390
2020/01/31 18:52:41.3	73.780	-0.200	-1.050	0.330
2020/01/31 18:52:41.4	73.810	-0.140	-1.110	0.270
2020/01/31 18:52:41.5	73.850	-0.090	-1.180	0.210
2020/01/31 18:52:41.6	73.890	-0.030	-1.230	0.150
2020/01/31 18:52:41.7	73.930	0.020	-1.280	0.080
2020/01/31 18:52:41.8	73.990	0.080	-1.330	0.030
2020/01/31 18:52:41.9	74.030	0.140	-1.370	-0.030
2020/01/31 18:52:42.0	74.080	0.200	-1.400	-0.090
2020/01/31 18:52:42.1	74.130	0.260	-1.430	-0.140
2020/01/31 18:52:42.2	74.180	0.310	-1.440	-0.200
2020/01/31 18:52:42.3	74.230	0.370	-1.450	-0.250
2020/01/31 18:52:42.4	74.280	0.420	-1.450	-0.310
2020/01/31 18:52:42.5	74.330	0.470	-1.450	-0.360
2020/01/31 18:52:42.6	74.380	0.520	-1.430	-0.400
2020/01/31 18:52:42.7	74.430	0.560	-1.410	-0.450
2020/01/31 18:52:42.8	74.480	0.600	-1.370	-0.490
2020/01/31 18:52:42.9	74.530	0.640	-1.330	-0.530
2020/01/31 18:52:43.0	74.570	0.670	-1.280	-0.560
2020/01/31 18:52:43.1	74.620	0.690	-1.220	-0.590
2020/01/31 18:52:43.2	74.660	0.710	-1.150	-0.620
2020/01/31 18:52:43.3	74.690	0.730	-1.080	-0.640
2020/01/31 18:52:43.4	74.730	0.740	-0.990	-0.660
2020/01/31 18:52:43.5	74.760	0.740	-0.900	-0.670
2020/01/31 18:52:43.6	74.790	0.740	-0.810	-0.680
2020/01/31 18:52:43.7	74.810	0.730	-0.710	-0.680
2020/01/31 18:52:43.8	74.820	0.710	-0.610	-0.680
2020/01/31 18:52:43.9	74.830	0.690	-0.500	-0.670
2020/01/31 18:52:44.0	74.840	0.660	-0.380	-0.660
2020/01/31 18:52:44.1	74.850	0.630	-0.270	-0.640
2020/01/31 18:52:44.2	74.850	0.590	-0.150	-0.620
2020/01/31 18:52:44.3	74.840	0.550	-0.030	-0.600
2020/01/31 18:52:44.4	74.830	0.500	0.090	-0.570
2020/01/31 18:52:44.5	74.820	0.440	0.210	-0.540
2020/01/31 18:52:44.6	74.800	0.390	0.320	-0.500
2020/01/31 18:52:44.7	74.780	0.330	0.440	-0.460
2020/01/31 18:52:44.8	74.760	0.260	0.550	-0.420
2020/01/31 18:52:44.9	74.740	0.190	0.660	-0.370
2020/01/31 18:52:45.0	74.710	0.120	0.760	-0.320
2020/01/31 18:52:45.1	74.670	0.050	0.860	-0.270
2020/01/31 18:52:45.2	74.630	-0.020	0.950	-0.220
2020/01/31 18:52:45.3	74.590	-0.090	1.030	-0.170
2020/01/31 18:52:45.4	74.550	-0.170	1.110	-0.110
2020/01/31 18:52:45.5	74.510	-0.240	1.180	-0.050
2020/01/31 18:52:45.6	74.460	-0.310	1.240	0.010
2020/01/31 18:52:45.7	74.420	-0.380	1.290	0.060
2020/01/31 18:52:45.8	74.370	-0.440	1.340	0.120
2020/01/31 18:52:45.9	74.320	-0.510	1.370	0.180
2020/01/31 18:52:46.0	74.270	-0.570	1.390	0.240
2020/01/31 18:52:46.1	74.220	-0.620	1.400	0.300
2020/01/31 18:52:46.2	74.180	-0.670	1.410	0.360
2020/01/31 18:52:46.3	74.130	-0.720	1.400	0.420
2020/01/31 18:52:46.4	74.090	-0.760	1.380	0.480
2020/01/31 18:52:46.5	74.040	-0.800	1.350	0.530
2020/01/31 18:52:46.6	74.000	-0.830	1.310	0.580
2020/01/31 18:52:46.7	73.960	-0.850	1.260	0.630
2020/01/31 18:52:46.8	73.930	-0.870	1.190	0.680
2020/01/31 18:52:46.9	73.900	-0.880	1.120	0.730
2020/01/31 18:52:47.0	73.870	-0.880	1.040	0.770
2020/01/31 18:52:47.1	73.840	-0.880	0.950	0.810
2020/01/31 18:52:47.2	73.810	-0.870	0.850	0.840
2020/01/31 18:52:47.3	73.790	-0.860	0.740	0.870
2020/01/31 18:52:47.4	73.780	-0.840	0.630	0.890
2020/01/31 18:52:47.5	73.770	-0.810	0.510	0.910
2020/01/31 18:52:47.6	73.760	-0.780	0.380	0.920
2020/01/31 18:52:47.7	73.760	-0.740	0.250	0.930
2020/01/31 18:52:47.8	73.760	-0.700	0.110	0.930
2020/01/31 18:52:47.9	73.770	-0.650	-0.040	0.930
2020/01/31 18:52:48.0	73.780	-0.590	-0.180	0.920
2020/01/31 18:52:48.1	73.800	-0.540	-0.320	0.910
2020/01/31 18:52:48.2	73.820	-0.480	-0.470	0.890
2020/01/31 18:52:48.3	73.840	-0.410	-0.610	0.870
2020/01/31 18:52:48.4	73.870	-0.350	-0.760	0.850
2020/01/31 18:52:48.5	73.900	-0.280	-0.900	0.820
2020/01/31 18:52:48.6	73.930	-0.210	-1.030	0.790
2020/01/31 18:52:48.7	73.970	-0.140	-1.160	0.760
2020/01/31 18:52:48.8	74.000	-0.070	-1.280	0.720
2020/01/31 18:52:48.9	74.040	0.000	-1.400	0.680
2020/01/31 18:52:49.0	74.080	0.080	-1.510	0.650
2020/01/31 18:52:49.1	74.120	0.150	-1.610	0.610
2020/01/31 18:52:49.2	74.170	0.220	-1.700	0.570
2020/01/31 18:52:49.3	74.210	0.280	-1.780	0.540
2020/01/31 18:52:49.4	74.250	0.350	-1.840	0.500
2020/01/31 18:52:49.5	74.290	0.410	-1.900	0.460
2020/01/31 18:52:49.6	74.330	0.470	-1.940	0.430
2020/01/31 18:52:49.7	74.370	0.530	-1.970	0.400
2020/01/31 18:52:49.8	74.390	0.580	-1.990	0.380
2020/01/31 18:52:49.9	74.420	0.630	-1.990	0.350
2020/01/31 18:52:50.0	74.460	0.670	-1.970	0.330
2020/01/31 18:52:50.1	74.490	0.710	-1.950	0.310
2020/01/31 18:52:50.2	74.520	0.750	-1.910	0.300
2020/01/31 18:52:50.3	74.540	0.780	-1.850	0.290
2020/01/31 18:52:50.4	74.570	0.800	-1.790	0.280
2020/01/31 18:52:50.5	74.590	0.820	-1.710	0.280
2020/01/31 18:52:50.6	74.610	0.830	-1.620	0.290
2020/01/31 18:52:50.7	74.620	0.840	-1.520	0.290
2020/01/31 18:52:50.8	74.640	0.840	-1.400	0.300
2020/01/31 18:52:50.9	74.650	0.840	-1.280	0.320
2020/01/31 18:52:51.0	74.650	0.830	-1.150	0.340
2020/01/31 18:52:51.1	74.660	0.810	-1.020	0.360
2020/01/31 18:52:51.2	74.660	0.790	-0.880	0.380
2020/01/31 18:52:51.3	74.650	0.760	-0.730	0.410
2020/01/31 18:52:51.4	74.650	0.730	-0.580	0.440
2020/01/31 18:52:51.5	74.640	0.700	-0.430	0.480
2020/01/31 18:52:51.6	74.620	0.660	-0.280	0.520
2020/01/31 18:52:51.7	74.610	0.620	-0.130	0.550
2020/01/31 18:52:51.8	74.590	0.570	0.020	0.590
2020/01/31 18:52:51.9	74.570	0.520	0.160	0.630
2020/01/31 18:52:52.0	74.550	0.470	0.300	0.680
2020/01/31 18:52:52.1	74.530	0.410	0.440	0.720
2020/01/31 18:52:52.2	74.500	0.350	0.570	0.750
2020/01/31 18:52:52.3	74.480	0.300	0.690	0.790
2020/01/31 18:52:52.4	74.450	0.240	0.810	0.830
2020/01/31 18:52:52.5	74.420	0.180	0.910	0.860
2020/01/31 18:52:52.6	74.390	0.120	1.010	0.900
2020/01/31 18:52:52.7	74.360	0.060	1.090	0.930
2020/01/31 18:52:52.8	74.330	0.000	1.170	0.960
2020/01/31 18:52:52.9	74.300	-0.050	1.230	0.980
2020/01/31 18:52:53.0	74.270	-0.110	1.280	1.000
2020/01/31 18:52:53.1	74.240	-0.160	1.320	1.020
2020/01/31 18:52:53.2	74.210	-0.210	1.350	1.030
2020/01/31 18:52:53.3	74.180	-0.250	1.360	1.040
2020/01/31 18:52:53.4	74.150	-0.290	1.370	1.050
2020/01/31 18:52:53.5	74.120	-0.330	1.360	1.060
2020/01/31 18:52:53.6	74.090	-0.360	1.340	1.060
2020/01/31 18:52:53.7	74.060	-0.390	1.310	1.060
2020/01/31 18:52:53.8	74.040	-0.410	1.270	1.060
2020/01/31 18:52:53.9	74.020	-0.430	1.220	1.050
2020/01/31 18:52:54.0	74.000	-0.440	1.160	1.050
2020/01/31 18:52:54.1	73.970	-0.450	1.100	1.040
2020/01/31 18:52:54.2	73.950	-0.460	1.020	1.030
2020/01/31 18:52:54.3	73.930	-0.460	0.940	1.020
2020/01/31 18:52:54.4	73.910	-0.450	0.850	1.010
2020/01/31 18:52:54.5	73.890	-0.450	0.750	1.000
2020/01/31 18:52:54.6	73.880	-0.440	0.650	0.980
2020/01/31 18:52:54.7	73.870	-0.420	0.550	0.960
2020/01/31 18:52:54.8	73.860	-0.400	0.430	0.950
2020/01/31 18:52:54.9	73.850	-0.380	0.320	0.930
2020/01/31 18:52:55.0	73.840	-0.360	0.210	0.910
2020/01/31 18:52:55.1	73.840	-0.330	0.100	0.880
2020/01/31 18:52:55.2	73.830	-0.300	-0.020	0.850
2020/01/31 18:52:55.3	73.830	-0.270	-0.130	0.830
2020/01/31 18:52:55.4	73.840	-0.240	-0.240	0.800
2020/01/31 18:52:55.5	73.840	-0.210	-0.350	0.770
2020/01/31 18:52:55.6	73.850	-0.180	-0.460	0.730
2020/01/31 18:52:55.7	73.850	-0.150	-0.560	0.700
2020/01/31 18:52:55.8	73.870	-0.120	-0.660	0.660
2020/01/31 18:52:55.9	73.880	-0.090	-0.750	0.620
2020/01/31 18:52:56.0	73.890	-0.060	-0.840	0.580
2020/01/31 18:52:56.1	73.900	-0.030	-0.910	0.540
2020/01/31 18:52:56.2	73.910	-0.010	-0.990	0.500
2020/01/31 18:52:56.3	73.920	0.020	-1.050	0.460
2020/01/31 18:52:56.4	73.940	0.040	-1.100	0.420
2020/01/31 18:52:56.5	73.950	0.060	-1.150	0.370
2020/01/31 18:52:56.6	73.960	0.070	-1.190	0.330
2020/01/31 18:52:56.7	73.970	0.090	-1.210	0.280
2020/01/31 18:52:56.8	73.990	0.100	-1.230	0.240
2020/01/31 18:52:56.9	74.000	0.110	-1.240	0.200
2020/01/31 18:52:57.0	74.010	0.110	-1.240	0.160
2020/01/31 18:52:57.1	74.020	0.120	-1.230	0.110
2020/01/31 18:52:57.2	74.030	0.120	-1.210	0.070
2020/01/31 18:52:57.3	74.040	0.110	-1.180	0.030
2020/01/31 18:52:57.4	74.040	0.110	-1.150	-0.010
2020/01/31 18:52:57.5	74.050	0.100	-1.110	-0.040
2020/01/31 18:52:57.6	74.060	0.090	-1.060	-0.080
2020/01/31 18:52:57.7	74.070	0.080	-1.000	-0.110
2020/01/31 18:52:57.8	74.070	0.070	-0.940	-0.150
2020/01/31 18:52:57.9	74.080	0.050	-0.870	-0.180
2020/01/31 18:52:58.0	74.090	0.030	-0.800	-0.210
2020/01/31 18:52:58.1	74.090	0.020	-0.730	-0.240
2020/01/31 18:52:58.2	74.100	-0.000	-0.660	-0.260
2020/01/31 18:52:58.3	74.100	-0.020	-0.580	-0.290
2020/01/31 18:52:58.4	74.110	-0.040	-0.510	-0.310
2020/01/31 18:52:58.5	74.110	-0.050	-0.430	-0.320
2020/01/31 18:52:58.6	74.120	-0.070	-0.350	-0.340
2020/01/31 18:52:58.7	74.120	-0.090	-0.280	-0.350
2020/01/31 18:52:58.8	74.130	-0.100	-0.210	-0.350
2020/01/31 18:52:58.9	74.130	-0.120	-0.140	-0.360
2020/01/31 18:52:59.0	74.130	-0.130	-0.070	-0.360
2020/01/31 18:52:59.1	74.130	-0.140	-0.000	-0.350
2020/01/31 18:52:59.2	74.120	-0.150	0.060	-0.340
2020/01/31 18:52:59.3	74.120	-0.150	0.120	-0.320
2020/01/31 18:52:59.4	74.110	-0.160	0.170	-0.300
2020/01/31 18:52:59.5	74.100	-0.160	0.220	-0.280
2020/01/31 18:52:59.6	74.090	-0.160	0.270	-0.250
2020/01/31 18:52:59.7	74.080	-0.150	0.310	-0.220
2020/01/31 18:52:59.8	74.060	-0.150	0.350	-0.180
2020/01/31 18:52:59.9	74.050	-0.140	0.380	-0.140
2020/01/31 18:53:00.0	74.030	-0.130	0.410	-0.090
2020/01/31 18:53:00.1	74.020	-0.120	0.430	-0.050
2020/01/31 18:53:00.2	74.000	-0.100	0.440	0.000
2020/01/31 18:53:00.3	73.990	-0.090	0.460	0.060
2020/01/31 18:53:00.4	73.970	-0.070	0.460	0.110
2020/01/31 18:53:00.5	73.960	-0.050	0.460	0.170
2020/01/31 18:53:00.6	73.940	-0.030	0.460	0.220
2020/01/31 18:53:00.7	73.930	-0.010	0.450	0.280
2020/01/31 18:53:00.8	73.910	0.010	0.430	0.340
2020/01/31 18:53:00.9	73.900	0.030	0.410	0.400
2020/01/31 18:53:01.0	73.890	0.050	0.390	0.460
2020/01/31 18:53:01.1	73.870	0.070	0.360	0.510
2020/01/31 18:53:01.2	73.860	0.090	0.330	0.570
2020/01/31 18:53:01.3	73.860	0.110	0.300	0.620
2020/01/31 18:53:01.4	73.850	0.130	0.260	0.670
2020/01/31 18:53:01.5	73.840	0.150	0.220	0.720
2020/01/31 18:53:01.6	73.830	0.160	0.180	0.770
2020/01/31 18:53:01.7	73.830	0.170	0.140	0.820
2020/01/31 18:53:01.8	73.820	0.180	0.100	0.860
2020/01/31 18:53:01.9	73.810	0.190	0.060	0.900
2020/01/31 18:53:02.0	73.810	0.200	0.020	0.940
2020/01/31 18:53:02.1	73.800	0.200	-0.020	0.980
2020/01/31 18:53:02.2	73.800	0.200	-0.060	1.010
2020/01/31 18:53:02.3	73.790	0.200	-0.100	1.040
2020/01/31 18:53:02.4	73.790	0.200	-0.140	1.060
2020/01/31 18:53:02.5	73.780	0.190	-0.170	1.080
2020/01/31 18:53:02.6	73.770	0.180	-0.210	1.100
2020/01/31 18:53:02.7	73.770	0.170	-0.240	1.120
2020/01/31 18:53:02.8	73.740	0.160	-0.260	1.130
2020/01/31 18:53:02.9	73.740	0.150	-0.290	1.140
2020/01/31 18:53:03.0	73.730	0.130	-0.310	1.150
2020/01/31 18:53:03.1	73.720	0.110	-0.330	1.150
2020/01/31 18:53:03.2	73.710	0.090	-0.350	1.150
2020/01/31 18:53:03.3	73.700	0.070	-0.370	1.150
2020/01/31 18:53:03.4	73.690	0.050	-0.380	1.140
2020/01/31 18:53:03.5	73.680	0.020	-0.390	1.130
2020/01/31 18:53:03.6	73.670	0.000	-0.390	1.120
2020/01/31 18:53:03.7	73.650	-0.020	-0.400	1.110
2020/01/31 18:53:03.8	73.640	-0.050	-0.400	1.090
2020/01/31 18:53:03.9	73.630	-0.070	-0.410	1.070
2020/01/31 18:53:04.0	73.620	-0.090	-0.410	1.050
2020/01/31 18:53:04.1	73.610	-0.110	-0.410	1.020
2020/01/31 18:53:04.2	73.600	-0.130	-0.410	1.000
2020/01/31 18:53:04.3	73.590	-0.150	-0.410	0.970
2020/01/31 18:53:04.4	73.580	-0.170	-0.410	0.930
2020/01/31 18:53:04.5	73.570	-0.180	-0.420	0.900
2020/01/31 18:53:04.6	73.560	-0.200	-0.420	0.860
2020/01/31 18:53:04.7	73.560	-0.210	-0.420	0.820
2020/01/31 18:53:04.8	73.550	-0.210	-0.430	0.780
2020/01/31 18:53:04.9	73.550	-0.220	-0.440	0.740
2020/01/31 18:53:05.0	73.550	-0.220	-0.440	0.690
2020/01/31 18:53:05.1	73.550	-0.220	-0.450	0.650
2020/01/31 18:53:05.2	73.560	-0.220	-0.460	0.600
2020/01/31 18:53:05.3	73.560	-0.210	-0.480	0.550
2020/01/31 18:53:05.4	73.570	-0.200	-0.490	0.510
2020/01/31 18:53:05.5	73.570	-0.190	-0.500	0.460
2020/01/31 18:53:05.6	73.580	-0.170	-0.510	0.410
2020/01/31 18:53:05.7	73.590	-0.150	-0.530	0.360
2020/01/31 18:53:05.8	73.610	-0.130	-0.530	0.320
2020/01/31 18:53:05.9	73.620	-0.110	-0.550	0.270
2020/01/31 18:53:06.0	73.630	-0.080	-0.560	0.230
2020/01/31 18:53:06.1	73.630	-0.060	-0.560	0.190
2020/01/31 18:53:06.2	73.640	-0.030	-0.570	0.160
2020/01/31 18:53:06.3	73.650	0.000	-0.570	0.130
2020/01/31 18:53:06.4	73.660	0.030	-0.570	0.100
2020/01/31 18:53:06.5	73.660	0.060	-0.570	0.080
2020/01/31 18:53:06.6	73.670	0.100	-0.570	0.050
2020/01/31 18:53:06.7	73.670	0.130	-0.560	0.040
2020/01/31 18:53:06.8	73.670	0.160	-0.560	0.030
2020/01/31 18:53:06.9	73.670	0.190	-0.550	0.030
2020/01/31 18:53:07.0	73.670	0.220	-0.540	0.020
2020/01/31 18:53:07.1	73.670	0.250	-0.520	0.020
2020/01/31 18:53:07.2	73.660	0.280	-0.500	0.030
2020/01/31 18:53:07.3	73.660	0.300	-0.480	0.040
2020/01/31 18:53:07.4	73.650	0.330	-0.460	0.050
2020/01/31 18:53:07.5	73.650	0.350	-0.440	0.070
2020/01/31 18:53:07.6	73.640	0.360	-0.410	0.090
2020/01/31 18:53:07.7	73.630	0.380	-0.390	0.110
2020/01/31 18:53:07.8	73.630	0.390	-0.360	0.130
2020/01/31 18:53:07.9	73.630	0.400	-0.330	0.160
2020/01/31 18:53:08.0	73.620	0.410	-0.310	0.180
2020/01/31 18:53:08.1	73.610	0.410	-0.280	0.210
2020/01/31 18:53:08.2	73.600	0.410	-0.250	0.240
2020/01/31 18:53:08.3	73.600	0.410	-0.220	0.270
2020/01/31 18:53:08.4	73.590	0.400	-0.190	0.300
2020/01/31 18:53:08.5	73.580	0.390	-0.160	0.330
2020/01/31 18:53:08.6	73.580	0.370	-0.140	0.350
2020/01/31 18:53:08.7	73.580	0.360	-0.110	0.380
2020/01/31 18:53:08.8	73.580	0.340	-0.080	0.400
2020/01/31 18:53:08.9	73.580	0.310	-0.060	0.420
2020/01/31 18:53:09.0	73.570	0.290	-0.030	0.440
2020/01/31 18:53:09.1	73.570	0.260	-0.010	0.450
2020/01/31 18:53:09.2	73.580	0.230	0.020	0.460
2020/01/31 18:53:09.3	73.580	0.200	0.040	0.470
2020/01/31 18:53:09.4	73.580	0.160	0.070	0.480
2020/01/31 18:53:09.5	73.580	0.130	0.090	0.480
2020/01/31 18:53:09.6	73.580	0.090	0.110	0.480
2020/01/31 18:53:09.7	73.580	0.060	0.130	0.470
2020/01/31 18:53:09.8	73.580	0.020	0.150	0.470
2020/01/31 18:53:09.9	73.580	-0.020	0.180	0.460
2020/01/31 18:53:10.0	73.570	-0.050	0.200	0.450
2020/01/31 18:53:10.1	73.570	-0.090	0.220	0.440
2020/01/31 18:53:10.2	73.560	-0.120	0.240	0.430
2020/01/31 18:53:10.3	73.550	-0.160	0.250	0.420
2020/01/31 18:53:10.4	73.540	-0.190	0.270	0.400
2020/01/31 18:53:10.5	73.530	-0.220	0.290	0.390
2020/01/31 18:53:10.6	73.520	-0.250	0.310	0.370
2020/01/31 18:53:10.7	73.500	-0.280	0.320	0.350
2020/01/31 18:53:10.8	73.490	-0.300	0.330	0.340
2020/01/31 18:53:10.9	73.470	-0.320	0.350	0.320
2020/01/31 18:53:11.0	73.450	-0.340	0.360	0.300
2020/01/31 18:53:11.1	73.430	-0.360	0.370	0.280
2020/01/31 18:53:11.2	73.410	-0.380	0.380	0.260
2020/01/31 18:53:11.3	73.390	-0.390	0.390	0.240
2020/01/31 18:53:11.4	73.370	-0.390	0.400	0.220
2020/01/31 18:53:11.5	73.340	-0.400	0.410	0.190
2020/01/31 18:53:11.6	73.320	-0.400	0.410	0.170
2020/01/31 18:53:11.7	73.300	-0.400	0.410	0.150
2020/01/31 18:53:11.8	73.290	-0.400	0.420	0.120
2020/01/31 18:53:11.9	73.270	-0.390	0.420	0.090
2020/01/31 18:53:12.0	73.250	-0.380	0.410	0.070
2020/01/31 18:53:12.1	73.230	-0.370	0.410	0.040
2020/01/31 18:53:12.2	73.220	-0.360	0.400	0.020
2020/01/31 18:53:12.3	73.210	-0.340	0.390	-0.010
2020/01/31 18:53:12.4	73.190	-0.320	0.370	-0.030
2020/01/31 18:53:12.5	73.180	-0.300	0.360	-0.050
2020/01/31 18:53:12.6	73.180	-0.280	0.340	-0.080
2020/01/31 18:53:12.7	73.170	-0.250	0.310	-0.100
2020/01/31 18:53:12.8	73.170	-0.230	0.280	-0.120
2020/01/31 18:53:12.9	73.170	-0.200	0.250	-0.140
2020/01/31 18:53:13.0	73.170	-0.170	0.220	-0.160
2020/01/31 18:53:13.1	73.180	-0.140	0.190	-0.190
2020/01/31 18:53:13.2	73.180	-0.110	0.150	-0.210
2020/01/31 18:53:13.3	73.190	-0.090	0.110	-0.230
2020/01/31 18:53:13.4	73.200	-0.060	0.060	-0.240
2020/01/31 18:53:13.5	73.220	-0.030	0.020	-0.260
2020/01/31 18:53:13.6	73.230	-0.000	-0.030	-0.280
2020/01/31 18:53:13.7	73.250	0.020	-0.090	-0.290
2020/01/31 18:53:13.8	73.270	0.050	-0.140	-0.310
2020/01/31 18:53:13.9	73.300	0.070	-0.190	-0.320
2020/01/31 18:53:14.0	73.320	0.100	-0.250	-0.330
2020/01/31 18:53:14.1	73.350	0.120	-0.310	-0.340
2020/01/31 18:53:14.2	73.380	0.140	-0.370	-0.350
2020/01/31 18:53:14.3	73.410	0.150	-0.430	-0.360
2020/01/31 18:53:14.4	73.440	0.170	-0.480	-0.360
2020/01/31 18:53:14.5	73.470	0.180	-0.540	-0.370
2020/01/31 18:53:14.6	73.500	0.190	-0.600	-0.370
2020/01/31 18:53:14.7	73.540	0.200	-0.650	-0.370
2020/01/31 18:53:14.8	73.570	0.200	-0.710	-0.370
2020/01/31 18:53:14.9	73.610	0.210	-0.760	-0.370
2020/01/31 18:53:15.0	73.640	0.210	-0.810	-0.370
2020/01/31 18:53:15.1	73.680	0.200	-0.860	-0.360
2020/01/31 18:53:15.2	73.710	0.200	-0.900	-0.360
2020/01/31 18:53:15.3	73.750	0.190	-0.930	-0.350
2020/01/31 18:53:15.4	73.780	0.180	-0.960	-0.340
2020/01/31 18:53:15.5	73.810	0.170	-0.990	-0.330
2020/01/31 18:53:15.6	73.840	0.150	-1.010	-0.320
2020/01/31 18:53:15.7	73.870	0.130	-1.030	-0.310
2020/01/31 18:53:15.8	73.890	0.110	-1.040	-0.300
2020/01/31 18:53:15.9	73.920	0.090	-1.040	-0.280
2020/01/31 18:53:16.0	73.940	0.070	-1.040	-0.260
2020/01/31 18:53:16.1	73.960	0.050	-1.030	-0.250
2020/01/31 18:53:16.2	73.980	0.030	-1.020	-0.230
2020/01/31 18:53:16.3	74.000	0.000	-1.000	-0.200
2020/01/31 18:53:16.4	74.020	-0.020	-0.980	-0.180
2020/01/31 18:53:16.5	74.030	-0.050	-0.950	-0.150
2020/01/31 18:53:16.6	74.040	-0.070	-0.910	-0.120
2020/01/31 18:53:16.7	74.040	-0.100	-0.870	-0.090
2020/01/31 18:53:16.8	74.050	-0.120	-0.820	-0.050
2020/01/31 18:53:16.9	74.050	-0.150	-0.770	-0.010
2020/01/31 18:53:17.0	74.040	-0.170	-0.710	0.030
2020/01/31 18:53:17.1	74.030	-0.190	-0.650	0.070
2020/01/31 18:53:17.2	74.020	-0.210	-0.590	0.120
2020/01/31 18:53:17.3	74.000	-0.230	-0.520	0.170
2020/01/31 18:53:17.4	73.980	-0.250	-0.450	0.230
2020/01/31 18:53:17.5	73.960	-0.260	-0.380	0.280
2020/01/31 18:53:17.6	73.930	-0.270	-0.300	0.340
2020/01/31 18:53:17.7	73.900	-0.280	-0.230	0.400
2020/01/31 18:53:17.8	73.870	-0.290	-0.150	0.460
2020/01/31 18:53:17.9	73.840	-0.300	-0.080	0.520
2020/01/31 18:53:18.0	73.800	-0.300	-0.010	0.580
2020/01/31 18:53:18.1	73.760	-0.300	0.060	0.640
2020/01/31 18:53:18.2	73.720	-0.300	0.130	0.700
2020/01/31 18:53:18.3	73.680	-0.300	0.190	0.760
2020/01/31 18:53:18.4	73.640	-0.290	0.250	0.820
2020/01/31 18:53:18.5	73.600	-0.280	0.300	0.880
2020/01/31 18:53:18.6	73.550	-0.270	0.350	0.940
2020/01/31 18:53:18.7	73.510	-0.250	0.400	0.990
2020/01/31 18:53:18.8	73.460	-0.240	0.430	1.050
2020/01/31 18:53:18.9	73.430	-0.220	0.470	1.100
2020/01/31 18:53:19.0	73.390	-0.200	0.490	1.150
2020/01/31 18:53:19.1	73.350	-0.180	0.510	1.190
2020/01/31 18:53:19.2	73.320	-0.150	0.520	1.230
2020/01/31 18:53:19.3	73.290	-0.130	0.530	1.270
2020/01/31 18:53:19.4	73.260	-0.100	0.520	1.300
2020/01/31 18:53:19.5	73.240	-0.070	0.510	1.330
2020/01/31 18:53:19.6	73.210	-0.040	0.500	1.360
2020/01/31 18:53:19.7	73.190	-0.010	0.480	1.380
2020/01/31 18:53:19.8	73.180	0.020	0.450	1.390
2020/01/31 18:53:19.9	73.160	0.050	0.420	1.400
2020/01/31 18:53:20.0	73.150	0.080	0.380	1.410
2020/01/31 18:53:20.1	73.140	0.110	0.340	1.410
2020/01/31 18:53:20.2	73.140	0.140	0.290	1.410
2020/01/31 18:53:20.3	73.140	0.160	0.240	1.400
2020/01/31 18:53:20.4	73.140	0.190	0.180	1.380
2020/01/31 18:53:20.5	73.140	0.220	0.130	1.370
2020/01/31 18:53:20.6	73.150	0.250	0.070	1.340
2020/01/31 18:53:20.7	73.150	0.270	0.010	1.310
2020/01/31 18:53:20.8	73.170	0.290	-0.060	1.280
2020/01/31 18:53:20.9	73.180	0.320	-0.120	1.240
2020/01/31 18:53:21.0	73.200	0.340	-0.180	1.200
2020/01/31 18:53:21.1	73.220	0.350	-0.240	1.150
2020/01/31 18:53:21.2	73.240	0.370	-0.300	1.100
2020/01/31 18:53:21.3	73.260	0.390	-0.360	1.050
2020/01/31 18:53:21.4	73.280	0.400	-0.410	0.990
2020/01/31 18:53:21.5	73.310	0.420	-0.470	0.930
2020/01/31 18:53:21.6	73.330	0.430	-0.510	0.870
2020/01/31 18:53:21.7	73.360	0.440	-0.560	0.810
2020/01/31 18:53:21.8	73.390	0.440	-0.600	0.750
2020/01/31 18:53:21.9	73.420	0.450	-0.640	0.680
2020/01/31 18:53:22.0	73.450	0.460	-0.670	0.610
2020/01/31 18:53:22.1	73.490	0.460	-0.700	0.550
2020/01/31 18:53:22.2	73.520	0.460	-0.720	0.480
2020/01/31 18:53:22.3	73.550	0.470	-0.740	0.410
2020/01/31 18:53:22.4	73.590	0.470	-0.750	0.340
2020/01/31 18:53:22.5	73.620	0.470	-0.760	0.280
2020/01/31 18:53:22.6	73.660	0.460	-0.770	0.210
2020/01/31 18:53:22.7	73.690	0.460	-0.770	0.150
2020/01/31 18:53:22.8	73.730	0.460	-0.760	0.090
2020/01/31 18:53:22.9	73.760	0.450	-0.750	0.040
2020/01/31 18:53:23.0	73.790	0.450	-0.740	-0.020
2020/01/31 18:53:23.1	73.810	0.440	-0.720	-0.070
2020/01/31 18:53:23.2	73.840	0.430	-0.700	-0.120
2020/01/31 18:53:23.3	73.860	0.420	-0.680	-0.170
2020/01/31 18:53:23.4	73.890	0.410	-0.650	-0.210
2020/01/31 18:53:23.5	73.910	0.400	-0.620	-0.250
2020/01/31 18:53:23.6	73.920	0.390	-0.590	-0.290
2020/01/31 18:53:23.7	73.940	0.370	-0.550	-0.320
2020/01/31 18:53:23.8	73.950	0.360	-0.510	-0.350
2020/01/31 18:53:23.9	73.960	0.340	-0.470	-0.380
2020/01/31 18:53:24.0	73.970	0.320	-0.430	-0.400
2020/01/31 18:53:24.1	73.980	0.310	-0.390	-0.430
2020/01/31 18:53:24.2	73.980	0.290	-0.350	-0.450
2020/01/31 18:53:24.3	73.990	0.270	-0.310	-0.470
2020/01/31 18:53:24.4	73.990	0.240	-0.270	-0.480
2020/01/31 18:53:24.5	73.990	0.220	-0.230	-0.500
2020/01/31 18:53:24.6	73.990	0.200	-0.190	-0.510
2020/01/31 18:53:24.7	73.990	0.170	-0.150	-0.520
2020/01/31 18:53:24.8	73.990	0.140	-0.120	-0.520
2020/01/31 18:53:24.9	73.990	0.110	-0.080	-0.530
2020/01/31 18:53:25.0	73.990	0.090	-0.040	-0.540
2020/01/31 18:53:25.1	73.990	0.050	-0.000	-0.540
2020/01/31 18:53:25.2	73.990	0.020	0.030	-0.540
2020/01/31 18:53:25.3	73.990	-0.010	0.070	-0.540
2020/01/31 18:53:25.4	74.000	-0.040	0.110	-0.530
2020/01/31 18:53:25.5	74.000	-0.080	0.140	-0.530
2020/01/31 18:53:25.6	74.000	-0.110	0.170	-0.520
2020/01/31 18:53:25.7	74.010	-0.150	0.210	-0.510
2020/01/31 18:53:25.8	74.010	-0.190	0.240	-0.500
2020/01/31 18:53:25.9	74.010	-0.220	0.270	-0.480
2020/01/31 18:53:26.0	74.020	-0.260	0.300	-0.470
2020/01/31 18:53:26.1	74.020	-0.300	0.330	-0.450
2020/01/31 18:53:26.2	74.030	-0.340	0.360	-0.420
2020/01/31 18:53:26.3	74.030	-0.370	0.390	-0.400
2020/01/31 18:53:26.4	74.040	-0.410	0.420	-0.370
2020/01/31 18:53:26.5	74.040	-0.450	0.450	-0.340
2020/01/31 18:53:26.6	74.050	-0.480	0.470	-0.310
2020/01/31 18:53:26.7	74.050	-0.520	0.500	-0.280
2020/01/31 18:53:26.8	74.060	-0.550	0.520	-0.240
2020/01/31 18:53:26.9	74.070	-0.580	0.540	-0.200
2020/01/31 18:53:27.0	74.070	-0.610	0.560	-0.160
2020/01/31 18:53:27.1	74.080	-0.640	0.580	-0.120
2020/01/31 18:53:27.2	74.080	-0.670	0.600	-0.080
2020/01/31 18:53:27.3	74.090	-0.690	0.620	-0.040
2020/01/31 18:53:27.4	74.090	-0.710	0.630	0.010
2020/01/31 18:53:27.5	74.100	-0.730	0.640	0.050
2020/01/31 18:53:27.6	74.100	-0.750	0.650	0.100
2020/01/31 18:53:27.7	74.110	-0.760	0.650	0.140
2020/01/31 18:53:27.8	74.100	-0.770	0.650	0.190
2020/01/31 18:53:27.9	74.100	-0.770	0.640	0.240
2020/01/31 18:53:28.0	74.100	-0.770	0.630	0.280
2020/01/31 18:53:28.1	74.110	-0.770	0.620	0.330
2020/01/31 18:53:28.2	74.110	-0.760	0.600	0.380
2020/01/31 18:53:28.3	74.110	-0.750	0.570	0.420
2020/01/31 18:53:28.4	74.120	-0.740	0.540	0.470
2020/01/31 18:53:28.5	74.120	-0.720	0.510	0.510
2020/01/31 18:53:28.6	74.120	-0.690	0.460	0.550
2020/01/31 18:53:28.7	74.130	-0.670	0.420	0.590
2020/01/31 18:53:28.8	74.130	-0.640	0.370	0.640
2020/01/31 18:53:28.9	74.140	-0.610	0.310	0.670
2020/01/31 18:53:29.0	74.140	-0.570	0.250	0.710
2020/01/31 18:53:29.1	74.140	-0.530	0.190	0.740
2020/01/31 18:53:29.2	74.150	-0.490	0.120	0.780
2020/01/31 18:53:29.3	74.150	-0.450	0.040	0.810
2020/01/31 18:53:29.4	74.160	-0.400	-0.030	0.830
2020/01/31 18:53:29.5	74.170	-0.360	-0.110	0.860
2020/01/31 18:53:29.6	74.170	-0.310	-0.190	0.880
2020/01/31 18:53:29.7	74.180	-0.260	-0.280	0.900
2020/01/31 18:53:29.8	74.180	-0.210	-0.360	0.920
2020/01/31 18:53:29.9	74.190	-0.160	-0.450	0.930
2020/01/31 18:53:30.0	74.200	-0.110	-0.530	0.950
2020/01/31 18:53:30.1	74.210	-0.060	-0.610	0.960
2020/01/31 18:53:30.2	74.220	-0.010	-0.700	0.960
2020/01/31 18:53:30.3	74.230	0.030	-0.780	0.970
2020/01/31 18:53:30.4	74.240	0.080	-0.850	0.970
2020/01/31 18:53:30.5	74.250	0.120	-0.930	0.970
2020/01/31 18:53:30.6	74.250	0.170	-0.990	0.980
2020/01/31 18:53:30.7	74.260	0.210	-1.060	0.980
2020/01/31 18:53:30.8	74.270	0.240	-1.120	0.980
2020/01/31 18:53:30.9	74.270	0.280	-1.170	0.980
2020/01/31 18:53:31.0	74.270	0.310	-1.210	0.970
2020/01/31 18:53:31.1	74.280	0.340	-1.250	0.970
2020/01/31 18:53:31.2	74.280	0.370	-1.290	0.970
2020/01/31 18:53:31.3	74.280	0.400	-1.310	0.970
2020/01/31 18:53:31.4	74.270	0.420	-1.330	0.960
2020/01/31 18:53:31.5	74.270	0.440	-1.330	0.960
2020/01/31 18:53:31.6	74.270	0.460	-1.340	0.960
2020/01/31 18:53:31.7	74.260	0.480	-1.330	0.960
2020/01/31 18:53:31.8	74.260	0.490	-1.320	0.960
2020/01/31 18:53:31.9	74.260	0.500	-1.300	0.950
2020/01/31 18:53:32.0	74.250	0.510	-1.270	0.950
2020/01/31 18:53:32.1	74.250	0.520	-1.240	0.950
2020/01/31 18:53:32.2	74.240	0.530	-1.200	0.940
2020/01/31 18:53:32.3	74.240	0.530	-1.160	0.940
2020/01/31 18:53:32.4	74.240	0.530	-1.110	0.930
2020/01/31 18:53:32.5	74.240	0.540	-1.070	0.920
2020/01/31 18:53:32.6	74.240	0.540	-1.010	0.910
2020/01/31 18:53:32.7	74.240	0.540	-0.960	0.900
2020/01/31 18:53:32.8	74.240	0.540	-0.900	0.880
2020/01/31 18:53:32.9	74.240	0.540	-0.850	0.870
2020/01/31 18:53:33.0	74.250	0.530	-0.790	0.850
2020/01/31 18:53:33.1	74.260	0.530	-0.730	0.830
2020/01/31 18:53:33.2	74.270	0.530	-0.670	0.810
2020/01/31 18:53:33.3	74.290	0.520	-0.620	0.790
2020/01/31 18:53:33.4	74.300	0.520	-0.560	0.770
2020/01/31 18:53:33.5	74.320	0.520	-0.500	0.740
2020/01/31 18:53:33.6	74.340	0.510	-0.450	0.720
2020/01/31 18:53:33.7	74.360	0.510	-0.390	0.690
2020/01/31 18:53:33.8	74.390	0.500	-0.340	0.660
2020/01/31 18:53:33.9	74.410	0.490	-0.290	0.630
2020/01/31 18:53:34.0	74.430	0.480	-0.240	0.600
2020/01/31 18:53:34.1	74.450	0.470	-0.180	0.570
2020/01/31 18:53:34.2	74.470	0.460	-0.130	0.540
2020/01/31 18:53:34.3	74.490	0.450	-0.090	0.510
2020/01/31 18:53:34.4	74.510	0.440	-0.040	0.480
2020/01/31 18:53:34.5	74.530	0.420	0.010	0.450
2020/01/31 18:53:34.6	74.550	0.400	0.060	0.420
2020/01/31 18:53:34.7	74.560	0.390	0.110	0.390
2020/01/31 18:53:34.8	74.570	0.370	0.150	0.360
2020/01/31 18:53:34.9	74.580	0.340	0.200	0.330
2020/01/31 18:53:35.0	74.590	0.320	0.240	0.310
2020/01/31 18:53:35.1	74.600	0.290	0.290	0.280
2020/01/31 18:53:35.2	74.600	0.270	0.340	0.250
2020/01/31 18:53:35.3	74.610	0.240	0.380	0.230
2020/01/31 18:53:35.4	74.610	0.210	0.430	0.200
2020/01/31 18:53:35.5	74.610	0.170	0.480	0.180
2020/01/31 18:53:35.6	74.600	0.140	0.520	0.160
2020/01/31 18:53:35.7	74.600	0.110	0.560	0.140
2020/01/31 18:53:35.8	74.590	0.070	0.600	0.120
2020/01/31 18:53:35.9	74.580	0.030	0.640	0.100
2020/01/31 18:53:36.0	74.570	-0.000	0.680	0.080
2020/01/31 18:53:36.1	74.570	-0.040	0.720	0.060
2020/01/31 18:53:36.2	74.560	-0.080	0.750	0.050
2020/01/31 18:53:36.3	74.550	-0.120	0.780	0.040
2020/01/31 18:53:36.4	74.540	-0.150	0.800	0.020
2020/01/31 18:53:36.5	74.530	-0.190	0.820	0.010
2020/01/31 18:53:36.6	74.520	-0.220	0.840	0.000
2020/01/31 18:53:36.7	74.510	-0.260	0.850	-0.010
2020/01/31 18:53:36.8	74.520	-0.290	0.860	-0.020
2020/01/31 18:53:36.9	74.510	-0.320	0.860	-0.020
2020/01/31 18:53:37.0	74.510	-0.340	0.860	-0.030
2020/01/31 18:53:37.1	74.510	-0.370	0.850	-0.040
2020/01/31 18:53:37.2	74.510	-0.390	0.830	-0.050
2020/01/31 18:53:37.3	74.510	-0.410	0.810	-0.050
2020/01/31 18:53:37.4	74.510	-0.420	0.780	-0.060
2020/01/31 18:53:37.5	74.510	-0.440	0.740	-0.070
2020/01/31 18:53:37.6	74.520	-0.450	0.700	-0.080
2020/01/31 18:53:37.7	74.530	-0.450	0.650	-0.090
2020/01/31 18:53:37.8	74.540	-0.460	0.590	-0.100
2020/01/31 18:53:37.9	74.550	-0.460	0.530	-0.110
2020/01/31 18:53:38.0	74.560	-0.450	0.460	-0.120
2020/01/31 18:53:38.1	74.580	-0.450	0.390	-0.130
2020/01/31 18:53:38.2	74.590	-0.440	0.310	-0.150
2020/01/31 18:53:38.3	74.600	-0.430	0.230	-0.160
2020/01/31 18:53:38.4	74.620	-0.410	0.140	-0.170
2020/01/31 18:53:38.5	74.630	-0.400	0.050	-0.180
2020/01/31 18:53:38.6	74.640	-0.380	-0.040	-0.190
2020/01/31 18:53:38.7	74.660	-0.360	-0.130	-0.200
2020/01/31 18:53:38.8	74.680	-0.340	-0.220	-0.200
2020/01/31 18:53:38.9	74.690	-0.320	-0.320	-0.210
2020/01/31 18:53:39.0	74.700	-0.300	-0.410	-0.210
2020/01/31 18:53:39.1	74.710	-0.280	-0.500	-0.220
2020/01/31 18:53:39.2	74.720	-0.250	-0.590	-0.220
2020/01/31 18:53:39.3	74.730	-0.230	-0.670	-0.220
2020/01/31 18:53:39.4	74.740	-0.210	-0.750	-0.220
2020/01/31 18:53:39.5	74.740	-0.190	-0.830	-0.220
2020/01/31 18:53:39.6	74.750	-0.170	-0.900	-0.220
2020/01/31 18:53:39.7	74.760	-0.150	-0.960	-0.220
2020/01/31 18:53:39.8	74.760	-0.130	-1.020	-0.210
2020/01/31 18:53:39.9	74.760	-0.120	-1.080	-0.210
2020/01/31 18:53:40.0	74.760	-0.100	-1.120	-0.200
2020/01/31 18:53:40.1	74.760	-0.090	-1.160	-0.190
2020/01/31 18:53:40.2	74.770	-0.080	-1.190	-0.180
2020/01/31 18:53:40.3	74.770	-0.070	-1.210	-0.170
2020/01/31 18:53:40.4	74.770	-0.060	-1.220	-0.160
2020/01/31 18:53:40.5	74.770	-0.050	-1.220	-0.150
2020/01/31 18:53:40.6	74.760	-0.050	-1.220	-0.140
2020/01/31 18:53:40.7	74.760	-0.040	-1.210	-0.130
2020/01/31 18:53:40.8	74.760	-0.040	-1.190	-0.110
2020/01/31 18:53:40.9	74.760	-0.040	-1.160	-0.100
2020/01/31 18:53:41.0	74.760	-0.030	-1.130	-0.080
2020/01/31 18:53:41.1	74.760	-0.030	-1.090	-0.070
2020/01/31 18:53:41.2	74.760	-0.030	-1.040	-0.050
2020/01/31 18:53:41.3	74.760	-0.030	-0.990	-0.030
2020/01/31 18:53:41.4	74.770	-0.030	-0.930	-0.010
2020/01/31 18:53:41.5	74.770	-0.030	-0.870	0.000
2020/01/31 18:53:41.6	74.780	-0.030	-0.800	0.020
2020/01/31 18:53:41.7	74.780	-0.030	-0.730	0.050
2020/01/31 18:53:41.8	74.790	-0.030	-0.660	0.060
2020/01/31 18:53:41.9	74.800	-0.030	-0.590	0.090
2020/01/31 18:53:42.0	74.800	-0.030	-0.510	0.110
2020/01/31 18:53:42.1	74.810	-0.020	-0.440	0.140
2020/01/31 18:53:42.2	74.820	-0.020	-0.360	0.160
2020/01/31 18:53:42.3	74.830	-0.020	-0.280	0.190
2020/01/31 18:53:42.4	74.840	-0.010	-0.200	0.220
2020/01/31 18:53:42.5	74.860	-0.010	-0.130	0.250
2020/01/31 18:53:42.6	74.870	-0.000	-0.050	0.290
2020/01/31 18:53:42.7	74.880	0.010	0.020	0.320
2020/01/31 18:53:42.8	74.890	0.010	0.090	0.360
2020/01/31 18:53:42.9	74.900	0.020	0.150	0.400
2020/01/31 18:53:43.0	74.910	0.030	0.220	0.440
2020/01/31 18:53:43.1	74.920	0.030	0.270	0.470
2020/01/31 18:53:43.2	74.940	0.040	0.330	0.510
2020/01/31 18:53:43.3	74.950	0.050	0.370	0.550
2020/01/31 18:53:43.4	74.960	0.060	0.420	0.590
2020/01/31 18:53:43.5	74.970	0.060	0.450	0.630
2020/01/31 18:53:43.6	74.980	0.070	0.490	0.670
2020/01/31 18:53:43.7	74.990	0.070	0.510	0.710
2020/01/31 18:53:43.8	75.000	0.070	0.530	0.750
2020/01/31 18:53:43.9	75.010	0.080	0.550	0.790
2020/01/31 18:53:44.0	75.020	0.080	0.560	0.830
2020/01/31 18:53:44.1	75.020	0.080	0.570	0.860
2020/01/31 18:53:44.2	75.030	0.080	0.570	0.900
2020/01/31 18:53:44.3	75.040	0.080	0.570	0.930
2020/01/31 18:53:44.4	75.040	0.070	0.560	0.960
2020/01/31 18:53:44.5	75.050	0.070	0.550	0.990
2020/01/31 18:53:44.6	75.050	0.060	0.540	1.020
2020/01/31 18:53:44.7	75.050	0.060	0.520	1.040
2020/01/31 18:53:44.8	75.050	0.050	0.500	1.070
2020/01/31 18:53:44.9	75.050	0.040	0.480	1.090
2020/01/31 18:53:45.0	75.050	0.030	0.450	1.100
2020/01/31 18:53:45.1	75.050	0.020	0.420	1.120
2020/01/31 18:53:45.2	75.050	0.000	0.390	1.130
2020/01/31 18:53:45.3	75.050	-0.010	0.360	1.140
2020/01/31 18:53:45.4	75.050	-0.020	0.320	1.150
2020/01/31 18:53:45.5	75.040	-0.040	0.290	1.160
2020/01/31 18:53:45.6	75.030	-0.050	0.250	1.160
2020/01/31 18:53:45.7	75.030	-0.060	0.210	1.160
2020/01/31 18:53:45.8	75.020	-0.080	0.160	1.160
2020/01/31 18:53:45.9	75.010	-0.090	0.120	1.160
2020/01/31 18:53:46.0	75.000	-0.100	0.070	1.160
2020/01/31 18:53:46.1	74.990	-0.120	0.030	1.150
2020/01/31 18:53:46.2	74.970	-0.130	-0.010	1.140
2020/01/31 18:53:46.3	74.960	-0.140	-0.060	1.140
2020/01/31 18:53:46.4	74.940	-0.150	-0.110	1.130
2020/01/31 18:53:46.5	74.930	-0.160	-0.150	1.120
2020/01/31 18:53:46.6	74.910	-0.170	-0.200	1.100
2020/01/31 18:53:46.7	74.890	-0.170	-0.240	1.090
2020/01/31 18:53:46.8	74.880	-0.180	-0.290	1.080
2020/01/31 18:53:46.9	74.870	-0.180	-0.330	1.070
2020/01/31 18:53:47.0	74.850	-0.180	-0.380	1.050
2020/01/31 18:53:47.1	74.830	-0.180	-0.420	1.040
2020/01/31 18:53:47.2	74.810	-0.180	-0.460	1.020
2020/01/31 18:53:47.3	74.790	-0.180	-0.500	1.000
2020/01/31 18:53:47.4	74.780	-0.170	-0.540	0.980
2020/01/31 18:53:47.5	74.760	-0.170	-0.570	0.960
2020/01/31 18:53:47.6	74.740	-0.160	-0.610	0.940
2020/01/31 18:53:47.7	74.730	-0.150	-0.640	0.920
2020/01/31 18:53:47.8	74.710	-0.140	-0.670	0.890
2020/01/31 18:53:47.9	74.700	-0.120	-0.700	0.870
2020/01/31 18:53:48.0	74.690	-0.110	-0.730	0.840
2020/01/31 18:53:48.1	74.680	-0.090	-0.750	0.810
2020/01/31 18:53:48.2	74.670	-0.080	-0.780	0.770
2020/01/31 18:53:48.3	74.670	-0.060	-0.800	0.740
2020/01/31 18:53:48.4	74.660	-0.040	-0.810	0.700
2020/01/31 18:53:48.5	74.660	-0.020	-0.830	0.660
2020/01/31 18:53:48.6	74.660	0.010	-0.840	0.620
2020/01/31 18:53:48.7	74.670	0.030	-0.850	0.580
2020/01/31 18:53:48.8	74.680	0.060	-0.860	0.540
2020/01/31 18:53:48.9	74.680	0.080	-0.870	0.490
2020/01/31 18:53:49.0	74.690	0.110	-0.870	0.450
2020/01/31 18:53:49.1	74.700	0.140	-0.870	0.400
2020/01/31 18:53:49.2	74.710	0.160	-0.860	0.360
2020/01/31 18:53:49.3	74.730	0.190	-0.850	0.310
2020/01/31 18:53:49.4	74.740	0.220	-0.840	0.270
2020/01/31 18:53:49.5	74.760	0.240	-0.820	0.220
2020/01/31 18:53:49.6	74.780	0.270	-0.810	0.180
2020/01/31 18:53:49.7	74.800	0.290	-0.780	0.140
2020/01/31 18:53:49.8	74.810	0.320	-0.760	0.100
2020/01/31 18:53:49.9	74.830	0.340	-0.730	0.060
2020/01/31 18:53:50.0	74.850	0.360	-0.700	0.030
2020/01/31 18:53:50.1	74.870	0.380	-0.660	-0.010
2020/01/31 18:53:50.2	74.900	0.400	-0.630	-0.040
2020/01/31 18:53:50.3	74.920	0.410	-0.590	-0.070
2020/01/31 18:53:50.4	74.940	0.420	-0.540	-0.090
2020/01/31 18:53:50.5	74.960	0.440	-0.500	-0.110
2020/01/31 18:53:50.6	74.980	0.440	-0.450	-0.130
2020/01/31 18:53:50.7	74.990	0.450	-0.410	-0.150
2020/01/31 18:53:50.8	75.020	0.450	-0.360	-0.160
2020/01/31 18:53:50.9	75.040	0.450	-0.310	-0.170
2020/01/31 18:53:51.0	75.050	0.450	-0.260	-0.170
2020/01/31 18:53:51.1	75.070	0.450	-0.210	-0.180
2020/01/31 18:53:51.2	75.080	0.440	-0.160	-0.180
2020/01/31 18:53:51.3	75.090	0.430	-0.120	-0.180
2020/01/31 18:53:51.4	75.100	0.420	-0.070	-0.170
2020/01/31 18:53:51.5	75.110	0.400	-0.020	-0.170
2020/01/31 18:53:51.6	75.120	0.390	0.020	-0.160
2020/01/31 18:53:51.7	75.120	0.370	0.070	-0.150
2020/01/31 18:53:51.8	75.130	0.340	0.110	-0.140
2020/01/31 18:53:51.9	75.130	0.320	0.150	-0.130
2020/01/31 18:53:52.0	75.130	0.290	0.190	-0.120
2020/01/31 18:53:52.1	75.140	0.260	0.220	-0.100
2020/01/31 18:53:52.2	75.130	0.230	0.260	-0.090
2020/01/31 18:53:52.3	75.130	0.200	0.290	-0.070
2020/01/31 18:53:52.4	75.130	0.170	0.320	-0.060
2020/01/31 18:53:52.5	75.120	0.130	0.350	-0.040
2020/01/31 18:53:52.6	75.120	0.100	0.370	-0.020
2020/01/31 18:53:52.7	75.110	0.060	0.390	-0.010
2020/01/31 18:53:52.8	75.110	0.020	0.410	0.010
2020/01/31 18:53:52.9	75.110	-0.010	0.430	0.030
2020/01/31 18:53:53.0	75.100	-0.050	0.450	0.050
2020/01/31 18:53:53.1	75.090	-0.090	0.460	0.060
2020/01/31 18:53:53.2	75.090	-0.130	0.470	0.080
2020/01/31 18:53:53.3	75.080	-0.170	0.480	0.090
2020/01/31 18:53:53.4	75.070	-0.200	0.490	0.100
2020/01/31 18:53:53.5	75.070	-0.240	0.490	0.120
2020/01/31 18:53:53.6	75.060	-0.280	0.500	0.130
2020/01/31 18:53:53.7	75.060	-0.310	0.500	0.140
2020/01/31 18:53:53.8	75.050	-0.350	0.500	0.150
2020/01/31 18:53:53.9	75.040	-0.380	0.490	0.160
2020/01/31 18:53:54.0	75.030	-0.410	0.490	0.170
2020/01/31 18:53:54.1	75.030	-0.440	0.480	0.180
2020/01/31 18:53:54.2	75.020	-0.460	0.470	0.190
2020/01/31 18:53:54.3	75.010	-0.490	0.460	0.200
2020/01/31 18:53:54.4	75.000	-0.510	0.440	0.220
2020/01/31 18:53:54.5	74.990	-0.530	0.430	0.230
2020/01/31 18:53:54.6	74.980	-0.540	0.410	0.240
2020/01/31 18:53:54.7	74.970	-0.550	0.390	0.250
2020/01/31 18:53:54.8	74.970	-0.560	0.360	0.270
2020/01/31 18:53:54.9	74.960	-0.570	0.330	0.280
2020/01/31 18:53:55.0	74.950	-0.580	0.300	0.300
2020/01/31 18:53:55.1	74.930	-0.580	0.270	0.310
2020/01/31 18:53:55.2	74.920	-0.570	0.230	0.320
2020/01/31 18:53:55.3	74.910	-0.570	0.200	0.340
2020/01/31 18:53:55.4	74.900	-0.560	0.150	0.350
2020/01/31 18:53:55.5	74.890	-0.550	0.110	0.360
2020/01/31 18:53:55.6	74.890	-0.530	0.060	0.370
2020/01/31 18:53:55.7	74.880	-0.510	0.010	0.380
2020/01/31 18:53:55.8	74.870	-0.490	-0.040	0.390
2020/01/31 18:53:55.9	74.870	-0.470	-0.100	0.400
2020/01/31 18:53:56.0	74.870	-0.440	-0.160	0.400
2020/01/31 18:53:56.1	74.880	-0.410	-0.220	0.400
2020/01/31 18:53:56.2	74.890	-0.380	-0.280	0.400
2020/01/31 18:53:56.3	74.900	-0.340	-0.340	0.400
2020/01/31 18:53:56.4	74.910	-0.310	-0.410	0.390
2020/01/31 18:53:56.5	74.930	-0.270	-0.470	0.380
2020/01/31 18:53:56.6	74.950	-0.230	-0.540	0.370
2020/01/31 18:53:56.7	74.980	-0.190	-0.600	0.360
2020/01/31 18:53:56.8	75.000	-0.140	-0.670	0.350
2020/01/31 18:53:56.9	75.030	-0.100	-0.730	0.330
2020/01/31 18:53:57.0	75.060	-0.060	-0.790	0.310
2020/01/31 18:53:57.1	75.100	-0.010	-0.850	0.300
2020/01/31 18:53:57.2	75.130	0.030	-0.900	0.280
2020/01/31 18:53:57.3	75.160	0.070	-0.950	0.270
2020/01/31 18:53:57.4	75.200	0.110	-0.990	0.250
2020/01/31 18:53:57.5	75.230	0.150	-1.030	0.240
2020/01/31 18:53:57.6	75.260	0.190	-1.060	0.230
2020/01/31 18:53:57.7	75.290	0.230	-1.080	0.220
2020/01/31 18:53:57.8	75.320	0.270	-1.090	0.220
2020/01/31 18:53:57.9	75.340	0.300	-1.100	0.210
2020/01/31 18:53:58.0	75.370	0.330	-1.100	0.210
2020/01/31 18:53:58.1	75.390	0.350	-1.090	0.220
2020/01/31 18:53:58.2	75.410	0.380	-1.080	0.220
2020/01/31 18:53:58.3	75.430	0.400	-1.060	0.230
2020/01/31 18:53:58.4	75.440	0.420	-1.020	0.250
2020/01/31 18:53:58.5	75.450	0.430	-0.990	0.260
2020/01/31 18:53:58.6	75.460	0.440	-0.940	0.290
2020/01/31 18:53:58.7	75.460	0.450	-0.890	0.310
2020/01/31 18:53:58.8	75.460	0.450	-0.830	0.340
2020/01/31 18:53:58.9	75.460	0.450	-0.770	0.370
2020/01/31 18:53:59.0	75.450	0.450	-0.700	0.410
2020/01/31 18:53:59.1	75.440	0.440	-0.620	0.440
2020/01/31 18:53:59.2	75.430	0.430	-0.540	0.480
2020/01/31 18:53:59.3	75.410	0.420	-0.460	0.520
2020/01/31 18:53:59.4	75.400	0.400	-0.380	0.560
2020/01/31 18:53:59.5	75.380	0.380	-0.300	0.610
2020/01/31 18:53:59.6	75.350	0.360	-0.220	0.650
2020/01/31 18:53:59.7	75.330	0.330	-0.130	0.690
2020/01/31 18:53:59.8	75.300	0.310	-0.050	0.730
2020/01/31 18:53:59.9	75.270	0.280	0.030	0.770
2020/01/31 18:54:00.0	75.240	0.250	0.110	0.810
2020/01/31 18:54:00.1	75.220	0.220	0.180	0.850
2020/01/31 18:54:00.2	75.190	0.190	0.240	0.880
2020/01/31 18:54:00.3	75.160	0.150	0.310	0.910
2020/01/31 18:54:00.4	75.130	0.120	0.360	0.940
2020/01/31 18:54:00.5	75.110	0.090	0.410	0.960
2020/01/31 18:54:00.6	75.080	0.050	0.460	0.980
2020/01/31 18:54:00.7	75.060	0.020	0.500	1.000
2020/01/31 18:54:00.8	75.020	-0.020	0.530	1.010
2020/01/31 18:54:00.9	75.000	-0.050	0.550	1.020
2020/01/31 18:54:01.0	74.980	-0.080	0.570	1.020
2020/01/31 18:54:01.1	74.950	-0.110	0.580	1.010
2020/01/31 18:54:01.2	74.940	-0.140	0.580	1.010
2020/01/31 18:54:01.3	74.920	-0.170	0.580	0.990
2020/01/31 18:54:01.4	74.900	-0.200	0.570	0.980
2020/01/31 18:54:01.5	74.890	-0.220	0.560	0.960
2020/01/31 18:54:01.6	74.870	-0.240	0.540	0.940
2020/01/31 18:54:01.7	74.860	-0.260	0.510	0.910
2020/01/31 18:54:01.8	74.840	-0.280	0.480	0.890
2020/01/31 18:54:01.9	74.830	-0.300	0.440	0.860
2020/01/31 18:54:02.0	74.820	-0.310	0.410	0.830
2020/01/31 18:54:02.1	74.810	-0.320	0.370	0.800
2020/01/31 18:54:02.2	74.810	-0.330	0.330	0.760
2020/01/31 18:54:02.3	74.810	-0.340	0.290	0.730
2020/01/31 18:54:02.4	74.800	-0.340	0.240	0.690
2020/01/31 18:54:02.5	74.800	-0.350	0.200	0.660
2020/01/31 18:54:02.6	74.800	-0.350	0.150	0.620
2020/01/31 18:54:02.7	74.810	-0.340	0.100	0.590
2020/01/31 18:54:02.8	74.810	-0.340	0.060	0.550
2020/01/31 18:54:02.9	74.820	-0.330	0.010	0.510
2020/01/31 18:54:03.0	74.830	-0.320	-0.030	0.470
2020/01/31 18:54:03.1	74.840	-0.310	-0.080	0.440
2020/01/31 18:54:03.2	74.850	-0.300	-0.120	0.400
2020/01/31 18:54:03.3	74.860	-0.280	-0.170	0.360
2020/01/31 18:54:03.4	74.880	-0.270	-0.220	0.320
2020/01/31 18:54:03.5	74.890	-0.250	-0.260	0.280
2020/01/31 18:54:03.6	74.910	-0.230	-0.300	0.230
2020/01/31 18:54:03.7	74.940	-0.210	-0.340	0.190
2020/01/31 18:54:03.8	74.980	-0.190	-0.390	0.150
2020/01/31 18:54:03.9	75.010	-0.160	-0.430	0.100
2020/01/31 18:54:04.0	75.030	-0.140	-0.470	0.060
2020/01/31 18:54:04.1	75.060	-0.110	-0.510	0.010
2020/01/31 18:54:04.2	75.090	-0.080	-0.540	-0.040
2020/01/31 18:54:04.3	75.120	-0.050	-0.580	-0.080
2020/01/31 18:54:04.4	75.160	-0.020	-0.610	-0.130
2020/01/31 18:54:04.5	75.190	0.010	-0.640	-0.180
2020/01/31 18:54:04.6	75.220	0.040	-0.670	-0.230
2020/01/31 18:54:04.7	75.260	0.080	-0.700	-0.270
2020/01/31 18:54:04.8	75.300	0.110	-0.720	-0.320
2020/01/31 18:54:04.9	75.340	0.140	-0.750	-0.360
2020/01/31 18:54:05.0	75.370	0.180	-0.770	-0.400
2020/01/31 18:54:05.1	75.410	0.210	-0.780	-0.440
2020/01/31 18:54:05.2	75.440	0.240	-0.800	-0.470
2020/01/31 18:54:05.3	75.470	0.280	-0.810	-0.510
2020/01/31 18:54:05.4	75.510	0.310	-0.820	-0.530
2020/01/31 18:54:05.5	75.540	0.340	-0.830	-0.560
2020/01/31 18:54:05.6	75.570	0.370	-0.830	-0.580
2020/01/31 18:54:05.7	75.590	0.390	-0.830	-0.600
2020/01/31 18:54:05.8	75.620	0.420	-0.820	-0.610
2020/01/31 18:54:05.9	75.640	0.440	-0.810	-0.620
2020/01/31 18:54:06.0	75.660	0.460	-0.800	-0.630
2020/01/31 18:54:06.1	75.680	0.470	-0.780	-0.630
2020/01/31 18:54:06.2	75.700	0.490	-0.760	-0.620
2020/01/31 18:54:06.3	75.710	0.500	-0.730	-0.610
2020/01/31 18:54:06.4	75.720	0.500	-0.700	-0.600
2020/01/31 18:54:06.5	75.730	0.510	-0.660	-0.580
2020/01/31 18:54:06.6	75.730	0.500	-0.620	-0.550
2020/01/31 18:54:06.7	75.730	0.500	-0.570	-0.520
2020/01/31 18:54:06.8	75.710	0.490	-0.530	-0.480
2020/01/31 18:54:06.9	75.710	0.480	-0.470	-0.440
2020/01/31 18:54:07.0	75.700	0.460	-0.410	-0.390
2020/01/31 18:54:07.1	75.680	0.440	-0.350	-0.330
2020/01/31 18:54:07.2	75.660	0.410	-0.290	-0.280
2020/01/31 18:54:07.3	75.640	0.380	-0.220	-0.210
2020/01/31 18:54:07.4	75.620	0.350	-0.150	-0.140
2020/01/31 18:54:07.5	75.600	0.320	-0.080	-0.070
2020/01/31 18:54:07.6	75.570	0.280	-0.010	0.000
2020/01/31 18:54:07.7	75.540	0.240	0.060	0.080
2020/01/31 18:54:07.8	75.510	0.190	0.140	0.160
2020/01/31 18:54:07.9	75.480	0.150	0.210	0.250
2020/01/31 18:54:08.0	75.450	0.100	0.280	0.330
2020/01/31 18:54:08.1	75.410	0.050	0.340	0.420
2020/01/31 18:54:08.2	75.380	0.000	0.410	0.510
2020/01/31 18:54:08.3	75.350	-0.050	0.470	0.590
2020/01/31 18:54:08.4	75.320	-0.100	0.520	0.680
2020/01/31 18:54:08.5	75.290	-0.140	0.570	0.770
2020/01/31 18:54:08.6	75.260	-0.190	0.620	0.850
2020/01/31 18:54:08.7	75.230	-0.240	0.660	0.930
2020/01/31 18:54:08.8	75.200	-0.280	0.690	1.010
2020/01/31 18:54:08.9	75.170	-0.330	0.720	1.080
2020/01/31 18:54:09.0	75.150	-0.370	0.740	1.150
2020/01/31 18:54:09.1	75.120	-0.410	0.750	1.220
2020/01/31 18:54:09.2	75.100	-0.440	0.760	1.280
2020/01/31 18:54:09.3	75.080	-0.480	0.760	1.330
2020/01/31 18:54:09.4	75.060	-0.500	0.750	1.380
2020/01/31 18:54:09.5	75.050	-0.530	0.730	1.420
2020/01/31 18:54:09.6	75.030	-0.550	0.710	1.460
2020/01/31 18:54:09.7	75.020	-0.570	0.680	1.490
2020/01/31 18:54:09.8	75.000	-0.580	0.640	1.520
2020/01/31 18:54:09.9	75.000	-0.590	0.600	1.540
2020/01/31 18:54:10.0	74.990	-0.600	0.550	1.550
2020/01/31 18:54:10.1	74.990	-0.600	0.490	1.560
2020/01/31 18:54:10.2	74.990	-0.590	0.430	1.560
2020/01/31 18:54:10.3	74.990	-0.590	0.370	1.560
2020/01/31 18:54:10.4	75.000	-0.570	0.300	1.550
2020/01/31 18:54:10.5	75.010	-0.560	0.220	1.530
2020/01/31 18:54:10.6	75.020	-0.540	0.150	1.510
2020/01/31 18:54:10.7	75.030	-0.520	0.070	1.490
2020/01/31 18:54:10.8	75.040	-0.490	-0.010	1.470
2020/01/31 18:54:10.9	75.060	-0.470	-0.090	1.430
2020/01/31 18:54:11.0	75.080	-0.440	-0.170	1.400
2020/01/31 18:54:11.1	75.110	-0.400	-0.250	1.360
2020/01/31 18:54:11.2	75.130	-0.370	-0.330	1.320
2020/01/31 18:54:11.3	75.160	-0.330	-0.410	1.280
2020/01/31 18:54:11.4	75.190	-0.300	-0.480	1.230
2020/01/31 18:54:11.5	75.220	-0.260	-0.560	1.180
2020/01/31 18:54:11.6	75.250	-0.220	-0.630	1.140
2020/01/31 18:54:11.7	75.280	-0.180	-0.690	1.090
2020/01/31 18:54:11.8	75.320	-0.140	-0.750	1.040
2020/01/31 18:54:11.9	75.350	-0.100	-0.810	0.990
2020/01/31 18:54:12.0	75.380	-0.070	-0.850	0.950
2020/01/31 18:54:12.1	75.410	-0.030	-0.900	0.900
2020/01/31 18:54:12.2	75.430	0.010	-0.930	0.850
2020/01/31 18:54:12.3	75.460	0.040	-0.960	0.800
2020/01/31 18:54:12.4	75.480	0.070	-0.980	0.760
2020/01/31 18:54:12.5	75.500	0.100	-0.990	0.710
2020/01/31 18:54:12.6	75.520	0.130	-1.000	0.670
2020/01/31 18:54:12.7	75.540	0.150	-1.000	0.620
2020/01/31 18:54:12.8	75.550	0.170	-0.990	0.580
2020/01/31 18:54:12.9	75.560	0.190	-0.970	0.540
2020/01/31 18:54:13.0	75.570	0.210	-0.950	0.500
2020/01/31 18:54:13.1	75.580	0.230	-0.920	0.460
2020/01/31 18:54:13.2	75.590	0.240	-0.880	0.420
2020/01/31 18:54:13.3	75.590	0.250	-0.840	0.390
2020/01/31 18:54:13.4	75.590	0.260	-0.790	0.360
2020/01/31 18:54:13.5	75.590	0.270	-0.740	0.320
2020/01/31 18:54:13.6	75.590	0.270	-0.690	0.290
2020/01/31 18:54:13.7	75.590	0.270	-0.630	0.270
2020/01/31 18:54:13.8	75.590	0.270	-0.560	0.240
2020/01/31 18:54:13.9	75.580	0.270	-0.500	0.220
2020/01/31 18:54:14.0	75.570	0.270	-0.440	0.190
2020/01/31 18:54:14.1	75.570	0.270	-0.370	0.170
2020/01/31 18:54:14.2	75.560	0.260	-0.310	0.150
2020/01/31 18:54:14.3	75.550	0.260	-0.240	0.120
2020/01/31 18:54:14.4	75.540	0.250	-0.180	0.100
2020/01/31 18:54:14.5	75.530	0.240	-0.130	0.080
2020/01/31 18:54:14.6	75.510	0.240	-0.070	0.060
2020/01/31 18:54:14.7	75.500	0.230	-0.020	0.040
2020/01/31 18:54:14.8	75.490	0.220	0.020	0.030
2020/01/31 18:54:14.9	75.470	0.210	0.060	0.010
2020/01/31 18:54:15.0	75.460	0.200	0.100	-0.010
2020/01/31 18:54:15.1	75.440	0.190	0.130	-0.020
2020/01/31 18:54:15.2	75.430	0.190	0.160	-0.040
2020/01/31 18:54:15.3	75.410	0.180	0.180	-0.050
2020/01/31 18:54:15.4	75.390	0.170	0.190	-0.060
2020/01/31 18:54:15.5	75.370	0.160	0.200	-0.070
2020/01/31 18:54:15.6	75.340	0.160	0.210	-0.070
2020/01/31 18:54:15.7	75.320	0.150	0.210	-0.080
2020/01/31 18:54:15.8	75.300	0.150	0.200	-0.080
2020/01/31 18:54:15.9	75.270	0.150	0.190	-0.080
2020/01/31 18:54:16.0	75.240	0.140	0.180	-0.080
2020/01/31 18:54:16.1	75.220	0.140	0.160	-0.070
2020/01/31 18:54:16.2	75.190	0.140	0.140	-0.060
2020/01/31 18:54:16.3	75.160	0.140	0.110	-0.050
2020/01/31 18:54:16.4	75.130	0.140	0.090	-0.040
2020/01/31 18:54:16.5	75.100	0.140	0.060	-0.030
2020/01/31 18:54:16.6	75.080	0.140	0.020	-0.020
2020/01/31 18:54:16.7	75.050	0.140	-0.010	-0.000
2020/01/31 18:54:16.8	75.030	0.150	-0.050	0.020
2020/01/31 18:54:16.9	75.010	0.150	-0.090	0.030
2020/01/31 18:54:17.0	74.990	0.150	-0.120	0.050
2020/01/31 18:54:17.1	74.960	0.160	-0.160	0.070
2020/01/31 18:54:17.2	74.950	0.160	-0.200	0.080
2020/01/31 18:54:17.3	74.930	0.160	-0.230	0.100
2020/01/31 18:54:17.4	74.910	0.170	-0.270	0.120
2020/01/31 18:54:17.5	74.900	0.170	-0.300	0.140
2020/01/31 18:54:17.6	74.890	0.180	-0.330	0.150
2020/01/31 18:54:17.7	74.880	0.180	-0.360	0.170
2020/01/31 18:54:17.8	74.880	0.180	-0.390	0.180
2020/01/31 18:54:17.9	74.870	0.180	-0.420	0.190
2020/01/31 18:54:18.0	74.870	0.190	-0.440	0.210
2020/01/31 18:54:18.1	74.870	0.190	-0.460	0.220
2020/01/31 18:54:18.2	74.870	0.190	-0.480	0.230
2020/01/31 18:54:18.3	74.870	0.190	-0.490	0.240
2020/01/31 18:54:18.4	74.880	0.190	-0.500	0.250
2020/01/31 18:54:18.5	74.880	0.180	-0.510	0.250
2020/01/31 18:54:18.6	74.890	0.180	-0.510	0.260
2020/01/31 18:54:18.7	74.900	0.180	-0.510	0.260
2020/01/31 18:54:18.8	74.910	0.170	-0.500	0.270
2020/01/31 18:54:18.9	74.930	0.170	-0.500	0.270
2020/01/31 18:54:19.0	74.940	0.160	-0.490	0.270
2020/01/31 18:54:19.1	74.960	0.150	-0.470	0.270
2020/01/31 18:54:19.2	74.970	0.140	-0.460	0.270
2020/01/31 18:54:19.3	74.990	0.130	-0.440	0.260
2020/01/31 18:54:19.4	75.000	0.120	-0.410	0.260
2020/01/31 18:54:19.5	75.020	0.110	-0.390	0.260
2020/01/31 18:54:19.6	75.040	0.100	-0.360	0.250
2020/01/31 18:54:19.7	75.060	0.090	-0.340	0.250
2020/01/31 18:54:19.8	75.070	0.070	-0.310	0.250
2020/01/31 18:54:19.9	75.090	0.060	-0.270	0.250
2020/01/31 18:54:20.0	75.100	0.050	-0.240	0.250
2020/01/31 18:54:20.1	75.110	0.030	-0.210	0.250
2020/01/31 18:54:20.2	75.130	0.020	-0.170	0.250
2020/01/31 18:54:20.3	75.140	0.010	-0.140	0.250
2020/01/31 18:54:20.4	75.150	-0.010	-0.100	0.260
2020/01/31 18:54:20.5	75.150	-0.020	-0.070	0.270
2020/01/31 18:54:20.6	75.160	-0.030	-0.030	0.280
2020/01/31 18:54:20.7	75.160	-0.050	-0.000	0.300
2020/01/31 18:54:20.8	75.160	-0.060	0.030	0.310
2020/01/31 18:54:20.9	75.160	-0.070	0.060	0.330
2020/01/31 18:54:21.0	75.160	-0.080	0.090	0.350
2020/01/31 18:54:21.1	75.160	-0.090	0.120	0.380
2020/01/31 18:54:21.2	75.150	-0.100	0.150	0.410
2020/01/31 18:54:21.3	75.140	-0.110	0.170	0.440
2020/01/31 18:54:21.4	75.140	-0.120	0.190	0.470
2020/01/31 18:54:21.5	75.130	-0.130	0.210	0.500
2020/01/31 18:54:21.6	75.120	-0.140	0.230	0.530
2020/01/31 18:54:21.7	75.110	-0.140	0.240	0.570
2020/01/31 18:54:21.8	75.090	-0.150	0.250	0.610
2020/01/31 18:54:21.9	75.080	-0.150	0.260	0.640
2020/01/31 18:54:22.0	75.070	-0.160	0.270	0.680
2020/01/31 18:54:22.1	75.050	-0.160	0.270	0.720
2020/01/31 18:54:22.2	75.040	-0.160	0.270	0.750
2020/01/31 18:54:22.3	75.020	-0.170	0.270	0.790
2020/01/31 18:54:22.4	75.000	-0.170	0.270	0.820
2020/01/31 18:54:22.5	74.990	-0.180	0.270	0.850
2020/01/31 18:54:22.6	74.970	-0.180	0.260	0.880
2020/01/31 18:54:22.7	74.950	-0.180	0.250	0.910
2020/01/31 18:54:22.8	74.920	-0.190	0.240	0.940
2020/01/31 18:54:22.9	74.900	-0.190	0.230	0.960
2020/01/31 18:54:23.0	74.880	-0.200	0.220	0.980
2020/01/31 18:54:23.1	74.870	-0.200	0.210	1.000
2020/01/31 18:54:23.2	74.850	-0.210	0.190	1.020
2020/01/31 18:54:23.3	74.830	-0.210	0.180	1.030
2020/01/31 18:54:23.4	74.810	-0.220	0.160	1.040
2020/01/31 18:54:23.5	74.800	-0.230	0.150	1.050
2020/01/31 18:54:23.6	74.780	-0.230	0.130	1.060
2020/01/31 18:54:23.7	74.770	-0.240	0.120	1.060
2020/01/31 18:54:23.8	74.750	-0.250	0.100	1.050
2020/01/31 18:54:23.9	74.740	-0.260	0.090	1.050
2020/01/31 18:54:24.0	74.730	-0.270	0.070	1.040
2020/01/31 18:54:24.1	74.720	-0.280	0.050	1.030
2020/01/31 18:54:24.2	74.700	-0.290	0.030	1.020
2020/01/31 18:54:24.3	74.690	-0.290	0.010	1.010
2020/01/31 18:54:24.4	74.680	-0.300	-0.000	0.990
2020/01/31 18:54:24.5	74.670	-0.310	-0.020	0.970
2020/01/31 18:54:24.6	74.670	-0.320	-0.040	0.960
2020/01/31 18:54:24.7	74.660	-0.330	-0.060	0.930
2020/01/31 18:54:24.8	74.640	-0.330	-0.080	0.920
2020/01/31 18:54:24.9	74.640	-0.340	-0.100	0.890
2020/01/31 18:54:25.0	74.630	-0.340	-0.120	0.870
2020/01/31 18:54:25.1	74.630	-0.350	-0.130	0.840
2020/01/31 18:54:25.2	74.620	-0.350	-0.150	0.810
2020/01/31 18:54:25.3	74.620	-0.350	-0.170	0.790
2020/01/31 18:54:25.4	74.620	-0.350	-0.190	0.760
2020/01/31 18:54:25.5	74.620	-0.350	-0.210	0.730
2020/01/31 18:54:25.6	74.620	-0.340	-0.230	0.710
2020/01/31 18:54:25.7	74.620	-0.330	-0.250	0.680
2020/01/31 18:54:25.8	74.620	-0.330	-0.270	0.650
2020/01/31 18:54:25.9	74.620	-0.320	-0.300	0.620
2020/01/31 18:54:26.0	74.620	-0.300	-0.320	0.600
2020/01/31 18:54:26.1	74.620	-0.290	-0.340	0.570
2020/01/31 18:54:26.2	74.620	-0.270	-0.360	0.540
2020/01/31 18:54:26.3	74.630	-0.250	-0.390	0.520
2020/01/31 18:54:26.4	74.630	-0.230	-0.410	0.490
2020/01/31 18:54:26.5	74.630	-0.200	-0.440	0.460
2020/01/31 18:54:26.6	74.640	-0.180	-0.470	0.440
2020/01/31 18:54:26.7	74.640	-0.150	-0.500	0.410
2020/01/31 18:54:26.8	74.650	-0.120	-0.530	0.390
2020/01/31 18:54:26.9	74.650	-0.080	-0.560	0.370
2020/01/31 18:54:27.0	74.660	-0.050	-0.590	0.340
2020/01/31 18:54:27.1	74.660	-0.010	-0.620	0.320
2020/01/31 18:54:27.2	74.670	0.030	-0.650	0.290
2020/01/31 18:54:27.3	74.670	0.070	-0.680	0.270
2020/01/31 18:54:27.4	74.680	0.110	-0.710	0.240
2020/01/31 18:54:27.5	74.680	0.150	-0.740	0.220
2020/01/31 18:54:27.6	74.690	0.190	-0.770	0.190
2020/01/31 18:54:27.7	74.690	0.230	-0.800	0.170
2020/01/31 18:54:27.8	74.690	0.280	-0.830	0.140
2020/01/31 18:54:27.9	74.700	0.320	-0.860	0.120
2020/01/31 18:54:28.0	74.700	0.360	-0.880	0.100
2020/01/31 18:54:28.1	74.700	0.400	-0.900	0.080
2020/01/31 18:54:28.2	74.700	0.430	-0.920	0.050
2020/01/31 18:54:28.3	74.700	0.470	-0.930	0.030
2020/01/31 18:54:28.4	74.700	0.500	-0.940	0.020
2020/01/31 18:54:28.5	74.700	0.530	-0.940	-0.000
2020/01/31 18:54:28.6	74.690	0.560	-0.940	-0.020
2020/01/31 18:54:28.7	74.690	0.590	-0.940	-0.030
2020/01/31 18:54:28.8	74.680	0.610	-0.920	-0.040
2020/01/31 18:54:28.9	74.670	0.630	-0.910	-0.050
2020/01/31 18:54:29.0	74.660	0.640	-0.890	-0.050
2020/01/31 18:54:29.1	74.650	0.650	-0.860	-0.060
2020/01/31 18:54:29.2	74.640	0.660	-0.820	-0.060
2020/01/31 18:54:29.3	74.620	0.660	-0.780	-0.060
2020/01/31 18:54:29.4	74.610	0.660	-0.740	-0.050
2020/01/31 18:54:29.5	74.590	0.650	-0.690	-0.050
2020/01/31 18:54:29.6	74.580	0.640	-0.630	-0.040
2020/01/31 18:54:29.7	74.560	0.620	-0.570	-0.030
2020/01/31 18:54:29.8	74.550	0.600	-0.510	-0.020
2020/01/31 18:54:29.9	74.530	0.580	-0.440	-0.000
2020/01/31 18:54:30.0	74.510	0.550	-0.370	0.010
2020/01/31 18:54:30.1	74.490	0.520	-0.300	0.030
2020/01/31 18:54:30.2	74.460	0.480	-0.220	0.050
2020/01/31 18:54:30.3	74.440	0.440	-0.150	0.070
2020/01/31 18:54:30.4	74.410	0.400	-0.070	0.090
2020/01/31 18:54:30.5	74.390	0.360	0.000	0.120
2020/01/31 18:54:30.6	74.370	0.310	0.080	0.140
2020/01/31 18:54:30.7	74.340	0.270	0.150	0.160
2020/01/31 18:54:30.8	74.320	0.220	0.220	0.190
2020/01/31 18:54:30.9	74.290	0.170	0.290	0.210
2020/01/31 18:54:31.0	74.270	0.120	0.360	0.230
2020/01/31 18:54:31.1	74.250	0.070	0.420	0.260
2020/01/31 18:54:31.2	74.230	0.020	0.480	0.280
2020/01/31 18:54:31.3	74.210	-0.030	0.530	0.290
2020/01/31 18:54:31.4	74.200	-0.080	0.580	0.310
2020/01/31 18:54:31.5	74.180	-0.120	0.620	0.320
2020/01/31 18:54:31.6	74.170	-0.170	0.650	0.330
2020/01/31 18:54:31.7	74.160	-0.210	0.680	0.340
2020/01/31 18:54:31.8	74.160	-0.250	0.700	0.340
2020/01/31 18:54:31.9	74.150	-0.290	0.720	0.340
2020/01/31 18:54:32.0	74.150	-0.320	0.720	0.330
2020/01/31 18:54:32.1	74.150	-0.350	0.720	0.320
2020/01/31 18:54:32.2	74.160	-0.370	0.710	0.310
2020/01/31 18:54:32.3	74.160	-0.390	0.700	0.290
2020/01/31 18:54:32.4	74.170	-0.410	0.680	0.270
2020/01/31 18:54:32.5	74.180	-0.430	0.650	0.250
2020/01/31 18:54:32.6	74.180	-0.430	0.620	0.230
2020/01/31 18:54:32.7	74.190	-0.440	0.580	0.200
2020/01/31 18:54:32.8	74.210	-0.440	0.530	0.170
2020/01/31 18:54:32.9	74.220	-0.440	0.490	0.140
2020/01/31 18:54:33.0	74.230	-0.430	0.440	0.110
2020/01/31 18:54:33.1	74.240	-0.420	0.380	0.080
2020/01/31 18:54:33.2	74.250	-0.410	0.320	0.050
2020/01/31 18:54:33.3	74.270	-0.390	0.270	0.020
2020/01/31 18:54:33.4	74.280	-0.370	0.210	-0.020
2020/01/31 18:54:33.5	74.290	-0.350	0.150	-0.040
2020/01/31 18:54:33.6	74.300	-0.320	0.080	-0.070
2020/01/31 18:54:33.7	74.310	-0.300	0.020	-0.100
2020/01/31 18:54:33.8	74.320	-0.270	-0.030	-0.120
2020/01/31 18:54:33.9	74.330	-0.240	-0.090	-0.150
2020/01/31 18:54:34.0	74.340	-0.210	-0.150	-0.170
2020/01/31 18:54:34.1	74.350	-0.180	-0.210	-0.190
2020/01/31 18:54:34.2	74.360	-0.150	-0.260	-0.210
2020/01/31 18:54:34.3	74.370	-0.120	-0.310	-0.230
2020/01/31 18:54:34.4	74.380	-0.090	-0.360	-0.240
2020/01/31 18:54:34.5	74.390	-0.070	-0.400	-0.260
2020/01/31 18:54:34.6	74.400	-0.040	-0.440	-0.270
2020/01/31 18:54:34.7	74.410	-0.020	-0.480	-0.280
2020/01/31 18:54:34.8	74.430	0.000	-0.520	-0.280
2020/01/31 18:54:34.9	74.440	0.020	-0.550	-0.290
2020/01/31 18:54:35.0	74.450	0.040	-0.580	-0.290
2020/01/31 18:54:35.1	74.460	0.050	-0.600	-0.290
2020/01/31 18:54:35.2	74.470	0.060	-0.620	-0.290
2020/01/31 18:54:35.3	74.480	0.070	-0.640	-0.290
2020/01/31 18:54:35.4	74.490	0.070	-0.650	-0.280
2020/01/31 18:54:35.5	74.500	0.080	-0.660	-0.270
2020/01/31 18:54:35.6	74.510	0.080	-0.670	-0.260
2020/01/31 18:54:35.7	74.520	0.080	-0.670	-0.250
2020/01/31 18:54:35.8	74.540	0.070	-0.660	-0.230
2020/01/31 18:54:35.9	74.550	0.060	-0.650	-0.220
2020/01/31 18:54:36.0	74.560	0.050	-0.640	-0.200
2020/01/31 18:54:36.1	74.570	0.040	-0.620	-0.180
2020/01/31 18:54:36.2	74.580	0.030	-0.600	-0.150
2020/01/31 18:54:36.3	74.590	0.010	-0.580	-0.130
2020/01/31 18:54:36.4	74.600	-0.000	-0.550	-0.100
2020/01/31 18:54:36.5	74.610	-0.020	-0.520	-0.070
2020/01/31 18:54:36.6	74.610	-0.040	-0.490	-0.040
2020/01/31 18:54:36.7	74.610	-0.050	-0.450	-0.000
2020/01/31 18:54:36.8	74.620	-0.070	-0.410	0.040
2020/01/31 18:54:36.9	74.620	-0.090	-0.370	0.080
2020/01/31 18:54:37.0	74.610	-0.100	-0.330	0.120
2020/01/31 18:54:37.1	74.610	-0.120	-0.280	0.170
2020/01/31 18:54:37.2	74.600	-0.130	-0.230	0.220
2020/01/31 18:54:37.3	74.600	-0.150	-0.190	0.270
2020/01/31 18:54:37.4	74.590	-0.160	-0.140	0.320
2020/01/31 18:54:37.5	74.580	-0.170	-0.090	0.370
2020/01/31 18:54:37.6	74.570	-0.180	-0.040	0.430
2020/01/31 18:54:37.7	74.560	-0.180	0.000	0.480
2020/01/31 18:54:37.8	74.540	-0.190	0.050	0.540
2020/01/31 18:54:37.9	74.530	-0.190	0.090	0.590
2020/01/31 18:54:38.0	74.510	-0.190	0.130	0.640
2020/01/31 18:54:38.1	74.500	-0.190	0.160	0.690
2020/01/31 18:54:38.2	74.480	-0.180	0.190	0.740
2020/01/31 18:54:38.3	74.470	-0.180	0.220	0.790
2020/01/31 18:54:38.4	74.450	-0.170	0.240	0.840
2020/01/31 18:54:38.5	74.440	-0.160	0.250	0.880
2020/01/31 18:54:38.6	74.430	-0.150	0.260	0.920
2020/01/31 18:54:38.7	74.410	-0.140	0.260	0.960
2020/01/31 18:54:38.8	74.390	-0.120	0.260	0.990
2020/01/31 18:54:38.9	74.380	-0.110	0.250	1.020
2020/01/31 18:54:39.0	74.370	-0.090	0.230	1.050
2020/01/31 18:54:39.1	74.360	-0.070	0.210	1.070
2020/01/31 18:54:39.2	74.350	-0.050	0.180	1.090
2020/01/31 18:54:39.3	74.340	-0.030	0.140	1.110
2020/01/31 18:54:39.4	74.340	-0.010	0.100	1.120
2020/01/31 18:54:39.5	74.330	0.010	0.060	1.120
2020/01/31 18:54:39.6	74.330	0.030	0.010	1.130
2020/01/31 18:54:39.7	74.330	0.050	-0.050	1.120
2020/01/31 18:54:39.8	74.330	0.070	-0.110	1.120
2020/01/31 18:54:39.9	74.330	0.090	-0.170	1.110
2020/01/31 18:54:40.0	74.340	0.110	-0.230	1.090
2020/01/31 18:54:40.1	74.350	0.130	-0.290	1.070
2020/01/31 18:54:40.2	74.360	0.150	-0.360	1.050
2020/01/31 18:54:40.3	74.370	0.160	-0.420	1.020
2020/01/31 18:54:40.4	74.390	0.180	-0.490	0.990
2020/01/31 18:54:40.5	74.410	0.200	-0.550	0.950
2020/01/31 18:54:40.6	74.430	0.210	-0.610	0.920
2020/01/31 18:54:40.7	74.450	0.230	-0.670	0.880
2020/01/31 18:54:40.8	74.470	0.240	-0.720	0.830
2020/01/31 18:54:40.9	74.500	0.250	-0.770	0.790
2020/01/31 18:54:41.0	74.530	0.260	-0.810	0.750
2020/01/31 18:54:41.1	74.550	0.270	-0.840	0.710
2020/01/31 18:54:41.2	74.580	0.280	-0.870	0.670
2020/01/31 18:54:41.3	74.600	0.290	-0.900	0.630
2020/01/31 18:54:41.4	74.630	0.290	-0.910	0.590
2020/01/31 18:54:41.5	74.650	0.290	-0.920	0.550
2020/01/31 18:54:41.6	74.670	0.300	-0.910	0.520
2020/01/31 18:54:41.7	74.690	0.300	-0.900	0.490
2020/01/31 18:54:41.8	74.700	0.300	-0.880	0.460
2020/01/31 18:54:41.9	74.720	0.290	-0.860	0.440
2020/01/31 18:54:42.0	74.730	0.290	-0.820	0.420
2020/01/31 18:54:42.1	74.730	0.290	-0.780	0.400
2020/01/31 18:54:42.2	74.740	0.280	-0.730	0.380
2020/01/31 18:54:42.3	74.740	0.270	-0.670	0.370
2020/01/31 18:54:42.4	74.740	0.260	-0.610	0.360
2020/01/31 18:54:42.5	74.730	0.250	-0.540	0.350
2020/01/31 18:54:42.6	74.720	0.240	-0.470	0.350
2020/01/31 18:54:42.7	74.720	0.230	-0.400	0.340
2020/01/31 18:54:42.8	74.710	0.210	-0.320	0.340
2020/01/31 18:54:42.9	74.690	0.200	-0.250	0.340
2020/01/31 18:54:43.0	74.680	0.180	-0.170	0.340
2020/01/31 18:54:43.1	74.660	0.160	-0.090	0.340
2020/01/31 18:54:43.2	74.650	0.140	-0.020	0.340
2020/01/31 18:54:43.3	74.630	0.110	0.060	0.340
2020/01/31 18:54:43.4	74.620	0.090	0.130	0.330
2020/01/31 18:54:43.5	74.600	0.060	0.200	0.330
2020/01/31 18:54:43.6	74.590	0.030	0.260	0.320
2020/01/31 18:54:43.7	74.580	0.000	0.320	0.320
2020/01/31 18:54:43.8	74.570	-0.030	0.370	0.310
2020/01/31 18:54:43.9	74.560	-0.060	0.420	0.290
2020/01/31 18:54:44.0	74.550	-0.090	0.460	0.280
2020/01/31 18:54:44.1	74.540	-0.130	0.500	0.260
2020/01/31 18:54:44.2	74.540	-0.160	0.530	0.250
2020/01/31 18:54:44.3	74.530	-0.200	0.550	0.220
2020/01/31 18:54:44.4	74.530	-0.230	0.570	0.200
2020/01/31 18:54:44.5	74.540	-0.270	0.580	0.180
2020/01/31 18:54:44.6	74.540	-0.300	0.590	0.150
2020/01/31 18:54:44.7	74.550	-0.340	0.590	0.120
2020/01/31 18:54:44.8	74.550	-0.370	0.580	0.090
2020/01/31 18:54:44.9	74.560	-0.400	0.570	0.060
2020/01/31 18:54:45.0	74.570	-0.430	0.560	0.030
2020/01/31 18:54:45.1	74.580	-0.460	0.540	-0.010
2020/01/31 18:54:45.2	74.600	-0.490	0.520	-0.040
2020/01/31 18:54:45.3	74.610	-0.520	0.490	-0.070
2020/01/31 18:54:45.4	74.630	-0.540	0.460	-0.110
2020/01/31 18:54:45.5	74.640	-0.560	0.430	-0.140
2020/01/31 18:54:45.6	74.660	-0.570	0.390	-0.170
2020/01/31 18:54:45.7	74.680	-0.580	0.360	-0.200
2020/01/31 18:54:45.8	74.710	-0.590	0.320	-0.230
2020/01/31 18:54:45.9	74.730	-0.600	0.280	-0.260
2020/01/31 18:54:46.0	74.740	-0.600	0.240	-0.280
2020/01/31 18:54:46.1	74.760	-0.590	0.190	-0.310
2020/01/31 18:54:46.2	74.780	-0.580	0.150	-0.330
2020/01/31 18:54:46.3	74.790	-0.570	0.100	-0.350
2020/01/31 18:54:46.4	74.810	-0.560	0.050	-0.370
2020/01/31 18:54:46.5	74.820	-0.540	0.000	-0.380
2020/01/31 18:54:46.6	74.840	-0.510	-0.050	-0.390
2020/01/31 18:54:46.7	74.860	-0.480	-0.100	-0.410
2020/01/31 18:54:46.8	74.880	-0.450	-0.160	-0.410
2020/01/31 18:54:46.9	74.890	-0.410	-0.210	-0.420
2020/01/31 18:54:47.0	74.910	-0.380	-0.270	-0.420
2020/01/31 18:54:47.1	74.920	-0.330	-0.320	-0.430
2020/01/31 18:54:47.2	74.940	-0.290	-0.380	-0.430
2020/01/31 18:54:47.3	74.960	-0.240	-0.440	-0.430
2020/01/31 18:54:47.4	74.970	-0.190	-0.490	-0.430
2020/01/31 18:54:47.5	74.990	-0.140	-0.550	-0.430
2020/01/31 18:54:47.6	75.010	-0.090	-0.600	-0.430
2020/01/31 18:54:47.7	75.030	-0.030	-0.660	-0.420
2020/01/31 18:54:47.8	75.040	0.020	-0.710	-0.410
2020/01/31 18:54:47.9	75.060	0.080	-0.760	-0.410
2020/01/31 18:54:48.0	75.080	0.130	-0.810	-0.400
2020/01/31 18:54:48.1	75.100	0.180	-0.850	-0.390
2020/01/31 18:54:48.2	75.120	0.240	-0.890	-0.380
2020/01/31 18:54:48.3	75.140	0.290	-0.930	-0.370
2020/01/31 18:54:48.4	75.160	0.340	-0.960	-0.350
2020/01/31 18:54:48.5	75.180	0.390	-0.990	-0.340
2020/01/31 18:54:48.6	75.200	0.430	-1.010	-0.320
2020/01/31 18:54:48.7	75.220	0.470	-1.030	-0.300
2020/01/31 18:54:48.8	75.230	0.510	-1.040	-0.280
2020/01/31 18:54:48.9	75.250	0.550	-1.040	-0.260
2020/01/31 18:54:49.0	75.260	0.580	-1.040	-0.230
2020/01/31 18:54:49.1	75.270	0.600	-1.030	-0.200
2020/01/31 18:54:49.2	75.280	0.630	-1.020	-0.170
2020/01/31 18:54:49.3	75.290	0.650	-1.000	-0.140
2020/01/31 18:54:49.4	75.300	0.660	-0.970	-0.100
2020/01/31 18:54:49.5	75.300	0.670	-0.940	-0.060
2020/01/31 18:54:49.6	75.300	0.670	-0.900	-0.020
2020/01/31 18:54:49.7	75.300	0.670	-0.850	0.020
2020/01/31 18:54:49.8	75.310	0.670	-0.800	0.070
2020/01/31 18:54:49.9	75.300	0.660	-0.740	0.110
2020/01/31 18:54:50.0	75.300	0.640	-0.680	0.160
2020/01/31 18:54:50.1	75.290	0.630	-0.610	0.210
2020/01/31 18:54:50.2	75.280	0.600	-0.540	0.260
2020/01/31 18:54:50.3	75.270	0.580	-0.460	0.310
2020/01/31 18:54:50.4	75.250	0.550	-0.390	0.360
2020/01/31 18:54:50.5	75.240	0.510	-0.310	0.420
2020/01/31 18:54:50.6	75.230	0.480	-0.230	0.470
2020/01/31 18:54:50.7	75.210	0.430	-0.150	0.520
2020/01/31 18:54:50.8	75.190	0.390	-0.060	0.570
2020/01/31 18:54:50.9	75.180	0.350	0.020	0.620
2020/01/31 18:54:51.0	75.160	0.300	0.090	0.660
2020/01/31 18:54:51.1	75.150	0.250	0.170	0.710
2020/01/31 18:54:51.2	75.140	0.200	0.240	0.750
2020/01/31 18:54:51.3	75.130	0.150	0.300	0.800
2020/01/31 18:54:51.4	75.120	0.100	0.370	0.830
2020/01/31 18:54:51.5	75.120	0.050	0.420	0.870
2020/01/31 18:54:51.6	75.110	0.000	0.470	0.900
2020/01/31 18:54:51.7	75.110	-0.050	0.520	0.930
2020/01/31 18:54:51.8	75.110	-0.090	0.560	0.950
2020/01/31 18:54:51.9	75.110	-0.140	0.590	0.970
2020/01/31 18:54:52.0	75.120	-0.180	0.610	0.990
2020/01/31 18:54:52.1	75.120	-0.230	0.630	1.000
2020/01/31 18:54:52.2	75.130	-0.270	0.640	1.000
2020/01/31 18:54:52.3	75.140	-0.300	0.640	1.010
2020/01/31 18:54:52.4	75.160	-0.340	0.640	1.010
2020/01/31 18:54:52.5	75.170	-0.370	0.630	1.000
2020/01/31 18:54:52.6	75.190	-0.400	0.620	0.990
2020/01/31 18:54:52.7	75.200	-0.420	0.600	0.980
2020/01/31 18:54:52.8	75.220	-0.440	0.570	0.970
2020/01/31 18:54:52.9	75.240	-0.460	0.540	0.950
2020/01/31 18:54:53.0	75.260	-0.480	0.510	0.930
2020/01/31 18:54:53.1	75.280	-0.490	0.470	0.910
2020/01/31 18:54:53.2	75.290	-0.490	0.430	0.890
2020/01/31 18:54:53.3	75.310	-0.500	0.380	0.870
2020/01/31 18:54:53.4	75.330	-0.500	0.340	0.840
2020/01/31 18:54:53.5	75.350	-0.490	0.290	0.820
2020/01/31 18:54:53.6	75.360	-0.480	0.240	0.790
2020/01/31 18:54:53.7	75.380	-0.470	0.190	0.760
2020/01/31 18:54:53.8	75.390	-0.460	0.130	0.740
2020/01/31 18:54:53.9	75.410	-0.440	0.080	0.710
2020/01/31 18:54:54.0	75.420	-0.420	0.030	0.680
2020/01/31 18:54:54.1	75.440	-0.400	-0.020	0.650
2020/01/31 18:54:54.2	75.450	-0.380	-0.070	0.630
2020/01/31 18:54:54.3	75.470	-0.350	-0.110	0.600
2020/01/31 18:54:54.4	75.480	-0.320	-0.160	0.570
2020/01/31 18:54:54.5	75.500	-0.290	-0.200	0.550
2020/01/31 18:54:54.6	75.510	-0.260	-0.250	0.520
2020/01/31 18:54:54.7	75.530	-0.230	-0.290	0.500
2020/01/31 18:54:54.8	75.540	-0.190	-0.320	0.480
2020/01/31 18:54:54.9	75.550	-0.160	-0.360	0.450
2020/01/31 18:54:55.0	75.570	-0.130	-0.390	0.430
2020/01/31 18:54:55.1	75.580	-0.090	-0.420	0.410
2020/01/31 18:54:55.2	75.600	-0.060	-0.440	0.400
2020/01/31 18:54:55.3	75.610	-0.020	-0.470	0.380
2020/01/31 18:54:55.4	75.620	0.010	-0.490	0.370
2020/01/31 18:54:55.5	75.630	0.040	-0.510	0.360
2020/01/31 18:54:55.6	75.640	0.070	-0.520	0.350
2020/01/31 18:54:55.7	75.660	0.100	-0.540	0.350
2020/01/31 18:54:55.8	75.660	0.130	-0.550	0.340
2020/01/31 18:54:55.9	75.670	0.150	-0.550	0.340
2020/01/31 18:54:56.0	75.680	0.170	-0.560	0.340
2020/01/31 18:54:56.1	75.690	0.200	-0.560	0.350
2020/01/31 18:54:56.2	75.690	0.210	-0.560	0.350
2020/01/31 18:54:56.3	75.700	0.230	-0.560	0.360
2020/01/31 18:54:56.4	75.710	0.250	-0.550	0.380
2020/01/31 18:54:56.5	75.720	0.260	-0.550	0.390
2020/01/31 18:54:56.6	75.720	0.270	-0.540	0.400
2020/01/31 18:54:56.7	75.730	0.280	-0.530	0.420
2020/01/31 18:54:56.8	75.730	0.280	-0.520	0.450
2020/01/31 18:54:56.9	75.740	0.290	-0.510	0.460
2020/01/31 18:54:57.0	75.750	0.290	-0.500	0.480
2020/01/31 18:54:57.1	75.750	0.290	-0.490	0.500
2020/01/31 18:54:57.2	75.760	0.290	-0.470	0.520
2020/01/31 18:54:57.3	75.760	0.290	-0.460	0.540
2020/01/31 18:54:57.4	75.770	0.280	-0.450	0.560
2020/01/31 18:54:57.5	75.770	0.270	-0.440	0.570
2020/01/31 18:54:57.6	75.780	0.270	-0.430	0.580
2020/01/31 18:54:57.7	75.780	0.260	-0.420	0.600
2020/01/31 18:54:57.8	75.780	0.250	-0.410	0.600
2020/01/31 18:54:57.9	75.780	0.240	-0.400	0.610
2020/01/31 18:54:58.0	75.790	0.230	-0.390	0.620
2020/01/31 18:54:58.1	75.790	0.220	-0.390	0.630
2020/01/31 18:54:58.2	75.790	0.210	-0.380	0.630
2020/01/31 18:54:58.3	75.790	0.190	-0.370	0.630
2020/01/31 18:54:58.4	75.780	0.180	-0.360	0.640
2020/01/31 18:54:58.5	75.780	0.170	-0.350	0.640
2020/01/31 18:54:58.6	75.780	0.160	-0.340	0.630
2020/01/31 18:54:58.7	75.770	0.150	-0.330	0.630
2020/01/31 18:54:58.8	75.770	0.140	-0.310	0.630
2020/01/31 18:54:58.9	75.760	0.130	-0.300	0.630
2020/01/31 18:54:59.0	75.750	0.120	-0.290	0.620
2020/01/31 18:54:59.1	75.740	0.110	-0.280	0.620
2020/01/31 18:54:59.2	75.730	0.100	-0.260	0.610
2020/01/31 18:54:59.3	75.730	0.090	-0.250	0.610
2020/01/31 18:54:59.4	75.720	0.080	-0.230	0.600
2020/01/31 18:54:59.5	75.710	0.080	-0.220	0.590
2020/01/31 18:54:59.6	75.700	0.070	-0.200	0.580
2020/01/31 18:54:59.7	75.690	0.060	-0.190	0.570
2020/01/31 18:54:59.8	75.670	0.060	-0.170	0.560
2020/01/31 18:54:59.9	75.660	0.050	-0.150	0.550
2020/01/31 18:55:00.0	75.650	0.050	-0.140	0.540
2020/01/31 18:55:00.1	75.650	0.050	-0.120	0.520
2020/01/31 18:55:00.2	75.640	0.040	-0.110	0.510
2020/01/31 18:55:00.3	75.640	0.040	-0.090	0.500
2020/01/31 18:55:00.4	75.630	0.040	-0.070	0.480
2020/01/31 18:55:00.5	75.630	0.040	-0.060	0.470
2020/01/31 18:55:00.6	75.630	0.030	-0.040	0.450
2020/01/31 18:55:00.7	75.630	0.030	-0.030	0.440
2020/01/31 18:55:00.8	75.640	0.030	-0.010	0.430
2020/01/31 18:55:00.9	75.640	0.030	-0.000	0.410
2020/01/31 18:55:01.0	75.650	0.030	0.010	0.400
2020/01/31 18:55:01.1	75.660	0.030	0.020	0.380
2020/01/31 18:55:01.2	75.660	0.030	0.030	0.360
2020/01/31 18:55:01.3	75.670	0.030	0.040	0.350
2020/01/31 18:55:01.4	75.690	0.030	0.050	0.330
2020/01/31 18:55:01.5	75.700	0.030	0.060	0.310
2020/01/31 18:55:01.6	75.720	0.030	0.060	0.290
2020/01/31 18:55:01.7	75.730	0.030	0.060	0.260
2020/01/31 18:55:01.8	75.750	0.030	0.070	0.240
2020/01/31 18:55:01.9	75.770	0.020	0.060	0.210
2020/01/31 18:55:02.0	75.790	0.020	0.060	0.180
2020/01/31 18:55:02.1	75.820	0.020	0.060	0.160
2020/01/31 18:55:02.2	75.840	0.020	0.050	0.130
2020/01/31 18:55:02.3	75.860	0.020	0.040	0.100
2020/01/31 18:55:02.4	75.890	0.020	0.030	0.070
2020/01/31 18:55:02.5	75.920	0.010	0.020	0.040
2020/01/31 18:55:02.6	75.940	0.010	0.010	0.010
2020/01/31 18:55:02.7	75.970	0.010	-0.000	-0.020
2020/01/31 18:55:02.8	75.990	0.000	-0.010	-0.050
2020/01/31 18:55:02.9	76.020	-0.000	-0.020	-0.070
2020/01/31 18:55:03.0	76.040	-0.000	-0.030	-0.090
2020/01/31 18:55:03.1	76.070	-0.010	-0.040	-0.110
2020/01/31 18:55:03.2	76.090	-0.010	-0.050	-0.130
2020/01/31 18:55:03.3	76.110	-0.020	-0.060	-0.140
2020/01/31 18:55:03.4	76.130	-0.030	-0.070	-0.160
2020/01/31 18:55:03.5	76.140	-0.030	-0.070	-0.160
2020/01/31 18:55:03.6	76.160	-0.040	-0.080	-0.170
2020/01/31 18:55:03.7	76.170	-0.050	-0.080	-0.170
2020/01/31 18:55:03.8	76.190	-0.050	-0.080	-0.170
2020/01/31 18:55:03.9	76.200	-0.060	-0.080	-0.160
2020/01/31 18:55:04.0	76.210	-0.070	-0.080	-0.150
2020/01/31 18:55:04.1	76.220	-0.070	-0.080	-0.140
2020/01/31 18:55:04.2	76.230	-0.080	-0.080	-0.130
2020/01/31 18:55:04.3	76.230	-0.090	-0.080	-0.110
2020/01/31 18:55:04.4	76.230	-0.100	-0.070	-0.090
2020/01/31 18:55:04.5	76.230	-0.110	-0.070	-0.070
2020/01/31 18:55:04.6	76.230	-0.120	-0.070	-0.040
2020/01/31 18:55:04.7	76.230	-0.130	-0.060	-0.020
2020/01/31 18:55:04.8	76.220	-0.130	-0.060	0.010
2020/01/31 18:55:04.9	76.220	-0.140	-0.050	0.040
2020/01/31 18:55:05.0	76.210	-0.150	-0.050	0.080
2020/01/31 18:55:05.1	76.210	-0.160	-0.040	0.110
2020/01/31 18:55:05.2	76.200	-0.170	-0.040	0.150
2020/01/31 18:55:05.3	76.190	-0.180	-0.040	0.180
2020/01/31 18:55:05.4	76.180	-0.190	-0.040	0.220
2020/01/31 18:55:05.5	76.170	-0.200	-0.040	0.260
2020/01/31 18:55:05.6	76.160	-0.200	-0.040	0.290
2020/01/31 18:55:05.7	76.140	-0.210	-0.050	0.330
2020/01/31 18:55:05.8	76.130	-0.220	-0.050	0.370
2020/01/31 18:55:05.9	76.120	-0.230	-0.060	0.410
2020/01/31 18:55:06.0	76.110	-0.230	-0.060	0.450
2020/01/31 18:55:06.1	76.090	-0.240	-0.070	0.490
2020/01/31 18:55:06.2	76.080	-0.240	-0.080	0.520
2020/01/31 18:55:06.3	76.070	-0.250	-0.090	0.560
2020/01/31 18:55:06.4	76.060	-0.250	-0.100	0.600
2020/01/31 18:55:06.5	76.040	-0.250	-0.120	0.630
2020/01/31 18:55:06.6	76.030	-0.250	-0.130	0.660
2020/01/31 18:55:06.7	76.020	-0.250	-0.140	0.700
2020/01/31 18:55:06.8	76.000	-0.250	-0.160	0.730
2020/01/31 18:55:06.9	75.990	-0.250	-0.170	0.760
2020/01/31 18:55:07.0	75.990	-0.250	-0.190	0.780
2020/01/31 18:55:07.1	75.980	-0.240	-0.210	0.810
2020/01/31 18:55:07.2	75.970	-0.240	-0.220	0.830
2020/01/31 18:55:07.3	75.960	-0.230	-0.240	0.850
2020/01/31 18:55:07.4	75.960	-0.220	-0.260	0.870
2020/01/31 18:55:07.5	75.950	-0.210	-0.280	0.880
2020/01/31 18:55:07.6	75.950	-0.200	-0.300	0.900
2020/01/31 18:55:07.7	75.950	-0.190	-0.320	0.910
2020/01/31 18:55:07.8	75.950	-0.180	-0.330	0.920
2020/01/31 18:55:07.9	75.960	-0.160	-0.350	0.920
2020/01/31 18:55:08.0	75.960	-0.150	-0.370	0.920
2020/01/31 18:55:08.1	75.960	-0.130	-0.390	0.920
2020/01/31 18:55:08.2	75.970	-0.110	-0.410	0.920
2020/01/31 18:55:08.3	75.970	-0.090	-0.430	0.920
2020/01/31 18:55:08.4	75.980	-0.080	-0.450	0.910
2020/01/31 18:55:08.5	75.990	-0.060	-0.470	0.910
2020/01/31 18:55:08.6	75.990	-0.030	-0.480	0.900
2020/01/31 18:55:08.7	76.000	-0.010	-0.500	0.890
2020/01/31 18:55:08.8	76.000	0.010	-0.510	0.880
2020/01/31 18:55:08.9	76.010	0.030	-0.510	0.870
2020/01/31 18:55:09.0	76.020	0.050	-0.520	0.860
2020/01/31 18:55:09.1	76.030	0.070	-0.530	0.850
2020/01/31 18:55:09.2	76.040	0.090	-0.530	0.840
2020/01/31 18:55:09.3	76.050	0.110	-0.530	0.830
2020/01/31 18:55:09.4	76.050	0.130	-0.520	0.820
2020/01/31 18:55:09.5	76.060	0.150	-0.520	0.810
2020/01/31 18:55:09.6	76.070	0.170	-0.510	0.800
2020/01/31 18:55:09.7	76.070	0.190	-0.490	0.790
2020/01/31 18:55:09.8	76.070	0.200	-0.480	0.790
2020/01/31 18:55:09.9	76.070	0.220	-0.460	0.780
2020/01/31 18:55:10.0	76.070	0.230	-0.440	0.780
2020/01/31 18:55:10.1	76.080	0.250	-0.420	0.770
2020/01/31 18:55:10.2	76.080	0.260	-0.400	0.770
2020/01/31 18:55:10.3	76.080	0.270	-0.380	0.760
2020/01/31 18:55:10.4	76.080	0.280	-0.350	0.760
2020/01/31 18:55:10.5	76.090	0.290	-0.330	0.760
2020/01/31 18:55:10.6	76.090	0.290	-0.300	0.750
2020/01/31 18:55:10.7	76.090	0.300	-0.280	0.750
2020/01/31 18:55:10.8	76.090	0.300	-0.250	0.750
2020/01/31 18:55:10.9	76.090	0.310	-0.230	0.740
2020/01/31 18:55:11.0	76.100	0.310	-0.210	0.740
2020/01/31 18:55:11.1	76.100	0.310	-0.190	0.730
2020/01/31 18:55:11.2	76.110	0.310	-0.170	0.720
2020/01/31 18:55:11.3	76.110	0.310	-0.160	0.710
2020/01/31 18:55:11.4	76.120	0.310	-0.150	0.690
2020/01/31 18:55:11.5	76.120	0.310	-0.140	0.680
2020/01/31 18:55:11.6	76.130	0.300	-0.130	0.660
2020/01/31 18:55:11.7	76.140	0.300	-0.120	0.650
2020/01/31 18:55:11.8	76.150	0.290	-0.120	0.630
2020/01/31 18:55:11.9	76.160	0.290	-0.120	0.610
2020/01/31 18:55:12.0	76.170	0.280	-0.120	0.580
2020/01/31 18:55:12.1	76.180	0.270	-0.130	0.560
2020/01/31 18:55:12.2	76.190	0.270	-0.130	0.540
2020/01/31 18:55:12.3	76.200	0.260	-0.140	0.520
2020/01/31 18:55:12.4	76.210	0.250	-0.150	0.490
2020/01/31 18:55:12.5	76.220	0.250	-0.160	0.470
2020/01/31 18:55:12.6	76.230	0.240	-0.170	0.440
2020/01/31 18:55:12.7	76.240	0.230	-0.180	0.420
2020/01/31 18:55:12.8	76.250	0.230	-0.200	0.400
2020/01/31 18:55:12.9	76.260	0.220	-0.210	0.380
2020/01/31 18:55:13.0	76.260	0.210	-0.220	0.350
2020/01/31 18:55:13.1	76.260	0.210	-0.230	0.330
2020/01/31 18:55:13.2	76.260	0.200	-0.230	0.310
2020/01/31 18:55:13.3	76.260	0.190	-0.240	0.300
2020/01/31 18:55:13.4	76.260	0.190	-0.240	0.280
2020/01/31 18:55:13.5	76.260	0.180	-0.240	0.270
2020/01/31 18:55:13.6	76.250	0.180	-0.240	0.250
2020/01/31 18:55:13.7	76.240	0.170	-0.240	0.240
2020/01/31 18:55:13.8	76.230	0.170	-0.230	0.230
2020/01/31 18:55:13.9	76.210	0.160	-0.220	0.220
2020/01/31 18:55:14.0	76.200	0.160	-0.210	0.220
2020/01/31 18:55:14.1	76.190	0.150	-0.190	0.220
2020/01/31 18:55:14.2	76.170	0.150	-0.180	0.210
2020/01/31 18:55:14.3	76.150	0.140	-0.160	0.210
2020/01/31 18:55:14.4	76.140	0.140	-0.140	0.220
2020/01/31 18:55:14.5	76.120	0.140	-0.120	0.220
2020/01/31 18:55:14.6	76.100	0.130	-0.100	0.220
2020/01/31 18:55:14.7	76.080	0.130	-0.080	0.230
2020/01/31 18:55:14.8	76.060	0.120	-0.060	0.240
2020/01/31 18:55:14.9	76.040	0.110	-0.040	0.240
2020/01/31 18:55:15.0	76.030	0.110	-0.020	0.250
2020/01/31 18:55:15.1	76.010	0.100	0.000	0.260
2020/01/31 18:55:15.2	75.990	0.090	0.020	0.270
2020/01/31 18:55:15.3	75.980	0.080	0.040	0.270
2020/01/31 18:55:15.4	75.970	0.070	0.050	0.280
2020/01/31 18:55:15.5	75.960	0.050	0.070	0.290
2020/01/31 18:55:15.6	75.950	0.040	0.080	0.290
2020/01/31 18:55:15.7	75.940	0.030	0.090	0.300
2020/01/31 18:55:15.8	75.930	0.010	0.090	0.310
2020/01/31 18:55:15.9	75.930	-0.010	0.100	0.310
2020/01/31 18:55:16.0	75.930	-0.030	0.110	0.320
2020/01/31 18:55:16.1	75.930	-0.050	0.110	0.320
2020/01/31 18:55:16.2	75.930	-0.070	0.110	0.320
2020/01/31 18:55:16.3	75.930	-0.090	0.110	0.320
2020/01/31 18:55:16.4	75.930	-0.120	0.110	0.320
2020/01/31 18:55:16.5	75.940	-0.140	0.110	0.320
2020/01/31 18:55:16.6	75.950	-0.170	0.110	0.320
2020/01/31 18:55:16.7	75.960	-0.200	0.110	0.320
2020/01/31 18:55:16.8	75.970	-0.230	0.100	0.310
2020/01/31 18:55:16.9	75.990	-0.250	0.100	0.300
2020/01/31 18:55:17.0	76.000	-0.280	0.090	0.290
2020/01/31 18:55:17.1	76.010	-0.310	0.090	0.280
2020/01/31 18:55:17.2	76.030	-0.340	0.090	0.270
2020/01/31 18:55:17.3	76.050	-0.370	0.080	0.260
2020/01/31 18:55:17.4	76.060	-0.390	0.080	0.240
2020/01/31 18:55:17.5	76.080	-0.420	0.070	0.230
2020/01/31 18:55:17.6	76.090	-0.450	0.070	0.220
2020/01/31 18:55:17.7	76.110	-0.470	0.070	0.200
2020/01/31 18:55:17.8	76.120	-0.490	0.070	0.190
2020/01/31 18:55:17.9	76.140	-0.510	0.060	0.170
2020/01/31 18:55:18.0	76.150	-0.530	0.060	0.160
2020/01/31 18:55:18.1	76.160	-0.540	0.060	0.150
2020/01/31 18:55:18.2	76.180	-0.560	0.060	0.140
2020/01/31 18:55:18.3	76.190	-0.570	0.060	0.130
2020/01/31 18:55:18.4	76.200	-0.570	0.060	0.120
2020/01/31 18:55:18.5	76.200	-0.580	0.060	0.110
2020/01/31 18:55:18.6	76.210	-0.580	0.060	0.110
2020/01/31 18:55:18.7	76.220	-0.570	0.060	0.100
2020/01/31 18:55:18.8	76.220	-0.570	0.060	0.100
2020/01/31 18:55:18.9	76.220	-0.560	0.050	0.100
2020/01/31 18:55:19.0	76.230	-0.550	0.050	0.100
2020/01/31 18:55:19.1	76.230	-0.530	0.040	0.100
2020/01/31 18:55:19.2	76.230	-0.510	0.030	0.100
2020/01/31 18:55:19.3	76.240	-0.490	0.020	0.110
2020/01/31 18:55:19.4	76.240	-0.460	-0.000	0.120
2020/01/31 18:55:19.5	76.240	-0.430	-0.020	0.130
2020/01/31 18:55:19.6	76.240	-0.400	-0.040	0.130
2020/01/31 18:55:19.7	76.240	-0.360	-0.070	0.150
2020/01/31 18:55:19.8	76.240	-0.320	-0.090	0.160
2020/01/31 18:55:19.9	76.240	-0.280	-0.130	0.170
2020/01/31 18:55:20.0	76.250	-0.240	-0.160	0.190
2020/01/31 18:55:20.1	76.250	-0.190	-0.200	0.200
2020/01/31 18:55:20.2	76.250	-0.150	-0.230	0.210
2020/01/31 18:55:20.3	76.250	-0.100	-0.280	0.230
2020/01/31 18:55:20.4	76.250	-0.050	-0.320	0.250
2020/01/31 18:55:20.5	76.250	-0.010	-0.360	0.260
2020/01/31 18:55:20.6	76.250	0.040	-0.410	0.280
2020/01/31 18:55:20.7	76.250	0.090	-0.460	0.300
2020/01/31 18:55:20.8	76.260	0.140	-0.500	0.320
2020/01/31 18:55:20.9	76.260	0.180	-0.550	0.340
2020/01/31 18:55:21.0	76.260	0.230	-0.600	0.360
2020/01/31 18:55:21.1	76.260	0.270	-0.640	0.390
2020/01/31 18:55:21.2	76.260	0.310	-0.690	0.410
2020/01/31 18:55:21.3	76.260	0.350	-0.730	0.440
2020/01/31 18:55:21.4	76.260	0.380	-0.770	0.470
2020/01/31 18:55:21.5	76.260	0.410	-0.800	0.500
2020/01/31 18:55:21.6	76.260	0.440	-0.840	0.530
2020/01/31 18:55:21.7	76.260	0.470	-0.870	0.560
2020/01/31 18:55:21.8	76.260	0.490	-0.890	0.590
2020/01/31 18:55:21.9	76.260	0.510	-0.920	0.620
2020/01/31 18:55:22.0	76.260	0.530	-0.930	0.650
2020/01/31 18:55:22.1	76.260	0.540	-0.940	0.690
2020/01/31 18:55:22.2	76.260	0.550	-0.950	0.720
2020/01/31 18:55:22.3	76.260	0.550	-0.950	0.750
2020/01/31 18:55:22.4	76.270	0.560	-0.950	0.780
2020/01/31 18:55:22.5	76.270	0.560	-0.940	0.800
2020/01/31 18:55:22.6	76.270	0.550	-0.930	0.830
2020/01/31 18:55:22.7	76.280	0.540	-0.920	0.850
2020/01/31 18:55:22.8	76.270	0.530	-0.890	0.870
2020/01/31 18:55:22.9	76.280	0.520	-0.860	0.890
2020/01/31 18:55:23.0	76.280	0.500	-0.830	0.910
2020/01/31 18:55:23.1	76.290	0.480	-0.800	0.930
2020/01/31 18:55:23.2	76.290	0.460	-0.760	0.940
2020/01/31 18:55:23.3	76.300	0.440	-0.710	0.960
2020/01/31 18:55:23.4	76.300	0.410	-0.660	0.970
2020/01/31 18:55:23.5	76.310	0.380	-0.600	0.980
2020/01/31 18:55:23.6	76.310	0.350	-0.550	0.980
2020/01/31 18:55:23.7	76.310	0.320	-0.480	0.990
2020/01/31 18:55:23.8	76.300	0.280	-0.410	1.000
2020/01/31 18:55:23.9	76.300	0.250	-0.340	1.000
2020/01/31 18:55:24.0	76.290	0.210	-0.270	1.000
2020/01/31 18:55:24.1	76.290	0.180	-0.200	1.000
2020/01/31 18:55:24.2	76.280	0.140	-0.120	1.000
2020/01/31 18:55:24.3	76.270	0.100	-0.050	1.000
2020/01/31 18:55:24.4	76.260	0.060	0.030	1.000
2020/01/31 18:55:24.5	76.240	0.020	0.110	1.000
2020/01/31 18:55:24.6	76.220	-0.020	0.190	0.990
2020/01/31 18:55:24.7	76.200	-0.060	0.270	0.990
2020/01/31 18:55:24.8	76.180	-0.100	0.340	0.980
2020/01/31 18:55:24.9	76.160	-0.140	0.420	0.970
2020/01/31 18:55:25.0	76.140	-0.170	0.490	0.970
2020/01/31 18:55:25.1	76.110	-0.210	0.550	0.960
2020/01/31 18:55:25.2	76.090	-0.250	0.620	0.950
2020/01/31 18:55:25.3	76.060	-0.280	0.680	0.940
2020/01/31 18:55:25.4	76.030	-0.310	0.730	0.930
2020/01/31 18:55:25.5	76.010	-0.340	0.780	0.910
2020/01/31 18:55:25.6	75.980	-0.370	0.820	0.900
2020/01/31 18:55:25.7	75.960	-0.400	0.850	0.890
2020/01/31 18:55:25.8	75.940	-0.420	0.880	0.870
2020/01/31 18:55:25.9	75.920	-0.440	0.900	0.850
2020/01/31 18:55:26.0	75.900	-0.460	0.920	0.830
2020/01/31 18:55:26.1	75.870	-0.480	0.920	0.810
2020/01/31 18:55:26.2	75.860	-0.490	0.920	0.790
2020/01/31 18:55:26.3	75.840	-0.500	0.910	0.760
2020/01/31 18:55:26.4	75.830	-0.510	0.890	0.730
2020/01/31 18:55:26.5	75.810	-0.510	0.860	0.700
2020/01/31 18:55:26.6	75.800	-0.510	0.830	0.670
2020/01/31 18:55:26.7	75.800	-0.510	0.790	0.630
2020/01/31 18:55:26.8	75.790	-0.510	0.740	0.590
2020/01/31 18:55:26.9	75.790	-0.500	0.690	0.550
2020/01/31 18:55:27.0	75.790	-0.490	0.630	0.510
2020/01/31 18:55:27.1	75.790	-0.470	0.560	0.470
2020/01/31 18:55:27.2	75.800	-0.460	0.490	0.420
2020/01/31 18:55:27.3	75.810	-0.440	0.410	0.370
2020/01/31 18:55:27.4	75.820	-0.420	0.330	0.320
2020/01/31 18:55:27.5	75.830	-0.390	0.250	0.260
2020/01/31 18:55:27.6	75.840	-0.360	0.160	0.210
2020/01/31 18:55:27.7	75.860	-0.340	0.070	0.150
2020/01/31 18:55:27.8	75.890	-0.300	-0.020	0.090
2020/01/31 18:55:27.9	75.910	-0.270	-0.120	0.030
2020/01/31 18:55:28.0	75.930	-0.240	-0.210	-0.040
2020/01/31 18:55:28.1	75.950	-0.200	-0.310	-0.100
2020/01/31 18:55:28.2	75.970	-0.160	-0.400	-0.160
2020/01/31 18:55:28.3	75.990	-0.120	-0.500	-0.230
2020/01/31 18:55:28.4	76.010	-0.080	-0.590	-0.290
2020/01/31 18:55:28.5	76.040	-0.040	-0.680	-0.350
2020/01/31 18:55:28.6	76.060	0.010	-0.760	-0.420
2020/01/31 18:55:28.7	76.080	0.050	-0.850	-0.470
2020/01/31 18:55:28.8	76.090	0.090	-0.930	-0.530
2020/01/31 18:55:28.9	76.110	0.140	-1.000	-0.590
2020/01/31 18:55:29.0	76.130	0.180	-1.070	-0.640
2020/01/31 18:55:29.1	76.150	0.230	-1.130	-0.690
2020/01/31 18:55:29.2	76.160	0.270	-1.180	-0.730
2020/01/31 18:55:29.3	76.180	0.310	-1.230	-0.770
2020/01/31 18:55:29.4	76.200	0.350	-1.280	-0.810
2020/01/31 18:55:29.5	76.220	0.400	-1.310	-0.840
2020/01/31 18:55:29.6	76.230	0.430	-1.340	-0.870
2020/01/31 18:55:29.7	76.250	0.470	-1.370	-0.890
2020/01/31 18:55:29.8	76.260	0.510	-1.380	-0.910
2020/01/31 18:55:29.9	76.280	0.540	-1.390	-0.920
2020/01/31 18:55:30.0	76.290	0.570	-1.390	-0.930
2020/01/31 18:55:30.1	76.310	0.600	-1.390	-0.930
2020/01/31 18:55:30.2	76.320	0.620	-1.380	-0.930
2020/01/31 18:55:30.3	76.340	0.640	-1.360	-0.920
2020/01/31 18:55:30.4	76.350	0.660	-1.330	-0.910
2020/01/31 18:55:30.5	76.370	0.680	-1.300	-0.890
2020/01/31 18:55:30.6	76.380	0.690	-1.260	-0.870
2020/01/31 18:55:30.7	76.390	0.690	-1.220	-0.840
2020/01/31 18:55:30.8	76.400	0.700	-1.170	-0.800
2020/01/31 18:55:30.9	76.410	0.690	-1.120	-0.760
2020/01/31 18:55:31.0	76.430	0.690	-1.060	-0.720
2020/01/31 18:55:31.1	76.440	0.680	-0.990	-0.680
2020/01/31 18:55:31.2	76.450	0.660	-0.920	-0.620
2020/01/31 18:55:31.3	76.460	0.640	-0.840	-0.570
2020/01/31 18:55:31.4	76.470	0.620	-0.760	-0.510
2020/01/31 18:55:31.5	76.470	0.590	-0.680	-0.450
2020/01/31 18:55:31.6	76.480	0.560	-0.590	-0.380
2020/01/31 18:55:31.7	76.480	0.520	-0.500	-0.320
2020/01/31 18:55:31.8	76.490	0.480	-0.400	-0.240
2020/01/31 18:55:31.9	76.490	0.440	-0.310	-0.170
2020/01/31 18:55:32.0	76.490	0.390	-0.210	-0.100
2020/01/31 18:55:32.1	76.480	0.340	-0.110	-0.020
2020/01/31 18:55:32.2	76.480	0.280	-0.010	0.050
2020/01/31 18:55:32.3	76.470	0.230	0.090	0.130
2020/01/31 18:55:32.4	76.460	0.170	0.190	0.210
2020/01/31 18:55:32.5	76.450	0.110	0.290	0.280
2020/01/31 18:55:32.6	76.440	0.050	0.380	0.360
2020/01/31 18:55:32.7	76.430	-0.020	0.480	0.430
2020/01/31 18:55:32.8	76.410	-0.080	0.570	0.510
2020/01/31 18:55:32.9	76.390	-0.140	0.660	0.580
2020/01/31 18:55:33.0	76.370	-0.200	0.740	0.650
2020/01/31 18:55:33.1	76.350	-0.260	0.820	0.720
2020/01/31 18:55:33.2	76.320	-0.320	0.890	0.790
2020/01/31 18:55:33.3	76.300	-0.380	0.960	0.850
2020/01/31 18:55:33.4	76.270	-0.430	1.020	0.920
2020/01/31 18:55:33.5	76.250	-0.480	1.080	0.980
2020/01/31 18:55:33.6	76.220	-0.530	1.130	1.040
2020/01/31 18:55:33.7	76.190	-0.580	1.170	1.090
2020/01/31 18:55:33.8	76.160	-0.620	1.210	1.150
2020/01/31 18:55:33.9	76.140	-0.650	1.240	1.200
2020/01/31 18:55:34.0	76.110	-0.680	1.250	1.240
2020/01/31 18:55:34.1	76.080	-0.710	1.270	1.290
2020/01/31 18:55:34.2	76.060	-0.730	1.270	1.330
2020/01/31 18:55:34.3	76.030	-0.750	1.260	1.370
2020/01/31 18:55:34.4	76.010	-0.760	1.250	1.410
2020/01/31 18:55:34.5	75.990	-0.770	1.220	1.440
2020/01/31 18:55:34.6	75.970	-0.780	1.190	1.470
2020/01/31 18:55:34.7	75.950	-0.770	1.150	1.490
2020/01/31 18:55:34.8	75.940	-0.770	1.100	1.510
2020/01/31 18:55:34.9	75.930	-0.760	1.040	1.530
2020/01/31 18:55:35.0	75.920	-0.740	0.980	1.540
2020/01/31 18:55:35.1	75.910	-0.730	0.900	1.540
2020/01/31 18:55:35.2	75.910	-0.700	0.820	1.540
2020/01/31 18:55:35.3	75.910	-0.680	0.740	1.540
2020/01/31 18:55:35.4	75.910	-0.650	0.650	1.530
2020/01/31 18:55:35.5	75.910	-0.620	0.550	1.520
2020/01/31 18:55:35.6	75.920	-0.580	0.450	1.500
2020/01/31 18:55:35.7	75.930	-0.550	0.350	1.480
2020/01/31 18:55:35.8	75.940	-0.510	0.240	1.450
2020/01/31 18:55:35.9	75.950	-0.470	0.130	1.420
2020/01/31 18:55:36.0	75.970	-0.430	0.020	1.390
2020/01/31 18:55:36.1	75.980	-0.390	-0.090	1.350
2020/01/31 18:55:36.2	76.000	-0.350	-0.200	1.310
2020/01/31 18:55:36.3	76.020	-0.310	-0.310	1.270
2020/01/31 18:55:36.4	76.030	-0.270	-0.410	1.220
2020/01/31 18:55:36.5	76.050	-0.230	-0.510	1.170
2020/01/31 18:55:36.6	76.070	-0.180	-0.610	1.120
2020/01/31 18:55:36.7	76.090	-0.140	-0.710	1.070
2020/01/31 18:55:36.8	76.110	-0.100	-0.800	1.010
2020/01/31 18:55:36.9	76.130	-0.060	-0.890	0.950
2020/01/31 18:55:37.0	76.150	-0.030	-0.970	0.890
2020/01/31 18:55:37.1	76.170	0.010	-1.050	0.830
2020/01/31 18:55:37.2	76.190	0.050	-1.120	0.770
2020/01/31 18:55:37.3	76.210	0.080	-1.180	0.710
2020/01/31 18:55:37.4	76.230	0.120	-1.240	0.640
2020/01/31 18:55:37.5	76.260	0.150	-1.300	0.580
2020/01/31 18:55:37.6	76.280	0.180	-1.340	0.520
2020/01/31 18:55:37.7	76.300	0.220	-1.380	0.450
2020/01/31 18:55:37.8	76.310	0.250	-1.420	0.390
2020/01/31 18:55:37.9	76.330	0.280	-1.440	0.330
2020/01/31 18:55:38.0	76.350	0.310	-1.460	0.270
2020/01/31 18:55:38.1	76.370	0.330	-1.480	0.210
2020/01/31 18:55:38.2	76.390	0.360	-1.490	0.150
2020/01/31 18:55:38.3	76.410	0.390	-1.490	0.100
2020/01/31 18:55:38.4	76.430	0.420	-1.480	0.050
2020/01/31 18:55:38.5	76.450	0.440	-1.470	0.000
2020/01/31 18:55:38.6	76.470	0.470	-1.460	-0.040
2020/01/31 18:55:38.7	76.480	0.500	-1.430	-0.080
2020/01/31 18:55:38.8	76.490	0.520	-1.400	-0.120
2020/01/31 18:55:38.9	76.500	0.550	-1.370	-0.150
2020/01/31 18:55:39.0	76.510	0.570	-1.330	-0.180
2020/01/31 18:55:39.1	76.520	0.590	-1.290	-0.200
2020/01/31 18:55:39.2	76.530	0.610	-1.240	-0.210
2020/01/31 18:55:39.3	76.540	0.630	-1.180	-0.220
2020/01/31 18:55:39.4	76.550	0.650	-1.120	-0.230
2020/01/31 18:55:39.5	76.550	0.660	-1.060	-0.220
2020/01/31 18:55:39.6	76.550	0.670	-0.990	-0.210
2020/01/31 18:55:39.7	76.550	0.680	-0.920	-0.200
2020/01/31 18:55:39.8	76.530	0.690	-0.840	-0.180
2020/01/31 18:55:39.9	76.520	0.690	-0.760	-0.160
2020/01/31 18:55:40.0	76.510	0.690	-0.680	-0.130
2020/01/31 18:55:40.1	76.490	0.680	-0.590	-0.090
2020/01/31 18:55:40.2	76.470	0.670	-0.500	-0.050
2020/01/31 18:55:40.3	76.450	0.660	-0.400	-0.010
2020/01/31 18:55:40.4	76.420	0.640	-0.310	0.040
2020/01/31 18:55:40.5	76.390	0.620	-0.210	0.090
2020/01/31 18:55:40.6	76.360	0.590	-0.110	0.150
2020/01/31 18:55:40.7	76.320	0.560	-0.010	0.200
2020/01/31 18:55:40.8	76.290	0.520	0.090	0.270
2020/01/31 18:55:40.9	76.250	0.480	0.180	0.330
2020/01/31 18:55:41.0	76.200	0.430	0.280	0.390
2020/01/31 18:55:41.1	76.160	0.380	0.380	0.460
2020/01/31 18:55:41.2	76.110	0.330	0.470	0.520
2020/01/31 18:55:41.3	76.070	0.270	0.560	0.580
2020/01/31 18:55:41.4	76.020	0.210	0.640	0.640
2020/01/31 18:55:41.5	75.970	0.150	0.720	0.700
2020/01/31 18:55:41.6	75.930	0.080	0.790	0.760
2020/01/31 18:55:41.7	75.890	0.020	0.860	0.810
2020/01/31 18:55:41.8	75.850	-0.050	0.930	0.860
2020/01/31 18:55:41.9	75.810	-0.120	0.980	0.910
2020/01/31 18:55:42.0	75.770	-0.190	1.020	0.950
2020/01/31 18:55:42.1	75.740	-0.250	1.060	0.980
2020/01/31 18:55:42.2	75.700	-0.320	1.090	1.010
2020/01/31 18:55:42.3	75.680	-0.390	1.110	1.040
2020/01/31 18:55:42.4	75.650	-0.450	1.120	1.060
2020/01/31 18:55:42.5	75.630	-0.510	1.120	1.070
2020/01/31 18:55:42.6	75.610	-0.570	1.120	1.080
2020/01/31 18:55:42.7	75.600	-0.620	1.100	1.080
2020/01/31 18:55:42.8	75.600	-0.670	1.070	1.070
2020/01/31 18:55:42.9	75.600	-0.710	1.040	1.060
2020/01/31 18:55:43.0	75.600	-0.750	0.990	1.050
2020/01/31 18:55:43.1	75.600	-0.780	0.940	1.030
2020/01/31 18:55:43.2	75.600	-0.810	0.880	1.000
2020/01/31 18:55:43.3	75.610	-0.830	0.810	0.970
2020/01/31 18:55:43.4	75.630	-0.850	0.740	0.940
2020/01/31 18:55:43.5	75.640	-0.850	0.660	0.900
2020/01/31 18:55:43.6	75.660	-0.850	0.570	0.860
2020/01/31 18:55:43.7	75.680	-0.850	0.480	0.820
2020/01/31 18:55:43.8	75.710	-0.840	0.390	0.780
2020/01/31 18:55:43.9	75.730	-0.820	0.290	0.740
2020/01/31 18:55:44.0	75.760	-0.800	0.190	0.690
2020/01/31 18:55:44.1	75.790	-0.770	0.080	0.650
2020/01/31 18:55:44.2	75.820	-0.730	-0.020	0.600
2020/01/31 18:55:44.3	75.850	-0.690	-0.130	0.550
2020/01/31 18:55:44.4	75.880	-0.640	-0.230	0.510
2020/01/31 18:55:44.5	75.910	-0.590	-0.330	0.460
2020/01/31 18:55:44.6	75.950	-0.540	-0.440	0.420
2020/01/31 18:55:44.7	75.980	-0.480	-0.540	0.370
2020/01/31 18:55:44.8	76.010	-0.420	-0.630	0.330
2020/01/31 18:55:44.9	76.040	-0.350	-0.720	0.290
2020/01/31 18:55:45.0	76.060	-0.280	-0.810	0.260
2020/01/31 18:55:45.1	76.090	-0.220	-0.890	0.220
2020/01/31 18:55:45.2	76.120	-0.150	-0.960	0.190
2020/01/31 18:55:45.3	76.140	-0.080	-1.030	0.160
2020/01/31 18:55:45.4	76.160	-0.010	-1.090	0.130
2020/01/31 18:55:45.5	76.180	0.060	-1.150	0.110
2020/01/31 18:55:45.6	76.200	0.130	-1.190	0.090
2020/01/31 18:55:45.7	76.210	0.190	-1.230	0.070
2020/01/31 18:55:45.8	76.220	0.260	-1.260	0.060
2020/01/31 18:55:45.9	76.230	0.320	-1.280	0.050
2020/01/31 18:55:46.0	76.230	0.370	-1.300	0.040
2020/01/31 18:55:46.1	76.230	0.430	-1.300	0.030
2020/01/31 18:55:46.2	76.230	0.480	-1.300	0.030
2020/01/31 18:55:46.3	76.230	0.520	-1.290	0.030
2020/01/31 18:55:46.4	76.230	0.560	-1.270	0.030
2020/01/31 18:55:46.5	76.220	0.600	-1.250	0.040
2020/01/31 18:55:46.6	76.210	0.630	-1.220	0.040
2020/01/31 18:55:46.7	76.190	0.660	-1.180	0.050
2020/01/31 18:55:46.8	76.170	0.680	-1.130	0.060
2020/01/31 18:55:46.9	76.150	0.700	-1.080	0.070
2020/01/31 18:55:47.0	76.130	0.710	-1.020	0.090
2020/01/31 18:55:47.1	76.110	0.720	-0.960	0.110
2020/01/31 18:55:47.2	76.080	0.720	-0.900	0.120
2020/01/31 18:55:47.3	76.060	0.710	-0.830	0.140
2020/01/31 18:55:47.4	76.030	0.700	-0.750	0.170
2020/01/31 18:55:47.5	76.000	0.690	-0.680	0.190
2020/01/31 18:55:47.6	75.970	0.670	-0.600	0.210
2020/01/31 18:55:47.7	75.940	0.650	-0.520	0.230
2020/01/31 18:55:47.8	75.900	0.620	-0.440	0.260
2020/01/31 18:55:47.9	75.870	0.600	-0.360	0.290
2020/01/31 18:55:48.0	75.830	0.560	-0.280	0.310
2020/01/31 18:55:48.1	75.790	0.530	-0.200	0.340
2020/01/31 18:55:48.2	75.760	0.490	-0.120	0.360
2020/01/31 18:55:48.3	75.720	0.450	-0.040	0.380
2020/01/31 18:55:48.4	75.690	0.410	0.040	0.410
2020/01/31 18:55:48.5	75.650	0.360	0.110	0.430
2020/01/31 18:55:48.6	75.610	0.320	0.180	0.460
2020/01/31 18:55:48.7	75.580	0.270	0.250	0.480
2020/01/31 18:55:48.8	75.540	0.220	0.310	0.500
2020/01/31 18:55:48.9	75.510	0.180	0.380	0.520
2020/01/31 18:55:49.0	75.480	0.130	0.430	0.540
2020/01/31 18:55:49.1	75.440	0.080	0.480	0.560
2020/01/31 18:55:49.2	75.410	0.030	0.530	0.580
2020/01/31 18:55:49.3	75.380	-0.010	0.570	0.600
2020/01/31 18:55:49.4	75.350	-0.060	0.610	0.610
2020/01/31 18:55:49.5	75.320	-0.100	0.650	0.630
2020/01/31 18:55:49.6	75.300	-0.140	0.680	0.650
2020/01/31 18:55:49.7	75.270	-0.180	0.700	0.660
2020/01/31 18:55:49.8	75.250	-0.220	0.720	0.680
2020/01/31 18:55:49.9	75.230	-0.260	0.740	0.690
2020/01/31 18:55:50.0	75.210	-0.300	0.750	0.700
2020/01/31 18:55:50.1	75.190	-0.330	0.750	0.710
2020/01/31 18:55:50.2	75.170	-0.360	0.750	0.720
2020/01/31 18:55:50.3	75.160	-0.390	0.750	0.740
2020/01/31 18:55:50.4	75.140	-0.420	0.740	0.750
2020/01/31 18:55:50.5	75.130	-0.450	0.730	0.760
2020/01/31 18:55:50.6	75.120	-0.470	0.710	0.760
2020/01/31 18:55:50.7	75.110	-0.490	0.680	0.770
2020/01/31 18:55:50.8	75.120	-0.500	0.660	0.780
2020/01/31 18:55:50.9	75.110	-0.520	0.620	0.790
2020/01/31 18:55:51.0	75.110	-0.530	0.590	0.790
2020/01/31 18:55:51.1	75.110	-0.530	0.540	0.790
2020/01/31 18:55:51.2	75.110	-0.540	0.500	0.800
2020/01/31 18:55:51.3	75.120	-0.540	0.450	0.800
2020/01/31 18:55:51.4	75.120	-0.540	0.390	0.790
2020/01/31 18:55:51.5	75.130	-0.540	0.340	0.790
2020/01/31 18:55:51.6	75.130	-0.530	0.280	0.780
2020/01/31 18:55:51.7	75.140	-0.520	0.210	0.780
2020/01/31 18:55:51.8	75.160	-0.510	0.150	0.770
2020/01/31 18:55:51.9	75.170	-0.490	0.080	0.760
2020/01/31 18:55:52.0	75.180	-0.480	0.010	0.740
2020/01/31 18:55:52.1	75.190	-0.460	-0.060	0.730
2020/01/31 18:55:52.2	75.200	-0.440	-0.130	0.710
2020/01/31 18:55:52.3	75.210	-0.410	-0.200	0.700
2020/01/31 18:55:52.4	75.220	-0.390	-0.270	0.680
2020/01/31 18:55:52.5	75.230	-0.360	-0.330	0.660
2020/01/31 18:55:52.6	75.240	-0.340	-0.400	0.640
2020/01/31 18:55:52.7	75.240	-0.310	-0.470	0.620
2020/01/31 18:55:52.8	75.260	-0.280	-0.530	0.600
2020/01/31 18:55:52.9	75.260	-0.250	-0.590	0.580
2020/01/31 18:55:53.0	75.270	-0.220	-0.650	0.560
2020/01/31 18:55:53.1	75.270	-0.180	-0.700	0.540
2020/01/31 18:55:53.2	75.270	-0.150	-0.750	0.520
2020/01/31 18:55:53.3	75.270	-0.120	-0.800	0.500
2020/01/31 18:55:53.4	75.280	-0.080	-0.850	0.490
2020/01/31 18:55:53.5	75.270	-0.050	-0.890	0.470
2020/01/31 18:55:53.6	75.270	-0.020	-0.920	0.450
2020/01/31 18:55:53.7	75.270	0.010	-0.950	0.440
2020/01/31 18:55:53.8	75.270	0.040	-0.980	0.420
2020/01/31 18:55:53.9	75.260	0.070	-1.000	0.410
2020/01/31 18:55:54.0	75.260	0.100	-1.020	0.400
2020/01/31 18:55:54.1	75.250	0.130	-1.040	0.390
2020/01/31 18:55:54.2	75.240	0.160	-1.050	0.390
2020/01/31 18:55:54.3	75.230	0.190	-1.050	0.390
2020/01/31 18:55:54.4	75.220	0.210	-1.050	0.380
2020/01/31 18:55:54.5	75.210	0.230	-1.050	0.390
2020/01/31 18:55:54.6	75.200	0.260	-1.040	0.390
2020/01/31 18:55:54.7	75.180	0.280	-1.030	0.400
2020/01/31 18:55:54.8	75.170	0.290	-1.010	0.410
2020/01/31 18:55:54.9	75.150	0.310	-0.990	0.420
2020/01/31 18:55:55.0	75.130	0.320	-0.970	0.430
2020/01/31 18:55:55.1	75.110	0.340	-0.940	0.450
2020/01/31 18:55:55.2	75.100	0.350	-0.900	0.460
2020/01/31 18:55:55.3	75.080	0.350	-0.870	0.480
2020/01/31 18:55:55.4	75.050	0.360	-0.830	0.500
2020/01/31 18:55:55.5	75.030	0.360	-0.780	0.520
2020/01/31 18:55:55.6	75.010	0.370	-0.730	0.540
2020/01/31 18:55:55.7	74.990	0.370	-0.680	0.560
2020/01/31 18:55:55.8	74.970	0.370	-0.630	0.580
2020/01/31 18:55:55.9	74.940	0.360	-0.570	0.600
2020/01/31 18:55:56.0	74.920	0.360	-0.510	0.620
2020/01/31 18:55:56.1	74.890	0.350	-0.450	0.630
2020/01/31 18:55:56.2	74.870	0.340	-0.390	0.650
2020/01/31 18:55:56.3	74.840	0.340	-0.330	0.660
2020/01/31 18:55:56.4	74.820	0.330	-0.260	0.670
2020/01/31 18:55:56.5	74.790	0.320	-0.200	0.680
2020/01/31 18:55:56.6	74.770	0.300	-0.140	0.690
2020/01/31 18:55:56.7	74.740	0.290	-0.070	0.690
2020/01/31 18:55:56.8	74.710	0.280	-0.010	0.690
2020/01/31 18:55:56.9	74.690	0.270	0.050	0.680
2020/01/31 18:55:57.0	74.660	0.250	0.110	0.680
2020/01/31 18:55:57.1	74.630	0.240	0.170	0.670
2020/01/31 18:55:57.2	74.610	0.230	0.230	0.650
2020/01/31 18:55:57.3	74.580	0.220	0.280	0.640
2020/01/31 18:55:57.4	74.550	0.200	0.330	0.620
2020/01/31 18:55:57.5	74.530	0.190	0.380	0.600
2020/01/31 18:55:57.6	74.500	0.180	0.430	0.580
2020/01/31 18:55:57.7	74.470	0.170	0.470	0.550
2020/01/31 18:55:57.8	74.440	0.160	0.510	0.520
2020/01/31 18:55:57.9	74.410	0.150	0.550	0.490
2020/01/31 18:55:58.0	74.380	0.140	0.580	0.450
2020/01/31 18:55:58.1	74.360	0.130	0.600	0.420
2020/01/31 18:55:58.2	74.330	0.120	0.620	0.380
2020/01/31 18:55:58.3	74.300	0.110	0.640	0.340
2020/01/31 18:55:58.4	74.280	0.100	0.650	0.300
2020/01/31 18:55:58.5	74.250	0.090	0.660	0.250
2020/01/31 18:55:58.6	74.230	0.080	0.660	0.210
2020/01/31 18:55:58.7	74.210	0.070	0.650	0.170
2020/01/31 18:55:58.8	74.190	0.070	0.640	0.120
2020/01/31 18:55:58.9	74.170	0.060	0.620	0.070
2020/01/31 18:55:59.0	74.150	0.050	0.600	0.030
2020/01/31 18:55:59.1	74.140	0.040	0.570	-0.020
2020/01/31 18:55:59.2	74.120	0.040	0.530	-0.070
2020/01/31 18:55:59.3	74.110	0.030	0.490	-0.110
2020/01/31 18:55:59.4	74.110	0.020	0.450	-0.150
2020/01/31 18:55:59.5	74.100	0.020	0.400	-0.200
2020/01/31 18:55:59.6	74.100	0.010	0.340	-0.240
2020/01/31 18:55:59.7	74.100	0.010	0.290	-0.270
2020/01/31 18:55:59.8	74.090	0.000	0.230	-0.310
2020/01/31 18:55:59.9	74.100	-0.000	0.160	-0.340
2020/01/31 18:56:00.0	74.100	-0.010	0.090	-0.370
2020/01/31 18:56:00.1	74.110	-0.010	0.020	-0.400
2020/01/31 18:56:00.2	74.120	-0.020	-0.050	-0.420
2020/01/31 18:56:00.3	74.130	-0.020	-0.130	-0.450
2020/01/31 18:56:00.4	74.140	-0.030	-0.200	-0.460
2020/01/31 18:56:00.5	74.160	-0.030	-0.280	-0.480
2020/01/31 18:56:00.6	74.170	-0.030	-0.350	-0.490
2020/01/31 18:56:00.7	74.190	-0.040	-0.430	-0.500
2020/01/31 18:56:00.8	74.190	-0.040	-0.500	-0.500
2020/01/31 18:56:00.9	74.210	-0.040	-0.570	-0.500
2020/01/31 18:56:01.0	74.230	-0.040	-0.640	-0.500
2020/01/31 18:56:01.1	74.250	-0.040	-0.700	-0.500
2020/01/31 18:56:01.2	74.270	-0.040	-0.760	-0.490
2020/01/31 18:56:01.3	74.290	-0.040	-0.810	-0.480
2020/01/31 18:56:01.4	74.310	-0.040	-0.860	-0.470
2020/01/31 18:56:01.5	74.320	-0.040	-0.900	-0.460
2020/01/31 18:56:01.6	74.340	-0.040	-0.940	-0.440
2020/01/31 18:56:01.7	74.360	-0.040	-0.970	-0.420
2020/01/31 18:56:01.8	74.380	-0.040	-0.990	-0.400
2020/01/31 18:56:01.9	74.400	-0.040	-1.010	-0.380
2020/01/31 18:56:02.0	74.410	-0.030	-1.010	-0.360
2020/01/31 18:56:02.1	74.430	-0.030	-1.020	-0.330
2020/01/31 18:56:02.2	74.440	-0.030	-1.010	-0.310
2020/01/31 18:56:02.3	74.450	-0.020	-1.000	-0.280
2020/01/31 18:56:02.4	74.460	-0.020	-0.980	-0.250
2020/01/31 18:56:02.5	74.470	-0.020	-0.950	-0.220
2020/01/31 18:56:02.6	74.470	-0.010	-0.910	-0.180
2020/01/31 18:56:02.7	74.470	-0.010	-0.880	-0.140
2020/01/31 18:56:02.8	74.470	-0.010	-0.830	-0.110
2020/01/31 18:56:02.9	74.470	-0.010	-0.780	-0.070
2020/01/31 18:56:03.0	74.460	-0.010	-0.720	-0.030
2020/01/31 18:56:03.1	74.450	-0.010	-0.660	0.020
2020/01/31 18:56:03.2	74.440	-0.010	-0.600	0.060
2020/01/31 18:56:03.3	74.430	-0.010	-0.530	0.110
2020/01/31 18:56:03.4	74.410	-0.010	-0.450	0.160
2020/01/31 18:56:03.5	74.390	-0.020	-0.380	0.210
2020/01/31 18:56:03.6	74.370	-0.020	-0.300	0.270
2020/01/31 18:56:03.7	74.340	-0.030	-0.220	0.320
2020/01/31 18:56:03.8	74.300	-0.040	-0.130	0.380
2020/01/31 18:56:03.9	74.270	-0.050	-0.050	0.440
2020/01/31 18:56:04.0	74.240	-0.060	0.030	0.500
2020/01/31 18:56:04.1	74.200	-0.070	0.120	0.560
2020/01/31 18:56:04.2	74.160	-0.080	0.200	0.620
2020/01/31 18:56:04.3	74.130	-0.100	0.270	0.690
2020/01/31 18:56:04.4	74.090	-0.110	0.350	0.750
2020/01/31 18:56:04.5	74.050	-0.130	0.420	0.810
2020/01/31 18:56:04.6	74.010	-0.150	0.490	0.870
2020/01/31 18:56:04.7	73.970	-0.170	0.550	0.930
2020/01/31 18:56:04.8	73.940	-0.180	0.610	0.980
2020/01/31 18:56:04.9	73.900	-0.200	0.660	1.040
2020/01/31 18:56:05.0	73.860	-0.220	0.700	1.090
2020/01/31 18:56:05.1	73.830	-0.240	0.740	1.140
2020/01/31 18:56:05.2	73.800	-0.260	0.770	1.180
2020/01/31 18:56:05.3	73.770	-0.280	0.780	1.210
2020/01/31 18:56:05.4	73.740	-0.300	0.790	1.250
2020/01/31 18:56:05.5	73.720	-0.320	0.790	1.270
2020/01/31 18:56:05.6	73.700	-0.330	0.790	1.290
2020/01/31 18:56:05.7	73.680	-0.350	0.770	1.310
2020/01/31 18:56:05.8	73.660	-0.360	0.740	1.320
2020/01/31 18:56:05.9	73.650	-0.370	0.710	1.320
2020/01/31 18:56:06.0	73.650	-0.380	0.660	1.310
2020/01/31 18:56:06.1	73.650	-0.380	0.610	1.300
2020/01/31 18:56:06.2	73.650	-0.390	0.550	1.280
2020/01/31 18:56:06.3	73.660	-0.390	0.480	1.250
2020/01/31 18:56:06.4	73.670	-0.390	0.400	1.220
2020/01/31 18:56:06.5	73.690	-0.380	0.320	1.180
2020/01/31 18:56:06.6	73.710	-0.380	0.240	1.130
2020/01/31 18:56:06.7	73.730	-0.370	0.140	1.080
2020/01/31 18:56:06.8	73.760	-0.360	0.050	1.020
2020/01/31 18:56:06.9	73.780	-0.350	-0.050	0.960
2020/01/31 18:56:07.0	73.810	-0.330	-0.140	0.890
2020/01/31 18:56:07.1	73.850	-0.310	-0.240	0.820
2020/01/31 18:56:07.2	73.880	-0.290	-0.340	0.750
2020/01/31 18:56:07.3	73.920	-0.270	-0.430	0.680
2020/01/31 18:56:07.4	73.950	-0.240	-0.530	0.610
2020/01/31 18:56:07.5	73.990	-0.220	-0.620	0.530
2020/01/31 18:56:07.6	74.030	-0.190	-0.700	0.460
2020/01/31 18:56:07.7	74.060	-0.160	-0.780	0.390
2020/01/31 18:56:07.8	74.100	-0.130	-0.850	0.330
2020/01/31 18:56:07.9	74.130	-0.100	-0.920	0.260
2020/01/31 18:56:08.0	74.170	-0.070	-0.980	0.190
2020/01/31 18:56:08.1	74.210	-0.040	-1.030	0.130
2020/01/31 18:56:08.2	74.240	-0.000	-1.080	0.070
2020/01/31 18:56:08.3	74.270	0.030	-1.120	0.010
2020/01/31 18:56:08.4	74.300	0.060	-1.140	-0.040
2020/01/31 18:56:08.5	74.330	0.090	-1.160	-0.090
2020/01/31 18:56:08.6	74.350	0.110	-1.170	-0.130
2020/01/31 18:56:08.7	74.370	0.140	-1.170	-0.170
2020/01/31 18:56:08.8	74.380	0.170	-1.160	-0.220
2020/01/31 18:56:08.9	74.400	0.190	-1.150	-0.250
2020/01/31 18:56:09.0	74.410	0.210	-1.120	-0.280
2020/01/31 18:56:09.1	74.420	0.230	-1.090	-0.300
2020/01/31 18:56:09.2	74.430	0.250	-1.040	-0.320
2020/01/31 18:56:09.3	74.430	0.260	-0.990	-0.340
2020/01/31 18:56:09.4	74.430	0.270	-0.940	-0.350
2020/01/31 18:56:09.5	74.430	0.280	-0.880	-0.350
2020/01/31 18:56:09.6	74.420	0.290	-0.810	-0.360
2020/01/31 18:56:09.7	74.410	0.290	-0.740	-0.350
2020/01/31 18:56:09.8	74.410	0.290	-0.660	-0.350
2020/01/31 18:56:09.9	74.390	0.290	-0.580	-0.340
2020/01/31 18:56:10.0	74.370	0.280	-0.500	-0.320
2020/01/31 18:56:10.1	74.350	0.270	-0.410	-0.310
2020/01/31 18:56:10.2	74.320	0.260	-0.330	-0.290
2020/01/31 18:56:10.3	74.290	0.250	-0.240	-0.260
2020/01/31 18:56:10.4	74.250	0.240	-0.160	-0.230
2020/01/31 18:56:10.5	74.220	0.220	-0.080	-0.200
2020/01/31 18:56:10.6	74.180	0.210	0.000	-0.170
2020/01/31 18:56:10.7	74.140	0.190	0.080	-0.140
2020/01/31 18:56:10.8	74.100	0.170	0.150	-0.100
2020/01/31 18:56:10.9	74.060	0.150	0.220	-0.060
2020/01/31 18:56:11.0	74.010	0.130	0.290	-0.020
2020/01/31 18:56:11.1	73.970	0.110	0.350	0.030
2020/01/31 18:56:11.2	73.920	0.090	0.400	0.070
2020/01/31 18:56:11.3	73.870	0.070	0.440	0.110
2020/01/31 18:56:11.4	73.830	0.050	0.480	0.150
2020/01/31 18:56:11.5	73.780	0.030	0.520	0.190
2020/01/31 18:56:11.6	73.730	0.010	0.540	0.230
2020/01/31 18:56:11.7	73.690	-0.000	0.560	0.270
2020/01/31 18:56:11.8	73.640	-0.010	0.570	0.300
2020/01/31 18:56:11.9	73.600	-0.020	0.570	0.330
2020/01/31 18:56:12.0	73.570	-0.030	0.560	0.360
2020/01/31 18:56:12.1	73.530	-0.040	0.550	0.380
2020/01/31 18:56:12.2	73.500	-0.040	0.520	0.410
2020/01/31 18:56:12.3	73.480	-0.040	0.490	0.420
2020/01/31 18:56:12.4	73.460	-0.040	0.460	0.430
2020/01/31 18:56:12.5	73.440	-0.030	0.410	0.440
2020/01/31 18:56:12.6	73.420	-0.030	0.360	0.440
2020/01/31 18:56:12.7	73.420	-0.010	0.300	0.440
2020/01/31 18:56:12.8	73.420	-0.000	0.240	0.440
2020/01/31 18:56:12.9	73.420	0.020	0.170	0.420
2020/01/31 18:56:13.0	73.420	0.040	0.100	0.410
2020/01/31 18:56:13.1	73.430	0.060	0.020	0.390
2020/01/31 18:56:13.2	73.450	0.080	-0.060	0.360
2020/01/31 18:56:13.3	73.470	0.110	-0.140	0.330
2020/01/31 18:56:13.4	73.490	0.140	-0.220	0.300
2020/01/31 18:56:13.5	73.520	0.160	-0.300	0.270
2020/01/31 18:56:13.6	73.550	0.200	-0.380	0.230
2020/01/31 18:56:13.7	73.590	0.230	-0.450	0.190
2020/01/31 18:56:13.8	73.610	0.260	-0.530	0.150
2020/01/31 18:56:13.9	73.650	0.290	-0.600	0.100
2020/01/31 18:56:14.0	73.690	0.320	-0.670	0.060
2020/01/31 18:56:14.1	73.730	0.350	-0.730	0.010
2020/01/31 18:56:14.2	73.770	0.380	-0.790	-0.030
2020/01/31 18:56:14.3	73.810	0.400	-0.840	-0.070
2020/01/31 18:56:14.4	73.850	0.430	-0.880	-0.110
2020/01/31 18:56:14.5	73.890	0.450	-0.920	-0.150
2020/01/31 18:56:14.6	73.920	0.470	-0.950	-0.190
2020/01/31 18:56:14.7	73.960	0.490	-0.970	-0.230
2020/01/31 18:56:14.8	73.990	0.500	-0.980	-0.270
2020/01/31 18:56:14.9	74.020	0.510	-0.980	-0.300
2020/01/31 18:56:15.0	74.050	0.510	-0.980	-0.330
2020/01/31 18:56:15.1	74.070	0.510	-0.970	-0.360
2020/01/31 18:56:15.2	74.090	0.510	-0.950	-0.390
2020/01/31 18:56:15.3	74.110	0.500	-0.920	-0.410
2020/01/31 18:56:15.4	74.120	0.490	-0.880	-0.440
2020/01/31 18:56:15.5	74.130	0.480	-0.840	-0.460
2020/01/31 18:56:15.6	74.140	0.460	-0.780	-0.470
2020/01/31 18:56:15.7	74.150	0.430	-0.730	-0.490
2020/01/31 18:56:15.8	74.160	0.410	-0.660	-0.500
2020/01/31 18:56:15.9	74.160	0.380	-0.590	-0.510
2020/01/31 18:56:16.0	74.160	0.340	-0.520	-0.510
2020/01/31 18:56:16.1	74.160	0.310	-0.440	-0.520
2020/01/31 18:56:16.2	74.150	0.270	-0.360	-0.520
2020/01/31 18:56:16.3	74.150	0.230	-0.280	-0.510
2020/01/31 18:56:16.4	74.140	0.190	-0.200	-0.500
2020/01/31 18:56:16.5	74.130	0.140	-0.110	-0.490
2020/01/31 18:56:16.6	74.120	0.100	-0.030	-0.480
2020/01/31 18:56:16.7	74.120	0.060	0.050	-0.470
2020/01/31 18:56:16.8	74.110	0.010	0.130	-0.450
2020/01/31 18:56:16.9	74.100	-0.030	0.210	-0.430
2020/01/31 18:56:17.0	74.090	-0.070	0.290	-0.410
2020/01/31 18:56:17.1	74.080	-0.110	0.360	-0.380
2020/01/31 18:56:17.2	74.080	-0.150	0.430	-0.360
2020/01/31 18:56:17.3	74.070	-0.190	0.490	-0.330
2020/01/31 18:56:17.4	74.060	-0.220	0.540	-0.310
2020/01/31 18:56:17.5	74.060	-0.250	0.590	-0.280
2020/01/31 18:56:17.6	74.050	-0.280	0.640	-0.250
2020/01/31 18:56:17.7	74.050	-0.310	0.670	-0.220
2020/01/31 18:56:17.8	74.060	-0.330	0.700	-0.200
2020/01/31 18:56:17.9	74.060	-0.350	0.720	-0.170
2020/01/31 18:56:18.0	74.060	-0.360	0.730	-0.140
2020/01/31 18:56:18.1	74.060	-0.380	0.730	-0.120
2020/01/31 18:56:18.2	74.060	-0.390	0.730	-0.090
2020/01/31 18:56:18.3	74.060	-0.390	0.720	-0.060
2020/01/31 18:56:18.4	74.060	-0.390	0.710	-0.030
2020/01/31 18:56:18.5	74.060	-0.400	0.690	-0.010
2020/01/31 18:56:18.6	74.070	-0.390	0.660	0.020
2020/01/31 18:56:18.7	74.070	-0.390	0.620	0.050
2020/01/31 18:56:18.8	74.070	-0.380	0.590	0.090
2020/01/31 18:56:18.9	74.070	-0.370	0.550	0.120
2020/01/31 18:56:19.0	74.070	-0.360	0.500	0.150
2020/01/31 18:56:19.1	74.070	-0.350	0.450	0.190
2020/01/31 18:56:19.2	74.060	-0.340	0.400	0.220
2020/01/31 18:56:19.3	74.060	-0.330	0.350	0.260
2020/01/31 18:56:19.4	74.050	-0.310	0.300	0.290
2020/01/31 18:56:19.5	74.040	-0.300	0.250	0.330
2020/01/31 18:56:19.6	74.030	-0.290	0.190	0.370
2020/01/31 18:56:19.7	74.020	-0.270	0.140	0.410
2020/01/31 18:56:19.8	74.010	-0.260	0.090	0.460
2020/01/31 18:56:19.9	74.000	-0.250	0.040	0.500
2020/01/31 18:56:20.0	73.980	-0.240	-0.010	0.540
2020/01/31 18:56:20.1	73.960	-0.230	-0.060	0.590
2020/01/31 18:56:20.2	73.950	-0.220	-0.100	0.640
2020/01/31 18:56:20.3	73.930	-0.210	-0.140	0.690
2020/01/31 18:56:20.4	73.910	-0.210	-0.190	0.730
2020/01/31 18:56:20.5	73.890	-0.200	-0.220	0.780
2020/01/31 18:56:20.6	73.880	-0.200	-0.260	0.830
2020/01/31 18:56:20.7	73.860	-0.200	-0.300	0.880
2020/01/31 18:56:20.8	73.840	-0.200	-0.330	0.930
2020/01/31 18:56:20.9	73.820	-0.200	-0.360	0.970
2020/01/31 18:56:21.0	73.810	-0.200	-0.390	1.020
2020/01/31 18:56:21.1	73.790	-0.210	-0.420	1.060
2020/01/31 18:56:21.2	73.770	-0.210	-0.440	1.110
2020/01/31 18:56:21.3	73.760	-0.220	-0.470	1.150
2020/01/31 18:56:21.4	73.740	-0.230	-0.490	1.180
2020/01/31 18:56:21.5	73.730	-0.230	-0.510	1.220
2020/01/31 18:56:21.6	73.720	-0.240	-0.540	1.250
2020/01/31 18:56:21.7	73.710	-0.240	-0.560	1.270
2020/01/31 18:56:21.8	73.700	-0.250	-0.580	1.300
2020/01/31 18:56:21.9	73.700	-0.260	-0.600	1.310
2020/01/31 18:56:22.0	73.690	-0.260	-0.620	1.330
2020/01/31 18:56:22.1	73.690	-0.260	-0.640	1.340
2020/01/31 18:56:22.2	73.700	-0.260	-0.660	1.350
2020/01/31 18:56:22.3	73.700	-0.260	-0.680	1.350
2020/01/31 18:56:22.4	73.710	-0.260	-0.700	1.350
2020/01/31 18:56:22.5	73.710	-0.260	-0.710	1.340
2020/01/31 18:56:22.6	73.720	-0.250	-0.730	1.330
2020/01/31 18:56:22.7	73.730	-0.250	-0.750	1.320
2020/01/31 18:56:22.8	73.740	-0.240	-0.760	1.300
2020/01/31 18:56:22.9	73.760	-0.220	-0.770	1.280
2020/01/31 18:56:23.0	73.770	-0.210	-0.790	1.260
2020/01/31 18:56:23.1	73.790	-0.190	-0.800	1.240
2020/01/31 18:56:23.2	73.800	-0.170	-0.810	1.210
2020/01/31 18:56:23.3	73.820	-0.150	-0.820	1.180
2020/01/31 18:56:23.4	73.840	-0.130	-0.820	1.150
2020/01/31 18:56:23.5	73.850	-0.100	-0.820	1.120
2020/01/31 18:56:23.6	73.870	-0.080	-0.820	1.080
2020/01/31 18:56:23.7	73.890	-0.050	-0.820	1.050
2020/01/31 18:56:23.8	73.910	-0.020	-0.810	1.010
2020/01/31 18:56:23.9	73.920	0.010	-0.800	0.980
2020/01/31 18:56:24.0	73.940	0.030	-0.780	0.940
2020/01/31 18:56:24.1	73.960	0.060	-0.760	0.900
2020/01/31 18:56:24.2	73.970	0.090	-0.740	0.860
2020/01/31 18:56:24.3	73.990	0.120	-0.720	0.820
2020/01/31 18:56:24.4	74.000	0.150	-0.680	0.780
2020/01/31 18:56:24.5	74.010	0.170	-0.650	0.750
2020/01/31 18:56:24.6	74.020	0.200	-0.610	0.710
2020/01/31 18:56:24.7	74.030	0.220	-0.570	0.670
2020/01/31 18:56:24.8	74.030	0.240	-0.520	0.630
2020/01/31 18:56:24.9	74.040	0.260	-0.480	0.590
2020/01/31 18:56:25.0	74.040	0.280	-0.430	0.560
2020/01/31 18:56:25.1	74.040	0.290	-0.380	0.520
2020/01/31 18:56:25.2	74.040	0.300	-0.320	0.480
2020/01/31 18:56:25.3	74.030	0.310	-0.270	0.450
2020/01/31 18:56:25.4	74.020	0.320	-0.210	0.410
2020/01/31 18:56:25.5	74.010	0.320	-0.160	0.380
2020/01/31 18:56:25.6	74.000	0.320	-0.100	0.340
2020/01/31 18:56:25.7	73.990	0.320	-0.050	0.310
2020/01/31 18:56:25.8	73.970	0.310	0.010	0.270
2020/01/31 18:56:25.9	73.950	0.310	0.060	0.230
2020/01/31 18:56:26.0	73.930	0.300	0.110	0.200
2020/01/31 18:56:26.1	73.910	0.280	0.160	0.170
2020/01/31 18:56:26.2	73.890	0.270	0.210	0.130
2020/01/31 18:56:26.3	73.870	0.260	0.260	0.100
2020/01/31 18:56:26.4	73.850	0.240	0.300	0.070
2020/01/31 18:56:26.5	73.820	0.220	0.340	0.030
2020/01/31 18:56:26.6	73.800	0.200	0.370	0.000
2020/01/31 18:56:26.7	73.780	0.180	0.410	-0.030
2020/01/31 18:56:26.8	73.750	0.160	0.430	-0.070
2020/01/31 18:56:26.9	73.730	0.140	0.460	-0.100
2020/01/31 18:56:27.0	73.700	0.120	0.480	-0.140
2020/01/31 18:56:27.1	73.680	0.100	0.490	-0.170
2020/01/31 18:56:27.2	73.660	0.080	0.500	-0.210
2020/01/31 18:56:27.3	73.640	0.060	0.510	-0.240
2020/01/31 18:56:27.4	73.620	0.040	0.510	-0.280
2020/01/31 18:56:27.5	73.600	0.020	0.500	-0.320
2020/01/31 18:56:27.6	73.590	0.000	0.490	-0.360
2020/01/31 18:56:27.7	73.570	-0.010	0.480	-0.390
2020/01/31 18:56:27.8	73.550	-0.020	0.460	-0.430
2020/01/31 18:56:27.9	73.530	-0.040	0.440	-0.470
2020/01/31 18:56:28.0	73.520	-0.050	0.410	-0.510
2020/01/31 18:56:28.1	73.500	-0.050	0.370	-0.550
2020/01/31 18:56:28.2	73.490	-0.060	0.330	-0.590
2020/01/31 18:56:28.3	73.480	-0.060	0.290	-0.630
2020/01/31 18:56:28.4	73.460	-0.060	0.250	-0.670
2020/01/31 18:56:28.5	73.450	-0.060	0.200	-0.700
2020/01/31 18:56:28.6	73.440	-0.060	0.150	-0.740
2020/01/31 18:56:28.7	73.430	-0.050	0.090	-0.770
2020/01/31 18:56:28.8	73.420	-0.050	0.040	-0.800
2020/01/31 18:56:28.9	73.410	-0.040	-0.010	-0.830
2020/01/31 18:56:29.0	73.410	-0.020	-0.070	-0.860
2020/01/31 18:56:29.1	73.400	-0.010	-0.130	-0.890
2020/01/31 18:56:29.2	73.400	0.010	-0.180	-0.910
2020/01/31 18:56:29.3	73.400	0.020	-0.240	-0.940
2020/01/31 18:56:29.4	73.400	0.040	-0.290	-0.960
2020/01/31 18:56:29.5	73.410	0.060	-0.350	-0.980
2020/01/31 18:56:29.6	73.410	0.080	-0.400	-1.000
2020/01/31 18:56:29.7	73.420	0.100	-0.450	-1.010
2020/01/31 18:56:29.8	73.430	0.120	-0.500	-1.030
2020/01/31 18:56:29.9	73.450	0.140	-0.550	-1.040
2020/01/31 18:56:30.0	73.460	0.170	-0.590	-1.050
2020/01/31 18:56:30.1	73.480	0.190	-0.620	-1.050
2020/01/31 18:56:30.2	73.500	0.210	-0.660	-1.060
2020/01/31 18:56:30.3	73.520	0.230	-0.690	-1.060
2020/01/31 18:56:30.4	73.540	0.250	-0.710	-1.060
2020/01/31 18:56:30.5	73.560	0.270	-0.730	-1.050
2020/01/31 18:56:30.6	73.580	0.280	-0.750	-1.040
2020/01/31 18:56:30.7	73.610	0.300	-0.770	-1.030
2020/01/31 18:56:30.8	73.640	0.310	-0.770	-1.010
2020/01/31 18:56:30.9	73.660	0.330	-0.770	-0.990
2020/01/31 18:56:31.0	73.680	0.330	-0.770	-0.970
2020/01/31 18:56:31.1	73.710	0.340	-0.770	-0.940
2020/01/31 18:56:31.2	73.730	0.350	-0.760	-0.910
2020/01/31 18:56:31.3	73.750	0.350	-0.750	-0.870
2020/01/31 18:56:31.4	73.770	0.350	-0.740	-0.830
2020/01/31 18:56:31.5	73.790	0.350	-0.720	-0.790
2020/01/31 18:56:31.6	73.810	0.350	-0.690	-0.750
2020/01/31 18:56:31.7	73.830	0.340	-0.670	-0.700
2020/01/31 18:56:31.8	73.850	0.330	-0.640	-0.650
2020/01/31 18:56:31.9	73.870	0.320	-0.610	-0.590
2020/01/31 18:56:32.0	73.880	0.300	-0.580	-0.530
2020/01/31 18:56:32.1	73.900	0.290	-0.540	-0.470
2020/01/31 18:56:32.2	73.910	0.270	-0.500	-0.410
2020/01/31 18:56:32.3	73.920	0.250	-0.460	-0.340
2020/01/31 18:56:32.4	73.920	0.220	-0.410	-0.280
2020/01/31 18:56:32.5	73.930	0.200	-0.370	-0.210
2020/01/31 18:56:32.6	73.930	0.170	-0.320	-0.140
2020/01/31 18:56:32.7	73.930	0.150	-0.270	-0.060
2020/01/31 18:56:32.8	73.940	0.120	-0.220	0.010
2020/01/31 18:56:32.9	73.940	0.090	-0.160	0.090
2020/01/31 18:56:33.0	73.930	0.060	-0.110	0.170
2020/01/31 18:56:33.1	73.930	0.030	-0.060	0.250
2020/01/31 18:56:33.2	73.920	-0.000	-0.000	0.330
2020/01/31 18:56:33.3	73.910	-0.030	0.050	0.410
2020/01/31 18:56:33.4	73.900	-0.070	0.110	0.490
2020/01/31 18:56:33.5	73.890	-0.100	0.160	0.570
2020/01/31 18:56:33.6	73.880	-0.130	0.210	0.650
2020/01/31 18:56:33.7	73.860	-0.160	0.260	0.730
2020/01/31 18:56:33.8	73.840	-0.190	0.310	0.810
2020/01/31 18:56:33.9	73.830	-0.210	0.360	0.890
2020/01/31 18:56:34.0	73.810	-0.240	0.410	0.970
2020/01/31 18:56:34.1	73.790	-0.270	0.450	1.050
2020/01/31 18:56:34.2	73.770	-0.290	0.490	1.130
2020/01/31 18:56:34.3	73.740	-0.310	0.530	1.200
2020/01/31 18:56:34.4	73.720	-0.330	0.560	1.270
2020/01/31 18:56:34.5	73.700	-0.350	0.590	1.340
2020/01/31 18:56:34.6	73.680	-0.370	0.610	1.410
2020/01/31 18:56:34.7	73.660	-0.390	0.630	1.470
2020/01/31 18:56:34.8	73.630	-0.400	0.650	1.530
2020/01/31 18:56:34.9	73.610	-0.410	0.660	1.590
2020/01/31 18:56:35.0	73.590	-0.420	0.660	1.640
2020/01/31 18:56:35.1	73.580	-0.430	0.660	1.690
2020/01/31 18:56:35.2	73.560	-0.430	0.650	1.740
2020/01/31 18:56:35.3	73.550	-0.440	0.640	1.780
2020/01/31 18:56:35.4	73.530	-0.440	0.620	1.820
2020/01/31 18:56:35.5	73.520	-0.440	0.590	1.850
2020/01/31 18:56:35.6	73.520	-0.430	0.560	1.880
2020/01/31 18:56:35.7	73.510	-0.430	0.530	1.900
2020/01/31 18:56:35.8	73.500	-0.420	0.490	1.920
2020/01/31 18:56:35.9	73.510	-0.410	0.440	1.930
2020/01/31 18:56:36.0	73.510	-0.400	0.390	1.940
2020/01/31 18:56:36.1	73.520	-0.390	0.330	1.940
2020/01/31 18:56:36.2	73.520	-0.370	0.270	1.940
2020/01/31 18:56:36.3	73.540	-0.360	0.200	1.930
2020/01/31 18:56:36.4	73.550	-0.340	0.130	1.910
2020/01/31 18:56:36.5	73.570	-0.320	0.060	1.890
2020/01/31 18:56:36.6	73.590	-0.300	-0.020	1.860
2020/01/31 18:56:36.7	73.610	-0.280	-0.090	1.830
2020/01/31 18:56:36.8	73.640	-0.260	-0.170	1.790
2020/01/31 18:56:36.9	73.660	-0.240	-0.250	1.750
2020/01/31 18:56:37.0	73.690	-0.220	-0.330	1.710
2020/01/31 18:56:37.1	73.710	-0.200	-0.410	1.660
2020/01/31 18:56:37.2	73.740	-0.170	-0.480	1.610
2020/01/31 18:56:37.3	73.760	-0.150	-0.560	1.560
2020/01/31 18:56:37.4	73.790	-0.130	-0.630	1.500
2020/01/31 18:56:37.5	73.810	-0.110	-0.690	1.440
2020/01/31 18:56:37.6	73.830	-0.090	-0.750	1.380
2020/01/31 18:56:37.7	73.850	-0.070	-0.810	1.320
2020/01/31 18:56:37.8	73.880	-0.050	-0.870	1.260
2020/01/31 18:56:37.9	73.890	-0.030	-0.910	1.200
2020/01/31 18:56:38.0	73.910	-0.010	-0.960	1.140
2020/01/31 18:56:38.1	73.920	0.010	-0.990	1.080
2020/01/31 18:56:38.2	73.930	0.020	-1.020	1.010
2020/01/31 18:56:38.3	73.940	0.040	-1.040	0.950
2020/01/31 18:56:38.4	73.950	0.050	-1.060	0.890
2020/01/31 18:56:38.5	73.950	0.060	-1.070	0.830
2020/01/31 18:56:38.6	73.950	0.080	-1.070	0.770
2020/01/31 18:56:38.7	73.950	0.090	-1.070	0.710
2020/01/31 18:56:38.8	73.960	0.100	-1.060	0.650
2020/01/31 18:56:38.9	73.950	0.110	-1.050	0.590
2020/01/31 18:56:39.0	73.950	0.110	-1.030	0.530
2020/01/31 18:56:39.1	73.940	0.120	-1.010	0.480
2020/01/31 18:56:39.2	73.940	0.130	-0.980	0.430
2020/01/31 18:56:39.3	73.930	0.140	-0.950	0.380
2020/01/31 18:56:39.4	73.920	0.150	-0.920	0.330
2020/01/31 18:56:39.5	73.910	0.150	-0.890	0.280
2020/01/31 18:56:39.6	73.890	0.160	-0.850	0.230
2020/01/31 18:56:39.7	73.880	0.170	-0.810	0.180
2020/01/31 18:56:39.8	73.870	0.180	-0.770	0.140
2020/01/31 18:56:39.9	73.860	0.190	-0.730	0.090
2020/01/31 18:56:40.0	73.850	0.200	-0.690	0.050
2020/01/31 18:56:40.1	73.830	0.210	-0.640	0.010
2020/01/31 18:56:40.2	73.820	0.220	-0.600	-0.030
2020/01/31 18:56:40.3	73.810	0.230	-0.550	-0.070
2020/01/31 18:56:40.4	73.800	0.240	-0.500	-0.100
2020/01/31 18:56:40.5	73.790	0.260	-0.460	-0.140
2020/01/31 18:56:40.6	73.770	0.270	-0.410	-0.170
2020/01/31 18:56:40.7	73.760	0.280	-0.370	-0.200
2020/01/31 18:56:40.8	73.750	0.290	-0.320	-0.240
2020/01/31 18:56:40.9	73.740	0.300	-0.270	-0.260
2020/01/31 18:56:41.0	73.740	0.320	-0.230	-0.290
2020/01/31 18:56:41.1	73.730	0.330	-0.190	-0.320
2020/01/31 18:56:41.2	73.720	0.340	-0.140	-0.350
2020/01/31 18:56:41.3	73.710	0.350	-0.100	-0.370
2020/01/31 18:56:41.4	73.710	0.360	-0.060	-0.390
2020/01/31 18:56:41.5	73.700	0.360	-0.020	-0.420
2020/01/31 18:56:41.6	73.700	0.370	0.020	-0.440
2020/01/31 18:56:41.7	73.690	0.370	0.060	-0.460
2020/01/31 18:56:41.8	73.690	0.380	0.100	-0.470
2020/01/31 18:56:41.9	73.690	0.380	0.130	-0.490
2020/01/31 18:56:42.0	73.690	0.380	0.170	-0.510
2020/01/31 18:56:42.1	73.680	0.370	0.200	-0.530
2020/01/31 18:56:42.2	73.680	0.370	0.230	-0.540
2020/01/31 18:56:42.3	73.680	0.360	0.250	-0.560
2020/01/31 18:56:42.4	73.680	0.350	0.280	-0.570
2020/01/31 18:56:42.5	73.680	0.330	0.300	-0.590
2020/01/31 18:56:42.6	73.680	0.320	0.320	-0.600
2020/01/31 18:56:42.7	73.690	0.300	0.340	-0.610
2020/01/31 18:56:42.8	73.690	0.280	0.350	-0.630
2020/01/31 18:56:42.9	73.700	0.260	0.360	-0.640
2020/01/31 18:56:43.0	73.700	0.240	0.370	-0.650
2020/01/31 18:56:43.1	73.710	0.210	0.380	-0.660
2020/01/31 18:56:43.2	73.710	0.190	0.380	-0.670
2020/01/31 18:56:43.3	73.720	0.160	0.380	-0.680
2020/01/31 18:56:43.4	73.720	0.130	0.380	-0.690
2020/01/31 18:56:43.5	73.730	0.100	0.380	-0.700
2020/01/31 18:56:43.6	73.740	0.070	0.370	-0.710
2020/01/31 18:56:43.7	73.740	0.040	0.360	-0.720
2020/01/31 18:56:43.8	73.740	0.010	0.350	-0.720
2020/01/31 18:56:43.9	73.750	-0.020	0.330	-0.730
2020/01/31 18:56:44.0	73.760	-0.050	0.320	-0.730
2020/01/31 18:56:44.1	73.770	-0.080	0.300	-0.740
2020/01/31 18:56:44.2	73.780	-0.110	0.280	-0.740
2020/01/31 18:56:44.3	73.790	-0.140	0.250	-0.740
2020/01/31 18:56:44.4	73.800	-0.170	0.230	-0.740
2020/01/31 18:56:44.5	73.810	-0.190	0.200	-0.740
2020/01/31 18:56:44.6	73.820	-0.220	0.180	-0.730
2020/01/31 18:56:44.7	73.830	-0.240	0.150	-0.730
2020/01/31 18:56:44.8	73.840	-0.260	0.120	-0.720
2020/01/31 18:56:44.9	73.850	-0.280	0.090	-0.710
2020/01/31 18:56:45.0	73.860	-0.300	0.060	-0.700
2020/01/31 18:56:45.1	73.870	-0.320	0.040	-0.680
2020/01/31 18:56:45.2	73.880	-0.330	0.010	-0.670
2020/01/31 18:56:45.3	73.890	-0.350	-0.020	-0.650
2020/01/31 18:56:45.4	73.900	-0.360	-0.040	-0.630
2020/01/31 18:56:45.5	73.910	-0.370	-0.070	-0.600
2020/01/31 18:56:45.6	73.920	-0.370	-0.090	-0.580
2020/01/31 18:56:45.7	73.930	-0.380	-0.120	-0.550
2020/01/31 18:56:45.8	73.940	-0.380	-0.140	-0.520
2020/01/31 18:56:45.9	73.950	-0.380	-0.160	-0.480
2020/01/31 18:56:46.0	73.960	-0.380	-0.180	-0.450
2020/01/31 18:56:46.1	73.970	-0.370	-0.200	-0.410
2020/01/31 18:56:46.2	73.970	-0.370	-0.210	-0.370
2020/01/31 18:56:46.3	73.980	-0.360	-0.230	-0.330
2020/01/31 18:56:46.4	73.990	-0.350	-0.250	-0.290
2020/01/31 18:56:46.5	73.990	-0.330	-0.260	-0.250
2020/01/31 18:56:46.6	74.000	-0.320	-0.280	-0.200
2020/01/31 18:56:46.7	74.000	-0.300	-0.300	-0.160
2020/01/31 18:56:46.8	74.010	-0.280	-0.310	-0.110
2020/01/31 18:56:46.9	74.010	-0.260	-0.330	-0.060
2020/01/31 18:56:47.0	74.020	-0.240	-0.340	-0.020
2020/01/31 18:56:47.1	74.020	-0.220	-0.360	0.030
2020/01/31 18:56:47.2	74.030	-0.200	-0.370	0.080
2020/01/31 18:56:47.3	74.030	-0.170	-0.390	0.130
2020/01/31 18:56:47.4	74.040	-0.150	-0.410	0.180
2020/01/31 18:56:47.5	74.040	-0.120	-0.420	0.230
2020/01/31 18:56:47.6	74.040	-0.100	-0.440	0.280
2020/01/31 18:56:47.7	74.050	-0.070	-0.450	0.320
2020/01/31 18:56:47.8	74.060	-0.040	-0.470	0.370
2020/01/31 18:56:47.9	74.070	-0.020	-0.480	0.420
2020/01/31 18:56:48.0	74.070	0.010	-0.500	0.460
2020/01/31 18:56:48.1	74.080	0.030	-0.510	0.510
2020/01/31 18:56:48.2	74.090	0.060	-0.530	0.550
2020/01/31 18:56:48.3	74.100	0.080	-0.540	0.600
2020/01/31 18:56:48.4	74.100	0.110	-0.550	0.640
2020/01/31 18:56:48.5	74.110	0.130	-0.560	0.680
2020/01/31 18:56:48.6	74.120	0.150	-0.570	0.720
2020/01/31 18:56:48.7	74.130	0.170	-0.580	0.750
2020/01/31 18:56:48.8	74.130	0.190	-0.580	0.790
2020/01/31 18:56:48.9	74.130	0.200	-0.590	0.820
2020/01/31 18:56:49.0	74.140	0.210	-0.590	0.850
2020/01/31 18:56:49.1	74.150	0.230	-0.590	0.880
2020/01/31 18:56:49.2	74.160	0.230	-0.580	0.910
2020/01/31 18:56:49.3	74.170	0.240	-0.570	0.930
2020/01/31 18:56:49.4	74.180	0.250	-0.560	0.960
2020/01/31 18:56:49.5	74.190	0.250	-0.550	0.980
2020/01/31 18:56:49.6	74.200	0.250	-0.530	1.000
2020/01/31 18:56:49.7	74.210	0.250	-0.510	1.010
2020/01/31 18:56:49.8	74.220	0.240	-0.490	1.030
2020/01/31 18:56:49.9	74.230	0.230	-0.460	1.040
2020/01/31 18:56:50.0	74.240	0.220	-0.430	1.060
2020/01/31 18:56:50.1	74.240	0.210	-0.400	1.070
2020/01/31 18:56:50.2	74.250	0.200	-0.360	1.080
2020/01/31 18:56:50.3	74.250	0.180	-0.320	1.090
2020/01/31 18:56:50.4	74.260	0.170	-0.280	1.110
2020/01/31 18:56:50.5	74.260	0.150	-0.240	1.120
2020/01/31 18:56:50.6	74.270	0.130	-0.190	1.130
2020/01/31 18:56:50.7	74.270	0.110	-0.140	1.140
2020/01/31 18:56:50.8	74.270	0.090	-0.090	1.150
2020/01/31 18:56:50.9	74.270	0.070	-0.040	1.160
2020/01/31 18:56:51.0	74.280	0.040	0.020	1.170
2020/01/31 18:56:51.1	74.280	0.020	0.070	1.180
2020/01/31 18:56:51.2	74.280	-0.000	0.120	1.180
2020/01/31 18:56:51.3	74.280	-0.020	0.170	1.190
2020/01/31 18:56:51.4	74.280	-0.050	0.210	1.200
2020/01/31 18:56:51.5	74.280	-0.070	0.260	1.200
2020/01/31 18:56:51.6	74.280	-0.090	0.300	1.200
2020/01/31 18:56:51.7	74.280	-0.110	0.340	1.200
2020/01/31 18:56:51.8	74.280	-0.130	0.370	1.200
2020/01/31 18:56:51.9	74.280	-0.150	0.400	1.190
2020/01/31 18:56:52.0	74.280	-0.170	0.430	1.190
2020/01/31 18:56:52.1	74.280	-0.180	0.450	1.180
2020/01/31 18:56:52.2	74.280	-0.190	0.460	1.170
2020/01/31 18:56:52.3	74.280	-0.210	0.470	1.160
2020/01/31 18:56:52.4	74.280	-0.220	0.470	1.140
2020/01/31 18:56:52.5	74.280	-0.230	0.470	1.130
2020/01/31 18:56:52.6	74.280	-0.230	0.460	1.110
2020/01/31 18:56:52.7	74.280	-0.240	0.440	1.080
2020/01/31 18:56:52.8	74.280	-0.240	0.420	1.060
2020/01/31 18:56:52.9	74.280	-0.240	0.390	1.040
2020/01/31 18:56:53.0	74.270	-0.240	0.360	1.010
2020/01/31 18:56:53.1	74.270	-0.240	0.320	0.980
2020/01/31 18:56:53.2	74.270	-0.230	0.280	0.940
2020/01/31 18:56:53.3	74.270	-0.230	0.230	0.910
2020/01/31 18:56:53.4	74.270	-0.220	0.180	0.870
2020/01/31 18:56:53.5	74.270	-0.210	0.120	0.830
2020/01/31 18:56:53.6	74.270	-0.200	0.060	0.790
2020/01/31 18:56:53.7	74.270	-0.190	-0.010	0.740
2020/01/31 18:56:53.8	74.270	-0.170	-0.080	0.700
2020/01/31 18:56:53.9	74.270	-0.160	-0.150	0.650
2020/01/31 18:56:54.0	74.270	-0.140	-0.220	0.600
2020/01/31 18:56:54.1	74.280	-0.130	-0.290	0.550
2020/01/31 18:56:54.2	74.280	-0.110	-0.360	0.500
2020/01/31 18:56:54.3	74.290	-0.090	-0.430	0.440
2020/01/31 18:56:54.4	74.300	-0.070	-0.500	0.390
2020/01/31 18:56:54.5	74.310	-0.050	-0.570	0.340
2020/01/31 18:56:54.6	74.330	-0.020	-0.640	0.280
2020/01/31 18:56:54.7	74.340	-0.000	-0.700	0.220
2020/01/31 18:56:54.8	74.360	0.020	-0.760	0.160
2020/01/31 18:56:54.9	74.380	0.040	-0.810	0.110
2020/01/31 18:56:55.0	74.400	0.070	-0.870	0.050
2020/01/31 18:56:55.1	74.420	0.090	-0.910	-0.010
2020/01/31 18:56:55.2	74.440	0.110	-0.950	-0.060
2020/01/31 18:56:55.3	74.470	0.140	-0.990	-0.120
2020/01/31 18:56:55.4	74.490	0.160	-1.020	-0.180
2020/01/31 18:56:55.5	74.510	0.180	-1.040	-0.230
2020/01/31 18:56:55.6	74.540	0.210	-1.050	-0.280
2020/01/31 18:56:55.7	74.560	0.230	-1.060	-0.330
2020/01/31 18:56:55.8	74.580	0.250	-1.060	-0.380
2020/01/31 18:56:55.9	74.610	0.270	-1.050	-0.430
2020/01/31 18:56:56.0	74.630	0.290	-1.030	-0.470
2020/01/31 18:56:56.1	74.650	0.310	-1.010	-0.510
2020/01/31 18:56:56.2	74.670	0.320	-0.970	-0.540
2020/01/31 18:56:56.3	74.690	0.340	-0.930	-0.580
2020/01/31 18:56:56.4	74.700	0.350	-0.880	-0.600
2020/01/31 18:56:56.5	74.720	0.360	-0.830	-0.630
2020/01/31 18:56:56.6	74.730	0.370	-0.770	-0.650
2020/01/31 18:56:56.7	74.740	0.370	-0.700	-0.670
2020/01/31 18:56:56.8	74.760	0.380	-0.620	-0.690
2020/01/31 18:56:56.9	74.770	0.380	-0.550	-0.700
2020/01/31 18:56:57.0	74.770	0.370	-0.470	-0.710
2020/01/31 18:56:57.1	74.780	0.370	-0.380	-0.720
2020/01/31 18:56:57.2	74.770	0.360	-0.290	-0.720
2020/01/31 18:56:57.3	74.770	0.350	-0.200	-0.720
2020/01/31 18:56:57.4	74.770	0.340	-0.110	-0.720
2020/01/31 18:56:57.5	74.760	0.330	-0.030	-0.710
2020/01/31 18:56:57.6	74.750	0.310	0.060	-0.710
2020/01/31 18:56:57.7	74.740	0.290	0.150	-0.690
2020/01/31 18:56:57.8	74.730	0.270	0.230	-0.680
2020/01/31 18:56:57.9	74.720	0.240	0.310	-0.660
2020/01/31 18:56:58.0	74.700	0.220	0.390	-0.640
2020/01/31 18:56:58.1	74.680	0.190	0.460	-0.620
2020/01/31 18:56:58.2	74.660	0.160	0.520	-0.600
2020/01/31 18:56:58.3	74.640	0.130	0.580	-0.570
2020/01/31 18:56:58.4	74.620	0.100	0.630	-0.540
2020/01/31 18:56:58.5	74.600	0.070	0.670	-0.510
2020/01/31 18:56:58.6	74.580	0.030	0.700	-0.470
2020/01/31 18:56:58.7	74.560	0.000	0.730	-0.440
2020/01/31 18:56:58.8	74.550	-0.030	0.750	-0.410
2020/01/31 18:56:58.9	74.540	-0.060	0.750	-0.370
2020/01/31 18:56:59.0	74.520	-0.100	0.750	-0.340
2020/01/31 18:56:59.1	74.500	-0.130	0.750	-0.300
2020/01/31 18:56:59.2	74.490	-0.160	0.730	-0.260
2020/01/31 18:56:59.3	74.480	-0.180	0.700	-0.230
2020/01/31 18:56:59.4	74.470	-0.210	0.670	-0.190
2020/01/31 18:56:59.5	74.470	-0.230	0.630	-0.150
2020/01/31 18:56:59.6	74.460	-0.250	0.580	-0.120
2020/01/31 18:56:59.7	74.460	-0.270	0.530	-0.080
2020/01/31 18:56:59.8	74.440	-0.290	0.470	-0.050
2020/01/31 18:56:59.9	74.450	-0.300	0.400	-0.010
2020/01/31 18:57:00.0	74.450	-0.310	0.330	0.020
2020/01/31 18:57:00.1	74.460	-0.320	0.260	0.050
2020/01/31 18:57:00.2	74.470	-0.330	0.180	0.080
2020/01/31 18:57:00.3	74.490	-0.330	0.100	0.110
2020/01/31 18:57:00.4	74.500	-0.330	0.020	0.140
2020/01/31 18:57:00.5	74.520	-0.320	-0.060	0.170
2020/01/31 18:57:00.6	74.540	-0.320	-0.150	0.190
2020/01/31 18:57:00.7	74.560	-0.310	-0.230	0.220
2020/01/31 18:57:00.8	74.580	-0.300	-0.310	0.240
2020/01/31 18:57:00.9	74.610	-0.280	-0.400	0.260
2020/01/31 18:57:01.0	74.630	-0.270	-0.470	0.280
2020/01/31 18:57:01.1	74.660	-0.250	-0.550	0.300
2020/01/31 18:57:01.2	74.690	-0.220	-0.620	0.310
2020/01/31 18:57:01.3	74.710	-0.200	-0.690	0.330
2020/01/31 18:57:01.4	74.740	-0.170	-0.750	0.340
2020/01/31 18:57:01.5	74.770	-0.150	-0.810	0.360
2020/01/31 18:57:01.6	74.800	-0.120	-0.860	0.370
2020/01/31 18:57:01.7	74.820	-0.090	-0.910	0.380
2020/01/31 18:57:01.8	74.850	-0.050	-0.950	0.400
2020/01/31 18:57:01.9	74.870	-0.020	-0.980	0.410
2020/01/31 18:57:02.0	74.900	0.010	-1.000	0.430
2020/01/31 18:57:02.1	74.920	0.040	-1.020	0.440
2020/01/31 18:57:02.2	74.950	0.070	-1.030	0.460
2020/01/31 18:57:02.3	74.970	0.110	-1.030	0.470
2020/01/31 18:57:02.4	74.990	0.140	-1.030	0.490
2020/01/31 18:57:02.5	75.010	0.160	-1.010	0.510
2020/01/31 18:57:02.6	75.030	0.190	-0.990	0.530
2020/01/31 18:57:02.7	75.050	0.220	-0.960	0.560
2020/01/31 18:57:02.8	75.060	0.240	-0.930	0.580
2020/01/31 18:57:02.9	75.070	0.270	-0.890	0.610
2020/01/31 18:57:03.0	75.090	0.290	-0.840	0.640
2020/01/31 18:57:03.1	75.100	0.300	-0.790	0.680
2020/01/31 18:57:03.2	75.110	0.320	-0.740	0.710
2020/01/31 18:57:03.3	75.120	0.330	-0.680	0.750
2020/01/31 18:57:03.4	75.130	0.340	-0.620	0.790
2020/01/31 18:57:03.5	75.140	0.350	-0.550	0.830
2020/01/31 18:57:03.6	75.150	0.350	-0.490	0.870
2020/01/31 18:57:03.7	75.150	0.350	-0.420	0.910
2020/01/31 18:57:03.8	75.160	0.350	-0.350	0.960
2020/01/31 18:57:03.9	75.160	0.350	-0.280	1.000
2020/01/31 18:57:04.0	75.160	0.340	-0.210	1.050
2020/01/31 18:57:04.1	75.170	0.330	-0.150	1.100
2020/01/31 18:57:04.2	75.170	0.320	-0.080	1.140
2020/01/31 18:57:04.3	75.170	0.300	-0.020	1.190
2020/01/31 18:57:04.4	75.180	0.280	0.040	1.240
2020/01/31 18:57:04.5	75.180	0.260	0.100	1.290
2020/01/31 18:57:04.6	75.180	0.240	0.150	1.340
2020/01/31 18:57:04.7	75.180	0.220	0.200	1.380
2020/01/31 18:57:04.8	75.190	0.190	0.250	1.430
2020/01/31 18:57:04.9	75.190	0.160	0.300	1.470
2020/01/31 18:57:05.0	75.190	0.130	0.340	1.520
2020/01/31 18:57:05.1	75.180	0.100	0.380	1.560
2020/01/31 18:57:05.2	75.180	0.070	0.410	1.600
2020/01/31 18:57:05.3	75.180	0.040	0.440	1.640
2020/01/31 18:57:05.4	75.170	0.000	0.470	1.670
2020/01/31 18:57:05.5	75.170	-0.030	0.500	1.700
2020/01/31 18:57:05.6	75.160	-0.070	0.520	1.730
2020/01/31 18:57:05.7	75.160	-0.100	0.540	1.760
2020/01/31 18:57:05.8	75.160	-0.140	0.560	1.780
2020/01/31 18:57:05.9	75.160	-0.170	0.570	1.790
2020/01/31 18:57:06.0	75.150	-0.210	0.580	1.810
2020/01/31 18:57:06.1	75.150	-0.240	0.590	1.810
2020/01/31 18:57:06.2	75.140	-0.280	0.590	1.810
2020/01/31 18:57:06.3	75.130	-0.310	0.600	1.810
2020/01/31 18:57:06.4	75.130	-0.340	0.600	1.800
2020/01/31 18:57:06.5	75.120	-0.370	0.590	1.790
2020/01/31 18:57:06.6	75.110	-0.400	0.590	1.770
2020/01/31 18:57:06.7	75.110	-0.430	0.580	1.740
2020/01/31 18:57:06.8	75.090	-0.460	0.560	1.710
2020/01/31 18:57:06.9	75.090	-0.490	0.540	1.670
2020/01/31 18:57:07.0	75.080	-0.510	0.520	1.640
2020/01/31 18:57:07.1	75.080	-0.540	0.500	1.590
2020/01/31 18:57:07.2	75.070	-0.560	0.470	1.540
2020/01/31 18:57:07.3	75.070	-0.580	0.450	1.490
2020/01/31 18:57:07.4	75.070	-0.600	0.410	1.430
2020/01/31 18:57:07.5	75.060	-0.620	0.380	1.370
2020/01/31 18:57:07.6	75.060	-0.630	0.340	1.300
2020/01/31 18:57:07.7	75.060	-0.640	0.300	1.240
2020/01/31 18:57:07.8	75.070	-0.650	0.260	1.160
2020/01/31 18:57:07.9	75.070	-0.660	0.210	1.090
2020/01/31 18:57:08.0	75.070	-0.670	0.160	1.010
2020/01/31 18:57:08.1	75.070	-0.670	0.100	0.940
2020/01/31 18:57:08.2	75.070	-0.670	0.050	0.860
2020/01/31 18:57:08.3	75.070	-0.670	-0.010	0.780
2020/01/31 18:57:08.4	75.080	-0.670	-0.060	0.700
2020/01/31 18:57:08.5	75.080	-0.660	-0.120	0.610
2020/01/31 18:57:08.6	75.090	-0.650	-0.180	0.530
2020/01/31 18:57:08.7	75.090	-0.640	-0.240	0.450
2020/01/31 18:57:08.8	75.090	-0.620	-0.310	0.370
2020/01/31 18:57:08.9	75.100	-0.610	-0.360	0.280
2020/01/31 18:57:09.0	75.110	-0.590	-0.420	0.200
2020/01/31 18:57:09.1	75.120	-0.560	-0.480	0.120
2020/01/31 18:57:09.2	75.130	-0.540	-0.540	0.040
2020/01/31 18:57:09.3	75.140	-0.510	-0.590	-0.040
2020/01/31 18:57:09.4	75.150	-0.480	-0.650	-0.120
2020/01/31 18:57:09.5	75.160	-0.450	-0.700	-0.200
2020/01/31 18:57:09.6	75.170	-0.410	-0.750	-0.280
2020/01/31 18:57:09.7	75.180	-0.370	-0.790	-0.350
2020/01/31 18:57:09.8	75.190	-0.330	-0.840	-0.430
2020/01/31 18:57:09.9	75.200	-0.290	-0.880	-0.510
2020/01/31 18:57:10.0	75.210	-0.240	-0.920	-0.580
2020/01/31 18:57:10.1	75.220	-0.190	-0.950	-0.640
2020/01/31 18:57:10.2	75.240	-0.140	-0.980	-0.710
2020/01/31 18:57:10.3	75.250	-0.090	-1.010	-0.770
2020/01/31 18:57:10.4	75.260	-0.040	-1.040	-0.830
2020/01/31 18:57:10.5	75.270	0.010	-1.060	-0.890
2020/01/31 18:57:10.6	75.280	0.070	-1.080	-0.940
2020/01/31 18:57:10.7	75.290	0.120	-1.090	-0.990
2020/01/31 18:57:10.8	75.300	0.180	-1.100	-1.040
2020/01/31 18:57:10.9	75.310	0.230	-1.110	-1.090
2020/01/31 18:57:11.0	75.330	0.290	-1.110	-1.130
2020/01/31 18:57:11.1	75.340	0.340	-1.110	-1.170
2020/01/31 18:57:11.2	75.350	0.390	-1.110	-1.200
2020/01/31 18:57:11.3	75.360	0.440	-1.100	-1.230
2020/01/31 18:57:11.4	75.370	0.490	-1.090	-1.250
2020/01/31 18:57:11.5	75.370	0.540	-1.070	-1.270
2020/01/31 18:57:11.6	75.380	0.580	-1.050	-1.290
2020/01/31 18:57:11.7	75.390	0.620	-1.030	-1.300
2020/01/31 18:57:11.8	75.400	0.660	-1.000	-1.300
2020/01/31 18:57:11.9	75.400	0.700	-0.970	-1.300
2020/01/31 18:57:12.0	75.410	0.730	-0.930	-1.290
2020/01/31 18:57:12.1	75.410	0.760	-0.900	-1.280
2020/01/31 18:57:12.2	75.410	0.790	-0.860	-1.260
2020/01/31 18:57:12.3	75.410	0.810	-0.810	-1.230
2020/01/31 18:57:12.4	75.400	0.830	-0.760	-1.200
2020/01/31 18:57:12.5	75.400	0.840	-0.710	-1.170
2020/01/31 18:57:12.6	75.390	0.850	-0.660	-1.130
2020/01/31 18:57:12.7	75.390	0.860	-0.610	-1.080
2020/01/31 18:57:12.8	75.390	0.860	-0.550	-1.040
2020/01/31 18:57:12.9	75.380	0.860	-0.490	-0.980
2020/01/31 18:57:13.0	75.360	0.850	-0.440	-0.930
2020/01/31 18:57:13.1	75.350	0.840	-0.380	-0.870
2020/01/31 18:57:13.2	75.340	0.830	-0.330	-0.810
2020/01/31 18:57:13.3	75.320	0.810	-0.270	-0.740
2020/01/31 18:57:13.4	75.310	0.790	-0.220	-0.680
2020/01/31 18:57:13.5	75.290	0.770	-0.160	-0.610
2020/01/31 18:57:13.6	75.280	0.740	-0.110	-0.540
2020/01/31 18:57:13.7	75.260	0.720	-0.060	-0.470
2020/01/31 18:57:13.8	75.230	0.680	-0.010	-0.400
2020/01/31 18:57:13.9	75.210	0.650	0.030	-0.320
2020/01/31 18:57:14.0	75.190	0.610	0.080	-0.250
2020/01/31 18:57:14.1	75.180	0.580	0.120	-0.180
2020/01/31 18:57:14.2	75.160	0.540	0.170	-0.100
2020/01/31 18:57:14.3	75.140	0.500	0.200	-0.030
2020/01/31 18:57:14.4	75.120	0.450	0.240	0.040
2020/01/31 18:57:14.5	75.110	0.410	0.280	0.110
2020/01/31 18:57:14.6	75.090	0.370	0.310	0.180
2020/01/31 18:57:14.7	75.080	0.320	0.340	0.250
2020/01/31 18:57:14.8	75.070	0.280	0.370	0.320
2020/01/31 18:57:14.9	75.050	0.240	0.390	0.380
2020/01/31 18:57:15.0	75.040	0.200	0.410	0.450
2020/01/31 18:57:15.1	75.030	0.160	0.430	0.510
2020/01/31 18:57:15.2	75.030	0.120	0.450	0.570
2020/01/31 18:57:15.3	75.020	0.080	0.460	0.620
2020/01/31 18:57:15.4	75.020	0.040	0.480	0.680
2020/01/31 18:57:15.5	75.020	0.010	0.490	0.730
2020/01/31 18:57:15.6	75.020	-0.020	0.490	0.770
2020/01/31 18:57:15.7	75.030	-0.050	0.490	0.820
2020/01/31 18:57:15.8	75.040	-0.080	0.490	0.860
2020/01/31 18:57:15.9	75.050	-0.110	0.490	0.890
2020/01/31 18:57:16.0	75.060	-0.130	0.490	0.930
2020/01/31 18:57:16.1	75.070	-0.160	0.480	0.960
2020/01/31 18:57:16.2	75.090	-0.180	0.470	0.990
2020/01/31 18:57:16.3	75.100	-0.200	0.460	1.010
2020/01/31 18:57:16.4	75.120	-0.210	0.450	1.030
2020/01/31 18:57:16.5	75.140	-0.230	0.440	1.050
2020/01/31 18:57:16.6	75.160	-0.240	0.430	1.070
2020/01/31 18:57:16.7	75.180	-0.250	0.410	1.080
2020/01/31 18:57:16.8	75.210	-0.260	0.390	1.100
2020/01/31 18:57:16.9	75.230	-0.270	0.380	1.110
2020/01/31 18:57:17.0	75.250	-0.280	0.360	1.110
2020/01/31 18:57:17.1	75.270	-0.280	0.340	1.120
2020/01/31 18:57:17.2	75.290	-0.290	0.320	1.120
2020/01/31 18:57:17.3	75.310	-0.290	0.310	1.130
2020/01/31 18:57:17.4	75.330	-0.300	0.290	1.130
2020/01/31 18:57:17.5	75.350	-0.300	0.270	1.130
2020/01/31 18:57:17.6	75.370	-0.300	0.250	1.130
2020/01/31 18:57:17.7	75.390	-0.310	0.230	1.130
2020/01/31 18:57:17.8	75.410	-0.310	0.210	1.120
2020/01/31 18:57:17.9	75.420	-0.310	0.200	1.120
2020/01/31 18:57:18.0	75.440	-0.320	0.180	1.110
2020/01/31 18:57:18.1	75.450	-0.320	0.160	1.110
2020/01/31 18:57:18.2	75.460	-0.330	0.140	1.110
2020/01/31 18:57:18.3	75.480	-0.330	0.130	1.100
2020/01/31 18:57:18.4	75.490	-0.330	0.110	1.090
2020/01/31 18:57:18.5	75.490	-0.340	0.090	1.080
2020/01/31 18:57:18.6	75.500	-0.350	0.070	1.080
2020/01/31 18:57:18.7	75.510	-0.350	0.050	1.070
2020/01/31 18:57:18.8	75.510	-0.360	0.030	1.060
2020/01/31 18:57:18.9	75.520	-0.360	0.010	1.050
2020/01/31 18:57:19.0	75.520	-0.370	-0.000	1.040
2020/01/31 18:57:19.1	75.520	-0.380	-0.020	1.030
2020/01/31 18:57:19.2	75.520	-0.380	-0.040	1.020
2020/01/31 18:57:19.3	75.520	-0.390	-0.060	1.010
2020/01/31 18:57:19.4	75.520	-0.390	-0.080	1.000
2020/01/31 18:57:19.5	75.520	-0.400	-0.100	0.990
2020/01/31 18:57:19.6	75.520	-0.400	-0.130	0.980
2020/01/31 18:57:19.7	75.520	-0.400	-0.150	0.960
2020/01/31 18:57:19.8	75.520	-0.410	-0.170	0.950
2020/01/31 18:57:19.9	75.520	-0.410	-0.200	0.930
2020/01/31 18:57:20.0	75.510	-0.410	-0.220	0.920
2020/01/31 18:57:20.1	75.510	-0.400	-0.250	0.900
2020/01/31 18:57:20.2	75.510	-0.400	-0.270	0.890
2020/01/31 18:57:20.3	75.510	-0.400	-0.300	0.870
2020/01/31 18:57:20.4	75.510	-0.390	-0.330	0.850
2020/01/31 18:57:20.5	75.510	-0.380	-0.350	0.830
2020/01/31 18:57:20.6	75.510	-0.370	-0.380	0.820
2020/01/31 18:57:20.7	75.500	-0.360	-0.410	0.800
2020/01/31 18:57:20.8	75.500	-0.350	-0.440	0.770
2020/01/31 18:57:20.9	75.500	-0.330	-0.460	0.750
2020/01/31 18:57:21.0	75.500	-0.310	-0.490	0.730
2020/01/31 18:57:21.1	75.500	-0.290	-0.520	0.710
2020/01/31 18:57:21.2	75.500	-0.270	-0.540	0.680
2020/01/31 18:57:21.3	75.500	-0.250	-0.560	0.660
2020/01/31 18:57:21.4	75.500	-0.230	-0.590	0.630
2020/01/31 18:57:21.5	75.500	-0.200	-0.610	0.610
2020/01/31 18:57:21.6	75.500	-0.180	-0.630	0.590
2020/01/31 18:57:21.7	75.500	-0.150	-0.650	0.560
2020/01/31 18:57:21.8	75.500	-0.120	-0.670	0.530
2020/01/31 18:57:21.9	75.500	-0.090	-0.680	0.510
2020/01/31 18:57:22.0	75.500	-0.070	-0.700	0.490
2020/01/31 18:57:22.1	75.490	-0.040	-0.710	0.470
2020/01/31 18:57:22.2	75.490	-0.010	-0.720	0.450
2020/01/31 18:57:22.3	75.490	0.020	-0.740	0.430
2020/01/31 18:57:22.4	75.490	0.050	-0.740	0.410
2020/01/31 18:57:22.5	75.480	0.070	-0.750	0.400
2020/01/31 18:57:22.6	75.480	0.100	-0.760	0.380
2020/01/31 18:57:22.7	75.480	0.120	-0.760	0.370
2020/01/31 18:57:22.8	75.460	0.140	-0.760	0.360
2020/01/31 18:57:22.9	75.460	0.160	-0.760	0.350
2020/01/31 18:57:23.0	75.460	0.180	-0.760	0.340
2020/01/31 18:57:23.1	75.450	0.200	-0.750	0.340
2020/01/31 18:57:23.2	75.450	0.210	-0.750	0.330
2020/01/31 18:57:23.3	75.440	0.220	-0.740	0.330
2020/01/31 18:57:23.4	75.440	0.230	-0.730	0.330
2020/01/31 18:57:23.5	75.440	0.240	-0.720	0.320
2020/01/31 18:57:23.6	75.430	0.250	-0.710	0.320
2020/01/31 18:57:23.7	75.430	0.250	-0.690	0.320
2020/01/31 18:57:23.8	75.410	0.250	-0.680	0.320
2020/01/31 18:57:23.9	75.410	0.240	-0.660	0.310
2020/01/31 18:57:24.0	75.410	0.240	-0.640	0.310
2020/01/31 18:57:24.1	75.400	0.230	-0.620	0.310
2020/01/31 18:57:24.2	75.400	0.220	-0.600	0.310
2020/01/31 18:57:24.3	75.390	0.210	-0.570	0.310
2020/01/31 18:57:24.4	75.390	0.190	-0.550	0.300
2020/01/31 18:57:24.5	75.390	0.170	-0.520	0.300
2020/01/31 18:57:24.6	75.380	0.160	-0.490	0.290
2020/01/31 18:57:24.7	75.370	0.140	-0.450	0.280
2020/01/31 18:57:24.8	75.360	0.120	-0.410	0.270
2020/01/31 18:57:24.9	75.360	0.090	-0.370	0.260
2020/01/31 18:57:25.0	75.350	0.070	-0.330	0.250
2020/01/31 18:57:25.1	75.340	0.050	-0.290	0.240
2020/01/31 18:57:25.2	75.330	0.020	-0.250	0.220
2020/01/31 18:57:25.3	75.320	0.000	-0.200	0.200
2020/01/31 18:57:25.4	75.300	-0.020	-0.150	0.190
2020/01/31 18:57:25.5	75.290	-0.040	-0.100	0.170
2020/01/31 18:57:25.6	75.270	-0.070	-0.040	0.140
2020/01/31 18:57:25.7	75.260	-0.090	0.010	0.120
2020/01/31 18:57:25.8	75.250	-0.110	0.060	0.090
2020/01/31 18:57:25.9	75.230	-0.120	0.120	0.070
2020/01/31 18:57:26.0	75.210	-0.140	0.170	0.040
2020/01/31 18:57:26.1	75.190	-0.150	0.220	0.010
2020/01/31 18:57:26.2	75.170	-0.160	0.270	-0.020
2020/01/31 18:57:26.3	75.150	-0.170	0.320	-0.050
2020/01/31 18:57:26.4	75.130	-0.180	0.370	-0.080
2020/01/31 18:57:26.5	75.110	-0.190	0.410	-0.110
2020/01/31 18:57:26.6	75.090	-0.190	0.440	-0.150
2020/01/31 18:57:26.7	75.070	-0.190	0.480	-0.190
2020/01/31 18:57:26.8	75.060	-0.180	0.510	-0.220
2020/01/31 18:57:26.9	75.040	-0.170	0.530	-0.260
2020/01/31 18:57:27.0	75.030	-0.170	0.550	-0.300
2020/01/31 18:57:27.1	75.020	-0.150	0.560	-0.340
2020/01/31 18:57:27.2	75.010	-0.140	0.570	-0.380
2020/01/31 18:57:27.3	75.000	-0.120	0.570	-0.420
2020/01/31 18:57:27.4	74.990	-0.100	0.560	-0.460
2020/01/31 18:57:27.5	74.990	-0.080	0.550	-0.500
2020/01/31 18:57:27.6	74.980	-0.050	0.530	-0.540
2020/01/31 18:57:27.7	74.980	-0.020	0.510	-0.580
2020/01/31 18:57:27.8	74.990	0.010	0.480	-0.620
2020/01/31 18:57:27.9	74.990	0.040	0.440	-0.650
2020/01/31 18:57:28.0	74.990	0.070	0.410	-0.680
2020/01/31 18:57:28.1	75.000	0.110	0.360	-0.710
2020/01/31 18:57:28.2	75.000	0.140	0.310	-0.740
2020/01/31 18:57:28.3	75.010	0.180	0.260	-0.770
2020/01/31 18:57:28.4	75.020	0.220	0.210	-0.790
2020/01/31 18:57:28.5	75.030	0.250	0.150	-0.810
2020/01/31 18:57:28.6	75.040	0.290	0.090	-0.830
2020/01/31 18:57:28.7	75.050	0.330	0.020	-0.840
2020/01/31 18:57:28.8	75.060	0.360	-0.040	-0.850
2020/01/31 18:57:28.9	75.080	0.400	-0.110	-0.860
2020/01/31 18:57:29.0	75.090	0.430	-0.180	-0.870
2020/01/31 18:57:29.1	75.110	0.460	-0.240	-0.870
2020/01/31 18:57:29.2	75.120	0.490	-0.310	-0.870
2020/01/31 18:57:29.3	75.140	0.520	-0.370	-0.870
2020/01/31 18:57:29.4	75.160	0.540	-0.440	-0.870
2020/01/31 18:57:29.5	75.170	0.560	-0.500	-0.860
2020/01/31 18:57:29.6	75.190	0.580	-0.550	-0.850
2020/01/31 18:57:29.7	75.210	0.600	-0.610	-0.840
2020/01/31 18:57:29.8	75.230	0.610	-0.660	-0.830
2020/01/31 18:57:29.9	75.250	0.620	-0.710	-0.810
2020/01/31 18:57:30.0	75.260	0.620	-0.750	-0.790
2020/01/31 18:57:30.1	75.280	0.620	-0.780	-0.770
2020/01/31 18:57:30.2	75.290	0.610	-0.810	-0.740
2020/01/31 18:57:30.3	75.310	0.600	-0.830	-0.710
2020/01/31 18:57:30.4	75.320	0.590	-0.850	-0.680
2020/01/31 18:57:30.5	75.340	0.570	-0.860	-0.650
2020/01/31 18:57:30.6	75.350	0.550	-0.860	-0.620
2020/01/31 18:57:30.7	75.360	0.530	-0.860	-0.580
2020/01/31 18:57:30.8	75.360	0.500	-0.850	-0.530
2020/01/31 18:57:30.9	75.370	0.470	-0.840	-0.490
2020/01/31 18:57:31.0	75.370	0.430	-0.810	-0.450
2020/01/31 18:57:31.1	75.380	0.390	-0.780	-0.400
2020/01/31 18:57:31.2	75.380	0.350	-0.750	-0.350
2020/01/31 18:57:31.3	75.380	0.310	-0.710	-0.300
2020/01/31 18:57:31.4	75.370	0.260	-0.660	-0.240
2020/01/31 18:57:31.5	75.370	0.210	-0.610	-0.190
2020/01/31 18:57:31.6	75.360	0.160	-0.550	-0.130
2020/01/31 18:57:31.7	75.350	0.110	-0.490	-0.070
2020/01/31 18:57:31.8	75.340	0.060	-0.420	-0.010
2020/01/31 18:57:31.9	75.330	0.010	-0.350	0.060
2020/01/31 18:57:32.0	75.320	-0.040	-0.290	0.120
2020/01/31 18:57:32.1	75.310	-0.090	-0.210	0.190
2020/01/31 18:57:32.2	75.290	-0.140	-0.140	0.270
2020/01/31 18:57:32.3	75.280	-0.190	-0.070	0.340
2020/01/31 18:57:32.4	75.260	-0.240	-0.000	0.410
2020/01/31 18:57:32.5	75.240	-0.290	0.060	0.490
2020/01/31 18:57:32.6	75.230	-0.330	0.130	0.560
2020/01/31 18:57:32.7	75.210	-0.380	0.190	0.630
2020/01/31 18:57:32.8	75.190	-0.420	0.250	0.710
2020/01/31 18:57:32.9	75.170	-0.460	0.310	0.790
2020/01/31 18:57:33.0	75.160	-0.490	0.360	0.860
2020/01/31 18:57:33.1	75.140	-0.530	0.410	0.930
2020/01/31 18:57:33.2	75.120	-0.560	0.450	1.000
2020/01/31 18:57:33.3	75.110	-0.580	0.490	1.080
2020/01/31 18:57:33.4	75.100	-0.610	0.520	1.150
2020/01/31 18:57:33.5	75.080	-0.630	0.550	1.210
2020/01/31 18:57:33.6	75.070	-0.640	0.570	1.280
2020/01/31 18:57:33.7	75.060	-0.660	0.580	1.350
2020/01/31 18:57:33.8	75.030	-0.670	0.590	1.410
2020/01/31 18:57:33.9	75.020	-0.670	0.590	1.470
2020/01/31 18:57:34.0	75.010	-0.680	0.590	1.530
2020/01/31 18:57:34.1	75.000	-0.680	0.580	1.580
2020/01/31 18:57:34.2	74.990	-0.670	0.560	1.640
2020/01/31 18:57:34.3	74.980	-0.660	0.540	1.690
2020/01/31 18:57:34.4	74.970	-0.650	0.520	1.730
2020/01/31 18:57:34.5	74.970	-0.640	0.490	1.770
2020/01/31 18:57:34.6	74.960	-0.620	0.450	1.810
2020/01/31 18:57:34.7	74.960	-0.600	0.410	1.850
2020/01/31 18:57:34.8	74.950	-0.580	0.360	1.880
2020/01/31 18:57:34.9	74.950	-0.550	0.310	1.900
2020/01/31 18:57:35.0	74.950	-0.530	0.260	1.920
2020/01/31 18:57:35.1	74.960	-0.500	0.200	1.930
2020/01/31 18:57:35.2	74.960	-0.460	0.140	1.940
2020/01/31 18:57:35.3	74.970	-0.430	0.070	1.940
2020/01/31 18:57:35.4	74.980	-0.400	0.010	1.940
2020/01/31 18:57:35.5	75.000	-0.360	-0.060	1.930
2020/01/31 18:57:35.6	75.010	-0.320	-0.130	1.910
2020/01/31 18:57:35.7	75.030	-0.290	-0.200	1.890
2020/01/31 18:57:35.8	75.050	-0.250	-0.260	1.860
2020/01/31 18:57:35.9	75.070	-0.210	-0.330	1.830
2020/01/31 18:57:36.0	75.100	-0.170	-0.390	1.800
2020/01/31 18:57:36.1	75.120	-0.140	-0.450	1.760
2020/01/31 18:57:36.2	75.140	-0.100	-0.510	1.720
2020/01/31 18:57:36.3	75.170	-0.060	-0.570	1.670
2020/01/31 18:57:36.4	75.190	-0.030	-0.620	1.620
2020/01/31 18:57:36.5	75.220	0.000	-0.660	1.570
2020/01/31 18:57:36.6	75.240	0.040	-0.700	1.520
2020/01/31 18:57:36.7	75.260	0.070	-0.740	1.460
2020/01/31 18:57:36.8	75.290	0.090	-0.770	1.410
2020/01/31 18:57:36.9	75.310	0.120	-0.790	1.350
2020/01/31 18:57:37.0	75.330	0.140	-0.810	1.290
2020/01/31 18:57:37.1	75.340	0.170	-0.810	1.240
2020/01/31 18:57:37.2	75.360	0.180	-0.820	1.180
2020/01/31 18:57:37.3	75.370	0.200	-0.810	1.120
2020/01/31 18:57:37.4	75.370	0.210	-0.800	1.070
2020/01/31 18:57:37.5	75.380	0.220	-0.780	1.020
2020/01/31 18:57:37.6	75.380	0.230	-0.750	0.970
2020/01/31 18:57:37.7	75.380	0.240	-0.720	0.920
2020/01/31 18:57:37.8	75.380	0.240	-0.680	0.860
2020/01/31 18:57:37.9	75.370	0.240	-0.640	0.820
2020/01/31 18:57:38.0	75.350	0.240	-0.590	0.770
2020/01/31 18:57:38.1	75.340	0.230	-0.540	0.730
2020/01/31 18:57:38.2	75.320	0.220	-0.490	0.690
2020/01/31 18:57:38.3	75.300	0.210	-0.430	0.650
2020/01/31 18:57:38.4	75.280	0.200	-0.380	0.610
2020/01/31 18:57:38.5	75.250	0.190	-0.320	0.580
2020/01/31 18:57:38.6	75.220	0.170	-0.260	0.540
2020/01/31 18:57:38.7	75.200	0.160	-0.210	0.510
2020/01/31 18:57:38.8	75.170	0.140	-0.150	0.470
2020/01/31 18:57:38.9	75.130	0.120	-0.100	0.440
2020/01/31 18:57:39.0	75.100	0.110	-0.050	0.410
2020/01/31 18:57:39.1	75.070	0.090	-0.010	0.380
2020/01/31 18:57:39.2	75.030	0.070	0.030	0.340
2020/01/31 18:57:39.3	75.000	0.060	0.070	0.310
2020/01/31 18:57:39.4	74.970	0.040	0.090	0.280
2020/01/31 18:57:39.5	74.930	0.030	0.120	0.250
2020/01/31 18:57:39.6	74.900	0.020	0.130	0.220
2020/01/31 18:57:39.7	74.870	0.010	0.140	0.180
2020/01/31 18:57:39.8	74.850	0.000	0.150	0.140
2020/01/31 18:57:39.9	74.820	-0.000	0.140	0.110
2020/01/31 18:57:40.0	74.790	-0.010	0.130	0.070
2020/01/31 18:57:40.1	74.770	-0.010	0.120	0.030
2020/01/31 18:57:40.2	74.750	-0.010	0.090	-0.020
2020/01/31 18:57:40.3	74.730	-0.000	0.070	-0.060
2020/01/31 18:57:40.4	74.720	0.000	0.030	-0.110
2020/01/31 18:57:40.5	74.700	0.010	-0.000	-0.150
2020/01/31 18:57:40.6	74.690	0.020	-0.050	-0.200
2020/01/31 18:57:40.7	74.690	0.030	-0.090	-0.260
2020/01/31 18:57:40.8	74.690	0.050	-0.140	-0.310
2020/01/31 18:57:40.9	74.690	0.060	-0.190	-0.370
2020/01/31 18:57:41.0	74.690	0.080	-0.240	-0.420
2020/01/31 18:57:41.1	74.690	0.100	-0.290	-0.480
2020/01/31 18:57:41.2	74.690	0.120	-0.340	-0.540
2020/01/31 18:57:41.3	74.690	0.140	-0.390	-0.600
2020/01/31 18:57:41.4	74.700	0.160	-0.430	-0.650
2020/01/31 18:57:41.5	74.700	0.180	-0.480	-0.710
2020/01/31 18:57:41.6	74.710	0.210	-0.520	-0.770
2020/01/31 18:57:41.7	74.720	0.230	-0.560	-0.830
2020/01/31 18:57:41.8	74.720	0.250	-0.590	-0.890
2020/01/31 18:57:41.9	74.730	0.270	-0.620	-0.940
2020/01/31 18:57:42.0	74.730	0.290	-0.650	-0.990
2020/01/31 18:57:42.1	74.740	0.310	-0.670	-1.050
2020/01/31 18:57:42.2	74.750	0.330	-0.690	-1.090
2020/01/31 18:57:42.3	74.760	0.340	-0.700	-1.140
2020/01/31 18:57:42.4	74.760	0.360	-0.700	-1.180
2020/01/31 18:57:42.5	74.770	0.370	-0.710	-1.220
2020/01/31 18:57:42.6	74.770	0.380	-0.700	-1.260
2020/01/31 18:57:42.7	74.780	0.390	-0.690	-1.290
2020/01/31 18:57:42.8	74.790	0.390	-0.670	-1.310
2020/01/31 18:57:42.9	74.790	0.400	-0.650	-1.340
2020/01/31 18:57:43.0	74.790	0.400	-0.630	-1.350
2020/01/31 18:57:43.1	74.800	0.400	-0.600	-1.370
2020/01/31 18:57:43.2	74.800	0.400	-0.560	-1.370
2020/01/31 18:57:43.3	74.800	0.390	-0.520	-1.370
2020/01/31 18:57:43.4	74.800	0.380	-0.480	-1.370
2020/01/31 18:57:43.5	74.800	0.370	-0.440	-1.360
2020/01/31 18:57:43.6	74.800	0.360	-0.390	-1.350
2020/01/31 18:57:43.7	74.800	0.350	-0.340	-1.330
2020/01/31 18:57:43.8	74.790	0.330	-0.300	-1.300
2020/01/31 18:57:43.9	74.790	0.320	-0.250	-1.270
2020/01/31 18:57:44.0	74.790	0.300	-0.200	-1.240
2020/01/31 18:57:44.1	74.780	0.280	-0.150	-1.200
2020/01/31 18:57:44.2	74.780	0.250	-0.100	-1.150
2020/01/31 18:57:44.3	74.770	0.230	-0.050	-1.110
2020/01/31 18:57:44.4	74.770	0.200	-0.010	-1.050
2020/01/31 18:57:44.5	74.760	0.180	0.040	-1.000
2020/01/31 18:57:44.6	74.760	0.150	0.080	-0.930
2020/01/31 18:57:44.7	74.750	0.120	0.110	-0.870
2020/01/31 18:57:44.8	74.750	0.090	0.150	-0.800
2020/01/31 18:57:44.9	74.750	0.070	0.180	-0.730
2020/01/31 18:57:45.0	74.750	0.040	0.210	-0.650
2020/01/31 18:57:45.1	74.750	0.010	0.230	-0.580
2020/01/31 18:57:45.2	74.750	-0.020	0.260	-0.500
2020/01/31 18:57:45.3	74.750	-0.050	0.270	-0.420
2020/01/31 18:57:45.4	74.750	-0.080	0.290	-0.330
2020/01/31 18:57:45.5	74.750	-0.110	0.300	-0.250
2020/01/31 18:57:45.6	74.750	-0.130	0.310	-0.160
2020/01/31 18:57:45.7	74.760	-0.160	0.310	-0.070
2020/01/31 18:57:45.8	74.770	-0.180	0.310	0.020
2020/01/31 18:57:45.9	74.770	-0.210	0.310	0.110
2020/01/31 18:57:46.0	74.780	-0.230	0.310	0.200
2020/01/31 18:57:46.1	74.790	-0.260	0.300	0.290
2020/01/31 18:57:46.2	74.800	-0.280	0.290	0.380
2020/01/31 18:57:46.3	74.820	-0.300	0.280	0.470
2020/01/31 18:57:46.4	74.830	-0.320	0.270	0.550
2020/01/31 18:57:46.5	74.840	-0.330	0.260	0.640
2020/01/31 18:57:46.6	74.850	-0.350	0.240	0.730
2020/01/31 18:57:46.7	74.870	-0.360	0.230	0.810
2020/01/31 18:57:46.8	74.870	-0.380	0.210	0.900
2020/01/31 18:57:46.9	74.880	-0.390	0.200	0.980
2020/01/31 18:57:47.0	74.890	-0.400	0.190	1.060
2020/01/31 18:57:47.1	74.900	-0.410	0.170	1.130
2020/01/31 18:57:47.2	74.910	-0.420	0.160	1.200
2020/01/31 18:57:47.3	74.920	-0.430	0.150	1.280
2020/01/31 18:57:47.4	74.930	-0.430	0.140	1.340
2020/01/31 18:57:47.5	74.940	-0.440	0.130	1.400
2020/01/31 18:57:47.6	74.940	-0.440	0.130	1.460
2020/01/31 18:57:47.7	74.940	-0.450	0.120	1.520
2020/01/31 18:57:47.8	74.940	-0.450	0.120	1.570
2020/01/31 18:57:47.9	74.940	-0.450	0.120	1.620
2020/01/31 18:57:48.0	74.940	-0.450	0.120	1.670
2020/01/31 18:57:48.1	74.940	-0.450	0.120	1.710
2020/01/31 18:57:48.2	74.930	-0.450	0.130	1.750
2020/01/31 18:57:48.3	74.920	-0.450	0.140	1.790
2020/01/31 18:57:48.4	74.910	-0.450	0.140	1.830
2020/01/31 18:57:48.5	74.900	-0.450	0.150	1.860
2020/01/31 18:57:48.6	74.880	-0.440	0.160	1.890
2020/01/31 18:57:48.7	74.860	-0.440	0.170	1.920
2020/01/31 18:57:48.8	74.840	-0.430	0.180	1.940
2020/01/31 18:57:48.9	74.810	-0.430	0.190	1.970
2020/01/31 18:57:49.0	74.790	-0.420	0.200	1.990
2020/01/31 18:57:49.1	74.770	-0.410	0.200	2.010
2020/01/31 18:57:49.2	74.740	-0.400	0.200	2.020
2020/01/31 18:57:49.3	74.710	-0.390	0.210	2.040
2020/01/31 18:57:49.4	74.690	-0.380	0.200	2.050
2020/01/31 18:57:49.5	74.660	-0.370	0.200	2.050
2020/01/31 18:57:49.6	74.630	-0.360	0.190	2.060
2020/01/31 18:57:49.7	74.600	-0.340	0.170	2.060
2020/01/31 18:57:49.8	74.580	-0.330	0.160	2.050
2020/01/31 18:57:49.9	74.550	-0.310	0.130	2.050
2020/01/31 18:57:50.0	74.520	-0.290	0.100	2.030
2020/01/31 18:57:50.1	74.500	-0.270	0.070	2.020
2020/01/31 18:57:50.2	74.480	-0.250	0.030	2.000
2020/01/31 18:57:50.3	74.460	-0.230	-0.020	1.980
2020/01/31 18:57:50.4	74.440	-0.200	-0.070	1.950
2020/01/31 18:57:50.5	74.420	-0.170	-0.120	1.920
2020/01/31 18:57:50.6	74.400	-0.150	-0.180	1.890
2020/01/31 18:57:50.7	74.390	-0.120	-0.240	1.850
2020/01/31 18:57:50.8	74.370	-0.090	-0.300	1.800
2020/01/31 18:57:50.9	74.360	-0.050	-0.370	1.760
2020/01/31 18:57:51.0	74.350	-0.020	-0.440	1.710
2020/01/31 18:57:51.1	74.350	0.020	-0.520	1.660
2020/01/31 18:57:51.2	74.340	0.050	-0.590	1.610
2020/01/31 18:57:51.3	74.340	0.090	-0.670	1.560
2020/01/31 18:57:51.4	74.350	0.130	-0.740	1.500
2020/01/31 18:57:51.5	74.350	0.170	-0.820	1.440
2020/01/31 18:57:51.6	74.360	0.210	-0.890	1.370
2020/01/31 18:57:51.7	74.370	0.250	-0.970	1.310
2020/01/31 18:57:51.8	74.370	0.290	-1.040	1.240
2020/01/31 18:57:51.9	74.390	0.330	-1.100	1.170
2020/01/31 18:57:52.0	74.400	0.370	-1.170	1.100
2020/01/31 18:57:52.1	74.410	0.410	-1.230	1.020
2020/01/31 18:57:52.2	74.430	0.450	-1.280	0.950
2020/01/31 18:57:52.3	74.450	0.490	-1.330	0.870
2020/01/31 18:57:52.4	74.460	0.520	-1.380	0.790
2020/01/31 18:57:52.5	74.480	0.560	-1.410	0.720
2020/01/31 18:57:52.6	74.500	0.590	-1.440	0.640
2020/01/31 18:57:52.7	74.510	0.620	-1.460	0.560
2020/01/31 18:57:52.8	74.530	0.640	-1.480	0.480
2020/01/31 18:57:52.9	74.540	0.670	-1.480	0.400
2020/01/31 18:57:53.0	74.560	0.690	-1.480	0.330
2020/01/31 18:57:53.1	74.570	0.710	-1.460	0.250
2020/01/31 18:57:53.2	74.580	0.720	-1.440	0.180
2020/01/31 18:57:53.3	74.590	0.730	-1.410	0.110
2020/01/31 18:57:53.4	74.600	0.740	-1.360	0.040
2020/01/31 18:57:53.5	74.600	0.740	-1.310	-0.020
2020/01/31 18:57:53.6	74.610	0.740	-1.250	-0.090
2020/01/31 18:57:53.7	74.610	0.730	-1.180	-0.150
2020/01/31 18:57:53.8	74.610	0.720	-1.100	-0.210
2020/01/31 18:57:53.9	74.610	0.710	-1.010	-0.260
2020/01/31 18:57:54.0	74.610	0.690	-0.910	-0.310
2020/01/31 18:57:54.1	74.600	0.660	-0.810	-0.360
2020/01/31 18:57:54.2	74.590	0.640	-0.710	-0.400
2020/01/31 18:57:54.3	74.580	0.610	-0.600	-0.440
2020/01/31 18:57:54.4	74.560	0.570	-0.480	-0.480
2020/01/31 18:57:54.5	74.540	0.530	-0.360	-0.520
2020/01/31 18:57:54.6	74.520	0.490	-0.240	-0.550
2020/01/31 18:57:54.7	74.500	0.450	-0.120	-0.570
2020/01/31 18:57:54.8	74.490	0.400	0.000	-0.590
2020/01/31 18:57:54.9	74.470	0.350	0.120	-0.610
2020/01/31 18:57:55.0	74.440	0.300	0.240	-0.630
2020/01/31 18:57:55.1	74.410	0.250	0.360	-0.640
2020/01/31 18:57:55.2	74.380	0.200	0.460	-0.650
2020/01/31 18:57:55.3	74.360	0.150	0.570	-0.660
2020/01/31 18:57:55.4	74.330	0.090	0.670	-0.660
2020/01/31 18:57:55.5	74.300	0.040	0.760	-0.660
2020/01/31 18:57:55.6	74.270	-0.010	0.840	-0.660
2020/01/31 18:57:55.7	74.240	-0.060	0.920	-0.660
2020/01/31 18:57:55.8	74.210	-0.110	0.980	-0.660
2020/01/31 18:57:55.9	74.180	-0.160	1.040	-0.650
2020/01/31 18:57:56.0	74.160	-0.200	1.090	-0.640
2020/01/31 18:57:56.1	74.140	-0.240	1.120	-0.630
2020/01/31 18:57:56.2	74.120	-0.280	1.150	-0.620
2020/01/31 18:57:56.3	74.100	-0.310	1.170	-0.610
2020/01/31 18:57:56.4	74.080	-0.340	1.180	-0.590
2020/01/31 18:57:56.5	74.060	-0.370	1.170	-0.580
2020/01/31 18:57:56.6	74.050	-0.390	1.160	-0.560
2020/01/31 18:57:56.7	74.040	-0.410	1.140	-0.550
2020/01/31 18:57:56.8	74.030	-0.430	1.100	-0.530
2020/01/31 18:57:56.9	74.030	-0.440	1.070	-0.510
2020/01/31 18:57:57.0	74.020	-0.450	1.020	-0.490
2020/01/31 18:57:57.1	74.020	-0.450	0.970	-0.470
2020/01/31 18:57:57.2	74.020	-0.450	0.910	-0.450
2020/01/31 18:57:57.3	74.020	-0.450	0.840	-0.430
2020/01/31 18:57:57.4	74.020	-0.450	0.770	-0.410
2020/01/31 18:57:57.5	74.030	-0.440	0.690	-0.390
2020/01/31 18:57:57.6	74.030	-0.420	0.610	-0.370
2020/01/31 18:57:57.7	74.040	-0.410	0.530	-0.350
2020/01/31 18:57:57.8	74.060	-0.390	0.440	-0.330
2020/01/31 18:57:57.9	74.070	-0.370	0.360	-0.300
2020/01/31 18:57:58.0	74.080	-0.350	0.270	-0.280
2020/01/31 18:57:58.1	74.100	-0.330	0.180	-0.260
2020/01/31 18:57:58.2	74.110	-0.300	0.090	-0.240
2020/01/31 18:57:58.3	74.120	-0.280	0.000	-0.220
2020/01/31 18:57:58.4	74.140	-0.250	-0.080	-0.200
2020/01/31 18:57:58.5	74.150	-0.230	-0.170	-0.180
2020/01/31 18:57:58.6	74.170	-0.200	-0.250	-0.160
2020/01/31 18:57:58.7	74.180	-0.180	-0.320	-0.140
2020/01/31 18:57:58.8	74.200	-0.160	-0.400	-0.120
2020/01/31 18:57:58.9	74.210	-0.140	-0.470	-0.100
2020/01/31 18:57:59.0	74.220	-0.120	-0.530	-0.080
2020/01/31 18:57:59.1	74.240	-0.100	-0.590	-0.060
2020/01/31 18:57:59.2	74.250	-0.090	-0.640	-0.040
2020/01/31 18:57:59.3	74.260	-0.070	-0.690	-0.020
2020/01/31 18:57:59.4	74.270	-0.060	-0.730	-0.000
2020/01/31 18:57:59.5	74.280	-0.050	-0.760	0.020
2020/01/31 18:57:59.6	74.290	-0.040	-0.790	0.030
2020/01/31 18:57:59.7	74.290	-0.040	-0.810	0.050
2020/01/31 18:57:59.8	74.300	-0.040	-0.830	0.070
2020/01/31 18:57:59.9	74.300	-0.040	-0.840	0.080
2020/01/31 18:58:00.0	74.300	-0.040	-0.840	0.100
2020/01/31 18:58:00.1	74.310	-0.040	-0.840	0.120
2020/01/31 18:58:00.2	74.310	-0.050	-0.830	0.130
2020/01/31 18:58:00.3	74.300	-0.050	-0.820	0.140
2020/01/31 18:58:00.4	74.300	-0.060	-0.810	0.160
2020/01/31 18:58:00.5	74.290	-0.070	-0.790	0.170
2020/01/31 18:58:00.6	74.290	-0.080	-0.770	0.190
2020/01/31 18:58:00.7	74.280	-0.090	-0.740	0.200
2020/01/31 18:58:00.8	74.260	-0.090	-0.710	0.220
2020/01/31 18:58:00.9	74.250	-0.100	-0.680	0.230
2020/01/31 18:58:01.0	74.230	-0.110	-0.650	0.250
2020/01/31 18:58:01.1	74.220	-0.120	-0.610	0.270
2020/01/31 18:58:01.2	74.200	-0.120	-0.580	0.290
2020/01/31 18:58:01.3	74.180	-0.120	-0.540	0.320
2020/01/31 18:58:01.4	74.150	-0.120	-0.500	0.340
2020/01/31 18:58:01.5	74.130	-0.120	-0.460	0.370
2020/01/31 18:58:01.6	74.100	-0.120	-0.430	0.410
2020/01/31 18:58:01.7	74.080	-0.110	-0.390	0.440
2020/01/31 18:58:01.8	74.050	-0.110	-0.350	0.470
2020/01/31 18:58:01.9	74.020	-0.100	-0.310	0.510
2020/01/31 18:58:02.0	73.980	-0.080	-0.280	0.560
2020/01/31 18:58:02.1	73.950	-0.070	-0.250	0.600
2020/01/31 18:58:02.2	73.920	-0.050	-0.220	0.650
2020/01/31 18:58:02.3	73.880	-0.030	-0.190	0.700
2020/01/31 18:58:02.4	73.850	-0.010	-0.160	0.750
2020/01/31 18:58:02.5	73.820	0.020	-0.140	0.810
2020/01/31 18:58:02.6	73.780	0.040	-0.120	0.860
2020/01/31 18:58:02.7	73.750	0.070	-0.100	0.920
2020/01/31 18:58:02.8	73.710	0.100	-0.090	0.980
2020/01/31 18:58:02.9	73.680	0.130	-0.080	1.040
2020/01/31 18:58:03.0	73.650	0.160	-0.070	1.110
2020/01/31 18:58:03.1	73.620	0.190	-0.060	1.170
2020/01/31 18:58:03.2	73.600	0.220	-0.060	1.230
2020/01/31 18:58:03.3	73.570	0.250	-0.060	1.290
2020/01/31 18:58:03.4	73.550	0.270	-0.070	1.340
2020/01/31 18:58:03.5	73.530	0.300	-0.070	1.400
2020/01/31 18:58:03.6	73.520	0.320	-0.080	1.450
2020/01/31 18:58:03.7	73.510	0.340	-0.100	1.500
2020/01/31 18:58:03.8	73.500	0.360	-0.110	1.540
2020/01/31 18:58:03.9	73.500	0.380	-0.130	1.580
2020/01/31 18:58:04.0	73.500	0.400	-0.150	1.620
2020/01/31 18:58:04.1	73.500	0.410	-0.170	1.650
2020/01/31 18:58:04.2	73.510	0.410	-0.190	1.670
2020/01/31 18:58:04.3	73.520	0.420	-0.210	1.690
2020/01/31 18:58:04.4	73.530	0.420	-0.230	1.700
2020/01/31 18:58:04.5	73.550	0.410	-0.260	1.700
2020/01/31 18:58:04.6	73.570	0.410	-0.280	1.700
2020/01/31 18:58:04.7	73.590	0.390	-0.300	1.690
2020/01/31 18:58:04.8	73.600	0.380	-0.320	1.670
2020/01/31 18:58:04.9	73.630	0.360	-0.340	1.650
2020/01/31 18:58:05.0	73.660	0.340	-0.350	1.620
2020/01/31 18:58:05.1	73.690	0.310	-0.370	1.590
2020/01/31 18:58:05.2	73.720	0.280	-0.380	1.550
2020/01/31 18:58:05.3	73.750	0.250	-0.380	1.500
2020/01/31 18:58:05.4	73.770	0.210	-0.390	1.450
2020/01/31 18:58:05.5	73.800	0.180	-0.390	1.400
2020/01/31 18:58:05.6	73.830	0.140	-0.380	1.340
2020/01/31 18:58:05.7	73.850	0.100	-0.370	1.280
2020/01/31 18:58:05.8	73.880	0.050	-0.360	1.210
2020/01/31 18:58:05.9	73.900	0.010	-0.340	1.140
2020/01/31 18:58:06.0	73.920	-0.030	-0.310	1.080
2020/01/31 18:58:06.1	73.930	-0.080	-0.290	1.010
2020/01/31 18:58:06.2	73.940	-0.120	-0.250	0.950
2020/01/31 18:58:06.3	73.950	-0.160	-0.220	0.890
2020/01/31 18:58:06.4	73.950	-0.200	-0.170	0.820
2020/01/31 18:58:06.5	73.950	-0.240	-0.130	0.770
2020/01/31 18:58:06.6	73.950	-0.280	-0.080	0.710
2020/01/31 18:58:06.7	73.940	-0.320	-0.030	0.650
2020/01/31 18:58:06.8	73.920	-0.350	0.020	0.600
2020/01/31 18:58:06.9	73.900	-0.380	0.080	0.550
2020/01/31 18:58:07.0	73.880	-0.410	0.130	0.510
2020/01/31 18:58:07.1	73.860	-0.430	0.190	0.460
2020/01/31 18:58:07.2	73.830	-0.450	0.240	0.420
2020/01/31 18:58:07.3	73.800	-0.470	0.290	0.380
2020/01/31 18:58:07.4	73.760	-0.490	0.340	0.350
2020/01/31 18:58:07.5	73.720	-0.500	0.380	0.320
2020/01/31 18:58:07.6	73.680	-0.510	0.420	0.290
2020/01/31 18:58:07.7	73.640	-0.510	0.460	0.260
2020/01/31 18:58:07.8	73.600	-0.510	0.490	0.240
2020/01/31 18:58:07.9	73.560	-0.510	0.510	0.210
2020/01/31 18:58:08.0	73.520	-0.500	0.520	0.190
2020/01/31 18:58:08.1	73.470	-0.490	0.530	0.170
2020/01/31 18:58:08.2	73.430	-0.470	0.530	0.160
2020/01/31 18:58:08.3	73.390	-0.460	0.520	0.140
2020/01/31 18:58:08.4	73.350	-0.440	0.510	0.120
2020/01/31 18:58:08.5	73.310	-0.410	0.480	0.110
2020/01/31 18:58:08.6	73.270	-0.390	0.450	0.090
2020/01/31 18:58:08.7	73.240	-0.360	0.410	0.070
2020/01/31 18:58:08.8	73.200	-0.330	0.360	0.060
2020/01/31 18:58:08.9	73.180	-0.290	0.310	0.040
2020/01/31 18:58:09.0	73.150	-0.260	0.250	0.020
2020/01/31 18:58:09.1	73.130	-0.220	0.180	-0.000
2020/01/31 18:58:09.2	73.120	-0.190	0.110	-0.030
2020/01/31 18:58:09.3	73.110	-0.150	0.040	-0.050
2020/01/31 18:58:09.4	73.100	-0.110	-0.040	-0.070
2020/01/31 18:58:09.5	73.090	-0.070	-0.120	-0.100
2020/01/31 18:58:09.6	73.090	-0.030	-0.210	-0.130
2020/01/31 18:58:09.7	73.090	0.010	-0.300	-0.160
2020/01/31 18:58:09.8	73.100	0.050	-0.380	-0.200
2020/01/31 18:58:09.9	73.110	0.080	-0.470	-0.230
2020/01/31 18:58:10.0	73.120	0.120	-0.560	-0.270
2020/01/31 18:58:10.1	73.130	0.150	-0.640	-0.300
2020/01/31 18:58:10.2	73.150	0.190	-0.720	-0.340
2020/01/31 18:58:10.3	73.170	0.220	-0.800	-0.380
2020/01/31 18:58:10.4	73.190	0.250	-0.870	-0.420
2020/01/31 18:58:10.5	73.210	0.280	-0.940	-0.460
2020/01/31 18:58:10.6	73.230	0.310	-1.000	-0.500
2020/01/31 18:58:10.7	73.250	0.330	-1.060	-0.540
2020/01/31 18:58:10.8	73.270	0.360	-1.110	-0.580
2020/01/31 18:58:10.9	73.300	0.380	-1.150	-0.620
2020/01/31 18:58:11.0	73.320	0.400	-1.180	-0.660
2020/01/31 18:58:11.1	73.340	0.420	-1.210	-0.690
2020/01/31 18:58:11.2	73.360	0.430	-1.220	-0.720
2020/01/31 18:58:11.3	73.380	0.450	-1.230	-0.750
2020/01/31 18:58:11.4	73.400	0.460	-1.220	-0.770
2020/01/31 18:58:11.5	73.420	0.470	-1.210	-0.790
2020/01/31 18:58:11.6	73.440	0.470	-1.180	-0.810
2020/01/31 18:58:11.7	73.450	0.480	-1.150	-0.820
2020/01/31 18:58:11.8	73.470	0.480	-1.100	-0.830
2020/01/31 18:58:11.9	73.480	0.480	-1.050	-0.840
2020/01/31 18:58:12.0	73.490	0.480	-1.000	-0.830
2020/01/31 18:58:12.1	73.500	0.470	-0.930	-0.830
2020/01/31 18:58:12.2	73.500	0.470	-0.860	-0.820
2020/01/31 18:58:12.3	73.510	0.460	-0.780	-0.800
2020/01/31 18:58:12.4	73.510	0.450	-0.690	-0.780
2020/01/31 18:58:12.5	73.510	0.430	-0.600	-0.750
2020/01/31 18:58:12.6	73.510	0.420	-0.510	-0.720
2020/01/31 18:58:12.7	73.510	0.400	-0.410	-0.690
2020/01/31 18:58:12.8	73.500	0.380	-0.320	-0.650
2020/01/31 18:58:12.9	73.500	0.360	-0.220	-0.600
2020/01/31 18:58:13.0	73.500	0.340	-0.130	-0.560
2020/01/31 18:58:13.1	73.500	0.310	-0.030	-0.510
2020/01/31 18:58:13.2	73.490	0.290	0.060	-0.450
2020/01/31 18:58:13.3	73.490	0.260	0.160	-0.400
2020/01/31 18:58:13.4	73.490	0.230	0.240	-0.340
2020/01/31 18:58:13.5	73.490	0.200	0.330	-0.280
2020/01/31 18:58:13.6	73.490	0.170	0.400	-0.220
2020/01/31 18:58:13.7	73.490	0.140	0.480	-0.160
2020/01/31 18:58:13.8	73.490	0.110	0.540	-0.100
2020/01/31 18:58:13.9	73.490	0.080	0.600	-0.040
2020/01/31 18:58:14.0	73.490	0.050	0.650	0.030
2020/01/31 18:58:14.1	73.490	0.020	0.700	0.090
2020/01/31 18:58:14.2	73.500	-0.010	0.730	0.150
2020/01/31 18:58:14.3	73.500	-0.040	0.760	0.220
2020/01/31 18:58:14.4	73.510	-0.070	0.780	0.280
2020/01/31 18:58:14.5	73.510	-0.100	0.790	0.340
2020/01/31 18:58:14.6	73.520	-0.120	0.790	0.400
2020/01/31 18:58:14.7	73.520	-0.150	0.790	0.460
2020/01/31 18:58:14.8	73.520	-0.180	0.780	0.520
2020/01/31 18:58:14.9	73.520	-0.200	0.760	0.580
2020/01/31 18:58:15.0	73.530	-0.220	0.740	0.630
2020/01/31 18:58:15.1	73.530	-0.240	0.710	0.690
2020/01/31 18:58:15.2	73.530	-0.260	0.680	0.740
2020/01/31 18:58:15.3	73.540	-0.280	0.640	0.790
2020/01/31 18:58:15.4	73.540	-0.300	0.600	0.840
2020/01/31 18:58:15.5	73.540	-0.310	0.550	0.890
2020/01/31 18:58:15.6	73.540	-0.330	0.500	0.940
2020/01/31 18:58:15.7	73.540	-0.340	0.450	0.980
2020/01/31 18:58:15.8	73.520	-0.350	0.400	1.020
2020/01/31 18:58:15.9	73.520	-0.360	0.350	1.070
2020/01/31 18:58:16.0	73.520	-0.360	0.300	1.110
2020/01/31 18:58:16.1	73.510	-0.370	0.250	1.150
2020/01/31 18:58:16.2	73.510	-0.380	0.190	1.190
2020/01/31 18:58:16.3	73.500	-0.380	0.140	1.220
2020/01/31 18:58:16.4	73.500	-0.380	0.090	1.260
2020/01/31 18:58:16.5	73.490	-0.380	0.040	1.290
2020/01/31 18:58:16.6	73.480	-0.380	-0.010	1.320
2020/01/31 18:58:16.7	73.470	-0.380	-0.050	1.350
2020/01/31 18:58:16.8	73.450	-0.380	-0.100	1.370
2020/01/31 18:58:16.9	73.440	-0.380	-0.140	1.400
2020/01/31 18:58:17.0	73.430	-0.380	-0.180	1.420
2020/01/31 18:58:17.1	73.420	-0.370	-0.220	1.440
2020/01/31 18:58:17.2	73.410	-0.370	-0.260	1.450
2020/01/31 18:58:17.3	73.410	-0.360	-0.300	1.460
2020/01/31 18:58:17.4	73.400	-0.350	-0.340	1.470
2020/01/31 18:58:17.5	73.390	-0.350	-0.370	1.470
2020/01/31 18:58:17.6	73.380	-0.340	-0.400	1.470
2020/01/31 18:58:17.7	73.380	-0.330	-0.440	1.460
2020/01/31 18:58:17.8	73.370	-0.320	-0.470	1.450
2020/01/31 18:58:17.9	73.370	-0.310	-0.500	1.440
2020/01/31 18:58:18.0	73.360	-0.300	-0.520	1.430
2020/01/31 18:58:18.1	73.360	-0.290	-0.550	1.400
2020/01/31 18:58:18.2	73.360	-0.280	-0.580	1.380
2020/01/31 18:58:18.3	73.360	-0.260	-0.600	1.350
2020/01/31 18:58:18.4	73.360	-0.250	-0.630	1.320
2020/01/31 18:58:18.5	73.360	-0.230	-0.650	1.280
2020/01/31 18:58:18.6	73.370	-0.210	-0.670	1.250
2020/01/31 18:58:18.7	73.370	-0.190	-0.690	1.210
2020/01/31 18:58:18.8	73.390	-0.170	-0.710	1.160
2020/01/31 18:58:18.9	73.400	-0.150	-0.730	1.120
2020/01/31 18:58:19.0	73.400	-0.130	-0.750	1.070
2020/01/31 18:58:19.1	73.410	-0.100	-0.760	1.020
2020/01/31 18:58:19.2	73.420	-0.080	-0.770	0.980
2020/01/31 18:58:19.3	73.430	-0.050	-0.780	0.930
2020/01/31 18:58:19.4	73.440	-0.020	-0.780	0.890
2020/01/31 18:58:19.5	73.450	0.000	-0.790	0.840
2020/01/31 18:58:19.6	73.460	0.030	-0.780	0.800
2020/01/31 18:58:19.7	73.470	0.060	-0.780	0.760
2020/01/31 18:58:19.8	73.490	0.090	-0.770	0.720
2020/01/31 18:58:19.9	73.500	0.120	-0.750	0.680
2020/01/31 18:58:20.0	73.500	0.140	-0.740	0.640
2020/01/31 18:58:20.1	73.510	0.170	-0.720	0.610
2020/01/31 18:58:20.2	73.510	0.200	-0.690	0.580
2020/01/31 18:58:20.3	73.520	0.230	-0.660	0.540
2020/01/31 18:58:20.4	73.520	0.250	-0.630	0.520
2020/01/31 18:58:20.5	73.530	0.270	-0.590	0.490
2020/01/31 18:58:20.6	73.530	0.300	-0.560	0.460
2020/01/31 18:58:20.7	73.530	0.320	-0.520	0.440
2020/01/31 18:58:20.8	73.540	0.340	-0.470	0.410
2020/01/31 18:58:20.9	73.540	0.350	-0.430	0.390
2020/01/31 18:58:21.0	73.540	0.370	-0.390	0.370
2020/01/31 18:58:21.1	73.540	0.380	-0.340	0.350
2020/01/31 18:58:21.2	73.540	0.390	-0.300	0.340
2020/01/31 18:58:21.3	73.540	0.400	-0.250	0.320
2020/01/31 18:58:21.4	73.540	0.410	-0.210	0.300
2020/01/31 18:58:21.5	73.530	0.410	-0.170	0.280
2020/01/31 18:58:21.6	73.530	0.410	-0.140	0.270
2020/01/31 18:58:21.7	73.530	0.410	-0.100	0.250
2020/01/31 18:58:21.8	73.520	0.410	-0.070	0.240
2020/01/31 18:58:21.9	73.520	0.400	-0.040	0.220
2020/01/31 18:58:22.0	73.520	0.390	-0.020	0.200
2020/01/31 18:58:22.1	73.510	0.380	0.000	0.180
2020/01/31 18:58:22.2	73.510	0.370	0.020	0.160
2020/01/31 18:58:22.3	73.510	0.360	0.030	0.140
2020/01/31 18:58:22.4	73.510	0.340	0.030	0.110
2020/01/31 18:58:22.5	73.510	0.330	0.040	0.090
2020/01/31 18:58:22.6	73.510	0.310	0.040	0.060
2020/01/31 18:58:22.7	73.510	0.290	0.030	0.040
2020/01/31 18:58:22.8	73.510	0.270	0.030	0.000
2020/01/31 18:58:22.9	73.510	0.250	0.010	-0.030
2020/01/31 18:58:23.0	73.520	0.230	0.000	-0.060
2020/01/31 18:58:23.1	73.520	0.200	-0.020	-0.090
2020/01/31 18:58:23.2	73.530	0.180	-0.040	-0.130
2020/01/31 18:58:23.3	73.540	0.160	-0.060	-0.160
2020/01/31 18:58:23.4	73.550	0.140	-0.080	-0.200
2020/01/31 18:58:23.5	73.560	0.120	-0.100	-0.230
2020/01/31 18:58:23.6	73.570	0.100	-0.120	-0.270
2020/01/31 18:58:23.7	73.590	0.080	-0.150	-0.310
2020/01/31 18:58:23.8	73.620	0.060	-0.170	-0.340
2020/01/31 18:58:23.9	73.630	0.040	-0.190	-0.380
2020/01/31 18:58:24.0	73.650	0.030	-0.220	-0.410
2020/01/31 18:58:24.1	73.680	0.010	-0.230	-0.450
2020/01/31 18:58:24.2	73.700	-0.000	-0.250	-0.480
2020/01/31 18:58:24.3	73.720	-0.010	-0.260	-0.510
2020/01/31 18:58:24.4	73.750	-0.020	-0.270	-0.540
2020/01/31 18:58:24.5	73.770	-0.030	-0.280	-0.560
2020/01/31 18:58:24.6	73.800	-0.040	-0.280	-0.590
2020/01/31 18:58:24.7	73.820	-0.050	-0.280	-0.610
2020/01/31 18:58:24.8	73.840	-0.060	-0.280	-0.620
2020/01/31 18:58:24.9	73.860	-0.060	-0.270	-0.640
2020/01/31 18:58:25.0	73.890	-0.070	-0.260	-0.650
2020/01/31 18:58:25.1	73.900	-0.070	-0.240	-0.660
2020/01/31 18:58:25.2	73.920	-0.080	-0.220	-0.660
2020/01/31 18:58:25.3	73.940	-0.080	-0.190	-0.660
2020/01/31 18:58:25.4	73.950	-0.090	-0.160	-0.660
2020/01/31 18:58:25.5	73.960	-0.090	-0.130	-0.650
2020/01/31 18:58:25.6	73.970	-0.100	-0.090	-0.640
2020/01/31 18:58:25.7	73.980	-0.100	-0.050	-0.630
2020/01/31 18:58:25.8	73.980	-0.110	-0.010	-0.610
2020/01/31 18:58:25.9	73.980	-0.120	0.040	-0.590
2020/01/31 18:58:26.0	73.980	-0.130	0.090	-0.570
2020/01/31 18:58:26.1	73.980	-0.140	0.130	-0.540
2020/01/31 18:58:26.2	73.970	-0.150	0.180	-0.520
2020/01/31 18:58:26.3	73.960	-0.160	0.230	-0.490
2020/01/31 18:58:26.4	73.950	-0.180	0.280	-0.460
2020/01/31 18:58:26.5	73.940	-0.190	0.320	-0.430
2020/01/31 18:58:26.6	73.930	-0.210	0.360	-0.400
2020/01/31 18:58:26.7	73.910	-0.220	0.400	-0.370
2020/01/31 18:58:26.8	73.900	-0.240	0.440	-0.340
2020/01/31 18:58:26.9	73.880	-0.250	0.470	-0.310
2020/01/31 18:58:27.0	73.860	-0.270	0.490	-0.280
2020/01/31 18:58:27.1	73.840	-0.290	0.510	-0.250
2020/01/31 18:58:27.2	73.820	-0.300	0.530	-0.220
2020/01/31 18:58:27.3	73.800	-0.320	0.540	-0.190
2020/01/31 18:58:27.4	73.780	-0.340	0.540	-0.150
2020/01/31 18:58:27.5	73.770	-0.350	0.540	-0.120
2020/01/31 18:58:27.6	73.750	-0.360	0.530	-0.090
2020/01/31 18:58:27.7	73.730	-0.370	0.520	-0.060
2020/01/31 18:58:27.8	73.710	-0.380	0.500	-0.030
2020/01/31 18:58:27.9	73.690	-0.390	0.470	0.000
2020/01/31 18:58:28.0	73.670	-0.400	0.440	0.040
2020/01/31 18:58:28.1	73.660	-0.400	0.400	0.070
2020/01/31 18:58:28.2	73.640	-0.400	0.360	0.100
2020/01/31 18:58:28.3	73.630	-0.390	0.310	0.140
2020/01/31 18:58:28.4	73.620	-0.390	0.260	0.170
2020/01/31 18:58:28.5	73.610	-0.380	0.200	0.210
2020/01/31 18:58:28.6	73.600	-0.360	0.140	0.240
2020/01/31 18:58:28.7	73.600	-0.340	0.080	0.280
2020/01/31 18:58:28.8	73.590	-0.320	0.010	0.310
2020/01/31 18:58:28.9	73.590	-0.300	-0.060	0.340
2020/01/31 18:58:29.0	73.590	-0.270	-0.140	0.380
2020/01/31 18:58:29.1	73.590	-0.240	-0.210	0.410
2020/01/31 18:58:29.2	73.600	-0.210	-0.290	0.440
2020/01/31 18:58:29.3	73.610	-0.170	-0.370	0.470
2020/01/31 18:58:29.4	73.630	-0.130	-0.450	0.500
2020/01/31 18:58:29.5	73.640	-0.090	-0.530	0.530
2020/01/31 18:58:29.6	73.660	-0.050	-0.600	0.550
2020/01/31 18:58:29.7	73.680	-0.000	-0.680	0.570
2020/01/31 18:58:29.8	73.710	0.040	-0.760	0.600
2020/01/31 18:58:29.9	73.740	0.090	-0.830	0.610
2020/01/31 18:58:30.0	73.770	0.140	-0.900	0.630
2020/01/31 18:58:30.1	73.800	0.180	-0.970	0.640
2020/01/31 18:58:30.2	73.830	0.230	-1.030	0.650
2020/01/31 18:58:30.3	73.860	0.270	-1.090	0.660
2020/01/31 18:58:30.4	73.900	0.310	-1.140	0.660
2020/01/31 18:58:30.5	73.930	0.350	-1.190	0.670
2020/01/31 18:58:30.6	73.970	0.390	-1.220	0.670
2020/01/31 18:58:30.7	74.000	0.430	-1.260	0.670
2020/01/31 18:58:30.8	74.040	0.460	-1.280	0.660
2020/01/31 18:58:30.9	74.070	0.490	-1.300	0.660
2020/01/31 18:58:31.0	74.100	0.510	-1.310	0.650
2020/01/31 18:58:31.1	74.140	0.530	-1.310	0.650
2020/01/31 18:58:31.2	74.170	0.550	-1.300	0.640
2020/01/31 18:58:31.3	74.200	0.560	-1.290	0.630
2020/01/31 18:58:31.4	74.220	0.560	-1.260	0.620
2020/01/31 18:58:31.5	74.240	0.570	-1.230	0.620
2020/01/31 18:58:31.6	74.260	0.570	-1.190	0.610
2020/01/31 18:58:31.7	74.280	0.560	-1.140	0.600
2020/01/31 18:58:31.8	74.290	0.550	-1.080	0.600
2020/01/31 18:58:31.9	74.310	0.530	-1.010	0.590
2020/01/31 18:58:32.0	74.310	0.510	-0.940	0.590
2020/01/31 18:58:32.1	74.320	0.490	-0.870	0.590
2020/01/31 18:58:32.2	74.320	0.460	-0.780	0.590
2020/01/31 18:58:32.3	74.320	0.430	-0.690	0.590
2020/01/31 18:58:32.4	74.310	0.400	-0.600	0.590
2020/01/31 18:58:32.5	74.300	0.370	-0.500	0.590
2020/01/31 18:58:32.6	74.290	0.330	-0.400	0.600
2020/01/31 18:58:32.7	74.280	0.290	-0.290	0.600
2020/01/31 18:58:32.8	74.260	0.240	-0.190	0.610
2020/01/31 18:58:32.9	74.240	0.200	-0.080	0.610
2020/01/31 18:58:33.0	74.220	0.160	0.030	0.620
2020/01/31 18:58:33.1	74.200	0.110	0.140	0.630
2020/01/31 18:58:33.2	74.180	0.070	0.240	0.640
2020/01/31 18:58:33.3	74.150	0.020	0.350	0.650
2020/01/31 18:58:33.4	74.120	-0.020	0.450	0.670
2020/01/31 18:58:33.5	74.100	-0.070	0.550	0.680
2020/01/31 18:58:33.6	74.070	-0.110	0.640	0.690
2020/01/31 18:58:33.7	74.040	-0.150	0.730	0.710
2020/01/31 18:58:33.8	74.010	-0.190	0.810	0.720
2020/01/31 18:58:33.9	73.980	-0.230	0.890	0.730
2020/01/31 18:58:34.0	73.950	-0.270	0.960	0.740
2020/01/31 18:58:34.1	73.920	-0.300	1.030	0.750
2020/01/31 18:58:34.2	73.880	-0.330	1.080	0.760
2020/01/31 18:58:34.3	73.850	-0.360	1.130	0.770
2020/01/31 18:58:34.4	73.820	-0.390	1.160	0.780
2020/01/31 18:58:34.5	73.790	-0.420	1.190	0.780
2020/01/31 18:58:34.6	73.760	-0.440	1.210	0.780
2020/01/31 18:58:34.7	73.730	-0.460	1.220	0.780
2020/01/31 18:58:34.8	73.710	-0.480	1.220	0.780
2020/01/31 18:58:34.9	73.680	-0.490	1.210	0.780
2020/01/31 18:58:35.0	73.650	-0.500	1.190	0.770
2020/01/31 18:58:35.1	73.630	-0.510	1.160	0.760
2020/01/31 18:58:35.2	73.610	-0.510	1.110	0.740
2020/01/31 18:58:35.3	73.590	-0.510	1.060	0.720
2020/01/31 18:58:35.4	73.570	-0.510	1.000	0.690
2020/01/31 18:58:35.5	73.560	-0.500	0.930	0.670
2020/01/31 18:58:35.6	73.550	-0.490	0.850	0.630
2020/01/31 18:58:35.7	73.540	-0.480	0.770	0.600
2020/01/31 18:58:35.8	73.520	-0.470	0.670	0.560
2020/01/31 18:58:35.9	73.520	-0.450	0.570	0.510
2020/01/31 18:58:36.0	73.510	-0.430	0.470	0.470
2020/01/31 18:58:36.1	73.510	-0.410	0.360	0.420
2020/01/31 18:58:36.2	73.510	-0.380	0.240	0.370
2020/01/31 18:58:36.3	73.510	-0.360	0.120	0.320
2020/01/31 18:58:36.4	73.520	-0.330	0.000	0.260
2020/01/31 18:58:36.5	73.530	-0.300	-0.120	0.200
2020/01/31 18:58:36.6	73.540	-0.270	-0.250	0.150
2020/01/31 18:58:36.7	73.550	-0.230	-0.370	0.090
2020/01/31 18:58:36.8	73.570	-0.200	-0.490	0.030
2020/01/31 18:58:36.9	73.590	-0.160	-0.610	-0.030
2020/01/31 18:58:37.0	73.610	-0.120	-0.730	-0.090
2020/01/31 18:58:37.1	73.630	-0.090	-0.850	-0.150
2020/01/31 18:58:37.2	73.650	-0.050	-0.960	-0.210
2020/01/31 18:58:37.3	73.670	-0.010	-1.060	-0.270
2020/01/31 18:58:37.4	73.700	0.030	-1.160	-0.320
2020/01/31 18:58:37.5	73.730	0.070	-1.250	-0.370
2020/01/31 18:58:37.6	73.760	0.110	-1.340	-0.420
2020/01/31 18:58:37.7	73.790	0.150	-1.420	-0.470
2020/01/31 18:58:37.8	73.820	0.190	-1.490	-0.520
2020/01/31 18:58:37.9	73.850	0.220	-1.550	-0.560
2020/01/31 18:58:38.0	73.880	0.260	-1.600	-0.610
2020/01/31 18:58:38.1	73.910	0.300	-1.640	-0.640
2020/01/31 18:58:38.2	73.950	0.330	-1.670	-0.680
2020/01/31 18:58:38.3	73.980	0.370	-1.690	-0.710
2020/01/31 18:58:38.4	74.020	0.400	-1.700	-0.740
2020/01/31 18:58:38.5	74.050	0.430	-1.710	-0.760
2020/01/31 18:58:38.6	74.080	0.460	-1.700	-0.780
2020/01/31 18:58:38.7	74.120	0.480	-1.680	-0.790
2020/01/31 18:58:38.8	74.150	0.510	-1.650	-0.800
2020/01/31 18:58:38.9	74.180	0.530	-1.620	-0.810
2020/01/31 18:58:39.0	74.210	0.550	-1.570	-0.810
2020/01/31 18:58:39.1	74.230	0.570	-1.510	-0.800
2020/01/31 18:58:39.2	74.250	0.590	-1.450	-0.790
2020/01/31 18:58:39.3	74.270	0.600	-1.380	-0.780
2020/01/31 18:58:39.4	74.280	0.610	-1.300	-0.760
2020/01/31 18:58:39.5	74.290	0.620	-1.210	-0.740
2020/01/31 18:58:39.6	74.300	0.630	-1.120	-0.710
2020/01/31 18:58:39.7	74.310	0.630	-1.020	-0.670
2020/01/31 18:58:39.8	74.300	0.630	-0.910	-0.640
2020/01/31 18:58:39.9	74.300	0.620	-0.800	-0.600
2020/01/31 18:58:40.0	74.290	0.620	-0.690	-0.550
2020/01/31 18:58:40.1	74.290	0.610	-0.580	-0.510
2020/01/31 18:58:40.2	74.270	0.600	-0.470	-0.460
2020/01/31 18:58:40.3	74.260	0.580	-0.350	-0.400
2020/01/31 18:58:40.4	74.240	0.560	-0.240	-0.350
2020/01/31 18:58:40.5	74.220	0.540	-0.120	-0.290
2020/01/31 18:58:40.6	74.200	0.520	-0.010	-0.240
2020/01/31 18:58:40.7	74.170	0.490	0.100	-0.180
2020/01/31 18:58:40.8	74.150	0.460	0.200	-0.120
2020/01/31 18:58:40.9	74.120	0.430	0.310	-0.060
2020/01/31 18:58:41.0	74.090	0.390	0.410	-0.000
2020/01/31 18:58:41.1	74.060	0.350	0.510	0.060
2020/01/31 18:58:41.2	74.030	0.310	0.600	0.120
2020/01/31 18:58:41.3	73.990	0.270	0.690	0.180
2020/01/31 18:58:41.4	73.960	0.230	0.770	0.240
2020/01/31 18:58:41.5	73.930	0.180	0.850	0.290
2020/01/31 18:58:41.6	73.890	0.140	0.920	0.350
2020/01/31 18:58:41.7	73.860	0.090	0.990	0.410
2020/01/31 18:58:41.8	73.820	0.040	1.050	0.460
2020/01/31 18:58:41.9	73.790	-0.010	1.100	0.510
2020/01/31 18:58:42.0	73.760	-0.060	1.140	0.560
2020/01/31 18:58:42.1	73.720	-0.110	1.170	0.610
2020/01/31 18:58:42.2	73.690	-0.160	1.200	0.650
2020/01/31 18:58:42.3	73.660	-0.210	1.220	0.700
2020/01/31 18:58:42.4	73.630	-0.260	1.230	0.740
2020/01/31 18:58:42.5	73.600	-0.300	1.230	0.770
2020/01/31 18:58:42.6	73.570	-0.350	1.230	0.810
2020/01/31 18:58:42.7	73.540	-0.390	1.210	0.840
2020/01/31 18:58:42.8	73.520	-0.440	1.190	0.870
2020/01/31 18:58:42.9	73.500	-0.480	1.160	0.890
2020/01/31 18:58:43.0	73.480	-0.520	1.120	0.910
2020/01/31 18:58:43.1	73.460	-0.550	1.080	0.930
2020/01/31 18:58:43.2	73.440	-0.590	1.020	0.940
2020/01/31 18:58:43.3	73.420	-0.620	0.970	0.960
2020/01/31 18:58:43.4	73.410	-0.650	0.900	0.970
2020/01/31 18:58:43.5	73.400	-0.670	0.830	0.970
2020/01/31 18:58:43.6	73.390	-0.700	0.760	0.970
2020/01/31 18:58:43.7	73.380	-0.720	0.680	0.970
2020/01/31 18:58:43.8	73.370	-0.730	0.600	0.970
2020/01/31 18:58:43.9	73.360	-0.750	0.520	0.970
2020/01/31 18:58:44.0	73.350	-0.760	0.440	0.960
2020/01/31 18:58:44.1	73.350	-0.760	0.350	0.950
2020/01/31 18:58:44.2	73.340	-0.770	0.260	0.950
2020/01/31 18:58:44.3	73.340	-0.760	0.180	0.940
2020/01/31 18:58:44.4	73.340	-0.760	0.090	0.930
2020/01/31 18:58:44.5	73.340	-0.750	0.000	0.910
2020/01/31 18:58:44.6	73.340	-0.740	-0.080	0.900
2020/01/31 18:58:44.7	73.340	-0.720	-0.170	0.880
2020/01/31 18:58:44.8	73.340	-0.700	-0.250	0.870
2020/01/31 18:58:44.9	73.350	-0.680	-0.330	0.850
2020/01/31 18:58:45.0	73.350	-0.650	-0.410	0.830
2020/01/31 18:58:45.1	73.360	-0.630	-0.490	0.810
2020/01/31 18:58:45.2	73.370	-0.590	-0.560	0.790
2020/01/31 18:58:45.3	73.380	-0.560	-0.630	0.770
2020/01/31 18:58:45.4	73.400	-0.520	-0.700	0.750
2020/01/31 18:58:45.5	73.410	-0.470	-0.760	0.730
2020/01/31 18:58:45.6	73.430	-0.430	-0.820	0.700
2020/01/31 18:58:45.7	73.440	-0.380	-0.870	0.680
2020/01/31 18:58:45.8	73.450	-0.330	-0.920	0.650
2020/01/31 18:58:45.9	73.480	-0.280	-0.970	0.630
2020/01/31 18:58:46.0	73.500	-0.230	-1.010	0.600
2020/01/31 18:58:46.1	73.520	-0.180	-1.050	0.570
2020/01/31 18:58:46.2	73.550	-0.120	-1.090	0.550
2020/01/31 18:58:46.3	73.580	-0.070	-1.120	0.520
2020/01/31 18:58:46.4	73.610	-0.010	-1.150	0.490
2020/01/31 18:58:46.5	73.640	0.050	-1.170	0.470
2020/01/31 18:58:46.6	73.670	0.100	-1.190	0.440
2020/01/31 18:58:46.7	73.700	0.160	-1.200	0.410
2020/01/31 18:58:46.8	73.740	0.210	-1.220	0.380
2020/01/31 18:58:46.9	73.770	0.260	-1.220	0.360
2020/01/31 18:58:47.0	73.810	0.310	-1.230	0.330
2020/01/31 18:58:47.1	73.840	0.350	-1.220	0.300
2020/01/31 18:58:47.2	73.870	0.400	-1.220	0.280
2020/01/31 18:58:47.3	73.910	0.440	-1.210	0.260
2020/01/31 18:58:47.4	73.940	0.470	-1.200	0.230
2020/01/31 18:58:47.5	73.970	0.510	-1.180	0.210
2020/01/31 18:58:47.6	74.000	0.530	-1.160	0.200
2020/01/31 18:58:47.7	74.020	0.560	-1.130	0.180
2020/01/31 18:58:47.8	74.040	0.580	-1.100	0.170
2020/01/31 18:58:47.9	74.060	0.590	-1.060	0.160
2020/01/31 18:58:48.0	74.080	0.600	-1.030	0.150
2020/01/31 18:58:48.1	74.090	0.610	-0.980	0.150
2020/01/31 18:58:48.2	74.100	0.610	-0.930	0.150
2020/01/31 18:58:48.3	74.100	0.600	-0.880	0.160
2020/01/31 18:58:48.4	74.090	0.590	-0.820	0.160
2020/01/31 18:58:48.5	74.090	0.580	-0.760	0.170
2020/01/31 18:58:48.6	74.070	0.560	-0.700	0.190
2020/01/31 18:58:48.7	74.060	0.540	-0.630	0.210
2020/01/31 18:58:48.8	74.040	0.510	-0.550	0.230
2020/01/31 18:58:48.9	74.010	0.480	-0.480	0.260
2020/01/31 18:58:49.0	73.980	0.450	-0.400	0.290
2020/01/31 18:58:49.1	73.940	0.410	-0.310	0.320
2020/01/31 18:58:49.2	73.900	0.380	-0.230	0.350
2020/01/31 18:58:49.3	73.850	0.340	-0.140	0.390
2020/01/31 18:58:49.4	73.800	0.290	-0.050	0.440
2020/01/31 18:58:49.5	73.740	0.250	0.040	0.480
2020/01/31 18:58:49.6	73.690	0.210	0.130	0.520
2020/01/31 18:58:49.7	73.620	0.170	0.220	0.570
2020/01/31 18:58:49.8	73.550	0.120	0.300	0.610
2020/01/31 18:58:49.9	73.490	0.080	0.390	0.660
2020/01/31 18:58:50.0	73.420	0.040	0.470	0.700
2020/01/31 18:58:50.1	73.360	-0.000	0.550	0.750
2020/01/31 18:58:50.2	73.290	-0.040	0.620	0.780
2020/01/31 18:58:50.3	73.230	-0.070	0.690	0.820
2020/01/31 18:58:50.4	73.160	-0.110	0.750	0.850
2020/01/31 18:58:50.5	73.100	-0.140	0.800	0.870
2020/01/31 18:58:50.6	73.040	-0.170	0.840	0.890
2020/01/31 18:58:50.7	72.990	-0.190	0.880	0.910
2020/01/31 18:58:50.8	72.930	-0.210	0.910	0.910
2020/01/31 18:58:50.9	72.880	-0.230	0.920	0.910
2020/01/31 18:58:51.0	72.830	-0.240	0.930	0.900
2020/01/31 18:58:51.1	72.790	-0.250	0.930	0.890
2020/01/31 18:58:51.2	72.750	-0.260	0.920	0.860
2020/01/31 18:58:51.3	72.710	-0.260	0.890	0.830
2020/01/31 18:58:51.4	72.680	-0.260	0.860	0.790
2020/01/31 18:58:51.5	72.650	-0.260	0.820	0.750
2020/01/31 18:58:51.6	72.630	-0.250	0.780	0.700
2020/01/31 18:58:51.7	72.600	-0.240	0.720	0.640
2020/01/31 18:58:51.8	72.580	-0.230	0.660	0.570
2020/01/31 18:58:51.9	72.560	-0.210	0.590	0.500
2020/01/31 18:58:52.0	72.550	-0.200	0.520	0.430
2020/01/31 18:58:52.1	72.540	-0.180	0.440	0.350
2020/01/31 18:58:52.2	72.540	-0.150	0.360	0.270
2020/01/31 18:58:52.3	72.540	-0.130	0.280	0.190
2020/01/31 18:58:52.4	72.540	-0.110	0.190	0.100
2020/01/31 18:58:52.5	72.540	-0.080	0.100	0.010
2020/01/31 18:58:52.6	72.540	-0.050	0.010	-0.080
2020/01/31 18:58:52.7	72.550	-0.030	-0.080	-0.170
2020/01/31 18:58:52.8	72.570	0.000	-0.160	-0.260
2020/01/31 18:58:52.9	72.580	0.030	-0.250	-0.350
2020/01/31 18:58:53.0	72.590	0.060	-0.330	-0.440
2020/01/31 18:58:53.1	72.600	0.090	-0.410	-0.530
2020/01/31 18:58:53.2	72.620	0.110	-0.490	-0.610
2020/01/31 18:58:53.3	72.630	0.140	-0.560	-0.690
2020/01/31 18:58:53.4	72.640	0.170	-0.620	-0.770
2020/01/31 18:58:53.5	72.660	0.190	-0.680	-0.840
2020/01/31 18:58:53.6	72.680	0.220	-0.740	-0.910
2020/01/31 18:58:53.7	72.690	0.240	-0.790	-0.980
2020/01/31 18:58:53.8	72.710	0.260	-0.830	-1.040
2020/01/31 18:58:53.9	72.730	0.280	-0.860	-1.100
2020/01/31 18:58:54.0	72.750	0.300	-0.890	-1.160
2020/01/31 18:58:54.1	72.760	0.310	-0.910	-1.200
2020/01/31 18:58:54.2	72.780	0.320	-0.930	-1.250
2020/01/31 18:58:54.3	72.800	0.340	-0.940	-1.290
2020/01/31 18:58:54.4	72.820	0.350	-0.940	-1.320
2020/01/31 18:58:54.5	72.840	0.350	-0.940	-1.350
2020/01/31 18:58:54.6	72.860	0.360	-0.930	-1.380
2020/01/31 18:58:54.7	72.880	0.360	-0.920	-1.400
2020/01/31 18:58:54.8	72.900	0.360	-0.900	-1.420
2020/01/31 18:58:54.9	72.930	0.360	-0.880	-1.430
2020/01/31 18:58:55.0	72.950	0.350	-0.850	-1.430
2020/01/31 18:58:55.1	72.970	0.340	-0.820	-1.430
2020/01/31 18:58:55.2	72.990	0.330	-0.790	-1.430
2020/01/31 18:58:55.3	73.010	0.320	-0.750	-1.420
2020/01/31 18:58:55.4	73.030	0.310	-0.710	-1.400
2020/01/31 18:58:55.5	73.050	0.290	-0.670	-1.370
2020/01/31 18:58:55.6	73.070	0.280	-0.630	-1.340
2020/01/31 18:58:55.7	73.090	0.260	-0.590	-1.310
2020/01/31 18:58:55.8	73.110	0.240	-0.550	-1.270
2020/01/31 18:58:55.9	73.120	0.210	-0.510	-1.220
2020/01/31 18:58:56.0	73.140	0.190	-0.460	-1.160
2020/01/31 18:58:56.1	73.150	0.160	-0.420	-1.100
2020/01/31 18:58:56.2	73.160	0.130	-0.380	-1.040
2020/01/31 18:58:56.3	73.170	0.110	-0.340	-0.970
2020/01/31 18:58:56.4	73.170	0.080	-0.300	-0.890
2020/01/31 18:58:56.5	73.180	0.050	-0.260	-0.810
2020/01/31 18:58:56.6	73.180	0.020	-0.230	-0.730
2020/01/31 18:58:56.7	73.180	-0.010	-0.190	-0.650
2020/01/31 18:58:56.8	73.180	-0.050	-0.160	-0.560
2020/01/31 18:58:56.9	73.170	-0.080	-0.130	-0.470
2020/01/31 18:58:57.0	73.170	-0.110	-0.110	-0.380
2020/01/31 18:58:57.1	73.160	-0.140	-0.080	-0.290
2020/01/31 18:58:57.2	73.150	-0.170	-0.060	-0.190
2020/01/31 18:58:57.3	73.140	-0.200	-0.040	-0.100
2020/01/31 18:58:57.4	73.130	-0.230	-0.030	-0.010
2020/01/31 18:58:57.5	73.120	-0.250	-0.010	0.070
2020/01/31 18:58:57.6	73.110	-0.280	0.000	0.160
2020/01/31 18:58:57.7	73.100	-0.300	0.010	0.250
2020/01/31 18:58:57.8	73.090	-0.320	0.020	0.330
2020/01/31 18:58:57.9	73.080	-0.350	0.030	0.410
2020/01/31 18:58:58.0	73.070	-0.360	0.040	0.480
2020/01/31 18:58:58.1	73.060	-0.380	0.050	0.560
2020/01/31 18:58:58.2	73.050	-0.400	0.060	0.630
2020/01/31 18:58:58.3	73.040	-0.410	0.060	0.690
2020/01/31 18:58:58.4	73.030	-0.420	0.070	0.760
2020/01/31 18:58:58.5	73.020	-0.420	0.080	0.810
2020/01/31 18:58:58.6	73.010	-0.430	0.090	0.870
2020/01/31 18:58:58.7	73.000	-0.430	0.100	0.920
2020/01/31 18:58:58.8	73.000	-0.430	0.110	0.970
2020/01/31 18:58:58.9	72.990	-0.430	0.130	1.020
2020/01/31 18:58:59.0	72.990	-0.430	0.140	1.060
2020/01/31 18:58:59.1	72.980	-0.420	0.150	1.100
2020/01/31 18:58:59.2	72.980	-0.410	0.160	1.140
2020/01/31 18:58:59.3	72.970	-0.400	0.180	1.180
2020/01/31 18:58:59.4	72.960	-0.390	0.200	1.210
2020/01/31 18:58:59.5	72.960	-0.380	0.210	1.250
2020/01/31 18:58:59.6	72.950	-0.360	0.230	1.280
2020/01/31 18:58:59.7	72.940	-0.340	0.250	1.320
2020/01/31 18:58:59.8	72.930	-0.330	0.270	1.350
2020/01/31 18:58:59.9	72.910	-0.310	0.290	1.380
2020/01/31 18:59:00.0	72.900	-0.290	0.310	1.410
2020/01/31 18:59:00.1	72.890	-0.270	0.330	1.440
2020/01/31 18:59:00.2	72.880	-0.250	0.350	1.470
2020/01/31 18:59:00.3	72.860	-0.230	0.360	1.500
2020/01/31 18:59:00.4	72.840	-0.210	0.380	1.530
2020/01/31 18:59:00.5	72.830	-0.190	0.400	1.550
2020/01/31 18:59:00.6	72.810	-0.170	0.410	1.580
2020/01/31 18:59:00.7	72.790	-0.150	0.420	1.600
2020/01/31 18:59:00.8	72.760	-0.130	0.430	1.620
2020/01/31 18:59:00.9	72.730	-0.120	0.440	1.640
2020/01/31 18:59:01.0	72.710	-0.100	0.440	1.650
2020/01/31 18:59:01.1	72.680	-0.090	0.440	1.660
2020/01/31 18:59:01.2	72.660	-0.070	0.440	1.670
2020/01/31 18:59:01.3	72.630	-0.060	0.440	1.680
2020/01/31 18:59:01.4	72.600	-0.050	0.430	1.680
2020/01/31 18:59:01.5	72.570	-0.040	0.420	1.680
2020/01/31 18:59:01.6	72.540	-0.030	0.400	1.670
2020/01/31 18:59:01.7	72.510	-0.030	0.380	1.670
2020/01/31 18:59:01.8	72.480	-0.020	0.360	1.650
2020/01/31 18:59:01.9	72.450	-0.020	0.340	1.630
2020/01/31 18:59:02.0	72.420	-0.010	0.310	1.610
2020/01/31 18:59:02.1	72.400	-0.010	0.270	1.580
2020/01/31 18:59:02.2	72.370	-0.010	0.230	1.550
2020/01/31 18:59:02.3	72.340	-0.010	0.190	1.510
2020/01/31 18:59:02.4	72.320	-0.010	0.150	1.470
2020/01/31 18:59:02.5	72.300	-0.010	0.100	1.420
2020/01/31 18:59:02.6	72.280	-0.010	0.050	1.370
2020/01/31 18:59:02.7	72.260	-0.000	-0.010	1.320
2020/01/31 18:59:02.8	72.240	-0.000	-0.070	1.260
2020/01/31 18:59:02.9	72.220	-0.000	-0.130	1.190
2020/01/31 18:59:03.0	72.210	0.000	-0.200	1.120
2020/01/31 18:59:03.1	72.200	0.010	-0.260	1.050
2020/01/31 18:59:03.2	72.200	0.010	-0.330	0.970
2020/01/31 18:59:03.3	72.200	0.020	-0.400	0.890
2020/01/31 18:59:03.4	72.200	0.030	-0.470	0.800
2020/01/31 18:59:03.5	72.200	0.040	-0.540	0.710
2020/01/31 18:59:03.6	72.210	0.060	-0.620	0.620
2020/01/31 18:59:03.7	72.220	0.070	-0.690	0.530
2020/01/31 18:59:03.8	72.250	0.090	-0.760	0.420
2020/01/31 18:59:03.9	72.260	0.110	-0.840	0.320
2020/01/31 18:59:04.0	72.280	0.130	-0.910	0.220
2020/01/31 18:59:04.1	72.310	0.160	-0.980	0.120
2020/01/31 18:59:04.2	72.330	0.180	-1.050	0.010
2020/01/31 18:59:04.3	72.360	0.210	-1.120	-0.100
2020/01/31 18:59:04.4	72.400	0.240	-1.180	-0.200
2020/01/31 18:59:04.5	72.430	0.270	-1.240	-0.310
2020/01/31 18:59:04.6	72.470	0.310	-1.300	-0.420
2020/01/31 18:59:04.7	72.510	0.340	-1.360	-0.520
2020/01/31 18:59:04.8	72.550	0.370	-1.410	-0.630
2020/01/31 18:59:04.9	72.600	0.410	-1.450	-0.730
2020/01/31 18:59:05.0	72.640	0.440	-1.490	-0.830
2020/01/31 18:59:05.1	72.680	0.470	-1.520	-0.920
2020/01/31 18:59:05.2	72.730	0.510	-1.540	-1.010
2020/01/31 18:59:05.3	72.770	0.540	-1.560	-1.090
2020/01/31 18:59:05.4	72.810	0.570	-1.570	-1.170
2020/01/31 18:59:05.5	72.850	0.590	-1.570	-1.240
2020/01/31 18:59:05.6	72.890	0.620	-1.560	-1.300
2020/01/31 18:59:05.7	72.920	0.640	-1.540	-1.360
2020/01/31 18:59:05.8	72.950	0.650	-1.520	-1.410
2020/01/31 18:59:05.9	72.980	0.660	-1.480	-1.460
2020/01/31 18:59:06.0	73.010	0.670	-1.430	-1.490
2020/01/31 18:59:06.1	73.040	0.680	-1.380	-1.520
2020/01/31 18:59:06.2	73.060	0.680	-1.310	-1.530
2020/01/31 18:59:06.3	73.080	0.670	-1.240	-1.540
2020/01/31 18:59:06.4	73.090	0.660	-1.160	-1.540
2020/01/31 18:59:06.5	73.110	0.650	-1.060	-1.530
2020/01/31 18:59:06.6	73.120	0.630	-0.960	-1.520
2020/01/31 18:59:06.7	73.120	0.600	-0.860	-1.490
2020/01/31 18:59:06.8	73.130	0.570	-0.740	-1.460
2020/01/31 18:59:06.9	73.130	0.540	-0.620	-1.420
2020/01/31 18:59:07.0	73.130	0.500	-0.500	-1.370
2020/01/31 18:59:07.1	73.120	0.460	-0.370	-1.320
2020/01/31 18:59:07.2	73.110	0.410	-0.240	-1.260
2020/01/31 18:59:07.3	73.100	0.360	-0.100	-1.200
2020/01/31 18:59:07.4	73.080	0.300	0.030	-1.130
2020/01/31 18:59:07.5	73.070	0.250	0.160	-1.060
2020/01/31 18:59:07.6	73.050	0.190	0.300	-0.980
2020/01/31 18:59:07.7	73.020	0.120	0.430	-0.900
2020/01/31 18:59:07.8	73.000	0.060	0.560	-0.820
2020/01/31 18:59:07.9	72.970	-0.000	0.680	-0.740
2020/01/31 18:59:08.0	72.940	-0.070	0.800	-0.650
2020/01/31 18:59:08.1	72.900	-0.140	0.910	-0.560
2020/01/31 18:59:08.2	72.870	-0.200	1.020	-0.480
2020/01/31 18:59:08.3	72.830	-0.270	1.120	-0.390
2020/01/31 18:59:08.4	72.790	-0.330	1.210	-0.300
2020/01/31 18:59:08.5	72.750	-0.390	1.290	-0.220
2020/01/31 18:59:08.6	72.710	-0.450	1.360	-0.130
2020/01/31 18:59:08.7	72.660	-0.510	1.430	-0.050
2020/01/31 18:59:08.8	72.610	-0.560	1.480	0.030
2020/01/31 18:59:08.9	72.570	-0.610	1.520	0.110
2020/01/31 18:59:09.0	72.520	-0.660	1.550	0.180
2020/01/31 18:59:09.1	72.480	-0.700	1.570	0.260
2020/01/31 18:59:09.2	72.440	-0.740	1.580	0.320
2020/01/31 18:59:09.3	72.390	-0.770	1.580	0.390
2020/01/31 18:59:09.4	72.350	-0.800	1.560	0.450
2020/01/31 18:59:09.5	72.310	-0.820	1.540	0.510
2020/01/31 18:59:09.6	72.280	-0.830	1.500	0.560
2020/01/31 18:59:09.7	72.240	-0.840	1.460	0.610
2020/01/31 18:59:09.8	72.210	-0.850	1.400	0.650
2020/01/31 18:59:09.9	72.180	-0.840	1.330	0.690
2020/01/31 18:59:10.0	72.150	-0.840	1.260	0.720
2020/01/31 18:59:10.1	72.130	-0.820	1.170	0.750
2020/01/31 18:59:10.2	72.120	-0.810	1.080	0.770
2020/01/31 18:59:10.3	72.100	-0.780	0.980	0.790
2020/01/31 18:59:10.4	72.100	-0.750	0.870	0.800
2020/01/31 18:59:10.5	72.090	-0.720	0.750	0.810
2020/01/31 18:59:10.6	72.090	-0.680	0.630	0.820
2020/01/31 18:59:10.7	72.100	-0.640	0.500	0.810
2020/01/31 18:59:10.8	72.110	-0.590	0.370	0.810
2020/01/31 18:59:10.9	72.130	-0.540	0.230	0.800
2020/01/31 18:59:11.0	72.150	-0.490	0.090	0.780
2020/01/31 18:59:11.1	72.170	-0.430	-0.050	0.770
2020/01/31 18:59:11.2	72.200	-0.380	-0.190	0.740
2020/01/31 18:59:11.3	72.240	-0.320	-0.330	0.720
2020/01/31 18:59:11.4	72.270	-0.260	-0.470	0.680
2020/01/31 18:59:11.5	72.310	-0.200	-0.600	0.650
2020/01/31 18:59:11.6	72.360	-0.140	-0.740	0.620
2020/01/31 18:59:11.7	72.400	-0.070	-0.870	0.580
2020/01/31 18:59:11.8	72.460	-0.010	-0.990	0.540
2020/01/31 18:59:11.9	72.510	0.040	-1.110	0.500
2020/01/31 18:59:12.0	72.560	0.100	-1.220	0.460
2020/01/31 18:59:12.1	72.610	0.160	-1.320	0.420
2020/01/31 18:59:12.2	72.660	0.210	-1.410	0.380
2020/01/31 18:59:12.3	72.710	0.260	-1.490	0.340
2020/01/31 18:59:12.4	72.760	0.310	-1.560	0.300
2020/01/31 18:59:12.5	72.810	0.350	-1.620	0.260
2020/01/31 18:59:12.6	72.860	0.390	-1.670	0.230
2020/01/31 18:59:12.7	72.900	0.430	-1.710	0.200
2020/01/31 18:59:12.8	72.950	0.460	-1.740	0.170
2020/01/31 18:59:12.9	73.000	0.490	-1.750	0.150
2020/01/31 18:59:13.0	73.040	0.510	-1.750	0.120
2020/01/31 18:59:13.1	73.070	0.530	-1.740	0.100
2020/01/31 18:59:13.2	73.110	0.550	-1.720	0.090
2020/01/31 18:59:13.3	73.140	0.560	-1.690	0.080
2020/01/31 18:59:13.4	73.170	0.570	-1.650	0.080
2020/01/31 18:59:13.5	73.190	0.570	-1.590	0.070
2020/01/31 18:59:13.6	73.210	0.570	-1.530	0.080
2020/01/31 18:59:13.7	73.230	0.570	-1.450	0.090
2020/01/31 18:59:13.8	73.250	0.560	-1.370	0.100
2020/01/31 18:59:13.9	73.260	0.550	-1.280	0.110
2020/01/31 18:59:14.0	73.270	0.540	-1.180	0.130
2020/01/31 18:59:14.1	73.270	0.520	-1.080	0.160
2020/01/31 18:59:14.2	73.270	0.500	-0.970	0.190
2020/01/31 18:59:14.3	73.260	0.480	-0.850	0.220
2020/01/31 18:59:14.4	73.260	0.450	-0.740	0.260
2020/01/31 18:59:14.5	73.240	0.420	-0.620	0.290
2020/01/31 18:59:14.6	73.230	0.400	-0.500	0.330
2020/01/31 18:59:14.7	73.210	0.370	-0.380	0.380
2020/01/31 18:59:14.8	73.190	0.330	-0.260	0.430
2020/01/31 18:59:14.9	73.170	0.300	-0.140	0.470
2020/01/31 18:59:15.0	73.140	0.270	-0.030	0.520
2020/01/31 18:59:15.1	73.110	0.240	0.080	0.570
2020/01/31 18:59:15.2	73.080	0.200	0.190	0.620
2020/01/31 18:59:15.3	73.050	0.170	0.290	0.670
2020/01/31 18:59:15.4	73.020	0.140	0.380	0.720
2020/01/31 18:59:15.5	72.980	0.110	0.470	0.770
2020/01/31 18:59:15.6	72.950	0.080	0.550	0.820
2020/01/31 18:59:15.7	72.910	0.050	0.620	0.860
2020/01/31 18:59:15.8	72.870	0.020	0.680	0.900
2020/01/31 18:59:15.9	72.840	-0.000	0.740	0.940
2020/01/31 18:59:16.0	72.810	-0.030	0.780	0.980
2020/01/31 18:59:16.1	72.780	-0.050	0.810	1.000
2020/01/31 18:59:16.2	72.750	-0.070	0.840	1.030
2020/01/31 18:59:16.3	72.720	-0.090	0.850	1.040
2020/01/31 18:59:16.4	72.700	-0.110	0.850	1.050
2020/01/31 18:59:16.5	72.680	-0.120	0.840	1.060
2020/01/31 18:59:16.6	72.670	-0.140	0.830	1.060
2020/01/31 18:59:16.7	72.650	-0.150	0.800	1.040
2020/01/31 18:59:16.8	72.650	-0.160	0.770	1.030
2020/01/31 18:59:16.9	72.640	-0.170	0.730	1.000
2020/01/31 18:59:17.0	72.640	-0.170	0.680	0.970
2020/01/31 18:59:17.1	72.650	-0.180	0.630	0.930
2020/01/31 18:59:17.2	72.650	-0.180	0.570	0.890
2020/01/31 18:59:17.3	72.660	-0.180	0.510	0.840
2020/01/31 18:59:17.4	72.680	-0.190	0.440	0.790
2020/01/31 18:59:17.5	72.690	-0.180	0.370	0.730
2020/01/31 18:59:17.6	72.710	-0.180	0.300	0.670
2020/01/31 18:59:17.7	72.730	-0.180	0.230	0.610
2020/01/31 18:59:17.8	72.750	-0.180	0.160	0.540
2020/01/31 18:59:17.9	72.780	-0.170	0.100	0.480
2020/01/31 18:59:18.0	72.800	-0.170	0.030	0.410
2020/01/31 18:59:18.1	72.820	-0.160	-0.040	0.350
2020/01/31 18:59:18.2	72.850	-0.150	-0.100	0.280
2020/01/31 18:59:18.3	72.870	-0.150	-0.150	0.220
2020/01/31 18:59:18.4	72.890	-0.140	-0.200	0.160
2020/01/31 18:59:18.5	72.910	-0.130	-0.250	0.100
2020/01/31 18:59:18.6	72.940	-0.120	-0.300	0.040
2020/01/31 18:59:18.7	72.960	-0.120	-0.330	-0.010
2020/01/31 18:59:18.8	72.980	-0.110	-0.370	-0.070
2020/01/31 18:59:18.9	73.000	-0.100	-0.390	-0.120
2020/01/31 18:59:19.0	73.010	-0.100	-0.420	-0.170
2020/01/31 18:59:19.1	73.030	-0.090	-0.440	-0.220
2020/01/31 18:59:19.2	73.040	-0.080	-0.460	-0.260
2020/01/31 18:59:19.3	73.060	-0.080	-0.470	-0.300
2020/01/31 18:59:19.4	73.070	-0.070	-0.480	-0.340
2020/01/31 18:59:19.5	73.080	-0.070	-0.480	-0.380
2020/01/31 18:59:19.6	73.100	-0.070	-0.490	-0.420
2020/01/31 18:59:19.7	73.110	-0.060	-0.490	-0.450
2020/01/31 18:59:19.8	73.110	-0.060	-0.490	-0.480
2020/01/31 18:59:19.9	73.120	-0.060	-0.490	-0.510
2020/01/31 18:59:20.0	73.130	-0.060	-0.490	-0.540
2020/01/31 18:59:20.1	73.140	-0.060	-0.480	-0.570
2020/01/31 18:59:20.2	73.150	-0.060	-0.480	-0.590
2020/01/31 18:59:20.3	73.160	-0.060	-0.470	-0.620
2020/01/31 18:59:20.4	73.170	-0.060	-0.460	-0.640
2020/01/31 18:59:20.5	73.170	-0.060	-0.460	-0.660
2020/01/31 18:59:20.6	73.180	-0.070	-0.450	-0.670
2020/01/31 18:59:20.7	73.190	-0.070	-0.440	-0.680
2020/01/31 18:59:20.8	73.200	-0.070	-0.430	-0.700
2020/01/31 18:59:20.9	73.210	-0.080	-0.430	-0.700
2020/01/31 18:59:21.0	73.210	-0.080	-0.420	-0.710
2020/01/31 18:59:21.1	73.220	-0.080	-0.420	-0.710
2020/01/31 18:59:21.2	73.220	-0.090	-0.410	-0.700
2020/01/31 18:59:21.3	73.220	-0.090	-0.400	-0.700
2020/01/31 18:59:21.4	73.230	-0.090	-0.400	-0.690
2020/01/31 18:59:21.5	73.230	-0.090	-0.390	-0.680
2020/01/31 18:59:21.6	73.230	-0.090	-0.390	-0.660
2020/01/31 18:59:21.7	73.230	-0.100	-0.380	-0.640
2020/01/31 18:59:21.8	73.230	-0.100	-0.380	-0.620
2020/01/31 18:59:21.9	73.230	-0.100	-0.370	-0.590
2020/01/31 18:59:22.0	73.230	-0.100	-0.370	-0.560
2020/01/31 18:59:22.1	73.230	-0.090	-0.360	-0.530
2020/01/31 18:59:22.2	73.230	-0.090	-0.360	-0.500
2020/01/31 18:59:22.3	73.230	-0.090	-0.350	-0.470
2020/01/31 18:59:22.4	73.240	-0.080	-0.340	-0.430
2020/01/31 18:59:22.5	73.240	-0.080	-0.340	-0.400
2020/01/31 18:59:22.6	73.250	-0.070	-0.330	-0.360
2020/01/31 18:59:22.7	73.250	-0.060	-0.330	-0.330
2020/01/31 18:59:22.8	73.260	-0.050	-0.320	-0.290
2020/01/31 18:59:22.9	73.270	-0.040	-0.320	-0.250
2020/01/31 18:59:23.0	73.280	-0.030	-0.310	-0.220
2020/01/31 18:59:23.1	73.300	-0.020	-0.310	-0.180
2020/01/31 18:59:23.2	73.310	-0.010	-0.300	-0.150
2020/01/31 18:59:23.3	73.320	0.010	-0.300	-0.120
2020/01/31 18:59:23.4	73.340	0.020	-0.290	-0.080
2020/01/31 18:59:23.5	73.360	0.040	-0.290	-0.050
2020/01/31 18:59:23.6	73.380	0.050	-0.280	-0.020
2020/01/31 18:59:23.7	73.400	0.070	-0.270	0.010
2020/01/31 18:59:23.8	73.400	0.080	-0.270	0.040
2020/01/31 18:59:23.9	73.420	0.100	-0.260	0.070
2020/01/31 18:59:24.0	73.440	0.120	-0.240	0.100
2020/01/31 18:59:24.1	73.460	0.130	-0.230	0.130
2020/01/31 18:59:24.2	73.480	0.150	-0.220	0.160
2020/01/31 18:59:24.3	73.500	0.160	-0.200	0.180
2020/01/31 18:59:24.4	73.510	0.180	-0.190	0.210
2020/01/31 18:59:24.5	73.530	0.190	-0.170	0.240
2020/01/31 18:59:24.6	73.550	0.210	-0.150	0.260
2020/01/31 18:59:24.7	73.570	0.220	-0.130	0.290
2020/01/31 18:59:24.8	73.570	0.230	-0.110	0.310
2020/01/31 18:59:24.9	73.590	0.240	-0.090	0.330
2020/01/31 18:59:25.0	73.600	0.250	-0.070	0.350
2020/01/31 18:59:25.1	73.620	0.250	-0.050	0.380
2020/01/31 18:59:25.2	73.630	0.260	-0.030	0.400
2020/01/31 18:59:25.3	73.640	0.270	-0.010	0.420
2020/01/31 18:59:25.4	73.660	0.270	0.010	0.440
2020/01/31 18:59:25.5	73.670	0.270	0.030	0.460
2020/01/31 18:59:25.6	73.680	0.270	0.050	0.480
2020/01/31 18:59:25.7	73.690	0.270	0.070	0.490
2020/01/31 18:59:25.8	73.690	0.270	0.080	0.510
2020/01/31 18:59:25.9	73.700	0.260	0.100	0.530
2020/01/31 18:59:26.0	73.700	0.260	0.120	0.550
2020/01/31 18:59:26.1	73.710	0.250	0.130	0.570
2020/01/31 18:59:26.2	73.710	0.240	0.150	0.600
2020/01/31 18:59:26.3	73.700	0.230	0.160	0.620
2020/01/31 18:59:26.4	73.700	0.220	0.170	0.640
2020/01/31 18:59:26.5	73.700	0.210	0.180	0.670
2020/01/31 18:59:26.6	73.690	0.200	0.190	0.690
2020/01/31 18:59:26.7	73.680	0.180	0.200	0.720
2020/01/31 18:59:26.8	73.680	0.170	0.210	0.750
2020/01/31 18:59:26.9	73.660	0.150	0.210	0.780
2020/01/31 18:59:27.0	73.650	0.140	0.210	0.810
2020/01/31 18:59:27.1	73.640	0.120	0.210	0.840
2020/01/31 18:59:27.2	73.620	0.100	0.210	0.870
2020/01/31 18:59:27.3	73.610	0.080	0.200	0.900
2020/01/31 18:59:27.4	73.590	0.060	0.190	0.930
2020/01/31 18:59:27.5	73.580	0.040	0.180	0.960
2020/01/31 18:59:27.6	73.560	0.030	0.160	0.980
2020/01/31 18:59:27.7	73.550	0.010	0.150	1.010
2020/01/31 18:59:27.8	73.520	-0.010	0.120	1.030
2020/01/31 18:59:27.9	73.510	-0.030	0.100	1.050
2020/01/31 18:59:28.0	73.500	-0.040	0.070	1.070
2020/01/31 18:59:28.1	73.480	-0.060	0.050	1.080
2020/01/31 18:59:28.2	73.470	-0.080	0.020	1.090
2020/01/31 18:59:28.3	73.470	-0.090	-0.010	1.100
2020/01/31 18:59:28.4	73.460	-0.110	-0.050	1.100
2020/01/31 18:59:28.5	73.450	-0.120	-0.080	1.100
2020/01/31 18:59:28.6	73.450	-0.130	-0.120	1.100
2020/01/31 18:59:28.7	73.450	-0.140	-0.160	1.090
2020/01/31 18:59:28.8	73.450	-0.150	-0.190	1.070
2020/01/31 18:59:28.9	73.450	-0.150	-0.230	1.050
2020/01/31 18:59:29.0	73.460	-0.160	-0.270	1.030
2020/01/31 18:59:29.1	73.470	-0.160	-0.300	1.010
2020/01/31 18:59:29.2	73.480	-0.170	-0.340	0.980
2020/01/31 18:59:29.3	73.490	-0.170	-0.370	0.940
2020/01/31 18:59:29.4	73.500	-0.170	-0.410	0.910
2020/01/31 18:59:29.5	73.520	-0.170	-0.440	0.870
2020/01/31 18:59:29.6	73.540	-0.160	-0.470	0.820
2020/01/31 18:59:29.7	73.550	-0.160	-0.500	0.780
2020/01/31 18:59:29.8	73.570	-0.150	-0.530	0.730
2020/01/31 18:59:29.9	73.590	-0.140	-0.560	0.680
2020/01/31 18:59:30.0	73.620	-0.130	-0.580	0.620
2020/01/31 18:59:30.1	73.640	-0.120	-0.600	0.570
2020/01/31 18:59:30.2	73.670	-0.110	-0.610	0.520
2020/01/31 18:59:30.3	73.690	-0.100	-0.630	0.470
2020/01/31 18:59:30.4	73.720	-0.090	-0.640	0.410
2020/01/31 18:59:30.5	73.750	-0.070	-0.640	0.360
2020/01/31 18:59:30.6	73.770	-0.060	-0.650	0.310
2020/01/31 18:59:30.7	73.800	-0.040	-0.650	0.260
2020/01/31 18:59:30.8	73.820	-0.030	-0.650	0.210
2020/01/31 18:59:30.9	73.850	-0.010	-0.640	0.160
2020/01/31 18:59:31.0	73.880	0.010	-0.630	0.120
2020/01/31 18:59:31.1	73.900	0.030	-0.620	0.070
2020/01/31 18:59:31.2	73.930	0.040	-0.610	0.030
2020/01/31 18:59:31.3	73.960	0.060	-0.590	-0.000
2020/01/31 18:59:31.4	73.990	0.080	-0.580	-0.040
2020/01/31 18:59:31.5	74.020	0.090	-0.560	-0.070
2020/01/31 18:59:31.6	74.040	0.110	-0.530	-0.100
2020/01/31 18:59:31.7	74.070	0.130	-0.510	-0.130
2020/01/31 18:59:31.8	74.100	0.140	-0.490	-0.160
2020/01/31 18:59:31.9	74.130	0.160	-0.460	-0.180
2020/01/31 18:59:32.0	74.160	0.170	-0.440	-0.200
2020/01/31 18:59:32.1	74.180	0.190	-0.420	-0.220
2020/01/31 18:59:32.2	74.210	0.200	-0.390	-0.230
2020/01/31 18:59:32.3	74.240	0.210	-0.370	-0.250
2020/01/31 18:59:32.4	74.260	0.220	-0.340	-0.260
2020/01/31 18:59:32.5	74.290	0.230	-0.310	-0.260
2020/01/31 18:59:32.6	74.310	0.240	-0.290	-0.270
2020/01/31 18:59:32.7	74.340	0.240	-0.270	-0.270
2020/01/31 18:59:32.8	74.360	0.250	-0.240	-0.280
2020/01/31 18:59:32.9	74.380	0.250	-0.210	-0.270
2020/01/31 18:59:33.0	74.400	0.250	-0.190	-0.270
2020/01/31 18:59:33.1	74.420	0.250	-0.160	-0.260
2020/01/31 18:59:33.2	74.430	0.250	-0.140	-0.250
2020/01/31 18:59:33.3	74.450	0.240	-0.110	-0.230
2020/01/31 18:59:33.4	74.460	0.230	-0.080	-0.210
2020/01/31 18:59:33.5	74.470	0.220	-0.060	-0.190
2020/01/31 18:59:33.6	74.480	0.210	-0.030	-0.170
2020/01/31 18:59:33.7	74.480	0.200	-0.000	-0.150
2020/01/31 18:59:33.8	74.480	0.180	0.030	-0.120
2020/01/31 18:59:33.9	74.480	0.160	0.060	-0.090
2020/01/31 18:59:34.0	74.480	0.140	0.090	-0.050
2020/01/31 18:59:34.1	74.470	0.120	0.120	-0.020
2020/01/31 18:59:34.2	74.450	0.090	0.150	0.020
2020/01/31 18:59:34.3	74.440	0.060	0.180	0.060
2020/01/31 18:59:34.4	74.420	0.030	0.220	0.100
2020/01/31 18:59:34.5	74.400	0.000	0.250	0.140
2020/01/31 18:59:34.6	74.370	-0.030	0.280	0.190
2020/01/31 18:59:34.7	74.340	-0.070	0.320	0.230
2020/01/31 18:59:34.8	74.320	-0.100	0.350	0.270
2020/01/31 18:59:34.9	74.290	-0.140	0.380	0.320
2020/01/31 18:59:35.0	74.260	-0.180	0.410	0.360
2020/01/31 18:59:35.1	74.220	-0.220	0.430	0.400
2020/01/31 18:59:35.2	74.180	-0.260	0.460	0.440
2020/01/31 18:59:35.3	74.140	-0.300	0.480	0.480
2020/01/31 18:59:35.4	74.100	-0.330	0.500	0.520
2020/01/31 18:59:35.5	74.060	-0.370	0.520	0.550
2020/01/31 18:59:35.6	74.020	-0.410	0.530	0.580
2020/01/31 18:59:35.7	73.990	-0.450	0.540	0.610
2020/01/31 18:59:35.8	73.950	-0.480	0.550	0.630
2020/01/31 18:59:35.9	73.910	-0.520	0.550	0.650
2020/01/31 18:59:36.0	73.880	-0.550	0.550	0.660
2020/01/31 18:59:36.1	73.850	-0.580	0.540	0.670
2020/01/31 18:59:36.2	73.830	-0.600	0.530	0.680
2020/01/31 18:59:36.3	73.800	-0.630	0.520	0.680
2020/01/31 18:59:36.4	73.780	-0.650	0.500	0.670
2020/01/31 18:59:36.5	73.770	-0.660	0.480	0.670
2020/01/31 18:59:36.6	73.760	-0.680	0.450	0.650
2020/01/31 18:59:36.7	73.750	-0.680	0.420	0.630
2020/01/31 18:59:36.8	73.750	-0.690	0.380	0.600
2020/01/31 18:59:36.9	73.750	-0.690	0.340	0.570
2020/01/31 18:59:37.0	73.760	-0.690	0.290	0.540
2020/01/31 18:59:37.1	73.770	-0.680	0.240	0.510
2020/01/31 18:59:37.2	73.780	-0.670	0.190	0.460
2020/01/31 18:59:37.3	73.800	-0.650	0.130	0.420
2020/01/31 18:59:37.4	73.820	-0.630	0.060	0.370
2020/01/31 18:59:37.5	73.840	-0.600	-0.000	0.320
2020/01/31 18:59:37.6	73.870	-0.570	-0.080	0.270
2020/01/31 18:59:37.7	73.900	-0.540	-0.150	0.220
2020/01/31 18:59:37.8	73.950	-0.500	-0.230	0.160
2020/01/31 18:59:37.9	73.990	-0.450	-0.310	0.100
2020/01/31 18:59:38.0	74.030	-0.410	-0.400	0.040
2020/01/31 18:59:38.1	74.070	-0.360	-0.480	-0.020
2020/01/31 18:59:38.2	74.120	-0.310	-0.570	-0.080
2020/01/31 18:59:38.3	74.170	-0.250	-0.660	-0.140
2020/01/31 18:59:38.4	74.220	-0.200	-0.750	-0.200
2020/01/31 18:59:38.5	74.270	-0.140	-0.840	-0.260
2020/01/31 18:59:38.6	74.320	-0.080	-0.930	-0.320
2020/01/31 18:59:38.7	74.370	-0.020	-1.010	-0.380
2020/01/31 18:59:38.8	74.420	0.040	-1.100	-0.440
2020/01/31 18:59:38.9	74.480	0.100	-1.180	-0.490
2020/01/31 18:59:39.0	74.530	0.160	-1.250	-0.540
2020/01/31 18:59:39.1	74.590	0.220	-1.320	-0.590
2020/01/31 18:59:39.2	74.640	0.280	-1.380	-0.630
2020/01/31 18:59:39.3	74.690	0.340	-1.440	-0.670
2020/01/31 18:59:39.4	74.740	0.390	-1.490	-0.710
2020/01/31 18:59:39.5	74.780	0.450	-1.530	-0.740
2020/01/31 18:59:39.6	74.820	0.500	-1.570	-0.760
2020/01/31 18:59:39.7	74.860	0.550	-1.590	-0.780
2020/01/31 18:59:39.8	74.890	0.590	-1.610	-0.800
2020/01/31 18:59:39.9	74.930	0.630	-1.610	-0.800
2020/01/31 18:59:40.0	74.950	0.670	-1.600	-0.800
2020/01/31 18:59:40.1	74.980	0.700	-1.590	-0.800
2020/01/31 18:59:40.2	75.000	0.730	-1.560	-0.780
2020/01/31 18:59:40.3	75.010	0.750	-1.520	-0.770
2020/01/31 18:59:40.4	75.020	0.770	-1.470	-0.740
2020/01/31 18:59:40.5	75.030	0.790	-1.410	-0.710
2020/01/31 18:59:40.6	75.030	0.800	-1.340	-0.670
2020/01/31 18:59:40.7	75.030	0.800	-1.250	-0.630
2020/01/31 18:59:40.8	75.020	0.800	-1.160	-0.580
2020/01/31 18:59:40.9	75.010	0.800	-1.060	-0.530
2020/01/31 18:59:41.0	74.990	0.780	-0.950	-0.470
2020/01/31 18:59:41.1	74.970	0.770	-0.840	-0.410
2020/01/31 18:59:41.2	74.940	0.750	-0.710	-0.340
2020/01/31 18:59:41.3	74.910	0.730	-0.590	-0.270
2020/01/31 18:59:41.4	74.880	0.700	-0.450	-0.200
2020/01/31 18:59:41.5	74.840	0.670	-0.320	-0.120
2020/01/31 18:59:41.6	74.800	0.630	-0.180	-0.050
2020/01/31 18:59:41.7	74.760	0.590	-0.050	0.030
2020/01/31 18:59:41.8	74.710	0.550	0.090	0.110
2020/01/31 18:59:41.9	74.660	0.500	0.230	0.190
2020/01/31 18:59:42.0	74.610	0.460	0.360	0.270
2020/01/31 18:59:42.1	74.560	0.410	0.490	0.350
2020/01/31 18:59:42.2	74.510	0.360	0.610	0.430
2020/01/31 18:59:42.3	74.460	0.300	0.720	0.510
2020/01/31 18:59:42.4	74.410	0.250	0.830	0.580
2020/01/31 18:59:42.5	74.360	0.200	0.930	0.650
2020/01/31 18:59:42.6	74.310	0.140	1.030	0.720
2020/01/31 18:59:42.7	74.260	0.090	1.110	0.780
2020/01/31 18:59:42.8	74.220	0.040	1.180	0.840
2020/01/31 18:59:42.9	74.170	-0.010	1.240	0.890
2020/01/31 18:59:43.0	74.120	-0.060	1.290	0.940
2020/01/31 18:59:43.1	74.080	-0.110	1.330	0.990
2020/01/31 18:59:43.2	74.040	-0.150	1.360	1.030
2020/01/31 18:59:43.3	74.000	-0.200	1.380	1.060
2020/01/31 18:59:43.4	73.960	-0.230	1.390	1.090
2020/01/31 18:59:43.5	73.930	-0.270	1.380	1.110
2020/01/31 18:59:43.6	73.900	-0.300	1.360	1.130
2020/01/31 18:59:43.7	73.880	-0.330	1.340	1.140
2020/01/31 18:59:43.8	73.860	-0.360	1.290	1.150
2020/01/31 18:59:43.9	73.840	-0.380	1.240	1.150
2020/01/31 18:59:44.0	73.830	-0.400	1.190	1.150
2020/01/31 18:59:44.1	73.820	-0.420	1.120	1.140
2020/01/31 18:59:44.2	73.820	-0.430	1.040	1.120
2020/01/31 18:59:44.3	73.820	-0.440	0.950	1.100
2020/01/31 18:59:44.4	73.830	-0.440	0.860	1.080
2020/01/31 18:59:44.5	73.840	-0.440	0.760	1.050
2020/01/31 18:59:44.6	73.850	-0.440	0.660	1.020
2020/01/31 18:59:44.7	73.870	-0.440	0.550	0.980
2020/01/31 18:59:44.8	73.890	-0.430	0.440	0.940
2020/01/31 18:59:44.9	73.920	-0.420	0.330	0.890
2020/01/31 18:59:45.0	73.950	-0.410	0.210	0.840
2020/01/31 18:59:45.1	73.990	-0.390	0.100	0.790
2020/01/31 18:59:45.2	74.030	-0.370	-0.010	0.740
2020/01/31 18:59:45.3	74.070	-0.350	-0.130	0.680
2020/01/31 18:59:45.4	74.110	-0.330	-0.230	0.620
2020/01/31 18:59:45.5	74.160	-0.310	-0.340	0.560
2020/01/31 18:59:45.6	74.210	-0.290	-0.440	0.500
2020/01/31 18:59:45.7	74.260	-0.260	-0.530	0.440
2020/01/31 18:59:45.8	74.310	-0.240	-0.620	0.370
2020/01/31 18:59:45.9	74.360	-0.210	-0.710	0.310
2020/01/31 18:59:46.0	74.410	-0.180	-0.780	0.250
2020/01/31 18:59:46.1	74.470	-0.160	-0.850	0.190
2020/01/31 18:59:46.2	74.520	-0.130	-0.910	0.130
2020/01/31 18:59:46.3	74.570	-0.100	-0.960	0.080
2020/01/31 18:59:46.4	74.610	-0.080	-1.010	0.030
2020/01/31 18:59:46.5	74.660	-0.050	-1.040	-0.020
2020/01/31 18:59:46.6	74.700	-0.030	-1.070	-0.060
2020/01/31 18:59:46.7	74.740	-0.000	-1.090	-0.100
2020/01/31 18:59:46.8	74.770	0.020	-1.100	-0.140
2020/01/31 18:59:46.9	74.810	0.040	-1.110	-0.170
2020/01/31 18:59:47.0	74.840	0.060	-1.110	-0.190
2020/01/31 18:59:47.1	74.870	0.080	-1.100	-0.210
2020/01/31 18:59:47.2	74.890	0.090	-1.090	-0.220
2020/01/31 18:59:47.3	74.920	0.110	-1.070	-0.230
2020/01/31 18:59:47.4	74.930	0.120	-1.040	-0.240
2020/01/31 18:59:47.5	74.950	0.130	-1.010	-0.230
2020/01/31 18:59:47.6	74.960	0.130	-0.980	-0.230
2020/01/31 18:59:47.7	74.970	0.140	-0.950	-0.210
2020/01/31 18:59:47.8	74.980	0.140	-0.910	-0.190
2020/01/31 18:59:47.9	74.980	0.140	-0.870	-0.170
2020/01/31 18:59:48.0	74.980	0.140	-0.820	-0.140
2020/01/31 18:59:48.1	74.980	0.140	-0.780	-0.110
2020/01/31 18:59:48.2	74.970	0.140	-0.740	-0.070
2020/01/31 18:59:48.3	74.960	0.130	-0.690	-0.020
2020/01/31 18:59:48.4	74.950	0.120	-0.650	0.030
2020/01/31 18:59:48.5	74.940	0.110	-0.610	0.080
2020/01/31 18:59:48.6	74.920	0.100	-0.560	0.140
2020/01/31 18:59:48.7	74.900	0.090	-0.520	0.200
2020/01/31 18:59:48.8	74.880	0.080	-0.480	0.260
2020/01/31 18:59:48.9	74.860	0.070	-0.440	0.330
2020/01/31 18:59:49.0	74.830	0.060	-0.400	0.400
2020/01/31 18:59:49.1	74.810	0.040	-0.370	0.470
2020/01/31 18:59:49.2	74.790	0.030	-0.340	0.540
2020/01/31 18:59:49.3	74.760	0.010	-0.300	0.610
2020/01/31 18:59:49.4	74.740	-0.000	-0.270	0.680
2020/01/31 18:59:49.5	74.720	-0.010	-0.250	0.750
2020/01/31 18:59:49.6	74.690	-0.030	-0.220	0.820
2020/01/31 18:59:49.7	74.670	-0.040	-0.200	0.890
2020/01/31 18:59:49.8	74.640	-0.050	-0.180	0.950
2020/01/31 18:59:49.9	74.620	-0.070	-0.160	1.010
2020/01/31 18:59:50.0	74.600	-0.080	-0.140	1.070
2020/01/31 18:59:50.1	74.580	-0.090	-0.120	1.120
2020/01/31 18:59:50.2	74.560	-0.100	-0.110	1.170
2020/01/31 18:59:50.3	74.540	-0.110	-0.100	1.220
2020/01/31 18:59:50.4	74.520	-0.110	-0.080	1.260
2020/01/31 18:59:50.5	74.500	-0.120	-0.070	1.300
2020/01/31 18:59:50.6	74.490	-0.130	-0.060	1.330
2020/01/31 18:59:50.7	74.470	-0.130	-0.050	1.360
2020/01/31 18:59:50.8	74.470	-0.140	-0.040	1.380
2020/01/31 18:59:50.9	74.450	-0.140	-0.030	1.400
2020/01/31 18:59:51.0	74.440	-0.150	-0.020	1.410
2020/01/31 18:59:51.1	74.430	-0.150	-0.010	1.420
2020/01/31 18:59:51.2	74.420	-0.160	-0.000	1.430
2020/01/31 18:59:51.3	74.410	-0.160	0.010	1.430
2020/01/31 18:59:51.4	74.400	-0.160	0.020	1.430
2020/01/31 18:59:51.5	74.390	-0.170	0.040	1.420
2020/01/31 18:59:51.6	74.380	-0.170	0.050	1.410
2020/01/31 18:59:51.7	74.370	-0.170	0.070	1.400
2020/01/31 18:59:51.8	74.360	-0.180	0.090	1.380
2020/01/31 18:59:51.9	74.350	-0.180	0.110	1.350
2020/01/31 18:59:52.0	74.350	-0.190	0.130	1.330
2020/01/31 18:59:52.1	74.340	-0.190	0.150	1.290
2020/01/31 18:59:52.2	74.330	-0.200	0.170	1.260
2020/01/31 18:59:52.3	74.320	-0.210	0.190	1.220
2020/01/31 18:59:52.4	74.310	-0.210	0.210	1.180
2020/01/31 18:59:52.5	74.310	-0.220	0.230	1.130
2020/01/31 18:59:52.6	74.300	-0.230	0.250	1.080
2020/01/31 18:59:52.7	74.290	-0.230	0.270	1.030
2020/01/31 18:59:52.8	74.290	-0.240	0.290	0.970
2020/01/31 18:59:52.9	74.280	-0.250	0.310	0.920
2020/01/31 18:59:53.0	74.280	-0.260	0.330	0.860
2020/01/31 18:59:53.1	74.270	-0.260	0.340	0.800
2020/01/31 18:59:53.2	74.270	-0.270	0.360	0.740
2020/01/31 18:59:53.3	74.260	-0.270	0.370	0.680
2020/01/31 18:59:53.4	74.260	-0.270	0.380	0.620
2020/01/31 18:59:53.5	74.250	-0.280	0.390	0.560
2020/01/31 18:59:53.6	74.250	-0.280	0.390	0.490
2020/01/31 18:59:53.7	74.250	-0.280	0.400	0.430
2020/01/31 18:59:53.8	74.250	-0.270	0.400	0.370
2020/01/31 18:59:53.9	74.250	-0.270	0.390	0.310
2020/01/31 18:59:54.0	74.250	-0.260	0.380	0.250
2020/01/31 18:59:54.1	74.250	-0.250	0.360	0.180
2020/01/31 18:59:54.2	74.250	-0.240	0.350	0.120
2020/01/31 18:59:54.3	74.260	-0.230	0.320	0.060
2020/01/31 18:59:54.4	74.260	-0.210	0.290	-0.000
2020/01/31 18:59:54.5	74.270	-0.190	0.260	-0.060
2020/01/31 18:59:54.6	74.280	-0.170	0.220	-0.120
2020/01/31 18:59:54.7	74.290	-0.150	0.180	-0.180
2020/01/31 18:59:54.8	74.300	-0.130	0.130	-0.250
2020/01/31 18:59:54.9	74.320	-0.100	0.080	-0.300
2020/01/31 18:59:55.0	74.330	-0.070	0.020	-0.360
2020/01/31 18:59:55.1	74.350	-0.040	-0.030	-0.420
2020/01/31 18:59:55.2	74.360	-0.010	-0.090	-0.470
2020/01/31 18:59:55.3	74.380	0.020	-0.160	-0.520
2020/01/31 18:59:55.4	74.390	0.050	-0.220	-0.570
2020/01/31 18:59:55.5	74.410	0.080	-0.280	-0.620
2020/01/31 18:59:55.6	74.430	0.110	-0.350	-0.670
2020/01/31 18:59:55.7	74.440	0.140	-0.410	-0.710
2020/01/31 18:59:55.8	74.460	0.180	-0.480	-0.750
2020/01/31 18:59:55.9	74.470	0.210	-0.550	-0.790
2020/01/31 18:59:56.0	74.490	0.240	-0.610	-0.830
2020/01/31 18:59:56.1	74.500	0.270	-0.670	-0.860
2020/01/31 18:59:56.2	74.520	0.300	-0.730	-0.890
2020/01/31 18:59:56.3	74.530	0.320	-0.780	-0.910
2020/01/31 18:59:56.4	74.540	0.350	-0.840	-0.940
2020/01/31 18:59:56.5	74.550	0.370	-0.890	-0.960
2020/01/31 18:59:56.6	74.560	0.400	-0.930	-0.970
2020/01/31 18:59:56.7	74.570	0.420	-0.970	-0.990
2020/01/31 18:59:56.8	74.570	0.440	-1.000	-1.000
2020/01/31 18:59:56.9	74.580	0.450	-1.030	-1.020
2020/01/31 18:59:57.0	74.580	0.470	-1.060	-1.020
2020/01/31 18:59:57.1	74.580	0.480	-1.080	-1.030
2020/01/31 18:59:57.2	74.580	0.490	-1.090	-1.030
2020/01/31 18:59:57.3	74.580	0.500	-1.100	-1.030
2020/01/31 18:59:57.4	74.580	0.500	-1.100	-1.030
2020/01/31 18:59:57.5	74.580	0.510	-1.100	-1.020
2020/01/31 18:59:57.6	74.570	0.510	-1.080	-1.010
2020/01/31 18:59:57.7	74.560	0.510	-1.070	-1.000
2020/01/31 18:59:57.8	74.550	0.510	-1.050	-0.990
2020/01/31 18:59:57.9	74.540	0.500	-1.020	-0.970
2020/01/31 18:59:58.0	74.520	0.500	-0.980	-0.940
2020/01/31 18:59:58.1	74.510	0.490	-0.940	-0.910
2020/01/31 18:59:58.2	74.490	0.480	-0.890	-0.880
2020/01/31 18:59:58.3	74.470	0.470	-0.840	-0.840
2020/01/31 18:59:58.4	74.450	0.460	-0.790	-0.790
2020/01/31 18:59:58.5	74.430	0.450	-0.730	-0.750
2020/01/31 18:59:58.6	74.410	0.440	-0.670	-0.690
2020/01/31 18:59:58.7	74.380	0.430	-0.600	-0.640
2020/01/31 18:59:58.8	74.360	0.410	-0.530	-0.580
2020/01/31 18:59:58.9	74.340	0.400	-0.460	-0.510
2020/01/31 18:59:59.0	74.310	0.380	-0.390	-0.440
2020/01/31 18:59:59.1	74.290	0.360	-0.320	-0.370
2020/01/31 18:59:59.2	74.260	0.350	-0.250	-0.300
2020/01/31 18:59:59.3	74.240	0.330	-0.180	-0.230
2020/01/31 18:59:59.4	74.220	0.310	-0.110	-0.150
2020/01/31 18:59:59.5	74.200	0.300	-0.040	-0.080
2020/01/31 18:59:59.6	74.180	0.280	0.020	0.000
2020/01/31 18:59:59.7	74.170	0.260	0.080	0.080
2020/01/31 18:59:59.8	74.160	0.240	0.130	0.150
2020/01/31 18:59:59.9	74.150	0.220	0.190	0.230
2020/01/31 19:00:00.0	74.140	0.200	0.240	0.300
2020/01/31 19:00:00.1	74.130	0.180	0.280	0.380
2020/01/31 19:00:00.2	74.130	0.160	0.320	0.450
2020/01/31 19:00:00.3	74.130	0.140	0.360	0.520
2020/01/31 19:00:00.4	74.130	0.120	0.390	0.590
2020/01/31 19:00:00.5	74.130	0.100	0.420	0.650
2020/01/31 19:00:00.6	74.140	0.080	0.440	0.720
2020/01/31 19:00:00.7	74.140	0.060	0.460	0.780
2020/01/31 19:00:00.8	74.160	0.040	0.490	0.840
2020/01/31 19:00:00.9	74.170	0.010	0.500	0.900
2020/01/31 19:00:01.0	74.180	-0.010	0.510	0.960
2020/01/31 19:00:01.1	74.190	-0.030	0.510	1.020
2020/01/31 19:00:01.2	74.210	-0.060	0.510	1.070
2020/01/31 19:00:01.3	74.220	-0.080	0.510	1.130
2020/01/31 19:00:01.4	74.230	-0.110	0.510	1.180
2020/01/31 19:00:01.5	74.240	-0.140	0.500	1.240
2020/01/31 19:00:01.6	74.250	-0.160	0.500	1.290
2020/01/31 19:00:01.7	74.260	-0.190	0.490	1.340
2020/01/31 19:00:01.8	74.270	-0.220	0.470	1.390
2020/01/31 19:00:01.9	74.280	-0.250	0.460	1.440
2020/01/31 19:00:02.0	74.290	-0.280	0.450	1.480
2020/01/31 19:00:02.1	74.300	-0.310	0.440	1.530
2020/01/31 19:00:02.2	74.300	-0.340	0.420	1.570
2020/01/31 19:00:02.3	74.310	-0.370	0.410	1.620
2020/01/31 19:00:02.4	74.310	-0.400	0.390	1.660
2020/01/31 19:00:02.5	74.310	-0.430	0.370	1.700
2020/01/31 19:00:02.6	74.310	-0.460	0.350	1.730
2020/01/31 19:00:02.7	74.320	-0.490	0.330	1.760
2020/01/31 19:00:02.8	74.310	-0.520	0.320	1.800
2020/01/31 19:00:02.9	74.310	-0.550	0.300	1.820
2020/01/31 19:00:03.0	74.310	-0.580	0.280	1.850
2020/01/31 19:00:03.1	74.310	-0.600	0.250	1.870
2020/01/31 19:00:03.2	74.310	-0.630	0.230	1.890
2020/01/31 19:00:03.3	74.310	-0.650	0.200	1.900
2020/01/31 19:00:03.4	74.310	-0.670	0.180	1.910
2020/01/31 19:00:03.5	74.300	-0.690	0.150	1.920
2020/01/31 19:00:03.6	74.300	-0.700	0.120	1.920
2020/01/31 19:00:03.7	74.300	-0.710	0.100	1.910
2020/01/31 19:00:03.8	74.300	-0.720	0.060	1.900
2020/01/31 19:00:03.9	74.300	-0.730	0.030	1.890
2020/01/31 19:00:04.0	74.290	-0.730	0.000	1.870
2020/01/31 19:00:04.1	74.290	-0.730	-0.030	1.850
2020/01/31 19:00:04.2	74.290	-0.720	-0.070	1.830
2020/01/31 19:00:04.3	74.290	-0.710	-0.100	1.800
2020/01/31 19:00:04.4	74.290	-0.700	-0.140	1.770
2020/01/31 19:00:04.5	74.300	-0.680	-0.180	1.740
2020/01/31 19:00:04.6	74.300	-0.660	-0.220	1.700
2020/01/31 19:00:04.7	74.300	-0.630	-0.260	1.660
2020/01/31 19:00:04.8	74.310	-0.600	-0.300	1.620
2020/01/31 19:00:04.9	74.310	-0.570	-0.340	1.570
2020/01/31 19:00:05.0	74.320	-0.530	-0.380	1.520
2020/01/31 19:00:05.1	74.320	-0.490	-0.420	1.470
2020/01/31 19:00:05.2	74.330	-0.450	-0.460	1.420
2020/01/31 19:00:05.3	74.330	-0.400	-0.500	1.370
2020/01/31 19:00:05.4	74.340	-0.350	-0.540	1.320
2020/01/31 19:00:05.5	74.350	-0.300	-0.580	1.260
2020/01/31 19:00:05.6	74.350	-0.250	-0.620	1.210
2020/01/31 19:00:05.7	74.360	-0.200	-0.660	1.160
2020/01/31 19:00:05.8	74.360	-0.140	-0.690	1.100
2020/01/31 19:00:05.9	74.360	-0.090	-0.720	1.050
2020/01/31 19:00:06.0	74.360	-0.030	-0.750	1.000
2020/01/31 19:00:06.1	74.370	0.030	-0.780	0.950
2020/01/31 19:00:06.2	74.370	0.080	-0.800	0.900
2020/01/31 19:00:06.3	74.370	0.130	-0.820	0.850
2020/01/31 19:00:06.4	74.360	0.180	-0.840	0.800
2020/01/31 19:00:06.5	74.360	0.230	-0.850	0.750
2020/01/31 19:00:06.6	74.360	0.280	-0.860	0.710
2020/01/31 19:00:06.7	74.350	0.330	-0.870	0.660
2020/01/31 19:00:06.8	74.330	0.370	-0.880	0.620
2020/01/31 19:00:06.9	74.330	0.400	-0.880	0.580
2020/01/31 19:00:07.0	74.320	0.440	-0.870	0.530
2020/01/31 19:00:07.1	74.310	0.470	-0.860	0.490
2020/01/31 19:00:07.2	74.300	0.490	-0.850	0.450
2020/01/31 19:00:07.3	74.280	0.520	-0.840	0.400
2020/01/31 19:00:07.4	74.270	0.530	-0.820	0.360
2020/01/31 19:00:07.5	74.250	0.550	-0.790	0.320
2020/01/31 19:00:07.6	74.240	0.550	-0.760	0.270
2020/01/31 19:00:07.7	74.220	0.560	-0.730	0.230
2020/01/31 19:00:07.8	74.200	0.550	-0.690	0.180
2020/01/31 19:00:07.9	74.180	0.550	-0.660	0.140
2020/01/31 19:00:08.0	74.160	0.540	-0.610	0.100
2020/01/31 19:00:08.1	74.140	0.520	-0.570	0.050
2020/01/31 19:00:08.2	74.120	0.500	-0.520	0.010
2020/01/31 19:00:08.3	74.090	0.480	-0.460	-0.030
2020/01/31 19:00:08.4	74.070	0.460	-0.410	-0.080
2020/01/31 19:00:08.5	74.050	0.430	-0.350	-0.120
2020/01/31 19:00:08.6	74.020	0.400	-0.290	-0.160
2020/01/31 19:00:08.7	74.000	0.360	-0.230	-0.210
2020/01/31 19:00:08.8	73.970	0.330	-0.170	-0.250
2020/01/31 19:00:08.9	73.950	0.290	-0.100	-0.290
2020/01/31 19:00:09.0	73.920	0.250	-0.040	-0.330
2020/01/31 19:00:09.1	73.900	0.210	0.020	-0.370
2020/01/31 19:00:09.2	73.870	0.180	0.080	-0.410
2020/01/31 19:00:09.3	73.850	0.140	0.140	-0.450
2020/01/31 19:00:09.4	73.830	0.100	0.190	-0.490
2020/01/31 19:00:09.5	73.800	0.060	0.250	-0.520
2020/01/31 19:00:09.6	73.780	0.030	0.290	-0.560
2020/01/31 19:00:09.7	73.760	-0.010	0.340	-0.600
2020/01/31 19:00:09.8	73.740	-0.040	0.380	-0.630
2020/01/31 19:00:09.9	73.720	-0.070	0.410	-0.670
2020/01/31 19:00:10.0	73.710	-0.090	0.430	-0.710
2020/01/31 19:00:10.1	73.700	-0.120	0.450	-0.740
2020/01/31 19:00:10.2	73.690	-0.140	0.460	-0.770
2020/01/31 19:00:10.3	73.680	-0.160	0.470	-0.810
2020/01/31 19:00:10.4	73.680	-0.170	0.460	-0.840
2020/01/31 19:00:10.5	73.680	-0.180	0.450	-0.870
2020/01/31 19:00:10.6	73.680	-0.190	0.430	-0.900
2020/01/31 19:00:10.7	73.680	-0.190	0.400	-0.930
2020/01/31 19:00:10.8	73.680	-0.190	0.370	-0.960
2020/01/31 19:00:10.9	73.690	-0.190	0.330	-0.980
2020/01/31 19:00:11.0	73.700	-0.190	0.280	-1.000
2020/01/31 19:00:11.1	73.710	-0.180	0.230	-1.020
2020/01/31 19:00:11.2	73.720	-0.170	0.170	-1.040
2020/01/31 19:00:11.3	73.740	-0.160	0.110	-1.050
2020/01/31 19:00:11.4	73.750	-0.140	0.050	-1.060
2020/01/31 19:00:11.5	73.770	-0.130	-0.010	-1.070
2020/01/31 19:00:11.6	73.790	-0.110	-0.080	-1.070
2020/01/31 19:00:11.7	73.810	-0.090	-0.150	-1.070
2020/01/31 19:00:11.8	73.830	-0.070	-0.220	-1.060
2020/01/31 19:00:11.9	73.850	-0.050	-0.280	-1.060
2020/01/31 19:00:12.0	73.880	-0.030	-0.350	-1.050
2020/01/31 19:00:12.1	73.900	-0.010	-0.410	-1.030
2020/01/31 19:00:12.2	73.920	0.010	-0.470	-1.010
2020/01/31 19:00:12.3	73.940	0.030	-0.520	-0.990
2020/01/31 19:00:12.4	73.960	0.050	-0.570	-0.970
2020/01/31 19:00:12.5	73.990	0.070	-0.620	-0.940
2020/01/31 19:00:12.6	74.010	0.090	-0.650	-0.910
2020/01/31 19:00:12.7	74.030	0.100	-0.680	-0.870
2020/01/31 19:00:12.8	74.050	0.120	-0.710	-0.830
2020/01/31 19:00:12.9	74.070	0.130	-0.730	-0.790
2020/01/31 19:00:13.0	74.080	0.140	-0.740	-0.750
2020/01/31 19:00:13.1	74.100	0.150	-0.740	-0.700
2020/01/31 19:00:13.2	74.110	0.160	-0.740	-0.650
2020/01/31 19:00:13.3	74.120	0.160	-0.730	-0.600
2020/01/31 19:00:13.4	74.130	0.170	-0.710	-0.540
2020/01/31 19:00:13.5	74.140	0.170	-0.690	-0.480
2020/01/31 19:00:13.6	74.150	0.170	-0.650	-0.420
2020/01/31 19:00:13.7	74.150	0.160	-0.620	-0.350
2020/01/31 19:00:13.8	74.150	0.160	-0.570	-0.280
2020/01/31 19:00:13.9	74.150	0.150	-0.530	-0.210
2020/01/31 19:00:14.0	74.140	0.140	-0.480	-0.140
2020/01/31 19:00:14.1	74.130	0.140	-0.420	-0.060
2020/01/31 19:00:14.2	74.120	0.120	-0.360	0.020
2020/01/31 19:00:14.3	74.100	0.110	-0.300	0.100
2020/01/31 19:00:14.4	74.080	0.100	-0.230	0.180
2020/01/31 19:00:14.5	74.060	0.090	-0.170	0.260
2020/01/31 19:00:14.6	74.040	0.070	-0.100	0.340
2020/01/31 19:00:14.7	74.020	0.060	-0.030	0.420
2020/01/31 19:00:14.8	74.000	0.040	0.030	0.500
2020/01/31 19:00:14.9	73.970	0.030	0.100	0.580
2020/01/31 19:00:15.0	73.940	0.010	0.160	0.660
2020/01/31 19:00:15.1	73.910	-0.000	0.220	0.740
2020/01/31 19:00:15.2	73.880	-0.010	0.280	0.820
2020/01/31 19:00:15.3	73.850	-0.030	0.330	0.890
2020/01/31 19:00:15.4	73.820	-0.040	0.380	0.960
2020/01/31 19:00:15.5	73.790	-0.050	0.420	1.030
2020/01/31 19:00:15.6	73.770	-0.060	0.460	1.090
2020/01/31 19:00:15.7	73.740	-0.070	0.500	1.150
2020/01/31 19:00:15.8	73.710	-0.080	0.520	1.200
2020/01/31 19:00:15.9	73.680	-0.080	0.550	1.250
2020/01/31 19:00:16.0	73.660	-0.080	0.560	1.300
2020/01/31 19:00:16.1	73.630	-0.090	0.570	1.340
2020/01/31 19:00:16.2	73.610	-0.090	0.570	1.370
2020/01/31 19:00:16.3	73.580	-0.090	0.570	1.410
2020/01/31 19:00:16.4	73.560	-0.080	0.560	1.430
2020/01/31 19:00:16.5	73.540	-0.080	0.540	1.450
2020/01/31 19:00:16.6	73.520	-0.070	0.510	1.470
2020/01/31 19:00:16.7	73.510	-0.070	0.480	1.480
2020/01/31 19:00:16.8	73.490	-0.060	0.450	1.490
2020/01/31 19:00:16.9	73.470	-0.050	0.400	1.500
2020/01/31 19:00:17.0	73.460	-0.040	0.360	1.500
2020/01/31 19:00:17.1	73.450	-0.030	0.300	1.490
2020/01/31 19:00:17.2	73.440	-0.020	0.250	1.480
2020/01/31 19:00:17.3	73.430	-0.000	0.180	1.470
2020/01/31 19:00:17.4	73.420	0.010	0.120	1.460
2020/01/31 19:00:17.5	73.420	0.020	0.050	1.440
2020/01/31 19:00:17.6	73.420	0.030	-0.020	1.410
2020/01/31 19:00:17.7	73.420	0.050	-0.100	1.380
2020/01/31 19:00:17.8	73.410	0.060	-0.170	1.350
2020/01/31 19:00:17.9	73.420	0.070	-0.240	1.320
2020/01/31 19:00:18.0	73.420	0.080	-0.320	1.280
2020/01/31 19:00:18.1	73.430	0.090	-0.390	1.240
2020/01/31 19:00:18.2	73.440	0.100	-0.470	1.200
2020/01/31 19:00:18.3	73.450	0.110	-0.540	1.160
2020/01/31 19:00:18.4	73.460	0.120	-0.610	1.120
2020/01/31 19:00:18.5	73.480	0.130	-0.670	1.080
2020/01/31 19:00:18.6	73.490	0.130	-0.730	1.030
2020/01/31 19:00:18.7	73.510	0.140	-0.790	0.990
2020/01/31 19:00:18.8	73.520	0.140	-0.830	0.940
2020/01/31 19:00:18.9	73.540	0.140	-0.880	0.900
2020/01/31 19:00:19.0	73.560	0.140	-0.920	0.860
2020/01/31 19:00:19.1	73.580	0.140	-0.950	0.810
2020/01/31 19:00:19.2	73.600	0.130	-0.980	0.770
2020/01/31 19:00:19.3	73.610	0.130	-1.000	0.730
2020/01/31 19:00:19.4	73.630	0.120	-1.010	0.700
2020/01/31 19:00:19.5	73.650	0.110	-1.020	0.660
2020/01/31 19:00:19.6	73.670	0.100	-1.020	0.620
2020/01/31 19:00:19.7	73.690	0.090	-1.010	0.590
2020/01/31 19:00:19.8	73.710	0.070	-1.000	0.550
2020/01/31 19:00:19.9	73.720	0.060	-0.980	0.520
2020/01/31 19:00:20.0	73.740	0.040	-0.950	0.490
2020/01/31 19:00:20.1	73.750	0.020	-0.920	0.460
2020/01/31 19:00:20.2	73.770	0.010	-0.880	0.430
2020/01/31 19:00:20.3	73.780	-0.010	-0.840	0.400
2020/01/31 19:00:20.4	73.800	-0.030	-0.790	0.380
2020/01/31 19:00:20.5	73.810	-0.050	-0.740	0.350
2020/01/31 19:00:20.6	73.820	-0.070	-0.680	0.330
2020/01/31 19:00:20.7	73.830	-0.100	-0.620	0.300
2020/01/31 19:00:20.8	73.840	-0.120	-0.560	0.280
2020/01/31 19:00:20.9	73.850	-0.140	-0.500	0.260
2020/01/31 19:00:21.0	73.860	-0.160	-0.430	0.240
2020/01/31 19:00:21.1	73.870	-0.180	-0.360	0.220
2020/01/31 19:00:21.2	73.870	-0.200	-0.300	0.200
2020/01/31 19:00:21.3	73.880	-0.220	-0.230	0.180
2020/01/31 19:00:21.4	73.880	-0.240	-0.160	0.160
2020/01/31 19:00:21.5	73.880	-0.260	-0.100	0.150
2020/01/31 19:00:21.6	73.890	-0.280	-0.030	0.130
2020/01/31 19:00:21.7	73.890	-0.290	0.030	0.120
2020/01/31 19:00:21.8	73.890	-0.310	0.090	0.110
2020/01/31 19:00:21.9	73.890	-0.330	0.150	0.100
2020/01/31 19:00:22.0	73.890	-0.340	0.200	0.090
2020/01/31 19:00:22.1	73.890	-0.350	0.250	0.080
2020/01/31 19:00:22.2	73.890	-0.360	0.300	0.070
2020/01/31 19:00:22.3	73.880	-0.370	0.350	0.070
2020/01/31 19:00:22.4	73.880	-0.380	0.390	0.060
2020/01/31 19:00:22.5	73.880	-0.390	0.430	0.060
2020/01/31 19:00:22.6	73.870	-0.400	0.460	0.060
2020/01/31 19:00:22.7	73.870	-0.400	0.490	0.060
2020/01/31 19:00:22.8	73.860	-0.400	0.510	0.070
2020/01/31 19:00:22.9	73.850	-0.400	0.530	0.070
2020/01/31 19:00:23.0	73.840	-0.400	0.550	0.080
2020/01/31 19:00:23.1	73.830	-0.400	0.560	0.090
2020/01/31 19:00:23.2	73.820	-0.390	0.560	0.100
2020/01/31 19:00:23.3	73.810	-0.380	0.560	0.110
2020/01/31 19:00:23.4	73.800	-0.380	0.560	0.120
2020/01/31 19:00:23.5	73.780	-0.360	0.550	0.140
2020/01/31 19:00:23.6	73.770	-0.350	0.530	0.150
2020/01/31 19:00:23.7	73.750	-0.340	0.510	0.170
2020/01/31 19:00:23.8	73.730	-0.320	0.480	0.190
2020/01/31 19:00:23.9	73.720	-0.300	0.460	0.200
2020/01/31 19:00:24.0	73.700	-0.280	0.420	0.220
2020/01/31 19:00:24.1	73.690	-0.260	0.390	0.240
2020/01/31 19:00:24.2	73.670	-0.240	0.340	0.260
2020/01/31 19:00:24.3	73.650	-0.210	0.300	0.270
2020/01/31 19:00:24.4	73.640	-0.190	0.250	0.290
2020/01/31 19:00:24.5	73.620	-0.160	0.200	0.310
2020/01/31 19:00:24.6	73.610	-0.130	0.150	0.320
2020/01/31 19:00:24.7	73.590	-0.100	0.100	0.330
2020/01/31 19:00:24.8	73.570	-0.070	0.040	0.340
2020/01/31 19:00:24.9	73.560	-0.040	-0.020	0.350
2020/01/31 19:00:25.0	73.540	-0.010	-0.070	0.360
2020/01/31 19:00:25.1	73.530	0.020	-0.130	0.370
2020/01/31 19:00:25.2	73.510	0.050	-0.180	0.370
2020/01/31 19:00:25.3	73.500	0.080	-0.240	0.370
2020/01/31 19:00:25.4	73.490	0.100	-0.290	0.370
2020/01/31 19:00:25.5	73.470	0.130	-0.340	0.370
2020/01/31 19:00:25.6	73.460	0.160	-0.390	0.360
2020/01/31 19:00:25.7	73.440	0.180	-0.440	0.350
2020/01/31 19:00:25.8	73.430	0.210	-0.480	0.340
2020/01/31 19:00:25.9	73.420	0.230	-0.520	0.330
2020/01/31 19:00:26.0	73.410	0.250	-0.560	0.320
2020/01/31 19:00:26.1	73.390	0.270	-0.590	0.300
2020/01/31 19:00:26.2	73.380	0.280	-0.620	0.280
2020/01/31 19:00:26.3	73.370	0.300	-0.640	0.260
2020/01/31 19:00:26.4	73.360	0.310	-0.660	0.240
2020/01/31 19:00:26.5	73.350	0.320	-0.680	0.220
2020/01/31 19:00:26.6	73.340	0.330	-0.690	0.190
2020/01/31 19:00:26.7	73.330	0.330	-0.700	0.170
2020/01/31 19:00:26.8	73.330	0.340	-0.710	0.140
2020/01/31 19:00:26.9	73.320	0.340	-0.710	0.110
2020/01/31 19:00:27.0	73.320	0.340	-0.710	0.080
2020/01/31 19:00:27.1	73.310	0.340	-0.710	0.050
2020/01/31 19:00:27.2	73.310	0.330	-0.710	0.020
2020/01/31 19:00:27.3	73.310	0.330	-0.700	-0.010
2020/01/31 19:00:27.4	73.310	0.320	-0.690	-0.050
2020/01/31 19:00:27.5	73.320	0.310	-0.680	-0.080
2020/01/31 19:00:27.6	73.320	0.300	-0.660	-0.110
2020/01/31 19:00:27.7	73.330	0.290	-0.650	-0.140
2020/01/31 19:00:27.8	73.340	0.280	-0.630	-0.180
2020/01/31 19:00:27.9	73.350	0.270	-0.610	-0.210
2020/01/31 19:00:28.0	73.360	0.250	-0.590	-0.230
2020/01/31 19:00:28.1	73.370	0.240	-0.570	-0.260
2020/01/31 19:00:28.2	73.380	0.230	-0.550	-0.290
2020/01/31 19:00:28.3	73.400	0.210	-0.530	-0.310
2020/01/31 19:00:28.4	73.420	0.200	-0.510	-0.330
2020/01/31 19:00:28.5	73.430	0.190	-0.490	-0.350
2020/01/31 19:00:28.6	73.450	0.170	-0.460	-0.360
2020/01/31 19:00:28.7	73.470	0.160	-0.440	-0.370
2020/01/31 19:00:28.8	73.480	0.150	-0.420	-0.380
2020/01/31 19:00:28.9	73.500	0.140	-0.400	-0.390
2020/01/31 19:00:29.0	73.520	0.130	-0.370	-0.390
2020/01/31 19:00:29.1	73.540	0.120	-0.350	-0.390
2020/01/31 19:00:29.2	73.560	0.110	-0.320	-0.380
2020/01/31 19:00:29.3	73.580	0.100	-0.300	-0.370
2020/01/31 19:00:29.4	73.590	0.100	-0.270	-0.360
2020/01/31 19:00:29.5	73.610	0.090	-0.250	-0.340
2020/01/31 19:00:29.6	73.630	0.090	-0.230	-0.320
2020/01/31 19:00:29.7	73.650	0.080	-0.200	-0.300
2020/01/31 19:00:29.8	73.670	0.080	-0.180	-0.270
2020/01/31 19:00:29.9	73.690	0.080	-0.160	-0.240
2020/01/31 19:00:30.0	73.700	0.080	-0.140	-0.210
2020/01/31 19:00:30.1	73.720	0.080	-0.130	-0.180
2020/01/31 19:00:30.2	73.740	0.080	-0.110	-0.140
2020/01/31 19:00:30.3	73.760	0.080	-0.100	-0.100
2020/01/31 19:00:30.4	73.770	0.080	-0.090	-0.060
2020/01/31 19:00:30.5	73.790	0.080	-0.080	-0.020
2020/01/31 19:00:30.6	73.810	0.080	-0.070	0.030
2020/01/31 19:00:30.7	73.820	0.080	-0.060	0.080
2020/01/31 19:00:30.8	73.840	0.090	-0.060	0.120
2020/01/31 19:00:30.9	73.850	0.090	-0.060	0.170
2020/01/31 19:00:31.0	73.870	0.090	-0.050	0.220
2020/01/31 19:00:31.1	73.880	0.100	-0.050	0.270
2020/01/31 19:00:31.2	73.890	0.100	-0.060	0.330
2020/01/31 19:00:31.3	73.900	0.100	-0.060	0.380
2020/01/31 19:00:31.4	73.910	0.100	-0.060	0.430
2020/01/31 19:00:31.5	73.920	0.100	-0.060	0.490
2020/01/31 19:00:31.6	73.920	0.100	-0.070	0.540
2020/01/31 19:00:31.7	73.930	0.100	-0.070	0.600
2020/01/31 19:00:31.8	73.930	0.100	-0.080	0.650
2020/01/31 19:00:31.9	73.930	0.100	-0.080	0.700
2020/01/31 19:00:32.0	73.930	0.090	-0.080	0.750
2020/01/31 19:00:32.1	73.930	0.090	-0.080	0.800
2020/01/31 19:00:32.2	73.930	0.080	-0.080	0.850
2020/01/31 19:00:32.3	73.920	0.080	-0.070	0.900
2020/01/31 19:00:32.4	73.910	0.070	-0.070	0.940
2020/01/31 19:00:32.5	73.910	0.060	-0.060	0.990
2020/01/31 19:00:32.6	73.900	0.050	-0.050	1.030
2020/01/31 19:00:32.7	73.890	0.040	-0.040	1.070
2020/01/31 19:00:32.8	73.880	0.030	-0.030	1.110
2020/01/31 19:00:32.9	73.870	0.020	-0.020	1.140
2020/01/31 19:00:33.0	73.860	0.000	-0.000	1.170
2020/01/31 19:00:33.1	73.850	-0.010	0.020	1.200
2020/01/31 19:00:33.2	73.830	-0.020	0.040	1.230
2020/01/31 19:00:33.3	73.820	-0.040	0.060	1.260
2020/01/31 19:00:33.4	73.810	-0.050	0.080	1.280
2020/01/31 19:00:33.5	73.790	-0.060	0.100	1.310
2020/01/31 19:00:33.6	73.780	-0.080	0.130	1.330
2020/01/31 19:00:33.7	73.760	-0.090	0.150	1.340
2020/01/31 19:00:33.8	73.740	-0.100	0.180	1.360
2020/01/31 19:00:33.9	73.730	-0.120	0.200	1.370
2020/01/31 19:00:34.0	73.710	-0.130	0.230	1.380
2020/01/31 19:00:34.1	73.700	-0.140	0.250	1.390
2020/01/31 19:00:34.2	73.680	-0.150	0.280	1.400
2020/01/31 19:00:34.3	73.670	-0.160	0.300	1.410
2020/01/31 19:00:34.4	73.650	-0.170	0.320	1.410
2020/01/31 19:00:34.5	73.640	-0.180	0.350	1.410
2020/01/31 19:00:34.6	73.620	-0.190	0.360	1.410
2020/01/31 19:00:34.7	73.610	-0.200	0.380	1.410
2020/01/31 19:00:34.8	73.590	-0.210	0.400	1.410
2020/01/31 19:00:34.9	73.580	-0.220	0.410	1.400
2020/01/31 19:00:35.0	73.570	-0.220	0.420	1.390
2020/01/31 19:00:35.1	73.560	-0.230	0.430	1.380
2020/01/31 19:00:35.2	73.550	-0.240	0.430	1.370
2020/01/31 19:00:35.3	73.540	-0.240	0.430	1.350
2020/01/31 19:00:35.4	73.540	-0.250	0.420	1.330
2020/01/31 19:00:35.5	73.530	-0.250	0.410	1.310
2020/01/31 19:00:35.6	73.530	-0.250	0.400	1.280
2020/01/31 19:00:35.7	73.530	-0.250	0.380	1.250
2020/01/31 19:00:35.8	73.530	-0.260	0.350	1.210
2020/01/31 19:00:35.9	73.530	-0.260	0.320	1.180
2020/01/31 19:00:36.0	73.540	-0.260	0.290	1.140
2020/01/31 19:00:36.1	73.540	-0.260	0.250	1.090
2020/01/31 19:00:36.2	73.550	-0.260	0.210	1.050
2020/01/31 19:00:36.3	73.560	-0.260	0.160	1.000
2020/01/31 19:00:36.4	73.570	-0.250	0.110	0.940
2020/01/31 19:00:36.5	73.580	-0.250	0.050	0.880
2020/01/31 19:00:36.6	73.590	-0.250	-0.010	0.820
2020/01/31 19:00:36.7	73.600	-0.240	-0.070	0.760
2020/01/31 19:00:36.8	73.610	-0.240	-0.140	0.690
2020/01/31 19:00:36.9	73.630	-0.230	-0.210	0.630
2020/01/31 19:00:37.0	73.640	-0.230	-0.280	0.560
2020/01/31 19:00:37.1	73.660	-0.220	-0.350	0.480
2020/01/31 19:00:37.2	73.680	-0.210	-0.430	0.410
2020/01/31 19:00:37.3	73.700	-0.200	-0.500	0.340
2020/01/31 19:00:37.4	73.720	-0.190	-0.580	0.260
2020/01/31 19:00:37.5	73.740	-0.180	-0.650	0.190
2020/01/31 19:00:37.6	73.760	-0.170	-0.720	0.110
2020/01/31 19:00:37.7	73.790	-0.150	-0.790	0.030
2020/01/31 19:00:37.8	73.800	-0.140	-0.850	-0.040
2020/01/31 19:00:37.9	73.830	-0.130	-0.920	-0.120
2020/01/31 19:00:38.0	73.850	-0.110	-0.980	-0.190
2020/01/31 19:00:38.1	73.880	-0.100	-1.030	-0.260
2020/01/31 19:00:38.2	73.910	-0.080	-1.080	-0.330
2020/01/31 19:00:38.3	73.930	-0.070	-1.120	-0.390
2020/01/31 19:00:38.4	73.960	-0.050	-1.160	-0.460
2020/01/31 19:00:38.5	73.990	-0.040	-1.190	-0.520
2020/01/31 19:00:38.6	74.020	-0.020	-1.220	-0.570
2020/01/31 19:00:38.7	74.040	-0.010	-1.230	-0.620
2020/01/31 19:00:38.8	74.070	0.010	-1.240	-0.670
2020/01/31 19:00:38.9	74.100	0.020	-1.250	-0.720
2020/01/31 19:00:39.0	74.120	0.040	-1.240	-0.760
2020/01/31 19:00:39.1	74.150	0.050	-1.230	-0.790
2020/01/31 19:00:39.2	74.170	0.070	-1.220	-0.810
2020/01/31 19:00:39.3	74.190	0.080	-1.190	-0.840
2020/01/31 19:00:39.4	74.210	0.090	-1.160	-0.850
2020/01/31 19:00:39.5	74.230	0.100	-1.130	-0.860
2020/01/31 19:00:39.6	74.250	0.120	-1.090	-0.860
2020/01/31 19:00:39.7	74.260	0.130	-1.040	-0.860
2020/01/31 19:00:39.8	74.280	0.140	-0.990	-0.850
2020/01/31 19:00:39.9	74.290	0.140	-0.930	-0.830
2020/01/31 19:00:40.0	74.300	0.150	-0.870	-0.810
2020/01/31 19:00:40.1	74.310	0.160	-0.810	-0.780
2020/01/31 19:00:40.2	74.320	0.160	-0.740	-0.750
2020/01/31 19:00:40.3	74.320	0.170	-0.680	-0.710
2020/01/31 19:00:40.4	74.330	0.170	-0.610	-0.670
2020/01/31 19:00:40.5	74.330	0.180	-0.540	-0.620
2020/01/31 19:00:40.6	74.340	0.180	-0.470	-0.570
2020/01/31 19:00:40.7	74.340	0.180	-0.400	-0.510
2020/01/31 19:00:40.8	74.340	0.180	-0.330	-0.450
2020/01/31 19:00:40.9	74.340	0.170	-0.260	-0.390
2020/01/31 19:00:41.0	74.340	0.170	-0.190	-0.330
2020/01/31 19:00:41.1	74.340	0.160	-0.120	-0.260
2020/01/31 19:00:41.2	74.340	0.160	-0.050	-0.200
2020/01/31 19:00:41.3	74.330	0.150	0.020	-0.130
2020/01/31 19:00:41.4	74.320	0.140	0.090	-0.060
2020/01/31 19:00:41.5	74.320	0.130	0.150	0.010
2020/01/31 19:00:41.6	74.310	0.120	0.220	0.080
2020/01/31 19:00:41.7	74.300	0.110	0.280	0.150
2020/01/31 19:00:41.8	74.280	0.090	0.340	0.220
2020/01/31 19:00:41.9	74.270	0.080	0.400	0.290
2020/01/31 19:00:42.0	74.260	0.070	0.460	0.350
2020/01/31 19:00:42.1	74.240	0.050	0.510	0.410
2020/01/31 19:00:42.2	74.230	0.030	0.560	0.470
2020/01/31 19:00:42.3	74.210	0.020	0.600	0.530
2020/01/31 19:00:42.4	74.190	0.000	0.640	0.590
2020/01/31 19:00:42.5	74.180	-0.020	0.680	0.640
2020/01/31 19:00:42.6	74.160	-0.030	0.710	0.680
2020/01/31 19:00:42.7	74.140	-0.050	0.740	0.720
2020/01/31 19:00:42.8	74.130	-0.060	0.760	0.760
2020/01/31 19:00:42.9	74.110	-0.080	0.780	0.790
2020/01/31 19:00:43.0	74.100	-0.090	0.790	0.820
2020/01/31 19:00:43.1	74.080	-0.110	0.800	0.840
2020/01/31 19:00:43.2	74.070	-0.120	0.800	0.860
2020/01/31 19:00:43.3	74.050	-0.130	0.800	0.870
2020/01/31 19:00:43.4	74.040	-0.140	0.790	0.880
2020/01/31 19:00:43.5	74.030	-0.150	0.780	0.880
2020/01/31 19:00:43.6	74.020	-0.150	0.760	0.880
2020/01/31 19:00:43.7	74.010	-0.160	0.740	0.880
2020/01/31 19:00:43.8	74.000	-0.160	0.710	0.870
2020/01/31 19:00:43.9	73.990	-0.160	0.680	0.860
2020/01/31 19:00:44.0	73.990	-0.160	0.650	0.840
2020/01/31 19:00:44.1	73.980	-0.150	0.600	0.830
2020/01/31 19:00:44.2	73.970	-0.140	0.560	0.810
2020/01/31 19:00:44.3	73.970	-0.140	0.510	0.780
2020/01/31 19:00:44.4	73.960	-0.120	0.460	0.760
2020/01/31 19:00:44.5	73.960	-0.110	0.400	0.730
2020/01/31 19:00:44.6	73.950	-0.090	0.340	0.700
2020/01/31 19:00:44.7	73.950	-0.070	0.280	0.680
2020/01/31 19:00:44.8	73.940	-0.050	0.210	0.650
2020/01/31 19:00:44.9	73.940	-0.030	0.140	0.620
2020/01/31 19:00:45.0	73.940	-0.010	0.060	0.590
2020/01/31 19:00:45.1	73.940	0.020	-0.010	0.550
2020/01/31 19:00:45.2	73.930	0.050	-0.090	0.520
2020/01/31 19:00:45.3	73.930	0.080	-0.170	0.490
2020/01/31 19:00:45.4	73.940	0.110	-0.250	0.450
2020/01/31 19:00:45.5	73.940	0.140	-0.330	0.420
2020/01/31 19:00:45.6	73.940	0.170	-0.420	0.390
2020/01/31 19:00:45.7	73.950	0.200	-0.500	0.350
2020/01/31 19:00:45.8	73.970	0.230	-0.580	0.320
2020/01/31 19:00:45.9	73.980	0.270	-0.670	0.280
2020/01/31 19:00:46.0	73.990	0.300	-0.750	0.250
2020/01/31 19:00:46.1	74.010	0.330	-0.830	0.210
2020/01/31 19:00:46.2	74.030	0.360	-0.910	0.180
2020/01/31 19:00:46.3	74.050	0.400	-0.980	0.150
2020/01/31 19:00:46.4	74.070	0.430	-1.050	0.110
2020/01/31 19:00:46.5	74.090	0.450	-1.120	0.080
2020/01/31 19:00:46.6	74.120	0.480	-1.180	0.050
2020/01/31 19:00:46.7	74.140	0.500	-1.240	0.030
2020/01/31 19:00:46.8	74.170	0.530	-1.290	0.000
2020/01/31 19:00:46.9	74.190	0.550	-1.330	-0.020
2020/01/31 19:00:47.0	74.220	0.560	-1.360	-0.040
2020/01/31 19:00:47.1	74.260	0.580	-1.390	-0.060
2020/01/31 19:00:47.2	74.290	0.590	-1.410	-0.070
2020/01/31 19:00:47.3	74.320	0.590	-1.420	-0.080
2020/01/31 19:00:47.4	74.350	0.600	-1.420	-0.090
2020/01/31 19:00:47.5	74.380	0.600	-1.410	-0.100
2020/01/31 19:00:47.6	74.420	0.590	-1.390	-0.100
2020/01/31 19:00:47.7	74.450	0.580	-1.360	-0.100
2020/01/31 19:00:47.8	74.470	0.570	-1.320	-0.090
2020/01/31 19:00:47.9	74.510	0.550	-1.280	-0.090
2020/01/31 19:00:48.0	74.540	0.530	-1.220	-0.080
2020/01/31 19:00:48.1	74.570	0.500	-1.150	-0.060
2020/01/31 19:00:48.2	74.600	0.470	-1.080	-0.050
2020/01/31 19:00:48.3	74.630	0.430	-0.990	-0.030
2020/01/31 19:00:48.4	74.660	0.390	-0.900	-0.010
2020/01/31 19:00:48.5	74.680	0.350	-0.810	0.010
2020/01/31 19:00:48.6	74.710	0.300	-0.700	0.030
2020/01/31 19:00:48.7	74.730	0.250	-0.600	0.050
2020/01/31 19:00:48.8	74.760	0.190	-0.480	0.080
2020/01/31 19:00:48.9	74.780	0.140	-0.360	0.110
2020/01/31 19:00:49.0	74.800	0.080	-0.240	0.140
2020/01/31 19:00:49.1	74.820	0.020	-0.130	0.170
2020/01/31 19:00:49.2	74.830	-0.050	-0.000	0.200
2020/01/31 19:00:49.3	74.850	-0.110	0.120	0.230
2020/01/31 19:00:49.4	74.860	-0.180	0.230	0.260
2020/01/31 19:00:49.5	74.880	-0.240	0.350	0.300
2020/01/31 19:00:49.6	74.880	-0.310	0.460	0.330
2020/01/31 19:00:49.7	74.890	-0.370	0.570	0.370
2020/01/31 19:00:49.8	74.890	-0.430	0.680	0.410
2020/01/31 19:00:49.9	74.900	-0.490	0.770	0.440
2020/01/31 19:00:50.0	74.910	-0.550	0.870	0.480
2020/01/31 19:00:50.1	74.910	-0.610	0.950	0.520
2020/01/31 19:00:50.2	74.910	-0.660	1.030	0.570
2020/01/31 19:00:50.3	74.910	-0.710	1.090	0.610
2020/01/31 19:00:50.4	74.910	-0.760	1.150	0.650
2020/01/31 19:00:50.5	74.910	-0.800	1.200	0.690
2020/01/31 19:00:50.6	74.910	-0.830	1.240	0.740
2020/01/31 19:00:50.7	74.910	-0.870	1.260	0.780
2020/01/31 19:00:50.8	74.900	-0.890	1.280	0.820
2020/01/31 19:00:50.9	74.890	-0.910	1.290	0.870
2020/01/31 19:00:51.0	74.890	-0.930	1.280	0.910
2020/01/31 19:00:51.1	74.880	-0.940	1.270	0.950
2020/01/31 19:00:51.2	74.870	-0.950	1.240	1.000
2020/01/31 19:00:51.3	74.860	-0.950	1.210	1.040
2020/01/31 19:00:51.4	74.850	-0.940	1.170	1.090
2020/01/31 19:00:51.5	74.840	-0.930	1.110	1.130
2020/01/31 19:00:51.6	74.830	-0.920	1.050	1.180
2020/01/31 19:00:51.7	74.810	-0.900	0.990	1.220
2020/01/31 19:00:51.8	74.790	-0.880	0.910	1.270
2020/01/31 19:00:51.9	74.770	-0.860	0.830	1.310
2020/01/31 19:00:52.0	74.750	-0.830	0.750	1.360
2020/01/31 19:00:52.1	74.730	-0.800	0.660	1.400
2020/01/31 19:00:52.2	74.700	-0.760	0.570	1.440
2020/01/31 19:00:52.3	74.680	-0.720	0.470	1.480
2020/01/31 19:00:52.4	74.650	-0.690	0.380	1.510
2020/01/31 19:00:52.5	74.620	-0.640	0.280	1.550
2020/01/31 19:00:52.6	74.590	-0.600	0.180	1.580
2020/01/31 19:00:52.7	74.560	-0.560	0.080	1.610
2020/01/31 19:00:52.8	74.530	-0.510	-0.020	1.630
2020/01/31 19:00:52.9	74.510	-0.470	-0.110	1.650
2020/01/31 19:00:53.0	74.480	-0.420	-0.210	1.660
2020/01/31 19:00:53.1	74.450	-0.370	-0.300	1.670
2020/01/31 19:00:53.2	74.420	-0.330	-0.390	1.680
2020/01/31 19:00:53.3	74.390	-0.280	-0.480	1.680
2020/01/31 19:00:53.4	74.370	-0.230	-0.570	1.670
2020/01/31 19:00:53.5	74.350	-0.190	-0.650	1.660
2020/01/31 19:00:53.6	74.330	-0.140	-0.720	1.640
2020/01/31 19:00:53.7	74.320	-0.100	-0.800	1.620
2020/01/31 19:00:53.8	74.300	-0.050	-0.870	1.580
2020/01/31 19:00:53.9	74.300	-0.010	-0.930	1.550
2020/01/31 19:00:54.0	74.290	0.040	-0.990	1.500
2020/01/31 19:00:54.1	74.290	0.080	-1.050	1.450
2020/01/31 19:00:54.2	74.290	0.120	-1.100	1.400
2020/01/31 19:00:54.3	74.290	0.170	-1.150	1.340
2020/01/31 19:00:54.4	74.300	0.210	-1.190	1.270
2020/01/31 19:00:54.5	74.310	0.250	-1.230	1.200
2020/01/31 19:00:54.6	74.330	0.290	-1.270	1.120
2020/01/31 19:00:54.7	74.350	0.330	-1.300	1.050
2020/01/31 19:00:54.8	74.370	0.370	-1.320	0.960
2020/01/31 19:00:54.9	74.390	0.410	-1.340	0.870
2020/01/31 19:00:55.0	74.420	0.450	-1.360	0.790
2020/01/31 19:00:55.1	74.440	0.480	-1.370	0.700
2020/01/31 19:00:55.2	74.470	0.520	-1.380	0.610
2020/01/31 19:00:55.3	74.500	0.550	-1.390	0.520
2020/01/31 19:00:55.4	74.530	0.590	-1.390	0.430
2020/01/31 19:00:55.5	74.570	0.620	-1.380	0.340
2020/01/31 19:00:55.6	74.600	0.650	-1.370	0.260
2020/01/31 19:00:55.7	74.630	0.680	-1.360	0.170
2020/01/31 19:00:55.8	74.660	0.700	-1.340	0.090
2020/01/31 19:00:55.9	74.690	0.730	-1.320	0.010
2020/01/31 19:00:56.0	74.720	0.750	-1.290	-0.070
2020/01/31 19:00:56.1	74.750	0.770	-1.260	-0.140
2020/01/31 19:00:56.2	74.780	0.790	-1.230	-0.210
2020/01/31 19:00:56.3	74.810	0.800	-1.190	-0.280
2020/01/31 19:00:56.4	74.840	0.810	-1.150	-0.340
2020/01/31 19:00:56.5	74.860	0.820	-1.100	-0.400
2020/01/31 19:00:56.6	74.890	0.820	-1.050	-0.450
2020/01/31 19:00:56.7	74.910	0.830	-1.000	-0.500
2020/01/31 19:00:56.8	74.930	0.820	-0.940	-0.550
2020/01/31 19:00:56.9	74.950	0.820	-0.880	-0.590
2020/01/31 19:00:57.0	74.980	0.810	-0.810	-0.620
2020/01/31 19:00:57.1	75.000	0.800	-0.750	-0.650
2020/01/31 19:00:57.2	75.020	0.780	-0.670	-0.670
2020/01/31 19:00:57.3	75.040	0.760	-0.600	-0.690
2020/01/31 19:00:57.4	75.060	0.730	-0.520	-0.710
2020/01/31 19:00:57.5	75.080	0.710	-0.440	-0.720
2020/01/31 19:00:57.6	75.090	0.680	-0.360	-0.720
2020/01/31 19:00:57.7	75.110	0.640	-0.280	-0.720
2020/01/31 19:00:57.8	75.120	0.600	-0.180	-0.720
2020/01/31 19:00:57.9	75.130	0.560	-0.100	-0.700
2020/01/31 19:00:58.0	75.140	0.520	-0.010	-0.690
2020/01/31 19:00:58.1	75.150	0.470	0.090	-0.670
2020/01/31 19:00:58.2	75.150	0.430	0.180	-0.640
2020/01/31 19:00:58.3	75.150	0.380	0.270	-0.610
2020/01/31 19:00:58.4	75.150	0.320	0.360	-0.570
2020/01/31 19:00:58.5	75.140	0.270	0.460	-0.530
2020/01/31 19:00:58.6	75.130	0.210	0.550	-0.490
2020/01/31 19:00:58.7	75.120	0.160	0.640	-0.430
2020/01/31 19:00:58.8	75.100	0.100	0.730	-0.380
2020/01/31 19:00:58.9	75.090	0.040	0.810	-0.320
2020/01/31 19:00:59.0	75.060	-0.020	0.890	-0.250
2020/01/31 19:00:59.1	75.040	-0.070	0.970	-0.180
2020/01/31 19:00:59.2	75.010	-0.130	1.050	-0.110
2020/01/31 19:00:59.3	74.980	-0.180	1.120	-0.030
2020/01/31 19:00:59.4	74.940	-0.230	1.180	0.050
2020/01/31 19:00:59.5	74.900	-0.290	1.240	0.130
2020/01/31 19:00:59.6	74.870	-0.330	1.290	0.220
2020/01/31 19:00:59.7	74.820	-0.380	1.340	0.300
2020/01/31 19:00:59.8	74.790	-0.420	1.380	0.390
2020/01/31 19:00:59.9	74.740	-0.460	1.410	0.480
2020/01/31 19:01:00.0	74.700	-0.500	1.430	0.570
2020/01/31 19:01:00.1	74.650	-0.530	1.450	0.650
2020/01/31 19:01:00.2	74.610	-0.560	1.450	0.740
2020/01/31 19:01:00.3	74.560	-0.580	1.440	0.820
2020/01/31 19:01:00.4	74.510	-0.610	1.430	0.910
2020/01/31 19:01:00.5	74.470	-0.620	1.400	0.980
2020/01/31 19:01:00.6	74.420	-0.630	1.360	1.060
2020/01/31 19:01:00.7	74.380	-0.640	1.320	1.130
2020/01/31 19:01:00.8	74.350	-0.640	1.260	1.200
2020/01/31 19:01:00.9	74.310	-0.640	1.190	1.260
2020/01/31 19:01:01.0	74.270	-0.630	1.110	1.320
2020/01/31 19:01:01.1	74.230	-0.620	1.030	1.370
2020/01/31 19:01:01.2	74.200	-0.610	0.930	1.410
2020/01/31 19:01:01.3	74.170	-0.590	0.830	1.450
2020/01/31 19:01:01.4	74.140	-0.570	0.720	1.490
2020/01/31 19:01:01.5	74.110	-0.540	0.600	1.520
2020/01/31 19:01:01.6	74.090	-0.520	0.470	1.540
2020/01/31 19:01:01.7	74.060	-0.490	0.340	1.560
2020/01/31 19:01:01.8	74.060	-0.450	0.200	1.570
2020/01/31 19:01:01.9	74.040	-0.420	0.050	1.580
2020/01/31 19:01:02.0	74.020	-0.380	-0.090	1.580
2020/01/31 19:01:02.1	74.010	-0.340	-0.240	1.580
2020/01/31 19:01:02.2	74.000	-0.300	-0.390	1.570
2020/01/31 19:01:02.3	74.000	-0.250	-0.540	1.560
2020/01/31 19:01:02.4	74.000	-0.210	-0.690	1.540
2020/01/31 19:01:02.5	74.000	-0.170	-0.840	1.520
2020/01/31 19:01:02.6	74.000	-0.120	-0.990	1.500
2020/01/31 19:01:02.7	74.010	-0.080	-1.130	1.470
2020/01/31 19:01:02.8	74.030	-0.030	-1.270	1.440
2020/01/31 19:01:02.9	74.040	0.010	-1.400	1.400
2020/01/31 19:01:03.0	74.060	0.050	-1.530	1.360
2020/01/31 19:01:03.1	74.090	0.100	-1.650	1.320
2020/01/31 19:01:03.2	74.120	0.140	-1.760	1.270
2020/01/31 19:01:03.3	74.150	0.180	-1.860	1.230
2020/01/31 19:01:03.4	74.180	0.220	-1.950	1.180
2020/01/31 19:01:03.5	74.220	0.260	-2.030	1.120
2020/01/31 19:01:03.6	74.260	0.290	-2.100	1.070
2020/01/31 19:01:03.7	74.310	0.330	-2.150	1.010
2020/01/31 19:01:03.8	74.340	0.360	-2.190	0.950
2020/01/31 19:01:03.9	74.390	0.390	-2.230	0.890
2020/01/31 19:01:04.0	74.440	0.420	-2.240	0.840
2020/01/31 19:01:04.1	74.490	0.450	-2.250	0.780
2020/01/31 19:01:04.2	74.540	0.470	-2.240	0.730
2020/01/31 19:01:04.3	74.600	0.500	-2.220	0.680
2020/01/31 19:01:04.4	74.650	0.520	-2.180	0.630
2020/01/31 19:01:04.5	74.700	0.540	-2.130	0.580
2020/01/31 19:01:04.6	74.750	0.550	-2.070	0.540
2020/01/31 19:01:04.7	74.800	0.570	-1.990	0.510
2020/01/31 19:01:04.8	74.840	0.580	-1.900	0.480
2020/01/31 19:01:04.9	74.880	0.590	-1.800	0.450
2020/01/31 19:01:05.0	74.920	0.590	-1.690	0.440
2020/01/31 19:01:05.1	74.960	0.590	-1.570	0.420
2020/01/31 19:01:05.2	74.990	0.590	-1.430	0.420
2020/01/31 19:01:05.3	75.020	0.590	-1.290	0.420
2020/01/31 19:01:05.4	75.040	0.580	-1.140	0.430
2020/01/31 19:01:05.5	75.070	0.570	-0.990	0.440
2020/01/31 19:01:05.6	75.080	0.550	-0.820	0.460
2020/01/31 19:01:05.7	75.090	0.530	-0.660	0.480
2020/01/31 19:01:05.8	75.090	0.510	-0.480	0.510
2020/01/31 19:01:05.9	75.090	0.480	-0.310	0.550
2020/01/31 19:01:06.0	75.090	0.450	-0.130	0.590
2020/01/31 19:01:06.1	75.080	0.410	0.050	0.630
2020/01/31 19:01:06.2	75.070	0.370	0.230	0.680
2020/01/31 19:01:06.3	75.050	0.320	0.400	0.740
2020/01/31 19:01:06.4	75.020	0.270	0.570	0.790
2020/01/31 19:01:06.5	75.000	0.220	0.740	0.850
2020/01/31 19:01:06.6	74.960	0.170	0.900	0.900
2020/01/31 19:01:06.7	74.930	0.110	1.060	0.960
2020/01/31 19:01:06.8	74.890	0.040	1.210	1.020
2020/01/31 19:01:06.9	74.840	-0.020	1.350	1.080
2020/01/31 19:01:07.0	74.790	-0.090	1.480	1.140
2020/01/31 19:01:07.1	74.740	-0.150	1.600	1.200
2020/01/31 19:01:07.2	74.680	-0.220	1.710	1.260
2020/01/31 19:01:07.3	74.620	-0.290	1.810	1.320
2020/01/31 19:01:07.4	74.560	-0.360	1.900	1.370
2020/01/31 19:01:07.5	74.500	-0.430	1.980	1.420
2020/01/31 19:01:07.6	74.430	-0.500	2.040	1.470
2020/01/31 19:01:07.7	74.370	-0.570	2.090	1.510
2020/01/31 19:01:07.8	74.310	-0.640	2.130	1.550
2020/01/31 19:01:07.9	74.250	-0.700	2.150	1.590
2020/01/31 19:01:08.0	74.190	-0.760	2.160	1.620
2020/01/31 19:01:08.1	74.120	-0.820	2.150	1.650
2020/01/31 19:01:08.2	74.060	-0.870	2.130	1.670
2020/01/31 19:01:08.3	74.010	-0.910	2.100	1.680
2020/01/31 19:01:08.4	73.950	-0.960	2.050	1.690
2020/01/31 19:01:08.5	73.900	-0.990	1.980	1.690
2020/01/31 19:01:08.6	73.860	-1.020	1.900	1.690
2020/01/31 19:01:08.7	73.820	-1.040	1.810	1.670
2020/01/31 19:01:08.8	73.780	-1.060	1.710	1.650
2020/01/31 19:01:08.9	73.750	-1.070	1.590	1.620
2020/01/31 19:01:09.0	73.720	-1.070	1.450	1.590
2020/01/31 19:01:09.1	73.700	-1.060	1.310	1.550
2020/01/31 19:01:09.2	73.680	-1.040	1.150	1.500
2020/01/31 19:01:09.3	73.670	-1.020	0.980	1.440
2020/01/31 19:01:09.4	73.660	-0.990	0.810	1.380
2020/01/31 19:01:09.5	73.650	-0.950	0.630	1.310
2020/01/31 19:01:09.6	73.650	-0.910	0.440	1.240
2020/01/31 19:01:09.7	73.660	-0.860	0.240	1.160
2020/01/31 19:01:09.8	73.670	-0.800	0.040	1.080
2020/01/31 19:01:09.9	73.680	-0.740	-0.160	0.990
2020/01/31 19:01:10.0	73.690	-0.670	-0.370	0.910
2020/01/31 19:01:10.1	73.710	-0.590	-0.570	0.820
2020/01/31 19:01:10.2	73.730	-0.520	-0.760	0.720
2020/01/31 19:01:10.3	73.750	-0.430	-0.960	0.630
2020/01/31 19:01:10.4	73.780	-0.350	-1.150	0.540
2020/01/31 19:01:10.5	73.800	-0.260	-1.330	0.440
2020/01/31 19:01:10.6	73.830	-0.170	-1.510	0.350
2020/01/31 19:01:10.7	73.860	-0.080	-1.670	0.260
2020/01/31 19:01:10.8	73.890	0.010	-1.830	0.170
2020/01/31 19:01:10.9	73.920	0.100	-1.970	0.080
2020/01/31 19:01:11.0	73.940	0.190	-2.100	-0.000
2020/01/31 19:01:11.1	73.970	0.270	-2.210	-0.080
2020/01/31 19:01:11.2	74.000	0.360	-2.310	-0.160
2020/01/31 19:01:11.3	74.020	0.440	-2.400	-0.230
2020/01/31 19:01:11.4	74.040	0.520	-2.470	-0.300
2020/01/31 19:01:11.5	74.070	0.590	-2.520	-0.370
2020/01/31 19:01:11.6	74.080	0.650	-2.560	-0.420
2020/01/31 19:01:11.7	74.100	0.720	-2.580	-0.480
2020/01/31 19:01:11.8	74.110	0.770	-2.570	-0.520
2020/01/31 19:01:11.9	74.120	0.820	-2.560	-0.560
2020/01/31 19:01:12.0	74.130	0.860	-2.530	-0.600
2020/01/31 19:01:12.1	74.140	0.900	-2.480	-0.630
2020/01/31 19:01:12.2	74.140	0.920	-2.420	-0.660
2020/01/31 19:01:12.3	74.140	0.940	-2.350	-0.680
2020/01/31 19:01:12.4	74.130	0.950	-2.260	-0.690
2020/01/31 19:01:12.5	74.120	0.960	-2.160	-0.700
2020/01/31 19:01:12.6	74.110	0.960	-2.040	-0.700
2020/01/31 19:01:12.7	74.100	0.950	-1.920	-0.700
2020/01/31 19:01:12.8	74.080	0.930	-1.790	-0.690
2020/01/31 19:01:12.9	74.050	0.910	-1.650	-0.680
2020/01/31 19:01:13.0	74.030	0.870	-1.500	-0.660
2020/01/31 19:01:13.1	74.000	0.840	-1.340	-0.640
2020/01/31 19:01:13.2	73.970	0.800	-1.170	-0.610
2020/01/31 19:01:13.3	73.940	0.750	-1.010	-0.580
2020/01/31 19:01:13.4	73.900	0.700	-0.840	-0.550
2020/01/31 19:01:13.5	73.860	0.640	-0.670	-0.510
2020/01/31 19:01:13.6	73.820	0.580	-0.500	-0.470
2020/01/31 19:01:13.7	73.780	0.520	-0.320	-0.420
2020/01/31 19:01:13.8	73.730	0.450	-0.150	-0.370
2020/01/31 19:01:13.9	73.690	0.390	0.020	-0.320
2020/01/31 19:01:14.0	73.640	0.320	0.180	-0.270
2020/01/31 19:01:14.1	73.590	0.250	0.330	-0.220
2020/01/31 19:01:14.2	73.550	0.180	0.480	-0.160
2020/01/31 19:01:14.3	73.500	0.120	0.620	-0.110
2020/01/31 19:01:14.4	73.450	0.050	0.760	-0.060
2020/01/31 19:01:14.5	73.400	-0.010	0.880	-0.000
2020/01/31 19:01:14.6	73.360	-0.070	1.000	0.050
2020/01/31 19:01:14.7	73.310	-0.130	1.100	0.110
2020/01/31 19:01:14.8	73.280	-0.180	1.190	0.160
2020/01/31 19:01:14.9	73.230	-0.230	1.270	0.210
2020/01/31 19:01:15.0	73.190	-0.280	1.340	0.260
2020/01/31 19:01:15.1	73.150	-0.320	1.400	0.300
2020/01/31 19:01:15.2	73.110	-0.360	1.440	0.350
2020/01/31 19:01:15.3	73.070	-0.390	1.470	0.390
2020/01/31 19:01:15.4	73.040	-0.410	1.490	0.430
2020/01/31 19:01:15.5	73.010	-0.430	1.490	0.460
2020/01/31 19:01:15.6	72.980	-0.440	1.490	0.500
2020/01/31 19:01:15.7	72.950	-0.450	1.470	0.530
2020/01/31 19:01:15.8	72.920	-0.450	1.430	0.560
2020/01/31 19:01:15.9	72.900	-0.450	1.390	0.580
2020/01/31 19:01:16.0	72.890	-0.440	1.330	0.600
2020/01/31 19:01:16.1	72.870	-0.420	1.270	0.620
2020/01/31 19:01:16.2	72.860	-0.410	1.190	0.640
2020/01/31 19:01:16.3	72.850	-0.380	1.100	0.650
2020/01/31 19:01:16.4	72.850	-0.350	1.010	0.660
2020/01/31 19:01:16.5	72.850	-0.320	0.910	0.670
2020/01/31 19:01:16.6	72.850	-0.290	0.800	0.680
2020/01/31 19:01:16.7	72.850	-0.250	0.690	0.680
2020/01/31 19:01:16.8	72.860	-0.200	0.570	0.680
2020/01/31 19:01:16.9	72.870	-0.160	0.450	0.690
2020/01/31 19:01:17.0	72.880	-0.110	0.330	0.680
2020/01/31 19:01:17.1	72.890	-0.070	0.210	0.680
2020/01/31 19:01:17.2	72.900	-0.020	0.090	0.680
2020/01/31 19:01:17.3	72.920	0.030	-0.040	0.670
2020/01/31 19:01:17.4	72.940	0.080	-0.160	0.660
2020/01/31 19:01:17.5	72.960	0.120	-0.270	0.660
2020/01/31 19:01:17.6	72.970	0.170	-0.380	0.650
2020/01/31 19:01:17.7	72.990	0.220	-0.490	0.640
2020/01/31 19:01:17.8	73.010	0.260	-0.600	0.620
2020/01/31 19:01:17.9	73.030	0.300	-0.690	0.610
2020/01/31 19:01:18.0	73.050	0.340	-0.780	0.600
2020/01/31 19:01:18.1	73.070	0.370	-0.850	0.590
2020/01/31 19:01:18.2	73.080	0.410	-0.920	0.580
2020/01/31 19:01:18.3	73.100	0.440	-0.980	0.570
2020/01/31 19:01:18.4	73.110	0.460	-1.030	0.560
2020/01/31 19:01:18.5	73.120	0.480	-1.070	0.550
2020/01/31 19:01:18.6	73.130	0.500	-1.100	0.540
2020/01/31 19:01:18.7	73.140	0.510	-1.120	0.540
2020/01/31 19:01:18.8	73.140	0.520	-1.120	0.540
2020/01/31 19:01:18.9	73.140	0.520	-1.120	0.540
2020/01/31 19:01:19.0	73.140	0.520	-1.110	0.540
2020/01/31 19:01:19.1	73.140	0.520	-1.090	0.540
2020/01/31 19:01:19.2	73.130	0.510	-1.070	0.550
2020/01/31 19:01:19.3	73.120	0.490	-1.030	0.560
2020/01/31 19:01:19.4	73.110	0.480	-0.990	0.570
2020/01/31 19:01:19.5	73.100	0.450	-0.940	0.580
2020/01/31 19:01:19.6	73.080	0.430	-0.890	0.590
2020/01/31 19:01:19.7	73.060	0.400	-0.830	0.610
2020/01/31 19:01:19.8	73.040	0.360	-0.770	0.620
2020/01/31 19:01:19.9	73.010	0.330	-0.700	0.640
2020/01/31 19:01:20.0	72.990	0.290	-0.630	0.660
2020/01/31 19:01:20.1	72.960	0.240	-0.560	0.680
2020/01/31 19:01:20.2	72.930	0.200	-0.490	0.700
2020/01/31 19:01:20.3	72.900	0.150	-0.410	0.720
2020/01/31 19:01:20.4	72.870	0.100	-0.340	0.740
2020/01/31 19:01:20.5	72.840	0.050	-0.270	0.770
2020/01/31 19:01:20.6	72.810	0.000	-0.200	0.790
2020/01/31 19:01:20.7	72.780	-0.050	-0.130	0.810
2020/01/31 19:01:20.8	72.750	-0.100	-0.060	0.830
2020/01/31 19:01:20.9	72.720	-0.150	-0.000	0.860
2020/01/31 19:01:21.0	72.690	-0.200	0.050	0.880
2020/01/31 19:01:21.1	72.670	-0.250	0.110	0.910
2020/01/31 19:01:21.2	72.640	-0.300	0.160	0.930
2020/01/31 19:01:21.3	72.610	-0.350	0.200	0.950
2020/01/31 19:01:21.4	72.590	-0.400	0.240	0.970
2020/01/31 19:01:21.5	72.570	-0.440	0.280	0.990
2020/01/31 19:01:21.6	72.550	-0.480	0.310	1.010
2020/01/31 19:01:21.7	72.530	-0.520	0.330	1.020
2020/01/31 19:01:21.8	72.510	-0.560	0.350	1.040
2020/01/31 19:01:21.9	72.490	-0.590	0.370	1.050
2020/01/31 19:01:22.0	72.480	-0.620	0.380	1.060
2020/01/31 19:01:22.1	72.460	-0.640	0.390	1.070
2020/01/31 19:01:22.2	72.450	-0.670	0.400	1.070
2020/01/31 19:01:22.3	72.440	-0.690	0.400	1.070
2020/01/31 19:01:22.4	72.430	-0.700	0.400	1.070
2020/01/31 19:01:22.5	72.410	-0.710	0.400	1.070
2020/01/31 19:01:22.6	72.400	-0.720	0.390	1.070
2020/01/31 19:01:22.7	72.390	-0.720	0.390	1.060
2020/01/31 19:01:22.8	72.380	-0.720	0.380	1.040
2020/01/31 19:01:22.9	72.370	-0.720	0.370	1.030
2020/01/31 19:01:23.0	72.360	-0.710	0.360	1.020
2020/01/31 19:01:23.1	72.350	-0.700	0.340	1.000
2020/01/31 19:01:23.2	72.340	-0.680	0.330	0.980
2020/01/31 19:01:23.3	72.330	-0.660	0.320	0.960
2020/01/31 19:01:23.4	72.320	-0.640	0.300	0.940
2020/01/31 19:01:23.5	72.310	-0.610	0.280	0.920
2020/01/31 19:01:23.6	72.300	-0.580	0.260	0.890
2020/01/31 19:01:23.7	72.290	-0.550	0.240	0.860
2020/01/31 19:01:23.8	72.270	-0.510	0.220	0.830
2020/01/31 19:01:23.9	72.260	-0.470	0.190	0.800
2020/01/31 19:01:24.0	72.250	-0.430	0.170	0.760
2020/01/31 19:01:24.1	72.250	-0.390	0.130	0.730
2020/01/31 19:01:24.2	72.240	-0.350	0.100	0.690
2020/01/31 19:01:24.3	72.240	-0.300	0.060	0.650
2020/01/31 19:01:24.4	72.230	-0.250	0.020	0.600
2020/01/31 19:01:24.5	72.230	-0.200	-0.020	0.560
2020/01/31 19:01:24.6	72.230	-0.150	-0.070	0.510
2020/01/31 19:01:24.7	72.230	-0.100	-0.120	0.460
2020/01/31 19:01:24.8	72.230	-0.050	-0.170	0.410
2020/01/31 19:01:24.9	72.230	0.000	-0.220	0.350
2020/01/31 19:01:25.0	72.240	0.050	-0.280	0.300
2020/01/31 19:01:25.1	72.240	0.100	-0.330	0.240
2020/01/31 19:01:25.2	72.240	0.150	-0.390	0.190
2020/01/31 19:01:25.3	72.250	0.200	-0.450	0.130
2020/01/31 19:01:25.4	72.250	0.250	-0.500	0.080
2020/01/31 19:01:25.5	72.260	0.290	-0.560	0.030
2020/01/31 19:01:25.6	72.260	0.340	-0.610	-0.030
2020/01/31 19:01:25.7	72.270	0.380	-0.660	-0.080
2020/01/31 19:01:25.8	72.270	0.420	-0.710	-0.130
2020/01/31 19:01:25.9	72.270	0.450	-0.760	-0.180
2020/01/31 19:01:26.0	72.280	0.490	-0.800	-0.220
2020/01/31 19:01:26.1	72.280	0.520	-0.830	-0.270
2020/01/31 19:01:26.2	72.290	0.540	-0.860	-0.310
2020/01/31 19:01:26.3	72.290	0.570	-0.890	-0.350
2020/01/31 19:01:26.4	72.290	0.590	-0.910	-0.390
2020/01/31 19:01:26.5	72.300	0.610	-0.920	-0.420
2020/01/31 19:01:26.6	72.300	0.620	-0.930	-0.460
2020/01/31 19:01:26.7	72.300	0.630	-0.940	-0.490
2020/01/31 19:01:26.8	72.300	0.640	-0.930	-0.510
2020/01/31 19:01:26.9	72.310	0.650	-0.930	-0.540
2020/01/31 19:01:27.0	72.310	0.650	-0.920	-0.560
2020/01/31 19:01:27.1	72.310	0.650	-0.900	-0.590
2020/01/31 19:01:27.2	72.310	0.640	-0.890	-0.600
2020/01/31 19:01:27.3	72.320	0.640	-0.870	-0.620
2020/01/31 19:01:27.4	72.320	0.630	-0.840	-0.630
2020/01/31 19:01:27.5	72.320	0.610	-0.810	-0.640
2020/01/31 19:01:27.6	72.330	0.600	-0.780	-0.650
2020/01/31 19:01:27.7	72.330	0.580	-0.750	-0.660
2020/01/31 19:01:27.8	72.330	0.560	-0.720	-0.670
2020/01/31 19:01:27.9	72.330	0.540	-0.680	-0.670
2020/01/31 19:01:28.0	72.330	0.520	-0.640	-0.670
2020/01/31 19:01:28.1	72.340	0.500	-0.600	-0.660
2020/01/31 19:01:28.2	72.340	0.470	-0.560	-0.660
2020/01/31 19:01:28.3	72.340	0.440	-0.520	-0.650
2020/01/31 19:01:28.4	72.340	0.410	-0.480	-0.640
2020/01/31 19:01:28.5	72.340	0.380	-0.440	-0.620
2020/01/31 19:01:28.6	72.340	0.350	-0.390	-0.610
2020/01/31 19:01:28.7	72.340	0.310	-0.350	-0.590
2020/01/31 19:01:28.8	72.330	0.280	-0.300	-0.570
2020/01/31 19:01:28.9	72.330	0.240	-0.260	-0.550
2020/01/31 19:01:29.0	72.330	0.210	-0.210	-0.520
2020/01/31 19:01:29.1	72.320	0.170	-0.170	-0.500
2020/01/31 19:01:29.2	72.320	0.130	-0.120	-0.470
2020/01/31 19:01:29.3	72.310	0.100	-0.080	-0.440
2020/01/31 19:01:29.4	72.300	0.060	-0.030	-0.410
2020/01/31 19:01:29.5	72.300	0.020	0.010	-0.370
2020/01/31 19:01:29.6	72.290	-0.020	0.060	-0.340
2020/01/31 19:01:29.7	72.280	-0.050	0.110	-0.300
2020/01/31 19:01:29.8	72.270	-0.090	0.150	-0.260
2020/01/31 19:01:29.9	72.260	-0.120	0.190	-0.220
2020/01/31 19:01:30.0	72.250	-0.150	0.230	-0.180
2020/01/31 19:01:30.1	72.240	-0.190	0.270	-0.140
2020/01/31 19:01:30.2	72.230	-0.220	0.310	-0.100
2020/01/31 19:01:30.3	72.220	-0.250	0.350	-0.060
2020/01/31 19:01:30.4	72.210	-0.280	0.380	-0.020
2020/01/31 19:01:30.5	72.190	-0.300	0.420	0.020
2020/01/31 19:01:30.6	72.190	-0.330	0.440	0.060
2020/01/31 19:01:30.7	72.180	-0.350	0.470	0.090
2020/01/31 19:01:30.8	72.180	-0.370	0.490	0.130
2020/01/31 19:01:30.9	72.170	-0.380	0.510	0.170
2020/01/31 19:01:31.0	72.170	-0.400	0.520	0.200
2020/01/31 19:01:31.1	72.160	-0.410	0.530	0.230
2020/01/31 19:01:31.2	72.160	-0.420	0.540	0.270
2020/01/31 19:01:31.3	72.150	-0.430	0.540	0.300
2020/01/31 19:01:31.4	72.150	-0.440	0.540	0.330
2020/01/31 19:01:31.5	72.150	-0.440	0.530	0.360
2020/01/31 19:01:31.6	72.140	-0.440	0.520	0.390
2020/01/31 19:01:31.7	72.140	-0.440	0.500	0.420
2020/01/31 19:01:31.8	72.140	-0.440	0.480	0.440
2020/01/31 19:01:31.9	72.140	-0.430	0.460	0.470
2020/01/31 19:01:32.0	72.140	-0.420	0.430	0.500
2020/01/31 19:01:32.1	72.140	-0.410	0.400	0.520
2020/01/31 19:01:32.2	72.150	-0.400	0.360	0.550
2020/01/31 19:01:32.3	72.150	-0.390	0.330	0.580
2020/01/31 19:01:32.4	72.150	-0.370	0.280	0.600
2020/01/31 19:01:32.5	72.150	-0.350	0.240	0.630
2020/01/31 19:01:32.6	72.160	-0.330	0.190	0.650
2020/01/31 19:01:32.7	72.160	-0.310	0.140	0.680
2020/01/31 19:01:32.8	72.170	-0.290	0.090	0.700
2020/01/31 19:01:32.9	72.180	-0.270	0.040	0.720
2020/01/31 19:01:33.0	72.180	-0.250	-0.010	0.750
2020/01/31 19:01:33.1	72.190	-0.220	-0.070	0.770
2020/01/31 19:01:33.2	72.200	-0.200	-0.120	0.790
2020/01/31 19:01:33.3	72.210	-0.180	-0.180	0.820
2020/01/31 19:01:33.4	72.220	-0.150	-0.230	0.840
2020/01/31 19:01:33.5	72.240	-0.130	-0.280	0.860
2020/01/31 19:01:33.6	72.250	-0.100	-0.330	0.880
2020/01/31 19:01:33.7	72.270	-0.070	-0.380	0.900
2020/01/31 19:01:33.8	72.280	-0.050	-0.430	0.920
2020/01/31 19:01:33.9	72.300	-0.020	-0.470	0.940
2020/01/31 19:01:34.0	72.310	-0.000	-0.520	0.960
2020/01/31 19:01:34.1	72.330	0.020	-0.560	0.970
2020/01/31 19:01:34.2	72.340	0.050	-0.590	0.990
2020/01/31 19:01:34.3	72.360	0.070	-0.630	1.000
2020/01/31 19:01:34.4	72.380	0.090	-0.650	1.010
2020/01/31 19:01:34.5	72.390	0.110	-0.680	1.020
2020/01/31 19:01:34.6	72.410	0.130	-0.700	1.030
2020/01/31 19:01:34.7	72.430	0.150	-0.710	1.030
2020/01/31 19:01:34.8	72.430	0.170	-0.730	1.030
2020/01/31 19:01:34.9	72.450	0.190	-0.730	1.030
2020/01/31 19:01:35.0	72.460	0.200	-0.730	1.030
2020/01/31 19:01:35.1	72.470	0.220	-0.730	1.020
2020/01/31 19:01:35.2	72.490	0.230	-0.720	1.020
2020/01/31 19:01:35.3	72.500	0.240	-0.710	1.010
2020/01/31 19:01:35.4	72.510	0.260	-0.700	0.990
2020/01/31 19:01:35.5	72.520	0.270	-0.680	0.980
2020/01/31 19:01:35.6	72.540	0.280	-0.660	0.960
2020/01/31 19:01:35.7	72.550	0.290	-0.630	0.940
2020/01/31 19:01:35.8	72.560	0.300	-0.610	0.910
2020/01/31 19:01:35.9	72.570	0.300	-0.580	0.890
2020/01/31 19:01:36.0	72.580	0.310	-0.550	0.860
2020/01/31 19:01:36.1	72.590	0.320	-0.520	0.830
2020/01/31 19:01:36.2	72.600	0.320	-0.490	0.800
2020/01/31 19:01:36.3	72.610	0.330	-0.450	0.760
2020/01/31 19:01:36.4	72.620	0.340	-0.420	0.730
2020/01/31 19:01:36.5	72.640	0.340	-0.390	0.690
2020/01/31 19:01:36.6	72.650	0.340	-0.360	0.650
2020/01/31 19:01:36.7	72.660	0.350	-0.330	0.610
2020/01/31 19:01:36.8	72.670	0.350	-0.300	0.570
2020/01/31 19:01:36.9	72.680	0.350	-0.280	0.530
2020/01/31 19:01:37.0	72.690	0.350	-0.250	0.500
2020/01/31 19:01:37.1	72.700	0.350	-0.230	0.460
2020/01/31 19:01:37.2	72.710	0.350	-0.210	0.430
2020/01/31 19:01:37.3	72.720	0.340	-0.190	0.390
2020/01/31 19:01:37.4	72.720	0.340	-0.170	0.360
2020/01/31 19:01:37.5	72.730	0.330	-0.160	0.330
2020/01/31 19:01:37.6	72.740	0.320	-0.140	0.310
2020/01/31 19:01:37.7	72.740	0.320	-0.130	0.290
2020/01/31 19:01:37.8	72.740	0.310	-0.120	0.270
2020/01/31 19:01:37.9	72.740	0.290	-0.110	0.250
2020/01/31 19:01:38.0	72.740	0.280	-0.100	0.240
2020/01/31 19:01:38.1	72.740	0.260	-0.090	0.230
2020/01/31 19:01:38.2	72.740	0.240	-0.080	0.220
2020/01/31 19:01:38.3	72.740	0.230	-0.070	0.210
2020/01/31 19:01:38.4	72.730	0.200	-0.060	0.210
2020/01/31 19:01:38.5	72.730	0.180	-0.050	0.200
2020/01/31 19:01:38.6	72.720	0.160	-0.040	0.200
2020/01/31 19:01:38.7	72.710	0.130	-0.030	0.210
2020/01/31 19:01:38.8	72.700	0.100	-0.020	0.200
2020/01/31 19:01:38.9	72.690	0.070	-0.000	0.210
2020/01/31 19:01:39.0	72.680	0.040	0.010	0.210
2020/01/31 19:01:39.1	72.670	0.010	0.020	0.220
2020/01/31 19:01:39.2	72.670	-0.020	0.030	0.220
2020/01/31 19:01:39.3	72.660	-0.050	0.050	0.220
2020/01/31 19:01:39.4	72.650	-0.080	0.060	0.230
2020/01/31 19:01:39.5	72.640	-0.110	0.070	0.230
2020/01/31 19:01:39.6	72.630	-0.140	0.090	0.230
2020/01/31 19:01:39.7	72.620	-0.170	0.100	0.230
2020/01/31 19:01:39.8	72.610	-0.200	0.110	0.230
2020/01/31 19:01:39.9	72.610	-0.230	0.120	0.230
2020/01/31 19:01:40.0	72.600	-0.260	0.130	0.220
2020/01/31 19:01:40.1	72.600	-0.280	0.140	0.220
2020/01/31 19:01:40.2	72.600	-0.300	0.150	0.200
2020/01/31 19:01:40.3	72.600	-0.320	0.150	0.190
2020/01/31 19:01:40.4	72.610	-0.340	0.150	0.170
2020/01/31 19:01:40.5	72.620	-0.360	0.150	0.150
2020/01/31 19:01:40.6	72.630	-0.370	0.150	0.130
2020/01/31 19:01:40.7	72.640	-0.380	0.140	0.100
2020/01/31 19:01:40.8	72.650	-0.390	0.140	0.060
2020/01/31 19:01:40.9	72.670	-0.400	0.130	0.030
2020/01/31 19:01:41.0	72.690	-0.400	0.120	-0.010
2020/01/31 19:01:41.1	72.720	-0.400	0.100	-0.050
2020/01/31 19:01:41.2	72.740	-0.400	0.080	-0.090
2020/01/31 19:01:41.3	72.770	-0.400	0.070	-0.140
2020/01/31 19:01:41.4	72.800	-0.400	0.050	-0.190
2020/01/31 19:01:41.5	72.830	-0.390	0.020	-0.230
2020/01/31 19:01:41.6	72.860	-0.380	0.000	-0.280
2020/01/31 19:01:41.7	72.890	-0.370	-0.020	-0.330
2020/01/31 19:01:41.8	72.920	-0.360	-0.040	-0.370
2020/01/31 19:01:41.9	72.960	-0.350	-0.060	-0.420
2020/01/31 19:01:42.0	72.990	-0.340	-0.080	-0.460
2020/01/31 19:01:42.1	73.020	-0.320	-0.100	-0.500
2020/01/31 19:01:42.2	73.040	-0.310	-0.120	-0.540
2020/01/31 19:01:42.3	73.070	-0.290	-0.140	-0.570
2020/01/31 19:01:42.4	73.090	-0.280	-0.150	-0.600
2020/01/31 19:01:42.5	73.120	-0.260	-0.160	-0.620
2020/01/31 19:01:42.6	73.140	-0.250	-0.170	-0.640
2020/01/31 19:01:42.7	73.150	-0.230	-0.180	-0.660
2020/01/31 19:01:42.8	73.170	-0.210	-0.190	-0.670
2020/01/31 19:01:42.9	73.180	-0.200	-0.190	-0.670
2020/01/31 19:01:43.0	73.190	-0.180	-0.190	-0.670
2020/01/31 19:01:43.1	73.200	-0.160	-0.190	-0.660
2020/01/31 19:01:43.2	73.200	-0.150	-0.190	-0.650
2020/01/31 19:01:43.3	73.200	-0.130	-0.190	-0.630
2020/01/31 19:01:43.4	73.200	-0.110	-0.190	-0.600
2020/01/31 19:01:43.5	73.190	-0.090	-0.180	-0.570
2020/01/31 19:01:43.6	73.180	-0.080	-0.180	-0.540
2020/01/31 19:01:43.7	73.170	-0.060	-0.170	-0.510
2020/01/31 19:01:43.8	73.170	-0.040	-0.170	-0.460
2020/01/31 19:01:43.9	73.160	-0.020	-0.160	-0.420
2020/01/31 19:01:44.0	73.140	-0.000	-0.160	-0.380
2020/01/31 19:01:44.1	73.130	0.010	-0.160	-0.330
2020/01/31 19:01:44.2	73.110	0.030	-0.160	-0.290
2020/01/31 19:01:44.3	73.100	0.050	-0.160	-0.240
2020/01/31 19:01:44.4	73.090	0.070	-0.170	-0.200
2020/01/31 19:01:44.5	73.070	0.090	-0.170	-0.160
2020/01/31 19:01:44.6	73.060	0.110	-0.180	-0.110
2020/01/31 19:01:44.7	73.040	0.130	-0.200	-0.070
2020/01/31 19:01:44.8	73.030	0.150	-0.220	-0.040
2020/01/31 19:01:44.9	73.010	0.170	-0.230	-0.010
2020/01/31 19:01:45.0	73.000	0.190	-0.250	0.030
2020/01/31 19:01:45.1	72.990	0.210	-0.280	0.050
2020/01/31 19:01:45.2	72.980	0.230	-0.300	0.080
2020/01/31 19:01:45.3	72.970	0.250	-0.330	0.100
2020/01/31 19:01:45.4	72.960	0.270	-0.360	0.120
2020/01/31 19:01:45.5	72.950	0.290	-0.390	0.140
2020/01/31 19:01:45.6	72.940	0.310	-0.420	0.150
2020/01/31 19:01:45.7	72.930	0.320	-0.450	0.170
2020/01/31 19:01:45.8	72.930	0.340	-0.480	0.180
2020/01/31 19:01:45.9	72.920	0.350	-0.510	0.190
2020/01/31 19:01:46.0	72.910	0.370	-0.540	0.200
2020/01/31 19:01:46.1	72.900	0.380	-0.570	0.200
2020/01/31 19:01:46.2	72.890	0.390	-0.590	0.210
2020/01/31 19:01:46.3	72.880	0.400	-0.620	0.220
2020/01/31 19:01:46.4	72.870	0.410	-0.640	0.230
2020/01/31 19:01:46.5	72.860	0.420	-0.650	0.240
2020/01/31 19:01:46.6	72.850	0.420	-0.660	0.250
2020/01/31 19:01:46.7	72.850	0.430	-0.670	0.260
2020/01/31 19:01:46.8	72.840	0.430	-0.680	0.270
2020/01/31 19:01:46.9	72.830	0.430	-0.680	0.280
2020/01/31 19:01:47.0	72.830	0.430	-0.680	0.300
2020/01/31 19:01:47.1	72.830	0.430	-0.680	0.320
2020/01/31 19:01:47.2	72.820	0.420	-0.670	0.340
2020/01/31 19:01:47.3	72.820	0.420	-0.660	0.360
2020/01/31 19:01:47.4	72.820	0.410	-0.650	0.380
2020/01/31 19:01:47.5	72.830	0.400	-0.630	0.400
2020/01/31 19:01:47.6	72.830	0.390	-0.620	0.420
2020/01/31 19:01:47.7	72.840	0.380	-0.600	0.450
2020/01/31 19:01:47.8	72.850	0.370	-0.580	0.470
2020/01/31 19:01:47.9	72.860	0.350	-0.560	0.490
2020/01/31 19:01:48.0	72.870	0.340	-0.530	0.520
2020/01/31 19:01:48.1	72.890	0.320	-0.510	0.540
2020/01/31 19:01:48.2	72.910	0.300	-0.480	0.560
2020/01/31 19:01:48.3	72.930	0.280	-0.450	0.580
2020/01/31 19:01:48.4	72.950	0.260	-0.430	0.590
2020/01/31 19:01:48.5	72.970	0.240	-0.400	0.610
2020/01/31 19:01:48.6	73.000	0.220	-0.370	0.620
2020/01/31 19:01:48.7	73.030	0.200	-0.330	0.640
2020/01/31 19:01:48.8	73.050	0.170	-0.300	0.640
2020/01/31 19:01:48.9	73.080	0.150	-0.270	0.650
2020/01/31 19:01:49.0	73.120	0.120	-0.240	0.660
2020/01/31 19:01:49.1	73.150	0.100	-0.200	0.660
2020/01/31 19:01:49.2	73.180	0.070	-0.170	0.660
2020/01/31 19:01:49.3	73.220	0.040	-0.130	0.660
2020/01/31 19:01:49.4	73.250	0.020	-0.100	0.660
2020/01/31 19:01:49.5	73.290	-0.010	-0.060	0.650
2020/01/31 19:01:49.6	73.320	-0.040	-0.030	0.650
2020/01/31 19:01:49.7	73.360	-0.070	0.010	0.640
2020/01/31 19:01:49.8	73.390	-0.100	0.050	0.620
2020/01/31 19:01:49.9	73.430	-0.120	0.080	0.610
2020/01/31 19:01:50.0	73.460	-0.150	0.120	0.600
2020/01/31 19:01:50.1	73.500	-0.180	0.160	0.590
2020/01/31 19:01:50.2	73.530	-0.210	0.190	0.580
2020/01/31 19:01:50.3	73.560	-0.240	0.230	0.560
2020/01/31 19:01:50.4	73.580	-0.260	0.260	0.550
2020/01/31 19:01:50.5	73.610	-0.290	0.300	0.540
2020/01/31 19:01:50.6	73.630	-0.320	0.330	0.520
2020/01/31 19:01:50.7	73.660	-0.340	0.360	0.510
2020/01/31 19:01:50.8	73.680	-0.370	0.390	0.500
2020/01/31 19:01:50.9	73.700	-0.390	0.420	0.490
2020/01/31 19:01:51.0	73.710	-0.410	0.440	0.480
2020/01/31 19:01:51.1	73.730	-0.430	0.470	0.470
2020/01/31 19:01:51.2	73.740	-0.450	0.490	0.470
2020/01/31 19:01:51.3	73.750	-0.470	0.510	0.460
2020/01/31 19:01:51.4	73.750	-0.480	0.530	0.460
2020/01/31 19:01:51.5	73.760	-0.490	0.550	0.460
2020/01/31 19:01:51.6	73.760	-0.500	0.560	0.460
2020/01/31 19:01:51.7	73.760	-0.510	0.570	0.460
2020/01/31 19:01:51.8	73.770	-0.520	0.570	0.450
2020/01/31 19:01:51.9	73.770	-0.530	0.580	0.460
2020/01/31 19:01:52.0	73.770	-0.530	0.580	0.460
2020/01/31 19:01:52.1	73.760	-0.530	0.570	0.470
2020/01/31 19:01:52.2	73.760	-0.530	0.570	0.470
2020/01/31 19:01:52.3	73.750	-0.520	0.560	0.480
2020/01/31 19:01:52.4	73.740	-0.520	0.540	0.490
2020/01/31 19:01:52.5	73.740	-0.510	0.520	0.500
2020/01/31 19:01:52.6	73.730	-0.500	0.500	0.520
2020/01/31 19:01:52.7	73.720	-0.490	0.480	0.530
2020/01/31 19:01:52.8	73.700	-0.470	0.450	0.550
2020/01/31 19:01:52.9	73.690	-0.460	0.420	0.570
2020/01/31 19:01:53.0	73.670	-0.440	0.380	0.590
2020/01/31 19:01:53.1	73.650	-0.430	0.350	0.610
2020/01/31 19:01:53.2	73.640	-0.410	0.310	0.630
2020/01/31 19:01:53.3	73.620	-0.390	0.260	0.660
2020/01/31 19:01:53.4	73.600	-0.370	0.220	0.680
2020/01/31 19:01:53.5	73.580	-0.350	0.170	0.700
2020/01/31 19:01:53.6	73.560	-0.330	0.130	0.720
2020/01/31 19:01:53.7	73.540	-0.310	0.080	0.740
2020/01/31 19:01:53.8	73.520	-0.290	0.030	0.760
2020/01/31 19:01:53.9	73.500	-0.270	-0.020	0.780
2020/01/31 19:01:54.0	73.480	-0.250	-0.070	0.800
2020/01/31 19:01:54.1	73.460	-0.230	-0.130	0.820
2020/01/31 19:01:54.2	73.430	-0.210	-0.180	0.830
2020/01/31 19:01:54.3	73.410	-0.190	-0.230	0.840
2020/01/31 19:01:54.4	73.390	-0.170	-0.280	0.850
2020/01/31 19:01:54.5	73.370	-0.150	-0.340	0.850
2020/01/31 19:01:54.6	73.350	-0.130	-0.390	0.850
2020/01/31 19:01:54.7	73.330	-0.110	-0.440	0.850
2020/01/31 19:01:54.8	73.310	-0.100	-0.490	0.840
2020/01/31 19:01:54.9	73.290	-0.080	-0.540	0.830
2020/01/31 19:01:55.0	73.280	-0.060	-0.590	0.810
2020/01/31 19:01:55.1	73.270	-0.040	-0.640	0.790
2020/01/31 19:01:55.2	73.260	-0.030	-0.690	0.760
2020/01/31 19:01:55.3	73.250	-0.010	-0.730	0.730
2020/01/31 19:01:55.4	73.240	0.010	-0.770	0.690
2020/01/31 19:01:55.5	73.240	0.030	-0.820	0.650
2020/01/31 19:01:55.6	73.230	0.050	-0.860	0.600
2020/01/31 19:01:55.7	73.230	0.070	-0.900	0.550
2020/01/31 19:01:55.8	73.240	0.090	-0.930	0.500
2020/01/31 19:01:55.9	73.240	0.110	-0.970	0.440
2020/01/31 19:01:56.0	73.250	0.130	-1.000	0.380
2020/01/31 19:01:56.1	73.260	0.160	-1.030	0.310
2020/01/31 19:01:56.2	73.270	0.180	-1.060	0.250
2020/01/31 19:01:56.3	73.290	0.210	-1.090	0.180
2020/01/31 19:01:56.4	73.310	0.230	-1.110	0.110
2020/01/31 19:01:56.5	73.330	0.260	-1.130	0.040
2020/01/31 19:01:56.6	73.350	0.290	-1.150	-0.030
2020/01/31 19:01:56.7	73.380	0.320	-1.160	-0.100
2020/01/31 19:01:56.8	73.400	0.350	-1.170	-0.170
2020/01/31 19:01:56.9	73.430	0.380	-1.170	-0.230
2020/01/31 19:01:57.0	73.460	0.410	-1.170	-0.300
2020/01/31 19:01:57.1	73.490	0.440	-1.170	-0.360
2020/01/31 19:01:57.2	73.520	0.470	-1.160	-0.410
2020/01/31 19:01:57.3	73.550	0.500	-1.140	-0.470
2020/01/31 19:01:57.4	73.580	0.530	-1.120	-0.510
2020/01/31 19:01:57.5	73.620	0.560	-1.100	-0.560
2020/01/31 19:01:57.6	73.650	0.580	-1.070	-0.590
2020/01/31 19:01:57.7	73.670	0.600	-1.030	-0.630
2020/01/31 19:01:57.8	73.700	0.620	-0.990	-0.650
2020/01/31 19:01:57.9	73.730	0.640	-0.940	-0.680
2020/01/31 19:01:58.0	73.750	0.650	-0.890	-0.690
2020/01/31 19:01:58.1	73.770	0.660	-0.830	-0.710
2020/01/31 19:01:58.2	73.790	0.670	-0.770	-0.720
2020/01/31 19:01:58.3	73.810	0.670	-0.700	-0.720
2020/01/31 19:01:58.4	73.820	0.670	-0.630	-0.720
2020/01/31 19:01:58.5	73.830	0.660	-0.550	-0.720
2020/01/31 19:01:58.6	73.840	0.650	-0.470	-0.720
2020/01/31 19:01:58.7	73.850	0.630	-0.390	-0.710
2020/01/31 19:01:58.8	73.840	0.610	-0.300	-0.700
2020/01/31 19:01:58.9	73.850	0.590	-0.220	-0.680
2020/01/31 19:01:59.0	73.850	0.560	-0.130	-0.670
2020/01/31 19:01:59.1	73.850	0.530	-0.040	-0.650
2020/01/31 19:01:59.2	73.850	0.490	0.050	-0.640
2020/01/31 19:01:59.3	73.840	0.450	0.150	-0.620
2020/01/31 19:01:59.4	73.840	0.410	0.240	-0.600
2020/01/31 19:01:59.5	73.830	0.360	0.330	-0.580
2020/01/31 19:01:59.6	73.820	0.310	0.410	-0.560
2020/01/31 19:01:59.7	73.820	0.260	0.500	-0.540
2020/01/31 19:01:59.8	73.800	0.210	0.580	-0.520
2020/01/31 19:01:59.9	73.790	0.150	0.660	-0.500
2020/01/31 19:02:00.0	73.780	0.090	0.740	-0.480
2020/01/31 19:02:00.1	73.780	0.040	0.810	-0.460
2020/01/31 19:02:00.2	73.770	-0.020	0.870	-0.440
2020/01/31 19:02:00.3	73.760	-0.080	0.930	-0.420
2020/01/31 19:02:00.4	73.750	-0.130	0.990	-0.400
2020/01/31 19:02:00.5	73.740	-0.190	1.040	-0.380
2020/01/31 19:02:00.6	73.730	-0.240	1.080	-0.360
2020/01/31 19:02:00.7	73.720	-0.290	1.110	-0.340
2020/01/31 19:02:00.8	73.720	-0.340	1.140	-0.330
2020/01/31 19:02:00.9	73.710	-0.380	1.160	-0.310
2020/01/31 19:02:01.0	73.710	-0.420	1.170	-0.290
2020/01/31 19:02:01.1	73.710	-0.460	1.170	-0.270
2020/01/31 19:02:01.2	73.700	-0.490	1.170	-0.250
2020/01/31 19:02:01.3	73.700	-0.520	1.150	-0.230
2020/01/31 19:02:01.4	73.700	-0.540	1.120	-0.200
2020/01/31 19:02:01.5	73.700	-0.560	1.090	-0.180
2020/01/31 19:02:01.6	73.700	-0.580	1.040	-0.160
2020/01/31 19:02:01.7	73.700	-0.590	0.990	-0.130
2020/01/31 19:02:01.8	73.710	-0.590	0.930	-0.100
2020/01/31 19:02:01.9	73.720	-0.590	0.860	-0.080
2020/01/31 19:02:02.0	73.720	-0.590	0.780	-0.050
2020/01/31 19:02:02.1	73.730	-0.580	0.690	-0.020
2020/01/31 19:02:02.2	73.740	-0.570	0.600	0.010
2020/01/31 19:02:02.3	73.750	-0.560	0.500	0.050
2020/01/31 19:02:02.4	73.750	-0.540	0.400	0.080
2020/01/31 19:02:02.5	73.760	-0.510	0.290	0.120
2020/01/31 19:02:02.6	73.770	-0.490	0.180	0.150
2020/01/31 19:02:02.7	73.780	-0.460	0.060	0.190
2020/01/31 19:02:02.8	73.790	-0.430	-0.060	0.230
2020/01/31 19:02:02.9	73.800	-0.400	-0.180	0.270
2020/01/31 19:02:03.0	73.810	-0.370	-0.300	0.310
2020/01/31 19:02:03.1	73.820	-0.330	-0.410	0.350
2020/01/31 19:02:03.2	73.830	-0.300	-0.530	0.390
2020/01/31 19:02:03.3	73.840	-0.260	-0.640	0.430
2020/01/31 19:02:03.4	73.850	-0.220	-0.750	0.470
2020/01/31 19:02:03.5	73.870	-0.190	-0.850	0.520
2020/01/31 19:02:03.6	73.880	-0.150	-0.950	0.560
2020/01/31 19:02:03.7	73.890	-0.110	-1.040	0.600
2020/01/31 19:02:03.8	73.900	-0.080	-1.130	0.650
2020/01/31 19:02:03.9	73.910	-0.050	-1.200	0.690
2020/01/31 19:02:04.0	73.930	-0.020	-1.270	0.730
2020/01/31 19:02:04.1	73.940	0.020	-1.330	0.770
2020/01/31 19:02:04.2	73.950	0.040	-1.370	0.810
2020/01/31 19:02:04.3	73.970	0.070	-1.410	0.850
2020/01/31 19:02:04.4	73.980	0.090	-1.440	0.890
2020/01/31 19:02:04.5	73.990	0.120	-1.450	0.930
2020/01/31 19:02:04.6	74.000	0.140	-1.460	0.970
2020/01/31 19:02:04.7	74.020	0.150	-1.450	1.010
2020/01/31 19:02:04.8	74.020	0.170	-1.440	1.040
2020/01/31 19:02:04.9	74.020	0.180	-1.410	1.080
2020/01/31 19:02:05.0	74.030	0.190	-1.370	1.120
2020/01/31 19:02:05.1	74.030	0.190	-1.330	1.170
2020/01/31 19:02:05.2	74.040	0.200	-1.270	1.210
2020/01/31 19:02:05.3	74.040	0.200	-1.200	1.250
2020/01/31 19:02:05.4	74.040	0.200	-1.130	1.290
2020/01/31 19:02:05.5	74.030	0.190	-1.040	1.330
2020/01/31 19:02:05.6	74.020	0.180	-0.960	1.370
2020/01/31 19:02:05.7	74.020	0.170	-0.860	1.410
2020/01/31 19:02:05.8	74.000	0.160	-0.760	1.450
2020/01/31 19:02:05.9	73.990	0.150	-0.660	1.480
2020/01/31 19:02:06.0	73.970	0.130	-0.550	1.520
2020/01/31 19:02:06.1	73.960	0.120	-0.440	1.550
2020/01/31 19:02:06.2	73.940	0.100	-0.340	1.590
2020/01/31 19:02:06.3	73.920	0.080	-0.230	1.620
2020/01/31 19:02:06.4	73.900	0.060	-0.120	1.640
2020/01/31 19:02:06.5	73.870	0.030	-0.020	1.670
2020/01/31 19:02:06.6	73.850	0.010	0.070	1.690
2020/01/31 19:02:06.7	73.830	-0.010	0.160	1.710
2020/01/31 19:02:06.8	73.810	-0.030	0.250	1.720
2020/01/31 19:02:06.9	73.780	-0.050	0.330	1.720
2020/01/31 19:02:07.0	73.760	-0.070	0.400	1.730
2020/01/31 19:02:07.1	73.740	-0.090	0.460	1.730
2020/01/31 19:02:07.2	73.720	-0.110	0.510	1.720
2020/01/31 19:02:07.3	73.700	-0.120	0.560	1.710
2020/01/31 19:02:07.4	73.680	-0.140	0.590	1.700
2020/01/31 19:02:07.5	73.660	-0.150	0.610	1.680
2020/01/31 19:02:07.6	73.650	-0.160	0.620	1.650
2020/01/31 19:02:07.7	73.630	-0.160	0.620	1.620
2020/01/31 19:02:07.8	73.620	-0.160	0.600	1.580
2020/01/31 19:02:07.9	73.610	-0.170	0.580	1.530
2020/01/31 19:02:08.0	73.610	-0.160	0.550	1.480
2020/01/31 19:02:08.1	73.610	-0.160	0.510	1.430
2020/01/31 19:02:08.2	73.610	-0.150	0.460	1.360
2020/01/31 19:02:08.3	73.620	-0.140	0.400	1.290
2020/01/31 19:02:08.4	73.630	-0.120	0.340	1.220
2020/01/31 19:02:08.5	73.640	-0.110	0.270	1.140
2020/01/31 19:02:08.6	73.660	-0.090	0.190	1.050
2020/01/31 19:02:08.7	73.680	-0.070	0.110	0.960
2020/01/31 19:02:08.8	73.700	-0.040	0.030	0.860
2020/01/31 19:02:08.9	73.720	-0.020	-0.060	0.760
2020/01/31 19:02:09.0	73.750	0.010	-0.150	0.660
2020/01/31 19:02:09.1	73.780	0.040	-0.230	0.550
2020/01/31 19:02:09.2	73.820	0.060	-0.320	0.440
2020/01/31 19:02:09.3	73.850	0.090	-0.400	0.330
2020/01/31 19:02:09.4	73.890	0.120	-0.470	0.210
2020/01/31 19:02:09.5	73.930	0.150	-0.550	0.090
2020/01/31 19:02:09.6	73.970	0.180	-0.610	-0.020
2020/01/31 19:02:09.7	74.020	0.210	-0.670	-0.140
2020/01/31 19:02:09.8	74.050	0.240	-0.720	-0.260
2020/01/31 19:02:09.9	74.100	0.260	-0.770	-0.370
2020/01/31 19:02:10.0	74.140	0.290	-0.800	-0.480
2020/01/31 19:02:10.1	74.180	0.310	-0.820	-0.590
2020/01/31 19:02:10.2	74.220	0.330	-0.840	-0.700
2020/01/31 19:02:10.3	74.260	0.350	-0.840	-0.800
2020/01/31 19:02:10.4	74.300	0.370	-0.840	-0.900
2020/01/31 19:02:10.5	74.340	0.380	-0.820	-1.000
2020/01/31 19:02:10.6	74.370	0.390	-0.790	-1.080
2020/01/31 19:02:10.7	74.410	0.400	-0.760	-1.170
2020/01/31 19:02:10.8	74.430	0.410	-0.710	-1.250
2020/01/31 19:02:10.9	74.460	0.410	-0.660	-1.320
2020/01/31 19:02:11.0	74.480	0.410	-0.600	-1.380
2020/01/31 19:02:11.1	74.500	0.410	-0.530	-1.430
2020/01/31 19:02:11.2	74.520	0.400	-0.460	-1.480
2020/01/31 19:02:11.3	74.540	0.390	-0.380	-1.510
2020/01/31 19:02:11.4	74.550	0.380	-0.300	-1.540
2020/01/31 19:02:11.5	74.560	0.370	-0.220	-1.570
2020/01/31 19:02:11.6	74.570	0.350	-0.130	-1.580
2020/01/31 19:02:11.7	74.570	0.330	-0.040	-1.580
2020/01/31 19:02:11.8	74.560	0.310	0.040	-1.580
2020/01/31 19:02:11.9	74.560	0.280	0.130	-1.570
2020/01/31 19:02:12.0	74.560	0.250	0.220	-1.550
2020/01/31 19:02:12.1	74.550	0.220	0.300	-1.520
2020/01/31 19:02:12.2	74.540	0.190	0.370	-1.480
2020/01/31 19:02:12.3	74.530	0.160	0.450	-1.440
2020/01/31 19:02:12.4	74.520	0.130	0.520	-1.390
2020/01/31 19:02:12.5	74.500	0.090	0.580	-1.330
2020/01/31 19:02:12.6	74.490	0.050	0.630	-1.270
2020/01/31 19:02:12.7	74.470	0.020	0.680	-1.200
2020/01/31 19:02:12.8	74.440	-0.020	0.720	-1.120
2020/01/31 19:02:12.9	74.420	-0.060	0.750	-1.040
2020/01/31 19:02:13.0	74.400	-0.100	0.780	-0.960
2020/01/31 19:02:13.1	74.380	-0.140	0.790	-0.870
2020/01/31 19:02:13.2	74.360	-0.180	0.800	-0.780
2020/01/31 19:02:13.3	74.350	-0.210	0.800	-0.680
2020/01/31 19:02:13.4	74.330	-0.250	0.790	-0.580
2020/01/31 19:02:13.5	74.310	-0.280	0.770	-0.480
2020/01/31 19:02:13.6	74.290	-0.320	0.740	-0.380
2020/01/31 19:02:13.7	74.280	-0.350	0.710	-0.280
2020/01/31 19:02:13.8	74.260	-0.380	0.660	-0.170
2020/01/31 19:02:13.9	74.250	-0.410	0.610	-0.070
2020/01/31 19:02:14.0	74.240	-0.440	0.560	0.030
2020/01/31 19:02:14.1	74.230	-0.460	0.490	0.130
2020/01/31 19:02:14.2	74.220	-0.490	0.430	0.230
2020/01/31 19:02:14.3	74.210	-0.510	0.350	0.320
2020/01/31 19:02:14.4	74.210	-0.530	0.270	0.410
2020/01/31 19:02:14.5	74.210	-0.540	0.190	0.500
2020/01/31 19:02:14.6	74.210	-0.560	0.100	0.580
2020/01/31 19:02:14.7	74.220	-0.570	0.010	0.660
2020/01/31 19:02:14.8	74.230	-0.580	-0.080	0.730
2020/01/31 19:02:14.9	74.230	-0.580	-0.170	0.800
2020/01/31 19:02:15.0	74.250	-0.590	-0.270	0.860
2020/01/31 19:02:15.1	74.260	-0.590	-0.360	0.920
2020/01/31 19:02:15.2	74.280	-0.590	-0.450	0.980
2020/01/31 19:02:15.3	74.290	-0.580	-0.540	1.030
2020/01/31 19:02:15.4	74.310	-0.570	-0.630	1.070
2020/01/31 19:02:15.5	74.330	-0.570	-0.710	1.120
2020/01/31 19:02:15.6	74.350	-0.550	-0.790	1.160
2020/01/31 19:02:15.7	74.370	-0.540	-0.860	1.200
2020/01/31 19:02:15.8	74.400	-0.530	-0.930	1.230
2020/01/31 19:02:15.9	74.410	-0.510	-0.990	1.270
2020/01/31 19:02:16.0	74.430	-0.490	-1.040	1.300
2020/01/31 19:02:16.1	74.450	-0.470	-1.090	1.330
2020/01/31 19:02:16.2	74.460	-0.440	-1.120	1.370
2020/01/31 19:02:16.3	74.480	-0.420	-1.150	1.400
2020/01/31 19:02:16.4	74.490	-0.390	-1.170	1.430
2020/01/31 19:02:16.5	74.500	-0.370	-1.180	1.460
2020/01/31 19:02:16.6	74.510	-0.340	-1.190	1.490
2020/01/31 19:02:16.7	74.520	-0.310	-1.180	1.520
2020/01/31 19:02:16.8	74.520	-0.280	-1.170	1.550
2020/01/31 19:02:16.9	74.520	-0.250	-1.150	1.590
2020/01/31 19:02:17.0	74.520	-0.220	-1.120	1.620
2020/01/31 19:02:17.1	74.520	-0.190	-1.080	1.650
2020/01/31 19:02:17.2	74.520	-0.160	-1.040	1.680
2020/01/31 19:02:17.3	74.510	-0.120	-1.000	1.710
2020/01/31 19:02:17.4	74.500	-0.090	-0.940	1.730
2020/01/31 19:02:17.5	74.490	-0.060	-0.890	1.760
2020/01/31 19:02:17.6	74.490	-0.030	-0.830	1.790
2020/01/31 19:02:17.7	74.480	-0.000	-0.770	1.810
2020/01/31 19:02:17.8	74.460	0.030	-0.700	1.830
2020/01/31 19:02:17.9	74.450	0.060	-0.640	1.840
2020/01/31 19:02:18.0	74.440	0.090	-0.570	1.860
2020/01/31 19:02:18.1	74.430	0.120	-0.510	1.870
2020/01/31 19:02:18.2	74.420	0.150	-0.450	1.880
2020/01/31 19:02:18.3	74.410	0.180	-0.390	1.880
2020/01/31 19:02:18.4	74.400	0.210	-0.330	1.880
2020/01/31 19:02:18.5	74.390	0.240	-0.280	1.880
2020/01/31 19:02:18.6	74.380	0.260	-0.230	1.870
2020/01/31 19:02:18.7	74.380	0.290	-0.180	1.860
2020/01/31 19:02:18.8	74.380	0.320	-0.140	1.840
2020/01/31 19:02:18.9	74.380	0.350	-0.110	1.820
2020/01/31 19:02:19.0	74.380	0.380	-0.070	1.800
2020/01/31 19:02:19.1	74.390	0.400	-0.050	1.770
2020/01/31 19:02:19.2	74.400	0.430	-0.030	1.730
2020/01/31 19:02:19.3	74.410	0.460	-0.010	1.690
2020/01/31 19:02:19.4	74.420	0.480	0.000	1.650
2020/01/31 19:02:19.5	74.440	0.510	0.010	1.600
2020/01/31 19:02:19.6	74.450	0.530	0.010	1.540
2020/01/31 19:02:19.7	74.470	0.560	0.010	1.480
2020/01/31 19:02:19.8	74.500	0.580	0.000	1.410
2020/01/31 19:02:19.9	74.530	0.600	-0.010	1.350
2020/01/31 19:02:20.0	74.560	0.620	-0.020	1.280
2020/01/31 19:02:20.1	74.580	0.640	-0.030	1.200
2020/01/31 19:02:20.2	74.610	0.660	-0.040	1.120
2020/01/31 19:02:20.3	74.640	0.670	-0.060	1.040
2020/01/31 19:02:20.4	74.670	0.690	-0.070	0.960
2020/01/31 19:02:20.5	74.700	0.700	-0.090	0.870
2020/01/31 19:02:20.6	74.730	0.710	-0.100	0.790
2020/01/31 19:02:20.7	74.760	0.710	-0.110	0.700
2020/01/31 19:02:20.8	74.790	0.710	-0.110	0.610
2020/01/31 19:02:20.9	74.820	0.710	-0.120	0.530
2020/01/31 19:02:21.0	74.840	0.710	-0.120	0.440
2020/01/31 19:02:21.1	74.870	0.700	-0.110	0.360
2020/01/31 19:02:21.2	74.890	0.690	-0.110	0.280
2020/01/31 19:02:21.3	74.900	0.680	-0.100	0.200
2020/01/31 19:02:21.4	74.920	0.660	-0.080	0.120
2020/01/31 19:02:21.5	74.930	0.640	-0.070	0.050
2020/01/31 19:02:21.6	74.940	0.620	-0.040	-0.020
2020/01/31 19:02:21.7	74.950	0.590	-0.020	-0.080
2020/01/31 19:02:21.8	74.950	0.560	0.010	-0.150
2020/01/31 19:02:21.9	74.950	0.530	0.040	-0.200
2020/01/31 19:02:22.0	74.950	0.490	0.070	-0.260
2020/01/31 19:02:22.1	74.940	0.450	0.110	-0.300
2020/01/31 19:02:22.2	74.940	0.410	0.140	-0.350
2020/01/31 19:02:22.3	74.930	0.370	0.180	-0.390
2020/01/31 19:02:22.4	74.920	0.320	0.210	-0.420
2020/01/31 19:02:22.5	74.910	0.270	0.250	-0.460
2020/01/31 19:02:22.6	74.890	0.220	0.280	-0.480
2020/01/31 19:02:22.7	74.880	0.170	0.310	-0.510
2020/01/31 19:02:22.8	74.860	0.110	0.340	-0.530
2020/01/31 19:02:22.9	74.840	0.060	0.370	-0.550
2020/01/31 19:02:23.0	74.830	-0.000	0.390	-0.560
2020/01/31 19:02:23.1	74.810	-0.060	0.410	-0.570
2020/01/31 19:02:23.2	74.800	-0.110	0.430	-0.580
2020/01/31 19:02:23.3	74.780	-0.170	0.440	-0.580
2020/01/31 19:02:23.4	74.770	-0.230	0.450	-0.590
2020/01/31 19:02:23.5	74.750	-0.280	0.450	-0.590
2020/01/31 19:02:23.6	74.740	-0.340	0.450	-0.590
2020/01/31 19:02:23.7	74.730	-0.390	0.440	-0.590
2020/01/31 19:02:23.8	74.710	-0.440	0.430	-0.590
2020/01/31 19:02:23.9	74.700	-0.490	0.410	-0.590
2020/01/31 19:02:24.0	74.700	-0.540	0.390	-0.590
2020/01/31 19:02:24.1	74.690	-0.580	0.360	-0.590
2020/01/31 19:02:24.2	74.690	-0.620	0.330	-0.590
2020/01/31 19:02:24.3	74.690	-0.660	0.290	-0.590
2020/01/31 19:02:24.4	74.690	-0.700	0.250	-0.590
2020/01/31 19:02:24.5	74.690	-0.730	0.200	-0.590
2020/01/31 19:02:24.6	74.700	-0.760	0.160	-0.590
2020/01/31 19:02:24.7	74.700	-0.780	0.110	-0.590
2020/01/31 19:02:24.8	74.700	-0.800	0.050	-0.580
2020/01/31 19:02:24.9	74.700	-0.820	-0.010	-0.580
2020/01/31 19:02:25.0	74.710	-0.830	-0.060	-0.570
2020/01/31 19:02:25.1	74.710	-0.840	-0.110	-0.560
2020/01/31 19:02:25.2	74.720	-0.840	-0.160	-0.550
2020/01/31 19:02:25.3	74.720	-0.840	-0.220	-0.530
2020/01/31 19:02:25.4	74.730	-0.840	-0.270	-0.510
2020/01/31 19:02:25.5	74.730	-0.830	-0.310	-0.490
2020/01/31 19:02:25.6	74.730	-0.820	-0.360	-0.470
2020/01/31 19:02:25.7	74.740	-0.800	-0.400	-0.440
2020/01/31 19:02:25.8	74.730	-0.780	-0.440	-0.400
2020/01/31 19:02:25.9	74.730	-0.760	-0.470	-0.370
2020/01/31 19:02:26.0	74.730	-0.730	-0.500	-0.320
2020/01/31 19:02:26.1	74.730	-0.700	-0.520	-0.280
2020/01/31 19:02:26.2	74.730	-0.670	-0.540	-0.230
2020/01/31 19:02:26.3	74.720	-0.630	-0.560	-0.180
2020/01/31 19:02:26.4	74.720	-0.600	-0.570	-0.120
2020/01/31 19:02:26.5	74.720	-0.550	-0.580	-0.070
2020/01/31 19:02:26.6	74.710	-0.510	-0.590	-0.010
2020/01/31 19:02:26.7	74.710	-0.470	-0.590	0.050
2020/01/31 19:02:26.8	74.710	-0.420	-0.590	0.120
2020/01/31 19:02:26.9	74.700	-0.370	-0.590	0.180
2020/01/31 19:02:27.0	74.700	-0.320	-0.590	0.240
2020/01/31 19:02:27.1	74.700	-0.270	-0.590	0.300
2020/01/31 19:02:27.2	74.690	-0.220	-0.580	0.360
2020/01/31 19:02:27.3	74.690	-0.170	-0.570	0.420
2020/01/31 19:02:27.4	74.690	-0.120	-0.570	0.470
2020/01/31 19:02:27.5	74.680	-0.070	-0.560	0.530
2020/01/31 19:02:27.6	74.680	-0.020	-0.550	0.580
2020/01/31 19:02:27.7	74.680	0.030	-0.550	0.630
2020/01/31 19:02:27.8	74.690	0.080	-0.540	0.680
2020/01/31 19:02:27.9	74.690	0.130	-0.540	0.730
2020/01/31 19:02:28.0	74.690	0.180	-0.530	0.770
2020/01/31 19:02:28.1	74.700	0.230	-0.530	0.810
2020/01/31 19:02:28.2	74.700	0.270	-0.530	0.840
2020/01/31 19:02:28.3	74.710	0.310	-0.530	0.880
2020/01/31 19:02:28.4	74.720	0.360	-0.530	0.900
2020/01/31 19:02:28.5	74.730	0.390	-0.530	0.930
2020/01/31 19:02:28.6	74.740	0.430	-0.530	0.950
2020/01/31 19:02:28.7	74.750	0.470	-0.530	0.960
2020/01/31 19:02:28.8	74.770	0.500	-0.530	0.980
2020/01/31 19:02:28.9	74.780	0.530	-0.530	0.990
2020/01/31 19:02:29.0	74.800	0.560	-0.530	0.990
2020/01/31 19:02:29.1	74.810	0.580	-0.530	1.000
2020/01/31 19:02:29.2	74.830	0.600	-0.530	1.000
2020/01/31 19:02:29.3	74.850	0.620	-0.520	1.000
2020/01/31 19:02:29.4	74.870	0.640	-0.520	0.990
2020/01/31 19:02:29.5	74.880	0.650	-0.510	0.990
2020/01/31 19:02:29.6	74.900	0.660	-0.500	0.980
2020/01/31 19:02:29.7	74.920	0.660	-0.490	0.970
2020/01/31 19:02:29.8	74.930	0.670	-0.480	0.960
2020/01/31 19:02:29.9	74.950	0.670	-0.460	0.950
2020/01/31 19:02:30.0	74.960	0.670	-0.440	0.940
2020/01/31 19:02:30.1	74.980	0.660	-0.410	0.930
2020/01/31 19:02:30.2	74.990	0.650	-0.380	0.920
2020/01/31 19:02:30.3	75.000	0.640	-0.350	0.900
2020/01/31 19:02:30.4	75.010	0.620	-0.320	0.890
2020/01/31 19:02:30.5	75.020	0.610	-0.280	0.880
2020/01/31 19:02:30.6	75.020	0.590	-0.240	0.870
2020/01/31 19:02:30.7	75.030	0.560	-0.200	0.860
2020/01/31 19:02:30.8	75.040	0.540	-0.150	0.850
2020/01/31 19:02:30.9	75.040	0.510	-0.110	0.840
2020/01/31 19:02:31.0	75.040	0.480	-0.060	0.830
2020/01/31 19:02:31.1	75.040	0.440	-0.010	0.820
2020/01/31 19:02:31.2	75.030	0.410	0.040	0.810
2020/01/31 19:02:31.3	75.030	0.370	0.090	0.810
2020/01/31 19:02:31.4	75.020	0.330	0.140	0.800
2020/01/31 19:02:31.5	75.010	0.290	0.190	0.800
2020/01/31 19:02:31.6	75.000	0.250	0.230	0.790
2020/01/31 19:02:31.7	74.990	0.210	0.280	0.790
2020/01/31 19:02:31.8	74.980	0.170	0.320	0.780
2020/01/31 19:02:31.9	74.970	0.120	0.360	0.780
2020/01/31 19:02:32.0	74.960	0.070	0.390	0.780
2020/01/31 19:02:32.1	74.950	0.030	0.430	0.780
2020/01/31 19:02:32.2	74.930	-0.020	0.460	0.780
2020/01/31 19:02:32.3	74.920	-0.060	0.480	0.770
2020/01/31 19:02:32.4	74.910	-0.110	0.500	0.770
2020/01/31 19:02:32.5	74.890	-0.150	0.510	0.770
2020/01/31 19:02:32.6	74.880	-0.200	0.520	0.770
2020/01/31 19:02:32.7	74.870	-0.240	0.530	0.760
2020/01/31 19:02:32.8	74.860	-0.280	0.530	0.750
2020/01/31 19:02:32.9	74.850	-0.320	0.520	0.750
2020/01/31 19:02:33.0	74.840	-0.360	0.510	0.740
2020/01/31 19:02:33.1	74.830	-0.400	0.500	0.730
2020/01/31 19:02:33.2	74.820	-0.430	0.470	0.730
2020/01/31 19:02:33.3	74.820	-0.460	0.450	0.720
2020/01/31 19:02:33.4	74.810	-0.490	0.420	0.710
2020/01/31 19:02:33.5	74.810	-0.510	0.380	0.700
2020/01/31 19:02:33.6	74.800	-0.540	0.340	0.690
2020/01/31 19:02:33.7	74.800	-0.560	0.290	0.680
2020/01/31 19:02:33.8	74.800	-0.570	0.240	0.670
2020/01/31 19:02:33.9	74.800	-0.580	0.190	0.660
2020/01/31 19:02:34.0	74.800	-0.590	0.130	0.640
2020/01/31 19:02:34.1	74.810	-0.600	0.070	0.630
2020/01/31 19:02:34.2	74.810	-0.600	0.010	0.620
2020/01/31 19:02:34.3	74.810	-0.600	-0.050	0.610
2020/01/31 19:02:34.4	74.820	-0.600	-0.110	0.600
2020/01/31 19:02:34.5	74.830	-0.590	-0.180	0.590
2020/01/31 19:02:34.6	74.830	-0.580	-0.240	0.580
2020/01/31 19:02:34.7	74.840	-0.560	-0.310	0.570
2020/01/31 19:02:34.8	74.850	-0.540	-0.370	0.560
2020/01/31 19:02:34.9	74.860	-0.520	-0.430	0.550
2020/01/31 19:02:35.0	74.870	-0.500	-0.490	0.540
2020/01/31 19:02:35.1	74.870	-0.480	-0.550	0.540
2020/01/31 19:02:35.2	74.880	-0.450	-0.600	0.530
2020/01/31 19:02:35.3	74.890	-0.420	-0.660	0.530
2020/01/31 19:02:35.4	74.900	-0.390	-0.700	0.520
2020/01/31 19:02:35.5	74.900	-0.360	-0.740	0.520
2020/01/31 19:02:35.6	74.910	-0.320	-0.780	0.520
2020/01/31 19:02:35.7	74.910	-0.290	-0.810	0.510
2020/01/31 19:02:35.8	74.930	-0.250	-0.840	0.510
2020/01/31 19:02:35.9	74.930	-0.210	-0.860	0.510
2020/01/31 19:02:36.0	74.930	-0.180	-0.870	0.510
2020/01/31 19:02:36.1	74.940	-0.140	-0.880	0.510
2020/01/31 19:02:36.2	74.940	-0.110	-0.880	0.500
2020/01/31 19:02:36.3	74.940	-0.070	-0.880	0.500
2020/01/31 19:02:36.4	74.940	-0.040	-0.870	0.500
2020/01/31 19:02:36.5	74.940	-0.000	-0.850	0.500
2020/01/31 19:02:36.6	74.930	0.030	-0.830	0.500
2020/01/31 19:02:36.7	74.930	0.060	-0.810	0.500
2020/01/31 19:02:36.8	74.930	0.090	-0.780	0.500
2020/01/31 19:02:36.9	74.920	0.120	-0.740	0.500
2020/01/31 19:02:37.0	74.910	0.150	-0.700	0.500
2020/01/31 19:02:37.1	74.900	0.170	-0.660	0.500
2020/01/31 19:02:37.2	74.890	0.200	-0.610	0.500
2020/01/31 19:02:37.3	74.870	0.220	-0.560	0.490
2020/01/31 19:02:37.4	74.860	0.240	-0.510	0.490
2020/01/31 19:02:37.5	74.840	0.250	-0.460	0.490
2020/01/31 19:02:37.6	74.830	0.270	-0.400	0.490
2020/01/31 19:02:37.7	74.810	0.280	-0.350	0.480
2020/01/31 19:02:37.8	74.790	0.300	-0.300	0.470
2020/01/31 19:02:37.9	74.770	0.310	-0.250	0.470
2020/01/31 19:02:38.0	74.750	0.310	-0.200	0.460
2020/01/31 19:02:38.1	74.730	0.320	-0.150	0.440
2020/01/31 19:02:38.2	74.710	0.320	-0.110	0.430
2020/01/31 19:02:38.3	74.700	0.330	-0.060	0.410
2020/01/31 19:02:38.4	74.680	0.330	-0.020	0.400
2020/01/31 19:02:38.5	74.660	0.330	0.020	0.370
2020/01/31 19:02:38.6	74.650	0.330	0.050	0.350
2020/01/31 19:02:38.7	74.630	0.320	0.080	0.330
2020/01/31 19:02:38.8	74.620	0.320	0.110	0.300
2020/01/31 19:02:38.9	74.610	0.320	0.140	0.270
2020/01/31 19:02:39.0	74.600	0.310	0.150	0.240
2020/01/31 19:02:39.1	74.590	0.300	0.170	0.210
2020/01/31 19:02:39.2	74.590	0.300	0.180	0.170
2020/01/31 19:02:39.3	74.580	0.290	0.190	0.140
2020/01/31 19:02:39.4	74.580	0.290	0.190	0.110
2020/01/31 19:02:39.5	74.580	0.280	0.190	0.070
2020/01/31 19:02:39.6	74.590	0.270	0.190	0.030
2020/01/31 19:02:39.7	74.590	0.270	0.180	-0.000
2020/01/31 19:02:39.8	74.600	0.260	0.170	-0.040
2020/01/31 19:02:39.9	74.610	0.260	0.160	-0.080
2020/01/31 19:02:40.0	74.620	0.250	0.140	-0.120
2020/01/31 19:02:40.1	74.640	0.250	0.120	-0.150
2020/01/31 19:02:40.2	74.650	0.250	0.090	-0.190
2020/01/31 19:02:40.3	74.670	0.240	0.060	-0.230
2020/01/31 19:02:40.4	74.700	0.240	0.030	-0.260
2020/01/31 19:02:40.5	74.720	0.240	0.000	-0.290
2020/01/31 19:02:40.6	74.750	0.240	-0.030	-0.330
2020/01/31 19:02:40.7	74.770	0.240	-0.070	-0.350
2020/01/31 19:02:40.8	74.800	0.240	-0.100	-0.380
2020/01/31 19:02:40.9	74.830	0.240	-0.140	-0.400
2020/01/31 19:02:41.0	74.850	0.250	-0.170	-0.430
2020/01/31 19:02:41.1	74.880	0.250	-0.210	-0.440
2020/01/31 19:02:41.2	74.910	0.250	-0.240	-0.460
2020/01/31 19:02:41.3	74.940	0.250	-0.270	-0.470
2020/01/31 19:02:41.4	74.970	0.250	-0.300	-0.480
2020/01/31 19:02:41.5	74.990	0.250	-0.320	-0.480
2020/01/31 19:02:41.6	75.020	0.250	-0.340	-0.480
2020/01/31 19:02:41.7	75.040	0.250	-0.360	-0.480
2020/01/31 19:02:41.8	75.060	0.250	-0.380	-0.470
2020/01/31 19:02:41.9	75.080	0.240	-0.390	-0.460
2020/01/31 19:02:42.0	75.090	0.240	-0.390	-0.450
2020/01/31 19:02:42.1	75.100	0.230	-0.400	-0.430
2020/01/31 19:02:42.2	75.110	0.220	-0.390	-0.410
2020/01/31 19:02:42.3	75.110	0.210	-0.390	-0.380
2020/01/31 19:02:42.4	75.110	0.200	-0.370	-0.360
2020/01/31 19:02:42.5	75.110	0.190	-0.360	-0.330
2020/01/31 19:02:42.6	75.110	0.170	-0.340	-0.290
2020/01/31 19:02:42.7	75.100	0.160	-0.310	-0.260
2020/01/31 19:02:42.8	75.080	0.140	-0.290	-0.220
2020/01/31 19:02:42.9	75.070	0.120	-0.250	-0.180
2020/01/31 19:02:43.0	75.050	0.090	-0.220	-0.140
2020/01/31 19:02:43.1	75.030	0.070	-0.180	-0.100
2020/01/31 19:02:43.2	75.000	0.040	-0.150	-0.060
2020/01/31 19:02:43.3	74.980	0.020	-0.110	-0.020
2020/01/31 19:02:43.4	74.950	-0.010	-0.070	0.020
2020/01/31 19:02:43.5	74.920	-0.040	-0.030	0.060
2020/01/31 19:02:43.6	74.890	-0.070	0.020	0.110
2020/01/31 19:02:43.7	74.860	-0.100	0.050	0.150
2020/01/31 19:02:43.8	74.820	-0.130	0.090	0.190
2020/01/31 19:02:43.9	74.780	-0.160	0.120	0.240
2020/01/31 19:02:44.0	74.750	-0.190	0.160	0.280
2020/01/31 19:02:44.1	74.720	-0.220	0.190	0.320
2020/01/31 19:02:44.2	74.690	-0.240	0.210	0.370
2020/01/31 19:02:44.3	74.660	-0.270	0.230	0.410
2020/01/31 19:02:44.4	74.630	-0.290	0.250	0.450
2020/01/31 19:02:44.5	74.610	-0.320	0.260	0.490
2020/01/31 19:02:44.6	74.580	-0.340	0.270	0.520
2020/01/31 19:02:44.7	74.560	-0.350	0.270	0.560
2020/01/31 19:02:44.8	74.550	-0.370	0.260	0.590
2020/01/31 19:02:44.9	74.530	-0.380	0.250	0.630
2020/01/31 19:02:45.0	74.520	-0.390	0.230	0.660
2020/01/31 19:02:45.1	74.520	-0.400	0.210	0.690
2020/01/31 19:02:45.2	74.520	-0.400	0.180	0.710
2020/01/31 19:02:45.3	74.520	-0.400	0.150	0.740
2020/01/31 19:02:45.4	74.530	-0.400	0.110	0.760
2020/01/31 19:02:45.5	74.530	-0.390	0.070	0.780
2020/01/31 19:02:45.6	74.540	-0.390	0.030	0.800
2020/01/31 19:02:45.7	74.560	-0.380	-0.020	0.810
2020/01/31 19:02:45.8	74.580	-0.360	-0.070	0.820
2020/01/31 19:02:45.9	74.600	-0.350	-0.120	0.840
2020/01/31 19:02:46.0	74.620	-0.330	-0.170	0.850
2020/01/31 19:02:46.1	74.640	-0.320	-0.220	0.870
2020/01/31 19:02:46.2	74.660	-0.300	-0.270	0.880
2020/01/31 19:02:46.3	74.680	-0.280	-0.320	0.890
2020/01/31 19:02:46.4	74.690	-0.260	-0.360	0.910
2020/01/31 19:02:46.5	74.710	-0.240	-0.400	0.920
2020/01/31 19:02:46.6	74.730	-0.220	-0.440	0.930
2020/01/31 19:02:46.7	74.750	-0.200	-0.480	0.940
2020/01/31 19:02:46.8	74.760	-0.180	-0.510	0.960
2020/01/31 19:02:46.9	74.780	-0.160	-0.540	0.970
2020/01/31 19:02:47.0	74.790	-0.140	-0.560	0.990
2020/01/31 19:02:47.1	74.800	-0.120	-0.580	1.000
2020/01/31 19:02:47.2	74.810	-0.100	-0.590	1.010
2020/01/31 19:02:47.3	74.820	-0.090	-0.600	1.030
2020/01/31 19:02:47.4	74.830	-0.080	-0.600	1.040
2020/01/31 19:02:47.5	74.840	-0.070	-0.600	1.050
2020/01/31 19:02:47.6	74.850	-0.060	-0.590	1.050
2020/01/31 19:02:47.7	74.850	-0.050	-0.580	1.060
2020/01/31 19:02:47.8	74.850	-0.040	-0.570	1.060
2020/01/31 19:02:47.9	74.860	-0.040	-0.550	1.060
2020/01/31 19:02:48.0	74.860	-0.040	-0.530	1.050
2020/01/31 19:02:48.1	74.860	-0.040	-0.510	1.040
2020/01/31 19:02:48.2	74.870	-0.040	-0.490	1.030
2020/01/31 19:02:48.3	74.870	-0.040	-0.460	1.020
2020/01/31 19:02:48.4	74.870	-0.040	-0.440	1.000
2020/01/31 19:02:48.5	74.880	-0.050	-0.410	0.980
2020/01/31 19:02:48.6	74.880	-0.060	-0.380	0.950
2020/01/31 19:02:48.7	74.880	-0.070	-0.350	0.920
2020/01/31 19:02:48.8	74.890	-0.070	-0.320	0.890
2020/01/31 19:02:48.9	74.900	-0.080	-0.290	0.850
2020/01/31 19:02:49.0	74.900	-0.090	-0.260	0.810
2020/01/31 19:02:49.1	74.910	-0.100	-0.230	0.760
2020/01/31 19:02:49.2	74.910	-0.110	-0.200	0.710
2020/01/31 19:02:49.3	74.920	-0.120	-0.170	0.660
2020/01/31 19:02:49.4	74.920	-0.130	-0.150	0.610
2020/01/31 19:02:49.5	74.930	-0.140	-0.120	0.550
2020/01/31 19:02:49.6	74.940	-0.150	-0.100	0.500
2020/01/31 19:02:49.7	74.950	-0.160	-0.080	0.440
2020/01/31 19:02:49.8	74.950	-0.160	-0.060	0.370
2020/01/31 19:02:49.9	74.960	-0.160	-0.040	0.310
2020/01/31 19:02:50.0	74.970	-0.170	-0.020	0.250
2020/01/31 19:02:50.1	74.980	-0.170	-0.010	0.200
2020/01/31 19:02:50.2	74.990	-0.170	0.000	0.140
2020/01/31 19:02:50.3	75.000	-0.160	0.010	0.080
2020/01/31 19:02:50.4	75.000	-0.160	0.020	0.020
2020/01/31 19:02:50.5	75.010	-0.150	0.030	-0.030
2020/01/31 19:02:50.6	75.020	-0.140	0.030	-0.090
2020/01/31 19:02:50.7	75.020	-0.130	0.030	-0.140
2020/01/31 19:02:50.8	75.020	-0.120	0.030	-0.190
2020/01/31 19:02:50.9	75.020	-0.100	0.030	-0.230
2020/01/31 19:02:51.0	75.020	-0.090	0.030	-0.270
2020/01/31 19:02:51.1	75.020	-0.070	0.020	-0.310
2020/01/31 19:02:51.2	75.010	-0.050	0.020	-0.340
2020/01/31 19:02:51.3	75.010	-0.030	0.010	-0.370
2020/01/31 19:02:51.4	75.000	-0.010	-0.000	-0.400
2020/01/31 19:02:51.5	74.980	0.010	-0.010	-0.420
2020/01/31 19:02:51.6	74.970	0.030	-0.020	-0.440
2020/01/31 19:02:51.7	74.950	0.060	-0.030	-0.450
2020/01/31 19:02:51.8	74.930	0.080	-0.040	-0.460
2020/01/31 19:02:51.9	74.900	0.100	-0.050	-0.470
2020/01/31 19:02:52.0	74.880	0.120	-0.070	-0.470
2020/01/31 19:02:52.1	74.850	0.150	-0.080	-0.470
2020/01/31 19:02:52.2	74.820	0.170	-0.090	-0.460
2020/01/31 19:02:52.3	74.790	0.190	-0.100	-0.450
2020/01/31 19:02:52.4	74.760	0.210	-0.110	-0.440
2020/01/31 19:02:52.5	74.730	0.220	-0.120	-0.430
2020/01/31 19:02:52.6	74.690	0.240	-0.130	-0.420
2020/01/31 19:02:52.7	74.660	0.250	-0.140	-0.400
2020/01/31 19:02:52.8	74.620	0.270	-0.150	-0.380
2020/01/31 19:02:52.9	74.580	0.280	-0.160	-0.370
2020/01/31 19:02:53.0	74.550	0.290	-0.160	-0.350
2020/01/31 19:02:53.1	74.520	0.290	-0.170	-0.340
2020/01/31 19:02:53.2	74.480	0.300	-0.180	-0.320
2020/01/31 19:02:53.3	74.450	0.300	-0.190	-0.310
2020/01/31 19:02:53.4	74.430	0.310	-0.200	-0.290
2020/01/31 19:02:53.5	74.400	0.310	-0.210	-0.280
2020/01/31 19:02:53.6	74.380	0.300	-0.230	-0.280
2020/01/31 19:02:53.7	74.360	0.300	-0.240	-0.270
2020/01/31 19:02:53.8	74.350	0.300	-0.260	-0.270
2020/01/31 19:02:53.9	74.340	0.290	-0.280	-0.270
2020/01/31 19:02:54.0	74.330	0.290	-0.290	-0.280
2020/01/31 19:02:54.1	74.330	0.280	-0.320	-0.280
2020/01/31 19:02:54.2	74.330	0.270	-0.340	-0.290
2020/01/31 19:02:54.3	74.340	0.260	-0.360	-0.310
2020/01/31 19:02:54.4	74.350	0.250	-0.390	-0.330
2020/01/31 19:02:54.5	74.370	0.250	-0.410	-0.350
2020/01/31 19:02:54.6	74.390	0.240	-0.440	-0.370
2020/01/31 19:02:54.7	74.420	0.230	-0.470	-0.390
2020/01/31 19:02:54.8	74.450	0.220	-0.490	-0.420
2020/01/31 19:02:54.9	74.490	0.210	-0.520	-0.450
2020/01/31 19:02:55.0	74.530	0.210	-0.550	-0.480
2020/01/31 19:02:55.1	74.570	0.200	-0.580	-0.500
2020/01/31 19:02:55.2	74.610	0.190	-0.610	-0.530
2020/01/31 19:02:55.3	74.660	0.190	-0.630	-0.560
2020/01/31 19:02:55.4	74.710	0.180	-0.650	-0.580
2020/01/31 19:02:55.5	74.760	0.180	-0.670	-0.600
2020/01/31 19:02:55.6	74.810	0.180	-0.690	-0.620
2020/01/31 19:02:55.7	74.860	0.180	-0.700	-0.640
2020/01/31 19:02:55.8	74.910	0.170	-0.700	-0.650
2020/01/31 19:02:55.9	74.960	0.170	-0.710	-0.660
2020/01/31 19:02:56.0	75.010	0.170	-0.700	-0.660
2020/01/31 19:02:56.1	75.060	0.170	-0.690	-0.660
2020/01/31 19:02:56.2	75.110	0.170	-0.680	-0.650
2020/01/31 19:02:56.3	75.150	0.170	-0.660	-0.640
2020/01/31 19:02:56.4	75.190	0.170	-0.630	-0.620
2020/01/31 19:02:56.5	75.230	0.160	-0.600	-0.600
2020/01/31 19:02:56.6	75.270	0.160	-0.560	-0.570
2020/01/31 19:02:56.7	75.300	0.160	-0.520	-0.530
2020/01/31 19:02:56.8	75.320	0.150	-0.480	-0.490
2020/01/31 19:02:56.9	75.350	0.150	-0.420	-0.450
2020/01/31 19:02:57.0	75.370	0.140	-0.370	-0.400
2020/01/31 19:02:57.1	75.390	0.130	-0.310	-0.350
2020/01/31 19:02:57.2	75.400	0.120	-0.250	-0.290
2020/01/31 19:02:57.3	75.410	0.110	-0.180	-0.240
2020/01/31 19:02:57.4	75.420	0.090	-0.110	-0.170
2020/01/31 19:02:57.5	75.420	0.080	-0.050	-0.110
2020/01/31 19:02:57.6	75.420	0.060	0.020	-0.040
2020/01/31 19:02:57.7	75.420	0.040	0.090	0.030
2020/01/31 19:02:57.8	75.410	0.020	0.160	0.100
2020/01/31 19:02:57.9	75.400	-0.000	0.230	0.170
2020/01/31 19:02:58.0	75.390	-0.030	0.300	0.250
2020/01/31 19:02:58.1	75.370	-0.050	0.360	0.330
2020/01/31 19:02:58.2	75.350	-0.080	0.430	0.400
2020/01/31 19:02:58.3	75.330	-0.110	0.490	0.480
2020/01/31 19:02:58.4	75.300	-0.140	0.540	0.560
2020/01/31 19:02:58.5	75.280	-0.160	0.600	0.640
2020/01/31 19:02:58.6	75.250	-0.200	0.650	0.720
2020/01/31 19:02:58.7	75.220	-0.230	0.690	0.800
2020/01/31 19:02:58.8	75.190	-0.260	0.730	0.880
2020/01/31 19:02:58.9	75.160	-0.290	0.770	0.960
2020/01/31 19:02:59.0	75.130	-0.320	0.800	1.030
2020/01/31 19:02:59.1	75.090	-0.350	0.830	1.110
2020/01/31 19:02:59.2	75.060	-0.370	0.850	1.180
2020/01/31 19:02:59.3	75.030	-0.400	0.860	1.240
2020/01/31 19:02:59.4	75.000	-0.430	0.870	1.310
2020/01/31 19:02:59.5	74.970	-0.450	0.870	1.360
2020/01/31 19:02:59.6	74.940	-0.480	0.860	1.420
2020/01/31 19:02:59.7	74.910	-0.500	0.850	1.470
2020/01/31 19:02:59.8	74.890	-0.520	0.840	1.510
2020/01/31 19:02:59.9	74.860	-0.530	0.810	1.550
2020/01/31 19:03:00.0	74.830	-0.550	0.780	1.590
2020/01/31 19:03:00.1	74.810	-0.560	0.750	1.620
2020/01/31 19:03:00.2	74.790	-0.570	0.710	1.640
2020/01/31 19:03:00.3	74.770	-0.570	0.660	1.660
2020/01/31 19:03:00.4	74.760	-0.580	0.610	1.670
2020/01/31 19:03:00.5	74.740	-0.570	0.550	1.670
2020/01/31 19:03:00.6	74.730	-0.570	0.490	1.670
2020/01/31 19:03:00.7	74.720	-0.560	0.420	1.670
2020/01/31 19:03:00.8	74.720	-0.550	0.350	1.660
2020/01/31 19:03:00.9	74.720	-0.540	0.270	1.650
2020/01/31 19:03:01.0	74.710	-0.520	0.190	1.630
2020/01/31 19:03:01.1	74.710	-0.490	0.110	1.610
2020/01/31 19:03:01.2	74.720	-0.470	0.020	1.580
2020/01/31 19:03:01.3	74.730	-0.440	-0.060	1.550
2020/01/31 19:03:01.4	74.730	-0.400	-0.150	1.520
2020/01/31 19:03:01.5	74.750	-0.370	-0.240	1.480
2020/01/31 19:03:01.6	74.760	-0.330	-0.340	1.440
2020/01/31 19:03:01.7	74.780	-0.280	-0.430	1.390
2020/01/31 19:03:01.8	74.800	-0.240	-0.520	1.330
2020/01/31 19:03:01.9	74.820	-0.190	-0.620	1.280
2020/01/31 19:03:02.0	74.850	-0.140	-0.710	1.230
2020/01/31 19:03:02.1	74.880	-0.080	-0.800	1.170
2020/01/31 19:03:02.2	74.920	-0.030	-0.900	1.100
2020/01/31 19:03:02.3	74.950	0.030	-0.980	1.040
2020/01/31 19:03:02.4	74.990	0.080	-1.070	0.970
2020/01/31 19:03:02.5	75.030	0.140	-1.150	0.900
2020/01/31 19:03:02.6	75.070	0.200	-1.230	0.830
2020/01/31 19:03:02.7	75.120	0.250	-1.300	0.760
2020/01/31 19:03:02.8	75.170	0.310	-1.370	0.690
2020/01/31 19:03:02.9	75.210	0.360	-1.430	0.620
2020/01/31 19:03:03.0	75.260	0.420	-1.480	0.550
2020/01/31 19:03:03.1	75.300	0.470	-1.530	0.480
2020/01/31 19:03:03.2	75.350	0.510	-1.570	0.410
2020/01/31 19:03:03.3	75.390	0.560	-1.600	0.340
2020/01/31 19:03:03.4	75.430	0.600	-1.620	0.280
2020/01/31 19:03:03.5	75.470	0.630	-1.630	0.220
2020/01/31 19:03:03.6	75.500	0.670	-1.630	0.160
2020/01/31 19:03:03.7	75.540	0.700	-1.620	0.110
2020/01/31 19:03:03.8	75.560	0.720	-1.600	0.060
2020/01/31 19:03:03.9	75.590	0.740	-1.570	0.020
2020/01/31 19:03:04.0	75.610	0.750	-1.530	-0.020
2020/01/31 19:03:04.1	75.630	0.760	-1.480	-0.060
2020/01/31 19:03:04.2	75.640	0.760	-1.420	-0.090
2020/01/31 19:03:04.3	75.650	0.750	-1.350	-0.110
2020/01/31 19:03:04.4	75.650	0.740	-1.270	-0.130
2020/01/31 19:03:04.5	75.650	0.730	-1.190	-0.150
2020/01/31 19:03:04.6	75.650	0.710	-1.090	-0.160
2020/01/31 19:03:04.7	75.640	0.680	-0.990	-0.170
2020/01/31 19:03:04.8	75.630	0.650	-0.880	-0.180
2020/01/31 19:03:04.9	75.610	0.610	-0.770	-0.180
2020/01/31 19:03:05.0	75.590	0.570	-0.650	-0.180
2020/01/31 19:03:05.1	75.570	0.520	-0.530	-0.170
2020/01/31 19:03:05.2	75.540	0.470	-0.400	-0.160
2020/01/31 19:03:05.3	75.510	0.410	-0.270	-0.150
2020/01/31 19:03:05.4	75.470	0.350	-0.150	-0.140
2020/01/31 19:03:05.5	75.440	0.290	-0.020	-0.120
2020/01/31 19:03:05.6	75.400	0.220	0.100	-0.110
2020/01/31 19:03:05.7	75.360	0.150	0.220	-0.090
2020/01/31 19:03:05.8	75.310	0.080	0.340	-0.080
2020/01/31 19:03:05.9	75.270	0.010	0.460	-0.060
2020/01/31 19:03:06.0	75.230	-0.060	0.560	-0.050
2020/01/31 19:03:06.1	75.190	-0.130	0.670	-0.030
2020/01/31 19:03:06.2	75.140	-0.200	0.760	-0.020
2020/01/31 19:03:06.3	75.100	-0.270	0.850	-0.010
2020/01/31 19:03:06.4	75.060	-0.340	0.930	0.000
2020/01/31 19:03:06.5	75.020	-0.410	1.000	0.010
2020/01/31 19:03:06.6	74.980	-0.480	1.070	0.020
2020/01/31 19:03:06.7	74.950	-0.540	1.130	0.020
2020/01/31 19:03:06.8	74.910	-0.600	1.170	0.020
2020/01/31 19:03:06.9	74.880	-0.650	1.210	0.020
2020/01/31 19:03:07.0	74.850	-0.710	1.240	0.020
2020/01/31 19:03:07.1	74.820	-0.750	1.260	0.010
2020/01/31 19:03:07.2	74.790	-0.790	1.270	0.000
2020/01/31 19:03:07.3	74.770	-0.830	1.270	-0.010
2020/01/31 19:03:07.4	74.740	-0.860	1.260	-0.020
2020/01/31 19:03:07.5	74.720	-0.890	1.250	-0.040
2020/01/31 19:03:07.6	74.710	-0.910	1.220	-0.050
2020/01/31 19:03:07.7	74.690	-0.920	1.190	-0.070
2020/01/31 19:03:07.8	74.690	-0.930	1.150	-0.100
2020/01/31 19:03:07.9	74.680	-0.930	1.100	-0.120
2020/01/31 19:03:08.0	74.670	-0.920	1.040	-0.150
2020/01/31 19:03:08.1	74.670	-0.910	0.970	-0.180
2020/01/31 19:03:08.2	74.680	-0.900	0.900	-0.210
2020/01/31 19:03:08.3	74.680	-0.870	0.820	-0.250
2020/01/31 19:03:08.4	74.690	-0.840	0.740	-0.290
2020/01/31 19:03:08.5	74.710	-0.810	0.650	-0.320
2020/01/31 19:03:08.6	74.720	-0.770	0.550	-0.360
2020/01/31 19:03:08.7	74.750	-0.720	0.460	-0.400
2020/01/31 19:03:08.8	74.770	-0.670	0.350	-0.450
2020/01/31 19:03:08.9	74.800	-0.620	0.250	-0.490
2020/01/31 19:03:09.0	74.830	-0.560	0.140	-0.530
2020/01/31 19:03:09.1	74.870	-0.500	0.030	-0.580
2020/01/31 19:03:09.2	74.900	-0.430	-0.080	-0.620
2020/01/31 19:03:09.3	74.940	-0.360	-0.190	-0.660
2020/01/31 19:03:09.4	74.990	-0.290	-0.300	-0.710
2020/01/31 19:03:09.5	75.030	-0.210	-0.400	-0.750
2020/01/31 19:03:09.6	75.080	-0.140	-0.500	-0.790
2020/01/31 19:03:09.7	75.130	-0.060	-0.610	-0.830
2020/01/31 19:03:09.8	75.180	0.020	-0.700	-0.860
2020/01/31 19:03:09.9	75.220	0.090	-0.790	-0.890
2020/01/31 19:03:10.0	75.270	0.170	-0.880	-0.920
2020/01/31 19:03:10.1	75.320	0.240	-0.960	-0.940
2020/01/31 19:03:10.2	75.370	0.320	-1.040	-0.960
2020/01/31 19:03:10.3	75.410	0.390	-1.100	-0.970
2020/01/31 19:03:10.4	75.450	0.460	-1.160	-0.980
2020/01/31 19:03:10.5	75.490	0.520	-1.210	-0.980
2020/01/31 19:03:10.6	75.530	0.580	-1.260	-0.970
2020/01/31 19:03:10.7	75.560	0.640	-1.290	-0.960
2020/01/31 19:03:10.8	75.590	0.700	-1.330	-0.950
2020/01/31 19:03:10.9	75.620	0.740	-1.340	-0.920
2020/01/31 19:03:11.0	75.640	0.790	-1.350	-0.900
2020/01/31 19:03:11.1	75.660	0.820	-1.360	-0.870
2020/01/31 19:03:11.2	75.670	0.860	-1.350	-0.830
2020/01/31 19:03:11.3	75.680	0.880	-1.330	-0.790
2020/01/31 19:03:11.4	75.690	0.900	-1.310	-0.740
2020/01/31 19:03:11.5	75.690	0.920	-1.280	-0.690
2020/01/31 19:03:11.6	75.690	0.920	-1.240	-0.640
2020/01/31 19:03:11.7	75.680	0.930	-1.200	-0.580
2020/01/31 19:03:11.8	75.660	0.920	-1.150	-0.520
2020/01/31 19:03:11.9	75.650	0.910	-1.090	-0.460
2020/01/31 19:03:12.0	75.630	0.900	-1.030	-0.400
2020/01/31 19:03:12.1	75.610	0.880	-0.960	-0.340
2020/01/31 19:03:12.2	75.580	0.850	-0.890	-0.270
2020/01/31 19:03:12.3	75.550	0.820	-0.820	-0.200
2020/01/31 19:03:12.4	75.520	0.790	-0.750	-0.130
2020/01/31 19:03:12.5	75.490	0.750	-0.670	-0.060
2020/01/31 19:03:12.6	75.460	0.710	-0.590	0.000
2020/01/31 19:03:12.7	75.420	0.670	-0.510	0.070
2020/01/31 19:03:12.8	75.380	0.620	-0.440	0.140
2020/01/31 19:03:12.9	75.350	0.580	-0.360	0.210
2020/01/31 19:03:13.0	75.310	0.530	-0.280	0.280
2020/01/31 19:03:13.1	75.270	0.480	-0.210	0.340
2020/01/31 19:03:13.2	75.230	0.430	-0.140	0.410
2020/01/31 19:03:13.3	75.190	0.380	-0.070	0.470
2020/01/31 19:03:13.4	75.150	0.330	-0.000	0.520
2020/01/31 19:03:13.5	75.120	0.280	0.060	0.580
2020/01/31 19:03:13.6	75.080	0.230	0.120	0.630
2020/01/31 19:03:13.7	75.050	0.190	0.180	0.680
2020/01/31 19:03:13.8	75.030	0.140	0.240	0.730
2020/01/31 19:03:13.9	75.000	0.100	0.280	0.770
2020/01/31 19:03:14.0	74.970	0.060	0.330	0.810
2020/01/31 19:03:14.1	74.950	0.020	0.370	0.850
2020/01/31 19:03:14.2	74.930	-0.010	0.400	0.880
2020/01/31 19:03:14.3	74.920	-0.040	0.430	0.910
2020/01/31 19:03:14.4	74.910	-0.070	0.460	0.940
2020/01/31 19:03:14.5	74.900	-0.100	0.480	0.960
2020/01/31 19:03:14.6	74.890	-0.120	0.490	0.980
2020/01/31 19:03:14.7	74.880	-0.140	0.510	1.000
2020/01/31 19:03:14.8	74.880	-0.160	0.510	1.020
2020/01/31 19:03:14.9	74.880	-0.180	0.520	1.040
2020/01/31 19:03:15.0	74.890	-0.190	0.520	1.050
2020/01/31 19:03:15.1	74.890	-0.200	0.510	1.070
2020/01/31 19:03:15.2	74.900	-0.210	0.510	1.080
2020/01/31 19:03:15.3	74.910	-0.220	0.500	1.090
2020/01/31 19:03:15.4	74.920	-0.230	0.490	1.100
2020/01/31 19:03:15.5	74.930	-0.240	0.470	1.100
2020/01/31 19:03:15.6	74.940	-0.240	0.460	1.110
2020/01/31 19:03:15.7	74.960	-0.250	0.440	1.110
2020/01/31 19:03:15.8	74.970	-0.250	0.420	1.110
2020/01/31 19:03:15.9	74.990	-0.260	0.400	1.120
2020/01/31 19:03:16.0	75.010	-0.260	0.370	1.120
2020/01/31 19:03:16.1	75.020	-0.270	0.350	1.120
2020/01/31 19:03:16.2	75.040	-0.270	0.320	1.120
2020/01/31 19:03:16.3	75.060	-0.270	0.300	1.120
2020/01/31 19:03:16.4	75.070	-0.280	0.270	1.120
2020/01/31 19:03:16.5	75.090	-0.280	0.240	1.120
2020/01/31 19:03:16.6	75.110	-0.290	0.220	1.110
2020/01/31 19:03:16.7	75.120	-0.290	0.190	1.110
2020/01/31 19:03:16.8	75.130	-0.300	0.160	1.110
2020/01/31 19:03:16.9	75.150	-0.310	0.130	1.100
2020/01/31 19:03:17.0	75.160	-0.310	0.100	1.090
2020/01/31 19:03:17.1	75.180	-0.320	0.070	1.080
2020/01/31 19:03:17.2	75.190	-0.320	0.040	1.070
2020/01/31 19:03:17.3	75.200	-0.330	0.000	1.060
2020/01/31 19:03:17.4	75.220	-0.340	-0.030	1.050
2020/01/31 19:03:17.5	75.230	-0.340	-0.060	1.030
2020/01/31 19:03:17.6	75.240	-0.340	-0.100	1.020
2020/01/31 19:03:17.7	75.250	-0.350	-0.130	1.000
2020/01/31 19:03:17.8	75.260	-0.350	-0.170	0.980
2020/01/31 19:03:17.9	75.260	-0.350	-0.210	0.960
2020/01/31 19:03:18.0	75.270	-0.350	-0.240	0.940
2020/01/31 19:03:18.1	75.280	-0.350	-0.280	0.910
2020/01/31 19:03:18.2	75.280	-0.350	-0.320	0.890
2020/01/31 19:03:18.3	75.280	-0.350	-0.350	0.870
2020/01/31 19:03:18.4	75.290	-0.350	-0.390	0.850
2020/01/31 19:03:18.5	75.290	-0.340	-0.420	0.830
2020/01/31 19:03:18.6	75.290	-0.340	-0.460	0.810
2020/01/31 19:03:18.7	75.280	-0.330	-0.490	0.790
2020/01/31 19:03:18.8	75.280	-0.320	-0.520	0.770
2020/01/31 19:03:18.9	75.280	-0.310	-0.550	0.750
2020/01/31 19:03:19.0	75.270	-0.290	-0.580	0.730
2020/01/31 19:03:19.1	75.270	-0.280	-0.600	0.720
2020/01/31 19:03:19.2	75.260	-0.270	-0.630	0.700
2020/01/31 19:03:19.3	75.250	-0.250	-0.650	0.680
2020/01/31 19:03:19.4	75.240	-0.230	-0.660	0.670
2020/01/31 19:03:19.5	75.230	-0.210	-0.680	0.650
2020/01/31 19:03:19.6	75.230	-0.190	-0.690	0.640
2020/01/31 19:03:19.7	75.220	-0.170	-0.690	0.620
2020/01/31 19:03:19.8	75.210	-0.150	-0.700	0.610
2020/01/31 19:03:19.9	75.200	-0.130	-0.700	0.600
2020/01/31 19:03:20.0	75.190	-0.110	-0.700	0.580
2020/01/31 19:03:20.1	75.180	-0.080	-0.690	0.570
2020/01/31 19:03:20.2	75.170	-0.060	-0.680	0.550
2020/01/31 19:03:20.3	75.160	-0.040	-0.660	0.540
2020/01/31 19:03:20.4	75.150	-0.010	-0.650	0.520
2020/01/31 19:03:20.5	75.150	0.010	-0.630	0.510
2020/01/31 19:03:20.6	75.140	0.030	-0.600	0.490
2020/01/31 19:03:20.7	75.130	0.050	-0.580	0.470
2020/01/31 19:03:20.8	75.130	0.070	-0.550	0.450
2020/01/31 19:03:20.9	75.120	0.100	-0.510	0.430
2020/01/31 19:03:21.0	75.110	0.110	-0.480	0.410
2020/01/31 19:03:21.1	75.100	0.130	-0.450	0.390
2020/01/31 19:03:21.2	75.090	0.150	-0.410	0.370
2020/01/31 19:03:21.3	75.080	0.170	-0.370	0.340
2020/01/31 19:03:21.4	75.070	0.180	-0.330	0.320
2020/01/31 19:03:21.5	75.060	0.190	-0.290	0.300
2020/01/31 19:03:21.6	75.050	0.200	-0.250	0.280
2020/01/31 19:03:21.7	75.040	0.210	-0.200	0.250
2020/01/31 19:03:21.8	75.020	0.220	-0.160	0.230
2020/01/31 19:03:21.9	75.010	0.220	-0.120	0.210
2020/01/31 19:03:22.0	74.990	0.220	-0.070	0.180
2020/01/31 19:03:22.1	74.980	0.220	-0.030	0.160
2020/01/31 19:03:22.2	74.970	0.220	0.010	0.130
2020/01/31 19:03:22.3	74.950	0.220	0.050	0.110
2020/01/31 19:03:22.4	74.940	0.210	0.090	0.090
2020/01/31 19:03:22.5	74.920	0.210	0.120	0.060
2020/01/31 19:03:22.6	74.910	0.200	0.160	0.040
2020/01/31 19:03:22.7	74.890	0.190	0.190	0.010
2020/01/31 19:03:22.8	74.880	0.170	0.220	-0.010
2020/01/31 19:03:22.9	74.870	0.160	0.240	-0.040
2020/01/31 19:03:23.0	74.860	0.150	0.260	-0.070
2020/01/31 19:03:23.1	74.850	0.130	0.280	-0.090
2020/01/31 19:03:23.2	74.840	0.120	0.290	-0.120
2020/01/31 19:03:23.3	74.830	0.100	0.300	-0.150
2020/01/31 19:03:23.4	74.830	0.090	0.300	-0.180
2020/01/31 19:03:23.5	74.820	0.070	0.300	-0.210
2020/01/31 19:03:23.6	74.820	0.060	0.290	-0.240
2020/01/31 19:03:23.7	74.820	0.040	0.280	-0.280
2020/01/31 19:03:23.8	74.820	0.030	0.270	-0.310
2020/01/31 19:03:23.9	74.830	0.020	0.250	-0.350
2020/01/31 19:03:24.0	74.840	0.010	0.230	-0.380
2020/01/31 19:03:24.1	74.850	0.000	0.200	-0.420
2020/01/31 19:03:24.2	74.860	-0.000	0.170	-0.460
2020/01/31 19:03:24.3	74.880	-0.010	0.130	-0.490
2020/01/31 19:03:24.4	74.900	-0.010	0.090	-0.530
2020/01/31 19:03:24.5	74.920	-0.010	0.050	-0.570
2020/01/31 19:03:24.6	74.940	-0.000	0.010	-0.600
2020/01/31 19:03:24.7	74.970	0.000	-0.040	-0.630
2020/01/31 19:03:24.8	74.990	0.010	-0.090	-0.660
2020/01/31 19:03:24.9	75.010	0.020	-0.130	-0.690
2020/01/31 19:03:25.0	75.040	0.040	-0.180	-0.720
2020/01/31 19:03:25.1	75.060	0.050	-0.220	-0.740
2020/01/31 19:03:25.2	75.080	0.070	-0.270	-0.750
2020/01/31 19:03:25.3	75.100	0.090	-0.310	-0.760
2020/01/31 19:03:25.4	75.120	0.110	-0.350	-0.770
2020/01/31 19:03:25.5	75.140	0.130	-0.390	-0.780
2020/01/31 19:03:25.6	75.150	0.150	-0.420	-0.770
2020/01/31 19:03:25.7	75.170	0.170	-0.450	-0.770
2020/01/31 19:03:25.8	75.180	0.190	-0.480	-0.760
2020/01/31 19:03:25.9	75.180	0.210	-0.500	-0.740
2020/01/31 19:03:26.0	75.190	0.230	-0.520	-0.720
2020/01/31 19:03:26.1	75.190	0.250	-0.540	-0.690
2020/01/31 19:03:26.2	75.180	0.270	-0.550	-0.660
2020/01/31 19:03:26.3	75.180	0.290	-0.550	-0.620
2020/01/31 19:03:26.4	75.170	0.300	-0.560	-0.580
2020/01/31 19:03:26.5	75.150	0.320	-0.560	-0.540
2020/01/31 19:03:26.6	75.140	0.330	-0.550	-0.490
2020/01/31 19:03:26.7	75.120	0.340	-0.550	-0.440
2020/01/31 19:03:26.8	75.090	0.340	-0.540	-0.380
2020/01/31 19:03:26.9	75.070	0.350	-0.530	-0.320
2020/01/31 19:03:27.0	75.040	0.350	-0.510	-0.270
2020/01/31 19:03:27.1	75.010	0.350	-0.490	-0.200
2020/01/31 19:03:27.2	74.990	0.350	-0.480	-0.140
2020/01/31 19:03:27.3	74.960	0.340	-0.460	-0.080
2020/01/31 19:03:27.4	74.930	0.340	-0.440	-0.010
2020/01/31 19:03:27.5	74.900	0.330	-0.410	0.050
2020/01/31 19:03:27.6	74.870	0.310	-0.390	0.110
2020/01/31 19:03:27.7	74.840	0.300	-0.370	0.180
2020/01/31 19:03:27.8	74.810	0.280	-0.350	0.240
2020/01/31 19:03:27.9	74.790	0.260	-0.330	0.300
2020/01/31 19:03:28.0	74.760	0.250	-0.310	0.350
2020/01/31 19:03:28.1	74.740	0.220	-0.300	0.410
2020/01/31 19:03:28.2	74.720	0.200	-0.280	0.460
2020/01/31 19:03:28.3	74.700	0.180	-0.260	0.520
2020/01/31 19:03:28.4	74.680	0.160	-0.250	0.560
2020/01/31 19:03:28.5	74.660	0.130	-0.240	0.610
2020/01/31 19:03:28.6	74.650	0.110	-0.230	0.650
2020/01/31 19:03:28.7	74.640	0.090	-0.220	0.690
2020/01/31 19:03:28.8	74.620	0.070	-0.210	0.730
2020/01/31 19:03:28.9	74.620	0.050	-0.200	0.760
2020/01/31 19:03:29.0	74.610	0.020	-0.200	0.790
2020/01/31 19:03:29.1	74.600	0.000	-0.190	0.820
2020/01/31 19:03:29.2	74.600	-0.010	-0.190	0.840
2020/01/31 19:03:29.3	74.600	-0.030	-0.190	0.860
2020/01/31 19:03:29.4	74.600	-0.040	-0.190	0.880
2020/01/31 19:03:29.5	74.600	-0.060	-0.190	0.890
2020/01/31 19:03:29.6	74.600	-0.070	-0.190	0.910
2020/01/31 19:03:29.7	74.600	-0.080	-0.190	0.920
2020/01/31 19:03:29.8	74.610	-0.090	-0.200	0.920
2020/01/31 19:03:29.9	74.620	-0.090	-0.200	0.930
2020/01/31 19:03:30.0	74.620	-0.090	-0.200	0.930
2020/01/31 19:03:30.1	74.630	-0.100	-0.200	0.930
2020/01/31 19:03:30.2	74.640	-0.090	-0.200	0.940
2020/01/31 19:03:30.3	74.650	-0.090	-0.200	0.940
2020/01/31 19:03:30.4	74.660	-0.090	-0.200	0.940
2020/01/31 19:03:30.5	74.670	-0.080	-0.190	0.930
2020/01/31 19:03:30.6	74.680	-0.070	-0.190	0.930
2020/01/31 19:03:30.7	74.690	-0.070	-0.180	0.930
2020/01/31 19:03:30.8	74.710	-0.060	-0.170	0.930
2020/01/31 19:03:30.9	74.720	-0.050	-0.160	0.920
2020/01/31 19:03:31.0	74.730	-0.040	-0.150	0.920
2020/01/31 19:03:31.1	74.740	-0.020	-0.140	0.910
2020/01/31 19:03:31.2	74.750	-0.010	-0.120	0.910
2020/01/31 19:03:31.3	74.760	-0.000	-0.100	0.900
2020/01/31 19:03:31.4	74.770	0.010	-0.080	0.900
2020/01/31 19:03:31.5	74.780	0.020	-0.060	0.890
2020/01/31 19:03:31.6	74.780	0.020	-0.040	0.880
2020/01/31 19:03:31.7	74.790	0.030	-0.010	0.880
2020/01/31 19:03:31.8	74.790	0.040	0.010	0.870
2020/01/31 19:03:31.9	74.800	0.040	0.040	0.860
2020/01/31 19:03:32.0	74.800	0.040	0.060	0.860
2020/01/31 19:03:32.1	74.800	0.040	0.090	0.850
2020/01/31 19:03:32.2	74.800	0.040	0.110	0.840
2020/01/31 19:03:32.3	74.800	0.040	0.140	0.830
2020/01/31 19:03:32.4	74.790	0.030	0.160	0.820
2020/01/31 19:03:32.5	74.790	0.020	0.180	0.810
2020/01/31 19:03:32.6	74.780	0.010	0.200	0.800
2020/01/31 19:03:32.7	74.780	-0.000	0.220	0.790
2020/01/31 19:03:32.8	74.770	-0.020	0.240	0.780
2020/01/31 19:03:32.9	74.770	-0.040	0.250	0.760
2020/01/31 19:03:33.0	74.760	-0.060	0.260	0.750
2020/01/31 19:03:33.1	74.750	-0.080	0.270	0.740
2020/01/31 19:03:33.2	74.740	-0.100	0.270	0.730
2020/01/31 19:03:33.3	74.730	-0.120	0.280	0.710
2020/01/31 19:03:33.4	74.720	-0.150	0.270	0.700
2020/01/31 19:03:33.5	74.720	-0.170	0.270	0.680
2020/01/31 19:03:33.6	74.710	-0.200	0.260	0.660
2020/01/31 19:03:33.7	74.700	-0.220	0.250	0.640
2020/01/31 19:03:33.8	74.700	-0.250	0.240	0.620
2020/01/31 19:03:33.9	74.690	-0.270	0.220	0.600
2020/01/31 19:03:34.0	74.690	-0.300	0.200	0.580
2020/01/31 19:03:34.1	74.690	-0.320	0.180	0.550
2020/01/31 19:03:34.2	74.700	-0.340	0.150	0.520
2020/01/31 19:03:34.3	74.700	-0.360	0.130	0.490
2020/01/31 19:03:34.4	74.710	-0.380	0.090	0.460
2020/01/31 19:03:34.5	74.720	-0.390	0.060	0.420
2020/01/31 19:03:34.6	74.730	-0.400	0.030	0.390
2020/01/31 19:03:34.7	74.740	-0.410	-0.010	0.350
2020/01/31 19:03:34.8	74.760	-0.420	-0.050	0.300
2020/01/31 19:03:34.9	74.780	-0.420	-0.090	0.260
2020/01/31 19:03:35.0	74.800	-0.420	-0.130	0.220
2020/01/31 19:03:35.1	74.820	-0.410	-0.170	0.180
2020/01/31 19:03:35.2	74.840	-0.410	-0.210	0.140
2020/01/31 19:03:35.3	74.870	-0.390	-0.250	0.090
2020/01/31 19:03:35.4	74.900	-0.380	-0.290	0.050
2020/01/31 19:03:35.5	74.920	-0.360	-0.320	0.010
2020/01/31 19:03:35.6	74.950	-0.340	-0.360	-0.030
2020/01/31 19:03:35.7	74.980	-0.320	-0.390	-0.060
2020/01/31 19:03:35.8	75.010	-0.290	-0.430	-0.100
2020/01/31 19:03:35.9	75.030	-0.260	-0.450	-0.130
2020/01/31 19:03:36.0	75.060	-0.230	-0.480	-0.170
2020/01/31 19:03:36.1	75.090	-0.200	-0.500	-0.200
2020/01/31 19:03:36.2	75.110	-0.170	-0.520	-0.220
2020/01/31 19:03:36.3	75.130	-0.140	-0.530	-0.250
2020/01/31 19:03:36.4	75.150	-0.110	-0.540	-0.270
2020/01/31 19:03:36.5	75.170	-0.070	-0.550	-0.290
2020/01/31 19:03:36.6	75.190	-0.040	-0.550	-0.310
2020/01/31 19:03:36.7	75.200	-0.010	-0.550	-0.330
2020/01/31 19:03:36.8	75.200	0.020	-0.540	-0.340
2020/01/31 19:03:36.9	75.210	0.050	-0.540	-0.350
2020/01/31 19:03:37.0	75.210	0.070	-0.520	-0.350
2020/01/31 19:03:37.1	75.210	0.100	-0.510	-0.350
2020/01/31 19:03:37.2	75.200	0.120	-0.490	-0.350
2020/01/31 19:03:37.3	75.200	0.130	-0.470	-0.350
2020/01/31 19:03:37.4	75.180	0.150	-0.450	-0.340
2020/01/31 19:03:37.5	75.170	0.160	-0.420	-0.330
2020/01/31 19:03:37.6	75.150	0.170	-0.400	-0.320
2020/01/31 19:03:37.7	75.130	0.180	-0.370	-0.300
2020/01/31 19:03:37.8	75.100	0.180	-0.340	-0.290
2020/01/31 19:03:37.9	75.070	0.180	-0.310	-0.270
2020/01/31 19:03:38.0	75.040	0.180	-0.280	-0.240
2020/01/31 19:03:38.1	75.010	0.170	-0.250	-0.220
2020/01/31 19:03:38.2	74.980	0.160	-0.220	-0.190
2020/01/31 19:03:38.3	74.940	0.150	-0.190	-0.160
2020/01/31 19:03:38.4	74.910	0.140	-0.170	-0.130
2020/01/31 19:03:38.5	74.870	0.120	-0.140	-0.100
2020/01/31 19:03:38.6	74.840	0.110	-0.120	-0.070
2020/01/31 19:03:38.7	74.800	0.090	-0.100	-0.040
2020/01/31 19:03:38.8	74.760	0.070	-0.080	-0.010
2020/01/31 19:03:38.9	74.730	0.050	-0.070	0.020
2020/01/31 19:03:39.0	74.700	0.030	-0.060	0.050
2020/01/31 19:03:39.1	74.670	0.020	-0.050	0.080
2020/01/31 19:03:39.2	74.640	-0.000	-0.050	0.100
2020/01/31 19:03:39.3	74.620	-0.020	-0.050	0.130
2020/01/31 19:03:39.4	74.600	-0.040	-0.060	0.140
2020/01/31 19:03:39.5	74.580	-0.050	-0.070	0.160
2020/01/31 19:03:39.6	74.570	-0.060	-0.080	0.180
2020/01/31 19:03:39.7	74.550	-0.080	-0.100	0.190
2020/01/31 19:03:39.8	74.540	-0.080	-0.120	0.190
2020/01/31 19:03:39.9	74.540	-0.090	-0.150	0.200
2020/01/31 19:03:40.0	74.530	-0.100	-0.180	0.200
2020/01/31 19:03:40.1	74.530	-0.100	-0.210	0.190
2020/01/31 19:03:40.2	74.540	-0.100	-0.250	0.190
2020/01/31 19:03:40.3	74.540	-0.100	-0.290	0.180
2020/01/31 19:03:40.4	74.550	-0.090	-0.320	0.170
2020/01/31 19:03:40.5	74.560	-0.090	-0.360	0.150
2020/01/31 19:03:40.6	74.580	-0.080	-0.400	0.130
2020/01/31 19:03:40.7	74.590	-0.070	-0.440	0.110
2020/01/31 19:03:40.8	74.610	-0.050	-0.480	0.090
2020/01/31 19:03:40.9	74.630	-0.040	-0.520	0.070
2020/01/31 19:03:41.0	74.650	-0.020	-0.550	0.040
2020/01/31 19:03:41.1	74.670	-0.000	-0.580	0.020
2020/01/31 19:03:41.2	74.700	0.020	-0.610	-0.000
2020/01/31 19:03:41.3	74.720	0.040	-0.640	-0.030
2020/01/31 19:03:41.4	74.740	0.060	-0.660	-0.050
2020/01/31 19:03:41.5	74.770	0.080	-0.680	-0.070
2020/01/31 19:03:41.6	74.790	0.110	-0.690	-0.090
2020/01/31 19:03:41.7	74.820	0.130	-0.700	-0.100
2020/01/31 19:03:41.8	74.840	0.150	-0.700	-0.120
2020/01/31 19:03:41.9	74.860	0.180	-0.700	-0.140
2020/01/31 19:03:42.0	74.880	0.200	-0.690	-0.150
2020/01/31 19:03:42.1	74.900	0.230	-0.680	-0.150
2020/01/31 19:03:42.2	74.920	0.250	-0.660	-0.160
2020/01/31 19:03:42.3	74.940	0.270	-0.640	-0.160
2020/01/31 19:03:42.4	74.960	0.290	-0.610	-0.160
2020/01/31 19:03:42.5	74.980	0.310	-0.580	-0.160
2020/01/31 19:03:42.6	74.990	0.320	-0.540	-0.150
2020/01/31 19:03:42.7	75.010	0.340	-0.500	-0.150
2020/01/31 19:03:42.8	75.020	0.350	-0.450	-0.130
2020/01/31 19:03:42.9	75.030	0.360	-0.400	-0.120
2020/01/31 19:03:43.0	75.040	0.370	-0.350	-0.110
2020/01/31 19:03:43.1	75.040	0.370	-0.290	-0.090
2020/01/31 19:03:43.2	75.050	0.380	-0.240	-0.070
2020/01/31 19:03:43.3	75.050	0.380	-0.180	-0.050
2020/01/31 19:03:43.4	75.050	0.380	-0.120	-0.030
2020/01/31 19:03:43.5	75.050	0.370	-0.050	-0.000
2020/01/31 19:03:43.6	75.050	0.370	0.010	0.020
2020/01/31 19:03:43.7	75.040	0.360	0.070	0.050
2020/01/31 19:03:43.8	75.030	0.350	0.120	0.070
2020/01/31 19:03:43.9	75.030	0.340	0.180	0.100
2020/01/31 19:03:44.0	75.020	0.330	0.230	0.130
2020/01/31 19:03:44.1	75.020	0.310	0.290	0.150
2020/01/31 19:03:44.2	75.010	0.290	0.330	0.180
2020/01/31 19:03:44.3	75.000	0.270	0.380	0.210
2020/01/31 19:03:44.4	74.990	0.260	0.410	0.240
2020/01/31 19:03:44.5	74.990	0.230	0.450	0.270
2020/01/31 19:03:44.6	74.980	0.210	0.480	0.300
2020/01/31 19:03:44.7	74.980	0.190	0.500	0.330
2020/01/31 19:03:44.8	74.970	0.170	0.520	0.360
2020/01/31 19:03:44.9	74.970	0.150	0.540	0.390
2020/01/31 19:03:45.0	74.960	0.120	0.540	0.420
2020/01/31 19:03:45.1	74.960	0.100	0.550	0.450
2020/01/31 19:03:45.2	74.960	0.080	0.550	0.480
2020/01/31 19:03:45.3	74.960	0.060	0.540	0.510
2020/01/31 19:03:45.4	74.950	0.040	0.530	0.540
2020/01/31 19:03:45.5	74.950	0.020	0.510	0.570
2020/01/31 19:03:45.6	74.950	-0.000	0.490	0.600
2020/01/31 19:03:45.7	74.950	-0.020	0.470	0.630
2020/01/31 19:03:45.8	74.950	-0.040	0.440	0.660
2020/01/31 19:03:45.9	74.950	-0.060	0.410	0.690
2020/01/31 19:03:46.0	74.950	-0.070	0.370	0.720
2020/01/31 19:03:46.1	74.950	-0.090	0.340	0.750
2020/01/31 19:03:46.2	74.950	-0.100	0.300	0.780
2020/01/31 19:03:46.3	74.940	-0.120	0.250	0.810
2020/01/31 19:03:46.4	74.940	-0.130	0.210	0.840
2020/01/31 19:03:46.5	74.940	-0.140	0.160	0.860
2020/01/31 19:03:46.6	74.930	-0.140	0.110	0.890
2020/01/31 19:03:46.7	74.930	-0.150	0.060	0.910
2020/01/31 19:03:46.8	74.930	-0.160	0.010	0.930
2020/01/31 19:03:46.9	74.920	-0.160	-0.040	0.950
2020/01/31 19:03:47.0	74.920	-0.160	-0.090	0.960
2020/01/31 19:03:47.1	74.920	-0.160	-0.150	0.980
2020/01/31 19:03:47.2	74.920	-0.160	-0.200	0.980
2020/01/31 19:03:47.3	74.920	-0.160	-0.260	0.990
2020/01/31 19:03:47.4	74.920	-0.160	-0.310	0.990
2020/01/31 19:03:47.5	74.920	-0.150	-0.370	0.990
2020/01/31 19:03:47.6	74.930	-0.150	-0.420	0.980
2020/01/31 19:03:47.7	74.940	-0.140	-0.470	0.970
2020/01/31 19:03:47.8	74.950	-0.140	-0.520	0.950
2020/01/31 19:03:47.9	74.960	-0.130	-0.570	0.930
2020/01/31 19:03:48.0	74.980	-0.120	-0.620	0.910
2020/01/31 19:03:48.1	74.990	-0.110	-0.660	0.880
2020/01/31 19:03:48.2	75.010	-0.100	-0.710	0.850
2020/01/31 19:03:48.3	75.030	-0.090	-0.750	0.810
2020/01/31 19:03:48.4	75.050	-0.080	-0.780	0.780
2020/01/31 19:03:48.5	75.070	-0.070	-0.810	0.730
2020/01/31 19:03:48.6	75.100	-0.060	-0.840	0.690
2020/01/31 19:03:48.7	75.120	-0.050	-0.870	0.640
2020/01/31 19:03:48.8	75.160	-0.040	-0.890	0.600
2020/01/31 19:03:48.9	75.190	-0.030	-0.900	0.550
2020/01/31 19:03:49.0	75.220	-0.020	-0.910	0.500
2020/01/31 19:03:49.1	75.250	-0.010	-0.910	0.450
2020/01/31 19:03:49.2	75.280	-0.000	-0.910	0.400
2020/01/31 19:03:49.3	75.310	0.000	-0.910	0.350
2020/01/31 19:03:49.4	75.340	0.010	-0.890	0.310
2020/01/31 19:03:49.5	75.370	0.020	-0.870	0.260
2020/01/31 19:03:49.6	75.400	0.020	-0.850	0.220
2020/01/31 19:03:49.7	75.430	0.030	-0.820	0.180
2020/01/31 19:03:49.8	75.450	0.030	-0.770	0.130
2020/01/31 19:03:49.9	75.480	0.030	-0.730	0.100
2020/01/31 19:03:50.0	75.500	0.030	-0.680	0.070
2020/01/31 19:03:50.1	75.520	0.030	-0.630	0.040
2020/01/31 19:03:50.2	75.540	0.030	-0.570	0.020
2020/01/31 19:03:50.3	75.550	0.030	-0.510	0.000
2020/01/31 19:03:50.4	75.560	0.020	-0.440	-0.010
2020/01/31 19:03:50.5	75.570	0.020	-0.370	-0.020
2020/01/31 19:03:50.6	75.580	0.010	-0.300	-0.030
2020/01/31 19:03:50.7	75.580	0.000	-0.220	-0.030
2020/01/31 19:03:50.8	75.580	-0.010	-0.150	-0.030
2020/01/31 19:03:50.9	75.580	-0.010	-0.070	-0.020
2020/01/31 19:03:51.0	75.570	-0.020	0.010	-0.010
2020/01/31 19:03:51.1	75.560	-0.030	0.090	0.000
2020/01/31 19:03:51.2	75.550	-0.040	0.170	0.020
2020/01/31 19:03:51.3	75.530	-0.060	0.240	0.050
2020/01/31 19:03:51.4	75.520	-0.070	0.310	0.070
2020/01/31 19:03:51.5	75.500	-0.080	0.380	0.100
2020/01/31 19:03:51.6	75.480	-0.090	0.450	0.130
2020/01/31 19:03:51.7	75.450	-0.100	0.500	0.160
2020/01/31 19:03:51.8	75.420	-0.110	0.560	0.190
2020/01/31 19:03:51.9	75.390	-0.130	0.600	0.220
2020/01/31 19:03:52.0	75.370	-0.140	0.640	0.250
2020/01/31 19:03:52.1	75.340	-0.150	0.670	0.280
2020/01/31 19:03:52.2	75.310	-0.160	0.690	0.310
2020/01/31 19:03:52.3	75.280	-0.170	0.700	0.340
2020/01/31 19:03:52.4	75.260	-0.180	0.710	0.360
2020/01/31 19:03:52.5	75.230	-0.190	0.700	0.380
2020/01/31 19:03:52.6	75.200	-0.190	0.690	0.400
2020/01/31 19:03:52.7	75.180	-0.200	0.670	0.420
2020/01/31 19:03:52.8	75.160	-0.210	0.630	0.430
2020/01/31 19:03:52.9	75.140	-0.210	0.600	0.440
2020/01/31 19:03:53.0	75.120	-0.210	0.550	0.450
2020/01/31 19:03:53.1	75.100	-0.220	0.500	0.450
2020/01/31 19:03:53.2	75.080	-0.220	0.440	0.450
2020/01/31 19:03:53.3	75.070	-0.220	0.370	0.450
2020/01/31 19:03:53.4	75.060	-0.210	0.300	0.440
2020/01/31 19:03:53.5	75.050	-0.210	0.230	0.430
2020/01/31 19:03:53.6	75.050	-0.210	0.150	0.420
2020/01/31 19:03:53.7	75.050	-0.200	0.070	0.400
2020/01/31 19:03:53.8	75.040	-0.190	-0.010	0.380
2020/01/31 19:03:53.9	75.050	-0.180	-0.100	0.350
2020/01/31 19:03:54.0	75.050	-0.180	-0.180	0.330
2020/01/31 19:03:54.1	75.060	-0.160	-0.260	0.300
2020/01/31 19:03:54.2	75.070	-0.150	-0.350	0.280
2020/01/31 19:03:54.3	75.080	-0.140	-0.430	0.250
2020/01/31 19:03:54.4	75.100	-0.130	-0.500	0.220
2020/01/31 19:03:54.5	75.110	-0.120	-0.570	0.190
2020/01/31 19:03:54.6	75.120	-0.100	-0.640	0.160
2020/01/31 19:03:54.7	75.140	-0.090	-0.700	0.130
2020/01/31 19:03:54.8	75.150	-0.070	-0.760	0.100
2020/01/31 19:03:54.9	75.170	-0.060	-0.810	0.070
2020/01/31 19:03:55.0	75.180	-0.050	-0.850	0.040
2020/01/31 19:03:55.1	75.200	-0.030	-0.880	0.010
2020/01/31 19:03:55.2	75.220	-0.020	-0.910	-0.010
2020/01/31 19:03:55.3	75.230	-0.010	-0.920	-0.030
2020/01/31 19:03:55.4	75.250	-0.000	-0.930	-0.060
2020/01/31 19:03:55.5	75.260	0.010	-0.940	-0.080
2020/01/31 19:03:55.6	75.280	0.010	-0.930	-0.100
2020/01/31 19:03:55.7	75.290	0.020	-0.920	-0.110
2020/01/31 19:03:55.8	75.300	0.030	-0.890	-0.130
2020/01/31 19:03:55.9	75.310	0.030	-0.870	-0.140
2020/01/31 19:03:56.0	75.330	0.030	-0.830	-0.160
2020/01/31 19:03:56.1	75.340	0.030	-0.790	-0.170
2020/01/31 19:03:56.2	75.350	0.020	-0.750	-0.180
2020/01/31 19:03:56.3	75.370	0.020	-0.700	-0.180
2020/01/31 19:03:56.4	75.380	0.010	-0.650	-0.190
2020/01/31 19:03:56.5	75.390	0.010	-0.600	-0.190
2020/01/31 19:03:56.6	75.410	-0.000	-0.540	-0.190
2020/01/31 19:03:56.7	75.420	-0.010	-0.490	-0.190
2020/01/31 19:03:56.8	75.430	-0.020	-0.430	-0.190
2020/01/31 19:03:56.9	75.450	-0.030	-0.370	-0.180
2020/01/31 19:03:57.0	75.460	-0.040	-0.320	-0.180
2020/01/31 19:03:57.1	75.480	-0.050	-0.270	-0.170
2020/01/31 19:03:57.2	75.490	-0.060	-0.210	-0.160
2020/01/31 19:03:57.3	75.510	-0.070	-0.170	-0.150
2020/01/31 19:03:57.4	75.520	-0.080	-0.120	-0.140
2020/01/31 19:03:57.5	75.540	-0.090	-0.080	-0.130
2020/01/31 19:03:57.6	75.550	-0.100	-0.050	-0.120
2020/01/31 19:03:57.7	75.570	-0.100	-0.010	-0.110
2020/01/31 19:03:57.8	75.590	-0.100	0.020	-0.090
2020/01/31 19:03:57.9	75.600	-0.110	0.040	-0.080
2020/01/31 19:03:58.0	75.620	-0.110	0.060	-0.070
2020/01/31 19:03:58.1	75.630	-0.100	0.070	-0.060
2020/01/31 19:03:58.2	75.650	-0.100	0.080	-0.050
2020/01/31 19:03:58.3	75.660	-0.090	0.090	-0.040
2020/01/31 19:03:58.4	75.680	-0.080	0.090	-0.030
2020/01/31 19:03:58.5	75.690	-0.070	0.090	-0.020
2020/01/31 19:03:58.6	75.700	-0.050	0.080	-0.010
2020/01/31 19:03:58.7	75.720	-0.030	0.070	0.000
2020/01/31 19:03:58.8	75.730	-0.010	0.060	0.010
2020/01/31 19:03:58.9	75.740	0.010	0.040	0.020
2020/01/31 19:03:59.0	75.740	0.040	0.030	0.040
2020/01/31 19:03:59.1	75.750	0.060	0.010	0.050
2020/01/31 19:03:59.2	75.760	0.090	-0.010	0.060
2020/01/31 19:03:59.3	75.760	0.120	-0.030	0.070
2020/01/31 19:03:59.4	75.770	0.150	-0.050	0.090
2020/01/31 19:03:59.5	75.770	0.180	-0.080	0.100
2020/01/31 19:03:59.6	75.770	0.210	-0.100	0.120
2020/01/31 19:03:59.7	75.760	0.240	-0.120	0.130
2020/01/31 19:03:59.8	75.750	0.270	-0.140	0.150
2020/01/31 19:03:59.9	75.740	0.300	-0.160	0.170
2020/01/31 19:04:00.0	75.730	0.330	-0.180	0.200
2020/01/31 19:04:00.1	75.720	0.360	-0.200	0.220
2020/01/31 19:04:00.2	75.710	0.380	-0.210	0.250
2020/01/31 19:04:00.3	75.690	0.400	-0.220	0.280
2020/01/31 19:04:00.4	75.680	0.420	-0.230	0.310
2020/01/31 19:04:00.5	75.660	0.440	-0.240	0.340
2020/01/31 19:04:00.6	75.640	0.450	-0.250	0.370
2020/01/31 19:04:00.7	75.620	0.460	-0.250	0.410
2020/01/31 19:04:00.8	75.600	0.470	-0.260	0.440
2020/01/31 19:04:00.9	75.570	0.470	-0.260	0.480
2020/01/31 19:04:01.0	75.550	0.470	-0.250	0.520
2020/01/31 19:04:01.1	75.520	0.470	-0.250	0.550
2020/01/31 19:04:01.2	75.500	0.470	-0.240	0.590
2020/01/31 19:04:01.3	75.470	0.460	-0.240	0.620
2020/01/31 19:04:01.4	75.450	0.440	-0.230	0.650
2020/01/31 19:04:01.5	75.430	0.430	-0.220	0.680
2020/01/31 19:04:01.6	75.410	0.410	-0.210	0.710
2020/01/31 19:04:01.7	75.390	0.390	-0.200	0.740
2020/01/31 19:04:01.8	75.370	0.360	-0.190	0.760
2020/01/31 19:04:01.9	75.360	0.330	-0.180	0.780
2020/01/31 19:04:02.0	75.340	0.310	-0.170	0.790
2020/01/31 19:04:02.1	75.330	0.280	-0.160	0.810
2020/01/31 19:04:02.2	75.320	0.240	-0.160	0.810
2020/01/31 19:04:02.3	75.310	0.210	-0.150	0.820
2020/01/31 19:04:02.4	75.310	0.180	-0.140	0.820
2020/01/31 19:04:02.5	75.310	0.140	-0.140	0.810
2020/01/31 19:04:02.6	75.310	0.110	-0.130	0.810
2020/01/31 19:04:02.7	75.310	0.070	-0.130	0.790
2020/01/31 19:04:02.8	75.310	0.040	-0.130	0.780
2020/01/31 19:04:02.9	75.320	0.010	-0.130	0.760
2020/01/31 19:04:03.0	75.330	-0.030	-0.130	0.740
2020/01/31 19:04:03.1	75.340	-0.060	-0.130	0.720
2020/01/31 19:04:03.2	75.350	-0.090	-0.130	0.690
2020/01/31 19:04:03.3	75.360	-0.120	-0.130	0.660
2020/01/31 19:04:03.4	75.380	-0.150	-0.130	0.640
2020/01/31 19:04:03.5	75.390	-0.180	-0.130	0.610
2020/01/31 19:04:03.6	75.410	-0.200	-0.130	0.570
2020/01/31 19:04:03.7	75.430	-0.220	-0.130	0.540
2020/01/31 19:04:03.8	75.440	-0.240	-0.130	0.510
2020/01/31 19:04:03.9	75.460	-0.260	-0.120	0.480
2020/01/31 19:04:04.0	75.490	-0.280	-0.120	0.440
2020/01/31 19:04:04.1	75.510	-0.290	-0.120	0.410
2020/01/31 19:04:04.2	75.530	-0.300	-0.110	0.390
2020/01/31 19:04:04.3	75.550	-0.320	-0.100	0.360
2020/01/31 19:04:04.4	75.580	-0.320	-0.090	0.330
2020/01/31 19:04:04.5	75.600	-0.330	-0.080	0.300
2020/01/31 19:04:04.6	75.630	-0.330	-0.070	0.280
2020/01/31 19:04:04.7	75.650	-0.340	-0.060	0.260
2020/01/31 19:04:04.8	75.670	-0.340	-0.050	0.230
2020/01/31 19:04:04.9	75.700	-0.330	-0.030	0.210
2020/01/31 19:04:05.0	75.720	-0.330	-0.010	0.200
2020/01/31 19:04:05.1	75.750	-0.330	0.000	0.180
2020/01/31 19:04:05.2	75.770	-0.320	0.020	0.170
2020/01/31 19:04:05.3	75.800	-0.310	0.040	0.150
2020/01/31 19:04:05.4	75.820	-0.310	0.050	0.140
2020/01/31 19:04:05.5	75.840	-0.300	0.070	0.140
2020/01/31 19:04:05.6	75.860	-0.290	0.080	0.130
2020/01/31 19:04:05.7	75.880	-0.280	0.100	0.130
2020/01/31 19:04:05.8	75.900	-0.270	0.110	0.130
2020/01/31 19:04:05.9	75.920	-0.250	0.120	0.130
2020/01/31 19:04:06.0	75.930	-0.240	0.130	0.130
2020/01/31 19:04:06.1	75.940	-0.230	0.140	0.140
2020/01/31 19:04:06.2	75.950	-0.220	0.150	0.150
2020/01/31 19:04:06.3	75.960	-0.200	0.150	0.160
2020/01/31 19:04:06.4	75.970	-0.190	0.150	0.170
2020/01/31 19:04:06.5	75.970	-0.180	0.150	0.190
2020/01/31 19:04:06.6	75.980	-0.160	0.150	0.210
2020/01/31 19:04:06.7	75.980	-0.150	0.140	0.230
2020/01/31 19:04:06.8	75.970	-0.140	0.130	0.250
2020/01/31 19:04:06.9	75.970	-0.130	0.120	0.270
2020/01/31 19:04:07.0	75.970	-0.110	0.110	0.290
2020/01/31 19:04:07.1	75.960	-0.100	0.090	0.310
2020/01/31 19:04:07.2	75.960	-0.090	0.070	0.330
2020/01/31 19:04:07.3	75.950	-0.080	0.040	0.350
2020/01/31 19:04:07.4	75.940	-0.060	0.020	0.370
2020/01/31 19:04:07.5	75.930	-0.050	-0.020	0.380
2020/01/31 19:04:07.6	75.920	-0.040	-0.050	0.400
2020/01/31 19:04:07.7	75.910	-0.030	-0.090	0.410
2020/01/31 19:04:07.8	75.900	-0.020	-0.130	0.420
2020/01/31 19:04:07.9	75.890	-0.010	-0.180	0.420
2020/01/31 19:04:08.0	75.890	0.000	-0.220	0.430
2020/01/31 19:04:08.1	75.880	0.020	-0.270	0.430
2020/01/31 19:04:08.2	75.880	0.030	-0.320	0.430
2020/01/31 19:04:08.3	75.870	0.040	-0.370	0.420
2020/01/31 19:04:08.4	75.870	0.050	-0.420	0.420
2020/01/31 19:04:08.5	75.870	0.060	-0.470	0.410
2020/01/31 19:04:08.6	75.870	0.070	-0.520	0.400
2020/01/31 19:04:08.7	75.870	0.080	-0.580	0.380
2020/01/31 19:04:08.8	75.870	0.090	-0.620	0.370
2020/01/31 19:04:08.9	75.880	0.100	-0.670	0.350
2020/01/31 19:04:09.0	75.880	0.100	-0.720	0.330
2020/01/31 19:04:09.1	75.890	0.110	-0.760	0.320
2020/01/31 19:04:09.2	75.890	0.120	-0.790	0.300
2020/01/31 19:04:09.3	75.900	0.120	-0.830	0.280
2020/01/31 19:04:09.4	75.900	0.130	-0.860	0.260
2020/01/31 19:04:09.5	75.910	0.130	-0.880	0.240
2020/01/31 19:04:09.6	75.920	0.130	-0.900	0.230
2020/01/31 19:04:09.7	75.920	0.130	-0.910	0.210
2020/01/31 19:04:09.8	75.930	0.130	-0.910	0.190
2020/01/31 19:04:09.9	75.930	0.120	-0.910	0.170
2020/01/31 19:04:10.0	75.940	0.120	-0.900	0.160
2020/01/31 19:04:10.1	75.940	0.110	-0.890	0.150
2020/01/31 19:04:10.2	75.950	0.100	-0.870	0.130
2020/01/31 19:04:10.3	75.950	0.090	-0.850	0.120
2020/01/31 19:04:10.4	75.950	0.080	-0.820	0.110
2020/01/31 19:04:10.5	75.960	0.070	-0.780	0.100
2020/01/31 19:04:10.6	75.960	0.050	-0.740	0.100
2020/01/31 19:04:10.7	75.950	0.040	-0.690	0.090
2020/01/31 19:04:10.8	75.950	0.020	-0.650	0.090
2020/01/31 19:04:10.9	75.950	0.000	-0.590	0.080
2020/01/31 19:04:11.0	75.950	-0.020	-0.540	0.080
2020/01/31 19:04:11.1	75.940	-0.040	-0.480	0.080
2020/01/31 19:04:11.2	75.930	-0.060	-0.420	0.080
2020/01/31 19:04:11.3	75.930	-0.080	-0.350	0.080
2020/01/31 19:04:11.4	75.920	-0.090	-0.290	0.080
2020/01/31 19:04:11.5	75.910	-0.110	-0.230	0.080
2020/01/31 19:04:11.6	75.900	-0.130	-0.170	0.080
2020/01/31 19:04:11.7	75.890	-0.150	-0.110	0.090
2020/01/31 19:04:11.8	75.890	-0.160	-0.040	0.090
2020/01/31 19:04:11.9	75.880	-0.180	0.010	0.090
2020/01/31 19:04:12.0	75.870	-0.190	0.070	0.090
2020/01/31 19:04:12.1	75.870	-0.200	0.120	0.090
2020/01/31 19:04:12.2	75.860	-0.210	0.170	0.090
2020/01/31 19:04:12.3	75.850	-0.220	0.210	0.100
2020/01/31 19:04:12.4	75.850	-0.230	0.250	0.100
2020/01/31 19:04:12.5	75.850	-0.230	0.290	0.100
2020/01/31 19:04:12.6	75.840	-0.230	0.320	0.110
2020/01/31 19:04:12.7	75.840	-0.230	0.350	0.110
2020/01/31 19:04:12.8	75.840	-0.230	0.370	0.110
2020/01/31 19:04:12.9	75.830	-0.230	0.390	0.120
2020/01/31 19:04:13.0	75.830	-0.220	0.400	0.130
2020/01/31 19:04:13.1	75.830	-0.210	0.410	0.140
2020/01/31 19:04:13.2	75.830	-0.200	0.420	0.150
2020/01/31 19:04:13.3	75.830	-0.190	0.420	0.160
2020/01/31 19:04:13.4	75.830	-0.180	0.420	0.170
2020/01/31 19:04:13.5	75.830	-0.160	0.410	0.180
2020/01/31 19:04:13.6	75.830	-0.150	0.400	0.200
2020/01/31 19:04:13.7	75.830	-0.130	0.390	0.220
2020/01/31 19:04:13.8	75.830	-0.120	0.370	0.230
2020/01/31 19:04:13.9	75.840	-0.100	0.350	0.250
2020/01/31 19:04:14.0	75.840	-0.090	0.330	0.270
2020/01/31 19:04:14.1	75.840	-0.070	0.310	0.290
2020/01/31 19:04:14.2	75.850	-0.060	0.280	0.310
2020/01/31 19:04:14.3	75.850	-0.050	0.250	0.320
2020/01/31 19:04:14.4	75.860	-0.040	0.230	0.340
2020/01/31 19:04:14.5	75.870	-0.030	0.200	0.360
2020/01/31 19:04:14.6	75.870	-0.020	0.170	0.380
2020/01/31 19:04:14.7	75.880	-0.010	0.150	0.390
2020/01/31 19:04:14.8	75.890	-0.010	0.120	0.410
2020/01/31 19:04:14.9	75.900	-0.010	0.100	0.420
2020/01/31 19:04:15.0	75.910	-0.010	0.080	0.430
2020/01/31 19:04:15.1	75.920	-0.010	0.050	0.440
2020/01/31 19:04:15.2	75.930	-0.010	0.030	0.440
2020/01/31 19:04:15.3	75.940	-0.010	0.010	0.450
2020/01/31 19:04:15.4	75.950	-0.020	-0.000	0.450
2020/01/31 19:04:15.5	75.960	-0.030	-0.020	0.450
2020/01/31 19:04:15.6	75.980	-0.030	-0.030	0.450
2020/01/31 19:04:15.7	75.990	-0.040	-0.040	0.440
2020/01/31 19:04:15.8	76.000	-0.050	-0.060	0.440
2020/01/31 19:04:15.9	76.010	-0.060	-0.060	0.420
2020/01/31 19:04:16.0	76.020	-0.080	-0.070	0.410
2020/01/31 19:04:16.1	76.030	-0.090	-0.070	0.400
2020/01/31 19:04:16.2	76.040	-0.100	-0.080	0.380
2020/01/31 19:04:16.3	76.040	-0.110	-0.080	0.360
2020/01/31 19:04:16.4	76.050	-0.120	-0.080	0.340
2020/01/31 19:04:16.5	76.050	-0.130	-0.080	0.320
2020/01/31 19:04:16.6	76.050	-0.140	-0.080	0.300
2020/01/31 19:04:16.7	76.060	-0.140	-0.080	0.270
2020/01/31 19:04:16.8	76.060	-0.150	-0.080	0.250
2020/01/31 19:04:16.9	76.060	-0.150	-0.080	0.220
2020/01/31 19:04:17.0	76.060	-0.150	-0.080	0.200
2020/01/31 19:04:17.1	76.060	-0.150	-0.090	0.170
2020/01/31 19:04:17.2	76.050	-0.140	-0.090	0.150
2020/01/31 19:04:17.3	76.050	-0.130	-0.100	0.130
2020/01/31 19:04:17.4	76.050	-0.120	-0.110	0.100
2020/01/31 19:04:17.5	76.040	-0.110	-0.120	0.080
2020/01/31 19:04:17.6	76.040	-0.100	-0.140	0.060
2020/01/31 19:04:17.7	76.030	-0.080	-0.160	0.040
2020/01/31 19:04:17.8	76.020	-0.060	-0.180	0.020
2020/01/31 19:04:17.9	76.010	-0.030	-0.210	-0.000
2020/01/31 19:04:18.0	76.010	-0.010	-0.240	-0.020
2020/01/31 19:04:18.1	76.000	0.020	-0.270	-0.040
2020/01/31 19:04:18.2	76.000	0.050	-0.310	-0.060
2020/01/31 19:04:18.3	75.990	0.080	-0.350	-0.070
2020/01/31 19:04:18.4	75.990	0.120	-0.400	-0.090
2020/01/31 19:04:18.5	75.990	0.160	-0.450	-0.110
2020/01/31 19:04:18.6	75.990	0.190	-0.500	-0.130
2020/01/31 19:04:18.7	75.980	0.230	-0.550	-0.140
2020/01/31 19:04:18.8	75.990	0.270	-0.610	-0.160
2020/01/31 19:04:18.9	75.990	0.310	-0.670	-0.180
2020/01/31 19:04:19.0	75.990	0.350	-0.730	-0.200
2020/01/31 19:04:19.1	76.000	0.390	-0.790	-0.210
2020/01/31 19:04:19.2	76.000	0.430	-0.850	-0.230
2020/01/31 19:04:19.3	76.000	0.470	-0.910	-0.240
2020/01/31 19:04:19.4	76.010	0.510	-0.970	-0.260
2020/01/31 19:04:19.5	76.020	0.550	-1.030	-0.270
2020/01/31 19:04:19.6	76.020	0.580	-1.090	-0.280
2020/01/31 19:04:19.7	76.030	0.620	-1.140	-0.290
2020/01/31 19:04:19.8	76.040	0.650	-1.190	-0.300
2020/01/31 19:04:19.9	76.050	0.670	-1.240	-0.310
2020/01/31 19:04:20.0	76.060	0.700	-1.280	-0.320
2020/01/31 19:04:20.1	76.070	0.720	-1.310	-0.320
2020/01/31 19:04:20.2	76.080	0.740	-1.340	-0.320
2020/01/31 19:04:20.3	76.100	0.750	-1.360	-0.320
2020/01/31 19:04:20.4	76.110	0.760	-1.370	-0.320
2020/01/31 19:04:20.5	76.120	0.760	-1.380	-0.310
2020/01/31 19:04:20.6	76.130	0.760	-1.370	-0.300
2020/01/31 19:04:20.7	76.150	0.760	-1.360	-0.290
2020/01/31 19:04:20.8	76.150	0.750	-1.330	-0.280
2020/01/31 19:04:20.9	76.170	0.740	-1.300	-0.260
2020/01/31 19:04:21.0	76.180	0.720	-1.260	-0.240
2020/01/31 19:04:21.1	76.190	0.700	-1.200	-0.210
2020/01/31 19:04:21.2	76.200	0.670	-1.140	-0.180
2020/01/31 19:04:21.3	76.210	0.640	-1.070	-0.140
2020/01/31 19:04:21.4	76.210	0.600	-0.980	-0.100
2020/01/31 19:04:21.5	76.220	0.560	-0.890	-0.060
2020/01/31 19:04:21.6	76.220	0.510	-0.780	-0.020
2020/01/31 19:04:21.7	76.230	0.470	-0.670	0.030
2020/01/31 19:04:21.8	76.220	0.410	-0.550	0.090
2020/01/31 19:04:21.9	76.220	0.360	-0.430	0.140
2020/01/31 19:04:22.0	76.220	0.300	-0.290	0.200
2020/01/31 19:04:22.1	76.210	0.230	-0.150	0.260
2020/01/31 19:04:22.2	76.200	0.170	-0.010	0.330
2020/01/31 19:04:22.3	76.190	0.100	0.140	0.390
2020/01/31 19:04:22.4	76.180	0.030	0.290	0.460
2020/01/31 19:04:22.5	76.170	-0.040	0.450	0.530
2020/01/31 19:04:22.6	76.150	-0.110	0.600	0.600
2020/01/31 19:04:22.7	76.130	-0.180	0.750	0.670
2020/01/31 19:04:22.8	76.110	-0.260	0.900	0.740
2020/01/31 19:04:22.9	76.090	-0.330	1.040	0.800
2020/01/31 19:04:23.0	76.070	-0.400	1.180	0.870
2020/01/31 19:04:23.1	76.050	-0.480	1.310	0.940
2020/01/31 19:04:23.2	76.020	-0.550	1.430	1.000
2020/01/31 19:04:23.3	75.990	-0.620	1.540	1.060
2020/01/31 19:04:23.4	75.970	-0.690	1.640	1.120
2020/01/31 19:04:23.5	75.940	-0.750	1.730	1.170
2020/01/31 19:04:23.6	75.920	-0.810	1.810	1.230
2020/01/31 19:04:23.7	75.890	-0.870	1.870	1.270
2020/01/31 19:04:23.8	75.870	-0.930	1.920	1.310
2020/01/31 19:04:23.9	75.840	-0.980	1.950	1.350
2020/01/31 19:04:24.0	75.820	-1.020	1.970	1.390
2020/01/31 19:04:24.1	75.800	-1.070	1.980	1.420
2020/01/31 19:04:24.2	75.780	-1.100	1.970	1.440
2020/01/31 19:04:24.3	75.760	-1.130	1.940	1.460
2020/01/31 19:04:24.4	75.750	-1.160	1.890	1.470
2020/01/31 19:04:24.5	75.730	-1.180	1.840	1.470
2020/01/31 19:04:24.6	75.720	-1.190	1.760	1.480
2020/01/31 19:04:24.7	75.720	-1.200	1.670	1.470
2020/01/31 19:04:24.8	75.710	-1.200	1.570	1.460
2020/01/31 19:04:24.9	75.710	-1.200	1.450	1.440
2020/01/31 19:04:25.0	75.710	-1.190	1.330	1.420
2020/01/31 19:04:25.1	75.720	-1.170	1.190	1.390
2020/01/31 19:04:25.2	75.730	-1.140	1.040	1.360
2020/01/31 19:04:25.3	75.740	-1.110	0.880	1.320
2020/01/31 19:04:25.4	75.760	-1.070	0.710	1.280
2020/01/31 19:04:25.5	75.770	-1.030	0.540	1.230
2020/01/31 19:04:25.6	75.800	-0.980	0.360	1.180
2020/01/31 19:04:25.7	75.820	-0.930	0.170	1.130
2020/01/31 19:04:25.8	75.850	-0.870	-0.020	1.070
2020/01/31 19:04:25.9	75.880	-0.810	-0.210	1.010
2020/01/31 19:04:26.0	75.910	-0.740	-0.400	0.950
2020/01/31 19:04:26.1	75.940	-0.660	-0.580	0.890
2020/01/31 19:04:26.2	75.970	-0.590	-0.770	0.820
2020/01/31 19:04:26.3	76.010	-0.510	-0.950	0.760
2020/01/31 19:04:26.4	76.040	-0.420	-1.120	0.690
2020/01/31 19:04:26.5	76.080	-0.340	-1.290	0.630
2020/01/31 19:04:26.6	76.110	-0.250	-1.450	0.570
2020/01/31 19:04:26.7	76.150	-0.160	-1.600	0.500
2020/01/31 19:04:26.8	76.180	-0.070	-1.740	0.440
2020/01/31 19:04:26.9	76.210	0.020	-1.870	0.380
2020/01/31 19:04:27.0	76.250	0.110	-1.980	0.320
2020/01/31 19:04:27.1	76.280	0.200	-2.080	0.270
2020/01/31 19:04:27.2	76.310	0.280	-2.170	0.210
2020/01/31 19:04:27.3	76.340	0.370	-2.240	0.160
2020/01/31 19:04:27.4	76.370	0.450	-2.300	0.110
2020/01/31 19:04:27.5	76.400	0.530	-2.340	0.060
2020/01/31 19:04:27.6	76.430	0.600	-2.360	0.010
2020/01/31 19:04:27.7	76.450	0.670	-2.370	-0.030
2020/01/31 19:04:27.8	76.480	0.730	-2.360	-0.070
2020/01/31 19:04:27.9	76.490	0.790	-2.340	-0.110
2020/01/31 19:04:28.0	76.510	0.850	-2.300	-0.140
2020/01/31 19:04:28.1	76.520	0.890	-2.250	-0.160
2020/01/31 19:04:28.2	76.530	0.930	-2.180	-0.190
2020/01/31 19:04:28.3	76.540	0.970	-2.100	-0.210
2020/01/31 19:04:28.4	76.540	0.990	-2.010	-0.220
2020/01/31 19:04:28.5	76.530	1.010	-1.900	-0.230
2020/01/31 19:04:28.6	76.520	1.020	-1.780	-0.230
2020/01/31 19:04:28.7	76.510	1.030	-1.650	-0.230
2020/01/31 19:04:28.8	76.500	1.030	-1.510	-0.220
2020/01/31 19:04:28.9	76.480	1.020	-1.370	-0.210
2020/01/31 19:04:29.0	76.450	1.000	-1.210	-0.190
2020/01/31 19:04:29.1	76.420	0.980	-1.050	-0.170
2020/01/31 19:04:29.2	76.390	0.950	-0.890	-0.140
2020/01/31 19:04:29.3	76.350	0.920	-0.730	-0.110
2020/01/31 19:04:29.4	76.310	0.880	-0.560	-0.080
2020/01/31 19:04:29.5	76.270	0.840	-0.400	-0.040
2020/01/31 19:04:29.6	76.230	0.790	-0.230	0.010
2020/01/31 19:04:29.7	76.180	0.740	-0.070	0.050
2020/01/31 19:04:29.8	76.120	0.680	0.090	0.100
2020/01/31 19:04:29.9	76.070	0.620	0.240	0.150
2020/01/31 19:04:30.0	76.020	0.560	0.390	0.200
2020/01/31 19:04:30.1	75.970	0.500	0.520	0.260
2020/01/31 19:04:30.2	75.910	0.430	0.650	0.310
2020/01/31 19:04:30.3	75.860	0.370	0.770	0.360
2020/01/31 19:04:30.4	75.810	0.310	0.880	0.410
2020/01/31 19:04:30.5	75.760	0.240	0.980	0.460
2020/01/31 19:04:30.6	75.710	0.180	1.070	0.500
2020/01/31 19:04:30.7	75.660	0.120	1.140	0.550
2020/01/31 19:04:30.8	75.620	0.060	1.210	0.580
2020/01/31 19:04:30.9	75.580	0.010	1.250	0.610
2020/01/31 19:04:31.0	75.540	-0.040	1.290	0.640
2020/01/31 19:04:31.1	75.500	-0.090	1.320	0.660
2020/01/31 19:04:31.2	75.470	-0.130	1.330	0.680
2020/01/31 19:04:31.3	75.440	-0.170	1.320	0.690
2020/01/31 19:04:31.4	75.420	-0.210	1.310	0.690
2020/01/31 19:04:31.5	75.400	-0.240	1.280	0.690
2020/01/31 19:04:31.6	75.390	-0.260	1.250	0.680
2020/01/31 19:04:31.7	75.370	-0.280	1.200	0.670
2020/01/31 19:04:31.8	75.370	-0.300	1.140	0.640
2020/01/31 19:04:31.9	75.370	-0.300	1.070	0.620
2020/01/31 19:04:32.0	75.370	-0.310	1.000	0.580
2020/01/31 19:04:32.1	75.380	-0.310	0.920	0.550
2020/01/31 19:04:32.2	75.390	-0.310	0.830	0.510
2020/01/31 19:04:32.3	75.410	-0.300	0.740	0.460
2020/01/31 19:04:32.4	75.430	-0.280	0.640	0.410
2020/01/31 19:04:32.5	75.450	-0.270	0.540	0.360
2020/01/31 19:04:32.6	75.480	-0.250	0.440	0.310
2020/01/31 19:04:32.7	75.510	-0.230	0.330	0.250
2020/01/31 19:04:32.8	75.540	-0.200	0.220	0.200
2020/01/31 19:04:32.9	75.580	-0.170	0.120	0.140
2020/01/31 19:04:33.0	75.620	-0.150	0.020	0.080
2020/01/31 19:04:33.1	75.650	-0.120	-0.080	0.030
2020/01/31 19:04:33.2	75.690	-0.080	-0.170	-0.030
2020/01/31 19:04:33.3	75.730	-0.050	-0.260	-0.080
2020/01/31 19:04:33.4	75.770	-0.020	-0.340	-0.130
2020/01/31 19:04:33.5	75.800	0.010	-0.420	-0.180
2020/01/31 19:04:33.6	75.840	0.040	-0.500	-0.220
2020/01/31 19:04:33.7	75.870	0.070	-0.570	-0.260
2020/01/31 19:04:33.8	75.890	0.090	-0.630	-0.300
2020/01/31 19:04:33.9	75.920	0.120	-0.680	-0.330
2020/01/31 19:04:34.0	75.940	0.140	-0.730	-0.360
2020/01/31 19:04:34.1	75.960	0.160	-0.770	-0.380
2020/01/31 19:04:34.2	75.970	0.170	-0.800	-0.390
2020/01/31 19:04:34.3	75.980	0.190	-0.830	-0.410
2020/01/31 19:04:34.4	75.990	0.200	-0.850	-0.410
2020/01/31 19:04:34.5	75.990	0.200	-0.860	-0.420
2020/01/31 19:04:34.6	75.990	0.210	-0.870	-0.410
2020/01/31 19:04:34.7	75.980	0.210	-0.870	-0.410
2020/01/31 19:04:34.8	75.960	0.200	-0.860	-0.400
2020/01/31 19:04:34.9	75.940	0.200	-0.850	-0.380
2020/01/31 19:04:35.0	75.930	0.190	-0.840	-0.360
2020/01/31 19:04:35.1	75.900	0.170	-0.820	-0.340
2020/01/31 19:04:35.2	75.880	0.160	-0.800	-0.320
2020/01/31 19:04:35.3	75.850	0.140	-0.780	-0.290
2020/01/31 19:04:35.4	75.820	0.120	-0.750	-0.270
2020/01/31 19:04:35.5	75.790	0.090	-0.720	-0.240
2020/01/31 19:04:35.6	75.760	0.060	-0.680	-0.200
2020/01/31 19:04:35.7	75.720	0.040	-0.650	-0.170
2020/01/31 19:04:35.8	75.690	0.010	-0.610	-0.140
2020/01/31 19:04:35.9	75.660	-0.030	-0.570	-0.110
2020/01/31 19:04:36.0	75.620	-0.060	-0.530	-0.070
2020/01/31 19:04:36.1	75.580	-0.090	-0.490	-0.040
2020/01/31 19:04:36.2	75.550	-0.130	-0.450	-0.010
2020/01/31 19:04:36.3	75.510	-0.160	-0.410	0.030
2020/01/31 19:04:36.4	75.480	-0.190	-0.370	0.060
2020/01/31 19:04:36.5	75.440	-0.230	-0.330	0.090
2020/01/31 19:04:36.6	75.410	-0.260	-0.290	0.120
2020/01/31 19:04:36.7	75.370	-0.290	-0.250	0.150
2020/01/31 19:04:36.8	75.350	-0.320	-0.220	0.180
2020/01/31 19:04:36.9	75.310	-0.350	-0.180	0.210
2020/01/31 19:04:37.0	75.280	-0.370	-0.150	0.240
2020/01/31 19:04:37.1	75.250	-0.400	-0.110	0.260
2020/01/31 19:04:37.2	75.230	-0.420	-0.080	0.290
2020/01/31 19:04:37.3	75.200	-0.440	-0.050	0.320
2020/01/31 19:04:37.4	75.170	-0.450	-0.020	0.340
2020/01/31 19:04:37.5	75.150	-0.470	0.000	0.370
2020/01/31 19:04:37.6	75.130	-0.480	0.030	0.390
2020/01/31 19:04:37.7	75.100	-0.490	0.050	0.420
2020/01/31 19:04:37.8	75.080	-0.490	0.070	0.440
2020/01/31 19:04:37.9	75.060	-0.500	0.090	0.470
2020/01/31 19:04:38.0	75.050	-0.500	0.100	0.490
2020/01/31 19:04:38.1	75.030	-0.500	0.120	0.510
2020/01/31 19:04:38.2	75.020	-0.490	0.130	0.540
2020/01/31 19:04:38.3	75.010	-0.480	0.130	0.560
2020/01/31 19:04:38.4	75.000	-0.480	0.140	0.580
2020/01/31 19:04:38.5	74.990	-0.460	0.140	0.600
2020/01/31 19:04:38.6	74.990	-0.450	0.140	0.610
2020/01/31 19:04:38.7	74.990	-0.440	0.140	0.630
2020/01/31 19:04:38.8	74.990	-0.420	0.140	0.640
2020/01/31 19:04:38.9	74.990	-0.400	0.130	0.650
2020/01/31 19:04:39.0	75.000	-0.380	0.120	0.660
2020/01/31 19:04:39.1	75.000	-0.360	0.110	0.670
2020/01/31 19:04:39.2	75.010	-0.340	0.100	0.670
2020/01/31 19:04:39.3	75.020	-0.310	0.090	0.670
2020/01/31 19:04:39.4	75.030	-0.290	0.080	0.670
2020/01/31 19:04:39.5	75.040	-0.270	0.060	0.670
2020/01/31 19:04:39.6	75.060	-0.240	0.050	0.670
2020/01/31 19:04:39.7	75.070	-0.210	0.030	0.660
2020/01/31 19:04:39.8	75.090	-0.190	0.020	0.650
2020/01/31 19:04:39.9	75.100	-0.160	0.010	0.640
2020/01/31 19:04:40.0	75.120	-0.140	-0.010	0.630
2020/01/31 19:04:40.1	75.130	-0.110	-0.020	0.620
2020/01/31 19:04:40.2	75.140	-0.080	-0.030	0.610
2020/01/31 19:04:40.3	75.150	-0.060	-0.050	0.600
2020/01/31 19:04:40.4	75.160	-0.030	-0.060	0.590
2020/01/31 19:04:40.5	75.170	-0.010	-0.070	0.580
2020/01/31 19:04:40.6	75.180	0.010	-0.080	0.570
2020/01/31 19:04:40.7	75.180	0.040	-0.090	0.550
2020/01/31 19:04:40.8	75.180	0.060	-0.100	0.540
2020/01/31 19:04:40.9	75.180	0.080	-0.110	0.530
2020/01/31 19:04:41.0	75.180	0.100	-0.110	0.510
2020/01/31 19:04:41.1	75.170	0.120	-0.120	0.500
2020/01/31 19:04:41.2	75.160	0.140	-0.120	0.490
2020/01/31 19:04:41.3	75.150	0.160	-0.120	0.470
2020/01/31 19:04:41.4	75.140	0.170	-0.130	0.460
2020/01/31 19:04:41.5	75.130	0.190	-0.130	0.450
2020/01/31 19:04:41.6	75.110	0.210	-0.130	0.440
2020/01/31 19:04:41.7	75.090	0.220	-0.140	0.420
2020/01/31 19:04:41.8	75.070	0.230	-0.140	0.410
2020/01/31 19:04:41.9	75.040	0.250	-0.140	0.400
2020/01/31 19:04:42.0	75.020	0.260	-0.140	0.380
2020/01/31 19:04:42.1	74.990	0.270	-0.150	0.370
2020/01/31 19:04:42.2	74.960	0.280	-0.150	0.360
2020/01/31 19:04:42.3	74.930	0.290	-0.160	0.340
2020/01/31 19:04:42.4	74.900	0.300	-0.170	0.330
2020/01/31 19:04:42.5	74.870	0.310	-0.180	0.320
2020/01/31 19:04:42.6	74.840	0.320	-0.190	0.300
2020/01/31 19:04:42.7	74.800	0.330	-0.200	0.290
2020/01/31 19:04:42.8	74.760	0.340	-0.220	0.280
2020/01/31 19:04:42.9	74.730	0.350	-0.230	0.270
2020/01/31 19:04:43.0	74.690	0.360	-0.250	0.260
2020/01/31 19:04:43.1	74.660	0.370	-0.270	0.250
2020/01/31 19:04:43.2	74.620	0.380	-0.290	0.240
2020/01/31 19:04:43.3	74.590	0.390	-0.310	0.230
2020/01/31 19:04:43.4	74.560	0.400	-0.340	0.220
2020/01/31 19:04:43.5	74.530	0.410	-0.370	0.220
2020/01/31 19:04:43.6	74.490	0.420	-0.400	0.210
2020/01/31 19:04:43.7	74.460	0.430	-0.430	0.200
2020/01/31 19:04:43.8	74.430	0.440	-0.460	0.200
2020/01/31 19:04:43.9	74.410	0.440	-0.490	0.190
2020/01/31 19:04:44.0	74.380	0.450	-0.520	0.190
2020/01/31 19:04:44.1	74.360	0.460	-0.560	0.180
2020/01/31 19:04:44.2	74.340	0.470	-0.590	0.170
2020/01/31 19:04:44.3	74.320	0.470	-0.630	0.170
2020/01/31 19:04:44.4	74.300	0.480	-0.660	0.160
2020/01/31 19:04:44.5	74.280	0.490	-0.690	0.160
2020/01/31 19:04:44.6	74.270	0.490	-0.720	0.150
2020/01/31 19:04:44.7	74.260	0.490	-0.750	0.150
2020/01/31 19:04:44.8	74.240	0.490	-0.780	0.140
2020/01/31 19:04:44.9	74.230	0.490	-0.800	0.140
2020/01/31 19:04:45.0	74.220	0.490	-0.820	0.130
2020/01/31 19:04:45.1	74.220	0.490	-0.840	0.130
2020/01/31 19:04:45.2	74.210	0.480	-0.850	0.120
2020/01/31 19:04:45.3	74.200	0.470	-0.850	0.120
2020/01/31 19:04:45.4	74.190	0.460	-0.850	0.110
2020/01/31 19:04:45.5	74.190	0.450	-0.850	0.100
2020/01/31 19:04:45.6	74.180	0.430	-0.830	0.100
2020/01/31 19:04:45.7	74.180	0.420	-0.810	0.090
2020/01/31 19:04:45.8	74.170	0.390	-0.790	0.080
2020/01/31 19:04:45.9	74.170	0.370	-0.750	0.080
2020/01/31 19:04:46.0	74.170	0.350	-0.710	0.070
2020/01/31 19:04:46.1	74.160	0.320	-0.670	0.060
2020/01/31 19:04:46.2	74.160	0.290	-0.620	0.050
2020/01/31 19:04:46.3	74.160	0.250	-0.560	0.040
2020/01/31 19:04:46.4	74.150	0.220	-0.500	0.030
2020/01/31 19:04:46.5	74.150	0.180	-0.430	0.020
2020/01/31 19:04:46.6	74.150	0.140	-0.360	0.010
2020/01/31 19:04:46.7	74.150	0.100	-0.290	-0.010
2020/01/31 19:04:46.8	74.140	0.060	-0.200	-0.020
2020/01/31 19:04:46.9	74.140	0.020	-0.130	-0.040
2020/01/31 19:04:47.0	74.140	-0.020	-0.050	-0.050
2020/01/31 19:04:47.1	74.150	-0.070	0.030	-0.070
2020/01/31 19:04:47.2	74.150	-0.110	0.110	-0.080
2020/01/31 19:04:47.3	74.150	-0.150	0.190	-0.100
2020/01/31 19:04:47.4	74.150	-0.200	0.270	-0.110
2020/01/31 19:04:47.5	74.150	-0.240	0.350	-0.130
2020/01/31 19:04:47.6	74.150	-0.280	0.420	-0.140
2020/01/31 19:04:47.7	74.150	-0.320	0.490	-0.160
2020/01/31 19:04:47.8	74.160	-0.360	0.550	-0.170
2020/01/31 19:04:47.9	74.160	-0.390	0.620	-0.180
2020/01/31 19:04:48.0	74.160	-0.430	0.670	-0.190
2020/01/31 19:04:48.1	74.160	-0.460	0.730	-0.200
2020/01/31 19:04:48.2	74.150	-0.490	0.770	-0.200
2020/01/31 19:04:48.3	74.150	-0.520	0.820	-0.200
2020/01/31 19:04:48.4	74.140	-0.540	0.850	-0.200
2020/01/31 19:04:48.5	74.130	-0.560	0.880	-0.200
2020/01/31 19:04:48.6	74.130	-0.580	0.900	-0.190
2020/01/31 19:04:48.7	74.110	-0.600	0.920	-0.180
2020/01/31 19:04:48.8	74.100	-0.610	0.930	-0.170
2020/01/31 19:04:48.9	74.090	-0.610	0.930	-0.150
2020/01/31 19:04:49.0	74.080	-0.620	0.930	-0.140
2020/01/31 19:04:49.1	74.060	-0.620	0.910	-0.110
2020/01/31 19:04:49.2	74.040	-0.620	0.890	-0.090
2020/01/31 19:04:49.3	74.030	-0.610	0.870	-0.060
2020/01/31 19:04:49.4	74.010	-0.600	0.830	-0.040
2020/01/31 19:04:49.5	73.990	-0.590	0.790	-0.010
2020/01/31 19:04:49.6	73.970	-0.570	0.740	0.020
2020/01/31 19:04:49.7	73.960	-0.550	0.680	0.050
2020/01/31 19:04:49.8	73.940	-0.530	0.620	0.080
2020/01/31 19:04:49.9	73.930	-0.510	0.550	0.110
2020/01/31 19:04:50.0	73.920	-0.480	0.470	0.140
2020/01/31 19:04:50.1	73.900	-0.450	0.390	0.170
2020/01/31 19:04:50.2	73.890	-0.410	0.310	0.190
2020/01/31 19:04:50.3	73.890	-0.380	0.220	0.220
2020/01/31 19:04:50.4	73.880	-0.340	0.120	0.240
2020/01/31 19:04:50.5	73.870	-0.300	0.030	0.270
2020/01/31 19:04:50.6	73.870	-0.260	-0.070	0.290
2020/01/31 19:04:50.7	73.870	-0.220	-0.170	0.310
2020/01/31 19:04:50.8	73.870	-0.180	-0.270	0.320
2020/01/31 19:04:50.9	73.870	-0.140	-0.370	0.340
2020/01/31 19:04:51.0	73.870	-0.100	-0.470	0.350
2020/01/31 19:04:51.1	73.870	-0.060	-0.570	0.370
2020/01/31 19:04:51.2	73.880	-0.020	-0.660	0.380
2020/01/31 19:04:51.3	73.880	0.020	-0.750	0.390
2020/01/31 19:04:51.4	73.880	0.060	-0.840	0.410
2020/01/31 19:04:51.5	73.890	0.100	-0.920	0.420
2020/01/31 19:04:51.6	73.890	0.130	-1.000	0.430
2020/01/31 19:04:51.7	73.900	0.170	-1.070	0.440
2020/01/31 19:04:51.8	73.900	0.200	-1.130	0.450
2020/01/31 19:04:51.9	73.910	0.230	-1.180	0.460
2020/01/31 19:04:52.0	73.910	0.250	-1.230	0.470
2020/01/31 19:04:52.1	73.910	0.270	-1.260	0.480
2020/01/31 19:04:52.2	73.900	0.290	-1.290	0.490
2020/01/31 19:04:52.3	73.900	0.310	-1.310	0.500
2020/01/31 19:04:52.4	73.890	0.320	-1.320	0.510
2020/01/31 19:04:52.5	73.890	0.330	-1.320	0.510
2020/01/31 19:04:52.6	73.880	0.330	-1.300	0.520
2020/01/31 19:04:52.7	73.870	0.330	-1.280	0.530
2020/01/31 19:04:52.8	73.850	0.330	-1.250	0.530
2020/01/31 19:04:52.9	73.840	0.330	-1.220	0.540
2020/01/31 19:04:53.0	73.820	0.320	-1.170	0.540
2020/01/31 19:04:53.1	73.810	0.300	-1.110	0.550
2020/01/31 19:04:53.2	73.790	0.290	-1.050	0.550
2020/01/31 19:04:53.3	73.770	0.270	-0.980	0.560
2020/01/31 19:04:53.4	73.750	0.250	-0.910	0.560
2020/01/31 19:04:53.5	73.720	0.230	-0.830	0.560
2020/01/31 19:04:53.6	73.700	0.200	-0.740	0.560
2020/01/31 19:04:53.7	73.680	0.180	-0.650	0.560
2020/01/31 19:04:53.8	73.650	0.150	-0.560	0.560
2020/01/31 19:04:53.9	73.620	0.120	-0.470	0.560
2020/01/31 19:04:54.0	73.600	0.090	-0.370	0.560
2020/01/31 19:04:54.1	73.570	0.060	-0.280	0.550
2020/01/31 19:04:54.2	73.550	0.030	-0.180	0.550
2020/01/31 19:04:54.3	73.530	0.000	-0.090	0.540
2020/01/31 19:04:54.4	73.500	-0.020	-0.000	0.540
2020/01/31 19:04:54.5	73.480	-0.050	0.080	0.530
2020/01/31 19:04:54.6	73.460	-0.080	0.160	0.510
2020/01/31 19:04:54.7	73.450	-0.100	0.240	0.500
2020/01/31 19:04:54.8	73.430	-0.120	0.310	0.480
2020/01/31 19:04:54.9	73.420	-0.140	0.370	0.460
2020/01/31 19:04:55.0	73.400	-0.150	0.430	0.440
2020/01/31 19:04:55.1	73.390	-0.170	0.470	0.410
2020/01/31 19:04:55.2	73.390	-0.180	0.510	0.390
2020/01/31 19:04:55.3	73.380	-0.180	0.540	0.360
2020/01/31 19:04:55.4	73.380	-0.190	0.570	0.330
2020/01/31 19:04:55.5	73.380	-0.190	0.580	0.290
2020/01/31 19:04:55.6	73.380	-0.190	0.590	0.260
2020/01/31 19:04:55.7	73.380	-0.180	0.590	0.220
2020/01/31 19:04:55.8	73.380	-0.170	0.580	0.180
2020/01/31 19:04:55.9	73.380	-0.160	0.560	0.150
2020/01/31 19:04:56.0	73.390	-0.150	0.540	0.110
2020/01/31 19:04:56.1	73.400	-0.140	0.510	0.070
2020/01/31 19:04:56.2	73.400	-0.120	0.480	0.030
2020/01/31 19:04:56.3	73.410	-0.100	0.440	-0.000
2020/01/31 19:04:56.4	73.420	-0.080	0.400	-0.040
2020/01/31 19:04:56.5	73.430	-0.060	0.350	-0.070
2020/01/31 19:04:56.6	73.430	-0.040	0.300	-0.110
2020/01/31 19:04:56.7	73.440	-0.010	0.250	-0.140
2020/01/31 19:04:56.8	73.450	0.010	0.190	-0.160
2020/01/31 19:04:56.9	73.450	0.040	0.140	-0.190
2020/01/31 19:04:57.0	73.450	0.060	0.080	-0.210
2020/01/31 19:04:57.1	73.460	0.080	0.030	-0.230
2020/01/31 19:04:57.2	73.460	0.110	-0.030	-0.250
2020/01/31 19:04:57.3	73.460	0.130	-0.090	-0.270
2020/01/31 19:04:57.4	73.460	0.150	-0.140	-0.280
2020/01/31 19:04:57.5	73.450	0.170	-0.190	-0.290
2020/01/31 19:04:57.6	73.450	0.190	-0.240	-0.300
2020/01/31 19:04:57.7	73.440	0.210	-0.290	-0.310
2020/01/31 19:04:57.8	73.430	0.220	-0.340	-0.320
2020/01/31 19:04:57.9	73.420	0.230	-0.380	-0.330
2020/01/31 19:04:58.0	73.410	0.240	-0.420	-0.330
2020/01/31 19:04:58.1	73.400	0.250	-0.460	-0.340
2020/01/31 19:04:58.2	73.390	0.260	-0.490	-0.340
2020/01/31 19:04:58.3	73.380	0.260	-0.520	-0.350
2020/01/31 19:04:58.4	73.370	0.260	-0.550	-0.360
2020/01/31 19:04:58.5	73.360	0.260	-0.570	-0.360
2020/01/31 19:04:58.6	73.350	0.260	-0.590	-0.370
2020/01/31 19:04:58.7	73.340	0.250	-0.610	-0.380
2020/01/31 19:04:58.8	73.330	0.240	-0.620	-0.390
2020/01/31 19:04:58.9	73.320	0.230	-0.630	-0.400
2020/01/31 19:04:59.0	73.310	0.220	-0.630	-0.410
2020/01/31 19:04:59.1	73.300	0.210	-0.630	-0.420
2020/01/31 19:04:59.2	73.290	0.190	-0.620	-0.430
2020/01/31 19:04:59.3	73.280	0.170	-0.610	-0.440
2020/01/31 19:04:59.4	73.270	0.150	-0.600	-0.450
2020/01/31 19:04:59.5	73.260	0.130	-0.580	-0.460
2020/01/31 19:04:59.6	73.240	0.110	-0.550	-0.460
2020/01/31 19:04:59.7	73.230	0.080	-0.520	-0.460
2020/01/31 19:04:59.8	73.220	0.060	-0.490	-0.470
2020/01/31 19:04:59.9	73.210	0.030	-0.450	-0.470
2020/01/31 19:05:00.0	73.190	0.010	-0.410	-0.460
2020/01/31 19:05:00.1	73.180	-0.010	-0.370	-0.450
2020/01/31 19:05:00.2	73.160	-0.040	-0.330	-0.440
2020/01/31 19:05:00.3	73.150	-0.060	-0.280	-0.430
2020/01/31 19:05:00.4	73.130	-0.080	-0.230	-0.410
2020/01/31 19:05:00.5	73.120	-0.110	-0.190	-0.400
2020/01/31 19:05:00.6	73.100	-0.130	-0.140	-0.380
2020/01/31 19:05:00.7	73.090	-0.140	-0.090	-0.350
2020/01/31 19:05:00.8	73.080	-0.160	-0.050	-0.330
2020/01/31 19:05:00.9	73.070	-0.170	-0.010	-0.300
2020/01/31 19:05:01.0	73.050	-0.190	0.030	-0.270
2020/01/31 19:05:01.1	73.040	-0.200	0.060	-0.240
2020/01/31 19:05:01.2	73.040	-0.200	0.090	-0.220
2020/01/31 19:05:01.3	73.030	-0.210	0.120	-0.190
2020/01/31 19:05:01.4	73.020	-0.210	0.140	-0.160
2020/01/31 19:05:01.5	73.020	-0.210	0.160	-0.130
2020/01/31 19:05:01.6	73.020	-0.200	0.170	-0.100
2020/01/31 19:05:01.7	73.030	-0.200	0.170	-0.070
2020/01/31 19:05:01.8	73.040	-0.190	0.170	-0.040
2020/01/31 19:05:01.9	73.050	-0.180	0.160	-0.020
2020/01/31 19:05:02.0	73.060	-0.160	0.150	0.010
2020/01/31 19:05:02.1	73.070	-0.150	0.130	0.030
2020/01/31 19:05:02.2	73.090	-0.130	0.100	0.050
2020/01/31 19:05:02.3	73.110	-0.110	0.070	0.070
2020/01/31 19:05:02.4	73.130	-0.080	0.040	0.090
2020/01/31 19:05:02.5	73.150	-0.060	0.000	0.110
2020/01/31 19:05:02.6	73.180	-0.040	-0.040	0.130
2020/01/31 19:05:02.7	73.200	-0.010	-0.080	0.140
2020/01/31 19:05:02.8	73.230	0.010	-0.130	0.160
2020/01/31 19:05:02.9	73.260	0.040	-0.170	0.170
2020/01/31 19:05:03.0	73.290	0.060	-0.210	0.180
2020/01/31 19:05:03.1	73.320	0.080	-0.260	0.190
2020/01/31 19:05:03.2	73.340	0.110	-0.300	0.200
2020/01/31 19:05:03.3	73.370	0.130	-0.330	0.210
2020/01/31 19:05:03.4	73.400	0.150	-0.370	0.220
2020/01/31 19:05:03.5	73.420	0.170	-0.400	0.230
2020/01/31 19:05:03.6	73.450	0.180	-0.430	0.230
2020/01/31 19:05:03.7	73.470	0.200	-0.450	0.240
2020/01/31 19:05:03.8	73.480	0.210	-0.470	0.240
2020/01/31 19:05:03.9	73.500	0.220	-0.480	0.250
2020/01/31 19:05:04.0	73.520	0.230	-0.480	0.250
2020/01/31 19:05:04.1	73.530	0.240	-0.480	0.260
2020/01/31 19:05:04.2	73.540	0.240	-0.480	0.260
2020/01/31 19:05:04.3	73.550	0.240	-0.470	0.270
2020/01/31 19:05:04.4	73.560	0.240	-0.450	0.270
2020/01/31 19:05:04.5	73.560	0.240	-0.430	0.270
2020/01/31 19:05:04.6	73.560	0.240	-0.400	0.280
2020/01/31 19:05:04.7	73.560	0.230	-0.370	0.280
2020/01/31 19:05:04.8	73.560	0.230	-0.330	0.280
2020/01/31 19:05:04.9	73.560	0.220	-0.290	0.290
2020/01/31 19:05:05.0	73.550	0.210	-0.240	0.290
2020/01/31 19:05:05.1	73.540	0.190	-0.200	0.300
2020/01/31 19:05:05.2	73.530	0.180	-0.140	0.300
2020/01/31 19:05:05.3	73.520	0.170	-0.090	0.310
2020/01/31 19:05:05.4	73.510	0.150	-0.040	0.320
2020/01/31 19:05:05.5	73.490	0.140	0.020	0.330
2020/01/31 19:05:05.6	73.470	0.120	0.070	0.340
2020/01/31 19:05:05.7	73.450	0.110	0.130	0.350
2020/01/31 19:05:05.8	73.430	0.090	0.180	0.360
2020/01/31 19:05:05.9	73.410	0.080	0.230	0.370
2020/01/31 19:05:06.0	73.390	0.060	0.280	0.390
2020/01/31 19:05:06.1	73.360	0.040	0.330	0.410
2020/01/31 19:05:06.2	73.330	0.030	0.370	0.430
2020/01/31 19:05:06.3	73.310	0.020	0.400	0.450
2020/01/31 19:05:06.4	73.280	0.000	0.440	0.470
2020/01/31 19:05:06.5	73.250	-0.010	0.460	0.500
2020/01/31 19:05:06.6	73.220	-0.020	0.480	0.520
2020/01/31 19:05:06.7	73.190	-0.040	0.490	0.540
2020/01/31 19:05:06.8	73.160	-0.050	0.500	0.570
2020/01/31 19:05:06.9	73.140	-0.060	0.500	0.590
2020/01/31 19:05:07.0	73.110	-0.060	0.490	0.610
2020/01/31 19:05:07.1	73.080	-0.070	0.470	0.630
2020/01/31 19:05:07.2	73.060	-0.080	0.450	0.650
2020/01/31 19:05:07.3	73.040	-0.080	0.420	0.670
2020/01/31 19:05:07.4	73.020	-0.090	0.380	0.680
2020/01/31 19:05:07.5	73.000	-0.090	0.330	0.700
2020/01/31 19:05:07.6	72.980	-0.100	0.280	0.700
2020/01/31 19:05:07.7	72.970	-0.100	0.210	0.710
2020/01/31 19:05:07.8	72.960	-0.100	0.150	0.710
2020/01/31 19:05:07.9	72.960	-0.100	0.080	0.710
2020/01/31 19:05:08.0	72.960	-0.100	-0.000	0.700
2020/01/31 19:05:08.1	72.960	-0.100	-0.080	0.690
2020/01/31 19:05:08.2	72.960	-0.100	-0.170	0.680
2020/01/31 19:05:08.3	72.960	-0.100	-0.250	0.660
2020/01/31 19:05:08.4	72.970	-0.100	-0.340	0.640
2020/01/31 19:05:08.5	72.980	-0.100	-0.430	0.620
2020/01/31 19:05:08.6	72.990	-0.100	-0.520	0.590
2020/01/31 19:05:08.7	73.010	-0.090	-0.610	0.560
2020/01/31 19:05:08.8	73.030	-0.090	-0.690	0.520
2020/01/31 19:05:08.9	73.050	-0.090	-0.770	0.480
2020/01/31 19:05:09.0	73.060	-0.090	-0.850	0.440
2020/01/31 19:05:09.1	73.090	-0.090	-0.920	0.400
2020/01/31 19:05:09.2	73.110	-0.090	-0.990	0.360
2020/01/31 19:05:09.3	73.130	-0.090	-1.050	0.310
2020/01/31 19:05:09.4	73.150	-0.090	-1.100	0.270
2020/01/31 19:05:09.5	73.180	-0.090	-1.140	0.220
2020/01/31 19:05:09.6	73.200	-0.100	-1.180	0.170
2020/01/31 19:05:09.7	73.230	-0.100	-1.210	0.120
2020/01/31 19:05:09.8	73.250	-0.100	-1.230	0.080
2020/01/31 19:05:09.9	73.280	-0.100	-1.240	0.030
2020/01/31 19:05:10.0	73.300	-0.100	-1.230	-0.020
2020/01/31 19:05:10.1	73.330	-0.110	-1.230	-0.060
2020/01/31 19:05:10.2	73.350	-0.110	-1.210	-0.110
2020/01/31 19:05:10.3	73.380	-0.110	-1.180	-0.150
2020/01/31 19:05:10.4	73.400	-0.110	-1.140	-0.190
2020/01/31 19:05:10.5	73.430	-0.110	-1.090	-0.230
2020/01/31 19:05:10.6	73.450	-0.120	-1.040	-0.270
2020/01/31 19:05:10.7	73.470	-0.120	-0.980	-0.300
2020/01/31 19:05:10.8	73.490	-0.120	-0.910	-0.340
2020/01/31 19:05:10.9	73.510	-0.120	-0.840	-0.370
2020/01/31 19:05:11.0	73.530	-0.120	-0.760	-0.400
2020/01/31 19:05:11.1	73.540	-0.120	-0.670	-0.430
2020/01/31 19:05:11.2	73.560	-0.120	-0.590	-0.450
2020/01/31 19:05:11.3	73.580	-0.120	-0.500	-0.480
2020/01/31 19:05:11.4	73.590	-0.110	-0.410	-0.500
2020/01/31 19:05:11.5	73.610	-0.110	-0.320	-0.520
2020/01/31 19:05:11.6	73.620	-0.110	-0.220	-0.540
2020/01/31 19:05:11.7	73.630	-0.100	-0.130	-0.550
2020/01/31 19:05:11.8	73.640	-0.100	-0.050	-0.570
2020/01/31 19:05:11.9	73.650	-0.090	0.040	-0.580
2020/01/31 19:05:12.0	73.650	-0.090	0.120	-0.590
2020/01/31 19:05:12.1	73.660	-0.080	0.200	-0.590
2020/01/31 19:05:12.2	73.670	-0.070	0.270	-0.600
2020/01/31 19:05:12.3	73.670	-0.060	0.340	-0.600
2020/01/31 19:05:12.4	73.670	-0.050	0.400	-0.600
2020/01/31 19:05:12.5	73.670	-0.040	0.460	-0.600
2020/01/31 19:05:12.6	73.680	-0.030	0.510	-0.600
2020/01/31 19:05:12.7	73.680	-0.020	0.550	-0.600
2020/01/31 19:05:12.8	73.670	-0.000	0.580	-0.590
2020/01/31 19:05:12.9	73.670	0.010	0.610	-0.580
2020/01/31 19:05:13.0	73.670	0.030	0.630	-0.570
2020/01/31 19:05:13.1	73.670	0.040	0.650	-0.560
2020/01/31 19:05:13.2	73.660	0.060	0.650	-0.550
2020/01/31 19:05:13.3	73.660	0.070	0.660	-0.530
2020/01/31 19:05:13.4	73.660	0.090	0.650	-0.510
2020/01/31 19:05:13.5	73.660	0.100	0.640	-0.490
2020/01/31 19:05:13.6	73.660	0.120	0.620	-0.470
2020/01/31 19:05:13.7	73.650	0.130	0.600	-0.440
2020/01/31 19:05:13.8	73.650	0.150	0.580	-0.410
2020/01/31 19:05:13.9	73.650	0.160	0.550	-0.380
2020/01/31 19:05:14.0	73.650	0.180	0.520	-0.350
2020/01/31 19:05:14.1	73.650	0.190	0.480	-0.320
2020/01/31 19:05:14.2	73.650	0.200	0.440	-0.280
2020/01/31 19:05:14.3	73.650	0.210	0.400	-0.250
2020/01/31 19:05:14.4	73.650	0.210	0.360	-0.210
2020/01/31 19:05:14.5	73.650	0.220	0.310	-0.170
2020/01/31 19:05:14.6	73.650	0.230	0.270	-0.140
2020/01/31 19:05:14.7	73.650	0.230	0.220	-0.100
2020/01/31 19:05:14.8	73.650	0.230	0.170	-0.070
2020/01/31 19:05:14.9	73.660	0.230	0.130	-0.030
2020/01/31 19:05:15.0	73.660	0.230	0.080	-0.000
2020/01/31 19:05:15.1	73.670	0.220	0.030	0.030
2020/01/31 19:05:15.2	73.680	0.220	-0.020	0.050
2020/01/31 19:05:15.3	73.690	0.210	-0.060	0.080
2020/01/31 19:05:15.4	73.700	0.200	-0.110	0.100
2020/01/31 19:05:15.5	73.710	0.190	-0.150	0.120
2020/01/31 19:05:15.6	73.720	0.180	-0.190	0.130
2020/01/31 19:05:15.7	73.740	0.170	-0.240	0.140
2020/01/31 19:05:15.8	73.750	0.160	-0.280	0.150
2020/01/31 19:05:15.9	73.770	0.140	-0.320	0.160
2020/01/31 19:05:16.0	73.790	0.130	-0.350	0.160
2020/01/31 19:05:16.1	73.810	0.110	-0.380	0.160
2020/01/31 19:05:16.2	73.830	0.090	-0.410	0.160
2020/01/31 19:05:16.3	73.850	0.080	-0.440	0.160
2020/01/31 19:05:16.4	73.870	0.060	-0.470	0.150
2020/01/31 19:05:16.5	73.890	0.050	-0.490	0.150
2020/01/31 19:05:16.6	73.910	0.030	-0.510	0.140
2020/01/31 19:05:16.7	73.930	0.010	-0.520	0.130
2020/01/31 19:05:16.8	73.940	-0.000	-0.530	0.120
2020/01/31 19:05:16.9	73.960	-0.020	-0.540	0.120
2020/01/31 19:05:17.0	73.980	-0.030	-0.550	0.110
2020/01/31 19:05:17.1	74.000	-0.040	-0.550	0.110
2020/01/31 19:05:17.2	74.020	-0.060	-0.550	0.110
2020/01/31 19:05:17.3	74.030	-0.070	-0.540	0.110
2020/01/31 19:05:17.4	74.050	-0.080	-0.540	0.110
2020/01/31 19:05:17.5	74.060	-0.090	-0.530	0.110
2020/01/31 19:05:17.6	74.080	-0.100	-0.520	0.110
2020/01/31 19:05:17.7	74.090	-0.100	-0.500	0.120
2020/01/31 19:05:17.8	74.090	-0.110	-0.480	0.130
2020/01/31 19:05:17.9	74.100	-0.120	-0.460	0.140
2020/01/31 19:05:18.0	74.110	-0.120	-0.440	0.150
2020/01/31 19:05:18.1	74.110	-0.120	-0.420	0.160
2020/01/31 19:05:18.2	74.110	-0.130	-0.390	0.180
2020/01/31 19:05:18.3	74.110	-0.130	-0.370	0.200
2020/01/31 19:05:18.4	74.110	-0.130	-0.340	0.220
2020/01/31 19:05:18.5	74.110	-0.130	-0.310	0.240
2020/01/31 19:05:18.6	74.100	-0.130	-0.280	0.270
2020/01/31 19:05:18.7	74.100	-0.130	-0.260	0.290
2020/01/31 19:05:18.8	74.090	-0.140	-0.230	0.320
2020/01/31 19:05:18.9	74.080	-0.140	-0.200	0.350
2020/01/31 19:05:19.0	74.070	-0.130	-0.180	0.380
2020/01/31 19:05:19.1	74.060	-0.130	-0.150	0.420
2020/01/31 19:05:19.2	74.040	-0.130	-0.130	0.450
2020/01/31 19:05:19.3	74.030	-0.130	-0.110	0.490
2020/01/31 19:05:19.4	74.010	-0.130	-0.090	0.520
2020/01/31 19:05:19.5	74.000	-0.130	-0.080	0.560
2020/01/31 19:05:19.6	73.980	-0.130	-0.070	0.590
2020/01/31 19:05:19.7	73.970	-0.130	-0.060	0.630
2020/01/31 19:05:19.8	73.950	-0.130	-0.050	0.660
2020/01/31 19:05:19.9	73.940	-0.130	-0.050	0.700
2020/01/31 19:05:20.0	73.920	-0.120	-0.050	0.730
2020/01/31 19:05:20.1	73.910	-0.120	-0.050	0.750
2020/01/31 19:05:20.2	73.910	-0.120	-0.060	0.780
2020/01/31 19:05:20.3	73.900	-0.120	-0.070	0.800
2020/01/31 19:05:20.4	73.890	-0.110	-0.080	0.820
2020/01/31 19:05:20.5	73.890	-0.110	-0.100	0.840
2020/01/31 19:05:20.6	73.890	-0.100	-0.120	0.850
2020/01/31 19:05:20.7	73.900	-0.100	-0.140	0.860
2020/01/31 19:05:20.8	73.910	-0.090	-0.160	0.850
2020/01/31 19:05:20.9	73.920	-0.090	-0.190	0.850
2020/01/31 19:05:21.0	73.930	-0.080	-0.220	0.840
2020/01/31 19:05:21.1	73.950	-0.070	-0.250	0.830
2020/01/31 19:05:21.2	73.970	-0.060	-0.280	0.810
2020/01/31 19:05:21.3	73.990	-0.050	-0.310	0.790
2020/01/31 19:05:21.4	74.010	-0.040	-0.350	0.770
2020/01/31 19:05:21.5	74.040	-0.020	-0.380	0.730
2020/01/31 19:05:21.6	74.070	-0.010	-0.410	0.700
2020/01/31 19:05:21.7	74.100	0.010	-0.450	0.660
2020/01/31 19:05:21.8	74.140	0.030	-0.480	0.620
2020/01/31 19:05:21.9	74.170	0.050	-0.510	0.580
2020/01/31 19:05:22.0	74.210	0.070	-0.540	0.540
2020/01/31 19:05:22.1	74.250	0.090	-0.560	0.490
2020/01/31 19:05:22.2	74.280	0.110	-0.590	0.440
2020/01/31 19:05:22.3	74.320	0.130	-0.610	0.400
2020/01/31 19:05:22.4	74.360	0.160	-0.620	0.350
2020/01/31 19:05:22.5	74.400	0.180	-0.630	0.300
2020/01/31 19:05:22.6	74.430	0.200	-0.640	0.260
2020/01/31 19:05:22.7	74.470	0.230	-0.640	0.210
2020/01/31 19:05:22.8	74.500	0.250	-0.640	0.170
2020/01/31 19:05:22.9	74.540	0.280	-0.630	0.130
2020/01/31 19:05:23.0	74.570	0.300	-0.620	0.090
2020/01/31 19:05:23.1	74.600	0.320	-0.610	0.050
2020/01/31 19:05:23.2	74.630	0.340	-0.580	0.020
2020/01/31 19:05:23.3	74.660	0.360	-0.560	-0.020
2020/01/31 19:05:23.4	74.680	0.380	-0.530	-0.050
2020/01/31 19:05:23.5	74.710	0.390	-0.500	-0.070
2020/01/31 19:05:23.6	74.730	0.400	-0.460	-0.100
2020/01/31 19:05:23.7	74.750	0.410	-0.420	-0.120
2020/01/31 19:05:23.8	74.760	0.420	-0.370	-0.140
2020/01/31 19:05:23.9	74.780	0.430	-0.320	-0.160
2020/01/31 19:05:24.0	74.790	0.430	-0.270	-0.180
2020/01/31 19:05:24.1	74.800	0.430	-0.220	-0.190
2020/01/31 19:05:24.2	74.800	0.420	-0.160	-0.200
2020/01/31 19:05:24.3	74.810	0.410	-0.100	-0.200
2020/01/31 19:05:24.4	74.810	0.400	-0.040	-0.210
2020/01/31 19:05:24.5	74.810	0.390	0.020	-0.210
2020/01/31 19:05:24.6	74.800	0.370	0.070	-0.200
2020/01/31 19:05:24.7	74.800	0.350	0.130	-0.200
2020/01/31 19:05:24.8	74.780	0.330	0.190	-0.190
2020/01/31 19:05:24.9	74.770	0.300	0.250	-0.180
2020/01/31 19:05:25.0	74.760	0.270	0.310	-0.170
2020/01/31 19:05:25.1	74.750	0.240	0.360	-0.160
2020/01/31 19:05:25.2	74.730	0.210	0.420	-0.150
2020/01/31 19:05:25.3	74.710	0.170	0.460	-0.130
2020/01/31 19:05:25.4	74.690	0.130	0.510	-0.120
2020/01/31 19:05:25.5	74.670	0.100	0.550	-0.100
2020/01/31 19:05:25.6	74.650	0.060	0.580	-0.090
2020/01/31 19:05:25.7	74.630	0.020	0.620	-0.070
2020/01/31 19:05:25.8	74.610	-0.020	0.640	-0.060
2020/01/31 19:05:25.9	74.580	-0.060	0.660	-0.050
2020/01/31 19:05:26.0	74.560	-0.100	0.670	-0.040
2020/01/31 19:05:26.1	74.540	-0.140	0.680	-0.020
2020/01/31 19:05:26.2	74.510	-0.180	0.680	-0.010
2020/01/31 19:05:26.3	74.490	-0.220	0.670	-0.000
2020/01/31 19:05:26.4	74.470	-0.260	0.660	0.010
2020/01/31 19:05:26.5	74.450	-0.290	0.640	0.010
2020/01/31 19:05:26.6	74.430	-0.320	0.620	0.020
2020/01/31 19:05:26.7	74.420	-0.350	0.580	0.020
2020/01/31 19:05:26.8	74.400	-0.370	0.550	0.020
2020/01/31 19:05:26.9	74.390	-0.400	0.500	0.020
2020/01/31 19:05:27.0	74.380	-0.420	0.450	0.020
2020/01/31 19:05:27.1	74.370	-0.430	0.390	0.020
2020/01/31 19:05:27.2	74.360	-0.450	0.330	0.010
2020/01/31 19:05:27.3	74.360	-0.460	0.260	0.010
2020/01/31 19:05:27.4	74.360	-0.460	0.190	-0.000
2020/01/31 19:05:27.5	74.360	-0.470	0.120	-0.010
2020/01/31 19:05:27.6	74.360	-0.470	0.050	-0.020
2020/01/31 19:05:27.7	74.360	-0.460	-0.030	-0.020
2020/01/31 19:05:27.8	74.360	-0.460	-0.120	-0.040
2020/01/31 19:05:27.9	74.370	-0.450	-0.190	-0.040
2020/01/31 19:05:28.0	74.380	-0.440	-0.270	-0.050
2020/01/31 19:05:28.1	74.390	-0.430	-0.350	-0.060
2020/01/31 19:05:28.2	74.400	-0.410	-0.420	-0.060
2020/01/31 19:05:28.3	74.410	-0.400	-0.500	-0.070
2020/01/31 19:05:28.4	74.430	-0.380	-0.570	-0.070
2020/01/31 19:05:28.5	74.440	-0.360	-0.640	-0.080
2020/01/31 19:05:28.6	74.460	-0.340	-0.700	-0.080
2020/01/31 19:05:28.7	74.480	-0.320	-0.760	-0.080
2020/01/31 19:05:28.8	74.490	-0.300	-0.820	-0.080
2020/01/31 19:05:28.9	74.510	-0.280	-0.870	-0.070
2020/01/31 19:05:29.0	74.530	-0.260	-0.910	-0.070
2020/01/31 19:05:29.1	74.550	-0.240	-0.950	-0.070
2020/01/31 19:05:29.2	74.570	-0.220	-0.980	-0.060
2020/01/31 19:05:29.3	74.600	-0.200	-1.010	-0.060
2020/01/31 19:05:29.4	74.630	-0.180	-1.030	-0.050
2020/01/31 19:05:29.5	74.650	-0.160	-1.050	-0.040
2020/01/31 19:05:29.6	74.680	-0.150	-1.050	-0.040
2020/01/31 19:05:29.7	74.710	-0.130	-1.060	-0.030
2020/01/31 19:05:29.8	74.740	-0.110	-1.060	-0.020
2020/01/31 19:05:29.9	74.770	-0.100	-1.040	-0.010
2020/01/31 19:05:30.0	74.810	-0.090	-1.030	-0.000
2020/01/31 19:05:30.1	74.840	-0.080	-1.000	0.010
2020/01/31 19:05:30.2	74.880	-0.060	-0.970	0.020
2020/01/31 19:05:30.3	74.910	-0.050	-0.940	0.030
2020/01/31 19:05:30.4	74.950	-0.050	-0.890	0.040
2020/01/31 19:05:30.5	74.980	-0.040	-0.850	0.060
2020/01/31 19:05:30.6	75.020	-0.030	-0.800	0.070
2020/01/31 19:05:30.7	75.060	-0.020	-0.740	0.080
2020/01/31 19:05:30.8	75.090	-0.020	-0.680	0.100
2020/01/31 19:05:30.9	75.130	-0.010	-0.610	0.110
2020/01/31 19:05:31.0	75.170	-0.010	-0.550	0.130
2020/01/31 19:05:31.1	75.200	-0.010	-0.480	0.140
2020/01/31 19:05:31.2	75.230	-0.000	-0.400	0.160
2020/01/31 19:05:31.3	75.260	-0.000	-0.330	0.170
2020/01/31 19:05:31.4	75.290	-0.000	-0.250	0.190
2020/01/31 19:05:31.5	75.320	-0.000	-0.180	0.200
2020/01/31 19:05:31.6	75.340	-0.000	-0.100	0.220
2020/01/31 19:05:31.7	75.360	-0.000	-0.020	0.230
2020/01/31 19:05:31.8	75.370	-0.000	0.060	0.250
2020/01/31 19:05:31.9	75.390	-0.000	0.130	0.270
2020/01/31 19:05:32.0	75.400	-0.000	0.200	0.280
2020/01/31 19:05:32.1	75.410	-0.000	0.270	0.300
2020/01/31 19:05:32.2	75.410	-0.000	0.340	0.320
2020/01/31 19:05:32.3	75.420	-0.000	0.400	0.340
2020/01/31 19:05:32.4	75.410	-0.000	0.460	0.360
2020/01/31 19:05:32.5	75.410	-0.000	0.520	0.380
2020/01/31 19:05:32.6	75.400	-0.000	0.570	0.400
2020/01/31 19:05:32.7	75.390	0.000	0.610	0.430
2020/01/31 19:05:32.8	75.370	0.000	0.650	0.450
2020/01/31 19:05:32.9	75.350	0.010	0.680	0.470
2020/01/31 19:05:33.0	75.330	0.010	0.700	0.500
2020/01/31 19:05:33.1	75.310	0.010	0.720	0.520
2020/01/31 19:05:33.2	75.290	0.020	0.730	0.550
2020/01/31 19:05:33.3	75.260	0.020	0.730	0.580
2020/01/31 19:05:33.4	75.230	0.030	0.730	0.600
2020/01/31 19:05:33.5	75.200	0.040	0.720	0.630
2020/01/31 19:05:33.6	75.170	0.050	0.700	0.650
2020/01/31 19:05:33.7	75.140	0.060	0.670	0.680
2020/01/31 19:05:33.8	75.110	0.070	0.640	0.700
2020/01/31 19:05:33.9	75.080	0.080	0.600	0.720
2020/01/31 19:05:34.0	75.050	0.100	0.550	0.740
2020/01/31 19:05:34.1	75.020	0.110	0.490	0.750
2020/01/31 19:05:34.2	74.990	0.130	0.430	0.770
2020/01/31 19:05:34.3	74.960	0.140	0.370	0.780
2020/01/31 19:05:34.4	74.940	0.160	0.290	0.790
2020/01/31 19:05:34.5	74.910	0.170	0.220	0.790
2020/01/31 19:05:34.6	74.890	0.190	0.140	0.790
2020/01/31 19:05:34.7	74.870	0.210	0.050	0.790
2020/01/31 19:05:34.8	74.860	0.230	-0.040	0.780
2020/01/31 19:05:34.9	74.840	0.240	-0.130	0.770
2020/01/31 19:05:35.0	74.820	0.260	-0.220	0.760
2020/01/31 19:05:35.1	74.810	0.280	-0.310	0.740
2020/01/31 19:05:35.2	74.800	0.300	-0.410	0.720
2020/01/31 19:05:35.3	74.790	0.310	-0.500	0.700
2020/01/31 19:05:35.4	74.790	0.330	-0.590	0.680
2020/01/31 19:05:35.5	74.780	0.350	-0.680	0.650
2020/01/31 19:05:35.6	74.780	0.360	-0.770	0.620
2020/01/31 19:05:35.7	74.780	0.370	-0.850	0.580
2020/01/31 19:05:35.8	74.790	0.390	-0.930	0.550
2020/01/31 19:05:35.9	74.800	0.400	-1.000	0.510
2020/01/31 19:05:36.0	74.810	0.410	-1.070	0.470
2020/01/31 19:05:36.1	74.820	0.420	-1.130	0.430
2020/01/31 19:05:36.2	74.830	0.430	-1.190	0.390
2020/01/31 19:05:36.3	74.850	0.430	-1.240	0.340
2020/01/31 19:05:36.4	74.870	0.440	-1.280	0.300
2020/01/31 19:05:36.5	74.890	0.440	-1.310	0.260
2020/01/31 19:05:36.6	74.920	0.440	-1.330	0.210
2020/01/31 19:05:36.7	74.950	0.440	-1.350	0.170
2020/01/31 19:05:36.8	74.980	0.440	-1.360	0.120
2020/01/31 19:05:36.9	75.010	0.430	-1.350	0.080
2020/01/31 19:05:37.0	75.050	0.420	-1.350	0.030
2020/01/31 19:05:37.1	75.080	0.420	-1.330	-0.010
2020/01/31 19:05:37.2	75.120	0.400	-1.300	-0.050
2020/01/31 19:05:37.3	75.160	0.390	-1.260	-0.090
2020/01/31 19:05:37.4	75.190	0.370	-1.220	-0.130
2020/01/31 19:05:37.5	75.230	0.360	-1.170	-0.170
2020/01/31 19:05:37.6	75.270	0.340	-1.110	-0.200
2020/01/31 19:05:37.7	75.310	0.310	-1.040	-0.230
2020/01/31 19:05:37.8	75.350	0.290	-0.960	-0.270
2020/01/31 19:05:37.9	75.380	0.260	-0.880	-0.290
2020/01/31 19:05:38.0	75.420	0.230	-0.790	-0.310
2020/01/31 19:05:38.1	75.450	0.200	-0.700	-0.330
2020/01/31 19:05:38.2	75.480	0.170	-0.600	-0.350
2020/01/31 19:05:38.3	75.510	0.130	-0.500	-0.360
2020/01/31 19:05:38.4	75.540	0.100	-0.390	-0.370
2020/01/31 19:05:38.5	75.560	0.060	-0.280	-0.370
2020/01/31 19:05:38.6	75.580	0.020	-0.160	-0.370
2020/01/31 19:05:38.7	75.600	-0.020	-0.050	-0.360
2020/01/31 19:05:38.8	75.610	-0.070	0.080	-0.350
2020/01/31 19:05:38.9	75.620	-0.110	0.190	-0.330
2020/01/31 19:05:39.0	75.630	-0.150	0.310	-0.310
2020/01/31 19:05:39.1	75.630	-0.200	0.430	-0.290
2020/01/31 19:05:39.2	75.630	-0.240	0.540	-0.260
2020/01/31 19:05:39.3	75.620	-0.290	0.650	-0.230
2020/01/31 19:05:39.4	75.620	-0.330	0.760	-0.200
2020/01/31 19:05:39.5	75.600	-0.370	0.870	-0.160
2020/01/31 19:05:39.6	75.590	-0.420	0.960	-0.120
2020/01/31 19:05:39.7	75.570	-0.460	1.060	-0.070
2020/01/31 19:05:39.8	75.550	-0.500	1.140	-0.020
2020/01/31 19:05:39.9	75.520	-0.540	1.220	0.020
2020/01/31 19:05:40.0	75.500	-0.570	1.290	0.080
2020/01/31 19:05:40.1	75.470	-0.610	1.350	0.130
2020/01/31 19:05:40.2	75.440	-0.640	1.400	0.180
2020/01/31 19:05:40.3	75.410	-0.670	1.450	0.240
2020/01/31 19:05:40.4	75.380	-0.690	1.480	0.290
2020/01/31 19:05:40.5	75.350	-0.720	1.500	0.340
2020/01/31 19:05:40.6	75.310	-0.740	1.510	0.400
2020/01/31 19:05:40.7	75.280	-0.750	1.500	0.450
2020/01/31 19:05:40.8	75.260	-0.760	1.480	0.490
2020/01/31 19:05:40.9	75.230	-0.770	1.460	0.540
2020/01/31 19:05:41.0	75.210	-0.770	1.410	0.580
2020/01/31 19:05:41.1	75.190	-0.770	1.360	0.610
2020/01/31 19:05:41.2	75.170	-0.760	1.290	0.640
2020/01/31 19:05:41.3	75.150	-0.750	1.210	0.670
2020/01/31 19:05:41.4	75.140	-0.730	1.120	0.680
2020/01/31 19:05:41.5	75.140	-0.710	1.010	0.700
2020/01/31 19:05:41.6	75.140	-0.690	0.900	0.700
2020/01/31 19:05:41.7	75.140	-0.660	0.770	0.700
2020/01/31 19:05:41.8	75.160	-0.630	0.630	0.700
2020/01/31 19:05:41.9	75.170	-0.590	0.490	0.680
2020/01/31 19:05:42.0	75.190	-0.550	0.340	0.670
2020/01/31 19:05:42.1	75.210	-0.500	0.180	0.640
2020/01/31 19:05:42.2	75.240	-0.450	0.020	0.620
2020/01/31 19:05:42.3	75.280	-0.400	-0.150	0.590
2020/01/31 19:05:42.4	75.310	-0.340	-0.310	0.560
2020/01/31 19:05:42.5	75.350	-0.290	-0.480	0.520
2020/01/31 19:05:42.6	75.400	-0.230	-0.650	0.480
2020/01/31 19:05:42.7	75.440	-0.170	-0.810	0.440
2020/01/31 19:05:42.8	75.490	-0.110	-0.980	0.400
2020/01/31 19:05:42.9	75.540	-0.050	-1.130	0.360
2020/01/31 19:05:43.0	75.590	0.010	-1.280	0.310
2020/01/31 19:05:43.1	75.640	0.070	-1.420	0.270
2020/01/31 19:05:43.2	75.690	0.130	-1.550	0.230
2020/01/31 19:05:43.3	75.740	0.180	-1.660	0.190
2020/01/31 19:05:43.4	75.780	0.240	-1.770	0.150
2020/01/31 19:05:43.5	75.830	0.290	-1.860	0.110
2020/01/31 19:05:43.6	75.870	0.340	-1.940	0.080
2020/01/31 19:05:43.7	75.910	0.390	-2.010	0.050
2020/01/31 19:05:43.8	75.950	0.430	-2.050	0.020
2020/01/31 19:05:43.9	75.980	0.470	-2.080	-0.010
2020/01/31 19:05:44.0	76.010	0.500	-2.100	-0.030
2020/01/31 19:05:44.1	76.030	0.530	-2.100	-0.050
2020/01/31 19:05:44.2	76.050	0.550	-2.080	-0.070
2020/01/31 19:05:44.3	76.060	0.570	-2.050	-0.080
2020/01/31 19:05:44.4	76.080	0.580	-2.000	-0.090
2020/01/31 19:05:44.5	76.080	0.590	-1.940	-0.100
2020/01/31 19:05:44.6	76.080	0.600	-1.860	-0.100
2020/01/31 19:05:44.7	76.080	0.590	-1.770	-0.100
2020/01/31 19:05:44.8	76.060	0.590	-1.660	-0.100
2020/01/31 19:05:44.9	76.050	0.580	-1.550	-0.090
2020/01/31 19:05:45.0	76.030	0.560	-1.420	-0.080
2020/01/31 19:05:45.1	76.010	0.540	-1.290	-0.070
2020/01/31 19:05:45.2	75.980	0.510	-1.140	-0.060
2020/01/31 19:05:45.3	75.950	0.480	-0.990	-0.050
2020/01/31 19:05:45.4	75.910	0.450	-0.840	-0.030
2020/01/31 19:05:45.5	75.870	0.410	-0.680	-0.010
2020/01/31 19:05:45.6	75.820	0.370	-0.520	0.010
2020/01/31 19:05:45.7	75.770	0.330	-0.360	0.030
2020/01/31 19:05:45.8	75.710	0.290	-0.190	0.050
2020/01/31 19:05:45.9	75.660	0.240	-0.040	0.080
2020/01/31 19:05:46.0	75.600	0.200	0.120	0.100
2020/01/31 19:05:46.1	75.550	0.150	0.270	0.130
2020/01/31 19:05:46.2	75.490	0.110	0.410	0.150
2020/01/31 19:05:46.3	75.430	0.060	0.540	0.180
2020/01/31 19:05:46.4	75.370	0.020	0.670	0.200
2020/01/31 19:05:46.5	75.310	-0.020	0.780	0.230
2020/01/31 19:05:46.6	75.250	-0.060	0.880	0.250
2020/01/31 19:05:46.7	75.190	-0.100	0.980	0.270
2020/01/31 19:05:46.8	75.140	-0.130	1.050	0.290
2020/01/31 19:05:46.9	75.090	-0.160	1.120	0.300
2020/01/31 19:05:47.0	75.040	-0.190	1.170	0.310
2020/01/31 19:05:47.1	74.990	-0.210	1.210	0.330
2020/01/31 19:05:47.2	74.940	-0.230	1.230	0.330
2020/01/31 19:05:47.3	74.900	-0.250	1.240	0.340
2020/01/31 19:05:47.4	74.860	-0.260	1.240	0.340
2020/01/31 19:05:47.5	74.830	-0.260	1.220	0.330
2020/01/31 19:05:47.6	74.800	-0.270	1.190	0.320
2020/01/31 19:05:47.7	74.770	-0.270	1.140	0.310
2020/01/31 19:05:47.8	74.750	-0.260	1.080	0.300
2020/01/31 19:05:47.9	74.740	-0.250	1.010	0.280
2020/01/31 19:05:48.0	74.720	-0.240	0.940	0.250
2020/01/31 19:05:48.1	74.720	-0.230	0.850	0.220
2020/01/31 19:05:48.2	74.720	-0.210	0.750	0.190
2020/01/31 19:05:48.3	74.720	-0.190	0.650	0.160
2020/01/31 19:05:48.4	74.730	-0.170	0.540	0.120
2020/01/31 19:05:48.5	74.750	-0.140	0.420	0.070
2020/01/31 19:05:48.6	74.760	-0.120	0.310	0.030
2020/01/31 19:05:48.7	74.790	-0.090	0.190	-0.020
2020/01/31 19:05:48.8	74.810	-0.060	0.070	-0.070
2020/01/31 19:05:48.9	74.840	-0.040	-0.050	-0.120
2020/01/31 19:05:49.0	74.880	-0.010	-0.160	-0.170
2020/01/31 19:05:49.1	74.910	0.020	-0.270	-0.220
2020/01/31 19:05:49.2	74.950	0.050	-0.380	-0.280
2020/01/31 19:05:49.3	74.990	0.070	-0.480	-0.330
2020/01/31 19:05:49.4	75.030	0.100	-0.570	-0.380
2020/01/31 19:05:49.5	75.070	0.120	-0.650	-0.420
2020/01/31 19:05:49.6	75.110	0.140	-0.730	-0.470
2020/01/31 19:05:49.7	75.150	0.160	-0.790	-0.510
2020/01/31 19:05:49.8	75.180	0.180	-0.850	-0.550
2020/01/31 19:05:49.9	75.220	0.190	-0.890	-0.590
2020/01/31 19:05:50.0	75.250	0.210	-0.920	-0.620
2020/01/31 19:05:50.1	75.280	0.220	-0.950	-0.650
2020/01/31 19:05:50.2	75.310	0.220	-0.960	-0.670
2020/01/31 19:05:50.3	75.340	0.230	-0.960	-0.690
2020/01/31 19:05:50.4	75.360	0.230	-0.940	-0.700
2020/01/31 19:05:50.5	75.390	0.230	-0.920	-0.710
2020/01/31 19:05:50.6	75.400	0.230	-0.890	-0.720
2020/01/31 19:05:50.7	75.420	0.220	-0.850	-0.710
2020/01/31 19:05:50.8	75.420	0.220	-0.800	-0.710
2020/01/31 19:05:50.9	75.420	0.210	-0.740	-0.700
2020/01/31 19:05:51.0	75.430	0.190	-0.680	-0.680
2020/01/31 19:05:51.1	75.420	0.180	-0.610	-0.660
2020/01/31 19:05:51.2	75.420	0.160	-0.540	-0.630
2020/01/31 19:05:51.3	75.410	0.150	-0.470	-0.600
2020/01/31 19:05:51.4	75.400	0.120	-0.390	-0.570
2020/01/31 19:05:51.5	75.390	0.100	-0.310	-0.530
2020/01/31 19:05:51.6	75.370	0.080	-0.230	-0.490
2020/01/31 19:05:51.7	75.360	0.060	-0.150	-0.440
2020/01/31 19:05:51.8	75.340	0.030	-0.080	-0.390
2020/01/31 19:05:51.9	75.310	0.010	-0.010	-0.340
2020/01/31 19:05:52.0	75.290	-0.020	0.060	-0.290
2020/01/31 19:05:52.1	75.270	-0.050	0.120	-0.230
2020/01/31 19:05:52.2	75.240	-0.070	0.180	-0.170
2020/01/31 19:05:52.3	75.210	-0.100	0.230	-0.110
2020/01/31 19:05:52.4	75.190	-0.120	0.280	-0.050
2020/01/31 19:05:52.5	75.160	-0.140	0.310	0.020
2020/01/31 19:05:52.6	75.130	-0.160	0.340	0.080
2020/01/31 19:05:52.7	75.100	-0.180	0.370	0.150
2020/01/31 19:05:52.8	75.080	-0.200	0.380	0.210
2020/01/31 19:05:52.9	75.050	-0.210	0.390	0.270
2020/01/31 19:05:53.0	75.030	-0.230	0.380	0.340
2020/01/31 19:05:53.1	75.000	-0.240	0.370	0.400
2020/01/31 19:05:53.2	74.980	-0.250	0.360	0.460
2020/01/31 19:05:53.3	74.950	-0.250	0.330	0.520
2020/01/31 19:05:53.4	74.930	-0.260	0.300	0.570
2020/01/31 19:05:53.5	74.910	-0.260	0.260	0.630
2020/01/31 19:05:53.6	74.900	-0.250	0.210	0.680
2020/01/31 19:05:53.7	74.880	-0.250	0.160	0.730
2020/01/31 19:05:53.8	74.870	-0.240	0.110	0.770
2020/01/31 19:05:53.9	74.860	-0.230	0.050	0.820
2020/01/31 19:05:54.0	74.850	-0.220	-0.020	0.860
2020/01/31 19:05:54.1	74.850	-0.210	-0.080	0.890
2020/01/31 19:05:54.2	74.840	-0.190	-0.150	0.920
2020/01/31 19:05:54.3	74.840	-0.170	-0.220	0.950
2020/01/31 19:05:54.4	74.840	-0.150	-0.290	0.980
2020/01/31 19:05:54.5	74.850	-0.130	-0.360	1.000
2020/01/31 19:05:54.6	74.850	-0.110	-0.430	1.020
2020/01/31 19:05:54.7	74.850	-0.080	-0.490	1.040
2020/01/31 19:05:54.8	74.870	-0.060	-0.550	1.060
2020/01/31 19:05:54.9	74.870	-0.030	-0.610	1.070
2020/01/31 19:05:55.0	74.880	-0.010	-0.660	1.080
2020/01/31 19:05:55.1	74.890	0.020	-0.710	1.090
2020/01/31 19:05:55.2	74.900	0.040	-0.750	1.100
2020/01/31 19:05:55.3	74.910	0.060	-0.790	1.100
2020/01/31 19:05:55.4	74.910	0.090	-0.820	1.100
2020/01/31 19:05:55.5	74.920	0.110	-0.840	1.100
2020/01/31 19:05:55.6	74.930	0.130	-0.850	1.100
2020/01/31 19:05:55.7	74.930	0.150	-0.860	1.100
2020/01/31 19:05:55.8	74.940	0.160	-0.860	1.090
2020/01/31 19:05:55.9	74.940	0.180	-0.850	1.090
2020/01/31 19:05:56.0	74.950	0.190	-0.840	1.080
2020/01/31 19:05:56.1	74.950	0.200	-0.810	1.080
2020/01/31 19:05:56.2	74.950	0.200	-0.780	1.070
2020/01/31 19:05:56.3	74.940	0.210	-0.750	1.060
2020/01/31 19:05:56.4	74.940	0.210	-0.700	1.050
2020/01/31 19:05:56.5	74.930	0.210	-0.650	1.040
2020/01/31 19:05:56.6	74.920	0.210	-0.600	1.030
2020/01/31 19:05:56.7	74.910	0.200	-0.530	1.020
2020/01/31 19:05:56.8	74.910	0.190	-0.460	1.010
2020/01/31 19:05:56.9	74.890	0.180	-0.400	1.000
2020/01/31 19:05:57.0	74.880	0.170	-0.320	0.980
2020/01/31 19:05:57.1	74.860	0.150	-0.250	0.970
2020/01/31 19:05:57.2	74.840	0.130	-0.170	0.960
2020/01/31 19:05:57.3	74.820	0.110	-0.090	0.940
2020/01/31 19:05:57.4	74.790	0.090	-0.010	0.930
2020/01/31 19:05:57.5	74.770	0.070	0.070	0.910
2020/01/31 19:05:57.6	74.740	0.050	0.140	0.900
2020/01/31 19:05:57.7	74.710	0.020	0.210	0.880
2020/01/31 19:05:57.8	74.680	-0.010	0.290	0.860
2020/01/31 19:05:57.9	74.650	-0.030	0.350	0.840
2020/01/31 19:05:58.0	74.620	-0.060	0.410	0.820
2020/01/31 19:05:58.1	74.590	-0.090	0.470	0.800
2020/01/31 19:05:58.2	74.550	-0.110	0.520	0.770
2020/01/31 19:05:58.3	74.520	-0.140	0.560	0.750
2020/01/31 19:05:58.4	74.490	-0.170	0.590	0.720
2020/01/31 19:05:58.5	74.460	-0.190	0.620	0.690
2020/01/31 19:05:58.6	74.430	-0.210	0.630	0.660
2020/01/31 19:05:58.7	74.410	-0.230	0.640	0.620
2020/01/31 19:05:58.8	74.390	-0.250	0.640	0.580
2020/01/31 19:05:58.9	74.360	-0.270	0.630	0.540
2020/01/31 19:05:59.0	74.340	-0.290	0.610	0.500
2020/01/31 19:05:59.1	74.320	-0.300	0.580	0.460
2020/01/31 19:05:59.2	74.300	-0.310	0.540	0.410
2020/01/31 19:05:59.3	74.290	-0.320	0.500	0.360
2020/01/31 19:05:59.4	74.280	-0.320	0.450	0.310
2020/01/31 19:05:59.5	74.270	-0.330	0.390	0.260
2020/01/31 19:05:59.6	74.260	-0.330	0.320	0.210
2020/01/31 19:05:59.7	74.260	-0.330	0.250	0.160
2020/01/31 19:05:59.8	74.260	-0.320	0.180	0.100
2020/01/31 19:05:59.9	74.260	-0.320	0.100	0.040
2020/01/31 19:06:00.0	74.270	-0.310	0.020	-0.010
2020/01/31 19:06:00.1	74.270	-0.300	-0.060	-0.070
2020/01/31 19:06:00.2	74.280	-0.290	-0.140	-0.120
2020/01/31 19:06:00.3	74.290	-0.280	-0.220	-0.180
2020/01/31 19:06:00.4	74.300	-0.270	-0.300	-0.230
2020/01/31 19:06:00.5	74.310	-0.250	-0.380	-0.280
2020/01/31 19:06:00.6	74.320	-0.230	-0.450	-0.330
2020/01/31 19:06:00.7	74.330	-0.220	-0.520	-0.380
2020/01/31 19:06:00.8	74.340	-0.200	-0.580	-0.440
2020/01/31 19:06:00.9	74.350	-0.180	-0.640	-0.480
2020/01/31 19:06:01.0	74.360	-0.160	-0.690	-0.530
2020/01/31 19:06:01.1	74.370	-0.140	-0.730	-0.570
2020/01/31 19:06:01.2	74.390	-0.120	-0.770	-0.620
2020/01/31 19:06:01.3	74.400	-0.100	-0.800	-0.660
2020/01/31 19:06:01.4	74.410	-0.080	-0.820	-0.690
2020/01/31 19:06:01.5	74.420	-0.060	-0.830	-0.730
2020/01/31 19:06:01.6	74.430	-0.040	-0.840	-0.760
2020/01/31 19:06:01.7	74.440	-0.020	-0.840	-0.790
2020/01/31 19:06:01.8	74.440	-0.000	-0.830	-0.820
2020/01/31 19:06:01.9	74.450	0.020	-0.820	-0.850
2020/01/31 19:06:02.0	74.460	0.040	-0.800	-0.870
2020/01/31 19:06:02.1	74.460	0.060	-0.770	-0.890
2020/01/31 19:06:02.2	74.460	0.070	-0.740	-0.910
2020/01/31 19:06:02.3	74.460	0.090	-0.710	-0.920
2020/01/31 19:06:02.4	74.460	0.110	-0.670	-0.930
2020/01/31 19:06:02.5	74.460	0.130	-0.630	-0.940
2020/01/31 19:06:02.6	74.460	0.140	-0.580	-0.940
2020/01/31 19:06:02.7	74.450	0.160	-0.540	-0.940
2020/01/31 19:06:02.8	74.440	0.170	-0.490	-0.940
2020/01/31 19:06:02.9	74.430	0.180	-0.440	-0.940
2020/01/31 19:06:03.0	74.420	0.190	-0.390	-0.930
2020/01/31 19:06:03.1	74.410	0.210	-0.340	-0.910
2020/01/31 19:06:03.2	74.390	0.220	-0.290	-0.890
2020/01/31 19:06:03.3	74.380	0.230	-0.240	-0.870
2020/01/31 19:06:03.4	74.360	0.230	-0.200	-0.840
2020/01/31 19:06:03.5	74.340	0.240	-0.160	-0.810
2020/01/31 19:06:03.6	74.320	0.250	-0.120	-0.770
2020/01/31 19:06:03.7	74.300	0.260	-0.080	-0.730
2020/01/31 19:06:03.8	74.280	0.260	-0.050	-0.690
2020/01/31 19:06:03.9	74.260	0.270	-0.020	-0.640
2020/01/31 19:06:04.0	74.230	0.270	0.010	-0.590
2020/01/31 19:06:04.1	74.210	0.270	0.030	-0.540
2020/01/31 19:06:04.2	74.180	0.280	0.050	-0.490
2020/01/31 19:06:04.3	74.160	0.280	0.060	-0.430
2020/01/31 19:06:04.4	74.130	0.280	0.070	-0.370
2020/01/31 19:06:04.5	74.110	0.280	0.080	-0.320
2020/01/31 19:06:04.6	74.080	0.280	0.080	-0.260
2020/01/31 19:06:04.7	74.060	0.280	0.070	-0.200
2020/01/31 19:06:04.8	74.040	0.280	0.060	-0.140
2020/01/31 19:06:04.9	74.020	0.280	0.050	-0.090
2020/01/31 19:06:05.0	74.000	0.280	0.040	-0.030
2020/01/31 19:06:05.1	73.970	0.280	0.020	0.030
2020/01/31 19:06:05.2	73.950	0.280	0.010	0.080
2020/01/31 19:06:05.3	73.930	0.280	-0.020	0.130
2020/01/31 19:06:05.4	73.920	0.280	-0.040	0.180
2020/01/31 19:06:05.5	73.900	0.280	-0.070	0.230
2020/01/31 19:06:05.6	73.890	0.280	-0.090	0.270
2020/01/31 19:06:05.7	73.870	0.270	-0.120	0.320
2020/01/31 19:06:05.8	73.870	0.270	-0.150	0.360
2020/01/31 19:06:05.9	73.860	0.270	-0.180	0.390
2020/01/31 19:06:06.0	73.850	0.270	-0.210	0.430
2020/01/31 19:06:06.1	73.840	0.270	-0.230	0.460
2020/01/31 19:06:06.2	73.830	0.260	-0.260	0.490
2020/01/31 19:06:06.3	73.830	0.260	-0.290	0.510
2020/01/31 19:06:06.4	73.820	0.260	-0.310	0.540
2020/01/31 19:06:06.5	73.820	0.260	-0.340	0.560
2020/01/31 19:06:06.6	73.810	0.250	-0.360	0.580
2020/01/31 19:06:06.7	73.810	0.250	-0.380	0.600
2020/01/31 19:06:06.8	73.810	0.240	-0.400	0.610
2020/01/31 19:06:06.9	73.810	0.240	-0.410	0.630
2020/01/31 19:06:07.0	73.820	0.230	-0.420	0.640
2020/01/31 19:06:07.1	73.820	0.230	-0.420	0.650
2020/01/31 19:06:07.2	73.820	0.220	-0.430	0.660
2020/01/31 19:06:07.3	73.830	0.210	-0.420	0.670
2020/01/31 19:06:07.4	73.830	0.200	-0.420	0.680
2020/01/31 19:06:07.5	73.840	0.190	-0.410	0.690
2020/01/31 19:06:07.6	73.840	0.180	-0.400	0.700
2020/01/31 19:06:07.7	73.850	0.170	-0.380	0.710
2020/01/31 19:06:07.8	73.850	0.160	-0.360	0.710
2020/01/31 19:06:07.9	73.860	0.150	-0.340	0.720
2020/01/31 19:06:08.0	73.870	0.130	-0.310	0.730
2020/01/31 19:06:08.1	73.880	0.120	-0.290	0.740
2020/01/31 19:06:08.2	73.890	0.110	-0.260	0.740
2020/01/31 19:06:08.3	73.900	0.090	-0.230	0.750
2020/01/31 19:06:08.4	73.910	0.070	-0.200	0.760
2020/01/31 19:06:08.5	73.920	0.060	-0.170	0.760
2020/01/31 19:06:08.6	73.930	0.040	-0.140	0.770
2020/01/31 19:06:08.7	73.950	0.020	-0.110	0.770
2020/01/31 19:06:08.8	73.960	0.000	-0.080	0.770
2020/01/31 19:06:08.9	73.980	-0.010	-0.050	0.770
2020/01/31 19:06:09.0	74.000	-0.030	-0.020	0.770
2020/01/31 19:06:09.1	74.010	-0.050	0.010	0.770
2020/01/31 19:06:09.2	74.030	-0.070	0.040	0.770
2020/01/31 19:06:09.3	74.050	-0.090	0.070	0.770
2020/01/31 19:06:09.4	74.080	-0.110	0.090	0.760
2020/01/31 19:06:09.5	74.100	-0.120	0.120	0.760
2020/01/31 19:06:09.6	74.120	-0.140	0.140	0.750
2020/01/31 19:06:09.7	74.140	-0.160	0.160	0.740
2020/01/31 19:06:09.8	74.170	-0.180	0.190	0.730
2020/01/31 19:06:09.9	74.190	-0.190	0.210	0.720
2020/01/31 19:06:10.0	74.220	-0.210	0.220	0.710
2020/01/31 19:06:10.1	74.240	-0.230	0.240	0.690
2020/01/31 19:06:10.2	74.270	-0.240	0.250	0.680
2020/01/31 19:06:10.3	74.290	-0.260	0.260	0.660
2020/01/31 19:06:10.4	74.310	-0.270	0.270	0.650
2020/01/31 19:06:10.5	74.330	-0.290	0.280	0.640
2020/01/31 19:06:10.6	74.350	-0.300	0.280	0.620
2020/01/31 19:06:10.7	74.370	-0.310	0.290	0.610
2020/01/31 19:06:10.8	74.390	-0.330	0.290	0.600
2020/01/31 19:06:10.9	74.400	-0.340	0.290	0.590
2020/01/31 19:06:11.0	74.410	-0.350	0.300	0.590
2020/01/31 19:06:11.1	74.410	-0.360	0.300	0.580
2020/01/31 19:06:11.2	74.410	-0.370	0.300	0.580
2020/01/31 19:06:11.3	74.410	-0.380	0.300	0.580
2020/01/31 19:06:11.4	74.400	-0.390	0.300	0.590
2020/01/31 19:06:11.5	74.390	-0.400	0.300	0.590
2020/01/31 19:06:11.6	74.380	-0.410	0.300	0.600
2020/01/31 19:06:11.7	74.360	-0.420	0.290	0.610
2020/01/31 19:06:11.8	74.340	-0.430	0.290	0.620
2020/01/31 19:06:11.9	74.310	-0.440	0.290	0.630
2020/01/31 19:06:12.0	74.280	-0.450	0.280	0.650
2020/01/31 19:06:12.1	74.250	-0.460	0.270	0.660
2020/01/31 19:06:12.2	74.220	-0.460	0.260	0.670
2020/01/31 19:06:12.3	74.180	-0.470	0.240	0.680
2020/01/31 19:06:12.4	74.140	-0.470	0.230	0.700
2020/01/31 19:06:12.5	74.100	-0.480	0.210	0.710
2020/01/31 19:06:12.6	74.060	-0.480	0.180	0.710
2020/01/31 19:06:12.7	74.020	-0.480	0.160	0.720
2020/01/31 19:06:12.8	73.990	-0.480	0.120	0.720
2020/01/31 19:06:12.9	73.950	-0.480	0.090	0.710
2020/01/31 19:06:13.0	73.910	-0.470	0.050	0.710
2020/01/31 19:06:13.1	73.880	-0.460	0.010	0.700
2020/01/31 19:06:13.2	73.840	-0.450	-0.040	0.690
2020/01/31 19:06:13.3	73.810	-0.440	-0.090	0.670
2020/01/31 19:06:13.4	73.780	-0.430	-0.140	0.650
2020/01/31 19:06:13.5	73.750	-0.410	-0.200	0.620
2020/01/31 19:06:13.6	73.730	-0.390	-0.260	0.590
2020/01/31 19:06:13.7	73.700	-0.370	-0.330	0.550
2020/01/31 19:06:13.8	73.690	-0.340	-0.390	0.510
2020/01/31 19:06:13.9	73.670	-0.310	-0.460	0.470
2020/01/31 19:06:14.0	73.650	-0.280	-0.530	0.420
2020/01/31 19:06:14.1	73.640	-0.250	-0.600	0.370
2020/01/31 19:06:14.2	73.630	-0.210	-0.670	0.320
2020/01/31 19:06:14.3	73.620	-0.170	-0.740	0.260
2020/01/31 19:06:14.4	73.620	-0.130	-0.810	0.200
2020/01/31 19:06:14.5	73.610	-0.090	-0.880	0.140
2020/01/31 19:06:14.6	73.610	-0.040	-0.940	0.080
2020/01/31 19:06:14.7	73.610	0.000	-1.010	0.020
2020/01/31 19:06:14.8	73.610	0.050	-1.060	-0.050
2020/01/31 19:06:14.9	73.610	0.100	-1.120	-0.110
2020/01/31 19:06:15.0	73.620	0.150	-1.160	-0.180
2020/01/31 19:06:15.1	73.620	0.190	-1.210	-0.240
2020/01/31 19:06:15.2	73.630	0.240	-1.240	-0.310
2020/01/31 19:06:15.3	73.640	0.290	-1.280	-0.380
2020/01/31 19:06:15.4	73.650	0.330	-1.300	-0.440
2020/01/31 19:06:15.5	73.660	0.370	-1.320	-0.510
2020/01/31 19:06:15.6	73.680	0.420	-1.330	-0.570
2020/01/31 19:06:15.7	73.690	0.450	-1.330	-0.630
2020/01/31 19:06:15.8	73.700	0.490	-1.320	-0.700
2020/01/31 19:06:15.9	73.720	0.520	-1.310	-0.750
2020/01/31 19:06:16.0	73.730	0.550	-1.290	-0.810
2020/01/31 19:06:16.1	73.750	0.580	-1.260	-0.860
2020/01/31 19:06:16.2	73.770	0.600	-1.220	-0.910
2020/01/31 19:06:16.3	73.780	0.620	-1.180	-0.950
2020/01/31 19:06:16.4	73.800	0.640	-1.120	-0.990
2020/01/31 19:06:16.5	73.820	0.650	-1.060	-1.030
2020/01/31 19:06:16.6	73.830	0.660	-1.000	-1.060
2020/01/31 19:06:16.7	73.850	0.660	-0.930	-1.080
2020/01/31 19:06:16.8	73.860	0.660	-0.840	-1.110
2020/01/31 19:06:16.9	73.870	0.660	-0.760	-1.120
2020/01/31 19:06:17.0	73.890	0.650	-0.670	-1.130
2020/01/31 19:06:17.1	73.900	0.640	-0.580	-1.140
2020/01/31 19:06:17.2	73.920	0.630	-0.480	-1.140
2020/01/31 19:06:17.3	73.930	0.610	-0.390	-1.130
2020/01/31 19:06:17.4	73.940	0.590	-0.290	-1.120
2020/01/31 19:06:17.5	73.950	0.560	-0.190	-1.110
2020/01/31 19:06:17.6	73.970	0.540	-0.090	-1.090
2020/01/31 19:06:17.7	73.980	0.510	0.020	-1.070
2020/01/31 19:06:17.8	73.990	0.470	0.110	-1.050
2020/01/31 19:06:17.9	74.000	0.440	0.210	-1.030
2020/01/31 19:06:18.0	74.010	0.400	0.300	-1.000
2020/01/31 19:06:18.1	74.020	0.370	0.390	-0.970
2020/01/31 19:06:18.2	74.030	0.330	0.470	-0.940
2020/01/31 19:06:18.3	74.050	0.290	0.550	-0.910
2020/01/31 19:06:18.4	74.060	0.250	0.620	-0.870
2020/01/31 19:06:18.5	74.070	0.210	0.690	-0.840
2020/01/31 19:06:18.6	74.080	0.170	0.750	-0.810
2020/01/31 19:06:18.7	74.090	0.130	0.800	-0.770
2020/01/31 19:06:18.8	74.110	0.100	0.840	-0.740
2020/01/31 19:06:18.9	74.120	0.060	0.870	-0.700
2020/01/31 19:06:19.0	74.130	0.020	0.900	-0.670
2020/01/31 19:06:19.1	74.150	-0.010	0.910	-0.640
2020/01/31 19:06:19.2	74.160	-0.050	0.920	-0.600
2020/01/31 19:06:19.3	74.180	-0.080	0.920	-0.570
2020/01/31 19:06:19.4	74.190	-0.110	0.910	-0.530
2020/01/31 19:06:19.5	74.200	-0.140	0.890	-0.500
2020/01/31 19:06:19.6	74.220	-0.160	0.860	-0.460
2020/01/31 19:06:19.7	74.230	-0.190	0.830	-0.420
2020/01/31 19:06:19.8	74.230	-0.210	0.790	-0.380
2020/01/31 19:06:19.9	74.250	-0.230	0.740	-0.340
2020/01/31 19:06:20.0	74.260	-0.240	0.690	-0.300
2020/01/31 19:06:20.1	74.270	-0.260	0.640	-0.260
2020/01/31 19:06:20.2	74.270	-0.270	0.580	-0.220
2020/01/31 19:06:20.3	74.280	-0.280	0.520	-0.170
2020/01/31 19:06:20.4	74.290	-0.290	0.460	-0.120
2020/01/31 19:06:20.5	74.300	-0.290	0.390	-0.070
2020/01/31 19:06:20.6	74.300	-0.290	0.330	-0.010
2020/01/31 19:06:20.7	74.310	-0.290	0.260	0.040
2020/01/31 19:06:20.8	74.310	-0.290	0.190	0.100
2020/01/31 19:06:20.9	74.310	-0.280	0.120	0.170
2020/01/31 19:06:21.0	74.310	-0.280	0.060	0.230
2020/01/31 19:06:21.1	74.310	-0.270	-0.010	0.290
2020/01/31 19:06:21.2	74.310	-0.260	-0.070	0.360
2020/01/31 19:06:21.3	74.310	-0.240	-0.130	0.430
2020/01/31 19:06:21.4	74.300	-0.230	-0.190	0.500
2020/01/31 19:06:21.5	74.300	-0.220	-0.240	0.570
2020/01/31 19:06:21.6	74.300	-0.200	-0.300	0.640
2020/01/31 19:06:21.7	74.290	-0.190	-0.350	0.720
2020/01/31 19:06:21.8	74.280	-0.170	-0.390	0.790
2020/01/31 19:06:21.9	74.280	-0.150	-0.440	0.870
2020/01/31 19:06:22.0	74.270	-0.140	-0.480	0.940
2020/01/31 19:06:22.1	74.270	-0.120	-0.510	1.020
2020/01/31 19:06:22.2	74.260	-0.110	-0.540	1.090
2020/01/31 19:06:22.3	74.250	-0.090	-0.570	1.160
2020/01/31 19:06:22.4	74.250	-0.080	-0.600	1.230
2020/01/31 19:06:22.5	74.240	-0.070	-0.620	1.300
2020/01/31 19:06:22.6	74.230	-0.060	-0.630	1.370
2020/01/31 19:06:22.7	74.220	-0.050	-0.640	1.440
2020/01/31 19:06:22.8	74.220	-0.040	-0.660	1.500
2020/01/31 19:06:22.9	74.220	-0.030	-0.660	1.550
2020/01/31 19:06:23.0	74.210	-0.030	-0.660	1.610
2020/01/31 19:06:23.1	74.210	-0.030	-0.660	1.660
2020/01/31 19:06:23.2	74.200	-0.030	-0.650	1.710
2020/01/31 19:06:23.3	74.200	-0.030	-0.640	1.750
2020/01/31 19:06:23.4	74.190	-0.030	-0.630	1.790
2020/01/31 19:06:23.5	74.180	-0.040	-0.610	1.820
2020/01/31 19:06:23.6	74.180	-0.050	-0.590	1.850
2020/01/31 19:06:23.7	74.170	-0.060	-0.570	1.870
2020/01/31 19:06:23.8	74.170	-0.080	-0.540	1.890
2020/01/31 19:06:23.9	74.170	-0.090	-0.510	1.900
2020/01/31 19:06:24.0	74.160	-0.110	-0.480	1.910
2020/01/31 19:06:24.1	74.150	-0.120	-0.450	1.910
2020/01/31 19:06:24.2	74.150	-0.140	-0.410	1.910
2020/01/31 19:06:24.3	74.140	-0.160	-0.380	1.900
2020/01/31 19:06:24.4	74.130	-0.180	-0.340	1.890
2020/01/31 19:06:24.5	74.130	-0.200	-0.300	1.880
2020/01/31 19:06:24.6	74.120	-0.220	-0.260	1.860
2020/01/31 19:06:24.7	74.110	-0.240	-0.220	1.840
2020/01/31 19:06:24.8	74.110	-0.260	-0.170	1.810
2020/01/31 19:06:24.9	74.100	-0.280	-0.130	1.770
2020/01/31 19:06:25.0	74.090	-0.300	-0.090	1.740
2020/01/31 19:06:25.1	74.080	-0.320	-0.060	1.700
2020/01/31 19:06:25.2	74.080	-0.330	-0.020	1.650
2020/01/31 19:06:25.3	74.070	-0.340	0.010	1.600
2020/01/31 19:06:25.4	74.070	-0.350	0.050	1.550
2020/01/31 19:06:25.5	74.070	-0.360	0.070	1.490
2020/01/31 19:06:25.6	74.070	-0.360	0.100	1.420
2020/01/31 19:06:25.7	74.080	-0.360	0.120	1.350
2020/01/31 19:06:25.8	74.080	-0.360	0.130	1.280
2020/01/31 19:06:25.9	74.090	-0.350	0.140	1.200
2020/01/31 19:06:26.0	74.110	-0.340	0.150	1.110
2020/01/31 19:06:26.1	74.120	-0.330	0.140	1.020
2020/01/31 19:06:26.2	74.140	-0.310	0.140	0.920
2020/01/31 19:06:26.3	74.170	-0.290	0.120	0.830
2020/01/31 19:06:26.4	74.190	-0.270	0.100	0.730
2020/01/31 19:06:26.5	74.220	-0.240	0.080	0.620
2020/01/31 19:06:26.6	74.250	-0.220	0.050	0.510
2020/01/31 19:06:26.7	74.290	-0.180	0.010	0.400
2020/01/31 19:06:26.8	74.330	-0.150	-0.030	0.290
2020/01/31 19:06:26.9	74.360	-0.110	-0.080	0.180
2020/01/31 19:06:27.0	74.400	-0.070	-0.130	0.070
2020/01/31 19:06:27.1	74.440	-0.030	-0.180	-0.040
2020/01/31 19:06:27.2	74.490	0.010	-0.230	-0.150
2020/01/31 19:06:27.3	74.530	0.050	-0.280	-0.250
2020/01/31 19:06:27.4	74.570	0.090	-0.340	-0.360
2020/01/31 19:06:27.5	74.610	0.140	-0.390	-0.460
2020/01/31 19:06:27.6	74.650	0.180	-0.450	-0.550
2020/01/31 19:06:27.7	74.680	0.220	-0.500	-0.640
2020/01/31 19:06:27.8	74.710	0.260	-0.540	-0.730
2020/01/31 19:06:27.9	74.740	0.300	-0.590	-0.820
2020/01/31 19:06:28.0	74.770	0.340	-0.630	-0.890
2020/01/31 19:06:28.1	74.790	0.380	-0.670	-0.960
2020/01/31 19:06:28.2	74.820	0.410	-0.700	-1.030
2020/01/31 19:06:28.3	74.840	0.440	-0.720	-1.090
2020/01/31 19:06:28.4	74.850	0.470	-0.740	-1.140
2020/01/31 19:06:28.5	74.860	0.500	-0.750	-1.190
2020/01/31 19:06:28.6	74.870	0.520	-0.760	-1.220
2020/01/31 19:06:28.7	74.870	0.540	-0.760	-1.260
2020/01/31 19:06:28.8	74.860	0.550	-0.750	-1.280
2020/01/31 19:06:28.9	74.860	0.560	-0.740	-1.300
2020/01/31 19:06:29.0	74.840	0.570	-0.710	-1.320
2020/01/31 19:06:29.1	74.830	0.570	-0.690	-1.330
2020/01/31 19:06:29.2	74.810	0.570	-0.650	-1.330
2020/01/31 19:06:29.3	74.790	0.570	-0.610	-1.330
2020/01/31 19:06:29.4	74.770	0.560	-0.570	-1.320
2020/01/31 19:06:29.5	74.740	0.550	-0.520	-1.310
2020/01/31 19:06:29.6	74.710	0.530	-0.460	-1.290
2020/01/31 19:06:29.7	74.680	0.510	-0.410	-1.270
2020/01/31 19:06:29.8	74.640	0.490	-0.350	-1.250
2020/01/31 19:06:29.9	74.610	0.470	-0.290	-1.220
2020/01/31 19:06:30.0	74.570	0.440	-0.230	-1.200
2020/01/31 19:06:30.1	74.530	0.410	-0.170	-1.170
2020/01/31 19:06:30.2	74.500	0.380	-0.110	-1.140
2020/01/31 19:06:30.3	74.460	0.350	-0.060	-1.100
2020/01/31 19:06:30.4	74.430	0.310	-0.000	-1.070
2020/01/31 19:06:30.5	74.400	0.280	0.050	-1.040
2020/01/31 19:06:30.6	74.370	0.240	0.090	-1.010
2020/01/31 19:06:30.7	74.340	0.200	0.140	-0.970
2020/01/31 19:06:30.8	74.310	0.170	0.180	-0.940
2020/01/31 19:06:30.9	74.290	0.130	0.210	-0.910
2020/01/31 19:06:31.0	74.260	0.100	0.240	-0.880
2020/01/31 19:06:31.1	74.250	0.060	0.270	-0.850
2020/01/31 19:06:31.2	74.230	0.030	0.280	-0.820
2020/01/31 19:06:31.3	74.210	-0.000	0.300	-0.790
2020/01/31 19:06:31.4	74.200	-0.030	0.310	-0.750
2020/01/31 19:06:31.5	74.190	-0.060	0.310	-0.730
2020/01/31 19:06:31.6	74.190	-0.090	0.310	-0.700
2020/01/31 19:06:31.7	74.180	-0.110	0.300	-0.670
2020/01/31 19:06:31.8	74.180	-0.130	0.290	-0.640
2020/01/31 19:06:31.9	74.180	-0.150	0.270	-0.610
2020/01/31 19:06:32.0	74.190	-0.170	0.250	-0.580
2020/01/31 19:06:32.1	74.190	-0.190	0.230	-0.550
2020/01/31 19:06:32.2	74.200	-0.200	0.200	-0.520
2020/01/31 19:06:32.3	74.210	-0.210	0.170	-0.500
2020/01/31 19:06:32.4	74.220	-0.210	0.140	-0.470
2020/01/31 19:06:32.5	74.230	-0.220	0.110	-0.440
2020/01/31 19:06:32.6	74.250	-0.220	0.070	-0.410
2020/01/31 19:06:32.7	74.270	-0.220	0.030	-0.390
2020/01/31 19:06:32.8	74.290	-0.210	-0.010	-0.360
2020/01/31 19:06:32.9	74.310	-0.210	-0.050	-0.330
2020/01/31 19:06:33.0	74.340	-0.200	-0.080	-0.300
2020/01/31 19:06:33.1	74.360	-0.190	-0.120	-0.270
2020/01/31 19:06:33.2	74.390	-0.180	-0.160	-0.240
2020/01/31 19:06:33.3	74.430	-0.160	-0.190	-0.220
2020/01/31 19:06:33.4	74.460	-0.150	-0.220	-0.190
2020/01/31 19:06:33.5	74.490	-0.130	-0.260	-0.160
2020/01/31 19:06:33.6	74.530	-0.120	-0.280	-0.130
2020/01/31 19:06:33.7	74.570	-0.100	-0.310	-0.100
2020/01/31 19:06:33.8	74.610	-0.080	-0.330	-0.080
2020/01/31 19:06:33.9	74.650	-0.070	-0.340	-0.050
2020/01/31 19:06:34.0	74.690	-0.050	-0.360	-0.020
2020/01/31 19:06:34.1	74.730	-0.040	-0.370	0.010
2020/01/31 19:06:34.2	74.770	-0.020	-0.370	0.040
2020/01/31 19:06:34.3	74.810	-0.010	-0.380	0.070
2020/01/31 19:06:34.4	74.850	0.000	-0.370	0.110
2020/01/31 19:06:34.5	74.890	0.010	-0.370	0.140
2020/01/31 19:06:34.6	74.920	0.020	-0.360	0.170
2020/01/31 19:06:34.7	74.960	0.030	-0.340	0.210
2020/01/31 19:06:34.8	74.990	0.040	-0.330	0.250
2020/01/31 19:06:34.9	75.020	0.040	-0.310	0.290
2020/01/31 19:06:35.0	75.050	0.040	-0.280	0.320
2020/01/31 19:06:35.1	75.070	0.040	-0.250	0.370
2020/01/31 19:06:35.2	75.100	0.030	-0.220	0.410
2020/01/31 19:06:35.3	75.120	0.030	-0.190	0.450
2020/01/31 19:06:35.4	75.140	0.020	-0.150	0.500
2020/01/31 19:06:35.5	75.150	0.010	-0.120	0.540
2020/01/31 19:06:35.6	75.170	-0.000	-0.080	0.590
2020/01/31 19:06:35.7	75.180	-0.010	-0.050	0.640
2020/01/31 19:06:35.8	75.180	-0.030	-0.010	0.700
2020/01/31 19:06:35.9	75.190	-0.050	0.030	0.750
2020/01/31 19:06:36.0	75.190	-0.070	0.060	0.800
2020/01/31 19:06:36.1	75.190	-0.090	0.100	0.860
2020/01/31 19:06:36.2	75.190	-0.110	0.130	0.920
2020/01/31 19:06:36.3	75.180	-0.130	0.160	0.980
2020/01/31 19:06:36.4	75.170	-0.150	0.180	1.040
2020/01/31 19:06:36.5	75.160	-0.180	0.210	1.100
2020/01/31 19:06:36.6	75.150	-0.200	0.230	1.160
2020/01/31 19:06:36.7	75.140	-0.220	0.250	1.220
2020/01/31 19:06:36.8	75.120	-0.250	0.260	1.280
2020/01/31 19:06:36.9	75.100	-0.270	0.270	1.340
2020/01/31 19:06:37.0	75.080	-0.290	0.280	1.400
2020/01/31 19:06:37.1	75.060	-0.320	0.280	1.460
2020/01/31 19:06:37.2	75.040	-0.340	0.280	1.520
2020/01/31 19:06:37.3	75.020	-0.360	0.280	1.580
2020/01/31 19:06:37.4	74.990	-0.370	0.270	1.640
2020/01/31 19:06:37.5	74.960	-0.390	0.260	1.690
2020/01/31 19:06:37.6	74.940	-0.410	0.240	1.740
2020/01/31 19:06:37.7	74.910	-0.420	0.220	1.790
2020/01/31 19:06:37.8	74.880	-0.430	0.200	1.840
2020/01/31 19:06:37.9	74.850	-0.440	0.170	1.880
2020/01/31 19:06:38.0	74.830	-0.450	0.140	1.920
2020/01/31 19:06:38.1	74.800	-0.450	0.110	1.950
2020/01/31 19:06:38.2	74.770	-0.450	0.070	1.980
2020/01/31 19:06:38.3	74.740	-0.450	0.030	2.010
2020/01/31 19:06:38.4	74.710	-0.440	-0.020	2.020
2020/01/31 19:06:38.5	74.690	-0.440	-0.070	2.040
2020/01/31 19:06:38.6	74.660	-0.430	-0.120	2.050
2020/01/31 19:06:38.7	74.640	-0.410	-0.170	2.050
2020/01/31 19:06:38.8	74.620	-0.400	-0.230	2.040
2020/01/31 19:06:38.9	74.600	-0.380	-0.280	2.030
2020/01/31 19:06:39.0	74.580	-0.360	-0.340	2.020
2020/01/31 19:06:39.1	74.560	-0.330	-0.400	2.000
2020/01/31 19:06:39.2	74.550	-0.310	-0.470	1.970
2020/01/31 19:06:39.3	74.530	-0.280	-0.530	1.940
2020/01/31 19:06:39.4	74.520	-0.240	-0.590	1.900
2020/01/31 19:06:39.5	74.510	-0.210	-0.650	1.850
2020/01/31 19:06:39.6	74.510	-0.170	-0.710	1.800
2020/01/31 19:06:39.7	74.500	-0.140	-0.760	1.740
2020/01/31 19:06:39.8	74.510	-0.100	-0.820	1.680
2020/01/31 19:06:39.9	74.510	-0.050	-0.870	1.620
2020/01/31 19:06:40.0	74.510	-0.010	-0.920	1.550
2020/01/31 19:06:40.1	74.520	0.040	-0.970	1.470
2020/01/31 19:06:40.2	74.530	0.080	-1.010	1.390
2020/01/31 19:06:40.3	74.540	0.130	-1.040	1.310
2020/01/31 19:06:40.4	74.550	0.180	-1.070	1.220
2020/01/31 19:06:40.5	74.570	0.220	-1.100	1.140
2020/01/31 19:06:40.6	74.590	0.270	-1.120	1.050
2020/01/31 19:06:40.7	74.600	0.320	-1.130	0.950
2020/01/31 19:06:40.8	74.620	0.370	-1.130	0.860
2020/01/31 19:06:40.9	74.640	0.410	-1.130	0.760
2020/01/31 19:06:41.0	74.670	0.460	-1.120	0.670
2020/01/31 19:06:41.1	74.690	0.500	-1.110	0.570
2020/01/31 19:06:41.2	74.710	0.550	-1.090	0.480
2020/01/31 19:06:41.3	74.740	0.590	-1.060	0.390
2020/01/31 19:06:41.4	74.760	0.620	-1.030	0.290
2020/01/31 19:06:41.5	74.790	0.660	-0.990	0.200
2020/01/31 19:06:41.6	74.810	0.690	-0.950	0.110
2020/01/31 19:06:41.7	74.840	0.720	-0.900	0.020
2020/01/31 19:06:41.8	74.860	0.750	-0.840	-0.070
2020/01/31 19:06:41.9	74.890	0.770	-0.780	-0.160
2020/01/31 19:06:42.0	74.910	0.790	-0.720	-0.240
2020/01/31 19:06:42.1	74.940	0.800	-0.650	-0.330
2020/01/31 19:06:42.2	74.960	0.810	-0.580	-0.410
2020/01/31 19:06:42.3	74.980	0.820	-0.510	-0.490
2020/01/31 19:06:42.4	75.010	0.820	-0.440	-0.560
2020/01/31 19:06:42.5	75.030	0.820	-0.370	-0.640
2020/01/31 19:06:42.6	75.050	0.820	-0.300	-0.710
2020/01/31 19:06:42.7	75.070	0.810	-0.220	-0.770
2020/01/31 19:06:42.8	75.080	0.800	-0.150	-0.840
2020/01/31 19:06:42.9	75.090	0.780	-0.070	-0.900
2020/01/31 19:06:43.0	75.110	0.760	-0.000	-0.950
2020/01/31 19:06:43.1	75.120	0.730	0.070	-1.010
2020/01/31 19:06:43.2	75.130	0.700	0.130	-1.050
2020/01/31 19:06:43.3	75.130	0.670	0.200	-1.090
2020/01/31 19:06:43.4	75.140	0.630	0.260	-1.130
2020/01/31 19:06:43.5	75.140	0.590	0.320	-1.160
2020/01/31 19:06:43.6	75.140	0.550	0.370	-1.190
2020/01/31 19:06:43.7	75.130	0.500	0.420	-1.220
2020/01/31 19:06:43.8	75.120	0.450	0.470	-1.240
2020/01/31 19:06:43.9	75.120	0.400	0.510	-1.250
2020/01/31 19:06:44.0	75.100	0.350	0.550	-1.260
2020/01/31 19:06:44.1	75.090	0.290	0.590	-1.270
2020/01/31 19:06:44.2	75.070	0.240	0.620	-1.270
2020/01/31 19:06:44.3	75.050	0.180	0.650	-1.270
2020/01/31 19:06:44.4	75.030	0.120	0.670	-1.260
2020/01/31 19:06:44.5	75.010	0.060	0.690	-1.250
2020/01/31 19:06:44.6	74.980	0.000	0.700	-1.240
2020/01/31 19:06:44.7	74.960	-0.060	0.710	-1.230
2020/01/31 19:06:44.8	74.930	-0.110	0.720	-1.210
2020/01/31 19:06:44.9	74.910	-0.170	0.720	-1.190
2020/01/31 19:06:45.0	74.880	-0.230	0.720	-1.170
2020/01/31 19:06:45.1	74.850	-0.280	0.710	-1.140
2020/01/31 19:06:45.2	74.820	-0.330	0.700	-1.110
2020/01/31 19:06:45.3	74.800	-0.380	0.690	-1.080
2020/01/31 19:06:45.4	74.770	-0.430	0.670	-1.040
2020/01/31 19:06:45.5	74.750	-0.470	0.650	-1.010
2020/01/31 19:06:45.6	74.720	-0.510	0.620	-0.970
2020/01/31 19:06:45.7	74.700	-0.550	0.590	-0.930
2020/01/31 19:06:45.8	74.670	-0.580	0.560	-0.880
2020/01/31 19:06:45.9	74.660	-0.610	0.530	-0.840
2020/01/31 19:06:46.0	74.640	-0.640	0.490	-0.790
2020/01/31 19:06:46.1	74.630	-0.660	0.440	-0.750
2020/01/31 19:06:46.2	74.620	-0.680	0.400	-0.700
2020/01/31 19:06:46.3	74.610	-0.690	0.350	-0.640
2020/01/31 19:06:46.4	74.600	-0.700	0.300	-0.590
2020/01/31 19:06:46.5	74.600	-0.700	0.250	-0.540
2020/01/31 19:06:46.6	74.600	-0.700	0.190	-0.480
2020/01/31 19:06:46.7	74.600	-0.700	0.140	-0.430
2020/01/31 19:06:46.8	74.600	-0.690	0.080	-0.370
2020/01/31 19:06:46.9	74.610	-0.670	0.020	-0.310
2020/01/31 19:06:47.0	74.620	-0.660	-0.040	-0.250
2020/01/31 19:06:47.1	74.630	-0.640	-0.100	-0.190
2020/01/31 19:06:47.2	74.640	-0.620	-0.160	-0.130
2020/01/31 19:06:47.3	74.650	-0.590	-0.220	-0.070
2020/01/31 19:06:47.4	74.670	-0.560	-0.280	-0.010
2020/01/31 19:06:47.5	74.690	-0.540	-0.340	0.050
2020/01/31 19:06:47.6	74.710	-0.500	-0.400	0.100
2020/01/31 19:06:47.7	74.730	-0.470	-0.450	0.160
2020/01/31 19:06:47.8	74.750	-0.440	-0.500	0.220
2020/01/31 19:06:47.9	74.780	-0.410	-0.550	0.280
2020/01/31 19:06:48.0	74.800	-0.370	-0.590	0.340
2020/01/31 19:06:48.1	74.830	-0.340	-0.630	0.390
2020/01/31 19:06:48.2	74.860	-0.310	-0.670	0.450
2020/01/31 19:06:48.3	74.880	-0.270	-0.700	0.500
2020/01/31 19:06:48.4	74.910	-0.240	-0.720	0.550
2020/01/31 19:06:48.5	74.930	-0.210	-0.740	0.610
2020/01/31 19:06:48.6	74.960	-0.190	-0.760	0.660
2020/01/31 19:06:48.7	74.980	-0.160	-0.760	0.710
2020/01/31 19:06:48.8	75.010	-0.140	-0.770	0.760
2020/01/31 19:06:48.9	75.030	-0.120	-0.760	0.810
2020/01/31 19:06:49.0	75.050	-0.100	-0.750	0.860
2020/01/31 19:06:49.1	75.060	-0.090	-0.740	0.900
2020/01/31 19:06:49.2	75.080	-0.070	-0.720	0.950
2020/01/31 19:06:49.3	75.090	-0.060	-0.700	0.990
2020/01/31 19:06:49.4	75.110	-0.060	-0.670	1.030
2020/01/31 19:06:49.5	75.120	-0.050	-0.630	1.070
2020/01/31 19:06:49.6	75.120	-0.050	-0.600	1.110
2020/01/31 19:06:49.7	75.130	-0.050	-0.560	1.150
2020/01/31 19:06:49.8	75.130	-0.050	-0.510	1.180
2020/01/31 19:06:49.9	75.140	-0.050	-0.470	1.210
2020/01/31 19:06:50.0	75.130	-0.060	-0.420	1.240
2020/01/31 19:06:50.1	75.130	-0.060	-0.370	1.270
2020/01/31 19:06:50.2	75.130	-0.070	-0.330	1.290
2020/01/31 19:06:50.3	75.120	-0.080	-0.280	1.310
2020/01/31 19:06:50.4	75.110	-0.090	-0.240	1.330
2020/01/31 19:06:50.5	75.100	-0.090	-0.190	1.340
2020/01/31 19:06:50.6	75.090	-0.100	-0.150	1.360
2020/01/31 19:06:50.7	75.080	-0.110	-0.110	1.360
2020/01/31 19:06:50.8	75.070	-0.110	-0.080	1.370
2020/01/31 19:06:50.9	75.060	-0.120	-0.040	1.370
2020/01/31 19:06:51.0	75.040	-0.120	-0.020	1.370
2020/01/31 19:06:51.1	75.030	-0.130	0.010	1.360
2020/01/31 19:06:51.2	75.010	-0.130	0.030	1.350
2020/01/31 19:06:51.3	74.990	-0.130	0.040	1.340
2020/01/31 19:06:51.4	74.970	-0.120	0.050	1.330
2020/01/31 19:06:51.5	74.950	-0.120	0.060	1.310
2020/01/31 19:06:51.6	74.930	-0.110	0.060	1.290
2020/01/31 19:06:51.7	74.910	-0.100	0.050	1.270
2020/01/31 19:06:51.8	74.880	-0.080	0.040	1.250
2020/01/31 19:06:51.9	74.860	-0.070	0.030	1.230
2020/01/31 19:06:52.0	74.830	-0.050	0.010	1.200
2020/01/31 19:06:52.1	74.810	-0.030	-0.010	1.180
2020/01/31 19:06:52.2	74.780	-0.000	-0.040	1.160
2020/01/31 19:06:52.3	74.750	0.020	-0.080	1.130
2020/01/31 19:06:52.4	74.720	0.050	-0.110	1.110
2020/01/31 19:06:52.5	74.690	0.080	-0.150	1.090
2020/01/31 19:06:52.6	74.660	0.110	-0.190	1.060
2020/01/31 19:06:52.7	74.630	0.140	-0.240	1.040
2020/01/31 19:06:52.8	74.600	0.180	-0.280	1.010
2020/01/31 19:06:52.9	74.570	0.210	-0.330	0.980
2020/01/31 19:06:53.0	74.550	0.240	-0.380	0.950
2020/01/31 19:06:53.1	74.520	0.280	-0.430	0.930
2020/01/31 19:06:53.2	74.500	0.310	-0.480	0.900
2020/01/31 19:06:53.3	74.480	0.350	-0.530	0.870
2020/01/31 19:06:53.4	74.460	0.380	-0.580	0.830
2020/01/31 19:06:53.5	74.450	0.410	-0.620	0.800
2020/01/31 19:06:53.6	74.430	0.450	-0.660	0.760
2020/01/31 19:06:53.7	74.420	0.480	-0.710	0.720
2020/01/31 19:06:53.8	74.410	0.500	-0.740	0.680
2020/01/31 19:06:53.9	74.410	0.530	-0.780	0.640
2020/01/31 19:06:54.0	74.400	0.550	-0.810	0.590
2020/01/31 19:06:54.1	74.410	0.570	-0.830	0.550
2020/01/31 19:06:54.2	74.410	0.590	-0.860	0.500
2020/01/31 19:06:54.3	74.420	0.610	-0.870	0.450
2020/01/31 19:06:54.4	74.430	0.620	-0.880	0.390
2020/01/31 19:06:54.5	74.440	0.630	-0.890	0.340
2020/01/31 19:06:54.6	74.460	0.640	-0.890	0.280
2020/01/31 19:06:54.7	74.480	0.640	-0.890	0.220
2020/01/31 19:06:54.8	74.500	0.640	-0.880	0.160
2020/01/31 19:06:54.9	74.530	0.630	-0.860	0.100
2020/01/31 19:06:55.0	74.550	0.630	-0.840	0.040
2020/01/31 19:06:55.1	74.580	0.620	-0.820	-0.030
2020/01/31 19:06:55.2	74.610	0.610	-0.790	-0.090
2020/01/31 19:06:55.3	74.640	0.590	-0.760	-0.150
2020/01/31 19:06:55.4	74.670	0.570	-0.720	-0.220
2020/01/31 19:06:55.5	74.710	0.550	-0.670	-0.280
2020/01/31 19:06:55.6	74.740	0.530	-0.630	-0.340
2020/01/31 19:06:55.7	74.770	0.510	-0.570	-0.410
2020/01/31 19:06:55.8	74.810	0.480	-0.520	-0.470
2020/01/31 19:06:55.9	74.840	0.450	-0.460	-0.530
2020/01/31 19:06:56.0	74.880	0.420	-0.400	-0.590
2020/01/31 19:06:56.1	74.910	0.390	-0.330	-0.640
2020/01/31 19:06:56.2	74.940	0.360	-0.270	-0.690
2020/01/31 19:06:56.3	74.980	0.330	-0.200	-0.740
2020/01/31 19:06:56.4	75.010	0.300	-0.130	-0.790
2020/01/31 19:06:56.5	75.040	0.270	-0.060	-0.830
2020/01/31 19:06:56.6	75.070	0.230	0.010	-0.870
2020/01/31 19:06:56.7	75.090	0.200	0.080	-0.900
2020/01/31 19:06:56.8	75.120	0.170	0.150	-0.930
2020/01/31 19:06:56.9	75.140	0.130	0.230	-0.960
2020/01/31 19:06:57.0	75.160	0.100	0.300	-0.980
2020/01/31 19:06:57.1	75.180	0.060	0.370	-0.990
2020/01/31 19:06:57.2	75.190	0.030	0.440	-1.000
2020/01/31 19:06:57.3	75.200	-0.000	0.510	-1.000
2020/01/31 19:06:57.4	75.210	-0.040	0.570	-0.990
2020/01/31 19:06:57.5	75.220	-0.070	0.640	-0.980
2020/01/31 19:06:57.6	75.220	-0.100	0.700	-0.960
2020/01/31 19:06:57.7	75.220	-0.140	0.760	-0.930
2020/01/31 19:06:57.8	75.210	-0.170	0.810	-0.890
2020/01/31 19:06:57.9	75.210	-0.210	0.860	-0.850
2020/01/31 19:06:58.0	75.190	-0.240	0.910	-0.800
2020/01/31 19:06:58.1	75.180	-0.270	0.950	-0.750
2020/01/31 19:06:58.2	75.160	-0.310	0.990	-0.690
2020/01/31 19:06:58.3	75.140	-0.340	1.030	-0.620
2020/01/31 19:06:58.4	75.110	-0.380	1.050	-0.550
2020/01/31 19:06:58.5	75.090	-0.410	1.070	-0.470
2020/01/31 19:06:58.6	75.060	-0.440	1.090	-0.390
2020/01/31 19:06:58.7	75.030	-0.480	1.100	-0.310
2020/01/31 19:06:58.8	75.000	-0.510	1.100	-0.230
2020/01/31 19:06:58.9	74.960	-0.540	1.090	-0.140
2020/01/31 19:06:59.0	74.930	-0.570	1.080	-0.060
2020/01/31 19:06:59.1	74.890	-0.600	1.060	0.030
2020/01/31 19:06:59.2	74.860	-0.620	1.040	0.120
2020/01/31 19:06:59.3	74.830	-0.650	1.000	0.200
2020/01/31 19:06:59.4	74.790	-0.670	0.960	0.280
2020/01/31 19:06:59.5	74.760	-0.690	0.910	0.360
2020/01/31 19:06:59.6	74.730	-0.710	0.850	0.430
2020/01/31 19:06:59.7	74.710	-0.730	0.790	0.500
2020/01/31 19:06:59.8	74.680	-0.740	0.720	0.570
2020/01/31 19:06:59.9	74.660	-0.750	0.640	0.620
2020/01/31 19:07:00.0	74.650	-0.760	0.550	0.670
2020/01/31 19:07:00.1	74.630	-0.760	0.460	0.720
2020/01/31 19:07:00.2	74.630	-0.760	0.360	0.750
2020/01/31 19:07:00.3	74.620	-0.760	0.260	0.780
2020/01/31 19:07:00.4	74.620	-0.750	0.150	0.800
2020/01/31 19:07:00.5	74.630	-0.740	0.030	0.810
2020/01/31 19:07:00.6	74.640	-0.730	-0.080	0.810
2020/01/31 19:07:00.7	74.650	-0.710	-0.200	0.810
2020/01/31 19:07:00.8	74.670	-0.680	-0.330	0.800
2020/01/31 19:07:00.9	74.690	-0.660	-0.450	0.780
2020/01/31 19:07:01.0	74.720	-0.620	-0.580	0.750
2020/01/31 19:07:01.1	74.750	-0.590	-0.700	0.720
2020/01/31 19:07:01.2	74.780	-0.550	-0.820	0.690
2020/01/31 19:07:01.3	74.820	-0.510	-0.940	0.650
2020/01/31 19:07:01.4	74.850	-0.460	-1.050	0.610
2020/01/31 19:07:01.5	74.890	-0.410	-1.160	0.560
2020/01/31 19:07:01.6	74.930	-0.360	-1.260	0.520
2020/01/31 19:07:01.7	74.970	-0.310	-1.350	0.470
2020/01/31 19:07:01.8	75.020	-0.250	-1.440	0.430
2020/01/31 19:07:01.9	75.060	-0.200	-1.510	0.380
2020/01/31 19:07:02.0	75.100	-0.140	-1.580	0.340
2020/01/31 19:07:02.1	75.140	-0.080	-1.640	0.300
2020/01/31 19:07:02.2	75.190	-0.020	-1.690	0.260
2020/01/31 19:07:02.3	75.230	0.040	-1.720	0.230
2020/01/31 19:07:02.4	75.270	0.100	-1.750	0.200
2020/01/31 19:07:02.5	75.310	0.160	-1.760	0.180
2020/01/31 19:07:02.6	75.340	0.220	-1.760	0.160
2020/01/31 19:07:02.7	75.380	0.280	-1.750	0.140
2020/01/31 19:07:02.8	75.410	0.330	-1.730	0.130
2020/01/31 19:07:02.9	75.440	0.380	-1.700	0.130
2020/01/31 19:07:03.0	75.470	0.430	-1.650	0.130
2020/01/31 19:07:03.1	75.500	0.480	-1.600	0.130
2020/01/31 19:07:03.2	75.520	0.520	-1.540	0.140
2020/01/31 19:07:03.3	75.540	0.560	-1.470	0.160
2020/01/31 19:07:03.4	75.560	0.600	-1.390	0.180
2020/01/31 19:07:03.5	75.580	0.630	-1.310	0.210
2020/01/31 19:07:03.6	75.590	0.660	-1.220	0.240
2020/01/31 19:07:03.7	75.610	0.680	-1.120	0.270
2020/01/31 19:07:03.8	75.630	0.700	-1.020	0.310
2020/01/31 19:07:03.9	75.630	0.710	-0.920	0.360
2020/01/31 19:07:04.0	75.640	0.720	-0.810	0.400
2020/01/31 19:07:04.1	75.650	0.720	-0.700	0.450
2020/01/31 19:07:04.2	75.650	0.720	-0.590	0.500
2020/01/31 19:07:04.3	75.650	0.710	-0.480	0.560
2020/01/31 19:07:04.4	75.650	0.700	-0.370	0.610
2020/01/31 19:07:04.5	75.650	0.680	-0.260	0.670
2020/01/31 19:07:04.6	75.650	0.660	-0.160	0.730
2020/01/31 19:07:04.7	75.650	0.640	-0.050	0.790
2020/01/31 19:07:04.8	75.650	0.610	0.050	0.850
2020/01/31 19:07:04.9	75.640	0.570	0.150	0.910
2020/01/31 19:07:05.0	75.630	0.540	0.240	0.970
2020/01/31 19:07:05.1	75.620	0.500	0.330	1.020
2020/01/31 19:07:05.2	75.610	0.450	0.420	1.080
2020/01/31 19:07:05.3	75.600	0.410	0.500	1.140
2020/01/31 19:07:05.4	75.590	0.360	0.570	1.190
2020/01/31 19:07:05.5	75.570	0.310	0.640	1.240
2020/01/31 19:07:05.6	75.560	0.260	0.700	1.290
2020/01/31 19:07:05.7	75.540	0.200	0.760	1.340
2020/01/31 19:07:05.8	75.530	0.150	0.810	1.380
2020/01/31 19:07:05.9	75.510	0.100	0.850	1.420
2020/01/31 19:07:06.0	75.500	0.040	0.890	1.450
2020/01/31 19:07:06.1	75.480	-0.010	0.920	1.480
2020/01/31 19:07:06.2	75.470	-0.060	0.950	1.510
2020/01/31 19:07:06.3	75.460	-0.110	0.960	1.520
2020/01/31 19:07:06.4	75.440	-0.160	0.970	1.540
2020/01/31 19:07:06.5	75.430	-0.200	0.970	1.550
2020/01/31 19:07:06.6	75.420	-0.240	0.970	1.550
2020/01/31 19:07:06.7	75.410	-0.280	0.950	1.540
2020/01/31 19:07:06.8	75.410	-0.320	0.930	1.530
2020/01/31 19:07:06.9	75.400	-0.350	0.900	1.510
2020/01/31 19:07:07.0	75.400	-0.380	0.860	1.480
2020/01/31 19:07:07.1	75.400	-0.400	0.820	1.450
2020/01/31 19:07:07.2	75.410	-0.420	0.770	1.410
2020/01/31 19:07:07.3	75.410	-0.440	0.710	1.370
2020/01/31 19:07:07.4	75.420	-0.450	0.650	1.320
2020/01/31 19:07:07.5	75.430	-0.460	0.580	1.260
2020/01/31 19:07:07.6	75.440	-0.460	0.510	1.200
2020/01/31 19:07:07.7	75.460	-0.460	0.440	1.130
2020/01/31 19:07:07.8	75.470	-0.460	0.360	1.050
2020/01/31 19:07:07.9	75.490	-0.450	0.280	0.980
2020/01/31 19:07:08.0	75.500	-0.440	0.200	0.910
2020/01/31 19:07:08.1	75.510	-0.420	0.110	0.830
2020/01/31 19:07:08.2	75.530	-0.410	0.030	0.750
2020/01/31 19:07:08.3	75.540	-0.390	-0.050	0.680
2020/01/31 19:07:08.4	75.550	-0.370	-0.130	0.600
2020/01/31 19:07:08.5	75.560	-0.340	-0.210	0.530
2020/01/31 19:07:08.6	75.560	-0.320	-0.280	0.460
2020/01/31 19:07:08.7	75.570	-0.290	-0.350	0.390
2020/01/31 19:07:08.8	75.570	-0.260	-0.410	0.330
2020/01/31 19:07:08.9	75.570	-0.240	-0.470	0.270
2020/01/31 19:07:09.0	75.560	-0.210	-0.520	0.210
2020/01/31 19:07:09.1	75.560	-0.180	-0.570	0.160
2020/01/31 19:07:09.2	75.550	-0.150	-0.610	0.100
2020/01/31 19:07:09.3	75.540	-0.130	-0.650	0.060
2020/01/31 19:07:09.4	75.530	-0.100	-0.680	0.010
2020/01/31 19:07:09.5	75.520	-0.070	-0.710	-0.040
2020/01/31 19:07:09.6	75.500	-0.050	-0.730	-0.080
2020/01/31 19:07:09.7	75.490	-0.020	-0.740	-0.120
2020/01/31 19:07:09.8	75.470	-0.000	-0.750	-0.160
2020/01/31 19:07:09.9	75.450	0.020	-0.760	-0.200
2020/01/31 19:07:10.0	75.440	0.040	-0.760	-0.230
2020/01/31 19:07:10.1	75.430	0.060	-0.760	-0.270
2020/01/31 19:07:10.2	75.420	0.080	-0.750	-0.300
2020/01/31 19:07:10.3	75.410	0.090	-0.750	-0.340
2020/01/31 19:07:10.4	75.410	0.110	-0.730	-0.370
2020/01/31 19:07:10.5	75.400	0.120	-0.720	-0.410
2020/01/31 19:07:10.6	75.400	0.130	-0.710	-0.440
2020/01/31 19:07:10.7	75.410	0.150	-0.690	-0.480
2020/01/31 19:07:10.8	75.410	0.160	-0.680	-0.520
2020/01/31 19:07:10.9	75.420	0.170	-0.660	-0.560
2020/01/31 19:07:11.0	75.430	0.180	-0.650	-0.600
2020/01/31 19:07:11.1	75.450	0.190	-0.630	-0.640
2020/01/31 19:07:11.2	75.470	0.200	-0.620	-0.680
2020/01/31 19:07:11.3	75.490	0.210	-0.610	-0.720
2020/01/31 19:07:11.4	75.520	0.220	-0.600	-0.750
2020/01/31 19:07:11.5	75.550	0.230	-0.590	-0.790
2020/01/31 19:07:11.6	75.580	0.250	-0.580	-0.830
2020/01/31 19:07:11.7	75.620	0.260	-0.580	-0.870
2020/01/31 19:07:11.8	75.650	0.270	-0.570	-0.900
2020/01/31 19:07:11.9	75.690	0.290	-0.560	-0.940
2020/01/31 19:07:12.0	75.740	0.300	-0.560	-0.970
2020/01/31 19:07:12.1	75.780	0.320	-0.560	-0.990
2020/01/31 19:07:12.2	75.830	0.340	-0.550	-1.020
2020/01/31 19:07:12.3	75.870	0.350	-0.550	-1.040
2020/01/31 19:07:12.4	75.920	0.370	-0.540	-1.050
2020/01/31 19:07:12.5	75.960	0.390	-0.540	-1.060
2020/01/31 19:07:12.6	76.010	0.400	-0.530	-1.070
2020/01/31 19:07:12.7	76.050	0.420	-0.530	-1.070
2020/01/31 19:07:12.8	76.090	0.440	-0.520	-1.070
2020/01/31 19:07:12.9	76.130	0.450	-0.510	-1.060
2020/01/31 19:07:13.0	76.170	0.470	-0.490	-1.040
2020/01/31 19:07:13.1	76.200	0.480	-0.480	-1.020
2020/01/31 19:07:13.2	76.240	0.490	-0.460	-0.990
2020/01/31 19:07:13.3	76.270	0.500	-0.440	-0.960
2020/01/31 19:07:13.4	76.290	0.510	-0.410	-0.920
2020/01/31 19:07:13.5	76.320	0.520	-0.390	-0.880
2020/01/31 19:07:13.6	76.340	0.520	-0.360	-0.830
2020/01/31 19:07:13.7	76.350	0.520	-0.320	-0.770
2020/01/31 19:07:13.8	76.360	0.520	-0.290	-0.710
2020/01/31 19:07:13.9	76.370	0.510	-0.250	-0.640
2020/01/31 19:07:14.0	76.370	0.500	-0.210	-0.570
2020/01/31 19:07:14.1	76.370	0.490	-0.160	-0.490
2020/01/31 19:07:14.2	76.360	0.470	-0.120	-0.410
2020/01/31 19:07:14.3	76.350	0.450	-0.070	-0.330
2020/01/31 19:07:14.4	76.340	0.430	-0.020	-0.240
2020/01/31 19:07:14.5	76.320	0.400	0.040	-0.140
2020/01/31 19:07:14.6	76.300	0.370	0.090	-0.050
2020/01/31 19:07:14.7	76.280	0.330	0.140	0.050
2020/01/31 19:07:14.8	76.250	0.290	0.200	0.150
2020/01/31 19:07:14.9	76.220	0.250	0.250	0.260
2020/01/31 19:07:15.0	76.190	0.210	0.310	0.360
2020/01/31 19:07:15.1	76.160	0.160	0.360	0.470
2020/01/31 19:07:15.2	76.120	0.100	0.410	0.570
2020/01/31 19:07:15.3	76.080	0.050	0.460	0.680
2020/01/31 19:07:15.4	76.050	-0.010	0.510	0.780
2020/01/31 19:07:15.5	76.010	-0.070	0.550	0.880
2020/01/31 19:07:15.6	75.970	-0.130	0.590	0.980
2020/01/31 19:07:15.7	75.930	-0.200	0.620	1.080
2020/01/31 19:07:15.8	75.900	-0.260	0.660	1.170
2020/01/31 19:07:15.9	75.870	-0.330	0.680	1.250
2020/01/31 19:07:16.0	75.830	-0.390	0.700	1.330
2020/01/31 19:07:16.1	75.800	-0.460	0.720	1.410
2020/01/31 19:07:16.2	75.780	-0.520	0.720	1.480
2020/01/31 19:07:16.3	75.750	-0.580	0.730	1.540
2020/01/31 19:07:16.4	75.730	-0.640	0.720	1.600
2020/01/31 19:07:16.5	75.710	-0.700	0.710	1.650
2020/01/31 19:07:16.6	75.700	-0.750	0.700	1.690
2020/01/31 19:07:16.7	75.690	-0.800	0.670	1.730
2020/01/31 19:07:16.8	75.680	-0.850	0.640	1.760
2020/01/31 19:07:16.9	75.670	-0.890	0.610	1.790
2020/01/31 19:07:17.0	75.670	-0.930	0.570	1.810
2020/01/31 19:07:17.1	75.670	-0.960	0.530	1.830
2020/01/31 19:07:17.2	75.670	-0.990	0.480	1.840
2020/01/31 19:07:17.3	75.670	-1.010	0.430	1.840
2020/01/31 19:07:17.4	75.680	-1.030	0.380	1.850
2020/01/31 19:07:17.5	75.690	-1.040	0.320	1.850
2020/01/31 19:07:17.6	75.690	-1.050	0.260	1.840
2020/01/31 19:07:17.7	75.700	-1.050	0.200	1.840
2020/01/31 19:07:17.8	75.720	-1.040	0.140	1.820
2020/01/31 19:07:17.9	75.730	-1.030	0.080	1.810
2020/01/31 19:07:18.0	75.740	-1.010	0.010	1.800
2020/01/31 19:07:18.1	75.760	-0.980	-0.050	1.780
2020/01/31 19:07:18.2	75.770	-0.950	-0.120	1.760
2020/01/31 19:07:18.3	75.790	-0.910	-0.180	1.730
2020/01/31 19:07:18.4	75.800	-0.870	-0.250	1.710
2020/01/31 19:07:18.5	75.820	-0.820	-0.310	1.680
2020/01/31 19:07:18.6	75.840	-0.770	-0.370	1.650
2020/01/31 19:07:18.7	75.850	-0.710	-0.430	1.620
2020/01/31 19:07:18.8	75.870	-0.650	-0.500	1.580
2020/01/31 19:07:18.9	75.890	-0.590	-0.550	1.550
2020/01/31 19:07:19.0	75.910	-0.520	-0.610	1.510
2020/01/31 19:07:19.1	75.930	-0.450	-0.660	1.470
2020/01/31 19:07:19.2	75.940	-0.370	-0.710	1.430
2020/01/31 19:07:19.3	75.960	-0.300	-0.750	1.380
2020/01/31 19:07:19.4	75.980	-0.220	-0.790	1.330
2020/01/31 19:07:19.5	76.000	-0.140	-0.830	1.290
2020/01/31 19:07:19.6	76.020	-0.060	-0.870	1.240
2020/01/31 19:07:19.7	76.040	0.020	-0.900	1.190
2020/01/31 19:07:19.8	76.060	0.100	-0.930	1.130
2020/01/31 19:07:19.9	76.080	0.170	-0.960	1.080
2020/01/31 19:07:20.0	76.100	0.250	-0.980	1.030
2020/01/31 19:07:20.1	76.110	0.320	-1.000	0.980
2020/01/31 19:07:20.2	76.130	0.400	-1.010	0.930
2020/01/31 19:07:20.3	76.140	0.460	-1.020	0.880
2020/01/31 19:07:20.4	76.160	0.530	-1.030	0.830
2020/01/31 19:07:20.5	76.170	0.590	-1.030	0.780
2020/01/31 19:07:20.6	76.180	0.650	-1.030	0.740
2020/01/31 19:07:20.7	76.180	0.700	-1.030	0.690
2020/01/31 19:07:20.8	76.190	0.750	-1.020	0.650
2020/01/31 19:07:20.9	76.190	0.800	-1.010	0.610
2020/01/31 19:07:21.0	76.190	0.840	-0.990	0.570
2020/01/31 19:07:21.1	76.180	0.870	-0.970	0.540
2020/01/31 19:07:21.2	76.180	0.900	-0.950	0.500
2020/01/31 19:07:21.3	76.170	0.930	-0.920	0.470
2020/01/31 19:07:21.4	76.160	0.940	-0.900	0.440
2020/01/31 19:07:21.5	76.150	0.960	-0.860	0.410
2020/01/31 19:07:21.6	76.130	0.960	-0.830	0.380
2020/01/31 19:07:21.7	76.120	0.960	-0.790	0.350
2020/01/31 19:07:21.8	76.100	0.960	-0.750	0.320
2020/01/31 19:07:21.9	76.080	0.950	-0.710	0.290
2020/01/31 19:07:22.0	76.060	0.930	-0.660	0.260
2020/01/31 19:07:22.1	76.040	0.910	-0.610	0.230
2020/01/31 19:07:22.2	76.020	0.890	-0.570	0.190
2020/01/31 19:07:22.3	76.000	0.860	-0.520	0.160
2020/01/31 19:07:22.4	75.980	0.830	-0.460	0.130
2020/01/31 19:07:22.5	75.960	0.790	-0.410	0.090
2020/01/31 19:07:22.6	75.940	0.750	-0.350	0.060
2020/01/31 19:07:22.7	75.920	0.700	-0.300	0.020
2020/01/31 19:07:22.8	75.900	0.660	-0.240	-0.020
2020/01/31 19:07:22.9	75.890	0.610	-0.180	-0.070
2020/01/31 19:07:23.0	75.870	0.560	-0.130	-0.110
2020/01/31 19:07:23.1	75.860	0.500	-0.070	-0.150
2020/01/31 19:07:23.2	75.840	0.450	-0.010	-0.200
2020/01/31 19:07:23.3	75.830	0.390	0.040	-0.240
2020/01/31 19:07:23.4	75.810	0.330	0.100	-0.290
2020/01/31 19:07:23.5	75.800	0.280	0.150	-0.340
2020/01/31 19:07:23.6	75.790	0.220	0.210	-0.380
2020/01/31 19:07:23.7	75.780	0.160	0.260	-0.430
2020/01/31 19:07:23.8	75.770	0.110	0.310	-0.480
2020/01/31 19:07:23.9	75.760	0.050	0.360	-0.520
2020/01/31 19:07:24.0	75.750	0.000	0.410	-0.560
2020/01/31 19:07:24.1	75.730	-0.050	0.450	-0.600
2020/01/31 19:07:24.2	75.720	-0.100	0.490	-0.640
2020/01/31 19:07:24.3	75.710	-0.150	0.530	-0.680
2020/01/31 19:07:24.4	75.700	-0.190	0.570	-0.710
2020/01/31 19:07:24.5	75.690	-0.230	0.600	-0.740
2020/01/31 19:07:24.6	75.680	-0.270	0.630	-0.760
2020/01/31 19:07:24.7	75.670	-0.300	0.660	-0.790
2020/01/31 19:07:24.8	75.660	-0.330	0.680	-0.810
2020/01/31 19:07:24.9	75.660	-0.360	0.700	-0.820
2020/01/31 19:07:25.0	75.650	-0.380	0.710	-0.840
2020/01/31 19:07:25.1	75.640	-0.400	0.720	-0.850
2020/01/31 19:07:25.2	75.630	-0.410	0.720	-0.850
2020/01/31 19:07:25.3	75.630	-0.430	0.720	-0.850
2020/01/31 19:07:25.4	75.630	-0.430	0.710	-0.850
2020/01/31 19:07:25.5	75.620	-0.440	0.690	-0.850
2020/01/31 19:07:25.6	75.620	-0.430	0.680	-0.840
2020/01/31 19:07:25.7	75.630	-0.430	0.650	-0.840
2020/01/31 19:07:25.8	75.630	-0.420	0.620	-0.830
2020/01/31 19:07:25.9	75.640	-0.410	0.580	-0.810
2020/01/31 19:07:26.0	75.640	-0.400	0.540	-0.800
2020/01/31 19:07:26.1	75.650	-0.380	0.490	-0.790
2020/01/31 19:07:26.2	75.660	-0.360	0.440	-0.770
2020/01/31 19:07:26.3	75.680	-0.340	0.380	-0.750
2020/01/31 19:07:26.4	75.690	-0.310	0.320	-0.730
2020/01/31 19:07:26.5	75.710	-0.290	0.260	-0.710
2020/01/31 19:07:26.6	75.720	-0.260	0.190	-0.690
2020/01/31 19:07:26.7	75.740	-0.230	0.120	-0.660
2020/01/31 19:07:26.8	75.760	-0.200	0.050	-0.640
2020/01/31 19:07:26.9	75.770	-0.180	-0.020	-0.600
2020/01/31 19:07:27.0	75.790	-0.150	-0.100	-0.570
2020/01/31 19:07:27.1	75.800	-0.120	-0.170	-0.530
2020/01/31 19:07:27.2	75.820	-0.090	-0.240	-0.490
2020/01/31 19:07:27.3	75.830	-0.060	-0.310	-0.450
2020/01/31 19:07:27.4	75.840	-0.040	-0.380	-0.400
2020/01/31 19:07:27.5	75.850	-0.010	-0.450	-0.350
2020/01/31 19:07:27.6	75.850	0.010	-0.510	-0.300
2020/01/31 19:07:27.7	75.860	0.030	-0.570	-0.240
2020/01/31 19:07:27.8	75.870	0.050	-0.640	-0.180
2020/01/31 19:07:27.9	75.870	0.060	-0.690	-0.120
2020/01/31 19:07:28.0	75.870	0.070	-0.740	-0.050
2020/01/31 19:07:28.1	75.860	0.080	-0.790	0.020
2020/01/31 19:07:28.2	75.860	0.090	-0.820	0.090
2020/01/31 19:07:28.3	75.850	0.090	-0.860	0.160
2020/01/31 19:07:28.4	75.840	0.090	-0.890	0.230
2020/01/31 19:07:28.5	75.830	0.090	-0.910	0.310
2020/01/31 19:07:28.6	75.810	0.090	-0.930	0.380
2020/01/31 19:07:28.7	75.800	0.080	-0.940	0.460
2020/01/31 19:07:28.8	75.790	0.070	-0.950	0.540
2020/01/31 19:07:28.9	75.770	0.060	-0.950	0.620
2020/01/31 19:07:29.0	75.750	0.050	-0.950	0.690
2020/01/31 19:07:29.1	75.720	0.030	-0.940	0.770
2020/01/31 19:07:29.2	75.700	0.020	-0.920	0.850
2020/01/31 19:07:29.3	75.680	0.000	-0.910	0.920
2020/01/31 19:07:29.4	75.650	-0.020	-0.890	1.000
2020/01/31 19:07:29.5	75.620	-0.030	-0.860	1.070
2020/01/31 19:07:29.6	75.600	-0.050	-0.830	1.140
2020/01/31 19:07:29.7	75.570	-0.070	-0.800	1.210
2020/01/31 19:07:29.8	75.550	-0.080	-0.770	1.280
2020/01/31 19:07:29.9	75.530	-0.100	-0.730	1.340
2020/01/31 19:07:30.0	75.500	-0.110	-0.690	1.410
2020/01/31 19:07:30.1	75.480	-0.120	-0.650	1.460
2020/01/31 19:07:30.2	75.460	-0.130	-0.600	1.520
2020/01/31 19:07:30.3	75.430	-0.140	-0.560	1.570
2020/01/31 19:07:30.4	75.410	-0.150	-0.510	1.620
2020/01/31 19:07:30.5	75.390	-0.150	-0.470	1.660
2020/01/31 19:07:30.6	75.380	-0.150	-0.420	1.700
2020/01/31 19:07:30.7	75.360	-0.150	-0.380	1.730
2020/01/31 19:07:30.8	75.350	-0.150	-0.330	1.760
2020/01/31 19:07:30.9	75.340	-0.140	-0.290	1.790
2020/01/31 19:07:31.0	75.330	-0.130	-0.250	1.810
2020/01/31 19:07:31.1	75.320	-0.120	-0.210	1.830
2020/01/31 19:07:31.2	75.310	-0.110	-0.180	1.840
2020/01/31 19:07:31.3	75.310	-0.090	-0.150	1.850
2020/01/31 19:07:31.4	75.310	-0.080	-0.120	1.850
2020/01/31 19:07:31.5	75.300	-0.060	-0.090	1.850
2020/01/31 19:07:31.6	75.300	-0.040	-0.060	1.850
2020/01/31 19:07:31.7	75.310	-0.030	-0.040	1.840
2020/01/31 19:07:31.8	75.310	-0.010	-0.030	1.820
2020/01/31 19:07:31.9	75.310	0.010	-0.010	1.800
2020/01/31 19:07:32.0	75.320	0.030	0.000	1.780
2020/01/31 19:07:32.1	75.320	0.040	0.020	1.750
2020/01/31 19:07:32.2	75.330	0.060	0.030	1.720
2020/01/31 19:07:32.3	75.330	0.070	0.040	1.690
2020/01/31 19:07:32.4	75.340	0.080	0.050	1.650
2020/01/31 19:07:32.5	75.350	0.090	0.060	1.610
2020/01/31 19:07:32.6	75.360	0.100	0.070	1.570
2020/01/31 19:07:32.7	75.360	0.110	0.080	1.530
2020/01/31 19:07:32.8	75.360	0.110	0.100	1.480
2020/01/31 19:07:32.9	75.370	0.110	0.110	1.430
2020/01/31 19:07:33.0	75.370	0.110	0.120	1.380
2020/01/31 19:07:33.1	75.380	0.110	0.130	1.320
2020/01/31 19:07:33.2	75.380	0.100	0.150	1.270
2020/01/31 19:07:33.3	75.380	0.090	0.160	1.210
2020/01/31 19:07:33.4	75.380	0.080	0.180	1.160
2020/01/31 19:07:33.5	75.380	0.070	0.190	1.100
2020/01/31 19:07:33.6	75.380	0.050	0.210	1.050
2020/01/31 19:07:33.7	75.380	0.040	0.230	0.990
2020/01/31 19:07:33.8	75.370	0.020	0.250	0.930
2020/01/31 19:07:33.9	75.360	-0.010	0.270	0.870
2020/01/31 19:07:34.0	75.350	-0.030	0.290	0.810
2020/01/31 19:07:34.1	75.340	-0.050	0.310	0.760
2020/01/31 19:07:34.2	75.330	-0.080	0.330	0.700
2020/01/31 19:07:34.3	75.320	-0.110	0.350	0.640
2020/01/31 19:07:34.4	75.300	-0.130	0.360	0.580
2020/01/31 19:07:34.5	75.280	-0.160	0.380	0.530
2020/01/31 19:07:34.6	75.260	-0.190	0.400	0.470
2020/01/31 19:07:34.7	75.240	-0.220	0.410	0.410
2020/01/31 19:07:34.8	75.220	-0.240	0.420	0.360
2020/01/31 19:07:34.9	75.200	-0.270	0.440	0.300
2020/01/31 19:07:35.0	75.170	-0.300	0.440	0.250
2020/01/31 19:07:35.1	75.150	-0.320	0.450	0.190
2020/01/31 19:07:35.2	75.120	-0.340	0.450	0.140
2020/01/31 19:07:35.3	75.100	-0.360	0.450	0.080
2020/01/31 19:07:35.4	75.070	-0.380	0.450	0.030
2020/01/31 19:07:35.5	75.050	-0.400	0.440	-0.020
2020/01/31 19:07:35.6	75.020	-0.420	0.430	-0.080
2020/01/31 19:07:35.7	75.000	-0.430	0.420	-0.130
2020/01/31 19:07:35.8	74.970	-0.440	0.400	-0.190
2020/01/31 19:07:35.9	74.950	-0.450	0.380	-0.240
2020/01/31 19:07:36.0	74.930	-0.450	0.360	-0.290
2020/01/31 19:07:36.1	74.910	-0.450	0.330	-0.350
2020/01/31 19:07:36.2	74.890	-0.450	0.290	-0.400
2020/01/31 19:07:36.3	74.870	-0.450	0.260	-0.450
2020/01/31 19:07:36.4	74.850	-0.440	0.210	-0.510
2020/01/31 19:07:36.5	74.840	-0.430	0.170	-0.560
2020/01/31 19:07:36.6	74.820	-0.420	0.110	-0.610
2020/01/31 19:07:36.7	74.810	-0.400	0.060	-0.670
2020/01/31 19:07:36.8	74.800	-0.380	0.000	-0.720
2020/01/31 19:07:36.9	74.800	-0.360	-0.060	-0.770
2020/01/31 19:07:37.0	74.790	-0.340	-0.130	-0.810
2020/01/31 19:07:37.1	74.780	-0.310	-0.190	-0.860
2020/01/31 19:07:37.2	74.780	-0.280	-0.260	-0.910
2020/01/31 19:07:37.3	74.770	-0.250	-0.340	-0.950
2020/01/31 19:07:37.4	74.770	-0.220	-0.410	-1.000
2020/01/31 19:07:37.5	74.770	-0.180	-0.480	-1.040
2020/01/31 19:07:37.6	74.770	-0.140	-0.560	-1.080
2020/01/31 19:07:37.7	74.770	-0.100	-0.630	-1.110
2020/01/31 19:07:37.8	74.770	-0.060	-0.710	-1.150
2020/01/31 19:07:37.9	74.770	-0.020	-0.780	-1.180
2020/01/31 19:07:38.0	74.780	0.020	-0.850	-1.200
2020/01/31 19:07:38.1	74.780	0.060	-0.910	-1.230
2020/01/31 19:07:38.2	74.790	0.110	-0.980	-1.250
2020/01/31 19:07:38.3	74.790	0.150	-1.040	-1.270
2020/01/31 19:07:38.4	74.800	0.200	-1.090	-1.280
2020/01/31 19:07:38.5	74.810	0.240	-1.140	-1.290
2020/01/31 19:07:38.6	74.820	0.280	-1.180	-1.300
2020/01/31 19:07:38.7	74.830	0.320	-1.220	-1.300
2020/01/31 19:07:38.8	74.830	0.370	-1.250	-1.300
2020/01/31 19:07:38.9	74.840	0.410	-1.270	-1.300
2020/01/31 19:07:39.0	74.850	0.440	-1.290	-1.290
2020/01/31 19:07:39.1	74.850	0.480	-1.290	-1.270
2020/01/31 19:07:39.2	74.860	0.510	-1.300	-1.250
2020/01/31 19:07:39.3	74.870	0.550	-1.290	-1.230
2020/01/31 19:07:39.4	74.880	0.580	-1.280	-1.200
2020/01/31 19:07:39.5	74.880	0.600	-1.260	-1.170
2020/01/31 19:07:39.6	74.890	0.630	-1.230	-1.140
2020/01/31 19:07:39.7	74.890	0.650	-1.200	-1.100
2020/01/31 19:07:39.8	74.900	0.670	-1.160	-1.060
2020/01/31 19:07:39.9	74.900	0.690	-1.120	-1.010
2020/01/31 19:07:40.0	74.900	0.700	-1.070	-0.970
2020/01/31 19:07:40.1	74.900	0.710	-1.010	-0.910
2020/01/31 19:07:40.2	74.900	0.710	-0.960	-0.860
2020/01/31 19:07:40.3	74.900	0.720	-0.890	-0.800
2020/01/31 19:07:40.4	74.890	0.720	-0.830	-0.740
2020/01/31 19:07:40.5	74.890	0.710	-0.760	-0.670
2020/01/31 19:07:40.6	74.880	0.710	-0.690	-0.610
2020/01/31 19:07:40.7	74.870	0.700	-0.620	-0.540
2020/01/31 19:07:40.8	74.850	0.680	-0.540	-0.470
2020/01/31 19:07:40.9	74.840	0.660	-0.470	-0.390
2020/01/31 19:07:41.0	74.820	0.640	-0.390	-0.310
2020/01/31 19:07:41.1	74.800	0.620	-0.310	-0.230
2020/01/31 19:07:41.2	74.780	0.590	-0.230	-0.140
2020/01/31 19:07:41.3	74.750	0.560	-0.160	-0.050
2020/01/31 19:07:41.4	74.730	0.530	-0.080	0.040
2020/01/31 19:07:41.5	74.700	0.500	-0.010	0.130
2020/01/31 19:07:41.6	74.670	0.460	0.060	0.220
2020/01/31 19:07:41.7	74.640	0.420	0.130	0.320
2020/01/31 19:07:41.8	74.620	0.380	0.200	0.410
2020/01/31 19:07:41.9	74.590	0.340	0.270	0.510
2020/01/31 19:07:42.0	74.560	0.300	0.320	0.600
2020/01/31 19:07:42.1	74.530	0.260	0.380	0.700
2020/01/31 19:07:42.2	74.500	0.220	0.420	0.790
2020/01/31 19:07:42.3	74.480	0.170	0.470	0.880
2020/01/31 19:07:42.4	74.450	0.130	0.500	0.970
2020/01/31 19:07:42.5	74.420	0.080	0.540	1.050
2020/01/31 19:07:42.6	74.400	0.040	0.560	1.140
2020/01/31 19:07:42.7	74.380	-0.000	0.580	1.210
2020/01/31 19:07:42.8	74.370	-0.050	0.590	1.290
2020/01/31 19:07:42.9	74.350	-0.090	0.600	1.360
2020/01/31 19:07:43.0	74.330	-0.130	0.610	1.420
2020/01/31 19:07:43.1	74.320	-0.170	0.610	1.480
2020/01/31 19:07:43.2	74.310	-0.210	0.610	1.540
2020/01/31 19:07:43.3	74.300	-0.240	0.600	1.590
2020/01/31 19:07:43.4	74.290	-0.280	0.590	1.630
2020/01/31 19:07:43.5	74.290	-0.310	0.570	1.670
2020/01/31 19:07:43.6	74.280	-0.340	0.550	1.700
2020/01/31 19:07:43.7	74.280	-0.370	0.530	1.730
2020/01/31 19:07:43.8	74.280	-0.400	0.520	1.760
2020/01/31 19:07:43.9	74.280	-0.430	0.500	1.780
2020/01/31 19:07:44.0	74.280	-0.450	0.470	1.790
2020/01/31 19:07:44.1	74.280	-0.470	0.450	1.800
2020/01/31 19:07:44.2	74.280	-0.490	0.420	1.810
2020/01/31 19:07:44.3	74.280	-0.510	0.400	1.810
2020/01/31 19:07:44.4	74.290	-0.520	0.370	1.810
2020/01/31 19:07:44.5	74.290	-0.540	0.350	1.800
2020/01/31 19:07:44.6	74.290	-0.550	0.320	1.800
2020/01/31 19:07:44.7	74.290	-0.560	0.300	1.790
2020/01/31 19:07:44.8	74.300	-0.560	0.280	1.770
2020/01/31 19:07:44.9	74.300	-0.570	0.250	1.760
2020/01/31 19:07:45.0	74.300	-0.570	0.230	1.740
2020/01/31 19:07:45.1	74.300	-0.570	0.210	1.720
2020/01/31 19:07:45.2	74.300	-0.570	0.180	1.700
2020/01/31 19:07:45.3	74.310	-0.560	0.160	1.680
2020/01/31 19:07:45.4	74.310	-0.560	0.140	1.650
2020/01/31 19:07:45.5	74.310	-0.550	0.110	1.620
2020/01/31 19:07:45.6	74.310	-0.540	0.090	1.590
2020/01/31 19:07:45.7	74.310	-0.530	0.060	1.560
2020/01/31 19:07:45.8	74.320	-0.520	0.040	1.530
2020/01/31 19:07:45.9	74.320	-0.500	0.010	1.490
2020/01/31 19:07:46.0	74.320	-0.490	-0.020	1.450
2020/01/31 19:07:46.1	74.330	-0.470	-0.050	1.410
2020/01/31 19:07:46.2	74.330	-0.450	-0.080	1.370
2020/01/31 19:07:46.3	74.330	-0.430	-0.110	1.330
2020/01/31 19:07:46.4	74.330	-0.410	-0.140	1.280
2020/01/31 19:07:46.5	74.340	-0.390	-0.180	1.230
2020/01/31 19:07:46.6	74.340	-0.360	-0.210	1.180
2020/01/31 19:07:46.7	74.340	-0.340	-0.250	1.130
2020/01/31 19:07:46.8	74.350	-0.310	-0.290	1.070
2020/01/31 19:07:46.9	74.350	-0.280	-0.330	1.010
2020/01/31 19:07:47.0	74.360	-0.250	-0.370	0.960
2020/01/31 19:07:47.1	74.360	-0.230	-0.410	0.890
2020/01/31 19:07:47.2	74.360	-0.200	-0.450	0.830
2020/01/31 19:07:47.3	74.370	-0.170	-0.490	0.760
2020/01/31 19:07:47.4	74.370	-0.130	-0.530	0.700
2020/01/31 19:07:47.5	74.370	-0.100	-0.570	0.630
2020/01/31 19:07:47.6	74.380	-0.070	-0.610	0.560
2020/01/31 19:07:47.7	74.380	-0.040	-0.640	0.500
2020/01/31 19:07:47.8	74.380	-0.000	-0.680	0.430
2020/01/31 19:07:47.9	74.380	0.030	-0.710	0.360
2020/01/31 19:07:48.0	74.380	0.060	-0.740	0.300
2020/01/31 19:07:48.1	74.380	0.090	-0.770	0.230
2020/01/31 19:07:48.2	74.380	0.130	-0.800	0.170
2020/01/31 19:07:48.3	74.380	0.160	-0.820	0.110
2020/01/31 19:07:48.4	74.380	0.190	-0.840	0.050
2020/01/31 19:07:48.5	74.380	0.220	-0.850	-0.000
2020/01/31 19:07:48.6	74.380	0.250	-0.860	-0.050
2020/01/31 19:07:48.7	74.380	0.280	-0.870	-0.100
2020/01/31 19:07:48.8	74.370	0.310	-0.880	-0.150
2020/01/31 19:07:48.9	74.370	0.340	-0.870	-0.190
2020/01/31 19:07:49.0	74.370	0.360	-0.870	-0.230
2020/01/31 19:07:49.1	74.370	0.390	-0.860	-0.260
2020/01/31 19:07:49.2	74.370	0.410	-0.840	-0.290
2020/01/31 19:07:49.3	74.380	0.430	-0.820	-0.320
2020/01/31 19:07:49.4	74.380	0.450	-0.800	-0.350
2020/01/31 19:07:49.5	74.380	0.460	-0.770	-0.370
2020/01/31 19:07:49.6	74.380	0.480	-0.730	-0.390
2020/01/31 19:07:49.7	74.380	0.490	-0.700	-0.410
2020/01/31 19:07:49.8	74.380	0.490	-0.650	-0.420
2020/01/31 19:07:49.9	74.390	0.500	-0.610	-0.430
2020/01/31 19:07:50.0	74.390	0.500	-0.560	-0.440
2020/01/31 19:07:50.1	74.400	0.500	-0.520	-0.450
2020/01/31 19:07:50.2	74.400	0.490	-0.470	-0.460
2020/01/31 19:07:50.3	74.410	0.480	-0.410	-0.460
2020/01/31 19:07:50.4	74.410	0.470	-0.360	-0.470
2020/01/31 19:07:50.5	74.420	0.460	-0.310	-0.470
2020/01/31 19:07:50.6	74.420	0.440	-0.250	-0.470
2020/01/31 19:07:50.7	74.430	0.420	-0.190	-0.470
2020/01/31 19:07:50.8	74.430	0.400	-0.140	-0.470
2020/01/31 19:07:50.9	74.430	0.370	-0.080	-0.460
2020/01/31 19:07:51.0	74.430	0.340	-0.020	-0.460
2020/01/31 19:07:51.1	74.430	0.310	0.030	-0.450
2020/01/31 19:07:51.2	74.430	0.280	0.090	-0.440
2020/01/31 19:07:51.3	74.420	0.250	0.140	-0.430
2020/01/31 19:07:51.4	74.420	0.210	0.190	-0.410
2020/01/31 19:07:51.5	74.410	0.180	0.250	-0.400
2020/01/31 19:07:51.6	74.400	0.140	0.290	-0.380
2020/01/31 19:07:51.7	74.390	0.100	0.340	-0.360
2020/01/31 19:07:51.8	74.380	0.060	0.380	-0.340
2020/01/31 19:07:51.9	74.370	0.020	0.420	-0.320
2020/01/31 19:07:52.0	74.350	-0.020	0.460	-0.300
2020/01/31 19:07:52.1	74.330	-0.060	0.490	-0.270
2020/01/31 19:07:52.2	74.320	-0.090	0.520	-0.250
2020/01/31 19:07:52.3	74.300	-0.130	0.550	-0.220
2020/01/31 19:07:52.4	74.280	-0.170	0.570	-0.190
2020/01/31 19:07:52.5	74.260	-0.200	0.580	-0.160
2020/01/31 19:07:52.6	74.240	-0.240	0.600	-0.130
2020/01/31 19:07:52.7	74.210	-0.270	0.600	-0.090
2020/01/31 19:07:52.8	74.190	-0.300	0.600	-0.060
2020/01/31 19:07:52.9	74.170	-0.320	0.600	-0.020
2020/01/31 19:07:53.0	74.140	-0.350	0.590	0.020
2020/01/31 19:07:53.1	74.120	-0.370	0.570	0.060
2020/01/31 19:07:53.2	74.100	-0.390	0.550	0.090
2020/01/31 19:07:53.3	74.080	-0.400	0.530	0.130
2020/01/31 19:07:53.4	74.060	-0.410	0.500	0.170
2020/01/31 19:07:53.5	74.040	-0.420	0.460	0.210
2020/01/31 19:07:53.6	74.020	-0.430	0.420	0.250
2020/01/31 19:07:53.7	74.000	-0.430	0.370	0.290
2020/01/31 19:07:53.8	73.980	-0.430	0.320	0.330
2020/01/31 19:07:53.9	73.960	-0.430	0.270	0.370
2020/01/31 19:07:54.0	73.940	-0.420	0.210	0.410
2020/01/31 19:07:54.1	73.930	-0.410	0.150	0.450
2020/01/31 19:07:54.2	73.910	-0.400	0.080	0.500
2020/01/31 19:07:54.3	73.900	-0.390	0.010	0.540
2020/01/31 19:07:54.4	73.880	-0.370	-0.060	0.580
2020/01/31 19:07:54.5	73.870	-0.350	-0.130	0.620
2020/01/31 19:07:54.6	73.860	-0.330	-0.210	0.650
2020/01/31 19:07:54.7	73.850	-0.300	-0.280	0.690
2020/01/31 19:07:54.8	73.840	-0.270	-0.360	0.730
2020/01/31 19:07:54.9	73.830	-0.240	-0.440	0.770
2020/01/31 19:07:55.0	73.820	-0.210	-0.510	0.800
2020/01/31 19:07:55.1	73.820	-0.180	-0.590	0.840
2020/01/31 19:07:55.2	73.810	-0.140	-0.670	0.870
2020/01/31 19:07:55.3	73.810	-0.110	-0.740	0.890
2020/01/31 19:07:55.4	73.810	-0.070	-0.810	0.920
2020/01/31 19:07:55.5	73.820	-0.040	-0.880	0.940
2020/01/31 19:07:55.6	73.820	0.000	-0.940	0.950
2020/01/31 19:07:55.7	73.830	0.040	-1.000	0.970
2020/01/31 19:07:55.8	73.840	0.070	-1.060	0.970
2020/01/31 19:07:55.9	73.850	0.110	-1.110	0.970
2020/01/31 19:07:56.0	73.860	0.150	-1.160	0.970
2020/01/31 19:07:56.1	73.880	0.180	-1.200	0.970
2020/01/31 19:07:56.2	73.900	0.220	-1.230	0.960
2020/01/31 19:07:56.3	73.920	0.250	-1.260	0.940
2020/01/31 19:07:56.4	73.950	0.280	-1.270	0.930
2020/01/31 19:07:56.5	73.980	0.320	-1.290	0.900
2020/01/31 19:07:56.6	74.010	0.340	-1.290	0.880
2020/01/31 19:07:56.7	74.040	0.370	-1.280	0.850
2020/01/31 19:07:56.8	74.070	0.400	-1.270	0.820
2020/01/31 19:07:56.9	74.100	0.420	-1.250	0.780
2020/01/31 19:07:57.0	74.140	0.440	-1.220	0.750
2020/01/31 19:07:57.1	74.180	0.460	-1.180	0.710
2020/01/31 19:07:57.2	74.210	0.470	-1.140	0.670
2020/01/31 19:07:57.3	74.250	0.480	-1.090	0.630
2020/01/31 19:07:57.4	74.290	0.490	-1.030	0.600
2020/01/31 19:07:57.5	74.320	0.500	-0.960	0.560
2020/01/31 19:07:57.6	74.360	0.500	-0.890	0.530
2020/01/31 19:07:57.7	74.390	0.500	-0.810	0.490
2020/01/31 19:07:57.8	74.420	0.490	-0.720	0.460
2020/01/31 19:07:57.9	74.450	0.490	-0.630	0.430
2020/01/31 19:07:58.0	74.470	0.470	-0.530	0.410
2020/01/31 19:07:58.1	74.500	0.460	-0.420	0.390
2020/01/31 19:07:58.2	74.520	0.440	-0.320	0.380
2020/01/31 19:07:58.3	74.530	0.420	-0.210	0.370
2020/01/31 19:07:58.4	74.540	0.390	-0.090	0.360
2020/01/31 19:07:58.5	74.550	0.370	0.020	0.360
2020/01/31 19:07:58.6	74.550	0.340	0.140	0.370
2020/01/31 19:07:58.7	74.550	0.300	0.250	0.380
2020/01/31 19:07:58.8	74.550	0.270	0.370	0.390
2020/01/31 19:07:58.9	74.540	0.230	0.490	0.410
2020/01/31 19:07:59.0	74.520	0.190	0.600	0.440
2020/01/31 19:07:59.1	74.510	0.150	0.710	0.470
2020/01/31 19:07:59.2	74.490	0.100	0.810	0.500
2020/01/31 19:07:59.3	74.460	0.060	0.910	0.540
2020/01/31 19:07:59.4	74.430	0.020	1.000	0.590
2020/01/31 19:07:59.5	74.400	-0.030	1.080	0.630
2020/01/31 19:07:59.6	74.370	-0.070	1.160	0.680
2020/01/31 19:07:59.7	74.330	-0.120	1.220	0.730
2020/01/31 19:07:59.8	74.300	-0.160	1.280	0.780
2020/01/31 19:07:59.9	74.260	-0.200	1.320	0.830
2020/01/31 19:08:00.0	74.210	-0.240	1.350	0.890
2020/01/31 19:08:00.1	74.170	-0.280	1.370	0.940
2020/01/31 19:08:00.2	74.130	-0.310	1.380	0.990
2020/01/31 19:08:00.3	74.090	-0.340	1.370	1.030
2020/01/31 19:08:00.4	74.050	-0.370	1.350	1.080
2020/01/31 19:08:00.5	74.020	-0.400	1.310	1.120
2020/01/31 19:08:00.6	73.980	-0.420	1.260	1.150
2020/01/31 19:08:00.7	73.950	-0.430	1.200	1.180
2020/01/31 19:08:00.8	73.920	-0.450	1.120	1.200
2020/01/31 19:08:00.9	73.900	-0.460	1.040	1.220
2020/01/31 19:08:01.0	73.880	-0.460	0.930	1.230
2020/01/31 19:08:01.1	73.860	-0.460	0.820	1.240
2020/01/31 19:08:01.2	73.850	-0.450	0.700	1.240
2020/01/31 19:08:01.3	73.840	-0.450	0.570	1.240
2020/01/31 19:08:01.4	73.830	-0.430	0.430	1.230
2020/01/31 19:08:01.5	73.830	-0.420	0.280	1.210
2020/01/31 19:08:01.6	73.830	-0.400	0.130	1.190
2020/01/31 19:08:01.7	73.830	-0.380	-0.030	1.170
2020/01/31 19:08:01.8	73.840	-0.350	-0.200	1.140
2020/01/31 19:08:01.9	73.850	-0.320	-0.360	1.110
2020/01/31 19:08:02.0	73.860	-0.290	-0.520	1.080
2020/01/31 19:08:02.1	73.870	-0.260	-0.670	1.050
2020/01/31 19:08:02.2	73.880	-0.230	-0.830	1.020
2020/01/31 19:08:02.3	73.890	-0.200	-0.980	0.980
2020/01/31 19:08:02.4	73.910	-0.160	-1.120	0.950
2020/01/31 19:08:02.5	73.920	-0.130	-1.250	0.920
2020/01/31 19:08:02.6	73.930	-0.100	-1.380	0.880
2020/01/31 19:08:02.7	73.940	-0.070	-1.490	0.850
2020/01/31 19:08:02.8	73.950	-0.030	-1.590	0.820
2020/01/31 19:08:02.9	73.960	-0.010	-1.680	0.790
2020/01/31 19:08:03.0	73.970	0.020	-1.760	0.760
2020/01/31 19:08:03.1	73.970	0.050	-1.820	0.730
2020/01/31 19:08:03.2	73.980	0.070	-1.860	0.700
2020/01/31 19:08:03.3	73.980	0.090	-1.890	0.680
2020/01/31 19:08:03.4	73.980	0.110	-1.910	0.650
2020/01/31 19:08:03.5	73.990	0.130	-1.910	0.630
2020/01/31 19:08:03.6	73.990	0.140	-1.890	0.610
2020/01/31 19:08:03.7	73.990	0.150	-1.860	0.590
2020/01/31 19:08:03.8	73.980	0.150	-1.810	0.560
2020/01/31 19:08:03.9	73.980	0.160	-1.750	0.540
2020/01/31 19:08:04.0	73.970	0.160	-1.680	0.530
2020/01/31 19:08:04.1	73.970	0.160	-1.590	0.510
2020/01/31 19:08:04.2	73.960	0.160	-1.500	0.500
2020/01/31 19:08:04.3	73.960	0.150	-1.390	0.480
2020/01/31 19:08:04.4	73.950	0.150	-1.280	0.470
2020/01/31 19:08:04.5	73.940	0.140	-1.150	0.460
2020/01/31 19:08:04.6	73.930	0.130	-1.020	0.450
2020/01/31 19:08:04.7	73.920	0.120	-0.890	0.440
2020/01/31 19:08:04.8	73.920	0.100	-0.740	0.420
2020/01/31 19:08:04.9	73.910	0.090	-0.600	0.410
2020/01/31 19:08:05.0	73.900	0.080	-0.460	0.410
2020/01/31 19:08:05.1	73.890	0.070	-0.320	0.400
2020/01/31 19:08:05.2	73.880	0.050	-0.180	0.390
2020/01/31 19:08:05.3	73.870	0.040	-0.040	0.390
2020/01/31 19:08:05.4	73.860	0.030	0.100	0.390
2020/01/31 19:08:05.5	73.850	0.020	0.220	0.380
2020/01/31 19:08:05.6	73.840	0.010	0.350	0.380
2020/01/31 19:08:05.7	73.830	-0.000	0.460	0.380
2020/01/31 19:08:05.8	73.820	-0.010	0.570	0.370
2020/01/31 19:08:05.9	73.820	-0.020	0.670	0.370
2020/01/31 19:08:06.0	73.810	-0.020	0.760	0.370
2020/01/31 19:08:06.1	73.800	-0.030	0.840	0.360
2020/01/31 19:08:06.2	73.790	-0.030	0.910	0.360
2020/01/31 19:08:06.3	73.790	-0.040	0.970	0.360
2020/01/31 19:08:06.4	73.780	-0.040	1.010	0.350
2020/01/31 19:08:06.5	73.770	-0.040	1.050	0.350
2020/01/31 19:08:06.6	73.770	-0.040	1.070	0.340
2020/01/31 19:08:06.7	73.760	-0.030	1.080	0.330
2020/01/31 19:08:06.8	73.750	-0.030	1.090	0.320
2020/01/31 19:08:06.9	73.750	-0.030	1.080	0.310
2020/01/31 19:08:07.0	73.740	-0.020	1.060	0.300
2020/01/31 19:08:07.1	73.740	-0.020	1.030	0.280
2020/01/31 19:08:07.2	73.740	-0.010	0.990	0.270
2020/01/31 19:08:07.3	73.730	-0.010	0.950	0.250
2020/01/31 19:08:07.4	73.730	-0.000	0.900	0.230
2020/01/31 19:08:07.5	73.730	0.010	0.840	0.210
2020/01/31 19:08:07.6	73.730	0.010	0.780	0.190
2020/01/31 19:08:07.7	73.720	0.020	0.710	0.160
2020/01/31 19:08:07.8	73.720	0.020	0.640	0.140
2020/01/31 19:08:07.9	73.720	0.030	0.560	0.110
2020/01/31 19:08:08.0	73.710	0.040	0.490	0.090
2020/01/31 19:08:08.1	73.710	0.040	0.410	0.060
2020/01/31 19:08:08.2	73.710	0.050	0.330	0.040
2020/01/31 19:08:08.3	73.700	0.050	0.260	0.010
2020/01/31 19:08:08.4	73.700	0.060	0.180	-0.010
2020/01/31 19:08:08.5	73.690	0.060	0.110	-0.030
2020/01/31 19:08:08.6	73.690	0.070	0.040	-0.050
2020/01/31 19:08:08.7	73.680	0.070	-0.020	-0.060
2020/01/31 19:08:08.8	73.670	0.080	-0.090	-0.080
2020/01/31 19:08:08.9	73.660	0.080	-0.150	-0.090
2020/01/31 19:08:09.0	73.650	0.080	-0.210	-0.100
2020/01/31 19:08:09.1	73.640	0.090	-0.260	-0.100
2020/01/31 19:08:09.2	73.620	0.090	-0.310	-0.100
2020/01/31 19:08:09.3	73.610	0.090	-0.350	-0.100
2020/01/31 19:08:09.4	73.600	0.090	-0.390	-0.100
2020/01/31 19:08:09.5	73.580	0.100	-0.430	-0.090
2020/01/31 19:08:09.6	73.560	0.100	-0.470	-0.090
2020/01/31 19:08:09.7	73.550	0.100	-0.500	-0.070
2020/01/31 19:08:09.8	73.530	0.100	-0.530	-0.060
2020/01/31 19:08:09.9	73.510	0.090	-0.560	-0.040
2020/01/31 19:08:10.0	73.490	0.090	-0.580	-0.020
2020/01/31 19:08:10.1	73.480	0.090	-0.600	-0.000
2020/01/31 19:08:10.2	73.460	0.090	-0.620	0.020
2020/01/31 19:08:10.3	73.440	0.080	-0.640	0.040
2020/01/31 19:08:10.4	73.420	0.080	-0.650	0.060
2020/01/31 19:08:10.5	73.410	0.070	-0.670	0.080
2020/01/31 19:08:10.6	73.390	0.060	-0.680	0.100
2020/01/31 19:08:10.7	73.370	0.060	-0.690	0.130
2020/01/31 19:08:10.8	73.360	0.050	-0.690	0.150
2020/01/31 19:08:10.9	73.340	0.040	-0.700	0.180
2020/01/31 19:08:11.0	73.320	0.030	-0.710	0.200
2020/01/31 19:08:11.1	73.310	0.010	-0.710	0.230
2020/01/31 19:08:11.2	73.290	-0.000	-0.720	0.260
2020/01/31 19:08:11.3	73.270	-0.010	-0.720	0.280
2020/01/31 19:08:11.4	73.250	-0.030	-0.720	0.310
2020/01/31 19:08:11.5	73.240	-0.050	-0.720	0.340
2020/01/31 19:08:11.6	73.220	-0.060	-0.720	0.370
2020/01/31 19:08:11.7	73.200	-0.080	-0.720	0.390
2020/01/31 19:08:11.8	73.170	-0.100	-0.710	0.420
2020/01/31 19:08:11.9	73.150	-0.110	-0.710	0.450
2020/01/31 19:08:12.0	73.130	-0.130	-0.700	0.480
2020/01/31 19:08:12.1	73.110	-0.150	-0.690	0.510
2020/01/31 19:08:12.2	73.090	-0.160	-0.670	0.530
2020/01/31 19:08:12.3	73.070	-0.180	-0.660	0.570
2020/01/31 19:08:12.4	73.050	-0.190	-0.640	0.600
2020/01/31 19:08:12.5	73.030	-0.200	-0.630	0.630
2020/01/31 19:08:12.6	73.010	-0.210	-0.610	0.660
2020/01/31 19:08:12.7	72.990	-0.220	-0.590	0.680
2020/01/31 19:08:12.8	72.980	-0.230	-0.560	0.710
2020/01/31 19:08:12.9	72.960	-0.240	-0.540	0.740
2020/01/31 19:08:13.0	72.950	-0.240	-0.520	0.770
2020/01/31 19:08:13.1	72.940	-0.250	-0.490	0.790
2020/01/31 19:08:13.2	72.930	-0.250	-0.470	0.820
2020/01/31 19:08:13.3	72.920	-0.240	-0.450	0.840
2020/01/31 19:08:13.4	72.910	-0.240	-0.420	0.860
2020/01/31 19:08:13.5	72.910	-0.230	-0.400	0.880
2020/01/31 19:08:13.6	72.910	-0.220	-0.380	0.890
2020/01/31 19:08:13.7	72.910	-0.210	-0.360	0.910
2020/01/31 19:08:13.8	72.920	-0.200	-0.340	0.920
2020/01/31 19:08:13.9	72.930	-0.180	-0.320	0.930
2020/01/31 19:08:14.0	72.940	-0.160	-0.310	0.930
2020/01/31 19:08:14.1	72.950	-0.140	-0.290	0.940
2020/01/31 19:08:14.2	72.970	-0.120	-0.270	0.940
2020/01/31 19:08:14.3	72.980	-0.100	-0.260	0.950
2020/01/31 19:08:14.4	73.000	-0.080	-0.250	0.950
2020/01/31 19:08:14.5	73.020	-0.050	-0.230	0.950
2020/01/31 19:08:14.6	73.040	-0.030	-0.220	0.950
2020/01/31 19:08:14.7	73.060	-0.000	-0.210	0.950
2020/01/31 19:08:14.8	73.080	0.020	-0.200	0.950
2020/01/31 19:08:14.9	73.110	0.050	-0.180	0.940
2020/01/31 19:08:15.0	73.130	0.070	-0.170	0.940
2020/01/31 19:08:15.1	73.150	0.100	-0.150	0.940
2020/01/31 19:08:15.2	73.170	0.120	-0.140	0.930
2020/01/31 19:08:15.3	73.190	0.140	-0.120	0.930
2020/01/31 19:08:15.4	73.210	0.160	-0.110	0.930
2020/01/31 19:08:15.5	73.230	0.180	-0.090	0.920
2020/01/31 19:08:15.6	73.250	0.200	-0.070	0.920
2020/01/31 19:08:15.7	73.260	0.220	-0.050	0.910
2020/01/31 19:08:15.8	73.280	0.230	-0.030	0.910
2020/01/31 19:08:15.9	73.290	0.240	-0.000	0.900
2020/01/31 19:08:16.0	73.300	0.250	0.020	0.900
2020/01/31 19:08:16.1	73.300	0.260	0.040	0.890
2020/01/31 19:08:16.2	73.310	0.260	0.070	0.890
2020/01/31 19:08:16.3	73.310	0.270	0.090	0.880
2020/01/31 19:08:16.4	73.310	0.270	0.120	0.870
2020/01/31 19:08:16.5	73.300	0.270	0.140	0.870
2020/01/31 19:08:16.6	73.290	0.260	0.170	0.860
2020/01/31 19:08:16.7	73.280	0.250	0.190	0.850
2020/01/31 19:08:16.8	73.270	0.240	0.220	0.840
2020/01/31 19:08:16.9	73.260	0.230	0.240	0.830
2020/01/31 19:08:17.0	73.240	0.220	0.270	0.820
2020/01/31 19:08:17.1	73.230	0.200	0.290	0.800
2020/01/31 19:08:17.2	73.210	0.190	0.310	0.790
2020/01/31 19:08:17.3	73.180	0.170	0.340	0.780
2020/01/31 19:08:17.4	73.160	0.150	0.360	0.760
2020/01/31 19:08:17.5	73.140	0.130	0.370	0.740
2020/01/31 19:08:17.6	73.110	0.110	0.390	0.720
2020/01/31 19:08:17.7	73.080	0.080	0.400	0.700
2020/01/31 19:08:17.8	73.060	0.060	0.410	0.680
2020/01/31 19:08:17.9	73.030	0.040	0.420	0.660
2020/01/31 19:08:18.0	73.000	0.010	0.430	0.630
2020/01/31 19:08:18.1	72.970	-0.010	0.430	0.610
2020/01/31 19:08:18.2	72.940	-0.030	0.430	0.580
2020/01/31 19:08:18.3	72.910	-0.060	0.420	0.550
2020/01/31 19:08:18.4	72.880	-0.080	0.420	0.530
2020/01/31 19:08:18.5	72.840	-0.100	0.400	0.500
2020/01/31 19:08:18.6	72.810	-0.120	0.390	0.470
2020/01/31 19:08:18.7	72.780	-0.140	0.370	0.430
2020/01/31 19:08:18.8	72.750	-0.160	0.350	0.400
2020/01/31 19:08:18.9	72.720	-0.180	0.320	0.370
2020/01/31 19:08:19.0	72.690	-0.200	0.290	0.330
2020/01/31 19:08:19.1	72.660	-0.210	0.260	0.300
2020/01/31 19:08:19.2	72.640	-0.230	0.230	0.260
2020/01/31 19:08:19.3	72.610	-0.240	0.190	0.230
2020/01/31 19:08:19.4	72.580	-0.250	0.140	0.190
2020/01/31 19:08:19.5	72.560	-0.260	0.100	0.160
2020/01/31 19:08:19.6	72.540	-0.260	0.050	0.120
2020/01/31 19:08:19.7	72.520	-0.270	-0.000	0.090
2020/01/31 19:08:19.8	72.500	-0.270	-0.060	0.050
2020/01/31 19:08:19.9	72.490	-0.270	-0.110	0.020
2020/01/31 19:08:20.0	72.480	-0.270	-0.170	-0.020
2020/01/31 19:08:20.1	72.470	-0.260	-0.230	-0.060
2020/01/31 19:08:20.2	72.460	-0.260	-0.290	-0.090
2020/01/31 19:08:20.3	72.450	-0.250	-0.350	-0.130
2020/01/31 19:08:20.4	72.450	-0.240	-0.420	-0.170
2020/01/31 19:08:20.5	72.450	-0.230	-0.480	-0.210
2020/01/31 19:08:20.6	72.460	-0.220	-0.540	-0.250
2020/01/31 19:08:20.7	72.460	-0.200	-0.600	-0.300
2020/01/31 19:08:20.8	72.470	-0.180	-0.660	-0.350
2020/01/31 19:08:20.9	72.490	-0.160	-0.720	-0.390
2020/01/31 19:08:21.0	72.500	-0.140	-0.770	-0.430
2020/01/31 19:08:21.1	72.510	-0.120	-0.820	-0.470
2020/01/31 19:08:21.2	72.530	-0.100	-0.870	-0.510
2020/01/31 19:08:21.3	72.550	-0.070	-0.920	-0.560
2020/01/31 19:08:21.4	72.570	-0.040	-0.950	-0.590
2020/01/31 19:08:21.5	72.590	-0.020	-0.990	-0.630
2020/01/31 19:08:21.6	72.610	0.010	-1.020	-0.660
2020/01/31 19:08:21.7	72.630	0.040	-1.040	-0.690
2020/01/31 19:08:21.8	72.650	0.070	-1.060	-0.720
2020/01/31 19:08:21.9	72.670	0.100	-1.070	-0.740
2020/01/31 19:08:22.0	72.690	0.130	-1.070	-0.760
2020/01/31 19:08:22.1	72.710	0.160	-1.060	-0.770
2020/01/31 19:08:22.2	72.720	0.190	-1.050	-0.780
2020/01/31 19:08:22.3	72.740	0.210	-1.030	-0.780
2020/01/31 19:08:22.4	72.760	0.240	-1.000	-0.780
2020/01/31 19:08:22.5	72.770	0.260	-0.970	-0.780
2020/01/31 19:08:22.6	72.780	0.290	-0.930	-0.770
2020/01/31 19:08:22.7	72.790	0.310	-0.890	-0.750
2020/01/31 19:08:22.8	72.800	0.330	-0.830	-0.730
2020/01/31 19:08:22.9	72.810	0.350	-0.780	-0.710
2020/01/31 19:08:23.0	72.810	0.360	-0.710	-0.680
2020/01/31 19:08:23.1	72.820	0.370	-0.650	-0.640
2020/01/31 19:08:23.2	72.820	0.380	-0.580	-0.600
2020/01/31 19:08:23.3	72.820	0.390	-0.500	-0.550
2020/01/31 19:08:23.4	72.820	0.390	-0.430	-0.500
2020/01/31 19:08:23.5	72.820	0.390	-0.350	-0.440
2020/01/31 19:08:23.6	72.810	0.390	-0.270	-0.380
2020/01/31 19:08:23.7	72.810	0.380	-0.190	-0.320
2020/01/31 19:08:23.8	72.800	0.370	-0.110	-0.250
2020/01/31 19:08:23.9	72.790	0.360	-0.030	-0.180
2020/01/31 19:08:24.0	72.780	0.340	0.050	-0.110
2020/01/31 19:08:24.1	72.770	0.320	0.130	-0.030
2020/01/31 19:08:24.2	72.750	0.300	0.210	0.040
2020/01/31 19:08:24.3	72.740	0.280	0.280	0.120
2020/01/31 19:08:24.4	72.730	0.260	0.350	0.200
2020/01/31 19:08:24.5	72.710	0.230	0.410	0.280
2020/01/31 19:08:24.6	72.700	0.200	0.470	0.350
2020/01/31 19:08:24.7	72.680	0.170	0.520	0.430
2020/01/31 19:08:24.8	72.670	0.140	0.560	0.510
2020/01/31 19:08:24.9	72.660	0.110	0.590	0.580
2020/01/31 19:08:25.0	72.640	0.080	0.620	0.650
2020/01/31 19:08:25.1	72.630	0.050	0.640	0.720
2020/01/31 19:08:25.2	72.620	0.010	0.660	0.790
2020/01/31 19:08:25.3	72.610	-0.020	0.660	0.850
2020/01/31 19:08:25.4	72.600	-0.050	0.660	0.910
2020/01/31 19:08:25.5	72.590	-0.080	0.650	0.960
2020/01/31 19:08:25.6	72.580	-0.110	0.630	1.020
2020/01/31 19:08:25.7	72.570	-0.130	0.600	1.060
2020/01/31 19:08:25.8	72.570	-0.160	0.570	1.110
2020/01/31 19:08:25.9	72.570	-0.180	0.520	1.150
2020/01/31 19:08:26.0	72.560	-0.210	0.480	1.190
2020/01/31 19:08:26.1	72.560	-0.230	0.420	1.220
2020/01/31 19:08:26.2	72.560	-0.250	0.360	1.250
2020/01/31 19:08:26.3	72.560	-0.260	0.300	1.280
2020/01/31 19:08:26.4	72.570	-0.270	0.230	1.300
2020/01/31 19:08:26.5	72.570	-0.290	0.160	1.330
2020/01/31 19:08:26.6	72.570	-0.300	0.090	1.340
2020/01/31 19:08:26.7	72.580	-0.300	0.010	1.360
2020/01/31 19:08:26.8	72.590	-0.310	-0.070	1.370
2020/01/31 19:08:26.9	72.600	-0.310	-0.140	1.370
2020/01/31 19:08:27.0	72.610	-0.310	-0.210	1.380
2020/01/31 19:08:27.1	72.620	-0.310	-0.290	1.380
2020/01/31 19:08:27.2	72.630	-0.300	-0.350	1.380
2020/01/31 19:08:27.3	72.640	-0.300	-0.420	1.370
2020/01/31 19:08:27.4	72.660	-0.290	-0.480	1.370
2020/01/31 19:08:27.5	72.670	-0.280	-0.540	1.360
2020/01/31 19:08:27.6	72.690	-0.270	-0.590	1.350
2020/01/31 19:08:27.7	72.700	-0.260	-0.640	1.330
2020/01/31 19:08:27.8	72.720	-0.250	-0.670	1.310
2020/01/31 19:08:27.9	72.740	-0.240	-0.710	1.300
2020/01/31 19:08:28.0	72.760	-0.230	-0.730	1.270
2020/01/31 19:08:28.1	72.780	-0.220	-0.750	1.250
2020/01/31 19:08:28.2	72.790	-0.200	-0.770	1.230
2020/01/31 19:08:28.3	72.810	-0.190	-0.770	1.200
2020/01/31 19:08:28.4	72.830	-0.180	-0.770	1.180
2020/01/31 19:08:28.5	72.850	-0.160	-0.770	1.150
2020/01/31 19:08:28.6	72.870	-0.150	-0.750	1.120
2020/01/31 19:08:28.7	72.890	-0.140	-0.730	1.090
2020/01/31 19:08:28.8	72.900	-0.130	-0.710	1.050
2020/01/31 19:08:28.9	72.920	-0.120	-0.680	1.020
2020/01/31 19:08:29.0	72.940	-0.110	-0.640	0.990
2020/01/31 19:08:29.1	72.950	-0.100	-0.610	0.960
2020/01/31 19:08:29.2	72.960	-0.100	-0.560	0.920
2020/01/31 19:08:29.3	72.980	-0.090	-0.520	0.890
2020/01/31 19:08:29.4	72.990	-0.090	-0.470	0.850
2020/01/31 19:08:29.5	73.000	-0.080	-0.420	0.820
2020/01/31 19:08:29.6	73.010	-0.080	-0.370	0.780
2020/01/31 19:08:29.7	73.010	-0.080	-0.320	0.750
2020/01/31 19:08:29.8	73.020	-0.080	-0.270	0.720
2020/01/31 19:08:29.9	73.020	-0.080	-0.220	0.680
2020/01/31 19:08:30.0	73.020	-0.080	-0.170	0.650
2020/01/31 19:08:30.1	73.030	-0.080	-0.120	0.620
2020/01/31 19:08:30.2	73.020	-0.090	-0.070	0.590
2020/01/31 19:08:30.3	73.020	-0.090	-0.030	0.560
2020/01/31 19:08:30.4	73.020	-0.100	0.010	0.530
2020/01/31 19:08:30.5	73.010	-0.100	0.050	0.500
2020/01/31 19:08:30.6	73.010	-0.110	0.090	0.480
2020/01/31 19:08:30.7	73.000	-0.110	0.120	0.450
2020/01/31 19:08:30.8	72.990	-0.120	0.150	0.430
2020/01/31 19:08:30.9	72.980	-0.120	0.180	0.400
2020/01/31 19:08:31.0	72.970	-0.130	0.200	0.380
2020/01/31 19:08:31.1	72.960	-0.130	0.210	0.360
2020/01/31 19:08:31.2	72.950	-0.140	0.230	0.340
2020/01/31 19:08:31.3	72.940	-0.140	0.230	0.320
2020/01/31 19:08:31.4	72.930	-0.140	0.240	0.300
2020/01/31 19:08:31.5	72.920	-0.140	0.230	0.280
2020/01/31 19:08:31.6	72.910	-0.140	0.230	0.260
2020/01/31 19:08:31.7	72.900	-0.140	0.220	0.250
2020/01/31 19:08:31.8	72.890	-0.130	0.200	0.230
2020/01/31 19:08:31.9	72.880	-0.130	0.180	0.210
2020/01/31 19:08:32.0	72.870	-0.120	0.160	0.190
2020/01/31 19:08:32.1	72.860	-0.110	0.130	0.170
2020/01/31 19:08:32.2	72.850	-0.100	0.100	0.160
2020/01/31 19:08:32.3	72.850	-0.090	0.070	0.140
2020/01/31 19:08:32.4	72.840	-0.070	0.030	0.120
2020/01/31 19:08:32.5	72.840	-0.060	-0.010	0.100
2020/01/31 19:08:32.6	72.840	-0.040	-0.050	0.080
2020/01/31 19:08:32.7	72.840	-0.020	-0.090	0.050
2020/01/31 19:08:32.8	72.830	-0.000	-0.130	0.030
2020/01/31 19:08:32.9	72.830	0.020	-0.170	0.010
2020/01/31 19:08:33.0	72.840	0.040	-0.210	-0.010
2020/01/31 19:08:33.1	72.840	0.060	-0.250	-0.040
2020/01/31 19:08:33.2	72.840	0.080	-0.290	-0.060
2020/01/31 19:08:33.3	72.840	0.100	-0.330	-0.090
2020/01/31 19:08:33.4	72.840	0.120	-0.370	-0.120
2020/01/31 19:08:33.5	72.840	0.150	-0.400	-0.140
2020/01/31 19:08:33.6	72.840	0.170	-0.440	-0.170
2020/01/31 19:08:33.7	72.850	0.190	-0.460	-0.190
2020/01/31 19:08:33.8	72.850	0.210	-0.490	-0.220
2020/01/31 19:08:33.9	72.850	0.230	-0.520	-0.250
2020/01/31 19:08:34.0	72.850	0.250	-0.540	-0.280
2020/01/31 19:08:34.1	72.850	0.260	-0.550	-0.300
2020/01/31 19:08:34.2	72.850	0.280	-0.570	-0.330
2020/01/31 19:08:34.3	72.850	0.290	-0.570	-0.350
2020/01/31 19:08:34.4	72.850	0.310	-0.580	-0.370
2020/01/31 19:08:34.5	72.850	0.320	-0.580	-0.390
2020/01/31 19:08:34.6	72.850	0.330	-0.580	-0.420
2020/01/31 19:08:34.7	72.850	0.340	-0.570	-0.430
2020/01/31 19:08:34.8	72.860	0.350	-0.560	-0.450
2020/01/31 19:08:34.9	72.860	0.350	-0.550	-0.470
2020/01/31 19:08:35.0	72.860	0.350	-0.530	-0.480
2020/01/31 19:08:35.1	72.860	0.350	-0.510	-0.500
2020/01/31 19:08:35.2	72.870	0.350	-0.490	-0.510
2020/01/31 19:08:35.3	72.870	0.350	-0.470	-0.520
2020/01/31 19:08:35.4	72.880	0.350	-0.440	-0.530
2020/01/31 19:08:35.5	72.880	0.340	-0.410	-0.540
2020/01/31 19:08:35.6	72.890	0.340	-0.380	-0.540
2020/01/31 19:08:35.7	72.900	0.330	-0.350	-0.550
2020/01/31 19:08:35.8	72.910	0.320	-0.310	-0.560
2020/01/31 19:08:35.9	72.920	0.310	-0.280	-0.560
2020/01/31 19:08:36.0	72.930	0.300	-0.250	-0.560
2020/01/31 19:08:36.1	72.950	0.290	-0.210	-0.570
2020/01/31 19:08:36.2	72.960	0.270	-0.180	-0.570
2020/01/31 19:08:36.3	72.980	0.260	-0.140	-0.570
2020/01/31 19:08:36.4	72.990	0.240	-0.110	-0.570
2020/01/31 19:08:36.5	73.010	0.230	-0.080	-0.570
2020/01/31 19:08:36.6	73.030	0.210	-0.050	-0.570
2020/01/31 19:08:36.7	73.050	0.200	-0.020	-0.560
2020/01/31 19:08:36.8	73.070	0.180	0.000	-0.560
2020/01/31 19:08:36.9	73.090	0.160	0.020	-0.550
2020/01/31 19:08:37.0	73.110	0.140	0.040	-0.540
2020/01/31 19:08:37.1	73.130	0.130	0.060	-0.530
2020/01/31 19:08:37.2	73.140	0.110	0.080	-0.520
2020/01/31 19:08:37.3	73.160	0.090	0.090	-0.510
2020/01/31 19:08:37.4	73.180	0.070	0.100	-0.490
2020/01/31 19:08:37.5	73.200	0.050	0.110	-0.470
2020/01/31 19:08:37.6	73.210	0.030	0.120	-0.450
2020/01/31 19:08:37.7	73.220	0.010	0.120	-0.420
2020/01/31 19:08:37.8	73.230	-0.010	0.120	-0.400
2020/01/31 19:08:37.9	73.240	-0.030	0.120	-0.370
2020/01/31 19:08:38.0	73.250	-0.040	0.120	-0.340
2020/01/31 19:08:38.1	73.260	-0.060	0.110	-0.300
2020/01/31 19:08:38.2	73.270	-0.080	0.110	-0.270
2020/01/31 19:08:38.3	73.270	-0.100	0.100	-0.230
2020/01/31 19:08:38.4	73.280	-0.120	0.090	-0.190
2020/01/31 19:08:38.5	73.280	-0.130	0.070	-0.150
2020/01/31 19:08:38.6	73.280	-0.150	0.060	-0.100
2020/01/31 19:08:38.7	73.280	-0.170	0.040	-0.060
2020/01/31 19:08:38.8	73.290	-0.180	0.020	-0.010
2020/01/31 19:08:38.9	73.290	-0.200	0.010	0.030
2020/01/31 19:08:39.0	73.290	-0.210	-0.010	0.080
2020/01/31 19:08:39.1	73.290	-0.220	-0.030	0.130
2020/01/31 19:08:39.2	73.290	-0.230	-0.050	0.170
2020/01/31 19:08:39.3	73.300	-0.240	-0.070	0.220
2020/01/31 19:08:39.4	73.300	-0.250	-0.090	0.270
2020/01/31 19:08:39.5	73.300	-0.260	-0.110	0.310
2020/01/31 19:08:39.6	73.300	-0.270	-0.130	0.360
2020/01/31 19:08:39.7	73.310	-0.270	-0.150	0.400
2020/01/31 19:08:39.8	73.310	-0.280	-0.160	0.440
2020/01/31 19:08:39.9	73.310	-0.280	-0.180	0.480
2020/01/31 19:08:40.0	73.320	-0.280	-0.190	0.530
2020/01/31 19:08:40.1	73.320	-0.280	-0.200	0.570
2020/01/31 19:08:40.2	73.330	-0.280	-0.210	0.610
2020/01/31 19:08:40.3	73.330	-0.280	-0.220	0.640
2020/01/31 19:08:40.4	73.330	-0.280	-0.230	0.680
2020/01/31 19:08:40.5	73.340	-0.270	-0.230	0.720
2020/01/31 19:08:40.6	73.340	-0.270	-0.230	0.760
2020/01/31 19:08:40.7	73.350	-0.260	-0.230	0.790
2020/01/31 19:08:40.8	73.350	-0.250	-0.230	0.830
2020/01/31 19:08:40.9	73.350	-0.250	-0.220	0.860
2020/01/31 19:08:41.0	73.360	-0.240	-0.210	0.900
2020/01/31 19:08:41.1	73.360	-0.230	-0.200	0.930
2020/01/31 19:08:41.2	73.360	-0.220	-0.190	0.960
2020/01/31 19:08:41.3	73.370	-0.210	-0.180	0.990
2020/01/31 19:08:41.4	73.370	-0.200	-0.170	1.020
2020/01/31 19:08:41.5	73.370	-0.190	-0.160	1.050
2020/01/31 19:08:41.6	73.370	-0.180	-0.140	1.080
2020/01/31 19:08:41.7	73.370	-0.170	-0.130	1.110
2020/01/31 19:08:41.8	73.380	-0.170	-0.110	1.130
2020/01/31 19:08:41.9	73.380	-0.160	-0.100	1.160
2020/01/31 19:08:42.0	73.380	-0.150	-0.090	1.180
2020/01/31 19:08:42.1	73.380	-0.140	-0.080	1.210
2020/01/31 19:08:42.2	73.380	-0.130	-0.070	1.230
2020/01/31 19:08:42.3	73.380	-0.120	-0.060	1.250
2020/01/31 19:08:42.4	73.380	-0.110	-0.060	1.280
2020/01/31 19:08:42.5	73.390	-0.100	-0.060	1.300
2020/01/31 19:08:42.6	73.390	-0.090	-0.060	1.320
2020/01/31 19:08:42.7	73.390	-0.080	-0.060	1.350
2020/01/31 19:08:42.8	73.390	-0.070	-0.070	1.370
2020/01/31 19:08:42.9	73.390	-0.060	-0.070	1.390
2020/01/31 19:08:43.0	73.390	-0.060	-0.080	1.410
2020/01/31 19:08:43.1	73.390	-0.050	-0.100	1.430
2020/01/31 19:08:43.2	73.390	-0.040	-0.110	1.450
2020/01/31 19:08:43.3	73.380	-0.030	-0.130	1.470
2020/01/31 19:08:43.4	73.380	-0.020	-0.140	1.480
2020/01/31 19:08:43.5	73.380	-0.010	-0.160	1.500
2020/01/31 19:08:43.6	73.380	-0.010	-0.180	1.520
2020/01/31 19:08:43.7	73.380	0.000	-0.210	1.530
2020/01/31 19:08:43.8	73.370	0.010	-0.220	1.540
2020/01/31 19:08:43.9	73.370	0.020	-0.250	1.550
2020/01/31 19:08:44.0	73.370	0.020	-0.270	1.560
2020/01/31 19:08:44.1	73.370	0.030	-0.300	1.570
2020/01/31 19:08:44.2	73.370	0.040	-0.330	1.570
2020/01/31 19:08:44.3	73.370	0.040	-0.350	1.570
2020/01/31 19:08:44.4	73.370	0.050	-0.380	1.570
2020/01/31 19:08:44.5	73.370	0.050	-0.410	1.570
2020/01/31 19:08:44.6	73.370	0.050	-0.430	1.560
2020/01/31 19:08:44.7	73.380	0.050	-0.460	1.550
2020/01/31 19:08:44.8	73.380	0.060	-0.480	1.530
2020/01/31 19:08:44.9	73.380	0.060	-0.510	1.510
2020/01/31 19:08:45.0	73.390	0.050	-0.530	1.490
2020/01/31 19:08:45.1	73.400	0.050	-0.550	1.460
2020/01/31 19:08:45.2	73.410	0.050	-0.560	1.420
2020/01/31 19:08:45.3	73.420	0.050	-0.580	1.380
2020/01/31 19:08:45.4	73.430	0.040	-0.590	1.330
2020/01/31 19:08:45.5	73.450	0.030	-0.600	1.280
2020/01/31 19:08:45.6	73.470	0.030	-0.610	1.220
2020/01/31 19:08:45.7	73.490	0.020	-0.620	1.150
2020/01/31 19:08:45.8	73.500	0.010	-0.620	1.070
2020/01/31 19:08:45.9	73.520	0.000	-0.620	1.000
2020/01/31 19:08:46.0	73.550	-0.010	-0.620	0.910
2020/01/31 19:08:46.1	73.570	-0.010	-0.610	0.830
2020/01/31 19:08:46.2	73.600	-0.020	-0.610	0.740
2020/01/31 19:08:46.3	73.630	-0.030	-0.590	0.640
2020/01/31 19:08:46.4	73.650	-0.040	-0.580	0.540
2020/01/31 19:08:46.5	73.680	-0.050	-0.560	0.440
2020/01/31 19:08:46.6	73.710	-0.060	-0.540	0.330
2020/01/31 19:08:46.7	73.740	-0.070	-0.510	0.220
2020/01/31 19:08:46.8	73.760	-0.070	-0.480	0.110
2020/01/31 19:08:46.9	73.790	-0.080	-0.450	0.010
2020/01/31 19:08:47.0	73.810	-0.090	-0.420	-0.100
2020/01/31 19:08:47.1	73.840	-0.090	-0.380	-0.200
2020/01/31 19:08:47.2	73.860	-0.090	-0.330	-0.300
2020/01/31 19:08:47.3	73.880	-0.090	-0.290	-0.390
2020/01/31 19:08:47.4	73.900	-0.090	-0.240	-0.480
2020/01/31 19:08:47.5	73.910	-0.090	-0.190	-0.570
2020/01/31 19:08:47.6	73.920	-0.090	-0.140	-0.650
2020/01/31 19:08:47.7	73.930	-0.090	-0.090	-0.720
2020/01/31 19:08:47.8	73.940	-0.080	-0.030	-0.790
2020/01/31 19:08:47.9	73.940	-0.070	0.020	-0.850
2020/01/31 19:08:48.0	73.940	-0.070	0.070	-0.900
2020/01/31 19:08:48.1	73.930	-0.060	0.120	-0.950
2020/01/31 19:08:48.2	73.930	-0.050	0.170	-0.990
2020/01/31 19:08:48.3	73.920	-0.040	0.220	-1.020
2020/01/31 19:08:48.4	73.910	-0.020	0.260	-1.040
2020/01/31 19:08:48.5	73.900	-0.010	0.300	-1.060
2020/01/31 19:08:48.6	73.890	0.000	0.340	-1.070
2020/01/31 19:08:48.7	73.880	0.020	0.370	-1.070
2020/01/31 19:08:48.8	73.850	0.030	0.400	-1.070
2020/01/31 19:08:48.9	73.840	0.050	0.420	-1.060
2020/01/31 19:08:49.0	73.820	0.070	0.440	-1.050
2020/01/31 19:08:49.1	73.810	0.080	0.450	-1.030
2020/01/31 19:08:49.2	73.790	0.100	0.460	-1.000
2020/01/31 19:08:49.3	73.770	0.120	0.460	-0.970
2020/01/31 19:08:49.4	73.760	0.130	0.460	-0.940
2020/01/31 19:08:49.5	73.740	0.150	0.450	-0.900
2020/01/31 19:08:49.6	73.730	0.160	0.430	-0.860
2020/01/31 19:08:49.7	73.720	0.180	0.410	-0.820
2020/01/31 19:08:49.8	73.700	0.190	0.390	-0.780
2020/01/31 19:08:49.9	73.690	0.210	0.360	-0.740
2020/01/31 19:08:50.0	73.680	0.220	0.330	-0.690
2020/01/31 19:08:50.1	73.670	0.230	0.290	-0.650
2020/01/31 19:08:50.2	73.660	0.240	0.260	-0.600
2020/01/31 19:08:50.3	73.660	0.250	0.220	-0.550
2020/01/31 19:08:50.4	73.650	0.250	0.170	-0.510
2020/01/31 19:08:50.5	73.640	0.260	0.130	-0.460
2020/01/31 19:08:50.6	73.640	0.260	0.080	-0.420
2020/01/31 19:08:50.7	73.640	0.270	0.030	-0.380
2020/01/31 19:08:50.8	73.630	0.270	-0.020	-0.340
2020/01/31 19:08:50.9	73.630	0.270	-0.070	-0.300
2020/01/31 19:08:51.0	73.630	0.270	-0.120	-0.260
2020/01/31 19:08:51.1	73.630	0.260	-0.160	-0.230
2020/01/31 19:08:51.2	73.630	0.260	-0.210	-0.200
2020/01/31 19:08:51.3	73.630	0.260	-0.260	-0.170
2020/01/31 19:08:51.4	73.640	0.250	-0.300	-0.140
2020/01/31 19:08:51.5	73.640	0.240	-0.350	-0.110
2020/01/31 19:08:51.6	73.640	0.240	-0.390	-0.090
2020/01/31 19:08:51.7	73.650	0.230	-0.430	-0.070
2020/01/31 19:08:51.8	73.660	0.220	-0.460	-0.050
2020/01/31 19:08:51.9	73.670	0.210	-0.500	-0.030
2020/01/31 19:08:52.0	73.680	0.200	-0.540	-0.010
2020/01/31 19:08:52.1	73.690	0.190	-0.570	-0.000
2020/01/31 19:08:52.2	73.700	0.180	-0.600	0.010
2020/01/31 19:08:52.3	73.720	0.170	-0.620	0.020
2020/01/31 19:08:52.4	73.730	0.160	-0.650	0.030
2020/01/31 19:08:52.5	73.750	0.150	-0.670	0.040
2020/01/31 19:08:52.6	73.770	0.140	-0.690	0.050
2020/01/31 19:08:52.7	73.800	0.130	-0.710	0.060
2020/01/31 19:08:52.8	73.820	0.130	-0.720	0.060
2020/01/31 19:08:52.9	73.840	0.120	-0.740	0.070
2020/01/31 19:08:53.0	73.870	0.110	-0.750	0.070
2020/01/31 19:08:53.1	73.900	0.100	-0.750	0.080
2020/01/31 19:08:53.2	73.930	0.100	-0.760	0.080
2020/01/31 19:08:53.3	73.970	0.090	-0.760	0.090
2020/01/31 19:08:53.4	74.000	0.080	-0.760	0.090
2020/01/31 19:08:53.5	74.040	0.080	-0.760	0.100
2020/01/31 19:08:53.6	74.070	0.070	-0.750	0.100
2020/01/31 19:08:53.7	74.110	0.060	-0.740	0.110
2020/01/31 19:08:53.8	74.140	0.060	-0.730	0.120
2020/01/31 19:08:53.9	74.180	0.050	-0.710	0.140
2020/01/31 19:08:54.0	74.210	0.040	-0.690	0.150
2020/01/31 19:08:54.1	74.250	0.040	-0.670	0.170
2020/01/31 19:08:54.2	74.280	0.030	-0.640	0.190
2020/01/31 19:08:54.3	74.310	0.020	-0.610	0.210
2020/01/31 19:08:54.4	74.340	0.010	-0.580	0.240
2020/01/31 19:08:54.5	74.360	-0.000	-0.540	0.270
2020/01/31 19:08:54.6	74.380	-0.010	-0.500	0.310
2020/01/31 19:08:54.7	74.400	-0.030	-0.460	0.350
2020/01/31 19:08:54.8	74.410	-0.040	-0.410	0.390
2020/01/31 19:08:54.9	74.420	-0.060	-0.360	0.430
2020/01/31 19:08:55.0	74.430	-0.070	-0.300	0.480
2020/01/31 19:08:55.1	74.440	-0.090	-0.250	0.530
2020/01/31 19:08:55.2	74.440	-0.110	-0.190	0.580
2020/01/31 19:08:55.3	74.440	-0.130	-0.130	0.630
2020/01/31 19:08:55.4	74.440	-0.150	-0.070	0.680
2020/01/31 19:08:55.5	74.430	-0.180	-0.010	0.740
2020/01/31 19:08:55.6	74.420	-0.200	0.060	0.790
2020/01/31 19:08:55.7	74.410	-0.220	0.120	0.850
2020/01/31 19:08:55.8	74.400	-0.250	0.180	0.900
2020/01/31 19:08:55.9	74.380	-0.270	0.240	0.950
2020/01/31 19:08:56.0	74.370	-0.290	0.290	1.000
2020/01/31 19:08:56.1	74.350	-0.320	0.350	1.050
2020/01/31 19:08:56.2	74.330	-0.340	0.400	1.100
2020/01/31 19:08:56.3	74.320	-0.360	0.440	1.150
2020/01/31 19:08:56.4	74.300	-0.380	0.480	1.190
2020/01/31 19:08:56.5	74.280	-0.400	0.520	1.230
2020/01/31 19:08:56.6	74.260	-0.420	0.550	1.260
2020/01/31 19:08:56.7	74.240	-0.430	0.580	1.300
2020/01/31 19:08:56.8	74.230	-0.440	0.610	1.320
2020/01/31 19:08:56.9	74.210	-0.450	0.620	1.350
2020/01/31 19:08:57.0	74.190	-0.460	0.630	1.370
2020/01/31 19:08:57.1	74.180	-0.470	0.630	1.390
2020/01/31 19:08:57.2	74.160	-0.470	0.630	1.410
2020/01/31 19:08:57.3	74.150	-0.470	0.620	1.420
2020/01/31 19:08:57.4	74.130	-0.460	0.610	1.430
2020/01/31 19:08:57.5	74.120	-0.460	0.590	1.430
2020/01/31 19:08:57.6	74.100	-0.450	0.560	1.440
2020/01/31 19:08:57.7	74.090	-0.440	0.530	1.440
2020/01/31 19:08:57.8	74.070	-0.420	0.490	1.430
2020/01/31 19:08:57.9	74.050	-0.410	0.450	1.430
2020/01/31 19:08:58.0	74.040	-0.390	0.410	1.420
2020/01/31 19:08:58.1	74.030	-0.370	0.360	1.410
2020/01/31 19:08:58.2	74.010	-0.340	0.310	1.400
2020/01/31 19:08:58.3	74.000	-0.320	0.250	1.390
2020/01/31 19:08:58.4	73.980	-0.290	0.190	1.370
2020/01/31 19:08:58.5	73.970	-0.260	0.130	1.350
2020/01/31 19:08:58.6	73.960	-0.230	0.070	1.330
2020/01/31 19:08:58.7	73.940	-0.200	0.010	1.310
2020/01/31 19:08:58.8	73.930	-0.170	-0.050	1.290
2020/01/31 19:08:58.9	73.920	-0.140	-0.120	1.260
2020/01/31 19:08:59.0	73.910	-0.110	-0.190	1.230
2020/01/31 19:08:59.1	73.900	-0.070	-0.250	1.200
2020/01/31 19:08:59.2	73.890	-0.040	-0.320	1.170
2020/01/31 19:08:59.3	73.890	-0.010	-0.380	1.140
2020/01/31 19:08:59.4	73.880	0.020	-0.440	1.100
2020/01/31 19:08:59.5	73.880	0.050	-0.510	1.060
2020/01/31 19:08:59.6	73.870	0.080	-0.570	1.020
2020/01/31 19:08:59.7	73.870	0.110	-0.620	0.980
2020/01/31 19:08:59.8	73.870	0.130	-0.680	0.940
2020/01/31 19:08:59.9	73.870	0.160	-0.730	0.890
2020/01/31 19:09:00.0	73.870	0.180	-0.780	0.840
2020/01/31 19:09:00.1	73.870	0.200	-0.830	0.790
2020/01/31 19:09:00.2	73.880	0.220	-0.880	0.740
2020/01/31 19:09:00.3	73.880	0.240	-0.920	0.680
2020/01/31 19:09:00.4	73.890	0.260	-0.950	0.620
2020/01/31 19:09:00.5	73.900	0.270	-0.990	0.560
2020/01/31 19:09:00.6	73.910	0.290	-1.020	0.490
2020/01/31 19:09:00.7	73.920	0.300	-1.040	0.430
2020/01/31 19:09:00.8	73.930	0.310	-1.060	0.360
2020/01/31 19:09:00.9	73.940	0.320	-1.070	0.280
2020/01/31 19:09:01.0	73.960	0.320	-1.090	0.210
2020/01/31 19:09:01.1	73.970	0.330	-1.090	0.130
2020/01/31 19:09:01.2	73.980	0.330	-1.090	0.050
2020/01/31 19:09:01.3	74.000	0.330	-1.090	-0.040
2020/01/31 19:09:01.4	74.020	0.330	-1.080	-0.120
2020/01/31 19:09:01.5	74.030	0.330	-1.070	-0.210
2020/01/31 19:09:01.6	74.050	0.320	-1.050	-0.300
2020/01/31 19:09:01.7	74.070	0.320	-1.030	-0.390
2020/01/31 19:09:01.8	74.080	0.310	-1.000	-0.480
2020/01/31 19:09:01.9	74.100	0.310	-0.970	-0.570
2020/01/31 19:09:02.0	74.120	0.300	-0.930	-0.660
2020/01/31 19:09:02.1	74.140	0.290	-0.890	-0.740
2020/01/31 19:09:02.2	74.160	0.280	-0.840	-0.830
2020/01/31 19:09:02.3	74.180	0.270	-0.780	-0.910
2020/01/31 19:09:02.4	74.200	0.260	-0.730	-0.990
2020/01/31 19:09:02.5	74.220	0.250	-0.660	-1.070
2020/01/31 19:09:02.6	74.240	0.240	-0.600	-1.140
2020/01/31 19:09:02.7	74.270	0.230	-0.530	-1.200
2020/01/31 19:09:02.8	74.280	0.220	-0.450	-1.270
2020/01/31 19:09:02.9	74.300	0.200	-0.380	-1.320
2020/01/31 19:09:03.0	74.330	0.190	-0.300	-1.370
2020/01/31 19:09:03.1	74.350	0.180	-0.220	-1.410
2020/01/31 19:09:03.2	74.370	0.170	-0.130	-1.450
2020/01/31 19:09:03.3	74.390	0.150	-0.050	-1.480
2020/01/31 19:09:03.4	74.400	0.140	0.030	-1.500
2020/01/31 19:09:03.5	74.420	0.130	0.120	-1.510
2020/01/31 19:09:03.6	74.440	0.110	0.200	-1.520
2020/01/31 19:09:03.7	74.450	0.100	0.290	-1.510
2020/01/31 19:09:03.8	74.460	0.080	0.370	-1.500
2020/01/31 19:09:03.9	74.470	0.070	0.450	-1.480
2020/01/31 19:09:04.0	74.480	0.060	0.530	-1.460
2020/01/31 19:09:04.1	74.480	0.040	0.600	-1.420
2020/01/31 19:09:04.2	74.490	0.030	0.670	-1.380
2020/01/31 19:09:04.3	74.490	0.010	0.730	-1.330
2020/01/31 19:09:04.4	74.490	-0.000	0.790	-1.270
2020/01/31 19:09:04.5	74.480	-0.020	0.850	-1.210
2020/01/31 19:09:04.6	74.470	-0.030	0.900	-1.140
2020/01/31 19:09:04.7	74.470	-0.040	0.940	-1.060
2020/01/31 19:09:04.8	74.450	-0.060	0.970	-0.980
2020/01/31 19:09:04.9	74.440	-0.070	1.000	-0.890
2020/01/31 19:09:05.0	74.420	-0.090	1.020	-0.810
2020/01/31 19:09:05.1	74.400	-0.100	1.030	-0.710
2020/01/31 19:09:05.2	74.380	-0.120	1.030	-0.620
2020/01/31 19:09:05.3	74.360	-0.130	1.020	-0.520
2020/01/31 19:09:05.4	74.340	-0.140	1.010	-0.420
2020/01/31 19:09:05.5	74.310	-0.160	0.990	-0.320
2020/01/31 19:09:05.6	74.290	-0.170	0.960	-0.220
2020/01/31 19:09:05.7	74.260	-0.180	0.920	-0.120
2020/01/31 19:09:05.8	74.230	-0.190	0.870	-0.020
2020/01/31 19:09:05.9	74.210	-0.200	0.820	0.080
2020/01/31 19:09:06.0	74.180	-0.210	0.760	0.180
2020/01/31 19:09:06.1	74.150	-0.220	0.690	0.280
2020/01/31 19:09:06.2	74.120	-0.230	0.610	0.370
2020/01/31 19:09:06.3	74.100	-0.240	0.530	0.460
2020/01/31 19:09:06.4	74.070	-0.240	0.440	0.550
2020/01/31 19:09:06.5	74.050	-0.250	0.350	0.640
2020/01/31 19:09:06.6	74.020	-0.250	0.250	0.720
2020/01/31 19:09:06.7	74.000	-0.250	0.150	0.800
2020/01/31 19:09:06.8	73.980	-0.250	0.050	0.880
2020/01/31 19:09:06.9	73.960	-0.250	-0.060	0.960
2020/01/31 19:09:07.0	73.940	-0.240	-0.170	1.030
2020/01/31 19:09:07.1	73.930	-0.240	-0.280	1.100
2020/01/31 19:09:07.2	73.920	-0.230	-0.380	1.170
2020/01/31 19:09:07.3	73.900	-0.220	-0.490	1.240
2020/01/31 19:09:07.4	73.890	-0.210	-0.600	1.300
2020/01/31 19:09:07.5	73.890	-0.200	-0.700	1.360
2020/01/31 19:09:07.6	73.880	-0.190	-0.800	1.420
2020/01/31 19:09:07.7	73.880	-0.170	-0.900	1.470
2020/01/31 19:09:07.8	73.880	-0.160	-0.990	1.520
2020/01/31 19:09:07.9	73.880	-0.140	-1.080	1.560
2020/01/31 19:09:08.0	73.880	-0.120	-1.160	1.610
2020/01/31 19:09:08.1	73.890	-0.100	-1.230	1.650
2020/01/31 19:09:08.2	73.890	-0.080	-1.300	1.690
2020/01/31 19:09:08.3	73.900	-0.060	-1.360	1.720
2020/01/31 19:09:08.4	73.900	-0.030	-1.410	1.750
2020/01/31 19:09:08.5	73.910	-0.010	-1.450	1.780
2020/01/31 19:09:08.6	73.920	0.020	-1.490	1.800
2020/01/31 19:09:08.7	73.940	0.040	-1.510	1.820
2020/01/31 19:09:08.8	73.950	0.060	-1.530	1.840
2020/01/31 19:09:08.9	73.970	0.090	-1.540	1.850
2020/01/31 19:09:09.0	73.980	0.110	-1.530	1.860
2020/01/31 19:09:09.1	74.000	0.140	-1.530	1.870
2020/01/31 19:09:09.2	74.010	0.160	-1.510	1.870
2020/01/31 19:09:09.3	74.030	0.190	-1.480	1.870
2020/01/31 19:09:09.4	74.040	0.210	-1.450	1.860
2020/01/31 19:09:09.5	74.060	0.230	-1.410	1.850
2020/01/31 19:09:09.6	74.080	0.250	-1.360	1.840
2020/01/31 19:09:09.7	74.100	0.270	-1.310	1.820
2020/01/31 19:09:09.8	74.110	0.290	-1.250	1.800
2020/01/31 19:09:09.9	74.130	0.300	-1.180	1.780
2020/01/31 19:09:10.0	74.150	0.320	-1.110	1.750
2020/01/31 19:09:10.1	74.170	0.330	-1.040	1.720
2020/01/31 19:09:10.2	74.190	0.340	-0.960	1.690
2020/01/31 19:09:10.3	74.200	0.350	-0.880	1.650
2020/01/31 19:09:10.4	74.220	0.350	-0.790	1.610
2020/01/31 19:09:10.5	74.240	0.350	-0.710	1.570
2020/01/31 19:09:10.6	74.250	0.350	-0.620	1.530
2020/01/31 19:09:10.7	74.270	0.350	-0.530	1.490
2020/01/31 19:09:10.8	74.280	0.340	-0.430	1.450
2020/01/31 19:09:10.9	74.290	0.340	-0.330	1.400
2020/01/31 19:09:11.0	74.300	0.330	-0.240	1.360
2020/01/31 19:09:11.1	74.310	0.310	-0.150	1.310
2020/01/31 19:09:11.2	74.310	0.300	-0.050	1.260
2020/01/31 19:09:11.3	74.310	0.280	0.040	1.220
2020/01/31 19:09:11.4	74.310	0.260	0.130	1.170
2020/01/31 19:09:11.5	74.310	0.240	0.220	1.120
2020/01/31 19:09:11.6	74.300	0.210	0.310	1.080
2020/01/31 19:09:11.7	74.290	0.180	0.400	1.030
2020/01/31 19:09:11.8	74.280	0.160	0.480	0.980
2020/01/31 19:09:11.9	74.270	0.130	0.560	0.930
2020/01/31 19:09:12.0	74.250	0.100	0.630	0.880
2020/01/31 19:09:12.1	74.230	0.060	0.710	0.840
2020/01/31 19:09:12.2	74.220	0.030	0.770	0.790
2020/01/31 19:09:12.3	74.190	-0.000	0.830	0.750
2020/01/31 19:09:12.4	74.170	-0.030	0.890	0.700
2020/01/31 19:09:12.5	74.150	-0.070	0.940	0.650
2020/01/31 19:09:12.6	74.120	-0.100	0.990	0.610
2020/01/31 19:09:12.7	74.100	-0.130	1.030	0.560
2020/01/31 19:09:12.8	74.060	-0.170	1.070	0.510
2020/01/31 19:09:12.9	74.040	-0.200	1.090	0.460
2020/01/31 19:09:13.0	74.010	-0.230	1.110	0.410
2020/01/31 19:09:13.1	73.980	-0.260	1.130	0.360
2020/01/31 19:09:13.2	73.950	-0.290	1.130	0.310
2020/01/31 19:09:13.3	73.920	-0.320	1.130	0.270
2020/01/31 19:09:13.4	73.890	-0.340	1.120	0.220
2020/01/31 19:09:13.5	73.860	-0.370	1.110	0.170
2020/01/31 19:09:13.6	73.830	-0.390	1.090	0.120
2020/01/31 19:09:13.7	73.800	-0.410	1.060	0.070
2020/01/31 19:09:13.8	73.770	-0.430	1.020	0.010
2020/01/31 19:09:13.9	73.750	-0.450	0.970	-0.040
2020/01/31 19:09:14.0	73.720	-0.460	0.920	-0.090
2020/01/31 19:09:14.1	73.700	-0.480	0.870	-0.140
2020/01/31 19:09:14.2	73.670	-0.480	0.800	-0.190
2020/01/31 19:09:14.3	73.650	-0.490	0.740	-0.240
2020/01/31 19:09:14.4	73.630	-0.490	0.660	-0.290
2020/01/31 19:09:14.5	73.610	-0.500	0.580	-0.340
2020/01/31 19:09:14.6	73.600	-0.490	0.500	-0.390
2020/01/31 19:09:14.7	73.580	-0.490	0.410	-0.440
2020/01/31 19:09:14.8	73.570	-0.480	0.320	-0.500
2020/01/31 19:09:14.9	73.560	-0.470	0.220	-0.540
2020/01/31 19:09:15.0	73.550	-0.460	0.120	-0.590
2020/01/31 19:09:15.1	73.540	-0.440	0.020	-0.640
2020/01/31 19:09:15.2	73.530	-0.420	-0.080	-0.680
2020/01/31 19:09:15.3	73.530	-0.400	-0.190	-0.730
2020/01/31 19:09:15.4	73.530	-0.370	-0.290	-0.770
2020/01/31 19:09:15.5	73.530	-0.350	-0.400	-0.820
2020/01/31 19:09:15.6	73.530	-0.320	-0.500	-0.860
2020/01/31 19:09:15.7	73.540	-0.280	-0.610	-0.900
2020/01/31 19:09:15.8	73.540	-0.250	-0.710	-0.940
2020/01/31 19:09:15.9	73.550	-0.210	-0.820	-0.980
2020/01/31 19:09:16.0	73.560	-0.170	-0.920	-1.020
2020/01/31 19:09:16.1	73.570	-0.130	-1.010	-1.050
2020/01/31 19:09:16.2	73.590	-0.090	-1.100	-1.090
2020/01/31 19:09:16.3	73.600	-0.050	-1.190	-1.130
2020/01/31 19:09:16.4	73.620	-0.010	-1.270	-1.160
2020/01/31 19:09:16.5	73.640	0.030	-1.350	-1.190
2020/01/31 19:09:16.6	73.660	0.080	-1.420	-1.220
2020/01/31 19:09:16.7	73.680	0.120	-1.480	-1.250
2020/01/31 19:09:16.8	73.710	0.160	-1.540	-1.280
2020/01/31 19:09:16.9	73.730	0.200	-1.590	-1.300
2020/01/31 19:09:17.0	73.760	0.250	-1.630	-1.320
2020/01/31 19:09:17.1	73.780	0.280	-1.660	-1.340
2020/01/31 19:09:17.2	73.810	0.320	-1.680	-1.360
2020/01/31 19:09:17.3	73.840	0.360	-1.690	-1.370
2020/01/31 19:09:17.4	73.860	0.390	-1.700	-1.380
2020/01/31 19:09:17.5	73.890	0.420	-1.690	-1.380
2020/01/31 19:09:17.6	73.910	0.450	-1.680	-1.380
2020/01/31 19:09:17.7	73.930	0.470	-1.650	-1.370
2020/01/31 19:09:17.8	73.950	0.490	-1.610	-1.350
2020/01/31 19:09:17.9	73.970	0.510	-1.570	-1.340
2020/01/31 19:09:18.0	73.990	0.520	-1.510	-1.310
2020/01/31 19:09:18.1	74.000	0.530	-1.450	-1.280
2020/01/31 19:09:18.2	74.010	0.530	-1.370	-1.240
2020/01/31 19:09:18.3	74.010	0.540	-1.290	-1.200
2020/01/31 19:09:18.4	74.010	0.530	-1.200	-1.150
2020/01/31 19:09:18.5	74.010	0.520	-1.100	-1.090
2020/01/31 19:09:18.6	74.000	0.510	-0.990	-1.030
2020/01/31 19:09:18.7	73.990	0.500	-0.870	-0.960
2020/01/31 19:09:18.8	73.970	0.480	-0.750	-0.880
2020/01/31 19:09:18.9	73.950	0.450	-0.630	-0.800
2020/01/31 19:09:19.0	73.930	0.430	-0.500	-0.710
2020/01/31 19:09:19.1	73.900	0.400	-0.370	-0.630
2020/01/31 19:09:19.2	73.870	0.360	-0.230	-0.530
2020/01/31 19:09:19.3	73.830	0.330	-0.100	-0.440
2020/01/31 19:09:19.4	73.800	0.290	0.040	-0.340
2020/01/31 19:09:19.5	73.760	0.240	0.170	-0.240
2020/01/31 19:09:19.6	73.710	0.200	0.300	-0.140
2020/01/31 19:09:19.7	73.670	0.150	0.420	-0.050
2020/01/31 19:09:19.8	73.630	0.100	0.550	0.050
2020/01/31 19:09:19.9	73.580	0.050	0.660	0.140
2020/01/31 19:09:20.0	73.530	0.000	0.770	0.240
2020/01/31 19:09:20.1	73.480	-0.050	0.870	0.330
2020/01/31 19:09:20.2	73.430	-0.100	0.970	0.410
2020/01/31 19:09:20.3	73.380	-0.160	1.050	0.490
2020/01/31 19:09:20.4	73.330	-0.210	1.130	0.570
2020/01/31 19:09:20.5	73.280	-0.260	1.200	0.640
2020/01/31 19:09:20.6	73.240	-0.310	1.250	0.700
2020/01/31 19:09:20.7	73.190	-0.360	1.300	0.760
2020/01/31 19:09:20.8	73.140	-0.410	1.340	0.810
2020/01/31 19:09:20.9	73.100	-0.450	1.360	0.850
2020/01/31 19:09:21.0	73.060	-0.500	1.380	0.890
2020/01/31 19:09:21.1	73.020	-0.540	1.390	0.920
2020/01/31 19:09:21.2	72.980	-0.580	1.390	0.950
2020/01/31 19:09:21.3	72.940	-0.610	1.370	0.960
2020/01/31 19:09:21.4	72.910	-0.640	1.350	0.980
2020/01/31 19:09:21.5	72.880	-0.670	1.320	0.980
2020/01/31 19:09:21.6	72.850	-0.690	1.280	0.980
2020/01/31 19:09:21.7	72.830	-0.710	1.230	0.980
2020/01/31 19:09:21.8	72.810	-0.720	1.180	0.970
2020/01/31 19:09:21.9	72.790	-0.730	1.120	0.950
2020/01/31 19:09:22.0	72.770	-0.730	1.050	0.930
2020/01/31 19:09:22.1	72.750	-0.730	0.970	0.910
2020/01/31 19:09:22.2	72.740	-0.720	0.890	0.890
2020/01/31 19:09:22.3	72.730	-0.710	0.800	0.860
2020/01/31 19:09:22.4	72.720	-0.700	0.710	0.830
2020/01/31 19:09:22.5	72.710	-0.670	0.620	0.800
2020/01/31 19:09:22.6	72.710	-0.650	0.510	0.770
2020/01/31 19:09:22.7	72.710	-0.620	0.410	0.740
2020/01/31 19:09:22.8	72.710	-0.580	0.300	0.710
2020/01/31 19:09:22.9	72.710	-0.540	0.190	0.680
2020/01/31 19:09:23.0	72.720	-0.500	0.070	0.640
2020/01/31 19:09:23.1	72.720	-0.450	-0.040	0.610
2020/01/31 19:09:23.2	72.730	-0.400	-0.160	0.580
2020/01/31 19:09:23.3	72.750	-0.340	-0.280	0.550
2020/01/31 19:09:23.4	72.760	-0.280	-0.400	0.510
2020/01/31 19:09:23.5	72.780	-0.220	-0.520	0.480
2020/01/31 19:09:23.6	72.800	-0.160	-0.630	0.450
2020/01/31 19:09:23.7	72.820	-0.100	-0.750	0.420
2020/01/31 19:09:23.8	72.840	-0.030	-0.870	0.400
2020/01/31 19:09:23.9	72.870	0.030	-0.980	0.370
2020/01/31 19:09:24.0	72.900	0.100	-1.090	0.340
2020/01/31 19:09:24.1	72.930	0.170	-1.190	0.310
2020/01/31 19:09:24.2	72.960	0.230	-1.290	0.290
2020/01/31 19:09:24.3	73.000	0.300	-1.390	0.260
2020/01/31 19:09:24.4	73.030	0.360	-1.480	0.240
2020/01/31 19:09:24.5	73.070	0.420	-1.560	0.210
2020/01/31 19:09:24.6	73.100	0.480	-1.630	0.190
2020/01/31 19:09:24.7	73.140	0.540	-1.690	0.170
2020/01/31 19:09:24.8	73.170	0.590	-1.750	0.140
2020/01/31 19:09:24.9	73.210	0.640	-1.800	0.130
2020/01/31 19:09:25.0	73.240	0.690	-1.830	0.110
2020/01/31 19:09:25.1	73.270	0.730	-1.850	0.090
2020/01/31 19:09:25.2	73.300	0.770	-1.870	0.080
2020/01/31 19:09:25.3	73.320	0.800	-1.860	0.070
2020/01/31 19:09:25.4	73.340	0.820	-1.850	0.060
2020/01/31 19:09:25.5	73.360	0.850	-1.830	0.060
2020/01/31 19:09:25.6	73.370	0.860	-1.790	0.060
2020/01/31 19:09:25.7	73.380	0.870	-1.740	0.060
2020/01/31 19:09:25.8	73.380	0.880	-1.670	0.060
2020/01/31 19:09:25.9	73.380	0.880	-1.600	0.070
2020/01/31 19:09:26.0	73.370	0.870	-1.510	0.080
2020/01/31 19:09:26.1	73.360	0.860	-1.420	0.090
2020/01/31 19:09:26.2	73.340	0.840	-1.310	0.100
2020/01/31 19:09:26.3	73.320	0.820	-1.200	0.110
2020/01/31 19:09:26.4	73.300	0.790	-1.080	0.130
2020/01/31 19:09:26.5	73.270	0.750	-0.950	0.150
2020/01/31 19:09:26.6	73.240	0.720	-0.820	0.160
2020/01/31 19:09:26.7	73.200	0.670	-0.680	0.180
2020/01/31 19:09:26.8	73.170	0.630	-0.540	0.200
2020/01/31 19:09:26.9	73.130	0.580	-0.400	0.210
2020/01/31 19:09:27.0	73.090	0.530	-0.260	0.230
2020/01/31 19:09:27.1	73.050	0.470	-0.120	0.250
2020/01/31 19:09:27.2	73.010	0.410	0.020	0.270
2020/01/31 19:09:27.3	72.970	0.350	0.150	0.280
2020/01/31 19:09:27.4	72.930	0.300	0.280	0.300
2020/01/31 19:09:27.5	72.890	0.230	0.410	0.310
2020/01/31 19:09:27.6	72.850	0.170	0.530	0.320
2020/01/31 19:09:27.7	72.810	0.110	0.640	0.330
2020/01/31 19:09:27.8	72.780	0.050	0.740	0.330
2020/01/31 19:09:27.9	72.750	-0.010	0.840	0.330
2020/01/31 19:09:28.0	72.720	-0.060	0.920	0.330
2020/01/31 19:09:28.1	72.690	-0.120	1.000	0.330
2020/01/31 19:09:28.2	72.670	-0.170	1.060	0.320
2020/01/31 19:09:28.3	72.650	-0.220	1.120	0.310
2020/01/31 19:09:28.4	72.630	-0.270	1.160	0.300
2020/01/31 19:09:28.5	72.610	-0.320	1.190	0.290
2020/01/31 19:09:28.6	72.590	-0.360	1.220	0.270
2020/01/31 19:09:28.7	72.580	-0.400	1.230	0.250
2020/01/31 19:09:28.8	72.560	-0.430	1.240	0.220
2020/01/31 19:09:28.9	72.550	-0.460	1.230	0.200
2020/01/31 19:09:29.0	72.540	-0.490	1.220	0.170
2020/01/31 19:09:29.1	72.540	-0.510	1.190	0.150
2020/01/31 19:09:29.2	72.530	-0.530	1.160	0.120
2020/01/31 19:09:29.3	72.520	-0.540	1.130	0.090
2020/01/31 19:09:29.4	72.520	-0.550	1.080	0.060
2020/01/31 19:09:29.5	72.510	-0.560	1.030	0.030
2020/01/31 19:09:29.6	72.510	-0.560	0.970	0.000
2020/01/31 19:09:29.7	72.500	-0.560	0.910	-0.030
2020/01/31 19:09:29.8	72.490	-0.550	0.840	-0.060
2020/01/31 19:09:29.9	72.480	-0.550	0.770	-0.090
2020/01/31 19:09:30.0	72.480	-0.530	0.700	-0.120
2020/01/31 19:09:30.1	72.470	-0.520	0.620	-0.150
2020/01/31 19:09:30.2	72.460	-0.500	0.540	-0.180
2020/01/31 19:09:30.3	72.450	-0.480	0.460	-0.210
2020/01/31 19:09:30.4	72.450	-0.460	0.380	-0.240
2020/01/31 19:09:30.5	72.440	-0.440	0.300	-0.270
2020/01/31 19:09:30.6	72.430	-0.410	0.220	-0.300
2020/01/31 19:09:30.7	72.430	-0.390	0.130	-0.330
2020/01/31 19:09:30.8	72.420	-0.360	0.050	-0.350
2020/01/31 19:09:30.9	72.410	-0.330	-0.030	-0.380
2020/01/31 19:09:31.0	72.410	-0.310	-0.110	-0.420
2020/01/31 19:09:31.1	72.410	-0.280	-0.190	-0.450
2020/01/31 19:09:31.2	72.400	-0.250	-0.260	-0.480
2020/01/31 19:09:31.3	72.400	-0.230	-0.330	-0.510
2020/01/31 19:09:31.4	72.400	-0.200	-0.400	-0.540
2020/01/31 19:09:31.5	72.400	-0.180	-0.460	-0.570
2020/01/31 19:09:31.6	72.400	-0.150	-0.520	-0.600
2020/01/31 19:09:31.7	72.410	-0.130	-0.580	-0.630
2020/01/31 19:09:31.8	72.410	-0.110	-0.630	-0.660
2020/01/31 19:09:31.9	72.420	-0.090	-0.680	-0.690
2020/01/31 19:09:32.0	72.420	-0.070	-0.720	-0.720
2020/01/31 19:09:32.1	72.430	-0.060	-0.760	-0.740
2020/01/31 19:09:32.2	72.440	-0.040	-0.790	-0.760
2020/01/31 19:09:32.3	72.450	-0.030	-0.820	-0.780
2020/01/31 19:09:32.4	72.450	-0.020	-0.840	-0.790
2020/01/31 19:09:32.5	72.460	-0.010	-0.860	-0.810
2020/01/31 19:09:32.6	72.470	-0.010	-0.870	-0.820
2020/01/31 19:09:32.7	72.480	-0.000	-0.880	-0.820
2020/01/31 19:09:32.8	72.490	0.000	-0.890	-0.830
2020/01/31 19:09:32.9	72.500	0.010	-0.890	-0.820
2020/01/31 19:09:33.0	72.500	0.010	-0.880	-0.820
2020/01/31 19:09:33.1	72.510	0.010	-0.870	-0.810
2020/01/31 19:09:33.2	72.510	0.010	-0.860	-0.800
2020/01/31 19:09:33.3	72.510	0.010	-0.840	-0.780
2020/01/31 19:09:33.4	72.510	0.000	-0.820	-0.760
2020/01/31 19:09:33.5	72.510	0.000	-0.800	-0.740
2020/01/31 19:09:33.6	72.510	0.000	-0.770	-0.710
2020/01/31 19:09:33.7	72.510	-0.000	-0.750	-0.680
2020/01/31 19:09:33.8	72.510	-0.000	-0.720	-0.640
2020/01/31 19:09:33.9	72.510	-0.010	-0.690	-0.600
2020/01/31 19:09:34.0	72.500	-0.010	-0.660	-0.560
2020/01/31 19:09:34.1	72.490	-0.010	-0.630	-0.520
2020/01/31 19:09:34.2	72.490	-0.010	-0.600	-0.470
2020/01/31 19:09:34.3	72.480	-0.010	-0.570	-0.430
2020/01/31 19:09:34.4	72.480	-0.010	-0.540	-0.380
2020/01/31 19:09:34.5	72.470	-0.010	-0.520	-0.330
2020/01/31 19:09:34.6	72.460	-0.000	-0.490	-0.280
2020/01/31 19:09:34.7	72.450	-0.000	-0.470	-0.230
2020/01/31 19:09:34.8	72.450	0.000	-0.450	-0.190
2020/01/31 19:09:34.9	72.440	0.010	-0.430	-0.140
2020/01/31 19:09:35.0	72.430	0.020	-0.420	-0.090
2020/01/31 19:09:35.1	72.430	0.030	-0.400	-0.050
2020/01/31 19:09:35.2	72.420	0.040	-0.390	-0.000
2020/01/31 19:09:35.3	72.420	0.050	-0.380	0.040
2020/01/31 19:09:35.4	72.420	0.060	-0.370	0.080
2020/01/31 19:09:35.5	72.420	0.080	-0.360	0.120
2020/01/31 19:09:35.6	72.420	0.090	-0.350	0.150
2020/01/31 19:09:35.7	72.420	0.110	-0.350	0.190
2020/01/31 19:09:35.8	72.420	0.130	-0.340	0.220
2020/01/31 19:09:35.9	72.420	0.140	-0.340	0.240
2020/01/31 19:09:36.0	72.420	0.160	-0.330	0.270
2020/01/31 19:09:36.1	72.430	0.180	-0.330	0.290
2020/01/31 19:09:36.2	72.440	0.200	-0.330	0.300
2020/01/31 19:09:36.3	72.440	0.220	-0.320	0.320
2020/01/31 19:09:36.4	72.450	0.240	-0.320	0.330
2020/01/31 19:09:36.5	72.460	0.250	-0.310	0.340
2020/01/31 19:09:36.6	72.470	0.270	-0.310	0.340
2020/01/31 19:09:36.7	72.480	0.290	-0.300	0.350
2020/01/31 19:09:36.8	72.490	0.300	-0.290	0.350
2020/01/31 19:09:36.9	72.500	0.320	-0.280	0.350
2020/01/31 19:09:37.0	72.520	0.330	-0.270	0.350
2020/01/31 19:09:37.1	72.530	0.340	-0.250	0.350
2020/01/31 19:09:37.2	72.540	0.350	-0.230	0.340
2020/01/31 19:09:37.3	72.560	0.360	-0.210	0.340
2020/01/31 19:09:37.4	72.570	0.360	-0.190	0.340
2020/01/31 19:09:37.5	72.580	0.370	-0.160	0.340
2020/01/31 19:09:37.6	72.590	0.370	-0.130	0.340
2020/01/31 19:09:37.7	72.600	0.370	-0.100	0.330
2020/01/31 19:09:37.8	72.610	0.360	-0.060	0.330
2020/01/31 19:09:37.9	72.610	0.360	-0.030	0.330
2020/01/31 19:09:38.0	72.620	0.350	0.010	0.340
2020/01/31 19:09:38.1	72.620	0.340	0.050	0.340
2020/01/31 19:09:38.2	72.620	0.330	0.090	0.350
2020/01/31 19:09:38.3	72.620	0.320	0.130	0.360
2020/01/31 19:09:38.4	72.620	0.300	0.180	0.370
2020/01/31 19:09:38.5	72.610	0.290	0.220	0.380
2020/01/31 19:09:38.6	72.610	0.270	0.260	0.390
2020/01/31 19:09:38.7	72.600	0.250	0.300	0.400
2020/01/31 19:09:38.8	72.590	0.220	0.330	0.420
2020/01/31 19:09:38.9	72.580	0.200	0.370	0.430
2020/01/31 19:09:39.0	72.570	0.180	0.410	0.450
2020/01/31 19:09:39.1	72.560	0.150	0.440	0.470
2020/01/31 19:09:39.2	72.550	0.120	0.460	0.480
2020/01/31 19:09:39.3	72.530	0.090	0.490	0.500
2020/01/31 19:09:39.4	72.520	0.070	0.510	0.520
2020/01/31 19:09:39.5	72.510	0.040	0.520	0.530
2020/01/31 19:09:39.6	72.490	0.010	0.530	0.550
2020/01/31 19:09:39.7	72.480	-0.020	0.540	0.560
2020/01/31 19:09:39.8	72.470	-0.050	0.540	0.570
2020/01/31 19:09:39.9	72.460	-0.080	0.530	0.580
2020/01/31 19:09:40.0	72.450	-0.100	0.520	0.590
2020/01/31 19:09:40.1	72.440	-0.130	0.500	0.590
2020/01/31 19:09:40.2	72.430	-0.160	0.480	0.600
2020/01/31 19:09:40.3	72.430	-0.180	0.450	0.600
2020/01/31 19:09:40.4	72.420	-0.210	0.420	0.590
2020/01/31 19:09:40.5	72.420	-0.230	0.380	0.590
2020/01/31 19:09:40.6	72.410	-0.250	0.340	0.580
2020/01/31 19:09:40.7	72.410	-0.270	0.290	0.570
2020/01/31 19:09:40.8	72.410	-0.280	0.240	0.550
2020/01/31 19:09:40.9	72.400	-0.300	0.190	0.540
2020/01/31 19:09:41.0	72.400	-0.310	0.140	0.520
2020/01/31 19:09:41.1	72.400	-0.330	0.080	0.500
2020/01/31 19:09:41.2	72.390	-0.340	0.020	0.480
2020/01/31 19:09:41.3	72.390	-0.340	-0.040	0.450
2020/01/31 19:09:41.4	72.390	-0.350	-0.100	0.430
2020/01/31 19:09:41.5	72.380	-0.350	-0.150	0.410
2020/01/31 19:09:41.6	72.380	-0.350	-0.210	0.380
2020/01/31 19:09:41.7	72.370	-0.350	-0.270	0.360
2020/01/31 19:09:41.8	72.370	-0.350	-0.320	0.320
2020/01/31 19:09:41.9	72.360	-0.340	-0.370	0.300
2020/01/31 19:09:42.0	72.360	-0.330	-0.420	0.270
2020/01/31 19:09:42.1	72.350	-0.320	-0.470	0.240
2020/01/31 19:09:42.2	72.340	-0.310	-0.510	0.220
2020/01/31 19:09:42.3	72.340	-0.300	-0.550	0.190
2020/01/31 19:09:42.4	72.330	-0.280	-0.590	0.160
2020/01/31 19:09:42.5	72.330	-0.260	-0.630	0.130
2020/01/31 19:09:42.6	72.330	-0.240	-0.660	0.110
2020/01/31 19:09:42.7	72.330	-0.220	-0.690	0.080
2020/01/31 19:09:42.8	72.330	-0.190	-0.720	0.040
2020/01/31 19:09:42.9	72.340	-0.170	-0.750	0.010
2020/01/31 19:09:43.0	72.350	-0.140	-0.770	-0.020
2020/01/31 19:09:43.1	72.360	-0.110	-0.790	-0.050
2020/01/31 19:09:43.2	72.370	-0.080	-0.810	-0.080
2020/01/31 19:09:43.3	72.380	-0.050	-0.830	-0.120
2020/01/31 19:09:43.4	72.400	-0.010	-0.840	-0.150
2020/01/31 19:09:43.5	72.420	0.020	-0.850	-0.190
2020/01/31 19:09:43.6	72.440	0.050	-0.860	-0.230
2020/01/31 19:09:43.7	72.460	0.090	-0.870	-0.260
2020/01/31 19:09:43.8	72.490	0.120	-0.870	-0.300
2020/01/31 19:09:43.9	72.510	0.150	-0.870	-0.340
2020/01/31 19:09:44.0	72.540	0.190	-0.870	-0.380
2020/01/31 19:09:44.1	72.570	0.220	-0.860	-0.410
2020/01/31 19:09:44.2	72.600	0.250	-0.860	-0.450
2020/01/31 19:09:44.3	72.630	0.280	-0.850	-0.480
2020/01/31 19:09:44.4	72.660	0.300	-0.830	-0.520
2020/01/31 19:09:44.5	72.690	0.330	-0.820	-0.550
2020/01/31 19:09:44.6	72.710	0.350	-0.790	-0.580
2020/01/31 19:09:44.7	72.740	0.370	-0.770	-0.610
2020/01/31 19:09:44.8	72.770	0.390	-0.750	-0.630
2020/01/31 19:09:44.9	72.790	0.400	-0.720	-0.660
2020/01/31 19:09:45.0	72.820	0.410	-0.680	-0.670
2020/01/31 19:09:45.1	72.840	0.420	-0.640	-0.690
2020/01/31 19:09:45.2	72.860	0.430	-0.600	-0.700
2020/01/31 19:09:45.3	72.880	0.430	-0.550	-0.710
2020/01/31 19:09:45.4	72.890	0.430	-0.500	-0.720
2020/01/31 19:09:45.5	72.910	0.420	-0.450	-0.720
2020/01/31 19:09:45.6	72.920	0.410	-0.400	-0.720
2020/01/31 19:09:45.7	72.930	0.400	-0.340	-0.720
2020/01/31 19:09:45.8	72.930	0.380	-0.280	-0.700
2020/01/31 19:09:45.9	72.940	0.360	-0.220	-0.690
2020/01/31 19:09:46.0	72.940	0.340	-0.150	-0.680
2020/01/31 19:09:46.1	72.930	0.320	-0.090	-0.660
2020/01/31 19:09:46.2	72.930	0.290	-0.030	-0.630
2020/01/31 19:09:46.3	72.920	0.260	0.040	-0.610
2020/01/31 19:09:46.4	72.910	0.230	0.100	-0.580
2020/01/31 19:09:46.5	72.900	0.190	0.170	-0.550
2020/01/31 19:09:46.6	72.880	0.160	0.230	-0.520
2020/01/31 19:09:46.7	72.870	0.120	0.290	-0.480
2020/01/31 19:09:46.8	72.850	0.080	0.350	-0.450
2020/01/31 19:09:46.9	72.830	0.040	0.400	-0.410
2020/01/31 19:09:47.0	72.810	0.000	0.450	-0.370
2020/01/31 19:09:47.1	72.790	-0.040	0.500	-0.330
2020/01/31 19:09:47.2	72.780	-0.080	0.550	-0.290
2020/01/31 19:09:47.3	72.760	-0.120	0.590	-0.250
2020/01/31 19:09:47.4	72.740	-0.160	0.620	-0.210
2020/01/31 19:09:47.5	72.720	-0.190	0.650	-0.170
2020/01/31 19:09:47.6	72.710	-0.230	0.680	-0.130
2020/01/31 19:09:47.7	72.690	-0.260	0.690	-0.100
2020/01/31 19:09:47.8	72.670	-0.300	0.710	-0.070
2020/01/31 19:09:47.9	72.660	-0.320	0.710	-0.040
2020/01/31 19:09:48.0	72.660	-0.350	0.710	-0.010
2020/01/31 19:09:48.1	72.650	-0.370	0.700	0.010
2020/01/31 19:09:48.2	72.650	-0.400	0.690	0.040
2020/01/31 19:09:48.3	72.650	-0.410	0.670	0.050
2020/01/31 19:09:48.4	72.650	-0.430	0.640	0.070
2020/01/31 19:09:48.5	72.650	-0.440	0.600	0.080
2020/01/31 19:09:48.6	72.650	-0.440	0.570	0.090
2020/01/31 19:09:48.7	72.660	-0.450	0.520	0.090
2020/01/31 19:09:48.8	72.670	-0.450	0.470	0.090
2020/01/31 19:09:48.9	72.680	-0.440	0.420	0.090
2020/01/31 19:09:49.0	72.690	-0.440	0.360	0.080
2020/01/31 19:09:49.1	72.700	-0.430	0.300	0.080
2020/01/31 19:09:49.2	72.720	-0.410	0.240	0.070
2020/01/31 19:09:49.3	72.730	-0.400	0.180	0.060
2020/01/31 19:09:49.4	72.750	-0.380	0.110	0.050
2020/01/31 19:09:49.5	72.760	-0.350	0.050	0.040
2020/01/31 19:09:49.6	72.780	-0.330	-0.020	0.020
2020/01/31 19:09:49.7	72.800	-0.300	-0.080	0.010
2020/01/31 19:09:49.8	72.810	-0.270	-0.140	-0.000
2020/01/31 19:09:49.9	72.820	-0.240	-0.200	-0.010
2020/01/31 19:09:50.0	72.840	-0.210	-0.260	-0.020
2020/01/31 19:09:50.1	72.850	-0.180	-0.310	-0.030
2020/01/31 19:09:50.2	72.860	-0.140	-0.360	-0.040
2020/01/31 19:09:50.3	72.870	-0.100	-0.400	-0.040
2020/01/31 19:09:50.4	72.880	-0.070	-0.440	-0.040
2020/01/31 19:09:50.5	72.890	-0.030	-0.480	-0.040
2020/01/31 19:09:50.6	72.900	0.010	-0.520	-0.040
2020/01/31 19:09:50.7	72.910	0.040	-0.550	-0.030
2020/01/31 19:09:50.8	72.910	0.080	-0.580	-0.020
2020/01/31 19:09:50.9	72.920	0.110	-0.600	-0.010
2020/01/31 19:09:51.0	72.920	0.140	-0.620	-0.000
2020/01/31 19:09:51.1	72.930	0.180	-0.630	0.010
2020/01/31 19:09:51.2	72.930	0.210	-0.650	0.030
2020/01/31 19:09:51.3	72.940	0.230	-0.660	0.040
2020/01/31 19:09:51.4	72.940	0.260	-0.660	0.060
2020/01/31 19:09:51.5	72.940	0.280	-0.670	0.080
2020/01/31 19:09:51.6	72.950	0.310	-0.670	0.100
2020/01/31 19:09:51.7	72.950	0.320	-0.680	0.130
2020/01/31 19:09:51.8	72.960	0.340	-0.670	0.150
2020/01/31 19:09:51.9	72.960	0.360	-0.680	0.180
2020/01/31 19:09:52.0	72.970	0.370	-0.680	0.200
2020/01/31 19:09:52.1	72.980	0.380	-0.680	0.230
2020/01/31 19:09:52.2	72.990	0.390	-0.680	0.260
2020/01/31 19:09:52.3	73.000	0.390	-0.680	0.280
2020/01/31 19:09:52.4	73.020	0.400	-0.680	0.310
2020/01/31 19:09:52.5	73.030	0.400	-0.680	0.340
2020/01/31 19:09:52.6	73.050	0.400	-0.680	0.360
2020/01/31 19:09:52.7	73.070	0.400	-0.680	0.390
2020/01/31 19:09:52.8	73.090	0.390	-0.690	0.410
2020/01/31 19:09:52.9	73.110	0.390	-0.690	0.430
2020/01/31 19:09:53.0	73.140	0.380	-0.700	0.450
2020/01/31 19:09:53.1	73.160	0.380	-0.700	0.470
2020/01/31 19:09:53.2	73.190	0.370	-0.710	0.490
2020/01/31 19:09:53.3	73.220	0.360	-0.710	0.510
2020/01/31 19:09:53.4	73.240	0.350	-0.720	0.520
2020/01/31 19:09:53.5	73.270	0.340	-0.720	0.530
2020/01/31 19:09:53.6	73.300	0.320	-0.730	0.550
2020/01/31 19:09:53.7	73.320	0.310	-0.730	0.550
2020/01/31 19:09:53.8	73.350	0.300	-0.730	0.560
2020/01/31 19:09:53.9	73.370	0.290	-0.730	0.560
2020/01/31 19:09:54.0	73.400	0.270	-0.720	0.570
2020/01/31 19:09:54.1	73.420	0.260	-0.710	0.570
2020/01/31 19:09:54.2	73.440	0.240	-0.700	0.570
2020/01/31 19:09:54.3	73.460	0.230	-0.690	0.570
2020/01/31 19:09:54.4	73.480	0.210	-0.660	0.560
2020/01/31 19:09:54.5	73.490	0.190	-0.640	0.560
2020/01/31 19:09:54.6	73.500	0.180	-0.610	0.550
2020/01/31 19:09:54.7	73.510	0.160	-0.570	0.550
2020/01/31 19:09:54.8	73.520	0.140	-0.520	0.540
2020/01/31 19:09:54.9	73.520	0.120	-0.480	0.540
2020/01/31 19:09:55.0	73.520	0.100	-0.420	0.530
2020/01/31 19:09:55.1	73.520	0.080	-0.370	0.520
2020/01/31 19:09:55.2	73.520	0.050	-0.300	0.510
2020/01/31 19:09:55.3	73.510	0.030	-0.240	0.510
2020/01/31 19:09:55.4	73.500	0.010	-0.160	0.500
2020/01/31 19:09:55.5	73.490	-0.020	-0.090	0.490
2020/01/31 19:09:55.6	73.480	-0.040	-0.010	0.480
2020/01/31 19:09:55.7	73.460	-0.070	0.070	0.480
2020/01/31 19:09:55.8	73.440	-0.100	0.160	0.470
2020/01/31 19:09:55.9	73.420	-0.120	0.240	0.460
2020/01/31 19:09:56.0	73.400	-0.150	0.330	0.450
2020/01/31 19:09:56.1	73.380	-0.180	0.410	0.450
2020/01/31 19:09:56.2	73.360	-0.210	0.490	0.440
2020/01/31 19:09:56.3	73.340	-0.230	0.580	0.430
2020/01/31 19:09:56.4	73.310	-0.260	0.650	0.420
2020/01/31 19:09:56.5	73.290	-0.290	0.730	0.420
2020/01/31 19:09:56.6	73.270	-0.310	0.800	0.410
2020/01/31 19:09:56.7	73.250	-0.330	0.860	0.400
2020/01/31 19:09:56.8	73.230	-0.360	0.920	0.380
2020/01/31 19:09:56.9	73.210	-0.380	0.970	0.370
2020/01/31 19:09:57.0	73.190	-0.400	1.010	0.360
2020/01/31 19:09:57.1	73.180	-0.410	1.040	0.340
2020/01/31 19:09:57.2	73.170	-0.430	1.060	0.330
2020/01/31 19:09:57.3	73.160	-0.440	1.070	0.310
2020/01/31 19:09:57.4	73.150	-0.440	1.080	0.280
2020/01/31 19:09:57.5	73.140	-0.450	1.070	0.260
2020/01/31 19:09:57.6	73.140	-0.450	1.050	0.230
2020/01/31 19:09:57.7	73.150	-0.450	1.020	0.200
2020/01/31 19:09:57.8	73.150	-0.450	0.980	0.160
2020/01/31 19:09:57.9	73.160	-0.440	0.930	0.130
2020/01/31 19:09:58.0	73.170	-0.430	0.880	0.090
2020/01/31 19:09:58.1	73.180	-0.410	0.810	0.040
2020/01/31 19:09:58.2	73.200	-0.400	0.740	0.000
2020/01/31 19:09:58.3	73.220	-0.380	0.660	-0.050
2020/01/31 19:09:58.4	73.240	-0.350	0.570	-0.090
2020/01/31 19:09:58.5	73.260	-0.330	0.480	-0.140
2020/01/31 19:09:58.6	73.290	-0.300	0.380	-0.200
2020/01/31 19:09:58.7	73.310	-0.270	0.280	-0.250
2020/01/31 19:09:58.8	73.340	-0.240	0.180	-0.310
2020/01/31 19:09:58.9	73.370	-0.200	0.080	-0.360
2020/01/31 19:09:59.0	73.390	-0.170	-0.030	-0.420
2020/01/31 19:09:59.1	73.420	-0.130	-0.130	-0.470
2020/01/31 19:09:59.2	73.450	-0.090	-0.230	-0.520
2020/01/31 19:09:59.3	73.470	-0.060	-0.340	-0.580
2020/01/31 19:09:59.4	73.500	-0.020	-0.430	-0.630
2020/01/31 19:09:59.5	73.520	0.020	-0.530	-0.680
2020/01/31 19:09:59.6	73.550	0.050	-0.620	-0.720
2020/01/31 19:09:59.7	73.570	0.090	-0.710	-0.770
2020/01/31 19:09:59.8	73.590	0.120	-0.790	-0.800
2020/01/31 19:09:59.9	73.600	0.160	-0.860	-0.840
2020/01/31 19:10:00.0	73.620	0.190	-0.930	-0.870
2020/01/31 19:10:00.1	73.630	0.220	-0.990	-0.900
2020/01/31 19:10:00.2	73.640	0.250	-1.050	-0.930
2020/01/31 19:10:00.3	73.650	0.270	-1.100	-0.950
2020/01/31 19:10:00.4	73.660	0.300	-1.140	-0.970
2020/01/31 19:10:00.5	73.670	0.320	-1.170	-0.980
2020/01/31 19:10:00.6	73.670	0.340	-1.200	-0.990
2020/01/31 19:10:00.7	73.680	0.350	-1.220	-1.000
2020/01/31 19:10:00.8	73.680	0.360	-1.230	-1.000
2020/01/31 19:10:00.9	73.680	0.370	-1.230	-1.000
2020/01/31 19:10:01.0	73.680	0.380	-1.230	-0.990
2020/01/31 19:10:01.1	73.680	0.390	-1.220	-0.970
2020/01/31 19:10:01.2	73.680	0.390	-1.200	-0.960
2020/01/31 19:10:01.3	73.690	0.390	-1.180	-0.940
2020/01/31 19:10:01.4	73.690	0.390	-1.150	-0.910
2020/01/31 19:10:01.5	73.690	0.380	-1.120	-0.890
2020/01/31 19:10:01.6	73.690	0.370	-1.080	-0.860
2020/01/31 19:10:01.7	73.700	0.360	-1.030	-0.820
2020/01/31 19:10:01.8	73.700	0.350	-0.990	-0.780
2020/01/31 19:10:01.9	73.710	0.340	-0.930	-0.750
2020/01/31 19:10:02.0	73.710	0.320	-0.880	-0.700
2020/01/31 19:10:02.1	73.720	0.300	-0.830	-0.660
2020/01/31 19:10:02.2	73.730	0.280	-0.770	-0.620
2020/01/31 19:10:02.3	73.740	0.260	-0.710	-0.580
2020/01/31 19:10:02.4	73.750	0.240	-0.650	-0.530
2020/01/31 19:10:02.5	73.770	0.210	-0.590	-0.490
2020/01/31 19:10:02.6	73.780	0.190	-0.540	-0.450
2020/01/31 19:10:02.7	73.800	0.170	-0.480	-0.400
2020/01/31 19:10:02.8	73.820	0.140	-0.420	-0.360
2020/01/31 19:10:02.9	73.830	0.110	-0.370	-0.320
2020/01/31 19:10:03.0	73.850	0.090	-0.310	-0.270
2020/01/31 19:10:03.1	73.870	0.060	-0.260	-0.230
2020/01/31 19:10:03.2	73.880	0.040	-0.210	-0.180
2020/01/31 19:10:03.3	73.900	0.010	-0.160	-0.140
2020/01/31 19:10:03.4	73.920	-0.020	-0.110	-0.090
2020/01/31 19:10:03.5	73.930	-0.040	-0.060	-0.040
2020/01/31 19:10:03.6	73.940	-0.070	-0.020	0.000
2020/01/31 19:10:03.7	73.950	-0.090	0.030	0.050
2020/01/31 19:10:03.8	73.970	-0.110	0.070	0.100
2020/01/31 19:10:03.9	73.980	-0.140	0.110	0.150
2020/01/31 19:10:04.0	73.980	-0.160	0.150	0.200
2020/01/31 19:10:04.1	73.990	-0.180	0.190	0.250
2020/01/31 19:10:04.2	73.990	-0.200	0.230	0.300
2020/01/31 19:10:04.3	73.990	-0.220	0.270	0.350
2020/01/31 19:10:04.4	73.990	-0.230	0.300	0.400
2020/01/31 19:10:04.5	73.990	-0.250	0.340	0.450
2020/01/31 19:10:04.6	73.990	-0.260	0.370	0.500
2020/01/31 19:10:04.7	73.980	-0.270	0.400	0.550
2020/01/31 19:10:04.8	73.980	-0.280	0.430	0.590
2020/01/31 19:10:04.9	73.970	-0.290	0.460	0.640
2020/01/31 19:10:05.0	73.960	-0.300	0.490	0.690
2020/01/31 19:10:05.1	73.950	-0.300	0.510	0.730
2020/01/31 19:10:05.2	73.940	-0.300	0.530	0.780
2020/01/31 19:10:05.3	73.930	-0.310	0.540	0.820
2020/01/31 19:10:05.4	73.920	-0.300	0.560	0.860
2020/01/31 19:10:05.5	73.900	-0.300	0.570	0.900
2020/01/31 19:10:05.6	73.890	-0.290	0.570	0.930
2020/01/31 19:10:05.7	73.880	-0.280	0.570	0.960
2020/01/31 19:10:05.8	73.870	-0.270	0.560	0.990
2020/01/31 19:10:05.9	73.860	-0.260	0.550	1.020
2020/01/31 19:10:06.0	73.850	-0.250	0.540	1.040
2020/01/31 19:10:06.1	73.840	-0.230	0.520	1.060
2020/01/31 19:10:06.2	73.830	-0.210	0.490	1.070
2020/01/31 19:10:06.3	73.820	-0.190	0.460	1.080
2020/01/31 19:10:06.4	73.810	-0.160	0.420	1.090
2020/01/31 19:10:06.5	73.810	-0.140	0.380	1.100
2020/01/31 19:10:06.6	73.800	-0.110	0.340	1.090
2020/01/31 19:10:06.7	73.790	-0.080	0.290	1.090
2020/01/31 19:10:06.8	73.790	-0.050	0.230	1.080
2020/01/31 19:10:06.9	73.790	-0.020	0.170	1.070
2020/01/31 19:10:07.0	73.780	0.010	0.110	1.050
2020/01/31 19:10:07.1	73.780	0.050	0.050	1.040
2020/01/31 19:10:07.2	73.770	0.080	-0.020	1.020
2020/01/31 19:10:07.3	73.770	0.120	-0.090	0.990
2020/01/31 19:10:07.4	73.770	0.160	-0.160	0.970
2020/01/31 19:10:07.5	73.770	0.190	-0.230	0.940
2020/01/31 19:10:07.6	73.770	0.230	-0.300	0.910
2020/01/31 19:10:07.7	73.770	0.270	-0.370	0.880
2020/01/31 19:10:07.8	73.770	0.300	-0.430	0.840
2020/01/31 19:10:07.9	73.770	0.340	-0.500	0.810
2020/01/31 19:10:08.0	73.770	0.370	-0.560	0.770
2020/01/31 19:10:08.1	73.780	0.400	-0.620	0.740
2020/01/31 19:10:08.2	73.780	0.430	-0.680	0.700
2020/01/31 19:10:08.3	73.780	0.460	-0.730	0.660
2020/01/31 19:10:08.4	73.790	0.490	-0.780	0.630
2020/01/31 19:10:08.5	73.790	0.510	-0.830	0.590
2020/01/31 19:10:08.6	73.800	0.530	-0.870	0.550
2020/01/31 19:10:08.7	73.800	0.550	-0.900	0.520
2020/01/31 19:10:08.8	73.810	0.570	-0.930	0.480
2020/01/31 19:10:08.9	73.810	0.580	-0.950	0.440
2020/01/31 19:10:09.0	73.820	0.590	-0.970	0.400
2020/01/31 19:10:09.1	73.830	0.590	-0.980	0.360
2020/01/31 19:10:09.2	73.840	0.590	-0.980	0.330
2020/01/31 19:10:09.3	73.840	0.590	-0.980	0.290
2020/01/31 19:10:09.4	73.850	0.590	-0.970	0.250
2020/01/31 19:10:09.5	73.860	0.580	-0.950	0.210
2020/01/31 19:10:09.6	73.860	0.570	-0.930	0.170
2020/01/31 19:10:09.7	73.870	0.550	-0.900	0.130
2020/01/31 19:10:09.8	73.870	0.530	-0.860	0.090
2020/01/31 19:10:09.9	73.880	0.510	-0.820	0.050
2020/01/31 19:10:10.0	73.880	0.490	-0.780	0.020
2020/01/31 19:10:10.1	73.890	0.460	-0.720	-0.020
2020/01/31 19:10:10.2	73.890	0.430	-0.670	-0.060
2020/01/31 19:10:10.3	73.900	0.400	-0.600	-0.090
2020/01/31 19:10:10.4	73.900	0.360	-0.540	-0.130
2020/01/31 19:10:10.5	73.910	0.330	-0.470	-0.160
2020/01/31 19:10:10.6	73.910	0.290	-0.400	-0.200
2020/01/31 19:10:10.7	73.920	0.250	-0.330	-0.230
2020/01/31 19:10:10.8	73.920	0.210	-0.250	-0.260
2020/01/31 19:10:10.9	73.930	0.170	-0.180	-0.300
2020/01/31 19:10:11.0	73.940	0.130	-0.100	-0.320
2020/01/31 19:10:11.1	73.940	0.090	-0.030	-0.350
2020/01/31 19:10:11.2	73.950	0.050	0.040	-0.380
2020/01/31 19:10:11.3	73.960	0.010	0.110	-0.410
2020/01/31 19:10:11.4	73.970	-0.020	0.170	-0.430
2020/01/31 19:10:11.5	73.980	-0.060	0.230	-0.460
2020/01/31 19:10:11.6	74.000	-0.100	0.290	-0.480
2020/01/31 19:10:11.7	74.010	-0.130	0.340	-0.510
2020/01/31 19:10:11.8	74.030	-0.170	0.390	-0.530
2020/01/31 19:10:11.9	74.040	-0.200	0.430	-0.550
2020/01/31 19:10:12.0	74.060	-0.230	0.460	-0.570
2020/01/31 19:10:12.1	74.070	-0.260	0.490	-0.590
2020/01/31 19:10:12.2	74.090	-0.290	0.520	-0.610
2020/01/31 19:10:12.3	74.110	-0.320	0.540	-0.620
2020/01/31 19:10:12.4	74.130	-0.340	0.550	-0.630
2020/01/31 19:10:12.5	74.150	-0.370	0.550	-0.640
2020/01/31 19:10:12.6	74.170	-0.390	0.550	-0.650
2020/01/31 19:10:12.7	74.190	-0.410	0.550	-0.650
2020/01/31 19:10:12.8	74.210	-0.430	0.540	-0.650
2020/01/31 19:10:12.9	74.220	-0.450	0.530	-0.650
2020/01/31 19:10:13.0	74.240	-0.460	0.510	-0.650
2020/01/31 19:10:13.1	74.260	-0.470	0.490	-0.640
2020/01/31 19:10:13.2	74.280	-0.490	0.460	-0.630
2020/01/31 19:10:13.3	74.290	-0.500	0.430	-0.620
2020/01/31 19:10:13.4	74.300	-0.510	0.400	-0.600
2020/01/31 19:10:13.5	74.320	-0.510	0.370	-0.580
2020/01/31 19:10:13.6	74.330	-0.520	0.330	-0.560
2020/01/31 19:10:13.7	74.340	-0.520	0.300	-0.540
2020/01/31 19:10:13.8	74.350	-0.530	0.250	-0.510
2020/01/31 19:10:13.9	74.350	-0.530	0.220	-0.480
2020/01/31 19:10:14.0	74.360	-0.530	0.180	-0.450
2020/01/31 19:10:14.1	74.370	-0.530	0.140	-0.420
2020/01/31 19:10:14.2	74.370	-0.530	0.100	-0.380
2020/01/31 19:10:14.3	74.370	-0.530	0.060	-0.350
2020/01/31 19:10:14.4	74.370	-0.520	0.020	-0.310
2020/01/31 19:10:14.5	74.370	-0.520	-0.020	-0.280
2020/01/31 19:10:14.6	74.370	-0.510	-0.060	-0.240
2020/01/31 19:10:14.7	74.370	-0.500	-0.100	-0.200
2020/01/31 19:10:14.8	74.360	-0.490	-0.140	-0.160
2020/01/31 19:10:14.9	74.360	-0.480	-0.180	-0.120
2020/01/31 19:10:15.0	74.350	-0.470	-0.210	-0.080
2020/01/31 19:10:15.1	74.350	-0.460	-0.250	-0.040
2020/01/31 19:10:15.2	74.340	-0.440	-0.280	0.000
2020/01/31 19:10:15.3	74.330	-0.430	-0.320	0.040
2020/01/31 19:10:15.4	74.330	-0.410	-0.350	0.080
2020/01/31 19:10:15.5	74.320	-0.390	-0.380	0.120
2020/01/31 19:10:15.6	74.310	-0.370	-0.410	0.170
2020/01/31 19:10:15.7	74.300	-0.350	-0.430	0.210
2020/01/31 19:10:15.8	74.280	-0.330	-0.460	0.250
2020/01/31 19:10:15.9	74.270	-0.310	-0.480	0.290
2020/01/31 19:10:16.0	74.250	-0.280	-0.500	0.340
2020/01/31 19:10:16.1	74.240	-0.260	-0.520	0.380
2020/01/31 19:10:16.2	74.220	-0.230	-0.530	0.430
2020/01/31 19:10:16.3	74.200	-0.210	-0.540	0.470
2020/01/31 19:10:16.4	74.180	-0.180	-0.550	0.520
2020/01/31 19:10:16.5	74.160	-0.150	-0.560	0.560
2020/01/31 19:10:16.6	74.130	-0.120	-0.570	0.610
2020/01/31 19:10:16.7	74.110	-0.090	-0.570	0.650
2020/01/31 19:10:16.8	74.080	-0.060	-0.580	0.690
2020/01/31 19:10:16.9	74.060	-0.040	-0.580	0.740
2020/01/31 19:10:17.0	74.030	-0.010	-0.580	0.780
2020/01/31 19:10:17.1	74.010	0.020	-0.580	0.810
2020/01/31 19:10:17.2	73.990	0.050	-0.580	0.850
2020/01/31 19:10:17.3	73.960	0.080	-0.580	0.880
2020/01/31 19:10:17.4	73.940	0.110	-0.580	0.910
2020/01/31 19:10:17.5	73.920	0.140	-0.580	0.930
2020/01/31 19:10:17.6	73.910	0.170	-0.580	0.950
2020/01/31 19:10:17.7	73.890	0.200	-0.580	0.970
2020/01/31 19:10:17.8	73.880	0.230	-0.580	0.980
2020/01/31 19:10:17.9	73.870	0.260	-0.580	0.990
2020/01/31 19:10:18.0	73.860	0.280	-0.580	0.990
2020/01/31 19:10:18.1	73.860	0.310	-0.580	0.990
2020/01/31 19:10:18.2	73.860	0.330	-0.580	0.980
2020/01/31 19:10:18.3	73.860	0.360	-0.580	0.970
2020/01/31 19:10:18.4	73.860	0.380	-0.580	0.960
2020/01/31 19:10:18.5	73.870	0.400	-0.580	0.940
2020/01/31 19:10:18.6	73.880	0.420	-0.580	0.920
2020/01/31 19:10:18.7	73.890	0.440	-0.580	0.890
2020/01/31 19:10:18.8	73.900	0.450	-0.580	0.860
2020/01/31 19:10:18.9	73.920	0.470	-0.570	0.830
2020/01/31 19:10:19.0	73.940	0.480	-0.570	0.790
2020/01/31 19:10:19.1	73.960	0.490	-0.560	0.760
2020/01/31 19:10:19.2	73.980	0.500	-0.550	0.720
2020/01/31 19:10:19.3	74.010	0.500	-0.540	0.670
2020/01/31 19:10:19.4	74.030	0.510	-0.530	0.630
2020/01/31 19:10:19.5	74.060	0.510	-0.510	0.580
2020/01/31 19:10:19.6	74.090	0.500	-0.500	0.530
2020/01/31 19:10:19.7	74.120	0.500	-0.480	0.480
2020/01/31 19:10:19.8	74.140	0.490	-0.450	0.430
2020/01/31 19:10:19.9	74.170	0.480	-0.430	0.370
2020/01/31 19:10:20.0	74.200	0.470	-0.410	0.320
2020/01/31 19:10:20.1	74.230	0.450	-0.380	0.260
2020/01/31 19:10:20.2	74.260	0.440	-0.350	0.200
2020/01/31 19:10:20.3	74.290	0.420	-0.320	0.150
2020/01/31 19:10:20.4	74.320	0.400	-0.290	0.090
2020/01/31 19:10:20.5	74.340	0.380	-0.260	0.030
2020/01/31 19:10:20.6	74.370	0.350	-0.220	-0.030
2020/01/31 19:10:20.7	74.400	0.330	-0.190	-0.080
2020/01/31 19:10:20.8	74.420	0.300	-0.150	-0.140
2020/01/31 19:10:20.9	74.440	0.280	-0.110	-0.190
2020/01/31 19:10:21.0	74.460	0.250	-0.070	-0.240
2020/01/31 19:10:21.1	74.480	0.220	-0.040	-0.290
2020/01/31 19:10:21.2	74.490	0.190	0.010	-0.340
2020/01/31 19:10:21.3	74.510	0.170	0.050	-0.380
2020/01/31 19:10:21.4	74.520	0.140	0.090	-0.420
2020/01/31 19:10:21.5	74.530	0.110	0.130	-0.460
2020/01/31 19:10:21.6	74.530	0.080	0.170	-0.490
2020/01/31 19:10:21.7	74.540	0.050	0.210	-0.520
2020/01/31 19:10:21.8	74.540	0.030	0.250	-0.550
2020/01/31 19:10:21.9	74.540	-0.000	0.290	-0.570
2020/01/31 19:10:22.0	74.530	-0.030	0.320	-0.590
2020/01/31 19:10:22.1	74.530	-0.050	0.360	-0.610
2020/01/31 19:10:22.2	74.520	-0.070	0.390	-0.620
2020/01/31 19:10:22.3	74.510	-0.090	0.420	-0.640
2020/01/31 19:10:22.4	74.510	-0.110	0.440	-0.650
2020/01/31 19:10:22.5	74.500	-0.130	0.470	-0.650
2020/01/31 19:10:22.6	74.490	-0.150	0.490	-0.660
2020/01/31 19:10:22.7	74.470	-0.170	0.500	-0.660
2020/01/31 19:10:22.8	74.460	-0.180	0.510	-0.660
2020/01/31 19:10:22.9	74.450	-0.190	0.520	-0.660
2020/01/31 19:10:23.0	74.440	-0.200	0.530	-0.650
2020/01/31 19:10:23.1	74.420	-0.210	0.530	-0.640
2020/01/31 19:10:23.2	74.410	-0.220	0.530	-0.630
2020/01/31 19:10:23.3	74.400	-0.230	0.520	-0.620
2020/01/31 19:10:23.4	74.390	-0.230	0.510	-0.610
2020/01/31 19:10:23.5	74.380	-0.240	0.500	-0.590
2020/01/31 19:10:23.6	74.360	-0.240	0.480	-0.570
2020/01/31 19:10:23.7	74.350	-0.250	0.460	-0.540
2020/01/31 19:10:23.8	74.340	-0.250	0.440	-0.520
2020/01/31 19:10:23.9	74.330	-0.250	0.410	-0.490
2020/01/31 19:10:24.0	74.320	-0.250	0.380	-0.470
2020/01/31 19:10:24.1	74.310	-0.250	0.350	-0.440
2020/01/31 19:10:24.2	74.300	-0.250	0.320	-0.410
2020/01/31 19:10:24.3	74.300	-0.250	0.280	-0.380
2020/01/31 19:10:24.4	74.290	-0.240	0.240	-0.350
2020/01/31 19:10:24.5	74.280	-0.240	0.200	-0.320
2020/01/31 19:10:24.6	74.270	-0.240	0.160	-0.290
2020/01/31 19:10:24.7	74.270	-0.230	0.110	-0.260
2020/01/31 19:10:24.8	74.260	-0.230	0.060	-0.230
2020/01/31 19:10:24.9	74.250	-0.230	0.020	-0.200
2020/01/31 19:10:25.0	74.250	-0.220	-0.030	-0.170
2020/01/31 19:10:25.1	74.250	-0.210	-0.080	-0.140
2020/01/31 19:10:25.2	74.240	-0.210	-0.130	-0.110
2020/01/31 19:10:25.3	74.240	-0.200	-0.180	-0.080
2020/01/31 19:10:25.4	74.240	-0.190	-0.230	-0.060
2020/01/31 19:10:25.5	74.240	-0.190	-0.290	-0.030
2020/01/31 19:10:25.6	74.240	-0.180	-0.340	-0.010
2020/01/31 19:10:25.7	74.240	-0.170	-0.390	0.010
2020/01/31 19:10:25.8	74.240	-0.160	-0.440	0.040
2020/01/31 19:10:25.9	74.250	-0.140	-0.490	0.060
2020/01/31 19:10:26.0	74.250	-0.130	-0.540	0.070
2020/01/31 19:10:26.1	74.260	-0.120	-0.590	0.090
2020/01/31 19:10:26.2	74.270	-0.100	-0.630	0.100
2020/01/31 19:10:26.3	74.280	-0.090	-0.680	0.110
2020/01/31 19:10:26.4	74.290	-0.070	-0.720	0.120
2020/01/31 19:10:26.5	74.300	-0.050	-0.760	0.130
2020/01/31 19:10:26.6	74.310	-0.040	-0.800	0.140
2020/01/31 19:10:26.7	74.330	-0.020	-0.830	0.150
2020/01/31 19:10:26.8	74.340	0.000	-0.860	0.150
2020/01/31 19:10:26.9	74.360	0.020	-0.880	0.160
2020/01/31 19:10:27.0	74.370	0.040	-0.910	0.160
2020/01/31 19:10:27.1	74.390	0.060	-0.920	0.170
2020/01/31 19:10:27.2	74.410	0.080	-0.930	0.170
2020/01/31 19:10:27.3	74.430	0.100	-0.940	0.180
2020/01/31 19:10:27.4	74.450	0.120	-0.940	0.190
2020/01/31 19:10:27.5	74.470	0.140	-0.940	0.190
2020/01/31 19:10:27.6	74.480	0.160	-0.930	0.200
2020/01/31 19:10:27.7	74.500	0.180	-0.910	0.210
2020/01/31 19:10:27.8	74.520	0.200	-0.890	0.220
2020/01/31 19:10:27.9	74.530	0.210	-0.860	0.230
2020/01/31 19:10:28.0	74.550	0.230	-0.830	0.240
2020/01/31 19:10:28.1	74.560	0.240	-0.800	0.250
2020/01/31 19:10:28.2	74.570	0.250	-0.760	0.260
2020/01/31 19:10:28.3	74.590	0.260	-0.720	0.280
2020/01/31 19:10:28.4	74.600	0.270	-0.670	0.290
2020/01/31 19:10:28.5	74.610	0.270	-0.620	0.300
2020/01/31 19:10:28.6	74.620	0.270	-0.570	0.320
2020/01/31 19:10:28.7	74.620	0.270	-0.520	0.330
2020/01/31 19:10:28.8	74.630	0.270	-0.470	0.340
2020/01/31 19:10:28.9	74.630	0.270	-0.420	0.350
2020/01/31 19:10:29.0	74.640	0.260	-0.360	0.360
2020/01/31 19:10:29.1	74.640	0.250	-0.310	0.380
2020/01/31 19:10:29.2	74.640	0.240	-0.260	0.390
2020/01/31 19:10:29.3	74.640	0.230	-0.210	0.400
2020/01/31 19:10:29.4	74.650	0.210	-0.160	0.410
2020/01/31 19:10:29.5	74.640	0.190	-0.110	0.430
2020/01/31 19:10:29.6	74.640	0.180	-0.070	0.440
2020/01/31 19:10:29.7	74.640	0.160	-0.030	0.450
2020/01/31 19:10:29.8	74.640	0.130	0.010	0.470
2020/01/31 19:10:29.9	74.640	0.110	0.040	0.480
2020/01/31 19:10:30.0	74.640	0.090	0.080	0.490
2020/01/31 19:10:30.1	74.640	0.060	0.100	0.500
2020/01/31 19:10:30.2	74.630	0.040	0.130	0.510
2020/01/31 19:10:30.3	74.630	0.010	0.150	0.520
2020/01/31 19:10:30.4	74.630	-0.020	0.170	0.530
2020/01/31 19:10:30.5	74.630	-0.040	0.180	0.540
2020/01/31 19:10:30.6	74.630	-0.070	0.190	0.550
2020/01/31 19:10:30.7	74.630	-0.090	0.200	0.550
2020/01/31 19:10:30.8	74.630	-0.110	0.210	0.560
2020/01/31 19:10:30.9	74.630	-0.140	0.210	0.560
2020/01/31 19:10:31.0	74.630	-0.160	0.210	0.570
2020/01/31 19:10:31.1	74.630	-0.180	0.210	0.570
2020/01/31 19:10:31.2	74.630	-0.200	0.210	0.570
2020/01/31 19:10:31.3	74.630	-0.210	0.200	0.570
2020/01/31 19:10:31.4	74.630	-0.230	0.200	0.560
2020/01/31 19:10:31.5	74.630	-0.240	0.190	0.560
2020/01/31 19:10:31.6	74.630	-0.250	0.180	0.550
2020/01/31 19:10:31.7	74.640	-0.260	0.170	0.540
2020/01/31 19:10:31.8	74.640	-0.270	0.160	0.530
2020/01/31 19:10:31.9	74.640	-0.280	0.150	0.520
2020/01/31 19:10:32.0	74.640	-0.280	0.130	0.500
2020/01/31 19:10:32.1	74.650	-0.280	0.120	0.480
2020/01/31 19:10:32.2	74.650	-0.280	0.110	0.470
2020/01/31 19:10:32.3	74.660	-0.280	0.090	0.450
2020/01/31 19:10:32.4	74.660	-0.270	0.080	0.430
2020/01/31 19:10:32.5	74.660	-0.270	0.060	0.410
2020/01/31 19:10:32.6	74.670	-0.260	0.050	0.390
2020/01/31 19:10:32.7	74.670	-0.250	0.030	0.360
2020/01/31 19:10:32.8	74.680	-0.240	0.020	0.340
2020/01/31 19:10:32.9	74.680	-0.230	0.000	0.310
2020/01/31 19:10:33.0	74.690	-0.220	-0.010	0.290
2020/01/31 19:10:33.1	74.700	-0.210	-0.030	0.260
2020/01/31 19:10:33.2	74.700	-0.200	-0.050	0.240
2020/01/31 19:10:33.3	74.710	-0.180	-0.070	0.210
2020/01/31 19:10:33.4	74.720	-0.170	-0.090	0.190
2020/01/31 19:10:33.5	74.730	-0.160	-0.110	0.160
2020/01/31 19:10:33.6	74.750	-0.140	-0.130	0.130
2020/01/31 19:10:33.7	74.760	-0.130	-0.150	0.110
2020/01/31 19:10:33.8	74.770	-0.120	-0.170	0.080
2020/01/31 19:10:33.9	74.790	-0.100	-0.190	0.050
2020/01/31 19:10:34.0	74.800	-0.090	-0.200	0.030
2020/01/31 19:10:34.1	74.820	-0.080	-0.220	0.000
2020/01/31 19:10:34.2	74.840	-0.070	-0.240	-0.020
2020/01/31 19:10:34.3	74.850	-0.060	-0.250	-0.050
2020/01/31 19:10:34.4	74.870	-0.050	-0.270	-0.070
2020/01/31 19:10:34.5	74.890	-0.050	-0.280	-0.100
2020/01/31 19:10:34.6	74.910	-0.040	-0.290	-0.120
2020/01/31 19:10:34.7	74.920	-0.040	-0.300	-0.140
2020/01/31 19:10:34.8	74.940	-0.040	-0.300	-0.160
2020/01/31 19:10:34.9	74.950	-0.030	-0.300	-0.180
2020/01/31 19:10:35.0	74.960	-0.030	-0.300	-0.190
2020/01/31 19:10:35.1	74.970	-0.030	-0.290	-0.210
2020/01/31 19:10:35.2	74.980	-0.040	-0.290	-0.220
2020/01/31 19:10:35.3	74.980	-0.040	-0.280	-0.230
2020/01/31 19:10:35.4	74.980	-0.050	-0.260	-0.230
2020/01/31 19:10:35.5	74.980	-0.050	-0.240	-0.240
2020/01/31 19:10:35.6	74.970	-0.060	-0.220	-0.240
2020/01/31 19:10:35.7	74.960	-0.070	-0.200	-0.250
2020/01/31 19:10:35.8	74.950	-0.070	-0.180	-0.250
2020/01/31 19:10:35.9	74.940	-0.080	-0.150	-0.250
2020/01/31 19:10:36.0	74.920	-0.090	-0.120	-0.250
2020/01/31 19:10:36.1	74.900	-0.100	-0.090	-0.240
2020/01/31 19:10:36.2	74.880	-0.110	-0.060	-0.240
2020/01/31 19:10:36.3	74.860	-0.120	-0.030	-0.240
2020/01/31 19:10:36.4	74.830	-0.130	-0.010	-0.240
2020/01/31 19:10:36.5	74.810	-0.130	0.020	-0.240
2020/01/31 19:10:36.6	74.780	-0.140	0.050	-0.240
2020/01/31 19:10:36.7	74.750	-0.150	0.070	-0.240
2020/01/31 19:10:36.8	74.730	-0.150	0.090	-0.240
2020/01/31 19:10:36.9	74.700	-0.150	0.100	-0.250
2020/01/31 19:10:37.0	74.680	-0.150	0.110	-0.250
2020/01/31 19:10:37.1	74.650	-0.150	0.120	-0.260
2020/01/31 19:10:37.2	74.630	-0.150	0.120	-0.270
2020/01/31 19:10:37.3	74.610	-0.140	0.120	-0.280
2020/01/31 19:10:37.4	74.590	-0.140	0.110	-0.300
2020/01/31 19:10:37.5	74.570	-0.130	0.090	-0.320
2020/01/31 19:10:37.6	74.560	-0.110	0.070	-0.340
2020/01/31 19:10:37.7	74.540	-0.100	0.040	-0.360
2020/01/31 19:10:37.8	74.530	-0.080	0.010	-0.380
2020/01/31 19:10:37.9	74.520	-0.060	-0.030	-0.410
2020/01/31 19:10:38.0	74.520	-0.040	-0.070	-0.430
2020/01/31 19:10:38.1	74.510	-0.020	-0.120	-0.460
2020/01/31 19:10:38.2	74.510	0.000	-0.170	-0.490
2020/01/31 19:10:38.3	74.510	0.030	-0.220	-0.520
2020/01/31 19:10:38.4	74.510	0.060	-0.280	-0.550
2020/01/31 19:10:38.5	74.520	0.090	-0.340	-0.570
2020/01/31 19:10:38.6	74.520	0.120	-0.400	-0.600
2020/01/31 19:10:38.7	74.530	0.150	-0.460	-0.630
2020/01/31 19:10:38.8	74.540	0.190	-0.520	-0.660
2020/01/31 19:10:38.9	74.550	0.220	-0.580	-0.680
2020/01/31 19:10:39.0	74.570	0.250	-0.640	-0.700
2020/01/31 19:10:39.1	74.580	0.290	-0.700	-0.720
2020/01/31 19:10:39.2	74.600	0.320	-0.760	-0.740
2020/01/31 19:10:39.3	74.620	0.360	-0.810	-0.760
2020/01/31 19:10:39.4	74.640	0.390	-0.860	-0.780
2020/01/31 19:10:39.5	74.670	0.420	-0.900	-0.790
2020/01/31 19:10:39.6	74.690	0.450	-0.940	-0.800
2020/01/31 19:10:39.7	74.720	0.480	-0.980	-0.810
2020/01/31 19:10:39.8	74.740	0.510	-1.000	-0.820
2020/01/31 19:10:39.9	74.770	0.540	-1.030	-0.820
2020/01/31 19:10:40.0	74.800	0.560	-1.040	-0.830
2020/01/31 19:10:40.1	74.830	0.580	-1.050	-0.830
2020/01/31 19:10:40.2	74.870	0.600	-1.060	-0.830
2020/01/31 19:10:40.3	74.900	0.620	-1.050	-0.820
2020/01/31 19:10:40.4	74.940	0.630	-1.040	-0.820
2020/01/31 19:10:40.5	74.970	0.640	-1.020	-0.810
2020/01/31 19:10:40.6	75.010	0.650	-0.990	-0.800
2020/01/31 19:10:40.7	75.040	0.650	-0.960	-0.780
2020/01/31 19:10:40.8	75.070	0.650	-0.920	-0.760
2020/01/31 19:10:40.9	75.110	0.640	-0.870	-0.740
2020/01/31 19:10:41.0	75.140	0.630	-0.810	-0.710
2020/01/31 19:10:41.1	75.170	0.620	-0.740	-0.680
2020/01/31 19:10:41.2	75.190	0.600	-0.670	-0.650
2020/01/31 19:10:41.3	75.220	0.580	-0.590	-0.610
2020/01/31 19:10:41.4	75.240	0.550	-0.510	-0.570
2020/01/31 19:10:41.5	75.260	0.520	-0.420	-0.520
2020/01/31 19:10:41.6	75.270	0.480	-0.320	-0.470
2020/01/31 19:10:41.7	75.280	0.440	-0.220	-0.410
2020/01/31 19:10:41.8	75.290	0.400	-0.120	-0.360
2020/01/31 19:10:41.9	75.290	0.350	-0.010	-0.300
2020/01/31 19:10:42.0	75.290	0.290	0.090	-0.230
2020/01/31 19:10:42.1	75.290	0.240	0.200	-0.170
2020/01/31 19:10:42.2	75.290	0.180	0.310	-0.100
2020/01/31 19:10:42.3	75.280	0.110	0.420	-0.030
2020/01/31 19:10:42.4	75.270	0.050	0.520	0.040
2020/01/31 19:10:42.5	75.250	-0.020	0.620	0.110
2020/01/31 19:10:42.6	75.240	-0.090	0.720	0.190
2020/01/31 19:10:42.7	75.220	-0.150	0.810	0.260
2020/01/31 19:10:42.8	75.200	-0.220	0.900	0.330
2020/01/31 19:10:42.9	75.180	-0.290	0.970	0.410
2020/01/31 19:10:43.0	75.160	-0.360	1.040	0.480
2020/01/31 19:10:43.1	75.140	-0.430	1.110	0.550
2020/01/31 19:10:43.2	75.110	-0.490	1.160	0.620
2020/01/31 19:10:43.3	75.090	-0.550	1.200	0.690
2020/01/31 19:10:43.4	75.070	-0.610	1.230	0.760
2020/01/31 19:10:43.5	75.040	-0.670	1.250	0.820
2020/01/31 19:10:43.6	75.020	-0.720	1.260	0.880
2020/01/31 19:10:43.7	74.990	-0.770	1.260	0.940
2020/01/31 19:10:43.8	74.980	-0.810	1.240	1.000
2020/01/31 19:10:43.9	74.950	-0.840	1.220	1.060
2020/01/31 19:10:44.0	74.930	-0.870	1.180	1.100
2020/01/31 19:10:44.1	74.920	-0.900	1.130	1.150
2020/01/31 19:10:44.2	74.900	-0.920	1.070	1.190
2020/01/31 19:10:44.3	74.880	-0.930	1.000	1.230
2020/01/31 19:10:44.4	74.870	-0.930	0.910	1.260
2020/01/31 19:10:44.5	74.860	-0.930	0.820	1.290
2020/01/31 19:10:44.6	74.850	-0.920	0.720	1.320
2020/01/31 19:10:44.7	74.840	-0.910	0.610	1.350
2020/01/31 19:10:44.8	74.840	-0.890	0.490	1.360
2020/01/31 19:10:44.9	74.830	-0.860	0.370	1.380
2020/01/31 19:10:45.0	74.830	-0.830	0.250	1.390
2020/01/31 19:10:45.1	74.830	-0.790	0.120	1.400
2020/01/31 19:10:45.2	74.830	-0.740	-0.020	1.410
2020/01/31 19:10:45.3	74.830	-0.700	-0.150	1.410
2020/01/31 19:10:45.4	74.840	-0.640	-0.290	1.410
2020/01/31 19:10:45.5	74.840	-0.590	-0.420	1.410
2020/01/31 19:10:45.6	74.850	-0.530	-0.550	1.400
2020/01/31 19:10:45.7	74.850	-0.470	-0.680	1.390
2020/01/31 19:10:45.8	74.860	-0.410	-0.810	1.380
2020/01/31 19:10:45.9	74.870	-0.340	-0.930	1.370
2020/01/31 19:10:46.0	74.880	-0.280	-1.050	1.350
2020/01/31 19:10:46.1	74.890	-0.210	-1.160	1.320
2020/01/31 19:10:46.2	74.900	-0.150	-1.260	1.290
2020/01/31 19:10:46.3	74.910	-0.080	-1.350	1.260
2020/01/31 19:10:46.4	74.920	-0.020	-1.440	1.220
2020/01/31 19:10:46.5	74.930	0.040	-1.510	1.180
2020/01/31 19:10:46.6	74.940	0.090	-1.580	1.130
2020/01/31 19:10:46.7	74.950	0.150	-1.630	1.090
2020/01/31 19:10:46.8	74.960	0.200	-1.680	1.030
2020/01/31 19:10:46.9	74.970	0.250	-1.710	0.970
2020/01/31 19:10:47.0	74.990	0.290	-1.730	0.910
2020/01/31 19:10:47.1	75.000	0.340	-1.730	0.840
2020/01/31 19:10:47.2	75.010	0.370	-1.730	0.780
2020/01/31 19:10:47.3	75.020	0.410	-1.710	0.710
2020/01/31 19:10:47.4	75.040	0.430	-1.690	0.640
2020/01/31 19:10:47.5	75.050	0.460	-1.650	0.570
2020/01/31 19:10:47.6	75.060	0.480	-1.600	0.490
2020/01/31 19:10:47.7	75.080	0.500	-1.540	0.420
2020/01/31 19:10:47.8	75.080	0.510	-1.460	0.340
2020/01/31 19:10:47.9	75.100	0.520	-1.380	0.270
2020/01/31 19:10:48.0	75.110	0.520	-1.300	0.200
2020/01/31 19:10:48.1	75.120	0.520	-1.200	0.130
2020/01/31 19:10:48.2	75.130	0.520	-1.100	0.060
2020/01/31 19:10:48.3	75.140	0.520	-0.990	-0.000
2020/01/31 19:10:48.4	75.150	0.510	-0.870	-0.060
2020/01/31 19:10:48.5	75.150	0.500	-0.760	-0.120
2020/01/31 19:10:48.6	75.160	0.490	-0.630	-0.170
2020/01/31 19:10:48.7	75.160	0.470	-0.510	-0.220
2020/01/31 19:10:48.8	75.170	0.450	-0.380	-0.260
2020/01/31 19:10:48.9	75.170	0.430	-0.250	-0.300
2020/01/31 19:10:49.0	75.170	0.410	-0.120	-0.330
2020/01/31 19:10:49.1	75.160	0.390	0.000	-0.360
2020/01/31 19:10:49.2	75.160	0.370	0.120	-0.390
2020/01/31 19:10:49.3	75.150	0.340	0.240	-0.410
2020/01/31 19:10:49.4	75.140	0.310	0.360	-0.430
2020/01/31 19:10:49.5	75.130	0.290	0.460	-0.440
2020/01/31 19:10:49.6	75.110	0.260	0.570	-0.450
2020/01/31 19:10:49.7	75.100	0.230	0.660	-0.450
2020/01/31 19:10:49.8	75.090	0.200	0.750	-0.460
2020/01/31 19:10:49.9	75.070	0.180	0.830	-0.460
2020/01/31 19:10:50.0	75.050	0.150	0.900	-0.450
2020/01/31 19:10:50.1	75.030	0.120	0.950	-0.450
2020/01/31 19:10:50.2	75.010	0.090	1.000	-0.440
2020/01/31 19:10:50.3	74.990	0.070	1.040	-0.440
2020/01/31 19:10:50.4	74.980	0.040	1.070	-0.430
2020/01/31 19:10:50.5	74.960	0.010	1.090	-0.420
2020/01/31 19:10:50.6	74.940	-0.010	1.100	-0.410
2020/01/31 19:10:50.7	74.920	-0.040	1.100	-0.400
2020/01/31 19:10:50.8	74.900	-0.060	1.090	-0.390
2020/01/31 19:10:50.9	74.880	-0.080	1.070	-0.380
2020/01/31 19:10:51.0	74.870	-0.110	1.040	-0.370
2020/01/31 19:10:51.1	74.850	-0.130	1.000	-0.360
2020/01/31 19:10:51.2	74.840	-0.150	0.960	-0.360
2020/01/31 19:10:51.3	74.830	-0.160	0.900	-0.350
2020/01/31 19:10:51.4	74.820	-0.180	0.850	-0.350
2020/01/31 19:10:51.5	74.810	-0.200	0.780	-0.350
2020/01/31 19:10:51.6	74.800	-0.210	0.710	-0.340
2020/01/31 19:10:51.7	74.800	-0.220	0.640	-0.340
2020/01/31 19:10:51.8	74.800	-0.240	0.560	-0.350
2020/01/31 19:10:51.9	74.800	-0.250	0.480	-0.350
2020/01/31 19:10:52.0	74.800	-0.260	0.390	-0.360
2020/01/31 19:10:52.1	74.800	-0.260	0.310	-0.370
2020/01/31 19:10:52.2	74.810	-0.270	0.220	-0.370
2020/01/31 19:10:52.3	74.820	-0.270	0.130	-0.380
2020/01/31 19:10:52.4	74.830	-0.270	0.050	-0.390
2020/01/31 19:10:52.5	74.850	-0.280	-0.040	-0.410
2020/01/31 19:10:52.6	74.860	-0.280	-0.130	-0.420
2020/01/31 19:10:52.7	74.880	-0.270	-0.210	-0.440
2020/01/31 19:10:52.8	74.890	-0.270	-0.300	-0.450
2020/01/31 19:10:52.9	74.910	-0.260	-0.370	-0.470
2020/01/31 19:10:53.0	74.930	-0.260	-0.450	-0.480
2020/01/31 19:10:53.1	74.950	-0.250	-0.520	-0.500
2020/01/31 19:10:53.2	74.970	-0.240	-0.590	-0.510
2020/01/31 19:10:53.3	74.990	-0.230	-0.650	-0.520
2020/01/31 19:10:53.4	75.010	-0.210	-0.710	-0.530
2020/01/31 19:10:53.5	75.030	-0.200	-0.760	-0.540
2020/01/31 19:10:53.6	75.050	-0.180	-0.810	-0.550
2020/01/31 19:10:53.7	75.070	-0.170	-0.850	-0.560
2020/01/31 19:10:53.8	75.090	-0.150	-0.880	-0.560
2020/01/31 19:10:53.9	75.100	-0.130	-0.910	-0.560
2020/01/31 19:10:54.0	75.120	-0.110	-0.940	-0.560
2020/01/31 19:10:54.1	75.130	-0.090	-0.950	-0.560
2020/01/31 19:10:54.2	75.140	-0.070	-0.960	-0.550
2020/01/31 19:10:54.3	75.150	-0.050	-0.970	-0.540
2020/01/31 19:10:54.4	75.160	-0.030	-0.970	-0.520
2020/01/31 19:10:54.5	75.170	-0.010	-0.960	-0.510
2020/01/31 19:10:54.6	75.170	0.010	-0.950	-0.490
2020/01/31 19:10:54.7	75.170	0.030	-0.930	-0.460
2020/01/31 19:10:54.8	75.170	0.040	-0.910	-0.430
2020/01/31 19:10:54.9	75.170	0.060	-0.880	-0.400
2020/01/31 19:10:55.0	75.160	0.080	-0.850	-0.370
2020/01/31 19:10:55.1	75.160	0.090	-0.810	-0.330
2020/01/31 19:10:55.2	75.150	0.110	-0.770	-0.290
2020/01/31 19:10:55.3	75.140	0.120	-0.730	-0.250
2020/01/31 19:10:55.4	75.130	0.140	-0.690	-0.200
2020/01/31 19:10:55.5	75.110	0.150	-0.640	-0.150
2020/01/31 19:10:55.6	75.100	0.160	-0.600	-0.090
2020/01/31 19:10:55.7	75.080	0.170	-0.550	-0.040
2020/01/31 19:10:55.8	75.060	0.180	-0.500	0.020
2020/01/31 19:10:55.9	75.040	0.190	-0.460	0.080
2020/01/31 19:10:56.0	75.030	0.190	-0.420	0.140
2020/01/31 19:10:56.1	75.010	0.200	-0.370	0.210
2020/01/31 19:10:56.2	74.990	0.210	-0.330	0.270
2020/01/31 19:10:56.3	74.980	0.210	-0.300	0.330
2020/01/31 19:10:56.4	74.960	0.220	-0.260	0.400
2020/01/31 19:10:56.5	74.940	0.220	-0.230	0.460
2020/01/31 19:10:56.6	74.930	0.230	-0.210	0.520
2020/01/31 19:10:56.7	74.920	0.230	-0.180	0.580
2020/01/31 19:10:56.8	74.910	0.230	-0.160	0.630
2020/01/31 19:10:56.9	74.900	0.240	-0.140	0.690
2020/01/31 19:10:57.0	74.890	0.240	-0.130	0.740
2020/01/31 19:10:57.1	74.880	0.240	-0.120	0.790
2020/01/31 19:10:57.2	74.870	0.240	-0.110	0.840
2020/01/31 19:10:57.3	74.860	0.240	-0.100	0.890
2020/01/31 19:10:57.4	74.850	0.240	-0.100	0.940
2020/01/31 19:10:57.5	74.850	0.240	-0.100	0.980
2020/01/31 19:10:57.6	74.840	0.230	-0.090	1.020
2020/01/31 19:10:57.7	74.830	0.230	-0.090	1.060
2020/01/31 19:10:57.8	74.820	0.220	-0.100	1.090
2020/01/31 19:10:57.9	74.820	0.220	-0.100	1.120
2020/01/31 19:10:58.0	74.810	0.210	-0.100	1.140
2020/01/31 19:10:58.1	74.800	0.200	-0.090	1.170
2020/01/31 19:10:58.2	74.800	0.190	-0.090	1.190
2020/01/31 19:10:58.3	74.790	0.180	-0.090	1.200
2020/01/31 19:10:58.4	74.780	0.170	-0.090	1.220
2020/01/31 19:10:58.5	74.770	0.150	-0.090	1.230
2020/01/31 19:10:58.6	74.770	0.140	-0.080	1.230
2020/01/31 19:10:58.7	74.760	0.120	-0.070	1.240
2020/01/31 19:10:58.8	74.760	0.100	-0.060	1.240
2020/01/31 19:10:58.9	74.750	0.080	-0.050	1.230
2020/01/31 19:10:59.0	74.750	0.060	-0.040	1.230
2020/01/31 19:10:59.1	74.740	0.040	-0.030	1.220
2020/01/31 19:10:59.2	74.740	0.020	-0.020	1.210
2020/01/31 19:10:59.3	74.740	-0.000	0.000	1.200
2020/01/31 19:10:59.4	74.740	-0.020	0.020	1.190
2020/01/31 19:10:59.5	74.740	-0.050	0.030	1.170
2020/01/31 19:10:59.6	74.740	-0.070	0.050	1.150
2020/01/31 19:10:59.7	74.740	-0.090	0.070	1.130
2020/01/31 19:10:59.8	74.750	-0.110	0.080	1.110
2020/01/31 19:10:59.9	74.750	-0.130	0.100	1.080
2020/01/31 19:11:00.0	74.760	-0.150	0.110	1.060
2020/01/31 19:11:00.1	74.760	-0.170	0.130	1.030
2020/01/31 19:11:00.2	74.770	-0.190	0.140	1.000
2020/01/31 19:11:00.3	74.780	-0.210	0.150	0.970
2020/01/31 19:11:00.4	74.780	-0.220	0.170	0.940
2020/01/31 19:11:00.5	74.790	-0.240	0.170	0.910
2020/01/31 19:11:00.6	74.800	-0.250	0.180	0.880
2020/01/31 19:11:00.7	74.800	-0.260	0.180	0.840
2020/01/31 19:11:00.8	74.810	-0.270	0.190	0.800
2020/01/31 19:11:00.9	74.820	-0.280	0.190	0.770
2020/01/31 19:11:01.0	74.820	-0.290	0.180	0.730
2020/01/31 19:11:01.1	74.830	-0.290	0.180	0.690
2020/01/31 19:11:01.2	74.830	-0.290	0.170	0.650
2020/01/31 19:11:01.3	74.840	-0.290	0.160	0.610
2020/01/31 19:11:01.4	74.840	-0.290	0.150	0.570
2020/01/31 19:11:01.5	74.840	-0.290	0.140	0.530
2020/01/31 19:11:01.6	74.840	-0.290	0.120	0.490
2020/01/31 19:11:01.7	74.840	-0.280	0.100	0.450
2020/01/31 19:11:01.8	74.830	-0.270	0.080	0.420
2020/01/31 19:11:01.9	74.830	-0.270	0.060	0.380
2020/01/31 19:11:02.0	74.830	-0.260	0.040	0.340
2020/01/31 19:11:02.1	74.820	-0.250	0.020	0.300
2020/01/31 19:11:02.2	74.810	-0.230	-0.000	0.260
2020/01/31 19:11:02.3	74.810	-0.220	-0.030	0.220
2020/01/31 19:11:02.4	74.800	-0.210	-0.050	0.180
2020/01/31 19:11:02.5	74.790	-0.190	-0.080	0.140
2020/01/31 19:11:02.6	74.790	-0.180	-0.100	0.100
2020/01/31 19:11:02.7	74.780	-0.160	-0.130	0.060
2020/01/31 19:11:02.8	74.770	-0.150	-0.150	0.020
2020/01/31 19:11:02.9	74.760	-0.130	-0.180	-0.030
2020/01/31 19:11:03.0	74.760	-0.120	-0.200	-0.070
2020/01/31 19:11:03.1	74.750	-0.100	-0.230	-0.110
2020/01/31 19:11:03.2	74.740	-0.080	-0.250	-0.150
2020/01/31 19:11:03.3	74.740	-0.070	-0.280	-0.190
2020/01/31 19:11:03.4	74.730	-0.050	-0.300	-0.230
2020/01/31 19:11:03.5	74.730	-0.040	-0.320	-0.270
2020/01/31 19:11:03.6	74.720	-0.020	-0.350	-0.320
2020/01/31 19:11:03.7	74.720	-0.000	-0.370	-0.360
2020/01/31 19:11:03.8	74.720	0.010	-0.390	-0.400
2020/01/31 19:11:03.9	74.710	0.020	-0.410	-0.440
2020/01/31 19:11:04.0	74.710	0.040	-0.420	-0.480
2020/01/31 19:11:04.1	74.700	0.050	-0.440	-0.520
2020/01/31 19:11:04.2	74.700	0.060	-0.450	-0.560
2020/01/31 19:11:04.3	74.690	0.070	-0.460	-0.590
2020/01/31 19:11:04.4	74.690	0.080	-0.470	-0.630
2020/01/31 19:11:04.5	74.680	0.090	-0.480	-0.660
2020/01/31 19:11:04.6	74.670	0.100	-0.480	-0.690
2020/01/31 19:11:04.7	74.660	0.110	-0.480	-0.720
2020/01/31 19:11:04.8	74.650	0.120	-0.480	-0.740
2020/01/31 19:11:04.9	74.640	0.120	-0.480	-0.760
2020/01/31 19:11:05.0	74.630	0.130	-0.470	-0.780
2020/01/31 19:11:05.1	74.610	0.130	-0.470	-0.800
2020/01/31 19:11:05.2	74.600	0.140	-0.450	-0.810
2020/01/31 19:11:05.3	74.580	0.140	-0.440	-0.820
2020/01/31 19:11:05.4	74.560	0.150	-0.430	-0.820
2020/01/31 19:11:05.5	74.540	0.150	-0.410	-0.820
2020/01/31 19:11:05.6	74.520	0.150	-0.390	-0.820
2020/01/31 19:11:05.7	74.500	0.150	-0.370	-0.810
2020/01/31 19:11:05.8	74.480	0.160	-0.350	-0.800
2020/01/31 19:11:05.9	74.460	0.160	-0.330	-0.780
2020/01/31 19:11:06.0	74.430	0.160	-0.320	-0.770
2020/01/31 19:11:06.1	74.410	0.160	-0.300	-0.750
2020/01/31 19:11:06.2	74.380	0.160	-0.280	-0.730
2020/01/31 19:11:06.3	74.360	0.160	-0.260	-0.700
2020/01/31 19:11:06.4	74.330	0.160	-0.250	-0.680
2020/01/31 19:11:06.5	74.310	0.160	-0.240	-0.650
2020/01/31 19:11:06.6	74.280	0.160	-0.220	-0.630
2020/01/31 19:11:06.7	74.260	0.160	-0.220	-0.600
2020/01/31 19:11:06.8	74.240	0.160	-0.210	-0.570
2020/01/31 19:11:06.9	74.230	0.160	-0.210	-0.550
2020/01/31 19:11:07.0	74.210	0.160	-0.200	-0.520
2020/01/31 19:11:07.1	74.200	0.160	-0.200	-0.490
2020/01/31 19:11:07.2	74.190	0.150	-0.210	-0.470
2020/01/31 19:11:07.3	74.180	0.150	-0.210	-0.440
2020/01/31 19:11:07.4	74.170	0.150	-0.220	-0.420
2020/01/31 19:11:07.5	74.170	0.140	-0.230	-0.400
2020/01/31 19:11:07.6	74.170	0.140	-0.240	-0.380
2020/01/31 19:11:07.7	74.180	0.140	-0.250	-0.360
2020/01/31 19:11:07.8	74.180	0.130	-0.260	-0.350
2020/01/31 19:11:07.9	74.190	0.120	-0.270	-0.330
2020/01/31 19:11:08.0	74.200	0.120	-0.280	-0.310
2020/01/31 19:11:08.1	74.210	0.110	-0.290	-0.300
2020/01/31 19:11:08.2	74.230	0.100	-0.300	-0.280
2020/01/31 19:11:08.3	74.240	0.090	-0.310	-0.260
2020/01/31 19:11:08.4	74.260	0.080	-0.320	-0.240
2020/01/31 19:11:08.5	74.270	0.070	-0.330	-0.220
2020/01/31 19:11:08.6	74.290	0.060	-0.340	-0.200
2020/01/31 19:11:08.7	74.310	0.050	-0.340	-0.180
2020/01/31 19:11:08.8	74.320	0.040	-0.340	-0.160
2020/01/31 19:11:08.9	74.340	0.020	-0.340	-0.130
2020/01/31 19:11:09.0	74.360	0.010	-0.340	-0.100
2020/01/31 19:11:09.1	74.370	-0.000	-0.330	-0.070
2020/01/31 19:11:09.2	74.390	-0.020	-0.320	-0.040
2020/01/31 19:11:09.3	74.410	-0.030	-0.310	-0.010
2020/01/31 19:11:09.4	74.420	-0.040	-0.300	0.030
2020/01/31 19:11:09.5	74.440	-0.060	-0.280	0.060
2020/01/31 19:11:09.6	74.450	-0.070	-0.260	0.100
2020/01/31 19:11:09.7	74.470	-0.080	-0.250	0.140
2020/01/31 19:11:09.8	74.480	-0.090	-0.220	0.180
2020/01/31 19:11:09.9	74.490	-0.100	-0.200	0.220
2020/01/31 19:11:10.0	74.510	-0.110	-0.180	0.260
2020/01/31 19:11:10.1	74.520	-0.120	-0.150	0.300
2020/01/31 19:11:10.2	74.530	-0.130	-0.130	0.340
2020/01/31 19:11:10.3	74.550	-0.140	-0.100	0.390
2020/01/31 19:11:10.4	74.560	-0.150	-0.070	0.430
2020/01/31 19:11:10.5	74.570	-0.160	-0.040	0.480
2020/01/31 19:11:10.6	74.580	-0.160	-0.010	0.530
2020/01/31 19:11:10.7	74.580	-0.170	0.020	0.580
2020/01/31 19:11:10.8	74.590	-0.170	0.050	0.630
2020/01/31 19:11:10.9	74.590	-0.180	0.070	0.690
2020/01/31 19:11:11.0	74.600	-0.180	0.100	0.750
2020/01/31 19:11:11.1	74.600	-0.180	0.130	0.810
2020/01/31 19:11:11.2	74.590	-0.180	0.160	0.870
2020/01/31 19:11:11.3	74.590	-0.180	0.190	0.930
2020/01/31 19:11:11.4	74.580	-0.180	0.210	1.000
2020/01/31 19:11:11.5	74.570	-0.180	0.240	1.060
2020/01/31 19:11:11.6	74.560	-0.180	0.260	1.130
2020/01/31 19:11:11.7	74.540	-0.170	0.280	1.200
2020/01/31 19:11:11.8	74.530	-0.170	0.300	1.270
2020/01/31 19:11:11.9	74.510	-0.160	0.310	1.350
2020/01/31 19:11:12.0	74.490	-0.160	0.330	1.420
2020/01/31 19:11:12.1	74.460	-0.150	0.340	1.490
2020/01/31 19:11:12.2	74.440	-0.140	0.340	1.550
2020/01/31 19:11:12.3	74.410	-0.130	0.340	1.620
2020/01/31 19:11:12.4	74.380	-0.120	0.340	1.680
2020/01/31 19:11:12.5	74.350	-0.110	0.330	1.740
2020/01/31 19:11:12.6	74.330	-0.100	0.320	1.800
2020/01/31 19:11:12.7	74.300	-0.090	0.310	1.850
2020/01/31 19:11:12.8	74.270	-0.080	0.290	1.900
2020/01/31 19:11:12.9	74.240	-0.070	0.270	1.940
2020/01/31 19:11:13.0	74.210	-0.060	0.240	1.970
2020/01/31 19:11:13.1	74.180	-0.040	0.210	2.000
2020/01/31 19:11:13.2	74.150	-0.030	0.170	2.030
2020/01/31 19:11:13.3	74.120	-0.020	0.130	2.040
2020/01/31 19:11:13.4	74.090	-0.000	0.090	2.060
2020/01/31 19:11:13.5	74.070	0.010	0.050	2.060
2020/01/31 19:11:13.6	74.040	0.020	0.000	2.060
2020/01/31 19:11:13.7	74.010	0.030	-0.040	2.050
2020/01/31 19:11:13.8	73.990	0.050	-0.090	2.040
2020/01/31 19:11:13.9	73.970	0.060	-0.140	2.020
2020/01/31 19:11:14.0	73.940	0.070	-0.190	1.990
2020/01/31 19:11:14.1	73.920	0.080	-0.230	1.970
2020/01/31 19:11:14.2	73.890	0.090	-0.280	1.930
2020/01/31 19:11:14.3	73.870	0.100	-0.320	1.900
2020/01/31 19:11:14.4	73.850	0.110	-0.360	1.850
2020/01/31 19:11:14.5	73.820	0.120	-0.400	1.810
2020/01/31 19:11:14.6	73.800	0.120	-0.440	1.760
2020/01/31 19:11:14.7	73.780	0.130	-0.470	1.710
2020/01/31 19:11:14.8	73.760	0.130	-0.490	1.650
2020/01/31 19:11:14.9	73.740	0.140	-0.520	1.590
2020/01/31 19:11:15.0	73.720	0.140	-0.540	1.530
2020/01/31 19:11:15.1	73.700	0.140	-0.560	1.470
2020/01/31 19:11:15.2	73.680	0.140	-0.580	1.400
2020/01/31 19:11:15.3	73.670	0.140	-0.590	1.330
2020/01/31 19:11:15.4	73.650	0.140	-0.600	1.260
2020/01/31 19:11:15.5	73.630	0.140	-0.600	1.180
2020/01/31 19:11:15.6	73.620	0.140	-0.610	1.110
2020/01/31 19:11:15.7	73.610	0.140	-0.610	1.030
2020/01/31 19:11:15.8	73.600	0.130	-0.610	0.940
2020/01/31 19:11:15.9	73.590	0.130	-0.610	0.860
2020/01/31 19:11:16.0	73.580	0.130	-0.610	0.780
2020/01/31 19:11:16.1	73.570	0.130	-0.610	0.690
2020/01/31 19:11:16.2	73.570	0.120	-0.600	0.610
2020/01/31 19:11:16.3	73.570	0.120	-0.600	0.520
2020/01/31 19:11:16.4	73.560	0.110	-0.600	0.430
2020/01/31 19:11:16.5	73.560	0.110	-0.590	0.350
2020/01/31 19:11:16.6	73.570	0.110	-0.590	0.260
2020/01/31 19:11:16.7	73.570	0.100	-0.590	0.170
2020/01/31 19:11:16.8	73.570	0.100	-0.580	0.080
2020/01/31 19:11:16.9	73.580	0.100	-0.580	-0.010
2020/01/31 19:11:17.0	73.590	0.100	-0.580	-0.100
2020/01/31 19:11:17.1	73.600	0.100	-0.580	-0.190
2020/01/31 19:11:17.2	73.610	0.100	-0.580	-0.280
2020/01/31 19:11:17.3	73.630	0.090	-0.580	-0.370
2020/01/31 19:11:17.4	73.650	0.090	-0.580	-0.450
2020/01/31 19:11:17.5	73.670	0.100	-0.580	-0.540
2020/01/31 19:11:17.6	73.690	0.100	-0.580	-0.630
2020/01/31 19:11:17.7	73.710	0.100	-0.580	-0.710
2020/01/31 19:11:17.8	73.730	0.100	-0.580	-0.790
2020/01/31 19:11:17.9	73.760	0.100	-0.580	-0.870
2020/01/31 19:11:18.0	73.780	0.100	-0.580	-0.950
2020/01/31 19:11:18.1	73.810	0.110	-0.570	-1.030
2020/01/31 19:11:18.2	73.840	0.110	-0.570	-1.100
2020/01/31 19:11:18.3	73.860	0.110	-0.560	-1.160
2020/01/31 19:11:18.4	73.890	0.110	-0.550	-1.230
2020/01/31 19:11:18.5	73.920	0.110	-0.530	-1.290
2020/01/31 19:11:18.6	73.950	0.120	-0.510	-1.340
2020/01/31 19:11:18.7	73.970	0.120	-0.490	-1.390
2020/01/31 19:11:18.8	74.000	0.120	-0.470	-1.430
2020/01/31 19:11:18.9	74.020	0.120	-0.440	-1.460
2020/01/31 19:11:19.0	74.040	0.120	-0.400	-1.490
2020/01/31 19:11:19.1	74.050	0.120	-0.370	-1.510
2020/01/31 19:11:19.2	74.070	0.110	-0.320	-1.530
2020/01/31 19:11:19.3	74.080	0.110	-0.280	-1.530
2020/01/31 19:11:19.4	74.090	0.110	-0.230	-1.530
2020/01/31 19:11:19.5	74.090	0.100	-0.180	-1.520
2020/01/31 19:11:19.6	74.090	0.090	-0.130	-1.500
2020/01/31 19:11:19.7	74.090	0.080	-0.070	-1.470
2020/01/31 19:11:19.8	74.080	0.070	-0.010	-1.440
2020/01/31 19:11:19.9	74.070	0.060	0.050	-1.390
2020/01/31 19:11:20.0	74.060	0.050	0.110	-1.340
2020/01/31 19:11:20.1	74.040	0.040	0.170	-1.290
2020/01/31 19:11:20.2	74.020	0.030	0.230	-1.220
2020/01/31 19:11:20.3	74.000	0.010	0.290	-1.150
2020/01/31 19:11:20.4	73.970	-0.000	0.350	-1.080
2020/01/31 19:11:20.5	73.950	-0.020	0.400	-1.000
2020/01/31 19:11:20.6	73.920	-0.030	0.460	-0.920
2020/01/31 19:11:20.7	73.890	-0.050	0.500	-0.830
2020/01/31 19:11:20.8	73.860	-0.070	0.550	-0.750
2020/01/31 19:11:20.9	73.830	-0.080	0.590	-0.660
2020/01/31 19:11:21.0	73.800	-0.100	0.630	-0.560
2020/01/31 19:11:21.1	73.770	-0.120	0.660	-0.470
2020/01/31 19:11:21.2	73.740	-0.130	0.680	-0.380
2020/01/31 19:11:21.3	73.710	-0.150	0.700	-0.280
2020/01/31 19:11:21.4	73.690	-0.160	0.710	-0.190
2020/01/31 19:11:21.5	73.660	-0.170	0.710	-0.100
2020/01/31 19:11:21.6	73.630	-0.180	0.710	-0.010
2020/01/31 19:11:21.7	73.610	-0.190	0.700	0.080
2020/01/31 19:11:21.8	73.580	-0.200	0.680	0.170
2020/01/31 19:11:21.9	73.550	-0.210	0.660	0.260
2020/01/31 19:11:22.0	73.530	-0.210	0.630	0.340
2020/01/31 19:11:22.1	73.510	-0.220	0.590	0.420
2020/01/31 19:11:22.2	73.490	-0.220	0.560	0.500
2020/01/31 19:11:22.3	73.470	-0.220	0.510	0.580
2020/01/31 19:11:22.4	73.460	-0.220	0.460	0.650
2020/01/31 19:11:22.5	73.440	-0.220	0.410	0.730
2020/01/31 19:11:22.6	73.430	-0.210	0.350	0.790
2020/01/31 19:11:22.7	73.410	-0.210	0.290	0.860
2020/01/31 19:11:22.8	73.400	-0.210	0.220	0.920
2020/01/31 19:11:22.9	73.390	-0.200	0.160	0.980
2020/01/31 19:11:23.0	73.380	-0.190	0.090	1.030
2020/01/31 19:11:23.1	73.370	-0.190	0.020	1.080
2020/01/31 19:11:23.2	73.360	-0.180	-0.060	1.120
2020/01/31 19:11:23.3	73.360	-0.170	-0.130	1.160
2020/01/31 19:11:23.4	73.350	-0.160	-0.200	1.200
2020/01/31 19:11:23.5	73.350	-0.160	-0.270	1.230
2020/01/31 19:11:23.6	73.340	-0.150	-0.340	1.260
2020/01/31 19:11:23.7	73.340	-0.140	-0.410	1.290
2020/01/31 19:11:23.8	73.340	-0.130	-0.480	1.310
2020/01/31 19:11:23.9	73.330	-0.130	-0.540	1.330
2020/01/31 19:11:24.0	73.330	-0.120	-0.600	1.340
2020/01/31 19:11:24.1	73.330	-0.110	-0.650	1.350
2020/01/31 19:11:24.2	73.320	-0.110	-0.700	1.360
2020/01/31 19:11:24.3	73.320	-0.100	-0.740	1.360
2020/01/31 19:11:24.4	73.310	-0.090	-0.780	1.360
2020/01/31 19:11:24.5	73.310	-0.090	-0.810	1.360
2020/01/31 19:11:24.6	73.300	-0.080	-0.840	1.350
2020/01/31 19:11:24.7	73.290	-0.080	-0.860	1.350
2020/01/31 19:11:24.8	73.280	-0.070	-0.870	1.340
2020/01/31 19:11:24.9	73.270	-0.070	-0.870	1.330
2020/01/31 19:11:25.0	73.260	-0.060	-0.870	1.310
2020/01/31 19:11:25.1	73.250	-0.060	-0.870	1.300
2020/01/31 19:11:25.2	73.240	-0.050	-0.860	1.290
2020/01/31 19:11:25.3	73.230	-0.050	-0.840	1.270
2020/01/31 19:11:25.4	73.220	-0.040	-0.810	1.260
2020/01/31 19:11:25.5	73.200	-0.040	-0.780	1.240
2020/01/31 19:11:25.6	73.190	-0.030	-0.750	1.220
2020/01/31 19:11:25.7	73.170	-0.030	-0.710	1.210
2020/01/31 19:11:25.8	73.150	-0.020	-0.660	1.190
2020/01/31 19:11:25.9	73.130	-0.020	-0.620	1.170
2020/01/31 19:11:26.0	73.110	-0.010	-0.570	1.160
2020/01/31 19:11:26.1	73.100	-0.010	-0.520	1.140
2020/01/31 19:11:26.2	73.080	-0.000	-0.470	1.120
2020/01/31 19:11:26.3	73.060	0.010	-0.410	1.110
2020/01/31 19:11:26.4	73.040	0.010	-0.360	1.090
2020/01/31 19:11:26.5	73.020	0.020	-0.310	1.070
2020/01/31 19:11:26.6	73.010	0.020	-0.260	1.060
2020/01/31 19:11:26.7	72.990	0.030	-0.210	1.040
2020/01/31 19:11:26.8	72.970	0.030	-0.160	1.020
2020/01/31 19:11:26.9	72.960	0.030	-0.110	1.000
2020/01/31 19:11:27.0	72.950	0.040	-0.070	0.980
2020/01/31 19:11:27.1	72.930	0.040	-0.030	0.950
2020/01/31 19:11:27.2	72.920	0.050	-0.000	0.930
2020/01/31 19:11:27.3	72.910	0.050	0.030	0.910
2020/01/31 19:11:27.4	72.910	0.050	0.050	0.880
2020/01/31 19:11:27.5	72.900	0.050	0.060	0.850
2020/01/31 19:11:27.6	72.900	0.050	0.070	0.820
2020/01/31 19:11:27.7	72.900	0.060	0.080	0.790
2020/01/31 19:11:27.8	72.900	0.060	0.080	0.760
2020/01/31 19:11:27.9	72.910	0.060	0.070	0.720
2020/01/31 19:11:28.0	72.920	0.060	0.060	0.690
2020/01/31 19:11:28.1	72.930	0.060	0.040	0.650
2020/01/31 19:11:28.2	72.940	0.060	0.020	0.600
2020/01/31 19:11:28.3	72.960	0.060	-0.010	0.560
2020/01/31 19:11:28.4	72.980	0.060	-0.040	0.510
2020/01/31 19:11:28.5	73.000	0.060	-0.080	0.470
2020/01/31 19:11:28.6	73.030	0.060	-0.120	0.420
2020/01/31 19:11:28.7	73.050	0.060	-0.170	0.370
2020/01/31 19:11:28.8	73.080	0.060	-0.220	0.310
2020/01/31 19:11:28.9	73.110	0.060	-0.270	0.260
2020/01/31 19:11:29.0	73.140	0.070	-0.310	0.210
2020/01/31 19:11:29.1	73.170	0.070	-0.360	0.160
2020/01/31 19:11:29.2	73.210	0.070	-0.410	0.110
2020/01/31 19:11:29.3	73.240	0.080	-0.460	0.070
2020/01/31 19:11:29.4	73.270	0.080	-0.500	0.020
2020/01/31 19:11:29.5	73.300	0.090	-0.550	-0.020
2020/01/31 19:11:29.6	73.330	0.090	-0.580	-0.060
2020/01/31 19:11:29.7	73.360	0.100	-0.620	-0.090
2020/01/31 19:11:29.8	73.380	0.110	-0.640	-0.120
2020/01/31 19:11:29.9	73.400	0.110	-0.670	-0.140
2020/01/31 19:11:30.0	73.420	0.120	-0.680	-0.160
2020/01/31 19:11:30.1	73.430	0.130	-0.690	-0.180
2020/01/31 19:11:30.2	73.440	0.140	-0.690	-0.190
2020/01/31 19:11:30.3	73.450	0.150	-0.690	-0.190
2020/01/31 19:11:30.4	73.450	0.160	-0.670	-0.190
2020/01/31 19:11:30.5	73.450	0.160	-0.650	-0.180
2020/01/31 19:11:30.6	73.450	0.170	-0.620	-0.170
2020/01/31 19:11:30.7	73.430	0.180	-0.590	-0.160
2020/01/31 19:11:30.8	73.420	0.190	-0.550	-0.140
2020/01/31 19:11:30.9	73.400	0.190	-0.490	-0.120
2020/01/31 19:11:31.0	73.370	0.190	-0.440	-0.090
2020/01/31 19:11:31.1	73.350	0.200	-0.380	-0.060
2020/01/31 19:11:31.2	73.310	0.200	-0.310	-0.030
2020/01/31 19:11:31.3	73.280	0.200	-0.240	0.010
2020/01/31 19:11:31.4	73.230	0.190	-0.160	0.050
2020/01/31 19:11:31.5	73.190	0.190	-0.080	0.080
2020/01/31 19:11:31.6	73.140	0.180	-0.000	0.120
2020/01/31 19:11:31.7	73.090	0.170	0.080	0.160
2020/01/31 19:11:31.8	73.040	0.160	0.160	0.210
2020/01/31 19:11:31.9	72.980	0.150	0.240	0.250
2020/01/31 19:11:32.0	72.920	0.130	0.310	0.290
2020/01/31 19:11:32.1	72.870	0.110	0.390	0.330
2020/01/31 19:11:32.2	72.810	0.090	0.450	0.370
2020/01/31 19:11:32.3	72.740	0.070	0.520	0.410
2020/01/31 19:11:32.4	72.680	0.050	0.580	0.440
2020/01/31 19:11:32.5	72.620	0.020	0.630	0.470
2020/01/31 19:11:32.6	72.560	-0.000	0.670	0.500
2020/01/31 19:11:32.7	72.500	-0.030	0.710	0.520
2020/01/31 19:11:32.8	72.450	-0.060	0.740	0.530
2020/01/31 19:11:32.9	72.390	-0.080	0.760	0.550
2020/01/31 19:11:33.0	72.340	-0.110	0.770	0.560
2020/01/31 19:11:33.1	72.290	-0.140	0.770	0.560
2020/01/31 19:11:33.2	72.240	-0.160	0.750	0.560
2020/01/31 19:11:33.3	72.190	-0.190	0.730	0.550
2020/01/31 19:11:33.4	72.150	-0.210	0.700	0.540
2020/01/31 19:11:33.5	72.110	-0.230	0.660	0.530
2020/01/31 19:11:33.6	72.080	-0.250	0.620	0.510
2020/01/31 19:11:33.7	72.050	-0.270	0.560	0.490
2020/01/31 19:11:33.8	72.020	-0.280	0.490	0.460
2020/01/31 19:11:33.9	72.000	-0.290	0.420	0.430
2020/01/31 19:11:34.0	71.980	-0.300	0.340	0.390
2020/01/31 19:11:34.1	71.970	-0.310	0.250	0.350
2020/01/31 19:11:34.2	71.960	-0.310	0.160	0.310
2020/01/31 19:11:34.3	71.960	-0.310	0.060	0.260
2020/01/31 19:11:34.4	71.960	-0.300	-0.040	0.220
2020/01/31 19:11:34.5	71.960	-0.300	-0.140	0.170
2020/01/31 19:11:34.6	71.960	-0.280	-0.240	0.120
2020/01/31 19:11:34.7	71.970	-0.270	-0.350	0.070
2020/01/31 19:11:34.8	71.990	-0.250	-0.440	0.010
2020/01/31 19:11:34.9	72.000	-0.230	-0.540	-0.040
2020/01/31 19:11:35.0	72.020	-0.200	-0.640	-0.090
2020/01/31 19:11:35.1	72.040	-0.170	-0.730	-0.140
2020/01/31 19:11:35.2	72.060	-0.140	-0.820	-0.180
2020/01/31 19:11:35.3	72.090	-0.110	-0.900	-0.230
2020/01/31 19:11:35.4	72.110	-0.080	-0.970	-0.270
2020/01/31 19:11:35.5	72.140	-0.040	-1.040	-0.310
2020/01/31 19:11:35.6	72.160	-0.010	-1.100	-0.350
2020/01/31 19:11:35.7	72.190	0.030	-1.150	-0.380
2020/01/31 19:11:35.8	72.210	0.070	-1.190	-0.420
2020/01/31 19:11:35.9	72.240	0.100	-1.220	-0.450
2020/01/31 19:11:36.0	72.270	0.140	-1.250	-0.480
2020/01/31 19:11:36.1	72.300	0.170	-1.260	-0.510
2020/01/31 19:11:36.2	72.320	0.200	-1.270	-0.530
2020/01/31 19:11:36.3	72.350	0.240	-1.260	-0.550
2020/01/31 19:11:36.4	72.370	0.260	-1.250	-0.570
2020/01/31 19:11:36.5	72.400	0.290	-1.220	-0.590
2020/01/31 19:11:36.6	72.420	0.310	-1.190	-0.610
2020/01/31 19:11:36.7	72.450	0.330	-1.150	-0.620
2020/01/31 19:11:36.8	72.470	0.350	-1.100	-0.630
2020/01/31 19:11:36.9	72.490	0.360	-1.040	-0.640
2020/01/31 19:11:37.0	72.510	0.360	-0.980	-0.640
2020/01/31 19:11:37.1	72.530	0.370	-0.910	-0.640
2020/01/31 19:11:37.2	72.540	0.370	-0.840	-0.640
2020/01/31 19:11:37.3	72.560	0.360	-0.760	-0.630
2020/01/31 19:11:37.4	72.570	0.350	-0.670	-0.610
2020/01/31 19:11:37.5	72.580	0.340	-0.580	-0.600
2020/01/31 19:11:37.6	72.590	0.320	-0.490	-0.570
2020/01/31 19:11:37.7	72.590	0.300	-0.400	-0.550
2020/01/31 19:11:37.8	72.590	0.270	-0.300	-0.510
2020/01/31 19:11:37.9	72.600	0.240	-0.210	-0.480
2020/01/31 19:11:38.0	72.600	0.210	-0.110	-0.440
2020/01/31 19:11:38.1	72.590	0.180	-0.020	-0.390
2020/01/31 19:11:38.2	72.590	0.140	0.080	-0.340
2020/01/31 19:11:38.3	72.580	0.100	0.170	-0.290
2020/01/31 19:11:38.4	72.580	0.060	0.250	-0.230
2020/01/31 19:11:38.5	72.560	0.010	0.340	-0.170
2020/01/31 19:11:38.6	72.550	-0.030	0.420	-0.100
2020/01/31 19:11:38.7	72.540	-0.080	0.490	-0.030
2020/01/31 19:11:38.8	72.520	-0.120	0.560	0.040
2020/01/31 19:11:38.9	72.500	-0.170	0.630	0.120
2020/01/31 19:11:39.0	72.480	-0.220	0.690	0.200
2020/01/31 19:11:39.1	72.460	-0.260	0.740	0.280
2020/01/31 19:11:39.2	72.430	-0.300	0.790	0.360
2020/01/31 19:11:39.3	72.400	-0.340	0.830	0.440
2020/01/31 19:11:39.4	72.370	-0.380	0.860	0.530
2020/01/31 19:11:39.5	72.340	-0.420	0.880	0.610
2020/01/31 19:11:39.6	72.310	-0.460	0.900	0.700
2020/01/31 19:11:39.7	72.270	-0.490	0.920	0.790
2020/01/31 19:11:39.8	72.240	-0.520	0.920	0.870
2020/01/31 19:11:39.9	72.200	-0.540	0.920	0.960
2020/01/31 19:11:40.0	72.170	-0.560	0.910	1.040
2020/01/31 19:11:40.1	72.130	-0.580	0.900	1.120
2020/01/31 19:11:40.2	72.090	-0.590	0.870	1.190
2020/01/31 19:11:40.3	72.060	-0.600	0.850	1.270
2020/01/31 19:11:40.4	72.020	-0.610	0.810	1.340
2020/01/31 19:11:40.5	71.990	-0.610	0.770	1.400
2020/01/31 19:11:40.6	71.950	-0.610	0.720	1.460
2020/01/31 19:11:40.7	71.920	-0.600	0.670	1.520
2020/01/31 19:11:40.8	71.890	-0.590	0.610	1.570
2020/01/31 19:11:40.9	71.860	-0.580	0.550	1.610
2020/01/31 19:11:41.0	71.840	-0.560	0.480	1.650
2020/01/31 19:11:41.1	71.810	-0.540	0.410	1.690
2020/01/31 19:11:41.2	71.790	-0.510	0.340	1.720
2020/01/31 19:11:41.3	71.770	-0.480	0.260	1.740
2020/01/31 19:11:41.4	71.750	-0.450	0.180	1.760
2020/01/31 19:11:41.5	71.740	-0.420	0.100	1.770
2020/01/31 19:11:41.6	71.720	-0.380	0.020	1.780
2020/01/31 19:11:41.7	71.710	-0.340	-0.060	1.780
2020/01/31 19:11:41.8	71.690	-0.300	-0.150	1.780
2020/01/31 19:11:41.9	71.680	-0.260	-0.230	1.770
2020/01/31 19:11:42.0	71.670	-0.210	-0.320	1.760
2020/01/31 19:11:42.1	71.660	-0.170	-0.400	1.740
2020/01/31 19:11:42.2	71.650	-0.120	-0.480	1.720
2020/01/31 19:11:42.3	71.640	-0.080	-0.560	1.700
2020/01/31 19:11:42.4	71.640	-0.030	-0.640	1.670
2020/01/31 19:11:42.5	71.630	0.020	-0.720	1.640
2020/01/31 19:11:42.6	71.630	0.060	-0.790	1.600
2020/01/31 19:11:42.7	71.620	0.100	-0.860	1.560
2020/01/31 19:11:42.8	71.620	0.150	-0.930	1.520
2020/01/31 19:11:42.9	71.620	0.190	-0.990	1.470
2020/01/31 19:11:43.0	71.620	0.230	-1.050	1.420
2020/01/31 19:11:43.1	71.620	0.260	-1.100	1.370
2020/01/31 19:11:43.2	71.620	0.300	-1.160	1.320
2020/01/31 19:11:43.3	71.620	0.330	-1.200	1.260
2020/01/31 19:11:43.4	71.620	0.360	-1.240	1.200
2020/01/31 19:11:43.5	71.620	0.390	-1.280	1.140
2020/01/31 19:11:43.6	71.620	0.410	-1.310	1.080
2020/01/31 19:11:43.7	71.620	0.430	-1.330	1.010
2020/01/31 19:11:43.8	71.630	0.450	-1.350	0.940
2020/01/31 19:11:43.9	71.630	0.470	-1.360	0.880
2020/01/31 19:11:44.0	71.640	0.480	-1.360	0.810
2020/01/31 19:11:44.1	71.640	0.480	-1.360	0.740
2020/01/31 19:11:44.2	71.640	0.490	-1.350	0.670
2020/01/31 19:11:44.3	71.650	0.490	-1.340	0.610
2020/01/31 19:11:44.4	71.650	0.490	-1.310	0.540
2020/01/31 19:11:44.5	71.650	0.480	-1.280	0.470
2020/01/31 19:11:44.6	71.650	0.480	-1.240	0.410
2020/01/31 19:11:44.7	71.660	0.470	-1.200	0.340
2020/01/31 19:11:44.8	71.650	0.450	-1.140	0.280
2020/01/31 19:11:44.9	71.650	0.440	-1.090	0.220
2020/01/31 19:11:45.0	71.640	0.420	-1.020	0.160
2020/01/31 19:11:45.1	71.640	0.400	-0.950	0.110
2020/01/31 19:11:45.2	71.630	0.380	-0.880	0.060
2020/01/31 19:11:45.3	71.620	0.360	-0.800	0.010
2020/01/31 19:11:45.4	71.600	0.340	-0.720	-0.030
2020/01/31 19:11:45.5	71.590	0.310	-0.630	-0.070
2020/01/31 19:11:45.6	71.570	0.290	-0.550	-0.110
2020/01/31 19:11:45.7	71.550	0.260	-0.450	-0.140
2020/01/31 19:11:45.8	71.520	0.240	-0.370	-0.170
2020/01/31 19:11:45.9	71.500	0.210	-0.270	-0.190
2020/01/31 19:11:46.0	71.470	0.190	-0.180	-0.210
2020/01/31 19:11:46.1	71.440	0.160	-0.090	-0.220
2020/01/31 19:11:46.2	71.400	0.140	0.010	-0.240
2020/01/31 19:11:46.3	71.370	0.120	0.100	-0.250
2020/01/31 19:11:46.4	71.330	0.090	0.180	-0.250
2020/01/31 19:11:46.5	71.300	0.070	0.270	-0.260
2020/01/31 19:11:46.6	71.260	0.060	0.340	-0.260
2020/01/31 19:11:46.7	71.220	0.040	0.420	-0.260
2020/01/31 19:11:46.8	71.180	0.020	0.490	-0.260
2020/01/31 19:11:46.9	71.140	0.010	0.550	-0.260
2020/01/31 19:11:47.0	71.100	0.000	0.610	-0.260
2020/01/31 19:11:47.1	71.070	-0.010	0.660	-0.250
2020/01/31 19:11:47.2	71.030	-0.020	0.700	-0.250
2020/01/31 19:11:47.3	71.000	-0.020	0.730	-0.240
2020/01/31 19:11:47.4	70.970	-0.020	0.750	-0.240
2020/01/31 19:11:47.5	70.940	-0.030	0.770	-0.240
2020/01/31 19:11:47.6	70.910	-0.020	0.780	-0.240
2020/01/31 19:11:47.7	70.890	-0.020	0.780	-0.240
2020/01/31 19:11:47.8	70.870	-0.020	0.770	-0.240
2020/01/31 19:11:47.9	70.850	-0.010	0.750	-0.240
2020/01/31 19:11:48.0	70.830	-0.000	0.730	-0.250
2020/01/31 19:11:48.1	70.820	0.010	0.700	-0.260
2020/01/31 19:11:48.2	70.810	0.020	0.660	-0.260
2020/01/31 19:11:48.3	70.800	0.030	0.620	-0.270
2020/01/31 19:11:48.4	70.800	0.040	0.580	-0.280
2020/01/31 19:11:48.5	70.790	0.050	0.520	-0.290
2020/01/31 19:11:48.6	70.790	0.060	0.470	-0.300
2020/01/31 19:11:48.7	70.790	0.080	0.410	-0.320
2020/01/31 19:11:48.8	70.790	0.090	0.350	-0.330
2020/01/31 19:11:48.9	70.800	0.100	0.290	-0.340
2020/01/31 19:11:49.0	70.800	0.110	0.220	-0.350
2020/01/31 19:11:49.1	70.810	0.120	0.160	-0.360
2020/01/31 19:11:49.2	70.810	0.130	0.100	-0.370
2020/01/31 19:11:49.3	70.820	0.140	0.040	-0.380
2020/01/31 19:11:49.4	70.820	0.140	-0.020	-0.390
2020/01/31 19:11:49.5	70.830	0.150	-0.080	-0.400
2020/01/31 19:11:49.6	70.840	0.150	-0.130	-0.410
2020/01/31 19:11:49.7	70.850	0.150	-0.180	-0.410
2020/01/31 19:11:49.8	70.850	0.150	-0.220	-0.420
2020/01/31 19:11:49.9	70.860	0.140	-0.260	-0.420
2020/01/31 19:11:50.0	70.860	0.140	-0.300	-0.420
2020/01/31 19:11:50.1	70.860	0.130	-0.330	-0.420
2020/01/31 19:11:50.2	70.870	0.110	-0.350	-0.420
2020/01/31 19:11:50.3	70.870	0.100	-0.370	-0.420
2020/01/31 19:11:50.4	70.870	0.080	-0.390	-0.410
2020/01/31 19:11:50.5	70.870	0.070	-0.400	-0.410
2020/01/31 19:11:50.6	70.870	0.040	-0.410	-0.400
2020/01/31 19:11:50.7	70.870	0.020	-0.410	-0.390
2020/01/31 19:11:50.8	70.860	-0.000	-0.410	-0.380
2020/01/31 19:11:50.9	70.860	-0.030	-0.400	-0.370
2020/01/31 19:11:51.0	70.850	-0.060	-0.390	-0.350
2020/01/31 19:11:51.1	70.840	-0.090	-0.380	-0.330
2020/01/31 19:11:51.2	70.830	-0.120	-0.360	-0.320
2020/01/31 19:11:51.3	70.820	-0.150	-0.340	-0.300
2020/01/31 19:11:51.4	70.810	-0.180	-0.320	-0.280
2020/01/31 19:11:51.5	70.790	-0.210	-0.300	-0.250
2020/01/31 19:11:51.6	70.780	-0.250	-0.270	-0.230
2020/01/31 19:11:51.7	70.760	-0.280	-0.250	-0.210
2020/01/31 19:11:51.8	70.750	-0.310	-0.230	-0.180
2020/01/31 19:11:51.9	70.730	-0.340	-0.200	-0.150
2020/01/31 19:11:52.0	70.710	-0.370	-0.180	-0.120
2020/01/31 19:11:52.1	70.690	-0.400	-0.150	-0.090
2020/01/31 19:11:52.2	70.670	-0.430	-0.130	-0.050
2020/01/31 19:11:52.3	70.650	-0.460	-0.110	-0.020
2020/01/31 19:11:52.4	70.630	-0.480	-0.090	0.020
2020/01/31 19:11:52.5	70.610	-0.500	-0.070	0.060
2020/01/31 19:11:52.6	70.590	-0.520	-0.050	0.100
2020/01/31 19:11:52.7	70.570	-0.540	-0.040	0.140
2020/01/31 19:11:52.8	70.550	-0.560	-0.020	0.180
2020/01/31 19:11:52.9	70.530	-0.570	-0.010	0.220
2020/01/31 19:11:53.0	70.510	-0.580	-0.010	0.260
2020/01/31 19:11:53.1	70.490	-0.580	-0.000	0.300
2020/01/31 19:11:53.2	70.470	-0.590	-0.000	0.350
2020/01/31 19:11:53.3	70.450	-0.590	-0.000	0.390
2020/01/31 19:11:53.4	70.430	-0.590	-0.010	0.430
2020/01/31 19:11:53.5	70.400	-0.580	-0.020	0.470
2020/01/31 19:11:53.6	70.380	-0.570	-0.030	0.520
2020/01/31 19:11:53.7	70.360	-0.560	-0.040	0.560
2020/01/31 19:11:53.8	70.340	-0.550	-0.060	0.590
2020/01/31 19:11:53.9	70.310	-0.530	-0.080	0.630
2020/01/31 19:11:54.0	70.290	-0.510	-0.100	0.670
2020/01/31 19:11:54.1	70.270	-0.490	-0.120	0.700
2020/01/31 19:11:54.2	70.240	-0.460	-0.150	0.740
2020/01/31 19:11:54.3	70.220	-0.430	-0.170	0.770
2020/01/31 19:11:54.4	70.200	-0.400	-0.200	0.800
2020/01/31 19:11:54.5	70.170	-0.370	-0.220	0.830
2020/01/31 19:11:54.6	70.150	-0.340	-0.250	0.860
2020/01/31 19:11:54.7	70.130	-0.300	-0.280	0.880
2020/01/31 19:11:54.8	70.100	-0.260	-0.300	0.910
2020/01/31 19:11:54.9	70.080	-0.230	-0.330	0.930
2020/01/31 19:11:55.0	70.060	-0.190	-0.360	0.950
2020/01/31 19:11:55.1	70.040	-0.150	-0.380	0.970
2020/01/31 19:11:55.2	70.020	-0.100	-0.400	0.990
2020/01/31 19:11:55.3	70.000	-0.060	-0.420	1.010
2020/01/31 19:11:55.4	69.980	-0.020	-0.450	1.030
2020/01/31 19:11:55.5	69.970	0.020	-0.460	1.040
2020/01/31 19:11:55.6	69.950	0.060	-0.480	1.060
2020/01/31 19:11:55.7	69.940	0.110	-0.500	1.070
2020/01/31 19:11:55.8	69.930	0.150	-0.510	1.080
2020/01/31 19:11:55.9	69.920	0.190	-0.530	1.100
2020/01/31 19:11:56.0	69.910	0.230	-0.540	1.110
2020/01/31 19:11:56.1	69.900	0.260	-0.550	1.120
2020/01/31 19:11:56.2	69.900	0.300	-0.560	1.130
2020/01/31 19:11:56.3	69.900	0.330	-0.560	1.130
2020/01/31 19:11:56.4	69.900	0.370	-0.570	1.140
2020/01/31 19:11:56.5	69.900	0.400	-0.570	1.150
2020/01/31 19:11:56.6	69.900	0.420	-0.580	1.150
2020/01/31 19:11:56.7	69.910	0.450	-0.580	1.160
2020/01/31 19:11:56.8	69.920	0.470	-0.580	1.160
2020/01/31 19:11:56.9	69.920	0.490	-0.580	1.160
2020/01/31 19:11:57.0	69.930	0.510	-0.580	1.170
2020/01/31 19:11:57.1	69.930	0.530	-0.570	1.170
2020/01/31 19:11:57.2	69.940	0.540	-0.570	1.170
2020/01/31 19:11:57.3	69.950	0.550	-0.560	1.160
2020/01/31 19:11:57.4	69.950	0.550	-0.550	1.160
2020/01/31 19:11:57.5	69.960	0.560	-0.540	1.160
2020/01/31 19:11:57.6	69.970	0.560	-0.530	1.150
2020/01/31 19:11:57.7	69.970	0.550	-0.510	1.150
2020/01/31 19:11:57.8	69.970	0.550	-0.500	1.130
2020/01/31 19:11:57.9	69.980	0.540	-0.480	1.130
2020/01/31 19:11:58.0	69.980	0.530	-0.470	1.120
2020/01/31 19:11:58.1	69.980	0.520	-0.450	1.100
2020/01/31 19:11:58.2	69.970	0.500	-0.430	1.090
2020/01/31 19:11:58.3	69.970	0.490	-0.400	1.080
2020/01/31 19:11:58.4	69.960	0.470	-0.380	1.060
2020/01/31 19:11:58.5	69.950	0.450	-0.360	1.050
2020/01/31 19:11:58.6	69.930	0.430	-0.330	1.030
2020/01/31 19:11:58.7	69.910	0.400	-0.300	1.010
2020/01/31 19:11:58.8	69.890	0.380	-0.270	0.990
2020/01/31 19:11:58.9	69.870	0.360	-0.250	0.970
2020/01/31 19:11:59.0	69.840	0.330	-0.220	0.950
2020/01/31 19:11:59.1	69.810	0.300	-0.180	0.930
2020/01/31 19:11:59.2	69.780	0.280	-0.150	0.900
2020/01/31 19:11:59.3	69.740	0.250	-0.120	0.880
2020/01/31 19:11:59.4	69.700	0.220	-0.090	0.860
2020/01/31 19:11:59.5	69.660	0.200	-0.050	0.830
2020/01/31 19:11:59.6	69.620	0.170	-0.020	0.800
2020/01/31 19:11:59.7	69.570	0.140	0.020	0.780
2020/01/31 19:11:59.8	69.530	0.120	0.050	0.750
2020/01/31 19:11:59.9	69.480	0.090	0.090	0.720
2020/01/31 19:12:00.0	69.430	0.070	0.120	0.690
2020/01/31 19:12:00.1	69.380	0.040	0.150	0.660
2020/01/31 19:12:00.2	69.330	0.020	0.180	0.630
2020/01/31 19:12:00.3	69.280	-0.000	0.210	0.590
2020/01/31 19:12:00.4	69.230	-0.020	0.240	0.560
2020/01/31 19:12:00.5	69.180	-0.040	0.260	0.520
2020/01/31 19:12:00.6	69.130	-0.060	0.290	0.490
2020/01/31 19:12:00.7	69.090	-0.080	0.310	0.450
2020/01/31 19:12:00.8	69.040	-0.100	0.320	0.410
2020/01/31 19:12:00.9	69.000	-0.110	0.340	0.370
2020/01/31 19:12:01.0	68.960	-0.120	0.350	0.320
2020/01/31 19:12:01.1	68.920	-0.130	0.350	0.280
2020/01/31 19:12:01.2	68.890	-0.140	0.360	0.230
2020/01/31 19:12:01.3	68.860	-0.150	0.360	0.190
2020/01/31 19:12:01.4	68.830	-0.160	0.350	0.140
2020/01/31 19:12:01.5	68.800	-0.170	0.340	0.090
2020/01/31 19:12:01.6	68.780	-0.170	0.330	0.040
2020/01/31 19:12:01.7	68.760	-0.180	0.310	-0.010
2020/01/31 19:12:01.8	68.740	-0.180	0.290	-0.070
2020/01/31 19:12:01.9	68.730	-0.180	0.270	-0.130
2020/01/31 19:12:02.0	68.720	-0.180	0.240	-0.180
2020/01/31 19:12:02.1	68.710	-0.180	0.210	-0.240
2020/01/31 19:12:02.2	68.700	-0.180	0.180	-0.290
2020/01/31 19:12:02.3	68.700	-0.180	0.150	-0.350
2020/01/31 19:12:02.4	68.700	-0.180	0.110	-0.410
2020/01/31 19:12:02.5	68.700	-0.180	0.080	-0.460
2020/01/31 19:12:02.6	68.700	-0.180	0.040	-0.520
2020/01/31 19:12:02.7	68.700	-0.180	0.000	-0.570
2020/01/31 19:12:02.8	68.700	-0.180	-0.040	-0.630
2020/01/31 19:12:02.9	68.710	-0.180	-0.070	-0.680
2020/01/31 19:12:03.0	68.710	-0.180	-0.110	-0.730
2020/01/31 19:12:03.1	68.720	-0.180	-0.140	-0.780
2020/01/31 19:12:03.2	68.720	-0.180	-0.180	-0.830
2020/01/31 19:12:03.3	68.730	-0.180	-0.210	-0.880
2020/01/31 19:12:03.4	68.730	-0.180	-0.240	-0.920
2020/01/31 19:12:03.5	68.730	-0.180	-0.260	-0.960
2020/01/31 19:12:03.6	68.730	-0.180	-0.290	-1.000
2020/01/31 19:12:03.7	68.730	-0.180	-0.310	-1.030
2020/01/31 19:12:03.8	68.730	-0.180	-0.330	-1.070
2020/01/31 19:12:03.9	68.730	-0.180	-0.340	-1.090
2020/01/31 19:12:04.0	68.720	-0.180	-0.350	-1.120
2020/01/31 19:12:04.1	68.720	-0.180	-0.360	-1.140
2020/01/31 19:12:04.2	68.710	-0.180	-0.370	-1.150
2020/01/31 19:12:04.3	68.710	-0.180	-0.370	-1.160
2020/01/31 19:12:04.4	68.700	-0.180	-0.370	-1.170
2020/01/31 19:12:04.5	68.700	-0.180	-0.370	-1.170
2020/01/31 19:12:04.6	68.690	-0.180	-0.370	-1.160
2020/01/31 19:12:04.7	68.680	-0.170	-0.360	-1.160
2020/01/31 19:12:04.8	68.670	-0.170	-0.350	-1.150
2020/01/31 19:12:04.9	68.660	-0.170	-0.350	-1.130
2020/01/31 19:12:05.0	68.650	-0.160	-0.340	-1.110
2020/01/31 19:12:05.1	68.650	-0.160	-0.330	-1.090
2020/01/31 19:12:05.2	68.640	-0.150	-0.320	-1.060
2020/01/31 19:12:05.3	68.630	-0.140	-0.310	-1.040
2020/01/31 19:12:05.4	68.630	-0.130	-0.290	-1.000
2020/01/31 19:12:05.5	68.620	-0.120	-0.290	-0.970
2020/01/31 19:12:05.6	68.610	-0.110	-0.280	-0.930
2020/01/31 19:12:05.7	68.610	-0.100	-0.270	-0.880
2020/01/31 19:12:05.8	68.600	-0.090	-0.270	-0.840
2020/01/31 19:12:05.9	68.590	-0.070	-0.260	-0.790
2020/01/31 19:12:06.0	68.590	-0.060	-0.260	-0.740
2020/01/31 19:12:06.1	68.590	-0.040	-0.250	-0.680
2020/01/31 19:12:06.2	68.580	-0.030	-0.250	-0.630
2020/01/31 19:12:06.3	68.580	-0.010	-0.250	-0.570
2020/01/31 19:12:06.4	68.580	0.010	-0.260	-0.510
2020/01/31 19:12:06.5	68.570	0.030	-0.260	-0.440
2020/01/31 19:12:06.6	68.570	0.050	-0.270	-0.370
2020/01/31 19:12:06.7	68.570	0.070	-0.270	-0.310
2020/01/31 19:12:06.8	68.560	0.090	-0.280	-0.230
2020/01/31 19:12:06.9	68.560	0.100	-0.290	-0.160
2020/01/31 19:12:07.0	68.560	0.120	-0.300	-0.090
2020/01/31 19:12:07.1	68.550	0.140	-0.310	-0.010
2020/01/31 19:12:07.2	68.550	0.160	-0.320	0.060
2020/01/31 19:12:07.3	68.550	0.170	-0.330	0.140
2020/01/31 19:12:07.4	68.540	0.180	-0.330	0.210
2020/01/31 19:12:07.5	68.540	0.190	-0.340	0.290
2020/01/31 19:12:07.6	68.530	0.200	-0.350	0.360
2020/01/31 19:12:07.7	68.520	0.210	-0.360	0.430
2020/01/31 19:12:07.8	68.510	0.210	-0.370	0.510
2020/01/31 19:12:07.9	68.500	0.220	-0.370	0.580
2020/01/31 19:12:08.0	68.490	0.220	-0.370	0.650
2020/01/31 19:12:08.1	68.480	0.210	-0.370	0.720
2020/01/31 19:12:08.2	68.460	0.200	-0.360	0.790
2020/01/31 19:12:08.3	68.450	0.200	-0.350	0.860
2020/01/31 19:12:08.4	68.430	0.180	-0.340	0.920
2020/01/31 19:12:08.5	68.410	0.170	-0.330	0.990
2020/01/31 19:12:08.6	68.390	0.150	-0.310	1.050
2020/01/31 19:12:08.7	68.360	0.130	-0.290	1.120
2020/01/31 19:12:08.8	68.330	0.110	-0.270	1.170
2020/01/31 19:12:08.9	68.300	0.080	-0.240	1.230
2020/01/31 19:12:09.0	68.270	0.060	-0.210	1.290
2020/01/31 19:12:09.1	68.230	0.030	-0.180	1.350
2020/01/31 19:12:09.2	68.200	-0.000	-0.150	1.400
2020/01/31 19:12:09.3	68.160	-0.030	-0.110	1.450
2020/01/31 19:12:09.4	68.120	-0.060	-0.080	1.500
2020/01/31 19:12:09.5	68.070	-0.090	-0.040	1.550
2020/01/31 19:12:09.6	68.030	-0.120	-0.000	1.590
2020/01/31 19:12:09.7	67.980	-0.150	0.030	1.630
2020/01/31 19:12:09.8	67.930	-0.180	0.060	1.670
2020/01/31 19:12:09.9	67.880	-0.210	0.100	1.710
2020/01/31 19:12:10.0	67.830	-0.240	0.130	1.740
2020/01/31 19:12:10.1	67.780	-0.260	0.160	1.770
2020/01/31 19:12:10.2	67.730	-0.290	0.180	1.800
2020/01/31 19:12:10.3	67.680	-0.310	0.200	1.820
2020/01/31 19:12:10.4	67.630	-0.320	0.220	1.840
2020/01/31 19:12:10.5	67.590	-0.340	0.240	1.860
2020/01/31 19:12:10.6	67.540	-0.350	0.240	1.880
2020/01/31 19:12:10.7	67.490	-0.350	0.250	1.890
2020/01/31 19:12:10.8	67.450	-0.350	0.240	1.890
2020/01/31 19:12:10.9	67.410	-0.350	0.240	1.890
2020/01/31 19:12:11.0	67.370	-0.350	0.220	1.890
2020/01/31 19:12:11.1	67.340	-0.340	0.200	1.880
2020/01/31 19:12:11.2	67.310	-0.320	0.170	1.870
2020/01/31 19:12:11.3	67.280	-0.310	0.140	1.850
2020/01/31 19:12:11.4	67.250	-0.280	0.110	1.830
2020/01/31 19:12:11.5	67.230	-0.260	0.060	1.800
2020/01/31 19:12:11.6	67.210	-0.230	0.020	1.770
2020/01/31 19:12:11.7	67.190	-0.200	-0.030	1.740
2020/01/31 19:12:11.8	67.170	-0.170	-0.090	1.700
2020/01/31 19:12:11.9	67.160	-0.130	-0.140	1.660
2020/01/31 19:12:12.0	67.150	-0.090	-0.200	1.610
2020/01/31 19:12:12.1	67.140	-0.050	-0.270	1.560
2020/01/31 19:12:12.2	67.140	-0.010	-0.330	1.500
2020/01/31 19:12:12.3	67.140	0.030	-0.390	1.440
2020/01/31 19:12:12.4	67.140	0.080	-0.460	1.370
2020/01/31 19:12:12.5	67.140	0.120	-0.520	1.300
2020/01/31 19:12:12.6	67.140	0.160	-0.580	1.230
2020/01/31 19:12:12.7	67.150	0.200	-0.640	1.150
2020/01/31 19:12:12.8	67.150	0.240	-0.700	1.070
2020/01/31 19:12:12.9	67.160	0.280	-0.760	0.990
2020/01/31 19:12:13.0	67.170	0.320	-0.810	0.900
2020/01/31 19:12:13.1	67.170	0.350	-0.860	0.810
2020/01/31 19:12:13.2	67.180	0.390	-0.900	0.720
2020/01/31 19:12:13.3	67.190	0.410	-0.930	0.620
2020/01/31 19:12:13.4	67.200	0.440	-0.960	0.520
2020/01/31 19:12:13.5	67.200	0.460	-0.990	0.430
2020/01/31 19:12:13.6	67.210	0.480	-1.000	0.330
2020/01/31 19:12:13.7	67.210	0.500	-1.010	0.230
2020/01/31 19:12:13.8	67.220	0.510	-1.010	0.130
2020/01/31 19:12:13.9	67.220	0.510	-1.010	0.030
2020/01/31 19:12:14.0	67.230	0.520	-0.990	-0.060
2020/01/31 19:12:14.1	67.220	0.510	-0.970	-0.160
2020/01/31 19:12:14.2	67.220	0.510	-0.940	-0.250
2020/01/31 19:12:14.3	67.220	0.500	-0.910	-0.340
2020/01/31 19:12:14.4	67.210	0.480	-0.860	-0.430
2020/01/31 19:12:14.5	67.210	0.470	-0.810	-0.510
2020/01/31 19:12:14.6	67.200	0.440	-0.750	-0.590
2020/01/31 19:12:14.7	67.190	0.420	-0.680	-0.670
2020/01/31 19:12:14.8	67.170	0.390	-0.610	-0.740
2020/01/31 19:12:14.9	67.160	0.360	-0.530	-0.810
2020/01/31 19:12:15.0	67.140	0.330	-0.450	-0.870
2020/01/31 19:12:15.1	67.130	0.290	-0.360	-0.930
2020/01/31 19:12:15.2	67.110	0.260	-0.270	-0.980
2020/01/31 19:12:15.3	67.090	0.220	-0.180	-1.030
2020/01/31 19:12:15.4	67.070	0.180	-0.090	-1.080
2020/01/31 19:12:15.5	67.040	0.140	0.010	-1.120
2020/01/31 19:12:15.6	67.020	0.100	0.110	-1.150
2020/01/31 19:12:15.7	67.000	0.060	0.200	-1.180
2020/01/31 19:12:15.8	66.960	0.020	0.290	-1.220
2020/01/31 19:12:15.9	66.940	-0.020	0.380	-1.240
2020/01/31 19:12:16.0	66.910	-0.050	0.470	-1.260
2020/01/31 19:12:16.1	66.880	-0.090	0.550	-1.280
2020/01/31 19:12:16.2	66.860	-0.120	0.630	-1.290
2020/01/31 19:12:16.3	66.830	-0.160	0.700	-1.300
2020/01/31 19:12:16.4	66.800	-0.190	0.770	-1.310
2020/01/31 19:12:16.5	66.770	-0.210	0.820	-1.310
2020/01/31 19:12:16.6	66.750	-0.240	0.870	-1.310
2020/01/31 19:12:16.7	66.720	-0.260	0.910	-1.310
2020/01/31 19:12:16.8	66.690	-0.280	0.940	-1.300
2020/01/31 19:12:16.9	66.660	-0.290	0.970	-1.300
2020/01/31 19:12:17.0	66.630	-0.300	0.980	-1.290
2020/01/31 19:12:17.1	66.610	-0.310	0.990	-1.280
2020/01/31 19:12:17.2	66.580	-0.320	0.990	-1.260
2020/01/31 19:12:17.3	66.550	-0.320	0.980	-1.250
2020/01/31 19:12:17.4	66.520	-0.320	0.950	-1.230
2020/01/31 19:12:17.5	66.500	-0.320	0.930	-1.210
2020/01/31 19:12:17.6	66.470	-0.310	0.890	-1.190
2020/01/31 19:12:17.7	66.450	-0.310	0.840	-1.160
2020/01/31 19:12:17.8	66.420	-0.300	0.790	-1.140
2020/01/31 19:12:17.9	66.390	-0.290	0.730	-1.110
2020/01/31 19:12:18.0	66.370	-0.270	0.670	-1.070
2020/01/31 19:12:18.1	66.340	-0.260	0.600	-1.040
2020/01/31 19:12:18.2	66.320	-0.240	0.520	-1.000
2020/01/31 19:12:18.3	66.300	-0.220	0.440	-0.960
2020/01/31 19:12:18.4	66.280	-0.200	0.360	-0.920
2020/01/31 19:12:18.5	66.260	-0.190	0.270	-0.870
2020/01/31 19:12:18.6	66.230	-0.170	0.190	-0.820
2020/01/31 19:12:18.7	66.210	-0.150	0.100	-0.770
2020/01/31 19:12:18.8	66.190	-0.130	0.010	-0.710
2020/01/31 19:12:18.9	66.170	-0.110	-0.080	-0.650
2020/01/31 19:12:19.0	66.150	-0.090	-0.160	-0.590
2020/01/31 19:12:19.1	66.130	-0.080	-0.250	-0.520
2020/01/31 19:12:19.2	66.110	-0.060	-0.330	-0.460
2020/01/31 19:12:19.3	66.090	-0.040	-0.410	-0.390
2020/01/31 19:12:19.4	66.070	-0.030	-0.490	-0.320
2020/01/31 19:12:19.5	66.050	-0.020	-0.570	-0.260
2020/01/31 19:12:19.6	66.040	-0.010	-0.640	-0.190
2020/01/31 19:12:19.7	66.020	0.010	-0.710	-0.120
2020/01/31 19:12:19.8	66.010	0.020	-0.770	-0.050
2020/01/31 19:12:19.9	66.000	0.020	-0.830	0.020
2020/01/31 19:12:20.0	65.990	0.030	-0.890	0.090
2020/01/31 19:12:20.1	65.970	0.040	-0.940	0.150
2020/01/31 19:12:20.2	65.960	0.040	-0.980	0.220
2020/01/31 19:12:20.3	65.960	0.040	-1.020	0.280
2020/01/31 19:12:20.4	65.950	0.050	-1.060	0.340
2020/01/31 19:12:20.5	65.940	0.050	-1.090	0.400
2020/01/31 19:12:20.6	65.940	0.050	-1.110	0.450
2020/01/31 19:12:20.7	65.930	0.050	-1.130	0.510
2020/01/31 19:12:20.8	65.930	0.050	-1.140	0.560
2020/01/31 19:12:20.9	65.930	0.050	-1.150	0.610
2020/01/31 19:12:21.0	65.930	0.050	-1.150	0.660
2020/01/31 19:12:21.1	65.930	0.060	-1.150	0.710
2020/01/31 19:12:21.2	65.920	0.060	-1.140	0.750
2020/01/31 19:12:21.3	65.920	0.060	-1.130	0.800
2020/01/31 19:12:21.4	65.910	0.060	-1.110	0.840
2020/01/31 19:12:21.5	65.910	0.060	-1.080	0.890
2020/01/31 19:12:21.6	65.900	0.060	-1.060	0.930
2020/01/31 19:12:21.7	65.890	0.060	-1.020	0.970
2020/01/31 19:12:21.8	65.880	0.070	-0.990	1.020
2020/01/31 19:12:21.9	65.870	0.070	-0.950	1.060
2020/01/31 19:12:22.0	65.860	0.070	-0.900	1.100
2020/01/31 19:12:22.1	65.850	0.080	-0.860	1.140
2020/01/31 19:12:22.2	65.830	0.080	-0.800	1.180
2020/01/31 19:12:22.3	65.810	0.090	-0.750	1.220
2020/01/31 19:12:22.4	65.800	0.090	-0.700	1.260
2020/01/31 19:12:22.5	65.780	0.100	-0.640	1.300
2020/01/31 19:12:22.6	65.750	0.100	-0.580	1.330
2020/01/31 19:12:22.7	65.730	0.110	-0.520	1.370
2020/01/31 19:12:22.8	65.710	0.120	-0.460	1.400
2020/01/31 19:12:22.9	65.680	0.120	-0.400	1.430
2020/01/31 19:12:23.0	65.660	0.130	-0.340	1.460
2020/01/31 19:12:23.1	65.630	0.130	-0.280	1.480
2020/01/31 19:12:23.2	65.600	0.130	-0.220	1.500
2020/01/31 19:12:23.3	65.570	0.140	-0.160	1.530
2020/01/31 19:12:23.4	65.540	0.140	-0.100	1.540
2020/01/31 19:12:23.5	65.520	0.140	-0.040	1.560
2020/01/31 19:12:23.6	65.490	0.140	0.010	1.570
2020/01/31 19:12:23.7	65.460	0.140	0.060	1.580
2020/01/31 19:12:23.8	65.430	0.140	0.110	1.580
2020/01/31 19:12:23.9	65.400	0.140	0.160	1.590
2020/01/31 19:12:24.0	65.370	0.130	0.200	1.590
2020/01/31 19:12:24.1	65.350	0.120	0.250	1.580
2020/01/31 19:12:24.2	65.320	0.120	0.290	1.580
2020/01/31 19:12:24.3	65.300	0.110	0.330	1.570
2020/01/31 19:12:24.4	65.270	0.100	0.360	1.560
2020/01/31 19:12:24.5	65.250	0.090	0.390	1.540
2020/01/31 19:12:24.6	65.220	0.070	0.420	1.530
2020/01/31 19:12:24.7	65.200	0.060	0.450	1.510
2020/01/31 19:12:24.8	65.170	0.040	0.480	1.490
2020/01/31 19:12:24.9	65.150	0.030	0.500	1.470
2020/01/31 19:12:25.0	65.120	0.010	0.520	1.440
2020/01/31 19:12:25.1	65.100	-0.010	0.530	1.420
2020/01/31 19:12:25.2	65.080	-0.030	0.540	1.390
2020/01/31 19:12:25.3	65.050	-0.050	0.550	1.370
2020/01/31 19:12:25.4	65.030	-0.070	0.560	1.340
2020/01/31 19:12:25.5	65.010	-0.090	0.570	1.310
2020/01/31 19:12:25.6	64.980	-0.120	0.570	1.270
2020/01/31 19:12:25.7	64.960	-0.140	0.570	1.240
2020/01/31 19:12:25.8	64.940	-0.160	0.560	1.200
2020/01/31 19:12:25.9	64.910	-0.180	0.550	1.160
2020/01/31 19:12:26.0	64.890	-0.200	0.540	1.120
2020/01/31 19:12:26.1	64.870	-0.220	0.530	1.080
2020/01/31 19:12:26.2	64.850	-0.240	0.510	1.030
2020/01/31 19:12:26.3	64.830	-0.260	0.490	0.980
2020/01/31 19:12:26.4	64.800	-0.280	0.460	0.930
2020/01/31 19:12:26.5	64.780	-0.300	0.440	0.880
2020/01/31 19:12:26.6	64.760	-0.310	0.400	0.830
2020/01/31 19:12:26.7	64.750	-0.320	0.370	0.770
2020/01/31 19:12:26.8	64.730	-0.330	0.330	0.700
2020/01/31 19:12:26.9	64.710	-0.340	0.290	0.640
2020/01/31 19:12:27.0	64.690	-0.350	0.250	0.580
2020/01/31 19:12:27.1	64.680	-0.350	0.200	0.510
2020/01/31 19:12:27.2	64.660	-0.350	0.150	0.450
2020/01/31 19:12:27.3	64.650	-0.350	0.100	0.380
2020/01/31 19:12:27.4	64.640	-0.340	0.040	0.310
2020/01/31 19:12:27.5	64.620	-0.340	-0.020	0.230
2020/01/31 19:12:27.6	64.610	-0.330	-0.080	0.160
2020/01/31 19:12:27.7	64.600	-0.310	-0.140	0.080
2020/01/31 19:12:27.8	64.590	-0.300	-0.200	0.010
2020/01/31 19:12:27.9	64.580	-0.280	-0.270	-0.060
2020/01/31 19:12:28.0	64.570	-0.260	-0.340	-0.140
2020/01/31 19:12:28.1	64.560	-0.240	-0.410	-0.220
2020/01/31 19:12:28.2	64.560	-0.210	-0.480	-0.290
2020/01/31 19:12:28.3	64.550	-0.180	-0.550	-0.370
2020/01/31 19:12:28.4	64.540	-0.150	-0.610	-0.440
2020/01/31 19:12:28.5	64.540	-0.120	-0.680	-0.520
2020/01/31 19:12:28.6	64.530	-0.090	-0.750	-0.590
2020/01/31 19:12:28.7	64.530	-0.050	-0.810	-0.660
2020/01/31 19:12:28.8	64.520	-0.020	-0.880	-0.730
2020/01/31 19:12:28.9	64.520	0.020	-0.940	-0.800
2020/01/31 19:12:29.0	64.510	0.060	-0.990	-0.860
2020/01/31 19:12:29.1	64.500	0.100	-1.040	-0.920
2020/01/31 19:12:29.2	64.500	0.140	-1.090	-0.970
2020/01/31 19:12:29.3	64.490	0.180	-1.130	-1.020
2020/01/31 19:12:29.4	64.480	0.220	-1.170	-1.070
2020/01/31 19:12:29.5	64.470	0.260	-1.200	-1.110
2020/01/31 19:12:29.6	64.460	0.300	-1.220	-1.140
2020/01/31 19:12:29.7	64.450	0.340	-1.240	-1.170
2020/01/31 19:12:29.8	64.430	0.380	-1.250	-1.190
2020/01/31 19:12:29.9	64.420	0.420	-1.250	-1.210
2020/01/31 19:12:30.0	64.400	0.450	-1.240	-1.220
2020/01/31 19:12:30.1	64.380	0.490	-1.220	-1.220
2020/01/31 19:12:30.2	64.360	0.520	-1.200	-1.220
2020/01/31 19:12:30.3	64.340	0.550	-1.160	-1.210
2020/01/31 19:12:30.4	64.310	0.570	-1.120	-1.190
2020/01/31 19:12:30.5	64.290	0.600	-1.080	-1.170
2020/01/31 19:12:30.6	64.260	0.620	-1.020	-1.140
2020/01/31 19:12:30.7	64.230	0.630	-0.960	-1.100
2020/01/31 19:12:30.8	64.200	0.650	-0.900	-1.060
2020/01/31 19:12:30.9	64.160	0.650	-0.820	-1.020
2020/01/31 19:12:31.0	64.130	0.660	-0.740	-0.970
2020/01/31 19:12:31.1	64.090	0.660	-0.660	-0.920
2020/01/31 19:12:31.2	64.050	0.660	-0.580	-0.860
2020/01/31 19:12:31.3	64.020	0.650	-0.490	-0.810
2020/01/31 19:12:31.4	63.980	0.640	-0.400	-0.750
2020/01/31 19:12:31.5	63.940	0.620	-0.310	-0.680
2020/01/31 19:12:31.6	63.900	0.600	-0.220	-0.620
2020/01/31 19:12:31.7	63.870	0.570	-0.130	-0.560
2020/01/31 19:12:31.8	63.830	0.540	-0.040	-0.500
2020/01/31 19:12:31.9	63.790	0.510	0.040	-0.440
2020/01/31 19:12:32.0	63.760	0.480	0.130	-0.380
2020/01/31 19:12:32.1	63.730	0.430	0.210	-0.330
2020/01/31 19:12:32.2	63.700	0.390	0.280	-0.270
2020/01/31 19:12:32.3	63.670	0.340	0.360	-0.220
2020/01/31 19:12:32.4	63.650	0.300	0.420	-0.170
2020/01/31 19:12:32.5	63.620	0.240	0.490	-0.130
2020/01/31 19:12:32.6	63.600	0.190	0.540	-0.090
2020/01/31 19:12:32.7	63.580	0.130	0.590	-0.050
2020/01/31 19:12:32.8	63.560	0.080	0.640	-0.030
2020/01/31 19:12:32.9	63.550	0.020	0.680	0.000
2020/01/31 19:12:33.0	63.540	-0.040	0.720	0.030
2020/01/31 19:12:33.1	63.520	-0.100	0.750	0.050
2020/01/31 19:12:33.2	63.510	-0.160	0.770	0.060
2020/01/31 19:12:33.3	63.510	-0.220	0.790	0.080
2020/01/31 19:12:33.4	63.500	-0.270	0.810	0.090
2020/01/31 19:12:33.5	63.490	-0.330	0.810	0.100
2020/01/31 19:12:33.6	63.480	-0.380	0.820	0.100
2020/01/31 19:12:33.7	63.480	-0.440	0.820	0.100
2020/01/31 19:12:33.8	63.480	-0.490	0.810	0.110
2020/01/31 19:12:33.9	63.470	-0.530	0.800	0.110
2020/01/31 19:12:34.0	63.460	-0.580	0.790	0.110
2020/01/31 19:12:34.1	63.460	-0.620	0.770	0.110
2020/01/31 19:12:34.2	63.450	-0.660	0.750	0.110
2020/01/31 19:12:34.3	63.450	-0.690	0.720	0.110
2020/01/31 19:12:34.4	63.440	-0.720	0.700	0.110
2020/01/31 19:12:34.5	63.430	-0.750	0.670	0.110
2020/01/31 19:12:34.6	63.420	-0.770	0.630	0.110
2020/01/31 19:12:34.7	63.410	-0.780	0.590	0.120
2020/01/31 19:12:34.8	63.400	-0.790	0.550	0.120
2020/01/31 19:12:34.9	63.380	-0.800	0.510	0.130
2020/01/31 19:12:35.0	63.370	-0.800	0.460	0.140
2020/01/31 19:12:35.1	63.350	-0.800	0.420	0.160
2020/01/31 19:12:35.2	63.340	-0.790	0.360	0.170
2020/01/31 19:12:35.3	63.320	-0.780	0.310	0.190
2020/01/31 19:12:35.4	63.300	-0.770	0.250	0.210
2020/01/31 19:12:35.5	63.280	-0.750	0.190	0.230
2020/01/31 19:12:35.6	63.250	-0.720	0.130	0.250
2020/01/31 19:12:35.7	63.230	-0.690	0.070	0.280
2020/01/31 19:12:35.8	63.200	-0.660	0.010	0.310
2020/01/31 19:12:35.9	63.180	-0.620	-0.060	0.340
2020/01/31 19:12:36.0	63.150	-0.580	-0.130	0.370
2020/01/31 19:12:36.1	63.130	-0.540	-0.200	0.400
2020/01/31 19:12:36.2	63.110	-0.490	-0.270	0.440
2020/01/31 19:12:36.3	63.080	-0.440	-0.340	0.470
2020/01/31 19:12:36.4	63.060	-0.390	-0.410	0.510
2020/01/31 19:12:36.5	63.040	-0.340	-0.480	0.540
2020/01/31 19:12:36.6	63.020	-0.280	-0.560	0.580
2020/01/31 19:12:36.7	63.000	-0.230	-0.630	0.620
2020/01/31 19:12:36.8	62.980	-0.170	-0.700	0.650
2020/01/31 19:12:36.9	62.960	-0.110	-0.760	0.690
2020/01/31 19:12:37.0	62.950	-0.050	-0.830	0.730
2020/01/31 19:12:37.1	62.940	0.010	-0.890	0.760
2020/01/31 19:12:37.2	62.920	0.070	-0.950	0.800
2020/01/31 19:12:37.3	62.910	0.120	-1.000	0.830
2020/01/31 19:12:37.4	62.910	0.180	-1.060	0.860
2020/01/31 19:12:37.5	62.900	0.240	-1.100	0.890
2020/01/31 19:12:37.6	62.900	0.290	-1.140	0.920
2020/01/31 19:12:37.7	62.890	0.340	-1.180	0.950
2020/01/31 19:12:37.8	62.890	0.390	-1.220	0.970
2020/01/31 19:12:37.9	62.890	0.440	-1.240	1.000
2020/01/31 19:12:38.0	62.890	0.480	-1.260	1.020
2020/01/31 19:12:38.1	62.890	0.520	-1.270	1.040
2020/01/31 19:12:38.2	62.900	0.560	-1.280	1.060
2020/01/31 19:12:38.3	62.900	0.590	-1.280	1.080
2020/01/31 19:12:38.4	62.900	0.620	-1.270	1.100
2020/01/31 19:12:38.5	62.900	0.640	-1.260	1.120
2020/01/31 19:12:38.6	62.900	0.670	-1.240	1.130
2020/01/31 19:12:38.7	62.900	0.680	-1.210	1.140
2020/01/31 19:12:38.8	62.900	0.700	-1.170	1.150
2020/01/31 19:12:38.9	62.900	0.710	-1.130	1.160
2020/01/31 19:12:39.0	62.890	0.710	-1.090	1.170
2020/01/31 19:12:39.1	62.890	0.710	-1.030	1.180
2020/01/31 19:12:39.2	62.880	0.710	-0.980	1.180
2020/01/31 19:12:39.3	62.870	0.710	-0.910	1.190
2020/01/31 19:12:39.4	62.850	0.700	-0.840	1.190
2020/01/31 19:12:39.5	62.840	0.680	-0.770	1.190
2020/01/31 19:12:39.6	62.820	0.660	-0.700	1.190
2020/01/31 19:12:39.7	62.800	0.640	-0.620	1.180
2020/01/31 19:12:39.8	62.770	0.620	-0.540	1.170
2020/01/31 19:12:39.9	62.750	0.590	-0.450	1.170
2020/01/31 19:12:40.0	62.720	0.560	-0.370	1.150
2020/01/31 19:12:40.1	62.690	0.530	-0.280	1.140
2020/01/31 19:12:40.2	62.660	0.490	-0.200	1.130
2020/01/31 19:12:40.3	62.630	0.460	-0.120	1.110
2020/01/31 19:12:40.4	62.590	0.420	-0.030	1.090
2020/01/31 19:12:40.5	62.560	0.370	0.050	1.060
2020/01/31 19:12:40.6	62.520	0.330	0.130	1.040
2020/01/31 19:12:40.7	62.490	0.280	0.200	1.010
2020/01/31 19:12:40.8	62.440	0.240	0.280	0.970
2020/01/31 19:12:40.9	62.410	0.190	0.350	0.930
2020/01/31 19:12:41.0	62.370	0.140	0.410	0.890
2020/01/31 19:12:41.1	62.330	0.090	0.470	0.850
2020/01/31 19:12:41.2	62.300	0.040	0.530	0.800
2020/01/31 19:12:41.3	62.260	-0.010	0.580	0.760
2020/01/31 19:12:41.4	62.230	-0.060	0.630	0.700
2020/01/31 19:12:41.5	62.190	-0.110	0.670	0.650
2020/01/31 19:12:41.6	62.160	-0.150	0.700	0.590
2020/01/31 19:12:41.7	62.130	-0.200	0.730	0.530
2020/01/31 19:12:41.8	62.100	-0.240	0.750	0.470
2020/01/31 19:12:41.9	62.070	-0.290	0.770	0.410
2020/01/31 19:12:42.0	62.040	-0.330	0.780	0.340
2020/01/31 19:12:42.1	62.010	-0.360	0.780	0.280
2020/01/31 19:12:42.2	61.980	-0.400	0.790	0.210
2020/01/31 19:12:42.3	61.950	-0.430	0.780	0.140
2020/01/31 19:12:42.4	61.930	-0.460	0.770	0.070
2020/01/31 19:12:42.5	61.900	-0.480	0.760	0.010
2020/01/31 19:12:42.6	61.870	-0.510	0.740	-0.060
2020/01/31 19:12:42.7	61.840	-0.530	0.710	-0.130
2020/01/31 19:12:42.8	61.810	-0.540	0.680	-0.200
2020/01/31 19:12:42.9	61.780	-0.550	0.650	-0.260
2020/01/31 19:12:43.0	61.760	-0.560	0.620	-0.320
2020/01/31 19:12:43.1	61.730	-0.560	0.580	-0.390
2020/01/31 19:12:43.2	61.700	-0.560	0.540	-0.450
2020/01/31 19:12:43.3	61.670	-0.560	0.500	-0.500
2020/01/31 19:12:43.4	61.640	-0.550	0.450	-0.560
2020/01/31 19:12:43.5	61.620	-0.540	0.400	-0.610
2020/01/31 19:12:43.6	61.590	-0.530	0.350	-0.660
2020/01/31 19:12:43.7	61.560	-0.510	0.300	-0.710
2020/01/31 19:12:43.8	61.530	-0.490	0.250	-0.760
2020/01/31 19:12:43.9	61.500	-0.470	0.190	-0.810
2020/01/31 19:12:44.0	61.470	-0.450	0.140	-0.850
2020/01/31 19:12:44.1	61.440	-0.420	0.090	-0.890
2020/01/31 19:12:44.2	61.410	-0.390	0.030	-0.930
2020/01/31 19:12:44.3	61.390	-0.360	-0.020	-0.960
2020/01/31 19:12:44.4	61.360	-0.330	-0.080	-0.990
2020/01/31 19:12:44.5	61.340	-0.300	-0.130	-1.020
2020/01/31 19:12:44.6	61.310	-0.270	-0.180	-1.050
2020/01/31 19:12:44.7	61.290	-0.240	-0.230	-1.080
2020/01/31 19:12:44.8	61.260	-0.210	-0.280	-1.100
2020/01/31 19:12:44.9	61.240	-0.170	-0.330	-1.120
2020/01/31 19:12:45.0	61.220	-0.140	-0.380	-1.140
2020/01/31 19:12:45.1	61.210	-0.110	-0.430	-1.150
2020/01/31 19:12:45.2	61.190	-0.080	-0.480	-1.170
2020/01/31 19:12:45.3	61.180	-0.050	-0.520	-1.180
2020/01/31 19:12:45.4	61.170	-0.020	-0.570	-1.190
2020/01/31 19:12:45.5	61.160	0.010	-0.610	-1.200
2020/01/31 19:12:45.6	61.150	0.030	-0.650	-1.210
2020/01/31 19:12:45.7	61.150	0.060	-0.700	-1.220
2020/01/31 19:12:45.8	61.140	0.080	-0.740	-1.230
2020/01/31 19:12:45.9	61.140	0.110	-0.780	-1.240
2020/01/31 19:12:46.0	61.150	0.130	-0.820	-1.250
2020/01/31 19:12:46.1	61.150	0.150	-0.860	-1.250
2020/01/31 19:12:46.2	61.160	0.170	-0.890	-1.250
2020/01/31 19:12:46.3	61.170	0.190	-0.930	-1.250
2020/01/31 19:12:46.4	61.180	0.210	-0.960	-1.250
2020/01/31 19:12:46.5	61.200	0.230	-0.990	-1.250
2020/01/31 19:12:46.6	61.220	0.240	-1.020	-1.250
2020/01/31 19:12:46.7	61.240	0.260	-1.050	-1.250
2020/01/31 19:12:46.8	61.260	0.270	-1.070	-1.240
2020/01/31 19:12:46.9	61.280	0.280	-1.090	-1.230
2020/01/31 19:12:47.0	61.310	0.300	-1.110	-1.210
2020/01/31 19:12:47.1	61.330	0.310	-1.120	-1.200
2020/01/31 19:12:47.2	61.350	0.320	-1.130	-1.180
2020/01/31 19:12:47.3	61.370	0.330	-1.140	-1.150
2020/01/31 19:12:47.4	61.390	0.340	-1.140	-1.130
2020/01/31 19:12:47.5	61.410	0.350	-1.140	-1.090
2020/01/31 19:12:47.6	61.430	0.350	-1.130	-1.060
2020/01/31 19:12:47.7	61.440	0.360	-1.110	-1.010
2020/01/31 19:12:47.8	61.470	0.370	-1.090	-0.970
2020/01/31 19:12:47.9	61.480	0.370	-1.070	-0.910
2020/01/31 19:12:48.0	61.480	0.370	-1.030	-0.860
2020/01/31 19:12:48.1	61.480	0.370	-0.990	-0.790
2020/01/31 19:12:48.2	61.480	0.370	-0.950	-0.720
2020/01/31 19:12:48.3	61.480	0.370	-0.900	-0.650
2020/01/31 19:12:48.4	61.470	0.370	-0.840	-0.570
2020/01/31 19:12:48.5	61.450	0.360	-0.770	-0.490
2020/01/31 19:12:48.6	61.440	0.350	-0.700	-0.410
2020/01/31 19:12:48.7	61.410	0.340	-0.620	-0.320
2020/01/31 19:12:48.8	61.380	0.330	-0.540	-0.220
2020/01/31 19:12:48.9	61.350	0.320	-0.450	-0.120
2020/01/31 19:12:49.0	61.310	0.300	-0.350	-0.020
2020/01/31 19:12:49.1	61.270	0.280	-0.250	0.080
2020/01/31 19:12:49.2	61.220	0.270	-0.150	0.190
2020/01/31 19:12:49.3	61.170	0.250	-0.040	0.300
2020/01/31 19:12:49.4	61.110	0.220	0.070	0.400
2020/01/31 19:12:49.5	61.060	0.200	0.170	0.510
2020/01/31 19:12:49.6	60.990	0.170	0.280	0.620
2020/01/31 19:12:49.7	60.930	0.150	0.390	0.730
2020/01/31 19:12:49.8	60.860	0.120	0.500	0.840
2020/01/31 19:12:49.9	60.790	0.090	0.610	0.950
2020/01/31 19:12:50.0	60.710	0.070	0.710	1.050
2020/01/31 19:12:50.1	60.640	0.040	0.800	1.150
2020/01/31 19:12:50.2	60.560	0.010	0.890	1.250
2020/01/31 19:12:50.3	60.480	-0.020	0.970	1.350
2020/01/31 19:12:50.4	60.400	-0.050	1.050	1.440
2020/01/31 19:12:50.5	60.330	-0.070	1.110	1.530
2020/01/31 19:12:50.6	60.250	-0.100	1.160	1.610
2020/01/31 19:12:50.7	60.170	-0.120	1.200	1.690
2020/01/31 19:12:50.8	60.100	-0.150	1.240	1.760
2020/01/31 19:12:50.9	60.030	-0.170	1.250	1.830
2020/01/31 19:12:51.0	59.960	-0.190	1.260	1.880
2020/01/31 19:12:51.1	59.890	-0.200	1.250	1.930
2020/01/31 19:12:51.2	59.830	-0.220	1.240	1.970
2020/01/31 19:12:51.3	59.770	-0.230	1.200	2.010
2020/01/31 19:12:51.4	59.720	-0.240	1.160	2.030
2020/01/31 19:12:51.5	59.670	-0.240	1.100	2.050
2020/01/31 19:12:51.6	59.620	-0.250	1.030	2.060
2020/01/31 19:12:51.7	59.590	-0.250	0.950	2.060
2020/01/31 19:12:51.8	59.560	-0.240	0.850	2.050
2020/01/31 19:12:51.9	59.530	-0.240	0.750	2.030
2020/01/31 19:12:52.0	59.510	-0.230	0.640	2.010
2020/01/31 19:12:52.1	59.500	-0.220	0.520	1.980
2020/01/31 19:12:52.2	59.480	-0.200	0.400	1.940
2020/01/31 19:12:52.3	59.480	-0.190	0.270	1.900
2020/01/31 19:12:52.4	59.480	-0.170	0.130	1.850
2020/01/31 19:12:52.5	59.480	-0.150	-0.000	1.790
2020/01/31 19:12:52.6	59.490	-0.130	-0.140	1.730
2020/01/31 19:12:52.7	59.500	-0.110	-0.270	1.660
2020/01/31 19:12:52.8	59.510	-0.090	-0.410	1.580
2020/01/31 19:12:52.9	59.530	-0.070	-0.530	1.510
2020/01/31 19:12:53.0	59.540	-0.050	-0.660	1.430
2020/01/31 19:12:53.1	59.560	-0.030	-0.770	1.350
2020/01/31 19:12:53.2	59.580	-0.010	-0.880	1.270
2020/01/31 19:12:53.3	59.600	0.010	-0.970	1.180
2020/01/31 19:12:53.4	59.620	0.020	-1.060	1.100
2020/01/31 19:12:53.5	59.640	0.040	-1.130	1.020
2020/01/31 19:12:53.6	59.660	0.050	-1.190	0.930
2020/01/31 19:12:53.7	59.670	0.060	-1.240	0.850
2020/01/31 19:12:53.8	59.680	0.070	-1.270	0.770
2020/01/31 19:12:53.9	59.690	0.070	-1.290	0.690
2020/01/31 19:12:54.0	59.700	0.080	-1.300	0.610
2020/01/31 19:12:54.1	59.710	0.080	-1.300	0.530
2020/01/31 19:12:54.2	59.710	0.070	-1.280	0.460
2020/01/31 19:12:54.3	59.710	0.070	-1.250	0.390
2020/01/31 19:12:54.4	59.700	0.060	-1.210	0.320
2020/01/31 19:12:54.5	59.690	0.050	-1.160	0.260
2020/01/31 19:12:54.6	59.680	0.040	-1.100	0.190
2020/01/31 19:12:54.7	59.670	0.030	-1.040	0.130
2020/01/31 19:12:54.8	59.650	0.010	-0.960	0.070
2020/01/31 19:12:54.9	59.630	-0.010	-0.880	0.010
2020/01/31 19:12:55.0	59.610	-0.020	-0.800	-0.040
2020/01/31 19:12:55.1	59.590	-0.040	-0.710	-0.090
2020/01/31 19:12:55.2	59.560	-0.060	-0.630	-0.130
2020/01/31 19:12:55.3	59.530	-0.080	-0.540	-0.180
2020/01/31 19:12:55.4	59.500	-0.100	-0.450	-0.220
2020/01/31 19:12:55.5	59.470	-0.120	-0.370	-0.260
2020/01/31 19:12:55.6	59.440	-0.140	-0.290	-0.300
2020/01/31 19:12:55.7	59.400	-0.160	-0.210	-0.340
2020/01/31 19:12:55.8	59.370	-0.180	-0.140	-0.380
2020/01/31 19:12:55.9	59.330	-0.190	-0.070	-0.410
2020/01/31 19:12:56.0	59.300	-0.200	-0.020	-0.440
2020/01/31 19:12:56.1	59.270	-0.210	0.040	-0.480
2020/01/31 19:12:56.2	59.230	-0.220	0.080	-0.510
2020/01/31 19:12:56.3	59.200	-0.230	0.120	-0.540
2020/01/31 19:12:56.4	59.160	-0.230	0.150	-0.560
2020/01/31 19:12:56.5	59.130	-0.230	0.170	-0.590
2020/01/31 19:12:56.6	59.100	-0.230	0.180	-0.610
2020/01/31 19:12:56.7	59.070	-0.220	0.180	-0.640
2020/01/31 19:12:56.8	59.040	-0.210	0.180	-0.660
2020/01/31 19:12:56.9	59.010	-0.200	0.170	-0.680
2020/01/31 19:12:57.0	58.990	-0.180	0.150	-0.700
2020/01/31 19:12:57.1	58.960	-0.170	0.130	-0.710
2020/01/31 19:12:57.2	58.930	-0.150	0.100	-0.720
2020/01/31 19:12:57.3	58.900	-0.120	0.070	-0.730
2020/01/31 19:12:57.4	58.880	-0.100	0.040	-0.730
2020/01/31 19:12:57.5	58.850	-0.070	0.000	-0.730
2020/01/31 19:12:57.6	58.830	-0.050	-0.030	-0.730
2020/01/31 19:12:57.7	58.800	-0.020	-0.070	-0.720
2020/01/31 19:12:57.8	58.780	0.010	-0.110	-0.710
2020/01/31 19:12:57.9	58.750	0.040	-0.150	-0.690
2020/01/31 19:12:58.0	58.730	0.070	-0.190	-0.680
2020/01/31 19:12:58.1	58.700	0.100	-0.220	-0.660
2020/01/31 19:12:58.2	58.680	0.130	-0.260	-0.640
2020/01/31 19:12:58.3	58.660	0.150	-0.290	-0.610
2020/01/31 19:12:58.4	58.630	0.180	-0.320	-0.590
2020/01/31 19:12:58.5	58.610	0.200	-0.340	-0.560
2020/01/31 19:12:58.6	58.580	0.230	-0.360	-0.530
2020/01/31 19:12:58.7	58.560	0.250	-0.380	-0.500
2020/01/31 19:12:58.8	58.540	0.260	-0.390	-0.460
2020/01/31 19:12:58.9	58.510	0.280	-0.400	-0.430
2020/01/31 19:12:59.0	58.490	0.290	-0.400	-0.390
2020/01/31 19:12:59.1	58.460	0.300	-0.400	-0.360
2020/01/31 19:12:59.2	58.430	0.310	-0.400	-0.320
2020/01/31 19:12:59.3	58.410	0.310	-0.390	-0.290
2020/01/31 19:12:59.4	58.380	0.310	-0.380	-0.250
2020/01/31 19:12:59.5	58.350	0.310	-0.360	-0.210
2020/01/31 19:12:59.6	58.320	0.300	-0.350	-0.180
2020/01/31 19:12:59.7	58.290	0.300	-0.330	-0.140
2020/01/31 19:12:59.8	58.260	0.280	-0.300	-0.110
2020/01/31 19:12:59.9	58.230	0.270	-0.280	-0.080
2020/01/31 19:13:00.0	58.190	0.250	-0.250	-0.050
2020/01/31 19:13:00.1	58.160	0.240	-0.220	-0.020
2020/01/31 19:13:00.2	58.120	0.220	-0.200	0.010
2020/01/31 19:13:00.3	58.090	0.200	-0.160	0.030
2020/01/31 19:13:00.4	58.050	0.170	-0.130	0.060
2020/01/31 19:13:00.5	58.010	0.150	-0.100	0.080
2020/01/31 19:13:00.6	57.970	0.120	-0.070	0.100
2020/01/31 19:13:00.7	57.920	0.100	-0.040	0.120
2020/01/31 19:13:00.8	57.880	0.070	-0.010	0.130
2020/01/31 19:13:00.9	57.840	0.040	0.020	0.150
2020/01/31 19:13:01.0	57.790	0.020	0.050	0.170
2020/01/31 19:13:01.1	57.740	-0.010	0.080	0.180
2020/01/31 19:13:01.2	57.690	-0.030	0.110	0.200
2020/01/31 19:13:01.3	57.640	-0.060	0.140	0.210
2020/01/31 19:13:01.4	57.590	-0.080	0.170	0.230
2020/01/31 19:13:01.5	57.540	-0.110	0.190	0.240
2020/01/31 19:13:01.6	57.490	-0.130	0.210	0.260
2020/01/31 19:13:01.7	57.430	-0.150	0.230	0.270
2020/01/31 19:13:01.8	57.380	-0.170	0.250	0.280
2020/01/31 19:13:01.9	57.330	-0.180	0.260	0.290
2020/01/31 19:13:02.0	57.280	-0.200	0.270	0.300
2020/01/31 19:13:02.1	57.230	-0.210	0.270	0.310
2020/01/31 19:13:02.2	57.180	-0.220	0.280	0.320
2020/01/31 19:13:02.3	57.130	-0.230	0.270	0.330
2020/01/31 19:13:02.4	57.080	-0.240	0.270	0.340
2020/01/31 19:13:02.5	57.040	-0.240	0.250	0.340
2020/01/31 19:13:02.6	57.000	-0.240	0.240	0.350
2020/01/31 19:13:02.7	56.950	-0.240	0.220	0.350
2020/01/31 19:13:02.8	56.910	-0.240	0.190	0.350
2020/01/31 19:13:02.9	56.880	-0.240	0.160	0.350
2020/01/31 19:13:03.0	56.840	-0.230	0.130	0.340
2020/01/31 19:13:03.1	56.810	-0.220	0.090	0.340
2020/01/31 19:13:03.2	56.780	-0.210	0.040	0.330
2020/01/31 19:13:03.3	56.760	-0.190	-0.000	0.320
2020/01/31 19:13:03.4	56.730	-0.180	-0.050	0.310
2020/01/31 19:13:03.5	56.710	-0.160	-0.100	0.300
2020/01/31 19:13:03.6	56.690	-0.140	-0.160	0.280
2020/01/31 19:13:03.7	56.680	-0.120	-0.210	0.270
2020/01/31 19:13:03.8	56.660	-0.100	-0.270	0.240
2020/01/31 19:13:03.9	56.660	-0.080	-0.320	0.220
2020/01/31 19:13:04.0	56.650	-0.060	-0.380	0.200
2020/01/31 19:13:04.1	56.640	-0.030	-0.440	0.180
2020/01/31 19:13:04.2	56.640	-0.010	-0.490	0.160
2020/01/31 19:13:04.3	56.640	0.020	-0.550	0.140
2020/01/31 19:13:04.4	56.640	0.040	-0.600	0.110
2020/01/31 19:13:04.5	56.650	0.070	-0.650	0.090
2020/01/31 19:13:04.6	56.650	0.090	-0.700	0.070
2020/01/31 19:13:04.7	56.660	0.120	-0.740	0.050
2020/01/31 19:13:04.8	56.660	0.140	-0.780	0.020
2020/01/31 19:13:04.9	56.670	0.160	-0.820	0.000
2020/01/31 19:13:05.0	56.680	0.180	-0.850	-0.020
2020/01/31 19:13:05.1	56.690	0.210	-0.870	-0.030
2020/01/31 19:13:05.2	56.700	0.230	-0.890	-0.050
2020/01/31 19:13:05.3	56.700	0.240	-0.910	-0.070
2020/01/31 19:13:05.4	56.710	0.260	-0.920	-0.080
2020/01/31 19:13:05.5	56.720	0.270	-0.920	-0.090
2020/01/31 19:13:05.6	56.730	0.290	-0.920	-0.100
2020/01/31 19:13:05.7	56.730	0.300	-0.910	-0.110
2020/01/31 19:13:05.8	56.730	0.300	-0.900	-0.120
2020/01/31 19:13:05.9	56.740	0.310	-0.870	-0.120
2020/01/31 19:13:06.0	56.740	0.310	-0.850	-0.120
2020/01/31 19:13:06.1	56.740	0.310	-0.820	-0.120
2020/01/31 19:13:06.2	56.740	0.310	-0.780	-0.120
2020/01/31 19:13:06.3	56.730	0.310	-0.740	-0.110
2020/01/31 19:13:06.4	56.730	0.300	-0.700	-0.110
2020/01/31 19:13:06.5	56.720	0.290	-0.650	-0.100
2020/01/31 19:13:06.6	56.710	0.280	-0.590	-0.080
2020/01/31 19:13:06.7	56.700	0.270	-0.540	-0.070
2020/01/31 19:13:06.8	56.690	0.250	-0.470	-0.050
2020/01/31 19:13:06.9	56.670	0.230	-0.410	-0.030
2020/01/31 19:13:07.0	56.650	0.210	-0.340	-0.010
2020/01/31 19:13:07.1	56.620	0.190	-0.270	0.020
2020/01/31 19:13:07.2	56.600	0.170	-0.200	0.050
2020/01/31 19:13:07.3	56.570	0.150	-0.130	0.080
2020/01/31 19:13:07.4	56.540	0.120	-0.060	0.110
2020/01/31 19:13:07.5	56.500	0.100	0.010	0.140
2020/01/31 19:13:07.6	56.470	0.070	0.070	0.180
2020/01/31 19:13:07.7	56.430	0.040	0.140	0.220
2020/01/31 19:13:07.8	56.390	0.020	0.200	0.250
2020/01/31 19:13:07.9	56.350	-0.010	0.260	0.300
2020/01/31 19:13:08.0	56.310	-0.030	0.320	0.340
2020/01/31 19:13:08.1	56.260	-0.060	0.380	0.380
2020/01/31 19:13:08.2	56.210	-0.080	0.430	0.430
2020/01/31 19:13:08.3	56.170	-0.100	0.470	0.470
2020/01/31 19:13:08.4	56.120	-0.120	0.510	0.510
2020/01/31 19:13:08.5	56.070	-0.140	0.550	0.560
2020/01/31 19:13:08.6	56.020	-0.160	0.580	0.600
2020/01/31 19:13:08.7	55.970	-0.180	0.600	0.640
2020/01/31 19:13:08.8	55.920	-0.190	0.620	0.690
2020/01/31 19:13:08.9	55.870	-0.200	0.630	0.730
2020/01/31 19:13:09.0	55.830	-0.210	0.640	0.760
2020/01/31 19:13:09.1	55.780	-0.220	0.640	0.800
2020/01/31 19:13:09.2	55.730	-0.220	0.630	0.830
2020/01/31 19:13:09.3	55.680	-0.230	0.620	0.870
2020/01/31 19:13:09.4	55.640	-0.230	0.600	0.900
2020/01/31 19:13:09.5	55.600	-0.230	0.570	0.920
2020/01/31 19:13:09.6	55.550	-0.220	0.550	0.950
2020/01/31 19:13:09.7	55.510	-0.220	0.510	0.970
2020/01/31 19:13:09.8	55.470	-0.210	0.470	0.990
2020/01/31 19:13:09.9	55.430	-0.200	0.430	1.000
2020/01/31 19:13:10.0	55.390	-0.190	0.390	1.020
2020/01/31 19:13:10.1	55.350	-0.180	0.350	1.030
2020/01/31 19:13:10.2	55.310	-0.160	0.300	1.040
2020/01/31 19:13:10.3	55.280	-0.150	0.250	1.040
2020/01/31 19:13:10.4	55.240	-0.130	0.200	1.040
2020/01/31 19:13:10.5	55.200	-0.120	0.150	1.040
2020/01/31 19:13:10.6	55.170	-0.100	0.090	1.040
2020/01/31 19:13:10.7	55.140	-0.090	0.040	1.030
2020/01/31 19:13:10.8	55.100	-0.070	-0.010	1.020
2020/01/31 19:13:10.9	55.070	-0.050	-0.060	1.010
2020/01/31 19:13:11.0	55.040	-0.040	-0.110	0.990
2020/01/31 19:13:11.1	55.010	-0.020	-0.160	0.970
2020/01/31 19:13:11.2	54.980	-0.010	-0.210	0.950
2020/01/31 19:13:11.3	54.950	0.000	-0.260	0.920
2020/01/31 19:13:11.4	54.920	0.010	-0.300	0.890
2020/01/31 19:13:11.5	54.890	0.020	-0.340	0.860
2020/01/31 19:13:11.6	54.870	0.030	-0.380	0.820
2020/01/31 19:13:11.7	54.840	0.040	-0.420	0.780
2020/01/31 19:13:11.8	54.810	0.040	-0.460	0.740
2020/01/31 19:13:11.9	54.790	0.050	-0.490	0.700
2020/01/31 19:13:12.0	54.760	0.050	-0.520	0.650
2020/01/31 19:13:12.1	54.740	0.050	-0.550	0.600
2020/01/31 19:13:12.2	54.710	0.050	-0.580	0.550
2020/01/31 19:13:12.3	54.690	0.040	-0.600	0.490
2020/01/31 19:13:12.4	54.660	0.040	-0.620	0.440
2020/01/31 19:13:12.5	54.640	0.030	-0.640	0.380
2020/01/31 19:13:12.6	54.620	0.020	-0.660	0.320
2020/01/31 19:13:12.7	54.600	0.010	-0.670	0.260
2020/01/31 19:13:12.8	54.580	0.010	-0.680	0.190
2020/01/31 19:13:12.9	54.570	-0.000	-0.690	0.130
2020/01/31 19:13:13.0	54.550	-0.010	-0.700	0.060
2020/01/31 19:13:13.1	54.540	-0.020	-0.710	-0.000
2020/01/31 19:13:13.2	54.520	-0.030	-0.710	-0.070
2020/01/31 19:13:13.3	54.520	-0.040	-0.720	-0.140
2020/01/31 19:13:13.4	54.510	-0.050	-0.720	-0.200
2020/01/31 19:13:13.5	54.500	-0.060	-0.720	-0.270
2020/01/31 19:13:13.6	54.500	-0.070	-0.730	-0.340
2020/01/31 19:13:13.7	54.500	-0.080	-0.730	-0.400
2020/01/31 19:13:13.8	54.500	-0.080	-0.720	-0.470
2020/01/31 19:13:13.9	54.500	-0.090	-0.720	-0.540
2020/01/31 19:13:14.0	54.510	-0.090	-0.720	-0.600
2020/01/31 19:13:14.1	54.510	-0.090	-0.710	-0.660
2020/01/31 19:13:14.2	54.520	-0.090	-0.710	-0.720
2020/01/31 19:13:14.3	54.530	-0.090	-0.700	-0.780
2020/01/31 19:13:14.4	54.540	-0.080	-0.690	-0.830
2020/01/31 19:13:14.5	54.550	-0.080	-0.680	-0.890
2020/01/31 19:13:14.6	54.560	-0.070	-0.660	-0.930
2020/01/31 19:13:14.7	54.570	-0.060	-0.640	-0.980
2020/01/31 19:13:14.8	54.570	-0.050	-0.630	-1.020
2020/01/31 19:13:14.9	54.580	-0.040	-0.600	-1.060
2020/01/31 19:13:15.0	54.590	-0.030	-0.580	-1.090
2020/01/31 19:13:15.1	54.590	-0.020	-0.550	-1.110
2020/01/31 19:13:15.2	54.590	-0.000	-0.520	-1.130
2020/01/31 19:13:15.3	54.590	0.010	-0.480	-1.140
2020/01/31 19:13:15.4	54.580	0.030	-0.440	-1.150
2020/01/31 19:13:15.5	54.570	0.050	-0.400	-1.150
2020/01/31 19:13:15.6	54.560	0.070	-0.350	-1.140
2020/01/31 19:13:15.7	54.550	0.090	-0.300	-1.120
2020/01/31 19:13:15.8	54.520	0.110	-0.260	-1.100
2020/01/31 19:13:15.9	54.500	0.130	-0.200	-1.060
2020/01/31 19:13:16.0	54.470	0.140	-0.150	-1.020
2020/01/31 19:13:16.1	54.450	0.160	-0.090	-0.980
2020/01/31 19:13:16.2	54.410	0.180	-0.040	-0.930
2020/01/31 19:13:16.3	54.380	0.200	0.020	-0.870
2020/01/31 19:13:16.4	54.340	0.220	0.070	-0.800
2020/01/31 19:13:16.5	54.300	0.230	0.130	-0.730
2020/01/31 19:13:16.6	54.260	0.250	0.180	-0.660
2020/01/31 19:13:16.7	54.220	0.260	0.230	-0.580
2020/01/31 19:13:16.8	54.180	0.270	0.270	-0.490
2020/01/31 19:13:16.9	54.130	0.280	0.310	-0.410
2020/01/31 19:13:17.0	54.090	0.290	0.350	-0.320
2020/01/31 19:13:17.1	54.040	0.300	0.380	-0.230
2020/01/31 19:13:17.2	53.990	0.300	0.410	-0.130
2020/01/31 19:13:17.3	53.950	0.310	0.440	-0.040
2020/01/31 19:13:17.4	53.900	0.310	0.460	0.050
2020/01/31 19:13:17.5	53.860	0.300	0.470	0.150
2020/01/31 19:13:17.6	53.810	0.300	0.470	0.240
2020/01/31 19:13:17.7	53.770	0.290	0.480	0.330
2020/01/31 19:13:17.8	53.720	0.280	0.470	0.420
2020/01/31 19:13:17.9	53.680	0.270	0.460	0.510
2020/01/31 19:13:18.0	53.640	0.260	0.440	0.590
2020/01/31 19:13:18.1	53.590	0.240	0.420	0.670
2020/01/31 19:13:18.2	53.550	0.220	0.400	0.750
2020/01/31 19:13:18.3	53.520	0.200	0.370	0.820
2020/01/31 19:13:18.4	53.480	0.170	0.330	0.890
2020/01/31 19:13:18.5	53.440	0.150	0.290	0.960
2020/01/31 19:13:18.6	53.410	0.120	0.250	1.010
2020/01/31 19:13:18.7	53.370	0.090	0.200	1.070
2020/01/31 19:13:18.8	53.350	0.060	0.150	1.120
2020/01/31 19:13:18.9	53.310	0.020	0.100	1.160
2020/01/31 19:13:19.0	53.290	-0.010	0.050	1.200
2020/01/31 19:13:19.1	53.260	-0.050	-0.010	1.230
2020/01/31 19:13:19.2	53.230	-0.090	-0.060	1.250
2020/01/31 19:13:19.3	53.200	-0.120	-0.110	1.270
2020/01/31 19:13:19.4	53.180	-0.160	-0.170	1.290
2020/01/31 19:13:19.5	53.150	-0.200	-0.220	1.300
2020/01/31 19:13:19.6	53.130	-0.230	-0.270	1.310
2020/01/31 19:13:19.7	53.110	-0.270	-0.320	1.310
2020/01/31 19:13:19.8	53.080	-0.300	-0.370	1.300
2020/01/31 19:13:19.9	53.060	-0.340	-0.410	1.290
2020/01/31 19:13:20.0	53.040	-0.370	-0.450	1.270
2020/01/31 19:13:20.1	53.030	-0.400	-0.490	1.250
2020/01/31 19:13:20.2	53.010	-0.420	-0.530	1.230
2020/01/31 19:13:20.3	52.990	-0.450	-0.560	1.210
2020/01/31 19:13:20.4	52.970	-0.470	-0.580	1.180
2020/01/31 19:13:20.5	52.960	-0.480	-0.610	1.140
2020/01/31 19:13:20.6	52.940	-0.500	-0.620	1.110
2020/01/31 19:13:20.7	52.930	-0.510	-0.640	1.070
2020/01/31 19:13:20.8	52.920	-0.510	-0.650	1.030
2020/01/31 19:13:20.9	52.900	-0.510	-0.650	0.990
2020/01/31 19:13:21.0	52.890	-0.510	-0.660	0.940
2020/01/31 19:13:21.1	52.870	-0.500	-0.660	0.900
2020/01/31 19:13:21.2	52.860	-0.490	-0.650	0.850
2020/01/31 19:13:21.3	52.850	-0.480	-0.650	0.800
2020/01/31 19:13:21.4	52.840	-0.460	-0.640	0.750
2020/01/31 19:13:21.5	52.820	-0.430	-0.630	0.710
2020/01/31 19:13:21.6	52.810	-0.410	-0.610	0.660
2020/01/31 19:13:21.7	52.800	-0.370	-0.600	0.610
2020/01/31 19:13:21.8	52.780	-0.340	-0.580	0.550
2020/01/31 19:13:21.9	52.770	-0.300	-0.570	0.500
2020/01/31 19:13:22.0	52.760	-0.260	-0.550	0.460
2020/01/31 19:13:22.1	52.750	-0.210	-0.540	0.410
2020/01/31 19:13:22.2	52.740	-0.170	-0.520	0.360
2020/01/31 19:13:22.3	52.730	-0.120	-0.500	0.310
2020/01/31 19:13:22.4	52.730	-0.070	-0.490	0.270
2020/01/31 19:13:22.5	52.720	-0.010	-0.470	0.220
2020/01/31 19:13:22.6	52.710	0.040	-0.460	0.180
2020/01/31 19:13:22.7	52.710	0.090	-0.440	0.140
2020/01/31 19:13:22.8	52.690	0.150	-0.430	0.100
2020/01/31 19:13:22.9	52.690	0.200	-0.410	0.070
2020/01/31 19:13:23.0	52.680	0.260	-0.400	0.040
2020/01/31 19:13:23.1	52.670	0.310	-0.380	0.010
2020/01/31 19:13:23.2	52.660	0.360	-0.360	-0.020
2020/01/31 19:13:23.3	52.650	0.400	-0.350	-0.040
2020/01/31 19:13:23.4	52.640	0.450	-0.330	-0.050
2020/01/31 19:13:23.5	52.630	0.490	-0.310	-0.070
2020/01/31 19:13:23.6	52.620	0.530	-0.280	-0.080
2020/01/31 19:13:23.7	52.610	0.570	-0.260	-0.080
2020/01/31 19:13:23.8	52.590	0.600	-0.230	-0.090
2020/01/31 19:13:23.9	52.580	0.630	-0.210	-0.080
2020/01/31 19:13:24.0	52.560	0.650	-0.180	-0.080
2020/01/31 19:13:24.1	52.540	0.670	-0.150	-0.070
2020/01/31 19:13:24.2	52.520	0.690	-0.120	-0.050
2020/01/31 19:13:24.3	52.500	0.700	-0.090	-0.040
2020/01/31 19:13:24.4	52.480	0.710	-0.060	-0.010
2020/01/31 19:13:24.5	52.450	0.710	-0.020	0.010
2020/01/31 19:13:24.6	52.430	0.710	0.010	0.030
2020/01/31 19:13:24.7	52.400	0.700	0.040	0.060
2020/01/31 19:13:24.8	52.370	0.690	0.070	0.090
2020/01/31 19:13:24.9	52.340	0.670	0.100	0.120
2020/01/31 19:13:25.0	52.310	0.650	0.130	0.160
2020/01/31 19:13:25.1	52.280	0.630	0.160	0.190
2020/01/31 19:13:25.2	52.250	0.600	0.190	0.220
2020/01/31 19:13:25.3	52.210	0.570	0.210	0.250
2020/01/31 19:13:25.4	52.180	0.530	0.230	0.280
2020/01/31 19:13:25.5	52.150	0.490	0.250	0.310
2020/01/31 19:13:25.6	52.120	0.450	0.260	0.340
2020/01/31 19:13:25.7	52.080	0.410	0.270	0.370
2020/01/31 19:13:25.8	52.050	0.360	0.280	0.390
2020/01/31 19:13:25.9	52.020	0.310	0.280	0.410
2020/01/31 19:13:26.0	51.990	0.260	0.270	0.430
2020/01/31 19:13:26.1	51.960	0.210	0.270	0.450
2020/01/31 19:13:26.2	51.930	0.160	0.250	0.460
2020/01/31 19:13:26.3	51.910	0.110	0.240	0.470
2020/01/31 19:13:26.4	51.880	0.060	0.220	0.470
2020/01/31 19:13:26.5	51.860	0.010	0.190	0.480
2020/01/31 19:13:26.6	51.840	-0.040	0.160	0.480
2020/01/31 19:13:26.7	51.820	-0.090	0.130	0.470
2020/01/31 19:13:26.8	51.790	-0.140	0.090	0.470
2020/01/31 19:13:26.9	51.770	-0.180	0.060	0.460
2020/01/31 19:13:27.0	51.760	-0.230	0.020	0.450
2020/01/31 19:13:27.1	51.740	-0.270	-0.030	0.440
2020/01/31 19:13:27.2	51.730	-0.310	-0.070	0.420
2020/01/31 19:13:27.3	51.720	-0.340	-0.110	0.410
2020/01/31 19:13:27.4	51.700	-0.380	-0.160	0.390
2020/01/31 19:13:27.5	51.690	-0.410	-0.200	0.370
2020/01/31 19:13:27.6	51.680	-0.440	-0.240	0.360
2020/01/31 19:13:27.7	51.670	-0.460	-0.280	0.340
2020/01/31 19:13:27.8	51.650	-0.480	-0.320	0.320
2020/01/31 19:13:27.9	51.640	-0.500	-0.350	0.300
2020/01/31 19:13:28.0	51.620	-0.520	-0.380	0.280
2020/01/31 19:13:28.1	51.600	-0.530	-0.400	0.260
2020/01/31 19:13:28.2	51.580	-0.540	-0.430	0.250
2020/01/31 19:13:28.3	51.560	-0.540	-0.440	0.240
2020/01/31 19:13:28.4	51.540	-0.540	-0.460	0.220
2020/01/31 19:13:28.5	51.510	-0.540	-0.460	0.210
2020/01/31 19:13:28.6	51.480	-0.540	-0.470	0.200
2020/01/31 19:13:28.7	51.460	-0.530	-0.460	0.190
2020/01/31 19:13:28.8	51.420	-0.520	-0.450	0.180
2020/01/31 19:13:28.9	51.390	-0.510	-0.440	0.180
2020/01/31 19:13:29.0	51.360	-0.490	-0.430	0.170
2020/01/31 19:13:29.1	51.330	-0.470	-0.410	0.170
2020/01/31 19:13:29.2	51.290	-0.450	-0.380	0.170
2020/01/31 19:13:29.3	51.260	-0.430	-0.360	0.170
2020/01/31 19:13:29.4	51.220	-0.410	-0.330	0.170
2020/01/31 19:13:29.5	51.180	-0.380	-0.300	0.170
2020/01/31 19:13:29.6	51.150	-0.360	-0.270	0.170
2020/01/31 19:13:29.7	51.110	-0.330	-0.230	0.180
2020/01/31 19:13:29.8	51.070	-0.300	-0.200	0.180
2020/01/31 19:13:29.9	51.040	-0.280	-0.170	0.180
2020/01/31 19:13:30.0	51.000	-0.250	-0.140	0.180
2020/01/31 19:13:30.1	50.970	-0.220	-0.110	0.180
2020/01/31 19:13:30.2	50.940	-0.190	-0.080	0.180
2020/01/31 19:13:30.3	50.910	-0.170	-0.060	0.180
2020/01/31 19:13:30.4	50.890	-0.140	-0.040	0.180
2020/01/31 19:13:30.5	50.860	-0.110	-0.020	0.170
2020/01/31 19:13:30.6	50.840	-0.090	-0.000	0.170
2020/01/31 19:13:30.7	50.820	-0.070	0.010	0.160
2020/01/31 19:13:30.8	50.790	-0.040	0.020	0.160
2020/01/31 19:13:30.9	50.780	-0.020	0.020	0.150
2020/01/31 19:13:31.0	50.760	-0.000	0.020	0.150
2020/01/31 19:13:31.1	50.750	0.010	0.020	0.140
2020/01/31 19:13:31.2	50.730	0.030	0.010	0.130
2020/01/31 19:13:31.3	50.720	0.050	0.010	0.120
2020/01/31 19:13:31.4	50.710	0.060	-0.010	0.120
2020/01/31 19:13:31.5	50.700	0.070	-0.020	0.110
2020/01/31 19:13:31.6	50.690	0.080	-0.040	0.100
2020/01/31 19:13:31.7	50.680	0.090	-0.060	0.100
2020/01/31 19:13:31.8	50.660	0.090	-0.080	0.090
2020/01/31 19:13:31.9	50.660	0.100	-0.100	0.090
2020/01/31 19:13:32.0	50.650	0.100	-0.130	0.080
2020/01/31 19:13:32.1	50.640	0.100	-0.160	0.080
2020/01/31 19:13:32.2	50.630	0.110	-0.190	0.080
2020/01/31 19:13:32.3	50.630	0.110	-0.220	0.070
2020/01/31 19:13:32.4	50.620	0.100	-0.250	0.070
2020/01/31 19:13:32.5	50.610	0.100	-0.290	0.070
2020/01/31 19:13:32.6	50.610	0.100	-0.320	0.070
2020/01/31 19:13:32.7	50.600	0.100	-0.350	0.060
2020/01/31 19:13:32.8	50.590	0.100	-0.380	0.060
2020/01/31 19:13:32.9	50.580	0.090	-0.420	0.060
2020/01/31 19:13:33.0	50.570	0.090	-0.450	0.060
2020/01/31 19:13:33.1	50.560	0.090	-0.480	0.060
2020/01/31 19:13:33.2	50.550	0.090	-0.500	0.060
2020/01/31 19:13:33.3	50.530	0.090	-0.530	0.060
2020/01/31 19:13:33.4	50.520	0.090	-0.550	0.060
2020/01/31 19:13:33.5	50.500	0.090	-0.570	0.060
2020/01/31 19:13:33.6	50.490	0.090	-0.590	0.070
2020/01/31 19:13:33.7	50.470	0.090	-0.600	0.070
2020/01/31 19:13:33.8	50.440	0.100	-0.610	0.080
2020/01/31 19:13:33.9	50.420	0.100	-0.610	0.090
2020/01/31 19:13:34.0	50.400	0.110	-0.620	0.100
2020/01/31 19:13:34.1	50.370	0.120	-0.610	0.110
2020/01/31 19:13:34.2	50.340	0.120	-0.610	0.120
2020/01/31 19:13:34.3	50.310	0.130	-0.600	0.140
2020/01/31 19:13:34.4	50.280	0.150	-0.580	0.150
2020/01/31 19:13:34.5	50.250	0.160	-0.560	0.170
2020/01/31 19:13:34.6	50.210	0.170	-0.540	0.190
2020/01/31 19:13:34.7	50.180	0.180	-0.520	0.210
2020/01/31 19:13:34.8	50.140	0.200	-0.500	0.220
2020/01/31 19:13:34.9	50.100	0.210	-0.470	0.240
2020/01/31 19:13:35.0	50.060	0.230	-0.450	0.260
2020/01/31 19:13:35.1	50.030	0.240	-0.420	0.280
2020/01/31 19:13:35.2	49.990	0.260	-0.400	0.300
2020/01/31 19:13:35.3	49.950	0.270	-0.370	0.310
2020/01/31 19:13:35.4	49.920	0.280	-0.350	0.330
2020/01/31 19:13:35.5	49.880	0.300	-0.320	0.340
2020/01/31 19:13:35.6	49.850	0.310	-0.300	0.350
2020/01/31 19:13:35.7	49.810	0.320	-0.280	0.370
2020/01/31 19:13:35.8	49.770	0.330	-0.260	0.370
2020/01/31 19:13:35.9	49.740	0.340	-0.240	0.380
2020/01/31 19:13:36.0	49.710	0.340	-0.220	0.390
2020/01/31 19:13:36.1	49.690	0.350	-0.210	0.400
2020/01/31 19:13:36.2	49.660	0.350	-0.190	0.400
2020/01/31 19:13:36.3	49.630	0.350	-0.180	0.400
2020/01/31 19:13:36.4	49.610	0.350	-0.170	0.400
2020/01/31 19:13:36.5	49.590	0.340	-0.170	0.400
2020/01/31 19:13:36.6	49.570	0.330	-0.160	0.400
2020/01/31 19:13:36.7	49.550	0.320	-0.160	0.400
2020/01/31 19:13:36.8	49.530	0.310	-0.150	0.390
2020/01/31 19:13:36.9	49.510	0.300	-0.140	0.390
2020/01/31 19:13:37.0	49.490	0.280	-0.140	0.380
2020/01/31 19:13:37.1	49.480	0.260	-0.130	0.370
2020/01/31 19:13:37.2	49.460	0.230	-0.130	0.360
2020/01/31 19:13:37.3	49.440	0.210	-0.120	0.350
2020/01/31 19:13:37.4	49.430	0.180	-0.110	0.340
2020/01/31 19:13:37.5	49.410	0.150	-0.100	0.330
2020/01/31 19:13:37.6	49.390	0.120	-0.080	0.320
2020/01/31 19:13:37.7	49.370	0.090	-0.070	0.320
2020/01/31 19:13:37.8	49.360	0.050	-0.050	0.310
2020/01/31 19:13:37.9	49.340	0.010	-0.030	0.300
2020/01/31 19:13:38.0	49.320	-0.020	-0.000	0.290
2020/01/31 19:13:38.1	49.300	-0.060	0.030	0.280
2020/01/31 19:13:38.2	49.270	-0.100	0.060	0.280
2020/01/31 19:13:38.3	49.250	-0.140	0.100	0.270
2020/01/31 19:13:38.4	49.220	-0.180	0.130	0.270
2020/01/31 19:13:38.5	49.190	-0.220	0.170	0.260
2020/01/31 19:13:38.6	49.160	-0.260	0.220	0.260
2020/01/31 19:13:38.7	49.140	-0.300	0.260	0.260
2020/01/31 19:13:38.8	49.110	-0.330	0.300	0.260
2020/01/31 19:13:38.9	49.080	-0.370	0.350	0.260
2020/01/31 19:13:39.0	49.050	-0.400	0.390	0.260
2020/01/31 19:13:39.1	49.010	-0.430	0.440	0.260
2020/01/31 19:13:39.2	48.980	-0.460	0.480	0.260
2020/01/31 19:13:39.3	48.950	-0.480	0.520	0.260
2020/01/31 19:13:39.4	48.920	-0.510	0.550	0.260
2020/01/31 19:13:39.5	48.880	-0.520	0.590	0.270
2020/01/31 19:13:39.6	48.850	-0.540	0.610	0.270
2020/01/31 19:13:39.7	48.820	-0.550	0.640	0.270
2020/01/31 19:13:39.8	48.790	-0.550	0.650	0.270
2020/01/31 19:13:39.9	48.760	-0.550	0.660	0.270
2020/01/31 19:13:40.0	48.730	-0.550	0.660	0.270
2020/01/31 19:13:40.1	48.710	-0.540	0.660	0.270
2020/01/31 19:13:40.2	48.690	-0.530	0.640	0.260
2020/01/31 19:13:40.3	48.660	-0.510	0.620	0.250
2020/01/31 19:13:40.4	48.650	-0.490	0.590	0.240
2020/01/31 19:13:40.5	48.630	-0.460	0.550	0.230
2020/01/31 19:13:40.6	48.620	-0.430	0.500	0.220
2020/01/31 19:13:40.7	48.610	-0.400	0.440	0.200
2020/01/31 19:13:40.8	48.600	-0.360	0.380	0.180
2020/01/31 19:13:40.9	48.600	-0.320	0.300	0.150
2020/01/31 19:13:41.0	48.590	-0.280	0.220	0.130
2020/01/31 19:13:41.1	48.590	-0.230	0.130	0.100
2020/01/31 19:13:41.2	48.600	-0.180	0.030	0.070
2020/01/31 19:13:41.3	48.600	-0.130	-0.070	0.030
2020/01/31 19:13:41.4	48.600	-0.080	-0.170	-0.000
2020/01/31 19:13:41.5	48.610	-0.030	-0.280	-0.040
2020/01/31 19:13:41.6	48.620	0.020	-0.390	-0.080
2020/01/31 19:13:41.7	48.630	0.070	-0.500	-0.120
2020/01/31 19:13:41.8	48.640	0.110	-0.610	-0.160
2020/01/31 19:13:41.9	48.650	0.160	-0.720	-0.210
2020/01/31 19:13:42.0	48.660	0.200	-0.830	-0.250
2020/01/31 19:13:42.1	48.670	0.250	-0.930	-0.290
2020/01/31 19:13:42.2	48.680	0.280	-1.030	-0.330
2020/01/31 19:13:42.3	48.690	0.320	-1.120	-0.370
2020/01/31 19:13:42.4	48.690	0.350	-1.200	-0.400
2020/01/31 19:13:42.5	48.690	0.370	-1.270	-0.440
2020/01/31 19:13:42.6	48.690	0.390	-1.340	-0.470
2020/01/31 19:13:42.7	48.690	0.410	-1.390	-0.500
2020/01/31 19:13:42.8	48.700	0.420	-1.430	-0.520
2020/01/31 19:13:42.9	48.690	0.420	-1.460	-0.540
2020/01/31 19:13:43.0	48.680	0.420	-1.470	-0.560
2020/01/31 19:13:43.1	48.670	0.420	-1.470	-0.570
2020/01/31 19:13:43.2	48.650	0.410	-1.460	-0.580
2020/01/31 19:13:43.3	48.630	0.390	-1.440	-0.580
2020/01/31 19:13:43.4	48.600	0.370	-1.400	-0.580
2020/01/31 19:13:43.5	48.570	0.350	-1.350	-0.570
2020/01/31 19:13:43.6	48.540	0.320	-1.290	-0.560
2020/01/31 19:13:43.7	48.500	0.290	-1.220	-0.550
2020/01/31 19:13:43.8	48.460	0.250	-1.130	-0.530
2020/01/31 19:13:43.9	48.410	0.210	-1.040	-0.510
2020/01/31 19:13:44.0	48.360	0.170	-0.940	-0.480
2020/01/31 19:13:44.1	48.310	0.130	-0.830	-0.450
2020/01/31 19:13:44.2	48.250	0.080	-0.720	-0.420
2020/01/31 19:13:44.3	48.190	0.040	-0.600	-0.380
2020/01/31 19:13:44.4	48.130	-0.010	-0.480	-0.340
2020/01/31 19:13:44.5	48.070	-0.060	-0.350	-0.300
2020/01/31 19:13:44.6	48.000	-0.100	-0.230	-0.260
2020/01/31 19:13:44.7	47.930	-0.140	-0.110	-0.210
2020/01/31 19:13:44.8	47.860	-0.190	0.010	-0.170
2020/01/31 19:13:44.9	47.800	-0.220	0.120	-0.130
2020/01/31 19:13:45.0	47.730	-0.260	0.230	-0.090
2020/01/31 19:13:45.1	47.660	-0.290	0.340	-0.040
2020/01/31 19:13:45.2	47.600	-0.320	0.430	-0.000
2020/01/31 19:13:45.3	47.530	-0.350	0.510	0.040
2020/01/31 19:13:45.4	47.470	-0.360	0.590	0.070
2020/01/31 19:13:45.5	47.410	-0.380	0.650	0.110
2020/01/31 19:13:45.6	47.350	-0.390	0.710	0.140
2020/01/31 19:13:45.7	47.300	-0.390	0.750	0.170
2020/01/31 19:13:45.8	47.250	-0.390	0.780	0.200
2020/01/31 19:13:45.9	47.200	-0.390	0.790	0.220
2020/01/31 19:13:46.0	47.150	-0.380	0.800	0.240
2020/01/31 19:13:46.1	47.110	-0.360	0.790	0.260
2020/01/31 19:13:46.2	47.070	-0.350	0.770	0.280
2020/01/31 19:13:46.3	47.030	-0.320	0.740	0.290
2020/01/31 19:13:46.4	47.000	-0.300	0.700	0.300
2020/01/31 19:13:46.5	46.970	-0.270	0.650	0.300
2020/01/31 19:13:46.6	46.940	-0.230	0.590	0.300
2020/01/31 19:13:46.7	46.920	-0.200	0.530	0.300
2020/01/31 19:13:46.8	46.890	-0.160	0.460	0.300
2020/01/31 19:13:46.9	46.870	-0.120	0.380	0.290
2020/01/31 19:13:47.0	46.860	-0.090	0.300	0.280
2020/01/31 19:13:47.1	46.850	-0.050	0.210	0.270
2020/01/31 19:13:47.2	46.840	-0.010	0.130	0.250
2020/01/31 19:13:47.3	46.830	0.030	0.040	0.240
2020/01/31 19:13:47.4	46.820	0.070	-0.050	0.220
2020/01/31 19:13:47.5	46.820	0.110	-0.130	0.200
2020/01/31 19:13:47.6	46.820	0.140	-0.210	0.180
2020/01/31 19:13:47.7	46.820	0.170	-0.280	0.160
2020/01/31 19:13:47.8	46.830	0.200	-0.360	0.150
2020/01/31 19:13:47.9	46.830	0.230	-0.420	0.130
2020/01/31 19:13:48.0	46.830	0.250	-0.470	0.110
2020/01/31 19:13:48.1	46.820	0.270	-0.520	0.090
2020/01/31 19:13:48.2	46.820	0.290	-0.560	0.080
2020/01/31 19:13:48.3	46.820	0.300	-0.590	0.060
2020/01/31 19:13:48.4	46.820	0.310	-0.610	0.050
2020/01/31 19:13:48.5	46.810	0.310	-0.630	0.040
2020/01/31 19:13:48.6	46.810	0.320	-0.630	0.030
2020/01/31 19:13:48.7	46.800	0.310	-0.630	0.030
2020/01/31 19:13:48.8	46.790	0.310	-0.620	0.030
2020/01/31 19:13:48.9	46.780	0.300	-0.600	0.020
2020/01/31 19:13:49.0	46.760	0.280	-0.570	0.030
2020/01/31 19:13:49.1	46.750	0.270	-0.540	0.030
2020/01/31 19:13:49.2	46.730	0.250	-0.500	0.040
2020/01/31 19:13:49.3	46.720	0.230	-0.460	0.040
2020/01/31 19:13:49.4	46.700	0.200	-0.410	0.050
2020/01/31 19:13:49.5	46.680	0.170	-0.360	0.060
2020/01/31 19:13:49.6	46.650	0.140	-0.300	0.080
2020/01/31 19:13:49.7	46.630	0.110	-0.250	0.090
2020/01/31 19:13:49.8	46.600	0.080	-0.190	0.100
2020/01/31 19:13:49.9	46.580	0.040	-0.140	0.120
2020/01/31 19:13:50.0	46.550	0.010	-0.090	0.130
2020/01/31 19:13:50.1	46.520	-0.030	-0.040	0.150
2020/01/31 19:13:50.2	46.490	-0.060	0.010	0.160
2020/01/31 19:13:50.3	46.460	-0.090	0.050	0.170
2020/01/31 19:13:50.4	46.430	-0.120	0.090	0.190
2020/01/31 19:13:50.5	46.400	-0.150	0.120	0.200
2020/01/31 19:13:50.6	46.370	-0.180	0.150	0.210
2020/01/31 19:13:50.7	46.340	-0.210	0.170	0.210
2020/01/31 19:13:50.8	46.310	-0.230	0.180	0.220
2020/01/31 19:13:50.9	46.280	-0.250	0.190	0.220
2020/01/31 19:13:51.0	46.250	-0.260	0.180	0.230
2020/01/31 19:13:51.1	46.230	-0.270	0.170	0.230
2020/01/31 19:13:51.2	46.210	-0.280	0.150	0.220
2020/01/31 19:13:51.3	46.190	-0.280	0.130	0.220
2020/01/31 19:13:51.4	46.170	-0.280	0.100	0.210
2020/01/31 19:13:51.5	46.160	-0.270	0.060	0.210
2020/01/31 19:13:51.6	46.150	-0.260	0.010	0.200
2020/01/31 19:13:51.7	46.140	-0.250	-0.040	0.180
2020/01/31 19:13:51.8	46.130	-0.230	-0.100	0.170
2020/01/31 19:13:51.9	46.130	-0.200	-0.160	0.160
2020/01/31 19:13:52.0	46.120	-0.180	-0.220	0.140
2020/01/31 19:13:52.1	46.120	-0.150	-0.290	0.130
2020/01/31 19:13:52.2	46.120	-0.110	-0.360	0.120
2020/01/31 19:13:52.3	46.110	-0.080	-0.420	0.110
2020/01/31 19:13:52.4	46.110	-0.040	-0.480	0.100
2020/01/31 19:13:52.5	46.110	0.000	-0.550	0.090
2020/01/31 19:13:52.6	46.110	0.040	-0.610	0.080
2020/01/31 19:13:52.7	46.100	0.090	-0.660	0.080
2020/01/31 19:13:52.8	46.090	0.130	-0.710	0.070
2020/01/31 19:13:52.9	46.090	0.170	-0.760	0.080
2020/01/31 19:13:53.0	46.080	0.210	-0.800	0.080
2020/01/31 19:13:53.1	46.060	0.250	-0.830	0.090
2020/01/31 19:13:53.2	46.050	0.280	-0.850	0.100
2020/01/31 19:13:53.3	46.030	0.320	-0.870	0.120
2020/01/31 19:13:53.4	46.010	0.350	-0.870	0.130
2020/01/31 19:13:53.5	45.990	0.380	-0.870	0.150
2020/01/31 19:13:53.6	45.960	0.400	-0.870	0.180
2020/01/31 19:13:53.7	45.930	0.420	-0.850	0.200
2020/01/31 19:13:53.8	45.910	0.440	-0.820	0.240
2020/01/31 19:13:53.9	45.870	0.450	-0.790	0.270
2020/01/31 19:13:54.0	45.830	0.460	-0.750	0.300
2020/01/31 19:13:54.1	45.790	0.460	-0.710	0.340
2020/01/31 19:13:54.2	45.750	0.460	-0.650	0.370
2020/01/31 19:13:54.3	45.700	0.450	-0.600	0.410
2020/01/31 19:13:54.4	45.650	0.440	-0.530	0.440
2020/01/31 19:13:54.5	45.600	0.430	-0.470	0.480
2020/01/31 19:13:54.6	45.550	0.410	-0.390	0.520
2020/01/31 19:13:54.7	45.490	0.380	-0.320	0.560
2020/01/31 19:13:54.8	45.430	0.350	-0.250	0.590
2020/01/31 19:13:54.9	45.370	0.320	-0.170	0.630
2020/01/31 19:13:55.0	45.320	0.290	-0.100	0.660
2020/01/31 19:13:55.1	45.250	0.250	-0.020	0.690
2020/01/31 19:13:55.2	45.190	0.210	0.050	0.730
2020/01/31 19:13:55.3	45.130	0.170	0.130	0.750
2020/01/31 19:13:55.4	45.070	0.130	0.200	0.780
2020/01/31 19:13:55.5	45.010	0.090	0.260	0.810
2020/01/31 19:13:55.6	44.950	0.050	0.320	0.830
2020/01/31 19:13:55.7	44.890	0.000	0.380	0.840
2020/01/31 19:13:55.8	44.820	-0.040	0.430	0.860
2020/01/31 19:13:55.9	44.770	-0.080	0.480	0.870
2020/01/31 19:13:56.0	44.710	-0.120	0.520	0.870
2020/01/31 19:13:56.1	44.660	-0.160	0.560	0.870
2020/01/31 19:13:56.2	44.600	-0.190	0.590	0.870
2020/01/31 19:13:56.3	44.560	-0.220	0.610	0.860
2020/01/31 19:13:56.4	44.510	-0.250	0.620	0.850
2020/01/31 19:13:56.5	44.460	-0.280	0.630	0.830
2020/01/31 19:13:56.6	44.420	-0.300	0.630	0.810
2020/01/31 19:13:56.7	44.380	-0.320	0.630	0.780
2020/01/31 19:13:56.8	44.350	-0.340	0.620	0.740
2020/01/31 19:13:56.9	44.310	-0.350	0.600	0.700
2020/01/31 19:13:57.0	44.280	-0.360	0.580	0.660
2020/01/31 19:13:57.1	44.250	-0.370	0.550	0.620
2020/01/31 19:13:57.2	44.230	-0.370	0.510	0.570
2020/01/31 19:13:57.3	44.210	-0.360	0.470	0.520
2020/01/31 19:13:57.4	44.190	-0.360	0.430	0.470
2020/01/31 19:13:57.5	44.170	-0.350	0.380	0.420
2020/01/31 19:13:57.6	44.150	-0.330	0.330	0.360
2020/01/31 19:13:57.7	44.140	-0.320	0.270	0.300
2020/01/31 19:13:57.8	44.130	-0.300	0.210	0.250
2020/01/31 19:13:57.9	44.120	-0.280	0.150	0.190
2020/01/31 19:13:58.0	44.120	-0.260	0.090	0.130
2020/01/31 19:13:58.1	44.110	-0.240	0.030	0.070
2020/01/31 19:13:58.2	44.110	-0.220	-0.030	0.010
2020/01/31 19:13:58.3	44.110	-0.190	-0.090	-0.050
2020/01/31 19:13:58.4	44.110	-0.170	-0.160	-0.100
2020/01/31 19:13:58.5	44.110	-0.150	-0.220	-0.160
2020/01/31 19:13:58.6	44.120	-0.120	-0.280	-0.220
2020/01/31 19:13:58.7	44.120	-0.100	-0.340	-0.280
2020/01/31 19:13:58.8	44.130	-0.080	-0.400	-0.330
2020/01/31 19:13:58.9	44.140	-0.060	-0.450	-0.390
2020/01/31 19:13:59.0	44.140	-0.040	-0.500	-0.440
2020/01/31 19:13:59.1	44.150	-0.030	-0.550	-0.490
2020/01/31 19:13:59.2	44.160	-0.020	-0.600	-0.540
2020/01/31 19:13:59.3	44.170	-0.010	-0.640	-0.590
2020/01/31 19:13:59.4	44.170	0.000	-0.680	-0.640
2020/01/31 19:13:59.5	44.180	0.000	-0.710	-0.680
2020/01/31 19:13:59.6	44.190	0.010	-0.740	-0.730
2020/01/31 19:13:59.7	44.200	0.010	-0.770	-0.770
2020/01/31 19:13:59.8	44.210	0.000	-0.790	-0.810
2020/01/31 19:13:59.9	44.220	-0.000	-0.810	-0.850
2020/01/31 19:14:00.0	44.230	-0.010	-0.820	-0.890
2020/01/31 19:14:00.1	44.230	-0.020	-0.830	-0.920
2020/01/31 19:14:00.2	44.240	-0.040	-0.830	-0.950
2020/01/31 19:14:00.3	44.240	-0.050	-0.830	-0.980
2020/01/31 19:14:00.4	44.240	-0.070	-0.820	-1.010
2020/01/31 19:14:00.5	44.240	-0.090	-0.810	-1.040
2020/01/31 19:14:00.6	44.240	-0.110	-0.790	-1.060
2020/01/31 19:14:00.7	44.240	-0.130	-0.770	-1.080
2020/01/31 19:14:00.8	44.250	-0.150	-0.750	-1.090
2020/01/31 19:14:00.9	44.240	-0.170	-0.720	-1.110
2020/01/31 19:14:01.0	44.230	-0.190	-0.680	-1.120
2020/01/31 19:14:01.1	44.220	-0.220	-0.640	-1.120
2020/01/31 19:14:01.2	44.210	-0.240	-0.600	-1.120
2020/01/31 19:14:01.3	44.190	-0.260	-0.560	-1.120
2020/01/31 19:14:01.4	44.170	-0.280	-0.510	-1.110
2020/01/31 19:14:01.5	44.150	-0.290	-0.460	-1.100
2020/01/31 19:14:01.6	44.130	-0.310	-0.400	-1.090
2020/01/31 19:14:01.7	44.100	-0.320	-0.350	-1.070
2020/01/31 19:14:01.8	44.080	-0.330	-0.290	-1.040
2020/01/31 19:14:01.9	44.050	-0.340	-0.240	-1.020
2020/01/31 19:14:02.0	44.010	-0.340	-0.180	-0.980
2020/01/31 19:14:02.1	43.980	-0.350	-0.130	-0.940
2020/01/31 19:14:02.2	43.940	-0.350	-0.070	-0.900
2020/01/31 19:14:02.3	43.900	-0.340	-0.020	-0.860
2020/01/31 19:14:02.4	43.860	-0.330	0.030	-0.810
2020/01/31 19:14:02.5	43.810	-0.320	0.080	-0.750
2020/01/31 19:14:02.6	43.760	-0.310	0.120	-0.690
2020/01/31 19:14:02.7	43.720	-0.290	0.160	-0.630
2020/01/31 19:14:02.8	43.660	-0.270	0.190	-0.570
2020/01/31 19:14:02.9	43.610	-0.250	0.220	-0.500
2020/01/31 19:14:03.0	43.560	-0.230	0.250	-0.430
2020/01/31 19:14:03.1	43.510	-0.200	0.270	-0.350
2020/01/31 19:14:03.2	43.450	-0.170	0.280	-0.280
2020/01/31 19:14:03.3	43.400	-0.140	0.290	-0.200
2020/01/31 19:14:03.4	43.340	-0.110	0.290	-0.120
2020/01/31 19:14:03.5	43.290	-0.070	0.290	-0.040
2020/01/31 19:14:03.6	43.240	-0.040	0.280	0.040
2020/01/31 19:14:03.7	43.180	0.000	0.260	0.130
2020/01/31 19:14:03.8	43.130	0.040	0.240	0.210
2020/01/31 19:14:03.9	43.080	0.080	0.220	0.290
2020/01/31 19:14:04.0	43.030	0.120	0.190	0.370
2020/01/31 19:14:04.1	42.980	0.160	0.150	0.450
2020/01/31 19:14:04.2	42.940	0.200	0.110	0.530
2020/01/31 19:14:04.3	42.890	0.240	0.070	0.600
2020/01/31 19:14:04.4	42.850	0.280	0.020	0.670
2020/01/31 19:14:04.5	42.810	0.320	-0.030	0.740
2020/01/31 19:14:04.6	42.780	0.350	-0.080	0.810
2020/01/31 19:14:04.7	42.740	0.390	-0.130	0.870
2020/01/31 19:14:04.8	42.710	0.430	-0.190	0.920
2020/01/31 19:14:04.9	42.680	0.460	-0.240	0.980
2020/01/31 19:14:05.0	42.650	0.490	-0.300	1.030
2020/01/31 19:14:05.1	42.620	0.520	-0.350	1.070
2020/01/31 19:14:05.2	42.600	0.550	-0.400	1.110
2020/01/31 19:14:05.3	42.580	0.580	-0.450	1.150
2020/01/31 19:14:05.4	42.550	0.600	-0.500	1.180
2020/01/31 19:14:05.5	42.530	0.630	-0.540	1.210
2020/01/31 19:14:05.6	42.510	0.650	-0.580	1.240
2020/01/31 19:14:05.7	42.490	0.670	-0.610	1.260
2020/01/31 19:14:05.8	42.490	0.680	-0.640	1.280
2020/01/31 19:14:05.9	42.470	0.690	-0.660	1.300
2020/01/31 19:14:06.0	42.450	0.700	-0.680	1.310
2020/01/31 19:14:06.1	42.430	0.710	-0.690	1.330
2020/01/31 19:14:06.2	42.400	0.710	-0.690	1.340
2020/01/31 19:14:06.3	42.380	0.710	-0.690	1.350
2020/01/31 19:14:06.4	42.360	0.710	-0.680	1.360
2020/01/31 19:14:06.5	42.330	0.700	-0.660	1.370
2020/01/31 19:14:06.6	42.310	0.690	-0.640	1.370
2020/01/31 19:14:06.7	42.280	0.680	-0.610	1.370
2020/01/31 19:14:06.8	42.260	0.660	-0.580	1.370
2020/01/31 19:14:06.9	42.230	0.630	-0.550	1.370
2020/01/31 19:14:07.0	42.200	0.610	-0.510	1.360
2020/01/31 19:14:07.1	42.170	0.580	-0.470	1.350
2020/01/31 19:14:07.2	42.140	0.540	-0.430	1.340
2020/01/31 19:14:07.3	42.110	0.510	-0.390	1.320
2020/01/31 19:14:07.4	42.080	0.460	-0.340	1.300
2020/01/31 19:14:07.5	42.050	0.420	-0.300	1.270
2020/01/31 19:14:07.6	42.030	0.370	-0.260	1.240
2020/01/31 19:14:07.7	42.000	0.320	-0.220	1.210
2020/01/31 19:14:07.8	41.980	0.270	-0.180	1.160
2020/01/31 19:14:07.9	41.960	0.220	-0.150	1.110
2020/01/31 19:14:08.0	41.940	0.160	-0.120	1.060
2020/01/31 19:14:08.1	41.920	0.110	-0.090	1.010
2020/01/31 19:14:08.2	41.900	0.050	-0.070	0.950
2020/01/31 19:14:08.3	41.890	-0.010	-0.050	0.880
2020/01/31 19:14:08.4	41.880	-0.070	-0.030	0.810
2020/01/31 19:14:08.5	41.870	-0.130	-0.020	0.730
2020/01/31 19:14:08.6	41.870	-0.180	-0.020	0.660
2020/01/31 19:14:08.7	41.870	-0.240	-0.010	0.570
2020/01/31 19:14:08.8	41.870	-0.290	-0.010	0.480
2020/01/31 19:14:08.9	41.870	-0.350	-0.020	0.390
2020/01/31 19:14:09.0	41.880	-0.400	-0.030	0.300
2020/01/31 19:14:09.1	41.890	-0.440	-0.040	0.200
2020/01/31 19:14:09.2	41.900	-0.490	-0.050	0.110
2020/01/31 19:14:09.3	41.910	-0.530	-0.060	0.010
2020/01/31 19:14:09.4	41.920	-0.570	-0.070	-0.080
2020/01/31 19:14:09.5	41.940	-0.600	-0.090	-0.180
2020/01/31 19:14:09.6	41.960	-0.630	-0.100	-0.270
2020/01/31 19:14:09.7	41.970	-0.660	-0.120	-0.370
2020/01/31 19:14:09.8	42.000	-0.680	-0.130	-0.460
2020/01/31 19:14:09.9	42.020	-0.690	-0.140	-0.550
2020/01/31 19:14:10.0	42.030	-0.700	-0.140	-0.630
2020/01/31 19:14:10.1	42.050	-0.710	-0.150	-0.710
2020/01/31 19:14:10.2	42.070	-0.710	-0.150	-0.780
2020/01/31 19:14:10.3	42.080	-0.710	-0.150	-0.850
2020/01/31 19:14:10.4	42.090	-0.700	-0.150	-0.920
2020/01/31 19:14:10.5	42.110	-0.690	-0.140	-0.970
2020/01/31 19:14:10.6	42.120	-0.670	-0.130	-1.020
2020/01/31 19:14:10.7	42.130	-0.640	-0.120	-1.060
2020/01/31 19:14:10.8	42.130	-0.620	-0.100	-1.100
2020/01/31 19:14:10.9	42.130	-0.580	-0.090	-1.130
2020/01/31 19:14:11.0	42.140	-0.550	-0.060	-1.150
2020/01/31 19:14:11.1	42.140	-0.510	-0.040	-1.160
2020/01/31 19:14:11.2	42.130	-0.460	-0.020	-1.160
2020/01/31 19:14:11.3	42.130	-0.420	0.010	-1.150
2020/01/31 19:14:11.4	42.120	-0.370	0.040	-1.140
2020/01/31 19:14:11.5	42.110	-0.320	0.070	-1.110
2020/01/31 19:14:11.6	42.090	-0.270	0.100	-1.080
2020/01/31 19:14:11.7	42.080	-0.220	0.130	-1.040
2020/01/31 19:14:11.8	42.060	-0.160	0.160	-1.000
2020/01/31 19:14:11.9	42.030	-0.110	0.190	-0.950
2020/01/31 19:14:12.0	42.010	-0.060	0.220	-0.890
2020/01/31 19:14:12.1	41.980	-0.010	0.250	-0.820
2020/01/31 19:14:12.2	41.950	0.040	0.270	-0.750
2020/01/31 19:14:12.3	41.920	0.090	0.300	-0.680
2020/01/31 19:14:12.4	41.880	0.140	0.320	-0.600
2020/01/31 19:14:12.5	41.850	0.180	0.340	-0.510
2020/01/31 19:14:12.6	41.810	0.220	0.350	-0.420
2020/01/31 19:14:12.7	41.770	0.250	0.370	-0.330
2020/01/31 19:14:12.8	41.730	0.290	0.370	-0.230
2020/01/31 19:14:12.9	41.690	0.310	0.380	-0.140
2020/01/31 19:14:13.0	41.640	0.340	0.380	-0.040
2020/01/31 19:14:13.1	41.600	0.360	0.370	0.050
2020/01/31 19:14:13.2	41.560	0.370	0.370	0.150
2020/01/31 19:14:13.3	41.510	0.380	0.360	0.240
2020/01/31 19:14:13.4	41.470	0.390	0.340	0.340
2020/01/31 19:14:13.5	41.430	0.390	0.330	0.430
2020/01/31 19:14:13.6	41.390	0.380	0.300	0.510
2020/01/31 19:14:13.7	41.350	0.370	0.280	0.600
2020/01/31 19:14:13.8	41.310	0.360	0.240	0.680
2020/01/31 19:14:13.9	41.280	0.340	0.210	0.760
2020/01/31 19:14:14.0	41.240	0.320	0.170	0.830
2020/01/31 19:14:14.1	41.210	0.300	0.130	0.900
2020/01/31 19:14:14.2	41.180	0.270	0.080	0.960
2020/01/31 19:14:14.3	41.150	0.240	0.030	1.020
2020/01/31 19:14:14.4	41.120	0.200	-0.020	1.070
2020/01/31 19:14:14.5	41.100	0.160	-0.070	1.110
2020/01/31 19:14:14.6	41.080	0.130	-0.130	1.150
2020/01/31 19:14:14.7	41.060	0.090	-0.180	1.190
2020/01/31 19:14:14.8	41.060	0.050	-0.240	1.210
2020/01/31 19:14:14.9	41.040	0.000	-0.300	1.240
2020/01/31 19:14:15.0	41.030	-0.040	-0.350	1.260
2020/01/31 19:14:15.1	41.020	-0.080	-0.410	1.270
2020/01/31 19:14:15.2	41.010	-0.120	-0.470	1.280
2020/01/31 19:14:15.3	41.000	-0.160	-0.530	1.290
2020/01/31 19:14:15.4	41.000	-0.200	-0.590	1.290
2020/01/31 19:14:15.5	40.990	-0.240	-0.640	1.290
2020/01/31 19:14:15.6	40.980	-0.270	-0.690	1.290
2020/01/31 19:14:15.7	40.980	-0.300	-0.740	1.280
2020/01/31 19:14:15.8	40.970	-0.330	-0.790	1.260
2020/01/31 19:14:15.9	40.960	-0.360	-0.840	1.250
2020/01/31 19:14:16.0	40.950	-0.380	-0.880	1.230
2020/01/31 19:14:16.1	40.950	-0.400	-0.920	1.210
2020/01/31 19:14:16.2	40.940	-0.420	-0.960	1.190
2020/01/31 19:14:16.3	40.930	-0.440	-0.990	1.160
2020/01/31 19:14:16.4	40.920	-0.450	-1.020	1.130
2020/01/31 19:14:16.5	40.910	-0.450	-1.040	1.100
2020/01/31 19:14:16.6	40.900	-0.460	-1.060	1.060
2020/01/31 19:14:16.7	40.880	-0.460	-1.070	1.030
2020/01/31 19:14:16.8	40.860	-0.450	-1.080	0.980
2020/01/31 19:14:16.9	40.840	-0.440	-1.090	0.940
2020/01/31 19:14:17.0	40.820	-0.430	-1.090	0.900
2020/01/31 19:14:17.1	40.800	-0.420	-1.080	0.860
2020/01/31 19:14:17.2	40.780	-0.400	-1.080	0.820
2020/01/31 19:14:17.3	40.750	-0.380	-1.060	0.770
2020/01/31 19:14:17.4	40.730	-0.350	-1.040	0.730
2020/01/31 19:14:17.5	40.700	-0.330	-1.020	0.680
2020/01/31 19:14:17.6	40.670	-0.300	-0.990	0.640
2020/01/31 19:14:17.7	40.640	-0.270	-0.960	0.600
2020/01/31 19:14:17.8	40.610	-0.230	-0.920	0.550
2020/01/31 19:14:17.9	40.580	-0.200	-0.880	0.510
2020/01/31 19:14:18.0	40.550	-0.160	-0.830	0.470
2020/01/31 19:14:18.1	40.520	-0.120	-0.780	0.430
2020/01/31 19:14:18.2	40.480	-0.080	-0.730	0.390
2020/01/31 19:14:18.3	40.450	-0.040	-0.670	0.360
2020/01/31 19:14:18.4	40.410	0.000	-0.610	0.330
2020/01/31 19:14:18.5	40.380	0.050	-0.550	0.300
2020/01/31 19:14:18.6	40.350	0.090	-0.490	0.270
2020/01/31 19:14:18.7	40.310	0.140	-0.420	0.240
2020/01/31 19:14:18.8	40.270	0.180	-0.360	0.210
2020/01/31 19:14:18.9	40.240	0.220	-0.290	0.190
2020/01/31 19:14:19.0	40.210	0.270	-0.230	0.170
2020/01/31 19:14:19.1	40.180	0.310	-0.160	0.160
2020/01/31 19:14:19.2	40.150	0.350	-0.100	0.140
2020/01/31 19:14:19.3	40.130	0.390	-0.040	0.130
2020/01/31 19:14:19.4	40.100	0.430	0.020	0.120
2020/01/31 19:14:19.5	40.080	0.470	0.080	0.120
2020/01/31 19:14:19.6	40.050	0.500	0.130	0.110
2020/01/31 19:14:19.7	40.030	0.540	0.180	0.110
2020/01/31 19:14:19.8	40.020	0.570	0.220	0.110
2020/01/31 19:14:19.9	40.000	0.590	0.260	0.110
2020/01/31 19:14:20.0	39.980	0.620	0.300	0.110
2020/01/31 19:14:20.1	39.960	0.640	0.330	0.120
2020/01/31 19:14:20.2	39.950	0.660	0.350	0.120
2020/01/31 19:14:20.3	39.940	0.680	0.370	0.130
2020/01/31 19:14:20.4	39.930	0.690	0.390	0.140
2020/01/31 19:14:20.5	39.920	0.700	0.390	0.140
2020/01/31 19:14:20.6	39.910	0.700	0.390	0.150
2020/01/31 19:14:20.7	39.900	0.700	0.390	0.160
2020/01/31 19:14:20.8	39.900	0.700	0.380	0.160
2020/01/31 19:14:20.9	39.900	0.690	0.370	0.160
2020/01/31 19:14:21.0	39.900	0.680	0.350	0.160
2020/01/31 19:14:21.1	39.900	0.660	0.320	0.160
2020/01/31 19:14:21.2	39.900	0.640	0.290	0.160
2020/01/31 19:14:21.3	39.900	0.620	0.260	0.150
2020/01/31 19:14:21.4	39.910	0.590	0.220	0.140
2020/01/31 19:14:21.5	39.910	0.550	0.180	0.130
2020/01/31 19:14:21.6	39.920	0.520	0.140	0.110
2020/01/31 19:14:21.7	39.930	0.480	0.100	0.090
2020/01/31 19:14:21.8	39.950	0.430	0.050	0.070
2020/01/31 19:14:21.9	39.950	0.380	0.000	0.050
2020/01/31 19:14:22.0	39.960	0.330	-0.040	0.020
2020/01/31 19:14:22.1	39.970	0.280	-0.080	-0.010
2020/01/31 19:14:22.2	39.980	0.220	-0.120	-0.040
2020/01/31 19:14:22.3	39.990	0.160	-0.160	-0.080
2020/01/31 19:14:22.4	40.000	0.100	-0.200	-0.110
2020/01/31 19:14:22.5	40.010	0.040	-0.230	-0.150
2020/01/31 19:14:22.6	40.010	-0.020	-0.260	-0.190
2020/01/31 19:14:22.7	40.020	-0.090	-0.280	-0.230
2020/01/31 19:14:22.8	40.020	-0.150	-0.300	-0.270
2020/01/31 19:14:22.9	40.020	-0.220	-0.310	-0.310
2020/01/31 19:14:23.0	40.020	-0.280	-0.320	-0.350
2020/01/31 19:14:23.1	40.010	-0.340	-0.320	-0.380
2020/01/31 19:14:23.2	40.000	-0.400	-0.320	-0.410
2020/01/31 19:14:23.3	39.990	-0.460	-0.310	-0.440
2020/01/31 19:14:23.4	39.980	-0.510	-0.290	-0.470
2020/01/31 19:14:23.5	39.960	-0.560	-0.270	-0.500
2020/01/31 19:14:23.6	39.940	-0.610	-0.250	-0.520
2020/01/31 19:14:23.7	39.910	-0.660	-0.210	-0.530
2020/01/31 19:14:23.8	39.880	-0.700	-0.180	-0.540
2020/01/31 19:14:23.9	39.850	-0.730	-0.140	-0.550
2020/01/31 19:14:24.0	39.810	-0.760	-0.100	-0.560
2020/01/31 19:14:24.1	39.770	-0.780	-0.050	-0.550
2020/01/31 19:14:24.2	39.730	-0.800	-0.000	-0.550
2020/01/31 19:14:24.3	39.690	-0.820	0.040	-0.540
2020/01/31 19:14:24.4	39.640	-0.820	0.090	-0.530
2020/01/31 19:14:24.5	39.600	-0.820	0.140	-0.510
2020/01/31 19:14:24.6	39.550	-0.820	0.180	-0.490
2020/01/31 19:14:24.7	39.500	-0.800	0.220	-0.460
2020/01/31 19:14:24.8	39.440	-0.780	0.260	-0.440
2020/01/31 19:14:24.9	39.390	-0.760	0.290	-0.410
2020/01/31 19:14:25.0	39.340	-0.720	0.320	-0.380
2020/01/31 19:14:25.1	39.290	-0.690	0.330	-0.340
2020/01/31 19:14:25.2	39.240	-0.640	0.350	-0.310
2020/01/31 19:14:25.3	39.200	-0.590	0.350	-0.270
2020/01/31 19:14:25.4	39.150	-0.530	0.340	-0.230
2020/01/31 19:14:25.5	39.100	-0.470	0.330	-0.190
2020/01/31 19:14:25.6	39.060	-0.400	0.310	-0.150
2020/01/31 19:14:25.7	39.020	-0.330	0.280	-0.110
2020/01/31 19:14:25.8	38.980	-0.260	0.240	-0.070
2020/01/31 19:14:25.9	38.940	-0.180	0.190	-0.030
2020/01/31 19:14:26.0	38.910	-0.100	0.140	0.010
2020/01/31 19:14:26.1	38.880	-0.020	0.080	0.050
2020/01/31 19:14:26.2	38.850	0.060	0.010	0.090
2020/01/31 19:14:26.3	38.820	0.140	-0.060	0.120
2020/01/31 19:14:26.4	38.790	0.220	-0.130	0.160
2020/01/31 19:14:26.5	38.770	0.300	-0.210	0.190
2020/01/31 19:14:26.6	38.750	0.380	-0.300	0.220
2020/01/31 19:14:26.7	38.730	0.450	-0.380	0.250
2020/01/31 19:14:26.8	38.710	0.520	-0.470	0.280
2020/01/31 19:14:26.9	38.700	0.590	-0.550	0.310
2020/01/31 19:14:27.0	38.680	0.650	-0.630	0.340
2020/01/31 19:14:27.1	38.670	0.710	-0.710	0.360
2020/01/31 19:14:27.2	38.660	0.760	-0.790	0.390
2020/01/31 19:14:27.3	38.650	0.800	-0.860	0.420
2020/01/31 19:14:27.4	38.650	0.840	-0.920	0.440
2020/01/31 19:14:27.5	38.640	0.870	-0.980	0.470
2020/01/31 19:14:27.6	38.630	0.900	-1.020	0.490
2020/01/31 19:14:27.7	38.630	0.910	-1.060	0.520
2020/01/31 19:14:27.8	38.620	0.920	-1.090	0.550
2020/01/31 19:14:27.9	38.620	0.930	-1.110	0.570
2020/01/31 19:14:28.0	38.610	0.920	-1.120	0.600
2020/01/31 19:14:28.1	38.600	0.910	-1.120	0.620
2020/01/31 19:14:28.2	38.590	0.890	-1.110	0.650
2020/01/31 19:14:28.3	38.590	0.860	-1.100	0.670
2020/01/31 19:14:28.4	38.570	0.830	-1.070	0.700
2020/01/31 19:14:28.5	38.560	0.790	-1.030	0.720
2020/01/31 19:14:28.6	38.550	0.740	-0.980	0.740
2020/01/31 19:14:28.7	38.540	0.690	-0.920	0.760
2020/01/31 19:14:28.8	38.520	0.630	-0.860	0.780
2020/01/31 19:14:28.9	38.500	0.570	-0.790	0.790
2020/01/31 19:14:29.0	38.480	0.510	-0.720	0.800
2020/01/31 19:14:29.1	38.460	0.440	-0.640	0.810
2020/01/31 19:14:29.2	38.440	0.370	-0.550	0.820
2020/01/31 19:14:29.3	38.420	0.290	-0.470	0.820
2020/01/31 19:14:29.4	38.390	0.220	-0.380	0.810
2020/01/31 19:14:29.5	38.370	0.140	-0.290	0.800
2020/01/31 19:14:29.6	38.340	0.070	-0.200	0.790
2020/01/31 19:14:29.7	38.320	-0.010	-0.120	0.770
2020/01/31 19:14:29.8	38.280	-0.080	-0.030	0.750
2020/01/31 19:14:29.9	38.250	-0.150	0.040	0.720
2020/01/31 19:14:30.0	38.230	-0.220	0.120	0.690
2020/01/31 19:14:30.1	38.200	-0.290	0.190	0.650
2020/01/31 19:14:30.2	38.180	-0.350	0.250	0.610
2020/01/31 19:14:30.3	38.160	-0.410	0.310	0.570
2020/01/31 19:14:30.4	38.140	-0.460	0.360	0.520
2020/01/31 19:14:30.5	38.120	-0.510	0.400	0.470
2020/01/31 19:14:30.6	38.100	-0.560	0.430	0.420
2020/01/31 19:14:30.7	38.080	-0.600	0.460	0.360
2020/01/31 19:14:30.8	38.060	-0.630	0.490	0.300
2020/01/31 19:14:30.9	38.040	-0.660	0.500	0.240
2020/01/31 19:14:31.0	38.030	-0.680	0.510	0.180
2020/01/31 19:14:31.1	38.020	-0.690	0.510	0.120
2020/01/31 19:14:31.2	38.010	-0.710	0.510	0.060
2020/01/31 19:14:31.3	38.000	-0.710	0.500	-0.000
2020/01/31 19:14:31.4	37.990	-0.710	0.480	-0.060
2020/01/31 19:14:31.5	37.980	-0.710	0.460	-0.120
2020/01/31 19:14:31.6	37.980	-0.700	0.440	-0.170
2020/01/31 19:14:31.7	37.970	-0.690	0.420	-0.220
2020/01/31 19:14:31.8	37.960	-0.670	0.390	-0.270
2020/01/31 19:14:31.9	37.950	-0.650	0.360	-0.310
2020/01/31 19:14:32.0	37.940	-0.630	0.340	-0.350
2020/01/31 19:14:32.1	37.930	-0.600	0.310	-0.380
2020/01/31 19:14:32.2	37.920	-0.570	0.280	-0.410
2020/01/31 19:14:32.3	37.900	-0.540	0.260	-0.430
2020/01/31 19:14:32.4	37.890	-0.510	0.240	-0.450
2020/01/31 19:14:32.5	37.870	-0.480	0.220	-0.460
2020/01/31 19:14:32.6	37.850	-0.440	0.200	-0.460
2020/01/31 19:14:32.7	37.820	-0.410	0.180	-0.460
2020/01/31 19:14:32.8	37.800	-0.380	0.160	-0.460
2020/01/31 19:14:32.9	37.770	-0.340	0.150	-0.450
2020/01/31 19:14:33.0	37.740	-0.310	0.140	-0.430
2020/01/31 19:14:33.1	37.710	-0.280	0.120	-0.410
2020/01/31 19:14:33.2	37.670	-0.260	0.110	-0.390
2020/01/31 19:14:33.3	37.640	-0.230	0.100	-0.360
2020/01/31 19:14:33.4	37.600	-0.200	0.090	-0.340
2020/01/31 19:14:33.5	37.560	-0.180	0.070	-0.310
2020/01/31 19:14:33.6	37.520	-0.160	0.060	-0.280
2020/01/31 19:14:33.7	37.480	-0.140	0.050	-0.250
2020/01/31 19:14:33.8	37.430	-0.130	0.030	-0.210
2020/01/31 19:14:33.9	37.390	-0.110	0.020	-0.190
2020/01/31 19:14:34.0	37.350	-0.100	-0.000	-0.160
2020/01/31 19:14:34.1	37.310	-0.090	-0.020	-0.140
2020/01/31 19:14:34.2	37.270	-0.090	-0.040	-0.120
2020/01/31 19:14:34.3	37.230	-0.080	-0.070	-0.100
2020/01/31 19:14:34.4	37.180	-0.080	-0.090	-0.090
2020/01/31 19:14:34.5	37.150	-0.080	-0.120	-0.080
2020/01/31 19:14:34.6	37.110	-0.070	-0.150	-0.070
2020/01/31 19:14:34.7	37.070	-0.070	-0.180	-0.060
2020/01/31 19:14:34.8	37.030	-0.070	-0.220	-0.070
2020/01/31 19:14:34.9	37.000	-0.070	-0.250	-0.070
2020/01/31 19:14:35.0	36.960	-0.070	-0.290	-0.080
2020/01/31 19:14:35.1	36.930	-0.070	-0.330	-0.090
2020/01/31 19:14:35.2	36.900	-0.070	-0.360	-0.100
2020/01/31 19:14:35.3	36.870	-0.070	-0.400	-0.110
2020/01/31 19:14:35.4	36.840	-0.070	-0.440	-0.130
2020/01/31 19:14:35.5	36.810	-0.060	-0.490	-0.140
2020/01/31 19:14:35.6	36.790	-0.060	-0.530	-0.160
2020/01/31 19:14:35.7	36.760	-0.050	-0.570	-0.180
2020/01/31 19:14:35.8	36.720	-0.040	-0.610	-0.200
2020/01/31 19:14:35.9	36.700	-0.030	-0.650	-0.220
2020/01/31 19:14:36.0	36.680	-0.010	-0.690	-0.230
2020/01/31 19:14:36.1	36.660	0.010	-0.730	-0.250
2020/01/31 19:14:36.2	36.640	0.030	-0.760	-0.270
2020/01/31 19:14:36.3	36.620	0.050	-0.800	-0.280
2020/01/31 19:14:36.4	36.600	0.070	-0.830	-0.290
2020/01/31 19:14:36.5	36.580	0.100	-0.860	-0.310
2020/01/31 19:14:36.6	36.570	0.130	-0.890	-0.310
2020/01/31 19:14:36.7	36.550	0.160	-0.920	-0.320
2020/01/31 19:14:36.8	36.540	0.190	-0.940	-0.330
2020/01/31 19:14:36.9	36.530	0.230	-0.960	-0.330
2020/01/31 19:14:37.0	36.510	0.260	-0.980	-0.330
2020/01/31 19:14:37.1	36.500	0.300	-0.990	-0.330
2020/01/31 19:14:37.2	36.490	0.330	-1.000	-0.330
2020/01/31 19:14:37.3	36.490	0.370	-1.000	-0.320
2020/01/31 19:14:37.4	36.480	0.410	-1.000	-0.310
2020/01/31 19:14:37.5	36.470	0.440	-1.000	-0.300
2020/01/31 19:14:37.6	36.460	0.480	-0.990	-0.290
2020/01/31 19:14:37.7	36.460	0.510	-0.980	-0.270
2020/01/31 19:14:37.8	36.450	0.540	-0.960	-0.250
2020/01/31 19:14:37.9	36.450	0.570	-0.940	-0.230
2020/01/31 19:14:38.0	36.440	0.600	-0.920	-0.210
2020/01/31 19:14:38.1	36.440	0.630	-0.890	-0.190
2020/01/31 19:14:38.2	36.430	0.650	-0.860	-0.170
2020/01/31 19:14:38.3	36.430	0.670	-0.820	-0.140
2020/01/31 19:14:38.4	36.420	0.680	-0.770	-0.120
2020/01/31 19:14:38.5	36.410	0.700	-0.730	-0.090
2020/01/31 19:14:38.6	36.410	0.710	-0.680	-0.070
2020/01/31 19:14:38.7	36.400	0.710	-0.630	-0.040
2020/01/31 19:14:38.8	36.390	0.710	-0.570	-0.020
2020/01/31 19:14:38.9	36.390	0.710	-0.510	0.010
2020/01/31 19:14:39.0	36.380	0.700	-0.450	0.040
2020/01/31 19:14:39.1	36.370	0.690	-0.390	0.070
2020/01/31 19:14:39.2	36.360	0.670	-0.320	0.090
2020/01/31 19:14:39.3	36.350	0.650	-0.260	0.120
2020/01/31 19:14:39.4	36.340	0.630	-0.190	0.150
2020/01/31 19:14:39.5	36.330	0.600	-0.120	0.170
2020/01/31 19:14:39.6	36.320	0.570	-0.060	0.200
2020/01/31 19:14:39.7	36.310	0.530	0.010	0.220
2020/01/31 19:14:39.8	36.290	0.490	0.070	0.250
2020/01/31 19:14:39.9	36.280	0.450	0.140	0.270
2020/01/31 19:14:40.0	36.270	0.400	0.200	0.290
2020/01/31 19:14:40.1	36.260	0.350	0.260	0.310
2020/01/31 19:14:40.2	36.240	0.300	0.320	0.330
2020/01/31 19:14:40.3	36.230	0.250	0.370	0.350
2020/01/31 19:14:40.4	36.220	0.190	0.430	0.370
2020/01/31 19:14:40.5	36.200	0.130	0.470	0.390
2020/01/31 19:14:40.6	36.190	0.080	0.520	0.400
2020/01/31 19:14:40.7	36.170	0.020	0.560	0.420
2020/01/31 19:14:40.8	36.160	-0.040	0.600	0.430
2020/01/31 19:14:40.9	36.140	-0.100	0.630	0.450
2020/01/31 19:14:41.0	36.120	-0.150	0.650	0.470
2020/01/31 19:14:41.1	36.100	-0.210	0.680	0.480
2020/01/31 19:14:41.2	36.090	-0.260	0.690	0.500
2020/01/31 19:14:41.3	36.070	-0.310	0.710	0.520
2020/01/31 19:14:41.4	36.050	-0.360	0.710	0.530
2020/01/31 19:14:41.5	36.020	-0.410	0.710	0.550
2020/01/31 19:14:41.6	36.000	-0.460	0.710	0.570
2020/01/31 19:14:41.7	35.980	-0.500	0.700	0.580
2020/01/31 19:14:41.8	35.950	-0.540	0.690	0.600
2020/01/31 19:14:41.9	35.930	-0.570	0.670	0.610
2020/01/31 19:14:42.0	35.900	-0.600	0.650	0.620
2020/01/31 19:14:42.1	35.880	-0.630	0.630	0.640
2020/01/31 19:14:42.2	35.850	-0.650	0.600	0.650
2020/01/31 19:14:42.3	35.820	-0.670	0.570	0.660
2020/01/31 19:14:42.4	35.800	-0.690	0.530	0.670
2020/01/31 19:14:42.5	35.770	-0.700	0.500	0.680
2020/01/31 19:14:42.6	35.740	-0.710	0.460	0.680
2020/01/31 19:14:42.7	35.710	-0.710	0.410	0.690
2020/01/31 19:14:42.8	35.690	-0.710	0.370	0.690
2020/01/31 19:14:42.9	35.660	-0.700	0.330	0.690
2020/01/31 19:14:43.0	35.630	-0.690	0.280	0.690
2020/01/31 19:14:43.1	35.600	-0.680	0.240	0.690
2020/01/31 19:14:43.2	35.570	-0.660	0.190	0.690
2020/01/31 19:14:43.3	35.540	-0.640	0.140	0.690
2020/01/31 19:14:43.4	35.510	-0.610	0.090	0.680
2020/01/31 19:14:43.5	35.480	-0.580	0.040	0.680
2020/01/31 19:14:43.6	35.450	-0.550	-0.010	0.670
2020/01/31 19:14:43.7	35.410	-0.510	-0.060	0.660
2020/01/31 19:14:43.8	35.370	-0.470	-0.110	0.650
2020/01/31 19:14:43.9	35.340	-0.430	-0.150	0.640
2020/01/31 19:14:44.0	35.310	-0.390	-0.200	0.630
2020/01/31 19:14:44.1	35.280	-0.340	-0.250	0.620
2020/01/31 19:14:44.2	35.250	-0.300	-0.290	0.610
2020/01/31 19:14:44.3	35.220	-0.250	-0.340	0.590
2020/01/31 19:14:44.4	35.190	-0.200	-0.380	0.580
2020/01/31 19:14:44.5	35.150	-0.150	-0.420	0.570
2020/01/31 19:14:44.6	35.120	-0.100	-0.460	0.550
2020/01/31 19:14:44.7	35.090	-0.050	-0.500	0.540
2020/01/31 19:14:44.8	35.070	0.000	-0.540	0.520
2020/01/31 19:14:44.9	35.040	0.050	-0.580	0.500
2020/01/31 19:14:45.0	35.010	0.100	-0.610	0.480
2020/01/31 19:14:45.1	34.980	0.150	-0.640	0.470
2020/01/31 19:14:45.2	34.960	0.190	-0.680	0.450
2020/01/31 19:14:45.3	34.930	0.240	-0.700	0.430
2020/01/31 19:14:45.4	34.910	0.280	-0.730	0.410
2020/01/31 19:14:45.5	34.880	0.320	-0.760	0.400
2020/01/31 19:14:45.6	34.860	0.350	-0.780	0.380
2020/01/31 19:14:45.7	34.840	0.390	-0.800	0.360
2020/01/31 19:14:45.8	34.810	0.410	-0.820	0.340
2020/01/31 19:14:45.9	34.790	0.440	-0.830	0.320
2020/01/31 19:14:46.0	34.760	0.460	-0.850	0.300
2020/01/31 19:14:46.1	34.740	0.480	-0.860	0.280
2020/01/31 19:14:46.2	34.720	0.490	-0.860	0.260
2020/01/31 19:14:46.3	34.700	0.500	-0.870	0.240
2020/01/31 19:14:46.4	34.680	0.500	-0.870	0.220
2020/01/31 19:14:46.5	34.660	0.500	-0.870	0.200
2020/01/31 19:14:46.6	34.640	0.490	-0.860	0.180
2020/01/31 19:14:46.7	34.620	0.480	-0.850	0.160
2020/01/31 19:14:46.8	34.600	0.470	-0.830	0.130
2020/01/31 19:14:46.9	34.580	0.450	-0.820	0.110
2020/01/31 19:14:47.0	34.560	0.420	-0.800	0.080
2020/01/31 19:14:47.1	34.540	0.400	-0.770	0.060
2020/01/31 19:14:47.2	34.530	0.370	-0.740	0.030
2020/01/31 19:14:47.3	34.510	0.330	-0.710	0.010
2020/01/31 19:14:47.4	34.490	0.300	-0.680	-0.020
2020/01/31 19:14:47.5	34.470	0.260	-0.640	-0.050
2020/01/31 19:14:47.6	34.460	0.220	-0.600	-0.080
2020/01/31 19:14:47.7	34.440	0.180	-0.560	-0.110
2020/01/31 19:14:47.8	34.430	0.140	-0.510	-0.150
2020/01/31 19:14:47.9	34.420	0.100	-0.460	-0.180
2020/01/31 19:14:48.0	34.400	0.060	-0.420	-0.210
2020/01/31 19:14:48.1	34.390	0.020	-0.370	-0.250
2020/01/31 19:14:48.2	34.380	-0.020	-0.320	-0.280
2020/01/31 19:14:48.3	34.370	-0.060	-0.270	-0.320
2020/01/31 19:14:48.4	34.370	-0.100	-0.220	-0.350
2020/01/31 19:14:48.5	34.360	-0.130	-0.170	-0.390
2020/01/31 19:14:48.6	34.360	-0.160	-0.130	-0.430
2020/01/31 19:14:48.7	34.350	-0.190	-0.080	-0.460
2020/01/31 19:14:48.8	34.350	-0.220	-0.040	-0.500
2020/01/31 19:14:48.9	34.350	-0.240	-0.000	-0.530
2020/01/31 19:14:49.0	34.350	-0.260	0.030	-0.570
2020/01/31 19:14:49.1	34.350	-0.270	0.070	-0.600
2020/01/31 19:14:49.2	34.350	-0.280	0.100	-0.640
2020/01/31 19:14:49.3	34.350	-0.280	0.130	-0.670
2020/01/31 19:14:49.4	34.350	-0.280	0.150	-0.700
2020/01/31 19:14:49.5	34.350	-0.280	0.170	-0.720
2020/01/31 19:14:49.6	34.350	-0.270	0.180	-0.750
2020/01/31 19:14:49.7	34.360	-0.260	0.200	-0.770
2020/01/31 19:14:49.8	34.360	-0.250	0.200	-0.790
2020/01/31 19:14:49.9	34.360	-0.230	0.210	-0.800
2020/01/31 19:14:50.0	34.360	-0.200	0.210	-0.820
2020/01/31 19:14:50.1	34.360	-0.180	0.210	-0.820
2020/01/31 19:14:50.2	34.350	-0.150	0.200	-0.830
2020/01/31 19:14:50.3	34.350	-0.120	0.200	-0.820
2020/01/31 19:14:50.4	34.350	-0.090	0.190	-0.820
2020/01/31 19:14:50.5	34.340	-0.050	0.170	-0.810
2020/01/31 19:14:50.6	34.330	-0.020	0.160	-0.790
2020/01/31 19:14:50.7	34.320	0.020	0.150	-0.770
2020/01/31 19:14:50.8	34.300	0.050	0.130	-0.740
2020/01/31 19:14:50.9	34.280	0.090	0.120	-0.700
2020/01/31 19:14:51.0	34.260	0.120	0.110	-0.670
2020/01/31 19:14:51.1	34.240	0.150	0.090	-0.620
2020/01/31 19:14:51.2	34.210	0.190	0.080	-0.570
2020/01/31 19:14:51.3	34.190	0.220	0.070	-0.520
2020/01/31 19:14:51.4	34.160	0.240	0.060	-0.460
2020/01/31 19:14:51.5	34.120	0.270	0.050	-0.390
2020/01/31 19:14:51.6	34.090	0.290	0.050	-0.330
2020/01/31 19:14:51.7	34.050	0.310	0.050	-0.260
2020/01/31 19:14:51.8	34.000	0.320	0.040	-0.180
2020/01/31 19:14:51.9	33.960	0.330	0.040	-0.100
2020/01/31 19:14:52.0	33.910	0.340	0.040	-0.030
2020/01/31 19:14:52.1	33.870	0.340	0.040	0.050
2020/01/31 19:14:52.2	33.830	0.340	0.050	0.130
2020/01/31 19:14:52.3	33.780	0.330	0.050	0.210
2020/01/31 19:14:52.4	33.740	0.320	0.060	0.280
2020/01/31 19:14:52.5	33.690	0.300	0.060	0.360
2020/01/31 19:14:52.6	33.640	0.290	0.060	0.430
2020/01/31 19:14:52.7	33.600	0.260	0.070	0.500
2020/01/31 19:14:52.8	33.550	0.240	0.070	0.570
2020/01/31 19:14:52.9	33.510	0.210	0.070	0.640
2020/01/31 19:14:53.0	33.460	0.180	0.070	0.700
2020/01/31 19:14:53.1	33.420	0.140	0.070	0.750
2020/01/31 19:14:53.2	33.380	0.110	0.070	0.800
2020/01/31 19:14:53.3	33.350	0.070	0.070	0.850
2020/01/31 19:14:53.4	33.310	0.030	0.060	0.890
2020/01/31 19:14:53.5	33.270	-0.010	0.050	0.920
2020/01/31 19:14:53.6	33.240	-0.060	0.040	0.950
2020/01/31 19:14:53.7	33.210	-0.100	0.030	0.970
2020/01/31 19:14:53.8	33.170	-0.140	0.010	0.980
2020/01/31 19:14:53.9	33.150	-0.180	-0.000	0.990
2020/01/31 19:14:54.0	33.120	-0.220	-0.020	0.990
2020/01/31 19:14:54.1	33.100	-0.260	-0.040	0.990
2020/01/31 19:14:54.2	33.080	-0.300	-0.070	0.980
2020/01/31 19:14:54.3	33.070	-0.340	-0.090	0.960
2020/01/31 19:14:54.4	33.050	-0.370	-0.120	0.940
2020/01/31 19:14:54.5	33.040	-0.400	-0.140	0.920
2020/01/31 19:14:54.6	33.030	-0.430	-0.170	0.890
2020/01/31 19:14:54.7	33.020	-0.450	-0.200	0.860
2020/01/31 19:14:54.8	33.010	-0.470	-0.240	0.820
2020/01/31 19:14:54.9	33.010	-0.490	-0.270	0.780
2020/01/31 19:14:55.0	33.000	-0.500	-0.300	0.740
2020/01/31 19:14:55.1	33.000	-0.510	-0.340	0.700
2020/01/31 19:14:55.2	33.000	-0.510	-0.370	0.650
2020/01/31 19:14:55.3	33.000	-0.510	-0.400	0.610
2020/01/31 19:14:55.4	33.000	-0.510	-0.440	0.560
2020/01/31 19:14:55.5	33.010	-0.500	-0.470	0.510
2020/01/31 19:14:55.6	33.010	-0.490	-0.510	0.460
2020/01/31 19:14:55.7	33.010	-0.480	-0.540	0.410
2020/01/31 19:14:55.8	33.020	-0.460	-0.570	0.360
2020/01/31 19:14:55.9	33.030	-0.430	-0.600	0.320
2020/01/31 19:14:56.0	33.030	-0.410	-0.630	0.270
2020/01/31 19:14:56.1	33.040	-0.380	-0.660	0.230
2020/01/31 19:14:56.2	33.040	-0.350	-0.680	0.190
2020/01/31 19:14:56.3	33.050	-0.310	-0.700	0.150
2020/01/31 19:14:56.4	33.050	-0.270	-0.730	0.120
2020/01/31 19:14:56.5	33.060	-0.240	-0.740	0.090
2020/01/31 19:14:56.6	33.060	-0.190	-0.760	0.060
2020/01/31 19:14:56.7	33.060	-0.150	-0.770	0.040
2020/01/31 19:14:56.8	33.070	-0.110	-0.790	0.010
2020/01/31 19:14:56.9	33.070	-0.060	-0.790	-0.000
2020/01/31 19:14:57.0	33.070	-0.010	-0.800	-0.020
2020/01/31 19:14:57.1	33.070	0.030	-0.800	-0.030
2020/01/31 19:14:57.2	33.070	0.080	-0.790	-0.030
2020/01/31 19:14:57.3	33.060	0.120	-0.780	-0.030
2020/01/31 19:14:57.4	33.060	0.170	-0.770	-0.030
2020/01/31 19:14:57.5	33.050	0.210	-0.760	-0.020
2020/01/31 19:14:57.6	33.040	0.250	-0.740	-0.010
2020/01/31 19:14:57.7	33.030	0.290	-0.720	0.000
2020/01/31 19:14:57.8	33.010	0.330	-0.690	0.020
2020/01/31 19:14:57.9	33.000	0.370	-0.660	0.040
2020/01/31 19:14:58.0	32.980	0.400	-0.630	0.060
2020/01/31 19:14:58.1	32.960	0.430	-0.590	0.090
2020/01/31 19:14:58.2	32.940	0.450	-0.550	0.120
2020/01/31 19:14:58.3	32.920	0.470	-0.510	0.150
2020/01/31 19:14:58.4	32.890	0.490	-0.470	0.180
2020/01/31 19:14:58.5	32.870	0.500	-0.420	0.220
2020/01/31 19:14:58.6	32.840	0.510	-0.370	0.260
2020/01/31 19:14:58.7	32.810	0.520	-0.320	0.290
2020/01/31 19:14:58.8	32.780	0.520	-0.280	0.330
2020/01/31 19:14:58.9	32.740	0.510	-0.230	0.370
2020/01/31 19:14:59.0	32.710	0.500	-0.170	0.400
2020/01/31 19:14:59.1	32.680	0.490	-0.120	0.440
2020/01/31 19:14:59.2	32.640	0.480	-0.070	0.480
2020/01/31 19:14:59.3	32.610	0.450	-0.020	0.510
2020/01/31 19:14:59.4	32.570	0.430	0.030	0.550
2020/01/31 19:14:59.5	32.530	0.400	0.080	0.580
2020/01/31 19:14:59.6	32.490	0.370	0.130	0.610
2020/01/31 19:14:59.7	32.450	0.340	0.180	0.640
2020/01/31 19:14:59.8	32.400	0.300	0.230	0.670
2020/01/31 19:14:59.9	32.360	0.260	0.280	0.690
2020/01/31 19:15:00.0	32.320	0.220	0.320	0.710
2020/01/31 19:15:00.1	32.270	0.170	0.360	0.730
2020/01/31 19:15:00.2	32.220	0.130	0.390	0.750
2020/01/31 19:15:00.3	32.180	0.080	0.430	0.760
2020/01/31 19:15:00.4	32.130	0.030	0.460	0.770
2020/01/31 19:15:00.5	32.090	-0.010	0.480	0.770
2020/01/31 19:15:00.6	32.040	-0.060	0.500	0.770
2020/01/31 19:15:00.7	32.000	-0.110	0.520	0.760
2020/01/31 19:15:00.8	31.950	-0.150	0.530	0.750
2020/01/31 19:15:00.9	31.910	-0.200	0.540	0.740
2020/01/31 19:15:01.0	31.870	-0.240	0.540	0.720
2020/01/31 19:15:01.1	31.840	-0.290	0.540	0.690
2020/01/31 19:15:01.2	31.800	-0.320	0.530	0.660
2020/01/31 19:15:01.3	31.770	-0.360	0.520	0.620
2020/01/31 19:15:01.4	31.740	-0.400	0.500	0.580
2020/01/31 19:15:01.5	31.720	-0.430	0.480	0.530
2020/01/31 19:15:01.6	31.690	-0.450	0.450	0.480
2020/01/31 19:15:01.7	31.670	-0.480	0.420	0.420
2020/01/31 19:15:01.8	31.650	-0.500	0.390	0.360
2020/01/31 19:15:01.9	31.640	-0.510	0.350	0.300
2020/01/31 19:15:02.0	31.620	-0.520	0.310	0.230
2020/01/31 19:15:02.1	31.610	-0.530	0.270	0.170
2020/01/31 19:15:02.2	31.590	-0.530	0.220	0.100
2020/01/31 19:15:02.3	31.580	-0.530	0.170	0.040
2020/01/31 19:15:02.4	31.570	-0.530	0.120	-0.030
2020/01/31 19:15:02.5	31.560	-0.520	0.060	-0.090
2020/01/31 19:15:02.6	31.550	-0.500	0.010	-0.150
2020/01/31 19:15:02.7	31.540	-0.480	-0.050	-0.210
2020/01/31 19:15:02.8	31.530	-0.460	-0.100	-0.280
2020/01/31 19:15:02.9	31.520	-0.440	-0.160	-0.330
2020/01/31 19:15:03.0	31.510	-0.410	-0.210	-0.380
2020/01/31 19:15:03.1	31.500	-0.370	-0.270	-0.430
2020/01/31 19:15:03.2	31.490	-0.340	-0.320	-0.470
2020/01/31 19:15:03.3	31.480	-0.300	-0.370	-0.510
2020/01/31 19:15:03.4	31.470	-0.250	-0.430	-0.550
2020/01/31 19:15:03.5	31.460	-0.210	-0.480	-0.580
2020/01/31 19:15:03.6	31.450	-0.160	-0.520	-0.610
2020/01/31 19:15:03.7	31.430	-0.120	-0.570	-0.640
2020/01/31 19:15:03.8	31.420	-0.070	-0.610	-0.660
2020/01/31 19:15:03.9	31.410	-0.020	-0.660	-0.680
2020/01/31 19:15:04.0	31.400	0.030	-0.690	-0.700
2020/01/31 19:15:04.1	31.390	0.080	-0.730	-0.710
2020/01/31 19:15:04.2	31.380	0.130	-0.760	-0.720
2020/01/31 19:15:04.3	31.360	0.180	-0.790	-0.720
2020/01/31 19:15:04.4	31.350	0.230	-0.820	-0.730
2020/01/31 19:15:04.5	31.340	0.280	-0.840	-0.730
2020/01/31 19:15:04.6	31.330	0.330	-0.860	-0.720
2020/01/31 19:15:04.7	31.320	0.370	-0.880	-0.720
2020/01/31 19:15:04.8	31.320	0.410	-0.890	-0.710
2020/01/31 19:15:04.9	31.310	0.450	-0.900	-0.700
2020/01/31 19:15:05.0	31.300	0.490	-0.910	-0.690
2020/01/31 19:15:05.1	31.300	0.530	-0.910	-0.680
2020/01/31 19:15:05.2	31.290	0.560	-0.910	-0.660
2020/01/31 19:15:05.3	31.290	0.590	-0.910	-0.650
2020/01/31 19:15:05.4	31.280	0.610	-0.900	-0.620
2020/01/31 19:15:05.5	31.280	0.630	-0.890	-0.600
2020/01/31 19:15:05.6	31.270	0.650	-0.870	-0.580
2020/01/31 19:15:05.7	31.270	0.670	-0.860	-0.550
2020/01/31 19:15:05.8	31.270	0.680	-0.840	-0.520
2020/01/31 19:15:05.9	31.260	0.690	-0.810	-0.480
2020/01/31 19:15:06.0	31.250	0.690	-0.790	-0.450
2020/01/31 19:15:06.1	31.250	0.690	-0.760	-0.410
2020/01/31 19:15:06.2	31.240	0.690	-0.720	-0.370
2020/01/31 19:15:06.3	31.230	0.680	-0.680	-0.320
2020/01/31 19:15:06.4	31.220	0.670	-0.640	-0.280
2020/01/31 19:15:06.5	31.200	0.650	-0.600	-0.230
2020/01/31 19:15:06.6	31.190	0.640	-0.550	-0.180
2020/01/31 19:15:06.7	31.170	0.610	-0.500	-0.130
2020/01/31 19:15:06.8	31.160	0.590	-0.450	-0.070
2020/01/31 19:15:06.9	31.140	0.560	-0.400	-0.020
2020/01/31 19:15:07.0	31.120	0.530	-0.340	0.040
2020/01/31 19:15:07.1	31.100	0.500	-0.280	0.100
2020/01/31 19:15:07.2	31.080	0.460	-0.220	0.150
2020/01/31 19:15:07.3	31.050	0.420	-0.160	0.210
2020/01/31 19:15:07.4	31.030	0.380	-0.100	0.270
2020/01/31 19:15:07.5	31.010	0.340	-0.040	0.320
2020/01/31 19:15:07.6	30.980	0.290	0.020	0.380
2020/01/31 19:15:07.7	30.950	0.250	0.080	0.430
2020/01/31 19:15:07.8	30.920	0.200	0.140	0.480
2020/01/31 19:15:07.9	30.890	0.150	0.200	0.530
2020/01/31 19:15:08.0	30.860	0.100	0.260	0.580
2020/01/31 19:15:08.1	30.830	0.060	0.310	0.630
2020/01/31 19:15:08.2	30.800	0.010	0.360	0.670
2020/01/31 19:15:08.3	30.770	-0.040	0.410	0.720
2020/01/31 19:15:08.4	30.740	-0.090	0.460	0.760
2020/01/31 19:15:08.5	30.710	-0.130	0.500	0.790
2020/01/31 19:15:08.6	30.680	-0.180	0.540	0.830
2020/01/31 19:15:08.7	30.650	-0.220	0.580	0.860
2020/01/31 19:15:08.8	30.620	-0.260	0.600	0.890
2020/01/31 19:15:08.9	30.590	-0.300	0.630	0.920
2020/01/31 19:15:09.0	30.570	-0.340	0.650	0.940
2020/01/31 19:15:09.1	30.540	-0.380	0.660	0.960
2020/01/31 19:15:09.2	30.510	-0.410	0.670	0.970
2020/01/31 19:15:09.3	30.480	-0.440	0.680	0.980
2020/01/31 19:15:09.4	30.450	-0.470	0.680	0.990
2020/01/31 19:15:09.5	30.420	-0.500	0.680	0.990
2020/01/31 19:15:09.6	30.390	-0.520	0.670	1.000
2020/01/31 19:15:09.7	30.370	-0.540	0.660	0.990
2020/01/31 19:15:09.8	30.340	-0.560	0.640	0.980
2020/01/31 19:15:09.9	30.310	-0.580	0.620	0.970
2020/01/31 19:15:10.0	30.280	-0.590	0.600	0.960
2020/01/31 19:15:10.1	30.260	-0.600	0.570	0.940
2020/01/31 19:15:10.2	30.230	-0.600	0.540	0.930
2020/01/31 19:15:10.3	30.200	-0.610	0.510	0.910
2020/01/31 19:15:10.4	30.170	-0.610	0.470	0.890
2020/01/31 19:15:10.5	30.140	-0.610	0.430	0.860
2020/01/31 19:15:10.6	30.110	-0.600	0.390	0.840
2020/01/31 19:15:10.7	30.080	-0.590	0.350	0.810
2020/01/31 19:15:10.8	30.070	-0.580	0.300	0.780
2020/01/31 19:15:10.9	30.040	-0.570	0.250	0.760
2020/01/31 19:15:11.0	30.000	-0.550	0.210	0.730
2020/01/31 19:15:11.1	29.970	-0.540	0.160	0.700
2020/01/31 19:15:11.2	29.940	-0.510	0.110	0.670
2020/01/31 19:15:11.3	29.910	-0.490	0.060	0.640
2020/01/31 19:15:11.4	29.880	-0.470	0.010	0.610
2020/01/31 19:15:11.5	29.860	-0.440	-0.040	0.580
2020/01/31 19:15:11.6	29.830	-0.410	-0.090	0.550
2020/01/31 19:15:11.7	29.800	-0.380	-0.150	0.520
2020/01/31 19:15:11.8	29.770	-0.350	-0.200	0.490
2020/01/31 19:15:11.9	29.740	-0.320	-0.250	0.460
2020/01/31 19:15:12.0	29.720	-0.290	-0.300	0.430
2020/01/31 19:15:12.1	29.690	-0.260	-0.350	0.400
2020/01/31 19:15:12.2	29.670	-0.220	-0.400	0.370
2020/01/31 19:15:12.3	29.650	-0.190	-0.450	0.340
2020/01/31 19:15:12.4	29.630	-0.160	-0.500	0.310
2020/01/31 19:15:12.5	29.620	-0.120	-0.550	0.280
2020/01/31 19:15:12.6	29.600	-0.090	-0.600	0.250
2020/01/31 19:15:12.7	29.590	-0.050	-0.640	0.220
2020/01/31 19:15:12.8	29.580	-0.020	-0.690	0.190
2020/01/31 19:15:12.9	29.570	0.010	-0.730	0.160
2020/01/31 19:15:13.0	29.560	0.040	-0.780	0.140
2020/01/31 19:15:13.1	29.560	0.070	-0.820	0.110
2020/01/31 19:15:13.2	29.550	0.100	-0.860	0.090
2020/01/31 19:15:13.3	29.550	0.130	-0.890	0.060
2020/01/31 19:15:13.4	29.540	0.150	-0.930	0.040
2020/01/31 19:15:13.5	29.540	0.180	-0.960	0.020
2020/01/31 19:15:13.6	29.540	0.200	-0.990	0.000
2020/01/31 19:15:13.7	29.540	0.220	-1.010	-0.020
2020/01/31 19:15:13.8	29.540	0.240	-1.040	-0.040
2020/01/31 19:15:13.9	29.540	0.260	-1.050	-0.050
2020/01/31 19:15:14.0	29.550	0.270	-1.070	-0.070
2020/01/31 19:15:14.1	29.550	0.280	-1.070	-0.080
2020/01/31 19:15:14.2	29.550	0.290	-1.080	-0.090
2020/01/31 19:15:14.3	29.550	0.300	-1.080	-0.100
2020/01/31 19:15:14.4	29.550	0.300	-1.070	-0.110
2020/01/31 19:15:14.5	29.560	0.300	-1.060	-0.120
2020/01/31 19:15:14.6	29.560	0.300	-1.040	-0.120
2020/01/31 19:15:14.7	29.560	0.300	-1.020	-0.130
2020/01/31 19:15:14.8	29.550	0.300	-0.990	-0.130
2020/01/31 19:15:14.9	29.550	0.290	-0.960	-0.140
2020/01/31 19:15:15.0	29.550	0.280	-0.920	-0.140
2020/01/31 19:15:15.1	29.550	0.270	-0.880	-0.150
2020/01/31 19:15:15.2	29.540	0.260	-0.840	-0.150
2020/01/31 19:15:15.3	29.540	0.250	-0.790	-0.160
2020/01/31 19:15:15.4	29.530	0.230	-0.740	-0.160
2020/01/31 19:15:15.5	29.530	0.220	-0.690	-0.170
2020/01/31 19:15:15.6	29.520	0.200	-0.630	-0.170
2020/01/31 19:15:15.7	29.510	0.190	-0.580	-0.180
2020/01/31 19:15:15.8	29.490	0.170	-0.520	-0.190
2020/01/31 19:15:15.9	29.480	0.150	-0.450	-0.190
2020/01/31 19:15:16.0	29.470	0.130	-0.390	-0.200
2020/01/31 19:15:16.1	29.450	0.120	-0.320	-0.200
2020/01/31 19:15:16.2	29.430	0.100	-0.260	-0.200
2020/01/31 19:15:16.3	29.410	0.080	-0.190	-0.210
2020/01/31 19:15:16.4	29.390	0.070	-0.130	-0.210
2020/01/31 19:15:16.5	29.370	0.050	-0.060	-0.210
2020/01/31 19:15:16.6	29.340	0.040	0.010	-0.210
2020/01/31 19:15:16.7	29.310	0.030	0.070	-0.210
2020/01/31 19:15:16.8	29.290	0.020	0.130	-0.210
2020/01/31 19:15:16.9	29.260	0.010	0.200	-0.200
2020/01/31 19:15:17.0	29.220	-0.000	0.260	-0.200
2020/01/31 19:15:17.1	29.190	-0.010	0.320	-0.190
2020/01/31 19:15:17.2	29.150	-0.010	0.370	-0.180
2020/01/31 19:15:17.3	29.110	-0.020	0.430	-0.170
2020/01/31 19:15:17.4	29.070	-0.020	0.480	-0.150
2020/01/31 19:15:17.5	29.020	-0.020	0.530	-0.140
2020/01/31 19:15:17.6	28.980	-0.020	0.570	-0.120
2020/01/31 19:15:17.7	28.930	-0.010	0.610	-0.100
2020/01/31 19:15:17.8	28.880	-0.010	0.650	-0.080
2020/01/31 19:15:17.9	28.840	-0.000	0.680	-0.050
2020/01/31 19:15:18.0	28.790	0.010	0.700	-0.030
2020/01/31 19:15:18.1	28.740	0.010	0.720	-0.010
2020/01/31 19:15:18.2	28.690	0.020	0.740	0.020
2020/01/31 19:15:18.3	28.630	0.040	0.750	0.050
2020/01/31 19:15:18.4	28.580	0.050	0.760	0.070
2020/01/31 19:15:18.5	28.540	0.060	0.760	0.100
2020/01/31 19:15:18.6	28.490	0.070	0.750	0.130
2020/01/31 19:15:18.7	28.440	0.080	0.740	0.160
2020/01/31 19:15:18.8	28.400	0.090	0.720	0.190
2020/01/31 19:15:18.9	28.350	0.110	0.690	0.210
2020/01/31 19:15:19.0	28.310	0.120	0.660	0.240
2020/01/31 19:15:19.1	28.270	0.130	0.630	0.270
2020/01/31 19:15:19.2	28.230	0.140	0.590	0.290
2020/01/31 19:15:19.3	28.200	0.140	0.540	0.320
2020/01/31 19:15:19.4	28.170	0.150	0.490	0.340
2020/01/31 19:15:19.5	28.140	0.160	0.440	0.360
2020/01/31 19:15:19.6	28.110	0.160	0.380	0.370
2020/01/31 19:15:19.7	28.090	0.160	0.310	0.390
2020/01/31 19:15:19.8	28.080	0.160	0.240	0.400
2020/01/31 19:15:19.9	28.060	0.160	0.170	0.400
2020/01/31 19:15:20.0	28.050	0.160	0.100	0.410
2020/01/31 19:15:20.1	28.050	0.150	0.020	0.400
2020/01/31 19:15:20.2	28.050	0.150	-0.060	0.400
2020/01/31 19:15:20.3	28.050	0.140	-0.140	0.390
2020/01/31 19:15:20.4	28.050	0.130	-0.220	0.370
2020/01/31 19:15:20.5	28.060	0.120	-0.300	0.350
2020/01/31 19:15:20.6	28.080	0.100	-0.380	0.330
2020/01/31 19:15:20.7	28.090	0.090	-0.460	0.300
2020/01/31 19:15:20.8	28.120	0.070	-0.540	0.260
2020/01/31 19:15:20.9	28.140	0.060	-0.610	0.220
2020/01/31 19:15:21.0	28.160	0.040	-0.690	0.180
2020/01/31 19:15:21.1	28.190	0.020	-0.760	0.140
2020/01/31 19:15:21.2	28.210	-0.000	-0.820	0.100
2020/01/31 19:15:21.3	28.240	-0.020	-0.890	0.050
2020/01/31 19:15:21.4	28.270	-0.040	-0.940	-0.000
2020/01/31 19:15:21.5	28.300	-0.060	-1.000	-0.050
2020/01/31 19:15:21.6	28.320	-0.090	-1.040	-0.100
2020/01/31 19:15:21.7	28.350	-0.110	-1.080	-0.150
2020/01/31 19:15:21.8	28.370	-0.130	-1.120	-0.200
2020/01/31 19:15:21.9	28.400	-0.150	-1.140	-0.250
2020/01/31 19:15:22.0	28.420	-0.170	-1.160	-0.290
2020/01/31 19:15:22.1	28.440	-0.180	-1.180	-0.340
2020/01/31 19:15:22.2	28.460	-0.200	-1.180	-0.370
2020/01/31 19:15:22.3	28.470	-0.220	-1.180	-0.410
2020/01/31 19:15:22.4	28.480	-0.230	-1.160	-0.440
2020/01/31 19:15:22.5	28.490	-0.240	-1.140	-0.460
2020/01/31 19:15:22.6	28.500	-0.250	-1.120	-0.480
2020/01/31 19:15:22.7	28.500	-0.260	-1.080	-0.490
2020/01/31 19:15:22.8	28.500	-0.270	-1.040	-0.510
2020/01/31 19:15:22.9	28.490	-0.270	-0.990	-0.510
2020/01/31 19:15:23.0	28.480	-0.270	-0.930	-0.500
2020/01/31 19:15:23.1	28.470	-0.270	-0.870	-0.490
2020/01/31 19:15:23.2	28.460	-0.270	-0.810	-0.480
2020/01/31 19:15:23.3	28.440	-0.260	-0.730	-0.460
2020/01/31 19:15:23.4	28.420	-0.250	-0.660	-0.430
2020/01/31 19:15:23.5	28.390	-0.240	-0.580	-0.400
2020/01/31 19:15:23.6	28.370	-0.230	-0.500	-0.360
2020/01/31 19:15:23.7	28.340	-0.220	-0.420	-0.320
2020/01/31 19:15:23.8	28.300	-0.200	-0.330	-0.280
2020/01/31 19:15:23.9	28.270	-0.180	-0.250	-0.240
2020/01/31 19:15:24.0	28.230	-0.160	-0.170	-0.190
2020/01/31 19:15:24.1	28.190	-0.140	-0.090	-0.130
2020/01/31 19:15:24.2	28.150	-0.120	-0.010	-0.080
2020/01/31 19:15:24.3	28.110	-0.090	0.070	-0.020
2020/01/31 19:15:24.4	28.070	-0.060	0.140	0.040
2020/01/31 19:15:24.5	28.020	-0.040	0.210	0.100
2020/01/31 19:15:24.6	27.980	-0.010	0.270	0.160
2020/01/31 19:15:24.7	27.930	0.020	0.320	0.220
2020/01/31 19:15:24.8	27.880	0.050	0.370	0.290
2020/01/31 19:15:24.9	27.830	0.080	0.420	0.350
2020/01/31 19:15:25.0	27.790	0.110	0.450	0.420
2020/01/31 19:15:25.1	27.740	0.140	0.480	0.480
2020/01/31 19:15:25.2	27.690	0.170	0.510	0.550
2020/01/31 19:15:25.3	27.640	0.200	0.520	0.610
2020/01/31 19:15:25.4	27.590	0.230	0.530	0.670
2020/01/31 19:15:25.5	27.550	0.260	0.530	0.730
2020/01/31 19:15:25.6	27.500	0.280	0.530	0.790
2020/01/31 19:15:25.7	27.450	0.310	0.520	0.850
2020/01/31 19:15:25.8	27.410	0.330	0.500	0.900
2020/01/31 19:15:25.9	27.370	0.350	0.470	0.950
2020/01/31 19:15:26.0	27.330	0.360	0.450	1.000
2020/01/31 19:15:26.1	27.290	0.380	0.410	1.050
2020/01/31 19:15:26.2	27.250	0.390	0.380	1.090
2020/01/31 19:15:26.3	27.210	0.390	0.340	1.130
2020/01/31 19:15:26.4	27.180	0.400	0.290	1.170
2020/01/31 19:15:26.5	27.150	0.400	0.250	1.200
2020/01/31 19:15:26.6	27.120	0.390	0.200	1.230
2020/01/31 19:15:26.7	27.090	0.380	0.160	1.260
2020/01/31 19:15:26.8	27.070	0.370	0.110	1.280
2020/01/31 19:15:26.9	27.040	0.350	0.070	1.300
2020/01/31 19:15:27.0	27.020	0.330	0.020	1.320
2020/01/31 19:15:27.1	27.010	0.310	-0.020	1.330
2020/01/31 19:15:27.2	26.990	0.280	-0.060	1.340
2020/01/31 19:15:27.3	26.980	0.250	-0.100	1.340
2020/01/31 19:15:27.4	26.970	0.220	-0.140	1.340
2020/01/31 19:15:27.5	26.960	0.180	-0.170	1.340
2020/01/31 19:15:27.6	26.950	0.140	-0.210	1.330
2020/01/31 19:15:27.7	26.940	0.100	-0.230	1.310
2020/01/31 19:15:27.8	26.950	0.050	-0.260	1.290
2020/01/31 19:15:27.9	26.950	0.010	-0.280	1.260
2020/01/31 19:15:28.0	26.950	-0.040	-0.300	1.230
2020/01/31 19:15:28.1	26.950	-0.080	-0.310	1.200
2020/01/31 19:15:28.2	26.950	-0.130	-0.330	1.160
2020/01/31 19:15:28.3	26.960	-0.180	-0.340	1.110
2020/01/31 19:15:28.4	26.960	-0.230	-0.350	1.060
2020/01/31 19:15:28.5	26.970	-0.270	-0.350	1.010
2020/01/31 19:15:28.6	26.970	-0.310	-0.360	0.950
2020/01/31 19:15:28.7	26.980	-0.360	-0.360	0.890
2020/01/31 19:15:28.8	26.980	-0.390	-0.360	0.820
2020/01/31 19:15:28.9	26.990	-0.430	-0.360	0.750
2020/01/31 19:15:29.0	27.000	-0.460	-0.360	0.680
2020/01/31 19:15:29.1	27.010	-0.490	-0.360	0.610
2020/01/31 19:15:29.2	27.010	-0.510	-0.350	0.530
2020/01/31 19:15:29.3	27.020	-0.530	-0.350	0.460
2020/01/31 19:15:29.4	27.020	-0.550	-0.350	0.390
2020/01/31 19:15:29.5	27.030	-0.560	-0.350	0.310
2020/01/31 19:15:29.6	27.030	-0.560	-0.350	0.240
2020/01/31 19:15:29.7	27.030	-0.560	-0.360	0.170
2020/01/31 19:15:29.8	27.030	-0.560	-0.360	0.100
2020/01/31 19:15:29.9	27.030	-0.550	-0.370	0.040
2020/01/31 19:15:30.0	27.030	-0.530	-0.370	-0.030
2020/01/31 19:15:30.1	27.020	-0.510	-0.380	-0.080
2020/01/31 19:15:30.2	27.020	-0.480	-0.390	-0.140
2020/01/31 19:15:30.3	27.010	-0.450	-0.400	-0.190
2020/01/31 19:15:30.4	27.000	-0.420	-0.410	-0.230
2020/01/31 19:15:30.5	26.990	-0.380	-0.420	-0.270
2020/01/31 19:15:30.6	26.980	-0.330	-0.430	-0.310
2020/01/31 19:15:30.7	26.970	-0.290	-0.450	-0.340
2020/01/31 19:15:30.8	26.950	-0.240	-0.460	-0.370
2020/01/31 19:15:30.9	26.930	-0.190	-0.470	-0.400
2020/01/31 19:15:31.0	26.920	-0.140	-0.480	-0.420
2020/01/31 19:15:31.1	26.900	-0.090	-0.500	-0.430
2020/01/31 19:15:31.2	26.880	-0.040	-0.510	-0.440
2020/01/31 19:15:31.3	26.860	0.020	-0.510	-0.450
2020/01/31 19:15:31.4	26.840	0.070	-0.520	-0.450
2020/01/31 19:15:31.5	26.820	0.120	-0.520	-0.450
2020/01/31 19:15:31.6	26.800	0.170	-0.520	-0.440
2020/01/31 19:15:31.7	26.770	0.210	-0.520	-0.420
2020/01/31 19:15:31.8	26.740	0.260	-0.520	-0.410
2020/01/31 19:15:31.9	26.720	0.300	-0.510	-0.390
2020/01/31 19:15:32.0	26.690	0.340	-0.500	-0.370
2020/01/31 19:15:32.1	26.660	0.380	-0.480	-0.340
2020/01/31 19:15:32.2	26.630	0.410	-0.460	-0.300
2020/01/31 19:15:32.3	26.610	0.430	-0.440	-0.270
2020/01/31 19:15:32.4	26.580	0.460	-0.410	-0.230
2020/01/31 19:15:32.5	26.550	0.480	-0.380	-0.190
2020/01/31 19:15:32.6	26.520	0.490	-0.340	-0.140
2020/01/31 19:15:32.7	26.490	0.500	-0.310	-0.100
2020/01/31 19:15:32.8	26.450	0.500	-0.270	-0.050
2020/01/31 19:15:32.9	26.420	0.510	-0.230	-0.000
2020/01/31 19:15:33.0	26.390	0.500	-0.190	0.050
2020/01/31 19:15:33.1	26.360	0.490	-0.150	0.090
2020/01/31 19:15:33.2	26.330	0.480	-0.100	0.140
2020/01/31 19:15:33.3	26.300	0.470	-0.060	0.180
2020/01/31 19:15:33.4	26.270	0.450	-0.020	0.230
2020/01/31 19:15:33.5	26.250	0.430	0.020	0.270
2020/01/31 19:15:33.6	26.220	0.400	0.060	0.300
2020/01/31 19:15:33.7	26.200	0.370	0.090	0.340
2020/01/31 19:15:33.8	26.170	0.340	0.130	0.370
2020/01/31 19:15:33.9	26.150	0.310	0.160	0.400
2020/01/31 19:15:34.0	26.120	0.270	0.180	0.420
2020/01/31 19:15:34.1	26.100	0.240	0.200	0.440
2020/01/31 19:15:34.2	26.080	0.200	0.220	0.460
2020/01/31 19:15:34.3	26.070	0.160	0.220	0.480
2020/01/31 19:15:34.4	26.050	0.130	0.230	0.490
2020/01/31 19:15:34.5	26.030	0.090	0.230	0.500
2020/01/31 19:15:34.6	26.020	0.050	0.230	0.500
2020/01/31 19:15:34.7	26.000	0.020	0.220	0.500
2020/01/31 19:15:34.8	25.990	-0.020	0.200	0.500
2020/01/31 19:15:34.9	25.980	-0.050	0.180	0.500
2020/01/31 19:15:35.0	25.960	-0.080	0.160	0.490
2020/01/31 19:15:35.1	25.950	-0.110	0.130	0.490
2020/01/31 19:15:35.2	25.940	-0.140	0.100	0.470
2020/01/31 19:15:35.3	25.930	-0.170	0.070	0.460
2020/01/31 19:15:35.4	25.920	-0.190	0.030	0.450
2020/01/31 19:15:35.5	25.910	-0.210	-0.010	0.430
2020/01/31 19:15:35.6	25.900	-0.230	-0.050	0.410
2020/01/31 19:15:35.7	25.880	-0.240	-0.090	0.390
2020/01/31 19:15:35.8	25.880	-0.250	-0.120	0.370
2020/01/31 19:15:35.9	25.870	-0.260	-0.170	0.350
2020/01/31 19:15:36.0	25.850	-0.270	-0.210	0.330
2020/01/31 19:15:36.1	25.840	-0.270	-0.250	0.310
2020/01/31 19:15:36.2	25.830	-0.270	-0.290	0.280
2020/01/31 19:15:36.3	25.820	-0.270	-0.330	0.260
2020/01/31 19:15:36.4	25.800	-0.270	-0.360	0.240
2020/01/31 19:15:36.5	25.790	-0.260	-0.400	0.220
2020/01/31 19:15:36.6	25.780	-0.260	-0.430	0.190
2020/01/31 19:15:36.7	25.770	-0.250	-0.460	0.170
2020/01/31 19:15:36.8	25.750	-0.230	-0.480	0.150
2020/01/31 19:15:36.9	25.730	-0.220	-0.500	0.130
2020/01/31 19:15:37.0	25.720	-0.210	-0.520	0.110
2020/01/31 19:15:37.1	25.700	-0.190	-0.530	0.100
2020/01/31 19:15:37.2	25.690	-0.180	-0.540	0.080
2020/01/31 19:15:37.3	25.670	-0.160	-0.540	0.070
2020/01/31 19:15:37.4	25.660	-0.140	-0.540	0.050
2020/01/31 19:15:37.5	25.640	-0.120	-0.540	0.040
2020/01/31 19:15:37.6	25.620	-0.110	-0.530	0.040
2020/01/31 19:15:37.7	25.600	-0.090	-0.520	0.030
2020/01/31 19:15:37.8	25.590	-0.080	-0.500	0.020
2020/01/31 19:15:37.9	25.570	-0.060	-0.480	0.020
2020/01/31 19:15:38.0	25.550	-0.050	-0.450	0.020
2020/01/31 19:15:38.1	25.530	-0.030	-0.420	0.010
2020/01/31 19:15:38.2	25.510	-0.020	-0.390	0.020
2020/01/31 19:15:38.3	25.490	-0.010	-0.360	0.020
2020/01/31 19:15:38.4	25.460	-0.000	-0.320	0.020
2020/01/31 19:15:38.5	25.440	0.010	-0.290	0.020
2020/01/31 19:15:38.6	25.420	0.010	-0.250	0.030
2020/01/31 19:15:38.7	25.390	0.020	-0.210	0.040
2020/01/31 19:15:38.8	25.360	0.020	-0.170	0.040
2020/01/31 19:15:38.9	25.340	0.030	-0.120	0.050
2020/01/31 19:15:39.0	25.310	0.030	-0.080	0.060
2020/01/31 19:15:39.1	25.290	0.030	-0.040	0.070
2020/01/31 19:15:39.2	25.260	0.030	-0.000	0.070
2020/01/31 19:15:39.3	25.240	0.020	0.030	0.080
2020/01/31 19:15:39.4	25.210	0.020	0.070	0.090
2020/01/31 19:15:39.5	25.190	0.010	0.100	0.100
2020/01/31 19:15:39.6	25.160	0.010	0.130	0.110
2020/01/31 19:15:39.7	25.140	0.000	0.160	0.120
2020/01/31 19:15:39.8	25.110	-0.000	0.180	0.130
2020/01/31 19:15:39.9	25.080	-0.010	0.200	0.140
2020/01/31 19:15:40.0	25.060	-0.020	0.220	0.150
2020/01/31 19:15:40.1	25.040	-0.020	0.240	0.160
2020/01/31 19:15:40.2	25.020	-0.030	0.250	0.170
2020/01/31 19:15:40.3	24.990	-0.030	0.260	0.190
2020/01/31 19:15:40.4	24.970	-0.040	0.260	0.200
2020/01/31 19:15:40.5	24.950	-0.040	0.260	0.210
2020/01/31 19:15:40.6	24.930	-0.050	0.260	0.230
2020/01/31 19:15:40.7	24.910	-0.050	0.260	0.240
2020/01/31 19:15:40.8	24.890	-0.050	0.250	0.260
2020/01/31 19:15:40.9	24.870	-0.050	0.240	0.280
2020/01/31 19:15:41.0	24.850	-0.050	0.230	0.300
2020/01/31 19:15:41.1	24.830	-0.050	0.210	0.320
2020/01/31 19:15:41.2	24.810	-0.040	0.190	0.340
2020/01/31 19:15:41.3	24.800	-0.040	0.160	0.360
2020/01/31 19:15:41.4	24.780	-0.030	0.140	0.380
2020/01/31 19:15:41.5	24.770	-0.020	0.110	0.390
2020/01/31 19:15:41.6	24.750	-0.010	0.080	0.410
2020/01/31 19:15:41.7	24.740	-0.000	0.040	0.430
2020/01/31 19:15:41.8	24.720	0.010	0.000	0.440
2020/01/31 19:15:41.9	24.700	0.020	-0.040	0.460
2020/01/31 19:15:42.0	24.690	0.030	-0.080	0.480
2020/01/31 19:15:42.1	24.680	0.040	-0.120	0.490
2020/01/31 19:15:42.2	24.660	0.050	-0.160	0.500
2020/01/31 19:15:42.3	24.650	0.070	-0.200	0.520
2020/01/31 19:15:42.4	24.630	0.080	-0.240	0.530
2020/01/31 19:15:42.5	24.620	0.090	-0.280	0.530
2020/01/31 19:15:42.6	24.600	0.100	-0.320	0.540
2020/01/31 19:15:42.7	24.590	0.110	-0.360	0.550
2020/01/31 19:15:42.8	24.570	0.120	-0.400	0.550
2020/01/31 19:15:42.9	24.560	0.130	-0.440	0.550
2020/01/31 19:15:43.0	24.550	0.140	-0.470	0.540
2020/01/31 19:15:43.1	24.530	0.140	-0.510	0.540
2020/01/31 19:15:43.2	24.520	0.150	-0.540	0.530
2020/01/31 19:15:43.3	24.510	0.150	-0.570	0.520
2020/01/31 19:15:43.4	24.500	0.150	-0.600	0.510
2020/01/31 19:15:43.5	24.480	0.150	-0.630	0.490
2020/01/31 19:15:43.6	24.470	0.140	-0.650	0.480
2020/01/31 19:15:43.7	24.470	0.140	-0.670	0.460
2020/01/31 19:15:43.8	24.470	0.130	-0.690	0.430
2020/01/31 19:15:43.9	24.460	0.120	-0.710	0.410
2020/01/31 19:15:44.0	24.460	0.110	-0.720	0.390
2020/01/31 19:15:44.1	24.450	0.100	-0.720	0.360
2020/01/31 19:15:44.2	24.450	0.090	-0.730	0.330
2020/01/31 19:15:44.3	24.440	0.070	-0.730	0.310
2020/01/31 19:15:44.4	24.440	0.060	-0.720	0.280
2020/01/31 19:15:44.5	24.440	0.040	-0.720	0.250
2020/01/31 19:15:44.6	24.430	0.030	-0.710	0.220
2020/01/31 19:15:44.7	24.430	0.010	-0.690	0.190
2020/01/31 19:15:44.8	24.440	-0.010	-0.680	0.160
2020/01/31 19:15:44.9	24.430	-0.030	-0.660	0.130
2020/01/31 19:15:45.0	24.430	-0.040	-0.630	0.100
2020/01/31 19:15:45.1	24.430	-0.060	-0.600	0.080
2020/01/31 19:15:45.2	24.420	-0.080	-0.580	0.050
2020/01/31 19:15:45.3	24.420	-0.100	-0.540	0.020
2020/01/31 19:15:45.4	24.410	-0.110	-0.510	0.000
2020/01/31 19:15:45.5	24.400	-0.130	-0.470	-0.020
2020/01/31 19:15:45.6	24.390	-0.140	-0.440	-0.040
2020/01/31 19:15:45.7	24.380	-0.150	-0.400	-0.060
2020/01/31 19:15:45.8	24.370	-0.160	-0.360	-0.090
2020/01/31 19:15:45.9	24.350	-0.170	-0.320	-0.110
2020/01/31 19:15:46.0	24.340	-0.180	-0.280	-0.120
2020/01/31 19:15:46.1	24.320	-0.190	-0.240	-0.140
2020/01/31 19:15:46.2	24.300	-0.190	-0.210	-0.150
2020/01/31 19:15:46.3	24.280	-0.190	-0.170	-0.160
2020/01/31 19:15:46.4	24.260	-0.190	-0.130	-0.180
2020/01/31 19:15:46.5	24.240	-0.190	-0.100	-0.190
2020/01/31 19:15:46.6	24.210	-0.190	-0.070	-0.200
2020/01/31 19:15:46.7	24.190	-0.180	-0.040	-0.210
2020/01/31 19:15:46.8	24.160	-0.170	-0.020	-0.220
2020/01/31 19:15:46.9	24.130	-0.160	-0.000	-0.220
2020/01/31 19:15:47.0	24.100	-0.150	0.020	-0.230
2020/01/31 19:15:47.1	24.070	-0.130	0.030	-0.230
2020/01/31 19:15:47.2	24.040	-0.120	0.040	-0.230
2020/01/31 19:15:47.3	24.010	-0.100	0.050	-0.240
2020/01/31 19:15:47.4	23.980	-0.080	0.060	-0.240
2020/01/31 19:15:47.5	23.960	-0.060	0.060	-0.240
2020/01/31 19:15:47.6	23.930	-0.040	0.050	-0.240
2020/01/31 19:15:47.7	23.900	-0.010	0.050	-0.230
2020/01/31 19:15:47.8	23.870	0.010	0.040	-0.230
2020/01/31 19:15:47.9	23.840	0.040	0.030	-0.220
2020/01/31 19:15:48.0	23.820	0.060	0.020	-0.220
2020/01/31 19:15:48.1	23.790	0.090	0.000	-0.210
2020/01/31 19:15:48.2	23.770	0.110	-0.010	-0.200
2020/01/31 19:15:48.3	23.740	0.140	-0.030	-0.190
2020/01/31 19:15:48.4	23.720	0.160	-0.050	-0.180
2020/01/31 19:15:48.5	23.700	0.190	-0.070	-0.160
2020/01/31 19:15:48.6	23.680	0.210	-0.080	-0.140
2020/01/31 19:15:48.7	23.660	0.230	-0.100	-0.120
2020/01/31 19:15:48.8	23.640	0.250	-0.110	-0.110
2020/01/31 19:15:48.9	23.620	0.270	-0.130	-0.090
2020/01/31 19:15:49.0	23.610	0.290	-0.130	-0.060
2020/01/31 19:15:49.1	23.600	0.300	-0.140	-0.030
2020/01/31 19:15:49.2	23.590	0.320	-0.140	-0.000
2020/01/31 19:15:49.3	23.580	0.330	-0.140	0.030
2020/01/31 19:15:49.4	23.570	0.330	-0.140	0.060
2020/01/31 19:15:49.5	23.560	0.340	-0.130	0.090
2020/01/31 19:15:49.6	23.550	0.340	-0.120	0.130
2020/01/31 19:15:49.7	23.550	0.340	-0.100	0.160
2020/01/31 19:15:49.8	23.550	0.330	-0.080	0.200
2020/01/31 19:15:49.9	23.550	0.320	-0.050	0.240
2020/01/31 19:15:50.0	23.540	0.310	-0.030	0.270
2020/01/31 19:15:50.1	23.540	0.300	0.010	0.310
2020/01/31 19:15:50.2	23.530	0.280	0.040	0.350
2020/01/31 19:15:50.3	23.530	0.260	0.080	0.380
2020/01/31 19:15:50.4	23.520	0.240	0.120	0.420
2020/01/31 19:15:50.5	23.520	0.210	0.160	0.460
2020/01/31 19:15:50.6	23.510	0.180	0.200	0.490
2020/01/31 19:15:50.7	23.500	0.150	0.240	0.520
2020/01/31 19:15:50.8	23.490	0.120	0.280	0.560
2020/01/31 19:15:50.9	23.480	0.090	0.320	0.590
2020/01/31 19:15:51.0	23.460	0.050	0.360	0.620
2020/01/31 19:15:51.1	23.440	0.010	0.400	0.650
2020/01/31 19:15:51.2	23.430	-0.030	0.430	0.680
2020/01/31 19:15:51.3	23.400	-0.070	0.460	0.700
2020/01/31 19:15:51.4	23.380	-0.100	0.490	0.730
2020/01/31 19:15:51.5	23.360	-0.140	0.510	0.750
2020/01/31 19:15:51.6	23.330	-0.180	0.530	0.770
2020/01/31 19:15:51.7	23.300	-0.220	0.540	0.780
2020/01/31 19:15:51.8	23.270	-0.260	0.540	0.790
2020/01/31 19:15:51.9	23.240	-0.300	0.530	0.800
2020/01/31 19:15:52.0	23.210	-0.330	0.530	0.810
2020/01/31 19:15:52.1	23.180	-0.370	0.510	0.810
2020/01/31 19:15:52.2	23.150	-0.400	0.480	0.810
2020/01/31 19:15:52.3	23.110	-0.430	0.450	0.800
2020/01/31 19:15:52.4	23.080	-0.460	0.420	0.790
2020/01/31 19:15:52.5	23.040	-0.480	0.370	0.780
2020/01/31 19:15:52.6	23.010	-0.500	0.320	0.760
2020/01/31 19:15:52.7	22.980	-0.520	0.260	0.740
2020/01/31 19:15:52.8	22.950	-0.530	0.200	0.720
2020/01/31 19:15:52.9	22.920	-0.550	0.130	0.690
2020/01/31 19:15:53.0	22.890	-0.550	0.060	0.670
2020/01/31 19:15:53.1	22.860	-0.550	-0.020	0.630
2020/01/31 19:15:53.2	22.830	-0.550	-0.110	0.600
2020/01/31 19:15:53.3	22.800	-0.550	-0.190	0.570
2020/01/31 19:15:53.4	22.770	-0.540	-0.280	0.530
2020/01/31 19:15:53.5	22.750	-0.530	-0.370	0.490
2020/01/31 19:15:53.6	22.730	-0.510	-0.460	0.450
2020/01/31 19:15:53.7	22.720	-0.490	-0.550	0.410
2020/01/31 19:15:53.8	22.700	-0.460	-0.650	0.360
2020/01/31 19:15:53.9	22.690	-0.440	-0.740	0.310
2020/01/31 19:15:54.0	22.680	-0.410	-0.820	0.270
2020/01/31 19:15:54.1	22.680	-0.370	-0.910	0.220
2020/01/31 19:15:54.2	22.680	-0.340	-0.990	0.170
2020/01/31 19:15:54.3	22.680	-0.300	-1.060	0.120
2020/01/31 19:15:54.4	22.680	-0.260	-1.130	0.070
2020/01/31 19:15:54.5	22.690	-0.220	-1.190	0.020
2020/01/31 19:15:54.6	22.700	-0.180	-1.250	-0.040
2020/01/31 19:15:54.7	22.710	-0.130	-1.300	-0.090
2020/01/31 19:15:54.8	22.730	-0.090	-1.340	-0.140
2020/01/31 19:15:54.9	22.740	-0.050	-1.370	-0.200
2020/01/31 19:15:55.0	22.760	-0.000	-1.390	-0.250
2020/01/31 19:15:55.1	22.780	0.040	-1.410	-0.300
2020/01/31 19:15:55.2	22.800	0.080	-1.410	-0.340
2020/01/31 19:15:55.3	22.810	0.110	-1.410	-0.390
2020/01/31 19:15:55.4	22.830	0.150	-1.390	-0.430
2020/01/31 19:15:55.5	22.850	0.180	-1.370	-0.470
2020/01/31 19:15:55.6	22.860	0.210	-1.340	-0.510
2020/01/31 19:15:55.7	22.870	0.240	-1.290	-0.540
2020/01/31 19:15:55.8	22.870	0.260	-1.240	-0.580
2020/01/31 19:15:55.9	22.880	0.290	-1.180	-0.610
2020/01/31 19:15:56.0	22.880	0.300	-1.120	-0.630
2020/01/31 19:15:56.1	22.880	0.320	-1.040	-0.640
2020/01/31 19:15:56.2	22.880	0.330	-0.960	-0.660
2020/01/31 19:15:56.3	22.870	0.330	-0.870	-0.660
2020/01/31 19:15:56.4	22.860	0.340	-0.780	-0.670
2020/01/31 19:15:56.5	22.840	0.330	-0.690	-0.660
2020/01/31 19:15:56.6	22.820	0.330	-0.590	-0.660
2020/01/31 19:15:56.7	22.800	0.320	-0.480	-0.640
2020/01/31 19:15:56.8	22.770	0.310	-0.380	-0.620
2020/01/31 19:15:56.9	22.740	0.300	-0.270	-0.600
2020/01/31 19:15:57.0	22.700	0.280	-0.170	-0.570
2020/01/31 19:15:57.1	22.660	0.260	-0.060	-0.540
2020/01/31 19:15:57.2	22.620	0.240	0.040	-0.500
2020/01/31 19:15:57.3	22.580	0.220	0.140	-0.460
2020/01/31 19:15:57.4	22.530	0.200	0.230	-0.410
2020/01/31 19:15:57.5	22.480	0.170	0.330	-0.360
2020/01/31 19:15:57.6	22.430	0.150	0.410	-0.310
2020/01/31 19:15:57.7	22.380	0.120	0.490	-0.250
2020/01/31 19:15:57.8	22.330	0.100	0.560	-0.200
2020/01/31 19:15:57.9	22.280	0.070	0.620	-0.140
2020/01/31 19:15:58.0	22.230	0.050	0.680	-0.080
2020/01/31 19:15:58.1	22.180	0.030	0.720	-0.020
2020/01/31 19:15:58.2	22.130	0.010	0.760	0.040
2020/01/31 19:15:58.3	22.080	-0.010	0.780	0.100
2020/01/31 19:15:58.4	22.030	-0.020	0.790	0.150
2020/01/31 19:15:58.5	21.990	-0.040	0.800	0.210
2020/01/31 19:15:58.6	21.950	-0.050	0.790	0.260
2020/01/31 19:15:58.7	21.910	-0.050	0.780	0.310
2020/01/31 19:15:58.8	21.890	-0.060	0.750	0.360
2020/01/31 19:15:58.9	21.860	-0.050	0.720	0.400
2020/01/31 19:15:59.0	21.830	-0.050	0.670	0.440
2020/01/31 19:15:59.1	21.810	-0.040	0.620	0.480
2020/01/31 19:15:59.2	21.790	-0.030	0.560	0.510
2020/01/31 19:15:59.3	21.770	-0.020	0.490	0.540
2020/01/31 19:15:59.4	21.760	0.000	0.410	0.560
2020/01/31 19:15:59.5	21.750	0.020	0.330	0.580
2020/01/31 19:15:59.6	21.750	0.040	0.250	0.590
2020/01/31 19:15:59.7	21.750	0.070	0.160	0.600
2020/01/31 19:15:59.8	21.750	0.100	0.070	0.600
2020/01/31 19:15:59.9	21.760	0.130	-0.020	0.610
2020/01/31 19:16:00.0	21.770	0.160	-0.110	0.610
2020/01/31 19:16:00.1	21.780	0.190	-0.200	0.600
2020/01/31 19:16:00.2	21.790	0.230	-0.290	0.600
2020/01/31 19:16:00.3	21.810	0.260	-0.370	0.590
2020/01/31 19:16:00.4	21.830	0.290	-0.450	0.580
2020/01/31 19:16:00.5	21.850	0.330	-0.530	0.570
2020/01/31 19:16:00.6	21.870	0.360	-0.600	0.550
2020/01/31 19:16:00.7	21.890	0.390	-0.660	0.540
2020/01/31 19:16:00.8	21.920	0.420	-0.720	0.520
2020/01/31 19:16:00.9	21.940	0.440	-0.770	0.510
2020/01/31 19:16:01.0	21.960	0.460	-0.810	0.490
2020/01/31 19:16:01.1	21.980	0.480	-0.840	0.480
2020/01/31 19:16:01.2	22.000	0.500	-0.870	0.470
2020/01/31 19:16:01.3	22.010	0.510	-0.890	0.450
2020/01/31 19:16:01.4	22.030	0.510	-0.890	0.440
2020/01/31 19:16:01.5	22.040	0.510	-0.890	0.430
2020/01/31 19:16:01.6	22.050	0.510	-0.880	0.420
2020/01/31 19:16:01.7	22.060	0.500	-0.860	0.410
2020/01/31 19:16:01.8	22.060	0.490	-0.840	0.400
2020/01/31 19:16:01.9	22.060	0.470	-0.800	0.390
2020/01/31 19:16:02.0	22.070	0.440	-0.760	0.390
2020/01/31 19:16:02.1	22.060	0.410	-0.710	0.380
2020/01/31 19:16:02.2	22.060	0.380	-0.660	0.380
2020/01/31 19:16:02.3	22.050	0.340	-0.590	0.370
2020/01/31 19:16:02.4	22.050	0.290	-0.530	0.370
2020/01/31 19:16:02.5	22.040	0.250	-0.460	0.370
2020/01/31 19:16:02.6	22.020	0.200	-0.380	0.370
2020/01/31 19:16:02.7	22.010	0.140	-0.300	0.370
2020/01/31 19:16:02.8	21.990	0.080	-0.220	0.360
2020/01/31 19:16:02.9	21.970	0.020	-0.140	0.360
2020/01/31 19:16:03.0	21.950	-0.040	-0.060	0.360
2020/01/31 19:16:03.1	21.930	-0.100	0.020	0.360
2020/01/31 19:16:03.2	21.910	-0.160	0.100	0.370
2020/01/31 19:16:03.3	21.890	-0.230	0.180	0.370
2020/01/31 19:16:03.4	21.860	-0.290	0.250	0.360
2020/01/31 19:16:03.5	21.830	-0.350	0.320	0.360
2020/01/31 19:16:03.6	21.810	-0.420	0.390	0.360
2020/01/31 19:16:03.7	21.780	-0.470	0.450	0.360
2020/01/31 19:16:03.8	21.750	-0.530	0.510	0.350
2020/01/31 19:16:03.9	21.720	-0.590	0.560	0.340
2020/01/31 19:16:04.0	21.690	-0.640	0.610	0.340
2020/01/31 19:16:04.1	21.660	-0.690	0.640	0.330
2020/01/31 19:16:04.2	21.630	-0.730	0.670	0.320
2020/01/31 19:16:04.3	21.600	-0.770	0.700	0.310
2020/01/31 19:16:04.4	21.560	-0.810	0.710	0.300
2020/01/31 19:16:04.5	21.530	-0.840	0.720	0.290
2020/01/31 19:16:04.6	21.500	-0.860	0.730	0.280
2020/01/31 19:16:04.7	21.460	-0.880	0.720	0.270
2020/01/31 19:16:04.8	21.420	-0.900	0.710	0.250
2020/01/31 19:16:04.9	21.390	-0.900	0.690	0.240
2020/01/31 19:16:05.0	21.350	-0.910	0.670	0.220
2020/01/31 19:16:05.1	21.310	-0.900	0.640	0.210
2020/01/31 19:16:05.2	21.270	-0.900	0.610	0.200
2020/01/31 19:16:05.3	21.230	-0.880	0.570	0.180
2020/01/31 19:16:05.4	21.190	-0.860	0.520	0.170
2020/01/31 19:16:05.5	21.150	-0.840	0.470	0.150
2020/01/31 19:16:05.6	21.110	-0.810	0.420	0.140
2020/01/31 19:16:05.7	21.070	-0.780	0.370	0.120
2020/01/31 19:16:05.8	21.020	-0.740	0.310	0.110
2020/01/31 19:16:05.9	20.980	-0.700	0.250	0.100
2020/01/31 19:16:06.0	20.940	-0.650	0.190	0.090
2020/01/31 19:16:06.1	20.900	-0.600	0.130	0.080
2020/01/31 19:16:06.2	20.860	-0.550	0.060	0.070
2020/01/31 19:16:06.3	20.820	-0.490	-0.000	0.060
2020/01/31 19:16:06.4	20.780	-0.430	-0.070	0.050
2020/01/31 19:16:06.5	20.740	-0.370	-0.130	0.050
2020/01/31 19:16:06.6	20.700	-0.310	-0.190	0.040
2020/01/31 19:16:06.7	20.660	-0.250	-0.260	0.040
2020/01/31 19:16:06.8	20.630	-0.180	-0.310	0.030
2020/01/31 19:16:06.9	20.600	-0.120	-0.370	0.030
2020/01/31 19:16:07.0	20.570	-0.060	-0.430	0.030
2020/01/31 19:16:07.1	20.530	0.010	-0.490	0.030
2020/01/31 19:16:07.2	20.500	0.070	-0.550	0.020
2020/01/31 19:16:07.3	20.480	0.130	-0.610	0.020
2020/01/31 19:16:07.4	20.450	0.190	-0.660	0.020
2020/01/31 19:16:07.5	20.430	0.250	-0.710	0.010
2020/01/31 19:16:07.6	20.410	0.310	-0.770	0.010
2020/01/31 19:16:07.7	20.400	0.360	-0.820	0.000
2020/01/31 19:16:07.8	20.380	0.410	-0.860	-0.000
2020/01/31 19:16:07.9	20.370	0.460	-0.910	-0.010
2020/01/31 19:16:08.0	20.360	0.500	-0.950	-0.020
2020/01/31 19:16:08.1	20.360	0.550	-0.990	-0.020
2020/01/31 19:16:08.2	20.350	0.580	-1.020	-0.030
2020/01/31 19:16:08.3	20.350	0.620	-1.050	-0.040
2020/01/31 19:16:08.4	20.350	0.650	-1.080	-0.050
2020/01/31 19:16:08.5	20.350	0.680	-1.100	-0.060
2020/01/31 19:16:08.6	20.360	0.700	-1.120	-0.080
2020/01/31 19:16:08.7	20.360	0.720	-1.140	-0.090
2020/01/31 19:16:08.8	20.370	0.730	-1.150	-0.100
2020/01/31 19:16:08.9	20.370	0.740	-1.150	-0.110
2020/01/31 19:16:09.0	20.380	0.750	-1.150	-0.130
2020/01/31 19:16:09.1	20.390	0.750	-1.140	-0.140
2020/01/31 19:16:09.2	20.390	0.750	-1.130	-0.150
2020/01/31 19:16:09.3	20.400	0.740	-1.110	-0.150
2020/01/31 19:16:09.4	20.410	0.730	-1.090	-0.160
2020/01/31 19:16:09.5	20.420	0.720	-1.060	-0.170
2020/01/31 19:16:09.6	20.420	0.700	-1.020	-0.180
2020/01/31 19:16:09.7	20.430	0.690	-0.980	-0.180
2020/01/31 19:16:09.8	20.450	0.660	-0.930	-0.190
2020/01/31 19:16:09.9	20.460	0.640	-0.890	-0.190
2020/01/31 19:16:10.0	20.460	0.610	-0.830	-0.200
2020/01/31 19:16:10.1	20.470	0.580	-0.780	-0.200
2020/01/31 19:16:10.2	20.480	0.550	-0.720	-0.200
2020/01/31 19:16:10.3	20.490	0.520	-0.650	-0.210
2020/01/31 19:16:10.4	20.490	0.480	-0.590	-0.210
2020/01/31 19:16:10.5	20.500	0.450	-0.520	-0.210
2020/01/31 19:16:10.6	20.510	0.410	-0.450	-0.210
2020/01/31 19:16:10.7	20.520	0.370	-0.390	-0.210
2020/01/31 19:16:10.8	20.520	0.340	-0.320	-0.210
2020/01/31 19:16:10.9	20.530	0.300	-0.250	-0.200
2020/01/31 19:16:11.0	20.540	0.260	-0.180	-0.200
2020/01/31 19:16:11.1	20.540	0.220	-0.120	-0.190
2020/01/31 19:16:11.2	20.540	0.180	-0.050	-0.190
2020/01/31 19:16:11.3	20.550	0.150	0.010	-0.180
2020/01/31 19:16:11.4	20.550	0.110	0.060	-0.160
2020/01/31 19:16:11.5	20.550	0.080	0.120	-0.150
2020/01/31 19:16:11.6	20.550	0.040	0.170	-0.140
2020/01/31 19:16:11.7	20.550	0.010	0.220	-0.120
2020/01/31 19:16:11.8	20.550	-0.020	0.260	-0.100
2020/01/31 19:16:11.9	20.550	-0.050	0.300	-0.080
2020/01/31 19:16:12.0	20.540	-0.080	0.330	-0.060
2020/01/31 19:16:12.1	20.540	-0.100	0.360	-0.030
2020/01/31 19:16:12.2	20.530	-0.130	0.390	-0.010
2020/01/31 19:16:12.3	20.520	-0.150	0.410	0.020
2020/01/31 19:16:12.4	20.510	-0.170	0.420	0.050
2020/01/31 19:16:12.5	20.500	-0.190	0.430	0.070
2020/01/31 19:16:12.6	20.480	-0.210	0.440	0.100
2020/01/31 19:16:12.7	20.470	-0.230	0.440	0.130
2020/01/31 19:16:12.8	20.450	-0.240	0.440	0.160
2020/01/31 19:16:12.9	20.440	-0.250	0.430	0.190
2020/01/31 19:16:13.0	20.420	-0.270	0.420	0.220
2020/01/31 19:16:13.1	20.390	-0.280	0.410	0.240
2020/01/31 19:16:13.2	20.370	-0.290	0.400	0.270
2020/01/31 19:16:13.3	20.350	-0.290	0.380	0.300
2020/01/31 19:16:13.4	20.320	-0.300	0.360	0.330
2020/01/31 19:16:13.5	20.300	-0.310	0.340	0.350
2020/01/31 19:16:13.6	20.270	-0.310	0.320	0.380
2020/01/31 19:16:13.7	20.240	-0.310	0.300	0.400
2020/01/31 19:16:13.8	20.200	-0.310	0.280	0.420
2020/01/31 19:16:13.9	20.170	-0.310	0.260	0.440
2020/01/31 19:16:14.0	20.150	-0.310	0.240	0.460
2020/01/31 19:16:14.1	20.120	-0.310	0.220	0.480
2020/01/31 19:16:14.2	20.090	-0.310	0.190	0.490
2020/01/31 19:16:14.3	20.060	-0.300	0.170	0.500
2020/01/31 19:16:14.4	20.030	-0.290	0.150	0.510
2020/01/31 19:16:14.5	20.010	-0.290	0.130	0.520
2020/01/31 19:16:14.6	19.980	-0.280	0.110	0.530
2020/01/31 19:16:14.7	19.960	-0.270	0.090	0.530
2020/01/31 19:16:14.8	19.930	-0.270	0.070	0.520
2020/01/31 19:16:14.9	19.910	-0.260	0.050	0.520
2020/01/31 19:16:15.0	19.890	-0.250	0.030	0.520
2020/01/31 19:16:15.1	19.870	-0.240	0.010	0.510
2020/01/31 19:16:15.2	19.860	-0.230	-0.010	0.510
2020/01/31 19:16:15.3	19.840	-0.220	-0.020	0.500
2020/01/31 19:16:15.4	19.830	-0.210	-0.030	0.490
2020/01/31 19:16:15.5	19.810	-0.210	-0.040	0.490
2020/01/31 19:16:15.6	19.800	-0.200	-0.050	0.480
2020/01/31 19:16:15.7	19.790	-0.190	-0.060	0.480
2020/01/31 19:16:15.8	19.780	-0.190	-0.060	0.480
2020/01/31 19:16:15.9	19.770	-0.180	-0.060	0.470
2020/01/31 19:16:16.0	19.750	-0.170	-0.060	0.470
2020/01/31 19:16:16.1	19.740	-0.170	-0.060	0.470
2020/01/31 19:16:16.2	19.730	-0.170	-0.060	0.480
2020/01/31 19:16:16.3	19.720	-0.160	-0.050	0.480
2020/01/31 19:16:16.4	19.710	-0.160	-0.040	0.490
2020/01/31 19:16:16.5	19.690	-0.160	-0.030	0.500
2020/01/31 19:16:16.6	19.680	-0.160	-0.020	0.510
2020/01/31 19:16:16.7	19.670	-0.160	-0.000	0.520
2020/01/31 19:16:16.8	19.650	-0.160	0.010	0.530
2020/01/31 19:16:16.9	19.630	-0.160	0.030	0.540
2020/01/31 19:16:17.0	19.620	-0.170	0.050	0.560
2020/01/31 19:16:17.1	19.600	-0.170	0.060	0.580
2020/01/31 19:16:17.2	19.580	-0.170	0.080	0.600
2020/01/31 19:16:17.3	19.570	-0.180	0.100	0.620
2020/01/31 19:16:17.4	19.550	-0.180	0.110	0.640
2020/01/31 19:16:17.5	19.530	-0.180	0.130	0.660
2020/01/31 19:16:17.6	19.520	-0.190	0.140	0.680
2020/01/31 19:16:17.7	19.500	-0.190	0.150	0.700
2020/01/31 19:16:17.8	19.490	-0.190	0.160	0.720
2020/01/31 19:16:17.9	19.470	-0.200	0.160	0.740
2020/01/31 19:16:18.0	19.460	-0.200	0.160	0.750
2020/01/31 19:16:18.1	19.440	-0.200	0.150	0.770
2020/01/31 19:16:18.2	19.430	-0.200	0.140	0.780
2020/01/31 19:16:18.3	19.420	-0.200	0.120	0.790
2020/01/31 19:16:18.4	19.400	-0.190	0.100	0.790
2020/01/31 19:16:18.5	19.390	-0.190	0.080	0.800
2020/01/31 19:16:18.6	19.380	-0.180	0.040	0.800
2020/01/31 19:16:18.7	19.370	-0.170	0.010	0.790
2020/01/31 19:16:18.8	19.370	-0.160	-0.030	0.780
2020/01/31 19:16:18.9	19.360	-0.150	-0.080	0.770
2020/01/31 19:16:19.0	19.350	-0.140	-0.130	0.750
2020/01/31 19:16:19.1	19.350	-0.120	-0.190	0.730
2020/01/31 19:16:19.2	19.340	-0.100	-0.250	0.710
2020/01/31 19:16:19.3	19.340	-0.080	-0.320	0.680
2020/01/31 19:16:19.4	19.340	-0.060	-0.380	0.650
2020/01/31 19:16:19.5	19.340	-0.040	-0.450	0.620
2020/01/31 19:16:19.6	19.330	-0.020	-0.530	0.580
2020/01/31 19:16:19.7	19.330	0.010	-0.600	0.550
2020/01/31 19:16:19.8	19.320	0.040	-0.680	0.510
2020/01/31 19:16:19.9	19.320	0.070	-0.750	0.460
2020/01/31 19:16:20.0	19.320	0.100	-0.820	0.420
2020/01/31 19:16:20.1	19.320	0.130	-0.900	0.370
2020/01/31 19:16:20.2	19.320	0.160	-0.970	0.330
2020/01/31 19:16:20.3	19.320	0.190	-1.030	0.280
2020/01/31 19:16:20.4	19.320	0.220	-1.100	0.230
2020/01/31 19:16:20.5	19.320	0.250	-1.150	0.190
2020/01/31 19:16:20.6	19.320	0.280	-1.210	0.140
2020/01/31 19:16:20.7	19.320	0.310	-1.250	0.090
2020/01/31 19:16:20.8	19.320	0.340	-1.290	0.040
2020/01/31 19:16:20.9	19.320	0.370	-1.320	-0.010
2020/01/31 19:16:21.0	19.320	0.390	-1.350	-0.060
2020/01/31 19:16:21.1	19.320	0.410	-1.370	-0.110
2020/01/31 19:16:21.2	19.320	0.440	-1.380	-0.150
2020/01/31 19:16:21.3	19.320	0.450	-1.380	-0.200
2020/01/31 19:16:21.4	19.320	0.470	-1.380	-0.240
2020/01/31 19:16:21.5	19.330	0.480	-1.360	-0.280
2020/01/31 19:16:21.6	19.330	0.490	-1.340	-0.320
2020/01/31 19:16:21.7	19.330	0.500	-1.310	-0.360
2020/01/31 19:16:21.8	19.330	0.510	-1.270	-0.390
2020/01/31 19:16:21.9	19.330	0.510	-1.220	-0.420
2020/01/31 19:16:22.0	19.340	0.510	-1.170	-0.450
2020/01/31 19:16:22.1	19.340	0.500	-1.100	-0.480
2020/01/31 19:16:22.2	19.340	0.500	-1.030	-0.500
2020/01/31 19:16:22.3	19.340	0.480	-0.960	-0.520
2020/01/31 19:16:22.4	19.330	0.470	-0.880	-0.540
2020/01/31 19:16:22.5	19.330	0.460	-0.790	-0.550
2020/01/31 19:16:22.6	19.330	0.440	-0.700	-0.560
2020/01/31 19:16:22.7	19.330	0.410	-0.610	-0.560
2020/01/31 19:16:22.8	19.320	0.390	-0.510	-0.570
2020/01/31 19:16:22.9	19.320	0.360	-0.410	-0.560
2020/01/31 19:16:23.0	19.310	0.330	-0.310	-0.560
2020/01/31 19:16:23.1	19.300	0.300	-0.210	-0.550
2020/01/31 19:16:23.2	19.290	0.270	-0.110	-0.540
2020/01/31 19:16:23.3	19.280	0.240	-0.010	-0.520
2020/01/31 19:16:23.4	19.270	0.200	0.090	-0.500
2020/01/31 19:16:23.5	19.260	0.160	0.180	-0.480
2020/01/31 19:16:23.6	19.250	0.130	0.270	-0.450
2020/01/31 19:16:23.7	19.240	0.090	0.360	-0.430
2020/01/31 19:16:23.8	19.230	0.050	0.440	-0.400
2020/01/31 19:16:23.9	19.220	0.010	0.510	-0.370
2020/01/31 19:16:24.0	19.200	-0.020	0.580	-0.340
2020/01/31 19:16:24.1	19.190	-0.060	0.640	-0.310
2020/01/31 19:16:24.2	19.180	-0.100	0.700	-0.280
2020/01/31 19:16:24.3	19.170	-0.130	0.740	-0.250
2020/01/31 19:16:24.4	19.150	-0.160	0.780	-0.220
2020/01/31 19:16:24.5	19.140	-0.190	0.810	-0.190
2020/01/31 19:16:24.6	19.130	-0.220	0.840	-0.160
2020/01/31 19:16:24.7	19.120	-0.250	0.850	-0.140
2020/01/31 19:16:24.8	19.110	-0.270	0.860	-0.110
2020/01/31 19:16:24.9	19.090	-0.290	0.860	-0.080
2020/01/31 19:16:25.0	19.080	-0.310	0.850	-0.060
2020/01/31 19:16:25.1	19.070	-0.320	0.830	-0.040
2020/01/31 19:16:25.2	19.070	-0.330	0.810	-0.020
2020/01/31 19:16:25.3	19.060	-0.330	0.780	0.000
2020/01/31 19:16:25.4	19.050	-0.330	0.750	0.020
2020/01/31 19:16:25.5	19.040	-0.330	0.710	0.040
2020/01/31 19:16:25.6	19.030	-0.320	0.670	0.060
2020/01/31 19:16:25.7	19.020	-0.310	0.620	0.080
2020/01/31 19:16:25.8	19.020	-0.300	0.560	0.090
2020/01/31 19:16:25.9	19.010	-0.280	0.510	0.110
2020/01/31 19:16:26.0	19.010	-0.260	0.450	0.120
2020/01/31 19:16:26.1	19.000	-0.230	0.390	0.140
2020/01/31 19:16:26.2	18.990	-0.200	0.330	0.160
2020/01/31 19:16:26.3	18.980	-0.170	0.270	0.190
2020/01/31 19:16:26.4	18.970	-0.140	0.210	0.210
2020/01/31 19:16:26.5	18.960	-0.100	0.150	0.230
2020/01/31 19:16:26.6	18.940	-0.060	0.090	0.260
2020/01/31 19:16:26.7	18.930	-0.020	0.030	0.290
2020/01/31 19:16:26.8	18.920	0.010	-0.020	0.320
2020/01/31 19:16:26.9	18.900	0.050	-0.080	0.360
2020/01/31 19:16:27.0	18.880	0.090	-0.130	0.390
2020/01/31 19:16:27.1	18.860	0.130	-0.170	0.430
2020/01/31 19:16:27.2	18.840	0.160	-0.210	0.470
2020/01/31 19:16:27.3	18.810	0.200	-0.250	0.520
2020/01/31 19:16:27.4	18.790	0.230	-0.290	0.560
2020/01/31 19:16:27.5	18.760	0.260	-0.320	0.610
2020/01/31 19:16:27.6	18.730	0.290	-0.340	0.660
2020/01/31 19:16:27.7	18.700	0.310	-0.360	0.710
2020/01/31 19:16:27.8	18.670	0.330	-0.380	0.750
2020/01/31 19:16:27.9	18.640	0.340	-0.390	0.800
2020/01/31 19:16:28.0	18.600	0.350	-0.400	0.860
2020/01/31 19:16:28.1	18.570	0.360	-0.410	0.910
2020/01/31 19:16:28.2	18.540	0.360	-0.410	0.960
2020/01/31 19:16:28.3	18.500	0.360	-0.410	1.000
2020/01/31 19:16:28.4	18.470	0.360	-0.410	1.050
2020/01/31 19:16:28.5	18.440	0.350	-0.400	1.100
2020/01/31 19:16:28.6	18.410	0.330	-0.390	1.140
2020/01/31 19:16:28.7	18.380	0.310	-0.380	1.180
2020/01/31 19:16:28.8	18.350	0.290	-0.370	1.220
2020/01/31 19:16:28.9	18.330	0.260	-0.360	1.250
2020/01/31 19:16:29.0	18.300	0.230	-0.340	1.280
2020/01/31 19:16:29.1	18.280	0.200	-0.330	1.310
2020/01/31 19:16:29.2	18.260	0.170	-0.310	1.330
2020/01/31 19:16:29.3	18.240	0.130	-0.300	1.340
2020/01/31 19:16:29.4	18.220	0.090	-0.290	1.350
2020/01/31 19:16:29.5	18.210	0.050	-0.280	1.350
2020/01/31 19:16:29.6	18.200	0.010	-0.270	1.350
2020/01/31 19:16:29.7	18.200	-0.030	-0.260	1.340
2020/01/31 19:16:29.8	18.190	-0.070	-0.250	1.320
2020/01/31 19:16:29.9	18.190	-0.110	-0.240	1.300
2020/01/31 19:16:30.0	18.200	-0.150	-0.240	1.270
2020/01/31 19:16:30.1	18.210	-0.190	-0.240	1.230
2020/01/31 19:16:30.2	18.230	-0.220	-0.250	1.190
2020/01/31 19:16:30.3	18.240	-0.260	-0.250	1.140
2020/01/31 19:16:30.4	18.260	-0.290	-0.260	1.090
2020/01/31 19:16:30.5	18.290	-0.320	-0.270	1.030
2020/01/31 19:16:30.6	18.310	-0.350	-0.280	0.960
2020/01/31 19:16:30.7	18.340	-0.370	-0.300	0.890
2020/01/31 19:16:30.8	18.370	-0.390	-0.320	0.820
2020/01/31 19:16:30.9	18.400	-0.410	-0.330	0.750
2020/01/31 19:16:31.0	18.440	-0.420	-0.350	0.670
2020/01/31 19:16:31.1	18.470	-0.430	-0.370	0.590
2020/01/31 19:16:31.2	18.500	-0.430	-0.390	0.520
2020/01/31 19:16:31.3	18.530	-0.430	-0.410	0.440
2020/01/31 19:16:31.4	18.570	-0.430	-0.430	0.370
2020/01/31 19:16:31.5	18.600	-0.420	-0.440	0.290
2020/01/31 19:16:31.6	18.630	-0.410	-0.460	0.220
2020/01/31 19:16:31.7	18.660	-0.400	-0.470	0.160
2020/01/31 19:16:31.8	18.680	-0.380	-0.480	0.090
2020/01/31 19:16:31.9	18.700	-0.360	-0.480	0.030
2020/01/31 19:16:32.0	18.730	-0.340	-0.490	-0.030
2020/01/31 19:16:32.1	18.740	-0.320	-0.490	-0.080
2020/01/31 19:16:32.2	18.760	-0.290	-0.480	-0.130
2020/01/31 19:16:32.3	18.780	-0.270	-0.480	-0.170
2020/01/31 19:16:32.4	18.790	-0.240	-0.470	-0.210
2020/01/31 19:16:32.5	18.790	-0.210	-0.450	-0.240
2020/01/31 19:16:32.6	18.800	-0.180	-0.440	-0.270
2020/01/31 19:16:32.7	18.800	-0.150	-0.420	-0.290
2020/01/31 19:16:32.8	18.800	-0.120	-0.390	-0.320
2020/01/31 19:16:32.9	18.800	-0.090	-0.370	-0.330
2020/01/31 19:16:33.0	18.790	-0.070	-0.340	-0.350
2020/01/31 19:16:33.1	18.780	-0.040	-0.310	-0.350
2020/01/31 19:16:33.2	18.770	-0.020	-0.280	-0.360
2020/01/31 19:16:33.3	18.750	0.000	-0.240	-0.360
2020/01/31 19:16:33.4	18.730	0.020	-0.210	-0.360
2020/01/31 19:16:33.5	18.710	0.040	-0.170	-0.350
2020/01/31 19:16:33.6	18.680	0.050	-0.140	-0.350
2020/01/31 19:16:33.7	18.660	0.060	-0.100	-0.340
2020/01/31 19:16:33.8	18.630	0.070	-0.060	-0.320
2020/01/31 19:16:33.9	18.600	0.070	-0.020	-0.310
2020/01/31 19:16:34.0	18.560	0.080	0.010	-0.290
2020/01/31 19:16:34.1	18.530	0.080	0.040	-0.270
2020/01/31 19:16:34.2	18.500	0.070	0.080	-0.250
2020/01/31 19:16:34.3	18.460	0.070	0.110	-0.230
2020/01/31 19:16:34.4	18.430	0.060	0.140	-0.200
2020/01/31 19:16:34.5	18.390	0.050	0.160	-0.180
2020/01/31 19:16:34.6	18.350	0.040	0.190	-0.150
2020/01/31 19:16:34.7	18.310	0.030	0.210	-0.120
2020/01/31 19:16:34.8	18.270	0.010	0.230	-0.090
2020/01/31 19:16:34.9	18.230	-0.000	0.240	-0.060
2020/01/31 19:16:35.0	18.190	-0.020	0.250	-0.030
2020/01/31 19:16:35.1	18.160	-0.040	0.260	0.000
2020/01/31 19:16:35.2	18.120	-0.060	0.260	0.030
2020/01/31 19:16:35.3	18.090	-0.070	0.260	0.070
2020/01/31 19:16:35.4	18.050	-0.090	0.260	0.100
2020/01/31 19:16:35.5	18.020	-0.110	0.250	0.140
2020/01/31 19:16:35.6	17.990	-0.120	0.240	0.170
2020/01/31 19:16:35.7	17.960	-0.130	0.230	0.200
2020/01/31 19:16:35.8	17.930	-0.150	0.220	0.240
2020/01/31 19:16:35.9	17.910	-0.160	0.200	0.270
2020/01/31 19:16:36.0	17.880	-0.160	0.180	0.310
2020/01/31 19:16:36.1	17.850	-0.170	0.150	0.340
2020/01/31 19:16:36.2	17.830	-0.170	0.130	0.370
2020/01/31 19:16:36.3	17.800	-0.170	0.100	0.410
2020/01/31 19:16:36.4	17.780	-0.170	0.070	0.440
2020/01/31 19:16:36.5	17.760	-0.160	0.040	0.470
2020/01/31 19:16:36.6	17.740	-0.150	0.000	0.500
2020/01/31 19:16:36.7	17.720	-0.140	-0.030	0.530
2020/01/31 19:16:36.8	17.690	-0.130	-0.070	0.550
2020/01/31 19:16:36.9	17.670	-0.110	-0.110	0.580
2020/01/31 19:16:37.0	17.660	-0.080	-0.150	0.600
2020/01/31 19:16:37.1	17.640	-0.060	-0.190	0.620
2020/01/31 19:16:37.2	17.630	-0.030	-0.240	0.640
2020/01/31 19:16:37.3	17.610	0.000	-0.280	0.660
2020/01/31 19:16:37.4	17.600	0.030	-0.330	0.680
2020/01/31 19:16:37.5	17.590	0.070	-0.380	0.690
2020/01/31 19:16:37.6	17.580	0.110	-0.430	0.700
2020/01/31 19:16:37.7	17.570	0.150	-0.480	0.700
2020/01/31 19:16:37.8	17.560	0.190	-0.530	0.700
2020/01/31 19:16:37.9	17.550	0.240	-0.580	0.700
2020/01/31 19:16:38.0	17.550	0.280	-0.630	0.690
2020/01/31 19:16:38.1	17.550	0.320	-0.690	0.680
2020/01/31 19:16:38.2	17.550	0.370	-0.740	0.670
2020/01/31 19:16:38.3	17.550	0.410	-0.790	0.650
2020/01/31 19:16:38.4	17.550	0.460	-0.840	0.620
2020/01/31 19:16:38.5	17.560	0.500	-0.890	0.590
2020/01/31 19:16:38.6	17.560	0.540	-0.940	0.550
2020/01/31 19:16:38.7	17.570	0.580	-0.980	0.510
2020/01/31 19:16:38.8	17.590	0.610	-1.030	0.470
2020/01/31 19:16:38.9	17.600	0.640	-1.070	0.420
2020/01/31 19:16:39.0	17.620	0.670	-1.110	0.370
2020/01/31 19:16:39.1	17.640	0.700	-1.140	0.320
2020/01/31 19:16:39.2	17.660	0.720	-1.170	0.260
2020/01/31 19:16:39.3	17.680	0.740	-1.190	0.200
2020/01/31 19:16:39.4	17.700	0.750	-1.200	0.140
2020/01/31 19:16:39.5	17.730	0.750	-1.210	0.080
2020/01/31 19:16:39.6	17.750	0.760	-1.220	0.020
2020/01/31 19:16:39.7	17.780	0.750	-1.220	-0.040
2020/01/31 19:16:39.8	17.800	0.740	-1.200	-0.110
2020/01/31 19:16:39.9	17.820	0.730	-1.180	-0.160
2020/01/31 19:16:40.0	17.840	0.710	-1.160	-0.220
2020/01/31 19:16:40.1	17.870	0.690	-1.120	-0.270
2020/01/31 19:16:40.2	17.890	0.660	-1.080	-0.320
2020/01/31 19:16:40.3	17.910	0.620	-1.030	-0.360
2020/01/31 19:16:40.4	17.930	0.580	-0.970	-0.400
2020/01/31 19:16:40.5	17.940	0.540	-0.910	-0.430
2020/01/31 19:16:40.6	17.960	0.490	-0.840	-0.460
2020/01/31 19:16:40.7	17.970	0.440	-0.760	-0.490
2020/01/31 19:16:40.8	17.980	0.390	-0.670	-0.510
2020/01/31 19:16:40.9	17.990	0.330	-0.580	-0.520
2020/01/31 19:16:41.0	17.990	0.270	-0.480	-0.530
2020/01/31 19:16:41.1	17.990	0.210	-0.380	-0.540
2020/01/31 19:16:41.2	17.990	0.150	-0.280	-0.540
2020/01/31 19:16:41.3	17.990	0.080	-0.170	-0.530
2020/01/31 19:16:41.4	17.980	0.020	-0.060	-0.520
2020/01/31 19:16:41.5	17.970	-0.050	0.050	-0.510
2020/01/31 19:16:41.6	17.960	-0.110	0.160	-0.490
2020/01/31 19:16:41.7	17.950	-0.170	0.270	-0.470
2020/01/31 19:16:41.8	17.920	-0.230	0.380	-0.450
2020/01/31 19:16:41.9	17.900	-0.290	0.490	-0.420
2020/01/31 19:16:42.0	17.880	-0.350	0.600	-0.400
2020/01/31 19:16:42.1	17.860	-0.400	0.700	-0.370
2020/01/31 19:16:42.2	17.840	-0.450	0.800	-0.330
2020/01/31 19:16:42.3	17.820	-0.490	0.890	-0.300
2020/01/31 19:16:42.4	17.790	-0.530	0.970	-0.260
2020/01/31 19:16:42.5	17.760	-0.570	1.050	-0.220
2020/01/31 19:16:42.6	17.740	-0.600	1.120	-0.190
2020/01/31 19:16:42.7	17.710	-0.620	1.180	-0.150
2020/01/31 19:16:42.8	17.680	-0.640	1.240	-0.110
2020/01/31 19:16:42.9	17.650	-0.660	1.280	-0.070
2020/01/31 19:16:43.0	17.620	-0.670	1.310	-0.030
2020/01/31 19:16:43.1	17.580	-0.670	1.340	0.010
2020/01/31 19:16:43.2	17.550	-0.670	1.350	0.050
2020/01/31 19:16:43.3	17.520	-0.660	1.350	0.090
2020/01/31 19:16:43.4	17.490	-0.650	1.340	0.130
2020/01/31 19:16:43.5	17.450	-0.630	1.330	0.160
2020/01/31 19:16:43.6	17.420	-0.610	1.300	0.200
2020/01/31 19:16:43.7	17.390	-0.580	1.260	0.240
2020/01/31 19:16:43.8	17.350	-0.550	1.210	0.280
2020/01/31 19:16:43.9	17.310	-0.520	1.160	0.310
2020/01/31 19:16:44.0	17.280	-0.490	1.090	0.350
2020/01/31 19:16:44.1	17.240	-0.450	1.020	0.380
2020/01/31 19:16:44.2	17.200	-0.410	0.940	0.420
2020/01/31 19:16:44.3	17.170	-0.370	0.860	0.450
2020/01/31 19:16:44.4	17.130	-0.330	0.770	0.490
2020/01/31 19:16:44.5	17.090	-0.290	0.680	0.520
2020/01/31 19:16:44.6	17.060	-0.250	0.580	0.550
2020/01/31 19:16:44.7	17.020	-0.200	0.480	0.590
2020/01/31 19:16:44.8	17.000	-0.160	0.380	0.620
2020/01/31 19:16:44.9	16.960	-0.130	0.280	0.650
2020/01/31 19:16:45.0	16.930	-0.090	0.180	0.680
2020/01/31 19:16:45.1	16.900	-0.060	0.080	0.710
2020/01/31 19:16:45.2	16.870	-0.020	-0.020	0.740
2020/01/31 19:16:45.3	16.840	0.010	-0.120	0.770
2020/01/31 19:16:45.4	16.820	0.030	-0.210	0.790
2020/01/31 19:16:45.5	16.790	0.060	-0.300	0.810
2020/01/31 19:16:45.6	16.770	0.080	-0.390	0.830
2020/01/31 19:16:45.7	16.760	0.090	-0.470	0.850
2020/01/31 19:16:45.8	16.740	0.110	-0.550	0.870
2020/01/31 19:16:45.9	16.730	0.120	-0.630	0.880
2020/01/31 19:16:46.0	16.720	0.120	-0.690	0.890
2020/01/31 19:16:46.1	16.710	0.130	-0.760	0.900
2020/01/31 19:16:46.2	16.710	0.130	-0.820	0.900
2020/01/31 19:16:46.3	16.710	0.130	-0.870	0.910
2020/01/31 19:16:46.4	16.710	0.120	-0.920	0.900
2020/01/31 19:16:46.5	16.720	0.120	-0.960	0.900
2020/01/31 19:16:46.6	16.720	0.110	-0.990	0.890
2020/01/31 19:16:46.7	16.730	0.100	-1.020	0.880
2020/01/31 19:16:46.8	16.750	0.090	-1.040	0.860
2020/01/31 19:16:46.9	16.760	0.070	-1.060	0.840
2020/01/31 19:16:47.0	16.770	0.060	-1.070	0.820
2020/01/31 19:16:47.1	16.790	0.040	-1.070	0.800
2020/01/31 19:16:47.2	16.800	0.030	-1.070	0.770
2020/01/31 19:16:47.3	16.820	0.010	-1.060	0.750
2020/01/31 19:16:47.4	16.830	-0.010	-1.050	0.720
2020/01/31 19:16:47.5	16.850	-0.020	-1.030	0.680
2020/01/31 19:16:47.6	16.870	-0.040	-1.010	0.650
2020/01/31 19:16:47.7	16.880	-0.050	-0.980	0.620
2020/01/31 19:16:47.8	16.900	-0.060	-0.950	0.580
2020/01/31 19:16:47.9	16.910	-0.070	-0.920	0.540
2020/01/31 19:16:48.0	16.930	-0.080	-0.880	0.510
2020/01/31 19:16:48.1	16.940	-0.090	-0.840	0.480
2020/01/31 19:16:48.2	16.950	-0.100	-0.790	0.440
2020/01/31 19:16:48.3	16.950	-0.100	-0.750	0.410
2020/01/31 19:16:48.4	16.960	-0.100	-0.710	0.380
2020/01/31 19:16:48.5	16.970	-0.100	-0.660	0.350
2020/01/31 19:16:48.6	16.970	-0.100	-0.620	0.320
2020/01/31 19:16:48.7	16.980	-0.100	-0.570	0.290
2020/01/31 19:16:48.8	16.980	-0.090	-0.530	0.250
2020/01/31 19:16:48.9	16.980	-0.090	-0.490	0.230
2020/01/31 19:16:49.0	16.980	-0.080	-0.460	0.200
2020/01/31 19:16:49.1	16.980	-0.070	-0.430	0.170
2020/01/31 19:16:49.2	16.980	-0.060	-0.390	0.140
2020/01/31 19:16:49.3	16.980	-0.050	-0.370	0.120
2020/01/31 19:16:49.4	16.970	-0.040	-0.350	0.090
2020/01/31 19:16:49.5	16.970	-0.030	-0.330	0.070
2020/01/31 19:16:49.6	16.970	-0.010	-0.310	0.050
2020/01/31 19:16:49.7	16.960	-0.000	-0.300	0.020
2020/01/31 19:16:49.8	16.950	0.010	-0.290	-0.000
2020/01/31 19:16:49.9	16.940	0.020	-0.290	-0.020
2020/01/31 19:16:50.0	16.940	0.040	-0.290	-0.040
2020/01/31 19:16:50.1	16.930	0.050	-0.290	-0.060
2020/01/31 19:16:50.2	16.920	0.060	-0.290	-0.080
2020/01/31 19:16:50.3	16.920	0.070	-0.300	-0.100
2020/01/31 19:16:50.4	16.910	0.080	-0.310	-0.110
2020/01/31 19:16:50.5	16.910	0.090	-0.320	-0.130
2020/01/31 19:16:50.6	16.900	0.090	-0.340	-0.140
2020/01/31 19:16:50.7	16.900	0.100	-0.350	-0.150
2020/01/31 19:16:50.8	16.880	0.100	-0.370	-0.170
2020/01/31 19:16:50.9	16.880	0.110	-0.380	-0.180
2020/01/31 19:16:51.0	16.870	0.110	-0.390	-0.190
2020/01/31 19:16:51.1	16.870	0.110	-0.410	-0.200
2020/01/31 19:16:51.2	16.860	0.110	-0.420	-0.210
2020/01/31 19:16:51.3	16.860	0.100	-0.420	-0.220
2020/01/31 19:16:51.4	16.850	0.100	-0.430	-0.230
2020/01/31 19:16:51.5	16.840	0.100	-0.430	-0.230
2020/01/31 19:16:51.6	16.840	0.090	-0.430	-0.240
2020/01/31 19:16:51.7	16.830	0.080	-0.430	-0.240
2020/01/31 19:16:51.8	16.830	0.080	-0.420	-0.240
2020/01/31 19:16:51.9	16.820	0.070	-0.410	-0.240
2020/01/31 19:16:52.0	16.810	0.060	-0.390	-0.240
2020/01/31 19:16:52.1	16.800	0.050	-0.370	-0.230
2020/01/31 19:16:52.2	16.790	0.040	-0.340	-0.230
2020/01/31 19:16:52.3	16.770	0.030	-0.310	-0.220
2020/01/31 19:16:52.4	16.760	0.020	-0.280	-0.200
2020/01/31 19:16:52.5	16.740	0.020	-0.240	-0.190
2020/01/31 19:16:52.6	16.730	0.010	-0.200	-0.170
2020/01/31 19:16:52.7	16.710	0.000	-0.160	-0.150
2020/01/31 19:16:52.8	16.680	-0.000	-0.110	-0.130
2020/01/31 19:16:52.9	16.660	-0.010	-0.060	-0.100
2020/01/31 19:16:53.0	16.630	-0.010	-0.010	-0.080
2020/01/31 19:16:53.1	16.610	-0.010	0.040	-0.040
2020/01/31 19:16:53.2	16.590	-0.010	0.090	-0.010
2020/01/31 19:16:53.3	16.560	-0.010	0.140	0.020
2020/01/31 19:16:53.4	16.530	-0.010	0.190	0.060
2020/01/31 19:16:53.5	16.510	-0.000	0.240	0.100
2020/01/31 19:16:53.6	16.480	0.010	0.280	0.140
2020/01/31 19:16:53.7	16.450	0.010	0.320	0.180
2020/01/31 19:16:53.8	16.420	0.020	0.360	0.220
2020/01/31 19:16:53.9	16.390	0.040	0.390	0.260
2020/01/31 19:16:54.0	16.360	0.050	0.420	0.300
2020/01/31 19:16:54.1	16.330	0.070	0.440	0.340
2020/01/31 19:16:54.2	16.310	0.080	0.460	0.370
2020/01/31 19:16:54.3	16.280	0.100	0.470	0.410
2020/01/31 19:16:54.4	16.250	0.120	0.470	0.450
2020/01/31 19:16:54.5	16.230	0.140	0.470	0.480
2020/01/31 19:16:54.6	16.200	0.160	0.460	0.510
2020/01/31 19:16:54.7	16.180	0.180	0.450	0.540
2020/01/31 19:16:54.8	16.140	0.200	0.430	0.570
2020/01/31 19:16:54.9	16.120	0.220	0.400	0.590
2020/01/31 19:16:55.0	16.100	0.240	0.380	0.610
2020/01/31 19:16:55.1	16.080	0.260	0.340	0.630
2020/01/31 19:16:55.2	16.060	0.280	0.310	0.650
2020/01/31 19:16:55.3	16.040	0.300	0.270	0.670
2020/01/31 19:16:55.4	16.030	0.310	0.230	0.680
2020/01/31 19:16:55.5	16.010	0.320	0.180	0.690
2020/01/31 19:16:55.6	16.000	0.340	0.140	0.700
2020/01/31 19:16:55.7	15.990	0.340	0.090	0.700
2020/01/31 19:16:55.8	15.980	0.350	0.050	0.700
2020/01/31 19:16:55.9	15.970	0.360	0.000	0.700
2020/01/31 19:16:56.0	15.960	0.360	-0.040	0.700
2020/01/31 19:16:56.1	15.950	0.360	-0.090	0.700
2020/01/31 19:16:56.2	15.950	0.350	-0.130	0.690
2020/01/31 19:16:56.3	15.940	0.350	-0.170	0.680
2020/01/31 19:16:56.4	15.930	0.340	-0.200	0.670
2020/01/31 19:16:56.5	15.930	0.320	-0.240	0.660
2020/01/31 19:16:56.6	15.930	0.310	-0.270	0.640
2020/01/31 19:16:56.7	15.930	0.290	-0.290	0.630
2020/01/31 19:16:56.8	15.920	0.270	-0.320	0.610
2020/01/31 19:16:56.9	15.920	0.250	-0.340	0.580
2020/01/31 19:16:57.0	15.920	0.230	-0.360	0.560
2020/01/31 19:16:57.1	15.930	0.200	-0.370	0.530
2020/01/31 19:16:57.2	15.930	0.170	-0.380	0.500
2020/01/31 19:16:57.3	15.940	0.140	-0.390	0.470
2020/01/31 19:16:57.4	15.940	0.110	-0.400	0.440
2020/01/31 19:16:57.5	15.950	0.080	-0.400	0.400
2020/01/31 19:16:57.6	15.960	0.040	-0.410	0.370
2020/01/31 19:16:57.7	15.960	0.010	-0.410	0.330
2020/01/31 19:16:57.8	15.970	-0.030	-0.400	0.290
2020/01/31 19:16:57.9	15.970	-0.060	-0.400	0.250
2020/01/31 19:16:58.0	15.980	-0.100	-0.400	0.200
2020/01/31 19:16:58.1	15.990	-0.140	-0.390	0.160
2020/01/31 19:16:58.2	16.000	-0.170	-0.390	0.120
2020/01/31 19:16:58.3	16.020	-0.200	-0.390	0.080
2020/01/31 19:16:58.4	16.030	-0.240	-0.380	0.040
2020/01/31 19:16:58.5	16.040	-0.270	-0.380	-0.000
2020/01/31 19:16:58.6	16.050	-0.300	-0.380	-0.050
2020/01/31 19:16:58.7	16.060	-0.330	-0.370	-0.090
2020/01/31 19:16:58.8	16.070	-0.350	-0.380	-0.130
2020/01/31 19:16:58.9	16.080	-0.380	-0.380	-0.170
2020/01/31 19:16:59.0	16.090	-0.400	-0.380	-0.210
2020/01/31 19:16:59.1	16.100	-0.420	-0.380	-0.240
2020/01/31 19:16:59.2	16.110	-0.440	-0.380	-0.280
2020/01/31 19:16:59.3	16.120	-0.450	-0.380	-0.310
2020/01/31 19:16:59.4	16.130	-0.460	-0.380	-0.340
2020/01/31 19:16:59.5	16.130	-0.470	-0.380	-0.370
2020/01/31 19:16:59.6	16.140	-0.470	-0.380	-0.400
2020/01/31 19:16:59.7	16.150	-0.480	-0.380	-0.420
2020/01/31 19:16:59.8	16.160	-0.470	-0.380	-0.440
2020/01/31 19:16:59.9	16.170	-0.470	-0.380	-0.460
2020/01/31 19:17:00.0	16.170	-0.460	-0.380	-0.470
2020/01/31 19:17:00.1	16.170	-0.450	-0.380	-0.480
2020/01/31 19:17:00.2	16.170	-0.440	-0.380	-0.480
2020/01/31 19:17:00.3	16.170	-0.420	-0.380	-0.480
2020/01/31 19:17:00.4	16.170	-0.400	-0.370	-0.480
2020/01/31 19:17:00.5	16.160	-0.380	-0.360	-0.470
2020/01/31 19:17:00.6	16.150	-0.360	-0.350	-0.460
2020/01/31 19:17:00.7	16.140	-0.340	-0.340	-0.440
2020/01/31 19:17:00.8	16.140	-0.310	-0.330	-0.420
2020/01/31 19:17:00.9	16.130	-0.280	-0.320	-0.400
2020/01/31 19:17:01.0	16.110	-0.260	-0.300	-0.370
2020/01/31 19:17:01.1	16.090	-0.230	-0.280	-0.340
2020/01/31 19:17:01.2	16.070	-0.200	-0.260	-0.300
2020/01/31 19:17:01.3	16.050	-0.170	-0.230	-0.260
2020/01/31 19:17:01.4	16.020	-0.140	-0.210	-0.220
2020/01/31 19:17:01.5	16.000	-0.120	-0.180	-0.170
2020/01/31 19:17:01.6	15.970	-0.090	-0.150	-0.130
2020/01/31 19:17:01.7	15.940	-0.070	-0.120	-0.080
2020/01/31 19:17:01.8	15.900	-0.040	-0.090	-0.020
2020/01/31 19:17:01.9	15.870	-0.020	-0.060	0.030
2020/01/31 19:17:02.0	15.830	0.000	-0.020	0.090
2020/01/31 19:17:02.1	15.800	0.020	0.020	0.140
2020/01/31 19:17:02.2	15.760	0.040	0.050	0.200
2020/01/31 19:17:02.3	15.730	0.050	0.090	0.260
2020/01/31 19:17:02.4	15.690	0.060	0.120	0.320
2020/01/31 19:17:02.5	15.650	0.070	0.160	0.380
2020/01/31 19:17:02.6	15.620	0.080	0.190	0.440
2020/01/31 19:17:02.7	15.580	0.090	0.230	0.500
2020/01/31 19:17:02.8	15.540	0.090	0.260	0.550
2020/01/31 19:17:02.9	15.510	0.090	0.290	0.610
2020/01/31 19:17:03.0	15.470	0.090	0.310	0.660
2020/01/31 19:17:03.1	15.440	0.090	0.330	0.710
2020/01/31 19:17:03.2	15.410	0.090	0.350	0.760
2020/01/31 19:17:03.3	15.380	0.090	0.370	0.810
2020/01/31 19:17:03.4	15.350	0.080	0.370	0.850
2020/01/31 19:17:03.5	15.320	0.070	0.380	0.900
2020/01/31 19:17:03.6	15.300	0.070	0.380	0.930
2020/01/31 19:17:03.7	15.280	0.060	0.370	0.970
2020/01/31 19:17:03.8	15.260	0.050	0.350	1.000
2020/01/31 19:17:03.9	15.240	0.050	0.340	1.020
2020/01/31 19:17:04.0	15.230	0.040	0.310	1.040
2020/01/31 19:17:04.1	15.220	0.030	0.280	1.050
2020/01/31 19:17:04.2	15.210	0.020	0.240	1.060
2020/01/31 19:17:04.3	15.210	0.020	0.200	1.060
2020/01/31 19:17:04.4	15.200	0.010	0.150	1.060
2020/01/31 19:17:04.5	15.200	0.010	0.090	1.050
2020/01/31 19:17:04.6	15.210	0.010	0.030	1.030
2020/01/31 19:17:04.7	15.210	0.000	-0.030	1.010
2020/01/31 19:17:04.8	15.220	0.000	-0.100	0.990
2020/01/31 19:17:04.9	15.230	0.000	-0.170	0.960
2020/01/31 19:17:05.0	15.240	0.000	-0.240	0.930
2020/01/31 19:17:05.1	15.250	0.000	-0.310	0.890
2020/01/31 19:17:05.2	15.260	0.010	-0.390	0.850
2020/01/31 19:17:05.3	15.270	0.010	-0.460	0.810
2020/01/31 19:17:05.4	15.290	0.020	-0.530	0.770
2020/01/31 19:17:05.5	15.300	0.020	-0.600	0.720
2020/01/31 19:17:05.6	15.310	0.030	-0.670	0.680
2020/01/31 19:17:05.7	15.320	0.040	-0.730	0.630
2020/01/31 19:17:05.8	15.340	0.040	-0.790	0.580
2020/01/31 19:17:05.9	15.350	0.050	-0.840	0.530
2020/01/31 19:17:06.0	15.360	0.060	-0.890	0.480
2020/01/31 19:17:06.1	15.370	0.070	-0.940	0.440
2020/01/31 19:17:06.2	15.380	0.080	-0.970	0.390
2020/01/31 19:17:06.3	15.390	0.080	-1.000	0.340
2020/01/31 19:17:06.4	15.400	0.090	-1.030	0.300
2020/01/31 19:17:06.5	15.410	0.100	-1.040	0.250
2020/01/31 19:17:06.6	15.410	0.110	-1.060	0.210
2020/01/31 19:17:06.7	15.420	0.110	-1.060	0.170
2020/01/31 19:17:06.8	15.430	0.120	-1.060	0.120
2020/01/31 19:17:06.9	15.430	0.130	-1.050	0.080
2020/01/31 19:17:07.0	15.440	0.130	-1.030	0.040
2020/01/31 19:17:07.1	15.440	0.140	-1.010	0.000
2020/01/31 19:17:07.2	15.440	0.140	-0.980	-0.040
2020/01/31 19:17:07.3	15.450	0.140	-0.950	-0.070
2020/01/31 19:17:07.4	15.450	0.150	-0.910	-0.100
2020/01/31 19:17:07.5	15.450	0.150	-0.870	-0.130
2020/01/31 19:17:07.6	15.450	0.150	-0.820	-0.160
2020/01/31 19:17:07.7	15.440	0.150	-0.770	-0.190
2020/01/31 19:17:07.8	15.440	0.150	-0.720	-0.220
2020/01/31 19:17:07.9	15.440	0.150	-0.660	-0.240
2020/01/31 19:17:08.0	15.430	0.150	-0.600	-0.260
2020/01/31 19:17:08.1	15.430	0.150	-0.530	-0.280
2020/01/31 19:17:08.2	15.420	0.150	-0.470	-0.290
2020/01/31 19:17:08.3	15.410	0.140	-0.400	-0.300
2020/01/31 19:17:08.4	15.400	0.140	-0.330	-0.310
2020/01/31 19:17:08.5	15.390	0.140	-0.270	-0.310
2020/01/31 19:17:08.6	15.380	0.140	-0.200	-0.310
2020/01/31 19:17:08.7	15.360	0.140	-0.130	-0.310
2020/01/31 19:17:08.8	15.350	0.140	-0.070	-0.310
2020/01/31 19:17:08.9	15.330	0.130	-0.010	-0.300
2020/01/31 19:17:09.0	15.320	0.130	0.050	-0.290
2020/01/31 19:17:09.1	15.300	0.130	0.110	-0.280
2020/01/31 19:17:09.2	15.280	0.130	0.160	-0.270
2020/01/31 19:17:09.3	15.270	0.130	0.210	-0.250
2020/01/31 19:17:09.4	15.250	0.120	0.260	-0.230
2020/01/31 19:17:09.5	15.240	0.120	0.300	-0.210
2020/01/31 19:17:09.6	15.220	0.120	0.330	-0.190
2020/01/31 19:17:09.7	15.210	0.120	0.360	-0.170
2020/01/31 19:17:09.8	15.190	0.120	0.390	-0.150
2020/01/31 19:17:09.9	15.170	0.120	0.410	-0.130
2020/01/31 19:17:10.0	15.160	0.110	0.420	-0.110
2020/01/31 19:17:10.1	15.150	0.110	0.430	-0.080
2020/01/31 19:17:10.2	15.140	0.110	0.440	-0.060
2020/01/31 19:17:10.3	15.130	0.100	0.440	-0.040
2020/01/31 19:17:10.4	15.110	0.100	0.430	-0.020
2020/01/31 19:17:10.5	15.100	0.090	0.420	0.000
2020/01/31 19:17:10.6	15.090	0.090	0.410	0.020
2020/01/31 19:17:10.7	15.080	0.080	0.400	0.050
2020/01/31 19:17:10.8	15.070	0.080	0.370	0.060
2020/01/31 19:17:10.9	15.060	0.070	0.350	0.080
2020/01/31 19:17:11.0	15.050	0.060	0.330	0.100
2020/01/31 19:17:11.1	15.040	0.050	0.310	0.120
2020/01/31 19:17:11.2	15.020	0.040	0.280	0.140
2020/01/31 19:17:11.3	15.010	0.040	0.260	0.160
2020/01/31 19:17:11.4	15.000	0.030	0.230	0.180
2020/01/31 19:17:11.5	14.980	0.020	0.200	0.200
2020/01/31 19:17:11.6	14.960	0.010	0.180	0.220
2020/01/31 19:17:11.7	14.950	-0.000	0.160	0.240
2020/01/31 19:17:11.8	14.920	-0.010	0.140	0.250
2020/01/31 19:17:11.9	14.900	-0.030	0.110	0.280
2020/01/31 19:17:12.0	14.880	-0.040	0.090	0.300
2020/01/31 19:17:12.1	14.860	-0.040	0.080	0.320
2020/01/31 19:17:12.2	14.830	-0.050	0.060	0.340
2020/01/31 19:17:12.3	14.810	-0.060	0.040	0.360
2020/01/31 19:17:12.4	14.780	-0.070	0.030	0.380
2020/01/31 19:17:12.5	14.760	-0.080	0.020	0.400
2020/01/31 19:17:12.6	14.730	-0.080	0.010	0.420
2020/01/31 19:17:12.7	14.700	-0.090	-0.000	0.440
2020/01/31 19:17:12.8	14.670	-0.090	-0.020	0.470
2020/01/31 19:17:12.9	14.650	-0.100	-0.020	0.480
2020/01/31 19:17:13.0	14.620	-0.100	-0.030	0.500
2020/01/31 19:17:13.1	14.590	-0.100	-0.040	0.520
2020/01/31 19:17:13.2	14.570	-0.100	-0.050	0.540
2020/01/31 19:17:13.3	14.540	-0.100	-0.060	0.550
2020/01/31 19:17:13.4	14.520	-0.100	-0.070	0.570
2020/01/31 19:17:13.5	14.500	-0.100	-0.080	0.580
2020/01/31 19:17:13.6	14.480	-0.090	-0.090	0.580
2020/01/31 19:17:13.7	14.460	-0.090	-0.110	0.590
2020/01/31 19:17:13.8	14.440	-0.080	-0.130	0.590
2020/01/31 19:17:13.9	14.420	-0.080	-0.150	0.590
2020/01/31 19:17:14.0	14.410	-0.070	-0.170	0.590
2020/01/31 19:17:14.1	14.400	-0.060	-0.190	0.580
2020/01/31 19:17:14.2	14.390	-0.060	-0.220	0.570
2020/01/31 19:17:14.3	14.380	-0.050	-0.250	0.560
2020/01/31 19:17:14.4	14.380	-0.040	-0.290	0.550
2020/01/31 19:17:14.5	14.380	-0.040	-0.320	0.530
2020/01/31 19:17:14.6	14.380	-0.030	-0.360	0.510
2020/01/31 19:17:14.7	14.380	-0.030	-0.400	0.480
2020/01/31 19:17:14.8	14.370	-0.020	-0.430	0.450
2020/01/31 19:17:14.9	14.370	-0.020	-0.470	0.430
2020/01/31 19:17:15.0	14.380	-0.020	-0.510	0.390
2020/01/31 19:17:15.1	14.390	-0.010	-0.550	0.360
2020/01/31 19:17:15.2	14.400	-0.010	-0.590	0.330
2020/01/31 19:17:15.3	14.410	-0.010	-0.630	0.290
2020/01/31 19:17:15.4	14.420	-0.020	-0.660	0.260
2020/01/31 19:17:15.5	14.430	-0.020	-0.690	0.220
2020/01/31 19:17:15.6	14.450	-0.030	-0.720	0.180
2020/01/31 19:17:15.7	14.460	-0.030	-0.750	0.150
2020/01/31 19:17:15.8	14.490	-0.040	-0.780	0.110
2020/01/31 19:17:15.9	14.500	-0.050	-0.790	0.070
2020/01/31 19:17:16.0	14.520	-0.070	-0.810	0.040
2020/01/31 19:17:16.1	14.530	-0.080	-0.820	0.000
2020/01/31 19:17:16.2	14.550	-0.100	-0.820	-0.030
2020/01/31 19:17:16.3	14.560	-0.110	-0.820	-0.070
2020/01/31 19:17:16.4	14.580	-0.130	-0.810	-0.100
2020/01/31 19:17:16.5	14.590	-0.150	-0.800	-0.130
2020/01/31 19:17:16.6	14.600	-0.170	-0.780	-0.160
2020/01/31 19:17:16.7	14.620	-0.190	-0.760	-0.190
2020/01/31 19:17:16.8	14.620	-0.210	-0.730	-0.210
2020/01/31 19:17:16.9	14.630	-0.230	-0.700	-0.240
2020/01/31 19:17:17.0	14.640	-0.250	-0.660	-0.260
2020/01/31 19:17:17.1	14.650	-0.270	-0.620	-0.290
2020/01/31 19:17:17.2				
2020/01/31 19:17:17.3	14.650	-0.290	-0.570	-0.310
2020/01/31 19:17:17.4	14.660	-0.320	-0.470	-0.350
2020/01/31 19:17:17.5	14.660	-0.340	-0.420	-0.360
2020/01/31 19:17:17.6	14.660	-0.350	-0.360	-0.380
2020/01/31 19:17:17.7	14.660	-0.360	-0.310	-0.390
2020/01/31 19:17:17.8	14.650	-0.370	-0.250	-0.400
2020/01/31 19:17:17.9	14.640	-0.380	-0.190	-0.410
2020/01/31 19:17:18.0	14.630	-0.380	-0.130	-0.410
2020/01/31 19:17:18.1	14.620	-0.390	-0.070	-0.420
2020/01/31 19:17:18.2	14.610	-0.390	-0.010	-0.410
2020/01/31 19:17:18.3	14.590	-0.380	0.050	-0.410
2020/01/31 19:17:18.4	14.570	-0.370	0.100	-0.400
2020/01/31 19:17:18.5	14.550	-0.360	0.160	-0.390
2020/01/31 19:17:18.6	14.530	-0.350	0.210	-0.370
2020/01/31 19:17:18.7	14.500	-0.330	0.260	-0.350
2020/01/31 19:17:18.8	14.470	-0.310	0.310	-0.320
2020/01/31 19:17:18.9	14.440	-0.290	0.350	-0.290
2020/01/31 19:17:19.0	14.410	-0.260	0.390	-0.250
2020/01/31 19:17:19.1	14.370	-0.240	0.430	-0.210
2020/01/31 19:17:19.2	14.330	-0.200	0.460	-0.170
2020/01/31 19:17:19.3				
2020/01/31 19:17:19.4	14.290	-0.170	0.490	-0.120
2020/01/31 19:17:19.5	14.200	-0.100	0.520	-0.010
2020/01/31 19:17:19.6	14.160	-0.060	0.530	0.050
2020/01/31 19:17:19.7	14.110	-0.020	0.540	0.120
2020/01/31 19:17:19.8	14.070	0.020	0.530	0.180
2020/01/31 19:17:19.9	14.020	0.060	0.530	0.250
2020/01/31 19:17:20.0	13.970	0.100	0.520	0.320
2020/01/31 19:17:20.1	13.920	0.140	0.500	0.390
2020/01/31 19:17:20.2	13.880	0.190	0.470	0.460
2020/01/31 19:17:20.3	13.830	0.230	0.440	0.530
2020/01/31 19:17:20.4	13.790	0.270	0.400	0.600
2020/01/31 19:17:20.5	13.750	0.300	0.360	0.670
2020/01/31 19:17:20.6	13.710	0.340	0.310	0.740
2020/01/31 19:17:20.7	13.670	0.380	0.260	0.800
2020/01/31 19:17:20.8	13.650	0.410	0.200	0.870
2020/01/31 19:17:20.9	13.620	0.440	0.140	0.930
2020/01/31 19:17:21.0	13.590	0.470	0.080	0.980
2020/01/31 19:17:21.1	13.570	0.490	0.010	1.030
2020/01/31 19:17:21.2	13.560	0.520	-0.070	1.070
2020/01/31 19:17:21.3	13.540	0.540	-0.140	1.110
2020/01/31 19:17:21.4				
2020/01/31 19:17:21.5	13.530	0.550	-0.210	1.140
2020/01/31 19:17:21.6	13.530	0.570	-0.360	1.190
2020/01/31 19:17:21.7	13.540	0.580	-0.430	1.210
2020/01/31 19:17:21.8	13.550	0.580	-0.510	1.220
2020/01/31 19:17:21.9	13.560	0.580	-0.570	1.220
2020/01/31 19:17:22.0	13.570	0.580	-0.640	1.220
2020/01/31 19:17:22.1	13.590	0.570	-0.690	1.220
2020/01/31 19:17:22.2	13.610	0.560	-0.740	1.210
2020/01/31 19:17:22.3	13.630	0.540	-0.790	1.200
2020/01/31 19:17:22.4	13.650	0.520	-0.830	1.180
2020/01/31 19:17:22.5	13.670	0.500	-0.860	1.160
2020/01/31 19:17:22.6	13.700	0.480	-0.890	1.140
2020/01/31 19:17:22.7	13.720	0.450	-0.900	1.110
2020/01/31 19:17:22.8	13.740	0.420	-0.910	1.080
2020/01/31 19:17:22.9	13.760	0.390	-0.910	1.050
2020/01/31 19:17:23.0	13.780	0.360	-0.900	1.020
2020/01/31 19:17:23.1	13.800	0.320	-0.880	0.980
2020/01/31 19:17:23.2	13.810	0.280	-0.860	0.950
2020/01/31 19:17:23.3	13.830	0.240	-0.830	0.910
2020/01/31 19:17:23.4	13.840	0.200	-0.790	0.870
2020/01/31 19:17:23.5				
2020/01/31 19:17:23.6	13.850	0.160	-0.740	0.840
2020/01/31 19:17:23.7	13.860	0.070	-0.640	0.760
2020/01/31 19:17:23.8	13.860	0.030	-0.580	0.710
2020/01/31 19:17:23.9	13.860	-0.010	-0.520	0.670
2020/01/31 19:17:24.0	13.860	-0.050	-0.450	0.640
2020/01/31 19:17:24.1	13.850	-0.090	-0.380	0.600
2020/01/31 19:17:24.2	13.840	-0.130	-0.320	0.560
2020/01/31 19:17:24.3	13.830	-0.170	-0.250	0.530
2020/01/31 19:17:24.4	13.820	-0.210	-0.180	0.490
2020/01/31 19:17:24.5	13.810	-0.240	-0.110	0.460
2020/01/31 19:17:24.6	13.790	-0.280	-0.050	0.420
2020/01/31 19:17:24.7	13.770	-0.300	0.010	0.390
2020/01/31 19:17:24.8	13.750	-0.330	0.070	0.360
2020/01/31 19:17:24.9	13.730	-0.360	0.120	0.330
2020/01/31 19:17:25.0	13.710	-0.380	0.160	0.300
2020/01/31 19:17:25.1	13.680	-0.390	0.200	0.270
2020/01/31 19:17:25.2	13.660	-0.410	0.230	0.250
2020/01/31 19:17:25.3	13.640	-0.420	0.260	0.220
2020/01/31 19:17:25.4	13.610	-0.430	0.280	0.200
2020/01/31 19:17:25.5	13.590	-0.430	0.290	0.170
2020/01/31 19:17:25.6				
2020/01/31 19:17:25.7	13.570	-0.430	0.290	0.150
2020/01/31 19:17:25.8	13.520	-0.420	0.270	0.100
2020/01/31 19:17:25.9	13.490	-0.410	0.250	0.080
2020/01/31 19:17:26.0	13.470	-0.390	0.230	0.060
2020/01/31 19:17:26.1	13.450	-0.380	0.200	0.040
2020/01/31 19:17:26.2	13.430	-0.360	0.160	0.020
2020/01/31 19:17:26.3	13.410	-0.330	0.120	-0.000
2020/01/31 19:17:26.4	13.390	-0.310	0.070	-0.020
2020/01/31 19:17:26.5	13.380	-0.280	0.020	-0.050
2020/01/31 19:17:26.6	13.360	-0.250	-0.040	-0.070
2020/01/31 19:17:26.7	13.350	-0.220	-0.100	-0.090
2020/01/31 19:17:26.8	13.330	-0.190	-0.160	-0.120
2020/01/31 19:17:26.9	13.320	-0.160	-0.220	-0.140
2020/01/31 19:17:27.0	13.310	-0.130	-0.280	-0.160
2020/01/31 19:17:27.1	13.300	-0.100	-0.340	-0.180
2020/01/31 19:17:27.2	13.300	-0.070	-0.400	-0.210
2020/01/31 19:17:27.3	13.290	-0.040	-0.460	-0.230
2020/01/31 19:17:27.4	13.290	-0.010	-0.510	-0.250
2020/01/31 19:17:27.5	13.290	0.020	-0.560	-0.280
2020/01/31 19:17:27.6	13.280	0.050	-0.610	-0.300
2020/01/31 19:17:27.7				
2020/01/31 19:17:27.8	13.280	0.070	-0.640	-0.330
2020/01/31 19:17:27.9	13.300	0.110	-0.700	-0.370
2020/01/31 19:17:28.0	13.300	0.120	-0.720	-0.390
2020/01/31 19:17:28.1	13.300	0.140	-0.740	-0.410
2020/01/31 19:17:28.2	13.310	0.150	-0.740	-0.430
2020/01/31 19:17:28.3	13.310	0.150	-0.740	-0.450
2020/01/31 19:17:28.4	13.310	0.160	-0.730	-0.470
2020/01/31 19:17:28.5	13.320	0.150	-0.710	-0.480
2020/01/31 19:17:28.6	13.320	0.150	-0.680	-0.500
2020/01/31 19:17:28.7	13.320	0.140	-0.650	-0.510
2020/01/31 19:17:28.8	13.320	0.140	-0.610	-0.520
2020/01/31 19:17:28.9	13.320	0.120	-0.560	-0.520
2020/01/31 19:17:29.0	13.320	0.110	-0.500	-0.520
2020/01/31 19:17:29.1	13.310	0.090	-0.440	-0.520
2020/01/31 19:17:29.2	13.310	0.070	-0.370	-0.510
2020/01/31 19:17:29.3	13.300	0.050	-0.290	-0.490
2020/01/31 19:17:29.4	13.290	0.030	-0.210	-0.470
2020/01/31 19:17:29.5	13.280	0.010	-0.130	-0.450
2020/01/31 19:17:29.6	13.270	-0.010	-0.050	-0.420
2020/01/31 19:17:29.7	13.250	-0.040	0.040	-0.380
2020/01/31 19:17:29.8				
2020/01/31 19:17:29.9	13.240	-0.060	0.130	-0.340
2020/01/31 19:17:30.0	13.190	-0.110	0.310	-0.250
2020/01/31 19:17:30.1	13.170	-0.130	0.390	-0.200
2020/01/31 19:17:30.2	13.140	-0.150	0.480	-0.140
2020/01/31 19:17:30.3	13.110	-0.170	0.560	-0.090
2020/01/31 19:17:30.4	13.070	-0.190	0.630	-0.030
2020/01/31 19:17:30.5	13.040	-0.210	0.710	0.030
2020/01/31 19:17:30.6	13.000	-0.220	0.770	0.100
2020/01/31 19:17:30.7	12.960	-0.230	0.830	0.160
2020/01/31 19:17:30.8	12.910	-0.240	0.870	0.220
2020/01/31 19:17:30.9	12.870	-0.250	0.910	0.290
2020/01/31 19:17:31.0	12.830	-0.250	0.940	0.350
2020/01/31 19:17:31.1	12.780	-0.260	0.960	0.410
2020/01/31 19:17:31.2	12.740	-0.260	0.980	0.470
2020/01/31 19:17:31.3	12.690	-0.250	0.980	0.530
2020/01/31 19:17:31.4	12.650	-0.250	0.970	0.590
2020/01/31 19:17:31.5	12.610	-0.240	0.950	0.640
2020/01/31 19:17:31.6	12.560	-0.230	0.920	0.690
2020/01/31 19:17:31.7	12.520	-0.210	0.880	0.730
2020/01/31 19:17:31.8	12.470	-0.200	0.830	0.770
2020/01/31 19:17:31.9				
2020/01/31 19:17:32.0	12.440	-0.180	0.770	0.810
2020/01/31 19:17:32.1	12.360	-0.140	0.620	0.860
2020/01/31 19:17:32.2	12.330	-0.120	0.530	0.870
2020/01/31 19:17:32.3	12.300	-0.100	0.430	0.880
2020/01/31 19:17:32.4	12.270	-0.080	0.330	0.890
2020/01/31 19:17:32.5	12.250	-0.060	0.210	0.880
2020/01/31 19:17:32.6	12.230	-0.030	0.100	0.870
2020/01/31 19:17:32.7	12.210	-0.010	-0.030	0.850
2020/01/31 19:17:32.8	12.210	0.010	-0.150	0.830
2020/01/31 19:17:32.9	12.200	0.030	-0.280	0.800
2020/01/31 19:17:33.0	12.200	0.050	-0.410	0.760
2020/01/31 19:17:33.1	12.200	0.070	-0.540	0.720
2020/01/31 19:17:33.2	12.200	0.090	-0.670	0.670
2020/01/31 19:17:33.3	12.210	0.110	-0.800	0.620
2020/01/31 19:17:33.4	12.230	0.120	-0.920	0.560
2020/01/31 19:17:33.5	12.240	0.140	-1.050	0.500
2020/01/31 19:17:33.6	12.270	0.150	-1.160	0.430
2020/01/31 19:17:33.7	12.300	0.160	-1.270	0.360
2020/01/31 19:17:33.8	12.340	0.170	-1.380	0.290
2020/01/31 19:17:33.9	12.380	0.170	-1.480	0.210
2020/01/31 19:17:34.0				
2020/01/31 19:17:34.1	12.420	0.170	-1.570	0.130
2020/01/31 19:17:34.2	12.500	0.170	-1.720	-0.030
2020/01/31 19:17:34.3	12.550	0.170	-1.780	-0.110
2020/01/31 19:17:34.4	12.600	0.160	-1.830	-0.190
2020/01/31 19:17:34.5	12.660	0.150	-1.870	-0.270
2020/01/31 19:17:34.6	12.710	0.150	-1.900	-0.340
2020/01/31 19:17:34.7	12.760	0.130	-1.910	-0.420
2020/01/31 19:17:34.8	12.820	0.120	-1.920	-0.500
2020/01/31 19:17:34.9	12.870	0.110	-1.910	-0.560
2020/01/31 19:17:35.0	12.920	0.090	-1.880	-0.630
2020/01/31 19:17:35.1	12.970	0.070	-1.850	-0.690
2020/01/31 19:17:35.2	13.020	0.060	-1.800	-0.740
2020/01/31 19:17:35.3	13.070	0.040	-1.740	-0.790
2020/01/31 19:17:35.4	13.110	0.020	-1.670	-0.840
2020/01/31 19:17:35.5	13.150	0.000	-1.590	-0.880
2020/01/31 19:17:35.6	13.180	-0.020	-1.490	-0.910
2020/01/31 19:17:35.7	13.220	-0.030	-1.390	-0.940
2020/01/31 19:17:35.8	13.250	-0.050	-1.270	-0.950
2020/01/31 19:17:35.9	13.270	-0.070	-1.150	-0.970
2020/01/31 19:17:36.0	13.290	-0.080	-1.020	-0.980
2020/01/31 19:17:36.1				
2020/01/31 19:17:36.2	13.300	-0.100	-0.890	-0.980
2020/01/31 19:17:36.3	13.310	-0.120	-0.600	-0.960
2020/01/31 19:17:36.4	13.300	-0.130	-0.450	-0.940
2020/01/31 19:17:36.5	13.290	-0.130	-0.290	-0.910
2020/01/31 19:17:36.6	13.280	-0.130	-0.140	-0.870
2020/01/31 19:17:36.7	13.250	-0.130	0.020	-0.830
2020/01/31 19:17:36.8	13.220	-0.130	0.160	-0.790
2020/01/31 19:17:36.9	13.190	-0.130	0.320	-0.730
2020/01/31 19:17:37.0	13.150	-0.120	0.460	-0.670
2020/01/31 19:17:37.1	13.100	-0.110	0.610	-0.600
2020/01/31 19:17:37.2	13.050	-0.090	0.740	-0.520
2020/01/31 19:17:37.3	13.000	-0.080	0.870	-0.440
2020/01/31 19:17:37.4	12.940	-0.060	0.990	-0.350
2020/01/31 19:17:37.5	12.880	-0.040	1.100	-0.260
2020/01/31 19:17:37.6	12.810	-0.010	1.200	-0.170
2020/01/31 19:17:37.7	12.740	0.010	1.290	-0.070
2020/01/31 19:17:37.8	12.660	0.040	1.380	0.040
2020/01/31 19:17:37.9	12.580	0.070	1.440	0.140
2020/01/31 19:17:38.0	12.500	0.110	1.490	0.250
2020/01/31 19:17:38.1	12.420	0.140	1.530	0.360
2020/01/31 19:17:38.2				
2020/01/31 19:17:38.3	12.340	0.170	1.550	0.460
2020/01/31 19:17:38.4	12.180	0.240	1.560	0.670
2020/01/31 19:17:38.5	12.100	0.280	1.540	0.770
2020/01/31 19:17:38.6	12.020	0.310	1.510	0.870
2020/01/31 19:17:38.7	11.950	0.350	1.460	0.960
2020/01/31 19:17:38.8	11.870	0.380	1.400	1.060
2020/01/31 19:17:38.9	11.800	0.420	1.330	1.140
2020/01/31 19:17:39.0	11.740	0.450	1.240	1.220
2020/01/31 19:17:39.1	11.670	0.470	1.140	1.290
2020/01/31 19:17:39.2	11.610	0.500	1.040	1.340
2020/01/31 19:17:39.3	11.560	0.520	0.920	1.390
2020/01/31 19:17:39.4	11.510	0.550	0.790	1.440
2020/01/31 19:17:39.5	11.470	0.560	0.650	1.470
2020/01/31 19:17:39.6	11.440	0.580	0.510	1.490
2020/01/31 19:17:39.7	11.410	0.590	0.350	1.500
2020/01/31 19:17:39.8	11.390	0.600	0.200	1.490
2020/01/31 19:17:39.9	11.380	0.600	0.040	1.480
2020/01/31 19:17:40.0	11.370	0.600	-0.120	1.460
2020/01/31 19:17:40.1	11.380	0.590	-0.280	1.420
2020/01/31 19:17:40.2	11.390	0.580	-0.450	1.380
2020/01/31 19:17:40.3				
2020/01/31 19:17:40.4	11.410	0.570	-0.610	1.320
2020/01/31 19:17:40.5	11.470	0.530	-0.930	1.180
2020/01/31 19:17:40.6	11.510	0.500	-1.070	1.090
2020/01/31 19:17:40.7	11.550	0.460	-1.220	1.000
2020/01/31 19:17:40.8	11.620	0.430	-1.350	0.900
2020/01/31 19:17:40.9	11.680	0.380	-1.470	0.790
2020/01/31 19:17:41.0	11.740	0.330	-1.580	0.670
2020/01/31 19:17:41.1	11.800	0.280	-1.680	0.550
2020/01/31 19:17:41.2	11.870	0.230	-1.770	0.420
2020/01/31 19:17:41.3	11.950	0.170	-1.840	0.290
2020/01/31 19:17:41.4	12.020	0.100	-1.900	0.150
2020/01/31 19:17:41.5	12.100	0.030	-1.950	0.010
2020/01/31 19:17:41.6	12.180	-0.040	-1.980	-0.130
2020/01/31 19:17:41.7	12.250	-0.110	-1.990	-0.280
2020/01/31 19:17:41.8	12.340	-0.180	-1.980	-0.430
2020/01/31 19:17:41.9	12.410	-0.260	-1.970	-0.570
2020/01/31 19:17:42.0	12.490	-0.340	-1.930	-0.710
2020/01/31 19:17:42.1	12.560	-0.410	-1.890	-0.850
2020/01/31 19:17:42.2	12.630	-0.490	-1.820	-0.990
2020/01/31 19:17:42.3	12.700	-0.570	-1.750	-1.120
2020/01/31 19:17:42.4				
2020/01/31 19:17:42.5	12.770	-0.640	-1.660	-1.250
2020/01/31 19:17:42.6	12.880	-0.790	-1.440	-1.480
2020/01/31 19:17:42.7	12.930	-0.860	-1.320	-1.590
2020/01/31 19:17:42.8	12.990	-0.930	-1.190	-1.700
2020/01/31 19:17:42.9	13.030	-0.990	-1.050	-1.790
2020/01/31 19:17:43.0	13.060	-1.040	-0.900	-1.870
2020/01/31 19:17:43.1	13.090	-1.090	-0.750	-1.950
2020/01/31 19:17:43.2	13.110	-1.140	-0.590	-2.010
2020/01/31 19:17:43.3	13.120	-1.180	-0.430	-2.050
2020/01/31 19:17:43.4	13.120	-1.210	-0.270	-2.090
2020/01/31 19:17:43.5	13.120	-1.240	-0.110	-2.120
2020/01/31 19:17:43.6	13.120	-1.260	0.050	-2.130
2020/01/31 19:17:43.7	13.100	-1.270	0.200	-2.130
2020/01/31 19:17:43.8	13.090	-1.270	0.350	-2.120
2020/01/31 19:17:43.9	13.070	-1.270	0.490	-2.100
2020/01/31 19:17:44.0	13.040	-1.260	0.630	-2.060
2020/01/31 19:17:44.1	13.000	-1.240	0.760	-2.020
2020/01/31 19:17:44.2	12.960	-1.210	0.880	-1.960
2020/01/31 19:17:44.3	12.910	-1.180	0.990	-1.900
2020/01/31 19:17:44.4	12.860	-1.140	1.090	-1.820
2020/01/31 19:17:44.5				
2020/01/31 19:17:44.6	12.810	-1.090	1.180	-1.740
2020/01/31 19:17:44.7	12.690	-0.970	1.310	-1.540
2020/01/31 19:17:44.8	12.620	-0.900	1.360	-1.440
2020/01/31 19:17:44.9	12.560	-0.820	1.390	-1.320
2020/01/31 19:17:45.0	12.490	-0.740	1.410	-1.200
2020/01/31 19:17:45.1	12.420	-0.650	1.420	-1.070
2020/01/31 19:17:45.2	12.350	-0.560	1.410	-0.930
2020/01/31 19:17:45.3	12.280	-0.470	1.400	-0.800
2020/01/31 19:17:45.4	12.200	-0.370	1.360	-0.650
2020/01/31 19:17:45.5	12.130	-0.270	1.320	-0.510
2020/01/31 19:17:45.6	12.060	-0.170	1.260	-0.370
2020/01/31 19:17:45.7	11.990	-0.070	1.200	-0.220
2020/01/31 19:17:45.8	11.910	0.030	1.120	-0.070
2020/01/31 19:17:45.9	11.840	0.140	1.030	0.080
2020/01/31 19:17:46.0	11.780	0.240	0.940	0.220
2020/01/31 19:17:46.1	11.720	0.340	0.840	0.360
2020/01/31 19:17:46.2	11.660	0.440	0.730	0.500
2020/01/31 19:17:46.3	11.600	0.530	0.610	0.630
2020/01/31 19:17:46.4	11.550	0.620	0.490	0.770
2020/01/31 19:17:46.5	11.500	0.710	0.370	0.890
2020/01/31 19:17:46.6				
2020/01/31 19:17:46.7	11.460	0.800	0.250	1.010
2020/01/31 19:17:46.8	11.360	0.940	-0.000	1.240
2020/01/31 19:17:46.9	11.330	1.010	-0.130	1.350
2020/01/31 19:17:47.0	11.300	1.070	-0.250	1.440
2020/01/31 19:17:47.1	11.270	1.120	-0.370	1.530
2020/01/31 19:17:47.2	11.260	1.170	-0.490	1.620
2020/01/31 19:17:47.3	11.240	1.210	-0.600	1.690
2020/01/31 19:17:47.4	11.230	1.240	-0.710	1.760
2020/01/31 19:17:47.5	11.220	1.260	-0.810	1.820
2020/01/31 19:17:47.6	11.220	1.280	-0.900	1.870
2020/01/31 19:17:47.7	11.220	1.280	-0.990	1.920
2020/01/31 19:17:47.8	11.220	1.280	-1.070	1.960
2020/01/31 19:17:47.9	11.230	1.280	-1.140	1.990
2020/01/31 19:17:48.0	11.250	1.260	-1.200	2.010
2020/01/31 19:17:48.1	11.270	1.240	-1.250	2.030
2020/01/31 19:17:48.2	11.290	1.210	-1.300	2.030
2020/01/31 19:17:48.3	11.310	1.170	-1.340	2.040
2020/01/31 19:17:48.4	11.340	1.130	-1.370	2.030
2020/01/31 19:17:48.5	11.370	1.090	-1.390	2.020
2020/01/31 19:17:48.6	11.400	1.030	-1.400	2.000
2020/01/31 19:17:48.7				
2020/01/31 19:17:48.8	11.440	0.970	-1.410	1.970
2020/01/31 19:17:48.9	11.520	0.850	-1.400	1.890
2020/01/31 19:17:49.0	11.560	0.780	-1.390	1.840
2020/01/31 19:17:49.1	11.600	0.700	-1.360	1.790
2020/01/31 19:17:49.2	11.650	0.630	-1.340	1.730
2020/01/31 19:17:49.3	11.690	0.550	-1.300	1.670
2020/01/31 19:17:49.4	11.740	0.470	-1.270	1.600
2020/01/31 19:17:49.5	11.780	0.400	-1.220	1.530
2020/01/31 19:17:49.6	11.820	0.320	-1.170	1.450
2020/01/31 19:17:49.7	11.870	0.240	-1.120	1.370
2020/01/31 19:17:49.8	11.920	0.160	-1.070	1.280
2020/01/31 19:17:49.9	11.960	0.080	-1.010	1.200
2020/01/31 19:17:50.0	12.000	0.010	-0.950	1.110
2020/01/31 19:17:50.1	12.040	-0.070	-0.880	1.030
2020/01/31 19:17:50.2	12.070	-0.140	-0.810	0.940
2020/01/31 19:17:50.3	12.100	-0.210	-0.740	0.850
2020/01/31 19:17:50.4	12.130	-0.270	-0.670	0.760
2020/01/31 19:17:50.5	12.150	-0.340	-0.600	0.680
2020/01/31 19:17:50.6	12.170	-0.400	-0.520	0.590
2020/01/31 19:17:50.7	12.180	-0.450	-0.450	0.510
2020/01/31 19:17:50.8				
2020/01/31 19:17:50.9	12.200	-0.500	-0.380	0.420
2020/01/31 19:17:51.0	12.210	-0.600	-0.230	0.270
2020/01/31 19:17:51.1	12.200	-0.640	-0.160	0.190
2020/01/31 19:17:51.2	12.200	-0.670	-0.090	0.130
2020/01/31 19:17:51.3	12.180	-0.710	-0.020	0.060
2020/01/31 19:17:51.4	12.160	-0.730	0.050	-0.000
2020/01/31 19:17:51.5	12.140	-0.760	0.110	-0.060
2020/01/31 19:17:51.6	12.120	-0.780	0.170	-0.120
2020/01/31 19:17:51.7	12.090	-0.790	0.230	-0.170
2020/01/31 19:17:51.8	12.050	-0.800	0.290	-0.230
2020/01/31 19:17:51.9	12.010	-0.810	0.340	-0.270
2020/01/31 19:17:52.0	11.970	-0.810	0.380	-0.320
2020/01/31 19:17:52.1	11.930	-0.810	0.430	-0.360
2020/01/31 19:17:52.2	11.880	-0.810	0.460	-0.390
2020/01/31 19:17:52.3	11.840	-0.800	0.500	-0.420
2020/01/31 19:17:52.4	11.790	-0.780	0.530	-0.450
2020/01/31 19:17:52.5	11.740	-0.770	0.550	-0.470
2020/01/31 19:17:52.6	11.690	-0.750	0.570	-0.500
2020/01/31 19:17:52.7				
2020/01/31 19:17:52.8	11.630	-0.720	0.580	-0.510
2020/01/31 19:17:52.9				
2020/01/31 19:17:53.0	11.530	-0.670	0.590	-0.540
2020/01/31 19:17:53.1	11.420	-0.600	0.580	-0.550
2020/01/31 19:17:53.2	11.370	-0.560	0.570	-0.560
2020/01/31 19:17:53.3	11.320	-0.520	0.550	-0.550
2020/01/31 19:17:53.4	11.270	-0.480	0.530	-0.550
2020/01/31 19:17:53.5	11.220	-0.430	0.510	-0.540
2020/01/31 19:17:53.6	11.170	-0.380	0.480	-0.530
2020/01/31 19:17:53.7	11.130	-0.330	0.440	-0.520
2020/01/31 19:17:53.8	11.090	-0.280	0.400	-0.500
2020/01/31 19:17:53.9	11.050	-0.230	0.360	-0.490
2020/01/31 19:17:54.0	11.010	-0.180	0.320	-0.470
2020/01/31 19:17:54.1	10.980	-0.130	0.270	-0.450
2020/01/31 19:17:54.2	10.950	-0.070	0.220	-0.430
2020/01/31 19:17:54.3	10.920	-0.020	0.170	-0.410
2020/01/31 19:17:54.4	10.900	0.030	0.120	-0.390
2020/01/31 19:17:54.5	10.880	0.090	0.070	-0.360
2020/01/31 19:17:54.6	10.860	0.140	0.010	-0.340
2020/01/31 19:17:54.7	10.850	0.190	-0.040	-0.320
2020/01/31 19:17:54.8	10.840	0.240	-0.100	-0.300
2020/01/31 19:17:54.9	10.830	0.290	-0.150	-0.280
2020/01/31 19:17:55.0				
2020/01/31 19:17:55.1	10.830	0.340	-0.200	-0.260
2020/01/31 19:17:55.2	10.840	0.430	-0.290	-0.220
2020/01/31 19:17:55.3	10.850	0.470	-0.340	-0.200
2020/01/31 19:17:55.4	10.860	0.500	-0.380	-0.180
2020/01/31 19:17:55.5	10.880	0.540	-0.410	-0.160
2020/01/31 19:17:55.6	10.890	0.570	-0.440	-0.140
2020/01/31 19:17:55.7	10.910	0.600	-0.470	-0.120
2020/01/31 19:17:55.8	10.930	0.620	-0.490	-0.100
2020/01/31 19:17:55.9	10.950	0.640	-0.500	-0.080
2020/01/31 19:17:56.0	10.970	0.660	-0.510	-0.060
2020/01/31 19:17:56.1	10.990	0.670	-0.520	-0.040
2020/01/31 19:17:56.2	11.010	0.680	-0.520	-0.020
2020/01/31 19:17:56.3	11.030	0.690	-0.510	-0.000
2020/01/31 19:17:56.4	11.060	0.690	-0.500	0.020
2020/01/31 19:17:56.5				
2020/01/31 19:17:56.6	11.070	0.690	-0.480	0.050
2020/01/31 19:17:56.7	11.110	0.670	-0.430	0.100
2020/01/31 19:17:56.8	11.120	0.660	-0.400	0.130
2020/01/31 19:17:56.9	11.130	0.640	-0.360	0.160
2020/01/31 19:17:57.0	11.140	0.620	-0.320	0.200
2020/01/31 19:17:57.1				
2020/01/31 19:17:57.2	11.140	0.590	-0.280	0.230
2020/01/31 19:17:57.3	11.140	0.530	-0.180	0.300
2020/01/31 19:17:57.4	11.130	0.500	-0.130	0.330
2020/01/31 19:17:57.5	11.120	0.460	-0.080	0.370
2020/01/31 19:17:57.6	11.110	0.420	-0.030	0.410
2020/01/31 19:17:57.7	11.090	0.380	0.020	0.450
2020/01/31 19:17:57.8	11.080	0.340	0.060	0.480
2020/01/31 19:17:57.9	11.050	0.290	0.110	0.520
2020/01/31 19:17:58.0				
2020/01/31 19:17:58.1	11.030	0.250	0.150	0.560
2020/01/31 19:17:58.2	10.960	0.150	0.230	0.640
2020/01/31 19:17:58.3	10.930	0.100	0.260	0.670
2020/01/31 19:17:58.4	10.890	0.060	0.290	0.710
2020/01/31 19:17:58.5	10.860	0.010	0.310	0.740
2020/01/31 19:17:58.6	10.820	-0.040	0.320	0.770
2020/01/31 19:17:58.7	10.780	-0.080	0.330	0.800
2020/01/31 19:17:58.8	10.740	-0.130	0.330	0.820
2020/01/31 19:17:58.9	10.700	-0.170	0.320	0.840
2020/01/31 19:17:59.0	10.660	-0.220	0.310	0.850
2020/01/31 19:17:59.1	10.630	-0.260	0.280	0.850
2020/01/31 19:17:59.2				
2020/01/31 19:17:59.3	10.600	-0.300	0.250	0.850
2020/01/31 19:17:59.4	10.540	-0.370	0.160	0.830
2020/01/31 19:17:59.5	10.520	-0.400	0.100	0.810
2020/01/31 19:17:59.6	10.500	-0.430	0.040	0.780
2020/01/31 19:17:59.7	10.490	-0.460	-0.030	0.740
2020/01/31 19:17:59.8	10.480	-0.490	-0.110	0.690
2020/01/31 19:17:59.9	10.470	-0.510	-0.190	0.640
2020/01/31 19:18:00.0	10.470	-0.530	-0.270	0.580
2020/01/31 19:18:00.1	10.480	-0.550	-0.360	0.510
2020/01/31 19:18:00.2	10.490	-0.570	-0.450	0.440
2020/01/31 19:18:00.3	10.500	-0.580	-0.540	0.360
2020/01/31 19:18:00.4	10.520	-0.590	-0.630	0.280
2020/01/31 19:18:00.5	10.540	-0.600	-0.720	0.190
2020/01/31 19:18:00.6	10.570	-0.610	-0.800	0.100
2020/01/31 19:18:00.7				
2020/01/31 19:18:00.8	10.590	-0.620	-0.890	0.000
2020/01/31 19:18:00.9	10.660	-0.620	-1.030	-0.200
2020/01/31 19:18:01.0				
2020/01/31 19:18:01.1	10.700	-0.630	-1.090	-0.300
2020/01/31 19:18:01.2	10.780	-0.630	-1.180	-0.500
2020/01/31 19:18:01.3				
2020/01/31 19:18:01.4	10.820	-0.620	-1.210	-0.600
2020/01/31 19:18:01.5	10.890	-0.620	-1.240	-0.780
2020/01/31 19:18:01.6	10.930	-0.610	-1.240	-0.860
2020/01/31 19:18:01.7	10.960	-0.600	-1.220	-0.940
2020/01/31 19:18:01.8	11.000	-0.600	-1.200	-1.020
2020/01/31 19:18:01.9	11.030	-0.590	-1.160	-1.080
2020/01/31 19:18:02.0				
2020/01/31 19:18:02.1	11.060	-0.580	-1.110	-1.140
2020/01/31 19:18:02.2	11.090	-0.550	-0.970	-1.240
2020/01/31 19:18:02.3	11.110	-0.530	-0.880	-1.270
2020/01/31 19:18:02.4	11.110	-0.510	-0.780	-1.290
2020/01/31 19:18:02.5	11.120	-0.490	-0.670	-1.310
2020/01/31 19:18:02.6	11.110	-0.470	-0.550	-1.310
2020/01/31 19:18:02.7	11.110	-0.450	-0.430	-1.300
2020/01/31 19:18:02.8	11.100	-0.420	-0.300	-1.290
2020/01/31 19:18:02.9	11.090	-0.390	-0.160	-1.270
2020/01/31 19:18:03.0	11.070	-0.360	-0.030	-1.240
2020/01/31 19:18:03.1				
2020/01/31 19:18:03.2	11.040	-0.320	0.110	-1.190
2020/01/31 19:18:03.3	10.980	-0.240	0.370	-1.080
2020/01/31 19:18:03.4				
2020/01/31 19:18:03.5	10.940	-0.200	0.500	-1.010
2020/01/31 19:18:03.6	10.870	-0.100	0.720	-0.850
2020/01/31 19:18:03.7	10.830	-0.050	0.820	-0.770
2020/01/31 19:18:03.8	10.790	0.010	0.900	-0.670
2020/01/31 19:18:03.9	10.750	0.070	0.970	-0.570
2020/01/31 19:18:04.0	10.710	0.130	1.020	-0.480
2020/01/31 19:18:04.1	10.670	0.190	1.060	-0.380
2020/01/31 19:18:04.2	10.630	0.250	1.090	-0.280
2020/01/31 19:18:04.3	10.590	0.310	1.090	-0.190
2020/01/31 19:18:04.4	10.550	0.380	1.080	-0.090
2020/01/31 19:18:04.5				
2020/01/31 19:18:04.6	10.520	0.440	1.050	-0.000
2020/01/31 19:18:04.7	10.460	0.560	0.940	0.170
2020/01/31 19:18:04.8	10.430	0.620	0.870	0.250
2020/01/31 19:18:04.9	10.410	0.680	0.780	0.330
2020/01/31 19:18:05.0	10.390	0.740	0.670	0.390
2020/01/31 19:18:05.1	10.370	0.790	0.550	0.450
2020/01/31 19:18:05.2	10.360	0.830	0.420	0.510
2020/01/31 19:18:05.3	10.350	0.880	0.280	0.550
2020/01/31 19:18:05.4	10.350	0.920	0.140	0.590
2020/01/31 19:18:05.5				
2020/01/31 19:18:05.6	10.340	0.950	-0.010	0.620
2020/01/31 19:18:05.7	10.340	0.970	-0.170	0.650
2020/01/31 19:18:05.8	10.340	1.010	-0.490	0.670
2020/01/31 19:18:05.9	10.340	1.020	-0.640	0.680
2020/01/31 19:18:06.0				
2020/01/31 19:18:06.1	10.350	1.020	-0.790	0.670
2020/01/31 19:18:06.2	10.370	1.000	-1.080	0.650
2020/01/31 19:18:06.3	10.380	0.980	-1.210	0.630
2020/01/31 19:18:06.4	10.390	0.950	-1.320	0.600
2020/01/31 19:18:06.5	10.400	0.910	-1.430	0.570
2020/01/31 19:18:06.6	10.410	0.870	-1.520	0.530
2020/01/31 19:18:06.7	10.420	0.830	-1.600	0.500
2020/01/31 19:18:06.8	10.440	0.780	-1.660	0.460
2020/01/31 19:18:06.9				
2020/01/31 19:18:07.0	10.450	0.720	-1.700	0.410
2020/01/31 19:18:07.1	10.470	0.590	-1.740	0.320
2020/01/31 19:18:07.2	10.480	0.520	-1.740	0.270
2020/01/31 19:18:07.3	10.480	0.450	-1.710	0.220
2020/01/31 19:18:07.4	10.490	0.380	-1.680	0.170
2020/01/31 19:18:07.5	10.500	0.300	-1.620	0.120
2020/01/31 19:18:07.6				
2020/01/31 19:18:07.7	10.500	0.220	-1.560	0.070
2020/01/31 19:18:07.8				
2020/01/31 19:18:07.9	10.500	0.060	-1.380	-0.030
2020/01/31 19:18:08.0	10.500	-0.090	-1.160	-0.120
2020/01/31 19:18:08.1				
2020/01/31 19:18:08.2	10.500	-0.160	-1.040	-0.160
2020/01/31 19:18:08.3	10.490	-0.300	-0.770	-0.250
2020/01/31 19:18:08.4	10.480	-0.370	-0.640	-0.290
2020/01/31 19:18:08.5	10.470	-0.430	-0.500	-0.320
2020/01/31 19:18:08.6	10.460	-0.480	-0.350	-0.350
2020/01/31 19:18:08.7				
2020/01/31 19:18:08.8	10.450	-0.530	-0.220	-0.390
2020/01/31 19:18:08.9	10.450	-0.570	-0.080	-0.420
2020/01/31 19:18:09.0	10.420	-0.650	0.170	-0.470
2020/01/31 19:18:09.1	10.410	-0.670	0.290	-0.490
2020/01/31 19:18:09.2	10.400	-0.690	0.400	-0.510
2020/01/31 19:18:09.3	10.380	-0.710	0.500	-0.520
2020/01/31 19:18:09.4				
2020/01/31 19:18:09.5	10.370	-0.710	0.590	-0.540
2020/01/31 19:18:09.6	10.340	-0.710	0.740	-0.570
2020/01/31 19:18:09.7				
2020/01/31 19:18:09.8	10.330	-0.700	0.790	-0.580
2020/01/31 19:18:09.9	10.310	-0.680	0.840	-0.590
2020/01/31 19:18:10.0	10.290	-0.640	0.880	-0.620
2020/01/31 19:18:10.1	10.280	-0.600	0.890	-0.630
2020/01/31 19:18:10.2				
2020/01/31 19:18:10.3	10.280	-0.570	0.880	-0.650
2020/01/31 19:18:10.4				
2020/01/31 19:18:10.5	10.270	-0.480	0.830	-0.670
2020/01/31 19:18:10.6				
2020/01/31 19:18:10.7	10.270	-0.380	0.730	-0.710
2020/01/31 19:18:10.8				
2020/01/31 19:18:10.9	10.280	-0.280	0.610	-0.740
2020/01/31 19:18:11.0	10.300	-0.160	0.450	-0.770
2020/01/31 19:18:11.1	10.300	-0.110	0.370	-0.780
2020/01/31 19:18:11.2	10.310	-0.050	0.280	-0.800
2020/01/31 19:18:11.3	10.320	0.000	0.200	-0.810
2020/01/31 19:18:11.4	10.330	0.060	0.110	-0.820
2020/01/31 19:18:11.5				
2020/01/31 19:18:11.6	10.340	0.110	0.030	-0.820
2020/01/31 19:18:11.7	10.350	0.160	-0.050	-0.830
2020/01/31 19:18:11.8				
2020/01/31 19:18:11.9	10.360	0.250	-0.200	-0.820
2020/01/31 19:18:12.0	10.370	0.330	-0.320	-0.800
2020/01/31 19:18:12.1	10.370	0.360	-0.370	-0.780
2020/01/31 19:18:12.2	10.380	0.390	-0.410	-0.760
2020/01/31 19:18:12.3				
2020/01/31 19:18:12.4	10.380	0.420	-0.440	-0.730
2020/01/31 19:18:12.5	10.370	0.460	-0.460	-0.650
2020/01/31 19:18:12.6				
2020/01/31 19:18:12.7	10.360	0.470	-0.460	-0.600
2020/01/31 19:18:12.8	10.350	0.470	-0.450	-0.540
2020/01/31 19:18:12.9	10.310	0.470	-0.410	-0.410
2020/01/31 19:18:13.0	10.290	0.470	-0.370	-0.340
2020/01/31 19:18:13.1	10.270	0.460	-0.330	-0.260
2020/01/31 19:18:13.2				
2020/01/31 19:18:13.3	10.250	0.440	-0.280	-0.180
2020/01/31 19:18:13.4	10.190	0.400	-0.160	-0.000
2020/01/31 19:18:13.5	10.160	0.380	-0.100	0.090
2020/01/31 19:18:13.6	10.130	0.350	-0.040	0.190
2020/01/31 19:18:13.7				
2020/01/31 19:18:13.8	10.090	0.320	0.020	0.280
2020/01/31 19:18:13.9				
2020/01/31 19:18:14.0	10.020	0.250	0.140	0.480
2020/01/31 19:18:14.1	9.980	0.210	0.200	0.580
2020/01/31 19:18:14.2	9.950	0.180	0.250	0.680
2020/01/31 19:18:14.3	9.870	0.100	0.340	0.860
2020/01/31 19:18:14.4				
2020/01/31 19:18:14.5	9.840	0.060	0.370	0.950
2020/01/31 19:18:14.6				
2020/01/31 19:18:14.7	9.770	-0.020	0.420	1.100
2020/01/31 19:18:14.8	9.710	-0.090	0.420	1.230
2020/01/31 19:18:14.9	9.690	-0.130	0.410	1.290
2020/01/31 19:18:15.0	9.670	-0.160	0.400	1.330
2020/01/31 19:18:15.1	9.650	-0.190	0.370	1.370
2020/01/31 19:18:15.2	9.640	-0.220	0.330	1.390
2020/01/31 19:18:15.3	9.630	-0.240	0.290	1.410
2020/01/31 19:18:15.4	9.630	-0.270	0.230	1.420
2020/01/31 19:18:15.5	9.630	-0.290	0.170	1.420
2020/01/31 19:18:15.6	9.630	-0.310	0.110	1.410
2020/01/31 19:18:15.7	9.640	-0.320	0.040	1.390
2020/01/31 19:18:15.8	9.650	-0.330	-0.040	1.360
2020/01/31 19:18:15.9	9.670	-0.350	-0.120	1.320
2020/01/31 19:18:16.0				
2020/01/31 19:18:16.1	9.680	-0.360	-0.200	1.270
2020/01/31 19:18:16.2	9.700	-0.360	-0.280	1.220
2020/01/31 19:18:16.3	9.750	-0.370	-0.450	1.100
2020/01/31 19:18:16.4	9.770	-0.370	-0.520	1.040
2020/01/31 19:18:16.5				
2020/01/31 19:18:16.6	9.800	-0.370	-0.600	0.960
2020/01/31 19:18:16.7	9.840	-0.370	-0.740	0.820
2020/01/31 19:18:16.8	9.870	-0.370	-0.790	0.730
2020/01/31 19:18:16.9	9.890	-0.360	-0.840	0.660
2020/01/31 19:18:17.0	9.910	-0.360	-0.890	0.580
2020/01/31 19:18:17.1	9.930	-0.350	-0.920	0.510
2020/01/31 19:18:17.2	9.950	-0.350	-0.950	0.440
2020/01/31 19:18:17.3	9.960	-0.340	-0.970	0.370
2020/01/31 19:18:17.4	9.980	-0.340	-0.970	0.300
2020/01/31 19:18:17.5				
2020/01/31 19:18:17.6	9.980	-0.330	-0.970	0.240
2020/01/31 19:18:17.7	9.990	-0.330	-0.960	0.180
2020/01/31 19:18:17.8	10.000	-0.320	-0.920	0.070
2020/01/31 19:18:17.9	10.000	-0.310	-0.890	0.030
2020/01/31 19:18:18.0	9.990	-0.300	-0.850	-0.010
2020/01/31 19:18:18.1				
2020/01/31 19:18:18.2	9.990	-0.290	-0.800	-0.040
2020/01/31 19:18:18.3	9.980	-0.290	-0.750	-0.070
2020/01/31 19:18:18.4	9.960	-0.270	-0.630	-0.110
2020/01/31 19:18:18.5	9.940	-0.260	-0.570	-0.120
2020/01/31 19:18:18.6				
2020/01/31 19:18:18.7	9.930	-0.250	-0.500	-0.130
2020/01/31 19:18:18.8	9.910	-0.230	-0.440	-0.140
2020/01/31 19:18:18.9	9.880	-0.210	-0.300	-0.140
2020/01/31 19:18:19.0	9.860	-0.190	-0.240	-0.140
2020/01/31 19:18:19.1	9.840	-0.170	-0.180	-0.130
2020/01/31 19:18:19.2	9.820	-0.160	-0.120	-0.130
2020/01/31 19:18:19.3	9.800	-0.140	-0.070	-0.120
2020/01/31 19:18:19.4	9.790	-0.110	-0.020	-0.110
2020/01/31 19:18:19.5				
2020/01/31 19:18:19.6	9.770	-0.090	0.020	-0.100
2020/01/31 19:18:19.7	9.750	-0.060	0.060	-0.090
2020/01/31 19:18:19.8	9.730	-0.040	0.090	-0.080
2020/01/31 19:18:19.9	9.700	0.030	0.120	-0.050
2020/01/31 19:18:20.0	9.690	0.060	0.130	-0.040
2020/01/31 19:18:20.1	9.670	0.100	0.130	-0.030
2020/01/31 19:18:20.2				
2020/01/31 19:18:20.3	9.660	0.140	0.120	-0.010
2020/01/31 19:18:20.4	9.640	0.180	0.110	-0.000
2020/01/31 19:18:20.5	9.630	0.220	0.090	0.010
2020/01/31 19:18:20.6				
2020/01/31 19:18:20.7	9.610	0.300	0.020	0.030
2020/01/31 19:18:20.8				
2020/01/31 19:18:20.9	9.600	0.390	-0.070	0.040
2020/01/31 19:18:21.0	9.590	0.480	-0.180	0.050
2020/01/31 19:18:21.1	9.590	0.530	-0.230	0.060
2020/01/31 19:18:21.2	9.590	0.570	-0.290	0.060
2020/01/31 19:18:21.3	9.590	0.610	-0.360	0.070
2020/01/31 19:18:21.4	9.590	0.650	-0.420	0.080
2020/01/31 19:18:21.5	9.590	0.680	-0.480	0.080
2020/01/31 19:18:21.6				
2020/01/31 19:18:21.7	9.590	0.720	-0.540	0.090
2020/01/31 19:18:21.8				
2020/01/31 19:18:21.9	9.590	0.780	-0.640	0.110
2020/01/31 19:18:22.0	9.600	0.800	-0.690	0.110
2020/01/31 19:18:22.1	9.600	0.820	-0.730	0.120
2020/01/31 19:18:22.2				
2020/01/31 19:18:22.3	9.610	0.850	-0.790	0.150
2020/01/31 19:18:22.4	9.610	0.850	-0.820	0.160
2020/01/31 19:18:22.5	9.610	0.850	-0.830	0.180
2020/01/31 19:18:22.6				
2020/01/31 19:18:22.7	9.610	0.840	-0.830	0.210
2020/01/31 19:18:22.8				
2020/01/31 19:18:22.9	9.610	0.810	-0.810	0.260
2020/01/31 19:18:23.0	9.600	0.750	-0.750	0.310
2020/01/31 19:18:23.1	9.590	0.720	-0.710	0.340
2020/01/31 19:18:23.2				
2020/01/31 19:18:23.3	9.580	0.680	-0.660	0.370
2020/01/31 19:18:23.4	9.570	0.640	-0.600	0.400
2020/01/31 19:18:23.5	9.540	0.540	-0.470	0.460
2020/01/31 19:18:23.6				
2020/01/31 19:18:23.7	9.530	0.490	-0.400	0.490
2020/01/31 19:18:23.8	9.510	0.430	-0.330	0.520
2020/01/31 19:18:23.9	9.510	0.370	-0.250	0.550
2020/01/31 19:18:24.0	9.470	0.250	-0.090	0.610
2020/01/31 19:18:24.1	9.450	0.180	-0.010	0.630
2020/01/31 19:18:24.2	9.430	0.120	0.070	0.650
2020/01/31 19:18:24.3	9.410	0.050	0.150	0.670
2020/01/31 19:18:24.4				
2020/01/31 19:18:24.5	9.380	-0.020	0.220	0.680
2020/01/31 19:18:24.6				
2020/01/31 19:18:24.7	9.340	-0.150	0.360	0.700
2020/01/31 19:18:24.8				
2020/01/31 19:18:24.9	9.300	-0.280	0.490	0.690
2020/01/31 19:18:25.0	9.260	-0.400	0.590	0.660
2020/01/31 19:18:25.1	9.240	-0.450	0.630	0.640
2020/01/31 19:18:25.2	9.230	-0.500	0.670	0.620
2020/01/31 19:18:25.3	9.210	-0.550	0.690	0.590
2020/01/31 19:18:25.4	9.190	-0.590	0.710	0.550
2020/01/31 19:18:25.5	9.180	-0.630	0.730	0.510
2020/01/31 19:18:25.6				
2020/01/31 19:18:25.7	9.170	-0.660	0.730	0.470
2020/01/31 19:18:25.8	9.160	-0.690	0.730	0.420
2020/01/31 19:18:25.9	9.150	-0.720	0.730	0.370
2020/01/31 19:18:26.0	9.140	-0.730	0.710	0.320
2020/01/31 19:18:26.1	9.130	-0.740	0.690	0.260
2020/01/31 19:18:26.2	9.130	-0.750	0.670	0.210
2020/01/31 19:18:26.3	9.120	-0.750	0.630	0.150
2020/01/31 19:18:26.4	9.120	-0.740	0.600	0.100
2020/01/31 19:18:26.5	9.120	-0.730	0.560	0.050
2020/01/31 19:18:26.6	9.120	-0.710	0.510	-0.000
2020/01/31 19:18:26.7	9.110	-0.690	0.460	-0.050
2020/01/31 19:18:26.8	9.110	-0.660	0.410	-0.100
2020/01/31 19:18:26.9	9.110	-0.620	0.360	-0.150
2020/01/31 19:18:27.0	9.110	-0.580	0.310	-0.180
2020/01/31 19:18:27.1	9.110	-0.540	0.250	-0.220
2020/01/31 19:18:27.2				
2020/01/31 19:18:27.3	9.110	-0.440	0.140	-0.270
2020/01/31 19:18:27.4	9.110	-0.380	0.080	-0.300
2020/01/31 19:18:27.5	9.100	-0.320	0.020	-0.310
2020/01/31 19:18:27.6	9.100	-0.260	-0.030	-0.320
2020/01/31 19:18:27.7	9.100	-0.200	-0.090	-0.330
2020/01/31 19:18:27.8	9.100	-0.140	-0.140	-0.340
2020/01/31 19:18:27.9	9.090	-0.080	-0.190	-0.330
2020/01/31 19:18:28.0				
2020/01/31 19:18:28.1	9.090	0.050	-0.280	-0.320
2020/01/31 19:18:28.2	9.090	0.110	-0.330	-0.310
2020/01/31 19:18:28.3				
2020/01/31 19:18:28.4	9.090	0.220	-0.400	-0.270
2020/01/31 19:18:28.5	9.090	0.270	-0.440	-0.250
2020/01/31 19:18:28.6	9.090	0.320	-0.470	-0.230
2020/01/31 19:18:28.7	9.090	0.360	-0.500	-0.200
2020/01/31 19:18:28.8	9.100	0.400	-0.530	-0.180
2020/01/31 19:18:28.9	9.100	0.440	-0.550	-0.150
2020/01/31 19:18:29.0	9.100	0.470	-0.570	-0.120
2020/01/31 19:18:29.1	9.100	0.500	-0.590	-0.090
2020/01/31 19:18:29.2	9.110	0.520	-0.610	-0.060
2020/01/31 19:18:29.3	9.110	0.530	-0.620	-0.030
2020/01/31 19:18:29.4	9.110	0.540	-0.630	0.000
2020/01/31 19:18:29.5	9.120	0.540	-0.640	0.030
2020/01/31 19:18:29.6	9.120	0.530	-0.640	0.090
2020/01/31 19:18:29.7				
2020/01/31 19:18:29.8	9.120	0.510	-0.640	0.120
2020/01/31 19:18:29.9	9.110	0.490	-0.640	0.140
2020/01/31 19:18:30.0	9.110	0.460	-0.630	0.170
2020/01/31 19:18:30.1	9.100	0.430	-0.630	0.200
2020/01/31 19:18:30.2	9.100	0.400	-0.610	0.220
2020/01/31 19:18:30.3	9.090	0.350	-0.600	0.250
2020/01/31 19:18:30.4				
2020/01/31 19:18:30.5	9.070	0.260	-0.570	0.300
2020/01/31 19:18:30.6	9.060	0.210	-0.550	0.320
2020/01/31 19:18:30.7	9.040	0.160	-0.530	0.340
2020/01/31 19:18:30.8	9.030	0.100	-0.500	0.360
2020/01/31 19:18:30.9	9.020	0.040	-0.480	0.380
2020/01/31 19:18:31.0				
2020/01/31 19:18:31.1	8.980	-0.080	-0.420	0.410
2020/01/31 19:18:31.2	8.970	-0.140	-0.390	0.420
2020/01/31 19:18:31.3	8.950	-0.200	-0.360	0.430
2020/01/31 19:18:31.4	8.940	-0.260	-0.330	0.430
2020/01/31 19:18:31.5	8.920	-0.310	-0.300	0.430
2020/01/31 19:18:31.6	8.910	-0.370	-0.270	0.430
2020/01/31 19:18:31.7	8.890	-0.420	-0.230	0.430
2020/01/31 19:18:31.8	8.880	-0.470	-0.200	0.420
2020/01/31 19:18:31.9	8.870	-0.520	-0.170	0.410
2020/01/31 19:18:32.0	8.850	-0.560	-0.140	0.400
2020/01/31 19:18:32.1				
2020/01/31 19:18:32.2	8.830	-0.640	-0.080	0.360
2020/01/31 19:18:32.3	8.820	-0.670	-0.060	0.350
2020/01/31 19:18:32.4	8.820	-0.690	-0.030	0.320
2020/01/31 19:18:32.5	8.810	-0.710	-0.000	0.300
2020/01/31 19:18:32.6	8.800	-0.730	0.020	0.280
2020/01/31 19:18:32.7	8.790	-0.740	0.040	0.260
2020/01/31 19:18:32.8	8.790	-0.740	0.060	0.230
2020/01/31 19:18:32.9	8.770	-0.740	0.090	0.200
2020/01/31 19:18:33.0	8.770	-0.730	0.100	0.180
2020/01/31 19:18:33.1	8.760	-0.720	0.110	0.160
2020/01/31 19:18:33.2	8.750	-0.700	0.120	0.130
2020/01/31 19:18:33.3	8.750	-0.670	0.130	0.110
2020/01/31 19:18:33.4	8.740	-0.640	0.140	0.090
2020/01/31 19:18:33.5	8.730	-0.610	0.140	0.080
2020/01/31 19:18:33.6	8.720	-0.560	0.140	0.060
2020/01/31 19:18:33.7	8.720	-0.520	0.130	0.050
2020/01/31 19:18:33.8	8.710	-0.470	0.120	0.040
2020/01/31 19:18:33.9	8.700	-0.410	0.110	0.040
2020/01/31 19:18:34.0	8.690	-0.360	0.100	0.030
2020/01/31 19:18:34.1	8.690	-0.290	0.080	0.030
2020/01/31 19:18:34.2	8.680	-0.230	0.060	0.030
2020/01/31 19:18:34.3	8.670	-0.160	0.040	0.040
2020/01/31 19:18:34.4	8.660	-0.090	0.010	0.040
2020/01/31 19:18:34.5	8.650	-0.020	-0.020	0.050
2020/01/31 19:18:34.6	8.640	0.050	-0.050	0.070
2020/01/31 19:18:34.7	8.630	0.120	-0.080	0.080
2020/01/31 19:18:34.8	8.610	0.200	-0.110	0.100
2020/01/31 19:18:34.9	8.600	0.270	-0.150	0.120
2020/01/31 19:18:35.0	8.590	0.340	-0.190	0.140
2020/01/31 19:18:35.1	8.580	0.410	-0.230	0.170
2020/01/31 19:18:35.2	8.560	0.480	-0.270	0.200
2020/01/31 19:18:35.3	8.550	0.540	-0.310	0.220
2020/01/31 19:18:35.4	8.540	0.600	-0.350	0.250
2020/01/31 19:18:35.5	8.530	0.660	-0.400	0.290
2020/01/31 19:18:35.6	8.520	0.720	-0.440	0.320
2020/01/31 19:18:35.7	8.510	0.770	-0.480	0.350
2020/01/31 19:18:35.8	8.500	0.820	-0.530	0.380
2020/01/31 19:18:35.9	8.500	0.860	-0.570	0.420
2020/01/31 19:18:36.0	8.500	0.890	-0.610	0.450
2020/01/31 19:18:36.1	8.490	0.920	-0.650	0.480
2020/01/31 19:18:36.2	8.490	0.950	-0.690	0.510
2020/01/31 19:18:36.3	8.480	0.960	-0.720	0.530
2020/01/31 19:18:36.4	8.480	0.980	-0.750	0.560
2020/01/31 19:18:36.5	8.480	0.980	-0.780	0.580
2020/01/31 19:18:36.6	8.480	0.980	-0.800	0.600
2020/01/31 19:18:36.7	8.480	0.980	-0.820	0.620
2020/01/31 19:18:36.8	8.490	0.960	-0.840	0.640
2020/01/31 19:18:36.9	8.490	0.940	-0.850	0.650
2020/01/31 19:18:37.0	8.500	0.920	-0.850	0.660
2020/01/31 19:18:37.1	8.510	0.890	-0.850	0.670
2020/01/31 19:18:37.2	8.520	0.850	-0.840	0.680
2020/01/31 19:18:37.3	8.530	0.810	-0.820	0.680
2020/01/31 19:18:37.4	8.540	0.760	-0.800	0.690
2020/01/31 19:18:37.5	8.550	0.710	-0.770	0.690
2020/01/31 19:18:37.6	8.560	0.650	-0.730	0.690
2020/01/31 19:18:37.7	8.570	0.590	-0.690	0.700
2020/01/31 19:18:37.8	8.580	0.530	-0.640	0.700
2020/01/31 19:18:37.9	8.580	0.460	-0.590	0.700
2020/01/31 19:18:38.0	8.590	0.390	-0.530	0.700
2020/01/31 19:18:38.1	8.600	0.320	-0.470	0.700
2020/01/31 19:18:38.2				
2020/01/31 19:18:38.3	8.610	0.170	-0.330	0.690
2020/01/31 19:18:38.4	8.610	0.100	-0.250	0.690
2020/01/31 19:18:38.5	8.610	0.030	-0.170	0.690
2020/01/31 19:18:38.6	8.610	-0.050	-0.090	0.680
2020/01/31 19:18:38.7	8.610	-0.120	-0.020	0.680
2020/01/31 19:18:38.8	8.610	-0.190	0.060	0.670
2020/01/31 19:18:38.9	8.600	-0.260	0.140	0.660
2020/01/31 19:18:39.0	8.590	-0.320	0.210	0.650
2020/01/31 19:18:39.1	8.580	-0.390	0.280	0.640
2020/01/31 19:18:39.2	8.570	-0.450	0.350	0.630
2020/01/31 19:18:39.3	8.560	-0.500	0.410	0.620
2020/01/31 19:18:39.4	8.550	-0.560	0.470	0.600
2020/01/31 19:18:39.5	8.540	-0.610	0.520	0.580
2020/01/31 19:18:39.6	8.520	-0.650	0.560	0.560
2020/01/31 19:18:39.7	8.510	-0.690	0.590	0.540
2020/01/31 19:18:39.8	8.490	-0.720	0.620	0.510
2020/01/31 19:18:39.9	8.480	-0.750	0.650	0.490
2020/01/31 19:18:40.0	8.460	-0.780	0.660	0.460
2020/01/31 19:18:40.1	8.440	-0.800	0.660	0.420
2020/01/31 19:18:40.2	8.420	-0.810	0.660	0.390
2020/01/31 19:18:40.3	8.410	-0.820	0.650	0.350
2020/01/31 19:18:40.4	8.390	-0.820	0.630	0.320
2020/01/31 19:18:40.5	8.370	-0.820	0.600	0.280
2020/01/31 19:18:40.6	8.350	-0.810	0.570	0.230
2020/01/31 19:18:40.7	8.330	-0.790	0.530	0.190
2020/01/31 19:18:40.8	8.310	-0.780	0.480	0.150
2020/01/31 19:18:40.9	8.300	-0.750	0.430	0.100
2020/01/31 19:18:41.0	8.280	-0.720	0.370	0.050
2020/01/31 19:18:41.1	8.270	-0.690	0.310	0.010
2020/01/31 19:18:41.2	8.260	-0.660	0.240	-0.040
2020/01/31 19:18:41.3	8.250	-0.620	0.170	-0.090
2020/01/31 19:18:41.4	8.240	-0.580	0.100	-0.140
2020/01/31 19:18:41.5	8.240	-0.540	0.040	-0.180
2020/01/31 19:18:41.6	8.230	-0.490	-0.030	-0.230
2020/01/31 19:18:41.7	8.230	-0.440	-0.100	-0.280
2020/01/31 19:18:41.8	8.230	-0.390	-0.170	-0.330
2020/01/31 19:18:41.9	8.250	-0.340	-0.230	-0.370
2020/01/31 19:18:42.0	8.250	-0.300	-0.290	-0.420
2020/01/31 19:18:42.1	8.260	-0.250	-0.340	-0.460
2020/01/31 19:18:42.2	8.270	-0.200	-0.390	-0.500
2020/01/31 19:18:42.3	8.290	-0.150	-0.440	-0.540
2020/01/31 19:18:42.4	8.300	-0.100	-0.480	-0.580
2020/01/31 19:18:42.5	8.310	-0.060	-0.510	-0.620
2020/01/31 19:18:42.6	8.330	-0.010	-0.530	-0.650
2020/01/31 19:18:42.7	8.350	0.030	-0.550	-0.680
2020/01/31 19:18:42.8	8.370	0.070	-0.560	-0.700
2020/01/31 19:18:42.9	8.390	0.110	-0.560	-0.720
2020/01/31 19:18:43.0	8.400	0.140	-0.550	-0.740
2020/01/31 19:18:43.1	8.420	0.170	-0.540	-0.750
2020/01/31 19:18:43.2	8.440	0.200	-0.520	-0.750
2020/01/31 19:18:43.3	8.450	0.230	-0.490	-0.750
2020/01/31 19:18:43.4	8.470	0.250	-0.450	-0.750
2020/01/31 19:18:43.5	8.480	0.270	-0.410	-0.730
2020/01/31 19:18:43.6	8.490	0.290	-0.370	-0.710
2020/01/31 19:18:43.7	8.490	0.300	-0.320	-0.680
2020/01/31 19:18:43.8	8.500	0.320	-0.260	-0.650
2020/01/31 19:18:43.9	8.500	0.330	-0.210	-0.610
2020/01/31 19:18:44.0	8.500	0.330	-0.150	-0.560
2020/01/31 19:18:44.1	8.500	0.340	-0.090	-0.510
2020/01/31 19:18:44.2	8.490	0.340	-0.030	-0.450
2020/01/31 19:18:44.3	8.480	0.330	0.030	-0.390
2020/01/31 19:18:44.4	8.470	0.330	0.080	-0.330
2020/01/31 19:18:44.5	8.460	0.320	0.130	-0.260
2020/01/31 19:18:44.6	8.440	0.320	0.180	-0.190
2020/01/31 19:18:44.7	8.430	0.310	0.220	-0.120
2020/01/31 19:18:44.8	8.410	0.290	0.260	-0.050
2020/01/31 19:18:44.9	8.390	0.280	0.280	0.030
2020/01/31 19:18:45.0	8.370	0.270	0.300	0.100
2020/01/31 19:18:45.1	8.350	0.250	0.310	0.160
2020/01/31 19:18:45.2	8.330	0.230	0.310	0.230
2020/01/31 19:18:45.3	8.310	0.220	0.300	0.290
2020/01/31 19:18:45.4	8.280	0.200	0.280	0.340
2020/01/31 19:18:45.5	8.260	0.180	0.260	0.390
2020/01/31 19:18:45.6	8.240	0.160	0.220	0.440
2020/01/31 19:18:45.7	8.220	0.140	0.180	0.470
2020/01/31 19:18:45.8	8.200	0.120	0.130	0.510
2020/01/31 19:18:45.9	8.180	0.100	0.070	0.530
2020/01/31 19:18:46.0	8.170	0.070	0.010	0.550
2020/01/31 19:18:46.1	8.150	0.050	-0.060	0.570
2020/01/31 19:18:46.2	8.140	0.030	-0.140	0.570
2020/01/31 19:18:46.3	8.130	0.010	-0.220	0.570
2020/01/31 19:18:46.4	8.120	-0.000	-0.300	0.560
2020/01/31 19:18:46.5	8.120	-0.020	-0.390	0.550
2020/01/31 19:18:46.6	8.120	-0.040	-0.480	0.530
2020/01/31 19:18:46.7	8.120	-0.060	-0.570	0.500
2020/01/31 19:18:46.8	8.130	-0.070	-0.650	0.470
2020/01/31 19:18:46.9	8.130	-0.090	-0.740	0.430
2020/01/31 19:18:47.0	8.140	-0.100	-0.830	0.390
2020/01/31 19:18:47.1	8.160	-0.110	-0.910	0.350
2020/01/31 19:18:47.2	8.180	-0.120	-0.980	0.300
2020/01/31 19:18:47.3	8.200	-0.130	-1.050	0.240
2020/01/31 19:18:47.4	8.220	-0.140	-1.120	0.190
2020/01/31 19:18:47.5	8.250	-0.150	-1.170	0.140
2020/01/31 19:18:47.6	8.270	-0.150	-1.230	0.080
2020/01/31 19:18:47.7	8.300	-0.150	-1.270	0.020
2020/01/31 19:18:47.8	8.330	-0.150	-1.300	-0.030
2020/01/31 19:18:47.9	8.360	-0.150	-1.320	-0.090
2020/01/31 19:18:48.0	8.390	-0.150	-1.330	-0.130
2020/01/31 19:18:48.1	8.420	-0.150	-1.330	-0.180
2020/01/31 19:18:48.2	8.450	-0.140	-1.330	-0.220
2020/01/31 19:18:48.3	8.480	-0.140	-1.310	-0.260
2020/01/31 19:18:48.4	8.510	-0.130	-1.280	-0.290
2020/01/31 19:18:48.5	8.540	-0.120	-1.240	-0.320
2020/01/31 19:18:48.6	8.570	-0.110	-1.190	-0.340
2020/01/31 19:18:48.7	8.590	-0.100	-1.140	-0.350
2020/01/31 19:18:48.8	8.620	-0.080	-1.070	-0.360
2020/01/31 19:18:48.9	8.630	-0.070	-1.000	-0.370
2020/01/31 19:18:49.0	8.650	-0.060	-0.920	-0.360
2020/01/31 19:18:49.1	8.670	-0.040	-0.840	-0.360
2020/01/31 19:18:49.2	8.680	-0.030	-0.740	-0.340
2020/01/31 19:18:49.3	8.700	-0.010	-0.650	-0.320
2020/01/31 19:18:49.4	8.710	0.000	-0.540	-0.300
2020/01/31 19:18:49.5	8.710	0.020	-0.440	-0.270
2020/01/31 19:18:49.6	8.720	0.030	-0.330	-0.240
2020/01/31 19:18:49.7	8.720	0.050	-0.230	-0.200
2020/01/31 19:18:49.8	8.720	0.060	-0.120	-0.170
2020/01/31 19:18:49.9	8.720	0.080	-0.020	-0.120
2020/01/31 19:18:50.0	8.710	0.090	0.090	-0.080
2020/01/31 19:18:50.1	8.710	0.110	0.190	-0.030
2020/01/31 19:18:50.2	8.700	0.120	0.280	0.010
2020/01/31 19:18:50.3	8.690	0.130	0.370	0.060
2020/01/31 19:18:50.4	8.680	0.140	0.460	0.110
2020/01/31 19:18:50.5	8.670	0.150	0.530	0.150
2020/01/31 19:18:50.6	8.650	0.160	0.600	0.200
2020/01/31 19:18:50.7	8.640	0.160	0.660	0.240
2020/01/31 19:18:50.8	8.630	0.170	0.720	0.280
2020/01/31 19:18:50.9	8.610	0.180	0.760	0.320
2020/01/31 19:18:51.0	8.600	0.180	0.790	0.360
2020/01/31 19:18:51.1	8.590	0.180	0.820	0.390
2020/01/31 19:18:51.2	8.580	0.190	0.830	0.420
2020/01/31 19:18:51.3	8.570	0.190	0.830	0.450
2020/01/31 19:18:51.4	8.560	0.190	0.830	0.470
2020/01/31 19:18:51.5	8.550	0.190	0.810	0.490
2020/01/31 19:18:51.6	8.540	0.180	0.790	0.510
2020/01/31 19:18:51.7	8.540	0.180	0.760	0.530
2020/01/31 19:18:51.8	8.530	0.180	0.720	0.540
2020/01/31 19:18:51.9	8.530	0.180	0.670	0.560
2020/01/31 19:18:52.0	8.530	0.170	0.610	0.570
2020/01/31 19:18:52.1	8.530	0.170	0.550	0.580
2020/01/31 19:18:52.2	8.530	0.170	0.490	0.590
2020/01/31 19:18:52.3	8.540	0.160	0.420	0.590
2020/01/31 19:18:52.4	8.540	0.160	0.350	0.600
2020/01/31 19:18:52.5	8.550	0.160	0.270	0.610
2020/01/31 19:18:52.6	8.560	0.150	0.190	0.620
2020/01/31 19:18:52.7	8.570	0.150	0.120	0.630
2020/01/31 19:18:52.8	8.580	0.140	0.040	0.640
2020/01/31 19:18:52.9	8.590	0.140	-0.030	0.640
2020/01/31 19:18:53.0	8.600	0.140	-0.100	0.660
2020/01/31 19:18:53.1	8.610	0.130	-0.170	0.670
2020/01/31 19:18:53.2	8.620	0.130	-0.240	0.680
2020/01/31 19:18:53.3	8.630	0.130	-0.300	0.700
2020/01/31 19:18:53.4	8.640	0.120	-0.350	0.710
2020/01/31 19:18:53.5	8.650	0.120	-0.400	0.730
2020/01/31 19:18:53.6	8.650	0.120	-0.440	0.740
2020/01/31 19:18:53.7	8.660	0.110	-0.480	0.760
2020/01/31 19:18:53.8	8.670	0.110	-0.510	0.780
2020/01/31 19:18:53.9	8.660	0.100	-0.540	0.790
2020/01/31 19:18:54.0	8.670	0.090	-0.560	0.810
2020/01/31 19:18:54.1	8.670	0.090	-0.570	0.830
2020/01/31 19:18:54.2	8.670	0.080	-0.570	0.840
2020/01/31 19:18:54.3	8.670	0.070	-0.570	0.860
2020/01/31 19:18:54.4	8.670	0.060	-0.570	0.870
2020/01/31 19:18:54.5	8.660	0.050	-0.550	0.880
2020/01/31 19:18:54.6	8.660	0.040	-0.540	0.890
2020/01/31 19:18:54.7	8.650	0.020	-0.520	0.900
2020/01/31 19:18:54.8	8.650	0.010	-0.490	0.900
2020/01/31 19:18:54.9	8.640	-0.000	-0.470	0.900
2020/01/31 19:18:55.0	8.630	-0.020	-0.440	0.900
2020/01/31 19:18:55.1	8.620	-0.030	-0.410	0.900
2020/01/31 19:18:55.2	8.620	-0.050	-0.370	0.890
2020/01/31 19:18:55.3	8.610	-0.070	-0.340	0.880
2020/01/31 19:18:55.4	8.600	-0.090	-0.310	0.860
2020/01/31 19:18:55.5	8.600	-0.110	-0.270	0.840
2020/01/31 19:18:55.6	8.590	-0.120	-0.240	0.820
2020/01/31 19:18:55.7	8.580	-0.140	-0.210	0.790
2020/01/31 19:18:55.8	8.580	-0.160	-0.180	0.760
2020/01/31 19:18:55.9	8.570	-0.190	-0.150	0.730
2020/01/31 19:18:56.0	8.560	-0.210	-0.120	0.690
2020/01/31 19:18:56.1	8.550	-0.230	-0.100	0.660
2020/01/31 19:18:56.2	8.550	-0.250	-0.080	0.620
2020/01/31 19:18:56.3	8.540	-0.270	-0.060	0.580
2020/01/31 19:18:56.4	8.540	-0.290	-0.040	0.540
2020/01/31 19:18:56.5	8.530	-0.310	-0.030	0.500
2020/01/31 19:18:56.6	8.530	-0.330	-0.020	0.450
2020/01/31 19:18:56.7	8.520	-0.350	-0.010	0.410
2020/01/31 19:18:56.8	8.520	-0.360	-0.000	0.370
2020/01/31 19:18:56.9	8.510	-0.380	0.000	0.320
2020/01/31 19:18:57.0	8.510	-0.400	0.000	0.280
2020/01/31 19:18:57.1	8.500	-0.410	0.000	0.230
2020/01/31 19:18:57.2	8.500	-0.430	-0.000	0.190
2020/01/31 19:18:57.3	8.500	-0.440	-0.010	0.150
2020/01/31 19:18:57.4	8.490	-0.450	-0.010	0.100
2020/01/31 19:18:57.5	8.490	-0.460	-0.020	0.060
2020/01/31 19:18:57.6	8.490	-0.470	-0.030	0.020
2020/01/31 19:18:57.7	8.490	-0.470	-0.040	-0.020
2020/01/31 19:18:57.8	8.490	-0.480	-0.050	-0.060
2020/01/31 19:18:57.9	8.500	-0.480	-0.060	-0.100
2020/01/31 19:18:58.0	8.500	-0.480	-0.070	-0.140
2020/01/31 19:18:58.1	8.510	-0.480	-0.080	-0.180
2020/01/31 19:18:58.2	8.510	-0.480	-0.090	-0.220
2020/01/31 19:18:58.3	8.520	-0.470	-0.100	-0.260
2020/01/31 19:18:58.4	8.520	-0.460	-0.120	-0.290
2020/01/31 19:18:58.5	8.530	-0.450	-0.130	-0.330
2020/01/31 19:18:58.6	8.540	-0.440	-0.130	-0.360
2020/01/31 19:18:58.7	8.550	-0.420	-0.140	-0.390
2020/01/31 19:18:58.8	8.560	-0.410	-0.150	-0.420
2020/01/31 19:18:58.9	8.570	-0.390	-0.160	-0.450
2020/01/31 19:18:59.0	8.580	-0.370	-0.160	-0.480
2020/01/31 19:18:59.1	8.590	-0.340	-0.170	-0.510
2020/01/31 19:18:59.2	8.600	-0.320	-0.180	-0.530
2020/01/31 19:18:59.3	8.600	-0.290	-0.180	-0.550
2020/01/31 19:18:59.4	8.610	-0.260	-0.190	-0.560
2020/01/31 19:18:59.5	8.620	-0.230	-0.190	-0.580
2020/01/31 19:18:59.6	8.620	-0.190	-0.200	-0.590
2020/01/31 19:18:59.7	8.620	-0.160	-0.200	-0.590
2020/01/31 19:18:59.8	8.620	-0.120	-0.210	-0.590
2020/01/31 19:18:59.9	8.630	-0.090	-0.210	-0.590
2020/01/31 19:19:00.0	8.630	-0.050	-0.220	-0.580
2020/01/31 19:19:00.1	8.620	-0.010	-0.230	-0.580
2020/01/31 19:19:00.2	8.610	0.030	-0.230	-0.560
2020/01/31 19:19:00.3	8.600	0.070	-0.240	-0.550
2020/01/31 19:19:00.4	8.590	0.110	-0.250	-0.530
2020/01/31 19:19:00.5	8.580	0.150	-0.260	-0.510
2020/01/31 19:19:00.6	8.570	0.180	-0.270	-0.490
2020/01/31 19:19:00.7	8.560	0.220	-0.290	-0.470
2020/01/31 19:19:00.8	8.540	0.260	-0.300	-0.440
2020/01/31 19:19:00.9	8.530	0.290	-0.320	-0.410
2020/01/31 19:19:01.0	8.520	0.320	-0.330	-0.380
2020/01/31 19:19:01.1	8.500	0.350	-0.350	-0.360
2020/01/31 19:19:01.2	8.490	0.380	-0.370	-0.330
2020/01/31 19:19:01.3	8.470	0.410	-0.390	-0.300
2020/01/31 19:19:01.4	8.460	0.430	-0.410	-0.270
2020/01/31 19:19:01.5	8.450	0.450	-0.430	-0.240
2020/01/31 19:19:01.6	8.450	0.470	-0.450	-0.210
2020/01/31 19:19:01.7	8.440	0.490	-0.480	-0.190
2020/01/31 19:19:01.8	8.430	0.500	-0.500	-0.160
2020/01/31 19:19:01.9	8.440	0.510	-0.530	-0.130
2020/01/31 19:19:02.0	8.440	0.520	-0.550	-0.110
2020/01/31 19:19:02.1	8.440	0.530	-0.570	-0.080
2020/01/31 19:19:02.2	8.450	0.530	-0.600	-0.060
2020/01/31 19:19:02.3	8.450	0.530	-0.620	-0.040
2020/01/31 19:19:02.4	8.460	0.530	-0.640	-0.020
2020/01/31 19:19:02.5	8.480	0.520	-0.660	0.000
2020/01/31 19:19:02.6	8.490	0.520	-0.680	0.020
2020/01/31 19:19:02.7	8.510	0.510	-0.700	0.040
2020/01/31 19:19:02.8	8.530	0.500	-0.710	0.060
2020/01/31 19:19:02.9	8.560	0.490	-0.720	0.080
2020/01/31 19:19:03.0	8.580	0.470	-0.730	0.100
2020/01/31 19:19:03.1	8.610	0.460	-0.740	0.120
2020/01/31 19:19:03.2	8.630	0.440	-0.740	0.130
2020/01/31 19:19:03.3	8.660	0.420	-0.740	0.150
2020/01/31 19:19:03.4	8.690	0.400	-0.740	0.170
2020/01/31 19:19:03.5	8.720	0.380	-0.730	0.180
2020/01/31 19:19:03.6	8.740	0.350	-0.720	0.200
2020/01/31 19:19:03.7	8.770	0.330	-0.710	0.220
2020/01/31 19:19:03.8	8.800	0.310	-0.690	0.230
2020/01/31 19:19:03.9	8.830	0.280	-0.670	0.250
2020/01/31 19:19:04.0	8.860	0.250	-0.650	0.260
2020/01/31 19:19:04.1	8.890	0.230	-0.620	0.280
2020/01/31 19:19:04.2	8.920	0.200	-0.590	0.290
2020/01/31 19:19:04.3	8.940	0.170	-0.560	0.310
2020/01/31 19:19:04.4	8.970	0.150	-0.520	0.320
2020/01/31 19:19:04.5	8.990	0.120	-0.480	0.340
2020/01/31 19:19:04.6	9.010	0.090	-0.440	0.360
2020/01/31 19:19:04.7	9.030	0.070	-0.390	0.370
2020/01/31 19:19:04.8	9.050	0.040	-0.350	0.390
2020/01/31 19:19:04.9	9.060	0.020	-0.300	0.410
2020/01/31 19:19:05.0	9.080	-0.000	-0.240	0.430
2020/01/31 19:19:05.1	9.080	-0.030	-0.190	0.460
2020/01/31 19:19:05.2	9.090	-0.050	-0.140	0.480
2020/01/31 19:19:05.3	9.090	-0.070	-0.080	0.510
2020/01/31 19:19:05.4	9.090	-0.090	-0.030	0.530
2020/01/31 19:19:05.5	9.090	-0.110	0.030	0.560
2020/01/31 19:19:05.6	9.080	-0.120	0.090	0.590
2020/01/31 19:19:05.7	9.070	-0.140	0.140	0.620
2020/01/31 19:19:05.8	9.060	-0.150	0.200	0.660
2020/01/31 19:19:05.9	9.030	-0.170	0.250	0.690
2020/01/31 19:19:06.0	9.010	-0.180	0.310	0.730
2020/01/31 19:19:06.1	8.990	-0.190	0.360	0.760
2020/01/31 19:19:06.2	8.970	-0.200	0.410	0.800
2020/01/31 19:19:06.3	8.940	-0.210	0.460	0.840
2020/01/31 19:19:06.4	8.910	-0.210	0.510	0.880
2020/01/31 19:19:06.5	8.880	-0.220	0.560	0.920
2020/01/31 19:19:06.6	8.840	-0.230	0.600	0.960
2020/01/31 19:19:06.7	8.800	-0.230	0.640	1.000
2020/01/31 19:19:06.8	8.770	-0.230	0.680	1.040
2020/01/31 19:19:06.9	8.720	-0.230	0.710	1.080
2020/01/31 19:19:07.0	8.680	-0.230	0.740	1.120
2020/01/31 19:19:07.1	8.640	-0.230	0.760	1.160
2020/01/31 19:19:07.2	8.600	-0.230	0.780	1.200
2020/01/31 19:19:07.3	8.560	-0.230	0.800	1.240
2020/01/31 19:19:07.4	8.520	-0.220	0.810	1.270
2020/01/31 19:19:07.5	8.480	-0.220	0.810	1.300
2020/01/31 19:19:07.6	8.440	-0.210	0.810	1.330
2020/01/31 19:19:07.7	8.410	-0.210	0.810	1.360
2020/01/31 19:19:07.8	8.370	-0.200	0.800	1.380
2020/01/31 19:19:07.9	8.330	-0.190	0.770	1.400
2020/01/31 19:19:08.0	8.300	-0.180	0.750	1.420
2020/01/31 19:19:08.1	8.270	-0.170	0.720	1.430
2020/01/31 19:19:08.2	8.250	-0.160	0.680	1.440
2020/01/31 19:19:08.3	8.230	-0.150	0.640	1.440
2020/01/31 19:19:08.4	8.210	-0.140	0.590	1.440
2020/01/31 19:19:08.5	8.190	-0.120	0.530	1.430
2020/01/31 19:19:08.6	8.180	-0.110	0.470	1.420
2020/01/31 19:19:08.7	8.170	-0.090	0.410	1.400
2020/01/31 19:19:08.8	8.170	-0.080	0.340	1.380
2020/01/31 19:19:08.9	8.160	-0.060	0.270	1.350
2020/01/31 19:19:09.0	8.160	-0.050	0.190	1.320
2020/01/31 19:19:09.1	8.160	-0.030	0.110	1.280
2020/01/31 19:19:09.2	8.170	-0.020	0.030	1.230
2020/01/31 19:19:09.3	8.180	-0.010	-0.060	1.180
2020/01/31 19:19:09.4	8.200	0.010	-0.140	1.130
2020/01/31 19:19:09.5	8.210	0.020	-0.220	1.070
2020/01/31 19:19:09.6	8.230	0.030	-0.310	1.010
2020/01/31 19:19:09.7	8.250	0.050	-0.390	0.940
2020/01/31 19:19:09.8	8.280	0.060	-0.470	0.870
2020/01/31 19:19:09.9	8.300	0.060	-0.550	0.790
2020/01/31 19:19:10.0	8.330	0.070	-0.630	0.710
2020/01/31 19:19:10.1	8.360	0.080	-0.700	0.630
2020/01/31 19:19:10.2	8.390	0.080	-0.760	0.550
2020/01/31 19:19:10.3	8.420	0.080	-0.830	0.460
2020/01/31 19:19:10.4	8.450	0.090	-0.880	0.380
2020/01/31 19:19:10.5	8.480	0.080	-0.930	0.290
2020/01/31 19:19:10.6	8.510	0.080	-0.980	0.200
2020/01/31 19:19:10.7	8.540	0.080	-1.020	0.110
2020/01/31 19:19:10.8	8.580	0.070	-1.050	0.020
2020/01/31 19:19:10.9	8.620	0.060	-1.070	-0.070
2020/01/31 19:19:11.0	8.650	0.050	-1.090	-0.150
2020/01/31 19:19:11.1	8.680	0.040	-1.100	-0.230
2020/01/31 19:19:11.2	8.710	0.030	-1.100	-0.320
2020/01/31 19:19:11.3	8.740	0.010	-1.100	-0.390
2020/01/31 19:19:11.4	8.770	-0.000	-1.090	-0.470
2020/01/31 19:19:11.5	8.800	-0.020	-1.070	-0.540
2020/01/31 19:19:11.6	8.820	-0.040	-1.040	-0.610
2020/01/31 19:19:11.7	8.850	-0.060	-1.010	-0.680
2020/01/31 19:19:11.8	8.870	-0.080	-0.970	-0.740
2020/01/31 19:19:11.9	8.890	-0.100	-0.930	-0.800
2020/01/31 19:19:12.0	8.910	-0.120	-0.880	-0.850
2020/01/31 19:19:12.1	8.930	-0.150	-0.830	-0.900
2020/01/31 19:19:12.2	8.950	-0.170	-0.770	-0.950
2020/01/31 19:19:12.3	8.960	-0.190	-0.710	-0.990
2020/01/31 19:19:12.4	8.970	-0.220	-0.640	-1.030
2020/01/31 19:19:12.5	8.980	-0.240	-0.570	-1.060
2020/01/31 19:19:12.6	8.990	-0.260	-0.500	-1.090
2020/01/31 19:19:12.7	9.000	-0.280	-0.430	-1.120
2020/01/31 19:19:12.8	9.000	-0.300	-0.360	-1.140
2020/01/31 19:19:12.9	9.000	-0.320	-0.290	-1.150
2020/01/31 19:19:13.0	9.000	-0.340	-0.210	-1.160
2020/01/31 19:19:13.1	8.990	-0.360	-0.140	-1.170
2020/01/31 19:19:13.2	8.990	-0.370	-0.070	-1.170
2020/01/31 19:19:13.3	8.980	-0.390	-0.010	-1.170
2020/01/31 19:19:13.4	8.970	-0.400	0.060	-1.160
2020/01/31 19:19:13.5	8.960	-0.410	0.120	-1.150
2020/01/31 19:19:13.6	8.940	-0.420	0.180	-1.140
2020/01/31 19:19:13.7	8.930	-0.430	0.230	-1.120
2020/01/31 19:19:13.8	8.910	-0.430	0.280	-1.100
2020/01/31 19:19:13.9	8.890	-0.430	0.330	-1.070
2020/01/31 19:19:14.0	8.870	-0.430	0.370	-1.040
2020/01/31 19:19:14.1	8.840	-0.430	0.400	-1.000
2020/01/31 19:19:14.2	8.810	-0.420	0.420	-0.960
2020/01/31 19:19:14.3	8.790	-0.420	0.450	-0.920
2020/01/31 19:19:14.4	8.760	-0.410	0.460	-0.870
2020/01/31 19:19:14.5	8.730	-0.400	0.470	-0.820
2020/01/31 19:19:14.6	8.690	-0.380	0.470	-0.770
2020/01/31 19:19:14.7	8.660	-0.360	0.460	-0.720
2020/01/31 19:19:14.8	8.630	-0.340	0.450	-0.660
2020/01/31 19:19:14.9	8.600	-0.320	0.430	-0.600
2020/01/31 19:19:15.0	8.560	-0.300	0.410	-0.540
2020/01/31 19:19:15.1	8.530	-0.270	0.380	-0.480
2020/01/31 19:19:15.2	8.490	-0.240	0.350	-0.410
2020/01/31 19:19:15.3	8.460	-0.210	0.310	-0.350
2020/01/31 19:19:15.4	8.430	-0.180	0.260	-0.280
2020/01/31 19:19:15.5	8.390	-0.150	0.220	-0.210
2020/01/31 19:19:15.6	8.360	-0.110	0.170	-0.150
2020/01/31 19:19:15.7	8.340	-0.080	0.110	-0.080
2020/01/31 19:19:15.8	8.310	-0.040	0.050	-0.010
2020/01/31 19:19:15.9	8.280	0.000	-0.010	0.060
2020/01/31 19:19:16.0	8.250	0.040	-0.070	0.120
2020/01/31 19:19:16.1	8.230	0.080	-0.130	0.180
2020/01/31 19:19:16.2	8.210	0.120	-0.190	0.250
2020/01/31 19:19:16.3	8.200	0.160	-0.260	0.310
2020/01/31 19:19:16.4	8.180	0.200	-0.320	0.370
2020/01/31 19:19:16.5	8.170	0.240	-0.380	0.420
2020/01/31 19:19:16.6	8.160	0.280	-0.440	0.480
2020/01/31 19:19:16.7	8.160	0.320	-0.500	0.530
2020/01/31 19:19:16.8	8.150	0.350	-0.560	0.580
2020/01/31 19:19:16.9	8.140	0.390	-0.620	0.620
2020/01/31 19:19:17.0	8.140	0.420	-0.670	0.660
2020/01/31 19:19:17.1	8.140	0.450	-0.720	0.700
2020/01/31 19:19:17.2	8.150	0.480	-0.760	0.740
2020/01/31 19:19:17.3	8.150	0.510	-0.810	0.770
2020/01/31 19:19:17.4	8.160	0.540	-0.840	0.810
2020/01/31 19:19:17.5	8.170	0.560	-0.870	0.830
2020/01/31 19:19:17.6	8.180	0.580	-0.900	0.860
2020/01/31 19:19:17.7	8.190	0.590	-0.920	0.880
2020/01/31 19:19:17.8	8.210	0.610	-0.940	0.890
2020/01/31 19:19:17.9	8.220	0.620	-0.940	0.910
2020/01/31 19:19:18.0	8.240	0.620	-0.950	0.920
2020/01/31 19:19:18.1	8.260	0.630	-0.950	0.930
2020/01/31 19:19:18.2	8.280	0.630	-0.940	0.930
2020/01/31 19:19:18.3	8.300	0.630	-0.930	0.940
2020/01/31 19:19:18.4	8.320	0.620	-0.910	0.940
2020/01/31 19:19:18.5	8.350	0.610	-0.890	0.940
2020/01/31 19:19:18.6	8.370	0.600	-0.860	0.930
2020/01/31 19:19:18.7	8.400	0.580	-0.820	0.930
2020/01/31 19:19:18.8	8.420	0.560	-0.780	0.920
2020/01/31 19:19:18.9	8.440	0.540	-0.740	0.910
2020/01/31 19:19:19.0	8.460	0.510	-0.700	0.900
2020/01/31 19:19:19.1	8.490	0.480	-0.640	0.890
2020/01/31 19:19:19.2	8.510	0.450	-0.590	0.880
2020/01/31 19:19:19.3	8.540	0.420	-0.530	0.880
2020/01/31 19:19:19.4	8.560	0.380	-0.460	0.870
2020/01/31 19:19:19.5	8.580	0.340	-0.400	0.860
2020/01/31 19:19:19.6	8.600	0.300	-0.330	0.850
2020/01/31 19:19:19.7	8.620	0.260	-0.260	0.840
2020/01/31 19:19:19.8	8.630	0.220	-0.190	0.840
2020/01/31 19:19:19.9	8.640	0.170	-0.120	0.830
2020/01/31 19:19:20.0	8.650	0.130	-0.050	0.820
2020/01/31 19:19:20.1	8.660	0.090	0.010	0.820
2020/01/31 19:19:20.2	8.680	0.040	0.080	0.810
2020/01/31 19:19:20.3	8.690	-0.000	0.140	0.810
2020/01/31 19:19:20.4	8.690	-0.050	0.200	0.800
2020/01/31 19:19:20.5	8.700	-0.090	0.260	0.790
2020/01/31 19:19:20.6	8.710	-0.140	0.310	0.780
2020/01/31 19:19:20.7	8.720	-0.180	0.360	0.770
2020/01/31 19:19:20.8	8.730	-0.220	0.400	0.760
2020/01/31 19:19:20.9	8.730	-0.250	0.440	0.740
2020/01/31 19:19:21.0	8.730	-0.290	0.470	0.730
2020/01/31 19:19:21.1	8.740	-0.320	0.500	0.710
2020/01/31 19:19:21.2	8.740	-0.350	0.520	0.700
2020/01/31 19:19:21.3	8.740	-0.380	0.540	0.680
2020/01/31 19:19:21.4	8.750	-0.410	0.550	0.660
2020/01/31 19:19:21.5	8.750	-0.430	0.550	0.640
2020/01/31 19:19:21.6	8.750	-0.450	0.550	0.630
2020/01/31 19:19:21.7	8.740	-0.460	0.550	0.610
2020/01/31 19:19:21.8	8.740	-0.480	0.550	0.590
2020/01/31 19:19:21.9	8.750	-0.490	0.530	0.570
2020/01/31 19:19:22.0	8.740	-0.490	0.520	0.560
2020/01/31 19:19:22.1	8.730	-0.490	0.500	0.550
2020/01/31 19:19:22.2	8.720	-0.490	0.480	0.530
2020/01/31 19:19:22.3	8.710	-0.490	0.460	0.520
2020/01/31 19:19:22.4	8.700	-0.480	0.440	0.520
2020/01/31 19:19:22.5	8.680	-0.470	0.410	0.510
2020/01/31 19:19:22.6	8.660	-0.460	0.390	0.510
2020/01/31 19:19:22.7	8.640	-0.440	0.360	0.500
2020/01/31 19:19:22.8	8.620	-0.420	0.330	0.500
2020/01/31 19:19:22.9	8.610	-0.400	0.310	0.510
2020/01/31 19:19:23.0	8.580	-0.380	0.280	0.510
2020/01/31 19:19:23.1	8.560	-0.350	0.250	0.520
2020/01/31 19:19:23.2	8.530	-0.330	0.220	0.520
2020/01/31 19:19:23.3	8.500	-0.300	0.200	0.530
2020/01/31 19:19:23.4	8.480	-0.270	0.170	0.530
2020/01/31 19:19:23.5	8.450	-0.240	0.140	0.540
2020/01/31 19:19:23.6	8.420	-0.210	0.120	0.550
2020/01/31 19:19:23.7	8.390	-0.180	0.090	0.550
2020/01/31 19:19:23.8	8.360	-0.140	0.070	0.560
2020/01/31 19:19:23.9	8.330	-0.110	0.040	0.560
2020/01/31 19:19:24.0	8.300	-0.080	0.020	0.570
2020/01/31 19:19:24.1	8.280	-0.050	-0.000	0.580
2020/01/31 19:19:24.2	8.250	-0.020	-0.030	0.580
2020/01/31 19:19:24.3	8.220	0.010	-0.050	0.590
2020/01/31 19:19:24.4	8.200	0.040	-0.080	0.590
2020/01/31 19:19:24.5	8.180	0.070	-0.110	0.600
2020/01/31 19:19:24.6	8.160	0.090	-0.130	0.600
2020/01/31 19:19:24.7	8.140	0.120	-0.160	0.600
2020/01/31 19:19:24.8	8.120	0.140	-0.190	0.600
2020/01/31 19:19:24.9	8.110	0.160	-0.220	0.600
2020/01/31 19:19:25.0	8.100	0.190	-0.250	0.590
2020/01/31 19:19:25.1	8.080	0.200	-0.290	0.590
2020/01/31 19:19:25.2	8.070	0.220	-0.320	0.580
2020/01/31 19:19:25.3	8.070	0.230	-0.360	0.570
2020/01/31 19:19:25.4	8.060	0.250	-0.390	0.560
2020/01/31 19:19:25.5	8.060	0.260	-0.430	0.540
2020/01/31 19:19:25.6	8.060	0.270	-0.470	0.520
2020/01/31 19:19:25.7	8.060	0.270	-0.510	0.500
2020/01/31 19:19:25.8	8.060	0.280	-0.550	0.480
2020/01/31 19:19:25.9	8.070	0.280	-0.590	0.460
2020/01/31 19:19:26.0	8.080	0.280	-0.640	0.430
2020/01/31 19:19:26.1	8.090	0.280	-0.680	0.400
2020/01/31 19:19:26.2	8.110	0.270	-0.720	0.360
2020/01/31 19:19:26.3	8.120	0.270	-0.760	0.330
2020/01/31 19:19:26.4	8.140	0.260	-0.790	0.290
2020/01/31 19:19:26.5	8.160	0.250	-0.830	0.240
2020/01/31 19:19:26.6	8.180	0.240	-0.860	0.200
2020/01/31 19:19:26.7	8.200	0.230	-0.890	0.150
2020/01/31 19:19:26.8	8.220	0.220	-0.910	0.100
2020/01/31 19:19:26.9	8.240	0.200	-0.930	0.050
2020/01/31 19:19:27.0	8.270	0.190	-0.950	-0.000
2020/01/31 19:19:27.1	8.290	0.170	-0.960	-0.050
2020/01/31 19:19:27.2	8.310	0.150	-0.970	-0.110
2020/01/31 19:19:27.3	8.330	0.130	-0.970	-0.160
2020/01/31 19:19:27.4	8.350	0.120	-0.960	-0.210
2020/01/31 19:19:27.5	8.370	0.100	-0.950	-0.260
2020/01/31 19:19:27.6	8.390	0.080	-0.930	-0.310
2020/01/31 19:19:27.7	8.410	0.060	-0.900	-0.360
2020/01/31 19:19:27.8	8.430	0.040	-0.870	-0.400
2020/01/31 19:19:27.9	8.440	0.030	-0.840	-0.450
2020/01/31 19:19:28.0	8.450	0.010	-0.790	-0.490
2020/01/31 19:19:28.1	8.460	-0.000	-0.750	-0.520
2020/01/31 19:19:28.2	8.470	-0.020	-0.690	-0.560
2020/01/31 19:19:28.3	8.480	-0.030	-0.640	-0.590
2020/01/31 19:19:28.4	8.490	-0.040	-0.580	-0.610
2020/01/31 19:19:28.5	8.500	-0.050	-0.510	-0.640
2020/01/31 19:19:28.6	8.500	-0.060	-0.450	-0.650
2020/01/31 19:19:28.7	8.500	-0.060	-0.380	-0.670
2020/01/31 19:19:28.8	8.500	-0.070	-0.310	-0.680
2020/01/31 19:19:28.9	8.510	-0.070	-0.240	-0.680
2020/01/31 19:19:29.0	8.510	-0.070	-0.170	-0.690
2020/01/31 19:19:29.1	8.510	-0.070	-0.100	-0.680
2020/01/31 19:19:29.2	8.500	-0.070	-0.040	-0.680
2020/01/31 19:19:29.3	8.490	-0.070	0.030	-0.660
2020/01/31 19:19:29.4	8.490	-0.060	0.090	-0.650
2020/01/31 19:19:29.5	8.480	-0.060	0.150	-0.630
2020/01/31 19:19:29.6	8.470	-0.050	0.210	-0.610
2020/01/31 19:19:29.7	8.460	-0.050	0.260	-0.580
2020/01/31 19:19:29.8	8.450	-0.040	0.310	-0.560
2020/01/31 19:19:29.9	8.440	-0.030	0.350	-0.520
2020/01/31 19:19:30.0	8.430	-0.030	0.390	-0.490
2020/01/31 19:19:30.1	8.420	-0.020	0.430	-0.450
2020/01/31 19:19:30.2	8.400	-0.010	0.450	-0.410
2020/01/31 19:19:30.3	8.390	-0.010	0.480	-0.370
2020/01/31 19:19:30.4	8.380	-0.000	0.490	-0.320
2020/01/31 19:19:30.5	8.370	-0.000	0.500	-0.280
2020/01/31 19:19:30.6	8.360	0.000	0.510	-0.240
2020/01/31 19:19:30.7	8.350	0.000	0.500	-0.190
2020/01/31 19:19:30.8	8.340	0.000	0.490	-0.140
2020/01/31 19:19:30.9	8.340	0.000	0.480	-0.100
2020/01/31 19:19:31.0	8.340	0.000	0.460	-0.050
2020/01/31 19:19:31.1	8.330	-0.000	0.440	-0.000
2020/01/31 19:19:31.2	8.330	-0.010	0.410	0.040
2020/01/31 19:19:31.3	8.330	-0.010	0.370	0.090
2020/01/31 19:19:31.4	8.330	-0.020	0.340	0.130
2020/01/31 19:19:31.5	8.340	-0.030	0.300	0.170
2020/01/31 19:19:31.6	8.340	-0.040	0.260	0.210
2020/01/31 19:19:31.7	8.350	-0.050	0.220	0.250
2020/01/31 19:19:31.8	8.350	-0.060	0.170	0.290
2020/01/31 19:19:31.9	8.350	-0.080	0.130	0.330
2020/01/31 19:19:32.0	8.360	-0.090	0.090	0.360
2020/01/31 19:19:32.1	8.370	-0.110	0.050	0.390
2020/01/31 19:19:32.2	8.380	-0.120	0.010	0.420
2020/01/31 19:19:32.3	8.400	-0.140	-0.030	0.450
2020/01/31 19:19:32.4	8.410	-0.160	-0.070	0.480
2020/01/31 19:19:32.5	8.420	-0.170	-0.100	0.510
2020/01/31 19:19:32.6	8.430	-0.190	-0.130	0.530
2020/01/31 19:19:32.7	8.440	-0.200	-0.160	0.560
2020/01/31 19:19:32.8	8.440	-0.220	-0.180	0.580
2020/01/31 19:19:32.9	8.450	-0.240	-0.200	0.600
2020/01/31 19:19:33.0	8.450	-0.250	-0.220	0.630
2020/01/31 19:19:33.1	8.450	-0.260	-0.230	0.650
2020/01/31 19:19:33.2	8.450	-0.280	-0.240	0.670
2020/01/31 19:19:33.3	8.450	-0.290	-0.240	0.700
2020/01/31 19:19:33.4	8.440	-0.300	-0.240	0.720
2020/01/31 19:19:33.5	8.440	-0.310	-0.240	0.750
2020/01/31 19:19:33.6	8.430	-0.320	-0.240	0.780
2020/01/31 19:19:33.7	8.420	-0.320	-0.240	0.800
2020/01/31 19:19:33.8	8.400	-0.330	-0.240	0.830
2020/01/31 19:19:33.9	8.370	-0.330	-0.230	0.850
2020/01/31 19:19:34.0	8.360	-0.330	-0.230	0.880
2020/01/31 19:19:34.1	8.340	-0.330	-0.220	0.900
2020/01/31 19:19:34.2	8.320	-0.330	-0.220	0.930
2020/01/31 19:19:34.3	8.300	-0.320	-0.220	0.950
2020/01/31 19:19:34.4	8.280	-0.320	-0.220	0.970
2020/01/31 19:19:34.5	8.260	-0.310	-0.220	0.990
2020/01/31 19:19:34.6	8.240	-0.300	-0.230	1.010
2020/01/31 19:19:34.7	8.220	-0.290	-0.230	1.020
2020/01/31 19:19:34.8	8.200	-0.270	-0.240	1.030
2020/01/31 19:19:34.9	8.170	-0.260	-0.260	1.040
2020/01/31 19:19:35.0	8.160	-0.240	-0.270	1.040
2020/01/31 19:19:35.1	8.150	-0.220	-0.290	1.050
2020/01/31 19:19:35.2	8.130	-0.200	-0.310	1.050
2020/01/31 19:19:35.3	8.120	-0.180	-0.330	1.050
2020/01/31 19:19:35.4	8.110	-0.150	-0.360	1.040
2020/01/31 19:19:35.5	8.110	-0.120	-0.380	1.040
2020/01/31 19:19:35.6	8.100	-0.100	-0.410	1.030
2020/01/31 19:19:35.7	8.100	-0.070	-0.440	1.020
2020/01/31 19:19:35.8	8.100	-0.040	-0.480	1.000
2020/01/31 19:19:35.9	8.090	-0.010	-0.510	0.980
2020/01/31 19:19:36.0	8.100	0.030	-0.540	0.970
2020/01/31 19:19:36.1	8.100	0.060	-0.570	0.950
2020/01/31 19:19:36.2	8.110	0.090	-0.610	0.930
2020/01/31 19:19:36.3	8.120	0.130	-0.640	0.910
2020/01/31 19:19:36.4	8.130	0.160	-0.660	0.880
2020/01/31 19:19:36.5	8.140	0.190	-0.690	0.860
2020/01/31 19:19:36.6	8.150	0.220	-0.710	0.830
2020/01/31 19:19:36.7	8.170	0.250	-0.740	0.810
2020/01/31 19:19:36.8	8.190	0.280	-0.750	0.780
2020/01/31 19:19:36.9	8.200	0.310	-0.770	0.750
2020/01/31 19:19:37.0	8.220	0.340	-0.780	0.720
2020/01/31 19:19:37.1	8.240	0.360	-0.780	0.690
2020/01/31 19:19:37.2	8.260	0.390	-0.780	0.660
2020/01/31 19:19:37.3	8.280	0.410	-0.780	0.630
2020/01/31 19:19:37.4	8.300	0.430	-0.770	0.600
2020/01/31 19:19:37.5	8.320	0.450	-0.760	0.570
2020/01/31 19:19:37.6	8.340	0.460	-0.740	0.540
2020/01/31 19:19:37.7	8.350	0.470	-0.720	0.510
2020/01/31 19:19:37.8	8.370	0.480	-0.690	0.480
2020/01/31 19:19:37.9	8.380	0.490	-0.660	0.450
2020/01/31 19:19:38.0	8.400	0.490	-0.620	0.430
2020/01/31 19:19:38.1	8.410	0.500	-0.580	0.410
2020/01/31 19:19:38.2	8.420	0.500	-0.540	0.380
2020/01/31 19:19:38.3	8.430	0.490	-0.490	0.360
2020/01/31 19:19:38.4	8.430	0.490	-0.430	0.350
2020/01/31 19:19:38.5	8.440	0.480	-0.380	0.330
2020/01/31 19:19:38.6	8.440	0.470	-0.320	0.320
2020/01/31 19:19:38.7	8.440	0.450	-0.250	0.310
2020/01/31 19:19:38.8	8.430	0.440	-0.190	0.310
2020/01/31 19:19:38.9	8.430	0.420	-0.120	0.300
2020/01/31 19:19:39.0	8.420	0.400	-0.060	0.300
2020/01/31 19:19:39.1	8.400	0.380	0.010	0.300
2020/01/31 19:19:39.2	8.390	0.350	0.070	0.300
2020/01/31 19:19:39.3	8.370	0.330	0.140	0.310
2020/01/31 19:19:39.4	8.350	0.300	0.200	0.310
2020/01/31 19:19:39.5	8.330	0.280	0.260	0.320
2020/01/31 19:19:39.6	8.310	0.250	0.320	0.330
2020/01/31 19:19:39.7	8.280	0.220	0.370	0.340
2020/01/31 19:19:39.8	8.250	0.190	0.420	0.350
2020/01/31 19:19:39.9	8.230	0.160	0.460	0.360
2020/01/31 19:19:40.0	8.200	0.130	0.500	0.370
2020/01/31 19:19:40.1	8.170	0.110	0.540	0.370
2020/01/31 19:19:40.2	8.130	0.080	0.570	0.380
2020/01/31 19:19:40.3	8.100	0.050	0.590	0.380
2020/01/31 19:19:40.4	8.070	0.030	0.600	0.390
2020/01/31 19:19:40.5	8.040	0.010	0.610	0.380
2020/01/31 19:19:40.6	8.010	-0.020	0.610	0.380
2020/01/31 19:19:40.7	7.980	-0.040	0.600	0.370
2020/01/31 19:19:40.8	7.950	-0.050	0.580	0.360
2020/01/31 19:19:40.9	7.930	-0.070	0.560	0.350
2020/01/31 19:19:41.0	7.910	-0.090	0.530	0.330
2020/01/31 19:19:41.1	7.890	-0.100	0.490	0.310
2020/01/31 19:19:41.2	7.870	-0.110	0.450	0.290
2020/01/31 19:19:41.3	7.850	-0.120	0.400	0.260
2020/01/31 19:19:41.4	7.840	-0.130	0.340	0.220
2020/01/31 19:19:41.5	7.830	-0.130	0.280	0.190
2020/01/31 19:19:41.6	7.820	-0.140	0.210	0.140
2020/01/31 19:19:41.7	7.820	-0.140	0.140	0.100
2020/01/31 19:19:41.8	7.820	-0.140	0.070	0.050
2020/01/31 19:19:41.9	7.820	-0.140	-0.000	-0.010
2020/01/31 19:19:42.0	7.830	-0.140	-0.080	-0.060
2020/01/31 19:19:42.1	7.840	-0.140	-0.160	-0.120
2020/01/31 19:19:42.2	7.850	-0.130	-0.230	-0.180
2020/01/31 19:19:42.3	7.870	-0.130	-0.310	-0.240
2020/01/31 19:19:42.4	7.890	-0.120	-0.380	-0.300
2020/01/31 19:19:42.5	7.910	-0.120	-0.460	-0.360
2020/01/31 19:19:42.6	7.930	-0.110	-0.530	-0.420
2020/01/31 19:19:42.7	7.950	-0.100	-0.590	-0.480
2020/01/31 19:19:42.8	7.980	-0.100	-0.650	-0.540
2020/01/31 19:19:42.9	8.020	-0.090	-0.700	-0.590
2020/01/31 19:19:43.0	8.050	-0.090	-0.750	-0.650
2020/01/31 19:19:43.1	8.080	-0.080	-0.790	-0.700
2020/01/31 19:19:43.2	8.110	-0.080	-0.830	-0.750
2020/01/31 19:19:43.3	8.130	-0.070	-0.850	-0.790
2020/01/31 19:19:43.4	8.160	-0.070	-0.870	-0.830
2020/01/31 19:19:43.5	8.190	-0.070	-0.880	-0.870
2020/01/31 19:19:43.6	8.220	-0.060	-0.880	-0.900
2020/01/31 19:19:43.7	8.240	-0.060	-0.870	-0.930
2020/01/31 19:19:43.8	8.260	-0.060	-0.850	-0.950
2020/01/31 19:19:43.9	8.290	-0.070	-0.830	-0.970
2020/01/31 19:19:44.0	8.300	-0.070	-0.800	-0.990
2020/01/31 19:19:44.1	8.320	-0.070	-0.760	-0.990
2020/01/31 19:19:44.2	8.330	-0.080	-0.710	-1.000
2020/01/31 19:19:44.3	8.340	-0.080	-0.650	-0.990
2020/01/31 19:19:44.4	8.340	-0.090	-0.590	-0.980
2020/01/31 19:19:44.5	8.340	-0.100	-0.520	-0.970
2020/01/31 19:19:44.6	8.340	-0.110	-0.450	-0.950
2020/01/31 19:19:44.7	8.340	-0.120	-0.370	-0.930
2020/01/31 19:19:44.8	8.330	-0.130	-0.290	-0.900
2020/01/31 19:19:44.9	8.330	-0.140	-0.210	-0.860
2020/01/31 19:19:45.0	8.320	-0.150	-0.120	-0.830
2020/01/31 19:19:45.1	8.300	-0.160	-0.040	-0.780
2020/01/31 19:19:45.2	8.280	-0.170	0.040	-0.740
2020/01/31 19:19:45.3	8.260	-0.180	0.120	-0.690
2020/01/31 19:19:45.4	8.240	-0.190	0.190	-0.640
2020/01/31 19:19:45.5	8.220	-0.210	0.260	-0.590
2020/01/31 19:19:45.6	8.190	-0.210	0.320	-0.530
2020/01/31 19:19:45.7	8.170	-0.220	0.370	-0.480
2020/01/31 19:19:45.8	8.140	-0.230	0.420	-0.420
2020/01/31 19:19:45.9	8.130	-0.240	0.450	-0.370
2020/01/31 19:19:46.0	8.110	-0.240	0.480	-0.310
2020/01/31 19:19:46.1	8.080	-0.250	0.500	-0.260
2020/01/31 19:19:46.2	8.060	-0.250	0.510	-0.200
2020/01/31 19:19:46.3	8.040	-0.250	0.510	-0.150
2020/01/31 19:19:46.4	8.020	-0.250	0.500	-0.110
2020/01/31 19:19:46.5	8.000	-0.250	0.480	-0.060
2020/01/31 19:19:46.6	7.990	-0.240	0.450	-0.020
2020/01/31 19:19:46.7	7.980	-0.230	0.410	0.020
2020/01/31 19:19:46.8	7.970	-0.230	0.370	0.050
2020/01/31 19:19:46.9	7.960	-0.220	0.310	0.080
2020/01/31 19:19:47.0	7.950	-0.210	0.250	0.110
2020/01/31 19:19:47.1	7.950	-0.190	0.180	0.140
2020/01/31 19:19:47.2	7.950	-0.180	0.100	0.160
2020/01/31 19:19:47.3	7.950	-0.160	0.030	0.180
2020/01/31 19:19:47.4	7.960	-0.150	-0.060	0.200
2020/01/31 19:19:47.5	7.970	-0.130	-0.140	0.210
2020/01/31 19:19:47.6	7.980	-0.110	-0.230	0.220
2020/01/31 19:19:47.7	8.000	-0.090	-0.310	0.230
2020/01/31 19:19:47.8	8.010	-0.070	-0.400	0.240
2020/01/31 19:19:47.9	8.040	-0.050	-0.480	0.250
2020/01/31 19:19:48.0	8.060	-0.030	-0.550	0.250
2020/01/31 19:19:48.1	8.090	-0.010	-0.630	0.260
2020/01/31 19:19:48.2	8.110	0.010	-0.690	0.260
2020/01/31 19:19:48.3	8.140	0.030	-0.750	0.260
2020/01/31 19:19:48.4	8.170	0.050	-0.800	0.260
2020/01/31 19:19:48.5	8.200	0.060	-0.850	0.270
2020/01/31 19:19:48.6	8.230	0.080	-0.880	0.270
2020/01/31 19:19:48.7	8.260	0.090	-0.900	0.270
2020/01/31 19:19:48.8	8.280	0.110	-0.920	0.280
2020/01/31 19:19:48.9	8.300	0.120	-0.920	0.270
2020/01/31 19:19:49.0	8.330	0.130	-0.910	0.280
2020/01/31 19:19:49.1	8.360	0.140	-0.890	0.290
2020/01/31 19:19:49.2	8.380	0.150	-0.870	0.300
2020/01/31 19:19:49.3	8.400	0.160	-0.830	0.320
2020/01/31 19:19:49.4	8.420	0.160	-0.780	0.330
2020/01/31 19:19:49.5	8.440	0.170	-0.720	0.350
2020/01/31 19:19:49.6	8.450	0.170	-0.660	0.370
2020/01/31 19:19:49.7	8.470	0.170	-0.580	0.400
2020/01/31 19:19:49.8	8.470	0.170	-0.500	0.430
2020/01/31 19:19:49.9	8.470	0.170	-0.420	0.460
2020/01/31 19:19:50.0	8.470	0.160	-0.330	0.500
2020/01/31 19:19:50.1	8.470	0.160	-0.240	0.530
2020/01/31 19:19:50.2	8.470	0.150	-0.140	0.570
2020/01/31 19:19:50.3	8.460	0.150	-0.050	0.620
2020/01/31 19:19:50.4	8.450	0.140	0.040	0.660
2020/01/31 19:19:50.5	8.440	0.130	0.120	0.700
2020/01/31 19:19:50.6	8.430	0.120	0.200	0.740
2020/01/31 19:19:50.7	8.420	0.120	0.280	0.790
2020/01/31 19:19:50.8	8.400	0.110	0.350	0.830
2020/01/31 19:19:50.9	8.370	0.100	0.400	0.870
2020/01/31 19:19:51.0	8.350	0.090	0.460	0.910
2020/01/31 19:19:51.1	8.330	0.080	0.500	0.950
2020/01/31 19:19:51.2	8.310	0.070	0.530	0.990
2020/01/31 19:19:51.3	8.290	0.060	0.550	1.020
2020/01/31 19:19:51.4	8.260	0.050	0.560	1.050
2020/01/31 19:19:51.5	8.240	0.040	0.560	1.070
2020/01/31 19:19:51.6	8.220	0.040	0.550	1.090
2020/01/31 19:19:51.7	8.200	0.030	0.530	1.110
2020/01/31 19:19:51.8	8.180	0.020	0.500	1.120
2020/01/31 19:19:51.9	8.160	0.020	0.460	1.120
2020/01/31 19:19:52.0	8.140	0.010	0.410	1.130
2020/01/31 19:19:52.1	8.120	0.010	0.350	1.120
2020/01/31 19:19:52.2	8.100	0.000	0.290	1.110
2020/01/31 19:19:52.3	8.090	0.000	0.210	1.100
2020/01/31 19:19:52.4	8.070	-0.000	0.140	1.080
2020/01/31 19:19:52.5	8.060	-0.000	0.050	1.060
2020/01/31 19:19:52.6	8.050	-0.010	-0.030	1.030
2020/01/31 19:19:52.7	8.040	-0.010	-0.120	1.000
2020/01/31 19:19:52.8	8.030	-0.010	-0.210	0.960
2020/01/31 19:19:52.9	8.030	-0.010	-0.310	0.910
2020/01/31 19:19:53.0	8.030	-0.010	-0.400	0.870
2020/01/31 19:19:53.1	8.030	-0.010	-0.490	0.820
2020/01/31 19:19:53.2	8.030	-0.010	-0.570	0.760
2020/01/31 19:19:53.3	8.040	-0.000	-0.650	0.700
2020/01/31 19:19:53.4	8.050	-0.000	-0.730	0.640
2020/01/31 19:19:53.5	8.060	0.000	-0.810	0.570
2020/01/31 19:19:53.6	8.080	0.000	-0.870	0.500
2020/01/31 19:19:53.7	8.090	0.010	-0.930	0.420
2020/01/31 19:19:53.8	8.110	0.010	-0.990	0.340
2020/01/31 19:19:53.9	8.140	0.010	-1.030	0.260
2020/01/31 19:19:54.0	8.170	0.020	-1.070	0.180
2020/01/31 19:19:54.1	8.200	0.020	-1.100	0.100
2020/01/31 19:19:54.2	8.230	0.020	-1.120	0.010
2020/01/31 19:19:54.3	8.260	0.030	-1.130	-0.070
2020/01/31 19:19:54.4	8.290	0.030	-1.140	-0.160
2020/01/31 19:19:54.5	8.330	0.040	-1.140	-0.240
2020/01/31 19:19:54.6	8.360	0.040	-1.130	-0.320
2020/01/31 19:19:54.7	8.400	0.050	-1.110	-0.400
2020/01/31 19:19:54.8	8.430	0.050	-1.080	-0.480
2020/01/31 19:19:54.9	8.470	0.060	-1.050	-0.560
2020/01/31 19:19:55.0	8.510	0.060	-1.010	-0.630
2020/01/31 19:19:55.1	8.540	0.070	-0.960	-0.700
2020/01/31 19:19:55.2	8.580	0.070	-0.910	-0.760
2020/01/31 19:19:55.3	8.610	0.080	-0.860	-0.820
2020/01/31 19:19:55.4	8.650	0.080	-0.790	-0.870
2020/01/31 19:19:55.5	8.680	0.090	-0.730	-0.920
2020/01/31 19:19:55.6	8.710	0.090	-0.660	-0.960
2020/01/31 19:19:55.7	8.740	0.100	-0.590	-0.990
2020/01/31 19:19:55.8	8.770	0.100	-0.510	-1.020
2020/01/31 19:19:55.9	8.790	0.100	-0.440	-1.040
2020/01/31 19:19:56.0	8.810	0.110	-0.360	-1.050
2020/01/31 19:19:56.1	8.830	0.110	-0.280	-1.060
2020/01/31 19:19:56.2	8.850	0.110	-0.200	-1.060
2020/01/31 19:19:56.3	8.870	0.110	-0.120	-1.060
2020/01/31 19:19:56.4	8.880	0.110	-0.040	-1.040
2020/01/31 19:19:56.5	8.890	0.110	0.040	-1.020
2020/01/31 19:19:56.6	8.900	0.100	0.110	-0.990
2020/01/31 19:19:56.7	8.900	0.100	0.190	-0.960
2020/01/31 19:19:56.8	8.900	0.100	0.260	-0.910
2020/01/31 19:19:56.9	8.900	0.090	0.330	-0.860
2020/01/31 19:19:57.0	8.890	0.080	0.400	-0.810
2020/01/31 19:19:57.1	8.880	0.070	0.470	-0.750
2020/01/31 19:19:57.2	8.860	0.070	0.530	-0.680
2020/01/31 19:19:57.3	8.840	0.050	0.590	-0.610
2020/01/31 19:19:57.4	8.820	0.040	0.640	-0.540
2020/01/31 19:19:57.5	8.790	0.030	0.690	-0.460
2020/01/31 19:19:57.6	8.760	0.020	0.740	-0.380
2020/01/31 19:19:57.7	8.720	0.000	0.780	-0.290
2020/01/31 19:19:57.8	8.690	-0.010	0.810	-0.210
2020/01/31 19:19:57.9	8.650	-0.030	0.840	-0.120
2020/01/31 19:19:58.0	8.610	-0.050	0.860	-0.030
2020/01/31 19:19:58.1	8.570	-0.060	0.880	0.050
2020/01/31 19:19:58.2	8.520	-0.080	0.890	0.140
2020/01/31 19:19:58.3	8.470	-0.100	0.890	0.220
2020/01/31 19:19:58.4	8.430	-0.110	0.890	0.300
2020/01/31 19:19:58.5	8.380	-0.130	0.880	0.370
2020/01/31 19:19:58.6	8.330	-0.140	0.860	0.450
2020/01/31 19:19:58.7	8.280	-0.160	0.840	0.510
2020/01/31 19:19:58.8	8.240	-0.170	0.810	0.580
2020/01/31 19:19:58.9	8.180	-0.180	0.770	0.630
2020/01/31 19:19:59.0	8.140	-0.190	0.730	0.690
2020/01/31 19:19:59.1	8.100	-0.200	0.680	0.730
2020/01/31 19:19:59.2	8.060	-0.210	0.630	0.780
2020/01/31 19:19:59.3	8.030	-0.210	0.570	0.810
2020/01/31 19:19:59.4	7.990	-0.210	0.500	0.840
2020/01/31 19:19:59.5	7.970	-0.210	0.430	0.870
2020/01/31 19:19:59.6	7.950	-0.210	0.360	0.890
2020/01/31 19:19:59.7	7.930	-0.200	0.280	0.900
2020/01/31 19:19:59.8	7.920	-0.190	0.190	0.900
2020/01/31 19:19:59.9	7.900	-0.180	0.100	0.900
2020/01/31 19:20:00.0	7.900	-0.170	0.010	0.900
2020/01/31 19:20:00.1	7.910	-0.150	-0.080	0.890
2020/01/31 19:20:00.2	7.920	-0.130	-0.180	0.870
2020/01/31 19:20:00.3	7.930	-0.110	-0.280	0.850
2020/01/31 19:20:00.4	7.950	-0.090	-0.380	0.830
2020/01/31 19:20:00.5	7.970	-0.060	-0.470	0.800
2020/01/31 19:20:00.6	8.000	-0.040	-0.570	0.770
2020/01/31 19:20:00.7	8.030	-0.010	-0.670	0.740
2020/01/31 19:20:00.8	8.070	0.020	-0.770	0.710
2020/01/31 19:20:00.9	8.100	0.050	-0.860	0.670
2020/01/31 19:20:01.0	8.140	0.080	-0.950	0.630
2020/01/31 19:20:01.1	8.190	0.110	-1.030	0.590
2020/01/31 19:20:01.2	8.230	0.140	-1.110	0.560
2020/01/31 19:20:01.3	8.280	0.170	-1.180	0.520
2020/01/31 19:20:01.4	8.330	0.200	-1.250	0.480
2020/01/31 19:20:01.5	8.380	0.220	-1.310	0.450
2020/01/31 19:20:01.6	8.430	0.240	-1.360	0.410
2020/01/31 19:20:01.7	8.480	0.260	-1.400	0.380
2020/01/31 19:20:01.8	8.530	0.280	-1.430	0.340
2020/01/31 19:20:01.9	8.580	0.300	-1.460	0.310
2020/01/31 19:20:02.0	8.620	0.310	-1.470	0.280
2020/01/31 19:20:02.1	8.670	0.310	-1.470	0.250
2020/01/31 19:20:02.2	8.710	0.320	-1.470	0.220
2020/01/31 19:20:02.3	8.740	0.320	-1.450	0.200
2020/01/31 19:20:02.4	8.780	0.310	-1.420	0.170
2020/01/31 19:20:02.5	8.810	0.310	-1.380	0.150
2020/01/31 19:20:02.6	8.830	0.300	-1.340	0.130
2020/01/31 19:20:02.7	8.860	0.280	-1.280	0.100
2020/01/31 19:20:02.8	8.880	0.260	-1.220	0.080
2020/01/31 19:20:02.9	8.900	0.240	-1.150	0.060
2020/01/31 19:20:03.0	8.920	0.220	-1.070	0.040
2020/01/31 19:20:03.1	8.930	0.190	-0.980	0.030
2020/01/31 19:20:03.2	8.930	0.160	-0.890	0.010
2020/01/31 19:20:03.3	8.940	0.130	-0.800	-0.000
2020/01/31 19:20:03.4	8.940	0.100	-0.700	-0.010
2020/01/31 19:20:03.5	8.930	0.070	-0.590	-0.030
2020/01/31 19:20:03.6	8.920	0.030	-0.490	-0.040
2020/01/31 19:20:03.7	8.910	-0.000	-0.380	-0.050
2020/01/31 19:20:03.8	8.900	-0.040	-0.280	-0.050
2020/01/31 19:20:03.9	8.880	-0.070	-0.170	-0.060
2020/01/31 19:20:04.0	8.870	-0.110	-0.070	-0.070
2020/01/31 19:20:04.1	8.850	-0.140	0.030	-0.070
2020/01/31 19:20:04.2	8.820	-0.180	0.130	-0.070
2020/01/31 19:20:04.3	8.800	-0.210	0.230	-0.070
2020/01/31 19:20:04.4	8.780	-0.240	0.320	-0.070
2020/01/31 19:20:04.5	8.750	-0.270	0.400	-0.060
2020/01/31 19:20:04.6	8.720	-0.290	0.480	-0.060
2020/01/31 19:20:04.7	8.690	-0.310	0.550	-0.050
2020/01/31 19:20:04.8	8.670	-0.330	0.620	-0.040
2020/01/31 19:20:04.9	8.640	-0.350	0.680	-0.030
2020/01/31 19:20:05.0	8.610	-0.360	0.730	-0.020
2020/01/31 19:20:05.1	8.580	-0.370	0.770	-0.000
2020/01/31 19:20:05.2	8.550	-0.380	0.800	0.020
2020/01/31 19:20:05.3	8.520	-0.380	0.820	0.040
2020/01/31 19:20:05.4	8.500	-0.380	0.840	0.060
2020/01/31 19:20:05.5	8.470	-0.370	0.850	0.090
2020/01/31 19:20:05.6	8.440	-0.360	0.850	0.120
2020/01/31 19:20:05.7	8.410	-0.350	0.840	0.150
2020/01/31 19:20:05.8	8.390	-0.340	0.820	0.180
2020/01/31 19:20:05.9	8.350	-0.320	0.800	0.210
2020/01/31 19:20:06.0	8.330	-0.300	0.770	0.250
2020/01/31 19:20:06.1	8.310	-0.270	0.730	0.280
2020/01/31 19:20:06.2	8.280	-0.240	0.690	0.320
2020/01/31 19:20:06.3	8.260	-0.220	0.640	0.360
2020/01/31 19:20:06.4	8.240	-0.190	0.590	0.400
2020/01/31 19:20:06.5	8.230	-0.160	0.540	0.440
2020/01/31 19:20:06.6	8.210	-0.120	0.480	0.480
2020/01/31 19:20:06.7	8.200	-0.090	0.420	0.520
2020/01/31 19:20:06.8	8.180	-0.060	0.360	0.560
2020/01/31 19:20:06.9	8.160	-0.030	0.300	0.600
2020/01/31 19:20:07.0	8.150	0.000	0.240	0.630
2020/01/31 19:20:07.1	8.140	0.030	0.170	0.670
2020/01/31 19:20:07.2	8.130	0.060	0.110	0.700
2020/01/31 19:20:07.3	8.130	0.090	0.040	0.730
2020/01/31 19:20:07.4	8.120	0.120	-0.020	0.760
2020/01/31 19:20:07.5	8.120	0.140	-0.080	0.780
2020/01/31 19:20:07.6	8.110	0.160	-0.140	0.800
2020/01/31 19:20:07.7	8.110	0.180	-0.200	0.820
2020/01/31 19:20:07.8	8.100	0.200	-0.260	0.830
2020/01/31 19:20:07.9	8.100	0.220	-0.310	0.840
2020/01/31 19:20:08.0	8.100	0.230	-0.360	0.850
2020/01/31 19:20:08.1	8.090	0.240	-0.410	0.850
2020/01/31 19:20:08.2	8.090	0.240	-0.450	0.850
2020/01/31 19:20:08.3	8.090	0.240	-0.480	0.840
2020/01/31 19:20:08.4	8.090	0.240	-0.520	0.830
2020/01/31 19:20:08.5	8.090	0.240	-0.540	0.820
2020/01/31 19:20:08.6	8.090	0.230	-0.570	0.800
2020/01/31 19:20:08.7	8.090	0.220	-0.580	0.770
2020/01/31 19:20:08.8	8.080	0.210	-0.600	0.750
2020/01/31 19:20:08.9	8.080	0.190	-0.610	0.710
2020/01/31 19:20:09.0	8.080	0.180	-0.610	0.680
2020/01/31 19:20:09.1	8.080	0.160	-0.610	0.640
2020/01/31 19:20:09.2	8.080	0.130	-0.610	0.600
2020/01/31 19:20:09.3	8.080	0.110	-0.600	0.560
2020/01/31 19:20:09.4	8.080	0.080	-0.590	0.510
2020/01/31 19:20:09.5	8.070	0.050	-0.580	0.460
2020/01/31 19:20:09.6	8.070	0.030	-0.560	0.410
2020/01/31 19:20:09.7	8.070	-0.000	-0.540	0.360
2020/01/31 19:20:09.8	8.080	-0.030	-0.520	0.310
2020/01/31 19:20:09.9	8.070	-0.070	-0.510	0.250
2020/01/31 19:20:10.0	8.080	-0.100	-0.480	0.200
2020/01/31 19:20:10.1	8.080	-0.130	-0.460	0.140
2020/01/31 19:20:10.2	8.090	-0.150	-0.440	0.080
2020/01/31 19:20:10.3	8.100	-0.180	-0.420	0.020
2020/01/31 19:20:10.4	8.100	-0.210	-0.390	-0.030
2020/01/31 19:20:10.5	8.120	-0.230	-0.370	-0.090
2020/01/31 19:20:10.6	8.130	-0.260	-0.350	-0.150
2020/01/31 19:20:10.7	8.140	-0.280	-0.330	-0.200
2020/01/31 19:20:10.8	8.160	-0.290	-0.320	-0.260
2020/01/31 19:20:10.9	8.180	-0.310	-0.300	-0.310
2020/01/31 19:20:11.0	8.200	-0.320	-0.280	-0.360
2020/01/31 19:20:11.1	8.220	-0.330	-0.270	-0.410
2020/01/31 19:20:11.2	8.240	-0.340	-0.260	-0.460
2020/01/31 19:20:11.3	8.260	-0.350	-0.250	-0.500
2020/01/31 19:20:11.4	8.280	-0.350	-0.240	-0.550
2020/01/31 19:20:11.5	8.300	-0.350	-0.240	-0.580
2020/01/31 19:20:11.6	8.310	-0.340	-0.230	-0.620
2020/01/31 19:20:11.7	8.330	-0.340	-0.230	-0.650
2020/01/31 19:20:11.8	8.350	-0.330	-0.220	-0.680
2020/01/31 19:20:11.9	8.360	-0.320	-0.220	-0.710
2020/01/31 19:20:12.0	8.370	-0.310	-0.220	-0.720
2020/01/31 19:20:12.1	8.390	-0.290	-0.220	-0.740
2020/01/31 19:20:12.2	8.390	-0.280	-0.210	-0.750
2020/01/31 19:20:12.3	8.400	-0.260	-0.210	-0.750
2020/01/31 19:20:12.4	8.400	-0.240	-0.210	-0.750
2020/01/31 19:20:12.5	8.400	-0.220	-0.200	-0.740
2020/01/31 19:20:12.6	8.400	-0.200	-0.200	-0.730
2020/01/31 19:20:12.7	8.390	-0.180	-0.190	-0.720
2020/01/31 19:20:12.8	8.380	-0.160	-0.190	-0.700
2020/01/31 19:20:12.9	8.370	-0.130	-0.180	-0.670
2020/01/31 19:20:13.0	8.350	-0.110	-0.170	-0.650
2020/01/31 19:20:13.1	8.340	-0.090	-0.160	-0.620
2020/01/31 19:20:13.2	8.310	-0.060	-0.150	-0.580
2020/01/31 19:20:13.3	8.290	-0.040	-0.140	-0.540
2020/01/31 19:20:13.4	8.260	-0.020	-0.130	-0.500
2020/01/31 19:20:13.5	8.230	0.000	-0.120	-0.460
2020/01/31 19:20:13.6	8.200	0.030	-0.110	-0.410
2020/01/31 19:20:13.7	8.170	0.050	-0.090	-0.370
2020/01/31 19:20:13.8	8.140	0.070	-0.080	-0.320
2020/01/31 19:20:13.9	8.090	0.090	-0.070	-0.270
2020/01/31 19:20:14.0	8.050	0.110	-0.060	-0.220
2020/01/31 19:20:14.1	8.010	0.130	-0.050	-0.170
2020/01/31 19:20:14.2	7.980	0.150	-0.040	-0.120
2020/01/31 19:20:14.3	7.940	0.170	-0.040	-0.060
2020/01/31 19:20:14.4	7.910	0.180	-0.030	-0.010
2020/01/31 19:20:14.5	7.870	0.200	-0.030	0.040
2020/01/31 19:20:14.6	7.840	0.220	-0.030	0.090
2020/01/31 19:20:14.7	7.810	0.230	-0.030	0.130
2020/01/31 19:20:14.8	7.790	0.250	-0.040	0.180
2020/01/31 19:20:14.9	7.780	0.270	-0.050	0.220
2020/01/31 19:20:15.0	7.750	0.280	-0.070	0.270
2020/01/31 19:20:15.1	7.740	0.300	-0.090	0.310
2020/01/31 19:20:15.2	7.720	0.310	-0.110	0.350
2020/01/31 19:20:15.3	7.710	0.330	-0.130	0.380
2020/01/31 19:20:15.4	7.700	0.340	-0.160	0.420
2020/01/31 19:20:15.5	7.690	0.360	-0.190	0.450
2020/01/31 19:20:15.6	7.690	0.370	-0.220	0.480
2020/01/31 19:20:15.7	7.700	0.390	-0.260	0.510
2020/01/31 19:20:15.8	7.700	0.400	-0.300	0.530
2020/01/31 19:20:15.9	7.720	0.420	-0.330	0.560
2020/01/31 19:20:16.0	7.730	0.430	-0.370	0.580
2020/01/31 19:20:16.1	7.750	0.440	-0.420	0.590
2020/01/31 19:20:16.2	7.770	0.450	-0.460	0.610
2020/01/31 19:20:16.3	7.800	0.460	-0.500	0.620
2020/01/31 19:20:16.4	7.820	0.470	-0.540	0.630
2020/01/31 19:20:16.5	7.850	0.480	-0.570	0.640
2020/01/31 19:20:16.6	7.880	0.490	-0.610	0.640
2020/01/31 19:20:16.7	7.910	0.490	-0.640	0.650
2020/01/31 19:20:16.8	7.950	0.500	-0.670	0.650
2020/01/31 19:20:16.9	7.980	0.500	-0.690	0.650
2020/01/31 19:20:17.0	8.020	0.500	-0.710	0.650
2020/01/31 19:20:17.1	8.050	0.490	-0.720	0.650
2020/01/31 19:20:17.2	8.090	0.490	-0.730	0.650
2020/01/31 19:20:17.3	8.120	0.480	-0.730	0.640
2020/01/31 19:20:17.4	8.150	0.470	-0.730	0.640
2020/01/31 19:20:17.5	8.180	0.450	-0.720	0.640
2020/01/31 19:20:17.6	8.210	0.430	-0.700	0.640
2020/01/31 19:20:17.7	8.230	0.410	-0.680	0.640
2020/01/31 19:20:17.8	8.250	0.390	-0.650	0.640
2020/01/31 19:20:17.9	8.250	0.360	-0.620	0.640
2020/01/31 19:20:18.0	8.270	0.340	-0.580	0.640
2020/01/31 19:20:18.1	8.280	0.300	-0.530	0.640
2020/01/31 19:20:18.2	8.290	0.270	-0.480	0.640
2020/01/31 19:20:18.3	8.290	0.240	-0.420	0.640
2020/01/31 19:20:18.4	8.290	0.200	-0.370	0.640
2020/01/31 19:20:18.5	8.280	0.160	-0.300	0.650
2020/01/31 19:20:18.6	8.270	0.120	-0.240	0.650
2020/01/31 19:20:18.7	8.260	0.080	-0.170	0.650
2020/01/31 19:20:18.8	8.240	0.030	-0.110	0.660
2020/01/31 19:20:18.9	8.210	-0.010	-0.040	0.650
2020/01/31 19:20:19.0	8.180	-0.050	0.030	0.660
2020/01/31 19:20:19.1	8.150	-0.100	0.100	0.660
2020/01/31 19:20:19.2	8.120	-0.140	0.160	0.660
2020/01/31 19:20:19.3	8.090	-0.190	0.230	0.670
2020/01/31 19:20:19.4	8.050	-0.230	0.290	0.670
2020/01/31 19:20:19.5	8.010	-0.270	0.350	0.670
2020/01/31 19:20:19.6	7.970	-0.310	0.400	0.670
2020/01/31 19:20:19.7	7.920	-0.350	0.450	0.670
2020/01/31 19:20:19.8	7.880	-0.380	0.500	0.670
2020/01/31 19:20:19.9	7.840	-0.410	0.540	0.660
2020/01/31 19:20:20.0	7.790	-0.440	0.580	0.660
2020/01/31 19:20:20.1	7.740	-0.470	0.610	0.650
2020/01/31 19:20:20.2	7.700	-0.500	0.630	0.640
2020/01/31 19:20:20.3	7.650	-0.520	0.650	0.630
2020/01/31 19:20:20.4	7.600	-0.530	0.660	0.620
2020/01/31 19:20:20.5	7.560	-0.550	0.660	0.600
2020/01/31 19:20:20.6	7.520	-0.550	0.650	0.590
2020/01/31 19:20:20.7	7.470	-0.560	0.640	0.560
2020/01/31 19:20:20.8	7.440	-0.560	0.620	0.540
2020/01/31 19:20:20.9	7.410	-0.560	0.600	0.510
2020/01/31 19:20:21.0	7.370	-0.550	0.560	0.490
2020/01/31 19:20:21.1	7.340	-0.540	0.530	0.460
2020/01/31 19:20:21.2	7.310	-0.530	0.480	0.430
2020/01/31 19:20:21.3	7.290	-0.510	0.430	0.390
2020/01/31 19:20:21.4	7.260	-0.490	0.380	0.360
2020/01/31 19:20:21.5	7.250	-0.460	0.320	0.320
2020/01/31 19:20:21.6	7.230	-0.430	0.260	0.280
2020/01/31 19:20:21.7	7.220	-0.400	0.190	0.230
2020/01/31 19:20:21.8	7.210	-0.370	0.120	0.190
2020/01/31 19:20:21.9	7.220	-0.330	0.050	0.140
2020/01/31 19:20:22.0	7.220	-0.290	-0.020	0.100
2020/01/31 19:20:22.1	7.220	-0.250	-0.090	0.050
2020/01/31 19:20:22.2	7.230	-0.210	-0.170	-0.000
2020/01/31 19:20:22.3	7.240	-0.170	-0.240	-0.050
2020/01/31 19:20:22.4	7.250	-0.130	-0.310	-0.110
2020/01/31 19:20:22.5	7.270	-0.090	-0.380	-0.160
2020/01/31 19:20:22.6	7.290	-0.040	-0.440	-0.210
2020/01/31 19:20:22.7	7.310	-0.000	-0.510	-0.270
2020/01/31 19:20:22.8	7.330	0.040	-0.560	-0.320
2020/01/31 19:20:22.9	7.350	0.080	-0.620	-0.370
2020/01/31 19:20:23.0	7.380	0.110	-0.660	-0.420
2020/01/31 19:20:23.1	7.410	0.150	-0.700	-0.470
2020/01/31 19:20:23.2	7.440	0.180	-0.740	-0.520
2020/01/31 19:20:23.3	7.470	0.210	-0.770	-0.570
2020/01/31 19:20:23.4	7.500	0.230	-0.790	-0.610
2020/01/31 19:20:23.5	7.530	0.260	-0.800	-0.650
2020/01/31 19:20:23.6	7.560	0.280	-0.810	-0.690
2020/01/31 19:20:23.7	7.590	0.290	-0.810	-0.720
2020/01/31 19:20:23.8	7.610	0.310	-0.800	-0.750
2020/01/31 19:20:23.9	7.640	0.310	-0.790	-0.780
2020/01/31 19:20:24.0	7.660	0.320	-0.760	-0.800
2020/01/31 19:20:24.1	7.680	0.320	-0.740	-0.810
2020/01/31 19:20:24.2	7.700	0.320	-0.700	-0.820
2020/01/31 19:20:24.3	7.710	0.310	-0.660	-0.830
2020/01/31 19:20:24.4	7.720	0.300	-0.620	-0.830
2020/01/31 19:20:24.5	7.720	0.290	-0.570	-0.830
2020/01/31 19:20:24.6	7.720	0.270	-0.510	-0.820
2020/01/31 19:20:24.7	7.720	0.250	-0.450	-0.810
2020/01/31 19:20:24.8	7.710	0.230	-0.390	-0.800
2020/01/31 19:20:24.9	7.710	0.200	-0.330	-0.780
2020/01/31 19:20:25.0	7.700	0.180	-0.270	-0.750
2020/01/31 19:20:25.1	7.680	0.150	-0.200	-0.730
2020/01/31 19:20:25.2	7.670	0.120	-0.140	-0.700
2020/01/31 19:20:25.3	7.640	0.090	-0.070	-0.670
2020/01/31 19:20:25.4	7.620	0.050	-0.010	-0.630
2020/01/31 19:20:25.5	7.600	0.020	0.060	-0.590
2020/01/31 19:20:25.6	7.570	-0.010	0.120	-0.560
2020/01/31 19:20:25.7	7.540	-0.040	0.180	-0.520
2020/01/31 19:20:25.8	7.510	-0.080	0.230	-0.470
2020/01/31 19:20:25.9	7.480	-0.110	0.280	-0.430
2020/01/31 19:20:26.0	7.450	-0.140	0.330	-0.390
2020/01/31 19:20:26.1	7.420	-0.170	0.370	-0.340
2020/01/31 19:20:26.2	7.390	-0.200	0.400	-0.300
2020/01/31 19:20:26.3	7.360	-0.220	0.430	-0.260
2020/01/31 19:20:26.4	7.320	-0.250	0.450	-0.210
2020/01/31 19:20:26.5	7.290	-0.270	0.460	-0.170
2020/01/31 19:20:26.6	7.260	-0.290	0.470	-0.130
2020/01/31 19:20:26.7	7.240	-0.310	0.460	-0.090
2020/01/31 19:20:26.8	7.210	-0.320	0.450	-0.060
2020/01/31 19:20:26.9	7.200	-0.330	0.430	-0.020
2020/01/31 19:20:27.0	7.180	-0.340	0.410	0.010
2020/01/31 19:20:27.1	7.160	-0.350	0.380	0.040
2020/01/31 19:20:27.2	7.150	-0.350	0.340	0.060
2020/01/31 19:20:27.3	7.140	-0.350	0.290	0.080
2020/01/31 19:20:27.4	7.130	-0.350	0.240	0.100
2020/01/31 19:20:27.5	7.120	-0.350	0.180	0.110
2020/01/31 19:20:27.6	7.120	-0.340	0.120	0.120
2020/01/31 19:20:27.7	7.120	-0.330	0.050	0.130
2020/01/31 19:20:27.8	7.130	-0.320	-0.030	0.130
2020/01/31 19:20:27.9	7.140	-0.300	-0.100	0.120
2020/01/31 19:20:28.0	7.150	-0.290	-0.180	0.120
2020/01/31 19:20:28.1	7.170	-0.270	-0.260	0.120
2020/01/31 19:20:28.2	7.180	-0.250	-0.340	0.110
2020/01/31 19:20:28.3	7.200	-0.230	-0.420	0.100
2020/01/31 19:20:28.4	7.220	-0.210	-0.500	0.090
2020/01/31 19:20:28.5	7.240	-0.190	-0.580	0.080
2020/01/31 19:20:28.6	7.250	-0.160	-0.650	0.080
2020/01/31 19:20:28.7	7.270	-0.140	-0.720	0.070
2020/01/31 19:20:28.8	7.290	-0.110	-0.790	0.060
2020/01/31 19:20:28.9	7.310	-0.090	-0.850	0.050
2020/01/31 19:20:29.0	7.330	-0.060	-0.910	0.050
2020/01/31 19:20:29.1	7.350	-0.040	-0.960	0.050
2020/01/31 19:20:29.2	7.370	-0.010	-1.000	0.050
2020/01/31 19:20:29.3	7.380	0.020	-1.040	0.050
2020/01/31 19:20:29.4	7.390	0.040	-1.060	0.060
2020/01/31 19:20:29.5	7.410	0.070	-1.080	0.070
2020/01/31 19:20:29.6	7.420	0.090	-1.090	0.080
2020/01/31 19:20:29.7	7.420	0.110	-1.100	0.100
2020/01/31 19:20:29.8	7.430	0.140	-1.090	0.120
2020/01/31 19:20:29.9	7.420	0.160	-1.080	0.150
2020/01/31 19:20:30.0	7.430	0.180	-1.050	0.170
2020/01/31 19:20:30.1	7.430	0.200	-1.030	0.200
2020/01/31 19:20:30.2	7.420	0.220	-0.990	0.240
2020/01/31 19:20:30.3	7.420	0.240	-0.950	0.270
2020/01/31 19:20:30.4	7.410	0.250	-0.900	0.310
2020/01/31 19:20:30.5	7.410	0.270	-0.840	0.350
2020/01/31 19:20:30.6	7.400	0.280	-0.780	0.390
2020/01/31 19:20:30.7	7.390	0.290	-0.720	0.430
2020/01/31 19:20:30.8	7.380	0.310	-0.650	0.470
2020/01/31 19:20:30.9	7.370	0.310	-0.590	0.510
2020/01/31 19:20:31.0	7.360	0.320	-0.520	0.550
2020/01/31 19:20:31.1	7.350	0.330	-0.450	0.590
2020/01/31 19:20:31.2	7.330	0.330	-0.380	0.630
2020/01/31 19:20:31.3	7.320	0.340	-0.320	0.660
2020/01/31 19:20:31.4	7.310	0.340	-0.250	0.700
2020/01/31 19:20:31.5	7.300	0.340	-0.190	0.730
2020/01/31 19:20:31.6	7.290	0.350	-0.140	0.760
2020/01/31 19:20:31.7	7.280	0.350	-0.080	0.790
2020/01/31 19:20:31.8	7.270	0.350	-0.030	0.820
2020/01/31 19:20:31.9	7.270	0.340	0.010	0.840
2020/01/31 19:20:32.0	7.260	0.340	0.050	0.860
2020/01/31 19:20:32.1	7.250	0.340	0.080	0.880
2020/01/31 19:20:32.2	7.240	0.340	0.110	0.900
2020/01/31 19:20:32.3	7.240	0.330	0.140	0.920
2020/01/31 19:20:32.4	7.230	0.330	0.150	0.930
2020/01/31 19:20:32.5	7.230	0.330	0.170	0.940
2020/01/31 19:20:32.6	7.220	0.320	0.170	0.950
2020/01/31 19:20:32.7	7.220	0.320	0.180	0.950
2020/01/31 19:20:32.8	7.220	0.310	0.180	0.950
2020/01/31 19:20:32.9	7.220	0.310	0.170	0.950
2020/01/31 19:20:33.0	7.210	0.300	0.160	0.950
2020/01/31 19:20:33.1	7.210	0.300	0.150	0.950
2020/01/31 19:20:33.2	7.210	0.290	0.140	0.940
2020/01/31 19:20:33.3	7.210	0.290	0.120	0.930
2020/01/31 19:20:33.4	7.220	0.280	0.100	0.920
2020/01/31 19:20:33.5	7.220	0.270	0.090	0.910
2020/01/31 19:20:33.6	7.220	0.270	0.070	0.900
2020/01/31 19:20:33.7	7.220	0.260	0.050	0.880
2020/01/31 19:20:33.8	7.220	0.250	0.030	0.860
2020/01/31 19:20:33.9	7.200	0.240	0.020	0.840
2020/01/31 19:20:34.0	7.200	0.230	0.000	0.820
2020/01/31 19:20:34.1	7.200	0.220	-0.010	0.790
2020/01/31 19:20:34.2	7.200	0.210	-0.020	0.770
2020/01/31 19:20:34.3	7.190	0.200	-0.030	0.740
2020/01/31 19:20:34.4	7.190	0.190	-0.040	0.710
2020/01/31 19:20:34.5	7.180	0.180	-0.040	0.680
2020/01/31 19:20:34.6	7.180	0.160	-0.040	0.650
2020/01/31 19:20:34.7	7.170	0.150	-0.040	0.620
2020/01/31 19:20:34.8	7.170	0.130	-0.040	0.590
2020/01/31 19:20:34.9	7.160	0.110	-0.030	0.550
2020/01/31 19:20:35.0	7.150	0.090	-0.020	0.520
2020/01/31 19:20:35.1	7.140	0.070	-0.010	0.480
2020/01/31 19:20:35.2	7.130	0.050	0.010	0.440
2020/01/31 19:20:35.3	7.120	0.030	0.020	0.400
2020/01/31 19:20:35.4	7.110	0.010	0.040	0.370
2020/01/31 19:20:35.5	7.100	-0.010	0.060	0.330
2020/01/31 19:20:35.6	7.090	-0.040	0.080	0.290
2020/01/31 19:20:35.7	7.080	-0.060	0.100	0.250
2020/01/31 19:20:35.8	7.070	-0.080	0.120	0.220
2020/01/31 19:20:35.9	7.060	-0.110	0.140	0.180
2020/01/31 19:20:36.0	7.040	-0.130	0.160	0.140
2020/01/31 19:20:36.1	7.030	-0.160	0.180	0.110
2020/01/31 19:20:36.2	7.020	-0.180	0.200	0.070
2020/01/31 19:20:36.3	7.010	-0.210	0.220	0.040
2020/01/31 19:20:36.4	7.000	-0.230	0.240	0.010
2020/01/31 19:20:36.5	6.990	-0.260	0.250	-0.020
2020/01/31 19:20:36.6	6.980	-0.280	0.260	-0.050
2020/01/31 19:20:36.7	6.970	-0.300	0.270	-0.080
2020/01/31 19:20:36.8	6.960	-0.320	0.280	-0.110
2020/01/31 19:20:36.9	6.960	-0.340	0.280	-0.130
2020/01/31 19:20:37.0	6.950	-0.350	0.280	-0.160
2020/01/31 19:20:37.1	6.950	-0.370	0.280	-0.180
2020/01/31 19:20:37.2	6.950	-0.380	0.280	-0.200
2020/01/31 19:20:37.3	6.950	-0.390	0.270	-0.220
2020/01/31 19:20:37.4	6.950	-0.400	0.260	-0.240
2020/01/31 19:20:37.5	6.950	-0.400	0.240	-0.260
2020/01/31 19:20:37.6	6.960	-0.410	0.220	-0.280
2020/01/31 19:20:37.7	6.960	-0.410	0.200	-0.300
2020/01/31 19:20:37.8	6.970	-0.410	0.170	-0.310
2020/01/31 19:20:37.9	6.990	-0.400	0.150	-0.330
2020/01/31 19:20:38.0	6.990	-0.400	0.120	-0.350
2020/01/31 19:20:38.1	7.000	-0.390	0.080	-0.360
2020/01/31 19:20:38.2	7.020	-0.380	0.050	-0.380
2020/01/31 19:20:38.3	7.030	-0.370	0.010	-0.390
2020/01/31 19:20:38.4	7.040	-0.350	-0.030	-0.410
2020/01/31 19:20:38.5	7.050	-0.340	-0.070	-0.420
2020/01/31 19:20:38.6	7.070	-0.320	-0.120	-0.430
2020/01/31 19:20:38.7	7.080	-0.300	-0.160	-0.450
2020/01/31 19:20:38.8	7.100	-0.280	-0.200	-0.460
2020/01/31 19:20:38.9	7.100	-0.260	-0.250	-0.480
2020/01/31 19:20:39.0	7.120	-0.240	-0.300	-0.490
2020/01/31 19:20:39.1	7.130	-0.220	-0.340	-0.500
2020/01/31 19:20:39.2	7.150	-0.190	-0.390	-0.510
2020/01/31 19:20:39.3	7.160	-0.170	-0.430	-0.520
2020/01/31 19:20:39.4	7.170	-0.150	-0.470	-0.530
2020/01/31 19:20:39.5	7.180	-0.120	-0.510	-0.540
2020/01/31 19:20:39.6	7.200	-0.100	-0.550	-0.550
2020/01/31 19:20:39.7	7.210	-0.080	-0.590	-0.560
2020/01/31 19:20:39.8	7.220	-0.060	-0.620	-0.560
2020/01/31 19:20:39.9	7.230	-0.040	-0.650	-0.570
2020/01/31 19:20:40.0	7.240	-0.020	-0.680	-0.570
2020/01/31 19:20:40.1	7.250	0.000	-0.710	-0.570
2020/01/31 19:20:40.2	7.250	0.020	-0.730	-0.560
2020/01/31 19:20:40.3	7.250	0.030	-0.750	-0.560
2020/01/31 19:20:40.4	7.250	0.050	-0.760	-0.550
2020/01/31 19:20:40.5	7.250	0.060	-0.770	-0.540
2020/01/31 19:20:40.6	7.250	0.070	-0.780	-0.530
2020/01/31 19:20:40.7	7.250	0.080	-0.780	-0.510
2020/01/31 19:20:40.8	7.240	0.080	-0.780	-0.490
2020/01/31 19:20:40.9	7.240	0.090	-0.780	-0.470
2020/01/31 19:20:41.0	7.230	0.090	-0.780	-0.440
2020/01/31 19:20:41.1	7.220	0.090	-0.760	-0.410
2020/01/31 19:20:41.2	7.210	0.090	-0.750	-0.380
2020/01/31 19:20:41.3	7.190	0.090	-0.730	-0.350
2020/01/31 19:20:41.4	7.180	0.090	-0.700	-0.310
2020/01/31 19:20:41.5	7.160	0.090	-0.680	-0.270
2020/01/31 19:20:41.6	7.150	0.080	-0.650	-0.230
2020/01/31 19:20:41.7	7.130	0.080	-0.620	-0.190
2020/01/31 19:20:41.8	7.110	0.070	-0.590	-0.150
2020/01/31 19:20:41.9	7.090	0.070	-0.550	-0.100
2020/01/31 19:20:42.0	7.070	0.060	-0.520	-0.060
2020/01/31 19:20:42.1	7.050	0.050	-0.480	-0.010
2020/01/31 19:20:42.2	7.030	0.050	-0.440	0.040
2020/01/31 19:20:42.3	7.010	0.040	-0.400	0.090
2020/01/31 19:20:42.4	6.990	0.030	-0.370	0.140
2020/01/31 19:20:42.5	6.970	0.020	-0.330	0.180
2020/01/31 19:20:42.6	6.950	0.010	-0.290	0.230
2020/01/31 19:20:42.7	6.940	0.000	-0.260	0.280
2020/01/31 19:20:42.8	6.920	-0.000	-0.220	0.320
2020/01/31 19:20:42.9	6.920	-0.010	-0.190	0.360
2020/01/31 19:20:43.0	6.900	-0.020	-0.160	0.400
2020/01/31 19:20:43.1	6.890	-0.030	-0.130	0.440
2020/01/31 19:20:43.2	6.880	-0.030	-0.100	0.480
2020/01/31 19:20:43.3	6.870	-0.040	-0.070	0.510
2020/01/31 19:20:43.4	6.860	-0.040	-0.050	0.540
2020/01/31 19:20:43.5	6.860	-0.050	-0.020	0.570
2020/01/31 19:20:43.6	6.850	-0.060	-0.000	0.600
2020/01/31 19:20:43.7	6.850	-0.060	0.020	0.620
2020/01/31 19:20:43.8	6.850	-0.060	0.030	0.640
2020/01/31 19:20:43.9	6.850	-0.070	0.050	0.660
2020/01/31 19:20:44.0	6.850	-0.070	0.060	0.670
2020/01/31 19:20:44.1	6.850	-0.070	0.070	0.680
2020/01/31 19:20:44.2	6.860	-0.070	0.080	0.690
2020/01/31 19:20:44.3	6.870	-0.070	0.090	0.690
2020/01/31 19:20:44.4	6.870	-0.070	0.090	0.700
2020/01/31 19:20:44.5	6.880	-0.070	0.090	0.690
2020/01/31 19:20:44.6	6.890	-0.070	0.090	0.690
2020/01/31 19:20:44.7	6.910	-0.070	0.090	0.690
2020/01/31 19:20:44.8	6.920	-0.060	0.090	0.680
2020/01/31 19:20:44.9	6.930	-0.060	0.080	0.670
2020/01/31 19:20:45.0	6.950	-0.050	0.070	0.650
2020/01/31 19:20:45.1	6.960	-0.050	0.060	0.640
2020/01/31 19:20:45.2	6.970	-0.040	0.050	0.620
2020/01/31 19:20:45.3	6.990	-0.030	0.040	0.610
2020/01/31 19:20:45.4	7.000	-0.030	0.030	0.590
2020/01/31 19:20:45.5	7.020	-0.020	0.010	0.580
2020/01/31 19:20:45.6	7.030	-0.010	-0.000	0.560
2020/01/31 19:20:45.7	7.040	0.000	-0.020	0.540
2020/01/31 19:20:45.8	7.050	0.010	-0.040	0.520
2020/01/31 19:20:45.9	7.050	0.020	-0.050	0.500
2020/01/31 19:20:46.0	7.060	0.030	-0.070	0.480
2020/01/31 19:20:46.1	7.060	0.050	-0.090	0.460
2020/01/31 19:20:46.2	7.070	0.060	-0.100	0.450
2020/01/31 19:20:46.3	7.080	0.070	-0.120	0.430
2020/01/31 19:20:46.4	7.080	0.080	-0.140	0.420
2020/01/31 19:20:46.5	7.080	0.090	-0.150	0.400
2020/01/31 19:20:46.6	7.090	0.110	-0.170	0.390
2020/01/31 19:20:46.7	7.090	0.120	-0.180	0.380
2020/01/31 19:20:46.8	7.080	0.130	-0.200	0.380
2020/01/31 19:20:46.9	7.080	0.150	-0.210	0.370
2020/01/31 19:20:47.0	7.070	0.160	-0.220	0.370
2020/01/31 19:20:47.1	7.070	0.170	-0.230	0.360
2020/01/31 19:20:47.2	7.060	0.190	-0.240	0.370
2020/01/31 19:20:47.3	7.050	0.200	-0.240	0.370
2020/01/31 19:20:47.4	7.040	0.210	-0.250	0.370
2020/01/31 19:20:47.5	7.030	0.230	-0.260	0.380
2020/01/31 19:20:47.6	7.020	0.240	-0.260	0.390
2020/01/31 19:20:47.7	7.010	0.250	-0.260	0.400
2020/01/31 19:20:47.8	6.990	0.270	-0.270	0.410
2020/01/31 19:20:47.9	6.980	0.280	-0.270	0.420
2020/01/31 19:20:48.0	6.960	0.290	-0.280	0.440
2020/01/31 19:20:48.1	6.950	0.310	-0.280	0.460
2020/01/31 19:20:48.2	6.940	0.320	-0.280	0.480
2020/01/31 19:20:48.3	6.920	0.330	-0.280	0.490
2020/01/31 19:20:48.4	6.910	0.340	-0.290	0.520
2020/01/31 19:20:48.5	6.900	0.350	-0.290	0.540
2020/01/31 19:20:48.6	6.890	0.360	-0.290	0.560
2020/01/31 19:20:48.7	6.870	0.370	-0.290	0.580
2020/01/31 19:20:48.8	6.860	0.380	-0.290	0.600
2020/01/31 19:20:48.9	6.860	0.380	-0.300	0.620
2020/01/31 19:20:49.0	6.850	0.390	-0.300	0.650
2020/01/31 19:20:49.1	6.840	0.390	-0.300	0.670
2020/01/31 19:20:49.2	6.830	0.390	-0.300	0.690
2020/01/31 19:20:49.3	6.820	0.390	-0.290	0.710
2020/01/31 19:20:49.4	6.810	0.390	-0.290	0.730
2020/01/31 19:20:49.5	6.800	0.380	-0.290	0.750
2020/01/31 19:20:49.6	6.790	0.380	-0.280	0.770
2020/01/31 19:20:49.7	6.790	0.370	-0.270	0.780
2020/01/31 19:20:49.8	6.780	0.350	-0.260	0.790
2020/01/31 19:20:49.9	6.780	0.340	-0.250	0.810
2020/01/31 19:20:50.0	6.780	0.320	-0.240	0.810
2020/01/31 19:20:50.1	6.770	0.300	-0.230	0.820
2020/01/31 19:20:50.2	6.770	0.280	-0.210	0.820
2020/01/31 19:20:50.3	6.770	0.260	-0.200	0.820
2020/01/31 19:20:50.4	6.770	0.240	-0.180	0.810
2020/01/31 19:20:50.5	6.780	0.210	-0.160	0.810
2020/01/31 19:20:50.6	6.780	0.180	-0.140	0.790
2020/01/31 19:20:50.7	6.780	0.150	-0.130	0.780
2020/01/31 19:20:50.8	6.790	0.120	-0.110	0.760
2020/01/31 19:20:50.9	6.810	0.080	-0.090	0.730
2020/01/31 19:20:51.0	6.820	0.050	-0.070	0.710
2020/01/31 19:20:51.1	6.840	0.010	-0.060	0.680
2020/01/31 19:20:51.2	6.850	-0.030	-0.040	0.640
2020/01/31 19:20:51.3	6.870	-0.060	-0.030	0.600
2020/01/31 19:20:51.4	6.880	-0.100	-0.020	0.560
2020/01/31 19:20:51.5	6.900	-0.140	-0.010	0.520
2020/01/31 19:20:51.6	6.920	-0.180	0.000	0.480
2020/01/31 19:20:51.7	6.950	-0.220	0.010	0.430
2020/01/31 19:20:51.8	6.970	-0.260	0.010	0.380
2020/01/31 19:20:51.9	7.000	-0.290	0.010	0.320
2020/01/31 19:20:52.0	7.020	-0.330	0.010	0.270
2020/01/31 19:20:52.1	7.040	-0.370	0.010	0.220
2020/01/31 19:20:52.2	7.070	-0.400	0.010	0.160
2020/01/31 19:20:52.3	7.090	-0.430	0.010	0.110
2020/01/31 19:20:52.4	7.110	-0.470	0.010	0.060
2020/01/31 19:20:52.5	7.130	-0.500	0.010	0.010
2020/01/31 19:20:52.6	7.150	-0.520	0.000	-0.050
2020/01/31 19:20:52.7	7.170	-0.550	0.000	-0.090
2020/01/31 19:20:52.8	7.190	-0.570	-0.000	-0.140
2020/01/31 19:20:52.9	7.210	-0.600	0.000	-0.190
2020/01/31 19:20:53.0	7.220	-0.610	-0.000	-0.230
2020/01/31 19:20:53.1	7.220	-0.630	-0.000	-0.270
2020/01/31 19:20:53.2	7.230	-0.650	0.000	-0.310
2020/01/31 19:20:53.3	7.230	-0.660	0.000	-0.350
2020/01/31 19:20:53.4	7.230	-0.670	0.010	-0.380
2020/01/31 19:20:53.5	7.230	-0.670	0.010	-0.410
2020/01/31 19:20:53.6	7.220	-0.670	0.020	-0.440
2020/01/31 19:20:53.7	7.210	-0.670	0.020	-0.460
2020/01/31 19:20:53.8	7.190	-0.670	0.030	-0.480
2020/01/31 19:20:53.9	7.170	-0.660	0.040	-0.500
2020/01/31 19:20:54.0	7.150	-0.650	0.040	-0.510
2020/01/31 19:20:54.1	7.120	-0.630	0.050	-0.520
2020/01/31 19:20:54.2	7.100	-0.620	0.060	-0.530
2020/01/31 19:20:54.3	7.070	-0.590	0.070	-0.530
2020/01/31 19:20:54.4	7.040	-0.570	0.080	-0.530
2020/01/31 19:20:54.5	7.010	-0.540	0.080	-0.530
2020/01/31 19:20:54.6	6.970	-0.510	0.090	-0.520
2020/01/31 19:20:54.7	6.940	-0.470	0.090	-0.510
2020/01/31 19:20:54.8	6.900	-0.440	0.080	-0.500
2020/01/31 19:20:54.9	6.860	-0.400	0.080	-0.480
2020/01/31 19:20:55.0	6.820	-0.350	0.070	-0.470
2020/01/31 19:20:55.1	6.790	-0.310	0.060	-0.450
2020/01/31 19:20:55.2	6.750	-0.260	0.050	-0.430
2020/01/31 19:20:55.3	6.710	-0.210	0.020	-0.410
2020/01/31 19:20:55.4	6.680	-0.160	-0.000	-0.380
2020/01/31 19:20:55.5	6.650	-0.110	-0.030	-0.360
2020/01/31 19:20:55.6	6.620	-0.050	-0.060	-0.340
2020/01/31 19:20:55.7	6.590	0.000	-0.100	-0.310
2020/01/31 19:20:55.8	6.560	0.060	-0.150	-0.290
2020/01/31 19:20:55.9	6.540	0.120	-0.190	-0.270
2020/01/31 19:20:56.0	6.520	0.170	-0.240	-0.250
2020/01/31 19:20:56.1	6.500	0.230	-0.300	-0.220
2020/01/31 19:20:56.2	6.490	0.290	-0.350	-0.200
2020/01/31 19:20:56.3	6.480	0.340	-0.410	-0.180
2020/01/31 19:20:56.4	6.470	0.390	-0.470	-0.160
2020/01/31 19:20:56.5	6.470	0.440	-0.530	-0.140
2020/01/31 19:20:56.6	6.470	0.490	-0.600	-0.130
2020/01/31 19:20:56.7	6.480	0.540	-0.660	-0.110
2020/01/31 19:20:56.8	6.490	0.580	-0.720	-0.090
2020/01/31 19:20:56.9	6.490	0.620	-0.770	-0.080
2020/01/31 19:20:57.0	6.510	0.660	-0.830	-0.070
2020/01/31 19:20:57.1	6.530	0.690	-0.880	-0.050
2020/01/31 19:20:57.2	6.550	0.720	-0.930	-0.040
2020/01/31 19:20:57.3	6.570	0.740	-0.970	-0.020
2020/01/31 19:20:57.4	6.600	0.760	-1.000	-0.010
2020/01/31 19:20:57.5	6.630	0.770	-1.030	0.010
2020/01/31 19:20:57.6	6.650	0.780	-1.060	0.020
2020/01/31 19:20:57.7	6.680	0.780	-1.070	0.040
2020/01/31 19:20:57.8	6.710	0.770	-1.080	0.060
2020/01/31 19:20:57.9	6.730	0.770	-1.080	0.070
2020/01/31 19:20:58.0	6.760	0.750	-1.080	0.090
2020/01/31 19:20:58.1	6.790	0.730	-1.060	0.110
2020/01/31 19:20:58.2	6.820	0.710	-1.040	0.130
2020/01/31 19:20:58.3	6.850	0.680	-1.010	0.150
2020/01/31 19:20:58.4	6.880	0.650	-0.970	0.170
2020/01/31 19:20:58.5	6.910	0.610	-0.930	0.190
2020/01/31 19:20:58.6	6.940	0.570	-0.880	0.220
2020/01/31 19:20:58.7	6.970	0.530	-0.820	0.240
2020/01/31 19:20:58.8	7.000	0.480	-0.760	0.270
2020/01/31 19:20:58.9	7.020	0.430	-0.690	0.300
2020/01/31 19:20:59.0	7.050	0.380	-0.620	0.330
2020/01/31 19:20:59.1	7.070	0.320	-0.550	0.360
2020/01/31 19:20:59.2	7.090	0.270	-0.470	0.390
2020/01/31 19:20:59.3	7.110	0.210	-0.390	0.420
2020/01/31 19:20:59.4	7.120	0.160	-0.310	0.450
2020/01/31 19:20:59.5	7.140	0.100	-0.230	0.480
2020/01/31 19:20:59.6	7.150	0.040	-0.140	0.510
2020/01/31 19:20:59.7	7.160	-0.010	-0.060	0.550
2020/01/31 19:20:59.8	7.170	-0.070	0.020	0.580
2020/01/31 19:20:59.9	7.170	-0.120	0.090	0.610
2020/01/31 19:21:00.0	7.180	-0.170	0.170	0.640
2020/01/31 19:21:00.1	7.180	-0.220	0.240	0.670
2020/01/31 19:21:00.2	7.190	-0.260	0.310	0.700
2020/01/31 19:21:00.3	7.190	-0.300	0.370	0.730
2020/01/31 19:21:00.4	7.190	-0.340	0.430	0.750
2020/01/31 19:21:00.5	7.190	-0.370	0.490	0.780
2020/01/31 19:21:00.6	7.180	-0.410	0.530	0.800
2020/01/31 19:21:00.7	7.180	-0.430	0.580	0.820
2020/01/31 19:21:00.8	7.170	-0.460	0.610	0.840
2020/01/31 19:21:00.9	7.160	-0.480	0.640	0.860
2020/01/31 19:21:01.0	7.150	-0.490	0.660	0.870
2020/01/31 19:21:01.1	7.140	-0.500	0.680	0.890
2020/01/31 19:21:01.2	7.130	-0.510	0.690	0.900
2020/01/31 19:21:01.3	7.130	-0.520	0.690	0.910
2020/01/31 19:21:01.4	7.120	-0.520	0.690	0.920
2020/01/31 19:21:01.5	7.110	-0.520	0.680	0.930
2020/01/31 19:21:01.6	7.100	-0.510	0.670	0.930
2020/01/31 19:21:01.7	7.090	-0.500	0.650	0.930
2020/01/31 19:21:01.8	7.080	-0.490	0.620	0.930
2020/01/31 19:21:01.9	7.080	-0.480	0.590	0.930
2020/01/31 19:21:02.0	7.060	-0.460	0.560	0.930
2020/01/31 19:21:02.1	7.050	-0.440	0.520	0.920
2020/01/31 19:21:02.2	7.040	-0.420	0.480	0.920
2020/01/31 19:21:02.3	7.030	-0.400	0.440	0.910
2020/01/31 19:21:02.4	7.020	-0.370	0.390	0.900
2020/01/31 19:21:02.5	7.000	-0.350	0.340	0.890
2020/01/31 19:21:02.6	6.990	-0.320	0.290	0.880
2020/01/31 19:21:02.7	6.980	-0.300	0.240	0.870
2020/01/31 19:21:02.8	6.960	-0.270	0.180	0.860
2020/01/31 19:21:02.9	6.950	-0.240	0.130	0.850
2020/01/31 19:21:03.0	6.940	-0.210	0.080	0.840
2020/01/31 19:21:03.1	6.920	-0.190	0.020	0.820
2020/01/31 19:21:03.2	6.910	-0.160	-0.030	0.810
2020/01/31 19:21:03.3	6.900	-0.130	-0.080	0.790
2020/01/31 19:21:03.4	6.880	-0.100	-0.140	0.780
2020/01/31 19:21:03.5	6.870	-0.080	-0.190	0.760
2020/01/31 19:21:03.6	6.860	-0.050	-0.230	0.750
2020/01/31 19:21:03.7	6.850	-0.020	-0.280	0.730
2020/01/31 19:21:03.8	6.840	0.000	-0.320	0.710
2020/01/31 19:21:03.9	6.840	0.030	-0.360	0.690
2020/01/31 19:21:04.0	6.830	0.050	-0.400	0.670
2020/01/31 19:21:04.1	6.830	0.070	-0.430	0.650
2020/01/31 19:21:04.2	6.820	0.100	-0.460	0.630
2020/01/31 19:21:04.3	6.820	0.120	-0.490	0.610
2020/01/31 19:21:04.4	6.820	0.140	-0.510	0.590
2020/01/31 19:21:04.5	6.820	0.160	-0.530	0.580
2020/01/31 19:21:04.6	6.830	0.180	-0.550	0.560
2020/01/31 19:21:04.7	6.830	0.200	-0.560	0.540
2020/01/31 19:21:04.8	6.840	0.220	-0.570	0.520
2020/01/31 19:21:04.9	6.840	0.230	-0.570	0.500
2020/01/31 19:21:05.0	6.850	0.250	-0.560	0.480
2020/01/31 19:21:05.1	6.850	0.260	-0.560	0.460
2020/01/31 19:21:05.2	6.860	0.270	-0.550	0.440
2020/01/31 19:21:05.3	6.870	0.280	-0.540	0.420
2020/01/31 19:21:05.4	6.880	0.290	-0.520	0.400
2020/01/31 19:21:05.5	6.890	0.300	-0.500	0.380
2020/01/31 19:21:05.6	6.900	0.310	-0.470	0.360
2020/01/31 19:21:05.7	6.910	0.310	-0.450	0.350
2020/01/31 19:21:05.8	6.910	0.310	-0.420	0.330
2020/01/31 19:21:05.9	6.920	0.310	-0.390	0.310
2020/01/31 19:21:06.0	6.930	0.310	-0.360	0.300
2020/01/31 19:21:06.1	6.930	0.300	-0.320	0.280
2020/01/31 19:21:06.2	6.940	0.300	-0.290	0.270
2020/01/31 19:21:06.3	6.940	0.290	-0.250	0.260
2020/01/31 19:21:06.4	6.940	0.280	-0.220	0.240
2020/01/31 19:21:06.5	6.940	0.260	-0.180	0.230
2020/01/31 19:21:06.6	6.940	0.250	-0.150	0.220
2020/01/31 19:21:06.7	6.930	0.230	-0.110	0.200
2020/01/31 19:21:06.8	6.930	0.210	-0.080	0.190
2020/01/31 19:21:06.9	6.930	0.190	-0.050	0.170
2020/01/31 19:21:07.0	6.930	0.170	-0.030	0.160
2020/01/31 19:21:07.1	6.920	0.140	-0.000	0.140
2020/01/31 19:21:07.2	6.920	0.120	0.020	0.130
2020/01/31 19:21:07.3	6.910	0.090	0.030	0.110
2020/01/31 19:21:07.4	6.900	0.070	0.050	0.090
2020/01/31 19:21:07.5	6.900	0.040	0.050	0.080
2020/01/31 19:21:07.6	6.890	0.010	0.060	0.050
2020/01/31 19:21:07.7	6.890	-0.020	0.060	0.030
2020/01/31 19:21:07.8	6.890	-0.050	0.060	0.010
2020/01/31 19:21:07.9	6.890	-0.080	0.050	-0.020
2020/01/31 19:21:08.0	6.890	-0.110	0.030	-0.050
2020/01/31 19:21:08.1	6.890	-0.140	0.020	-0.080
2020/01/31 19:21:08.2	6.900	-0.160	-0.000	-0.120
2020/01/31 19:21:08.3	6.900	-0.190	-0.030	-0.160
2020/01/31 19:21:08.4	6.910	-0.220	-0.060	-0.190
2020/01/31 19:21:08.5	6.920	-0.240	-0.090	-0.230
2020/01/31 19:21:08.6	6.940	-0.260	-0.120	-0.280
2020/01/31 19:21:08.7	6.950	-0.280	-0.160	-0.320
2020/01/31 19:21:08.8	6.970	-0.300	-0.200	-0.370
2020/01/31 19:21:08.9	6.990	-0.310	-0.240	-0.410
2020/01/31 19:21:09.0	7.010	-0.330	-0.290	-0.460
2020/01/31 19:21:09.1	7.040	-0.340	-0.330	-0.510
2020/01/31 19:21:09.2	7.060	-0.350	-0.380	-0.560
2020/01/31 19:21:09.3	7.090	-0.360	-0.420	-0.610
2020/01/31 19:21:09.4	7.110	-0.360	-0.470	-0.660
2020/01/31 19:21:09.5	7.140	-0.370	-0.510	-0.710
2020/01/31 19:21:09.6	7.160	-0.370	-0.560	-0.760
2020/01/31 19:21:09.7	7.190	-0.370	-0.600	-0.810
2020/01/31 19:21:09.8	7.220	-0.370	-0.630	-0.850
2020/01/31 19:21:09.9	7.240	-0.360	-0.670	-0.900
2020/01/31 19:21:10.0	7.270	-0.360	-0.700	-0.940
2020/01/31 19:21:10.1	7.290	-0.350	-0.730	-0.980
2020/01/31 19:21:10.2	7.310	-0.340	-0.750	-1.010
2020/01/31 19:21:10.3	7.330	-0.330	-0.770	-1.040
2020/01/31 19:21:10.4	7.350	-0.320	-0.790	-1.070
2020/01/31 19:21:10.5	7.360	-0.300	-0.800	-1.090
2020/01/31 19:21:10.6	7.370	-0.290	-0.800	-1.110
2020/01/31 19:21:10.7	7.390	-0.270	-0.800	-1.120
2020/01/31 19:21:10.8	7.400	-0.260	-0.790	-1.130
2020/01/31 19:21:10.9	7.390	-0.240	-0.780	-1.130
2020/01/31 19:21:11.0	7.400	-0.220	-0.770	-1.130
2020/01/31 19:21:11.1	7.400	-0.200	-0.740	-1.120
2020/01/31 19:21:11.2	7.400	-0.180	-0.720	-1.100
2020/01/31 19:21:11.3	7.400	-0.170	-0.690	-1.090
2020/01/31 19:21:11.4	7.400	-0.150	-0.650	-1.060
2020/01/31 19:21:11.5	7.400	-0.130	-0.610	-1.040
2020/01/31 19:21:11.6	7.390	-0.110	-0.570	-1.000
2020/01/31 19:21:11.7	7.390	-0.090	-0.520	-0.970
2020/01/31 19:21:11.8	7.380	-0.070	-0.470	-0.930
2020/01/31 19:21:11.9	7.380	-0.050	-0.420	-0.880
2020/01/31 19:21:12.0	7.380	-0.030	-0.370	-0.830
2020/01/31 19:21:12.1	7.370	-0.010	-0.310	-0.780
2020/01/31 19:21:12.2	7.360	0.010	-0.260	-0.720
2020/01/31 19:21:12.3	7.350	0.020	-0.200	-0.660
2020/01/31 19:21:12.4	7.340	0.040	-0.140	-0.600
2020/01/31 19:21:12.5	7.340	0.060	-0.090	-0.530
2020/01/31 19:21:12.6	7.330	0.080	-0.030	-0.460
2020/01/31 19:21:12.7	7.320	0.100	0.020	-0.390
2020/01/31 19:21:12.8	7.310	0.110	0.070	-0.320
2020/01/31 19:21:12.9	7.300	0.130	0.120	-0.240
2020/01/31 19:21:13.0	7.290	0.150	0.160	-0.170
2020/01/31 19:21:13.1	7.280	0.160	0.210	-0.090
2020/01/31 19:21:13.2	7.270	0.180	0.250	-0.010
2020/01/31 19:21:13.3	7.260	0.190	0.290	0.070
2020/01/31 19:21:13.4	7.250	0.210	0.320	0.150
2020/01/31 19:21:13.5	7.230	0.230	0.350	0.230
2020/01/31 19:21:13.6	7.220	0.240	0.380	0.310
2020/01/31 19:21:13.7	7.200	0.250	0.400	0.390
2020/01/31 19:21:13.8	7.190	0.270	0.430	0.470
2020/01/31 19:21:13.9	7.170	0.280	0.440	0.550
2020/01/31 19:21:14.0	7.150	0.290	0.450	0.630
2020/01/31 19:21:14.1	7.130	0.300	0.460	0.710
2020/01/31 19:21:14.2	7.100	0.310	0.470	0.790
2020/01/31 19:21:14.3	7.080	0.320	0.470	0.870
2020/01/31 19:21:14.4	7.050	0.330	0.460	0.940
2020/01/31 19:21:14.5	7.020	0.340	0.460	1.020
2020/01/31 19:21:14.6	6.990	0.350	0.450	1.090
2020/01/31 19:21:14.7	6.960	0.350	0.430	1.160
2020/01/31 19:21:14.8	6.930	0.360	0.410	1.230
2020/01/31 19:21:14.9	6.900	0.360	0.390	1.290
2020/01/31 19:21:15.0	6.860	0.360	0.370	1.350
2020/01/31 19:21:15.1	6.830	0.370	0.340	1.400
2020/01/31 19:21:15.2	6.800	0.370	0.300	1.450
2020/01/31 19:21:15.3	6.770	0.370	0.260	1.500
2020/01/31 19:21:15.4	6.740	0.370	0.220	1.540
2020/01/31 19:21:15.5	6.720	0.370	0.180	1.570
2020/01/31 19:21:15.6	6.690	0.360	0.130	1.590
2020/01/31 19:21:15.7	6.670	0.360	0.080	1.610
2020/01/31 19:21:15.8	6.650	0.350	0.030	1.630
2020/01/31 19:21:15.9	6.620	0.350	-0.030	1.630
2020/01/31 19:21:16.0	6.610	0.340	-0.080	1.630
2020/01/31 19:21:16.1	6.600	0.330	-0.140	1.620
2020/01/31 19:21:16.2	6.600	0.330	-0.200	1.600
2020/01/31 19:21:16.3	6.600	0.320	-0.260	1.580
2020/01/31 19:21:16.4	6.600	0.310	-0.320	1.550
2020/01/31 19:21:16.5	6.610	0.300	-0.380	1.510
2020/01/31 19:21:16.6	6.620	0.290	-0.440	1.470
2020/01/31 19:21:16.7	6.640	0.270	-0.500	1.410
2020/01/31 19:21:16.8	6.660	0.260	-0.560	1.350
2020/01/31 19:21:16.9	6.680	0.250	-0.610	1.280
2020/01/31 19:21:17.0	6.710	0.230	-0.660	1.210
2020/01/31 19:21:17.1	6.750	0.220	-0.710	1.130
2020/01/31 19:21:17.2	6.790	0.200	-0.760	1.050
2020/01/31 19:21:17.3	6.830	0.180	-0.800	0.970
2020/01/31 19:21:17.4	6.880	0.160	-0.840	0.880
2020/01/31 19:21:17.5	6.930	0.140	-0.870	0.790
2020/01/31 19:21:17.6	6.990	0.120	-0.900	0.690
2020/01/31 19:21:17.7	7.040	0.100	-0.920	0.600
2020/01/31 19:21:17.8	7.100	0.070	-0.930	0.500
2020/01/31 19:21:17.9	7.150	0.050	-0.940	0.410
2020/01/31 19:21:18.0	7.210	0.020	-0.930	0.310
2020/01/31 19:21:18.1	7.270	-0.010	-0.920	0.220
2020/01/31 19:21:18.2	7.330	-0.040	-0.910	0.130
2020/01/31 19:21:18.3	7.380	-0.070	-0.880	0.040
2020/01/31 19:21:18.4	7.440	-0.110	-0.850	-0.040
2020/01/31 19:21:18.5	7.490	-0.140	-0.810	-0.120
2020/01/31 19:21:18.6	7.530	-0.180	-0.760	-0.200
2020/01/31 19:21:18.7	7.580	-0.210	-0.700	-0.270
2020/01/31 19:21:18.8	7.610	-0.250	-0.630	-0.340
2020/01/31 19:21:18.9	7.660	-0.290	-0.560	-0.400
2020/01/31 19:21:19.0	7.690	-0.330	-0.480	-0.460
2020/01/31 19:21:19.1	7.710	-0.370	-0.400	-0.510
2020/01/31 19:21:19.2	7.730	-0.410	-0.310	-0.550
2020/01/31 19:21:19.3	7.730	-0.450	-0.220	-0.590
2020/01/31 19:21:19.4	7.740	-0.490	-0.120	-0.620
2020/01/31 19:21:19.5	7.730	-0.530	-0.030	-0.640
2020/01/31 19:21:19.6	7.720	-0.570	0.070	-0.660
2020/01/31 19:21:19.7	7.700	-0.610	0.170	-0.670
2020/01/31 19:21:19.8	7.680	-0.640	0.270	-0.680
2020/01/31 19:21:19.9	7.640	-0.670	0.360	-0.680
2020/01/31 19:21:20.0	7.600	-0.700	0.450	-0.680
2020/01/31 19:21:20.1	7.560	-0.730	0.540	-0.680
2020/01/31 19:21:20.2	7.520	-0.750	0.620	-0.670
2020/01/31 19:21:20.3	7.470	-0.770	0.700	-0.650
2020/01/31 19:21:20.4	7.420	-0.780	0.770	-0.630
2020/01/31 19:21:20.5	7.360	-0.790	0.830	-0.610
2020/01/31 19:21:20.6	7.300	-0.800	0.880	-0.590
2020/01/31 19:21:20.7	7.240	-0.800	0.920	-0.560
2020/01/31 19:21:20.8	7.180	-0.800	0.950	-0.530
2020/01/31 19:21:20.9	7.140	-0.790	0.970	-0.510
2020/01/31 19:21:21.0	7.080	-0.780	0.980	-0.480
2020/01/31 19:21:21.1	7.020	-0.760	0.980	-0.450
2020/01/31 19:21:21.2	6.960	-0.740	0.960	-0.420
2020/01/31 19:21:21.3	6.910	-0.710	0.940	-0.390
2020/01/31 19:21:21.4	6.850	-0.680	0.900	-0.360
2020/01/31 19:21:21.5	6.800	-0.640	0.850	-0.330
2020/01/31 19:21:21.6	6.760	-0.600	0.790	-0.310
2020/01/31 19:21:21.7	6.710	-0.550	0.710	-0.280
2020/01/31 19:21:21.8	6.670	-0.500	0.630	-0.260
2020/01/31 19:21:21.9	6.640	-0.450	0.540	-0.240
2020/01/31 19:21:22.0	6.610	-0.400	0.440	-0.230
2020/01/31 19:21:22.1	6.590	-0.340	0.330	-0.210
2020/01/31 19:21:22.2	6.560	-0.280	0.210	-0.200
2020/01/31 19:21:22.3	6.550	-0.210	0.090	-0.190
2020/01/31 19:21:22.4	6.530	-0.150	-0.040	-0.180
2020/01/31 19:21:22.5	6.530	-0.080	-0.170	-0.170
2020/01/31 19:21:22.6	6.530	-0.020	-0.300	-0.170
2020/01/31 19:21:22.7	6.530	0.050	-0.430	-0.160
2020/01/31 19:21:22.8	6.540	0.120	-0.560	-0.160
2020/01/31 19:21:22.9	6.550	0.180	-0.690	-0.170
2020/01/31 19:21:23.0	6.560	0.250	-0.810	-0.170
2020/01/31 19:21:23.1	6.590	0.310	-0.930	-0.170
2020/01/31 19:21:23.2	6.610	0.370	-1.050	-0.180
2020/01/31 19:21:23.3	6.640	0.430	-1.150	-0.180
2020/01/31 19:21:23.4	6.670	0.480	-1.250	-0.180
2020/01/31 19:21:23.5	6.700	0.540	-1.340	-0.190
2020/01/31 19:21:23.6	6.740	0.580	-1.420	-0.190
2020/01/31 19:21:23.7	6.780	0.630	-1.490	-0.200
2020/01/31 19:21:23.8	6.820	0.670	-1.540	-0.200
2020/01/31 19:21:23.9	6.840	0.700	-1.590	-0.200
2020/01/31 19:21:24.0	6.880	0.730	-1.620	-0.200
2020/01/31 19:21:24.1	6.920	0.760	-1.630	-0.200
2020/01/31 19:21:24.2	6.960	0.780	-1.640	-0.190
2020/01/31 19:21:24.3	7.000	0.790	-1.630	-0.180
2020/01/31 19:21:24.4	7.030	0.800	-1.600	-0.170
2020/01/31 19:21:24.5	7.060	0.810	-1.570	-0.160
2020/01/31 19:21:24.6	7.090	0.810	-1.520	-0.140
2020/01/31 19:21:24.7	7.120	0.810	-1.460	-0.120
2020/01/31 19:21:24.8	7.150	0.800	-1.390	-0.100
2020/01/31 19:21:24.9	7.170	0.780	-1.310	-0.070
2020/01/31 19:21:25.0	7.190	0.760	-1.220	-0.040
2020/01/31 19:21:25.1	7.210	0.740	-1.120	-0.000
2020/01/31 19:21:25.2	7.210	0.710	-1.010	0.040
2020/01/31 19:21:25.3	7.220	0.680	-0.900	0.080
2020/01/31 19:21:25.4	7.220	0.650	-0.780	0.130
2020/01/31 19:21:25.5	7.220	0.610	-0.660	0.170
2020/01/31 19:21:25.6	7.220	0.570	-0.540	0.220
2020/01/31 19:21:25.7	7.210	0.530	-0.420	0.270
2020/01/31 19:21:25.8	7.200	0.480	-0.300	0.330
2020/01/31 19:21:25.9	7.170	0.430	-0.180	0.380
2020/01/31 19:21:26.0	7.150	0.390	-0.060	0.430
2020/01/31 19:21:26.1	7.130	0.340	0.050	0.480
2020/01/31 19:21:26.2	7.110	0.290	0.150	0.530
2020/01/31 19:21:26.3	7.090	0.240	0.250	0.580
2020/01/31 19:21:26.4	7.070	0.190	0.340	0.620
2020/01/31 19:21:26.5	7.040	0.140	0.420	0.660
2020/01/31 19:21:26.6	7.020	0.090	0.490	0.700
2020/01/31 19:21:26.7	6.990	0.040	0.560	0.740
2020/01/31 19:21:26.8	6.970	-0.010	0.610	0.770
2020/01/31 19:21:26.9	6.930	-0.060	0.650	0.790
2020/01/31 19:21:27.0	6.910	-0.100	0.690	0.810
2020/01/31 19:21:27.1	6.880	-0.140	0.710	0.830
2020/01/31 19:21:27.2	6.860	-0.180	0.730	0.840
2020/01/31 19:21:27.3	6.840	-0.220	0.730	0.850
2020/01/31 19:21:27.4	6.820	-0.250	0.730	0.850
2020/01/31 19:21:27.5	6.800	-0.290	0.720	0.850
2020/01/31 19:21:27.6	6.780	-0.310	0.700	0.840
2020/01/31 19:21:27.7	6.760	-0.340	0.670	0.830
2020/01/31 19:21:27.8	6.740	-0.360	0.640	0.820
2020/01/31 19:21:27.9	6.720	-0.380	0.600	0.790
2020/01/31 19:21:28.0	6.700	-0.400	0.560	0.770
2020/01/31 19:21:28.1	6.690	-0.410	0.510	0.750
2020/01/31 19:21:28.2	6.680	-0.420	0.450	0.720
2020/01/31 19:21:28.3	6.670	-0.430	0.400	0.690
2020/01/31 19:21:28.4	6.670	-0.430	0.340	0.660
2020/01/31 19:21:28.5	6.660	-0.430	0.280	0.620
2020/01/31 19:21:28.6	6.660	-0.430	0.230	0.590
2020/01/31 19:21:28.7	6.650	-0.420	0.170	0.550
2020/01/31 19:21:28.8	6.650	-0.420	0.120	0.510
2020/01/31 19:21:28.9	6.650	-0.410	0.070	0.480
2020/01/31 19:21:29.0	6.650	-0.390	0.020	0.440
2020/01/31 19:21:29.1	6.650	-0.380	-0.030	0.400
2020/01/31 19:21:29.2	6.650	-0.360	-0.070	0.370
2020/01/31 19:21:29.3	6.660	-0.340	-0.110	0.330
2020/01/31 19:21:29.4	6.660	-0.320	-0.140	0.300
2020/01/31 19:21:29.5	6.660	-0.300	-0.170	0.270
2020/01/31 19:21:29.6	6.670	-0.280	-0.190	0.240
2020/01/31 19:21:29.7	6.670	-0.250	-0.200	0.210
2020/01/31 19:21:29.8	6.680	-0.230	-0.220	0.180
2020/01/31 19:21:29.9	6.660	-0.200	-0.220	0.150
2020/01/31 19:21:30.0	6.670	-0.180	-0.230	0.130
2020/01/31 19:21:30.1	6.670	-0.150	-0.220	0.120
2020/01/31 19:21:30.2	6.680	-0.120	-0.220	0.100
2020/01/31 19:21:30.3	6.680	-0.100	-0.210	0.090
2020/01/31 19:21:30.4	6.690	-0.070	-0.190	0.080
2020/01/31 19:21:30.5	6.690	-0.040	-0.170	0.080
2020/01/31 19:21:30.6	6.700	-0.020	-0.150	0.070
2020/01/31 19:21:30.7	6.700	0.010	-0.130	0.070
2020/01/31 19:21:30.8	6.700	0.030	-0.110	0.080
2020/01/31 19:21:30.9	6.700	0.060	-0.080	0.080
2020/01/31 19:21:31.0	6.700	0.080	-0.060	0.090
2020/01/31 19:21:31.1	6.710	0.100	-0.030	0.100
2020/01/31 19:21:31.2	6.710	0.120	-0.010	0.110
2020/01/31 19:21:31.3	6.710	0.140	0.010	0.120
2020/01/31 19:21:31.4	6.710	0.160	0.030	0.140
2020/01/31 19:21:31.5	6.710	0.170	0.050	0.150
2020/01/31 19:21:31.6	6.710	0.190	0.060	0.170
2020/01/31 19:21:31.7	6.710	0.200	0.070	0.180
2020/01/31 19:21:31.8	6.710	0.210	0.070	0.200
2020/01/31 19:21:31.9	6.720	0.210	0.070	0.220
2020/01/31 19:21:32.0	6.720	0.220	0.070	0.230
2020/01/31 19:21:32.1	6.720	0.220	0.060	0.240
2020/01/31 19:21:32.2	6.720	0.220	0.050	0.260
2020/01/31 19:21:32.3	6.730	0.220	0.030	0.270
2020/01/31 19:21:32.4	6.740	0.210	0.010	0.280
2020/01/31 19:21:32.5	6.740	0.210	-0.020	0.280
2020/01/31 19:21:32.6	6.750	0.200	-0.050	0.290
2020/01/31 19:21:32.7	6.760	0.180	-0.080	0.300
2020/01/31 19:21:32.8	6.770	0.170	-0.120	0.300
2020/01/31 19:21:32.9	6.800	0.150	-0.160	0.290
2020/01/31 19:21:33.0	6.810	0.140	-0.210	0.290
2020/01/31 19:21:33.1	6.830	0.120	-0.250	0.290
2020/01/31 19:21:33.2	6.840	0.100	-0.310	0.280
2020/01/31 19:21:33.3	6.860	0.070	-0.360	0.270
2020/01/31 19:21:33.4	6.880	0.050	-0.410	0.260
2020/01/31 19:21:33.5	6.910	0.030	-0.460	0.250
2020/01/31 19:21:33.6	6.930	-0.000	-0.520	0.230
2020/01/31 19:21:33.7	6.950	-0.030	-0.570	0.210
2020/01/31 19:21:33.8	6.980	-0.060	-0.620	0.190
2020/01/31 19:21:33.9	6.980	-0.080	-0.670	0.160
2020/01/31 19:21:34.0	7.010	-0.110	-0.710	0.140
2020/01/31 19:21:34.1	7.040	-0.140	-0.760	0.110
2020/01/31 19:21:34.2	7.060	-0.170	-0.800	0.080
2020/01/31 19:21:34.3	7.090	-0.200	-0.830	0.050
2020/01/31 19:21:34.4	7.120	-0.230	-0.860	0.010
2020/01/31 19:21:34.5	7.140	-0.260	-0.890	-0.020
2020/01/31 19:21:34.6	7.170	-0.290	-0.900	-0.050
2020/01/31 19:21:34.7	7.190	-0.320	-0.920	-0.090
2020/01/31 19:21:34.8	7.220	-0.350	-0.920	-0.120
2020/01/31 19:21:34.9	7.230	-0.370	-0.920	-0.160
2020/01/31 19:21:35.0	7.250	-0.400	-0.910	-0.190
2020/01/31 19:21:35.1	7.260	-0.420	-0.900	-0.220
2020/01/31 19:21:35.2	7.270	-0.440	-0.880	-0.250
2020/01/31 19:21:35.3	7.280	-0.460	-0.840	-0.270
2020/01/31 19:21:35.4	7.290	-0.480	-0.810	-0.290
2020/01/31 19:21:35.5	7.290	-0.500	-0.760	-0.310
2020/01/31 19:21:35.6	7.280	-0.520	-0.710	-0.320
2020/01/31 19:21:35.7	7.280	-0.530	-0.650	-0.330
2020/01/31 19:21:35.8	7.260	-0.540	-0.580	-0.340
2020/01/31 19:21:35.9	7.250	-0.550	-0.510	-0.340
2020/01/31 19:21:36.0	7.230	-0.550	-0.430	-0.330
2020/01/31 19:21:36.1	7.200	-0.560	-0.350	-0.310
2020/01/31 19:21:36.2	7.170	-0.560	-0.270	-0.300
2020/01/31 19:21:36.3	7.140	-0.550	-0.180	-0.270
2020/01/31 19:21:36.4	7.100	-0.550	-0.090	-0.240
2020/01/31 19:21:36.5	7.060	-0.540	0.000	-0.210
2020/01/31 19:21:36.6	7.020	-0.520	0.100	-0.170
2020/01/31 19:21:36.7	6.970	-0.510	0.190	-0.130
2020/01/31 19:21:36.8	6.920	-0.490	0.270	-0.090
2020/01/31 19:21:36.9	6.890	-0.460	0.360	-0.040
2020/01/31 19:21:37.0	6.840	-0.430	0.440	0.020
2020/01/31 19:21:37.1	6.780	-0.400	0.510	0.070
2020/01/31 19:21:37.2	6.730	-0.370	0.580	0.130
2020/01/31 19:21:37.3	6.680	-0.330	0.640	0.180
2020/01/31 19:21:37.4	6.630	-0.290	0.700	0.240
2020/01/31 19:21:37.5	6.570	-0.240	0.750	0.300
2020/01/31 19:21:37.6	6.520	-0.200	0.780	0.360
2020/01/31 19:21:37.7	6.480	-0.140	0.810	0.420
2020/01/31 19:21:37.8	6.430	-0.090	0.820	0.480
2020/01/31 19:21:37.9	6.390	-0.030	0.830	0.540
2020/01/31 19:21:38.0	6.350	0.030	0.820	0.600
2020/01/31 19:21:38.1	6.310	0.090	0.810	0.650
2020/01/31 19:21:38.2	6.280	0.160	0.770	0.700
2020/01/31 19:21:38.3	6.250	0.220	0.730	0.750
2020/01/31 19:21:38.4	6.220	0.290	0.680	0.790
2020/01/31 19:21:38.5	6.200	0.360	0.620	0.830
2020/01/31 19:21:38.6	6.180	0.430	0.540	0.860
2020/01/31 19:21:38.7	6.170	0.500	0.460	0.890
2020/01/31 19:21:38.8	6.160	0.560	0.360	0.910
2020/01/31 19:21:38.9	6.160	0.630	0.260	0.920
2020/01/31 19:21:39.0	6.160	0.700	0.150	0.930
2020/01/31 19:21:39.1	6.170	0.760	0.030	0.940
2020/01/31 19:21:39.2	6.180	0.820	-0.090	0.940
2020/01/31 19:21:39.3	6.190	0.880	-0.220	0.930
2020/01/31 19:21:39.4	6.210	0.930	-0.340	0.920
2020/01/31 19:21:39.5	6.240	0.980	-0.470	0.900
2020/01/31 19:21:39.6	6.260	1.030	-0.600	0.870
2020/01/31 19:21:39.7	6.300	1.070	-0.730	0.840
2020/01/31 19:21:39.8	6.330	1.100	-0.850	0.810
2020/01/31 19:21:39.9	6.360	1.130	-0.970	0.770
2020/01/31 19:21:40.0	6.400	1.150	-1.090	0.720
2020/01/31 19:21:40.1	6.440	1.170	-1.190	0.680
2020/01/31 19:21:40.2	6.480	1.180	-1.290	0.630
2020/01/31 19:21:40.3	6.530	1.180	-1.380	0.580
2020/01/31 19:21:40.4	6.570	1.180	-1.460	0.520
2020/01/31 19:21:40.5	6.620	1.170	-1.520	0.470
2020/01/31 19:21:40.6	6.660	1.150	-1.570	0.410
2020/01/31 19:21:40.7	6.710	1.130	-1.620	0.350
2020/01/31 19:21:40.8	6.750	1.090	-1.640	0.290
2020/01/31 19:21:40.9	6.790	1.050	-1.650	0.230
2020/01/31 19:21:41.0	6.830	1.010	-1.650	0.170
2020/01/31 19:21:41.1	6.870	0.960	-1.640	0.120
2020/01/31 19:21:41.2	6.910	0.900	-1.610	0.060
2020/01/31 19:21:41.3	6.950	0.830	-1.570	0.010
2020/01/31 19:21:41.4	6.980	0.760	-1.520	-0.050
2020/01/31 19:21:41.5	7.020	0.690	-1.450	-0.100
2020/01/31 19:21:41.6	7.050	0.610	-1.370	-0.140
2020/01/31 19:21:41.7	7.080	0.530	-1.290	-0.190
2020/01/31 19:21:41.8	7.100	0.440	-1.190	-0.230
2020/01/31 19:21:41.9	7.110	0.350	-1.080	-0.280
2020/01/31 19:21:42.0	7.130	0.260	-0.960	-0.310
2020/01/31 19:21:42.1	7.150	0.170	-0.840	-0.350
2020/01/31 19:21:42.2	7.160	0.070	-0.710	-0.380
2020/01/31 19:21:42.3	7.170	-0.020	-0.580	-0.410
2020/01/31 19:21:42.4	7.180	-0.120	-0.440	-0.440
2020/01/31 19:21:42.5	7.180	-0.210	-0.300	-0.460
2020/01/31 19:21:42.6	7.180	-0.310	-0.160	-0.480
2020/01/31 19:21:42.7	7.170	-0.400	-0.020	-0.500
2020/01/31 19:21:42.8	7.160	-0.490	0.120	-0.520
2020/01/31 19:21:42.9	7.150	-0.570	0.250	-0.530
2020/01/31 19:21:43.0	7.130	-0.660	0.380	-0.550
2020/01/31 19:21:43.1	7.120	-0.740	0.510	-0.560
2020/01/31 19:21:43.2	7.090	-0.810	0.630	-0.570
2020/01/31 19:21:43.3	7.070	-0.880	0.740	-0.580
2020/01/31 19:21:43.4	7.050	-0.950	0.840	-0.590
2020/01/31 19:21:43.5	7.020	-1.010	0.930	-0.600
2020/01/31 19:21:43.6	6.990	-1.060	1.020	-0.610
2020/01/31 19:21:43.7	6.960	-1.110	1.090	-0.610
2020/01/31 19:21:43.8	6.930	-1.150	1.160	-0.620
2020/01/31 19:21:43.9	6.890	-1.180	1.210	-0.620
2020/01/31 19:21:44.0	6.850	-1.200	1.250	-0.620
2020/01/31 19:21:44.1	6.820	-1.220	1.280	-0.620
2020/01/31 19:21:44.2	6.790	-1.230	1.300	-0.620
2020/01/31 19:21:44.3	6.750	-1.240	1.300	-0.620
2020/01/31 19:21:44.4	6.720	-1.230	1.300	-0.610
2020/01/31 19:21:44.5	6.680	-1.220	1.290	-0.600
2020/01/31 19:21:44.6	6.650	-1.200	1.260	-0.590
2020/01/31 19:21:44.7	6.620	-1.180	1.230	-0.570
2020/01/31 19:21:44.8	6.580	-1.140	1.180	-0.560
2020/01/31 19:21:44.9	6.570	-1.100	1.130	-0.540
2020/01/31 19:21:45.0	6.540	-1.060	1.070	-0.510
2020/01/31 19:21:45.1	6.510	-1.000	1.000	-0.490
2020/01/31 19:21:45.2	6.490	-0.950	0.930	-0.460
2020/01/31 19:21:45.3	6.460	-0.880	0.850	-0.430
2020/01/31 19:21:45.4	6.430	-0.820	0.770	-0.400
2020/01/31 19:21:45.5	6.410	-0.740	0.680	-0.370
2020/01/31 19:21:45.6	6.390	-0.670	0.590	-0.330
2020/01/31 19:21:45.7	6.370	-0.590	0.500	-0.290
2020/01/31 19:21:45.8	6.360	-0.510	0.410	-0.250
2020/01/31 19:21:45.9	6.330	-0.430	0.320	-0.220
2020/01/31 19:21:46.0	6.320	-0.340	0.230	-0.180
2020/01/31 19:21:46.1	6.310	-0.260	0.140	-0.140
2020/01/31 19:21:46.2	6.300	-0.170	0.060	-0.090
2020/01/31 19:21:46.3	6.300	-0.090	-0.030	-0.050
2020/01/31 19:21:46.4	6.300	-0.000	-0.110	-0.000
2020/01/31 19:21:46.5	6.290	0.080	-0.180	0.040
2020/01/31 19:21:46.6	6.290	0.160	-0.250	0.090
2020/01/31 19:21:46.7	6.300	0.230	-0.320	0.140
2020/01/31 19:21:46.8	6.300	0.310	-0.370	0.190
2020/01/31 19:21:46.9	6.300	0.380	-0.430	0.240
2020/01/31 19:21:47.0	6.310	0.440	-0.480	0.290
2020/01/31 19:21:47.1	6.310	0.500	-0.520	0.340
2020/01/31 19:21:47.2	6.320	0.560	-0.550	0.400
2020/01/31 19:21:47.3	6.330	0.610	-0.580	0.450
2020/01/31 19:21:47.4	6.340	0.650	-0.600	0.510
2020/01/31 19:21:47.5	6.340	0.690	-0.620	0.570
2020/01/31 19:21:47.6	6.350	0.730	-0.630	0.630
2020/01/31 19:21:47.7	6.360	0.750	-0.630	0.690
2020/01/31 19:21:47.8	6.370	0.770	-0.640	0.750
2020/01/31 19:21:47.9	6.360	0.790	-0.640	0.810
2020/01/31 19:21:48.0	6.370	0.800	-0.630	0.870
2020/01/31 19:21:48.1	6.380	0.800	-0.620	0.930
2020/01/31 19:21:48.2	6.390	0.800	-0.610	0.990
2020/01/31 19:21:48.3	6.400	0.790	-0.600	1.050
2020/01/31 19:21:48.4	6.400	0.770	-0.590	1.110
2020/01/31 19:21:48.5	6.410	0.750	-0.570	1.160
2020/01/31 19:21:48.6	6.420	0.730	-0.550	1.210
2020/01/31 19:21:48.7	6.420	0.700	-0.540	1.260
2020/01/31 19:21:48.8	6.430	0.660	-0.520	1.310
2020/01/31 19:21:48.9	6.430	0.620	-0.510	1.350
2020/01/31 19:21:49.0	6.430	0.580	-0.500	1.390
2020/01/31 19:21:49.1	6.440	0.530	-0.480	1.420
2020/01/31 19:21:49.2	6.440	0.480	-0.470	1.450
2020/01/31 19:21:49.3	6.440	0.430	-0.460	1.470
2020/01/31 19:21:49.4	6.450	0.370	-0.450	1.490
2020/01/31 19:21:49.5	6.450	0.310	-0.450	1.500
2020/01/31 19:21:49.6	6.450	0.250	-0.440	1.510
2020/01/31 19:21:49.7	6.450	0.190	-0.440	1.510
2020/01/31 19:21:49.8	6.450	0.130	-0.430	1.500
2020/01/31 19:21:49.9	6.440	0.070	-0.430	1.480
2020/01/31 19:21:50.0	6.440	0.010	-0.440	1.460
2020/01/31 19:21:50.1	6.440	-0.040	-0.440	1.430
2020/01/31 19:21:50.2	6.440	-0.100	-0.440	1.400
2020/01/31 19:21:50.3	6.430	-0.160	-0.450	1.360
2020/01/31 19:21:50.4	6.430	-0.210	-0.460	1.320
2020/01/31 19:21:50.5	6.430	-0.260	-0.460	1.270
2020/01/31 19:21:50.6	6.430	-0.310	-0.470	1.220
2020/01/31 19:21:50.7	6.430	-0.350	-0.480	1.160
2020/01/31 19:21:50.8	6.420	-0.390	-0.490	1.100
2020/01/31 19:21:50.9	6.420	-0.430	-0.500	1.030
2020/01/31 19:21:51.0	6.420	-0.460	-0.510	0.960
2020/01/31 19:21:51.1	6.420	-0.490	-0.510	0.890
2020/01/31 19:21:51.2	6.420	-0.520	-0.520	0.820
2020/01/31 19:21:51.3	6.420	-0.540	-0.530	0.740
2020/01/31 19:21:51.4	6.420	-0.550	-0.530	0.660
2020/01/31 19:21:51.5	6.420	-0.560	-0.540	0.580
2020/01/31 19:21:51.6	6.420	-0.560	-0.540	0.500
2020/01/31 19:21:51.7	6.420	-0.560	-0.540	0.420
2020/01/31 19:21:51.8	6.430	-0.560	-0.540	0.340
2020/01/31 19:21:51.9	6.430	-0.550	-0.550	0.250
2020/01/31 19:21:52.0	6.430	-0.530	-0.540	0.170
2020/01/31 19:21:52.1	6.440	-0.510	-0.540	0.100
2020/01/31 19:21:52.2	6.450	-0.490	-0.540	0.020
2020/01/31 19:21:52.3	6.450	-0.460	-0.530	-0.050
2020/01/31 19:21:52.4	6.460	-0.430	-0.530	-0.130
2020/01/31 19:21:52.5	6.470	-0.400	-0.520	-0.190
2020/01/31 19:21:52.6	6.480	-0.360	-0.520	-0.260
2020/01/31 19:21:52.7	6.500	-0.320	-0.510	-0.320
2020/01/31 19:21:52.8	6.510	-0.280	-0.500	-0.380
2020/01/31 19:21:52.9	6.520	-0.230	-0.480	-0.440
2020/01/31 19:21:53.0	6.530	-0.190	-0.470	-0.490
2020/01/31 19:21:53.1	6.550	-0.140	-0.460	-0.540
2020/01/31 19:21:53.2	6.560	-0.090	-0.440	-0.590
2020/01/31 19:21:53.3	6.570	-0.050	-0.420	-0.630
2020/01/31 19:21:53.4	6.590	0.000	-0.410	-0.660
2020/01/31 19:21:53.5	6.600	0.050	-0.390	-0.700
2020/01/31 19:21:53.6	6.610	0.090	-0.360	-0.720
2020/01/31 19:21:53.7	6.630	0.140	-0.340	-0.750
2020/01/31 19:21:53.8	6.640	0.180	-0.320	-0.760
2020/01/31 19:21:53.9	6.650	0.220	-0.290	-0.780
2020/01/31 19:21:54.0	6.660	0.260	-0.260	-0.780
2020/01/31 19:21:54.1	6.670	0.300	-0.230	-0.790
2020/01/31 19:21:54.2	6.670	0.330	-0.200	-0.780
2020/01/31 19:21:54.3	6.670	0.360	-0.170	-0.780
2020/01/31 19:21:54.4	6.680	0.390	-0.130	-0.760
2020/01/31 19:21:54.5	6.680	0.420	-0.100	-0.740
2020/01/31 19:21:54.6	6.670	0.440	-0.060	-0.720
2020/01/31 19:21:54.7	6.670	0.460	-0.020	-0.690
2020/01/31 19:21:54.8	6.660	0.470	0.020	-0.660
2020/01/31 19:21:54.9	6.650	0.480	0.060	-0.620
2020/01/31 19:21:55.0	6.640	0.490	0.100	-0.580
2020/01/31 19:21:55.1	6.630	0.500	0.140	-0.540
2020/01/31 19:21:55.2	6.610	0.510	0.170	-0.490
2020/01/31 19:21:55.3	6.600	0.510	0.210	-0.440
2020/01/31 19:21:55.4	6.580	0.500	0.250	-0.390
2020/01/31 19:21:55.5	6.570	0.500	0.280	-0.340
2020/01/31 19:21:55.6	6.550	0.500	0.310	-0.290
2020/01/31 19:21:55.7	6.530	0.490	0.340	-0.230
2020/01/31 19:21:55.8	6.520	0.480	0.360	-0.180
2020/01/31 19:21:55.9	6.510	0.470	0.370	-0.120
2020/01/31 19:21:56.0	6.490	0.450	0.390	-0.060
2020/01/31 19:21:56.1	6.480	0.440	0.390	-0.010
2020/01/31 19:21:56.2	6.460	0.430	0.390	0.040
2020/01/31 19:21:56.3	6.450	0.410	0.390	0.090
2020/01/31 19:21:56.4	6.440	0.390	0.380	0.140
2020/01/31 19:21:56.5	6.430	0.380	0.360	0.190
2020/01/31 19:21:56.6	6.430	0.360	0.340	0.230
2020/01/31 19:21:56.7	6.420	0.340	0.310	0.270
2020/01/31 19:21:56.8	6.420	0.330	0.280	0.310
2020/01/31 19:21:56.9	6.430	0.310	0.240	0.340
2020/01/31 19:21:57.0	6.430	0.290	0.200	0.370
2020/01/31 19:21:57.1	6.430	0.280	0.150	0.400
2020/01/31 19:21:57.2	6.440	0.260	0.090	0.420
2020/01/31 19:21:57.3	6.450	0.240	0.040	0.440
2020/01/31 19:21:57.4	6.460	0.230	-0.020	0.460
2020/01/31 19:21:57.5	6.470	0.210	-0.080	0.470
2020/01/31 19:21:57.6	6.490	0.190	-0.140	0.480
2020/01/31 19:21:57.7	6.500	0.180	-0.210	0.490
2020/01/31 19:21:57.8	6.520	0.160	-0.270	0.490
2020/01/31 19:21:57.9	6.540	0.150	-0.330	0.490
2020/01/31 19:21:58.0	6.560	0.130	-0.390	0.490
2020/01/31 19:21:58.1	6.580	0.120	-0.440	0.490
2020/01/31 19:21:58.2	6.600	0.100	-0.490	0.480
2020/01/31 19:21:58.3	6.620	0.080	-0.540	0.470
2020/01/31 19:21:58.4	6.650	0.070	-0.580	0.460
2020/01/31 19:21:58.5	6.670	0.050	-0.620	0.450
2020/01/31 19:21:58.6	6.690	0.030	-0.650	0.440
2020/01/31 19:21:58.7	6.710	0.020	-0.670	0.430
2020/01/31 19:21:58.8	6.730	-0.000	-0.690	0.410
2020/01/31 19:21:58.9	6.750	-0.020	-0.700	0.400
2020/01/31 19:21:59.0	6.770	-0.040	-0.700	0.380
2020/01/31 19:21:59.1	6.790	-0.060	-0.700	0.370
2020/01/31 19:21:59.2	6.800	-0.070	-0.680	0.350
2020/01/31 19:21:59.3	6.820	-0.090	-0.670	0.340
2020/01/31 19:21:59.4	6.830	-0.110	-0.640	0.320
2020/01/31 19:21:59.5	6.840	-0.130	-0.610	0.310
2020/01/31 19:21:59.6	6.850	-0.150	-0.570	0.300
2020/01/31 19:21:59.7	6.860	-0.160	-0.520	0.290
2020/01/31 19:21:59.8	6.860	-0.180	-0.470	0.280
2020/01/31 19:21:59.9	6.850	-0.200	-0.420	0.270
2020/01/31 19:22:00.0	6.850	-0.210	-0.360	0.270
2020/01/31 19:22:00.1	6.850	-0.230	-0.290	0.270
2020/01/31 19:22:00.2	6.840	-0.240	-0.230	0.270
2020/01/31 19:22:00.3	6.840	-0.250	-0.160	0.270
2020/01/31 19:22:00.4	6.820	-0.270	-0.090	0.280
2020/01/31 19:22:00.5	6.810	-0.280	-0.010	0.290
2020/01/31 19:22:00.6	6.800	-0.280	0.060	0.310
2020/01/31 19:22:00.7	6.780	-0.290	0.130	0.320
2020/01/31 19:22:00.8	6.760	-0.300	0.200	0.340
2020/01/31 19:22:00.9	6.740	-0.300	0.260	0.360
2020/01/31 19:22:01.0	6.720	-0.300	0.330	0.380
2020/01/31 19:22:01.1	6.690	-0.300	0.390	0.410
2020/01/31 19:22:01.2	6.660	-0.300	0.450	0.440
2020/01/31 19:22:01.3	6.630	-0.290	0.500	0.470
2020/01/31 19:22:01.4	6.600	-0.290	0.550	0.500
2020/01/31 19:22:01.5	6.570	-0.280	0.590	0.530
2020/01/31 19:22:01.6	6.540	-0.270	0.620	0.560
2020/01/31 19:22:01.7	6.510	-0.260	0.650	0.590
2020/01/31 19:22:01.8	6.480	-0.240	0.670	0.630
2020/01/31 19:22:01.9	6.440	-0.230	0.680	0.660
2020/01/31 19:22:02.0	6.410	-0.210	0.680	0.700
2020/01/31 19:22:02.1	6.390	-0.190	0.680	0.730
2020/01/31 19:22:02.2	6.360	-0.170	0.670	0.760
2020/01/31 19:22:02.3	6.330	-0.150	0.650	0.790
2020/01/31 19:22:02.4	6.310	-0.130	0.620	0.820
2020/01/31 19:22:02.5	6.290	-0.100	0.580	0.840
2020/01/31 19:22:02.6	6.270	-0.080	0.530	0.870
2020/01/31 19:22:02.7	6.250	-0.060	0.480	0.890
2020/01/31 19:22:02.8	6.240	-0.030	0.420	0.900
2020/01/31 19:22:02.9	6.240	-0.010	0.350	0.920
2020/01/31 19:22:03.0	6.230	0.020	0.280	0.930
2020/01/31 19:22:03.1	6.230	0.040	0.200	0.930
2020/01/31 19:22:03.2	6.230	0.070	0.120	0.940
2020/01/31 19:22:03.3	6.230	0.090	0.040	0.940
2020/01/31 19:22:03.4	6.240	0.110	-0.050	0.930
2020/01/31 19:22:03.5	6.250	0.130	-0.140	0.920
2020/01/31 19:22:03.6	6.260	0.150	-0.230	0.910
2020/01/31 19:22:03.7	6.270	0.170	-0.320	0.890
2020/01/31 19:22:03.8	6.280	0.180	-0.420	0.880
2020/01/31 19:22:03.9	6.300	0.200	-0.500	0.850
2020/01/31 19:22:04.0	6.320	0.210	-0.590	0.830
2020/01/31 19:22:04.1	6.340	0.220	-0.680	0.800
2020/01/31 19:22:04.2	6.360	0.230	-0.750	0.770
2020/01/31 19:22:04.3	6.390	0.240	-0.830	0.730
2020/01/31 19:22:04.4	6.410	0.240	-0.900	0.700
2020/01/31 19:22:04.5	6.440	0.250	-0.960	0.660
2020/01/31 19:22:04.6	6.470	0.250	-1.020	0.620
2020/01/31 19:22:04.7	6.490	0.250	-1.070	0.580
2020/01/31 19:22:04.8	6.520	0.240	-1.110	0.530
2020/01/31 19:22:04.9	6.560	0.240	-1.150	0.490
2020/01/31 19:22:05.0	6.590	0.230	-1.170	0.440
2020/01/31 19:22:05.1	6.620	0.220	-1.190	0.390
2020/01/31 19:22:05.2	6.660	0.210	-1.210	0.340
2020/01/31 19:22:05.3	6.690	0.200	-1.210	0.290
2020/01/31 19:22:05.4	6.720	0.190	-1.210	0.240
2020/01/31 19:22:05.5	6.760	0.180	-1.200	0.190
2020/01/31 19:22:05.6	6.790	0.160	-1.190	0.130
2020/01/31 19:22:05.7	6.830	0.140	-1.160	0.080
2020/01/31 19:22:05.8	6.860	0.120	-1.130	0.030
2020/01/31 19:22:05.9	6.900	0.100	-1.100	-0.020
2020/01/31 19:22:06.0	6.930	0.080	-1.060	-0.070
2020/01/31 19:22:06.1	6.960	0.060	-1.020	-0.120
2020/01/31 19:22:06.2	6.990	0.040	-0.970	-0.170
2020/01/31 19:22:06.3	7.020	0.020	-0.920	-0.220
2020/01/31 19:22:06.4	7.050	-0.010	-0.860	-0.260
2020/01/31 19:22:06.5	7.070	-0.030	-0.800	-0.300
2020/01/31 19:22:06.6	7.090	-0.060	-0.740	-0.330
2020/01/31 19:22:06.7	7.110	-0.080	-0.670	-0.370
2020/01/31 19:22:06.8	7.130	-0.110	-0.600	-0.400
2020/01/31 19:22:06.9	7.130	-0.140	-0.540	-0.420
2020/01/31 19:22:07.0	7.130	-0.160	-0.470	-0.440
2020/01/31 19:22:07.1	7.140	-0.190	-0.400	-0.460
2020/01/31 19:22:07.2	7.140	-0.220	-0.330	-0.470
2020/01/31 19:22:07.3	7.130	-0.250	-0.250	-0.480
2020/01/31 19:22:07.4	7.120	-0.270	-0.180	-0.490
2020/01/31 19:22:07.5	7.110	-0.300	-0.110	-0.490
2020/01/31 19:22:07.6	7.090	-0.330	-0.040	-0.480
2020/01/31 19:22:07.7	7.070	-0.350	0.030	-0.480
2020/01/31 19:22:07.8	7.040	-0.370	0.100	-0.470
2020/01/31 19:22:07.9	7.010	-0.400	0.160	-0.450
2020/01/31 19:22:08.0	6.980	-0.420	0.220	-0.430
2020/01/31 19:22:08.1	6.940	-0.440	0.290	-0.410
2020/01/31 19:22:08.2	6.900	-0.460	0.340	-0.390
2020/01/31 19:22:08.3	6.850	-0.470	0.400	-0.360
2020/01/31 19:22:08.4	6.810	-0.480	0.450	-0.330
2020/01/31 19:22:08.5	6.760	-0.500	0.500	-0.300
2020/01/31 19:22:08.6	6.710	-0.500	0.550	-0.260
2020/01/31 19:22:08.7	6.660	-0.510	0.590	-0.230
2020/01/31 19:22:08.8	6.600	-0.510	0.620	-0.190
2020/01/31 19:22:08.9	6.560	-0.510	0.660	-0.150
2020/01/31 19:22:09.0	6.510	-0.500	0.680	-0.110
2020/01/31 19:22:09.1	6.450	-0.490	0.710	-0.070
2020/01/31 19:22:09.2	6.400	-0.480	0.720	-0.030
2020/01/31 19:22:09.3	6.350	-0.460	0.730	0.020
2020/01/31 19:22:09.4	6.290	-0.440	0.730	0.060
2020/01/31 19:22:09.5	6.240	-0.420	0.730	0.100
2020/01/31 19:22:09.6	6.200	-0.390	0.720	0.140
2020/01/31 19:22:09.7	6.150	-0.350	0.710	0.180
2020/01/31 19:22:09.8	6.110	-0.320	0.680	0.220
2020/01/31 19:22:09.9	6.070	-0.280	0.650	0.260
2020/01/31 19:22:10.0	6.030	-0.230	0.610	0.300
2020/01/31 19:22:10.1	6.000	-0.180	0.570	0.330
2020/01/31 19:22:10.2	5.970	-0.130	0.520	0.360
2020/01/31 19:22:10.3	5.940	-0.080	0.460	0.390
2020/01/31 19:22:10.4	5.920	-0.020	0.390	0.420
2020/01/31 19:22:10.5	5.910	0.040	0.330	0.440
2020/01/31 19:22:10.6	5.890	0.100	0.250	0.460
2020/01/31 19:22:10.7	5.890	0.160	0.170	0.480
2020/01/31 19:22:10.8	5.880	0.220	0.090	0.490
2020/01/31 19:22:10.9	5.890	0.280	0.010	0.500
2020/01/31 19:22:11.0	5.890	0.350	-0.080	0.510
2020/01/31 19:22:11.1	5.900	0.410	-0.180	0.510
2020/01/31 19:22:11.2	5.920	0.460	-0.270	0.510
2020/01/31 19:22:11.3	5.930	0.520	-0.360	0.500
2020/01/31 19:22:11.4	5.960	0.580	-0.450	0.490
2020/01/31 19:22:11.5	5.980	0.630	-0.550	0.480
2020/01/31 19:22:11.6	6.010	0.680	-0.640	0.470
2020/01/31 19:22:11.7	6.040	0.720	-0.720	0.450
2020/01/31 19:22:11.8	6.070	0.760	-0.800	0.430
2020/01/31 19:22:11.9	6.100	0.800	-0.880	0.400
2020/01/31 19:22:12.0	6.140	0.830	-0.950	0.380
2020/01/31 19:22:12.1	6.180	0.860	-1.020	0.350
2020/01/31 19:22:12.2	6.220	0.880	-1.080	0.330
2020/01/31 19:22:12.3	6.260	0.900	-1.130	0.300
2020/01/31 19:22:12.4	6.300	0.910	-1.170	0.280
2020/01/31 19:22:12.5	6.350	0.920	-1.200	0.250
2020/01/31 19:22:12.6	6.390	0.920	-1.220	0.220
2020/01/31 19:22:12.7	6.430	0.910	-1.240	0.200
2020/01/31 19:22:12.8	6.470	0.910	-1.240	0.180
2020/01/31 19:22:12.9	6.510	0.890	-1.240	0.160
2020/01/31 19:22:13.0	6.550	0.870	-1.220	0.140
2020/01/31 19:22:13.1	6.590	0.850	-1.190	0.130
2020/01/31 19:22:13.2	6.620	0.820	-1.150	0.120
2020/01/31 19:22:13.3	6.650	0.780	-1.100	0.110
2020/01/31 19:22:13.4	6.680	0.740	-1.040	0.100
2020/01/31 19:22:13.5	6.700	0.700	-0.980	0.100
2020/01/31 19:22:13.6	6.720	0.660	-0.900	0.110
2020/01/31 19:22:13.7	6.740	0.610	-0.820	0.120
2020/01/31 19:22:13.8	6.760	0.550	-0.720	0.130
2020/01/31 19:22:13.9	6.750	0.500	-0.630	0.150
2020/01/31 19:22:14.0	6.760	0.440	-0.520	0.160
2020/01/31 19:22:14.1	6.770	0.380	-0.410	0.190
2020/01/31 19:22:14.2	6.760	0.320	-0.300	0.210
2020/01/31 19:22:14.3	6.760	0.260	-0.190	0.240
2020/01/31 19:22:14.4	6.750	0.200	-0.070	0.270
2020/01/31 19:22:14.5	6.740	0.140	0.050	0.300
2020/01/31 19:22:14.6	6.730	0.080	0.160	0.340
2020/01/31 19:22:14.7	6.710	0.010	0.270	0.370
2020/01/31 19:22:14.8	6.700	-0.050	0.380	0.410
2020/01/31 19:22:14.9	6.670	-0.110	0.490	0.450
2020/01/31 19:22:15.0	6.650	-0.170	0.590	0.480
2020/01/31 19:22:15.1	6.620	-0.230	0.680	0.520
2020/01/31 19:22:15.2	6.600	-0.280	0.770	0.550
2020/01/31 19:22:15.3	6.570	-0.340	0.850	0.580
2020/01/31 19:22:15.4	6.550	-0.390	0.920	0.610
2020/01/31 19:22:15.5	6.520	-0.440	0.980	0.640
2020/01/31 19:22:15.6	6.490	-0.490	1.030	0.660
2020/01/31 19:22:15.7	6.470	-0.540	1.060	0.680
2020/01/31 19:22:15.8	6.440	-0.580	1.090	0.690
2020/01/31 19:22:15.9	6.430	-0.620	1.100	0.700
2020/01/31 19:22:16.0	6.410	-0.660	1.100	0.710
2020/01/31 19:22:16.1	6.380	-0.700	1.090	0.710
2020/01/31 19:22:16.2	6.360	-0.730	1.070	0.700
2020/01/31 19:22:16.3	6.340	-0.760	1.040	0.690
2020/01/31 19:22:16.4	6.320	-0.780	0.990	0.670
2020/01/31 19:22:16.5	6.300	-0.800	0.940	0.650
2020/01/31 19:22:16.6	6.280	-0.820	0.870	0.620
2020/01/31 19:22:16.7	6.270	-0.840	0.800	0.590
2020/01/31 19:22:16.8	6.260	-0.850	0.720	0.550
2020/01/31 19:22:16.9	6.250	-0.860	0.630	0.510
2020/01/31 19:22:17.0	6.250	-0.860	0.530	0.470
2020/01/31 19:22:17.1	6.240	-0.860	0.430	0.420
2020/01/31 19:22:17.2	6.240	-0.850	0.320	0.360
2020/01/31 19:22:17.3	6.240	-0.850	0.200	0.310
2020/01/31 19:22:17.4	6.250	-0.830	0.090	0.250
2020/01/31 19:22:17.5	6.250	-0.820	-0.030	0.190
2020/01/31 19:22:17.6	6.260	-0.800	-0.140	0.130
2020/01/31 19:22:17.7	6.280	-0.780	-0.260	0.060
2020/01/31 19:22:17.8	6.290	-0.750	-0.370	-0.000
2020/01/31 19:22:17.9	6.310	-0.720	-0.480	-0.080
2020/01/31 19:22:18.0	6.330	-0.690	-0.590	-0.140
2020/01/31 19:22:18.1	6.360	-0.650	-0.700	-0.210
2020/01/31 19:22:18.2	6.380	-0.610	-0.800	-0.280
2020/01/31 19:22:18.3	6.410	-0.570	-0.900	-0.340
2020/01/31 19:22:18.4	6.440	-0.530	-0.990	-0.410
2020/01/31 19:22:18.5	6.470	-0.480	-1.070	-0.470
2020/01/31 19:22:18.6	6.500	-0.430	-1.140	-0.530
2020/01/31 19:22:18.7	6.530	-0.380	-1.210	-0.580
2020/01/31 19:22:18.8	6.570	-0.320	-1.270	-0.640
2020/01/31 19:22:18.9	6.590	-0.270	-1.320	-0.690
2020/01/31 19:22:19.0	6.630	-0.210	-1.370	-0.740
2020/01/31 19:22:19.1	6.660	-0.150	-1.400	-0.780
2020/01/31 19:22:19.2	6.700	-0.090	-1.430	-0.810
2020/01/31 19:22:19.3	6.730	-0.030	-1.440	-0.850
2020/01/31 19:22:19.4	6.770	0.030	-1.450	-0.870
2020/01/31 19:22:19.5	6.800	0.090	-1.440	-0.890
2020/01/31 19:22:19.6	6.830	0.150	-1.430	-0.910
2020/01/31 19:22:19.7	6.860	0.200	-1.410	-0.920
2020/01/31 19:22:19.8	6.890	0.260	-1.380	-0.920
2020/01/31 19:22:19.9	6.920	0.320	-1.340	-0.920
2020/01/31 19:22:20.0	6.950	0.370	-1.290	-0.910
2020/01/31 19:22:20.1	6.970	0.420	-1.240	-0.900
2020/01/31 19:22:20.2	6.990	0.460	-1.170	-0.870
2020/01/31 19:22:20.3	7.010	0.500	-1.100	-0.840
2020/01/31 19:22:20.4	7.020	0.540	-1.020	-0.810
2020/01/31 19:22:20.5	7.030	0.580	-0.930	-0.760
2020/01/31 19:22:20.6	7.040	0.610	-0.840	-0.710
2020/01/31 19:22:20.7	7.040	0.640	-0.740	-0.650
2020/01/31 19:22:20.8	7.040	0.660	-0.640	-0.590
2020/01/31 19:22:20.9	7.020	0.680	-0.540	-0.510
2020/01/31 19:22:21.0	7.010	0.690	-0.430	-0.440
2020/01/31 19:22:21.1	7.000	0.700	-0.310	-0.350
2020/01/31 19:22:21.2	6.980	0.700	-0.200	-0.260
2020/01/31 19:22:21.3	6.960	0.700	-0.090	-0.160
2020/01/31 19:22:21.4	6.930	0.700	0.030	-0.060
2020/01/31 19:22:21.5	6.910	0.690	0.140	0.050
2020/01/31 19:22:21.6	6.870	0.670	0.250	0.170
2020/01/31 19:22:21.7	6.840	0.660	0.350	0.280
2020/01/31 19:22:21.8	6.800	0.640	0.450	0.400
2020/01/31 19:22:21.9	6.770	0.610	0.540	0.520
2020/01/31 19:22:22.0	6.720	0.580	0.630	0.650
2020/01/31 19:22:22.1	6.680	0.550	0.710	0.770
2020/01/31 19:22:22.2	6.630	0.520	0.790	0.890
2020/01/31 19:22:22.3	6.590	0.480	0.850	1.000
2020/01/31 19:22:22.4	6.540	0.450	0.910	1.120
2020/01/31 19:22:22.5	6.500	0.410	0.960	1.230
2020/01/31 19:22:22.6	6.450	0.370	1.000	1.330
2020/01/31 19:22:22.7	6.410	0.330	1.020	1.430
2020/01/31 19:22:22.8	6.360	0.280	1.040	1.520
2020/01/31 19:22:22.9	6.320	0.240	1.050	1.610
2020/01/31 19:22:23.0	6.280	0.200	1.040	1.680
2020/01/31 19:22:23.1	6.250	0.160	1.030	1.750
2020/01/31 19:22:23.2	6.210	0.120	1.000	1.800
2020/01/31 19:22:23.3	6.180	0.080	0.960	1.840
2020/01/31 19:22:23.4	6.160	0.040	0.910	1.870
2020/01/31 19:22:23.5	6.140	0.000	0.860	1.890
2020/01/31 19:22:23.6	6.120	-0.030	0.790	1.900
2020/01/31 19:22:23.7	6.110	-0.060	0.710	1.890
2020/01/31 19:22:23.8	6.100	-0.090	0.630	1.880
2020/01/31 19:22:23.9	6.110	-0.120	0.530	1.850
2020/01/31 19:22:24.0	6.110	-0.140	0.430	1.800
2020/01/31 19:22:24.1	6.120	-0.160	0.330	1.750
2020/01/31 19:22:24.2	6.140	-0.180	0.220	1.690
2020/01/31 19:22:24.3	6.150	-0.190	0.100	1.610
2020/01/31 19:22:24.4	6.180	-0.210	-0.020	1.530
2020/01/31 19:22:24.5	6.200	-0.210	-0.140	1.440
2020/01/31 19:22:24.6	6.240	-0.220	-0.260	1.340
2020/01/31 19:22:24.7	6.270	-0.220	-0.390	1.230
2020/01/31 19:22:24.8	6.320	-0.220	-0.510	1.120
2020/01/31 19:22:24.9	6.370	-0.220	-0.630	0.990
2020/01/31 19:22:25.0	6.420	-0.220	-0.750	0.870
2020/01/31 19:22:25.1	6.470	-0.210	-0.860	0.740
2020/01/31 19:22:25.2	6.520	-0.200	-0.970	0.610
2020/01/31 19:22:25.3	6.580	-0.200	-1.070	0.480
2020/01/31 19:22:25.4	6.640	-0.190	-1.170	0.350
2020/01/31 19:22:25.5	6.700	-0.180	-1.260	0.220
2020/01/31 19:22:25.6	6.770	-0.170	-1.340	0.080
2020/01/31 19:22:25.7	6.830	-0.160	-1.410	-0.050
2020/01/31 19:22:25.8	6.890	-0.150	-1.470	-0.180
2020/01/31 19:22:25.9	6.960	-0.150	-1.520	-0.310
2020/01/31 19:22:26.0	7.030	-0.140	-1.560	-0.430
2020/01/31 19:22:26.1	7.090	-0.130	-1.590	-0.550
2020/01/31 19:22:26.2	7.150	-0.130	-1.600	-0.660
2020/01/31 19:22:26.3	7.210	-0.130	-1.610	-0.780
2020/01/31 19:22:26.4	7.270	-0.130	-1.600	-0.880
2020/01/31 19:22:26.5	7.330	-0.130	-1.590	-0.980
2020/01/31 19:22:26.6	7.380	-0.130	-1.560	-1.080
2020/01/31 19:22:26.7	7.430	-0.130	-1.520	-1.170
2020/01/31 19:22:26.8	7.480	-0.140	-1.460	-1.250
2020/01/31 19:22:26.9	7.530	-0.150	-1.400	-1.330
2020/01/31 19:22:27.0	7.570	-0.160	-1.330	-1.390
2020/01/31 19:22:27.1	7.610	-0.170	-1.240	-1.450
2020/01/31 19:22:27.2	7.650	-0.180	-1.150	-1.510
2020/01/31 19:22:27.3	7.680	-0.200	-1.050	-1.550
2020/01/31 19:22:27.4	7.710	-0.210	-0.940	-1.590
2020/01/31 19:22:27.5	7.730	-0.230	-0.820	-1.610
2020/01/31 19:22:27.6	7.750	-0.240	-0.690	-1.630
2020/01/31 19:22:27.7	7.770	-0.260	-0.560	-1.640
2020/01/31 19:22:27.8	7.780	-0.270	-0.430	-1.640
2020/01/31 19:22:27.9	7.790	-0.290	-0.290	-1.640
2020/01/31 19:22:28.0	7.800	-0.310	-0.150	-1.620
2020/01/31 19:22:28.1	7.790	-0.320	-0.010	-1.600
2020/01/31 19:22:28.2	7.790	-0.330	0.140	-1.560
2020/01/31 19:22:28.3	7.780	-0.350	0.280	-1.520
2020/01/31 19:22:28.4	7.760	-0.360	0.410	-1.480
2020/01/31 19:22:28.5	7.740	-0.370	0.550	-1.420
2020/01/31 19:22:28.6	7.710	-0.370	0.680	-1.360
2020/01/31 19:22:28.7	7.690	-0.380	0.800	-1.290
2020/01/31 19:22:28.8	7.660	-0.380	0.920	-1.210
2020/01/31 19:22:28.9	7.630	-0.380	1.020	-1.130
2020/01/31 19:22:29.0	7.590	-0.370	1.120	-1.040
2020/01/31 19:22:29.1	7.550	-0.370	1.200	-0.950
2020/01/31 19:22:29.2	7.510	-0.360	1.280	-0.860
2020/01/31 19:22:29.3	7.460	-0.350	1.340	-0.760
2020/01/31 19:22:29.4	7.420	-0.330	1.390	-0.660
2020/01/31 19:22:29.5	7.380	-0.310	1.420	-0.560
2020/01/31 19:22:29.6	7.330	-0.290	1.440	-0.450
2020/01/31 19:22:29.7	7.290	-0.270	1.440	-0.350
2020/01/31 19:22:29.8	7.240	-0.240	1.430	-0.250
2020/01/31 19:22:29.9	7.200	-0.210	1.400	-0.140
2020/01/31 19:22:30.0	7.160	-0.180	1.360	-0.050
2020/01/31 19:22:30.1	7.120	-0.150	1.300	0.050
2020/01/31 19:22:30.2	7.090	-0.110	1.230	0.140
2020/01/31 19:22:30.3	7.050	-0.070	1.140	0.230
2020/01/31 19:22:30.4	7.020	-0.030	1.040	0.310
2020/01/31 19:22:30.5	6.990	0.010	0.930	0.390
2020/01/31 19:22:30.6	6.970	0.050	0.810	0.460
2020/01/31 19:22:30.7	6.950	0.090	0.680	0.520
2020/01/31 19:22:30.8	6.930	0.130	0.540	0.580
2020/01/31 19:22:30.9	6.920	0.170	0.400	0.640
2020/01/31 19:22:31.0	6.910	0.210	0.250	0.690
2020/01/31 19:22:31.1	6.900	0.250	0.090	0.730
2020/01/31 19:22:31.2	6.900	0.290	-0.060	0.760
2020/01/31 19:22:31.3	6.900	0.330	-0.220	0.790
2020/01/31 19:22:31.4	6.900	0.360	-0.380	0.820
2020/01/31 19:22:31.5	6.910	0.400	-0.530	0.830
2020/01/31 19:22:31.6	6.910	0.430	-0.680	0.850
2020/01/31 19:22:31.7	6.930	0.460	-0.820	0.860
2020/01/31 19:22:31.8	6.940	0.480	-0.960	0.860
2020/01/31 19:22:31.9	6.950	0.510	-1.080	0.860
2020/01/31 19:22:32.0	6.970	0.530	-1.200	0.850
2020/01/31 19:22:32.1	6.990	0.540	-1.310	0.850
2020/01/31 19:22:32.2	7.020	0.560	-1.400	0.840
2020/01/31 19:22:32.3	7.050	0.570	-1.490	0.830
2020/01/31 19:22:32.4	7.080	0.570	-1.560	0.810
2020/01/31 19:22:32.5	7.110	0.580	-1.620	0.800
2020/01/31 19:22:32.6	7.150	0.570	-1.660	0.780
2020/01/31 19:22:32.7	7.180	0.570	-1.690	0.760
2020/01/31 19:22:32.8	7.220	0.560	-1.700	0.740
2020/01/31 19:22:32.9	7.250	0.550	-1.700	0.720
2020/01/31 19:22:33.0	7.290	0.530	-1.690	0.690
2020/01/31 19:22:33.1	7.330	0.520	-1.660	0.670
2020/01/31 19:22:33.2	7.370	0.500	-1.630	0.640
2020/01/31 19:22:33.3	7.420	0.470	-1.580	0.620
2020/01/31 19:22:33.4	7.460	0.440	-1.520	0.600
2020/01/31 19:22:33.5	7.500	0.410	-1.450	0.570
2020/01/31 19:22:33.6	7.540	0.380	-1.370	0.550
2020/01/31 19:22:33.7	7.580	0.350	-1.280	0.530
2020/01/31 19:22:33.8	7.620	0.310	-1.180	0.510
2020/01/31 19:22:33.9	7.650	0.270	-1.080	0.490
2020/01/31 19:22:34.0	7.690	0.230	-0.980	0.470
2020/01/31 19:22:34.1	7.730	0.190	-0.870	0.460
2020/01/31 19:22:34.2	7.760	0.150	-0.750	0.450
2020/01/31 19:22:34.3	7.790	0.100	-0.640	0.440
2020/01/31 19:22:34.4	7.820	0.060	-0.520	0.430
2020/01/31 19:22:34.5	7.840	0.010	-0.410	0.420
2020/01/31 19:22:34.6	7.870	-0.030	-0.290	0.420
2020/01/31 19:22:34.7	7.890	-0.080	-0.180	0.420
2020/01/31 19:22:34.8	7.910	-0.120	-0.080	0.410
2020/01/31 19:22:34.9	7.920	-0.170	0.030	0.410
2020/01/31 19:22:35.0	7.930	-0.210	0.120	0.420
2020/01/31 19:22:35.1	7.940	-0.260	0.220	0.420
2020/01/31 19:22:35.2	7.940	-0.300	0.310	0.420
2020/01/31 19:22:35.3	7.950	-0.340	0.390	0.430
2020/01/31 19:22:35.4	7.950	-0.390	0.460	0.430
2020/01/31 19:22:35.5	7.950	-0.420	0.530	0.440
2020/01/31 19:22:35.6	7.940	-0.460	0.590	0.440
2020/01/31 19:22:35.7	7.940	-0.500	0.640	0.450
2020/01/31 19:22:35.8	7.930	-0.530	0.680	0.460
2020/01/31 19:22:35.9	7.920	-0.560	0.720	0.460
2020/01/31 19:22:36.0	7.900	-0.590	0.750	0.470
2020/01/31 19:22:36.1	7.890	-0.610	0.780	0.480
2020/01/31 19:22:36.2	7.870	-0.630	0.790	0.480
2020/01/31 19:22:36.3	7.850	-0.650	0.800	0.490
2020/01/31 19:22:36.4	7.830	-0.670	0.810	0.490
2020/01/31 19:22:36.5	7.810	-0.680	0.800	0.500
2020/01/31 19:22:36.6	7.790	-0.680	0.790	0.500
2020/01/31 19:22:36.7	7.770	-0.690	0.780	0.510
2020/01/31 19:22:36.8	7.740	-0.690	0.760	0.510
2020/01/31 19:22:36.9	7.710	-0.680	0.740	0.510
2020/01/31 19:22:37.0	7.690	-0.670	0.710	0.520
2020/01/31 19:22:37.1	7.660	-0.650	0.670	0.520
2020/01/31 19:22:37.2	7.630	-0.640	0.640	0.520
2020/01/31 19:22:37.3	7.610	-0.610	0.600	0.530
2020/01/31 19:22:37.4	7.580	-0.580	0.550	0.530
2020/01/31 19:22:37.5	7.560	-0.550	0.500	0.530
2020/01/31 19:22:37.6	7.530	-0.520	0.450	0.540
2020/01/31 19:22:37.7	7.510	-0.470	0.400	0.540
2020/01/31 19:22:37.8	7.490	-0.430	0.340	0.540
2020/01/31 19:22:37.9	7.460	-0.380	0.280	0.540
2020/01/31 19:22:38.0	7.440	-0.330	0.220	0.540
2020/01/31 19:22:38.1	7.430	-0.270	0.160	0.540
2020/01/31 19:22:38.2	7.410	-0.210	0.090	0.540
2020/01/31 19:22:38.3	7.400	-0.150	0.030	0.530
2020/01/31 19:22:38.4	7.390	-0.090	-0.040	0.530
2020/01/31 19:22:38.5	7.380	-0.030	-0.110	0.520
2020/01/31 19:22:38.6	7.370	0.040	-0.170	0.520
2020/01/31 19:22:38.7	7.370	0.100	-0.240	0.510
2020/01/31 19:22:38.8	7.360	0.170	-0.300	0.500
2020/01/31 19:22:38.9	7.370	0.240	-0.370	0.490
2020/01/31 19:22:39.0	7.370	0.300	-0.430	0.480
2020/01/31 19:22:39.1	7.370	0.370	-0.490	0.470
2020/01/31 19:22:39.2	7.380	0.430	-0.550	0.460
2020/01/31 19:22:39.3	7.380	0.490	-0.610	0.440
2020/01/31 19:22:39.4	7.390	0.540	-0.670	0.430
2020/01/31 19:22:39.5	7.400	0.600	-0.720	0.420
2020/01/31 19:22:39.6	7.410	0.650	-0.760	0.410
2020/01/31 19:22:39.7	7.430	0.690	-0.810	0.400
2020/01/31 19:22:39.8	7.440	0.730	-0.850	0.390
2020/01/31 19:22:39.9	7.460	0.770	-0.890	0.380
2020/01/31 19:22:40.0	7.470	0.800	-0.920	0.370
2020/01/31 19:22:40.1	7.490	0.820	-0.940	0.360
2020/01/31 19:22:40.2	7.510	0.840	-0.960	0.350
2020/01/31 19:22:40.3	7.530	0.860	-0.980	0.350
2020/01/31 19:22:40.4	7.540	0.870	-0.990	0.340
2020/01/31 19:22:40.5	7.560	0.870	-1.000	0.330
2020/01/31 19:22:40.6	7.580	0.870	-1.000	0.330
2020/01/31 19:22:40.7	7.600	0.860	-1.000	0.320
2020/01/31 19:22:40.8	7.620	0.840	-0.990	0.320
2020/01/31 19:22:40.9	7.640	0.820	-0.970	0.310
2020/01/31 19:22:41.0	7.660	0.800	-0.960	0.310
2020/01/31 19:22:41.1	7.680	0.770	-0.940	0.300
2020/01/31 19:22:41.2	7.700	0.730	-0.910	0.290
2020/01/31 19:22:41.3	7.720	0.690	-0.890	0.280
2020/01/31 19:22:41.4	7.740	0.650	-0.860	0.270
2020/01/31 19:22:41.5	7.760	0.600	-0.820	0.260
2020/01/31 19:22:41.6	7.770	0.550	-0.790	0.250
2020/01/31 19:22:41.7	7.790	0.490	-0.750	0.230
2020/01/31 19:22:41.8	7.810	0.440	-0.710	0.220
2020/01/31 19:22:41.9	7.830	0.380	-0.660	0.190
2020/01/31 19:22:42.0	7.850	0.320	-0.620	0.170
2020/01/31 19:22:42.1	7.870	0.260	-0.570	0.150
2020/01/31 19:22:42.2	7.890	0.200	-0.520	0.120
2020/01/31 19:22:42.3	7.910	0.130	-0.470	0.090
2020/01/31 19:22:42.4	7.940	0.070	-0.420	0.060
2020/01/31 19:22:42.5	7.960	0.020	-0.370	0.020
2020/01/31 19:22:42.6	7.980	-0.040	-0.320	-0.010
2020/01/31 19:22:42.7	8.010	-0.100	-0.270	-0.050
2020/01/31 19:22:42.8	8.030	-0.150	-0.210	-0.090
2020/01/31 19:22:42.9	8.060	-0.200	-0.160	-0.130
2020/01/31 19:22:43.0	8.080	-0.240	-0.110	-0.170
2020/01/31 19:22:43.1	8.110	-0.290	-0.050	-0.200
2020/01/31 19:22:43.2	8.130	-0.330	-0.000	-0.240
2020/01/31 19:22:43.3	8.150	-0.360	0.050	-0.270
2020/01/31 19:22:43.4	8.180	-0.390	0.110	-0.300
2020/01/31 19:22:43.5	8.200	-0.410	0.160	-0.330
2020/01/31 19:22:43.6	8.220	-0.440	0.210	-0.350
2020/01/31 19:22:43.7	8.240	-0.450	0.260	-0.370
2020/01/31 19:22:43.8	8.250	-0.470	0.320	-0.380
2020/01/31 19:22:43.9	8.270	-0.470	0.360	-0.390
2020/01/31 19:22:44.0	8.280	-0.480	0.410	-0.400
2020/01/31 19:22:44.1	8.290	-0.480	0.460	-0.390
2020/01/31 19:22:44.2	8.290	-0.480	0.510	-0.390
2020/01/31 19:22:44.3	8.290	-0.470	0.560	-0.370
2020/01/31 19:22:44.4	8.290	-0.470	0.600	-0.360
2020/01/31 19:22:44.5	8.280	-0.460	0.640	-0.330
2020/01/31 19:22:44.6	8.270	-0.450	0.680	-0.300
2020/01/31 19:22:44.7	8.260	-0.430	0.710	-0.270
2020/01/31 19:22:44.8	8.240	-0.420	0.750	-0.230
2020/01/31 19:22:44.9	8.210	-0.400	0.780	-0.190
2020/01/31 19:22:45.0	8.190	-0.390	0.800	-0.140
2020/01/31 19:22:45.1	8.170	-0.370	0.820	-0.090
2020/01/31 19:22:45.2	8.140	-0.360	0.840	-0.040
2020/01/31 19:22:45.3	8.110	-0.340	0.850	0.010
2020/01/31 19:22:45.4	8.080	-0.330	0.850	0.070
2020/01/31 19:22:45.5	8.050	-0.310	0.850	0.120
2020/01/31 19:22:45.6	8.020	-0.300	0.850	0.180
2020/01/31 19:22:45.7	7.990	-0.290	0.830	0.230
2020/01/31 19:22:45.8	7.960	-0.280	0.820	0.290
2020/01/31 19:22:45.9	7.930	-0.270	0.790	0.340
2020/01/31 19:22:46.0	7.900	-0.270	0.760	0.390
2020/01/31 19:22:46.1	7.870	-0.260	0.720	0.440
2020/01/31 19:22:46.2	7.840	-0.260	0.680	0.490
2020/01/31 19:22:46.3	7.810	-0.250	0.630	0.540
2020/01/31 19:22:46.4	7.790	-0.250	0.570	0.580
2020/01/31 19:22:46.5	7.770	-0.250	0.510	0.620
2020/01/31 19:22:46.6	7.750	-0.250	0.450	0.650
2020/01/31 19:22:46.7	7.730	-0.250	0.380	0.680
2020/01/31 19:22:46.8	7.720	-0.260	0.300	0.700
2020/01/31 19:22:46.9	7.710	-0.260	0.220	0.720
2020/01/31 19:22:47.0	7.710	-0.260	0.140	0.740
2020/01/31 19:22:47.1	7.710	-0.270	0.050	0.750
2020/01/31 19:22:47.2	7.710	-0.270	-0.040	0.760
2020/01/31 19:22:47.3	7.710	-0.280	-0.130	0.760
2020/01/31 19:22:47.4	7.720	-0.280	-0.220	0.760
2020/01/31 19:22:47.5	7.730	-0.280	-0.310	0.750
2020/01/31 19:22:47.6	7.750	-0.290	-0.410	0.740
2020/01/31 19:22:47.7	7.770	-0.290	-0.500	0.730
2020/01/31 19:22:47.8	7.790	-0.290	-0.590	0.710
2020/01/31 19:22:47.9	7.810	-0.290	-0.680	0.680
2020/01/31 19:22:48.0	7.840	-0.280	-0.770	0.660
2020/01/31 19:22:48.1	7.870	-0.280	-0.850	0.630
2020/01/31 19:22:48.2	7.900	-0.270	-0.930	0.590
2020/01/31 19:22:48.3	7.940	-0.270	-1.010	0.560
2020/01/31 19:22:48.4	7.980	-0.260	-1.070	0.520
2020/01/31 19:22:48.5	8.020	-0.250	-1.140	0.490
2020/01/31 19:22:48.6	8.060	-0.230	-1.190	0.450
2020/01/31 19:22:48.7	8.100	-0.220	-1.240	0.410
2020/01/31 19:22:48.8	8.150	-0.210	-1.280	0.370
2020/01/31 19:22:48.9	8.190	-0.190	-1.310	0.330
2020/01/31 19:22:49.0	8.240	-0.170	-1.330	0.290
2020/01/31 19:22:49.1	8.280	-0.150	-1.350	0.250
2020/01/31 19:22:49.2	8.330	-0.130	-1.350	0.210
2020/01/31 19:22:49.3	8.370	-0.110	-1.350	0.180
2020/01/31 19:22:49.4	8.410	-0.090	-1.330	0.150
2020/01/31 19:22:49.5	8.450	-0.060	-1.310	0.120
2020/01/31 19:22:49.6	8.480	-0.040	-1.280	0.090
2020/01/31 19:22:49.7	8.520	-0.020	-1.240	0.070
2020/01/31 19:22:49.8	8.550	0.000	-1.190	0.050
2020/01/31 19:22:49.9	8.590	0.030	-1.130	0.030
2020/01/31 19:22:50.0	8.610	0.050	-1.070	0.020
2020/01/31 19:22:50.1	8.630	0.070	-1.000	0.020
2020/01/31 19:22:50.2	8.650	0.090	-0.930	0.020
2020/01/31 19:22:50.3	8.660	0.110	-0.850	0.020
2020/01/31 19:22:50.4	8.670	0.120	-0.760	0.030
2020/01/31 19:22:50.5	8.680	0.140	-0.670	0.040
2020/01/31 19:22:50.6	8.680	0.150	-0.580	0.060
2020/01/31 19:22:50.7	8.670	0.170	-0.490	0.080
2020/01/31 19:22:50.8	8.670	0.180	-0.400	0.110
2020/01/31 19:22:50.9	8.660	0.180	-0.310	0.140
2020/01/31 19:22:51.0	8.650	0.190	-0.220	0.170
2020/01/31 19:22:51.1	8.630	0.200	-0.130	0.210
2020/01/31 19:22:51.2	8.610	0.200	-0.040	0.250
2020/01/31 19:22:51.3	8.580	0.200	0.040	0.290
2020/01/31 19:22:51.4	8.560	0.200	0.120	0.330
2020/01/31 19:22:51.5	8.530	0.200	0.200	0.380
2020/01/31 19:22:51.6	8.490	0.200	0.260	0.420
2020/01/31 19:22:51.7	8.460	0.190	0.330	0.470
2020/01/31 19:22:51.8	8.420	0.190	0.380	0.510
2020/01/31 19:22:51.9	8.370	0.180	0.430	0.550
2020/01/31 19:22:52.0	8.340	0.180	0.470	0.600
2020/01/31 19:22:52.1	8.300	0.170	0.500	0.640
2020/01/31 19:22:52.2	8.260	0.160	0.520	0.670
2020/01/31 19:22:52.3	8.230	0.160	0.530	0.710
2020/01/31 19:22:52.4	8.190	0.150	0.540	0.740
2020/01/31 19:22:52.5	8.160	0.140	0.540	0.770
2020/01/31 19:22:52.6	8.120	0.130	0.530	0.790
2020/01/31 19:22:52.7	8.090	0.130	0.510	0.810
2020/01/31 19:22:52.8	8.060	0.120	0.480	0.820
2020/01/31 19:22:52.9	8.020	0.120	0.450	0.830
2020/01/31 19:22:53.0	8.000	0.120	0.410	0.840
2020/01/31 19:22:53.1	7.970	0.120	0.360	0.840
2020/01/31 19:22:53.2	7.960	0.120	0.310	0.830
2020/01/31 19:22:53.3	7.940	0.120	0.250	0.830
2020/01/31 19:22:53.4	7.930	0.120	0.180	0.810
2020/01/31 19:22:53.5	7.920	0.130	0.120	0.790
2020/01/31 19:22:53.6	7.920	0.140	0.040	0.770
2020/01/31 19:22:53.7	7.920	0.140	-0.030	0.750
2020/01/31 19:22:53.8	7.920	0.150	-0.100	0.720
2020/01/31 19:22:53.9	7.920	0.170	-0.180	0.680
2020/01/31 19:22:54.0	7.930	0.180	-0.260	0.640
2020/01/31 19:22:54.1	7.950	0.190	-0.330	0.600
2020/01/31 19:22:54.2	7.970	0.210	-0.410	0.550
2020/01/31 19:22:54.3	7.990	0.220	-0.480	0.500
2020/01/31 19:22:54.4	8.020	0.240	-0.540	0.450
2020/01/31 19:22:54.5	8.050	0.250	-0.600	0.400
2020/01/31 19:22:54.6	8.090	0.270	-0.660	0.340
2020/01/31 19:22:54.7	8.130	0.280	-0.710	0.280
2020/01/31 19:22:54.8	8.170	0.300	-0.750	0.230
2020/01/31 19:22:54.9	8.210	0.310	-0.790	0.170
2020/01/31 19:22:55.0	8.260	0.330	-0.820	0.110
2020/01/31 19:22:55.1	8.300	0.340	-0.840	0.060
2020/01/31 19:22:55.2	8.350	0.350	-0.860	0.000
2020/01/31 19:22:55.3	8.390	0.360	-0.860	-0.050
2020/01/31 19:22:55.4	8.440	0.370	-0.860	-0.090
2020/01/31 19:22:55.5	8.480	0.380	-0.850	-0.140
2020/01/31 19:22:55.6	8.520	0.380	-0.830	-0.180
2020/01/31 19:22:55.7	8.550	0.380	-0.800	-0.210
2020/01/31 19:22:55.8	8.590	0.380	-0.770	-0.240
2020/01/31 19:22:55.9	8.640	0.380	-0.730	-0.260
2020/01/31 19:22:56.0	8.660	0.380	-0.680	-0.290
2020/01/31 19:22:56.1	8.690	0.370	-0.630	-0.300
2020/01/31 19:22:56.2	8.710	0.360	-0.580	-0.310
2020/01/31 19:22:56.3	8.720	0.340	-0.520	-0.320
2020/01/31 19:22:56.4	8.730	0.330	-0.460	-0.330
2020/01/31 19:22:56.5	8.740	0.310	-0.400	-0.330
2020/01/31 19:22:56.6	8.740	0.290	-0.330	-0.330
2020/01/31 19:22:56.7	8.740	0.270	-0.270	-0.320
2020/01/31 19:22:56.8	8.740	0.240	-0.210	-0.320
2020/01/31 19:22:56.9	8.740	0.220	-0.140	-0.310
2020/01/31 19:22:57.0	8.730	0.190	-0.080	-0.300
2020/01/31 19:22:57.1	8.710	0.160	-0.020	-0.290
2020/01/31 19:22:57.2	8.690	0.130	0.030	-0.280
2020/01/31 19:22:57.3	8.680	0.100	0.080	-0.260
2020/01/31 19:22:57.4	8.660	0.070	0.130	-0.250
2020/01/31 19:22:57.5	8.630	0.040	0.170	-0.240
2020/01/31 19:22:57.6	8.610	0.010	0.210	-0.220
2020/01/31 19:22:57.7	8.590	-0.020	0.240	-0.210
2020/01/31 19:22:57.8	8.560	-0.050	0.270	-0.200
2020/01/31 19:22:57.9	8.530	-0.080	0.290	-0.190
2020/01/31 19:22:58.0	8.510	-0.110	0.300	-0.190
2020/01/31 19:22:58.1	8.490	-0.130	0.310	-0.180
2020/01/31 19:22:58.2	8.460	-0.160	0.310	-0.180
2020/01/31 19:22:58.3	8.440	-0.180	0.310	-0.180
2020/01/31 19:22:58.4	8.420	-0.200	0.300	-0.180
2020/01/31 19:22:58.5	8.410	-0.220	0.280	-0.180
2020/01/31 19:22:58.6	8.390	-0.240	0.270	-0.190
2020/01/31 19:22:58.7	8.380	-0.250	0.240	-0.190
2020/01/31 19:22:58.8	8.360	-0.260	0.210	-0.200
2020/01/31 19:22:58.9	8.350	-0.270	0.180	-0.210
2020/01/31 19:22:59.0	8.340	-0.280	0.140	-0.220
2020/01/31 19:22:59.1	8.340	-0.290	0.100	-0.230
2020/01/31 19:22:59.2	8.330	-0.290	0.060	-0.240
2020/01/31 19:22:59.3	8.330	-0.290	0.020	-0.250
2020/01/31 19:22:59.4	8.330	-0.290	-0.020	-0.270
2020/01/31 19:22:59.5	8.340	-0.290	-0.060	-0.280
2020/01/31 19:22:59.6	8.340	-0.280	-0.100	-0.290
2020/01/31 19:22:59.7	8.340	-0.270	-0.140	-0.300
2020/01/31 19:22:59.8	8.350	-0.260	-0.180	-0.310
2020/01/31 19:22:59.9	8.370	-0.250	-0.220	-0.320
2020/01/31 19:23:00.0	8.380	-0.240	-0.250	-0.330
2020/01/31 19:23:00.1	8.390	-0.230	-0.280	-0.340
2020/01/31 19:23:00.2	8.400	-0.210	-0.310	-0.340
2020/01/31 19:23:00.3	8.410	-0.200	-0.330	-0.340
2020/01/31 19:23:00.4	8.420	-0.180	-0.350	-0.350
2020/01/31 19:23:00.5	8.440	-0.160	-0.360	-0.340
2020/01/31 19:23:00.6	8.450	-0.150	-0.360	-0.340
2020/01/31 19:23:00.7	8.460	-0.130	-0.360	-0.330
2020/01/31 19:23:00.8	8.470	-0.110	-0.360	-0.320
2020/01/31 19:23:00.9	8.490	-0.090	-0.350	-0.300
2020/01/31 19:23:01.0	8.500	-0.080	-0.330	-0.290
2020/01/31 19:23:01.1	8.510	-0.060	-0.310	-0.270
2020/01/31 19:23:01.2	8.520	-0.040	-0.290	-0.240
2020/01/31 19:23:01.3	8.530	-0.030	-0.260	-0.220
2020/01/31 19:23:01.4	8.540	-0.010	-0.230	-0.190
2020/01/31 19:23:01.5	8.540	0.000	-0.190	-0.160
2020/01/31 19:23:01.6	8.550	0.020	-0.150	-0.120
2020/01/31 19:23:01.7	8.550	0.030	-0.110	-0.080
2020/01/31 19:23:01.8	8.550	0.040	-0.070	-0.030
2020/01/31 19:23:01.9	8.550	0.050	-0.020	0.000
2020/01/31 19:23:02.0	8.550	0.060	0.020	0.050
2020/01/31 19:23:02.1	8.540	0.060	0.070	0.110
2020/01/31 19:23:02.2	8.540	0.070	0.120	0.160
2020/01/31 19:23:02.3	8.530	0.070	0.170	0.220
2020/01/31 19:23:02.4	8.530	0.070	0.210	0.270
2020/01/31 19:23:02.5	8.520	0.070	0.260	0.330
2020/01/31 19:23:02.6	8.510	0.070	0.300	0.390
2020/01/31 19:23:02.7	8.500	0.060	0.340	0.450
2020/01/31 19:23:02.8	8.500	0.060	0.370	0.510
2020/01/31 19:23:02.9	8.470	0.050	0.400	0.560
2020/01/31 19:23:03.0	8.460	0.040	0.430	0.620
2020/01/31 19:23:03.1	8.450	0.030	0.450	0.670
2020/01/31 19:23:03.2	8.450	0.020	0.460	0.710
2020/01/31 19:23:03.3	8.440	0.000	0.470	0.760
2020/01/31 19:23:03.4	8.430	-0.010	0.480	0.800
2020/01/31 19:23:03.5	8.420	-0.030	0.470	0.840
2020/01/31 19:23:03.6	8.410	-0.050	0.460	0.870
2020/01/31 19:23:03.7	8.410	-0.070	0.450	0.900
2020/01/31 19:23:03.8	8.400	-0.090	0.430	0.920
2020/01/31 19:23:03.9	8.380	-0.110	0.400	0.940
2020/01/31 19:23:04.0	8.380	-0.140	0.370	0.960
2020/01/31 19:23:04.1	8.380	-0.160	0.330	0.970
2020/01/31 19:23:04.2	8.380	-0.180	0.290	0.980
2020/01/31 19:23:04.3	8.380	-0.210	0.240	0.980
2020/01/31 19:23:04.4	8.380	-0.230	0.190	0.980
2020/01/31 19:23:04.5	8.380	-0.260	0.130	0.970
2020/01/31 19:23:04.6	8.390	-0.280	0.070	0.960
2020/01/31 19:23:04.7	8.400	-0.310	0.010	0.940
2020/01/31 19:23:04.8	8.410	-0.330	-0.060	0.930
2020/01/31 19:23:04.9	8.420	-0.350	-0.130	0.900
2020/01/31 19:23:05.0	8.430	-0.380	-0.200	0.880
2020/01/31 19:23:05.1	8.450	-0.400	-0.270	0.850
2020/01/31 19:23:05.2	8.470	-0.420	-0.340	0.810
2020/01/31 19:23:05.3	8.490	-0.440	-0.420	0.780
2020/01/31 19:23:05.4	8.520	-0.460	-0.490	0.740
2020/01/31 19:23:05.5	8.540	-0.480	-0.560	0.700
2020/01/31 19:23:05.6	8.570	-0.490	-0.630	0.660
2020/01/31 19:23:05.7	8.600	-0.500	-0.700	0.610
2020/01/31 19:23:05.8	8.630	-0.520	-0.760	0.560
2020/01/31 19:23:05.9	8.680	-0.530	-0.820	0.520
2020/01/31 19:23:06.0	8.710	-0.530	-0.880	0.470
2020/01/31 19:23:06.1	8.750	-0.540	-0.930	0.410
2020/01/31 19:23:06.2	8.790	-0.540	-0.970	0.360
2020/01/31 19:23:06.3	8.830	-0.540	-1.020	0.310
2020/01/31 19:23:06.4	8.870	-0.540	-1.050	0.260
2020/01/31 19:23:06.5	8.910	-0.540	-1.080	0.210
2020/01/31 19:23:06.6	8.950	-0.530	-1.100	0.160
2020/01/31 19:23:06.7	8.990	-0.520	-1.120	0.110
2020/01/31 19:23:06.8	9.030	-0.510	-1.130	0.060
2020/01/31 19:23:06.9	9.100	-0.500	-1.130	0.020
2020/01/31 19:23:07.0	9.130	-0.480	-1.130	-0.020
2020/01/31 19:23:07.1	9.170	-0.460	-1.110	-0.060
2020/01/31 19:23:07.2	9.200	-0.440	-1.090	-0.100
2020/01/31 19:23:07.3	9.230	-0.420	-1.070	-0.130
2020/01/31 19:23:07.4	9.250	-0.390	-1.040	-0.160
2020/01/31 19:23:07.5	9.280	-0.360	-1.000	-0.190
2020/01/31 19:23:07.6	9.300	-0.330	-0.950	-0.210
2020/01/31 19:23:07.7	9.310	-0.300	-0.900	-0.220
2020/01/31 19:23:07.8	9.320	-0.260	-0.850	-0.230
2020/01/31 19:23:07.9	9.340	-0.230	-0.790	-0.240
2020/01/31 19:23:08.0	9.340	-0.190	-0.720	-0.240
2020/01/31 19:23:08.1	9.340	-0.140	-0.650	-0.230
2020/01/31 19:23:08.2	9.330	-0.100	-0.580	-0.220
2020/01/31 19:23:08.3	9.320	-0.060	-0.510	-0.200
2020/01/31 19:23:08.4	9.310	-0.010	-0.440	-0.180
2020/01/31 19:23:08.5	9.290	0.040	-0.370	-0.160
2020/01/31 19:23:08.6	9.270	0.080	-0.300	-0.120
2020/01/31 19:23:08.7	9.240	0.130	-0.230	-0.090
2020/01/31 19:23:08.8	9.220	0.180	-0.160	-0.050
2020/01/31 19:23:08.9	9.180	0.230	-0.100	-0.010
2020/01/31 19:23:09.0	9.150	0.280	-0.040	0.040
2020/01/31 19:23:09.1	9.110	0.330	0.020	0.080
2020/01/31 19:23:09.2	9.070	0.370	0.070	0.130
2020/01/31 19:23:09.3	9.030	0.420	0.110	0.190
2020/01/31 19:23:09.4	8.990	0.470	0.150	0.240
2020/01/31 19:23:09.5	8.940	0.520	0.190	0.290
2020/01/31 19:23:09.6	8.900	0.560	0.210	0.350
2020/01/31 19:23:09.7	8.850	0.600	0.230	0.410
2020/01/31 19:23:09.8	8.810	0.640	0.250	0.460
2020/01/31 19:23:09.9	8.740	0.680	0.250	0.510
2020/01/31 19:23:10.0	8.700	0.720	0.250	0.570
2020/01/31 19:23:10.1	8.650	0.760	0.240	0.620
2020/01/31 19:23:10.2	8.610	0.790	0.230	0.670
2020/01/31 19:23:10.3	8.570	0.820	0.210	0.720
2020/01/31 19:23:10.4	8.540	0.850	0.180	0.760
2020/01/31 19:23:10.5	8.500	0.880	0.140	0.800
2020/01/31 19:23:10.6	8.470	0.900	0.100	0.840
2020/01/31 19:23:10.7	8.450	0.920	0.060	0.870
2020/01/31 19:23:10.8	8.430	0.940	0.000	0.900
2020/01/31 19:23:10.9	8.410	0.950	-0.050	0.930
2020/01/31 19:23:11.0	8.400	0.960	-0.110	0.950
2020/01/31 19:23:11.1	8.390	0.970	-0.170	0.960
2020/01/31 19:23:11.2	8.390	0.970	-0.230	0.970
2020/01/31 19:23:11.3	8.390	0.970	-0.300	0.970
2020/01/31 19:23:11.4	8.400	0.970	-0.370	0.960
2020/01/31 19:23:11.5	8.420	0.960	-0.430	0.950
2020/01/31 19:23:11.6	8.430	0.950	-0.500	0.930
2020/01/31 19:23:11.7	8.460	0.940	-0.560	0.910
2020/01/31 19:23:11.8	8.490	0.920	-0.620	0.880
2020/01/31 19:23:11.9	8.520	0.900	-0.680	0.840
2020/01/31 19:23:12.0	8.560	0.870	-0.730	0.810
2020/01/31 19:23:12.1	8.600	0.840	-0.780	0.760
2020/01/31 19:23:12.2	8.640	0.810	-0.820	0.710
2020/01/31 19:23:12.3	8.690	0.770	-0.850	0.660
2020/01/31 19:23:12.4	8.740	0.740	-0.880	0.610
2020/01/31 19:23:12.5	8.790	0.690	-0.900	0.550
2020/01/31 19:23:12.6	8.840	0.650	-0.910	0.490
2020/01/31 19:23:12.7	8.890	0.600	-0.920	0.430
2020/01/31 19:23:12.8	8.950	0.550	-0.910	0.370
2020/01/31 19:23:12.9	9.020	0.490	-0.890	0.300
2020/01/31 19:23:13.0	9.070	0.440	-0.870	0.240
2020/01/31 19:23:13.1	9.130	0.380	-0.840	0.180
2020/01/31 19:23:13.2	9.180	0.320	-0.790	0.110
2020/01/31 19:23:13.3	9.230	0.250	-0.740	0.050
2020/01/31 19:23:13.4	9.280	0.190	-0.680	-0.000
2020/01/31 19:23:13.5	9.320	0.130	-0.620	-0.060
2020/01/31 19:23:13.6	9.370	0.060	-0.540	-0.110
2020/01/31 19:23:13.7	9.410	-0.000	-0.460	-0.160
2020/01/31 19:23:13.8	9.440	-0.070	-0.370	-0.210
2020/01/31 19:23:13.9	9.490	-0.130	-0.270	-0.250
2020/01/31 19:23:14.0	9.520	-0.200	-0.170	-0.280
2020/01/31 19:23:14.1	9.540	-0.260	-0.070	-0.320
2020/01/31 19:23:14.2	9.560	-0.320	0.040	-0.340
2020/01/31 19:23:14.3	9.570	-0.380	0.150	-0.360
2020/01/31 19:23:14.4	9.590	-0.440	0.260	-0.380
2020/01/31 19:23:14.5	9.590	-0.500	0.370	-0.400
2020/01/31 19:23:14.6	9.590	-0.550	0.470	-0.400
2020/01/31 19:23:14.7	9.590	-0.600	0.580	-0.410
2020/01/31 19:23:14.8	9.590	-0.650	0.680	-0.410
2020/01/31 19:23:14.9	9.570	-0.700	0.780	-0.400
2020/01/31 19:23:15.0	9.550	-0.740	0.870	-0.390
2020/01/31 19:23:15.1	9.540	-0.780	0.960	-0.380
2020/01/31 19:23:15.2	9.520	-0.810	1.030	-0.360
2020/01/31 19:23:15.3	9.500	-0.840	1.100	-0.340
2020/01/31 19:23:15.4	9.470	-0.870	1.160	-0.320
2020/01/31 19:23:15.5	9.450	-0.890	1.210	-0.290
2020/01/31 19:23:15.6	9.420	-0.900	1.250	-0.260
2020/01/31 19:23:15.7	9.390	-0.920	1.270	-0.230
2020/01/31 19:23:15.8	9.370	-0.920	1.280	-0.200
2020/01/31 19:23:15.9	9.320	-0.920	1.290	-0.170
2020/01/31 19:23:16.0	9.290	-0.920	1.270	-0.140
2020/01/31 19:23:16.1	9.270	-0.910	1.250	-0.100
2020/01/31 19:23:16.2	9.240	-0.900	1.220	-0.070
2020/01/31 19:23:16.3	9.210	-0.880	1.170	-0.050
2020/01/31 19:23:16.4	9.190	-0.860	1.110	-0.020
2020/01/31 19:23:16.5	9.170	-0.830	1.040	0.010
2020/01/31 19:23:16.6	9.150	-0.800	0.960	0.030
2020/01/31 19:23:16.7	9.130	-0.760	0.870	0.050
2020/01/31 19:23:16.8	9.120	-0.720	0.770	0.070
2020/01/31 19:23:16.9	9.100	-0.680	0.660	0.080
2020/01/31 19:23:17.0	9.090	-0.630	0.540	0.100
2020/01/31 19:23:17.1	9.080	-0.580	0.420	0.110
2020/01/31 19:23:17.2	9.080	-0.530	0.300	0.130
2020/01/31 19:23:17.3	9.070	-0.470	0.180	0.140
2020/01/31 19:23:17.4	9.070	-0.420	0.050	0.150
2020/01/31 19:23:17.5	9.070	-0.360	-0.080	0.160
2020/01/31 19:23:17.6	9.070	-0.300	-0.200	0.170
2020/01/31 19:23:17.7	9.080	-0.240	-0.330	0.180
2020/01/31 19:23:17.8	9.080	-0.180	-0.440	0.190
2020/01/31 19:23:17.9	9.090	-0.130	-0.550	0.210
2020/01/31 19:23:18.0	9.090	-0.070	-0.660	0.220
2020/01/31 19:23:18.1	9.100	-0.020	-0.760	0.240
2020/01/31 19:23:18.2	9.100	0.040	-0.840	0.260
2020/01/31 19:23:18.3	9.110	0.080	-0.920	0.280
2020/01/31 19:23:18.4	9.120	0.130	-0.990	0.300
2020/01/31 19:23:18.5	9.120	0.170	-1.050	0.320
2020/01/31 19:23:18.6	9.120	0.210	-1.090	0.350
2020/01/31 19:23:18.7	9.130	0.240	-1.120	0.380
2020/01/31 19:23:18.8	9.130	0.270	-1.140	0.410
2020/01/31 19:23:18.9	9.130	0.300	-1.160	0.440
2020/01/31 19:23:19.0	9.130	0.320	-1.150	0.480
2020/01/31 19:23:19.1	9.130	0.330	-1.140	0.520
2020/01/31 19:23:19.2	9.130	0.340	-1.110	0.560
2020/01/31 19:23:19.3	9.130	0.350	-1.080	0.600
2020/01/31 19:23:19.4	9.120	0.350	-1.030	0.640
2020/01/31 19:23:19.5	9.120	0.340	-0.980	0.680
2020/01/31 19:23:19.6	9.110	0.330	-0.920	0.720
2020/01/31 19:23:19.7	9.100	0.320	-0.850	0.760
2020/01/31 19:23:19.8	9.090	0.300	-0.780	0.800
2020/01/31 19:23:19.9	9.110	0.280	-0.700	0.850
2020/01/31 19:23:20.0	9.100	0.250	-0.610	0.890
2020/01/31 19:23:20.1	9.090	0.220	-0.530	0.930
2020/01/31 19:23:20.2	9.080	0.180	-0.450	0.960
2020/01/31 19:23:20.3	9.070	0.150	-0.370	0.990
2020/01/31 19:23:20.4	9.060	0.110	-0.290	1.020
2020/01/31 19:23:20.5	9.050	0.070	-0.210	1.050
2020/01/31 19:23:20.6	9.040	0.020	-0.140	1.060
2020/01/31 19:23:20.7	9.030	-0.020	-0.070	1.080
2020/01/31 19:23:20.8	9.030	-0.070	-0.000	1.090
2020/01/31 19:23:20.9	9.020	-0.110	0.050	1.090
2020/01/31 19:23:21.0	9.010	-0.160	0.100	1.090
2020/01/31 19:23:21.1	9.010	-0.200	0.140	1.090
2020/01/31 19:23:21.2	9.010	-0.240	0.170	1.070
2020/01/31 19:23:21.3	9.010	-0.290	0.200	1.050
2020/01/31 19:23:21.4	9.010	-0.320	0.210	1.030
2020/01/31 19:23:21.5	9.010	-0.360	0.220	1.000
2020/01/31 19:23:21.6	9.010	-0.400	0.220	0.960
2020/01/31 19:23:21.7	9.020	-0.430	0.210	0.920
2020/01/31 19:23:21.8	9.030	-0.450	0.190	0.870
2020/01/31 19:23:21.9	9.030	-0.480	0.170	0.810
2020/01/31 19:23:22.0	9.040	-0.500	0.130	0.750
2020/01/31 19:23:22.1	9.050	-0.510	0.090	0.690
2020/01/31 19:23:22.2	9.060	-0.520	0.040	0.620
2020/01/31 19:23:22.3	9.070	-0.520	-0.010	0.550
2020/01/31 19:23:22.4	9.090	-0.520	-0.070	0.470
2020/01/31 19:23:22.5	9.100	-0.520	-0.140	0.400
2020/01/31 19:23:22.6	9.110	-0.510	-0.200	0.320
2020/01/31 19:23:22.7	9.130	-0.490	-0.270	0.240
2020/01/31 19:23:22.8	9.150	-0.470	-0.340	0.160
2020/01/31 19:23:22.9	9.170	-0.440	-0.410	0.080
2020/01/31 19:23:23.0	9.180	-0.410	-0.480	0.000
2020/01/31 19:23:23.1	9.200	-0.380	-0.550	-0.070
2020/01/31 19:23:23.2	9.220	-0.340	-0.610	-0.150
2020/01/31 19:23:23.3	9.240	-0.290	-0.680	-0.220
2020/01/31 19:23:23.4	9.260	-0.240	-0.740	-0.290
2020/01/31 19:23:23.5	9.280	-0.190	-0.790	-0.350
2020/01/31 19:23:23.6	9.300	-0.130	-0.850	-0.420
2020/01/31 19:23:23.7	9.320	-0.070	-0.900	-0.470
2020/01/31 19:23:23.8	9.340	-0.010	-0.940	-0.530
2020/01/31 19:23:23.9	9.370	0.060	-0.980	-0.580
2020/01/31 19:23:24.0	9.390	0.120	-1.010	-0.620
2020/01/31 19:23:24.1	9.420	0.190	-1.040	-0.660
2020/01/31 19:23:24.2	9.450	0.260	-1.060	-0.700
2020/01/31 19:23:24.3	9.480	0.330	-1.070	-0.730
2020/01/31 19:23:24.4	9.500	0.390	-1.090	-0.750
2020/01/31 19:23:24.5	9.540	0.460	-1.090	-0.770
2020/01/31 19:23:24.6	9.570	0.530	-1.090	-0.790
2020/01/31 19:23:24.7	9.600	0.590	-1.080	-0.800
2020/01/31 19:23:24.8	9.630	0.650	-1.070	-0.800
2020/01/31 19:23:24.9	9.650	0.700	-1.050	-0.790
2020/01/31 19:23:25.0	9.680	0.760	-1.030	-0.790
2020/01/31 19:23:25.1	9.720	0.810	-1.000	-0.770
2020/01/31 19:23:25.2	9.750	0.850	-0.960	-0.750
2020/01/31 19:23:25.3	9.790	0.890	-0.920	-0.730
2020/01/31 19:23:25.4	9.820	0.930	-0.880	-0.690
2020/01/31 19:23:25.5	9.850	0.960	-0.830	-0.660
2020/01/31 19:23:25.6	9.880	0.980	-0.780	-0.620
2020/01/31 19:23:25.7	9.920	1.000	-0.720	-0.570
2020/01/31 19:23:25.8	9.950	1.010	-0.660	-0.520
2020/01/31 19:23:25.9	9.980	1.010	-0.600	-0.460
2020/01/31 19:23:26.0	10.010	1.010	-0.530	-0.400
2020/01/31 19:23:26.1	10.030	1.010	-0.460	-0.330
2020/01/31 19:23:26.2	10.050	0.990	-0.390	-0.260
2020/01/31 19:23:26.3	10.070	0.970	-0.320	-0.190
2020/01/31 19:23:26.4	10.090	0.950	-0.250	-0.120
2020/01/31 19:23:26.5	10.100	0.920	-0.170	-0.040
2020/01/31 19:23:26.6	10.110	0.880	-0.100	0.040
2020/01/31 19:23:26.7	10.120	0.840	-0.020	0.120
2020/01/31 19:23:26.8	10.120	0.790	0.050	0.200
2020/01/31 19:23:26.9	10.110	0.740	0.120	0.290
2020/01/31 19:23:27.0	10.110	0.680	0.190	0.380
2020/01/31 19:23:27.1	10.100	0.630	0.260	0.460
2020/01/31 19:23:27.2	10.090	0.560	0.330	0.540
2020/01/31 19:23:27.3	10.080	0.500	0.390	0.620
2020/01/31 19:23:27.4	10.070	0.430	0.460	0.700
2020/01/31 19:23:27.5	10.050	0.360	0.510	0.780
2020/01/31 19:23:27.6	10.040	0.280	0.570	0.860
2020/01/31 19:23:27.7	10.020	0.210	0.620	0.930
2020/01/31 19:23:27.8	10.000	0.140	0.660	1.000
2020/01/31 19:23:27.9	9.970	0.070	0.700	1.070
2020/01/31 19:23:28.0	9.950	-0.010	0.740	1.130
2020/01/31 19:23:28.1	9.930	-0.080	0.760	1.180
2020/01/31 19:23:28.2	9.900	-0.150	0.790	1.240
2020/01/31 19:23:28.3	9.880	-0.220	0.810	1.280
2020/01/31 19:23:28.4	9.860	-0.280	0.820	1.320
2020/01/31 19:23:28.5	9.840	-0.350	0.830	1.360
2020/01/31 19:23:28.6	9.810	-0.400	0.840	1.390
2020/01/31 19:23:28.7	9.790	-0.460	0.830	1.410
2020/01/31 19:23:28.8	9.770	-0.510	0.830	1.430
2020/01/31 19:23:28.9	9.750	-0.560	0.820	1.440
2020/01/31 19:23:29.0	9.730	-0.600	0.800	1.450
2020/01/31 19:23:29.1	9.720	-0.640	0.780	1.450
2020/01/31 19:23:29.2	9.700	-0.670	0.750	1.450
2020/01/31 19:23:29.3	9.690	-0.690	0.720	1.440
2020/01/31 19:23:29.4	9.680	-0.710	0.690	1.430
2020/01/31 19:23:29.5	9.670	-0.730	0.650	1.410
2020/01/31 19:23:29.6	9.660	-0.740	0.610	1.390
2020/01/31 19:23:29.7	9.660	-0.740	0.570	1.360
2020/01/31 19:23:29.8	9.650	-0.740	0.530	1.330
2020/01/31 19:23:29.9	9.640	-0.730	0.480	1.300
2020/01/31 19:23:30.0	9.640	-0.720	0.430	1.260
2020/01/31 19:23:30.1	9.640	-0.700	0.380	1.230
2020/01/31 19:23:30.2	9.640	-0.680	0.330	1.190
2020/01/31 19:23:30.3	9.640	-0.650	0.280	1.150
2020/01/31 19:23:30.4	9.650	-0.620	0.220	1.110
2020/01/31 19:23:30.5	9.650	-0.590	0.170	1.070
2020/01/31 19:23:30.6	9.660	-0.550	0.120	1.020
2020/01/31 19:23:30.7	9.660	-0.510	0.070	0.980
2020/01/31 19:23:30.8	9.670	-0.470	0.020	0.940
2020/01/31 19:23:30.9	9.670	-0.430	-0.020	0.900
2020/01/31 19:23:31.0	9.680	-0.390	-0.070	0.860
2020/01/31 19:23:31.1	9.680	-0.340	-0.110	0.810
2020/01/31 19:23:31.2	9.700	-0.300	-0.150	0.770
2020/01/31 19:23:31.3	9.710	-0.260	-0.200	0.730
2020/01/31 19:23:31.4	9.720	-0.210	-0.230	0.680
2020/01/31 19:23:31.5	9.730	-0.170	-0.270	0.640
2020/01/31 19:23:31.6	9.750	-0.130	-0.300	0.600
2020/01/31 19:23:31.7	9.760	-0.100	-0.330	0.550
2020/01/31 19:23:31.8	9.780	-0.060	-0.360	0.510
2020/01/31 19:23:31.9	9.800	-0.030	-0.390	0.460
2020/01/31 19:23:32.0	9.820	-0.000	-0.420	0.420
2020/01/31 19:23:32.1	9.840	0.020	-0.440	0.370
2020/01/31 19:23:32.2	9.860	0.040	-0.460	0.330
2020/01/31 19:23:32.3	9.880	0.060	-0.480	0.280
2020/01/31 19:23:32.4	9.900	0.070	-0.490	0.230
2020/01/31 19:23:32.5	9.920	0.080	-0.510	0.190
2020/01/31 19:23:32.6	9.940	0.080	-0.520	0.140
2020/01/31 19:23:32.7	9.960	0.080	-0.530	0.090
2020/01/31 19:23:32.8	9.980	0.080	-0.540	0.040
2020/01/31 19:23:32.9	10.010	0.070	-0.540	-0.000
2020/01/31 19:23:33.0	10.030	0.060	-0.550	-0.050
2020/01/31 19:23:33.1	10.050	0.040	-0.550	-0.100
2020/01/31 19:23:33.2	10.070	0.030	-0.550	-0.150
2020/01/31 19:23:33.3	10.090	0.010	-0.540	-0.200
2020/01/31 19:23:33.4	10.110	-0.010	-0.540	-0.240
2020/01/31 19:23:33.5	10.130	-0.040	-0.530	-0.290
2020/01/31 19:23:33.6	10.140	-0.060	-0.530	-0.330
2020/01/31 19:23:33.7	10.160	-0.090	-0.520	-0.370
2020/01/31 19:23:33.8	10.180	-0.120	-0.500	-0.420
2020/01/31 19:23:33.9	10.210	-0.140	-0.490	-0.460
2020/01/31 19:23:34.0	10.220	-0.170	-0.480	-0.500
2020/01/31 19:23:34.1	10.230	-0.200	-0.460	-0.530
2020/01/31 19:23:34.2	10.240	-0.220	-0.440	-0.560
2020/01/31 19:23:34.3	10.250	-0.250	-0.430	-0.590
2020/01/31 19:23:34.4	10.260	-0.270	-0.410	-0.620
2020/01/31 19:23:34.5	10.270	-0.290	-0.390	-0.640
2020/01/31 19:23:34.6	10.280	-0.310	-0.370	-0.660
2020/01/31 19:23:34.7	10.290	-0.320	-0.350	-0.680
2020/01/31 19:23:34.8	10.290	-0.330	-0.330	-0.690
2020/01/31 19:23:34.9	10.290	-0.340	-0.310	-0.700
2020/01/31 19:23:35.0	10.290	-0.340	-0.300	-0.700
2020/01/31 19:23:35.1	10.300	-0.340	-0.280	-0.710
2020/01/31 19:23:35.2	10.300	-0.340	-0.270	-0.710
2020/01/31 19:23:35.3	10.310	-0.330	-0.260	-0.700
2020/01/31 19:23:35.4	10.310	-0.320	-0.260	-0.700
2020/01/31 19:23:35.5	10.320	-0.300	-0.250	-0.690
2020/01/31 19:23:35.6	10.330	-0.280	-0.250	-0.680
2020/01/31 19:23:35.7	10.330	-0.260	-0.250	-0.660
2020/01/31 19:23:35.8	10.340	-0.230	-0.250	-0.650
2020/01/31 19:23:35.9	10.340	-0.210	-0.270	-0.630
2020/01/31 19:23:36.0	10.350	-0.180	-0.280	-0.610
2020/01/31 19:23:36.1	10.360	-0.140	-0.290	-0.590
2020/01/31 19:23:36.2	10.370	-0.110	-0.310	-0.570
2020/01/31 19:23:36.3	10.380	-0.070	-0.330	-0.550
2020/01/31 19:23:36.4	10.400	-0.030	-0.350	-0.530
2020/01/31 19:23:36.5	10.410	0.010	-0.370	-0.500
2020/01/31 19:23:36.6	10.420	0.040	-0.400	-0.480
2020/01/31 19:23:36.7	10.440	0.080	-0.420	-0.450
2020/01/31 19:23:36.8	10.450	0.120	-0.450	-0.420
2020/01/31 19:23:36.9	10.480	0.160	-0.470	-0.390
2020/01/31 19:23:37.0	10.490	0.190	-0.500	-0.360
2020/01/31 19:23:37.1	10.500	0.220	-0.530	-0.330
2020/01/31 19:23:37.2	10.520	0.260	-0.550	-0.300
2020/01/31 19:23:37.3	10.530	0.280	-0.580	-0.270
2020/01/31 19:23:37.4	10.540	0.310	-0.600	-0.230
2020/01/31 19:23:37.5	10.560	0.330	-0.620	-0.200
2020/01/31 19:23:37.6	10.570	0.350	-0.630	-0.160
2020/01/31 19:23:37.7	10.580	0.370	-0.650	-0.130
2020/01/31 19:23:37.8	10.590	0.380	-0.660	-0.090
2020/01/31 19:23:37.9	10.580	0.390	-0.670	-0.050
2020/01/31 19:23:38.0	10.590	0.400	-0.670	-0.010
2020/01/31 19:23:38.1	10.600	0.400	-0.670	0.020
2020/01/31 19:23:38.2	10.600	0.400	-0.660	0.060
2020/01/31 19:23:38.3	10.610	0.400	-0.650	0.100
2020/01/31 19:23:38.4	10.610	0.390	-0.630	0.140
2020/01/31 19:23:38.5	10.610	0.380	-0.610	0.180
2020/01/31 19:23:38.6	10.610	0.360	-0.590	0.220
2020/01/31 19:23:38.7	10.610	0.350	-0.560	0.260
2020/01/31 19:23:38.8	10.610	0.330	-0.520	0.300
2020/01/31 19:23:38.9	10.600	0.310	-0.490	0.340
2020/01/31 19:23:39.0	10.590	0.290	-0.450	0.380
2020/01/31 19:23:39.1	10.590	0.260	-0.400	0.420
2020/01/31 19:23:39.2	10.580	0.240	-0.350	0.460
2020/01/31 19:23:39.3	10.570	0.220	-0.300	0.500
2020/01/31 19:23:39.4	10.550	0.190	-0.250	0.540
2020/01/31 19:23:39.5	10.540	0.170	-0.200	0.580
2020/01/31 19:23:39.6	10.530	0.140	-0.150	0.620
2020/01/31 19:23:39.7	10.510	0.120	-0.090	0.660
2020/01/31 19:23:39.8	10.490	0.100	-0.040	0.690
2020/01/31 19:23:39.9	10.480	0.080	0.010	0.730
2020/01/31 19:23:40.0	10.470	0.060	0.060	0.760
2020/01/31 19:23:40.1	10.450	0.040	0.100	0.790
2020/01/31 19:23:40.2	10.430	0.030	0.140	0.810
2020/01/31 19:23:40.3	10.420	0.020	0.170	0.840
2020/01/31 19:23:40.4	10.400	0.010	0.210	0.860
2020/01/31 19:23:40.5	10.390	0.000	0.230	0.870
2020/01/31 19:23:40.6	10.370	0.000	0.250	0.890
2020/01/31 19:23:40.7	10.360	0.010	0.260	0.900
2020/01/31 19:23:40.8	10.340	0.010	0.270	0.900
2020/01/31 19:23:40.9	10.330	0.020	0.280	0.910
2020/01/31 19:23:41.0	10.320	0.030	0.270	0.910
2020/01/31 19:23:41.1	10.310	0.050	0.260	0.910
2020/01/31 19:23:41.2	10.310	0.060	0.250	0.910
2020/01/31 19:23:41.3	10.300	0.090	0.230	0.900
2020/01/31 19:23:41.4	10.300	0.110	0.200	0.890
2020/01/31 19:23:41.5	10.300	0.140	0.170	0.880
2020/01/31 19:23:41.6	10.300	0.160	0.140	0.870
2020/01/31 19:23:41.7	10.310	0.190	0.100	0.860
2020/01/31 19:23:41.8	10.310	0.220	0.060	0.850
2020/01/31 19:23:41.9	10.320	0.260	0.020	0.830
2020/01/31 19:23:42.0	10.330	0.290	-0.020	0.810
2020/01/31 19:23:42.1	10.340	0.320	-0.060	0.790
2020/01/31 19:23:42.2	10.360	0.350	-0.100	0.780
2020/01/31 19:23:42.3	10.380	0.390	-0.150	0.760
2020/01/31 19:23:42.4	10.400	0.420	-0.180	0.750
2020/01/31 19:23:42.5	10.420	0.450	-0.220	0.730
2020/01/31 19:23:42.6	10.440	0.470	-0.250	0.720
2020/01/31 19:23:42.7	10.470	0.500	-0.280	0.700
2020/01/31 19:23:42.8	10.500	0.520	-0.310	0.690
2020/01/31 19:23:42.9	10.520	0.540	-0.330	0.680
2020/01/31 19:23:43.0	10.550	0.560	-0.350	0.670
2020/01/31 19:23:43.1	10.590	0.570	-0.360	0.660
2020/01/31 19:23:43.2	10.620	0.580	-0.360	0.650
2020/01/31 19:23:43.3	10.650	0.590	-0.360	0.640
2020/01/31 19:23:43.4	10.690	0.590	-0.360	0.630
2020/01/31 19:23:43.5	10.720	0.580	-0.340	0.630
2020/01/31 19:23:43.6	10.750	0.580	-0.330	0.620
2020/01/31 19:23:43.7	10.790	0.560	-0.300	0.620
2020/01/31 19:23:43.8	10.820	0.550	-0.270	0.610
2020/01/31 19:23:43.9	10.850	0.520	-0.240	0.610
2020/01/31 19:23:44.0	10.880	0.500	-0.200	0.610
2020/01/31 19:23:44.1	10.900	0.460	-0.160	0.610
2020/01/31 19:23:44.2	10.930	0.430	-0.110	0.610
2020/01/31 19:23:44.3	10.950	0.390	-0.060	0.600
2020/01/31 19:23:44.4	10.970	0.340	-0.010	0.600
2020/01/31 19:23:44.5	10.990	0.290	0.040	0.600
2020/01/31 19:23:44.6	11.010	0.240	0.100	0.600
2020/01/31 19:23:44.7	11.020	0.180	0.150	0.600
2020/01/31 19:23:44.8	11.030	0.130	0.210	0.590
2020/01/31 19:23:44.9	11.040	0.060	0.260	0.590
2020/01/31 19:23:45.0	11.040	0.000	0.310	0.590
2020/01/31 19:23:45.1	11.040	-0.070	0.360	0.580
2020/01/31 19:23:45.2	11.050	-0.130	0.410	0.570
2020/01/31 19:23:45.3	11.040	-0.200	0.450	0.560
2020/01/31 19:23:45.4	11.040	-0.270	0.490	0.550
2020/01/31 19:23:45.5	11.030	-0.340	0.520	0.540
2020/01/31 19:23:45.6	11.020	-0.410	0.550	0.530
2020/01/31 19:23:45.7	11.010	-0.480	0.580	0.510
2020/01/31 19:23:45.8	11.000	-0.540	0.600	0.490
2020/01/31 19:23:45.9	10.990	-0.610	0.610	0.470
2020/01/31 19:23:46.0	10.970	-0.670	0.620	0.450
2020/01/31 19:23:46.1	10.960	-0.730	0.620	0.420
2020/01/31 19:23:46.2	10.940	-0.790	0.620	0.390
2020/01/31 19:23:46.3	10.920	-0.840	0.600	0.360
2020/01/31 19:23:46.4	10.900	-0.890	0.590	0.330
2020/01/31 19:23:46.5	10.880	-0.940	0.560	0.300
2020/01/31 19:23:46.6	10.870	-0.980	0.530	0.260
2020/01/31 19:23:46.7	10.850	-1.010	0.500	0.220
2020/01/31 19:23:46.8	10.830	-1.050	0.460	0.180
2020/01/31 19:23:46.9	10.810	-1.070	0.410	0.130
2020/01/31 19:23:47.0	10.800	-1.090	0.360	0.090
2020/01/31 19:23:47.1	10.780	-1.110	0.300	0.050
2020/01/31 19:23:47.2	10.770	-1.120	0.240	-0.000
2020/01/31 19:23:47.3	10.760	-1.120	0.180	-0.050
2020/01/31 19:23:47.4	10.760	-1.120	0.110	-0.100
2020/01/31 19:23:47.5	10.750	-1.110	0.040	-0.150
2020/01/31 19:23:47.6	10.750	-1.090	-0.040	-0.200
2020/01/31 19:23:47.7	10.750	-1.070	-0.110	-0.250
2020/01/31 19:23:47.8	10.750	-1.040	-0.180	-0.300
2020/01/31 19:23:47.9	10.740	-1.010	-0.260	-0.350
2020/01/31 19:23:48.0	10.740	-0.980	-0.340	-0.400
2020/01/31 19:23:48.1	10.750	-0.930	-0.410	-0.450
2020/01/31 19:23:48.2	10.750	-0.890	-0.480	-0.500
2020/01/31 19:23:48.3	10.760	-0.840	-0.550	-0.540
2020/01/31 19:23:48.4	10.770	-0.780	-0.620	-0.580
2020/01/31 19:23:48.5	10.780	-0.720	-0.680	-0.620
2020/01/31 19:23:48.6	10.790	-0.660	-0.740	-0.660
2020/01/31 19:23:48.7	10.800	-0.590	-0.800	-0.690
2020/01/31 19:23:48.8	10.810	-0.520	-0.850	-0.720
2020/01/31 19:23:48.9	10.820	-0.450	-0.890	-0.750
2020/01/31 19:23:49.0	10.830	-0.380	-0.930	-0.770
2020/01/31 19:23:49.1	10.840	-0.310	-0.960	-0.780
2020/01/31 19:23:49.2	10.840	-0.230	-0.990	-0.790
2020/01/31 19:23:49.3	10.850	-0.160	-1.010	-0.800
2020/01/31 19:23:49.4	10.860	-0.090	-1.020	-0.800
2020/01/31 19:23:49.5	10.870	-0.010	-1.030	-0.790
2020/01/31 19:23:49.6	10.870	0.060	-1.030	-0.780
2020/01/31 19:23:49.7	10.880	0.130	-1.020	-0.770
2020/01/31 19:23:49.8	10.880	0.200	-1.020	-0.750
2020/01/31 19:23:49.9	10.910	0.270	-1.000	-0.710
2020/01/31 19:23:50.0	10.920	0.330	-0.980	-0.690
2020/01/31 19:23:50.1	10.920	0.390	-0.960	-0.650
2020/01/31 19:23:50.2	10.930	0.450	-0.940	-0.620
2020/01/31 19:23:50.3	10.930	0.500	-0.910	-0.570
2020/01/31 19:23:50.4	10.940	0.550	-0.870	-0.530
2020/01/31 19:23:50.5	10.950	0.600	-0.840	-0.480
2020/01/31 19:23:50.6	10.950	0.640	-0.800	-0.430
2020/01/31 19:23:50.7	10.960	0.680	-0.770	-0.380
2020/01/31 19:23:50.8	10.970	0.710	-0.730	-0.320
2020/01/31 19:23:50.9	10.990	0.740	-0.690	-0.260
2020/01/31 19:23:51.0	11.010	0.770	-0.650	-0.200
2020/01/31 19:23:51.1	11.020	0.790	-0.620	-0.130
2020/01/31 19:23:51.2	11.030	0.810	-0.580	-0.070
2020/01/31 19:23:51.3	11.050	0.820	-0.540	-0.010
2020/01/31 19:23:51.4	11.060	0.830	-0.510	0.060
2020/01/31 19:23:51.5	11.080	0.830	-0.470	0.130
2020/01/31 19:23:51.6	11.090	0.830	-0.440	0.190
2020/01/31 19:23:51.7	11.110	0.830	-0.410	0.260
2020/01/31 19:23:51.8	11.130	0.820	-0.380	0.330
2020/01/31 19:23:51.9	11.140	0.810	-0.350	0.400
2020/01/31 19:23:52.0	11.160	0.790	-0.320	0.460
2020/01/31 19:23:52.1	11.170	0.770	-0.290	0.530
2020/01/31 19:23:52.2	11.190	0.750	-0.260	0.590
2020/01/31 19:23:52.3	11.200	0.720	-0.240	0.660
2020/01/31 19:23:52.4	11.210	0.690	-0.210	0.720
2020/01/31 19:23:52.5	11.220	0.660	-0.180	0.780
2020/01/31 19:23:52.6	11.230	0.630	-0.160	0.840
2020/01/31 19:23:52.7	11.240	0.590	-0.130	0.900
2020/01/31 19:23:52.8	11.240	0.560	-0.110	0.960
2020/01/31 19:23:52.9	11.230	0.520	-0.080	1.010
2020/01/31 19:23:53.0	11.230	0.480	-0.060	1.060
2020/01/31 19:23:53.1	11.240	0.430	-0.040	1.110
2020/01/31 19:23:53.2	11.240	0.390	-0.020	1.150
2020/01/31 19:23:53.3	11.240	0.350	0.010	1.190
2020/01/31 19:23:53.4	11.240	0.300	0.030	1.220
2020/01/31 19:23:53.5	11.230	0.260	0.050	1.250
2020/01/31 19:23:53.6	11.230	0.220	0.070	1.280
2020/01/31 19:23:53.7	11.230	0.180	0.080	1.300
2020/01/31 19:23:53.8	11.230	0.130	0.100	1.310
2020/01/31 19:23:53.9	11.220	0.090	0.110	1.320
2020/01/31 19:23:54.0	11.220	0.050	0.120	1.320
2020/01/31 19:23:54.1	11.220	0.010	0.140	1.320
2020/01/31 19:23:54.2	11.220	-0.020	0.150	1.310
2020/01/31 19:23:54.3	11.220	-0.060	0.150	1.300
2020/01/31 19:23:54.4	11.230	-0.090	0.160	1.280
2020/01/31 19:23:54.5	11.240	-0.120	0.160	1.260
2020/01/31 19:23:54.6	11.240	-0.150	0.160	1.230
2020/01/31 19:23:54.7	11.260	-0.170	0.160	1.200
2020/01/31 19:23:54.8	11.270	-0.200	0.160	1.160
2020/01/31 19:23:54.9	11.270	-0.220	0.160	1.120
2020/01/31 19:23:55.0	11.290	-0.230	0.150	1.070
2020/01/31 19:23:55.1	11.310	-0.250	0.140	1.020
2020/01/31 19:23:55.2	11.330	-0.260	0.130	0.970
2020/01/31 19:23:55.3	11.350	-0.270	0.110	0.920
2020/01/31 19:23:55.4	11.370	-0.280	0.100	0.860
2020/01/31 19:23:55.5	11.390	-0.280	0.080	0.810
2020/01/31 19:23:55.6	11.410	-0.280	0.060	0.750
2020/01/31 19:23:55.7	11.440	-0.280	0.040	0.700
2020/01/31 19:23:55.8	11.460	-0.270	0.030	0.650
2020/01/31 19:23:55.9	11.490	-0.270	0.000	0.590
2020/01/31 19:23:56.0	11.510	-0.260	-0.020	0.540
2020/01/31 19:23:56.1	11.530	-0.250	-0.040	0.490
2020/01/31 19:23:56.2	11.550	-0.240	-0.060	0.440
2020/01/31 19:23:56.3	11.570	-0.220	-0.080	0.390
2020/01/31 19:23:56.4	11.590	-0.210	-0.100	0.350
2020/01/31 19:23:56.5	11.610	-0.190	-0.120	0.310
2020/01/31 19:23:56.6	11.620	-0.170	-0.140	0.270
2020/01/31 19:23:56.7	11.640	-0.150	-0.150	0.230
2020/01/31 19:23:56.8	11.650	-0.130	-0.170	0.200
2020/01/31 19:23:56.9	11.660	-0.110	-0.190	0.170
2020/01/31 19:23:57.0	11.670	-0.090	-0.200	0.150
2020/01/31 19:23:57.1	11.670	-0.070	-0.220	0.120
2020/01/31 19:23:57.2	11.680	-0.050	-0.230	0.100
2020/01/31 19:23:57.3	11.680	-0.020	-0.250	0.090
2020/01/31 19:23:57.4	11.680	-0.000	-0.260	0.070
2020/01/31 19:23:57.5	11.680	0.020	-0.270	0.060
2020/01/31 19:23:57.6	11.680	0.040	-0.270	0.060
2020/01/31 19:23:57.7	11.680	0.060	-0.280	0.050
2020/01/31 19:23:57.8	11.670	0.080	-0.280	0.050
2020/01/31 19:23:57.9	11.670	0.100	-0.290	0.050
2020/01/31 19:23:58.0	11.660	0.120	-0.290	0.060
2020/01/31 19:23:58.1	11.650	0.130	-0.290	0.060
2020/01/31 19:23:58.2	11.650	0.150	-0.290	0.070
2020/01/31 19:23:58.3	11.640	0.160	-0.280	0.090
2020/01/31 19:23:58.4	11.630	0.180	-0.270	0.100
2020/01/31 19:23:58.5	11.620	0.190	-0.260	0.110
2020/01/31 19:23:58.6	11.600	0.200	-0.250	0.130
2020/01/31 19:23:58.7	11.590	0.200	-0.240	0.150
2020/01/31 19:23:58.8	11.580	0.210	-0.220	0.170
2020/01/31 19:23:58.9	11.580	0.210	-0.200	0.200
2020/01/31 19:23:59.0	11.560	0.220	-0.180	0.220
2020/01/31 19:23:59.1	11.550	0.220	-0.160	0.240
2020/01/31 19:23:59.2	11.540	0.210	-0.140	0.270
2020/01/31 19:23:59.3	11.530	0.210	-0.110	0.290
2020/01/31 19:23:59.4	11.520	0.210	-0.090	0.320
2020/01/31 19:23:59.5	11.500	0.200	-0.060	0.340
2020/01/31 19:23:59.6	11.490	0.190	-0.030	0.370
2020/01/31 19:23:59.7	11.480	0.180	0.000	0.390
2020/01/31 19:23:59.8	11.470	0.170	0.030	0.420
2020/01/31 19:23:59.9	11.460	0.160	0.060	0.440
2020/01/31 19:24:00.0	11.450	0.150	0.080	0.470
2020/01/31 19:24:00.1	11.440	0.130	0.110	0.490
2020/01/31 19:24:00.2	11.440	0.120	0.130	0.510
2020/01/31 19:24:00.3	11.430	0.100	0.160	0.530
2020/01/31 19:24:00.4	11.420	0.090	0.180	0.550
2020/01/31 19:24:00.5	11.420	0.070	0.190	0.560
2020/01/31 19:24:00.6	11.410	0.050	0.210	0.580
2020/01/31 19:24:00.7	11.410	0.040	0.220	0.590
2020/01/31 19:24:00.8	11.410	0.020	0.220	0.600
2020/01/31 19:24:00.9	11.410	0.000	0.220	0.600
2020/01/31 19:24:01.0	11.410	-0.010	0.220	0.600
2020/01/31 19:24:01.1	11.410	-0.030	0.210	0.600
2020/01/31 19:24:01.2	11.420	-0.040	0.200	0.590
2020/01/31 19:24:01.3	11.420	-0.060	0.180	0.580
2020/01/31 19:24:01.4	11.430	-0.070	0.150	0.570
2020/01/31 19:24:01.5	11.440	-0.090	0.120	0.550
2020/01/31 19:24:01.6	11.460	-0.100	0.090	0.530
2020/01/31 19:24:01.7	11.470	-0.110	0.050	0.500
2020/01/31 19:24:01.8	11.490	-0.120	0.010	0.470
2020/01/31 19:24:01.9	11.490	-0.130	-0.030	0.440
2020/01/31 19:24:02.0	11.510	-0.140	-0.080	0.400
2020/01/31 19:24:02.1	11.530	-0.150	-0.130	0.360
2020/01/31 19:24:02.2	11.560	-0.160	-0.190	0.310
2020/01/31 19:24:02.3	11.580	-0.170	-0.240	0.260
2020/01/31 19:24:02.4	11.600	-0.170	-0.290	0.210
2020/01/31 19:24:02.5	11.630	-0.180	-0.350	0.150
2020/01/31 19:24:02.6	11.650	-0.190	-0.400	0.090
2020/01/31 19:24:02.7	11.680	-0.190	-0.450	0.030
2020/01/31 19:24:02.8	11.710	-0.200	-0.500	-0.040
2020/01/31 19:24:02.9	11.730	-0.200	-0.550	-0.100
2020/01/31 19:24:03.0	11.760	-0.210	-0.590	-0.170
2020/01/31 19:24:03.1	11.780	-0.210	-0.630	-0.240
2020/01/31 19:24:03.2	11.810	-0.220	-0.660	-0.310
2020/01/31 19:24:03.3	11.840	-0.220	-0.690	-0.380
2020/01/31 19:24:03.4	11.870	-0.220	-0.720	-0.450
2020/01/31 19:24:03.5	11.900	-0.230	-0.730	-0.520
2020/01/31 19:24:03.6	11.920	-0.230	-0.750	-0.590
2020/01/31 19:24:03.7	11.950	-0.230	-0.750	-0.650
2020/01/31 19:24:03.8	11.980	-0.240	-0.760	-0.720
2020/01/31 19:24:03.9	12.000	-0.240	-0.750	-0.780
2020/01/31 19:24:04.0	12.030	-0.240	-0.740	-0.830
2020/01/31 19:24:04.1	12.050	-0.240	-0.720	-0.890
2020/01/31 19:24:04.2	12.080	-0.250	-0.700	-0.940
2020/01/31 19:24:04.3	12.100	-0.250	-0.680	-0.980
2020/01/31 19:24:04.4	12.120	-0.250	-0.640	-1.020
2020/01/31 19:24:04.5	12.140	-0.250	-0.610	-1.050
2020/01/31 19:24:04.6	12.160	-0.250	-0.560	-1.070
2020/01/31 19:24:04.7	12.180	-0.240	-0.520	-1.090
2020/01/31 19:24:04.8	12.190	-0.240	-0.470	-1.110
2020/01/31 19:24:04.9	12.210	-0.240	-0.420	-1.110
2020/01/31 19:24:05.0	12.220	-0.230	-0.370	-1.110
2020/01/31 19:24:05.1	12.230	-0.220	-0.310	-1.110
2020/01/31 19:24:05.2	12.240	-0.220	-0.260	-1.090
2020/01/31 19:24:05.3	12.250	-0.210	-0.200	-1.070
2020/01/31 19:24:05.4	12.250	-0.200	-0.150	-1.050
2020/01/31 19:24:05.5	12.260	-0.190	-0.090	-1.020
2020/01/31 19:24:05.6	12.260	-0.170	-0.040	-0.980
2020/01/31 19:24:05.7	12.260	-0.160	0.010	-0.930
2020/01/31 19:24:05.8	12.250	-0.150	0.060	-0.890
2020/01/31 19:24:05.9	12.250	-0.130	0.100	-0.830
2020/01/31 19:24:06.0	12.250	-0.120	0.140	-0.770
2020/01/31 19:24:06.1	12.240	-0.100	0.180	-0.710
2020/01/31 19:24:06.2	12.230	-0.080	0.210	-0.650
2020/01/31 19:24:06.3	12.230	-0.060	0.240	-0.580
2020/01/31 19:24:06.4	12.220	-0.040	0.260	-0.510
2020/01/31 19:24:06.5	12.200	-0.020	0.270	-0.440
2020/01/31 19:24:06.6	12.190	-0.000	0.280	-0.370
2020/01/31 19:24:06.7	12.180	0.020	0.280	-0.300
2020/01/31 19:24:06.8	12.170	0.040	0.280	-0.220
2020/01/31 19:24:06.9	12.150	0.060	0.270	-0.150
2020/01/31 19:24:07.0	12.140	0.080	0.260	-0.080
2020/01/31 19:24:07.1	12.130	0.100	0.240	-0.000
2020/01/31 19:24:07.2	12.110	0.120	0.210	0.070
2020/01/31 19:24:07.3	12.100	0.150	0.180	0.130
2020/01/31 19:24:07.4	12.090	0.170	0.140	0.200
2020/01/31 19:24:07.5	12.080	0.190	0.100	0.260
2020/01/31 19:24:07.6	12.060	0.210	0.050	0.320
2020/01/31 19:24:07.7	12.050	0.230	0.000	0.380
2020/01/31 19:24:07.8	12.050	0.250	-0.050	0.440
2020/01/31 19:24:07.9	12.030	0.260	-0.110	0.490
2020/01/31 19:24:08.0	12.030	0.280	-0.160	0.540
2020/01/31 19:24:08.1	12.020	0.290	-0.220	0.590
2020/01/31 19:24:08.2	12.020	0.310	-0.280	0.630
2020/01/31 19:24:08.3	12.020	0.320	-0.330	0.670
2020/01/31 19:24:08.4	12.020	0.330	-0.390	0.710
2020/01/31 19:24:08.5	12.020	0.340	-0.440	0.740
2020/01/31 19:24:08.6	12.030	0.340	-0.490	0.770
2020/01/31 19:24:08.7	12.030	0.350	-0.540	0.790
2020/01/31 19:24:08.8	12.040	0.350	-0.590	0.810
2020/01/31 19:24:08.9	12.060	0.350	-0.630	0.830
2020/01/31 19:24:09.0	12.070	0.350	-0.660	0.840
2020/01/31 19:24:09.1	12.090	0.350	-0.700	0.860
2020/01/31 19:24:09.2	12.100	0.340	-0.720	0.860
2020/01/31 19:24:09.3	12.120	0.330	-0.750	0.870
2020/01/31 19:24:09.4	12.150	0.320	-0.760	0.870
2020/01/31 19:24:09.5	12.170	0.310	-0.780	0.870
2020/01/31 19:24:09.6	12.190	0.300	-0.780	0.870
2020/01/31 19:24:09.7	12.220	0.280	-0.780	0.870
2020/01/31 19:24:09.8	12.250	0.270	-0.780	0.870
2020/01/31 19:24:09.9	12.290	0.250	-0.770	0.860
2020/01/31 19:24:10.0	12.320	0.230	-0.750	0.850
2020/01/31 19:24:10.1	12.350	0.210	-0.730	0.850
2020/01/31 19:24:10.2	12.380	0.190	-0.700	0.840
2020/01/31 19:24:10.3	12.410	0.170	-0.670	0.840
2020/01/31 19:24:10.4	12.450	0.150	-0.630	0.830
2020/01/31 19:24:10.5	12.480	0.130	-0.590	0.830
2020/01/31 19:24:10.6	12.520	0.110	-0.540	0.820
2020/01/31 19:24:10.7	12.550	0.080	-0.490	0.820
2020/01/31 19:24:10.8	12.580	0.060	-0.430	0.810
2020/01/31 19:24:10.9	12.600	0.040	-0.380	0.810
2020/01/31 19:24:11.0	12.630	0.020	-0.310	0.810
2020/01/31 19:24:11.1	12.660	-0.010	-0.250	0.810
2020/01/31 19:24:11.2	12.690	-0.030	-0.180	0.810
2020/01/31 19:24:11.3	12.710	-0.050	-0.120	0.810
2020/01/31 19:24:11.4	12.740	-0.070	-0.050	0.810
2020/01/31 19:24:11.5	12.760	-0.090	0.010	0.810
2020/01/31 19:24:11.6	12.780	-0.110	0.080	0.810
2020/01/31 19:24:11.7	12.800	-0.130	0.140	0.810
2020/01/31 19:24:11.8	12.820	-0.150	0.210	0.810
2020/01/31 19:24:11.9	12.850	-0.170	0.260	0.810
2020/01/31 19:24:12.0	12.860	-0.180	0.320	0.820
2020/01/31 19:24:12.1	12.870	-0.200	0.370	0.820
2020/01/31 19:24:12.2	12.870	-0.210	0.420	0.810
2020/01/31 19:24:12.3	12.880	-0.220	0.460	0.810
2020/01/31 19:24:12.4	12.880	-0.240	0.500	0.810
2020/01/31 19:24:12.5	12.870	-0.250	0.530	0.800
2020/01/31 19:24:12.6	12.870	-0.260	0.560	0.800
2020/01/31 19:24:12.7	12.860	-0.260	0.580	0.790
2020/01/31 19:24:12.8	12.850	-0.270	0.590	0.780
2020/01/31 19:24:12.9	12.840	-0.270	0.600	0.770
2020/01/31 19:24:13.0	12.830	-0.280	0.600	0.760
2020/01/31 19:24:13.1	12.810	-0.280	0.600	0.740
2020/01/31 19:24:13.2	12.790	-0.280	0.590	0.730
2020/01/31 19:24:13.3	12.780	-0.270	0.570	0.710
2020/01/31 19:24:13.4	12.760	-0.270	0.550	0.690
2020/01/31 19:24:13.5	12.730	-0.270	0.520	0.660
2020/01/31 19:24:13.6	12.710	-0.260	0.480	0.640
2020/01/31 19:24:13.7	12.690	-0.250	0.440	0.610
2020/01/31 19:24:13.8	12.670	-0.240	0.400	0.580
2020/01/31 19:24:13.9	12.650	-0.230	0.350	0.540
2020/01/31 19:24:14.0	12.630	-0.220	0.300	0.510
2020/01/31 19:24:14.1	12.610	-0.200	0.240	0.470
2020/01/31 19:24:14.2	12.590	-0.190	0.180	0.430
2020/01/31 19:24:14.3	12.570	-0.170	0.120	0.390
2020/01/31 19:24:14.4	12.560	-0.150	0.050	0.350
2020/01/31 19:24:14.5	12.540	-0.130	-0.010	0.310
2020/01/31 19:24:14.6	12.530	-0.110	-0.080	0.270
2020/01/31 19:24:14.7	12.520	-0.090	-0.150	0.230
2020/01/31 19:24:14.8	12.510	-0.070	-0.220	0.180
2020/01/31 19:24:14.9	12.500	-0.050	-0.280	0.140
2020/01/31 19:24:15.0	12.500	-0.030	-0.350	0.090
2020/01/31 19:24:15.1	12.500	-0.010	-0.420	0.050
2020/01/31 19:24:15.2	12.500	0.010	-0.480	0.000
2020/01/31 19:24:15.3	12.500	0.030	-0.540	-0.040
2020/01/31 19:24:15.4	12.510	0.050	-0.600	-0.090
2020/01/31 19:24:15.5	12.520	0.070	-0.650	-0.130
2020/01/31 19:24:15.6	12.540	0.090	-0.710	-0.180
2020/01/31 19:24:15.7	12.550	0.110	-0.760	-0.220
2020/01/31 19:24:15.8	12.570	0.130	-0.800	-0.270
2020/01/31 19:24:15.9	12.600	0.140	-0.840	-0.320
2020/01/31 19:24:16.0	12.630	0.160	-0.870	-0.360
2020/01/31 19:24:16.1	12.650	0.170	-0.910	-0.400
2020/01/31 19:24:16.2	12.680	0.180	-0.930	-0.440
2020/01/31 19:24:16.3	12.710	0.190	-0.950	-0.480
2020/01/31 19:24:16.4	12.740	0.200	-0.960	-0.520
2020/01/31 19:24:16.5	12.780	0.210	-0.970	-0.560
2020/01/31 19:24:16.6	12.810	0.210	-0.970	-0.590
2020/01/31 19:24:16.7	12.840	0.210	-0.970	-0.620
2020/01/31 19:24:16.8	12.880	0.220	-0.960	-0.650
2020/01/31 19:24:16.9	12.900	0.220	-0.950	-0.670
2020/01/31 19:24:17.0	12.930	0.210	-0.930	-0.690
2020/01/31 19:24:17.1	12.960	0.210	-0.900	-0.710
2020/01/31 19:24:17.2	12.990	0.210	-0.870	-0.730
2020/01/31 19:24:17.3	13.020	0.200	-0.830	-0.740
2020/01/31 19:24:17.4	13.050	0.200	-0.790	-0.740
2020/01/31 19:24:17.5	13.070	0.190	-0.740	-0.750
2020/01/31 19:24:17.6	13.090	0.180	-0.690	-0.750
2020/01/31 19:24:17.7	13.120	0.170	-0.640	-0.740
2020/01/31 19:24:17.8	13.140	0.160	-0.580	-0.730
2020/01/31 19:24:17.9	13.160	0.150	-0.520	-0.720
2020/01/31 19:24:18.0	13.170	0.140	-0.450	-0.700
2020/01/31 19:24:18.1	13.180	0.120	-0.390	-0.680
2020/01/31 19:24:18.2	13.200	0.110	-0.320	-0.660
2020/01/31 19:24:18.3	13.200	0.100	-0.250	-0.630
2020/01/31 19:24:18.4	13.210	0.080	-0.190	-0.600
2020/01/31 19:24:18.5	13.220	0.070	-0.120	-0.570
2020/01/31 19:24:18.6	13.220	0.050	-0.050	-0.530
2020/01/31 19:24:18.7	13.220	0.040	0.010	-0.500
2020/01/31 19:24:18.8	13.220	0.020	0.080	-0.460
2020/01/31 19:24:18.9	13.230	0.010	0.140	-0.410
2020/01/31 19:24:19.0	13.230	-0.000	0.190	-0.370
2020/01/31 19:24:19.1	13.220	-0.020	0.250	-0.330
2020/01/31 19:24:19.2	13.220	-0.030	0.300	-0.280
2020/01/31 19:24:19.3	13.210	-0.050	0.340	-0.240
2020/01/31 19:24:19.4	13.210	-0.060	0.390	-0.190
2020/01/31 19:24:19.5	13.200	-0.070	0.420	-0.150
2020/01/31 19:24:19.6	13.200	-0.080	0.450	-0.100
2020/01/31 19:24:19.7	13.200	-0.100	0.480	-0.060
2020/01/31 19:24:19.8	13.200	-0.110	0.500	-0.010
2020/01/31 19:24:19.9	13.190	-0.120	0.510	0.030
2020/01/31 19:24:20.0	13.190	-0.120	0.520	0.070
2020/01/31 19:24:20.1	13.190	-0.130	0.530	0.110
2020/01/31 19:24:20.2	13.190	-0.140	0.520	0.150
2020/01/31 19:24:20.3	13.200	-0.140	0.510	0.190
2020/01/31 19:24:20.4	13.200	-0.150	0.500	0.230
2020/01/31 19:24:20.5	13.210	-0.150	0.480	0.260
2020/01/31 19:24:20.6	13.230	-0.150	0.450	0.290
2020/01/31 19:24:20.7	13.240	-0.150	0.420	0.320
2020/01/31 19:24:20.8	13.250	-0.150	0.390	0.350
2020/01/31 19:24:20.9	13.280	-0.150	0.350	0.380
2020/01/31 19:24:21.0	13.300	-0.150	0.300	0.400
2020/01/31 19:24:21.1	13.320	-0.150	0.260	0.430
2020/01/31 19:24:21.2	13.340	-0.140	0.210	0.450
2020/01/31 19:24:21.3	13.360	-0.140	0.160	0.470
2020/01/31 19:24:21.4	13.380	-0.130	0.100	0.490
2020/01/31 19:24:21.5	13.410	-0.130	0.050	0.510
2020/01/31 19:24:21.6	13.430	-0.120	-0.000	0.530
2020/01/31 19:24:21.7	13.460	-0.110	-0.060	0.550
2020/01/31 19:24:21.8	13.490	-0.100	-0.110	0.570
2020/01/31 19:24:21.9	13.520	-0.100	-0.160	0.590
2020/01/31 19:24:22.0	13.550	-0.090	-0.210	0.610
2020/01/31 19:24:22.1	13.570	-0.080	-0.260	0.630
2020/01/31 19:24:22.2	13.600	-0.070	-0.300	0.640
2020/01/31 19:24:22.3	13.620	-0.070	-0.350	0.660
2020/01/31 19:24:22.4	13.640	-0.060	-0.380	0.680
2020/01/31 19:24:22.5	13.670	-0.050	-0.420	0.700
2020/01/31 19:24:22.6	13.690	-0.050	-0.450	0.710
2020/01/31 19:24:22.7	13.710	-0.040	-0.470	0.730
2020/01/31 19:24:22.8	13.720	-0.040	-0.490	0.750
2020/01/31 19:24:22.9	13.750	-0.030	-0.510	0.760
2020/01/31 19:24:23.0	13.760	-0.030	-0.520	0.780
2020/01/31 19:24:23.1	13.770	-0.030	-0.530	0.800
2020/01/31 19:24:23.2	13.780	-0.030	-0.530	0.820
2020/01/31 19:24:23.3	13.790	-0.030	-0.530	0.830
2020/01/31 19:24:23.4	13.800	-0.030	-0.520	0.850
2020/01/31 19:24:23.5	13.800	-0.040	-0.510	0.870
2020/01/31 19:24:23.6	13.800	-0.040	-0.490	0.880
2020/01/31 19:24:23.7	13.800	-0.050	-0.470	0.900
2020/01/31 19:24:23.8	13.790	-0.060	-0.450	0.920
2020/01/31 19:24:23.9	13.780	-0.060	-0.430	0.930
2020/01/31 19:24:24.0	13.770	-0.080	-0.400	0.940
2020/01/31 19:24:24.1	13.760	-0.090	-0.370	0.960
2020/01/31 19:24:24.2	13.750	-0.100	-0.340	0.970
2020/01/31 19:24:24.3	13.730	-0.120	-0.310	0.980
2020/01/31 19:24:24.4	13.720	-0.130	-0.270	0.980
2020/01/31 19:24:24.5	13.700	-0.150	-0.240	0.990
2020/01/31 19:24:24.6	13.680	-0.170	-0.210	1.000
2020/01/31 19:24:24.7	13.660	-0.180	-0.180	1.000
2020/01/31 19:24:24.8	13.640	-0.200	-0.150	1.000
2020/01/31 19:24:24.9	13.630	-0.220	-0.130	1.000
2020/01/31 19:24:25.0	13.600	-0.240	-0.100	1.000
2020/01/31 19:24:25.1	13.580	-0.250	-0.070	1.000
2020/01/31 19:24:25.2	13.560	-0.270	-0.050	1.000
2020/01/31 19:24:25.3	13.540	-0.280	-0.030	0.990
2020/01/31 19:24:25.4	13.520	-0.290	-0.020	0.990
2020/01/31 19:24:25.5	13.500	-0.300	-0.000	0.980
2020/01/31 19:24:25.6	13.480	-0.310	0.000	0.970
2020/01/31 19:24:25.7	13.460	-0.310	0.010	0.960
2020/01/31 19:24:25.8	13.450	-0.310	0.010	0.950
2020/01/31 19:24:25.9	13.440	-0.310	0.010	0.920
2020/01/31 19:24:26.0	13.430	-0.310	0.000	0.910
2020/01/31 19:24:26.1	13.420	-0.300	-0.010	0.890
2020/01/31 19:24:26.2	13.420	-0.290	-0.020	0.860
2020/01/31 19:24:26.3	13.410	-0.270	-0.040	0.840
2020/01/31 19:24:26.4	13.410	-0.250	-0.060	0.810
2020/01/31 19:24:26.5	13.420	-0.230	-0.090	0.780
2020/01/31 19:24:26.6	13.420	-0.200	-0.120	0.750
2020/01/31 19:24:26.7	13.430	-0.170	-0.150	0.720
2020/01/31 19:24:26.8	13.440	-0.130	-0.180	0.690
2020/01/31 19:24:26.9	13.440	-0.090	-0.220	0.660
2020/01/31 19:24:27.0	13.450	-0.050	-0.260	0.620
2020/01/31 19:24:27.1	13.460	-0.000	-0.290	0.590
2020/01/31 19:24:27.2	13.480	0.050	-0.330	0.560
2020/01/31 19:24:27.3	13.500	0.100	-0.370	0.530
2020/01/31 19:24:27.4	13.510	0.160	-0.410	0.500
2020/01/31 19:24:27.5	13.530	0.210	-0.440	0.470
2020/01/31 19:24:27.6	13.550	0.270	-0.480	0.450
2020/01/31 19:24:27.7	13.570	0.330	-0.510	0.420
2020/01/31 19:24:27.8	13.580	0.390	-0.540	0.400
2020/01/31 19:24:27.9	13.610	0.450	-0.570	0.380
2020/01/31 19:24:28.0	13.620	0.500	-0.600	0.360
2020/01/31 19:24:28.1	13.640	0.560	-0.620	0.350
2020/01/31 19:24:28.2	13.660	0.610	-0.640	0.330
2020/01/31 19:24:28.3	13.680	0.660	-0.650	0.320
2020/01/31 19:24:28.4	13.700	0.710	-0.660	0.300
2020/01/31 19:24:28.5	13.720	0.750	-0.670	0.290
2020/01/31 19:24:28.6	13.740	0.790	-0.670	0.280
2020/01/31 19:24:28.7	13.760	0.830	-0.670	0.270
2020/01/31 19:24:28.8	13.780	0.850	-0.660	0.260
2020/01/31 19:24:28.9	13.800	0.880	-0.660	0.260
2020/01/31 19:24:29.0	13.820	0.890	-0.640	0.250
2020/01/31 19:24:29.1	13.840	0.900	-0.620	0.230
2020/01/31 19:24:29.2	13.860	0.900	-0.600	0.220
2020/01/31 19:24:29.3	13.890	0.890	-0.570	0.210
2020/01/31 19:24:29.4	13.910	0.880	-0.540	0.190
2020/01/31 19:24:29.5	13.940	0.860	-0.500	0.170
2020/01/31 19:24:29.6	13.970	0.830	-0.470	0.160
2020/01/31 19:24:29.7	13.990	0.790	-0.430	0.130
2020/01/31 19:24:29.8	14.020	0.750	-0.380	0.110
2020/01/31 19:24:29.9	14.050	0.700	-0.340	0.090
2020/01/31 19:24:30.0	14.080	0.640	-0.290	0.060
2020/01/31 19:24:30.1	14.110	0.580	-0.240	0.040
2020/01/31 19:24:30.2	14.140	0.510	-0.190	0.010
2020/01/31 19:24:30.3	14.160	0.430	-0.130	-0.020
2020/01/31 19:24:30.4	14.190	0.350	-0.080	-0.050
2020/01/31 19:24:30.5	14.220	0.270	-0.030	-0.080
2020/01/31 19:24:30.6	14.250	0.180	0.030	-0.110
2020/01/31 19:24:30.7	14.270	0.090	0.080	-0.140
2020/01/31 19:24:30.8	14.290	-0.010	0.130	-0.170
2020/01/31 19:24:30.9	14.320	-0.100	0.180	-0.200
2020/01/31 19:24:31.0	14.340	-0.200	0.230	-0.230
2020/01/31 19:24:31.1	14.360	-0.300	0.280	-0.260
2020/01/31 19:24:31.2	14.380	-0.390	0.330	-0.290
2020/01/31 19:24:31.3	14.390	-0.490	0.370	-0.320
2020/01/31 19:24:31.4	14.400	-0.580	0.410	-0.350
2020/01/31 19:24:31.5	14.410	-0.670	0.450	-0.380
2020/01/31 19:24:31.6	14.420	-0.760	0.490	-0.400
2020/01/31 19:24:31.7	14.420	-0.840	0.520	-0.430
2020/01/31 19:24:31.8	14.420	-0.920	0.550	-0.460
2020/01/31 19:24:31.9	14.420	-0.990	0.570	-0.480
2020/01/31 19:24:32.0	14.420	-1.060	0.600	-0.510
2020/01/31 19:24:32.1	14.420	-1.120	0.610	-0.530
2020/01/31 19:24:32.2	14.410	-1.170	0.620	-0.550
2020/01/31 19:24:32.3	14.400	-1.210	0.630	-0.570
2020/01/31 19:24:32.4	14.390	-1.250	0.630	-0.580
2020/01/31 19:24:32.5	14.380	-1.270	0.630	-0.600
2020/01/31 19:24:32.6	14.360	-1.290	0.620	-0.610
2020/01/31 19:24:32.7	14.350	-1.300	0.610	-0.620
2020/01/31 19:24:32.8	14.330	-1.300	0.590	-0.620
2020/01/31 19:24:32.9	14.300	-1.290	0.570	-0.630
2020/01/31 19:24:33.0	14.280	-1.270	0.540	-0.630
2020/01/31 19:24:33.1	14.260	-1.240	0.510	-0.620
2020/01/31 19:24:33.2	14.240	-1.200	0.480	-0.620
2020/01/31 19:24:33.3	14.220	-1.160	0.440	-0.600
2020/01/31 19:24:33.4	14.200	-1.100	0.390	-0.590
2020/01/31 19:24:33.5	14.180	-1.040	0.340	-0.570
2020/01/31 19:24:33.6	14.150	-0.970	0.290	-0.550
2020/01/31 19:24:33.7	14.130	-0.900	0.240	-0.520
2020/01/31 19:24:33.8	14.110	-0.810	0.180	-0.490
2020/01/31 19:24:33.9	14.080	-0.730	0.110	-0.460
2020/01/31 19:24:34.0	14.050	-0.630	0.050	-0.420
2020/01/31 19:24:34.1	14.030	-0.540	-0.010	-0.380
2020/01/31 19:24:34.2	14.000	-0.430	-0.080	-0.330
2020/01/31 19:24:34.3	13.980	-0.330	-0.140	-0.280
2020/01/31 19:24:34.4	13.950	-0.230	-0.210	-0.230
2020/01/31 19:24:34.5	13.930	-0.120	-0.270	-0.180
2020/01/31 19:24:34.6	13.900	-0.020	-0.340	-0.120
2020/01/31 19:24:34.7	13.880	0.090	-0.400	-0.060
2020/01/31 19:24:34.8	13.850	0.190	-0.470	0.000
2020/01/31 19:24:34.9	13.830	0.290	-0.530	0.070
2020/01/31 19:24:35.0	13.810	0.390	-0.590	0.140
2020/01/31 19:24:35.1	13.790	0.490	-0.640	0.200
2020/01/31 19:24:35.2	13.770	0.580	-0.700	0.270
2020/01/31 19:24:35.3	13.760	0.660	-0.750	0.330
2020/01/31 19:24:35.4	13.740	0.740	-0.800	0.400
2020/01/31 19:24:35.5	13.730	0.820	-0.850	0.460
2020/01/31 19:24:35.6	13.720	0.880	-0.890	0.530
2020/01/31 19:24:35.7	13.720	0.940	-0.940	0.590
2020/01/31 19:24:35.8	13.720	1.000	-0.970	0.650
2020/01/31 19:24:35.9	13.730	1.050	-1.010	0.700
2020/01/31 19:24:36.0	13.740	1.090	-1.040	0.760
2020/01/31 19:24:36.1	13.740	1.120	-1.060	0.810
2020/01/31 19:24:36.2	13.750	1.140	-1.080	0.860
2020/01/31 19:24:36.3	13.770	1.160	-1.100	0.900
2020/01/31 19:24:36.4	13.790	1.170	-1.110	0.940
2020/01/31 19:24:36.5	13.810	1.180	-1.110	0.970
2020/01/31 19:24:36.6	13.830	1.170	-1.120	1.000
2020/01/31 19:24:36.7	13.860	1.160	-1.110	1.030
2020/01/31 19:24:36.8	13.900	1.150	-1.100	1.050
2020/01/31 19:24:36.9	13.950	1.120	-1.090	1.060
2020/01/31 19:24:37.0	13.990	1.100	-1.070	1.070
2020/01/31 19:24:37.1	14.040	1.060	-1.050	1.080
2020/01/31 19:24:37.2	14.080	1.020	-1.020	1.080
2020/01/31 19:24:37.3	14.130	0.980	-0.990	1.080
2020/01/31 19:24:37.4	14.180	0.930	-0.960	1.070
2020/01/31 19:24:37.5	14.230	0.880	-0.920	1.060
2020/01/31 19:24:37.6	14.290	0.830	-0.870	1.040
2020/01/31 19:24:37.7	14.340	0.770	-0.830	1.020
2020/01/31 19:24:37.8	14.400	0.710	-0.770	1.000
2020/01/31 19:24:37.9	14.450	0.650	-0.720	0.970
2020/01/31 19:24:38.0	14.510	0.590	-0.660	0.940
2020/01/31 19:24:38.1	14.560	0.520	-0.590	0.910
2020/01/31 19:24:38.2	14.620	0.460	-0.530	0.880
2020/01/31 19:24:38.3	14.670	0.390	-0.460	0.850
2020/01/31 19:24:38.4	14.730	0.320	-0.390	0.820
2020/01/31 19:24:38.5	14.780	0.260	-0.320	0.790
2020/01/31 19:24:38.6	14.820	0.190	-0.240	0.760
2020/01/31 19:24:38.7	14.870	0.130	-0.170	0.730
2020/01/31 19:24:38.8	14.910	0.060	-0.090	0.700
2020/01/31 19:24:38.9	14.950	-0.000	-0.020	0.670
2020/01/31 19:24:39.0	14.980	-0.060	0.060	0.640
2020/01/31 19:24:39.1	15.010	-0.120	0.130	0.620
2020/01/31 19:24:39.2	15.040	-0.180	0.210	0.600
2020/01/31 19:24:39.3	15.070	-0.240	0.280	0.580
2020/01/31 19:24:39.4	15.090	-0.300	0.350	0.560
2020/01/31 19:24:39.5	15.100	-0.350	0.420	0.540
2020/01/31 19:24:39.6	15.110	-0.400	0.480	0.530
2020/01/31 19:24:39.7	15.120	-0.450	0.540	0.510
2020/01/31 19:24:39.8	15.120	-0.500	0.600	0.500
2020/01/31 19:24:39.9	15.110	-0.550	0.660	0.490
2020/01/31 19:24:40.0	15.110	-0.590	0.710	0.480
2020/01/31 19:24:40.1	15.100	-0.630	0.750	0.470
2020/01/31 19:24:40.2	15.090	-0.670	0.790	0.470
2020/01/31 19:24:40.3	15.070	-0.710	0.830	0.460
2020/01/31 19:24:40.4	15.050	-0.740	0.860	0.460
2020/01/31 19:24:40.5	15.020	-0.770	0.890	0.460
2020/01/31 19:24:40.6	14.990	-0.800	0.910	0.450
2020/01/31 19:24:40.7	14.960	-0.830	0.920	0.450
2020/01/31 19:24:40.8	14.930	-0.850	0.930	0.450
2020/01/31 19:24:40.9	14.890	-0.870	0.930	0.440
2020/01/31 19:24:41.0	14.850	-0.880	0.930	0.440
2020/01/31 19:24:41.1	14.810	-0.900	0.930	0.440
2020/01/31 19:24:41.2	14.770	-0.900	0.910	0.440
2020/01/31 19:24:41.3	14.730	-0.910	0.900	0.440
2020/01/31 19:24:41.4	14.690	-0.910	0.870	0.440
2020/01/31 19:24:41.5	14.640	-0.910	0.850	0.440
2020/01/31 19:24:41.6	14.600	-0.900	0.810	0.430
2020/01/31 19:24:41.7	14.560	-0.890	0.770	0.430
2020/01/31 19:24:41.8	14.530	-0.880	0.730	0.420
2020/01/31 19:24:41.9	14.490	-0.860	0.680	0.420
2020/01/31 19:24:42.0	14.460	-0.840	0.630	0.410
2020/01/31 19:24:42.1	14.430	-0.810	0.570	0.400
2020/01/31 19:24:42.2	14.400	-0.780	0.500	0.380
2020/01/31 19:24:42.3	14.380	-0.740	0.430	0.370
2020/01/31 19:24:42.4	14.360	-0.700	0.360	0.350
2020/01/31 19:24:42.5	14.340	-0.660	0.290	0.330
2020/01/31 19:24:42.6	14.330	-0.620	0.210	0.310
2020/01/31 19:24:42.7	14.330	-0.570	0.130	0.290
2020/01/31 19:24:42.8	14.320	-0.510	0.040	0.260
2020/01/31 19:24:42.9	14.320	-0.460	-0.040	0.230
2020/01/31 19:24:43.0	14.320	-0.400	-0.130	0.210
2020/01/31 19:24:43.1	14.330	-0.340	-0.210	0.180
2020/01/31 19:24:43.2	14.340	-0.280	-0.300	0.140
2020/01/31 19:24:43.3	14.360	-0.220	-0.380	0.110
2020/01/31 19:24:43.4	14.370	-0.150	-0.460	0.080
2020/01/31 19:24:43.5	14.390	-0.090	-0.540	0.050
2020/01/31 19:24:43.6	14.420	-0.030	-0.610	0.020
2020/01/31 19:24:43.7	14.440	0.040	-0.680	-0.010
2020/01/31 19:24:43.8	14.460	0.100	-0.750	-0.040
2020/01/31 19:24:43.9	14.490	0.160	-0.810	-0.070
2020/01/31 19:24:44.0	14.520	0.220	-0.870	-0.090
2020/01/31 19:24:44.1	14.550	0.280	-0.920	-0.120
2020/01/31 19:24:44.2	14.580	0.340	-0.960	-0.140
2020/01/31 19:24:44.3	14.610	0.390	-1.010	-0.160
2020/01/31 19:24:44.4	14.640	0.440	-1.040	-0.180
2020/01/31 19:24:44.5	14.670	0.490	-1.070	-0.190
2020/01/31 19:24:44.6	14.690	0.530	-1.100	-0.200
2020/01/31 19:24:44.7	14.720	0.570	-1.110	-0.220
2020/01/31 19:24:44.8	14.750	0.600	-1.130	-0.220
2020/01/31 19:24:44.9	14.780	0.630	-1.140	-0.230
2020/01/31 19:24:45.0	14.800	0.660	-1.140	-0.230
2020/01/31 19:24:45.1	14.830	0.680	-1.130	-0.230
2020/01/31 19:24:45.2	14.850	0.700	-1.120	-0.230
2020/01/31 19:24:45.3	14.870	0.710	-1.100	-0.230
2020/01/31 19:24:45.4	14.890	0.720	-1.080	-0.220
2020/01/31 19:24:45.5	14.910	0.720	-1.050	-0.220
2020/01/31 19:24:45.6	14.930	0.730	-1.020	-0.210
2020/01/31 19:24:45.7	14.950	0.720	-0.990	-0.200
2020/01/31 19:24:45.8	14.960	0.720	-0.950	-0.190
2020/01/31 19:24:45.9	14.970	0.710	-0.910	-0.170
2020/01/31 19:24:46.0	14.990	0.690	-0.860	-0.160
2020/01/31 19:24:46.1	15.000	0.680	-0.820	-0.150
2020/01/31 19:24:46.2	15.020	0.660	-0.770	-0.130
2020/01/31 19:24:46.3	15.030	0.640	-0.720	-0.120
2020/01/31 19:24:46.4	15.040	0.610	-0.660	-0.100
2020/01/31 19:24:46.5	15.060	0.590	-0.610	-0.090
2020/01/31 19:24:46.6	15.070	0.560	-0.560	-0.070
2020/01/31 19:24:46.7	15.080	0.530	-0.510	-0.050
2020/01/31 19:24:46.8	15.090	0.500	-0.450	-0.040
2020/01/31 19:24:46.9	15.090	0.470	-0.400	-0.020
2020/01/31 19:24:47.0	15.100	0.440	-0.350	-0.000
2020/01/31 19:24:47.1	15.100	0.410	-0.300	0.020
2020/01/31 19:24:47.2	15.110	0.380	-0.250	0.040
2020/01/31 19:24:47.3	15.120	0.350	-0.200	0.060
2020/01/31 19:24:47.4	15.120	0.320	-0.150	0.090
2020/01/31 19:24:47.5	15.120	0.300	-0.110	0.110
2020/01/31 19:24:47.6	15.120	0.270	-0.060	0.140
2020/01/31 19:24:47.7	15.130	0.240	-0.020	0.170
2020/01/31 19:24:47.8	15.120	0.210	0.020	0.190
2020/01/31 19:24:47.9	15.130	0.180	0.050	0.230
2020/01/31 19:24:48.0	15.120	0.160	0.090	0.260
2020/01/31 19:24:48.1	15.120	0.130	0.120	0.290
2020/01/31 19:24:48.2	15.110	0.110	0.150	0.320
2020/01/31 19:24:48.3	15.100	0.090	0.170	0.350
2020/01/31 19:24:48.4	15.100	0.060	0.200	0.370
2020/01/31 19:24:48.5	15.090	0.040	0.220	0.400
2020/01/31 19:24:48.6	15.080	0.020	0.230	0.430
2020/01/31 19:24:48.7	15.070	-0.000	0.250	0.450
2020/01/31 19:24:48.8	15.060	-0.020	0.260	0.480
2020/01/31 19:24:48.9	15.040	-0.040	0.270	0.500
2020/01/31 19:24:49.0	15.030	-0.060	0.270	0.520
2020/01/31 19:24:49.1	15.020	-0.080	0.280	0.530
2020/01/31 19:24:49.2	15.010	-0.100	0.280	0.550
2020/01/31 19:24:49.3	15.000	-0.120	0.280	0.560
2020/01/31 19:24:49.4	14.990	-0.140	0.280	0.570
2020/01/31 19:24:49.5	14.980	-0.160	0.280	0.570
2020/01/31 19:24:49.6	14.970	-0.180	0.270	0.570
2020/01/31 19:24:49.7	14.970	-0.200	0.270	0.570
2020/01/31 19:24:49.8	14.960	-0.220	0.260	0.560
2020/01/31 19:24:49.9	14.960	-0.240	0.250	0.560
2020/01/31 19:24:50.0	14.950	-0.260	0.240	0.550
2020/01/31 19:24:50.1	14.950	-0.280	0.230	0.530
2020/01/31 19:24:50.2	14.950	-0.300	0.220	0.520
2020/01/31 19:24:50.3	14.960	-0.310	0.210	0.500
2020/01/31 19:24:50.4	14.960	-0.330	0.190	0.480
2020/01/31 19:24:50.5	14.960	-0.350	0.180	0.460
2020/01/31 19:24:50.6	14.970	-0.370	0.170	0.440
2020/01/31 19:24:50.7	14.980	-0.380	0.160	0.420
2020/01/31 19:24:50.8	14.990	-0.400	0.140	0.400
2020/01/31 19:24:50.9	15.000	-0.410	0.130	0.380
2020/01/31 19:24:51.0	15.010	-0.430	0.120	0.360
2020/01/31 19:24:51.1	15.020	-0.440	0.110	0.340
2020/01/31 19:24:51.2	15.040	-0.450	0.100	0.320
2020/01/31 19:24:51.3	15.050	-0.460	0.090	0.300
2020/01/31 19:24:51.4	15.070	-0.470	0.080	0.280
2020/01/31 19:24:51.5	15.090	-0.480	0.070	0.260
2020/01/31 19:24:51.6	15.100	-0.480	0.060	0.250
2020/01/31 19:24:51.7	15.120	-0.490	0.060	0.240
2020/01/31 19:24:51.8	15.140	-0.490	0.050	0.220
2020/01/31 19:24:51.9	15.160	-0.490	0.040	0.210
2020/01/31 19:24:52.0	15.180	-0.490	0.030	0.200
2020/01/31 19:24:52.1	15.200	-0.490	0.030	0.190
2020/01/31 19:24:52.2	15.230	-0.490	0.020	0.190
2020/01/31 19:24:52.3	15.250	-0.480	0.010	0.180
2020/01/31 19:24:52.4	15.280	-0.470	0.010	0.180
2020/01/31 19:24:52.5	15.300	-0.460	0.000	0.170
2020/01/31 19:24:52.6	15.320	-0.450	-0.010	0.170
2020/01/31 19:24:52.7	15.350	-0.440	-0.010	0.170
2020/01/31 19:24:52.8	15.370	-0.430	-0.020	0.170
2020/01/31 19:24:52.9	15.390	-0.410	-0.030	0.170
2020/01/31 19:24:53.0	15.420	-0.390	-0.040	0.170
2020/01/31 19:24:53.1	15.440	-0.370	-0.050	0.170
2020/01/31 19:24:53.2	15.460	-0.350	-0.060	0.180
2020/01/31 19:24:53.3	15.480	-0.330	-0.070	0.180
2020/01/31 19:24:53.4	15.500	-0.310	-0.080	0.190
2020/01/31 19:24:53.5	15.510	-0.280	-0.100	0.200
2020/01/31 19:24:53.6	15.530	-0.250	-0.110	0.210
2020/01/31 19:24:53.7	15.540	-0.230	-0.130	0.220
2020/01/31 19:24:53.8	15.550	-0.200	-0.140	0.230
2020/01/31 19:24:53.9	15.560	-0.170	-0.160	0.250
2020/01/31 19:24:54.0	15.560	-0.130	-0.180	0.270
2020/01/31 19:24:54.1	15.570	-0.100	-0.190	0.290
2020/01/31 19:24:54.2	15.570	-0.070	-0.210	0.310
2020/01/31 19:24:54.3	15.560	-0.030	-0.230	0.340
2020/01/31 19:24:54.4	15.560	0.000	-0.250	0.370
2020/01/31 19:24:54.5	15.550	0.040	-0.270	0.400
2020/01/31 19:24:54.6	15.540	0.080	-0.290	0.430
2020/01/31 19:24:54.7	15.530	0.110	-0.310	0.460
2020/01/31 19:24:54.8	15.510	0.150	-0.330	0.500
2020/01/31 19:24:54.9	15.500	0.180	-0.350	0.540
2020/01/31 19:24:55.0	15.480	0.220	-0.380	0.580
2020/01/31 19:24:55.1	15.460	0.260	-0.400	0.620
2020/01/31 19:24:55.2	15.440	0.290	-0.420	0.670
2020/01/31 19:24:55.3	15.420	0.330	-0.450	0.710
2020/01/31 19:24:55.4	15.400	0.360	-0.470	0.750
2020/01/31 19:24:55.5	15.380	0.400	-0.500	0.790
2020/01/31 19:24:55.6	15.360	0.430	-0.530	0.830
2020/01/31 19:24:55.7	15.340	0.460	-0.550	0.870
2020/01/31 19:24:55.8	15.330	0.490	-0.580	0.910
2020/01/31 19:24:55.9	15.310	0.520	-0.610	0.950
2020/01/31 19:24:56.0	15.300	0.540	-0.640	0.980
2020/01/31 19:24:56.1	15.290	0.570	-0.670	1.010
2020/01/31 19:24:56.2	15.280	0.590	-0.700	1.040
2020/01/31 19:24:56.3	15.270	0.610	-0.730	1.070
2020/01/31 19:24:56.4	15.270	0.630	-0.750	1.090
2020/01/31 19:24:56.5	15.270	0.640	-0.780	1.110
2020/01/31 19:24:56.6	15.270	0.660	-0.800	1.130
2020/01/31 19:24:56.7	15.270	0.670	-0.830	1.140
2020/01/31 19:24:56.8	15.280	0.680	-0.850	1.140
2020/01/31 19:24:56.9	15.270	0.680	-0.860	1.150
2020/01/31 19:24:57.0	15.290	0.690	-0.880	1.150
2020/01/31 19:24:57.1	15.300	0.690	-0.890	1.140
2020/01/31 19:24:57.2	15.320	0.680	-0.900	1.130
2020/01/31 19:24:57.3	15.340	0.680	-0.900	1.120
2020/01/31 19:24:57.4	15.360	0.670	-0.910	1.110
2020/01/31 19:24:57.5	15.380	0.660	-0.900	1.090
2020/01/31 19:24:57.6	15.410	0.640	-0.890	1.070
2020/01/31 19:24:57.7	15.430	0.620	-0.880	1.050
2020/01/31 19:24:57.8	15.460	0.600	-0.850	1.020
2020/01/31 19:24:57.9	15.470	0.570	-0.830	1.000
2020/01/31 19:24:58.0	15.490	0.540	-0.800	0.970
2020/01/31 19:24:58.1	15.510	0.510	-0.760	0.940
2020/01/31 19:24:58.2	15.530	0.470	-0.710	0.900
2020/01/31 19:24:58.3	15.550	0.430	-0.660	0.870
2020/01/31 19:24:58.4	15.570	0.390	-0.610	0.840
2020/01/31 19:24:58.5	15.580	0.340	-0.550	0.800
2020/01/31 19:24:58.6	15.590	0.290	-0.480	0.760
2020/01/31 19:24:58.7	15.590	0.240	-0.410	0.730
2020/01/31 19:24:58.8	15.600	0.190	-0.330	0.690
2020/01/31 19:24:58.9	15.600	0.140	-0.250	0.650
2020/01/31 19:24:59.0	15.600	0.080	-0.170	0.610
2020/01/31 19:24:59.1	15.600	0.030	-0.090	0.570
2020/01/31 19:24:59.2	15.590	-0.030	-0.000	0.530
2020/01/31 19:24:59.3	15.580	-0.080	0.080	0.490
2020/01/31 19:24:59.4	15.570	-0.140	0.170	0.450
2020/01/31 19:24:59.5	15.560	-0.190	0.250	0.410
2020/01/31 19:24:59.6	15.550	-0.250	0.340	0.370
2020/01/31 19:24:59.7	15.540	-0.300	0.420	0.320
2020/01/31 19:24:59.8	15.520	-0.350	0.490	0.280
2020/01/31 19:24:59.9	15.500	-0.400	0.570	0.230
2020/01/31 19:25:00.0	15.480	-0.440	0.630	0.180
2020/01/31 19:25:00.1	15.470	-0.480	0.700	0.130
2020/01/31 19:25:00.2	15.450	-0.520	0.750	0.090
2020/01/31 19:25:00.3	15.430	-0.550	0.800	0.040
2020/01/31 19:25:00.4	15.420	-0.580	0.850	-0.010
2020/01/31 19:25:00.5	15.400	-0.600	0.880	-0.060
2020/01/31 19:25:00.6	15.390	-0.620	0.910	-0.110
2020/01/31 19:25:00.7	15.370	-0.640	0.930	-0.150
2020/01/31 19:25:00.8	15.360	-0.650	0.940	-0.200
2020/01/31 19:25:00.9	15.340	-0.650	0.950	-0.250
2020/01/31 19:25:01.0	15.320	-0.650	0.940	-0.300
2020/01/31 19:25:01.1	15.310	-0.640	0.930	-0.340
2020/01/31 19:25:01.2	15.300	-0.630	0.910	-0.380
2020/01/31 19:25:01.3	15.290	-0.610	0.890	-0.410
2020/01/31 19:25:01.4	15.280	-0.590	0.850	-0.450
2020/01/31 19:25:01.5	15.280	-0.560	0.810	-0.480
2020/01/31 19:25:01.6	15.270	-0.530	0.770	-0.510
2020/01/31 19:25:01.7	15.260	-0.500	0.710	-0.540
2020/01/31 19:25:01.8	15.260	-0.460	0.650	-0.560
2020/01/31 19:25:01.9	15.260	-0.420	0.590	-0.570
2020/01/31 19:25:02.0	15.260	-0.370	0.530	-0.590
2020/01/31 19:25:02.1	15.260	-0.320	0.460	-0.600
2020/01/31 19:25:02.2	15.260	-0.270	0.380	-0.610
2020/01/31 19:25:02.3	15.260	-0.220	0.300	-0.620
2020/01/31 19:25:02.4	15.260	-0.170	0.220	-0.620
2020/01/31 19:25:02.5	15.260	-0.110	0.140	-0.620
2020/01/31 19:25:02.6	15.260	-0.060	0.060	-0.610
2020/01/31 19:25:02.7	15.260	-0.010	-0.020	-0.600
2020/01/31 19:25:02.8	15.270	0.050	-0.100	-0.590
2020/01/31 19:25:02.9	15.270	0.100	-0.180	-0.580
2020/01/31 19:25:03.0	15.280	0.150	-0.260	-0.560
2020/01/31 19:25:03.1	15.290	0.200	-0.340	-0.540
2020/01/31 19:25:03.2	15.290	0.250	-0.410	-0.520
2020/01/31 19:25:03.3	15.300	0.290	-0.480	-0.490
2020/01/31 19:25:03.4	15.320	0.330	-0.550	-0.470
2020/01/31 19:25:03.5	15.330	0.370	-0.610	-0.440
2020/01/31 19:25:03.6	15.340	0.400	-0.670	-0.410
2020/01/31 19:25:03.7	15.360	0.430	-0.720	-0.380
2020/01/31 19:25:03.8	15.370	0.460	-0.770	-0.350
2020/01/31 19:25:03.9	15.390	0.480	-0.810	-0.310
2020/01/31 19:25:04.0	15.410	0.500	-0.850	-0.280
2020/01/31 19:25:04.1	15.430	0.510	-0.890	-0.250
2020/01/31 19:25:04.2	15.450	0.520	-0.920	-0.210
2020/01/31 19:25:04.3	15.470	0.520	-0.940	-0.180
2020/01/31 19:25:04.4	15.490	0.520	-0.960	-0.150
2020/01/31 19:25:04.5	15.510	0.520	-0.980	-0.110
2020/01/31 19:25:04.6	15.530	0.510	-0.990	-0.080
2020/01/31 19:25:04.7	15.550	0.500	-1.000	-0.050
2020/01/31 19:25:04.8	15.580	0.480	-1.000	-0.020
2020/01/31 19:25:04.9	15.590	0.460	-1.000	0.000
2020/01/31 19:25:05.0	15.620	0.430	-1.000	0.030
2020/01/31 19:25:05.1	15.640	0.400	-0.990	0.050
2020/01/31 19:25:05.2	15.660	0.370	-0.980	0.080
2020/01/31 19:25:05.3	15.680	0.330	-0.970	0.100
2020/01/31 19:25:05.4	15.700	0.290	-0.950	0.120
2020/01/31 19:25:05.5	15.720	0.250	-0.920	0.140
2020/01/31 19:25:05.6	15.740	0.210	-0.900	0.160
2020/01/31 19:25:05.7	15.750	0.160	-0.870	0.180
2020/01/31 19:25:05.8	15.770	0.110	-0.830	0.200
2020/01/31 19:25:05.9	15.780	0.070	-0.800	0.220
2020/01/31 19:25:06.0	15.790	0.020	-0.750	0.230
2020/01/31 19:25:06.1	15.800	-0.040	-0.710	0.250
2020/01/31 19:25:06.2	15.800	-0.090	-0.660	0.270
2020/01/31 19:25:06.3	15.800	-0.140	-0.600	0.280
2020/01/31 19:25:06.4	15.800	-0.190	-0.550	0.300
2020/01/31 19:25:06.5	15.800	-0.240	-0.480	0.320
2020/01/31 19:25:06.6	15.790	-0.290	-0.420	0.330
2020/01/31 19:25:06.7	15.780	-0.330	-0.360	0.350
2020/01/31 19:25:06.8	15.770	-0.380	-0.290	0.370
2020/01/31 19:25:06.9	15.760	-0.420	-0.220	0.380
2020/01/31 19:25:07.0	15.740	-0.460	-0.140	0.400
2020/01/31 19:25:07.1	15.720	-0.500	-0.070	0.410
2020/01/31 19:25:07.2	15.700	-0.530	0.000	0.430
2020/01/31 19:25:07.3	15.680	-0.560	0.080	0.450
2020/01/31 19:25:07.4	15.660	-0.590	0.150	0.470
2020/01/31 19:25:07.5	15.630	-0.610	0.220	0.490
2020/01/31 19:25:07.6	15.610	-0.620	0.290	0.510
2020/01/31 19:25:07.7	15.580	-0.640	0.360	0.530
2020/01/31 19:25:07.8	15.550	-0.640	0.420	0.550
2020/01/31 19:25:07.9	15.530	-0.650	0.480	0.570
2020/01/31 19:25:08.0	15.500	-0.650	0.530	0.590
2020/01/31 19:25:08.1	15.470	-0.640	0.580	0.620
2020/01/31 19:25:08.2	15.440	-0.630	0.630	0.640
2020/01/31 19:25:08.3	15.420	-0.610	0.670	0.670
2020/01/31 19:25:08.4	15.390	-0.590	0.700	0.690
2020/01/31 19:25:08.5	15.360	-0.570	0.720	0.710
2020/01/31 19:25:08.6	15.340	-0.540	0.740	0.740
2020/01/31 19:25:08.7	15.310	-0.510	0.750	0.760
2020/01/31 19:25:08.8	15.290	-0.470	0.750	0.780
2020/01/31 19:25:08.9	15.270	-0.430	0.740	0.800
2020/01/31 19:25:09.0	15.250	-0.390	0.720	0.820
2020/01/31 19:25:09.1	15.230	-0.350	0.700	0.840
2020/01/31 19:25:09.2	15.210	-0.300	0.660	0.860
2020/01/31 19:25:09.3	15.200	-0.250	0.620	0.880
2020/01/31 19:25:09.4	15.180	-0.200	0.570	0.890
2020/01/31 19:25:09.5	15.170	-0.150	0.520	0.900
2020/01/31 19:25:09.6	15.160	-0.100	0.460	0.910
2020/01/31 19:25:09.7	15.160	-0.040	0.390	0.920
2020/01/31 19:25:09.8	15.150	0.010	0.320	0.930
2020/01/31 19:25:09.9	15.160	0.060	0.240	0.930
2020/01/31 19:25:10.0	15.150	0.110	0.160	0.930
2020/01/31 19:25:10.1	15.160	0.160	0.070	0.930
2020/01/31 19:25:10.2	15.160	0.210	-0.010	0.920
2020/01/31 19:25:10.3	15.170	0.260	-0.100	0.910
2020/01/31 19:25:10.4	15.180	0.300	-0.190	0.900
2020/01/31 19:25:10.5	15.190	0.350	-0.280	0.890
2020/01/31 19:25:10.6	15.200	0.390	-0.360	0.880
2020/01/31 19:25:10.7	15.210	0.420	-0.440	0.860
2020/01/31 19:25:10.8	15.230	0.460	-0.530	0.840
2020/01/31 19:25:10.9	15.240	0.490	-0.600	0.820
2020/01/31 19:25:11.0	15.260	0.510	-0.670	0.790
2020/01/31 19:25:11.1	15.280	0.540	-0.740	0.770
2020/01/31 19:25:11.2	15.300	0.560	-0.800	0.740
2020/01/31 19:25:11.3	15.330	0.580	-0.850	0.710
2020/01/31 19:25:11.4	15.350	0.590	-0.890	0.690
2020/01/31 19:25:11.5	15.370	0.600	-0.930	0.660
2020/01/31 19:25:11.6	15.390	0.600	-0.960	0.630
2020/01/31 19:25:11.7	15.410	0.610	-0.980	0.600
2020/01/31 19:25:11.8	15.430	0.600	-0.990	0.570
2020/01/31 19:25:11.9	15.450	0.600	-1.000	0.540
2020/01/31 19:25:12.0	15.470	0.590	-0.990	0.510
2020/01/31 19:25:12.1	15.490	0.580	-0.980	0.490
2020/01/31 19:25:12.2	15.500	0.570	-0.960	0.460
2020/01/31 19:25:12.3	15.520	0.550	-0.930	0.440
2020/01/31 19:25:12.4	15.530	0.530	-0.900	0.410
2020/01/31 19:25:12.5	15.540	0.510	-0.860	0.390
2020/01/31 19:25:12.6	15.550	0.480	-0.810	0.370
2020/01/31 19:25:12.7	15.560	0.460	-0.760	0.350
2020/01/31 19:25:12.8	15.560	0.430	-0.710	0.340
2020/01/31 19:25:12.9	15.560	0.400	-0.650	0.320
2020/01/31 19:25:13.0	15.560	0.370	-0.590	0.310
2020/01/31 19:25:13.1	15.560	0.340	-0.530	0.300
2020/01/31 19:25:13.2	15.550	0.310	-0.470	0.290
2020/01/31 19:25:13.3	15.540	0.270	-0.400	0.280
2020/01/31 19:25:13.4	15.530	0.240	-0.330	0.270
2020/01/31 19:25:13.5	15.520	0.210	-0.270	0.270
2020/01/31 19:25:13.6	15.510	0.180	-0.210	0.270
2020/01/31 19:25:13.7	15.490	0.150	-0.140	0.270
2020/01/31 19:25:13.8	15.480	0.110	-0.080	0.270
2020/01/31 19:25:13.9	15.470	0.090	-0.030	0.270
2020/01/31 19:25:14.0	15.450	0.060	0.020	0.270
2020/01/31 19:25:14.1	15.430	0.030	0.070	0.270
2020/01/31 19:25:14.2	15.410	0.010	0.110	0.280
2020/01/31 19:25:14.3	15.390	-0.020	0.150	0.280
2020/01/31 19:25:14.4	15.370	-0.040	0.180	0.280
2020/01/31 19:25:14.5	15.350	-0.060	0.210	0.280
2020/01/31 19:25:14.6	15.330	-0.080	0.230	0.280
2020/01/31 19:25:14.7	15.310	-0.090	0.240	0.270
2020/01/31 19:25:14.8	15.300	-0.100	0.250	0.270
2020/01/31 19:25:14.9	15.280	-0.110	0.240	0.260
2020/01/31 19:25:15.0	15.270	-0.120	0.240	0.250
2020/01/31 19:25:15.1	15.260	-0.130	0.220	0.240
2020/01/31 19:25:15.2	15.250	-0.130	0.210	0.220
2020/01/31 19:25:15.3	15.250	-0.140	0.180	0.200
2020/01/31 19:25:15.4	15.250	-0.140	0.150	0.180
2020/01/31 19:25:15.5	15.250	-0.140	0.120	0.150
2020/01/31 19:25:15.6	15.260	-0.130	0.080	0.120
2020/01/31 19:25:15.7	15.270	-0.130	0.030	0.090
2020/01/31 19:25:15.8	15.290	-0.130	-0.010	0.050
2020/01/31 19:25:15.9	15.310	-0.120	-0.060	0.010
2020/01/31 19:25:16.0	15.330	-0.120	-0.110	-0.030
2020/01/31 19:25:16.1	15.350	-0.110	-0.160	-0.080
2020/01/31 19:25:16.2	15.380	-0.110	-0.210	-0.120
2020/01/31 19:25:16.3	15.400	-0.100	-0.260	-0.170
2020/01/31 19:25:16.4	15.430	-0.100	-0.310	-0.220
2020/01/31 19:25:16.5	15.470	-0.090	-0.350	-0.270
2020/01/31 19:25:16.6	15.500	-0.090	-0.390	-0.320
2020/01/31 19:25:16.7	15.530	-0.090	-0.430	-0.370
2020/01/31 19:25:16.8	15.570	-0.090	-0.460	-0.420
2020/01/31 19:25:16.9	15.600	-0.090	-0.480	-0.470
2020/01/31 19:25:17.0	15.630	-0.100	-0.500	-0.510
2020/01/31 19:25:17.1	15.660	-0.100	-0.510	-0.550
2020/01/31 19:25:17.2	15.690	-0.110	-0.520	-0.590
2020/01/31 19:25:17.3	15.720	-0.120	-0.510	-0.630
2020/01/31 19:25:17.4	15.740	-0.130	-0.500	-0.660
2020/01/31 19:25:17.5	15.760	-0.140	-0.480	-0.680
2020/01/31 19:25:17.6	15.770	-0.150	-0.450	-0.700
2020/01/31 19:25:17.7	15.780	-0.170	-0.420	-0.720
2020/01/31 19:25:17.8	15.790	-0.180	-0.380	-0.720
2020/01/31 19:25:17.9	15.790	-0.200	-0.330	-0.730
2020/01/31 19:25:18.0	15.790	-0.220	-0.280	-0.720
2020/01/31 19:25:18.1	15.780	-0.240	-0.210	-0.720
2020/01/31 19:25:18.2	15.770	-0.260	-0.150	-0.700
2020/01/31 19:25:18.3	15.750	-0.280	-0.080	-0.680
2020/01/31 19:25:18.4	15.730	-0.310	-0.000	-0.660
2020/01/31 19:25:18.5	15.700	-0.330	0.070	-0.630
2020/01/31 19:25:18.6	15.670	-0.350	0.150	-0.590
2020/01/31 19:25:18.7	15.640	-0.370	0.230	-0.550
2020/01/31 19:25:18.8	15.600	-0.390	0.300	-0.510
2020/01/31 19:25:18.9	15.570	-0.400	0.370	-0.460
2020/01/31 19:25:19.0	15.520	-0.420	0.440	-0.410
2020/01/31 19:25:19.1	15.480	-0.430	0.510	-0.350
2020/01/31 19:25:19.2	15.430	-0.440	0.570	-0.300
2020/01/31 19:25:19.3	15.390	-0.450	0.620	-0.240
2020/01/31 19:25:19.4	15.340	-0.460	0.670	-0.180
2020/01/31 19:25:19.5	15.290	-0.460	0.710	-0.110
2020/01/31 19:25:19.6	15.240	-0.460	0.740	-0.050
2020/01/31 19:25:19.7	15.200	-0.450	0.760	0.010
2020/01/31 19:25:19.8	15.150	-0.450	0.770	0.070
2020/01/31 19:25:19.9	15.100	-0.440	0.770	0.130
2020/01/31 19:25:20.0	15.060	-0.420	0.760	0.180
2020/01/31 19:25:20.1	15.020	-0.400	0.740	0.240
2020/01/31 19:25:20.2	14.990	-0.380	0.700	0.290
2020/01/31 19:25:20.3	14.950	-0.360	0.660	0.330
2020/01/31 19:25:20.4	14.920	-0.330	0.610	0.380
2020/01/31 19:25:20.5	14.890	-0.300	0.550	0.420
2020/01/31 19:25:20.6	14.870	-0.260	0.480	0.460
2020/01/31 19:25:20.7	14.840	-0.230	0.400	0.490
2020/01/31 19:25:20.8	14.830	-0.190	0.310	0.520
2020/01/31 19:25:20.9	14.820	-0.150	0.220	0.550
2020/01/31 19:25:21.0	14.810	-0.100	0.120	0.580
2020/01/31 19:25:21.1	14.800	-0.060	0.020	0.600
2020/01/31 19:25:21.2	14.800	-0.010	-0.090	0.620
2020/01/31 19:25:21.3	14.800	0.030	-0.200	0.630
2020/01/31 19:25:21.4	14.800	0.080	-0.310	0.650
2020/01/31 19:25:21.5	14.800	0.120	-0.420	0.660
2020/01/31 19:25:21.6	14.810	0.170	-0.530	0.660
2020/01/31 19:25:21.7	14.820	0.210	-0.640	0.670
2020/01/31 19:25:21.8	14.840	0.250	-0.740	0.670
2020/01/31 19:25:21.9	14.860	0.290	-0.840	0.660
2020/01/31 19:25:22.0	14.880	0.330	-0.940	0.660
2020/01/31 19:25:22.1	14.910	0.370	-1.020	0.660
2020/01/31 19:25:22.2	14.940	0.400	-1.110	0.650
2020/01/31 19:25:22.3	14.970	0.430	-1.180	0.640
2020/01/31 19:25:22.4	15.000	0.460	-1.240	0.630
2020/01/31 19:25:22.5	15.030	0.480	-1.300	0.620
2020/01/31 19:25:22.6	15.070	0.500	-1.350	0.600
2020/01/31 19:25:22.7	15.110	0.520	-1.380	0.590
2020/01/31 19:25:22.8	15.150	0.530	-1.410	0.570
2020/01/31 19:25:22.9	15.190	0.540	-1.420	0.550
2020/01/31 19:25:23.0	15.230	0.550	-1.430	0.530
2020/01/31 19:25:23.1	15.270	0.550	-1.420	0.520
2020/01/31 19:25:23.2	15.320	0.550	-1.400	0.500
2020/01/31 19:25:23.3	15.360	0.540	-1.380	0.480
2020/01/31 19:25:23.4	15.400	0.530	-1.340	0.460
2020/01/31 19:25:23.5	15.450	0.520	-1.290	0.450
2020/01/31 19:25:23.6	15.490	0.500	-1.240	0.430
2020/01/31 19:25:23.7	15.530	0.480	-1.170	0.420
2020/01/31 19:25:23.8	15.560	0.460	-1.090	0.410
2020/01/31 19:25:23.9	15.600	0.440	-1.020	0.400
2020/01/31 19:25:24.0	15.630	0.410	-0.930	0.390
2020/01/31 19:25:24.1	15.660	0.380	-0.830	0.390
2020/01/31 19:25:24.2	15.690	0.350	-0.730	0.390
2020/01/31 19:25:24.3	15.720	0.320	-0.630	0.390
2020/01/31 19:25:24.4	15.740	0.290	-0.520	0.400
2020/01/31 19:25:24.5	15.760	0.260	-0.410	0.410
2020/01/31 19:25:24.6	15.770	0.220	-0.300	0.430
2020/01/31 19:25:24.7	15.780	0.190	-0.180	0.450
2020/01/31 19:25:24.8	15.790	0.160	-0.070	0.470
2020/01/31 19:25:24.9	15.790	0.120	0.050	0.500
2020/01/31 19:25:25.0	15.790	0.090	0.150	0.520
2020/01/31 19:25:25.1	15.780	0.060	0.260	0.550
2020/01/31 19:25:25.2	15.770	0.030	0.360	0.590
2020/01/31 19:25:25.3	15.760	-0.000	0.450	0.620
2020/01/31 19:25:25.4	15.740	-0.030	0.540	0.660
2020/01/31 19:25:25.5	15.730	-0.060	0.620	0.690
2020/01/31 19:25:25.6	15.700	-0.080	0.700	0.730
2020/01/31 19:25:25.7	15.680	-0.100	0.760	0.770
2020/01/31 19:25:25.8	15.650	-0.120	0.820	0.800
2020/01/31 19:25:25.9	15.610	-0.140	0.860	0.840
2020/01/31 19:25:26.0	15.570	-0.160	0.890	0.870
2020/01/31 19:25:26.1	15.540	-0.170	0.920	0.910
2020/01/31 19:25:26.2	15.500	-0.180	0.930	0.940
2020/01/31 19:25:26.3	15.470	-0.190	0.940	0.960
2020/01/31 19:25:26.4	15.430	-0.200	0.930	0.990
2020/01/31 19:25:26.5	15.390	-0.210	0.920	1.010
2020/01/31 19:25:26.6	15.350	-0.210	0.890	1.030
2020/01/31 19:25:26.7	15.310	-0.210	0.850	1.050
2020/01/31 19:25:26.8	15.270	-0.210	0.810	1.060
2020/01/31 19:25:26.9	15.230	-0.210	0.760	1.060
2020/01/31 19:25:27.0	15.190	-0.210	0.690	1.070
2020/01/31 19:25:27.1	15.150	-0.200	0.620	1.070
2020/01/31 19:25:27.2	15.110	-0.200	0.550	1.060
2020/01/31 19:25:27.3	15.070	-0.190	0.460	1.050
2020/01/31 19:25:27.4	15.040	-0.180	0.370	1.030
2020/01/31 19:25:27.5	15.000	-0.180	0.280	1.010
2020/01/31 19:25:27.6	14.970	-0.170	0.180	0.980
2020/01/31 19:25:27.7	14.940	-0.160	0.080	0.950
2020/01/31 19:25:27.8	14.900	-0.150	-0.020	0.910
2020/01/31 19:25:27.9	14.890	-0.140	-0.120	0.870
2020/01/31 19:25:28.0	14.860	-0.130	-0.230	0.820
2020/01/31 19:25:28.1	14.840	-0.120	-0.330	0.770
2020/01/31 19:25:28.2	14.820	-0.120	-0.430	0.710
2020/01/31 19:25:28.3	14.800	-0.110	-0.520	0.650
2020/01/31 19:25:28.4	14.780	-0.100	-0.620	0.590
2020/01/31 19:25:28.5	14.770	-0.090	-0.700	0.520
2020/01/31 19:25:28.6	14.760	-0.090	-0.790	0.450
2020/01/31 19:25:28.7	14.750	-0.080	-0.860	0.380
2020/01/31 19:25:28.8	14.750	-0.070	-0.930	0.300
2020/01/31 19:25:28.9	14.750	-0.060	-0.990	0.220
2020/01/31 19:25:29.0	14.760	-0.060	-1.050	0.140
2020/01/31 19:25:29.1	14.770	-0.050	-1.090	0.060
2020/01/31 19:25:29.2	14.780	-0.040	-1.130	-0.020
2020/01/31 19:25:29.3	14.790	-0.040	-1.160	-0.110
2020/01/31 19:25:29.4	14.810	-0.030	-1.180	-0.190
2020/01/31 19:25:29.5	14.830	-0.020	-1.190	-0.270
2020/01/31 19:25:29.6	14.850	-0.010	-1.190	-0.350
2020/01/31 19:25:29.7	14.880	-0.010	-1.180	-0.430
2020/01/31 19:25:29.8	14.910	0.000	-1.170	-0.510
2020/01/31 19:25:29.9	14.940	0.010	-1.150	-0.590
2020/01/31 19:25:30.0	14.970	0.020	-1.120	-0.670
2020/01/31 19:25:30.1	15.010	0.030	-1.080	-0.740
2020/01/31 19:25:30.2	15.050	0.050	-1.040	-0.810
2020/01/31 19:25:30.3	15.090	0.060	-0.980	-0.880
2020/01/31 19:25:30.4	15.130	0.070	-0.930	-0.940
2020/01/31 19:25:30.5	15.170	0.080	-0.870	-1.000
2020/01/31 19:25:30.6	15.220	0.100	-0.800	-1.060
2020/01/31 19:25:30.7	15.260	0.110	-0.730	-1.110
2020/01/31 19:25:30.8	15.310	0.120	-0.660	-1.160
2020/01/31 19:25:30.9	15.340	0.140	-0.590	-1.200
2020/01/31 19:25:31.0	15.390	0.150	-0.510	-1.240
2020/01/31 19:25:31.1	15.430	0.160	-0.440	-1.270
2020/01/31 19:25:31.2	15.470	0.170	-0.360	-1.300
2020/01/31 19:25:31.3	15.510	0.180	-0.280	-1.320
2020/01/31 19:25:31.4	15.550	0.190	-0.210	-1.340
2020/01/31 19:25:31.5	15.590	0.200	-0.140	-1.350
2020/01/31 19:25:31.6	15.630	0.200	-0.070	-1.360
2020/01/31 19:25:31.7	15.660	0.210	0.000	-1.360
2020/01/31 19:25:31.8	15.690	0.210	0.070	-1.360
2020/01/31 19:25:31.9	15.710	0.210	0.130	-1.340
2020/01/31 19:25:32.0	15.740	0.210	0.190	-1.330
2020/01/31 19:25:32.1	15.760	0.210	0.250	-1.310
2020/01/31 19:25:32.2	15.780	0.200	0.300	-1.280
2020/01/31 19:25:32.3	15.790	0.200	0.350	-1.250
2020/01/31 19:25:32.4	15.800	0.190	0.400	-1.220
2020/01/31 19:25:32.5	15.810	0.180	0.440	-1.180
2020/01/31 19:25:32.6	15.810	0.170	0.480	-1.130
2020/01/31 19:25:32.7	15.810	0.150	0.510	-1.080
2020/01/31 19:25:32.8	15.810	0.140	0.550	-1.020
2020/01/31 19:25:32.9	15.800	0.120	0.580	-0.960
2020/01/31 19:25:33.0	15.780	0.100	0.600	-0.900
2020/01/31 19:25:33.1	15.760	0.070	0.630	-0.830
2020/01/31 19:25:33.2	15.730	0.050	0.650	-0.760
2020/01/31 19:25:33.3	15.700	0.030	0.670	-0.680
2020/01/31 19:25:33.4	15.670	-0.000	0.690	-0.600
2020/01/31 19:25:33.5	15.630	-0.030	0.710	-0.520
2020/01/31 19:25:33.6	15.580	-0.060	0.720	-0.440
2020/01/31 19:25:33.7	15.540	-0.090	0.730	-0.350
2020/01/31 19:25:33.8	15.490	-0.120	0.740	-0.260
2020/01/31 19:25:33.9	15.430	-0.150	0.750	-0.160
2020/01/31 19:25:34.0	15.380	-0.180	0.750	-0.070
2020/01/31 19:25:34.1	15.320	-0.210	0.750	0.020
2020/01/31 19:25:34.2	15.270	-0.240	0.750	0.110
2020/01/31 19:25:34.3	15.210	-0.270	0.740	0.200
2020/01/31 19:25:34.4	15.150	-0.300	0.730	0.290
2020/01/31 19:25:34.5	15.100	-0.320	0.720	0.380
2020/01/31 19:25:34.6	15.040	-0.350	0.700	0.460
2020/01/31 19:25:34.7	14.990	-0.370	0.680	0.550
2020/01/31 19:25:34.8	14.940	-0.400	0.650	0.630
2020/01/31 19:25:34.9	14.890	-0.420	0.610	0.700
2020/01/31 19:25:35.0	14.850	-0.440	0.570	0.780
2020/01/31 19:25:35.1	14.800	-0.450	0.530	0.840
2020/01/31 19:25:35.2	14.760	-0.460	0.480	0.900
2020/01/31 19:25:35.3	14.730	-0.470	0.420	0.960
2020/01/31 19:25:35.4	14.700	-0.480	0.360	1.010
2020/01/31 19:25:35.5	14.670	-0.480	0.290	1.050
2020/01/31 19:25:35.6	14.650	-0.490	0.220	1.090
2020/01/31 19:25:35.7	14.630	-0.480	0.140	1.120
2020/01/31 19:25:35.8	14.620	-0.480	0.060	1.150
2020/01/31 19:25:35.9	14.610	-0.470	-0.030	1.160
2020/01/31 19:25:36.0	14.600	-0.460	-0.120	1.170
2020/01/31 19:25:36.1	14.610	-0.440	-0.220	1.180
2020/01/31 19:25:36.2	14.610	-0.420	-0.320	1.180
2020/01/31 19:25:36.3	14.620	-0.400	-0.420	1.170
2020/01/31 19:25:36.4	14.640	-0.380	-0.520	1.150
2020/01/31 19:25:36.5	14.660	-0.350	-0.620	1.130
2020/01/31 19:25:36.6	14.680	-0.320	-0.720	1.110
2020/01/31 19:25:36.7	14.710	-0.290	-0.820	1.080
2020/01/31 19:25:36.8	14.740	-0.260	-0.920	1.050
2020/01/31 19:25:36.9	14.780	-0.230	-1.020	1.010
2020/01/31 19:25:37.0	14.810	-0.190	-1.110	0.970
2020/01/31 19:25:37.1	14.850	-0.150	-1.200	0.920
2020/01/31 19:25:37.2	14.890	-0.120	-1.280	0.880
2020/01/31 19:25:37.3	14.930	-0.080	-1.360	0.830
2020/01/31 19:25:37.4	14.970	-0.040	-1.430	0.780
2020/01/31 19:25:37.5	15.010	-0.000	-1.490	0.730
2020/01/31 19:25:37.6	15.060	0.030	-1.550	0.680
2020/01/31 19:25:37.7	15.100	0.070	-1.600	0.630
2020/01/31 19:25:37.8	15.150	0.110	-1.630	0.580
2020/01/31 19:25:37.9	15.190	0.140	-1.660	0.530
2020/01/31 19:25:38.0	15.230	0.180	-1.670	0.480
2020/01/31 19:25:38.1	15.280	0.210	-1.680	0.430
2020/01/31 19:25:38.2	15.320	0.240	-1.680	0.390
2020/01/31 19:25:38.3	15.360	0.270	-1.670	0.340
2020/01/31 19:25:38.4	15.400	0.300	-1.640	0.300
2020/01/31 19:25:38.5	15.440	0.330	-1.610	0.260
2020/01/31 19:25:38.6	15.480	0.350	-1.570	0.230
2020/01/31 19:25:38.7	15.520	0.370	-1.520	0.200
2020/01/31 19:25:38.8	15.550	0.390	-1.450	0.170
2020/01/31 19:25:38.9	15.580	0.400	-1.390	0.140
2020/01/31 19:25:39.0	15.610	0.420	-1.310	0.120
2020/01/31 19:25:39.1	15.640	0.430	-1.230	0.110
2020/01/31 19:25:39.2	15.660	0.440	-1.130	0.100
2020/01/31 19:25:39.3	15.680	0.440	-1.030	0.090
2020/01/31 19:25:39.4	15.690	0.450	-0.930	0.090
2020/01/31 19:25:39.5	15.700	0.450	-0.820	0.090
2020/01/31 19:25:39.6	15.710	0.450	-0.710	0.100
2020/01/31 19:25:39.7	15.710	0.440	-0.600	0.110
2020/01/31 19:25:39.8	15.710	0.440	-0.480	0.130
2020/01/31 19:25:39.9	15.710	0.430	-0.360	0.150
2020/01/31 19:25:40.0	15.700	0.420	-0.240	0.180
2020/01/31 19:25:40.1	15.680	0.410	-0.130	0.200
2020/01/31 19:25:40.2	15.660	0.400	-0.010	0.240
2020/01/31 19:25:40.3	15.640	0.390	0.100	0.270
2020/01/31 19:25:40.4	15.620	0.370	0.210	0.310
2020/01/31 19:25:40.5	15.590	0.360	0.310	0.350
2020/01/31 19:25:40.6	15.550	0.340	0.410	0.390
2020/01/31 19:25:40.7	15.520	0.320	0.500	0.440
2020/01/31 19:25:40.8	15.480	0.310	0.580	0.480
2020/01/31 19:25:40.9	15.450	0.290	0.660	0.520
2020/01/31 19:25:41.0	15.410	0.270	0.730	0.570
2020/01/31 19:25:41.1	15.370	0.260	0.790	0.610
2020/01/31 19:25:41.2	15.330	0.240	0.840	0.660
2020/01/31 19:25:41.3	15.290	0.230	0.890	0.700
2020/01/31 19:25:41.4	15.250	0.220	0.920	0.740
2020/01/31 19:25:41.5	15.210	0.200	0.940	0.780
2020/01/31 19:25:41.6	15.170	0.190	0.960	0.820
2020/01/31 19:25:41.7	15.130	0.180	0.960	0.850
2020/01/31 19:25:41.8	15.090	0.170	0.960	0.880
2020/01/31 19:25:41.9	15.070	0.160	0.950	0.910
2020/01/31 19:25:42.0	15.030	0.160	0.930	0.930
2020/01/31 19:25:42.1	15.010	0.150	0.900	0.950
2020/01/31 19:25:42.2	14.980	0.150	0.860	0.970
2020/01/31 19:25:42.3	14.960	0.140	0.820	0.980
2020/01/31 19:25:42.4	14.940	0.140	0.770	0.990
2020/01/31 19:25:42.5	14.920	0.130	0.710	0.990
2020/01/31 19:25:42.6	14.910	0.130	0.650	0.990
2020/01/31 19:25:42.7	14.900	0.130	0.590	0.990
2020/01/31 19:25:42.8	14.890	0.120	0.520	0.980
2020/01/31 19:25:42.9	14.900	0.120	0.460	0.970
2020/01/31 19:25:43.0	14.900	0.110	0.390	0.950
2020/01/31 19:25:43.1	14.900	0.110	0.320	0.930
2020/01/31 19:25:43.2	14.900	0.100	0.250	0.900
2020/01/31 19:25:43.3	14.910	0.090	0.180	0.880
2020/01/31 19:25:43.4	14.920	0.080	0.110	0.840
2020/01/31 19:25:43.5	14.930	0.060	0.040	0.810
2020/01/31 19:25:43.6	14.950	0.050	-0.020	0.770
2020/01/31 19:25:43.7	14.960	0.030	-0.080	0.730
2020/01/31 19:25:43.8	14.980	0.010	-0.130	0.690
2020/01/31 19:25:43.9	14.980	-0.010	-0.180	0.640
2020/01/31 19:25:44.0	15.000	-0.030	-0.220	0.590
2020/01/31 19:25:44.1	15.010	-0.060	-0.260	0.540
2020/01/31 19:25:44.2	15.030	-0.090	-0.300	0.490
2020/01/31 19:25:44.3	15.040	-0.120	-0.330	0.440
2020/01/31 19:25:44.4	15.050	-0.150	-0.360	0.380
2020/01/31 19:25:44.5	15.060	-0.180	-0.380	0.320
2020/01/31 19:25:44.6	15.070	-0.220	-0.390	0.270
2020/01/31 19:25:44.7	15.080	-0.250	-0.400	0.210
2020/01/31 19:25:44.8	15.090	-0.290	-0.410	0.150
2020/01/31 19:25:44.9	15.090	-0.320	-0.410	0.090
2020/01/31 19:25:45.0	15.100	-0.360	-0.410	0.030
2020/01/31 19:25:45.1	15.110	-0.400	-0.400	-0.030
2020/01/31 19:25:45.2	15.110	-0.430	-0.390	-0.090
2020/01/31 19:25:45.3	15.110	-0.460	-0.370	-0.150
2020/01/31 19:25:45.4	15.120	-0.490	-0.360	-0.210
2020/01/31 19:25:45.5	15.120	-0.520	-0.340	-0.260
2020/01/31 19:25:45.6	15.120	-0.550	-0.320	-0.320
2020/01/31 19:25:45.7	15.120	-0.580	-0.300	-0.370
2020/01/31 19:25:45.8	15.120	-0.600	-0.270	-0.430
2020/01/31 19:25:45.9	15.130	-0.610	-0.250	-0.470
2020/01/31 19:25:46.0	15.140	-0.630	-0.230	-0.520
2020/01/31 19:25:46.1	15.140	-0.630	-0.210	-0.570
2020/01/31 19:25:46.2	15.140	-0.640	-0.190	-0.610
2020/01/31 19:25:46.3	15.140	-0.640	-0.170	-0.660
2020/01/31 19:25:46.4	15.150	-0.630	-0.160	-0.700
2020/01/31 19:25:46.5	15.150	-0.630	-0.150	-0.730
2020/01/31 19:25:46.6	15.150	-0.610	-0.140	-0.770
2020/01/31 19:25:46.7	15.160	-0.590	-0.140	-0.800
2020/01/31 19:25:46.8	15.170	-0.570	-0.140	-0.830
2020/01/31 19:25:46.9	15.170	-0.550	-0.140	-0.860
2020/01/31 19:25:47.0	15.180	-0.520	-0.150	-0.890
2020/01/31 19:25:47.1	15.190	-0.480	-0.160	-0.910
2020/01/31 19:25:47.2	15.190	-0.450	-0.170	-0.930
2020/01/31 19:25:47.3	15.200	-0.410	-0.190	-0.940
2020/01/31 19:25:47.4	15.210	-0.370	-0.210	-0.960
2020/01/31 19:25:47.5	15.220	-0.320	-0.230	-0.970
2020/01/31 19:25:47.6	15.220	-0.280	-0.250	-0.970
2020/01/31 19:25:47.7	15.230	-0.230	-0.280	-0.970
2020/01/31 19:25:47.8	15.240	-0.190	-0.300	-0.970
2020/01/31 19:25:47.9	15.240	-0.140	-0.330	-0.960
2020/01/31 19:25:48.0	15.250	-0.090	-0.360	-0.950
2020/01/31 19:25:48.1	15.250	-0.050	-0.390	-0.940
2020/01/31 19:25:48.2	15.260	-0.000	-0.410	-0.930
2020/01/31 19:25:48.3	15.260	0.040	-0.440	-0.910
2020/01/31 19:25:48.4	15.260	0.090	-0.470	-0.880
2020/01/31 19:25:48.5	15.260	0.130	-0.490	-0.860
2020/01/31 19:25:48.6	15.260	0.160	-0.510	-0.820
2020/01/31 19:25:48.7	15.250	0.200	-0.530	-0.790
2020/01/31 19:25:48.8	15.250	0.230	-0.540	-0.750
2020/01/31 19:25:48.9	15.240	0.260	-0.550	-0.700
2020/01/31 19:25:49.0	15.230	0.290	-0.560	-0.660
2020/01/31 19:25:49.1	15.220	0.320	-0.570	-0.610
2020/01/31 19:25:49.2	15.210	0.340	-0.570	-0.560
2020/01/31 19:25:49.3	15.190	0.360	-0.570	-0.510
2020/01/31 19:25:49.4	15.180	0.370	-0.560	-0.450
2020/01/31 19:25:49.5	15.160	0.380	-0.550	-0.400
2020/01/31 19:25:49.6	15.150	0.390	-0.540	-0.340
2020/01/31 19:25:49.7	15.130	0.400	-0.520	-0.280
2020/01/31 19:25:49.8	15.110	0.400	-0.500	-0.210
2020/01/31 19:25:49.9	15.090	0.400	-0.480	-0.150
2020/01/31 19:25:50.0	15.080	0.400	-0.460	-0.090
2020/01/31 19:25:50.1	15.060	0.390	-0.430	-0.030
2020/01/31 19:25:50.2	15.040	0.390	-0.400	0.040
2020/01/31 19:25:50.3	15.030	0.380	-0.370	0.100
2020/01/31 19:25:50.4	15.010	0.360	-0.340	0.160
2020/01/31 19:25:50.5	15.000	0.350	-0.310	0.220
2020/01/31 19:25:50.6	14.980	0.340	-0.280	0.280
2020/01/31 19:25:50.7	14.970	0.320	-0.250	0.340
2020/01/31 19:25:50.8	14.960	0.310	-0.210	0.400
2020/01/31 19:25:50.9	14.950	0.290	-0.180	0.470
2020/01/31 19:25:51.0	14.940	0.270	-0.150	0.520
2020/01/31 19:25:51.1	14.920	0.260	-0.120	0.570
2020/01/31 19:25:51.2	14.910	0.240	-0.090	0.630
2020/01/31 19:25:51.3	14.900	0.220	-0.060	0.680
2020/01/31 19:25:51.4	14.890	0.210	-0.030	0.730
2020/01/31 19:25:51.5	14.890	0.190	-0.010	0.770
2020/01/31 19:25:51.6	14.880	0.180	0.020	0.820
2020/01/31 19:25:51.7	14.870	0.170	0.040	0.860
2020/01/31 19:25:51.8	14.860	0.150	0.050	0.900
2020/01/31 19:25:51.9	14.870	0.140	0.070	0.940
2020/01/31 19:25:52.0	14.860	0.140	0.080	0.980
2020/01/31 19:25:52.1	14.860	0.130	0.090	1.010
2020/01/31 19:25:52.2	14.850	0.120	0.090	1.050
2020/01/31 19:25:52.3	14.850	0.120	0.100	1.070
2020/01/31 19:25:52.4	14.840	0.110	0.090	1.100
2020/01/31 19:25:52.5	14.840	0.110	0.090	1.130
2020/01/31 19:25:52.6	14.840	0.110	0.080	1.150
2020/01/31 19:25:52.7	14.840	0.110	0.070	1.160
2020/01/31 19:25:52.8	14.840	0.110	0.060	1.180
2020/01/31 19:25:52.9	14.840	0.120	0.040	1.190
2020/01/31 19:25:53.0	14.850	0.120	0.020	1.200
2020/01/31 19:25:53.1	14.850	0.120	-0.000	1.200
2020/01/31 19:25:53.2	14.860	0.130	-0.030	1.200
2020/01/31 19:25:53.3	14.870	0.130	-0.060	1.200
2020/01/31 19:25:53.4	14.880	0.140	-0.090	1.190
2020/01/31 19:25:53.5	14.890	0.140	-0.130	1.180
2020/01/31 19:25:53.6	14.900	0.150	-0.160	1.170
2020/01/31 19:25:53.7	14.920	0.150	-0.200	1.150
2020/01/31 19:25:53.8	14.930	0.150	-0.240	1.120
2020/01/31 19:25:53.9	14.950	0.160	-0.290	1.100
2020/01/31 19:25:54.0	14.970	0.160	-0.330	1.060
2020/01/31 19:25:54.1	14.990	0.160	-0.370	1.030
2020/01/31 19:25:54.2	15.010	0.160	-0.410	0.990
2020/01/31 19:25:54.3	15.030	0.150	-0.450	0.950
2020/01/31 19:25:54.4	15.050	0.150	-0.490	0.910
2020/01/31 19:25:54.5	15.080	0.140	-0.530	0.860
2020/01/31 19:25:54.6	15.100	0.130	-0.560	0.810
2020/01/31 19:25:54.7	15.130	0.120	-0.600	0.770
2020/01/31 19:25:54.8	15.150	0.110	-0.620	0.720
2020/01/31 19:25:54.9	15.180	0.090	-0.650	0.660
2020/01/31 19:25:55.0	15.200	0.080	-0.660	0.610
2020/01/31 19:25:55.1	15.220	0.060	-0.680	0.560
2020/01/31 19:25:55.2	15.240	0.040	-0.690	0.510
2020/01/31 19:25:55.3	15.260	0.020	-0.690	0.460
2020/01/31 19:25:55.4	15.280	-0.010	-0.690	0.410
2020/01/31 19:25:55.5	15.300	-0.030	-0.680	0.360
2020/01/31 19:25:55.6	15.320	-0.060	-0.670	0.310
2020/01/31 19:25:55.7	15.330	-0.080	-0.650	0.260
2020/01/31 19:25:55.8	15.340	-0.110	-0.620	0.220
2020/01/31 19:25:55.9	15.360	-0.140	-0.590	0.180
2020/01/31 19:25:56.0	15.360	-0.170	-0.550	0.140
2020/01/31 19:25:56.1	15.370	-0.190	-0.510	0.100
2020/01/31 19:25:56.2	15.380	-0.220	-0.460	0.070
2020/01/31 19:25:56.3	15.380	-0.250	-0.400	0.030
2020/01/31 19:25:56.4	15.380	-0.280	-0.340	0.010
2020/01/31 19:25:56.5	15.380	-0.300	-0.280	-0.020
2020/01/31 19:25:56.6	15.370	-0.330	-0.210	-0.040
2020/01/31 19:25:56.7	15.360	-0.350	-0.140	-0.060
2020/01/31 19:25:56.8	15.350	-0.370	-0.060	-0.080
2020/01/31 19:25:56.9	15.330	-0.390	0.010	-0.090
2020/01/31 19:25:57.0	15.320	-0.410	0.090	-0.100
2020/01/31 19:25:57.1	15.300	-0.430	0.170	-0.100
2020/01/31 19:25:57.2	15.280	-0.440	0.260	-0.100
2020/01/31 19:25:57.3	15.250	-0.450	0.340	-0.100
2020/01/31 19:25:57.4	15.220	-0.460	0.420	-0.090
2020/01/31 19:25:57.5	15.190	-0.470	0.500	-0.080
2020/01/31 19:25:57.6	15.160	-0.470	0.580	-0.060
2020/01/31 19:25:57.7	15.130	-0.470	0.650	-0.050
2020/01/31 19:25:57.8	15.090	-0.460	0.720	-0.020
2020/01/31 19:25:57.9	15.050	-0.460	0.790	0.010
2020/01/31 19:25:58.0	15.010	-0.450	0.850	0.030
2020/01/31 19:25:58.1	14.970	-0.430	0.900	0.070
2020/01/31 19:25:58.2	14.930	-0.420	0.940	0.100
2020/01/31 19:25:58.3	14.880	-0.400	0.980	0.130
2020/01/31 19:25:58.4	14.840	-0.370	1.010	0.170
2020/01/31 19:25:58.5	14.800	-0.350	1.030	0.210
2020/01/31 19:25:58.6	14.750	-0.320	1.040	0.240
2020/01/31 19:25:58.7	14.710	-0.280	1.040	0.280
2020/01/31 19:25:58.8	14.660	-0.250	1.020	0.320
2020/01/31 19:25:58.9	14.630	-0.210	1.000	0.350
2020/01/31 19:25:59.0	14.590	-0.170	0.970	0.390
2020/01/31 19:25:59.1	14.550	-0.130	0.920	0.420
2020/01/31 19:25:59.2	14.520	-0.090	0.870	0.450
2020/01/31 19:25:59.3	14.490	-0.040	0.800	0.470
2020/01/31 19:25:59.4	14.460	0.000	0.730	0.490
2020/01/31 19:25:59.5	14.430	0.050	0.650	0.510
2020/01/31 19:25:59.6	14.410	0.100	0.550	0.520
2020/01/31 19:25:59.7	14.400	0.140	0.450	0.530
2020/01/31 19:25:59.8	14.390	0.190	0.340	0.540
2020/01/31 19:25:59.9	14.390	0.240	0.230	0.540
2020/01/31 19:26:00.0	14.390	0.280	0.100	0.540
2020/01/31 19:26:00.1	14.390	0.330	-0.020	0.520
2020/01/31 19:26:00.2	14.400	0.370	-0.150	0.510
2020/01/31 19:26:00.3	14.410	0.410	-0.280	0.480
2020/01/31 19:26:00.4	14.430	0.440	-0.420	0.460
2020/01/31 19:26:00.5	14.450	0.480	-0.550	0.420
2020/01/31 19:26:00.6	14.480	0.510	-0.690	0.380
2020/01/31 19:26:00.7	14.510	0.530	-0.820	0.340
2020/01/31 19:26:00.8	14.550	0.560	-0.950	0.280
2020/01/31 19:26:00.9	14.580	0.570	-1.070	0.230
2020/01/31 19:26:01.0	14.620	0.590	-1.190	0.160
2020/01/31 19:26:01.1	14.670	0.590	-1.310	0.100
2020/01/31 19:26:01.2	14.730	0.600	-1.410	0.030
2020/01/31 19:26:01.3	14.780	0.590	-1.510	-0.040
2020/01/31 19:26:01.4	14.840	0.590	-1.600	-0.120
2020/01/31 19:26:01.5	14.900	0.570	-1.680	-0.190
2020/01/31 19:26:01.6	14.960	0.560	-1.750	-0.270
2020/01/31 19:26:01.7	15.020	0.530	-1.800	-0.350
2020/01/31 19:26:01.8	15.090	0.500	-1.850	-0.430
2020/01/31 19:26:01.9	15.140	0.470	-1.880	-0.510
2020/01/31 19:26:02.0	15.200	0.430	-1.900	-0.590
2020/01/31 19:26:02.1	15.270	0.390	-1.900	-0.660
2020/01/31 19:26:02.2	15.330	0.350	-1.890	-0.740
2020/01/31 19:26:02.3	15.380	0.300	-1.870	-0.810
2020/01/31 19:26:02.4	15.440	0.240	-1.830	-0.870
2020/01/31 19:26:02.5	15.490	0.190	-1.780	-0.930
2020/01/31 19:26:02.6	15.540	0.130	-1.720	-0.990
2020/01/31 19:26:02.7	15.590	0.070	-1.640	-1.040
2020/01/31 19:26:02.8	15.630	0.010	-1.550	-1.080
2020/01/31 19:26:02.9	15.660	-0.050	-1.450	-1.120
2020/01/31 19:26:03.0	15.690	-0.110	-1.340	-1.150
2020/01/31 19:26:03.1	15.710	-0.170	-1.220	-1.180
2020/01/31 19:26:03.2	15.730	-0.230	-1.080	-1.190
2020/01/31 19:26:03.3	15.750	-0.290	-0.940	-1.200
2020/01/31 19:26:03.4	15.750	-0.350	-0.800	-1.200
2020/01/31 19:26:03.5	15.750	-0.410	-0.640	-1.190
2020/01/31 19:26:03.6	15.750	-0.460	-0.490	-1.170
2020/01/31 19:26:03.7	15.740	-0.510	-0.330	-1.140
2020/01/31 19:26:03.8	15.720	-0.560	-0.160	-1.100
2020/01/31 19:26:03.9	15.670	-0.600	-0.000	-1.060
2020/01/31 19:26:04.0	15.640	-0.640	0.160	-1.000
2020/01/31 19:26:04.1	15.610	-0.670	0.320	-0.940
2020/01/31 19:26:04.2	15.570	-0.700	0.480	-0.870
2020/01/31 19:26:04.3	15.520	-0.720	0.630	-0.800
2020/01/31 19:26:04.4	15.470	-0.730	0.780	-0.710
2020/01/31 19:26:04.5	15.420	-0.750	0.920	-0.620
2020/01/31 19:26:04.6	15.360	-0.750	1.050	-0.530
2020/01/31 19:26:04.7	15.300	-0.750	1.170	-0.430
2020/01/31 19:26:04.8	15.230	-0.740	1.270	-0.320
2020/01/31 19:26:04.9	15.180	-0.730	1.370	-0.210
2020/01/31 19:26:05.0	15.110	-0.720	1.450	-0.100
2020/01/31 19:26:05.1	15.050	-0.690	1.520	0.010
2020/01/31 19:26:05.2	14.980	-0.660	1.570	0.120
2020/01/31 19:26:05.3	14.910	-0.630	1.610	0.230
2020/01/31 19:26:05.4	14.850	-0.590	1.630	0.340
2020/01/31 19:26:05.5	14.790	-0.550	1.640	0.450
2020/01/31 19:26:05.6	14.730	-0.500	1.630	0.560
2020/01/31 19:26:05.7	14.670	-0.450	1.610	0.660
2020/01/31 19:26:05.8	14.620	-0.400	1.570	0.760
2020/01/31 19:26:05.9	14.580	-0.340	1.510	0.860
2020/01/31 19:26:06.0	14.540	-0.280	1.450	0.950
2020/01/31 19:26:06.1	14.500	-0.220	1.360	1.040
2020/01/31 19:26:06.2	14.460	-0.150	1.270	1.110
2020/01/31 19:26:06.3	14.430	-0.090	1.160	1.190
2020/01/31 19:26:06.4	14.400	-0.020	1.040	1.250
2020/01/31 19:26:06.5	14.380	0.040	0.910	1.310
2020/01/31 19:26:06.6	14.370	0.110	0.770	1.360
2020/01/31 19:26:06.7	14.360	0.170	0.630	1.400
2020/01/31 19:26:06.8	14.350	0.230	0.480	1.430
2020/01/31 19:26:06.9	14.370	0.290	0.320	1.460
2020/01/31 19:26:07.0	14.380	0.350	0.170	1.480
2020/01/31 19:26:07.1	14.390	0.400	0.010	1.500
2020/01/31 19:26:07.2	14.410	0.450	-0.150	1.510
2020/01/31 19:26:07.3	14.430	0.500	-0.310	1.510
2020/01/31 19:26:07.4	14.450	0.540	-0.470	1.500
2020/01/31 19:26:07.5	14.480	0.570	-0.620	1.490
2020/01/31 19:26:07.6	14.510	0.610	-0.760	1.470
2020/01/31 19:26:07.7	14.540	0.630	-0.900	1.450
2020/01/31 19:26:07.8	14.580	0.650	-1.030	1.420
2020/01/31 19:26:07.9	14.610	0.670	-1.150	1.390
2020/01/31 19:26:08.0	14.650	0.670	-1.260	1.360
2020/01/31 19:26:08.1	14.690	0.680	-1.360	1.320
2020/01/31 19:26:08.2	14.730	0.670	-1.450	1.280
2020/01/31 19:26:08.3	14.770	0.670	-1.530	1.230
2020/01/31 19:26:08.4	14.810	0.650	-1.590	1.180
2020/01/31 19:26:08.5	14.850	0.630	-1.640	1.140
2020/01/31 19:26:08.6	14.890	0.610	-1.680	1.090
2020/01/31 19:26:08.7	14.920	0.580	-1.700	1.040
2020/01/31 19:26:08.8	14.960	0.540	-1.710	0.980
2020/01/31 19:26:08.9	14.990	0.500	-1.700	0.930
2020/01/31 19:26:09.0	15.020	0.460	-1.690	0.880
2020/01/31 19:26:09.1	15.040	0.420	-1.660	0.820
2020/01/31 19:26:09.2	15.070	0.370	-1.620	0.770
2020/01/31 19:26:09.3	15.090	0.320	-1.570	0.720
2020/01/31 19:26:09.4	15.110	0.270	-1.520	0.660
2020/01/31 19:26:09.5	15.130	0.220	-1.450	0.610
2020/01/31 19:26:09.6	15.140	0.160	-1.370	0.560
2020/01/31 19:26:09.7	15.150	0.110	-1.280	0.510
2020/01/31 19:26:09.8	15.160	0.060	-1.190	0.460
2020/01/31 19:26:09.9	15.170	0.010	-1.100	0.410
2020/01/31 19:26:10.0	15.170	-0.040	-1.000	0.360
2020/01/31 19:26:10.1	15.170	-0.090	-0.890	0.320
2020/01/31 19:26:10.2	15.170	-0.140	-0.780	0.280
2020/01/31 19:26:10.3	15.170	-0.180	-0.670	0.240
2020/01/31 19:26:10.4	15.160	-0.220	-0.560	0.200
2020/01/31 19:26:10.5	15.160	-0.260	-0.450	0.170
2020/01/31 19:26:10.6	15.150	-0.300	-0.340	0.130
2020/01/31 19:26:10.7	15.130	-0.330	-0.230	0.100
2020/01/31 19:26:10.8	15.120	-0.350	-0.120	0.070
2020/01/31 19:26:10.9	15.090	-0.380	-0.020	0.040
2020/01/31 19:26:11.0	15.080	-0.390	0.080	0.020
2020/01/31 19:26:11.1	15.060	-0.410	0.170	-0.000
2020/01/31 19:26:11.2	15.040	-0.410	0.260	-0.020
2020/01/31 19:26:11.3	15.020	-0.420	0.340	-0.040
2020/01/31 19:26:11.4	15.000	-0.420	0.410	-0.060
2020/01/31 19:26:11.5	14.980	-0.410	0.480	-0.070
2020/01/31 19:26:11.6	14.950	-0.400	0.540	-0.080
2020/01/31 19:26:11.7	14.930	-0.390	0.590	-0.090
2020/01/31 19:26:11.8	14.910	-0.370	0.630	-0.090
2020/01/31 19:26:11.9	14.880	-0.350	0.660	-0.090
2020/01/31 19:26:12.0	14.860	-0.320	0.690	-0.100
2020/01/31 19:26:12.1	14.830	-0.300	0.710	-0.090
2020/01/31 19:26:12.2	14.810	-0.260	0.720	-0.090
2020/01/31 19:26:12.3	14.790	-0.230	0.720	-0.090
2020/01/31 19:26:12.4	14.770	-0.190	0.720	-0.080
2020/01/31 19:26:12.5	14.740	-0.150	0.710	-0.070
2020/01/31 19:26:12.6	14.720	-0.110	0.690	-0.060
2020/01/31 19:26:12.7	14.700	-0.070	0.670	-0.050
2020/01/31 19:26:12.8	14.680	-0.030	0.640	-0.040
2020/01/31 19:26:12.9	14.660	0.020	0.610	-0.030
2020/01/31 19:26:13.0	14.640	0.060	0.570	-0.020
2020/01/31 19:26:13.1	14.630	0.100	0.520	-0.000
2020/01/31 19:26:13.2	14.610	0.140	0.480	0.010
2020/01/31 19:26:13.3	14.600	0.180	0.430	0.020
2020/01/31 19:26:13.4	14.590	0.220	0.380	0.030
2020/01/31 19:26:13.5	14.580	0.260	0.320	0.040
2020/01/31 19:26:13.6	14.570	0.300	0.270	0.060
2020/01/31 19:26:13.7	14.560	0.330	0.210	0.070
2020/01/31 19:26:13.8	14.560	0.360	0.150	0.070
2020/01/31 19:26:13.9	14.550	0.380	0.100	0.080
2020/01/31 19:26:14.0	14.550	0.410	0.040	0.090
2020/01/31 19:26:14.1	14.550	0.420	-0.020	0.090
2020/01/31 19:26:14.2	14.560	0.440	-0.070	0.100
2020/01/31 19:26:14.3	14.560	0.450	-0.120	0.100
2020/01/31 19:26:14.4	14.570	0.450	-0.170	0.100
2020/01/31 19:26:14.5	14.580	0.460	-0.220	0.100
2020/01/31 19:26:14.6	14.590	0.450	-0.260	0.100
2020/01/31 19:26:14.7	14.600	0.450	-0.300	0.090
2020/01/31 19:26:14.8	14.610	0.430	-0.340	0.080
2020/01/31 19:26:14.9	14.630	0.420	-0.370	0.080
2020/01/31 19:26:15.0	14.640	0.400	-0.400	0.070
2020/01/31 19:26:15.1	14.660	0.380	-0.420	0.060
2020/01/31 19:26:15.2	14.680	0.350	-0.440	0.050
2020/01/31 19:26:15.3	14.700	0.320	-0.460	0.030
2020/01/31 19:26:15.4	14.720	0.280	-0.470	0.020
2020/01/31 19:26:15.5	14.740	0.240	-0.470	0.010
2020/01/31 19:26:15.6	14.750	0.200	-0.470	-0.010
2020/01/31 19:26:15.7	14.770	0.160	-0.470	-0.020
2020/01/31 19:26:15.8	14.790	0.110	-0.450	-0.030
2020/01/31 19:26:15.9	14.810	0.070	-0.440	-0.040
2020/01/31 19:26:16.0	14.820	0.020	-0.420	-0.040
2020/01/31 19:26:16.1	14.830	-0.030	-0.400	-0.050
2020/01/31 19:26:16.2	14.840	-0.080	-0.370	-0.050
2020/01/31 19:26:16.3	14.850	-0.130	-0.330	-0.050
2020/01/31 19:26:16.4	14.850	-0.180	-0.290	-0.050
2020/01/31 19:26:16.5	14.850	-0.230	-0.250	-0.040
2020/01/31 19:26:16.6	14.850	-0.280	-0.210	-0.040
2020/01/31 19:26:16.7	14.850	-0.330	-0.170	-0.020
2020/01/31 19:26:16.8	14.840	-0.380	-0.120	-0.010
2020/01/31 19:26:16.9	14.840	-0.420	-0.080	0.000
2020/01/31 19:26:17.0	14.830	-0.470	-0.030	0.020
2020/01/31 19:26:17.1	14.810	-0.510	0.010	0.040
2020/01/31 19:26:17.2	14.800	-0.550	0.060	0.060
2020/01/31 19:26:17.3	14.790	-0.580	0.090	0.070
2020/01/31 19:26:17.4	14.780	-0.610	0.130	0.090
2020/01/31 19:26:17.5	14.760	-0.640	0.160	0.110
2020/01/31 19:26:17.6	14.750	-0.670	0.180	0.120
2020/01/31 19:26:17.7	14.740	-0.690	0.200	0.130
2020/01/31 19:26:17.8	14.730	-0.710	0.200	0.140
2020/01/31 19:26:17.9	14.720	-0.720	0.200	0.140
2020/01/31 19:26:18.0	14.710	-0.730	0.200	0.140
2020/01/31 19:26:18.1	14.700	-0.740	0.180	0.130
2020/01/31 19:26:18.2	14.690	-0.740	0.160	0.130
2020/01/31 19:26:18.3	14.690	-0.740	0.130	0.110
2020/01/31 19:26:18.4	14.690	-0.730	0.100	0.090
2020/01/31 19:26:18.5	14.690	-0.720	0.050	0.070
2020/01/31 19:26:18.6	14.690	-0.710	0.000	0.050
2020/01/31 19:26:18.7	14.690	-0.690	-0.050	0.020
2020/01/31 19:26:18.8	14.690	-0.670	-0.110	-0.010
2020/01/31 19:26:18.9	14.700	-0.640	-0.180	-0.050
2020/01/31 19:26:19.0	14.700	-0.610	-0.250	-0.080
2020/01/31 19:26:19.1	14.710	-0.580	-0.320	-0.120
2020/01/31 19:26:19.2	14.710	-0.550	-0.390	-0.150
2020/01/31 19:26:19.3	14.720	-0.510	-0.460	-0.180
2020/01/31 19:26:19.4	14.730	-0.470	-0.530	-0.220
2020/01/31 19:26:19.5	14.730	-0.420	-0.600	-0.250
2020/01/31 19:26:19.6	14.740	-0.380	-0.670	-0.280
2020/01/31 19:26:19.7	14.750	-0.330	-0.730	-0.310
2020/01/31 19:26:19.8	14.760	-0.280	-0.790	-0.340
2020/01/31 19:26:19.9	14.770	-0.220	-0.840	-0.360
2020/01/31 19:26:20.0	14.780	-0.170	-0.890	-0.380
2020/01/31 19:26:20.1	14.790	-0.120	-0.930	-0.390
2020/01/31 19:26:20.2	14.790	-0.060	-0.960	-0.400
2020/01/31 19:26:20.3	14.800	-0.000	-0.980	-0.410
2020/01/31 19:26:20.4	14.810	0.050	-0.990	-0.410
2020/01/31 19:26:20.5	14.820	0.110	-1.000	-0.410
2020/01/31 19:26:20.6	14.820	0.160	-0.990	-0.410
2020/01/31 19:26:20.7	14.830	0.220	-0.980	-0.400
2020/01/31 19:26:20.8	14.840	0.280	-0.960	-0.380
2020/01/31 19:26:20.9	14.850	0.330	-0.930	-0.360
2020/01/31 19:26:21.0	14.860	0.380	-0.890	-0.340
2020/01/31 19:26:21.1	14.860	0.430	-0.840	-0.310
2020/01/31 19:26:21.2	14.870	0.480	-0.790	-0.270
2020/01/31 19:26:21.3	14.870	0.530	-0.730	-0.230
2020/01/31 19:26:21.4	14.880	0.570	-0.670	-0.190
2020/01/31 19:26:21.5	14.880	0.620	-0.600	-0.140
2020/01/31 19:26:21.6	14.890	0.660	-0.530	-0.080
2020/01/31 19:26:21.7	14.890	0.690	-0.460	-0.030
2020/01/31 19:26:21.8	14.890	0.720	-0.390	0.030
2020/01/31 19:26:21.9	14.890	0.750	-0.320	0.100
2020/01/31 19:26:22.0	14.900	0.780	-0.250	0.160
2020/01/31 19:26:22.1	14.900	0.800	-0.180	0.220
2020/01/31 19:26:22.2	14.900	0.820	-0.120	0.290
2020/01/31 19:26:22.3	14.900	0.830	-0.060	0.350
2020/01/31 19:26:22.4	14.900	0.840	0.000	0.420
2020/01/31 19:26:22.5	14.900	0.850	0.050	0.480
2020/01/31 19:26:22.6	14.900	0.850	0.100	0.550
2020/01/31 19:26:22.7	14.910	0.850	0.140	0.610
2020/01/31 19:26:22.8	14.900	0.840	0.180	0.670
2020/01/31 19:26:22.9	14.910	0.830	0.200	0.720
2020/01/31 19:26:23.0	14.910	0.820	0.230	0.780
2020/01/31 19:26:23.1	14.900	0.800	0.240	0.830
2020/01/31 19:26:23.2	14.900	0.780	0.260	0.880
2020/01/31 19:26:23.3	14.900	0.750	0.260	0.920
2020/01/31 19:26:23.4	14.900	0.720	0.260	0.960
2020/01/31 19:26:23.5	14.900	0.690	0.260	1.000
2020/01/31 19:26:23.6	14.900	0.650	0.250	1.040
2020/01/31 19:26:23.7	14.900	0.610	0.240	1.070
2020/01/31 19:26:23.8	14.900	0.570	0.230	1.090
2020/01/31 19:26:23.9	14.910	0.520	0.210	1.120
2020/01/31 19:26:24.0	14.910	0.470	0.190	1.140
2020/01/31 19:26:24.1	14.910	0.420	0.170	1.160
2020/01/31 19:26:24.2	14.920	0.370	0.140	1.170
2020/01/31 19:26:24.3	14.920	0.310	0.120	1.170
2020/01/31 19:26:24.4	14.930	0.260	0.090	1.170
2020/01/31 19:26:24.5	14.940	0.200	0.060	1.170
2020/01/31 19:26:24.6	14.940	0.140	0.030	1.160
2020/01/31 19:26:24.7	14.950	0.080	0.000	1.150
2020/01/31 19:26:24.8	14.970	0.030	-0.030	1.130
2020/01/31 19:26:24.9	14.990	-0.030	-0.060	1.090
2020/01/31 19:26:25.0	15.000	-0.090	-0.080	1.070
2020/01/31 19:26:25.1	15.020	-0.140	-0.110	1.030
2020/01/31 19:26:25.2	15.040	-0.190	-0.140	0.990
2020/01/31 19:26:25.3	15.060	-0.250	-0.160	0.950
2020/01/31 19:26:25.4	15.080	-0.290	-0.190	0.900
2020/01/31 19:26:25.5	15.110	-0.340	-0.210	0.850
2020/01/31 19:26:25.6	15.130	-0.380	-0.230	0.790
2020/01/31 19:26:25.7	15.160	-0.420	-0.250	0.730
2020/01/31 19:26:25.8	15.190	-0.460	-0.270	0.660
2020/01/31 19:26:25.9	15.210	-0.490	-0.280	0.600
2020/01/31 19:26:26.0	15.230	-0.520	-0.290	0.530
2020/01/31 19:26:26.1	15.260	-0.540	-0.300	0.460
2020/01/31 19:26:26.2	15.290	-0.560	-0.310	0.390
2020/01/31 19:26:26.3	15.320	-0.570	-0.320	0.320
2020/01/31 19:26:26.4	15.350	-0.580	-0.320	0.250
2020/01/31 19:26:26.5	15.380	-0.590	-0.320	0.180
2020/01/31 19:26:26.6	15.410	-0.590	-0.310	0.110
2020/01/31 19:26:26.7	15.430	-0.590	-0.300	0.050
2020/01/31 19:26:26.8	15.460	-0.580	-0.290	-0.020
2020/01/31 19:26:26.9	15.480	-0.570	-0.280	-0.080
2020/01/31 19:26:27.0	15.500	-0.560	-0.260	-0.140
2020/01/31 19:26:27.1	15.520	-0.540	-0.240	-0.190
2020/01/31 19:26:27.2	15.540	-0.520	-0.210	-0.240
2020/01/31 19:26:27.3	15.560	-0.490	-0.190	-0.280
2020/01/31 19:26:27.4	15.570	-0.470	-0.160	-0.320
2020/01/31 19:26:27.5	15.580	-0.440	-0.130	-0.350
2020/01/31 19:26:27.6	15.590	-0.410	-0.090	-0.390
2020/01/31 19:26:27.7	15.600	-0.380	-0.060	-0.410
2020/01/31 19:26:27.8	15.610	-0.340	-0.020	-0.430
2020/01/31 19:26:27.9	15.610	-0.310	0.010	-0.450
2020/01/31 19:26:28.0	15.610	-0.270	0.050	-0.460
2020/01/31 19:26:28.1	15.610	-0.240	0.080	-0.460
2020/01/31 19:26:28.2	15.600	-0.210	0.120	-0.470
2020/01/31 19:26:28.3	15.600	-0.170	0.150	-0.460
2020/01/31 19:26:28.4	15.590	-0.140	0.190	-0.450
2020/01/31 19:26:28.5	15.580	-0.100	0.220	-0.440
2020/01/31 19:26:28.6	15.570	-0.070	0.240	-0.420
2020/01/31 19:26:28.7	15.550	-0.040	0.270	-0.390
2020/01/31 19:26:28.8	15.540	-0.010	0.290	-0.360
2020/01/31 19:26:28.9	15.510	0.010	0.310	-0.320
2020/01/31 19:26:29.0	15.490	0.040	0.320	-0.280
2020/01/31 19:26:29.1	15.470	0.060	0.330	-0.230
2020/01/31 19:26:29.2	15.450	0.080	0.330	-0.180
2020/01/31 19:26:29.3	15.430	0.100	0.330	-0.130
2020/01/31 19:26:29.4	15.400	0.120	0.330	-0.070
2020/01/31 19:26:29.5	15.380	0.140	0.310	-0.020
2020/01/31 19:26:29.6	15.360	0.150	0.300	0.040
2020/01/31 19:26:29.7	15.330	0.160	0.270	0.100
2020/01/31 19:26:29.8	15.310	0.170	0.250	0.160
2020/01/31 19:26:29.9	15.290	0.180	0.210	0.220
2020/01/31 19:26:30.0	15.270	0.180	0.180	0.280
2020/01/31 19:26:30.1	15.260	0.190	0.130	0.330
2020/01/31 19:26:30.2	15.240	0.190	0.080	0.380
2020/01/31 19:26:30.3	15.230	0.190	0.030	0.420
2020/01/31 19:26:30.4	15.220	0.190	-0.030	0.470
2020/01/31 19:26:30.5	15.220	0.190	-0.090	0.500
2020/01/31 19:26:30.6	15.220	0.180	-0.150	0.530
2020/01/31 19:26:30.7	15.220	0.180	-0.220	0.560
2020/01/31 19:26:30.8	15.230	0.170	-0.280	0.570
2020/01/31 19:26:30.9	15.240	0.160	-0.360	0.580
2020/01/31 19:26:31.0	15.250	0.150	-0.430	0.590
2020/01/31 19:26:31.1	15.270	0.140	-0.500	0.590
2020/01/31 19:26:31.2	15.290	0.130	-0.570	0.580
2020/01/31 19:26:31.3	15.320	0.110	-0.630	0.560
2020/01/31 19:26:31.4	15.350	0.100	-0.700	0.540
2020/01/31 19:26:31.5	15.380	0.080	-0.760	0.510
2020/01/31 19:26:31.6	15.420	0.060	-0.820	0.480
2020/01/31 19:26:31.7	15.450	0.040	-0.880	0.440
2020/01/31 19:26:31.8	15.500	0.030	-0.930	0.400
2020/01/31 19:26:31.9	15.540	0.000	-0.970	0.350
2020/01/31 19:26:32.0	15.590	-0.020	-1.000	0.300
2020/01/31 19:26:32.1	15.630	-0.040	-1.040	0.250
2020/01/31 19:26:32.2	15.680	-0.060	-1.060	0.190
2020/01/31 19:26:32.3	15.730	-0.090	-1.080	0.130
2020/01/31 19:26:32.4	15.770	-0.110	-1.080	0.070
2020/01/31 19:26:32.5	15.820	-0.140	-1.080	0.020
2020/01/31 19:26:32.6	15.870	-0.160	-1.080	-0.040
2020/01/31 19:26:32.7	15.910	-0.190	-1.060	-0.100
2020/01/31 19:26:32.8	15.950	-0.210	-1.040	-0.150
2020/01/31 19:26:32.9	15.990	-0.230	-1.010	-0.210
2020/01/31 19:26:33.0	16.030	-0.260	-0.970	-0.260
2020/01/31 19:26:33.1	16.060	-0.280	-0.920	-0.310
2020/01/31 19:26:33.2	16.100	-0.300	-0.870	-0.350
2020/01/31 19:26:33.3	16.120	-0.320	-0.810	-0.380
2020/01/31 19:26:33.4	16.150	-0.330	-0.740	-0.410
2020/01/31 19:26:33.5	16.170	-0.350	-0.660	-0.440
2020/01/31 19:26:33.6	16.190	-0.360	-0.590	-0.450
2020/01/31 19:26:33.7	16.200	-0.370	-0.500	-0.470
2020/01/31 19:26:33.8	16.210	-0.380	-0.420	-0.470
2020/01/31 19:26:33.9	16.210	-0.380	-0.330	-0.470
2020/01/31 19:26:34.0	16.210	-0.380	-0.240	-0.460
2020/01/31 19:26:34.1	16.200	-0.380	-0.150	-0.440
2020/01/31 19:26:34.2	16.190	-0.370	-0.060	-0.420
2020/01/31 19:26:34.3	16.180	-0.360	0.030	-0.380
2020/01/31 19:26:34.4	16.170	-0.350	0.120	-0.350
2020/01/31 19:26:34.5	16.150	-0.330	0.200	-0.300
2020/01/31 19:26:34.6	16.120	-0.310	0.290	-0.250
2020/01/31 19:26:34.7	16.100	-0.280	0.360	-0.200
2020/01/31 19:26:34.8	16.070	-0.250	0.430	-0.140
2020/01/31 19:26:34.9	16.040	-0.220	0.490	-0.080
2020/01/31 19:26:35.0	16.010	-0.180	0.550	-0.010
2020/01/31 19:26:35.1	15.970	-0.140	0.600	0.070
2020/01/31 19:26:35.2	15.940	-0.100	0.630	0.140
2020/01/31 19:26:35.3	15.900	-0.050	0.660	0.220
2020/01/31 19:26:35.4	15.860	0.000	0.690	0.300
2020/01/31 19:26:35.5	15.830	0.050	0.700	0.380
2020/01/31 19:26:35.6	15.790	0.110	0.700	0.460
2020/01/31 19:26:35.7	15.760	0.170	0.690	0.540
2020/01/31 19:26:35.8	15.720	0.230	0.670	0.620
2020/01/31 19:26:35.9	15.690	0.290	0.640	0.700
2020/01/31 19:26:36.0	15.660	0.350	0.600	0.780
2020/01/31 19:26:36.1	15.630	0.410	0.550	0.850
2020/01/31 19:26:36.2	15.610	0.470	0.500	0.910
2020/01/31 19:26:36.3	15.590	0.530	0.430	0.980
2020/01/31 19:26:36.4	15.570	0.580	0.360	1.030
2020/01/31 19:26:36.5	15.550	0.640	0.290	1.090
2020/01/31 19:26:36.6	15.540	0.690	0.210	1.130
2020/01/31 19:26:36.7	15.530	0.740	0.120	1.170
2020/01/31 19:26:36.8	15.520	0.780	0.030	1.200
2020/01/31 19:26:36.9	15.530	0.820	-0.060	1.230
2020/01/31 19:26:37.0	15.530	0.860	-0.150	1.250
2020/01/31 19:26:37.1	15.530	0.890	-0.240	1.260
2020/01/31 19:26:37.2	15.540	0.910	-0.340	1.260
2020/01/31 19:26:37.3	15.550	0.930	-0.430	1.260
2020/01/31 19:26:37.4	15.570	0.940	-0.520	1.250
2020/01/31 19:26:37.5	15.580	0.940	-0.600	1.240
2020/01/31 19:26:37.6	15.600	0.940	-0.680	1.210
2020/01/31 19:26:37.7	15.630	0.930	-0.760	1.190
2020/01/31 19:26:37.8	15.650	0.910	-0.830	1.160
2020/01/31 19:26:37.9	15.680	0.890	-0.900	1.120
2020/01/31 19:26:38.0	15.700	0.860	-0.950	1.080
2020/01/31 19:26:38.1	15.730	0.820	-1.000	1.030
2020/01/31 19:26:38.2	15.760	0.780	-1.040	0.990
2020/01/31 19:26:38.3	15.790	0.730	-1.070	0.940
2020/01/31 19:26:38.4	15.830	0.680	-1.090	0.880
2020/01/31 19:26:38.5	15.860	0.620	-1.110	0.830
2020/01/31 19:26:38.6	15.890	0.560	-1.110	0.770
2020/01/31 19:26:38.7	15.920	0.490	-1.110	0.710
2020/01/31 19:26:38.8	15.960	0.420	-1.090	0.650
2020/01/31 19:26:38.9	15.980	0.340	-1.070	0.590
2020/01/31 19:26:39.0	16.010	0.260	-1.040	0.520
2020/01/31 19:26:39.1	16.050	0.180	-1.010	0.460
2020/01/31 19:26:39.2	16.080	0.100	-0.960	0.400
2020/01/31 19:26:39.3	16.110	0.020	-0.910	0.330
2020/01/31 19:26:39.4	16.140	-0.060	-0.860	0.270
2020/01/31 19:26:39.5	16.160	-0.140	-0.790	0.200
2020/01/31 19:26:39.6	16.190	-0.220	-0.730	0.140
2020/01/31 19:26:39.7	16.220	-0.290	-0.660	0.080
2020/01/31 19:26:39.8	16.240	-0.370	-0.580	0.020
2020/01/31 19:26:39.9	16.270	-0.440	-0.500	-0.050
2020/01/31 19:26:40.0	16.290	-0.500	-0.420	-0.110
2020/01/31 19:26:40.1	16.310	-0.570	-0.340	-0.160
2020/01/31 19:26:40.2	16.330	-0.630	-0.260	-0.220
2020/01/31 19:26:40.3	16.340	-0.680	-0.170	-0.270
2020/01/31 19:26:40.4	16.360	-0.730	-0.090	-0.310
2020/01/31 19:26:40.5	16.370	-0.770	-0.010	-0.360
2020/01/31 19:26:40.6	16.380	-0.810	0.070	-0.400
2020/01/31 19:26:40.7	16.390	-0.840	0.150	-0.440
2020/01/31 19:26:40.8	16.390	-0.860	0.230	-0.470
2020/01/31 19:26:40.9	16.400	-0.880	0.310	-0.500
2020/01/31 19:26:41.0	16.400	-0.890	0.380	-0.530
2020/01/31 19:26:41.1	16.400	-0.900	0.440	-0.550
2020/01/31 19:26:41.2	16.390	-0.900	0.510	-0.570
2020/01/31 19:26:41.3	16.380	-0.900	0.570	-0.580
2020/01/31 19:26:41.4	16.370	-0.890	0.620	-0.590
2020/01/31 19:26:41.5	16.360	-0.870	0.670	-0.590
2020/01/31 19:26:41.6	16.350	-0.850	0.720	-0.590
2020/01/31 19:26:41.7	16.330	-0.820	0.760	-0.580
2020/01/31 19:26:41.8	16.310	-0.790	0.790	-0.570
2020/01/31 19:26:41.9	16.300	-0.760	0.810	-0.560
2020/01/31 19:26:42.0	16.280	-0.720	0.830	-0.540
2020/01/31 19:26:42.1	16.250	-0.680	0.840	-0.530
2020/01/31 19:26:42.2	16.230	-0.630	0.840	-0.510
2020/01/31 19:26:42.3	16.210	-0.580	0.840	-0.480
2020/01/31 19:26:42.4	16.180	-0.530	0.830	-0.460
2020/01/31 19:26:42.5	16.160	-0.480	0.810	-0.440
2020/01/31 19:26:42.6	16.140	-0.430	0.780	-0.410
2020/01/31 19:26:42.7	16.110	-0.370	0.750	-0.380
2020/01/31 19:26:42.8	16.090	-0.320	0.710	-0.350
2020/01/31 19:26:42.9	16.080	-0.260	0.670	-0.320
2020/01/31 19:26:43.0	16.060	-0.200	0.620	-0.290
2020/01/31 19:26:43.1	16.040	-0.150	0.560	-0.270
2020/01/31 19:26:43.2	16.030	-0.090	0.500	-0.240
2020/01/31 19:26:43.3	16.020	-0.040	0.430	-0.210
2020/01/31 19:26:43.4	16.000	0.010	0.360	-0.180
2020/01/31 19:26:43.5	15.990	0.060	0.290	-0.150
2020/01/31 19:26:43.6	15.990	0.110	0.220	-0.120
2020/01/31 19:26:43.7	15.980	0.160	0.140	-0.090
2020/01/31 19:26:43.8	15.980	0.200	0.060	-0.060
2020/01/31 19:26:43.9	15.960	0.240	-0.020	-0.020
2020/01/31 19:26:44.0	15.960	0.280	-0.090	0.010
2020/01/31 19:26:44.1	15.960	0.310	-0.160	0.050
2020/01/31 19:26:44.2	15.960	0.350	-0.230	0.080
2020/01/31 19:26:44.3	15.960	0.370	-0.300	0.120
2020/01/31 19:26:44.4	15.960	0.400	-0.360	0.160
2020/01/31 19:26:44.5	15.960	0.420	-0.420	0.200
2020/01/31 19:26:44.6	15.970	0.440	-0.480	0.250
2020/01/31 19:26:44.7	15.970	0.450	-0.530	0.290
2020/01/31 19:26:44.8	15.970	0.470	-0.570	0.330
2020/01/31 19:26:44.9	15.980	0.470	-0.610	0.380
2020/01/31 19:26:45.0	15.980	0.480	-0.640	0.420
2020/01/31 19:26:45.1	15.990	0.480	-0.670	0.470
2020/01/31 19:26:45.2	15.990	0.480	-0.690	0.510
2020/01/31 19:26:45.3	16.000	0.470	-0.710	0.540
2020/01/31 19:26:45.4	16.010	0.460	-0.730	0.580
2020/01/31 19:26:45.5	16.020	0.450	-0.740	0.610
2020/01/31 19:26:45.6	16.030	0.440	-0.750	0.640
2020/01/31 19:26:45.7	16.040	0.420	-0.750	0.660
2020/01/31 19:26:45.8	16.050	0.400	-0.750	0.690
2020/01/31 19:26:45.9	16.070	0.380	-0.750	0.700
2020/01/31 19:26:46.0	16.080	0.360	-0.750	0.710
2020/01/31 19:26:46.1	16.100	0.340	-0.740	0.720
2020/01/31 19:26:46.2	16.110	0.310	-0.740	0.720
2020/01/31 19:26:46.3	16.130	0.280	-0.730	0.720
2020/01/31 19:26:46.4	16.150	0.250	-0.720	0.710
2020/01/31 19:26:46.5	16.170	0.220	-0.710	0.700
2020/01/31 19:26:46.6	16.200	0.190	-0.700	0.680
2020/01/31 19:26:46.7	16.220	0.160	-0.690	0.660
2020/01/31 19:26:46.8	16.240	0.130	-0.680	0.640
2020/01/31 19:26:46.9	16.270	0.100	-0.670	0.610
2020/01/31 19:26:47.0	16.290	0.070	-0.660	0.580
2020/01/31 19:26:47.1	16.320	0.040	-0.660	0.550
2020/01/31 19:26:47.2	16.350	0.010	-0.650	0.510
2020/01/31 19:26:47.3	16.370	-0.020	-0.640	0.470
2020/01/31 19:26:47.4	16.400	-0.050	-0.630	0.430
2020/01/31 19:26:47.5	16.420	-0.080	-0.620	0.390
2020/01/31 19:26:47.6	16.450	-0.110	-0.610	0.350
2020/01/31 19:26:47.7	16.470	-0.140	-0.600	0.310
2020/01/31 19:26:47.8	16.500	-0.160	-0.590	0.270
2020/01/31 19:26:47.9	16.520	-0.180	-0.580	0.230
2020/01/31 19:26:48.0	16.540	-0.210	-0.560	0.190
2020/01/31 19:26:48.1	16.560	-0.230	-0.550	0.150
2020/01/31 19:26:48.2	16.580	-0.240	-0.530	0.120
2020/01/31 19:26:48.3	16.590	-0.260	-0.510	0.090
2020/01/31 19:26:48.4	16.610	-0.270	-0.490	0.060
2020/01/31 19:26:48.5	16.620	-0.280	-0.460	0.040
2020/01/31 19:26:48.6	16.630	-0.290	-0.430	0.020
2020/01/31 19:26:48.7	16.640	-0.300	-0.400	0.000
2020/01/31 19:26:48.8	16.650	-0.300	-0.370	-0.010
2020/01/31 19:26:48.9	16.650	-0.310	-0.330	-0.020
2020/01/31 19:26:49.0	16.660	-0.310	-0.300	-0.030
2020/01/31 19:26:49.1	16.660	-0.300	-0.260	-0.030
2020/01/31 19:26:49.2	16.660	-0.300	-0.210	-0.030
2020/01/31 19:26:49.3	16.650	-0.290	-0.170	-0.030
2020/01/31 19:26:49.4	16.650	-0.280	-0.130	-0.020
2020/01/31 19:26:49.5	16.650	-0.270	-0.080	-0.010
2020/01/31 19:26:49.6	16.640	-0.260	-0.040	0.000
2020/01/31 19:26:49.7	16.640	-0.240	0.010	0.020
2020/01/31 19:26:49.8	16.630	-0.220	0.050	0.040
2020/01/31 19:26:49.9	16.630	-0.200	0.090	0.060
2020/01/31 19:26:50.0	16.630	-0.180	0.130	0.080
2020/01/31 19:26:50.1	16.620	-0.160	0.170	0.110
2020/01/31 19:26:50.2	16.610	-0.130	0.210	0.130
2020/01/31 19:26:50.3	16.610	-0.110	0.250	0.160
2020/01/31 19:26:50.4	16.600	-0.080	0.280	0.190
2020/01/31 19:26:50.5	16.590	-0.060	0.310	0.220
2020/01/31 19:26:50.6	16.580	-0.030	0.330	0.250
2020/01/31 19:26:50.7	16.580	-0.000	0.360	0.280
2020/01/31 19:26:50.8	16.570	0.020	0.380	0.320
2020/01/31 19:26:50.9	16.560	0.050	0.390	0.350
2020/01/31 19:26:51.0	16.540	0.080	0.400	0.390
2020/01/31 19:26:51.1	16.530	0.100	0.410	0.430
2020/01/31 19:26:51.2	16.520	0.130	0.420	0.470
2020/01/31 19:26:51.3	16.500	0.150	0.430	0.510
2020/01/31 19:26:51.4	16.480	0.170	0.430	0.550
2020/01/31 19:26:51.5	16.470	0.190	0.430	0.590
2020/01/31 19:26:51.6	16.450	0.210	0.420	0.630
2020/01/31 19:26:51.7	16.430	0.220	0.410	0.670
2020/01/31 19:26:51.8	16.410	0.240	0.400	0.720
2020/01/31 19:26:51.9	16.400	0.250	0.390	0.760
2020/01/31 19:26:52.0	16.370	0.260	0.380	0.800
2020/01/31 19:26:52.1	16.350	0.270	0.360	0.840
2020/01/31 19:26:52.2	16.330	0.270	0.340	0.870
2020/01/31 19:26:52.3	16.310	0.280	0.320	0.910
2020/01/31 19:26:52.4	16.280	0.280	0.300	0.940
2020/01/31 19:26:52.5	16.260	0.280	0.270	0.960
2020/01/31 19:26:52.6	16.240	0.270	0.240	0.980
2020/01/31 19:26:52.7	16.230	0.270	0.200	1.000
2020/01/31 19:26:52.8	16.210	0.260	0.170	1.010
2020/01/31 19:26:52.9	16.200	0.250	0.120	1.010
2020/01/31 19:26:53.0	16.190	0.240	0.080	1.010
2020/01/31 19:26:53.1	16.180	0.230	0.030	1.000
2020/01/31 19:26:53.2	16.170	0.210	-0.020	0.990
2020/01/31 19:26:53.3	16.170	0.200	-0.070	0.970
2020/01/31 19:26:53.4	16.180	0.180	-0.120	0.950
2020/01/31 19:26:53.5	16.180	0.160	-0.180	0.920
2020/01/31 19:26:53.6	16.190	0.150	-0.240	0.880
2020/01/31 19:26:53.7	16.210	0.130	-0.310	0.840
2020/01/31 19:26:53.8	16.220	0.110	-0.370	0.790
2020/01/31 19:26:53.9	16.250	0.090	-0.440	0.740
2020/01/31 19:26:54.0	16.270	0.070	-0.510	0.680
2020/01/31 19:26:54.1	16.300	0.050	-0.570	0.620
2020/01/31 19:26:54.2	16.330	0.030	-0.640	0.550
2020/01/31 19:26:54.3	16.370	0.010	-0.710	0.470
2020/01/31 19:26:54.4	16.400	-0.010	-0.770	0.400
2020/01/31 19:26:54.5	16.440	-0.020	-0.830	0.320
2020/01/31 19:26:54.6	16.490	-0.040	-0.890	0.240
2020/01/31 19:26:54.7	16.530	-0.060	-0.950	0.160
2020/01/31 19:26:54.8	16.580	-0.070	-1.000	0.070
2020/01/31 19:26:54.9	16.620	-0.080	-1.050	-0.010
2020/01/31 19:26:55.0	16.670	-0.090	-1.090	-0.100
2020/01/31 19:26:55.1	16.720	-0.100	-1.120	-0.180
2020/01/31 19:26:55.2	16.770	-0.110	-1.150	-0.260
2020/01/31 19:26:55.3	16.820	-0.120	-1.170	-0.340
2020/01/31 19:26:55.4	16.870	-0.130	-1.180	-0.410
2020/01/31 19:26:55.5	16.920	-0.130	-1.180	-0.490
2020/01/31 19:26:55.6	16.960	-0.130	-1.180	-0.560
2020/01/31 19:26:55.7	17.010	-0.130	-1.160	-0.620
2020/01/31 19:26:55.8	17.050	-0.140	-1.140	-0.680
2020/01/31 19:26:55.9	17.090	-0.130	-1.110	-0.730
2020/01/31 19:26:56.0	17.130	-0.130	-1.070	-0.780
2020/01/31 19:26:56.1	17.160	-0.130	-1.020	-0.820
2020/01/31 19:26:56.2	17.190	-0.130	-0.960	-0.850
2020/01/31 19:26:56.3	17.220	-0.120	-0.890	-0.880
2020/01/31 19:26:56.4	17.240	-0.120	-0.820	-0.900
2020/01/31 19:26:56.5	17.260	-0.110	-0.740	-0.910
2020/01/31 19:26:56.6	17.280	-0.110	-0.650	-0.910
2020/01/31 19:26:56.7	17.290	-0.100	-0.560	-0.910
2020/01/31 19:26:56.8	17.300	-0.100	-0.460	-0.900
2020/01/31 19:26:56.9	17.300	-0.090	-0.360	-0.880
2020/01/31 19:26:57.0	17.290	-0.090	-0.260	-0.850
2020/01/31 19:26:57.1	17.290	-0.080	-0.160	-0.820
2020/01/31 19:26:57.2	17.280	-0.080	-0.050	-0.790
2020/01/31 19:26:57.3	17.270	-0.070	0.050	-0.740
2020/01/31 19:26:57.4	17.250	-0.070	0.150	-0.700
2020/01/31 19:26:57.5	17.230	-0.070	0.250	-0.650
2020/01/31 19:26:57.6	17.210	-0.070	0.350	-0.590
2020/01/31 19:26:57.7	17.180	-0.070	0.440	-0.530
2020/01/31 19:26:57.8	17.150	-0.060	0.530	-0.470
2020/01/31 19:26:57.9	17.130	-0.070	0.610	-0.400
2020/01/31 19:26:58.0	17.100	-0.070	0.680	-0.340
2020/01/31 19:26:58.1	17.070	-0.070	0.750	-0.270
2020/01/31 19:26:58.2	17.030	-0.070	0.800	-0.200
2020/01/31 19:26:58.3	17.000	-0.070	0.850	-0.130
2020/01/31 19:26:58.4	16.970	-0.080	0.890	-0.060
2020/01/31 19:26:58.5	16.940	-0.080	0.920	0.010
2020/01/31 19:26:58.6	16.900	-0.080	0.950	0.080
2020/01/31 19:26:58.7	16.870	-0.090	0.960	0.150
2020/01/31 19:26:58.8	16.840	-0.090	0.960	0.210
2020/01/31 19:26:58.9	16.820	-0.100	0.950	0.280
2020/01/31 19:26:59.0	16.790	-0.100	0.940	0.340
2020/01/31 19:26:59.1	16.770	-0.100	0.910	0.400
2020/01/31 19:26:59.2	16.750	-0.100	0.880	0.460
2020/01/31 19:26:59.3	16.740	-0.100	0.830	0.520
2020/01/31 19:26:59.4	16.720	-0.100	0.780	0.570
2020/01/31 19:26:59.5	16.710	-0.100	0.720	0.620
2020/01/31 19:26:59.6	16.710	-0.100	0.660	0.670
2020/01/31 19:26:59.7	16.700	-0.090	0.580	0.710
2020/01/31 19:26:59.8	16.700	-0.090	0.500	0.750
2020/01/31 19:26:59.9	16.700	-0.080	0.420	0.790
2020/01/31 19:27:00.0	16.700	-0.070	0.330	0.820
2020/01/31 19:27:00.1	16.710	-0.060	0.240	0.850
2020/01/31 19:27:00.2	16.730	-0.050	0.150	0.880
2020/01/31 19:27:00.3	16.740	-0.040	0.050	0.900
2020/01/31 19:27:00.4	16.760	-0.020	-0.050	0.920
2020/01/31 19:27:00.5	16.790	-0.010	-0.140	0.940
2020/01/31 19:27:00.6	16.810	0.010	-0.240	0.950
2020/01/31 19:27:00.7	16.840	0.030	-0.330	0.970
2020/01/31 19:27:00.8	16.860	0.050	-0.420	0.970
2020/01/31 19:27:00.9	16.890	0.070	-0.510	0.980
2020/01/31 19:27:01.0	16.920	0.090	-0.590	0.980
2020/01/31 19:27:01.1	16.950	0.110	-0.670	0.980
2020/01/31 19:27:01.2	16.980	0.130	-0.740	0.990
2020/01/31 19:27:01.3	17.010	0.150	-0.810	0.980
2020/01/31 19:27:01.4	17.040	0.170	-0.870	0.980
2020/01/31 19:27:01.5	17.060	0.190	-0.920	0.980
2020/01/31 19:27:01.6	17.090	0.210	-0.960	0.980
2020/01/31 19:27:01.7	17.120	0.230	-1.000	0.970
2020/01/31 19:27:01.8	17.150	0.250	-1.030	0.970
2020/01/31 19:27:01.9	17.180	0.260	-1.050	0.970
2020/01/31 19:27:02.0	17.200	0.280	-1.060	0.960
2020/01/31 19:27:02.1	17.220	0.290	-1.070	0.960
2020/01/31 19:27:02.2	17.240	0.300	-1.060	0.950
2020/01/31 19:27:02.3	17.260	0.310	-1.050	0.950
2020/01/31 19:27:02.4	17.280	0.310	-1.040	0.940
2020/01/31 19:27:02.5	17.290	0.310	-1.010	0.940
2020/01/31 19:27:02.6	17.300	0.310	-0.980	0.930
2020/01/31 19:27:02.7	17.310	0.310	-0.950	0.930
2020/01/31 19:27:02.8	17.320	0.300	-0.910	0.920
2020/01/31 19:27:02.9	17.330	0.290	-0.860	0.920
2020/01/31 19:27:03.0	17.330	0.280	-0.820	0.910
2020/01/31 19:27:03.1	17.330	0.270	-0.760	0.910
2020/01/31 19:27:03.2	17.330	0.250	-0.710	0.900
2020/01/31 19:27:03.3	17.320	0.230	-0.650	0.900
2020/01/31 19:27:03.4	17.320	0.210	-0.590	0.890
2020/01/31 19:27:03.5	17.310	0.190	-0.530	0.880
2020/01/31 19:27:03.6	17.300	0.160	-0.470	0.870
2020/01/31 19:27:03.7	17.290	0.140	-0.420	0.860
2020/01/31 19:27:03.8	17.280	0.110	-0.360	0.850
2020/01/31 19:27:03.9	17.260	0.080	-0.300	0.830
2020/01/31 19:27:04.0	17.250	0.050	-0.250	0.820
2020/01/31 19:27:04.1	17.240	0.020	-0.200	0.800
2020/01/31 19:27:04.2	17.230	-0.010	-0.150	0.780
2020/01/31 19:27:04.3	17.220	-0.040	-0.110	0.750
2020/01/31 19:27:04.4	17.210	-0.070	-0.070	0.730
2020/01/31 19:27:04.5	17.200	-0.100	-0.030	0.700
2020/01/31 19:27:04.6	17.200	-0.130	-0.000	0.670
2020/01/31 19:27:04.7	17.190	-0.150	0.030	0.640
2020/01/31 19:27:04.8	17.180	-0.180	0.050	0.600
2020/01/31 19:27:04.9	17.170	-0.200	0.070	0.560
2020/01/31 19:27:05.0	17.170	-0.220	0.090	0.530
2020/01/31 19:27:05.1	17.160	-0.240	0.100	0.490
2020/01/31 19:27:05.2	17.160	-0.260	0.110	0.450
2020/01/31 19:27:05.3	17.160	-0.280	0.120	0.410
2020/01/31 19:27:05.4	17.160	-0.290	0.130	0.370
2020/01/31 19:27:05.5	17.150	-0.300	0.140	0.330
2020/01/31 19:27:05.6	17.150	-0.310	0.140	0.300
2020/01/31 19:27:05.7	17.150	-0.320	0.150	0.260
2020/01/31 19:27:05.8	17.150	-0.320	0.150	0.220
2020/01/31 19:27:05.9	17.150	-0.320	0.150	0.190
2020/01/31 19:27:06.0	17.150	-0.320	0.150	0.150
2020/01/31 19:27:06.1	17.150	-0.320	0.150	0.120
2020/01/31 19:27:06.2	17.150	-0.320	0.160	0.090
2020/01/31 19:27:06.3	17.150	-0.310	0.160	0.060
2020/01/31 19:27:06.4	17.150	-0.310	0.160	0.030
2020/01/31 19:27:06.5	17.140	-0.300	0.170	-0.000
2020/01/31 19:27:06.6	17.140	-0.290	0.170	-0.030
2020/01/31 19:27:06.7	17.140	-0.280	0.170	-0.050
2020/01/31 19:27:06.8	17.140	-0.270	0.180	-0.070
2020/01/31 19:27:06.9	17.140	-0.250	0.180	-0.100
2020/01/31 19:27:07.0	17.140	-0.240	0.180	-0.120
2020/01/31 19:27:07.1	17.140	-0.220	0.180	-0.140
2020/01/31 19:27:07.2	17.140	-0.210	0.190	-0.150
2020/01/31 19:27:07.3	17.140	-0.190	0.190	-0.170
2020/01/31 19:27:07.4	17.140	-0.170	0.190	-0.190
2020/01/31 19:27:07.5	17.140	-0.160	0.190	-0.200
2020/01/31 19:27:07.6	17.150	-0.140	0.180	-0.210
2020/01/31 19:27:07.7	17.150	-0.120	0.180	-0.230
2020/01/31 19:27:07.8	17.150	-0.100	0.170	-0.240
2020/01/31 19:27:07.9	17.160	-0.090	0.160	-0.250
2020/01/31 19:27:08.0	17.160	-0.070	0.150	-0.260
2020/01/31 19:27:08.1	17.170	-0.050	0.130	-0.270
2020/01/31 19:27:08.2	17.180	-0.040	0.120	-0.280
2020/01/31 19:27:08.3	17.190	-0.020	0.100	-0.290
2020/01/31 19:27:08.4	17.210	-0.010	0.080	-0.300
2020/01/31 19:27:08.5	17.220	0.010	0.050	-0.310
2020/01/31 19:27:08.6	17.240	0.020	0.030	-0.320
2020/01/31 19:27:08.7	17.260	0.040	-0.000	-0.330
2020/01/31 19:27:08.8	17.280	0.050	-0.030	-0.340
2020/01/31 19:27:08.9	17.310	0.060	-0.070	-0.350
2020/01/31 19:27:09.0	17.330	0.070	-0.110	-0.360
2020/01/31 19:27:09.1	17.360	0.080	-0.140	-0.370
2020/01/31 19:27:09.2	17.390	0.100	-0.180	-0.380
2020/01/31 19:27:09.3	17.420	0.110	-0.220	-0.390
2020/01/31 19:27:09.4	17.440	0.110	-0.260	-0.400
2020/01/31 19:27:09.5	17.470	0.120	-0.290	-0.410
2020/01/31 19:27:09.6	17.500	0.130	-0.330	-0.410
2020/01/31 19:27:09.7	17.540	0.140	-0.360	-0.420
2020/01/31 19:27:09.8	17.570	0.140	-0.400	-0.420
2020/01/31 19:27:09.9	17.600	0.150	-0.430	-0.420
2020/01/31 19:27:10.0	17.630	0.150	-0.460	-0.410
2020/01/31 19:27:10.1	17.660	0.160	-0.490	-0.410
2020/01/31 19:27:10.2	17.690	0.160	-0.510	-0.400
2020/01/31 19:27:10.3	17.710	0.170	-0.530	-0.390
2020/01/31 19:27:10.4	17.740	0.170	-0.540	-0.380
2020/01/31 19:27:10.5	17.770	0.170	-0.560	-0.360
2020/01/31 19:27:10.6	17.790	0.170	-0.560	-0.340
2020/01/31 19:27:10.7	17.810	0.170	-0.570	-0.320
2020/01/31 19:27:10.8	17.830	0.170	-0.570	-0.290
2020/01/31 19:27:10.9	17.850	0.180	-0.560	-0.260
2020/01/31 19:27:11.0	17.870	0.180	-0.550	-0.230
2020/01/31 19:27:11.1	17.880	0.180	-0.540	-0.200
2020/01/31 19:27:11.2	17.890	0.170	-0.520	-0.160
2020/01/31 19:27:11.3	17.900	0.170	-0.500	-0.120
2020/01/31 19:27:11.4	17.900	0.170	-0.480	-0.070
2020/01/31 19:27:11.5	17.900	0.170	-0.450	-0.030
2020/01/31 19:27:11.6	17.900	0.170	-0.430	0.020
2020/01/31 19:27:11.7	17.890	0.170	-0.390	0.080
2020/01/31 19:27:11.8	17.890	0.160	-0.360	0.130
2020/01/31 19:27:11.9	17.870	0.160	-0.330	0.190
2020/01/31 19:27:12.0	17.860	0.160	-0.300	0.250
2020/01/31 19:27:12.1	17.840	0.150	-0.270	0.310
2020/01/31 19:27:12.2	17.830	0.150	-0.240	0.370
2020/01/31 19:27:12.3	17.800	0.150	-0.220	0.430
2020/01/31 19:27:12.4	17.780	0.140	-0.190	0.490
2020/01/31 19:27:12.5	17.750	0.140	-0.170	0.540
2020/01/31 19:27:12.6	17.730	0.130	-0.150	0.600
2020/01/31 19:27:12.7	17.700	0.120	-0.130	0.650
2020/01/31 19:27:12.8	17.670	0.120	-0.120	0.700
2020/01/31 19:27:12.9	17.640	0.110	-0.120	0.750
2020/01/31 19:27:13.0	17.610	0.100	-0.110	0.790
2020/01/31 19:27:13.1	17.580	0.090	-0.110	0.830
2020/01/31 19:27:13.2	17.550	0.090	-0.120	0.860
2020/01/31 19:27:13.3	17.520	0.080	-0.120	0.880
2020/01/31 19:27:13.4	17.480	0.070	-0.140	0.910
2020/01/31 19:27:13.5	17.460	0.060	-0.150	0.920
2020/01/31 19:27:13.6	17.430	0.050	-0.180	0.930
2020/01/31 19:27:13.7	17.400	0.040	-0.200	0.930
2020/01/31 19:27:13.8	17.380	0.040	-0.230	0.920
2020/01/31 19:27:13.9	17.360	0.030	-0.260	0.910
2020/01/31 19:27:14.0	17.340	0.020	-0.290	0.890
2020/01/31 19:27:14.1	17.330	0.010	-0.330	0.870
2020/01/31 19:27:14.2	17.320	0.010	-0.360	0.840
2020/01/31 19:27:14.3	17.320	0.000	-0.400	0.800
2020/01/31 19:27:14.4	17.310	-0.000	-0.440	0.760
2020/01/31 19:27:14.5	17.320	-0.000	-0.480	0.720
2020/01/31 19:27:14.6	17.320	-0.010	-0.520	0.670
2020/01/31 19:27:14.7	17.340	-0.010	-0.550	0.610
2020/01/31 19:27:14.8	17.350	-0.010	-0.590	0.550
2020/01/31 19:27:14.9	17.370	-0.010	-0.620	0.480
2020/01/31 19:27:15.0	17.390	-0.010	-0.640	0.420
2020/01/31 19:27:15.1	17.420	-0.000	-0.670	0.350
2020/01/31 19:27:15.2	17.450	-0.000	-0.690	0.280
2020/01/31 19:27:15.3	17.490	0.000	-0.700	0.210
2020/01/31 19:27:15.4	17.520	0.010	-0.700	0.130
2020/01/31 19:27:15.5	17.560	0.010	-0.700	0.060
2020/01/31 19:27:15.6	17.610	0.010	-0.690	-0.010
2020/01/31 19:27:15.7	17.650	0.020	-0.680	-0.080
2020/01/31 19:27:15.8	17.690	0.020	-0.650	-0.140
2020/01/31 19:27:15.9	17.740	0.030	-0.630	-0.210
2020/01/31 19:27:16.0	17.790	0.030	-0.590	-0.270
2020/01/31 19:27:16.1	17.830	0.040	-0.540	-0.330
2020/01/31 19:27:16.2	17.870	0.040	-0.480	-0.380
2020/01/31 19:27:16.3	17.920	0.040	-0.420	-0.430
2020/01/31 19:27:16.4	17.960	0.040	-0.350	-0.480
2020/01/31 19:27:16.5	18.000	0.040	-0.280	-0.520
2020/01/31 19:27:16.6	18.040	0.040	-0.190	-0.550
2020/01/31 19:27:16.7	18.070	0.040	-0.110	-0.580
2020/01/31 19:27:16.8	18.110	0.030	-0.020	-0.600
2020/01/31 19:27:16.9	18.140	0.030	0.070	-0.620
2020/01/31 19:27:17.0	18.160	0.020	0.170	-0.630
2020/01/31 19:27:17.1	18.190	0.010	0.260	-0.640
2020/01/31 19:27:17.2	18.210	-0.000	0.360	-0.640
2020/01/31 19:27:17.3	18.230	-0.010	0.450	-0.630
2020/01/31 19:27:17.4	18.240	-0.030	0.540	-0.620
2020/01/31 19:27:17.5	18.250	-0.040	0.630	-0.610
2020/01/31 19:27:17.6	18.260	-0.050	0.710	-0.580
2020/01/31 19:27:17.7	18.260	-0.070	0.790	-0.560
2020/01/31 19:27:17.8	18.260	-0.090	0.860	-0.530
2020/01/31 19:27:17.9	18.240	-0.110	0.920	-0.490
2020/01/31 19:27:18.0	18.240	-0.120	0.970	-0.450
2020/01/31 19:27:18.1	18.230	-0.140	1.020	-0.410
2020/01/31 19:27:18.2	18.220	-0.160	1.050	-0.370
2020/01/31 19:27:18.3	18.210	-0.180	1.070	-0.320
2020/01/31 19:27:18.4	18.190	-0.200	1.090	-0.280
2020/01/31 19:27:18.5	18.180	-0.220	1.090	-0.230
2020/01/31 19:27:18.6	18.160	-0.240	1.080	-0.180
2020/01/31 19:27:18.7	18.150	-0.250	1.060	-0.130
2020/01/31 19:27:18.8	18.130	-0.270	1.020	-0.090
2020/01/31 19:27:18.9	18.120	-0.290	0.980	-0.040
2020/01/31 19:27:19.0	18.100	-0.300	0.930	-0.000
2020/01/31 19:27:19.1	18.090	-0.310	0.870	0.040
2020/01/31 19:27:19.2	18.080	-0.320	0.800	0.080
2020/01/31 19:27:19.3	18.070	-0.330	0.710	0.110
2020/01/31 19:27:19.4	18.060	-0.340	0.630	0.150
2020/01/31 19:27:19.5	18.050	-0.350	0.530	0.170
2020/01/31 19:27:19.6	18.050	-0.350	0.430	0.200
2020/01/31 19:27:19.7	18.040	-0.360	0.320	0.220
2020/01/31 19:27:19.8	18.040	-0.360	0.210	0.230
2020/01/31 19:27:19.9	18.050	-0.350	0.090	0.250
2020/01/31 19:27:20.0	18.060	-0.350	-0.030	0.260
2020/01/31 19:27:20.1	18.070	-0.340	-0.150	0.260
2020/01/31 19:27:20.2	18.080	-0.330	-0.270	0.260
2020/01/31 19:27:20.3	18.100	-0.320	-0.390	0.250
2020/01/31 19:27:20.4	18.110	-0.310	-0.510	0.240
2020/01/31 19:27:20.5	18.140	-0.300	-0.620	0.230
2020/01/31 19:27:20.6	18.160	-0.280	-0.740	0.220
2020/01/31 19:27:20.7	18.190	-0.260	-0.840	0.200
2020/01/31 19:27:20.8	18.220	-0.240	-0.940	0.180
2020/01/31 19:27:20.9	18.250	-0.220	-1.040	0.160
2020/01/31 19:27:21.0	18.290	-0.200	-1.130	0.130
2020/01/31 19:27:21.1	18.320	-0.170	-1.210	0.110
2020/01/31 19:27:21.2	18.360	-0.150	-1.280	0.080
2020/01/31 19:27:21.3	18.390	-0.120	-1.350	0.060
2020/01/31 19:27:21.4	18.430	-0.090	-1.400	0.040
2020/01/31 19:27:21.5	18.470	-0.060	-1.450	0.020
2020/01/31 19:27:21.6	18.500	-0.040	-1.480	-0.000
2020/01/31 19:27:21.7	18.540	-0.010	-1.510	-0.020
2020/01/31 19:27:21.8	18.570	0.020	-1.520	-0.030
2020/01/31 19:27:21.9	18.600	0.050	-1.530	-0.040
2020/01/31 19:27:22.0	18.630	0.080	-1.530	-0.040
2020/01/31 19:27:22.1	18.660	0.110	-1.510	-0.040
2020/01/31 19:27:22.2	18.680	0.130	-1.490	-0.040
2020/01/31 19:27:22.3	18.710	0.160	-1.450	-0.030
2020/01/31 19:27:22.4	18.730	0.180	-1.410	-0.010
2020/01/31 19:27:22.5	18.750	0.210	-1.360	0.010
2020/01/31 19:27:22.6	18.760	0.230	-1.290	0.030
2020/01/31 19:27:22.7	18.770	0.250	-1.230	0.060
2020/01/31 19:27:22.8	18.780	0.270	-1.150	0.100
2020/01/31 19:27:22.9	18.780	0.290	-1.070	0.140
2020/01/31 19:27:23.0	18.780	0.300	-0.980	0.180
2020/01/31 19:27:23.1	18.780	0.320	-0.890	0.230
2020/01/31 19:27:23.2	18.770	0.330	-0.790	0.290
2020/01/31 19:27:23.3	18.770	0.340	-0.690	0.350
2020/01/31 19:27:23.4	18.760	0.350	-0.590	0.410
2020/01/31 19:27:23.5	18.750	0.360	-0.490	0.470
2020/01/31 19:27:23.6	18.730	0.360	-0.390	0.540
2020/01/31 19:27:23.7	18.720	0.360	-0.290	0.610
2020/01/31 19:27:23.8	18.700	0.370	-0.190	0.680
2020/01/31 19:27:23.9	18.700	0.370	-0.090	0.760
2020/01/31 19:27:24.0	18.680	0.370	-0.000	0.830
2020/01/31 19:27:24.1	18.660	0.360	0.090	0.900
2020/01/31 19:27:24.2	18.640	0.360	0.170	0.980
2020/01/31 19:27:24.3	18.620	0.360	0.250	1.050
2020/01/31 19:27:24.4	18.600	0.350	0.320	1.110
2020/01/31 19:27:24.5	18.590	0.340	0.380	1.180
2020/01/31 19:27:24.6	18.570	0.330	0.440	1.240
2020/01/31 19:27:24.7	18.550	0.320	0.480	1.300
2020/01/31 19:27:24.8	18.530	0.310	0.520	1.350
2020/01/31 19:27:24.9	18.540	0.300	0.550	1.400
2020/01/31 19:27:25.0	18.520	0.290	0.570	1.440
2020/01/31 19:27:25.1	18.510	0.270	0.580	1.470
2020/01/31 19:27:25.2	18.500	0.260	0.590	1.490
2020/01/31 19:27:25.3	18.490	0.240	0.580	1.510
2020/01/31 19:27:25.4	18.490	0.230	0.570	1.520
2020/01/31 19:27:25.5	18.480	0.210	0.550	1.520
2020/01/31 19:27:25.6	18.480	0.190	0.530	1.520
2020/01/31 19:27:25.7	18.480	0.170	0.500	1.510
2020/01/31 19:27:25.8	18.480	0.160	0.460	1.490
2020/01/31 19:27:25.9	18.480	0.140	0.430	1.460
2020/01/31 19:27:26.0	18.490	0.120	0.380	1.420
2020/01/31 19:27:26.1	18.490	0.100	0.330	1.380
2020/01/31 19:27:26.2	18.500	0.080	0.290	1.340
2020/01/31 19:27:26.3	18.510	0.060	0.240	1.280
2020/01/31 19:27:26.4	18.520	0.040	0.180	1.230
2020/01/31 19:27:26.5	18.530	0.020	0.130	1.170
2020/01/31 19:27:26.6	18.540	-0.000	0.080	1.100
2020/01/31 19:27:26.7	18.560	-0.020	0.030	1.030
2020/01/31 19:27:26.8	18.570	-0.040	-0.020	0.960
2020/01/31 19:27:26.9	18.580	-0.060	-0.070	0.880
2020/01/31 19:27:27.0	18.600	-0.080	-0.120	0.800
2020/01/31 19:27:27.1	18.610	-0.100	-0.160	0.720
2020/01/31 19:27:27.2	18.630	-0.120	-0.200	0.630
2020/01/31 19:27:27.3	18.650	-0.130	-0.240	0.550
2020/01/31 19:27:27.4	18.670	-0.150	-0.280	0.460
2020/01/31 19:27:27.5	18.690	-0.160	-0.310	0.380
2020/01/31 19:27:27.6	18.710	-0.170	-0.340	0.290
2020/01/31 19:27:27.7	18.730	-0.180	-0.370	0.210
2020/01/31 19:27:27.8	18.750	-0.190	-0.390	0.120
2020/01/31 19:27:27.9	18.780	-0.200	-0.410	0.040
2020/01/31 19:27:28.0	18.800	-0.210	-0.430	-0.040
2020/01/31 19:27:28.1	18.820	-0.210	-0.440	-0.120
2020/01/31 19:27:28.2	18.850	-0.220	-0.450	-0.200
2020/01/31 19:27:28.3	18.870	-0.220	-0.450	-0.280
2020/01/31 19:27:28.4	18.900	-0.230	-0.450	-0.350
2020/01/31 19:27:28.5	18.920	-0.230	-0.450	-0.420
2020/01/31 19:27:28.6	18.950	-0.230	-0.440	-0.480
2020/01/31 19:27:28.7	18.970	-0.230	-0.430	-0.540
2020/01/31 19:27:28.8	19.000	-0.230	-0.420	-0.600
2020/01/31 19:27:28.9	19.020	-0.220	-0.400	-0.660
2020/01/31 19:27:29.0	19.040	-0.220	-0.380	-0.710
2020/01/31 19:27:29.1	19.070	-0.220	-0.360	-0.750
2020/01/31 19:27:29.2	19.090	-0.210	-0.330	-0.790
2020/01/31 19:27:29.3	19.110	-0.210	-0.300	-0.830
2020/01/31 19:27:29.4	19.140	-0.210	-0.270	-0.860
2020/01/31 19:27:29.5	19.160	-0.200	-0.240	-0.890
2020/01/31 19:27:29.6	19.180	-0.200	-0.210	-0.910
2020/01/31 19:27:29.7	19.200	-0.190	-0.180	-0.930
2020/01/31 19:27:29.8	19.220	-0.190	-0.140	-0.950
2020/01/31 19:27:29.9	19.230	-0.180	-0.110	-0.950
2020/01/31 19:27:30.0	19.250	-0.180	-0.080	-0.960
2020/01/31 19:27:30.1	19.270	-0.180	-0.050	-0.960
2020/01/31 19:27:30.2	19.280	-0.170	-0.020	-0.960
2020/01/31 19:27:30.3	19.300	-0.170	0.010	-0.960
2020/01/31 19:27:30.4	19.320	-0.170	0.030	-0.950
2020/01/31 19:27:30.5	19.330	-0.160	0.060	-0.940
2020/01/31 19:27:30.6	19.340	-0.160	0.080	-0.920
2020/01/31 19:27:30.7	19.350	-0.160	0.100	-0.900
2020/01/31 19:27:30.8	19.370	-0.160	0.120	-0.880
2020/01/31 19:27:30.9	19.380	-0.150	0.130	-0.850
2020/01/31 19:27:31.0	19.390	-0.150	0.140	-0.820
2020/01/31 19:27:31.1	19.390	-0.150	0.150	-0.790
2020/01/31 19:27:31.2	19.400	-0.150	0.150	-0.760
2020/01/31 19:27:31.3	19.400	-0.150	0.160	-0.720
2020/01/31 19:27:31.4	19.410	-0.150	0.160	-0.680
2020/01/31 19:27:31.5	19.410	-0.150	0.160	-0.640
2020/01/31 19:27:31.6	19.410	-0.140	0.160	-0.600
2020/01/31 19:27:31.7	19.410	-0.140	0.150	-0.550
2020/01/31 19:27:31.8	19.410	-0.140	0.150	-0.510
2020/01/31 19:27:31.9	19.400	-0.140	0.140	-0.450
2020/01/31 19:27:32.0	19.390	-0.140	0.130	-0.400
2020/01/31 19:27:32.1	19.390	-0.130	0.120	-0.350
2020/01/31 19:27:32.2	19.380	-0.130	0.100	-0.300
2020/01/31 19:27:32.3	19.370	-0.130	0.090	-0.240
2020/01/31 19:27:32.4	19.360	-0.120	0.080	-0.190
2020/01/31 19:27:32.5	19.350	-0.120	0.060	-0.130
2020/01/31 19:27:32.6	19.340	-0.110	0.040	-0.070
2020/01/31 19:27:32.7	19.320	-0.100	0.030	-0.020
2020/01/31 19:27:32.8	19.310	-0.100	0.010	0.040
2020/01/31 19:27:32.9	19.300	-0.090	-0.010	0.110
2020/01/31 19:27:33.0	19.280	-0.080	-0.030	0.170
2020/01/31 19:27:33.1	19.260	-0.070	-0.060	0.230
2020/01/31 19:27:33.2	19.240	-0.060	-0.080	0.290
2020/01/31 19:27:33.3	19.220	-0.040	-0.100	0.350
2020/01/31 19:27:33.4	19.200	-0.030	-0.120	0.410
2020/01/31 19:27:33.5	19.180	-0.020	-0.150	0.470
2020/01/31 19:27:33.6	19.160	-0.000	-0.170	0.530
2020/01/31 19:27:33.7	19.140	0.010	-0.200	0.590
2020/01/31 19:27:33.8	19.110	0.030	-0.220	0.640
2020/01/31 19:27:33.9	19.090	0.050	-0.250	0.700
2020/01/31 19:27:34.0	19.070	0.060	-0.280	0.750
2020/01/31 19:27:34.1	19.050	0.080	-0.310	0.800
2020/01/31 19:27:34.2	19.030	0.100	-0.340	0.850
2020/01/31 19:27:34.3	19.020	0.110	-0.370	0.900
2020/01/31 19:27:34.4	19.000	0.130	-0.400	0.940
2020/01/31 19:27:34.5	18.980	0.150	-0.440	0.980
2020/01/31 19:27:34.6	18.970	0.160	-0.470	1.020
2020/01/31 19:27:34.7	18.960	0.180	-0.500	1.060
2020/01/31 19:27:34.8	18.950	0.190	-0.530	1.090
2020/01/31 19:27:34.9	18.950	0.200	-0.570	1.120
2020/01/31 19:27:35.0	18.950	0.220	-0.600	1.140
2020/01/31 19:27:35.1	18.950	0.230	-0.630	1.160
2020/01/31 19:27:35.2	18.960	0.230	-0.660	1.170
2020/01/31 19:27:35.3	18.970	0.240	-0.690	1.170
2020/01/31 19:27:35.4	18.980	0.250	-0.720	1.180
2020/01/31 19:27:35.5	18.990	0.250	-0.740	1.180
2020/01/31 19:27:35.6	19.010	0.250	-0.760	1.170
2020/01/31 19:27:35.7	19.030	0.250	-0.790	1.160
2020/01/31 19:27:35.8	19.060	0.250	-0.800	1.140
2020/01/31 19:27:35.9	19.070	0.240	-0.820	1.110
2020/01/31 19:27:36.0	19.100	0.230	-0.830	1.090
2020/01/31 19:27:36.1	19.130	0.220	-0.840	1.060
2020/01/31 19:27:36.2	19.170	0.210	-0.840	1.020
2020/01/31 19:27:36.3	19.200	0.200	-0.840	0.980
2020/01/31 19:27:36.4	19.240	0.180	-0.840	0.940
2020/01/31 19:27:36.5	19.270	0.160	-0.830	0.900
2020/01/31 19:27:36.6	19.310	0.140	-0.810	0.850
2020/01/31 19:27:36.7	19.340	0.120	-0.790	0.810
2020/01/31 19:27:36.8	19.380	0.100	-0.770	0.760
2020/01/31 19:27:36.9	19.420	0.080	-0.740	0.710
2020/01/31 19:27:37.0	19.450	0.050	-0.710	0.660
2020/01/31 19:27:37.1	19.490	0.020	-0.670	0.610
2020/01/31 19:27:37.2	19.520	-0.000	-0.630	0.570
2020/01/31 19:27:37.3	19.550	-0.030	-0.590	0.520
2020/01/31 19:27:37.4	19.580	-0.050	-0.540	0.480
2020/01/31 19:27:37.5	19.610	-0.080	-0.480	0.430
2020/01/31 19:27:37.6	19.640	-0.100	-0.430	0.390
2020/01/31 19:27:37.7	19.670	-0.120	-0.370	0.350
2020/01/31 19:27:37.8	19.690	-0.150	-0.300	0.320
2020/01/31 19:27:37.9	19.710	-0.170	-0.240	0.280
2020/01/31 19:27:38.0	19.730	-0.180	-0.180	0.250
2020/01/31 19:27:38.1	19.750	-0.200	-0.110	0.230
2020/01/31 19:27:38.2	19.770	-0.210	-0.040	0.200
2020/01/31 19:27:38.3	19.790	-0.220	0.020	0.180
2020/01/31 19:27:38.4	19.800	-0.230	0.080	0.170
2020/01/31 19:27:38.5	19.810	-0.240	0.150	0.150
2020/01/31 19:27:38.6	19.820	-0.240	0.200	0.140
2020/01/31 19:27:38.7	19.840	-0.240	0.260	0.140
2020/01/31 19:27:38.8	19.840	-0.230	0.310	0.130
2020/01/31 19:27:38.9	19.850	-0.220	0.360	0.130
2020/01/31 19:27:39.0	19.850	-0.210	0.400	0.140
2020/01/31 19:27:39.1	19.850	-0.200	0.440	0.140
2020/01/31 19:27:39.2	19.860	-0.180	0.470	0.150
2020/01/31 19:27:39.3	19.860	-0.160	0.500	0.160
2020/01/31 19:27:39.4	19.860	-0.130	0.520	0.170
2020/01/31 19:27:39.5	19.860	-0.110	0.540	0.180
2020/01/31 19:27:39.6	19.860	-0.080	0.550	0.200
2020/01/31 19:27:39.7	19.850	-0.050	0.550	0.220
2020/01/31 19:27:39.8	19.850	-0.020	0.550	0.240
2020/01/31 19:27:39.9	19.850	0.020	0.540	0.260
2020/01/31 19:27:40.0	19.850	0.050	0.520	0.280
2020/01/31 19:27:40.1	19.840	0.090	0.500	0.310
2020/01/31 19:27:40.2	19.830	0.120	0.480	0.330
2020/01/31 19:27:40.3	19.820	0.160	0.450	0.360
2020/01/31 19:27:40.4	19.810	0.200	0.410	0.380
2020/01/31 19:27:40.5	19.800	0.230	0.380	0.410
2020/01/31 19:27:40.6	19.790	0.270	0.330	0.440
2020/01/31 19:27:40.7	19.770	0.300	0.290	0.470
2020/01/31 19:27:40.8	19.760	0.330	0.240	0.500
2020/01/31 19:27:40.9	19.750	0.360	0.180	0.530
2020/01/31 19:27:41.0	19.730	0.390	0.130	0.550
2020/01/31 19:27:41.1	19.720	0.420	0.070	0.580
2020/01/31 19:27:41.2	19.710	0.440	0.020	0.600
2020/01/31 19:27:41.3	19.690	0.460	-0.040	0.620
2020/01/31 19:27:41.4	19.680	0.480	-0.100	0.640
2020/01/31 19:27:41.5	19.670	0.490	-0.160	0.660
2020/01/31 19:27:41.6	19.660	0.500	-0.210	0.680
2020/01/31 19:27:41.7	19.660	0.500	-0.270	0.690
2020/01/31 19:27:41.8	19.650	0.510	-0.320	0.700
2020/01/31 19:27:41.9	19.650	0.500	-0.380	0.710
2020/01/31 19:27:42.0	19.650	0.500	-0.430	0.710
2020/01/31 19:27:42.1	19.650	0.490	-0.470	0.710
2020/01/31 19:27:42.2	19.650	0.470	-0.520	0.710
2020/01/31 19:27:42.3	19.660	0.450	-0.550	0.700
2020/01/31 19:27:42.4	19.660	0.430	-0.590	0.690
2020/01/31 19:27:42.5	19.670	0.410	-0.620	0.680
2020/01/31 19:27:42.6	19.680	0.380	-0.640	0.660
2020/01/31 19:27:42.7	19.700	0.340	-0.660	0.640
2020/01/31 19:27:42.8	19.710	0.310	-0.670	0.610
2020/01/31 19:27:42.9	19.720	0.270	-0.670	0.580
2020/01/31 19:27:43.0	19.740	0.220	-0.670	0.550
2020/01/31 19:27:43.1	19.760	0.180	-0.670	0.520
2020/01/31 19:27:43.2	19.780	0.130	-0.650	0.480
2020/01/31 19:27:43.3	19.790	0.080	-0.630	0.440
2020/01/31 19:27:43.4	19.810	0.020	-0.610	0.400
2020/01/31 19:27:43.5	19.830	-0.030	-0.570	0.360
2020/01/31 19:27:43.6	19.850	-0.090	-0.530	0.310
2020/01/31 19:27:43.7	19.860	-0.150	-0.490	0.270
2020/01/31 19:27:43.8	19.880	-0.200	-0.440	0.230
2020/01/31 19:27:43.9	19.890	-0.260	-0.390	0.180
2020/01/31 19:27:44.0	19.900	-0.320	-0.330	0.140
2020/01/31 19:27:44.1	19.910	-0.380	-0.260	0.100
2020/01/31 19:27:44.2	19.920	-0.440	-0.200	0.060
2020/01/31 19:27:44.3	19.920	-0.490	-0.130	0.030
2020/01/31 19:27:44.4	19.920	-0.550	-0.060	-0.000
2020/01/31 19:27:44.5	19.920	-0.600	0.010	-0.030
2020/01/31 19:27:44.6	19.920	-0.650	0.090	-0.060
2020/01/31 19:27:44.7	19.920	-0.690	0.160	-0.080
2020/01/31 19:27:44.8	19.910	-0.740	0.220	-0.100
2020/01/31 19:27:44.9	19.910	-0.780	0.290	-0.120
2020/01/31 19:27:45.0	19.900	-0.810	0.350	-0.130
2020/01/31 19:27:45.1	19.890	-0.840	0.410	-0.140
2020/01/31 19:27:45.2	19.880	-0.870	0.460	-0.160
2020/01/31 19:27:45.3	19.870	-0.890	0.510	-0.170
2020/01/31 19:27:45.4	19.860	-0.910	0.550	-0.180
2020/01/31 19:27:45.5	19.850	-0.920	0.580	-0.180
2020/01/31 19:27:45.6	19.840	-0.930	0.610	-0.190
2020/01/31 19:27:45.7	19.820	-0.930	0.620	-0.200
2020/01/31 19:27:45.8	19.820	-0.920	0.630	-0.210
2020/01/31 19:27:45.9	19.810	-0.910	0.630	-0.210
2020/01/31 19:27:46.0	19.800	-0.900	0.630	-0.220
2020/01/31 19:27:46.1	19.800	-0.880	0.610	-0.230
2020/01/31 19:27:46.2	19.790	-0.850	0.590	-0.240
2020/01/31 19:27:46.3	19.790	-0.810	0.550	-0.250
2020/01/31 19:27:46.4	19.790	-0.770	0.510	-0.260
2020/01/31 19:27:46.5	19.790	-0.730	0.460	-0.270
2020/01/31 19:27:46.6	19.800	-0.680	0.410	-0.280
2020/01/31 19:27:46.7	19.810	-0.630	0.350	-0.290
2020/01/31 19:27:46.8	19.820	-0.570	0.280	-0.290
2020/01/31 19:27:46.9	19.830	-0.500	0.210	-0.310
2020/01/31 19:27:47.0	19.840	-0.440	0.130	-0.320
2020/01/31 19:27:47.1	19.850	-0.370	0.050	-0.320
2020/01/31 19:27:47.2	19.870	-0.300	-0.030	-0.330
2020/01/31 19:27:47.3	19.880	-0.230	-0.110	-0.330
2020/01/31 19:27:47.4	19.900	-0.150	-0.200	-0.330
2020/01/31 19:27:47.5	19.910	-0.080	-0.280	-0.330
2020/01/31 19:27:47.6	19.930	-0.000	-0.360	-0.320
2020/01/31 19:27:47.7	19.940	0.070	-0.440	-0.310
2020/01/31 19:27:47.8	19.950	0.150	-0.520	-0.300
2020/01/31 19:27:47.9	19.950	0.220	-0.600	-0.280
2020/01/31 19:27:48.0	19.960	0.290	-0.670	-0.250
2020/01/31 19:27:48.1	19.970	0.350	-0.740	-0.230
2020/01/31 19:27:48.2	19.970	0.420	-0.800	-0.200
2020/01/31 19:27:48.3	19.970	0.480	-0.860	-0.170
2020/01/31 19:27:48.4	19.970	0.530	-0.910	-0.130
2020/01/31 19:27:48.5	19.970	0.580	-0.950	-0.090
2020/01/31 19:27:48.6	19.970	0.630	-0.990	-0.050
2020/01/31 19:27:48.7	19.960	0.670	-1.020	-0.000
2020/01/31 19:27:48.8	19.950	0.700	-1.040	0.050
2020/01/31 19:27:48.9	19.950	0.730	-1.060	0.100
2020/01/31 19:27:49.0	19.940	0.760	-1.070	0.150
2020/01/31 19:27:49.1	19.930	0.770	-1.070	0.210
2020/01/31 19:27:49.2	19.920	0.790	-1.070	0.260
2020/01/31 19:27:49.3	19.910	0.790	-1.060	0.320
2020/01/31 19:27:49.4	19.900	0.790	-1.050	0.370
2020/01/31 19:27:49.5	19.890	0.790	-1.030	0.420
2020/01/31 19:27:49.6	19.880	0.780	-1.010	0.470
2020/01/31 19:27:49.7	19.880	0.760	-0.980	0.520
2020/01/31 19:27:49.8	19.880	0.740	-0.950	0.570
2020/01/31 19:27:49.9	19.880	0.720	-0.920	0.620
2020/01/31 19:27:50.0	19.880	0.690	-0.880	0.660
2020/01/31 19:27:50.1	19.890	0.660	-0.840	0.690
2020/01/31 19:27:50.2	19.900	0.630	-0.800	0.720
2020/01/31 19:27:50.3	19.910	0.590	-0.760	0.740
2020/01/31 19:27:50.4	19.920	0.550	-0.720	0.760
2020/01/31 19:27:50.5	19.940	0.510	-0.680	0.780
2020/01/31 19:27:50.6	19.960	0.470	-0.640	0.790
2020/01/31 19:27:50.7	19.980	0.430	-0.600	0.790
2020/01/31 19:27:50.8	20.010	0.390	-0.570	0.790
2020/01/31 19:27:50.9	20.040	0.350	-0.530	0.780
2020/01/31 19:27:51.0	20.070	0.300	-0.500	0.760
2020/01/31 19:27:51.1	20.100	0.260	-0.470	0.740
2020/01/31 19:27:51.2	20.140	0.230	-0.440	0.720
2020/01/31 19:27:51.3	20.170	0.190	-0.410	0.700
2020/01/31 19:27:51.4	20.210	0.150	-0.380	0.670
2020/01/31 19:27:51.5	20.250	0.120	-0.350	0.640
2020/01/31 19:27:51.6	20.280	0.090	-0.320	0.600
2020/01/31 19:27:51.7	20.320	0.060	-0.290	0.570
2020/01/31 19:27:51.8	20.360	0.030	-0.270	0.540
2020/01/31 19:27:51.9	20.380	0.000	-0.240	0.500
2020/01/31 19:27:52.0	20.420	-0.020	-0.210	0.470
2020/01/31 19:27:52.1	20.450	-0.040	-0.190	0.440
2020/01/31 19:27:52.2	20.480	-0.050	-0.160	0.410
2020/01/31 19:27:52.3	20.500	-0.070	-0.130	0.390
2020/01/31 19:27:52.4	20.530	-0.080	-0.090	0.360
2020/01/31 19:27:52.5	20.550	-0.090	-0.060	0.350
2020/01/31 19:27:52.6	20.570	-0.100	-0.030	0.340
2020/01/31 19:27:52.7	20.580	-0.100	0.010	0.330
2020/01/31 19:27:52.8	20.590	-0.110	0.050	0.330
2020/01/31 19:27:52.9	20.590	-0.110	0.090	0.330
2020/01/31 19:27:53.0	20.600	-0.110	0.130	0.330
2020/01/31 19:27:53.1	20.600	-0.110	0.170	0.340
2020/01/31 19:27:53.2	20.590	-0.110	0.220	0.360
2020/01/31 19:27:53.3	20.590	-0.110	0.260	0.370
2020/01/31 19:27:53.4	20.580	-0.100	0.300	0.400
2020/01/31 19:27:53.5	20.570	-0.100	0.350	0.420
2020/01/31 19:27:53.6	20.550	-0.100	0.390	0.440
2020/01/31 19:27:53.7	20.540	-0.090	0.430	0.470
2020/01/31 19:27:53.8	20.520	-0.090	0.470	0.500
2020/01/31 19:27:53.9	20.510	-0.090	0.500	0.530
2020/01/31 19:27:54.0	20.490	-0.090	0.530	0.560
2020/01/31 19:27:54.1	20.460	-0.090	0.560	0.590
2020/01/31 19:27:54.2	20.440	-0.090	0.590	0.620
2020/01/31 19:27:54.3	20.420	-0.090	0.610	0.640
2020/01/31 19:27:54.4	20.400	-0.090	0.630	0.660
2020/01/31 19:27:54.5	20.370	-0.100	0.650	0.680
2020/01/31 19:27:54.6	20.350	-0.100	0.660	0.700
2020/01/31 19:27:54.7	20.330	-0.110	0.670	0.720
2020/01/31 19:27:54.8	20.310	-0.120	0.680	0.730
2020/01/31 19:27:54.9	20.300	-0.130	0.680	0.730
2020/01/31 19:27:55.0	20.280	-0.140	0.680	0.740
2020/01/31 19:27:55.1	20.260	-0.150	0.670	0.740
2020/01/31 19:27:55.2	20.240	-0.160	0.660	0.740
2020/01/31 19:27:55.3	20.220	-0.170	0.640	0.730
2020/01/31 19:27:55.4	20.200	-0.190	0.620	0.720
2020/01/31 19:27:55.5	20.190	-0.200	0.600	0.710
2020/01/31 19:27:55.6	20.170	-0.220	0.570	0.700
2020/01/31 19:27:55.7	20.160	-0.240	0.550	0.680
2020/01/31 19:27:55.8	20.140	-0.250	0.520	0.660
2020/01/31 19:27:55.9	20.140	-0.270	0.480	0.640
2020/01/31 19:27:56.0	20.130	-0.280	0.450	0.620
2020/01/31 19:27:56.1	20.110	-0.300	0.420	0.600
2020/01/31 19:27:56.2	20.100	-0.310	0.380	0.580
2020/01/31 19:27:56.3	20.090	-0.330	0.340	0.560
2020/01/31 19:27:56.4	20.090	-0.340	0.310	0.540
2020/01/31 19:27:56.5	20.080	-0.350	0.270	0.510
2020/01/31 19:27:56.6	20.070	-0.360	0.230	0.490
2020/01/31 19:27:56.7	20.060	-0.370	0.190	0.470
2020/01/31 19:27:56.8	20.050	-0.380	0.150	0.450
2020/01/31 19:27:56.9	20.050	-0.380	0.110	0.430
2020/01/31 19:27:57.0	20.040	-0.380	0.070	0.410
2020/01/31 19:27:57.1	20.040	-0.380	0.030	0.390
2020/01/31 19:27:57.2	20.030	-0.380	-0.010	0.370
2020/01/31 19:27:57.3	20.030	-0.370	-0.060	0.350
2020/01/31 19:27:57.4	20.030	-0.360	-0.100	0.330
2020/01/31 19:27:57.5	20.030	-0.350	-0.150	0.310
2020/01/31 19:27:57.6	20.030	-0.340	-0.200	0.290
2020/01/31 19:27:57.7	20.030	-0.320	-0.250	0.270
2020/01/31 19:27:57.8	20.040	-0.300	-0.300	0.250
2020/01/31 19:27:57.9	20.050	-0.280	-0.350	0.220
2020/01/31 19:27:58.0	20.060	-0.250	-0.400	0.200
2020/01/31 19:27:58.1	20.070	-0.220	-0.460	0.170
2020/01/31 19:27:58.2	20.090	-0.190	-0.510	0.150
2020/01/31 19:27:58.3	20.110	-0.160	-0.570	0.120
2020/01/31 19:27:58.4	20.120	-0.130	-0.630	0.090
2020/01/31 19:27:58.5	20.140	-0.090	-0.690	0.060
2020/01/31 19:27:58.6	20.170	-0.050	-0.740	0.020
2020/01/31 19:27:58.7	20.190	-0.010	-0.800	-0.010
2020/01/31 19:27:58.8	20.220	0.030	-0.860	-0.050
2020/01/31 19:27:58.9	20.240	0.070	-0.920	-0.090
2020/01/31 19:27:59.0	20.270	0.110	-0.980	-0.130
2020/01/31 19:27:59.1	20.310	0.150	-1.040	-0.170
2020/01/31 19:27:59.2	20.340	0.190	-1.090	-0.210
2020/01/31 19:27:59.3	20.380	0.220	-1.140	-0.260
2020/01/31 19:27:59.4	20.420	0.260	-1.190	-0.300
2020/01/31 19:27:59.5	20.460	0.300	-1.240	-0.350
2020/01/31 19:27:59.6	20.510	0.330	-1.280	-0.390
2020/01/31 19:27:59.7	20.550	0.360	-1.320	-0.430
2020/01/31 19:27:59.8	20.600	0.390	-1.360	-0.480
2020/01/31 19:27:59.9	20.660	0.420	-1.380	-0.520
2020/01/31 19:28:00.0	20.700	0.440	-1.410	-0.560
2020/01/31 19:28:00.1	20.750	0.460	-1.420	-0.600
2020/01/31 19:28:00.2	20.800	0.480	-1.430	-0.630
2020/01/31 19:28:00.3	20.850	0.490	-1.430	-0.670
2020/01/31 19:28:00.4	20.890	0.500	-1.420	-0.700
2020/01/31 19:28:00.5	20.940	0.510	-1.410	-0.730
2020/01/31 19:28:00.6	20.980	0.510	-1.380	-0.750
2020/01/31 19:28:00.7	21.030	0.500	-1.350	-0.770
2020/01/31 19:28:00.8	21.070	0.500	-1.310	-0.790
2020/01/31 19:28:00.9	21.100	0.480	-1.260	-0.800
2020/01/31 19:28:01.0	21.140	0.470	-1.190	-0.800
2020/01/31 19:28:01.1	21.170	0.450	-1.120	-0.800
2020/01/31 19:28:01.2	21.200	0.430	-1.040	-0.790
2020/01/31 19:28:01.3	21.220	0.400	-0.950	-0.780
2020/01/31 19:28:01.4	21.250	0.370	-0.850	-0.760
2020/01/31 19:28:01.5	21.260	0.340	-0.750	-0.730
2020/01/31 19:28:01.6	21.270	0.300	-0.630	-0.700
2020/01/31 19:28:01.7	21.280	0.260	-0.510	-0.660
2020/01/31 19:28:01.8	21.270	0.220	-0.380	-0.610
2020/01/31 19:28:01.9	21.280	0.170	-0.250	-0.560
2020/01/31 19:28:02.0	21.260	0.130	-0.110	-0.500
2020/01/31 19:28:02.1	21.240	0.080	0.030	-0.430
2020/01/31 19:28:02.2	21.220	0.030	0.180	-0.360
2020/01/31 19:28:02.3	21.180	-0.020	0.320	-0.280
2020/01/31 19:28:02.4	21.140	-0.070	0.470	-0.200
2020/01/31 19:28:02.5	21.100	-0.120	0.610	-0.110
2020/01/31 19:28:02.6	21.050	-0.170	0.760	-0.030
2020/01/31 19:28:02.7	20.990	-0.220	0.890	0.070
2020/01/31 19:28:02.8	20.930	-0.270	1.020	0.160
2020/01/31 19:28:02.9	20.870	-0.320	1.150	0.250
2020/01/31 19:28:03.0	20.800	-0.360	1.260	0.350
2020/01/31 19:28:03.1	20.730	-0.410	1.370	0.440
2020/01/31 19:28:03.2	20.660	-0.450	1.460	0.530
2020/01/31 19:28:03.3	20.580	-0.480	1.550	0.610
2020/01/31 19:28:03.4	20.510	-0.510	1.610	0.690
2020/01/31 19:28:03.5	20.440	-0.540	1.670	0.770
2020/01/31 19:28:03.6	20.370	-0.570	1.710	0.840
2020/01/31 19:28:03.7	20.300	-0.590	1.730	0.910
2020/01/31 19:28:03.8	20.230	-0.600	1.740	0.970
2020/01/31 19:28:03.9	20.170	-0.610	1.720	1.020
2020/01/31 19:28:04.0	20.110	-0.620	1.690	1.070
2020/01/31 19:28:04.1	20.060	-0.610	1.650	1.100
2020/01/31 19:28:04.2	20.010	-0.610	1.590	1.130
2020/01/31 19:28:04.3	19.970	-0.600	1.510	1.150
2020/01/31 19:28:04.4	19.940	-0.580	1.420	1.160
2020/01/31 19:28:04.5	19.910	-0.560	1.310	1.160
2020/01/31 19:28:04.6	19.890	-0.530	1.180	1.150
2020/01/31 19:28:04.7	19.870	-0.500	1.050	1.130
2020/01/31 19:28:04.8	19.870	-0.460	0.900	1.110
2020/01/31 19:28:04.9	19.860	-0.420	0.740	1.080
2020/01/31 19:28:05.0	19.870	-0.380	0.570	1.040
2020/01/31 19:28:05.1	19.880	-0.330	0.400	0.990
2020/01/31 19:28:05.2	19.910	-0.280	0.210	0.940
2020/01/31 19:28:05.3	19.930	-0.230	0.030	0.880
2020/01/31 19:28:05.4	19.960	-0.180	-0.160	0.820
2020/01/31 19:28:05.5	20.000	-0.120	-0.350	0.750
2020/01/31 19:28:05.6	20.050	-0.060	-0.530	0.680
2020/01/31 19:28:05.7	20.100	-0.010	-0.720	0.600
2020/01/31 19:28:05.8	20.150	0.050	-0.890	0.520
2020/01/31 19:28:05.9	20.210	0.110	-1.060	0.440
2020/01/31 19:28:06.0	20.270	0.160	-1.230	0.360
2020/01/31 19:28:06.1	20.330	0.210	-1.380	0.280
2020/01/31 19:28:06.2	20.390	0.270	-1.520	0.200
2020/01/31 19:28:06.3	20.460	0.310	-1.650	0.110
2020/01/31 19:28:06.4	20.530	0.360	-1.770	0.030
2020/01/31 19:28:06.5	20.590	0.400	-1.870	-0.050
2020/01/31 19:28:06.6	20.660	0.440	-1.950	-0.130
2020/01/31 19:28:06.7	20.730	0.480	-2.020	-0.200
2020/01/31 19:28:06.8	20.790	0.510	-2.080	-0.280
2020/01/31 19:28:06.9	20.860	0.530	-2.120	-0.350
2020/01/31 19:28:07.0	20.920	0.560	-2.140	-0.410
2020/01/31 19:28:07.1	20.980	0.570	-2.140	-0.480
2020/01/31 19:28:07.2	21.040	0.590	-2.130	-0.540
2020/01/31 19:28:07.3	21.100	0.600	-2.100	-0.590
2020/01/31 19:28:07.4	21.150	0.600	-2.050	-0.640
2020/01/31 19:28:07.5	21.200	0.600	-1.990	-0.680
2020/01/31 19:28:07.6	21.250	0.600	-1.920	-0.720
2020/01/31 19:28:07.7	21.290	0.590	-1.830	-0.750
2020/01/31 19:28:07.8	21.330	0.570	-1.730	-0.780
2020/01/31 19:28:07.9	21.370	0.560	-1.610	-0.790
2020/01/31 19:28:08.0	21.400	0.540	-1.490	-0.810
2020/01/31 19:28:08.1	21.430	0.510	-1.350	-0.810
2020/01/31 19:28:08.2	21.450	0.490	-1.210	-0.810
2020/01/31 19:28:08.3	21.470	0.460	-1.060	-0.800
2020/01/31 19:28:08.4	21.480	0.430	-0.910	-0.790
2020/01/31 19:28:08.5	21.490	0.390	-0.750	-0.770
2020/01/31 19:28:08.6	21.490	0.360	-0.590	-0.740
2020/01/31 19:28:08.7	21.490	0.320	-0.430	-0.700
2020/01/31 19:28:08.8	21.490	0.290	-0.270	-0.660
2020/01/31 19:28:08.9	21.470	0.250	-0.120	-0.600
2020/01/31 19:28:09.0	21.460	0.210	0.040	-0.550
2020/01/31 19:28:09.1	21.440	0.180	0.190	-0.480
2020/01/31 19:28:09.2	21.420	0.140	0.330	-0.410
2020/01/31 19:28:09.3	21.400	0.110	0.470	-0.330
2020/01/31 19:28:09.4	21.370	0.070	0.590	-0.250
2020/01/31 19:28:09.5	21.340	0.040	0.710	-0.170
2020/01/31 19:28:09.6	21.310	0.010	0.820	-0.080
2020/01/31 19:28:09.7	21.270	-0.010	0.920	0.020
2020/01/31 19:28:09.8	21.230	-0.040	1.000	0.110
2020/01/31 19:28:09.9	21.190	-0.060	1.080	0.210
2020/01/31 19:28:10.0	21.150	-0.080	1.140	0.310
2020/01/31 19:28:10.1	21.110	-0.090	1.180	0.400
2020/01/31 19:28:10.2	21.070	-0.110	1.220	0.500
2020/01/31 19:28:10.3	21.020	-0.120	1.240	0.590
2020/01/31 19:28:10.4	20.980	-0.130	1.250	0.690
2020/01/31 19:28:10.5	20.930	-0.130	1.250	0.780
2020/01/31 19:28:10.6	20.890	-0.140	1.230	0.860
2020/01/31 19:28:10.7	20.850	-0.140	1.210	0.940
2020/01/31 19:28:10.8	20.810	-0.130	1.170	1.020
2020/01/31 19:28:10.9	20.780	-0.130	1.130	1.100
2020/01/31 19:28:11.0	20.740	-0.120	1.070	1.160
2020/01/31 19:28:11.1	20.700	-0.110	1.010	1.220
2020/01/31 19:28:11.2	20.670	-0.100	0.930	1.280
2020/01/31 19:28:11.3	20.630	-0.090	0.860	1.320
2020/01/31 19:28:11.4	20.600	-0.080	0.770	1.360
2020/01/31 19:28:11.5	20.580	-0.070	0.680	1.400
2020/01/31 19:28:11.6	20.560	-0.050	0.590	1.420
2020/01/31 19:28:11.7	20.540	-0.040	0.490	1.440
2020/01/31 19:28:11.8	20.530	-0.020	0.390	1.440
2020/01/31 19:28:11.9	20.510	-0.010	0.290	1.450
2020/01/31 19:28:12.0	20.510	0.000	0.190	1.440
2020/01/31 19:28:12.1	20.510	0.010	0.090	1.420
2020/01/31 19:28:12.2	20.510	0.020	-0.010	1.400
2020/01/31 19:28:12.3	20.520	0.030	-0.110	1.370
2020/01/31 19:28:12.4	20.540	0.040	-0.200	1.330
2020/01/31 19:28:12.5	20.550	0.040	-0.290	1.290
2020/01/31 19:28:12.6	20.580	0.050	-0.380	1.240
2020/01/31 19:28:12.7	20.600	0.040	-0.460	1.180
2020/01/31 19:28:12.8	20.630	0.040	-0.540	1.120
2020/01/31 19:28:12.9	20.670	0.040	-0.610	1.050
2020/01/31 19:28:13.0	20.700	0.030	-0.670	0.980
2020/01/31 19:28:13.1	20.740	0.020	-0.730	0.910
2020/01/31 19:28:13.2	20.780	0.000	-0.780	0.830
2020/01/31 19:28:13.3	20.820	-0.010	-0.820	0.750
2020/01/31 19:28:13.4	20.870	-0.030	-0.850	0.670
2020/01/31 19:28:13.5	20.910	-0.060	-0.880	0.600
2020/01/31 19:28:13.6	20.950	-0.080	-0.900	0.520
2020/01/31 19:28:13.7	21.000	-0.110	-0.900	0.440
2020/01/31 19:28:13.8	21.040	-0.140	-0.900	0.360
2020/01/31 19:28:13.9	21.080	-0.160	-0.900	0.280
2020/01/31 19:28:14.0	21.120	-0.200	-0.880	0.200
2020/01/31 19:28:14.1	21.160	-0.230	-0.860	0.130
2020/01/31 19:28:14.2	21.200	-0.260	-0.830	0.050
2020/01/31 19:28:14.3	21.240	-0.290	-0.790	-0.020
2020/01/31 19:28:14.4	21.270	-0.330	-0.750	-0.080
2020/01/31 19:28:14.5	21.300	-0.360	-0.700	-0.150
2020/01/31 19:28:14.6	21.330	-0.390	-0.650	-0.210
2020/01/31 19:28:14.7	21.360	-0.420	-0.590	-0.270
2020/01/31 19:28:14.8	21.380	-0.450	-0.540	-0.320
2020/01/31 19:28:14.9	21.400	-0.480	-0.470	-0.380
2020/01/31 19:28:15.0	21.420	-0.500	-0.410	-0.430
2020/01/31 19:28:15.1	21.430	-0.520	-0.350	-0.470
2020/01/31 19:28:15.2	21.440	-0.540	-0.290	-0.510
2020/01/31 19:28:15.3	21.450	-0.560	-0.230	-0.540
2020/01/31 19:28:15.4	21.460	-0.570	-0.170	-0.570
2020/01/31 19:28:15.5	21.460	-0.580	-0.110	-0.590
2020/01/31 19:28:15.6	21.460	-0.580	-0.050	-0.600
2020/01/31 19:28:15.7	21.450	-0.580	0.000	-0.620
2020/01/31 19:28:15.8	21.440	-0.570	0.050	-0.620
2020/01/31 19:28:15.9	21.430	-0.560	0.090	-0.620
2020/01/31 19:28:16.0	21.420	-0.550	0.130	-0.620
2020/01/31 19:28:16.1	21.400	-0.530	0.170	-0.610
2020/01/31 19:28:16.2	21.390	-0.510	0.190	-0.600
2020/01/31 19:28:16.3	21.370	-0.480	0.220	-0.580
2020/01/31 19:28:16.4	21.350	-0.450	0.240	-0.560
2020/01/31 19:28:16.5	21.320	-0.420	0.250	-0.530
2020/01/31 19:28:16.6	21.300	-0.380	0.250	-0.500
2020/01/31 19:28:16.7	21.280	-0.340	0.250	-0.470
2020/01/31 19:28:16.8	21.250	-0.290	0.250	-0.430
2020/01/31 19:28:16.9	21.230	-0.250	0.240	-0.390
2020/01/31 19:28:17.0	21.200	-0.200	0.220	-0.350
2020/01/31 19:28:17.1	21.170	-0.150	0.200	-0.300
2020/01/31 19:28:17.2	21.150	-0.100	0.180	-0.260
2020/01/31 19:28:17.3	21.120	-0.040	0.150	-0.210
2020/01/31 19:28:17.4	21.090	0.010	0.110	-0.160
2020/01/31 19:28:17.5	21.070	0.060	0.070	-0.110
2020/01/31 19:28:17.6	21.050	0.120	0.030	-0.060
2020/01/31 19:28:17.7	21.020	0.170	-0.020	-0.010
2020/01/31 19:28:17.8	21.000	0.220	-0.060	0.040
2020/01/31 19:28:17.9	20.980	0.270	-0.120	0.100
2020/01/31 19:28:18.0	20.960	0.320	-0.170	0.150
2020/01/31 19:28:18.1	20.940	0.360	-0.220	0.200
2020/01/31 19:28:18.2	20.920	0.410	-0.280	0.250
2020/01/31 19:28:18.3	20.910	0.450	-0.330	0.290
2020/01/31 19:28:18.4	20.900	0.480	-0.380	0.340
2020/01/31 19:28:18.5	20.890	0.520	-0.440	0.380
2020/01/31 19:28:18.6	20.880	0.550	-0.490	0.420
2020/01/31 19:28:18.7	20.880	0.570	-0.540	0.460
2020/01/31 19:28:18.8	20.870	0.590	-0.580	0.500
2020/01/31 19:28:18.9	20.870	0.610	-0.630	0.530
2020/01/31 19:28:19.0	20.870	0.630	-0.670	0.560
2020/01/31 19:28:19.1	20.880	0.630	-0.700	0.590
2020/01/31 19:28:19.2	20.890	0.640	-0.740	0.610
2020/01/31 19:28:19.3	20.900	0.640	-0.770	0.630
2020/01/31 19:28:19.4	20.910	0.640	-0.790	0.640
2020/01/31 19:28:19.5	20.930	0.630	-0.810	0.650
2020/01/31 19:28:19.6	20.950	0.620	-0.830	0.650
2020/01/31 19:28:19.7	20.970	0.600	-0.840	0.650
2020/01/31 19:28:19.8	20.990	0.590	-0.850	0.650
2020/01/31 19:28:19.9	21.020	0.560	-0.850	0.640
2020/01/31 19:28:20.0	21.040	0.540	-0.840	0.630
2020/01/31 19:28:20.1	21.070	0.510	-0.840	0.610
2020/01/31 19:28:20.2	21.100	0.480	-0.820	0.600
2020/01/31 19:28:20.3	21.120	0.450	-0.810	0.580
2020/01/31 19:28:20.4	21.150	0.420	-0.780	0.550
2020/01/31 19:28:20.5	21.180	0.390	-0.760	0.530
2020/01/31 19:28:20.6	21.210	0.350	-0.730	0.500
2020/01/31 19:28:20.7	21.240	0.310	-0.690	0.480
2020/01/31 19:28:20.8	21.270	0.280	-0.660	0.450
2020/01/31 19:28:20.9	21.300	0.240	-0.610	0.420
2020/01/31 19:28:21.0	21.320	0.200	-0.570	0.390
2020/01/31 19:28:21.1	21.350	0.170	-0.520	0.370
2020/01/31 19:28:21.2	21.370	0.130	-0.470	0.340
2020/01/31 19:28:21.3	21.390	0.100	-0.420	0.320
2020/01/31 19:28:21.4	21.410	0.060	-0.370	0.290
2020/01/31 19:28:21.5	21.430	0.030	-0.320	0.270
2020/01/31 19:28:21.6	21.450	0.000	-0.260	0.250
2020/01/31 19:28:21.7	21.460	-0.020	-0.210	0.230
2020/01/31 19:28:21.8	21.480	-0.050	-0.150	0.220
2020/01/31 19:28:21.9	21.480	-0.070	-0.100	0.200
2020/01/31 19:28:22.0	21.490	-0.090	-0.050	0.190
2020/01/31 19:28:22.1	21.500	-0.100	0.010	0.190
2020/01/31 19:28:22.2	21.500	-0.120	0.060	0.180
2020/01/31 19:28:22.3	21.510	-0.130	0.100	0.190
2020/01/31 19:28:22.4	21.510	-0.130	0.150	0.190
2020/01/31 19:28:22.5	21.500	-0.140	0.190	0.200
2020/01/31 19:28:22.6	21.500	-0.140	0.230	0.210
2020/01/31 19:28:22.7	21.500	-0.130	0.270	0.220
2020/01/31 19:28:22.8	21.490	-0.130	0.310	0.240
2020/01/31 19:28:22.9	21.480	-0.120	0.330	0.270
2020/01/31 19:28:23.0	21.470	-0.110	0.360	0.290
2020/01/31 19:28:23.1	21.460	-0.100	0.380	0.320
2020/01/31 19:28:23.2	21.450	-0.090	0.400	0.340
2020/01/31 19:28:23.3	21.440	-0.070	0.420	0.370
2020/01/31 19:28:23.4	21.430	-0.060	0.430	0.400
2020/01/31 19:28:23.5	21.410	-0.040	0.430	0.430
2020/01/31 19:28:23.6	21.400	-0.020	0.430	0.470
2020/01/31 19:28:23.7	21.390	-0.010	0.430	0.500
2020/01/31 19:28:23.8	21.370	0.010	0.420	0.530
2020/01/31 19:28:23.9	21.370	0.030	0.400	0.560
2020/01/31 19:28:24.0	21.360	0.050	0.380	0.590
2020/01/31 19:28:24.1	21.350	0.070	0.360	0.620
2020/01/31 19:28:24.2	21.340	0.080	0.330	0.650
2020/01/31 19:28:24.3	21.330	0.100	0.300	0.680
2020/01/31 19:28:24.4	21.320	0.110	0.270	0.710
2020/01/31 19:28:24.5	21.310	0.130	0.230	0.730
2020/01/31 19:28:24.6	21.310	0.140	0.190	0.750
2020/01/31 19:28:24.7	21.300	0.150	0.150	0.770
2020/01/31 19:28:24.8	21.300	0.150	0.100	0.790
2020/01/31 19:28:24.9	21.310	0.160	0.060	0.810
2020/01/31 19:28:25.0	21.310	0.160	0.020	0.820
2020/01/31 19:28:25.1	21.310	0.160	-0.030	0.830
2020/01/31 19:28:25.2	21.310	0.160	-0.070	0.830
2020/01/31 19:28:25.3	21.320	0.160	-0.110	0.830
2020/01/31 19:28:25.4	21.320	0.160	-0.150	0.830
2020/01/31 19:28:25.5	21.330	0.150	-0.190	0.830
2020/01/31 19:28:25.6	21.330	0.140	-0.220	0.820
2020/01/31 19:28:25.7	21.340	0.130	-0.250	0.810
2020/01/31 19:28:25.8	21.350	0.120	-0.280	0.800
2020/01/31 19:28:25.9	21.360	0.100	-0.300	0.780
2020/01/31 19:28:26.0	21.370	0.090	-0.320	0.770
2020/01/31 19:28:26.1	21.370	0.070	-0.330	0.750
2020/01/31 19:28:26.2	21.380	0.050	-0.340	0.740
2020/01/31 19:28:26.3	21.390	0.030	-0.350	0.720
2020/01/31 19:28:26.4	21.400	0.010	-0.350	0.700
2020/01/31 19:28:26.5	21.410	-0.010	-0.340	0.680
2020/01/31 19:28:26.6	21.410	-0.030	-0.330	0.670
2020/01/31 19:28:26.7	21.410	-0.050	-0.320	0.650
2020/01/31 19:28:26.8	21.420	-0.070	-0.300	0.630
2020/01/31 19:28:26.9	21.410	-0.090	-0.280	0.620
2020/01/31 19:28:27.0	21.410	-0.110	-0.260	0.600
2020/01/31 19:28:27.1	21.410	-0.130	-0.240	0.590
2020/01/31 19:28:27.2	21.400	-0.150	-0.210	0.580
2020/01/31 19:28:27.3	21.390	-0.160	-0.180	0.570
2020/01/31 19:28:27.4	21.390	-0.180	-0.150	0.560
2020/01/31 19:28:27.5	21.380	-0.200	-0.120	0.550
2020/01/31 19:28:27.6	21.360	-0.210	-0.100	0.540
2020/01/31 19:28:27.7	21.350	-0.220	-0.070	0.530
2020/01/31 19:28:27.8	21.340	-0.230	-0.050	0.520
2020/01/31 19:28:27.9	21.320	-0.240	-0.020	0.510
2020/01/31 19:28:28.0	21.300	-0.250	-0.000	0.490
2020/01/31 19:28:28.1	21.290	-0.250	0.010	0.480
2020/01/31 19:28:28.2	21.270	-0.260	0.030	0.460
2020/01/31 19:28:28.3	21.250	-0.260	0.040	0.450
2020/01/31 19:28:28.4	21.240	-0.260	0.050	0.430
2020/01/31 19:28:28.5	21.220	-0.260	0.050	0.400
2020/01/31 19:28:28.6	21.210	-0.250	0.050	0.380
2020/01/31 19:28:28.7	21.200	-0.250	0.040	0.350
2020/01/31 19:28:28.8	21.190	-0.240	0.030	0.320
2020/01/31 19:28:28.9	21.180	-0.230	0.020	0.280
2020/01/31 19:28:29.0	21.170	-0.220	-0.000	0.250
2020/01/31 19:28:29.1	21.170	-0.210	-0.020	0.210
2020/01/31 19:28:29.2	21.160	-0.200	-0.050	0.170
2020/01/31 19:28:29.3	21.160	-0.180	-0.080	0.130
2020/01/31 19:28:29.4	21.160	-0.170	-0.110	0.080
2020/01/31 19:28:29.5	21.160	-0.150	-0.140	0.030
2020/01/31 19:28:29.6	21.160	-0.140	-0.180	-0.010
2020/01/31 19:28:29.7	21.170	-0.120	-0.220	-0.060
2020/01/31 19:28:29.8	21.170	-0.110	-0.260	-0.110
2020/01/31 19:28:29.9	21.180	-0.090	-0.300	-0.160
2020/01/31 19:28:30.0	21.190	-0.070	-0.340	-0.210
2020/01/31 19:28:30.1	21.200	-0.060	-0.370	-0.260
2020/01/31 19:28:30.2	21.210	-0.050	-0.410	-0.300
2020/01/31 19:28:30.3	21.220	-0.030	-0.450	-0.350
2020/01/31 19:28:30.4	21.230	-0.020	-0.480	-0.390
2020/01/31 19:28:30.5	21.240	-0.010	-0.510	-0.430
2020/01/31 19:28:30.6	21.250	0.000	-0.540	-0.470
2020/01/31 19:28:30.7	21.270	0.010	-0.560	-0.510
2020/01/31 19:28:30.8	21.280	0.020	-0.580	-0.540
2020/01/31 19:28:30.9	21.290	0.020	-0.600	-0.570
2020/01/31 19:28:31.0	21.310	0.020	-0.610	-0.600
2020/01/31 19:28:31.1	21.320	0.020	-0.620	-0.620
2020/01/31 19:28:31.2	21.330	0.020	-0.620	-0.640
2020/01/31 19:28:31.3	21.340	0.020	-0.610	-0.660
2020/01/31 19:28:31.4	21.350	0.020	-0.600	-0.670
2020/01/31 19:28:31.5	21.360	0.010	-0.580	-0.680
2020/01/31 19:28:31.6	21.360	0.000	-0.560	-0.680
2020/01/31 19:28:31.7	21.370	-0.000	-0.540	-0.680
2020/01/31 19:28:31.8	21.370	-0.010	-0.510	-0.680
2020/01/31 19:28:31.9	21.390	-0.020	-0.480	-0.670
2020/01/31 19:28:32.0	21.390	-0.040	-0.440	-0.660
2020/01/31 19:28:32.1	21.390	-0.050	-0.400	-0.640
2020/01/31 19:28:32.2	21.390	-0.060	-0.360	-0.620
2020/01/31 19:28:32.3	21.380	-0.070	-0.320	-0.590
2020/01/31 19:28:32.4	21.380	-0.090	-0.270	-0.560
2020/01/31 19:28:32.5	21.370	-0.100	-0.230	-0.530
2020/01/31 19:28:32.6	21.360	-0.110	-0.180	-0.490
2020/01/31 19:28:32.7	21.350	-0.120	-0.140	-0.460
2020/01/31 19:28:32.8	21.340	-0.130	-0.090	-0.410
2020/01/31 19:28:32.9	21.320	-0.140	-0.060	-0.370
2020/01/31 19:28:33.0	21.310	-0.150	-0.020	-0.330
2020/01/31 19:28:33.1	21.300	-0.160	0.020	-0.280
2020/01/31 19:28:33.2	21.290	-0.160	0.050	-0.230
2020/01/31 19:28:33.3	21.280	-0.170	0.080	-0.190
2020/01/31 19:28:33.4	21.270	-0.170	0.110	-0.140
2020/01/31 19:28:33.5	21.260	-0.170	0.130	-0.090
2020/01/31 19:28:33.6	21.250	-0.160	0.140	-0.050
2020/01/31 19:28:33.7	21.240	-0.160	0.150	-0.000
2020/01/31 19:28:33.8	21.230	-0.150	0.150	0.040
2020/01/31 19:28:33.9	21.230	-0.140	0.150	0.080
2020/01/31 19:28:34.0	21.220	-0.130	0.140	0.120
2020/01/31 19:28:34.1	21.220	-0.110	0.130	0.160
2020/01/31 19:28:34.2	21.220	-0.100	0.110	0.190
2020/01/31 19:28:34.3	21.230	-0.080	0.090	0.220
2020/01/31 19:28:34.4	21.230	-0.050	0.070	0.250
2020/01/31 19:28:34.5	21.240	-0.030	0.040	0.270
2020/01/31 19:28:34.6	21.250	-0.010	0.000	0.300
2020/01/31 19:28:34.7	21.260	0.020	-0.030	0.320
2020/01/31 19:28:34.8	21.270	0.040	-0.070	0.340
2020/01/31 19:28:34.9	21.280	0.070	-0.110	0.360
2020/01/31 19:28:35.0	21.290	0.100	-0.150	0.370
2020/01/31 19:28:35.1	21.300	0.130	-0.190	0.390
2020/01/31 19:28:35.2	21.320	0.150	-0.230	0.400
2020/01/31 19:28:35.3	21.330	0.180	-0.270	0.420
2020/01/31 19:28:35.4	21.350	0.210	-0.300	0.430
2020/01/31 19:28:35.5	21.360	0.230	-0.340	0.440
2020/01/31 19:28:35.6	21.380	0.250	-0.370	0.450
2020/01/31 19:28:35.7	21.400	0.270	-0.400	0.460
2020/01/31 19:28:35.8	21.410	0.290	-0.420	0.470
2020/01/31 19:28:35.9	21.430	0.310	-0.440	0.490
2020/01/31 19:28:36.0	21.450	0.320	-0.460	0.500
2020/01/31 19:28:36.1	21.460	0.340	-0.470	0.510
2020/01/31 19:28:36.2	21.470	0.350	-0.480	0.520
2020/01/31 19:28:36.3	21.480	0.350	-0.480	0.540
2020/01/31 19:28:36.4	21.490	0.350	-0.470	0.550
2020/01/31 19:28:36.5	21.500	0.350	-0.460	0.570
2020/01/31 19:28:36.6	21.510	0.350	-0.450	0.580
2020/01/31 19:28:36.7	21.510	0.340	-0.430	0.600
2020/01/31 19:28:36.8	21.520	0.330	-0.410	0.620
2020/01/31 19:28:36.9	21.520	0.320	-0.390	0.630
2020/01/31 19:28:37.0	21.520	0.310	-0.360	0.650
2020/01/31 19:28:37.1	21.520	0.290	-0.330	0.670
2020/01/31 19:28:37.2	21.520	0.270	-0.290	0.680
2020/01/31 19:28:37.3	21.510	0.250	-0.260	0.700
2020/01/31 19:28:37.4	21.500	0.220	-0.220	0.710
2020/01/31 19:28:37.5	21.500	0.200	-0.190	0.720
2020/01/31 19:28:37.6	21.490	0.170	-0.150	0.730
2020/01/31 19:28:37.7	21.480	0.140	-0.110	0.740
2020/01/31 19:28:37.8	21.470	0.120	-0.080	0.750
2020/01/31 19:28:37.9	21.450	0.090	-0.050	0.750
2020/01/31 19:28:38.0	21.440	0.060	-0.020	0.750
2020/01/31 19:28:38.1	21.430	0.030	0.000	0.750
2020/01/31 19:28:38.2	21.420	0.000	0.030	0.750
2020/01/31 19:28:38.3	21.400	-0.020	0.050	0.740
2020/01/31 19:28:38.4	21.390	-0.050	0.060	0.740
2020/01/31 19:28:38.5	21.370	-0.070	0.070	0.720
2020/01/31 19:28:38.6	21.360	-0.090	0.080	0.710
2020/01/31 19:28:38.7	21.350	-0.110	0.080	0.690
2020/01/31 19:28:38.8	21.340	-0.130	0.080	0.670
2020/01/31 19:28:38.9	21.330	-0.140	0.070	0.650
2020/01/31 19:28:39.0	21.320	-0.150	0.060	0.620
2020/01/31 19:28:39.1	21.310	-0.160	0.040	0.600
2020/01/31 19:28:39.2	21.310	-0.160	0.020	0.570
2020/01/31 19:28:39.3	21.300	-0.170	0.000	0.540
2020/01/31 19:28:39.4	21.300	-0.160	-0.030	0.510
2020/01/31 19:28:39.5	21.290	-0.160	-0.060	0.470
2020/01/31 19:28:39.6	21.290	-0.140	-0.090	0.440
2020/01/31 19:28:39.7	21.290	-0.130	-0.130	0.410
2020/01/31 19:28:39.8	21.290	-0.110	-0.170	0.370
2020/01/31 19:28:39.9	21.300	-0.090	-0.210	0.330
2020/01/31 19:28:40.0	21.300	-0.070	-0.260	0.300
2020/01/31 19:28:40.1	21.310	-0.040	-0.300	0.260
2020/01/31 19:28:40.2	21.310	-0.020	-0.340	0.230
2020/01/31 19:28:40.3	21.320	0.020	-0.390	0.200
2020/01/31 19:28:40.4	21.330	0.050	-0.430	0.160
2020/01/31 19:28:40.5	21.340	0.080	-0.470	0.130
2020/01/31 19:28:40.6	21.350	0.120	-0.510	0.110
2020/01/31 19:28:40.7	21.360	0.160	-0.540	0.080
2020/01/31 19:28:40.8	21.370	0.190	-0.580	0.050
2020/01/31 19:28:40.9	21.370	0.230	-0.600	0.030
2020/01/31 19:28:41.0	21.380	0.260	-0.630	0.010
2020/01/31 19:28:41.1	21.390	0.300	-0.640	-0.010
2020/01/31 19:28:41.2	21.400	0.330	-0.650	-0.020
2020/01/31 19:28:41.3	21.410	0.360	-0.660	-0.030
2020/01/31 19:28:41.4	21.420	0.390	-0.660	-0.040
2020/01/31 19:28:41.5	21.430	0.420	-0.650	-0.050
2020/01/31 19:28:41.6	21.430	0.440	-0.640	-0.050
2020/01/31 19:28:41.7	21.440	0.460	-0.620	-0.050
2020/01/31 19:28:41.8	21.440	0.480	-0.590	-0.050
2020/01/31 19:28:41.9	21.440	0.490	-0.560	-0.040
2020/01/31 19:28:42.0	21.450	0.500	-0.520	-0.040
2020/01/31 19:28:42.1	21.450	0.510	-0.480	-0.030
2020/01/31 19:28:42.2	21.450	0.510	-0.430	-0.020
2020/01/31 19:28:42.3	21.450	0.500	-0.380	-0.020
2020/01/31 19:28:42.4	21.450	0.490	-0.320	-0.010
2020/01/31 19:28:42.5	21.450	0.480	-0.260	0.000
2020/01/31 19:28:42.6	21.450	0.460	-0.200	0.010
2020/01/31 19:28:42.7	21.450	0.440	-0.130	0.020
2020/01/31 19:28:42.8	21.450	0.420	-0.070	0.030
2020/01/31 19:28:42.9	21.450	0.390	-0.010	0.040
2020/01/31 19:28:43.0	21.450	0.360	0.060	0.050
2020/01/31 19:28:43.1	21.450	0.320	0.120	0.060
2020/01/31 19:28:43.2	21.450	0.280	0.180	0.070
2020/01/31 19:28:43.3	21.450	0.240	0.240	0.080
2020/01/31 19:28:43.4	21.460	0.200	0.300	0.080
2020/01/31 19:28:43.5	21.460	0.160	0.350	0.090
2020/01/31 19:28:43.6	21.460	0.110	0.390	0.090
2020/01/31 19:28:43.7	21.460	0.070	0.440	0.100
2020/01/31 19:28:43.8	21.470	0.020	0.470	0.100
2020/01/31 19:28:43.9	21.470	-0.030	0.500	0.100
2020/01/31 19:28:44.0	21.480	-0.080	0.530	0.100
2020/01/31 19:28:44.1	21.480	-0.120	0.550	0.110
2020/01/31 19:28:44.2	21.490	-0.170	0.560	0.110
2020/01/31 19:28:44.3	21.490	-0.210	0.570	0.110
2020/01/31 19:28:44.4	21.490	-0.260	0.580	0.110
2020/01/31 19:28:44.5	21.500	-0.300	0.580	0.110
2020/01/31 19:28:44.6	21.500	-0.340	0.570	0.110
2020/01/31 19:28:44.7	21.500	-0.380	0.560	0.100
2020/01/31 19:28:44.8	21.510	-0.420	0.540	0.100
2020/01/31 19:28:44.9	21.500	-0.450	0.520	0.100
2020/01/31 19:28:45.0	21.500	-0.490	0.500	0.100
2020/01/31 19:28:45.1	21.510	-0.520	0.470	0.100
2020/01/31 19:28:45.2	21.510	-0.540	0.440	0.100
2020/01/31 19:28:45.3	21.510	-0.570	0.410	0.090
2020/01/31 19:28:45.4	21.510	-0.590	0.380	0.090
2020/01/31 19:28:45.5	21.510	-0.610	0.340	0.080
2020/01/31 19:28:45.6	21.510	-0.630	0.310	0.080
2020/01/31 19:28:45.7	21.510	-0.640	0.270	0.070
2020/01/31 19:28:45.8	21.500	-0.650	0.230	0.070
2020/01/31 19:28:45.9	21.510	-0.660	0.190	0.060
2020/01/31 19:28:46.0	21.510	-0.670	0.150	0.050
2020/01/31 19:28:46.1	21.510	-0.670	0.110	0.040
2020/01/31 19:28:46.2	21.510	-0.670	0.070	0.030
2020/01/31 19:28:46.3	21.510	-0.670	0.030	0.020
2020/01/31 19:28:46.4	21.510	-0.670	-0.010	0.010
2020/01/31 19:28:46.5	21.510	-0.660	-0.050	-0.000
2020/01/31 19:28:46.6	21.510	-0.660	-0.090	-0.010
2020/01/31 19:28:46.7	21.510	-0.640	-0.140	-0.030
2020/01/31 19:28:46.8	21.510	-0.630	-0.180	-0.040
2020/01/31 19:28:46.9	21.520	-0.620	-0.220	-0.060
2020/01/31 19:28:47.0	21.530	-0.600	-0.260	-0.070
2020/01/31 19:28:47.1	21.530	-0.580	-0.300	-0.090
2020/01/31 19:28:47.2	21.530	-0.560	-0.350	-0.110
2020/01/31 19:28:47.3	21.540	-0.540	-0.390	-0.120
2020/01/31 19:28:47.4	21.540	-0.520	-0.430	-0.140
2020/01/31 19:28:47.5	21.540	-0.490	-0.470	-0.150
2020/01/31 19:28:47.6	21.550	-0.460	-0.500	-0.160
2020/01/31 19:28:47.7	21.550	-0.440	-0.540	-0.180
2020/01/31 19:28:47.8	21.560	-0.410	-0.580	-0.190
2020/01/31 19:28:47.9	21.570	-0.380	-0.610	-0.200
2020/01/31 19:28:48.0	21.570	-0.340	-0.640	-0.210
2020/01/31 19:28:48.1	21.580	-0.310	-0.670	-0.210
2020/01/31 19:28:48.2	21.580	-0.280	-0.700	-0.220
2020/01/31 19:28:48.3	21.580	-0.240	-0.730	-0.220
2020/01/31 19:28:48.4	21.590	-0.210	-0.750	-0.220
2020/01/31 19:28:48.5	21.590	-0.170	-0.780	-0.220
2020/01/31 19:28:48.6	21.590	-0.130	-0.790	-0.220
2020/01/31 19:28:48.7	21.590	-0.100	-0.810	-0.210
2020/01/31 19:28:48.8	21.590	-0.060	-0.820	-0.200
2020/01/31 19:28:48.9	21.590	-0.020	-0.830	-0.180
2020/01/31 19:28:49.0	21.590	0.020	-0.830	-0.170
2020/01/31 19:28:49.1	21.590	0.050	-0.830	-0.150
2020/01/31 19:28:49.2	21.590	0.090	-0.830	-0.130
2020/01/31 19:28:49.3	21.590	0.130	-0.820	-0.110
2020/01/31 19:28:49.4	21.590	0.160	-0.800	-0.090
2020/01/31 19:28:49.5	21.580	0.200	-0.790	-0.060
2020/01/31 19:28:49.6	21.580	0.230	-0.770	-0.030
2020/01/31 19:28:49.7	21.580	0.270	-0.740	-0.010
2020/01/31 19:28:49.8	21.570	0.300	-0.710	0.020
2020/01/31 19:28:49.9	21.560	0.330	-0.680	0.050
2020/01/31 19:28:50.0	21.560	0.360	-0.650	0.080
2020/01/31 19:28:50.1	21.550	0.380	-0.610	0.120
2020/01/31 19:28:50.2	21.550	0.410	-0.570	0.150
2020/01/31 19:28:50.3	21.540	0.430	-0.530	0.190
2020/01/31 19:28:50.4	21.540	0.450	-0.480	0.220
2020/01/31 19:28:50.5	21.530	0.470	-0.440	0.260
2020/01/31 19:28:50.6	21.530	0.490	-0.390	0.290
2020/01/31 19:28:50.7	21.520	0.500	-0.350	0.330
2020/01/31 19:28:50.8	21.520	0.510	-0.310	0.360
2020/01/31 19:28:50.9	21.510	0.520	-0.270	0.400
2020/01/31 19:28:51.0	21.510	0.530	-0.230	0.430
2020/01/31 19:28:51.1	21.500	0.530	-0.190	0.470
2020/01/31 19:28:51.2	21.500	0.530	-0.150	0.500
2020/01/31 19:28:51.3	21.500	0.530	-0.120	0.520
2020/01/31 19:28:51.4	21.490	0.520	-0.090	0.550
2020/01/31 19:28:51.5	21.490	0.520	-0.060	0.570
2020/01/31 19:28:51.6	21.490	0.510	-0.030	0.600
2020/01/31 19:28:51.7	21.500	0.500	-0.010	0.610
2020/01/31 19:28:51.8	21.500	0.480	0.010	0.630
2020/01/31 19:28:51.9	21.500	0.460	0.020	0.650
2020/01/31 19:28:52.0	21.510	0.450	0.040	0.660
2020/01/31 19:28:52.1	21.510	0.420	0.050	0.670
2020/01/31 19:28:52.2	21.520	0.400	0.050	0.670
2020/01/31 19:28:52.3	21.530	0.380	0.060	0.680
2020/01/31 19:28:52.4	21.540	0.350	0.060	0.680
2020/01/31 19:28:52.5	21.550	0.330	0.060	0.670
2020/01/31 19:28:52.6	21.570	0.300	0.060	0.670
2020/01/31 19:28:52.7	21.580	0.270	0.060	0.660
2020/01/31 19:28:52.8	21.600	0.240	0.050	0.650
2020/01/31 19:28:52.9	21.630	0.210	0.050	0.640
2020/01/31 19:28:53.0	21.650	0.180	0.040	0.630
2020/01/31 19:28:53.1	21.670	0.160	0.030	0.610
2020/01/31 19:28:53.2	21.690	0.130	0.020	0.590
2020/01/31 19:28:53.3	21.720	0.100	0.010	0.580
2020/01/31 19:28:53.4	21.740	0.070	0.000	0.560
2020/01/31 19:28:53.5	21.770	0.040	-0.000	0.540
2020/01/31 19:28:53.6	21.790	0.020	-0.010	0.520
2020/01/31 19:28:53.7	21.820	-0.010	-0.020	0.500
2020/01/31 19:28:53.8	21.850	-0.030	-0.030	0.480
2020/01/31 19:28:53.9	21.880	-0.060	-0.040	0.460
2020/01/31 19:28:54.0	21.900	-0.080	-0.040	0.440
2020/01/31 19:28:54.1	21.930	-0.100	-0.050	0.420
2020/01/31 19:28:54.2	21.950	-0.120	-0.050	0.400
2020/01/31 19:28:54.3	21.980	-0.140	-0.050	0.380
2020/01/31 19:28:54.4	22.000	-0.160	-0.060	0.370
2020/01/31 19:28:54.5	22.020	-0.170	-0.060	0.350
2020/01/31 19:28:54.6	22.040	-0.190	-0.060	0.340
2020/01/31 19:28:54.7	22.060	-0.200	-0.060	0.320
2020/01/31 19:28:54.8	22.080	-0.210	-0.060	0.310
2020/01/31 19:28:54.9	22.100	-0.220	-0.060	0.300
2020/01/31 19:28:55.0	22.110	-0.230	-0.050	0.290
2020/01/31 19:28:55.1	22.120	-0.230	-0.050	0.280
2020/01/31 19:28:55.2	22.130	-0.240	-0.050	0.280
2020/01/31 19:28:55.3	22.140	-0.240	-0.040	0.270
2020/01/31 19:28:55.4	22.140	-0.240	-0.040	0.270
2020/01/31 19:28:55.5	22.140	-0.240	-0.040	0.270
2020/01/31 19:28:55.6	22.130	-0.240	-0.030	0.270
2020/01/31 19:28:55.7	22.130	-0.240	-0.030	0.270
2020/01/31 19:28:55.8	22.120	-0.230	-0.030	0.280
2020/01/31 19:28:55.9	22.110	-0.230	-0.030	0.280
2020/01/31 19:28:56.0	22.090	-0.220	-0.020	0.290
2020/01/31 19:28:56.1	22.070	-0.220	-0.020	0.300
2020/01/31 19:28:56.2	22.050	-0.210	-0.020	0.310
2020/01/31 19:28:56.3	22.030	-0.200	-0.020	0.320
2020/01/31 19:28:56.4	22.000	-0.190	-0.020	0.330
2020/01/31 19:28:56.5	21.970	-0.180	-0.030	0.340
2020/01/31 19:28:56.6	21.940	-0.160	-0.030	0.350
2020/01/31 19:28:56.7	21.910	-0.150	-0.040	0.370
2020/01/31 19:28:56.8	21.880	-0.140	-0.050	0.380
2020/01/31 19:28:56.9	21.850	-0.120	-0.060	0.390
2020/01/31 19:28:57.0	21.810	-0.110	-0.070	0.410
2020/01/31 19:28:57.1	21.780	-0.090	-0.080	0.420
2020/01/31 19:28:57.2	21.740	-0.070	-0.100	0.430
2020/01/31 19:28:57.3	21.710	-0.060	-0.120	0.440
2020/01/31 19:28:57.4	21.680	-0.040	-0.140	0.450
2020/01/31 19:28:57.5	21.640	-0.020	-0.160	0.460
2020/01/31 19:28:57.6	21.620	-0.010	-0.190	0.470
2020/01/31 19:28:57.7	21.590	0.010	-0.220	0.470
2020/01/31 19:28:57.8	21.560	0.020	-0.240	0.480
2020/01/31 19:28:57.9	21.540	0.040	-0.280	0.480
2020/01/31 19:28:58.0	21.520	0.060	-0.310	0.480
2020/01/31 19:28:58.1	21.510	0.070	-0.340	0.470
2020/01/31 19:28:58.2	21.500	0.090	-0.370	0.460
2020/01/31 19:28:58.3	21.490	0.100	-0.400	0.450
2020/01/31 19:28:58.4	21.490	0.110	-0.440	0.440
2020/01/31 19:28:58.5	21.490	0.130	-0.470	0.420
2020/01/31 19:28:58.6	21.500	0.140	-0.500	0.400
2020/01/31 19:28:58.7	21.510	0.150	-0.530	0.380
2020/01/31 19:28:58.8	21.520	0.170	-0.560	0.350
2020/01/31 19:28:58.9	21.530	0.180	-0.580	0.320
2020/01/31 19:28:59.0	21.550	0.190	-0.610	0.290
2020/01/31 19:28:59.1	21.570	0.200	-0.630	0.260
2020/01/31 19:28:59.2	21.600	0.210	-0.640	0.220
2020/01/31 19:28:59.3	21.640	0.220	-0.660	0.190
2020/01/31 19:28:59.4	21.670	0.230	-0.660	0.150
2020/01/31 19:28:59.5	21.710	0.240	-0.670	0.110
2020/01/31 19:28:59.6	21.750	0.240	-0.670	0.070
2020/01/31 19:28:59.7	21.790	0.250	-0.660	0.030
2020/01/31 19:28:59.8	21.830	0.260	-0.650	-0.020
2020/01/31 19:28:59.9	21.870	0.260	-0.630	-0.050
2020/01/31 19:29:00.0	21.910	0.260	-0.610	-0.090
2020/01/31 19:29:00.1	21.950	0.270	-0.580	-0.130
2020/01/31 19:29:00.2	21.990	0.270	-0.550	-0.170
2020/01/31 19:29:00.3	22.030	0.270	-0.510	-0.200
2020/01/31 19:29:00.4	22.070	0.270	-0.470	-0.230
2020/01/31 19:29:00.5	22.110	0.270	-0.420	-0.260
2020/01/31 19:29:00.6	22.140	0.270	-0.370	-0.290
2020/01/31 19:29:00.7	22.170	0.260	-0.310	-0.310
2020/01/31 19:29:00.8	22.200	0.260	-0.250	-0.320
2020/01/31 19:29:00.9	22.230	0.250	-0.190	-0.340
2020/01/31 19:29:01.0	22.250	0.250	-0.130	-0.350
2020/01/31 19:29:01.1	22.270	0.240	-0.070	-0.360
2020/01/31 19:29:01.2	22.280	0.230	-0.000	-0.360
2020/01/31 19:29:01.3	22.290	0.210	0.060	-0.360
2020/01/31 19:29:01.4	22.300	0.200	0.130	-0.350
2020/01/31 19:29:01.5	22.300	0.180	0.190	-0.340
2020/01/31 19:29:01.6	22.300	0.170	0.250	-0.320
2020/01/31 19:29:01.7	22.300	0.150	0.310	-0.310
2020/01/31 19:29:01.8	22.290	0.120	0.370	-0.280
2020/01/31 19:29:01.9	22.290	0.100	0.420	-0.260
2020/01/31 19:29:02.0	22.270	0.080	0.470	-0.230
2020/01/31 19:29:02.1	22.260	0.050	0.520	-0.200
2020/01/31 19:29:02.2	22.240	0.020	0.560	-0.170
2020/01/31 19:29:02.3	22.210	-0.000	0.590	-0.130
2020/01/31 19:29:02.4	22.190	-0.030	0.620	-0.100
2020/01/31 19:29:02.5	22.160	-0.060	0.650	-0.060
2020/01/31 19:29:02.6	22.140	-0.100	0.660	-0.030
2020/01/31 19:29:02.7	22.110	-0.130	0.670	0.010
2020/01/31 19:29:02.8	22.080	-0.160	0.680	0.040
2020/01/31 19:29:02.9	22.070	-0.190	0.680	0.080
2020/01/31 19:29:03.0	22.040	-0.230	0.670	0.110
2020/01/31 19:29:03.1	22.020	-0.260	0.660	0.140
2020/01/31 19:29:03.2	21.990	-0.290	0.630	0.170
2020/01/31 19:29:03.3	21.970	-0.320	0.610	0.200
2020/01/31 19:29:03.4	21.940	-0.350	0.570	0.220
2020/01/31 19:29:03.5	21.930	-0.380	0.530	0.250
2020/01/31 19:29:03.6	21.910	-0.410	0.480	0.260
2020/01/31 19:29:03.7	21.890	-0.440	0.430	0.280
2020/01/31 19:29:03.8	21.880	-0.460	0.380	0.290
2020/01/31 19:29:03.9	21.870	-0.480	0.310	0.300
2020/01/31 19:29:04.0	21.860	-0.500	0.250	0.300
2020/01/31 19:29:04.1	21.860	-0.520	0.180	0.300
2020/01/31 19:29:04.2	21.850	-0.540	0.110	0.300
2020/01/31 19:29:04.3	21.850	-0.550	0.030	0.290
2020/01/31 19:29:04.4	21.860	-0.560	-0.050	0.270
2020/01/31 19:29:04.5	21.860	-0.570	-0.130	0.260
2020/01/31 19:29:04.6	21.870	-0.570	-0.210	0.240
2020/01/31 19:29:04.7	21.880	-0.580	-0.280	0.220
2020/01/31 19:29:04.8	21.900	-0.580	-0.360	0.190
2020/01/31 19:29:04.9	21.910	-0.570	-0.440	0.160
2020/01/31 19:29:05.0	21.930	-0.560	-0.510	0.140
2020/01/31 19:29:05.1	21.950	-0.550	-0.590	0.110
2020/01/31 19:29:05.2	21.970	-0.540	-0.660	0.080
2020/01/31 19:29:05.3	21.990	-0.530	-0.720	0.050
2020/01/31 19:29:05.4	22.020	-0.510	-0.780	0.020
2020/01/31 19:29:05.5	22.040	-0.490	-0.830	-0.010
2020/01/31 19:29:05.6	22.070	-0.460	-0.880	-0.040
2020/01/31 19:29:05.7	22.100	-0.430	-0.930	-0.060
2020/01/31 19:29:05.8	22.130	-0.410	-0.970	-0.090
2020/01/31 19:29:05.9	22.140	-0.370	-1.000	-0.110
2020/01/31 19:29:06.0	22.170	-0.340	-1.020	-0.130
2020/01/31 19:29:06.1	22.200	-0.310	-1.040	-0.150
2020/01/31 19:29:06.2	22.230	-0.270	-1.050	-0.160
2020/01/31 19:29:06.3	22.260	-0.230	-1.050	-0.170
2020/01/31 19:29:06.4	22.290	-0.190	-1.050	-0.180
2020/01/31 19:29:06.5	22.320	-0.150	-1.040	-0.180
2020/01/31 19:29:06.6	22.350	-0.110	-1.030	-0.180
2020/01/31 19:29:06.7	22.370	-0.070	-1.010	-0.180
2020/01/31 19:29:06.8	22.400	-0.030	-0.980	-0.170
2020/01/31 19:29:06.9	22.420	0.010	-0.950	-0.160
2020/01/31 19:29:07.0	22.440	0.050	-0.920	-0.150
2020/01/31 19:29:07.1	22.460	0.090	-0.870	-0.130
2020/01/31 19:29:07.2	22.480	0.130	-0.830	-0.110
2020/01/31 19:29:07.3	22.500	0.170	-0.780	-0.080
2020/01/31 19:29:07.4	22.510	0.210	-0.730	-0.050
2020/01/31 19:29:07.5	22.520	0.240	-0.670	-0.010
2020/01/31 19:29:07.6	22.540	0.280	-0.620	0.030
2020/01/31 19:29:07.7	22.550	0.310	-0.560	0.070
2020/01/31 19:29:07.8	22.560	0.340	-0.500	0.120
2020/01/31 19:29:07.9	22.560	0.370	-0.440	0.170
2020/01/31 19:29:08.0	22.560	0.390	-0.380	0.230
2020/01/31 19:29:08.1	22.570	0.420	-0.320	0.280
2020/01/31 19:29:08.2	22.570	0.440	-0.260	0.340
2020/01/31 19:29:08.3	22.570	0.450	-0.200	0.400
2020/01/31 19:29:08.4	22.570	0.470	-0.150	0.460
2020/01/31 19:29:08.5	22.570	0.480	-0.100	0.530
2020/01/31 19:29:08.6	22.560	0.490	-0.050	0.590
2020/01/31 19:29:08.7	22.560	0.490	-0.010	0.650
2020/01/31 19:29:08.8	22.560	0.500	0.030	0.720
2020/01/31 19:29:08.9	22.550	0.490	0.060	0.780
2020/01/31 19:29:09.0	22.540	0.490	0.100	0.840
2020/01/31 19:29:09.1	22.540	0.480	0.120	0.900
2020/01/31 19:29:09.2	22.530	0.470	0.150	0.960
2020/01/31 19:29:09.3	22.530	0.460	0.160	1.010
2020/01/31 19:29:09.4	22.520	0.440	0.180	1.060
2020/01/31 19:29:09.5	22.520	0.430	0.190	1.100
2020/01/31 19:29:09.6	22.510	0.410	0.200	1.140
2020/01/31 19:29:09.7	22.510	0.380	0.200	1.180
2020/01/31 19:29:09.8	22.500	0.360	0.200	1.210
2020/01/31 19:29:09.9	22.500	0.330	0.200	1.240
2020/01/31 19:29:10.0	22.490	0.310	0.190	1.260
2020/01/31 19:29:10.1	22.490	0.280	0.180	1.280
2020/01/31 19:29:10.2	22.480	0.250	0.170	1.290
2020/01/31 19:29:10.3	22.470	0.220	0.160	1.300
2020/01/31 19:29:10.4	22.470	0.180	0.140	1.310
2020/01/31 19:29:10.5	22.460	0.150	0.130	1.310
2020/01/31 19:29:10.6	22.460	0.120	0.110	1.300
2020/01/31 19:29:10.7	22.450	0.090	0.100	1.300
2020/01/31 19:29:10.8	22.440	0.060	0.080	1.290
2020/01/31 19:29:10.9	22.440	0.030	0.070	1.270
2020/01/31 19:29:11.0	22.430	-0.000	0.050	1.250
2020/01/31 19:29:11.1	22.420	-0.030	0.040	1.230
2020/01/31 19:29:11.2	22.410	-0.060	0.030	1.210
2020/01/31 19:29:11.3	22.400	-0.090	0.020	1.180
2020/01/31 19:29:11.4	22.390	-0.110	0.010	1.150
2020/01/31 19:29:11.5	22.380	-0.130	-0.000	1.120
2020/01/31 19:29:11.6	22.370	-0.150	-0.010	1.090
2020/01/31 19:29:11.7	22.360	-0.170	-0.020	1.050
2020/01/31 19:29:11.8	22.350	-0.180	-0.030	1.010
2020/01/31 19:29:11.9	22.340	-0.190	-0.030	0.970
2020/01/31 19:29:12.0	22.330	-0.200	-0.040	0.920
2020/01/31 19:29:12.1	22.320	-0.210	-0.050	0.870
2020/01/31 19:29:12.2	22.320	-0.210	-0.060	0.830
2020/01/31 19:29:12.3	22.310	-0.210	-0.070	0.770
2020/01/31 19:29:12.4	22.300	-0.210	-0.080	0.720
2020/01/31 19:29:12.5	22.300	-0.210	-0.090	0.660
2020/01/31 19:29:12.6	22.300	-0.200	-0.100	0.600
2020/01/31 19:29:12.7	22.300	-0.190	-0.120	0.540
2020/01/31 19:29:12.8	22.300	-0.180	-0.130	0.480
2020/01/31 19:29:12.9	22.300	-0.170	-0.150	0.420
2020/01/31 19:29:13.0	22.310	-0.150	-0.170	0.350
2020/01/31 19:29:13.1	22.310	-0.140	-0.190	0.280
2020/01/31 19:29:13.2	22.330	-0.120	-0.210	0.210
2020/01/31 19:29:13.3	22.340	-0.100	-0.240	0.140
2020/01/31 19:29:13.4	22.360	-0.070	-0.260	0.070
2020/01/31 19:29:13.5	22.380	-0.050	-0.290	-0.000
2020/01/31 19:29:13.6	22.400	-0.030	-0.320	-0.080
2020/01/31 19:29:13.7	22.420	-0.000	-0.350	-0.150
2020/01/31 19:29:13.8	22.450	0.020	-0.370	-0.220
2020/01/31 19:29:13.9	22.480	0.050	-0.400	-0.290
2020/01/31 19:29:14.0	22.510	0.070	-0.430	-0.360
2020/01/31 19:29:14.1	22.540	0.100	-0.460	-0.420
2020/01/31 19:29:14.2	22.570	0.120	-0.480	-0.490
2020/01/31 19:29:14.3	22.600	0.140	-0.510	-0.550
2020/01/31 19:29:14.4	22.630	0.160	-0.530	-0.610
2020/01/31 19:29:14.5	22.670	0.180	-0.550	-0.660
2020/01/31 19:29:14.6	22.700	0.190	-0.570	-0.720
2020/01/31 19:29:14.7	22.730	0.210	-0.580	-0.770
2020/01/31 19:29:14.8	22.760	0.220	-0.590	-0.810
2020/01/31 19:29:14.9	22.780	0.230	-0.600	-0.850
2020/01/31 19:29:15.0	22.810	0.230	-0.600	-0.890
2020/01/31 19:29:15.1	22.840	0.230	-0.590	-0.920
2020/01/31 19:29:15.2	22.860	0.230	-0.580	-0.950
2020/01/31 19:29:15.3	22.880	0.230	-0.570	-0.970
2020/01/31 19:29:15.4	22.900	0.220	-0.550	-0.990
2020/01/31 19:29:15.5	22.920	0.210	-0.530	-1.000
2020/01/31 19:29:15.6	22.940	0.200	-0.500	-1.010
2020/01/31 19:29:15.7	22.950	0.180	-0.460	-1.020
2020/01/31 19:29:15.8	22.960	0.160	-0.430	-1.020
2020/01/31 19:29:15.9	22.960	0.140	-0.390	-1.010
2020/01/31 19:29:16.0	22.970	0.120	-0.340	-1.010
2020/01/31 19:29:16.1	22.970	0.090	-0.290	-1.000
2020/01/31 19:29:16.2	22.980	0.060	-0.240	-0.980
2020/01/31 19:29:16.3	22.970	0.030	-0.180	-0.960
2020/01/31 19:29:16.4	22.970	0.000	-0.130	-0.940
2020/01/31 19:29:16.5	22.970	-0.030	-0.070	-0.920
2020/01/31 19:29:16.6	22.960	-0.060	-0.010	-0.890
2020/01/31 19:29:16.7	22.950	-0.090	0.050	-0.860
2020/01/31 19:29:16.8	22.940	-0.120	0.110	-0.830
2020/01/31 19:29:16.9	22.930	-0.150	0.170	-0.800
2020/01/31 19:29:17.0	22.910	-0.180	0.230	-0.760
2020/01/31 19:29:17.1	22.900	-0.210	0.280	-0.710
2020/01/31 19:29:17.2	22.880	-0.230	0.340	-0.670
2020/01/31 19:29:17.3	22.860	-0.260	0.390	-0.620
2020/01/31 19:29:17.4	22.840	-0.280	0.430	-0.570
2020/01/31 19:29:17.5	22.830	-0.300	0.480	-0.520
2020/01/31 19:29:17.6	22.810	-0.320	0.520	-0.460
2020/01/31 19:29:17.7	22.790	-0.330	0.550	-0.410
2020/01/31 19:29:17.8	22.770	-0.340	0.580	-0.350
2020/01/31 19:29:17.9	22.750	-0.350	0.600	-0.280
2020/01/31 19:29:18.0	22.740	-0.350	0.610	-0.220
2020/01/31 19:29:18.1	22.720	-0.350	0.620	-0.150
2020/01/31 19:29:18.2	22.700	-0.340	0.630	-0.090
2020/01/31 19:29:18.3	22.690	-0.340	0.620	-0.020
2020/01/31 19:29:18.4	22.670	-0.320	0.610	0.050
2020/01/31 19:29:18.5	22.660	-0.310	0.590	0.110
2020/01/31 19:29:18.6	22.650	-0.290	0.560	0.180
2020/01/31 19:29:18.7	22.630	-0.270	0.530	0.240
2020/01/31 19:29:18.8	22.630	-0.250	0.490	0.300
2020/01/31 19:29:18.9	22.620	-0.220	0.440	0.360
2020/01/31 19:29:19.0	22.610	-0.190	0.390	0.420
2020/01/31 19:29:19.1	22.610	-0.160	0.320	0.470
2020/01/31 19:29:19.2	22.610	-0.130	0.260	0.520
2020/01/31 19:29:19.3	22.610	-0.100	0.190	0.570
2020/01/31 19:29:19.4	22.610	-0.060	0.110	0.620
2020/01/31 19:29:19.5	22.610	-0.030	0.030	0.660
2020/01/31 19:29:19.6	22.620	0.000	-0.050	0.700
2020/01/31 19:29:19.7	22.630	0.040	-0.140	0.730
2020/01/31 19:29:19.8	22.640	0.070	-0.220	0.760
2020/01/31 19:29:19.9	22.640	0.100	-0.310	0.790
2020/01/31 19:29:20.0	22.660	0.130	-0.400	0.810
2020/01/31 19:29:20.1	22.670	0.150	-0.490	0.830
2020/01/31 19:29:20.2	22.690	0.180	-0.570	0.840
2020/01/31 19:29:20.3	22.710	0.200	-0.650	0.850
2020/01/31 19:29:20.4	22.730	0.220	-0.730	0.850
2020/01/31 19:29:20.5	22.750	0.240	-0.800	0.850
2020/01/31 19:29:20.6	22.780	0.250	-0.870	0.850
2020/01/31 19:29:20.7	22.800	0.260	-0.930	0.840
2020/01/31 19:29:20.8	22.830	0.270	-0.990	0.830
2020/01/31 19:29:20.9	22.850	0.270	-1.030	0.820
2020/01/31 19:29:21.0	22.870	0.270	-1.070	0.800
2020/01/31 19:29:21.1	22.900	0.260	-1.110	0.780
2020/01/31 19:29:21.2	22.920	0.260	-1.130	0.760
2020/01/31 19:29:21.3	22.950	0.250	-1.150	0.740
2020/01/31 19:29:21.4	22.970	0.230	-1.160	0.710
2020/01/31 19:29:21.5	22.990	0.210	-1.160	0.690
2020/01/31 19:29:21.6	23.010	0.190	-1.150	0.660
2020/01/31 19:29:21.7	23.040	0.170	-1.140	0.640
2020/01/31 19:29:21.8	23.050	0.140	-1.110	0.620
2020/01/31 19:29:21.9	23.080	0.110	-1.080	0.590
2020/01/31 19:29:22.0	23.090	0.080	-1.040	0.570
2020/01/31 19:29:22.1	23.100	0.050	-0.990	0.550
2020/01/31 19:29:22.2	23.120	0.020	-0.940	0.530
2020/01/31 19:29:22.3	23.120	-0.020	-0.880	0.520
2020/01/31 19:29:22.4	23.130	-0.050	-0.810	0.510
2020/01/31 19:29:22.5	23.130	-0.080	-0.730	0.500
2020/01/31 19:29:22.6	23.140	-0.120	-0.650	0.490
2020/01/31 19:29:22.7	23.130	-0.150	-0.570	0.490
2020/01/31 19:29:22.8	23.130	-0.180	-0.480	0.490
2020/01/31 19:29:22.9	23.120	-0.210	-0.390	0.490
2020/01/31 19:29:23.0	23.110	-0.230	-0.300	0.500
2020/01/31 19:29:23.1	23.100	-0.260	-0.210	0.510
2020/01/31 19:29:23.2	23.080	-0.280	-0.110	0.530
2020/01/31 19:29:23.3	23.070	-0.290	-0.020	0.550
2020/01/31 19:29:23.4	23.050	-0.310	0.070	0.570
2020/01/31 19:29:23.5	23.030	-0.320	0.160	0.590
2020/01/31 19:29:23.6	23.010	-0.320	0.250	0.620
2020/01/31 19:29:23.7	22.980	-0.330	0.330	0.650
2020/01/31 19:29:23.8	22.960	-0.320	0.400	0.680
2020/01/31 19:29:23.9	22.930	-0.320	0.460	0.700
2020/01/31 19:29:24.0	22.910	-0.310	0.520	0.730
2020/01/31 19:29:24.1	22.880	-0.300	0.570	0.760
2020/01/31 19:29:24.2	22.860	-0.280	0.620	0.790
2020/01/31 19:29:24.3	22.840	-0.260	0.650	0.820
2020/01/31 19:29:24.4	22.820	-0.240	0.680	0.840
2020/01/31 19:29:24.5	22.800	-0.210	0.690	0.860
2020/01/31 19:29:24.6	22.780	-0.180	0.690	0.880
2020/01/31 19:29:24.7	22.760	-0.150	0.690	0.890
2020/01/31 19:29:24.8	22.750	-0.120	0.670	0.900
2020/01/31 19:29:24.9	22.730	-0.090	0.640	0.900
2020/01/31 19:29:25.0	22.720	-0.050	0.610	0.900
2020/01/31 19:29:25.1	22.720	-0.020	0.570	0.890
2020/01/31 19:29:25.2	22.720	0.020	0.520	0.870
2020/01/31 19:29:25.3	22.720	0.050	0.460	0.850
2020/01/31 19:29:25.4	22.720	0.080	0.400	0.830
2020/01/31 19:29:25.5	22.720	0.110	0.330	0.790
2020/01/31 19:29:25.6	22.730	0.140	0.260	0.760
2020/01/31 19:29:25.7	22.750	0.170	0.180	0.720
2020/01/31 19:29:25.8	22.760	0.190	0.100	0.670
2020/01/31 19:29:25.9	22.780	0.220	0.020	0.630
2020/01/31 19:29:26.0	22.800	0.240	-0.050	0.580
2020/01/31 19:29:26.1	22.830	0.250	-0.130	0.520
2020/01/31 19:29:26.2	22.850	0.270	-0.210	0.470
2020/01/31 19:29:26.3	22.880	0.280	-0.280	0.410
2020/01/31 19:29:26.4	22.910	0.280	-0.350	0.350
2020/01/31 19:29:26.5	22.940	0.290	-0.410	0.290
2020/01/31 19:29:26.6	22.970	0.290	-0.470	0.240
2020/01/31 19:29:26.7	23.000	0.280	-0.520	0.180
2020/01/31 19:29:26.8	23.030	0.280	-0.570	0.120
2020/01/31 19:29:26.9	23.060	0.270	-0.600	0.070
2020/01/31 19:29:27.0	23.100	0.260	-0.630	0.020
2020/01/31 19:29:27.1	23.130	0.250	-0.660	-0.030
2020/01/31 19:29:27.2	23.160	0.230	-0.670	-0.080
2020/01/31 19:29:27.3	23.190	0.210	-0.680	-0.120
2020/01/31 19:29:27.4	23.210	0.190	-0.670	-0.150
2020/01/31 19:29:27.5	23.240	0.170	-0.660	-0.190
2020/01/31 19:29:27.6	23.260	0.150	-0.650	-0.220
2020/01/31 19:29:27.7	23.290	0.130	-0.620	-0.240
2020/01/31 19:29:27.8	23.310	0.100	-0.590	-0.270
2020/01/31 19:29:27.9	23.330	0.080	-0.560	-0.280
2020/01/31 19:29:28.0	23.340	0.060	-0.520	-0.300
2020/01/31 19:29:28.1	23.350	0.030	-0.470	-0.310
2020/01/31 19:29:28.2	23.360	0.010	-0.420	-0.310
2020/01/31 19:29:28.3	23.370	-0.010	-0.370	-0.310
2020/01/31 19:29:28.4	23.370	-0.030	-0.320	-0.310
2020/01/31 19:29:28.5	23.370	-0.050	-0.270	-0.310
2020/01/31 19:29:28.6	23.370	-0.070	-0.220	-0.300
2020/01/31 19:29:28.7	23.370	-0.090	-0.170	-0.290
2020/01/31 19:29:28.8	23.360	-0.110	-0.120	-0.280
2020/01/31 19:29:28.9	23.350	-0.120	-0.080	-0.260
2020/01/31 19:29:29.0	23.340	-0.130	-0.040	-0.250
2020/01/31 19:29:29.1	23.330	-0.140	-0.010	-0.240
2020/01/31 19:29:29.2	23.320	-0.150	0.020	-0.220
2020/01/31 19:29:29.3	23.310	-0.160	0.050	-0.210
2020/01/31 19:29:29.4	23.300	-0.170	0.070	-0.200
2020/01/31 19:29:29.5	23.290	-0.170	0.080	-0.180
2020/01/31 19:29:29.6	23.280	-0.170	0.090	-0.170
2020/01/31 19:29:29.7	23.260	-0.180	0.090	-0.170
2020/01/31 19:29:29.8	23.250	-0.180	0.080	-0.160
2020/01/31 19:29:29.9	23.250	-0.180	0.070	-0.160
2020/01/31 19:29:30.0	23.240	-0.170	0.050	-0.160
2020/01/31 19:29:30.1	23.230	-0.170	0.030	-0.160
2020/01/31 19:29:30.2	23.230	-0.170	0.000	-0.160
2020/01/31 19:29:30.3	23.230	-0.170	-0.030	-0.170
2020/01/31 19:29:30.4	23.230	-0.160	-0.060	-0.190
2020/01/31 19:29:30.5	23.240	-0.160	-0.100	-0.200
2020/01/31 19:29:30.6	23.240	-0.150	-0.140	-0.220
2020/01/31 19:29:30.7	23.250	-0.150	-0.180	-0.250
2020/01/31 19:29:30.8	23.260	-0.140	-0.230	-0.270
2020/01/31 19:29:30.9	23.280	-0.140	-0.280	-0.290
2020/01/31 19:29:31.0	23.290	-0.130	-0.330	-0.320
2020/01/31 19:29:31.1	23.300	-0.130	-0.370	-0.350
2020/01/31 19:29:31.2	23.320	-0.120	-0.410	-0.380
2020/01/31 19:29:31.3	23.340	-0.120	-0.450	-0.420
2020/01/31 19:29:31.4	23.360	-0.110	-0.490	-0.450
2020/01/31 19:29:31.5	23.370	-0.110	-0.530	-0.480
2020/01/31 19:29:31.6	23.390	-0.110	-0.560	-0.510
2020/01/31 19:29:31.7	23.410	-0.100	-0.580	-0.530
2020/01/31 19:29:31.8	23.420	-0.100	-0.600	-0.560
2020/01/31 19:29:31.9	23.430	-0.090	-0.610	-0.580
2020/01/31 19:29:32.0	23.440	-0.090	-0.620	-0.600
2020/01/31 19:29:32.1	23.450	-0.090	-0.620	-0.610
2020/01/31 19:29:32.2	23.460	-0.080	-0.610	-0.620
2020/01/31 19:29:32.3	23.470	-0.080	-0.600	-0.630
2020/01/31 19:29:32.4	23.470	-0.080	-0.580	-0.630
2020/01/31 19:29:32.5	23.480	-0.070	-0.560	-0.620
2020/01/31 19:29:32.6	23.480	-0.070	-0.530	-0.610
2020/01/31 19:29:32.7	23.480	-0.060	-0.490	-0.590
2020/01/31 19:29:32.8	23.470	-0.060	-0.450	-0.570
2020/01/31 19:29:32.9	23.460	-0.050	-0.410	-0.540
2020/01/31 19:29:33.0	23.450	-0.040	-0.350	-0.510
2020/01/31 19:29:33.1	23.440	-0.040	-0.300	-0.470
2020/01/31 19:29:33.2	23.430	-0.030	-0.250	-0.430
2020/01/31 19:29:33.3	23.420	-0.020	-0.190	-0.380
2020/01/31 19:29:33.4	23.400	-0.010	-0.130	-0.330
2020/01/31 19:29:33.5	23.390	0.000	-0.070	-0.270
2020/01/31 19:29:33.6	23.370	0.010	-0.010	-0.210
2020/01/31 19:29:33.7	23.360	0.020	0.050	-0.140
2020/01/31 19:29:33.8	23.340	0.040	0.110	-0.070
2020/01/31 19:29:33.9	23.330	0.050	0.170	-0.000
2020/01/31 19:29:34.0	23.310	0.070	0.220	0.070
2020/01/31 19:29:34.1	23.290	0.080	0.270	0.150
2020/01/31 19:29:34.2	23.280	0.100	0.310	0.230
2020/01/31 19:29:34.3	23.260	0.110	0.360	0.310
2020/01/31 19:29:34.4	23.250	0.130	0.390	0.390
2020/01/31 19:29:34.5	23.230	0.150	0.420	0.470
2020/01/31 19:29:34.6	23.220	0.160	0.450	0.550
2020/01/31 19:29:34.7	23.220	0.180	0.470	0.620
2020/01/31 19:29:34.8	23.210	0.200	0.480	0.700
2020/01/31 19:29:34.9	23.210	0.220	0.480	0.780
2020/01/31 19:29:35.0	23.210	0.240	0.480	0.850
2020/01/31 19:29:35.1	23.210	0.260	0.470	0.920
2020/01/31 19:29:35.2	23.220	0.270	0.460	0.980
2020/01/31 19:29:35.3	23.230	0.290	0.440	1.040
2020/01/31 19:29:35.4	23.240	0.310	0.410	1.090
2020/01/31 19:29:35.5	23.260	0.320	0.370	1.140
2020/01/31 19:29:35.6	23.270	0.340	0.330	1.180
2020/01/31 19:29:35.7	23.300	0.350	0.290	1.220
2020/01/31 19:29:35.8	23.320	0.360	0.240	1.250
2020/01/31 19:29:35.9	23.350	0.370	0.180	1.280
2020/01/31 19:29:36.0	23.380	0.380	0.120	1.300
2020/01/31 19:29:36.1	23.410	0.390	0.060	1.310
2020/01/31 19:29:36.2	23.450	0.390	0.000	1.320
2020/01/31 19:29:36.3	23.490	0.390	-0.060	1.320
2020/01/31 19:29:36.4	23.530	0.390	-0.130	1.310
2020/01/31 19:29:36.5	23.570	0.390	-0.200	1.300
2020/01/31 19:29:36.6	23.610	0.380	-0.260	1.290
2020/01/31 19:29:36.7	23.660	0.370	-0.330	1.270
2020/01/31 19:29:36.8	23.700	0.360	-0.400	1.240
2020/01/31 19:29:36.9	23.760	0.340	-0.460	1.210
2020/01/31 19:29:37.0	23.800	0.320	-0.520	1.170
2020/01/31 19:29:37.1	23.850	0.300	-0.570	1.130
2020/01/31 19:29:37.2	23.890	0.270	-0.630	1.080
2020/01/31 19:29:37.3	23.940	0.240	-0.670	1.040
2020/01/31 19:29:37.4	23.980	0.210	-0.720	0.980
2020/01/31 19:29:37.5	24.020	0.180	-0.760	0.930
2020/01/31 19:29:37.6	24.060	0.140	-0.790	0.880
2020/01/31 19:29:37.7	24.100	0.100	-0.820	0.820
2020/01/31 19:29:37.8	24.130	0.060	-0.840	0.760
2020/01/31 19:29:37.9	24.170	0.010	-0.850	0.700
2020/01/31 19:29:38.0	24.200	-0.040	-0.860	0.640
2020/01/31 19:29:38.1	24.230	-0.080	-0.870	0.580
2020/01/31 19:29:38.2	24.250	-0.130	-0.860	0.530
2020/01/31 19:29:38.3	24.270	-0.180	-0.850	0.470
2020/01/31 19:29:38.4	24.290	-0.230	-0.830	0.420
2020/01/31 19:29:38.5	24.300	-0.280	-0.810	0.370
2020/01/31 19:29:38.6	24.310	-0.330	-0.780	0.320
2020/01/31 19:29:38.7	24.310	-0.380	-0.740	0.280
2020/01/31 19:29:38.8	24.310	-0.430	-0.700	0.240
2020/01/31 19:29:38.9	24.310	-0.470	-0.660	0.200
2020/01/31 19:29:39.0	24.300	-0.520	-0.600	0.170
2020/01/31 19:29:39.1	24.280	-0.560	-0.550	0.140
2020/01/31 19:29:39.2	24.270	-0.600	-0.480	0.110
2020/01/31 19:29:39.3	24.240	-0.640	-0.420	0.090
2020/01/31 19:29:39.4	24.220	-0.670	-0.350	0.080
2020/01/31 19:29:39.5	24.190	-0.700	-0.280	0.060
2020/01/31 19:29:39.6	24.160	-0.730	-0.200	0.050
2020/01/31 19:29:39.7	24.120	-0.750	-0.130	0.050
2020/01/31 19:29:39.8	24.080	-0.770	-0.050	0.040
2020/01/31 19:29:39.9	24.040	-0.780	0.020	0.040
2020/01/31 19:29:40.0	23.990	-0.790	0.100	0.040
2020/01/31 19:29:40.1	23.950	-0.800	0.170	0.050
2020/01/31 19:29:40.2	23.900	-0.800	0.240	0.060
2020/01/31 19:29:40.3	23.850	-0.790	0.300	0.060
2020/01/31 19:29:40.4	23.800	-0.780	0.360	0.070
2020/01/31 19:29:40.5	23.750	-0.760	0.420	0.080
2020/01/31 19:29:40.6	23.700	-0.740	0.470	0.090
2020/01/31 19:29:40.7	23.650	-0.710	0.510	0.100
2020/01/31 19:29:40.8	23.600	-0.680	0.540	0.110
2020/01/31 19:29:40.9	23.550	-0.640	0.570	0.120
2020/01/31 19:29:41.0	23.510	-0.600	0.590	0.120
2020/01/31 19:29:41.1	23.460	-0.550	0.600	0.130
2020/01/31 19:29:41.2	23.420	-0.500	0.600	0.130
2020/01/31 19:29:41.3	23.380	-0.440	0.600	0.130
2020/01/31 19:29:41.4	23.350	-0.380	0.580	0.130
2020/01/31 19:29:41.5	23.310	-0.320	0.560	0.120
2020/01/31 19:29:41.6	23.290	-0.250	0.520	0.110
2020/01/31 19:29:41.7	23.260	-0.180	0.480	0.100
2020/01/31 19:29:41.8	23.240	-0.110	0.430	0.090
2020/01/31 19:29:41.9	23.220	-0.030	0.370	0.070
2020/01/31 19:29:42.0	23.200	0.040	0.310	0.050
2020/01/31 19:29:42.1	23.200	0.120	0.230	0.030
2020/01/31 19:29:42.2	23.190	0.200	0.160	0.010
2020/01/31 19:29:42.3	23.200	0.270	0.070	-0.020
2020/01/31 19:29:42.4	23.200	0.350	-0.010	-0.050
2020/01/31 19:29:42.5	23.210	0.420	-0.100	-0.090
2020/01/31 19:29:42.6	23.230	0.500	-0.200	-0.120
2020/01/31 19:29:42.7	23.250	0.570	-0.290	-0.160
2020/01/31 19:29:42.8	23.280	0.640	-0.390	-0.190
2020/01/31 19:29:42.9	23.290	0.700	-0.480	-0.230
2020/01/31 19:29:43.0	23.320	0.770	-0.570	-0.270
2020/01/31 19:29:43.1	23.360	0.830	-0.660	-0.310
2020/01/31 19:29:43.2	23.400	0.880	-0.750	-0.340
2020/01/31 19:29:43.3	23.440	0.930	-0.830	-0.380
2020/01/31 19:29:43.4	23.490	0.970	-0.900	-0.420
2020/01/31 19:29:43.5	23.530	1.010	-0.970	-0.450
2020/01/31 19:29:43.6	23.580	1.040	-1.030	-0.480
2020/01/31 19:29:43.7	23.640	1.060	-1.080	-0.510
2020/01/31 19:29:43.8	23.690	1.080	-1.120	-0.540
2020/01/31 19:29:43.9	23.740	1.090	-1.160	-0.560
2020/01/31 19:29:44.0	23.790	1.090	-1.180	-0.590
2020/01/31 19:29:44.1	23.850	1.080	-1.190	-0.610
2020/01/31 19:29:44.2	23.900	1.070	-1.190	-0.630
2020/01/31 19:29:44.3	23.950	1.050	-1.190	-0.640
2020/01/31 19:29:44.4	24.000	1.030	-1.170	-0.650
2020/01/31 19:29:44.5	24.050	0.990	-1.140	-0.660
2020/01/31 19:29:44.6	24.100	0.950	-1.100	-0.670
2020/01/31 19:29:44.7	24.140	0.900	-1.060	-0.680
2020/01/31 19:29:44.8	24.180	0.850	-1.000	-0.680
2020/01/31 19:29:44.9	24.210	0.790	-0.940	-0.670
2020/01/31 19:29:45.0	24.240	0.720	-0.870	-0.670
2020/01/31 19:29:45.1	24.270	0.650	-0.790	-0.660
2020/01/31 19:29:45.2	24.290	0.580	-0.710	-0.650
2020/01/31 19:29:45.3	24.310	0.500	-0.620	-0.640
2020/01/31 19:29:45.4	24.320	0.420	-0.520	-0.630
2020/01/31 19:29:45.5	24.330	0.340	-0.430	-0.610
2020/01/31 19:29:45.6	24.340	0.250	-0.320	-0.600
2020/01/31 19:29:45.7	24.340	0.160	-0.220	-0.580
2020/01/31 19:29:45.8	24.340	0.070	-0.120	-0.560
2020/01/31 19:29:45.9	24.340	-0.010	-0.010	-0.530
2020/01/31 19:29:46.0	24.320	-0.100	0.090	-0.510
2020/01/31 19:29:46.1	24.310	-0.190	0.190	-0.490
2020/01/31 19:29:46.2	24.290	-0.270	0.280	-0.460
2020/01/31 19:29:46.3	24.270	-0.350	0.380	-0.430
2020/01/31 19:29:46.4	24.240	-0.430	0.470	-0.400
2020/01/31 19:29:46.5	24.220	-0.510	0.550	-0.370
2020/01/31 19:29:46.6	24.190	-0.580	0.630	-0.340
2020/01/31 19:29:46.7	24.160	-0.640	0.700	-0.310
2020/01/31 19:29:46.8	24.120	-0.700	0.760	-0.280
2020/01/31 19:29:46.9	24.080	-0.760	0.820	-0.240
2020/01/31 19:29:47.0	24.050	-0.800	0.870	-0.210
2020/01/31 19:29:47.1	24.010	-0.850	0.910	-0.170
2020/01/31 19:29:47.2	23.970	-0.880	0.940	-0.130
2020/01/31 19:29:47.3	23.940	-0.910	0.970	-0.100
2020/01/31 19:29:47.4	23.900	-0.940	0.980	-0.060
2020/01/31 19:29:47.5	23.860	-0.950	0.990	-0.020
2020/01/31 19:29:47.6	23.830	-0.960	0.990	0.020
2020/01/31 19:29:47.7	23.790	-0.960	0.990	0.060
2020/01/31 19:29:47.8	23.760	-0.960	0.970	0.110
2020/01/31 19:29:47.9	23.730	-0.950	0.950	0.150
2020/01/31 19:29:48.0	23.700	-0.930	0.910	0.190
2020/01/31 19:29:48.1	23.670	-0.910	0.880	0.240
2020/01/31 19:29:48.2	23.640	-0.880	0.830	0.280
2020/01/31 19:29:48.3	23.620	-0.850	0.780	0.320
2020/01/31 19:29:48.4	23.600	-0.810	0.720	0.370
2020/01/31 19:29:48.5	23.580	-0.770	0.660	0.410
2020/01/31 19:29:48.6	23.560	-0.730	0.590	0.450
2020/01/31 19:29:48.7	23.540	-0.680	0.520	0.490
2020/01/31 19:29:48.8	23.530	-0.630	0.440	0.530
2020/01/31 19:29:48.9	23.520	-0.570	0.360	0.570
2020/01/31 19:29:49.0	23.520	-0.520	0.280	0.600
2020/01/31 19:29:49.1	23.520	-0.460	0.200	0.630
2020/01/31 19:29:49.2	23.520	-0.400	0.110	0.660
2020/01/31 19:29:49.3	23.520	-0.340	0.020	0.690
2020/01/31 19:29:49.4	23.530	-0.280	-0.060	0.710
2020/01/31 19:29:49.5	23.540	-0.230	-0.150	0.720
2020/01/31 19:29:49.6	23.560	-0.170	-0.240	0.730
2020/01/31 19:29:49.7	23.580	-0.110	-0.320	0.740
2020/01/31 19:29:49.8	23.600	-0.060	-0.400	0.750
2020/01/31 19:29:49.9	23.630	-0.010	-0.480	0.750
2020/01/31 19:29:50.0	23.650	0.040	-0.550	0.750
2020/01/31 19:29:50.1	23.680	0.090	-0.620	0.740
2020/01/31 19:29:50.2	23.710	0.130	-0.690	0.740
2020/01/31 19:29:50.3	23.740	0.170	-0.750	0.730
2020/01/31 19:29:50.4	23.770	0.210	-0.800	0.720
2020/01/31 19:29:50.5	23.800	0.250	-0.850	0.710
2020/01/31 19:29:50.6	23.830	0.280	-0.890	0.700
2020/01/31 19:29:50.7	23.860	0.300	-0.920	0.680
2020/01/31 19:29:50.8	23.890	0.320	-0.950	0.670
2020/01/31 19:29:50.9	23.920	0.340	-0.970	0.660
2020/01/31 19:29:51.0	23.950	0.360	-0.980	0.650
2020/01/31 19:29:51.1	23.970	0.370	-0.980	0.650
2020/01/31 19:29:51.2	23.990	0.380	-0.980	0.640
2020/01/31 19:29:51.3	24.010	0.380	-0.960	0.630
2020/01/31 19:29:51.4	24.030	0.380	-0.950	0.630
2020/01/31 19:29:51.5	24.040	0.380	-0.920	0.630
2020/01/31 19:29:51.6	24.050	0.370	-0.890	0.620
2020/01/31 19:29:51.7	24.060	0.360	-0.850	0.630
2020/01/31 19:29:51.8	24.070	0.350	-0.810	0.630
2020/01/31 19:29:51.9	24.070	0.340	-0.760	0.630
2020/01/31 19:29:52.0	24.070	0.320	-0.710	0.640
2020/01/31 19:29:52.1	24.070	0.300	-0.660	0.640
2020/01/31 19:29:52.2	24.070	0.280	-0.600	0.650
2020/01/31 19:29:52.3	24.060	0.260	-0.540	0.660
2020/01/31 19:29:52.4	24.050	0.230	-0.480	0.660
2020/01/31 19:29:52.5	24.040	0.210	-0.430	0.670
2020/01/31 19:29:52.6	24.020	0.180	-0.370	0.680
2020/01/31 19:29:52.7	24.010	0.160	-0.310	0.690
2020/01/31 19:29:52.8	23.990	0.130	-0.250	0.700
2020/01/31 19:29:52.9	23.960	0.100	-0.200	0.700
2020/01/31 19:29:53.0	23.940	0.080	-0.140	0.700
2020/01/31 19:29:53.1	23.920	0.050	-0.100	0.710
2020/01/31 19:29:53.2	23.900	0.030	-0.050	0.710
2020/01/31 19:29:53.3	23.870	0.000	-0.010	0.710
2020/01/31 19:29:53.4	23.850	-0.020	0.030	0.710
2020/01/31 19:29:53.5	23.830	-0.050	0.060	0.710
2020/01/31 19:29:53.6	23.800	-0.070	0.090	0.700
2020/01/31 19:29:53.7	23.780	-0.090	0.120	0.690
2020/01/31 19:29:53.8	23.760	-0.100	0.130	0.680
2020/01/31 19:29:53.9	23.740	-0.120	0.150	0.670
2020/01/31 19:29:54.0	23.720	-0.130	0.160	0.660
2020/01/31 19:29:54.1	23.700	-0.150	0.160	0.640
2020/01/31 19:29:54.2	23.680	-0.150	0.160	0.620
2020/01/31 19:29:54.3	23.670	-0.160	0.150	0.590
2020/01/31 19:29:54.4	23.650	-0.170	0.130	0.570
2020/01/31 19:29:54.5	23.640	-0.170	0.120	0.540
2020/01/31 19:29:54.6	23.630	-0.170	0.090	0.510
2020/01/31 19:29:54.7	23.630	-0.170	0.060	0.470
2020/01/31 19:29:54.8	23.630	-0.160	0.030	0.430
2020/01/31 19:29:54.9	23.630	-0.160	-0.010	0.390
2020/01/31 19:29:55.0	23.630	-0.150	-0.050	0.340
2020/01/31 19:29:55.1	23.640	-0.140	-0.100	0.300
2020/01/31 19:29:55.2	23.650	-0.120	-0.140	0.240
2020/01/31 19:29:55.3	23.670	-0.110	-0.190	0.190
2020/01/31 19:29:55.4	23.680	-0.090	-0.250	0.130
2020/01/31 19:29:55.5	23.700	-0.070	-0.300	0.070
2020/01/31 19:29:55.6	23.730	-0.050	-0.360	0.010
2020/01/31 19:29:55.7	23.750	-0.030	-0.410	-0.050
2020/01/31 19:29:55.8	23.780	-0.010	-0.470	-0.120
2020/01/31 19:29:55.9	23.810	0.020	-0.520	-0.180
2020/01/31 19:29:56.0	23.840	0.040	-0.570	-0.250
2020/01/31 19:29:56.1	23.870	0.070	-0.620	-0.310
2020/01/31 19:29:56.2	23.910	0.090	-0.670	-0.370
2020/01/31 19:29:56.3	23.940	0.120	-0.710	-0.440
2020/01/31 19:29:56.4	23.980	0.150	-0.740	-0.500
2020/01/31 19:29:56.5	24.020	0.180	-0.780	-0.550
2020/01/31 19:29:56.6	24.050	0.200	-0.800	-0.610
2020/01/31 19:29:56.7	24.090	0.230	-0.830	-0.660
2020/01/31 19:29:56.8	24.130	0.260	-0.840	-0.700
2020/01/31 19:29:56.9	24.150	0.280	-0.850	-0.750
2020/01/31 19:29:57.0	24.180	0.310	-0.850	-0.790
2020/01/31 19:29:57.1	24.210	0.330	-0.850	-0.820
2020/01/31 19:29:57.2	24.240	0.360	-0.840	-0.850
2020/01/31 19:29:57.3	24.270	0.380	-0.820	-0.870
2020/01/31 19:29:57.4	24.300	0.400	-0.790	-0.880
2020/01/31 19:29:57.5	24.320	0.420	-0.760	-0.890
2020/01/31 19:29:57.6	24.340	0.440	-0.730	-0.890
2020/01/31 19:29:57.7	24.360	0.450	-0.680	-0.890
2020/01/31 19:29:57.8	24.370	0.470	-0.640	-0.870
2020/01/31 19:29:57.9	24.380	0.480	-0.590	-0.860
2020/01/31 19:29:58.0	24.380	0.490	-0.530	-0.830
2020/01/31 19:29:58.1	24.390	0.500	-0.470	-0.800
2020/01/31 19:29:58.2	24.390	0.500	-0.400	-0.770
2020/01/31 19:29:58.3	24.380	0.510	-0.340	-0.730
2020/01/31 19:29:58.4	24.370	0.510	-0.270	-0.680
2020/01/31 19:29:58.5	24.360	0.500	-0.200	-0.630
2020/01/31 19:29:58.6	24.350	0.500	-0.120	-0.570
2020/01/31 19:29:58.7	24.330	0.490	-0.050	-0.510
2020/01/31 19:29:58.8	24.310	0.490	0.020	-0.450
2020/01/31 19:29:58.9	24.280	0.480	0.090	-0.380
2020/01/31 19:29:59.0	24.250	0.460	0.160	-0.310
2020/01/31 19:29:59.1	24.220	0.450	0.230	-0.240
2020/01/31 19:29:59.2	24.200	0.430	0.290	-0.170
2020/01/31 19:29:59.3	24.160	0.410	0.350	-0.090
2020/01/31 19:29:59.4	24.130	0.390	0.400	-0.020
2020/01/31 19:29:59.5	24.100	0.370	0.450	0.060
2020/01/31 19:29:59.6	24.070	0.340	0.500	0.140
2020/01/31 19:29:59.7	24.040	0.320	0.540	0.210
2020/01/31 19:29:59.8	24.010	0.290	0.570	0.280
2020/01/31 19:29:59.9	23.980	0.270	0.590	0.360
2020/01/31 19:30:00.0	23.960	0.240	0.620	0.430
2020/01/31 19:30:00.1	23.930	0.210	0.630	0.490
2020/01/31 19:30:00.2	23.910	0.180	0.640	0.560
2020/01/31 19:30:00.3	23.890	0.150	0.640	0.620
2020/01/31 19:30:00.4	23.870	0.120	0.640	0.670
2020/01/31 19:30:00.5	23.850	0.090	0.630	0.720
2020/01/31 19:30:00.6	23.840	0.060	0.620	0.770
2020/01/31 19:30:00.7	23.820	0.030	0.590	0.810
2020/01/31 19:30:00.8	23.820	0.010	0.570	0.850
2020/01/31 19:30:00.9	23.830	-0.020	0.540	0.890
2020/01/31 19:30:01.0	23.820	-0.050	0.510	0.910
2020/01/31 19:30:01.1	23.820	-0.080	0.470	0.940
2020/01/31 19:30:01.2	23.830	-0.100	0.430	0.950
2020/01/31 19:30:01.3	23.830	-0.130	0.390	0.970
2020/01/31 19:30:01.4	23.840	-0.150	0.340	0.980
2020/01/31 19:30:01.5	23.850	-0.180	0.290	0.980
2020/01/31 19:30:01.6	23.870	-0.200	0.240	0.980
2020/01/31 19:30:01.7	23.880	-0.220	0.200	0.980
2020/01/31 19:30:01.8	23.900	-0.240	0.150	0.980
2020/01/31 19:30:01.9	23.920	-0.260	0.100	0.970
2020/01/31 19:30:02.0	23.940	-0.280	0.050	0.950
2020/01/31 19:30:02.1	23.960	-0.290	0.010	0.940
2020/01/31 19:30:02.2	23.990	-0.310	-0.040	0.920
2020/01/31 19:30:02.3	24.010	-0.320	-0.080	0.890
2020/01/31 19:30:02.4	24.040	-0.330	-0.120	0.870
2020/01/31 19:30:02.5	24.060	-0.340	-0.160	0.840
2020/01/31 19:30:02.6	24.090	-0.350	-0.190	0.820
2020/01/31 19:30:02.7	24.120	-0.360	-0.220	0.790
2020/01/31 19:30:02.8	24.150	-0.370	-0.250	0.760
2020/01/31 19:30:02.9	24.190	-0.380	-0.270	0.720
2020/01/31 19:30:03.0	24.210	-0.380	-0.290	0.690
2020/01/31 19:30:03.1	24.240	-0.380	-0.310	0.660
2020/01/31 19:30:03.2	24.260	-0.380	-0.330	0.630
2020/01/31 19:30:03.3	24.290	-0.390	-0.340	0.600
2020/01/31 19:30:03.4	24.310	-0.380	-0.340	0.570
2020/01/31 19:30:03.5	24.330	-0.380	-0.350	0.540
2020/01/31 19:30:03.6	24.350	-0.380	-0.350	0.510
2020/01/31 19:30:03.7	24.370	-0.380	-0.340	0.480
2020/01/31 19:30:03.8	24.390	-0.380	-0.340	0.460
2020/01/31 19:30:03.9	24.410	-0.370	-0.330	0.440
2020/01/31 19:30:04.0	24.420	-0.370	-0.320	0.420
2020/01/31 19:30:04.1	24.440	-0.360	-0.310	0.400
2020/01/31 19:30:04.2	24.450	-0.360	-0.290	0.380
2020/01/31 19:30:04.3	24.460	-0.350	-0.270	0.370
2020/01/31 19:30:04.4	24.470	-0.350	-0.260	0.350
2020/01/31 19:30:04.5	24.470	-0.340	-0.240	0.340
2020/01/31 19:30:04.6	24.480	-0.340	-0.220	0.330
2020/01/31 19:30:04.7	24.480	-0.330	-0.200	0.320
2020/01/31 19:30:04.8	24.480	-0.330	-0.180	0.320
2020/01/31 19:30:04.9	24.490	-0.330	-0.150	0.310
2020/01/31 19:30:05.0	24.490	-0.320	-0.130	0.300
2020/01/31 19:30:05.1	24.480	-0.320	-0.120	0.300
2020/01/31 19:30:05.2	24.480	-0.320	-0.100	0.300
2020/01/31 19:30:05.3	24.480	-0.320	-0.090	0.300
2020/01/31 19:30:05.4	24.470	-0.320	-0.070	0.300
2020/01/31 19:30:05.5	24.460	-0.320	-0.060	0.290
2020/01/31 19:30:05.6	24.460	-0.320	-0.050	0.290
2020/01/31 19:30:05.7	24.450	-0.320	-0.050	0.290
2020/01/31 19:30:05.8	24.440	-0.320	-0.050	0.290
2020/01/31 19:30:05.9	24.420	-0.320	-0.050	0.280
2020/01/31 19:30:06.0	24.410	-0.330	-0.060	0.280
2020/01/31 19:30:06.1	24.400	-0.330	-0.060	0.280
2020/01/31 19:30:06.2	24.390	-0.330	-0.070	0.270
2020/01/31 19:30:06.3	24.380	-0.330	-0.090	0.270
2020/01/31 19:30:06.4	24.370	-0.330	-0.110	0.260
2020/01/31 19:30:06.5	24.360	-0.330	-0.130	0.250
2020/01/31 19:30:06.6	24.350	-0.330	-0.150	0.250
2020/01/31 19:30:06.7	24.340	-0.330	-0.180	0.240
2020/01/31 19:30:06.8	24.330	-0.330	-0.210	0.230
2020/01/31 19:30:06.9	24.310	-0.320	-0.240	0.230
2020/01/31 19:30:07.0	24.300	-0.320	-0.280	0.220
2020/01/31 19:30:07.1	24.290	-0.310	-0.310	0.210
2020/01/31 19:30:07.2	24.280	-0.300	-0.350	0.200
2020/01/31 19:30:07.3	24.270	-0.290	-0.390	0.200
2020/01/31 19:30:07.4	24.260	-0.270	-0.430	0.190
2020/01/31 19:30:07.5	24.250	-0.260	-0.480	0.190
2020/01/31 19:30:07.6	24.240	-0.240	-0.520	0.190
2020/01/31 19:30:07.7	24.230	-0.220	-0.560	0.180
2020/01/31 19:30:07.8	24.220	-0.190	-0.600	0.180
2020/01/31 19:30:07.9	24.200	-0.160	-0.640	0.180
2020/01/31 19:30:08.0	24.200	-0.130	-0.680	0.180
2020/01/31 19:30:08.1	24.190	-0.100	-0.720	0.180
2020/01/31 19:30:08.2	24.180	-0.060	-0.750	0.180
2020/01/31 19:30:08.3	24.180	-0.020	-0.790	0.180
2020/01/31 19:30:08.4	24.180	0.020	-0.820	0.180
2020/01/31 19:30:08.5	24.180	0.060	-0.850	0.180
2020/01/31 19:30:08.6	24.180	0.100	-0.880	0.180
2020/01/31 19:30:08.7	24.190	0.150	-0.900	0.180
2020/01/31 19:30:08.8	24.200	0.200	-0.920	0.180
2020/01/31 19:30:08.9	24.210	0.240	-0.940	0.180
2020/01/31 19:30:09.0	24.220	0.290	-0.950	0.180
2020/01/31 19:30:09.1	24.240	0.340	-0.960	0.180
2020/01/31 19:30:09.2	24.260	0.390	-0.970	0.180
2020/01/31 19:30:09.3	24.280	0.430	-0.970	0.180
2020/01/31 19:30:09.4	24.300	0.480	-0.960	0.170
2020/01/31 19:30:09.5	24.320	0.520	-0.950	0.170
2020/01/31 19:30:09.6	24.340	0.570	-0.940	0.160
2020/01/31 19:30:09.7	24.370	0.610	-0.920	0.160
2020/01/31 19:30:09.8	24.390	0.640	-0.890	0.160
2020/01/31 19:30:09.9	24.430	0.680	-0.870	0.160
2020/01/31 19:30:10.0	24.450	0.710	-0.830	0.150
2020/01/31 19:30:10.1	24.480	0.740	-0.790	0.150
2020/01/31 19:30:10.2	24.500	0.760	-0.750	0.160
2020/01/31 19:30:10.3	24.520	0.780	-0.700	0.160
2020/01/31 19:30:10.4	24.540	0.790	-0.650	0.170
2020/01/31 19:30:10.5	24.560	0.800	-0.590	0.170
2020/01/31 19:30:10.6	24.570	0.810	-0.530	0.180
2020/01/31 19:30:10.7	24.590	0.810	-0.470	0.200
2020/01/31 19:30:10.8	24.590	0.810	-0.400	0.210
2020/01/31 19:30:10.9	24.610	0.800	-0.330	0.240
2020/01/31 19:30:11.0	24.610	0.790	-0.260	0.260
2020/01/31 19:30:11.1	24.610	0.770	-0.180	0.280
2020/01/31 19:30:11.2	24.600	0.750	-0.110	0.310
2020/01/31 19:30:11.3	24.590	0.730	-0.030	0.330
2020/01/31 19:30:11.4	24.580	0.700	0.050	0.360
2020/01/31 19:30:11.5	24.560	0.670	0.120	0.400
2020/01/31 19:30:11.6	24.540	0.630	0.200	0.430
2020/01/31 19:30:11.7	24.520	0.600	0.270	0.460
2020/01/31 19:30:11.8	24.500	0.560	0.340	0.500
2020/01/31 19:30:11.9	24.470	0.510	0.410	0.530
2020/01/31 19:30:12.0	24.440	0.470	0.470	0.560
2020/01/31 19:30:12.1	24.410	0.420	0.520	0.590
2020/01/31 19:30:12.2	24.390	0.380	0.570	0.620
2020/01/31 19:30:12.3	24.360	0.330	0.620	0.650
2020/01/31 19:30:12.4	24.330	0.280	0.660	0.670
2020/01/31 19:30:12.5	24.300	0.240	0.690	0.690
2020/01/31 19:30:12.6	24.280	0.190	0.710	0.700
2020/01/31 19:30:12.7	24.250	0.150	0.730	0.710
2020/01/31 19:30:12.8	24.230	0.100	0.730	0.710
2020/01/31 19:30:12.9	24.210	0.060	0.730	0.710
2020/01/31 19:30:13.0	24.190	0.020	0.730	0.710
2020/01/31 19:30:13.1	24.180	-0.020	0.710	0.700
2020/01/31 19:30:13.2	24.170	-0.050	0.680	0.680
2020/01/31 19:30:13.3	24.160	-0.080	0.650	0.660
2020/01/31 19:30:13.4	24.150	-0.110	0.620	0.630
2020/01/31 19:30:13.5	24.150	-0.140	0.570	0.590
2020/01/31 19:30:13.6	24.140	-0.160	0.520	0.550
2020/01/31 19:30:13.7	24.150	-0.180	0.460	0.510
2020/01/31 19:30:13.8	24.150	-0.190	0.400	0.460
2020/01/31 19:30:13.9	24.160	-0.200	0.330	0.410
2020/01/31 19:30:14.0	24.170	-0.210	0.260	0.360
2020/01/31 19:30:14.1	24.180	-0.220	0.190	0.300
2020/01/31 19:30:14.2	24.200	-0.220	0.120	0.240
2020/01/31 19:30:14.3	24.220	-0.220	0.040	0.170
2020/01/31 19:30:14.4	24.240	-0.220	-0.040	0.100
2020/01/31 19:30:14.5	24.270	-0.220	-0.110	0.030
2020/01/31 19:30:14.6	24.300	-0.220	-0.190	-0.040
2020/01/31 19:30:14.7	24.330	-0.210	-0.260	-0.110
2020/01/31 19:30:14.8	24.370	-0.200	-0.330	-0.190
2020/01/31 19:30:14.9	24.400	-0.200	-0.400	-0.260
2020/01/31 19:30:15.0	24.440	-0.190	-0.460	-0.340
2020/01/31 19:30:15.1	24.480	-0.180	-0.520	-0.410
2020/01/31 19:30:15.2	24.520	-0.170	-0.580	-0.490
2020/01/31 19:30:15.3	24.570	-0.160	-0.620	-0.560
2020/01/31 19:30:15.4	24.620	-0.160	-0.660	-0.630
2020/01/31 19:30:15.5	24.670	-0.150	-0.700	-0.700
2020/01/31 19:30:15.6	24.720	-0.150	-0.720	-0.770
2020/01/31 19:30:15.7	24.770	-0.150	-0.740	-0.830
2020/01/31 19:30:15.8	24.820	-0.140	-0.750	-0.890
2020/01/31 19:30:15.9	24.850	-0.140	-0.760	-0.950
2020/01/31 19:30:16.0	24.900	-0.150	-0.750	-0.990
2020/01/31 19:30:16.1	24.940	-0.150	-0.740	-1.040
2020/01/31 19:30:16.2	24.980	-0.160	-0.720	-1.070
2020/01/31 19:30:16.3	25.020	-0.160	-0.690	-1.100
2020/01/31 19:30:16.4	25.060	-0.170	-0.650	-1.130
2020/01/31 19:30:16.5	25.090	-0.180	-0.610	-1.140
2020/01/31 19:30:16.6	25.120	-0.200	-0.560	-1.150
2020/01/31 19:30:16.7	25.140	-0.210	-0.500	-1.150
2020/01/31 19:30:16.8	25.160	-0.230	-0.440	-1.130
2020/01/31 19:30:16.9	25.170	-0.240	-0.370	-1.110
2020/01/31 19:30:17.0	25.180	-0.260	-0.300	-1.090
2020/01/31 19:30:17.1	25.190	-0.280	-0.230	-1.050
2020/01/31 19:30:17.2	25.190	-0.300	-0.150	-1.010
2020/01/31 19:30:17.3	25.180	-0.320	-0.070	-0.960
2020/01/31 19:30:17.4	25.170	-0.340	0.010	-0.900
2020/01/31 19:30:17.5	25.160	-0.350	0.100	-0.830
2020/01/31 19:30:17.6	25.140	-0.370	0.180	-0.760
2020/01/31 19:30:17.7	25.110	-0.390	0.260	-0.680
2020/01/31 19:30:17.8	25.090	-0.410	0.330	-0.590
2020/01/31 19:30:17.9	25.050	-0.420	0.400	-0.500
2020/01/31 19:30:18.0	25.020	-0.440	0.470	-0.410
2020/01/31 19:30:18.1	24.990	-0.450	0.530	-0.310
2020/01/31 19:30:18.2	24.950	-0.460	0.580	-0.210
2020/01/31 19:30:18.3	24.910	-0.470	0.630	-0.100
2020/01/31 19:30:18.4	24.870	-0.470	0.670	-0.000
2020/01/31 19:30:18.5	24.830	-0.470	0.700	0.110
2020/01/31 19:30:18.6	24.790	-0.470	0.720	0.210
2020/01/31 19:30:18.7	24.740	-0.470	0.740	0.310
2020/01/31 19:30:18.8	24.700	-0.470	0.740	0.420
2020/01/31 19:30:18.9	24.660	-0.460	0.730	0.520
2020/01/31 19:30:19.0	24.630	-0.450	0.710	0.620
2020/01/31 19:30:19.1	24.590	-0.440	0.690	0.710
2020/01/31 19:30:19.2	24.550	-0.420	0.650	0.800
2020/01/31 19:30:19.3	24.520	-0.400	0.610	0.880
2020/01/31 19:30:19.4	24.490	-0.380	0.560	0.960
2020/01/31 19:30:19.5	24.460	-0.360	0.490	1.040
2020/01/31 19:30:19.6	24.440	-0.340	0.430	1.110
2020/01/31 19:30:19.7	24.420	-0.310	0.350	1.170
2020/01/31 19:30:19.8	24.400	-0.280	0.270	1.230
2020/01/31 19:30:19.9	24.390	-0.250	0.180	1.280
2020/01/31 19:30:20.0	24.380	-0.220	0.090	1.320
2020/01/31 19:30:20.1	24.370	-0.190	-0.010	1.360
2020/01/31 19:30:20.2	24.360	-0.160	-0.110	1.390
2020/01/31 19:30:20.3	24.350	-0.130	-0.210	1.420
2020/01/31 19:30:20.4	24.350	-0.100	-0.300	1.440
2020/01/31 19:30:20.5	24.350	-0.070	-0.400	1.450
2020/01/31 19:30:20.6	24.340	-0.030	-0.500	1.460
2020/01/31 19:30:20.7	24.340	-0.000	-0.590	1.470
2020/01/31 19:30:20.8	24.350	0.030	-0.680	1.470
2020/01/31 19:30:20.9	24.350	0.060	-0.760	1.470
2020/01/31 19:30:21.0	24.360	0.080	-0.840	1.460
2020/01/31 19:30:21.1	24.360	0.110	-0.910	1.450
2020/01/31 19:30:21.2	24.370	0.130	-0.980	1.440
2020/01/31 19:30:21.3	24.380	0.160	-1.040	1.420
2020/01/31 19:30:21.4	24.390	0.180	-1.090	1.400
2020/01/31 19:30:21.5	24.400	0.200	-1.130	1.380
2020/01/31 19:30:21.6	24.410	0.220	-1.160	1.350
2020/01/31 19:30:21.7	24.430	0.240	-1.190	1.330
2020/01/31 19:30:21.8	24.440	0.250	-1.200	1.300
2020/01/31 19:30:21.9	24.460	0.270	-1.210	1.260
2020/01/31 19:30:22.0	24.480	0.280	-1.210	1.230
2020/01/31 19:30:22.1	24.500	0.290	-1.200	1.200
2020/01/31 19:30:22.2	24.510	0.300	-1.190	1.160
2020/01/31 19:30:22.3	24.530	0.310	-1.170	1.130
2020/01/31 19:30:22.4	24.550	0.320	-1.150	1.090
2020/01/31 19:30:22.5	24.570	0.330	-1.120	1.050
2020/01/31 19:30:22.6	24.600	0.330	-1.080	1.020
2020/01/31 19:30:22.7	24.620	0.340	-1.050	0.980
2020/01/31 19:30:22.8	24.640	0.340	-1.000	0.940
2020/01/31 19:30:22.9	24.660	0.350	-0.960	0.900
2020/01/31 19:30:23.0	24.680	0.350	-0.920	0.860
2020/01/31 19:30:23.1	24.710	0.350	-0.870	0.820
2020/01/31 19:30:23.2	24.730	0.360	-0.820	0.780
2020/01/31 19:30:23.3	24.750	0.360	-0.770	0.740
2020/01/31 19:30:23.4	24.780	0.360	-0.720	0.700
2020/01/31 19:30:23.5	24.800	0.370	-0.670	0.660
2020/01/31 19:30:23.6	24.820	0.370	-0.630	0.630
2020/01/31 19:30:23.7	24.840	0.370	-0.580	0.590
2020/01/31 19:30:23.8	24.860	0.380	-0.530	0.550
2020/01/31 19:30:23.9	24.880	0.380	-0.480	0.510
2020/01/31 19:30:24.0	24.900	0.390	-0.440	0.470
2020/01/31 19:30:24.1	24.920	0.390	-0.400	0.430
2020/01/31 19:30:24.2	24.940	0.400	-0.360	0.400
2020/01/31 19:30:24.3	24.950	0.400	-0.320	0.360
2020/01/31 19:30:24.4	24.970	0.410	-0.290	0.330
2020/01/31 19:30:24.5	24.980	0.410	-0.250	0.300
2020/01/31 19:30:24.6	24.990	0.410	-0.220	0.260
2020/01/31 19:30:24.7	25.000	0.420	-0.190	0.230
2020/01/31 19:30:24.8	25.010	0.420	-0.160	0.200
2020/01/31 19:30:24.9	25.020	0.420	-0.130	0.170
2020/01/31 19:30:25.0	25.030	0.420	-0.100	0.150
2020/01/31 19:30:25.1	25.030	0.420	-0.080	0.120
2020/01/31 19:30:25.2	25.040	0.420	-0.050	0.100
2020/01/31 19:30:25.3	25.040	0.420	-0.030	0.080
2020/01/31 19:30:25.4	25.040	0.410	-0.010	0.050
2020/01/31 19:30:25.5	25.040	0.400	0.010	0.040
2020/01/31 19:30:25.6	25.040	0.400	0.030	0.020
2020/01/31 19:30:25.7	25.040	0.380	0.050	-0.000
2020/01/31 19:30:25.8	25.040	0.370	0.080	-0.020
2020/01/31 19:30:25.9	25.030	0.350	0.090	-0.030
2020/01/31 19:30:26.0	25.020	0.330	0.110	-0.040
2020/01/31 19:30:26.1	25.010	0.310	0.140	-0.060
2020/01/31 19:30:26.2	25.010	0.280	0.160	-0.070
2020/01/31 19:30:26.3	25.000	0.260	0.180	-0.080
2020/01/31 19:30:26.4	24.990	0.230	0.200	-0.090
2020/01/31 19:30:26.5	24.990	0.190	0.220	-0.100
2020/01/31 19:30:26.6	24.980	0.160	0.240	-0.110
2020/01/31 19:30:26.7	24.970	0.120	0.260	-0.120
2020/01/31 19:30:26.8	24.960	0.080	0.290	-0.120
2020/01/31 19:30:26.9	24.950	0.040	0.310	-0.130
2020/01/31 19:30:27.0	24.940	-0.000	0.330	-0.140
2020/01/31 19:30:27.1	24.940	-0.050	0.350	-0.140
2020/01/31 19:30:27.2	24.930	-0.090	0.380	-0.150
2020/01/31 19:30:27.3	24.930	-0.140	0.400	-0.150
2020/01/31 19:30:27.4	24.920	-0.180	0.420	-0.150
2020/01/31 19:30:27.5	24.920	-0.230	0.430	-0.160
2020/01/31 19:30:27.6	24.920	-0.280	0.450	-0.160
2020/01/31 19:30:27.7	24.920	-0.320	0.460	-0.160
2020/01/31 19:30:27.8	24.920	-0.370	0.480	-0.170
2020/01/31 19:30:27.9	24.910	-0.410	0.490	-0.170
2020/01/31 19:30:28.0	24.910	-0.450	0.490	-0.180
2020/01/31 19:30:28.1	24.920	-0.490	0.500	-0.180
2020/01/31 19:30:28.2	24.920	-0.530	0.500	-0.190
2020/01/31 19:30:28.3	24.920	-0.560	0.500	-0.200
2020/01/31 19:30:28.4	24.930	-0.590	0.490	-0.210
2020/01/31 19:30:28.5	24.930	-0.620	0.490	-0.220
2020/01/31 19:30:28.6	24.940	-0.650	0.470	-0.230
2020/01/31 19:30:28.7	24.940	-0.670	0.460	-0.240
2020/01/31 19:30:28.8	24.950	-0.690	0.440	-0.250
2020/01/31 19:30:28.9	24.960	-0.700	0.420	-0.260
2020/01/31 19:30:29.0	24.960	-0.710	0.390	-0.270
2020/01/31 19:30:29.1	24.970	-0.710	0.370	-0.280
2020/01/31 19:30:29.2	24.980	-0.710	0.340	-0.290
2020/01/31 19:30:29.3	24.980	-0.710	0.310	-0.300
2020/01/31 19:30:29.4	24.990	-0.700	0.270	-0.310
2020/01/31 19:30:29.5	24.990	-0.690	0.240	-0.320
2020/01/31 19:30:29.6	25.000	-0.670	0.200	-0.320
2020/01/31 19:30:29.7	25.000	-0.650	0.160	-0.320
2020/01/31 19:30:29.8	25.010	-0.620	0.110	-0.320
2020/01/31 19:30:29.9	25.010	-0.600	0.070	-0.320
2020/01/31 19:30:30.0	25.010	-0.570	0.030	-0.320
2020/01/31 19:30:30.1	25.010	-0.530	-0.020	-0.310
2020/01/31 19:30:30.2	25.010	-0.500	-0.060	-0.300
2020/01/31 19:30:30.3	25.010	-0.460	-0.110	-0.290
2020/01/31 19:30:30.4	25.010	-0.420	-0.150	-0.270
2020/01/31 19:30:30.5	25.010	-0.370	-0.200	-0.250
2020/01/31 19:30:30.6	25.000	-0.330	-0.250	-0.230
2020/01/31 19:30:30.7	24.990	-0.290	-0.290	-0.210
2020/01/31 19:30:30.8	24.990	-0.240	-0.330	-0.180
2020/01/31 19:30:30.9	24.980	-0.200	-0.380	-0.150
2020/01/31 19:30:31.0	24.970	-0.150	-0.420	-0.110
2020/01/31 19:30:31.1	24.960	-0.110	-0.460	-0.080
2020/01/31 19:30:31.2	24.940	-0.060	-0.490	-0.040
2020/01/31 19:30:31.3	24.930	-0.020	-0.530	0.000
2020/01/31 19:30:31.4	24.920	0.020	-0.560	0.050
2020/01/31 19:30:31.5	24.900	0.060	-0.590	0.090
2020/01/31 19:30:31.6	24.890	0.100	-0.610	0.140
2020/01/31 19:30:31.7	24.870	0.130	-0.630	0.190
2020/01/31 19:30:31.8	24.850	0.170	-0.650	0.240
2020/01/31 19:30:31.9	24.830	0.200	-0.660	0.290
2020/01/31 19:30:32.0	24.820	0.230	-0.680	0.340
2020/01/31 19:30:32.1	24.800	0.260	-0.680	0.400
2020/01/31 19:30:32.2	24.780	0.280	-0.690	0.450
2020/01/31 19:30:32.3	24.770	0.310	-0.690	0.500
2020/01/31 19:30:32.4	24.750	0.330	-0.690	0.550
2020/01/31 19:30:32.5	24.740	0.340	-0.680	0.600
2020/01/31 19:30:32.6	24.730	0.360	-0.670	0.650
2020/01/31 19:30:32.7	24.720	0.370	-0.660	0.690
2020/01/31 19:30:32.8	24.710	0.390	-0.650	0.740
2020/01/31 19:30:32.9	24.710	0.400	-0.640	0.780
2020/01/31 19:30:33.0	24.700	0.400	-0.620	0.810
2020/01/31 19:30:33.1	24.700	0.410	-0.610	0.850
2020/01/31 19:30:33.2	24.700	0.420	-0.590	0.880
2020/01/31 19:30:33.3	24.700	0.420	-0.570	0.910
2020/01/31 19:30:33.4	24.700	0.420	-0.560	0.930
2020/01/31 19:30:33.5	24.700	0.420	-0.540	0.950
2020/01/31 19:30:33.6	24.710	0.420	-0.520	0.970
2020/01/31 19:30:33.7	24.720	0.420	-0.500	0.980
2020/01/31 19:30:33.8	24.730	0.410	-0.490	0.980
2020/01/31 19:30:33.9	24.750	0.410	-0.470	0.990
2020/01/31 19:30:34.0	24.770	0.400	-0.460	0.990
2020/01/31 19:30:34.1	24.790	0.400	-0.440	0.980
2020/01/31 19:30:34.2	24.810	0.390	-0.430	0.970
2020/01/31 19:30:34.3	24.830	0.380	-0.420	0.960
2020/01/31 19:30:34.4	24.850	0.370	-0.410	0.940
2020/01/31 19:30:34.5	24.870	0.350	-0.400	0.910
2020/01/31 19:30:34.6	24.890	0.340	-0.390	0.890
2020/01/31 19:30:34.7	24.920	0.330	-0.380	0.860
2020/01/31 19:30:34.8	24.950	0.310	-0.380	0.830
2020/01/31 19:30:34.9	24.980	0.290	-0.370	0.790
2020/01/31 19:30:35.0	25.010	0.280	-0.370	0.750
2020/01/31 19:30:35.1	25.040	0.260	-0.360	0.710
2020/01/31 19:30:35.2	25.070	0.240	-0.350	0.670
2020/01/31 19:30:35.3	25.100	0.220	-0.340	0.630
2020/01/31 19:30:35.4	25.130	0.190	-0.340	0.580
2020/01/31 19:30:35.5	25.160	0.170	-0.330	0.540
2020/01/31 19:30:35.6	25.190	0.150	-0.310	0.500
2020/01/31 19:30:35.7	25.220	0.120	-0.300	0.450
2020/01/31 19:30:35.8	25.250	0.090	-0.280	0.410
2020/01/31 19:30:35.9	25.280	0.070	-0.260	0.360
2020/01/31 19:30:36.0	25.310	0.040	-0.240	0.320
2020/01/31 19:30:36.1	25.340	0.010	-0.220	0.280
2020/01/31 19:30:36.2	25.360	-0.020	-0.200	0.240
2020/01/31 19:30:36.3	25.390	-0.050	-0.170	0.200
2020/01/31 19:30:36.4	25.410	-0.070	-0.140	0.160
2020/01/31 19:30:36.5	25.440	-0.100	-0.110	0.120
2020/01/31 19:30:36.6	25.460	-0.130	-0.080	0.090
2020/01/31 19:30:36.7	25.480	-0.160	-0.050	0.060
2020/01/31 19:30:36.8	25.500	-0.190	-0.010	0.030
2020/01/31 19:30:36.9	25.510	-0.210	0.020	0.000
2020/01/31 19:30:37.0	25.520	-0.240	0.060	-0.020
2020/01/31 19:30:37.1	25.530	-0.260	0.090	-0.040
2020/01/31 19:30:37.2	25.540	-0.290	0.130	-0.050
2020/01/31 19:30:37.3	25.550	-0.310	0.170	-0.070
2020/01/31 19:30:37.4	25.550	-0.330	0.200	-0.080
2020/01/31 19:30:37.5	25.550	-0.350	0.240	-0.080
2020/01/31 19:30:37.6	25.540	-0.370	0.270	-0.080
2020/01/31 19:30:37.7	25.540	-0.380	0.300	-0.080
2020/01/31 19:30:37.8	25.530	-0.390	0.330	-0.080
2020/01/31 19:30:37.9	25.520	-0.410	0.350	-0.070
2020/01/31 19:30:38.0	25.510	-0.410	0.380	-0.070
2020/01/31 19:30:38.1	25.500	-0.420	0.400	-0.060
2020/01/31 19:30:38.2	25.480	-0.430	0.410	-0.040
2020/01/31 19:30:38.3	25.460	-0.430	0.420	-0.030
2020/01/31 19:30:38.4	25.440	-0.430	0.430	-0.020
2020/01/31 19:30:38.5	25.420	-0.420	0.430	-0.000
2020/01/31 19:30:38.6	25.390	-0.420	0.430	0.020
2020/01/31 19:30:38.7	25.370	-0.410	0.420	0.030
2020/01/31 19:30:38.8	25.340	-0.400	0.410	0.050
2020/01/31 19:30:38.9	25.310	-0.390	0.400	0.070
2020/01/31 19:30:39.0	25.290	-0.380	0.370	0.090
2020/01/31 19:30:39.1	25.260	-0.360	0.350	0.110
2020/01/31 19:30:39.2	25.240	-0.340	0.320	0.130
2020/01/31 19:30:39.3	25.210	-0.320	0.290	0.150
2020/01/31 19:30:39.4	25.180	-0.300	0.250	0.170
2020/01/31 19:30:39.5	25.160	-0.280	0.210	0.180
2020/01/31 19:30:39.6	25.140	-0.250	0.170	0.200
2020/01/31 19:30:39.7	25.110	-0.230	0.130	0.230
2020/01/31 19:30:39.8	25.090	-0.200	0.080	0.250
2020/01/31 19:30:39.9	25.080	-0.170	0.030	0.270
2020/01/31 19:30:40.0	25.060	-0.140	-0.020	0.290
2020/01/31 19:30:40.1	25.040	-0.110	-0.070	0.310
2020/01/31 19:30:40.2	25.020	-0.080	-0.120	0.340
2020/01/31 19:30:40.3	25.000	-0.050	-0.170	0.360
2020/01/31 19:30:40.4	24.980	-0.020	-0.220	0.380
2020/01/31 19:30:40.5	24.970	0.010	-0.270	0.410
2020/01/31 19:30:40.6	24.950	0.040	-0.320	0.430
2020/01/31 19:30:40.7	24.930	0.080	-0.360	0.460
2020/01/31 19:30:40.8	24.920	0.110	-0.410	0.480
2020/01/31 19:30:40.9	24.900	0.140	-0.450	0.510
2020/01/31 19:30:41.0	24.890	0.170	-0.490	0.530
2020/01/31 19:30:41.1	24.870	0.200	-0.520	0.560
2020/01/31 19:30:41.2	24.870	0.230	-0.560	0.580
2020/01/31 19:30:41.3	24.860	0.250	-0.590	0.600
2020/01/31 19:30:41.4	24.850	0.280	-0.620	0.620
2020/01/31 19:30:41.5	24.850	0.310	-0.640	0.630
2020/01/31 19:30:41.6	24.850	0.330	-0.660	0.640
2020/01/31 19:30:41.7	24.850	0.350	-0.690	0.650
2020/01/31 19:30:41.8	24.850	0.380	-0.700	0.650
2020/01/31 19:30:41.9	24.850	0.400	-0.720	0.650
2020/01/31 19:30:42.0	24.860	0.420	-0.730	0.650
2020/01/31 19:30:42.1	24.880	0.430	-0.750	0.640
2020/01/31 19:30:42.2	24.890	0.450	-0.760	0.630
2020/01/31 19:30:42.3	24.910	0.470	-0.770	0.620
2020/01/31 19:30:42.4	24.930	0.480	-0.780	0.600
2020/01/31 19:30:42.5	24.960	0.490	-0.780	0.570
2020/01/31 19:30:42.6	24.990	0.500	-0.790	0.540
2020/01/31 19:30:42.7	25.020	0.510	-0.790	0.510
2020/01/31 19:30:42.8	25.060	0.510	-0.790	0.470
2020/01/31 19:30:42.9	25.090	0.520	-0.790	0.440
2020/01/31 19:30:43.0	25.130	0.520	-0.790	0.390
2020/01/31 19:30:43.1	25.180	0.520	-0.790	0.350
2020/01/31 19:30:43.2	25.220	0.510	-0.780	0.300
2020/01/31 19:30:43.3	25.270	0.510	-0.770	0.240
2020/01/31 19:30:43.4	25.310	0.500	-0.760	0.190
2020/01/31 19:30:43.5	25.360	0.490	-0.750	0.140
2020/01/31 19:30:43.6	25.410	0.470	-0.730	0.080
2020/01/31 19:30:43.7	25.460	0.460	-0.720	0.030
2020/01/31 19:30:43.8	25.500	0.440	-0.690	-0.030
2020/01/31 19:30:43.9	25.540	0.410	-0.670	-0.080
2020/01/31 19:30:44.0	25.590	0.380	-0.640	-0.140
2020/01/31 19:30:44.1	25.630	0.360	-0.610	-0.180
2020/01/31 19:30:44.2	25.670	0.320	-0.570	-0.230
2020/01/31 19:30:44.3	25.710	0.290	-0.530	-0.270
2020/01/31 19:30:44.4	25.740	0.250	-0.490	-0.310
2020/01/31 19:30:44.5	25.770	0.210	-0.440	-0.340
2020/01/31 19:30:44.6	25.800	0.160	-0.390	-0.370
2020/01/31 19:30:44.7	25.820	0.120	-0.330	-0.390
2020/01/31 19:30:44.8	25.840	0.070	-0.270	-0.410
2020/01/31 19:30:44.9	25.850	0.020	-0.210	-0.420
2020/01/31 19:30:45.0	25.860	-0.030	-0.140	-0.430
2020/01/31 19:30:45.1	25.870	-0.080	-0.070	-0.430
2020/01/31 19:30:45.2	25.870	-0.130	-0.000	-0.430
2020/01/31 19:30:45.3	25.870	-0.180	0.070	-0.420
2020/01/31 19:30:45.4	25.860	-0.240	0.140	-0.410
2020/01/31 19:30:45.5	25.850	-0.290	0.220	-0.400
2020/01/31 19:30:45.6	25.830	-0.340	0.290	-0.380
2020/01/31 19:30:45.7	25.810	-0.390	0.370	-0.350
2020/01/31 19:30:45.8	25.790	-0.430	0.440	-0.320
2020/01/31 19:30:45.9	25.760	-0.480	0.500	-0.290
2020/01/31 19:30:46.0	25.740	-0.520	0.570	-0.260
2020/01/31 19:30:46.1	25.710	-0.560	0.630	-0.220
2020/01/31 19:30:46.2	25.680	-0.600	0.690	-0.190
2020/01/31 19:30:46.3	25.650	-0.630	0.740	-0.150
2020/01/31 19:30:46.4	25.620	-0.660	0.790	-0.110
2020/01/31 19:30:46.5	25.590	-0.680	0.830	-0.070
2020/01/31 19:30:46.6	25.570	-0.700	0.860	-0.040
2020/01/31 19:30:46.7	25.540	-0.710	0.890	-0.000
2020/01/31 19:30:46.8	25.510	-0.720	0.910	0.040
2020/01/31 19:30:46.9	25.480	-0.730	0.920	0.060
2020/01/31 19:30:47.0	25.450	-0.720	0.920	0.100
2020/01/31 19:30:47.1	25.430	-0.720	0.920	0.130
2020/01/31 19:30:47.2	25.410	-0.700	0.900	0.160
2020/01/31 19:30:47.3	25.390	-0.690	0.880	0.190
2020/01/31 19:30:47.4	25.370	-0.670	0.850	0.210
2020/01/31 19:30:47.5	25.360	-0.640	0.810	0.240
2020/01/31 19:30:47.6	25.350	-0.610	0.770	0.260
2020/01/31 19:30:47.7	25.340	-0.580	0.720	0.280
2020/01/31 19:30:47.8	25.330	-0.540	0.660	0.300
2020/01/31 19:30:47.9	25.310	-0.500	0.590	0.320
2020/01/31 19:30:48.0	25.310	-0.460	0.520	0.330
2020/01/31 19:30:48.1	25.310	-0.410	0.450	0.350
2020/01/31 19:30:48.2	25.300	-0.360	0.380	0.360
2020/01/31 19:30:48.3	25.300	-0.320	0.300	0.370
2020/01/31 19:30:48.4	25.300	-0.270	0.220	0.380
2020/01/31 19:30:48.5	25.310	-0.220	0.140	0.390
2020/01/31 19:30:48.6	25.310	-0.170	0.060	0.410
2020/01/31 19:30:48.7	25.310	-0.120	-0.020	0.420
2020/01/31 19:30:48.8	25.310	-0.070	-0.100	0.440
2020/01/31 19:30:48.9	25.310	-0.020	-0.170	0.450
2020/01/31 19:30:49.0	25.310	0.020	-0.240	0.470
2020/01/31 19:30:49.1	25.310	0.060	-0.310	0.490
2020/01/31 19:30:49.2	25.310	0.100	-0.380	0.510
2020/01/31 19:30:49.3	25.310	0.140	-0.440	0.530
2020/01/31 19:30:49.4	25.310	0.180	-0.500	0.560
2020/01/31 19:30:49.5	25.310	0.210	-0.550	0.590
2020/01/31 19:30:49.6	25.310	0.240	-0.600	0.620
2020/01/31 19:30:49.7	25.300	0.270	-0.640	0.650
2020/01/31 19:30:49.8	25.300	0.300	-0.680	0.680
2020/01/31 19:30:49.9	25.310	0.320	-0.720	0.710
2020/01/31 19:30:50.0	25.300	0.340	-0.750	0.740
2020/01/31 19:30:50.1	25.300	0.350	-0.770	0.780
2020/01/31 19:30:50.2	25.300	0.360	-0.790	0.810
2020/01/31 19:30:50.3	25.290	0.370	-0.810	0.840
2020/01/31 19:30:50.4	25.290	0.380	-0.820	0.870
2020/01/31 19:30:50.5	25.290	0.380	-0.830	0.900
2020/01/31 19:30:50.6	25.290	0.380	-0.840	0.930
2020/01/31 19:30:50.7	25.290	0.380	-0.850	0.950
2020/01/31 19:30:50.8	25.290	0.380	-0.850	0.970
2020/01/31 19:30:50.9	25.300	0.370	-0.840	0.980
2020/01/31 19:30:51.0	25.310	0.360	-0.840	1.000
2020/01/31 19:30:51.1	25.320	0.360	-0.840	1.010
2020/01/31 19:30:51.2	25.330	0.350	-0.840	1.010
2020/01/31 19:30:51.3	25.340	0.340	-0.840	1.010
2020/01/31 19:30:51.4	25.360	0.330	-0.830	1.000
2020/01/31 19:30:51.5	25.370	0.320	-0.830	0.990
2020/01/31 19:30:51.6	25.390	0.310	-0.820	0.970
2020/01/31 19:30:51.7	25.410	0.300	-0.820	0.950
2020/01/31 19:30:51.8	25.430	0.290	-0.810	0.930
2020/01/31 19:30:51.9	25.460	0.280	-0.820	0.900
2020/01/31 19:30:52.0	25.490	0.270	-0.810	0.860
2020/01/31 19:30:52.1	25.520	0.260	-0.810	0.820
2020/01/31 19:30:52.2	25.550	0.250	-0.800	0.770
2020/01/31 19:30:52.3	25.580	0.240	-0.790	0.730
2020/01/31 19:30:52.4	25.610	0.230	-0.780	0.670
2020/01/31 19:30:52.5	25.640	0.220	-0.770	0.620
2020/01/31 19:30:52.6	25.680	0.220	-0.760	0.560
2020/01/31 19:30:52.7	25.710	0.210	-0.740	0.510
2020/01/31 19:30:52.8	25.740	0.200	-0.730	0.450
2020/01/31 19:30:52.9	25.780	0.190	-0.700	0.380
2020/01/31 19:30:53.0	25.810	0.180	-0.670	0.320
2020/01/31 19:30:53.1	25.840	0.170	-0.640	0.270
2020/01/31 19:30:53.2	25.870	0.160	-0.610	0.210
2020/01/31 19:30:53.3	25.890	0.150	-0.580	0.160
2020/01/31 19:30:53.4	25.910	0.140	-0.530	0.110
2020/01/31 19:30:53.5	25.930	0.130	-0.490	0.070
2020/01/31 19:30:53.6	25.950	0.110	-0.440	0.020
2020/01/31 19:30:53.7	25.960	0.100	-0.390	-0.010
2020/01/31 19:30:53.8	25.970	0.080	-0.330	-0.050
2020/01/31 19:30:53.9	25.970	0.060	-0.270	-0.070
2020/01/31 19:30:54.0	25.970	0.040	-0.200	-0.100
2020/01/31 19:30:54.1	25.960	0.020	-0.130	-0.120
2020/01/31 19:30:54.2	25.950	-0.000	-0.060	-0.130
2020/01/31 19:30:54.3	25.940	-0.030	0.010	-0.140
2020/01/31 19:30:54.4	25.920	-0.050	0.080	-0.150
2020/01/31 19:30:54.5	25.900	-0.080	0.160	-0.150
2020/01/31 19:30:54.6	25.880	-0.110	0.230	-0.150
2020/01/31 19:30:54.7	25.850	-0.140	0.300	-0.150
2020/01/31 19:30:54.8	25.820	-0.170	0.380	-0.150
2020/01/31 19:30:54.9	25.780	-0.200	0.450	-0.140
2020/01/31 19:30:55.0	25.750	-0.230	0.510	-0.130
2020/01/31 19:30:55.1	25.710	-0.270	0.580	-0.130
2020/01/31 19:30:55.2	25.670	-0.300	0.630	-0.120
2020/01/31 19:30:55.3	25.630	-0.330	0.680	-0.110
2020/01/31 19:30:55.4	25.590	-0.360	0.730	-0.100
2020/01/31 19:30:55.5	25.550	-0.390	0.770	-0.100
2020/01/31 19:30:55.6	25.520	-0.420	0.810	-0.090
2020/01/31 19:30:55.7	25.480	-0.450	0.830	-0.090
2020/01/31 19:30:55.8	25.450	-0.470	0.850	-0.090
2020/01/31 19:30:55.9	25.420	-0.490	0.860	-0.100
2020/01/31 19:30:56.0	25.390	-0.510	0.860	-0.100
2020/01/31 19:30:56.1	25.360	-0.530	0.860	-0.110
2020/01/31 19:30:56.2	25.340	-0.540	0.840	-0.120
2020/01/31 19:30:56.3	25.320	-0.550	0.820	-0.130
2020/01/31 19:30:56.4	25.300	-0.550	0.790	-0.150
2020/01/31 19:30:56.5	25.290	-0.550	0.760	-0.170
2020/01/31 19:30:56.6	25.280	-0.540	0.710	-0.190
2020/01/31 19:30:56.7	25.280	-0.530	0.660	-0.210
2020/01/31 19:30:56.8	25.280	-0.520	0.610	-0.230
2020/01/31 19:30:56.9	25.280	-0.500	0.540	-0.250
2020/01/31 19:30:57.0	25.280	-0.470	0.470	-0.270
2020/01/31 19:30:57.1	25.290	-0.440	0.400	-0.300
2020/01/31 19:30:57.2	25.300	-0.410	0.320	-0.320
2020/01/31 19:30:57.3	25.320	-0.370	0.240	-0.340
2020/01/31 19:30:57.4	25.340	-0.330	0.150	-0.360
2020/01/31 19:30:57.5	25.360	-0.280	0.070	-0.380
2020/01/31 19:30:57.6	25.380	-0.230	-0.020	-0.390
2020/01/31 19:30:57.7	25.400	-0.180	-0.110	-0.410
2020/01/31 19:30:57.8	25.430	-0.130	-0.200	-0.420
2020/01/31 19:30:57.9	25.450	-0.070	-0.290	-0.430
2020/01/31 19:30:58.0	25.480	-0.020	-0.380	-0.430
2020/01/31 19:30:58.1	25.510	0.040	-0.460	-0.430
2020/01/31 19:30:58.2	25.540	0.100	-0.540	-0.430
2020/01/31 19:30:58.3	25.570	0.160	-0.620	-0.420
2020/01/31 19:30:58.4	25.590	0.210	-0.690	-0.410
2020/01/31 19:30:58.5	25.620	0.270	-0.760	-0.400
2020/01/31 19:30:58.6	25.650	0.320	-0.820	-0.380
2020/01/31 19:30:58.7	25.680	0.370	-0.880	-0.360
2020/01/31 19:30:58.8	25.700	0.420	-0.930	-0.330
2020/01/31 19:30:58.9	25.720	0.460	-0.980	-0.300
2020/01/31 19:30:59.0	25.740	0.510	-1.020	-0.260
2020/01/31 19:30:59.1	25.760	0.540	-1.050	-0.230
2020/01/31 19:30:59.2	25.780	0.570	-1.070	-0.190
2020/01/31 19:30:59.3	25.790	0.600	-1.080	-0.140
2020/01/31 19:30:59.4	25.800	0.630	-1.090	-0.100
2020/01/31 19:30:59.5	25.810	0.650	-1.090	-0.050
2020/01/31 19:30:59.6	25.820	0.660	-1.080	-0.000
2020/01/31 19:30:59.7	25.820	0.670	-1.070	0.050
2020/01/31 19:30:59.8	25.820	0.670	-1.050	0.100
2020/01/31 19:30:59.9	25.820	0.670	-1.020	0.160
2020/01/31 19:31:00.0	25.820	0.670	-0.990	0.220
2020/01/31 19:31:00.1	25.810	0.660	-0.950	0.280
2020/01/31 19:31:00.2	25.800	0.640	-0.900	0.330
2020/01/31 19:31:00.3	25.790	0.630	-0.860	0.390
2020/01/31 19:31:00.4	25.770	0.610	-0.800	0.450
2020/01/31 19:31:00.5	25.760	0.580	-0.750	0.510
2020/01/31 19:31:00.6	25.740	0.550	-0.690	0.570
2020/01/31 19:31:00.7	25.720	0.520	-0.630	0.620
2020/01/31 19:31:00.8	25.700	0.490	-0.570	0.680
2020/01/31 19:31:00.9	25.680	0.450	-0.510	0.730
2020/01/31 19:31:01.0	25.660	0.410	-0.450	0.780
2020/01/31 19:31:01.1	25.640	0.370	-0.390	0.830
2020/01/31 19:31:01.2	25.620	0.330	-0.330	0.870
2020/01/31 19:31:01.3	25.600	0.290	-0.280	0.910
2020/01/31 19:31:01.4	25.580	0.250	-0.220	0.950
2020/01/31 19:31:01.5	25.560	0.210	-0.170	0.980
2020/01/31 19:31:01.6	25.550	0.170	-0.130	1.000
2020/01/31 19:31:01.7	25.530	0.130	-0.090	1.020
2020/01/31 19:31:01.8	25.520	0.090	-0.050	1.040
2020/01/31 19:31:01.9	25.520	0.050	-0.010	1.040
2020/01/31 19:31:02.0	25.510	0.010	0.020	1.050
2020/01/31 19:31:02.1	25.510	-0.030	0.040	1.050
2020/01/31 19:31:02.2	25.510	-0.060	0.060	1.040
2020/01/31 19:31:02.3	25.510	-0.090	0.080	1.020
2020/01/31 19:31:02.4	25.510	-0.120	0.090	1.010
2020/01/31 19:31:02.5	25.520	-0.150	0.100	0.980
2020/01/31 19:31:02.6	25.530	-0.170	0.100	0.950
2020/01/31 19:31:02.7	25.540	-0.200	0.100	0.920
2020/01/31 19:31:02.8	25.550	-0.220	0.100	0.890
2020/01/31 19:31:02.9	25.580	-0.240	0.100	0.840
2020/01/31 19:31:03.0	25.590	-0.260	0.090	0.800
2020/01/31 19:31:03.1	25.610	-0.270	0.080	0.760
2020/01/31 19:31:03.2	25.630	-0.290	0.080	0.720
2020/01/31 19:31:03.3	25.650	-0.300	0.070	0.670
2020/01/31 19:31:03.4	25.660	-0.310	0.060	0.620
2020/01/31 19:31:03.5	25.680	-0.320	0.060	0.580
2020/01/31 19:31:03.6	25.700	-0.320	0.060	0.530
2020/01/31 19:31:03.7	25.720	-0.330	0.060	0.490
2020/01/31 19:31:03.8	25.730	-0.330	0.060	0.440
2020/01/31 19:31:03.9	25.740	-0.330	0.060	0.400
2020/01/31 19:31:04.0	25.750	-0.340	0.070	0.360
2020/01/31 19:31:04.1	25.760	-0.340	0.080	0.320
2020/01/31 19:31:04.2	25.770	-0.340	0.090	0.290
2020/01/31 19:31:04.3	25.770	-0.330	0.110	0.250
2020/01/31 19:31:04.4	25.780	-0.330	0.120	0.230
2020/01/31 19:31:04.5	25.780	-0.330	0.140	0.200
2020/01/31 19:31:04.6	25.780	-0.320	0.170	0.170
2020/01/31 19:31:04.7	25.780	-0.320	0.190	0.150
2020/01/31 19:31:04.8	25.770	-0.310	0.220	0.130
2020/01/31 19:31:04.9	25.760	-0.300	0.250	0.110
2020/01/31 19:31:05.0	25.750	-0.290	0.280	0.100
2020/01/31 19:31:05.1	25.740	-0.280	0.300	0.090
2020/01/31 19:31:05.2	25.740	-0.270	0.330	0.080
2020/01/31 19:31:05.3	25.730	-0.260	0.360	0.070
2020/01/31 19:31:05.4	25.720	-0.250	0.380	0.060
2020/01/31 19:31:05.5	25.710	-0.240	0.410	0.060
2020/01/31 19:31:05.6	25.700	-0.230	0.430	0.060
2020/01/31 19:31:05.7	25.690	-0.210	0.440	0.050
2020/01/31 19:31:05.8	25.680	-0.200	0.460	0.050
2020/01/31 19:31:05.9	25.660	-0.180	0.460	0.060
2020/01/31 19:31:06.0	25.650	-0.170	0.470	0.060
2020/01/31 19:31:06.1	25.640	-0.150	0.470	0.070
2020/01/31 19:31:06.2	25.630	-0.130	0.460	0.080
2020/01/31 19:31:06.3	25.620	-0.120	0.450	0.080
2020/01/31 19:31:06.4	25.610	-0.100	0.440	0.090
2020/01/31 19:31:06.5	25.600	-0.080	0.420	0.110
2020/01/31 19:31:06.6	25.590	-0.060	0.390	0.120
2020/01/31 19:31:06.7	25.580	-0.040	0.360	0.130
2020/01/31 19:31:06.8	25.570	-0.020	0.330	0.150
2020/01/31 19:31:06.9	25.550	-0.010	0.290	0.170
2020/01/31 19:31:07.0	25.540	0.010	0.240	0.190
2020/01/31 19:31:07.1	25.530	0.030	0.190	0.200
2020/01/31 19:31:07.2	25.530	0.050	0.140	0.220
2020/01/31 19:31:07.3	25.520	0.060	0.080	0.240
2020/01/31 19:31:07.4	25.510	0.080	0.020	0.260
2020/01/31 19:31:07.5	25.510	0.090	-0.050	0.280
2020/01/31 19:31:07.6	25.500	0.100	-0.110	0.300
2020/01/31 19:31:07.7	25.500	0.110	-0.180	0.320
2020/01/31 19:31:07.8	25.500	0.120	-0.250	0.340
2020/01/31 19:31:07.9	25.490	0.130	-0.330	0.350
2020/01/31 19:31:08.0	25.500	0.130	-0.400	0.370
2020/01/31 19:31:08.1	25.500	0.140	-0.470	0.380
2020/01/31 19:31:08.2	25.500	0.140	-0.540	0.390
2020/01/31 19:31:08.3	25.510	0.140	-0.600	0.400
2020/01/31 19:31:08.4	25.510	0.130	-0.670	0.410
2020/01/31 19:31:08.5	25.520	0.130	-0.730	0.410
2020/01/31 19:31:08.6	25.530	0.120	-0.790	0.420
2020/01/31 19:31:08.7	25.540	0.110	-0.840	0.420
2020/01/31 19:31:08.8	25.550	0.100	-0.890	0.410
2020/01/31 19:31:08.9	25.560	0.080	-0.940	0.410
2020/01/31 19:31:09.0	25.580	0.060	-0.980	0.410
2020/01/31 19:31:09.1	25.590	0.050	-1.010	0.400
2020/01/31 19:31:09.2	25.610	0.030	-1.040	0.390
2020/01/31 19:31:09.3	25.630	0.010	-1.060	0.370
2020/01/31 19:31:09.4	25.640	-0.020	-1.070	0.360
2020/01/31 19:31:09.5	25.660	-0.040	-1.080	0.340
2020/01/31 19:31:09.6	25.680	-0.060	-1.070	0.320
2020/01/31 19:31:09.7	25.700	-0.090	-1.070	0.300
2020/01/31 19:31:09.8	25.720	-0.110	-1.050	0.280
2020/01/31 19:31:09.9	25.740	-0.130	-1.030	0.260
2020/01/31 19:31:10.0	25.760	-0.150	-1.000	0.230
2020/01/31 19:31:10.1	25.780	-0.180	-0.970	0.210
2020/01/31 19:31:10.2	25.800	-0.200	-0.920	0.190
2020/01/31 19:31:10.3	25.810	-0.220	-0.880	0.160
2020/01/31 19:31:10.4	25.830	-0.230	-0.830	0.140
2020/01/31 19:31:10.5	25.850	-0.250	-0.770	0.120
2020/01/31 19:31:10.6	25.860	-0.260	-0.710	0.100
2020/01/31 19:31:10.7	25.880	-0.270	-0.640	0.080
2020/01/31 19:31:10.8	25.890	-0.280	-0.570	0.060
2020/01/31 19:31:10.9	25.910	-0.280	-0.510	0.050
2020/01/31 19:31:11.0	25.920	-0.290	-0.430	0.030
2020/01/31 19:31:11.1	25.920	-0.280	-0.360	0.020
2020/01/31 19:31:11.2	25.930	-0.280	-0.290	0.010
2020/01/31 19:31:11.3	25.930	-0.270	-0.220	0.000
2020/01/31 19:31:11.4	25.940	-0.260	-0.140	-0.000
2020/01/31 19:31:11.5	25.940	-0.240	-0.080	-0.000
2020/01/31 19:31:11.6	25.940	-0.220	-0.010	-0.000
2020/01/31 19:31:11.7	25.930	-0.200	0.050	-0.000
2020/01/31 19:31:11.8	25.930	-0.170	0.110	0.010
2020/01/31 19:31:11.9	25.920	-0.150	0.160	0.010
2020/01/31 19:31:12.0	25.910	-0.110	0.210	0.020
2020/01/31 19:31:12.1	25.910	-0.080	0.250	0.040
2020/01/31 19:31:12.2	25.900	-0.040	0.290	0.060
2020/01/31 19:31:12.3	25.890	-0.000	0.310	0.080
2020/01/31 19:31:12.4	25.880	0.040	0.330	0.110
2020/01/31 19:31:12.5	25.870	0.080	0.350	0.130
2020/01/31 19:31:12.6	25.860	0.130	0.350	0.170
2020/01/31 19:31:12.7	25.840	0.170	0.350	0.200
2020/01/31 19:31:12.8	25.830	0.220	0.340	0.230
2020/01/31 19:31:12.9	25.820	0.260	0.320	0.270
2020/01/31 19:31:13.0	25.810	0.310	0.300	0.310
2020/01/31 19:31:13.1	25.790	0.350	0.270	0.350
2020/01/31 19:31:13.2	25.780	0.390	0.240	0.390
2020/01/31 19:31:13.3	25.770	0.430	0.200	0.430
2020/01/31 19:31:13.4	25.750	0.470	0.160	0.470
2020/01/31 19:31:13.5	25.740	0.500	0.120	0.520
2020/01/31 19:31:13.6	25.730	0.540	0.070	0.560
2020/01/31 19:31:13.7	25.710	0.560	0.020	0.600
2020/01/31 19:31:13.8	25.700	0.590	-0.040	0.630
2020/01/31 19:31:13.9	25.690	0.610	-0.090	0.670
2020/01/31 19:31:14.0	25.680	0.620	-0.150	0.700
2020/01/31 19:31:14.1	25.670	0.640	-0.200	0.730
2020/01/31 19:31:14.2	25.660	0.640	-0.250	0.760
2020/01/31 19:31:14.3	25.660	0.640	-0.310	0.780
2020/01/31 19:31:14.4	25.650	0.640	-0.360	0.800
2020/01/31 19:31:14.5	25.640	0.630	-0.400	0.820
2020/01/31 19:31:14.6	25.640	0.620	-0.450	0.830
2020/01/31 19:31:14.7	25.630	0.600	-0.480	0.840
2020/01/31 19:31:14.8	25.630	0.580	-0.520	0.850
2020/01/31 19:31:14.9	25.620	0.550	-0.550	0.850
2020/01/31 19:31:15.0	25.620	0.520	-0.570	0.840
2020/01/31 19:31:15.1	25.620	0.480	-0.590	0.830
2020/01/31 19:31:15.2	25.610	0.450	-0.610	0.820
2020/01/31 19:31:15.3	25.610	0.400	-0.610	0.810
2020/01/31 19:31:15.4	25.610	0.360	-0.620	0.790
2020/01/31 19:31:15.5	25.610	0.310	-0.610	0.770
2020/01/31 19:31:15.6	25.620	0.270	-0.600	0.740
2020/01/31 19:31:15.7	25.620	0.220	-0.590	0.710
2020/01/31 19:31:15.8	25.620	0.170	-0.570	0.680
2020/01/31 19:31:15.9	25.620	0.110	-0.550	0.640
2020/01/31 19:31:16.0	25.630	0.060	-0.520	0.600
2020/01/31 19:31:16.1	25.640	0.010	-0.490	0.560
2020/01/31 19:31:16.2	25.640	-0.040	-0.450	0.510
2020/01/31 19:31:16.3	25.650	-0.090	-0.410	0.470
2020/01/31 19:31:16.4	25.660	-0.130	-0.370	0.420
2020/01/31 19:31:16.5	25.670	-0.180	-0.320	0.370
2020/01/31 19:31:16.6	25.690	-0.220	-0.270	0.320
2020/01/31 19:31:16.7	25.700	-0.260	-0.220	0.270
2020/01/31 19:31:16.8	25.710	-0.300	-0.170	0.210
2020/01/31 19:31:16.9	25.730	-0.340	-0.130	0.160
2020/01/31 19:31:17.0	25.740	-0.370	-0.070	0.100
2020/01/31 19:31:17.1	25.750	-0.400	-0.030	0.050
2020/01/31 19:31:17.2	25.770	-0.420	0.020	0.000
2020/01/31 19:31:17.3	25.780	-0.440	0.070	-0.050
2020/01/31 19:31:17.4	25.790	-0.460	0.120	-0.090
2020/01/31 19:31:17.5	25.810	-0.470	0.160	-0.140
2020/01/31 19:31:17.6	25.820	-0.480	0.200	-0.180
2020/01/31 19:31:17.7	25.830	-0.490	0.230	-0.220
2020/01/31 19:31:17.8	25.850	-0.490	0.270	-0.260
2020/01/31 19:31:17.9	25.860	-0.490	0.300	-0.290
2020/01/31 19:31:18.0	25.870	-0.480	0.320	-0.320
2020/01/31 19:31:18.1	25.880	-0.470	0.350	-0.340
2020/01/31 19:31:18.2	25.890	-0.460	0.360	-0.370
2020/01/31 19:31:18.3	25.900	-0.440	0.380	-0.380
2020/01/31 19:31:18.4	25.910	-0.420	0.380	-0.400
2020/01/31 19:31:18.5	25.920	-0.400	0.390	-0.410
2020/01/31 19:31:18.6	25.930	-0.370	0.390	-0.410
2020/01/31 19:31:18.7	25.940	-0.350	0.380	-0.420
2020/01/31 19:31:18.8	25.950	-0.320	0.370	-0.420
2020/01/31 19:31:18.9	25.960	-0.290	0.350	-0.410
2020/01/31 19:31:19.0	25.970	-0.250	0.330	-0.410
2020/01/31 19:31:19.1	25.980	-0.220	0.300	-0.400
2020/01/31 19:31:19.2	25.980	-0.190	0.270	-0.390
2020/01/31 19:31:19.3	25.990	-0.150	0.240	-0.380
2020/01/31 19:31:19.4	26.000	-0.120	0.200	-0.370
2020/01/31 19:31:19.5	26.010	-0.090	0.160	-0.350
2020/01/31 19:31:19.6	26.010	-0.050	0.120	-0.330
2020/01/31 19:31:19.7	26.020	-0.020	0.070	-0.320
2020/01/31 19:31:19.8	26.030	0.010	0.020	-0.300
2020/01/31 19:31:19.9	26.030	0.040	-0.030	-0.270
2020/01/31 19:31:20.0	26.040	0.070	-0.080	-0.250
2020/01/31 19:31:20.1	26.040	0.090	-0.130	-0.230
2020/01/31 19:31:20.2	26.050	0.120	-0.170	-0.210
2020/01/31 19:31:20.3	26.050	0.140	-0.220	-0.180
2020/01/31 19:31:20.4	26.050	0.160	-0.270	-0.160
2020/01/31 19:31:20.5	26.050	0.170	-0.310	-0.130
2020/01/31 19:31:20.6	26.050	0.190	-0.350	-0.100
2020/01/31 19:31:20.7	26.050	0.200	-0.390	-0.070
2020/01/31 19:31:20.8	26.050	0.200	-0.420	-0.050
2020/01/31 19:31:20.9	26.050	0.210	-0.450	-0.010
2020/01/31 19:31:21.0	26.040	0.210	-0.470	0.020
2020/01/31 19:31:21.1	26.040	0.210	-0.490	0.050
2020/01/31 19:31:21.2	26.030	0.200	-0.510	0.080
2020/01/31 19:31:21.3	26.020	0.200	-0.520	0.110
2020/01/31 19:31:21.4	26.010	0.190	-0.520	0.150
2020/01/31 19:31:21.5	26.000	0.180	-0.520	0.180
2020/01/31 19:31:21.6	25.990	0.160	-0.510	0.210
2020/01/31 19:31:21.7	25.980	0.150	-0.500	0.250
2020/01/31 19:31:21.8	25.960	0.130	-0.480	0.290
2020/01/31 19:31:21.9	25.950	0.110	-0.470	0.320
2020/01/31 19:31:22.0	25.930	0.090	-0.440	0.360
2020/01/31 19:31:22.1	25.900	0.070	-0.410	0.400
2020/01/31 19:31:22.2	25.880	0.050	-0.380	0.440
2020/01/31 19:31:22.3	25.860	0.020	-0.340	0.480
2020/01/31 19:31:22.4	25.830	0.000	-0.300	0.520
2020/01/31 19:31:22.5	25.810	-0.020	-0.260	0.560
2020/01/31 19:31:22.6	25.780	-0.040	-0.210	0.610
2020/01/31 19:31:22.7	25.750	-0.070	-0.170	0.650
2020/01/31 19:31:22.8	25.720	-0.080	-0.130	0.690
2020/01/31 19:31:22.9	25.700	-0.100	-0.080	0.730
2020/01/31 19:31:23.0	25.670	-0.120	-0.040	0.780
2020/01/31 19:31:23.1	25.640	-0.130	-0.000	0.820
2020/01/31 19:31:23.2	25.610	-0.150	0.030	0.860
2020/01/31 19:31:23.3	25.570	-0.160	0.070	0.900
2020/01/31 19:31:23.4	25.540	-0.170	0.090	0.930
2020/01/31 19:31:23.5	25.510	-0.170	0.120	0.970
2020/01/31 19:31:23.6	25.480	-0.170	0.140	1.000
2020/01/31 19:31:23.7	25.460	-0.170	0.150	1.040
2020/01/31 19:31:23.8	25.430	-0.170	0.160	1.070
2020/01/31 19:31:23.9	25.410	-0.160	0.170	1.090
2020/01/31 19:31:24.0	25.380	-0.160	0.160	1.110
2020/01/31 19:31:24.1	25.360	-0.140	0.160	1.130
2020/01/31 19:31:24.2	25.340	-0.130	0.140	1.140
2020/01/31 19:31:24.3	25.320	-0.110	0.120	1.150
2020/01/31 19:31:24.4	25.310	-0.090	0.090	1.150
2020/01/31 19:31:24.5	25.300	-0.070	0.060	1.140
2020/01/31 19:31:24.6	25.290	-0.040	0.020	1.130
2020/01/31 19:31:24.7	25.290	-0.020	-0.020	1.120
2020/01/31 19:31:24.8	25.290	0.010	-0.070	1.090
2020/01/31 19:31:24.9	25.310	0.040	-0.120	1.060
2020/01/31 19:31:25.0	25.320	0.070	-0.170	1.020
2020/01/31 19:31:25.1	25.340	0.100	-0.230	0.980
2020/01/31 19:31:25.2	25.360	0.130	-0.300	0.920
2020/01/31 19:31:25.3	25.390	0.170	-0.360	0.870
2020/01/31 19:31:25.4	25.420	0.200	-0.430	0.800
2020/01/31 19:31:25.5	25.460	0.230	-0.490	0.730
2020/01/31 19:31:25.6	25.510	0.260	-0.560	0.660
2020/01/31 19:31:25.7	25.550	0.280	-0.620	0.570
2020/01/31 19:31:25.8	25.600	0.310	-0.680	0.490
2020/01/31 19:31:25.9	25.650	0.330	-0.740	0.400
2020/01/31 19:31:26.0	25.710	0.350	-0.800	0.310
2020/01/31 19:31:26.1	25.770	0.370	-0.850	0.220
2020/01/31 19:31:26.2	25.830	0.390	-0.890	0.120
2020/01/31 19:31:26.3	25.900	0.400	-0.930	0.030
2020/01/31 19:31:26.4	25.960	0.410	-0.960	-0.060
2020/01/31 19:31:26.5	26.030	0.410	-0.990	-0.150
2020/01/31 19:31:26.6	26.100	0.410	-1.010	-0.240
2020/01/31 19:31:26.7	26.160	0.410	-1.020	-0.330
2020/01/31 19:31:26.8	26.230	0.400	-1.020	-0.410
2020/01/31 19:31:26.9	26.290	0.390	-1.010	-0.500
2020/01/31 19:31:27.0	26.350	0.370	-0.990	-0.570
2020/01/31 19:31:27.1	26.410	0.350	-0.970	-0.640
2020/01/31 19:31:27.2	26.460	0.330	-0.940	-0.710
2020/01/31 19:31:27.3	26.510	0.300	-0.900	-0.760
2020/01/31 19:31:27.4	26.550	0.270	-0.850	-0.810
2020/01/31 19:31:27.5	26.590	0.230	-0.790	-0.850
2020/01/31 19:31:27.6	26.620	0.200	-0.730	-0.890
2020/01/31 19:31:27.7	26.650	0.150	-0.660	-0.920
2020/01/31 19:31:27.8	26.670	0.110	-0.580	-0.940
2020/01/31 19:31:27.9	26.680	0.060	-0.500	-0.950
2020/01/31 19:31:28.0	26.700	0.020	-0.420	-0.960
2020/01/31 19:31:28.1	26.700	-0.030	-0.330	-0.960
2020/01/31 19:31:28.2	26.700	-0.080	-0.250	-0.950
2020/01/31 19:31:28.3	26.690	-0.130	-0.160	-0.940
2020/01/31 19:31:28.4	26.680	-0.180	-0.070	-0.920
2020/01/31 19:31:28.5	26.670	-0.230	0.020	-0.890
2020/01/31 19:31:28.6	26.640	-0.280	0.110	-0.860
2020/01/31 19:31:28.7	26.620	-0.320	0.190	-0.820
2020/01/31 19:31:28.8	26.590	-0.370	0.280	-0.780
2020/01/31 19:31:28.9	26.560	-0.410	0.350	-0.740
2020/01/31 19:31:29.0	26.520	-0.450	0.420	-0.690
2020/01/31 19:31:29.1	26.480	-0.490	0.490	-0.630
2020/01/31 19:31:29.2	26.430	-0.520	0.560	-0.570
2020/01/31 19:31:29.3	26.380	-0.540	0.610	-0.510
2020/01/31 19:31:29.4	26.330	-0.570	0.660	-0.450
2020/01/31 19:31:29.5	26.280	-0.590	0.710	-0.390
2020/01/31 19:31:29.6	26.230	-0.600	0.750	-0.320
2020/01/31 19:31:29.7	26.180	-0.610	0.780	-0.250
2020/01/31 19:31:29.8	26.120	-0.610	0.800	-0.180
2020/01/31 19:31:29.9	26.060	-0.610	0.810	-0.110
2020/01/31 19:31:30.0	26.000	-0.600	0.820	-0.040
2020/01/31 19:31:30.1	25.950	-0.580	0.820	0.040
2020/01/31 19:31:30.2	25.900	-0.560	0.810	0.110
2020/01/31 19:31:30.3	25.850	-0.540	0.800	0.180
2020/01/31 19:31:30.4	25.790	-0.510	0.780	0.250
2020/01/31 19:31:30.5	25.750	-0.470	0.750	0.320
2020/01/31 19:31:30.6	25.700	-0.440	0.720	0.390
2020/01/31 19:31:30.7	25.660	-0.390	0.680	0.460
2020/01/31 19:31:30.8	25.620	-0.350	0.630	0.530
2020/01/31 19:31:30.9	25.580	-0.300	0.580	0.590
2020/01/31 19:31:31.0	25.540	-0.240	0.530	0.660
2020/01/31 19:31:31.1	25.510	-0.190	0.470	0.720
2020/01/31 19:31:31.2	25.480	-0.130	0.410	0.780
2020/01/31 19:31:31.3	25.460	-0.080	0.350	0.830
2020/01/31 19:31:31.4	25.440	-0.020	0.280	0.880
2020/01/31 19:31:31.5	25.420	0.040	0.220	0.930
2020/01/31 19:31:31.6	25.410	0.100	0.150	0.970
2020/01/31 19:31:31.7	25.400	0.150	0.080	1.010
2020/01/31 19:31:31.8	25.390	0.200	0.010	1.040
2020/01/31 19:31:31.9	25.390	0.250	-0.070	1.070
2020/01/31 19:31:32.0	25.390	0.300	-0.140	1.090
2020/01/31 19:31:32.1	25.400	0.350	-0.210	1.100
2020/01/31 19:31:32.2	25.420	0.380	-0.280	1.110
2020/01/31 19:31:32.3	25.430	0.420	-0.340	1.110
2020/01/31 19:31:32.4	25.450	0.450	-0.410	1.110
2020/01/31 19:31:32.5	25.470	0.480	-0.470	1.090
2020/01/31 19:31:32.6	25.500	0.500	-0.530	1.080
2020/01/31 19:31:32.7	25.530	0.510	-0.580	1.050
2020/01/31 19:31:32.8	25.560	0.520	-0.630	1.030
2020/01/31 19:31:32.9	25.600	0.520	-0.670	0.990
2020/01/31 19:31:33.0	25.630	0.520	-0.720	0.950
2020/01/31 19:31:33.1	25.660	0.510	-0.750	0.910
2020/01/31 19:31:33.2	25.700	0.500	-0.780	0.870
2020/01/31 19:31:33.3	25.730	0.480	-0.810	0.820
2020/01/31 19:31:33.4	25.770	0.450	-0.830	0.770
2020/01/31 19:31:33.5	25.800	0.420	-0.840	0.720
2020/01/31 19:31:33.6	25.830	0.390	-0.850	0.680
2020/01/31 19:31:33.7	25.860	0.350	-0.860	0.630
2020/01/31 19:31:33.8	25.890	0.310	-0.860	0.580
2020/01/31 19:31:33.9	25.920	0.260	-0.850	0.530
2020/01/31 19:31:34.0	25.940	0.210	-0.840	0.480
2020/01/31 19:31:34.1	25.960	0.160	-0.820	0.440
2020/01/31 19:31:34.2	25.980	0.110	-0.800	0.390
2020/01/31 19:31:34.3	26.000	0.050	-0.780	0.350
2020/01/31 19:31:34.4	26.020	-0.000	-0.750	0.310
2020/01/31 19:31:34.5	26.040	-0.060	-0.720	0.270
2020/01/31 19:31:34.6	26.050	-0.110	-0.680	0.230
2020/01/31 19:31:34.7	26.060	-0.160	-0.640	0.190
2020/01/31 19:31:34.8	26.070	-0.210	-0.610	0.150
2020/01/31 19:31:34.9	26.090	-0.260	-0.560	0.110
2020/01/31 19:31:35.0	26.100	-0.310	-0.520	0.080
2020/01/31 19:31:35.1	26.110	-0.350	-0.480	0.040
2020/01/31 19:31:35.2	26.120	-0.390	-0.440	0.000
2020/01/31 19:31:35.3	26.130	-0.420	-0.400	-0.030
2020/01/31 19:31:35.4	26.140	-0.450	-0.370	-0.070
2020/01/31 19:31:35.5	26.150	-0.470	-0.330	-0.100
2020/01/31 19:31:35.6	26.170	-0.490	-0.300	-0.140
2020/01/31 19:31:35.7	26.180	-0.500	-0.270	-0.180
2020/01/31 19:31:35.8	26.190	-0.510	-0.240	-0.210
2020/01/31 19:31:35.9	26.210	-0.510	-0.220	-0.250
2020/01/31 19:31:36.0	26.220	-0.500	-0.210	-0.290
2020/01/31 19:31:36.1	26.230	-0.480	-0.190	-0.320
2020/01/31 19:31:36.2	26.250	-0.460	-0.180	-0.350
2020/01/31 19:31:36.3	26.260	-0.440	-0.170	-0.380
2020/01/31 19:31:36.4	26.270	-0.400	-0.170	-0.410
2020/01/31 19:31:36.5	26.280	-0.370	-0.160	-0.430
2020/01/31 19:31:36.6	26.300	-0.320	-0.170	-0.460
2020/01/31 19:31:36.7	26.310	-0.270	-0.170	-0.480
2020/01/31 19:31:36.8	26.320	-0.220	-0.180	-0.490
2020/01/31 19:31:36.9	26.320	-0.170	-0.190	-0.510
2020/01/31 19:31:37.0	26.330	-0.110	-0.200	-0.520
2020/01/31 19:31:37.1	26.340	-0.050	-0.210	-0.520
2020/01/31 19:31:37.2	26.340	0.020	-0.220	-0.520
2020/01/31 19:31:37.3	26.350	0.080	-0.240	-0.520
2020/01/31 19:31:37.4	26.350	0.140	-0.250	-0.520
2020/01/31 19:31:37.5	26.360	0.210	-0.260	-0.510
2020/01/31 19:31:37.6	26.360	0.270	-0.270	-0.490
2020/01/31 19:31:37.7	26.360	0.330	-0.290	-0.470
2020/01/31 19:31:37.8	26.360	0.390	-0.300	-0.450
2020/01/31 19:31:37.9	26.340	0.450	-0.300	-0.420
2020/01/31 19:31:38.0	26.340	0.510	-0.310	-0.390
2020/01/31 19:31:38.1	26.330	0.560	-0.310	-0.350
2020/01/31 19:31:38.2	26.330	0.600	-0.310	-0.310
2020/01/31 19:31:38.3	26.320	0.650	-0.310	-0.270
2020/01/31 19:31:38.4	26.310	0.690	-0.310	-0.220
2020/01/31 19:31:38.5	26.310	0.720	-0.300	-0.170
2020/01/31 19:31:38.6	26.300	0.750	-0.290	-0.110
2020/01/31 19:31:38.7	26.290	0.770	-0.280	-0.060
2020/01/31 19:31:38.8	26.280	0.790	-0.260	0.010
2020/01/31 19:31:38.9	26.270	0.800	-0.250	0.070
2020/01/31 19:31:39.0	26.260	0.800	-0.220	0.140
2020/01/31 19:31:39.1	26.250	0.800	-0.200	0.210
2020/01/31 19:31:39.2	26.240	0.800	-0.170	0.270
2020/01/31 19:31:39.3	26.230	0.790	-0.130	0.350
2020/01/31 19:31:39.4	26.210	0.770	-0.100	0.420
2020/01/31 19:31:39.5	26.200	0.740	-0.060	0.490
2020/01/31 19:31:39.6	26.190	0.720	-0.020	0.560
2020/01/31 19:31:39.7	26.180	0.680	0.030	0.630
2020/01/31 19:31:39.8	26.170	0.640	0.070	0.710
2020/01/31 19:31:39.9	26.160	0.600	0.120	0.780
2020/01/31 19:31:40.0	26.150	0.550	0.160	0.840
2020/01/31 19:31:40.1	26.140	0.500	0.210	0.910
2020/01/31 19:31:40.2	26.130	0.450	0.250	0.980
2020/01/31 19:31:40.3	26.110	0.390	0.300	1.040
2020/01/31 19:31:40.4	26.100	0.340	0.340	1.100
2020/01/31 19:31:40.5	26.090	0.270	0.380	1.160
2020/01/31 19:31:40.6	26.080	0.210	0.420	1.220
2020/01/31 19:31:40.7	26.070	0.150	0.460	1.260
2020/01/31 19:31:40.8	26.060	0.080	0.490	1.310
2020/01/31 19:31:40.9	26.060	0.010	0.520	1.360
2020/01/31 19:31:41.0	26.050	-0.050	0.540	1.390
2020/01/31 19:31:41.1	26.050	-0.120	0.560	1.420
2020/01/31 19:31:41.2	26.040	-0.180	0.580	1.440
2020/01/31 19:31:41.3	26.040	-0.250	0.590	1.460
2020/01/31 19:31:41.4	26.040	-0.310	0.590	1.470
2020/01/31 19:31:41.5	26.040	-0.380	0.590	1.480
2020/01/31 19:31:41.6	26.040	-0.440	0.580	1.480
2020/01/31 19:31:41.7	26.040	-0.500	0.570	1.470
2020/01/31 19:31:41.8	26.050	-0.550	0.550	1.450
2020/01/31 19:31:41.9	26.060	-0.610	0.520	1.420
2020/01/31 19:31:42.0	26.060	-0.660	0.490	1.390
2020/01/31 19:31:42.1	26.070	-0.700	0.450	1.350
2020/01/31 19:31:42.2	26.080	-0.750	0.410	1.310
2020/01/31 19:31:42.3	26.090	-0.790	0.360	1.260
2020/01/31 19:31:42.4	26.110	-0.830	0.310	1.210
2020/01/31 19:31:42.5	26.120	-0.860	0.250	1.150
2020/01/31 19:31:42.6	26.140	-0.890	0.190	1.080
2020/01/31 19:31:42.7	26.160	-0.910	0.130	1.010
2020/01/31 19:31:42.8	26.170	-0.930	0.070	0.930
2020/01/31 19:31:42.9	26.180	-0.950	0.000	0.850
2020/01/31 19:31:43.0	26.200	-0.960	-0.070	0.770
2020/01/31 19:31:43.1	26.220	-0.960	-0.130	0.690
2020/01/31 19:31:43.2	26.240	-0.960	-0.200	0.600
2020/01/31 19:31:43.3	26.270	-0.960	-0.270	0.510
2020/01/31 19:31:43.4	26.290	-0.950	-0.340	0.420
2020/01/31 19:31:43.5	26.320	-0.940	-0.400	0.330
2020/01/31 19:31:43.6	26.340	-0.920	-0.460	0.250
2020/01/31 19:31:43.7	26.370	-0.900	-0.520	0.160
2020/01/31 19:31:43.8	26.390	-0.880	-0.570	0.070
2020/01/31 19:31:43.9	26.430	-0.850	-0.620	-0.020
2020/01/31 19:31:44.0	26.460	-0.810	-0.660	-0.100
2020/01/31 19:31:44.1	26.480	-0.770	-0.700	-0.170
2020/01/31 19:31:44.2	26.510	-0.730	-0.730	-0.240
2020/01/31 19:31:44.3	26.530	-0.680	-0.760	-0.310
2020/01/31 19:31:44.4	26.560	-0.630	-0.780	-0.380
2020/01/31 19:31:44.5	26.590	-0.580	-0.800	-0.430
2020/01/31 19:31:44.6	26.610	-0.520	-0.810	-0.490
2020/01/31 19:31:44.7	26.630	-0.460	-0.810	-0.540
2020/01/31 19:31:44.8	26.660	-0.400	-0.810	-0.580
2020/01/31 19:31:44.9	26.670	-0.340	-0.810	-0.620
2020/01/31 19:31:45.0	26.690	-0.270	-0.800	-0.650
2020/01/31 19:31:45.1	26.720	-0.200	-0.790	-0.670
2020/01/31 19:31:45.2	26.740	-0.130	-0.780	-0.690
2020/01/31 19:31:45.3	26.750	-0.070	-0.760	-0.700
2020/01/31 19:31:45.4	26.770	0.000	-0.740	-0.710
2020/01/31 19:31:45.5	26.790	0.070	-0.720	-0.710
2020/01/31 19:31:45.6	26.810	0.140	-0.700	-0.710
2020/01/31 19:31:45.7	26.830	0.210	-0.680	-0.700
2020/01/31 19:31:45.8	26.840	0.280	-0.660	-0.690
2020/01/31 19:31:45.9	26.850	0.340	-0.650	-0.670
2020/01/31 19:31:46.0	26.870	0.400	-0.630	-0.650
2020/01/31 19:31:46.1	26.880	0.460	-0.610	-0.630
2020/01/31 19:31:46.2	26.900	0.520	-0.600	-0.600
2020/01/31 19:31:46.3	26.910	0.580	-0.590	-0.570
2020/01/31 19:31:46.4	26.930	0.630	-0.580	-0.540
2020/01/31 19:31:46.5	26.940	0.680	-0.570	-0.500
2020/01/31 19:31:46.6	26.950	0.720	-0.570	-0.460
2020/01/31 19:31:46.7	26.960	0.760	-0.570	-0.420
2020/01/31 19:31:46.8	26.980	0.800	-0.560	-0.380
2020/01/31 19:31:46.9	26.990	0.830	-0.570	-0.330
2020/01/31 19:31:47.0	27.000	0.850	-0.570	-0.280
2020/01/31 19:31:47.1	27.010	0.870	-0.570	-0.240
2020/01/31 19:31:47.2	27.020	0.890	-0.570	-0.190
2020/01/31 19:31:47.3	27.020	0.890	-0.560	-0.140
2020/01/31 19:31:47.4	27.030	0.900	-0.560	-0.080
2020/01/31 19:31:47.5	27.030	0.900	-0.560	-0.030
2020/01/31 19:31:47.6	27.030	0.890	-0.550	0.030
2020/01/31 19:31:47.7	27.030	0.880	-0.540	0.080
2020/01/31 19:31:47.8	27.020	0.860	-0.520	0.140
2020/01/31 19:31:47.9	27.020	0.830	-0.510	0.200
2020/01/31 19:31:48.0	27.020	0.800	-0.480	0.250
2020/01/31 19:31:48.1	27.010	0.770	-0.450	0.310
2020/01/31 19:31:48.2	26.990	0.730	-0.420	0.370
2020/01/31 19:31:48.3	26.980	0.690	-0.380	0.430
2020/01/31 19:31:48.4	26.960	0.640	-0.340	0.490
2020/01/31 19:31:48.5	26.940	0.590	-0.290	0.550
2020/01/31 19:31:48.6	26.920	0.540	-0.240	0.600
2020/01/31 19:31:48.7	26.900	0.480	-0.180	0.660
2020/01/31 19:31:48.8	26.870	0.420	-0.120	0.710
2020/01/31 19:31:48.9	26.850	0.360	-0.050	0.770
2020/01/31 19:31:49.0	26.820	0.300	0.020	0.820
2020/01/31 19:31:49.1	26.790	0.230	0.090	0.870
2020/01/31 19:31:49.2	26.760	0.170	0.160	0.910
2020/01/31 19:31:49.3	26.730	0.100	0.230	0.960
2020/01/31 19:31:49.4	26.690	0.040	0.310	0.990
2020/01/31 19:31:49.5	26.660	-0.020	0.380	1.030
2020/01/31 19:31:49.6	26.630	-0.080	0.450	1.060
2020/01/31 19:31:49.7	26.600	-0.140	0.520	1.080
2020/01/31 19:31:49.8	26.560	-0.200	0.580	1.100
2020/01/31 19:31:49.9	26.530	-0.250	0.640	1.110
2020/01/31 19:31:50.0	26.500	-0.310	0.700	1.120
2020/01/31 19:31:50.1	26.480	-0.350	0.750	1.120
2020/01/31 19:31:50.2	26.450	-0.400	0.790	1.120
2020/01/31 19:31:50.3	26.430	-0.430	0.820	1.110
2020/01/31 19:31:50.4	26.410	-0.470	0.840	1.090
2020/01/31 19:31:50.5	26.400	-0.500	0.860	1.060
2020/01/31 19:31:50.6	26.380	-0.520	0.860	1.030
2020/01/31 19:31:50.7	26.370	-0.540	0.860	0.990
2020/01/31 19:31:50.8	26.370	-0.550	0.850	0.950
2020/01/31 19:31:50.9	26.360	-0.560	0.820	0.890
2020/01/31 19:31:51.0	26.360	-0.560	0.790	0.840
2020/01/31 19:31:51.1	26.370	-0.560	0.750	0.780
2020/01/31 19:31:51.2	26.370	-0.550	0.700	0.720
2020/01/31 19:31:51.3	26.380	-0.540	0.640	0.650
2020/01/31 19:31:51.4	26.400	-0.530	0.580	0.580
2020/01/31 19:31:51.5	26.410	-0.510	0.510	0.500
2020/01/31 19:31:51.6	26.430	-0.480	0.430	0.430
2020/01/31 19:31:51.7	26.450	-0.460	0.350	0.350
2020/01/31 19:31:51.8	26.470	-0.430	0.260	0.280
2020/01/31 19:31:51.9	26.480	-0.400	0.180	0.200
2020/01/31 19:31:52.0	26.500	-0.360	0.090	0.120
2020/01/31 19:31:52.1	26.530	-0.330	-0.000	0.050
2020/01/31 19:31:52.2	26.550	-0.290	-0.100	-0.020
2020/01/31 19:31:52.3	26.580	-0.260	-0.190	-0.100
2020/01/31 19:31:52.4	26.610	-0.220	-0.270	-0.170
2020/01/31 19:31:52.5	26.640	-0.180	-0.360	-0.230
2020/01/31 19:31:52.6	26.670	-0.150	-0.440	-0.300
2020/01/31 19:31:52.7	26.700	-0.110	-0.520	-0.360
2020/01/31 19:31:52.8	26.730	-0.080	-0.590	-0.420
2020/01/31 19:31:52.9	26.760	-0.040	-0.670	-0.480
2020/01/31 19:31:53.0	26.790	-0.010	-0.730	-0.540
2020/01/31 19:31:53.1	26.820	0.010	-0.780	-0.590
2020/01/31 19:31:53.2	26.850	0.040	-0.830	-0.640
2020/01/31 19:31:53.3	26.880	0.060	-0.880	-0.680
2020/01/31 19:31:53.4	26.910	0.080	-0.910	-0.730
2020/01/31 19:31:53.5	26.950	0.100	-0.940	-0.760
2020/01/31 19:31:53.6	26.980	0.120	-0.960	-0.800
2020/01/31 19:31:53.7	27.010	0.130	-0.980	-0.830
2020/01/31 19:31:53.8	27.040	0.140	-0.990	-0.860
2020/01/31 19:31:53.9	27.080	0.150	-0.990	-0.890
2020/01/31 19:31:54.0	27.110	0.150	-0.990	-0.910
2020/01/31 19:31:54.1	27.140	0.150	-0.980	-0.930
2020/01/31 19:31:54.2	27.170	0.150	-0.960	-0.950
2020/01/31 19:31:54.3	27.210	0.150	-0.940	-0.970
2020/01/31 19:31:54.4	27.240	0.150	-0.920	-0.980
2020/01/31 19:31:54.5	27.270	0.140	-0.890	-0.990
2020/01/31 19:31:54.6	27.300	0.130	-0.860	-0.990
2020/01/31 19:31:54.7	27.330	0.120	-0.830	-1.000
2020/01/31 19:31:54.8	27.360	0.110	-0.790	-1.000
2020/01/31 19:31:54.9	27.380	0.100	-0.760	-1.000
2020/01/31 19:31:55.0	27.410	0.090	-0.720	-1.000
2020/01/31 19:31:55.1	27.440	0.080	-0.680	-0.990
2020/01/31 19:31:55.2	27.460	0.070	-0.630	-0.980
2020/01/31 19:31:55.3	27.480	0.060	-0.590	-0.960
2020/01/31 19:31:55.4	27.510	0.050	-0.550	-0.950
2020/01/31 19:31:55.5	27.530	0.040	-0.500	-0.930
2020/01/31 19:31:55.6	27.540	0.030	-0.460	-0.900
2020/01/31 19:31:55.7	27.560	0.030	-0.420	-0.870
2020/01/31 19:31:55.8	27.570	0.020	-0.380	-0.840
2020/01/31 19:31:55.9	27.590	0.020	-0.330	-0.800
2020/01/31 19:31:56.0	27.600	0.020	-0.290	-0.760
2020/01/31 19:31:56.1	27.610	0.020	-0.250	-0.720
2020/01/31 19:31:56.2	27.610	0.020	-0.210	-0.670
2020/01/31 19:31:56.3	27.610	0.020	-0.170	-0.610
2020/01/31 19:31:56.4	27.610	0.030	-0.140	-0.550
2020/01/31 19:31:56.5	27.610	0.030	-0.100	-0.490
2020/01/31 19:31:56.6	27.600	0.040	-0.060	-0.420
2020/01/31 19:31:56.7	27.590	0.050	-0.030	-0.340
2020/01/31 19:31:56.8	27.580	0.060	0.010	-0.260
2020/01/31 19:31:56.9	27.560	0.080	0.030	-0.180
2020/01/31 19:31:57.0	27.540	0.090	0.060	-0.090
2020/01/31 19:31:57.1	27.520	0.110	0.090	-0.000
2020/01/31 19:31:57.2	27.490	0.120	0.120	0.090
2020/01/31 19:31:57.3	27.460	0.140	0.140	0.190
2020/01/31 19:31:57.4	27.430	0.160	0.170	0.290
2020/01/31 19:31:57.5	27.400	0.180	0.190	0.400
2020/01/31 19:31:57.6	27.360	0.200	0.210	0.510
2020/01/31 19:31:57.7	27.320	0.220	0.230	0.610
2020/01/31 19:31:57.8	27.280	0.240	0.240	0.720
2020/01/31 19:31:57.9	27.250	0.250	0.250	0.840
2020/01/31 19:31:58.0	27.210	0.270	0.260	0.940
2020/01/31 19:31:58.1	27.160	0.290	0.270	1.050
2020/01/31 19:31:58.2	27.120	0.300	0.280	1.150
2020/01/31 19:31:58.3	27.070	0.320	0.280	1.260
2020/01/31 19:31:58.4	27.030	0.330	0.280	1.360
2020/01/31 19:31:58.5	26.980	0.340	0.280	1.450
2020/01/31 19:31:58.6	26.940	0.350	0.280	1.540
2020/01/31 19:31:58.7	26.900	0.360	0.270	1.630
2020/01/31 19:31:58.8	26.860	0.360	0.270	1.700
2020/01/31 19:31:58.9	26.830	0.360	0.250	1.770
2020/01/31 19:31:59.0	26.800	0.360	0.240	1.840
2020/01/31 19:31:59.1	26.770	0.360	0.230	1.890
2020/01/31 19:31:59.2	26.740	0.360	0.210	1.940
2020/01/31 19:31:59.3	26.710	0.350	0.190	1.980
2020/01/31 19:31:59.4	26.690	0.340	0.170	2.010
2020/01/31 19:31:59.5	26.680	0.330	0.150	2.040
2020/01/31 19:31:59.6	26.670	0.320	0.130	2.050
2020/01/31 19:31:59.7	26.660	0.300	0.100	2.050
2020/01/31 19:31:59.8	26.660	0.280	0.070	2.040
2020/01/31 19:31:59.9	26.670	0.260	0.040	2.030
2020/01/31 19:32:00.0	26.680	0.240	0.010	2.000
2020/01/31 19:32:00.1	26.690	0.220	-0.020	1.970
2020/01/31 19:32:00.2	26.710	0.190	-0.050	1.920
2020/01/31 19:32:00.3	26.740	0.170	-0.090	1.870
2020/01/31 19:32:00.4	26.770	0.140	-0.120	1.810
2020/01/31 19:32:00.5	26.810	0.110	-0.150	1.740
2020/01/31 19:32:00.6	26.840	0.080	-0.190	1.660
2020/01/31 19:32:00.7	26.890	0.050	-0.220	1.580
2020/01/31 19:32:00.8	26.930	0.020	-0.250	1.490
2020/01/31 19:32:00.9	26.990	-0.010	-0.280	1.390
2020/01/31 19:32:01.0	27.040	-0.050	-0.310	1.300
2020/01/31 19:32:01.1	27.090	-0.080	-0.330	1.200
2020/01/31 19:32:01.2	27.150	-0.110	-0.350	1.100
2020/01/31 19:32:01.3	27.200	-0.150	-0.370	1.000
2020/01/31 19:32:01.4	27.260	-0.180	-0.380	0.890
2020/01/31 19:32:01.5	27.320	-0.210	-0.390	0.790
2020/01/31 19:32:01.6	27.370	-0.250	-0.400	0.690
2020/01/31 19:32:01.7	27.420	-0.280	-0.400	0.590
2020/01/31 19:32:01.8	27.480	-0.310	-0.400	0.490
2020/01/31 19:32:01.9	27.530	-0.340	-0.390	0.400
2020/01/31 19:32:02.0	27.580	-0.370	-0.390	0.310
2020/01/31 19:32:02.1	27.620	-0.400	-0.380	0.220
2020/01/31 19:32:02.2	27.670	-0.430	-0.360	0.130
2020/01/31 19:32:02.3	27.700	-0.450	-0.340	0.050
2020/01/31 19:32:02.4	27.740	-0.480	-0.330	-0.030
2020/01/31 19:32:02.5	27.770	-0.500	-0.300	-0.100
2020/01/31 19:32:02.6	27.790	-0.520	-0.280	-0.170
2020/01/31 19:32:02.7	27.820	-0.540	-0.250	-0.240
2020/01/31 19:32:02.8	27.840	-0.550	-0.230	-0.290
2020/01/31 19:32:02.9	27.850	-0.570	-0.200	-0.360
2020/01/31 19:32:03.0	27.860	-0.580	-0.170	-0.410
2020/01/31 19:32:03.1	27.870	-0.580	-0.140	-0.450
2020/01/31 19:32:03.2	27.870	-0.590	-0.110	-0.490
2020/01/31 19:32:03.3	27.880	-0.590	-0.080	-0.520
2020/01/31 19:32:03.4	27.880	-0.580	-0.060	-0.550
2020/01/31 19:32:03.5	27.870	-0.580	-0.030	-0.570
2020/01/31 19:32:03.6	27.870	-0.570	-0.010	-0.590
2020/01/31 19:32:03.7	27.860	-0.560	0.010	-0.600
2020/01/31 19:32:03.8	27.850	-0.540	0.030	-0.610
2020/01/31 19:32:03.9	27.840	-0.520	0.040	-0.620
2020/01/31 19:32:04.0	27.830	-0.500	0.050	-0.620
2020/01/31 19:32:04.1	27.820	-0.470	0.050	-0.610
2020/01/31 19:32:04.2	27.800	-0.440	0.060	-0.610
2020/01/31 19:32:04.3	27.790	-0.410	0.050	-0.600
2020/01/31 19:32:04.4	27.780	-0.380	0.050	-0.590
2020/01/31 19:32:04.5	27.760	-0.340	0.040	-0.580
2020/01/31 19:32:04.6	27.750	-0.300	0.020	-0.570
2020/01/31 19:32:04.7	27.740	-0.260	-0.000	-0.550
2020/01/31 19:32:04.8	27.720	-0.220	-0.030	-0.540
2020/01/31 19:32:04.9	27.720	-0.180	-0.060	-0.520
2020/01/31 19:32:05.0	27.710	-0.130	-0.090	-0.500
2020/01/31 19:32:05.1	27.700	-0.090	-0.130	-0.480
2020/01/31 19:32:05.2	27.690	-0.040	-0.170	-0.460
2020/01/31 19:32:05.3	27.680	0.010	-0.220	-0.440
2020/01/31 19:32:05.4	27.670	0.060	-0.260	-0.410
2020/01/31 19:32:05.5	27.670	0.100	-0.310	-0.390
2020/01/31 19:32:05.6	27.660	0.150	-0.360	-0.360
2020/01/31 19:32:05.7	27.660	0.190	-0.410	-0.340
2020/01/31 19:32:05.8	27.660	0.230	-0.470	-0.310
2020/01/31 19:32:05.9	27.650	0.280	-0.520	-0.280
2020/01/31 19:32:06.0	27.650	0.320	-0.570	-0.260
2020/01/31 19:32:06.1	27.650	0.350	-0.620	-0.230
2020/01/31 19:32:06.2	27.650	0.390	-0.660	-0.200
2020/01/31 19:32:06.3	27.650	0.420	-0.700	-0.170
2020/01/31 19:32:06.4	27.650	0.450	-0.740	-0.140
2020/01/31 19:32:06.5	27.650	0.470	-0.770	-0.110
2020/01/31 19:32:06.6	27.650	0.490	-0.800	-0.080
2020/01/31 19:32:06.7	27.650	0.510	-0.820	-0.050
2020/01/31 19:32:06.8	27.650	0.530	-0.830	-0.020
2020/01/31 19:32:06.9	27.640	0.540	-0.840	0.010
2020/01/31 19:32:07.0	27.640	0.550	-0.850	0.050
2020/01/31 19:32:07.1	27.640	0.550	-0.840	0.080
2020/01/31 19:32:07.2	27.640	0.550	-0.830	0.110
2020/01/31 19:32:07.3	27.630	0.550	-0.810	0.140
2020/01/31 19:32:07.4	27.630	0.540	-0.790	0.180
2020/01/31 19:32:07.5	27.630	0.530	-0.750	0.210
2020/01/31 19:32:07.6	27.620	0.510	-0.710	0.240
2020/01/31 19:32:07.7	27.620	0.490	-0.670	0.270
2020/01/31 19:32:07.8	27.610	0.470	-0.620	0.300
2020/01/31 19:32:07.9	27.610	0.450	-0.560	0.340
2020/01/31 19:32:08.0	27.610	0.420	-0.500	0.370
2020/01/31 19:32:08.1	27.600	0.390	-0.440	0.400
2020/01/31 19:32:08.2	27.580	0.360	-0.370	0.430
2020/01/31 19:32:08.3	27.570	0.330	-0.300	0.460
2020/01/31 19:32:08.4	27.560	0.290	-0.230	0.490
2020/01/31 19:32:08.5	27.540	0.260	-0.150	0.520
2020/01/31 19:32:08.6	27.530	0.220	-0.080	0.540
2020/01/31 19:32:08.7	27.520	0.180	-0.000	0.570
2020/01/31 19:32:08.8	27.500	0.140	0.070	0.600
2020/01/31 19:32:08.9	27.490	0.100	0.140	0.620
2020/01/31 19:32:09.0	27.470	0.070	0.200	0.640
2020/01/31 19:32:09.1	27.460	0.030	0.270	0.660
2020/01/31 19:32:09.2	27.440	-0.010	0.330	0.680
2020/01/31 19:32:09.3	27.430	-0.040	0.380	0.690
2020/01/31 19:32:09.4	27.420	-0.080	0.430	0.700
2020/01/31 19:32:09.5	27.410	-0.110	0.470	0.710
2020/01/31 19:32:09.6	27.400	-0.140	0.500	0.720
2020/01/31 19:32:09.7	27.390	-0.170	0.530	0.720
2020/01/31 19:32:09.8	27.390	-0.200	0.550	0.710
2020/01/31 19:32:09.9	27.390	-0.220	0.560	0.710
2020/01/31 19:32:10.0	27.390	-0.250	0.570	0.700
2020/01/31 19:32:10.1	27.390	-0.270	0.560	0.680
2020/01/31 19:32:10.2	27.400	-0.280	0.550	0.660
2020/01/31 19:32:10.3	27.400	-0.300	0.540	0.640
2020/01/31 19:32:10.4	27.420	-0.310	0.510	0.610
2020/01/31 19:32:10.5	27.430	-0.320	0.480	0.580
2020/01/31 19:32:10.6	27.450	-0.330	0.440	0.550
2020/01/31 19:32:10.7	27.470	-0.330	0.400	0.510
2020/01/31 19:32:10.8	27.490	-0.330	0.350	0.470
2020/01/31 19:32:10.9	27.510	-0.330	0.300	0.420
2020/01/31 19:32:11.0	27.530	-0.330	0.250	0.370
2020/01/31 19:32:11.1	27.560	-0.320	0.190	0.320
2020/01/31 19:32:11.2	27.590	-0.320	0.130	0.280
2020/01/31 19:32:11.3	27.630	-0.310	0.070	0.230
2020/01/31 19:32:11.4	27.660	-0.300	0.010	0.170
2020/01/31 19:32:11.5	27.700	-0.280	-0.050	0.120
2020/01/31 19:32:11.6	27.730	-0.270	-0.110	0.070
2020/01/31 19:32:11.7	27.770	-0.250	-0.170	0.020
2020/01/31 19:32:11.8	27.810	-0.240	-0.220	-0.020
2020/01/31 19:32:11.9	27.830	-0.220	-0.270	-0.070
2020/01/31 19:32:12.0	27.870	-0.200	-0.320	-0.110
2020/01/31 19:32:12.1	27.910	-0.180	-0.360	-0.150
2020/01/31 19:32:12.2	27.950	-0.160	-0.400	-0.190
2020/01/31 19:32:12.3	27.980	-0.130	-0.430	-0.220
2020/01/31 19:32:12.4	28.010	-0.110	-0.450	-0.250
2020/01/31 19:32:12.5	28.050	-0.090	-0.470	-0.270
2020/01/31 19:32:12.6	28.080	-0.070	-0.480	-0.290
2020/01/31 19:32:12.7	28.110	-0.050	-0.490	-0.310
2020/01/31 19:32:12.8	28.130	-0.020	-0.500	-0.320
2020/01/31 19:32:12.9	28.150	-0.000	-0.500	-0.330
2020/01/31 19:32:13.0	28.180	0.020	-0.490	-0.330
2020/01/31 19:32:13.1	28.190	0.040	-0.480	-0.330
2020/01/31 19:32:13.2	28.210	0.060	-0.460	-0.320
2020/01/31 19:32:13.3	28.220	0.090	-0.440	-0.310
2020/01/31 19:32:13.4	28.240	0.110	-0.420	-0.290
2020/01/31 19:32:13.5	28.240	0.130	-0.390	-0.270
2020/01/31 19:32:13.6	28.250	0.150	-0.370	-0.240
2020/01/31 19:32:13.7	28.250	0.170	-0.340	-0.210
2020/01/31 19:32:13.8	28.260	0.190	-0.320	-0.180
2020/01/31 19:32:13.9	28.250	0.200	-0.290	-0.140
2020/01/31 19:32:14.0	28.250	0.220	-0.260	-0.100
2020/01/31 19:32:14.1	28.250	0.240	-0.240	-0.050
2020/01/31 19:32:14.2	28.240	0.260	-0.210	-0.010
2020/01/31 19:32:14.3	28.240	0.270	-0.190	0.040
2020/01/31 19:32:14.4	28.230	0.290	-0.170	0.090
2020/01/31 19:32:14.5	28.220	0.300	-0.160	0.150
2020/01/31 19:32:14.6	28.210	0.320	-0.140	0.200
2020/01/31 19:32:14.7	28.190	0.330	-0.140	0.250
2020/01/31 19:32:14.8	28.180	0.340	-0.130	0.310
2020/01/31 19:32:14.9	28.180	0.350	-0.130	0.370
2020/01/31 19:32:15.0	28.160	0.360	-0.130	0.420
2020/01/31 19:32:15.1	28.140	0.370	-0.140	0.480
2020/01/31 19:32:15.2	28.120	0.370	-0.140	0.530
2020/01/31 19:32:15.3	28.110	0.380	-0.150	0.580
2020/01/31 19:32:15.4	28.080	0.380	-0.160	0.630
2020/01/31 19:32:15.5	28.060	0.380	-0.180	0.670
2020/01/31 19:32:15.6	28.040	0.380	-0.190	0.720
2020/01/31 19:32:15.7	28.020	0.370	-0.210	0.760
2020/01/31 19:32:15.8	27.990	0.360	-0.220	0.800
2020/01/31 19:32:15.9	27.970	0.350	-0.240	0.830
2020/01/31 19:32:16.0	27.950	0.340	-0.260	0.870
2020/01/31 19:32:16.1	27.920	0.320	-0.270	0.890
2020/01/31 19:32:16.2	27.900	0.310	-0.290	0.920
2020/01/31 19:32:16.3	27.870	0.280	-0.300	0.930
2020/01/31 19:32:16.4	27.850	0.260	-0.310	0.950
2020/01/31 19:32:16.5	27.820	0.230	-0.330	0.960
2020/01/31 19:32:16.6	27.800	0.200	-0.340	0.960
2020/01/31 19:32:16.7	27.780	0.170	-0.340	0.960
2020/01/31 19:32:16.8	27.760	0.140	-0.350	0.960
2020/01/31 19:32:16.9	27.740	0.100	-0.350	0.950
2020/01/31 19:32:17.0	27.720	0.060	-0.350	0.940
2020/01/31 19:32:17.1	27.710	0.020	-0.350	0.920
2020/01/31 19:32:17.2	27.700	-0.020	-0.350	0.890
2020/01/31 19:32:17.3	27.690	-0.060	-0.340	0.870
2020/01/31 19:32:17.4	27.680	-0.100	-0.340	0.840
2020/01/31 19:32:17.5	27.680	-0.150	-0.330	0.800
2020/01/31 19:32:17.6	27.680	-0.190	-0.310	0.760
2020/01/31 19:32:17.7	27.680	-0.230	-0.300	0.710
2020/01/31 19:32:17.8	27.690	-0.270	-0.290	0.670
2020/01/31 19:32:17.9	27.700	-0.310	-0.270	0.610
2020/01/31 19:32:18.0	27.720	-0.340	-0.250	0.560
2020/01/31 19:32:18.1	27.730	-0.380	-0.240	0.500
2020/01/31 19:32:18.2	27.750	-0.410	-0.220	0.440
2020/01/31 19:32:18.3	27.770	-0.440	-0.200	0.370
2020/01/31 19:32:18.4	27.800	-0.460	-0.180	0.310
2020/01/31 19:32:18.5	27.820	-0.480	-0.170	0.240
2020/01/31 19:32:18.6	27.850	-0.500	-0.150	0.170
2020/01/31 19:32:18.7	27.880	-0.520	-0.130	0.100
2020/01/31 19:32:18.8	27.910	-0.530	-0.120	0.030
2020/01/31 19:32:18.9	27.940	-0.530	-0.100	-0.040
2020/01/31 19:32:19.0	27.970	-0.530	-0.090	-0.110
2020/01/31 19:32:19.1	28.010	-0.530	-0.070	-0.180
2020/01/31 19:32:19.2	28.040	-0.520	-0.060	-0.250
2020/01/31 19:32:19.3	28.080	-0.510	-0.050	-0.310
2020/01/31 19:32:19.4	28.120	-0.490	-0.040	-0.370
2020/01/31 19:32:19.5	28.160	-0.470	-0.030	-0.430
2020/01/31 19:32:19.6	28.190	-0.450	-0.020	-0.490
2020/01/31 19:32:19.7	28.230	-0.420	-0.010	-0.540
2020/01/31 19:32:19.8	28.270	-0.390	-0.010	-0.590
2020/01/31 19:32:19.9	28.310	-0.350	-0.000	-0.630
2020/01/31 19:32:20.0	28.340	-0.310	0.000	-0.670
2020/01/31 19:32:20.1	28.370	-0.270	0.010	-0.710
2020/01/31 19:32:20.2	28.410	-0.230	0.010	-0.740
2020/01/31 19:32:20.3	28.430	-0.180	0.010	-0.760
2020/01/31 19:32:20.4	28.460	-0.140	0.010	-0.780
2020/01/31 19:32:20.5	28.490	-0.090	0.010	-0.790
2020/01/31 19:32:20.6	28.510	-0.040	0.010	-0.800
2020/01/31 19:32:20.7	28.530	0.000	0.010	-0.800
2020/01/31 19:32:20.8	28.540	0.050	0.010	-0.800
2020/01/31 19:32:20.9	28.550	0.100	-0.000	-0.780
2020/01/31 19:32:21.0	28.560	0.140	-0.000	-0.770
2020/01/31 19:32:21.1	28.570	0.180	-0.010	-0.750
2020/01/31 19:32:21.2	28.570	0.220	-0.010	-0.720
2020/01/31 19:32:21.3	28.570	0.260	-0.020	-0.690
2020/01/31 19:32:21.4	28.570	0.300	-0.020	-0.650
2020/01/31 19:32:21.5	28.560	0.330	-0.030	-0.610
2020/01/31 19:32:21.6	28.550	0.350	-0.040	-0.570
2020/01/31 19:32:21.7	28.540	0.370	-0.040	-0.520
2020/01/31 19:32:21.8	28.520	0.390	-0.050	-0.470
2020/01/31 19:32:21.9	28.490	0.410	-0.060	-0.410
2020/01/31 19:32:22.0	28.470	0.410	-0.060	-0.360
2020/01/31 19:32:22.1	28.450	0.420	-0.070	-0.300
2020/01/31 19:32:22.2	28.420	0.420	-0.070	-0.240
2020/01/31 19:32:22.3	28.390	0.410	-0.080	-0.180
2020/01/31 19:32:22.4	28.370	0.400	-0.080	-0.120
2020/01/31 19:32:22.5	28.340	0.390	-0.090	-0.060
2020/01/31 19:32:22.6	28.300	0.370	-0.090	0.000
2020/01/31 19:32:22.7	28.270	0.350	-0.100	0.060
2020/01/31 19:32:22.8	28.240	0.320	-0.100	0.120
2020/01/31 19:32:22.9	28.210	0.290	-0.110	0.180
2020/01/31 19:32:23.0	28.180	0.260	-0.110	0.240
2020/01/31 19:32:23.1	28.150	0.220	-0.110	0.290
2020/01/31 19:32:23.2	28.120	0.180	-0.110	0.350
2020/01/31 19:32:23.3	28.090	0.140	-0.120	0.400
2020/01/31 19:32:23.4	28.060	0.100	-0.120	0.450
2020/01/31 19:32:23.5	28.030	0.060	-0.120	0.490
2020/01/31 19:32:23.6	28.010	0.020	-0.120	0.540
2020/01/31 19:32:23.7	27.990	-0.020	-0.130	0.580
2020/01/31 19:32:23.8	27.970	-0.070	-0.130	0.610
2020/01/31 19:32:23.9	27.950	-0.110	-0.130	0.640
2020/01/31 19:32:24.0	27.940	-0.150	-0.140	0.670
2020/01/31 19:32:24.1	27.930	-0.190	-0.140	0.700
2020/01/31 19:32:24.2	27.920	-0.220	-0.150	0.720
2020/01/31 19:32:24.3	27.920	-0.260	-0.160	0.730
2020/01/31 19:32:24.4	27.910	-0.290	-0.170	0.740
2020/01/31 19:32:24.5	27.920	-0.310	-0.180	0.750
2020/01/31 19:32:24.6	27.930	-0.340	-0.200	0.750
2020/01/31 19:32:24.7	27.940	-0.360	-0.210	0.740
2020/01/31 19:32:24.8	27.950	-0.380	-0.230	0.730
2020/01/31 19:32:24.9	27.970	-0.390	-0.250	0.710
2020/01/31 19:32:25.0	27.980	-0.400	-0.260	0.690
2020/01/31 19:32:25.1	28.010	-0.400	-0.280	0.670
2020/01/31 19:32:25.2	28.030	-0.410	-0.300	0.650
2020/01/31 19:32:25.3	28.060	-0.400	-0.320	0.620
2020/01/31 19:32:25.4	28.080	-0.400	-0.330	0.580
2020/01/31 19:32:25.5	28.110	-0.390	-0.350	0.550
2020/01/31 19:32:25.6	28.140	-0.370	-0.360	0.510
2020/01/31 19:32:25.7	28.170	-0.360	-0.380	0.480
2020/01/31 19:32:25.8	28.200	-0.340	-0.390	0.440
2020/01/31 19:32:25.9	28.230	-0.320	-0.400	0.400
2020/01/31 19:32:26.0	28.260	-0.290	-0.410	0.370
2020/01/31 19:32:26.1	28.290	-0.260	-0.420	0.330
2020/01/31 19:32:26.2	28.320	-0.230	-0.430	0.290
2020/01/31 19:32:26.3	28.340	-0.200	-0.430	0.260
2020/01/31 19:32:26.4	28.370	-0.170	-0.430	0.230
2020/01/31 19:32:26.5	28.390	-0.130	-0.430	0.200
2020/01/31 19:32:26.6	28.410	-0.100	-0.430	0.170
2020/01/31 19:32:26.7	28.430	-0.060	-0.430	0.150
2020/01/31 19:32:26.8	28.440	-0.020	-0.430	0.120
2020/01/31 19:32:26.9	28.460	0.010	-0.430	0.100
2020/01/31 19:32:27.0	28.470	0.050	-0.420	0.080
2020/01/31 19:32:27.1	28.480	0.080	-0.420	0.060
2020/01/31 19:32:27.2	28.480	0.120	-0.410	0.050
2020/01/31 19:32:27.3	28.490	0.150	-0.400	0.040
2020/01/31 19:32:27.4	28.490	0.180	-0.390	0.030
2020/01/31 19:32:27.5	28.490	0.210	-0.380	0.020
2020/01/31 19:32:27.6	28.490	0.230	-0.370	0.020
2020/01/31 19:32:27.7	28.490	0.260	-0.360	0.010
2020/01/31 19:32:27.8	28.490	0.280	-0.350	0.010
2020/01/31 19:32:27.9	28.480	0.300	-0.340	0.010
2020/01/31 19:32:28.0	28.470	0.310	-0.330	0.010
2020/01/31 19:32:28.1	28.460	0.320	-0.320	0.010
2020/01/31 19:32:28.2	28.460	0.330	-0.310	0.010
2020/01/31 19:32:28.3	28.450	0.340	-0.300	0.020
2020/01/31 19:32:28.4	28.440	0.340	-0.300	0.020
2020/01/31 19:32:28.5	28.430	0.340	-0.290	0.020
2020/01/31 19:32:28.6	28.430	0.340	-0.280	0.020
2020/01/31 19:32:28.7	28.420	0.330	-0.270	0.020
2020/01/31 19:32:28.8	28.420	0.320	-0.260	0.020
2020/01/31 19:32:28.9	28.400	0.310	-0.260	0.020
2020/01/31 19:32:29.0	28.400	0.290	-0.250	0.020
2020/01/31 19:32:29.1	28.400	0.270	-0.240	0.020
2020/01/31 19:32:29.2	28.400	0.260	-0.220	0.020
2020/01/31 19:32:29.3	28.400	0.230	-0.210	0.020
2020/01/31 19:32:29.4	28.400	0.210	-0.200	0.020
2020/01/31 19:32:29.5	28.410	0.190	-0.190	0.020
2020/01/31 19:32:29.6	28.420	0.160	-0.170	0.010
2020/01/31 19:32:29.7	28.420	0.130	-0.160	0.010
2020/01/31 19:32:29.8	28.430	0.110	-0.140	0.010
2020/01/31 19:32:29.9	28.450	0.080	-0.120	0.000
2020/01/31 19:32:30.0	28.460	0.050	-0.100	0.000
2020/01/31 19:32:30.1	28.470	0.030	-0.080	-0.000
2020/01/31 19:32:30.2	28.480	0.000	-0.060	-0.000
2020/01/31 19:32:30.3	28.490	-0.020	-0.030	-0.000
2020/01/31 19:32:30.4	28.500	-0.050	-0.010	-0.000
2020/01/31 19:32:30.5	28.510	-0.070	0.020	-0.000
2020/01/31 19:32:30.6	28.520	-0.090	0.050	-0.000
2020/01/31 19:32:30.7	28.520	-0.110	0.080	0.000
2020/01/31 19:32:30.8	28.530	-0.130	0.110	0.010
2020/01/31 19:32:30.9	28.540	-0.150	0.130	0.020
2020/01/31 19:32:31.0	28.550	-0.160	0.160	0.020
2020/01/31 19:32:31.1	28.550	-0.180	0.190	0.040
2020/01/31 19:32:31.2	28.550	-0.190	0.220	0.050
2020/01/31 19:32:31.3	28.550	-0.190	0.250	0.060
2020/01/31 19:32:31.4	28.540	-0.200	0.280	0.080
2020/01/31 19:32:31.5	28.540	-0.210	0.300	0.090
2020/01/31 19:32:31.6	28.530	-0.210	0.320	0.110
2020/01/31 19:32:31.7	28.520	-0.210	0.340	0.130
2020/01/31 19:32:31.8	28.510	-0.210	0.360	0.150
2020/01/31 19:32:31.9	28.500	-0.210	0.370	0.170
2020/01/31 19:32:32.0	28.480	-0.200	0.380	0.190
2020/01/31 19:32:32.1	28.460	-0.200	0.390	0.210
2020/01/31 19:32:32.2	28.450	-0.190	0.390	0.230
2020/01/31 19:32:32.3	28.430	-0.190	0.390	0.250
2020/01/31 19:32:32.4	28.410	-0.180	0.380	0.270
2020/01/31 19:32:32.5	28.390	-0.170	0.370	0.290
2020/01/31 19:32:32.6	28.360	-0.170	0.350	0.310
2020/01/31 19:32:32.7	28.340	-0.160	0.330	0.320
2020/01/31 19:32:32.8	28.320	-0.150	0.310	0.330
2020/01/31 19:32:32.9	28.310	-0.140	0.280	0.340
2020/01/31 19:32:33.0	28.290	-0.130	0.250	0.350
2020/01/31 19:32:33.1	28.270	-0.120	0.210	0.360
2020/01/31 19:32:33.2	28.250	-0.120	0.170	0.360
2020/01/31 19:32:33.3	28.230	-0.110	0.130	0.360
2020/01/31 19:32:33.4	28.220	-0.100	0.080	0.350
2020/01/31 19:32:33.5	28.200	-0.090	0.030	0.340
2020/01/31 19:32:33.6	28.190	-0.080	-0.020	0.330
2020/01/31 19:32:33.7	28.190	-0.080	-0.080	0.310
2020/01/31 19:32:33.8	28.180	-0.070	-0.140	0.290
2020/01/31 19:32:33.9	28.170	-0.060	-0.200	0.270
2020/01/31 19:32:34.0	28.180	-0.060	-0.260	0.240
2020/01/31 19:32:34.1	28.180	-0.050	-0.330	0.220
2020/01/31 19:32:34.2	28.190	-0.040	-0.390	0.180
2020/01/31 19:32:34.3	28.200	-0.040	-0.450	0.150
2020/01/31 19:32:34.4	28.210	-0.030	-0.520	0.110
2020/01/31 19:32:34.5	28.230	-0.020	-0.580	0.070
2020/01/31 19:32:34.6	28.240	-0.020	-0.640	0.030
2020/01/31 19:32:34.7	28.260	-0.010	-0.700	-0.010
2020/01/31 19:32:34.8	28.290	-0.000	-0.760	-0.050
2020/01/31 19:32:34.9	28.310	0.000	-0.810	-0.090
2020/01/31 19:32:35.0	28.340	0.010	-0.870	-0.130
2020/01/31 19:32:35.1	28.370	0.020	-0.910	-0.170
2020/01/31 19:32:35.2	28.400	0.030	-0.950	-0.210
2020/01/31 19:32:35.3	28.430	0.040	-0.990	-0.250
2020/01/31 19:32:35.4	28.460	0.050	-1.020	-0.290
2020/01/31 19:32:35.5	28.490	0.060	-1.050	-0.320
2020/01/31 19:32:35.6	28.520	0.070	-1.070	-0.350
2020/01/31 19:32:35.7	28.550	0.080	-1.080	-0.380
2020/01/31 19:32:35.8	28.590	0.090	-1.080	-0.410
2020/01/31 19:32:35.9	28.610	0.100	-1.080	-0.440
2020/01/31 19:32:36.0	28.640	0.110	-1.070	-0.460
2020/01/31 19:32:36.1	28.670	0.120	-1.050	-0.470
2020/01/31 19:32:36.2	28.700	0.130	-1.020	-0.490
2020/01/31 19:32:36.3	28.730	0.140	-0.980	-0.490
2020/01/31 19:32:36.4	28.760	0.150	-0.940	-0.500
2020/01/31 19:32:36.5	28.790	0.160	-0.890	-0.500
2020/01/31 19:32:36.6	28.810	0.170	-0.830	-0.490
2020/01/31 19:32:36.7	28.830	0.180	-0.760	-0.480
2020/01/31 19:32:36.8	28.850	0.190	-0.690	-0.470
2020/01/31 19:32:36.9	28.870	0.200	-0.610	-0.440
2020/01/31 19:32:37.0	28.880	0.210	-0.530	-0.420
2020/01/31 19:32:37.1	28.880	0.220	-0.440	-0.390
2020/01/31 19:32:37.2	28.890	0.230	-0.340	-0.350
2020/01/31 19:32:37.3	28.890	0.240	-0.250	-0.310
2020/01/31 19:32:37.4	28.880	0.240	-0.150	-0.260
2020/01/31 19:32:37.5	28.870	0.250	-0.050	-0.210
2020/01/31 19:32:37.6	28.860	0.250	0.060	-0.150
2020/01/31 19:32:37.7	28.840	0.260	0.160	-0.090
2020/01/31 19:32:37.8	28.820	0.260	0.250	-0.030
2020/01/31 19:32:37.9	28.800	0.260	0.350	0.030
2020/01/31 19:32:38.0	28.770	0.260	0.440	0.100
2020/01/31 19:32:38.1	28.740	0.260	0.520	0.170
2020/01/31 19:32:38.2	28.710	0.260	0.600	0.240
2020/01/31 19:32:38.3	28.670	0.260	0.670	0.310
2020/01/31 19:32:38.4	28.630	0.260	0.730	0.380
2020/01/31 19:32:38.5	28.600	0.250	0.790	0.450
2020/01/31 19:32:38.6	28.560	0.240	0.830	0.520
2020/01/31 19:32:38.7	28.520	0.240	0.860	0.580
2020/01/31 19:32:38.8	28.480	0.230	0.880	0.640
2020/01/31 19:32:38.9	28.440	0.210	0.890	0.700
2020/01/31 19:32:39.0	28.400	0.200	0.890	0.750
2020/01/31 19:32:39.1	28.370	0.190	0.880	0.790
2020/01/31 19:32:39.2	28.340	0.170	0.850	0.830
2020/01/31 19:32:39.3	28.310	0.150	0.820	0.870
2020/01/31 19:32:39.4	28.280	0.140	0.770	0.900
2020/01/31 19:32:39.5	28.260	0.120	0.720	0.920
2020/01/31 19:32:39.6	28.240	0.100	0.650	0.930
2020/01/31 19:32:39.7	28.230	0.070	0.570	0.940
2020/01/31 19:32:39.8	28.220	0.050	0.490	0.940
2020/01/31 19:32:39.9	28.230	0.030	0.390	0.940
2020/01/31 19:32:40.0	28.220	0.000	0.290	0.920
2020/01/31 19:32:40.1	28.230	-0.020	0.190	0.900
2020/01/31 19:32:40.2	28.240	-0.050	0.080	0.880
2020/01/31 19:32:40.3	28.250	-0.070	-0.030	0.850
2020/01/31 19:32:40.4	28.270	-0.100	-0.150	0.810
2020/01/31 19:32:40.5	28.290	-0.130	-0.260	0.770
2020/01/31 19:32:40.6	28.320	-0.150	-0.380	0.720
2020/01/31 19:32:40.7	28.350	-0.180	-0.490	0.660
2020/01/31 19:32:40.8	28.390	-0.210	-0.600	0.600
2020/01/31 19:32:40.9	28.430	-0.230	-0.710	0.540
2020/01/31 19:32:41.0	28.470	-0.260	-0.810	0.470
2020/01/31 19:32:41.1	28.520	-0.290	-0.900	0.400
2020/01/31 19:32:41.2	28.560	-0.310	-0.990	0.330
2020/01/31 19:32:41.3	28.620	-0.340	-1.060	0.260
2020/01/31 19:32:41.4	28.670	-0.360	-1.130	0.180
2020/01/31 19:32:41.5	28.730	-0.390	-1.190	0.100
2020/01/31 19:32:41.6	28.780	-0.410	-1.240	0.030
2020/01/31 19:32:41.7	28.840	-0.430	-1.270	-0.050
2020/01/31 19:32:41.8	28.900	-0.450	-1.290	-0.130
2020/01/31 19:32:41.9	28.950	-0.470	-1.300	-0.210
2020/01/31 19:32:42.0	29.000	-0.480	-1.300	-0.280
2020/01/31 19:32:42.1	29.060	-0.500	-1.290	-0.350
2020/01/31 19:32:42.2	29.110	-0.510	-1.270	-0.420
2020/01/31 19:32:42.3	29.160	-0.530	-1.230	-0.490
2020/01/31 19:32:42.4	29.210	-0.540	-1.180	-0.550
2020/01/31 19:32:42.5	29.260	-0.550	-1.120	-0.610
2020/01/31 19:32:42.6	29.300	-0.550	-1.050	-0.660
2020/01/31 19:32:42.7	29.340	-0.560	-0.970	-0.710
2020/01/31 19:32:42.8	29.370	-0.560	-0.890	-0.750
2020/01/31 19:32:42.9	29.390	-0.560	-0.790	-0.790
2020/01/31 19:32:43.0	29.410	-0.550	-0.690	-0.810
2020/01/31 19:32:43.1	29.430	-0.550	-0.580	-0.830
2020/01/31 19:32:43.2	29.440	-0.540	-0.470	-0.840
2020/01/31 19:32:43.3	29.450	-0.530	-0.350	-0.840
2020/01/31 19:32:43.4	29.450	-0.510	-0.230	-0.840
2020/01/31 19:32:43.5	29.450	-0.500	-0.110	-0.820
2020/01/31 19:32:43.6	29.440	-0.480	0.000	-0.800
2020/01/31 19:32:43.7	29.430	-0.460	0.120	-0.770
2020/01/31 19:32:43.8	29.410	-0.430	0.230	-0.740
2020/01/31 19:32:43.9	29.380	-0.400	0.340	-0.690
2020/01/31 19:32:44.0	29.350	-0.380	0.450	-0.640
2020/01/31 19:32:44.1	29.320	-0.340	0.550	-0.590
2020/01/31 19:32:44.2	29.280	-0.310	0.640	-0.520
2020/01/31 19:32:44.3	29.240	-0.280	0.720	-0.460
2020/01/31 19:32:44.4	29.190	-0.240	0.800	-0.380
2020/01/31 19:32:44.5	29.140	-0.200	0.870	-0.300
2020/01/31 19:32:44.6	29.090	-0.160	0.920	-0.220
2020/01/31 19:32:44.7	29.040	-0.120	0.970	-0.130
2020/01/31 19:32:44.8	28.980	-0.070	1.010	-0.040
2020/01/31 19:32:44.9	28.940	-0.030	1.030	0.050
2020/01/31 19:32:45.0	28.880	0.010	1.040	0.140
2020/01/31 19:32:45.1	28.820	0.060	1.040	0.240
2020/01/31 19:32:45.2	28.760	0.110	1.040	0.330
2020/01/31 19:32:45.3	28.700	0.150	1.020	0.430
2020/01/31 19:32:45.4	28.640	0.200	0.990	0.520
2020/01/31 19:32:45.5	28.590	0.240	0.950	0.610
2020/01/31 19:32:45.6	28.540	0.290	0.890	0.700
2020/01/31 19:32:45.7	28.490	0.330	0.830	0.790
2020/01/31 19:32:45.8	28.440	0.380	0.760	0.870
2020/01/31 19:32:45.9	28.400	0.420	0.670	0.960
2020/01/31 19:32:46.0	28.360	0.460	0.580	1.030
2020/01/31 19:32:46.1	28.330	0.500	0.480	1.100
2020/01/31 19:32:46.2	28.300	0.540	0.370	1.160
2020/01/31 19:32:46.3	28.280	0.580	0.260	1.210
2020/01/31 19:32:46.4	28.270	0.610	0.130	1.260
2020/01/31 19:32:46.5	28.260	0.640	0.010	1.300
2020/01/31 19:32:46.6	28.260	0.670	-0.120	1.330
2020/01/31 19:32:46.7	28.260	0.700	-0.260	1.350
2020/01/31 19:32:46.8	28.270	0.720	-0.390	1.370
2020/01/31 19:32:46.9	28.290	0.740	-0.530	1.380
2020/01/31 19:32:47.0	28.310	0.760	-0.660	1.380
2020/01/31 19:32:47.1	28.340	0.770	-0.800	1.380
2020/01/31 19:32:47.2	28.370	0.780	-0.920	1.360
2020/01/31 19:32:47.3	28.410	0.780	-1.040	1.340
2020/01/31 19:32:47.4	28.450	0.780	-1.160	1.320
2020/01/31 19:32:47.5	28.490	0.780	-1.270	1.290
2020/01/31 19:32:47.6	28.540	0.770	-1.360	1.250
2020/01/31 19:32:47.7	28.590	0.760	-1.450	1.210
2020/01/31 19:32:47.8	28.640	0.740	-1.530	1.160
2020/01/31 19:32:47.9	28.680	0.720	-1.590	1.110
2020/01/31 19:32:48.0	28.740	0.700	-1.650	1.050
2020/01/31 19:32:48.1	28.790	0.670	-1.690	0.990
2020/01/31 19:32:48.2	28.840	0.630	-1.710	0.940
2020/01/31 19:32:48.3	28.890	0.600	-1.720	0.870
2020/01/31 19:32:48.4	28.940	0.560	-1.720	0.810
2020/01/31 19:32:48.5	28.990	0.510	-1.700	0.750
2020/01/31 19:32:48.6	29.030	0.460	-1.670	0.690
2020/01/31 19:32:48.7	29.070	0.410	-1.630	0.620
2020/01/31 19:32:48.8	29.110	0.360	-1.570	0.560
2020/01/31 19:32:48.9	29.140	0.310	-1.500	0.500
2020/01/31 19:32:49.0	29.160	0.250	-1.420	0.440
2020/01/31 19:32:49.1	29.180	0.200	-1.330	0.380
2020/01/31 19:32:49.2	29.200	0.140	-1.230	0.330
2020/01/31 19:32:49.3	29.200	0.080	-1.120	0.270
2020/01/31 19:32:49.4	29.210	0.020	-1.000	0.220
2020/01/31 19:32:49.5	29.200	-0.040	-0.880	0.180
2020/01/31 19:32:49.6	29.190	-0.090	-0.750	0.130
2020/01/31 19:32:49.7	29.180	-0.150	-0.620	0.090
2020/01/31 19:32:49.8	29.150	-0.200	-0.480	0.050
2020/01/31 19:32:49.9	29.130	-0.250	-0.350	0.010
2020/01/31 19:32:50.0	29.100	-0.310	-0.210	-0.020
2020/01/31 19:32:50.1	29.060	-0.350	-0.080	-0.050
2020/01/31 19:32:50.2	29.020	-0.400	0.050	-0.080
2020/01/31 19:32:50.3	28.980	-0.440	0.180	-0.100
2020/01/31 19:32:50.4	28.930	-0.480	0.300	-0.130
2020/01/31 19:32:50.5	28.880	-0.510	0.410	-0.150
2020/01/31 19:32:50.6	28.830	-0.540	0.520	-0.160
2020/01/31 19:32:50.7	28.770	-0.570	0.610	-0.180
2020/01/31 19:32:50.8	28.720	-0.590	0.700	-0.190
2020/01/31 19:32:50.9	28.670	-0.610	0.780	-0.210
2020/01/31 19:32:51.0	28.610	-0.620	0.850	-0.220
2020/01/31 19:32:51.1	28.550	-0.630	0.900	-0.230
2020/01/31 19:32:51.2	28.500	-0.630	0.950	-0.240
2020/01/31 19:32:51.3	28.450	-0.630	0.980	-0.250
2020/01/31 19:32:51.4	28.400	-0.620	1.010	-0.260
2020/01/31 19:32:51.5	28.350	-0.610	1.020	-0.270
2020/01/31 19:32:51.6	28.300	-0.600	1.020	-0.270
2020/01/31 19:32:51.7	28.260	-0.590	1.010	-0.270
2020/01/31 19:32:51.8	28.210	-0.570	0.990	-0.280
2020/01/31 19:32:51.9	28.170	-0.540	0.970	-0.280
2020/01/31 19:32:52.0	28.130	-0.520	0.930	-0.280
2020/01/31 19:32:52.1	28.100	-0.490	0.880	-0.290
2020/01/31 19:32:52.2	28.070	-0.460	0.830	-0.290
2020/01/31 19:32:52.3	28.050	-0.420	0.760	-0.290
2020/01/31 19:32:52.4	28.030	-0.390	0.700	-0.300
2020/01/31 19:32:52.5	28.020	-0.360	0.630	-0.300
2020/01/31 19:32:52.6	28.000	-0.320	0.550	-0.310
2020/01/31 19:32:52.7	28.000	-0.280	0.470	-0.320
2020/01/31 19:32:52.8	27.990	-0.250	0.390	-0.320
2020/01/31 19:32:52.9	27.990	-0.210	0.310	-0.330
2020/01/31 19:32:53.0	28.000	-0.180	0.230	-0.340
2020/01/31 19:32:53.1	28.010	-0.140	0.150	-0.350
2020/01/31 19:32:53.2	28.020	-0.110	0.070	-0.370
2020/01/31 19:32:53.3	28.030	-0.080	-0.000	-0.380
2020/01/31 19:32:53.4	28.050	-0.050	-0.070	-0.390
2020/01/31 19:32:53.5	28.070	-0.020	-0.140	-0.410
2020/01/31 19:32:53.6	28.100	0.010	-0.200	-0.420
2020/01/31 19:32:53.7	28.120	0.030	-0.260	-0.440
2020/01/31 19:32:53.8	28.150	0.060	-0.310	-0.450
2020/01/31 19:32:53.9	28.170	0.080	-0.350	-0.470
2020/01/31 19:32:54.0	28.200	0.100	-0.390	-0.480
2020/01/31 19:32:54.1	28.230	0.110	-0.410	-0.490
2020/01/31 19:32:54.2	28.250	0.130	-0.440	-0.500
2020/01/31 19:32:54.3	28.280	0.140	-0.450	-0.500
2020/01/31 19:32:54.4	28.300	0.150	-0.460	-0.500
2020/01/31 19:32:54.5	28.320	0.160	-0.460	-0.500
2020/01/31 19:32:54.6	28.340	0.160	-0.450	-0.490
2020/01/31 19:32:54.7	28.360	0.170	-0.440	-0.480
2020/01/31 19:32:54.8	28.370	0.170	-0.420	-0.460
2020/01/31 19:32:54.9	28.380	0.170	-0.400	-0.440
2020/01/31 19:32:55.0	28.390	0.170	-0.370	-0.410
2020/01/31 19:32:55.1	28.390	0.170	-0.340	-0.380
2020/01/31 19:32:55.2	28.390	0.170	-0.310	-0.340
2020/01/31 19:32:55.3	28.390	0.160	-0.270	-0.300
2020/01/31 19:32:55.4	28.380	0.160	-0.230	-0.250
2020/01/31 19:32:55.5	28.370	0.150	-0.200	-0.200
2020/01/31 19:32:55.6	28.360	0.150	-0.160	-0.140
2020/01/31 19:32:55.7	28.350	0.140	-0.130	-0.090
2020/01/31 19:32:55.8	28.330	0.140	-0.090	-0.030
2020/01/31 19:32:55.9	28.310	0.130	-0.070	0.040
2020/01/31 19:32:56.0	28.290	0.120	-0.040	0.100
2020/01/31 19:32:56.1	28.270	0.120	-0.020	0.160
2020/01/31 19:32:56.2	28.250	0.110	-0.010	0.220
2020/01/31 19:32:56.3	28.230	0.100	0.000	0.290
2020/01/31 19:32:56.4	28.210	0.100	0.010	0.350
2020/01/31 19:32:56.5	28.190	0.090	0.010	0.410
2020/01/31 19:32:56.6	28.170	0.090	0.000	0.470
2020/01/31 19:32:56.7	28.150	0.080	-0.010	0.520
2020/01/31 19:32:56.8	28.130	0.070	-0.030	0.570
2020/01/31 19:32:56.9	28.110	0.070	-0.050	0.620
2020/01/31 19:32:57.0	28.100	0.060	-0.080	0.660
2020/01/31 19:32:57.1	28.090	0.060	-0.110	0.700
2020/01/31 19:32:57.2	28.080	0.060	-0.150	0.730
2020/01/31 19:32:57.3	28.070	0.050	-0.190	0.760
2020/01/31 19:32:57.4	28.060	0.050	-0.230	0.790
2020/01/31 19:32:57.5	28.050	0.040	-0.280	0.810
2020/01/31 19:32:57.6	28.050	0.040	-0.330	0.820
2020/01/31 19:32:57.7	28.050	0.030	-0.370	0.830
2020/01/31 19:32:57.8	28.050	0.030	-0.420	0.830
2020/01/31 19:32:57.9	28.050	0.020	-0.470	0.830
2020/01/31 19:32:58.0	28.050	0.020	-0.520	0.830
2020/01/31 19:32:58.1	28.050	0.010	-0.560	0.820
2020/01/31 19:32:58.2	28.060	0.000	-0.600	0.800
2020/01/31 19:32:58.3	28.070	-0.000	-0.640	0.780
2020/01/31 19:32:58.4	28.070	-0.010	-0.680	0.760
2020/01/31 19:32:58.5	28.080	-0.020	-0.710	0.730
2020/01/31 19:32:58.6	28.090	-0.030	-0.730	0.700
2020/01/31 19:32:58.7	28.100	-0.040	-0.750	0.670
2020/01/31 19:32:58.8	28.110	-0.050	-0.770	0.630
2020/01/31 19:32:58.9	28.140	-0.070	-0.770	0.590
2020/01/31 19:32:59.0	28.150	-0.080	-0.780	0.550
2020/01/31 19:32:59.1	28.160	-0.090	-0.770	0.510
2020/01/31 19:32:59.2	28.170	-0.100	-0.770	0.460
2020/01/31 19:32:59.3	28.180	-0.110	-0.760	0.420
2020/01/31 19:32:59.4	28.190	-0.120	-0.740	0.370
2020/01/31 19:32:59.5	28.200	-0.140	-0.720	0.330
2020/01/31 19:32:59.6	28.210	-0.150	-0.690	0.280
2020/01/31 19:32:59.7	28.220	-0.160	-0.660	0.240
2020/01/31 19:32:59.8	28.230	-0.170	-0.630	0.200
2020/01/31 19:32:59.9	28.240	-0.170	-0.590	0.150
2020/01/31 19:33:00.0	28.250	-0.180	-0.550	0.110
2020/01/31 19:33:00.1	28.250	-0.190	-0.510	0.070
2020/01/31 19:33:00.2	28.260	-0.190	-0.460	0.040
2020/01/31 19:33:00.3	28.270	-0.190	-0.420	0.000
2020/01/31 19:33:00.4	28.280	-0.190	-0.370	-0.030
2020/01/31 19:33:00.5	28.280	-0.190	-0.330	-0.060
2020/01/31 19:33:00.6	28.290	-0.190	-0.280	-0.090
2020/01/31 19:33:00.7	28.300	-0.180	-0.240	-0.110
2020/01/31 19:33:00.8	28.300	-0.170	-0.190	-0.130
2020/01/31 19:33:00.9	28.300	-0.160	-0.160	-0.160
2020/01/31 19:33:01.0	28.310	-0.140	-0.120	-0.170
2020/01/31 19:33:01.1	28.310	-0.130	-0.080	-0.180
2020/01/31 19:33:01.2	28.320	-0.110	-0.050	-0.190
2020/01/31 19:33:01.3	28.320	-0.090	-0.020	-0.200
2020/01/31 19:33:01.4	28.330	-0.060	0.010	-0.200
2020/01/31 19:33:01.5	28.330	-0.040	0.030	-0.200
2020/01/31 19:33:01.6	28.340	-0.010	0.050	-0.200
2020/01/31 19:33:01.7	28.340	0.020	0.070	-0.190
2020/01/31 19:33:01.8	28.340	0.050	0.080	-0.180
2020/01/31 19:33:01.9	28.350	0.080	0.090	-0.170
2020/01/31 19:33:02.0	28.350	0.120	0.100	-0.150
2020/01/31 19:33:02.1	28.350	0.150	0.100	-0.130
2020/01/31 19:33:02.2	28.350	0.190	0.110	-0.100
2020/01/31 19:33:02.3	28.350	0.220	0.110	-0.080
2020/01/31 19:33:02.4	28.350	0.260	0.100	-0.050
2020/01/31 19:33:02.5	28.350	0.290	0.100	-0.020
2020/01/31 19:33:02.6	28.350	0.330	0.090	0.020
2020/01/31 19:33:02.7	28.340	0.360	0.080	0.050
2020/01/31 19:33:02.8	28.340	0.390	0.070	0.090
2020/01/31 19:33:02.9	28.330	0.420	0.060	0.120
2020/01/31 19:33:03.0	28.330	0.440	0.050	0.160
2020/01/31 19:33:03.1	28.330	0.470	0.040	0.190
2020/01/31 19:33:03.2	28.330	0.490	0.030	0.230
2020/01/31 19:33:03.3	28.330	0.500	0.020	0.260
2020/01/31 19:33:03.4	28.340	0.520	0.010	0.300
2020/01/31 19:33:03.5	28.340	0.520	-0.000	0.330
2020/01/31 19:33:03.6	28.350	0.530	-0.010	0.360
2020/01/31 19:33:03.7	28.360	0.530	-0.020	0.380
2020/01/31 19:33:03.8	28.370	0.520	-0.030	0.410
2020/01/31 19:33:03.9	28.380	0.510	-0.040	0.430
2020/01/31 19:33:04.0	28.390	0.500	-0.040	0.450
2020/01/31 19:33:04.1	28.400	0.480	-0.040	0.460
2020/01/31 19:33:04.2	28.420	0.450	-0.040	0.480
2020/01/31 19:33:04.3	28.430	0.420	-0.040	0.490
2020/01/31 19:33:04.4	28.450	0.390	-0.040	0.490
2020/01/31 19:33:04.5	28.460	0.350	-0.040	0.500
2020/01/31 19:33:04.6	28.480	0.310	-0.030	0.500
2020/01/31 19:33:04.7	28.490	0.270	-0.020	0.500
2020/01/31 19:33:04.8	28.510	0.220	-0.020	0.490
2020/01/31 19:33:04.9	28.530	0.160	-0.010	0.490
2020/01/31 19:33:05.0	28.540	0.110	0.000	0.480
2020/01/31 19:33:05.1	28.550	0.050	0.020	0.470
2020/01/31 19:33:05.2	28.560	-0.010	0.030	0.460
2020/01/31 19:33:05.3	28.570	-0.070	0.040	0.450
2020/01/31 19:33:05.4	28.570	-0.130	0.060	0.440
2020/01/31 19:33:05.5	28.580	-0.190	0.070	0.420
2020/01/31 19:33:05.6	28.580	-0.250	0.090	0.410
2020/01/31 19:33:05.7	28.580	-0.310	0.100	0.390
2020/01/31 19:33:05.8	28.580	-0.370	0.120	0.380
2020/01/31 19:33:05.9	28.570	-0.430	0.130	0.360
2020/01/31 19:33:06.0	28.570	-0.480	0.140	0.340
2020/01/31 19:33:06.1	28.570	-0.530	0.160	0.320
2020/01/31 19:33:06.2	28.560	-0.580	0.170	0.310
2020/01/31 19:33:06.3	28.550	-0.620	0.180	0.290
2020/01/31 19:33:06.4	28.550	-0.660	0.180	0.270
2020/01/31 19:33:06.5	28.540	-0.690	0.190	0.250
2020/01/31 19:33:06.6	28.530	-0.720	0.190	0.230
2020/01/31 19:33:06.7	28.530	-0.750	0.190	0.210
2020/01/31 19:33:06.8	28.520	-0.760	0.190	0.190
2020/01/31 19:33:06.9	28.510	-0.770	0.180	0.160
2020/01/31 19:33:07.0	28.510	-0.780	0.170	0.130
2020/01/31 19:33:07.1	28.510	-0.780	0.160	0.110
2020/01/31 19:33:07.2	28.510	-0.770	0.140	0.080
2020/01/31 19:33:07.3	28.510	-0.750	0.120	0.050
2020/01/31 19:33:07.4	28.510	-0.730	0.090	0.030
2020/01/31 19:33:07.5	28.510	-0.710	0.060	-0.000
2020/01/31 19:33:07.6	28.520	-0.670	0.020	-0.030
2020/01/31 19:33:07.7	28.520	-0.630	-0.020	-0.060
2020/01/31 19:33:07.8	28.530	-0.590	-0.060	-0.080
2020/01/31 19:33:07.9	28.540	-0.540	-0.110	-0.110
2020/01/31 19:33:08.0	28.550	-0.480	-0.160	-0.130
2020/01/31 19:33:08.1	28.560	-0.430	-0.210	-0.160
2020/01/31 19:33:08.2	28.560	-0.370	-0.260	-0.180
2020/01/31 19:33:08.3	28.570	-0.310	-0.310	-0.200
2020/01/31 19:33:08.4	28.580	-0.240	-0.360	-0.220
2020/01/31 19:33:08.5	28.580	-0.180	-0.410	-0.240
2020/01/31 19:33:08.6	28.590	-0.110	-0.460	-0.260
2020/01/31 19:33:08.7	28.590	-0.050	-0.510	-0.270
2020/01/31 19:33:08.8	28.590	0.010	-0.550	-0.280
2020/01/31 19:33:08.9	28.580	0.070	-0.590	-0.300
2020/01/31 19:33:09.0	28.580	0.130	-0.630	-0.310
2020/01/31 19:33:09.1	28.580	0.180	-0.660	-0.310
2020/01/31 19:33:09.2	28.580	0.230	-0.690	-0.320
2020/01/31 19:33:09.3	28.580	0.280	-0.710	-0.330
2020/01/31 19:33:09.4	28.580	0.320	-0.730	-0.330
2020/01/31 19:33:09.5	28.570	0.350	-0.730	-0.330
2020/01/31 19:33:09.6	28.570	0.380	-0.740	-0.330
2020/01/31 19:33:09.7	28.560	0.410	-0.740	-0.330
2020/01/31 19:33:09.8	28.560	0.430	-0.730	-0.330
2020/01/31 19:33:09.9	28.550	0.440	-0.710	-0.320
2020/01/31 19:33:10.0	28.540	0.450	-0.690	-0.310
2020/01/31 19:33:10.1	28.530	0.450	-0.660	-0.300
2020/01/31 19:33:10.2	28.530	0.450	-0.630	-0.290
2020/01/31 19:33:10.3	28.520	0.440	-0.590	-0.280
2020/01/31 19:33:10.4	28.510	0.420	-0.550	-0.270
2020/01/31 19:33:10.5	28.510	0.400	-0.500	-0.250
2020/01/31 19:33:10.6	28.500	0.380	-0.450	-0.240
2020/01/31 19:33:10.7	28.500	0.350	-0.400	-0.220
2020/01/31 19:33:10.8	28.500	0.320	-0.350	-0.210
2020/01/31 19:33:10.9	28.490	0.290	-0.290	-0.190
2020/01/31 19:33:11.0	28.490	0.260	-0.230	-0.180
2020/01/31 19:33:11.1	28.490	0.220	-0.180	-0.160
2020/01/31 19:33:11.2	28.490	0.180	-0.120	-0.150
2020/01/31 19:33:11.3	28.490	0.140	-0.070	-0.130
2020/01/31 19:33:11.4	28.490	0.110	-0.020	-0.120
2020/01/31 19:33:11.5	28.500	0.070	0.030	-0.100
2020/01/31 19:33:11.6	28.500	0.030	0.070	-0.090
2020/01/31 19:33:11.7	28.500	-0.010	0.120	-0.080
2020/01/31 19:33:11.8	28.510	-0.040	0.150	-0.070
2020/01/31 19:33:11.9	28.520	-0.070	0.180	-0.060
2020/01/31 19:33:12.0	28.530	-0.100	0.200	-0.050
2020/01/31 19:33:12.1	28.530	-0.120	0.220	-0.040
2020/01/31 19:33:12.2	28.540	-0.140	0.240	-0.030
2020/01/31 19:33:12.3	28.540	-0.160	0.240	-0.020
2020/01/31 19:33:12.4	28.550	-0.180	0.240	-0.010
2020/01/31 19:33:12.5	28.550	-0.180	0.230	-0.010
2020/01/31 19:33:12.6	28.560	-0.190	0.220	0.000
2020/01/31 19:33:12.7	28.560	-0.190	0.200	0.010
2020/01/31 19:33:12.8	28.570	-0.180	0.170	0.010
2020/01/31 19:33:12.9	28.580	-0.170	0.140	0.020
2020/01/31 19:33:13.0	28.580	-0.160	0.100	0.020
2020/01/31 19:33:13.1	28.590	-0.140	0.050	0.020
2020/01/31 19:33:13.2	28.600	-0.120	0.000	0.020
2020/01/31 19:33:13.3	28.610	-0.090	-0.050	0.020
2020/01/31 19:33:13.4	28.620	-0.070	-0.110	0.020
2020/01/31 19:33:13.5	28.630	-0.040	-0.170	0.020
2020/01/31 19:33:13.6	28.640	-0.000	-0.230	0.020
2020/01/31 19:33:13.7	28.660	0.030	-0.290	0.010
2020/01/31 19:33:13.8	28.670	0.070	-0.360	0.000
2020/01/31 19:33:13.9	28.690	0.100	-0.430	-0.000
2020/01/31 19:33:14.0	28.710	0.140	-0.490	-0.010
2020/01/31 19:33:14.1	28.730	0.170	-0.550	-0.020
2020/01/31 19:33:14.2	28.760	0.210	-0.610	-0.040
2020/01/31 19:33:14.3	28.780	0.240	-0.670	-0.050
2020/01/31 19:33:14.4	28.810	0.270	-0.720	-0.060
2020/01/31 19:33:14.5	28.830	0.300	-0.760	-0.080
2020/01/31 19:33:14.6	28.860	0.330	-0.800	-0.090
2020/01/31 19:33:14.7	28.890	0.350	-0.840	-0.100
2020/01/31 19:33:14.8	28.920	0.370	-0.860	-0.120
2020/01/31 19:33:14.9	28.950	0.390	-0.890	-0.130
2020/01/31 19:33:15.0	28.980	0.400	-0.900	-0.140
2020/01/31 19:33:15.1	29.010	0.400	-0.900	-0.150
2020/01/31 19:33:15.2	29.040	0.410	-0.890	-0.150
2020/01/31 19:33:15.3	29.070	0.410	-0.880	-0.160
2020/01/31 19:33:15.4	29.090	0.400	-0.850	-0.160
2020/01/31 19:33:15.5	29.110	0.390	-0.820	-0.160
2020/01/31 19:33:15.6	29.130	0.380	-0.780	-0.150
2020/01/31 19:33:15.7	29.150	0.360	-0.730	-0.140
2020/01/31 19:33:15.8	29.170	0.330	-0.670	-0.130
2020/01/31 19:33:15.9	29.180	0.310	-0.600	-0.120
2020/01/31 19:33:16.0	29.180	0.280	-0.530	-0.100
2020/01/31 19:33:16.1	29.190	0.240	-0.450	-0.080
2020/01/31 19:33:16.2	29.180	0.200	-0.360	-0.060
2020/01/31 19:33:16.3	29.180	0.160	-0.260	-0.030
2020/01/31 19:33:16.4	29.160	0.120	-0.170	0.010
2020/01/31 19:33:16.5	29.150	0.080	-0.070	0.040
2020/01/31 19:33:16.6	29.130	0.030	0.040	0.080
2020/01/31 19:33:16.7	29.100	-0.010	0.140	0.120
2020/01/31 19:33:16.8	29.070	-0.060	0.240	0.160
2020/01/31 19:33:16.9	29.050	-0.100	0.340	0.210
2020/01/31 19:33:17.0	29.010	-0.150	0.440	0.260
2020/01/31 19:33:17.1	28.970	-0.190	0.540	0.310
2020/01/31 19:33:17.2	28.920	-0.230	0.630	0.360
2020/01/31 19:33:17.3	28.880	-0.270	0.720	0.410
2020/01/31 19:33:17.4	28.830	-0.310	0.800	0.460
2020/01/31 19:33:17.5	28.780	-0.340	0.870	0.510
2020/01/31 19:33:17.6	28.720	-0.370	0.930	0.560
2020/01/31 19:33:17.7	28.670	-0.400	0.990	0.610
2020/01/31 19:33:17.8	28.620	-0.420	1.030	0.660
2020/01/31 19:33:17.9	28.580	-0.440	1.060	0.700
2020/01/31 19:33:18.0	28.530	-0.450	1.080	0.740
2020/01/31 19:33:18.1	28.490	-0.460	1.090	0.780
2020/01/31 19:33:18.2	28.440	-0.470	1.080	0.810
2020/01/31 19:33:18.3	28.400	-0.470	1.060	0.830
2020/01/31 19:33:18.4	28.360	-0.460	1.030	0.850
2020/01/31 19:33:18.5	28.320	-0.450	0.990	0.870
2020/01/31 19:33:18.6	28.290	-0.430	0.930	0.870
2020/01/31 19:33:18.7	28.260	-0.410	0.860	0.880
2020/01/31 19:33:18.8	28.240	-0.390	0.780	0.870
2020/01/31 19:33:18.9	28.220	-0.360	0.690	0.850
2020/01/31 19:33:19.0	28.200	-0.320	0.590	0.830
2020/01/31 19:33:19.1	28.200	-0.290	0.480	0.800
2020/01/31 19:33:19.2	28.200	-0.250	0.370	0.770
2020/01/31 19:33:19.3	28.200	-0.210	0.250	0.730
2020/01/31 19:33:19.4	28.210	-0.160	0.130	0.680
2020/01/31 19:33:19.5	28.220	-0.120	-0.000	0.630
2020/01/31 19:33:19.6	28.240	-0.070	-0.130	0.570
2020/01/31 19:33:19.7	28.260	-0.020	-0.260	0.500
2020/01/31 19:33:19.8	28.290	0.020	-0.390	0.430
2020/01/31 19:33:19.9	28.320	0.070	-0.520	0.350
2020/01/31 19:33:20.0	28.360	0.110	-0.640	0.270
2020/01/31 19:33:20.1	28.390	0.160	-0.760	0.190
2020/01/31 19:33:20.2	28.430	0.200	-0.870	0.110
2020/01/31 19:33:20.3	28.480	0.230	-0.970	0.020
2020/01/31 19:33:20.4	28.520	0.270	-1.060	-0.070
2020/01/31 19:33:20.5	28.570	0.300	-1.150	-0.160
2020/01/31 19:33:20.6	28.610	0.330	-1.220	-0.240
2020/01/31 19:33:20.7	28.660	0.350	-1.280	-0.330
2020/01/31 19:33:20.8	28.710	0.370	-1.330	-0.420
2020/01/31 19:33:20.9	28.740	0.380	-1.360	-0.510
2020/01/31 19:33:21.0	28.780	0.400	-1.390	-0.590
2020/01/31 19:33:21.1	28.830	0.400	-1.400	-0.660
2020/01/31 19:33:21.2	28.880	0.400	-1.400	-0.740
2020/01/31 19:33:21.3	28.920	0.400	-1.390	-0.800
2020/01/31 19:33:21.4	28.960	0.390	-1.360	-0.870
2020/01/31 19:33:21.5	29.000	0.380	-1.320	-0.920
2020/01/31 19:33:21.6	29.040	0.370	-1.270	-0.970
2020/01/31 19:33:21.7	29.080	0.350	-1.210	-1.020
2020/01/31 19:33:21.8	29.110	0.330	-1.140	-1.050
2020/01/31 19:33:21.9	29.150	0.310	-1.060	-1.090
2020/01/31 19:33:22.0	29.180	0.280	-0.970	-1.110
2020/01/31 19:33:22.1	29.200	0.250	-0.880	-1.120
2020/01/31 19:33:22.2	29.230	0.220	-0.780	-1.130
2020/01/31 19:33:22.3	29.250	0.190	-0.680	-1.130
2020/01/31 19:33:22.4	29.270	0.150	-0.570	-1.120
2020/01/31 19:33:22.5	29.280	0.120	-0.460	-1.100
2020/01/31 19:33:22.6	29.300	0.080	-0.350	-1.080
2020/01/31 19:33:22.7	29.310	0.050	-0.240	-1.050
2020/01/31 19:33:22.8	29.310	0.010	-0.140	-1.020
2020/01/31 19:33:22.9	29.320	-0.020	-0.040	-0.970
2020/01/31 19:33:23.0	29.320	-0.060	0.060	-0.920
2020/01/31 19:33:23.1	29.320	-0.090	0.160	-0.870
2020/01/31 19:33:23.2	29.310	-0.120	0.240	-0.810
2020/01/31 19:33:23.3	29.310	-0.150	0.330	-0.750
2020/01/31 19:33:23.4	29.300	-0.180	0.400	-0.680
2020/01/31 19:33:23.5	29.290	-0.210	0.470	-0.620
2020/01/31 19:33:23.6	29.280	-0.230	0.530	-0.540
2020/01/31 19:33:23.7	29.260	-0.260	0.580	-0.470
2020/01/31 19:33:23.8	29.240	-0.280	0.620	-0.400
2020/01/31 19:33:23.9	29.230	-0.290	0.650	-0.330
2020/01/31 19:33:24.0	29.210	-0.310	0.680	-0.250
2020/01/31 19:33:24.1	29.190	-0.320	0.690	-0.180
2020/01/31 19:33:24.2	29.170	-0.330	0.700	-0.100
2020/01/31 19:33:24.3	29.150	-0.340	0.690	-0.030
2020/01/31 19:33:24.4	29.130	-0.350	0.680	0.030
2020/01/31 19:33:24.5	29.110	-0.350	0.660	0.100
2020/01/31 19:33:24.6	29.090	-0.350	0.640	0.160
2020/01/31 19:33:24.7	29.080	-0.350	0.600	0.220
2020/01/31 19:33:24.8	29.060	-0.350	0.560	0.270
2020/01/31 19:33:24.9	29.060	-0.340	0.510	0.320
2020/01/31 19:33:25.0	29.040	-0.330	0.460	0.370
2020/01/31 19:33:25.1	29.030	-0.330	0.400	0.410
2020/01/31 19:33:25.2	29.020	-0.310	0.340	0.440
2020/01/31 19:33:25.3	29.020	-0.300	0.270	0.470
2020/01/31 19:33:25.4	29.010	-0.290	0.200	0.500
2020/01/31 19:33:25.5	29.010	-0.270	0.130	0.510
2020/01/31 19:33:25.6	29.010	-0.260	0.060	0.530
2020/01/31 19:33:25.7	29.010	-0.240	-0.020	0.540
2020/01/31 19:33:25.8	29.020	-0.220	-0.090	0.540
2020/01/31 19:33:25.9	29.030	-0.200	-0.170	0.550
2020/01/31 19:33:26.0	29.040	-0.180	-0.240	0.550
2020/01/31 19:33:26.1	29.050	-0.160	-0.310	0.540
2020/01/31 19:33:26.2	29.070	-0.140	-0.380	0.530
2020/01/31 19:33:26.3	29.080	-0.120	-0.440	0.520
2020/01/31 19:33:26.4	29.100	-0.090	-0.500	0.510
2020/01/31 19:33:26.5	29.130	-0.070	-0.560	0.490
2020/01/31 19:33:26.6	29.150	-0.050	-0.610	0.470
2020/01/31 19:33:26.7	29.180	-0.030	-0.660	0.450
2020/01/31 19:33:26.8	29.200	-0.000	-0.700	0.430
2020/01/31 19:33:26.9	29.230	0.020	-0.730	0.410
2020/01/31 19:33:27.0	29.260	0.040	-0.760	0.390
2020/01/31 19:33:27.1	29.290	0.070	-0.790	0.370
2020/01/31 19:33:27.2	29.330	0.090	-0.800	0.350
2020/01/31 19:33:27.3	29.360	0.110	-0.810	0.330
2020/01/31 19:33:27.4	29.390	0.130	-0.820	0.320
2020/01/31 19:33:27.5	29.420	0.150	-0.820	0.300
2020/01/31 19:33:27.6	29.450	0.170	-0.810	0.290
2020/01/31 19:33:27.7	29.480	0.190	-0.800	0.280
2020/01/31 19:33:27.8	29.510	0.210	-0.780	0.270
2020/01/31 19:33:27.9	29.550	0.220	-0.750	0.260
2020/01/31 19:33:28.0	29.570	0.240	-0.720	0.260
2020/01/31 19:33:28.1	29.600	0.250	-0.690	0.260
2020/01/31 19:33:28.2	29.620	0.260	-0.650	0.260
2020/01/31 19:33:28.3	29.640	0.270	-0.610	0.270
2020/01/31 19:33:28.4	29.650	0.280	-0.560	0.270
2020/01/31 19:33:28.5	29.660	0.290	-0.510	0.280
2020/01/31 19:33:28.6	29.670	0.300	-0.460	0.290
2020/01/31 19:33:28.7	29.680	0.300	-0.400	0.310
2020/01/31 19:33:28.8	29.680	0.310	-0.350	0.330
2020/01/31 19:33:28.9	29.680	0.310	-0.290	0.340
2020/01/31 19:33:29.0	29.680	0.310	-0.240	0.360
2020/01/31 19:33:29.1	29.670	0.310	-0.180	0.380
2020/01/31 19:33:29.2	29.670	0.310	-0.120	0.400
2020/01/31 19:33:29.3	29.650	0.310	-0.070	0.420
2020/01/31 19:33:29.4	29.640	0.310	-0.020	0.450
2020/01/31 19:33:29.5	29.620	0.310	0.030	0.470
2020/01/31 19:33:29.6	29.600	0.310	0.080	0.490
2020/01/31 19:33:29.7	29.580	0.300	0.130	0.510
2020/01/31 19:33:29.8	29.560	0.300	0.170	0.530
2020/01/31 19:33:29.9	29.540	0.300	0.200	0.550
2020/01/31 19:33:30.0	29.510	0.290	0.230	0.570
2020/01/31 19:33:30.1	29.480	0.290	0.260	0.590
2020/01/31 19:33:30.2	29.450	0.280	0.290	0.600
2020/01/31 19:33:30.3	29.420	0.280	0.300	0.620
2020/01/31 19:33:30.4	29.380	0.280	0.320	0.630
2020/01/31 19:33:30.5	29.350	0.270	0.330	0.630
2020/01/31 19:33:30.6	29.320	0.270	0.330	0.640
2020/01/31 19:33:30.7	29.280	0.270	0.330	0.640
2020/01/31 19:33:30.8	29.250	0.260	0.320	0.640
2020/01/31 19:33:30.9	29.230	0.260	0.310	0.630
2020/01/31 19:33:31.0	29.200	0.260	0.290	0.620
2020/01/31 19:33:31.1	29.170	0.250	0.270	0.600
2020/01/31 19:33:31.2	29.140	0.250	0.240	0.580
2020/01/31 19:33:31.3	29.120	0.250	0.210	0.550
2020/01/31 19:33:31.4	29.100	0.240	0.180	0.520
2020/01/31 19:33:31.5	29.080	0.240	0.140	0.490
2020/01/31 19:33:31.6	29.060	0.230	0.100	0.450
2020/01/31 19:33:31.7	29.050	0.230	0.060	0.400
2020/01/31 19:33:31.8	29.040	0.220	0.010	0.350
2020/01/31 19:33:31.9	29.010	0.210	-0.040	0.290
2020/01/31 19:33:32.0	29.010	0.210	-0.090	0.230
2020/01/31 19:33:32.1	29.010	0.200	-0.140	0.160
2020/01/31 19:33:32.2	29.010	0.180	-0.180	0.090
2020/01/31 19:33:32.3	29.020	0.170	-0.230	0.010
2020/01/31 19:33:32.4	29.030	0.160	-0.280	-0.060
2020/01/31 19:33:32.5	29.050	0.140	-0.330	-0.150
2020/01/31 19:33:32.6	29.060	0.120	-0.370	-0.230
2020/01/31 19:33:32.7	29.080	0.100	-0.410	-0.320
2020/01/31 19:33:32.8	29.110	0.080	-0.450	-0.410
2020/01/31 19:33:32.9	29.140	0.060	-0.480	-0.500
2020/01/31 19:33:33.0	29.170	0.030	-0.520	-0.590
2020/01/31 19:33:33.1	29.200	0.000	-0.540	-0.690
2020/01/31 19:33:33.2	29.230	-0.030	-0.560	-0.780
2020/01/31 19:33:33.3	29.270	-0.060	-0.580	-0.870
2020/01/31 19:33:33.4	29.310	-0.090	-0.590	-0.960
2020/01/31 19:33:33.5	29.350	-0.130	-0.600	-1.050
2020/01/31 19:33:33.6	29.390	-0.160	-0.600	-1.130
2020/01/31 19:33:33.7	29.440	-0.200	-0.600	-1.220
2020/01/31 19:33:33.8	29.480	-0.240	-0.590	-1.300
2020/01/31 19:33:33.9	29.520	-0.270	-0.580	-1.370
2020/01/31 19:33:34.0	29.560	-0.310	-0.560	-1.450
2020/01/31 19:33:34.1	29.610	-0.350	-0.540	-1.520
2020/01/31 19:33:34.2	29.660	-0.380	-0.520	-1.590
2020/01/31 19:33:34.3	29.710	-0.420	-0.490	-1.650
2020/01/31 19:33:34.4	29.760	-0.450	-0.460	-1.710
2020/01/31 19:33:34.5	29.810	-0.480	-0.420	-1.760
2020/01/31 19:33:34.6	29.860	-0.510	-0.390	-1.810
2020/01/31 19:33:34.7	29.910	-0.540	-0.350	-1.860
2020/01/31 19:33:34.8	29.960	-0.560	-0.310	-1.900
2020/01/31 19:33:34.9	30.010	-0.580	-0.270	-1.940
2020/01/31 19:33:35.0	30.060	-0.600	-0.230	-1.970
2020/01/31 19:33:35.1	30.110	-0.620	-0.190	-1.990
2020/01/31 19:33:35.2	30.150	-0.630	-0.160	-2.010
2020/01/31 19:33:35.3	30.200	-0.630	-0.120	-2.030
2020/01/31 19:33:35.4	30.240	-0.630	-0.090	-2.030
2020/01/31 19:33:35.5	30.280	-0.630	-0.060	-2.030
2020/01/31 19:33:35.6	30.320	-0.620	-0.030	-2.030
2020/01/31 19:33:35.7	30.350	-0.610	0.000	-2.020
2020/01/31 19:33:35.8	30.380	-0.600	0.030	-1.990
2020/01/31 19:33:35.9	30.410	-0.580	0.050	-1.970
2020/01/31 19:33:36.0	30.430	-0.560	0.070	-1.930
2020/01/31 19:33:36.1	30.460	-0.530	0.080	-1.890
2020/01/31 19:33:36.2	30.470	-0.500	0.100	-1.840
2020/01/31 19:33:36.3	30.490	-0.470	0.110	-1.790
2020/01/31 19:33:36.4	30.500	-0.430	0.120	-1.730
2020/01/31 19:33:36.5	30.510	-0.390	0.130	-1.660
2020/01/31 19:33:36.6	30.510	-0.350	0.130	-1.580
2020/01/31 19:33:36.7	30.510	-0.310	0.140	-1.500
2020/01/31 19:33:36.8	30.500	-0.260	0.140	-1.410
2020/01/31 19:33:36.9	30.490	-0.220	0.130	-1.310
2020/01/31 19:33:37.0	30.470	-0.170	0.130	-1.210
2020/01/31 19:33:37.1	30.460	-0.120	0.130	-1.110
2020/01/31 19:33:37.2	30.440	-0.080	0.130	-1.000
2020/01/31 19:33:37.3	30.410	-0.030	0.130	-0.890
2020/01/31 19:33:37.4	30.380	0.020	0.120	-0.770
2020/01/31 19:33:37.5	30.350	0.060	0.120	-0.650
2020/01/31 19:33:37.6	30.320	0.110	0.110	-0.530
2020/01/31 19:33:37.7	30.280	0.150	0.110	-0.400
2020/01/31 19:33:37.8	30.240	0.190	0.110	-0.270
2020/01/31 19:33:37.9	30.190	0.230	0.100	-0.140
2020/01/31 19:33:38.0	30.150	0.260	0.100	-0.010
2020/01/31 19:33:38.1	30.100	0.290	0.090	0.120
2020/01/31 19:33:38.2	30.050	0.320	0.090	0.250
2020/01/31 19:33:38.3	30.000	0.350	0.080	0.380
2020/01/31 19:33:38.4	29.950	0.370	0.080	0.510
2020/01/31 19:33:38.5	29.900	0.390	0.070	0.640
2020/01/31 19:33:38.6	29.840	0.410	0.070	0.770
2020/01/31 19:33:38.7	29.790	0.430	0.060	0.890
2020/01/31 19:33:38.8	29.730	0.440	0.050	1.010
2020/01/31 19:33:38.9	29.690	0.440	0.040	1.120
2020/01/31 19:33:39.0	29.630	0.450	0.030	1.240
2020/01/31 19:33:39.1	29.570	0.450	0.020	1.340
2020/01/31 19:33:39.2	29.520	0.450	0.010	1.440
2020/01/31 19:33:39.3	29.460	0.440	-0.010	1.530
2020/01/31 19:33:39.4	29.410	0.440	-0.030	1.620
2020/01/31 19:33:39.5	29.360	0.430	-0.050	1.700
2020/01/31 19:33:39.6	29.310	0.410	-0.070	1.760
2020/01/31 19:33:39.7	29.270	0.400	-0.100	1.820
2020/01/31 19:33:39.8	29.230	0.380	-0.130	1.870
2020/01/31 19:33:39.9	29.200	0.370	-0.160	1.910
2020/01/31 19:33:40.0	29.170	0.350	-0.200	1.940
2020/01/31 19:33:40.1	29.140	0.330	-0.240	1.950
2020/01/31 19:33:40.2	29.120	0.310	-0.280	1.960
2020/01/31 19:33:40.3	29.100	0.290	-0.320	1.950
2020/01/31 19:33:40.4	29.090	0.260	-0.370	1.930
2020/01/31 19:33:40.5	29.080	0.240	-0.420	1.890
2020/01/31 19:33:40.6	29.080	0.220	-0.480	1.850
2020/01/31 19:33:40.7	29.090	0.200	-0.530	1.790
2020/01/31 19:33:40.8	29.110	0.180	-0.590	1.720
2020/01/31 19:33:40.9	29.130	0.160	-0.650	1.640
2020/01/31 19:33:41.0	29.160	0.140	-0.710	1.540
2020/01/31 19:33:41.1	29.190	0.120	-0.770	1.440
2020/01/31 19:33:41.2	29.240	0.100	-0.830	1.320
2020/01/31 19:33:41.3	29.290	0.090	-0.890	1.200
2020/01/31 19:33:41.4	29.340	0.070	-0.940	1.070
2020/01/31 19:33:41.5	29.400	0.060	-1.000	0.930
2020/01/31 19:33:41.6	29.470	0.050	-1.050	0.790
2020/01/31 19:33:41.7	29.530	0.040	-1.090	0.640
2020/01/31 19:33:41.8	29.610	0.030	-1.140	0.480
2020/01/31 19:33:41.9	29.680	0.020	-1.170	0.320
2020/01/31 19:33:42.0	29.760	0.020	-1.200	0.160
2020/01/31 19:33:42.1	29.840	0.010	-1.220	0.010
2020/01/31 19:33:42.2	29.920	0.010	-1.230	-0.150
2020/01/31 19:33:42.3	29.990	0.010	-1.240	-0.300
2020/01/31 19:33:42.4	30.070	0.010	-1.230	-0.450
2020/01/31 19:33:42.5	30.140	0.010	-1.220	-0.600
2020/01/31 19:33:42.6	30.220	0.010	-1.200	-0.740
2020/01/31 19:33:42.7	30.290	0.010	-1.160	-0.870
2020/01/31 19:33:42.8	30.350	0.010	-1.120	-1.000
2020/01/31 19:33:42.9	30.410	0.010	-1.060	-1.120
2020/01/31 19:33:43.0	30.470	0.010	-1.000	-1.230
2020/01/31 19:33:43.1	30.520	0.010	-0.930	-1.330
2020/01/31 19:33:43.2	30.570	0.000	-0.840	-1.430
2020/01/31 19:33:43.3	30.610	0.000	-0.750	-1.510
2020/01/31 19:33:43.4	30.640	-0.000	-0.650	-1.590
2020/01/31 19:33:43.5	30.670	-0.000	-0.540	-1.650
2020/01/31 19:33:43.6	30.700	-0.010	-0.430	-1.710
2020/01/31 19:33:43.7	30.710	-0.020	-0.310	-1.750
2020/01/31 19:33:43.8	30.720	-0.020	-0.190	-1.790
2020/01/31 19:33:43.9	30.730	-0.030	-0.060	-1.820
2020/01/31 19:33:44.0	30.730	-0.040	0.060	-1.830
2020/01/31 19:33:44.1	30.720	-0.050	0.190	-1.840
2020/01/31 19:33:44.2	30.710	-0.070	0.320	-1.830
2020/01/31 19:33:44.3	30.690	-0.080	0.450	-1.820
2020/01/31 19:33:44.4	30.660	-0.100	0.570	-1.790
2020/01/31 19:33:44.5	30.630	-0.120	0.690	-1.760
2020/01/31 19:33:44.6	30.600	-0.130	0.800	-1.720
2020/01/31 19:33:44.7	30.560	-0.150	0.910	-1.670
2020/01/31 19:33:44.8	30.510	-0.170	1.010	-1.610
2020/01/31 19:33:44.9	30.450	-0.190	1.100	-1.540
2020/01/31 19:33:45.0	30.400	-0.210	1.180	-1.470
2020/01/31 19:33:45.1	30.350	-0.230	1.250	-1.390
2020/01/31 19:33:45.2	30.290	-0.250	1.310	-1.310
2020/01/31 19:33:45.3	30.240	-0.270	1.360	-1.220
2020/01/31 19:33:45.4	30.180	-0.290	1.390	-1.130
2020/01/31 19:33:45.5	30.120	-0.300	1.420	-1.040
2020/01/31 19:33:45.6	30.060	-0.320	1.430	-0.940
2020/01/31 19:33:45.7	30.000	-0.330	1.430	-0.840
2020/01/31 19:33:45.8	29.950	-0.340	1.420	-0.740
2020/01/31 19:33:45.9	29.880	-0.350	1.390	-0.640
2020/01/31 19:33:46.0	29.820	-0.360	1.350	-0.540
2020/01/31 19:33:46.1	29.770	-0.360	1.290	-0.450
2020/01/31 19:33:46.2	29.730	-0.370	1.230	-0.350
2020/01/31 19:33:46.3	29.680	-0.370	1.150	-0.260
2020/01/31 19:33:46.4	29.640	-0.360	1.070	-0.180
2020/01/31 19:33:46.5	29.610	-0.360	0.970	-0.100
2020/01/31 19:33:46.6	29.570	-0.350	0.860	-0.020
2020/01/31 19:33:46.7	29.540	-0.340	0.740	0.040
2020/01/31 19:33:46.8	29.520	-0.320	0.620	0.110
2020/01/31 19:33:46.9	29.490	-0.310	0.480	0.170
2020/01/31 19:33:47.0	29.470	-0.290	0.340	0.220
2020/01/31 19:33:47.1	29.460	-0.260	0.200	0.260
2020/01/31 19:33:47.2	29.450	-0.240	0.050	0.300
2020/01/31 19:33:47.3	29.440	-0.210	-0.100	0.330
2020/01/31 19:33:47.4	29.440	-0.180	-0.250	0.350
2020/01/31 19:33:47.5	29.440	-0.150	-0.400	0.370
2020/01/31 19:33:47.6	29.440	-0.120	-0.550	0.380
2020/01/31 19:33:47.7	29.440	-0.080	-0.700	0.390
2020/01/31 19:33:47.8	29.450	-0.040	-0.840	0.390
2020/01/31 19:33:47.9	29.480	-0.000	-0.990	0.380
2020/01/31 19:33:48.0	29.490	0.040	-1.120	0.370
2020/01/31 19:33:48.1	29.500	0.080	-1.250	0.360
2020/01/31 19:33:48.2	29.520	0.120	-1.370	0.350
2020/01/31 19:33:48.3	29.540	0.160	-1.480	0.330
2020/01/31 19:33:48.4	29.570	0.200	-1.580	0.310
2020/01/31 19:33:48.5	29.590	0.240	-1.680	0.290
2020/01/31 19:33:48.6	29.610	0.280	-1.760	0.270
2020/01/31 19:33:48.7	29.640	0.330	-1.820	0.250
2020/01/31 19:33:48.8	29.670	0.370	-1.880	0.230
2020/01/31 19:33:48.9	29.700	0.400	-1.920	0.200
2020/01/31 19:33:49.0	29.730	0.440	-1.950	0.190
2020/01/31 19:33:49.1	29.760	0.480	-1.970	0.170
2020/01/31 19:33:49.2	29.780	0.510	-1.970	0.160
2020/01/31 19:33:49.3	29.810	0.540	-1.960	0.150
2020/01/31 19:33:49.4	29.840	0.570	-1.940	0.140
2020/01/31 19:33:49.5	29.870	0.600	-1.910	0.130
2020/01/31 19:33:49.6	29.900	0.620	-1.860	0.130
2020/01/31 19:33:49.7	29.930	0.640	-1.800	0.130
2020/01/31 19:33:49.8	29.960	0.650	-1.740	0.140
2020/01/31 19:33:49.9	29.980	0.660	-1.660	0.150
2020/01/31 19:33:50.0	30.010	0.670	-1.570	0.160
2020/01/31 19:33:50.1	30.030	0.670	-1.470	0.180
2020/01/31 19:33:50.2	30.060	0.670	-1.360	0.200
2020/01/31 19:33:50.3	30.080	0.670	-1.250	0.230
2020/01/31 19:33:50.4	30.100	0.660	-1.130	0.260
2020/01/31 19:33:50.5	30.110	0.640	-1.000	0.290
2020/01/31 19:33:50.6	30.130	0.620	-0.870	0.320
2020/01/31 19:33:50.7	30.140	0.600	-0.740	0.360
2020/01/31 19:33:50.8	30.150	0.570	-0.600	0.400
2020/01/31 19:33:50.9	30.160	0.530	-0.460	0.440
2020/01/31 19:33:51.0	30.160	0.500	-0.320	0.490
2020/01/31 19:33:51.1	30.170	0.450	-0.180	0.540
2020/01/31 19:33:51.2	30.170	0.410	-0.040	0.590
2020/01/31 19:33:51.3	30.160	0.360	0.100	0.640
2020/01/31 19:33:51.4	30.160	0.300	0.240	0.690
2020/01/31 19:33:51.5	30.150	0.250	0.370	0.740
2020/01/31 19:33:51.6	30.150	0.190	0.500	0.790
2020/01/31 19:33:51.7	30.140	0.120	0.630	0.830
2020/01/31 19:33:51.8	30.130	0.060	0.750	0.880
2020/01/31 19:33:51.9	30.120	-0.010	0.860	0.920
2020/01/31 19:33:52.0	30.110	-0.080	0.970	0.960
2020/01/31 19:33:52.1	30.090	-0.150	1.070	1.000
2020/01/31 19:33:52.2	30.080	-0.210	1.160	1.030
2020/01/31 19:33:52.3	30.060	-0.280	1.240	1.050
2020/01/31 19:33:52.4	30.050	-0.350	1.310	1.070
2020/01/31 19:33:52.5	30.030	-0.420	1.370	1.090
2020/01/31 19:33:52.6	30.020	-0.480	1.420	1.100
2020/01/31 19:33:52.7	30.000	-0.550	1.460	1.100
2020/01/31 19:33:52.8	29.990	-0.610	1.500	1.100
2020/01/31 19:33:52.9	29.950	-0.660	1.520	1.090
2020/01/31 19:33:53.0	29.940	-0.720	1.530	1.080
2020/01/31 19:33:53.1	29.920	-0.770	1.530	1.060
2020/01/31 19:33:53.2	29.910	-0.810	1.530	1.040
2020/01/31 19:33:53.3	29.890	-0.850	1.510	1.020
2020/01/31 19:33:53.4	29.880	-0.890	1.490	1.000
2020/01/31 19:33:53.5	29.860	-0.920	1.460	0.970
2020/01/31 19:33:53.6	29.840	-0.940	1.420	0.940
2020/01/31 19:33:53.7	29.820	-0.960	1.370	0.900
2020/01/31 19:33:53.8	29.810	-0.970	1.320	0.870
2020/01/31 19:33:53.9	29.780	-0.980	1.260	0.830
2020/01/31 19:33:54.0	29.760	-0.980	1.200	0.790
2020/01/31 19:33:54.1	29.750	-0.970	1.120	0.750
2020/01/31 19:33:54.2	29.730	-0.950	1.040	0.710
2020/01/31 19:33:54.3	29.710	-0.930	0.950	0.680
2020/01/31 19:33:54.4	29.690	-0.910	0.860	0.640
2020/01/31 19:33:54.5	29.680	-0.870	0.760	0.600
2020/01/31 19:33:54.6	29.660	-0.830	0.660	0.550
2020/01/31 19:33:54.7	29.650	-0.790	0.550	0.510
2020/01/31 19:33:54.8	29.640	-0.740	0.440	0.470
2020/01/31 19:33:54.9	29.640	-0.680	0.320	0.430
2020/01/31 19:33:55.0	29.630	-0.620	0.200	0.380
2020/01/31 19:33:55.1	29.630	-0.550	0.070	0.330
2020/01/31 19:33:55.2	29.620	-0.480	-0.050	0.290
2020/01/31 19:33:55.3	29.630	-0.400	-0.180	0.240
2020/01/31 19:33:55.4	29.630	-0.320	-0.320	0.190
2020/01/31 19:33:55.5	29.640	-0.240	-0.450	0.130
2020/01/31 19:33:55.6	29.650	-0.150	-0.590	0.080
2020/01/31 19:33:55.7	29.660	-0.070	-0.720	0.020
2020/01/31 19:33:55.8	29.680	0.020	-0.860	-0.040
2020/01/31 19:33:55.9	29.710	0.110	-0.990	-0.100
2020/01/31 19:33:56.0	29.740	0.200	-1.120	-0.160
2020/01/31 19:33:56.1	29.760	0.290	-1.250	-0.220
2020/01/31 19:33:56.2	29.790	0.380	-1.370	-0.280
2020/01/31 19:33:56.3	29.830	0.470	-1.490	-0.340
2020/01/31 19:33:56.4	29.860	0.550	-1.610	-0.400
2020/01/31 19:33:56.5	29.900	0.640	-1.710	-0.460
2020/01/31 19:33:56.6	29.940	0.710	-1.810	-0.510
2020/01/31 19:33:56.7	29.980	0.790	-1.900	-0.570
2020/01/31 19:33:56.8	30.020	0.860	-1.980	-0.620
2020/01/31 19:33:56.9	30.070	0.920	-2.040	-0.670
2020/01/31 19:33:57.0	30.110	0.970	-2.100	-0.710
2020/01/31 19:33:57.1	30.150	1.020	-2.140	-0.750
2020/01/31 19:33:57.2	30.190	1.070	-2.170	-0.780
2020/01/31 19:33:57.3	30.220	1.100	-2.180	-0.810
2020/01/31 19:33:57.4	30.250	1.130	-2.180	-0.840
2020/01/31 19:33:57.5	30.280	1.140	-2.160	-0.860
2020/01/31 19:33:57.6	30.310	1.150	-2.130	-0.870
2020/01/31 19:33:57.7	30.330	1.150	-2.080	-0.880
2020/01/31 19:33:57.8	30.350	1.140	-2.010	-0.890
2020/01/31 19:33:57.9	30.380	1.120	-1.930	-0.890
2020/01/31 19:33:58.0	30.390	1.090	-1.830	-0.880
2020/01/31 19:33:58.1	30.390	1.050	-1.720	-0.880
2020/01/31 19:33:58.2	30.390	1.010	-1.590	-0.860
2020/01/31 19:33:58.3	30.390	0.950	-1.450	-0.850
2020/01/31 19:33:58.4	30.380	0.890	-1.290	-0.830
2020/01/31 19:33:58.5	30.360	0.820	-1.130	-0.800
2020/01/31 19:33:58.6	30.340	0.740	-0.950	-0.780
2020/01/31 19:33:58.7	30.310	0.660	-0.770	-0.750
2020/01/31 19:33:58.8	30.280	0.580	-0.580	-0.720
2020/01/31 19:33:58.9	30.240	0.480	-0.390	-0.680
2020/01/31 19:33:59.0	30.200	0.390	-0.190	-0.650
2020/01/31 19:33:59.1	30.160	0.290	0.010	-0.620
2020/01/31 19:33:59.2	30.110	0.190	0.200	-0.580
2020/01/31 19:33:59.3	30.060	0.090	0.390	-0.550
2020/01/31 19:33:59.4	30.020	-0.010	0.580	-0.520
2020/01/31 19:33:59.5	29.970	-0.110	0.770	-0.490
2020/01/31 19:33:59.6	29.910	-0.210	0.940	-0.460
2020/01/31 19:33:59.7	29.860	-0.310	1.100	-0.430
2020/01/31 19:33:59.8	29.810	-0.400	1.250	-0.410
2020/01/31 19:33:59.9	29.750	-0.490	1.390	-0.400
2020/01/31 19:34:00.0	29.700	-0.580	1.510	-0.390
2020/01/31 19:34:00.1	29.660	-0.660	1.620	-0.380
2020/01/31 19:34:00.2	29.610	-0.740	1.710	-0.370
2020/01/31 19:34:00.3	29.570	-0.800	1.790	-0.370
2020/01/31 19:34:00.4	29.530	-0.870	1.840	-0.380
2020/01/31 19:34:00.5	29.500	-0.920	1.880	-0.390
2020/01/31 19:34:00.6	29.470	-0.970	1.900	-0.400
2020/01/31 19:34:00.7	29.440	-1.000	1.900	-0.420
2020/01/31 19:34:00.8	29.420	-1.030	1.880	-0.440
2020/01/31 19:34:00.9	29.410	-1.050	1.850	-0.470
2020/01/31 19:34:01.0	29.390	-1.070	1.790	-0.510
2020/01/31 19:34:01.1	29.390	-1.070	1.720	-0.550
2020/01/31 19:34:01.2	29.380	-1.070	1.630	-0.590
2020/01/31 19:34:01.3	29.380	-1.050	1.530	-0.630
2020/01/31 19:34:01.4	29.390	-1.030	1.410	-0.680
2020/01/31 19:34:01.5	29.400	-1.010	1.280	-0.730
2020/01/31 19:34:01.6	29.420	-0.970	1.140	-0.780
2020/01/31 19:34:01.7	29.440	-0.930	0.990	-0.840
2020/01/31 19:34:01.8	29.470	-0.880	0.830	-0.890
2020/01/31 19:34:01.9	29.500	-0.830	0.660	-0.950
2020/01/31 19:34:02.0	29.530	-0.770	0.490	-1.010
2020/01/31 19:34:02.1	29.570	-0.710	0.320	-1.060
2020/01/31 19:34:02.2	29.610	-0.640	0.140	-1.120
2020/01/31 19:34:02.3	29.650	-0.570	-0.030	-1.180
2020/01/31 19:34:02.4	29.700	-0.500	-0.200	-1.230
2020/01/31 19:34:02.5	29.750	-0.420	-0.370	-1.280
2020/01/31 19:34:02.6	29.800	-0.350	-0.530	-1.330
2020/01/31 19:34:02.7	29.850	-0.270	-0.680	-1.370
2020/01/31 19:34:02.8	29.900	-0.200	-0.830	-1.410
2020/01/31 19:34:02.9	29.960	-0.120	-0.960	-1.450
2020/01/31 19:34:03.0	30.010	-0.050	-1.080	-1.490
2020/01/31 19:34:03.1	30.060	0.020	-1.200	-1.510
2020/01/31 19:34:03.2	30.110	0.090	-1.300	-1.540
2020/01/31 19:34:03.3	30.160	0.160	-1.380	-1.550
2020/01/31 19:34:03.4	30.210	0.220	-1.460	-1.560
2020/01/31 19:34:03.5	30.250	0.280	-1.510	-1.560
2020/01/31 19:34:03.6	30.290	0.340	-1.560	-1.550
2020/01/31 19:34:03.7	30.330	0.390	-1.580	-1.540
2020/01/31 19:34:03.8	30.370	0.440	-1.600	-1.510
2020/01/31 19:34:03.9	30.410	0.480	-1.600	-1.480
2020/01/31 19:34:04.0	30.430	0.520	-1.580	-1.430
2020/01/31 19:34:04.1	30.460	0.550	-1.550	-1.380
2020/01/31 19:34:04.2	30.480	0.580	-1.500	-1.320
2020/01/31 19:34:04.3	30.490	0.600	-1.450	-1.250
2020/01/31 19:34:04.4	30.500	0.620	-1.380	-1.170
2020/01/31 19:34:04.5	30.510	0.630	-1.300	-1.080
2020/01/31 19:34:04.6	30.510	0.640	-1.210	-0.980
2020/01/31 19:34:04.7	30.510	0.640	-1.110	-0.870
2020/01/31 19:34:04.8	30.500	0.640	-1.010	-0.760
2020/01/31 19:34:04.9	30.490	0.630	-0.900	-0.630
2020/01/31 19:34:05.0	30.480	0.620	-0.790	-0.500
2020/01/31 19:34:05.1	30.460	0.600	-0.680	-0.370
2020/01/31 19:34:05.2	30.440	0.590	-0.560	-0.240
2020/01/31 19:34:05.3	30.410	0.570	-0.440	-0.100
2020/01/31 19:34:05.4	30.380	0.540	-0.330	0.040
2020/01/31 19:34:05.5	30.350	0.520	-0.210	0.180
2020/01/31 19:34:05.6	30.310	0.490	-0.100	0.330
2020/01/31 19:34:05.7	30.280	0.460	0.000	0.470
2020/01/31 19:34:05.8	30.240	0.430	0.100	0.610
2020/01/31 19:34:05.9	30.200	0.400	0.190	0.740
2020/01/31 19:34:06.0	30.160	0.370	0.270	0.880
2020/01/31 19:34:06.1	30.130	0.340	0.340	1.000
2020/01/31 19:34:06.2	30.090	0.310	0.410	1.130
2020/01/31 19:34:06.3	30.060	0.280	0.460	1.240
2020/01/31 19:34:06.4	30.030	0.250	0.500	1.350
2020/01/31 19:34:06.5	30.000	0.220	0.540	1.450
2020/01/31 19:34:06.6	29.970	0.190	0.560	1.540
2020/01/31 19:34:06.7	29.950	0.170	0.570	1.620
2020/01/31 19:34:06.8	29.930	0.150	0.580	1.690
2020/01/31 19:34:06.9	29.920	0.120	0.570	1.750
2020/01/31 19:34:07.0	29.910	0.100	0.550	1.800
2020/01/31 19:34:07.1	29.900	0.080	0.530	1.840
2020/01/31 19:34:07.2	29.890	0.070	0.490	1.870
2020/01/31 19:34:07.3	29.890	0.050	0.450	1.890
2020/01/31 19:34:07.4	29.900	0.040	0.400	1.890
2020/01/31 19:34:07.5	29.900	0.030	0.340	1.890
2020/01/31 19:34:07.6	29.910	0.010	0.280	1.880
2020/01/31 19:34:07.7	29.930	0.000	0.220	1.860
2020/01/31 19:34:07.8	29.940	-0.010	0.150	1.820
2020/01/31 19:34:07.9	29.970	-0.020	0.080	1.780
2020/01/31 19:34:08.0	29.990	-0.030	0.010	1.740
2020/01/31 19:34:08.1	30.020	-0.040	-0.050	1.680
2020/01/31 19:34:08.2	30.040	-0.040	-0.120	1.620
2020/01/31 19:34:08.3	30.070	-0.050	-0.190	1.560
2020/01/31 19:34:08.4	30.090	-0.060	-0.250	1.480
2020/01/31 19:34:08.5	30.120	-0.070	-0.310	1.410
2020/01/31 19:34:08.6	30.150	-0.080	-0.370	1.330
2020/01/31 19:34:08.7	30.180	-0.100	-0.420	1.240
2020/01/31 19:34:08.8	30.210	-0.110	-0.460	1.160
2020/01/31 19:34:08.9	30.250	-0.120	-0.500	1.070
2020/01/31 19:34:09.0	30.280	-0.140	-0.530	0.970
2020/01/31 19:34:09.1	30.310	-0.150	-0.550	0.880
2020/01/31 19:34:09.2	30.340	-0.160	-0.570	0.790
2020/01/31 19:34:09.3	30.370	-0.180	-0.590	0.690
2020/01/31 19:34:09.4	30.400	-0.200	-0.590	0.590
2020/01/31 19:34:09.5	30.430	-0.210	-0.590	0.490
2020/01/31 19:34:09.6	30.460	-0.230	-0.590	0.400
2020/01/31 19:34:09.7	30.490	-0.250	-0.580	0.300
2020/01/31 19:34:09.8	30.520	-0.260	-0.560	0.200
2020/01/31 19:34:09.9	30.550	-0.280	-0.540	0.090
2020/01/31 19:34:10.0	30.580	-0.300	-0.510	-0.000
2020/01/31 19:34:10.1	30.610	-0.310	-0.480	-0.100
2020/01/31 19:34:10.2	30.640	-0.330	-0.450	-0.190
2020/01/31 19:34:10.3	30.660	-0.340	-0.410	-0.290
2020/01/31 19:34:10.4	30.690	-0.360	-0.380	-0.380
2020/01/31 19:34:10.5	30.710	-0.370	-0.340	-0.460
2020/01/31 19:34:10.6	30.740	-0.380	-0.300	-0.550
2020/01/31 19:34:10.7	30.760	-0.380	-0.260	-0.630
2020/01/31 19:34:10.8	30.780	-0.390	-0.220	-0.710
2020/01/31 19:34:10.9	30.790	-0.390	-0.170	-0.790
2020/01/31 19:34:11.0	30.810	-0.390	-0.140	-0.860
2020/01/31 19:34:11.1	30.830	-0.390	-0.100	-0.920
2020/01/31 19:34:11.2	30.850	-0.380	-0.060	-0.980
2020/01/31 19:34:11.3	30.860	-0.380	-0.030	-1.040
2020/01/31 19:34:11.4	30.880	-0.360	-0.000	-1.090
2020/01/31 19:34:11.5	30.890	-0.350	0.030	-1.130
2020/01/31 19:34:11.6	30.910	-0.330	0.050	-1.170
2020/01/31 19:34:11.7	30.920	-0.310	0.070	-1.200
2020/01/31 19:34:11.8	30.930	-0.290	0.090	-1.230
2020/01/31 19:34:11.9	30.940	-0.260	0.100	-1.250
2020/01/31 19:34:12.0	30.950	-0.240	0.110	-1.270
2020/01/31 19:34:12.1	30.960	-0.210	0.120	-1.280
2020/01/31 19:34:12.2	30.970	-0.170	0.120	-1.280
2020/01/31 19:34:12.3	30.970	-0.140	0.130	-1.280
2020/01/31 19:34:12.4	30.980	-0.100	0.120	-1.270
2020/01/31 19:34:12.5	30.990	-0.070	0.120	-1.250
2020/01/31 19:34:12.6	30.990	-0.030	0.110	-1.230
2020/01/31 19:34:12.7	31.000	0.010	0.100	-1.210
2020/01/31 19:34:12.8	31.000	0.050	0.090	-1.180
2020/01/31 19:34:12.9	30.990	0.090	0.080	-1.140
2020/01/31 19:34:13.0	30.990	0.130	0.070	-1.100
2020/01/31 19:34:13.1	30.990	0.170	0.050	-1.050
2020/01/31 19:34:13.2	30.980	0.200	0.030	-1.000
2020/01/31 19:34:13.3	30.980	0.240	0.020	-0.940
2020/01/31 19:34:13.4	30.980	0.280	-0.000	-0.880
2020/01/31 19:34:13.5	30.970	0.310	-0.020	-0.810
2020/01/31 19:34:13.6	30.960	0.340	-0.040	-0.740
2020/01/31 19:34:13.7	30.960	0.370	-0.050	-0.670
2020/01/31 19:34:13.8	30.950	0.400	-0.070	-0.590
2020/01/31 19:34:13.9	30.940	0.420	-0.090	-0.500
2020/01/31 19:34:14.0	30.930	0.440	-0.110	-0.430
2020/01/31 19:34:14.1	30.920	0.460	-0.130	-0.350
2020/01/31 19:34:14.2	30.910	0.470	-0.140	-0.270
2020/01/31 19:34:14.3	30.890	0.480	-0.160	-0.190
2020/01/31 19:34:14.4	30.880	0.490	-0.180	-0.110
2020/01/31 19:34:14.5	30.870	0.500	-0.190	-0.040
2020/01/31 19:34:14.6	30.860	0.500	-0.210	0.030
2020/01/31 19:34:14.7	30.850	0.500	-0.230	0.100
2020/01/31 19:34:14.8	30.830	0.490	-0.240	0.170
2020/01/31 19:34:14.9	30.820	0.480	-0.260	0.230
2020/01/31 19:34:15.0	30.810	0.470	-0.280	0.280
2020/01/31 19:34:15.1	30.800	0.450	-0.290	0.330
2020/01/31 19:34:15.2	30.780	0.430	-0.310	0.380
2020/01/31 19:34:15.3	30.770	0.410	-0.330	0.420
2020/01/31 19:34:15.4	30.760	0.390	-0.350	0.450
2020/01/31 19:34:15.5	30.750	0.360	-0.360	0.480
2020/01/31 19:34:15.6	30.740	0.340	-0.380	0.500
2020/01/31 19:34:15.7	30.730	0.310	-0.390	0.510
2020/01/31 19:34:15.8	30.720	0.270	-0.410	0.520
2020/01/31 19:34:15.9	30.710	0.240	-0.420	0.520
2020/01/31 19:34:16.0	30.700	0.210	-0.430	0.520
2020/01/31 19:34:16.1	30.690	0.170	-0.450	0.510
2020/01/31 19:34:16.2	30.690	0.130	-0.460	0.500
2020/01/31 19:34:16.3	30.680	0.100	-0.470	0.480
2020/01/31 19:34:16.4	30.670	0.060	-0.480	0.450
2020/01/31 19:34:16.5	30.670	0.020	-0.490	0.430
2020/01/31 19:34:16.6	30.660	-0.010	-0.490	0.390
2020/01/31 19:34:16.7	30.660	-0.050	-0.500	0.350
2020/01/31 19:34:16.8	30.660	-0.080	-0.500	0.310
2020/01/31 19:34:16.9	30.660	-0.120	-0.510	0.260
2020/01/31 19:34:17.0	30.660	-0.150	-0.510	0.210
2020/01/31 19:34:17.1	30.670	-0.180	-0.510	0.160
2020/01/31 19:34:17.2	30.670	-0.210	-0.500	0.110
2020/01/31 19:34:17.3	30.680	-0.240	-0.500	0.050
2020/01/31 19:34:17.4	30.690	-0.270	-0.500	-0.010
2020/01/31 19:34:17.5	30.700	-0.290	-0.490	-0.060
2020/01/31 19:34:17.6	30.710	-0.310	-0.480	-0.120
2020/01/31 19:34:17.7	30.720	-0.330	-0.470	-0.180
2020/01/31 19:34:17.8	30.740	-0.350	-0.460	-0.240
2020/01/31 19:34:17.9	30.760	-0.360	-0.440	-0.300
2020/01/31 19:34:18.0	30.780	-0.370	-0.430	-0.360
2020/01/31 19:34:18.1	30.790	-0.380	-0.410	-0.420
2020/01/31 19:34:18.2	30.810	-0.390	-0.390	-0.470
2020/01/31 19:34:18.3	30.830	-0.390	-0.380	-0.530
2020/01/31 19:34:18.4	30.850	-0.390	-0.350	-0.580
2020/01/31 19:34:18.5	30.880	-0.390	-0.330	-0.630
2020/01/31 19:34:18.6	30.900	-0.380	-0.310	-0.680
2020/01/31 19:34:18.7	30.920	-0.370	-0.280	-0.730
2020/01/31 19:34:18.8	30.940	-0.360	-0.260	-0.770
2020/01/31 19:34:18.9	30.980	-0.350	-0.230	-0.820
2020/01/31 19:34:19.0	31.000	-0.340	-0.210	-0.860
2020/01/31 19:34:19.1	31.020	-0.320	-0.180	-0.890
2020/01/31 19:34:19.2	31.050	-0.300	-0.140	-0.920
2020/01/31 19:34:19.3	31.070	-0.280	-0.110	-0.950
2020/01/31 19:34:19.4	31.080	-0.260	-0.080	-0.970
2020/01/31 19:34:19.5	31.100	-0.240	-0.050	-0.990
2020/01/31 19:34:19.6	31.120	-0.220	-0.010	-1.000
2020/01/31 19:34:19.7	31.130	-0.190	0.020	-1.000
2020/01/31 19:34:19.8	31.140	-0.170	0.060	-1.000
2020/01/31 19:34:19.9	31.150	-0.140	0.100	-0.990
2020/01/31 19:34:20.0	31.150	-0.120	0.140	-0.980
2020/01/31 19:34:20.1	31.150	-0.100	0.180	-0.960
2020/01/31 19:34:20.2	31.150	-0.070	0.210	-0.930
2020/01/31 19:34:20.3	31.150	-0.050	0.250	-0.900
2020/01/31 19:34:20.4	31.140	-0.030	0.290	-0.870
2020/01/31 19:34:20.5	31.130	-0.010	0.330	-0.820
2020/01/31 19:34:20.6	31.110	0.010	0.360	-0.780
2020/01/31 19:34:20.7	31.090	0.030	0.400	-0.730
2020/01/31 19:34:20.8	31.070	0.040	0.430	-0.670
2020/01/31 19:34:20.9	31.040	0.050	0.450	-0.610
2020/01/31 19:34:21.0	31.010	0.070	0.480	-0.550
2020/01/31 19:34:21.1	30.990	0.080	0.500	-0.490
2020/01/31 19:34:21.2	30.960	0.090	0.520	-0.420
2020/01/31 19:34:21.3	30.930	0.090	0.530	-0.360
2020/01/31 19:34:21.4	30.900	0.100	0.540	-0.290
2020/01/31 19:34:21.5	30.870	0.100	0.540	-0.220
2020/01/31 19:34:21.6	30.840	0.100	0.540	-0.150
2020/01/31 19:34:21.7	30.810	0.110	0.530	-0.080
2020/01/31 19:34:21.8	30.780	0.110	0.520	-0.010
2020/01/31 19:34:21.9	30.740	0.110	0.500	0.060
2020/01/31 19:34:22.0	30.720	0.110	0.470	0.130
2020/01/31 19:34:22.1	30.690	0.110	0.440	0.190
2020/01/31 19:34:22.2	30.670	0.110	0.400	0.250
2020/01/31 19:34:22.3	30.650	0.110	0.350	0.310
2020/01/31 19:34:22.4	30.630	0.110	0.300	0.370
2020/01/31 19:34:22.5	30.610	0.110	0.240	0.420
2020/01/31 19:34:22.6	30.600	0.110	0.180	0.470
2020/01/31 19:34:22.7	30.590	0.120	0.110	0.510
2020/01/31 19:34:22.8	30.580	0.120	0.030	0.550
2020/01/31 19:34:22.9	30.570	0.130	-0.050	0.590
2020/01/31 19:34:23.0	30.570	0.140	-0.130	0.620
2020/01/31 19:34:23.1	30.560	0.150	-0.220	0.650
2020/01/31 19:34:23.2	30.560	0.160	-0.310	0.680
2020/01/31 19:34:23.3	30.550	0.170	-0.400	0.700
2020/01/31 19:34:23.4	30.550	0.190	-0.490	0.730
2020/01/31 19:34:23.5	30.550	0.200	-0.570	0.740
2020/01/31 19:34:23.6	30.550	0.220	-0.660	0.760
2020/01/31 19:34:23.7	30.550	0.240	-0.750	0.780
2020/01/31 19:34:23.8	30.550	0.260	-0.830	0.790
2020/01/31 19:34:23.9	30.560	0.280	-0.900	0.810
2020/01/31 19:34:24.0	30.560	0.300	-0.970	0.820
2020/01/31 19:34:24.1	30.560	0.330	-1.040	0.830
2020/01/31 19:34:24.2	30.550	0.350	-1.090	0.840
2020/01/31 19:34:24.3	30.550	0.370	-1.140	0.840
2020/01/31 19:34:24.4	30.540	0.390	-1.180	0.850
2020/01/31 19:34:24.5	30.530	0.410	-1.220	0.860
2020/01/31 19:34:24.6	30.520	0.430	-1.240	0.860
2020/01/31 19:34:24.7	30.510	0.450	-1.250	0.870
2020/01/31 19:34:24.8	30.500	0.460	-1.260	0.870
2020/01/31 19:34:24.9	30.490	0.480	-1.250	0.870
2020/01/31 19:34:25.0	30.470	0.490	-1.240	0.870
2020/01/31 19:34:25.1	30.460	0.490	-1.210	0.870
2020/01/31 19:34:25.2	30.450	0.500	-1.180	0.870
2020/01/31 19:34:25.3	30.430	0.500	-1.140	0.860
2020/01/31 19:34:25.4	30.420	0.500	-1.090	0.850
2020/01/31 19:34:25.5	30.400	0.490	-1.040	0.840
2020/01/31 19:34:25.6	30.390	0.480	-0.980	0.830
2020/01/31 19:34:25.7	30.380	0.470	-0.910	0.810
2020/01/31 19:34:25.8	30.370	0.450	-0.840	0.790
2020/01/31 19:34:25.9	30.360	0.430	-0.760	0.770
2020/01/31 19:34:26.0	30.350	0.400	-0.680	0.750
2020/01/31 19:34:26.1	30.340	0.370	-0.600	0.720
2020/01/31 19:34:26.2	30.330	0.340	-0.520	0.690
2020/01/31 19:34:26.3	30.330	0.300	-0.430	0.660
2020/01/31 19:34:26.4	30.320	0.260	-0.340	0.620
2020/01/31 19:34:26.5	30.320	0.220	-0.260	0.580
2020/01/31 19:34:26.6	30.320	0.180	-0.170	0.540
2020/01/31 19:34:26.7	30.330	0.130	-0.090	0.490
2020/01/31 19:34:26.8	30.330	0.080	-0.010	0.440
2020/01/31 19:34:26.9	30.320	0.030	0.070	0.390
2020/01/31 19:34:27.0	30.330	-0.020	0.140	0.330
2020/01/31 19:34:27.1	30.340	-0.080	0.210	0.280
2020/01/31 19:34:27.2	30.360	-0.130	0.280	0.220
2020/01/31 19:34:27.3	30.380	-0.180	0.340	0.160
2020/01/31 19:34:27.4	30.400	-0.240	0.390	0.090
2020/01/31 19:34:27.5	30.420	-0.290	0.440	0.030
2020/01/31 19:34:27.6	30.450	-0.340	0.480	-0.040
2020/01/31 19:34:27.7	30.470	-0.390	0.520	-0.100
2020/01/31 19:34:27.8	30.500	-0.430	0.550	-0.170
2020/01/31 19:34:27.9	30.520	-0.480	0.580	-0.240
2020/01/31 19:34:28.0	30.560	-0.520	0.600	-0.310
2020/01/31 19:34:28.1	30.590	-0.560	0.610	-0.380
2020/01/31 19:34:28.2	30.620	-0.590	0.620	-0.440
2020/01/31 19:34:28.3	30.650	-0.620	0.620	-0.510
2020/01/31 19:34:28.4	30.680	-0.650	0.620	-0.570
2020/01/31 19:34:28.5	30.720	-0.670	0.620	-0.630
2020/01/31 19:34:28.6	30.750	-0.690	0.610	-0.690
2020/01/31 19:34:28.7	30.770	-0.700	0.600	-0.740
2020/01/31 19:34:28.8	30.800	-0.720	0.580	-0.790
2020/01/31 19:34:28.9	30.830	-0.720	0.560	-0.840
2020/01/31 19:34:29.0	30.850	-0.720	0.540	-0.880
2020/01/31 19:34:29.1	30.870	-0.720	0.520	-0.910
2020/01/31 19:34:29.2	30.890	-0.720	0.500	-0.940
2020/01/31 19:34:29.3	30.910	-0.710	0.480	-0.970
2020/01/31 19:34:29.4	30.920	-0.690	0.460	-0.990
2020/01/31 19:34:29.5	30.930	-0.670	0.430	-1.000
2020/01/31 19:34:29.6	30.930	-0.650	0.410	-1.010
2020/01/31 19:34:29.7	30.940	-0.620	0.390	-1.010
2020/01/31 19:34:29.8	30.940	-0.600	0.360	-1.000
2020/01/31 19:34:29.9	30.930	-0.560	0.340	-0.990
2020/01/31 19:34:30.0	30.930	-0.530	0.310	-0.970
2020/01/31 19:34:30.1	30.920	-0.490	0.290	-0.950
2020/01/31 19:34:30.2	30.910	-0.450	0.270	-0.920
2020/01/31 19:34:30.3	30.900	-0.410	0.240	-0.890
2020/01/31 19:34:30.4	30.880	-0.370	0.210	-0.850
2020/01/31 19:34:30.5	30.870	-0.320	0.180	-0.810
2020/01/31 19:34:30.6	30.850	-0.280	0.150	-0.770
2020/01/31 19:34:30.7	30.830	-0.230	0.120	-0.720
2020/01/31 19:34:30.8	30.810	-0.180	0.080	-0.670
2020/01/31 19:34:30.9	30.800	-0.140	0.040	-0.610
2020/01/31 19:34:31.0	30.780	-0.090	0.000	-0.560
2020/01/31 19:34:31.1	30.760	-0.040	-0.040	-0.500
2020/01/31 19:34:31.2	30.740	0.010	-0.090	-0.450
2020/01/31 19:34:31.3	30.720	0.050	-0.140	-0.390
2020/01/31 19:34:31.4	30.690	0.100	-0.190	-0.330
2020/01/31 19:34:31.5	30.670	0.140	-0.250	-0.280
2020/01/31 19:34:31.6	30.650	0.190	-0.310	-0.220
2020/01/31 19:34:31.7	30.630	0.230	-0.370	-0.170
2020/01/31 19:34:31.8	30.610	0.270	-0.430	-0.110
2020/01/31 19:34:31.9	30.600	0.310	-0.490	-0.060
2020/01/31 19:34:32.0	30.590	0.340	-0.550	-0.010
2020/01/31 19:34:32.1	30.570	0.370	-0.610	0.030
2020/01/31 19:34:32.2	30.560	0.400	-0.670	0.070
2020/01/31 19:34:32.3	30.540	0.430	-0.730	0.110
2020/01/31 19:34:32.4	30.530	0.450	-0.780	0.140
2020/01/31 19:34:32.5	30.520	0.470	-0.830	0.170
2020/01/31 19:34:32.6	30.520	0.490	-0.880	0.200
2020/01/31 19:34:32.7	30.520	0.510	-0.930	0.220
2020/01/31 19:34:32.8	30.520	0.520	-0.970	0.230
2020/01/31 19:34:32.9	30.510	0.530	-1.000	0.240
2020/01/31 19:34:33.0	30.520	0.530	-1.030	0.240
2020/01/31 19:34:33.1	30.530	0.530	-1.060	0.240
2020/01/31 19:34:33.2	30.540	0.530	-1.080	0.230
2020/01/31 19:34:33.3	30.560	0.530	-1.090	0.220
2020/01/31 19:34:33.4	30.570	0.520	-1.100	0.200
2020/01/31 19:34:33.5	30.590	0.510	-1.100	0.180
2020/01/31 19:34:33.6	30.610	0.490	-1.090	0.160
2020/01/31 19:34:33.7	30.640	0.480	-1.080	0.130
2020/01/31 19:34:33.8	30.660	0.460	-1.070	0.100
2020/01/31 19:34:33.9	30.690	0.440	-1.050	0.070
2020/01/31 19:34:34.0	30.720	0.420	-1.020	0.040
2020/01/31 19:34:34.1	30.750	0.400	-0.980	0.000
2020/01/31 19:34:34.2	30.780	0.370	-0.940	-0.030
2020/01/31 19:34:34.3	30.810	0.340	-0.890	-0.060
2020/01/31 19:34:34.4	30.850	0.320	-0.840	-0.100
2020/01/31 19:34:34.5	30.880	0.290	-0.780	-0.130
2020/01/31 19:34:34.6	30.910	0.260	-0.720	-0.160
2020/01/31 19:34:34.7	30.940	0.230	-0.650	-0.180
2020/01/31 19:34:34.8	30.970	0.190	-0.580	-0.210
2020/01/31 19:34:34.9	31.000	0.160	-0.510	-0.240
2020/01/31 19:34:35.0	31.030	0.130	-0.430	-0.260
2020/01/31 19:34:35.1	31.050	0.100	-0.350	-0.280
2020/01/31 19:34:35.2	31.070	0.060	-0.270	-0.290
2020/01/31 19:34:35.3	31.090	0.030	-0.190	-0.310
2020/01/31 19:34:35.4	31.100	-0.000	-0.100	-0.320
2020/01/31 19:34:35.5	31.120	-0.040	-0.020	-0.330
2020/01/31 19:34:35.6	31.120	-0.070	0.060	-0.330
2020/01/31 19:34:35.7	31.130	-0.100	0.150	-0.340
2020/01/31 19:34:35.8	31.130	-0.140	0.220	-0.340
2020/01/31 19:34:35.9	31.130	-0.170	0.310	-0.350
2020/01/31 19:34:36.0	31.130	-0.200	0.380	-0.350
2020/01/31 19:34:36.1	31.120	-0.230	0.450	-0.340
2020/01/31 19:34:36.2	31.110	-0.250	0.510	-0.340
2020/01/31 19:34:36.3	31.100	-0.280	0.570	-0.340
2020/01/31 19:34:36.4	31.080	-0.300	0.620	-0.330
2020/01/31 19:34:36.5	31.060	-0.320	0.670	-0.330
2020/01/31 19:34:36.6	31.040	-0.340	0.710	-0.320
2020/01/31 19:34:36.7	31.020	-0.360	0.740	-0.320
2020/01/31 19:34:36.8	31.000	-0.370	0.760	-0.320
2020/01/31 19:34:36.9	30.960	-0.380	0.780	-0.310
2020/01/31 19:34:37.0	30.930	-0.390	0.780	-0.310
2020/01/31 19:34:37.1	30.910	-0.400	0.780	-0.310
2020/01/31 19:34:37.2	30.880	-0.400	0.770	-0.310
2020/01/31 19:34:37.3	30.860	-0.400	0.750	-0.310
2020/01/31 19:34:37.4	30.830	-0.400	0.730	-0.320
2020/01/31 19:34:37.5	30.810	-0.400	0.690	-0.320
2020/01/31 19:34:37.6	30.780	-0.390	0.650	-0.330
2020/01/31 19:34:37.7	30.760	-0.380	0.600	-0.340
2020/01/31 19:34:37.8	30.750	-0.360	0.540	-0.350
2020/01/31 19:34:37.9	30.740	-0.340	0.470	-0.370
2020/01/31 19:34:38.0	30.730	-0.320	0.400	-0.380
2020/01/31 19:34:38.1	30.720	-0.300	0.320	-0.400
2020/01/31 19:34:38.2	30.710	-0.270	0.230	-0.420
2020/01/31 19:34:38.3	30.710	-0.250	0.150	-0.440
2020/01/31 19:34:38.4	30.710	-0.220	0.060	-0.460
2020/01/31 19:34:38.5	30.710	-0.190	-0.030	-0.490
2020/01/31 19:34:38.6	30.720	-0.160	-0.130	-0.510
2020/01/31 19:34:38.7	30.730	-0.130	-0.220	-0.540
2020/01/31 19:34:38.8	30.740	-0.090	-0.310	-0.560
2020/01/31 19:34:38.9	30.760	-0.060	-0.400	-0.580
2020/01/31 19:34:39.0	30.780	-0.030	-0.480	-0.610
2020/01/31 19:34:39.1	30.790	-0.000	-0.560	-0.630
2020/01/31 19:34:39.2	30.810	0.030	-0.630	-0.660
2020/01/31 19:34:39.3	30.820	0.050	-0.700	-0.680
2020/01/31 19:34:39.4	30.840	0.080	-0.760	-0.710
2020/01/31 19:34:39.5	30.860	0.100	-0.810	-0.730
2020/01/31 19:34:39.6	30.880	0.120	-0.850	-0.750
2020/01/31 19:34:39.7	30.890	0.140	-0.890	-0.770
2020/01/31 19:34:39.8	30.910	0.160	-0.910	-0.780
2020/01/31 19:34:39.9	30.920	0.180	-0.930	-0.800
2020/01/31 19:34:40.0	30.930	0.190	-0.930	-0.810
2020/01/31 19:34:40.1	30.940	0.200	-0.930	-0.810
2020/01/31 19:34:40.2	30.950	0.210	-0.920	-0.820
2020/01/31 19:34:40.3	30.960	0.210	-0.900	-0.820
2020/01/31 19:34:40.4	30.970	0.220	-0.870	-0.820
2020/01/31 19:34:40.5	30.970	0.220	-0.830	-0.810
2020/01/31 19:34:40.6	30.970	0.220	-0.790	-0.810
2020/01/31 19:34:40.7	30.970	0.220	-0.740	-0.800
2020/01/31 19:34:40.8	30.970	0.210	-0.680	-0.780
2020/01/31 19:34:40.9	30.960	0.210	-0.620	-0.760
2020/01/31 19:34:41.0	30.960	0.200	-0.550	-0.740
2020/01/31 19:34:41.1	30.950	0.190	-0.490	-0.720
2020/01/31 19:34:41.2	30.940	0.190	-0.410	-0.690
2020/01/31 19:34:41.3	30.930	0.180	-0.340	-0.660
2020/01/31 19:34:41.4	30.920	0.170	-0.270	-0.630
2020/01/31 19:34:41.5	30.910	0.160	-0.200	-0.590
2020/01/31 19:34:41.6	30.890	0.150	-0.120	-0.550
2020/01/31 19:34:41.7	30.880	0.140	-0.050	-0.510
2020/01/31 19:34:41.8	30.860	0.120	0.010	-0.470
2020/01/31 19:34:41.9	30.840	0.110	0.070	-0.430
2020/01/31 19:34:42.0	30.820	0.100	0.130	-0.390
2020/01/31 19:34:42.1	30.800	0.090	0.190	-0.340
2020/01/31 19:34:42.2	30.780	0.080	0.240	-0.300
2020/01/31 19:34:42.3	30.770	0.070	0.280	-0.260
2020/01/31 19:34:42.4	30.750	0.060	0.320	-0.220
2020/01/31 19:34:42.5	30.730	0.040	0.350	-0.180
2020/01/31 19:34:42.6	30.710	0.030	0.370	-0.140
2020/01/31 19:34:42.7	30.690	0.020	0.390	-0.100
2020/01/31 19:34:42.8	30.670	0.000	0.400	-0.070
2020/01/31 19:34:42.9	30.660	-0.010	0.400	-0.040
2020/01/31 19:34:43.0	30.640	-0.020	0.400	-0.020
2020/01/31 19:34:43.1	30.630	-0.040	0.390	0.000
2020/01/31 19:34:43.2	30.620	-0.050	0.370	0.020
2020/01/31 19:34:43.3	30.600	-0.070	0.350	0.030
2020/01/31 19:34:43.4	30.600	-0.080	0.320	0.040
2020/01/31 19:34:43.5	30.590	-0.100	0.280	0.040
2020/01/31 19:34:43.6	30.580	-0.110	0.240	0.040
2020/01/31 19:34:43.7	30.580	-0.130	0.200	0.040
2020/01/31 19:34:43.8	30.580	-0.140	0.150	0.020
2020/01/31 19:34:43.9	30.580	-0.160	0.100	0.010
2020/01/31 19:34:44.0	30.590	-0.170	0.040	-0.010
2020/01/31 19:34:44.1	30.590	-0.190	-0.010	-0.030
2020/01/31 19:34:44.2	30.600	-0.200	-0.070	-0.050
2020/01/31 19:34:44.3	30.610	-0.220	-0.130	-0.080
2020/01/31 19:34:44.4	30.610	-0.230	-0.190	-0.110
2020/01/31 19:34:44.5	30.630	-0.240	-0.240	-0.140
2020/01/31 19:34:44.6	30.640	-0.250	-0.300	-0.170
2020/01/31 19:34:44.7	30.650	-0.260	-0.350	-0.210
2020/01/31 19:34:44.8	30.670	-0.270	-0.400	-0.240
2020/01/31 19:34:44.9	30.690	-0.280	-0.450	-0.280
2020/01/31 19:34:45.0	30.700	-0.290	-0.490	-0.310
2020/01/31 19:34:45.1	30.720	-0.290	-0.530	-0.340
2020/01/31 19:34:45.2	30.730	-0.290	-0.560	-0.370
2020/01/31 19:34:45.3	30.750	-0.290	-0.590	-0.400
2020/01/31 19:34:45.4	30.760	-0.290	-0.610	-0.420
2020/01/31 19:34:45.5	30.780	-0.290	-0.630	-0.440
2020/01/31 19:34:45.6	30.790	-0.280	-0.640	-0.450
2020/01/31 19:34:45.7	30.800	-0.270	-0.640	-0.460
2020/01/31 19:34:45.8	30.810	-0.260	-0.630	-0.470
2020/01/31 19:34:45.9	30.820	-0.250	-0.620	-0.470
2020/01/31 19:34:46.0	30.820	-0.240	-0.600	-0.470
2020/01/31 19:34:46.1	30.830	-0.220	-0.580	-0.450
2020/01/31 19:34:46.2	30.830	-0.200	-0.550	-0.440
2020/01/31 19:34:46.3	30.830	-0.180	-0.510	-0.410
2020/01/31 19:34:46.4	30.820	-0.150	-0.470	-0.380
2020/01/31 19:34:46.5	30.820	-0.130	-0.430	-0.350
2020/01/31 19:34:46.6	30.810	-0.100	-0.380	-0.310
2020/01/31 19:34:46.7	30.790	-0.070	-0.320	-0.260
2020/01/31 19:34:46.8	30.780	-0.040	-0.270	-0.210
2020/01/31 19:34:46.9	30.750	-0.010	-0.220	-0.160
2020/01/31 19:34:47.0	30.730	0.020	-0.160	-0.100
2020/01/31 19:34:47.1	30.700	0.050	-0.110	-0.040
2020/01/31 19:34:47.2	30.680	0.080	-0.050	0.020
2020/01/31 19:34:47.3	30.650	0.110	0.000	0.090
2020/01/31 19:34:47.4	30.610	0.130	0.050	0.150
2020/01/31 19:34:47.5	30.580	0.160	0.100	0.220
2020/01/31 19:34:47.6	30.540	0.190	0.140	0.280
2020/01/31 19:34:47.7	30.500	0.210	0.170	0.340
2020/01/31 19:34:47.8	30.460	0.240	0.200	0.400
2020/01/31 19:34:47.9	30.430	0.260	0.220	0.460
2020/01/31 19:34:48.0	30.390	0.280	0.240	0.510
2020/01/31 19:34:48.1	30.350	0.300	0.250	0.560
2020/01/31 19:34:48.2	30.310	0.310	0.250	0.600
2020/01/31 19:34:48.3	30.280	0.320	0.250	0.640
2020/01/31 19:34:48.4	30.250	0.330	0.230	0.680
2020/01/31 19:34:48.5	30.220	0.340	0.210	0.710
2020/01/31 19:34:48.6	30.190	0.350	0.180	0.730
2020/01/31 19:34:48.7	30.170	0.350	0.150	0.750
2020/01/31 19:34:48.8	30.150	0.360	0.100	0.760
2020/01/31 19:34:48.9	30.130	0.360	0.050	0.760
2020/01/31 19:34:49.0	30.130	0.360	-0.010	0.760
2020/01/31 19:34:49.1	30.120	0.360	-0.070	0.750
2020/01/31 19:34:49.2	30.120	0.350	-0.140	0.730
2020/01/31 19:34:49.3	30.130	0.350	-0.210	0.710
2020/01/31 19:34:49.4	30.140	0.340	-0.290	0.680
2020/01/31 19:34:49.5	30.160	0.330	-0.370	0.640
2020/01/31 19:34:49.6	30.190	0.320	-0.450	0.600
2020/01/31 19:34:49.7	30.210	0.320	-0.540	0.550
2020/01/31 19:34:49.8	30.250	0.310	-0.620	0.500
2020/01/31 19:34:49.9	30.290	0.300	-0.700	0.440
2020/01/31 19:34:50.0	30.330	0.290	-0.780	0.370
2020/01/31 19:34:50.1	30.380	0.280	-0.850	0.310
2020/01/31 19:34:50.2	30.420	0.270	-0.920	0.230
2020/01/31 19:34:50.3	30.470	0.250	-0.990	0.160
2020/01/31 19:34:50.4	30.520	0.240	-1.040	0.080
2020/01/31 19:34:50.5	30.570	0.230	-1.090	-0.000
2020/01/31 19:34:50.6	30.620	0.220	-1.130	-0.080
2020/01/31 19:34:50.7	30.670	0.210	-1.160	-0.160
2020/01/31 19:34:50.8	30.710	0.200	-1.190	-0.240
2020/01/31 19:34:50.9	30.760	0.190	-1.190	-0.330
2020/01/31 19:34:51.0	30.800	0.180	-1.190	-0.410
2020/01/31 19:34:51.1	30.840	0.160	-1.180	-0.480
2020/01/31 19:34:51.2	30.880	0.150	-1.150	-0.550
2020/01/31 19:34:51.3	30.910	0.140	-1.120	-0.620
2020/01/31 19:34:51.4	30.940	0.130	-1.070	-0.680
2020/01/31 19:34:51.5	30.970	0.120	-1.010	-0.730
2020/01/31 19:34:51.6	30.990	0.110	-0.940	-0.780
2020/01/31 19:34:51.7	31.010	0.100	-0.850	-0.830
2020/01/31 19:34:51.8	31.020	0.090	-0.760	-0.860
2020/01/31 19:34:51.9	31.040	0.070	-0.670	-0.890
2020/01/31 19:34:52.0	31.040	0.060	-0.560	-0.920
2020/01/31 19:34:52.1	31.040	0.040	-0.450	-0.930
2020/01/31 19:34:52.2	31.040	0.030	-0.330	-0.940
2020/01/31 19:34:52.3	31.030	0.010	-0.210	-0.950
2020/01/31 19:34:52.4	31.020	-0.010	-0.090	-0.940
2020/01/31 19:34:52.5	31.010	-0.030	0.040	-0.930
2020/01/31 19:34:52.6	30.990	-0.060	0.160	-0.920
2020/01/31 19:34:52.7	30.970	-0.080	0.290	-0.890
2020/01/31 19:34:52.8	30.950	-0.110	0.410	-0.860
2020/01/31 19:34:52.9	30.920	-0.140	0.520	-0.830
2020/01/31 19:34:53.0	30.890	-0.170	0.640	-0.790
2020/01/31 19:34:53.1	30.860	-0.200	0.750	-0.750
2020/01/31 19:34:53.2	30.820	-0.230	0.850	-0.700
2020/01/31 19:34:53.3	30.790	-0.270	0.940	-0.650
2020/01/31 19:34:53.4	30.750	-0.300	1.030	-0.600
2020/01/31 19:34:53.5	30.720	-0.340	1.110	-0.540
2020/01/31 19:34:53.6	30.680	-0.380	1.170	-0.480
2020/01/31 19:34:53.7	30.640	-0.410	1.230	-0.430
2020/01/31 19:34:53.8	30.610	-0.450	1.280	-0.370
2020/01/31 19:34:53.9	30.560	-0.480	1.310	-0.310
2020/01/31 19:34:54.0	30.530	-0.520	1.330	-0.250
2020/01/31 19:34:54.1	30.490	-0.550	1.340	-0.190
2020/01/31 19:34:54.2	30.460	-0.580	1.340	-0.140
2020/01/31 19:34:54.3	30.440	-0.610	1.330	-0.090
2020/01/31 19:34:54.4	30.410	-0.640	1.310	-0.040
2020/01/31 19:34:54.5	30.390	-0.660	1.270	-0.000
2020/01/31 19:34:54.6	30.370	-0.680	1.220	0.040
2020/01/31 19:34:54.7	30.350	-0.690	1.160	0.070
2020/01/31 19:34:54.8	30.340	-0.710	1.090	0.100
2020/01/31 19:34:54.9	30.350	-0.710	1.010	0.120
2020/01/31 19:34:55.0	30.350	-0.710	0.920	0.140
2020/01/31 19:34:55.1	30.350	-0.710	0.820	0.150
2020/01/31 19:34:55.2	30.360	-0.700	0.710	0.160
2020/01/31 19:34:55.3	30.370	-0.680	0.590	0.170
2020/01/31 19:34:55.4	30.390	-0.660	0.470	0.170
2020/01/31 19:34:55.5	30.410	-0.630	0.340	0.170
2020/01/31 19:34:55.6	30.430	-0.600	0.210	0.160
2020/01/31 19:34:55.7	30.460	-0.560	0.070	0.150
2020/01/31 19:34:55.8	30.490	-0.520	-0.070	0.140
2020/01/31 19:34:55.9	30.520	-0.470	-0.210	0.120
2020/01/31 19:34:56.0	30.560	-0.410	-0.350	0.100
2020/01/31 19:34:56.1	30.600	-0.360	-0.480	0.080
2020/01/31 19:34:56.2	30.640	-0.300	-0.620	0.060
2020/01/31 19:34:56.3	30.680	-0.230	-0.750	0.030
2020/01/31 19:34:56.4	30.720	-0.170	-0.880	0.010
2020/01/31 19:34:56.5	30.770	-0.100	-1.010	-0.020
2020/01/31 19:34:56.6	30.810	-0.030	-1.120	-0.040
2020/01/31 19:34:56.7	30.860	0.050	-1.230	-0.070
2020/01/31 19:34:56.8	30.900	0.120	-1.330	-0.100
2020/01/31 19:34:56.9	30.960	0.190	-1.430	-0.120
2020/01/31 19:34:57.0	31.000	0.260	-1.510	-0.150
2020/01/31 19:34:57.1	31.040	0.330	-1.580	-0.170
2020/01/31 19:34:57.2	31.080	0.390	-1.640	-0.190
2020/01/31 19:34:57.3	31.120	0.460	-1.680	-0.210
2020/01/31 19:34:57.4	31.150	0.520	-1.720	-0.230
2020/01/31 19:34:57.5	31.180	0.570	-1.740	-0.250
2020/01/31 19:34:57.6	31.210	0.630	-1.750	-0.270
2020/01/31 19:34:57.7	31.230	0.670	-1.750	-0.280
2020/01/31 19:34:57.8	31.260	0.710	-1.740	-0.290
2020/01/31 19:34:57.9	31.270	0.750	-1.720	-0.300
2020/01/31 19:34:58.0	31.280	0.780	-1.680	-0.310
2020/01/31 19:34:58.1	31.290	0.800	-1.640	-0.310
2020/01/31 19:34:58.2	31.300	0.820	-1.580	-0.310
2020/01/31 19:34:58.3	31.300	0.830	-1.510	-0.310
2020/01/31 19:34:58.4	31.300	0.840	-1.440	-0.300
2020/01/31 19:34:58.5	31.300	0.840	-1.350	-0.290
2020/01/31 19:34:58.6	31.290	0.830	-1.260	-0.280
2020/01/31 19:34:58.7	31.280	0.810	-1.160	-0.260
2020/01/31 19:34:58.8	31.260	0.790	-1.050	-0.250
2020/01/31 19:34:58.9	31.240	0.760	-0.940	-0.230
2020/01/31 19:34:59.0	31.210	0.730	-0.830	-0.210
2020/01/31 19:34:59.1	31.190	0.690	-0.710	-0.180
2020/01/31 19:34:59.2	31.160	0.650	-0.580	-0.160
2020/01/31 19:34:59.3	31.130	0.600	-0.460	-0.130
2020/01/31 19:34:59.4	31.090	0.540	-0.340	-0.110
2020/01/31 19:34:59.5	31.060	0.490	-0.210	-0.090
2020/01/31 19:34:59.6	31.020	0.430	-0.090	-0.060
2020/01/31 19:34:59.7	30.980	0.360	0.030	-0.040
2020/01/31 19:34:59.8	30.930	0.300	0.150	-0.020
2020/01/31 19:34:59.9	30.880	0.230	0.260	-0.000
2020/01/31 19:35:00.0	30.840	0.160	0.370	0.010
2020/01/31 19:35:00.1	30.800	0.090	0.470	0.020
2020/01/31 19:35:00.2	30.750	0.020	0.570	0.030
2020/01/31 19:35:00.3	30.710	-0.050	0.650	0.030
2020/01/31 19:35:00.4	30.660	-0.110	0.730	0.030
2020/01/31 19:35:00.5	30.620	-0.180	0.800	0.020
2020/01/31 19:35:00.6	30.580	-0.240	0.860	0.010
2020/01/31 19:35:00.7	30.540	-0.300	0.910	-0.010
2020/01/31 19:35:00.8	30.510	-0.360	0.950	-0.030
2020/01/31 19:35:00.9	30.480	-0.410	0.980	-0.060
2020/01/31 19:35:01.0	30.450	-0.450	1.000	-0.100
2020/01/31 19:35:01.1	30.420	-0.500	1.010	-0.130
2020/01/31 19:35:01.2	30.390	-0.530	1.010	-0.180
2020/01/31 19:35:01.3	30.370	-0.570	0.990	-0.230
2020/01/31 19:35:01.4	30.350	-0.590	0.970	-0.280
2020/01/31 19:35:01.5	30.330	-0.610	0.930	-0.330
2020/01/31 19:35:01.6	30.310	-0.630	0.890	-0.390
2020/01/31 19:35:01.7	30.300	-0.640	0.830	-0.450
2020/01/31 19:35:01.8	30.290	-0.640	0.770	-0.510
2020/01/31 19:35:01.9	30.280	-0.630	0.710	-0.580
2020/01/31 19:35:02.0	30.270	-0.620	0.630	-0.640
2020/01/31 19:35:02.1	30.260	-0.610	0.550	-0.700
2020/01/31 19:35:02.2	30.260	-0.590	0.470	-0.760
2020/01/31 19:35:02.3	30.260	-0.560	0.380	-0.820
2020/01/31 19:35:02.4	30.260	-0.530	0.290	-0.880
2020/01/31 19:35:02.5	30.260	-0.500	0.190	-0.940
2020/01/31 19:35:02.6	30.260	-0.460	0.100	-0.990
2020/01/31 19:35:02.7	30.260	-0.420	0.010	-1.040
2020/01/31 19:35:02.8	30.260	-0.370	-0.080	-1.090
2020/01/31 19:35:02.9	30.270	-0.320	-0.170	-1.140
2020/01/31 19:35:03.0	30.280	-0.270	-0.250	-1.180
2020/01/31 19:35:03.1	30.280	-0.220	-0.330	-1.220
2020/01/31 19:35:03.2	30.290	-0.170	-0.400	-1.250
2020/01/31 19:35:03.3	30.290	-0.120	-0.470	-1.280
2020/01/31 19:35:03.4	30.300	-0.070	-0.530	-1.310
2020/01/31 19:35:03.5	30.300	-0.010	-0.580	-1.340
2020/01/31 19:35:03.6	30.310	0.040	-0.620	-1.360
2020/01/31 19:35:03.7	30.310	0.090	-0.660	-1.370
2020/01/31 19:35:03.8	30.320	0.140	-0.690	-1.380
2020/01/31 19:35:03.9	30.330	0.180	-0.710	-1.390
2020/01/31 19:35:04.0	30.330	0.230	-0.720	-1.390
2020/01/31 19:35:04.1	30.340	0.270	-0.730	-1.390
2020/01/31 19:35:04.2	30.340	0.310	-0.730	-1.380
2020/01/31 19:35:04.3	30.350	0.340	-0.720	-1.370
2020/01/31 19:35:04.4	30.350	0.380	-0.710	-1.360
2020/01/31 19:35:04.5	30.360	0.410	-0.690	-1.340
2020/01/31 19:35:04.6	30.360	0.430	-0.660	-1.310
2020/01/31 19:35:04.7	30.370	0.460	-0.630	-1.290
2020/01/31 19:35:04.8	30.370	0.480	-0.600	-1.250
2020/01/31 19:35:04.9	30.380	0.490	-0.570	-1.220
2020/01/31 19:35:05.0	30.390	0.510	-0.530	-1.180
2020/01/31 19:35:05.1	30.390	0.520	-0.490	-1.130
2020/01/31 19:35:05.2	30.400	0.520	-0.450	-1.090
2020/01/31 19:35:05.3	30.410	0.530	-0.420	-1.040
2020/01/31 19:35:05.4	30.420	0.530	-0.380	-0.990
2020/01/31 19:35:05.5	30.430	0.520	-0.340	-0.940
2020/01/31 19:35:05.6	30.440	0.520	-0.310	-0.880
2020/01/31 19:35:05.7	30.450	0.510	-0.280	-0.830
2020/01/31 19:35:05.8	30.450	0.490	-0.250	-0.770
2020/01/31 19:35:05.9	30.460	0.470	-0.220	-0.710
2020/01/31 19:35:06.0	30.460	0.450	-0.200	-0.650
2020/01/31 19:35:06.1	30.470	0.430	-0.170	-0.590
2020/01/31 19:35:06.2	30.470	0.400	-0.150	-0.530
2020/01/31 19:35:06.3	30.480	0.370	-0.140	-0.470
2020/01/31 19:35:06.4	30.480	0.340	-0.120	-0.420
2020/01/31 19:35:06.5	30.470	0.300	-0.110	-0.360
2020/01/31 19:35:06.6	30.470	0.260	-0.100	-0.310
2020/01/31 19:35:06.7	30.470	0.220	-0.090	-0.250
2020/01/31 19:35:06.8	30.460	0.170	-0.080	-0.210
2020/01/31 19:35:06.9	30.450	0.130	-0.070	-0.150
2020/01/31 19:35:07.0	30.440	0.080	-0.070	-0.110
2020/01/31 19:35:07.1	30.430	0.030	-0.070	-0.070
2020/01/31 19:35:07.2	30.410	-0.020	-0.070	-0.040
2020/01/31 19:35:07.3	30.390	-0.070	-0.070	-0.000
2020/01/31 19:35:07.4	30.370	-0.120	-0.070	0.030
2020/01/31 19:35:07.5	30.350	-0.170	-0.070	0.050
2020/01/31 19:35:07.6	30.330	-0.220	-0.070	0.080
2020/01/31 19:35:07.7	30.310	-0.270	-0.070	0.100
2020/01/31 19:35:07.8	30.280	-0.310	-0.070	0.120
2020/01/31 19:35:07.9	30.250	-0.360	-0.070	0.130
2020/01/31 19:35:08.0	30.220	-0.400	-0.080	0.150
2020/01/31 19:35:08.1	30.190	-0.440	-0.080	0.160
2020/01/31 19:35:08.2	30.160	-0.480	-0.070	0.180
2020/01/31 19:35:08.3	30.130	-0.510	-0.070	0.190
2020/01/31 19:35:08.4	30.100	-0.540	-0.070	0.210
2020/01/31 19:35:08.5	30.070	-0.570	-0.070	0.220
2020/01/31 19:35:08.6	30.030	-0.590	-0.070	0.240
2020/01/31 19:35:08.7	30.000	-0.610	-0.070	0.250
2020/01/31 19:35:08.8	29.970	-0.630	-0.070	0.270
2020/01/31 19:35:08.9	29.930	-0.640	-0.070	0.290
2020/01/31 19:35:09.0	29.890	-0.640	-0.070	0.310
2020/01/31 19:35:09.1	29.860	-0.640	-0.070	0.320
2020/01/31 19:35:09.2	29.830	-0.640	-0.070	0.340
2020/01/31 19:35:09.3	29.800	-0.630	-0.070	0.360
2020/01/31 19:35:09.4	29.770	-0.610	-0.080	0.380
2020/01/31 19:35:09.5	29.750	-0.600	-0.080	0.410
2020/01/31 19:35:09.6	29.720	-0.570	-0.090	0.430
2020/01/31 19:35:09.7	29.690	-0.550	-0.100	0.450
2020/01/31 19:35:09.8	29.670	-0.520	-0.100	0.470
2020/01/31 19:35:09.9	29.640	-0.490	-0.110	0.490
2020/01/31 19:35:10.0	29.620	-0.460	-0.120	0.510
2020/01/31 19:35:10.1	29.590	-0.420	-0.130	0.530
2020/01/31 19:35:10.2	29.570	-0.380	-0.140	0.550
2020/01/31 19:35:10.3	29.550	-0.340	-0.160	0.570
2020/01/31 19:35:10.4	29.540	-0.300	-0.170	0.590
2020/01/31 19:35:10.5	29.520	-0.260	-0.180	0.610
2020/01/31 19:35:10.6	29.500	-0.220	-0.190	0.620
2020/01/31 19:35:10.7	29.490	-0.180	-0.210	0.640
2020/01/31 19:35:10.8	29.480	-0.140	-0.220	0.650
2020/01/31 19:35:10.9	29.470	-0.090	-0.230	0.660
2020/01/31 19:35:11.0	29.460	-0.060	-0.240	0.670
2020/01/31 19:35:11.1	29.460	-0.020	-0.250	0.670
2020/01/31 19:35:11.2	29.460	0.020	-0.260	0.670
2020/01/31 19:35:11.3	29.460	0.060	-0.270	0.670
2020/01/31 19:35:11.4	29.470	0.090	-0.280	0.670
2020/01/31 19:35:11.5	29.470	0.120	-0.290	0.660
2020/01/31 19:35:11.6	29.490	0.160	-0.300	0.650
2020/01/31 19:35:11.7	29.500	0.180	-0.310	0.640
2020/01/31 19:35:11.8	29.520	0.210	-0.320	0.620
2020/01/31 19:35:11.9	29.530	0.240	-0.330	0.610
2020/01/31 19:35:12.0	29.560	0.260	-0.340	0.590
2020/01/31 19:35:12.1	29.580	0.280	-0.350	0.570
2020/01/31 19:35:12.2	29.610	0.300	-0.350	0.560
2020/01/31 19:35:12.3	29.640	0.310	-0.360	0.540
2020/01/31 19:35:12.4	29.670	0.330	-0.360	0.520
2020/01/31 19:35:12.5	29.700	0.340	-0.360	0.500
2020/01/31 19:35:12.6	29.740	0.350	-0.360	0.490
2020/01/31 19:35:12.7	29.770	0.360	-0.370	0.470
2020/01/31 19:35:12.8	29.810	0.370	-0.360	0.450
2020/01/31 19:35:12.9	29.860	0.380	-0.360	0.440
2020/01/31 19:35:13.0	29.900	0.380	-0.360	0.430
2020/01/31 19:35:13.1	29.940	0.380	-0.350	0.420
2020/01/31 19:35:13.2	29.980	0.380	-0.350	0.410
2020/01/31 19:35:13.3	30.020	0.390	-0.340	0.400
2020/01/31 19:35:13.4	30.070	0.390	-0.330	0.400
2020/01/31 19:35:13.5	30.110	0.390	-0.320	0.400
2020/01/31 19:35:13.6	30.150	0.380	-0.310	0.400
2020/01/31 19:35:13.7	30.190	0.380	-0.300	0.400
2020/01/31 19:35:13.8	30.230	0.380	-0.290	0.410
2020/01/31 19:35:13.9	30.270	0.370	-0.280	0.420
2020/01/31 19:35:14.0	30.310	0.370	-0.260	0.430
2020/01/31 19:35:14.1	30.340	0.370	-0.250	0.440
2020/01/31 19:35:14.2	30.380	0.360	-0.240	0.450
2020/01/31 19:35:14.3	30.410	0.360	-0.220	0.460
2020/01/31 19:35:14.4	30.450	0.350	-0.210	0.470
2020/01/31 19:35:14.5	30.480	0.350	-0.190	0.490
2020/01/31 19:35:14.6	30.520	0.340	-0.180	0.500
2020/01/31 19:35:14.7	30.550	0.330	-0.170	0.510
2020/01/31 19:35:14.8	30.580	0.330	-0.160	0.520
2020/01/31 19:35:14.9	30.600	0.320	-0.140	0.520
2020/01/31 19:35:15.0	30.630	0.320	-0.130	0.530
2020/01/31 19:35:15.1	30.660	0.310	-0.130	0.530
2020/01/31 19:35:15.2	30.690	0.300	-0.120	0.530
2020/01/31 19:35:15.3	30.720	0.300	-0.110	0.530
2020/01/31 19:35:15.4	30.750	0.290	-0.110	0.530
2020/01/31 19:35:15.5	30.770	0.280	-0.110	0.530
2020/01/31 19:35:15.6	30.800	0.270	-0.110	0.520
2020/01/31 19:35:15.7	30.820	0.270	-0.110	0.510
2020/01/31 19:35:15.8	30.840	0.260	-0.120	0.500
2020/01/31 19:35:15.9	30.880	0.250	-0.120	0.480
2020/01/31 19:35:16.0	30.900	0.240	-0.130	0.470
2020/01/31 19:35:16.1	30.910	0.230	-0.140	0.450
2020/01/31 19:35:16.2	30.930	0.220	-0.140	0.440
2020/01/31 19:35:16.3	30.940	0.210	-0.150	0.420
2020/01/31 19:35:16.4	30.950	0.200	-0.160	0.400
2020/01/31 19:35:16.5	30.960	0.180	-0.160	0.380
2020/01/31 19:35:16.6	30.970	0.170	-0.170	0.360
2020/01/31 19:35:16.7	30.970	0.160	-0.180	0.340
2020/01/31 19:35:16.8	30.980	0.140	-0.180	0.320
2020/01/31 19:35:16.9	30.970	0.120	-0.180	0.300
2020/01/31 19:35:17.0	30.970	0.110	-0.190	0.280
2020/01/31 19:35:17.1	30.970	0.090	-0.190	0.250
2020/01/31 19:35:17.2	30.960	0.070	-0.190	0.230
2020/01/31 19:35:17.3	30.960	0.050	-0.180	0.210
2020/01/31 19:35:17.4	30.950	0.030	-0.180	0.180
2020/01/31 19:35:17.5	30.940	0.010	-0.170	0.150
2020/01/31 19:35:17.6	30.940	-0.020	-0.160	0.130
2020/01/31 19:35:17.7	30.930	-0.040	-0.160	0.100
2020/01/31 19:35:17.8	30.920	-0.060	-0.140	0.070
2020/01/31 19:35:17.9	30.920	-0.080	-0.140	0.040
2020/01/31 19:35:18.0	30.910	-0.110	-0.120	0.010
2020/01/31 19:35:18.1	30.900	-0.130	-0.110	-0.020
2020/01/31 19:35:18.2	30.900	-0.150	-0.090	-0.060
2020/01/31 19:35:18.3	30.890	-0.170	-0.070	-0.090
2020/01/31 19:35:18.4	30.890	-0.200	-0.060	-0.130
2020/01/31 19:35:18.5	30.880	-0.220	-0.040	-0.170
2020/01/31 19:35:18.6	30.880	-0.240	-0.020	-0.210
2020/01/31 19:35:18.7	30.880	-0.250	-0.010	-0.250
2020/01/31 19:35:18.8	30.880	-0.270	0.010	-0.290
2020/01/31 19:35:18.9	30.890	-0.290	0.030	-0.340
2020/01/31 19:35:19.0	30.890	-0.300	0.040	-0.390
2020/01/31 19:35:19.1	30.900	-0.320	0.050	-0.440
2020/01/31 19:35:19.2	30.900	-0.330	0.060	-0.490
2020/01/31 19:35:19.3	30.910	-0.330	0.070	-0.550
2020/01/31 19:35:19.4	30.920	-0.340	0.070	-0.600
2020/01/31 19:35:19.5	30.930	-0.340	0.080	-0.650
2020/01/31 19:35:19.6	30.940	-0.350	0.080	-0.710
2020/01/31 19:35:19.7	30.960	-0.350	0.080	-0.770
2020/01/31 19:35:19.8	30.980	-0.340	0.070	-0.820
2020/01/31 19:35:19.9	30.990	-0.340	0.060	-0.880
2020/01/31 19:35:20.0	31.010	-0.330	0.050	-0.940
2020/01/31 19:35:20.1	31.030	-0.320	0.040	-0.990
2020/01/31 19:35:20.2	31.060	-0.310	0.030	-1.050
2020/01/31 19:35:20.3	31.080	-0.290	0.020	-1.100
2020/01/31 19:35:20.4	31.110	-0.280	0.000	-1.160
2020/01/31 19:35:20.5	31.140	-0.260	-0.020	-1.210
2020/01/31 19:35:20.6	31.170	-0.240	-0.040	-1.260
2020/01/31 19:35:20.7	31.200	-0.220	-0.060	-1.300
2020/01/31 19:35:20.8	31.230	-0.200	-0.080	-1.350
2020/01/31 19:35:20.9	31.270	-0.170	-0.110	-1.390
2020/01/31 19:35:21.0	31.310	-0.150	-0.130	-1.440
2020/01/31 19:35:21.1	31.340	-0.120	-0.160	-1.480
2020/01/31 19:35:21.2	31.380	-0.100	-0.190	-1.510
2020/01/31 19:35:21.3	31.420	-0.070	-0.220	-1.550
2020/01/31 19:35:21.4	31.460	-0.040	-0.250	-1.580
2020/01/31 19:35:21.5	31.500	-0.020	-0.280	-1.610
2020/01/31 19:35:21.6	31.540	0.010	-0.310	-1.640
2020/01/31 19:35:21.7	31.590	0.030	-0.340	-1.670
2020/01/31 19:35:21.8	31.630	0.060	-0.370	-1.690
2020/01/31 19:35:21.9	31.670	0.080	-0.410	-1.710
2020/01/31 19:35:22.0	31.710	0.100	-0.430	-1.730
2020/01/31 19:35:22.1	31.750	0.120	-0.460	-1.740
2020/01/31 19:35:22.2	31.780	0.130	-0.480	-1.760
2020/01/31 19:35:22.3	31.820	0.150	-0.500	-1.770
2020/01/31 19:35:22.4	31.860	0.160	-0.520	-1.780
2020/01/31 19:35:22.5	31.890	0.170	-0.540	-1.780
2020/01/31 19:35:22.6	31.920	0.170	-0.550	-1.790
2020/01/31 19:35:22.7	31.950	0.170	-0.550	-1.790
2020/01/31 19:35:22.8	31.980	0.170	-0.560	-1.790
2020/01/31 19:35:22.9	32.000	0.170	-0.560	-1.780
2020/01/31 19:35:23.0	32.020	0.170	-0.550	-1.770
2020/01/31 19:35:23.1	32.040	0.160	-0.540	-1.760
2020/01/31 19:35:23.2	32.060	0.150	-0.530	-1.750
2020/01/31 19:35:23.3	32.070	0.130	-0.510	-1.730
2020/01/31 19:35:23.4	32.080	0.120	-0.490	-1.710
2020/01/31 19:35:23.5	32.080	0.100	-0.460	-1.690
2020/01/31 19:35:23.6	32.080	0.080	-0.430	-1.660
2020/01/31 19:35:23.7	32.080	0.050	-0.390	-1.630
2020/01/31 19:35:23.8	32.070	0.030	-0.360	-1.600
2020/01/31 19:35:23.9	32.050	0.000	-0.310	-1.570
2020/01/31 19:35:24.0	32.030	-0.020	-0.270	-1.530
2020/01/31 19:35:24.1	32.010	-0.050	-0.220	-1.490
2020/01/31 19:35:24.2	31.980	-0.080	-0.170	-1.440
2020/01/31 19:35:24.3	31.950	-0.110	-0.120	-1.400
2020/01/31 19:35:24.4	31.920	-0.140	-0.070	-1.350
2020/01/31 19:35:24.5	31.880	-0.170	-0.020	-1.300
2020/01/31 19:35:24.6	31.840	-0.200	0.030	-1.260
2020/01/31 19:35:24.7	31.790	-0.230	0.080	-1.200
2020/01/31 19:35:24.8	31.750	-0.260	0.130	-1.150
2020/01/31 19:35:24.9	31.690	-0.280	0.170	-1.090
2020/01/31 19:35:25.0	31.630	-0.310	0.220	-1.040
2020/01/31 19:35:25.1	31.570	-0.330	0.260	-0.990
2020/01/31 19:35:25.2	31.510	-0.350	0.300	-0.940
2020/01/31 19:35:25.3	31.450	-0.370	0.330	-0.890
2020/01/31 19:35:25.4	31.380	-0.390	0.350	-0.840
2020/01/31 19:35:25.5	31.320	-0.400	0.370	-0.790
2020/01/31 19:35:25.6	31.250	-0.410	0.380	-0.740
2020/01/31 19:35:25.7	31.190	-0.410	0.390	-0.700
2020/01/31 19:35:25.8	31.120	-0.420	0.390	-0.650
2020/01/31 19:35:25.9	31.060	-0.410	0.380	-0.620
2020/01/31 19:35:26.0	31.000	-0.410	0.370	-0.580
2020/01/31 19:35:26.1	30.940	-0.400	0.340	-0.540
2020/01/31 19:35:26.2	30.880	-0.390	0.310	-0.510
2020/01/31 19:35:26.3	30.820	-0.370	0.270	-0.480
2020/01/31 19:35:26.4	30.760	-0.350	0.220	-0.450
2020/01/31 19:35:26.5	30.710	-0.320	0.160	-0.430
2020/01/31 19:35:26.6	30.660	-0.290	0.100	-0.410
2020/01/31 19:35:26.7	30.610	-0.260	0.040	-0.390
2020/01/31 19:35:26.8	30.570	-0.220	-0.030	-0.370
2020/01/31 19:35:26.9	30.530	-0.180	-0.110	-0.360
2020/01/31 19:35:27.0	30.490	-0.140	-0.190	-0.350
2020/01/31 19:35:27.1	30.460	-0.100	-0.270	-0.350
2020/01/31 19:35:27.2	30.420	-0.050	-0.350	-0.340
2020/01/31 19:35:27.3	30.400	-0.010	-0.430	-0.340
2020/01/31 19:35:27.4	30.370	0.040	-0.500	-0.340
2020/01/31 19:35:27.5	30.340	0.090	-0.580	-0.340
2020/01/31 19:35:27.6	30.320	0.140	-0.650	-0.340
2020/01/31 19:35:27.7	30.300	0.180	-0.720	-0.340
2020/01/31 19:35:27.8	30.280	0.230	-0.780	-0.340
2020/01/31 19:35:27.9	30.270	0.280	-0.830	-0.340
2020/01/31 19:35:28.0	30.250	0.320	-0.880	-0.340
2020/01/31 19:35:28.1	30.230	0.360	-0.930	-0.340
2020/01/31 19:35:28.2	30.210	0.390	-0.960	-0.340
2020/01/31 19:35:28.3	30.190	0.430	-0.990	-0.340
2020/01/31 19:35:28.4	30.170	0.460	-1.010	-0.340
2020/01/31 19:35:28.5	30.150	0.490	-1.020	-0.340
2020/01/31 19:35:28.6	30.130	0.510	-1.020	-0.340
2020/01/31 19:35:28.7	30.110	0.530	-1.010	-0.340
2020/01/31 19:35:28.8	30.090	0.540	-1.000	-0.340
2020/01/31 19:35:28.9	30.070	0.550	-0.980	-0.350
2020/01/31 19:35:29.0	30.050	0.560	-0.950	-0.350
2020/01/31 19:35:29.1	30.030	0.560	-0.910	-0.350
2020/01/31 19:35:29.2	30.010	0.560	-0.870	-0.350
2020/01/31 19:35:29.3	29.980	0.550	-0.820	-0.350
2020/01/31 19:35:29.4	29.960	0.540	-0.770	-0.340
2020/01/31 19:35:29.5	29.940	0.520	-0.710	-0.340
2020/01/31 19:35:29.6	29.920	0.500	-0.640	-0.340
2020/01/31 19:35:29.7	29.900	0.480	-0.580	-0.330
2020/01/31 19:35:29.8	29.870	0.460	-0.510	-0.330
2020/01/31 19:35:29.9	29.840	0.430	-0.440	-0.330
2020/01/31 19:35:30.0	29.820	0.400	-0.370	-0.320
2020/01/31 19:35:30.1	29.800	0.370	-0.310	-0.320
2020/01/31 19:35:30.2	29.780	0.330	-0.240	-0.320
2020/01/31 19:35:30.3	29.760	0.300	-0.180	-0.310
2020/01/31 19:35:30.4	29.730	0.260	-0.120	-0.310
2020/01/31 19:35:30.5	29.710	0.220	-0.060	-0.310
2020/01/31 19:35:30.6	29.690	0.190	-0.010	-0.300
2020/01/31 19:35:30.7	29.670	0.150	0.040	-0.300
2020/01/31 19:35:30.8	29.650	0.110	0.080	-0.300
2020/01/31 19:35:30.9	29.620	0.070	0.110	-0.290
2020/01/31 19:35:31.0	29.590	0.040	0.140	-0.290
2020/01/31 19:35:31.1	29.570	0.000	0.170	-0.290
2020/01/31 19:35:31.2	29.540	-0.030	0.180	-0.280
2020/01/31 19:35:31.3	29.520	-0.070	0.190	-0.280
2020/01/31 19:35:31.4	29.490	-0.100	0.200	-0.270
2020/01/31 19:35:31.5	29.460	-0.130	0.200	-0.270
2020/01/31 19:35:31.6	29.430	-0.160	0.190	-0.260
2020/01/31 19:35:31.7	29.400	-0.180	0.180	-0.260
2020/01/31 19:35:31.8	29.370	-0.200	0.170	-0.250
2020/01/31 19:35:31.9	29.330	-0.220	0.150	-0.240
2020/01/31 19:35:32.0	29.300	-0.240	0.130	-0.230
2020/01/31 19:35:32.1	29.260	-0.260	0.110	-0.220
2020/01/31 19:35:32.2	29.230	-0.270	0.090	-0.200
2020/01/31 19:35:32.3	29.190	-0.280	0.060	-0.190
2020/01/31 19:35:32.4	29.150	-0.290	0.040	-0.170
2020/01/31 19:35:32.5	29.110	-0.290	0.010	-0.150
2020/01/31 19:35:32.6	29.060	-0.300	-0.010	-0.130
2020/01/31 19:35:32.7	29.020	-0.300	-0.030	-0.110
2020/01/31 19:35:32.8	28.970	-0.290	-0.040	-0.080
2020/01/31 19:35:32.9	28.930	-0.290	-0.060	-0.050
2020/01/31 19:35:33.0	28.880	-0.280	-0.060	-0.020
2020/01/31 19:35:33.1	28.830	-0.270	-0.070	0.020
2020/01/31 19:35:33.2	28.770	-0.260	-0.060	0.060
2020/01/31 19:35:33.3	28.720	-0.250	-0.050	0.100
2020/01/31 19:35:33.4	28.660	-0.240	-0.040	0.150
2020/01/31 19:35:33.5	28.600	-0.220	-0.020	0.210
2020/01/31 19:35:33.6	28.540	-0.210	0.010	0.260
2020/01/31 19:35:33.7	28.480	-0.190	0.040	0.320
2020/01/31 19:35:33.8	28.420	-0.170	0.070	0.390
2020/01/31 19:35:33.9	28.350	-0.160	0.100	0.450
2020/01/31 19:35:34.0	28.280	-0.140	0.140	0.520
2020/01/31 19:35:34.1	28.220	-0.120	0.180	0.590
2020/01/31 19:35:34.2	28.160	-0.110	0.220	0.650
2020/01/31 19:35:34.3	28.090	-0.090	0.260	0.720
2020/01/31 19:35:34.4	28.030	-0.080	0.300	0.780
2020/01/31 19:35:34.5	27.970	-0.070	0.340	0.850
2020/01/31 19:35:34.6	27.920	-0.060	0.370	0.910
2020/01/31 19:35:34.7	27.860	-0.050	0.400	0.970
2020/01/31 19:35:34.8	27.810	-0.040	0.430	1.020
2020/01/31 19:35:34.9	27.760	-0.040	0.450	1.070
2020/01/31 19:35:35.0	27.710	-0.030	0.460	1.110
2020/01/31 19:35:35.1	27.670	-0.030	0.470	1.150
2020/01/31 19:35:35.2	27.630	-0.030	0.480	1.190
2020/01/31 19:35:35.3	27.590	-0.030	0.480	1.220
2020/01/31 19:35:35.4	27.560	-0.030	0.470	1.240
2020/01/31 19:35:35.5	27.530	-0.040	0.460	1.260
2020/01/31 19:35:35.6	27.510	-0.040	0.440	1.270
2020/01/31 19:35:35.7	27.490	-0.050	0.410	1.280
2020/01/31 19:35:35.8	27.470	-0.050	0.380	1.290
2020/01/31 19:35:35.9	27.470	-0.060	0.340	1.290
2020/01/31 19:35:36.0	27.460	-0.070	0.290	1.280
2020/01/31 19:35:36.1	27.450	-0.070	0.240	1.280
2020/01/31 19:35:36.2	27.450	-0.080	0.190	1.260
2020/01/31 19:35:36.3	27.450	-0.080	0.130	1.250
2020/01/31 19:35:36.4	27.460	-0.090	0.060	1.230
2020/01/31 19:35:36.5	27.460	-0.090	-0.010	1.210
2020/01/31 19:35:36.6	27.470	-0.100	-0.080	1.180
2020/01/31 19:35:36.7	27.490	-0.100	-0.150	1.160
2020/01/31 19:35:36.8	27.510	-0.100	-0.220	1.130
2020/01/31 19:35:36.9	27.520	-0.100	-0.300	1.090
2020/01/31 19:35:37.0	27.540	-0.100	-0.370	1.060
2020/01/31 19:35:37.1	27.560	-0.090	-0.450	1.030
2020/01/31 19:35:37.2	27.590	-0.080	-0.520	1.000
2020/01/31 19:35:37.3	27.620	-0.080	-0.590	0.960
2020/01/31 19:35:37.4	27.650	-0.060	-0.660	0.930
2020/01/31 19:35:37.5	27.680	-0.050	-0.720	0.900
2020/01/31 19:35:37.6	27.710	-0.040	-0.780	0.870
2020/01/31 19:35:37.7	27.740	-0.020	-0.830	0.840
2020/01/31 19:35:37.8	27.780	-0.000	-0.880	0.810
2020/01/31 19:35:37.9	27.800	0.020	-0.920	0.770
2020/01/31 19:35:38.0	27.840	0.040	-0.950	0.740
2020/01/31 19:35:38.1	27.870	0.060	-0.980	0.720
2020/01/31 19:35:38.2	27.900	0.080	-1.010	0.700
2020/01/31 19:35:38.3	27.930	0.110	-1.030	0.670
2020/01/31 19:35:38.4	27.970	0.130	-1.040	0.660
2020/01/31 19:35:38.5	28.000	0.160	-1.040	0.640
2020/01/31 19:35:38.6	28.030	0.190	-1.040	0.630
2020/01/31 19:35:38.7	28.060	0.210	-1.040	0.610
2020/01/31 19:35:38.8	28.090	0.240	-1.030	0.610
2020/01/31 19:35:38.9	28.120	0.260	-1.010	0.600
2020/01/31 19:35:39.0	28.140	0.280	-0.990	0.600
2020/01/31 19:35:39.1	28.160	0.300	-0.970	0.600
2020/01/31 19:35:39.2	28.180	0.320	-0.940	0.600
2020/01/31 19:35:39.3	28.200	0.340	-0.910	0.600
2020/01/31 19:35:39.4	28.220	0.350	-0.870	0.600
2020/01/31 19:35:39.5	28.240	0.360	-0.830	0.600
2020/01/31 19:35:39.6	28.250	0.370	-0.800	0.610
2020/01/31 19:35:39.7	28.260	0.370	-0.760	0.610
2020/01/31 19:35:39.8	28.280	0.380	-0.720	0.610
2020/01/31 19:35:39.9	28.290	0.370	-0.680	0.610
2020/01/31 19:35:40.0	28.300	0.370	-0.640	0.610
2020/01/31 19:35:40.1	28.320	0.360	-0.600	0.610
2020/01/31 19:35:40.2	28.330	0.350	-0.560	0.600
2020/01/31 19:35:40.3	28.350	0.340	-0.520	0.590
2020/01/31 19:35:40.4	28.370	0.320	-0.480	0.590
2020/01/31 19:35:40.5	28.390	0.300	-0.440	0.570
2020/01/31 19:35:40.6	28.410	0.280	-0.410	0.560
2020/01/31 19:35:40.7	28.430	0.260	-0.380	0.540
2020/01/31 19:35:40.8	28.460	0.230	-0.350	0.520
2020/01/31 19:35:40.9	28.500	0.210	-0.320	0.500
2020/01/31 19:35:41.0	28.530	0.180	-0.290	0.480
2020/01/31 19:35:41.1	28.570	0.160	-0.270	0.450
2020/01/31 19:35:41.2	28.600	0.130	-0.250	0.420
2020/01/31 19:35:41.3	28.640	0.100	-0.230	0.390
2020/01/31 19:35:41.4	28.680	0.080	-0.210	0.360
2020/01/31 19:35:41.5	28.730	0.050	-0.190	0.330
2020/01/31 19:35:41.6	28.770	0.030	-0.180	0.300
2020/01/31 19:35:41.7	28.810	0.000	-0.160	0.270
2020/01/31 19:35:41.8	28.860	-0.020	-0.140	0.250
2020/01/31 19:35:41.9	28.890	-0.040	-0.130	0.220
2020/01/31 19:35:42.0	28.940	-0.060	-0.110	0.200
2020/01/31 19:35:42.1	28.980	-0.070	-0.090	0.180
2020/01/31 19:35:42.2	29.020	-0.090	-0.070	0.170
2020/01/31 19:35:42.3	29.060	-0.100	-0.050	0.160
2020/01/31 19:35:42.4	29.100	-0.110	-0.020	0.160
2020/01/31 19:35:42.5	29.130	-0.110	0.010	0.160
2020/01/31 19:35:42.6	29.170	-0.120	0.040	0.160
2020/01/31 19:35:42.7	29.210	-0.120	0.070	0.170
2020/01/31 19:35:42.8	29.240	-0.120	0.100	0.180
2020/01/31 19:35:42.9	29.270	-0.120	0.140	0.200
2020/01/31 19:35:43.0	29.300	-0.110	0.180	0.220
2020/01/31 19:35:43.1	29.330	-0.110	0.210	0.240
2020/01/31 19:35:43.2	29.360	-0.100	0.250	0.260
2020/01/31 19:35:43.3	29.390	-0.090	0.290	0.290
2020/01/31 19:35:43.4	29.410	-0.080	0.330	0.320
2020/01/31 19:35:43.5	29.440	-0.070	0.370	0.350
2020/01/31 19:35:43.6	29.460	-0.060	0.410	0.380
2020/01/31 19:35:43.7	29.490	-0.040	0.440	0.410
2020/01/31 19:35:43.8	29.510	-0.030	0.480	0.440
2020/01/31 19:35:43.9	29.540	-0.020	0.500	0.480
2020/01/31 19:35:44.0	29.570	-0.010	0.530	0.510
2020/01/31 19:35:44.1	29.590	0.000	0.560	0.550
2020/01/31 19:35:44.2	29.610	0.010	0.580	0.580
2020/01/31 19:35:44.3	29.630	0.020	0.590	0.610
2020/01/31 19:35:44.4	29.660	0.030	0.610	0.640
2020/01/31 19:35:44.5	29.680	0.040	0.610	0.670
2020/01/31 19:35:44.6	29.710	0.050	0.620	0.700
2020/01/31 19:35:44.7	29.740	0.050	0.610	0.720
2020/01/31 19:35:44.8	29.770	0.060	0.600	0.740
2020/01/31 19:35:44.9	29.800	0.060	0.580	0.760
2020/01/31 19:35:45.0	29.840	0.060	0.560	0.780
2020/01/31 19:35:45.1	29.880	0.060	0.530	0.790
2020/01/31 19:35:45.2	29.920	0.060	0.490	0.810
2020/01/31 19:35:45.3	29.960	0.060	0.450	0.810
2020/01/31 19:35:45.4	30.010	0.060	0.400	0.820
2020/01/31 19:35:45.5	30.060	0.050	0.350	0.820
2020/01/31 19:35:45.6	30.120	0.050	0.290	0.820
2020/01/31 19:35:45.7	30.180	0.040	0.230	0.810
2020/01/31 19:35:45.8	30.240	0.030	0.160	0.800
2020/01/31 19:35:45.9	30.310	0.020	0.090	0.790
2020/01/31 19:35:46.0	30.370	0.010	0.020	0.770
2020/01/31 19:35:46.1	30.440	-0.000	-0.060	0.750
2020/01/31 19:35:46.2	30.510	-0.010	-0.130	0.720
2020/01/31 19:35:46.3	30.580	-0.030	-0.200	0.690
2020/01/31 19:35:46.4	30.660	-0.040	-0.270	0.660
2020/01/31 19:35:46.5	30.740	-0.050	-0.340	0.620
2020/01/31 19:35:46.6	30.810	-0.070	-0.400	0.580
2020/01/31 19:35:46.7	30.890	-0.090	-0.470	0.530
2020/01/31 19:35:46.8	30.980	-0.100	-0.530	0.480
2020/01/31 19:35:46.9	31.050	-0.120	-0.580	0.420
2020/01/31 19:35:47.0	31.140	-0.130	-0.630	0.350
2020/01/31 19:35:47.1	31.220	-0.150	-0.680	0.280
2020/01/31 19:35:47.2	31.310	-0.160	-0.730	0.210
2020/01/31 19:35:47.3	31.390	-0.180	-0.770	0.140
2020/01/31 19:35:47.4	31.480	-0.190	-0.800	0.060
2020/01/31 19:35:47.5	31.570	-0.200	-0.830	-0.030
2020/01/31 19:35:47.6	31.660	-0.210	-0.850	-0.110
2020/01/31 19:35:47.7	31.750	-0.220	-0.870	-0.200
2020/01/31 19:35:47.8	31.840	-0.220	-0.890	-0.290
2020/01/31 19:35:47.9	31.930	-0.230	-0.900	-0.380
2020/01/31 19:35:48.0	32.020	-0.230	-0.900	-0.470
2020/01/31 19:35:48.1	32.110	-0.230	-0.900	-0.570
2020/01/31 19:35:48.2	32.200	-0.220	-0.900	-0.660
2020/01/31 19:35:48.3	32.300	-0.220	-0.890	-0.740
2020/01/31 19:35:48.4	32.390	-0.210	-0.880	-0.830
2020/01/31 19:35:48.5	32.480	-0.200	-0.870	-0.920
2020/01/31 19:35:48.6	32.580	-0.180	-0.860	-1.000
2020/01/31 19:35:48.7	32.670	-0.170	-0.840	-1.080
2020/01/31 19:35:48.8	32.760	-0.150	-0.810	-1.150
2020/01/31 19:35:48.9	32.840	-0.130	-0.790	-1.220
2020/01/31 19:35:49.0	32.930	-0.110	-0.760	-1.290
2020/01/31 19:35:49.1	33.020	-0.080	-0.730	-1.350
2020/01/31 19:35:49.2	33.100	-0.060	-0.700	-1.400
2020/01/31 19:35:49.3	33.180	-0.040	-0.670	-1.450
2020/01/31 19:35:49.4	33.260	-0.010	-0.630	-1.490
2020/01/31 19:35:49.5	33.330	0.010	-0.590	-1.530
2020/01/31 19:35:49.6	33.390	0.030	-0.550	-1.560
2020/01/31 19:35:49.7	33.450	0.050	-0.510	-1.580
2020/01/31 19:35:49.8	33.510	0.070	-0.470	-1.590
2020/01/31 19:35:49.9	33.560	0.090	-0.420	-1.600
2020/01/31 19:35:50.0	33.600	0.110	-0.380	-1.610
2020/01/31 19:35:50.1	33.640	0.130	-0.330	-1.610
2020/01/31 19:35:50.2	33.670	0.140	-0.280	-1.600
2020/01/31 19:35:50.3	33.700	0.150	-0.230	-1.590
2020/01/31 19:35:50.4	33.730	0.160	-0.180	-1.580
2020/01/31 19:35:50.5	33.740	0.160	-0.120	-1.570
2020/01/31 19:35:50.6	33.760	0.160	-0.070	-1.550
2020/01/31 19:35:50.7	33.770	0.160	-0.020	-1.520
2020/01/31 19:35:50.8	33.780	0.160	0.030	-1.500
2020/01/31 19:35:50.9	33.780	0.150	0.080	-1.470
2020/01/31 19:35:51.0	33.780	0.140	0.130	-1.450
2020/01/31 19:35:51.1	33.780	0.130	0.180	-1.420
2020/01/31 19:35:51.2	33.780	0.110	0.220	-1.390
2020/01/31 19:35:51.3	33.780	0.100	0.260	-1.370
2020/01/31 19:35:51.4	33.780	0.080	0.300	-1.340
2020/01/31 19:35:51.5	33.780	0.060	0.340	-1.310
2020/01/31 19:35:51.6	33.780	0.040	0.370	-1.290
2020/01/31 19:35:51.7	33.790	0.010	0.390	-1.270
2020/01/31 19:35:51.8	33.790	-0.010	0.420	-1.250
2020/01/31 19:35:51.9	33.800	-0.030	0.440	-1.230
2020/01/31 19:35:52.0	33.810	-0.060	0.450	-1.220
2020/01/31 19:35:52.1	33.820	-0.080	0.450	-1.200
2020/01/31 19:35:52.2	33.840	-0.110	0.460	-1.190
2020/01/31 19:35:52.3	33.860	-0.130	0.450	-1.180
2020/01/31 19:35:52.4	33.890	-0.150	0.440	-1.180
2020/01/31 19:35:52.5	33.920	-0.170	0.430	-1.180
2020/01/31 19:35:52.6	33.950	-0.190	0.410	-1.180
2020/01/31 19:35:52.7	33.980	-0.210	0.380	-1.180
2020/01/31 19:35:52.8	34.020	-0.230	0.350	-1.190
2020/01/31 19:35:52.9	34.060	-0.250	0.310	-1.190
2020/01/31 19:35:53.0	34.100	-0.260	0.270	-1.210
2020/01/31 19:35:53.1	34.150	-0.280	0.230	-1.220
2020/01/31 19:35:53.2	34.190	-0.290	0.190	-1.240
2020/01/31 19:35:53.3	34.240	-0.300	0.140	-1.260
2020/01/31 19:35:53.4	34.290	-0.310	0.090	-1.280
2020/01/31 19:35:53.5	34.330	-0.310	0.040	-1.300
2020/01/31 19:35:53.6	34.380	-0.320	-0.020	-1.320
2020/01/31 19:35:53.7	34.420	-0.320	-0.070	-1.340
2020/01/31 19:35:53.8	34.470	-0.320	-0.120	-1.350
2020/01/31 19:35:53.9	34.500	-0.320	-0.170	-1.380
2020/01/31 19:35:54.0	34.540	-0.320	-0.220	-1.400
2020/01/31 19:35:54.1	34.580	-0.310	-0.270	-1.410
2020/01/31 19:35:54.2	34.620	-0.310	-0.310	-1.430
2020/01/31 19:35:54.3	34.650	-0.300	-0.360	-1.440
2020/01/31 19:35:54.4	34.680	-0.300	-0.390	-1.450
2020/01/31 19:35:54.5	34.710	-0.290	-0.430	-1.460
2020/01/31 19:35:54.6	34.730	-0.280	-0.460	-1.460
2020/01/31 19:35:54.7	34.750	-0.260	-0.490	-1.470
2020/01/31 19:35:54.8	34.770	-0.250	-0.520	-1.470
2020/01/31 19:35:54.9	34.780	-0.240	-0.540	-1.460
2020/01/31 19:35:55.0	34.790	-0.220	-0.550	-1.450
2020/01/31 19:35:55.1	34.800	-0.210	-0.570	-1.450
2020/01/31 19:35:55.2	34.800	-0.190	-0.570	-1.440
2020/01/31 19:35:55.3	34.800	-0.180	-0.580	-1.420
2020/01/31 19:35:55.4	34.800	-0.160	-0.580	-1.410
2020/01/31 19:35:55.5	34.800	-0.140	-0.580	-1.390
2020/01/31 19:35:55.6	34.790	-0.120	-0.570	-1.370
2020/01/31 19:35:55.7	34.780	-0.100	-0.560	-1.350
2020/01/31 19:35:55.8	34.770	-0.090	-0.550	-1.320
2020/01/31 19:35:55.9	34.770	-0.070	-0.540	-1.300
2020/01/31 19:35:56.0	34.760	-0.050	-0.530	-1.270
2020/01/31 19:35:56.1	34.740	-0.030	-0.510	-1.250
2020/01/31 19:35:56.2	34.730	-0.010	-0.500	-1.220
2020/01/31 19:35:56.3	34.710	0.020	-0.480	-1.190
2020/01/31 19:35:56.4	34.700	0.040	-0.470	-1.170
2020/01/31 19:35:56.5	34.680	0.060	-0.450	-1.140
2020/01/31 19:35:56.6	34.660	0.080	-0.440	-1.120
2020/01/31 19:35:56.7	34.650	0.100	-0.430	-1.100
2020/01/31 19:35:56.8	34.640	0.120	-0.420	-1.080
2020/01/31 19:35:56.9	34.620	0.140	-0.410	-1.060
2020/01/31 19:35:57.0	34.610	0.160	-0.400	-1.050
2020/01/31 19:35:57.1	34.600	0.180	-0.390	-1.040
2020/01/31 19:35:57.2	34.590	0.200	-0.390	-1.030
2020/01/31 19:35:57.3	34.580	0.220	-0.380	-1.020
2020/01/31 19:35:57.4	34.570	0.240	-0.380	-1.020
2020/01/31 19:35:57.5	34.570	0.260	-0.380	-1.020
2020/01/31 19:35:57.6	34.560	0.280	-0.380	-1.020
2020/01/31 19:35:57.7	34.560	0.300	-0.380	-1.020
2020/01/31 19:35:57.8	34.560	0.320	-0.390	-1.020
2020/01/31 19:35:57.9	34.560	0.340	-0.390	-1.030
2020/01/31 19:35:58.0	34.560	0.360	-0.400	-1.040
2020/01/31 19:35:58.1	34.560	0.370	-0.400	-1.050
2020/01/31 19:35:58.2	34.560	0.390	-0.400	-1.050
2020/01/31 19:35:58.3	34.560	0.410	-0.410	-1.060
2020/01/31 19:35:58.4	34.560	0.420	-0.410	-1.070
2020/01/31 19:35:58.5	34.560	0.440	-0.410	-1.080
2020/01/31 19:35:58.6	34.560	0.450	-0.410	-1.080
2020/01/31 19:35:58.7	34.560	0.460	-0.410	-1.090
2020/01/31 19:35:58.8	34.560	0.470	-0.410	-1.090
2020/01/31 19:35:58.9	34.540	0.480	-0.400	-1.090
2020/01/31 19:35:59.0	34.540	0.480	-0.390	-1.090
2020/01/31 19:35:59.1	34.530	0.480	-0.380	-1.090
2020/01/31 19:35:59.2	34.520	0.480	-0.370	-1.080
2020/01/31 19:35:59.3	34.510	0.480	-0.350	-1.080
2020/01/31 19:35:59.4	34.490	0.480	-0.330	-1.070
2020/01/31 19:35:59.5	34.480	0.470	-0.310	-1.070
2020/01/31 19:35:59.6	34.460	0.460	-0.280	-1.060
2020/01/31 19:35:59.7	34.440	0.450	-0.250	-1.050
2020/01/31 19:35:59.8	34.420	0.440	-0.220	-1.040
2020/01/31 19:35:59.9	34.400	0.420	-0.190	-1.030
2020/01/31 19:36:00.0	34.370	0.400	-0.150	-1.010
2020/01/31 19:36:00.1	34.340	0.370	-0.110	-0.990
2020/01/31 19:36:00.2	34.310	0.350	-0.070	-0.980
2020/01/31 19:36:00.3	34.280	0.320	-0.030	-0.960
2020/01/31 19:36:00.4	34.240	0.290	0.010	-0.940
2020/01/31 19:36:00.5	34.210	0.250	0.050	-0.920
2020/01/31 19:36:00.6	34.170	0.220	0.090	-0.900
2020/01/31 19:36:00.7	34.130	0.180	0.130	-0.880
2020/01/31 19:36:00.8	34.090	0.140	0.170	-0.860
2020/01/31 19:36:00.9	34.040	0.090	0.200	-0.830
2020/01/31 19:36:01.0	34.000	0.050	0.230	-0.810
2020/01/31 19:36:01.1	33.950	0.010	0.260	-0.800
2020/01/31 19:36:01.2	33.910	-0.040	0.290	-0.780
2020/01/31 19:36:01.3	33.860	-0.090	0.310	-0.770
2020/01/31 19:36:01.4	33.820	-0.140	0.330	-0.750
2020/01/31 19:36:01.5	33.770	-0.180	0.350	-0.740
2020/01/31 19:36:01.6	33.720	-0.230	0.360	-0.730
2020/01/31 19:36:01.7	33.670	-0.280	0.370	-0.720
2020/01/31 19:36:01.8	33.620	-0.330	0.380	-0.720
2020/01/31 19:36:01.9	33.570	-0.380	0.380	-0.720
2020/01/31 19:36:02.0	33.510	-0.430	0.380	-0.710
2020/01/31 19:36:02.1	33.460	-0.470	0.380	-0.720
2020/01/31 19:36:02.2	33.400	-0.520	0.370	-0.720
2020/01/31 19:36:02.3	33.350	-0.560	0.360	-0.730
2020/01/31 19:36:02.4	33.290	-0.610	0.350	-0.740
2020/01/31 19:36:02.5	33.230	-0.650	0.330	-0.750
2020/01/31 19:36:02.6	33.170	-0.690	0.310	-0.770
2020/01/31 19:36:02.7	33.120	-0.730	0.290	-0.800
2020/01/31 19:36:02.8	33.060	-0.760	0.270	-0.820
2020/01/31 19:36:02.9	33.000	-0.800	0.240	-0.850
2020/01/31 19:36:03.0	32.940	-0.830	0.210	-0.890
2020/01/31 19:36:03.1	32.890	-0.860	0.180	-0.920
2020/01/31 19:36:03.2	32.840	-0.880	0.150	-0.960
2020/01/31 19:36:03.3	32.780	-0.900	0.110	-1.000
2020/01/31 19:36:03.4	32.730	-0.920	0.080	-1.040
2020/01/31 19:36:03.5	32.690	-0.930	0.040	-1.080
2020/01/31 19:36:03.6	32.640	-0.940	0.000	-1.130
2020/01/31 19:36:03.7	32.590	-0.950	-0.040	-1.170
2020/01/31 19:36:03.8	32.540	-0.950	-0.070	-1.210
2020/01/31 19:36:03.9	32.500	-0.950	-0.110	-1.240
2020/01/31 19:36:04.0	32.450	-0.940	-0.150	-1.280
2020/01/31 19:36:04.1	32.410	-0.930	-0.180	-1.310
2020/01/31 19:36:04.2	32.360	-0.910	-0.220	-1.330
2020/01/31 19:36:04.3	32.320	-0.890	-0.250	-1.350
2020/01/31 19:36:04.4	32.270	-0.870	-0.280	-1.370
2020/01/31 19:36:04.5	32.230	-0.840	-0.310	-1.380
2020/01/31 19:36:04.6	32.180	-0.810	-0.330	-1.390
2020/01/31 19:36:04.7	32.130	-0.780	-0.350	-1.390
2020/01/31 19:36:04.8	32.090	-0.740	-0.370	-1.390
2020/01/31 19:36:04.9	32.030	-0.700	-0.390	-1.380
2020/01/31 19:36:05.0	31.980	-0.660	-0.400	-1.360
2020/01/31 19:36:05.1	31.930	-0.610	-0.410	-1.340
2020/01/31 19:36:05.2	31.880	-0.560	-0.420	-1.320
2020/01/31 19:36:05.3	31.830	-0.500	-0.420	-1.280
2020/01/31 19:36:05.4	31.770	-0.450	-0.430	-1.250
2020/01/31 19:36:05.5	31.710	-0.390	-0.430	-1.210
2020/01/31 19:36:05.6	31.660	-0.330	-0.430	-1.170
2020/01/31 19:36:05.7	31.600	-0.270	-0.430	-1.120
2020/01/31 19:36:05.8	31.540	-0.210	-0.420	-1.070
2020/01/31 19:36:05.9	31.490	-0.140	-0.420	-1.020
2020/01/31 19:36:06.0	31.430	-0.080	-0.420	-0.970
2020/01/31 19:36:06.1	31.370	-0.010	-0.420	-0.910
2020/01/31 19:36:06.2	31.310	0.060	-0.420	-0.850
2020/01/31 19:36:06.3	31.250	0.120	-0.420	-0.800
2020/01/31 19:36:06.4	31.190	0.190	-0.420	-0.740
2020/01/31 19:36:06.5	31.130	0.260	-0.430	-0.680
2020/01/31 19:36:06.6	31.070	0.330	-0.430	-0.630
2020/01/31 19:36:06.7	31.010	0.390	-0.450	-0.570
2020/01/31 19:36:06.8	30.960	0.460	-0.460	-0.520
2020/01/31 19:36:06.9	30.900	0.520	-0.480	-0.460
2020/01/31 19:36:07.0	30.850	0.580	-0.500	-0.410
2020/01/31 19:36:07.1	30.800	0.640	-0.520	-0.360
2020/01/31 19:36:07.2	30.750	0.700	-0.540	-0.310
2020/01/31 19:36:07.3	30.700	0.750	-0.570	-0.260
2020/01/31 19:36:07.4	30.650	0.810	-0.600	-0.210
2020/01/31 19:36:07.5	30.610	0.850	-0.620	-0.160
2020/01/31 19:36:07.6	30.570	0.900	-0.650	-0.120
2020/01/31 19:36:07.7	30.520	0.940	-0.680	-0.080
2020/01/31 19:36:07.8	30.480	0.970	-0.710	-0.040
2020/01/31 19:36:07.9	30.450	1.010	-0.740	0.000
2020/01/31 19:36:08.0	30.400	1.030	-0.770	0.040
2020/01/31 19:36:08.1	30.360	1.050	-0.790	0.070
2020/01/31 19:36:08.2	30.320	1.070	-0.810	0.110
2020/01/31 19:36:08.3	30.270	1.070	-0.820	0.140
2020/01/31 19:36:08.4	30.220	1.080	-0.840	0.170
2020/01/31 19:36:08.5	30.170	1.070	-0.850	0.200
2020/01/31 19:36:08.6	30.120	1.060	-0.850	0.220
2020/01/31 19:36:08.7	30.060	1.050	-0.850	0.250
2020/01/31 19:36:08.8	30.000	1.020	-0.840	0.270
2020/01/31 19:36:08.9	29.940	0.990	-0.830	0.280
2020/01/31 19:36:09.0	29.870	0.960	-0.810	0.290
2020/01/31 19:36:09.1	29.800	0.910	-0.790	0.300
2020/01/31 19:36:09.2	29.720	0.870	-0.770	0.310
2020/01/31 19:36:09.3	29.650	0.820	-0.730	0.310
2020/01/31 19:36:09.4	29.570	0.760	-0.700	0.300
2020/01/31 19:36:09.5	29.480	0.700	-0.660	0.300
2020/01/31 19:36:09.6	29.400	0.630	-0.610	0.280
2020/01/31 19:36:09.7	29.310	0.560	-0.560	0.270
2020/01/31 19:36:09.8	29.220	0.490	-0.500	0.250
2020/01/31 19:36:09.9	29.140	0.420	-0.450	0.220
2020/01/31 19:36:10.0	29.040	0.340	-0.390	0.190
2020/01/31 19:36:10.1	28.950	0.260	-0.320	0.170
2020/01/31 19:36:10.2	28.860	0.180	-0.250	0.140
2020/01/31 19:36:10.3	28.760	0.100	-0.180	0.110
2020/01/31 19:36:10.4	28.670	0.030	-0.100	0.080
2020/01/31 19:36:10.5	28.570	-0.050	-0.030	0.050
2020/01/31 19:36:10.6	28.480	-0.120	0.040	0.020
2020/01/31 19:36:10.7	28.390	-0.190	0.120	-0.020
2020/01/31 19:36:10.8	28.300	-0.260	0.190	-0.050
2020/01/31 19:36:10.9	28.200	-0.330	0.270	-0.090
2020/01/31 19:36:11.0	28.110	-0.390	0.340	-0.120
2020/01/31 19:36:11.1	28.030	-0.440	0.410	-0.150
2020/01/31 19:36:11.2	27.950	-0.490	0.470	-0.180
2020/01/31 19:36:11.3	27.870	-0.540	0.530	-0.210
2020/01/31 19:36:11.4	27.800	-0.580	0.590	-0.240
2020/01/31 19:36:11.5	27.720	-0.610	0.640	-0.270
2020/01/31 19:36:11.6	27.660	-0.640	0.680	-0.290
2020/01/31 19:36:11.7	27.590	-0.660	0.720	-0.320
2020/01/31 19:36:11.8	27.530	-0.670	0.750	-0.340
2020/01/31 19:36:11.9	27.460	-0.680	0.770	-0.370
2020/01/31 19:36:12.0	27.410	-0.680	0.790	-0.390
2020/01/31 19:36:12.1	27.350	-0.680	0.790	-0.410
2020/01/31 19:36:12.2	27.300	-0.670	0.790	-0.430
2020/01/31 19:36:12.3	27.250	-0.650	0.780	-0.440
2020/01/31 19:36:12.4	27.210	-0.630	0.760	-0.450
2020/01/31 19:36:12.5	27.160	-0.600	0.740	-0.450
2020/01/31 19:36:12.6	27.120	-0.570	0.700	-0.450
2020/01/31 19:36:12.7	27.080	-0.530	0.660	-0.450
2020/01/31 19:36:12.8	27.040	-0.490	0.620	-0.440
2020/01/31 19:36:12.9	26.980	-0.450	0.560	-0.430
2020/01/31 19:36:13.0	26.940	-0.400	0.500	-0.420
2020/01/31 19:36:13.1	26.900	-0.360	0.430	-0.400
2020/01/31 19:36:13.2	26.860	-0.310	0.360	-0.370
2020/01/31 19:36:13.3	26.820	-0.260	0.290	-0.340
2020/01/31 19:36:13.4	26.780	-0.210	0.220	-0.310
2020/01/31 19:36:13.5	26.740	-0.150	0.140	-0.280
2020/01/31 19:36:13.6	26.700	-0.100	0.070	-0.240
2020/01/31 19:36:13.7	26.660	-0.050	-0.010	-0.200
2020/01/31 19:36:13.8	26.630	-0.010	-0.090	-0.160
2020/01/31 19:36:13.9	26.570	0.040	-0.160	-0.120
2020/01/31 19:36:14.0	26.530	0.090	-0.240	-0.080
2020/01/31 19:36:14.1	26.500	0.130	-0.310	-0.030
2020/01/31 19:36:14.2	26.470	0.170	-0.380	0.010
2020/01/31 19:36:14.3	26.440	0.200	-0.440	0.060
2020/01/31 19:36:14.4	26.410	0.230	-0.500	0.100
2020/01/31 19:36:14.5	26.380	0.260	-0.560	0.140
2020/01/31 19:36:14.6	26.360	0.290	-0.620	0.190
2020/01/31 19:36:14.7	26.340	0.310	-0.670	0.230
2020/01/31 19:36:14.8	26.320	0.330	-0.710	0.270
2020/01/31 19:36:14.9	26.320	0.340	-0.760	0.310
2020/01/31 19:36:15.0	26.300	0.350	-0.790	0.340
2020/01/31 19:36:15.1	26.290	0.360	-0.830	0.380
2020/01/31 19:36:15.2	26.280	0.360	-0.860	0.410
2020/01/31 19:36:15.3	26.280	0.360	-0.880	0.440
2020/01/31 19:36:15.4	26.270	0.360	-0.900	0.480
2020/01/31 19:36:15.5	26.270	0.350	-0.910	0.510
2020/01/31 19:36:15.6	26.260	0.340	-0.920	0.540
2020/01/31 19:36:15.7	26.260	0.320	-0.920	0.580
2020/01/31 19:36:15.8	26.260	0.300	-0.920	0.610
2020/01/31 19:36:15.9	26.260	0.280	-0.910	0.650
2020/01/31 19:36:16.0	26.260	0.260	-0.890	0.690
2020/01/31 19:36:16.1	26.250	0.240	-0.870	0.730
2020/01/31 19:36:16.2	26.240	0.210	-0.840	0.770
2020/01/31 19:36:16.3	26.240	0.180	-0.810	0.810
2020/01/31 19:36:16.4	26.230	0.150	-0.770	0.860
2020/01/31 19:36:16.5	26.210	0.120	-0.720	0.900
2020/01/31 19:36:16.6	26.200	0.090	-0.670	0.940
2020/01/31 19:36:16.7	26.180	0.060	-0.610	0.990
2020/01/31 19:36:16.8	26.170	0.030	-0.550	1.030
2020/01/31 19:36:16.9	26.150	-0.000	-0.480	1.080
2020/01/31 19:36:17.0	26.130	-0.030	-0.410	1.120
2020/01/31 19:36:17.1	26.100	-0.060	-0.340	1.160
2020/01/31 19:36:17.2	26.080	-0.090	-0.270	1.200
2020/01/31 19:36:17.3	26.050	-0.120	-0.190	1.240
2020/01/31 19:36:17.4	26.030	-0.150	-0.110	1.280
2020/01/31 19:36:17.5	26.000	-0.180	-0.040	1.310
2020/01/31 19:36:17.6	25.970	-0.200	0.040	1.340
2020/01/31 19:36:17.7	25.940	-0.230	0.120	1.370
2020/01/31 19:36:17.8	25.910	-0.250	0.190	1.390
2020/01/31 19:36:17.9	25.870	-0.260	0.250	1.410
2020/01/31 19:36:18.0	25.840	-0.280	0.310	1.430
2020/01/31 19:36:18.1	25.810	-0.290	0.370	1.450
2020/01/31 19:36:18.2	25.770	-0.310	0.430	1.460
2020/01/31 19:36:18.3	25.740	-0.310	0.470	1.470
2020/01/31 19:36:18.4	25.710	-0.320	0.520	1.480
2020/01/31 19:36:18.5	25.680	-0.320	0.550	1.480
2020/01/31 19:36:18.6	25.650	-0.320	0.580	1.480
2020/01/31 19:36:18.7	25.620	-0.320	0.600	1.470
2020/01/31 19:36:18.8	25.590	-0.310	0.610	1.470
2020/01/31 19:36:18.9	25.560	-0.300	0.620	1.460
2020/01/31 19:36:19.0	25.540	-0.290	0.620	1.440
2020/01/31 19:36:19.1	25.510	-0.280	0.610	1.430
2020/01/31 19:36:19.2	25.490	-0.260	0.590	1.410
2020/01/31 19:36:19.3	25.460	-0.250	0.560	1.380
2020/01/31 19:36:19.4	25.440	-0.230	0.530	1.360
2020/01/31 19:36:19.5	25.420	-0.210	0.490	1.330
2020/01/31 19:36:19.6	25.400	-0.180	0.450	1.300
2020/01/31 19:36:19.7	25.390	-0.160	0.390	1.260
2020/01/31 19:36:19.8	25.370	-0.130	0.340	1.220
2020/01/31 19:36:19.9	25.350	-0.110	0.270	1.170
2020/01/31 19:36:20.0	25.340	-0.080	0.200	1.120
2020/01/31 19:36:20.1	25.330	-0.050	0.130	1.070
2020/01/31 19:36:20.2	25.320	-0.020	0.050	1.020
2020/01/31 19:36:20.3	25.310	0.000	-0.030	0.960
2020/01/31 19:36:20.4	25.310	0.030	-0.110	0.890
2020/01/31 19:36:20.5	25.310	0.060	-0.200	0.820
2020/01/31 19:36:20.6	25.310	0.090	-0.290	0.750
2020/01/31 19:36:20.7	25.320	0.120	-0.370	0.680
2020/01/31 19:36:20.8	25.320	0.150	-0.460	0.600
2020/01/31 19:36:20.9	25.330	0.170	-0.550	0.510
2020/01/31 19:36:21.0	25.340	0.200	-0.630	0.430
2020/01/31 19:36:21.1	25.350	0.230	-0.710	0.350
2020/01/31 19:36:21.2	25.360	0.250	-0.790	0.260
2020/01/31 19:36:21.3	25.380	0.280	-0.860	0.170
2020/01/31 19:36:21.4	25.390	0.300	-0.930	0.090
2020/01/31 19:36:21.5	25.410	0.330	-0.990	0.010
2020/01/31 19:36:21.6	25.430	0.350	-1.050	-0.080
2020/01/31 19:36:21.7	25.440	0.370	-1.100	-0.160
2020/01/31 19:36:21.8	25.460	0.390	-1.140	-0.230
2020/01/31 19:36:21.9	25.480	0.410	-1.170	-0.310
2020/01/31 19:36:22.0	25.490	0.430	-1.190	-0.380
2020/01/31 19:36:22.1	25.510	0.450	-1.210	-0.440
2020/01/31 19:36:22.2	25.520	0.460	-1.220	-0.500
2020/01/31 19:36:22.3	25.540	0.470	-1.220	-0.560
2020/01/31 19:36:22.4	25.550	0.480	-1.210	-0.610
2020/01/31 19:36:22.5	25.560	0.490	-1.190	-0.660
2020/01/31 19:36:22.6	25.570	0.500	-1.160	-0.710
2020/01/31 19:36:22.7	25.580	0.510	-1.130	-0.750
2020/01/31 19:36:22.8	25.590	0.510	-1.090	-0.780
2020/01/31 19:36:22.9	25.590	0.520	-1.050	-0.820
2020/01/31 19:36:23.0	25.590	0.520	-0.990	-0.850
2020/01/31 19:36:23.1	25.600	0.510	-0.940	-0.870
2020/01/31 19:36:23.2	25.600	0.510	-0.880	-0.890
2020/01/31 19:36:23.3	25.610	0.510	-0.820	-0.910
2020/01/31 19:36:23.4	25.610	0.500	-0.750	-0.920
2020/01/31 19:36:23.5	25.610	0.490	-0.680	-0.940
2020/01/31 19:36:23.6	25.620	0.480	-0.610	-0.950
2020/01/31 19:36:23.7	25.620	0.470	-0.540	-0.960
2020/01/31 19:36:23.8	25.620	0.450	-0.470	-0.960
2020/01/31 19:36:23.9	25.620	0.440	-0.410	-0.960
2020/01/31 19:36:24.0	25.620	0.420	-0.340	-0.970
2020/01/31 19:36:24.1	25.620	0.400	-0.270	-0.970
2020/01/31 19:36:24.2	25.620	0.380	-0.200	-0.970
2020/01/31 19:36:24.3	25.620	0.360	-0.130	-0.960
2020/01/31 19:36:24.4	25.610	0.340	-0.070	-0.960
2020/01/31 19:36:24.5	25.610	0.320	-0.010	-0.950
2020/01/31 19:36:24.6	25.600	0.290	0.050	-0.940
2020/01/31 19:36:24.7	25.590	0.260	0.110	-0.930
2020/01/31 19:36:24.8	25.580	0.230	0.160	-0.920
2020/01/31 19:36:24.9	25.570	0.200	0.210	-0.910
2020/01/31 19:36:25.0	25.560	0.170	0.260	-0.890
2020/01/31 19:36:25.1	25.540	0.130	0.310	-0.880
2020/01/31 19:36:25.2	25.520	0.100	0.360	-0.860
2020/01/31 19:36:25.3	25.490	0.060	0.400	-0.850
2020/01/31 19:36:25.4	25.460	0.020	0.440	-0.840
2020/01/31 19:36:25.5	25.430	-0.020	0.480	-0.820
2020/01/31 19:36:25.6	25.400	-0.060	0.510	-0.810
2020/01/31 19:36:25.7	25.360	-0.100	0.550	-0.790
2020/01/31 19:36:25.8	25.320	-0.150	0.580	-0.780
2020/01/31 19:36:25.9	25.270	-0.190	0.600	-0.770
2020/01/31 19:36:26.0	25.220	-0.230	0.630	-0.760
2020/01/31 19:36:26.1	25.170	-0.280	0.650	-0.750
2020/01/31 19:36:26.2	25.120	-0.320	0.670	-0.740
2020/01/31 19:36:26.3	25.070	-0.360	0.680	-0.730
2020/01/31 19:36:26.4	25.010	-0.410	0.690	-0.730
2020/01/31 19:36:26.5	24.950	-0.450	0.700	-0.720
2020/01/31 19:36:26.6	24.890	-0.490	0.710	-0.720
2020/01/31 19:36:26.7	24.830	-0.520	0.710	-0.720
2020/01/31 19:36:26.8	24.770	-0.560	0.700	-0.720
2020/01/31 19:36:26.9	24.710	-0.590	0.690	-0.720
2020/01/31 19:36:27.0	24.650	-0.620	0.680	-0.720
2020/01/31 19:36:27.1	24.590	-0.650	0.660	-0.730
2020/01/31 19:36:27.2	24.540	-0.670	0.640	-0.740
2020/01/31 19:36:27.3	24.480	-0.690	0.610	-0.750
2020/01/31 19:36:27.4	24.430	-0.710	0.570	-0.760
2020/01/31 19:36:27.5	24.380	-0.720	0.530	-0.770
2020/01/31 19:36:27.6	24.330	-0.730	0.490	-0.790
2020/01/31 19:36:27.7	24.280	-0.730	0.440	-0.810
2020/01/31 19:36:27.8	24.240	-0.730	0.390	-0.830
2020/01/31 19:36:27.9	24.190	-0.720	0.330	-0.850
2020/01/31 19:36:28.0	24.150	-0.710	0.260	-0.870
2020/01/31 19:36:28.1	24.120	-0.700	0.200	-0.890
2020/01/31 19:36:28.2	24.080	-0.680	0.120	-0.910
2020/01/31 19:36:28.3	24.050	-0.650	0.050	-0.930
2020/01/31 19:36:28.4	24.010	-0.620	-0.030	-0.950
2020/01/31 19:36:28.5	23.980	-0.590	-0.110	-0.970
2020/01/31 19:36:28.6	23.950	-0.560	-0.190	-0.990
2020/01/31 19:36:28.7	23.920	-0.520	-0.270	-1.000
2020/01/31 19:36:28.8	23.890	-0.480	-0.350	-1.010
2020/01/31 19:36:28.9	23.860	-0.430	-0.440	-1.020
2020/01/31 19:36:29.0	23.830	-0.390	-0.520	-1.030
2020/01/31 19:36:29.1	23.800	-0.340	-0.600	-1.030
2020/01/31 19:36:29.2	23.770	-0.290	-0.670	-1.030
2020/01/31 19:36:29.3	23.730	-0.250	-0.740	-1.030
2020/01/31 19:36:29.4	23.700	-0.200	-0.810	-1.030
2020/01/31 19:36:29.5	23.660	-0.150	-0.880	-1.020
2020/01/31 19:36:29.6	23.620	-0.110	-0.930	-1.020
2020/01/31 19:36:29.7	23.590	-0.060	-0.980	-1.000
2020/01/31 19:36:29.8	23.540	-0.020	-1.030	-0.990
2020/01/31 19:36:29.9	23.500	0.030	-1.070	-0.970
2020/01/31 19:36:30.0	23.460	0.070	-1.100	-0.950
2020/01/31 19:36:30.1	23.410	0.100	-1.120	-0.930
2020/01/31 19:36:30.2	23.370	0.140	-1.140	-0.910
2020/01/31 19:36:30.3	23.320	0.170	-1.140	-0.880
2020/01/31 19:36:30.4	23.270	0.200	-1.140	-0.850
2020/01/31 19:36:30.5	23.220	0.230	-1.140	-0.810
2020/01/31 19:36:30.6	23.160	0.260	-1.120	-0.780
2020/01/31 19:36:30.7	23.110	0.280	-1.100	-0.740
2020/01/31 19:36:30.8	23.060	0.300	-1.080	-0.700
2020/01/31 19:36:30.9	23.010	0.320	-1.050	-0.650
2020/01/31 19:36:31.0	22.950	0.340	-1.010	-0.610
2020/01/31 19:36:31.1	22.900	0.360	-0.970	-0.560
2020/01/31 19:36:31.2	22.840	0.370	-0.920	-0.510
2020/01/31 19:36:31.3	22.790	0.390	-0.870	-0.470
2020/01/31 19:36:31.4	22.740	0.400	-0.820	-0.420
2020/01/31 19:36:31.5	22.690	0.410	-0.770	-0.370
2020/01/31 19:36:31.6	22.630	0.420	-0.710	-0.320
2020/01/31 19:36:31.7	22.580	0.430	-0.660	-0.270
2020/01/31 19:36:31.8	22.540	0.440	-0.600	-0.220
2020/01/31 19:36:31.9	22.480	0.450	-0.550	-0.170
2020/01/31 19:36:32.0	22.440	0.450	-0.490	-0.120
2020/01/31 19:36:32.1	22.390	0.460	-0.440	-0.070
2020/01/31 19:36:32.2	22.340	0.470	-0.390	-0.020
2020/01/31 19:36:32.3	22.290	0.470	-0.340	0.030
2020/01/31 19:36:32.4	22.240	0.480	-0.290	0.080
2020/01/31 19:36:32.5	22.200	0.480	-0.250	0.130
2020/01/31 19:36:32.6	22.140	0.490	-0.210	0.180
2020/01/31 19:36:32.7	22.090	0.490	-0.170	0.220
2020/01/31 19:36:32.8	22.040	0.490	-0.130	0.270
2020/01/31 19:36:32.9	21.980	0.500	-0.090	0.310
2020/01/31 19:36:33.0	21.930	0.500	-0.060	0.350
2020/01/31 19:36:33.1	21.870	0.500	-0.030	0.380
2020/01/31 19:36:33.2	21.820	0.490	0.000	0.420
2020/01/31 19:36:33.3	21.760	0.490	0.030	0.440
2020/01/31 19:36:33.4	21.700	0.490	0.050	0.470
2020/01/31 19:36:33.5	21.640	0.480	0.080	0.480
2020/01/31 19:36:33.6	21.580	0.470	0.100	0.500
2020/01/31 19:36:33.7	21.520	0.460	0.120	0.510
2020/01/31 19:36:33.8	21.450	0.450	0.140	0.520
2020/01/31 19:36:33.9	21.380	0.440	0.160	0.510
2020/01/31 19:36:34.0	21.310	0.420	0.170	0.510
2020/01/31 19:36:34.1	21.240	0.400	0.190	0.510
2020/01/31 19:36:34.2	21.170	0.380	0.200	0.500
2020/01/31 19:36:34.3	21.100	0.360	0.210	0.480
2020/01/31 19:36:34.4	21.020	0.330	0.220	0.470
2020/01/31 19:36:34.5	20.940	0.310	0.230	0.450
2020/01/31 19:36:34.6	20.870	0.280	0.230	0.440
2020/01/31 19:36:34.7	20.790	0.250	0.230	0.420
2020/01/31 19:36:34.8	20.710	0.210	0.230	0.390
2020/01/31 19:36:34.9	20.630	0.180	0.230	0.370
2020/01/31 19:36:35.0	20.550	0.140	0.230	0.340
2020/01/31 19:36:35.1	20.470	0.100	0.220	0.320
2020/01/31 19:36:35.2	20.390	0.060	0.220	0.290
2020/01/31 19:36:35.3	20.310	0.020	0.200	0.270
2020/01/31 19:36:35.4	20.240	-0.020	0.190	0.240
2020/01/31 19:36:35.5	20.160	-0.070	0.180	0.210
2020/01/31 19:36:35.6	20.090	-0.110	0.160	0.180
2020/01/31 19:36:35.7	20.010	-0.150	0.140	0.160
2020/01/31 19:36:35.8	19.940	-0.190	0.120	0.130
2020/01/31 19:36:35.9	19.880	-0.240	0.100	0.100
2020/01/31 19:36:36.0	19.820	-0.280	0.070	0.070
2020/01/31 19:36:36.1	19.750	-0.320	0.050	0.040
2020/01/31 19:36:36.2	19.680	-0.360	0.030	0.010
2020/01/31 19:36:36.3	19.610	-0.390	0.000	-0.020
2020/01/31 19:36:36.4	19.550	-0.430	-0.020	-0.050
2020/01/31 19:36:36.5	19.480	-0.460	-0.040	-0.070
2020/01/31 19:36:36.6	19.420	-0.490	-0.070	-0.100
2020/01/31 19:36:36.7	19.350	-0.520	-0.090	-0.120
2020/01/31 19:36:36.8	19.290	-0.540	-0.110	-0.140
2020/01/31 19:36:36.9	19.220	-0.570	-0.120	-0.170
2020/01/31 19:36:37.0	19.150	-0.580	-0.140	-0.190
2020/01/31 19:36:37.1	19.090	-0.600	-0.150	-0.200
2020/01/31 19:36:37.2	19.020	-0.610	-0.160	-0.220
2020/01/31 19:36:37.3	18.950	-0.620	-0.170	-0.230
2020/01/31 19:36:37.4	18.880	-0.620	-0.180	-0.230
2020/01/31 19:36:37.5	18.810	-0.620	-0.180	-0.230
2020/01/31 19:36:37.6	18.730	-0.620	-0.180	-0.230
2020/01/31 19:36:37.7	18.660	-0.610	-0.180	-0.220
2020/01/31 19:36:37.8	18.580	-0.600	-0.180	-0.210
2020/01/31 19:36:37.9	18.530	-0.590	-0.170	-0.190
2020/01/31 19:36:38.0	18.450	-0.570	-0.170	-0.170
2020/01/31 19:36:38.1	18.370	-0.550	-0.160	-0.140
2020/01/31 19:36:38.2	18.290	-0.520	-0.150	-0.100
2020/01/31 19:36:38.3	18.200	-0.490	-0.130	-0.060
2020/01/31 19:36:38.4	18.120	-0.460	-0.120	-0.010
2020/01/31 19:36:38.5	18.040	-0.430	-0.110	0.040
2020/01/31 19:36:38.6	17.950	-0.390	-0.090	0.090
2020/01/31 19:36:38.7	17.870	-0.360	-0.080	0.150
2020/01/31 19:36:38.8	17.790	-0.310	-0.070	0.210
2020/01/31 19:36:38.9	17.720	-0.270	-0.060	0.280
2020/01/31 19:36:39.0	17.640	-0.230	-0.050	0.340
2020/01/31 19:36:39.1	17.560	-0.180	-0.040	0.400
2020/01/31 19:36:39.2	17.480	-0.140	-0.030	0.470
2020/01/31 19:36:39.3	17.400	-0.090	-0.030	0.530
2020/01/31 19:36:39.4	17.330	-0.040	-0.030	0.590
2020/01/31 19:36:39.5	17.260	0.010	-0.040	0.650
2020/01/31 19:36:39.6	17.190	0.050	-0.050	0.700
2020/01/31 19:36:39.7	17.120	0.100	-0.060	0.760
2020/01/31 19:36:39.8	17.060	0.150	-0.070	0.810
2020/01/31 19:36:39.9	16.990	0.200	-0.100	0.850
2020/01/31 19:36:40.0	16.930	0.240	-0.120	0.900
2020/01/31 19:36:40.1	16.880	0.280	-0.140	0.940
2020/01/31 19:36:40.2	16.830	0.330	-0.170	0.980
2020/01/31 19:36:40.3	16.780	0.370	-0.200	1.010
2020/01/31 19:36:40.4	16.730	0.400	-0.230	1.040
2020/01/31 19:36:40.5	16.680	0.440	-0.270	1.070
2020/01/31 19:36:40.6	16.640	0.470	-0.300	1.090
2020/01/31 19:36:40.7	16.600	0.500	-0.340	1.110
2020/01/31 19:36:40.8	16.550	0.520	-0.370	1.120
2020/01/31 19:36:40.9	16.510	0.540	-0.410	1.140
2020/01/31 19:36:41.0	16.470	0.560	-0.440	1.150
2020/01/31 19:36:41.1	16.430	0.570	-0.480	1.150
2020/01/31 19:36:41.2	16.390	0.580	-0.510	1.160
2020/01/31 19:36:41.3	16.350	0.580	-0.540	1.150
2020/01/31 19:36:41.4	16.310	0.580	-0.570	1.150
2020/01/31 19:36:41.5	16.260	0.570	-0.600	1.140
2020/01/31 19:36:41.6	16.220	0.560	-0.620	1.130
2020/01/31 19:36:41.7	16.180	0.550	-0.640	1.120
2020/01/31 19:36:41.8	16.130	0.530	-0.660	1.110
2020/01/31 19:36:41.9	16.090	0.510	-0.670	1.090
2020/01/31 19:36:42.0	16.050	0.490	-0.680	1.070
2020/01/31 19:36:42.1	16.000	0.460	-0.690	1.050
2020/01/31 19:36:42.2	15.960	0.430	-0.690	1.030
2020/01/31 19:36:42.3	15.910	0.390	-0.690	1.010
2020/01/31 19:36:42.4	15.860	0.360	-0.680	0.980
2020/01/31 19:36:42.5	15.820	0.320	-0.680	0.950
2020/01/31 19:36:42.6	15.770	0.270	-0.670	0.920
2020/01/31 19:36:42.7	15.730	0.230	-0.650	0.890
2020/01/31 19:36:42.8	15.680	0.190	-0.640	0.850
2020/01/31 19:36:42.9	15.660	0.140	-0.630	0.810
2020/01/31 19:36:43.0	15.620	0.100	-0.610	0.770
2020/01/31 19:36:43.1	15.570	0.050	-0.590	0.720
2020/01/31 19:36:43.2	15.530	0.010	-0.580	0.680
2020/01/31 19:36:43.3	15.480	-0.040	-0.560	0.630
2020/01/31 19:36:43.4	15.440	-0.080	-0.540	0.590
2020/01/31 19:36:43.5	15.390	-0.120	-0.520	0.540
2020/01/31 19:36:43.6	15.340	-0.160	-0.490	0.500
2020/01/31 19:36:43.7	15.290	-0.200	-0.470	0.450
2020/01/31 19:36:43.8	15.240	-0.230	-0.450	0.410
2020/01/31 19:36:43.9	15.220	-0.260	-0.430	0.370
2020/01/31 19:36:44.0	15.160	-0.290	-0.400	0.330
2020/01/31 19:36:44.1	15.110	-0.320	-0.380	0.300
2020/01/31 19:36:44.2	15.050	-0.340	-0.360	0.260
2020/01/31 19:36:44.3	14.980	-0.360	-0.330	0.230
2020/01/31 19:36:44.4	14.920	-0.370	-0.300	0.210
2020/01/31 19:36:44.5	14.850	-0.380	-0.270	0.190
2020/01/31 19:36:44.6	14.780	-0.390	-0.240	0.170
2020/01/31 19:36:44.7	14.710	-0.390	-0.210	0.160
2020/01/31 19:36:44.8	14.630	-0.390	-0.180	0.160
2020/01/31 19:36:44.9	14.580	-0.390	-0.140	0.150
2020/01/31 19:36:45.0	14.500	-0.380	-0.110	0.160
2020/01/31 19:36:45.1	14.410	-0.370	-0.070	0.170
2020/01/31 19:36:45.2	14.320	-0.350	-0.020	0.180
2020/01/31 19:36:45.3	14.230	-0.330	0.020	0.200
2020/01/31 19:36:45.4	14.140	-0.310	0.060	0.230
2020/01/31 19:36:45.5	14.050	-0.290	0.110	0.250
2020/01/31 19:36:45.6	13.950	-0.270	0.150	0.280
2020/01/31 19:36:45.7	13.850	-0.240	0.200	0.310
2020/01/31 19:36:45.8	13.750	-0.210	0.240	0.350
2020/01/31 19:36:45.9	13.670	-0.180	0.280	0.380
2020/01/31 19:36:46.0	13.570	-0.150	0.320	0.420
2020/01/31 19:36:46.1	13.470	-0.120	0.360	0.460
2020/01/31 19:36:46.2	13.370	-0.090	0.390	0.490
2020/01/31 19:36:46.3	13.270	-0.060	0.420	0.530
2020/01/31 19:36:46.4	13.180	-0.030	0.450	0.560
2020/01/31 19:36:46.5	13.080	0.000	0.460	0.600
2020/01/31 19:36:46.6	12.990	0.040	0.480	0.630
2020/01/31 19:36:46.7	12.900	0.070	0.480	0.660
2020/01/31 19:36:46.8	12.810	0.100	0.480	0.680
2020/01/31 19:36:46.9	12.750	0.130	0.470	0.710
2020/01/31 19:36:47.0	12.670	0.160	0.460	0.730
2020/01/31 19:36:47.1	12.590	0.180	0.430	0.750
2020/01/31 19:36:47.2	12.520	0.210	0.400	0.760
2020/01/31 19:36:47.3	12.450	0.230	0.370	0.770
2020/01/31 19:36:47.4	12.390	0.260	0.330	0.780
2020/01/31 19:36:47.5	12.330	0.280	0.280	0.780
2020/01/31 19:36:47.6	12.270	0.300	0.220	0.780
2020/01/31 19:36:47.7	12.210	0.320	0.160	0.780
2020/01/31 19:36:47.8	12.170	0.340	0.100	0.770
2020/01/31 19:36:47.9	12.130	0.350	0.030	0.750
2020/01/31 19:36:48.0	12.080	0.370	-0.040	0.740
2020/01/31 19:36:48.1	12.040	0.380	-0.120	0.720
2020/01/31 19:36:48.2	12.010	0.390	-0.190	0.700
2020/01/31 19:36:48.3	11.970	0.400	-0.270	0.680
2020/01/31 19:36:48.4	11.940	0.400	-0.340	0.660
2020/01/31 19:36:48.5	11.910	0.410	-0.420	0.640
2020/01/31 19:36:48.6	11.890	0.410	-0.490	0.610
2020/01/31 19:36:48.7	11.860	0.410	-0.550	0.580
2020/01/31 19:36:48.8	11.830	0.400	-0.620	0.560
2020/01/31 19:36:48.9	11.800	0.400	-0.680	0.530
2020/01/31 19:36:49.0	11.780	0.390	-0.730	0.500
2020/01/31 19:36:49.1	11.750	0.370	-0.780	0.480
2020/01/31 19:36:49.2	11.720	0.360	-0.820	0.450
2020/01/31 19:36:49.3	11.690	0.340	-0.850	0.420
2020/01/31 19:36:49.4	11.650	0.320	-0.870	0.390
2020/01/31 19:36:49.5	11.610	0.300	-0.880	0.370
2020/01/31 19:36:49.6	11.570	0.280	-0.890	0.340
2020/01/31 19:36:49.7	11.530	0.250	-0.880	0.320
2020/01/31 19:36:49.8	11.480	0.220	-0.870	0.300
2020/01/31 19:36:49.9	11.420	0.190	-0.840	0.280
2020/01/31 19:36:50.0	11.370	0.150	-0.810	0.260
2020/01/31 19:36:50.1	11.300	0.120	-0.770	0.240
2020/01/31 19:36:50.2	11.240	0.080	-0.730	0.230
2020/01/31 19:36:50.3	11.170	0.040	-0.680	0.220
2020/01/31 19:36:50.4	11.110	0.000	-0.620	0.210
2020/01/31 19:36:50.5	11.030	-0.040	-0.560	0.200
2020/01/31 19:36:50.6	10.960	-0.080	-0.500	0.190
2020/01/31 19:36:50.7	10.880	-0.120	-0.430	0.190
2020/01/31 19:36:50.8	10.810	-0.170	-0.360	0.180
2020/01/31 19:36:50.9	10.720	-0.210	-0.290	0.180
2020/01/31 19:36:51.0	10.640	-0.250	-0.220	0.180
2020/01/31 19:36:51.1	10.570	-0.290	-0.160	0.180
2020/01/31 19:36:51.2	10.490	-0.330	-0.090	0.180
2020/01/31 19:36:51.3	10.410	-0.360	-0.030	0.180
2020/01/31 19:36:51.4	10.340	-0.400	0.030	0.190
2020/01/31 19:36:51.5	10.270	-0.430	0.080	0.190
2020/01/31 19:36:51.6	10.200	-0.460	0.130	0.190
2020/01/31 19:36:51.7	10.140	-0.490	0.170	0.200
2020/01/31 19:36:51.8	10.070	-0.510	0.200	0.200
2020/01/31 19:36:51.9	10.030	-0.530	0.230	0.200
2020/01/31 19:36:52.0	9.970	-0.540	0.250	0.200
2020/01/31 19:36:52.1	9.920	-0.550	0.260	0.200
2020/01/31 19:36:52.2	9.870	-0.550	0.270	0.200
2020/01/31 19:36:52.3	9.830	-0.550	0.260	0.200
2020/01/31 19:36:52.4	9.790	-0.540	0.250	0.210
2020/01/31 19:36:52.5	9.750	-0.530	0.240	0.210
2020/01/31 19:36:52.6	9.720	-0.510	0.210	0.210
2020/01/31 19:36:52.7	9.680	-0.490	0.180	0.210
2020/01/31 19:36:52.8	9.650	-0.460	0.150	0.220
2020/01/31 19:36:52.9	9.640	-0.430	0.110	0.220
2020/01/31 19:36:53.0	9.610	-0.400	0.060	0.230
2020/01/31 19:36:53.1	9.580	-0.360	0.020	0.240
2020/01/31 19:36:53.2	9.550	-0.310	-0.030	0.260
2020/01/31 19:36:53.3	9.520	-0.270	-0.080	0.270
2020/01/31 19:36:53.4	9.490	-0.220	-0.120	0.300
2020/01/31 19:36:53.5	9.450	-0.170	-0.160	0.320
2020/01/31 19:36:53.6	9.420	-0.120	-0.200	0.360
2020/01/31 19:36:53.7	9.380	-0.070	-0.240	0.400
2020/01/31 19:36:53.8	9.330	-0.010	-0.260	0.440
2020/01/31 19:36:53.9	9.290	0.040	-0.290	0.490
2020/01/31 19:36:54.0	9.230	0.090	-0.310	0.550
2020/01/31 19:36:54.1	9.170	0.140	-0.320	0.610
2020/01/31 19:36:54.2	9.110	0.180	-0.320	0.680
2020/01/31 19:36:54.3	9.040	0.230	-0.310	0.750
2020/01/31 19:36:54.4	8.970	0.270	-0.300	0.830
2020/01/31 19:36:54.5	8.900	0.310	-0.280	0.910
2020/01/31 19:36:54.6	8.820	0.340	-0.260	0.990
2020/01/31 19:36:54.7	8.740	0.370	-0.230	1.080
2020/01/31 19:36:54.8	8.660	0.390	-0.190	1.160
2020/01/31 19:36:54.9	8.570	0.410	-0.150	1.260
2020/01/31 19:36:55.0	8.480	0.420	-0.110	1.340
2020/01/31 19:36:55.1	8.400	0.430	-0.070	1.430
2020/01/31 19:36:55.2	8.310	0.430	-0.020	1.510
2020/01/31 19:36:55.3	8.230	0.430	0.020	1.600
2020/01/31 19:36:55.4	8.140	0.420	0.070	1.680
2020/01/31 19:36:55.5	8.060	0.410	0.110	1.750
2020/01/31 19:36:55.6	7.980	0.390	0.150	1.820
2020/01/31 19:36:55.7	7.900	0.370	0.190	1.890
2020/01/31 19:36:55.8	7.820	0.340	0.220	1.950
2020/01/31 19:36:55.9	7.760	0.310	0.250	2.000
2020/01/31 19:36:56.0	7.690	0.280	0.270	2.050
2020/01/31 19:36:56.1	7.620	0.240	0.290	2.080
2020/01/31 19:36:56.2	7.560	0.200	0.300	2.110
2020/01/31 19:36:56.3	7.500	0.160	0.310	2.130
2020/01/31 19:36:56.4	7.440	0.110	0.300	2.150
2020/01/31 19:36:56.5	7.390	0.070	0.300	2.150
2020/01/31 19:36:56.6	7.340	0.020	0.280	2.140
2020/01/31 19:36:56.7	7.300	-0.020	0.260	2.130
2020/01/31 19:36:56.8	7.260	-0.070	0.230	2.100
2020/01/31 19:36:56.9	7.220	-0.110	0.200	2.070
2020/01/31 19:36:57.0	7.190	-0.160	0.160	2.030
2020/01/31 19:36:57.1	7.160	-0.200	0.110	1.980
2020/01/31 19:36:57.2	7.140	-0.250	0.050	1.920
2020/01/31 19:36:57.3	7.110	-0.290	-0.000	1.860
2020/01/31 19:36:57.4	7.090	-0.320	-0.070	1.790
2020/01/31 19:36:57.5	7.080	-0.360	-0.130	1.710
2020/01/31 19:36:57.6	7.060	-0.390	-0.200	1.640
2020/01/31 19:36:57.7	7.050	-0.420	-0.270	1.550
2020/01/31 19:36:57.8	7.040	-0.440	-0.350	1.470
2020/01/31 19:36:57.9	7.050	-0.460	-0.420	1.380
2020/01/31 19:36:58.0	7.040	-0.480	-0.490	1.290
2020/01/31 19:36:58.1	7.030	-0.490	-0.570	1.210
2020/01/31 19:36:58.2	7.030	-0.500	-0.640	1.120
2020/01/31 19:36:58.3	7.020	-0.500	-0.700	1.040
2020/01/31 19:36:58.4	7.020	-0.500	-0.770	0.960
2020/01/31 19:36:58.5	7.010	-0.500	-0.830	0.880
2020/01/31 19:36:58.6	7.000	-0.480	-0.890	0.810
2020/01/31 19:36:58.7	6.990	-0.470	-0.940	0.740
2020/01/31 19:36:58.8	6.980	-0.450	-0.980	0.680
2020/01/31 19:36:58.9	6.970	-0.420	-1.020	0.620
2020/01/31 19:36:59.0	6.960	-0.390	-1.050	0.570
2020/01/31 19:36:59.1	6.940	-0.360	-1.080	0.520
2020/01/31 19:36:59.2	6.920	-0.320	-1.090	0.490
2020/01/31 19:36:59.3	6.900	-0.280	-1.110	0.450
2020/01/31 19:36:59.4	6.880	-0.230	-1.110	0.430
2020/01/31 19:36:59.5	6.860	-0.190	-1.100	0.410
2020/01/31 19:36:59.6	6.830	-0.130	-1.090	0.400
2020/01/31 19:36:59.7	6.800	-0.080	-1.070	0.400
2020/01/31 19:36:59.8	6.770	-0.030	-1.050	0.400
2020/01/31 19:36:59.9	6.720	0.030	-1.020	0.410
2020/01/31 19:37:00.0	6.680	0.090	-0.980	0.430
2020/01/31 19:37:00.1	6.650	0.150	-0.940	0.450
2020/01/31 19:37:00.2	6.610	0.210	-0.890	0.470
2020/01/31 19:37:00.3	6.570	0.270	-0.840	0.500
2020/01/31 19:37:00.4	6.530	0.320	-0.790	0.530
2020/01/31 19:37:00.5	6.500	0.380	-0.740	0.570
2020/01/31 19:37:00.6	6.460	0.440	-0.680	0.610
2020/01/31 19:37:00.7	6.430	0.490	-0.630	0.640
2020/01/31 19:37:00.8	6.400	0.540	-0.570	0.680
2020/01/31 19:37:00.9	6.370	0.590	-0.520	0.720
2020/01/31 19:37:01.0	6.340	0.630	-0.470	0.760
2020/01/31 19:37:01.1	6.320	0.670	-0.430	0.800
2020/01/31 19:37:01.2	6.290	0.710	-0.380	0.840
2020/01/31 19:37:01.3	6.270	0.740	-0.340	0.870
2020/01/31 19:37:01.4	6.260	0.770	-0.300	0.900
2020/01/31 19:37:01.5	6.240	0.800	-0.270	0.930
2020/01/31 19:37:01.6	6.230	0.820	-0.240	0.950
2020/01/31 19:37:01.7	6.220	0.830	-0.210	0.970
2020/01/31 19:37:01.8	6.220	0.840	-0.190	0.980
2020/01/31 19:37:01.9	6.210	0.840	-0.170	0.990
2020/01/31 19:37:02.0	6.210	0.830	-0.160	1.000
2020/01/31 19:37:02.1	6.210	0.820	-0.150	1.000
2020/01/31 19:37:02.2	6.210	0.810	-0.140	0.990
2020/01/31 19:37:02.3	6.220	0.790	-0.130	0.980
2020/01/31 19:37:02.4	6.220	0.760	-0.130	0.960
2020/01/31 19:37:02.5	6.230	0.730	-0.120	0.950
2020/01/31 19:37:02.6	6.230	0.690	-0.120	0.920
2020/01/31 19:37:02.7	6.240	0.640	-0.120	0.890
2020/01/31 19:37:02.8	6.240	0.600	-0.120	0.860
2020/01/31 19:37:02.9	6.250	0.540	-0.120	0.830
2020/01/31 19:37:03.0	6.250	0.480	-0.120	0.790
2020/01/31 19:37:03.1	6.250	0.420	-0.120	0.760
2020/01/31 19:37:03.2	6.250	0.360	-0.120	0.720
2020/01/31 19:37:03.3	6.250	0.290	-0.110	0.680
2020/01/31 19:37:03.4	6.240	0.220	-0.100	0.630
2020/01/31 19:37:03.5	6.230	0.140	-0.090	0.590
2020/01/31 19:37:03.6	6.220	0.070	-0.070	0.550
2020/01/31 19:37:03.7	6.210	-0.010	-0.050	0.510
2020/01/31 19:37:03.8	6.190	-0.080	-0.030	0.470
2020/01/31 19:37:03.9	6.170	-0.160	-0.000	0.430
2020/01/31 19:37:04.0	6.140	-0.240	0.030	0.390
2020/01/31 19:37:04.1	6.120	-0.310	0.070	0.360
2020/01/31 19:37:04.2	6.090	-0.380	0.110	0.330
2020/01/31 19:37:04.3	6.060	-0.450	0.150	0.300
2020/01/31 19:37:04.4	6.020	-0.520	0.200	0.280
2020/01/31 19:37:04.5	5.990	-0.590	0.250	0.260
2020/01/31 19:37:04.6	5.950	-0.650	0.300	0.240
2020/01/31 19:37:04.7	5.910	-0.710	0.350	0.230
2020/01/31 19:37:04.8	5.860	-0.760	0.410	0.220
2020/01/31 19:37:04.9	5.810	-0.810	0.460	0.210
2020/01/31 19:37:05.0	5.760	-0.850	0.520	0.200
2020/01/31 19:37:05.1	5.710	-0.890	0.570	0.200
2020/01/31 19:37:05.2	5.660	-0.920	0.630	0.200
2020/01/31 19:37:05.3	5.600	-0.940	0.680	0.210
2020/01/31 19:37:05.4	5.550	-0.960	0.720	0.220
2020/01/31 19:37:05.5	5.490	-0.980	0.770	0.230
2020/01/31 19:37:05.6	5.430	-0.990	0.800	0.240
2020/01/31 19:37:05.7	5.370	-0.990	0.840	0.250
2020/01/31 19:37:05.8	5.300	-0.990	0.870	0.270
2020/01/31 19:37:05.9	5.230	-0.980	0.890	0.290
2020/01/31 19:37:06.0	5.170	-0.960	0.910	0.310
2020/01/31 19:37:06.1	5.100	-0.940	0.920	0.340
2020/01/31 19:37:06.2	5.040	-0.920	0.920	0.360
2020/01/31 19:37:06.3	4.970	-0.890	0.920	0.380
2020/01/31 19:37:06.4	4.910	-0.850	0.900	0.410
2020/01/31 19:37:06.5	4.840	-0.820	0.890	0.430
2020/01/31 19:37:06.6	4.770	-0.770	0.860	0.460
2020/01/31 19:37:06.7	4.710	-0.730	0.830	0.480
2020/01/31 19:37:06.8	4.640	-0.680	0.790	0.500
2020/01/31 19:37:06.9	4.560	-0.630	0.740	0.530
2020/01/31 19:37:07.0	4.490	-0.580	0.680	0.550
2020/01/31 19:37:07.1	4.430	-0.520	0.620	0.570
2020/01/31 19:37:07.2	4.360	-0.470	0.560	0.600
2020/01/31 19:37:07.3	4.300	-0.410	0.490	0.620
2020/01/31 19:37:07.4	4.240	-0.350	0.410	0.640
2020/01/31 19:37:07.5	4.180	-0.290	0.330	0.660
2020/01/31 19:37:07.6	4.120	-0.230	0.240	0.670
2020/01/31 19:37:07.7	4.060	-0.170	0.150	0.690
2020/01/31 19:37:07.8	4.010	-0.120	0.060	0.700
2020/01/31 19:37:07.9	3.950	-0.060	-0.030	0.710
2020/01/31 19:37:08.0	3.910	-0.010	-0.130	0.720
2020/01/31 19:37:08.1	3.860	0.050	-0.230	0.720
2020/01/31 19:37:08.2	3.830	0.100	-0.320	0.720
2020/01/31 19:37:08.3	3.790	0.150	-0.420	0.720
2020/01/31 19:37:08.4	3.760	0.200	-0.520	0.710
2020/01/31 19:37:08.5	3.740	0.250	-0.610	0.700
2020/01/31 19:37:08.6	3.720	0.290	-0.710	0.690
2020/01/31 19:37:08.7	3.700	0.330	-0.800	0.670
2020/01/31 19:37:08.8	3.690	0.370	-0.890	0.650
2020/01/31 19:37:08.9	3.680	0.410	-0.980	0.620
2020/01/31 19:37:09.0	3.680	0.450	-1.060	0.590
2020/01/31 19:37:09.1	3.690	0.480	-1.140	0.550
2020/01/31 19:37:09.2	3.700	0.510	-1.220	0.520
2020/01/31 19:37:09.3	3.710	0.540	-1.290	0.470
2020/01/31 19:37:09.4	3.730	0.560	-1.350	0.430
2020/01/31 19:37:09.5	3.760	0.580	-1.410	0.390
2020/01/31 19:37:09.6	3.790	0.600	-1.470	0.340
2020/01/31 19:37:09.7	3.820	0.620	-1.520	0.290
2020/01/31 19:37:09.8	3.860	0.630	-1.560	0.250
2020/01/31 19:37:09.9	3.890	0.640	-1.590	0.200
2020/01/31 19:37:10.0	3.930	0.640	-1.620	0.150
2020/01/31 19:37:10.1	3.970	0.650	-1.630	0.110
2020/01/31 19:37:10.2	4.010	0.650	-1.640	0.070
2020/01/31 19:37:10.3	4.050	0.640	-1.640	0.030
2020/01/31 19:37:10.4	4.090	0.630	-1.630	-0.010
2020/01/31 19:37:10.5	4.120	0.620	-1.620	-0.040
2020/01/31 19:37:10.6	4.160	0.610	-1.590	-0.070
2020/01/31 19:37:10.7	4.190	0.590	-1.550	-0.100
2020/01/31 19:37:10.8	4.220	0.560	-1.510	-0.120
2020/01/31 19:37:10.9	4.230	0.540	-1.460	-0.130
2020/01/31 19:37:11.0	4.250	0.510	-1.400	-0.140
2020/01/31 19:37:11.1	4.260	0.470	-1.330	-0.150
2020/01/31 19:37:11.2	4.270	0.440	-1.260	-0.150
2020/01/31 19:37:11.3	4.280	0.400	-1.180	-0.150
2020/01/31 19:37:11.4	4.280	0.360	-1.100	-0.140
2020/01/31 19:37:11.5	4.270	0.310	-1.010	-0.130
2020/01/31 19:37:11.6	4.260	0.270	-0.910	-0.120
2020/01/31 19:37:11.7	4.240	0.220	-0.820	-0.100
2020/01/31 19:37:11.8	4.220	0.170	-0.720	-0.070
2020/01/31 19:37:11.9	4.170	0.120	-0.620	-0.040
2020/01/31 19:37:12.0	4.130	0.070	-0.510	-0.010
2020/01/31 19:37:12.1	4.080	0.010	-0.410	0.030
2020/01/31 19:37:12.2	4.030	-0.040	-0.310	0.060
2020/01/31 19:37:12.3	3.980	-0.090	-0.210	0.110
2020/01/31 19:37:12.4	3.920	-0.140	-0.100	0.150
2020/01/31 19:37:12.5	3.850	-0.190	-0.000	0.200
2020/01/31 19:37:12.6	3.770	-0.240	0.090	0.250
2020/01/31 19:37:12.7	3.690	-0.280	0.190	0.300
2020/01/31 19:37:12.8	3.610	-0.330	0.280	0.350
2020/01/31 19:37:12.9	3.520	-0.370	0.360	0.400
2020/01/31 19:37:13.0	3.430	-0.410	0.440	0.450
2020/01/31 19:37:13.1	3.330	-0.440	0.520	0.500
2020/01/31 19:37:13.2	3.240	-0.480	0.590	0.550
2020/01/31 19:37:13.3	3.140	-0.510	0.650	0.600
2020/01/31 19:37:13.4	3.040	-0.530	0.700	0.640
2020/01/31 19:37:13.5	2.940	-0.550	0.750	0.680
2020/01/31 19:37:13.6	2.840	-0.570	0.790	0.720
2020/01/31 19:37:13.7	2.740	-0.590	0.820	0.760
2020/01/31 19:37:13.8	2.640	-0.600	0.840	0.790
2020/01/31 19:37:13.9	2.540	-0.600	0.860	0.820
2020/01/31 19:37:14.0	2.450	-0.600	0.860	0.850
2020/01/31 19:37:14.1	2.360	-0.600	0.860	0.870
2020/01/31 19:37:14.2	2.270	-0.590	0.850	0.880
2020/01/31 19:37:14.3	2.180	-0.580	0.840	0.890
2020/01/31 19:37:14.4	2.100	-0.570	0.810	0.900
2020/01/31 19:37:14.5	2.030	-0.550	0.780	0.900
2020/01/31 19:37:14.6	1.950	-0.520	0.750	0.900
2020/01/31 19:37:14.7	1.880	-0.500	0.710	0.890
2020/01/31 19:37:14.8	1.810	-0.470	0.660	0.880
2020/01/31 19:37:14.9	1.770	-0.440	0.610	0.860
2020/01/31 19:37:15.0	1.710	-0.400	0.550	0.840
2020/01/31 19:37:15.1	1.660	-0.360	0.490	0.810
2020/01/31 19:37:15.2	1.600	-0.330	0.430	0.790
2020/01/31 19:37:15.3	1.560	-0.290	0.370	0.760
2020/01/31 19:37:15.4	1.510	-0.240	0.310	0.740
2020/01/31 19:37:15.5	1.470	-0.200	0.250	0.710
2020/01/31 19:37:15.6	1.440	-0.160	0.190	0.680
2020/01/31 19:37:15.7	1.400	-0.120	0.130	0.640
2020/01/31 19:37:15.8	1.370	-0.070	0.070	0.610
2020/01/31 19:37:15.9	1.360	-0.030	0.010	0.580
2020/01/31 19:37:16.0	1.330	0.010	-0.040	0.550
2020/01/31 19:37:16.1	1.310	0.050	-0.100	0.520
2020/01/31 19:37:16.2	1.290	0.090	-0.140	0.480
2020/01/31 19:37:16.3	1.280	0.130	-0.190	0.450
2020/01/31 19:37:16.4	1.270	0.170	-0.230	0.420
2020/01/31 19:37:16.5	1.260	0.200	-0.270	0.390
2020/01/31 19:37:16.6	1.250	0.230	-0.310	0.360
2020/01/31 19:37:16.7	1.240	0.260	-0.340	0.330
2020/01/31 19:37:16.8	1.240	0.290	-0.370	0.310
2020/01/31 19:37:16.9	1.250	0.310	-0.390	0.280
2020/01/31 19:37:17.0	1.250	0.340	-0.410	0.260
2020/01/31 19:37:17.1	1.250	0.360	-0.430	0.240
2020/01/31 19:37:17.2	1.250	0.370	-0.450	0.220
2020/01/31 19:37:17.3	1.250	0.390	-0.460	0.210
2020/01/31 19:37:17.4	1.260	0.400	-0.470	0.200
2020/01/31 19:37:17.5	1.260	0.410	-0.470	0.190
2020/01/31 19:37:17.6	1.270	0.410	-0.480	0.180
2020/01/31 19:37:17.7	1.270	0.420	-0.480	0.180
2020/01/31 19:37:17.8	1.270	0.420	-0.480	0.180
2020/01/31 19:37:17.9	1.290	0.420	-0.470	0.180
2020/01/31 19:37:18.0	1.300	0.410	-0.470	0.190
2020/01/31 19:37:18.1	1.300	0.400	-0.460	0.200
2020/01/31 19:37:18.2	1.300	0.390	-0.450	0.210
2020/01/31 19:37:18.3	1.300	0.380	-0.430	0.230
2020/01/31 19:37:18.4	1.300	0.370	-0.420	0.240
2020/01/31 19:37:18.5	1.300	0.350	-0.400	0.270
2020/01/31 19:37:18.6	1.300	0.330	-0.390	0.290
2020/01/31 19:37:18.7	1.290	0.310	-0.370	0.320
2020/01/31 19:37:18.8	1.290	0.290	-0.350	0.340
2020/01/31 19:37:18.9	1.280	0.270	-0.330	0.370
2020/01/31 19:37:19.0	1.270	0.240	-0.310	0.400
2020/01/31 19:37:19.1	1.260	0.220	-0.290	0.440
2020/01/31 19:37:19.2	1.240	0.190	-0.280	0.470
2020/01/31 19:37:19.3	1.230	0.160	-0.260	0.500
2020/01/31 19:37:19.4	1.210	0.130	-0.250	0.530
2020/01/31 19:37:19.5	1.190	0.110	-0.240	0.570
2020/01/31 19:37:19.6	1.170	0.080	-0.230	0.600
2020/01/31 19:37:19.7	1.150	0.050	-0.220	0.630
2020/01/31 19:37:19.8	1.130	0.020	-0.220	0.660
2020/01/31 19:37:19.9	1.110	-0.010	-0.220	0.680
2020/01/31 19:37:20.0	1.090	-0.030	-0.230	0.700
2020/01/31 19:37:20.1	1.070	-0.060	-0.240	0.730
2020/01/31 19:37:20.2	1.060	-0.080	-0.250	0.740
2020/01/31 19:37:20.3	1.040	-0.100	-0.270	0.760
2020/01/31 19:37:20.4	1.020	-0.130	-0.290	0.770
2020/01/31 19:37:20.5	1.010	-0.140	-0.310	0.780
2020/01/31 19:37:20.6	1.000	-0.160	-0.330	0.790
2020/01/31 19:37:20.7	0.990	-0.170	-0.360	0.790
2020/01/31 19:37:20.8	0.980	-0.190	-0.390	0.790
2020/01/31 19:37:20.9	0.980	-0.200	-0.430	0.780
2020/01/31 19:37:21.0	0.970	-0.200	-0.460	0.780
2020/01/31 19:37:21.1	0.970	-0.210	-0.490	0.770
2020/01/31 19:37:21.2	0.960	-0.210	-0.520	0.760
2020/01/31 19:37:21.3	0.960	-0.210	-0.550	0.740
2020/01/31 19:37:21.4	0.960	-0.210	-0.580	0.730
2020/01/31 19:37:21.5	0.950	-0.210	-0.600	0.710
2020/01/31 19:37:21.6	0.950	-0.200	-0.620	0.690
2020/01/31 19:37:21.7	0.940	-0.190	-0.640	0.680
2020/01/31 19:37:21.8	0.930	-0.190	-0.650	0.660
2020/01/31 19:37:21.9	0.930	-0.180	-0.650	0.640
2020/01/31 19:37:22.0	0.920	-0.170	-0.650	0.620
2020/01/31 19:37:22.1	0.900	-0.160	-0.650	0.600
2020/01/31 19:37:22.2	0.890	-0.150	-0.630	0.580
2020/01/31 19:37:22.3	0.870	-0.140	-0.610	0.570
2020/01/31 19:37:22.4	0.840	-0.130	-0.580	0.550
2020/01/31 19:37:22.5	0.820	-0.120	-0.550	0.540
2020/01/31 19:37:22.6	0.790	-0.110	-0.510	0.530
2020/01/31 19:37:22.7	0.770	-0.100	-0.460	0.510
2020/01/31 19:37:22.8	0.740	-0.100	-0.410	0.500
2020/01/31 19:37:22.9	0.700	-0.100	-0.350	0.490
2020/01/31 19:37:23.0	0.660	-0.090	-0.290	0.480
2020/01/31 19:37:23.1	0.620	-0.100	-0.220	0.470
2020/01/31 19:37:23.2	0.590	-0.100	-0.150	0.460
2020/01/31 19:37:23.3	0.550	-0.100	-0.080	0.450
2020/01/31 19:37:23.4	0.500	-0.110	-0.000	0.450
2020/01/31 19:37:23.5	0.460	-0.120	0.070	0.440
2020/01/31 19:37:23.6	0.420	-0.130	0.150	0.440
2020/01/31 19:37:23.7	0.380	-0.150	0.220	0.440
2020/01/31 19:37:23.8	0.330	-0.160	0.290	0.440
2020/01/31 19:37:23.9	0.300	-0.180	0.360	0.440
2020/01/31 19:37:24.0	0.260	-0.190	0.420	0.450
2020/01/31 19:37:24.1	0.220	-0.210	0.480	0.450
2020/01/31 19:37:24.2	0.180	-0.230	0.530	0.450
2020/01/31 19:37:24.3	0.140	-0.250	0.580	0.450
2020/01/31 19:37:24.4	0.110	-0.260	0.620	0.450
2020/01/31 19:37:24.5	0.080	-0.280	0.650	0.450
2020/01/31 19:37:24.6	0.050	-0.300	0.670	0.450
2020/01/31 19:37:24.7	0.030	-0.310	0.680	0.450
2020/01/31 19:37:24.8	0.000	-0.330	0.690	0.440
2020/01/31 19:37:24.9	359.980	-0.340	0.680	0.430
2020/01/31 19:37:25.0	359.960	-0.350	0.670	0.420
2020/01/31 19:37:25.1	359.950	-0.360	0.650	0.410
2020/01/31 19:37:25.2	359.940	-0.370	0.620	0.400
2020/01/31 19:37:25.3	359.930	-0.380	0.590	0.380
2020/01/31 19:37:25.4	359.920	-0.380	0.540	0.360
2020/01/31 19:37:25.5	359.920	-0.380	0.490	0.340
2020/01/31 19:37:25.6	359.920	-0.380	0.430	0.320
2020/01/31 19:37:25.7	359.920	-0.380	0.360	0.290
2020/01/31 19:37:25.8	359.920	-0.370	0.290	0.270
2020/01/31 19:37:25.9	359.920	-0.370	0.220	0.230
2020/01/31 19:37:26.0	359.920	-0.360	0.140	0.210
2020/01/31 19:37:26.1	359.930	-0.340	0.050	0.180
2020/01/31 19:37:26.2	359.940	-0.330	-0.030	0.150
2020/01/31 19:37:26.3	359.940	-0.310	-0.120	0.130
2020/01/31 19:37:26.4	359.950	-0.290	-0.210	0.100
2020/01/31 19:37:26.5	359.960	-0.260	-0.290	0.080
2020/01/31 19:37:26.6	359.960	-0.240	-0.380	0.060
2020/01/31 19:37:26.7	359.960	-0.210	-0.470	0.040
2020/01/31 19:37:26.8	359.970	-0.180	-0.550	0.030
2020/01/31 19:37:26.9	359.970	-0.150	-0.630	0.020
2020/01/31 19:37:27.0	359.970	-0.120	-0.700	0.020
2020/01/31 19:37:27.1	359.960	-0.080	-0.770	0.020
2020/01/31 19:37:27.2	359.960	-0.040	-0.830	0.020
2020/01/31 19:37:27.3	359.950	-0.010	-0.880	0.030
2020/01/31 19:37:27.4	359.940	0.030	-0.930	0.040
2020/01/31 19:37:27.5	359.920	0.070	-0.970	0.060
2020/01/31 19:37:27.6	359.910	0.120	-1.000	0.080
2020/01/31 19:37:27.7	359.900	0.160	-1.030	0.100
2020/01/31 19:37:27.8	359.880	0.200	-1.050	0.130
2020/01/31 19:37:27.9	359.870	0.240	-1.060	0.160
2020/01/31 19:37:28.0	359.850	0.280	-1.060	0.190
2020/01/31 19:37:28.1	359.840	0.330	-1.060	0.230
2020/01/31 19:37:28.2	359.820	0.370	-1.050	0.270
2020/01/31 19:37:28.3	359.810	0.410	-1.030	0.320
2020/01/31 19:37:28.4	359.790	0.450	-1.010	0.360
2020/01/31 19:37:28.5	359.780	0.490	-0.990	0.410
2020/01/31 19:37:28.6	359.770	0.530	-0.960	0.450
2020/01/31 19:37:28.7	359.760	0.570	-0.930	0.500
2020/01/31 19:37:28.8	359.750	0.600	-0.890	0.540
2020/01/31 19:37:28.9	359.750	0.640	-0.860	0.580
2020/01/31 19:37:29.0	359.750	0.670	-0.820	0.620
2020/01/31 19:37:29.1	359.750	0.710	-0.790	0.660
2020/01/31 19:37:29.2	359.750	0.740	-0.750	0.700
2020/01/31 19:37:29.3	359.760	0.770	-0.710	0.730
2020/01/31 19:37:29.4	359.760	0.790	-0.680	0.760
2020/01/31 19:37:29.5	359.770	0.820	-0.640	0.790
2020/01/31 19:37:29.6	359.780	0.840	-0.600	0.820
2020/01/31 19:37:29.7	359.780	0.860	-0.570	0.840
2020/01/31 19:37:29.8	359.790	0.870	-0.530	0.860
2020/01/31 19:37:29.9	359.800	0.880	-0.500	0.870
2020/01/31 19:37:30.0	359.800	0.880	-0.470	0.880
2020/01/31 19:37:30.1	359.810	0.880	-0.440	0.890
2020/01/31 19:37:30.2	359.810	0.880	-0.410	0.900
2020/01/31 19:37:30.3	359.810	0.870	-0.370	0.900
2020/01/31 19:37:30.4	359.810	0.860	-0.340	0.890
2020/01/31 19:37:30.5	359.810	0.840	-0.310	0.880
2020/01/31 19:37:30.6	359.800	0.810	-0.280	0.870
2020/01/31 19:37:30.7	359.790	0.790	-0.250	0.860
2020/01/31 19:37:30.8	359.780	0.750	-0.230	0.840
2020/01/31 19:37:30.9	359.780	0.710	-0.200	0.810
2020/01/31 19:37:31.0	359.770	0.670	-0.170	0.780
2020/01/31 19:37:31.1	359.750	0.620	-0.150	0.750
2020/01/31 19:37:31.2	359.740	0.570	-0.120	0.720
2020/01/31 19:37:31.3	359.720	0.510	-0.100	0.680
2020/01/31 19:37:31.4	359.700	0.450	-0.070	0.640
2020/01/31 19:37:31.5	359.690	0.390	-0.050	0.590
2020/01/31 19:37:31.6	359.670	0.320	-0.030	0.550
2020/01/31 19:37:31.7	359.650	0.260	-0.010	0.500
2020/01/31 19:37:31.8	359.630	0.190	0.010	0.450
2020/01/31 19:37:31.9	359.620	0.110	0.030	0.390
2020/01/31 19:37:32.0	359.600	0.040	0.040	0.340
2020/01/31 19:37:32.1	359.590	-0.030	0.060	0.290
2020/01/31 19:37:32.2	359.570	-0.110	0.080	0.230
2020/01/31 19:37:32.3	359.570	-0.180	0.090	0.170
2020/01/31 19:37:32.4	359.560	-0.250	0.110	0.110
2020/01/31 19:37:32.5	359.550	-0.320	0.120	0.050
2020/01/31 19:37:32.6	359.550	-0.390	0.130	-0.010
2020/01/31 19:37:32.7	359.550	-0.450	0.140	-0.070
2020/01/31 19:37:32.8	359.550	-0.510	0.150	-0.130
2020/01/31 19:37:32.9	359.550	-0.570	0.160	-0.200
2020/01/31 19:37:33.0	359.550	-0.630	0.160	-0.260
2020/01/31 19:37:33.1	359.560	-0.680	0.160	-0.320
2020/01/31 19:37:33.2	359.570	-0.720	0.170	-0.380
2020/01/31 19:37:33.3	359.570	-0.770	0.170	-0.440
2020/01/31 19:37:33.4	359.580	-0.800	0.170	-0.500
2020/01/31 19:37:33.5	359.590	-0.830	0.170	-0.550
2020/01/31 19:37:33.6	359.600	-0.860	0.170	-0.590
2020/01/31 19:37:33.7	359.610	-0.880	0.180	-0.640
2020/01/31 19:37:33.8	359.610	-0.900	0.180	-0.670
2020/01/31 19:37:33.9	359.600	-0.910	0.180	-0.710
2020/01/31 19:37:34.0	359.600	-0.920	0.190	-0.730
2020/01/31 19:37:34.1	359.600	-0.920	0.200	-0.750
2020/01/31 19:37:34.2	359.600	-0.910	0.210	-0.760
2020/01/31 19:37:34.3	359.590	-0.900	0.220	-0.770
2020/01/31 19:37:34.4	359.580	-0.890	0.230	-0.770
2020/01/31 19:37:34.5	359.580	-0.870	0.250	-0.750
2020/01/31 19:37:34.6	359.560	-0.850	0.260	-0.740
2020/01/31 19:37:34.7	359.550	-0.820	0.280	-0.710
2020/01/31 19:37:34.8	359.530	-0.790	0.300	-0.680
2020/01/31 19:37:34.9	359.510	-0.760	0.320	-0.650
2020/01/31 19:37:35.0	359.490	-0.720	0.340	-0.610
2020/01/31 19:37:35.1	359.470	-0.690	0.350	-0.560
2020/01/31 19:37:35.2	359.440	-0.650	0.370	-0.510
2020/01/31 19:37:35.3	359.420	-0.600	0.390	-0.460
2020/01/31 19:37:35.4	359.390	-0.560	0.400	-0.400
2020/01/31 19:37:35.5	359.370	-0.520	0.410	-0.340
2020/01/31 19:37:35.6	359.340	-0.470	0.420	-0.280
2020/01/31 19:37:35.7	359.310	-0.430	0.430	-0.220
2020/01/31 19:37:35.8	359.290	-0.380	0.440	-0.160
2020/01/31 19:37:35.9	359.250	-0.340	0.430	-0.100
2020/01/31 19:37:36.0	359.230	-0.290	0.430	-0.030
2020/01/31 19:37:36.1	359.200	-0.240	0.420	0.030
2020/01/31 19:37:36.2	359.180	-0.200	0.410	0.090
2020/01/31 19:37:36.3	359.160	-0.160	0.390	0.150
2020/01/31 19:37:36.4	359.130	-0.110	0.370	0.200
2020/01/31 19:37:36.5	359.110	-0.070	0.340	0.260
2020/01/31 19:37:36.6	359.090	-0.030	0.310	0.310
2020/01/31 19:37:36.7	359.070	0.000	0.270	0.360
2020/01/31 19:37:36.8	359.050	0.040	0.240	0.410
2020/01/31 19:37:36.9	359.020	0.080	0.190	0.460
2020/01/31 19:37:37.0	359.000	0.110	0.140	0.510
2020/01/31 19:37:37.1	358.980	0.140	0.090	0.550
2020/01/31 19:37:37.2	358.960	0.170	0.040	0.590
2020/01/31 19:37:37.3	358.940	0.200	-0.020	0.630
2020/01/31 19:37:37.4	358.930	0.220	-0.080	0.670
2020/01/31 19:37:37.5	358.910	0.240	-0.140	0.700
2020/01/31 19:37:37.6	358.890	0.260	-0.210	0.730
2020/01/31 19:37:37.7	358.880	0.280	-0.270	0.750
2020/01/31 19:37:37.8	358.860	0.300	-0.330	0.770
2020/01/31 19:37:37.9	358.850	0.310	-0.400	0.790
2020/01/31 19:37:38.0	358.830	0.320	-0.460	0.800
2020/01/31 19:37:38.1	358.820	0.330	-0.530	0.810
2020/01/31 19:37:38.2	358.810	0.330	-0.590	0.820
2020/01/31 19:37:38.3	358.800	0.340	-0.650	0.810
2020/01/31 19:37:38.4	358.790	0.340	-0.710	0.810
2020/01/31 19:37:38.5	358.790	0.350	-0.770	0.800
2020/01/31 19:37:38.6	358.780	0.350	-0.830	0.790
2020/01/31 19:37:38.7	358.780	0.350	-0.880	0.770
2020/01/31 19:37:38.8	358.780	0.350	-0.930	0.750
2020/01/31 19:37:38.9	358.770	0.340	-0.980	0.720
2020/01/31 19:37:39.0	358.770	0.340	-1.030	0.690
2020/01/31 19:37:39.1	358.780	0.340	-1.070	0.660
2020/01/31 19:37:39.2	358.780	0.340	-1.110	0.620
2020/01/31 19:37:39.3	358.790	0.340	-1.150	0.590
2020/01/31 19:37:39.4	358.800	0.330	-1.180	0.550
2020/01/31 19:37:39.5	358.810	0.330	-1.210	0.510
2020/01/31 19:37:39.6	358.820	0.330	-1.240	0.460
2020/01/31 19:37:39.7	358.840	0.330	-1.260	0.420
2020/01/31 19:37:39.8	358.860	0.330	-1.290	0.370
2020/01/31 19:37:39.9	358.880	0.330	-1.300	0.320
2020/01/31 19:37:40.0	358.900	0.330	-1.320	0.270
2020/01/31 19:37:40.1	358.930	0.340	-1.330	0.220
2020/01/31 19:37:40.2	358.950	0.340	-1.340	0.170
2020/01/31 19:37:40.3	358.980	0.340	-1.340	0.120
2020/01/31 19:37:40.4	359.020	0.350	-1.340	0.070
2020/01/31 19:37:40.5	359.050	0.350	-1.340	0.030
2020/01/31 19:37:40.6	359.090	0.360	-1.330	-0.020
2020/01/31 19:37:40.7	359.130	0.360	-1.320	-0.060
2020/01/31 19:37:40.8	359.160	0.370	-1.310	-0.100
2020/01/31 19:37:40.9	359.210	0.370	-1.290	-0.140
2020/01/31 19:37:41.0	359.240	0.380	-1.260	-0.180
2020/01/31 19:37:41.1	359.280	0.380	-1.230	-0.210
2020/01/31 19:37:41.2	359.320	0.390	-1.200	-0.240
2020/01/31 19:37:41.3	359.360	0.390	-1.150	-0.270
2020/01/31 19:37:41.4	359.400	0.390	-1.110	-0.290
2020/01/31 19:37:41.5	359.440	0.390	-1.060	-0.310
2020/01/31 19:37:41.6	359.480	0.380	-1.000	-0.330
2020/01/31 19:37:41.7	359.510	0.380	-0.940	-0.340
2020/01/31 19:37:41.8	359.550	0.370	-0.870	-0.350
2020/01/31 19:37:41.9	359.570	0.360	-0.800	-0.370
2020/01/31 19:37:42.0	359.610	0.350	-0.720	-0.370
2020/01/31 19:37:42.1	359.640	0.340	-0.640	-0.380
2020/01/31 19:37:42.2	359.670	0.320	-0.550	-0.380
2020/01/31 19:37:42.3	359.690	0.300	-0.460	-0.370
2020/01/31 19:37:42.4	359.720	0.280	-0.370	-0.370
2020/01/31 19:37:42.5	359.740	0.250	-0.270	-0.360
2020/01/31 19:37:42.6	359.760	0.230	-0.180	-0.350
2020/01/31 19:37:42.7	359.780	0.200	-0.080	-0.340
2020/01/31 19:37:42.8	359.790	0.160	0.020	-0.320
2020/01/31 19:37:42.9	359.800	0.130	0.120	-0.300
2020/01/31 19:37:43.0	359.810	0.100	0.220	-0.280
2020/01/31 19:37:43.1	359.820	0.060	0.310	-0.250
2020/01/31 19:37:43.2	359.820	0.020	0.410	-0.220
2020/01/31 19:37:43.3	359.820	-0.020	0.500	-0.190
2020/01/31 19:37:43.4	359.820	-0.060	0.590	-0.150
2020/01/31 19:37:43.5	359.820	-0.100	0.680	-0.120
2020/01/31 19:37:43.6	359.810	-0.150	0.760	-0.080
2020/01/31 19:37:43.7	359.800	-0.190	0.840	-0.040
2020/01/31 19:37:43.8	359.790	-0.230	0.910	0.010
2020/01/31 19:37:43.9	359.780	-0.280	0.980	0.060
2020/01/31 19:37:44.0	359.760	-0.320	1.040	0.110
2020/01/31 19:37:44.1	359.740	-0.360	1.090	0.150
2020/01/31 19:37:44.2	359.720	-0.400	1.130	0.200
2020/01/31 19:37:44.3	359.700	-0.440	1.170	0.250
2020/01/31 19:37:44.4	359.670	-0.470	1.200	0.300
2020/01/31 19:37:44.5	359.650	-0.510	1.220	0.350
2020/01/31 19:37:44.6	359.620	-0.540	1.230	0.390
2020/01/31 19:37:44.7	359.600	-0.560	1.230	0.430
2020/01/31 19:37:44.8	359.570	-0.590	1.220	0.470
2020/01/31 19:37:44.9	359.550	-0.610	1.210	0.510
2020/01/31 19:37:45.0	359.530	-0.620	1.180	0.540
2020/01/31 19:37:45.1	359.500	-0.630	1.150	0.570
2020/01/31 19:37:45.2	359.480	-0.640	1.100	0.590
2020/01/31 19:37:45.3	359.460	-0.640	1.050	0.610
2020/01/31 19:37:45.4	359.440	-0.640	0.990	0.630
2020/01/31 19:37:45.5	359.420	-0.630	0.930	0.650
2020/01/31 19:37:45.6	359.400	-0.620	0.850	0.660
2020/01/31 19:37:45.7	359.380	-0.600	0.770	0.660
2020/01/31 19:37:45.8	359.360	-0.580	0.690	0.670
2020/01/31 19:37:45.9	359.340	-0.550	0.590	0.670
2020/01/31 19:37:46.0	359.330	-0.520	0.500	0.670
2020/01/31 19:37:46.1	359.310	-0.480	0.400	0.660
2020/01/31 19:37:46.2	359.300	-0.440	0.300	0.660
2020/01/31 19:37:46.3	359.280	-0.400	0.200	0.650
2020/01/31 19:37:46.4	359.270	-0.360	0.100	0.650
2020/01/31 19:37:46.5	359.260	-0.310	-0.000	0.640
2020/01/31 19:37:46.6	359.240	-0.260	-0.100	0.630
2020/01/31 19:37:46.7	359.230	-0.200	-0.200	0.620
2020/01/31 19:37:46.8	359.220	-0.150	-0.290	0.610
2020/01/31 19:37:46.9	359.200	-0.100	-0.380	0.590
2020/01/31 19:37:47.0	359.190	-0.040	-0.470	0.580
2020/01/31 19:37:47.1	359.190	0.010	-0.550	0.570
2020/01/31 19:37:47.2	359.180	0.070	-0.620	0.560
2020/01/31 19:37:47.3	359.180	0.120	-0.690	0.550
2020/01/31 19:37:47.4	359.180	0.170	-0.750	0.540
2020/01/31 19:37:47.5	359.180	0.220	-0.810	0.520
2020/01/31 19:37:47.6	359.180	0.260	-0.860	0.510
2020/01/31 19:37:47.7	359.190	0.300	-0.910	0.500
2020/01/31 19:37:47.8	359.190	0.340	-0.940	0.480
2020/01/31 19:37:47.9	359.190	0.380	-0.980	0.470
2020/01/31 19:37:48.0	359.200	0.410	-1.000	0.450
2020/01/31 19:37:48.1	359.220	0.430	-1.020	0.440
2020/01/31 19:37:48.2	359.230	0.450	-1.030	0.420
2020/01/31 19:37:48.3	359.250	0.470	-1.030	0.400
2020/01/31 19:37:48.4	359.260	0.480	-1.030	0.380
2020/01/31 19:37:48.5	359.280	0.490	-1.020	0.360
2020/01/31 19:37:48.6	359.300	0.490	-1.010	0.340
2020/01/31 19:37:48.7	359.320	0.480	-0.990	0.310
2020/01/31 19:37:48.8	359.330	0.480	-0.970	0.290
2020/01/31 19:37:48.9	359.360	0.460	-0.940	0.270
2020/01/31 19:37:49.0	359.380	0.440	-0.900	0.240
2020/01/31 19:37:49.1	359.400	0.420	-0.870	0.210
2020/01/31 19:37:49.2	359.420	0.400	-0.830	0.180
2020/01/31 19:37:49.3	359.440	0.370	-0.780	0.160
2020/01/31 19:37:49.4	359.460	0.330	-0.740	0.130
2020/01/31 19:37:49.5	359.470	0.300	-0.690	0.100
2020/01/31 19:37:49.6	359.490	0.260	-0.640	0.070
2020/01/31 19:37:49.7	359.510	0.220	-0.580	0.040
2020/01/31 19:37:49.8	359.520	0.180	-0.530	0.010
2020/01/31 19:37:49.9	359.530	0.140	-0.480	-0.030
2020/01/31 19:37:50.0	359.550	0.100	-0.430	-0.060
2020/01/31 19:37:50.1	359.560	0.060	-0.380	-0.090
2020/01/31 19:37:50.2	359.580	0.020	-0.330	-0.120
2020/01/31 19:37:50.3	359.590	-0.020	-0.280	-0.150
2020/01/31 19:37:50.4	359.610	-0.050	-0.240	-0.180
2020/01/31 19:37:50.5	359.620	-0.090	-0.200	-0.210
2020/01/31 19:37:50.6	359.640	-0.120	-0.160	-0.240
2020/01/31 19:37:50.7	359.660	-0.150	-0.130	-0.270
2020/01/31 19:37:50.8	359.670	-0.170	-0.100	-0.300
2020/01/31 19:37:50.9	359.690	-0.190	-0.070	-0.340
2020/01/31 19:37:51.0	359.710	-0.210	-0.050	-0.360
2020/01/31 19:37:51.1	359.730	-0.220	-0.040	-0.390
2020/01/31 19:37:51.2	359.750	-0.230	-0.030	-0.420
2020/01/31 19:37:51.3	359.770	-0.230	-0.030	-0.450
2020/01/31 19:37:51.4	359.780	-0.230	-0.030	-0.470
2020/01/31 19:37:51.5	359.800	-0.230	-0.040	-0.500
2020/01/31 19:37:51.6	359.820	-0.220	-0.050	-0.520
2020/01/31 19:37:51.7	359.840	-0.210	-0.070	-0.540
2020/01/31 19:37:51.8	359.860	-0.190	-0.090	-0.560
2020/01/31 19:37:51.9	359.860	-0.180	-0.120	-0.580
2020/01/31 19:37:52.0	359.880	-0.160	-0.150	-0.600
2020/01/31 19:37:52.1	359.890	-0.130	-0.180	-0.620
2020/01/31 19:37:52.2	359.900	-0.110	-0.220	-0.630
2020/01/31 19:37:52.3	359.910	-0.080	-0.250	-0.640
2020/01/31 19:37:52.4	359.920	-0.060	-0.290	-0.650
2020/01/31 19:37:52.5	359.930	-0.030	-0.330	-0.650
2020/01/31 19:37:52.6	359.930	-0.000	-0.360	-0.650
2020/01/31 19:37:52.7	359.930	0.020	-0.400	-0.650
2020/01/31 19:37:52.8	359.930	0.050	-0.430	-0.640
2020/01/31 19:37:52.9	359.930	0.070	-0.470	-0.630
2020/01/31 19:37:53.0	359.920	0.100	-0.500	-0.620
2020/01/31 19:37:53.1	359.920	0.120	-0.530	-0.600
2020/01/31 19:37:53.2	359.910	0.140	-0.550	-0.580
2020/01/31 19:37:53.3	359.900	0.150	-0.570	-0.560
2020/01/31 19:37:53.4	359.890	0.160	-0.590	-0.540
2020/01/31 19:37:53.5	359.880	0.180	-0.600	-0.510
2020/01/31 19:37:53.6	359.870	0.180	-0.610	-0.480
2020/01/31 19:37:53.7	359.860	0.190	-0.620	-0.450
2020/01/31 19:37:53.8	359.850	0.190	-0.620	-0.420
2020/01/31 19:37:53.9	359.840	0.190	-0.620	-0.390
2020/01/31 19:37:54.0	359.830	0.180	-0.620	-0.360
2020/01/31 19:37:54.1	359.830	0.170	-0.610	-0.330
2020/01/31 19:37:54.2	359.820	0.160	-0.590	-0.310
2020/01/31 19:37:54.3	359.820	0.150	-0.580	-0.280
2020/01/31 19:37:54.4	359.820	0.130	-0.560	-0.250
2020/01/31 19:37:54.5	359.820	0.110	-0.530	-0.230
2020/01/31 19:37:54.6	359.820	0.090	-0.500	-0.210
2020/01/31 19:37:54.7	359.830	0.070	-0.470	-0.190
2020/01/31 19:37:54.8	359.840	0.050	-0.440	-0.170
2020/01/31 19:37:54.9	359.840	0.020	-0.400	-0.150
2020/01/31 19:37:55.0	359.850	-0.000	-0.360	-0.130
2020/01/31 19:37:55.1	359.870	-0.030	-0.320	-0.120
2020/01/31 19:37:55.2	359.880	-0.060	-0.280	-0.110
2020/01/31 19:37:55.3	359.890	-0.080	-0.230	-0.100
2020/01/31 19:37:55.4	359.900	-0.110	-0.190	-0.090
2020/01/31 19:37:55.5	359.920	-0.130	-0.140	-0.080
2020/01/31 19:37:55.6	359.930	-0.150	-0.090	-0.080
2020/01/31 19:37:55.7	359.940	-0.170	-0.030	-0.070
2020/01/31 19:37:55.8	359.950	-0.190	0.020	-0.060
2020/01/31 19:37:55.9	359.950	-0.210	0.080	-0.060
2020/01/31 19:37:56.0	359.960	-0.230	0.130	-0.050
2020/01/31 19:37:56.1	359.970	-0.240	0.190	-0.040
2020/01/31 19:37:56.2	359.970	-0.250	0.240	-0.040
2020/01/31 19:37:56.3	359.970	-0.260	0.300	-0.030
2020/01/31 19:37:56.4	359.970	-0.260	0.360	-0.020
2020/01/31 19:37:56.5	359.970	-0.270	0.410	-0.010
2020/01/31 19:37:56.6	359.970	-0.270	0.460	-0.000
2020/01/31 19:37:56.7	359.960	-0.270	0.510	0.010
2020/01/31 19:37:56.8	359.950	-0.260	0.560	0.020
2020/01/31 19:37:56.9	359.930	-0.260	0.600	0.030
2020/01/31 19:37:57.0	359.920	-0.250	0.640	0.040
2020/01/31 19:37:57.1	359.900	-0.240	0.680	0.050
2020/01/31 19:37:57.2	359.880	-0.230	0.710	0.060
2020/01/31 19:37:57.3	359.860	-0.210	0.740	0.080
2020/01/31 19:37:57.4	359.830	-0.190	0.770	0.090
2020/01/31 19:37:57.5	359.810	-0.180	0.780	0.110
2020/01/31 19:37:57.6	359.780	-0.160	0.790	0.120
2020/01/31 19:37:57.7	359.750	-0.140	0.800	0.140
2020/01/31 19:37:57.8	359.720	-0.110	0.800	0.160
2020/01/31 19:37:57.9	359.690	-0.090	0.790	0.190
2020/01/31 19:37:58.0	359.660	-0.060	0.770	0.210
2020/01/31 19:37:58.1	359.620	-0.040	0.750	0.230
2020/01/31 19:37:58.2	359.580	-0.010	0.720	0.250
2020/01/31 19:37:58.3	359.540	0.020	0.680	0.270
2020/01/31 19:37:58.4	359.500	0.040	0.630	0.290
2020/01/31 19:37:58.5	359.460	0.070	0.580	0.310
2020/01/31 19:37:58.6	359.420	0.100	0.510	0.330
2020/01/31 19:37:58.7	359.380	0.130	0.440	0.340
2020/01/31 19:37:58.8	359.350	0.150	0.370	0.360
2020/01/31 19:37:58.9	359.320	0.180	0.280	0.360
2020/01/31 19:37:59.0	359.280	0.210	0.190	0.370
2020/01/31 19:37:59.1	359.250	0.240	0.100	0.370
2020/01/31 19:37:59.2	359.220	0.270	-0.000	0.360
2020/01/31 19:37:59.3	359.200	0.290	-0.100	0.360
2020/01/31 19:37:59.4	359.170	0.320	-0.210	0.350
2020/01/31 19:37:59.5	359.150	0.340	-0.320	0.330
2020/01/31 19:37:59.6	359.140	0.370	-0.440	0.310
2020/01/31 19:37:59.7	359.120	0.390	-0.550	0.290
2020/01/31 19:37:59.8	359.120	0.420	-0.670	0.260
2020/01/31 19:37:59.9	359.110	0.440	-0.780	0.230
2020/01/31 19:38:00.0	359.110	0.460	-0.890	0.190
2020/01/31 19:38:00.1	359.110	0.480	-1.000	0.150
2020/01/31 19:38:00.2	359.120	0.500	-1.110	0.110
2020/01/31 19:38:00.3	359.120	0.510	-1.210	0.070
2020/01/31 19:38:00.4	359.140	0.530	-1.300	0.030
2020/01/31 19:38:00.5	359.150	0.540	-1.390	-0.020
2020/01/31 19:38:00.6	359.170	0.550	-1.470	-0.070
2020/01/31 19:38:00.7	359.180	0.560	-1.550	-0.120
2020/01/31 19:38:00.8	359.210	0.560	-1.610	-0.170
2020/01/31 19:38:00.9	359.230	0.560	-1.670	-0.230
2020/01/31 19:38:01.0	359.260	0.550	-1.710	-0.280
2020/01/31 19:38:01.1	359.290	0.550	-1.740	-0.340
2020/01/31 19:38:01.2	359.320	0.530	-1.760	-0.390
2020/01/31 19:38:01.3	359.350	0.520	-1.770	-0.450
2020/01/31 19:38:01.4	359.390	0.500	-1.760	-0.510
2020/01/31 19:38:01.5	359.430	0.480	-1.750	-0.560
2020/01/31 19:38:01.6	359.470	0.450	-1.720	-0.620
2020/01/31 19:38:01.7	359.510	0.420	-1.690	-0.680
2020/01/31 19:38:01.8	359.550	0.390	-1.640	-0.730
2020/01/31 19:38:01.9	359.600	0.350	-1.580	-0.780
2020/01/31 19:38:02.0	359.650	0.310	-1.510	-0.830
2020/01/31 19:38:02.1	359.700	0.270	-1.430	-0.880
2020/01/31 19:38:02.2	359.750	0.230	-1.350	-0.930
2020/01/31 19:38:02.3	359.790	0.180	-1.260	-0.970
2020/01/31 19:38:02.4	359.840	0.130	-1.160	-1.000
2020/01/31 19:38:02.5	359.890	0.070	-1.050	-1.040
2020/01/31 19:38:02.6	359.940	0.020	-0.940	-1.060
2020/01/31 19:38:02.7	359.990	-0.040	-0.820	-1.090
2020/01/31 19:38:02.8	0.040	-0.090	-0.700	-1.100
2020/01/31 19:38:02.9	0.070	-0.150	-0.590	-1.120
2020/01/31 19:38:03.0	0.110	-0.210	-0.460	-1.120
2020/01/31 19:38:03.1	0.150	-0.260	-0.330	-1.120
2020/01/31 19:38:03.2	0.190	-0.320	-0.200	-1.120
2020/01/31 19:38:03.3	0.220	-0.380	-0.070	-1.100
2020/01/31 19:38:03.4	0.250	-0.440	0.060	-1.090
2020/01/31 19:38:03.5	0.280	-0.490	0.190	-1.060
2020/01/31 19:38:03.6	0.300	-0.540	0.310	-1.040
2020/01/31 19:38:03.7	0.320	-0.590	0.440	-1.000
2020/01/31 19:38:03.8	0.330	-0.640	0.560	-0.970
2020/01/31 19:38:03.9	0.350	-0.690	0.670	-0.930
2020/01/31 19:38:04.0	0.360	-0.730	0.780	-0.890
2020/01/31 19:38:04.1	0.360	-0.770	0.880	-0.840
2020/01/31 19:38:04.2	0.360	-0.810	0.970	-0.800
2020/01/31 19:38:04.3	0.350	-0.840	1.060	-0.750
2020/01/31 19:38:04.4	0.340	-0.870	1.140	-0.700
2020/01/31 19:38:04.5	0.330	-0.900	1.210	-0.640
2020/01/31 19:38:04.6	0.310	-0.910	1.270	-0.590
2020/01/31 19:38:04.7	0.290	-0.930	1.320	-0.530
2020/01/31 19:38:04.8	0.270	-0.940	1.360	-0.470
2020/01/31 19:38:04.9	0.250	-0.940	1.390	-0.410
2020/01/31 19:38:05.0	0.220	-0.940	1.410	-0.340
2020/01/31 19:38:05.1	0.180	-0.930	1.420	-0.280
2020/01/31 19:38:05.2	0.150	-0.910	1.420	-0.210
2020/01/31 19:38:05.3	0.110	-0.900	1.400	-0.140
2020/01/31 19:38:05.4	0.070	-0.870	1.380	-0.080
2020/01/31 19:38:05.5	0.020	-0.840	1.340	-0.010
2020/01/31 19:38:05.6	359.980	-0.810	1.300	0.060
2020/01/31 19:38:05.7	359.930	-0.770	1.240	0.130
2020/01/31 19:38:05.8	359.890	-0.730	1.180	0.200
2020/01/31 19:38:05.9	359.830	-0.680	1.100	0.260
2020/01/31 19:38:06.0	359.790	-0.630	1.020	0.330
2020/01/31 19:38:06.1	359.740	-0.570	0.920	0.390
2020/01/31 19:38:06.2	359.690	-0.510	0.820	0.450
2020/01/31 19:38:06.3	359.650	-0.450	0.710	0.500
2020/01/31 19:38:06.4	359.600	-0.380	0.590	0.550
2020/01/31 19:38:06.5	359.560	-0.310	0.470	0.600
2020/01/31 19:38:06.6	359.510	-0.240	0.350	0.640
2020/01/31 19:38:06.7	359.470	-0.170	0.220	0.680
2020/01/31 19:38:06.8	359.430	-0.100	0.090	0.710
2020/01/31 19:38:06.9	359.390	-0.030	-0.040	0.740
2020/01/31 19:38:07.0	359.350	0.050	-0.180	0.760
2020/01/31 19:38:07.1	359.320	0.120	-0.310	0.780
2020/01/31 19:38:07.2	359.280	0.190	-0.440	0.800
2020/01/31 19:38:07.3	359.250	0.260	-0.560	0.810
2020/01/31 19:38:07.4	359.220	0.330	-0.690	0.820
2020/01/31 19:38:07.5	359.190	0.400	-0.810	0.820
2020/01/31 19:38:07.6	359.160	0.470	-0.920	0.820
2020/01/31 19:38:07.7	359.140	0.530	-1.030	0.810
2020/01/31 19:38:07.8	359.120	0.590	-1.130	0.800
2020/01/31 19:38:07.9	359.110	0.640	-1.230	0.790
2020/01/31 19:38:08.0	359.090	0.690	-1.310	0.770
2020/01/31 19:38:08.1	359.070	0.740	-1.380	0.750
2020/01/31 19:38:08.2	359.060	0.780	-1.450	0.730
2020/01/31 19:38:08.3	359.050	0.820	-1.500	0.710
2020/01/31 19:38:08.4	359.050	0.850	-1.540	0.680
2020/01/31 19:38:08.5	359.040	0.870	-1.570	0.650
2020/01/31 19:38:08.6	359.040	0.890	-1.590	0.620
2020/01/31 19:38:08.7	359.050	0.900	-1.600	0.590
2020/01/31 19:38:08.8	359.050	0.910	-1.590	0.550
2020/01/31 19:38:08.9	359.060	0.910	-1.580	0.510
2020/01/31 19:38:09.0	359.070	0.900	-1.550	0.480
2020/01/31 19:38:09.1	359.080	0.890	-1.500	0.440
2020/01/31 19:38:09.2	359.090	0.870	-1.450	0.400
2020/01/31 19:38:09.3	359.110	0.850	-1.390	0.360
2020/01/31 19:38:09.4	359.120	0.820	-1.320	0.320
2020/01/31 19:38:09.5	359.140	0.790	-1.250	0.280
2020/01/31 19:38:09.6	359.170	0.750	-1.160	0.240
2020/01/31 19:38:09.7	359.190	0.710	-1.080	0.190
2020/01/31 19:38:09.8	359.220	0.660	-0.980	0.150
2020/01/31 19:38:09.9	359.250	0.610	-0.890	0.110
2020/01/31 19:38:10.0	359.280	0.560	-0.790	0.060
2020/01/31 19:38:10.1	359.310	0.510	-0.690	0.020
2020/01/31 19:38:10.2	359.350	0.450	-0.600	-0.030
2020/01/31 19:38:10.3	359.390	0.400	-0.500	-0.080
2020/01/31 19:38:10.4	359.430	0.340	-0.410	-0.120
2020/01/31 19:38:10.5	359.470	0.280	-0.320	-0.170
2020/01/31 19:38:10.6	359.510	0.230	-0.240	-0.210
2020/01/31 19:38:10.7	359.560	0.170	-0.160	-0.260
2020/01/31 19:38:10.8	359.600	0.120	-0.090	-0.310
2020/01/31 19:38:10.9	359.640	0.070	-0.030	-0.360
2020/01/31 19:38:11.0	359.690	0.020	0.030	-0.400
2020/01/31 19:38:11.1	359.740	-0.030	0.080	-0.440
2020/01/31 19:38:11.2	359.790	-0.070	0.130	-0.480
2020/01/31 19:38:11.3	359.840	-0.110	0.160	-0.520
2020/01/31 19:38:11.4	359.880	-0.150	0.190	-0.560
2020/01/31 19:38:11.5	359.930	-0.180	0.220	-0.600
2020/01/31 19:38:11.6	359.980	-0.210	0.230	-0.630
2020/01/31 19:38:11.7	0.020	-0.240	0.250	-0.660
2020/01/31 19:38:11.8	0.060	-0.260	0.250	-0.680
2020/01/31 19:38:11.9	0.120	-0.280	0.250	-0.710
2020/01/31 19:38:12.0	0.160	-0.300	0.250	-0.730
2020/01/31 19:38:12.1	0.200	-0.310	0.240	-0.740
2020/01/31 19:38:12.2	0.230	-0.310	0.230	-0.750
2020/01/31 19:38:12.3	0.260	-0.320	0.210	-0.750
2020/01/31 19:38:12.4	0.280	-0.320	0.200	-0.750
2020/01/31 19:38:12.5	0.300	-0.320	0.180	-0.750
2020/01/31 19:38:12.6	0.320	-0.310	0.160	-0.740
2020/01/31 19:38:12.7	0.340	-0.310	0.140	-0.720
2020/01/31 19:38:12.8	0.350	-0.300	0.120	-0.700
2020/01/31 19:38:12.9	0.350	-0.280	0.100	-0.680
2020/01/31 19:38:13.0	0.350	-0.270	0.080	-0.650
2020/01/31 19:38:13.1	0.350	-0.250	0.060	-0.620
2020/01/31 19:38:13.2	0.340	-0.230	0.050	-0.580
2020/01/31 19:38:13.3	0.330	-0.220	0.040	-0.540
2020/01/31 19:38:13.4	0.320	-0.200	0.030	-0.490
2020/01/31 19:38:13.5	0.300	-0.170	0.020	-0.450
2020/01/31 19:38:13.6	0.280	-0.150	0.020	-0.400
2020/01/31 19:38:13.7	0.260	-0.130	0.020	-0.350
2020/01/31 19:38:13.8	0.240	-0.110	0.020	-0.300
2020/01/31 19:38:13.9	0.210	-0.090	0.020	-0.250
2020/01/31 19:38:14.0	0.180	-0.070	0.030	-0.190
2020/01/31 19:38:14.1	0.150	-0.050	0.030	-0.140
2020/01/31 19:38:14.2	0.120	-0.030	0.040	-0.080
2020/01/31 19:38:14.3	0.080	-0.010	0.050	-0.020
2020/01/31 19:38:14.4	0.050	0.010	0.060	0.030
2020/01/31 19:38:14.5	0.020	0.030	0.070	0.080
2020/01/31 19:38:14.6	359.980	0.050	0.080	0.140
2020/01/31 19:38:14.7	359.950	0.060	0.090	0.180
2020/01/31 19:38:14.8	359.920	0.080	0.090	0.230
2020/01/31 19:38:14.9	359.890	0.090	0.100	0.280
2020/01/31 19:38:15.0	359.860	0.100	0.100	0.320
2020/01/31 19:38:15.1	359.840	0.110	0.100	0.350
2020/01/31 19:38:15.2	359.820	0.120	0.090	0.390
2020/01/31 19:38:15.3	359.800	0.130	0.090	0.410
2020/01/31 19:38:15.4	359.790	0.140	0.080	0.440
2020/01/31 19:38:15.5	359.780	0.150	0.060	0.450
2020/01/31 19:38:15.6	359.770	0.160	0.040	0.470
2020/01/31 19:38:15.7	359.770	0.160	0.020	0.470
2020/01/31 19:38:15.8	359.770	0.170	-0.000	0.470
2020/01/31 19:38:15.9	359.770	0.170	-0.030	0.470
2020/01/31 19:38:16.0	359.780	0.170	-0.060	0.450
2020/01/31 19:38:16.1	359.800	0.170	-0.090	0.440
2020/01/31 19:38:16.2	359.810	0.170	-0.130	0.410
2020/01/31 19:38:16.3	359.830	0.160	-0.160	0.390
2020/01/31 19:38:16.4	359.860	0.160	-0.200	0.360
2020/01/31 19:38:16.5	359.880	0.150	-0.230	0.320
2020/01/31 19:38:16.6	359.910	0.140	-0.270	0.280
2020/01/31 19:38:16.7	359.930	0.130	-0.300	0.240
2020/01/31 19:38:16.8	359.960	0.110	-0.330	0.190
2020/01/31 19:38:16.9	359.980	0.090	-0.360	0.140
2020/01/31 19:38:17.0	0.010	0.080	-0.390	0.100
2020/01/31 19:38:17.1	0.040	0.060	-0.410	0.050
2020/01/31 19:38:17.2	0.070	0.030	-0.430	0.000
2020/01/31 19:38:17.3	0.100	0.010	-0.450	-0.050
2020/01/31 19:38:17.4	0.140	-0.020	-0.460	-0.090
2020/01/31 19:38:17.5	0.170	-0.040	-0.460	-0.140
2020/01/31 19:38:17.6	0.200	-0.070	-0.470	-0.180
2020/01/31 19:38:17.7	0.220	-0.100	-0.460	-0.220
2020/01/31 19:38:17.8	0.250	-0.130	-0.460	-0.250
2020/01/31 19:38:17.9	0.280	-0.160	-0.450	-0.290
2020/01/31 19:38:18.0	0.310	-0.190	-0.440	-0.320
2020/01/31 19:38:18.1	0.330	-0.220	-0.420	-0.350
2020/01/31 19:38:18.2	0.360	-0.250	-0.390	-0.370
2020/01/31 19:38:18.3	0.380	-0.280	-0.370	-0.400
2020/01/31 19:38:18.4	0.410	-0.300	-0.340	-0.420
2020/01/31 19:38:18.5	0.430	-0.330	-0.300	-0.430
2020/01/31 19:38:18.6	0.450	-0.360	-0.270	-0.450
2020/01/31 19:38:18.7	0.480	-0.380	-0.240	-0.460
2020/01/31 19:38:18.8	0.500	-0.400	-0.200	-0.470
2020/01/31 19:38:18.9	0.520	-0.420	-0.170	-0.470
2020/01/31 19:38:19.0	0.540	-0.430	-0.130	-0.480
2020/01/31 19:38:19.1	0.570	-0.440	-0.100	-0.480
2020/01/31 19:38:19.2	0.590	-0.450	-0.070	-0.480
2020/01/31 19:38:19.3	0.610	-0.460	-0.040	-0.480
2020/01/31 19:38:19.4	0.630	-0.460	-0.010	-0.470
2020/01/31 19:38:19.5	0.650	-0.470	0.010	-0.470
2020/01/31 19:38:19.6	0.660	-0.460	0.030	-0.460
2020/01/31 19:38:19.7	0.680	-0.460	0.050	-0.450
2020/01/31 19:38:19.8	0.690	-0.450	0.070	-0.440
2020/01/31 19:38:19.9	0.710	-0.440	0.070	-0.420
2020/01/31 19:38:20.0	0.720	-0.420	0.080	-0.410
2020/01/31 19:38:20.1	0.730	-0.400	0.080	-0.390
2020/01/31 19:38:20.2	0.730	-0.380	0.080	-0.360
2020/01/31 19:38:20.3	0.730	-0.360	0.070	-0.340
2020/01/31 19:38:20.4	0.730	-0.340	0.060	-0.310
2020/01/31 19:38:20.5	0.720	-0.310	0.050	-0.280
2020/01/31 19:38:20.6	0.710	-0.290	0.040	-0.250
2020/01/31 19:38:20.7	0.700	-0.260	0.020	-0.220
2020/01/31 19:38:20.8	0.680	-0.230	-0.000	-0.180
2020/01/31 19:38:20.9	0.660	-0.200	-0.030	-0.140
2020/01/31 19:38:21.0	0.640	-0.170	-0.050	-0.110
2020/01/31 19:38:21.1	0.610	-0.140	-0.080	-0.070
2020/01/31 19:38:21.2	0.590	-0.100	-0.100	-0.030
2020/01/31 19:38:21.3	0.560	-0.070	-0.130	0.000
2020/01/31 19:38:21.4	0.530	-0.040	-0.160	0.030
2020/01/31 19:38:21.5	0.500	-0.010	-0.190	0.070
2020/01/31 19:38:21.6	0.470	0.020	-0.220	0.100
2020/01/31 19:38:21.7	0.440	0.040	-0.250	0.120
2020/01/31 19:38:21.8	0.410	0.070	-0.280	0.150
2020/01/31 19:38:21.9	0.390	0.100	-0.310	0.170
2020/01/31 19:38:22.0	0.360	0.120	-0.340	0.180
2020/01/31 19:38:22.1	0.330	0.150	-0.370	0.200
2020/01/31 19:38:22.2	0.310	0.170	-0.400	0.210
2020/01/31 19:38:22.3	0.290	0.190	-0.420	0.220
2020/01/31 19:38:22.4	0.270	0.210	-0.450	0.220
2020/01/31 19:38:22.5	0.260	0.230	-0.480	0.220
2020/01/31 19:38:22.6	0.240	0.250	-0.500	0.220
2020/01/31 19:38:22.7	0.240	0.270	-0.520	0.210
2020/01/31 19:38:22.8	0.230	0.290	-0.540	0.200
2020/01/31 19:38:22.9	0.230	0.300	-0.560	0.190
2020/01/31 19:38:23.0	0.240	0.320	-0.580	0.170
2020/01/31 19:38:23.1	0.250	0.340	-0.610	0.150
2020/01/31 19:38:23.2	0.260	0.350	-0.630	0.130
2020/01/31 19:38:23.3	0.280	0.370	-0.650	0.100
2020/01/31 19:38:23.4	0.300	0.380	-0.670	0.070
2020/01/31 19:38:23.5	0.330	0.400	-0.690	0.040
2020/01/31 19:38:23.6	0.360	0.410	-0.710	0.010
2020/01/31 19:38:23.7	0.400	0.420	-0.720	-0.030
2020/01/31 19:38:23.8	0.430	0.430	-0.740	-0.070
2020/01/31 19:38:23.9	0.470	0.440	-0.760	-0.110
2020/01/31 19:38:24.0	0.510	0.450	-0.780	-0.140
2020/01/31 19:38:24.1	0.560	0.460	-0.790	-0.180
2020/01/31 19:38:24.2	0.600	0.470	-0.800	-0.220
2020/01/31 19:38:24.3	0.650	0.470	-0.810	-0.260
2020/01/31 19:38:24.4	0.700	0.480	-0.820	-0.300
2020/01/31 19:38:24.5	0.750	0.480	-0.820	-0.340
2020/01/31 19:38:24.6	0.810	0.480	-0.820	-0.380
2020/01/31 19:38:24.7	0.860	0.480	-0.820	-0.410
2020/01/31 19:38:24.8	0.910	0.470	-0.810	-0.450
2020/01/31 19:38:24.9	0.960	0.470	-0.800	-0.490
2020/01/31 19:38:25.0	1.010	0.460	-0.790	-0.520
2020/01/31 19:38:25.1	1.070	0.450	-0.770	-0.550
2020/01/31 19:38:25.2	1.120	0.440	-0.760	-0.590
2020/01/31 19:38:25.3	1.170	0.430	-0.740	-0.620
2020/01/31 19:38:25.4	1.220	0.410	-0.710	-0.650
2020/01/31 19:38:25.5	1.270	0.400	-0.680	-0.670
2020/01/31 19:38:25.6	1.320	0.380	-0.650	-0.700
2020/01/31 19:38:25.7	1.370	0.360	-0.620	-0.720
2020/01/31 19:38:25.8	1.420	0.340	-0.590	-0.750
2020/01/31 19:38:25.9	1.460	0.320	-0.550	-0.770
2020/01/31 19:38:26.0	1.500	0.300	-0.510	-0.780
2020/01/31 19:38:26.1	1.540	0.270	-0.470	-0.790
2020/01/31 19:38:26.2	1.570	0.250	-0.430	-0.800
2020/01/31 19:38:26.3	1.600	0.230	-0.380	-0.800
2020/01/31 19:38:26.4	1.630	0.210	-0.330	-0.800
2020/01/31 19:38:26.5	1.650	0.180	-0.280	-0.790
2020/01/31 19:38:26.6	1.670	0.160	-0.230	-0.780
2020/01/31 19:38:26.7	1.680	0.140	-0.180	-0.770
2020/01/31 19:38:26.8	1.690	0.110	-0.130	-0.750
2020/01/31 19:38:26.9	1.700	0.090	-0.070	-0.720
2020/01/31 19:38:27.0	1.700	0.070	-0.020	-0.700
2020/01/31 19:38:27.1	1.690	0.050	0.030	-0.670
2020/01/31 19:38:27.2	1.690	0.030	0.090	-0.640
2020/01/31 19:38:27.3	1.680	0.000	0.140	-0.610
2020/01/31 19:38:27.4	1.670	-0.010	0.190	-0.570
2020/01/31 19:38:27.5	1.650	-0.030	0.240	-0.540
2020/01/31 19:38:27.6	1.640	-0.050	0.290	-0.500
2020/01/31 19:38:27.7	1.620	-0.070	0.340	-0.470
2020/01/31 19:38:27.8	1.600	-0.090	0.380	-0.440
2020/01/31 19:38:27.9	1.580	-0.100	0.420	-0.400
2020/01/31 19:38:28.0	1.560	-0.120	0.460	-0.370
2020/01/31 19:38:28.1	1.530	-0.130	0.490	-0.340
2020/01/31 19:38:28.2	1.510	-0.140	0.520	-0.320
2020/01/31 19:38:28.3	1.490	-0.150	0.550	-0.300
2020/01/31 19:38:28.4	1.470	-0.160	0.570	-0.270
2020/01/31 19:38:28.5	1.450	-0.170	0.590	-0.260
2020/01/31 19:38:28.6	1.430	-0.180	0.600	-0.240
2020/01/31 19:38:28.7	1.410	-0.180	0.610	-0.230
2020/01/31 19:38:28.8	1.390	-0.190	0.610	-0.220
2020/01/31 19:38:28.9	1.370	-0.190	0.610	-0.210
2020/01/31 19:38:29.0	1.350	-0.190	0.610	-0.210
2020/01/31 19:38:29.1	1.340	-0.190	0.600	-0.200
2020/01/31 19:38:29.2	1.320	-0.190	0.580	-0.200
2020/01/31 19:38:29.3	1.300	-0.190	0.570	-0.200
2020/01/31 19:38:29.4	1.290	-0.190	0.540	-0.190
2020/01/31 19:38:29.5	1.270	-0.180	0.520	-0.190
2020/01/31 19:38:29.6	1.260	-0.180	0.490	-0.190
2020/01/31 19:38:29.7	1.240	-0.170	0.470	-0.190
2020/01/31 19:38:29.8	1.230	-0.160	0.430	-0.190
2020/01/31 19:38:29.9	1.220	-0.150	0.400	-0.190
2020/01/31 19:38:30.0	1.210	-0.140	0.370	-0.190
2020/01/31 19:38:30.1	1.200	-0.130	0.330	-0.190
2020/01/31 19:38:30.2	1.190	-0.120	0.290	-0.190
2020/01/31 19:38:30.3	1.180	-0.110	0.260	-0.190
2020/01/31 19:38:30.4	1.170	-0.100	0.220	-0.190
2020/01/31 19:38:30.5	1.170	-0.090	0.180	-0.190
2020/01/31 19:38:30.6	1.160	-0.080	0.140	-0.190
2020/01/31 19:38:30.7	1.160	-0.060	0.110	-0.190
2020/01/31 19:38:30.8	1.160	-0.050	0.070	-0.190
2020/01/31 19:38:30.9	1.150	-0.040	0.030	-0.190
2020/01/31 19:38:31.0	1.150	-0.040	-0.000	-0.190
2020/01/31 19:38:31.1	1.140	-0.030	-0.040	-0.190
2020/01/31 19:38:31.2	1.140	-0.020	-0.070	-0.190
2020/01/31 19:38:31.3	1.130	-0.020	-0.100	-0.190
2020/01/31 19:38:31.4	1.130	-0.010	-0.130	-0.190
2020/01/31 19:38:31.5	1.120	-0.010	-0.160	-0.190
2020/01/31 19:38:31.6	1.110	-0.010	-0.180	-0.190
2020/01/31 19:38:31.7	1.100	-0.020	-0.200	-0.180
2020/01/31 19:38:31.8	1.090	-0.020	-0.230	-0.180
2020/01/31 19:38:31.9	1.080	-0.030	-0.250	-0.180
2020/01/31 19:38:32.0	1.070	-0.030	-0.270	-0.170
2020/01/31 19:38:32.1	1.060	-0.040	-0.290	-0.170
2020/01/31 19:38:32.2	1.050	-0.050	-0.310	-0.170
2020/01/31 19:38:32.3	1.030	-0.070	-0.320	-0.170
2020/01/31 19:38:32.4	1.020	-0.080	-0.340	-0.160
2020/01/31 19:38:32.5	1.010	-0.090	-0.360	-0.160
2020/01/31 19:38:32.6	1.000	-0.110	-0.380	-0.160
2020/01/31 19:38:32.7	0.990	-0.120	-0.390	-0.160
2020/01/31 19:38:32.8	0.980	-0.140	-0.410	-0.160
2020/01/31 19:38:32.9	0.970	-0.160	-0.440	-0.170
2020/01/31 19:38:33.0	0.970	-0.170	-0.460	-0.170
2020/01/31 19:38:33.1	0.970	-0.190	-0.480	-0.180
2020/01/31 19:38:33.2	0.970	-0.200	-0.510	-0.190
2020/01/31 19:38:33.3	0.980	-0.220	-0.530	-0.210
2020/01/31 19:38:33.4	0.980	-0.230	-0.560	-0.220
2020/01/31 19:38:33.5	1.000	-0.240	-0.590	-0.240
2020/01/31 19:38:33.6	1.010	-0.250	-0.630	-0.270
2020/01/31 19:38:33.7	1.030	-0.260	-0.660	-0.300
2020/01/31 19:38:33.8	1.060	-0.270	-0.700	-0.330
2020/01/31 19:38:33.9	1.070	-0.270	-0.740	-0.360
2020/01/31 19:38:34.0	1.100	-0.280	-0.780	-0.400
2020/01/31 19:38:34.1	1.140	-0.280	-0.830	-0.440
2020/01/31 19:38:34.2	1.180	-0.270	-0.870	-0.480
2020/01/31 19:38:34.3	1.230	-0.270	-0.910	-0.530
2020/01/31 19:38:34.4	1.280	-0.270	-0.950	-0.580
2020/01/31 19:38:34.5	1.330	-0.260	-0.990	-0.630
2020/01/31 19:38:34.6	1.390	-0.250	-1.030	-0.680
2020/01/31 19:38:34.7	1.440	-0.240	-1.070	-0.730
2020/01/31 19:38:34.8	1.510	-0.230	-1.100	-0.780
2020/01/31 19:38:34.9	1.560	-0.220	-1.130	-0.830
2020/01/31 19:38:35.0	1.630	-0.200	-1.160	-0.880
2020/01/31 19:38:35.1	1.690	-0.190	-1.180	-0.930
2020/01/31 19:38:35.2	1.750	-0.180	-1.190	-0.970
2020/01/31 19:38:35.3	1.820	-0.160	-1.200	-1.010
2020/01/31 19:38:35.4	1.880	-0.150	-1.190	-1.050
2020/01/31 19:38:35.5	1.940	-0.140	-1.190	-1.090
2020/01/31 19:38:35.6	2.000	-0.120	-1.170	-1.110
2020/01/31 19:38:35.7	2.060	-0.110	-1.150	-1.140
2020/01/31 19:38:35.8	2.110	-0.100	-1.120	-1.160
2020/01/31 19:38:35.9	2.170	-0.090	-1.080	-1.170
2020/01/31 19:38:36.0	2.220	-0.080	-1.040	-1.170
2020/01/31 19:38:36.1	2.260	-0.070	-0.980	-1.170
2020/01/31 19:38:36.2	2.300	-0.070	-0.930	-1.170
2020/01/31 19:38:36.3	2.340	-0.060	-0.860	-1.150
2020/01/31 19:38:36.4	2.370	-0.060	-0.790	-1.130
2020/01/31 19:38:36.5	2.400	-0.060	-0.720	-1.100
2020/01/31 19:38:36.6	2.430	-0.050	-0.640	-1.060
2020/01/31 19:38:36.7	2.450	-0.050	-0.560	-1.020
2020/01/31 19:38:36.8	2.460	-0.050	-0.470	-0.970
2020/01/31 19:38:36.9	2.470	-0.050	-0.390	-0.920
2020/01/31 19:38:37.0	2.480	-0.050	-0.300	-0.860
2020/01/31 19:38:37.1	2.480	-0.050	-0.220	-0.790
2020/01/31 19:38:37.2	2.480	-0.050	-0.130	-0.720
2020/01/31 19:38:37.3	2.470	-0.050	-0.040	-0.650
2020/01/31 19:38:37.4	2.460	-0.060	0.040	-0.570
2020/01/31 19:38:37.5	2.450	-0.060	0.120	-0.490
2020/01/31 19:38:37.6	2.430	-0.060	0.200	-0.410
2020/01/31 19:38:37.7	2.410	-0.060	0.270	-0.320
2020/01/31 19:38:37.8	2.390	-0.060	0.350	-0.240
2020/01/31 19:38:37.9	2.350	-0.060	0.410	-0.150
2020/01/31 19:38:38.0	2.320	-0.050	0.470	-0.060
2020/01/31 19:38:38.1	2.290	-0.050	0.530	0.020
2020/01/31 19:38:38.2	2.260	-0.040	0.580	0.100
2020/01/31 19:38:38.3	2.220	-0.040	0.620	0.190
2020/01/31 19:38:38.4	2.180	-0.030	0.660	0.260
2020/01/31 19:38:38.5	2.150	-0.020	0.690	0.340
2020/01/31 19:38:38.6	2.110	-0.010	0.710	0.410
2020/01/31 19:38:38.7	2.070	0.010	0.730	0.480
2020/01/31 19:38:38.8	2.040	0.020	0.730	0.540
2020/01/31 19:38:38.9	2.000	0.040	0.730	0.600
2020/01/31 19:38:39.0	1.960	0.060	0.730	0.650
2020/01/31 19:38:39.1	1.930	0.080	0.720	0.700
2020/01/31 19:38:39.2	1.890	0.110	0.700	0.750
2020/01/31 19:38:39.3	1.860	0.140	0.670	0.780
2020/01/31 19:38:39.4	1.830	0.170	0.650	0.820
2020/01/31 19:38:39.5	1.800	0.200	0.610	0.850
2020/01/31 19:38:39.6	1.770	0.230	0.570	0.870
2020/01/31 19:38:39.7	1.740	0.270	0.530	0.890
2020/01/31 19:38:39.8	1.710	0.300	0.490	0.900
2020/01/31 19:38:39.9	1.690	0.340	0.440	0.910
2020/01/31 19:38:40.0	1.660	0.370	0.380	0.910
2020/01/31 19:38:40.1	1.640	0.410	0.330	0.910
2020/01/31 19:38:40.2	1.620	0.440	0.270	0.900
2020/01/31 19:38:40.3	1.600	0.480	0.210	0.890
2020/01/31 19:38:40.4	1.590	0.520	0.150	0.880
2020/01/31 19:38:40.5	1.570	0.550	0.090	0.860
2020/01/31 19:38:40.6	1.560	0.580	0.030	0.830
2020/01/31 19:38:40.7	1.550	0.610	-0.030	0.800
2020/01/31 19:38:40.8	1.550	0.640	-0.090	0.770
2020/01/31 19:38:40.9	1.540	0.670	-0.150	0.730
2020/01/31 19:38:41.0	1.540	0.700	-0.210	0.690
2020/01/31 19:38:41.1	1.540	0.720	-0.270	0.650
2020/01/31 19:38:41.2	1.540	0.740	-0.320	0.600
2020/01/31 19:38:41.3	1.550	0.750	-0.370	0.550
2020/01/31 19:38:41.4	1.560	0.760	-0.410	0.500
2020/01/31 19:38:41.5	1.570	0.770	-0.460	0.440
2020/01/31 19:38:41.6	1.590	0.770	-0.500	0.380
2020/01/31 19:38:41.7	1.600	0.770	-0.530	0.320
2020/01/31 19:38:41.8	1.620	0.760	-0.560	0.260
2020/01/31 19:38:41.9	1.650	0.750	-0.590	0.190
2020/01/31 19:38:42.0	1.670	0.730	-0.620	0.130
2020/01/31 19:38:42.1	1.690	0.710	-0.640	0.060
2020/01/31 19:38:42.2	1.720	0.690	-0.650	-0.010
2020/01/31 19:38:42.3	1.750	0.650	-0.670	-0.080
2020/01/31 19:38:42.4	1.780	0.620	-0.680	-0.140
2020/01/31 19:38:42.5	1.810	0.580	-0.680	-0.210
2020/01/31 19:38:42.6	1.840	0.530	-0.680	-0.280
2020/01/31 19:38:42.7	1.880	0.480	-0.680	-0.350
2020/01/31 19:38:42.8	1.910	0.430	-0.680	-0.410
2020/01/31 19:38:42.9	1.960	0.370	-0.670	-0.480
2020/01/31 19:38:43.0	1.990	0.310	-0.670	-0.550
2020/01/31 19:38:43.1	2.030	0.240	-0.650	-0.610
2020/01/31 19:38:43.2	2.070	0.180	-0.640	-0.670
2020/01/31 19:38:43.3	2.100	0.110	-0.630	-0.730
2020/01/31 19:38:43.4	2.140	0.040	-0.610	-0.790
2020/01/31 19:38:43.5	2.180	-0.040	-0.600	-0.850
2020/01/31 19:38:43.6	2.220	-0.110	-0.580	-0.910
2020/01/31 19:38:43.7	2.260	-0.180	-0.570	-0.970
2020/01/31 19:38:43.8	2.310	-0.250	-0.550	-1.020
2020/01/31 19:38:43.9	2.350	-0.320	-0.540	-1.080
2020/01/31 19:38:44.0	2.400	-0.390	-0.530	-1.140
2020/01/31 19:38:44.1	2.450	-0.460	-0.510	-1.190
2020/01/31 19:38:44.2	2.500	-0.520	-0.500	-1.240
2020/01/31 19:38:44.3	2.550	-0.580	-0.490	-1.290
2020/01/31 19:38:44.4	2.600	-0.640	-0.480	-1.340
2020/01/31 19:38:44.5	2.650	-0.690	-0.470	-1.390
2020/01/31 19:38:44.6	2.700	-0.740	-0.460	-1.440
2020/01/31 19:38:44.7	2.750	-0.780	-0.460	-1.480
2020/01/31 19:38:44.8	2.800	-0.820	-0.450	-1.520
2020/01/31 19:38:44.9	2.850	-0.850	-0.450	-1.560
2020/01/31 19:38:45.0	2.900	-0.880	-0.440	-1.590
2020/01/31 19:38:45.1	2.940	-0.900	-0.440	-1.620
2020/01/31 19:38:45.2	2.990	-0.920	-0.430	-1.640
2020/01/31 19:38:45.3	3.030	-0.930	-0.430	-1.660
2020/01/31 19:38:45.4	3.070	-0.930	-0.420	-1.670
2020/01/31 19:38:45.5	3.100	-0.930	-0.410	-1.670
2020/01/31 19:38:45.6	3.130	-0.920	-0.410	-1.670
2020/01/31 19:38:45.7	3.160	-0.910	-0.390	-1.660
2020/01/31 19:38:45.8	3.180	-0.890	-0.380	-1.640
2020/01/31 19:38:45.9	3.190	-0.870	-0.370	-1.620
2020/01/31 19:38:46.0	3.200	-0.850	-0.350	-1.590
2020/01/31 19:38:46.1	3.210	-0.820	-0.330	-1.560
2020/01/31 19:38:46.2	3.210	-0.780	-0.310	-1.520
2020/01/31 19:38:46.3	3.210	-0.750	-0.290	-1.470
2020/01/31 19:38:46.4	3.200	-0.710	-0.270	-1.420
2020/01/31 19:38:46.5	3.190	-0.660	-0.240	-1.370
2020/01/31 19:38:46.6	3.180	-0.620	-0.210	-1.310
2020/01/31 19:38:46.7	3.160	-0.570	-0.180	-1.240
2020/01/31 19:38:46.8	3.140	-0.520	-0.150	-1.180
2020/01/31 19:38:46.9	3.120	-0.480	-0.130	-1.110
2020/01/31 19:38:47.0	3.100	-0.430	-0.090	-1.040
2020/01/31 19:38:47.1	3.070	-0.380	-0.060	-0.970
2020/01/31 19:38:47.2	3.050	-0.330	-0.030	-0.900
2020/01/31 19:38:47.3	3.020	-0.280	-0.010	-0.830
2020/01/31 19:38:47.4	2.990	-0.230	0.020	-0.760
2020/01/31 19:38:47.5	2.960	-0.180	0.050	-0.690
2020/01/31 19:38:47.6	2.930	-0.130	0.070	-0.630
2020/01/31 19:38:47.7	2.910	-0.090	0.100	-0.560
2020/01/31 19:38:47.8	2.880	-0.040	0.120	-0.500
2020/01/31 19:38:47.9	2.860	-0.000	0.130	-0.440
2020/01/31 19:38:48.0	2.830	0.040	0.150	-0.380
2020/01/31 19:38:48.1	2.810	0.080	0.170	-0.330
2020/01/31 19:38:48.2	2.780	0.110	0.180	-0.280
2020/01/31 19:38:48.3	2.760	0.150	0.190	-0.230
2020/01/31 19:38:48.4	2.740	0.180	0.190	-0.180
2020/01/31 19:38:48.5	2.720	0.210	0.200	-0.140
2020/01/31 19:38:48.6	2.710	0.240	0.200	-0.100
2020/01/31 19:38:48.7	2.690	0.270	0.200	-0.070
2020/01/31 19:38:48.8	2.680	0.290	0.200	-0.040
2020/01/31 19:38:48.9	2.660	0.310	0.190	-0.000
2020/01/31 19:38:49.0	2.650	0.330	0.190	0.030
2020/01/31 19:38:49.1	2.640	0.350	0.180	0.050
2020/01/31 19:38:49.2	2.630	0.370	0.180	0.080
2020/01/31 19:38:49.3	2.620	0.380	0.170	0.100
2020/01/31 19:38:49.4	2.610	0.390	0.160	0.120
2020/01/31 19:38:49.5	2.600	0.400	0.150	0.150
2020/01/31 19:38:49.6	2.590	0.410	0.140	0.170
2020/01/31 19:38:49.7	2.580	0.420	0.130	0.190
2020/01/31 19:38:49.8	2.570	0.420	0.120	0.210
2020/01/31 19:38:49.9	2.570	0.430	0.110	0.220
2020/01/31 19:38:50.0	2.560	0.430	0.100	0.240
2020/01/31 19:38:50.1	2.550	0.430	0.090	0.260
2020/01/31 19:38:50.2	2.540	0.430	0.080	0.280
2020/01/31 19:38:50.3	2.530	0.430	0.070	0.300
2020/01/31 19:38:50.4	2.530	0.430	0.060	0.310
2020/01/31 19:38:50.5	2.520	0.420	0.050	0.330
2020/01/31 19:38:50.6	2.510	0.420	0.040	0.340
2020/01/31 19:38:50.7	2.510	0.410	0.020	0.350
2020/01/31 19:38:50.8	2.500	0.410	0.000	0.360
2020/01/31 19:38:50.9	2.500	0.400	-0.010	0.370
2020/01/31 19:38:51.0	2.500	0.390	-0.040	0.370
2020/01/31 19:38:51.1	2.500	0.390	-0.060	0.380
2020/01/31 19:38:51.2	2.510	0.380	-0.080	0.370
2020/01/31 19:38:51.3	2.510	0.370	-0.110	0.370
2020/01/31 19:38:51.4	2.520	0.360	-0.150	0.360
2020/01/31 19:38:51.5	2.530	0.360	-0.180	0.350
2020/01/31 19:38:51.6	2.550	0.350	-0.220	0.340
2020/01/31 19:38:51.7	2.570	0.340	-0.260	0.320
2020/01/31 19:38:51.8	2.590	0.330	-0.310	0.300
2020/01/31 19:38:51.9	2.600	0.330	-0.360	0.270
2020/01/31 19:38:52.0	2.630	0.320	-0.410	0.250
2020/01/31 19:38:52.1	2.660	0.310	-0.460	0.210
2020/01/31 19:38:52.2	2.700	0.310	-0.520	0.180
2020/01/31 19:38:52.3	2.730	0.300	-0.580	0.140
2020/01/31 19:38:52.4	2.770	0.290	-0.630	0.100
2020/01/31 19:38:52.5	2.810	0.290	-0.690	0.060
2020/01/31 19:38:52.6	2.850	0.280	-0.750	0.020
2020/01/31 19:38:52.7	2.900	0.270	-0.810	-0.030
2020/01/31 19:38:52.8	2.940	0.260	-0.860	-0.070
2020/01/31 19:38:52.9	2.970	0.250	-0.920	-0.120
2020/01/31 19:38:53.0	3.020	0.240	-0.970	-0.170
2020/01/31 19:38:53.1	3.060	0.220	-1.020	-0.220
2020/01/31 19:38:53.2	3.100	0.210	-1.060	-0.270
2020/01/31 19:38:53.3	3.150	0.190	-1.100	-0.320
2020/01/31 19:38:53.4	3.190	0.170	-1.130	-0.370
2020/01/31 19:38:53.5	3.240	0.150	-1.160	-0.420
2020/01/31 19:38:53.6	3.280	0.130	-1.180	-0.470
2020/01/31 19:38:53.7	3.320	0.110	-1.190	-0.520
2020/01/31 19:38:53.8	3.350	0.080	-1.190	-0.570
2020/01/31 19:38:53.9	3.390	0.050	-1.190	-0.610
2020/01/31 19:38:54.0	3.420	0.020	-1.180	-0.660
2020/01/31 19:38:54.1	3.460	-0.010	-1.170	-0.700
2020/01/31 19:38:54.2	3.490	-0.040	-1.140	-0.740
2020/01/31 19:38:54.3	3.520	-0.070	-1.110	-0.780
2020/01/31 19:38:54.4	3.550	-0.110	-1.070	-0.810
2020/01/31 19:38:54.5	3.570	-0.140	-1.020	-0.840
2020/01/31 19:38:54.6	3.590	-0.180	-0.970	-0.870
2020/01/31 19:38:54.7	3.620	-0.220	-0.910	-0.890
2020/01/31 19:38:54.8	3.640	-0.250	-0.840	-0.910
2020/01/31 19:38:54.9	3.650	-0.290	-0.770	-0.920
2020/01/31 19:38:55.0	3.670	-0.320	-0.700	-0.930
2020/01/31 19:38:55.1	3.680	-0.360	-0.620	-0.940
2020/01/31 19:38:55.2	3.690	-0.390	-0.530	-0.940
2020/01/31 19:38:55.3	3.700	-0.420	-0.440	-0.930
2020/01/31 19:38:55.4	3.700	-0.450	-0.350	-0.920
2020/01/31 19:38:55.5	3.700	-0.480	-0.260	-0.910
2020/01/31 19:38:55.6	3.700	-0.510	-0.170	-0.890
2020/01/31 19:38:55.7	3.700	-0.530	-0.070	-0.870
2020/01/31 19:38:55.8	3.700	-0.550	0.020	-0.850
2020/01/31 19:38:55.9	3.700	-0.570	0.110	-0.830
2020/01/31 19:38:56.0	3.690	-0.590	0.200	-0.800
2020/01/31 19:38:56.1	3.680	-0.600	0.280	-0.770
2020/01/31 19:38:56.2	3.670	-0.610	0.370	-0.740
2020/01/31 19:38:56.3	3.660	-0.610	0.450	-0.710
2020/01/31 19:38:56.4	3.640	-0.620	0.530	-0.670
2020/01/31 19:38:56.5	3.630	-0.620	0.600	-0.630
2020/01/31 19:38:56.6	3.610	-0.610	0.670	-0.600
2020/01/31 19:38:56.7	3.590	-0.600	0.730	-0.560
2020/01/31 19:38:56.8	3.580	-0.590	0.790	-0.520
2020/01/31 19:38:56.9	3.550	-0.570	0.840	-0.480
2020/01/31 19:38:57.0	3.520	-0.550	0.880	-0.430
2020/01/31 19:38:57.1	3.500	-0.530	0.920	-0.390
2020/01/31 19:38:57.2	3.480	-0.510	0.950	-0.340
2020/01/31 19:38:57.3	3.450	-0.480	0.970	-0.300
2020/01/31 19:38:57.4	3.420	-0.450	0.990	-0.250
2020/01/31 19:38:57.5	3.390	-0.410	1.000	-0.200
2020/01/31 19:38:57.6	3.360	-0.380	1.000	-0.160
2020/01/31 19:38:57.7	3.330	-0.340	0.990	-0.110
2020/01/31 19:38:57.8	3.290	-0.310	0.970	-0.070
2020/01/31 19:38:57.9	3.260	-0.270	0.950	-0.020
2020/01/31 19:38:58.0	3.220	-0.230	0.920	0.020
2020/01/31 19:38:58.1	3.190	-0.190	0.890	0.060
2020/01/31 19:38:58.2	3.150	-0.150	0.840	0.100
2020/01/31 19:38:58.3	3.110	-0.110	0.790	0.130
2020/01/31 19:38:58.4	3.080	-0.070	0.730	0.160
2020/01/31 19:38:58.5	3.040	-0.030	0.670	0.190
2020/01/31 19:38:58.6	3.010	0.010	0.600	0.210
2020/01/31 19:38:58.7	2.980	0.050	0.520	0.230
2020/01/31 19:38:58.8	2.950	0.090	0.440	0.240
2020/01/31 19:38:58.9	2.930	0.130	0.350	0.250
2020/01/31 19:38:59.0	2.910	0.160	0.260	0.260
2020/01/31 19:38:59.1	2.890	0.200	0.160	0.260
2020/01/31 19:38:59.2	2.870	0.230	0.060	0.260
2020/01/31 19:38:59.3	2.860	0.260	-0.040	0.250
2020/01/31 19:38:59.4	2.850	0.290	-0.150	0.240
2020/01/31 19:38:59.5	2.840	0.320	-0.250	0.230
2020/01/31 19:38:59.6	2.840	0.350	-0.360	0.210
2020/01/31 19:38:59.7	2.850	0.370	-0.470	0.190
2020/01/31 19:38:59.8	2.860	0.400	-0.580	0.170
2020/01/31 19:38:59.9	2.870	0.420	-0.690	0.140
2020/01/31 19:39:00.0	2.890	0.440	-0.800	0.110
2020/01/31 19:39:00.1	2.910	0.460	-0.900	0.080
2020/01/31 19:39:00.2	2.930	0.480	-1.000	0.050
2020/01/31 19:39:00.3	2.970	0.500	-1.100	0.020
2020/01/31 19:39:00.4	3.000	0.510	-1.190	-0.020
2020/01/31 19:39:00.5	3.040	0.520	-1.270	-0.050
2020/01/31 19:39:00.6	3.080	0.530	-1.350	-0.090
2020/01/31 19:39:00.7	3.120	0.540	-1.420	-0.130
2020/01/31 19:39:00.8	3.170	0.550	-1.490	-0.160
2020/01/31 19:39:00.9	3.220	0.550	-1.540	-0.200
2020/01/31 19:39:01.0	3.260	0.550	-1.580	-0.230
2020/01/31 19:39:01.1	3.310	0.550	-1.620	-0.270
2020/01/31 19:39:01.2	3.360	0.540	-1.640	-0.300
2020/01/31 19:39:01.3	3.400	0.530	-1.650	-0.330
2020/01/31 19:39:01.4	3.450	0.520	-1.640	-0.350
2020/01/31 19:39:01.5	3.490	0.500	-1.630	-0.380
2020/01/31 19:39:01.6	3.530	0.490	-1.600	-0.400
2020/01/31 19:39:01.7	3.570	0.470	-1.560	-0.420
2020/01/31 19:39:01.8	3.600	0.440	-1.510	-0.430
2020/01/31 19:39:01.9	3.620	0.420	-1.460	-0.440
2020/01/31 19:39:02.0	3.640	0.390	-1.380	-0.440
2020/01/31 19:39:02.1	3.660	0.360	-1.300	-0.440
2020/01/31 19:39:02.2	3.680	0.330	-1.210	-0.440
2020/01/31 19:39:02.3	3.690	0.290	-1.110	-0.430
2020/01/31 19:39:02.4	3.700	0.260	-1.000	-0.410
2020/01/31 19:39:02.5	3.700	0.220	-0.880	-0.390
2020/01/31 19:39:02.6	3.700	0.180	-0.760	-0.360
2020/01/31 19:39:02.7	3.700	0.140	-0.630	-0.340
2020/01/31 19:39:02.8	3.690	0.100	-0.500	-0.310
2020/01/31 19:39:02.9	3.660	0.060	-0.370	-0.270
2020/01/31 19:39:03.0	3.650	0.020	-0.240	-0.240
2020/01/31 19:39:03.1	3.640	-0.020	-0.110	-0.200
2020/01/31 19:39:03.2	3.620	-0.060	0.020	-0.170
2020/01/31 19:39:03.3	3.600	-0.100	0.140	-0.130
2020/01/31 19:39:03.4	3.580	-0.140	0.250	-0.100
2020/01/31 19:39:03.5	3.560	-0.180	0.360	-0.060
2020/01/31 19:39:03.6	3.540	-0.210	0.470	-0.030
2020/01/31 19:39:03.7	3.520	-0.240	0.560	-0.010
2020/01/31 19:39:03.8	3.510	-0.270	0.640	0.020
2020/01/31 19:39:03.9	3.500	-0.300	0.710	0.040
2020/01/31 19:39:04.0	3.480	-0.320	0.770	0.060
2020/01/31 19:39:04.1	3.470	-0.340	0.820	0.070
2020/01/31 19:39:04.2	3.460	-0.350	0.860	0.070
2020/01/31 19:39:04.3	3.450	-0.360	0.880	0.070
2020/01/31 19:39:04.4	3.440	-0.370	0.900	0.070
2020/01/31 19:39:04.5	3.430	-0.370	0.890	0.060
2020/01/31 19:39:04.6	3.430	-0.370	0.880	0.050
2020/01/31 19:39:04.7	3.430	-0.360	0.860	0.040
2020/01/31 19:39:04.8	3.430	-0.350	0.820	0.020
2020/01/31 19:39:04.9	3.440	-0.340	0.770	-0.010
2020/01/31 19:39:05.0	3.440	-0.320	0.710	-0.040
2020/01/31 19:39:05.1	3.450	-0.300	0.650	-0.070
2020/01/31 19:39:05.2	3.460	-0.270	0.570	-0.100
2020/01/31 19:39:05.3	3.470	-0.240	0.480	-0.130
2020/01/31 19:39:05.4	3.480	-0.210	0.390	-0.170
2020/01/31 19:39:05.5	3.490	-0.180	0.300	-0.210
2020/01/31 19:39:05.6	3.510	-0.150	0.200	-0.250
2020/01/31 19:39:05.7	3.520	-0.110	0.090	-0.280
2020/01/31 19:39:05.8	3.540	-0.080	-0.010	-0.320
2020/01/31 19:39:05.9	3.560	-0.040	-0.120	-0.360
2020/01/31 19:39:06.0	3.580	-0.010	-0.220	-0.390
2020/01/31 19:39:06.1	3.600	0.030	-0.320	-0.430
2020/01/31 19:39:06.2	3.620	0.060	-0.420	-0.460
2020/01/31 19:39:06.3	3.640	0.100	-0.520	-0.490
2020/01/31 19:39:06.4	3.670	0.130	-0.600	-0.520
2020/01/31 19:39:06.5	3.690	0.160	-0.680	-0.550
2020/01/31 19:39:06.6	3.710	0.180	-0.760	-0.570
2020/01/31 19:39:06.7	3.730	0.210	-0.820	-0.590
2020/01/31 19:39:06.8	3.750	0.230	-0.880	-0.610
2020/01/31 19:39:06.9	3.770	0.250	-0.920	-0.630
2020/01/31 19:39:07.0	3.790	0.260	-0.950	-0.640
2020/01/31 19:39:07.1	3.800	0.270	-0.980	-0.650
2020/01/31 19:39:07.2	3.820	0.280	-0.990	-0.650
2020/01/31 19:39:07.3	3.840	0.280	-0.990	-0.650
2020/01/31 19:39:07.4	3.850	0.280	-0.980	-0.650
2020/01/31 19:39:07.5	3.860	0.270	-0.960	-0.640
2020/01/31 19:39:07.6	3.870	0.270	-0.930	-0.630
2020/01/31 19:39:07.7	3.880	0.250	-0.880	-0.610
2020/01/31 19:39:07.8	3.880	0.240	-0.830	-0.590
2020/01/31 19:39:07.9	3.870	0.220	-0.770	-0.560
2020/01/31 19:39:08.0	3.870	0.200	-0.700	-0.530
2020/01/31 19:39:08.1	3.870	0.170	-0.630	-0.500
2020/01/31 19:39:08.2	3.860	0.140	-0.540	-0.460
2020/01/31 19:39:08.3	3.850	0.110	-0.450	-0.430
2020/01/31 19:39:08.4	3.840	0.080	-0.360	-0.380
2020/01/31 19:39:08.5	3.830	0.050	-0.260	-0.340
2020/01/31 19:39:08.6	3.810	0.010	-0.160	-0.300
2020/01/31 19:39:08.7	3.800	-0.020	-0.060	-0.250
2020/01/31 19:39:08.8	3.780	-0.060	0.040	-0.210
2020/01/31 19:39:08.9	3.760	-0.090	0.140	-0.160
2020/01/31 19:39:09.0	3.740	-0.130	0.240	-0.110
2020/01/31 19:39:09.1	3.720	-0.160	0.330	-0.070
2020/01/31 19:39:09.2	3.710	-0.190	0.410	-0.030
2020/01/31 19:39:09.3	3.690	-0.230	0.490	0.010
2020/01/31 19:39:09.4	3.670	-0.260	0.560	0.040
2020/01/31 19:39:09.5	3.660	-0.280	0.620	0.080
2020/01/31 19:39:09.6	3.640	-0.310	0.670	0.100
2020/01/31 19:39:09.7	3.630	-0.330	0.710	0.130
2020/01/31 19:39:09.8	3.620	-0.350	0.740	0.150
2020/01/31 19:39:09.9	3.620	-0.360	0.750	0.160
2020/01/31 19:39:10.0	3.610	-0.370	0.760	0.160
2020/01/31 19:39:10.1	3.610	-0.380	0.760	0.170
2020/01/31 19:39:10.2	3.610	-0.390	0.740	0.170
2020/01/31 19:39:10.3	3.610	-0.390	0.710	0.160
2020/01/31 19:39:10.4	3.610	-0.380	0.680	0.150
2020/01/31 19:39:10.5	3.610	-0.380	0.630	0.140
2020/01/31 19:39:10.6	3.620	-0.370	0.570	0.130
2020/01/31 19:39:10.7	3.620	-0.350	0.510	0.110
2020/01/31 19:39:10.8	3.630	-0.330	0.440	0.090
2020/01/31 19:39:10.9	3.640	-0.310	0.350	0.060
2020/01/31 19:39:11.0	3.650	-0.290	0.270	0.040
2020/01/31 19:39:11.1	3.660	-0.270	0.180	0.020
2020/01/31 19:39:11.2	3.670	-0.240	0.090	-0.010
2020/01/31 19:39:11.3	3.680	-0.210	-0.010	-0.040
2020/01/31 19:39:11.4	3.690	-0.180	-0.110	-0.070
2020/01/31 19:39:11.5	3.700	-0.150	-0.200	-0.100
2020/01/31 19:39:11.6	3.710	-0.110	-0.300	-0.130
2020/01/31 19:39:11.7	3.720	-0.080	-0.400	-0.160
2020/01/31 19:39:11.8	3.740	-0.050	-0.490	-0.190
2020/01/31 19:39:11.9	3.750	-0.010	-0.580	-0.220
2020/01/31 19:39:12.0	3.760	0.020	-0.670	-0.250
2020/01/31 19:39:12.1	3.770	0.050	-0.750	-0.280
2020/01/31 19:39:12.2	3.790	0.080	-0.820	-0.310
2020/01/31 19:39:12.3	3.800	0.110	-0.890	-0.340
2020/01/31 19:39:12.4	3.820	0.140	-0.960	-0.360
2020/01/31 19:39:12.5	3.840	0.170	-1.010	-0.390
2020/01/31 19:39:12.6	3.850	0.190	-1.060	-0.420
2020/01/31 19:39:12.7	3.870	0.210	-1.110	-0.440
2020/01/31 19:39:12.8	3.890	0.230	-1.140	-0.470
2020/01/31 19:39:12.9	3.910	0.250	-1.170	-0.500
2020/01/31 19:39:13.0	3.940	0.270	-1.190	-0.520
2020/01/31 19:39:13.1	3.960	0.280	-1.200	-0.540
2020/01/31 19:39:13.2	3.980	0.290	-1.210	-0.560
2020/01/31 19:39:13.3	4.000	0.290	-1.210	-0.580
2020/01/31 19:39:13.4	4.030	0.290	-1.200	-0.590
2020/01/31 19:39:13.5	4.050	0.290	-1.180	-0.610
2020/01/31 19:39:13.6	4.080	0.290	-1.160	-0.620
2020/01/31 19:39:13.7	4.100	0.290	-1.130	-0.620
2020/01/31 19:39:13.8	4.130	0.280	-1.100	-0.630
2020/01/31 19:39:13.9	4.150	0.270	-1.060	-0.630
2020/01/31 19:39:14.0	4.170	0.260	-1.010	-0.630
2020/01/31 19:39:14.1	4.200	0.240	-0.960	-0.630
2020/01/31 19:39:14.2	4.220	0.220	-0.910	-0.620
2020/01/31 19:39:14.3	4.240	0.200	-0.850	-0.620
2020/01/31 19:39:14.4	4.260	0.180	-0.780	-0.610
2020/01/31 19:39:14.5	4.280	0.160	-0.720	-0.590
2020/01/31 19:39:14.6	4.300	0.130	-0.650	-0.580
2020/01/31 19:39:14.7	4.320	0.100	-0.580	-0.560
2020/01/31 19:39:14.8	4.330	0.080	-0.500	-0.550
2020/01/31 19:39:14.9	4.340	0.050	-0.430	-0.530
2020/01/31 19:39:15.0	4.350	0.020	-0.360	-0.510
2020/01/31 19:39:15.1	4.360	-0.010	-0.280	-0.490
2020/01/31 19:39:15.2	4.380	-0.040	-0.210	-0.470
2020/01/31 19:39:15.3	4.390	-0.070	-0.140	-0.450
2020/01/31 19:39:15.4	4.400	-0.100	-0.070	-0.430
2020/01/31 19:39:15.5	4.410	-0.130	0.000	-0.410
2020/01/31 19:39:15.6	4.420	-0.160	0.070	-0.390
2020/01/31 19:39:15.7	4.420	-0.180	0.130	-0.360
2020/01/31 19:39:15.8	4.430	-0.200	0.190	-0.340
2020/01/31 19:39:15.9	4.430	-0.220	0.250	-0.310
2020/01/31 19:39:16.0	4.430	-0.240	0.300	-0.280
2020/01/31 19:39:16.1	4.440	-0.250	0.350	-0.250
2020/01/31 19:39:16.2	4.430	-0.270	0.400	-0.220
2020/01/31 19:39:16.3	4.430	-0.270	0.440	-0.180
2020/01/31 19:39:16.4	4.430	-0.280	0.480	-0.140
2020/01/31 19:39:16.5	4.420	-0.280	0.520	-0.100
2020/01/31 19:39:16.6	4.410	-0.280	0.550	-0.050
2020/01/31 19:39:16.7	4.390	-0.280	0.580	-0.000
2020/01/31 19:39:16.8	4.370	-0.280	0.600	0.050
2020/01/31 19:39:16.9	4.360	-0.270	0.620	0.100
2020/01/31 19:39:17.0	4.340	-0.260	0.630	0.150
2020/01/31 19:39:17.1	4.310	-0.250	0.650	0.210
2020/01/31 19:39:17.2	4.280	-0.230	0.650	0.260
2020/01/31 19:39:17.3	4.250	-0.220	0.650	0.320
2020/01/31 19:39:17.4	4.220	-0.200	0.650	0.370
2020/01/31 19:39:17.5	4.190	-0.180	0.640	0.420
2020/01/31 19:39:17.6	4.160	-0.160	0.630	0.460
2020/01/31 19:39:17.7	4.120	-0.140	0.610	0.510
2020/01/31 19:39:17.8	4.090	-0.120	0.580	0.540
2020/01/31 19:39:17.9	4.070	-0.100	0.540	0.580
2020/01/31 19:39:18.0	4.030	-0.080	0.510	0.610
2020/01/31 19:39:18.1	4.000	-0.060	0.460	0.630
2020/01/31 19:39:18.2	3.970	-0.040	0.410	0.640
2020/01/31 19:39:18.3	3.940	-0.020	0.350	0.650
2020/01/31 19:39:18.4	3.910	0.010	0.290	0.650
2020/01/31 19:39:18.5	3.890	0.030	0.220	0.650
2020/01/31 19:39:18.6	3.870	0.050	0.150	0.640
2020/01/31 19:39:18.7	3.850	0.080	0.070	0.620
2020/01/31 19:39:18.8	3.840	0.100	-0.020	0.590
2020/01/31 19:39:18.9	3.830	0.120	-0.110	0.560
2020/01/31 19:39:19.0	3.820	0.140	-0.210	0.520
2020/01/31 19:39:19.1	3.820	0.170	-0.310	0.480
2020/01/31 19:39:19.2	3.830	0.190	-0.410	0.430
2020/01/31 19:39:19.3	3.840	0.210	-0.510	0.370
2020/01/31 19:39:19.4	3.860	0.240	-0.620	0.320
2020/01/31 19:39:19.5	3.880	0.260	-0.730	0.260
2020/01/31 19:39:19.6	3.910	0.280	-0.840	0.190
2020/01/31 19:39:19.7	3.940	0.310	-0.940	0.130
2020/01/31 19:39:19.8	3.980	0.330	-1.050	0.060
2020/01/31 19:39:19.9	4.020	0.350	-1.150	-0.010
2020/01/31 19:39:20.0	4.070	0.380	-1.250	-0.080
2020/01/31 19:39:20.1	4.120	0.400	-1.340	-0.150
2020/01/31 19:39:20.2	4.170	0.420	-1.420	-0.220
2020/01/31 19:39:20.3	4.220	0.440	-1.490	-0.290
2020/01/31 19:39:20.4	4.280	0.460	-1.560	-0.360
2020/01/31 19:39:20.5	4.340	0.470	-1.610	-0.420
2020/01/31 19:39:20.6	4.400	0.490	-1.650	-0.480
2020/01/31 19:39:20.7	4.460	0.500	-1.680	-0.550
2020/01/31 19:39:20.8	4.520	0.510	-1.700	-0.610
2020/01/31 19:39:20.9	4.590	0.520	-1.710	-0.670
2020/01/31 19:39:21.0	4.650	0.520	-1.700	-0.720
2020/01/31 19:39:21.1	4.710	0.520	-1.680	-0.770
2020/01/31 19:39:21.2	4.770	0.520	-1.650	-0.820
2020/01/31 19:39:21.3	4.830	0.520	-1.600	-0.870
2020/01/31 19:39:21.4	4.890	0.510	-1.540	-0.910
2020/01/31 19:39:21.5	4.950	0.500	-1.470	-0.950
2020/01/31 19:39:21.6	5.010	0.480	-1.390	-0.980
2020/01/31 19:39:21.7	5.060	0.460	-1.290	-1.010
2020/01/31 19:39:21.8	5.110	0.440	-1.190	-1.030
2020/01/31 19:39:21.9	5.160	0.420	-1.080	-1.050
2020/01/31 19:39:22.0	5.200	0.390	-0.970	-1.060
2020/01/31 19:39:22.1	5.250	0.370	-0.840	-1.060
2020/01/31 19:39:22.2	5.290	0.340	-0.710	-1.060
2020/01/31 19:39:22.3	5.320	0.300	-0.570	-1.050
2020/01/31 19:39:22.4	5.360	0.270	-0.430	-1.030
2020/01/31 19:39:22.5	5.380	0.230	-0.290	-1.010
2020/01/31 19:39:22.6	5.410	0.190	-0.150	-0.980
2020/01/31 19:39:22.7	5.420	0.150	-0.000	-0.940
2020/01/31 19:39:22.8	5.440	0.110	0.140	-0.900
2020/01/31 19:39:22.9	5.460	0.070	0.280	-0.850
2020/01/31 19:39:23.0	5.460	0.020	0.420	-0.800
2020/01/31 19:39:23.1	5.450	-0.020	0.550	-0.750
2020/01/31 19:39:23.2	5.440	-0.070	0.680	-0.690
2020/01/31 19:39:23.3	5.430	-0.120	0.800	-0.620
2020/01/31 19:39:23.4	5.410	-0.170	0.920	-0.560
2020/01/31 19:39:23.5	5.380	-0.220	1.030	-0.490
2020/01/31 19:39:23.6	5.340	-0.270	1.130	-0.420
2020/01/31 19:39:23.7	5.300	-0.320	1.220	-0.350
2020/01/31 19:39:23.8	5.250	-0.370	1.300	-0.280
2020/01/31 19:39:23.9	5.200	-0.420	1.370	-0.220
2020/01/31 19:39:24.0	5.140	-0.470	1.440	-0.150
2020/01/31 19:39:24.1	5.080	-0.520	1.490	-0.090
2020/01/31 19:39:24.2	5.010	-0.560	1.540	-0.030
2020/01/31 19:39:24.3	4.940	-0.610	1.570	0.030
2020/01/31 19:39:24.4	4.870	-0.650	1.590	0.080
2020/01/31 19:39:24.5	4.790	-0.690	1.600	0.120
2020/01/31 19:39:24.6	4.710	-0.730	1.600	0.160
2020/01/31 19:39:24.7	4.640	-0.760	1.590	0.200
2020/01/31 19:39:24.8	4.560	-0.790	1.560	0.220
2020/01/31 19:39:24.9	4.490	-0.820	1.530	0.240
2020/01/31 19:39:25.0	4.410	-0.840	1.490	0.260
2020/01/31 19:39:25.1	4.340	-0.860	1.430	0.270
2020/01/31 19:39:25.2	4.260	-0.880	1.370	0.270
2020/01/31 19:39:25.3	4.190	-0.890	1.300	0.260
2020/01/31 19:39:25.4	4.120	-0.900	1.210	0.250
2020/01/31 19:39:25.5	4.060	-0.900	1.120	0.230
2020/01/31 19:39:25.6	4.000	-0.900	1.020	0.210
2020/01/31 19:39:25.7	3.950	-0.900	0.910	0.180
2020/01/31 19:39:25.8	3.900	-0.890	0.800	0.150
2020/01/31 19:39:25.9	3.850	-0.870	0.670	0.100
2020/01/31 19:39:26.0	3.810	-0.850	0.540	0.060
2020/01/31 19:39:26.1	3.780	-0.820	0.410	0.010
2020/01/31 19:39:26.2	3.760	-0.790	0.270	-0.040
2020/01/31 19:39:26.3	3.740	-0.750	0.130	-0.090
2020/01/31 19:39:26.4	3.730	-0.710	-0.010	-0.140
2020/01/31 19:39:26.5	3.730	-0.670	-0.150	-0.200
2020/01/31 19:39:26.6	3.730	-0.620	-0.300	-0.250
2020/01/31 19:39:26.7	3.740	-0.570	-0.440	-0.310
2020/01/31 19:39:26.8	3.750	-0.510	-0.580	-0.370
2020/01/31 19:39:26.9	3.760	-0.450	-0.720	-0.430
2020/01/31 19:39:27.0	3.790	-0.390	-0.850	-0.490
2020/01/31 19:39:27.1	3.820	-0.330	-0.980	-0.560
2020/01/31 19:39:27.2	3.860	-0.260	-1.110	-0.620
2020/01/31 19:39:27.3	3.890	-0.200	-1.230	-0.680
2020/01/31 19:39:27.4	3.940	-0.130	-1.340	-0.740
2020/01/31 19:39:27.5	3.990	-0.060	-1.450	-0.790
2020/01/31 19:39:27.6	4.040	0.010	-1.540	-0.850
2020/01/31 19:39:27.7	4.090	0.070	-1.630	-0.910
2020/01/31 19:39:27.8	4.150	0.140	-1.710	-0.960
2020/01/31 19:39:27.9	4.200	0.200	-1.780	-1.010
2020/01/31 19:39:28.0	4.260	0.260	-1.840	-1.060
2020/01/31 19:39:28.1	4.330	0.320	-1.900	-1.110
2020/01/31 19:39:28.2	4.390	0.380	-1.940	-1.150
2020/01/31 19:39:28.3	4.450	0.430	-1.970	-1.190
2020/01/31 19:39:28.4	4.510	0.480	-1.990	-1.220
2020/01/31 19:39:28.5	4.560	0.520	-1.990	-1.250
2020/01/31 19:39:28.6	4.620	0.560	-1.990	-1.270
2020/01/31 19:39:28.7	4.670	0.600	-1.980	-1.280
2020/01/31 19:39:28.8	4.710	0.630	-1.950	-1.290
2020/01/31 19:39:28.9	4.760	0.650	-1.920	-1.290
2020/01/31 19:39:29.0	4.790	0.670	-1.880	-1.280
2020/01/31 19:39:29.1	4.830	0.690	-1.820	-1.270
2020/01/31 19:39:29.2	4.860	0.700	-1.760	-1.260
2020/01/31 19:39:29.3	4.890	0.700	-1.690	-1.230
2020/01/31 19:39:29.4	4.910	0.700	-1.610	-1.210
2020/01/31 19:39:29.5	4.930	0.700	-1.520	-1.180
2020/01/31 19:39:29.6	4.950	0.690	-1.430	-1.140
2020/01/31 19:39:29.7	4.960	0.670	-1.340	-1.100
2020/01/31 19:39:29.8	4.970	0.650	-1.230	-1.060
2020/01/31 19:39:29.9	4.980	0.630	-1.130	-1.010
2020/01/31 19:39:30.0	4.980	0.600	-1.020	-0.960
2020/01/31 19:39:30.1	4.990	0.570	-0.910	-0.910
2020/01/31 19:39:30.2	4.990	0.540	-0.790	-0.860
2020/01/31 19:39:30.3	4.990	0.500	-0.680	-0.800
2020/01/31 19:39:30.4	4.990	0.470	-0.570	-0.750
2020/01/31 19:39:30.5	4.990	0.430	-0.460	-0.690
2020/01/31 19:39:30.6	4.990	0.380	-0.350	-0.630
2020/01/31 19:39:30.7	4.980	0.340	-0.240	-0.580
2020/01/31 19:39:30.8	4.980	0.300	-0.140	-0.520
2020/01/31 19:39:30.9	4.990	0.260	-0.040	-0.460
2020/01/31 19:39:31.0	4.990	0.220	0.050	-0.410
2020/01/31 19:39:31.1	4.990	0.170	0.140	-0.350
2020/01/31 19:39:31.2	4.990	0.140	0.230	-0.300
2020/01/31 19:39:31.3	4.990	0.100	0.300	-0.250
2020/01/31 19:39:31.4	4.990	0.060	0.370	-0.200
2020/01/31 19:39:31.5	4.990	0.030	0.430	-0.150
2020/01/31 19:39:31.6	4.990	0.000	0.490	-0.100
2020/01/31 19:39:31.7	5.000	-0.030	0.530	-0.060
2020/01/31 19:39:31.8	5.000	-0.050	0.570	-0.020
2020/01/31 19:39:31.9	5.010	-0.070	0.600	0.020
2020/01/31 19:39:32.0	5.020	-0.090	0.630	0.060
2020/01/31 19:39:32.1	5.020	-0.100	0.640	0.090
2020/01/31 19:39:32.2	5.020	-0.110	0.650	0.130
2020/01/31 19:39:32.3	5.030	-0.120	0.660	0.160
2020/01/31 19:39:32.4	5.030	-0.120	0.650	0.190
2020/01/31 19:39:32.5	5.040	-0.120	0.640	0.220
2020/01/31 19:39:32.6	5.040	-0.110	0.630	0.250
2020/01/31 19:39:32.7	5.040	-0.110	0.610	0.270
2020/01/31 19:39:32.8	5.040	-0.100	0.590	0.300
2020/01/31 19:39:32.9	5.060	-0.090	0.570	0.320
2020/01/31 19:39:33.0	5.060	-0.070	0.540	0.340
2020/01/31 19:39:33.1	5.050	-0.060	0.510	0.360
2020/01/31 19:39:33.2	5.050	-0.040	0.480	0.380
2020/01/31 19:39:33.3	5.050	-0.030	0.440	0.390
2020/01/31 19:39:33.4	5.040	-0.010	0.410	0.400
2020/01/31 19:39:33.5	5.030	0.010	0.380	0.410
2020/01/31 19:39:33.6	5.030	0.020	0.340	0.420
2020/01/31 19:39:33.7	5.010	0.040	0.310	0.420
2020/01/31 19:39:33.8	5.000	0.060	0.270	0.420
2020/01/31 19:39:33.9	5.000	0.070	0.240	0.420
2020/01/31 19:39:34.0	4.980	0.080	0.210	0.420
2020/01/31 19:39:34.1	4.970	0.090	0.180	0.410
2020/01/31 19:39:34.2	4.950	0.100	0.150	0.410
2020/01/31 19:39:34.3	4.930	0.100	0.120	0.400
2020/01/31 19:39:34.4	4.910	0.100	0.100	0.380
2020/01/31 19:39:34.5	4.880	0.100	0.080	0.370
2020/01/31 19:39:34.6	4.860	0.100	0.060	0.350
2020/01/31 19:39:34.7	4.830	0.090	0.050	0.330
2020/01/31 19:39:34.8	4.810	0.080	0.030	0.310
2020/01/31 19:39:34.9	4.770	0.070	0.020	0.280
2020/01/31 19:39:35.0	4.750	0.050	0.010	0.250
2020/01/31 19:39:35.1	4.720	0.040	0.000	0.230
2020/01/31 19:39:35.2	4.700	0.010	-0.000	0.200
2020/01/31 19:39:35.3	4.670	-0.010	-0.010	0.160
2020/01/31 19:39:35.4	4.650	-0.030	-0.010	0.130
2020/01/31 19:39:35.5	4.630	-0.060	-0.010	0.090
2020/01/31 19:39:35.6	4.610	-0.090	-0.010	0.050
2020/01/31 19:39:35.7	4.590	-0.110	-0.020	0.010
2020/01/31 19:39:35.8	4.580	-0.140	-0.020	-0.030
2020/01/31 19:39:35.9	4.570	-0.170	-0.020	-0.080
2020/01/31 19:39:36.0	4.560	-0.200	-0.020	-0.120
2020/01/31 19:39:36.1	4.550	-0.230	-0.030	-0.160
2020/01/31 19:39:36.2	4.540	-0.260	-0.030	-0.210
2020/01/31 19:39:36.3	4.540	-0.290	-0.040	-0.250
2020/01/31 19:39:36.4	4.530	-0.310	-0.050	-0.300
2020/01/31 19:39:36.5	4.530	-0.340	-0.060	-0.340
2020/01/31 19:39:36.6	4.530	-0.360	-0.070	-0.380
2020/01/31 19:39:36.7	4.530	-0.380	-0.090	-0.420
2020/01/31 19:39:36.8	4.530	-0.390	-0.100	-0.460
2020/01/31 19:39:36.9	4.530	-0.410	-0.130	-0.510
2020/01/31 19:39:37.0	4.530	-0.420	-0.150	-0.550
2020/01/31 19:39:37.1	4.530	-0.430	-0.170	-0.580
2020/01/31 19:39:37.2	4.540	-0.430	-0.200	-0.620
2020/01/31 19:39:37.3	4.540	-0.430	-0.220	-0.650
2020/01/31 19:39:37.4	4.550	-0.430	-0.250	-0.690
2020/01/31 19:39:37.5	4.550	-0.430	-0.280	-0.720
2020/01/31 19:39:37.6	4.560	-0.420	-0.310	-0.750
2020/01/31 19:39:37.7	4.560	-0.410	-0.350	-0.780
2020/01/31 19:39:37.8	4.570	-0.390	-0.380	-0.800
2020/01/31 19:39:37.9	4.570	-0.370	-0.410	-0.830
2020/01/31 19:39:38.0	4.580	-0.350	-0.450	-0.850
2020/01/31 19:39:38.1	4.590	-0.330	-0.490	-0.880
2020/01/31 19:39:38.2	4.600	-0.300	-0.520	-0.900
2020/01/31 19:39:38.3	4.610	-0.270	-0.560	-0.910
2020/01/31 19:39:38.4	4.630	-0.240	-0.590	-0.930
2020/01/31 19:39:38.5	4.640	-0.210	-0.630	-0.940
2020/01/31 19:39:38.6	4.660	-0.170	-0.660	-0.960
2020/01/31 19:39:38.7	4.670	-0.140	-0.690	-0.960
2020/01/31 19:39:38.8	4.690	-0.100	-0.720	-0.970
2020/01/31 19:39:38.9	4.700	-0.060	-0.750	-0.980
2020/01/31 19:39:39.0	4.720	-0.030	-0.770	-0.980
2020/01/31 19:39:39.1	4.740	0.010	-0.790	-0.980
2020/01/31 19:39:39.2	4.760	0.040	-0.810	-0.970
2020/01/31 19:39:39.3	4.790	0.070	-0.820	-0.970
2020/01/31 19:39:39.4	4.810	0.110	-0.830	-0.960
2020/01/31 19:39:39.5	4.830	0.140	-0.840	-0.950
2020/01/31 19:39:39.6	4.860	0.160	-0.840	-0.930
2020/01/31 19:39:39.7	4.880	0.190	-0.830	-0.920
2020/01/31 19:39:39.8	4.910	0.210	-0.820	-0.900
2020/01/31 19:39:39.9	4.940	0.230	-0.810	-0.880
2020/01/31 19:39:40.0	4.960	0.250	-0.790	-0.860
2020/01/31 19:39:40.1	4.990	0.270	-0.770	-0.830
2020/01/31 19:39:40.2	5.010	0.280	-0.750	-0.800
2020/01/31 19:39:40.3	5.040	0.290	-0.720	-0.780
2020/01/31 19:39:40.4	5.060	0.300	-0.680	-0.740
2020/01/31 19:39:40.5	5.080	0.300	-0.650	-0.710
2020/01/31 19:39:40.6	5.110	0.300	-0.600	-0.680
2020/01/31 19:39:40.7	5.130	0.300	-0.560	-0.640
2020/01/31 19:39:40.8	5.150	0.300	-0.520	-0.600
2020/01/31 19:39:40.9	5.160	0.290	-0.470	-0.560
2020/01/31 19:39:41.0	5.180	0.280	-0.420	-0.510
2020/01/31 19:39:41.1	5.200	0.270	-0.370	-0.470
2020/01/31 19:39:41.2	5.220	0.260	-0.320	-0.420
2020/01/31 19:39:41.3	5.240	0.240	-0.270	-0.380
2020/01/31 19:39:41.4	5.270	0.230	-0.220	-0.330
2020/01/31 19:39:41.5	5.280	0.210	-0.170	-0.280
2020/01/31 19:39:41.6	5.310	0.190	-0.120	-0.240
2020/01/31 19:39:41.7	5.330	0.180	-0.080	-0.190
2020/01/31 19:39:41.8	5.350	0.160	-0.030	-0.140
2020/01/31 19:39:41.9	5.380	0.140	0.010	-0.100
2020/01/31 19:39:42.0	5.400	0.120	0.050	-0.060
2020/01/31 19:39:42.1	5.420	0.110	0.080	-0.020
2020/01/31 19:39:42.2	5.440	0.090	0.110	0.020
2020/01/31 19:39:42.3	5.450	0.070	0.140	0.060
2020/01/31 19:39:42.4	5.470	0.060	0.160	0.090
2020/01/31 19:39:42.5	5.480	0.040	0.170	0.130
2020/01/31 19:39:42.6	5.490	0.030	0.180	0.160
2020/01/31 19:39:42.7	5.500	0.020	0.190	0.190
2020/01/31 19:39:42.8	5.500	0.010	0.190	0.210
2020/01/31 19:39:42.9	5.500	0.000	0.190	0.240
2020/01/31 19:39:43.0	5.500	-0.010	0.180	0.260
2020/01/31 19:39:43.1	5.500	-0.010	0.170	0.280
2020/01/31 19:39:43.2	5.500	-0.010	0.150	0.290
2020/01/31 19:39:43.3	5.500	-0.010	0.130	0.300
2020/01/31 19:39:43.4	5.490	-0.010	0.100	0.320
2020/01/31 19:39:43.5	5.480	-0.010	0.070	0.320
2020/01/31 19:39:43.6	5.470	-0.010	0.040	0.330
2020/01/31 19:39:43.7	5.450	0.000	0.000	0.330
2020/01/31 19:39:43.8	5.440	0.010	-0.030	0.340
2020/01/31 19:39:43.9	5.430	0.020	-0.070	0.340
2020/01/31 19:39:44.0	5.410	0.030	-0.120	0.340
2020/01/31 19:39:44.1	5.390	0.040	-0.160	0.330
2020/01/31 19:39:44.2	5.370	0.050	-0.200	0.330
2020/01/31 19:39:44.3	5.340	0.060	-0.240	0.330
2020/01/31 19:39:44.4	5.310	0.070	-0.280	0.320
2020/01/31 19:39:44.5	5.280	0.090	-0.320	0.310
2020/01/31 19:39:44.6	5.250	0.100	-0.360	0.300
2020/01/31 19:39:44.7	5.210	0.110	-0.390	0.290
2020/01/31 19:39:44.8	5.180	0.120	-0.420	0.280
2020/01/31 19:39:44.9	5.150	0.130	-0.450	0.270
2020/01/31 19:39:45.0	5.120	0.130	-0.480	0.250
2020/01/31 19:39:45.1	5.080	0.140	-0.500	0.240
2020/01/31 19:39:45.2	5.040	0.150	-0.520	0.220
2020/01/31 19:39:45.3	5.000	0.150	-0.530	0.200
2020/01/31 19:39:45.4	4.970	0.150	-0.540	0.180
2020/01/31 19:39:45.5	4.930	0.150	-0.540	0.170
2020/01/31 19:39:45.6	4.890	0.150	-0.540	0.140
2020/01/31 19:39:45.7	4.850	0.140	-0.540	0.120
2020/01/31 19:39:45.8	4.810	0.140	-0.530	0.100
2020/01/31 19:39:45.9	4.760	0.130	-0.520	0.080
2020/01/31 19:39:46.0	4.720	0.120	-0.500	0.050
2020/01/31 19:39:46.1	4.690	0.100	-0.480	0.030
2020/01/31 19:39:46.2	4.650	0.090	-0.450	0.010
2020/01/31 19:39:46.3	4.610	0.070	-0.420	-0.020
2020/01/31 19:39:46.4	4.580	0.060	-0.390	-0.040
2020/01/31 19:39:46.5	4.550	0.040	-0.360	-0.060
2020/01/31 19:39:46.6	4.510	0.020	-0.320	-0.090
2020/01/31 19:39:46.7	4.480	0.000	-0.280	-0.110
2020/01/31 19:39:46.8	4.450	-0.020	-0.240	-0.140
2020/01/31 19:39:46.9	4.420	-0.040	-0.210	-0.170
2020/01/31 19:39:47.0	4.400	-0.050	-0.170	-0.200
2020/01/31 19:39:47.1	4.380	-0.070	-0.130	-0.220
2020/01/31 19:39:47.2	4.360	-0.090	-0.090	-0.250
2020/01/31 19:39:47.3	4.350	-0.110	-0.060	-0.280
2020/01/31 19:39:47.4	4.340	-0.120	-0.030	-0.310
2020/01/31 19:39:47.5	4.330	-0.130	0.000	-0.340
2020/01/31 19:39:47.6	4.330	-0.150	0.030	-0.360
2020/01/31 19:39:47.7	4.330	-0.160	0.050	-0.390
2020/01/31 19:39:47.8	4.340	-0.160	0.070	-0.430
2020/01/31 19:39:47.9	4.350	-0.170	0.080	-0.460
2020/01/31 19:39:48.0	4.360	-0.170	0.090	-0.490
2020/01/31 19:39:48.1	4.380	-0.180	0.100	-0.520
2020/01/31 19:39:48.2	4.400	-0.170	0.100	-0.560
2020/01/31 19:39:48.3	4.430	-0.170	0.100	-0.590
2020/01/31 19:39:48.4	4.460	-0.170	0.090	-0.630
2020/01/31 19:39:48.5	4.490	-0.160	0.080	-0.660
2020/01/31 19:39:48.6	4.530	-0.160	0.070	-0.700
2020/01/31 19:39:48.7	4.570	-0.150	0.050	-0.730
2020/01/31 19:39:48.8	4.610	-0.140	0.030	-0.770
2020/01/31 19:39:48.9	4.650	-0.130	0.010	-0.810
2020/01/31 19:39:49.0	4.690	-0.120	-0.010	-0.840
2020/01/31 19:39:49.1	4.740	-0.110	-0.040	-0.870
2020/01/31 19:39:49.2	4.790	-0.100	-0.070	-0.910
2020/01/31 19:39:49.3	4.840	-0.080	-0.100	-0.940
2020/01/31 19:39:49.4	4.890	-0.070	-0.130	-0.960
2020/01/31 19:39:49.5	4.930	-0.060	-0.150	-0.990
2020/01/31 19:39:49.6	4.980	-0.050	-0.180	-1.010
2020/01/31 19:39:49.7	5.030	-0.050	-0.210	-1.020
2020/01/31 19:39:49.8	5.070	-0.040	-0.240	-1.040
2020/01/31 19:39:49.9	5.100	-0.030	-0.260	-1.040
2020/01/31 19:39:50.0	5.140	-0.030	-0.280	-1.040
2020/01/31 19:39:50.1	5.170	-0.020	-0.300	-1.040
2020/01/31 19:39:50.2	5.200	-0.020	-0.310	-1.030
2020/01/31 19:39:50.3	5.230	-0.020	-0.320	-1.010
2020/01/31 19:39:50.4	5.250	-0.020	-0.340	-0.990
2020/01/31 19:39:50.5	5.270	-0.020	-0.340	-0.970
2020/01/31 19:39:50.6	5.280	-0.030	-0.350	-0.950
2020/01/31 19:39:50.7	5.300	-0.030	-0.350	-0.920
2020/01/31 19:39:50.8	5.310	-0.040	-0.350	-0.880
2020/01/31 19:39:50.9	5.320	-0.050	-0.350	-0.850
2020/01/31 19:39:51.0	5.330	-0.060	-0.340	-0.810
2020/01/31 19:39:51.1	5.330	-0.060	-0.340	-0.780
2020/01/31 19:39:51.2	5.340	-0.070	-0.330	-0.740
2020/01/31 19:39:51.3	5.340	-0.080	-0.320	-0.700
2020/01/31 19:39:51.4	5.340	-0.090	-0.310	-0.670
2020/01/31 19:39:51.5	5.340	-0.100	-0.310	-0.640
2020/01/31 19:39:51.6	5.340	-0.110	-0.300	-0.600
2020/01/31 19:39:51.7	5.340	-0.120	-0.290	-0.570
2020/01/31 19:39:51.8	5.340	-0.130	-0.290	-0.540
2020/01/31 19:39:51.9	5.350	-0.130	-0.290	-0.510
2020/01/31 19:39:52.0	5.350	-0.140	-0.290	-0.480
2020/01/31 19:39:52.1	5.350	-0.140	-0.290	-0.460
2020/01/31 19:39:52.2	5.350	-0.140	-0.300	-0.430
2020/01/31 19:39:52.3	5.340	-0.150	-0.300	-0.410
2020/01/31 19:39:52.4	5.340	-0.140	-0.310	-0.390
2020/01/31 19:39:52.5	5.330	-0.140	-0.320	-0.370
2020/01/31 19:39:52.6	5.330	-0.140	-0.330	-0.350
2020/01/31 19:39:52.7	5.320	-0.130	-0.350	-0.330
2020/01/31 19:39:52.8	5.310	-0.120	-0.360	-0.310
2020/01/31 19:39:52.9	5.320	-0.110	-0.380	-0.290
2020/01/31 19:39:53.0	5.300	-0.100	-0.390	-0.270
2020/01/31 19:39:53.1	5.290	-0.080	-0.410	-0.250
2020/01/31 19:39:53.2	5.270	-0.070	-0.420	-0.240
2020/01/31 19:39:53.3	5.260	-0.050	-0.440	-0.220
2020/01/31 19:39:53.4	5.240	-0.040	-0.450	-0.210
2020/01/31 19:39:53.5	5.220	-0.020	-0.460	-0.190
2020/01/31 19:39:53.6	5.190	-0.000	-0.460	-0.180
2020/01/31 19:39:53.7	5.170	0.020	-0.470	-0.170
2020/01/31 19:39:53.8	5.140	0.030	-0.470	-0.150
2020/01/31 19:39:53.9	5.110	0.050	-0.470	-0.150
2020/01/31 19:39:54.0	5.080	0.070	-0.460	-0.140
2020/01/31 19:39:54.1	5.050	0.080	-0.460	-0.130
2020/01/31 19:39:54.2	5.020	0.100	-0.440	-0.120
2020/01/31 19:39:54.3	4.980	0.120	-0.420	-0.100
2020/01/31 19:39:54.4	4.940	0.130	-0.400	-0.090
2020/01/31 19:39:54.5	4.900	0.140	-0.370	-0.080
2020/01/31 19:39:54.6	4.860	0.150	-0.340	-0.070
2020/01/31 19:39:54.7	4.820	0.170	-0.310	-0.050
2020/01/31 19:39:54.8	4.770	0.170	-0.280	-0.040
2020/01/31 19:39:54.9	4.730	0.180	-0.240	-0.020
2020/01/31 19:39:55.0	4.690	0.190	-0.200	-0.010
2020/01/31 19:39:55.1	4.640	0.200	-0.150	0.010
2020/01/31 19:39:55.2	4.590	0.200	-0.110	0.030
2020/01/31 19:39:55.3	4.550	0.210	-0.070	0.050
2020/01/31 19:39:55.4	4.500	0.210	-0.020	0.080
2020/01/31 19:39:55.5	4.460	0.210	0.020	0.100
2020/01/31 19:39:55.6	4.420	0.210	0.060	0.130
2020/01/31 19:39:55.7	4.380	0.210	0.100	0.150
2020/01/31 19:39:55.8	4.340	0.210	0.140	0.180
2020/01/31 19:39:55.9	4.310	0.210	0.170	0.200
2020/01/31 19:39:56.0	4.280	0.210	0.200	0.230
2020/01/31 19:39:56.1	4.250	0.210	0.230	0.250
2020/01/31 19:39:56.2	4.220	0.210	0.250	0.270
2020/01/31 19:39:56.3	4.190	0.200	0.270	0.300
2020/01/31 19:39:56.4	4.170	0.200	0.280	0.320
2020/01/31 19:39:56.5	4.150	0.200	0.290	0.330
2020/01/31 19:39:56.6	4.140	0.200	0.290	0.350
2020/01/31 19:39:56.7	4.130	0.190	0.290	0.360
2020/01/31 19:39:56.8	4.120	0.190	0.280	0.360
2020/01/31 19:39:56.9	4.120	0.190	0.260	0.370
2020/01/31 19:39:57.0	4.110	0.190	0.240	0.370
2020/01/31 19:39:57.1	4.110	0.180	0.210	0.360
2020/01/31 19:39:57.2	4.120	0.180	0.190	0.350
2020/01/31 19:39:57.3	4.120	0.180	0.150	0.340
2020/01/31 19:39:57.4	4.130	0.180	0.110	0.330
2020/01/31 19:39:57.5	4.140	0.180	0.070	0.310
2020/01/31 19:39:57.6	4.150	0.180	0.030	0.290
2020/01/31 19:39:57.7	4.160	0.180	-0.020	0.260
2020/01/31 19:39:57.8	4.180	0.180	-0.070	0.240
2020/01/31 19:39:57.9	4.190	0.180	-0.120	0.200
2020/01/31 19:39:58.0	4.210	0.190	-0.170	0.170
2020/01/31 19:39:58.1	4.230	0.190	-0.220	0.140
2020/01/31 19:39:58.2	4.260	0.190	-0.270	0.110
2020/01/31 19:39:58.3	4.280	0.190	-0.330	0.080
2020/01/31 19:39:58.4	4.310	0.190	-0.380	0.040
2020/01/31 19:39:58.5	4.340	0.190	-0.430	0.010
2020/01/31 19:39:58.6	4.370	0.190	-0.470	-0.030
2020/01/31 19:39:58.7	4.400	0.190	-0.520	-0.060
2020/01/31 19:39:58.8	4.430	0.190	-0.560	-0.090
2020/01/31 19:39:58.9	4.470	0.190	-0.600	-0.120
2020/01/31 19:39:59.0	4.510	0.180	-0.640	-0.160
2020/01/31 19:39:59.1	4.540	0.180	-0.680	-0.190
2020/01/31 19:39:59.2	4.570	0.170	-0.710	-0.220
2020/01/31 19:39:59.3	4.600	0.170	-0.740	-0.260
2020/01/31 19:39:59.4	4.630	0.160	-0.770	-0.290
2020/01/31 19:39:59.5	4.660	0.150	-0.790	-0.320
2020/01/31 19:39:59.6	4.690	0.140	-0.810	-0.340
2020/01/31 19:39:59.7	4.720	0.130	-0.830	-0.370
2020/01/31 19:39:59.8	4.750	0.120	-0.840	-0.400
2020/01/31 19:39:59.9	4.770	0.100	-0.860	-0.430
2020/01/31 19:40:00.0	4.800	0.090	-0.860	-0.450
2020/01/31 19:40:00.1	4.820	0.080	-0.870	-0.480
2020/01/31 19:40:00.2	4.850	0.060	-0.870	-0.500
2020/01/31 19:40:00.3	4.880	0.040	-0.870	-0.530
2020/01/31 19:40:00.4	4.900	0.030	-0.870	-0.550
2020/01/31 19:40:00.5	4.930	0.010	-0.860	-0.580
2020/01/31 19:40:00.6	4.950	-0.010	-0.860	-0.600
2020/01/31 19:40:00.7	4.980	-0.030	-0.840	-0.620
2020/01/31 19:40:00.8	5.010	-0.050	-0.830	-0.650
2020/01/31 19:40:00.9	5.020	-0.070	-0.810	-0.670
2020/01/31 19:40:01.0	5.050	-0.080	-0.800	-0.690
2020/01/31 19:40:01.1	5.070	-0.100	-0.770	-0.720
2020/01/31 19:40:01.2	5.090	-0.120	-0.750	-0.730
2020/01/31 19:40:01.3	5.110	-0.140	-0.720	-0.750
2020/01/31 19:40:01.4	5.130	-0.150	-0.690	-0.760
2020/01/31 19:40:01.5	5.150	-0.170	-0.660	-0.770
2020/01/31 19:40:01.6	5.160	-0.190	-0.620	-0.770
2020/01/31 19:40:01.7	5.160	-0.210	-0.580	-0.770
2020/01/31 19:40:01.8	5.160	-0.220	-0.540	-0.760
2020/01/31 19:40:01.9	5.160	-0.240	-0.490	-0.750
2020/01/31 19:40:02.0	5.150	-0.260	-0.440	-0.730
2020/01/31 19:40:02.1	5.140	-0.280	-0.390	-0.710
2020/01/31 19:40:02.2	5.120	-0.290	-0.330	-0.680
2020/01/31 19:40:02.3	5.100	-0.310	-0.270	-0.650
2020/01/31 19:40:02.4	5.070	-0.330	-0.200	-0.610
2020/01/31 19:40:02.5	5.030	-0.350	-0.140	-0.570
2020/01/31 19:40:02.6	5.000	-0.370	-0.070	-0.530
2020/01/31 19:40:02.7	4.950	-0.390	0.000	-0.490
2020/01/31 19:40:02.8	4.910	-0.410	0.070	-0.440
2020/01/31 19:40:02.9	4.870	-0.430	0.140	-0.390
2020/01/31 19:40:03.0	4.820	-0.450	0.210	-0.340
2020/01/31 19:40:03.1	4.770	-0.470	0.280	-0.290
2020/01/31 19:40:03.2	4.710	-0.490	0.350	-0.250
2020/01/31 19:40:03.3	4.660	-0.500	0.410	-0.200
2020/01/31 19:40:03.4	4.600	-0.520	0.470	-0.150
2020/01/31 19:40:03.5	4.550	-0.540	0.530	-0.110
2020/01/31 19:40:03.6	4.490	-0.560	0.580	-0.060
2020/01/31 19:40:03.7	4.440	-0.570	0.630	-0.020
2020/01/31 19:40:03.8	4.390	-0.590	0.670	0.020
2020/01/31 19:40:03.9	4.340	-0.600	0.700	0.050
2020/01/31 19:40:04.0	4.300	-0.610	0.720	0.080
2020/01/31 19:40:04.1	4.250	-0.620	0.740	0.110
2020/01/31 19:40:04.2	4.210	-0.620	0.750	0.130
2020/01/31 19:40:04.3	4.170	-0.630	0.760	0.150
2020/01/31 19:40:04.4	4.140	-0.620	0.750	0.170
2020/01/31 19:40:04.5	4.110	-0.620	0.740	0.180
2020/01/31 19:40:04.6	4.080	-0.610	0.720	0.190
2020/01/31 19:40:04.7	4.060	-0.600	0.690	0.200
2020/01/31 19:40:04.8	4.040	-0.590	0.650	0.200
2020/01/31 19:40:04.9	4.010	-0.570	0.610	0.200
2020/01/31 19:40:05.0	4.000	-0.540	0.560	0.200
2020/01/31 19:40:05.1	3.990	-0.520	0.510	0.190
2020/01/31 19:40:05.2	3.980	-0.480	0.440	0.180
2020/01/31 19:40:05.3	3.980	-0.450	0.380	0.170
2020/01/31 19:40:05.4	3.980	-0.410	0.310	0.160
2020/01/31 19:40:05.5	3.970	-0.370	0.240	0.150
2020/01/31 19:40:05.6	3.980	-0.320	0.160	0.140
2020/01/31 19:40:05.7	3.980	-0.270	0.080	0.130
2020/01/31 19:40:05.8	3.990	-0.220	0.010	0.120
2020/01/31 19:40:05.9	4.000	-0.160	-0.070	0.110
2020/01/31 19:40:06.0	4.010	-0.110	-0.150	0.100
2020/01/31 19:40:06.1	4.010	-0.050	-0.230	0.100
2020/01/31 19:40:06.2	4.020	0.010	-0.300	0.090
2020/01/31 19:40:06.3	4.030	0.070	-0.370	0.090
2020/01/31 19:40:06.4	4.040	0.140	-0.440	0.080
2020/01/31 19:40:06.5	4.050	0.200	-0.510	0.080
2020/01/31 19:40:06.6	4.070	0.260	-0.570	0.080
2020/01/31 19:40:06.7	4.080	0.320	-0.620	0.080
2020/01/31 19:40:06.8	4.090	0.380	-0.680	0.080
2020/01/31 19:40:06.9	4.100	0.440	-0.730	0.080
2020/01/31 19:40:07.0	4.110	0.500	-0.770	0.080
2020/01/31 19:40:07.1	4.120	0.550	-0.810	0.080
2020/01/31 19:40:07.2	4.140	0.600	-0.850	0.080
2020/01/31 19:40:07.3	4.150	0.650	-0.880	0.080
2020/01/31 19:40:07.4	4.160	0.690	-0.900	0.080
2020/01/31 19:40:07.5	4.180	0.730	-0.920	0.080
2020/01/31 19:40:07.6	4.190	0.760	-0.940	0.080
2020/01/31 19:40:07.7	4.210	0.790	-0.950	0.080
2020/01/31 19:40:07.8	4.220	0.810	-0.950	0.080
2020/01/31 19:40:07.9	4.220	0.830	-0.950	0.080
2020/01/31 19:40:08.0	4.240	0.850	-0.950	0.080
2020/01/31 19:40:08.1	4.250	0.860	-0.940	0.080
2020/01/31 19:40:08.2	4.260	0.860	-0.920	0.080
2020/01/31 19:40:08.3	4.270	0.860	-0.900	0.080
2020/01/31 19:40:08.4	4.280	0.850	-0.870	0.080
2020/01/31 19:40:08.5	4.290	0.830	-0.840	0.090
2020/01/31 19:40:08.6	4.300	0.810	-0.810	0.090
2020/01/31 19:40:08.7	4.300	0.790	-0.770	0.090
2020/01/31 19:40:08.8	4.300	0.760	-0.720	0.100
2020/01/31 19:40:08.9	4.300	0.730	-0.670	0.100
2020/01/31 19:40:09.0	4.290	0.690	-0.620	0.110
2020/01/31 19:40:09.1	4.290	0.640	-0.560	0.120
2020/01/31 19:40:09.2	4.280	0.600	-0.500	0.130
2020/01/31 19:40:09.3	4.280	0.550	-0.440	0.140
2020/01/31 19:40:09.4	4.260	0.500	-0.380	0.150
2020/01/31 19:40:09.5	4.250	0.440	-0.310	0.150
2020/01/31 19:40:09.6	4.230	0.380	-0.250	0.160
2020/01/31 19:40:09.7	4.220	0.320	-0.180	0.170
2020/01/31 19:40:09.8	4.200	0.260	-0.110	0.180
2020/01/31 19:40:09.9	4.180	0.200	-0.050	0.190
2020/01/31 19:40:10.0	4.160	0.140	0.010	0.200
2020/01/31 19:40:10.1	4.130	0.080	0.070	0.210
2020/01/31 19:40:10.2	4.110	0.010	0.120	0.210
2020/01/31 19:40:10.3	4.080	-0.050	0.170	0.220
2020/01/31 19:40:10.4	4.060	-0.100	0.220	0.220
2020/01/31 19:40:10.5	4.030	-0.160	0.260	0.220
2020/01/31 19:40:10.6	4.010	-0.210	0.290	0.210
2020/01/31 19:40:10.7	3.990	-0.260	0.310	0.210
2020/01/31 19:40:10.8	3.970	-0.310	0.330	0.200
2020/01/31 19:40:10.9	3.940	-0.360	0.350	0.190
2020/01/31 19:40:11.0	3.930	-0.400	0.350	0.170
2020/01/31 19:40:11.1	3.910	-0.430	0.340	0.150
2020/01/31 19:40:11.2	3.900	-0.460	0.330	0.130
2020/01/31 19:40:11.3	3.890	-0.490	0.310	0.110
2020/01/31 19:40:11.4	3.880	-0.510	0.280	0.080
2020/01/31 19:40:11.5	3.880	-0.530	0.240	0.050
2020/01/31 19:40:11.6	3.880	-0.540	0.200	0.010
2020/01/31 19:40:11.7	3.880	-0.540	0.150	-0.030
2020/01/31 19:40:11.8	3.890	-0.550	0.090	-0.070
2020/01/31 19:40:11.9	3.880	-0.540	0.030	-0.110
2020/01/31 19:40:12.0	3.890	-0.530	-0.040	-0.150
2020/01/31 19:40:12.1	3.910	-0.520	-0.100	-0.190
2020/01/31 19:40:12.2	3.920	-0.500	-0.170	-0.230
2020/01/31 19:40:12.3	3.930	-0.480	-0.240	-0.270
2020/01/31 19:40:12.4	3.950	-0.460	-0.310	-0.310
2020/01/31 19:40:12.5	3.970	-0.430	-0.380	-0.340
2020/01/31 19:40:12.6	3.980	-0.400	-0.450	-0.380
2020/01/31 19:40:12.7	4.000	-0.370	-0.510	-0.410
2020/01/31 19:40:12.8	4.020	-0.340	-0.570	-0.430
2020/01/31 19:40:12.9	4.040	-0.300	-0.630	-0.460
2020/01/31 19:40:13.0	4.060	-0.270	-0.680	-0.480
2020/01/31 19:40:13.1	4.070	-0.230	-0.730	-0.490
2020/01/31 19:40:13.2	4.090	-0.200	-0.770	-0.510
2020/01/31 19:40:13.3	4.100	-0.160	-0.800	-0.510
2020/01/31 19:40:13.4	4.120	-0.120	-0.830	-0.520
2020/01/31 19:40:13.5	4.130	-0.090	-0.850	-0.520
2020/01/31 19:40:13.6	4.140	-0.060	-0.870	-0.510
2020/01/31 19:40:13.7	4.150	-0.030	-0.880	-0.500
2020/01/31 19:40:13.8	4.160	0.000	-0.880	-0.490
2020/01/31 19:40:13.9	4.180	0.030	-0.880	-0.470
2020/01/31 19:40:14.0	4.190	0.050	-0.870	-0.460
2020/01/31 19:40:14.1	4.200	0.080	-0.860	-0.440
2020/01/31 19:40:14.2	4.220	0.100	-0.840	-0.420
2020/01/31 19:40:14.3	4.230	0.110	-0.810	-0.400
2020/01/31 19:40:14.4	4.250	0.120	-0.790	-0.380
2020/01/31 19:40:14.5	4.260	0.130	-0.760	-0.360
2020/01/31 19:40:14.6	4.280	0.140	-0.720	-0.330
2020/01/31 19:40:14.7	4.300	0.150	-0.690	-0.310
2020/01/31 19:40:14.8	4.310	0.150	-0.650	-0.300
2020/01/31 19:40:14.9	4.330	0.150	-0.610	-0.280
2020/01/31 19:40:15.0	4.350	0.140	-0.570	-0.270
2020/01/31 19:40:15.1	4.370	0.140	-0.530	-0.250
2020/01/31 19:40:15.2	4.390	0.130	-0.490	-0.240
2020/01/31 19:40:15.3	4.410	0.120	-0.450	-0.230
2020/01/31 19:40:15.4	4.420	0.100	-0.400	-0.220
2020/01/31 19:40:15.5	4.440	0.090	-0.360	-0.210
2020/01/31 19:40:15.6	4.450	0.070	-0.310	-0.200
2020/01/31 19:40:15.7	4.470	0.050	-0.270	-0.200
2020/01/31 19:40:15.8	4.480	0.040	-0.230	-0.190
2020/01/31 19:40:15.9	4.480	0.020	-0.180	-0.190
2020/01/31 19:40:16.0	4.490	-0.000	-0.140	-0.180
2020/01/31 19:40:16.1	4.490	-0.020	-0.100	-0.180
2020/01/31 19:40:16.2	4.490	-0.040	-0.050	-0.170
2020/01/31 19:40:16.3	4.480	-0.060	-0.010	-0.160
2020/01/31 19:40:16.4	4.470	-0.080	0.040	-0.150
2020/01/31 19:40:16.5	4.450	-0.090	0.080	-0.140
2020/01/31 19:40:16.6	4.440	-0.110	0.130	-0.130
2020/01/31 19:40:16.7	4.420	-0.120	0.170	-0.110
2020/01/31 19:40:16.8	4.390	-0.130	0.210	-0.090
2020/01/31 19:40:16.9	4.360	-0.140	0.250	-0.080
2020/01/31 19:40:17.0	4.330	-0.150	0.290	-0.050
2020/01/31 19:40:17.1	4.300	-0.160	0.330	-0.030
2020/01/31 19:40:17.2	4.270	-0.160	0.370	0.000
2020/01/31 19:40:17.3	4.230	-0.160	0.410	0.030
2020/01/31 19:40:17.4	4.200	-0.160	0.440	0.060
2020/01/31 19:40:17.5	4.160	-0.160	0.470	0.100
2020/01/31 19:40:17.6	4.120	-0.150	0.490	0.130
2020/01/31 19:40:17.7	4.090	-0.140	0.520	0.160
2020/01/31 19:40:17.8	4.050	-0.130	0.530	0.190
2020/01/31 19:40:17.9	4.010	-0.120	0.540	0.230
2020/01/31 19:40:18.0	3.980	-0.100	0.550	0.260
2020/01/31 19:40:18.1	3.950	-0.080	0.540	0.280
2020/01/31 19:40:18.2	3.920	-0.060	0.540	0.310
2020/01/31 19:40:18.3	3.890	-0.040	0.520	0.330
2020/01/31 19:40:18.4	3.860	-0.020	0.500	0.350
2020/01/31 19:40:18.5	3.840	0.000	0.480	0.360
2020/01/31 19:40:18.6	3.820	0.020	0.450	0.370
2020/01/31 19:40:18.7	3.800	0.050	0.410	0.380
2020/01/31 19:40:18.8	3.780	0.070	0.370	0.380
2020/01/31 19:40:18.9	3.780	0.090	0.320	0.380
2020/01/31 19:40:19.0	3.760	0.120	0.270	0.370
2020/01/31 19:40:19.1	3.760	0.140	0.220	0.360
2020/01/31 19:40:19.2	3.750	0.160	0.160	0.340
2020/01/31 19:40:19.3	3.750	0.180	0.100	0.320
2020/01/31 19:40:19.4	3.740	0.190	0.050	0.300
2020/01/31 19:40:19.5	3.740	0.210	-0.010	0.280
2020/01/31 19:40:19.6	3.750	0.220	-0.070	0.250
2020/01/31 19:40:19.7	3.750	0.220	-0.130	0.220
2020/01/31 19:40:19.8	3.750	0.230	-0.180	0.180
2020/01/31 19:40:19.9	3.740	0.230	-0.240	0.150
2020/01/31 19:40:20.0	3.740	0.230	-0.290	0.110
2020/01/31 19:40:20.1	3.740	0.230	-0.330	0.080
2020/01/31 19:40:20.2	3.750	0.220	-0.370	0.040
2020/01/31 19:40:20.3	3.750	0.210	-0.410	0.010
2020/01/31 19:40:20.4	3.750	0.190	-0.440	-0.020
2020/01/31 19:40:20.5	3.750	0.170	-0.470	-0.050
2020/01/31 19:40:20.6	3.760	0.150	-0.500	-0.080
2020/01/31 19:40:20.7	3.760	0.130	-0.520	-0.110
2020/01/31 19:40:20.8	3.760	0.110	-0.530	-0.140
2020/01/31 19:40:20.9	3.760	0.080	-0.540	-0.160
2020/01/31 19:40:21.0	3.760	0.050	-0.550	-0.180
2020/01/31 19:40:21.1	3.760	0.020	-0.550	-0.200
2020/01/31 19:40:21.2	3.760	-0.010	-0.550	-0.220
2020/01/31 19:40:21.3	3.760	-0.050	-0.550	-0.240
2020/01/31 19:40:21.4	3.760	-0.080	-0.540	-0.260
2020/01/31 19:40:21.5	3.760	-0.110	-0.530	-0.270
2020/01/31 19:40:21.6	3.760	-0.140	-0.520	-0.280
2020/01/31 19:40:21.7	3.760	-0.180	-0.510	-0.290
2020/01/31 19:40:21.8	3.770	-0.200	-0.500	-0.300
2020/01/31 19:40:21.9	3.800	-0.230	-0.500	-0.310
2020/01/31 19:40:22.0	3.800	-0.260	-0.490	-0.320
2020/01/31 19:40:22.1	3.810	-0.280	-0.480	-0.330
2020/01/31 19:40:22.2	3.820	-0.300	-0.480	-0.340
2020/01/31 19:40:22.3	3.830	-0.310	-0.470	-0.350
2020/01/31 19:40:22.4	3.840	-0.330	-0.470	-0.350
2020/01/31 19:40:22.5	3.850	-0.340	-0.470	-0.360
2020/01/31 19:40:22.6	3.870	-0.340	-0.480	-0.370
2020/01/31 19:40:22.7	3.880	-0.340	-0.490	-0.380
2020/01/31 19:40:22.8	3.900	-0.340	-0.490	-0.390
2020/01/31 19:40:22.9	3.920	-0.330	-0.510	-0.400
2020/01/31 19:40:23.0	3.930	-0.320	-0.520	-0.410
2020/01/31 19:40:23.1	3.950	-0.310	-0.540	-0.420
2020/01/31 19:40:23.2	3.970	-0.290	-0.560	-0.440
2020/01/31 19:40:23.3	3.980	-0.270	-0.570	-0.450
2020/01/31 19:40:23.4	4.000	-0.240	-0.590	-0.460
2020/01/31 19:40:23.5	4.010	-0.210	-0.610	-0.470
2020/01/31 19:40:23.6	4.030	-0.180	-0.640	-0.480
2020/01/31 19:40:23.7	4.040	-0.150	-0.660	-0.490
2020/01/31 19:40:23.8	4.050	-0.110	-0.680	-0.500
2020/01/31 19:40:23.9	4.070	-0.080	-0.700	-0.510
2020/01/31 19:40:24.0	4.080	-0.040	-0.710	-0.510
2020/01/31 19:40:24.1	4.090	-0.000	-0.730	-0.510
2020/01/31 19:40:24.2	4.100	0.040	-0.740	-0.510
2020/01/31 19:40:24.3	4.110	0.080	-0.760	-0.510
2020/01/31 19:40:24.4	4.110	0.120	-0.770	-0.500
2020/01/31 19:40:24.5	4.120	0.150	-0.770	-0.490
2020/01/31 19:40:24.6	4.120	0.190	-0.780	-0.470
2020/01/31 19:40:24.7	4.120	0.230	-0.780	-0.450
2020/01/31 19:40:24.8	4.130	0.260	-0.780	-0.430
2020/01/31 19:40:24.9	4.130	0.290	-0.770	-0.410
2020/01/31 19:40:25.0	4.130	0.320	-0.760	-0.380
2020/01/31 19:40:25.1	4.130	0.350	-0.750	-0.360
2020/01/31 19:40:25.2	4.130	0.370	-0.730	-0.330
2020/01/31 19:40:25.3	4.130	0.390	-0.710	-0.300
2020/01/31 19:40:25.4	4.130	0.410	-0.690	-0.270
2020/01/31 19:40:25.5	4.130	0.430	-0.670	-0.240
2020/01/31 19:40:25.6	4.130	0.440	-0.640	-0.210
2020/01/31 19:40:25.7	4.130	0.450	-0.610	-0.170
2020/01/31 19:40:25.8	4.140	0.450	-0.570	-0.140
2020/01/31 19:40:25.9	4.140	0.450	-0.540	-0.120
2020/01/31 19:40:26.0	4.140	0.450	-0.500	-0.090
2020/01/31 19:40:26.1	4.140	0.440	-0.460	-0.060
2020/01/31 19:40:26.2	4.150	0.440	-0.420	-0.040
2020/01/31 19:40:26.3	4.160	0.430	-0.380	-0.010
2020/01/31 19:40:26.4	4.160	0.410	-0.340	0.010
2020/01/31 19:40:26.5	4.170	0.400	-0.290	0.030
2020/01/31 19:40:26.6	4.180	0.380	-0.250	0.050
2020/01/31 19:40:26.7	4.190	0.360	-0.210	0.070
2020/01/31 19:40:26.8	4.190	0.340	-0.160	0.090
2020/01/31 19:40:26.9	4.200	0.320	-0.120	0.110
2020/01/31 19:40:27.0	4.210	0.290	-0.070	0.120
2020/01/31 19:40:27.1	4.210	0.260	-0.030	0.140
2020/01/31 19:40:27.2	4.210	0.240	0.020	0.160
2020/01/31 19:40:27.3	4.210	0.210	0.060	0.180
2020/01/31 19:40:27.4	4.210	0.170	0.110	0.200
2020/01/31 19:40:27.5	4.200	0.140	0.150	0.220
2020/01/31 19:40:27.6	4.190	0.110	0.200	0.240
2020/01/31 19:40:27.7	4.180	0.070	0.250	0.260
2020/01/31 19:40:27.8	4.160	0.040	0.300	0.280
2020/01/31 19:40:27.9	4.140	-0.000	0.340	0.310
2020/01/31 19:40:28.0	4.110	-0.040	0.390	0.330
2020/01/31 19:40:28.1	4.090	-0.080	0.440	0.350
2020/01/31 19:40:28.2	4.060	-0.120	0.480	0.370
2020/01/31 19:40:28.3	4.020	-0.160	0.530	0.390
2020/01/31 19:40:28.4	3.990	-0.210	0.570	0.410
2020/01/31 19:40:28.5	3.950	-0.250	0.610	0.430
2020/01/31 19:40:28.6	3.900	-0.290	0.650	0.450
2020/01/31 19:40:28.7	3.860	-0.340	0.680	0.460
2020/01/31 19:40:28.8	3.810	-0.380	0.710	0.470
2020/01/31 19:40:28.9	3.770	-0.430	0.740	0.470
2020/01/31 19:40:29.0	3.720	-0.470	0.760	0.480
2020/01/31 19:40:29.1	3.670	-0.510	0.770	0.480
2020/01/31 19:40:29.2	3.620	-0.550	0.780	0.470
2020/01/31 19:40:29.3	3.580	-0.580	0.790	0.470
2020/01/31 19:40:29.4	3.530	-0.620	0.780	0.450
2020/01/31 19:40:29.5	3.480	-0.650	0.770	0.440
2020/01/31 19:40:29.6	3.440	-0.680	0.750	0.420
2020/01/31 19:40:29.7	3.390	-0.700	0.730	0.390
2020/01/31 19:40:29.8	3.360	-0.720	0.690	0.360
2020/01/31 19:40:29.9	3.330	-0.740	0.650	0.330
2020/01/31 19:40:30.0	3.300	-0.750	0.600	0.290
2020/01/31 19:40:30.1	3.270	-0.760	0.540	0.250
2020/01/31 19:40:30.2	3.250	-0.760	0.480	0.200
2020/01/31 19:40:30.3	3.230	-0.750	0.400	0.150
2020/01/31 19:40:30.4	3.220	-0.740	0.320	0.100
2020/01/31 19:40:30.5	3.220	-0.720	0.230	0.050
2020/01/31 19:40:30.6	3.220	-0.700	0.140	-0.010
2020/01/31 19:40:30.7	3.230	-0.660	0.040	-0.070
2020/01/31 19:40:30.8	3.240	-0.630	-0.070	-0.130
2020/01/31 19:40:30.9	3.270	-0.580	-0.180	-0.200
2020/01/31 19:40:31.0	3.290	-0.530	-0.290	-0.270
2020/01/31 19:40:31.1	3.320	-0.480	-0.400	-0.330
2020/01/31 19:40:31.2	3.350	-0.420	-0.510	-0.390
2020/01/31 19:40:31.3	3.380	-0.350	-0.630	-0.440
2020/01/31 19:40:31.4	3.410	-0.280	-0.740	-0.500
2020/01/31 19:40:31.5	3.450	-0.210	-0.840	-0.550
2020/01/31 19:40:31.6	3.490	-0.140	-0.940	-0.600
2020/01/31 19:40:31.7	3.520	-0.060	-1.040	-0.640
2020/01/31 19:40:31.8	3.560	0.020	-1.120	-0.680
2020/01/31 19:40:31.9	3.590	0.100	-1.200	-0.720
2020/01/31 19:40:32.0	3.630	0.180	-1.270	-0.750
2020/01/31 19:40:32.1	3.660	0.260	-1.330	-0.780
2020/01/31 19:40:32.2	3.700	0.340	-1.370	-0.800
2020/01/31 19:40:32.3	3.730	0.410	-1.410	-0.810
2020/01/31 19:40:32.4	3.750	0.480	-1.430	-0.820
2020/01/31 19:40:32.5	3.780	0.550	-1.440	-0.830
2020/01/31 19:40:32.6	3.800	0.620	-1.440	-0.830
2020/01/31 19:40:32.7	3.820	0.680	-1.420	-0.820
2020/01/31 19:40:32.8	3.830	0.730	-1.400	-0.810
2020/01/31 19:40:32.9	3.850	0.780	-1.370	-0.790
2020/01/31 19:40:33.0	3.860	0.830	-1.320	-0.770
2020/01/31 19:40:33.1	3.860	0.860	-1.260	-0.740
2020/01/31 19:40:33.2	3.870	0.890	-1.190	-0.710
2020/01/31 19:40:33.3	3.870	0.920	-1.120	-0.670
2020/01/31 19:40:33.4	3.860	0.930	-1.040	-0.630
2020/01/31 19:40:33.5	3.860	0.940	-0.950	-0.590
2020/01/31 19:40:33.6	3.850	0.940	-0.850	-0.540
2020/01/31 19:40:33.7	3.830	0.930	-0.760	-0.500
2020/01/31 19:40:33.8	3.820	0.920	-0.660	-0.450
2020/01/31 19:40:33.9	3.810	0.900	-0.560	-0.390
2020/01/31 19:40:34.0	3.790	0.870	-0.460	-0.340
2020/01/31 19:40:34.1	3.770	0.840	-0.350	-0.290
2020/01/31 19:40:34.2	3.750	0.800	-0.260	-0.230
2020/01/31 19:40:34.3	3.730	0.760	-0.160	-0.180
2020/01/31 19:40:34.4	3.700	0.710	-0.070	-0.130
2020/01/31 19:40:34.5	3.680	0.660	0.010	-0.080
2020/01/31 19:40:34.6	3.650	0.600	0.090	-0.030
2020/01/31 19:40:34.7	3.630	0.540	0.170	0.020
2020/01/31 19:40:34.8	3.600	0.480	0.230	0.070
2020/01/31 19:40:34.9	3.570	0.410	0.290	0.110
2020/01/31 19:40:35.0	3.540	0.350	0.340	0.150
2020/01/31 19:40:35.1	3.520	0.280	0.390	0.190
2020/01/31 19:40:35.2	3.490	0.220	0.420	0.220
2020/01/31 19:40:35.3	3.460	0.150	0.450	0.250
2020/01/31 19:40:35.4	3.430	0.080	0.470	0.270
2020/01/31 19:40:35.5	3.400	0.020	0.480	0.290
2020/01/31 19:40:35.6	3.370	-0.050	0.490	0.300
2020/01/31 19:40:35.7	3.340	-0.110	0.480	0.300
2020/01/31 19:40:35.8	3.310	-0.170	0.470	0.300
2020/01/31 19:40:35.9	3.300	-0.230	0.450	0.290
2020/01/31 19:40:36.0	3.270	-0.280	0.430	0.280
2020/01/31 19:40:36.1	3.240	-0.330	0.400	0.260
2020/01/31 19:40:36.2	3.220	-0.380	0.360	0.240
2020/01/31 19:40:36.3	3.200	-0.420	0.320	0.210
2020/01/31 19:40:36.4	3.180	-0.470	0.270	0.180
2020/01/31 19:40:36.5	3.160	-0.500	0.220	0.140
2020/01/31 19:40:36.6	3.150	-0.540	0.170	0.100
2020/01/31 19:40:36.7	3.130	-0.570	0.110	0.060
2020/01/31 19:40:36.8	3.120	-0.590	0.050	0.020
2020/01/31 19:40:36.9	3.100	-0.620	-0.010	-0.030
2020/01/31 19:40:37.0	3.090	-0.640	-0.070	-0.080
2020/01/31 19:40:37.1	3.080	-0.650	-0.130	-0.120
2020/01/31 19:40:37.2	3.080	-0.660	-0.190	-0.170
2020/01/31 19:40:37.3	3.080	-0.670	-0.250	-0.220
2020/01/31 19:40:37.4	3.080	-0.670	-0.300	-0.260
2020/01/31 19:40:37.5	3.080	-0.680	-0.360	-0.310
2020/01/31 19:40:37.6	3.090	-0.670	-0.410	-0.350
2020/01/31 19:40:37.7	3.100	-0.670	-0.460	-0.400
2020/01/31 19:40:37.8	3.120	-0.660	-0.500	-0.440
2020/01/31 19:40:37.9	3.140	-0.650	-0.540	-0.480
2020/01/31 19:40:38.0	3.160	-0.640	-0.580	-0.520
2020/01/31 19:40:38.1	3.180	-0.630	-0.620	-0.560
2020/01/31 19:40:38.2	3.200	-0.610	-0.650	-0.600
2020/01/31 19:40:38.3	3.230	-0.590	-0.680	-0.640
2020/01/31 19:40:38.4	3.260	-0.570	-0.700	-0.670
2020/01/31 19:40:38.5	3.290	-0.550	-0.720	-0.710
2020/01/31 19:40:38.6	3.320	-0.520	-0.740	-0.740
2020/01/31 19:40:38.7	3.360	-0.490	-0.750	-0.770
2020/01/31 19:40:38.8	3.390	-0.460	-0.760	-0.790
2020/01/31 19:40:38.9	3.440	-0.440	-0.770	-0.820
2020/01/31 19:40:39.0	3.480	-0.400	-0.780	-0.840
2020/01/31 19:40:39.1	3.510	-0.370	-0.770	-0.850
2020/01/31 19:40:39.2	3.550	-0.340	-0.770	-0.860
2020/01/31 19:40:39.3	3.580	-0.310	-0.760	-0.860
2020/01/31 19:40:39.4	3.610	-0.270	-0.750	-0.850
2020/01/31 19:40:39.5	3.630	-0.240	-0.730	-0.840
2020/01/31 19:40:39.6	3.660	-0.200	-0.700	-0.820
2020/01/31 19:40:39.7	3.680	-0.170	-0.670	-0.800
2020/01/31 19:40:39.8	3.690	-0.140	-0.640	-0.770
2020/01/31 19:40:39.9	3.700	-0.110	-0.600	-0.730
2020/01/31 19:40:40.0	3.700	-0.080	-0.560	-0.680
2020/01/31 19:40:40.1	3.710	-0.040	-0.510	-0.630
2020/01/31 19:40:40.2	3.700	-0.010	-0.460	-0.580
2020/01/31 19:40:40.3	3.700	0.010	-0.410	-0.520
2020/01/31 19:40:40.4	3.690	0.040	-0.360	-0.460
2020/01/31 19:40:40.5	3.680	0.070	-0.300	-0.390
2020/01/31 19:40:40.6	3.660	0.100	-0.240	-0.320
2020/01/31 19:40:40.7	3.640	0.120	-0.180	-0.250
2020/01/31 19:40:40.8	3.610	0.150	-0.130	-0.180
2020/01/31 19:40:40.9	3.590	0.170	-0.070	-0.110
2020/01/31 19:40:41.0	3.570	0.200	-0.010	-0.030
2020/01/31 19:40:41.1	3.540	0.220	0.040	0.040
2020/01/31 19:40:41.2	3.510	0.240	0.090	0.110
2020/01/31 19:40:41.3	3.470	0.270	0.140	0.180
2020/01/31 19:40:41.4	3.440	0.290	0.180	0.240
2020/01/31 19:40:41.5	3.410	0.310	0.220	0.300
2020/01/31 19:40:41.6	3.380	0.330	0.250	0.360
2020/01/31 19:40:41.7	3.350	0.340	0.280	0.420
2020/01/31 19:40:41.8	3.310	0.360	0.300	0.470
2020/01/31 19:40:41.9	3.270	0.380	0.320	0.520
2020/01/31 19:40:42.0	3.240	0.400	0.330	0.560
2020/01/31 19:40:42.1	3.210	0.410	0.330	0.600
2020/01/31 19:40:42.2	3.180	0.430	0.330	0.640
2020/01/31 19:40:42.3	3.150	0.440	0.320	0.670
2020/01/31 19:40:42.4	3.120	0.450	0.300	0.690
2020/01/31 19:40:42.5	3.090	0.460	0.290	0.710
2020/01/31 19:40:42.6	3.070	0.470	0.260	0.720
2020/01/31 19:40:42.7	3.040	0.470	0.240	0.730
2020/01/31 19:40:42.8	3.010	0.480	0.200	0.730
2020/01/31 19:40:42.9	2.980	0.480	0.170	0.730
2020/01/31 19:40:43.0	2.960	0.480	0.140	0.720
2020/01/31 19:40:43.1	2.940	0.470	0.100	0.700
2020/01/31 19:40:43.2	2.920	0.470	0.060	0.680
2020/01/31 19:40:43.3	2.900	0.460	0.020	0.660
2020/01/31 19:40:43.4	2.880	0.440	-0.020	0.620
2020/01/31 19:40:43.5	2.860	0.430	-0.060	0.590
2020/01/31 19:40:43.6	2.850	0.410	-0.100	0.550
2020/01/31 19:40:43.7	2.830	0.390	-0.140	0.500
2020/01/31 19:40:43.8	2.820	0.370	-0.180	0.460
2020/01/31 19:40:43.9	2.810	0.340	-0.210	0.400
2020/01/31 19:40:44.0	2.810	0.310	-0.250	0.350
2020/01/31 19:40:44.1	2.800	0.280	-0.280	0.290
2020/01/31 19:40:44.2	2.800	0.250	-0.310	0.230
2020/01/31 19:40:44.3	2.800	0.210	-0.340	0.170
2020/01/31 19:40:44.4	2.800	0.170	-0.360	0.110
2020/01/31 19:40:44.5	2.810	0.140	-0.390	0.050
2020/01/31 19:40:44.6	2.820	0.100	-0.410	-0.020
2020/01/31 19:40:44.7	2.830	0.060	-0.430	-0.080
2020/01/31 19:40:44.8	2.840	0.020	-0.450	-0.150
2020/01/31 19:40:44.9	2.860	-0.020	-0.460	-0.220
2020/01/31 19:40:45.0	2.880	-0.050	-0.480	-0.290
2020/01/31 19:40:45.1	2.900	-0.090	-0.490	-0.350
2020/01/31 19:40:45.2	2.930	-0.130	-0.500	-0.420
2020/01/31 19:40:45.3	2.950	-0.160	-0.510	-0.480
2020/01/31 19:40:45.4	2.980	-0.190	-0.520	-0.540
2020/01/31 19:40:45.5	3.010	-0.220	-0.530	-0.600
2020/01/31 19:40:45.6	3.040	-0.250	-0.530	-0.650
2020/01/31 19:40:45.7	3.060	-0.280	-0.540	-0.700
2020/01/31 19:40:45.8	3.090	-0.300	-0.540	-0.750
2020/01/31 19:40:45.9	3.130	-0.320	-0.540	-0.790
2020/01/31 19:40:46.0	3.160	-0.340	-0.540	-0.830
2020/01/31 19:40:46.1	3.180	-0.350	-0.530	-0.870
2020/01/31 19:40:46.2	3.210	-0.370	-0.530	-0.900
2020/01/31 19:40:46.3	3.230	-0.380	-0.520	-0.920
2020/01/31 19:40:46.4	3.250	-0.380	-0.510	-0.940
2020/01/31 19:40:46.5	3.270	-0.380	-0.500	-0.950
2020/01/31 19:40:46.6	3.290	-0.380	-0.480	-0.960
2020/01/31 19:40:46.7	3.310	-0.380	-0.470	-0.960
2020/01/31 19:40:46.8	3.320	-0.370	-0.460	-0.960
2020/01/31 19:40:46.9	3.330	-0.360	-0.440	-0.960
2020/01/31 19:40:47.0	3.340	-0.350	-0.430	-0.940
2020/01/31 19:40:47.1	3.360	-0.340	-0.410	-0.930
2020/01/31 19:40:47.2	3.370	-0.320	-0.400	-0.910
2020/01/31 19:40:47.3	3.380	-0.300	-0.380	-0.890
2020/01/31 19:40:47.4	3.380	-0.280	-0.370	-0.870
2020/01/31 19:40:47.5	3.390	-0.250	-0.350	-0.840
2020/01/31 19:40:47.6	3.400	-0.220	-0.340	-0.810
2020/01/31 19:40:47.7	3.400	-0.200	-0.330	-0.780
2020/01/31 19:40:47.8	3.410	-0.170	-0.320	-0.750
2020/01/31 19:40:47.9	3.400	-0.140	-0.310	-0.720
2020/01/31 19:40:48.0	3.410	-0.110	-0.300	-0.680
2020/01/31 19:40:48.1	3.410	-0.080	-0.300	-0.640
2020/01/31 19:40:48.2	3.410	-0.050	-0.290	-0.600
2020/01/31 19:40:48.3	3.410	-0.010	-0.290	-0.570
2020/01/31 19:40:48.4	3.410	0.020	-0.290	-0.530
2020/01/31 19:40:48.5	3.400	0.050	-0.290	-0.490
2020/01/31 19:40:48.6	3.400	0.080	-0.290	-0.450
2020/01/31 19:40:48.7	3.400	0.110	-0.300	-0.410
2020/01/31 19:40:48.8	3.390	0.130	-0.310	-0.370
2020/01/31 19:40:48.9	3.390	0.160	-0.320	-0.330
2020/01/31 19:40:49.0	3.380	0.180	-0.330	-0.300
2020/01/31 19:40:49.1	3.380	0.200	-0.340	-0.260
2020/01/31 19:40:49.2	3.370	0.220	-0.350	-0.230
2020/01/31 19:40:49.3	3.360	0.240	-0.360	-0.200
2020/01/31 19:40:49.4	3.360	0.260	-0.370	-0.170
2020/01/31 19:40:49.5	3.350	0.270	-0.380	-0.150
2020/01/31 19:40:49.6	3.340	0.280	-0.390	-0.120
2020/01/31 19:40:49.7	3.330	0.280	-0.410	-0.100
2020/01/31 19:40:49.8	3.320	0.290	-0.410	-0.080
2020/01/31 19:40:49.9	3.320	0.290	-0.420	-0.060
2020/01/31 19:40:50.0	3.310	0.290	-0.430	-0.050
2020/01/31 19:40:50.1	3.300	0.280	-0.430	-0.030
2020/01/31 19:40:50.2	3.290	0.280	-0.430	-0.020
2020/01/31 19:40:50.3	3.270	0.270	-0.430	-0.000
2020/01/31 19:40:50.4	3.260	0.260	-0.430	0.010
2020/01/31 19:40:50.5	3.240	0.240	-0.420	0.020
2020/01/31 19:40:50.6	3.230	0.230	-0.410	0.030
2020/01/31 19:40:50.7	3.210	0.210	-0.390	0.030
2020/01/31 19:40:50.8	3.190	0.190	-0.380	0.040
2020/01/31 19:40:50.9	3.160	0.160	-0.360	0.040
2020/01/31 19:40:51.0	3.140	0.140	-0.340	0.040
2020/01/31 19:40:51.1	3.130	0.110	-0.310	0.030
2020/01/31 19:40:51.2	3.110	0.090	-0.280	0.030
2020/01/31 19:40:51.3	3.090	0.060	-0.250	0.020
2020/01/31 19:40:51.4	3.070	0.030	-0.220	0.010
2020/01/31 19:40:51.5	3.060	0.010	-0.180	-0.000
2020/01/31 19:40:51.6	3.040	-0.020	-0.140	-0.010
2020/01/31 19:40:51.7	3.020	-0.050	-0.100	-0.030
2020/01/31 19:40:51.8	3.010	-0.080	-0.060	-0.040
2020/01/31 19:40:51.9	2.980	-0.110	-0.030	-0.060
2020/01/31 19:40:52.0	2.970	-0.130	0.020	-0.070
2020/01/31 19:40:52.1	2.950	-0.150	0.060	-0.080
2020/01/31 19:40:52.2	2.940	-0.180	0.100	-0.090
2020/01/31 19:40:52.3	2.930	-0.200	0.140	-0.100
2020/01/31 19:40:52.4	2.920	-0.220	0.180	-0.110
2020/01/31 19:40:52.5	2.900	-0.230	0.210	-0.110
2020/01/31 19:40:52.6	2.890	-0.240	0.250	-0.120
2020/01/31 19:40:52.7	2.880	-0.250	0.280	-0.120
2020/01/31 19:40:52.8	2.870	-0.260	0.300	-0.120
2020/01/31 19:40:52.9	2.870	-0.260	0.330	-0.110
2020/01/31 19:40:53.0	2.860	-0.260	0.350	-0.110
2020/01/31 19:40:53.1	2.850	-0.260	0.360	-0.100
2020/01/31 19:40:53.2	2.850	-0.250	0.370	-0.090
2020/01/31 19:40:53.3	2.840	-0.250	0.370	-0.070
2020/01/31 19:40:53.4	2.830	-0.230	0.370	-0.060
2020/01/31 19:40:53.5	2.830	-0.220	0.360	-0.050
2020/01/31 19:40:53.6	2.830	-0.200	0.340	-0.030
2020/01/31 19:40:53.7	2.830	-0.170	0.320	-0.020
2020/01/31 19:40:53.8	2.830	-0.150	0.300	-0.010
2020/01/31 19:40:53.9	2.830	-0.120	0.260	0.010
2020/01/31 19:40:54.0	2.840	-0.090	0.220	0.020
2020/01/31 19:40:54.1	2.840	-0.060	0.180	0.030
2020/01/31 19:40:54.2	2.850	-0.020	0.130	0.030
2020/01/31 19:40:54.3	2.870	0.010	0.070	0.030
2020/01/31 19:40:54.4	2.880	0.050	0.020	0.030
2020/01/31 19:40:54.5	2.890	0.090	-0.040	0.030
2020/01/31 19:40:54.6	2.910	0.120	-0.100	0.030
2020/01/31 19:40:54.7	2.920	0.160	-0.170	0.020
2020/01/31 19:40:54.8	2.940	0.200	-0.230	0.010
2020/01/31 19:40:54.9	2.950	0.230	-0.290	-0.010
2020/01/31 19:40:55.0	2.970	0.270	-0.350	-0.020
2020/01/31 19:40:55.1	2.990	0.300	-0.410	-0.040
2020/01/31 19:40:55.2	3.010	0.330	-0.470	-0.060
2020/01/31 19:40:55.3	3.020	0.360	-0.520	-0.070
2020/01/31 19:40:55.4	3.040	0.380	-0.570	-0.090
2020/01/31 19:40:55.5	3.050	0.410	-0.610	-0.100
2020/01/31 19:40:55.6	3.060	0.420	-0.650	-0.110
2020/01/31 19:40:55.7	3.070	0.440	-0.680	-0.130
2020/01/31 19:40:55.8	3.070	0.450	-0.700	-0.130
2020/01/31 19:40:55.9	3.070	0.450	-0.720	-0.140
2020/01/31 19:40:56.0	3.070	0.450	-0.730	-0.140
2020/01/31 19:40:56.1	3.060	0.450	-0.740	-0.140
2020/01/31 19:40:56.2	3.050	0.440	-0.730	-0.140
2020/01/31 19:40:56.3	3.040	0.420	-0.720	-0.140
2020/01/31 19:40:56.4	3.030	0.410	-0.700	-0.130
2020/01/31 19:40:56.5	3.010	0.380	-0.680	-0.120
2020/01/31 19:40:56.6	2.990	0.360	-0.650	-0.100
2020/01/31 19:40:56.7	2.970	0.330	-0.620	-0.090
2020/01/31 19:40:56.8	2.950	0.290	-0.570	-0.070
2020/01/31 19:40:56.9	2.920	0.250	-0.530	-0.050
2020/01/31 19:40:57.0	2.890	0.210	-0.480	-0.030
2020/01/31 19:40:57.1	2.860	0.170	-0.430	-0.010
2020/01/31 19:40:57.2	2.830	0.120	-0.380	0.010
2020/01/31 19:40:57.3	2.800	0.070	-0.320	0.020
2020/01/31 19:40:57.4	2.770	0.020	-0.270	0.040
2020/01/31 19:40:57.5	2.740	-0.030	-0.210	0.060
2020/01/31 19:40:57.6	2.710	-0.080	-0.160	0.070
2020/01/31 19:40:57.7	2.680	-0.130	-0.110	0.080
2020/01/31 19:40:57.8	2.640	-0.180	-0.060	0.090
2020/01/31 19:40:57.9	2.620	-0.230	-0.010	0.100
2020/01/31 19:40:58.0	2.590	-0.270	0.030	0.100
2020/01/31 19:40:58.1	2.570	-0.320	0.070	0.100
2020/01/31 19:40:58.2	2.540	-0.360	0.100	0.100
2020/01/31 19:40:58.3	2.510	-0.400	0.130	0.100
2020/01/31 19:40:58.4	2.490	-0.430	0.150	0.090
2020/01/31 19:40:58.5	2.460	-0.470	0.170	0.080
2020/01/31 19:40:58.6	2.440	-0.490	0.180	0.080
2020/01/31 19:40:58.7	2.420	-0.510	0.180	0.070
2020/01/31 19:40:58.8	2.410	-0.530	0.180	0.050
2020/01/31 19:40:58.9	2.400	-0.540	0.170	0.040
2020/01/31 19:40:59.0	2.390	-0.550	0.150	0.030
2020/01/31 19:40:59.1	2.380	-0.550	0.130	0.010
2020/01/31 19:40:59.2	2.370	-0.550	0.100	-0.000
2020/01/31 19:40:59.3	2.370	-0.540	0.060	-0.020
2020/01/31 19:40:59.4	2.370	-0.530	0.020	-0.040
2020/01/31 19:40:59.5	2.380	-0.510	-0.030	-0.070
2020/01/31 19:40:59.6	2.380	-0.490	-0.080	-0.090
2020/01/31 19:40:59.7	2.400	-0.460	-0.140	-0.120
2020/01/31 19:40:59.8	2.420	-0.430	-0.200	-0.150
2020/01/31 19:40:59.9	2.450	-0.390	-0.260	-0.180
2020/01/31 19:41:00.0	2.470	-0.350	-0.330	-0.210
2020/01/31 19:41:00.1	2.500	-0.310	-0.390	-0.250
2020/01/31 19:41:00.2	2.540	-0.270	-0.460	-0.290
2020/01/31 19:41:00.3	2.570	-0.220	-0.530	-0.330
2020/01/31 19:41:00.4	2.610	-0.180	-0.600	-0.370
2020/01/31 19:41:00.5	2.660	-0.130	-0.660	-0.410
2020/01/31 19:41:00.6	2.700	-0.080	-0.730	-0.450
2020/01/31 19:41:00.7	2.750	-0.040	-0.790	-0.490
2020/01/31 19:41:00.8	2.800	0.010	-0.840	-0.530
2020/01/31 19:41:00.9	2.850	0.050	-0.890	-0.580
2020/01/31 19:41:01.0	2.900	0.100	-0.930	-0.610
2020/01/31 19:41:01.1	2.950	0.130	-0.970	-0.650
2020/01/31 19:41:01.2	3.000	0.170	-1.000	-0.680
2020/01/31 19:41:01.3	3.050	0.200	-1.020	-0.710
2020/01/31 19:41:01.4	3.100	0.230	-1.040	-0.730
2020/01/31 19:41:01.5	3.140	0.260	-1.050	-0.750
2020/01/31 19:41:01.6	3.190	0.280	-1.040	-0.770
2020/01/31 19:41:01.7	3.230	0.300	-1.030	-0.780
2020/01/31 19:41:01.8	3.260	0.310	-1.020	-0.790
2020/01/31 19:41:01.9	3.320	0.320	-0.990	-0.790
2020/01/31 19:41:02.0	3.340	0.330	-0.960	-0.780
2020/01/31 19:41:02.1	3.370	0.330	-0.920	-0.770
2020/01/31 19:41:02.2	3.390	0.330	-0.870	-0.750
2020/01/31 19:41:02.3	3.400	0.320	-0.810	-0.730
2020/01/31 19:41:02.4	3.400	0.310	-0.750	-0.700
2020/01/31 19:41:02.5	3.400	0.300	-0.680	-0.670
2020/01/31 19:41:02.6	3.400	0.280	-0.610	-0.630
2020/01/31 19:41:02.7	3.390	0.260	-0.540	-0.590
2020/01/31 19:41:02.8	3.370	0.240	-0.460	-0.540
2020/01/31 19:41:02.9	3.340	0.210	-0.380	-0.500
2020/01/31 19:41:03.0	3.310	0.190	-0.290	-0.450
2020/01/31 19:41:03.1	3.280	0.160	-0.210	-0.400
2020/01/31 19:41:03.2	3.250	0.130	-0.130	-0.340
2020/01/31 19:41:03.3	3.210	0.100	-0.050	-0.290
2020/01/31 19:41:03.4	3.170	0.070	0.030	-0.230
2020/01/31 19:41:03.5	3.120	0.040	0.110	-0.180
2020/01/31 19:41:03.6	3.070	0.010	0.180	-0.130
2020/01/31 19:41:03.7	3.020	-0.020	0.250	-0.070
2020/01/31 19:41:03.8	2.970	-0.040	0.310	-0.020
2020/01/31 19:41:03.9	2.920	-0.070	0.370	0.030
2020/01/31 19:41:04.0	2.870	-0.090	0.420	0.080
2020/01/31 19:41:04.1	2.820	-0.100	0.460	0.130
2020/01/31 19:41:04.2	2.760	-0.120	0.500	0.170
2020/01/31 19:41:04.3	2.710	-0.130	0.530	0.210
2020/01/31 19:41:04.4	2.650	-0.140	0.550	0.250
2020/01/31 19:41:04.5	2.600	-0.140	0.560	0.290
2020/01/31 19:41:04.6	2.550	-0.140	0.570	0.320
2020/01/31 19:41:04.7	2.490	-0.140	0.570	0.350
2020/01/31 19:41:04.8	2.440	-0.130	0.560	0.370
2020/01/31 19:41:04.9	2.390	-0.130	0.550	0.400
2020/01/31 19:41:05.0	2.340	-0.110	0.530	0.410
2020/01/31 19:41:05.1	2.290	-0.100	0.500	0.430
2020/01/31 19:41:05.2	2.240	-0.080	0.470	0.440
2020/01/31 19:41:05.3	2.190	-0.060	0.440	0.440
2020/01/31 19:41:05.4	2.140	-0.040	0.400	0.450
2020/01/31 19:41:05.5	2.100	-0.020	0.360	0.440
2020/01/31 19:41:05.6	2.060	0.000	0.310	0.440
2020/01/31 19:41:05.7	2.020	0.030	0.270	0.430
2020/01/31 19:41:05.8	1.980	0.050	0.220	0.420
2020/01/31 19:41:05.9	1.960	0.080	0.170	0.400
2020/01/31 19:41:06.0	1.930	0.100	0.120	0.380
2020/01/31 19:41:06.1	1.910	0.130	0.070	0.360
2020/01/31 19:41:06.2	1.880	0.150	0.010	0.330
2020/01/31 19:41:06.3	1.860	0.170	-0.040	0.310
2020/01/31 19:41:06.4	1.850	0.200	-0.090	0.280
2020/01/31 19:41:06.5	1.840	0.220	-0.140	0.250
2020/01/31 19:41:06.6	1.830	0.230	-0.180	0.220
2020/01/31 19:41:06.7	1.830	0.250	-0.230	0.180
2020/01/31 19:41:06.8	1.830	0.270	-0.280	0.150
2020/01/31 19:41:06.9	1.830	0.280	-0.320	0.110
2020/01/31 19:41:07.0	1.840	0.290	-0.370	0.070
2020/01/31 19:41:07.1	1.860	0.300	-0.410	0.040
2020/01/31 19:41:07.2	1.880	0.310	-0.450	-0.000
2020/01/31 19:41:07.3	1.910	0.320	-0.480	-0.040
2020/01/31 19:41:07.4	1.940	0.320	-0.520	-0.080
2020/01/31 19:41:07.5	1.970	0.330	-0.550	-0.120
2020/01/31 19:41:07.6	2.010	0.330	-0.580	-0.160
2020/01/31 19:41:07.7	2.050	0.320	-0.610	-0.200
2020/01/31 19:41:07.8	2.100	0.320	-0.640	-0.240
2020/01/31 19:41:07.9	2.160	0.310	-0.670	-0.280
2020/01/31 19:41:08.0	2.200	0.300	-0.690	-0.320
2020/01/31 19:41:08.1	2.260	0.290	-0.710	-0.360
2020/01/31 19:41:08.2	2.310	0.280	-0.730	-0.400
2020/01/31 19:41:08.3	2.360	0.260	-0.740	-0.440
2020/01/31 19:41:08.4	2.410	0.240	-0.750	-0.480
2020/01/31 19:41:08.5	2.460	0.220	-0.760	-0.520
2020/01/31 19:41:08.6	2.510	0.200	-0.770	-0.560
2020/01/31 19:41:08.7	2.560	0.180	-0.770	-0.600
2020/01/31 19:41:08.8	2.610	0.150	-0.770	-0.630
2020/01/31 19:41:08.9	2.650	0.120	-0.780	-0.670
2020/01/31 19:41:09.0	2.700	0.100	-0.770	-0.700
2020/01/31 19:41:09.1	2.740	0.070	-0.760	-0.730
2020/01/31 19:41:09.2	2.780	0.040	-0.750	-0.760
2020/01/31 19:41:09.3	2.820	0.010	-0.730	-0.780
2020/01/31 19:41:09.4	2.850	-0.020	-0.710	-0.810
2020/01/31 19:41:09.5	2.880	-0.050	-0.680	-0.820
2020/01/31 19:41:09.6	2.910	-0.080	-0.650	-0.840
2020/01/31 19:41:09.7	2.930	-0.110	-0.610	-0.850
2020/01/31 19:41:09.8	2.950	-0.140	-0.570	-0.850
2020/01/31 19:41:09.9	2.950	-0.170	-0.530	-0.850
2020/01/31 19:41:10.0	2.960	-0.200	-0.480	-0.840
2020/01/31 19:41:10.1	2.970	-0.230	-0.430	-0.830
2020/01/31 19:41:10.2	2.960	-0.250	-0.370	-0.810
2020/01/31 19:41:10.3	2.960	-0.280	-0.310	-0.790
2020/01/31 19:41:10.4	2.950	-0.310	-0.250	-0.760
2020/01/31 19:41:10.5	2.940	-0.330	-0.190	-0.730
2020/01/31 19:41:10.6	2.920	-0.350	-0.120	-0.690
2020/01/31 19:41:10.7	2.900	-0.380	-0.050	-0.650
2020/01/31 19:41:10.8	2.870	-0.400	0.010	-0.610
2020/01/31 19:41:10.9	2.840	-0.420	0.080	-0.560
2020/01/31 19:41:11.0	2.810	-0.440	0.140	-0.510
2020/01/31 19:41:11.1	2.770	-0.450	0.210	-0.460
2020/01/31 19:41:11.2	2.740	-0.470	0.270	-0.410
2020/01/31 19:41:11.3	2.700	-0.480	0.330	-0.360
2020/01/31 19:41:11.4	2.660	-0.490	0.380	-0.310
2020/01/31 19:41:11.5	2.620	-0.500	0.430	-0.270
2020/01/31 19:41:11.6	2.580	-0.510	0.480	-0.220
2020/01/31 19:41:11.7	2.540	-0.520	0.510	-0.170
2020/01/31 19:41:11.8	2.500	-0.520	0.550	-0.120
2020/01/31 19:41:11.9	2.450	-0.520	0.570	-0.070
2020/01/31 19:41:12.0	2.410	-0.520	0.590	-0.030
2020/01/31 19:41:12.1	2.360	-0.510	0.600	0.010
2020/01/31 19:41:12.2	2.320	-0.510	0.610	0.050
2020/01/31 19:41:12.3	2.280	-0.500	0.610	0.090
2020/01/31 19:41:12.4	2.230	-0.490	0.600	0.130
2020/01/31 19:41:12.5	2.190	-0.470	0.580	0.170
2020/01/31 19:41:12.6	2.150	-0.450	0.560	0.200
2020/01/31 19:41:12.7	2.110	-0.430	0.530	0.230
2020/01/31 19:41:12.8	2.070	-0.410	0.490	0.260
2020/01/31 19:41:12.9	2.030	-0.380	0.450	0.290
2020/01/31 19:41:13.0	1.990	-0.360	0.400	0.310
2020/01/31 19:41:13.1	1.950	-0.320	0.350	0.330
2020/01/31 19:41:13.2	1.920	-0.290	0.290	0.350
2020/01/31 19:41:13.3	1.890	-0.250	0.230	0.370
2020/01/31 19:41:13.4	1.850	-0.210	0.160	0.380
2020/01/31 19:41:13.5	1.830	-0.170	0.090	0.400
2020/01/31 19:41:13.6	1.800	-0.130	0.010	0.400
2020/01/31 19:41:13.7	1.780	-0.080	-0.060	0.410
2020/01/31 19:41:13.8	1.760	-0.040	-0.140	0.410
2020/01/31 19:41:13.9	1.730	0.010	-0.230	0.410
2020/01/31 19:41:14.0	1.720	0.060	-0.310	0.410
2020/01/31 19:41:14.1	1.710	0.110	-0.400	0.410
2020/01/31 19:41:14.2	1.710	0.160	-0.480	0.400
2020/01/31 19:41:14.3	1.710	0.220	-0.560	0.390
2020/01/31 19:41:14.4	1.710	0.270	-0.640	0.380
2020/01/31 19:41:14.5	1.720	0.320	-0.720	0.370
2020/01/31 19:41:14.6	1.730	0.370	-0.800	0.360
2020/01/31 19:41:14.7	1.750	0.420	-0.880	0.340
2020/01/31 19:41:14.8	1.760	0.470	-0.950	0.320
2020/01/31 19:41:14.9	1.800	0.520	-1.010	0.310
2020/01/31 19:41:15.0	1.830	0.560	-1.070	0.290
2020/01/31 19:41:15.1	1.850	0.600	-1.130	0.270
2020/01/31 19:41:15.2	1.880	0.640	-1.180	0.250
2020/01/31 19:41:15.3	1.920	0.680	-1.230	0.220
2020/01/31 19:41:15.4	1.950	0.710	-1.270	0.200
2020/01/31 19:41:15.5	1.990	0.730	-1.310	0.180
2020/01/31 19:41:15.6	2.020	0.750	-1.330	0.160
2020/01/31 19:41:15.7	2.060	0.770	-1.350	0.130
2020/01/31 19:41:15.8	2.100	0.770	-1.360	0.110
2020/01/31 19:41:15.9	2.130	0.780	-1.370	0.090
2020/01/31 19:41:16.0	2.170	0.770	-1.370	0.060
2020/01/31 19:41:16.1	2.210	0.770	-1.350	0.040
2020/01/31 19:41:16.2	2.250	0.750	-1.330	0.010
2020/01/31 19:41:16.3	2.280	0.730	-1.310	-0.010
2020/01/31 19:41:16.4	2.320	0.700	-1.280	-0.040
2020/01/31 19:41:16.5	2.350	0.670	-1.240	-0.060
2020/01/31 19:41:16.6	2.380	0.640	-1.190	-0.090
2020/01/31 19:41:16.7	2.410	0.590	-1.140	-0.120
2020/01/31 19:41:16.8	2.440	0.550	-1.090	-0.140
2020/01/31 19:41:16.9	2.460	0.500	-1.020	-0.170
2020/01/31 19:41:17.0	2.490	0.440	-0.960	-0.200
2020/01/31 19:41:17.1	2.510	0.380	-0.890	-0.230
2020/01/31 19:41:17.2	2.540	0.320	-0.820	-0.250
2020/01/31 19:41:17.3	2.560	0.260	-0.750	-0.280
2020/01/31 19:41:17.4	2.580	0.190	-0.680	-0.300
2020/01/31 19:41:17.5	2.590	0.120	-0.610	-0.330
2020/01/31 19:41:17.6	2.610	0.060	-0.540	-0.350
2020/01/31 19:41:17.7	2.620	-0.010	-0.460	-0.370
2020/01/31 19:41:17.8	2.640	-0.080	-0.390	-0.400
2020/01/31 19:41:17.9	2.650	-0.150	-0.320	-0.420
2020/01/31 19:41:18.0	2.660	-0.210	-0.250	-0.440
2020/01/31 19:41:18.1	2.670	-0.270	-0.180	-0.460
2020/01/31 19:41:18.2	2.680	-0.330	-0.110	-0.480
2020/01/31 19:41:18.3	2.690	-0.390	-0.050	-0.490
2020/01/31 19:41:18.4	2.700	-0.440	0.020	-0.510
2020/01/31 19:41:18.5	2.700	-0.490	0.080	-0.530
2020/01/31 19:41:18.6	2.710	-0.530	0.130	-0.540
2020/01/31 19:41:18.7	2.710	-0.570	0.180	-0.560
2020/01/31 19:41:18.8	2.720	-0.610	0.230	-0.580
2020/01/31 19:41:18.9	2.720	-0.630	0.280	-0.590
2020/01/31 19:41:19.0	2.720	-0.660	0.320	-0.600
2020/01/31 19:41:19.1	2.730	-0.670	0.350	-0.610
2020/01/31 19:41:19.2	2.730	-0.680	0.390	-0.620
2020/01/31 19:41:19.3	2.740	-0.690	0.410	-0.630
2020/01/31 19:41:19.4	2.740	-0.680	0.440	-0.640
2020/01/31 19:41:19.5	2.740	-0.680	0.460	-0.640
2020/01/31 19:41:19.6	2.740	-0.660	0.470	-0.640
2020/01/31 19:41:19.7	2.740	-0.640	0.490	-0.630
2020/01/31 19:41:19.8	2.740	-0.620	0.500	-0.630
2020/01/31 19:41:19.9	2.750	-0.590	0.500	-0.610
2020/01/31 19:41:20.0	2.740	-0.550	0.510	-0.600
2020/01/31 19:41:20.1	2.730	-0.510	0.510	-0.570
2020/01/31 19:41:20.2	2.720	-0.470	0.520	-0.540
2020/01/31 19:41:20.3	2.700	-0.430	0.520	-0.510
2020/01/31 19:41:20.4	2.680	-0.380	0.520	-0.470
2020/01/31 19:41:20.5	2.660	-0.330	0.520	-0.420
2020/01/31 19:41:20.6	2.630	-0.280	0.530	-0.370
2020/01/31 19:41:20.7	2.600	-0.220	0.530	-0.320
2020/01/31 19:41:20.8	2.570	-0.170	0.530	-0.260
2020/01/31 19:41:20.9	2.530	-0.120	0.530	-0.200
2020/01/31 19:41:21.0	2.490	-0.060	0.530	-0.130
2020/01/31 19:41:21.1	2.450	-0.010	0.530	-0.070
2020/01/31 19:41:21.2	2.410	0.040	0.530	0.000
2020/01/31 19:41:21.3	2.370	0.090	0.540	0.070
2020/01/31 19:41:21.4	2.320	0.130	0.540	0.140
2020/01/31 19:41:21.5	2.280	0.180	0.540	0.210
2020/01/31 19:41:21.6	2.230	0.220	0.530	0.280
2020/01/31 19:41:21.7	2.190	0.250	0.530	0.350
2020/01/31 19:41:21.8	2.150	0.290	0.520	0.410
2020/01/31 19:41:21.9	2.100	0.320	0.510	0.480
2020/01/31 19:41:22.0	2.050	0.340	0.500	0.540
2020/01/31 19:41:22.1	2.010	0.360	0.490	0.590
2020/01/31 19:41:22.2	1.970	0.380	0.470	0.650
2020/01/31 19:41:22.3	1.930	0.400	0.450	0.690
2020/01/31 19:41:22.4	1.890	0.400	0.420	0.740
2020/01/31 19:41:22.5	1.860	0.410	0.390	0.780
2020/01/31 19:41:22.6	1.820	0.410	0.360	0.810
2020/01/31 19:41:22.7	1.790	0.410	0.320	0.840
2020/01/31 19:41:22.8	1.760	0.400	0.280	0.860
2020/01/31 19:41:22.9	1.720	0.390	0.240	0.880
2020/01/31 19:41:23.0	1.690	0.370	0.190	0.890
2020/01/31 19:41:23.1	1.660	0.360	0.140	0.890
2020/01/31 19:41:23.2	1.640	0.330	0.090	0.890
2020/01/31 19:41:23.3	1.620	0.310	0.030	0.880
2020/01/31 19:41:23.4	1.590	0.280	-0.020	0.860
2020/01/31 19:41:23.5	1.570	0.250	-0.080	0.840
2020/01/31 19:41:23.6	1.560	0.220	-0.140	0.820
2020/01/31 19:41:23.7	1.540	0.190	-0.210	0.790
2020/01/31 19:41:23.8	1.530	0.150	-0.270	0.750
2020/01/31 19:41:23.9	1.520	0.120	-0.340	0.710
2020/01/31 19:41:24.0	1.520	0.080	-0.400	0.660
2020/01/31 19:41:24.1	1.510	0.050	-0.470	0.610
2020/01/31 19:41:24.2	1.510	0.010	-0.530	0.550
2020/01/31 19:41:24.3	1.510	-0.020	-0.600	0.490
2020/01/31 19:41:24.4	1.520	-0.050	-0.660	0.430
2020/01/31 19:41:24.5	1.530	-0.090	-0.720	0.360
2020/01/31 19:41:24.6	1.540	-0.120	-0.780	0.290
2020/01/31 19:41:24.7	1.560	-0.140	-0.840	0.220
2020/01/31 19:41:24.8	1.590	-0.170	-0.900	0.140
2020/01/31 19:41:24.9	1.610	-0.190	-0.950	0.060
2020/01/31 19:41:25.0	1.640	-0.200	-1.010	-0.030
2020/01/31 19:41:25.1	1.680	-0.220	-1.060	-0.110
2020/01/31 19:41:25.2	1.720	-0.230	-1.110	-0.200
2020/01/31 19:41:25.3	1.770	-0.230	-1.160	-0.280
2020/01/31 19:41:25.4	1.820	-0.230	-1.210	-0.370
2020/01/31 19:41:25.5	1.870	-0.230	-1.250	-0.450
2020/01/31 19:41:25.6	1.920	-0.220	-1.300	-0.540
2020/01/31 19:41:25.7	1.980	-0.210	-1.330	-0.620
2020/01/31 19:41:25.8	2.040	-0.190	-1.370	-0.700
2020/01/31 19:41:25.9	2.110	-0.170	-1.400	-0.790
2020/01/31 19:41:26.0	2.170	-0.150	-1.430	-0.860
2020/01/31 19:41:26.1	2.240	-0.120	-1.450	-0.930
2020/01/31 19:41:26.2	2.310	-0.090	-1.470	-1.000
2020/01/31 19:41:26.3	2.380	-0.060	-1.480	-1.060
2020/01/31 19:41:26.4	2.450	-0.030	-1.490	-1.120
2020/01/31 19:41:26.5	2.520	0.010	-1.490	-1.170
2020/01/31 19:41:26.6	2.590	0.050	-1.480	-1.220
2020/01/31 19:41:26.7	2.660	0.080	-1.470	-1.260
2020/01/31 19:41:26.8	2.730	0.120	-1.450	-1.290
2020/01/31 19:41:26.9	2.810	0.160	-1.420	-1.320
2020/01/31 19:41:27.0	2.870	0.190	-1.390	-1.340
2020/01/31 19:41:27.1	2.940	0.230	-1.350	-1.350
2020/01/31 19:41:27.2	3.000	0.260	-1.300	-1.360
2020/01/31 19:41:27.3	3.050	0.290	-1.250	-1.360
2020/01/31 19:41:27.4	3.110	0.320	-1.190	-1.360
2020/01/31 19:41:27.5	3.160	0.340	-1.120	-1.340
2020/01/31 19:41:27.6	3.200	0.360	-1.050	-1.320
2020/01/31 19:41:27.7	3.240	0.380	-0.980	-1.300
2020/01/31 19:41:27.8	3.280	0.390	-0.900	-1.270
2020/01/31 19:41:27.9	3.310	0.400	-0.810	-1.230
2020/01/31 19:41:28.0	3.330	0.410	-0.720	-1.190
2020/01/31 19:41:28.1	3.350	0.410	-0.630	-1.140
2020/01/31 19:41:28.2	3.370	0.400	-0.530	-1.090
2020/01/31 19:41:28.3	3.370	0.390	-0.440	-1.040
2020/01/31 19:41:28.4	3.380	0.380	-0.340	-0.980
2020/01/31 19:41:28.5	3.380	0.360	-0.240	-0.910
2020/01/31 19:41:28.6	3.370	0.340	-0.140	-0.840
2020/01/31 19:41:28.7	3.360	0.310	-0.040	-0.770
2020/01/31 19:41:28.8	3.350	0.280	0.060	-0.700
2020/01/31 19:41:28.9	3.340	0.250	0.160	-0.620
2020/01/31 19:41:29.0	3.320	0.210	0.250	-0.550
2020/01/31 19:41:29.1	3.290	0.170	0.340	-0.470
2020/01/31 19:41:29.2	3.260	0.130	0.430	-0.390
2020/01/31 19:41:29.3	3.230	0.090	0.510	-0.320
2020/01/31 19:41:29.4	3.190	0.040	0.580	-0.240
2020/01/31 19:41:29.5	3.150	-0.000	0.650	-0.170
2020/01/31 19:41:29.6	3.110	-0.050	0.720	-0.100
2020/01/31 19:41:29.7	3.070	-0.100	0.780	-0.030
2020/01/31 19:41:29.8	3.020	-0.150	0.830	0.040
2020/01/31 19:41:29.9	2.980	-0.200	0.880	0.100
2020/01/31 19:41:30.0	2.930	-0.240	0.910	0.150
2020/01/31 19:41:30.1	2.880	-0.290	0.940	0.200
2020/01/31 19:41:30.2	2.830	-0.330	0.970	0.250
2020/01/31 19:41:30.3	2.770	-0.370	0.980	0.290
2020/01/31 19:41:30.4	2.720	-0.410	0.990	0.320
2020/01/31 19:41:30.5	2.670	-0.440	0.990	0.350
2020/01/31 19:41:30.6	2.620	-0.480	0.980	0.370
2020/01/31 19:41:30.7	2.570	-0.500	0.960	0.390
2020/01/31 19:41:30.8	2.520	-0.530	0.940	0.400
2020/01/31 19:41:30.9	2.480	-0.550	0.900	0.400
2020/01/31 19:41:31.0	2.430	-0.560	0.870	0.400
2020/01/31 19:41:31.1	2.390	-0.570	0.820	0.390
2020/01/31 19:41:31.2	2.340	-0.580	0.770	0.390
2020/01/31 19:41:31.3	2.300	-0.580	0.710	0.370
2020/01/31 19:41:31.4	2.260	-0.570	0.650	0.360
2020/01/31 19:41:31.5	2.220	-0.560	0.580	0.340
2020/01/31 19:41:31.6	2.180	-0.550	0.500	0.320
2020/01/31 19:41:31.7	2.140	-0.530	0.430	0.300
2020/01/31 19:41:31.8	2.110	-0.510	0.340	0.280
2020/01/31 19:41:31.9	2.080	-0.480	0.260	0.260
2020/01/31 19:41:32.0	2.050	-0.450	0.170	0.240
2020/01/31 19:41:32.1	2.020	-0.420	0.090	0.220
2020/01/31 19:41:32.2	1.990	-0.380	-0.000	0.200
2020/01/31 19:41:32.3	1.960	-0.340	-0.090	0.180
2020/01/31 19:41:32.4	1.930	-0.290	-0.180	0.160
2020/01/31 19:41:32.5	1.910	-0.240	-0.270	0.140
2020/01/31 19:41:32.6	1.890	-0.190	-0.360	0.120
2020/01/31 19:41:32.7	1.870	-0.140	-0.440	0.100
2020/01/31 19:41:32.8	1.860	-0.090	-0.520	0.080
2020/01/31 19:41:32.9	1.840	-0.030	-0.610	0.060
2020/01/31 19:41:33.0	1.830	0.020	-0.680	0.040
2020/01/31 19:41:33.1	1.830	0.080	-0.760	0.010
2020/01/31 19:41:33.2	1.830	0.130	-0.820	-0.010
2020/01/31 19:41:33.3	1.840	0.190	-0.890	-0.030
2020/01/31 19:41:33.4	1.850	0.240	-0.950	-0.060
2020/01/31 19:41:33.5	1.860	0.290	-1.000	-0.080
2020/01/31 19:41:33.6	1.880	0.340	-1.050	-0.110
2020/01/31 19:41:33.7	1.900	0.390	-1.090	-0.130
2020/01/31 19:41:33.8	1.920	0.440	-1.120	-0.160
2020/01/31 19:41:33.9	1.930	0.480	-1.150	-0.190
2020/01/31 19:41:34.0	1.960	0.520	-1.170	-0.210
2020/01/31 19:41:34.1	1.990	0.560	-1.180	-0.230
2020/01/31 19:41:34.2	2.030	0.590	-1.180	-0.250
2020/01/31 19:41:34.3	2.060	0.620	-1.180	-0.270
2020/01/31 19:41:34.4	2.100	0.650	-1.170	-0.280
2020/01/31 19:41:34.5	2.140	0.670	-1.150	-0.300
2020/01/31 19:41:34.6	2.170	0.680	-1.120	-0.300
2020/01/31 19:41:34.7	2.210	0.690	-1.090	-0.310
2020/01/31 19:41:34.8	2.240	0.690	-1.040	-0.310
2020/01/31 19:41:34.9	2.280	0.690	-1.000	-0.310
2020/01/31 19:41:35.0	2.310	0.680	-0.940	-0.310
2020/01/31 19:41:35.1	2.350	0.670	-0.870	-0.300
2020/01/31 19:41:35.2	2.380	0.650	-0.800	-0.290
2020/01/31 19:41:35.3	2.400	0.630	-0.730	-0.280
2020/01/31 19:41:35.4	2.430	0.600	-0.650	-0.260
2020/01/31 19:41:35.5	2.460	0.560	-0.560	-0.240
2020/01/31 19:41:35.6	2.480	0.520	-0.470	-0.220
2020/01/31 19:41:35.7	2.500	0.480	-0.380	-0.200
2020/01/31 19:41:35.8	2.520	0.430	-0.290	-0.180
2020/01/31 19:41:35.9	2.540	0.380	-0.200	-0.160
2020/01/31 19:41:36.0	2.550	0.320	-0.110	-0.140
2020/01/31 19:41:36.1	2.570	0.260	-0.020	-0.120
2020/01/31 19:41:36.2	2.580	0.200	0.070	-0.100
2020/01/31 19:41:36.3	2.600	0.140	0.160	-0.080
2020/01/31 19:41:36.4	2.610	0.070	0.240	-0.070
2020/01/31 19:41:36.5	2.620	0.000	0.320	-0.050
2020/01/31 19:41:36.6	2.630	-0.070	0.390	-0.040
2020/01/31 19:41:36.7	2.640	-0.140	0.460	-0.030
2020/01/31 19:41:36.8	2.650	-0.200	0.520	-0.020
2020/01/31 19:41:36.9	2.660	-0.270	0.570	-0.020
2020/01/31 19:41:37.0	2.660	-0.330	0.620	-0.010
2020/01/31 19:41:37.1	2.670	-0.400	0.660	-0.010
2020/01/31 19:41:37.2	2.670	-0.460	0.700	-0.000
2020/01/31 19:41:37.3	2.670	-0.510	0.720	0.000
2020/01/31 19:41:37.4	2.660	-0.570	0.740	0.010
2020/01/31 19:41:37.5	2.650	-0.620	0.750	0.010
2020/01/31 19:41:37.6	2.650	-0.660	0.750	0.010
2020/01/31 19:41:37.7	2.640	-0.700	0.740	0.020
2020/01/31 19:41:37.8	2.620	-0.740	0.730	0.020
2020/01/31 19:41:37.9	2.620	-0.760	0.700	0.020
2020/01/31 19:41:38.0	2.600	-0.790	0.670	0.030
2020/01/31 19:41:38.1	2.580	-0.800	0.630	0.030
2020/01/31 19:41:38.2	2.560	-0.810	0.580	0.030
2020/01/31 19:41:38.3	2.540	-0.810	0.530	0.040
2020/01/31 19:41:38.4	2.520	-0.810	0.470	0.040
2020/01/31 19:41:38.5	2.500	-0.800	0.400	0.040
2020/01/31 19:41:38.6	2.470	-0.780	0.330	0.050
2020/01/31 19:41:38.7	2.450	-0.760	0.250	0.050
2020/01/31 19:41:38.8	2.430	-0.730	0.170	0.060
2020/01/31 19:41:38.9	2.400	-0.690	0.090	0.060
2020/01/31 19:41:39.0	2.370	-0.650	-0.010	0.060
2020/01/31 19:41:39.1	2.350	-0.600	-0.100	0.070
2020/01/31 19:41:39.2	2.330	-0.550	-0.200	0.080
2020/01/31 19:41:39.3	2.310	-0.490	-0.290	0.080
2020/01/31 19:41:39.4	2.290	-0.430	-0.390	0.090
2020/01/31 19:41:39.5	2.270	-0.360	-0.490	0.090
2020/01/31 19:41:39.6	2.250	-0.290	-0.590	0.100
2020/01/31 19:41:39.7	2.230	-0.220	-0.690	0.110
2020/01/31 19:41:39.8	2.220	-0.140	-0.780	0.110
2020/01/31 19:41:39.9	2.190	-0.060	-0.870	0.120
2020/01/31 19:41:40.0	2.180	0.010	-0.960	0.120
2020/01/31 19:41:40.1	2.160	0.090	-1.040	0.130
2020/01/31 19:41:40.2	2.150	0.170	-1.120	0.130
2020/01/31 19:41:40.3	2.140	0.240	-1.180	0.140
2020/01/31 19:41:40.4	2.120	0.320	-1.240	0.140
2020/01/31 19:41:40.5	2.110	0.390	-1.300	0.140
2020/01/31 19:41:40.6	2.100	0.450	-1.340	0.140
2020/01/31 19:41:40.7	2.090	0.520	-1.370	0.140
2020/01/31 19:41:40.8	2.090	0.570	-1.400	0.140
2020/01/31 19:41:40.9	2.080	0.630	-1.410	0.140
2020/01/31 19:41:41.0	2.080	0.670	-1.420	0.140
2020/01/31 19:41:41.1	2.070	0.710	-1.410	0.140
2020/01/31 19:41:41.2	2.070	0.750	-1.400	0.130
2020/01/31 19:41:41.3	2.070	0.770	-1.370	0.130
2020/01/31 19:41:41.4	2.070	0.800	-1.340	0.120
2020/01/31 19:41:41.5	2.070	0.810	-1.290	0.120
2020/01/31 19:41:41.6	2.070	0.820	-1.240	0.110
2020/01/31 19:41:41.7	2.080	0.820	-1.180	0.110
2020/01/31 19:41:41.8	2.090	0.810	-1.110	0.110
2020/01/31 19:41:41.9	2.090	0.800	-1.040	0.100
2020/01/31 19:41:42.0	2.100	0.780	-0.960	0.100
2020/01/31 19:41:42.1	2.110	0.750	-0.880	0.090
2020/01/31 19:41:42.2	2.120	0.720	-0.790	0.090
2020/01/31 19:41:42.3	2.130	0.680	-0.690	0.090
2020/01/31 19:41:42.4	2.140	0.640	-0.600	0.080
2020/01/31 19:41:42.5	2.160	0.590	-0.500	0.080
2020/01/31 19:41:42.6	2.170	0.540	-0.400	0.080
2020/01/31 19:41:42.7	2.180	0.480	-0.300	0.080
2020/01/31 19:41:42.8	2.190	0.420	-0.200	0.070
2020/01/31 19:41:42.9	2.210	0.360	-0.100	0.070
2020/01/31 19:41:43.0	2.220	0.300	-0.000	0.070
2020/01/31 19:41:43.1	2.230	0.230	0.090	0.060
2020/01/31 19:41:43.2	2.250	0.170	0.180	0.050
2020/01/31 19:41:43.3	2.260	0.100	0.270	0.050
2020/01/31 19:41:43.4	2.270	0.030	0.340	0.040
2020/01/31 19:41:43.5	2.290	-0.030	0.420	0.030
2020/01/31 19:41:43.6	2.300	-0.090	0.490	0.010
2020/01/31 19:41:43.7	2.310	-0.150	0.540	-0.000
2020/01/31 19:41:43.8	2.330	-0.210	0.590	-0.020
2020/01/31 19:41:43.9	2.360	-0.260	0.640	-0.050
2020/01/31 19:41:44.0	2.380	-0.310	0.670	-0.070
2020/01/31 19:41:44.1	2.400	-0.360	0.700	-0.100
2020/01/31 19:41:44.2	2.420	-0.400	0.710	-0.120
2020/01/31 19:41:44.3	2.440	-0.440	0.720	-0.150
2020/01/31 19:41:44.4	2.470	-0.470	0.720	-0.190
2020/01/31 19:41:44.5	2.490	-0.490	0.710	-0.220
2020/01/31 19:41:44.6	2.520	-0.510	0.690	-0.260
2020/01/31 19:41:44.7	2.550	-0.530	0.660	-0.290
2020/01/31 19:41:44.8	2.570	-0.540	0.630	-0.330
2020/01/31 19:41:44.9	2.610	-0.540	0.580	-0.360
2020/01/31 19:41:45.0	2.630	-0.540	0.540	-0.400
2020/01/31 19:41:45.1	2.660	-0.540	0.490	-0.430
2020/01/31 19:41:45.2	2.680	-0.530	0.430	-0.450
2020/01/31 19:41:45.3	2.700	-0.510	0.370	-0.480
2020/01/31 19:41:45.4	2.720	-0.500	0.310	-0.500
2020/01/31 19:41:45.5	2.740	-0.480	0.250	-0.510
2020/01/31 19:41:45.6	2.750	-0.450	0.180	-0.530
2020/01/31 19:41:45.7	2.770	-0.430	0.120	-0.540
2020/01/31 19:41:45.8	2.780	-0.400	0.060	-0.540
2020/01/31 19:41:45.9	2.780	-0.370	-0.000	-0.540
2020/01/31 19:41:46.0	2.780	-0.340	-0.060	-0.540
2020/01/31 19:41:46.1	2.780	-0.300	-0.110	-0.530
2020/01/31 19:41:46.2	2.780	-0.270	-0.170	-0.510
2020/01/31 19:41:46.3	2.780	-0.240	-0.210	-0.500
2020/01/31 19:41:46.4	2.770	-0.210	-0.260	-0.470
2020/01/31 19:41:46.5	2.760	-0.180	-0.300	-0.450
2020/01/31 19:41:46.6	2.740	-0.150	-0.330	-0.420
2020/01/31 19:41:46.7	2.730	-0.120	-0.360	-0.390
2020/01/31 19:41:46.8	2.710	-0.090	-0.380	-0.360
2020/01/31 19:41:46.9	2.680	-0.060	-0.400	-0.330
2020/01/31 19:41:47.0	2.650	-0.040	-0.420	-0.300
2020/01/31 19:41:47.1	2.630	-0.020	-0.430	-0.260
2020/01/31 19:41:47.2	2.600	0.000	-0.430	-0.230
2020/01/31 19:41:47.3	2.570	0.020	-0.440	-0.200
2020/01/31 19:41:47.4	2.540	0.030	-0.430	-0.160
2020/01/31 19:41:47.5	2.510	0.050	-0.430	-0.130
2020/01/31 19:41:47.6	2.470	0.060	-0.420	-0.100
2020/01/31 19:41:47.7	2.440	0.070	-0.410	-0.060
2020/01/31 19:41:47.8	2.410	0.070	-0.400	-0.030
2020/01/31 19:41:47.9	2.370	0.080	-0.400	-0.010
2020/01/31 19:41:48.0	2.340	0.090	-0.390	0.020
2020/01/31 19:41:48.1	2.310	0.090	-0.370	0.040
2020/01/31 19:41:48.2	2.290	0.090	-0.360	0.070
2020/01/31 19:41:48.3	2.260	0.100	-0.350	0.090
2020/01/31 19:41:48.4	2.240	0.100	-0.340	0.100
2020/01/31 19:41:48.5	2.220	0.100	-0.330	0.120
2020/01/31 19:41:48.6	2.210	0.110	-0.330	0.130
2020/01/31 19:41:48.7	2.200	0.110	-0.330	0.130
2020/01/31 19:41:48.8	2.190	0.110	-0.330	0.140
2020/01/31 19:41:48.9	2.180	0.120	-0.330	0.130
2020/01/31 19:41:49.0	2.180	0.120	-0.340	0.130
2020/01/31 19:41:49.1	2.180	0.130	-0.340	0.120
2020/01/31 19:41:49.2	2.190	0.140	-0.360	0.110
2020/01/31 19:41:49.3	2.200	0.150	-0.370	0.100
2020/01/31 19:41:49.4	2.210	0.160	-0.390	0.080
2020/01/31 19:41:49.5	2.220	0.170	-0.410	0.060
2020/01/31 19:41:49.6	2.240	0.180	-0.440	0.040
2020/01/31 19:41:49.7	2.260	0.200	-0.460	0.020
2020/01/31 19:41:49.8	2.280	0.210	-0.490	-0.010
2020/01/31 19:41:49.9	2.300	0.230	-0.520	-0.030
2020/01/31 19:41:50.0	2.330	0.240	-0.550	-0.050
2020/01/31 19:41:50.1	2.350	0.260	-0.570	-0.080
2020/01/31 19:41:50.2	2.370	0.270	-0.600	-0.100
2020/01/31 19:41:50.3	2.390	0.290	-0.620	-0.130
2020/01/31 19:41:50.4	2.420	0.300	-0.640	-0.160
2020/01/31 19:41:50.5	2.440	0.310	-0.670	-0.180
2020/01/31 19:41:50.6	2.470	0.330	-0.680	-0.210
2020/01/31 19:41:50.7	2.490	0.340	-0.700	-0.230
2020/01/31 19:41:50.8	2.520	0.350	-0.710	-0.260
2020/01/31 19:41:50.9	2.540	0.360	-0.710	-0.280
2020/01/31 19:41:51.0	2.560	0.370	-0.710	-0.300
2020/01/31 19:41:51.1	2.590	0.370	-0.710	-0.320
2020/01/31 19:41:51.2	2.610	0.380	-0.700	-0.340
2020/01/31 19:41:51.3	2.640	0.380	-0.680	-0.360
2020/01/31 19:41:51.4	2.660	0.370	-0.660	-0.370
2020/01/31 19:41:51.5	2.690	0.370	-0.640	-0.380
2020/01/31 19:41:51.6	2.710	0.360	-0.610	-0.390
2020/01/31 19:41:51.7	2.730	0.350	-0.570	-0.390
2020/01/31 19:41:51.8	2.750	0.340	-0.530	-0.390
2020/01/31 19:41:51.9	2.770	0.320	-0.490	-0.380
2020/01/31 19:41:52.0	2.780	0.300	-0.440	-0.380
2020/01/31 19:41:52.1	2.790	0.280	-0.380	-0.360
2020/01/31 19:41:52.2	2.790	0.250	-0.320	-0.340
2020/01/31 19:41:52.3	2.800	0.220	-0.250	-0.320
2020/01/31 19:41:52.4	2.800	0.190	-0.180	-0.300
2020/01/31 19:41:52.5	2.800	0.150	-0.110	-0.270
2020/01/31 19:41:52.6	2.790	0.110	-0.040	-0.240
2020/01/31 19:41:52.7	2.780	0.070	0.030	-0.210
2020/01/31 19:41:52.8	2.770	0.020	0.110	-0.170
2020/01/31 19:41:52.9	2.750	-0.030	0.180	-0.140
2020/01/31 19:41:53.0	2.730	-0.070	0.260	-0.100
2020/01/31 19:41:53.1	2.710	-0.120	0.330	-0.070
2020/01/31 19:41:53.2	2.690	-0.180	0.390	-0.040
2020/01/31 19:41:53.3	2.670	-0.230	0.460	-0.010
2020/01/31 19:41:53.4	2.640	-0.280	0.520	0.020
2020/01/31 19:41:53.5	2.620	-0.330	0.570	0.040
2020/01/31 19:41:53.6	2.590	-0.380	0.610	0.070
2020/01/31 19:41:53.7	2.570	-0.430	0.650	0.090
2020/01/31 19:41:53.8	2.540	-0.480	0.680	0.100
2020/01/31 19:41:53.9	2.500	-0.520	0.700	0.110
2020/01/31 19:41:54.0	2.480	-0.560	0.720	0.120
2020/01/31 19:41:54.1	2.460	-0.600	0.720	0.130
2020/01/31 19:41:54.2	2.440	-0.640	0.710	0.120
2020/01/31 19:41:54.3	2.420	-0.670	0.700	0.120
2020/01/31 19:41:54.4	2.410	-0.690	0.670	0.110
2020/01/31 19:41:54.5	2.400	-0.710	0.630	0.100
2020/01/31 19:41:54.6	2.390	-0.730	0.590	0.080
2020/01/31 19:41:54.7	2.380	-0.730	0.530	0.050
2020/01/31 19:41:54.8	2.380	-0.740	0.460	0.030
2020/01/31 19:41:54.9	2.390	-0.730	0.390	-0.010
2020/01/31 19:41:55.0	2.400	-0.720	0.300	-0.040
2020/01/31 19:41:55.1	2.400	-0.710	0.210	-0.080
2020/01/31 19:41:55.2	2.420	-0.690	0.110	-0.120
2020/01/31 19:41:55.3	2.430	-0.660	0.010	-0.160
2020/01/31 19:41:55.4	2.450	-0.620	-0.100	-0.200
2020/01/31 19:41:55.5	2.470	-0.580	-0.210	-0.250
2020/01/31 19:41:55.6	2.500	-0.540	-0.320	-0.290
2020/01/31 19:41:55.7	2.530	-0.490	-0.440	-0.330
2020/01/31 19:41:55.8	2.560	-0.430	-0.550	-0.380
2020/01/31 19:41:55.9	2.590	-0.380	-0.670	-0.420
2020/01/31 19:41:56.0	2.620	-0.320	-0.780	-0.460
2020/01/31 19:41:56.1	2.660	-0.250	-0.890	-0.490
2020/01/31 19:41:56.2	2.690	-0.190	-0.990	-0.530
2020/01/31 19:41:56.3	2.720	-0.120	-1.080	-0.560
2020/01/31 19:41:56.4	2.750	-0.060	-1.170	-0.580
2020/01/31 19:41:56.5	2.780	0.010	-1.240	-0.600
2020/01/31 19:41:56.6	2.810	0.070	-1.310	-0.610
2020/01/31 19:41:56.7	2.830	0.130	-1.360	-0.620
2020/01/31 19:41:56.8	2.850	0.200	-1.410	-0.620
2020/01/31 19:41:56.9	2.870	0.250	-1.440	-0.620
2020/01/31 19:41:57.0	2.890	0.310	-1.460	-0.610
2020/01/31 19:41:57.1	2.890	0.360	-1.470	-0.590
2020/01/31 19:41:57.2	2.900	0.410	-1.460	-0.570
2020/01/31 19:41:57.3	2.900	0.450	-1.450	-0.540
2020/01/31 19:41:57.4	2.900	0.490	-1.420	-0.510
2020/01/31 19:41:57.5	2.890	0.530	-1.370	-0.470
2020/01/31 19:41:57.6	2.880	0.560	-1.320	-0.430
2020/01/31 19:41:57.7	2.870	0.580	-1.260	-0.390
2020/01/31 19:41:57.8	2.850	0.600	-1.180	-0.340
2020/01/31 19:41:57.9	2.820	0.610	-1.100	-0.290
2020/01/31 19:41:58.0	2.800	0.620	-1.010	-0.240
2020/01/31 19:41:58.1	2.770	0.630	-0.920	-0.180
2020/01/31 19:41:58.2	2.740	0.620	-0.810	-0.120
2020/01/31 19:41:58.3	2.710	0.620	-0.710	-0.070
2020/01/31 19:41:58.4	2.680	0.610	-0.600	-0.010
2020/01/31 19:41:58.5	2.650	0.590	-0.490	0.050
2020/01/31 19:41:58.6	2.620	0.570	-0.380	0.100
2020/01/31 19:41:58.7	2.590	0.550	-0.270	0.160
2020/01/31 19:41:58.8	2.560	0.520	-0.160	0.210
2020/01/31 19:41:58.9	2.530	0.490	-0.070	0.260
2020/01/31 19:41:59.0	2.500	0.460	0.030	0.310
2020/01/31 19:41:59.1	2.470	0.430	0.130	0.350
2020/01/31 19:41:59.2	2.440	0.390	0.210	0.380
2020/01/31 19:41:59.3	2.410	0.350	0.290	0.420
2020/01/31 19:41:59.4	2.380	0.310	0.370	0.440
2020/01/31 19:41:59.5	2.360	0.270	0.430	0.460
2020/01/31 19:41:59.6	2.340	0.230	0.490	0.480
2020/01/31 19:41:59.7	2.320	0.190	0.540	0.490
2020/01/31 19:41:59.8	2.300	0.150	0.580	0.480
2020/01/31 19:41:59.9	2.290	0.110	0.600	0.480
2020/01/31 19:42:00.0	2.280	0.070	0.620	0.460
2020/01/31 19:42:00.1	2.270	0.030	0.640	0.440
2020/01/31 19:42:00.2	2.270	-0.000	0.640	0.410
2020/01/31 19:42:00.3	2.270	-0.040	0.630	0.380
2020/01/31 19:42:00.4	2.270	-0.070	0.620	0.340
2020/01/31 19:42:00.5	2.270	-0.100	0.590	0.290
2020/01/31 19:42:00.6	2.280	-0.130	0.560	0.250
2020/01/31 19:42:00.7	2.290	-0.150	0.530	0.200
2020/01/31 19:42:00.8	2.300	-0.180	0.490	0.150
2020/01/31 19:42:00.9	2.310	-0.200	0.440	0.090
2020/01/31 19:42:01.0	2.330	-0.220	0.390	0.030
2020/01/31 19:42:01.1	2.340	-0.230	0.340	-0.020
2020/01/31 19:42:01.2	2.360	-0.250	0.280	-0.080
2020/01/31 19:42:01.3	2.380	-0.260	0.230	-0.130
2020/01/31 19:42:01.4	2.400	-0.270	0.170	-0.180
2020/01/31 19:42:01.5	2.420	-0.270	0.110	-0.240
2020/01/31 19:42:01.6	2.440	-0.280	0.060	-0.290
2020/01/31 19:42:01.7	2.460	-0.280	0.000	-0.340
2020/01/31 19:42:01.8	2.480	-0.280	-0.050	-0.380
2020/01/31 19:42:01.9	2.500	-0.280	-0.100	-0.430
2020/01/31 19:42:02.0	2.520	-0.280	-0.150	-0.480
2020/01/31 19:42:02.1	2.550	-0.280	-0.190	-0.520
2020/01/31 19:42:02.2	2.570	-0.280	-0.240	-0.560
2020/01/31 19:42:02.3	2.590	-0.270	-0.270	-0.600
2020/01/31 19:42:02.4	2.620	-0.270	-0.310	-0.630
2020/01/31 19:42:02.5	2.640	-0.260	-0.340	-0.670
2020/01/31 19:42:02.6	2.670	-0.260	-0.370	-0.700
2020/01/31 19:42:02.7	2.700	-0.250	-0.400	-0.730
2020/01/31 19:42:02.8	2.720	-0.240	-0.420	-0.760
2020/01/31 19:42:02.9	2.740	-0.230	-0.450	-0.790
2020/01/31 19:42:03.0	2.770	-0.220	-0.470	-0.810
2020/01/31 19:42:03.1	2.800	-0.210	-0.480	-0.840
2020/01/31 19:42:03.2	2.820	-0.200	-0.500	-0.850
2020/01/31 19:42:03.3	2.850	-0.190	-0.520	-0.870
2020/01/31 19:42:03.4	2.870	-0.180	-0.530	-0.880
2020/01/31 19:42:03.5	2.900	-0.170	-0.540	-0.890
2020/01/31 19:42:03.6	2.920	-0.150	-0.560	-0.890
2020/01/31 19:42:03.7	2.950	-0.140	-0.570	-0.890
2020/01/31 19:42:03.8	2.970	-0.130	-0.580	-0.890
2020/01/31 19:42:03.9	2.980	-0.110	-0.590	-0.880
2020/01/31 19:42:04.0	3.000	-0.100	-0.600	-0.870
2020/01/31 19:42:04.1	3.020	-0.080	-0.610	-0.850
2020/01/31 19:42:04.2	3.030	-0.070	-0.620	-0.830
2020/01/31 19:42:04.3	3.050	-0.050	-0.630	-0.810
2020/01/31 19:42:04.4	3.060	-0.040	-0.630	-0.780
2020/01/31 19:42:04.5	3.070	-0.020	-0.640	-0.750
2020/01/31 19:42:04.6	3.080	-0.010	-0.640	-0.720
2020/01/31 19:42:04.7	3.080	0.000	-0.640	-0.690
2020/01/31 19:42:04.8	3.090	0.020	-0.640	-0.650
2020/01/31 19:42:04.9	3.080	0.030	-0.630	-0.610
2020/01/31 19:42:05.0	3.080	0.040	-0.630	-0.570
2020/01/31 19:42:05.1	3.080	0.050	-0.620	-0.540
2020/01/31 19:42:05.2	3.070	0.060	-0.600	-0.500
2020/01/31 19:42:05.3	3.070	0.070	-0.590	-0.460
2020/01/31 19:42:05.4	3.060	0.080	-0.570	-0.430
2020/01/31 19:42:05.5	3.050	0.080	-0.540	-0.390
2020/01/31 19:42:05.6	3.040	0.090	-0.520	-0.350
2020/01/31 19:42:05.7	3.030	0.090	-0.480	-0.320
2020/01/31 19:42:05.8	3.010	0.100	-0.450	-0.280
2020/01/31 19:42:05.9	2.990	0.100	-0.420	-0.250
2020/01/31 19:42:06.0	2.980	0.100	-0.380	-0.220
2020/01/31 19:42:06.1	2.960	0.100	-0.330	-0.180
2020/01/31 19:42:06.2	2.940	0.110	-0.290	-0.150
2020/01/31 19:42:06.3	2.920	0.110	-0.240	-0.120
2020/01/31 19:42:06.4	2.900	0.110	-0.190	-0.080
2020/01/31 19:42:06.5	2.880	0.110	-0.140	-0.050
2020/01/31 19:42:06.6	2.860	0.100	-0.090	-0.020
2020/01/31 19:42:06.7	2.840	0.100	-0.040	0.010
2020/01/31 19:42:06.8	2.820	0.100	0.010	0.050
2020/01/31 19:42:06.9	2.800	0.100	0.060	0.080
2020/01/31 19:42:07.0	2.780	0.100	0.100	0.110
2020/01/31 19:42:07.1	2.760	0.100	0.150	0.140
2020/01/31 19:42:07.2	2.740	0.100	0.190	0.180
2020/01/31 19:42:07.3	2.720	0.100	0.230	0.210
2020/01/31 19:42:07.4	2.700	0.100	0.260	0.240
2020/01/31 19:42:07.5	2.680	0.100	0.290	0.270
2020/01/31 19:42:07.6	2.660	0.100	0.310	0.290
2020/01/31 19:42:07.7	2.650	0.100	0.330	0.320
2020/01/31 19:42:07.8	2.630	0.100	0.350	0.340
2020/01/31 19:42:07.9	2.620	0.110	0.350	0.360
2020/01/31 19:42:08.0	2.610	0.110	0.350	0.370
2020/01/31 19:42:08.1	2.600	0.110	0.340	0.380
2020/01/31 19:42:08.2	2.590	0.110	0.330	0.380
2020/01/31 19:42:08.3	2.580	0.120	0.310	0.380
2020/01/31 19:42:08.4	2.580	0.120	0.290	0.380
2020/01/31 19:42:08.5	2.580	0.120	0.260	0.370
2020/01/31 19:42:08.6	2.580	0.130	0.220	0.360
2020/01/31 19:42:08.7	2.580	0.130	0.180	0.340
2020/01/31 19:42:08.8	2.590	0.140	0.130	0.320
2020/01/31 19:42:08.9	2.600	0.140	0.080	0.290
2020/01/31 19:42:09.0	2.610	0.140	0.030	0.260
2020/01/31 19:42:09.1	2.620	0.150	-0.030	0.230
2020/01/31 19:42:09.2	2.630	0.150	-0.090	0.190
2020/01/31 19:42:09.3	2.640	0.150	-0.150	0.160
2020/01/31 19:42:09.4	2.650	0.160	-0.220	0.120
2020/01/31 19:42:09.5	2.660	0.160	-0.280	0.090
2020/01/31 19:42:09.6	2.670	0.160	-0.340	0.050
2020/01/31 19:42:09.7	2.680	0.160	-0.400	0.010
2020/01/31 19:42:09.8	2.690	0.160	-0.460	-0.020
2020/01/31 19:42:09.9	2.700	0.160	-0.520	-0.060
2020/01/31 19:42:10.0	2.710	0.160	-0.570	-0.090
2020/01/31 19:42:10.1	2.720	0.150	-0.620	-0.120
2020/01/31 19:42:10.2	2.720	0.150	-0.660	-0.150
2020/01/31 19:42:10.3	2.730	0.140	-0.700	-0.180
2020/01/31 19:42:10.4	2.740	0.130	-0.730	-0.210
2020/01/31 19:42:10.5	2.750	0.120	-0.760	-0.240
2020/01/31 19:42:10.6	2.750	0.110	-0.780	-0.260
2020/01/31 19:42:10.7	2.760	0.100	-0.800	-0.290
2020/01/31 19:42:10.8	2.770	0.080	-0.810	-0.310
2020/01/31 19:42:10.9	2.760	0.070	-0.810	-0.340
2020/01/31 19:42:11.0	2.760	0.050	-0.810	-0.360
2020/01/31 19:42:11.1	2.770	0.030	-0.810	-0.390
2020/01/31 19:42:11.2	2.780	0.010	-0.800	-0.410
2020/01/31 19:42:11.3	2.790	-0.010	-0.790	-0.440
2020/01/31 19:42:11.4	2.800	-0.030	-0.770	-0.460
2020/01/31 19:42:11.5	2.810	-0.050	-0.750	-0.480
2020/01/31 19:42:11.6	2.820	-0.070	-0.720	-0.510
2020/01/31 19:42:11.7	2.840	-0.090	-0.700	-0.530
2020/01/31 19:42:11.8	2.850	-0.120	-0.660	-0.550
2020/01/31 19:42:11.9	2.880	-0.140	-0.630	-0.570
2020/01/31 19:42:12.0	2.900	-0.170	-0.600	-0.590
2020/01/31 19:42:12.1	2.910	-0.190	-0.560	-0.610
2020/01/31 19:42:12.2	2.930	-0.210	-0.520	-0.630
2020/01/31 19:42:12.3	2.950	-0.230	-0.480	-0.650
2020/01/31 19:42:12.4	2.960	-0.260	-0.450	-0.670
2020/01/31 19:42:12.5	2.980	-0.280	-0.410	-0.690
2020/01/31 19:42:12.6	3.000	-0.300	-0.370	-0.700
2020/01/31 19:42:12.7	3.030	-0.320	-0.330	-0.720
2020/01/31 19:42:12.8	3.050	-0.340	-0.290	-0.730
2020/01/31 19:42:12.9	3.060	-0.350	-0.260	-0.750
2020/01/31 19:42:13.0	3.090	-0.370	-0.230	-0.760
2020/01/31 19:42:13.1	3.110	-0.380	-0.190	-0.770
2020/01/31 19:42:13.2	3.140	-0.390	-0.160	-0.780
2020/01/31 19:42:13.3	3.160	-0.400	-0.140	-0.780
2020/01/31 19:42:13.4	3.180	-0.400	-0.110	-0.790
2020/01/31 19:42:13.5	3.210	-0.410	-0.090	-0.790
2020/01/31 19:42:13.6	3.230	-0.410	-0.070	-0.790
2020/01/31 19:42:13.7	3.250	-0.410	-0.050	-0.780
2020/01/31 19:42:13.8	3.280	-0.400	-0.040	-0.780
2020/01/31 19:42:13.9	3.300	-0.390	-0.030	-0.770
2020/01/31 19:42:14.0	3.320	-0.380	-0.020	-0.750
2020/01/31 19:42:14.1	3.340	-0.370	-0.020	-0.740
2020/01/31 19:42:14.2	3.350	-0.350	-0.010	-0.710
2020/01/31 19:42:14.3	3.360	-0.330	-0.010	-0.690
2020/01/31 19:42:14.4	3.380	-0.310	-0.010	-0.660
2020/01/31 19:42:14.5	3.390	-0.280	-0.020	-0.630
2020/01/31 19:42:14.6	3.400	-0.260	-0.020	-0.600
2020/01/31 19:42:14.7	3.400	-0.230	-0.030	-0.560
2020/01/31 19:42:14.8	3.410	-0.200	-0.040	-0.520
2020/01/31 19:42:14.9	3.390	-0.160	-0.060	-0.480
2020/01/31 19:42:15.0	3.390	-0.130	-0.070	-0.440
2020/01/31 19:42:15.1	3.390	-0.090	-0.090	-0.400
2020/01/31 19:42:15.2	3.390	-0.060	-0.110	-0.360
2020/01/31 19:42:15.3	3.380	-0.020	-0.120	-0.320
2020/01/31 19:42:15.4	3.380	0.020	-0.140	-0.280
2020/01/31 19:42:15.5	3.370	0.060	-0.160	-0.240
2020/01/31 19:42:15.6	3.360	0.100	-0.180	-0.210
2020/01/31 19:42:15.7	3.350	0.130	-0.210	-0.170
2020/01/31 19:42:15.8	3.340	0.170	-0.230	-0.130
2020/01/31 19:42:15.9	3.340	0.200	-0.250	-0.090
2020/01/31 19:42:16.0	3.320	0.240	-0.270	-0.060
2020/01/31 19:42:16.1	3.310	0.270	-0.290	-0.030
2020/01/31 19:42:16.2	3.300	0.300	-0.310	0.000
2020/01/31 19:42:16.3	3.280	0.330	-0.330	0.040
2020/01/31 19:42:16.4	3.270	0.350	-0.350	0.060
2020/01/31 19:42:16.5	3.250	0.380	-0.360	0.090
2020/01/31 19:42:16.6	3.240	0.390	-0.380	0.110
2020/01/31 19:42:16.7	3.230	0.410	-0.390	0.140
2020/01/31 19:42:16.8	3.210	0.420	-0.400	0.160
2020/01/31 19:42:16.9	3.200	0.430	-0.400	0.180
2020/01/31 19:42:17.0	3.190	0.440	-0.400	0.200
2020/01/31 19:42:17.1	3.180	0.440	-0.410	0.210
2020/01/31 19:42:17.2	3.160	0.440	-0.400	0.220
2020/01/31 19:42:17.3	3.150	0.440	-0.400	0.230
2020/01/31 19:42:17.4	3.140	0.430	-0.390	0.240
2020/01/31 19:42:17.5	3.130	0.420	-0.380	0.250
2020/01/31 19:42:17.6	3.120	0.400	-0.360	0.260
2020/01/31 19:42:17.7	3.100	0.380	-0.340	0.260
2020/01/31 19:42:17.8	3.090	0.360	-0.310	0.260
2020/01/31 19:42:17.9	3.080	0.330	-0.290	0.260
2020/01/31 19:42:18.0	3.070	0.310	-0.260	0.260
2020/01/31 19:42:18.1	3.050	0.280	-0.220	0.250
2020/01/31 19:42:18.2	3.040	0.240	-0.180	0.250
2020/01/31 19:42:18.3	3.020	0.210	-0.140	0.240
2020/01/31 19:42:18.4	3.010	0.170	-0.090	0.230
2020/01/31 19:42:18.5	2.990	0.130	-0.040	0.220
2020/01/31 19:42:18.6	2.970	0.090	0.010	0.210
2020/01/31 19:42:18.7	2.960	0.050	0.070	0.200
2020/01/31 19:42:18.8	2.940	0.000	0.120	0.180
2020/01/31 19:42:18.9	2.900	-0.040	0.180	0.170
2020/01/31 19:42:19.0	2.880	-0.080	0.240	0.150
2020/01/31 19:42:19.1	2.860	-0.120	0.300	0.140
2020/01/31 19:42:19.2	2.840	-0.160	0.350	0.130
2020/01/31 19:42:19.3	2.820	-0.200	0.410	0.110
2020/01/31 19:42:19.4	2.800	-0.240	0.460	0.100
2020/01/31 19:42:19.5	2.780	-0.280	0.510	0.090
2020/01/31 19:42:19.6	2.760	-0.310	0.560	0.080
2020/01/31 19:42:19.7	2.730	-0.340	0.600	0.060
2020/01/31 19:42:19.8	2.710	-0.370	0.630	0.050
2020/01/31 19:42:19.9	2.710	-0.400	0.660	0.040
2020/01/31 19:42:20.0	2.690	-0.420	0.680	0.030
2020/01/31 19:42:20.1	2.670	-0.440	0.690	0.010
2020/01/31 19:42:20.2	2.650	-0.450	0.700	0.000
2020/01/31 19:42:20.3	2.640	-0.460	0.690	-0.010
2020/01/31 19:42:20.4	2.630	-0.470	0.680	-0.020
2020/01/31 19:42:20.5	2.610	-0.470	0.650	-0.040
2020/01/31 19:42:20.6	2.600	-0.460	0.610	-0.050
2020/01/31 19:42:20.7	2.600	-0.450	0.570	-0.070
2020/01/31 19:42:20.8	2.590	-0.440	0.510	-0.090
2020/01/31 19:42:20.9	2.590	-0.420	0.440	-0.100
2020/01/31 19:42:21.0	2.590	-0.400	0.360	-0.130
2020/01/31 19:42:21.1	2.590	-0.370	0.280	-0.150
2020/01/31 19:42:21.2	2.600	-0.340	0.180	-0.170
2020/01/31 19:42:21.3	2.610	-0.310	0.070	-0.200
2020/01/31 19:42:21.4	2.620	-0.270	-0.040	-0.230
2020/01/31 19:42:21.5	2.630	-0.230	-0.160	-0.270
2020/01/31 19:42:21.6	2.650	-0.190	-0.290	-0.300
2020/01/31 19:42:21.7	2.670	-0.140	-0.420	-0.340
2020/01/31 19:42:21.8	2.700	-0.090	-0.560	-0.380
2020/01/31 19:42:21.9	2.720	-0.040	-0.700	-0.430
2020/01/31 19:42:22.0	2.750	0.010	-0.840	-0.480
2020/01/31 19:42:22.1	2.780	0.060	-0.980	-0.530
2020/01/31 19:42:22.2	2.820	0.120	-1.130	-0.580
2020/01/31 19:42:22.3	2.860	0.170	-1.260	-0.630
2020/01/31 19:42:22.4	2.900	0.220	-1.400	-0.690
2020/01/31 19:42:22.5	2.950	0.270	-1.520	-0.750
2020/01/31 19:42:22.6	3.000	0.320	-1.650	-0.800
2020/01/31 19:42:22.7	3.050	0.360	-1.760	-0.860
2020/01/31 19:42:22.8	3.100	0.400	-1.860	-0.920
2020/01/31 19:42:22.9	3.170	0.440	-1.950	-0.980
2020/01/31 19:42:23.0	3.220	0.480	-2.030	-1.040
2020/01/31 19:42:23.1	3.280	0.510	-2.090	-1.090
2020/01/31 19:42:23.2	3.340	0.540	-2.140	-1.140
2020/01/31 19:42:23.3	3.400	0.560	-2.170	-1.180
2020/01/31 19:42:23.4	3.460	0.580	-2.190	-1.220
2020/01/31 19:42:23.5	3.520	0.590	-2.190	-1.260
2020/01/31 19:42:23.6	3.570	0.590	-2.170	-1.280
2020/01/31 19:42:23.7	3.630	0.590	-2.130	-1.300
2020/01/31 19:42:23.8	3.680	0.590	-2.070	-1.310
2020/01/31 19:42:23.9	3.730	0.580	-2.000	-1.320
2020/01/31 19:42:24.0	3.770	0.560	-1.900	-1.310
2020/01/31 19:42:24.1	3.810	0.540	-1.790	-1.290
2020/01/31 19:42:24.2	3.840	0.510	-1.660	-1.270
2020/01/31 19:42:24.3	3.870	0.480	-1.510	-1.240
2020/01/31 19:42:24.4	3.900	0.450	-1.350	-1.190
2020/01/31 19:42:24.5	3.910	0.410	-1.180	-1.150
2020/01/31 19:42:24.6	3.930	0.360	-1.000	-1.090
2020/01/31 19:42:24.7	3.940	0.310	-0.810	-1.030
2020/01/31 19:42:24.8	3.940	0.260	-0.610	-0.960
2020/01/31 19:42:24.9	3.920	0.200	-0.410	-0.890
2020/01/31 19:42:25.0	3.910	0.150	-0.210	-0.810
2020/01/31 19:42:25.1	3.900	0.090	-0.000	-0.730
2020/01/31 19:42:25.2	3.890	0.020	0.200	-0.650
2020/01/31 19:42:25.3	3.870	-0.040	0.400	-0.580
2020/01/31 19:42:25.4	3.850	-0.100	0.590	-0.500
2020/01/31 19:42:25.5	3.830	-0.160	0.770	-0.420
2020/01/31 19:42:25.6	3.800	-0.220	0.940	-0.340
2020/01/31 19:42:25.7	3.770	-0.280	1.100	-0.270
2020/01/31 19:42:25.8	3.740	-0.340	1.250	-0.200
2020/01/31 19:42:25.9	3.720	-0.400	1.380	-0.140
2020/01/31 19:42:26.0	3.690	-0.450	1.500	-0.080
2020/01/31 19:42:26.1	3.660	-0.500	1.610	-0.020
2020/01/31 19:42:26.2	3.620	-0.550	1.690	0.030
2020/01/31 19:42:26.3	3.590	-0.590	1.760	0.070
2020/01/31 19:42:26.4	3.560	-0.620	1.810	0.120
2020/01/31 19:42:26.5	3.520	-0.650	1.850	0.150
2020/01/31 19:42:26.6	3.490	-0.680	1.860	0.180
2020/01/31 19:42:26.7	3.450	-0.700	1.860	0.210
2020/01/31 19:42:26.8	3.410	-0.710	1.850	0.230
2020/01/31 19:42:26.9	3.380	-0.720	1.810	0.250
2020/01/31 19:42:27.0	3.340	-0.720	1.760	0.270
2020/01/31 19:42:27.1	3.310	-0.720	1.700	0.280
2020/01/31 19:42:27.2	3.270	-0.710	1.620	0.290
2020/01/31 19:42:27.3	3.240	-0.700	1.530	0.290
2020/01/31 19:42:27.4	3.200	-0.680	1.420	0.290
2020/01/31 19:42:27.5	3.170	-0.650	1.310	0.290
2020/01/31 19:42:27.6	3.140	-0.620	1.180	0.290
2020/01/31 19:42:27.7	3.100	-0.590	1.050	0.290
2020/01/31 19:42:27.8	3.070	-0.550	0.920	0.290
2020/01/31 19:42:27.9	3.030	-0.510	0.770	0.290
2020/01/31 19:42:28.0	2.990	-0.460	0.630	0.290
2020/01/31 19:42:28.1	2.960	-0.420	0.480	0.280
2020/01/31 19:42:28.2	2.930	-0.370	0.320	0.280
2020/01/31 19:42:28.3	2.900	-0.320	0.170	0.270
2020/01/31 19:42:28.4	2.870	-0.260	0.020	0.270
2020/01/31 19:42:28.5	2.840	-0.210	-0.130	0.260
2020/01/31 19:42:28.6	2.810	-0.160	-0.270	0.250
2020/01/31 19:42:28.7	2.780	-0.110	-0.410	0.230
2020/01/31 19:42:28.8	2.760	-0.060	-0.550	0.220
2020/01/31 19:42:28.9	2.750	-0.010	-0.680	0.200
2020/01/31 19:42:29.0	2.730	0.040	-0.800	0.180
2020/01/31 19:42:29.1	2.710	0.080	-0.920	0.150
2020/01/31 19:42:29.2	2.700	0.130	-1.030	0.120
2020/01/31 19:42:29.3	2.680	0.160	-1.120	0.100
2020/01/31 19:42:29.4	2.680	0.200	-1.210	0.060
2020/01/31 19:42:29.5	2.670	0.230	-1.290	0.030
2020/01/31 19:42:29.6	2.660	0.260	-1.350	-0.010
2020/01/31 19:42:29.7	2.660	0.280	-1.410	-0.040
2020/01/31 19:42:29.8	2.670	0.300	-1.460	-0.080
2020/01/31 19:42:29.9	2.660	0.310	-1.490	-0.130
2020/01/31 19:42:30.0	2.670	0.320	-1.520	-0.170
2020/01/31 19:42:30.1	2.680	0.330	-1.530	-0.210
2020/01/31 19:42:30.2	2.700	0.330	-1.540	-0.260
2020/01/31 19:42:30.3	2.720	0.330	-1.540	-0.300
2020/01/31 19:42:30.4	2.740	0.320	-1.530	-0.350
2020/01/31 19:42:30.5	2.760	0.310	-1.510	-0.390
2020/01/31 19:42:30.6	2.790	0.300	-1.480	-0.440
2020/01/31 19:42:30.7	2.820	0.280	-1.440	-0.480
2020/01/31 19:42:30.8	2.850	0.260	-1.400	-0.520
2020/01/31 19:42:30.9	2.880	0.240	-1.360	-0.570
2020/01/31 19:42:31.0	2.910	0.220	-1.300	-0.610
2020/01/31 19:42:31.1	2.950	0.200	-1.240	-0.640
2020/01/31 19:42:31.2	2.990	0.170	-1.180	-0.680
2020/01/31 19:42:31.3	3.030	0.150	-1.110	-0.710
2020/01/31 19:42:31.4	3.070	0.120	-1.050	-0.740
2020/01/31 19:42:31.5	3.100	0.100	-0.970	-0.770
2020/01/31 19:42:31.6	3.140	0.070	-0.900	-0.790
2020/01/31 19:42:31.7	3.180	0.050	-0.830	-0.810
2020/01/31 19:42:31.8	3.220	0.020	-0.760	-0.830
2020/01/31 19:42:31.9	3.260	-0.000	-0.690	-0.840
2020/01/31 19:42:32.0	3.300	-0.020	-0.620	-0.860
2020/01/31 19:42:32.1	3.330	-0.040	-0.550	-0.860
2020/01/31 19:42:32.2	3.370	-0.060	-0.490	-0.870
2020/01/31 19:42:32.3	3.400	-0.070	-0.430	-0.870
2020/01/31 19:42:32.4	3.440	-0.080	-0.380	-0.870
2020/01/31 19:42:32.5	3.470	-0.090	-0.330	-0.870
2020/01/31 19:42:32.6	3.500	-0.100	-0.280	-0.870
2020/01/31 19:42:32.7	3.530	-0.100	-0.240	-0.860
2020/01/31 19:42:32.8	3.570	-0.100	-0.200	-0.850
2020/01/31 19:42:32.9	3.600	-0.100	-0.170	-0.840
2020/01/31 19:42:33.0	3.630	-0.090	-0.140	-0.830
2020/01/31 19:42:33.1	3.660	-0.080	-0.120	-0.820
2020/01/31 19:42:33.2	3.690	-0.070	-0.110	-0.800
2020/01/31 19:42:33.3	3.710	-0.050	-0.090	-0.780
2020/01/31 19:42:33.4	3.740	-0.040	-0.080	-0.760
2020/01/31 19:42:33.5	3.770	-0.020	-0.070	-0.740
2020/01/31 19:42:33.6	3.790	0.000	-0.070	-0.720
2020/01/31 19:42:33.7	3.810	0.030	-0.070	-0.700
2020/01/31 19:42:33.8	3.830	0.050	-0.070	-0.670
2020/01/31 19:42:33.9	3.850	0.080	-0.070	-0.650
2020/01/31 19:42:34.0	3.860	0.100	-0.070	-0.620
2020/01/31 19:42:34.1	3.880	0.130	-0.070	-0.590
2020/01/31 19:42:34.2	3.890	0.160	-0.080	-0.560
2020/01/31 19:42:34.3	3.900	0.180	-0.080	-0.530
2020/01/31 19:42:34.4	3.910	0.210	-0.080	-0.500
2020/01/31 19:42:34.5	3.910	0.230	-0.070	-0.460
2020/01/31 19:42:34.6	3.910	0.250	-0.070	-0.420
2020/01/31 19:42:34.7	3.900	0.270	-0.060	-0.380
2020/01/31 19:42:34.8	3.890	0.290	-0.060	-0.340
2020/01/31 19:42:34.9	3.880	0.300	-0.040	-0.300
2020/01/31 19:42:35.0	3.870	0.320	-0.030	-0.250
2020/01/31 19:42:35.1	3.840	0.320	-0.010	-0.200
2020/01/31 19:42:35.2	3.820	0.330	0.010	-0.150
2020/01/31 19:42:35.3	3.790	0.330	0.030	-0.090
2020/01/31 19:42:35.4	3.750	0.330	0.060	-0.040
2020/01/31 19:42:35.5	3.710	0.330	0.090	0.020
2020/01/31 19:42:35.6	3.670	0.320	0.120	0.080
2020/01/31 19:42:35.7	3.620	0.310	0.150	0.130
2020/01/31 19:42:35.8	3.570	0.300	0.190	0.190
2020/01/31 19:42:35.9	3.510	0.280	0.220	0.250
2020/01/31 19:42:36.0	3.450	0.260	0.260	0.300
2020/01/31 19:42:36.1	3.400	0.230	0.290	0.350
2020/01/31 19:42:36.2	3.340	0.200	0.330	0.390
2020/01/31 19:42:36.3	3.280	0.170	0.360	0.430
2020/01/31 19:42:36.4	3.220	0.140	0.390	0.460
2020/01/31 19:42:36.5	3.160	0.100	0.420	0.490
2020/01/31 19:42:36.6	3.110	0.060	0.450	0.510
2020/01/31 19:42:36.7	3.050	0.020	0.470	0.520
2020/01/31 19:42:36.8	3.000	-0.020	0.490	0.530
2020/01/31 19:42:36.9	2.950	-0.060	0.500	0.520
2020/01/31 19:42:37.0	2.900	-0.100	0.510	0.510
2020/01/31 19:42:37.1	2.860	-0.140	0.510	0.490
2020/01/31 19:42:37.2	2.820	-0.180	0.510	0.470
2020/01/31 19:42:37.3	2.780	-0.220	0.500	0.430
2020/01/31 19:42:37.4	2.750	-0.260	0.480	0.390
2020/01/31 19:42:37.5	2.720	-0.290	0.460	0.350
2020/01/31 19:42:37.6	2.690	-0.320	0.430	0.300
2020/01/31 19:42:37.7	2.670	-0.350	0.390	0.240
2020/01/31 19:42:37.8	2.650	-0.380	0.350	0.180
2020/01/31 19:42:37.9	2.640	-0.400	0.300	0.120
2020/01/31 19:42:38.0	2.630	-0.420	0.240	0.050
2020/01/31 19:42:38.1	2.630	-0.430	0.180	-0.010
2020/01/31 19:42:38.2	2.630	-0.440	0.110	-0.080
2020/01/31 19:42:38.3	2.630	-0.450	0.040	-0.140
2020/01/31 19:42:38.4	2.640	-0.450	-0.030	-0.210
2020/01/31 19:42:38.5	2.660	-0.440	-0.100	-0.280
2020/01/31 19:42:38.6	2.670	-0.430	-0.180	-0.340
2020/01/31 19:42:38.7	2.700	-0.420	-0.260	-0.400
2020/01/31 19:42:38.8	2.720	-0.400	-0.340	-0.460
2020/01/31 19:42:38.9	2.740	-0.370	-0.420	-0.530
2020/01/31 19:42:39.0	2.770	-0.350	-0.500	-0.590
2020/01/31 19:42:39.1	2.800	-0.310	-0.570	-0.640
2020/01/31 19:42:39.2	2.830	-0.280	-0.650	-0.700
2020/01/31 19:42:39.3	2.870	-0.240	-0.720	-0.750
2020/01/31 19:42:39.4	2.910	-0.200	-0.790	-0.800
2020/01/31 19:42:39.5	2.950	-0.150	-0.850	-0.850
2020/01/31 19:42:39.6	2.990	-0.110	-0.910	-0.890
2020/01/31 19:42:39.7	3.030	-0.060	-0.960	-0.930
2020/01/31 19:42:39.8	3.080	-0.010	-1.010	-0.960
2020/01/31 19:42:39.9	3.110	0.040	-1.050	-1.000
2020/01/31 19:42:40.0	3.160	0.090	-1.090	-1.020
2020/01/31 19:42:40.1	3.200	0.140	-1.110	-1.040
2020/01/31 19:42:40.2	3.250	0.180	-1.130	-1.060
2020/01/31 19:42:40.3	3.290	0.230	-1.150	-1.070
2020/01/31 19:42:40.4	3.330	0.280	-1.150	-1.080
2020/01/31 19:42:40.5	3.370	0.320	-1.150	-1.070
2020/01/31 19:42:40.6	3.410	0.360	-1.140	-1.070
2020/01/31 19:42:40.7	3.450	0.400	-1.120	-1.050
2020/01/31 19:42:40.8	3.480	0.430	-1.100	-1.040
2020/01/31 19:42:40.9	3.530	0.460	-1.070	-1.010
2020/01/31 19:42:41.0	3.560	0.490	-1.030	-0.980
2020/01/31 19:42:41.1	3.580	0.510	-0.990	-0.950
2020/01/31 19:42:41.2	3.610	0.530	-0.940	-0.910
2020/01/31 19:42:41.3	3.630	0.540	-0.880	-0.870
2020/01/31 19:42:41.4	3.640	0.540	-0.830	-0.820
2020/01/31 19:42:41.5	3.660	0.550	-0.760	-0.770
2020/01/31 19:42:41.6	3.660	0.540	-0.690	-0.710
2020/01/31 19:42:41.7	3.670	0.530	-0.620	-0.660
2020/01/31 19:42:41.8	3.670	0.520	-0.550	-0.600
2020/01/31 19:42:41.9	3.670	0.500	-0.480	-0.540
2020/01/31 19:42:42.0	3.670	0.480	-0.400	-0.480
2020/01/31 19:42:42.1	3.660	0.450	-0.330	-0.430
2020/01/31 19:42:42.2	3.650	0.420	-0.250	-0.370
2020/01/31 19:42:42.3	3.640	0.390	-0.180	-0.320
2020/01/31 19:42:42.4	3.630	0.350	-0.120	-0.280
2020/01/31 19:42:42.5	3.610	0.310	-0.050	-0.240
2020/01/31 19:42:42.6	3.600	0.270	0.010	-0.200
2020/01/31 19:42:42.7	3.580	0.220	0.060	-0.170
2020/01/31 19:42:42.8	3.570	0.180	0.110	-0.140
2020/01/31 19:42:42.9	3.560	0.130	0.150	-0.120
2020/01/31 19:42:43.0	3.550	0.090	0.190	-0.100
2020/01/31 19:42:43.1	3.540	0.050	0.220	-0.090
2020/01/31 19:42:43.2	3.530	0.000	0.240	-0.080
2020/01/31 19:42:43.3	3.520	-0.040	0.260	-0.080
2020/01/31 19:42:43.4	3.510	-0.080	0.270	-0.080
2020/01/31 19:42:43.5	3.510	-0.120	0.280	-0.080
2020/01/31 19:42:43.6	3.500	-0.160	0.280	-0.090
2020/01/31 19:42:43.7	3.500	-0.190	0.270	-0.100
2020/01/31 19:42:43.8	3.490	-0.220	0.260	-0.110
2020/01/31 19:42:43.9	3.480	-0.250	0.250	-0.120
2020/01/31 19:42:44.0	3.470	-0.280	0.240	-0.130
2020/01/31 19:42:44.1	3.460	-0.300	0.220	-0.140
2020/01/31 19:42:44.2	3.450	-0.330	0.200	-0.150
2020/01/31 19:42:44.3	3.430	-0.350	0.180	-0.160
2020/01/31 19:42:44.4	3.420	-0.360	0.160	-0.170
2020/01/31 19:42:44.5	3.400	-0.380	0.140	-0.180
2020/01/31 19:42:44.6	3.380	-0.400	0.120	-0.190
2020/01/31 19:42:44.7	3.360	-0.410	0.100	-0.200
2020/01/31 19:42:44.8	3.330	-0.420	0.080	-0.200
2020/01/31 19:42:44.9	3.300	-0.430	0.050	-0.220
2020/01/31 19:42:45.0	3.270	-0.440	0.040	-0.220
2020/01/31 19:42:45.1	3.240	-0.440	0.020	-0.230
2020/01/31 19:42:45.2	3.210	-0.450	0.000	-0.240
2020/01/31 19:42:45.3	3.180	-0.450	-0.010	-0.250
2020/01/31 19:42:45.4	3.150	-0.460	-0.030	-0.260
2020/01/31 19:42:45.5	3.110	-0.460	-0.040	-0.260
2020/01/31 19:42:45.6	3.080	-0.460	-0.050	-0.270
2020/01/31 19:42:45.7	3.040	-0.460	-0.060	-0.270
2020/01/31 19:42:45.8	3.010	-0.460	-0.070	-0.280
2020/01/31 19:42:45.9	2.970	-0.460	-0.080	-0.280
2020/01/31 19:42:46.0	2.940	-0.450	-0.090	-0.290
2020/01/31 19:42:46.1	2.910	-0.450	-0.090	-0.290
2020/01/31 19:42:46.2	2.880	-0.440	-0.100	-0.290
2020/01/31 19:42:46.3	2.850	-0.430	-0.110	-0.290
2020/01/31 19:42:46.4	2.820	-0.420	-0.120	-0.290
2020/01/31 19:42:46.5	2.800	-0.410	-0.130	-0.290
2020/01/31 19:42:46.6	2.780	-0.390	-0.140	-0.290
2020/01/31 19:42:46.7	2.760	-0.380	-0.150	-0.290
2020/01/31 19:42:46.8	2.750	-0.360	-0.170	-0.290
2020/01/31 19:42:46.9	2.740	-0.340	-0.190	-0.290
2020/01/31 19:42:47.0	2.740	-0.320	-0.200	-0.290
2020/01/31 19:42:47.1	2.730	-0.290	-0.230	-0.290
2020/01/31 19:42:47.2	2.730	-0.270	-0.250	-0.300
2020/01/31 19:42:47.3	2.740	-0.240	-0.270	-0.300
2020/01/31 19:42:47.4	2.750	-0.210	-0.300	-0.300
2020/01/31 19:42:47.5	2.760	-0.180	-0.330	-0.310
2020/01/31 19:42:47.6	2.780	-0.140	-0.360	-0.310
2020/01/31 19:42:47.7	2.800	-0.110	-0.390	-0.320
2020/01/31 19:42:47.8	2.830	-0.070	-0.420	-0.330
2020/01/31 19:42:47.9	2.840	-0.030	-0.460	-0.330
2020/01/31 19:42:48.0	2.870	0.000	-0.490	-0.340
2020/01/31 19:42:48.1	2.900	0.040	-0.520	-0.340
2020/01/31 19:42:48.2	2.940	0.080	-0.550	-0.350
2020/01/31 19:42:48.3	2.970	0.120	-0.580	-0.350
2020/01/31 19:42:48.4	3.010	0.160	-0.600	-0.360
2020/01/31 19:42:48.5	3.040	0.200	-0.630	-0.360
2020/01/31 19:42:48.6	3.080	0.240	-0.650	-0.360
2020/01/31 19:42:48.7	3.110	0.280	-0.670	-0.360
2020/01/31 19:42:48.8	3.150	0.320	-0.680	-0.360
2020/01/31 19:42:48.9	3.170	0.350	-0.700	-0.360
2020/01/31 19:42:49.0	3.210	0.390	-0.710	-0.350
2020/01/31 19:42:49.1	3.230	0.420	-0.710	-0.330
2020/01/31 19:42:49.2	3.260	0.450	-0.710	-0.320
2020/01/31 19:42:49.3	3.280	0.480	-0.710	-0.300
2020/01/31 19:42:49.4	3.310	0.500	-0.700	-0.270
2020/01/31 19:42:49.5	3.320	0.520	-0.690	-0.250
2020/01/31 19:42:49.6	3.340	0.540	-0.680	-0.220
2020/01/31 19:42:49.7	3.360	0.560	-0.660	-0.190
2020/01/31 19:42:49.8	3.370	0.570	-0.650	-0.160
2020/01/31 19:42:49.9	3.370	0.580	-0.620	-0.130
2020/01/31 19:42:50.0	3.380	0.590	-0.600	-0.090
2020/01/31 19:42:50.1	3.390	0.590	-0.570	-0.060
2020/01/31 19:42:50.2	3.390	0.600	-0.550	-0.030
2020/01/31 19:42:50.3	3.400	0.590	-0.520	0.010
2020/01/31 19:42:50.4	3.400	0.590	-0.490	0.040
2020/01/31 19:42:50.5	3.400	0.580	-0.460	0.070
2020/01/31 19:42:50.6	3.400	0.570	-0.430	0.100
2020/01/31 19:42:50.7	3.410	0.560	-0.410	0.120
2020/01/31 19:42:50.8	3.410	0.540	-0.380	0.140
2020/01/31 19:42:50.9	3.400	0.520	-0.360	0.160
2020/01/31 19:42:51.0	3.410	0.510	-0.330	0.180
2020/01/31 19:42:51.1	3.410	0.490	-0.310	0.190
2020/01/31 19:42:51.2	3.420	0.460	-0.280	0.200
2020/01/31 19:42:51.3	3.420	0.440	-0.260	0.210
2020/01/31 19:42:51.4	3.430	0.420	-0.240	0.220
2020/01/31 19:42:51.5	3.430	0.390	-0.220	0.220
2020/01/31 19:42:51.6	3.440	0.370	-0.210	0.210
2020/01/31 19:42:51.7	3.450	0.340	-0.190	0.210
2020/01/31 19:42:51.8	3.450	0.320	-0.180	0.200
2020/01/31 19:42:51.9	3.450	0.290	-0.160	0.190
2020/01/31 19:42:52.0	3.450	0.270	-0.150	0.180
2020/01/31 19:42:52.1	3.450	0.250	-0.130	0.170
2020/01/31 19:42:52.2	3.460	0.220	-0.120	0.160
2020/01/31 19:42:52.3	3.460	0.200	-0.100	0.150
2020/01/31 19:42:52.4	3.460	0.170	-0.090	0.130
2020/01/31 19:42:52.5	3.450	0.150	-0.070	0.120
2020/01/31 19:42:52.6	3.450	0.130	-0.050	0.110
2020/01/31 19:42:52.7	3.440	0.110	-0.030	0.100
2020/01/31 19:42:52.8	3.430	0.080	-0.010	0.090
2020/01/31 19:42:52.9	3.440	0.060	0.010	0.080
2020/01/31 19:42:53.0	3.420	0.040	0.040	0.070
2020/01/31 19:42:53.1	3.410	0.010	0.070	0.060
2020/01/31 19:42:53.2	3.390	-0.010	0.100	0.060
2020/01/31 19:42:53.3	3.370	-0.030	0.130	0.050
2020/01/31 19:42:53.4	3.360	-0.060	0.160	0.040
2020/01/31 19:42:53.5	3.330	-0.080	0.190	0.040
2020/01/31 19:42:53.6	3.310	-0.100	0.220	0.030
2020/01/31 19:42:53.7	3.290	-0.130	0.260	0.030
2020/01/31 19:42:53.8	3.260	-0.150	0.290	0.020
2020/01/31 19:42:53.9	3.250	-0.180	0.320	0.020
2020/01/31 19:42:54.0	3.220	-0.210	0.350	0.020
2020/01/31 19:42:54.1	3.190	-0.230	0.380	0.010
2020/01/31 19:42:54.2	3.170	-0.260	0.400	0.010
2020/01/31 19:42:54.3	3.140	-0.290	0.420	-0.000
2020/01/31 19:42:54.4	3.110	-0.310	0.440	-0.010
2020/01/31 19:42:54.5	3.080	-0.340	0.460	-0.020
2020/01/31 19:42:54.6	3.050	-0.360	0.470	-0.030
2020/01/31 19:42:54.7	3.030	-0.390	0.470	-0.040
2020/01/31 19:42:54.8	3.000	-0.410	0.470	-0.050
2020/01/31 19:42:54.9	2.980	-0.430	0.470	-0.060
2020/01/31 19:42:55.0	2.950	-0.450	0.460	-0.070
2020/01/31 19:42:55.1	2.920	-0.470	0.440	-0.090
2020/01/31 19:42:55.2	2.900	-0.490	0.420	-0.100
2020/01/31 19:42:55.3	2.880	-0.500	0.390	-0.120
2020/01/31 19:42:55.4	2.850	-0.510	0.360	-0.140
2020/01/31 19:42:55.5	2.830	-0.520	0.320	-0.160
2020/01/31 19:42:55.6	2.820	-0.530	0.270	-0.180
2020/01/31 19:42:55.7	2.800	-0.530	0.220	-0.200
2020/01/31 19:42:55.8	2.780	-0.530	0.170	-0.220
2020/01/31 19:42:55.9	2.780	-0.530	0.110	-0.250
2020/01/31 19:42:56.0	2.770	-0.520	0.050	-0.270
2020/01/31 19:42:56.1	2.770	-0.510	-0.020	-0.300
2020/01/31 19:42:56.2	2.760	-0.500	-0.090	-0.330
2020/01/31 19:42:56.3	2.760	-0.480	-0.160	-0.360
2020/01/31 19:42:56.4	2.760	-0.460	-0.240	-0.390
2020/01/31 19:42:56.5	2.760	-0.430	-0.310	-0.420
2020/01/31 19:42:56.6	2.760	-0.400	-0.390	-0.450
2020/01/31 19:42:56.7	2.770	-0.370	-0.460	-0.480
2020/01/31 19:42:56.8	2.780	-0.340	-0.540	-0.510
2020/01/31 19:42:56.9	2.770	-0.300	-0.610	-0.540
2020/01/31 19:42:57.0	2.780	-0.260	-0.680	-0.560
2020/01/31 19:42:57.1	2.800	-0.210	-0.750	-0.590
2020/01/31 19:42:57.2	2.820	-0.170	-0.810	-0.610
2020/01/31 19:42:57.3	2.830	-0.120	-0.870	-0.630
2020/01/31 19:42:57.4	2.860	-0.070	-0.920	-0.650
2020/01/31 19:42:57.5	2.880	-0.020	-0.970	-0.670
2020/01/31 19:42:57.6	2.900	0.030	-1.020	-0.690
2020/01/31 19:42:57.7	2.930	0.080	-1.060	-0.700
2020/01/31 19:42:57.8	2.960	0.130	-1.090	-0.710
2020/01/31 19:42:57.9	2.990	0.190	-1.120	-0.720
2020/01/31 19:42:58.0	3.030	0.240	-1.140	-0.730
2020/01/31 19:42:58.1	3.060	0.290	-1.150	-0.730
2020/01/31 19:42:58.2	3.100	0.330	-1.160	-0.730
2020/01/31 19:42:58.3	3.140	0.380	-1.160	-0.730
2020/01/31 19:42:58.4	3.170	0.420	-1.160	-0.720
2020/01/31 19:42:58.5	3.210	0.460	-1.150	-0.710
2020/01/31 19:42:58.6	3.250	0.500	-1.130	-0.700
2020/01/31 19:42:58.7	3.290	0.530	-1.110	-0.680
2020/01/31 19:42:58.8	3.320	0.560	-1.080	-0.660
2020/01/31 19:42:58.9	3.360	0.590	-1.050	-0.630
2020/01/31 19:42:59.0	3.390	0.610	-1.010	-0.600
2020/01/31 19:42:59.1	3.420	0.630	-0.970	-0.570
2020/01/31 19:42:59.2	3.440	0.640	-0.920	-0.530
2020/01/31 19:42:59.3	3.460	0.650	-0.870	-0.490
2020/01/31 19:42:59.4	3.480	0.650	-0.820	-0.440
2020/01/31 19:42:59.5	3.490	0.650	-0.760	-0.400
2020/01/31 19:42:59.6	3.500	0.640	-0.700	-0.350
2020/01/31 19:42:59.7	3.510	0.630	-0.640	-0.300
2020/01/31 19:42:59.8	3.510	0.610	-0.580	-0.250
2020/01/31 19:42:59.9	3.510	0.590	-0.530	-0.200
2020/01/31 19:43:00.0	3.510	0.560	-0.470	-0.150
2020/01/31 19:43:00.1	3.500	0.530	-0.410	-0.100
2020/01/31 19:43:00.2	3.500	0.500	-0.350	-0.060
2020/01/31 19:43:00.3	3.480	0.460	-0.290	-0.020
2020/01/31 19:43:00.4	3.470	0.420	-0.240	0.010
2020/01/31 19:43:00.5	3.460	0.380	-0.190	0.050
2020/01/31 19:43:00.6	3.440	0.340	-0.150	0.070
2020/01/31 19:43:00.7	3.420	0.290	-0.100	0.100
2020/01/31 19:43:00.8	3.400	0.240	-0.060	0.110
2020/01/31 19:43:00.9	3.390	0.190	-0.030	0.120
2020/01/31 19:43:01.0	3.370	0.140	0.000	0.130
2020/01/31 19:43:01.1	3.350	0.090	0.030	0.130
2020/01/31 19:43:01.2	3.330	0.040	0.050	0.130
2020/01/31 19:43:01.3	3.310	-0.010	0.060	0.120
2020/01/31 19:43:01.4	3.290	-0.050	0.080	0.110
2020/01/31 19:43:01.5	3.270	-0.100	0.080	0.090
2020/01/31 19:43:01.6	3.250	-0.140	0.090	0.070
2020/01/31 19:43:01.7	3.230	-0.190	0.090	0.040
2020/01/31 19:43:01.8	3.210	-0.230	0.090	0.010
2020/01/31 19:43:01.9	3.200	-0.270	0.080	-0.020
2020/01/31 19:43:02.0	3.190	-0.300	0.080	-0.050
2020/01/31 19:43:02.1	3.170	-0.340	0.070	-0.080
2020/01/31 19:43:02.2	3.150	-0.370	0.050	-0.120
2020/01/31 19:43:02.3	3.140	-0.390	0.040	-0.150
2020/01/31 19:43:02.4	3.130	-0.420	0.030	-0.190
2020/01/31 19:43:02.5	3.110	-0.440	0.020	-0.220
2020/01/31 19:43:02.6	3.100	-0.460	0.010	-0.260
2020/01/31 19:43:02.7	3.100	-0.480	-0.000	-0.300
2020/01/31 19:43:02.8	3.090	-0.490	-0.010	-0.330
2020/01/31 19:43:02.9	3.090	-0.500	-0.020	-0.380
2020/01/31 19:43:03.0	3.080	-0.510	-0.030	-0.410
2020/01/31 19:43:03.1	3.090	-0.510	-0.040	-0.450
2020/01/31 19:43:03.2	3.090	-0.510	-0.050	-0.490
2020/01/31 19:43:03.3	3.100	-0.510	-0.060	-0.530
2020/01/31 19:43:03.4	3.110	-0.510	-0.060	-0.560
2020/01/31 19:43:03.5	3.120	-0.500	-0.070	-0.600
2020/01/31 19:43:03.6	3.130	-0.490	-0.070	-0.640
2020/01/31 19:43:03.7	3.150	-0.480	-0.070	-0.670
2020/01/31 19:43:03.8	3.170	-0.460	-0.080	-0.700
2020/01/31 19:43:03.9	3.200	-0.450	-0.080	-0.730
2020/01/31 19:43:04.0	3.220	-0.430	-0.080	-0.750
2020/01/31 19:43:04.1	3.250	-0.410	-0.080	-0.780
2020/01/31 19:43:04.2	3.270	-0.380	-0.080	-0.790
2020/01/31 19:43:04.3	3.300	-0.360	-0.080	-0.800
2020/01/31 19:43:04.4	3.320	-0.330	-0.070	-0.810
2020/01/31 19:43:04.5	3.340	-0.300	-0.070	-0.810
2020/01/31 19:43:04.6	3.370	-0.270	-0.060	-0.810
2020/01/31 19:43:04.7	3.390	-0.240	-0.050	-0.790
2020/01/31 19:43:04.8	3.400	-0.210	-0.040	-0.770
2020/01/31 19:43:04.9	3.410	-0.180	-0.030	-0.750
2020/01/31 19:43:05.0	3.420	-0.140	-0.010	-0.710
2020/01/31 19:43:05.1	3.430	-0.110	0.010	-0.670
2020/01/31 19:43:05.2	3.440	-0.080	0.030	-0.620
2020/01/31 19:43:05.3	3.440	-0.040	0.050	-0.570
2020/01/31 19:43:05.4	3.430	-0.010	0.080	-0.510
2020/01/31 19:43:05.5	3.420	0.020	0.100	-0.440
2020/01/31 19:43:05.6	3.410	0.060	0.130	-0.360
2020/01/31 19:43:05.7	3.390	0.090	0.160	-0.280
2020/01/31 19:43:05.8	3.370	0.110	0.190	-0.200
2020/01/31 19:43:05.9	3.360	0.140	0.220	-0.110
2020/01/31 19:43:06.0	3.330	0.170	0.250	-0.020
2020/01/31 19:43:06.1	3.300	0.190	0.280	0.080
2020/01/31 19:43:06.2	3.260	0.210	0.310	0.170
2020/01/31 19:43:06.3	3.220	0.230	0.340	0.270
2020/01/31 19:43:06.4	3.180	0.250	0.360	0.360
2020/01/31 19:43:06.5	3.140	0.260	0.380	0.460
2020/01/31 19:43:06.6	3.090	0.280	0.400	0.550
2020/01/31 19:43:06.7	3.040	0.290	0.410	0.640
2020/01/31 19:43:06.8	3.000	0.300	0.420	0.730
2020/01/31 19:43:06.9	2.950	0.300	0.420	0.810
2020/01/31 19:43:07.0	2.900	0.300	0.420	0.890
2020/01/31 19:43:07.1	2.850	0.310	0.410	0.960
2020/01/31 19:43:07.2	2.800	0.310	0.400	1.020
2020/01/31 19:43:07.3	2.760	0.300	0.370	1.080
2020/01/31 19:43:07.4	2.720	0.300	0.340	1.130
2020/01/31 19:43:07.5	2.670	0.290	0.310	1.170
2020/01/31 19:43:07.6	2.640	0.290	0.270	1.200
2020/01/31 19:43:07.7	2.600	0.280	0.220	1.220
2020/01/31 19:43:07.8	2.570	0.270	0.160	1.230
2020/01/31 19:43:07.9	2.550	0.260	0.100	1.230
2020/01/31 19:43:08.0	2.530	0.260	0.030	1.220
2020/01/31 19:43:08.1	2.520	0.250	-0.050	1.200
2020/01/31 19:43:08.2	2.510	0.240	-0.130	1.180
2020/01/31 19:43:08.3	2.500	0.230	-0.220	1.140
2020/01/31 19:43:08.4	2.510	0.220	-0.310	1.100
2020/01/31 19:43:08.5	2.510	0.220	-0.400	1.040
2020/01/31 19:43:08.6	2.530	0.210	-0.500	0.980
2020/01/31 19:43:08.7	2.550	0.210	-0.600	0.910
2020/01/31 19:43:08.8	2.570	0.200	-0.700	0.840
2020/01/31 19:43:08.9	2.600	0.200	-0.800	0.750
2020/01/31 19:43:09.0	2.630	0.200	-0.910	0.660
2020/01/31 19:43:09.1	2.670	0.200	-1.010	0.570
2020/01/31 19:43:09.2	2.720	0.200	-1.110	0.470
2020/01/31 19:43:09.3	2.770	0.200	-1.200	0.370
2020/01/31 19:43:09.4	2.830	0.200	-1.290	0.260
2020/01/31 19:43:09.5	2.880	0.200	-1.380	0.150
2020/01/31 19:43:09.6	2.950	0.200	-1.460	0.040
2020/01/31 19:43:09.7	3.010	0.200	-1.530	-0.070
2020/01/31 19:43:09.8	3.080	0.200	-1.590	-0.180
2020/01/31 19:43:09.9	3.150	0.200	-1.650	-0.300
2020/01/31 19:43:10.0	3.220	0.200	-1.700	-0.420
2020/01/31 19:43:10.1	3.290	0.190	-1.740	-0.530
2020/01/31 19:43:10.2	3.350	0.190	-1.770	-0.640
2020/01/31 19:43:10.3	3.420	0.190	-1.790	-0.750
2020/01/31 19:43:10.4	3.490	0.180	-1.800	-0.850
2020/01/31 19:43:10.5	3.550	0.170	-1.800	-0.950
2020/01/31 19:43:10.6	3.610	0.160	-1.790	-1.050
2020/01/31 19:43:10.7	3.670	0.150	-1.770	-1.140
2020/01/31 19:43:10.8	3.720	0.140	-1.740	-1.220
2020/01/31 19:43:10.9	3.770	0.130	-1.690	-1.300
2020/01/31 19:43:11.0	3.810	0.110	-1.640	-1.370
2020/01/31 19:43:11.1	3.850	0.090	-1.580	-1.440
2020/01/31 19:43:11.2	3.880	0.070	-1.510	-1.490
2020/01/31 19:43:11.3	3.910	0.050	-1.430	-1.530
2020/01/31 19:43:11.4	3.940	0.030	-1.350	-1.570
2020/01/31 19:43:11.5	3.950	0.000	-1.250	-1.600
2020/01/31 19:43:11.6	3.970	-0.020	-1.150	-1.620
2020/01/31 19:43:11.7	3.980	-0.050	-1.040	-1.640
2020/01/31 19:43:11.8	3.980	-0.080	-0.930	-1.640
2020/01/31 19:43:11.9	3.970	-0.100	-0.820	-1.640
2020/01/31 19:43:12.0	3.960	-0.130	-0.700	-1.630
2020/01/31 19:43:12.1	3.950	-0.160	-0.570	-1.610
2020/01/31 19:43:12.2	3.940	-0.190	-0.450	-1.590
2020/01/31 19:43:12.3	3.920	-0.220	-0.320	-1.560
2020/01/31 19:43:12.4	3.900	-0.240	-0.200	-1.520
2020/01/31 19:43:12.5	3.880	-0.270	-0.080	-1.480
2020/01/31 19:43:12.6	3.860	-0.290	0.040	-1.440
2020/01/31 19:43:12.7	3.830	-0.320	0.160	-1.390
2020/01/31 19:43:12.8	3.810	-0.330	0.270	-1.330
2020/01/31 19:43:12.9	3.780	-0.350	0.380	-1.280
2020/01/31 19:43:13.0	3.750	-0.370	0.470	-1.220
2020/01/31 19:43:13.1	3.720	-0.380	0.570	-1.160
2020/01/31 19:43:13.2	3.690	-0.390	0.650	-1.100
2020/01/31 19:43:13.3	3.670	-0.390	0.730	-1.040
2020/01/31 19:43:13.4	3.640	-0.390	0.790	-0.970
2020/01/31 19:43:13.5	3.620	-0.390	0.850	-0.910
2020/01/31 19:43:13.6	3.590	-0.380	0.900	-0.840
2020/01/31 19:43:13.7	3.570	-0.370	0.930	-0.780
2020/01/31 19:43:13.8	3.540	-0.360	0.960	-0.720
2020/01/31 19:43:13.9	3.520	-0.340	0.980	-0.650
2020/01/31 19:43:14.0	3.500	-0.320	0.990	-0.590
2020/01/31 19:43:14.1	3.480	-0.300	0.990	-0.530
2020/01/31 19:43:14.2	3.460	-0.270	0.990	-0.460
2020/01/31 19:43:14.3	3.440	-0.240	0.970	-0.400
2020/01/31 19:43:14.4	3.420	-0.210	0.950	-0.340
2020/01/31 19:43:14.5	3.400	-0.180	0.930	-0.280
2020/01/31 19:43:14.6	3.380	-0.140	0.900	-0.220
2020/01/31 19:43:14.7	3.350	-0.110	0.860	-0.160
2020/01/31 19:43:14.8	3.330	-0.080	0.820	-0.110
2020/01/31 19:43:14.9	3.290	-0.040	0.780	-0.050
2020/01/31 19:43:15.0	3.270	-0.010	0.730	0.010
2020/01/31 19:43:15.1	3.240	0.020	0.690	0.060
2020/01/31 19:43:15.2	3.210	0.060	0.640	0.110
2020/01/31 19:43:15.3	3.180	0.080	0.590	0.160
2020/01/31 19:43:15.4	3.150	0.110	0.540	0.210
2020/01/31 19:43:15.5	3.120	0.140	0.490	0.250
2020/01/31 19:43:15.6	3.090	0.160	0.440	0.300
2020/01/31 19:43:15.7	3.060	0.180	0.390	0.340
2020/01/31 19:43:15.8	3.040	0.200	0.340	0.370
2020/01/31 19:43:15.9	3.000	0.210	0.290	0.410
2020/01/31 19:43:16.0	2.980	0.220	0.240	0.440
2020/01/31 19:43:16.1	2.950	0.230	0.190	0.470
2020/01/31 19:43:16.2	2.930	0.240	0.140	0.500
2020/01/31 19:43:16.3	2.900	0.240	0.090	0.530
2020/01/31 19:43:16.4	2.880	0.240	0.040	0.550
2020/01/31 19:43:16.5	2.860	0.240	-0.000	0.580
2020/01/31 19:43:16.6	2.850	0.240	-0.050	0.600
2020/01/31 19:43:16.7	2.830	0.230	-0.100	0.620
2020/01/31 19:43:16.8	2.820	0.230	-0.150	0.630
2020/01/31 19:43:16.9	2.820	0.220	-0.200	0.650
2020/01/31 19:43:17.0	2.810	0.210	-0.250	0.660
2020/01/31 19:43:17.1	2.810	0.200	-0.310	0.660
2020/01/31 19:43:17.2	2.810	0.190	-0.360	0.670
2020/01/31 19:43:17.3	2.810	0.190	-0.410	0.670
2020/01/31 19:43:17.4	2.820	0.180	-0.470	0.670
2020/01/31 19:43:17.5	2.830	0.170	-0.520	0.670
2020/01/31 19:43:17.6	2.840	0.160	-0.580	0.660
2020/01/31 19:43:17.7	2.850	0.160	-0.630	0.650
2020/01/31 19:43:17.8	2.870	0.150	-0.680	0.640
2020/01/31 19:43:17.9	2.890	0.140	-0.730	0.620
2020/01/31 19:43:18.0	2.910	0.140	-0.780	0.600
2020/01/31 19:43:18.1	2.930	0.130	-0.830	0.580
2020/01/31 19:43:18.2	2.950	0.130	-0.870	0.550
2020/01/31 19:43:18.3	2.970	0.130	-0.910	0.520
2020/01/31 19:43:18.4	3.000	0.120	-0.950	0.490
2020/01/31 19:43:18.5	3.020	0.120	-0.980	0.450
2020/01/31 19:43:18.6	3.040	0.110	-1.000	0.410
2020/01/31 19:43:18.7	3.060	0.110	-1.020	0.370
2020/01/31 19:43:18.8	3.080	0.100	-1.030	0.330
2020/01/31 19:43:18.9	3.100	0.090	-1.040	0.280
2020/01/31 19:43:19.0	3.120	0.090	-1.050	0.240
2020/01/31 19:43:19.1	3.140	0.080	-1.040	0.200
2020/01/31 19:43:19.2	3.150	0.070	-1.030	0.150
2020/01/31 19:43:19.3	3.170	0.060	-1.020	0.110
2020/01/31 19:43:19.4	3.180	0.050	-1.000	0.070
2020/01/31 19:43:19.5	3.200	0.040	-0.970	0.030
2020/01/31 19:43:19.6	3.210	0.020	-0.940	-0.010
2020/01/31 19:43:19.7	3.220	0.000	-0.900	-0.050
2020/01/31 19:43:19.8	3.230	-0.010	-0.860	-0.080
2020/01/31 19:43:19.9	3.250	-0.030	-0.820	-0.120
2020/01/31 19:43:20.0	3.260	-0.060	-0.770	-0.150
2020/01/31 19:43:20.1	3.270	-0.080	-0.720	-0.180
2020/01/31 19:43:20.2	3.270	-0.100	-0.660	-0.210
2020/01/31 19:43:20.3	3.280	-0.130	-0.610	-0.240
2020/01/31 19:43:20.4	3.280	-0.160	-0.550	-0.260
2020/01/31 19:43:20.5	3.280	-0.190	-0.490	-0.290
2020/01/31 19:43:20.6	3.290	-0.220	-0.430	-0.310
2020/01/31 19:43:20.7	3.290	-0.250	-0.370	-0.340
2020/01/31 19:43:20.8	3.290	-0.280	-0.310	-0.360
2020/01/31 19:43:20.9	3.290	-0.310	-0.250	-0.390
2020/01/31 19:43:21.0	3.290	-0.340	-0.190	-0.410
2020/01/31 19:43:21.1	3.290	-0.370	-0.130	-0.430
2020/01/31 19:43:21.2	3.280	-0.400	-0.080	-0.450
2020/01/31 19:43:21.3	3.280	-0.430	-0.030	-0.470
2020/01/31 19:43:21.4	3.280	-0.450	0.020	-0.490
2020/01/31 19:43:21.5	3.280	-0.480	0.060	-0.510
2020/01/31 19:43:21.6	3.270	-0.500	0.100	-0.530
2020/01/31 19:43:21.7	3.270	-0.520	0.140	-0.550
2020/01/31 19:43:21.8	3.260	-0.530	0.170	-0.570
2020/01/31 19:43:21.9	3.240	-0.540	0.190	-0.580
2020/01/31 19:43:22.0	3.240	-0.550	0.210	-0.590
2020/01/31 19:43:22.1	3.230	-0.560	0.230	-0.600
2020/01/31 19:43:22.2	3.220	-0.560	0.240	-0.600
2020/01/31 19:43:22.3	3.220	-0.550	0.240	-0.600
2020/01/31 19:43:22.4	3.210	-0.540	0.240	-0.600
2020/01/31 19:43:22.5	3.200	-0.520	0.240	-0.580
2020/01/31 19:43:22.6	3.180	-0.500	0.230	-0.570
2020/01/31 19:43:22.7	3.170	-0.480	0.220	-0.550
2020/01/31 19:43:22.8	3.160	-0.450	0.210	-0.520
2020/01/31 19:43:22.9	3.150	-0.420	0.200	-0.500
2020/01/31 19:43:23.0	3.130	-0.380	0.180	-0.460
2020/01/31 19:43:23.1	3.110	-0.330	0.160	-0.430
2020/01/31 19:43:23.2	3.090	-0.290	0.140	-0.380
2020/01/31 19:43:23.3	3.070	-0.240	0.120	-0.340
2020/01/31 19:43:23.4	3.050	-0.190	0.090	-0.300
2020/01/31 19:43:23.5	3.030	-0.130	0.070	-0.250
2020/01/31 19:43:23.6	3.010	-0.070	0.040	-0.200
2020/01/31 19:43:23.7	2.980	-0.010	0.020	-0.160
2020/01/31 19:43:23.8	2.960	0.050	-0.010	-0.110
2020/01/31 19:43:23.9	2.930	0.110	-0.040	-0.060
2020/01/31 19:43:24.0	2.910	0.170	-0.070	-0.020
2020/01/31 19:43:24.1	2.890	0.230	-0.100	0.030
2020/01/31 19:43:24.2	2.860	0.290	-0.120	0.060
2020/01/31 19:43:24.3	2.840	0.340	-0.150	0.100
2020/01/31 19:43:24.4	2.820	0.400	-0.180	0.140
2020/01/31 19:43:24.5	2.800	0.450	-0.210	0.170
2020/01/31 19:43:24.6	2.780	0.500	-0.240	0.200
2020/01/31 19:43:24.7	2.760	0.540	-0.270	0.230
2020/01/31 19:43:24.8	2.740	0.580	-0.290	0.250
2020/01/31 19:43:24.9	2.720	0.620	-0.320	0.270
2020/01/31 19:43:25.0	2.710	0.650	-0.350	0.280
2020/01/31 19:43:25.1	2.700	0.680	-0.380	0.290
2020/01/31 19:43:25.2	2.690	0.710	-0.410	0.300
2020/01/31 19:43:25.3	2.690	0.730	-0.440	0.310
2020/01/31 19:43:25.4	2.690	0.740	-0.470	0.310
2020/01/31 19:43:25.5	2.690	0.750	-0.490	0.310
2020/01/31 19:43:25.6	2.690	0.750	-0.520	0.310
2020/01/31 19:43:25.7	2.700	0.750	-0.540	0.300
2020/01/31 19:43:25.8	2.710	0.750	-0.570	0.290
2020/01/31 19:43:25.9	2.720	0.740	-0.600	0.280
2020/01/31 19:43:26.0	2.740	0.730	-0.620	0.270
2020/01/31 19:43:26.1	2.750	0.710	-0.640	0.250
2020/01/31 19:43:26.2	2.770	0.690	-0.660	0.230
2020/01/31 19:43:26.3	2.800	0.660	-0.680	0.210
2020/01/31 19:43:26.4	2.820	0.630	-0.700	0.190
2020/01/31 19:43:26.5	2.850	0.600	-0.710	0.160
2020/01/31 19:43:26.6	2.880	0.570	-0.730	0.130
2020/01/31 19:43:26.7	2.910	0.540	-0.740	0.110
2020/01/31 19:43:26.8	2.940	0.500	-0.740	0.080
2020/01/31 19:43:26.9	2.990	0.460	-0.740	0.040
2020/01/31 19:43:27.0	3.020	0.420	-0.750	0.010
2020/01/31 19:43:27.1	3.050	0.380	-0.750	-0.020
2020/01/31 19:43:27.2	3.090	0.340	-0.740	-0.060
2020/01/31 19:43:27.3	3.120	0.290	-0.740	-0.090
2020/01/31 19:43:27.4	3.150	0.250	-0.730	-0.120
2020/01/31 19:43:27.5	3.180	0.210	-0.720	-0.150
2020/01/31 19:43:27.6	3.210	0.170	-0.700	-0.180
2020/01/31 19:43:27.7	3.240	0.130	-0.680	-0.210
2020/01/31 19:43:27.8	3.260	0.080	-0.660	-0.240
2020/01/31 19:43:27.9	3.290	0.040	-0.630	-0.260
2020/01/31 19:43:28.0	3.310	0.000	-0.600	-0.290
2020/01/31 19:43:28.1	3.320	-0.040	-0.570	-0.310
2020/01/31 19:43:28.2	3.340	-0.080	-0.530	-0.320
2020/01/31 19:43:28.3	3.350	-0.120	-0.490	-0.340
2020/01/31 19:43:28.4	3.360	-0.160	-0.450	-0.350
2020/01/31 19:43:28.5	3.360	-0.200	-0.410	-0.370
2020/01/31 19:43:28.6	3.360	-0.240	-0.360	-0.380
2020/01/31 19:43:28.7	3.360	-0.280	-0.310	-0.380
2020/01/31 19:43:28.8	3.350	-0.320	-0.270	-0.390
2020/01/31 19:43:28.9	3.340	-0.370	-0.220	-0.390
2020/01/31 19:43:29.0	3.330	-0.410	-0.170	-0.400
2020/01/31 19:43:29.1	3.320	-0.450	-0.120	-0.400
2020/01/31 19:43:29.2	3.300	-0.490	-0.080	-0.400
2020/01/31 19:43:29.3	3.280	-0.530	-0.030	-0.400
2020/01/31 19:43:29.4	3.260	-0.560	0.010	-0.400
2020/01/31 19:43:29.5	3.240	-0.600	0.050	-0.400
2020/01/31 19:43:29.6	3.220	-0.640	0.080	-0.400
2020/01/31 19:43:29.7	3.200	-0.670	0.110	-0.400
2020/01/31 19:43:29.8	3.180	-0.700	0.140	-0.400
2020/01/31 19:43:29.9	3.160	-0.730	0.160	-0.400
2020/01/31 19:43:30.0	3.140	-0.760	0.180	-0.400
2020/01/31 19:43:30.1	3.130	-0.780	0.190	-0.400
2020/01/31 19:43:30.2	3.110	-0.800	0.200	-0.400
2020/01/31 19:43:30.3	3.100	-0.820	0.200	-0.410
2020/01/31 19:43:30.4	3.090	-0.830	0.200	-0.410
2020/01/31 19:43:30.5	3.090	-0.840	0.190	-0.420
2020/01/31 19:43:30.6	3.080	-0.840	0.180	-0.420
2020/01/31 19:43:30.7	3.080	-0.840	0.170	-0.430
2020/01/31 19:43:30.8	3.080	-0.840	0.150	-0.440
2020/01/31 19:43:30.9	3.100	-0.830	0.130	-0.450
2020/01/31 19:43:31.0	3.100	-0.820	0.110	-0.450
2020/01/31 19:43:31.1	3.110	-0.800	0.080	-0.460
2020/01/31 19:43:31.2	3.120	-0.770	0.050	-0.460
2020/01/31 19:43:31.3	3.140	-0.740	0.020	-0.470
2020/01/31 19:43:31.4	3.150	-0.710	-0.000	-0.470
2020/01/31 19:43:31.5	3.170	-0.670	-0.030	-0.480
2020/01/31 19:43:31.6	3.190	-0.630	-0.060	-0.480
2020/01/31 19:43:31.7	3.200	-0.580	-0.080	-0.480
2020/01/31 19:43:31.8	3.220	-0.530	-0.110	-0.480
2020/01/31 19:43:31.9	3.240	-0.480	-0.120	-0.480
2020/01/31 19:43:32.0	3.260	-0.420	-0.140	-0.480
2020/01/31 19:43:32.1	3.280	-0.360	-0.150	-0.470
2020/01/31 19:43:32.2	3.290	-0.300	-0.160	-0.450
2020/01/31 19:43:32.3	3.310	-0.230	-0.160	-0.440
2020/01/31 19:43:32.4	3.320	-0.170	-0.160	-0.410
2020/01/31 19:43:32.5	3.330	-0.100	-0.150	-0.390
2020/01/31 19:43:32.6	3.340	-0.030	-0.140	-0.350
2020/01/31 19:43:32.7	3.340	0.040	-0.120	-0.320
2020/01/31 19:43:32.8	3.340	0.110	-0.100	-0.280
2020/01/31 19:43:32.9	3.330	0.170	-0.080	-0.230
2020/01/31 19:43:33.0	3.330	0.240	-0.050	-0.180
2020/01/31 19:43:33.1	3.320	0.300	-0.020	-0.130
2020/01/31 19:43:33.2	3.300	0.360	0.020	-0.070
2020/01/31 19:43:33.3	3.290	0.420	0.060	-0.010
2020/01/31 19:43:33.4	3.270	0.470	0.100	0.050
2020/01/31 19:43:33.5	3.240	0.520	0.140	0.110
2020/01/31 19:43:33.6	3.220	0.570	0.180	0.180
2020/01/31 19:43:33.7	3.190	0.610	0.220	0.240
2020/01/31 19:43:33.8	3.160	0.640	0.260	0.310
2020/01/31 19:43:33.9	3.120	0.670	0.290	0.370
2020/01/31 19:43:34.0	3.090	0.700	0.320	0.430
2020/01/31 19:43:34.1	3.060	0.720	0.350	0.490
2020/01/31 19:43:34.2	3.020	0.730	0.370	0.540
2020/01/31 19:43:34.3	2.990	0.740	0.390	0.590
2020/01/31 19:43:34.4	2.960	0.740	0.400	0.630
2020/01/31 19:43:34.5	2.930	0.740	0.400	0.670
2020/01/31 19:43:34.6	2.900	0.730	0.390	0.700
2020/01/31 19:43:34.7	2.870	0.720	0.380	0.720
2020/01/31 19:43:34.8	2.840	0.700	0.360	0.740
2020/01/31 19:43:34.9	2.820	0.680	0.330	0.750
2020/01/31 19:43:35.0	2.800	0.650	0.300	0.750
2020/01/31 19:43:35.1	2.770	0.630	0.260	0.740
2020/01/31 19:43:35.2	2.760	0.590	0.210	0.730
2020/01/31 19:43:35.3	2.740	0.560	0.150	0.700
2020/01/31 19:43:35.4	2.730	0.520	0.090	0.670
2020/01/31 19:43:35.5	2.710	0.480	0.020	0.640
2020/01/31 19:43:35.6	2.710	0.430	-0.050	0.590
2020/01/31 19:43:35.7	2.700	0.390	-0.130	0.540
2020/01/31 19:43:35.8	2.690	0.340	-0.220	0.490
2020/01/31 19:43:35.9	2.680	0.300	-0.300	0.420
2020/01/31 19:43:36.0	2.680	0.250	-0.390	0.360
2020/01/31 19:43:36.1	2.670	0.200	-0.480	0.290
2020/01/31 19:43:36.2	2.670	0.160	-0.570	0.220
2020/01/31 19:43:36.3	2.680	0.110	-0.660	0.160
2020/01/31 19:43:36.4	2.680	0.070	-0.750	0.090
2020/01/31 19:43:36.5	2.680	0.030	-0.830	0.020
2020/01/31 19:43:36.6	2.690	-0.010	-0.910	-0.050
2020/01/31 19:43:36.7	2.690	-0.050	-0.990	-0.120
2020/01/31 19:43:36.8	2.700	-0.080	-1.060	-0.190
2020/01/31 19:43:36.9	2.720	-0.110	-1.130	-0.250
2020/01/31 19:43:37.0	2.730	-0.140	-1.190	-0.320
2020/01/31 19:43:37.1	2.750	-0.160	-1.250	-0.380
2020/01/31 19:43:37.2	2.770	-0.190	-1.300	-0.450
2020/01/31 19:43:37.3	2.790	-0.200	-1.350	-0.510
2020/01/31 19:43:37.4	2.820	-0.220	-1.400	-0.570
2020/01/31 19:43:37.5	2.850	-0.220	-1.430	-0.640
2020/01/31 19:43:37.6	2.880	-0.230	-1.470	-0.700
2020/01/31 19:43:37.7	2.920	-0.230	-1.490	-0.760
2020/01/31 19:43:37.8	2.960	-0.230	-1.520	-0.830
2020/01/31 19:43:37.9	3.000	-0.220	-1.530	-0.890
2020/01/31 19:43:38.0	3.050	-0.210	-1.550	-0.950
2020/01/31 19:43:38.1	3.100	-0.200	-1.550	-1.010
2020/01/31 19:43:38.2	3.150	-0.180	-1.550	-1.060
2020/01/31 19:43:38.3	3.200	-0.160	-1.550	-1.110
2020/01/31 19:43:38.4	3.260	-0.130	-1.530	-1.160
2020/01/31 19:43:38.5	3.310	-0.110	-1.510	-1.200
2020/01/31 19:43:38.6	3.360	-0.080	-1.490	-1.240
2020/01/31 19:43:38.7	3.420	-0.050	-1.450	-1.270
2020/01/31 19:43:38.8	3.470	-0.020	-1.410	-1.290
2020/01/31 19:43:38.9	3.500	0.010	-1.370	-1.310
2020/01/31 19:43:39.0	3.550	0.030	-1.320	-1.320
2020/01/31 19:43:39.1	3.590	0.060	-1.250	-1.330
2020/01/31 19:43:39.2	3.630	0.090	-1.190	-1.330
2020/01/31 19:43:39.3	3.670	0.120	-1.110	-1.320
2020/01/31 19:43:39.4	3.710	0.140	-1.030	-1.310
2020/01/31 19:43:39.5	3.740	0.160	-0.940	-1.290
2020/01/31 19:43:39.6	3.770	0.180	-0.850	-1.270
2020/01/31 19:43:39.7	3.800	0.190	-0.760	-1.250
2020/01/31 19:43:39.8	3.820	0.200	-0.660	-1.220
2020/01/31 19:43:39.9	3.840	0.210	-0.560	-1.180
2020/01/31 19:43:40.0	3.860	0.220	-0.460	-1.150
2020/01/31 19:43:40.1	3.880	0.220	-0.360	-1.110
2020/01/31 19:43:40.2	3.900	0.210	-0.260	-1.070
2020/01/31 19:43:40.3	3.910	0.200	-0.160	-1.020
2020/01/31 19:43:40.4	3.920	0.190	-0.060	-0.980
2020/01/31 19:43:40.5	3.930	0.180	0.040	-0.930
2020/01/31 19:43:40.6	3.950	0.160	0.130	-0.880
2020/01/31 19:43:40.7	3.960	0.140	0.220	-0.830
2020/01/31 19:43:40.8	3.960	0.110	0.300	-0.780
2020/01/31 19:43:40.9	3.960	0.090	0.380	-0.730
2020/01/31 19:43:41.0	3.970	0.060	0.450	-0.680
2020/01/31 19:43:41.1	3.980	0.020	0.520	-0.640
2020/01/31 19:43:41.2	3.980	-0.010	0.580	-0.590
2020/01/31 19:43:41.3	3.980	-0.050	0.630	-0.540
2020/01/31 19:43:41.4	3.990	-0.080	0.680	-0.500
2020/01/31 19:43:41.5	3.990	-0.120	0.720	-0.460
2020/01/31 19:43:41.6	3.990	-0.160	0.760	-0.420
2020/01/31 19:43:41.7	3.990	-0.200	0.790	-0.370
2020/01/31 19:43:41.8	3.980	-0.230	0.810	-0.340
2020/01/31 19:43:41.9	3.990	-0.270	0.830	-0.300
2020/01/31 19:43:42.0	3.980	-0.310	0.840	-0.260
2020/01/31 19:43:42.1	3.970	-0.340	0.840	-0.220
2020/01/31 19:43:42.2	3.950	-0.370	0.840	-0.180
2020/01/31 19:43:42.3	3.940	-0.400	0.840	-0.150
2020/01/31 19:43:42.4	3.910	-0.430	0.830	-0.110
2020/01/31 19:43:42.5	3.890	-0.460	0.820	-0.070
2020/01/31 19:43:42.6	3.860	-0.480	0.800	-0.030
2020/01/31 19:43:42.7	3.830	-0.500	0.780	0.010
2020/01/31 19:43:42.8	3.790	-0.520	0.760	0.050
2020/01/31 19:43:42.9	3.740	-0.530	0.730	0.090
2020/01/31 19:43:43.0	3.700	-0.540	0.710	0.130
2020/01/31 19:43:43.1	3.660	-0.550	0.680	0.170
2020/01/31 19:43:43.2	3.610	-0.550	0.650	0.210
2020/01/31 19:43:43.3	3.560	-0.550	0.620	0.250
2020/01/31 19:43:43.4	3.500	-0.550	0.590	0.290
2020/01/31 19:43:43.5	3.450	-0.550	0.560	0.320
2020/01/31 19:43:43.6	3.390	-0.540	0.530	0.360
2020/01/31 19:43:43.7	3.330	-0.530	0.500	0.390
2020/01/31 19:43:43.8	3.270	-0.520	0.470	0.420
2020/01/31 19:43:43.9	3.220	-0.500	0.440	0.440
2020/01/31 19:43:44.0	3.160	-0.490	0.400	0.470
2020/01/31 19:43:44.1	3.100	-0.470	0.370	0.490
2020/01/31 19:43:44.2	3.030	-0.450	0.340	0.510
2020/01/31 19:43:44.3	2.970	-0.420	0.300	0.530
2020/01/31 19:43:44.4	2.910	-0.400	0.270	0.540
2020/01/31 19:43:44.5	2.840	-0.370	0.230	0.550
2020/01/31 19:43:44.6	2.780	-0.350	0.200	0.560
2020/01/31 19:43:44.7	2.730	-0.320	0.160	0.560
2020/01/31 19:43:44.8	2.670	-0.290	0.120	0.570
2020/01/31 19:43:44.9	2.630	-0.250	0.080	0.570
2020/01/31 19:43:45.0	2.580	-0.220	0.040	0.560
2020/01/31 19:43:45.1	2.540	-0.190	-0.010	0.560
2020/01/31 19:43:45.2	2.500	-0.150	-0.060	0.550
2020/01/31 19:43:45.3	2.460	-0.120	-0.110	0.530
2020/01/31 19:43:45.4	2.430	-0.080	-0.160	0.510
2020/01/31 19:43:45.5	2.410	-0.040	-0.210	0.490
2020/01/31 19:43:45.6	2.400	-0.000	-0.270	0.470
2020/01/31 19:43:45.7	2.390	0.040	-0.330	0.440
2020/01/31 19:43:45.8	2.380	0.080	-0.400	0.410
2020/01/31 19:43:45.9	2.370	0.120	-0.460	0.370
2020/01/31 19:43:46.0	2.380	0.160	-0.530	0.330
2020/01/31 19:43:46.1	2.390	0.200	-0.600	0.300
2020/01/31 19:43:46.2	2.410	0.240	-0.670	0.250
2020/01/31 19:43:46.3	2.430	0.280	-0.750	0.210
2020/01/31 19:43:46.4	2.460	0.320	-0.820	0.170
2020/01/31 19:43:46.5	2.490	0.360	-0.880	0.120
2020/01/31 19:43:46.6	2.520	0.400	-0.950	0.070
2020/01/31 19:43:46.7	2.560	0.430	-1.020	0.020
2020/01/31 19:43:46.8	2.590	0.460	-1.080	-0.030
2020/01/31 19:43:46.9	2.620	0.490	-1.130	-0.090
2020/01/31 19:43:47.0	2.660	0.520	-1.180	-0.140
2020/01/31 19:43:47.1	2.700	0.540	-1.230	-0.200
2020/01/31 19:43:47.2	2.750	0.560	-1.270	-0.250
2020/01/31 19:43:47.3	2.790	0.570	-1.300	-0.310
2020/01/31 19:43:47.4	2.840	0.580	-1.320	-0.360
2020/01/31 19:43:47.5	2.880	0.590	-1.330	-0.410
2020/01/31 19:43:47.6	2.930	0.590	-1.340	-0.460
2020/01/31 19:43:47.7	2.970	0.590	-1.340	-0.520
2020/01/31 19:43:47.8	3.010	0.590	-1.340	-0.560
2020/01/31 19:43:47.9	3.060	0.580	-1.320	-0.610
2020/01/31 19:43:48.0	3.100	0.560	-1.300	-0.660
2020/01/31 19:43:48.1	3.140	0.550	-1.280	-0.700
2020/01/31 19:43:48.2	3.180	0.520	-1.240	-0.740
2020/01/31 19:43:48.3	3.210	0.500	-1.200	-0.780
2020/01/31 19:43:48.4	3.250	0.470	-1.160	-0.820
2020/01/31 19:43:48.5	3.280	0.440	-1.110	-0.850
2020/01/31 19:43:48.6	3.310	0.400	-1.060	-0.870
2020/01/31 19:43:48.7	3.340	0.360	-1.000	-0.900
2020/01/31 19:43:48.8	3.370	0.320	-0.940	-0.920
2020/01/31 19:43:48.9	3.400	0.280	-0.880	-0.940
2020/01/31 19:43:49.0	3.420	0.230	-0.810	-0.950
2020/01/31 19:43:49.1	3.440	0.190	-0.740	-0.950
2020/01/31 19:43:49.2	3.460	0.140	-0.670	-0.950
2020/01/31 19:43:49.3	3.480	0.100	-0.600	-0.950
2020/01/31 19:43:49.4	3.490	0.050	-0.530	-0.940
2020/01/31 19:43:49.5	3.510	0.000	-0.460	-0.930
2020/01/31 19:43:49.6	3.520	-0.040	-0.390	-0.920
2020/01/31 19:43:49.7	3.530	-0.090	-0.320	-0.900
2020/01/31 19:43:49.8	3.540	-0.130	-0.250	-0.880
2020/01/31 19:43:49.9	3.560	-0.170	-0.190	-0.860
2020/01/31 19:43:50.0	3.570	-0.210	-0.130	-0.830
2020/01/31 19:43:50.1	3.570	-0.250	-0.070	-0.810
2020/01/31 19:43:50.2	3.580	-0.280	-0.010	-0.780
2020/01/31 19:43:50.3	3.580	-0.310	0.040	-0.750
2020/01/31 19:43:50.4	3.590	-0.330	0.080	-0.720
2020/01/31 19:43:50.5	3.590	-0.350	0.120	-0.690
2020/01/31 19:43:50.6	3.590	-0.370	0.160	-0.660
2020/01/31 19:43:50.7	3.590	-0.380	0.200	-0.630
2020/01/31 19:43:50.8	3.590	-0.390	0.230	-0.600
2020/01/31 19:43:50.9	3.590	-0.400	0.240	-0.570
2020/01/31 19:43:51.0	3.580	-0.400	0.260	-0.530
2020/01/31 19:43:51.1	3.580	-0.390	0.280	-0.490
2020/01/31 19:43:51.2	3.570	-0.380	0.290	-0.450
2020/01/31 19:43:51.3	3.560	-0.370	0.300	-0.410
2020/01/31 19:43:51.4	3.550	-0.350	0.300	-0.370
2020/01/31 19:43:51.5	3.530	-0.330	0.300	-0.330
2020/01/31 19:43:51.6	3.520	-0.300	0.300	-0.290
2020/01/31 19:43:51.7	3.500	-0.280	0.300	-0.240
2020/01/31 19:43:51.8	3.480	-0.240	0.290	-0.190
2020/01/31 19:43:51.9	3.460	-0.210	0.280	-0.150
2020/01/31 19:43:52.0	3.430	-0.170	0.270	-0.100
2020/01/31 19:43:52.1	3.410	-0.130	0.250	-0.050
2020/01/31 19:43:52.2	3.380	-0.090	0.240	0.000
2020/01/31 19:43:52.3	3.360	-0.050	0.220	0.050
2020/01/31 19:43:52.4	3.330	-0.010	0.200	0.100
2020/01/31 19:43:52.5	3.300	0.040	0.180	0.150
2020/01/31 19:43:52.6	3.270	0.080	0.160	0.190
2020/01/31 19:43:52.7	3.240	0.120	0.150	0.240
2020/01/31 19:43:52.8	3.210	0.160	0.130	0.280
2020/01/31 19:43:52.9	3.180	0.200	0.110	0.320
2020/01/31 19:43:53.0	3.150	0.240	0.090	0.360
2020/01/31 19:43:53.1	3.120	0.270	0.070	0.400
2020/01/31 19:43:53.2	3.090	0.300	0.060	0.430
2020/01/31 19:43:53.3	3.050	0.330	0.050	0.460
2020/01/31 19:43:53.4	3.020	0.360	0.030	0.490
2020/01/31 19:43:53.5	2.990	0.380	0.020	0.520
2020/01/31 19:43:53.6	2.960	0.400	0.010	0.540
2020/01/31 19:43:53.7	2.930	0.410	0.000	0.560
2020/01/31 19:43:53.8	2.900	0.420	-0.010	0.580
2020/01/31 19:43:53.9	2.870	0.430	-0.020	0.600
2020/01/31 19:43:54.0	2.840	0.430	-0.020	0.610
2020/01/31 19:43:54.1	2.820	0.430	-0.030	0.620
2020/01/31 19:43:54.2	2.800	0.420	-0.040	0.620
2020/01/31 19:43:54.3	2.790	0.410	-0.050	0.620
2020/01/31 19:43:54.4	2.770	0.400	-0.060	0.620
2020/01/31 19:43:54.5	2.760	0.380	-0.070	0.610
2020/01/31 19:43:54.6	2.760	0.360	-0.090	0.600
2020/01/31 19:43:54.7	2.750	0.340	-0.100	0.580
2020/01/31 19:43:54.8	2.750	0.310	-0.110	0.560
2020/01/31 19:43:54.9	2.770	0.280	-0.130	0.530
2020/01/31 19:43:55.0	2.770	0.250	-0.140	0.510
2020/01/31 19:43:55.1	2.780	0.220	-0.160	0.480
2020/01/31 19:43:55.2	2.790	0.180	-0.170	0.440
2020/01/31 19:43:55.3	2.800	0.150	-0.190	0.400
2020/01/31 19:43:55.4	2.820	0.110	-0.210	0.360
2020/01/31 19:43:55.5	2.840	0.070	-0.230	0.320
2020/01/31 19:43:55.6	2.860	0.030	-0.240	0.270
2020/01/31 19:43:55.7	2.880	-0.010	-0.260	0.210
2020/01/31 19:43:55.8	2.900	-0.050	-0.280	0.160
2020/01/31 19:43:55.9	2.910	-0.080	-0.300	0.100
2020/01/31 19:43:56.0	2.940	-0.120	-0.320	0.040
2020/01/31 19:43:56.1	2.970	-0.160	-0.340	-0.030
2020/01/31 19:43:56.2	3.000	-0.200	-0.360	-0.090
2020/01/31 19:43:56.3	3.030	-0.230	-0.380	-0.160
2020/01/31 19:43:56.4	3.060	-0.270	-0.400	-0.230
2020/01/31 19:43:56.5	3.100	-0.300	-0.410	-0.300
2020/01/31 19:43:56.6	3.130	-0.330	-0.430	-0.370
2020/01/31 19:43:56.7	3.160	-0.360	-0.450	-0.430
2020/01/31 19:43:56.8	3.200	-0.390	-0.470	-0.500
2020/01/31 19:43:56.9	3.230	-0.410	-0.490	-0.570
2020/01/31 19:43:57.0	3.260	-0.430	-0.510	-0.640
2020/01/31 19:43:57.1	3.290	-0.450	-0.520	-0.700
2020/01/31 19:43:57.2	3.330	-0.470	-0.530	-0.760
2020/01/31 19:43:57.3	3.360	-0.480	-0.550	-0.810
2020/01/31 19:43:57.4	3.390	-0.500	-0.560	-0.860
2020/01/31 19:43:57.5	3.420	-0.510	-0.570	-0.900
2020/01/31 19:43:57.6	3.440	-0.510	-0.580	-0.940
2020/01/31 19:43:57.7	3.470	-0.520	-0.580	-0.980
2020/01/31 19:43:57.8	3.490	-0.520	-0.590	-1.010
2020/01/31 19:43:57.9	3.510	-0.520	-0.590	-1.030
2020/01/31 19:43:58.0	3.530	-0.510	-0.590	-1.040
2020/01/31 19:43:58.1	3.550	-0.510	-0.590	-1.060
2020/01/31 19:43:58.2	3.560	-0.500	-0.590	-1.070
2020/01/31 19:43:58.3	3.580	-0.490	-0.580	-1.070
2020/01/31 19:43:58.4	3.590	-0.480	-0.580	-1.060
2020/01/31 19:43:58.5	3.590	-0.460	-0.570	-1.060
2020/01/31 19:43:58.6	3.600	-0.450	-0.560	-1.040
2020/01/31 19:43:58.7	3.600	-0.430	-0.540	-1.020
2020/01/31 19:43:58.8	3.600	-0.410	-0.530	-1.000
2020/01/31 19:43:58.9	3.590	-0.380	-0.510	-0.980
2020/01/31 19:43:59.0	3.590	-0.360	-0.500	-0.950
2020/01/31 19:43:59.1	3.580	-0.330	-0.480	-0.910
2020/01/31 19:43:59.2	3.570	-0.310	-0.460	-0.870
2020/01/31 19:43:59.3	3.550	-0.280	-0.440	-0.830
2020/01/31 19:43:59.4	3.540	-0.250	-0.420	-0.790
2020/01/31 19:43:59.5	3.520	-0.220	-0.400	-0.750
2020/01/31 19:43:59.6	3.510	-0.190	-0.380	-0.700
2020/01/31 19:43:59.7	3.490	-0.160	-0.360	-0.650
2020/01/31 19:43:59.8	3.470	-0.130	-0.340	-0.610
2020/01/31 19:43:59.9	3.460	-0.090	-0.320	-0.560
2020/01/31 19:44:00.0	3.440	-0.060	-0.310	-0.510
2020/01/31 19:44:00.1	3.420	-0.030	-0.290	-0.460
2020/01/31 19:44:00.2	3.410	0.010	-0.280	-0.410
2020/01/31 19:44:00.3	3.390	0.040	-0.260	-0.360
2020/01/31 19:44:00.4	3.370	0.080	-0.250	-0.310
2020/01/31 19:44:00.5	3.360	0.110	-0.240	-0.270
2020/01/31 19:44:00.6	3.340	0.140	-0.230	-0.220
2020/01/31 19:44:00.7	3.330	0.180	-0.220	-0.180
2020/01/31 19:44:00.8	3.320	0.210	-0.220	-0.130
2020/01/31 19:44:00.9	3.320	0.240	-0.210	-0.090
2020/01/31 19:44:01.0	3.320	0.280	-0.210	-0.050
2020/01/31 19:44:01.1	3.310	0.310	-0.210	-0.010
2020/01/31 19:44:01.2	3.310	0.340	-0.210	0.030
2020/01/31 19:44:01.3	3.310	0.370	-0.210	0.070
2020/01/31 19:44:01.4	3.320	0.400	-0.210	0.110
2020/01/31 19:44:01.5	3.320	0.420	-0.210	0.140
2020/01/31 19:44:01.6	3.330	0.450	-0.210	0.170
2020/01/31 19:44:01.7	3.340	0.470	-0.210	0.210
2020/01/31 19:44:01.8	3.350	0.490	-0.210	0.230
2020/01/31 19:44:01.9	3.360	0.510	-0.210	0.260
2020/01/31 19:44:02.0	3.370	0.520	-0.210	0.280
2020/01/31 19:44:02.1	3.380	0.540	-0.200	0.300
2020/01/31 19:44:02.2	3.390	0.550	-0.200	0.330
2020/01/31 19:44:02.3	3.400	0.550	-0.190	0.340
2020/01/31 19:44:02.4	3.410	0.560	-0.190	0.360
2020/01/31 19:44:02.5	3.420	0.560	-0.180	0.370
2020/01/31 19:44:02.6	3.430	0.560	-0.170	0.390
2020/01/31 19:44:02.7	3.440	0.550	-0.150	0.400
2020/01/31 19:44:02.8	3.450	0.550	-0.140	0.400
2020/01/31 19:44:02.9	3.460	0.530	-0.130	0.410
2020/01/31 19:44:03.0	3.460	0.520	-0.110	0.420
2020/01/31 19:44:03.1	3.460	0.500	-0.090	0.420
2020/01/31 19:44:03.2	3.460	0.490	-0.070	0.420
2020/01/31 19:44:03.3	3.460	0.460	-0.060	0.410
2020/01/31 19:44:03.4	3.460	0.440	-0.040	0.410
2020/01/31 19:44:03.5	3.460	0.410	-0.020	0.410
2020/01/31 19:44:03.6	3.460	0.390	0.000	0.410
2020/01/31 19:44:03.7	3.460	0.360	0.020	0.400
2020/01/31 19:44:03.8	3.450	0.320	0.040	0.400
2020/01/31 19:44:03.9	3.450	0.290	0.050	0.380
2020/01/31 19:44:04.0	3.450	0.260	0.070	0.380
2020/01/31 19:44:04.1	3.440	0.220	0.080	0.370
2020/01/31 19:44:04.2	3.440	0.190	0.090	0.360
2020/01/31 19:44:04.3	3.430	0.150	0.100	0.360
2020/01/31 19:44:04.4	3.430	0.110	0.100	0.340
2020/01/31 19:44:04.5	3.420	0.080	0.100	0.330
2020/01/31 19:44:04.6	3.420	0.040	0.100	0.320
2020/01/31 19:44:04.7	3.420	0.010	0.100	0.300
2020/01/31 19:44:04.8	3.410	-0.030	0.090	0.280
2020/01/31 19:44:04.9	3.410	-0.060	0.070	0.260
2020/01/31 19:44:05.0	3.410	-0.100	0.060	0.240
2020/01/31 19:44:05.1	3.410	-0.130	0.040	0.210
2020/01/31 19:44:05.2	3.410	-0.160	0.010	0.180
2020/01/31 19:44:05.3	3.410	-0.190	-0.020	0.140
2020/01/31 19:44:05.4	3.410	-0.220	-0.050	0.110
2020/01/31 19:44:05.5	3.410	-0.240	-0.080	0.060
2020/01/31 19:44:05.6	3.420	-0.270	-0.120	0.020
2020/01/31 19:44:05.7	3.420	-0.290	-0.160	-0.030
2020/01/31 19:44:05.8	3.430	-0.310	-0.200	-0.080
2020/01/31 19:44:05.9	3.420	-0.330	-0.240	-0.140
2020/01/31 19:44:06.0	3.430	-0.340	-0.290	-0.200
2020/01/31 19:44:06.1	3.440	-0.360	-0.330	-0.250
2020/01/31 19:44:06.2	3.460	-0.370	-0.380	-0.310
2020/01/31 19:44:06.3	3.470	-0.380	-0.420	-0.370
2020/01/31 19:44:06.4	3.480	-0.380	-0.470	-0.420
2020/01/31 19:44:06.5	3.500	-0.390	-0.510	-0.480
2020/01/31 19:44:06.6	3.510	-0.390	-0.550	-0.530
2020/01/31 19:44:06.7	3.530	-0.390	-0.580	-0.580
2020/01/31 19:44:06.8	3.540	-0.380	-0.620	-0.630
2020/01/31 19:44:06.9	3.560	-0.380	-0.640	-0.670
2020/01/31 19:44:07.0	3.570	-0.370	-0.670	-0.710
2020/01/31 19:44:07.1	3.590	-0.360	-0.680	-0.750
2020/01/31 19:44:07.2	3.600	-0.350	-0.700	-0.780
2020/01/31 19:44:07.3	3.620	-0.330	-0.710	-0.800
2020/01/31 19:44:07.4	3.630	-0.320	-0.710	-0.820
2020/01/31 19:44:07.5	3.640	-0.300	-0.700	-0.840
2020/01/31 19:44:07.6	3.650	-0.280	-0.700	-0.850
2020/01/31 19:44:07.7	3.670	-0.250	-0.680	-0.850
2020/01/31 19:44:07.8	3.670	-0.230	-0.670	-0.840
2020/01/31 19:44:07.9	3.680	-0.210	-0.650	-0.830
2020/01/31 19:44:08.0	3.690	-0.180	-0.620	-0.820
2020/01/31 19:44:08.1	3.690	-0.150	-0.590	-0.800
2020/01/31 19:44:08.2	3.700	-0.130	-0.560	-0.770
2020/01/31 19:44:08.3	3.710	-0.100	-0.530	-0.750
2020/01/31 19:44:08.4	3.710	-0.070	-0.500	-0.710
2020/01/31 19:44:08.5	3.720	-0.040	-0.460	-0.680
2020/01/31 19:44:08.6	3.720	-0.020	-0.430	-0.640
2020/01/31 19:44:08.7	3.730	0.010	-0.400	-0.610
2020/01/31 19:44:08.8	3.730	0.040	-0.360	-0.570
2020/01/31 19:44:08.9	3.740	0.060	-0.330	-0.530
2020/01/31 19:44:09.0	3.740	0.090	-0.310	-0.490
2020/01/31 19:44:09.1	3.740	0.110	-0.280	-0.450
2020/01/31 19:44:09.2	3.740	0.130	-0.260	-0.410
2020/01/31 19:44:09.3	3.740	0.150	-0.230	-0.370
2020/01/31 19:44:09.4	3.740	0.170	-0.220	-0.340
2020/01/31 19:44:09.5	3.740	0.180	-0.200	-0.300
2020/01/31 19:44:09.6	3.740	0.200	-0.190	-0.260
2020/01/31 19:44:09.7	3.730	0.210	-0.180	-0.230
2020/01/31 19:44:09.8	3.720	0.220	-0.170	-0.200
2020/01/31 19:44:09.9	3.720	0.230	-0.170	-0.160
2020/01/31 19:44:10.0	3.710	0.230	-0.170	-0.130
2020/01/31 19:44:10.1	3.690	0.230	-0.160	-0.100
2020/01/31 19:44:10.2	3.680	0.230	-0.160	-0.070
2020/01/31 19:44:10.3	3.650	0.230	-0.160	-0.050
2020/01/31 19:44:10.4	3.630	0.220	-0.160	-0.020
2020/01/31 19:44:10.5	3.600	0.210	-0.160	-0.000
2020/01/31 19:44:10.6	3.570	0.200	-0.160	0.020
2020/01/31 19:44:10.7	3.550	0.180	-0.150	0.040
2020/01/31 19:44:10.8	3.510	0.170	-0.150	0.050
2020/01/31 19:44:10.9	3.480	0.150	-0.140	0.070
2020/01/31 19:44:11.0	3.450	0.120	-0.130	0.080
2020/01/31 19:44:11.1	3.410	0.100	-0.120	0.090
2020/01/31 19:44:11.2	3.370	0.080	-0.100	0.100
2020/01/31 19:44:11.3	3.330	0.050	-0.090	0.110
2020/01/31 19:44:11.4	3.300	0.020	-0.070	0.120
2020/01/31 19:44:11.5	3.260	-0.010	-0.050	0.130
2020/01/31 19:44:11.6	3.220	-0.040	-0.020	0.140
2020/01/31 19:44:11.7	3.180	-0.070	0.000	0.140
2020/01/31 19:44:11.8	3.140	-0.100	0.030	0.150
2020/01/31 19:44:11.9	3.100	-0.130	0.050	0.160
2020/01/31 19:44:12.0	3.060	-0.160	0.080	0.160
2020/01/31 19:44:12.1	3.030	-0.190	0.110	0.160
2020/01/31 19:44:12.2	2.990	-0.220	0.130	0.170
2020/01/31 19:44:12.3	2.960	-0.250	0.160	0.170
2020/01/31 19:44:12.4	2.930	-0.270	0.180	0.170
2020/01/31 19:44:12.5	2.910	-0.290	0.200	0.160
2020/01/31 19:44:12.6	2.890	-0.310	0.220	0.160
2020/01/31 19:44:12.7	2.870	-0.330	0.240	0.160
2020/01/31 19:44:12.8	2.850	-0.340	0.250	0.150
2020/01/31 19:44:12.9	2.830	-0.350	0.250	0.140
2020/01/31 19:44:13.0	2.820	-0.350	0.250	0.130
2020/01/31 19:44:13.1	2.810	-0.350	0.250	0.130
2020/01/31 19:44:13.2	2.810	-0.350	0.240	0.120
2020/01/31 19:44:13.3	2.810	-0.340	0.230	0.100
2020/01/31 19:44:13.4	2.810	-0.330	0.210	0.090
2020/01/31 19:44:13.5	2.820	-0.320	0.190	0.080
2020/01/31 19:44:13.6	2.840	-0.300	0.160	0.060
2020/01/31 19:44:13.7	2.850	-0.280	0.130	0.040
2020/01/31 19:44:13.8	2.870	-0.250	0.090	0.030
2020/01/31 19:44:13.9	2.880	-0.220	0.040	0.000
2020/01/31 19:44:14.0	2.910	-0.190	-0.000	-0.010
2020/01/31 19:44:14.1	2.930	-0.160	-0.050	-0.030
2020/01/31 19:44:14.2	2.960	-0.120	-0.100	-0.050
2020/01/31 19:44:14.3	2.990	-0.080	-0.160	-0.070
2020/01/31 19:44:14.4	3.020	-0.040	-0.210	-0.080
2020/01/31 19:44:14.5	3.050	0.010	-0.270	-0.100
2020/01/31 19:44:14.6	3.080	0.050	-0.330	-0.120
2020/01/31 19:44:14.7	3.110	0.100	-0.380	-0.130
2020/01/31 19:44:14.8	3.140	0.150	-0.440	-0.140
2020/01/31 19:44:14.9	3.170	0.190	-0.500	-0.160
2020/01/31 19:44:15.0	3.200	0.240	-0.560	-0.170
2020/01/31 19:44:15.1	3.230	0.290	-0.610	-0.180
2020/01/31 19:44:15.2	3.260	0.330	-0.670	-0.190
2020/01/31 19:44:15.3	3.290	0.380	-0.720	-0.200
2020/01/31 19:44:15.4	3.320	0.420	-0.760	-0.210
2020/01/31 19:44:15.5	3.350	0.460	-0.810	-0.210
2020/01/31 19:44:15.6	3.380	0.500	-0.850	-0.220
2020/01/31 19:44:15.7	3.410	0.530	-0.890	-0.220
2020/01/31 19:44:15.8	3.430	0.560	-0.920	-0.220
2020/01/31 19:44:15.9	3.460	0.590	-0.950	-0.210
2020/01/31 19:44:16.0	3.480	0.620	-0.970	-0.210
2020/01/31 19:44:16.1	3.500	0.640	-0.990	-0.200
2020/01/31 19:44:16.2	3.510	0.660	-1.010	-0.200
2020/01/31 19:44:16.3	3.530	0.670	-1.020	-0.190
2020/01/31 19:44:16.4	3.540	0.680	-1.020	-0.190
2020/01/31 19:44:16.5	3.550	0.680	-1.020	-0.180
2020/01/31 19:44:16.6	3.550	0.680	-1.010	-0.170
2020/01/31 19:44:16.7	3.560	0.680	-1.000	-0.160
2020/01/31 19:44:16.8	3.560	0.660	-0.990	-0.150
2020/01/31 19:44:16.9	3.550	0.650	-0.970	-0.140
2020/01/31 19:44:17.0	3.550	0.630	-0.950	-0.140
2020/01/31 19:44:17.1	3.550	0.610	-0.920	-0.130
2020/01/31 19:44:17.2	3.540	0.580	-0.890	-0.130
2020/01/31 19:44:17.3	3.530	0.550	-0.850	-0.130
2020/01/31 19:44:17.4	3.520	0.510	-0.810	-0.130
2020/01/31 19:44:17.5	3.500	0.470	-0.770	-0.130
2020/01/31 19:44:17.6	3.490	0.430	-0.720	-0.130
2020/01/31 19:44:17.7	3.470	0.380	-0.670	-0.130
2020/01/31 19:44:17.8	3.440	0.340	-0.620	-0.130
2020/01/31 19:44:17.9	3.420	0.290	-0.570	-0.140
2020/01/31 19:44:18.0	3.390	0.230	-0.520	-0.150
2020/01/31 19:44:18.1	3.360	0.180	-0.460	-0.160
2020/01/31 19:44:18.2	3.330	0.130	-0.400	-0.170
2020/01/31 19:44:18.3	3.300	0.070	-0.340	-0.180
2020/01/31 19:44:18.4	3.260	0.020	-0.290	-0.190
2020/01/31 19:44:18.5	3.230	-0.040	-0.230	-0.210
2020/01/31 19:44:18.6	3.190	-0.090	-0.170	-0.220
2020/01/31 19:44:18.7	3.160	-0.150	-0.110	-0.240
2020/01/31 19:44:18.8	3.120	-0.200	-0.050	-0.260
2020/01/31 19:44:18.9	3.090	-0.250	0.010	-0.280
2020/01/31 19:44:19.0	3.050	-0.300	0.060	-0.300
2020/01/31 19:44:19.1	3.010	-0.350	0.110	-0.320
2020/01/31 19:44:19.2	2.970	-0.400	0.160	-0.340
2020/01/31 19:44:19.3	2.930	-0.440	0.210	-0.360
2020/01/31 19:44:19.4	2.890	-0.480	0.260	-0.380
2020/01/31 19:44:19.5	2.850	-0.520	0.300	-0.400
2020/01/31 19:44:19.6	2.810	-0.560	0.340	-0.420
2020/01/31 19:44:19.7	2.760	-0.590	0.380	-0.440
2020/01/31 19:44:19.8	2.720	-0.620	0.410	-0.450
2020/01/31 19:44:19.9	2.690	-0.640	0.440	-0.470
2020/01/31 19:44:20.0	2.650	-0.660	0.460	-0.480
2020/01/31 19:44:20.1	2.620	-0.680	0.480	-0.490
2020/01/31 19:44:20.2	2.580	-0.690	0.500	-0.490
2020/01/31 19:44:20.3	2.550	-0.700	0.510	-0.500
2020/01/31 19:44:20.4	2.520	-0.700	0.510	-0.500
2020/01/31 19:44:20.5	2.500	-0.700	0.510	-0.500
2020/01/31 19:44:20.6	2.480	-0.700	0.510	-0.500
2020/01/31 19:44:20.7	2.460	-0.690	0.500	-0.500
2020/01/31 19:44:20.8	2.440	-0.670	0.480	-0.500
2020/01/31 19:44:20.9	2.410	-0.650	0.460	-0.490
2020/01/31 19:44:21.0	2.410	-0.630	0.440	-0.490
2020/01/31 19:44:21.1	2.400	-0.600	0.410	-0.480
2020/01/31 19:44:21.2	2.400	-0.570	0.380	-0.470
2020/01/31 19:44:21.3	2.410	-0.540	0.340	-0.450
2020/01/31 19:44:21.4	2.410	-0.500	0.300	-0.440
2020/01/31 19:44:21.5	2.420	-0.460	0.260	-0.430
2020/01/31 19:44:21.6	2.430	-0.410	0.220	-0.410
2020/01/31 19:44:21.7	2.450	-0.370	0.170	-0.390
2020/01/31 19:44:21.8	2.460	-0.320	0.130	-0.370
2020/01/31 19:44:21.9	2.490	-0.270	0.090	-0.360
2020/01/31 19:44:22.0	2.500	-0.220	0.040	-0.340
2020/01/31 19:44:22.1	2.520	-0.170	0.000	-0.310
2020/01/31 19:44:22.2	2.530	-0.120	-0.040	-0.280
2020/01/31 19:44:22.3	2.550	-0.070	-0.080	-0.250
2020/01/31 19:44:22.4	2.560	-0.020	-0.110	-0.210
2020/01/31 19:44:22.5	2.570	0.020	-0.150	-0.170
2020/01/31 19:44:22.6	2.580	0.070	-0.180	-0.130
2020/01/31 19:44:22.7	2.580	0.110	-0.210	-0.090
2020/01/31 19:44:22.8	2.590	0.150	-0.230	-0.040
2020/01/31 19:44:22.9	2.590	0.190	-0.260	0.010
2020/01/31 19:44:23.0	2.590	0.220	-0.280	0.060
2020/01/31 19:44:23.1	2.590	0.250	-0.300	0.110
2020/01/31 19:44:23.2	2.590	0.280	-0.310	0.160
2020/01/31 19:44:23.3	2.580	0.310	-0.330	0.220
2020/01/31 19:44:23.4	2.580	0.330	-0.340	0.270
2020/01/31 19:44:23.5	2.570	0.340	-0.350	0.320
2020/01/31 19:44:23.6	2.560	0.360	-0.370	0.370
2020/01/31 19:44:23.7	2.550	0.370	-0.380	0.420
2020/01/31 19:44:23.8	2.540	0.370	-0.390	0.470
2020/01/31 19:44:23.9	2.540	0.380	-0.400	0.510
2020/01/31 19:44:24.0	2.530	0.380	-0.410	0.560
2020/01/31 19:44:24.1	2.520	0.370	-0.420	0.590
2020/01/31 19:44:24.2	2.510	0.370	-0.430	0.630
2020/01/31 19:44:24.3	2.500	0.360	-0.440	0.660
2020/01/31 19:44:24.4	2.490	0.340	-0.460	0.680
2020/01/31 19:44:24.5	2.480	0.330	-0.470	0.700
2020/01/31 19:44:24.6	2.470	0.310	-0.480	0.720
2020/01/31 19:44:24.7	2.460	0.290	-0.500	0.730
2020/01/31 19:44:24.8	2.450	0.280	-0.510	0.730
2020/01/31 19:44:24.9	2.450	0.250	-0.530	0.730
2020/01/31 19:44:25.0	2.450	0.230	-0.550	0.720
2020/01/31 19:44:25.1	2.440	0.210	-0.560	0.710
2020/01/31 19:44:25.2	2.440	0.190	-0.580	0.700
2020/01/31 19:44:25.3	2.430	0.160	-0.590	0.680
2020/01/31 19:44:25.4	2.430	0.140	-0.610	0.650
2020/01/31 19:44:25.5	2.430	0.120	-0.620	0.630
2020/01/31 19:44:25.6	2.440	0.100	-0.640	0.590
2020/01/31 19:44:25.7	2.440	0.070	-0.650	0.560
2020/01/31 19:44:25.8	2.450	0.050	-0.660	0.520
2020/01/31 19:44:25.9	2.450	0.040	-0.670	0.470
2020/01/31 19:44:26.0	2.460	0.020	-0.680	0.420
2020/01/31 19:44:26.1	2.470	0.000	-0.680	0.370
2020/01/31 19:44:26.2	2.490	-0.010	-0.690	0.320
2020/01/31 19:44:26.3	2.500	-0.020	-0.690	0.270
2020/01/31 19:44:26.4	2.520	-0.030	-0.690	0.220
2020/01/31 19:44:26.5	2.540	-0.040	-0.690	0.160
2020/01/31 19:44:26.6	2.550	-0.050	-0.690	0.110
2020/01/31 19:44:26.7	2.570	-0.050	-0.680	0.050
2020/01/31 19:44:26.8	2.590	-0.050	-0.670	0.000
2020/01/31 19:44:26.9	2.610	-0.060	-0.660	-0.060
2020/01/31 19:44:27.0	2.630	-0.050	-0.640	-0.110
2020/01/31 19:44:27.1	2.640	-0.050	-0.630	-0.150
2020/01/31 19:44:27.2	2.660	-0.050	-0.600	-0.200
2020/01/31 19:44:27.3	2.680	-0.040	-0.580	-0.240
2020/01/31 19:44:27.4	2.690	-0.040	-0.560	-0.280
2020/01/31 19:44:27.5	2.700	-0.030	-0.530	-0.320
2020/01/31 19:44:27.6	2.710	-0.020	-0.500	-0.350
2020/01/31 19:44:27.7	2.720	-0.010	-0.470	-0.380
2020/01/31 19:44:27.8	2.730	-0.000	-0.440	-0.410
2020/01/31 19:44:27.9	2.730	0.000	-0.410	-0.430
2020/01/31 19:44:28.0	2.730	0.010	-0.370	-0.440
2020/01/31 19:44:28.1	2.730	0.020	-0.340	-0.460
2020/01/31 19:44:28.2	2.730	0.030	-0.300	-0.470
2020/01/31 19:44:28.3	2.730	0.040	-0.270	-0.470
2020/01/31 19:44:28.4	2.730	0.050	-0.240	-0.470
2020/01/31 19:44:28.5	2.730	0.050	-0.210	-0.470
2020/01/31 19:44:28.6	2.720	0.060	-0.180	-0.460
2020/01/31 19:44:28.7	2.720	0.070	-0.160	-0.450
2020/01/31 19:44:28.8	2.710	0.070	-0.130	-0.440
2020/01/31 19:44:28.9	2.690	0.080	-0.110	-0.420
2020/01/31 19:44:29.0	2.680	0.080	-0.100	-0.400
2020/01/31 19:44:29.1	2.680	0.080	-0.080	-0.380
2020/01/31 19:44:29.2	2.660	0.080	-0.070	-0.360
2020/01/31 19:44:29.3	2.650	0.080	-0.060	-0.340
2020/01/31 19:44:29.4	2.640	0.080	-0.050	-0.320
2020/01/31 19:44:29.5	2.630	0.080	-0.050	-0.300
2020/01/31 19:44:29.6	2.620	0.080	-0.050	-0.270
2020/01/31 19:44:29.7	2.600	0.080	-0.050	-0.250
2020/01/31 19:44:29.8	2.590	0.070	-0.060	-0.230
2020/01/31 19:44:29.9	2.570	0.070	-0.060	-0.210
2020/01/31 19:44:30.0	2.560	0.060	-0.070	-0.200
2020/01/31 19:44:30.1	2.550	0.060	-0.090	-0.180
2020/01/31 19:44:30.2	2.540	0.050	-0.100	-0.170
2020/01/31 19:44:30.3	2.540	0.050	-0.120	-0.160
2020/01/31 19:44:30.4	2.530	0.040	-0.130	-0.150
2020/01/31 19:44:30.5	2.530	0.030	-0.150	-0.140
2020/01/31 19:44:30.6	2.520	0.030	-0.160	-0.130
2020/01/31 19:44:30.7	2.520	0.020	-0.180	-0.130
2020/01/31 19:44:30.8	2.520	0.010	-0.190	-0.120
2020/01/31 19:44:30.9	2.520	0.000	-0.210	-0.120
2020/01/31 19:44:31.0	2.510	-0.000	-0.220	-0.110
2020/01/31 19:44:31.1	2.520	-0.010	-0.230	-0.110
2020/01/31 19:44:31.2	2.520	-0.020	-0.230	-0.100
2020/01/31 19:44:31.3	2.520	-0.030	-0.240	-0.090
2020/01/31 19:44:31.4	2.520	-0.030	-0.240	-0.080
2020/01/31 19:44:31.5	2.530	-0.040	-0.230	-0.070
2020/01/31 19:44:31.6	2.530	-0.050	-0.230	-0.060
2020/01/31 19:44:31.7	2.540	-0.050	-0.220	-0.050
2020/01/31 19:44:31.8	2.550	-0.060	-0.210	-0.040
2020/01/31 19:44:31.9	2.570	-0.070	-0.200	-0.030
2020/01/31 19:44:32.0	2.580	-0.070	-0.180	-0.020
2020/01/31 19:44:32.1	2.590	-0.070	-0.170	-0.010
2020/01/31 19:44:32.2	2.600	-0.080	-0.150	0.010
2020/01/31 19:44:32.3	2.620	-0.080	-0.130	0.020
2020/01/31 19:44:32.4	2.640	-0.080	-0.110	0.030
2020/01/31 19:44:32.5	2.650	-0.080	-0.090	0.040
2020/01/31 19:44:32.6	2.670	-0.080	-0.070	0.050
2020/01/31 19:44:32.7	2.690	-0.080	-0.050	0.060
2020/01/31 19:44:32.8	2.710	-0.080	-0.030	0.080
2020/01/31 19:44:32.9	2.740	-0.080	-0.020	0.090
2020/01/31 19:44:33.0	2.760	-0.080	0.000	0.100
2020/01/31 19:44:33.1	2.780	-0.080	0.020	0.110
2020/01/31 19:44:33.2	2.790	-0.070	0.040	0.130
2020/01/31 19:44:33.3	2.810	-0.070	0.050	0.140
2020/01/31 19:44:33.4	2.820	-0.070	0.070	0.160
2020/01/31 19:44:33.5	2.840	-0.060	0.080	0.180
2020/01/31 19:44:33.6	2.840	-0.060	0.090	0.190
2020/01/31 19:44:33.7	2.850	-0.050	0.110	0.210
2020/01/31 19:44:33.8	2.860	-0.050	0.120	0.240
2020/01/31 19:44:33.9	2.860	-0.050	0.130	0.250
2020/01/31 19:44:34.0	2.860	-0.040	0.130	0.280
2020/01/31 19:44:34.1	2.860	-0.040	0.140	0.300
2020/01/31 19:44:34.2	2.850	-0.040	0.140	0.330
2020/01/31 19:44:34.3	2.840	-0.040	0.140	0.350
2020/01/31 19:44:34.4	2.830	-0.040	0.140	0.370
2020/01/31 19:44:34.5	2.820	-0.040	0.140	0.400
2020/01/31 19:44:34.6	2.810	-0.040	0.130	0.420
2020/01/31 19:44:34.7	2.790	-0.040	0.130	0.440
2020/01/31 19:44:34.8	2.780	-0.040	0.110	0.460
2020/01/31 19:44:34.9	2.770	-0.040	0.100	0.480
2020/01/31 19:44:35.0	2.750	-0.050	0.080	0.490
2020/01/31 19:44:35.1	2.730	-0.050	0.060	0.500
2020/01/31 19:44:35.2	2.720	-0.060	0.040	0.510
2020/01/31 19:44:35.3	2.700	-0.070	0.020	0.510
2020/01/31 19:44:35.4	2.690	-0.070	-0.010	0.510
2020/01/31 19:44:35.5	2.670	-0.080	-0.040	0.500
2020/01/31 19:44:35.6	2.660	-0.090	-0.070	0.490
2020/01/31 19:44:35.7	2.640	-0.100	-0.100	0.470
2020/01/31 19:44:35.8	2.630	-0.110	-0.140	0.460
2020/01/31 19:44:35.9	2.630	-0.130	-0.170	0.430
2020/01/31 19:44:36.0	2.620	-0.140	-0.210	0.400
2020/01/31 19:44:36.1	2.600	-0.150	-0.250	0.370
2020/01/31 19:44:36.2	2.600	-0.160	-0.290	0.340
2020/01/31 19:44:36.3	2.590	-0.170	-0.330	0.300
2020/01/31 19:44:36.4	2.580	-0.190	-0.370	0.260
2020/01/31 19:44:36.5	2.570	-0.200	-0.410	0.210
2020/01/31 19:44:36.6	2.570	-0.210	-0.450	0.170
2020/01/31 19:44:36.7	2.560	-0.220	-0.500	0.120
2020/01/31 19:44:36.8	2.560	-0.230	-0.540	0.070
2020/01/31 19:44:36.9	2.550	-0.230	-0.580	0.010
2020/01/31 19:44:37.0	2.550	-0.240	-0.610	-0.040
2020/01/31 19:44:37.1	2.560	-0.240	-0.650	-0.090
2020/01/31 19:44:37.2	2.560	-0.240	-0.690	-0.150
2020/01/31 19:44:37.3	2.570	-0.240	-0.730	-0.200
2020/01/31 19:44:37.4	2.570	-0.240	-0.760	-0.250
2020/01/31 19:44:37.5	2.580	-0.240	-0.790	-0.310
2020/01/31 19:44:37.6	2.600	-0.230	-0.820	-0.360
2020/01/31 19:44:37.7	2.610	-0.220	-0.850	-0.410
2020/01/31 19:44:37.8	2.620	-0.210	-0.880	-0.460
2020/01/31 19:44:37.9	2.630	-0.190	-0.900	-0.520
2020/01/31 19:44:38.0	2.650	-0.180	-0.920	-0.570
2020/01/31 19:44:38.1	2.670	-0.160	-0.930	-0.610
2020/01/31 19:44:38.2	2.680	-0.140	-0.950	-0.650
2020/01/31 19:44:38.3	2.700	-0.110	-0.950	-0.700
2020/01/31 19:44:38.4	2.720	-0.090	-0.960	-0.730
2020/01/31 19:44:38.5	2.740	-0.060	-0.960	-0.770
2020/01/31 19:44:38.6	2.760	-0.040	-0.950	-0.800
2020/01/31 19:44:38.7	2.780	-0.010	-0.940	-0.820
2020/01/31 19:44:38.8	2.800	0.020	-0.930	-0.850
2020/01/31 19:44:38.9	2.820	0.050	-0.910	-0.870
2020/01/31 19:44:39.0	2.850	0.080	-0.890	-0.890
2020/01/31 19:44:39.1	2.870	0.110	-0.860	-0.900
2020/01/31 19:44:39.2	2.890	0.130	-0.830	-0.900
2020/01/31 19:44:39.3	2.910	0.160	-0.790	-0.900
2020/01/31 19:44:39.4	2.930	0.190	-0.750	-0.900
2020/01/31 19:44:39.5	2.950	0.210	-0.710	-0.900
2020/01/31 19:44:39.6	2.980	0.240	-0.660	-0.890
2020/01/31 19:44:39.7	3.000	0.260	-0.610	-0.870
2020/01/31 19:44:39.8	3.020	0.280	-0.570	-0.860
2020/01/31 19:44:39.9	3.050	0.300	-0.520	-0.830
2020/01/31 19:44:40.0	3.070	0.320	-0.470	-0.810
2020/01/31 19:44:40.1	3.090	0.330	-0.420	-0.780
2020/01/31 19:44:40.2	3.110	0.340	-0.360	-0.750
2020/01/31 19:44:40.3	3.130	0.350	-0.310	-0.720
2020/01/31 19:44:40.4	3.150	0.360	-0.260	-0.680
2020/01/31 19:44:40.5	3.160	0.370	-0.210	-0.650
2020/01/31 19:44:40.6	3.180	0.370	-0.160	-0.610
2020/01/31 19:44:40.7	3.190	0.370	-0.120	-0.570
2020/01/31 19:44:40.8	3.210	0.370	-0.070	-0.530
2020/01/31 19:44:40.9	3.210	0.370	-0.030	-0.480
2020/01/31 19:44:41.0	3.220	0.360	0.010	-0.440
2020/01/31 19:44:41.1	3.230	0.350	0.050	-0.400
2020/01/31 19:44:41.2	3.240	0.340	0.080	-0.350
2020/01/31 19:44:41.3	3.250	0.330	0.120	-0.300
2020/01/31 19:44:41.4	3.260	0.310	0.150	-0.260
2020/01/31 19:44:41.5	3.270	0.290	0.180	-0.220
2020/01/31 19:44:41.6	3.280	0.280	0.200	-0.170
2020/01/31 19:44:41.7	3.280	0.260	0.230	-0.130
2020/01/31 19:44:41.8	3.280	0.230	0.250	-0.090
2020/01/31 19:44:41.9	3.290	0.210	0.260	-0.050
2020/01/31 19:44:42.0	3.290	0.190	0.280	-0.010
2020/01/31 19:44:42.1	3.290	0.160	0.290	0.030
2020/01/31 19:44:42.2	3.280	0.130	0.310	0.060
2020/01/31 19:44:42.3	3.280	0.110	0.310	0.100
2020/01/31 19:44:42.4	3.270	0.080	0.320	0.130
2020/01/31 19:44:42.5	3.270	0.050	0.320	0.160
2020/01/31 19:44:42.6	3.260	0.020	0.320	0.190
2020/01/31 19:44:42.7	3.250	-0.000	0.320	0.210
2020/01/31 19:44:42.8	3.240	-0.030	0.320	0.240
2020/01/31 19:44:42.9	3.230	-0.060	0.310	0.260
2020/01/31 19:44:43.0	3.220	-0.090	0.300	0.280
2020/01/31 19:44:43.1	3.210	-0.110	0.290	0.290
2020/01/31 19:44:43.2	3.190	-0.140	0.270	0.300
2020/01/31 19:44:43.3	3.180	-0.160	0.250	0.310
2020/01/31 19:44:43.4	3.170	-0.190	0.230	0.310
2020/01/31 19:44:43.5	3.160	-0.210	0.200	0.310
2020/01/31 19:44:43.6	3.150	-0.230	0.170	0.310
2020/01/31 19:44:43.7	3.140	-0.250	0.140	0.300
2020/01/31 19:44:43.8	3.130	-0.260	0.100	0.290
2020/01/31 19:44:43.9	3.130	-0.280	0.060	0.270
2020/01/31 19:44:44.0	3.120	-0.290	0.020	0.250
2020/01/31 19:44:44.1	3.120	-0.300	-0.020	0.230
2020/01/31 19:44:44.2	3.120	-0.310	-0.060	0.210
2020/01/31 19:44:44.3	3.110	-0.320	-0.110	0.180
2020/01/31 19:44:44.4	3.110	-0.320	-0.150	0.150
2020/01/31 19:44:44.5	3.110	-0.330	-0.200	0.120
2020/01/31 19:44:44.6	3.110	-0.320	-0.240	0.080
2020/01/31 19:44:44.7	3.110	-0.320	-0.290	0.050
2020/01/31 19:44:44.8	3.110	-0.320	-0.330	0.020
2020/01/31 19:44:44.9	3.120	-0.310	-0.370	-0.020
2020/01/31 19:44:45.0	3.120	-0.300	-0.410	-0.050
2020/01/31 19:44:45.1	3.110	-0.290	-0.450	-0.080
2020/01/31 19:44:45.2	3.110	-0.270	-0.480	-0.110
2020/01/31 19:44:45.3	3.100	-0.260	-0.510	-0.140
2020/01/31 19:44:45.4	3.090	-0.240	-0.530	-0.160
2020/01/31 19:44:45.5	3.080	-0.220	-0.550	-0.180
2020/01/31 19:44:45.6	3.070	-0.200	-0.560	-0.200
2020/01/31 19:44:45.7	3.060	-0.170	-0.570	-0.210
2020/01/31 19:44:45.8	3.050	-0.150	-0.580	-0.220
2020/01/31 19:44:45.9	3.040	-0.130	-0.590	-0.230
2020/01/31 19:44:46.0	3.020	-0.100	-0.580	-0.240
2020/01/31 19:44:46.1	3.010	-0.080	-0.580	-0.230
2020/01/31 19:44:46.2	2.990	-0.060	-0.570	-0.230
2020/01/31 19:44:46.3	2.980	-0.030	-0.550	-0.230
2020/01/31 19:44:46.4	2.960	-0.010	-0.540	-0.220
2020/01/31 19:44:46.5	2.950	0.010	-0.520	-0.210
2020/01/31 19:44:46.6	2.940	0.030	-0.500	-0.190
2020/01/31 19:44:46.7	2.930	0.050	-0.480	-0.180
2020/01/31 19:44:46.8	2.920	0.070	-0.450	-0.170
2020/01/31 19:44:46.9	2.910	0.090	-0.430	-0.150
2020/01/31 19:44:47.0	2.900	0.100	-0.410	-0.140
2020/01/31 19:44:47.1	2.900	0.120	-0.390	-0.120
2020/01/31 19:44:47.2	2.890	0.130	-0.360	-0.100
2020/01/31 19:44:47.3	2.890	0.140	-0.340	-0.090
2020/01/31 19:44:47.4	2.890	0.150	-0.320	-0.070
2020/01/31 19:44:47.5	2.890	0.150	-0.310	-0.060
2020/01/31 19:44:47.6	2.890	0.160	-0.290	-0.050
2020/01/31 19:44:47.7	2.890	0.160	-0.270	-0.040
2020/01/31 19:44:47.8	2.900	0.160	-0.260	-0.030
2020/01/31 19:44:47.9	2.910	0.160	-0.250	-0.020
2020/01/31 19:44:48.0	2.910	0.160	-0.240	-0.010
2020/01/31 19:44:48.1	2.920	0.160	-0.240	-0.000
2020/01/31 19:44:48.2	2.930	0.150	-0.230	0.000
2020/01/31 19:44:48.3	2.940	0.140	-0.220	0.000
2020/01/31 19:44:48.4	2.950	0.130	-0.220	0.010
2020/01/31 19:44:48.5	2.960	0.120	-0.220	0.010
2020/01/31 19:44:48.6	2.970	0.110	-0.210	0.010
2020/01/31 19:44:48.7	2.980	0.100	-0.210	0.010
2020/01/31 19:44:48.8	2.990	0.090	-0.210	0.010
2020/01/31 19:44:48.9	2.990	0.080	-0.210	0.010
2020/01/31 19:44:49.0	3.000	0.070	-0.210	0.010
2020/01/31 19:44:49.1	3.010	0.060	-0.210	0.010
2020/01/31 19:44:49.2	3.020	0.040	-0.210	0.010
2020/01/31 19:44:49.3	3.040	0.030	-0.210	0.010
2020/01/31 19:44:49.4	3.050	0.020	-0.210	0.010
2020/01/31 19:44:49.5	3.060	0.010	-0.210	0.010
2020/01/31 19:44:49.6	3.070	-0.000	-0.210	0.010
2020/01/31 19:44:49.7	3.080	-0.010	-0.200	0.020
2020/01/31 19:44:49.8	3.090	-0.020	-0.200	0.020
2020/01/31 19:44:49.9	3.100	-0.030	-0.190	0.030
2020/01/31 19:44:50.0	3.110	-0.030	-0.190	0.040
2020/01/31 19:44:50.1	3.110	-0.040	-0.180	0.050
2020/01/31 19:44:50.2	3.120	-0.040	-0.180	0.060
2020/01/31 19:44:50.3	3.120	-0.040	-0.170	0.070
2020/01/31 19:44:50.4	3.130	-0.050	-0.170	0.080
2020/01/31 19:44:50.5	3.130	-0.050	-0.160	0.090
2020/01/31 19:44:50.6	3.130	-0.050	-0.150	0.100
2020/01/31 19:44:50.7	3.130	-0.050	-0.150	0.110
2020/01/31 19:44:50.8	3.130	-0.050	-0.150	0.120
2020/01/31 19:44:50.9	3.120	-0.040	-0.140	0.130
2020/01/31 19:44:51.0	3.120	-0.040	-0.140	0.140
2020/01/31 19:44:51.1	3.130	-0.040	-0.140	0.150
2020/01/31 19:44:51.2	3.130	-0.030	-0.150	0.150
2020/01/31 19:44:51.3	3.130	-0.030	-0.150	0.150
2020/01/31 19:44:51.4	3.130	-0.020	-0.160	0.150
2020/01/31 19:44:51.5	3.130	-0.020	-0.170	0.140
2020/01/31 19:44:51.6	3.140	-0.010	-0.180	0.130
2020/01/31 19:44:51.7	3.140	-0.000	-0.190	0.120
2020/01/31 19:44:51.8	3.140	0.000	-0.210	0.110
2020/01/31 19:44:51.9	3.150	0.010	-0.230	0.090
2020/01/31 19:44:52.0	3.150	0.010	-0.250	0.070
2020/01/31 19:44:52.1	3.150	0.020	-0.270	0.050
2020/01/31 19:44:52.2	3.150	0.020	-0.290	0.020
2020/01/31 19:44:52.3	3.150	0.030	-0.320	-0.000
2020/01/31 19:44:52.4	3.150	0.030	-0.340	-0.030
2020/01/31 19:44:52.5	3.150	0.030	-0.360	-0.060
2020/01/31 19:44:52.6	3.150	0.030	-0.390	-0.100
2020/01/31 19:44:52.7	3.150	0.030	-0.410	-0.130
2020/01/31 19:44:52.8	3.150	0.020	-0.430	-0.170
2020/01/31 19:44:52.9	3.120	0.020	-0.450	-0.210
2020/01/31 19:44:53.0	3.120	0.010	-0.470	-0.240
2020/01/31 19:44:53.1	3.120	0.010	-0.490	-0.280
2020/01/31 19:44:53.2	3.110	-0.000	-0.510	-0.320
2020/01/31 19:44:53.3	3.110	-0.010	-0.520	-0.360
2020/01/31 19:44:53.4	3.100	-0.020	-0.540	-0.400
2020/01/31 19:44:53.5	3.100	-0.040	-0.550	-0.430
2020/01/31 19:44:53.6	3.090	-0.050	-0.550	-0.460
2020/01/31 19:44:53.7	3.090	-0.060	-0.560	-0.500
2020/01/31 19:44:53.8	3.080	-0.080	-0.560	-0.530
2020/01/31 19:44:53.9	3.080	-0.090	-0.560	-0.560
2020/01/31 19:44:54.0	3.080	-0.100	-0.560	-0.590
2020/01/31 19:44:54.1	3.080	-0.120	-0.560	-0.610
2020/01/31 19:44:54.2	3.080	-0.130	-0.560	-0.630
2020/01/31 19:44:54.3	3.080	-0.140	-0.550	-0.650
2020/01/31 19:44:54.4	3.080	-0.150	-0.540	-0.660
2020/01/31 19:44:54.5	3.090	-0.160	-0.530	-0.670
2020/01/31 19:44:54.6	3.100	-0.170	-0.520	-0.690
2020/01/31 19:44:54.7	3.110	-0.170	-0.510	-0.690
2020/01/31 19:44:54.8	3.120	-0.180	-0.490	-0.700
2020/01/31 19:44:54.9	3.130	-0.180	-0.480	-0.700
2020/01/31 19:44:55.0	3.140	-0.180	-0.460	-0.700
2020/01/31 19:44:55.1	3.160	-0.180	-0.450	-0.700
2020/01/31 19:44:55.2	3.170	-0.170	-0.430	-0.700
2020/01/31 19:44:55.3	3.190	-0.160	-0.420	-0.690
2020/01/31 19:44:55.4	3.200	-0.150	-0.400	-0.680
2020/01/31 19:44:55.5	3.220	-0.140	-0.380	-0.660
2020/01/31 19:44:55.6	3.240	-0.120	-0.360	-0.650
2020/01/31 19:44:55.7	3.250	-0.110	-0.340	-0.630
2020/01/31 19:44:55.8	3.270	-0.090	-0.320	-0.600
2020/01/31 19:44:55.9	3.280	-0.060	-0.300	-0.570
2020/01/31 19:44:56.0	3.300	-0.040	-0.280	-0.540
2020/01/31 19:44:56.1	3.310	-0.010	-0.260	-0.500
2020/01/31 19:44:56.2	3.320	0.020	-0.230	-0.460
2020/01/31 19:44:56.3	3.330	0.040	-0.210	-0.410
2020/01/31 19:44:56.4	3.330	0.070	-0.180	-0.360
2020/01/31 19:44:56.5	3.340	0.100	-0.150	-0.310
2020/01/31 19:44:56.6	3.330	0.130	-0.120	-0.250
2020/01/31 19:44:56.7	3.330	0.160	-0.090	-0.190
2020/01/31 19:44:56.8	3.330	0.190	-0.050	-0.130
2020/01/31 19:44:56.9	3.310	0.210	-0.020	-0.060
2020/01/31 19:44:57.0	3.300	0.240	0.010	0.010
2020/01/31 19:44:57.1	3.290	0.260	0.040	0.070
2020/01/31 19:44:57.2	3.280	0.280	0.080	0.140
2020/01/31 19:44:57.3	3.260	0.300	0.110	0.200
2020/01/31 19:44:57.4	3.240	0.310	0.140	0.260
2020/01/31 19:44:57.5	3.220	0.320	0.170	0.330
2020/01/31 19:44:57.6	3.200	0.330	0.200	0.390
2020/01/31 19:44:57.7	3.180	0.330	0.230	0.440
2020/01/31 19:44:57.8	3.160	0.330	0.250	0.490
2020/01/31 19:44:57.9	3.150	0.320	0.270	0.540
2020/01/31 19:44:58.0	3.130	0.320	0.280	0.580
2020/01/31 19:44:58.1	3.110	0.300	0.290	0.620
2020/01/31 19:44:58.2	3.090	0.290	0.300	0.650
2020/01/31 19:44:58.3	3.080	0.270	0.300	0.680
2020/01/31 19:44:58.4	3.060	0.250	0.300	0.700
2020/01/31 19:44:58.5	3.050	0.220	0.290	0.720
2020/01/31 19:44:58.6	3.040	0.190	0.270	0.720
2020/01/31 19:44:58.7	3.030	0.160	0.250	0.720
2020/01/31 19:44:58.8	3.020	0.130	0.230	0.720
2020/01/31 19:44:58.9	3.010	0.090	0.200	0.710
2020/01/31 19:44:59.0	3.000	0.050	0.170	0.690
2020/01/31 19:44:59.1	3.000	0.020	0.130	0.660
2020/01/31 19:44:59.2	3.000	-0.020	0.080	0.630
2020/01/31 19:44:59.3	3.010	-0.060	0.040	0.600
2020/01/31 19:44:59.4	3.010	-0.100	-0.010	0.560
2020/01/31 19:44:59.5	3.020	-0.140	-0.060	0.520
2020/01/31 19:44:59.6	3.030	-0.180	-0.120	0.470
2020/01/31 19:44:59.7	3.040	-0.220	-0.170	0.430
2020/01/31 19:44:59.8	3.050	-0.260	-0.230	0.380
2020/01/31 19:44:59.9	3.080	-0.290	-0.280	0.320
2020/01/31 19:45:00.0	3.090	-0.320	-0.340	0.260
2020/01/31 19:45:00.1	3.110	-0.350	-0.390	0.210
2020/01/31 19:45:00.2	3.130	-0.380	-0.440	0.160
2020/01/31 19:45:00.3	3.140	-0.400	-0.480	0.110
2020/01/31 19:45:00.4	3.160	-0.420	-0.530	0.050
2020/01/31 19:45:00.5	3.180	-0.430	-0.560	0.010
2020/01/31 19:45:00.6	3.190	-0.440	-0.590	-0.040
2020/01/31 19:45:00.7	3.210	-0.450	-0.620	-0.090
2020/01/31 19:45:00.8	3.230	-0.460	-0.640	-0.130
2020/01/31 19:45:00.9	3.240	-0.460	-0.650	-0.170
2020/01/31 19:45:01.0	3.260	-0.450	-0.660	-0.200
2020/01/31 19:45:01.1	3.270	-0.440	-0.660	-0.230
2020/01/31 19:45:01.2	3.280	-0.430	-0.650	-0.260
2020/01/31 19:45:01.3	3.290	-0.420	-0.640	-0.280
2020/01/31 19:45:01.4	3.300	-0.400	-0.620	-0.300
2020/01/31 19:45:01.5	3.310	-0.380	-0.590	-0.310
2020/01/31 19:45:01.6	3.320	-0.360	-0.560	-0.320
2020/01/31 19:45:01.7	3.320	-0.340	-0.530	-0.330
2020/01/31 19:45:01.8	3.320	-0.310	-0.490	-0.330
2020/01/31 19:45:01.9	3.310	-0.280	-0.460	-0.330
2020/01/31 19:45:02.0	3.310	-0.260	-0.410	-0.320
2020/01/31 19:45:02.1	3.310	-0.230	-0.370	-0.310
2020/01/31 19:45:02.2	3.300	-0.200	-0.320	-0.300
2020/01/31 19:45:02.3	3.290	-0.170	-0.280	-0.290
2020/01/31 19:45:02.4	3.290	-0.140	-0.230	-0.270
2020/01/31 19:45:02.5	3.280	-0.110	-0.190	-0.250
2020/01/31 19:45:02.6	3.270	-0.080	-0.150	-0.230
2020/01/31 19:45:02.7	3.260	-0.050	-0.110	-0.210
2020/01/31 19:45:02.8	3.250	-0.030	-0.070	-0.200
2020/01/31 19:45:02.9	3.240	-0.000	-0.040	-0.180
2020/01/31 19:45:03.0	3.230	0.020	-0.010	-0.160
2020/01/31 19:45:03.1	3.220	0.040	0.020	-0.140
2020/01/31 19:45:03.2	3.210	0.060	0.040	-0.130
2020/01/31 19:45:03.3	3.210	0.080	0.050	-0.110
2020/01/31 19:45:03.4	3.200	0.100	0.060	-0.100
2020/01/31 19:45:03.5	3.200	0.110	0.060	-0.080
2020/01/31 19:45:03.6	3.200	0.130	0.060	-0.070
2020/01/31 19:45:03.7	3.200	0.140	0.050	-0.060
2020/01/31 19:45:03.8	3.200	0.150	0.030	-0.060
2020/01/31 19:45:03.9	3.200	0.150	0.010	-0.050
2020/01/31 19:45:04.0	3.200	0.160	-0.020	-0.050
2020/01/31 19:45:04.1	3.200	0.160	-0.050	-0.040
2020/01/31 19:45:04.2	3.200	0.170	-0.090	-0.040
2020/01/31 19:45:04.3	3.210	0.170	-0.130	-0.040
2020/01/31 19:45:04.4	3.210	0.170	-0.170	-0.050
2020/01/31 19:45:04.5	3.220	0.170	-0.220	-0.050
2020/01/31 19:45:04.6	3.220	0.170	-0.270	-0.060
2020/01/31 19:45:04.7	3.230	0.170	-0.320	-0.070
2020/01/31 19:45:04.8	3.230	0.160	-0.370	-0.080
2020/01/31 19:45:04.9	3.240	0.160	-0.420	-0.090
2020/01/31 19:45:05.0	3.240	0.150	-0.480	-0.100
2020/01/31 19:45:05.1	3.250	0.150	-0.530	-0.120
2020/01/31 19:45:05.2	3.260	0.140	-0.590	-0.140
2020/01/31 19:45:05.3	3.270	0.140	-0.640	-0.160
2020/01/31 19:45:05.4	3.280	0.130	-0.690	-0.180
2020/01/31 19:45:05.5	3.290	0.130	-0.740	-0.200
2020/01/31 19:45:05.6	3.300	0.120	-0.790	-0.220
2020/01/31 19:45:05.7	3.310	0.110	-0.830	-0.250
2020/01/31 19:45:05.8	3.320	0.110	-0.870	-0.270
2020/01/31 19:45:05.9	3.330	0.100	-0.910	-0.300
2020/01/31 19:45:06.0	3.340	0.100	-0.940	-0.320
2020/01/31 19:45:06.1	3.350	0.090	-0.960	-0.350
2020/01/31 19:45:06.2	3.370	0.080	-0.980	-0.380
2020/01/31 19:45:06.3	3.380	0.080	-0.990	-0.400
2020/01/31 19:45:06.4	3.400	0.070	-1.000	-0.420
2020/01/31 19:45:06.5	3.410	0.070	-1.000	-0.450
2020/01/31 19:45:06.6	3.420	0.060	-0.990	-0.470
2020/01/31 19:45:06.7	3.440	0.060	-0.980	-0.490
2020/01/31 19:45:06.8	3.450	0.060	-0.960	-0.510
2020/01/31 19:45:06.9	3.470	0.050	-0.940	-0.520
2020/01/31 19:45:07.0	3.490	0.050	-0.910	-0.530
2020/01/31 19:45:07.1	3.500	0.050	-0.880	-0.540
2020/01/31 19:45:07.2	3.520	0.040	-0.840	-0.550
2020/01/31 19:45:07.3	3.530	0.040	-0.790	-0.560
2020/01/31 19:45:07.4	3.540	0.040	-0.740	-0.560
2020/01/31 19:45:07.5	3.550	0.040	-0.690	-0.560
2020/01/31 19:45:07.6	3.560	0.030	-0.630	-0.550
2020/01/31 19:45:07.7	3.570	0.030	-0.570	-0.540
2020/01/31 19:45:07.8	3.580	0.030	-0.500	-0.530
2020/01/31 19:45:07.9	3.570	0.030	-0.440	-0.520
2020/01/31 19:45:08.0	3.580	0.030	-0.370	-0.510
2020/01/31 19:45:08.1	3.580	0.030	-0.300	-0.490
2020/01/31 19:45:08.2	3.580	0.030	-0.220	-0.460
2020/01/31 19:45:08.3	3.570	0.030	-0.150	-0.440
2020/01/31 19:45:08.4	3.570	0.030	-0.080	-0.410
2020/01/31 19:45:08.5	3.560	0.030	-0.010	-0.380
2020/01/31 19:45:08.6	3.550	0.030	0.060	-0.350
2020/01/31 19:45:08.7	3.540	0.030	0.130	-0.310
2020/01/31 19:45:08.8	3.530	0.030	0.190	-0.280
2020/01/31 19:45:08.9	3.510	0.030	0.260	-0.240
2020/01/31 19:45:09.0	3.490	0.030	0.320	-0.200
2020/01/31 19:45:09.1	3.480	0.030	0.370	-0.160
2020/01/31 19:45:09.2	3.470	0.030	0.420	-0.130
2020/01/31 19:45:09.3	3.450	0.040	0.470	-0.090
2020/01/31 19:45:09.4	3.440	0.040	0.510	-0.050
2020/01/31 19:45:09.5	3.420	0.040	0.550	-0.010
2020/01/31 19:45:09.6	3.410	0.050	0.580	0.020
2020/01/31 19:45:09.7	3.400	0.050	0.610	0.050
2020/01/31 19:45:09.8	3.380	0.060	0.630	0.090
2020/01/31 19:45:09.9	3.360	0.060	0.640	0.120
2020/01/31 19:45:10.0	3.350	0.070	0.640	0.150
2020/01/31 19:45:10.1	3.340	0.070	0.640	0.170
2020/01/31 19:45:10.2	3.330	0.080	0.640	0.200
2020/01/31 19:45:10.3	3.320	0.080	0.630	0.220
2020/01/31 19:45:10.4	3.310	0.080	0.610	0.240
2020/01/31 19:45:10.5	3.300	0.090	0.590	0.260
2020/01/31 19:45:10.6	3.290	0.090	0.560	0.280
2020/01/31 19:45:10.7	3.280	0.090	0.530	0.290
2020/01/31 19:45:10.8	3.270	0.090	0.490	0.300
2020/01/31 19:45:10.9	3.270	0.090	0.450	0.310
2020/01/31 19:45:11.0	3.260	0.080	0.410	0.310
2020/01/31 19:45:11.1	3.250	0.080	0.360	0.310
2020/01/31 19:45:11.2	3.240	0.070	0.310	0.310
2020/01/31 19:45:11.3	3.240	0.060	0.260	0.300
2020/01/31 19:45:11.4	3.230	0.050	0.210	0.290
2020/01/31 19:45:11.5	3.230	0.030	0.150	0.270
2020/01/31 19:45:11.6	3.220	0.020	0.100	0.250
2020/01/31 19:45:11.7	3.220	-0.000	0.040	0.230
2020/01/31 19:45:11.8	3.210	-0.020	-0.010	0.200
2020/01/31 19:45:11.9	3.220	-0.040	-0.070	0.180
2020/01/31 19:45:12.0	3.220	-0.070	-0.130	0.140
2020/01/31 19:45:12.1	3.220	-0.090	-0.180	0.110
2020/01/31 19:45:12.2	3.220	-0.110	-0.230	0.080
2020/01/31 19:45:12.3	3.230	-0.140	-0.290	0.040
2020/01/31 19:45:12.4	3.230	-0.170	-0.340	0.010
2020/01/31 19:45:12.5	3.240	-0.190	-0.390	-0.030
2020/01/31 19:45:12.6	3.240	-0.220	-0.430	-0.070
2020/01/31 19:45:12.7	3.250	-0.250	-0.480	-0.100
2020/01/31 19:45:12.8	3.250	-0.280	-0.520	-0.140
2020/01/31 19:45:12.9	3.260	-0.300	-0.560	-0.180
2020/01/31 19:45:13.0	3.270	-0.330	-0.600	-0.210
2020/01/31 19:45:13.1	3.270	-0.350	-0.630	-0.250
2020/01/31 19:45:13.2	3.280	-0.370	-0.660	-0.280
2020/01/31 19:45:13.3	3.290	-0.390	-0.690	-0.310
2020/01/31 19:45:13.4	3.300	-0.410	-0.720	-0.340
2020/01/31 19:45:13.5	3.310	-0.430	-0.740	-0.370
2020/01/31 19:45:13.6	3.320	-0.440	-0.770	-0.400
2020/01/31 19:45:13.7	3.320	-0.450	-0.790	-0.420
2020/01/31 19:45:13.8	3.330	-0.460	-0.800	-0.450
2020/01/31 19:45:13.9	3.340	-0.460	-0.820	-0.470
2020/01/31 19:45:14.0	3.350	-0.460	-0.830	-0.500
2020/01/31 19:45:14.1	3.350	-0.460	-0.840	-0.520
2020/01/31 19:45:14.2	3.360	-0.450	-0.850	-0.530
2020/01/31 19:45:14.3	3.360	-0.440	-0.860	-0.550
2020/01/31 19:45:14.4	3.370	-0.420	-0.870	-0.560
2020/01/31 19:45:14.5	3.370	-0.410	-0.870	-0.570
2020/01/31 19:45:14.6	3.370	-0.380	-0.880	-0.580
2020/01/31 19:45:14.7	3.370	-0.360	-0.880	-0.580
2020/01/31 19:45:14.8	3.370	-0.330	-0.870	-0.580
2020/01/31 19:45:14.9	3.370	-0.300	-0.870	-0.580
2020/01/31 19:45:15.0	3.360	-0.260	-0.860	-0.570
2020/01/31 19:45:15.1	3.360	-0.220	-0.850	-0.550
2020/01/31 19:45:15.2	3.350	-0.180	-0.840	-0.530
2020/01/31 19:45:15.3	3.340	-0.140	-0.820	-0.500
2020/01/31 19:45:15.4	3.330	-0.090	-0.810	-0.470
2020/01/31 19:45:15.5	3.310	-0.050	-0.780	-0.440
2020/01/31 19:45:15.6	3.290	0.000	-0.760	-0.400
2020/01/31 19:45:15.7	3.280	0.050	-0.730	-0.350
2020/01/31 19:45:15.8	3.260	0.090	-0.700	-0.310
2020/01/31 19:45:15.9	3.230	0.140	-0.670	-0.260
2020/01/31 19:45:16.0	3.200	0.190	-0.630	-0.210
2020/01/31 19:45:16.1	3.180	0.230	-0.600	-0.160
2020/01/31 19:45:16.2	3.150	0.270	-0.550	-0.110
2020/01/31 19:45:16.3	3.120	0.310	-0.510	-0.050
2020/01/31 19:45:16.4	3.100	0.350	-0.470	-0.000
2020/01/31 19:45:16.5	3.070	0.390	-0.420	0.050
2020/01/31 19:45:16.6	3.040	0.420	-0.370	0.110
2020/01/31 19:45:16.7	3.010	0.450	-0.330	0.160
2020/01/31 19:45:16.8	2.980	0.480	-0.280	0.210
2020/01/31 19:45:16.9	2.940	0.500	-0.240	0.260
2020/01/31 19:45:17.0	2.910	0.520	-0.190	0.310
2020/01/31 19:45:17.1	2.880	0.540	-0.140	0.360
2020/01/31 19:45:17.2	2.860	0.550	-0.100	0.400
2020/01/31 19:45:17.3	2.840	0.560	-0.060	0.450
2020/01/31 19:45:17.4	2.820	0.560	-0.020	0.490
2020/01/31 19:45:17.5	2.800	0.570	0.020	0.520
2020/01/31 19:45:17.6	2.790	0.570	0.060	0.550
2020/01/31 19:45:17.7	2.770	0.560	0.090	0.580
2020/01/31 19:45:17.8	2.770	0.560	0.120	0.610
2020/01/31 19:45:17.9	2.770	0.550	0.140	0.620
2020/01/31 19:45:18.0	2.760	0.530	0.160	0.640
2020/01/31 19:45:18.1	2.760	0.520	0.180	0.650
2020/01/31 19:45:18.2	2.770	0.500	0.190	0.650
2020/01/31 19:45:18.3	2.770	0.470	0.200	0.650
2020/01/31 19:45:18.4	2.780	0.450	0.210	0.640
2020/01/31 19:45:18.5	2.790	0.420	0.210	0.630
2020/01/31 19:45:18.6	2.800	0.390	0.210	0.610
2020/01/31 19:45:18.7	2.820	0.360	0.210	0.580
2020/01/31 19:45:18.8	2.830	0.330	0.200	0.560
2020/01/31 19:45:18.9	2.840	0.300	0.190	0.530
2020/01/31 19:45:19.0	2.860	0.260	0.180	0.490
2020/01/31 19:45:19.1	2.880	0.230	0.160	0.450
2020/01/31 19:45:19.2	2.900	0.190	0.140	0.400
2020/01/31 19:45:19.3	2.930	0.150	0.120	0.360
2020/01/31 19:45:19.4	2.950	0.110	0.100	0.310
2020/01/31 19:45:19.5	2.980	0.070	0.080	0.260
2020/01/31 19:45:19.6	3.010	0.030	0.050	0.200
2020/01/31 19:45:19.7	3.040	-0.010	0.020	0.150
2020/01/31 19:45:19.8	3.060	-0.040	-0.000	0.090
2020/01/31 19:45:19.9	3.090	-0.080	-0.030	0.030
2020/01/31 19:45:20.0	3.120	-0.120	-0.060	-0.030
2020/01/31 19:45:20.1	3.150	-0.150	-0.080	-0.080
2020/01/31 19:45:20.2	3.180	-0.190	-0.110	-0.140
2020/01/31 19:45:20.3	3.210	-0.220	-0.140	-0.190
2020/01/31 19:45:20.4	3.240	-0.250	-0.170	-0.240
2020/01/31 19:45:20.5	3.260	-0.280	-0.190	-0.280
2020/01/31 19:45:20.6	3.290	-0.300	-0.210	-0.330
2020/01/31 19:45:20.7	3.310	-0.330	-0.230	-0.370
2020/01/31 19:45:20.8	3.330	-0.350	-0.250	-0.410
2020/01/31 19:45:20.9	3.350	-0.370	-0.280	-0.440
2020/01/31 19:45:21.0	3.360	-0.390	-0.290	-0.470
2020/01/31 19:45:21.1	3.380	-0.400	-0.310	-0.500
2020/01/31 19:45:21.2	3.390	-0.420	-0.320	-0.520
2020/01/31 19:45:21.3	3.400	-0.430	-0.330	-0.540
2020/01/31 19:45:21.4	3.410	-0.430	-0.340	-0.560
2020/01/31 19:45:21.5	3.410	-0.440	-0.340	-0.570
2020/01/31 19:45:21.6	3.410	-0.440	-0.340	-0.580
2020/01/31 19:45:21.7	3.410	-0.440	-0.350	-0.580
2020/01/31 19:45:21.8	3.410	-0.440	-0.350	-0.580
2020/01/31 19:45:21.9	3.410	-0.440	-0.340	-0.580
2020/01/31 19:45:22.0	3.400	-0.430	-0.340	-0.570
2020/01/31 19:45:22.1	3.390	-0.430	-0.330	-0.560
2020/01/31 19:45:22.2	3.380	-0.420	-0.330	-0.540
2020/01/31 19:45:22.3	3.360	-0.410	-0.320	-0.530
2020/01/31 19:45:22.4	3.340	-0.400	-0.310	-0.510
2020/01/31 19:45:22.5	3.320	-0.390	-0.300	-0.490
2020/01/31 19:45:22.6	3.290	-0.370	-0.290	-0.470
2020/01/31 19:45:22.7	3.270	-0.360	-0.280	-0.450
2020/01/31 19:45:22.8	3.240	-0.340	-0.270	-0.430
2020/01/31 19:45:22.9	3.210	-0.330	-0.260	-0.400
2020/01/31 19:45:23.0	3.170	-0.310	-0.240	-0.380
2020/01/31 19:45:23.1	3.140	-0.290	-0.230	-0.350
2020/01/31 19:45:23.2	3.110	-0.270	-0.210	-0.330
2020/01/31 19:45:23.3	3.080	-0.260	-0.200	-0.300
2020/01/31 19:45:23.4	3.040	-0.240	-0.180	-0.270
2020/01/31 19:45:23.5	3.010	-0.220	-0.170	-0.240
2020/01/31 19:45:23.6	2.970	-0.200	-0.150	-0.220
2020/01/31 19:45:23.7	2.930	-0.180	-0.140	-0.190
2020/01/31 19:45:23.8	2.900	-0.160	-0.130	-0.160
2020/01/31 19:45:23.9	2.860	-0.150	-0.120	-0.130
2020/01/31 19:45:24.0	2.820	-0.130	-0.110	-0.110
2020/01/31 19:45:24.1	2.790	-0.110	-0.100	-0.080
2020/01/31 19:45:24.2	2.750	-0.090	-0.090	-0.060
2020/01/31 19:45:24.3	2.720	-0.080	-0.090	-0.040
2020/01/31 19:45:24.4	2.690	-0.060	-0.090	-0.020
2020/01/31 19:45:24.5	2.660	-0.050	-0.090	-0.000
2020/01/31 19:45:24.6	2.630	-0.030	-0.090	0.010
2020/01/31 19:45:24.7	2.600	-0.010	-0.090	0.030
2020/01/31 19:45:24.8	2.580	0.000	-0.100	0.040
2020/01/31 19:45:24.9	2.560	0.010	-0.110	0.050
2020/01/31 19:45:25.0	2.540	0.030	-0.120	0.060
2020/01/31 19:45:25.1	2.520	0.040	-0.130	0.060
2020/01/31 19:45:25.2	2.500	0.050	-0.150	0.070
2020/01/31 19:45:25.3	2.480	0.070	-0.170	0.070
2020/01/31 19:45:25.4	2.470	0.080	-0.190	0.070
2020/01/31 19:45:25.5	2.460	0.090	-0.210	0.070
2020/01/31 19:45:25.6	2.450	0.100	-0.230	0.070
2020/01/31 19:45:25.7	2.440	0.110	-0.260	0.070
2020/01/31 19:45:25.8	2.430	0.120	-0.280	0.060
2020/01/31 19:45:25.9	2.420	0.130	-0.310	0.050
2020/01/31 19:45:26.0	2.410	0.140	-0.340	0.050
2020/01/31 19:45:26.1	2.410	0.140	-0.370	0.040
2020/01/31 19:45:26.2	2.410	0.150	-0.400	0.030
2020/01/31 19:45:26.3	2.410	0.160	-0.430	0.010
2020/01/31 19:45:26.4	2.410	0.170	-0.460	-0.000
2020/01/31 19:45:26.5	2.420	0.170	-0.490	-0.020
2020/01/31 19:45:26.6	2.430	0.180	-0.510	-0.040
2020/01/31 19:45:26.7	2.440	0.190	-0.540	-0.060
2020/01/31 19:45:26.8	2.450	0.190	-0.570	-0.080
2020/01/31 19:45:26.9	2.460	0.200	-0.590	-0.100
2020/01/31 19:45:27.0	2.480	0.210	-0.620	-0.130
2020/01/31 19:45:27.1	2.500	0.210	-0.640	-0.150
2020/01/31 19:45:27.2	2.530	0.220	-0.660	-0.170
2020/01/31 19:45:27.3	2.550	0.220	-0.680	-0.200
2020/01/31 19:45:27.4	2.580	0.230	-0.690	-0.220
2020/01/31 19:45:27.5	2.610	0.240	-0.700	-0.240
2020/01/31 19:45:27.6	2.650	0.240	-0.710	-0.260
2020/01/31 19:45:27.7	2.680	0.250	-0.720	-0.280
2020/01/31 19:45:27.8	2.720	0.260	-0.720	-0.300
2020/01/31 19:45:27.9	2.760	0.260	-0.720	-0.320
2020/01/31 19:45:28.0	2.800	0.270	-0.710	-0.340
2020/01/31 19:45:28.1	2.840	0.270	-0.710	-0.360
2020/01/31 19:45:28.2	2.880	0.280	-0.690	-0.370
2020/01/31 19:45:28.3	2.930	0.280	-0.680	-0.390
2020/01/31 19:45:28.4	2.970	0.280	-0.660	-0.400
2020/01/31 19:45:28.5	3.010	0.280	-0.630	-0.410
2020/01/31 19:45:28.6	3.050	0.280	-0.610	-0.420
2020/01/31 19:45:28.7	3.090	0.280	-0.580	-0.420
2020/01/31 19:45:28.8	3.130	0.280	-0.550	-0.430
2020/01/31 19:45:28.9	3.170	0.280	-0.510	-0.430
2020/01/31 19:45:29.0	3.210	0.280	-0.480	-0.430
2020/01/31 19:45:29.1	3.240	0.270	-0.440	-0.420
2020/01/31 19:45:29.2	3.270	0.270	-0.400	-0.420
2020/01/31 19:45:29.3	3.290	0.260	-0.360	-0.410
2020/01/31 19:45:29.4	3.320	0.250	-0.310	-0.400
2020/01/31 19:45:29.5	3.340	0.240	-0.270	-0.390
2020/01/31 19:45:29.6	3.350	0.230	-0.230	-0.370
2020/01/31 19:45:29.7	3.360	0.210	-0.180	-0.360
2020/01/31 19:45:29.8	3.370	0.200	-0.140	-0.340
2020/01/31 19:45:29.9	3.390	0.190	-0.100	-0.310
2020/01/31 19:45:30.0	3.400	0.170	-0.060	-0.290
2020/01/31 19:45:30.1	3.400	0.150	-0.020	-0.270
2020/01/31 19:45:30.2	3.390	0.140	0.020	-0.240
2020/01/31 19:45:30.3	3.390	0.120	0.050	-0.220
2020/01/31 19:45:30.4	3.380	0.100	0.080	-0.190
2020/01/31 19:45:30.5	3.370	0.080	0.120	-0.170
2020/01/31 19:45:30.6	3.360	0.060	0.140	-0.140
2020/01/31 19:45:30.7	3.350	0.040	0.170	-0.120
2020/01/31 19:45:30.8	3.330	0.020	0.190	-0.100
2020/01/31 19:45:30.9	3.310	0.000	0.200	-0.080
2020/01/31 19:45:31.0	3.300	-0.020	0.210	-0.060
2020/01/31 19:45:31.1	3.280	-0.030	0.220	-0.050
2020/01/31 19:45:31.2	3.260	-0.050	0.220	-0.040
2020/01/31 19:45:31.3	3.250	-0.070	0.220	-0.030
2020/01/31 19:45:31.4	3.230	-0.080	0.210	-0.020
2020/01/31 19:45:31.5	3.220	-0.100	0.200	-0.020
2020/01/31 19:45:31.6	3.200	-0.110	0.190	-0.020
2020/01/31 19:45:31.7	3.190	-0.130	0.170	-0.030
2020/01/31 19:45:31.8	3.170	-0.140	0.150	-0.040
2020/01/31 19:45:31.9	3.170	-0.150	0.120	-0.050
2020/01/31 19:45:32.0	3.150	-0.150	0.090	-0.070
2020/01/31 19:45:32.1	3.140	-0.160	0.060	-0.090
2020/01/31 19:45:32.2	3.130	-0.160	0.030	-0.110
2020/01/31 19:45:32.3	3.120	-0.170	-0.000	-0.140
2020/01/31 19:45:32.4	3.110	-0.170	-0.040	-0.170
2020/01/31 19:45:32.5	3.100	-0.170	-0.080	-0.200
2020/01/31 19:45:32.6	3.090	-0.170	-0.110	-0.230
2020/01/31 19:45:32.7	3.090	-0.160	-0.150	-0.260
2020/01/31 19:45:32.8	3.080	-0.160	-0.180	-0.300
2020/01/31 19:45:32.9	3.070	-0.150	-0.220	-0.340
2020/01/31 19:45:33.0	3.060	-0.150	-0.250	-0.380
2020/01/31 19:45:33.1	3.050	-0.140	-0.280	-0.410
2020/01/31 19:45:33.2	3.050	-0.130	-0.300	-0.450
2020/01/31 19:45:33.3	3.040	-0.120	-0.330	-0.480
2020/01/31 19:45:33.4	3.030	-0.110	-0.340	-0.510
2020/01/31 19:45:33.5	3.020	-0.100	-0.360	-0.530
2020/01/31 19:45:33.6	3.010	-0.090	-0.370	-0.560
2020/01/31 19:45:33.7	3.000	-0.080	-0.380	-0.580
2020/01/31 19:45:33.8	2.980	-0.070	-0.380	-0.590
2020/01/31 19:45:33.9	2.960	-0.070	-0.380	-0.610
2020/01/31 19:45:34.0	2.940	-0.060	-0.380	-0.620
2020/01/31 19:45:34.1	2.920	-0.050	-0.370	-0.620
2020/01/31 19:45:34.2	2.900	-0.050	-0.360	-0.630
2020/01/31 19:45:34.3	2.880	-0.050	-0.340	-0.630
2020/01/31 19:45:34.4	2.860	-0.040	-0.320	-0.630
2020/01/31 19:45:34.5	2.840	-0.040	-0.300	-0.630
2020/01/31 19:45:34.6	2.810	-0.050	-0.270	-0.620
2020/01/31 19:45:34.7	2.790	-0.050	-0.240	-0.610
2020/01/31 19:45:34.8	2.760	-0.050	-0.210	-0.600
2020/01/31 19:45:34.9	2.720	-0.060	-0.180	-0.590
2020/01/31 19:45:35.0	2.700	-0.070	-0.150	-0.580
2020/01/31 19:45:35.1	2.670	-0.080	-0.120	-0.560
2020/01/31 19:45:35.2	2.640	-0.090	-0.090	-0.550
2020/01/31 19:45:35.3	2.620	-0.110	-0.060	-0.530
2020/01/31 19:45:35.4	2.590	-0.120	-0.030	-0.510
2020/01/31 19:45:35.5	2.570	-0.130	-0.010	-0.490
2020/01/31 19:45:35.6	2.550	-0.150	0.010	-0.480
2020/01/31 19:45:35.7	2.530	-0.160	0.030	-0.460
2020/01/31 19:45:35.8	2.520	-0.180	0.040	-0.450
2020/01/31 19:45:35.9	2.490	-0.190	0.050	-0.440
2020/01/31 19:45:36.0	2.490	-0.200	0.060	-0.420
2020/01/31 19:45:36.1	2.480	-0.210	0.060	-0.410
2020/01/31 19:45:36.2	2.480	-0.220	0.050	-0.400
2020/01/31 19:45:36.3	2.480	-0.230	0.040	-0.390
2020/01/31 19:45:36.4	2.480	-0.240	0.030	-0.380
2020/01/31 19:45:36.5	2.480	-0.240	0.010	-0.370
2020/01/31 19:45:36.6	2.490	-0.240	-0.010	-0.360
2020/01/31 19:45:36.7	2.500	-0.240	-0.040	-0.340
2020/01/31 19:45:36.8	2.510	-0.230	-0.070	-0.330
2020/01/31 19:45:36.9	2.530	-0.230	-0.100	-0.320
2020/01/31 19:45:37.0	2.540	-0.220	-0.140	-0.310
2020/01/31 19:45:37.1	2.550	-0.210	-0.180	-0.290
2020/01/31 19:45:37.2	2.570	-0.190	-0.230	-0.280
2020/01/31 19:45:37.3	2.590	-0.170	-0.270	-0.260
2020/01/31 19:45:37.4	2.600	-0.160	-0.320	-0.250
2020/01/31 19:45:37.5	2.620	-0.130	-0.370	-0.240
2020/01/31 19:45:37.6	2.650	-0.110	-0.420	-0.220
2020/01/31 19:45:37.7	2.670	-0.080	-0.470	-0.210
2020/01/31 19:45:37.8	2.690	-0.060	-0.520	-0.200
2020/01/31 19:45:37.9	2.740	-0.030	-0.580	-0.190
2020/01/31 19:45:38.0	2.760	-0.000	-0.630	-0.180
2020/01/31 19:45:38.1	2.790	0.030	-0.680	-0.180
2020/01/31 19:45:38.2	2.820	0.060	-0.720	-0.170
2020/01/31 19:45:38.3	2.860	0.090	-0.770	-0.170
2020/01/31 19:45:38.4	2.890	0.120	-0.810	-0.170
2020/01/31 19:45:38.5	2.920	0.150	-0.850	-0.170
2020/01/31 19:45:38.6	2.960	0.170	-0.880	-0.180
2020/01/31 19:45:38.7	3.000	0.200	-0.920	-0.180
2020/01/31 19:45:38.8	3.030	0.230	-0.940	-0.190
2020/01/31 19:45:38.9	3.080	0.250	-0.960	-0.190
2020/01/31 19:45:39.0	3.120	0.280	-0.980	-0.200
2020/01/31 19:45:39.1	3.150	0.300	-0.990	-0.200
2020/01/31 19:45:39.2	3.190	0.310	-1.000	-0.200
2020/01/31 19:45:39.3	3.220	0.330	-1.000	-0.200
2020/01/31 19:45:39.4	3.260	0.340	-1.000	-0.210
2020/01/31 19:45:39.5	3.290	0.350	-0.980	-0.200
2020/01/31 19:45:39.6	3.320	0.360	-0.960	-0.200
2020/01/31 19:45:39.7	3.340	0.360	-0.940	-0.200
2020/01/31 19:45:39.8	3.370	0.360	-0.910	-0.190
2020/01/31 19:45:39.9	3.390	0.360	-0.870	-0.180
2020/01/31 19:45:40.0	3.410	0.350	-0.830	-0.170
2020/01/31 19:45:40.1	3.430	0.340	-0.780	-0.160
2020/01/31 19:45:40.2	3.440	0.320	-0.720	-0.150
2020/01/31 19:45:40.3	3.440	0.310	-0.660	-0.130
2020/01/31 19:45:40.4	3.440	0.280	-0.590	-0.110
2020/01/31 19:45:40.5	3.440	0.260	-0.520	-0.090
2020/01/31 19:45:40.6	3.430	0.230	-0.440	-0.070
2020/01/31 19:45:40.7	3.420	0.200	-0.360	-0.050
2020/01/31 19:45:40.8	3.410	0.170	-0.270	-0.020
2020/01/31 19:45:40.9	3.390	0.130	-0.190	0.000
2020/01/31 19:45:41.0	3.360	0.090	-0.100	0.030
2020/01/31 19:45:41.1	3.340	0.050	-0.000	0.050
2020/01/31 19:45:41.2	3.300	0.010	0.090	0.080
2020/01/31 19:45:41.3	3.270	-0.030	0.180	0.100
2020/01/31 19:45:41.4	3.230	-0.080	0.270	0.130
2020/01/31 19:45:41.5	3.190	-0.120	0.360	0.150
2020/01/31 19:45:41.6	3.150	-0.170	0.450	0.180
2020/01/31 19:45:41.7	3.100	-0.210	0.540	0.200
2020/01/31 19:45:41.8	3.050	-0.250	0.630	0.230
2020/01/31 19:45:41.9	2.990	-0.290	0.700	0.240
2020/01/31 19:45:42.0	2.930	-0.330	0.780	0.270
2020/01/31 19:45:42.1	2.880	-0.370	0.850	0.290
2020/01/31 19:45:42.2	2.820	-0.400	0.910	0.310
2020/01/31 19:45:42.3	2.760	-0.430	0.970	0.340
2020/01/31 19:45:42.4	2.700	-0.460	1.020	0.360
2020/01/31 19:45:42.5	2.640	-0.480	1.060	0.380
2020/01/31 19:45:42.6	2.580	-0.500	1.100	0.400
2020/01/31 19:45:42.7	2.520	-0.520	1.120	0.420
2020/01/31 19:45:42.8	2.450	-0.530	1.140	0.440
2020/01/31 19:45:42.9	2.380	-0.540	1.150	0.460
2020/01/31 19:45:43.0	2.310	-0.540	1.140	0.470
2020/01/31 19:45:43.1	2.250	-0.540	1.130	0.490
2020/01/31 19:45:43.2	2.190	-0.530	1.110	0.500
2020/01/31 19:45:43.3	2.140	-0.510	1.070	0.500
2020/01/31 19:45:43.4	2.080	-0.500	1.030	0.510
2020/01/31 19:45:43.5	2.030	-0.470	0.970	0.500
2020/01/31 19:45:43.6	1.980	-0.440	0.910	0.500
2020/01/31 19:45:43.7	1.930	-0.410	0.830	0.490
2020/01/31 19:45:43.8	1.890	-0.370	0.740	0.470
2020/01/31 19:45:43.9	1.850	-0.330	0.650	0.450
2020/01/31 19:45:44.0	1.820	-0.290	0.540	0.420
2020/01/31 19:45:44.1	1.790	-0.240	0.420	0.390
2020/01/31 19:45:44.2	1.770	-0.180	0.300	0.360
2020/01/31 19:45:44.3	1.760	-0.130	0.170	0.320
2020/01/31 19:45:44.4	1.750	-0.070	0.030	0.280
2020/01/31 19:45:44.5	1.750	-0.000	-0.120	0.230
2020/01/31 19:45:44.6	1.750	0.060	-0.270	0.170
2020/01/31 19:45:44.7	1.760	0.130	-0.420	0.120
2020/01/31 19:45:44.8	1.780	0.190	-0.580	0.060
2020/01/31 19:45:44.9	1.810	0.260	-0.730	-0.010
2020/01/31 19:45:45.0	1.830	0.330	-0.890	-0.080
2020/01/31 19:45:45.1	1.870	0.390	-1.050	-0.150
2020/01/31 19:45:45.2	1.910	0.460	-1.210	-0.220
2020/01/31 19:45:45.3	1.950	0.520	-1.360	-0.290
2020/01/31 19:45:45.4	2.000	0.570	-1.500	-0.370
2020/01/31 19:45:45.5	2.050	0.630	-1.640	-0.440
2020/01/31 19:45:45.6	2.100	0.680	-1.770	-0.510
2020/01/31 19:45:45.7	2.160	0.730	-1.890	-0.580
2020/01/31 19:45:45.8	2.210	0.770	-2.000	-0.650
2020/01/31 19:45:45.9	2.290	0.800	-2.090	-0.720
2020/01/31 19:45:46.0	2.340	0.830	-2.170	-0.780
2020/01/31 19:45:46.1	2.400	0.850	-2.240	-0.830
2020/01/31 19:45:46.2	2.460	0.870	-2.290	-0.890
2020/01/31 19:45:46.3	2.510	0.870	-2.320	-0.940
2020/01/31 19:45:46.4	2.570	0.870	-2.340	-0.980
2020/01/31 19:45:46.5	2.620	0.870	-2.340	-1.020
2020/01/31 19:45:46.6	2.670	0.850	-2.320	-1.060
2020/01/31 19:45:46.7	2.720	0.830	-2.290	-1.090
2020/01/31 19:45:46.8	2.770	0.800	-2.240	-1.110
2020/01/31 19:45:46.9	2.810	0.770	-2.170	-1.130
2020/01/31 19:45:47.0	2.850	0.730	-2.090	-1.140
2020/01/31 19:45:47.1	2.890	0.680	-2.000	-1.150
2020/01/31 19:45:47.2	2.920	0.630	-1.890	-1.150
2020/01/31 19:45:47.3	2.960	0.570	-1.760	-1.140
2020/01/31 19:45:47.4	2.980	0.510	-1.630	-1.130
2020/01/31 19:45:47.5	3.010	0.440	-1.490	-1.120
2020/01/31 19:45:47.6	3.030	0.370	-1.340	-1.100
2020/01/31 19:45:47.7	3.050	0.300	-1.180	-1.080
2020/01/31 19:45:47.8	3.070	0.220	-1.010	-1.050
2020/01/31 19:45:47.9	3.090	0.150	-0.840	-1.020
2020/01/31 19:45:48.0	3.090	0.070	-0.670	-0.980
2020/01/31 19:45:48.1	3.100	-0.010	-0.490	-0.940
2020/01/31 19:45:48.2	3.100	-0.090	-0.320	-0.900
2020/01/31 19:45:48.3	3.100	-0.160	-0.140	-0.860
2020/01/31 19:45:48.4	3.090	-0.240	0.030	-0.810
2020/01/31 19:45:48.5	3.080	-0.310	0.200	-0.760
2020/01/31 19:45:48.6	3.070	-0.380	0.370	-0.710
2020/01/31 19:45:48.7	3.050	-0.440	0.530	-0.650
2020/01/31 19:45:48.8	3.030	-0.500	0.680	-0.600
2020/01/31 19:45:48.9	3.000	-0.560	0.820	-0.540
2020/01/31 19:45:49.0	2.970	-0.610	0.960	-0.480
2020/01/31 19:45:49.1	2.950	-0.660	1.090	-0.420
2020/01/31 19:45:49.2	2.920	-0.700	1.200	-0.360
2020/01/31 19:45:49.3	2.890	-0.730	1.310	-0.300
2020/01/31 19:45:49.4	2.850	-0.760	1.400	-0.240
2020/01/31 19:45:49.5	2.820	-0.780	1.480	-0.180
2020/01/31 19:45:49.6	2.780	-0.790	1.550	-0.120
2020/01/31 19:45:49.7	2.750	-0.800	1.600	-0.060
2020/01/31 19:45:49.8	2.710	-0.800	1.640	0.000
2020/01/31 19:45:49.9	2.690	-0.790	1.660	0.060
2020/01/31 19:45:50.0	2.660	-0.780	1.680	0.110
2020/01/31 19:45:50.1	2.620	-0.760	1.670	0.160
2020/01/31 19:45:50.2	2.590	-0.730	1.660	0.220
2020/01/31 19:45:50.3	2.560	-0.700	1.630	0.260
2020/01/31 19:45:50.4	2.530	-0.660	1.590	0.310
2020/01/31 19:45:50.5	2.500	-0.620	1.540	0.350
2020/01/31 19:45:50.6	2.470	-0.570	1.470	0.390
2020/01/31 19:45:50.7	2.440	-0.520	1.400	0.430
2020/01/31 19:45:50.8	2.420	-0.470	1.320	0.460
2020/01/31 19:45:50.9	2.390	-0.410	1.230	0.490
2020/01/31 19:45:51.0	2.360	-0.350	1.130	0.520
2020/01/31 19:45:51.1	2.340	-0.290	1.020	0.540
2020/01/31 19:45:51.2	2.320	-0.220	0.910	0.560
2020/01/31 19:45:51.3	2.300	-0.160	0.790	0.570
2020/01/31 19:45:51.4	2.280	-0.090	0.670	0.580
2020/01/31 19:45:51.5	2.260	-0.030	0.540	0.590
2020/01/31 19:45:51.6	2.240	0.030	0.420	0.590
2020/01/31 19:45:51.7	2.220	0.090	0.290	0.590
2020/01/31 19:45:51.8	2.200	0.150	0.170	0.590
2020/01/31 19:45:51.9	2.190	0.210	0.040	0.580
2020/01/31 19:45:52.0	2.170	0.260	-0.080	0.570
2020/01/31 19:45:52.1	2.150	0.310	-0.200	0.570
2020/01/31 19:45:52.2	2.140	0.350	-0.310	0.560
2020/01/31 19:45:52.3	2.120	0.390	-0.420	0.550
2020/01/31 19:45:52.4	2.100	0.430	-0.520	0.530
2020/01/31 19:45:52.5	2.080	0.450	-0.610	0.520
2020/01/31 19:45:52.6	2.070	0.480	-0.700	0.510
2020/01/31 19:45:52.7	2.050	0.500	-0.780	0.490
2020/01/31 19:45:52.8	2.030	0.510	-0.850	0.470
2020/01/31 19:45:52.9	2.010	0.510	-0.900	0.450
2020/01/31 19:45:53.0	1.990	0.510	-0.960	0.430
2020/01/31 19:45:53.1	1.980	0.500	-1.000	0.410
2020/01/31 19:45:53.2	1.960	0.490	-1.030	0.390
2020/01/31 19:45:53.3	1.950	0.470	-1.060	0.360
2020/01/31 19:45:53.4	1.940	0.450	-1.080	0.330
2020/01/31 19:45:53.5	1.930	0.420	-1.090	0.300
2020/01/31 19:45:53.6	1.920	0.380	-1.090	0.270
2020/01/31 19:45:53.7	1.910	0.340	-1.080	0.230
2020/01/31 19:45:53.8	1.900	0.300	-1.070	0.190
2020/01/31 19:45:53.9	1.900	0.260	-1.060	0.150
2020/01/31 19:45:54.0	1.900	0.210	-1.040	0.100
2020/01/31 19:45:54.1	1.900	0.150	-1.020	0.060
2020/01/31 19:45:54.2	1.900	0.100	-0.990	0.010
2020/01/31 19:45:54.3	1.900	0.050	-0.970	-0.050
2020/01/31 19:45:54.4	1.910	-0.010	-0.940	-0.100
2020/01/31 19:45:54.5	1.930	-0.060	-0.910	-0.160
2020/01/31 19:45:54.6	1.940	-0.120	-0.880	-0.210
2020/01/31 19:45:54.7	1.960	-0.170	-0.850	-0.270
2020/01/31 19:45:54.8	1.980	-0.220	-0.820	-0.330
2020/01/31 19:45:54.9	2.000	-0.260	-0.800	-0.390
2020/01/31 19:45:55.0	2.020	-0.310	-0.770	-0.450
2020/01/31 19:45:55.1	2.050	-0.350	-0.750	-0.510
2020/01/31 19:45:55.2	2.080	-0.380	-0.730	-0.560
2020/01/31 19:45:55.3	2.110	-0.410	-0.710	-0.620
2020/01/31 19:45:55.4	2.140	-0.440	-0.690	-0.670
2020/01/31 19:45:55.5	2.180	-0.460	-0.680	-0.720
2020/01/31 19:45:55.6	2.210	-0.470	-0.670	-0.760
2020/01/31 19:45:55.7	2.250	-0.480	-0.660	-0.810
2020/01/31 19:45:55.8	2.290	-0.480	-0.650	-0.850
2020/01/31 19:45:55.9	2.320	-0.480	-0.650	-0.890
2020/01/31 19:45:56.0	2.360	-0.470	-0.640	-0.920
2020/01/31 19:45:56.1	2.400	-0.450	-0.640	-0.950
2020/01/31 19:45:56.2	2.440	-0.430	-0.640	-0.980
2020/01/31 19:45:56.3	2.480	-0.410	-0.630	-1.000
2020/01/31 19:45:56.4	2.520	-0.380	-0.630	-1.020
2020/01/31 19:45:56.5	2.560	-0.340	-0.630	-1.030
2020/01/31 19:45:56.6	2.600	-0.300	-0.620	-1.040
2020/01/31 19:45:56.7	2.640	-0.260	-0.610	-1.040
2020/01/31 19:45:56.8	2.680	-0.210	-0.600	-1.040
2020/01/31 19:45:56.9	2.720	-0.170	-0.590	-1.040
2020/01/31 19:45:57.0	2.760	-0.120	-0.580	-1.030
2020/01/31 19:45:57.1	2.800	-0.070	-0.560	-1.010
2020/01/31 19:45:57.2	2.840	-0.010	-0.540	-0.990
2020/01/31 19:45:57.3	2.870	0.040	-0.510	-0.970
2020/01/31 19:45:57.4	2.900	0.090	-0.480	-0.930
2020/01/31 19:45:57.5	2.930	0.130	-0.450	-0.900
2020/01/31 19:45:57.6	2.960	0.180	-0.420	-0.860
2020/01/31 19:45:57.7	2.980	0.220	-0.380	-0.810
2020/01/31 19:45:57.8	3.010	0.260	-0.340	-0.760
2020/01/31 19:45:57.9	3.040	0.300	-0.310	-0.700
2020/01/31 19:45:58.0	3.050	0.330	-0.260	-0.640
2020/01/31 19:45:58.1	3.060	0.360	-0.220	-0.580
2020/01/31 19:45:58.2	3.070	0.390	-0.170	-0.510
2020/01/31 19:45:58.3	3.080	0.410	-0.120	-0.440
2020/01/31 19:45:58.4	3.080	0.420	-0.070	-0.370
2020/01/31 19:45:58.5	3.090	0.430	-0.020	-0.300
2020/01/31 19:45:58.6	3.080	0.430	0.020	-0.230
2020/01/31 19:45:58.7	3.080	0.430	0.070	-0.160
2020/01/31 19:45:58.8	3.070	0.420	0.120	-0.080
2020/01/31 19:45:58.9	3.050	0.410	0.160	-0.010
2020/01/31 19:45:59.0	3.030	0.390	0.200	0.060
2020/01/31 19:45:59.1	3.020	0.370	0.240	0.120
2020/01/31 19:45:59.2	3.000	0.350	0.270	0.190
2020/01/31 19:45:59.3	2.980	0.320	0.310	0.250
2020/01/31 19:45:59.4	2.960	0.290	0.340	0.310
2020/01/31 19:45:59.5	2.930	0.250	0.360	0.360
2020/01/31 19:45:59.6	2.910	0.210	0.380	0.410
2020/01/31 19:45:59.7	2.880	0.170	0.400	0.460
2020/01/31 19:45:59.8	2.850	0.130	0.410	0.500
2020/01/31 19:45:59.9	2.820	0.090	0.420	0.540
2020/01/31 19:46:00.0	2.790	0.050	0.420	0.570
2020/01/31 19:46:00.1	2.760	0.000	0.420	0.590
2020/01/31 19:46:00.2	2.730	-0.040	0.420	0.610
2020/01/31 19:46:00.3	2.700	-0.080	0.410	0.630
2020/01/31 19:46:00.4	2.670	-0.110	0.390	0.630
2020/01/31 19:46:00.5	2.640	-0.150	0.370	0.640
2020/01/31 19:46:00.6	2.610	-0.180	0.350	0.640
2020/01/31 19:46:00.7	2.580	-0.210	0.330	0.640
2020/01/31 19:46:00.8	2.550	-0.230	0.300	0.630
2020/01/31 19:46:00.9	2.540	-0.250	0.270	0.620
2020/01/31 19:46:01.0	2.510	-0.260	0.230	0.610
2020/01/31 19:46:01.1	2.490	-0.270	0.190	0.590
2020/01/31 19:46:01.2	2.460	-0.270	0.150	0.580
2020/01/31 19:46:01.3	2.440	-0.270	0.100	0.560
2020/01/31 19:46:01.4	2.420	-0.260	0.060	0.540
2020/01/31 19:46:01.5	2.400	-0.240	0.010	0.520
2020/01/31 19:46:01.6	2.390	-0.230	-0.040	0.500
2020/01/31 19:46:01.7	2.370	-0.200	-0.090	0.470
2020/01/31 19:46:01.8	2.360	-0.170	-0.140	0.450
2020/01/31 19:46:01.9	2.350	-0.140	-0.190	0.420
2020/01/31 19:46:02.0	2.340	-0.110	-0.240	0.390
2020/01/31 19:46:02.1	2.330	-0.070	-0.290	0.360
2020/01/31 19:46:02.2	2.330	-0.030	-0.340	0.330
2020/01/31 19:46:02.3	2.330	0.020	-0.380	0.290
2020/01/31 19:46:02.4	2.330	0.060	-0.430	0.250
2020/01/31 19:46:02.5	2.330	0.110	-0.480	0.210
2020/01/31 19:46:02.6	2.340	0.150	-0.520	0.170
2020/01/31 19:46:02.7	2.340	0.200	-0.560	0.130
2020/01/31 19:46:02.8	2.350	0.240	-0.600	0.090
2020/01/31 19:46:02.9	2.360	0.280	-0.640	0.050
2020/01/31 19:46:03.0	2.380	0.320	-0.670	0.000
2020/01/31 19:46:03.1	2.390	0.360	-0.710	-0.040
2020/01/31 19:46:03.2	2.400	0.390	-0.740	-0.080
2020/01/31 19:46:03.3	2.420	0.420	-0.770	-0.120
2020/01/31 19:46:03.4	2.430	0.440	-0.790	-0.160
2020/01/31 19:46:03.5	2.450	0.470	-0.820	-0.200
2020/01/31 19:46:03.6	2.470	0.480	-0.840	-0.240
2020/01/31 19:46:03.7	2.490	0.500	-0.860	-0.280
2020/01/31 19:46:03.8	2.510	0.500	-0.870	-0.320
2020/01/31 19:46:03.9	2.530	0.510	-0.890	-0.360
2020/01/31 19:46:04.0	2.560	0.510	-0.900	-0.390
2020/01/31 19:46:04.1	2.580	0.500	-0.900	-0.430
2020/01/31 19:46:04.2	2.610	0.490	-0.900	-0.460
2020/01/31 19:46:04.3	2.630	0.480	-0.900	-0.490
2020/01/31 19:46:04.4	2.660	0.460	-0.900	-0.520
2020/01/31 19:46:04.5	2.680	0.440	-0.890	-0.540
2020/01/31 19:46:04.6	2.710	0.410	-0.880	-0.570
2020/01/31 19:46:04.7	2.740	0.380	-0.870	-0.590
2020/01/31 19:46:04.8	2.770	0.350	-0.860	-0.620
2020/01/31 19:46:04.9	2.790	0.320	-0.830	-0.640
2020/01/31 19:46:05.0	2.820	0.290	-0.810	-0.660
2020/01/31 19:46:05.1	2.850	0.250	-0.790	-0.680
2020/01/31 19:46:05.2	2.880	0.210	-0.760	-0.690
2020/01/31 19:46:05.3	2.910	0.180	-0.730	-0.700
2020/01/31 19:46:05.4	2.940	0.140	-0.700	-0.710
2020/01/31 19:46:05.5	2.970	0.100	-0.660	-0.720
2020/01/31 19:46:05.6	3.000	0.070	-0.620	-0.730
2020/01/31 19:46:05.7	3.030	0.030	-0.580	-0.730
2020/01/31 19:46:05.8	3.060	0.000	-0.540	-0.730
2020/01/31 19:46:05.9	3.080	-0.030	-0.500	-0.720
2020/01/31 19:46:06.0	3.100	-0.060	-0.450	-0.710
2020/01/31 19:46:06.1	3.120	-0.090	-0.400	-0.700
2020/01/31 19:46:06.2	3.150	-0.110	-0.340	-0.680
2020/01/31 19:46:06.3	3.160	-0.130	-0.290	-0.660
2020/01/31 19:46:06.4	3.180	-0.150	-0.230	-0.640
2020/01/31 19:46:06.5	3.200	-0.170	-0.170	-0.610
2020/01/31 19:46:06.6	3.210	-0.190	-0.120	-0.580
2020/01/31 19:46:06.7	3.220	-0.200	-0.060	-0.550
2020/01/31 19:46:06.8	3.220	-0.210	0.010	-0.510
2020/01/31 19:46:06.9	3.210	-0.220	0.060	-0.470
2020/01/31 19:46:07.0	3.210	-0.230	0.120	-0.420
2020/01/31 19:46:07.1	3.210	-0.240	0.180	-0.380
2020/01/31 19:46:07.2	3.200	-0.250	0.240	-0.340
2020/01/31 19:46:07.3	3.200	-0.250	0.300	-0.290
2020/01/31 19:46:07.4	3.190	-0.260	0.350	-0.250
2020/01/31 19:46:07.5	3.180	-0.260	0.400	-0.210
2020/01/31 19:46:07.6	3.170	-0.270	0.450	-0.170
2020/01/31 19:46:07.7	3.160	-0.270	0.490	-0.130
2020/01/31 19:46:07.8	3.150	-0.280	0.530	-0.100
2020/01/31 19:46:07.9	3.150	-0.290	0.570	-0.070
2020/01/31 19:46:08.0	3.130	-0.290	0.600	-0.040
2020/01/31 19:46:08.1	3.130	-0.300	0.630	-0.010
2020/01/31 19:46:08.2	3.120	-0.300	0.650	0.010
2020/01/31 19:46:08.3	3.110	-0.310	0.660	0.030
2020/01/31 19:46:08.4	3.100	-0.320	0.670	0.050
2020/01/31 19:46:08.5	3.090	-0.330	0.670	0.060
2020/01/31 19:46:08.6	3.090	-0.330	0.670	0.070
2020/01/31 19:46:08.7	3.080	-0.340	0.660	0.080
2020/01/31 19:46:08.8	3.080	-0.350	0.650	0.090
2020/01/31 19:46:08.9	3.070	-0.350	0.620	0.090
2020/01/31 19:46:09.0	3.070	-0.360	0.600	0.090
2020/01/31 19:46:09.1	3.070	-0.370	0.570	0.080
2020/01/31 19:46:09.2	3.060	-0.370	0.530	0.080
2020/01/31 19:46:09.3	3.060	-0.380	0.490	0.070
2020/01/31 19:46:09.4	3.060	-0.390	0.450	0.060
2020/01/31 19:46:09.5	3.060	-0.390	0.400	0.050
2020/01/31 19:46:09.6	3.060	-0.390	0.360	0.040
2020/01/31 19:46:09.7	3.060	-0.400	0.310	0.020
2020/01/31 19:46:09.8	3.050	-0.400	0.250	0.010
2020/01/31 19:46:09.9	3.050	-0.400	0.200	-0.010
2020/01/31 19:46:10.0	3.050	-0.390	0.150	-0.030
2020/01/31 19:46:10.1	3.050	-0.390	0.090	-0.040
2020/01/31 19:46:10.2	3.050	-0.380	0.040	-0.060
2020/01/31 19:46:10.3	3.050	-0.370	-0.020	-0.080
2020/01/31 19:46:10.4	3.050	-0.360	-0.080	-0.100
2020/01/31 19:46:10.5	3.040	-0.350	-0.140	-0.110
2020/01/31 19:46:10.6	3.040	-0.330	-0.190	-0.130
2020/01/31 19:46:10.7	3.040	-0.310	-0.250	-0.150
2020/01/31 19:46:10.8	3.040	-0.290	-0.300	-0.160
2020/01/31 19:46:10.9	3.050	-0.260	-0.360	-0.180
2020/01/31 19:46:11.0	3.050	-0.240	-0.420	-0.190
2020/01/31 19:46:11.1	3.050	-0.210	-0.470	-0.200
2020/01/31 19:46:11.2	3.060	-0.170	-0.520	-0.210
2020/01/31 19:46:11.3	3.060	-0.130	-0.570	-0.220
2020/01/31 19:46:11.4	3.060	-0.100	-0.620	-0.230
2020/01/31 19:46:11.5	3.060	-0.050	-0.670	-0.230
2020/01/31 19:46:11.6	3.060	-0.010	-0.720	-0.230
2020/01/31 19:46:11.7	3.070	0.040	-0.770	-0.230
2020/01/31 19:46:11.8	3.070	0.090	-0.810	-0.230
2020/01/31 19:46:11.9	3.080	0.130	-0.850	-0.230
2020/01/31 19:46:12.0	3.080	0.190	-0.890	-0.230
2020/01/31 19:46:12.1	3.090	0.240	-0.930	-0.220
2020/01/31 19:46:12.2	3.090	0.290	-0.960	-0.210
2020/01/31 19:46:12.3	3.100	0.340	-0.990	-0.210
2020/01/31 19:46:12.4	3.100	0.390	-1.020	-0.200
2020/01/31 19:46:12.5	3.110	0.440	-1.050	-0.190
2020/01/31 19:46:12.6	3.120	0.490	-1.070	-0.180
2020/01/31 19:46:12.7	3.120	0.540	-1.100	-0.170
2020/01/31 19:46:12.8	3.130	0.590	-1.110	-0.160
2020/01/31 19:46:12.9	3.150	0.630	-1.130	-0.150
2020/01/31 19:46:13.0	3.160	0.670	-1.140	-0.140
2020/01/31 19:46:13.1	3.170	0.710	-1.150	-0.130
2020/01/31 19:46:13.2	3.180	0.740	-1.150	-0.120
2020/01/31 19:46:13.3	3.190	0.770	-1.150	-0.110
2020/01/31 19:46:13.4	3.200	0.790	-1.140	-0.110
2020/01/31 19:46:13.5	3.220	0.810	-1.130	-0.100
2020/01/31 19:46:13.6	3.230	0.830	-1.120	-0.100
2020/01/31 19:46:13.7	3.250	0.840	-1.100	-0.090
2020/01/31 19:46:13.8	3.260	0.850	-1.080	-0.090
2020/01/31 19:46:13.9	3.280	0.850	-1.050	-0.090
2020/01/31 19:46:14.0	3.300	0.840	-1.020	-0.090
2020/01/31 19:46:14.1	3.320	0.830	-0.990	-0.090
2020/01/31 19:46:14.2	3.340	0.810	-0.950	-0.100
2020/01/31 19:46:14.3	3.360	0.790	-0.910	-0.100
2020/01/31 19:46:14.4	3.380	0.760	-0.860	-0.110
2020/01/31 19:46:14.5	3.400	0.730	-0.810	-0.110
2020/01/31 19:46:14.6	3.430	0.690	-0.760	-0.120
2020/01/31 19:46:14.7	3.450	0.650	-0.710	-0.130
2020/01/31 19:46:14.8	3.470	0.610	-0.650	-0.140
2020/01/31 19:46:14.9	3.500	0.560	-0.590	-0.160
2020/01/31 19:46:15.0	3.530	0.500	-0.530	-0.170
2020/01/31 19:46:15.1	3.560	0.440	-0.460	-0.180
2020/01/31 19:46:15.2	3.580	0.380	-0.390	-0.200
2020/01/31 19:46:15.3	3.610	0.310	-0.330	-0.210
2020/01/31 19:46:15.4	3.640	0.250	-0.260	-0.230
2020/01/31 19:46:15.5	3.670	0.180	-0.190	-0.250
2020/01/31 19:46:15.6	3.690	0.100	-0.120	-0.260
2020/01/31 19:46:15.7	3.720	0.030	-0.050	-0.280
2020/01/31 19:46:15.8	3.750	-0.040	0.020	-0.300
2020/01/31 19:46:15.9	3.760	-0.120	0.100	-0.320
2020/01/31 19:46:16.0	3.790	-0.190	0.160	-0.340
2020/01/31 19:46:16.1	3.810	-0.270	0.230	-0.350
2020/01/31 19:46:16.2	3.830	-0.340	0.300	-0.370
2020/01/31 19:46:16.3	3.850	-0.410	0.360	-0.380
2020/01/31 19:46:16.4	3.860	-0.470	0.420	-0.390
2020/01/31 19:46:16.5	3.880	-0.540	0.470	-0.410
2020/01/31 19:46:16.6	3.890	-0.600	0.520	-0.420
2020/01/31 19:46:16.7	3.900	-0.660	0.570	-0.420
2020/01/31 19:46:16.8	3.910	-0.710	0.610	-0.430
2020/01/31 19:46:16.9	3.930	-0.760	0.650	-0.430
2020/01/31 19:46:17.0	3.930	-0.800	0.680	-0.430
2020/01/31 19:46:17.1	3.930	-0.840	0.710	-0.430
2020/01/31 19:46:17.2	3.930	-0.870	0.730	-0.430
2020/01/31 19:46:17.3	3.930	-0.900	0.740	-0.420
2020/01/31 19:46:17.4	3.930	-0.920	0.750	-0.410
2020/01/31 19:46:17.5	3.920	-0.930	0.750	-0.400
2020/01/31 19:46:17.6	3.910	-0.940	0.740	-0.390
2020/01/31 19:46:17.7	3.910	-0.940	0.730	-0.380
2020/01/31 19:46:17.8	3.900	-0.940	0.710	-0.360
2020/01/31 19:46:17.9	3.890	-0.920	0.680	-0.350
2020/01/31 19:46:18.0	3.880	-0.900	0.650	-0.330
2020/01/31 19:46:18.1	3.870	-0.880	0.610	-0.310
2020/01/31 19:46:18.2	3.860	-0.850	0.570	-0.290
2020/01/31 19:46:18.3	3.850	-0.810	0.520	-0.280
2020/01/31 19:46:18.4	3.830	-0.770	0.460	-0.260
2020/01/31 19:46:18.5	3.820	-0.730	0.410	-0.240
2020/01/31 19:46:18.6	3.810	-0.680	0.340	-0.230
2020/01/31 19:46:18.7	3.800	-0.620	0.280	-0.210
2020/01/31 19:46:18.8	3.790	-0.560	0.210	-0.200
2020/01/31 19:46:18.9	3.770	-0.500	0.140	-0.180
2020/01/31 19:46:19.0	3.760	-0.430	0.060	-0.170
2020/01/31 19:46:19.1	3.750	-0.370	-0.010	-0.160
2020/01/31 19:46:19.2	3.740	-0.300	-0.080	-0.150
2020/01/31 19:46:19.3	3.730	-0.230	-0.150	-0.140
2020/01/31 19:46:19.4	3.720	-0.160	-0.220	-0.130
2020/01/31 19:46:19.5	3.700	-0.080	-0.290	-0.120
2020/01/31 19:46:19.6	3.690	-0.010	-0.360	-0.110
2020/01/31 19:46:19.7	3.680	0.060	-0.420	-0.100
2020/01/31 19:46:19.8	3.670	0.130	-0.480	-0.090
2020/01/31 19:46:19.9	3.660	0.190	-0.540	-0.080
2020/01/31 19:46:20.0	3.650	0.260	-0.590	-0.070
2020/01/31 19:46:20.1	3.640	0.320	-0.640	-0.060
2020/01/31 19:46:20.2	3.630	0.380	-0.680	-0.050
2020/01/31 19:46:20.3	3.620	0.440	-0.710	-0.040
2020/01/31 19:46:20.4	3.600	0.490	-0.740	-0.020
2020/01/31 19:46:20.5	3.590	0.540	-0.770	-0.010
2020/01/31 19:46:20.6	3.580	0.580	-0.790	0.010
2020/01/31 19:46:20.7	3.570	0.620	-0.800	0.030
2020/01/31 19:46:20.8	3.560	0.660	-0.810	0.050
2020/01/31 19:46:20.9	3.550	0.690	-0.810	0.070
2020/01/31 19:46:21.0	3.540	0.720	-0.810	0.090
2020/01/31 19:46:21.1	3.530	0.740	-0.800	0.110
2020/01/31 19:46:21.2	3.530	0.760	-0.790	0.130
2020/01/31 19:46:21.3	3.520	0.770	-0.780	0.150
2020/01/31 19:46:21.4	3.520	0.780	-0.760	0.170
2020/01/31 19:46:21.5	3.510	0.780	-0.740	0.190
2020/01/31 19:46:21.6	3.510	0.780	-0.710	0.200
2020/01/31 19:46:21.7	3.510	0.770	-0.680	0.210
2020/01/31 19:46:21.8	3.510	0.760	-0.650	0.220
2020/01/31 19:46:21.9	3.510	0.750	-0.620	0.230
2020/01/31 19:46:22.0	3.510	0.730	-0.590	0.230
2020/01/31 19:46:22.1	3.520	0.700	-0.550	0.230
2020/01/31 19:46:22.2	3.530	0.670	-0.520	0.220
2020/01/31 19:46:22.3	3.540	0.640	-0.480	0.210
2020/01/31 19:46:22.4	3.550	0.600	-0.450	0.190
2020/01/31 19:46:22.5	3.560	0.560	-0.420	0.170
2020/01/31 19:46:22.6	3.570	0.520	-0.380	0.150
2020/01/31 19:46:22.7	3.590	0.470	-0.350	0.120
2020/01/31 19:46:22.8	3.600	0.430	-0.320	0.090
2020/01/31 19:46:22.9	3.620	0.380	-0.290	0.060
2020/01/31 19:46:23.0	3.640	0.320	-0.260	0.030
2020/01/31 19:46:23.1	3.650	0.270	-0.230	-0.010
2020/01/31 19:46:23.2	3.670	0.210	-0.200	-0.050
2020/01/31 19:46:23.3	3.680	0.160	-0.180	-0.080
2020/01/31 19:46:23.4	3.700	0.100	-0.150	-0.110
2020/01/31 19:46:23.5	3.710	0.040	-0.130	-0.150
2020/01/31 19:46:23.6	3.720	-0.010	-0.100	-0.180
2020/01/31 19:46:23.7	3.730	-0.070	-0.080	-0.210
2020/01/31 19:46:23.8	3.740	-0.120	-0.060	-0.240
2020/01/31 19:46:23.9	3.730	-0.170	-0.040	-0.280
2020/01/31 19:46:24.0	3.730	-0.230	-0.020	-0.300
2020/01/31 19:46:24.1	3.740	-0.270	-0.000	-0.330
2020/01/31 19:46:24.2	3.740	-0.320	0.010	-0.360
2020/01/31 19:46:24.3	3.740	-0.360	0.030	-0.380
2020/01/31 19:46:24.4	3.740	-0.400	0.040	-0.400
2020/01/31 19:46:24.5	3.740	-0.440	0.050	-0.420
2020/01/31 19:46:24.6	3.740	-0.470	0.060	-0.440
2020/01/31 19:46:24.7	3.740	-0.500	0.060	-0.460
2020/01/31 19:46:24.8	3.740	-0.520	0.070	-0.480
2020/01/31 19:46:24.9	3.720	-0.540	0.070	-0.500
2020/01/31 19:46:25.0	3.720	-0.550	0.060	-0.510
2020/01/31 19:46:25.1	3.720	-0.560	0.060	-0.520
2020/01/31 19:46:25.2	3.720	-0.560	0.050	-0.530
2020/01/31 19:46:25.3	3.720	-0.560	0.030	-0.540
2020/01/31 19:46:25.4	3.720	-0.550	0.010	-0.550
2020/01/31 19:46:25.5	3.730	-0.540	-0.010	-0.560
2020/01/31 19:46:25.6	3.730	-0.520	-0.030	-0.560
2020/01/31 19:46:25.7	3.740	-0.500	-0.060	-0.570
2020/01/31 19:46:25.8	3.740	-0.470	-0.090	-0.570
2020/01/31 19:46:25.9	3.750	-0.440	-0.130	-0.570
2020/01/31 19:46:26.0	3.760	-0.400	-0.160	-0.580
2020/01/31 19:46:26.1	3.770	-0.360	-0.200	-0.580
2020/01/31 19:46:26.2	3.790	-0.320	-0.250	-0.570
2020/01/31 19:46:26.3	3.800	-0.270	-0.290	-0.570
2020/01/31 19:46:26.4	3.820	-0.220	-0.340	-0.570
2020/01/31 19:46:26.5	3.840	-0.170	-0.390	-0.560
2020/01/31 19:46:26.6	3.860	-0.120	-0.440	-0.550
2020/01/31 19:46:26.7	3.880	-0.060	-0.490	-0.550
2020/01/31 19:46:26.8	3.900	-0.010	-0.530	-0.540
2020/01/31 19:46:26.9	3.940	0.050	-0.590	-0.520
2020/01/31 19:46:27.0	3.960	0.100	-0.630	-0.510
2020/01/31 19:46:27.1	3.990	0.160	-0.680	-0.500
2020/01/31 19:46:27.2	4.010	0.210	-0.720	-0.480
2020/01/31 19:46:27.3	4.040	0.260	-0.760	-0.460
2020/01/31 19:46:27.4	4.070	0.310	-0.800	-0.440
2020/01/31 19:46:27.5	4.090	0.360	-0.830	-0.410
2020/01/31 19:46:27.6	4.110	0.400	-0.850	-0.380
2020/01/31 19:46:27.7	4.130	0.430	-0.870	-0.350
2020/01/31 19:46:27.8	4.150	0.470	-0.890	-0.320
2020/01/31 19:46:27.9	4.160	0.500	-0.900	-0.280
2020/01/31 19:46:28.0	4.170	0.520	-0.900	-0.240
2020/01/31 19:46:28.1	4.180	0.540	-0.890	-0.200
2020/01/31 19:46:28.2	4.190	0.550	-0.880	-0.160
2020/01/31 19:46:28.3	4.190	0.550	-0.860	-0.120
2020/01/31 19:46:28.4	4.190	0.550	-0.840	-0.070
2020/01/31 19:46:28.5	4.190	0.550	-0.810	-0.030
2020/01/31 19:46:28.6	4.190	0.530	-0.770	0.010
2020/01/31 19:46:28.7	4.180	0.520	-0.730	0.050
2020/01/31 19:46:28.8	4.170	0.490	-0.680	0.090
2020/01/31 19:46:28.9	4.160	0.460	-0.630	0.130
2020/01/31 19:46:29.0	4.140	0.430	-0.570	0.160
2020/01/31 19:46:29.1	4.130	0.390	-0.510	0.190
2020/01/31 19:46:29.2	4.100	0.340	-0.450	0.220
2020/01/31 19:46:29.3	4.080	0.290	-0.380	0.240
2020/01/31 19:46:29.4	4.060	0.240	-0.310	0.260
2020/01/31 19:46:29.5	4.030	0.180	-0.240	0.280
2020/01/31 19:46:29.6	4.000	0.130	-0.170	0.290
2020/01/31 19:46:29.7	3.970	0.060	-0.100	0.310
2020/01/31 19:46:29.8	3.940	0.000	-0.030	0.310
2020/01/31 19:46:29.9	3.910	-0.060	0.040	0.310
2020/01/31 19:46:30.0	3.880	-0.130	0.110	0.310
2020/01/31 19:46:30.1	3.840	-0.190	0.180	0.300
2020/01/31 19:46:30.2	3.810	-0.250	0.240	0.300
2020/01/31 19:46:30.3	3.780	-0.320	0.300	0.280
2020/01/31 19:46:30.4	3.750	-0.380	0.350	0.260
2020/01/31 19:46:30.5	3.720	-0.430	0.400	0.240
2020/01/31 19:46:30.6	3.700	-0.490	0.450	0.210
2020/01/31 19:46:30.7	3.670	-0.540	0.490	0.180
2020/01/31 19:46:30.8	3.650	-0.590	0.530	0.140
2020/01/31 19:46:30.9	3.620	-0.640	0.550	0.100
2020/01/31 19:46:31.0	3.600	-0.680	0.580	0.060
2020/01/31 19:46:31.1	3.580	-0.720	0.600	0.020
2020/01/31 19:46:31.2	3.570	-0.750	0.610	-0.030
2020/01/31 19:46:31.3	3.560	-0.780	0.620	-0.070
2020/01/31 19:46:31.4	3.560	-0.800	0.620	-0.120
2020/01/31 19:46:31.5	3.550	-0.810	0.620	-0.170
2020/01/31 19:46:31.6	3.560	-0.820	0.610	-0.220
2020/01/31 19:46:31.7	3.560	-0.830	0.590	-0.270
2020/01/31 19:46:31.8	3.570	-0.820	0.570	-0.330
2020/01/31 19:46:31.9	3.570	-0.820	0.540	-0.380
2020/01/31 19:46:32.0	3.590	-0.800	0.510	-0.430
2020/01/31 19:46:32.1	3.610	-0.780	0.480	-0.480
2020/01/31 19:46:32.2	3.630	-0.750	0.430	-0.530
2020/01/31 19:46:32.3	3.660	-0.720	0.390	-0.570
2020/01/31 19:46:32.4	3.690	-0.690	0.340	-0.620
2020/01/31 19:46:32.5	3.720	-0.650	0.290	-0.660
2020/01/31 19:46:32.6	3.750	-0.600	0.240	-0.700
2020/01/31 19:46:32.7	3.780	-0.550	0.190	-0.730
2020/01/31 19:46:32.8	3.820	-0.500	0.130	-0.760
2020/01/31 19:46:32.9	3.860	-0.440	0.070	-0.780
2020/01/31 19:46:33.0	3.890	-0.380	0.020	-0.800
2020/01/31 19:46:33.1	3.920	-0.320	-0.030	-0.810
2020/01/31 19:46:33.2	3.940	-0.260	-0.080	-0.810
2020/01/31 19:46:33.3	3.970	-0.200	-0.130	-0.800
2020/01/31 19:46:33.4	3.980	-0.140	-0.170	-0.790
2020/01/31 19:46:33.5	4.000	-0.070	-0.210	-0.770
2020/01/31 19:46:33.6	4.010	-0.010	-0.250	-0.740
2020/01/31 19:46:33.7	4.010	0.050	-0.280	-0.710
2020/01/31 19:46:33.8	4.010	0.100	-0.310	-0.670
2020/01/31 19:46:33.9	4.000	0.160	-0.340	-0.620
2020/01/31 19:46:34.0	3.990	0.210	-0.360	-0.560
2020/01/31 19:46:34.1	3.970	0.260	-0.380	-0.510
2020/01/31 19:46:34.2	3.950	0.310	-0.390	-0.450
2020/01/31 19:46:34.3	3.930	0.350	-0.400	-0.390
2020/01/31 19:46:34.4	3.900	0.390	-0.410	-0.320
2020/01/31 19:46:34.5	3.860	0.430	-0.410	-0.260
2020/01/31 19:46:34.6	3.830	0.460	-0.420	-0.190
2020/01/31 19:46:34.7	3.790	0.490	-0.420	-0.120
2020/01/31 19:46:34.8	3.750	0.510	-0.430	-0.050
2020/01/31 19:46:34.9	3.720	0.530	-0.430	0.010
2020/01/31 19:46:35.0	3.670	0.550	-0.430	0.080
2020/01/31 19:46:35.1	3.630	0.560	-0.440	0.140
2020/01/31 19:46:35.2	3.590	0.570	-0.450	0.200
2020/01/31 19:46:35.3	3.550	0.580	-0.460	0.260
2020/01/31 19:46:35.4	3.510	0.580	-0.470	0.310
2020/01/31 19:46:35.5	3.470	0.590	-0.480	0.360
2020/01/31 19:46:35.6	3.440	0.590	-0.500	0.400
2020/01/31 19:46:35.7	3.410	0.590	-0.530	0.440
2020/01/31 19:46:35.8	3.380	0.580	-0.550	0.460
2020/01/31 19:46:35.9	3.360	0.580	-0.590	0.490
2020/01/31 19:46:36.0	3.340	0.580	-0.620	0.500
2020/01/31 19:46:36.1	3.330	0.570	-0.660	0.510
2020/01/31 19:46:36.2	3.320	0.570	-0.700	0.510
2020/01/31 19:46:36.3	3.310	0.560	-0.740	0.500
2020/01/31 19:46:36.4	3.310	0.560	-0.790	0.490
2020/01/31 19:46:36.5	3.310	0.560	-0.840	0.470
2020/01/31 19:46:36.6	3.310	0.550	-0.880	0.450
2020/01/31 19:46:36.7	3.320	0.550	-0.930	0.420
2020/01/31 19:46:36.8	3.330	0.540	-0.980	0.390
2020/01/31 19:46:36.9	3.360	0.540	-1.020	0.350
2020/01/31 19:46:37.0	3.370	0.530	-1.060	0.310
2020/01/31 19:46:37.1	3.390	0.530	-1.100	0.270
2020/01/31 19:46:37.2	3.420	0.530	-1.130	0.220
2020/01/31 19:46:37.3	3.440	0.520	-1.160	0.170
2020/01/31 19:46:37.4	3.470	0.520	-1.190	0.110
2020/01/31 19:46:37.5	3.500	0.510	-1.210	0.060
2020/01/31 19:46:37.6	3.530	0.500	-1.220	-0.000
2020/01/31 19:46:37.7	3.570	0.500	-1.230	-0.060
2020/01/31 19:46:37.8	3.610	0.490	-1.230	-0.130
2020/01/31 19:46:37.9	3.640	0.480	-1.230	-0.190
2020/01/31 19:46:38.0	3.690	0.470	-1.220	-0.260
2020/01/31 19:46:38.1	3.730	0.460	-1.200	-0.320
2020/01/31 19:46:38.2	3.780	0.450	-1.180	-0.390
2020/01/31 19:46:38.3	3.830	0.430	-1.150	-0.450
2020/01/31 19:46:38.4	3.880	0.420	-1.110	-0.510
2020/01/31 19:46:38.5	3.930	0.400	-1.070	-0.570
2020/01/31 19:46:38.6	3.980	0.380	-1.020	-0.620
2020/01/31 19:46:38.7	4.040	0.360	-0.960	-0.670
2020/01/31 19:46:38.8	4.100	0.330	-0.910	-0.720
2020/01/31 19:46:38.9	4.150	0.310	-0.840	-0.770
2020/01/31 19:46:39.0	4.210	0.280	-0.770	-0.810
2020/01/31 19:46:39.1	4.260	0.250	-0.700	-0.850
2020/01/31 19:46:39.2	4.310	0.220	-0.620	-0.880
2020/01/31 19:46:39.3	4.360	0.180	-0.540	-0.900
2020/01/31 19:46:39.4	4.410	0.150	-0.460	-0.920
2020/01/31 19:46:39.5	4.450	0.110	-0.370	-0.940
2020/01/31 19:46:39.6	4.490	0.060	-0.280	-0.940
2020/01/31 19:46:39.7	4.530	0.020	-0.190	-0.940
2020/01/31 19:46:39.8	4.560	-0.030	-0.100	-0.940
2020/01/31 19:46:39.9	4.590	-0.070	-0.010	-0.920
2020/01/31 19:46:40.0	4.610	-0.120	0.090	-0.900
2020/01/31 19:46:40.1	4.630	-0.180	0.180	-0.880
2020/01/31 19:46:40.2	4.640	-0.230	0.270	-0.850
2020/01/31 19:46:40.3	4.650	-0.280	0.360	-0.820
2020/01/31 19:46:40.4	4.640	-0.330	0.450	-0.780
2020/01/31 19:46:40.5	4.640	-0.390	0.540	-0.750
2020/01/31 19:46:40.6	4.630	-0.440	0.620	-0.700
2020/01/31 19:46:40.7	4.610	-0.500	0.700	-0.660
2020/01/31 19:46:40.8	4.590	-0.550	0.770	-0.610
2020/01/31 19:46:40.9	4.570	-0.600	0.840	-0.560
2020/01/31 19:46:41.0	4.540	-0.650	0.900	-0.510
2020/01/31 19:46:41.1	4.500	-0.700	0.950	-0.460
2020/01/31 19:46:41.2	4.450	-0.750	1.000	-0.400
2020/01/31 19:46:41.3	4.410	-0.790	1.040	-0.350
2020/01/31 19:46:41.4	4.360	-0.830	1.070	-0.290
2020/01/31 19:46:41.5	4.300	-0.870	1.100	-0.240
2020/01/31 19:46:41.6	4.250	-0.910	1.110	-0.190
2020/01/31 19:46:41.7	4.190	-0.940	1.120	-0.140
2020/01/31 19:46:41.8	4.130	-0.960	1.120	-0.090
2020/01/31 19:46:41.9	4.070	-0.980	1.110	-0.050
2020/01/31 19:46:42.0	4.010	-1.000	1.090	-0.010
2020/01/31 19:46:42.1	3.950	-1.010	1.060	0.030
2020/01/31 19:46:42.2	3.900	-1.020	1.030	0.070
2020/01/31 19:46:42.3	3.840	-1.020	0.980	0.100
2020/01/31 19:46:42.4	3.790	-1.010	0.930	0.120
2020/01/31 19:46:42.5	3.740	-1.000	0.870	0.140
2020/01/31 19:46:42.6	3.690	-0.980	0.800	0.160
2020/01/31 19:46:42.7	3.650	-0.960	0.720	0.180
2020/01/31 19:46:42.8	3.610	-0.930	0.640	0.180
2020/01/31 19:46:42.9	3.570	-0.900	0.560	0.180
2020/01/31 19:46:43.0	3.540	-0.860	0.460	0.180
2020/01/31 19:46:43.1	3.510	-0.810	0.360	0.180
2020/01/31 19:46:43.2	3.490	-0.760	0.260	0.170
2020/01/31 19:46:43.3	3.470	-0.700	0.160	0.150
2020/01/31 19:46:43.4	3.450	-0.640	0.050	0.140
2020/01/31 19:46:43.5	3.440	-0.580	-0.060	0.120
2020/01/31 19:46:43.6	3.430	-0.510	-0.160	0.100
2020/01/31 19:46:43.7	3.420	-0.440	-0.270	0.080
2020/01/31 19:46:43.8	3.420	-0.360	-0.370	0.060
2020/01/31 19:46:43.9	3.420	-0.290	-0.480	0.030
2020/01/31 19:46:44.0	3.420	-0.210	-0.580	0.010
2020/01/31 19:46:44.1	3.410	-0.130	-0.670	-0.010
2020/01/31 19:46:44.2	3.410	-0.050	-0.750	-0.030
2020/01/31 19:46:44.3	3.410	0.030	-0.830	-0.050
2020/01/31 19:46:44.4	3.410	0.110	-0.910	-0.060
2020/01/31 19:46:44.5	3.420	0.190	-0.970	-0.080
2020/01/31 19:46:44.6	3.420	0.260	-1.030	-0.090
2020/01/31 19:46:44.7	3.420	0.340	-1.080	-0.100
2020/01/31 19:46:44.8	3.420	0.410	-1.120	-0.100
2020/01/31 19:46:44.9	3.420	0.480	-1.160	-0.100
2020/01/31 19:46:45.0	3.410	0.550	-1.180	-0.100
2020/01/31 19:46:45.1	3.410	0.610	-1.200	-0.090
2020/01/31 19:46:45.2	3.410	0.670	-1.200	-0.080
2020/01/31 19:46:45.3	3.410	0.730	-1.200	-0.060
2020/01/31 19:46:45.4	3.410	0.780	-1.190	-0.040
2020/01/31 19:46:45.5	3.410	0.830	-1.170	-0.010
2020/01/31 19:46:45.6	3.400	0.870	-1.150	0.020
2020/01/31 19:46:45.7	3.400	0.910	-1.120	0.050
2020/01/31 19:46:45.8	3.400	0.940	-1.080	0.090
2020/01/31 19:46:45.9	3.390	0.970	-1.030	0.130
2020/01/31 19:46:46.0	3.390	0.990	-0.990	0.170
2020/01/31 19:46:46.1	3.380	1.010	-0.930	0.210
2020/01/31 19:46:46.2	3.380	1.020	-0.880	0.250
2020/01/31 19:46:46.3	3.380	1.030	-0.820	0.290
2020/01/31 19:46:46.4	3.370	1.030	-0.760	0.330
2020/01/31 19:46:46.5	3.370	1.030	-0.700	0.380
2020/01/31 19:46:46.6	3.360	1.030	-0.630	0.420
2020/01/31 19:46:46.7	3.360	1.020	-0.570	0.460
2020/01/31 19:46:46.8	3.350	1.000	-0.500	0.490
2020/01/31 19:46:46.9	3.370	0.980	-0.450	0.520
2020/01/31 19:46:47.0	3.370	0.960	-0.380	0.560
2020/01/31 19:46:47.1	3.370	0.930	-0.320	0.580
2020/01/31 19:46:47.2	3.370	0.900	-0.260	0.610
2020/01/31 19:46:47.3	3.360	0.860	-0.210	0.630
2020/01/31 19:46:47.4	3.360	0.830	-0.150	0.650
2020/01/31 19:46:47.5	3.360	0.790	-0.100	0.660
2020/01/31 19:46:47.6	3.370	0.740	-0.050	0.670
2020/01/31 19:46:47.7	3.370	0.700	-0.010	0.670
2020/01/31 19:46:47.8	3.370	0.650	0.030	0.670
2020/01/31 19:46:47.9	3.370	0.600	0.070	0.670
2020/01/31 19:46:48.0	3.380	0.540	0.110	0.660
2020/01/31 19:46:48.1	3.390	0.490	0.140	0.640
2020/01/31 19:46:48.2	3.400	0.430	0.170	0.620
2020/01/31 19:46:48.3	3.420	0.370	0.190	0.590
2020/01/31 19:46:48.4	3.430	0.320	0.200	0.560
2020/01/31 19:46:48.5	3.450	0.260	0.220	0.520
2020/01/31 19:46:48.6	3.470	0.200	0.220	0.480
2020/01/31 19:46:48.7	3.490	0.140	0.230	0.430
2020/01/31 19:46:48.8	3.520	0.070	0.230	0.380
2020/01/31 19:46:48.9	3.550	0.010	0.220	0.320
2020/01/31 19:46:49.0	3.580	-0.050	0.210	0.270
2020/01/31 19:46:49.1	3.610	-0.100	0.200	0.200
2020/01/31 19:46:49.2	3.650	-0.160	0.180	0.140
2020/01/31 19:46:49.3	3.680	-0.220	0.160	0.080
2020/01/31 19:46:49.4	3.720	-0.280	0.130	0.010
2020/01/31 19:46:49.5	3.750	-0.330	0.100	-0.060
2020/01/31 19:46:49.6	3.790	-0.380	0.070	-0.120
2020/01/31 19:46:49.7	3.830	-0.430	0.040	-0.190
2020/01/31 19:46:49.8	3.860	-0.480	0.000	-0.250
2020/01/31 19:46:49.9	3.900	-0.530	-0.040	-0.320
2020/01/31 19:46:50.0	3.930	-0.580	-0.080	-0.380
2020/01/31 19:46:50.1	3.970	-0.620	-0.110	-0.450
2020/01/31 19:46:50.2	4.000	-0.660	-0.150	-0.510
2020/01/31 19:46:50.3	4.040	-0.700	-0.190	-0.570
2020/01/31 19:46:50.4	4.080	-0.730	-0.230	-0.640
2020/01/31 19:46:50.5	4.110	-0.760	-0.280	-0.700
2020/01/31 19:46:50.6	4.140	-0.790	-0.320	-0.760
2020/01/31 19:46:50.7	4.180	-0.820	-0.360	-0.820
2020/01/31 19:46:50.8	4.210	-0.840	-0.390	-0.880
2020/01/31 19:46:50.9	4.230	-0.860	-0.430	-0.940
2020/01/31 19:46:51.0	4.270	-0.870	-0.470	-1.000
2020/01/31 19:46:51.1	4.300	-0.890	-0.510	-1.050
2020/01/31 19:46:51.2	4.330	-0.900	-0.540	-1.110
2020/01/31 19:46:51.3	4.360	-0.900	-0.580	-1.160
2020/01/31 19:46:51.4	4.380	-0.900	-0.610	-1.200
2020/01/31 19:46:51.5	4.410	-0.900	-0.640	-1.240
2020/01/31 19:46:51.6	4.430	-0.900	-0.660	-1.280
2020/01/31 19:46:51.7	4.460	-0.890	-0.690	-1.310
2020/01/31 19:46:51.8	4.470	-0.880	-0.710	-1.340
2020/01/31 19:46:51.9	4.480	-0.860	-0.730	-1.360
2020/01/31 19:46:52.0	4.490	-0.850	-0.740	-1.380
2020/01/31 19:46:52.1	4.500	-0.830	-0.750	-1.380
2020/01/31 19:46:52.2	4.500	-0.800	-0.750	-1.380
2020/01/31 19:46:52.3	4.500	-0.780	-0.750	-1.370
2020/01/31 19:46:52.4	4.500	-0.750	-0.750	-1.350
2020/01/31 19:46:52.5	4.490	-0.720	-0.740	-1.330
2020/01/31 19:46:52.6	4.480	-0.680	-0.730	-1.290
2020/01/31 19:46:52.7	4.460	-0.650	-0.710	-1.260
2020/01/31 19:46:52.8	4.440	-0.610	-0.690	-1.210
2020/01/31 19:46:52.9	4.420	-0.570	-0.670	-1.160
2020/01/31 19:46:53.0	4.400	-0.530	-0.640	-1.110
2020/01/31 19:46:53.1	4.370	-0.490	-0.600	-1.050
2020/01/31 19:46:53.2	4.340	-0.450	-0.560	-0.980
2020/01/31 19:46:53.3	4.310	-0.410	-0.520	-0.910
2020/01/31 19:46:53.4	4.280	-0.370	-0.480	-0.840
2020/01/31 19:46:53.5	4.240	-0.330	-0.430	-0.770
2020/01/31 19:46:53.6	4.210	-0.280	-0.390	-0.690
2020/01/31 19:46:53.7	4.180	-0.240	-0.340	-0.610
2020/01/31 19:46:53.8	4.140	-0.200	-0.290	-0.540
2020/01/31 19:46:53.9	4.120	-0.150	-0.250	-0.460
2020/01/31 19:46:54.0	4.080	-0.110	-0.200	-0.380
2020/01/31 19:46:54.1	4.050	-0.070	-0.160	-0.300
2020/01/31 19:46:54.2	4.020	-0.020	-0.120	-0.220
2020/01/31 19:46:54.3	3.990	0.020	-0.080	-0.140
2020/01/31 19:46:54.4	3.960	0.060	-0.050	-0.070
2020/01/31 19:46:54.5	3.930	0.100	-0.020	0.000
2020/01/31 19:46:54.6	3.900	0.140	0.010	0.070
2020/01/31 19:46:54.7	3.870	0.180	0.040	0.140
2020/01/31 19:46:54.8	3.840	0.220	0.060	0.200
2020/01/31 19:46:54.9	3.810	0.260	0.070	0.260
2020/01/31 19:46:55.0	3.790	0.300	0.080	0.310
2020/01/31 19:46:55.1	3.760	0.340	0.090	0.370
2020/01/31 19:46:55.2	3.740	0.380	0.090	0.410
2020/01/31 19:46:55.3	3.730	0.410	0.090	0.450
2020/01/31 19:46:55.4	3.710	0.450	0.090	0.490
2020/01/31 19:46:55.5	3.700	0.490	0.080	0.520
2020/01/31 19:46:55.6	3.690	0.520	0.070	0.550
2020/01/31 19:46:55.7	3.680	0.550	0.060	0.570
2020/01/31 19:46:55.8	3.670	0.590	0.050	0.590
2020/01/31 19:46:55.9	3.670	0.620	0.040	0.600
2020/01/31 19:46:56.0	3.670	0.650	0.020	0.610
2020/01/31 19:46:56.1	3.670	0.680	-0.010	0.620
2020/01/31 19:46:56.2	3.670	0.710	-0.030	0.620
2020/01/31 19:46:56.3	3.670	0.730	-0.050	0.630
2020/01/31 19:46:56.4	3.670	0.760	-0.080	0.630
2020/01/31 19:46:56.5	3.680	0.780	-0.100	0.620
2020/01/31 19:46:56.6	3.690	0.800	-0.130	0.620
2020/01/31 19:46:56.7	3.690	0.820	-0.150	0.610
2020/01/31 19:46:56.8	3.700	0.840	-0.170	0.600
2020/01/31 19:46:56.9	3.710	0.850	-0.200	0.590
2020/01/31 19:46:57.0	3.720	0.860	-0.220	0.580
2020/01/31 19:46:57.1	3.730	0.870	-0.240	0.570
2020/01/31 19:46:57.2	3.740	0.880	-0.260	0.550
2020/01/31 19:46:57.3	3.740	0.880	-0.270	0.540
2020/01/31 19:46:57.4	3.750	0.880	-0.290	0.520
2020/01/31 19:46:57.5	3.760	0.870	-0.300	0.500
2020/01/31 19:46:57.6	3.770	0.860	-0.310	0.480
2020/01/31 19:46:57.7	3.770	0.850	-0.310	0.460
2020/01/31 19:46:57.8	3.780	0.830	-0.310	0.440
2020/01/31 19:46:57.9	3.780	0.810	-0.310	0.410
2020/01/31 19:46:58.0	3.780	0.790	-0.310	0.390
2020/01/31 19:46:58.1	3.780	0.760	-0.300	0.360
2020/01/31 19:46:58.2	3.780	0.730	-0.290	0.330
2020/01/31 19:46:58.3	3.770	0.700	-0.280	0.310
2020/01/31 19:46:58.4	3.760	0.660	-0.260	0.280
2020/01/31 19:46:58.5	3.750	0.620	-0.250	0.250
2020/01/31 19:46:58.6	3.740	0.580	-0.230	0.210
2020/01/31 19:46:58.7	3.730	0.530	-0.200	0.180
2020/01/31 19:46:58.8	3.710	0.490	-0.180	0.150
2020/01/31 19:46:58.9	3.690	0.440	-0.160	0.100
2020/01/31 19:46:59.0	3.670	0.380	-0.130	0.070
2020/01/31 19:46:59.1	3.650	0.330	-0.100	0.040
2020/01/31 19:46:59.2	3.630	0.280	-0.070	-0.000
2020/01/31 19:46:59.3	3.610	0.220	-0.050	-0.030
2020/01/31 19:46:59.4	3.590	0.170	-0.020	-0.070
2020/01/31 19:46:59.5	3.560	0.110	0.010	-0.100
2020/01/31 19:46:59.6	3.540	0.060	0.040	-0.140
2020/01/31 19:46:59.7	3.520	0.000	0.060	-0.170
2020/01/31 19:46:59.8	3.510	-0.050	0.080	-0.200
2020/01/31 19:46:59.9	3.490	-0.100	0.100	-0.240
2020/01/31 19:47:00.0	3.470	-0.150	0.120	-0.270
2020/01/31 19:47:00.1	3.460	-0.200	0.130	-0.300
2020/01/31 19:47:00.2	3.450	-0.240	0.140	-0.330
2020/01/31 19:47:00.3	3.450	-0.290	0.140	-0.360
2020/01/31 19:47:00.4	3.440	-0.320	0.140	-0.400
2020/01/31 19:47:00.5	3.440	-0.360	0.130	-0.430
2020/01/31 19:47:00.6	3.450	-0.390	0.120	-0.470
2020/01/31 19:47:00.7	3.460	-0.420	0.100	-0.500
2020/01/31 19:47:00.8	3.470	-0.450	0.080	-0.540
2020/01/31 19:47:00.9	3.490	-0.470	0.050	-0.580
2020/01/31 19:47:01.0	3.510	-0.490	0.020	-0.620
2020/01/31 19:47:01.1	3.540	-0.500	-0.020	-0.660
2020/01/31 19:47:01.2	3.560	-0.510	-0.060	-0.700
2020/01/31 19:47:01.3	3.590	-0.520	-0.100	-0.750
2020/01/31 19:47:01.4	3.630	-0.530	-0.140	-0.790
2020/01/31 19:47:01.5	3.660	-0.530	-0.190	-0.830
2020/01/31 19:47:01.6	3.700	-0.530	-0.240	-0.880
2020/01/31 19:47:01.7	3.740	-0.530	-0.290	-0.920
2020/01/31 19:47:01.8	3.770	-0.530	-0.340	-0.960
2020/01/31 19:47:01.9	3.830	-0.520	-0.400	-1.000
2020/01/31 19:47:02.0	3.870	-0.510	-0.450	-1.040
2020/01/31 19:47:02.1	3.910	-0.500	-0.490	-1.080
2020/01/31 19:47:02.2	3.950	-0.500	-0.540	-1.110
2020/01/31 19:47:02.3	3.980	-0.490	-0.580	-1.130
2020/01/31 19:47:02.4	4.010	-0.480	-0.620	-1.160
2020/01/31 19:47:02.5	4.050	-0.470	-0.650	-1.180
2020/01/31 19:47:02.6	4.070	-0.460	-0.680	-1.190
2020/01/31 19:47:02.7	4.100	-0.450	-0.700	-1.200
2020/01/31 19:47:02.8	4.120	-0.440	-0.710	-1.200
2020/01/31 19:47:02.9	4.120	-0.430	-0.720	-1.200
2020/01/31 19:47:03.0	4.140	-0.420	-0.730	-1.190
2020/01/31 19:47:03.1	4.140	-0.420	-0.730	-1.170
2020/01/31 19:47:03.2	4.150	-0.410	-0.720	-1.150
2020/01/31 19:47:03.3	4.150	-0.410	-0.710	-1.120
2020/01/31 19:47:03.4	4.150	-0.400	-0.690	-1.080
2020/01/31 19:47:03.5	4.140	-0.400	-0.670	-1.040
2020/01/31 19:47:03.6	4.130	-0.400	-0.650	-1.000
2020/01/31 19:47:03.7	4.110	-0.400	-0.620	-0.950
2020/01/31 19:47:03.8	4.090	-0.400	-0.580	-0.890
2020/01/31 19:47:03.9	4.070	-0.400	-0.550	-0.830
2020/01/31 19:47:04.0	4.040	-0.400	-0.510	-0.770
2020/01/31 19:47:04.1	4.010	-0.400	-0.470	-0.710
2020/01/31 19:47:04.2	3.980	-0.400	-0.430	-0.640
2020/01/31 19:47:04.3	3.950	-0.400	-0.390	-0.570
2020/01/31 19:47:04.4	3.910	-0.400	-0.350	-0.500
2020/01/31 19:47:04.5	3.880	-0.390	-0.320	-0.430
2020/01/31 19:47:04.6	3.840	-0.390	-0.280	-0.350
2020/01/31 19:47:04.7	3.810	-0.380	-0.250	-0.280
2020/01/31 19:47:04.8	3.770	-0.380	-0.210	-0.210
2020/01/31 19:47:04.9	3.740	-0.370	-0.190	-0.150
2020/01/31 19:47:05.0	3.710	-0.350	-0.170	-0.080
2020/01/31 19:47:05.1	3.680	-0.340	-0.150	-0.020
2020/01/31 19:47:05.2	3.640	-0.320	-0.130	0.040
2020/01/31 19:47:05.3	3.610	-0.300	-0.120	0.100
2020/01/31 19:47:05.4	3.590	-0.270	-0.120	0.160
2020/01/31 19:47:05.5	3.560	-0.250	-0.120	0.210
2020/01/31 19:47:05.6	3.540	-0.220	-0.120	0.250
2020/01/31 19:47:05.7	3.520	-0.180	-0.130	0.290
2020/01/31 19:47:05.8	3.500	-0.150	-0.150	0.330
2020/01/31 19:47:05.9	3.490	-0.110	-0.170	0.360
2020/01/31 19:47:06.0	3.480	-0.070	-0.190	0.390
2020/01/31 19:47:06.1	3.470	-0.020	-0.220	0.420
2020/01/31 19:47:06.2	3.460	0.020	-0.250	0.440
2020/01/31 19:47:06.3	3.460	0.070	-0.280	0.450
2020/01/31 19:47:06.4	3.460	0.120	-0.320	0.460
2020/01/31 19:47:06.5	3.470	0.160	-0.350	0.460
2020/01/31 19:47:06.6	3.470	0.210	-0.390	0.460
2020/01/31 19:47:06.7	3.480	0.250	-0.420	0.460
2020/01/31 19:47:06.8	3.490	0.300	-0.460	0.450
2020/01/31 19:47:06.9	3.500	0.340	-0.490	0.440
2020/01/31 19:47:07.0	3.510	0.380	-0.520	0.430
2020/01/31 19:47:07.1	3.520	0.410	-0.540	0.420
2020/01/31 19:47:07.2	3.540	0.440	-0.570	0.400
2020/01/31 19:47:07.3	3.550	0.470	-0.590	0.380
2020/01/31 19:47:07.4	3.560	0.490	-0.600	0.360
2020/01/31 19:47:07.5	3.560	0.510	-0.610	0.340
2020/01/31 19:47:07.6	3.570	0.520	-0.610	0.320
2020/01/31 19:47:07.7	3.570	0.530	-0.610	0.290
2020/01/31 19:47:07.8	3.580	0.530	-0.600	0.270
2020/01/31 19:47:07.9	3.580	0.530	-0.590	0.240
2020/01/31 19:47:08.0	3.580	0.520	-0.570	0.210
2020/01/31 19:47:08.1	3.580	0.500	-0.550	0.190
2020/01/31 19:47:08.2	3.570	0.480	-0.520	0.160
2020/01/31 19:47:08.3	3.570	0.450	-0.480	0.130
2020/01/31 19:47:08.4	3.560	0.420	-0.430	0.090
2020/01/31 19:47:08.5	3.550	0.390	-0.390	0.060
2020/01/31 19:47:08.6	3.540	0.350	-0.340	0.030
2020/01/31 19:47:08.7	3.530	0.300	-0.280	0.000
2020/01/31 19:47:08.8	3.520	0.250	-0.220	-0.030
2020/01/31 19:47:08.9	3.510	0.200	-0.160	-0.060
2020/01/31 19:47:09.0	3.490	0.150	-0.100	-0.090
2020/01/31 19:47:09.1	3.480	0.100	-0.040	-0.120
2020/01/31 19:47:09.2	3.470	0.040	0.020	-0.150
2020/01/31 19:47:09.3	3.460	-0.010	0.080	-0.180
2020/01/31 19:47:09.4	3.450	-0.070	0.140	-0.200
2020/01/31 19:47:09.5	3.440	-0.120	0.200	-0.230
2020/01/31 19:47:09.6	3.430	-0.170	0.250	-0.260
2020/01/31 19:47:09.7	3.420	-0.220	0.300	-0.280
2020/01/31 19:47:09.8	3.420	-0.270	0.350	-0.310
2020/01/31 19:47:09.9	3.410	-0.310	0.380	-0.340
2020/01/31 19:47:10.0	3.410	-0.340	0.420	-0.360
2020/01/31 19:47:10.1	3.400	-0.380	0.450	-0.380
2020/01/31 19:47:10.2	3.400	-0.400	0.470	-0.390
2020/01/31 19:47:10.3	3.400	-0.420	0.480	-0.410
2020/01/31 19:47:10.4	3.390	-0.440	0.490	-0.420
2020/01/31 19:47:10.5	3.390	-0.450	0.490	-0.430
2020/01/31 19:47:10.6	3.380	-0.450	0.490	-0.430
2020/01/31 19:47:10.7	3.380	-0.450	0.480	-0.430
2020/01/31 19:47:10.8	3.370	-0.440	0.460	-0.430
2020/01/31 19:47:10.9	3.350	-0.420	0.440	-0.430
2020/01/31 19:47:11.0	3.340	-0.400	0.420	-0.410
2020/01/31 19:47:11.1	3.330	-0.370	0.380	-0.400
2020/01/31 19:47:11.2	3.320	-0.330	0.350	-0.380
2020/01/31 19:47:11.3	3.300	-0.290	0.310	-0.360
2020/01/31 19:47:11.4	3.290	-0.250	0.260	-0.340
2020/01/31 19:47:11.5	3.270	-0.200	0.220	-0.310
2020/01/31 19:47:11.6	3.250	-0.150	0.160	-0.290
2020/01/31 19:47:11.7	3.240	-0.100	0.110	-0.260
2020/01/31 19:47:11.8	3.220	-0.040	0.050	-0.230
2020/01/31 19:47:11.9	3.200	0.020	-0.010	-0.210
2020/01/31 19:47:12.0	3.180	0.080	-0.070	-0.180
2020/01/31 19:47:12.1	3.170	0.140	-0.130	-0.160
2020/01/31 19:47:12.2	3.150	0.200	-0.190	-0.130
2020/01/31 19:47:12.3	3.140	0.260	-0.260	-0.110
2020/01/31 19:47:12.4	3.130	0.320	-0.320	-0.090
2020/01/31 19:47:12.5	3.120	0.380	-0.380	-0.070
2020/01/31 19:47:12.6	3.110	0.430	-0.450	-0.050
2020/01/31 19:47:12.7	3.110	0.490	-0.510	-0.040
2020/01/31 19:47:12.8	3.110	0.540	-0.570	-0.020
2020/01/31 19:47:12.9	3.110	0.580	-0.630	-0.010
2020/01/31 19:47:13.0	3.110	0.620	-0.680	-0.000
2020/01/31 19:47:13.1	3.120	0.660	-0.730	0.010
2020/01/31 19:47:13.2	3.130	0.700	-0.780	0.020
2020/01/31 19:47:13.3	3.140	0.720	-0.820	0.020
2020/01/31 19:47:13.4	3.150	0.750	-0.860	0.030
2020/01/31 19:47:13.5	3.170	0.770	-0.890	0.030
2020/01/31 19:47:13.6	3.180	0.780	-0.920	0.040
2020/01/31 19:47:13.7	3.200	0.780	-0.940	0.040
2020/01/31 19:47:13.8	3.220	0.780	-0.950	0.040
2020/01/31 19:47:13.9	3.220	0.780	-0.960	0.040
2020/01/31 19:47:14.0	3.230	0.770	-0.960	0.040
2020/01/31 19:47:14.1	3.250	0.750	-0.950	0.040
2020/01/31 19:47:14.2	3.260	0.730	-0.930	0.040
2020/01/31 19:47:14.3	3.280	0.700	-0.910	0.040
2020/01/31 19:47:14.4	3.290	0.660	-0.880	0.040
2020/01/31 19:47:14.5	3.290	0.620	-0.850	0.040
2020/01/31 19:47:14.6	3.300	0.580	-0.810	0.040
2020/01/31 19:47:14.7	3.310	0.540	-0.760	0.040
2020/01/31 19:47:14.8	3.310	0.490	-0.710	0.030
2020/01/31 19:47:14.9	3.320	0.430	-0.660	0.030
2020/01/31 19:47:15.0	3.320	0.380	-0.600	0.020
2020/01/31 19:47:15.1	3.320	0.320	-0.540	0.020
2020/01/31 19:47:15.2	3.310	0.260	-0.480	0.010
2020/01/31 19:47:15.3	3.310	0.200	-0.410	0.010
2020/01/31 19:47:15.4	3.310	0.140	-0.350	-0.000
2020/01/31 19:47:15.5	3.300	0.080	-0.290	-0.010
2020/01/31 19:47:15.6	3.290	0.020	-0.220	-0.020
2020/01/31 19:47:15.7	3.290	-0.040	-0.160	-0.030
2020/01/31 19:47:15.8	3.290	-0.090	-0.110	-0.040
2020/01/31 19:47:15.9	3.290	-0.150	-0.060	-0.060
2020/01/31 19:47:16.0	3.290	-0.200	-0.010	-0.070
2020/01/31 19:47:16.1	3.290	-0.240	0.040	-0.090
2020/01/31 19:47:16.2	3.290	-0.280	0.070	-0.110
2020/01/31 19:47:16.3	3.290	-0.320	0.110	-0.120
2020/01/31 19:47:16.4	3.300	-0.350	0.130	-0.140
2020/01/31 19:47:16.5	3.300	-0.380	0.150	-0.160
2020/01/31 19:47:16.6	3.310	-0.410	0.170	-0.180
2020/01/31 19:47:16.7	3.320	-0.430	0.180	-0.200
2020/01/31 19:47:16.8	3.340	-0.440	0.180	-0.220
2020/01/31 19:47:16.9	3.330	-0.450	0.170	-0.240
2020/01/31 19:47:17.0	3.350	-0.460	0.160	-0.260
2020/01/31 19:47:17.1	3.360	-0.460	0.150	-0.280
2020/01/31 19:47:17.2	3.370	-0.450	0.130	-0.290
2020/01/31 19:47:17.3	3.390	-0.450	0.100	-0.310
2020/01/31 19:47:17.4	3.400	-0.440	0.080	-0.320
2020/01/31 19:47:17.5	3.410	-0.420	0.050	-0.330
2020/01/31 19:47:17.6	3.420	-0.410	0.010	-0.340
2020/01/31 19:47:17.7	3.430	-0.390	-0.020	-0.340
2020/01/31 19:47:17.8	3.430	-0.370	-0.050	-0.350
2020/01/31 19:47:17.9	3.430	-0.350	-0.080	-0.350
2020/01/31 19:47:18.0	3.430	-0.340	-0.110	-0.350
2020/01/31 19:47:18.1	3.430	-0.310	-0.140	-0.350
2020/01/31 19:47:18.2	3.430	-0.300	-0.170	-0.350
2020/01/31 19:47:18.3	3.430	-0.280	-0.200	-0.350
2020/01/31 19:47:18.4	3.420	-0.260	-0.220	-0.340
2020/01/31 19:47:18.5	3.420	-0.240	-0.240	-0.340
2020/01/31 19:47:18.6	3.410	-0.230	-0.260	-0.340
2020/01/31 19:47:18.7	3.410	-0.210	-0.280	-0.330
2020/01/31 19:47:18.8	3.400	-0.200	-0.290	-0.330
2020/01/31 19:47:18.9	3.390	-0.190	-0.300	-0.330
2020/01/31 19:47:19.0	3.390	-0.180	-0.310	-0.320
2020/01/31 19:47:19.1	3.380	-0.180	-0.310	-0.320
2020/01/31 19:47:19.2	3.370	-0.180	-0.320	-0.320
2020/01/31 19:47:19.3	3.370	-0.180	-0.320	-0.310
2020/01/31 19:47:19.4	3.360	-0.180	-0.310	-0.310
2020/01/31 19:47:19.5	3.360	-0.180	-0.310	-0.310
2020/01/31 19:47:19.6	3.360	-0.190	-0.300	-0.300
2020/01/31 19:47:19.7	3.360	-0.200	-0.290	-0.300
2020/01/31 19:47:19.8	3.350	-0.210	-0.280	-0.300
2020/01/31 19:47:19.9	3.370	-0.220	-0.270	-0.310
2020/01/31 19:47:20.0	3.370	-0.240	-0.260	-0.310
2020/01/31 19:47:20.1	3.380	-0.250	-0.250	-0.310
2020/01/31 19:47:20.2	3.380	-0.260	-0.240	-0.310
2020/01/31 19:47:20.3	3.390	-0.280	-0.230	-0.310
2020/01/31 19:47:20.4	3.400	-0.290	-0.230	-0.320
2020/01/31 19:47:20.5	3.410	-0.310	-0.220	-0.320
2020/01/31 19:47:20.6	3.430	-0.320	-0.220	-0.320
2020/01/31 19:47:20.7	3.440	-0.330	-0.220	-0.320
2020/01/31 19:47:20.8	3.450	-0.350	-0.220	-0.330
2020/01/31 19:47:20.9	3.480	-0.350	-0.220	-0.320
2020/01/31 19:47:21.0	3.490	-0.360	-0.220	-0.320
2020/01/31 19:47:21.1	3.510	-0.370	-0.230	-0.320
2020/01/31 19:47:21.2	3.520	-0.370	-0.230	-0.320
2020/01/31 19:47:21.3	3.530	-0.370	-0.240	-0.320
2020/01/31 19:47:21.4	3.550	-0.370	-0.250	-0.310
2020/01/31 19:47:21.5	3.560	-0.360	-0.260	-0.300
2020/01/31 19:47:21.6	3.570	-0.350	-0.270	-0.290
2020/01/31 19:47:21.7	3.580	-0.340	-0.280	-0.280
2020/01/31 19:47:21.8	3.590	-0.320	-0.290	-0.270
2020/01/31 19:47:21.9	3.600	-0.310	-0.310	-0.260
2020/01/31 19:47:22.0	3.600	-0.280	-0.320	-0.240
2020/01/31 19:47:22.1	3.610	-0.260	-0.330	-0.220
2020/01/31 19:47:22.2	3.610	-0.230	-0.340	-0.200
2020/01/31 19:47:22.3	3.610	-0.200	-0.350	-0.180
2020/01/31 19:47:22.4	3.610	-0.170	-0.370	-0.150
2020/01/31 19:47:22.5	3.600	-0.130	-0.380	-0.120
2020/01/31 19:47:22.6	3.600	-0.100	-0.380	-0.090
2020/01/31 19:47:22.7	3.600	-0.060	-0.390	-0.060
2020/01/31 19:47:22.8	3.590	-0.010	-0.400	-0.020
2020/01/31 19:47:22.9	3.570	0.030	-0.410	0.020
2020/01/31 19:47:23.0	3.560	0.070	-0.410	0.060
2020/01/31 19:47:23.1	3.550	0.120	-0.410	0.100
2020/01/31 19:47:23.2	3.540	0.160	-0.410	0.140
2020/01/31 19:47:23.3	3.530	0.210	-0.410	0.180
2020/01/31 19:47:23.4	3.520	0.250	-0.410	0.230
2020/01/31 19:47:23.5	3.510	0.300	-0.410	0.270
2020/01/31 19:47:23.6	3.490	0.340	-0.410	0.320
2020/01/31 19:47:23.7	3.480	0.390	-0.400	0.370
2020/01/31 19:47:23.8	3.470	0.430	-0.400	0.410
2020/01/31 19:47:23.9	3.490	0.470	-0.390	0.460
2020/01/31 19:47:24.0	3.470	0.500	-0.380	0.500
2020/01/31 19:47:24.1	3.470	0.540	-0.380	0.540
2020/01/31 19:47:24.2	3.460	0.570	-0.370	0.580
2020/01/31 19:47:24.3	3.450	0.600	-0.360	0.620
2020/01/31 19:47:24.4	3.440	0.620	-0.350	0.650
2020/01/31 19:47:24.5	3.440	0.640	-0.340	0.680
2020/01/31 19:47:24.6	3.430	0.660	-0.330	0.710
2020/01/31 19:47:24.7	3.430	0.680	-0.320	0.730
2020/01/31 19:47:24.8	3.420	0.690	-0.300	0.750
2020/01/31 19:47:24.9	3.410	0.690	-0.290	0.760
2020/01/31 19:47:25.0	3.410	0.700	-0.280	0.770
2020/01/31 19:47:25.1	3.410	0.700	-0.260	0.770
2020/01/31 19:47:25.2	3.410	0.690	-0.250	0.770
2020/01/31 19:47:25.3	3.400	0.680	-0.230	0.760
2020/01/31 19:47:25.4	3.400	0.670	-0.210	0.750
2020/01/31 19:47:25.5	3.400	0.650	-0.190	0.730
2020/01/31 19:47:25.6	3.400	0.630	-0.170	0.710
2020/01/31 19:47:25.7	3.390	0.610	-0.150	0.690
2020/01/31 19:47:25.8	3.390	0.580	-0.130	0.670
2020/01/31 19:47:25.9	3.400	0.550	-0.100	0.640
2020/01/31 19:47:26.0	3.390	0.520	-0.080	0.610
2020/01/31 19:47:26.1	3.390	0.490	-0.050	0.590
2020/01/31 19:47:26.2	3.380	0.450	-0.020	0.560
2020/01/31 19:47:26.3	3.370	0.410	0.010	0.530
2020/01/31 19:47:26.4	3.370	0.370	0.030	0.500
2020/01/31 19:47:26.5	3.360	0.330	0.060	0.470
2020/01/31 19:47:26.6	3.350	0.280	0.090	0.440
2020/01/31 19:47:26.7	3.340	0.240	0.110	0.410
2020/01/31 19:47:26.8	3.330	0.190	0.140	0.370
2020/01/31 19:47:26.9	3.330	0.150	0.160	0.340
2020/01/31 19:47:27.0	3.320	0.100	0.180	0.300
2020/01/31 19:47:27.1	3.310	0.060	0.190	0.270
2020/01/31 19:47:27.2	3.310	0.010	0.210	0.230
2020/01/31 19:47:27.3	3.300	-0.040	0.220	0.190
2020/01/31 19:47:27.4	3.300	-0.080	0.220	0.150
2020/01/31 19:47:27.5	3.290	-0.120	0.230	0.110
2020/01/31 19:47:27.6	3.290	-0.160	0.220	0.060
2020/01/31 19:47:27.7	3.290	-0.200	0.220	0.010
2020/01/31 19:47:27.8	3.300	-0.240	0.210	-0.040
2020/01/31 19:47:27.9	3.290	-0.270	0.190	-0.100
2020/01/31 19:47:28.0	3.300	-0.310	0.170	-0.150
2020/01/31 19:47:28.1	3.310	-0.330	0.140	-0.210
2020/01/31 19:47:28.2	3.320	-0.360	0.110	-0.270
2020/01/31 19:47:28.3	3.340	-0.380	0.080	-0.330
2020/01/31 19:47:28.4	3.360	-0.400	0.040	-0.400
2020/01/31 19:47:28.5	3.380	-0.420	-0.010	-0.460
2020/01/31 19:47:28.6	3.410	-0.440	-0.060	-0.530
2020/01/31 19:47:28.7	3.430	-0.450	-0.110	-0.600
2020/01/31 19:47:28.8	3.460	-0.450	-0.160	-0.670
2020/01/31 19:47:28.9	3.480	-0.460	-0.220	-0.740
2020/01/31 19:47:29.0	3.520	-0.450	-0.280	-0.810
2020/01/31 19:47:29.1	3.550	-0.450	-0.340	-0.870
2020/01/31 19:47:29.2	3.590	-0.440	-0.410	-0.930
2020/01/31 19:47:29.3	3.630	-0.440	-0.470	-0.990
2020/01/31 19:47:29.4	3.660	-0.420	-0.530	-1.050
2020/01/31 19:47:29.5	3.700	-0.410	-0.590	-1.090
2020/01/31 19:47:29.6	3.740	-0.390	-0.640	-1.140
2020/01/31 19:47:29.7	3.770	-0.370	-0.690	-1.180
2020/01/31 19:47:29.8	3.810	-0.350	-0.740	-1.210
2020/01/31 19:47:29.9	3.840	-0.330	-0.780	-1.240
2020/01/31 19:47:30.0	3.870	-0.310	-0.820	-1.260
2020/01/31 19:47:30.1	3.900	-0.290	-0.850	-1.270
2020/01/31 19:47:30.2	3.930	-0.270	-0.880	-1.280
2020/01/31 19:47:30.3	3.960	-0.240	-0.900	-1.290
2020/01/31 19:47:30.4	3.980	-0.220	-0.910	-1.290
2020/01/31 19:47:30.5	4.000	-0.200	-0.920	-1.290
2020/01/31 19:47:30.6	4.020	-0.180	-0.920	-1.280
2020/01/31 19:47:30.7	4.040	-0.160	-0.920	-1.270
2020/01/31 19:47:30.8	4.050	-0.140	-0.910	-1.250
2020/01/31 19:47:30.9	4.060	-0.120	-0.890	-1.230
2020/01/31 19:47:31.0	4.070	-0.110	-0.880	-1.200
2020/01/31 19:47:31.1	4.080	-0.090	-0.850	-1.180
2020/01/31 19:47:31.2	4.090	-0.080	-0.830	-1.150
2020/01/31 19:47:31.3	4.100	-0.070	-0.800	-1.120
2020/01/31 19:47:31.4	4.110	-0.060	-0.760	-1.080
2020/01/31 19:47:31.5	4.110	-0.050	-0.730	-1.040
2020/01/31 19:47:31.6	4.110	-0.050	-0.690	-1.000
2020/01/31 19:47:31.7	4.110	-0.040	-0.650	-0.960
2020/01/31 19:47:31.8	4.110	-0.040	-0.610	-0.910
2020/01/31 19:47:31.9	4.110	-0.030	-0.580	-0.860
2020/01/31 19:47:32.0	4.100	-0.030	-0.540	-0.810
2020/01/31 19:47:32.1	4.100	-0.030	-0.490	-0.750
2020/01/31 19:47:32.2	4.090	-0.030	-0.450	-0.700
2020/01/31 19:47:32.3	4.090	-0.030	-0.410	-0.650
2020/01/31 19:47:32.4	4.080	-0.030	-0.370	-0.590
2020/01/31 19:47:32.5	4.070	-0.030	-0.330	-0.540
2020/01/31 19:47:32.6	4.060	-0.030	-0.300	-0.480
2020/01/31 19:47:32.7	4.060	-0.040	-0.260	-0.430
2020/01/31 19:47:32.8	4.050	-0.040	-0.220	-0.370
2020/01/31 19:47:32.9	4.050	-0.040	-0.190	-0.320
2020/01/31 19:47:33.0	4.050	-0.040	-0.160	-0.270
2020/01/31 19:47:33.1	4.040	-0.040	-0.130	-0.220
2020/01/31 19:47:33.2	4.030	-0.040	-0.110	-0.180
2020/01/31 19:47:33.3	4.030	-0.050	-0.080	-0.130
2020/01/31 19:47:33.4	4.020	-0.040	-0.060	-0.100
2020/01/31 19:47:33.5	4.020	-0.040	-0.050	-0.060
2020/01/31 19:47:33.6	4.010	-0.040	-0.030	-0.030
2020/01/31 19:47:33.7	4.010	-0.040	-0.020	0.000
2020/01/31 19:47:33.8	4.010	-0.040	-0.010	0.030
2020/01/31 19:47:33.9	4.020	-0.030	-0.010	0.050
2020/01/31 19:47:34.0	4.020	-0.030	-0.000	0.070
2020/01/31 19:47:34.1	4.010	-0.020	-0.000	0.090
2020/01/31 19:47:34.2	4.010	-0.020	0.000	0.100
2020/01/31 19:47:34.3	4.010	-0.010	0.000	0.120
2020/01/31 19:47:34.4	4.000	-0.010	0.000	0.130
2020/01/31 19:47:34.5	4.000	-0.000	0.000	0.140
2020/01/31 19:47:34.6	3.990	0.000	0.000	0.150
2020/01/31 19:47:34.7	3.980	0.010	0.000	0.160
2020/01/31 19:47:34.8	3.970	0.020	0.000	0.170
2020/01/31 19:47:34.9	3.960	0.020	0.000	0.180
2020/01/31 19:47:35.0	3.950	0.030	0.010	0.190
2020/01/31 19:47:35.1	3.930	0.040	0.010	0.190
2020/01/31 19:47:35.2	3.920	0.040	0.010	0.200
2020/01/31 19:47:35.3	3.900	0.050	0.020	0.200
2020/01/31 19:47:35.4	3.890	0.060	0.030	0.210
2020/01/31 19:47:35.5	3.870	0.060	0.040	0.210
2020/01/31 19:47:35.6	3.860	0.070	0.040	0.210
2020/01/31 19:47:35.7	3.840	0.070	0.050	0.210
2020/01/31 19:47:35.8	3.820	0.080	0.060	0.220
2020/01/31 19:47:35.9	3.800	0.090	0.080	0.210
2020/01/31 19:47:36.0	3.780	0.090	0.090	0.220
2020/01/31 19:47:36.1	3.770	0.100	0.100	0.220
2020/01/31 19:47:36.2	3.750	0.100	0.110	0.220
2020/01/31 19:47:36.3	3.730	0.110	0.120	0.230
2020/01/31 19:47:36.4	3.710	0.120	0.130	0.230
2020/01/31 19:47:36.5	3.690	0.120	0.140	0.240
2020/01/31 19:47:36.6	3.670	0.130	0.150	0.240
2020/01/31 19:47:36.7	3.640	0.140	0.160	0.250
2020/01/31 19:47:36.8	3.620	0.140	0.160	0.260
2020/01/31 19:47:36.9	3.600	0.150	0.160	0.270
2020/01/31 19:47:37.0	3.580	0.160	0.170	0.290
2020/01/31 19:47:37.1	3.550	0.160	0.170	0.300
2020/01/31 19:47:37.2	3.530	0.170	0.170	0.310
2020/01/31 19:47:37.3	3.500	0.180	0.160	0.330
2020/01/31 19:47:37.4	3.470	0.190	0.160	0.340
2020/01/31 19:47:37.5	3.450	0.190	0.150	0.360
2020/01/31 19:47:37.6	3.420	0.200	0.130	0.370
2020/01/31 19:47:37.7	3.390	0.210	0.120	0.390
2020/01/31 19:47:37.8	3.360	0.210	0.100	0.400
2020/01/31 19:47:37.9	3.340	0.220	0.080	0.410
2020/01/31 19:47:38.0	3.310	0.220	0.050	0.410
2020/01/31 19:47:38.1	3.290	0.230	0.030	0.420
2020/01/31 19:47:38.2	3.270	0.230	-0.010	0.420
2020/01/31 19:47:38.3	3.250	0.240	-0.040	0.420
2020/01/31 19:47:38.4	3.230	0.240	-0.080	0.410
2020/01/31 19:47:38.5	3.210	0.240	-0.120	0.400
2020/01/31 19:47:38.6	3.200	0.240	-0.160	0.390
2020/01/31 19:47:38.7	3.190	0.240	-0.200	0.370
2020/01/31 19:47:38.8	3.180	0.250	-0.250	0.350
2020/01/31 19:47:38.9	3.170	0.240	-0.300	0.320
2020/01/31 19:47:39.0	3.170	0.240	-0.350	0.290
2020/01/31 19:47:39.1	3.180	0.240	-0.400	0.260
2020/01/31 19:47:39.2	3.180	0.240	-0.460	0.220
2020/01/31 19:47:39.3	3.190	0.240	-0.510	0.180
2020/01/31 19:47:39.4	3.210	0.230	-0.560	0.140
2020/01/31 19:47:39.5	3.220	0.230	-0.610	0.100
2020/01/31 19:47:39.6	3.250	0.220	-0.660	0.060
2020/01/31 19:47:39.7	3.270	0.210	-0.710	0.010
2020/01/31 19:47:39.8	3.300	0.210	-0.750	-0.040
2020/01/31 19:47:39.9	3.320	0.200	-0.790	-0.090
2020/01/31 19:47:40.0	3.350	0.190	-0.830	-0.140
2020/01/31 19:47:40.1	3.380	0.170	-0.860	-0.190
2020/01/31 19:47:40.2	3.420	0.160	-0.890	-0.230
2020/01/31 19:47:40.3	3.460	0.150	-0.920	-0.280
2020/01/31 19:47:40.4	3.490	0.130	-0.940	-0.330
2020/01/31 19:47:40.5	3.530	0.110	-0.950	-0.370
2020/01/31 19:47:40.6	3.580	0.100	-0.960	-0.410
2020/01/31 19:47:40.7	3.620	0.080	-0.970	-0.460
2020/01/31 19:47:40.8	3.660	0.060	-0.970	-0.500
2020/01/31 19:47:40.9	3.690	0.040	-0.970	-0.540
2020/01/31 19:47:41.0	3.740	0.010	-0.960	-0.570
2020/01/31 19:47:41.1	3.780	-0.010	-0.940	-0.610
2020/01/31 19:47:41.2	3.820	-0.040	-0.920	-0.640
2020/01/31 19:47:41.3	3.860	-0.060	-0.900	-0.670
2020/01/31 19:47:41.4	3.900	-0.090	-0.870	-0.690
2020/01/31 19:47:41.5	3.940	-0.110	-0.830	-0.720
2020/01/31 19:47:41.6	3.980	-0.140	-0.790	-0.740
2020/01/31 19:47:41.7	4.010	-0.170	-0.750	-0.760
2020/01/31 19:47:41.8	4.050	-0.200	-0.700	-0.770
2020/01/31 19:47:41.9	4.060	-0.230	-0.650	-0.780
2020/01/31 19:47:42.0	4.090	-0.260	-0.600	-0.790
2020/01/31 19:47:42.1	4.120	-0.290	-0.540	-0.790
2020/01/31 19:47:42.2	4.140	-0.320	-0.480	-0.790
2020/01/31 19:47:42.3	4.160	-0.350	-0.410	-0.790
2020/01/31 19:47:42.4	4.170	-0.380	-0.350	-0.780
2020/01/31 19:47:42.5	4.180	-0.400	-0.280	-0.770
2020/01/31 19:47:42.6	4.190	-0.430	-0.220	-0.760
2020/01/31 19:47:42.7	4.190	-0.460	-0.150	-0.740
2020/01/31 19:47:42.8	4.180	-0.490	-0.080	-0.720
2020/01/31 19:47:42.9	4.180	-0.510	-0.020	-0.690
2020/01/31 19:47:43.0	4.170	-0.540	0.050	-0.670
2020/01/31 19:47:43.1	4.150	-0.560	0.110	-0.630
2020/01/31 19:47:43.2	4.130	-0.580	0.170	-0.600
2020/01/31 19:47:43.3	4.100	-0.600	0.240	-0.560
2020/01/31 19:47:43.4	4.070	-0.620	0.290	-0.520
2020/01/31 19:47:43.5	4.030	-0.640	0.350	-0.480
2020/01/31 19:47:43.6	3.990	-0.660	0.400	-0.440
2020/01/31 19:47:43.7	3.950	-0.670	0.440	-0.400
2020/01/31 19:47:43.8	3.900	-0.690	0.480	-0.360
2020/01/31 19:47:43.9	3.850	-0.700	0.520	-0.320
2020/01/31 19:47:44.0	3.800	-0.710	0.550	-0.280
2020/01/31 19:47:44.1	3.750	-0.710	0.570	-0.240
2020/01/31 19:47:44.2	3.700	-0.720	0.590	-0.200
2020/01/31 19:47:44.3	3.650	-0.720	0.600	-0.160
2020/01/31 19:47:44.4	3.590	-0.720	0.600	-0.130
2020/01/31 19:47:44.5	3.540	-0.710	0.600	-0.090
2020/01/31 19:47:44.6	3.490	-0.700	0.580	-0.060
2020/01/31 19:47:44.7	3.430	-0.690	0.560	-0.030
2020/01/31 19:47:44.8	3.380	-0.670	0.540	-0.000
2020/01/31 19:47:44.9	3.330	-0.650	0.500	0.030
2020/01/31 19:47:45.0	3.290	-0.630	0.460	0.050
2020/01/31 19:47:45.1	3.250	-0.600	0.410	0.070
2020/01/31 19:47:45.2	3.210	-0.570	0.360	0.090
2020/01/31 19:47:45.3	3.170	-0.530	0.300	0.110
2020/01/31 19:47:45.4	3.140	-0.490	0.230	0.120
2020/01/31 19:47:45.5	3.110	-0.450	0.160	0.130
2020/01/31 19:47:45.6	3.090	-0.390	0.080	0.140
2020/01/31 19:47:45.7	3.070	-0.340	-0.000	0.150
2020/01/31 19:47:45.8	3.050	-0.280	-0.090	0.160
2020/01/31 19:47:45.9	3.040	-0.220	-0.170	0.150
2020/01/31 19:47:46.0	3.030	-0.150	-0.260	0.160
2020/01/31 19:47:46.1	3.020	-0.080	-0.350	0.160
2020/01/31 19:47:46.2	3.010	-0.010	-0.440	0.170
2020/01/31 19:47:46.3	3.010	0.070	-0.520	0.170
2020/01/31 19:47:46.4	3.010	0.140	-0.610	0.180
2020/01/31 19:47:46.5	3.010	0.220	-0.690	0.190
2020/01/31 19:47:46.6	3.010	0.300	-0.770	0.200
2020/01/31 19:47:46.7	3.010	0.380	-0.840	0.210
2020/01/31 19:47:46.8	3.010	0.460	-0.910	0.220
2020/01/31 19:47:46.9	2.990	0.540	-0.980	0.240
2020/01/31 19:47:47.0	2.990	0.610	-1.030	0.260
2020/01/31 19:47:47.1	2.990	0.690	-1.080	0.280
2020/01/31 19:47:47.2	2.980	0.760	-1.110	0.300
2020/01/31 19:47:47.3	2.980	0.830	-1.140	0.320
2020/01/31 19:47:47.4	2.970	0.890	-1.160	0.350
2020/01/31 19:47:47.5	2.970	0.950	-1.170	0.370
2020/01/31 19:47:47.6	2.960	1.000	-1.170	0.400
2020/01/31 19:47:47.7	2.950	1.050	-1.160	0.420
2020/01/31 19:47:47.8	2.940	1.090	-1.140	0.450
2020/01/31 19:47:47.9	2.940	1.120	-1.120	0.470
2020/01/31 19:47:48.0	2.930	1.150	-1.080	0.490
2020/01/31 19:47:48.1	2.920	1.170	-1.040	0.510
2020/01/31 19:47:48.2	2.910	1.190	-0.990	0.530
2020/01/31 19:47:48.3	2.900	1.190	-0.940	0.550
2020/01/31 19:47:48.4	2.900	1.190	-0.870	0.570
2020/01/31 19:47:48.5	2.890	1.190	-0.810	0.580
2020/01/31 19:47:48.6	2.890	1.170	-0.740	0.590
2020/01/31 19:47:48.7	2.890	1.150	-0.670	0.590
2020/01/31 19:47:48.8	2.900	1.130	-0.600	0.590
2020/01/31 19:47:48.9	2.900	1.090	-0.540	0.590
2020/01/31 19:47:49.0	2.910	1.050	-0.470	0.580
2020/01/31 19:47:49.1	2.930	1.010	-0.400	0.570
2020/01/31 19:47:49.2	2.940	0.960	-0.330	0.560
2020/01/31 19:47:49.3	2.960	0.900	-0.270	0.540
2020/01/31 19:47:49.4	2.990	0.840	-0.210	0.510
2020/01/31 19:47:49.5	3.010	0.780	-0.150	0.480
2020/01/31 19:47:49.6	3.040	0.720	-0.100	0.450
2020/01/31 19:47:49.7	3.070	0.650	-0.050	0.420
2020/01/31 19:47:49.8	3.100	0.570	-0.010	0.380
2020/01/31 19:47:49.9	3.130	0.500	0.030	0.340
2020/01/31 19:47:50.0	3.160	0.420	0.070	0.290
2020/01/31 19:47:50.1	3.190	0.350	0.090	0.250
2020/01/31 19:47:50.2	3.230	0.270	0.110	0.200
2020/01/31 19:47:50.3	3.260	0.190	0.130	0.150
2020/01/31 19:47:50.4	3.290	0.110	0.140	0.100
2020/01/31 19:47:50.5	3.320	0.030	0.150	0.040
2020/01/31 19:47:50.6	3.340	-0.050	0.160	-0.010
2020/01/31 19:47:50.7	3.360	-0.120	0.160	-0.060
2020/01/31 19:47:50.8	3.380	-0.200	0.160	-0.110
2020/01/31 19:47:50.9	3.400	-0.270	0.160	-0.170
2020/01/31 19:47:51.0	3.420	-0.340	0.160	-0.220
2020/01/31 19:47:51.1	3.430	-0.410	0.150	-0.270
2020/01/31 19:47:51.2	3.440	-0.480	0.150	-0.310
2020/01/31 19:47:51.3	3.440	-0.540	0.150	-0.360
2020/01/31 19:47:51.4	3.450	-0.600	0.140	-0.400
2020/01/31 19:47:51.5	3.450	-0.650	0.140	-0.440
2020/01/31 19:47:51.6	3.440	-0.700	0.140	-0.470
2020/01/31 19:47:51.7	3.430	-0.750	0.140	-0.500
2020/01/31 19:47:51.8	3.420	-0.790	0.140	-0.530
2020/01/31 19:47:51.9	3.410	-0.820	0.150	-0.550
2020/01/31 19:47:52.0	3.400	-0.850	0.160	-0.570
2020/01/31 19:47:52.1	3.380	-0.880	0.160	-0.580
2020/01/31 19:47:52.2	3.350	-0.900	0.170	-0.590
2020/01/31 19:47:52.3	3.330	-0.920	0.180	-0.590
2020/01/31 19:47:52.4	3.300	-0.930	0.200	-0.580
2020/01/31 19:47:52.5	3.270	-0.940	0.210	-0.570
2020/01/31 19:47:52.6	3.230	-0.940	0.220	-0.560
2020/01/31 19:47:52.7	3.200	-0.940	0.230	-0.540
2020/01/31 19:47:52.8	3.160	-0.930	0.250	-0.520
2020/01/31 19:47:52.9	3.130	-0.920	0.260	-0.490
2020/01/31 19:47:53.0	3.090	-0.910	0.270	-0.460
2020/01/31 19:47:53.1	3.050	-0.890	0.280	-0.430
2020/01/31 19:47:53.2	3.010	-0.860	0.280	-0.390
2020/01/31 19:47:53.3	2.970	-0.840	0.290	-0.360
2020/01/31 19:47:53.4	2.930	-0.810	0.290	-0.320
2020/01/31 19:47:53.5	2.890	-0.770	0.290	-0.280
2020/01/31 19:47:53.6	2.850	-0.740	0.280	-0.240
2020/01/31 19:47:53.7	2.810	-0.700	0.280	-0.210
2020/01/31 19:47:53.8	2.780	-0.660	0.260	-0.170
2020/01/31 19:47:53.9	2.750	-0.610	0.250	-0.130
2020/01/31 19:47:54.0	2.720	-0.570	0.230	-0.100
2020/01/31 19:47:54.1	2.690	-0.520	0.200	-0.060
2020/01/31 19:47:54.2	2.670	-0.470	0.180	-0.030
2020/01/31 19:47:54.3	2.650	-0.430	0.150	-0.000
2020/01/31 19:47:54.4	2.630	-0.380	0.110	0.020
2020/01/31 19:47:54.5	2.620	-0.330	0.070	0.050
2020/01/31 19:47:54.6	2.610	-0.280	0.030	0.070
2020/01/31 19:47:54.7	2.600	-0.230	-0.010	0.080
2020/01/31 19:47:54.8	2.600	-0.180	-0.060	0.100
2020/01/31 19:47:54.9	2.610	-0.140	-0.110	0.110
2020/01/31 19:47:55.0	2.610	-0.090	-0.160	0.120
2020/01/31 19:47:55.1	2.620	-0.050	-0.220	0.120
2020/01/31 19:47:55.2	2.630	-0.000	-0.270	0.130
2020/01/31 19:47:55.3	2.650	0.040	-0.330	0.120
2020/01/31 19:47:55.4	2.660	0.070	-0.380	0.120
2020/01/31 19:47:55.5	2.680	0.110	-0.430	0.110
2020/01/31 19:47:55.6	2.700	0.140	-0.490	0.110
2020/01/31 19:47:55.7	2.720	0.170	-0.540	0.100
2020/01/31 19:47:55.8	2.740	0.200	-0.580	0.090
2020/01/31 19:47:55.9	2.760	0.220	-0.630	0.080
2020/01/31 19:47:56.0	2.780	0.240	-0.670	0.070
2020/01/31 19:47:56.1	2.800	0.260	-0.700	0.060
2020/01/31 19:47:56.2	2.820	0.270	-0.730	0.050
2020/01/31 19:47:56.3	2.840	0.280	-0.760	0.040
2020/01/31 19:47:56.4	2.850	0.280	-0.780	0.040
2020/01/31 19:47:56.5	2.870	0.290	-0.800	0.030
2020/01/31 19:47:56.6	2.880	0.280	-0.800	0.030
2020/01/31 19:47:56.7	2.890	0.280	-0.810	0.020
2020/01/31 19:47:56.8	2.900	0.270	-0.810	0.020
2020/01/31 19:47:56.9	2.890	0.260	-0.810	0.010
2020/01/31 19:47:57.0	2.900	0.250	-0.800	0.010
2020/01/31 19:47:57.1	2.900	0.240	-0.790	0.010
2020/01/31 19:47:57.2	2.910	0.220	-0.770	0.000
2020/01/31 19:47:57.3	2.910	0.200	-0.750	0.000
2020/01/31 19:47:57.4	2.920	0.180	-0.730	-0.000
2020/01/31 19:47:57.5	2.920	0.170	-0.710	-0.010
2020/01/31 19:47:57.6	2.930	0.150	-0.690	-0.010
2020/01/31 19:47:57.7	2.930	0.130	-0.670	-0.020
2020/01/31 19:47:57.8	2.940	0.110	-0.650	-0.030
2020/01/31 19:47:57.9	2.950	0.090	-0.640	-0.040
2020/01/31 19:47:58.0	2.960	0.070	-0.620	-0.050
2020/01/31 19:47:58.1	2.970	0.060	-0.600	-0.060
2020/01/31 19:47:58.2	2.980	0.040	-0.590	-0.070
2020/01/31 19:47:58.3	2.980	0.030	-0.580	-0.080
2020/01/31 19:47:58.4	2.990	0.020	-0.570	-0.100
2020/01/31 19:47:58.5	3.000	0.020	-0.560	-0.110
2020/01/31 19:47:58.6	3.000	0.010	-0.550	-0.120
2020/01/31 19:47:58.7	3.010	0.010	-0.550	-0.130
2020/01/31 19:47:58.8	3.020	0.010	-0.550	-0.140
2020/01/31 19:47:58.9	3.020	0.020	-0.550	-0.150
2020/01/31 19:47:59.0	3.020	0.020	-0.550	-0.160
2020/01/31 19:47:59.1	3.030	0.040	-0.550	-0.170
2020/01/31 19:47:59.2	3.030	0.050	-0.550	-0.170
2020/01/31 19:47:59.3	3.040	0.060	-0.550	-0.180
2020/01/31 19:47:59.4	3.040	0.080	-0.550	-0.190
2020/01/31 19:47:59.5	3.050	0.110	-0.550	-0.190
2020/01/31 19:47:59.6	3.050	0.130	-0.550	-0.190
2020/01/31 19:47:59.7	3.050	0.160	-0.550	-0.190
2020/01/31 19:47:59.8	3.050	0.180	-0.540	-0.200
2020/01/31 19:47:59.9	3.050	0.210	-0.540	-0.200
2020/01/31 19:48:00.0	3.050	0.240	-0.530	-0.200
2020/01/31 19:48:00.1	3.050	0.270	-0.510	-0.190
2020/01/31 19:48:00.2	3.050	0.310	-0.500	-0.190
2020/01/31 19:48:00.3	3.050	0.340	-0.480	-0.180
2020/01/31 19:48:00.4	3.050	0.370	-0.460	-0.170
2020/01/31 19:48:00.5	3.040	0.400	-0.430	-0.160
2020/01/31 19:48:00.6	3.040	0.430	-0.400	-0.150
2020/01/31 19:48:00.7	3.030	0.450	-0.370	-0.140
2020/01/31 19:48:00.8	3.020	0.480	-0.330	-0.120
2020/01/31 19:48:00.9	3.010	0.500	-0.300	-0.100
2020/01/31 19:48:01.0	3.000	0.520	-0.260	-0.080
2020/01/31 19:48:01.1	2.990	0.530	-0.210	-0.060
2020/01/31 19:48:01.2	2.980	0.550	-0.170	-0.040
2020/01/31 19:48:01.3	2.970	0.550	-0.120	-0.010
2020/01/31 19:48:01.4	2.950	0.560	-0.070	0.020
2020/01/31 19:48:01.5	2.940	0.560	-0.020	0.050
2020/01/31 19:48:01.6	2.930	0.550	0.020	0.080
2020/01/31 19:48:01.7	2.910	0.540	0.070	0.110
2020/01/31 19:48:01.8	2.900	0.530	0.120	0.130
2020/01/31 19:48:01.9	2.890	0.510	0.170	0.160
2020/01/31 19:48:02.0	2.880	0.480	0.210	0.190
2020/01/31 19:48:02.1	2.870	0.450	0.250	0.220
2020/01/31 19:48:02.2	2.860	0.420	0.290	0.240
2020/01/31 19:48:02.3	2.850	0.380	0.330	0.260
2020/01/31 19:48:02.4	2.840	0.340	0.360	0.270
2020/01/31 19:48:02.5	2.840	0.300	0.390	0.290
2020/01/31 19:48:02.6	2.840	0.250	0.420	0.300
2020/01/31 19:48:02.7	2.840	0.200	0.440	0.300
2020/01/31 19:48:02.8	2.840	0.150	0.450	0.300
2020/01/31 19:48:02.9	2.830	0.090	0.460	0.290
2020/01/31 19:48:03.0	2.840	0.040	0.470	0.290
2020/01/31 19:48:03.1	2.850	-0.020	0.470	0.270
2020/01/31 19:48:03.2	2.860	-0.080	0.470	0.260
2020/01/31 19:48:03.3	2.870	-0.140	0.460	0.230
2020/01/31 19:48:03.4	2.880	-0.190	0.450	0.210
2020/01/31 19:48:03.5	2.900	-0.250	0.430	0.180
2020/01/31 19:48:03.6	2.910	-0.300	0.410	0.150
2020/01/31 19:48:03.7	2.930	-0.360	0.380	0.120
2020/01/31 19:48:03.8	2.950	-0.410	0.350	0.090
2020/01/31 19:48:03.9	2.980	-0.450	0.320	0.050
2020/01/31 19:48:04.0	3.000	-0.500	0.290	0.020
2020/01/31 19:48:04.1	3.020	-0.540	0.250	-0.020
2020/01/31 19:48:04.2	3.050	-0.570	0.210	-0.050
2020/01/31 19:48:04.3	3.070	-0.600	0.170	-0.080
2020/01/31 19:48:04.4	3.090	-0.630	0.120	-0.120
2020/01/31 19:48:04.5	3.120	-0.650	0.070	-0.150
2020/01/31 19:48:04.6	3.140	-0.670	0.030	-0.180
2020/01/31 19:48:04.7	3.170	-0.680	-0.020	-0.210
2020/01/31 19:48:04.8	3.190	-0.680	-0.070	-0.230
2020/01/31 19:48:04.9	3.220	-0.680	-0.120	-0.260
2020/01/31 19:48:05.0	3.250	-0.680	-0.170	-0.280
2020/01/31 19:48:05.1	3.270	-0.660	-0.210	-0.300
2020/01/31 19:48:05.2	3.290	-0.650	-0.260	-0.310
2020/01/31 19:48:05.3	3.310	-0.630	-0.300	-0.320
2020/01/31 19:48:05.4	3.320	-0.600	-0.350	-0.330
2020/01/31 19:48:05.5	3.340	-0.570	-0.390	-0.330
2020/01/31 19:48:05.6	3.350	-0.530	-0.430	-0.330
2020/01/31 19:48:05.7	3.350	-0.490	-0.470	-0.320
2020/01/31 19:48:05.8	3.360	-0.450	-0.500	-0.310
2020/01/31 19:48:05.9	3.340	-0.400	-0.540	-0.290
2020/01/31 19:48:06.0	3.340	-0.350	-0.570	-0.270
2020/01/31 19:48:06.1	3.330	-0.300	-0.600	-0.250
2020/01/31 19:48:06.2	3.320	-0.250	-0.630	-0.220
2020/01/31 19:48:06.3	3.300	-0.190	-0.650	-0.190
2020/01/31 19:48:06.4	3.280	-0.140	-0.670	-0.150
2020/01/31 19:48:06.5	3.260	-0.080	-0.690	-0.120
2020/01/31 19:48:06.6	3.230	-0.030	-0.710	-0.080
2020/01/31 19:48:06.7	3.210	0.020	-0.730	-0.050
2020/01/31 19:48:06.8	3.180	0.070	-0.740	-0.010
2020/01/31 19:48:06.9	3.140	0.120	-0.760	0.030
2020/01/31 19:48:07.0	3.110	0.170	-0.770	0.060
2020/01/31 19:48:07.1	3.080	0.220	-0.770	0.090
2020/01/31 19:48:07.2	3.050	0.260	-0.780	0.120
2020/01/31 19:48:07.3	3.020	0.300	-0.780	0.150
2020/01/31 19:48:07.4	2.980	0.330	-0.780	0.170
2020/01/31 19:48:07.5	2.950	0.360	-0.780	0.190
2020/01/31 19:48:07.6	2.930	0.390	-0.780	0.210
2020/01/31 19:48:07.7	2.900	0.410	-0.780	0.230
2020/01/31 19:48:07.8	2.880	0.430	-0.780	0.240
2020/01/31 19:48:07.9	2.850	0.450	-0.770	0.240
2020/01/31 19:48:08.0	2.830	0.460	-0.760	0.240
2020/01/31 19:48:08.1	2.810	0.460	-0.750	0.240
2020/01/31 19:48:08.2	2.800	0.460	-0.740	0.230
2020/01/31 19:48:08.3	2.790	0.460	-0.730	0.220
2020/01/31 19:48:08.4	2.790	0.450	-0.720	0.210
2020/01/31 19:48:08.5	2.780	0.440	-0.700	0.190
2020/01/31 19:48:08.6	2.780	0.430	-0.680	0.160
2020/01/31 19:48:08.7	2.790	0.410	-0.660	0.140
2020/01/31 19:48:08.8	2.790	0.380	-0.640	0.110
2020/01/31 19:48:08.9	2.810	0.360	-0.620	0.080
2020/01/31 19:48:09.0	2.820	0.330	-0.590	0.040
2020/01/31 19:48:09.1	2.840	0.300	-0.560	0.010
2020/01/31 19:48:09.2	2.850	0.260	-0.530	-0.030
2020/01/31 19:48:09.3	2.870	0.230	-0.500	-0.070
2020/01/31 19:48:09.4	2.890	0.190	-0.460	-0.100
2020/01/31 19:48:09.5	2.920	0.150	-0.430	-0.140
2020/01/31 19:48:09.6	2.940	0.110	-0.390	-0.180
2020/01/31 19:48:09.7	2.970	0.070	-0.350	-0.220
2020/01/31 19:48:09.8	3.000	0.030	-0.310	-0.260
2020/01/31 19:48:09.9	3.020	-0.010	-0.270	-0.300
2020/01/31 19:48:10.0	3.050	-0.050	-0.230	-0.330
2020/01/31 19:48:10.1	3.080	-0.090	-0.180	-0.360
2020/01/31 19:48:10.2	3.110	-0.130	-0.140	-0.400
2020/01/31 19:48:10.3	3.140	-0.170	-0.100	-0.420
2020/01/31 19:48:10.4	3.170	-0.200	-0.060	-0.450
2020/01/31 19:48:10.5	3.200	-0.230	-0.010	-0.470
2020/01/31 19:48:10.6	3.230	-0.260	0.030	-0.490
2020/01/31 19:48:10.7	3.260	-0.290	0.070	-0.510
2020/01/31 19:48:10.8	3.280	-0.320	0.100	-0.530
2020/01/31 19:48:10.9	3.310	-0.340	0.140	-0.540
2020/01/31 19:48:11.0	3.330	-0.360	0.170	-0.550
2020/01/31 19:48:11.1	3.360	-0.370	0.200	-0.550
2020/01/31 19:48:11.2	3.380	-0.390	0.230	-0.550
2020/01/31 19:48:11.3	3.390	-0.390	0.260	-0.550
2020/01/31 19:48:11.4	3.410	-0.400	0.280	-0.540
2020/01/31 19:48:11.5	3.420	-0.400	0.300	-0.530
2020/01/31 19:48:11.6	3.430	-0.400	0.320	-0.510
2020/01/31 19:48:11.7	3.440	-0.390	0.340	-0.490
2020/01/31 19:48:11.8	3.440	-0.390	0.350	-0.470
2020/01/31 19:48:11.9	3.450	-0.370	0.360	-0.440
2020/01/31 19:48:12.0	3.440	-0.360	0.360	-0.410
2020/01/31 19:48:12.1	3.440	-0.340	0.360	-0.370
2020/01/31 19:48:12.2	3.430	-0.320	0.360	-0.340
2020/01/31 19:48:12.3	3.420	-0.300	0.350	-0.300
2020/01/31 19:48:12.4	3.410	-0.280	0.340	-0.260
2020/01/31 19:48:12.5	3.400	-0.250	0.320	-0.210
2020/01/31 19:48:12.6	3.380	-0.220	0.310	-0.170
2020/01/31 19:48:12.7	3.360	-0.190	0.280	-0.130
2020/01/31 19:48:12.8	3.350	-0.160	0.260	-0.080
2020/01/31 19:48:12.9	3.340	-0.130	0.230	-0.040
2020/01/31 19:48:13.0	3.320	-0.100	0.200	0.000
2020/01/31 19:48:13.1	3.300	-0.060	0.160	0.040
2020/01/31 19:48:13.2	3.280	-0.030	0.120	0.080
2020/01/31 19:48:13.3	3.260	0.010	0.080	0.120
2020/01/31 19:48:13.4	3.250	0.040	0.040	0.160
2020/01/31 19:48:13.5	3.230	0.070	-0.010	0.200
2020/01/31 19:48:13.6	3.210	0.110	-0.060	0.230
2020/01/31 19:48:13.7	3.200	0.140	-0.110	0.260
2020/01/31 19:48:13.8	3.180	0.180	-0.160	0.290
2020/01/31 19:48:13.9	3.180	0.210	-0.210	0.320
2020/01/31 19:48:14.0	3.170	0.240	-0.260	0.340
2020/01/31 19:48:14.1	3.150	0.270	-0.310	0.370
2020/01/31 19:48:14.2	3.140	0.300	-0.350	0.390
2020/01/31 19:48:14.3	3.130	0.320	-0.400	0.400
2020/01/31 19:48:14.4	3.120	0.350	-0.440	0.420
2020/01/31 19:48:14.5	3.100	0.370	-0.490	0.430
2020/01/31 19:48:14.6	3.090	0.390	-0.520	0.440
2020/01/31 19:48:14.7	3.080	0.410	-0.560	0.450
2020/01/31 19:48:14.8	3.070	0.430	-0.590	0.450
2020/01/31 19:48:14.9	3.050	0.440	-0.620	0.450
2020/01/31 19:48:15.0	3.040	0.450	-0.650	0.450
2020/01/31 19:48:15.1	3.030	0.460	-0.660	0.440
2020/01/31 19:48:15.2	3.020	0.470	-0.680	0.440
2020/01/31 19:48:15.3	3.010	0.470	-0.690	0.430
2020/01/31 19:48:15.4	3.010	0.480	-0.690	0.420
2020/01/31 19:48:15.5	3.000	0.470	-0.690	0.410
2020/01/31 19:48:15.6	2.990	0.470	-0.680	0.390
2020/01/31 19:48:15.7	2.980	0.470	-0.670	0.380
2020/01/31 19:48:15.8	2.980	0.460	-0.660	0.360
2020/01/31 19:48:15.9	2.960	0.450	-0.640	0.330
2020/01/31 19:48:16.0	2.960	0.440	-0.620	0.310
2020/01/31 19:48:16.1	2.950	0.420	-0.600	0.290
2020/01/31 19:48:16.2	2.950	0.400	-0.570	0.270
2020/01/31 19:48:16.3	2.950	0.380	-0.540	0.240
2020/01/31 19:48:16.4	2.950	0.360	-0.510	0.220
2020/01/31 19:48:16.5	2.950	0.340	-0.480	0.190
2020/01/31 19:48:16.6	2.950	0.310	-0.450	0.160
2020/01/31 19:48:16.7	2.950	0.280	-0.420	0.130
2020/01/31 19:48:16.8	2.950	0.260	-0.390	0.100
2020/01/31 19:48:16.9	2.950	0.220	-0.370	0.060
2020/01/31 19:48:17.0	2.960	0.190	-0.340	0.030
2020/01/31 19:48:17.1	2.960	0.160	-0.310	-0.010
2020/01/31 19:48:17.2	2.970	0.120	-0.280	-0.050
2020/01/31 19:48:17.3	2.980	0.090	-0.250	-0.090
2020/01/31 19:48:17.4	2.990	0.050	-0.230	-0.130
2020/01/31 19:48:17.5	3.000	0.010	-0.210	-0.180
2020/01/31 19:48:17.6	3.010	-0.030	-0.190	-0.220
2020/01/31 19:48:17.7	3.020	-0.070	-0.170	-0.260
2020/01/31 19:48:17.8	3.020	-0.110	-0.160	-0.310
2020/01/31 19:48:17.9	3.040	-0.150	-0.140	-0.360
2020/01/31 19:48:18.0	3.050	-0.190	-0.130	-0.400
2020/01/31 19:48:18.1	3.060	-0.230	-0.120	-0.440
2020/01/31 19:48:18.2	3.060	-0.270	-0.110	-0.490
2020/01/31 19:48:18.3	3.070	-0.310	-0.100	-0.530
2020/01/31 19:48:18.4	3.080	-0.340	-0.100	-0.570
2020/01/31 19:48:18.5	3.090	-0.380	-0.090	-0.610
2020/01/31 19:48:18.6	3.090	-0.420	-0.090	-0.650
2020/01/31 19:48:18.7	3.100	-0.450	-0.090	-0.690
2020/01/31 19:48:18.8	3.100	-0.490	-0.090	-0.730
2020/01/31 19:48:18.9	3.110	-0.520	-0.090	-0.760
2020/01/31 19:48:19.0	3.120	-0.550	-0.090	-0.790
2020/01/31 19:48:19.1	3.130	-0.580	-0.090	-0.820
2020/01/31 19:48:19.2	3.130	-0.600	-0.090	-0.850
2020/01/31 19:48:19.3	3.140	-0.620	-0.100	-0.880
2020/01/31 19:48:19.4	3.150	-0.640	-0.100	-0.900
2020/01/31 19:48:19.5	3.160	-0.660	-0.110	-0.920
2020/01/31 19:48:19.6	3.170	-0.670	-0.120	-0.940
2020/01/31 19:48:19.7	3.170	-0.680	-0.130	-0.950
2020/01/31 19:48:19.8	3.180	-0.690	-0.130	-0.960
2020/01/31 19:48:19.9	3.180	-0.690	-0.150	-0.970
2020/01/31 19:48:20.0	3.190	-0.680	-0.160	-0.970
2020/01/31 19:48:20.1	3.200	-0.680	-0.170	-0.960
2020/01/31 19:48:20.2	3.210	-0.670	-0.180	-0.950
2020/01/31 19:48:20.3	3.220	-0.650	-0.200	-0.940
2020/01/31 19:48:20.4	3.220	-0.630	-0.210	-0.920
2020/01/31 19:48:20.5	3.230	-0.610	-0.230	-0.890
2020/01/31 19:48:20.6	3.230	-0.580	-0.240	-0.860
2020/01/31 19:48:20.7	3.240	-0.550	-0.260	-0.820
2020/01/31 19:48:20.8	3.240	-0.510	-0.270	-0.780
2020/01/31 19:48:20.9	3.260	-0.480	-0.280	-0.730
2020/01/31 19:48:21.0	3.260	-0.430	-0.300	-0.680
2020/01/31 19:48:21.1	3.260	-0.390	-0.320	-0.630
2020/01/31 19:48:21.2	3.260	-0.340	-0.330	-0.570
2020/01/31 19:48:21.3	3.260	-0.280	-0.350	-0.510
2020/01/31 19:48:21.4	3.260	-0.230	-0.370	-0.450
2020/01/31 19:48:21.5	3.260	-0.170	-0.380	-0.390
2020/01/31 19:48:21.6	3.260	-0.110	-0.400	-0.330
2020/01/31 19:48:21.7	3.250	-0.040	-0.410	-0.260
2020/01/31 19:48:21.8	3.250	0.020	-0.430	-0.200
2020/01/31 19:48:21.9	3.240	0.090	-0.450	-0.130
2020/01/31 19:48:22.0	3.240	0.160	-0.470	-0.070
2020/01/31 19:48:22.1	3.240	0.220	-0.490	-0.000
2020/01/31 19:48:22.2	3.240	0.290	-0.500	0.060
2020/01/31 19:48:22.3	3.240	0.360	-0.520	0.120
2020/01/31 19:48:22.4	3.240	0.430	-0.540	0.170
2020/01/31 19:48:22.5	3.240	0.500	-0.560	0.230
2020/01/31 19:48:22.6	3.240	0.560	-0.570	0.280
2020/01/31 19:48:22.7	3.240	0.620	-0.590	0.330
2020/01/31 19:48:22.8	3.240	0.680	-0.600	0.380
2020/01/31 19:48:22.9	3.260	0.740	-0.610	0.430
2020/01/31 19:48:23.0	3.260	0.790	-0.620	0.470
2020/01/31 19:48:23.1	3.260	0.840	-0.630	0.510
2020/01/31 19:48:23.2	3.260	0.880	-0.630	0.550
2020/01/31 19:48:23.3	3.260	0.910	-0.640	0.580
2020/01/31 19:48:23.4	3.260	0.940	-0.630	0.610
2020/01/31 19:48:23.5	3.250	0.960	-0.620	0.640
2020/01/31 19:48:23.6	3.250	0.980	-0.610	0.660
2020/01/31 19:48:23.7	3.240	0.980	-0.600	0.670
2020/01/31 19:48:23.8	3.240	0.980	-0.580	0.680
2020/01/31 19:48:23.9	3.230	0.970	-0.560	0.690
2020/01/31 19:48:24.0	3.220	0.950	-0.530	0.690
2020/01/31 19:48:24.1	3.210	0.930	-0.490	0.680
2020/01/31 19:48:24.2	3.200	0.890	-0.450	0.670
2020/01/31 19:48:24.3	3.190	0.850	-0.410	0.650
2020/01/31 19:48:24.4	3.170	0.800	-0.370	0.630
2020/01/31 19:48:24.5	3.160	0.750	-0.320	0.610
2020/01/31 19:48:24.6	3.140	0.690	-0.270	0.580
2020/01/31 19:48:24.7	3.120	0.620	-0.210	0.550
2020/01/31 19:48:24.8	3.110	0.550	-0.150	0.510
2020/01/31 19:48:24.9	3.090	0.470	-0.100	0.470
2020/01/31 19:48:25.0	3.070	0.390	-0.040	0.430
2020/01/31 19:48:25.1	3.050	0.310	0.020	0.390
2020/01/31 19:48:25.2	3.030	0.230	0.080	0.350
2020/01/31 19:48:25.3	3.010	0.140	0.140	0.300
2020/01/31 19:48:25.4	2.990	0.050	0.200	0.260
2020/01/31 19:48:25.5	2.970	-0.040	0.260	0.220
2020/01/31 19:48:25.6	2.950	-0.120	0.310	0.180
2020/01/31 19:48:25.7	2.930	-0.210	0.370	0.140
2020/01/31 19:48:25.8	2.910	-0.290	0.420	0.100
2020/01/31 19:48:25.9	2.890	-0.370	0.460	0.070
2020/01/31 19:48:26.0	2.870	-0.440	0.500	0.030
2020/01/31 19:48:26.1	2.850	-0.510	0.540	-0.000
2020/01/31 19:48:26.2	2.830	-0.580	0.570	-0.030
2020/01/31 19:48:26.3	2.810	-0.630	0.590	-0.060
2020/01/31 19:48:26.4	2.800	-0.690	0.610	-0.090
2020/01/31 19:48:26.5	2.780	-0.730	0.620	-0.120
2020/01/31 19:48:26.6	2.770	-0.770	0.620	-0.140
2020/01/31 19:48:26.7	2.750	-0.790	0.610	-0.160
2020/01/31 19:48:26.8	2.740	-0.810	0.600	-0.190
2020/01/31 19:48:26.9	2.710	-0.830	0.580	-0.220
2020/01/31 19:48:27.0	2.700	-0.830	0.550	-0.240
2020/01/31 19:48:27.1	2.690	-0.830	0.520	-0.260
2020/01/31 19:48:27.2	2.690	-0.810	0.480	-0.280
2020/01/31 19:48:27.3	2.680	-0.790	0.420	-0.300
2020/01/31 19:48:27.4	2.670	-0.760	0.370	-0.320
2020/01/31 19:48:27.5	2.670	-0.730	0.310	-0.330
2020/01/31 19:48:27.6	2.670	-0.690	0.240	-0.350
2020/01/31 19:48:27.7	2.660	-0.640	0.160	-0.370
2020/01/31 19:48:27.8	2.660	-0.590	0.080	-0.390
2020/01/31 19:48:27.9	2.660	-0.530	-0.000	-0.400
2020/01/31 19:48:28.0	2.660	-0.470	-0.090	-0.420
2020/01/31 19:48:28.1	2.650	-0.410	-0.170	-0.430
2020/01/31 19:48:28.2	2.650	-0.340	-0.260	-0.440
2020/01/31 19:48:28.3	2.650	-0.280	-0.350	-0.440
2020/01/31 19:48:28.4	2.640	-0.210	-0.430	-0.450
2020/01/31 19:48:28.5	2.640	-0.140	-0.520	-0.450
2020/01/31 19:48:28.6	2.630	-0.070	-0.600	-0.450
2020/01/31 19:48:28.7	2.630	-0.010	-0.680	-0.450
2020/01/31 19:48:28.8	2.620	0.050	-0.750	-0.440
2020/01/31 19:48:28.9	2.620	0.110	-0.820	-0.430
2020/01/31 19:48:29.0	2.610	0.170	-0.890	-0.420
2020/01/31 19:48:29.1	2.610	0.220	-0.940	-0.410
2020/01/31 19:48:29.2	2.600	0.270	-0.990	-0.390
2020/01/31 19:48:29.3	2.600	0.310	-1.040	-0.370
2020/01/31 19:48:29.4	2.590	0.350	-1.080	-0.350
2020/01/31 19:48:29.5	2.590	0.380	-1.110	-0.340
2020/01/31 19:48:29.6	2.580	0.410	-1.130	-0.320
2020/01/31 19:48:29.7	2.580	0.430	-1.150	-0.290
2020/01/31 19:48:29.8	2.580	0.440	-1.160	-0.270
2020/01/31 19:48:29.9	2.570	0.450	-1.170	-0.250
2020/01/31 19:48:30.0	2.570	0.450	-1.170	-0.230
2020/01/31 19:48:30.1	2.580	0.450	-1.160	-0.210
2020/01/31 19:48:30.2	2.580	0.440	-1.150	-0.190
2020/01/31 19:48:30.3	2.590	0.420	-1.130	-0.180
2020/01/31 19:48:30.4	2.610	0.400	-1.100	-0.160
2020/01/31 19:48:30.5	2.620	0.380	-1.070	-0.150
2020/01/31 19:48:30.6	2.640	0.350	-1.040	-0.140
2020/01/31 19:48:30.7	2.650	0.310	-1.000	-0.130
2020/01/31 19:48:30.8	2.670	0.280	-0.960	-0.130
2020/01/31 19:48:30.9	2.680	0.240	-0.910	-0.130
2020/01/31 19:48:31.0	2.700	0.200	-0.860	-0.130
2020/01/31 19:48:31.1	2.730	0.150	-0.810	-0.130
2020/01/31 19:48:31.2	2.750	0.100	-0.750	-0.130
2020/01/31 19:48:31.3	2.770	0.060	-0.690	-0.130
2020/01/31 19:48:31.4	2.800	0.010	-0.630	-0.130
2020/01/31 19:48:31.5	2.820	-0.040	-0.570	-0.140
2020/01/31 19:48:31.6	2.850	-0.090	-0.500	-0.140
2020/01/31 19:48:31.7	2.880	-0.140	-0.430	-0.150
2020/01/31 19:48:31.8	2.900	-0.180	-0.360	-0.160
2020/01/31 19:48:31.9	2.940	-0.220	-0.290	-0.160
2020/01/31 19:48:32.0	2.960	-0.270	-0.220	-0.170
2020/01/31 19:48:32.1	2.990	-0.310	-0.140	-0.170
2020/01/31 19:48:32.2	3.020	-0.340	-0.070	-0.180
2020/01/31 19:48:32.3	3.040	-0.370	0.000	-0.180
2020/01/31 19:48:32.4	3.060	-0.400	0.070	-0.180
2020/01/31 19:48:32.5	3.090	-0.430	0.150	-0.180
2020/01/31 19:48:32.6	3.100	-0.450	0.210	-0.170
2020/01/31 19:48:32.7	3.120	-0.470	0.280	-0.160
2020/01/31 19:48:32.8	3.140	-0.480	0.350	-0.150
2020/01/31 19:48:32.9	3.170	-0.490	0.410	-0.140
2020/01/31 19:48:33.0	3.180	-0.490	0.470	-0.120
2020/01/31 19:48:33.1	3.190	-0.500	0.520	-0.100
2020/01/31 19:48:33.2	3.190	-0.490	0.570	-0.080
2020/01/31 19:48:33.3	3.190	-0.490	0.610	-0.050
2020/01/31 19:48:33.4	3.200	-0.480	0.650	-0.020
2020/01/31 19:48:33.5	3.190	-0.470	0.680	0.010
2020/01/31 19:48:33.6	3.190	-0.450	0.710	0.040
2020/01/31 19:48:33.7	3.180	-0.440	0.730	0.060
2020/01/31 19:48:33.8	3.180	-0.420	0.750	0.090
2020/01/31 19:48:33.9	3.170	-0.400	0.760	0.130
2020/01/31 19:48:34.0	3.150	-0.370	0.760	0.160
2020/01/31 19:48:34.1	3.140	-0.350	0.750	0.180
2020/01/31 19:48:34.2	3.120	-0.330	0.740	0.210
2020/01/31 19:48:34.3	3.100	-0.300	0.730	0.230
2020/01/31 19:48:34.4	3.070	-0.270	0.700	0.250
2020/01/31 19:48:34.5	3.050	-0.250	0.670	0.270
2020/01/31 19:48:34.6	3.020	-0.220	0.640	0.290
2020/01/31 19:48:34.7	2.990	-0.190	0.600	0.310
2020/01/31 19:48:34.8	2.960	-0.160	0.550	0.320
2020/01/31 19:48:34.9	2.930	-0.140	0.500	0.330
2020/01/31 19:48:35.0	2.890	-0.110	0.440	0.350
2020/01/31 19:48:35.1	2.850	-0.080	0.380	0.360
2020/01/31 19:48:35.2	2.820	-0.050	0.320	0.370
2020/01/31 19:48:35.3	2.780	-0.030	0.250	0.380
2020/01/31 19:48:35.4	2.740	-0.000	0.180	0.390
2020/01/31 19:48:35.5	2.700	0.030	0.100	0.400
2020/01/31 19:48:35.6	2.660	0.050	0.030	0.410
2020/01/31 19:48:35.7	2.620	0.080	-0.050	0.420
2020/01/31 19:48:35.8	2.580	0.100	-0.130	0.430
2020/01/31 19:48:35.9	2.540	0.130	-0.210	0.430
2020/01/31 19:48:36.0	2.500	0.150	-0.290	0.440
2020/01/31 19:48:36.1	2.460	0.170	-0.370	0.450
2020/01/31 19:48:36.2	2.430	0.200	-0.450	0.450
2020/01/31 19:48:36.3	2.390	0.220	-0.530	0.460
2020/01/31 19:48:36.4	2.360	0.250	-0.610	0.460
2020/01/31 19:48:36.5	2.330	0.270	-0.690	0.460
2020/01/31 19:48:36.6	2.290	0.300	-0.760	0.460
2020/01/31 19:48:36.7	2.260	0.320	-0.830	0.460
2020/01/31 19:48:36.8	2.230	0.350	-0.900	0.450
2020/01/31 19:48:36.9	2.190	0.380	-0.960	0.450
2020/01/31 19:48:37.0	2.170	0.400	-1.020	0.440
2020/01/31 19:48:37.1	2.140	0.430	-1.080	0.430
2020/01/31 19:48:37.2	2.120	0.460	-1.130	0.410
2020/01/31 19:48:37.3	2.100	0.490	-1.180	0.400
2020/01/31 19:48:37.4	2.080	0.510	-1.220	0.380
2020/01/31 19:48:37.5	2.060	0.540	-1.260	0.360
2020/01/31 19:48:37.6	2.050	0.570	-1.280	0.340
2020/01/31 19:48:37.7	2.040	0.590	-1.310	0.310
2020/01/31 19:48:37.8	2.030	0.620	-1.320	0.290
2020/01/31 19:48:37.9	2.020	0.640	-1.340	0.250
2020/01/31 19:48:38.0	2.020	0.670	-1.340	0.220
2020/01/31 19:48:38.1	2.020	0.690	-1.340	0.190
2020/01/31 19:48:38.2	2.020	0.700	-1.330	0.160
2020/01/31 19:48:38.3	2.030	0.720	-1.310	0.130
2020/01/31 19:48:38.4	2.030	0.730	-1.290	0.090
2020/01/31 19:48:38.5	2.040	0.740	-1.260	0.060
2020/01/31 19:48:38.6	2.060	0.750	-1.220	0.020
2020/01/31 19:48:38.7	2.070	0.750	-1.180	-0.010
2020/01/31 19:48:38.8	2.090	0.750	-1.130	-0.050
2020/01/31 19:48:38.9	2.110	0.740	-1.080	-0.080
2020/01/31 19:48:39.0	2.130	0.730	-1.020	-0.120
2020/01/31 19:48:39.1	2.150	0.710	-0.950	-0.150
2020/01/31 19:48:39.2	2.180	0.690	-0.880	-0.190
2020/01/31 19:48:39.3	2.200	0.670	-0.810	-0.220
2020/01/31 19:48:39.4	2.220	0.640	-0.740	-0.250
2020/01/31 19:48:39.5	2.250	0.600	-0.660	-0.280
2020/01/31 19:48:39.6	2.280	0.560	-0.580	-0.310
2020/01/31 19:48:39.7	2.300	0.520	-0.500	-0.340
2020/01/31 19:48:39.8	2.330	0.480	-0.420	-0.360
2020/01/31 19:48:39.9	2.350	0.430	-0.340	-0.380
2020/01/31 19:48:40.0	2.370	0.370	-0.260	-0.400
2020/01/31 19:48:40.1	2.400	0.320	-0.180	-0.420
2020/01/31 19:48:40.2	2.420	0.260	-0.100	-0.440
2020/01/31 19:48:40.3	2.450	0.200	-0.030	-0.450
2020/01/31 19:48:40.4	2.480	0.140	0.040	-0.470
2020/01/31 19:48:40.5	2.510	0.070	0.110	-0.480
2020/01/31 19:48:40.6	2.530	0.010	0.170	-0.500
2020/01/31 19:48:40.7	2.560	-0.050	0.230	-0.510
2020/01/31 19:48:40.8	2.590	-0.120	0.280	-0.520
2020/01/31 19:48:40.9	2.620	-0.180	0.330	-0.530
2020/01/31 19:48:41.0	2.650	-0.240	0.370	-0.540
2020/01/31 19:48:41.1	2.680	-0.300	0.410	-0.550
2020/01/31 19:48:41.2	2.720	-0.360	0.440	-0.560
2020/01/31 19:48:41.3	2.750	-0.410	0.460	-0.570
2020/01/31 19:48:41.4	2.780	-0.460	0.480	-0.580
2020/01/31 19:48:41.5	2.810	-0.510	0.490	-0.590
2020/01/31 19:48:41.6	2.840	-0.550	0.500	-0.600
2020/01/31 19:48:41.7	2.860	-0.590	0.500	-0.600
2020/01/31 19:48:41.8	2.890	-0.630	0.500	-0.600
2020/01/31 19:48:41.9	2.930	-0.660	0.490	-0.610
2020/01/31 19:48:42.0	2.950	-0.680	0.470	-0.600
2020/01/31 19:48:42.1	2.970	-0.700	0.450	-0.600
2020/01/31 19:48:42.2	2.990	-0.720	0.430	-0.590
2020/01/31 19:48:42.3	3.000	-0.730	0.410	-0.590
2020/01/31 19:48:42.4	3.020	-0.740	0.380	-0.570
2020/01/31 19:48:42.5	3.030	-0.740	0.350	-0.560
2020/01/31 19:48:42.6	3.040	-0.730	0.310	-0.540
2020/01/31 19:48:42.7	3.040	-0.730	0.280	-0.520
2020/01/31 19:48:42.8	3.040	-0.710	0.240	-0.490
2020/01/31 19:48:42.9	3.050	-0.700	0.210	-0.460
2020/01/31 19:48:43.0	3.040	-0.680	0.180	-0.430
2020/01/31 19:48:43.1	3.040	-0.650	0.140	-0.390
2020/01/31 19:48:43.2	3.030	-0.630	0.100	-0.360
2020/01/31 19:48:43.3	3.020	-0.600	0.070	-0.320
2020/01/31 19:48:43.4	3.010	-0.570	0.040	-0.280
2020/01/31 19:48:43.5	2.990	-0.530	0.000	-0.230
2020/01/31 19:48:43.6	2.980	-0.500	-0.030	-0.190
2020/01/31 19:48:43.7	2.960	-0.460	-0.060	-0.140
2020/01/31 19:48:43.8	2.930	-0.430	-0.080	-0.100
2020/01/31 19:48:43.9	2.910	-0.390	-0.110	-0.050
2020/01/31 19:48:44.0	2.880	-0.350	-0.130	-0.000
2020/01/31 19:48:44.1	2.850	-0.310	-0.150	0.040
2020/01/31 19:48:44.2	2.820	-0.270	-0.170	0.090
2020/01/31 19:48:44.3	2.790	-0.240	-0.190	0.140
2020/01/31 19:48:44.4	2.760	-0.200	-0.210	0.180
2020/01/31 19:48:44.5	2.730	-0.160	-0.220	0.230
2020/01/31 19:48:44.6	2.690	-0.130	-0.230	0.270
2020/01/31 19:48:44.7	2.660	-0.100	-0.240	0.310
2020/01/31 19:48:44.8	2.620	-0.060	-0.250	0.360
2020/01/31 19:48:44.9	2.580	-0.030	-0.260	0.400
2020/01/31 19:48:45.0	2.540	-0.000	-0.260	0.440
2020/01/31 19:48:45.1	2.510	0.030	-0.260	0.480
2020/01/31 19:48:45.2	2.470	0.050	-0.260	0.510
2020/01/31 19:48:45.3	2.430	0.080	-0.260	0.550
2020/01/31 19:48:45.4	2.400	0.100	-0.260	0.580
2020/01/31 19:48:45.5	2.360	0.130	-0.260	0.610
2020/01/31 19:48:45.6	2.320	0.150	-0.260	0.640
2020/01/31 19:48:45.7	2.290	0.170	-0.260	0.670
2020/01/31 19:48:45.8	2.260	0.190	-0.260	0.690
2020/01/31 19:48:45.9	2.230	0.210	-0.250	0.710
2020/01/31 19:48:46.0	2.200	0.220	-0.250	0.730
2020/01/31 19:48:46.1	2.170	0.240	-0.250	0.740
2020/01/31 19:48:46.2	2.150	0.250	-0.250	0.750
2020/01/31 19:48:46.3	2.130	0.270	-0.250	0.760
2020/01/31 19:48:46.4	2.110	0.280	-0.250	0.760
2020/01/31 19:48:46.5	2.090	0.290	-0.250	0.760
2020/01/31 19:48:46.6	2.070	0.300	-0.250	0.750
2020/01/31 19:48:46.7	2.050	0.310	-0.250	0.740
2020/01/31 19:48:46.8	2.040	0.320	-0.250	0.730
2020/01/31 19:48:46.9	2.040	0.320	-0.260	0.710
2020/01/31 19:48:47.0	2.030	0.330	-0.260	0.690
2020/01/31 19:48:47.1	2.020	0.330	-0.260	0.670
2020/01/31 19:48:47.2	2.010	0.330	-0.270	0.640
2020/01/31 19:48:47.3	2.010	0.330	-0.270	0.610
2020/01/31 19:48:47.4	2.000	0.330	-0.280	0.580
2020/01/31 19:48:47.5	2.000	0.330	-0.280	0.550
2020/01/31 19:48:47.6	2.000	0.330	-0.290	0.510
2020/01/31 19:48:47.7	2.000	0.320	-0.290	0.470
2020/01/31 19:48:47.8	2.000	0.310	-0.300	0.430
2020/01/31 19:48:47.9	1.990	0.300	-0.310	0.390
2020/01/31 19:48:48.0	2.000	0.290	-0.310	0.350
2020/01/31 19:48:48.1	2.000	0.280	-0.320	0.300
2020/01/31 19:48:48.2	2.010	0.270	-0.330	0.260
2020/01/31 19:48:48.3	2.010	0.250	-0.330	0.210
2020/01/31 19:48:48.4	2.020	0.240	-0.340	0.170
2020/01/31 19:48:48.5	2.030	0.220	-0.350	0.120
2020/01/31 19:48:48.6	2.040	0.200	-0.350	0.070
2020/01/31 19:48:48.7	2.050	0.180	-0.360	0.030
2020/01/31 19:48:48.8	2.060	0.160	-0.370	-0.020
2020/01/31 19:48:48.9	2.070	0.140	-0.370	-0.070
2020/01/31 19:48:49.0	2.080	0.110	-0.380	-0.110
2020/01/31 19:48:49.1	2.100	0.090	-0.380	-0.160
2020/01/31 19:48:49.2	2.120	0.060	-0.390	-0.210
2020/01/31 19:48:49.3	2.140	0.040	-0.400	-0.250
2020/01/31 19:48:49.4	2.160	0.010	-0.410	-0.300
2020/01/31 19:48:49.5	2.180	-0.010	-0.420	-0.350
2020/01/31 19:48:49.6	2.210	-0.040	-0.420	-0.390
2020/01/31 19:48:49.7	2.240	-0.070	-0.430	-0.440
2020/01/31 19:48:49.8	2.260	-0.090	-0.440	-0.480
2020/01/31 19:48:49.9	2.290	-0.120	-0.450	-0.530
2020/01/31 19:48:50.0	2.320	-0.150	-0.460	-0.570
2020/01/31 19:48:50.1	2.360	-0.170	-0.470	-0.610
2020/01/31 19:48:50.2	2.390	-0.200	-0.480	-0.650
2020/01/31 19:48:50.3	2.420	-0.220	-0.490	-0.690
2020/01/31 19:48:50.4	2.450	-0.250	-0.500	-0.730
2020/01/31 19:48:50.5	2.490	-0.270	-0.510	-0.760
2020/01/31 19:48:50.6	2.520	-0.290	-0.520	-0.790
2020/01/31 19:48:50.7	2.550	-0.310	-0.530	-0.820
2020/01/31 19:48:50.8	2.580	-0.330	-0.530	-0.850
2020/01/31 19:48:50.9	2.600	-0.350	-0.540	-0.870
2020/01/31 19:48:51.0	2.620	-0.370	-0.540	-0.890
2020/01/31 19:48:51.1	2.650	-0.390	-0.540	-0.910
2020/01/31 19:48:51.2	2.670	-0.400	-0.540	-0.920
2020/01/31 19:48:51.3	2.690	-0.420	-0.540	-0.930
2020/01/31 19:48:51.4	2.720	-0.430	-0.540	-0.930
2020/01/31 19:48:51.5	2.730	-0.440	-0.540	-0.940
2020/01/31 19:48:51.6	2.750	-0.440	-0.530	-0.940
2020/01/31 19:48:51.7	2.770	-0.450	-0.530	-0.940
2020/01/31 19:48:51.8	2.780	-0.450	-0.520	-0.930
2020/01/31 19:48:51.9	2.790	-0.450	-0.510	-0.920
2020/01/31 19:48:52.0	2.800	-0.450	-0.500	-0.910
2020/01/31 19:48:52.1	2.810	-0.440	-0.480	-0.890
2020/01/31 19:48:52.2	2.820	-0.430	-0.470	-0.870
2020/01/31 19:48:52.3	2.830	-0.420	-0.450	-0.840
2020/01/31 19:48:52.4	2.840	-0.410	-0.430	-0.820
2020/01/31 19:48:52.5	2.850	-0.390	-0.410	-0.780
2020/01/31 19:48:52.6	2.860	-0.370	-0.390	-0.750
2020/01/31 19:48:52.7	2.860	-0.340	-0.370	-0.710
2020/01/31 19:48:52.8	2.860	-0.310	-0.340	-0.670
2020/01/31 19:48:52.9	2.870	-0.280	-0.320	-0.630
2020/01/31 19:48:53.0	2.870	-0.250	-0.300	-0.580
2020/01/31 19:48:53.1	2.870	-0.220	-0.270	-0.530
2020/01/31 19:48:53.2	2.870	-0.180	-0.250	-0.480
2020/01/31 19:48:53.3	2.860	-0.140	-0.230	-0.420
2020/01/31 19:48:53.4	2.850	-0.100	-0.200	-0.360
2020/01/31 19:48:53.5	2.840	-0.050	-0.180	-0.290
2020/01/31 19:48:53.6	2.830	-0.010	-0.160	-0.230
2020/01/31 19:48:53.7	2.820	0.040	-0.140	-0.160
2020/01/31 19:48:53.8	2.800	0.080	-0.130	-0.090
2020/01/31 19:48:53.9	2.800	0.130	-0.110	-0.010
2020/01/31 19:48:54.0	2.780	0.180	-0.100	0.060
2020/01/31 19:48:54.1	2.760	0.220	-0.080	0.130
2020/01/31 19:48:54.2	2.740	0.270	-0.070	0.200
2020/01/31 19:48:54.3	2.710	0.320	-0.060	0.260
2020/01/31 19:48:54.4	2.690	0.360	-0.060	0.330
2020/01/31 19:48:54.5	2.670	0.410	-0.050	0.390
2020/01/31 19:48:54.6	2.650	0.450	-0.050	0.450
2020/01/31 19:48:54.7	2.620	0.500	-0.050	0.500
2020/01/31 19:48:54.8	2.600	0.540	-0.050	0.560
2020/01/31 19:48:54.9	2.580	0.570	-0.050	0.600
2020/01/31 19:48:55.0	2.560	0.610	-0.060	0.650
2020/01/31 19:48:55.1	2.550	0.640	-0.070	0.680
2020/01/31 19:48:55.2	2.530	0.680	-0.080	0.720
2020/01/31 19:48:55.3	2.520	0.710	-0.090	0.750
2020/01/31 19:48:55.4	2.500	0.730	-0.100	0.770
2020/01/31 19:48:55.5	2.490	0.760	-0.110	0.790
2020/01/31 19:48:55.6	2.480	0.780	-0.120	0.810
2020/01/31 19:48:55.7	2.470	0.790	-0.140	0.820
2020/01/31 19:48:55.8	2.470	0.810	-0.150	0.830
2020/01/31 19:48:55.9	2.470	0.820	-0.170	0.830
2020/01/31 19:48:56.0	2.460	0.830	-0.180	0.830
2020/01/31 19:48:56.1	2.460	0.830	-0.200	0.830
2020/01/31 19:48:56.2	2.460	0.830	-0.210	0.820
2020/01/31 19:48:56.3	2.460	0.830	-0.230	0.820
2020/01/31 19:48:56.4	2.460	0.820	-0.240	0.810
2020/01/31 19:48:56.5	2.460	0.810	-0.250	0.800
2020/01/31 19:48:56.6	2.460	0.790	-0.270	0.790
2020/01/31 19:48:56.7	2.460	0.780	-0.270	0.770
2020/01/31 19:48:56.8	2.460	0.750	-0.280	0.750
2020/01/31 19:48:56.9	2.460	0.730	-0.290	0.740
2020/01/31 19:48:57.0	2.460	0.690	-0.290	0.720
2020/01/31 19:48:57.1	2.470	0.660	-0.300	0.690
2020/01/31 19:48:57.2	2.470	0.620	-0.300	0.670
2020/01/31 19:48:57.3	2.480	0.580	-0.300	0.640
2020/01/31 19:48:57.4	2.480	0.530	-0.300	0.610
2020/01/31 19:48:57.5	2.490	0.480	-0.290	0.570
2020/01/31 19:48:57.6	2.490	0.430	-0.290	0.530
2020/01/31 19:48:57.7	2.500	0.370	-0.280	0.490
2020/01/31 19:48:57.8	2.510	0.310	-0.280	0.440
2020/01/31 19:48:57.9	2.510	0.250	-0.270	0.390
2020/01/31 19:48:58.0	2.520	0.190	-0.260	0.340
2020/01/31 19:48:58.1	2.530	0.120	-0.250	0.280
2020/01/31 19:48:58.2	2.540	0.060	-0.240	0.220
2020/01/31 19:48:58.3	2.550	-0.010	-0.230	0.160
2020/01/31 19:48:58.4	2.560	-0.080	-0.220	0.090
2020/01/31 19:48:58.5	2.570	-0.150	-0.210	0.020
2020/01/31 19:48:58.6	2.580	-0.220	-0.200	-0.050
2020/01/31 19:48:58.7	2.590	-0.290	-0.190	-0.120
2020/01/31 19:48:58.8	2.600	-0.360	-0.170	-0.190
2020/01/31 19:48:58.9	2.600	-0.420	-0.160	-0.270
2020/01/31 19:48:59.0	2.610	-0.490	-0.140	-0.350
2020/01/31 19:48:59.1	2.620	-0.550	-0.130	-0.420
2020/01/31 19:48:59.2	2.620	-0.610	-0.110	-0.490
2020/01/31 19:48:59.3	2.630	-0.670	-0.090	-0.550
2020/01/31 19:48:59.4	2.630	-0.720	-0.070	-0.620
2020/01/31 19:48:59.5	2.640	-0.770	-0.060	-0.680
2020/01/31 19:48:59.6	2.640	-0.820	-0.040	-0.730
2020/01/31 19:48:59.7	2.640	-0.860	-0.020	-0.780
2020/01/31 19:48:59.8	2.650	-0.900	0.000	-0.830
2020/01/31 19:48:59.9	2.650	-0.930	0.020	-0.880
2020/01/31 19:49:00.0	2.650	-0.960	0.040	-0.910
2020/01/31 19:49:00.1	2.650	-0.980	0.050	-0.950
2020/01/31 19:49:00.2	2.650	-1.000	0.070	-0.970
2020/01/31 19:49:00.3	2.640	-1.010	0.080	-0.990
2020/01/31 19:49:00.4	2.640	-1.010	0.100	-1.010
2020/01/31 19:49:00.5	2.640	-1.010	0.110	-1.010
2020/01/31 19:49:00.6	2.630	-1.010	0.110	-1.020
2020/01/31 19:49:00.7	2.620	-1.000	0.120	-1.020
2020/01/31 19:49:00.8	2.620	-0.980	0.120	-1.010
2020/01/31 19:49:00.9	2.600	-0.960	0.120	-1.000
2020/01/31 19:49:01.0	2.590	-0.930	0.120	-0.980
2020/01/31 19:49:01.1	2.580	-0.890	0.120	-0.960
2020/01/31 19:49:01.2	2.570	-0.860	0.110	-0.940
2020/01/31 19:49:01.3	2.550	-0.810	0.100	-0.920
2020/01/31 19:49:01.4	2.540	-0.770	0.090	-0.890
2020/01/31 19:49:01.5	2.520	-0.720	0.080	-0.860
2020/01/31 19:49:01.6	2.510	-0.660	0.060	-0.830
2020/01/31 19:49:01.7	2.490	-0.610	0.040	-0.790
2020/01/31 19:49:01.8	2.470	-0.550	0.020	-0.760
2020/01/31 19:49:01.9	2.460	-0.490	-0.000	-0.720
2020/01/31 19:49:02.0	2.440	-0.420	-0.030	-0.680
2020/01/31 19:49:02.1	2.430	-0.360	-0.050	-0.640
2020/01/31 19:49:02.2	2.410	-0.290	-0.080	-0.590
2020/01/31 19:49:02.3	2.390	-0.220	-0.110	-0.550
2020/01/31 19:49:02.4	2.370	-0.160	-0.130	-0.500
2020/01/31 19:49:02.5	2.350	-0.090	-0.160	-0.450
2020/01/31 19:49:02.6	2.340	-0.030	-0.190	-0.400
2020/01/31 19:49:02.7	2.320	0.040	-0.220	-0.350
2020/01/31 19:49:02.8	2.300	0.100	-0.250	-0.290
2020/01/31 19:49:02.9	2.280	0.160	-0.280	-0.230
2020/01/31 19:49:03.0	2.260	0.220	-0.310	-0.170
2020/01/31 19:49:03.1	2.250	0.280	-0.340	-0.110
2020/01/31 19:49:03.2	2.230	0.330	-0.370	-0.050
2020/01/31 19:49:03.3	2.220	0.380	-0.390	0.010
2020/01/31 19:49:03.4	2.210	0.420	-0.420	0.080
2020/01/31 19:49:03.5	2.200	0.460	-0.440	0.140
2020/01/31 19:49:03.6	2.190	0.500	-0.470	0.200
2020/01/31 19:49:03.7	2.180	0.530	-0.490	0.260
2020/01/31 19:49:03.8	2.180	0.560	-0.510	0.310
2020/01/31 19:49:03.9	2.160	0.580	-0.540	0.370
2020/01/31 19:49:04.0	2.160	0.600	-0.560	0.420
2020/01/31 19:49:04.1	2.160	0.610	-0.580	0.460
2020/01/31 19:49:04.2	2.160	0.620	-0.600	0.500
2020/01/31 19:49:04.3	2.170	0.620	-0.620	0.540
2020/01/31 19:49:04.4	2.170	0.620	-0.640	0.570
2020/01/31 19:49:04.5	2.180	0.610	-0.660	0.590
2020/01/31 19:49:04.6	2.190	0.600	-0.680	0.600
2020/01/31 19:49:04.7	2.200	0.590	-0.700	0.610
2020/01/31 19:49:04.8	2.220	0.570	-0.720	0.610
2020/01/31 19:49:04.9	2.240	0.550	-0.740	0.610
2020/01/31 19:49:05.0	2.250	0.530	-0.760	0.600
2020/01/31 19:49:05.1	2.270	0.500	-0.780	0.580
2020/01/31 19:49:05.2	2.300	0.470	-0.800	0.560
2020/01/31 19:49:05.3	2.320	0.440	-0.810	0.540
2020/01/31 19:49:05.4	2.340	0.410	-0.830	0.510
2020/01/31 19:49:05.5	2.370	0.370	-0.850	0.480
2020/01/31 19:49:05.6	2.390	0.340	-0.870	0.440
2020/01/31 19:49:05.7	2.420	0.300	-0.880	0.410
2020/01/31 19:49:05.8	2.450	0.270	-0.900	0.370
2020/01/31 19:49:05.9	2.490	0.230	-0.910	0.330
2020/01/31 19:49:06.0	2.520	0.200	-0.920	0.290
2020/01/31 19:49:06.1	2.550	0.170	-0.930	0.250
2020/01/31 19:49:06.2	2.580	0.130	-0.940	0.210
2020/01/31 19:49:06.3	2.610	0.100	-0.940	0.160
2020/01/31 19:49:06.4	2.650	0.070	-0.950	0.120
2020/01/31 19:49:06.5	2.680	0.050	-0.950	0.080
2020/01/31 19:49:06.6	2.710	0.020	-0.950	0.030
2020/01/31 19:49:06.7	2.750	-0.000	-0.940	-0.010
2020/01/31 19:49:06.8	2.780	-0.020	-0.940	-0.060
2020/01/31 19:49:06.9	2.810	-0.040	-0.930	-0.100
2020/01/31 19:49:07.0	2.840	-0.060	-0.910	-0.150
2020/01/31 19:49:07.1	2.870	-0.070	-0.890	-0.190
2020/01/31 19:49:07.2	2.900	-0.080	-0.870	-0.230
2020/01/31 19:49:07.3	2.930	-0.090	-0.840	-0.270
2020/01/31 19:49:07.4	2.960	-0.100	-0.810	-0.310
2020/01/31 19:49:07.5	2.980	-0.110	-0.780	-0.340
2020/01/31 19:49:07.6	3.010	-0.110	-0.740	-0.370
2020/01/31 19:49:07.7	3.030	-0.120	-0.700	-0.400
2020/01/31 19:49:07.8	3.040	-0.120	-0.650	-0.430
2020/01/31 19:49:07.9	3.060	-0.120	-0.600	-0.450
2020/01/31 19:49:08.0	3.070	-0.120	-0.550	-0.460
2020/01/31 19:49:08.1	3.080	-0.110	-0.490	-0.480
2020/01/31 19:49:08.2	3.080	-0.110	-0.430	-0.480
2020/01/31 19:49:08.3	3.080	-0.110	-0.360	-0.490
2020/01/31 19:49:08.4	3.080	-0.110	-0.290	-0.490
2020/01/31 19:49:08.5	3.070	-0.100	-0.220	-0.480
2020/01/31 19:49:08.6	3.060	-0.100	-0.150	-0.470
2020/01/31 19:49:08.7	3.050	-0.100	-0.080	-0.460
2020/01/31 19:49:08.8	3.030	-0.090	-0.000	-0.440
2020/01/31 19:49:08.9	3.030	-0.090	0.070	-0.420
2020/01/31 19:49:09.0	3.010	-0.090	0.150	-0.400
2020/01/31 19:49:09.1	2.990	-0.090	0.220	-0.370
2020/01/31 19:49:09.2	2.970	-0.080	0.300	-0.340
2020/01/31 19:49:09.3	2.950	-0.080	0.370	-0.310
2020/01/31 19:49:09.4	2.930	-0.080	0.440	-0.280
2020/01/31 19:49:09.5	2.910	-0.080	0.500	-0.250
2020/01/31 19:49:09.6	2.890	-0.080	0.570	-0.220
2020/01/31 19:49:09.7	2.870	-0.080	0.630	-0.180
2020/01/31 19:49:09.8	2.850	-0.080	0.680	-0.150
2020/01/31 19:49:09.9	2.830	-0.080	0.730	-0.120
2020/01/31 19:49:10.0	2.810	-0.080	0.770	-0.080
2020/01/31 19:49:10.1	2.790	-0.080	0.810	-0.040
2020/01/31 19:49:10.2	2.770	-0.080	0.840	-0.010
2020/01/31 19:49:10.3	2.750	-0.080	0.870	0.030
2020/01/31 19:49:10.4	2.720	-0.070	0.890	0.070
2020/01/31 19:49:10.5	2.700	-0.070	0.910	0.100
2020/01/31 19:49:10.6	2.680	-0.070	0.920	0.140
2020/01/31 19:49:10.7	2.660	-0.070	0.920	0.170
2020/01/31 19:49:10.8	2.640	-0.060	0.910	0.200
2020/01/31 19:49:10.9	2.620	-0.060	0.900	0.240
2020/01/31 19:49:11.0	2.600	-0.050	0.890	0.270
2020/01/31 19:49:11.1	2.570	-0.050	0.860	0.290
2020/01/31 19:49:11.2	2.550	-0.040	0.830	0.320
2020/01/31 19:49:11.3	2.530	-0.030	0.800	0.340
2020/01/31 19:49:11.4	2.510	-0.030	0.760	0.360
2020/01/31 19:49:11.5	2.490	-0.020	0.710	0.380
2020/01/31 19:49:11.6	2.470	-0.010	0.660	0.400
2020/01/31 19:49:11.7	2.460	-0.000	0.610	0.410
2020/01/31 19:49:11.8	2.440	0.010	0.550	0.420
2020/01/31 19:49:11.9	2.420	0.020	0.480	0.420
2020/01/31 19:49:12.0	2.400	0.020	0.420	0.430
2020/01/31 19:49:12.1	2.380	0.030	0.350	0.440
2020/01/31 19:49:12.2	2.360	0.040	0.280	0.440
2020/01/31 19:49:12.3	2.350	0.050	0.210	0.440
2020/01/31 19:49:12.4	2.330	0.050	0.140	0.440
2020/01/31 19:49:12.5	2.310	0.060	0.060	0.440
2020/01/31 19:49:12.6	2.290	0.060	-0.010	0.430
2020/01/31 19:49:12.7	2.270	0.060	-0.080	0.430
2020/01/31 19:49:12.8	2.250	0.060	-0.160	0.420
2020/01/31 19:49:12.9	2.230	0.060	-0.230	0.410
2020/01/31 19:49:13.0	2.210	0.060	-0.300	0.390
2020/01/31 19:49:13.1	2.190	0.060	-0.370	0.380
2020/01/31 19:49:13.2	2.180	0.050	-0.440	0.360
2020/01/31 19:49:13.3	2.160	0.050	-0.510	0.340
2020/01/31 19:49:13.4	2.150	0.040	-0.570	0.310
2020/01/31 19:49:13.5	2.140	0.040	-0.630	0.290
2020/01/31 19:49:13.6	2.130	0.030	-0.690	0.260
2020/01/31 19:49:13.7	2.120	0.020	-0.750	0.230
2020/01/31 19:49:13.8	2.110	0.010	-0.810	0.200
2020/01/31 19:49:13.9	2.110	0.010	-0.860	0.160
2020/01/31 19:49:14.0	2.110	-0.000	-0.910	0.130
2020/01/31 19:49:14.1	2.110	-0.010	-0.960	0.100
2020/01/31 19:49:14.2	2.120	-0.010	-1.000	0.060
2020/01/31 19:49:14.3	2.130	-0.020	-1.040	0.030
2020/01/31 19:49:14.4	2.150	-0.020	-1.080	-0.010
2020/01/31 19:49:14.5	2.160	-0.020	-1.120	-0.050
2020/01/31 19:49:14.6	2.180	-0.020	-1.150	-0.080
2020/01/31 19:49:14.7	2.210	-0.020	-1.180	-0.120
2020/01/31 19:49:14.8	2.230	-0.010	-1.200	-0.160
2020/01/31 19:49:14.9	2.260	-0.000	-1.220	-0.190
2020/01/31 19:49:15.0	2.290	0.000	-1.240	-0.230
2020/01/31 19:49:15.1	2.320	0.020	-1.260	-0.260
2020/01/31 19:49:15.2	2.350	0.030	-1.270	-0.300
2020/01/31 19:49:15.3	2.390	0.050	-1.270	-0.330
2020/01/31 19:49:15.4	2.420	0.060	-1.270	-0.360
2020/01/31 19:49:15.5	2.460	0.080	-1.270	-0.390
2020/01/31 19:49:15.6	2.500	0.110	-1.270	-0.410
2020/01/31 19:49:15.7	2.530	0.130	-1.250	-0.430
2020/01/31 19:49:15.8	2.570	0.150	-1.240	-0.460
2020/01/31 19:49:15.9	2.590	0.180	-1.220	-0.470
2020/01/31 19:49:16.0	2.630	0.210	-1.200	-0.490
2020/01/31 19:49:16.1	2.660	0.230	-1.170	-0.500
2020/01/31 19:49:16.2	2.700	0.260	-1.140	-0.510
2020/01/31 19:49:16.3	2.730	0.280	-1.110	-0.520
2020/01/31 19:49:16.4	2.760	0.310	-1.070	-0.530
2020/01/31 19:49:16.5	2.790	0.330	-1.030	-0.530
2020/01/31 19:49:16.6	2.820	0.350	-0.990	-0.530
2020/01/31 19:49:16.7	2.850	0.370	-0.940	-0.530
2020/01/31 19:49:16.8	2.870	0.390	-0.890	-0.530
2020/01/31 19:49:16.9	2.890	0.400	-0.840	-0.520
2020/01/31 19:49:17.0	2.910	0.410	-0.780	-0.510
2020/01/31 19:49:17.1	2.930	0.420	-0.720	-0.500
2020/01/31 19:49:17.2	2.940	0.420	-0.660	-0.490
2020/01/31 19:49:17.3	2.950	0.420	-0.600	-0.470
2020/01/31 19:49:17.4	2.960	0.410	-0.540	-0.450
2020/01/31 19:49:17.5	2.970	0.400	-0.470	-0.440
2020/01/31 19:49:17.6	2.970	0.390	-0.400	-0.420
2020/01/31 19:49:17.7	2.980	0.370	-0.330	-0.400
2020/01/31 19:49:17.8	2.980	0.340	-0.270	-0.380
2020/01/31 19:49:17.9	2.990	0.320	-0.200	-0.350
2020/01/31 19:49:18.0	2.990	0.280	-0.130	-0.330
2020/01/31 19:49:18.1	2.990	0.250	-0.070	-0.310
2020/01/31 19:49:18.2	2.980	0.210	-0.010	-0.290
2020/01/31 19:49:18.3	2.980	0.170	0.050	-0.270
2020/01/31 19:49:18.4	2.970	0.120	0.110	-0.250
2020/01/31 19:49:18.5	2.960	0.080	0.170	-0.240
2020/01/31 19:49:18.6	2.960	0.030	0.220	-0.220
2020/01/31 19:49:18.7	2.950	-0.020	0.260	-0.210
2020/01/31 19:49:18.8	2.940	-0.080	0.300	-0.190
2020/01/31 19:49:18.9	2.940	-0.130	0.340	-0.180
2020/01/31 19:49:19.0	2.930	-0.180	0.380	-0.180
2020/01/31 19:49:19.1	2.930	-0.240	0.400	-0.170
2020/01/31 19:49:19.2	2.930	-0.290	0.430	-0.160
2020/01/31 19:49:19.3	2.930	-0.340	0.450	-0.160
2020/01/31 19:49:19.4	2.920	-0.390	0.460	-0.160
2020/01/31 19:49:19.5	2.930	-0.440	0.480	-0.170
2020/01/31 19:49:19.6	2.930	-0.480	0.480	-0.170
2020/01/31 19:49:19.7	2.930	-0.520	0.490	-0.180
2020/01/31 19:49:19.8	2.930	-0.560	0.490	-0.190
2020/01/31 19:49:19.9	2.950	-0.600	0.490	-0.200
2020/01/31 19:49:20.0	2.950	-0.630	0.480	-0.210
2020/01/31 19:49:20.1	2.960	-0.650	0.480	-0.220
2020/01/31 19:49:20.2	2.960	-0.680	0.470	-0.230
2020/01/31 19:49:20.3	2.970	-0.690	0.460	-0.250
2020/01/31 19:49:20.4	2.980	-0.710	0.450	-0.260
2020/01/31 19:49:20.5	2.980	-0.720	0.430	-0.270
2020/01/31 19:49:20.6	2.980	-0.720	0.420	-0.280
2020/01/31 19:49:20.7	2.980	-0.720	0.410	-0.280
2020/01/31 19:49:20.8	2.980	-0.720	0.400	-0.290
2020/01/31 19:49:20.9	2.980	-0.720	0.380	-0.290
2020/01/31 19:49:21.0	2.980	-0.710	0.370	-0.290
2020/01/31 19:49:21.1	2.970	-0.690	0.360	-0.280
2020/01/31 19:49:21.2	2.960	-0.680	0.340	-0.270
2020/01/31 19:49:21.3	2.950	-0.660	0.330	-0.270
2020/01/31 19:49:21.4	2.940	-0.640	0.320	-0.250
2020/01/31 19:49:21.5	2.920	-0.610	0.300	-0.240
2020/01/31 19:49:21.6	2.910	-0.590	0.280	-0.220
2020/01/31 19:49:21.7	2.890	-0.560	0.270	-0.210
2020/01/31 19:49:21.8	2.870	-0.530	0.250	-0.190
2020/01/31 19:49:21.9	2.840	-0.500	0.230	-0.170
2020/01/31 19:49:22.0	2.820	-0.460	0.200	-0.150
2020/01/31 19:49:22.1	2.800	-0.430	0.180	-0.130
2020/01/31 19:49:22.2	2.780	-0.390	0.150	-0.110
2020/01/31 19:49:22.3	2.760	-0.360	0.120	-0.080
2020/01/31 19:49:22.4	2.740	-0.320	0.090	-0.060
2020/01/31 19:49:22.5	2.720	-0.280	0.050	-0.040
2020/01/31 19:49:22.6	2.700	-0.240	0.010	-0.020
2020/01/31 19:49:22.7	2.680	-0.200	-0.040	0.000
2020/01/31 19:49:22.8	2.670	-0.150	-0.080	0.020
2020/01/31 19:49:22.9	2.660	-0.110	-0.130	0.040
2020/01/31 19:49:23.0	2.640	-0.070	-0.180	0.060
2020/01/31 19:49:23.1	2.630	-0.020	-0.240	0.080
2020/01/31 19:49:23.2	2.620	0.020	-0.300	0.100
2020/01/31 19:49:23.3	2.610	0.070	-0.360	0.120
2020/01/31 19:49:23.4	2.600	0.110	-0.420	0.140
2020/01/31 19:49:23.5	2.590	0.160	-0.480	0.160
2020/01/31 19:49:23.6	2.580	0.210	-0.540	0.180
2020/01/31 19:49:23.7	2.570	0.250	-0.600	0.200
2020/01/31 19:49:23.8	2.560	0.300	-0.660	0.220
2020/01/31 19:49:23.9	2.550	0.340	-0.720	0.240
2020/01/31 19:49:24.0	2.540	0.380	-0.770	0.260
2020/01/31 19:49:24.1	2.530	0.420	-0.830	0.290
2020/01/31 19:49:24.2	2.530	0.460	-0.870	0.310
2020/01/31 19:49:24.3	2.520	0.500	-0.920	0.330
2020/01/31 19:49:24.4	2.510	0.540	-0.960	0.350
2020/01/31 19:49:24.5	2.500	0.570	-0.990	0.380
2020/01/31 19:49:24.6	2.490	0.600	-1.020	0.400
2020/01/31 19:49:24.7	2.480	0.630	-1.040	0.420
2020/01/31 19:49:24.8	2.470	0.660	-1.050	0.430
2020/01/31 19:49:24.9	2.460	0.680	-1.060	0.450
2020/01/31 19:49:25.0	2.450	0.700	-1.060	0.470
2020/01/31 19:49:25.1	2.440	0.720	-1.060	0.480
2020/01/31 19:49:25.2	2.430	0.730	-1.050	0.490
2020/01/31 19:49:25.3	2.420	0.740	-1.030	0.500
2020/01/31 19:49:25.4	2.410	0.740	-1.000	0.510
2020/01/31 19:49:25.5	2.410	0.750	-0.980	0.510
2020/01/31 19:49:25.6	2.410	0.740	-0.940	0.510
2020/01/31 19:49:25.7	2.400	0.740	-0.900	0.510
2020/01/31 19:49:25.8	2.400	0.730	-0.860	0.500
2020/01/31 19:49:25.9	2.410	0.720	-0.810	0.490
2020/01/31 19:49:26.0	2.410	0.700	-0.760	0.480
2020/01/31 19:49:26.1	2.420	0.680	-0.710	0.460
2020/01/31 19:49:26.2	2.430	0.650	-0.650	0.440
2020/01/31 19:49:26.3	2.430	0.630	-0.590	0.410
2020/01/31 19:49:26.4	2.440	0.600	-0.540	0.390
2020/01/31 19:49:26.5	2.460	0.560	-0.480	0.360
2020/01/31 19:49:26.6	2.470	0.520	-0.410	0.320
2020/01/31 19:49:26.7	2.480	0.480	-0.350	0.290
2020/01/31 19:49:26.8	2.500	0.440	-0.290	0.250
2020/01/31 19:49:26.9	2.510	0.400	-0.240	0.220
2020/01/31 19:49:27.0	2.520	0.350	-0.180	0.180
2020/01/31 19:49:27.1	2.540	0.300	-0.120	0.140
2020/01/31 19:49:27.2	2.560	0.250	-0.070	0.090
2020/01/31 19:49:27.3	2.580	0.200	-0.020	0.050
2020/01/31 19:49:27.4	2.600	0.150	0.020	0.000
2020/01/31 19:49:27.5	2.620	0.100	0.070	-0.040
2020/01/31 19:49:27.6	2.640	0.050	0.110	-0.090
2020/01/31 19:49:27.7	2.670	-0.010	0.140	-0.140
2020/01/31 19:49:27.8	2.690	-0.060	0.170	-0.180
2020/01/31 19:49:27.9	2.730	-0.110	0.200	-0.240
2020/01/31 19:49:28.0	2.760	-0.160	0.220	-0.280
2020/01/31 19:49:28.1	2.790	-0.210	0.230	-0.330
2020/01/31 19:49:28.2	2.820	-0.250	0.250	-0.380
2020/01/31 19:49:28.3	2.840	-0.300	0.250	-0.430
2020/01/31 19:49:28.4	2.870	-0.340	0.260	-0.470
2020/01/31 19:49:28.5	2.900	-0.380	0.250	-0.520
2020/01/31 19:49:28.6	2.930	-0.420	0.250	-0.560
2020/01/31 19:49:28.7	2.960	-0.450	0.240	-0.600
2020/01/31 19:49:28.8	2.980	-0.480	0.220	-0.650
2020/01/31 19:49:28.9	3.000	-0.510	0.210	-0.690
2020/01/31 19:49:29.0	3.030	-0.540	0.190	-0.730
2020/01/31 19:49:29.1	3.050	-0.560	0.160	-0.760
2020/01/31 19:49:29.2	3.070	-0.580	0.140	-0.800
2020/01/31 19:49:29.3	3.090	-0.600	0.110	-0.830
2020/01/31 19:49:29.4	3.110	-0.620	0.080	-0.860
2020/01/31 19:49:29.5	3.120	-0.630	0.050	-0.880
2020/01/31 19:49:29.6	3.130	-0.640	0.010	-0.900
2020/01/31 19:49:29.7	3.140	-0.640	-0.020	-0.920
2020/01/31 19:49:29.8	3.150	-0.640	-0.050	-0.930
2020/01/31 19:49:29.9	3.150	-0.640	-0.080	-0.940
2020/01/31 19:49:30.0	3.150	-0.640	-0.120	-0.940
2020/01/31 19:49:30.1	3.140	-0.640	-0.150	-0.940
2020/01/31 19:49:30.2	3.140	-0.630	-0.180	-0.930
2020/01/31 19:49:30.3	3.130	-0.610	-0.210	-0.920
2020/01/31 19:49:30.4	3.120	-0.600	-0.240	-0.900
2020/01/31 19:49:30.5	3.100	-0.580	-0.270	-0.880
2020/01/31 19:49:30.6	3.090	-0.560	-0.300	-0.860
2020/01/31 19:49:30.7	3.070	-0.540	-0.330	-0.830
2020/01/31 19:49:30.8	3.050	-0.520	-0.350	-0.800
2020/01/31 19:49:30.9	3.030	-0.490	-0.380	-0.770
2020/01/31 19:49:31.0	3.010	-0.460	-0.410	-0.730
2020/01/31 19:49:31.1	2.990	-0.430	-0.430	-0.700
2020/01/31 19:49:31.2	2.970	-0.400	-0.460	-0.660
2020/01/31 19:49:31.3	2.960	-0.360	-0.480	-0.620
2020/01/31 19:49:31.4	2.940	-0.330	-0.510	-0.590
2020/01/31 19:49:31.5	2.920	-0.290	-0.540	-0.550
2020/01/31 19:49:31.6	2.910	-0.250	-0.560	-0.510
2020/01/31 19:49:31.7	2.890	-0.200	-0.590	-0.480
2020/01/31 19:49:31.8	2.880	-0.160	-0.610	-0.440
2020/01/31 19:49:31.9	2.860	-0.110	-0.640	-0.410
2020/01/31 19:49:32.0	2.850	-0.070	-0.660	-0.380
2020/01/31 19:49:32.1	2.850	-0.020	-0.690	-0.340
2020/01/31 19:49:32.2	2.840	0.030	-0.710	-0.310
2020/01/31 19:49:32.3	2.840	0.080	-0.720	-0.280
2020/01/31 19:49:32.4	2.840	0.130	-0.740	-0.250
2020/01/31 19:49:32.5	2.850	0.190	-0.760	-0.220
2020/01/31 19:49:32.6	2.850	0.240	-0.770	-0.190
2020/01/31 19:49:32.7	2.860	0.290	-0.770	-0.160
2020/01/31 19:49:32.8	2.870	0.340	-0.780	-0.140
2020/01/31 19:49:32.9	2.880	0.390	-0.780	-0.110
2020/01/31 19:49:33.0	2.900	0.440	-0.770	-0.080
2020/01/31 19:49:33.1	2.910	0.480	-0.760	-0.060
2020/01/31 19:49:33.2	2.930	0.530	-0.740	-0.030
2020/01/31 19:49:33.3	2.950	0.570	-0.720	-0.000
2020/01/31 19:49:33.4	2.970	0.610	-0.690	0.030
2020/01/31 19:49:33.5	2.990	0.650	-0.660	0.060
2020/01/31 19:49:33.6	3.010	0.680	-0.620	0.090
2020/01/31 19:49:33.7	3.030	0.710	-0.580	0.120
2020/01/31 19:49:33.8	3.050	0.730	-0.520	0.150
2020/01/31 19:49:33.9	3.060	0.750	-0.470	0.190
2020/01/31 19:49:34.0	3.080	0.760	-0.410	0.230
2020/01/31 19:49:34.1	3.090	0.770	-0.340	0.270
2020/01/31 19:49:34.2	3.100	0.770	-0.270	0.300
2020/01/31 19:49:34.3	3.110	0.760	-0.190	0.340
2020/01/31 19:49:34.4	3.120	0.750	-0.110	0.380
2020/01/31 19:49:34.5	3.120	0.730	-0.030	0.410
2020/01/31 19:49:34.6	3.120	0.710	0.060	0.450
2020/01/31 19:49:34.7	3.120	0.670	0.140	0.480
2020/01/31 19:49:34.8	3.110	0.640	0.220	0.510
2020/01/31 19:49:34.9	3.110	0.590	0.310	0.540
2020/01/31 19:49:35.0	3.100	0.540	0.390	0.570
2020/01/31 19:49:35.1	3.090	0.490	0.460	0.590
2020/01/31 19:49:35.2	3.070	0.430	0.540	0.610
2020/01/31 19:49:35.3	3.050	0.360	0.610	0.620
2020/01/31 19:49:35.4	3.030	0.290	0.670	0.640
2020/01/31 19:49:35.5	3.010	0.220	0.730	0.640
2020/01/31 19:49:35.6	2.980	0.140	0.790	0.650
2020/01/31 19:49:35.7	2.950	0.070	0.830	0.650
2020/01/31 19:49:35.8	2.920	-0.010	0.870	0.640
2020/01/31 19:49:35.9	2.900	-0.090	0.900	0.620
2020/01/31 19:49:36.0	2.860	-0.180	0.920	0.600
2020/01/31 19:49:36.1	2.830	-0.260	0.930	0.580
2020/01/31 19:49:36.2	2.800	-0.330	0.930	0.550
2020/01/31 19:49:36.3	2.770	-0.410	0.920	0.510
2020/01/31 19:49:36.4	2.740	-0.490	0.900	0.470
2020/01/31 19:49:36.5	2.710	-0.560	0.870	0.420
2020/01/31 19:49:36.6	2.680	-0.620	0.830	0.360
2020/01/31 19:49:36.7	2.660	-0.690	0.780	0.300
2020/01/31 19:49:36.8	2.630	-0.740	0.730	0.240
2020/01/31 19:49:36.9	2.620	-0.800	0.660	0.170
2020/01/31 19:49:37.0	2.600	-0.840	0.590	0.100
2020/01/31 19:49:37.1	2.580	-0.880	0.500	0.030
2020/01/31 19:49:37.2	2.570	-0.910	0.410	-0.050
2020/01/31 19:49:37.3	2.560	-0.930	0.310	-0.120
2020/01/31 19:49:37.4	2.550	-0.950	0.200	-0.200
2020/01/31 19:49:37.5	2.550	-0.960	0.090	-0.290
2020/01/31 19:49:37.6	2.550	-0.960	-0.020	-0.370
2020/01/31 19:49:37.7	2.560	-0.950	-0.140	-0.450
2020/01/31 19:49:37.8	2.570	-0.930	-0.270	-0.530
2020/01/31 19:49:37.9	2.570	-0.910	-0.390	-0.620
2020/01/31 19:49:38.0	2.590	-0.870	-0.510	-0.700
2020/01/31 19:49:38.1	2.600	-0.830	-0.630	-0.770
2020/01/31 19:49:38.2	2.620	-0.790	-0.750	-0.840
2020/01/31 19:49:38.3	2.640	-0.740	-0.870	-0.910
2020/01/31 19:49:38.4	2.660	-0.680	-0.980	-0.970
2020/01/31 19:49:38.5	2.680	-0.620	-1.080	-1.030
2020/01/31 19:49:38.6	2.700	-0.550	-1.180	-1.080
2020/01/31 19:49:38.7	2.720	-0.480	-1.270	-1.130
2020/01/31 19:49:38.8	2.740	-0.410	-1.350	-1.180
2020/01/31 19:49:38.9	2.750	-0.330	-1.430	-1.220
2020/01/31 19:49:39.0	2.770	-0.260	-1.490	-1.250
2020/01/31 19:49:39.1	2.800	-0.180	-1.550	-1.280
2020/01/31 19:49:39.2	2.820	-0.100	-1.600	-1.310
2020/01/31 19:49:39.3	2.840	-0.020	-1.640	-1.320
2020/01/31 19:49:39.4	2.870	0.060	-1.670	-1.340
2020/01/31 19:49:39.5	2.890	0.140	-1.690	-1.340
2020/01/31 19:49:39.6	2.910	0.210	-1.700	-1.340
2020/01/31 19:49:39.7	2.930	0.280	-1.700	-1.340
2020/01/31 19:49:39.8	2.950	0.350	-1.690	-1.330
2020/01/31 19:49:39.9	2.970	0.420	-1.670	-1.320
2020/01/31 19:49:40.0	2.990	0.480	-1.650	-1.300
2020/01/31 19:49:40.1	3.010	0.540	-1.610	-1.280
2020/01/31 19:49:40.2	3.030	0.590	-1.570	-1.250
2020/01/31 19:49:40.3	3.050	0.640	-1.520	-1.220
2020/01/31 19:49:40.4	3.060	0.680	-1.460	-1.190
2020/01/31 19:49:40.5	3.070	0.710	-1.400	-1.150
2020/01/31 19:49:40.6	3.090	0.740	-1.330	-1.110
2020/01/31 19:49:40.7	3.100	0.770	-1.250	-1.070
2020/01/31 19:49:40.8	3.110	0.790	-1.170	-1.030
2020/01/31 19:49:40.9	3.120	0.800	-1.090	-0.970
2020/01/31 19:49:41.0	3.120	0.810	-1.000	-0.920
2020/01/31 19:49:41.1	3.130	0.810	-0.910	-0.870
2020/01/31 19:49:41.2	3.140	0.810	-0.810	-0.820
2020/01/31 19:49:41.3	3.140	0.800	-0.710	-0.760
2020/01/31 19:49:41.4	3.150	0.780	-0.620	-0.710
2020/01/31 19:49:41.5	3.150	0.770	-0.520	-0.650
2020/01/31 19:49:41.6	3.150	0.740	-0.420	-0.590
2020/01/31 19:49:41.7	3.150	0.720	-0.320	-0.530
2020/01/31 19:49:41.8	3.150	0.690	-0.220	-0.470
2020/01/31 19:49:41.9	3.160	0.650	-0.130	-0.420
2020/01/31 19:49:42.0	3.160	0.620	-0.030	-0.360
2020/01/31 19:49:42.1	3.150	0.580	0.060	-0.300
2020/01/31 19:49:42.2	3.150	0.530	0.150	-0.240
2020/01/31 19:49:42.3	3.140	0.490	0.230	-0.180
2020/01/31 19:49:42.4	3.140	0.440	0.310	-0.130
2020/01/31 19:49:42.5	3.130	0.400	0.390	-0.070
2020/01/31 19:49:42.6	3.120	0.350	0.460	-0.020
2020/01/31 19:49:42.7	3.110	0.300	0.520	0.030
2020/01/31 19:49:42.8	3.110	0.250	0.580	0.080
2020/01/31 19:49:42.9	3.110	0.200	0.630	0.130
2020/01/31 19:49:43.0	3.110	0.150	0.680	0.180
2020/01/31 19:49:43.1	3.100	0.100	0.720	0.220
2020/01/31 19:49:43.2	3.100	0.060	0.750	0.260
2020/01/31 19:49:43.3	3.100	0.010	0.770	0.290
2020/01/31 19:49:43.4	3.100	-0.030	0.790	0.320
2020/01/31 19:49:43.5	3.100	-0.070	0.800	0.340
2020/01/31 19:49:43.6	3.100	-0.110	0.800	0.360
2020/01/31 19:49:43.7	3.110	-0.150	0.800	0.380
2020/01/31 19:49:43.8	3.110	-0.190	0.780	0.390
2020/01/31 19:49:43.9	3.130	-0.220	0.770	0.390
2020/01/31 19:49:44.0	3.140	-0.250	0.740	0.400
2020/01/31 19:49:44.1	3.150	-0.280	0.710	0.400
2020/01/31 19:49:44.2	3.160	-0.310	0.680	0.390
2020/01/31 19:49:44.3	3.170	-0.330	0.640	0.390
2020/01/31 19:49:44.4	3.180	-0.350	0.600	0.380
2020/01/31 19:49:44.5	3.190	-0.370	0.560	0.370
2020/01/31 19:49:44.6	3.200	-0.390	0.510	0.360
2020/01/31 19:49:44.7	3.210	-0.410	0.470	0.340
2020/01/31 19:49:44.8	3.220	-0.420	0.420	0.330
2020/01/31 19:49:44.9	3.230	-0.440	0.370	0.310
2020/01/31 19:49:45.0	3.230	-0.450	0.330	0.300
2020/01/31 19:49:45.1	3.230	-0.460	0.280	0.280
2020/01/31 19:49:45.2	3.230	-0.470	0.230	0.260
2020/01/31 19:49:45.3	3.230	-0.470	0.190	0.240
2020/01/31 19:49:45.4	3.230	-0.480	0.140	0.230
2020/01/31 19:49:45.5	3.220	-0.490	0.100	0.210
2020/01/31 19:49:45.6	3.210	-0.490	0.060	0.190
2020/01/31 19:49:45.7	3.200	-0.490	0.020	0.180
2020/01/31 19:49:45.8	3.190	-0.490	-0.010	0.160
2020/01/31 19:49:45.9	3.170	-0.500	-0.050	0.140
2020/01/31 19:49:46.0	3.150	-0.500	-0.080	0.130
2020/01/31 19:49:46.1	3.130	-0.500	-0.100	0.110
2020/01/31 19:49:46.2	3.120	-0.500	-0.130	0.100
2020/01/31 19:49:46.3	3.090	-0.500	-0.150	0.100
2020/01/31 19:49:46.4	3.070	-0.500	-0.180	0.090
2020/01/31 19:49:46.5	3.050	-0.490	-0.200	0.080
2020/01/31 19:49:46.6	3.030	-0.490	-0.220	0.070
2020/01/31 19:49:46.7	3.000	-0.490	-0.240	0.070
2020/01/31 19:49:46.8	2.980	-0.480	-0.260	0.060
2020/01/31 19:49:46.9	2.940	-0.480	-0.270	0.050
2020/01/31 19:49:47.0	2.920	-0.470	-0.290	0.050
2020/01/31 19:49:47.1	2.900	-0.470	-0.310	0.040
2020/01/31 19:49:47.2	2.870	-0.460	-0.330	0.030
2020/01/31 19:49:47.3	2.850	-0.450	-0.350	0.020
2020/01/31 19:49:47.4	2.830	-0.440	-0.370	0.010
2020/01/31 19:49:47.5	2.810	-0.440	-0.380	0.000
2020/01/31 19:49:47.6	2.790	-0.430	-0.400	-0.010
2020/01/31 19:49:47.7	2.770	-0.410	-0.420	-0.020
2020/01/31 19:49:47.8	2.750	-0.400	-0.440	-0.030
2020/01/31 19:49:47.9	2.730	-0.390	-0.460	-0.050
2020/01/31 19:49:48.0	2.720	-0.370	-0.480	-0.060
2020/01/31 19:49:48.1	2.700	-0.360	-0.500	-0.070
2020/01/31 19:49:48.2	2.690	-0.340	-0.520	-0.080
2020/01/31 19:49:48.3	2.670	-0.320	-0.540	-0.100
2020/01/31 19:49:48.4	2.660	-0.300	-0.570	-0.110
2020/01/31 19:49:48.5	2.650	-0.280	-0.590	-0.120
2020/01/31 19:49:48.6	2.640	-0.250	-0.610	-0.130
2020/01/31 19:49:48.7	2.640	-0.220	-0.630	-0.140
2020/01/31 19:49:48.8	2.630	-0.190	-0.650	-0.150
2020/01/31 19:49:48.9	2.630	-0.160	-0.670	-0.160
2020/01/31 19:49:49.0	2.620	-0.130	-0.690	-0.160
2020/01/31 19:49:49.1	2.620	-0.090	-0.700	-0.170
2020/01/31 19:49:49.2	2.620	-0.050	-0.720	-0.170
2020/01/31 19:49:49.3	2.620	-0.010	-0.740	-0.170
2020/01/31 19:49:49.4	2.630	0.030	-0.750	-0.170
2020/01/31 19:49:49.5	2.630	0.080	-0.770	-0.170
2020/01/31 19:49:49.6	2.640	0.130	-0.780	-0.160
2020/01/31 19:49:49.7	2.640	0.180	-0.790	-0.150
2020/01/31 19:49:49.8	2.650	0.230	-0.800	-0.140
2020/01/31 19:49:49.9	2.670	0.280	-0.810	-0.130
2020/01/31 19:49:50.0	2.680	0.340	-0.820	-0.110
2020/01/31 19:49:50.1	2.680	0.390	-0.830	-0.090
2020/01/31 19:49:50.2	2.690	0.450	-0.830	-0.070
2020/01/31 19:49:50.3	2.700	0.500	-0.830	-0.050
2020/01/31 19:49:50.4	2.710	0.560	-0.830	-0.030
2020/01/31 19:49:50.5	2.720	0.610	-0.830	-0.000
2020/01/31 19:49:50.6	2.730	0.660	-0.820	0.030
2020/01/31 19:49:50.7	2.740	0.710	-0.810	0.050
2020/01/31 19:49:50.8	2.750	0.760	-0.800	0.080
2020/01/31 19:49:50.9	2.760	0.810	-0.790	0.110
2020/01/31 19:49:51.0	2.770	0.850	-0.780	0.140
2020/01/31 19:49:51.1	2.780	0.890	-0.760	0.170
2020/01/31 19:49:51.2	2.790	0.930	-0.740	0.200
2020/01/31 19:49:51.3	2.800	0.960	-0.710	0.230
2020/01/31 19:49:51.4	2.810	0.980	-0.690	0.260
2020/01/31 19:49:51.5	2.820	1.000	-0.660	0.290
2020/01/31 19:49:51.6	2.830	1.020	-0.630	0.310
2020/01/31 19:49:51.7	2.840	1.030	-0.590	0.340
2020/01/31 19:49:51.8	2.850	1.030	-0.560	0.360
2020/01/31 19:49:51.9	2.860	1.030	-0.520	0.390
2020/01/31 19:49:52.0	2.860	1.020	-0.480	0.410
2020/01/31 19:49:52.1	2.870	1.000	-0.440	0.430
2020/01/31 19:49:52.2	2.870	0.980	-0.400	0.450
2020/01/31 19:49:52.3	2.880	0.950	-0.350	0.470
2020/01/31 19:49:52.4	2.880	0.920	-0.300	0.480
2020/01/31 19:49:52.5	2.880	0.880	-0.260	0.490
2020/01/31 19:49:52.6	2.880	0.830	-0.210	0.500
2020/01/31 19:49:52.7	2.880	0.780	-0.170	0.510
2020/01/31 19:49:52.8	2.890	0.730	-0.120	0.520
2020/01/31 19:49:52.9	2.900	0.670	-0.080	0.520
2020/01/31 19:49:53.0	2.900	0.600	-0.030	0.520
2020/01/31 19:49:53.1	2.900	0.540	0.010	0.520
2020/01/31 19:49:53.2	2.900	0.470	0.050	0.510
2020/01/31 19:49:53.3	2.900	0.390	0.080	0.500
2020/01/31 19:49:53.4	2.910	0.320	0.120	0.490
2020/01/31 19:49:53.5	2.910	0.240	0.150	0.480
2020/01/31 19:49:53.6	2.920	0.170	0.180	0.460
2020/01/31 19:49:53.7	2.930	0.090	0.200	0.440
2020/01/31 19:49:53.8	2.940	0.020	0.220	0.420
2020/01/31 19:49:53.9	2.960	-0.060	0.230	0.390
2020/01/31 19:49:54.0	2.970	-0.130	0.240	0.360
2020/01/31 19:49:54.1	2.990	-0.200	0.240	0.330
2020/01/31 19:49:54.2	3.000	-0.260	0.240	0.290
2020/01/31 19:49:54.3	3.020	-0.330	0.230	0.250
2020/01/31 19:49:54.4	3.040	-0.390	0.220	0.210
2020/01/31 19:49:54.5	3.070	-0.440	0.210	0.170
2020/01/31 19:49:54.6	3.090	-0.490	0.180	0.120
2020/01/31 19:49:54.7	3.120	-0.540	0.160	0.070
2020/01/31 19:49:54.8	3.140	-0.580	0.130	0.020
2020/01/31 19:49:54.9	3.170	-0.610	0.090	-0.040
2020/01/31 19:49:55.0	3.190	-0.640	0.060	-0.090
2020/01/31 19:49:55.1	3.220	-0.670	0.020	-0.140
2020/01/31 19:49:55.2	3.250	-0.690	-0.020	-0.200
2020/01/31 19:49:55.3	3.270	-0.700	-0.060	-0.250
2020/01/31 19:49:55.4	3.300	-0.710	-0.100	-0.300
2020/01/31 19:49:55.5	3.320	-0.720	-0.150	-0.350
2020/01/31 19:49:55.6	3.350	-0.720	-0.190	-0.390
2020/01/31 19:49:55.7	3.370	-0.710	-0.230	-0.440
2020/01/31 19:49:55.8	3.390	-0.710	-0.260	-0.480
2020/01/31 19:49:55.9	3.400	-0.690	-0.300	-0.520
2020/01/31 19:49:56.0	3.420	-0.680	-0.330	-0.560
2020/01/31 19:49:56.1	3.440	-0.660	-0.350	-0.590
2020/01/31 19:49:56.2	3.450	-0.640	-0.380	-0.630
2020/01/31 19:49:56.3	3.460	-0.620	-0.390	-0.650
2020/01/31 19:49:56.4	3.470	-0.590	-0.410	-0.680
2020/01/31 19:49:56.5	3.480	-0.570	-0.410	-0.700
2020/01/31 19:49:56.6	3.490	-0.540	-0.420	-0.720
2020/01/31 19:49:56.7	3.490	-0.510	-0.410	-0.730
2020/01/31 19:49:56.8	3.490	-0.490	-0.400	-0.740
2020/01/31 19:49:56.9	3.490	-0.460	-0.390	-0.750
2020/01/31 19:49:57.0	3.480	-0.430	-0.370	-0.740
2020/01/31 19:49:57.1	3.470	-0.400	-0.340	-0.740
2020/01/31 19:49:57.2	3.460	-0.380	-0.310	-0.720
2020/01/31 19:49:57.3	3.450	-0.350	-0.270	-0.700
2020/01/31 19:49:57.4	3.430	-0.330	-0.230	-0.670
2020/01/31 19:49:57.5	3.410	-0.310	-0.180	-0.640
2020/01/31 19:49:57.6	3.380	-0.290	-0.130	-0.600
2020/01/31 19:49:57.7	3.350	-0.270	-0.070	-0.560
2020/01/31 19:49:57.8	3.320	-0.250	-0.010	-0.510
2020/01/31 19:49:57.9	3.270	-0.240	0.040	-0.460
2020/01/31 19:49:58.0	3.230	-0.230	0.110	-0.410
2020/01/31 19:49:58.1	3.180	-0.220	0.170	-0.350
2020/01/31 19:49:58.2	3.130	-0.210	0.230	-0.290
2020/01/31 19:49:58.3	3.080	-0.210	0.300	-0.230
2020/01/31 19:49:58.4	3.030	-0.210	0.360	-0.170
2020/01/31 19:49:58.5	2.970	-0.210	0.410	-0.110
2020/01/31 19:49:58.6	2.910	-0.210	0.470	-0.050
2020/01/31 19:49:58.7	2.850	-0.210	0.520	0.010
2020/01/31 19:49:58.8	2.790	-0.210	0.570	0.070
2020/01/31 19:49:58.9	2.720	-0.210	0.610	0.140
2020/01/31 19:49:59.0	2.660	-0.210	0.650	0.190
2020/01/31 19:49:59.1	2.600	-0.220	0.680	0.250
2020/01/31 19:49:59.2	2.530	-0.220	0.700	0.300
2020/01/31 19:49:59.3	2.470	-0.220	0.720	0.350
2020/01/31 19:49:59.4	2.410	-0.220	0.730	0.400
2020/01/31 19:49:59.5	2.350	-0.210	0.730	0.440
2020/01/31 19:49:59.6	2.290	-0.210	0.720	0.480
2020/01/31 19:49:59.7	2.230	-0.200	0.700	0.520
2020/01/31 19:49:59.8	2.180	-0.190	0.680	0.550
2020/01/31 19:49:59.9	2.130	-0.180	0.640	0.580
2020/01/31 19:50:00.0	2.080	-0.170	0.600	0.600
2020/01/31 19:50:00.1	2.040	-0.150	0.550	0.620
2020/01/31 19:50:00.2	2.000	-0.130	0.490	0.640
2020/01/31 19:50:00.3	1.960	-0.110	0.420	0.650
2020/01/31 19:50:00.4	1.930	-0.080	0.340	0.650
2020/01/31 19:50:00.5	1.910	-0.050	0.260	0.650
2020/01/31 19:50:00.6	1.880	-0.020	0.160	0.650
2020/01/31 19:50:00.7	1.870	0.020	0.060	0.640
2020/01/31 19:50:00.8	1.860	0.060	-0.040	0.620
2020/01/31 19:50:00.9	1.840	0.100	-0.140	0.610
2020/01/31 19:50:01.0	1.840	0.140	-0.260	0.580
2020/01/31 19:50:01.1	1.840	0.180	-0.380	0.560
2020/01/31 19:50:01.2	1.850	0.230	-0.500	0.530
2020/01/31 19:50:01.3	1.860	0.270	-0.630	0.500
2020/01/31 19:50:01.4	1.880	0.320	-0.750	0.470
2020/01/31 19:50:01.5	1.900	0.360	-0.880	0.430
2020/01/31 19:50:01.6	1.920	0.410	-1.010	0.390
2020/01/31 19:50:01.7	1.950	0.450	-1.130	0.350
2020/01/31 19:50:01.8	1.980	0.500	-1.250	0.300
2020/01/31 19:50:01.9	2.010	0.540	-1.370	0.250
2020/01/31 19:50:02.0	2.050	0.580	-1.490	0.200
2020/01/31 19:50:02.1	2.090	0.610	-1.590	0.140
2020/01/31 19:50:02.2	2.140	0.650	-1.700	0.080
2020/01/31 19:50:02.3	2.190	0.680	-1.790	0.020
2020/01/31 19:50:02.4	2.240	0.710	-1.880	-0.040
2020/01/31 19:50:02.5	2.290	0.730	-1.960	-0.100
2020/01/31 19:50:02.6	2.350	0.750	-2.030	-0.170
2020/01/31 19:50:02.7	2.410	0.760	-2.090	-0.240
2020/01/31 19:50:02.8	2.470	0.780	-2.150	-0.310
2020/01/31 19:50:02.9	2.550	0.780	-2.190	-0.380
2020/01/31 19:50:03.0	2.620	0.790	-2.220	-0.450
2020/01/31 19:50:03.1	2.690	0.790	-2.240	-0.520
2020/01/31 19:50:03.2	2.760	0.780	-2.250	-0.580
2020/01/31 19:50:03.3	2.830	0.770	-2.250	-0.650
2020/01/31 19:50:03.4	2.910	0.760	-2.230	-0.710
2020/01/31 19:50:03.5	2.980	0.740	-2.200	-0.770
2020/01/31 19:50:03.6	3.060	0.720	-2.160	-0.830
2020/01/31 19:50:03.7	3.130	0.700	-2.110	-0.880
2020/01/31 19:50:03.8	3.200	0.670	-2.050	-0.930
2020/01/31 19:50:03.9	3.270	0.630	-1.970	-0.960
2020/01/31 19:50:04.0	3.340	0.600	-1.880	-1.000
2020/01/31 19:50:04.1	3.410	0.560	-1.780	-1.030
2020/01/31 19:50:04.2	3.470	0.510	-1.670	-1.050
2020/01/31 19:50:04.3	3.530	0.470	-1.540	-1.060
2020/01/31 19:50:04.4	3.580	0.420	-1.410	-1.060
2020/01/31 19:50:04.5	3.630	0.370	-1.270	-1.060
2020/01/31 19:50:04.6	3.670	0.310	-1.120	-1.050
2020/01/31 19:50:04.7	3.700	0.260	-0.960	-1.030
2020/01/31 19:50:04.8	3.730	0.200	-0.800	-1.010
2020/01/31 19:50:04.9	3.750	0.140	-0.630	-0.970
2020/01/31 19:50:05.0	3.760	0.070	-0.450	-0.940
2020/01/31 19:50:05.1	3.770	0.010	-0.280	-0.900
2020/01/31 19:50:05.2	3.780	-0.050	-0.100	-0.850
2020/01/31 19:50:05.3	3.770	-0.120	0.080	-0.810
2020/01/31 19:50:05.4	3.770	-0.180	0.260	-0.760
2020/01/31 19:50:05.5	3.750	-0.250	0.440	-0.700
2020/01/31 19:50:05.6	3.740	-0.310	0.610	-0.650
2020/01/31 19:50:05.7	3.710	-0.370	0.770	-0.590
2020/01/31 19:50:05.8	3.680	-0.430	0.930	-0.540
2020/01/31 19:50:05.9	3.660	-0.490	1.080	-0.480
2020/01/31 19:50:06.0	3.620	-0.540	1.230	-0.420
2020/01/31 19:50:06.1	3.580	-0.600	1.360	-0.360
2020/01/31 19:50:06.2	3.530	-0.650	1.480	-0.300
2020/01/31 19:50:06.3	3.480	-0.690	1.590	-0.240
2020/01/31 19:50:06.4	3.430	-0.730	1.690	-0.180
2020/01/31 19:50:06.5	3.370	-0.770	1.770	-0.120
2020/01/31 19:50:06.6	3.310	-0.800	1.850	-0.070
2020/01/31 19:50:06.7	3.250	-0.830	1.900	-0.010
2020/01/31 19:50:06.8	3.190	-0.850	1.950	0.040
2020/01/31 19:50:06.9	3.130	-0.870	1.980	0.090
2020/01/31 19:50:07.0	3.070	-0.880	1.990	0.130
2020/01/31 19:50:07.1	3.000	-0.890	1.990	0.180
2020/01/31 19:50:07.2	2.940	-0.890	1.980	0.220
2020/01/31 19:50:07.3	2.870	-0.890	1.950	0.260
2020/01/31 19:50:07.4	2.810	-0.870	1.900	0.300
2020/01/31 19:50:07.5	2.750	-0.860	1.850	0.330
2020/01/31 19:50:07.6	2.690	-0.830	1.770	0.350
2020/01/31 19:50:07.7	2.630	-0.800	1.690	0.380
2020/01/31 19:50:07.8	2.570	-0.770	1.590	0.400
2020/01/31 19:50:07.9	2.530	-0.730	1.490	0.410
2020/01/31 19:50:08.0	2.480	-0.690	1.370	0.420
2020/01/31 19:50:08.1	2.430	-0.640	1.240	0.430
2020/01/31 19:50:08.2	2.390	-0.580	1.110	0.430
2020/01/31 19:50:08.3	2.350	-0.520	0.960	0.430
2020/01/31 19:50:08.4	2.310	-0.460	0.820	0.420
2020/01/31 19:50:08.5	2.270	-0.400	0.660	0.410
2020/01/31 19:50:08.6	2.240	-0.330	0.510	0.400
2020/01/31 19:50:08.7	2.210	-0.260	0.350	0.380
2020/01/31 19:50:08.8	2.190	-0.190	0.200	0.360
2020/01/31 19:50:08.9	2.160	-0.120	0.040	0.340
2020/01/31 19:50:09.0	2.140	-0.040	-0.110	0.310
2020/01/31 19:50:09.1	2.120	0.030	-0.260	0.290
2020/01/31 19:50:09.2	2.110	0.100	-0.400	0.260
2020/01/31 19:50:09.3	2.090	0.170	-0.530	0.240
2020/01/31 19:50:09.4	2.080	0.240	-0.660	0.220
2020/01/31 19:50:09.5	2.070	0.300	-0.780	0.190
2020/01/31 19:50:09.6	2.070	0.360	-0.890	0.170
2020/01/31 19:50:09.7	2.060	0.420	-0.990	0.150
2020/01/31 19:50:09.8	2.050	0.480	-1.070	0.130
2020/01/31 19:50:09.9	2.030	0.530	-1.150	0.110
2020/01/31 19:50:10.0	2.020	0.570	-1.210	0.090
2020/01/31 19:50:10.1	2.010	0.610	-1.260	0.070
2020/01/31 19:50:10.2	2.010	0.650	-1.300	0.060
2020/01/31 19:50:10.3	2.000	0.670	-1.330	0.050
2020/01/31 19:50:10.4	2.000	0.700	-1.340	0.040
2020/01/31 19:50:10.5	1.990	0.710	-1.350	0.030
2020/01/31 19:50:10.6	1.990	0.720	-1.340	0.020
2020/01/31 19:50:10.7	1.980	0.730	-1.320	0.020
2020/01/31 19:50:10.8	1.970	0.720	-1.290	0.010
2020/01/31 19:50:10.9	1.960	0.720	-1.260	0.010
2020/01/31 19:50:11.0	1.960	0.700	-1.210	0.010
2020/01/31 19:50:11.1	1.950	0.680	-1.160	0.010
2020/01/31 19:50:11.2	1.950	0.660	-1.110	0.010
2020/01/31 19:50:11.3	1.940	0.630	-1.050	0.010
2020/01/31 19:50:11.4	1.940	0.600	-0.990	0.010
2020/01/31 19:50:11.5	1.940	0.570	-0.930	0.010
2020/01/31 19:50:11.6	1.940	0.530	-0.870	0.000
2020/01/31 19:50:11.7	1.950	0.490	-0.810	0.000
2020/01/31 19:50:11.8	1.960	0.450	-0.750	-0.000
2020/01/31 19:50:11.9	1.970	0.410	-0.690	-0.010
2020/01/31 19:50:12.0	1.980	0.370	-0.640	-0.020
2020/01/31 19:50:12.1	2.000	0.320	-0.590	-0.030
2020/01/31 19:50:12.2	2.020	0.280	-0.540	-0.040
2020/01/31 19:50:12.3	2.050	0.240	-0.500	-0.060
2020/01/31 19:50:12.4	2.080	0.200	-0.470	-0.080
2020/01/31 19:50:12.5	2.110	0.160	-0.440	-0.100
2020/01/31 19:50:12.6	2.140	0.120	-0.410	-0.120
2020/01/31 19:50:12.7	2.180	0.080	-0.390	-0.150
2020/01/31 19:50:12.8	2.210	0.050	-0.380	-0.180
2020/01/31 19:50:12.9	2.240	0.010	-0.370	-0.210
2020/01/31 19:50:13.0	2.280	-0.020	-0.360	-0.240
2020/01/31 19:50:13.1	2.320	-0.050	-0.360	-0.270
2020/01/31 19:50:13.2	2.350	-0.080	-0.360	-0.300
2020/01/31 19:50:13.3	2.390	-0.100	-0.360	-0.330
2020/01/31 19:50:13.4	2.420	-0.130	-0.370	-0.360
2020/01/31 19:50:13.5	2.450	-0.150	-0.370	-0.380
2020/01/31 19:50:13.6	2.480	-0.170	-0.380	-0.410
2020/01/31 19:50:13.7	2.500	-0.190	-0.380	-0.440
2020/01/31 19:50:13.8	2.530	-0.200	-0.390	-0.460
2020/01/31 19:50:13.9	2.560	-0.220	-0.400	-0.490
2020/01/31 19:50:14.0	2.580	-0.230	-0.400	-0.510
2020/01/31 19:50:14.1	2.600	-0.240	-0.410	-0.530
2020/01/31 19:50:14.2	2.620	-0.250	-0.410	-0.550
2020/01/31 19:50:14.3	2.640	-0.260	-0.420	-0.570
2020/01/31 19:50:14.4	2.660	-0.270	-0.420	-0.590
2020/01/31 19:50:14.5	2.680	-0.270	-0.420	-0.610
2020/01/31 19:50:14.6	2.700	-0.280	-0.420	-0.630
2020/01/31 19:50:14.7	2.720	-0.280	-0.430	-0.650
2020/01/31 19:50:14.8	2.740	-0.280	-0.430	-0.670
2020/01/31 19:50:14.9	2.750	-0.280	-0.430	-0.680
2020/01/31 19:50:15.0	2.770	-0.280	-0.430	-0.700
2020/01/31 19:50:15.1	2.790	-0.280	-0.430	-0.710
2020/01/31 19:50:15.2	2.810	-0.280	-0.430	-0.730
2020/01/31 19:50:15.3	2.830	-0.280	-0.430	-0.740
2020/01/31 19:50:15.4	2.850	-0.280	-0.430	-0.750
2020/01/31 19:50:15.5	2.870	-0.270	-0.430	-0.760
2020/01/31 19:50:15.6	2.890	-0.270	-0.430	-0.770
2020/01/31 19:50:15.7	2.910	-0.270	-0.430	-0.770
2020/01/31 19:50:15.8	2.930	-0.260	-0.430	-0.780
2020/01/31 19:50:15.9	2.970	-0.250	-0.420	-0.780
2020/01/31 19:50:16.0	2.980	-0.250	-0.420	-0.780
2020/01/31 19:50:16.1	3.000	-0.240	-0.420	-0.780
2020/01/31 19:50:16.2	3.020	-0.230	-0.420	-0.780
2020/01/31 19:50:16.3	3.040	-0.220	-0.410	-0.770
2020/01/31 19:50:16.4	3.060	-0.210	-0.410	-0.770
2020/01/31 19:50:16.5	3.070	-0.200	-0.410	-0.760
2020/01/31 19:50:16.6	3.090	-0.190	-0.400	-0.750
2020/01/31 19:50:16.7	3.100	-0.180	-0.390	-0.750
2020/01/31 19:50:16.8	3.120	-0.170	-0.390	-0.740
2020/01/31 19:50:16.9	3.130	-0.160	-0.380	-0.720
2020/01/31 19:50:17.0	3.140	-0.150	-0.370	-0.710
2020/01/31 19:50:17.1	3.150	-0.140	-0.350	-0.690
2020/01/31 19:50:17.2	3.150	-0.130	-0.340	-0.670
2020/01/31 19:50:17.3	3.150	-0.120	-0.320	-0.650
2020/01/31 19:50:17.4	3.150	-0.110	-0.290	-0.620
2020/01/31 19:50:17.5	3.140	-0.100	-0.270	-0.600
2020/01/31 19:50:17.6	3.130	-0.100	-0.240	-0.560
2020/01/31 19:50:17.7	3.110	-0.090	-0.210	-0.530
2020/01/31 19:50:17.8	3.090	-0.080	-0.180	-0.490
2020/01/31 19:50:17.9	3.070	-0.070	-0.140	-0.450
2020/01/31 19:50:18.0	3.040	-0.070	-0.100	-0.400
2020/01/31 19:50:18.1	3.010	-0.060	-0.060	-0.350
2020/01/31 19:50:18.2	2.970	-0.060	-0.020	-0.290
2020/01/31 19:50:18.3	2.930	-0.060	0.030	-0.230
2020/01/31 19:50:18.4	2.880	-0.050	0.080	-0.170
2020/01/31 19:50:18.5	2.830	-0.050	0.130	-0.100
2020/01/31 19:50:18.6	2.780	-0.040	0.180	-0.020
2020/01/31 19:50:18.7	2.720	-0.040	0.230	0.050
2020/01/31 19:50:18.8	2.660	-0.040	0.290	0.130
2020/01/31 19:50:18.9	2.600	-0.030	0.340	0.220
2020/01/31 19:50:19.0	2.530	-0.030	0.390	0.300
2020/01/31 19:50:19.1	2.470	-0.020	0.430	0.380
2020/01/31 19:50:19.2	2.400	-0.020	0.470	0.470
2020/01/31 19:50:19.3	2.330	-0.010	0.510	0.550
2020/01/31 19:50:19.4	2.270	-0.000	0.540	0.630
2020/01/31 19:50:19.5	2.200	0.010	0.560	0.700
2020/01/31 19:50:19.6	2.140	0.020	0.580	0.780
2020/01/31 19:50:19.7	2.070	0.030	0.590	0.840
2020/01/31 19:50:19.8	2.010	0.050	0.590	0.910
2020/01/31 19:50:19.9	1.960	0.070	0.580	0.960
2020/01/31 19:50:20.0	1.900	0.090	0.560	1.010
2020/01/31 19:50:20.1	1.850	0.110	0.540	1.050
2020/01/31 19:50:20.2	1.800	0.130	0.510	1.080
2020/01/31 19:50:20.3	1.760	0.160	0.470	1.110
2020/01/31 19:50:20.4	1.720	0.190	0.420	1.130
2020/01/31 19:50:20.5	1.690	0.220	0.360	1.140
2020/01/31 19:50:20.6	1.660	0.250	0.300	1.140
2020/01/31 19:50:20.7	1.630	0.290	0.230	1.130
2020/01/31 19:50:20.8	1.610	0.330	0.160	1.120
2020/01/31 19:50:20.9	1.600	0.360	0.080	1.100
2020/01/31 19:50:21.0	1.590	0.400	0.000	1.070
2020/01/31 19:50:21.1	1.590	0.440	-0.080	1.040
2020/01/31 19:50:21.2	1.590	0.480	-0.160	1.000
2020/01/31 19:50:21.3	1.590	0.510	-0.250	0.950
2020/01/31 19:50:21.4	1.600	0.550	-0.330	0.910
2020/01/31 19:50:21.5	1.610	0.580	-0.410	0.850
2020/01/31 19:50:21.6	1.630	0.620	-0.490	0.790
2020/01/31 19:50:21.7	1.650	0.640	-0.560	0.730
2020/01/31 19:50:21.8	1.680	0.670	-0.630	0.660
2020/01/31 19:50:21.9	1.700	0.690	-0.700	0.590
2020/01/31 19:50:22.0	1.740	0.710	-0.750	0.510
2020/01/31 19:50:22.1	1.770	0.720	-0.800	0.440
2020/01/31 19:50:22.2	1.810	0.720	-0.840	0.360
2020/01/31 19:50:22.3	1.850	0.720	-0.880	0.280
2020/01/31 19:50:22.4	1.890	0.720	-0.900	0.200
2020/01/31 19:50:22.5	1.930	0.710	-0.920	0.130
2020/01/31 19:50:22.6	1.970	0.690	-0.930	0.050
2020/01/31 19:50:22.7	2.020	0.660	-0.930	-0.030
2020/01/31 19:50:22.8	2.060	0.630	-0.920	-0.110
2020/01/31 19:50:22.9	2.090	0.590	-0.910	-0.190
2020/01/31 19:50:23.0	2.140	0.550	-0.890	-0.270
2020/01/31 19:50:23.1	2.180	0.500	-0.860	-0.340
2020/01/31 19:50:23.2	2.230	0.440	-0.820	-0.420
2020/01/31 19:50:23.3	2.270	0.380	-0.780	-0.490
2020/01/31 19:50:23.4	2.320	0.310	-0.740	-0.560
2020/01/31 19:50:23.5	2.360	0.240	-0.690	-0.630
2020/01/31 19:50:23.6	2.400	0.170	-0.640	-0.690
2020/01/31 19:50:23.7	2.450	0.090	-0.580	-0.750
2020/01/31 19:50:23.8	2.490	0.010	-0.530	-0.810
2020/01/31 19:50:23.9	2.530	-0.070	-0.470	-0.870
2020/01/31 19:50:24.0	2.570	-0.150	-0.410	-0.920
2020/01/31 19:50:24.1	2.610	-0.230	-0.350	-0.970
2020/01/31 19:50:24.2	2.650	-0.310	-0.300	-1.020
2020/01/31 19:50:24.3	2.680	-0.400	-0.250	-1.060
2020/01/31 19:50:24.4	2.720	-0.480	-0.190	-1.100
2020/01/31 19:50:24.5	2.760	-0.550	-0.150	-1.140
2020/01/31 19:50:24.6	2.790	-0.630	-0.100	-1.180
2020/01/31 19:50:24.7	2.820	-0.700	-0.060	-1.210
2020/01/31 19:50:24.8	2.860	-0.760	-0.020	-1.240
2020/01/31 19:50:24.9	2.890	-0.830	0.010	-1.270
2020/01/31 19:50:25.0	2.930	-0.880	0.040	-1.300
2020/01/31 19:50:25.1	2.960	-0.930	0.060	-1.320
2020/01/31 19:50:25.2	2.990	-0.980	0.080	-1.340
2020/01/31 19:50:25.3	3.020	-1.010	0.100	-1.350
2020/01/31 19:50:25.4	3.040	-1.050	0.120	-1.360
2020/01/31 19:50:25.5	3.070	-1.070	0.130	-1.370
2020/01/31 19:50:25.6	3.090	-1.090	0.130	-1.370
2020/01/31 19:50:25.7	3.120	-1.090	0.140	-1.370
2020/01/31 19:50:25.8	3.140	-1.100	0.140	-1.360
2020/01/31 19:50:25.9	3.150	-1.090	0.140	-1.350
2020/01/31 19:50:26.0	3.170	-1.080	0.140	-1.330
2020/01/31 19:50:26.1	3.180	-1.060	0.130	-1.310
2020/01/31 19:50:26.2	3.190	-1.030	0.130	-1.280
2020/01/31 19:50:26.3	3.190	-1.000	0.120	-1.250
2020/01/31 19:50:26.4	3.190	-0.960	0.110	-1.210
2020/01/31 19:50:26.5	3.190	-0.910	0.100	-1.170
2020/01/31 19:50:26.6	3.180	-0.860	0.090	-1.120
2020/01/31 19:50:26.7	3.160	-0.800	0.080	-1.060
2020/01/31 19:50:26.8	3.150	-0.740	0.060	-1.000
2020/01/31 19:50:26.9	3.130	-0.680	0.050	-0.930
2020/01/31 19:50:27.0	3.110	-0.610	0.030	-0.860
2020/01/31 19:50:27.1	3.080	-0.540	0.010	-0.790
2020/01/31 19:50:27.2	3.050	-0.460	-0.010	-0.710
2020/01/31 19:50:27.3	3.020	-0.390	-0.030	-0.630
2020/01/31 19:50:27.4	2.980	-0.310	-0.050	-0.550
2020/01/31 19:50:27.5	2.940	-0.230	-0.080	-0.470
2020/01/31 19:50:27.6	2.900	-0.150	-0.100	-0.390
2020/01/31 19:50:27.7	2.860	-0.070	-0.130	-0.310
2020/01/31 19:50:27.8	2.820	0.000	-0.160	-0.230
2020/01/31 19:50:27.9	2.770	0.080	-0.200	-0.140
2020/01/31 19:50:28.0	2.730	0.160	-0.230	-0.070
2020/01/31 19:50:28.1	2.690	0.230	-0.270	0.010
2020/01/31 19:50:28.2	2.650	0.300	-0.310	0.080
2020/01/31 19:50:28.3	2.610	0.370	-0.350	0.140
2020/01/31 19:50:28.4	2.580	0.440	-0.400	0.210
2020/01/31 19:50:28.5	2.540	0.500	-0.440	0.260
2020/01/31 19:50:28.6	2.510	0.560	-0.490	0.310
2020/01/31 19:50:28.7	2.480	0.620	-0.530	0.360
2020/01/31 19:50:28.8	2.450	0.670	-0.580	0.400
2020/01/31 19:50:28.9	2.420	0.720	-0.620	0.430
2020/01/31 19:50:29.0	2.400	0.770	-0.670	0.460
2020/01/31 19:50:29.1	2.380	0.810	-0.710	0.480
2020/01/31 19:50:29.2	2.360	0.840	-0.760	0.500
2020/01/31 19:50:29.3	2.350	0.880	-0.800	0.510
2020/01/31 19:50:29.4	2.340	0.910	-0.830	0.520
2020/01/31 19:50:29.5	2.330	0.930	-0.870	0.530
2020/01/31 19:50:29.6	2.320	0.950	-0.900	0.530
2020/01/31 19:50:29.7	2.320	0.960	-0.920	0.530
2020/01/31 19:50:29.8	2.320	0.980	-0.940	0.530
2020/01/31 19:50:29.9	2.310	0.980	-0.960	0.530
2020/01/31 19:50:30.0	2.320	0.980	-0.970	0.520
2020/01/31 19:50:30.1	2.320	0.980	-0.970	0.520
2020/01/31 19:50:30.2	2.320	0.980	-0.970	0.510
2020/01/31 19:50:30.3	2.330	0.960	-0.960	0.500
2020/01/31 19:50:30.4	2.340	0.950	-0.940	0.490
2020/01/31 19:50:30.5	2.350	0.930	-0.920	0.480
2020/01/31 19:50:30.6	2.360	0.900	-0.890	0.470
2020/01/31 19:50:30.7	2.370	0.870	-0.850	0.450
2020/01/31 19:50:30.8	2.380	0.840	-0.810	0.440
2020/01/31 19:50:30.9	2.390	0.800	-0.770	0.420
2020/01/31 19:50:31.0	2.400	0.760	-0.710	0.400
2020/01/31 19:50:31.1	2.420	0.710	-0.650	0.370
2020/01/31 19:50:31.2	2.430	0.660	-0.590	0.350
2020/01/31 19:50:31.3	2.450	0.610	-0.520	0.320
2020/01/31 19:50:31.4	2.460	0.560	-0.450	0.280
2020/01/31 19:50:31.5	2.480	0.500	-0.380	0.250
2020/01/31 19:50:31.6	2.490	0.440	-0.310	0.210
2020/01/31 19:50:31.7	2.510	0.380	-0.240	0.170
2020/01/31 19:50:31.8	2.530	0.320	-0.170	0.130
2020/01/31 19:50:31.9	2.560	0.260	-0.100	0.080
2020/01/31 19:50:32.0	2.580	0.190	-0.030	0.030
2020/01/31 19:50:32.1	2.600	0.130	0.030	-0.010
2020/01/31 19:50:32.2	2.630	0.070	0.100	-0.060
2020/01/31 19:50:32.3	2.650	0.010	0.150	-0.120
2020/01/31 19:50:32.4	2.680	-0.050	0.200	-0.170
2020/01/31 19:50:32.5	2.710	-0.110	0.250	-0.220
2020/01/31 19:50:32.6	2.740	-0.170	0.290	-0.280
2020/01/31 19:50:32.7	2.770	-0.220	0.320	-0.340
2020/01/31 19:50:32.8	2.800	-0.280	0.350	-0.390
2020/01/31 19:50:32.9	2.840	-0.330	0.370	-0.460
2020/01/31 19:50:33.0	2.870	-0.370	0.380	-0.510
2020/01/31 19:50:33.1	2.910	-0.410	0.380	-0.570
2020/01/31 19:50:33.2	2.940	-0.450	0.380	-0.630
2020/01/31 19:50:33.3	2.980	-0.490	0.370	-0.680
2020/01/31 19:50:33.4	3.010	-0.520	0.360	-0.740
2020/01/31 19:50:33.5	3.050	-0.540	0.330	-0.790
2020/01/31 19:50:33.6	3.090	-0.570	0.300	-0.850
2020/01/31 19:50:33.7	3.120	-0.580	0.270	-0.900
2020/01/31 19:50:33.8	3.160	-0.600	0.230	-0.950
2020/01/31 19:50:33.9	3.190	-0.610	0.190	-0.990
2020/01/31 19:50:34.0	3.220	-0.620	0.140	-1.030
2020/01/31 19:50:34.1	3.260	-0.620	0.090	-1.070
2020/01/31 19:50:34.2	3.290	-0.620	0.040	-1.110
2020/01/31 19:50:34.3	3.310	-0.610	-0.020	-1.140
2020/01/31 19:50:34.4	3.340	-0.600	-0.070	-1.170
2020/01/31 19:50:34.5	3.360	-0.590	-0.130	-1.200
2020/01/31 19:50:34.6	3.380	-0.580	-0.180	-1.220
2020/01/31 19:50:34.7	3.400	-0.570	-0.230	-1.230
2020/01/31 19:50:34.8	3.420	-0.550	-0.280	-1.240
2020/01/31 19:50:34.9	3.440	-0.530	-0.330	-1.260
2020/01/31 19:50:35.0	3.450	-0.510	-0.370	-1.260
2020/01/31 19:50:35.1	3.460	-0.490	-0.410	-1.260
2020/01/31 19:50:35.2	3.470	-0.460	-0.440	-1.250
2020/01/31 19:50:35.3	3.470	-0.440	-0.470	-1.240
2020/01/31 19:50:35.4	3.480	-0.420	-0.490	-1.220
2020/01/31 19:50:35.5	3.480	-0.400	-0.500	-1.200
2020/01/31 19:50:35.6	3.480	-0.370	-0.510	-1.170
2020/01/31 19:50:35.7	3.480	-0.350	-0.510	-1.140
2020/01/31 19:50:35.8	3.480	-0.330	-0.510	-1.110
2020/01/31 19:50:35.9	3.490	-0.310	-0.500	-1.060
2020/01/31 19:50:36.0	3.480	-0.290	-0.480	-1.020
2020/01/31 19:50:36.1	3.480	-0.270	-0.460	-0.970
2020/01/31 19:50:36.2	3.470	-0.250	-0.430	-0.920
2020/01/31 19:50:36.3	3.460	-0.230	-0.390	-0.870
2020/01/31 19:50:36.4	3.450	-0.220	-0.350	-0.810
2020/01/31 19:50:36.5	3.440	-0.200	-0.310	-0.750
2020/01/31 19:50:36.6	3.430	-0.190	-0.260	-0.680
2020/01/31 19:50:36.7	3.420	-0.180	-0.210	-0.620
2020/01/31 19:50:36.8	3.410	-0.170	-0.150	-0.550
2020/01/31 19:50:36.9	3.400	-0.160	-0.090	-0.480
2020/01/31 19:50:37.0	3.380	-0.150	-0.030	-0.410
2020/01/31 19:50:37.1	3.360	-0.150	0.030	-0.340
2020/01/31 19:50:37.2	3.350	-0.140	0.090	-0.260
2020/01/31 19:50:37.3	3.330	-0.140	0.150	-0.190
2020/01/31 19:50:37.4	3.310	-0.130	0.200	-0.120
2020/01/31 19:50:37.5	3.290	-0.130	0.260	-0.050
2020/01/31 19:50:37.6	3.270	-0.120	0.310	0.020
2020/01/31 19:50:37.7	3.250	-0.120	0.360	0.090
2020/01/31 19:50:37.8	3.230	-0.110	0.410	0.160
2020/01/31 19:50:37.9	3.220	-0.110	0.440	0.220
2020/01/31 19:50:38.0	3.200	-0.100	0.480	0.290
2020/01/31 19:50:38.1	3.180	-0.090	0.500	0.350
2020/01/31 19:50:38.2	3.160	-0.080	0.520	0.400
2020/01/31 19:50:38.3	3.140	-0.070	0.540	0.460
2020/01/31 19:50:38.4	3.120	-0.060	0.540	0.510
2020/01/31 19:50:38.5	3.100	-0.050	0.540	0.550
2020/01/31 19:50:38.6	3.080	-0.040	0.540	0.600
2020/01/31 19:50:38.7	3.060	-0.020	0.520	0.640
2020/01/31 19:50:38.8	3.040	-0.000	0.500	0.680
2020/01/31 19:50:38.9	3.040	0.010	0.470	0.710
2020/01/31 19:50:39.0	3.020	0.030	0.440	0.740
2020/01/31 19:50:39.1	2.990	0.050	0.390	0.770
2020/01/31 19:50:39.2	2.970	0.070	0.340	0.790
2020/01/31 19:50:39.3	2.950	0.100	0.290	0.810
2020/01/31 19:50:39.4	2.930	0.120	0.230	0.820
2020/01/31 19:50:39.5	2.910	0.140	0.160	0.830
2020/01/31 19:50:39.6	2.890	0.160	0.090	0.830
2020/01/31 19:50:39.7	2.870	0.180	0.010	0.830
2020/01/31 19:50:39.8	2.850	0.210	-0.070	0.830
2020/01/31 19:50:39.9	2.840	0.230	-0.150	0.820
2020/01/31 19:50:40.0	2.820	0.250	-0.230	0.800
2020/01/31 19:50:40.1	2.810	0.270	-0.320	0.770
2020/01/31 19:50:40.2	2.790	0.290	-0.410	0.750
2020/01/31 19:50:40.3	2.780	0.310	-0.500	0.710
2020/01/31 19:50:40.4	2.780	0.320	-0.590	0.670
2020/01/31 19:50:40.5	2.770	0.340	-0.690	0.630
2020/01/31 19:50:40.6	2.770	0.350	-0.780	0.580
2020/01/31 19:50:40.7	2.770	0.370	-0.870	0.520
2020/01/31 19:50:40.8	2.770	0.380	-0.960	0.460
2020/01/31 19:50:40.9	2.780	0.390	-1.050	0.390
2020/01/31 19:50:41.0	2.790	0.400	-1.130	0.330
2020/01/31 19:50:41.1	2.810	0.400	-1.210	0.260
2020/01/31 19:50:41.2	2.820	0.410	-1.280	0.180
2020/01/31 19:50:41.3	2.850	0.410	-1.350	0.110
2020/01/31 19:50:41.4	2.870	0.410	-1.420	0.030
2020/01/31 19:50:41.5	2.910	0.420	-1.480	-0.050
2020/01/31 19:50:41.6	2.940	0.420	-1.530	-0.130
2020/01/31 19:50:41.7	2.980	0.410	-1.570	-0.210
2020/01/31 19:50:41.8	3.030	0.410	-1.610	-0.290
2020/01/31 19:50:41.9	3.070	0.410	-1.630	-0.370
2020/01/31 19:50:42.0	3.120	0.400	-1.650	-0.450
2020/01/31 19:50:42.1	3.180	0.400	-1.660	-0.530
2020/01/31 19:50:42.2	3.240	0.390	-1.660	-0.610
2020/01/31 19:50:42.3	3.300	0.390	-1.650	-0.680
2020/01/31 19:50:42.4	3.360	0.380	-1.630	-0.760
2020/01/31 19:50:42.5	3.430	0.370	-1.600	-0.830
2020/01/31 19:50:42.6	3.490	0.360	-1.560	-0.900
2020/01/31 19:50:42.7	3.560	0.340	-1.510	-0.960
2020/01/31 19:50:42.8	3.630	0.330	-1.450	-1.020
2020/01/31 19:50:42.9	3.670	0.310	-1.380	-1.080
2020/01/31 19:50:43.0	3.730	0.300	-1.300	-1.130
2020/01/31 19:50:43.1	3.790	0.280	-1.220	-1.180
2020/01/31 19:50:43.2	3.850	0.260	-1.120	-1.220
2020/01/31 19:50:43.3	3.910	0.240	-1.020	-1.250
2020/01/31 19:50:43.4	3.960	0.220	-0.920	-1.280
2020/01/31 19:50:43.5	4.010	0.190	-0.810	-1.310
2020/01/31 19:50:43.6	4.060	0.170	-0.700	-1.330
2020/01/31 19:50:43.7	4.110	0.140	-0.580	-1.340
2020/01/31 19:50:43.8	4.150	0.120	-0.460	-1.340
2020/01/31 19:50:43.9	4.180	0.090	-0.350	-1.340
2020/01/31 19:50:44.0	4.210	0.060	-0.230	-1.340
2020/01/31 19:50:44.1	4.240	0.040	-0.110	-1.330
2020/01/31 19:50:44.2	4.260	0.010	0.000	-1.310
2020/01/31 19:50:44.3	4.280	-0.020	0.110	-1.290
2020/01/31 19:50:44.4	4.300	-0.050	0.220	-1.260
2020/01/31 19:50:44.5	4.310	-0.080	0.320	-1.220
2020/01/31 19:50:44.6	4.320	-0.100	0.420	-1.190
2020/01/31 19:50:44.7	4.320	-0.130	0.510	-1.140
2020/01/31 19:50:44.8	4.320	-0.160	0.590	-1.090
2020/01/31 19:50:44.9	4.310	-0.180	0.670	-1.040
2020/01/31 19:50:45.0	4.300	-0.210	0.740	-0.980
2020/01/31 19:50:45.1	4.280	-0.230	0.800	-0.920
2020/01/31 19:50:45.2	4.260	-0.250	0.850	-0.850
2020/01/31 19:50:45.3	4.240	-0.270	0.900	-0.790
2020/01/31 19:50:45.4	4.210	-0.290	0.930	-0.720
2020/01/31 19:50:45.5	4.180	-0.310	0.960	-0.640
2020/01/31 19:50:45.6	4.140	-0.320	0.980	-0.570
2020/01/31 19:50:45.7	4.100	-0.340	0.990	-0.490
2020/01/31 19:50:45.8	4.060	-0.350	0.990	-0.420
2020/01/31 19:50:45.9	4.010	-0.360	0.980	-0.340
2020/01/31 19:50:46.0	3.960	-0.360	0.970	-0.260
2020/01/31 19:50:46.1	3.910	-0.370	0.950	-0.190
2020/01/31 19:50:46.2	3.860	-0.370	0.920	-0.120
2020/01/31 19:50:46.3	3.810	-0.370	0.880	-0.060
2020/01/31 19:50:46.4	3.750	-0.370	0.840	0.010
2020/01/31 19:50:46.5	3.690	-0.370	0.790	0.070
2020/01/31 19:50:46.6	3.640	-0.360	0.730	0.120
2020/01/31 19:50:46.7	3.580	-0.350	0.670	0.170
2020/01/31 19:50:46.8	3.530	-0.340	0.600	0.220
2020/01/31 19:50:46.9	3.480	-0.330	0.530	0.260
2020/01/31 19:50:47.0	3.430	-0.310	0.450	0.290
2020/01/31 19:50:47.1	3.390	-0.300	0.360	0.320
2020/01/31 19:50:47.2	3.340	-0.280	0.280	0.350
2020/01/31 19:50:47.3	3.300	-0.260	0.180	0.360
2020/01/31 19:50:47.4	3.260	-0.230	0.090	0.370
2020/01/31 19:50:47.5	3.230	-0.210	-0.000	0.380
2020/01/31 19:50:47.6	3.200	-0.180	-0.100	0.380
2020/01/31 19:50:47.7	3.170	-0.150	-0.200	0.370
2020/01/31 19:50:47.8	3.150	-0.120	-0.290	0.360
2020/01/31 19:50:47.9	3.140	-0.090	-0.390	0.340
2020/01/31 19:50:48.0	3.120	-0.060	-0.480	0.330
2020/01/31 19:50:48.1	3.120	-0.020	-0.570	0.300
2020/01/31 19:50:48.2	3.120	0.010	-0.660	0.280
2020/01/31 19:50:48.3	3.120	0.050	-0.740	0.250
2020/01/31 19:50:48.4	3.130	0.080	-0.820	0.230
2020/01/31 19:50:48.5	3.140	0.120	-0.890	0.190
2020/01/31 19:50:48.6	3.160	0.150	-0.960	0.160
2020/01/31 19:50:48.7	3.170	0.180	-1.010	0.130
2020/01/31 19:50:48.8	3.190	0.210	-1.060	0.090
2020/01/31 19:50:48.9	3.210	0.240	-1.100	0.050
2020/01/31 19:50:49.0	3.240	0.270	-1.130	0.010
2020/01/31 19:50:49.1	3.260	0.290	-1.150	-0.020
2020/01/31 19:50:49.2	3.290	0.310	-1.160	-0.060
2020/01/31 19:50:49.3	3.310	0.330	-1.160	-0.100
2020/01/31 19:50:49.4	3.340	0.340	-1.150	-0.140
2020/01/31 19:50:49.5	3.370	0.350	-1.130	-0.180
2020/01/31 19:50:49.6	3.390	0.360	-1.100	-0.220
2020/01/31 19:50:49.7	3.420	0.360	-1.060	-0.260
2020/01/31 19:50:49.8	3.440	0.360	-1.010	-0.300
2020/01/31 19:50:49.9	3.460	0.350	-0.960	-0.340
2020/01/31 19:50:50.0	3.490	0.340	-0.900	-0.370
2020/01/31 19:50:50.1	3.510	0.320	-0.830	-0.400
2020/01/31 19:50:50.2	3.530	0.310	-0.760	-0.420
2020/01/31 19:50:50.3	3.550	0.280	-0.680	-0.450
2020/01/31 19:50:50.4	3.570	0.260	-0.600	-0.470
2020/01/31 19:50:50.5	3.590	0.230	-0.510	-0.480
2020/01/31 19:50:50.6	3.610	0.200	-0.430	-0.490
2020/01/31 19:50:50.7	3.630	0.170	-0.340	-0.500
2020/01/31 19:50:50.8	3.640	0.130	-0.250	-0.500
2020/01/31 19:50:50.9	3.650	0.100	-0.160	-0.500
2020/01/31 19:50:51.0	3.660	0.060	-0.080	-0.500
2020/01/31 19:50:51.1	3.680	0.020	0.000	-0.490
2020/01/31 19:50:51.2	3.690	-0.020	0.080	-0.480
2020/01/31 19:50:51.3	3.700	-0.060	0.160	-0.460
2020/01/31 19:50:51.4	3.700	-0.100	0.230	-0.440
2020/01/31 19:50:51.5	3.710	-0.130	0.290	-0.420
2020/01/31 19:50:51.6	3.710	-0.170	0.350	-0.400
2020/01/31 19:50:51.7	3.720	-0.200	0.400	-0.370
2020/01/31 19:50:51.8	3.720	-0.240	0.450	-0.350
2020/01/31 19:50:51.9	3.720	-0.270	0.480	-0.320
2020/01/31 19:50:52.0	3.720	-0.290	0.510	-0.290
2020/01/31 19:50:52.1	3.710	-0.320	0.530	-0.260
2020/01/31 19:50:52.2	3.710	-0.340	0.550	-0.230
2020/01/31 19:50:52.3	3.700	-0.360	0.550	-0.210
2020/01/31 19:50:52.4	3.690	-0.370	0.550	-0.180
2020/01/31 19:50:52.5	3.670	-0.380	0.540	-0.150
2020/01/31 19:50:52.6	3.660	-0.390	0.520	-0.130
2020/01/31 19:50:52.7	3.650	-0.390	0.500	-0.100
2020/01/31 19:50:52.8	3.630	-0.380	0.470	-0.070
2020/01/31 19:50:52.9	3.620	-0.380	0.440	-0.050
2020/01/31 19:50:53.0	3.600	-0.360	0.400	-0.020
2020/01/31 19:50:53.1	3.580	-0.350	0.350	0.000
2020/01/31 19:50:53.2	3.550	-0.330	0.300	0.030
2020/01/31 19:50:53.3	3.530	-0.310	0.250	0.060
2020/01/31 19:50:53.4	3.510	-0.280	0.200	0.090
2020/01/31 19:50:53.5	3.480	-0.250	0.140	0.120
2020/01/31 19:50:53.6	3.460	-0.220	0.080	0.150
2020/01/31 19:50:53.7	3.440	-0.180	0.020	0.180
2020/01/31 19:50:53.8	3.410	-0.150	-0.040	0.210
2020/01/31 19:50:53.9	3.380	-0.110	-0.100	0.240
2020/01/31 19:50:54.0	3.360	-0.070	-0.150	0.270
2020/01/31 19:50:54.1	3.340	-0.040	-0.210	0.300
2020/01/31 19:50:54.2	3.320	0.000	-0.270	0.330
2020/01/31 19:50:54.3	3.290	0.040	-0.320	0.350
2020/01/31 19:50:54.4	3.270	0.070	-0.380	0.370
2020/01/31 19:50:54.5	3.250	0.110	-0.430	0.390
2020/01/31 19:50:54.6	3.230	0.140	-0.480	0.400
2020/01/31 19:50:54.7	3.220	0.170	-0.530	0.410
2020/01/31 19:50:54.8	3.200	0.200	-0.580	0.410
2020/01/31 19:50:54.9	3.210	0.220	-0.620	0.400
2020/01/31 19:50:55.0	3.200	0.250	-0.670	0.400
2020/01/31 19:50:55.1	3.190	0.270	-0.710	0.380
2020/01/31 19:50:55.2	3.180	0.280	-0.750	0.360
2020/01/31 19:50:55.3	3.180	0.300	-0.790	0.340
2020/01/31 19:50:55.4	3.190	0.310	-0.830	0.310
2020/01/31 19:50:55.5	3.190	0.320	-0.860	0.280
2020/01/31 19:50:55.6	3.200	0.330	-0.900	0.240
2020/01/31 19:50:55.7	3.210	0.330	-0.930	0.200
2020/01/31 19:50:55.8	3.230	0.330	-0.960	0.150
2020/01/31 19:50:55.9	3.250	0.330	-0.990	0.100
2020/01/31 19:50:56.0	3.270	0.330	-1.020	0.050
2020/01/31 19:50:56.1	3.300	0.320	-1.050	-0.010
2020/01/31 19:50:56.2	3.330	0.320	-1.070	-0.070
2020/01/31 19:50:56.3	3.360	0.310	-1.090	-0.130
2020/01/31 19:50:56.4	3.400	0.300	-1.110	-0.190
2020/01/31 19:50:56.5	3.440	0.290	-1.130	-0.250
2020/01/31 19:50:56.6	3.480	0.280	-1.140	-0.310
2020/01/31 19:50:56.7	3.520	0.260	-1.150	-0.380
2020/01/31 19:50:56.8	3.570	0.250	-1.150	-0.440
2020/01/31 19:50:56.9	3.620	0.240	-1.160	-0.500
2020/01/31 19:50:57.0	3.660	0.230	-1.160	-0.560
2020/01/31 19:50:57.1	3.710	0.210	-1.150	-0.620
2020/01/31 19:50:57.2	3.760	0.200	-1.140	-0.670
2020/01/31 19:50:57.3	3.810	0.180	-1.120	-0.720
2020/01/31 19:50:57.4	3.860	0.170	-1.100	-0.770
2020/01/31 19:50:57.5	3.910	0.160	-1.070	-0.810
2020/01/31 19:50:57.6	3.960	0.140	-1.040	-0.850
2020/01/31 19:50:57.7	4.000	0.130	-1.000	-0.880
2020/01/31 19:50:57.8	4.050	0.120	-0.960	-0.910
2020/01/31 19:50:57.9	4.080	0.100	-0.910	-0.940
2020/01/31 19:50:58.0	4.120	0.090	-0.850	-0.960
2020/01/31 19:50:58.1	4.150	0.070	-0.790	-0.970
2020/01/31 19:50:58.2	4.190	0.060	-0.720	-0.970
2020/01/31 19:50:58.3	4.220	0.050	-0.650	-0.970
2020/01/31 19:50:58.4	4.240	0.030	-0.580	-0.970
2020/01/31 19:50:58.5	4.260	0.020	-0.500	-0.950
2020/01/31 19:50:58.6	4.280	0.000	-0.410	-0.930
2020/01/31 19:50:58.7	4.290	-0.010	-0.330	-0.910
2020/01/31 19:50:58.8	4.300	-0.030	-0.240	-0.880
2020/01/31 19:50:58.9	4.310	-0.040	-0.160	-0.840
2020/01/31 19:50:59.0	4.310	-0.060	-0.070	-0.800
2020/01/31 19:50:59.1	4.310	-0.070	0.020	-0.760
2020/01/31 19:50:59.2	4.310	-0.090	0.110	-0.710
2020/01/31 19:50:59.3	4.300	-0.100	0.190	-0.660
2020/01/31 19:50:59.4	4.280	-0.120	0.280	-0.610
2020/01/31 19:50:59.5	4.270	-0.130	0.360	-0.550
2020/01/31 19:50:59.6	4.250	-0.140	0.430	-0.490
2020/01/31 19:50:59.7	4.230	-0.160	0.510	-0.420
2020/01/31 19:50:59.8	4.200	-0.170	0.570	-0.360
2020/01/31 19:50:59.9	4.180	-0.180	0.630	-0.290
2020/01/31 19:51:00.0	4.150	-0.190	0.690	-0.220
2020/01/31 19:51:00.1	4.120	-0.200	0.740	-0.150
2020/01/31 19:51:00.2	4.090	-0.210	0.780	-0.080
2020/01/31 19:51:00.3	4.050	-0.210	0.820	-0.010
2020/01/31 19:51:00.4	4.020	-0.220	0.840	0.050
2020/01/31 19:51:00.5	3.980	-0.220	0.860	0.120
2020/01/31 19:51:00.6	3.940	-0.230	0.880	0.180
2020/01/31 19:51:00.7	3.900	-0.230	0.890	0.250
2020/01/31 19:51:00.8	3.870	-0.230	0.890	0.300
2020/01/31 19:51:00.9	3.820	-0.240	0.880	0.360
2020/01/31 19:51:01.0	3.780	-0.240	0.870	0.420
2020/01/31 19:51:01.1	3.740	-0.240	0.850	0.460
2020/01/31 19:51:01.2	3.700	-0.230	0.830	0.510
2020/01/31 19:51:01.3	3.670	-0.230	0.800	0.550
2020/01/31 19:51:01.4	3.630	-0.230	0.770	0.580
2020/01/31 19:51:01.5	3.590	-0.220	0.740	0.610
2020/01/31 19:51:01.6	3.550	-0.220	0.700	0.640
2020/01/31 19:51:01.7	3.520	-0.210	0.650	0.660
2020/01/31 19:51:01.8	3.480	-0.210	0.610	0.680
2020/01/31 19:51:01.9	3.450	-0.200	0.560	0.690
2020/01/31 19:51:02.0	3.420	-0.190	0.520	0.690
2020/01/31 19:51:02.1	3.390	-0.180	0.460	0.700
2020/01/31 19:51:02.2	3.370	-0.170	0.410	0.700
2020/01/31 19:51:02.3	3.340	-0.160	0.360	0.700
2020/01/31 19:51:02.4	3.320	-0.150	0.300	0.700
2020/01/31 19:51:02.5	3.310	-0.140	0.250	0.690
2020/01/31 19:51:02.6	3.290	-0.130	0.190	0.680
2020/01/31 19:51:02.7	3.280	-0.120	0.140	0.660
2020/01/31 19:51:02.8	3.270	-0.110	0.090	0.650
2020/01/31 19:51:02.9	3.270	-0.090	0.030	0.630
2020/01/31 19:51:03.0	3.270	-0.080	-0.020	0.620
2020/01/31 19:51:03.1	3.270	-0.070	-0.070	0.600
2020/01/31 19:51:03.2	3.270	-0.050	-0.120	0.570
2020/01/31 19:51:03.3	3.270	-0.040	-0.170	0.550
2020/01/31 19:51:03.4	3.270	-0.030	-0.220	0.530
2020/01/31 19:51:03.5	3.280	-0.010	-0.270	0.500
2020/01/31 19:51:03.6	3.280	-0.000	-0.310	0.470
2020/01/31 19:51:03.7	3.290	0.010	-0.360	0.440
2020/01/31 19:51:03.8	3.300	0.020	-0.400	0.420
2020/01/31 19:51:03.9	3.310	0.030	-0.440	0.380
2020/01/31 19:51:04.0	3.320	0.050	-0.480	0.350
2020/01/31 19:51:04.1	3.330	0.060	-0.520	0.320
2020/01/31 19:51:04.2	3.340	0.070	-0.560	0.290
2020/01/31 19:51:04.3	3.350	0.080	-0.600	0.260
2020/01/31 19:51:04.4	3.360	0.090	-0.640	0.230
2020/01/31 19:51:04.5	3.370	0.090	-0.680	0.190
2020/01/31 19:51:04.6	3.380	0.100	-0.710	0.150
2020/01/31 19:51:04.7	3.390	0.110	-0.750	0.120
2020/01/31 19:51:04.8	3.410	0.120	-0.790	0.070
2020/01/31 19:51:04.9	3.420	0.120	-0.830	0.030
2020/01/31 19:51:05.0	3.440	0.130	-0.870	-0.020
2020/01/31 19:51:05.1	3.460	0.140	-0.910	-0.060
2020/01/31 19:51:05.2	3.480	0.140	-0.950	-0.110
2020/01/31 19:51:05.3	3.500	0.150	-0.990	-0.170
2020/01/31 19:51:05.4	3.530	0.150	-1.030	-0.220
2020/01/31 19:51:05.5	3.550	0.160	-1.070	-0.280
2020/01/31 19:51:05.6	3.580	0.170	-1.110	-0.330
2020/01/31 19:51:05.7	3.610	0.170	-1.150	-0.390
2020/01/31 19:51:05.8	3.640	0.180	-1.190	-0.440
2020/01/31 19:51:05.9	3.660	0.180	-1.220	-0.510
2020/01/31 19:51:06.0	3.700	0.190	-1.260	-0.560
2020/01/31 19:51:06.1	3.730	0.200	-1.290	-0.610
2020/01/31 19:51:06.2	3.770	0.200	-1.320	-0.660
2020/01/31 19:51:06.3	3.810	0.210	-1.340	-0.710
2020/01/31 19:51:06.4	3.850	0.220	-1.360	-0.760
2020/01/31 19:51:06.5	3.880	0.220	-1.380	-0.800
2020/01/31 19:51:06.6	3.920	0.230	-1.390	-0.840
2020/01/31 19:51:06.7	3.960	0.230	-1.390	-0.870
2020/01/31 19:51:06.8	4.000	0.240	-1.390	-0.900
2020/01/31 19:51:06.9	4.040	0.240	-1.380	-0.930
2020/01/31 19:51:07.0	4.080	0.240	-1.370	-0.960
2020/01/31 19:51:07.1	4.110	0.240	-1.340	-0.980
2020/01/31 19:51:07.2	4.150	0.240	-1.310	-1.000
2020/01/31 19:51:07.3	4.180	0.240	-1.270	-1.020
2020/01/31 19:51:07.4	4.210	0.230	-1.230	-1.030
2020/01/31 19:51:07.5	4.250	0.230	-1.170	-1.040
2020/01/31 19:51:07.6	4.280	0.220	-1.110	-1.050
2020/01/31 19:51:07.7	4.310	0.210	-1.040	-1.060
2020/01/31 19:51:07.8	4.330	0.200	-0.970	-1.060
2020/01/31 19:51:07.9	4.360	0.180	-0.900	-1.060
2020/01/31 19:51:08.0	4.390	0.170	-0.810	-1.060
2020/01/31 19:51:08.1	4.410	0.150	-0.720	-1.050
2020/01/31 19:51:08.2	4.430	0.130	-0.630	-1.040
2020/01/31 19:51:08.3	4.440	0.100	-0.540	-1.030
2020/01/31 19:51:08.4	4.460	0.080	-0.440	-1.010
2020/01/31 19:51:08.5	4.470	0.050	-0.340	-0.990
2020/01/31 19:51:08.6	4.480	0.030	-0.240	-0.970
2020/01/31 19:51:08.7	4.490	-0.000	-0.140	-0.940
2020/01/31 19:51:08.8	4.490	-0.040	-0.030	-0.920
2020/01/31 19:51:08.9	4.490	-0.070	0.070	-0.880
2020/01/31 19:51:09.0	4.490	-0.100	0.170	-0.850
2020/01/31 19:51:09.1	4.480	-0.130	0.260	-0.810
2020/01/31 19:51:09.2	4.470	-0.170	0.360	-0.770
2020/01/31 19:51:09.3	4.450	-0.200	0.450	-0.730
2020/01/31 19:51:09.4	4.430	-0.240	0.540	-0.680
2020/01/31 19:51:09.5	4.410	-0.280	0.620	-0.640
2020/01/31 19:51:09.6	4.390	-0.310	0.700	-0.590
2020/01/31 19:51:09.7	4.360	-0.340	0.770	-0.540
2020/01/31 19:51:09.8	4.340	-0.380	0.830	-0.490
2020/01/31 19:51:09.9	4.310	-0.410	0.890	-0.440
2020/01/31 19:51:10.0	4.280	-0.440	0.940	-0.390
2020/01/31 19:51:10.1	4.240	-0.460	0.980	-0.340
2020/01/31 19:51:10.2	4.210	-0.490	1.020	-0.300
2020/01/31 19:51:10.3	4.170	-0.510	1.050	-0.250
2020/01/31 19:51:10.4	4.130	-0.530	1.070	-0.200
2020/01/31 19:51:10.5	4.090	-0.550	1.080	-0.160
2020/01/31 19:51:10.6	4.050	-0.560	1.080	-0.110
2020/01/31 19:51:10.7	4.010	-0.560	1.080	-0.060
2020/01/31 19:51:10.8	3.970	-0.570	1.060	-0.020
2020/01/31 19:51:10.9	3.910	-0.570	1.040	0.020
2020/01/31 19:51:11.0	3.870	-0.560	1.010	0.060
2020/01/31 19:51:11.1	3.830	-0.550	0.980	0.110
2020/01/31 19:51:11.2	3.780	-0.530	0.930	0.150
2020/01/31 19:51:11.3	3.740	-0.510	0.880	0.200
2020/01/31 19:51:11.4	3.700	-0.490	0.830	0.240
2020/01/31 19:51:11.5	3.650	-0.460	0.760	0.290
2020/01/31 19:51:11.6	3.610	-0.420	0.700	0.330
2020/01/31 19:51:11.7	3.570	-0.390	0.630	0.370
2020/01/31 19:51:11.8	3.530	-0.340	0.550	0.410
2020/01/31 19:51:11.9	3.500	-0.300	0.470	0.450
2020/01/31 19:51:12.0	3.460	-0.250	0.380	0.490
2020/01/31 19:51:12.1	3.420	-0.200	0.300	0.520
2020/01/31 19:51:12.2	3.390	-0.140	0.210	0.560
2020/01/31 19:51:12.3	3.360	-0.090	0.120	0.590
2020/01/31 19:51:12.4	3.320	-0.030	0.020	0.610
2020/01/31 19:51:12.5	3.300	0.030	-0.070	0.630
2020/01/31 19:51:12.6	3.270	0.080	-0.160	0.650
2020/01/31 19:51:12.7	3.250	0.140	-0.260	0.670
2020/01/31 19:51:12.8	3.230	0.200	-0.350	0.680
2020/01/31 19:51:12.9	3.220	0.250	-0.440	0.690
2020/01/31 19:51:13.0	3.200	0.310	-0.520	0.690
2020/01/31 19:51:13.1	3.190	0.360	-0.610	0.700
2020/01/31 19:51:13.2	3.180	0.400	-0.680	0.690
2020/01/31 19:51:13.3	3.170	0.450	-0.760	0.690
2020/01/31 19:51:13.4	3.160	0.490	-0.830	0.680
2020/01/31 19:51:13.5	3.160	0.520	-0.890	0.670
2020/01/31 19:51:13.6	3.160	0.560	-0.950	0.650
2020/01/31 19:51:13.7	3.160	0.580	-1.010	0.630
2020/01/31 19:51:13.8	3.170	0.600	-1.050	0.610
2020/01/31 19:51:13.9	3.190	0.620	-1.090	0.580
2020/01/31 19:51:14.0	3.200	0.630	-1.120	0.560
2020/01/31 19:51:14.1	3.210	0.640	-1.150	0.530
2020/01/31 19:51:14.2	3.230	0.640	-1.170	0.500
2020/01/31 19:51:14.3	3.250	0.630	-1.180	0.470
2020/01/31 19:51:14.4	3.270	0.620	-1.180	0.430
2020/01/31 19:51:14.5	3.290	0.610	-1.180	0.400
2020/01/31 19:51:14.6	3.320	0.590	-1.160	0.360
2020/01/31 19:51:14.7	3.340	0.560	-1.140	0.330
2020/01/31 19:51:14.8	3.370	0.530	-1.110	0.290
2020/01/31 19:51:14.9	3.400	0.500	-1.080	0.260
2020/01/31 19:51:15.0	3.420	0.460	-1.040	0.220
2020/01/31 19:51:15.1	3.450	0.420	-0.990	0.190
2020/01/31 19:51:15.2	3.470	0.380	-0.930	0.160
2020/01/31 19:51:15.3	3.490	0.330	-0.870	0.130
2020/01/31 19:51:15.4	3.510	0.280	-0.800	0.100
2020/01/31 19:51:15.5	3.530	0.230	-0.730	0.080
2020/01/31 19:51:15.6	3.540	0.170	-0.650	0.050
2020/01/31 19:51:15.7	3.560	0.120	-0.570	0.030
2020/01/31 19:51:15.8	3.570	0.060	-0.490	0.010
2020/01/31 19:51:15.9	3.560	0.000	-0.410	-0.020
2020/01/31 19:51:16.0	3.570	-0.050	-0.330	-0.040
2020/01/31 19:51:16.1	3.580	-0.110	-0.250	-0.060
2020/01/31 19:51:16.2	3.590	-0.160	-0.170	-0.080
2020/01/31 19:51:16.3	3.590	-0.210	-0.100	-0.100
2020/01/31 19:51:16.4	3.600	-0.260	-0.030	-0.120
2020/01/31 19:51:16.5	3.610	-0.310	0.030	-0.140
2020/01/31 19:51:16.6	3.620	-0.350	0.090	-0.170
2020/01/31 19:51:16.7	3.630	-0.390	0.140	-0.190
2020/01/31 19:51:16.8	3.640	-0.420	0.190	-0.220
2020/01/31 19:51:16.9	3.640	-0.450	0.220	-0.250
2020/01/31 19:51:17.0	3.650	-0.480	0.240	-0.280
2020/01/31 19:51:17.1	3.670	-0.500	0.260	-0.310
2020/01/31 19:51:17.2	3.680	-0.510	0.270	-0.350
2020/01/31 19:51:17.3	3.700	-0.520	0.270	-0.380
2020/01/31 19:51:17.4	3.710	-0.520	0.260	-0.420
2020/01/31 19:51:17.5	3.730	-0.520	0.240	-0.450
2020/01/31 19:51:17.6	3.740	-0.520	0.220	-0.480
2020/01/31 19:51:17.7	3.760	-0.510	0.190	-0.520
2020/01/31 19:51:17.8	3.780	-0.490	0.150	-0.550
2020/01/31 19:51:17.9	3.790	-0.470	0.110	-0.590
2020/01/31 19:51:18.0	3.810	-0.450	0.060	-0.620
2020/01/31 19:51:18.1	3.820	-0.420	0.000	-0.650
2020/01/31 19:51:18.2	3.830	-0.400	-0.050	-0.670
2020/01/31 19:51:18.3	3.840	-0.360	-0.110	-0.700
2020/01/31 19:51:18.4	3.850	-0.330	-0.170	-0.720
2020/01/31 19:51:18.5	3.850	-0.300	-0.230	-0.740
2020/01/31 19:51:18.6	3.860	-0.260	-0.290	-0.750
2020/01/31 19:51:18.7	3.860	-0.230	-0.350	-0.770
2020/01/31 19:51:18.8	3.850	-0.190	-0.410	-0.780
2020/01/31 19:51:18.9	3.840	-0.160	-0.460	-0.790
2020/01/31 19:51:19.0	3.830	-0.120	-0.520	-0.800
2020/01/31 19:51:19.1	3.820	-0.090	-0.560	-0.810
2020/01/31 19:51:19.2	3.810	-0.070	-0.600	-0.820
2020/01/31 19:51:19.3	3.790	-0.040	-0.640	-0.820
2020/01/31 19:51:19.4	3.780	-0.020	-0.670	-0.830
2020/01/31 19:51:19.5	3.760	0.000	-0.690	-0.830
2020/01/31 19:51:19.6	3.740	0.020	-0.710	-0.830
2020/01/31 19:51:19.7	3.720	0.030	-0.720	-0.830
2020/01/31 19:51:19.8	3.700	0.040	-0.730	-0.820
2020/01/31 19:51:19.9	3.680	0.050	-0.720	-0.820
2020/01/31 19:51:20.0	3.650	0.050	-0.710	-0.810
2020/01/31 19:51:20.1	3.630	0.050	-0.700	-0.800
2020/01/31 19:51:20.2	3.610	0.050	-0.680	-0.790
2020/01/31 19:51:20.3	3.590	0.040	-0.650	-0.770
2020/01/31 19:51:20.4	3.570	0.030	-0.620	-0.750
2020/01/31 19:51:20.5	3.550	0.020	-0.580	-0.730
2020/01/31 19:51:20.6	3.530	0.000	-0.540	-0.700
2020/01/31 19:51:20.7	3.510	-0.010	-0.490	-0.680
2020/01/31 19:51:20.8	3.500	-0.030	-0.440	-0.650
2020/01/31 19:51:20.9	3.490	-0.050	-0.390	-0.620
2020/01/31 19:51:21.0	3.470	-0.060	-0.340	-0.590
2020/01/31 19:51:21.1	3.460	-0.080	-0.280	-0.550
2020/01/31 19:51:21.2	3.450	-0.100	-0.220	-0.520
2020/01/31 19:51:21.3	3.440	-0.120	-0.160	-0.480
2020/01/31 19:51:21.4	3.430	-0.130	-0.110	-0.450
2020/01/31 19:51:21.5	3.420	-0.150	-0.050	-0.410
2020/01/31 19:51:21.6	3.420	-0.160	0.000	-0.370
2020/01/31 19:51:21.7	3.410	-0.170	0.050	-0.330
2020/01/31 19:51:21.8	3.400	-0.170	0.100	-0.290
2020/01/31 19:51:21.9	3.410	-0.170	0.150	-0.250
2020/01/31 19:51:22.0	3.400	-0.170	0.180	-0.210
2020/01/31 19:51:22.1	3.400	-0.170	0.220	-0.160
2020/01/31 19:51:22.2	3.390	-0.160	0.250	-0.120
2020/01/31 19:51:22.3	3.380	-0.150	0.280	-0.070
2020/01/31 19:51:22.4	3.370	-0.130	0.300	-0.030
2020/01/31 19:51:22.5	3.360	-0.110	0.320	0.020
2020/01/31 19:51:22.6	3.350	-0.090	0.330	0.070
2020/01/31 19:51:22.7	3.340	-0.060	0.340	0.120
2020/01/31 19:51:22.8	3.320	-0.030	0.340	0.180
2020/01/31 19:51:22.9	3.320	0.010	0.330	0.230
2020/01/31 19:51:23.0	3.300	0.040	0.320	0.280
2020/01/31 19:51:23.1	3.280	0.080	0.310	0.330
2020/01/31 19:51:23.2	3.260	0.130	0.290	0.380
2020/01/31 19:51:23.3	3.240	0.170	0.270	0.430
2020/01/31 19:51:23.4	3.220	0.210	0.250	0.480
2020/01/31 19:51:23.5	3.200	0.260	0.220	0.520
2020/01/31 19:51:23.6	3.180	0.310	0.190	0.570
2020/01/31 19:51:23.7	3.160	0.350	0.150	0.610
2020/01/31 19:51:23.8	3.140	0.400	0.110	0.650
2020/01/31 19:51:23.9	3.120	0.450	0.070	0.680
2020/01/31 19:51:24.0	3.100	0.490	0.030	0.710
2020/01/31 19:51:24.1	3.080	0.530	-0.010	0.740
2020/01/31 19:51:24.2	3.060	0.570	-0.060	0.770
2020/01/31 19:51:24.3	3.050	0.610	-0.110	0.790
2020/01/31 19:51:24.4	3.030	0.640	-0.150	0.800
2020/01/31 19:51:24.5	3.020	0.670	-0.200	0.810
2020/01/31 19:51:24.6	3.010	0.700	-0.250	0.820
2020/01/31 19:51:24.7	3.000	0.720	-0.290	0.820
2020/01/31 19:51:24.8	2.990	0.740	-0.340	0.820
2020/01/31 19:51:24.9	3.000	0.750	-0.380	0.810
2020/01/31 19:51:25.0	2.990	0.760	-0.420	0.800
2020/01/31 19:51:25.1	2.990	0.760	-0.470	0.780
2020/01/31 19:51:25.2	3.000	0.760	-0.500	0.760
2020/01/31 19:51:25.3	3.000	0.760	-0.540	0.740
2020/01/31 19:51:25.4	3.010	0.750	-0.570	0.710
2020/01/31 19:51:25.5	3.020	0.730	-0.600	0.680
2020/01/31 19:51:25.6	3.030	0.710	-0.630	0.640
2020/01/31 19:51:25.7	3.050	0.680	-0.660	0.590
2020/01/31 19:51:25.8	3.070	0.650	-0.680	0.550
2020/01/31 19:51:25.9	3.090	0.620	-0.700	0.490
2020/01/31 19:51:26.0	3.120	0.580	-0.710	0.440
2020/01/31 19:51:26.1	3.140	0.540	-0.720	0.380
2020/01/31 19:51:26.2	3.170	0.490	-0.730	0.310
2020/01/31 19:51:26.3	3.210	0.440	-0.730	0.250
2020/01/31 19:51:26.4	3.240	0.380	-0.730	0.180
2020/01/31 19:51:26.5	3.270	0.320	-0.720	0.100
2020/01/31 19:51:26.6	3.310	0.260	-0.710	0.030
2020/01/31 19:51:26.7	3.340	0.200	-0.700	-0.050
2020/01/31 19:51:26.8	3.370	0.140	-0.690	-0.130
2020/01/31 19:51:26.9	3.400	0.070	-0.660	-0.220
2020/01/31 19:51:27.0	3.430	0.000	-0.640	-0.300
2020/01/31 19:51:27.1	3.470	-0.070	-0.610	-0.380
2020/01/31 19:51:27.2	3.500	-0.140	-0.580	-0.460
2020/01/31 19:51:27.3	3.530	-0.210	-0.550	-0.540
2020/01/31 19:51:27.4	3.560	-0.270	-0.510	-0.620
2020/01/31 19:51:27.5	3.590	-0.340	-0.480	-0.700
2020/01/31 19:51:27.6	3.610	-0.410	-0.440	-0.770
2020/01/31 19:51:27.7	3.640	-0.470	-0.390	-0.840
2020/01/31 19:51:27.8	3.660	-0.540	-0.350	-0.910
2020/01/31 19:51:27.9	3.670	-0.600	-0.310	-0.970
2020/01/31 19:51:28.0	3.690	-0.660	-0.260	-1.030
2020/01/31 19:51:28.1	3.700	-0.720	-0.210	-1.080
2020/01/31 19:51:28.2	3.720	-0.770	-0.170	-1.130
2020/01/31 19:51:28.3	3.720	-0.820	-0.120	-1.170
2020/01/31 19:51:28.4	3.730	-0.860	-0.080	-1.200
2020/01/31 19:51:28.5	3.740	-0.910	-0.030	-1.230
2020/01/31 19:51:28.6	3.740	-0.940	0.010	-1.250
2020/01/31 19:51:28.7	3.740	-0.980	0.050	-1.270
2020/01/31 19:51:28.8	3.730	-1.010	0.090	-1.280
2020/01/31 19:51:28.9	3.730	-1.030	0.120	-1.290
2020/01/31 19:51:29.0	3.730	-1.050	0.150	-1.290
2020/01/31 19:51:29.1	3.720	-1.070	0.180	-1.290
2020/01/31 19:51:29.2	3.710	-1.070	0.200	-1.290
2020/01/31 19:51:29.3	3.710	-1.080	0.210	-1.280
2020/01/31 19:51:29.4	3.700	-1.080	0.230	-1.270
2020/01/31 19:51:29.5	3.690	-1.070	0.230	-1.260
2020/01/31 19:51:29.6	3.680	-1.060	0.230	-1.240
2020/01/31 19:51:29.7	3.680	-1.040	0.230	-1.230
2020/01/31 19:51:29.8	3.670	-1.010	0.220	-1.210
2020/01/31 19:51:29.9	3.670	-0.980	0.200	-1.190
2020/01/31 19:51:30.0	3.670	-0.950	0.180	-1.170
2020/01/31 19:51:30.1	3.660	-0.910	0.150	-1.140
2020/01/31 19:51:30.2	3.660	-0.860	0.120	-1.120
2020/01/31 19:51:30.3	3.660	-0.810	0.080	-1.100
2020/01/31 19:51:30.4	3.660	-0.750	0.030	-1.070
2020/01/31 19:51:30.5	3.670	-0.690	-0.010	-1.040
2020/01/31 19:51:30.6	3.670	-0.630	-0.070	-1.020
2020/01/31 19:51:30.7	3.670	-0.560	-0.120	-0.990
2020/01/31 19:51:30.8	3.680	-0.490	-0.180	-0.960
2020/01/31 19:51:30.9	3.680	-0.420	-0.240	-0.920
2020/01/31 19:51:31.0	3.680	-0.340	-0.300	-0.890
2020/01/31 19:51:31.1	3.690	-0.260	-0.370	-0.850
2020/01/31 19:51:31.2	3.690	-0.180	-0.430	-0.820
2020/01/31 19:51:31.3	3.700	-0.100	-0.490	-0.780
2020/01/31 19:51:31.4	3.700	-0.020	-0.540	-0.740
2020/01/31 19:51:31.5	3.710	0.060	-0.600	-0.700
2020/01/31 19:51:31.6	3.710	0.140	-0.650	-0.660
2020/01/31 19:51:31.7	3.720	0.210	-0.700	-0.620
2020/01/31 19:51:31.8	3.720	0.290	-0.740	-0.570
2020/01/31 19:51:31.9	3.730	0.360	-0.790	-0.530
2020/01/31 19:51:32.0	3.730	0.430	-0.820	-0.490
2020/01/31 19:51:32.1	3.740	0.490	-0.850	-0.440
2020/01/31 19:51:32.2	3.740	0.550	-0.870	-0.400
2020/01/31 19:51:32.3	3.740	0.610	-0.880	-0.360
2020/01/31 19:51:32.4	3.740	0.660	-0.890	-0.320
2020/01/31 19:51:32.5	3.740	0.700	-0.890	-0.280
2020/01/31 19:51:32.6	3.740	0.740	-0.880	-0.240
2020/01/31 19:51:32.7	3.740	0.770	-0.860	-0.200
2020/01/31 19:51:32.8	3.740	0.800	-0.840	-0.160
2020/01/31 19:51:32.9	3.730	0.810	-0.800	-0.120
2020/01/31 19:51:33.0	3.730	0.830	-0.760	-0.090
2020/01/31 19:51:33.1	3.720	0.830	-0.720	-0.050
2020/01/31 19:51:33.2	3.710	0.830	-0.660	-0.020
2020/01/31 19:51:33.3	3.700	0.820	-0.600	0.010
2020/01/31 19:51:33.4	3.700	0.810	-0.540	0.040
2020/01/31 19:51:33.5	3.680	0.780	-0.470	0.070
2020/01/31 19:51:33.6	3.670	0.760	-0.390	0.090
2020/01/31 19:51:33.7	3.660	0.720	-0.310	0.120
2020/01/31 19:51:33.8	3.650	0.680	-0.230	0.140
2020/01/31 19:51:33.9	3.620	0.640	-0.140	0.160
2020/01/31 19:51:34.0	3.610	0.590	-0.050	0.180
2020/01/31 19:51:34.1	3.590	0.540	0.030	0.200
2020/01/31 19:51:34.2	3.580	0.480	0.120	0.220
2020/01/31 19:51:34.3	3.560	0.420	0.210	0.240
2020/01/31 19:51:34.4	3.540	0.360	0.290	0.260
2020/01/31 19:51:34.5	3.520	0.300	0.370	0.280
2020/01/31 19:51:34.6	3.510	0.230	0.440	0.290
2020/01/31 19:51:34.7	3.490	0.170	0.510	0.310
2020/01/31 19:51:34.8	3.470	0.100	0.580	0.320
2020/01/31 19:51:34.9	3.450	0.040	0.630	0.340
2020/01/31 19:51:35.0	3.430	-0.020	0.680	0.350
2020/01/31 19:51:35.1	3.410	-0.080	0.720	0.350
2020/01/31 19:51:35.2	3.400	-0.140	0.750	0.360
2020/01/31 19:51:35.3	3.380	-0.190	0.770	0.360
2020/01/31 19:51:35.4	3.360	-0.240	0.780	0.360
2020/01/31 19:51:35.5	3.340	-0.290	0.780	0.350
2020/01/31 19:51:35.6	3.330	-0.330	0.770	0.340
2020/01/31 19:51:35.7	3.310	-0.360	0.750	0.330
2020/01/31 19:51:35.8	3.300	-0.390	0.720	0.310
2020/01/31 19:51:35.9	3.300	-0.420	0.670	0.280
2020/01/31 19:51:36.0	3.280	-0.440	0.620	0.250
2020/01/31 19:51:36.1	3.270	-0.450	0.560	0.230
2020/01/31 19:51:36.2	3.270	-0.450	0.490	0.190
2020/01/31 19:51:36.3	3.260	-0.450	0.410	0.160
2020/01/31 19:51:36.4	3.260	-0.440	0.330	0.120
2020/01/31 19:51:36.5	3.250	-0.430	0.240	0.080
2020/01/31 19:51:36.6	3.250	-0.410	0.140	0.030
2020/01/31 19:51:36.7	3.250	-0.380	0.040	-0.010
2020/01/31 19:51:36.8	3.260	-0.340	-0.070	-0.050
2020/01/31 19:51:36.9	3.260	-0.300	-0.180	-0.100
2020/01/31 19:51:37.0	3.260	-0.260	-0.290	-0.150
2020/01/31 19:51:37.1	3.270	-0.210	-0.400	-0.190
2020/01/31 19:51:37.2	3.280	-0.150	-0.510	-0.230
2020/01/31 19:51:37.3	3.290	-0.100	-0.610	-0.280
2020/01/31 19:51:37.4	3.310	-0.040	-0.720	-0.320
2020/01/31 19:51:37.5	3.320	0.020	-0.820	-0.350
2020/01/31 19:51:37.6	3.340	0.090	-0.920	-0.390
2020/01/31 19:51:37.7	3.360	0.150	-1.010	-0.420
2020/01/31 19:51:37.8	3.380	0.210	-1.090	-0.450
2020/01/31 19:51:37.9	3.400	0.270	-1.170	-0.480
2020/01/31 19:51:38.0	3.420	0.330	-1.240	-0.500
2020/01/31 19:51:38.1	3.440	0.390	-1.290	-0.520
2020/01/31 19:51:38.2	3.470	0.440	-1.350	-0.540
2020/01/31 19:51:38.3	3.490	0.490	-1.390	-0.550
2020/01/31 19:51:38.4	3.510	0.540	-1.420	-0.560
2020/01/31 19:51:38.5	3.540	0.580	-1.440	-0.570
2020/01/31 19:51:38.6	3.560	0.610	-1.450	-0.580
2020/01/31 19:51:38.7	3.590	0.640	-1.450	-0.590
2020/01/31 19:51:38.8	3.610	0.660	-1.440	-0.590
2020/01/31 19:51:38.9	3.640	0.680	-1.420	-0.590
2020/01/31 19:51:39.0	3.660	0.690	-1.390	-0.590
2020/01/31 19:51:39.1	3.680	0.690	-1.350	-0.590
2020/01/31 19:51:39.2	3.700	0.680	-1.300	-0.580
2020/01/31 19:51:39.3	3.720	0.670	-1.240	-0.580
2020/01/31 19:51:39.4	3.740	0.650	-1.170	-0.570
2020/01/31 19:51:39.5	3.750	0.620	-1.100	-0.560
2020/01/31 19:51:39.6	3.760	0.580	-1.010	-0.560
2020/01/31 19:51:39.7	3.770	0.540	-0.920	-0.550
2020/01/31 19:51:39.8	3.780	0.500	-0.830	-0.540
2020/01/31 19:51:39.9	3.800	0.440	-0.730	-0.520
2020/01/31 19:51:40.0	3.800	0.380	-0.630	-0.510
2020/01/31 19:51:40.1	3.810	0.320	-0.530	-0.500
2020/01/31 19:51:40.2	3.810	0.250	-0.420	-0.490
2020/01/31 19:51:40.3	3.810	0.180	-0.310	-0.480
2020/01/31 19:51:40.4	3.810	0.110	-0.210	-0.470
2020/01/31 19:51:40.5	3.810	0.040	-0.100	-0.450
2020/01/31 19:51:40.6	3.810	-0.040	-0.000	-0.440
2020/01/31 19:51:40.7	3.800	-0.120	0.100	-0.430
2020/01/31 19:51:40.8	3.800	-0.190	0.190	-0.420
2020/01/31 19:51:40.9	3.800	-0.270	0.280	-0.410
2020/01/31 19:51:41.0	3.800	-0.340	0.370	-0.390
2020/01/31 19:51:41.1	3.790	-0.410	0.450	-0.380
2020/01/31 19:51:41.2	3.780	-0.480	0.520	-0.360
2020/01/31 19:51:41.3	3.780	-0.550	0.590	-0.350
2020/01/31 19:51:41.4	3.770	-0.610	0.650	-0.330
2020/01/31 19:51:41.5	3.760	-0.660	0.700	-0.320
2020/01/31 19:51:41.6	3.750	-0.710	0.750	-0.300
2020/01/31 19:51:41.7	3.750	-0.760	0.780	-0.290
2020/01/31 19:51:41.8	3.740	-0.800	0.810	-0.270
2020/01/31 19:51:41.9	3.720	-0.830	0.830	-0.250
2020/01/31 19:51:42.0	3.710	-0.860	0.850	-0.240
2020/01/31 19:51:42.1	3.700	-0.880	0.850	-0.220
2020/01/31 19:51:42.2	3.700	-0.890	0.840	-0.210
2020/01/31 19:51:42.3	3.690	-0.900	0.830	-0.190
2020/01/31 19:51:42.4	3.680	-0.900	0.800	-0.180
2020/01/31 19:51:42.5	3.670	-0.900	0.770	-0.160
2020/01/31 19:51:42.6	3.660	-0.880	0.730	-0.150
2020/01/31 19:51:42.7	3.650	-0.860	0.690	-0.130
2020/01/31 19:51:42.8	3.640	-0.840	0.630	-0.120
2020/01/31 19:51:42.9	3.640	-0.810	0.570	-0.100
2020/01/31 19:51:43.0	3.640	-0.770	0.510	-0.090
2020/01/31 19:51:43.1	3.630	-0.730	0.440	-0.080
2020/01/31 19:51:43.2	3.630	-0.680	0.370	-0.070
2020/01/31 19:51:43.3	3.620	-0.630	0.290	-0.050
2020/01/31 19:51:43.4	3.620	-0.580	0.220	-0.040
2020/01/31 19:51:43.5	3.620	-0.520	0.140	-0.030
2020/01/31 19:51:43.6	3.610	-0.460	0.060	-0.020
2020/01/31 19:51:43.7	3.610	-0.400	-0.020	-0.010
2020/01/31 19:51:43.8	3.610	-0.340	-0.100	-0.010
2020/01/31 19:51:43.9	3.620	-0.280	-0.180	-0.000
2020/01/31 19:51:44.0	3.630	-0.210	-0.260	0.000
2020/01/31 19:51:44.1	3.630	-0.150	-0.330	0.010
2020/01/31 19:51:44.2	3.630	-0.090	-0.410	0.010
2020/01/31 19:51:44.3	3.630	-0.030	-0.470	0.010
2020/01/31 19:51:44.4	3.640	0.030	-0.540	0.010
2020/01/31 19:51:44.5	3.640	0.090	-0.600	0.010
2020/01/31 19:51:44.6	3.650	0.140	-0.650	0.000
2020/01/31 19:51:44.7	3.660	0.190	-0.700	-0.000
2020/01/31 19:51:44.8	3.660	0.240	-0.740	-0.010
2020/01/31 19:51:44.9	3.670	0.280	-0.780	-0.010
2020/01/31 19:51:45.0	3.680	0.320	-0.810	-0.020
2020/01/31 19:51:45.1	3.690	0.360	-0.840	-0.030
2020/01/31 19:51:45.2	3.700	0.390	-0.860	-0.040
2020/01/31 19:51:45.3	3.710	0.410	-0.880	-0.060
2020/01/31 19:51:45.4	3.720	0.430	-0.890	-0.070
2020/01/31 19:51:45.5	3.730	0.440	-0.890	-0.090
2020/01/31 19:51:45.6	3.740	0.450	-0.900	-0.100
2020/01/31 19:51:45.7	3.750	0.460	-0.890	-0.120
2020/01/31 19:51:45.8	3.760	0.460	-0.890	-0.150
2020/01/31 19:51:45.9	3.770	0.460	-0.880	-0.170
2020/01/31 19:51:46.0	3.780	0.450	-0.860	-0.190
2020/01/31 19:51:46.1	3.800	0.430	-0.850	-0.220
2020/01/31 19:51:46.2	3.810	0.420	-0.830	-0.250
2020/01/31 19:51:46.3	3.820	0.400	-0.810	-0.280
2020/01/31 19:51:46.4	3.830	0.370	-0.780	-0.300
2020/01/31 19:51:46.5	3.840	0.350	-0.750	-0.330
2020/01/31 19:51:46.6	3.850	0.320	-0.730	-0.360
2020/01/31 19:51:46.7	3.860	0.290	-0.700	-0.390
2020/01/31 19:51:46.8	3.870	0.260	-0.670	-0.420
2020/01/31 19:51:46.9	3.880	0.230	-0.640	-0.450
2020/01/31 19:51:47.0	3.890	0.200	-0.610	-0.470
2020/01/31 19:51:47.1	3.890	0.160	-0.570	-0.500
2020/01/31 19:51:47.2	3.890	0.130	-0.540	-0.520
2020/01/31 19:51:47.3	3.890	0.100	-0.510	-0.530
2020/01/31 19:51:47.4	3.890	0.070	-0.470	-0.550
2020/01/31 19:51:47.5	3.890	0.050	-0.440	-0.560
2020/01/31 19:51:47.6	3.890	0.020	-0.410	-0.570
2020/01/31 19:51:47.7	3.880	0.000	-0.370	-0.580
2020/01/31 19:51:47.8	3.880	-0.020	-0.340	-0.580
2020/01/31 19:51:47.9	3.870	-0.030	-0.310	-0.580
2020/01/31 19:51:48.0	3.860	-0.040	-0.280	-0.570
2020/01/31 19:51:48.1	3.850	-0.050	-0.250	-0.560
2020/01/31 19:51:48.2	3.840	-0.050	-0.220	-0.540
2020/01/31 19:51:48.3	3.830	-0.040	-0.190	-0.520
2020/01/31 19:51:48.4	3.810	-0.040	-0.160	-0.500
2020/01/31 19:51:48.5	3.800	-0.030	-0.140	-0.470
2020/01/31 19:51:48.6	3.780	-0.010	-0.110	-0.440
2020/01/31 19:51:48.7	3.770	0.010	-0.090	-0.410
2020/01/31 19:51:48.8	3.750	0.030	-0.060	-0.370
2020/01/31 19:51:48.9	3.720	0.060	-0.040	-0.340
2020/01/31 19:51:49.0	3.710	0.090	-0.020	-0.300
2020/01/31 19:51:49.1	3.690	0.120	-0.000	-0.260
2020/01/31 19:51:49.2	3.670	0.160	0.020	-0.220
2020/01/31 19:51:49.3	3.650	0.190	0.030	-0.180
2020/01/31 19:51:49.4	3.630	0.230	0.050	-0.130
2020/01/31 19:51:49.5	3.610	0.260	0.060	-0.090
2020/01/31 19:51:49.6	3.590	0.300	0.080	-0.050
2020/01/31 19:51:49.7	3.580	0.340	0.090	-0.020
2020/01/31 19:51:49.8	3.560	0.370	0.100	0.020
2020/01/31 19:51:49.9	3.550	0.410	0.110	0.060
2020/01/31 19:51:50.0	3.540	0.440	0.120	0.090
2020/01/31 19:51:50.1	3.530	0.470	0.120	0.120
2020/01/31 19:51:50.2	3.520	0.500	0.130	0.150
2020/01/31 19:51:50.3	3.510	0.520	0.140	0.180
2020/01/31 19:51:50.4	3.500	0.540	0.140	0.210
2020/01/31 19:51:50.5	3.500	0.560	0.140	0.230
2020/01/31 19:51:50.6	3.490	0.570	0.150	0.250
2020/01/31 19:51:50.7	3.480	0.580	0.150	0.270
2020/01/31 19:51:50.8	3.480	0.580	0.150	0.290
2020/01/31 19:51:50.9	3.480	0.580	0.150	0.310
2020/01/31 19:51:51.0	3.470	0.580	0.150	0.320
2020/01/31 19:51:51.1	3.470	0.570	0.150	0.330
2020/01/31 19:51:51.2	3.470	0.550	0.150	0.340
2020/01/31 19:51:51.3	3.470	0.530	0.150	0.340
2020/01/31 19:51:51.4	3.470	0.500	0.150	0.350
2020/01/31 19:51:51.5	3.470	0.470	0.140	0.350
2020/01/31 19:51:51.6	3.470	0.440	0.140	0.350
2020/01/31 19:51:51.7	3.470	0.400	0.130	0.340
2020/01/31 19:51:51.8	3.480	0.360	0.120	0.330
2020/01/31 19:51:51.9	3.490	0.310	0.110	0.310
2020/01/31 19:51:52.0	3.500	0.260	0.100	0.300
2020/01/31 19:51:52.1	3.500	0.210	0.090	0.270
2020/01/31 19:51:52.2	3.510	0.160	0.070	0.250
2020/01/31 19:51:52.3	3.520	0.100	0.050	0.220
2020/01/31 19:51:52.4	3.540	0.050	0.020	0.180
2020/01/31 19:51:52.5	3.550	-0.010	-0.000	0.140
2020/01/31 19:51:52.6	3.570	-0.070	-0.030	0.100
2020/01/31 19:51:52.7	3.580	-0.130	-0.060	0.050
2020/01/31 19:51:52.8	3.600	-0.190	-0.100	-0.000
2020/01/31 19:51:52.9	3.610	-0.240	-0.140	-0.060
2020/01/31 19:51:53.0	3.630	-0.300	-0.180	-0.120
2020/01/31 19:51:53.1	3.650	-0.350	-0.220	-0.180
2020/01/31 19:51:53.2	3.670	-0.400	-0.270	-0.250
2020/01/31 19:51:53.3	3.690	-0.460	-0.310	-0.310
2020/01/31 19:51:53.4	3.720	-0.500	-0.360	-0.380
2020/01/31 19:51:53.5	3.740	-0.550	-0.410	-0.450
2020/01/31 19:51:53.6	3.760	-0.590	-0.460	-0.520
2020/01/31 19:51:53.7	3.790	-0.630	-0.520	-0.600
2020/01/31 19:51:53.8	3.810	-0.670	-0.570	-0.670
2020/01/31 19:51:53.9	3.840	-0.700	-0.620	-0.750
2020/01/31 19:51:54.0	3.860	-0.730	-0.670	-0.820
2020/01/31 19:51:54.1	3.890	-0.750	-0.720	-0.890
2020/01/31 19:51:54.2	3.910	-0.770	-0.770	-0.960
2020/01/31 19:51:54.3	3.940	-0.790	-0.820	-1.030
2020/01/31 19:51:54.4	3.970	-0.800	-0.870	-1.090
2020/01/31 19:51:54.5	3.990	-0.810	-0.910	-1.150
2020/01/31 19:51:54.6	4.020	-0.820	-0.950	-1.220
2020/01/31 19:51:54.7	4.050	-0.820	-0.980	-1.270
2020/01/31 19:51:54.8	4.070	-0.820	-1.020	-1.330
2020/01/31 19:51:54.9	4.100	-0.810	-1.050	-1.380
2020/01/31 19:51:55.0	4.120	-0.800	-1.070	-1.430
2020/01/31 19:51:55.1	4.150	-0.780	-1.090	-1.470
2020/01/31 19:51:55.2	4.170	-0.770	-1.100	-1.510
2020/01/31 19:51:55.3	4.200	-0.750	-1.110	-1.540
2020/01/31 19:51:55.4	4.220	-0.720	-1.120	-1.570
2020/01/31 19:51:55.5	4.250	-0.690	-1.120	-1.590
2020/01/31 19:51:55.6	4.270	-0.660	-1.110	-1.600
2020/01/31 19:51:55.7	4.290	-0.630	-1.090	-1.610
2020/01/31 19:51:55.8	4.310	-0.590	-1.070	-1.620
2020/01/31 19:51:55.9	4.330	-0.550	-1.050	-1.620
2020/01/31 19:51:56.0	4.350	-0.500	-1.020	-1.610
2020/01/31 19:51:56.1	4.360	-0.460	-0.980	-1.590
2020/01/31 19:51:56.2	4.380	-0.410	-0.940	-1.570
2020/01/31 19:51:56.3	4.390	-0.360	-0.900	-1.540
2020/01/31 19:51:56.4	4.400	-0.310	-0.850	-1.510
2020/01/31 19:51:56.5	4.410	-0.260	-0.790	-1.460
2020/01/31 19:51:56.6	4.420	-0.210	-0.730	-1.410
2020/01/31 19:51:56.7	4.420	-0.150	-0.660	-1.350
2020/01/31 19:51:56.8	4.420	-0.100	-0.590	-1.290
2020/01/31 19:51:56.9	4.430	-0.040	-0.520	-1.210
2020/01/31 19:51:57.0	4.420	0.020	-0.450	-1.130
2020/01/31 19:51:57.1	4.410	0.070	-0.370	-1.040
2020/01/31 19:51:57.2	4.400	0.130	-0.290	-0.950
2020/01/31 19:51:57.3	4.380	0.180	-0.210	-0.850
2020/01/31 19:51:57.4	4.360	0.240	-0.130	-0.750
2020/01/31 19:51:57.5	4.340	0.290	-0.050	-0.640
2020/01/31 19:51:57.6	4.310	0.340	0.030	-0.530
2020/01/31 19:51:57.7	4.290	0.390	0.110	-0.420
2020/01/31 19:51:57.8	4.260	0.440	0.180	-0.300
2020/01/31 19:51:57.9	4.230	0.490	0.250	-0.180
2020/01/31 19:51:58.0	4.200	0.540	0.310	-0.070
2020/01/31 19:51:58.1	4.170	0.580	0.370	0.050
2020/01/31 19:51:58.2	4.140	0.620	0.430	0.160
2020/01/31 19:51:58.3	4.110	0.660	0.480	0.270
2020/01/31 19:51:58.4	4.080	0.700	0.520	0.380
2020/01/31 19:51:58.5	4.050	0.740	0.550	0.480
2020/01/31 19:51:58.6	4.030	0.770	0.570	0.580
2020/01/31 19:51:58.7	4.000	0.800	0.590	0.680
2020/01/31 19:51:58.8	3.980	0.830	0.600	0.770
2020/01/31 19:51:58.9	3.970	0.850	0.600	0.850
2020/01/31 19:51:59.0	3.960	0.880	0.590	0.930
2020/01/31 19:51:59.1	3.940	0.900	0.570	1.000
2020/01/31 19:51:59.2	3.920	0.920	0.550	1.070
2020/01/31 19:51:59.3	3.900	0.930	0.520	1.130
2020/01/31 19:51:59.4	3.890	0.940	0.480	1.180
2020/01/31 19:51:59.5	3.870	0.950	0.440	1.230
2020/01/31 19:51:59.6	3.850	0.950	0.390	1.260
2020/01/31 19:51:59.7	3.840	0.950	0.340	1.300
2020/01/31 19:51:59.8	3.820	0.950	0.290	1.320
2020/01/31 19:51:59.9	3.810	0.940	0.230	1.340
2020/01/31 19:52:00.0	3.790	0.920	0.170	1.350
2020/01/31 19:52:00.1	3.780	0.910	0.110	1.350
2020/01/31 19:52:00.2	3.760	0.890	0.050	1.350
2020/01/31 19:52:00.3	3.750	0.860	-0.010	1.340
2020/01/31 19:52:00.4	3.730	0.830	-0.070	1.320
2020/01/31 19:52:00.5	3.720	0.800	-0.130	1.300
2020/01/31 19:52:00.6	3.710	0.760	-0.190	1.270
2020/01/31 19:52:00.7	3.700	0.720	-0.240	1.240
2020/01/31 19:52:00.8	3.690	0.680	-0.300	1.200
2020/01/31 19:52:00.9	3.690	0.630	-0.340	1.150
2020/01/31 19:52:01.0	3.690	0.580	-0.390	1.100
2020/01/31 19:52:01.1	3.680	0.520	-0.430	1.040
2020/01/31 19:52:01.2	3.680	0.460	-0.480	0.980
2020/01/31 19:52:01.3	3.680	0.400	-0.510	0.920
2020/01/31 19:52:01.4	3.680	0.340	-0.540	0.850
2020/01/31 19:52:01.5	3.690	0.270	-0.570	0.770
2020/01/31 19:52:01.6	3.690	0.210	-0.600	0.690
2020/01/31 19:52:01.7	3.700	0.140	-0.620	0.610
2020/01/31 19:52:01.8	3.710	0.070	-0.630	0.520
2020/01/31 19:52:01.9	3.710	-0.000	-0.650	0.430
2020/01/31 19:52:02.0	3.720	-0.080	-0.650	0.340
2020/01/31 19:52:02.1	3.740	-0.150	-0.660	0.240
2020/01/31 19:52:02.2	3.750	-0.220	-0.660	0.140
2020/01/31 19:52:02.3	3.760	-0.300	-0.660	0.040
2020/01/31 19:52:02.4	3.780	-0.370	-0.650	-0.060
2020/01/31 19:52:02.5	3.800	-0.440	-0.640	-0.170
2020/01/31 19:52:02.6	3.820	-0.510	-0.630	-0.270
2020/01/31 19:52:02.7	3.830	-0.570	-0.620	-0.370
2020/01/31 19:52:02.8	3.850	-0.640	-0.600	-0.470
2020/01/31 19:52:02.9	3.870	-0.700	-0.580	-0.580
2020/01/31 19:52:03.0	3.890	-0.760	-0.560	-0.680
2020/01/31 19:52:03.1	3.910	-0.810	-0.540	-0.770
2020/01/31 19:52:03.2	3.930	-0.860	-0.520	-0.860
2020/01/31 19:52:03.3	3.950	-0.910	-0.490	-0.940
2020/01/31 19:52:03.4	3.970	-0.950	-0.460	-1.020
2020/01/31 19:52:03.5	3.990	-0.990	-0.440	-1.090
2020/01/31 19:52:03.6	4.000	-1.020	-0.410	-1.160
2020/01/31 19:52:03.7	4.020	-1.050	-0.380	-1.220
2020/01/31 19:52:03.8	4.030	-1.070	-0.350	-1.280
2020/01/31 19:52:03.9	4.040	-1.090	-0.320	-1.320
2020/01/31 19:52:04.0	4.050	-1.100	-0.290	-1.360
2020/01/31 19:52:04.1	4.060	-1.100	-0.260	-1.390
2020/01/31 19:52:04.2	4.070	-1.100	-0.230	-1.420
2020/01/31 19:52:04.3	4.080	-1.100	-0.200	-1.440
2020/01/31 19:52:04.4	4.090	-1.090	-0.180	-1.440
2020/01/31 19:52:04.5	4.090	-1.070	-0.150	-1.450
2020/01/31 19:52:04.6	4.090	-1.050	-0.130	-1.440
2020/01/31 19:52:04.7	4.090	-1.020	-0.110	-1.430
2020/01/31 19:52:04.8	4.090	-0.990	-0.090	-1.410
2020/01/31 19:52:04.9	4.090	-0.950	-0.070	-1.390
2020/01/31 19:52:05.0	4.080	-0.910	-0.060	-1.360
2020/01/31 19:52:05.1	4.080	-0.860	-0.050	-1.320
2020/01/31 19:52:05.2	4.070	-0.810	-0.040	-1.280
2020/01/31 19:52:05.3	4.060	-0.750	-0.030	-1.240
2020/01/31 19:52:05.4	4.050	-0.690	-0.030	-1.190
2020/01/31 19:52:05.5	4.040	-0.630	-0.030	-1.130
2020/01/31 19:52:05.6	4.030	-0.560	-0.030	-1.070
2020/01/31 19:52:05.7	4.020	-0.490	-0.040	-1.010
2020/01/31 19:52:05.8	4.010	-0.420	-0.040	-0.940
2020/01/31 19:52:05.9	4.000	-0.350	-0.060	-0.860
2020/01/31 19:52:06.0	3.980	-0.270	-0.070	-0.790
2020/01/31 19:52:06.1	3.970	-0.200	-0.090	-0.710
2020/01/31 19:52:06.2	3.960	-0.120	-0.110	-0.620
2020/01/31 19:52:06.3	3.940	-0.040	-0.120	-0.540
2020/01/31 19:52:06.4	3.930	0.040	-0.140	-0.450
2020/01/31 19:52:06.5	3.920	0.120	-0.160	-0.360
2020/01/31 19:52:06.6	3.900	0.190	-0.190	-0.260
2020/01/31 19:52:06.7	3.890	0.270	-0.210	-0.170
2020/01/31 19:52:06.8	3.880	0.340	-0.230	-0.080
2020/01/31 19:52:06.9	3.870	0.410	-0.250	0.020
2020/01/31 19:52:07.0	3.860	0.480	-0.270	0.110
2020/01/31 19:52:07.1	3.850	0.550	-0.300	0.210
2020/01/31 19:52:07.2	3.830	0.610	-0.320	0.300
2020/01/31 19:52:07.3	3.830	0.660	-0.330	0.390
2020/01/31 19:52:07.4	3.820	0.720	-0.350	0.470
2020/01/31 19:52:07.5	3.810	0.760	-0.370	0.550
2020/01/31 19:52:07.6	3.800	0.810	-0.380	0.630
2020/01/31 19:52:07.7	3.800	0.840	-0.390	0.700
2020/01/31 19:52:07.8	3.790	0.880	-0.410	0.760
2020/01/31 19:52:07.9	3.800	0.900	-0.420	0.830
2020/01/31 19:52:08.0	3.790	0.920	-0.420	0.880
2020/01/31 19:52:08.1	3.790	0.940	-0.430	0.930
2020/01/31 19:52:08.2	3.790	0.950	-0.440	0.960
2020/01/31 19:52:08.3	3.790	0.950	-0.440	1.000
2020/01/31 19:52:08.4	3.790	0.950	-0.440	1.020
2020/01/31 19:52:08.5	3.800	0.940	-0.440	1.040
2020/01/31 19:52:08.6	3.800	0.930	-0.440	1.050
2020/01/31 19:52:08.7	3.800	0.910	-0.440	1.050
2020/01/31 19:52:08.8	3.800	0.890	-0.440	1.050
2020/01/31 19:52:08.9	3.820	0.860	-0.440	1.040
2020/01/31 19:52:09.0	3.820	0.830	-0.430	1.020
2020/01/31 19:52:09.1	3.820	0.800	-0.430	1.000
2020/01/31 19:52:09.2	3.820	0.760	-0.420	0.980
2020/01/31 19:52:09.3	3.820	0.710	-0.420	0.950
2020/01/31 19:52:09.4	3.830	0.660	-0.410	0.910
2020/01/31 19:52:09.5	3.830	0.610	-0.410	0.870
2020/01/31 19:52:09.6	3.830	0.560	-0.400	0.820
2020/01/31 19:52:09.7	3.820	0.510	-0.400	0.770
2020/01/31 19:52:09.8	3.820	0.450	-0.390	0.720
2020/01/31 19:52:09.9	3.840	0.390	-0.390	0.650
2020/01/31 19:52:10.0	3.840	0.340	-0.390	0.590
2020/01/31 19:52:10.1	3.840	0.280	-0.380	0.530
2020/01/31 19:52:10.2	3.840	0.220	-0.380	0.460
2020/01/31 19:52:10.3	3.840	0.170	-0.380	0.390
2020/01/31 19:52:10.4	3.840	0.110	-0.370	0.320
2020/01/31 19:52:10.5	3.850	0.060	-0.370	0.240
2020/01/31 19:52:10.6	3.850	0.000	-0.370	0.170
2020/01/31 19:52:10.7	3.860	-0.050	-0.360	0.090
2020/01/31 19:52:10.8	3.870	-0.090	-0.360	0.020
2020/01/31 19:52:10.9	3.870	-0.140	-0.350	-0.060
2020/01/31 19:52:11.0	3.870	-0.180	-0.350	-0.140
2020/01/31 19:52:11.1	3.880	-0.220	-0.350	-0.210
2020/01/31 19:52:11.2	3.890	-0.250	-0.350	-0.280
2020/01/31 19:52:11.3	3.900	-0.280	-0.340	-0.350
2020/01/31 19:52:11.4	3.900	-0.310	-0.340	-0.410
2020/01/31 19:52:11.5	3.910	-0.330	-0.340	-0.470
2020/01/31 19:52:11.6	3.910	-0.350	-0.330	-0.520
2020/01/31 19:52:11.7	3.910	-0.370	-0.320	-0.580
2020/01/31 19:52:11.8	3.910	-0.380	-0.320	-0.620
2020/01/31 19:52:11.9	3.910	-0.390	-0.310	-0.670
2020/01/31 19:52:12.0	3.910	-0.400	-0.300	-0.710
2020/01/31 19:52:12.1	3.910	-0.400	-0.290	-0.740
2020/01/31 19:52:12.2	3.900	-0.400	-0.270	-0.770
2020/01/31 19:52:12.3	3.900	-0.400	-0.250	-0.790
2020/01/31 19:52:12.4	3.890	-0.390	-0.230	-0.800
2020/01/31 19:52:12.5	3.880	-0.380	-0.210	-0.810
2020/01/31 19:52:12.6	3.870	-0.370	-0.190	-0.820
2020/01/31 19:52:12.7	3.860	-0.360	-0.170	-0.820
2020/01/31 19:52:12.8	3.850	-0.340	-0.150	-0.820
2020/01/31 19:52:12.9	3.810	-0.330	-0.120	-0.810
2020/01/31 19:52:13.0	3.800	-0.310	-0.100	-0.800
2020/01/31 19:52:13.1	3.790	-0.290	-0.070	-0.780
2020/01/31 19:52:13.2	3.770	-0.270	-0.050	-0.760
2020/01/31 19:52:13.3	3.760	-0.250	-0.030	-0.740
2020/01/31 19:52:13.4	3.750	-0.220	-0.010	-0.710
2020/01/31 19:52:13.5	3.740	-0.200	0.010	-0.680
2020/01/31 19:52:13.6	3.730	-0.170	0.030	-0.650
2020/01/31 19:52:13.7	3.720	-0.150	0.040	-0.610
2020/01/31 19:52:13.8	3.710	-0.120	0.060	-0.570
2020/01/31 19:52:13.9	3.710	-0.100	0.060	-0.540
2020/01/31 19:52:14.0	3.710	-0.070	0.070	-0.490
2020/01/31 19:52:14.1	3.700	-0.040	0.070	-0.450
2020/01/31 19:52:14.2	3.700	-0.020	0.070	-0.410
2020/01/31 19:52:14.3	3.690	0.010	0.070	-0.360
2020/01/31 19:52:14.4	3.690	0.040	0.070	-0.320
2020/01/31 19:52:14.5	3.690	0.060	0.060	-0.270
2020/01/31 19:52:14.6	3.690	0.090	0.050	-0.230
2020/01/31 19:52:14.7	3.690	0.120	0.040	-0.190
2020/01/31 19:52:14.8	3.700	0.140	0.020	-0.140
2020/01/31 19:52:14.9	3.700	0.170	0.010	-0.100
2020/01/31 19:52:15.0	3.710	0.190	-0.010	-0.060
2020/01/31 19:52:15.1	3.720	0.210	-0.030	-0.020
2020/01/31 19:52:15.2	3.740	0.230	-0.060	0.020
2020/01/31 19:52:15.3	3.750	0.250	-0.090	0.060
2020/01/31 19:52:15.4	3.760	0.270	-0.110	0.090
2020/01/31 19:52:15.5	3.780	0.290	-0.140	0.130
2020/01/31 19:52:15.6	3.790	0.310	-0.170	0.170
2020/01/31 19:52:15.7	3.800	0.320	-0.190	0.200
2020/01/31 19:52:15.8	3.820	0.340	-0.220	0.240
2020/01/31 19:52:15.9	3.830	0.340	-0.250	0.270
2020/01/31 19:52:16.0	3.840	0.350	-0.270	0.300
2020/01/31 19:52:16.1	3.850	0.360	-0.300	0.340
2020/01/31 19:52:16.2	3.860	0.360	-0.310	0.370
2020/01/31 19:52:16.3	3.860	0.360	-0.330	0.400
2020/01/31 19:52:16.4	3.870	0.350	-0.340	0.430
2020/01/31 19:52:16.5	3.870	0.340	-0.360	0.450
2020/01/31 19:52:16.6	3.870	0.330	-0.360	0.480
2020/01/31 19:52:16.7	3.870	0.320	-0.370	0.510
2020/01/31 19:52:16.8	3.860	0.300	-0.370	0.530
2020/01/31 19:52:16.9	3.850	0.280	-0.360	0.550
2020/01/31 19:52:17.0	3.840	0.250	-0.360	0.570
2020/01/31 19:52:17.1	3.830	0.230	-0.350	0.590
2020/01/31 19:52:17.2	3.810	0.200	-0.340	0.610
2020/01/31 19:52:17.3	3.800	0.160	-0.320	0.630
2020/01/31 19:52:17.4	3.780	0.130	-0.310	0.640
2020/01/31 19:52:17.5	3.760	0.090	-0.290	0.650
2020/01/31 19:52:17.6	3.730	0.050	-0.270	0.660
2020/01/31 19:52:17.7	3.710	0.010	-0.250	0.660
2020/01/31 19:52:17.8	3.680	-0.030	-0.230	0.670
2020/01/31 19:52:17.9	3.660	-0.070	-0.220	0.670
2020/01/31 19:52:18.0	3.630	-0.120	-0.200	0.660
2020/01/31 19:52:18.1	3.600	-0.160	-0.180	0.650
2020/01/31 19:52:18.2	3.570	-0.200	-0.160	0.640
2020/01/31 19:52:18.3	3.550	-0.240	-0.150	0.630
2020/01/31 19:52:18.4	3.520	-0.280	-0.140	0.610
2020/01/31 19:52:18.5	3.490	-0.320	-0.130	0.590
2020/01/31 19:52:18.6	3.470	-0.350	-0.120	0.560
2020/01/31 19:52:18.7	3.440	-0.390	-0.120	0.530
2020/01/31 19:52:18.8	3.420	-0.420	-0.120	0.500
2020/01/31 19:52:18.9	3.400	-0.450	-0.120	0.450
2020/01/31 19:52:19.0	3.380	-0.470	-0.130	0.410
2020/01/31 19:52:19.1	3.360	-0.490	-0.140	0.370
2020/01/31 19:52:19.2	3.340	-0.500	-0.150	0.330
2020/01/31 19:52:19.3	3.320	-0.520	-0.160	0.280
2020/01/31 19:52:19.4	3.310	-0.520	-0.180	0.230
2020/01/31 19:52:19.5	3.300	-0.530	-0.200	0.180
2020/01/31 19:52:19.6	3.290	-0.530	-0.220	0.130
2020/01/31 19:52:19.7	3.280	-0.520	-0.240	0.080
2020/01/31 19:52:19.8	3.280	-0.510	-0.270	0.020
2020/01/31 19:52:19.9	3.260	-0.500	-0.300	-0.030
2020/01/31 19:52:20.0	3.260	-0.480	-0.330	-0.090
2020/01/31 19:52:20.1	3.270	-0.460	-0.360	-0.140
2020/01/31 19:52:20.2	3.280	-0.440	-0.390	-0.190
2020/01/31 19:52:20.3	3.290	-0.410	-0.420	-0.250
2020/01/31 19:52:20.4	3.300	-0.380	-0.450	-0.300
2020/01/31 19:52:20.5	3.310	-0.350	-0.480	-0.350
2020/01/31 19:52:20.6	3.330	-0.310	-0.510	-0.400
2020/01/31 19:52:20.7	3.340	-0.280	-0.540	-0.440
2020/01/31 19:52:20.8	3.360	-0.240	-0.570	-0.490
2020/01/31 19:52:20.9	3.380	-0.210	-0.590	-0.530
2020/01/31 19:52:21.0	3.400	-0.170	-0.610	-0.570
2020/01/31 19:52:21.1	3.420	-0.130	-0.630	-0.600
2020/01/31 19:52:21.2	3.440	-0.100	-0.650	-0.630
2020/01/31 19:52:21.3	3.450	-0.070	-0.660	-0.650
2020/01/31 19:52:21.4	3.470	-0.030	-0.660	-0.680
2020/01/31 19:52:21.5	3.490	-0.010	-0.660	-0.690
2020/01/31 19:52:21.6	3.500	0.020	-0.660	-0.710
2020/01/31 19:52:21.7	3.520	0.050	-0.650	-0.720
2020/01/31 19:52:21.8	3.530	0.070	-0.640	-0.730
2020/01/31 19:52:21.9	3.540	0.090	-0.630	-0.730
2020/01/31 19:52:22.0	3.550	0.100	-0.610	-0.740
2020/01/31 19:52:22.1	3.560	0.120	-0.580	-0.730
2020/01/31 19:52:22.2	3.570	0.130	-0.550	-0.730
2020/01/31 19:52:22.3	3.580	0.140	-0.520	-0.720
2020/01/31 19:52:22.4	3.580	0.140	-0.490	-0.710
2020/01/31 19:52:22.5	3.580	0.140	-0.450	-0.700
2020/01/31 19:52:22.6	3.590	0.140	-0.410	-0.690
2020/01/31 19:52:22.7	3.590	0.140	-0.370	-0.670
2020/01/31 19:52:22.8	3.590	0.140	-0.330	-0.650
2020/01/31 19:52:22.9	3.580	0.130	-0.290	-0.630
2020/01/31 19:52:23.0	3.580	0.130	-0.250	-0.600
2020/01/31 19:52:23.1	3.570	0.120	-0.200	-0.580
2020/01/31 19:52:23.2	3.570	0.110	-0.160	-0.540
2020/01/31 19:52:23.3	3.560	0.110	-0.120	-0.510
2020/01/31 19:52:23.4	3.550	0.100	-0.080	-0.470
2020/01/31 19:52:23.5	3.540	0.090	-0.040	-0.440
2020/01/31 19:52:23.6	3.530	0.090	-0.000	-0.390
2020/01/31 19:52:23.7	3.520	0.080	0.030	-0.350
2020/01/31 19:52:23.8	3.510	0.080	0.060	-0.300
2020/01/31 19:52:23.9	3.500	0.080	0.090	-0.250
2020/01/31 19:52:24.0	3.480	0.080	0.110	-0.200
2020/01/31 19:52:24.1	3.470	0.080	0.130	-0.150
2020/01/31 19:52:24.2	3.450	0.090	0.140	-0.100
2020/01/31 19:52:24.3	3.430	0.090	0.150	-0.050
2020/01/31 19:52:24.4	3.420	0.100	0.160	0.000
2020/01/31 19:52:24.5	3.400	0.120	0.160	0.050
2020/01/31 19:52:24.6	3.390	0.130	0.150	0.100
2020/01/31 19:52:24.7	3.370	0.150	0.140	0.150
2020/01/31 19:52:24.8	3.360	0.170	0.130	0.200
2020/01/31 19:52:24.9	3.340	0.190	0.110	0.240
2020/01/31 19:52:25.0	3.330	0.220	0.090	0.290
2020/01/31 19:52:25.1	3.310	0.240	0.060	0.330
2020/01/31 19:52:25.2	3.300	0.270	0.030	0.360
2020/01/31 19:52:25.3	3.290	0.300	-0.000	0.400
2020/01/31 19:52:25.4	3.280	0.330	-0.040	0.430
2020/01/31 19:52:25.5	3.270	0.350	-0.070	0.460
2020/01/31 19:52:25.6	3.260	0.380	-0.110	0.480
2020/01/31 19:52:25.7	3.250	0.410	-0.160	0.500
2020/01/31 19:52:25.8	3.240	0.440	-0.200	0.520
2020/01/31 19:52:25.9	3.240	0.460	-0.240	0.540
2020/01/31 19:52:26.0	3.230	0.490	-0.280	0.550
2020/01/31 19:52:26.1	3.220	0.510	-0.330	0.570
2020/01/31 19:52:26.2	3.210	0.530	-0.370	0.580
2020/01/31 19:52:26.3	3.200	0.550	-0.410	0.590
2020/01/31 19:52:26.4	3.190	0.560	-0.440	0.590
2020/01/31 19:52:26.5	3.180	0.570	-0.480	0.600
2020/01/31 19:52:26.6	3.170	0.580	-0.510	0.600
2020/01/31 19:52:26.7	3.160	0.580	-0.540	0.600
2020/01/31 19:52:26.8	3.150	0.580	-0.560	0.600
2020/01/31 19:52:26.9	3.140	0.580	-0.580	0.600
2020/01/31 19:52:27.0	3.130	0.570	-0.600	0.600
2020/01/31 19:52:27.1	3.120	0.560	-0.620	0.590
2020/01/31 19:52:27.2	3.110	0.540	-0.630	0.580
2020/01/31 19:52:27.3	3.100	0.520	-0.640	0.560
2020/01/31 19:52:27.4	3.090	0.490	-0.640	0.540
2020/01/31 19:52:27.5	3.080	0.460	-0.640	0.520
2020/01/31 19:52:27.6	3.080	0.430	-0.640	0.500
2020/01/31 19:52:27.7	3.070	0.390	-0.630	0.470
2020/01/31 19:52:27.8	3.070	0.350	-0.620	0.430
2020/01/31 19:52:27.9	3.050	0.300	-0.610	0.390
2020/01/31 19:52:28.0	3.050	0.250	-0.590	0.350
2020/01/31 19:52:28.1	3.050	0.200	-0.580	0.300
2020/01/31 19:52:28.2	3.050	0.150	-0.550	0.250
2020/01/31 19:52:28.3	3.050	0.100	-0.530	0.210
2020/01/31 19:52:28.4	3.050	0.050	-0.500	0.150
2020/01/31 19:52:28.5	3.050	-0.010	-0.470	0.100
2020/01/31 19:52:28.6	3.060	-0.060	-0.440	0.050
2020/01/31 19:52:28.7	3.060	-0.120	-0.400	-0.000
2020/01/31 19:52:28.8	3.070	-0.170	-0.360	-0.060
2020/01/31 19:52:28.9	3.080	-0.230	-0.320	-0.110
2020/01/31 19:52:29.0	3.090	-0.280	-0.280	-0.160
2020/01/31 19:52:29.1	3.100	-0.330	-0.230	-0.210
2020/01/31 19:52:29.2	3.100	-0.380	-0.180	-0.260
2020/01/31 19:52:29.3	3.110	-0.420	-0.140	-0.300
2020/01/31 19:52:29.4	3.120	-0.470	-0.090	-0.340
2020/01/31 19:52:29.5	3.130	-0.510	-0.040	-0.380
2020/01/31 19:52:29.6	3.140	-0.540	0.020	-0.410
2020/01/31 19:52:29.7	3.150	-0.580	0.070	-0.440
2020/01/31 19:52:29.8	3.160	-0.610	0.120	-0.470
2020/01/31 19:52:29.9	3.170	-0.630	0.160	-0.500
2020/01/31 19:52:30.0	3.170	-0.660	0.210	-0.520
2020/01/31 19:52:30.1	3.180	-0.670	0.260	-0.540
2020/01/31 19:52:30.2	3.190	-0.690	0.300	-0.550
2020/01/31 19:52:30.3	3.190	-0.700	0.350	-0.560
2020/01/31 19:52:30.4	3.190	-0.710	0.380	-0.560
2020/01/31 19:52:30.5	3.190	-0.720	0.420	-0.560
2020/01/31 19:52:30.6	3.190	-0.720	0.450	-0.550
2020/01/31 19:52:30.7	3.190	-0.720	0.480	-0.540
2020/01/31 19:52:30.8	3.180	-0.710	0.500	-0.530
2020/01/31 19:52:30.9	3.160	-0.710	0.510	-0.510
2020/01/31 19:52:31.0	3.150	-0.700	0.520	-0.490
2020/01/31 19:52:31.1	3.140	-0.690	0.530	-0.460
2020/01/31 19:52:31.2	3.130	-0.670	0.520	-0.430
2020/01/31 19:52:31.3	3.110	-0.660	0.520	-0.400
2020/01/31 19:52:31.4	3.090	-0.640	0.500	-0.360
2020/01/31 19:52:31.5	3.070	-0.620	0.480	-0.330
2020/01/31 19:52:31.6	3.050	-0.590	0.460	-0.290
2020/01/31 19:52:31.7	3.030	-0.570	0.420	-0.250
2020/01/31 19:52:31.8	3.010	-0.540	0.390	-0.210
2020/01/31 19:52:31.9	2.980	-0.520	0.340	-0.170
2020/01/31 19:52:32.0	2.950	-0.490	0.290	-0.120
2020/01/31 19:52:32.1	2.930	-0.460	0.240	-0.080
2020/01/31 19:52:32.2	2.900	-0.430	0.180	-0.040
2020/01/31 19:52:32.3	2.870	-0.400	0.120	0.010
2020/01/31 19:52:32.4	2.850	-0.360	0.050	0.050
2020/01/31 19:52:32.5	2.820	-0.330	-0.020	0.090
2020/01/31 19:52:32.6	2.790	-0.290	-0.090	0.130
2020/01/31 19:52:32.7	2.770	-0.260	-0.170	0.170
2020/01/31 19:52:32.8	2.750	-0.220	-0.240	0.200
2020/01/31 19:52:32.9	2.730	-0.180	-0.320	0.240
2020/01/31 19:52:33.0	2.700	-0.140	-0.400	0.270
2020/01/31 19:52:33.1	2.680	-0.100	-0.480	0.290
2020/01/31 19:52:33.2	2.670	-0.060	-0.560	0.320
2020/01/31 19:52:33.3	2.650	-0.020	-0.640	0.340
2020/01/31 19:52:33.4	2.630	0.020	-0.710	0.360
2020/01/31 19:52:33.5	2.620	0.060	-0.790	0.370
2020/01/31 19:52:33.6	2.620	0.110	-0.860	0.390
2020/01/31 19:52:33.7	2.610	0.150	-0.940	0.400
2020/01/31 19:52:33.8	2.610	0.190	-1.000	0.400
2020/01/31 19:52:33.9	2.590	0.240	-1.070	0.400
2020/01/31 19:52:34.0	2.600	0.280	-1.130	0.400
2020/01/31 19:52:34.1	2.610	0.320	-1.190	0.390
2020/01/31 19:52:34.2	2.630	0.370	-1.240	0.390
2020/01/31 19:52:34.3	2.650	0.410	-1.290	0.380
2020/01/31 19:52:34.4	2.680	0.450	-1.330	0.360
2020/01/31 19:52:34.5	2.710	0.490	-1.370	0.350
2020/01/31 19:52:34.6	2.740	0.530	-1.410	0.330
2020/01/31 19:52:34.7	2.770	0.570	-1.430	0.310
2020/01/31 19:52:34.8	2.810	0.610	-1.450	0.300
2020/01/31 19:52:34.9	2.850	0.640	-1.460	0.280
2020/01/31 19:52:35.0	2.880	0.670	-1.460	0.260
2020/01/31 19:52:35.1	2.920	0.700	-1.450	0.240
2020/01/31 19:52:35.2	2.960	0.720	-1.440	0.220
2020/01/31 19:52:35.3	3.000	0.740	-1.410	0.210
2020/01/31 19:52:35.4	3.030	0.750	-1.380	0.190
2020/01/31 19:52:35.5	3.070	0.760	-1.330	0.180
2020/01/31 19:52:35.6	3.100	0.770	-1.280	0.160
2020/01/31 19:52:35.7	3.130	0.760	-1.210	0.150
2020/01/31 19:52:35.8	3.150	0.760	-1.140	0.130
2020/01/31 19:52:35.9	3.190	0.750	-1.060	0.120
2020/01/31 19:52:36.0	3.210	0.730	-0.970	0.110
2020/01/31 19:52:36.1	3.220	0.710	-0.880	0.100
2020/01/31 19:52:36.2	3.240	0.680	-0.780	0.090
2020/01/31 19:52:36.3	3.240	0.640	-0.670	0.080
2020/01/31 19:52:36.4	3.250	0.610	-0.560	0.080
2020/01/31 19:52:36.5	3.250	0.560	-0.450	0.070
2020/01/31 19:52:36.6	3.240	0.510	-0.330	0.060
2020/01/31 19:52:36.7	3.230	0.460	-0.210	0.060
2020/01/31 19:52:36.8	3.220	0.410	-0.090	0.060
2020/01/31 19:52:36.9	3.210	0.350	0.020	0.050
2020/01/31 19:52:37.0	3.190	0.290	0.140	0.050
2020/01/31 19:52:37.1	3.170	0.220	0.260	0.050
2020/01/31 19:52:37.2	3.140	0.160	0.370	0.050
2020/01/31 19:52:37.3	3.110	0.090	0.480	0.060
2020/01/31 19:52:37.4	3.080	0.020	0.580	0.060
2020/01/31 19:52:37.5	3.040	-0.040	0.680	0.070
2020/01/31 19:52:37.6	3.010	-0.110	0.770	0.070
2020/01/31 19:52:37.7	2.970	-0.180	0.850	0.080
2020/01/31 19:52:37.8	2.930	-0.240	0.920	0.090
2020/01/31 19:52:37.9	2.900	-0.300	0.990	0.090
2020/01/31 19:52:38.0	2.850	-0.360	1.040	0.100
2020/01/31 19:52:38.1	2.810	-0.410	1.080	0.110
2020/01/31 19:52:38.2	2.770	-0.470	1.110	0.120
2020/01/31 19:52:38.3	2.730	-0.510	1.130	0.130
2020/01/31 19:52:38.4	2.690	-0.550	1.140	0.130
2020/01/31 19:52:38.5	2.650	-0.590	1.140	0.140
2020/01/31 19:52:38.6	2.610	-0.620	1.130	0.150
2020/01/31 19:52:38.7	2.570	-0.650	1.100	0.150
2020/01/31 19:52:38.8	2.530	-0.660	1.070	0.160
2020/01/31 19:52:38.9	2.500	-0.680	1.020	0.150
2020/01/31 19:52:39.0	2.470	-0.680	0.960	0.150
2020/01/31 19:52:39.1	2.440	-0.680	0.900	0.150
2020/01/31 19:52:39.2	2.410	-0.680	0.830	0.140
2020/01/31 19:52:39.3	2.390	-0.670	0.750	0.130
2020/01/31 19:52:39.4	2.370	-0.650	0.670	0.120
2020/01/31 19:52:39.5	2.350	-0.630	0.580	0.110
2020/01/31 19:52:39.6	2.330	-0.600	0.480	0.100
2020/01/31 19:52:39.7	2.320	-0.570	0.390	0.080
2020/01/31 19:52:39.8	2.300	-0.530	0.290	0.060
2020/01/31 19:52:39.9	2.300	-0.490	0.190	0.040
2020/01/31 19:52:40.0	2.290	-0.450	0.090	0.020
2020/01/31 19:52:40.1	2.290	-0.400	-0.010	0.000
2020/01/31 19:52:40.2	2.280	-0.350	-0.110	-0.020
2020/01/31 19:52:40.3	2.280	-0.300	-0.200	-0.040
2020/01/31 19:52:40.4	2.280	-0.250	-0.290	-0.050
2020/01/31 19:52:40.5	2.290	-0.200	-0.380	-0.070
2020/01/31 19:52:40.6	2.290	-0.140	-0.460	-0.080
2020/01/31 19:52:40.7	2.300	-0.090	-0.540	-0.100
2020/01/31 19:52:40.8	2.310	-0.040	-0.610	-0.110
2020/01/31 19:52:40.9	2.320	0.010	-0.670	-0.120
2020/01/31 19:52:41.0	2.330	0.060	-0.730	-0.130
2020/01/31 19:52:41.1	2.350	0.110	-0.790	-0.140
2020/01/31 19:52:41.2	2.360	0.160	-0.830	-0.140
2020/01/31 19:52:41.3	2.380	0.200	-0.880	-0.150
2020/01/31 19:52:41.4	2.410	0.240	-0.910	-0.150
2020/01/31 19:52:41.5	2.430	0.280	-0.940	-0.150
2020/01/31 19:52:41.6	2.450	0.310	-0.970	-0.150
2020/01/31 19:52:41.7	2.480	0.340	-0.980	-0.140
2020/01/31 19:52:41.8	2.510	0.360	-1.000	-0.140
2020/01/31 19:52:41.9	2.520	0.390	-1.000	-0.130
2020/01/31 19:52:42.0	2.550	0.400	-1.010	-0.120
2020/01/31 19:52:42.1	2.580	0.420	-1.000	-0.110
2020/01/31 19:52:42.2	2.610	0.430	-1.000	-0.100
2020/01/31 19:52:42.3	2.630	0.430	-0.980	-0.090
2020/01/31 19:52:42.4	2.660	0.430	-0.970	-0.070
2020/01/31 19:52:42.5	2.680	0.430	-0.950	-0.060
2020/01/31 19:52:42.6	2.700	0.430	-0.930	-0.040
2020/01/31 19:52:42.7	2.720	0.420	-0.900	-0.020
2020/01/31 19:52:42.8	2.740	0.410	-0.870	0.010
2020/01/31 19:52:42.9	2.760	0.390	-0.840	0.030
2020/01/31 19:52:43.0	2.780	0.370	-0.800	0.050
2020/01/31 19:52:43.1	2.790	0.350	-0.770	0.080
2020/01/31 19:52:43.2	2.800	0.320	-0.720	0.110
2020/01/31 19:52:43.3	2.800	0.300	-0.680	0.130
2020/01/31 19:52:43.4	2.800	0.270	-0.640	0.160
2020/01/31 19:52:43.5	2.800	0.240	-0.590	0.190
2020/01/31 19:52:43.6	2.800	0.210	-0.550	0.220
2020/01/31 19:52:43.7	2.790	0.170	-0.500	0.240
2020/01/31 19:52:43.8	2.780	0.140	-0.450	0.270
2020/01/31 19:52:43.9	2.770	0.100	-0.410	0.300
2020/01/31 19:52:44.0	2.760	0.070	-0.360	0.320
2020/01/31 19:52:44.1	2.750	0.030	-0.320	0.340
2020/01/31 19:52:44.2	2.730	-0.000	-0.280	0.360
2020/01/31 19:52:44.3	2.720	-0.040	-0.240	0.370
2020/01/31 19:52:44.4	2.700	-0.070	-0.200	0.380
2020/01/31 19:52:44.5	2.690	-0.110	-0.170	0.390
2020/01/31 19:52:44.6	2.670	-0.140	-0.130	0.390
2020/01/31 19:52:44.7	2.660	-0.170	-0.110	0.390
2020/01/31 19:52:44.8	2.640	-0.200	-0.090	0.380
2020/01/31 19:52:44.9	2.640	-0.220	-0.070	0.370
2020/01/31 19:52:45.0	2.630	-0.250	-0.050	0.350
2020/01/31 19:52:45.1	2.620	-0.270	-0.040	0.340
2020/01/31 19:52:45.2	2.610	-0.290	-0.040	0.310
2020/01/31 19:52:45.3	2.600	-0.300	-0.040	0.290
2020/01/31 19:52:45.4	2.600	-0.320	-0.040	0.260
2020/01/31 19:52:45.5	2.600	-0.330	-0.050	0.220
2020/01/31 19:52:45.6	2.600	-0.340	-0.060	0.190
2020/01/31 19:52:45.7	2.600	-0.350	-0.070	0.150
2020/01/31 19:52:45.8	2.600	-0.350	-0.090	0.100
2020/01/31 19:52:45.9	2.600	-0.350	-0.110	0.060
2020/01/31 19:52:46.0	2.610	-0.350	-0.130	0.010
2020/01/31 19:52:46.1	2.610	-0.340	-0.150	-0.030
2020/01/31 19:52:46.2	2.620	-0.340	-0.180	-0.080
2020/01/31 19:52:46.3	2.630	-0.330	-0.200	-0.120
2020/01/31 19:52:46.4	2.640	-0.320	-0.220	-0.160
2020/01/31 19:52:46.5	2.650	-0.310	-0.240	-0.210
2020/01/31 19:52:46.6	2.660	-0.300	-0.260	-0.250
2020/01/31 19:52:46.7	2.670	-0.280	-0.280	-0.280
2020/01/31 19:52:46.8	2.670	-0.270	-0.290	-0.320
2020/01/31 19:52:46.9	2.670	-0.250	-0.290	-0.350
2020/01/31 19:52:47.0	2.680	-0.240	-0.300	-0.380
2020/01/31 19:52:47.1	2.680	-0.220	-0.300	-0.400
2020/01/31 19:52:47.2	2.670	-0.210	-0.300	-0.420
2020/01/31 19:52:47.3	2.670	-0.190	-0.290	-0.430
2020/01/31 19:52:47.4	2.660	-0.180	-0.280	-0.430
2020/01/31 19:52:47.5	2.650	-0.160	-0.260	-0.430
2020/01/31 19:52:47.6	2.640	-0.150	-0.240	-0.420
2020/01/31 19:52:47.7	2.620	-0.140	-0.210	-0.410
2020/01/31 19:52:47.8	2.600	-0.120	-0.180	-0.400
2020/01/31 19:52:47.9	2.580	-0.110	-0.150	-0.370
2020/01/31 19:52:48.0	2.550	-0.100	-0.120	-0.350
2020/01/31 19:52:48.1	2.530	-0.090	-0.090	-0.320
2020/01/31 19:52:48.2	2.510	-0.090	-0.050	-0.290
2020/01/31 19:52:48.3	2.480	-0.080	-0.020	-0.250
2020/01/31 19:52:48.4	2.460	-0.070	0.010	-0.220
2020/01/31 19:52:48.5	2.440	-0.070	0.040	-0.180
2020/01/31 19:52:48.6	2.420	-0.060	0.070	-0.150
2020/01/31 19:52:48.7	2.400	-0.050	0.090	-0.110
2020/01/31 19:52:48.8	2.380	-0.050	0.110	-0.080
2020/01/31 19:52:48.9	2.350	-0.040	0.130	-0.050
2020/01/31 19:52:49.0	2.340	-0.030	0.130	-0.020
2020/01/31 19:52:49.1	2.330	-0.030	0.140	0.010
2020/01/31 19:52:49.2	2.320	-0.020	0.130	0.030
2020/01/31 19:52:49.3	2.320	-0.010	0.120	0.060
2020/01/31 19:52:49.4	2.320	0.000	0.110	0.070
2020/01/31 19:52:49.5	2.320	0.010	0.080	0.090
2020/01/31 19:52:49.6	2.330	0.030	0.060	0.100
2020/01/31 19:52:49.7	2.340	0.040	0.020	0.110
2020/01/31 19:52:49.8	2.350	0.060	-0.010	0.110
2020/01/31 19:52:49.9	2.360	0.080	-0.060	0.110
2020/01/31 19:52:50.0	2.370	0.100	-0.110	0.110
2020/01/31 19:52:50.1	2.390	0.120	-0.160	0.100
2020/01/31 19:52:50.2	2.410	0.140	-0.210	0.100
2020/01/31 19:52:50.3	2.430	0.170	-0.260	0.090
2020/01/31 19:52:50.4	2.450	0.190	-0.310	0.080
2020/01/31 19:52:50.5	2.480	0.220	-0.360	0.060
2020/01/31 19:52:50.6	2.500	0.250	-0.410	0.050
2020/01/31 19:52:50.7	2.520	0.280	-0.460	0.040
2020/01/31 19:52:50.8	2.550	0.310	-0.510	0.030
2020/01/31 19:52:50.9	2.570	0.340	-0.550	0.020
2020/01/31 19:52:51.0	2.590	0.360	-0.590	0.010
2020/01/31 19:52:51.1	2.610	0.390	-0.620	0.000
2020/01/31 19:52:51.2	2.630	0.420	-0.650	-0.000
2020/01/31 19:52:51.3	2.650	0.450	-0.670	-0.000
2020/01/31 19:52:51.4	2.660	0.470	-0.680	-0.000
2020/01/31 19:52:51.5	2.680	0.500	-0.690	-0.000
2020/01/31 19:52:51.6	2.690	0.520	-0.690	0.000
2020/01/31 19:52:51.7	2.700	0.540	-0.690	0.010
2020/01/31 19:52:51.8	2.710	0.550	-0.680	0.020
2020/01/31 19:52:51.9	2.710	0.570	-0.670	0.030
2020/01/31 19:52:52.0	2.710	0.580	-0.640	0.040
2020/01/31 19:52:52.1	2.720	0.580	-0.620	0.050
2020/01/31 19:52:52.2	2.720	0.580	-0.580	0.070
2020/01/31 19:52:52.3	2.720	0.580	-0.550	0.080
2020/01/31 19:52:52.4	2.720	0.580	-0.500	0.100
2020/01/31 19:52:52.5	2.710	0.570	-0.460	0.110
2020/01/31 19:52:52.6	2.710	0.560	-0.410	0.130
2020/01/31 19:52:52.7	2.700	0.540	-0.360	0.140
2020/01/31 19:52:52.8	2.700	0.520	-0.310	0.160
2020/01/31 19:52:52.9	2.690	0.490	-0.250	0.170
2020/01/31 19:52:53.0	2.690	0.460	-0.200	0.180
2020/01/31 19:52:53.1	2.680	0.430	-0.150	0.190
2020/01/31 19:52:53.2	2.670	0.390	-0.090	0.200
2020/01/31 19:52:53.3	2.670	0.350	-0.040	0.210
2020/01/31 19:52:53.4	2.660	0.300	0.010	0.220
2020/01/31 19:52:53.5	2.650	0.260	0.050	0.220
2020/01/31 19:52:53.6	2.650	0.210	0.100	0.220
2020/01/31 19:52:53.7	2.640	0.150	0.140	0.220
2020/01/31 19:52:53.8	2.630	0.100	0.170	0.210
2020/01/31 19:52:53.9	2.630	0.050	0.200	0.210
2020/01/31 19:52:54.0	2.620	-0.010	0.230	0.200
2020/01/31 19:52:54.1	2.620	-0.070	0.250	0.190
2020/01/31 19:52:54.2	2.610	-0.130	0.260	0.180
2020/01/31 19:52:54.3	2.600	-0.180	0.280	0.160
2020/01/31 19:52:54.4	2.590	-0.240	0.280	0.150
2020/01/31 19:52:54.5	2.580	-0.300	0.290	0.130
2020/01/31 19:52:54.6	2.570	-0.350	0.280	0.110
2020/01/31 19:52:54.7	2.560	-0.410	0.280	0.090
2020/01/31 19:52:54.8	2.550	-0.460	0.270	0.070
2020/01/31 19:52:54.9	2.540	-0.510	0.250	0.040
2020/01/31 19:52:55.0	2.530	-0.560	0.230	0.020
2020/01/31 19:52:55.1	2.520	-0.600	0.210	-0.010
2020/01/31 19:52:55.2	2.500	-0.640	0.190	-0.040
2020/01/31 19:52:55.3	2.490	-0.680	0.160	-0.070
2020/01/31 19:52:55.4	2.470	-0.720	0.130	-0.100
2020/01/31 19:52:55.5	2.460	-0.750	0.090	-0.140
2020/01/31 19:52:55.6	2.440	-0.780	0.060	-0.170
2020/01/31 19:52:55.7	2.430	-0.800	0.020	-0.210
2020/01/31 19:52:55.8	2.420	-0.820	-0.020	-0.240
2020/01/31 19:52:55.9	2.410	-0.840	-0.060	-0.280
2020/01/31 19:52:56.0	2.400	-0.850	-0.100	-0.320
2020/01/31 19:52:56.1	2.390	-0.850	-0.140	-0.350
2020/01/31 19:52:56.2	2.380	-0.850	-0.190	-0.380
2020/01/31 19:52:56.3	2.370	-0.850	-0.230	-0.410
2020/01/31 19:52:56.4	2.370	-0.840	-0.270	-0.440
2020/01/31 19:52:56.5	2.370	-0.830	-0.320	-0.470
2020/01/31 19:52:56.6	2.360	-0.810	-0.360	-0.500
2020/01/31 19:52:56.7	2.370	-0.790	-0.410	-0.530
2020/01/31 19:52:56.8	2.370	-0.760	-0.450	-0.550
2020/01/31 19:52:56.9	2.360	-0.730	-0.490	-0.570
2020/01/31 19:52:57.0	2.370	-0.700	-0.540	-0.590
2020/01/31 19:52:57.1	2.370	-0.660	-0.580	-0.610
2020/01/31 19:52:57.2	2.380	-0.620	-0.620	-0.620
2020/01/31 19:52:57.3	2.400	-0.580	-0.660	-0.640
2020/01/31 19:52:57.4	2.410	-0.530	-0.700	-0.650
2020/01/31 19:52:57.5	2.430	-0.480	-0.730	-0.650
2020/01/31 19:52:57.6	2.440	-0.430	-0.770	-0.660
2020/01/31 19:52:57.7	2.460	-0.380	-0.800	-0.660
2020/01/31 19:52:57.8	2.480	-0.330	-0.830	-0.660
2020/01/31 19:52:57.9	2.500	-0.280	-0.860	-0.660
2020/01/31 19:52:58.0	2.520	-0.220	-0.890	-0.660
2020/01/31 19:52:58.1	2.550	-0.170	-0.910	-0.660
2020/01/31 19:52:58.2	2.570	-0.110	-0.930	-0.650
2020/01/31 19:52:58.3	2.600	-0.060	-0.950	-0.640
2020/01/31 19:52:58.4	2.620	-0.010	-0.970	-0.640
2020/01/31 19:52:58.5	2.650	0.040	-0.980	-0.630
2020/01/31 19:52:58.6	2.680	0.090	-0.990	-0.620
2020/01/31 19:52:58.7	2.710	0.140	-0.990	-0.610
2020/01/31 19:52:58.8	2.740	0.190	-0.990	-0.600
2020/01/31 19:52:58.9	2.770	0.230	-0.990	-0.590
2020/01/31 19:52:59.0	2.800	0.270	-0.990	-0.570
2020/01/31 19:52:59.1	2.820	0.310	-0.970	-0.550
2020/01/31 19:52:59.2	2.850	0.350	-0.960	-0.530
2020/01/31 19:52:59.3	2.880	0.380	-0.940	-0.500
2020/01/31 19:52:59.4	2.900	0.410	-0.910	-0.470
2020/01/31 19:52:59.5	2.920	0.440	-0.880	-0.440
2020/01/31 19:52:59.6	2.940	0.460	-0.840	-0.400
2020/01/31 19:52:59.7	2.950	0.480	-0.800	-0.350
2020/01/31 19:52:59.8	2.960	0.500	-0.750	-0.300
2020/01/31 19:52:59.9	2.950	0.510	-0.700	-0.250
2020/01/31 19:53:00.0	2.960	0.520	-0.650	-0.190
2020/01/31 19:53:00.1	2.950	0.530	-0.590	-0.130
2020/01/31 19:53:00.2	2.950	0.530	-0.520	-0.070
2020/01/31 19:53:00.3	2.940	0.530	-0.450	-0.010
2020/01/31 19:53:00.4	2.920	0.520	-0.380	0.060
2020/01/31 19:53:00.5	2.910	0.520	-0.310	0.120
2020/01/31 19:53:00.6	2.890	0.500	-0.230	0.190
2020/01/31 19:53:00.7	2.860	0.490	-0.160	0.260
2020/01/31 19:53:00.8	2.840	0.470	-0.080	0.320
2020/01/31 19:53:00.9	2.820	0.460	-0.010	0.390
2020/01/31 19:53:01.0	2.790	0.440	0.070	0.460
2020/01/31 19:53:01.1	2.760	0.410	0.140	0.520
2020/01/31 19:53:01.2	2.720	0.390	0.220	0.580
2020/01/31 19:53:01.3	2.690	0.370	0.290	0.630
2020/01/31 19:53:01.4	2.660	0.340	0.350	0.690
2020/01/31 19:53:01.5	2.620	0.320	0.410	0.740
2020/01/31 19:53:01.6	2.590	0.300	0.470	0.790
2020/01/31 19:53:01.7	2.550	0.270	0.520	0.830
2020/01/31 19:53:01.8	2.520	0.250	0.570	0.870
2020/01/31 19:53:01.9	2.490	0.230	0.610	0.890
2020/01/31 19:53:02.0	2.460	0.210	0.640	0.920
2020/01/31 19:53:02.1	2.420	0.190	0.670	0.940
2020/01/31 19:53:02.2	2.390	0.170	0.690	0.960
2020/01/31 19:53:02.3	2.360	0.150	0.700	0.970
2020/01/31 19:53:02.4	2.340	0.130	0.710	0.980
2020/01/31 19:53:02.5	2.310	0.120	0.710	0.980
2020/01/31 19:53:02.6	2.290	0.110	0.700	0.970
2020/01/31 19:53:02.7	2.270	0.100	0.680	0.960
2020/01/31 19:53:02.8	2.250	0.090	0.660	0.940
2020/01/31 19:53:02.9	2.260	0.080	0.620	0.910
2020/01/31 19:53:03.0	2.250	0.070	0.590	0.880
2020/01/31 19:53:03.1	2.240	0.060	0.540	0.850
2020/01/31 19:53:03.2	2.240	0.060	0.490	0.800
2020/01/31 19:53:03.3	2.240	0.050	0.430	0.760
2020/01/31 19:53:03.4	2.240	0.050	0.370	0.700
2020/01/31 19:53:03.5	2.250	0.050	0.310	0.650
2020/01/31 19:53:03.6	2.260	0.050	0.230	0.590
2020/01/31 19:53:03.7	2.270	0.040	0.160	0.520
2020/01/31 19:53:03.8	2.290	0.040	0.080	0.450
2020/01/31 19:53:03.9	2.310	0.040	0.000	0.380
2020/01/31 19:53:04.0	2.340	0.040	-0.080	0.300
2020/01/31 19:53:04.1	2.360	0.040	-0.160	0.220
2020/01/31 19:53:04.2	2.390	0.030	-0.240	0.150
2020/01/31 19:53:04.3	2.420	0.030	-0.330	0.060
2020/01/31 19:53:04.4	2.450	0.030	-0.410	-0.020
2020/01/31 19:53:04.5	2.490	0.030	-0.480	-0.100
2020/01/31 19:53:04.6	2.520	0.020	-0.560	-0.180
2020/01/31 19:53:04.7	2.560	0.020	-0.630	-0.260
2020/01/31 19:53:04.8	2.600	0.010	-0.700	-0.340
2020/01/31 19:53:04.9	2.620	0.000	-0.760	-0.430
2020/01/31 19:53:05.0	2.660	-0.000	-0.820	-0.500
2020/01/31 19:53:05.1	2.700	-0.010	-0.860	-0.580
2020/01/31 19:53:05.2	2.740	-0.020	-0.910	-0.650
2020/01/31 19:53:05.3	2.770	-0.030	-0.940	-0.710
2020/01/31 19:53:05.4	2.810	-0.050	-0.960	-0.770
2020/01/31 19:53:05.5	2.840	-0.060	-0.980	-0.830
2020/01/31 19:53:05.6	2.870	-0.070	-0.990	-0.880
2020/01/31 19:53:05.7	2.900	-0.090	-0.990	-0.920
2020/01/31 19:53:05.8	2.930	-0.100	-0.970	-0.960
2020/01/31 19:53:05.9	2.960	-0.120	-0.950	-0.980
2020/01/31 19:53:06.0	2.970	-0.140	-0.920	-1.000
2020/01/31 19:53:06.1	2.980	-0.160	-0.890	-1.010
2020/01/31 19:53:06.2	2.990	-0.180	-0.840	-1.020
2020/01/31 19:53:06.3	2.990	-0.200	-0.780	-1.010
2020/01/31 19:53:06.4	2.990	-0.220	-0.720	-1.000
2020/01/31 19:53:06.5	2.980	-0.240	-0.650	-0.990
2020/01/31 19:53:06.6	2.960	-0.260	-0.580	-0.960
2020/01/31 19:53:06.7	2.940	-0.280	-0.500	-0.930
2020/01/31 19:53:06.8	2.910	-0.300	-0.420	-0.900
2020/01/31 19:53:06.9	2.870	-0.320	-0.340	-0.860
2020/01/31 19:53:07.0	2.840	-0.340	-0.250	-0.810
2020/01/31 19:53:07.1	2.800	-0.360	-0.170	-0.760
2020/01/31 19:53:07.2	2.750	-0.380	-0.080	-0.710
2020/01/31 19:53:07.3	2.710	-0.400	0.000	-0.650
2020/01/31 19:53:07.4	2.660	-0.420	0.080	-0.590
2020/01/31 19:53:07.5	2.610	-0.430	0.160	-0.530
2020/01/31 19:53:07.6	2.560	-0.450	0.220	-0.470
2020/01/31 19:53:07.7	2.510	-0.460	0.290	-0.410
2020/01/31 19:53:07.8	2.450	-0.470	0.340	-0.350
2020/01/31 19:53:07.9	2.390	-0.470	0.390	-0.290
2020/01/31 19:53:08.0	2.340	-0.480	0.430	-0.230
2020/01/31 19:53:08.1	2.290	-0.480	0.460	-0.170
2020/01/31 19:53:08.2	2.250	-0.480	0.480	-0.110
2020/01/31 19:53:08.3	2.200	-0.470	0.490	-0.060
2020/01/31 19:53:08.4	2.160	-0.460	0.490	-0.010
2020/01/31 19:53:08.5	2.120	-0.450	0.480	0.030
2020/01/31 19:53:08.6	2.080	-0.430	0.460	0.070
2020/01/31 19:53:08.7	2.050	-0.410	0.430	0.110
2020/01/31 19:53:08.8	2.020	-0.380	0.390	0.140
2020/01/31 19:53:08.9	2.000	-0.350	0.340	0.170
2020/01/31 19:53:09.0	1.990	-0.320	0.280	0.190
2020/01/31 19:53:09.1	1.970	-0.280	0.210	0.210
2020/01/31 19:53:09.2	1.960	-0.240	0.130	0.220
2020/01/31 19:53:09.3	1.960	-0.190	0.040	0.220
2020/01/31 19:53:09.4	1.960	-0.140	-0.050	0.220
2020/01/31 19:53:09.5	1.960	-0.090	-0.150	0.220
2020/01/31 19:53:09.6	1.980	-0.040	-0.250	0.210
2020/01/31 19:53:09.7	1.990	0.020	-0.360	0.200
2020/01/31 19:53:09.8	2.010	0.080	-0.460	0.190
2020/01/31 19:53:09.9	2.030	0.150	-0.580	0.170
2020/01/31 19:53:10.0	2.060	0.210	-0.680	0.150
2020/01/31 19:53:10.1	2.090	0.270	-0.790	0.130
2020/01/31 19:53:10.2	2.120	0.340	-0.890	0.110
2020/01/31 19:53:10.3	2.150	0.400	-0.980	0.090
2020/01/31 19:53:10.4	2.190	0.460	-1.070	0.070
2020/01/31 19:53:10.5	2.220	0.520	-1.150	0.050
2020/01/31 19:53:10.6	2.260	0.580	-1.230	0.040
2020/01/31 19:53:10.7	2.290	0.630	-1.290	0.020
2020/01/31 19:53:10.8	2.330	0.680	-1.340	0.000
2020/01/31 19:53:10.9	2.350	0.720	-1.380	-0.010
2020/01/31 19:53:11.0	2.380	0.760	-1.410	-0.020
2020/01/31 19:53:11.1	2.410	0.790	-1.430	-0.040
2020/01/31 19:53:11.2	2.450	0.820	-1.440	-0.050
2020/01/31 19:53:11.3	2.480	0.840	-1.440	-0.060
2020/01/31 19:53:11.4	2.500	0.850	-1.420	-0.070
2020/01/31 19:53:11.5	2.530	0.850	-1.400	-0.080
2020/01/31 19:53:11.6	2.560	0.850	-1.360	-0.090
2020/01/31 19:53:11.7	2.580	0.840	-1.320	-0.090
2020/01/31 19:53:11.8	2.610	0.830	-1.260	-0.100
2020/01/31 19:53:11.9	2.620	0.810	-1.200	-0.110
2020/01/31 19:53:12.0	2.640	0.780	-1.130	-0.110
2020/01/31 19:53:12.1	2.660	0.740	-1.050	-0.120
2020/01/31 19:53:12.2	2.680	0.700	-0.970	-0.120
2020/01/31 19:53:12.3	2.700	0.650	-0.880	-0.130
2020/01/31 19:53:12.4	2.720	0.600	-0.790	-0.130
2020/01/31 19:53:12.5	2.730	0.540	-0.690	-0.130
2020/01/31 19:53:12.6	2.750	0.480	-0.590	-0.140
2020/01/31 19:53:12.7	2.760	0.410	-0.500	-0.140
2020/01/31 19:53:12.8	2.770	0.340	-0.400	-0.140
2020/01/31 19:53:12.9	2.770	0.270	-0.290	-0.140
2020/01/31 19:53:13.0	2.780	0.190	-0.190	-0.150
2020/01/31 19:53:13.1	2.780	0.120	-0.100	-0.150
2020/01/31 19:53:13.2	2.780	0.040	0.000	-0.150
2020/01/31 19:53:13.3	2.780	-0.040	0.100	-0.150
2020/01/31 19:53:13.4	2.770	-0.120	0.190	-0.150
2020/01/31 19:53:13.5	2.760	-0.200	0.270	-0.150
2020/01/31 19:53:13.6	2.750	-0.280	0.360	-0.150
2020/01/31 19:53:13.7	2.740	-0.350	0.440	-0.150
2020/01/31 19:53:13.8	2.730	-0.420	0.510	-0.150
2020/01/31 19:53:13.9	2.720	-0.490	0.580	-0.150
2020/01/31 19:53:14.0	2.700	-0.550	0.640	-0.150
2020/01/31 19:53:14.1	2.680	-0.620	0.700	-0.150
2020/01/31 19:53:14.2	2.660	-0.670	0.760	-0.140
2020/01/31 19:53:14.3	2.640	-0.720	0.810	-0.140
2020/01/31 19:53:14.4	2.610	-0.770	0.850	-0.130
2020/01/31 19:53:14.5	2.590	-0.800	0.880	-0.120
2020/01/31 19:53:14.6	2.560	-0.840	0.920	-0.110
2020/01/31 19:53:14.7	2.530	-0.860	0.940	-0.090
2020/01/31 19:53:14.8	2.500	-0.880	0.960	-0.070
2020/01/31 19:53:14.9	2.470	-0.890	0.970	-0.060
2020/01/31 19:53:15.0	2.440	-0.900	0.980	-0.030
2020/01/31 19:53:15.1	2.400	-0.900	0.990	-0.010
2020/01/31 19:53:15.2	2.370	-0.890	0.980	0.020
2020/01/31 19:53:15.3	2.330	-0.880	0.980	0.040
2020/01/31 19:53:15.4	2.300	-0.860	0.960	0.070
2020/01/31 19:53:15.5	2.260	-0.830	0.940	0.100
2020/01/31 19:53:15.6	2.220	-0.800	0.920	0.140
2020/01/31 19:53:15.7	2.190	-0.770	0.880	0.170
2020/01/31 19:53:15.8	2.150	-0.730	0.850	0.200
2020/01/31 19:53:15.9	2.120	-0.680	0.810	0.240
2020/01/31 19:53:16.0	2.080	-0.630	0.760	0.270
2020/01/31 19:53:16.1	2.040	-0.570	0.710	0.310
2020/01/31 19:53:16.2	2.000	-0.520	0.650	0.350
2020/01/31 19:53:16.3	1.970	-0.460	0.590	0.390
2020/01/31 19:53:16.4	1.940	-0.390	0.520	0.420
2020/01/31 19:53:16.5	1.900	-0.330	0.450	0.460
2020/01/31 19:53:16.6	1.870	-0.270	0.380	0.490
2020/01/31 19:53:16.7	1.840	-0.200	0.300	0.520
2020/01/31 19:53:16.8	1.820	-0.130	0.220	0.550
2020/01/31 19:53:16.9	1.800	-0.070	0.130	0.580
2020/01/31 19:53:17.0	1.780	-0.010	0.040	0.600
2020/01/31 19:53:17.1	1.760	0.060	-0.050	0.620
2020/01/31 19:53:17.2	1.750	0.120	-0.140	0.630
2020/01/31 19:53:17.3	1.730	0.180	-0.240	0.640
2020/01/31 19:53:17.4	1.730	0.230	-0.330	0.650
2020/01/31 19:53:17.5	1.720	0.280	-0.430	0.650
2020/01/31 19:53:17.6	1.720	0.330	-0.530	0.650
2020/01/31 19:53:17.7	1.720	0.380	-0.620	0.640
2020/01/31 19:53:17.8	1.730	0.420	-0.710	0.630
2020/01/31 19:53:17.9	1.750	0.460	-0.810	0.620
2020/01/31 19:53:18.0	1.760	0.490	-0.890	0.600
2020/01/31 19:53:18.1	1.780	0.520	-0.980	0.570
2020/01/31 19:53:18.2	1.800	0.550	-1.060	0.540
2020/01/31 19:53:18.3	1.820	0.560	-1.130	0.510
2020/01/31 19:53:18.4	1.850	0.580	-1.200	0.480
2020/01/31 19:53:18.5	1.870	0.590	-1.270	0.440
2020/01/31 19:53:18.6	1.900	0.600	-1.320	0.410
2020/01/31 19:53:18.7	1.930	0.600	-1.370	0.360
2020/01/31 19:53:18.8	1.960	0.590	-1.420	0.320
2020/01/31 19:53:18.9	2.000	0.580	-1.450	0.280
2020/01/31 19:53:19.0	2.030	0.570	-1.480	0.230
2020/01/31 19:53:19.1	2.060	0.560	-1.490	0.190
2020/01/31 19:53:19.2	2.090	0.540	-1.500	0.140
2020/01/31 19:53:19.3	2.120	0.510	-1.500	0.100
2020/01/31 19:53:19.4	2.150	0.480	-1.490	0.050
2020/01/31 19:53:19.5	2.180	0.450	-1.480	0.010
2020/01/31 19:53:19.6	2.200	0.420	-1.450	-0.040
2020/01/31 19:53:19.7	2.230	0.390	-1.420	-0.090
2020/01/31 19:53:19.8	2.260	0.350	-1.380	-0.130
2020/01/31 19:53:19.9	2.300	0.310	-1.330	-0.180
2020/01/31 19:53:20.0	2.330	0.280	-1.280	-0.230
2020/01/31 19:53:20.1	2.350	0.240	-1.220	-0.270
2020/01/31 19:53:20.2	2.380	0.200	-1.160	-0.320
2020/01/31 19:53:20.3	2.410	0.160	-1.090	-0.360
2020/01/31 19:53:20.4	2.440	0.120	-1.020	-0.400
2020/01/31 19:53:20.5	2.470	0.090	-0.940	-0.450
2020/01/31 19:53:20.6	2.500	0.050	-0.860	-0.490
2020/01/31 19:53:20.7	2.530	0.020	-0.780	-0.530
2020/01/31 19:53:20.8	2.560	-0.010	-0.700	-0.560
2020/01/31 19:53:20.9	2.580	-0.030	-0.620	-0.600
2020/01/31 19:53:21.0	2.610	-0.060	-0.540	-0.640
2020/01/31 19:53:21.1	2.640	-0.080	-0.470	-0.670
2020/01/31 19:53:21.2	2.680	-0.090	-0.390	-0.700
2020/01/31 19:53:21.3	2.710	-0.110	-0.320	-0.730
2020/01/31 19:53:21.4	2.740	-0.120	-0.250	-0.750
2020/01/31 19:53:21.5	2.770	-0.130	-0.180	-0.770
2020/01/31 19:53:21.6	2.800	-0.130	-0.110	-0.780
2020/01/31 19:53:21.7	2.830	-0.130	-0.050	-0.790
2020/01/31 19:53:21.8	2.860	-0.130	0.020	-0.800
2020/01/31 19:53:21.9	2.870	-0.130	0.070	-0.800
2020/01/31 19:53:22.0	2.890	-0.120	0.120	-0.790
2020/01/31 19:53:22.1	2.900	-0.120	0.170	-0.770
2020/01/31 19:53:22.2	2.920	-0.110	0.220	-0.750
2020/01/31 19:53:22.3	2.920	-0.100	0.270	-0.730
2020/01/31 19:53:22.4	2.930	-0.090	0.310	-0.690
2020/01/31 19:53:22.5	2.930	-0.080	0.350	-0.660
2020/01/31 19:53:22.6	2.930	-0.070	0.390	-0.620
2020/01/31 19:53:22.7	2.920	-0.060	0.420	-0.570
2020/01/31 19:53:22.8	2.910	-0.050	0.450	-0.530
2020/01/31 19:53:22.9	2.890	-0.040	0.470	-0.480
2020/01/31 19:53:23.0	2.870	-0.030	0.490	-0.430
2020/01/31 19:53:23.1	2.850	-0.020	0.510	-0.380
2020/01/31 19:53:23.2	2.830	-0.020	0.520	-0.330
2020/01/31 19:53:23.3	2.810	-0.010	0.530	-0.280
2020/01/31 19:53:23.4	2.790	-0.010	0.530	-0.230
2020/01/31 19:53:23.5	2.770	-0.010	0.520	-0.180
2020/01/31 19:53:23.6	2.750	-0.010	0.510	-0.140
2020/01/31 19:53:23.7	2.720	-0.010	0.500	-0.100
2020/01/31 19:53:23.8	2.700	-0.020	0.480	-0.060
2020/01/31 19:53:23.9	2.690	-0.030	0.450	-0.020
2020/01/31 19:53:24.0	2.670	-0.030	0.420	0.010
2020/01/31 19:53:24.1	2.650	-0.040	0.390	0.040
2020/01/31 19:53:24.2	2.630	-0.050	0.350	0.070
2020/01/31 19:53:24.3	2.610	-0.060	0.300	0.090
2020/01/31 19:53:24.4	2.600	-0.080	0.260	0.110
2020/01/31 19:53:24.5	2.590	-0.090	0.210	0.130
2020/01/31 19:53:24.6	2.580	-0.100	0.150	0.140
2020/01/31 19:53:24.7	2.570	-0.110	0.100	0.150
2020/01/31 19:53:24.8	2.560	-0.130	0.040	0.160
2020/01/31 19:53:24.9	2.560	-0.140	-0.010	0.160
2020/01/31 19:53:25.0	2.560	-0.150	-0.070	0.170
2020/01/31 19:53:25.1	2.560	-0.170	-0.130	0.170
2020/01/31 19:53:25.2	2.560	-0.180	-0.180	0.160
2020/01/31 19:53:25.3	2.560	-0.190	-0.230	0.160
2020/01/31 19:53:25.4	2.560	-0.200	-0.280	0.150
2020/01/31 19:53:25.5	2.570	-0.210	-0.330	0.140
2020/01/31 19:53:25.6	2.570	-0.210	-0.370	0.130
2020/01/31 19:53:25.7	2.570	-0.220	-0.400	0.120
2020/01/31 19:53:25.8	2.570	-0.230	-0.440	0.110
2020/01/31 19:53:25.9	2.580	-0.230	-0.460	0.100
2020/01/31 19:53:26.0	2.570	-0.230	-0.480	0.090
2020/01/31 19:53:26.1	2.570	-0.230	-0.500	0.080
2020/01/31 19:53:26.2	2.570	-0.230	-0.510	0.070
2020/01/31 19:53:26.3	2.560	-0.230	-0.510	0.070
2020/01/31 19:53:26.4	2.550	-0.220	-0.500	0.070
2020/01/31 19:53:26.5	2.540	-0.220	-0.490	0.070
2020/01/31 19:53:26.6	2.520	-0.210	-0.480	0.070
2020/01/31 19:53:26.7	2.500	-0.200	-0.460	0.080
2020/01/31 19:53:26.8	2.480	-0.200	-0.430	0.090
2020/01/31 19:53:26.9	2.460	-0.190	-0.410	0.100
2020/01/31 19:53:27.0	2.440	-0.180	-0.380	0.110
2020/01/31 19:53:27.1	2.410	-0.160	-0.340	0.130
2020/01/31 19:53:27.2	2.390	-0.150	-0.310	0.150
2020/01/31 19:53:27.3	2.360	-0.140	-0.270	0.160
2020/01/31 19:53:27.4	2.330	-0.120	-0.230	0.180
2020/01/31 19:53:27.5	2.310	-0.110	-0.200	0.200
2020/01/31 19:53:27.6	2.280	-0.090	-0.160	0.220
2020/01/31 19:53:27.7	2.260	-0.080	-0.130	0.240
2020/01/31 19:53:27.8	2.230	-0.060	-0.100	0.250
2020/01/31 19:53:27.9	2.210	-0.050	-0.080	0.260
2020/01/31 19:53:28.0	2.190	-0.030	-0.060	0.270
2020/01/31 19:53:28.1	2.180	-0.020	-0.040	0.280
2020/01/31 19:53:28.2	2.170	0.000	-0.030	0.290
2020/01/31 19:53:28.3	2.160	0.020	-0.030	0.290
2020/01/31 19:53:28.4	2.150	0.030	-0.030	0.290
2020/01/31 19:53:28.5	2.150	0.050	-0.040	0.280
2020/01/31 19:53:28.6	2.150	0.070	-0.060	0.270
2020/01/31 19:53:28.7	2.150	0.080	-0.080	0.250
2020/01/31 19:53:28.8	2.160	0.100	-0.110	0.230
2020/01/31 19:53:28.9	2.170	0.110	-0.150	0.200
2020/01/31 19:53:29.0	2.180	0.130	-0.190	0.170
2020/01/31 19:53:29.1	2.200	0.140	-0.230	0.140
2020/01/31 19:53:29.2	2.220	0.150	-0.280	0.100
2020/01/31 19:53:29.3	2.240	0.160	-0.330	0.060
2020/01/31 19:53:29.4	2.270	0.170	-0.380	0.020
2020/01/31 19:53:29.5	2.290	0.180	-0.440	-0.020
2020/01/31 19:53:29.6	2.320	0.190	-0.490	-0.070
2020/01/31 19:53:29.7	2.350	0.200	-0.550	-0.110
2020/01/31 19:53:29.8	2.380	0.200	-0.600	-0.160
2020/01/31 19:53:29.9	2.410	0.210	-0.650	-0.210
2020/01/31 19:53:30.0	2.440	0.210	-0.700	-0.250
2020/01/31 19:53:30.1	2.470	0.220	-0.750	-0.290
2020/01/31 19:53:30.2	2.510	0.220	-0.790	-0.330
2020/01/31 19:53:30.3	2.540	0.220	-0.820	-0.370
2020/01/31 19:53:30.4	2.570	0.220	-0.860	-0.400
2020/01/31 19:53:30.5	2.600	0.220	-0.880	-0.430
2020/01/31 19:53:30.6	2.630	0.210	-0.900	-0.460
2020/01/31 19:53:30.7	2.660	0.210	-0.910	-0.490
2020/01/31 19:53:30.8	2.690	0.210	-0.910	-0.500
2020/01/31 19:53:30.9	2.710	0.200	-0.910	-0.520
2020/01/31 19:53:31.0	2.730	0.200	-0.900	-0.530
2020/01/31 19:53:31.1	2.760	0.200	-0.890	-0.540
2020/01/31 19:53:31.2	2.780	0.190	-0.860	-0.540
2020/01/31 19:53:31.3	2.810	0.190	-0.830	-0.540
2020/01/31 19:53:31.4	2.830	0.180	-0.800	-0.540
2020/01/31 19:53:31.5	2.850	0.170	-0.750	-0.530
2020/01/31 19:53:31.6	2.870	0.170	-0.710	-0.510
2020/01/31 19:53:31.7	2.890	0.170	-0.660	-0.500
2020/01/31 19:53:31.8	2.910	0.160	-0.600	-0.480
2020/01/31 19:53:31.9	2.940	0.160	-0.550	-0.460
2020/01/31 19:53:32.0	2.960	0.150	-0.490	-0.430
2020/01/31 19:53:32.1	2.970	0.150	-0.420	-0.410
2020/01/31 19:53:32.2	2.990	0.150	-0.360	-0.380
2020/01/31 19:53:32.3	3.010	0.150	-0.300	-0.350
2020/01/31 19:53:32.4	3.030	0.150	-0.240	-0.320
2020/01/31 19:53:32.5	3.040	0.150	-0.180	-0.290
2020/01/31 19:53:32.6	3.060	0.140	-0.120	-0.260
2020/01/31 19:53:32.7	3.080	0.140	-0.060	-0.220
2020/01/31 19:53:32.8	3.090	0.150	-0.010	-0.190
2020/01/31 19:53:32.9	3.100	0.150	0.040	-0.160
2020/01/31 19:53:33.0	3.120	0.150	0.090	-0.130
2020/01/31 19:53:33.1	3.140	0.150	0.130	-0.100
2020/01/31 19:53:33.2	3.150	0.150	0.170	-0.070
2020/01/31 19:53:33.3	3.170	0.140	0.200	-0.040
2020/01/31 19:53:33.4	3.190	0.140	0.230	-0.010
2020/01/31 19:53:33.5	3.200	0.140	0.260	0.010
2020/01/31 19:53:33.6	3.220	0.140	0.280	0.040
2020/01/31 19:53:33.7	3.230	0.130	0.290	0.060
2020/01/31 19:53:33.8	3.240	0.120	0.300	0.080
2020/01/31 19:53:33.9	3.260	0.110	0.300	0.100
2020/01/31 19:53:34.0	3.260	0.100	0.300	0.110
2020/01/31 19:53:34.1	3.270	0.090	0.300	0.130
2020/01/31 19:53:34.2	3.280	0.080	0.290	0.140
2020/01/31 19:53:34.3	3.280	0.060	0.280	0.150
2020/01/31 19:53:34.4	3.290	0.040	0.260	0.150
2020/01/31 19:53:34.5	3.290	0.020	0.240	0.160
2020/01/31 19:53:34.6	3.290	-0.010	0.220	0.160
2020/01/31 19:53:34.7	3.280	-0.030	0.200	0.150
2020/01/31 19:53:34.8	3.280	-0.060	0.170	0.150
2020/01/31 19:53:34.9	3.270	-0.090	0.140	0.140
2020/01/31 19:53:35.0	3.260	-0.120	0.110	0.130
2020/01/31 19:53:35.1	3.250	-0.150	0.080	0.110
2020/01/31 19:53:35.2	3.240	-0.180	0.040	0.100
2020/01/31 19:53:35.3	3.230	-0.210	0.010	0.080
2020/01/31 19:53:35.4	3.220	-0.250	-0.030	0.060
2020/01/31 19:53:35.5	3.200	-0.280	-0.060	0.040
2020/01/31 19:53:35.6	3.190	-0.310	-0.100	0.020
2020/01/31 19:53:35.7	3.170	-0.350	-0.130	-0.000
2020/01/31 19:53:35.8	3.160	-0.380	-0.160	-0.020
2020/01/31 19:53:35.9	3.140	-0.410	-0.190	-0.040
2020/01/31 19:53:36.0	3.120	-0.440	-0.220	-0.060
2020/01/31 19:53:36.1	3.100	-0.470	-0.240	-0.070
2020/01/31 19:53:36.2	3.070	-0.490	-0.260	-0.090
2020/01/31 19:53:36.3	3.050	-0.510	-0.280	-0.100
2020/01/31 19:53:36.4	3.020	-0.530	-0.300	-0.110
2020/01/31 19:53:36.5	2.990	-0.550	-0.310	-0.110
2020/01/31 19:53:36.6	2.970	-0.560	-0.320	-0.120
2020/01/31 19:53:36.7	2.940	-0.570	-0.320	-0.120
2020/01/31 19:53:36.8	2.910	-0.580	-0.330	-0.120
2020/01/31 19:53:36.9	2.880	-0.580	-0.330	-0.120
2020/01/31 19:53:37.0	2.850	-0.580	-0.330	-0.120
2020/01/31 19:53:37.1	2.820	-0.570	-0.320	-0.110
2020/01/31 19:53:37.2	2.790	-0.560	-0.320	-0.110
2020/01/31 19:53:37.3	2.770	-0.540	-0.320	-0.100
2020/01/31 19:53:37.4	2.740	-0.530	-0.310	-0.100
2020/01/31 19:53:37.5	2.710	-0.500	-0.310	-0.090
2020/01/31 19:53:37.6	2.690	-0.480	-0.300	-0.090
2020/01/31 19:53:37.7	2.660	-0.440	-0.300	-0.080
2020/01/31 19:53:37.8	2.640	-0.410	-0.300	-0.080
2020/01/31 19:53:37.9	2.620	-0.370	-0.300	-0.070
2020/01/31 19:53:38.0	2.600	-0.330	-0.300	-0.070
2020/01/31 19:53:38.1	2.580	-0.280	-0.310	-0.060
2020/01/31 19:53:38.2	2.560	-0.240	-0.310	-0.060
2020/01/31 19:53:38.3	2.550	-0.190	-0.320	-0.050
2020/01/31 19:53:38.4	2.540	-0.130	-0.330	-0.050
2020/01/31 19:53:38.5	2.530	-0.080	-0.340	-0.040
2020/01/31 19:53:38.6	2.530	-0.020	-0.360	-0.040
2020/01/31 19:53:38.7	2.520	0.040	-0.380	-0.030
2020/01/31 19:53:38.8	2.520	0.090	-0.400	-0.030
2020/01/31 19:53:38.9	2.530	0.150	-0.420	-0.030
2020/01/31 19:53:39.0	2.530	0.210	-0.450	-0.020
2020/01/31 19:53:39.1	2.540	0.270	-0.470	-0.020
2020/01/31 19:53:39.2	2.550	0.320	-0.500	-0.020
2020/01/31 19:53:39.3	2.560	0.370	-0.520	-0.020
2020/01/31 19:53:39.4	2.570	0.430	-0.550	-0.020
2020/01/31 19:53:39.5	2.590	0.480	-0.570	-0.030
2020/01/31 19:53:39.6	2.610	0.520	-0.600	-0.030
2020/01/31 19:53:39.7	2.640	0.560	-0.620	-0.040
2020/01/31 19:53:39.8	2.660	0.600	-0.650	-0.050
2020/01/31 19:53:39.9	2.690	0.640	-0.670	-0.070
2020/01/31 19:53:40.0	2.720	0.670	-0.690	-0.080
2020/01/31 19:53:40.1	2.750	0.700	-0.710	-0.100
2020/01/31 19:53:40.2	2.790	0.720	-0.720	-0.120
2020/01/31 19:53:40.3	2.830	0.740	-0.730	-0.140
2020/01/31 19:53:40.4	2.870	0.750	-0.740	-0.160
2020/01/31 19:53:40.5	2.920	0.760	-0.750	-0.180
2020/01/31 19:53:40.6	2.960	0.770	-0.750	-0.200
2020/01/31 19:53:40.7	3.000	0.770	-0.750	-0.220
2020/01/31 19:53:40.8	3.050	0.760	-0.740	-0.240
2020/01/31 19:53:40.9	3.090	0.750	-0.730	-0.270
2020/01/31 19:53:41.0	3.130	0.730	-0.710	-0.280
2020/01/31 19:53:41.1	3.170	0.710	-0.690	-0.300
2020/01/31 19:53:41.2	3.220	0.690	-0.660	-0.310
2020/01/31 19:53:41.3	3.250	0.650	-0.630	-0.320
2020/01/31 19:53:41.4	3.290	0.620	-0.590	-0.330
2020/01/31 19:53:41.5	3.320	0.580	-0.540	-0.340
2020/01/31 19:53:41.6	3.350	0.530	-0.490	-0.340
2020/01/31 19:53:41.7	3.380	0.480	-0.440	-0.340
2020/01/31 19:53:41.8	3.400	0.430	-0.380	-0.340
2020/01/31 19:53:41.9	3.420	0.380	-0.320	-0.340
2020/01/31 19:53:42.0	3.440	0.320	-0.260	-0.330
2020/01/31 19:53:42.1	3.450	0.250	-0.190	-0.320
2020/01/31 19:53:42.2	3.450	0.190	-0.120	-0.310
2020/01/31 19:53:42.3	3.460	0.120	-0.050	-0.300
2020/01/31 19:53:42.4	3.450	0.060	0.020	-0.280
2020/01/31 19:53:42.5	3.450	-0.010	0.090	-0.260
2020/01/31 19:53:42.6	3.440	-0.080	0.160	-0.240
2020/01/31 19:53:42.7	3.420	-0.150	0.230	-0.220
2020/01/31 19:53:42.8	3.410	-0.220	0.290	-0.200
2020/01/31 19:53:42.9	3.400	-0.280	0.350	-0.190
2020/01/31 19:53:43.0	3.380	-0.350	0.410	-0.160
2020/01/31 19:53:43.1	3.360	-0.410	0.460	-0.140
2020/01/31 19:53:43.2	3.340	-0.470	0.510	-0.120
2020/01/31 19:53:43.3	3.310	-0.530	0.550	-0.100
2020/01/31 19:53:43.4	3.290	-0.580	0.580	-0.080
2020/01/31 19:53:43.5	3.270	-0.630	0.610	-0.070
2020/01/31 19:53:43.6	3.250	-0.670	0.630	-0.050
2020/01/31 19:53:43.7	3.230	-0.710	0.650	-0.030
2020/01/31 19:53:43.8	3.210	-0.740	0.650	-0.020
2020/01/31 19:53:43.9	3.180	-0.770	0.650	-0.010
2020/01/31 19:53:44.0	3.160	-0.790	0.640	0.000
2020/01/31 19:53:44.1	3.150	-0.810	0.630	0.020
2020/01/31 19:53:44.2	3.130	-0.810	0.610	0.030
2020/01/31 19:53:44.3	3.120	-0.820	0.580	0.040
2020/01/31 19:53:44.4	3.100	-0.810	0.550	0.040
2020/01/31 19:53:44.5	3.090	-0.800	0.510	0.050
2020/01/31 19:53:44.6	3.080	-0.780	0.460	0.060
2020/01/31 19:53:44.7	3.070	-0.760	0.410	0.070
2020/01/31 19:53:44.8	3.060	-0.720	0.360	0.080
2020/01/31 19:53:44.9	3.060	-0.690	0.300	0.080
2020/01/31 19:53:45.0	3.050	-0.650	0.240	0.090
2020/01/31 19:53:45.1	3.040	-0.600	0.180	0.100
2020/01/31 19:53:45.2	3.030	-0.550	0.120	0.110
2020/01/31 19:53:45.3	3.030	-0.490	0.050	0.120
2020/01/31 19:53:45.4	3.020	-0.430	-0.010	0.130
2020/01/31 19:53:45.5	3.010	-0.360	-0.080	0.140
2020/01/31 19:53:45.6	3.000	-0.300	-0.140	0.150
2020/01/31 19:53:45.7	3.000	-0.230	-0.210	0.170
2020/01/31 19:53:45.8	2.990	-0.160	-0.270	0.180
2020/01/31 19:53:45.9	2.970	-0.090	-0.330	0.190
2020/01/31 19:53:46.0	2.960	-0.020	-0.390	0.200
2020/01/31 19:53:46.1	2.950	0.040	-0.440	0.210
2020/01/31 19:53:46.2	2.940	0.110	-0.500	0.220
2020/01/31 19:53:46.3	2.940	0.180	-0.550	0.230
2020/01/31 19:53:46.4	2.930	0.240	-0.600	0.240
2020/01/31 19:53:46.5	2.920	0.300	-0.650	0.240
2020/01/31 19:53:46.6	2.920	0.360	-0.700	0.240
2020/01/31 19:53:46.7	2.910	0.410	-0.740	0.250
2020/01/31 19:53:46.8	2.910	0.460	-0.790	0.240
2020/01/31 19:53:46.9	2.910	0.510	-0.830	0.240
2020/01/31 19:53:47.0	2.910	0.550	-0.860	0.230
2020/01/31 19:53:47.1	2.910	0.580	-0.900	0.220
2020/01/31 19:53:47.2	2.910	0.610	-0.930	0.210
2020/01/31 19:53:47.3	2.920	0.640	-0.960	0.200
2020/01/31 19:53:47.4	2.920	0.660	-0.990	0.180
2020/01/31 19:53:47.5	2.930	0.670	-1.010	0.160
2020/01/31 19:53:47.6	2.940	0.680	-1.030	0.140
2020/01/31 19:53:47.7	2.960	0.680	-1.050	0.110
2020/01/31 19:53:47.8	2.970	0.680	-1.070	0.080
2020/01/31 19:53:47.9	2.990	0.670	-1.080	0.050
2020/01/31 19:53:48.0	3.010	0.660	-1.090	0.010
2020/01/31 19:53:48.1	3.030	0.650	-1.090	-0.030
2020/01/31 19:53:48.2	3.050	0.630	-1.100	-0.070
2020/01/31 19:53:48.3	3.080	0.600	-1.100	-0.110
2020/01/31 19:53:48.4	3.110	0.580	-1.090	-0.160
2020/01/31 19:53:48.5	3.140	0.550	-1.080	-0.210
2020/01/31 19:53:48.6	3.170	0.510	-1.070	-0.260
2020/01/31 19:53:48.7	3.210	0.480	-1.060	-0.310
2020/01/31 19:53:48.8	3.240	0.440	-1.040	-0.360
2020/01/31 19:53:48.9	3.280	0.400	-1.020	-0.420
2020/01/31 19:53:49.0	3.320	0.360	-1.000	-0.470
2020/01/31 19:53:49.1	3.350	0.310	-0.960	-0.520
2020/01/31 19:53:49.2	3.390	0.270	-0.930	-0.580
2020/01/31 19:53:49.3	3.430	0.220	-0.890	-0.630
2020/01/31 19:53:49.4	3.460	0.180	-0.850	-0.680
2020/01/31 19:53:49.5	3.500	0.130	-0.800	-0.730
2020/01/31 19:53:49.6	3.530	0.080	-0.750	-0.770
2020/01/31 19:53:49.7	3.560	0.030	-0.690	-0.810
2020/01/31 19:53:49.8	3.580	-0.020	-0.630	-0.850
2020/01/31 19:53:49.9	3.620	-0.060	-0.570	-0.890
2020/01/31 19:53:50.0	3.640	-0.110	-0.500	-0.920
2020/01/31 19:53:50.1	3.660	-0.160	-0.430	-0.950
2020/01/31 19:53:50.2	3.680	-0.200	-0.350	-0.970
2020/01/31 19:53:50.3	3.700	-0.250	-0.280	-0.990
2020/01/31 19:53:50.4	3.710	-0.290	-0.200	-1.000
2020/01/31 19:53:50.5	3.720	-0.330	-0.120	-1.000
2020/01/31 19:53:50.6	3.730	-0.370	-0.040	-1.000
2020/01/31 19:53:50.7	3.740	-0.410	0.040	-0.990
2020/01/31 19:53:50.8	3.740	-0.450	0.130	-0.970
2020/01/31 19:53:50.9	3.740	-0.480	0.200	-0.950
2020/01/31 19:53:51.0	3.740	-0.510	0.280	-0.930
2020/01/31 19:53:51.1	3.740	-0.540	0.360	-0.890
2020/01/31 19:53:51.2	3.730	-0.560	0.430	-0.860
2020/01/31 19:53:51.3	3.720	-0.590	0.510	-0.820
2020/01/31 19:53:51.4	3.710	-0.610	0.570	-0.770
2020/01/31 19:53:51.5	3.690	-0.620	0.640	-0.720
2020/01/31 19:53:51.6	3.670	-0.640	0.700	-0.670
2020/01/31 19:53:51.7	3.650	-0.650	0.760	-0.610
2020/01/31 19:53:51.8	3.620	-0.660	0.810	-0.560
2020/01/31 19:53:51.9	3.590	-0.660	0.850	-0.490
2020/01/31 19:53:52.0	3.560	-0.670	0.890	-0.430
2020/01/31 19:53:52.1	3.530	-0.670	0.930	-0.370
2020/01/31 19:53:52.2	3.490	-0.660	0.950	-0.300
2020/01/31 19:53:52.3	3.450	-0.660	0.970	-0.230
2020/01/31 19:53:52.4	3.400	-0.650	0.980	-0.160
2020/01/31 19:53:52.5	3.360	-0.630	0.990	-0.090
2020/01/31 19:53:52.6	3.310	-0.620	0.990	-0.020
2020/01/31 19:53:52.7	3.260	-0.590	0.980	0.050
2020/01/31 19:53:52.8	3.210	-0.570	0.960	0.130
2020/01/31 19:53:52.9	3.150	-0.540	0.930	0.190
2020/01/31 19:53:53.0	3.090	-0.510	0.900	0.260
2020/01/31 19:53:53.1	3.040	-0.480	0.860	0.330
2020/01/31 19:53:53.2	2.990	-0.440	0.820	0.400
2020/01/31 19:53:53.3	2.940	-0.400	0.760	0.460
2020/01/31 19:53:53.4	2.890	-0.360	0.700	0.520
2020/01/31 19:53:53.5	2.840	-0.310	0.630	0.580
2020/01/31 19:53:53.6	2.800	-0.270	0.560	0.630
2020/01/31 19:53:53.7	2.760	-0.210	0.470	0.680
2020/01/31 19:53:53.8	2.730	-0.160	0.390	0.720
2020/01/31 19:53:53.9	2.710	-0.100	0.300	0.750
2020/01/31 19:53:54.0	2.690	-0.050	0.200	0.780
2020/01/31 19:53:54.1	2.670	0.010	0.090	0.800
2020/01/31 19:53:54.2	2.650	0.080	-0.020	0.820
2020/01/31 19:53:54.3	2.640	0.140	-0.130	0.830
2020/01/31 19:53:54.4	2.640	0.200	-0.250	0.830
2020/01/31 19:53:54.5	2.640	0.270	-0.360	0.830
2020/01/31 19:53:54.6	2.640	0.330	-0.480	0.820
2020/01/31 19:53:54.7	2.650	0.400	-0.600	0.800
2020/01/31 19:53:54.8	2.660	0.460	-0.710	0.780
2020/01/31 19:53:54.9	2.690	0.520	-0.820	0.770
2020/01/31 19:53:55.0	2.710	0.580	-0.930	0.740
2020/01/31 19:53:55.1	2.730	0.630	-1.040	0.710
2020/01/31 19:53:55.2	2.760	0.690	-1.130	0.670
2020/01/31 19:53:55.3	2.780	0.740	-1.220	0.630
2020/01/31 19:53:55.4	2.810	0.780	-1.310	0.590
2020/01/31 19:53:55.5	2.840	0.820	-1.380	0.540
2020/01/31 19:53:55.6	2.870	0.860	-1.450	0.500
2020/01/31 19:53:55.7	2.900	0.890	-1.510	0.450
2020/01/31 19:53:55.8	2.940	0.920	-1.550	0.390
2020/01/31 19:53:55.9	2.960	0.940	-1.590	0.330
2020/01/31 19:53:56.0	3.000	0.950	-1.610	0.280
2020/01/31 19:53:56.1	3.030	0.960	-1.620	0.220
2020/01/31 19:53:56.2	3.060	0.960	-1.620	0.170
2020/01/31 19:53:56.3	3.100	0.960	-1.610	0.110
2020/01/31 19:53:56.4	3.130	0.940	-1.590	0.060
2020/01/31 19:53:56.5	3.160	0.930	-1.560	-0.000
2020/01/31 19:53:56.6	3.200	0.900	-1.520	-0.060
2020/01/31 19:53:56.7	3.230	0.870	-1.470	-0.110
2020/01/31 19:53:56.8	3.260	0.830	-1.410	-0.170
2020/01/31 19:53:56.9	3.300	0.780	-1.340	-0.220
2020/01/31 19:53:57.0	3.340	0.730	-1.260	-0.280
2020/01/31 19:53:57.1	3.370	0.680	-1.180	-0.330
2020/01/31 19:53:57.2	3.400	0.620	-1.090	-0.380
2020/01/31 19:53:57.3	3.430	0.550	-1.000	-0.430
2020/01/31 19:53:57.4	3.460	0.480	-0.900	-0.480
2020/01/31 19:53:57.5	3.490	0.410	-0.810	-0.520
2020/01/31 19:53:57.6	3.510	0.330	-0.700	-0.570
2020/01/31 19:53:57.7	3.540	0.260	-0.600	-0.610
2020/01/31 19:53:57.8	3.570	0.180	-0.500	-0.650
2020/01/31 19:53:57.9	3.580	0.100	-0.400	-0.690
2020/01/31 19:53:58.0	3.600	0.010	-0.300	-0.720
2020/01/31 19:53:58.1	3.620	-0.070	-0.200	-0.750
2020/01/31 19:53:58.2	3.640	-0.150	-0.100	-0.780
2020/01/31 19:53:58.3	3.660	-0.220	-0.010	-0.810
2020/01/31 19:53:58.4	3.680	-0.300	0.080	-0.830
2020/01/31 19:53:58.5	3.690	-0.380	0.160	-0.850
2020/01/31 19:53:58.6	3.710	-0.450	0.240	-0.870
2020/01/31 19:53:58.7	3.720	-0.510	0.310	-0.890
2020/01/31 19:53:58.8	3.730	-0.580	0.380	-0.900
2020/01/31 19:53:58.9	3.740	-0.640	0.440	-0.910
2020/01/31 19:53:59.0	3.750	-0.690	0.490	-0.920
2020/01/31 19:53:59.1	3.750	-0.740	0.540	-0.920
2020/01/31 19:53:59.2	3.760	-0.780	0.580	-0.920
2020/01/31 19:53:59.3	3.760	-0.820	0.620	-0.920
2020/01/31 19:53:59.4	3.760	-0.850	0.640	-0.910
2020/01/31 19:53:59.5	3.750	-0.880	0.660	-0.900
2020/01/31 19:53:59.6	3.750	-0.900	0.680	-0.890
2020/01/31 19:53:59.7	3.740	-0.910	0.680	-0.870
2020/01/31 19:53:59.8	3.730	-0.920	0.680	-0.850
2020/01/31 19:53:59.9	3.700	-0.920	0.670	-0.840
2020/01/31 19:54:00.0	3.690	-0.920	0.660	-0.810
2020/01/31 19:54:00.1	3.670	-0.910	0.640	-0.780
2020/01/31 19:54:00.2	3.650	-0.890	0.610	-0.750
2020/01/31 19:54:00.3	3.630	-0.870	0.580	-0.720
2020/01/31 19:54:00.4	3.610	-0.850	0.540	-0.680
2020/01/31 19:54:00.5	3.590	-0.810	0.500	-0.640
2020/01/31 19:54:00.6	3.570	-0.780	0.450	-0.600
2020/01/31 19:54:00.7	3.550	-0.740	0.400	-0.560
2020/01/31 19:54:00.8	3.520	-0.690	0.340	-0.510
2020/01/31 19:54:00.9	3.510	-0.640	0.290	-0.470
2020/01/31 19:54:01.0	3.490	-0.590	0.220	-0.420
2020/01/31 19:54:01.1	3.470	-0.540	0.150	-0.370
2020/01/31 19:54:01.2	3.450	-0.480	0.080	-0.330
2020/01/31 19:54:01.3	3.430	-0.420	0.010	-0.280
2020/01/31 19:54:01.4	3.420	-0.360	-0.060	-0.240
2020/01/31 19:54:01.5	3.400	-0.300	-0.130	-0.190
2020/01/31 19:54:01.6	3.390	-0.240	-0.210	-0.150
2020/01/31 19:54:01.7	3.380	-0.180	-0.280	-0.100
2020/01/31 19:54:01.8	3.360	-0.110	-0.350	-0.060
2020/01/31 19:54:01.9	3.360	-0.050	-0.420	-0.020
2020/01/31 19:54:02.0	3.350	0.010	-0.480	0.020
2020/01/31 19:54:02.1	3.340	0.070	-0.540	0.060
2020/01/31 19:54:02.2	3.330	0.120	-0.600	0.110
2020/01/31 19:54:02.3	3.320	0.180	-0.640	0.150
2020/01/31 19:54:02.4	3.310	0.230	-0.680	0.190
2020/01/31 19:54:02.5	3.290	0.280	-0.720	0.230
2020/01/31 19:54:02.6	3.280	0.330	-0.740	0.270
2020/01/31 19:54:02.7	3.270	0.370	-0.760	0.320
2020/01/31 19:54:02.8	3.250	0.410	-0.770	0.360
2020/01/31 19:54:02.9	3.240	0.440	-0.770	0.410
2020/01/31 19:54:03.0	3.230	0.480	-0.760	0.450
2020/01/31 19:54:03.1	3.210	0.510	-0.740	0.500
2020/01/31 19:54:03.2	3.190	0.530	-0.720	0.540
2020/01/31 19:54:03.3	3.170	0.550	-0.690	0.590
2020/01/31 19:54:03.4	3.150	0.570	-0.650	0.640
2020/01/31 19:54:03.5	3.130	0.580	-0.600	0.680
2020/01/31 19:54:03.6	3.110	0.590	-0.550	0.730
2020/01/31 19:54:03.7	3.080	0.600	-0.490	0.770
2020/01/31 19:54:03.8	3.060	0.600	-0.430	0.810
2020/01/31 19:54:03.9	3.030	0.600	-0.370	0.850
2020/01/31 19:54:04.0	3.010	0.590	-0.300	0.890
2020/01/31 19:54:04.1	2.990	0.580	-0.230	0.920
2020/01/31 19:54:04.2	2.970	0.570	-0.170	0.950
2020/01/31 19:54:04.3	2.950	0.560	-0.100	0.980
2020/01/31 19:54:04.4	2.930	0.540	-0.030	1.000
2020/01/31 19:54:04.5	2.920	0.520	0.030	1.010
2020/01/31 19:54:04.6	2.900	0.500	0.080	1.020
2020/01/31 19:54:04.7	2.890	0.480	0.140	1.030
2020/01/31 19:54:04.8	2.880	0.450	0.180	1.030
2020/01/31 19:54:04.9	2.870	0.430	0.220	1.020
2020/01/31 19:54:05.0	2.870	0.400	0.250	1.010
2020/01/31 19:54:05.1	2.870	0.370	0.280	0.990
2020/01/31 19:54:05.2	2.880	0.340	0.300	0.970
2020/01/31 19:54:05.3	2.880	0.310	0.300	0.940
2020/01/31 19:54:05.4	2.890	0.280	0.310	0.900
2020/01/31 19:54:05.5	2.910	0.260	0.300	0.860
2020/01/31 19:54:05.6	2.920	0.230	0.280	0.820
2020/01/31 19:54:05.7	2.940	0.200	0.260	0.770
2020/01/31 19:54:05.8	2.970	0.170	0.230	0.710
2020/01/31 19:54:05.9	3.000	0.140	0.190	0.650
2020/01/31 19:54:06.0	3.030	0.110	0.140	0.580
2020/01/31 19:54:06.1	3.060	0.080	0.090	0.520
2020/01/31 19:54:06.2	3.090	0.060	0.030	0.440
2020/01/31 19:54:06.3	3.130	0.030	-0.030	0.370
2020/01/31 19:54:06.4	3.170	0.010	-0.090	0.290
2020/01/31 19:54:06.5	3.210	-0.020	-0.160	0.210
2020/01/31 19:54:06.6	3.250	-0.040	-0.230	0.140
2020/01/31 19:54:06.7	3.290	-0.060	-0.310	0.060
2020/01/31 19:54:06.8	3.340	-0.080	-0.380	-0.020
2020/01/31 19:54:06.9	3.380	-0.100	-0.450	-0.110
2020/01/31 19:54:07.0	3.430	-0.120	-0.520	-0.180
2020/01/31 19:54:07.1	3.470	-0.140	-0.590	-0.260
2020/01/31 19:54:07.2	3.520	-0.150	-0.660	-0.330
2020/01/31 19:54:07.3	3.560	-0.170	-0.720	-0.390
2020/01/31 19:54:07.4	3.600	-0.180	-0.770	-0.460
2020/01/31 19:54:07.5	3.650	-0.190	-0.820	-0.520
2020/01/31 19:54:07.6	3.690	-0.200	-0.870	-0.570
2020/01/31 19:54:07.7	3.720	-0.210	-0.910	-0.620
2020/01/31 19:54:07.8	3.760	-0.210	-0.940	-0.670
2020/01/31 19:54:07.9	3.790	-0.220	-0.970	-0.710
2020/01/31 19:54:08.0	3.820	-0.220	-0.990	-0.750
2020/01/31 19:54:08.1	3.840	-0.230	-1.000	-0.780
2020/01/31 19:54:08.2	3.870	-0.230	-1.000	-0.800
2020/01/31 19:54:08.3	3.890	-0.230	-1.000	-0.820
2020/01/31 19:54:08.4	3.910	-0.230	-1.000	-0.830
2020/01/31 19:54:08.5	3.930	-0.220	-0.980	-0.840
2020/01/31 19:54:08.6	3.950	-0.220	-0.960	-0.840
2020/01/31 19:54:08.7	3.960	-0.210	-0.940	-0.840
2020/01/31 19:54:08.8	3.970	-0.200	-0.910	-0.840
2020/01/31 19:54:08.9	3.980	-0.200	-0.880	-0.830
2020/01/31 19:54:09.0	3.990	-0.190	-0.840	-0.820
2020/01/31 19:54:09.1	4.000	-0.180	-0.800	-0.800
2020/01/31 19:54:09.2	4.000	-0.160	-0.760	-0.790
2020/01/31 19:54:09.3	4.010	-0.150	-0.720	-0.770
2020/01/31 19:54:09.4	4.010	-0.140	-0.680	-0.750
2020/01/31 19:54:09.5	4.020	-0.120	-0.630	-0.720
2020/01/31 19:54:09.6	4.020	-0.110	-0.590	-0.700
2020/01/31 19:54:09.7	4.020	-0.090	-0.550	-0.680
2020/01/31 19:54:09.8	4.020	-0.080	-0.510	-0.650
2020/01/31 19:54:09.9	4.020	-0.060	-0.470	-0.630
2020/01/31 19:54:10.0	4.020	-0.050	-0.430	-0.600
2020/01/31 19:54:10.1	4.020	-0.030	-0.390	-0.570
2020/01/31 19:54:10.2	4.010	-0.020	-0.360	-0.550
2020/01/31 19:54:10.3	4.010	-0.000	-0.320	-0.520
2020/01/31 19:54:10.4	4.010	0.010	-0.290	-0.500
2020/01/31 19:54:10.5	4.010	0.020	-0.260	-0.470
2020/01/31 19:54:10.6	4.000	0.040	-0.230	-0.450
2020/01/31 19:54:10.7	3.990	0.050	-0.200	-0.420
2020/01/31 19:54:10.8	3.990	0.050	-0.170	-0.400
2020/01/31 19:54:10.9	3.980	0.060	-0.140	-0.380
2020/01/31 19:54:11.0	3.960	0.060	-0.120	-0.360
2020/01/31 19:54:11.1	3.950	0.070	-0.090	-0.340
2020/01/31 19:54:11.2	3.940	0.070	-0.060	-0.320
2020/01/31 19:54:11.3	3.920	0.060	-0.040	-0.300
2020/01/31 19:54:11.4	3.910	0.060	-0.010	-0.290
2020/01/31 19:54:11.5	3.890	0.050	0.020	-0.280
2020/01/31 19:54:11.6	3.870	0.040	0.050	-0.260
2020/01/31 19:54:11.7	3.840	0.030	0.080	-0.250
2020/01/31 19:54:11.8	3.820	0.020	0.110	-0.240
2020/01/31 19:54:11.9	3.800	-0.000	0.140	-0.230
2020/01/31 19:54:12.0	3.770	-0.020	0.170	-0.220
2020/01/31 19:54:12.1	3.750	-0.040	0.210	-0.210
2020/01/31 19:54:12.2	3.720	-0.060	0.240	-0.200
2020/01/31 19:54:12.3	3.700	-0.080	0.270	-0.190
2020/01/31 19:54:12.4	3.670	-0.100	0.300	-0.180
2020/01/31 19:54:12.5	3.650	-0.130	0.330	-0.160
2020/01/31 19:54:12.6	3.620	-0.150	0.360	-0.150
2020/01/31 19:54:12.7	3.600	-0.170	0.390	-0.140
2020/01/31 19:54:12.8	3.580	-0.200	0.410	-0.120
2020/01/31 19:54:12.9	3.560	-0.220	0.430	-0.110
2020/01/31 19:54:13.0	3.550	-0.240	0.450	-0.100
2020/01/31 19:54:13.1	3.530	-0.250	0.460	-0.090
2020/01/31 19:54:13.2	3.520	-0.270	0.470	-0.080
2020/01/31 19:54:13.3	3.520	-0.280	0.470	-0.070
2020/01/31 19:54:13.4	3.510	-0.290	0.470	-0.060
2020/01/31 19:54:13.5	3.510	-0.300	0.460	-0.050
2020/01/31 19:54:13.6	3.510	-0.300	0.450	-0.040
2020/01/31 19:54:13.7	3.520	-0.300	0.430	-0.030
2020/01/31 19:54:13.8	3.520	-0.300	0.410	-0.030
2020/01/31 19:54:13.9	3.540	-0.290	0.380	-0.030
2020/01/31 19:54:14.0	3.550	-0.280	0.350	-0.020
2020/01/31 19:54:14.1	3.560	-0.270	0.310	-0.020
2020/01/31 19:54:14.2	3.570	-0.250	0.270	-0.010
2020/01/31 19:54:14.3	3.580	-0.220	0.230	-0.010
2020/01/31 19:54:14.4	3.590	-0.200	0.180	0.000
2020/01/31 19:54:14.5	3.610	-0.170	0.130	0.010
2020/01/31 19:54:14.6	3.620	-0.130	0.080	0.020
2020/01/31 19:54:14.7	3.630	-0.090	0.030	0.030
2020/01/31 19:54:14.8	3.640	-0.050	-0.020	0.050
2020/01/31 19:54:14.9	3.640	-0.010	-0.070	0.070
2020/01/31 19:54:15.0	3.650	0.030	-0.120	0.090
2020/01/31 19:54:15.1	3.650	0.080	-0.160	0.110
2020/01/31 19:54:15.2	3.650	0.120	-0.210	0.140
2020/01/31 19:54:15.3	3.650	0.170	-0.250	0.170
2020/01/31 19:54:15.4	3.640	0.220	-0.290	0.200
2020/01/31 19:54:15.5	3.640	0.270	-0.330	0.230
2020/01/31 19:54:15.6	3.630	0.310	-0.370	0.270
2020/01/31 19:54:15.7	3.610	0.360	-0.400	0.300
2020/01/31 19:54:15.8	3.600	0.400	-0.430	0.340
2020/01/31 19:54:15.9	3.580	0.440	-0.460	0.380
2020/01/31 19:54:16.0	3.560	0.480	-0.480	0.410
2020/01/31 19:54:16.1	3.550	0.510	-0.510	0.440
2020/01/31 19:54:16.2	3.530	0.540	-0.530	0.470
2020/01/31 19:54:16.3	3.520	0.570	-0.550	0.500
2020/01/31 19:54:16.4	3.500	0.590	-0.570	0.520
2020/01/31 19:54:16.5	3.490	0.610	-0.580	0.540
2020/01/31 19:54:16.6	3.470	0.620	-0.600	0.550
2020/01/31 19:54:16.7	3.460	0.630	-0.610	0.560
2020/01/31 19:54:16.8	3.450	0.640	-0.630	0.560
2020/01/31 19:54:16.9	3.440	0.640	-0.650	0.560
2020/01/31 19:54:17.0	3.430	0.630	-0.660	0.560
2020/01/31 19:54:17.1	3.430	0.620	-0.670	0.540
2020/01/31 19:54:17.2	3.430	0.600	-0.690	0.530
2020/01/31 19:54:17.3	3.430	0.590	-0.700	0.510
2020/01/31 19:54:17.4	3.430	0.560	-0.710	0.480
2020/01/31 19:54:17.5	3.440	0.530	-0.730	0.440
2020/01/31 19:54:17.6	3.450	0.500	-0.740	0.400
2020/01/31 19:54:17.7	3.460	0.470	-0.750	0.360
2020/01/31 19:54:17.8	3.470	0.430	-0.760	0.310
2020/01/31 19:54:17.9	3.510	0.390	-0.770	0.260
2020/01/31 19:54:18.0	3.520	0.350	-0.780	0.200
2020/01/31 19:54:18.1	3.540	0.300	-0.790	0.140
2020/01/31 19:54:18.2	3.560	0.250	-0.800	0.080
2020/01/31 19:54:18.3	3.580	0.200	-0.810	0.020
2020/01/31 19:54:18.4	3.610	0.160	-0.810	-0.050
2020/01/31 19:54:18.5	3.630	0.110	-0.810	-0.120
2020/01/31 19:54:18.6	3.660	0.060	-0.810	-0.190
2020/01/31 19:54:18.7	3.680	0.010	-0.810	-0.260
2020/01/31 19:54:18.8	3.710	-0.040	-0.810	-0.330
2020/01/31 19:54:18.9	3.750	-0.090	-0.800	-0.400
2020/01/31 19:54:19.0	3.780	-0.140	-0.790	-0.470
2020/01/31 19:54:19.1	3.810	-0.180	-0.770	-0.530
2020/01/31 19:54:19.2	3.840	-0.220	-0.760	-0.590
2020/01/31 19:54:19.3	3.860	-0.260	-0.730	-0.650
2020/01/31 19:54:19.4	3.890	-0.300	-0.710	-0.700
2020/01/31 19:54:19.5	3.910	-0.330	-0.680	-0.750
2020/01/31 19:54:19.6	3.930	-0.360	-0.650	-0.800
2020/01/31 19:54:19.7	3.950	-0.390	-0.610	-0.840
2020/01/31 19:54:19.8	3.970	-0.420	-0.570	-0.870
2020/01/31 19:54:19.9	3.990	-0.440	-0.530	-0.910
2020/01/31 19:54:20.0	4.000	-0.460	-0.480	-0.930
2020/01/31 19:54:20.1	4.010	-0.470	-0.440	-0.950
2020/01/31 19:54:20.2	4.020	-0.490	-0.390	-0.960
2020/01/31 19:54:20.3	4.030	-0.500	-0.340	-0.960
2020/01/31 19:54:20.4	4.030	-0.500	-0.290	-0.960
2020/01/31 19:54:20.5	4.040	-0.510	-0.240	-0.950
2020/01/31 19:54:20.6	4.040	-0.510	-0.190	-0.940
2020/01/31 19:54:20.7	4.030	-0.510	-0.150	-0.930
2020/01/31 19:54:20.8	4.030	-0.500	-0.100	-0.910
2020/01/31 19:54:20.9	4.020	-0.500	-0.060	-0.890
2020/01/31 19:54:21.0	4.020	-0.490	-0.020	-0.860
2020/01/31 19:54:21.1	4.020	-0.480	0.020	-0.840
2020/01/31 19:54:21.2	4.010	-0.460	0.060	-0.810
2020/01/31 19:54:21.3	4.010	-0.450	0.080	-0.780
2020/01/31 19:54:21.4	4.000	-0.430	0.110	-0.750
2020/01/31 19:54:21.5	4.000	-0.410	0.130	-0.720
2020/01/31 19:54:21.6	4.000	-0.390	0.150	-0.690
2020/01/31 19:54:21.7	4.000	-0.370	0.160	-0.650
2020/01/31 19:54:21.8	4.010	-0.350	0.160	-0.620
2020/01/31 19:54:21.9	4.010	-0.320	0.160	-0.600
2020/01/31 19:54:22.0	4.010	-0.290	0.160	-0.570
2020/01/31 19:54:22.1	4.020	-0.270	0.150	-0.540
2020/01/31 19:54:22.2	4.030	-0.240	0.140	-0.510
2020/01/31 19:54:22.3	4.040	-0.210	0.120	-0.480
2020/01/31 19:54:22.4	4.050	-0.180	0.110	-0.450
2020/01/31 19:54:22.5	4.060	-0.150	0.090	-0.420
2020/01/31 19:54:22.6	4.070	-0.120	0.060	-0.390
2020/01/31 19:54:22.7	4.070	-0.090	0.040	-0.370
2020/01/31 19:54:22.8	4.080	-0.070	0.020	-0.340
2020/01/31 19:54:22.9	4.090	-0.040	-0.010	-0.300
2020/01/31 19:54:23.0	4.100	-0.010	-0.030	-0.270
2020/01/31 19:54:23.1	4.100	0.020	-0.050	-0.240
2020/01/31 19:54:23.2	4.100	0.040	-0.060	-0.210
2020/01/31 19:54:23.3	4.090	0.060	-0.080	-0.170
2020/01/31 19:54:23.4	4.090	0.090	-0.090	-0.130
2020/01/31 19:54:23.5	4.080	0.110	-0.100	-0.100
2020/01/31 19:54:23.6	4.070	0.130	-0.100	-0.050
2020/01/31 19:54:23.7	4.060	0.150	-0.100	-0.010
2020/01/31 19:54:23.8	4.050	0.160	-0.100	0.030
2020/01/31 19:54:23.9	4.030	0.180	-0.090	0.070
2020/01/31 19:54:24.0	4.010	0.190	-0.080	0.120
2020/01/31 19:54:24.1	3.990	0.200	-0.060	0.170
2020/01/31 19:54:24.2	3.970	0.210	-0.050	0.220
2020/01/31 19:54:24.3	3.950	0.220	-0.030	0.260
2020/01/31 19:54:24.4	3.920	0.230	-0.010	0.310
2020/01/31 19:54:24.5	3.900	0.230	0.010	0.360
2020/01/31 19:54:24.6	3.880	0.240	0.040	0.400
2020/01/31 19:54:24.7	3.860	0.240	0.060	0.440
2020/01/31 19:54:24.8	3.830	0.240	0.080	0.480
2020/01/31 19:54:24.9	3.830	0.240	0.090	0.520
2020/01/31 19:54:25.0	3.810	0.240	0.110	0.550
2020/01/31 19:54:25.1	3.790	0.240	0.120	0.580
2020/01/31 19:54:25.2	3.770	0.240	0.130	0.600
2020/01/31 19:54:25.3	3.760	0.230	0.130	0.620
2020/01/31 19:54:25.4	3.740	0.230	0.140	0.630
2020/01/31 19:54:25.5	3.730	0.230	0.130	0.630
2020/01/31 19:54:25.6	3.720	0.220	0.120	0.630
2020/01/31 19:54:25.7	3.710	0.220	0.110	0.630
2020/01/31 19:54:25.8	3.710	0.220	0.090	0.620
2020/01/31 19:54:25.9	3.700	0.210	0.060	0.590
2020/01/31 19:54:26.0	3.690	0.210	0.030	0.570
2020/01/31 19:54:26.1	3.690	0.210	-0.010	0.550
2020/01/31 19:54:26.2	3.690	0.210	-0.050	0.520
2020/01/31 19:54:26.3	3.700	0.210	-0.090	0.490
2020/01/31 19:54:26.4	3.700	0.210	-0.140	0.450
2020/01/31 19:54:26.5	3.700	0.210	-0.190	0.420
2020/01/31 19:54:26.6	3.710	0.210	-0.240	0.380
2020/01/31 19:54:26.7	3.710	0.210	-0.300	0.340
2020/01/31 19:54:26.8	3.720	0.210	-0.350	0.290
2020/01/31 19:54:26.9	3.720	0.220	-0.410	0.250
2020/01/31 19:54:27.0	3.730	0.220	-0.470	0.210
2020/01/31 19:54:27.1	3.740	0.220	-0.520	0.160
2020/01/31 19:54:27.2	3.750	0.220	-0.570	0.120
2020/01/31 19:54:27.3	3.760	0.210	-0.620	0.070
2020/01/31 19:54:27.4	3.760	0.210	-0.670	0.020
2020/01/31 19:54:27.5	3.770	0.210	-0.710	-0.030
2020/01/31 19:54:27.6	3.780	0.200	-0.750	-0.080
2020/01/31 19:54:27.7	3.790	0.190	-0.790	-0.130
2020/01/31 19:54:27.8	3.800	0.190	-0.820	-0.180
2020/01/31 19:54:27.9	3.800	0.170	-0.840	-0.240
2020/01/31 19:54:28.0	3.810	0.160	-0.860	-0.290
2020/01/31 19:54:28.1	3.820	0.150	-0.880	-0.340
2020/01/31 19:54:28.2	3.820	0.130	-0.890	-0.390
2020/01/31 19:54:28.3	3.830	0.110	-0.890	-0.440
2020/01/31 19:54:28.4	3.840	0.090	-0.890	-0.490
2020/01/31 19:54:28.5	3.850	0.070	-0.880	-0.540
2020/01/31 19:54:28.6	3.860	0.050	-0.870	-0.580
2020/01/31 19:54:28.7	3.870	0.030	-0.850	-0.620
2020/01/31 19:54:28.8	3.880	0.000	-0.830	-0.670
2020/01/31 19:54:28.9	3.870	-0.020	-0.800	-0.710
2020/01/31 19:54:29.0	3.880	-0.050	-0.770	-0.740
2020/01/31 19:54:29.1	3.880	-0.080	-0.730	-0.770
2020/01/31 19:54:29.2	3.890	-0.100	-0.680	-0.790
2020/01/31 19:54:29.3	3.890	-0.130	-0.630	-0.810
2020/01/31 19:54:29.4	3.890	-0.160	-0.580	-0.830
2020/01/31 19:54:29.5	3.890	-0.190	-0.530	-0.840
2020/01/31 19:54:29.6	3.890	-0.210	-0.470	-0.840
2020/01/31 19:54:29.7	3.880	-0.240	-0.410	-0.840
2020/01/31 19:54:29.8	3.880	-0.260	-0.350	-0.840
2020/01/31 19:54:29.9	3.870	-0.280	-0.290	-0.830
2020/01/31 19:54:30.0	3.860	-0.300	-0.230	-0.820
2020/01/31 19:54:30.1	3.860	-0.320	-0.180	-0.800
2020/01/31 19:54:30.2	3.850	-0.340	-0.120	-0.790
2020/01/31 19:54:30.3	3.840	-0.350	-0.060	-0.760
2020/01/31 19:54:30.4	3.830	-0.360	-0.010	-0.740
2020/01/31 19:54:30.5	3.820	-0.370	0.030	-0.710
2020/01/31 19:54:30.6	3.800	-0.380	0.080	-0.680
2020/01/31 19:54:30.7	3.790	-0.380	0.120	-0.650
2020/01/31 19:54:30.8	3.780	-0.380	0.150	-0.620
2020/01/31 19:54:30.9	3.770	-0.380	0.170	-0.590
2020/01/31 19:54:31.0	3.760	-0.380	0.200	-0.560
2020/01/31 19:54:31.1	3.750	-0.370	0.210	-0.530
2020/01/31 19:54:31.2	3.740	-0.360	0.220	-0.490
2020/01/31 19:54:31.3	3.730	-0.340	0.230	-0.450
2020/01/31 19:54:31.4	3.720	-0.330	0.230	-0.420
2020/01/31 19:54:31.5	3.710	-0.310	0.230	-0.380
2020/01/31 19:54:31.6	3.700	-0.280	0.220	-0.350
2020/01/31 19:54:31.7	3.700	-0.260	0.200	-0.310
2020/01/31 19:54:31.8	3.690	-0.230	0.180	-0.280
2020/01/31 19:54:31.9	3.700	-0.200	0.160	-0.240
2020/01/31 19:54:32.0	3.700	-0.170	0.130	-0.210
2020/01/31 19:54:32.1	3.710	-0.130	0.090	-0.180
2020/01/31 19:54:32.2	3.720	-0.100	0.060	-0.160
2020/01/31 19:54:32.3	3.730	-0.060	0.020	-0.130
2020/01/31 19:54:32.4	3.740	-0.030	-0.030	-0.110
2020/01/31 19:54:32.5	3.750	0.010	-0.070	-0.080
2020/01/31 19:54:32.6	3.770	0.050	-0.120	-0.070
2020/01/31 19:54:32.7	3.790	0.080	-0.160	-0.050
2020/01/31 19:54:32.8	3.810	0.120	-0.210	-0.030
2020/01/31 19:54:32.9	3.830	0.160	-0.260	-0.020
2020/01/31 19:54:33.0	3.850	0.190	-0.300	-0.000
2020/01/31 19:54:33.1	3.870	0.220	-0.350	0.010
2020/01/31 19:54:33.2	3.890	0.250	-0.390	0.020
2020/01/31 19:54:33.3	3.920	0.280	-0.430	0.030
2020/01/31 19:54:33.4	3.940	0.300	-0.460	0.050
2020/01/31 19:54:33.5	3.960	0.320	-0.500	0.060
2020/01/31 19:54:33.6	3.980	0.340	-0.530	0.070
2020/01/31 19:54:33.7	4.000	0.350	-0.550	0.080
2020/01/31 19:54:33.8	4.010	0.370	-0.570	0.090
2020/01/31 19:54:33.9	4.020	0.370	-0.590	0.100
2020/01/31 19:54:34.0	4.030	0.380	-0.600	0.100
2020/01/31 19:54:34.1	4.050	0.380	-0.610	0.110
2020/01/31 19:54:34.2	4.060	0.370	-0.620	0.110
2020/01/31 19:54:34.3	4.070	0.370	-0.620	0.110
2020/01/31 19:54:34.4	4.080	0.360	-0.620	0.110
2020/01/31 19:54:34.5	4.090	0.340	-0.620	0.110
2020/01/31 19:54:34.6	4.090	0.330	-0.610	0.110
2020/01/31 19:54:34.7	4.100	0.310	-0.610	0.100
2020/01/31 19:54:34.8	4.100	0.290	-0.600	0.090
2020/01/31 19:54:34.9	4.120	0.270	-0.590	0.080
2020/01/31 19:54:35.0	4.120	0.240	-0.570	0.070
2020/01/31 19:54:35.1	4.120	0.220	-0.560	0.060
2020/01/31 19:54:35.2	4.120	0.190	-0.540	0.040
2020/01/31 19:54:35.3	4.120	0.160	-0.530	0.030
2020/01/31 19:54:35.4	4.120	0.140	-0.510	0.010
2020/01/31 19:54:35.5	4.120	0.110	-0.490	-0.010
2020/01/31 19:54:35.6	4.120	0.080	-0.480	-0.030
2020/01/31 19:54:35.7	4.120	0.060	-0.460	-0.050
2020/01/31 19:54:35.8	4.110	0.030	-0.440	-0.060
2020/01/31 19:54:35.9	4.110	0.010	-0.420	-0.080
2020/01/31 19:54:36.0	4.110	-0.010	-0.400	-0.100
2020/01/31 19:54:36.1	4.100	-0.030	-0.380	-0.110
2020/01/31 19:54:36.2	4.090	-0.050	-0.360	-0.130
2020/01/31 19:54:36.3	4.080	-0.070	-0.340	-0.140
2020/01/31 19:54:36.4	4.070	-0.080	-0.310	-0.160
2020/01/31 19:54:36.5	4.060	-0.100	-0.290	-0.170
2020/01/31 19:54:36.6	4.040	-0.110	-0.260	-0.170
2020/01/31 19:54:36.7	4.020	-0.120	-0.230	-0.180
2020/01/31 19:54:36.8	4.000	-0.130	-0.200	-0.190
2020/01/31 19:54:36.9	3.980	-0.140	-0.170	-0.190
2020/01/31 19:54:37.0	3.950	-0.140	-0.130	-0.200
2020/01/31 19:54:37.1	3.930	-0.150	-0.100	-0.200
2020/01/31 19:54:37.2	3.900	-0.160	-0.060	-0.200
2020/01/31 19:54:37.3	3.870	-0.160	-0.020	-0.200
2020/01/31 19:54:37.4	3.840	-0.170	0.020	-0.200
2020/01/31 19:54:37.5	3.810	-0.170	0.050	-0.200
2020/01/31 19:54:37.6	3.780	-0.170	0.090	-0.200
2020/01/31 19:54:37.7	3.740	-0.180	0.130	-0.200
2020/01/31 19:54:37.8	3.710	-0.180	0.170	-0.200
2020/01/31 19:54:37.9	3.670	-0.190	0.210	-0.200
2020/01/31 19:54:38.0	3.630	-0.190	0.240	-0.200
2020/01/31 19:54:38.1	3.590	-0.200	0.280	-0.190
2020/01/31 19:54:38.2	3.560	-0.200	0.310	-0.190
2020/01/31 19:54:38.3	3.520	-0.210	0.340	-0.190
2020/01/31 19:54:38.4	3.490	-0.210	0.360	-0.180
2020/01/31 19:54:38.5	3.450	-0.220	0.380	-0.170
2020/01/31 19:54:38.6	3.420	-0.230	0.400	-0.170
2020/01/31 19:54:38.7	3.390	-0.230	0.410	-0.160
2020/01/31 19:54:38.8	3.360	-0.240	0.430	-0.150
2020/01/31 19:54:38.9	3.320	-0.240	0.430	-0.140
2020/01/31 19:54:39.0	3.300	-0.250	0.430	-0.130
2020/01/31 19:54:39.1	3.270	-0.250	0.420	-0.120
2020/01/31 19:54:39.2	3.250	-0.260	0.420	-0.110
2020/01/31 19:54:39.3	3.230	-0.260	0.400	-0.100
2020/01/31 19:54:39.4	3.220	-0.260	0.390	-0.090
2020/01/31 19:54:39.5	3.200	-0.260	0.370	-0.080
2020/01/31 19:54:39.6	3.190	-0.260	0.340	-0.070
2020/01/31 19:54:39.7	3.180	-0.250	0.310	-0.060
2020/01/31 19:54:39.8	3.170	-0.250	0.280	-0.050
2020/01/31 19:54:39.9	3.160	-0.240	0.240	-0.040
2020/01/31 19:54:40.0	3.160	-0.230	0.210	-0.030
2020/01/31 19:54:40.1	3.150	-0.220	0.160	-0.020
2020/01/31 19:54:40.2	3.150	-0.210	0.120	-0.010
2020/01/31 19:54:40.3	3.140	-0.200	0.070	-0.000
2020/01/31 19:54:40.4	3.140	-0.180	0.020	0.010
2020/01/31 19:54:40.5	3.140	-0.160	-0.040	0.020
2020/01/31 19:54:40.6	3.140	-0.140	-0.090	0.020
2020/01/31 19:54:40.7	3.140	-0.110	-0.150	0.030
2020/01/31 19:54:40.8	3.140	-0.080	-0.200	0.040
2020/01/31 19:54:40.9	3.150	-0.050	-0.260	0.050
2020/01/31 19:54:41.0	3.160	-0.020	-0.320	0.070
2020/01/31 19:54:41.1	3.160	0.010	-0.380	0.080
2020/01/31 19:54:41.2	3.170	0.050	-0.440	0.100
2020/01/31 19:54:41.3	3.190	0.090	-0.500	0.110
2020/01/31 19:54:41.4	3.200	0.130	-0.550	0.130
2020/01/31 19:54:41.5	3.220	0.170	-0.610	0.150
2020/01/31 19:54:41.6	3.230	0.220	-0.660	0.170
2020/01/31 19:54:41.7	3.250	0.260	-0.710	0.190
2020/01/31 19:54:41.8	3.280	0.300	-0.760	0.210
2020/01/31 19:54:41.9	3.290	0.350	-0.810	0.230
2020/01/31 19:54:42.0	3.310	0.390	-0.860	0.250
2020/01/31 19:54:42.1	3.340	0.430	-0.900	0.270
2020/01/31 19:54:42.2	3.370	0.470	-0.940	0.280
2020/01/31 19:54:42.3	3.390	0.510	-0.980	0.300
2020/01/31 19:54:42.4	3.420	0.540	-1.010	0.320
2020/01/31 19:54:42.5	3.440	0.570	-1.040	0.340
2020/01/31 19:54:42.6	3.470	0.590	-1.060	0.350
2020/01/31 19:54:42.7	3.490	0.610	-1.080	0.370
2020/01/31 19:54:42.8	3.520	0.630	-1.090	0.380
2020/01/31 19:54:42.9	3.540	0.640	-1.110	0.390
2020/01/31 19:54:43.0	3.560	0.640	-1.120	0.400
2020/01/31 19:54:43.1	3.580	0.640	-1.120	0.400
2020/01/31 19:54:43.2	3.600	0.630	-1.120	0.410
2020/01/31 19:54:43.3	3.610	0.620	-1.110	0.410
2020/01/31 19:54:43.4	3.630	0.600	-1.100	0.410
2020/01/31 19:54:43.5	3.640	0.580	-1.090	0.400
2020/01/31 19:54:43.6	3.650	0.550	-1.070	0.400
2020/01/31 19:54:43.7	3.660	0.510	-1.050	0.390
2020/01/31 19:54:43.8	3.670	0.470	-1.020	0.380
2020/01/31 19:54:43.9	3.680	0.430	-1.000	0.360
2020/01/31 19:54:44.0	3.680	0.380	-0.970	0.340
2020/01/31 19:54:44.1	3.690	0.320	-0.930	0.320
2020/01/31 19:54:44.2	3.700	0.270	-0.900	0.300
2020/01/31 19:54:44.3	3.710	0.210	-0.860	0.270
2020/01/31 19:54:44.4	3.710	0.150	-0.820	0.240
2020/01/31 19:54:44.5	3.720	0.090	-0.780	0.200
2020/01/31 19:54:44.6	3.730	0.020	-0.730	0.170
2020/01/31 19:54:44.7	3.740	-0.040	-0.690	0.130
2020/01/31 19:54:44.8	3.750	-0.110	-0.640	0.090
2020/01/31 19:54:44.9	3.770	-0.170	-0.600	0.040
2020/01/31 19:54:45.0	3.780	-0.240	-0.550	-0.010
2020/01/31 19:54:45.1	3.790	-0.300	-0.500	-0.050
2020/01/31 19:54:45.2	3.800	-0.360	-0.450	-0.100
2020/01/31 19:54:45.3	3.820	-0.410	-0.400	-0.140
2020/01/31 19:54:45.4	3.830	-0.470	-0.350	-0.190
2020/01/31 19:54:45.5	3.850	-0.520	-0.300	-0.230
2020/01/31 19:54:45.6	3.860	-0.560	-0.250	-0.280
2020/01/31 19:54:45.7	3.870	-0.600	-0.200	-0.320
2020/01/31 19:54:45.8	3.880	-0.640	-0.150	-0.360
2020/01/31 19:54:45.9	3.900	-0.670	-0.100	-0.400
2020/01/31 19:54:46.0	3.910	-0.690	-0.050	-0.440
2020/01/31 19:54:46.1	3.920	-0.710	-0.000	-0.470
2020/01/31 19:54:46.2	3.930	-0.720	0.050	-0.500
2020/01/31 19:54:46.3	3.930	-0.730	0.100	-0.530
2020/01/31 19:54:46.4	3.940	-0.730	0.150	-0.550
2020/01/31 19:54:46.5	3.940	-0.730	0.190	-0.570
2020/01/31 19:54:46.6	3.940	-0.720	0.240	-0.590
2020/01/31 19:54:46.7	3.930	-0.710	0.290	-0.600
2020/01/31 19:54:46.8	3.930	-0.690	0.330	-0.610
2020/01/31 19:54:46.9	3.920	-0.660	0.370	-0.610
2020/01/31 19:54:47.0	3.910	-0.640	0.410	-0.620
2020/01/31 19:54:47.1	3.900	-0.600	0.450	-0.610
2020/01/31 19:54:47.2	3.880	-0.570	0.480	-0.610
2020/01/31 19:54:47.3	3.870	-0.530	0.510	-0.600
2020/01/31 19:54:47.4	3.850	-0.490	0.540	-0.580
2020/01/31 19:54:47.5	3.830	-0.450	0.570	-0.570
2020/01/31 19:54:47.6	3.810	-0.400	0.590	-0.540
2020/01/31 19:54:47.7	3.780	-0.350	0.600	-0.520
2020/01/31 19:54:47.8	3.750	-0.310	0.620	-0.490
2020/01/31 19:54:47.9	3.710	-0.260	0.620	-0.450
2020/01/31 19:54:48.0	3.680	-0.210	0.630	-0.420
2020/01/31 19:54:48.1	3.640	-0.160	0.630	-0.380
2020/01/31 19:54:48.2	3.610	-0.110	0.640	-0.340
2020/01/31 19:54:48.3	3.570	-0.070	0.630	-0.300
2020/01/31 19:54:48.4	3.530	-0.020	0.630	-0.250
2020/01/31 19:54:48.5	3.490	0.020	0.620	-0.210
2020/01/31 19:54:48.6	3.450	0.060	0.600	-0.160
2020/01/31 19:54:48.7	3.410	0.100	0.590	-0.120
2020/01/31 19:54:48.8	3.370	0.140	0.570	-0.070
2020/01/31 19:54:48.9	3.310	0.180	0.550	-0.030
2020/01/31 19:54:49.0	3.270	0.210	0.520	0.020
2020/01/31 19:54:49.1	3.230	0.240	0.490	0.060
2020/01/31 19:54:49.2	3.190	0.270	0.460	0.100
2020/01/31 19:54:49.3	3.150	0.290	0.430	0.150
2020/01/31 19:54:49.4	3.110	0.320	0.390	0.180
2020/01/31 19:54:49.5	3.070	0.340	0.360	0.220
2020/01/31 19:54:49.6	3.030	0.350	0.320	0.260
2020/01/31 19:54:49.7	3.000	0.370	0.270	0.290
2020/01/31 19:54:49.8	2.970	0.380	0.230	0.330
2020/01/31 19:54:49.9	2.950	0.400	0.180	0.360
2020/01/31 19:54:50.0	2.930	0.400	0.140	0.390
2020/01/31 19:54:50.1	2.900	0.410	0.090	0.410
2020/01/31 19:54:50.2	2.880	0.420	0.040	0.430
2020/01/31 19:54:50.3	2.860	0.420	-0.010	0.450
2020/01/31 19:54:50.4	2.850	0.420	-0.060	0.470
2020/01/31 19:54:50.5	2.840	0.430	-0.110	0.480
2020/01/31 19:54:50.6	2.830	0.420	-0.170	0.490
2020/01/31 19:54:50.7	2.820	0.420	-0.220	0.490
2020/01/31 19:54:50.8	2.820	0.420	-0.270	0.490
2020/01/31 19:54:50.9	2.820	0.410	-0.320	0.480
2020/01/31 19:54:51.0	2.830	0.410	-0.380	0.470
2020/01/31 19:54:51.1	2.840	0.400	-0.430	0.450
2020/01/31 19:54:51.2	2.850	0.390	-0.480	0.440
2020/01/31 19:54:51.3	2.860	0.380	-0.530	0.410
2020/01/31 19:54:51.4	2.880	0.370	-0.580	0.380
2020/01/31 19:54:51.5	2.900	0.350	-0.630	0.350
2020/01/31 19:54:51.6	2.930	0.340	-0.680	0.310
2020/01/31 19:54:51.7	2.960	0.320	-0.730	0.270
2020/01/31 19:54:51.8	2.990	0.300	-0.780	0.230
2020/01/31 19:54:51.9	3.020	0.280	-0.830	0.180
2020/01/31 19:54:52.0	3.060	0.260	-0.870	0.130
2020/01/31 19:54:52.1	3.100	0.230	-0.910	0.070
2020/01/31 19:54:52.2	3.140	0.210	-0.950	0.020
2020/01/31 19:54:52.3	3.170	0.190	-0.990	-0.040
2020/01/31 19:54:52.4	3.210	0.160	-1.020	-0.090
2020/01/31 19:54:52.5	3.250	0.130	-1.050	-0.150
2020/01/31 19:54:52.6	3.290	0.100	-1.070	-0.200
2020/01/31 19:54:52.7	3.320	0.070	-1.090	-0.250
2020/01/31 19:54:52.8	3.360	0.040	-1.110	-0.310
2020/01/31 19:54:52.9	3.390	0.010	-1.120	-0.360
2020/01/31 19:54:53.0	3.420	-0.030	-1.120	-0.410
2020/01/31 19:54:53.1	3.440	-0.060	-1.120	-0.450
2020/01/31 19:54:53.2	3.470	-0.090	-1.110	-0.500
2020/01/31 19:54:53.3	3.490	-0.130	-1.100	-0.540
2020/01/31 19:54:53.4	3.510	-0.160	-1.080	-0.570
2020/01/31 19:54:53.5	3.520	-0.190	-1.060	-0.610
2020/01/31 19:54:53.6	3.530	-0.220	-1.030	-0.640
2020/01/31 19:54:53.7	3.540	-0.250	-1.000	-0.670
2020/01/31 19:54:53.8	3.550	-0.280	-0.960	-0.690
2020/01/31 19:54:53.9	3.550	-0.310	-0.920	-0.720
2020/01/31 19:54:54.0	3.560	-0.340	-0.870	-0.740
2020/01/31 19:54:54.1	3.560	-0.360	-0.820	-0.750
2020/01/31 19:54:54.2	3.560	-0.390	-0.770	-0.760
2020/01/31 19:54:54.3	3.550	-0.410	-0.710	-0.770
2020/01/31 19:54:54.4	3.550	-0.420	-0.660	-0.780
2020/01/31 19:54:54.5	3.540	-0.440	-0.600	-0.780
2020/01/31 19:54:54.6	3.540	-0.450	-0.540	-0.770
2020/01/31 19:54:54.7	3.530	-0.460	-0.480	-0.770
2020/01/31 19:54:54.8	3.520	-0.460	-0.430	-0.760
2020/01/31 19:54:54.9	3.520	-0.460	-0.370	-0.740
2020/01/31 19:54:55.0	3.510	-0.460	-0.320	-0.730
2020/01/31 19:54:55.1	3.500	-0.460	-0.270	-0.710
2020/01/31 19:54:55.2	3.490	-0.450	-0.220	-0.690
2020/01/31 19:54:55.3	3.490	-0.430	-0.180	-0.670
2020/01/31 19:54:55.4	3.480	-0.420	-0.130	-0.640
2020/01/31 19:54:55.5	3.470	-0.400	-0.100	-0.620
2020/01/31 19:54:55.6	3.470	-0.380	-0.070	-0.600
2020/01/31 19:54:55.7	3.460	-0.350	-0.040	-0.570
2020/01/31 19:54:55.8	3.460	-0.320	-0.020	-0.550
2020/01/31 19:54:55.9	3.460	-0.290	0.000	-0.530
2020/01/31 19:54:56.0	3.460	-0.260	0.010	-0.500
2020/01/31 19:54:56.1	3.460	-0.220	0.020	-0.480
2020/01/31 19:54:56.2	3.470	-0.180	0.020	-0.460
2020/01/31 19:54:56.3	3.470	-0.140	0.020	-0.440
2020/01/31 19:54:56.4	3.480	-0.100	0.010	-0.410
2020/01/31 19:54:56.5	3.490	-0.050	0.000	-0.390
2020/01/31 19:54:56.6	3.500	-0.010	-0.010	-0.370
2020/01/31 19:54:56.7	3.510	0.040	-0.030	-0.340
2020/01/31 19:54:56.8	3.520	0.080	-0.050	-0.320
2020/01/31 19:54:56.9	3.530	0.130	-0.080	-0.290
2020/01/31 19:54:57.0	3.540	0.180	-0.100	-0.260
2020/01/31 19:54:57.1	3.550	0.220	-0.130	-0.240
2020/01/31 19:54:57.2	3.560	0.260	-0.160	-0.210
2020/01/31 19:54:57.3	3.580	0.310	-0.190	-0.190
2020/01/31 19:54:57.4	3.590	0.350	-0.220	-0.160
2020/01/31 19:54:57.5	3.600	0.390	-0.250	-0.130
2020/01/31 19:54:57.6	3.620	0.420	-0.280	-0.110
2020/01/31 19:54:57.7	3.630	0.460	-0.310	-0.080
2020/01/31 19:54:57.8	3.640	0.490	-0.330	-0.050
2020/01/31 19:54:57.9	3.660	0.520	-0.360	-0.030
2020/01/31 19:54:58.0	3.670	0.550	-0.380	0.000
2020/01/31 19:54:58.1	3.680	0.570	-0.400	0.030
2020/01/31 19:54:58.2	3.690	0.590	-0.410	0.060
2020/01/31 19:54:58.3	3.700	0.600	-0.420	0.090
2020/01/31 19:54:58.4	3.700	0.610	-0.430	0.120
2020/01/31 19:54:58.5	3.710	0.620	-0.430	0.150
2020/01/31 19:54:58.6	3.710	0.620	-0.430	0.180
2020/01/31 19:54:58.7	3.710	0.620	-0.420	0.210
2020/01/31 19:54:58.8	3.700	0.620	-0.410	0.240
2020/01/31 19:54:58.9	3.700	0.610	-0.390	0.270
2020/01/31 19:54:59.0	3.690	0.590	-0.370	0.300
2020/01/31 19:54:59.1	3.680	0.580	-0.340	0.330
2020/01/31 19:54:59.2	3.670	0.550	-0.310	0.350
2020/01/31 19:54:59.3	3.650	0.530	-0.280	0.380
2020/01/31 19:54:59.4	3.630	0.500	-0.240	0.410
2020/01/31 19:54:59.5	3.610	0.470	-0.200	0.430
2020/01/31 19:54:59.6	3.580	0.430	-0.150	0.450
2020/01/31 19:54:59.7	3.560	0.390	-0.110	0.470
2020/01/31 19:54:59.8	3.530	0.350	-0.060	0.490
2020/01/31 19:54:59.9	3.510	0.300	-0.010	0.490
2020/01/31 19:55:00.0	3.470	0.250	0.040	0.500
2020/01/31 19:55:00.1	3.440	0.200	0.090	0.510
2020/01/31 19:55:00.2	3.410	0.150	0.140	0.520
2020/01/31 19:55:00.3	3.370	0.100	0.190	0.520
2020/01/31 19:55:00.4	3.340	0.050	0.240	0.510
2020/01/31 19:55:00.5	3.300	-0.010	0.280	0.500
2020/01/31 19:55:00.6	3.270	-0.060	0.320	0.490
2020/01/31 19:55:00.7	3.230	-0.120	0.360	0.470
2020/01/31 19:55:00.8	3.200	-0.170	0.400	0.450
2020/01/31 19:55:00.9	3.150	-0.230	0.430	0.430
2020/01/31 19:55:01.0	3.120	-0.280	0.450	0.400
2020/01/31 19:55:01.1	3.090	-0.330	0.480	0.370
2020/01/31 19:55:01.2	3.060	-0.380	0.490	0.330
2020/01/31 19:55:01.3	3.030	-0.430	0.500	0.280
2020/01/31 19:55:01.4	3.010	-0.470	0.510	0.240
2020/01/31 19:55:01.5	2.980	-0.520	0.510	0.190
2020/01/31 19:55:01.6	2.960	-0.550	0.510	0.130
2020/01/31 19:55:01.7	2.940	-0.590	0.500	0.080
2020/01/31 19:55:01.8	2.930	-0.620	0.480	0.020
2020/01/31 19:55:01.9	2.920	-0.650	0.460	-0.050
2020/01/31 19:55:02.0	2.910	-0.670	0.430	-0.110
2020/01/31 19:55:02.1	2.900	-0.690	0.400	-0.180
2020/01/31 19:55:02.2	2.900	-0.710	0.360	-0.250
2020/01/31 19:55:02.3	2.910	-0.720	0.310	-0.320
2020/01/31 19:55:02.4	2.910	-0.720	0.270	-0.390
2020/01/31 19:55:02.5	2.920	-0.730	0.220	-0.460
2020/01/31 19:55:02.6	2.930	-0.730	0.160	-0.520
2020/01/31 19:55:02.7	2.950	-0.720	0.100	-0.590
2020/01/31 19:55:02.8	2.960	-0.710	0.040	-0.660
2020/01/31 19:55:02.9	2.990	-0.700	-0.020	-0.730
2020/01/31 19:55:03.0	3.010	-0.680	-0.080	-0.790
2020/01/31 19:55:03.1	3.030	-0.660	-0.140	-0.840
2020/01/31 19:55:03.2	3.050	-0.640	-0.210	-0.900
2020/01/31 19:55:03.3	3.080	-0.620	-0.270	-0.950
2020/01/31 19:55:03.4	3.100	-0.590	-0.330	-0.990
2020/01/31 19:55:03.5	3.130	-0.560	-0.380	-1.030
2020/01/31 19:55:03.6	3.150	-0.530	-0.440	-1.070
2020/01/31 19:55:03.7	3.180	-0.500	-0.490	-1.100
2020/01/31 19:55:03.8	3.200	-0.460	-0.530	-1.120
2020/01/31 19:55:03.9	3.230	-0.430	-0.580	-1.140
2020/01/31 19:55:04.0	3.250	-0.390	-0.610	-1.140
2020/01/31 19:55:04.1	3.270	-0.360	-0.640	-1.150
2020/01/31 19:55:04.2	3.290	-0.320	-0.670	-1.140
2020/01/31 19:55:04.3	3.300	-0.280	-0.690	-1.130
2020/01/31 19:55:04.4	3.310	-0.250	-0.710	-1.120
2020/01/31 19:55:04.5	3.330	-0.210	-0.720	-1.090
2020/01/31 19:55:04.6	3.340	-0.180	-0.720	-1.060
2020/01/31 19:55:04.7	3.350	-0.140	-0.720	-1.030
2020/01/31 19:55:04.8	3.350	-0.110	-0.720	-0.990
2020/01/31 19:55:04.9	3.360	-0.080	-0.710	-0.940
2020/01/31 19:55:05.0	3.370	-0.050	-0.700	-0.900
2020/01/31 19:55:05.1	3.370	-0.020	-0.690	-0.840
2020/01/31 19:55:05.2	3.370	0.010	-0.670	-0.790
2020/01/31 19:55:05.3	3.370	0.030	-0.650	-0.730
2020/01/31 19:55:05.4	3.370	0.060	-0.630	-0.680
2020/01/31 19:55:05.5	3.370	0.080	-0.620	-0.620
2020/01/31 19:55:05.6	3.370	0.100	-0.600	-0.560
2020/01/31 19:55:05.7	3.370	0.120	-0.580	-0.500
2020/01/31 19:55:05.8	3.360	0.140	-0.560	-0.430
2020/01/31 19:55:05.9	3.370	0.160	-0.550	-0.370
2020/01/31 19:55:06.0	3.370	0.180	-0.540	-0.310
2020/01/31 19:55:06.1	3.370	0.200	-0.530	-0.250
2020/01/31 19:55:06.2	3.370	0.220	-0.530	-0.190
2020/01/31 19:55:06.3	3.370	0.230	-0.520	-0.140
2020/01/31 19:55:06.4	3.380	0.250	-0.520	-0.080
2020/01/31 19:55:06.5	3.390	0.270	-0.520	-0.030
2020/01/31 19:55:06.6	3.390	0.290	-0.530	0.020
2020/01/31 19:55:06.7	3.400	0.310	-0.540	0.070
2020/01/31 19:55:06.8	3.420	0.330	-0.550	0.110
2020/01/31 19:55:06.9	3.440	0.350	-0.560	0.150
2020/01/31 19:55:07.0	3.450	0.370	-0.580	0.190
2020/01/31 19:55:07.1	3.470	0.390	-0.600	0.230
2020/01/31 19:55:07.2	3.490	0.420	-0.620	0.270
2020/01/31 19:55:07.3	3.510	0.440	-0.640	0.300
2020/01/31 19:55:07.4	3.530	0.460	-0.660	0.330
2020/01/31 19:55:07.5	3.550	0.490	-0.680	0.350
2020/01/31 19:55:07.6	3.570	0.510	-0.690	0.380
2020/01/31 19:55:07.7	3.580	0.540	-0.710	0.400
2020/01/31 19:55:07.8	3.600	0.560	-0.730	0.410
2020/01/31 19:55:07.9	3.600	0.580	-0.740	0.430
2020/01/31 19:55:08.0	3.620	0.600	-0.750	0.440
2020/01/31 19:55:08.1	3.640	0.620	-0.750	0.450
2020/01/31 19:55:08.2	3.650	0.640	-0.750	0.450
2020/01/31 19:55:08.3	3.660	0.660	-0.750	0.450
2020/01/31 19:55:08.4	3.670	0.670	-0.740	0.450
2020/01/31 19:55:08.5	3.680	0.690	-0.720	0.450
2020/01/31 19:55:08.6	3.690	0.690	-0.700	0.450
2020/01/31 19:55:08.7	3.690	0.700	-0.680	0.450
2020/01/31 19:55:08.8	3.700	0.700	-0.650	0.440
2020/01/31 19:55:08.9	3.700	0.700	-0.620	0.430
2020/01/31 19:55:09.0	3.700	0.700	-0.580	0.430
2020/01/31 19:55:09.1	3.700	0.690	-0.540	0.420
2020/01/31 19:55:09.2	3.690	0.680	-0.500	0.410
2020/01/31 19:55:09.3	3.680	0.660	-0.450	0.410
2020/01/31 19:55:09.4	3.670	0.650	-0.400	0.400
2020/01/31 19:55:09.5	3.660	0.620	-0.350	0.390
2020/01/31 19:55:09.6	3.650	0.590	-0.290	0.390
2020/01/31 19:55:09.7	3.640	0.560	-0.240	0.380
2020/01/31 19:55:09.8	3.620	0.530	-0.180	0.370
2020/01/31 19:55:09.9	3.600	0.490	-0.120	0.350
2020/01/31 19:55:10.0	3.590	0.450	-0.070	0.340
2020/01/31 19:55:10.1	3.570	0.410	-0.010	0.320
2020/01/31 19:55:10.2	3.560	0.360	0.040	0.310
2020/01/31 19:55:10.3	3.540	0.310	0.100	0.280
2020/01/31 19:55:10.4	3.520	0.260	0.140	0.260
2020/01/31 19:55:10.5	3.510	0.210	0.190	0.230
2020/01/31 19:55:10.6	3.500	0.150	0.230	0.200
2020/01/31 19:55:10.7	3.480	0.100	0.270	0.170
2020/01/31 19:55:10.8	3.470	0.050	0.300	0.130
2020/01/31 19:55:10.9	3.450	-0.010	0.330	0.090
2020/01/31 19:55:11.0	3.440	-0.060	0.360	0.050
2020/01/31 19:55:11.1	3.440	-0.120	0.380	0.000
2020/01/31 19:55:11.2	3.430	-0.170	0.390	-0.040
2020/01/31 19:55:11.3	3.420	-0.220	0.400	-0.090
2020/01/31 19:55:11.4	3.420	-0.270	0.410	-0.140
2020/01/31 19:55:11.5	3.420	-0.310	0.410	-0.190
2020/01/31 19:55:11.6	3.420	-0.360	0.400	-0.230
2020/01/31 19:55:11.7	3.420	-0.400	0.400	-0.280
2020/01/31 19:55:11.8	3.420	-0.430	0.380	-0.320
2020/01/31 19:55:11.9	3.410	-0.470	0.370	-0.380
2020/01/31 19:55:12.0	3.410	-0.490	0.350	-0.420
2020/01/31 19:55:12.1	3.410	-0.520	0.330	-0.450
2020/01/31 19:55:12.2	3.410	-0.540	0.300	-0.490
2020/01/31 19:55:12.3	3.410	-0.550	0.280	-0.520
2020/01/31 19:55:12.4	3.410	-0.570	0.250	-0.540
2020/01/31 19:55:12.5	3.420	-0.570	0.220	-0.570
2020/01/31 19:55:12.6	3.420	-0.580	0.200	-0.590
2020/01/31 19:55:12.7	3.420	-0.570	0.170	-0.600
2020/01/31 19:55:12.8	3.420	-0.570	0.140	-0.620
2020/01/31 19:55:12.9	3.420	-0.560	0.110	-0.620
2020/01/31 19:55:13.0	3.420	-0.550	0.080	-0.630
2020/01/31 19:55:13.1	3.420	-0.540	0.050	-0.630
2020/01/31 19:55:13.2	3.420	-0.520	0.030	-0.630
2020/01/31 19:55:13.3	3.430	-0.500	-0.000	-0.620
2020/01/31 19:55:13.4	3.430	-0.480	-0.030	-0.620
2020/01/31 19:55:13.5	3.440	-0.460	-0.060	-0.610
2020/01/31 19:55:13.6	3.440	-0.430	-0.080	-0.600
2020/01/31 19:55:13.7	3.450	-0.410	-0.110	-0.590
2020/01/31 19:55:13.8	3.450	-0.380	-0.130	-0.570
2020/01/31 19:55:13.9	3.450	-0.360	-0.160	-0.560
2020/01/31 19:55:14.0	3.460	-0.330	-0.180	-0.550
2020/01/31 19:55:14.1	3.470	-0.300	-0.210	-0.530
2020/01/31 19:55:14.2	3.480	-0.280	-0.230	-0.520
2020/01/31 19:55:14.3	3.480	-0.250	-0.250	-0.510
2020/01/31 19:55:14.4	3.490	-0.230	-0.280	-0.490
2020/01/31 19:55:14.5	3.500	-0.210	-0.300	-0.480
2020/01/31 19:55:14.6	3.510	-0.190	-0.320	-0.460
2020/01/31 19:55:14.7	3.520	-0.170	-0.340	-0.450
2020/01/31 19:55:14.8	3.530	-0.160	-0.350	-0.430
2020/01/31 19:55:14.9	3.530	-0.140	-0.370	-0.410
2020/01/31 19:55:15.0	3.540	-0.130	-0.380	-0.400
2020/01/31 19:55:15.1	3.550	-0.120	-0.400	-0.380
2020/01/31 19:55:15.2	3.550	-0.110	-0.400	-0.360
2020/01/31 19:55:15.3	3.560	-0.110	-0.410	-0.340
2020/01/31 19:55:15.4	3.560	-0.110	-0.420	-0.320
2020/01/31 19:55:15.5	3.570	-0.110	-0.420	-0.300
2020/01/31 19:55:15.6	3.570	-0.110	-0.420	-0.280
2020/01/31 19:55:15.7	3.570	-0.110	-0.420	-0.260
2020/01/31 19:55:15.8	3.570	-0.120	-0.410	-0.250
2020/01/31 19:55:15.9	3.570	-0.130	-0.410	-0.230
2020/01/31 19:55:16.0	3.560	-0.140	-0.400	-0.210
2020/01/31 19:55:16.1	3.560	-0.150	-0.390	-0.190
2020/01/31 19:55:16.2	3.560	-0.160	-0.380	-0.180
2020/01/31 19:55:16.3	3.560	-0.170	-0.370	-0.170
2020/01/31 19:55:16.4	3.550	-0.190	-0.360	-0.160
2020/01/31 19:55:16.5	3.550	-0.200	-0.350	-0.150
2020/01/31 19:55:16.6	3.550	-0.210	-0.340	-0.140
2020/01/31 19:55:16.7	3.540	-0.220	-0.330	-0.140
2020/01/31 19:55:16.8	3.540	-0.240	-0.320	-0.130
2020/01/31 19:55:16.9	3.530	-0.250	-0.310	-0.130
2020/01/31 19:55:17.0	3.530	-0.260	-0.300	-0.140
2020/01/31 19:55:17.1	3.520	-0.260	-0.300	-0.140
2020/01/31 19:55:17.2	3.520	-0.270	-0.290	-0.150
2020/01/31 19:55:17.3	3.520	-0.270	-0.290	-0.160
2020/01/31 19:55:17.4	3.520	-0.270	-0.290	-0.170
2020/01/31 19:55:17.5	3.520	-0.270	-0.300	-0.180
2020/01/31 19:55:17.6	3.520	-0.260	-0.300	-0.190
2020/01/31 19:55:17.7	3.520	-0.250	-0.310	-0.210
2020/01/31 19:55:17.8	3.520	-0.240	-0.310	-0.220
2020/01/31 19:55:17.9	3.510	-0.220	-0.320	-0.240
2020/01/31 19:55:18.0	3.520	-0.200	-0.340	-0.260
2020/01/31 19:55:18.1	3.520	-0.180	-0.350	-0.280
2020/01/31 19:55:18.2	3.530	-0.160	-0.360	-0.290
2020/01/31 19:55:18.3	3.530	-0.130	-0.380	-0.310
2020/01/31 19:55:18.4	3.540	-0.100	-0.400	-0.330
2020/01/31 19:55:18.5	3.550	-0.070	-0.420	-0.340
2020/01/31 19:55:18.6	3.550	-0.040	-0.440	-0.360
2020/01/31 19:55:18.7	3.560	-0.000	-0.460	-0.380
2020/01/31 19:55:18.8	3.570	0.030	-0.480	-0.390
2020/01/31 19:55:18.9	3.580	0.070	-0.490	-0.400
2020/01/31 19:55:19.0	3.590	0.110	-0.520	-0.410
2020/01/31 19:55:19.1	3.590	0.150	-0.540	-0.420
2020/01/31 19:55:19.2	3.600	0.190	-0.550	-0.430
2020/01/31 19:55:19.3	3.600	0.220	-0.570	-0.440
2020/01/31 19:55:19.4	3.610	0.260	-0.590	-0.440
2020/01/31 19:55:19.5	3.610	0.300	-0.610	-0.440
2020/01/31 19:55:19.6	3.610	0.330	-0.620	-0.440
2020/01/31 19:55:19.7	3.620	0.360	-0.640	-0.440
2020/01/31 19:55:19.8	3.620	0.390	-0.650	-0.440
2020/01/31 19:55:19.9	3.620	0.420	-0.660	-0.430
2020/01/31 19:55:20.0	3.620	0.450	-0.670	-0.430
2020/01/31 19:55:20.1	3.630	0.470	-0.670	-0.420
2020/01/31 19:55:20.2	3.630	0.490	-0.680	-0.410
2020/01/31 19:55:20.3	3.630	0.510	-0.680	-0.390
2020/01/31 19:55:20.4	3.640	0.530	-0.680	-0.380
2020/01/31 19:55:20.5	3.640	0.540	-0.670	-0.360
2020/01/31 19:55:20.6	3.650	0.560	-0.670	-0.350
2020/01/31 19:55:20.7	3.650	0.560	-0.660	-0.330
2020/01/31 19:55:20.8	3.660	0.570	-0.650	-0.320
2020/01/31 19:55:20.9	3.670	0.570	-0.640	-0.300
2020/01/31 19:55:21.0	3.680	0.570	-0.630	-0.280
2020/01/31 19:55:21.1	3.680	0.570	-0.610	-0.260
2020/01/31 19:55:21.2	3.690	0.570	-0.590	-0.240
2020/01/31 19:55:21.3	3.700	0.560	-0.570	-0.220
2020/01/31 19:55:21.4	3.710	0.550	-0.550	-0.210
2020/01/31 19:55:21.5	3.720	0.540	-0.530	-0.190
2020/01/31 19:55:21.6	3.730	0.530	-0.500	-0.170
2020/01/31 19:55:21.7	3.740	0.520	-0.470	-0.150
2020/01/31 19:55:21.8	3.740	0.510	-0.440	-0.120
2020/01/31 19:55:21.9	3.760	0.490	-0.410	-0.100
2020/01/31 19:55:22.0	3.760	0.470	-0.380	-0.080
2020/01/31 19:55:22.1	3.770	0.460	-0.340	-0.050
2020/01/31 19:55:22.2	3.780	0.440	-0.300	-0.030
2020/01/31 19:55:22.3	3.780	0.420	-0.260	-0.000
2020/01/31 19:55:22.4	3.790	0.400	-0.220	0.020
2020/01/31 19:55:22.5	3.790	0.380	-0.180	0.050
2020/01/31 19:55:22.6	3.790	0.360	-0.130	0.080
2020/01/31 19:55:22.7	3.800	0.340	-0.090	0.100
2020/01/31 19:55:22.8	3.800	0.310	-0.050	0.130
2020/01/31 19:55:22.9	3.810	0.290	-0.010	0.160
2020/01/31 19:55:23.0	3.810	0.270	0.030	0.180
2020/01/31 19:55:23.1	3.810	0.250	0.070	0.200
2020/01/31 19:55:23.2	3.800	0.220	0.110	0.220
2020/01/31 19:55:23.3	3.800	0.200	0.150	0.240
2020/01/31 19:55:23.4	3.790	0.180	0.180	0.260
2020/01/31 19:55:23.5	3.790	0.150	0.210	0.280
2020/01/31 19:55:23.6	3.780	0.130	0.240	0.290
2020/01/31 19:55:23.7	3.770	0.110	0.260	0.310
2020/01/31 19:55:23.8	3.760	0.090	0.290	0.320
2020/01/31 19:55:23.9	3.760	0.060	0.310	0.320
2020/01/31 19:55:24.0	3.740	0.040	0.320	0.330
2020/01/31 19:55:24.1	3.730	0.020	0.330	0.330
2020/01/31 19:55:24.2	3.720	0.000	0.340	0.330
2020/01/31 19:55:24.3	3.710	-0.020	0.350	0.330
2020/01/31 19:55:24.4	3.690	-0.040	0.350	0.320
2020/01/31 19:55:24.5	3.680	-0.060	0.340	0.320
2020/01/31 19:55:24.6	3.670	-0.080	0.340	0.310
2020/01/31 19:55:24.7	3.660	-0.100	0.330	0.290
2020/01/31 19:55:24.8	3.650	-0.110	0.320	0.270
2020/01/31 19:55:24.9	3.640	-0.130	0.300	0.250
2020/01/31 19:55:25.0	3.630	-0.150	0.280	0.230
2020/01/31 19:55:25.1	3.620	-0.160	0.260	0.200
2020/01/31 19:55:25.2	3.610	-0.180	0.240	0.180
2020/01/31 19:55:25.3	3.600	-0.200	0.220	0.150
2020/01/31 19:55:25.4	3.600	-0.210	0.200	0.120
2020/01/31 19:55:25.5	3.590	-0.220	0.170	0.090
2020/01/31 19:55:25.6	3.580	-0.240	0.150	0.060
2020/01/31 19:55:25.7	3.580	-0.250	0.130	0.030
2020/01/31 19:55:25.8	3.570	-0.270	0.110	0.000
2020/01/31 19:55:25.9	3.560	-0.280	0.090	-0.030
2020/01/31 19:55:26.0	3.550	-0.290	0.070	-0.050
2020/01/31 19:55:26.1	3.540	-0.310	0.050	-0.080
2020/01/31 19:55:26.2	3.530	-0.320	0.040	-0.110
2020/01/31 19:55:26.3	3.530	-0.340	0.020	-0.140
2020/01/31 19:55:26.4	3.520	-0.350	0.010	-0.170
2020/01/31 19:55:26.5	3.510	-0.370	-0.000	-0.190
2020/01/31 19:55:26.6	3.500	-0.380	-0.010	-0.220
2020/01/31 19:55:26.7	3.490	-0.400	-0.020	-0.240
2020/01/31 19:55:26.8	3.480	-0.410	-0.030	-0.270
2020/01/31 19:55:26.9	3.450	-0.430	-0.030	-0.300
2020/01/31 19:55:27.0	3.440	-0.450	-0.040	-0.320
2020/01/31 19:55:27.1	3.440	-0.460	-0.050	-0.350
2020/01/31 19:55:27.2	3.430	-0.480	-0.050	-0.370
2020/01/31 19:55:27.3	3.420	-0.490	-0.060	-0.400
2020/01/31 19:55:27.4	3.420	-0.510	-0.070	-0.420
2020/01/31 19:55:27.5	3.410	-0.520	-0.080	-0.440
2020/01/31 19:55:27.6	3.410	-0.530	-0.090	-0.470
2020/01/31 19:55:27.7	3.400	-0.550	-0.110	-0.490
2020/01/31 19:55:27.8	3.400	-0.560	-0.120	-0.510
2020/01/31 19:55:27.9	3.390	-0.560	-0.140	-0.530
2020/01/31 19:55:28.0	3.390	-0.570	-0.160	-0.540
2020/01/31 19:55:28.1	3.390	-0.570	-0.190	-0.560
2020/01/31 19:55:28.2	3.390	-0.570	-0.220	-0.570
2020/01/31 19:55:28.3	3.400	-0.570	-0.250	-0.590
2020/01/31 19:55:28.4	3.400	-0.570	-0.280	-0.600
2020/01/31 19:55:28.5	3.410	-0.560	-0.320	-0.610
2020/01/31 19:55:28.6	3.420	-0.550	-0.360	-0.620
2020/01/31 19:55:28.7	3.430	-0.540	-0.400	-0.630
2020/01/31 19:55:28.8	3.440	-0.520	-0.450	-0.630
2020/01/31 19:55:28.9	3.460	-0.500	-0.500	-0.640
2020/01/31 19:55:29.0	3.470	-0.480	-0.550	-0.640
2020/01/31 19:55:29.1	3.490	-0.450	-0.600	-0.640
2020/01/31 19:55:29.2	3.500	-0.420	-0.650	-0.650
2020/01/31 19:55:29.3	3.520	-0.390	-0.700	-0.640
2020/01/31 19:55:29.4	3.540	-0.360	-0.760	-0.640
2020/01/31 19:55:29.5	3.560	-0.320	-0.810	-0.640
2020/01/31 19:55:29.6	3.580	-0.280	-0.860	-0.630
2020/01/31 19:55:29.7	3.600	-0.240	-0.910	-0.620
2020/01/31 19:55:29.8	3.610	-0.200	-0.950	-0.610
2020/01/31 19:55:29.9	3.640	-0.160	-1.000	-0.600
2020/01/31 19:55:30.0	3.650	-0.120	-1.040	-0.590
2020/01/31 19:55:30.1	3.670	-0.080	-1.070	-0.570
2020/01/31 19:55:30.2	3.680	-0.030	-1.100	-0.560
2020/01/31 19:55:30.3	3.700	0.010	-1.130	-0.540
2020/01/31 19:55:30.4	3.710	0.050	-1.150	-0.520
2020/01/31 19:55:30.5	3.720	0.090	-1.160	-0.500
2020/01/31 19:55:30.6	3.730	0.130	-1.170	-0.480
2020/01/31 19:55:30.7	3.740	0.170	-1.180	-0.460
2020/01/31 19:55:30.8	3.750	0.200	-1.180	-0.440
2020/01/31 19:55:30.9	3.760	0.240	-1.170	-0.420
2020/01/31 19:55:31.0	3.760	0.270	-1.160	-0.400
2020/01/31 19:55:31.1	3.770	0.300	-1.140	-0.380
2020/01/31 19:55:31.2	3.780	0.330	-1.120	-0.360
2020/01/31 19:55:31.3	3.780	0.350	-1.090	-0.340
2020/01/31 19:55:31.4	3.790	0.370	-1.060	-0.320
2020/01/31 19:55:31.5	3.800	0.390	-1.030	-0.300
2020/01/31 19:55:31.6	3.810	0.410	-0.990	-0.290
2020/01/31 19:55:31.7	3.820	0.430	-0.950	-0.270
2020/01/31 19:55:31.8	3.830	0.440	-0.910	-0.260
2020/01/31 19:55:31.9	3.830	0.450	-0.870	-0.240
2020/01/31 19:55:32.0	3.840	0.460	-0.820	-0.230
2020/01/31 19:55:32.1	3.850	0.460	-0.770	-0.220
2020/01/31 19:55:32.2	3.870	0.470	-0.730	-0.210
2020/01/31 19:55:32.3	3.880	0.470	-0.680	-0.200
2020/01/31 19:55:32.4	3.890	0.470	-0.630	-0.190
2020/01/31 19:55:32.5	3.900	0.460	-0.580	-0.190
2020/01/31 19:55:32.6	3.920	0.460	-0.530	-0.180
2020/01/31 19:55:32.7	3.930	0.450	-0.470	-0.180
2020/01/31 19:55:32.8	3.940	0.450	-0.420	-0.170
2020/01/31 19:55:32.9	3.960	0.440	-0.370	-0.180
2020/01/31 19:55:33.0	3.970	0.430	-0.320	-0.180
2020/01/31 19:55:33.1	3.980	0.420	-0.270	-0.180
2020/01/31 19:55:33.2	3.990	0.410	-0.210	-0.180
2020/01/31 19:55:33.3	4.000	0.390	-0.160	-0.180
2020/01/31 19:55:33.4	4.010	0.380	-0.110	-0.180
2020/01/31 19:55:33.5	4.010	0.370	-0.050	-0.190
2020/01/31 19:55:33.6	4.020	0.350	0.000	-0.190
2020/01/31 19:55:33.7	4.020	0.340	0.060	-0.190
2020/01/31 19:55:33.8	4.020	0.320	0.120	-0.180
2020/01/31 19:55:33.9	4.020	0.310	0.170	-0.180
2020/01/31 19:55:34.0	4.020	0.290	0.230	-0.180
2020/01/31 19:55:34.1	4.010	0.280	0.290	-0.170
2020/01/31 19:55:34.2	4.000	0.260	0.350	-0.160
2020/01/31 19:55:34.3	3.990	0.250	0.420	-0.140
2020/01/31 19:55:34.4	3.970	0.230	0.480	-0.130
2020/01/31 19:55:34.5	3.950	0.220	0.540	-0.110
2020/01/31 19:55:34.6	3.930	0.200	0.600	-0.090
2020/01/31 19:55:34.7	3.910	0.190	0.660	-0.060
2020/01/31 19:55:34.8	3.880	0.170	0.710	-0.040
2020/01/31 19:55:34.9	3.860	0.160	0.760	-0.010
2020/01/31 19:55:35.0	3.830	0.140	0.810	0.020
2020/01/31 19:55:35.1	3.800	0.130	0.860	0.050
2020/01/31 19:55:35.2	3.770	0.120	0.900	0.080
2020/01/31 19:55:35.3	3.740	0.100	0.930	0.110
2020/01/31 19:55:35.4	3.710	0.090	0.960	0.150
2020/01/31 19:55:35.5	3.670	0.080	0.990	0.180
2020/01/31 19:55:35.6	3.640	0.070	1.000	0.210
2020/01/31 19:55:35.7	3.610	0.060	1.010	0.240
2020/01/31 19:55:35.8	3.580	0.050	1.010	0.260
2020/01/31 19:55:35.9	3.560	0.040	1.000	0.290
2020/01/31 19:55:36.0	3.530	0.030	0.980	0.310
2020/01/31 19:55:36.1	3.500	0.020	0.950	0.320
2020/01/31 19:55:36.2	3.480	0.010	0.920	0.340
2020/01/31 19:55:36.3	3.460	0.000	0.870	0.350
2020/01/31 19:55:36.4	3.440	-0.010	0.820	0.350
2020/01/31 19:55:36.5	3.420	-0.010	0.760	0.350
2020/01/31 19:55:36.6	3.410	-0.020	0.690	0.340
2020/01/31 19:55:36.7	3.390	-0.020	0.610	0.330
2020/01/31 19:55:36.8	3.380	-0.030	0.520	0.320
2020/01/31 19:55:36.9	3.370	-0.040	0.430	0.300
2020/01/31 19:55:37.0	3.360	-0.040	0.340	0.280
2020/01/31 19:55:37.1	3.360	-0.050	0.230	0.250
2020/01/31 19:55:37.2	3.350	-0.050	0.130	0.220
2020/01/31 19:55:37.3	3.350	-0.060	0.020	0.180
2020/01/31 19:55:37.4	3.360	-0.060	-0.100	0.150
2020/01/31 19:55:37.5	3.360	-0.070	-0.210	0.100
2020/01/31 19:55:37.6	3.360	-0.070	-0.330	0.060
2020/01/31 19:55:37.7	3.370	-0.080	-0.440	0.020
2020/01/31 19:55:37.8	3.380	-0.080	-0.560	-0.030
2020/01/31 19:55:37.9	3.400	-0.090	-0.670	-0.080
2020/01/31 19:55:38.0	3.410	-0.090	-0.770	-0.130
2020/01/31 19:55:38.1	3.420	-0.100	-0.880	-0.180
2020/01/31 19:55:38.2	3.440	-0.100	-0.980	-0.230
2020/01/31 19:55:38.3	3.460	-0.110	-1.070	-0.280
2020/01/31 19:55:38.4	3.470	-0.110	-1.160	-0.330
2020/01/31 19:55:38.5	3.490	-0.120	-1.230	-0.380
2020/01/31 19:55:38.6	3.510	-0.120	-1.300	-0.430
2020/01/31 19:55:38.7	3.530	-0.120	-1.370	-0.480
2020/01/31 19:55:38.8	3.550	-0.130	-1.420	-0.520
2020/01/31 19:55:38.9	3.580	-0.130	-1.460	-0.570
2020/01/31 19:55:39.0	3.600	-0.140	-1.490	-0.610
2020/01/31 19:55:39.1	3.620	-0.140	-1.510	-0.650
2020/01/31 19:55:39.2	3.640	-0.140	-1.530	-0.680
2020/01/31 19:55:39.3	3.660	-0.150	-1.530	-0.710
2020/01/31 19:55:39.4	3.680	-0.150	-1.520	-0.730
2020/01/31 19:55:39.5	3.710	-0.150	-1.500	-0.760
2020/01/31 19:55:39.6	3.730	-0.150	-1.470	-0.770
2020/01/31 19:55:39.7	3.750	-0.150	-1.430	-0.780
2020/01/31 19:55:39.8	3.770	-0.140	-1.390	-0.790
2020/01/31 19:55:39.9	3.790	-0.140	-1.330	-0.790
2020/01/31 19:55:40.0	3.810	-0.130	-1.270	-0.790
2020/01/31 19:55:40.1	3.840	-0.130	-1.200	-0.780
2020/01/31 19:55:40.2	3.860	-0.120	-1.130	-0.770
2020/01/31 19:55:40.3	3.890	-0.110	-1.060	-0.750
2020/01/31 19:55:40.4	3.910	-0.100	-0.980	-0.730
2020/01/31 19:55:40.5	3.940	-0.090	-0.900	-0.710
2020/01/31 19:55:40.6	3.960	-0.080	-0.810	-0.680
2020/01/31 19:55:40.7	3.990	-0.070	-0.730	-0.650
2020/01/31 19:55:40.8	4.020	-0.060	-0.650	-0.620
2020/01/31 19:55:40.9	4.050	-0.050	-0.570	-0.590
2020/01/31 19:55:41.0	4.080	-0.040	-0.490	-0.560
2020/01/31 19:55:41.1	4.100	-0.020	-0.420	-0.520
2020/01/31 19:55:41.2	4.130	-0.010	-0.340	-0.490
2020/01/31 19:55:41.3	4.150	-0.000	-0.280	-0.450
2020/01/31 19:55:41.4	4.180	0.010	-0.220	-0.420
2020/01/31 19:55:41.5	4.210	0.010	-0.160	-0.390
2020/01/31 19:55:41.6	4.230	0.020	-0.110	-0.350
2020/01/31 19:55:41.7	4.260	0.030	-0.060	-0.320
2020/01/31 19:55:41.8	4.280	0.030	-0.030	-0.290
2020/01/31 19:55:41.9	4.310	0.030	0.010	-0.260
2020/01/31 19:55:42.0	4.340	0.030	0.040	-0.240
2020/01/31 19:55:42.1	4.360	0.030	0.060	-0.210
2020/01/31 19:55:42.2	4.390	0.020	0.070	-0.190
2020/01/31 19:55:42.3	4.410	0.020	0.090	-0.170
2020/01/31 19:55:42.4	4.430	0.010	0.090	-0.160
2020/01/31 19:55:42.5	4.450	-0.000	0.100	-0.150
2020/01/31 19:55:42.6	4.470	-0.020	0.100	-0.130
2020/01/31 19:55:42.7	4.490	-0.030	0.090	-0.130
2020/01/31 19:55:42.8	4.510	-0.050	0.090	-0.120
2020/01/31 19:55:42.9	4.530	-0.070	0.080	-0.110
2020/01/31 19:55:43.0	4.540	-0.090	0.070	-0.110
2020/01/31 19:55:43.1	4.550	-0.110	0.060	-0.100
2020/01/31 19:55:43.2	4.550	-0.140	0.060	-0.100
2020/01/31 19:55:43.3	4.550	-0.160	0.050	-0.100
2020/01/31 19:55:43.4	4.550	-0.190	0.040	-0.090
2020/01/31 19:55:43.5	4.540	-0.220	0.040	-0.090
2020/01/31 19:55:43.6	4.540	-0.250	0.040	-0.090
2020/01/31 19:55:43.7	4.520	-0.280	0.040	-0.090
2020/01/31 19:55:43.8	4.510	-0.310	0.040	-0.090
2020/01/31 19:55:43.9	4.510	-0.340	0.050	-0.090
2020/01/31 19:55:44.0	4.490	-0.370	0.060	-0.090
2020/01/31 19:55:44.1	4.470	-0.400	0.060	-0.100
2020/01/31 19:55:44.2	4.450	-0.430	0.070	-0.100
2020/01/31 19:55:44.3	4.420	-0.450	0.080	-0.110
2020/01/31 19:55:44.4	4.400	-0.470	0.100	-0.110
2020/01/31 19:55:44.5	4.370	-0.500	0.110	-0.120
2020/01/31 19:55:44.6	4.350	-0.520	0.120	-0.130
2020/01/31 19:55:44.7	4.320	-0.530	0.130	-0.140
2020/01/31 19:55:44.8	4.300	-0.540	0.140	-0.150
2020/01/31 19:55:44.9	4.270	-0.550	0.150	-0.170
2020/01/31 19:55:45.0	4.250	-0.560	0.150	-0.180
2020/01/31 19:55:45.1	4.220	-0.560	0.160	-0.200
2020/01/31 19:55:45.2	4.200	-0.550	0.160	-0.210
2020/01/31 19:55:45.3	4.180	-0.540	0.160	-0.220
2020/01/31 19:55:45.4	4.160	-0.530	0.160	-0.230
2020/01/31 19:55:45.5	4.140	-0.510	0.150	-0.250
2020/01/31 19:55:45.6	4.120	-0.490	0.140	-0.260
2020/01/31 19:55:45.7	4.100	-0.460	0.120	-0.270
2020/01/31 19:55:45.8	4.090	-0.430	0.100	-0.270
2020/01/31 19:55:45.9	4.070	-0.390	0.080	-0.280
2020/01/31 19:55:46.0	4.060	-0.340	0.050	-0.280
2020/01/31 19:55:46.1	4.040	-0.300	0.020	-0.290
2020/01/31 19:55:46.2	4.030	-0.250	-0.010	-0.290
2020/01/31 19:55:46.3	4.020	-0.190	-0.040	-0.280
2020/01/31 19:55:46.4	4.010	-0.130	-0.080	-0.280
2020/01/31 19:55:46.5	4.000	-0.070	-0.120	-0.270
2020/01/31 19:55:46.6	3.990	-0.010	-0.160	-0.260
2020/01/31 19:55:46.7	3.990	0.060	-0.200	-0.260
2020/01/31 19:55:46.8	3.980	0.130	-0.240	-0.250
2020/01/31 19:55:46.9	3.960	0.200	-0.280	-0.240
2020/01/31 19:55:47.0	3.960	0.260	-0.320	-0.230
2020/01/31 19:55:47.1	3.960	0.330	-0.360	-0.220
2020/01/31 19:55:47.2	3.960	0.400	-0.400	-0.200
2020/01/31 19:55:47.3	3.960	0.470	-0.440	-0.190
2020/01/31 19:55:47.4	3.960	0.530	-0.480	-0.180
2020/01/31 19:55:47.5	3.960	0.590	-0.510	-0.170
2020/01/31 19:55:47.6	3.970	0.650	-0.540	-0.150
2020/01/31 19:55:47.7	3.970	0.700	-0.570	-0.140
2020/01/31 19:55:47.8	3.980	0.760	-0.590	-0.130
2020/01/31 19:55:47.9	3.980	0.800	-0.610	-0.110
2020/01/31 19:55:48.0	3.990	0.840	-0.630	-0.090
2020/01/31 19:55:48.1	3.990	0.880	-0.640	-0.080
2020/01/31 19:55:48.2	4.000	0.910	-0.650	-0.060
2020/01/31 19:55:48.3	4.010	0.940	-0.650	-0.050
2020/01/31 19:55:48.4	4.020	0.950	-0.650	-0.030
2020/01/31 19:55:48.5	4.030	0.970	-0.650	-0.020
2020/01/31 19:55:48.6	4.050	0.970	-0.640	0.000
2020/01/31 19:55:48.7	4.060	0.970	-0.620	0.020
2020/01/31 19:55:48.8	4.070	0.960	-0.610	0.030
2020/01/31 19:55:48.9	4.090	0.950	-0.580	0.050
2020/01/31 19:55:49.0	4.110	0.930	-0.560	0.060
2020/01/31 19:55:49.1	4.120	0.900	-0.530	0.070
2020/01/31 19:55:49.2	4.140	0.870	-0.500	0.080
2020/01/31 19:55:49.3	4.160	0.830	-0.470	0.100
2020/01/31 19:55:49.4	4.170	0.780	-0.430	0.110
2020/01/31 19:55:49.5	4.190	0.730	-0.390	0.120
2020/01/31 19:55:49.6	4.200	0.680	-0.360	0.120
2020/01/31 19:55:49.7	4.220	0.610	-0.320	0.130
2020/01/31 19:55:49.8	4.230	0.550	-0.280	0.130
2020/01/31 19:55:49.9	4.240	0.480	-0.240	0.140
2020/01/31 19:55:50.0	4.250	0.400	-0.200	0.140
2020/01/31 19:55:50.1	4.260	0.330	-0.160	0.130
2020/01/31 19:55:50.2	4.270	0.250	-0.120	0.130
2020/01/31 19:55:50.3	4.270	0.160	-0.080	0.120
2020/01/31 19:55:50.4	4.270	0.080	-0.040	0.110
2020/01/31 19:55:50.5	4.270	-0.000	-0.010	0.100
2020/01/31 19:55:50.6	4.270	-0.090	0.030	0.080
2020/01/31 19:55:50.7	4.260	-0.170	0.060	0.070
2020/01/31 19:55:50.8	4.260	-0.250	0.090	0.040
2020/01/31 19:55:50.9	4.240	-0.330	0.110	0.020
2020/01/31 19:55:51.0	4.240	-0.410	0.130	-0.010
2020/01/31 19:55:51.1	4.220	-0.490	0.150	-0.040
2020/01/31 19:55:51.2	4.210	-0.560	0.170	-0.060
2020/01/31 19:55:51.3	4.200	-0.630	0.180	-0.090
2020/01/31 19:55:51.4	4.180	-0.690	0.190	-0.130
2020/01/31 19:55:51.5	4.170	-0.750	0.190	-0.160
2020/01/31 19:55:51.6	4.150	-0.800	0.190	-0.190
2020/01/31 19:55:51.7	4.130	-0.850	0.180	-0.220
2020/01/31 19:55:51.8	4.120	-0.890	0.170	-0.250
2020/01/31 19:55:51.9	4.090	-0.920	0.160	-0.290
2020/01/31 19:55:52.0	4.080	-0.940	0.140	-0.320
2020/01/31 19:55:52.1	4.060	-0.960	0.110	-0.350
2020/01/31 19:55:52.2	4.050	-0.970	0.080	-0.370
2020/01/31 19:55:52.3	4.040	-0.980	0.050	-0.400
2020/01/31 19:55:52.4	4.030	-0.970	0.010	-0.430
2020/01/31 19:55:52.5	4.020	-0.960	-0.030	-0.460
2020/01/31 19:55:52.6	4.010	-0.940	-0.080	-0.480
2020/01/31 19:55:52.7	4.010	-0.920	-0.130	-0.500
2020/01/31 19:55:52.8	4.000	-0.880	-0.190	-0.530
2020/01/31 19:55:52.9	4.000	-0.850	-0.250	-0.550
2020/01/31 19:55:53.0	4.000	-0.800	-0.310	-0.570
2020/01/31 19:55:53.1	4.000	-0.750	-0.370	-0.590
2020/01/31 19:55:53.2	4.000	-0.690	-0.430	-0.600
2020/01/31 19:55:53.3	4.010	-0.630	-0.500	-0.620
2020/01/31 19:55:53.4	4.010	-0.570	-0.560	-0.630
2020/01/31 19:55:53.5	4.020	-0.500	-0.620	-0.640
2020/01/31 19:55:53.6	4.020	-0.420	-0.690	-0.650
2020/01/31 19:55:53.7	4.030	-0.350	-0.750	-0.660
2020/01/31 19:55:53.8	4.040	-0.270	-0.800	-0.670
2020/01/31 19:55:53.9	4.050	-0.190	-0.860	-0.670
2020/01/31 19:55:54.0	4.060	-0.110	-0.910	-0.670
2020/01/31 19:55:54.1	4.080	-0.030	-0.950	-0.670
2020/01/31 19:55:54.2	4.090	0.050	-0.990	-0.660
2020/01/31 19:55:54.3	4.100	0.130	-1.030	-0.650
2020/01/31 19:55:54.4	4.120	0.210	-1.060	-0.640
2020/01/31 19:55:54.5	4.130	0.290	-1.080	-0.620
2020/01/31 19:55:54.6	4.150	0.360	-1.100	-0.600
2020/01/31 19:55:54.7	4.170	0.430	-1.110	-0.580
2020/01/31 19:55:54.8	4.190	0.500	-1.110	-0.550
2020/01/31 19:55:54.9	4.210	0.560	-1.110	-0.530
2020/01/31 19:55:55.0	4.230	0.620	-1.100	-0.500
2020/01/31 19:55:55.1	4.250	0.680	-1.080	-0.460
2020/01/31 19:55:55.2	4.270	0.730	-1.060	-0.430
2020/01/31 19:55:55.3	4.290	0.770	-1.030	-0.390
2020/01/31 19:55:55.4	4.310	0.810	-0.990	-0.350
2020/01/31 19:55:55.5	4.330	0.840	-0.940	-0.310
2020/01/31 19:55:55.6	4.350	0.870	-0.890	-0.260
2020/01/31 19:55:55.7	4.370	0.880	-0.830	-0.220
2020/01/31 19:55:55.8	4.380	0.900	-0.770	-0.180
2020/01/31 19:55:55.9	4.400	0.900	-0.700	-0.130
2020/01/31 19:55:56.0	4.410	0.900	-0.620	-0.090
2020/01/31 19:55:56.1	4.420	0.890	-0.550	-0.050
2020/01/31 19:55:56.2	4.430	0.870	-0.470	-0.010
2020/01/31 19:55:56.3	4.440	0.850	-0.390	0.030
2020/01/31 19:55:56.4	4.440	0.820	-0.300	0.060
2020/01/31 19:55:56.5	4.450	0.790	-0.210	0.100
2020/01/31 19:55:56.6	4.450	0.750	-0.130	0.130
2020/01/31 19:55:56.7	4.450	0.700	-0.040	0.170
2020/01/31 19:55:56.8	4.450	0.650	0.050	0.190
2020/01/31 19:55:56.9	4.470	0.590	0.130	0.220
2020/01/31 19:55:57.0	4.470	0.530	0.210	0.250
2020/01/31 19:55:57.1	4.470	0.470	0.290	0.270
2020/01/31 19:55:57.2	4.470	0.400	0.370	0.290
2020/01/31 19:55:57.3	4.470	0.330	0.440	0.300
2020/01/31 19:55:57.4	4.470	0.250	0.510	0.320
2020/01/31 19:55:57.5	4.470	0.180	0.570	0.330
2020/01/31 19:55:57.6	4.470	0.100	0.630	0.330
2020/01/31 19:55:57.7	4.470	0.030	0.680	0.340
2020/01/31 19:55:57.8	4.470	-0.050	0.730	0.340
2020/01/31 19:55:57.9	4.470	-0.130	0.770	0.330
2020/01/31 19:55:58.0	4.460	-0.210	0.810	0.330
2020/01/31 19:55:58.1	4.460	-0.280	0.840	0.320
2020/01/31 19:55:58.2	4.460	-0.360	0.860	0.320
2020/01/31 19:55:58.3	4.450	-0.430	0.880	0.310
2020/01/31 19:55:58.4	4.440	-0.500	0.890	0.300
2020/01/31 19:55:58.5	4.430	-0.570	0.900	0.300
2020/01/31 19:55:58.6	4.410	-0.630	0.900	0.290
2020/01/31 19:55:58.7	4.390	-0.690	0.900	0.280
2020/01/31 19:55:58.8	4.370	-0.750	0.890	0.280
2020/01/31 19:55:58.9	4.350	-0.800	0.880	0.270
2020/01/31 19:55:59.0	4.320	-0.850	0.860	0.260
2020/01/31 19:55:59.1	4.290	-0.900	0.840	0.250
2020/01/31 19:55:59.2	4.260	-0.940	0.810	0.250
2020/01/31 19:55:59.3	4.230	-0.970	0.780	0.240
2020/01/31 19:55:59.4	4.190	-1.000	0.740	0.230
2020/01/31 19:55:59.5	4.160	-1.020	0.700	0.220
2020/01/31 19:55:59.6	4.120	-1.030	0.660	0.210
2020/01/31 19:55:59.7	4.080	-1.040	0.610	0.200
2020/01/31 19:55:59.8	4.040	-1.050	0.560	0.190
2020/01/31 19:55:59.9	4.000	-1.040	0.500	0.170
2020/01/31 19:56:00.0	3.960	-1.030	0.440	0.170
2020/01/31 19:56:00.1	3.920	-1.020	0.370	0.160
2020/01/31 19:56:00.2	3.890	-0.990	0.310	0.150
2020/01/31 19:56:00.3	3.850	-0.960	0.230	0.140
2020/01/31 19:56:00.4	3.820	-0.930	0.160	0.120
2020/01/31 19:56:00.5	3.790	-0.880	0.080	0.110
2020/01/31 19:56:00.6	3.760	-0.830	-0.010	0.100
2020/01/31 19:56:00.7	3.740	-0.780	-0.090	0.090
2020/01/31 19:56:00.8	3.710	-0.720	-0.180	0.070
2020/01/31 19:56:00.9	3.690	-0.650	-0.270	0.050
2020/01/31 19:56:01.0	3.670	-0.580	-0.360	0.040
2020/01/31 19:56:01.1	3.660	-0.500	-0.460	0.020
2020/01/31 19:56:01.2	3.650	-0.420	-0.550	0.000
2020/01/31 19:56:01.3	3.640	-0.340	-0.650	-0.020
2020/01/31 19:56:01.4	3.640	-0.250	-0.740	-0.040
2020/01/31 19:56:01.5	3.640	-0.170	-0.830	-0.060
2020/01/31 19:56:01.6	3.640	-0.080	-0.920	-0.080
2020/01/31 19:56:01.7	3.640	0.010	-1.010	-0.090
2020/01/31 19:56:01.8	3.640	0.100	-1.100	-0.110
2020/01/31 19:56:01.9	3.640	0.190	-1.180	-0.140
2020/01/31 19:56:02.0	3.650	0.280	-1.260	-0.160
2020/01/31 19:56:02.1	3.660	0.370	-1.330	-0.170
2020/01/31 19:56:02.2	3.670	0.460	-1.400	-0.190
2020/01/31 19:56:02.3	3.680	0.540	-1.460	-0.210
2020/01/31 19:56:02.4	3.690	0.610	-1.510	-0.230
2020/01/31 19:56:02.5	3.700	0.690	-1.560	-0.240
2020/01/31 19:56:02.6	3.720	0.760	-1.600	-0.260
2020/01/31 19:56:02.7	3.740	0.820	-1.630	-0.270
2020/01/31 19:56:02.8	3.750	0.880	-1.660	-0.280
2020/01/31 19:56:02.9	3.770	0.930	-1.680	-0.290
2020/01/31 19:56:03.0	3.790	0.970	-1.690	-0.300
2020/01/31 19:56:03.1	3.810	1.010	-1.690	-0.310
2020/01/31 19:56:03.2	3.830	1.040	-1.680	-0.320
2020/01/31 19:56:03.3	3.850	1.070	-1.670	-0.330
2020/01/31 19:56:03.4	3.880	1.090	-1.640	-0.340
2020/01/31 19:56:03.5	3.900	1.100	-1.610	-0.350
2020/01/31 19:56:03.6	3.930	1.100	-1.570	-0.360
2020/01/31 19:56:03.7	3.960	1.090	-1.530	-0.360
2020/01/31 19:56:03.8	3.990	1.080	-1.470	-0.370
2020/01/31 19:56:03.9	4.010	1.060	-1.410	-0.380
2020/01/31 19:56:04.0	4.040	1.040	-1.340	-0.380
2020/01/31 19:56:04.1	4.070	1.010	-1.270	-0.390
2020/01/31 19:56:04.2	4.100	0.970	-1.190	-0.390
2020/01/31 19:56:04.3	4.130	0.930	-1.110	-0.390
2020/01/31 19:56:04.4	4.150	0.880	-1.020	-0.390
2020/01/31 19:56:04.5	4.170	0.820	-0.920	-0.390
2020/01/31 19:56:04.6	4.190	0.760	-0.820	-0.390
2020/01/31 19:56:04.7	4.210	0.690	-0.720	-0.380
2020/01/31 19:56:04.8	4.220	0.620	-0.610	-0.370
2020/01/31 19:56:04.9	4.240	0.550	-0.490	-0.360
2020/01/31 19:56:05.0	4.250	0.470	-0.380	-0.340
2020/01/31 19:56:05.1	4.250	0.390	-0.260	-0.330
2020/01/31 19:56:05.2	4.250	0.310	-0.140	-0.320
2020/01/31 19:56:05.3	4.240	0.220	-0.020	-0.300
2020/01/31 19:56:05.4	4.240	0.140	0.100	-0.280
2020/01/31 19:56:05.5	4.230	0.050	0.220	-0.260
2020/01/31 19:56:05.6	4.210	-0.040	0.340	-0.240
2020/01/31 19:56:05.7	4.200	-0.120	0.460	-0.220
2020/01/31 19:56:05.8	4.180	-0.210	0.570	-0.200
2020/01/31 19:56:05.9	4.150	-0.290	0.670	-0.190
2020/01/31 19:56:06.0	4.130	-0.370	0.770	-0.170
2020/01/31 19:56:06.1	4.110	-0.450	0.870	-0.150
2020/01/31 19:56:06.2	4.090	-0.530	0.950	-0.130
2020/01/31 19:56:06.3	4.070	-0.600	1.030	-0.120
2020/01/31 19:56:06.4	4.050	-0.660	1.100	-0.100
2020/01/31 19:56:06.5	4.040	-0.720	1.150	-0.090
2020/01/31 19:56:06.6	4.020	-0.780	1.200	-0.070
2020/01/31 19:56:06.7	4.010	-0.830	1.230	-0.060
2020/01/31 19:56:06.8	3.990	-0.870	1.260	-0.060
2020/01/31 19:56:06.9	3.970	-0.910	1.270	-0.050
2020/01/31 19:56:07.0	3.960	-0.940	1.270	-0.050
2020/01/31 19:56:07.1	3.950	-0.960	1.250	-0.050
2020/01/31 19:56:07.2	3.940	-0.980	1.230	-0.040
2020/01/31 19:56:07.3	3.940	-0.980	1.200	-0.050
2020/01/31 19:56:07.4	3.930	-0.980	1.160	-0.050
2020/01/31 19:56:07.5	3.930	-0.980	1.100	-0.050
2020/01/31 19:56:07.6	3.930	-0.960	1.040	-0.060
2020/01/31 19:56:07.7	3.920	-0.940	0.970	-0.060
2020/01/31 19:56:07.8	3.920	-0.910	0.890	-0.070
2020/01/31 19:56:07.9	3.920	-0.880	0.800	-0.070
2020/01/31 19:56:08.0	3.920	-0.840	0.710	-0.080
2020/01/31 19:56:08.1	3.920	-0.790	0.610	-0.090
2020/01/31 19:56:08.2	3.920	-0.730	0.510	-0.090
2020/01/31 19:56:08.3	3.920	-0.670	0.410	-0.100
2020/01/31 19:56:08.4	3.930	-0.610	0.300	-0.110
2020/01/31 19:56:08.5	3.930	-0.540	0.190	-0.110
2020/01/31 19:56:08.6	3.930	-0.470	0.080	-0.110
2020/01/31 19:56:08.7	3.930	-0.390	-0.030	-0.120
2020/01/31 19:56:08.8	3.940	-0.320	-0.130	-0.120
2020/01/31 19:56:08.9	3.950	-0.240	-0.240	-0.120
2020/01/31 19:56:09.0	3.950	-0.160	-0.340	-0.120
2020/01/31 19:56:09.1	3.950	-0.070	-0.440	-0.110
2020/01/31 19:56:09.2	3.950	0.010	-0.530	-0.100
2020/01/31 19:56:09.3	3.950	0.090	-0.620	-0.090
2020/01/31 19:56:09.4	3.950	0.170	-0.710	-0.080
2020/01/31 19:56:09.5	3.950	0.240	-0.780	-0.070
2020/01/31 19:56:09.6	3.950	0.320	-0.850	-0.050
2020/01/31 19:56:09.7	3.950	0.390	-0.920	-0.040
2020/01/31 19:56:09.8	3.940	0.450	-0.980	-0.020
2020/01/31 19:56:09.9	3.940	0.520	-1.030	0.000
2020/01/31 19:56:10.0	3.940	0.570	-1.070	0.020
2020/01/31 19:56:10.1	3.940	0.630	-1.110	0.030
2020/01/31 19:56:10.2	3.940	0.670	-1.140	0.050
2020/01/31 19:56:10.3	3.940	0.710	-1.160	0.060
2020/01/31 19:56:10.4	3.940	0.750	-1.170	0.080
2020/01/31 19:56:10.5	3.940	0.770	-1.180	0.090
2020/01/31 19:56:10.6	3.940	0.790	-1.180	0.100
2020/01/31 19:56:10.7	3.940	0.810	-1.170	0.110
2020/01/31 19:56:10.8	3.940	0.810	-1.160	0.110
2020/01/31 19:56:10.9	3.960	0.810	-1.150	0.110
2020/01/31 19:56:11.0	3.960	0.800	-1.120	0.110
2020/01/31 19:56:11.1	3.970	0.790	-1.090	0.110
2020/01/31 19:56:11.2	3.970	0.770	-1.060	0.100
2020/01/31 19:56:11.3	3.970	0.740	-1.020	0.090
2020/01/31 19:56:11.4	3.980	0.710	-0.970	0.080
2020/01/31 19:56:11.5	3.980	0.670	-0.920	0.060
2020/01/31 19:56:11.6	3.990	0.630	-0.870	0.040
2020/01/31 19:56:11.7	3.990	0.580	-0.810	0.020
2020/01/31 19:56:11.8	4.000	0.530	-0.750	-0.000
2020/01/31 19:56:11.9	3.990	0.470	-0.690	-0.030
2020/01/31 19:56:12.0	3.990	0.410	-0.630	-0.050
2020/01/31 19:56:12.1	3.990	0.350	-0.560	-0.080
2020/01/31 19:56:12.2	3.990	0.280	-0.490	-0.110
2020/01/31 19:56:12.3	3.990	0.220	-0.420	-0.140
2020/01/31 19:56:12.4	3.990	0.150	-0.350	-0.170
2020/01/31 19:56:12.5	3.980	0.080	-0.270	-0.200
2020/01/31 19:56:12.6	3.970	0.010	-0.200	-0.220
2020/01/31 19:56:12.7	3.960	-0.050	-0.120	-0.250
2020/01/31 19:56:12.8	3.950	-0.120	-0.050	-0.270
2020/01/31 19:56:12.9	3.930	-0.180	0.020	-0.300
2020/01/31 19:56:13.0	3.920	-0.240	0.090	-0.320
2020/01/31 19:56:13.1	3.900	-0.300	0.160	-0.340
2020/01/31 19:56:13.2	3.880	-0.360	0.230	-0.350
2020/01/31 19:56:13.3	3.860	-0.410	0.300	-0.370
2020/01/31 19:56:13.4	3.840	-0.450	0.360	-0.380
2020/01/31 19:56:13.5	3.810	-0.500	0.410	-0.390
2020/01/31 19:56:13.6	3.790	-0.530	0.460	-0.390
2020/01/31 19:56:13.7	3.760	-0.560	0.510	-0.400
2020/01/31 19:56:13.8	3.740	-0.590	0.550	-0.400
2020/01/31 19:56:13.9	3.710	-0.610	0.580	-0.400
2020/01/31 19:56:14.0	3.680	-0.620	0.600	-0.400
2020/01/31 19:56:14.1	3.650	-0.630	0.620	-0.390
2020/01/31 19:56:14.2	3.620	-0.630	0.640	-0.390
2020/01/31 19:56:14.3	3.600	-0.630	0.640	-0.380
2020/01/31 19:56:14.4	3.570	-0.620	0.630	-0.380
2020/01/31 19:56:14.5	3.550	-0.600	0.620	-0.370
2020/01/31 19:56:14.6	3.530	-0.580	0.600	-0.360
2020/01/31 19:56:14.7	3.500	-0.560	0.570	-0.360
2020/01/31 19:56:14.8	3.480	-0.530	0.540	-0.350
2020/01/31 19:56:14.9	3.460	-0.490	0.500	-0.350
2020/01/31 19:56:15.0	3.440	-0.450	0.450	-0.340
2020/01/31 19:56:15.1	3.430	-0.410	0.390	-0.330
2020/01/31 19:56:15.2	3.420	-0.360	0.330	-0.330
2020/01/31 19:56:15.3	3.410	-0.310	0.260	-0.320
2020/01/31 19:56:15.4	3.400	-0.260	0.190	-0.320
2020/01/31 19:56:15.5	3.400	-0.200	0.120	-0.310
2020/01/31 19:56:15.6	3.400	-0.140	0.040	-0.310
2020/01/31 19:56:15.7	3.410	-0.090	-0.040	-0.310
2020/01/31 19:56:15.8	3.410	-0.030	-0.130	-0.310
2020/01/31 19:56:15.9	3.430	0.030	-0.210	-0.310
2020/01/31 19:56:16.0	3.440	0.090	-0.290	-0.310
2020/01/31 19:56:16.1	3.450	0.140	-0.380	-0.310
2020/01/31 19:56:16.2	3.470	0.200	-0.460	-0.310
2020/01/31 19:56:16.3	3.490	0.250	-0.540	-0.320
2020/01/31 19:56:16.4	3.510	0.300	-0.610	-0.320
2020/01/31 19:56:16.5	3.530	0.340	-0.690	-0.320
2020/01/31 19:56:16.6	3.560	0.390	-0.750	-0.320
2020/01/31 19:56:16.7	3.580	0.420	-0.820	-0.330
2020/01/31 19:56:16.8	3.610	0.460	-0.870	-0.330
2020/01/31 19:56:16.9	3.630	0.490	-0.930	-0.330
2020/01/31 19:56:17.0	3.660	0.510	-0.970	-0.320
2020/01/31 19:56:17.1	3.690	0.530	-1.010	-0.320
2020/01/31 19:56:17.2	3.710	0.540	-1.040	-0.320
2020/01/31 19:56:17.3	3.740	0.540	-1.060	-0.310
2020/01/31 19:56:17.4	3.770	0.550	-1.080	-0.310
2020/01/31 19:56:17.5	3.800	0.540	-1.080	-0.300
2020/01/31 19:56:17.6	3.820	0.530	-1.090	-0.300
2020/01/31 19:56:17.7	3.850	0.510	-1.080	-0.290
2020/01/31 19:56:17.8	3.880	0.490	-1.070	-0.280
2020/01/31 19:56:17.9	3.910	0.470	-1.040	-0.270
2020/01/31 19:56:18.0	3.930	0.430	-1.020	-0.270
2020/01/31 19:56:18.1	3.960	0.400	-0.980	-0.260
2020/01/31 19:56:18.2	3.980	0.360	-0.940	-0.250
2020/01/31 19:56:18.3	4.000	0.310	-0.900	-0.240
2020/01/31 19:56:18.4	4.030	0.270	-0.850	-0.230
2020/01/31 19:56:18.5	4.050	0.220	-0.800	-0.230
2020/01/31 19:56:18.6	4.070	0.160	-0.740	-0.220
2020/01/31 19:56:18.7	4.090	0.110	-0.680	-0.210
2020/01/31 19:56:18.8	4.100	0.060	-0.620	-0.200
2020/01/31 19:56:18.9	4.110	0.000	-0.560	-0.190
2020/01/31 19:56:19.0	4.130	-0.050	-0.500	-0.170
2020/01/31 19:56:19.1	4.140	-0.110	-0.430	-0.160
2020/01/31 19:56:19.2	4.150	-0.160	-0.370	-0.150
2020/01/31 19:56:19.3	4.160	-0.210	-0.300	-0.140
2020/01/31 19:56:19.4	4.170	-0.260	-0.240	-0.120
2020/01/31 19:56:19.5	4.180	-0.310	-0.180	-0.100
2020/01/31 19:56:19.6	4.180	-0.350	-0.120	-0.090
2020/01/31 19:56:19.7	4.180	-0.390	-0.060	-0.070
2020/01/31 19:56:19.8	4.180	-0.420	-0.000	-0.050
2020/01/31 19:56:19.9	4.170	-0.450	0.050	-0.030
2020/01/31 19:56:20.0	4.170	-0.480	0.100	-0.010
2020/01/31 19:56:20.1	4.170	-0.500	0.140	0.010
2020/01/31 19:56:20.2	4.160	-0.510	0.180	0.030
2020/01/31 19:56:20.3	4.160	-0.520	0.210	0.050
2020/01/31 19:56:20.4	4.150	-0.530	0.240	0.070
2020/01/31 19:56:20.5	4.140	-0.530	0.260	0.090
2020/01/31 19:56:20.6	4.130	-0.520	0.280	0.100
2020/01/31 19:56:20.7	4.120	-0.510	0.290	0.120
2020/01/31 19:56:20.8	4.110	-0.490	0.290	0.140
2020/01/31 19:56:20.9	4.110	-0.470	0.290	0.150
2020/01/31 19:56:21.0	4.100	-0.450	0.280	0.170
2020/01/31 19:56:21.1	4.090	-0.420	0.260	0.180
2020/01/31 19:56:21.2	4.080	-0.380	0.250	0.190
2020/01/31 19:56:21.3	4.060	-0.350	0.220	0.210
2020/01/31 19:56:21.4	4.050	-0.300	0.190	0.220
2020/01/31 19:56:21.5	4.030	-0.260	0.160	0.230
2020/01/31 19:56:21.6	4.020	-0.210	0.120	0.240
2020/01/31 19:56:21.7	4.000	-0.170	0.080	0.250
2020/01/31 19:56:21.8	3.980	-0.120	0.040	0.260
2020/01/31 19:56:21.9	3.970	-0.070	-0.000	0.260
2020/01/31 19:56:22.0	3.950	-0.010	-0.050	0.260
2020/01/31 19:56:22.1	3.930	0.040	-0.090	0.270
2020/01/31 19:56:22.2	3.910	0.090	-0.140	0.270
2020/01/31 19:56:22.3	3.900	0.140	-0.190	0.280
2020/01/31 19:56:22.4	3.880	0.190	-0.230	0.280
2020/01/31 19:56:22.5	3.860	0.240	-0.270	0.280
2020/01/31 19:56:22.6	3.840	0.280	-0.310	0.280
2020/01/31 19:56:22.7	3.820	0.320	-0.350	0.280
2020/01/31 19:56:22.8	3.800	0.360	-0.380	0.290
2020/01/31 19:56:22.9	3.790	0.400	-0.410	0.280
2020/01/31 19:56:23.0	3.770	0.430	-0.440	0.290
2020/01/31 19:56:23.1	3.750	0.460	-0.460	0.290
2020/01/31 19:56:23.2	3.720	0.490	-0.470	0.290
2020/01/31 19:56:23.3	3.700	0.510	-0.480	0.290
2020/01/31 19:56:23.4	3.680	0.530	-0.480	0.290
2020/01/31 19:56:23.5	3.660	0.540	-0.470	0.290
2020/01/31 19:56:23.6	3.630	0.550	-0.470	0.290
2020/01/31 19:56:23.7	3.610	0.550	-0.450	0.280
2020/01/31 19:56:23.8	3.580	0.550	-0.430	0.280
2020/01/31 19:56:23.9	3.570	0.540	-0.400	0.280
2020/01/31 19:56:24.0	3.540	0.540	-0.370	0.270
2020/01/31 19:56:24.1	3.520	0.520	-0.340	0.270
2020/01/31 19:56:24.2	3.500	0.510	-0.300	0.260
2020/01/31 19:56:24.3	3.470	0.490	-0.260	0.250
2020/01/31 19:56:24.4	3.450	0.470	-0.220	0.250
2020/01/31 19:56:24.5	3.430	0.440	-0.170	0.240
2020/01/31 19:56:24.6	3.420	0.420	-0.130	0.230
2020/01/31 19:56:24.7	3.400	0.390	-0.080	0.220
2020/01/31 19:56:24.8	3.390	0.360	-0.040	0.210
2020/01/31 19:56:24.9	3.380	0.330	0.000	0.190
2020/01/31 19:56:25.0	3.370	0.300	0.040	0.180
2020/01/31 19:56:25.1	3.370	0.270	0.080	0.160
2020/01/31 19:56:25.2	3.370	0.240	0.110	0.140
2020/01/31 19:56:25.3	3.370	0.210	0.140	0.120
2020/01/31 19:56:25.4	3.380	0.180	0.160	0.090
2020/01/31 19:56:25.5	3.390	0.150	0.180	0.060
2020/01/31 19:56:25.6	3.400	0.120	0.190	0.040
2020/01/31 19:56:25.7	3.420	0.100	0.190	0.000
2020/01/31 19:56:25.8	3.440	0.070	0.190	-0.030
2020/01/31 19:56:25.9	3.450	0.040	0.180	-0.070
2020/01/31 19:56:26.0	3.470	0.020	0.170	-0.110
2020/01/31 19:56:26.1	3.490	-0.000	0.150	-0.150
2020/01/31 19:56:26.2	3.520	-0.030	0.120	-0.190
2020/01/31 19:56:26.3	3.540	-0.050	0.090	-0.230
2020/01/31 19:56:26.4	3.560	-0.070	0.060	-0.270
2020/01/31 19:56:26.5	3.590	-0.090	0.020	-0.320
2020/01/31 19:56:26.6	3.610	-0.110	-0.030	-0.370
2020/01/31 19:56:26.7	3.630	-0.130	-0.070	-0.410
2020/01/31 19:56:26.8	3.660	-0.150	-0.120	-0.460
2020/01/31 19:56:26.9	3.670	-0.170	-0.180	-0.510
2020/01/31 19:56:27.0	3.700	-0.180	-0.230	-0.550
2020/01/31 19:56:27.1	3.720	-0.200	-0.290	-0.600
2020/01/31 19:56:27.2	3.740	-0.210	-0.340	-0.640
2020/01/31 19:56:27.3	3.760	-0.230	-0.400	-0.680
2020/01/31 19:56:27.4	3.780	-0.240	-0.450	-0.720
2020/01/31 19:56:27.5	3.800	-0.250	-0.510	-0.760
2020/01/31 19:56:27.6	3.820	-0.260	-0.560	-0.800
2020/01/31 19:56:27.7	3.840	-0.270	-0.610	-0.840
2020/01/31 19:56:27.8	3.860	-0.280	-0.660	-0.870
2020/01/31 19:56:27.9	3.880	-0.290	-0.700	-0.910
2020/01/31 19:56:28.0	3.900	-0.290	-0.740	-0.940
2020/01/31 19:56:28.1	3.920	-0.300	-0.780	-0.960
2020/01/31 19:56:28.2	3.940	-0.300	-0.820	-0.990
2020/01/31 19:56:28.3	3.960	-0.300	-0.850	-1.020
2020/01/31 19:56:28.4	3.990	-0.300	-0.880	-1.040
2020/01/31 19:56:28.5	4.010	-0.300	-0.900	-1.060
2020/01/31 19:56:28.6	4.040	-0.300	-0.920	-1.080
2020/01/31 19:56:28.7	4.060	-0.290	-0.940	-1.090
2020/01/31 19:56:28.8	4.090	-0.280	-0.950	-1.100
2020/01/31 19:56:28.9	4.120	-0.270	-0.960	-1.120
2020/01/31 19:56:29.0	4.150	-0.260	-0.960	-1.120
2020/01/31 19:56:29.1	4.170	-0.250	-0.950	-1.120
2020/01/31 19:56:29.2	4.190	-0.230	-0.940	-1.120
2020/01/31 19:56:29.3	4.210	-0.210	-0.920	-1.110
2020/01/31 19:56:29.4	4.230	-0.200	-0.900	-1.100
2020/01/31 19:56:29.5	4.240	-0.180	-0.870	-1.080
2020/01/31 19:56:29.6	4.250	-0.160	-0.830	-1.050
2020/01/31 19:56:29.7	4.260	-0.140	-0.790	-1.020
2020/01/31 19:56:29.8	4.260	-0.120	-0.740	-0.990
2020/01/31 19:56:29.9	4.260	-0.090	-0.700	-0.940
2020/01/31 19:56:30.0	4.260	-0.070	-0.640	-0.900
2020/01/31 19:56:30.1	4.250	-0.050	-0.580	-0.850
2020/01/31 19:56:30.2	4.230	-0.020	-0.510	-0.790
2020/01/31 19:56:30.3	4.220	-0.000	-0.440	-0.730
2020/01/31 19:56:30.4	4.190	0.020	-0.370	-0.670
2020/01/31 19:56:30.5	4.170	0.040	-0.300	-0.600
2020/01/31 19:56:30.6	4.140	0.060	-0.230	-0.540
2020/01/31 19:56:30.7	4.110	0.080	-0.160	-0.470
2020/01/31 19:56:30.8	4.080	0.100	-0.090	-0.400
2020/01/31 19:56:30.9	4.050	0.120	-0.010	-0.340
2020/01/31 19:56:31.0	4.010	0.140	0.050	-0.270
2020/01/31 19:56:31.1	3.980	0.150	0.120	-0.210
2020/01/31 19:56:31.2	3.940	0.160	0.180	-0.150
2020/01/31 19:56:31.3	3.910	0.180	0.230	-0.090
2020/01/31 19:56:31.4	3.870	0.190	0.280	-0.030
2020/01/31 19:56:31.5	3.840	0.190	0.330	0.020
2020/01/31 19:56:31.6	3.810	0.200	0.370	0.070
2020/01/31 19:56:31.7	3.780	0.210	0.400	0.110
2020/01/31 19:56:31.8	3.750	0.210	0.430	0.150
2020/01/31 19:56:31.9	3.690	0.220	0.440	0.190
2020/01/31 19:56:32.0	3.670	0.220	0.460	0.220
2020/01/31 19:56:32.1	3.640	0.220	0.470	0.250
2020/01/31 19:56:32.2	3.620	0.220	0.470	0.270
2020/01/31 19:56:32.3	3.600	0.220	0.470	0.290
2020/01/31 19:56:32.4	3.580	0.220	0.470	0.300
2020/01/31 19:56:32.5	3.560	0.220	0.460	0.310
2020/01/31 19:56:32.6	3.550	0.220	0.440	0.310
2020/01/31 19:56:32.7	3.540	0.220	0.420	0.310
2020/01/31 19:56:32.8	3.530	0.210	0.400	0.310
2020/01/31 19:56:32.9	3.510	0.210	0.380	0.300
2020/01/31 19:56:33.0	3.500	0.210	0.350	0.290
2020/01/31 19:56:33.1	3.500	0.200	0.310	0.290
2020/01/31 19:56:33.2	3.500	0.200	0.280	0.270
2020/01/31 19:56:33.3	3.500	0.200	0.240	0.260
2020/01/31 19:56:33.4	3.500	0.190	0.200	0.250
2020/01/31 19:56:33.5	3.500	0.190	0.160	0.230
2020/01/31 19:56:33.6	3.510	0.190	0.120	0.220
2020/01/31 19:56:33.7	3.520	0.180	0.080	0.200
2020/01/31 19:56:33.8	3.530	0.180	0.030	0.180
2020/01/31 19:56:33.9	3.550	0.180	-0.020	0.160
2020/01/31 19:56:34.0	3.570	0.170	-0.060	0.130
2020/01/31 19:56:34.1	3.590	0.170	-0.110	0.110
2020/01/31 19:56:34.2	3.610	0.160	-0.150	0.090
2020/01/31 19:56:34.3	3.630	0.160	-0.190	0.060
2020/01/31 19:56:34.4	3.650	0.160	-0.240	0.040
2020/01/31 19:56:34.5	3.670	0.150	-0.280	0.010
2020/01/31 19:56:34.6	3.690	0.150	-0.320	-0.010
2020/01/31 19:56:34.7	3.700	0.150	-0.360	-0.030
2020/01/31 19:56:34.8	3.720	0.140	-0.400	-0.050
2020/01/31 19:56:34.9	3.740	0.140	-0.440	-0.070
2020/01/31 19:56:35.0	3.760	0.130	-0.470	-0.090
2020/01/31 19:56:35.1	3.770	0.130	-0.500	-0.100
2020/01/31 19:56:35.2	3.780	0.120	-0.530	-0.120
2020/01/31 19:56:35.3	3.790	0.120	-0.560	-0.130
2020/01/31 19:56:35.4	3.800	0.110	-0.580	-0.130
2020/01/31 19:56:35.5	3.800	0.100	-0.600	-0.140
2020/01/31 19:56:35.6	3.800	0.100	-0.620	-0.140
2020/01/31 19:56:35.7	3.800	0.090	-0.640	-0.140
2020/01/31 19:56:35.8	3.800	0.080	-0.650	-0.140
2020/01/31 19:56:35.9	3.810	0.070	-0.660	-0.140
2020/01/31 19:56:36.0	3.800	0.060	-0.670	-0.130
2020/01/31 19:56:36.1	3.800	0.050	-0.680	-0.130
2020/01/31 19:56:36.2	3.790	0.040	-0.680	-0.120
2020/01/31 19:56:36.3	3.780	0.040	-0.680	-0.110
2020/01/31 19:56:36.4	3.780	0.030	-0.680	-0.110
2020/01/31 19:56:36.5	3.770	0.020	-0.680	-0.100
2020/01/31 19:56:36.6	3.760	0.010	-0.680	-0.090
2020/01/31 19:56:36.7	3.750	-0.000	-0.670	-0.090
2020/01/31 19:56:36.8	3.740	-0.010	-0.660	-0.080
2020/01/31 19:56:36.9	3.720	-0.020	-0.650	-0.080
2020/01/31 19:56:37.0	3.710	-0.030	-0.640	-0.070
2020/01/31 19:56:37.1	3.700	-0.040	-0.630	-0.070
2020/01/31 19:56:37.2	3.690	-0.050	-0.620	-0.060
2020/01/31 19:56:37.3	3.680	-0.060	-0.610	-0.050
2020/01/31 19:56:37.4	3.670	-0.060	-0.600	-0.050
2020/01/31 19:56:37.5	3.660	-0.070	-0.590	-0.040
2020/01/31 19:56:37.6	3.650	-0.080	-0.570	-0.040
2020/01/31 19:56:37.7	3.640	-0.080	-0.560	-0.030
2020/01/31 19:56:37.8	3.630	-0.090	-0.550	-0.030
2020/01/31 19:56:37.9	3.620	-0.090	-0.530	-0.030
2020/01/31 19:56:38.0	3.610	-0.100	-0.520	-0.020
2020/01/31 19:56:38.1	3.610	-0.100	-0.510	-0.020
2020/01/31 19:56:38.2	3.600	-0.110	-0.500	-0.020
2020/01/31 19:56:38.3	3.600	-0.110	-0.480	-0.020
2020/01/31 19:56:38.4	3.590	-0.110	-0.470	-0.020
2020/01/31 19:56:38.5	3.590	-0.120	-0.460	-0.030
2020/01/31 19:56:38.6	3.590	-0.120	-0.450	-0.030
2020/01/31 19:56:38.7	3.590	-0.120	-0.440	-0.040
2020/01/31 19:56:38.8	3.590	-0.130	-0.430	-0.050
2020/01/31 19:56:38.9	3.600	-0.130	-0.420	-0.070
2020/01/31 19:56:39.0	3.610	-0.130	-0.410	-0.080
2020/01/31 19:56:39.1	3.620	-0.140	-0.400	-0.100
2020/01/31 19:56:39.2	3.630	-0.140	-0.390	-0.120
2020/01/31 19:56:39.3	3.640	-0.150	-0.380	-0.140
2020/01/31 19:56:39.4	3.650	-0.150	-0.380	-0.160
2020/01/31 19:56:39.5	3.660	-0.150	-0.370	-0.190
2020/01/31 19:56:39.6	3.680	-0.160	-0.360	-0.210
2020/01/31 19:56:39.7	3.690	-0.160	-0.340	-0.240
2020/01/31 19:56:39.8	3.710	-0.170	-0.330	-0.270
2020/01/31 19:56:39.9	3.730	-0.170	-0.320	-0.300
2020/01/31 19:56:40.0	3.750	-0.180	-0.300	-0.330
2020/01/31 19:56:40.1	3.770	-0.180	-0.290	-0.360
2020/01/31 19:56:40.2	3.790	-0.190	-0.270	-0.380
2020/01/31 19:56:40.3	3.810	-0.190	-0.250	-0.410
2020/01/31 19:56:40.4	3.820	-0.200	-0.230	-0.430
2020/01/31 19:56:40.5	3.840	-0.200	-0.210	-0.460
2020/01/31 19:56:40.6	3.860	-0.210	-0.180	-0.480
2020/01/31 19:56:40.7	3.880	-0.220	-0.160	-0.500
2020/01/31 19:56:40.8	3.900	-0.220	-0.130	-0.510
2020/01/31 19:56:40.9	3.930	-0.230	-0.110	-0.520
2020/01/31 19:56:41.0	3.950	-0.230	-0.080	-0.530
2020/01/31 19:56:41.1	3.970	-0.240	-0.050	-0.540
2020/01/31 19:56:41.2	3.980	-0.240	-0.020	-0.540
2020/01/31 19:56:41.3	4.000	-0.240	0.010	-0.530
2020/01/31 19:56:41.4	4.020	-0.250	0.040	-0.530
2020/01/31 19:56:41.5	4.030	-0.250	0.060	-0.520
2020/01/31 19:56:41.6	4.040	-0.250	0.090	-0.500
2020/01/31 19:56:41.7	4.060	-0.250	0.120	-0.480
2020/01/31 19:56:41.8	4.070	-0.250	0.150	-0.460
2020/01/31 19:56:41.9	4.070	-0.250	0.170	-0.430
2020/01/31 19:56:42.0	4.070	-0.250	0.190	-0.400
2020/01/31 19:56:42.1	4.080	-0.240	0.210	-0.370
2020/01/31 19:56:42.2	4.080	-0.240	0.230	-0.340
2020/01/31 19:56:42.3	4.090	-0.230	0.250	-0.300
2020/01/31 19:56:42.4	4.090	-0.220	0.260	-0.260
2020/01/31 19:56:42.5	4.090	-0.210	0.270	-0.220
2020/01/31 19:56:42.6	4.080	-0.190	0.280	-0.180
2020/01/31 19:56:42.7	4.080	-0.180	0.280	-0.140
2020/01/31 19:56:42.8	4.070	-0.160	0.280	-0.090
2020/01/31 19:56:42.9	4.070	-0.150	0.280	-0.050
2020/01/31 19:56:43.0	4.060	-0.120	0.280	-0.010
2020/01/31 19:56:43.1	4.050	-0.100	0.270	0.030
2020/01/31 19:56:43.2	4.040	-0.080	0.260	0.070
2020/01/31 19:56:43.3	4.020	-0.050	0.240	0.110
2020/01/31 19:56:43.4	4.010	-0.030	0.220	0.150
2020/01/31 19:56:43.5	3.990	0.000	0.200	0.190
2020/01/31 19:56:43.6	3.980	0.030	0.180	0.230
2020/01/31 19:56:43.7	3.960	0.060	0.150	0.260
2020/01/31 19:56:43.8	3.940	0.090	0.120	0.300
2020/01/31 19:56:43.9	3.920	0.120	0.080	0.330
2020/01/31 19:56:44.0	3.890	0.150	0.050	0.360
2020/01/31 19:56:44.1	3.870	0.180	0.020	0.390
2020/01/31 19:56:44.2	3.850	0.210	-0.020	0.420
2020/01/31 19:56:44.3	3.820	0.240	-0.050	0.440
2020/01/31 19:56:44.4	3.800	0.270	-0.090	0.460
2020/01/31 19:56:44.5	3.770	0.290	-0.120	0.480
2020/01/31 19:56:44.6	3.740	0.310	-0.160	0.500
2020/01/31 19:56:44.7	3.720	0.330	-0.200	0.510
2020/01/31 19:56:44.8	3.690	0.350	-0.230	0.520
2020/01/31 19:56:44.9	3.660	0.360	-0.270	0.520
2020/01/31 19:56:45.0	3.630	0.370	-0.300	0.520
2020/01/31 19:56:45.1	3.600	0.380	-0.340	0.510
2020/01/31 19:56:45.2	3.570	0.380	-0.380	0.490
2020/01/31 19:56:45.3	3.550	0.380	-0.410	0.470
2020/01/31 19:56:45.4	3.520	0.380	-0.450	0.450
2020/01/31 19:56:45.5	3.490	0.370	-0.480	0.420
2020/01/31 19:56:45.6	3.470	0.360	-0.510	0.390
2020/01/31 19:56:45.7	3.440	0.350	-0.540	0.360
2020/01/31 19:56:45.8	3.420	0.340	-0.570	0.320
2020/01/31 19:56:45.9	3.400	0.320	-0.600	0.270
2020/01/31 19:56:46.0	3.380	0.300	-0.630	0.230
2020/01/31 19:56:46.1	3.370	0.280	-0.650	0.180
2020/01/31 19:56:46.2	3.350	0.260	-0.680	0.140
2020/01/31 19:56:46.3	3.340	0.240	-0.700	0.090
2020/01/31 19:56:46.4	3.330	0.220	-0.720	0.040
2020/01/31 19:56:46.5	3.330	0.190	-0.740	-0.010
2020/01/31 19:56:46.6	3.320	0.170	-0.750	-0.060
2020/01/31 19:56:46.7	3.320	0.150	-0.760	-0.110
2020/01/31 19:56:46.8	3.320	0.120	-0.770	-0.150
2020/01/31 19:56:46.9	3.330	0.100	-0.780	-0.210
2020/01/31 19:56:47.0	3.330	0.080	-0.780	-0.250
2020/01/31 19:56:47.1	3.340	0.060	-0.780	-0.300
2020/01/31 19:56:47.2	3.350	0.050	-0.770	-0.340
2020/01/31 19:56:47.3	3.360	0.030	-0.770	-0.380
2020/01/31 19:56:47.4	3.370	0.020	-0.760	-0.420
2020/01/31 19:56:47.5	3.380	0.010	-0.740	-0.460
2020/01/31 19:56:47.6	3.400	-0.000	-0.730	-0.490
2020/01/31 19:56:47.7	3.410	-0.010	-0.710	-0.520
2020/01/31 19:56:47.8	3.430	-0.020	-0.690	-0.560
2020/01/31 19:56:47.9	3.440	-0.020	-0.670	-0.590
2020/01/31 19:56:48.0	3.460	-0.020	-0.650	-0.610
2020/01/31 19:56:48.1	3.480	-0.020	-0.620	-0.640
2020/01/31 19:56:48.2	3.490	-0.010	-0.590	-0.660
2020/01/31 19:56:48.3	3.510	-0.010	-0.560	-0.680
2020/01/31 19:56:48.4	3.530	-0.000	-0.530	-0.690
2020/01/31 19:56:48.5	3.550	0.000	-0.500	-0.710
2020/01/31 19:56:48.6	3.560	0.010	-0.470	-0.710
2020/01/31 19:56:48.7	3.580	0.020	-0.430	-0.720
2020/01/31 19:56:48.8	3.590	0.030	-0.400	-0.720
2020/01/31 19:56:48.9	3.620	0.040	-0.370	-0.710
2020/01/31 19:56:49.0	3.630	0.050	-0.340	-0.710
2020/01/31 19:56:49.1	3.650	0.060	-0.310	-0.690
2020/01/31 19:56:49.2	3.660	0.070	-0.280	-0.680
2020/01/31 19:56:49.3	3.670	0.080	-0.250	-0.660
2020/01/31 19:56:49.4	3.690	0.090	-0.220	-0.640
2020/01/31 19:56:49.5	3.700	0.100	-0.200	-0.620
2020/01/31 19:56:49.6	3.710	0.110	-0.180	-0.600
2020/01/31 19:56:49.7	3.730	0.110	-0.160	-0.580
2020/01/31 19:56:49.8	3.740	0.120	-0.140	-0.560
2020/01/31 19:56:49.9	3.760	0.120	-0.130	-0.530
2020/01/31 19:56:50.0	3.770	0.130	-0.120	-0.510
2020/01/31 19:56:50.1	3.790	0.130	-0.110	-0.500
2020/01/31 19:56:50.2	3.820	0.130	-0.110	-0.480
2020/01/31 19:56:50.3	3.840	0.130	-0.110	-0.470
2020/01/31 19:56:50.4	3.870	0.130	-0.120	-0.460
2020/01/31 19:56:50.5	3.900	0.120	-0.130	-0.450
2020/01/31 19:56:50.6	3.930	0.120	-0.140	-0.450
2020/01/31 19:56:50.7	3.970	0.110	-0.160	-0.440
2020/01/31 19:56:50.8	4.010	0.110	-0.170	-0.450
2020/01/31 19:56:50.9	4.040	0.100	-0.200	-0.450
2020/01/31 19:56:51.0	4.080	0.090	-0.220	-0.460
2020/01/31 19:56:51.1	4.120	0.080	-0.240	-0.460
2020/01/31 19:56:51.2	4.150	0.070	-0.260	-0.470
2020/01/31 19:56:51.3	4.190	0.050	-0.280	-0.470
2020/01/31 19:56:51.4	4.220	0.040	-0.300	-0.470
2020/01/31 19:56:51.5	4.240	0.020	-0.310	-0.460
2020/01/31 19:56:51.6	4.260	0.000	-0.320	-0.460
2020/01/31 19:56:51.7	4.270	-0.020	-0.330	-0.450
2020/01/31 19:56:51.8	4.280	-0.040	-0.330	-0.440
2020/01/31 19:56:51.9	4.290	-0.060	-0.330	-0.430
2020/01/31 19:56:52.0	4.290	-0.090	-0.320	-0.420
2020/01/31 19:56:52.1	4.290	-0.110	-0.300	-0.400
2020/01/31 19:56:52.2	4.280	-0.140	-0.280	-0.390
2020/01/31 19:56:52.3	4.270	-0.170	-0.250	-0.370
2020/01/31 19:56:52.4	4.260	-0.200	-0.220	-0.350
2020/01/31 19:56:52.5	4.240	-0.230	-0.180	-0.330
2020/01/31 19:56:52.6	4.210	-0.260	-0.130	-0.310
2020/01/31 19:56:52.7	4.190	-0.290	-0.080	-0.280
2020/01/31 19:56:52.8	4.160	-0.320	-0.030	-0.260
2020/01/31 19:56:52.9	4.130	-0.360	0.030	-0.240
2020/01/31 19:56:53.0	4.090	-0.390	0.090	-0.210
2020/01/31 19:56:53.1	4.060	-0.420	0.160	-0.180
2020/01/31 19:56:53.2	4.020	-0.450	0.220	-0.160
2020/01/31 19:56:53.3	3.980	-0.480	0.280	-0.130
2020/01/31 19:56:53.4	3.940	-0.500	0.340	-0.110
2020/01/31 19:56:53.5	3.900	-0.530	0.400	-0.080
2020/01/31 19:56:53.6	3.860	-0.550	0.450	-0.060
2020/01/31 19:56:53.7	3.820	-0.570	0.500	-0.040
2020/01/31 19:56:53.8	3.780	-0.590	0.550	-0.010
2020/01/31 19:56:53.9	3.730	-0.610	0.580	0.010
2020/01/31 19:56:54.0	3.690	-0.620	0.620	0.030
2020/01/31 19:56:54.1	3.640	-0.630	0.650	0.060
2020/01/31 19:56:54.2	3.600	-0.630	0.670	0.080
2020/01/31 19:56:54.3	3.560	-0.640	0.690	0.100
2020/01/31 19:56:54.4	3.520	-0.630	0.700	0.120
2020/01/31 19:56:54.5	3.470	-0.630	0.700	0.140
2020/01/31 19:56:54.6	3.430	-0.620	0.690	0.160
2020/01/31 19:56:54.7	3.390	-0.600	0.680	0.180
2020/01/31 19:56:54.8	3.350	-0.590	0.650	0.200
2020/01/31 19:56:54.9	3.300	-0.560	0.620	0.210
2020/01/31 19:56:55.0	3.260	-0.540	0.590	0.220
2020/01/31 19:56:55.1	3.220	-0.510	0.540	0.240
2020/01/31 19:56:55.2	3.180	-0.480	0.490	0.250
2020/01/31 19:56:55.3	3.140	-0.440	0.430	0.260
2020/01/31 19:56:55.4	3.110	-0.400	0.370	0.270
2020/01/31 19:56:55.5	3.080	-0.350	0.300	0.280
2020/01/31 19:56:55.6	3.040	-0.310	0.230	0.280
2020/01/31 19:56:55.7	3.010	-0.260	0.150	0.280
2020/01/31 19:56:55.8	2.990	-0.210	0.070	0.280
2020/01/31 19:56:55.9	2.950	-0.150	-0.020	0.270
2020/01/31 19:56:56.0	2.930	-0.100	-0.100	0.260
2020/01/31 19:56:56.1	2.910	-0.040	-0.190	0.250
2020/01/31 19:56:56.2	2.900	0.010	-0.280	0.240
2020/01/31 19:56:56.3	2.890	0.070	-0.370	0.230
2020/01/31 19:56:56.4	2.880	0.120	-0.460	0.210
2020/01/31 19:56:56.5	2.870	0.180	-0.540	0.190
2020/01/31 19:56:56.6	2.870	0.230	-0.630	0.160
2020/01/31 19:56:56.7	2.880	0.290	-0.720	0.140
2020/01/31 19:56:56.8	2.880	0.340	-0.800	0.110
2020/01/31 19:56:56.9	2.890	0.380	-0.880	0.080
2020/01/31 19:56:57.0	2.900	0.430	-0.950	0.040
2020/01/31 19:56:57.1	2.920	0.470	-1.020	0.010
2020/01/31 19:56:57.2	2.940	0.500	-1.090	-0.030
2020/01/31 19:56:57.3	2.960	0.540	-1.160	-0.070
2020/01/31 19:56:57.4	2.990	0.570	-1.210	-0.110
2020/01/31 19:56:57.5	3.020	0.590	-1.270	-0.150
2020/01/31 19:56:57.6	3.050	0.610	-1.320	-0.200
2020/01/31 19:56:57.7	3.090	0.630	-1.360	-0.240
2020/01/31 19:56:57.8	3.120	0.640	-1.390	-0.290
2020/01/31 19:56:57.9	3.170	0.650	-1.420	-0.330
2020/01/31 19:56:58.0	3.210	0.650	-1.450	-0.370
2020/01/31 19:56:58.1	3.260	0.650	-1.460	-0.420
2020/01/31 19:56:58.2	3.300	0.650	-1.470	-0.460
2020/01/31 19:56:58.3	3.340	0.640	-1.470	-0.500
2020/01/31 19:56:58.4	3.380	0.620	-1.470	-0.540
2020/01/31 19:56:58.5	3.420	0.610	-1.450	-0.580
2020/01/31 19:56:58.6	3.460	0.580	-1.430	-0.610
2020/01/31 19:56:58.7	3.500	0.560	-1.410	-0.640
2020/01/31 19:56:58.8	3.540	0.530	-1.380	-0.670
2020/01/31 19:56:58.9	3.580	0.500	-1.340	-0.690
2020/01/31 19:56:59.0	3.620	0.470	-1.300	-0.720
2020/01/31 19:56:59.1	3.650	0.430	-1.250	-0.730
2020/01/31 19:56:59.2	3.680	0.400	-1.190	-0.750
2020/01/31 19:56:59.3	3.710	0.360	-1.130	-0.760
2020/01/31 19:56:59.4	3.730	0.320	-1.060	-0.770
2020/01/31 19:56:59.5	3.750	0.280	-0.990	-0.770
2020/01/31 19:56:59.6	3.770	0.240	-0.920	-0.770
2020/01/31 19:56:59.7	3.790	0.190	-0.840	-0.770
2020/01/31 19:56:59.8	3.800	0.150	-0.760	-0.760
2020/01/31 19:56:59.9	3.820	0.110	-0.690	-0.750
2020/01/31 19:57:00.0	3.830	0.070	-0.600	-0.740
2020/01/31 19:57:00.1	3.830	0.020	-0.520	-0.730
2020/01/31 19:57:00.2	3.840	-0.020	-0.440	-0.720
2020/01/31 19:57:00.3	3.840	-0.060	-0.350	-0.700
2020/01/31 19:57:00.4	3.840	-0.100	-0.270	-0.680
2020/01/31 19:57:00.5	3.830	-0.130	-0.190	-0.670
2020/01/31 19:57:00.6	3.830	-0.170	-0.110	-0.650
2020/01/31 19:57:00.7	3.820	-0.200	-0.040	-0.630
2020/01/31 19:57:00.8	3.810	-0.240	0.030	-0.610
2020/01/31 19:57:00.9	3.790	-0.270	0.100	-0.580
2020/01/31 19:57:01.0	3.780	-0.290	0.170	-0.560
2020/01/31 19:57:01.1	3.770	-0.320	0.230	-0.530
2020/01/31 19:57:01.2	3.750	-0.340	0.280	-0.510
2020/01/31 19:57:01.3	3.730	-0.360	0.330	-0.480
2020/01/31 19:57:01.4	3.720	-0.380	0.370	-0.450
2020/01/31 19:57:01.5	3.700	-0.390	0.410	-0.420
2020/01/31 19:57:01.6	3.680	-0.400	0.440	-0.390
2020/01/31 19:57:01.7	3.660	-0.410	0.470	-0.350
2020/01/31 19:57:01.8	3.650	-0.410	0.490	-0.320
2020/01/31 19:57:01.9	3.620	-0.410	0.500	-0.290
2020/01/31 19:57:02.0	3.610	-0.410	0.520	-0.250
2020/01/31 19:57:02.1	3.600	-0.400	0.520	-0.220
2020/01/31 19:57:02.2	3.590	-0.390	0.520	-0.180
2020/01/31 19:57:02.3	3.580	-0.380	0.520	-0.150
2020/01/31 19:57:02.4	3.570	-0.360	0.510	-0.120
2020/01/31 19:57:02.5	3.570	-0.350	0.510	-0.090
2020/01/31 19:57:02.6	3.560	-0.330	0.490	-0.060
2020/01/31 19:57:02.7	3.560	-0.310	0.480	-0.030
2020/01/31 19:57:02.8	3.560	-0.280	0.460	-0.000
2020/01/31 19:57:02.9	3.550	-0.260	0.440	0.020
2020/01/31 19:57:03.0	3.550	-0.230	0.420	0.040
2020/01/31 19:57:03.1	3.550	-0.200	0.400	0.060
2020/01/31 19:57:03.2	3.550	-0.170	0.380	0.080
2020/01/31 19:57:03.3	3.550	-0.140	0.360	0.100
2020/01/31 19:57:03.4	3.560	-0.110	0.330	0.120
2020/01/31 19:57:03.5	3.560	-0.080	0.310	0.140
2020/01/31 19:57:03.6	3.560	-0.050	0.290	0.150
2020/01/31 19:57:03.7	3.550	-0.020	0.270	0.170
2020/01/31 19:57:03.8	3.550	0.010	0.250	0.180
2020/01/31 19:57:03.9	3.560	0.040	0.230	0.200
2020/01/31 19:57:04.0	3.550	0.070	0.220	0.210
2020/01/31 19:57:04.1	3.550	0.100	0.200	0.230
2020/01/31 19:57:04.2	3.540	0.130	0.180	0.240
2020/01/31 19:57:04.3	3.530	0.160	0.170	0.260
2020/01/31 19:57:04.4	3.520	0.180	0.160	0.280
2020/01/31 19:57:04.5	3.510	0.210	0.150	0.290
2020/01/31 19:57:04.6	3.490	0.230	0.140	0.310
2020/01/31 19:57:04.7	3.480	0.250	0.130	0.320
2020/01/31 19:57:04.8	3.460	0.270	0.120	0.340
2020/01/31 19:57:04.9	3.430	0.280	0.110	0.350
2020/01/31 19:57:05.0	3.410	0.300	0.100	0.370
2020/01/31 19:57:05.1	3.380	0.310	0.090	0.380
2020/01/31 19:57:05.2	3.360	0.320	0.080	0.390
2020/01/31 19:57:05.3	3.330	0.330	0.070	0.400
2020/01/31 19:57:05.4	3.300	0.330	0.060	0.410
2020/01/31 19:57:05.5	3.280	0.330	0.040	0.410
2020/01/31 19:57:05.6	3.250	0.340	0.030	0.420
2020/01/31 19:57:05.7	3.220	0.330	0.010	0.420
2020/01/31 19:57:05.8	3.190	0.330	-0.010	0.410
2020/01/31 19:57:05.9	3.160	0.330	-0.030	0.410
2020/01/31 19:57:06.0	3.130	0.320	-0.050	0.390
2020/01/31 19:57:06.1	3.100	0.310	-0.080	0.380
2020/01/31 19:57:06.2	3.070	0.310	-0.110	0.360
2020/01/31 19:57:06.3	3.040	0.300	-0.150	0.340
2020/01/31 19:57:06.4	3.010	0.290	-0.180	0.310
2020/01/31 19:57:06.5	2.990	0.280	-0.220	0.280
2020/01/31 19:57:06.6	2.960	0.260	-0.260	0.250
2020/01/31 19:57:06.7	2.930	0.250	-0.310	0.210
2020/01/31 19:57:06.8	2.910	0.240	-0.350	0.170
2020/01/31 19:57:06.9	2.890	0.230	-0.400	0.130
2020/01/31 19:57:07.0	2.870	0.210	-0.450	0.080
2020/01/31 19:57:07.1	2.850	0.200	-0.490	0.040
2020/01/31 19:57:07.2	2.830	0.180	-0.540	-0.010
2020/01/31 19:57:07.3	2.810	0.170	-0.590	-0.060
2020/01/31 19:57:07.4	2.790	0.150	-0.640	-0.110
2020/01/31 19:57:07.5	2.780	0.140	-0.680	-0.160
2020/01/31 19:57:07.6	2.770	0.120	-0.720	-0.210
2020/01/31 19:57:07.7	2.760	0.110	-0.760	-0.260
2020/01/31 19:57:07.8	2.750	0.090	-0.790	-0.320
2020/01/31 19:57:07.9	2.750	0.070	-0.830	-0.370
2020/01/31 19:57:08.0	2.740	0.060	-0.860	-0.430
2020/01/31 19:57:08.1	2.740	0.040	-0.880	-0.480
2020/01/31 19:57:08.2	2.750	0.020	-0.900	-0.540
2020/01/31 19:57:08.3	2.750	-0.010	-0.910	-0.590
2020/01/31 19:57:08.4	2.760	-0.030	-0.920	-0.640
2020/01/31 19:57:08.5	2.770	-0.050	-0.930	-0.700
2020/01/31 19:57:08.6	2.780	-0.080	-0.930	-0.750
2020/01/31 19:57:08.7	2.800	-0.100	-0.920	-0.810
2020/01/31 19:57:08.8	2.820	-0.130	-0.920	-0.860
2020/01/31 19:57:08.9	2.850	-0.160	-0.910	-0.920
2020/01/31 19:57:09.0	2.880	-0.190	-0.890	-0.970
2020/01/31 19:57:09.1	2.910	-0.220	-0.880	-1.020
2020/01/31 19:57:09.2	2.940	-0.250	-0.860	-1.070
2020/01/31 19:57:09.3	2.970	-0.290	-0.840	-1.120
2020/01/31 19:57:09.4	3.000	-0.320	-0.810	-1.160
2020/01/31 19:57:09.5	3.040	-0.350	-0.790	-1.210
2020/01/31 19:57:09.6	3.080	-0.380	-0.760	-1.250
2020/01/31 19:57:09.7	3.130	-0.420	-0.740	-1.290
2020/01/31 19:57:09.8	3.170	-0.450	-0.710	-1.330
2020/01/31 19:57:09.9	3.220	-0.480	-0.690	-1.360
2020/01/31 19:57:10.0	3.270	-0.500	-0.660	-1.390
2020/01/31 19:57:10.1	3.320	-0.530	-0.630	-1.420
2020/01/31 19:57:10.2	3.380	-0.550	-0.610	-1.440
2020/01/31 19:57:10.3	3.430	-0.580	-0.580	-1.460
2020/01/31 19:57:10.4	3.490	-0.590	-0.560	-1.480
2020/01/31 19:57:10.5	3.540	-0.610	-0.530	-1.490
2020/01/31 19:57:10.6	3.600	-0.620	-0.510	-1.500
2020/01/31 19:57:10.7	3.650	-0.630	-0.490	-1.500
2020/01/31 19:57:10.8	3.700	-0.640	-0.460	-1.500
2020/01/31 19:57:10.9	3.750	-0.640	-0.440	-1.490
2020/01/31 19:57:11.0	3.800	-0.640	-0.420	-1.480
2020/01/31 19:57:11.1	3.850	-0.630	-0.400	-1.460
2020/01/31 19:57:11.2	3.900	-0.620	-0.380	-1.430
2020/01/31 19:57:11.3	3.940	-0.610	-0.350	-1.410
2020/01/31 19:57:11.4	3.980	-0.590	-0.330	-1.370
2020/01/31 19:57:11.5	4.020	-0.570	-0.310	-1.330
2020/01/31 19:57:11.6	4.050	-0.540	-0.290	-1.290
2020/01/31 19:57:11.7	4.080	-0.510	-0.260	-1.240
2020/01/31 19:57:11.8	4.110	-0.480	-0.240	-1.190
2020/01/31 19:57:11.9	4.150	-0.440	-0.210	-1.130
2020/01/31 19:57:12.0	4.170	-0.400	-0.190	-1.070
2020/01/31 19:57:12.1	4.180	-0.360	-0.160	-1.000
2020/01/31 19:57:12.2	4.190	-0.310	-0.130	-0.930
2020/01/31 19:57:12.3	4.200	-0.270	-0.100	-0.860
2020/01/31 19:57:12.4	4.200	-0.220	-0.080	-0.780
2020/01/31 19:57:12.5	4.200	-0.170	-0.050	-0.700
2020/01/31 19:57:12.6	4.190	-0.130	-0.020	-0.620
2020/01/31 19:57:12.7	4.180	-0.080	0.010	-0.540
2020/01/31 19:57:12.8	4.160	-0.030	0.040	-0.450
2020/01/31 19:57:12.9	4.130	0.010	0.060	-0.360
2020/01/31 19:57:13.0	4.100	0.060	0.090	-0.280
2020/01/31 19:57:13.1	4.070	0.100	0.110	-0.190
2020/01/31 19:57:13.2	4.040	0.140	0.140	-0.110
2020/01/31 19:57:13.3	4.010	0.180	0.160	-0.020
2020/01/31 19:57:13.4	3.970	0.210	0.180	0.050
2020/01/31 19:57:13.5	3.930	0.250	0.200	0.130
2020/01/31 19:57:13.6	3.890	0.270	0.220	0.200
2020/01/31 19:57:13.7	3.850	0.300	0.230	0.270
2020/01/31 19:57:13.8	3.800	0.320	0.250	0.330
2020/01/31 19:57:13.9	3.750	0.340	0.260	0.400
2020/01/31 19:57:14.0	3.700	0.350	0.270	0.450
2020/01/31 19:57:14.1	3.660	0.360	0.280	0.500
2020/01/31 19:57:14.2	3.610	0.370	0.280	0.540
2020/01/31 19:57:14.3	3.560	0.370	0.290	0.580
2020/01/31 19:57:14.4	3.520	0.370	0.290	0.610
2020/01/31 19:57:14.5	3.480	0.370	0.290	0.630
2020/01/31 19:57:14.6	3.430	0.370	0.280	0.650
2020/01/31 19:57:14.7	3.390	0.360	0.280	0.670
2020/01/31 19:57:14.8	3.350	0.350	0.270	0.670
2020/01/31 19:57:14.9	3.330	0.340	0.260	0.670
2020/01/31 19:57:15.0	3.290	0.320	0.250	0.670
2020/01/31 19:57:15.1	3.250	0.310	0.230	0.660
2020/01/31 19:57:15.2	3.220	0.290	0.220	0.650
2020/01/31 19:57:15.3	3.190	0.280	0.200	0.640
2020/01/31 19:57:15.4	3.150	0.260	0.180	0.620
2020/01/31 19:57:15.5	3.120	0.250	0.160	0.600
2020/01/31 19:57:15.6	3.090	0.230	0.140	0.570
2020/01/31 19:57:15.7	3.060	0.220	0.110	0.550
2020/01/31 19:57:15.8	3.030	0.210	0.090	0.520
2020/01/31 19:57:15.9	3.010	0.200	0.060	0.490
2020/01/31 19:57:16.0	2.980	0.190	0.030	0.450
2020/01/31 19:57:16.1	2.960	0.180	0.010	0.420
2020/01/31 19:57:16.2	2.930	0.180	-0.020	0.380
2020/01/31 19:57:16.3	2.910	0.180	-0.060	0.340
2020/01/31 19:57:16.4	2.890	0.180	-0.090	0.310
2020/01/31 19:57:16.5	2.870	0.180	-0.120	0.270
2020/01/31 19:57:16.6	2.850	0.180	-0.160	0.230
2020/01/31 19:57:16.7	2.830	0.190	-0.190	0.190
2020/01/31 19:57:16.8	2.810	0.200	-0.230	0.160
2020/01/31 19:57:16.9	2.790	0.220	-0.260	0.110
2020/01/31 19:57:17.0	2.770	0.230	-0.300	0.080
2020/01/31 19:57:17.1	2.760	0.250	-0.340	0.040
2020/01/31 19:57:17.2	2.750	0.270	-0.380	0.000
2020/01/31 19:57:17.3	2.750	0.290	-0.420	-0.030
2020/01/31 19:57:17.4	2.740	0.310	-0.460	-0.070
2020/01/31 19:57:17.5	2.740	0.330	-0.500	-0.100
2020/01/31 19:57:17.6	2.730	0.350	-0.540	-0.140
2020/01/31 19:57:17.7	2.730	0.370	-0.580	-0.170
2020/01/31 19:57:17.8	2.740	0.390	-0.620	-0.210
2020/01/31 19:57:17.9	2.760	0.420	-0.660	-0.240
2020/01/31 19:57:18.0	2.760	0.430	-0.700	-0.270
2020/01/31 19:57:18.1	2.770	0.450	-0.740	-0.300
2020/01/31 19:57:18.2	2.780	0.470	-0.780	-0.330
2020/01/31 19:57:18.3	2.790	0.480	-0.810	-0.360
2020/01/31 19:57:18.4	2.800	0.490	-0.840	-0.400
2020/01/31 19:57:18.5	2.810	0.500	-0.870	-0.430
2020/01/31 19:57:18.6	2.830	0.510	-0.900	-0.460
2020/01/31 19:57:18.7	2.840	0.510	-0.930	-0.490
2020/01/31 19:57:18.8	2.860	0.510	-0.950	-0.520
2020/01/31 19:57:18.9	2.870	0.500	-0.970	-0.550
2020/01/31 19:57:19.0	2.890	0.500	-0.990	-0.580
2020/01/31 19:57:19.1	2.910	0.480	-1.000	-0.610
2020/01/31 19:57:19.2	2.930	0.470	-1.010	-0.640
2020/01/31 19:57:19.3	2.960	0.450	-1.020	-0.670
2020/01/31 19:57:19.4	2.980	0.420	-1.030	-0.700
2020/01/31 19:57:19.5	3.010	0.400	-1.030	-0.730
2020/01/31 19:57:19.6	3.050	0.370	-1.040	-0.760
2020/01/31 19:57:19.7	3.080	0.340	-1.040	-0.790
2020/01/31 19:57:19.8	3.120	0.300	-1.030	-0.820
2020/01/31 19:57:19.9	3.160	0.260	-1.030	-0.850
2020/01/31 19:57:20.0	3.200	0.220	-1.020	-0.880
2020/01/31 19:57:20.1	3.250	0.180	-1.010	-0.920
2020/01/31 19:57:20.2	3.300	0.140	-0.990	-0.950
2020/01/31 19:57:20.3	3.350	0.090	-0.980	-0.980
2020/01/31 19:57:20.4	3.400	0.050	-0.950	-1.020
2020/01/31 19:57:20.5	3.460	0.000	-0.930	-1.050
2020/01/31 19:57:20.6	3.520	-0.040	-0.910	-1.080
2020/01/31 19:57:20.7	3.580	-0.090	-0.880	-1.110
2020/01/31 19:57:20.8	3.640	-0.130	-0.850	-1.140
2020/01/31 19:57:20.9	3.700	-0.180	-0.810	-1.170
2020/01/31 19:57:21.0	3.760	-0.220	-0.780	-1.200
2020/01/31 19:57:21.1	3.820	-0.260	-0.740	-1.220
2020/01/31 19:57:21.2	3.870	-0.310	-0.690	-1.240
2020/01/31 19:57:21.3	3.930	-0.350	-0.650	-1.250
2020/01/31 19:57:21.4	3.980	-0.380	-0.600	-1.260
2020/01/31 19:57:21.5	4.040	-0.420	-0.540	-1.270
2020/01/31 19:57:21.6	4.090	-0.450	-0.480	-1.270
2020/01/31 19:57:21.7	4.130	-0.490	-0.420	-1.260
2020/01/31 19:57:21.8	4.170	-0.520	-0.360	-1.250
2020/01/31 19:57:21.9	4.210	-0.550	-0.300	-1.230
2020/01/31 19:57:22.0	4.240	-0.570	-0.230	-1.210
2020/01/31 19:57:22.1	4.270	-0.600	-0.150	-1.180
2020/01/31 19:57:22.2	4.290	-0.620	-0.080	-1.140
2020/01/31 19:57:22.3	4.310	-0.640	0.000	-1.100
2020/01/31 19:57:22.4	4.320	-0.660	0.080	-1.050
2020/01/31 19:57:22.5	4.320	-0.680	0.160	-1.000
2020/01/31 19:57:22.6	4.320	-0.690	0.240	-0.940
2020/01/31 19:57:22.7	4.320	-0.710	0.320	-0.880
2020/01/31 19:57:22.8	4.310	-0.720	0.410	-0.820
2020/01/31 19:57:22.9	4.300	-0.730	0.490	-0.740
2020/01/31 19:57:23.0	4.280	-0.750	0.560	-0.670
2020/01/31 19:57:23.1	4.250	-0.760	0.640	-0.590
2020/01/31 19:57:23.2	4.220	-0.760	0.720	-0.510
2020/01/31 19:57:23.3	4.190	-0.770	0.790	-0.430
2020/01/31 19:57:23.4	4.150	-0.780	0.860	-0.350
2020/01/31 19:57:23.5	4.110	-0.780	0.920	-0.270
2020/01/31 19:57:23.6	4.070	-0.790	0.980	-0.180
2020/01/31 19:57:23.7	4.020	-0.790	1.030	-0.100
2020/01/31 19:57:23.8	3.970	-0.790	1.080	-0.020
2020/01/31 19:57:23.9	3.910	-0.790	1.120	0.070
2020/01/31 19:57:24.0	3.860	-0.780	1.160	0.140
2020/01/31 19:57:24.1	3.800	-0.780	1.180	0.220
2020/01/31 19:57:24.2	3.740	-0.770	1.210	0.290
2020/01/31 19:57:24.3	3.680	-0.760	1.220	0.360
2020/01/31 19:57:24.4	3.620	-0.750	1.230	0.430
2020/01/31 19:57:24.5	3.560	-0.740	1.230	0.490
2020/01/31 19:57:24.6	3.500	-0.720	1.220	0.550
2020/01/31 19:57:24.7	3.440	-0.700	1.200	0.610
2020/01/31 19:57:24.8	3.380	-0.680	1.170	0.660
2020/01/31 19:57:24.9	3.320	-0.650	1.140	0.700
2020/01/31 19:57:25.0	3.260	-0.620	1.100	0.750
2020/01/31 19:57:25.1	3.200	-0.590	1.050	0.790
2020/01/31 19:57:25.2	3.140	-0.550	1.000	0.830
2020/01/31 19:57:25.3	3.080	-0.510	0.940	0.860
2020/01/31 19:57:25.4	3.030	-0.470	0.870	0.890
2020/01/31 19:57:25.5	2.970	-0.420	0.800	0.920
2020/01/31 19:57:25.6	2.910	-0.370	0.720	0.950
2020/01/31 19:57:25.7	2.850	-0.310	0.630	0.970
2020/01/31 19:57:25.8	2.800	-0.250	0.550	0.990
2020/01/31 19:57:25.9	2.740	-0.190	0.460	1.000
2020/01/31 19:57:26.0	2.690	-0.130	0.360	1.010
2020/01/31 19:57:26.1	2.640	-0.070	0.260	1.020
2020/01/31 19:57:26.2	2.590	-0.000	0.160	1.020
2020/01/31 19:57:26.3	2.550	0.060	0.050	1.020
2020/01/31 19:57:26.4	2.500	0.130	-0.050	1.010
2020/01/31 19:57:26.5	2.460	0.200	-0.160	1.000
2020/01/31 19:57:26.6	2.420	0.270	-0.270	0.980
2020/01/31 19:57:26.7	2.380	0.330	-0.380	0.960
2020/01/31 19:57:26.8	2.350	0.400	-0.490	0.940
2020/01/31 19:57:26.9	2.320	0.460	-0.600	0.900
2020/01/31 19:57:27.0	2.290	0.530	-0.700	0.870
2020/01/31 19:57:27.1	2.260	0.590	-0.810	0.830
2020/01/31 19:57:27.2	2.240	0.640	-0.910	0.790
2020/01/31 19:57:27.3	2.220	0.700	-1.010	0.740
2020/01/31 19:57:27.4	2.200	0.740	-1.100	0.690
2020/01/31 19:57:27.5	2.190	0.790	-1.200	0.640
2020/01/31 19:57:27.6	2.180	0.830	-1.290	0.580
2020/01/31 19:57:27.7	2.170	0.870	-1.370	0.520
2020/01/31 19:57:27.8	2.170	0.900	-1.450	0.460
2020/01/31 19:57:27.9	2.170	0.930	-1.520	0.390
2020/01/31 19:57:28.0	2.170	0.950	-1.590	0.320
2020/01/31 19:57:28.1	2.180	0.970	-1.660	0.250
2020/01/31 19:57:28.2	2.200	0.980	-1.720	0.170
2020/01/31 19:57:28.3	2.220	0.990	-1.770	0.100
2020/01/31 19:57:28.4	2.240	0.990	-1.820	0.020
2020/01/31 19:57:28.5	2.270	0.990	-1.860	-0.060
2020/01/31 19:57:28.6	2.300	0.980	-1.900	-0.150
2020/01/31 19:57:28.7	2.340	0.970	-1.930	-0.230
2020/01/31 19:57:28.8	2.390	0.960	-1.950	-0.310
2020/01/31 19:57:28.9	2.450	0.940	-1.970	-0.400
2020/01/31 19:57:29.0	2.500	0.920	-1.980	-0.490
2020/01/31 19:57:29.1	2.560	0.900	-1.980	-0.570
2020/01/31 19:57:29.2	2.620	0.870	-1.980	-0.650
2020/01/31 19:57:29.3	2.680	0.840	-1.970	-0.730
2020/01/31 19:57:29.4	2.750	0.800	-1.950	-0.810
2020/01/31 19:57:29.5	2.810	0.770	-1.920	-0.890
2020/01/31 19:57:29.6	2.880	0.730	-1.890	-0.960
2020/01/31 19:57:29.7	2.950	0.690	-1.850	-1.030
2020/01/31 19:57:29.8	3.020	0.640	-1.790	-1.100
2020/01/31 19:57:29.9	3.100	0.600	-1.730	-1.170
2020/01/31 19:57:30.0	3.170	0.550	-1.670	-1.230
2020/01/31 19:57:30.1	3.240	0.500	-1.590	-1.280
2020/01/31 19:57:30.2	3.310	0.450	-1.510	-1.340
2020/01/31 19:57:30.3	3.380	0.400	-1.420	-1.380
2020/01/31 19:57:30.4	3.450	0.350	-1.320	-1.420
2020/01/31 19:57:30.5	3.510	0.300	-1.210	-1.460
2020/01/31 19:57:30.6	3.570	0.240	-1.100	-1.490
2020/01/31 19:57:30.7	3.630	0.190	-0.990	-1.510
2020/01/31 19:57:30.8	3.680	0.130	-0.860	-1.530
2020/01/31 19:57:30.9	3.730	0.080	-0.740	-1.550
2020/01/31 19:57:31.0	3.780	0.030	-0.610	-1.550
2020/01/31 19:57:31.1	3.820	-0.030	-0.480	-1.550
2020/01/31 19:57:31.2	3.850	-0.080	-0.340	-1.540
2020/01/31 19:57:31.3	3.890	-0.130	-0.210	-1.520
2020/01/31 19:57:31.4	3.910	-0.180	-0.070	-1.500
2020/01/31 19:57:31.5	3.940	-0.230	0.060	-1.470
2020/01/31 19:57:31.6	3.960	-0.280	0.200	-1.430
2020/01/31 19:57:31.7	3.970	-0.330	0.330	-1.390
2020/01/31 19:57:31.8	3.980	-0.370	0.450	-1.340
2020/01/31 19:57:31.9	3.970	-0.420	0.580	-1.280
2020/01/31 19:57:32.0	3.970	-0.460	0.690	-1.220
2020/01/31 19:57:32.1	3.970	-0.500	0.810	-1.150
2020/01/31 19:57:32.2	3.960	-0.540	0.910	-1.080
2020/01/31 19:57:32.3	3.950	-0.570	1.010	-1.010
2020/01/31 19:57:32.4	3.930	-0.610	1.100	-0.930
2020/01/31 19:57:32.5	3.910	-0.640	1.170	-0.850
2020/01/31 19:57:32.6	3.890	-0.670	1.240	-0.770
2020/01/31 19:57:32.7	3.870	-0.690	1.300	-0.690
2020/01/31 19:57:32.8	3.840	-0.710	1.350	-0.610
2020/01/31 19:57:32.9	3.810	-0.730	1.390	-0.530
2020/01/31 19:57:33.0	3.780	-0.750	1.420	-0.440
2020/01/31 19:57:33.1	3.750	-0.760	1.440	-0.360
2020/01/31 19:57:33.2	3.710	-0.770	1.450	-0.290
2020/01/31 19:57:33.3	3.680	-0.770	1.440	-0.210
2020/01/31 19:57:33.4	3.640	-0.770	1.430	-0.140
2020/01/31 19:57:33.5	3.610	-0.770	1.400	-0.070
2020/01/31 19:57:33.6	3.570	-0.760	1.370	-0.000
2020/01/31 19:57:33.7	3.540	-0.740	1.320	0.060
2020/01/31 19:57:33.8	3.500	-0.730	1.270	0.120
2020/01/31 19:57:33.9	3.470	-0.710	1.210	0.170
2020/01/31 19:57:34.0	3.440	-0.680	1.140	0.220
2020/01/31 19:57:34.1	3.400	-0.650	1.060	0.270
2020/01/31 19:57:34.2	3.370	-0.620	0.980	0.320
2020/01/31 19:57:34.3	3.330	-0.580	0.890	0.360
2020/01/31 19:57:34.4	3.300	-0.530	0.800	0.400
2020/01/31 19:57:34.5	3.260	-0.490	0.700	0.440
2020/01/31 19:57:34.6	3.230	-0.440	0.600	0.470
2020/01/31 19:57:34.7	3.200	-0.380	0.500	0.510
2020/01/31 19:57:34.8	3.160	-0.330	0.400	0.550
2020/01/31 19:57:34.9	3.130	-0.270	0.290	0.580
2020/01/31 19:57:35.0	3.090	-0.210	0.190	0.620
2020/01/31 19:57:35.1	3.060	-0.150	0.090	0.650
2020/01/31 19:57:35.2	3.020	-0.090	0.000	0.690
2020/01/31 19:57:35.3	2.980	-0.020	-0.090	0.730
2020/01/31 19:57:35.4	2.950	0.040	-0.180	0.760
2020/01/31 19:57:35.5	2.910	0.100	-0.260	0.800
2020/01/31 19:57:35.6	2.870	0.160	-0.340	0.830
2020/01/31 19:57:35.7	2.830	0.220	-0.410	0.860
2020/01/31 19:57:35.8	2.800	0.280	-0.480	0.890
2020/01/31 19:57:35.9	2.770	0.330	-0.530	0.910
2020/01/31 19:57:36.0	2.740	0.380	-0.590	0.930
2020/01/31 19:57:36.1	2.700	0.430	-0.640	0.950
2020/01/31 19:57:36.2	2.670	0.470	-0.680	0.960
2020/01/31 19:57:36.3	2.640	0.510	-0.720	0.970
2020/01/31 19:57:36.4	2.610	0.550	-0.750	0.970
2020/01/31 19:57:36.5	2.580	0.580	-0.780	0.960
2020/01/31 19:57:36.6	2.560	0.610	-0.800	0.950
2020/01/31 19:57:36.7	2.530	0.630	-0.820	0.940
2020/01/31 19:57:36.8	2.510	0.650	-0.830	0.920
2020/01/31 19:57:36.9	2.490	0.660	-0.840	0.900
2020/01/31 19:57:37.0	2.480	0.670	-0.850	0.870
2020/01/31 19:57:37.1	2.460	0.670	-0.850	0.830
2020/01/31 19:57:37.2	2.450	0.670	-0.840	0.790
2020/01/31 19:57:37.3	2.450	0.660	-0.840	0.750
2020/01/31 19:57:37.4	2.440	0.650	-0.830	0.710
2020/01/31 19:57:37.5	2.440	0.630	-0.820	0.660
2020/01/31 19:57:37.6	2.440	0.610	-0.800	0.610
2020/01/31 19:57:37.7	2.440	0.590	-0.790	0.550
2020/01/31 19:57:37.8	2.450	0.560	-0.780	0.500
2020/01/31 19:57:37.9	2.470	0.540	-0.760	0.440
2020/01/31 19:57:38.0	2.480	0.500	-0.750	0.380
2020/01/31 19:57:38.1	2.490	0.470	-0.730	0.320
2020/01/31 19:57:38.2	2.510	0.430	-0.720	0.260
2020/01/31 19:57:38.3	2.530	0.390	-0.700	0.200
2020/01/31 19:57:38.4	2.560	0.350	-0.680	0.140
2020/01/31 19:57:38.5	2.580	0.300	-0.670	0.080
2020/01/31 19:57:38.6	2.610	0.260	-0.650	0.020
2020/01/31 19:57:38.7	2.640	0.210	-0.640	-0.050
2020/01/31 19:57:38.8	2.670	0.170	-0.620	-0.110
2020/01/31 19:57:38.9	2.700	0.120	-0.610	-0.180
2020/01/31 19:57:39.0	2.730	0.070	-0.590	-0.240
2020/01/31 19:57:39.1	2.760	0.020	-0.580	-0.310
2020/01/31 19:57:39.2	2.800	-0.030	-0.570	-0.370
2020/01/31 19:57:39.3	2.830	-0.080	-0.560	-0.440
2020/01/31 19:57:39.4	2.870	-0.130	-0.550	-0.510
2020/01/31 19:57:39.5	2.910	-0.170	-0.540	-0.580
2020/01/31 19:57:39.6	2.950	-0.220	-0.530	-0.650
2020/01/31 19:57:39.7	2.990	-0.260	-0.520	-0.720
2020/01/31 19:57:39.8	3.030	-0.310	-0.520	-0.780
2020/01/31 19:57:39.9	3.070	-0.350	-0.510	-0.860
2020/01/31 19:57:40.0	3.110	-0.380	-0.510	-0.920
2020/01/31 19:57:40.1	3.160	-0.420	-0.500	-0.990
2020/01/31 19:57:40.2	3.200	-0.450	-0.500	-1.050
2020/01/31 19:57:40.3	3.250	-0.480	-0.500	-1.110
2020/01/31 19:57:40.4	3.300	-0.510	-0.500	-1.170
2020/01/31 19:57:40.5	3.340	-0.530	-0.490	-1.220
2020/01/31 19:57:40.6	3.390	-0.550	-0.490	-1.270
2020/01/31 19:57:40.7	3.440	-0.570	-0.490	-1.320
2020/01/31 19:57:40.8	3.490	-0.580	-0.490	-1.360
2020/01/31 19:57:40.9	3.530	-0.590	-0.480	-1.400
2020/01/31 19:57:41.0	3.580	-0.590	-0.480	-1.430
2020/01/31 19:57:41.1	3.630	-0.590	-0.470	-1.450
2020/01/31 19:57:41.2	3.670	-0.590	-0.460	-1.470
2020/01/31 19:57:41.3	3.710	-0.580	-0.450	-1.490
2020/01/31 19:57:41.4	3.760	-0.580	-0.440	-1.490
2020/01/31 19:57:41.5	3.800	-0.560	-0.420	-1.490
2020/01/31 19:57:41.6	3.830	-0.550	-0.410	-1.490
2020/01/31 19:57:41.7	3.870	-0.530	-0.390	-1.480
2020/01/31 19:57:41.8	3.900	-0.510	-0.360	-1.460
2020/01/31 19:57:41.9	3.940	-0.490	-0.340	-1.440
2020/01/31 19:57:42.0	3.960	-0.470	-0.310	-1.410
2020/01/31 19:57:42.1	3.990	-0.440	-0.280	-1.380
2020/01/31 19:57:42.2	4.010	-0.410	-0.250	-1.350
2020/01/31 19:57:42.3	4.030	-0.380	-0.210	-1.300
2020/01/31 19:57:42.4	4.040	-0.350	-0.180	-1.260
2020/01/31 19:57:42.5	4.050	-0.320	-0.140	-1.210
2020/01/31 19:57:42.6	4.060	-0.290	-0.110	-1.160
2020/01/31 19:57:42.7	4.060	-0.260	-0.070	-1.100
2020/01/31 19:57:42.8	4.060	-0.220	-0.030	-1.040
2020/01/31 19:57:42.9	4.050	-0.190	0.000	-0.970
2020/01/31 19:57:43.0	4.040	-0.160	0.040	-0.900
2020/01/31 19:57:43.1	4.030	-0.130	0.080	-0.840
2020/01/31 19:57:43.2	4.010	-0.100	0.110	-0.770
2020/01/31 19:57:43.3	3.990	-0.060	0.140	-0.700
2020/01/31 19:57:43.4	3.970	-0.040	0.170	-0.620
2020/01/31 19:57:43.5	3.940	-0.010	0.200	-0.550
2020/01/31 19:57:43.6	3.910	0.020	0.230	-0.480
2020/01/31 19:57:43.7	3.870	0.050	0.250	-0.400
2020/01/31 19:57:43.8	3.830	0.070	0.270	-0.330
2020/01/31 19:57:43.9	3.810	0.100	0.280	-0.260
2020/01/31 19:57:44.0	3.760	0.120	0.300	-0.180
2020/01/31 19:57:44.1	3.720	0.140	0.310	-0.110
2020/01/31 19:57:44.2	3.680	0.160	0.320	-0.040
2020/01/31 19:57:44.3	3.630	0.180	0.320	0.030
2020/01/31 19:57:44.4	3.580	0.200	0.320	0.100
2020/01/31 19:57:44.5	3.540	0.220	0.310	0.170
2020/01/31 19:57:44.6	3.490	0.240	0.310	0.230
2020/01/31 19:57:44.7	3.440	0.250	0.290	0.290
2020/01/31 19:57:44.8	3.400	0.270	0.280	0.340
2020/01/31 19:57:44.9	3.350	0.280	0.260	0.400
2020/01/31 19:57:45.0	3.310	0.300	0.240	0.450
2020/01/31 19:57:45.1	3.260	0.310	0.210	0.490
2020/01/31 19:57:45.2	3.220	0.330	0.180	0.530
2020/01/31 19:57:45.3	3.180	0.340	0.140	0.560
2020/01/31 19:57:45.4	3.150	0.360	0.100	0.590
2020/01/31 19:57:45.5	3.110	0.370	0.060	0.610
2020/01/31 19:57:45.6	3.080	0.390	0.010	0.620
2020/01/31 19:57:45.7	3.050	0.400	-0.030	0.640
2020/01/31 19:57:45.8	3.030	0.410	-0.080	0.640
2020/01/31 19:57:45.9	3.000	0.430	-0.140	0.640
2020/01/31 19:57:46.0	2.980	0.440	-0.190	0.640
2020/01/31 19:57:46.1	2.960	0.460	-0.240	0.630
2020/01/31 19:57:46.2	2.950	0.470	-0.300	0.620
2020/01/31 19:57:46.3	2.940	0.480	-0.350	0.610
2020/01/31 19:57:46.4	2.930	0.500	-0.400	0.590
2020/01/31 19:57:46.5	2.920	0.510	-0.450	0.570
2020/01/31 19:57:46.6	2.920	0.520	-0.490	0.550
2020/01/31 19:57:46.7	2.920	0.530	-0.540	0.520
2020/01/31 19:57:46.8	2.920	0.540	-0.580	0.490
2020/01/31 19:57:46.9	2.930	0.540	-0.610	0.460
2020/01/31 19:57:47.0	2.930	0.550	-0.650	0.430
2020/01/31 19:57:47.1	2.940	0.550	-0.670	0.390
2020/01/31 19:57:47.2	2.950	0.550	-0.700	0.350
2020/01/31 19:57:47.3	2.970	0.550	-0.720	0.310
2020/01/31 19:57:47.4	2.980	0.550	-0.730	0.270
2020/01/31 19:57:47.5	3.000	0.540	-0.750	0.230
2020/01/31 19:57:47.6	3.030	0.530	-0.750	0.180
2020/01/31 19:57:47.7	3.050	0.520	-0.760	0.130
2020/01/31 19:57:47.8	3.080	0.510	-0.760	0.090
2020/01/31 19:57:47.9	3.110	0.500	-0.760	0.030
2020/01/31 19:57:48.0	3.150	0.480	-0.750	-0.020
2020/01/31 19:57:48.1	3.180	0.460	-0.740	-0.070
2020/01/31 19:57:48.2	3.220	0.440	-0.730	-0.120
2020/01/31 19:57:48.3	3.260	0.420	-0.720	-0.170
2020/01/31 19:57:48.4	3.300	0.390	-0.710	-0.220
2020/01/31 19:57:48.5	3.340	0.370	-0.690	-0.270
2020/01/31 19:57:48.6	3.390	0.340	-0.680	-0.320
2020/01/31 19:57:48.7	3.430	0.310	-0.660	-0.370
2020/01/31 19:57:48.8	3.480	0.280	-0.640	-0.420
2020/01/31 19:57:48.9	3.510	0.250	-0.620	-0.470
2020/01/31 19:57:49.0	3.560	0.210	-0.600	-0.510
2020/01/31 19:57:49.1	3.600	0.180	-0.580	-0.560
2020/01/31 19:57:49.2	3.650	0.140	-0.560	-0.600
2020/01/31 19:57:49.3	3.690	0.110	-0.540	-0.640
2020/01/31 19:57:49.4	3.730	0.070	-0.510	-0.680
2020/01/31 19:57:49.5	3.760	0.030	-0.490	-0.710
2020/01/31 19:57:49.6	3.800	-0.010	-0.470	-0.750
2020/01/31 19:57:49.7	3.830	-0.050	-0.450	-0.780
2020/01/31 19:57:49.8	3.860	-0.090	-0.430	-0.810
2020/01/31 19:57:49.9	3.890	-0.130	-0.410	-0.830
2020/01/31 19:57:50.0	3.910	-0.170	-0.390	-0.850
2020/01/31 19:57:50.1	3.930	-0.210	-0.370	-0.870
2020/01/31 19:57:50.2	3.940	-0.250	-0.350	-0.880
2020/01/31 19:57:50.3	3.960	-0.290	-0.330	-0.890
2020/01/31 19:57:50.4	3.970	-0.330	-0.310	-0.900
2020/01/31 19:57:50.5	3.970	-0.370	-0.290	-0.900
2020/01/31 19:57:50.6	3.970	-0.410	-0.270	-0.910
2020/01/31 19:57:50.7	3.970	-0.450	-0.250	-0.910
2020/01/31 19:57:50.8	3.970	-0.490	-0.230	-0.900
2020/01/31 19:57:50.9	3.970	-0.520	-0.210	-0.900
2020/01/31 19:57:51.0	3.960	-0.560	-0.190	-0.900
2020/01/31 19:57:51.1	3.950	-0.590	-0.170	-0.890
2020/01/31 19:57:51.2	3.940	-0.620	-0.150	-0.880
2020/01/31 19:57:51.3	3.920	-0.640	-0.140	-0.870
2020/01/31 19:57:51.4	3.910	-0.670	-0.120	-0.860
2020/01/31 19:57:51.5	3.890	-0.690	-0.100	-0.840
2020/01/31 19:57:51.6	3.870	-0.710	-0.080	-0.830
2020/01/31 19:57:51.7	3.850	-0.730	-0.060	-0.810
2020/01/31 19:57:51.8	3.830	-0.750	-0.040	-0.790
2020/01/31 19:57:51.9	3.810	-0.760	-0.030	-0.770
2020/01/31 19:57:52.0	3.780	-0.760	-0.010	-0.750
2020/01/31 19:57:52.1	3.760	-0.770	0.020	-0.720
2020/01/31 19:57:52.2	3.730	-0.770	0.040	-0.690
2020/01/31 19:57:52.3	3.700	-0.770	0.060	-0.660
2020/01/31 19:57:52.4	3.670	-0.760	0.090	-0.620
2020/01/31 19:57:52.5	3.640	-0.750	0.110	-0.580
2020/01/31 19:57:52.6	3.610	-0.730	0.140	-0.540
2020/01/31 19:57:52.7	3.570	-0.710	0.170	-0.500
2020/01/31 19:57:52.8	3.540	-0.690	0.200	-0.460
2020/01/31 19:57:52.9	3.500	-0.660	0.220	-0.410
2020/01/31 19:57:53.0	3.460	-0.630	0.250	-0.360
2020/01/31 19:57:53.1	3.430	-0.600	0.270	-0.310
2020/01/31 19:57:53.2	3.390	-0.560	0.300	-0.260
2020/01/31 19:57:53.3	3.360	-0.510	0.320	-0.210
2020/01/31 19:57:53.4	3.330	-0.470	0.340	-0.150
2020/01/31 19:57:53.5	3.300	-0.410	0.350	-0.100
2020/01/31 19:57:53.6	3.270	-0.360	0.360	-0.040
2020/01/31 19:57:53.7	3.240	-0.300	0.370	0.010
2020/01/31 19:57:53.8	3.220	-0.240	0.380	0.070
2020/01/31 19:57:53.9	3.200	-0.180	0.370	0.120
2020/01/31 19:57:54.0	3.180	-0.110	0.370	0.170
2020/01/31 19:57:54.1	3.170	-0.040	0.360	0.220
2020/01/31 19:57:54.2	3.160	0.030	0.340	0.270
2020/01/31 19:57:54.3	3.150	0.100	0.310	0.310
2020/01/31 19:57:54.4	3.150	0.170	0.290	0.350
2020/01/31 19:57:54.5	3.150	0.240	0.250	0.390
2020/01/31 19:57:54.6	3.150	0.310	0.220	0.430
2020/01/31 19:57:54.7	3.150	0.380	0.170	0.460
2020/01/31 19:57:54.8	3.160	0.450	0.130	0.480
2020/01/31 19:57:54.9	3.160	0.510	0.070	0.510
2020/01/31 19:57:55.0	3.180	0.580	0.020	0.530
2020/01/31 19:57:55.1	3.190	0.640	-0.030	0.540
2020/01/31 19:57:55.2	3.200	0.700	-0.090	0.560
2020/01/31 19:57:55.3	3.220	0.750	-0.140	0.570
2020/01/31 19:57:55.4	3.230	0.800	-0.200	0.580
2020/01/31 19:57:55.5	3.250	0.840	-0.250	0.580
2020/01/31 19:57:55.6	3.260	0.870	-0.300	0.590
2020/01/31 19:57:55.7	3.270	0.900	-0.350	0.590
2020/01/31 19:57:55.8	3.280	0.930	-0.400	0.590
2020/01/31 19:57:55.9	3.290	0.940	-0.450	0.590
2020/01/31 19:57:56.0	3.300	0.960	-0.490	0.590
2020/01/31 19:57:56.1	3.300	0.960	-0.530	0.580
2020/01/31 19:57:56.2	3.310	0.960	-0.560	0.570
2020/01/31 19:57:56.3	3.310	0.950	-0.590	0.570
2020/01/31 19:57:56.4	3.310	0.930	-0.610	0.550
2020/01/31 19:57:56.5	3.310	0.910	-0.630	0.540
2020/01/31 19:57:56.6	3.310	0.880	-0.650	0.520
2020/01/31 19:57:56.7	3.310	0.840	-0.660	0.510
2020/01/31 19:57:56.8	3.310	0.800	-0.670	0.490
2020/01/31 19:57:56.9	3.310	0.750	-0.680	0.460
2020/01/31 19:57:57.0	3.310	0.700	-0.680	0.440
2020/01/31 19:57:57.1	3.310	0.650	-0.680	0.410
2020/01/31 19:57:57.2	3.310	0.590	-0.670	0.390
2020/01/31 19:57:57.3	3.310	0.520	-0.670	0.350
2020/01/31 19:57:57.4	3.310	0.460	-0.660	0.320
2020/01/31 19:57:57.5	3.310	0.390	-0.650	0.290
2020/01/31 19:57:57.6	3.310	0.320	-0.640	0.250
2020/01/31 19:57:57.7	3.320	0.250	-0.630	0.210
2020/01/31 19:57:57.8	3.330	0.180	-0.610	0.160
2020/01/31 19:57:57.9	3.340	0.110	-0.600	0.120
2020/01/31 19:57:58.0	3.360	0.040	-0.590	0.070
2020/01/31 19:57:58.1	3.370	-0.030	-0.580	0.020
2020/01/31 19:57:58.2	3.380	-0.100	-0.570	-0.030
2020/01/31 19:57:58.3	3.390	-0.160	-0.550	-0.080
2020/01/31 19:57:58.4	3.410	-0.220	-0.540	-0.130
2020/01/31 19:57:58.5	3.420	-0.280	-0.530	-0.180
2020/01/31 19:57:58.6	3.430	-0.330	-0.520	-0.240
2020/01/31 19:57:58.7	3.450	-0.390	-0.500	-0.290
2020/01/31 19:57:58.8	3.460	-0.430	-0.490	-0.350
2020/01/31 19:57:58.9	3.460	-0.480	-0.470	-0.400
2020/01/31 19:57:59.0	3.470	-0.510	-0.460	-0.460
2020/01/31 19:57:59.1	3.480	-0.550	-0.440	-0.510
2020/01/31 19:57:59.2	3.500	-0.580	-0.430	-0.560
2020/01/31 19:57:59.3	3.510	-0.600	-0.410	-0.610
2020/01/31 19:57:59.4	3.510	-0.620	-0.390	-0.660
2020/01/31 19:57:59.5	3.520	-0.640	-0.370	-0.700
2020/01/31 19:57:59.6	3.530	-0.650	-0.360	-0.740
2020/01/31 19:57:59.7	3.530	-0.650	-0.340	-0.780
2020/01/31 19:57:59.8	3.540	-0.650	-0.320	-0.820
2020/01/31 19:57:59.9	3.540	-0.650	-0.310	-0.850
2020/01/31 19:58:00.0	3.540	-0.640	-0.290	-0.880
2020/01/31 19:58:00.1	3.550	-0.630	-0.280	-0.910
2020/01/31 19:58:00.2	3.550	-0.610	-0.260	-0.930
2020/01/31 19:58:00.3	3.550	-0.590	-0.250	-0.940
2020/01/31 19:58:00.4	3.550	-0.570	-0.240	-0.960
2020/01/31 19:58:00.5	3.550	-0.540	-0.240	-0.960
2020/01/31 19:58:00.6	3.560	-0.510	-0.230	-0.970
2020/01/31 19:58:00.7	3.560	-0.470	-0.230	-0.970
2020/01/31 19:58:00.8	3.560	-0.440	-0.230	-0.960
2020/01/31 19:58:00.9	3.560	-0.400	-0.230	-0.950
2020/01/31 19:58:01.0	3.570	-0.360	-0.240	-0.940
2020/01/31 19:58:01.1	3.570	-0.310	-0.250	-0.930
2020/01/31 19:58:01.2	3.570	-0.270	-0.260	-0.910
2020/01/31 19:58:01.3	3.580	-0.230	-0.270	-0.890
2020/01/31 19:58:01.4	3.580	-0.180	-0.290	-0.870
2020/01/31 19:58:01.5	3.590	-0.130	-0.300	-0.840
2020/01/31 19:58:01.6	3.590	-0.090	-0.320	-0.810
2020/01/31 19:58:01.7	3.590	-0.040	-0.340	-0.780
2020/01/31 19:58:01.8	3.590	-0.000	-0.360	-0.750
2020/01/31 19:58:01.9	3.580	0.040	-0.380	-0.710
2020/01/31 19:58:02.0	3.580	0.080	-0.400	-0.680
2020/01/31 19:58:02.1	3.570	0.120	-0.420	-0.640
2020/01/31 19:58:02.2	3.570	0.160	-0.440	-0.600
2020/01/31 19:58:02.3	3.560	0.200	-0.450	-0.550
2020/01/31 19:58:02.4	3.550	0.230	-0.460	-0.510
2020/01/31 19:58:02.5	3.540	0.270	-0.470	-0.470
2020/01/31 19:58:02.6	3.530	0.300	-0.480	-0.420
2020/01/31 19:58:02.7	3.520	0.320	-0.480	-0.370
2020/01/31 19:58:02.8	3.510	0.350	-0.480	-0.330
2020/01/31 19:58:02.9	3.500	0.370	-0.480	-0.280
2020/01/31 19:58:03.0	3.490	0.390	-0.470	-0.230
2020/01/31 19:58:03.1	3.480	0.410	-0.460	-0.190
2020/01/31 19:58:03.2	3.460	0.420	-0.450	-0.140
2020/01/31 19:58:03.3	3.450	0.430	-0.430	-0.090
2020/01/31 19:58:03.4	3.440	0.440	-0.400	-0.050
2020/01/31 19:58:03.5	3.430	0.440	-0.380	-0.010
2020/01/31 19:58:03.6	3.420	0.450	-0.350	0.030
2020/01/31 19:58:03.7	3.420	0.450	-0.310	0.070
2020/01/31 19:58:03.8	3.420	0.440	-0.280	0.100
2020/01/31 19:58:03.9	3.410	0.440	-0.240	0.140
2020/01/31 19:58:04.0	3.410	0.430	-0.210	0.160
2020/01/31 19:58:04.1	3.420	0.410	-0.170	0.190
2020/01/31 19:58:04.2	3.420	0.400	-0.130	0.210
2020/01/31 19:58:04.3	3.430	0.380	-0.090	0.230
2020/01/31 19:58:04.4	3.440	0.360	-0.050	0.240
2020/01/31 19:58:04.5	3.450	0.340	-0.010	0.260
2020/01/31 19:58:04.6	3.460	0.310	0.030	0.260
2020/01/31 19:58:04.7	3.470	0.280	0.070	0.270
2020/01/31 19:58:04.8	3.490	0.250	0.110	0.270
2020/01/31 19:58:04.9	3.510	0.220	0.140	0.270
2020/01/31 19:58:05.0	3.520	0.180	0.170	0.260
2020/01/31 19:58:05.1	3.540	0.150	0.200	0.250
2020/01/31 19:58:05.2	3.550	0.110	0.230	0.240
2020/01/31 19:58:05.3	3.560	0.070	0.260	0.230
2020/01/31 19:58:05.4	3.580	0.030	0.290	0.220
2020/01/31 19:58:05.5	3.590	-0.020	0.310	0.200
2020/01/31 19:58:05.6	3.590	-0.060	0.330	0.190
2020/01/31 19:58:05.7	3.600	-0.110	0.350	0.170
2020/01/31 19:58:05.8	3.600	-0.150	0.370	0.150
2020/01/31 19:58:05.9	3.600	-0.200	0.390	0.130
2020/01/31 19:58:06.0	3.600	-0.240	0.400	0.110
2020/01/31 19:58:06.1	3.600	-0.290	0.410	0.090
2020/01/31 19:58:06.2	3.600	-0.330	0.420	0.070
2020/01/31 19:58:06.3	3.590	-0.370	0.420	0.050
2020/01/31 19:58:06.4	3.580	-0.410	0.420	0.030
2020/01/31 19:58:06.5	3.570	-0.450	0.420	0.020
2020/01/31 19:58:06.6	3.560	-0.490	0.420	-0.000
2020/01/31 19:58:06.7	3.540	-0.520	0.410	-0.020
2020/01/31 19:58:06.8	3.530	-0.550	0.400	-0.030
2020/01/31 19:58:06.9	3.510	-0.580	0.380	-0.040
2020/01/31 19:58:07.0	3.490	-0.600	0.360	-0.050
2020/01/31 19:58:07.1	3.470	-0.620	0.340	-0.060
2020/01/31 19:58:07.2	3.450	-0.630	0.320	-0.070
2020/01/31 19:58:07.3	3.430	-0.640	0.300	-0.070
2020/01/31 19:58:07.4	3.400	-0.650	0.270	-0.070
2020/01/31 19:58:07.5	3.380	-0.650	0.240	-0.070
2020/01/31 19:58:07.6	3.350	-0.640	0.210	-0.060
2020/01/31 19:58:07.7	3.330	-0.630	0.170	-0.060
2020/01/31 19:58:07.8	3.310	-0.610	0.130	-0.050
2020/01/31 19:58:07.9	3.290	-0.590	0.100	-0.040
2020/01/31 19:58:08.0	3.270	-0.560	0.050	-0.040
2020/01/31 19:58:08.1	3.250	-0.530	0.000	-0.020
2020/01/31 19:58:08.2	3.230	-0.490	-0.050	-0.010
2020/01/31 19:58:08.3	3.210	-0.450	-0.100	-0.000
2020/01/31 19:58:08.4	3.190	-0.400	-0.150	0.010
2020/01/31 19:58:08.5	3.170	-0.350	-0.210	0.030
2020/01/31 19:58:08.6	3.160	-0.290	-0.270	0.050
2020/01/31 19:58:08.7	3.140	-0.230	-0.320	0.070
2020/01/31 19:58:08.8	3.120	-0.170	-0.380	0.090
2020/01/31 19:58:08.9	3.110	-0.110	-0.440	0.100
2020/01/31 19:58:09.0	3.090	-0.040	-0.500	0.130
2020/01/31 19:58:09.1	3.080	0.030	-0.550	0.150
2020/01/31 19:58:09.2	3.070	0.090	-0.610	0.160
2020/01/31 19:58:09.3	3.060	0.160	-0.660	0.180
2020/01/31 19:58:09.4	3.050	0.230	-0.710	0.200
2020/01/31 19:58:09.5	3.040	0.300	-0.760	0.210
2020/01/31 19:58:09.6	3.040	0.370	-0.800	0.230
2020/01/31 19:58:09.7	3.040	0.430	-0.840	0.240
2020/01/31 19:58:09.8	3.040	0.490	-0.880	0.250
2020/01/31 19:58:09.9	3.040	0.550	-0.920	0.250
2020/01/31 19:58:10.0	3.040	0.610	-0.950	0.260
2020/01/31 19:58:10.1	3.050	0.660	-0.970	0.260
2020/01/31 19:58:10.2	3.060	0.710	-1.000	0.260
2020/01/31 19:58:10.3	3.070	0.750	-1.010	0.260
2020/01/31 19:58:10.4	3.090	0.790	-1.030	0.250
2020/01/31 19:58:10.5	3.110	0.830	-1.040	0.250
2020/01/31 19:58:10.6	3.130	0.860	-1.040	0.240
2020/01/31 19:58:10.7	3.150	0.880	-1.040	0.230
2020/01/31 19:58:10.8	3.170	0.900	-1.040	0.210
2020/01/31 19:58:10.9	3.190	0.920	-1.030	0.200
2020/01/31 19:58:11.0	3.220	0.920	-1.020	0.180
2020/01/31 19:58:11.1	3.250	0.920	-1.000	0.170
2020/01/31 19:58:11.2	3.270	0.920	-0.980	0.150
2020/01/31 19:58:11.3	3.300	0.910	-0.960	0.130
2020/01/31 19:58:11.4	3.330	0.900	-0.930	0.110
2020/01/31 19:58:11.5	3.360	0.880	-0.900	0.090
2020/01/31 19:58:11.6	3.390	0.850	-0.870	0.060
2020/01/31 19:58:11.7	3.420	0.820	-0.840	0.040
2020/01/31 19:58:11.8	3.450	0.790	-0.800	0.010
2020/01/31 19:58:11.9	3.470	0.750	-0.770	-0.020
2020/01/31 19:58:12.0	3.500	0.700	-0.730	-0.040
2020/01/31 19:58:12.1	3.520	0.660	-0.690	-0.070
2020/01/31 19:58:12.2	3.550	0.610	-0.650	-0.100
2020/01/31 19:58:12.3	3.570	0.550	-0.620	-0.120
2020/01/31 19:58:12.4	3.600	0.500	-0.580	-0.150
2020/01/31 19:58:12.5	3.620	0.440	-0.540	-0.180
2020/01/31 19:58:12.6	3.640	0.380	-0.500	-0.210
2020/01/31 19:58:12.7	3.660	0.320	-0.470	-0.240
2020/01/31 19:58:12.8	3.670	0.260	-0.430	-0.270
2020/01/31 19:58:12.9	3.690	0.190	-0.400	-0.290
2020/01/31 19:58:13.0	3.710	0.130	-0.370	-0.320
2020/01/31 19:58:13.1	3.720	0.070	-0.340	-0.350
2020/01/31 19:58:13.2	3.730	0.010	-0.310	-0.380
2020/01/31 19:58:13.3	3.730	-0.060	-0.280	-0.410
2020/01/31 19:58:13.4	3.740	-0.120	-0.250	-0.440
2020/01/31 19:58:13.5	3.740	-0.180	-0.230	-0.470
2020/01/31 19:58:13.6	3.750	-0.230	-0.200	-0.500
2020/01/31 19:58:13.7	3.750	-0.290	-0.180	-0.530
2020/01/31 19:58:13.8	3.750	-0.340	-0.160	-0.560
2020/01/31 19:58:13.9	3.750	-0.400	-0.140	-0.590
2020/01/31 19:58:14.0	3.750	-0.440	-0.120	-0.620
2020/01/31 19:58:14.1	3.750	-0.490	-0.110	-0.650
2020/01/31 19:58:14.2	3.750	-0.530	-0.090	-0.680
2020/01/31 19:58:14.3	3.750	-0.580	-0.080	-0.710
2020/01/31 19:58:14.4	3.750	-0.610	-0.070	-0.730
2020/01/31 19:58:14.5	3.740	-0.650	-0.060	-0.760
2020/01/31 19:58:14.6	3.740	-0.680	-0.050	-0.780
2020/01/31 19:58:14.7	3.740	-0.710	-0.040	-0.810
2020/01/31 19:58:14.8	3.730	-0.730	-0.030	-0.830
2020/01/31 19:58:14.9	3.730	-0.760	-0.030	-0.850
2020/01/31 19:58:15.0	3.730	-0.770	-0.020	-0.860
2020/01/31 19:58:15.1	3.730	-0.790	-0.020	-0.880
2020/01/31 19:58:15.2	3.730	-0.800	-0.010	-0.890
2020/01/31 19:58:15.3	3.730	-0.810	-0.010	-0.900
2020/01/31 19:58:15.4	3.730	-0.820	-0.010	-0.910
2020/01/31 19:58:15.5	3.720	-0.820	-0.000	-0.910
2020/01/31 19:58:15.6	3.720	-0.820	-0.000	-0.910
2020/01/31 19:58:15.7	3.720	-0.810	0.000	-0.910
2020/01/31 19:58:15.8	3.720	-0.800	0.010	-0.900
2020/01/31 19:58:15.9	3.730	-0.790	0.010	-0.890
2020/01/31 19:58:16.0	3.730	-0.780	0.010	-0.870
2020/01/31 19:58:16.1	3.730	-0.760	0.020	-0.850
2020/01/31 19:58:16.2	3.730	-0.740	0.020	-0.830
2020/01/31 19:58:16.3	3.730	-0.710	0.030	-0.800
2020/01/31 19:58:16.4	3.720	-0.690	0.040	-0.770
2020/01/31 19:58:16.5	3.720	-0.660	0.050	-0.730
2020/01/31 19:58:16.6	3.720	-0.630	0.060	-0.680
2020/01/31 19:58:16.7	3.710	-0.600	0.080	-0.640
2020/01/31 19:58:16.8	3.700	-0.560	0.090	-0.590
2020/01/31 19:58:16.9	3.690	-0.530	0.110	-0.530
2020/01/31 19:58:17.0	3.690	-0.490	0.130	-0.470
2020/01/31 19:58:17.1	3.680	-0.450	0.150	-0.410
2020/01/31 19:58:17.2	3.660	-0.410	0.170	-0.350
2020/01/31 19:58:17.3	3.650	-0.370	0.190	-0.290
2020/01/31 19:58:17.4	3.630	-0.330	0.220	-0.220
2020/01/31 19:58:17.5	3.620	-0.290	0.240	-0.160
2020/01/31 19:58:17.6	3.600	-0.250	0.270	-0.090
2020/01/31 19:58:17.7	3.580	-0.210	0.300	-0.020
2020/01/31 19:58:17.8	3.560	-0.180	0.320	0.050
2020/01/31 19:58:17.9	3.530	-0.140	0.340	0.120
2020/01/31 19:58:18.0	3.510	-0.100	0.370	0.180
2020/01/31 19:58:18.1	3.490	-0.070	0.390	0.250
2020/01/31 19:58:18.2	3.460	-0.040	0.410	0.310
2020/01/31 19:58:18.3	3.440	-0.010	0.430	0.370
2020/01/31 19:58:18.4	3.420	0.020	0.440	0.430
2020/01/31 19:58:18.5	3.390	0.050	0.450	0.490
2020/01/31 19:58:18.6	3.370	0.080	0.460	0.540
2020/01/31 19:58:18.7	3.350	0.100	0.460	0.590
2020/01/31 19:58:18.8	3.330	0.130	0.460	0.640
2020/01/31 19:58:18.9	3.310	0.150	0.450	0.690
2020/01/31 19:58:19.0	3.290	0.170	0.440	0.730
2020/01/31 19:58:19.1	3.270	0.190	0.430	0.770
2020/01/31 19:58:19.2	3.250	0.200	0.410	0.800
2020/01/31 19:58:19.3	3.240	0.220	0.380	0.830
2020/01/31 19:58:19.4	3.220	0.230	0.350	0.860
2020/01/31 19:58:19.5	3.210	0.240	0.320	0.880
2020/01/31 19:58:19.6	3.200	0.250	0.280	0.890
2020/01/31 19:58:19.7	3.190	0.260	0.230	0.900
2020/01/31 19:58:19.8	3.180	0.270	0.190	0.910
2020/01/31 19:58:19.9	3.190	0.280	0.140	0.900
2020/01/31 19:58:20.0	3.180	0.290	0.080	0.890
2020/01/31 19:58:20.1	3.180	0.290	0.020	0.880
2020/01/31 19:58:20.2	3.180	0.300	-0.040	0.860
2020/01/31 19:58:20.3	3.180	0.310	-0.100	0.840
2020/01/31 19:58:20.4	3.190	0.320	-0.170	0.810
2020/01/31 19:58:20.5	3.190	0.320	-0.240	0.780
2020/01/31 19:58:20.6	3.200	0.330	-0.310	0.750
2020/01/31 19:58:20.7	3.210	0.340	-0.380	0.710
2020/01/31 19:58:20.8	3.220	0.350	-0.450	0.670
2020/01/31 19:58:20.9	3.210	0.360	-0.520	0.630
2020/01/31 19:58:21.0	3.230	0.370	-0.590	0.580
2020/01/31 19:58:21.1	3.240	0.380	-0.660	0.540
2020/01/31 19:58:21.2	3.260	0.390	-0.730	0.490
2020/01/31 19:58:21.3	3.280	0.410	-0.790	0.450
2020/01/31 19:58:21.4	3.290	0.420	-0.860	0.400
2020/01/31 19:58:21.5	3.320	0.440	-0.920	0.350
2020/01/31 19:58:21.6	3.340	0.460	-0.970	0.310
2020/01/31 19:58:21.7	3.360	0.470	-1.030	0.260
2020/01/31 19:58:21.8	3.380	0.490	-1.080	0.210
2020/01/31 19:58:21.9	3.410	0.510	-1.120	0.160
2020/01/31 19:58:22.0	3.430	0.520	-1.160	0.120
2020/01/31 19:58:22.1	3.460	0.540	-1.200	0.080
2020/01/31 19:58:22.2	3.490	0.560	-1.230	0.030
2020/01/31 19:58:22.3	3.510	0.570	-1.260	-0.010
2020/01/31 19:58:22.4	3.540	0.590	-1.280	-0.050
2020/01/31 19:58:22.5	3.560	0.600	-1.300	-0.090
2020/01/31 19:58:22.6	3.590	0.610	-1.310	-0.130
2020/01/31 19:58:22.7	3.610	0.620	-1.310	-0.170
2020/01/31 19:58:22.8	3.630	0.630	-1.310	-0.210
2020/01/31 19:58:22.9	3.660	0.630	-1.310	-0.240
2020/01/31 19:58:23.0	3.680	0.630	-1.300	-0.270
2020/01/31 19:58:23.1	3.700	0.630	-1.280	-0.300
2020/01/31 19:58:23.2	3.710	0.620	-1.260	-0.330
2020/01/31 19:58:23.3	3.730	0.620	-1.230	-0.360
2020/01/31 19:58:23.4	3.740	0.610	-1.200	-0.390
2020/01/31 19:58:23.5	3.750	0.590	-1.160	-0.420
2020/01/31 19:58:23.6	3.760	0.570	-1.120	-0.440
2020/01/31 19:58:23.7	3.770	0.550	-1.080	-0.460
2020/01/31 19:58:23.8	3.780	0.520	-1.030	-0.480
2020/01/31 19:58:23.9	3.790	0.490	-0.970	-0.510
2020/01/31 19:58:24.0	3.800	0.460	-0.920	-0.530
2020/01/31 19:58:24.1	3.810	0.420	-0.860	-0.550
2020/01/31 19:58:24.2	3.820	0.380	-0.800	-0.560
2020/01/31 19:58:24.3	3.830	0.340	-0.740	-0.580
2020/01/31 19:58:24.4	3.840	0.290	-0.680	-0.600
2020/01/31 19:58:24.5	3.850	0.240	-0.620	-0.620
2020/01/31 19:58:24.6	3.860	0.190	-0.550	-0.640
2020/01/31 19:58:24.7	3.880	0.140	-0.490	-0.660
2020/01/31 19:58:24.8	3.900	0.080	-0.430	-0.680
2020/01/31 19:58:24.9	3.920	0.020	-0.380	-0.700
2020/01/31 19:58:25.0	3.940	-0.040	-0.320	-0.720
2020/01/31 19:58:25.1	3.960	-0.100	-0.270	-0.750
2020/01/31 19:58:25.2	3.980	-0.160	-0.220	-0.770
2020/01/31 19:58:25.3	4.010	-0.220	-0.170	-0.800
2020/01/31 19:58:25.4	4.040	-0.280	-0.120	-0.830
2020/01/31 19:58:25.5	4.060	-0.340	-0.080	-0.850
2020/01/31 19:58:25.6	4.090	-0.400	-0.040	-0.880
2020/01/31 19:58:25.7	4.120	-0.460	-0.010	-0.910
2020/01/31 19:58:25.8	4.150	-0.510	0.030	-0.930
2020/01/31 19:58:25.9	4.180	-0.560	0.060	-0.950
2020/01/31 19:58:26.0	4.210	-0.610	0.090	-0.970
2020/01/31 19:58:26.1	4.240	-0.660	0.110	-0.990
2020/01/31 19:58:26.2	4.260	-0.710	0.140	-1.010
2020/01/31 19:58:26.3	4.280	-0.750	0.160	-1.020
2020/01/31 19:58:26.4	4.310	-0.790	0.180	-1.020
2020/01/31 19:58:26.5	4.320	-0.820	0.200	-1.030
2020/01/31 19:58:26.6	4.340	-0.850	0.210	-1.030
2020/01/31 19:58:26.7	4.350	-0.880	0.230	-1.020
2020/01/31 19:58:26.8	4.360	-0.900	0.250	-1.010
2020/01/31 19:58:26.9	4.380	-0.910	0.260	-1.000
2020/01/31 19:58:27.0	4.380	-0.920	0.280	-0.980
2020/01/31 19:58:27.1	4.380	-0.930	0.290	-0.960
2020/01/31 19:58:27.2	4.380	-0.930	0.310	-0.930
2020/01/31 19:58:27.3	4.370	-0.920	0.320	-0.890
2020/01/31 19:58:27.4	4.370	-0.910	0.340	-0.850
2020/01/31 19:58:27.5	4.350	-0.900	0.350	-0.800
2020/01/31 19:58:27.6	4.340	-0.880	0.370	-0.750
2020/01/31 19:58:27.7	4.320	-0.850	0.390	-0.700
2020/01/31 19:58:27.8	4.300	-0.820	0.400	-0.640
2020/01/31 19:58:27.9	4.280	-0.790	0.420	-0.580
2020/01/31 19:58:28.0	4.250	-0.750	0.430	-0.520
2020/01/31 19:58:28.1	4.230	-0.700	0.450	-0.450
2020/01/31 19:58:28.2	4.200	-0.650	0.460	-0.380
2020/01/31 19:58:28.3	4.170	-0.600	0.470	-0.310
2020/01/31 19:58:28.4	4.140	-0.550	0.470	-0.230
2020/01/31 19:58:28.5	4.110	-0.490	0.480	-0.160
2020/01/31 19:58:28.6	4.080	-0.430	0.480	-0.080
2020/01/31 19:58:28.7	4.050	-0.370	0.480	-0.000
2020/01/31 19:58:28.8	4.020	-0.300	0.470	0.070
2020/01/31 19:58:28.9	3.990	-0.240	0.460	0.150
2020/01/31 19:58:29.0	3.950	-0.170	0.450	0.220
2020/01/31 19:58:29.1	3.920	-0.110	0.430	0.290
2020/01/31 19:58:29.2	3.890	-0.040	0.410	0.360
2020/01/31 19:58:29.3	3.850	0.020	0.380	0.430
2020/01/31 19:58:29.4	3.820	0.080	0.350	0.490
2020/01/31 19:58:29.5	3.790	0.150	0.310	0.550
2020/01/31 19:58:29.6	3.760	0.210	0.280	0.600
2020/01/31 19:58:29.7	3.730	0.260	0.240	0.650
2020/01/31 19:58:29.8	3.700	0.320	0.190	0.690
2020/01/31 19:58:29.9	3.680	0.370	0.140	0.730
2020/01/31 19:58:30.0	3.650	0.420	0.090	0.770
2020/01/31 19:58:30.1	3.630	0.470	0.040	0.800
2020/01/31 19:58:30.2	3.610	0.510	-0.010	0.820
2020/01/31 19:58:30.3	3.590	0.550	-0.070	0.840
2020/01/31 19:58:30.4	3.570	0.580	-0.120	0.850
2020/01/31 19:58:30.5	3.560	0.610	-0.170	0.860
2020/01/31 19:58:30.6	3.550	0.640	-0.230	0.860
2020/01/31 19:58:30.7	3.530	0.660	-0.280	0.860
2020/01/31 19:58:30.8	3.530	0.670	-0.330	0.850
2020/01/31 19:58:30.9	3.510	0.690	-0.380	0.840
2020/01/31 19:58:31.0	3.510	0.690	-0.430	0.820
2020/01/31 19:58:31.1	3.510	0.700	-0.470	0.800
2020/01/31 19:58:31.2	3.510	0.700	-0.520	0.780
2020/01/31 19:58:31.3	3.510	0.690	-0.550	0.750
2020/01/31 19:58:31.4	3.510	0.680	-0.590	0.720
2020/01/31 19:58:31.5	3.510	0.670	-0.610	0.690
2020/01/31 19:58:31.6	3.510	0.650	-0.640	0.660
2020/01/31 19:58:31.7	3.520	0.630	-0.650	0.620
2020/01/31 19:58:31.8	3.520	0.600	-0.670	0.580
2020/01/31 19:58:31.9	3.520	0.570	-0.680	0.540
2020/01/31 19:58:32.0	3.520	0.540	-0.680	0.490
2020/01/31 19:58:32.1	3.520	0.500	-0.680	0.450
2020/01/31 19:58:32.2	3.530	0.470	-0.680	0.400
2020/01/31 19:58:32.3	3.540	0.430	-0.670	0.360
2020/01/31 19:58:32.4	3.540	0.390	-0.660	0.310
2020/01/31 19:58:32.5	3.550	0.340	-0.640	0.260
2020/01/31 19:58:32.6	3.560	0.300	-0.620	0.210
2020/01/31 19:58:32.7	3.570	0.250	-0.610	0.160
2020/01/31 19:58:32.8	3.580	0.210	-0.580	0.110
2020/01/31 19:58:32.9	3.590	0.160	-0.560	0.050
2020/01/31 19:58:33.0	3.600	0.110	-0.540	-0.010
2020/01/31 19:58:33.1	3.620	0.070	-0.520	-0.060
2020/01/31 19:58:33.2	3.630	0.020	-0.500	-0.120
2020/01/31 19:58:33.3	3.650	-0.020	-0.480	-0.180
2020/01/31 19:58:33.4	3.660	-0.060	-0.460	-0.230
2020/01/31 19:58:33.5	3.680	-0.110	-0.440	-0.290
2020/01/31 19:58:33.6	3.690	-0.150	-0.430	-0.350
2020/01/31 19:58:33.7	3.710	-0.190	-0.410	-0.410
2020/01/31 19:58:33.8	3.730	-0.220	-0.400	-0.470
2020/01/31 19:58:33.9	3.740	-0.260	-0.390	-0.530
2020/01/31 19:58:34.0	3.760	-0.290	-0.380	-0.580
2020/01/31 19:58:34.1	3.770	-0.320	-0.380	-0.640
2020/01/31 19:58:34.2	3.790	-0.350	-0.370	-0.690
2020/01/31 19:58:34.3	3.800	-0.380	-0.370	-0.750
2020/01/31 19:58:34.4	3.810	-0.400	-0.370	-0.800
2020/01/31 19:58:34.5	3.820	-0.420	-0.360	-0.850
2020/01/31 19:58:34.6	3.840	-0.440	-0.370	-0.900
2020/01/31 19:58:34.7	3.850	-0.460	-0.370	-0.950
2020/01/31 19:58:34.8	3.860	-0.470	-0.370	-0.990
2020/01/31 19:58:34.9	3.870	-0.480	-0.380	-1.040
2020/01/31 19:58:35.0	3.880	-0.490	-0.390	-1.080
2020/01/31 19:58:35.1	3.900	-0.500	-0.400	-1.120
2020/01/31 19:58:35.2	3.920	-0.500	-0.420	-1.160
2020/01/31 19:58:35.3	3.930	-0.500	-0.430	-1.200
2020/01/31 19:58:35.4	3.950	-0.500	-0.450	-1.240
2020/01/31 19:58:35.5	3.970	-0.490	-0.470	-1.270
2020/01/31 19:58:35.6	4.000	-0.480	-0.490	-1.300
2020/01/31 19:58:35.7	4.020	-0.470	-0.520	-1.330
2020/01/31 19:58:35.8	4.050	-0.450	-0.550	-1.360
2020/01/31 19:58:35.9	4.070	-0.430	-0.570	-1.380
2020/01/31 19:58:36.0	4.100	-0.410	-0.610	-1.400
2020/01/31 19:58:36.1	4.140	-0.390	-0.640	-1.420
2020/01/31 19:58:36.2	4.170	-0.360	-0.670	-1.430
2020/01/31 19:58:36.3	4.210	-0.330	-0.700	-1.440
2020/01/31 19:58:36.4	4.240	-0.290	-0.740	-1.440
2020/01/31 19:58:36.5	4.280	-0.260	-0.770	-1.440
2020/01/31 19:58:36.6	4.320	-0.220	-0.800	-1.440
2020/01/31 19:58:36.7	4.360	-0.180	-0.830	-1.430
2020/01/31 19:58:36.8	4.390	-0.140	-0.850	-1.420
2020/01/31 19:58:36.9	4.440	-0.100	-0.880	-1.400
2020/01/31 19:58:37.0	4.480	-0.050	-0.900	-1.390
2020/01/31 19:58:37.1	4.520	-0.010	-0.910	-1.360
2020/01/31 19:58:37.2	4.550	0.030	-0.920	-1.340
2020/01/31 19:58:37.3	4.580	0.070	-0.920	-1.310
2020/01/31 19:58:37.4	4.610	0.110	-0.920	-1.270
2020/01/31 19:58:37.5	4.640	0.150	-0.910	-1.240
2020/01/31 19:58:37.6	4.670	0.190	-0.900	-1.190
2020/01/31 19:58:37.7	4.690	0.230	-0.870	-1.140
2020/01/31 19:58:37.8	4.710	0.260	-0.840	-1.090
2020/01/31 19:58:37.9	4.740	0.290	-0.810	-1.030
2020/01/31 19:58:38.0	4.760	0.320	-0.770	-0.970
2020/01/31 19:58:38.1	4.760	0.350	-0.710	-0.890
2020/01/31 19:58:38.2	4.770	0.380	-0.650	-0.820
2020/01/31 19:58:38.3	4.760	0.400	-0.580	-0.730
2020/01/31 19:58:38.4	4.760	0.420	-0.510	-0.640
2020/01/31 19:58:38.5	4.750	0.430	-0.430	-0.550
2020/01/31 19:58:38.6	4.730	0.440	-0.340	-0.450
2020/01/31 19:58:38.7	4.710	0.450	-0.250	-0.340
2020/01/31 19:58:38.8	4.680	0.460	-0.150	-0.240
2020/01/31 19:58:38.9	4.660	0.460	-0.050	-0.120
2020/01/31 19:58:39.0	4.620	0.460	0.050	-0.000
2020/01/31 19:58:39.1	4.590	0.450	0.160	0.110
2020/01/31 19:58:39.2	4.550	0.440	0.260	0.220
2020/01/31 19:58:39.3	4.510	0.430	0.370	0.330
2020/01/31 19:58:39.4	4.460	0.410	0.470	0.440
2020/01/31 19:58:39.5	4.420	0.400	0.570	0.550
2020/01/31 19:58:39.6	4.370	0.380	0.670	0.650
2020/01/31 19:58:39.7	4.330	0.350	0.760	0.750
2020/01/31 19:58:39.8	4.280	0.330	0.850	0.830
2020/01/31 19:58:39.9	4.240	0.300	0.930	0.910
2020/01/31 19:58:40.0	4.200	0.270	1.000	0.980
2020/01/31 19:58:40.1	4.160	0.240	1.060	1.050
2020/01/31 19:58:40.2	4.110	0.210	1.110	1.100
2020/01/31 19:58:40.3	4.070	0.180	1.150	1.150
2020/01/31 19:58:40.4	4.030	0.150	1.180	1.190
2020/01/31 19:58:40.5	3.990	0.110	1.200	1.210
2020/01/31 19:58:40.6	3.950	0.080	1.200	1.230
2020/01/31 19:58:40.7	3.910	0.050	1.200	1.240
2020/01/31 19:58:40.8	3.870	0.010	1.190	1.250
2020/01/31 19:58:40.9	3.830	-0.020	1.160	1.240
2020/01/31 19:58:41.0	3.790	-0.050	1.130	1.230
2020/01/31 19:58:41.1	3.750	-0.080	1.080	1.210
2020/01/31 19:58:41.2	3.710	-0.110	1.030	1.180
2020/01/31 19:58:41.3	3.680	-0.140	0.960	1.150
2020/01/31 19:58:41.4	3.640	-0.170	0.890	1.110
2020/01/31 19:58:41.5	3.600	-0.200	0.810	1.060
2020/01/31 19:58:41.6	3.560	-0.220	0.730	1.010
2020/01/31 19:58:41.7	3.530	-0.240	0.630	0.960
2020/01/31 19:58:41.8	3.500	-0.260	0.530	0.890
2020/01/31 19:58:41.9	3.460	-0.280	0.430	0.820
2020/01/31 19:58:42.0	3.430	-0.300	0.320	0.750
2020/01/31 19:58:42.1	3.400	-0.310	0.210	0.670
2020/01/31 19:58:42.2	3.380	-0.320	0.090	0.590
2020/01/31 19:58:42.3	3.370	-0.330	-0.030	0.500
2020/01/31 19:58:42.4	3.350	-0.340	-0.150	0.410
2020/01/31 19:58:42.5	3.350	-0.340	-0.280	0.320
2020/01/31 19:58:42.6	3.340	-0.340	-0.400	0.220
2020/01/31 19:58:42.7	3.340	-0.340	-0.520	0.110
2020/01/31 19:58:42.8	3.350	-0.340	-0.640	0.010
2020/01/31 19:58:42.9	3.350	-0.330	-0.770	-0.110
2020/01/31 19:58:43.0	3.370	-0.320	-0.880	-0.220
2020/01/31 19:58:43.1	3.390	-0.300	-1.000	-0.330
2020/01/31 19:58:43.2	3.410	-0.290	-1.110	-0.440
2020/01/31 19:58:43.3	3.450	-0.270	-1.210	-0.550
2020/01/31 19:58:43.4	3.480	-0.250	-1.310	-0.660
2020/01/31 19:58:43.5	3.520	-0.230	-1.410	-0.770
2020/01/31 19:58:43.6	3.560	-0.200	-1.490	-0.870
2020/01/31 19:58:43.7	3.610	-0.170	-1.570	-0.970
2020/01/31 19:58:43.8	3.650	-0.150	-1.640	-1.070
2020/01/31 19:58:43.9	3.710	-0.120	-1.690	-1.170
2020/01/31 19:58:44.0	3.760	-0.090	-1.740	-1.250
2020/01/31 19:58:44.1	3.810	-0.060	-1.770	-1.330
2020/01/31 19:58:44.2	3.860	-0.030	-1.800	-1.400
2020/01/31 19:58:44.3	3.910	-0.010	-1.810	-1.460
2020/01/31 19:58:44.4	3.960	0.020	-1.810	-1.520
2020/01/31 19:58:44.5	4.010	0.040	-1.800	-1.570
2020/01/31 19:58:44.6	4.060	0.070	-1.780	-1.610
2020/01/31 19:58:44.7	4.100	0.090	-1.740	-1.640
2020/01/31 19:58:44.8	4.150	0.110	-1.700	-1.660
2020/01/31 19:58:44.9	4.190	0.130	-1.640	-1.680
2020/01/31 19:58:45.0	4.240	0.140	-1.580	-1.680
2020/01/31 19:58:45.1	4.270	0.150	-1.500	-1.690
2020/01/31 19:58:45.2	4.310	0.160	-1.420	-1.680
2020/01/31 19:58:45.3	4.350	0.160	-1.320	-1.670
2020/01/31 19:58:45.4	4.380	0.160	-1.220	-1.650
2020/01/31 19:58:45.5	4.410	0.160	-1.120	-1.630
2020/01/31 19:58:45.6	4.430	0.160	-1.010	-1.600
2020/01/31 19:58:45.7	4.460	0.150	-0.900	-1.560
2020/01/31 19:58:45.8	4.480	0.140	-0.780	-1.520
2020/01/31 19:58:45.9	4.490	0.130	-0.670	-1.480
2020/01/31 19:58:46.0	4.510	0.110	-0.550	-1.430
2020/01/31 19:58:46.1	4.520	0.090	-0.440	-1.370
2020/01/31 19:58:46.2	4.540	0.080	-0.330	-1.310
2020/01/31 19:58:46.3	4.550	0.060	-0.220	-1.250
2020/01/31 19:58:46.4	4.550	0.030	-0.110	-1.180
2020/01/31 19:58:46.5	4.560	0.010	-0.010	-1.110
2020/01/31 19:58:46.6	4.560	-0.010	0.080	-1.040
2020/01/31 19:58:46.7	4.560	-0.030	0.170	-0.960
2020/01/31 19:58:46.8	4.550	-0.060	0.250	-0.880
2020/01/31 19:58:46.9	4.540	-0.080	0.310	-0.800
2020/01/31 19:58:47.0	4.530	-0.100	0.380	-0.720
2020/01/31 19:58:47.1	4.520	-0.120	0.440	-0.640
2020/01/31 19:58:47.2	4.510	-0.140	0.490	-0.550
2020/01/31 19:58:47.3	4.490	-0.160	0.530	-0.470
2020/01/31 19:58:47.4	4.470	-0.170	0.560	-0.390
2020/01/31 19:58:47.5	4.450	-0.190	0.580	-0.310
2020/01/31 19:58:47.6	4.420	-0.200	0.600	-0.230
2020/01/31 19:58:47.7	4.400	-0.210	0.600	-0.150
2020/01/31 19:58:47.8	4.370	-0.220	0.600	-0.070
2020/01/31 19:58:47.9	4.340	-0.220	0.600	0.000
2020/01/31 19:58:48.0	4.310	-0.220	0.590	0.070
2020/01/31 19:58:48.1	4.280	-0.220	0.570	0.140
2020/01/31 19:58:48.2	4.250	-0.220	0.540	0.200
2020/01/31 19:58:48.3	4.220	-0.220	0.510	0.260
2020/01/31 19:58:48.4	4.190	-0.210	0.480	0.310
2020/01/31 19:58:48.5	4.160	-0.200	0.440	0.360
2020/01/31 19:58:48.6	4.120	-0.190	0.400	0.400
2020/01/31 19:58:48.7	4.090	-0.180	0.360	0.440
2020/01/31 19:58:48.8	4.050	-0.160	0.310	0.480
2020/01/31 19:58:48.9	4.020	-0.140	0.270	0.510
2020/01/31 19:58:49.0	3.980	-0.120	0.220	0.540
2020/01/31 19:58:49.1	3.940	-0.100	0.180	0.560
2020/01/31 19:58:49.2	3.910	-0.080	0.130	0.580
2020/01/31 19:58:49.3	3.880	-0.060	0.090	0.590
2020/01/31 19:58:49.4	3.840	-0.030	0.050	0.600
2020/01/31 19:58:49.5	3.810	-0.010	0.010	0.610
2020/01/31 19:58:49.6	3.780	0.020	-0.030	0.620
2020/01/31 19:58:49.7	3.750	0.040	-0.070	0.620
2020/01/31 19:58:49.8	3.720	0.070	-0.100	0.620
2020/01/31 19:58:49.9	3.700	0.090	-0.130	0.610
2020/01/31 19:58:50.0	3.680	0.120	-0.160	0.610
2020/01/31 19:58:50.1	3.660	0.140	-0.190	0.600
2020/01/31 19:58:50.2	3.640	0.170	-0.220	0.600
2020/01/31 19:58:50.3	3.630	0.190	-0.240	0.590
2020/01/31 19:58:50.4	3.620	0.210	-0.260	0.580
2020/01/31 19:58:50.5	3.610	0.230	-0.280	0.560
2020/01/31 19:58:50.6	3.600	0.260	-0.300	0.550
2020/01/31 19:58:50.7	3.600	0.280	-0.320	0.530
2020/01/31 19:58:50.8	3.600	0.300	-0.340	0.520
2020/01/31 19:58:50.9	3.600	0.310	-0.360	0.500
2020/01/31 19:58:51.0	3.600	0.330	-0.370	0.480
2020/01/31 19:58:51.1	3.610	0.340	-0.380	0.450
2020/01/31 19:58:51.2	3.620	0.360	-0.400	0.430
2020/01/31 19:58:51.3	3.630	0.370	-0.410	0.400
2020/01/31 19:58:51.4	3.640	0.380	-0.410	0.370
2020/01/31 19:58:51.5	3.650	0.390	-0.420	0.340
2020/01/31 19:58:51.6	3.670	0.390	-0.430	0.300
2020/01/31 19:58:51.7	3.690	0.400	-0.440	0.270
2020/01/31 19:58:51.8	3.700	0.400	-0.440	0.230
2020/01/31 19:58:51.9	3.720	0.400	-0.450	0.190
2020/01/31 19:58:52.0	3.740	0.400	-0.450	0.150
2020/01/31 19:58:52.1	3.750	0.390	-0.450	0.110
2020/01/31 19:58:52.2	3.770	0.390	-0.450	0.080
2020/01/31 19:58:52.3	3.780	0.380	-0.450	0.040
2020/01/31 19:58:52.4	3.790	0.370	-0.450	0.000
2020/01/31 19:58:52.5	3.800	0.360	-0.450	-0.030
2020/01/31 19:58:52.6	3.820	0.340	-0.440	-0.060
2020/01/31 19:58:52.7	3.830	0.330	-0.430	-0.100
2020/01/31 19:58:52.8	3.830	0.310	-0.420	-0.120
2020/01/31 19:58:52.9	3.840	0.290	-0.410	-0.160
2020/01/31 19:58:53.0	3.850	0.270	-0.390	-0.180
2020/01/31 19:58:53.1	3.860	0.250	-0.370	-0.210
2020/01/31 19:58:53.2	3.860	0.230	-0.350	-0.230
2020/01/31 19:58:53.3	3.860	0.200	-0.320	-0.250
2020/01/31 19:58:53.4	3.860	0.170	-0.300	-0.270
2020/01/31 19:58:53.5	3.860	0.140	-0.270	-0.280
2020/01/31 19:58:53.6	3.860	0.110	-0.240	-0.290
2020/01/31 19:58:53.7	3.860	0.080	-0.210	-0.300
2020/01/31 19:58:53.8	3.860	0.050	-0.180	-0.310
2020/01/31 19:58:53.9	3.860	0.020	-0.140	-0.320
2020/01/31 19:58:54.0	3.860	-0.020	-0.110	-0.320
2020/01/31 19:58:54.1	3.860	-0.050	-0.080	-0.330
2020/01/31 19:58:54.2	3.850	-0.080	-0.060	-0.330
2020/01/31 19:58:54.3	3.850	-0.120	-0.030	-0.330
2020/01/31 19:58:54.4	3.850	-0.150	-0.010	-0.330
2020/01/31 19:58:54.5	3.850	-0.190	0.010	-0.330
2020/01/31 19:58:54.6	3.850	-0.220	0.030	-0.330
2020/01/31 19:58:54.7	3.850	-0.260	0.040	-0.330
2020/01/31 19:58:54.8	3.860	-0.290	0.050	-0.340
2020/01/31 19:58:54.9	3.860	-0.320	0.050	-0.340
2020/01/31 19:58:55.0	3.870	-0.350	0.050	-0.340
2020/01/31 19:58:55.1	3.880	-0.380	0.050	-0.350
2020/01/31 19:58:55.2	3.880	-0.410	0.040	-0.350
2020/01/31 19:58:55.3	3.890	-0.440	0.030	-0.360
2020/01/31 19:58:55.4	3.900	-0.460	0.010	-0.360
2020/01/31 19:58:55.5	3.910	-0.480	-0.010	-0.370
2020/01/31 19:58:55.6	3.920	-0.500	-0.030	-0.380
2020/01/31 19:58:55.7	3.930	-0.520	-0.060	-0.380
2020/01/31 19:58:55.8	3.940	-0.540	-0.090	-0.390
2020/01/31 19:58:55.9	3.930	-0.550	-0.120	-0.400
2020/01/31 19:58:56.0	3.940	-0.560	-0.150	-0.410
2020/01/31 19:58:56.1	3.950	-0.570	-0.190	-0.420
2020/01/31 19:58:56.2	3.960	-0.580	-0.220	-0.430
2020/01/31 19:58:56.3	3.960	-0.580	-0.250	-0.430
2020/01/31 19:58:56.4	3.960	-0.580	-0.290	-0.430
2020/01/31 19:58:56.5	3.960	-0.580	-0.320	-0.430
2020/01/31 19:58:56.6	3.960	-0.570	-0.350	-0.430
2020/01/31 19:58:56.7	3.960	-0.560	-0.370	-0.420
2020/01/31 19:58:56.8	3.960	-0.550	-0.400	-0.410
2020/01/31 19:58:56.9	3.950	-0.530	-0.420	-0.400
2020/01/31 19:58:57.0	3.930	-0.520	-0.430	-0.380
2020/01/31 19:58:57.1	3.920	-0.500	-0.450	-0.360
2020/01/31 19:58:57.2	3.910	-0.470	-0.460	-0.330
2020/01/31 19:58:57.3	3.890	-0.450	-0.470	-0.310
2020/01/31 19:58:57.4	3.880	-0.420	-0.470	-0.270
2020/01/31 19:58:57.5	3.860	-0.390	-0.480	-0.240
2020/01/31 19:58:57.6	3.840	-0.360	-0.480	-0.200
2020/01/31 19:58:57.7	3.820	-0.320	-0.470	-0.170
2020/01/31 19:58:57.8	3.800	-0.290	-0.470	-0.130
2020/01/31 19:58:57.9	3.790	-0.250	-0.470	-0.090
2020/01/31 19:58:58.0	3.770	-0.210	-0.460	-0.050
2020/01/31 19:58:58.1	3.750	-0.170	-0.460	-0.020
2020/01/31 19:58:58.2	3.740	-0.130	-0.450	0.020
2020/01/31 19:58:58.3	3.720	-0.090	-0.450	0.050
2020/01/31 19:58:58.4	3.710	-0.040	-0.450	0.080
2020/01/31 19:58:58.5	3.690	0.000	-0.450	0.100
2020/01/31 19:58:58.6	3.680	0.050	-0.450	0.130
2020/01/31 19:58:58.7	3.680	0.090	-0.450	0.150
2020/01/31 19:58:58.8	3.670	0.130	-0.460	0.160
2020/01/31 19:58:58.9	3.660	0.180	-0.470	0.170
2020/01/31 19:58:59.0	3.660	0.220	-0.480	0.180
2020/01/31 19:58:59.1	3.660	0.260	-0.490	0.190
2020/01/31 19:58:59.2	3.660	0.310	-0.500	0.190
2020/01/31 19:58:59.3	3.670	0.350	-0.520	0.180
2020/01/31 19:58:59.4	3.670	0.380	-0.540	0.180
2020/01/31 19:58:59.5	3.680	0.420	-0.560	0.170
2020/01/31 19:58:59.6	3.700	0.460	-0.580	0.160
2020/01/31 19:58:59.7	3.710	0.490	-0.600	0.140
2020/01/31 19:58:59.8	3.730	0.520	-0.620	0.120
2020/01/31 19:58:59.9	3.750	0.550	-0.640	0.100
2020/01/31 19:59:00.0	3.770	0.580	-0.660	0.080
2020/01/31 19:59:00.1	3.800	0.600	-0.680	0.060
2020/01/31 19:59:00.2	3.830	0.620	-0.700	0.040
2020/01/31 19:59:00.3	3.860	0.640	-0.710	0.020
2020/01/31 19:59:00.4	3.890	0.650	-0.720	-0.010
2020/01/31 19:59:00.5	3.920	0.670	-0.730	-0.030
2020/01/31 19:59:00.6	3.960	0.670	-0.730	-0.060
2020/01/31 19:59:00.7	3.990	0.670	-0.730	-0.080
2020/01/31 19:59:00.8	4.030	0.670	-0.730	-0.110
2020/01/31 19:59:00.9	4.080	0.670	-0.720	-0.130
2020/01/31 19:59:01.0	4.120	0.660	-0.710	-0.150
2020/01/31 19:59:01.1	4.170	0.650	-0.700	-0.180
2020/01/31 19:59:01.2	4.210	0.630	-0.670	-0.200
2020/01/31 19:59:01.3	4.250	0.610	-0.650	-0.230
2020/01/31 19:59:01.4	4.290	0.580	-0.620	-0.250
2020/01/31 19:59:01.5	4.330	0.550	-0.580	-0.280
2020/01/31 19:59:01.6	4.370	0.520	-0.540	-0.300
2020/01/31 19:59:01.7	4.410	0.480	-0.500	-0.330
2020/01/31 19:59:01.8	4.450	0.440	-0.450	-0.350
2020/01/31 19:59:01.9	4.470	0.400	-0.400	-0.370
2020/01/31 19:59:02.0	4.500	0.350	-0.340	-0.390
2020/01/31 19:59:02.1	4.530	0.300	-0.270	-0.410
2020/01/31 19:59:02.2	4.560	0.250	-0.210	-0.420
2020/01/31 19:59:02.3	4.580	0.190	-0.140	-0.440
2020/01/31 19:59:02.4	4.590	0.130	-0.060	-0.450
2020/01/31 19:59:02.5	4.610	0.080	0.010	-0.460
2020/01/31 19:59:02.6	4.620	0.020	0.090	-0.460
2020/01/31 19:59:02.7	4.620	-0.040	0.170	-0.460
2020/01/31 19:59:02.8	4.620	-0.100	0.250	-0.460
2020/01/31 19:59:02.9	4.610	-0.160	0.330	-0.460
2020/01/31 19:59:03.0	4.610	-0.220	0.410	-0.450
2020/01/31 19:59:03.1	4.600	-0.280	0.490	-0.440
2020/01/31 19:59:03.2	4.580	-0.330	0.570	-0.420
2020/01/31 19:59:03.3	4.560	-0.390	0.640	-0.400
2020/01/31 19:59:03.4	4.540	-0.440	0.720	-0.370
2020/01/31 19:59:03.5	4.510	-0.490	0.780	-0.350
2020/01/31 19:59:03.6	4.480	-0.530	0.850	-0.310
2020/01/31 19:59:03.7	4.440	-0.570	0.910	-0.280
2020/01/31 19:59:03.8	4.410	-0.610	0.960	-0.240
2020/01/31 19:59:03.9	4.360	-0.640	1.000	-0.200
2020/01/31 19:59:04.0	4.320	-0.670	1.040	-0.150
2020/01/31 19:59:04.1	4.270	-0.690	1.070	-0.110
2020/01/31 19:59:04.2	4.220	-0.710	1.100	-0.060
2020/01/31 19:59:04.3	4.170	-0.720	1.110	-0.010
2020/01/31 19:59:04.4	4.110	-0.730	1.110	0.040
2020/01/31 19:59:04.5	4.050	-0.730	1.110	0.090
2020/01/31 19:59:04.6	4.000	-0.720	1.090	0.140
2020/01/31 19:59:04.7	3.940	-0.710	1.070	0.190
2020/01/31 19:59:04.8	3.870	-0.690	1.030	0.250
2020/01/31 19:59:04.9	3.810	-0.660	0.980	0.290
2020/01/31 19:59:05.0	3.750	-0.630	0.920	0.340
2020/01/31 19:59:05.1	3.690	-0.600	0.860	0.390
2020/01/31 19:59:05.2	3.630	-0.560	0.780	0.440
2020/01/31 19:59:05.3	3.570	-0.510	0.700	0.480
2020/01/31 19:59:05.4	3.520	-0.460	0.600	0.520
2020/01/31 19:59:05.5	3.460	-0.400	0.500	0.560
2020/01/31 19:59:05.6	3.410	-0.340	0.390	0.590
2020/01/31 19:59:05.7	3.350	-0.280	0.280	0.620
2020/01/31 19:59:05.8	3.310	-0.220	0.160	0.640
2020/01/31 19:59:05.9	3.250	-0.150	0.030	0.660
2020/01/31 19:59:06.0	3.200	-0.080	-0.100	0.670
2020/01/31 19:59:06.1	3.160	-0.010	-0.230	0.680
2020/01/31 19:59:06.2	3.130	0.060	-0.360	0.670
2020/01/31 19:59:06.3	3.090	0.130	-0.490	0.670
2020/01/31 19:59:06.4	3.070	0.200	-0.620	0.650
2020/01/31 19:59:06.5	3.040	0.270	-0.740	0.630
2020/01/31 19:59:06.6	3.020	0.330	-0.860	0.600
2020/01/31 19:59:06.7	3.010	0.400	-0.980	0.570
2020/01/31 19:59:06.8	3.000	0.450	-1.100	0.530
2020/01/31 19:59:06.9	3.000	0.510	-1.200	0.480
2020/01/31 19:59:07.0	3.000	0.560	-1.300	0.440
2020/01/31 19:59:07.1	3.010	0.600	-1.400	0.380
2020/01/31 19:59:07.2	3.020	0.640	-1.480	0.320
2020/01/31 19:59:07.3	3.040	0.680	-1.550	0.260
2020/01/31 19:59:07.4	3.070	0.710	-1.620	0.200
2020/01/31 19:59:07.5	3.100	0.730	-1.670	0.130
2020/01/31 19:59:07.6	3.130	0.740	-1.720	0.070
2020/01/31 19:59:07.7	3.170	0.750	-1.750	-0.000
2020/01/31 19:59:07.8	3.210	0.750	-1.780	-0.070
2020/01/31 19:59:07.9	3.270	0.750	-1.790	-0.140
2020/01/31 19:59:08.0	3.320	0.740	-1.790	-0.210
2020/01/31 19:59:08.1	3.370	0.720	-1.780	-0.280
2020/01/31 19:59:08.2	3.420	0.700	-1.760	-0.340
2020/01/31 19:59:08.3	3.480	0.670	-1.720	-0.400
2020/01/31 19:59:08.4	3.540	0.630	-1.680	-0.460
2020/01/31 19:59:08.5	3.600	0.590	-1.630	-0.520
2020/01/31 19:59:08.6	3.660	0.540	-1.570	-0.580
2020/01/31 19:59:08.7	3.720	0.480	-1.500	-0.630
2020/01/31 19:59:08.8	3.770	0.430	-1.420	-0.690
2020/01/31 19:59:08.9	3.850	0.360	-1.340	-0.730
2020/01/31 19:59:09.0	3.900	0.300	-1.250	-0.780
2020/01/31 19:59:09.1	3.960	0.230	-1.150	-0.830
2020/01/31 19:59:09.2	4.020	0.150	-1.050	-0.870
2020/01/31 19:59:09.3	4.070	0.080	-0.940	-0.920
2020/01/31 19:59:09.4	4.130	0.010	-0.840	-0.950
2020/01/31 19:59:09.5	4.180	-0.070	-0.730	-0.990
2020/01/31 19:59:09.6	4.230	-0.150	-0.620	-1.020
2020/01/31 19:59:09.7	4.280	-0.220	-0.510	-1.060
2020/01/31 19:59:09.8	4.330	-0.300	-0.410	-1.080
2020/01/31 19:59:09.9	4.390	-0.370	-0.300	-1.110
2020/01/31 19:59:10.0	4.430	-0.440	-0.200	-1.120
2020/01/31 19:59:10.1	4.470	-0.500	-0.100	-1.140
2020/01/31 19:59:10.2	4.510	-0.560	-0.000	-1.150
2020/01/31 19:59:10.3	4.550	-0.620	0.090	-1.150
2020/01/31 19:59:10.4	4.580	-0.670	0.180	-1.150
2020/01/31 19:59:10.5	4.610	-0.720	0.260	-1.150
2020/01/31 19:59:10.6	4.640	-0.770	0.340	-1.130
2020/01/31 19:59:10.7	4.660	-0.800	0.410	-1.120
2020/01/31 19:59:10.8	4.680	-0.840	0.470	-1.100
2020/01/31 19:59:10.9	4.700	-0.860	0.530	-1.070
2020/01/31 19:59:11.0	4.720	-0.880	0.590	-1.040
2020/01/31 19:59:11.1	4.720	-0.900	0.630	-1.010
2020/01/31 19:59:11.2	4.730	-0.900	0.670	-0.970
2020/01/31 19:59:11.3	4.720	-0.910	0.700	-0.920
2020/01/31 19:59:11.4	4.720	-0.910	0.720	-0.870
2020/01/31 19:59:11.5	4.710	-0.900	0.740	-0.820
2020/01/31 19:59:11.6	4.690	-0.880	0.750	-0.770
2020/01/31 19:59:11.7	4.670	-0.870	0.760	-0.710
2020/01/31 19:59:11.8	4.650	-0.840	0.750	-0.650
2020/01/31 19:59:11.9	4.620	-0.820	0.740	-0.580
2020/01/31 19:59:12.0	4.590	-0.790	0.720	-0.520
2020/01/31 19:59:12.1	4.550	-0.750	0.700	-0.460
2020/01/31 19:59:12.2	4.520	-0.720	0.680	-0.400
2020/01/31 19:59:12.3	4.480	-0.670	0.640	-0.340
2020/01/31 19:59:12.4	4.430	-0.630	0.610	-0.280
2020/01/31 19:59:12.5	4.390	-0.580	0.560	-0.230
2020/01/31 19:59:12.6	4.340	-0.540	0.520	-0.180
2020/01/31 19:59:12.7	4.300	-0.490	0.460	-0.120
2020/01/31 19:59:12.8	4.250	-0.430	0.410	-0.070
2020/01/31 19:59:12.9	4.190	-0.380	0.360	-0.030
2020/01/31 19:59:13.0	4.140	-0.320	0.290	0.010
2020/01/31 19:59:13.1	4.090	-0.270	0.230	0.050
2020/01/31 19:59:13.2	4.040	-0.210	0.170	0.090
2020/01/31 19:59:13.3	3.990	-0.160	0.100	0.130
2020/01/31 19:59:13.4	3.950	-0.100	0.040	0.160
2020/01/31 19:59:13.5	3.900	-0.050	-0.030	0.190
2020/01/31 19:59:13.6	3.860	0.010	-0.100	0.220
2020/01/31 19:59:13.7	3.820	0.070	-0.160	0.240
2020/01/31 19:59:13.8	3.780	0.120	-0.230	0.270
2020/01/31 19:59:13.9	3.730	0.170	-0.290	0.280
2020/01/31 19:59:14.0	3.700	0.230	-0.350	0.300
2020/01/31 19:59:14.1	3.670	0.280	-0.410	0.310
2020/01/31 19:59:14.2	3.640	0.330	-0.460	0.320
2020/01/31 19:59:14.3	3.610	0.380	-0.520	0.330
2020/01/31 19:59:14.4	3.580	0.420	-0.560	0.330
2020/01/31 19:59:14.5	3.560	0.470	-0.610	0.340
2020/01/31 19:59:14.6	3.540	0.510	-0.640	0.340
2020/01/31 19:59:14.7	3.520	0.550	-0.670	0.340
2020/01/31 19:59:14.8	3.500	0.590	-0.700	0.340
2020/01/31 19:59:14.9	3.470	0.620	-0.710	0.340
2020/01/31 19:59:15.0	3.450	0.650	-0.730	0.330
2020/01/31 19:59:15.1	3.440	0.680	-0.730	0.330
2020/01/31 19:59:15.2	3.420	0.700	-0.730	0.320
2020/01/31 19:59:15.3	3.410	0.730	-0.720	0.320
2020/01/31 19:59:15.4	3.400	0.740	-0.710	0.310
2020/01/31 19:59:15.5	3.390	0.760	-0.680	0.300
2020/01/31 19:59:15.6	3.380	0.770	-0.660	0.290
2020/01/31 19:59:15.7	3.370	0.770	-0.620	0.290
2020/01/31 19:59:15.8	3.360	0.780	-0.590	0.280
2020/01/31 19:59:15.9	3.350	0.780	-0.550	0.270
2020/01/31 19:59:16.0	3.350	0.780	-0.500	0.260
2020/01/31 19:59:16.1	3.340	0.770	-0.460	0.250
2020/01/31 19:59:16.2	3.340	0.760	-0.410	0.250
2020/01/31 19:59:16.3	3.340	0.750	-0.360	0.240
2020/01/31 19:59:16.4	3.340	0.740	-0.310	0.230
2020/01/31 19:59:16.5	3.340	0.720	-0.260	0.220
2020/01/31 19:59:16.6	3.350	0.700	-0.210	0.210
2020/01/31 19:59:16.7	3.350	0.680	-0.160	0.200
2020/01/31 19:59:16.8	3.360	0.650	-0.110	0.190
2020/01/31 19:59:16.9	3.360	0.620	-0.070	0.190
2020/01/31 19:59:17.0	3.370	0.590	-0.030	0.180
2020/01/31 19:59:17.1	3.380	0.560	0.010	0.170
2020/01/31 19:59:17.2	3.390	0.530	0.050	0.160
2020/01/31 19:59:17.3	3.400	0.490	0.080	0.160
2020/01/31 19:59:17.4	3.410	0.460	0.110	0.150
2020/01/31 19:59:17.5	3.420	0.420	0.140	0.140
2020/01/31 19:59:17.6	3.430	0.380	0.160	0.130
2020/01/31 19:59:17.7	3.440	0.340	0.170	0.120
2020/01/31 19:59:17.8	3.450	0.300	0.190	0.100
2020/01/31 19:59:17.9	3.460	0.250	0.200	0.090
2020/01/31 19:59:18.0	3.470	0.210	0.200	0.070
2020/01/31 19:59:18.1	3.480	0.160	0.200	0.050
2020/01/31 19:59:18.2	3.490	0.120	0.200	0.020
2020/01/31 19:59:18.3	3.500	0.070	0.190	-0.000
2020/01/31 19:59:18.4	3.500	0.030	0.180	-0.030
2020/01/31 19:59:18.5	3.510	-0.020	0.170	-0.060
2020/01/31 19:59:18.6	3.520	-0.060	0.150	-0.090
2020/01/31 19:59:18.7	3.520	-0.110	0.130	-0.120
2020/01/31 19:59:18.8	3.530	-0.150	0.100	-0.160
2020/01/31 19:59:18.9	3.530	-0.190	0.070	-0.200
2020/01/31 19:59:19.0	3.540	-0.240	0.040	-0.230
2020/01/31 19:59:19.1	3.550	-0.280	0.010	-0.270
2020/01/31 19:59:19.2	3.560	-0.310	-0.020	-0.310
2020/01/31 19:59:19.3	3.570	-0.350	-0.060	-0.340
2020/01/31 19:59:19.4	3.580	-0.390	-0.100	-0.380
2020/01/31 19:59:19.5	3.590	-0.420	-0.140	-0.420
2020/01/31 19:59:19.6	3.610	-0.450	-0.180	-0.450
2020/01/31 19:59:19.7	3.620	-0.470	-0.220	-0.490
2020/01/31 19:59:19.8	3.640	-0.500	-0.260	-0.530
2020/01/31 19:59:19.9	3.660	-0.520	-0.300	-0.560
2020/01/31 19:59:20.0	3.680	-0.530	-0.350	-0.600
2020/01/31 19:59:20.1	3.710	-0.550	-0.390	-0.630
2020/01/31 19:59:20.2	3.740	-0.560	-0.430	-0.660
2020/01/31 19:59:20.3	3.770	-0.560	-0.480	-0.690
2020/01/31 19:59:20.4	3.800	-0.570	-0.520	-0.720
2020/01/31 19:59:20.5	3.830	-0.570	-0.570	-0.750
2020/01/31 19:59:20.6	3.860	-0.560	-0.610	-0.780
2020/01/31 19:59:20.7	3.890	-0.560	-0.650	-0.810
2020/01/31 19:59:20.8	3.920	-0.550	-0.690	-0.830
2020/01/31 19:59:20.9	3.960	-0.540	-0.740	-0.860
2020/01/31 19:59:21.0	3.990	-0.530	-0.770	-0.880
2020/01/31 19:59:21.1	4.020	-0.520	-0.810	-0.910
2020/01/31 19:59:21.2	4.050	-0.500	-0.840	-0.930
2020/01/31 19:59:21.3	4.090	-0.480	-0.880	-0.950
2020/01/31 19:59:21.4	4.120	-0.460	-0.900	-0.970
2020/01/31 19:59:21.5	4.150	-0.440	-0.930	-0.990
2020/01/31 19:59:21.6	4.180	-0.410	-0.950	-1.010
2020/01/31 19:59:21.7	4.200	-0.390	-0.970	-1.030
2020/01/31 19:59:21.8	4.230	-0.360	-0.980	-1.040
2020/01/31 19:59:21.9	4.270	-0.340	-0.990	-1.050
2020/01/31 19:59:22.0	4.290	-0.310	-1.000	-1.060
2020/01/31 19:59:22.1	4.320	-0.280	-1.000	-1.060
2020/01/31 19:59:22.2	4.340	-0.260	-1.000	-1.070
2020/01/31 19:59:22.3	4.360	-0.230	-0.990	-1.060
2020/01/31 19:59:22.4	4.370	-0.200	-0.980	-1.060
2020/01/31 19:59:22.5	4.390	-0.170	-0.970	-1.050
2020/01/31 19:59:22.6	4.400	-0.150	-0.950	-1.030
2020/01/31 19:59:22.7	4.420	-0.120	-0.920	-1.020
2020/01/31 19:59:22.8	4.430	-0.090	-0.890	-1.000
2020/01/31 19:59:22.9	4.430	-0.070	-0.870	-0.970
2020/01/31 19:59:23.0	4.440	-0.050	-0.830	-0.940
2020/01/31 19:59:23.1	4.440	-0.020	-0.790	-0.910
2020/01/31 19:59:23.2	4.440	-0.000	-0.740	-0.880
2020/01/31 19:59:23.3	4.440	0.020	-0.700	-0.840
2020/01/31 19:59:23.4	4.440	0.040	-0.650	-0.800
2020/01/31 19:59:23.5	4.430	0.050	-0.590	-0.760
2020/01/31 19:59:23.6	4.420	0.070	-0.540	-0.720
2020/01/31 19:59:23.7	4.410	0.080	-0.480	-0.670
2020/01/31 19:59:23.8	4.400	0.090	-0.420	-0.630
2020/01/31 19:59:23.9	4.390	0.100	-0.360	-0.580
2020/01/31 19:59:24.0	4.370	0.110	-0.300	-0.540
2020/01/31 19:59:24.1	4.350	0.120	-0.240	-0.490
2020/01/31 19:59:24.2	4.330	0.120	-0.180	-0.440
2020/01/31 19:59:24.3	4.310	0.130	-0.120	-0.390
2020/01/31 19:59:24.4	4.280	0.130	-0.060	-0.340
2020/01/31 19:59:24.5	4.250	0.130	-0.000	-0.290
2020/01/31 19:59:24.6	4.220	0.130	0.050	-0.240
2020/01/31 19:59:24.7	4.190	0.130	0.110	-0.180
2020/01/31 19:59:24.8	4.160	0.130	0.160	-0.130
2020/01/31 19:59:24.9	4.130	0.130	0.200	-0.080
2020/01/31 19:59:25.0	4.100	0.130	0.250	-0.030
2020/01/31 19:59:25.1	4.070	0.130	0.290	0.020
2020/01/31 19:59:25.2	4.030	0.130	0.330	0.060
2020/01/31 19:59:25.3	4.000	0.130	0.370	0.110
2020/01/31 19:59:25.4	3.970	0.130	0.400	0.150
2020/01/31 19:59:25.5	3.940	0.130	0.430	0.200
2020/01/31 19:59:25.6	3.900	0.130	0.460	0.240
2020/01/31 19:59:25.7	3.870	0.140	0.490	0.280
2020/01/31 19:59:25.8	3.840	0.140	0.500	0.320
2020/01/31 19:59:25.9	3.810	0.150	0.520	0.350
2020/01/31 19:59:26.0	3.780	0.160	0.540	0.390
2020/01/31 19:59:26.1	3.750	0.160	0.540	0.420
2020/01/31 19:59:26.2	3.730	0.180	0.550	0.440
2020/01/31 19:59:26.3	3.710	0.190	0.550	0.470
2020/01/31 19:59:26.4	3.680	0.200	0.550	0.490
2020/01/31 19:59:26.5	3.660	0.210	0.540	0.510
2020/01/31 19:59:26.6	3.650	0.230	0.530	0.530
2020/01/31 19:59:26.7	3.630	0.250	0.510	0.540
2020/01/31 19:59:26.8	3.610	0.260	0.500	0.550
2020/01/31 19:59:26.9	3.590	0.280	0.470	0.560
2020/01/31 19:59:27.0	3.580	0.300	0.450	0.570
2020/01/31 19:59:27.1	3.570	0.320	0.420	0.570
2020/01/31 19:59:27.2	3.560	0.340	0.390	0.570
2020/01/31 19:59:27.3	3.550	0.360	0.350	0.560
2020/01/31 19:59:27.4	3.540	0.380	0.310	0.560
2020/01/31 19:59:27.5	3.540	0.400	0.270	0.550
2020/01/31 19:59:27.6	3.530	0.410	0.230	0.550
2020/01/31 19:59:27.7	3.530	0.430	0.190	0.540
2020/01/31 19:59:27.8	3.530	0.450	0.140	0.530
2020/01/31 19:59:27.9	3.520	0.460	0.090	0.510
2020/01/31 19:59:28.0	3.520	0.470	0.050	0.490
2020/01/31 19:59:28.1	3.520	0.480	-0.000	0.480
2020/01/31 19:59:28.2	3.530	0.490	-0.050	0.460
2020/01/31 19:59:28.3	3.530	0.500	-0.100	0.440
2020/01/31 19:59:28.4	3.540	0.500	-0.150	0.430
2020/01/31 19:59:28.5	3.540	0.500	-0.200	0.410
2020/01/31 19:59:28.6	3.550	0.500	-0.250	0.380
2020/01/31 19:59:28.7	3.550	0.500	-0.290	0.360
2020/01/31 19:59:28.8	3.560	0.490	-0.330	0.340
2020/01/31 19:59:28.9	3.560	0.480	-0.380	0.310
2020/01/31 19:59:29.0	3.570	0.470	-0.420	0.280
2020/01/31 19:59:29.1	3.570	0.450	-0.460	0.250
2020/01/31 19:59:29.2	3.580	0.430	-0.490	0.220
2020/01/31 19:59:29.3	3.580	0.410	-0.520	0.190
2020/01/31 19:59:29.4	3.590	0.390	-0.550	0.160
2020/01/31 19:59:29.5	3.600	0.360	-0.580	0.130
2020/01/31 19:59:29.6	3.600	0.330	-0.600	0.100
2020/01/31 19:59:29.7	3.610	0.300	-0.620	0.060
2020/01/31 19:59:29.8	3.620	0.270	-0.630	0.030
2020/01/31 19:59:29.9	3.640	0.230	-0.640	-0.000
2020/01/31 19:59:30.0	3.650	0.190	-0.640	-0.040
2020/01/31 19:59:30.1	3.660	0.160	-0.650	-0.080
2020/01/31 19:59:30.2	3.670	0.120	-0.650	-0.110
2020/01/31 19:59:30.3	3.680	0.070	-0.650	-0.150
2020/01/31 19:59:30.4	3.690	0.030	-0.650	-0.190
2020/01/31 19:59:30.5	3.710	-0.010	-0.640	-0.220
2020/01/31 19:59:30.6	3.720	-0.060	-0.640	-0.260
2020/01/31 19:59:30.7	3.740	-0.100	-0.630	-0.300
2020/01/31 19:59:30.8	3.760	-0.150	-0.620	-0.340
2020/01/31 19:59:30.9	3.780	-0.200	-0.620	-0.390
2020/01/31 19:59:31.0	3.800	-0.240	-0.610	-0.430
2020/01/31 19:59:31.1	3.820	-0.290	-0.600	-0.470
2020/01/31 19:59:31.2	3.840	-0.340	-0.590	-0.510
2020/01/31 19:59:31.3	3.870	-0.380	-0.580	-0.560
2020/01/31 19:59:31.4	3.890	-0.430	-0.570	-0.600
2020/01/31 19:59:31.5	3.920	-0.470	-0.560	-0.640
2020/01/31 19:59:31.6	3.940	-0.510	-0.550	-0.690
2020/01/31 19:59:31.7	3.970	-0.560	-0.540	-0.740
2020/01/31 19:59:31.8	4.000	-0.600	-0.530	-0.780
2020/01/31 19:59:31.9	4.030	-0.640	-0.530	-0.830
2020/01/31 19:59:32.0	4.060	-0.670	-0.520	-0.870
2020/01/31 19:59:32.1	4.090	-0.710	-0.510	-0.920
2020/01/31 19:59:32.2	4.120	-0.740	-0.510	-0.960
2020/01/31 19:59:32.3	4.140	-0.760	-0.500	-1.010
2020/01/31 19:59:32.4	4.170	-0.790	-0.500	-1.050
2020/01/31 19:59:32.5	4.200	-0.810	-0.490	-1.090
2020/01/31 19:59:32.6	4.220	-0.830	-0.490	-1.120
2020/01/31 19:59:32.7	4.250	-0.850	-0.480	-1.150
2020/01/31 19:59:32.8	4.270	-0.860	-0.480	-1.180
2020/01/31 19:59:32.9	4.300	-0.860	-0.470	-1.200
2020/01/31 19:59:33.0	4.310	-0.870	-0.470	-1.220
2020/01/31 19:59:33.1	4.330	-0.870	-0.460	-1.230
2020/01/31 19:59:33.2	4.340	-0.860	-0.460	-1.240
2020/01/31 19:59:33.3	4.350	-0.850	-0.450	-1.240
2020/01/31 19:59:33.4	4.360	-0.840	-0.440	-1.230
2020/01/31 19:59:33.5	4.370	-0.820	-0.440	-1.220
2020/01/31 19:59:33.6	4.370	-0.800	-0.430	-1.200
2020/01/31 19:59:33.7	4.370	-0.780	-0.420	-1.170
2020/01/31 19:59:33.8	4.370	-0.750	-0.400	-1.140
2020/01/31 19:59:33.9	4.370	-0.710	-0.400	-1.110
2020/01/31 19:59:34.0	4.360	-0.680	-0.380	-1.060
2020/01/31 19:59:34.1	4.350	-0.630	-0.370	-1.020
2020/01/31 19:59:34.2	4.350	-0.590	-0.360	-0.970
2020/01/31 19:59:34.3	4.340	-0.540	-0.340	-0.910
2020/01/31 19:59:34.4	4.330	-0.490	-0.320	-0.860
2020/01/31 19:59:34.5	4.320	-0.440	-0.310	-0.800
2020/01/31 19:59:34.6	4.310	-0.390	-0.290	-0.740
2020/01/31 19:59:34.7	4.290	-0.330	-0.270	-0.670
2020/01/31 19:59:34.8	4.280	-0.270	-0.260	-0.610
2020/01/31 19:59:34.9	4.260	-0.210	-0.240	-0.540
2020/01/31 19:59:35.0	4.240	-0.150	-0.220	-0.470
2020/01/31 19:59:35.1	4.230	-0.080	-0.210	-0.410
2020/01/31 19:59:35.2	4.220	-0.020	-0.200	-0.340
2020/01/31 19:59:35.3	4.210	0.040	-0.190	-0.280
2020/01/31 19:59:35.4	4.210	0.110	-0.180	-0.220
2020/01/31 19:59:35.5	4.200	0.170	-0.170	-0.160
2020/01/31 19:59:35.6	4.190	0.240	-0.170	-0.100
2020/01/31 19:59:35.7	4.190	0.300	-0.170	-0.040
2020/01/31 19:59:35.8	4.190	0.360	-0.160	0.020
2020/01/31 19:59:35.9	4.190	0.420	-0.170	0.080
2020/01/31 19:59:36.0	4.190	0.480	-0.170	0.130
2020/01/31 19:59:36.1	4.180	0.540	-0.170	0.180
2020/01/31 19:59:36.2	4.180	0.590	-0.170	0.240
2020/01/31 19:59:36.3	4.170	0.640	-0.180	0.290
2020/01/31 19:59:36.4	4.170	0.690	-0.180	0.330
2020/01/31 19:59:36.5	4.160	0.730	-0.190	0.380
2020/01/31 19:59:36.6	4.160	0.770	-0.190	0.420
2020/01/31 19:59:36.7	4.150	0.810	-0.190	0.460
2020/01/31 19:59:36.8	4.140	0.840	-0.200	0.490
2020/01/31 19:59:36.9	4.130	0.870	-0.200	0.520
2020/01/31 19:59:37.0	4.120	0.890	-0.200	0.550
2020/01/31 19:59:37.1	4.110	0.910	-0.200	0.570
2020/01/31 19:59:37.2	4.100	0.930	-0.200	0.590
2020/01/31 19:59:37.3	4.090	0.940	-0.200	0.600
2020/01/31 19:59:37.4	4.080	0.940	-0.190	0.610
2020/01/31 19:59:37.5	4.070	0.950	-0.190	0.620
2020/01/31 19:59:37.6	4.060	0.950	-0.180	0.620
2020/01/31 19:59:37.7	4.060	0.940	-0.180	0.620
2020/01/31 19:59:37.8	4.050	0.930	-0.170	0.610
2020/01/31 19:59:37.9	4.040	0.920	-0.160	0.610
2020/01/31 19:59:38.0	4.040	0.900	-0.140	0.590
2020/01/31 19:59:38.1	4.030	0.880	-0.130	0.580
2020/01/31 19:59:38.2	4.030	0.850	-0.120	0.570
2020/01/31 19:59:38.3	4.030	0.820	-0.100	0.550
2020/01/31 19:59:38.4	4.030	0.790	-0.090	0.530
2020/01/31 19:59:38.5	4.040	0.760	-0.070	0.510
2020/01/31 19:59:38.6	4.040	0.720	-0.050	0.480
2020/01/31 19:59:38.7	4.040	0.680	-0.030	0.460
2020/01/31 19:59:38.8	4.050	0.630	-0.020	0.430
2020/01/31 19:59:38.9	4.060	0.590	0.000	0.410
2020/01/31 19:59:39.0	4.070	0.540	0.020	0.380
2020/01/31 19:59:39.1	4.070	0.490	0.040	0.340
2020/01/31 19:59:39.2	4.080	0.440	0.060	0.310
2020/01/31 19:59:39.3	4.080	0.390	0.080	0.280
2020/01/31 19:59:39.4	4.090	0.330	0.100	0.240
2020/01/31 19:59:39.5	4.100	0.280	0.110	0.200
2020/01/31 19:59:39.6	4.100	0.220	0.130	0.160
2020/01/31 19:59:39.7	4.110	0.160	0.140	0.120
2020/01/31 19:59:39.8	4.110	0.110	0.150	0.080
2020/01/31 19:59:39.9	4.100	0.050	0.160	0.040
2020/01/31 19:59:40.0	4.100	-0.010	0.170	0.000
2020/01/31 19:59:40.1	4.090	-0.060	0.170	-0.040
2020/01/31 19:59:40.2	4.090	-0.120	0.180	-0.080
2020/01/31 19:59:40.3	4.080	-0.170	0.180	-0.110
2020/01/31 19:59:40.4	4.070	-0.220	0.180	-0.150
2020/01/31 19:59:40.5	4.060	-0.270	0.170	-0.190
2020/01/31 19:59:40.6	4.040	-0.320	0.170	-0.230
2020/01/31 19:59:40.7	4.030	-0.370	0.160	-0.260
2020/01/31 19:59:40.8	4.010	-0.410	0.150	-0.300
2020/01/31 19:59:40.9	3.990	-0.460	0.140	-0.340
2020/01/31 19:59:41.0	3.970	-0.500	0.130	-0.370
2020/01/31 19:59:41.1	3.950	-0.530	0.110	-0.400
2020/01/31 19:59:41.2	3.930	-0.570	0.090	-0.430
2020/01/31 19:59:41.3	3.910	-0.600	0.070	-0.460
2020/01/31 19:59:41.4	3.890	-0.620	0.050	-0.480
2020/01/31 19:59:41.5	3.870	-0.640	0.020	-0.510
2020/01/31 19:59:41.6	3.850	-0.660	-0.000	-0.530
2020/01/31 19:59:41.7	3.830	-0.680	-0.030	-0.550
2020/01/31 19:59:41.8	3.810	-0.690	-0.060	-0.570
2020/01/31 19:59:41.9	3.790	-0.700	-0.100	-0.600
2020/01/31 19:59:42.0	3.780	-0.700	-0.140	-0.610
2020/01/31 19:59:42.1	3.760	-0.700	-0.170	-0.630
2020/01/31 19:59:42.2	3.750	-0.690	-0.210	-0.640
2020/01/31 19:59:42.3	3.740	-0.680	-0.250	-0.650
2020/01/31 19:59:42.4	3.730	-0.670	-0.300	-0.660
2020/01/31 19:59:42.5	3.720	-0.650	-0.340	-0.670
2020/01/31 19:59:42.6	3.720	-0.630	-0.380	-0.680
2020/01/31 19:59:42.7	3.720	-0.600	-0.430	-0.680
2020/01/31 19:59:42.8	3.720	-0.570	-0.480	-0.680
2020/01/31 19:59:42.9	3.720	-0.540	-0.520	-0.680
2020/01/31 19:59:43.0	3.730	-0.500	-0.570	-0.680
2020/01/31 19:59:43.1	3.740	-0.460	-0.620	-0.670
2020/01/31 19:59:43.2	3.750	-0.420	-0.660	-0.670
2020/01/31 19:59:43.3	3.760	-0.380	-0.710	-0.660
2020/01/31 19:59:43.4	3.770	-0.330	-0.750	-0.640
2020/01/31 19:59:43.5	3.790	-0.280	-0.800	-0.630
2020/01/31 19:59:43.6	3.810	-0.230	-0.840	-0.610
2020/01/31 19:59:43.7	3.830	-0.180	-0.870	-0.600
2020/01/31 19:59:43.8	3.850	-0.130	-0.910	-0.580
2020/01/31 19:59:43.9	3.880	-0.080	-0.940	-0.550
2020/01/31 19:59:44.0	3.910	-0.030	-0.970	-0.530
2020/01/31 19:59:44.1	3.930	0.020	-1.000	-0.510
2020/01/31 19:59:44.2	3.960	0.070	-1.020	-0.480
2020/01/31 19:59:44.3	3.980	0.120	-1.030	-0.460
2020/01/31 19:59:44.4	4.010	0.160	-1.040	-0.430
2020/01/31 19:59:44.5	4.040	0.210	-1.050	-0.410
2020/01/31 19:59:44.6	4.060	0.250	-1.050	-0.380
2020/01/31 19:59:44.7	4.090	0.290	-1.050	-0.350
2020/01/31 19:59:44.8	4.120	0.320	-1.040	-0.330
2020/01/31 19:59:44.9	4.160	0.350	-1.030	-0.300
2020/01/31 19:59:45.0	4.180	0.380	-1.010	-0.270
2020/01/31 19:59:45.1	4.210	0.410	-0.990	-0.250
2020/01/31 19:59:45.2	4.240	0.430	-0.960	-0.220
2020/01/31 19:59:45.3	4.270	0.440	-0.930	-0.200
2020/01/31 19:59:45.4	4.300	0.450	-0.900	-0.180
2020/01/31 19:59:45.5	4.330	0.460	-0.860	-0.150
2020/01/31 19:59:45.6	4.370	0.460	-0.820	-0.130
2020/01/31 19:59:45.7	4.400	0.460	-0.780	-0.110
2020/01/31 19:59:45.8	4.430	0.450	-0.730	-0.100
2020/01/31 19:59:45.9	4.450	0.440	-0.690	-0.080
2020/01/31 19:59:46.0	4.490	0.420	-0.640	-0.060
2020/01/31 19:59:46.1	4.520	0.400	-0.590	-0.050
2020/01/31 19:59:46.2	4.550	0.380	-0.540	-0.030
2020/01/31 19:59:46.3	4.580	0.350	-0.480	-0.020
2020/01/31 19:59:46.4	4.600	0.320	-0.430	-0.010
2020/01/31 19:59:46.5	4.630	0.280	-0.370	-0.000
2020/01/31 19:59:46.6	4.650	0.240	-0.310	0.010
2020/01/31 19:59:46.7	4.670	0.190	-0.250	0.010
2020/01/31 19:59:46.8	4.680	0.140	-0.200	0.020
2020/01/31 19:59:46.9	4.700	0.090	-0.140	0.020
2020/01/31 19:59:47.0	4.710	0.040	-0.080	0.030
2020/01/31 19:59:47.1	4.720	-0.010	-0.020	0.030
2020/01/31 19:59:47.2	4.720	-0.070	0.030	0.040
2020/01/31 19:59:47.3	4.720	-0.120	0.090	0.040
2020/01/31 19:59:47.4	4.710	-0.180	0.140	0.040
2020/01/31 19:59:47.5	4.700	-0.240	0.200	0.050
2020/01/31 19:59:47.6	4.690	-0.290	0.250	0.050
2020/01/31 19:59:47.7	4.670	-0.340	0.300	0.060
2020/01/31 19:59:47.8	4.650	-0.400	0.340	0.060
2020/01/31 19:59:47.9	4.620	-0.440	0.390	0.070
2020/01/31 19:59:48.0	4.590	-0.490	0.430	0.080
2020/01/31 19:59:48.1	4.560	-0.530	0.460	0.080
2020/01/31 19:59:48.2	4.520	-0.570	0.500	0.090
2020/01/31 19:59:48.3	4.490	-0.610	0.530	0.100
2020/01/31 19:59:48.4	4.450	-0.640	0.560	0.110
2020/01/31 19:59:48.5	4.400	-0.660	0.580	0.120
2020/01/31 19:59:48.6	4.360	-0.680	0.600	0.130
2020/01/31 19:59:48.7	4.310	-0.700	0.610	0.140
2020/01/31 19:59:48.8	4.260	-0.700	0.620	0.160
2020/01/31 19:59:48.9	4.210	-0.710	0.630	0.160
2020/01/31 19:59:49.0	4.160	-0.700	0.630	0.170
2020/01/31 19:59:49.1	4.100	-0.690	0.630	0.190
2020/01/31 19:59:49.2	4.050	-0.670	0.620	0.200
2020/01/31 19:59:49.3	4.000	-0.650	0.610	0.210
2020/01/31 19:59:49.4	3.950	-0.620	0.590	0.220
2020/01/31 19:59:49.5	3.900	-0.590	0.570	0.240
2020/01/31 19:59:49.6	3.850	-0.550	0.540	0.250
2020/01/31 19:59:49.7	3.800	-0.500	0.510	0.260
2020/01/31 19:59:49.8	3.750	-0.450	0.480	0.270
2020/01/31 19:59:49.9	3.700	-0.400	0.450	0.280
2020/01/31 19:59:50.0	3.650	-0.340	0.410	0.290
2020/01/31 19:59:50.1	3.610	-0.280	0.370	0.300
2020/01/31 19:59:50.2	3.560	-0.210	0.320	0.310
2020/01/31 19:59:50.3	3.520	-0.150	0.280	0.320
2020/01/31 19:59:50.4	3.480	-0.080	0.230	0.320
2020/01/31 19:59:50.5	3.430	-0.010	0.180	0.330
2020/01/31 19:59:50.6	3.400	0.060	0.130	0.340
2020/01/31 19:59:50.7	3.360	0.130	0.070	0.350
2020/01/31 19:59:50.8	3.320	0.200	0.020	0.360
2020/01/31 19:59:50.9	3.280	0.270	-0.040	0.370
2020/01/31 19:59:51.0	3.250	0.340	-0.090	0.380
2020/01/31 19:59:51.1	3.210	0.410	-0.140	0.380
2020/01/31 19:59:51.2	3.180	0.470	-0.200	0.390
2020/01/31 19:59:51.3	3.160	0.530	-0.250	0.400
2020/01/31 19:59:51.4	3.130	0.590	-0.300	0.410
2020/01/31 19:59:51.5	3.110	0.640	-0.350	0.420
2020/01/31 19:59:51.6	3.080	0.690	-0.390	0.420
2020/01/31 19:59:51.7	3.070	0.740	-0.440	0.430
2020/01/31 19:59:51.8	3.050	0.780	-0.480	0.430
2020/01/31 19:59:51.9	3.030	0.820	-0.530	0.430
2020/01/31 19:59:52.0	3.020	0.850	-0.570	0.430
2020/01/31 19:59:52.1	3.020	0.880	-0.610	0.420
2020/01/31 19:59:52.2	3.010	0.900	-0.640	0.410
2020/01/31 19:59:52.3	3.010	0.920	-0.680	0.400
2020/01/31 19:59:52.4	3.020	0.930	-0.710	0.380
2020/01/31 19:59:52.5	3.020	0.940	-0.740	0.360
2020/01/31 19:59:52.6	3.030	0.940	-0.760	0.340
2020/01/31 19:59:52.7	3.050	0.940	-0.790	0.310
2020/01/31 19:59:52.8	3.060	0.940	-0.810	0.280
2020/01/31 19:59:52.9	3.090	0.920	-0.830	0.240
2020/01/31 19:59:53.0	3.120	0.910	-0.850	0.210
2020/01/31 19:59:53.1	3.140	0.890	-0.860	0.170
2020/01/31 19:59:53.2	3.170	0.860	-0.870	0.120
2020/01/31 19:59:53.3	3.200	0.830	-0.880	0.080
2020/01/31 19:59:53.4	3.240	0.800	-0.890	0.030
2020/01/31 19:59:53.5	3.270	0.760	-0.890	-0.020
2020/01/31 19:59:53.6	3.310	0.720	-0.890	-0.070
2020/01/31 19:59:53.7	3.350	0.670	-0.880	-0.120
2020/01/31 19:59:53.8	3.400	0.620	-0.870	-0.170
2020/01/31 19:59:53.9	3.440	0.570	-0.860	-0.230
2020/01/31 19:59:54.0	3.480	0.510	-0.850	-0.290
2020/01/31 19:59:54.1	3.530	0.460	-0.840	-0.340
2020/01/31 19:59:54.2	3.580	0.400	-0.820	-0.400
2020/01/31 19:59:54.3	3.630	0.340	-0.800	-0.450
2020/01/31 19:59:54.4	3.680	0.270	-0.780	-0.510
2020/01/31 19:59:54.5	3.720	0.210	-0.750	-0.560
2020/01/31 19:59:54.6	3.770	0.150	-0.720	-0.610
2020/01/31 19:59:54.7	3.820	0.080	-0.690	-0.660
2020/01/31 19:59:54.8	3.870	0.020	-0.660	-0.700
2020/01/31 19:59:54.9	3.920	-0.040	-0.630	-0.750
2020/01/31 19:59:55.0	3.960	-0.110	-0.600	-0.780
2020/01/31 19:59:55.1	4.000	-0.170	-0.560	-0.820
2020/01/31 19:59:55.2	4.040	-0.220	-0.530	-0.850
2020/01/31 19:59:55.3	4.080	-0.280	-0.490	-0.870
2020/01/31 19:59:55.4	4.110	-0.330	-0.450	-0.900
2020/01/31 19:59:55.5	4.150	-0.380	-0.410	-0.910
2020/01/31 19:59:55.6	4.180	-0.430	-0.360	-0.930
2020/01/31 19:59:55.7	4.200	-0.480	-0.320	-0.930
2020/01/31 19:59:55.8	4.230	-0.520	-0.280	-0.940
2020/01/31 19:59:55.9	4.250	-0.550	-0.240	-0.930
2020/01/31 19:59:56.0	4.270	-0.580	-0.190	-0.920
2020/01/31 19:59:56.1	4.290	-0.610	-0.150	-0.910
2020/01/31 19:59:56.2	4.300	-0.640	-0.110	-0.900
2020/01/31 19:59:56.3	4.310	-0.660	-0.070	-0.880
2020/01/31 19:59:56.4	4.310	-0.670	-0.030	-0.850
2020/01/31 19:59:56.5	4.310	-0.680	0.000	-0.820
2020/01/31 19:59:56.6	4.310	-0.690	0.040	-0.790
2020/01/31 19:59:56.7	4.310	-0.690	0.070	-0.760
2020/01/31 19:59:56.8	4.300	-0.690	0.090	-0.720
2020/01/31 19:59:56.9	4.290	-0.690	0.110	-0.680
2020/01/31 19:59:57.0	4.270	-0.680	0.130	-0.630
2020/01/31 19:59:57.1	4.250	-0.660	0.150	-0.590
2020/01/31 19:59:57.2	4.230	-0.650	0.160	-0.540
2020/01/31 19:59:57.3	4.210	-0.630	0.160	-0.490
2020/01/31 19:59:57.4	4.180	-0.610	0.160	-0.450
2020/01/31 19:59:57.5	4.160	-0.590	0.160	-0.400
2020/01/31 19:59:57.6	4.130	-0.560	0.150	-0.350
2020/01/31 19:59:57.7	4.100	-0.530	0.130	-0.310
2020/01/31 19:59:57.8	4.080	-0.500	0.110	-0.260
2020/01/31 19:59:57.9	4.050	-0.470	0.080	-0.230
2020/01/31 19:59:58.0	4.020	-0.440	0.050	-0.190
2020/01/31 19:59:58.1	4.000	-0.400	0.020	-0.160
2020/01/31 19:59:58.2	3.980	-0.370	-0.030	-0.130
2020/01/31 19:59:58.3	3.960	-0.330	-0.070	-0.100
2020/01/31 19:59:58.4	3.940	-0.290	-0.120	-0.080
2020/01/31 19:59:58.5	3.920	-0.260	-0.160	-0.070
2020/01/31 19:59:58.6	3.910	-0.220	-0.220	-0.050
2020/01/31 19:59:58.7	3.900	-0.180	-0.270	-0.040
2020/01/31 19:59:58.8	3.890	-0.140	-0.320	-0.030
2020/01/31 19:59:58.9	3.870	-0.110	-0.370	-0.030
2020/01/31 19:59:59.0	3.870	-0.070	-0.420	-0.030
2020/01/31 19:59:59.1	3.860	-0.030	-0.460	-0.020
2020/01/31 19:59:59.2	3.860	-0.000	-0.500	-0.020
2020/01/31 19:59:59.3	3.860	0.030	-0.540	-0.020
2020/01/31 19:59:59.4	3.860	0.060	-0.570	-0.020
2020/01/31 19:59:59.5	3.860	0.090	-0.600	-0.020
2020/01/31 19:59:59.6	3.860	0.120	-0.610	-0.020
2020/01/31 19:59:59.7	3.860	0.150	-0.620	-0.020
2020/01/31 19:59:59.8	3.860	0.170	-0.630	-0.010
2020/01/31 19:59:59.9	3.860	0.190	-0.620	-0.010
2020/01/31 20:00:00.0	3.860	0.210	-0.610	-0.000
2020/01/31 20:00:00.1	3.860	0.220	-0.590	0.000
2020/01/31 20:00:00.2	3.850	0.230	-0.560	0.010
2020/01/31 20:00:00.3	3.850	0.240	-0.520	0.010
2020/01/31 20:00:00.4	3.840	0.250	-0.480	0.020
2020/01/31 20:00:00.5	3.670	0.080	0.280	0.100
2020/01/31 20:00:00.6	3.640	0.050	0.350	0.100
2020/01/31 20:00:00.7	3.610	0.020	0.420	0.110
2020/01/31 20:00:00.8	3.590	-0.010	0.490	0.120
2020/01/31 20:00:00.9	3.550	-0.030	0.550	0.140
2020/01/31 20:00:01.0	3.520	-0.060	0.600	0.150
2020/01/31 20:00:01.1	3.490	-0.090	0.650	0.160
2020/01/31 20:00:01.2	3.470	-0.120	0.690	0.170
2020/01/31 20:00:01.3	3.440	-0.140	0.720	0.180
2020/01/31 20:00:01.4	3.420	-0.160	0.740	0.190
2020/01/31 20:00:01.5	3.390	-0.180	0.750	0.200
2020/01/31 20:00:01.6	3.370	-0.190	0.750	0.210
2020/01/31 20:00:01.7	3.350	-0.200	0.740	0.220
2020/01/31 20:00:01.8	3.330	-0.210	0.720	0.230
2020/01/31 20:00:01.9	3.310	-0.210	0.700	0.230
2020/01/31 20:00:02.0	3.290	-0.210	0.650	0.240
2020/01/31 20:00:02.1	3.280	-0.200	0.600	0.240
2020/01/31 20:00:02.2	3.260	-0.190	0.540	0.240
2020/01/31 20:00:02.3	3.250	-0.170	0.470	0.250
2020/01/31 20:00:02.4	3.250	-0.150	0.400	0.250
2020/01/31 20:00:02.5	3.240	-0.120	0.310	0.240
2020/01/31 20:00:02.6	3.230	-0.090	0.220	0.240
2020/01/31 20:00:02.7	3.230	-0.050	0.120	0.240
2020/01/31 20:00:02.8	3.230	-0.020	0.010	0.230
2020/01/31 20:00:02.9	3.230	0.030	-0.100	0.220
2020/01/31 20:00:03.0	3.230	0.070	-0.210	0.210
2020/01/31 20:00:03.1	3.230	0.120	-0.320	0.200
2020/01/31 20:00:03.2	3.240	0.170	-0.430	0.190
2020/01/31 20:00:03.3	3.240	0.220	-0.540	0.170
2020/01/31 20:00:03.4	3.250	0.270	-0.650	0.160
2020/01/31 20:00:03.5	3.260	0.320	-0.760	0.140
2020/01/31 20:00:03.6	3.260	0.370	-0.850	0.120
2020/01/31 20:00:03.7	3.270	0.420	-0.950	0.110
2020/01/31 20:00:03.8	3.280	0.460	-1.030	0.090
2020/01/31 20:00:03.9	3.290	0.510	-1.110	0.080
2020/01/31 20:00:04.0	3.300	0.550	-1.180	0.070
2020/01/31 20:00:04.1	3.320	0.590	-1.230	0.060
2020/01/31 20:00:04.2	3.330	0.620	-1.280	0.050
2020/01/31 20:00:04.3	3.350	0.650	-1.320	0.040
2020/01/31 20:00:04.4	3.370	0.670	-1.350	0.030
2020/01/31 20:00:04.5	3.380	0.690	-1.360	0.030
2020/01/31 20:00:04.6	3.400	0.710	-1.370	0.030
2020/01/31 20:00:04.7	3.430	0.710	-1.360	0.030
2020/01/31 20:00:04.8	3.450	0.720	-1.340	0.030
2020/01/31 20:00:04.9	3.490	0.710	-1.320	0.030
2020/01/31 20:00:05.0	3.520	0.700	-1.290	0.040
2020/01/31 20:00:05.1	3.540	0.680	-1.240	0.040
2020/01/31 20:00:05.2	3.570	0.660	-1.190	0.040
2020/01/31 20:00:05.3	3.590	0.630	-1.130	0.050
2020/01/31 20:00:05.4	3.620	0.600	-1.070	0.050
2020/01/31 20:00:05.5	3.650	0.560	-1.000	0.060
2020/01/31 20:00:05.6	3.670	0.520	-0.920	0.060
2020/01/31 20:00:05.7	3.700	0.470	-0.840	0.070
2020/01/31 20:00:05.8	3.730	0.410	-0.760	0.070
2020/01/31 20:00:05.9	3.760	0.360	-0.670	0.070
2020/01/31 20:00:06.0	3.780	0.300	-0.590	0.080
2020/01/31 20:00:06.1	3.810	0.240	-0.500	0.080
2020/01/31 20:00:06.2	3.840	0.180	-0.420	0.070
2020/01/31 20:00:06.3	3.860	0.110	-0.340	0.070
2020/01/31 20:00:06.4	3.890	0.050	-0.260	0.070
2020/01/31 20:00:06.5	3.910	-0.020	-0.180	0.070
2020/01/31 20:00:06.6	3.940	-0.080	-0.110	0.060
2020/01/31 20:00:06.7	3.960	-0.140	-0.040	0.060
2020/01/31 20:00:06.8	3.980	-0.200	0.020	0.050
2020/01/31 20:00:06.9	4.000	-0.260	0.070	0.040
2020/01/31 20:00:07.0	4.020	-0.310	0.120	0.030
2020/01/31 20:00:07.1	4.030	-0.360	0.170	0.030
2020/01/31 20:00:07.2	4.040	-0.410	0.210	0.020
2020/01/31 20:00:07.3	4.050	-0.450	0.250	0.010
2020/01/31 20:00:07.4	4.060	-0.490	0.270	0.010
2020/01/31 20:00:07.5	4.060	-0.520	0.300	0.000
2020/01/31 20:00:07.6	4.070	-0.550	0.320	-0.000
2020/01/31 20:00:07.7	4.060	-0.580	0.330	-0.010
2020/01/31 20:00:07.8	4.060	-0.600	0.330	-0.010
2020/01/31 20:00:07.9	4.060	-0.610	0.340	-0.020
2020/01/31 20:00:08.0	4.050	-0.620	0.330	-0.020
2020/01/31 20:00:08.1	4.040	-0.630	0.330	-0.030
2020/01/31 20:00:08.2	4.030	-0.630	0.310	-0.030
2020/01/31 20:00:08.3	4.010	-0.630	0.300	-0.040
2020/01/31 20:00:08.4	3.990	-0.620	0.280	-0.050
2020/01/31 20:00:08.5	3.970	-0.610	0.250	-0.050
2020/01/31 20:00:08.6	3.950	-0.590	0.230	-0.060
2020/01/31 20:00:08.7	3.930	-0.580	0.200	-0.060
2020/01/31 20:00:08.8	3.910	-0.550	0.170	-0.070
2020/01/31 20:00:08.9	3.880	-0.530	0.130	-0.070
2020/01/31 20:00:09.0	3.850	-0.500	0.100	-0.080
2020/01/31 20:00:09.1	3.830	-0.460	0.060	-0.080
2020/01/31 20:00:09.2	3.800	-0.430	0.020	-0.080
2020/01/31 20:00:09.3	3.780	-0.390	-0.020	-0.080
2020/01/31 20:00:09.4	3.760	-0.350	-0.060	-0.070
2020/01/31 20:00:09.5	3.730	-0.310	-0.100	-0.060
2020/01/31 20:00:09.6	3.710	-0.270	-0.140	-0.060
2020/01/31 20:00:09.7	3.690	-0.230	-0.180	-0.050
2020/01/31 20:00:09.8	3.670	-0.180	-0.210	-0.040
2020/01/31 20:00:09.9	3.640	-0.140	-0.250	-0.030
2020/01/31 20:00:10.0	3.620	-0.100	-0.290	-0.020
2020/01/31 20:00:10.1	3.610	-0.060	-0.320	-0.000
2020/01/31 20:00:10.2	3.590	-0.010	-0.350	0.010
2020/01/31 20:00:10.3	3.580	0.030	-0.380	0.020
2020/01/31 20:00:10.4	3.560	0.060	-0.400	0.030
2020/01/31 20:00:10.5	3.550	0.100	-0.420	0.050
2020/01/31 20:00:10.6	3.540	0.140	-0.440	0.060
2020/01/31 20:00:10.7	3.530	0.170	-0.460	0.070
2020/01/31 20:00:10.8	3.520	0.200	-0.470	0.080
2020/01/31 20:00:10.9	3.510	0.220	-0.480	0.090
2020/01/31 20:00:11.0	3.510	0.250	-0.480	0.090
2020/01/31 20:00:11.1	3.500	0.270	-0.480	0.100
2020/01/31 20:00:11.2	3.490	0.290	-0.480	0.100
2020/01/31 20:00:11.3	3.490	0.310	-0.470	0.110
2020/01/31 20:00:11.4	3.490	0.320	-0.460	0.110
2020/01/31 20:00:11.5	3.480	0.330	-0.450	0.120
2020/01/31 20:00:11.6	3.480	0.340	-0.430	0.120
2020/01/31 20:00:11.7	3.470	0.340	-0.410	0.120
2020/01/31 20:00:11.8	3.470	0.340	-0.380	0.130
2020/01/31 20:00:11.9	3.470	0.340	-0.360	0.120
2020/01/31 20:00:12.0	3.460	0.340	-0.330	0.130
2020/01/31 20:00:12.1	3.460	0.340	-0.300	0.130
2020/01/31 20:00:12.2	3.460	0.330	-0.260	0.130
2020/01/31 20:00:12.3	3.460	0.320	-0.230	0.140
2020/01/31 20:00:12.4	3.450	0.300	-0.200	0.140
2020/01/31 20:00:12.5	3.450	0.290	-0.160	0.150
2020/01/31 20:00:12.6	3.450	0.270	-0.130	0.160
2020/01/31 20:00:12.7	3.440	0.250	-0.100	0.160
2020/01/31 20:00:12.8	3.440	0.230	-0.070	0.170
2020/01/31 20:00:12.9	3.440	0.210	-0.040	0.180
2020/01/31 20:00:13.0	3.430	0.180	-0.010	0.190
2020/01/31 20:00:13.1	3.430	0.150	0.010	0.190
2020/01/31 20:00:13.2	3.430	0.130	0.030	0.200
2020/01/31 20:00:13.3	3.420	0.100	0.050	0.210
2020/01/31 20:00:13.4	3.420	0.070	0.070	0.210
2020/01/31 20:00:13.5	3.410	0.040	0.080	0.210
2020/01/31 20:00:13.6	3.410	0.010	0.080	0.220
2020/01/31 20:00:13.7	3.410	-0.020	0.080	0.220
2020/01/31 20:00:13.8	3.400	-0.050	0.080	0.220
2020/01/31 20:00:13.9	3.390	-0.080	0.070	0.210
2020/01/31 20:00:14.0	3.390	-0.110	0.060	0.210
2020/01/31 20:00:14.1	3.390	-0.130	0.040	0.200
2020/01/31 20:00:14.2	3.390	-0.160	0.020	0.190
2020/01/31 20:00:14.3	3.400	-0.180	-0.010	0.180
2020/01/31 20:00:14.4	3.400	-0.210	-0.040	0.160
2020/01/31 20:00:14.5	3.410	-0.230	-0.070	0.140
2020/01/31 20:00:14.6	3.420	-0.240	-0.110	0.130
2020/01/31 20:00:14.7	3.430	-0.260	-0.150	0.100
2020/01/31 20:00:14.8	3.440	-0.270	-0.190	0.080
2020/01/31 20:00:14.9	3.450	-0.280	-0.230	0.060
2020/01/31 20:00:15.0	3.460	-0.290	-0.280	0.030
2020/01/31 20:00:15.1	3.470	-0.290	-0.320	0.010
2020/01/31 20:00:15.2	3.490	-0.290	-0.370	-0.010
2020/01/31 20:00:15.3	3.510	-0.290	-0.410	-0.040
2020/01/31 20:00:15.4	3.530	-0.280	-0.450	-0.060
2020/01/31 20:00:15.5	3.540	-0.270	-0.480	-0.080
2020/01/31 20:00:15.6	3.560	-0.260	-0.520	-0.100
2020/01/31 20:00:15.7	3.580	-0.240	-0.550	-0.110
2020/01/31 20:00:15.8	3.600	-0.220	-0.570	-0.130
2020/01/31 20:00:15.9	3.620	-0.200	-0.590	-0.140
2020/01/31 20:00:16.0	3.640	-0.180	-0.610	-0.150
2020/01/31 20:00:16.1	3.650	-0.150	-0.620	-0.160
2020/01/31 20:00:16.2	3.670	-0.120	-0.620	-0.160
2020/01/31 20:00:16.3	3.690	-0.090	-0.620	-0.160
2020/01/31 20:00:16.4	3.700	-0.060	-0.620	-0.160
2020/01/31 20:00:16.5	3.710	-0.030	-0.610	-0.160
2020/01/31 20:00:16.6	3.730	0.000	-0.600	-0.150
2020/01/31 20:00:16.7	3.740	0.040	-0.580	-0.150
2020/01/31 20:00:16.8	3.750	0.070	-0.550	-0.140
2020/01/31 20:00:16.9	3.750	0.100	-0.530	-0.130
2020/01/31 20:00:17.0	3.770	0.140	-0.500	-0.120
2020/01/31 20:00:17.1	3.780	0.170	-0.470	-0.110
2020/01/31 20:00:17.2	3.790	0.200	-0.440	-0.090
2020/01/31 20:00:17.3	3.800	0.230	-0.400	-0.080
2020/01/31 20:00:17.4	3.810	0.260	-0.370	-0.070
2020/01/31 20:00:17.5	3.820	0.290	-0.340	-0.060
2020/01/31 20:00:17.6	3.840	0.310	-0.300	-0.040
2020/01/31 20:00:17.7	3.850	0.340	-0.270	-0.030
2020/01/31 20:00:17.8	3.860	0.360	-0.240	-0.010
2020/01/31 20:00:17.9	3.880	0.380	-0.210	0.000
2020/01/31 20:00:18.0	3.890	0.400	-0.180	0.020
2020/01/31 20:00:18.1	3.900	0.410	-0.160	0.040
2020/01/31 20:00:18.2	3.920	0.430	-0.140	0.050
2020/01/31 20:00:18.3	3.930	0.440	-0.120	0.070
2020/01/31 20:00:18.4	3.950	0.450	-0.110	0.080
2020/01/31 20:00:18.5	3.960	0.460	-0.090	0.100
2020/01/31 20:00:18.6	3.980	0.460	-0.090	0.110
2020/01/31 20:00:18.7	3.990	0.470	-0.080	0.130
2020/01/31 20:00:18.8	4.000	0.470	-0.080	0.150
2020/01/31 20:00:18.9	4.020	0.470	-0.080	0.160
2020/01/31 20:00:19.0	4.030	0.470	-0.080	0.180
2020/01/31 20:00:19.1	4.040	0.460	-0.090	0.190
2020/01/31 20:00:19.2	4.040	0.460	-0.100	0.200
2020/01/31 20:00:19.3	4.050	0.450	-0.110	0.210
2020/01/31 20:00:19.4	4.050	0.440	-0.120	0.230
2020/01/31 20:00:19.5	4.060	0.430	-0.130	0.240
2020/01/31 20:00:19.6	4.060	0.420	-0.140	0.250
2020/01/31 20:00:19.7	4.050	0.410	-0.150	0.260
2020/01/31 20:00:19.8	4.050	0.390	-0.160	0.270
2020/01/31 20:00:19.9	4.030	0.380	-0.170	0.280
2020/01/31 20:00:20.0	4.020	0.360	-0.180	0.280
2020/01/31 20:00:20.1	4.010	0.340	-0.190	0.290
2020/01/31 20:00:20.2	4.000	0.320	-0.200	0.300
2020/01/31 20:00:20.3	3.980	0.300	-0.200	0.300
2020/01/31 20:00:20.4	3.960	0.280	-0.210	0.310
2020/01/31 20:00:20.5	3.940	0.260	-0.210	0.310
2020/01/31 20:00:20.6	3.930	0.230	-0.210	0.310
2020/01/31 20:00:20.7	3.910	0.210	-0.210	0.310
2020/01/31 20:00:20.8	3.880	0.180	-0.210	0.310
2020/01/31 20:00:20.9	3.870	0.150	-0.210	0.310
2020/01/31 20:00:21.0	3.850	0.120	-0.200	0.300
2020/01/31 20:00:21.1	3.830	0.100	-0.200	0.300
2020/01/31 20:00:21.2	3.810	0.070	-0.200	0.290
2020/01/31 20:00:21.3	3.780	0.030	-0.190	0.280
2020/01/31 20:00:21.4	3.760	0.000	-0.190	0.270
2020/01/31 20:00:21.5	3.740	-0.030	-0.190	0.260
2020/01/31 20:00:21.6	3.730	-0.060	-0.180	0.240
2020/01/31 20:00:21.7	3.710	-0.090	-0.180	0.230
2020/01/31 20:00:21.8	3.700	-0.130	-0.180	0.210
2020/01/31 20:00:21.9	3.680	-0.160	-0.180	0.190
2020/01/31 20:00:22.0	3.670	-0.190	-0.180	0.170
2020/01/31 20:00:22.1	3.660	-0.220	-0.180	0.140
2020/01/31 20:00:22.2	3.650	-0.260	-0.190	0.120
2020/01/31 20:00:22.3	3.650	-0.290	-0.190	0.090
2020/01/31 20:00:22.4	3.650	-0.320	-0.190	0.060
2020/01/31 20:00:22.5	3.640	-0.350	-0.200	0.020
2020/01/31 20:00:22.6	3.650	-0.380	-0.210	-0.010
2020/01/31 20:00:22.7	3.650	-0.410	-0.210	-0.050
2020/01/31 20:00:22.8	3.650	-0.440	-0.220	-0.090
2020/01/31 20:00:22.9	3.670	-0.460	-0.230	-0.140
2020/01/31 20:00:23.0	3.680	-0.490	-0.230	-0.190
2020/01/31 20:00:23.1	3.690	-0.510	-0.240	-0.230
2020/01/31 20:00:23.2	3.700	-0.530	-0.250	-0.280
2020/01/31 20:00:23.3	3.710	-0.550	-0.260	-0.330
2020/01/31 20:00:23.4	3.720	-0.570	-0.270	-0.370
2020/01/31 20:00:23.5	3.740	-0.580	-0.280	-0.420
2020/01/31 20:00:23.6	3.750	-0.590	-0.290	-0.470
2020/01/31 20:00:23.7	3.760	-0.600	-0.290	-0.510
2020/01/31 20:00:23.8	3.780	-0.610	-0.300	-0.560
2020/01/31 20:00:23.9	3.790	-0.620	-0.310	-0.600
2020/01/31 20:00:24.0	3.810	-0.620	-0.310	-0.650
2020/01/31 20:00:24.1	3.820	-0.620	-0.320	-0.680
2020/01/31 20:00:24.2	3.830	-0.620	-0.330	-0.720
2020/01/31 20:00:24.3	3.840	-0.610	-0.330	-0.760
2020/01/31 20:00:24.4	3.860	-0.600	-0.340	-0.790
2020/01/31 20:00:24.5	3.870	-0.590	-0.350	-0.820
2020/01/31 20:00:24.6	3.880	-0.570	-0.360	-0.840
2020/01/31 20:00:24.7	3.890	-0.560	-0.360	-0.860
2020/01/31 20:00:24.8	3.890	-0.530	-0.370	-0.880
2020/01/31 20:00:24.9	3.900	-0.510	-0.380	-0.900
2020/01/31 20:00:25.0	3.910	-0.480	-0.400	-0.910
2020/01/31 20:00:25.1	3.920	-0.450	-0.410	-0.920
2020/01/31 20:00:25.2	3.930	-0.420	-0.420	-0.920
2020/01/31 20:00:25.3	3.930	-0.390	-0.430	-0.920
2020/01/31 20:00:25.4	3.940	-0.350	-0.450	-0.920
2020/01/31 20:00:25.5	3.950	-0.310	-0.460	-0.920
2020/01/31 20:00:25.6	3.960	-0.270	-0.480	-0.920
2020/01/31 20:00:25.7	3.970	-0.230	-0.490	-0.910
2020/01/31 20:00:25.8	3.990	-0.180	-0.510	-0.900
2020/01/31 20:00:25.9	3.990	-0.140	-0.520	-0.880
2020/01/31 20:00:26.0	4.010	-0.090	-0.540	-0.870
2020/01/31 20:00:26.1	4.020	-0.050	-0.550	-0.850
2020/01/31 20:00:26.2	4.030	0.000	-0.570	-0.830
2020/01/31 20:00:26.3	4.040	0.050	-0.580	-0.810
2020/01/31 20:00:26.4	4.050	0.090	-0.590	-0.780
2020/01/31 20:00:26.5	4.060	0.140	-0.600	-0.750
2020/01/31 20:00:26.6	4.070	0.180	-0.600	-0.720
2020/01/31 20:00:26.7	4.080	0.220	-0.610	-0.680
2020/01/31 20:00:26.8	4.090	0.260	-0.600	-0.640
2020/01/31 20:00:26.9	4.100	0.300	-0.600	-0.600
2020/01/31 20:00:27.0	4.100	0.330	-0.600	-0.550
2020/01/31 20:00:27.1	4.110	0.370	-0.590	-0.500
2020/01/31 20:00:27.2	4.110	0.390	-0.570	-0.450
2020/01/31 20:00:27.3	4.100	0.420	-0.550	-0.400
2020/01/31 20:00:27.4	4.100	0.440	-0.530	-0.350
2020/01/31 20:00:27.5	4.100	0.460	-0.500	-0.290
2020/01/31 20:00:27.6	4.090	0.480	-0.470	-0.240
2020/01/31 20:00:27.7	4.090	0.490	-0.440	-0.190
2020/01/31 20:00:27.8	4.080	0.500	-0.400	-0.130
2020/01/31 20:00:27.9	4.080	0.500	-0.360	-0.080
2020/01/31 20:00:28.0	4.070	0.500	-0.320	-0.020
2020/01/31 20:00:28.1	4.060	0.500	-0.270	0.030
2020/01/31 20:00:28.2	4.050	0.490	-0.220	0.080
2020/01/31 20:00:28.3	4.050	0.480	-0.170	0.130
2020/01/31 20:00:28.4	4.040	0.460	-0.120	0.170
2020/01/31 20:00:28.5	4.030	0.440	-0.060	0.220
2020/01/31 20:00:28.6	4.020	0.420	-0.010	0.260
2020/01/31 20:00:28.7	4.020	0.400	0.050	0.300
2020/01/31 20:00:28.8	4.010	0.380	0.100	0.330
2020/01/31 20:00:28.9	3.990	0.350	0.160	0.360
2020/01/31 20:00:29.0	3.990	0.320	0.210	0.400
2020/01/31 20:00:29.1	3.980	0.300	0.260	0.430
2020/01/31 20:00:29.2	3.980	0.270	0.310	0.460
2020/01/31 20:00:29.3	3.980	0.240	0.360	0.480
2020/01/31 20:00:29.4	3.970	0.210	0.400	0.510
2020/01/31 20:00:29.5	3.970	0.180	0.440	0.530
2020/01/31 20:00:29.6	3.960	0.150	0.470	0.550
2020/01/31 20:00:29.7	3.960	0.120	0.500	0.570
2020/01/31 20:00:29.8	3.950	0.090	0.530	0.590
2020/01/31 20:00:29.9	3.940	0.060	0.550	0.610
2020/01/31 20:00:30.0	3.930	0.030	0.570	0.620
2020/01/31 20:00:30.1	3.920	0.010	0.580	0.630
2020/01/31 20:00:30.2	3.910	-0.020	0.590	0.640
2020/01/31 20:00:30.3	3.900	-0.040	0.590	0.640
2020/01/31 20:00:30.4	3.880	-0.060	0.590	0.650
2020/01/31 20:00:30.5	3.870	-0.080	0.580	0.650
2020/01/31 20:00:30.6	3.850	-0.100	0.570	0.640
2020/01/31 20:00:30.7	3.830	-0.110	0.550	0.640
2020/01/31 20:00:30.8	3.810	-0.130	0.520	0.620
2020/01/31 20:00:30.9	3.800	-0.140	0.490	0.610
2020/01/31 20:00:31.0	3.780	-0.150	0.460	0.590
2020/01/31 20:00:31.1	3.760	-0.160	0.420	0.570
2020/01/31 20:00:31.2	3.750	-0.160	0.370	0.550
2020/01/31 20:00:31.3	3.730	-0.160	0.320	0.520
2020/01/31 20:00:31.4	3.710	-0.170	0.260	0.500
2020/01/31 20:00:31.5	3.700	-0.160	0.200	0.470
2020/01/31 20:00:31.6	3.680	-0.160	0.140	0.430
2020/01/31 20:00:31.7	3.670	-0.160	0.070	0.400
2020/01/31 20:00:31.8	3.660	-0.150	0.000	0.360
2020/01/31 20:00:31.9	3.640	-0.140	-0.070	0.320
2020/01/31 20:00:32.0	3.630	-0.130	-0.150	0.280
2020/01/31 20:00:32.1	3.620	-0.110	-0.220	0.230
2020/01/31 20:00:32.2	3.610	-0.100	-0.300	0.190
2020/01/31 20:00:32.3	3.610	-0.080	-0.370	0.140
2020/01/31 20:00:32.4	3.600	-0.060	-0.450	0.100
2020/01/31 20:00:32.5	3.600	-0.040	-0.520	0.050
2020/01/31 20:00:32.6	3.590	-0.020	-0.590	0.010
2020/01/31 20:00:32.7	3.590	-0.000	-0.660	-0.040
2020/01/31 20:00:32.8	3.580	0.020	-0.720	-0.080
2020/01/31 20:00:32.9	3.580	0.040	-0.780	-0.130
2020/01/31 20:00:33.0	3.570	0.060	-0.840	-0.170
2020/01/31 20:00:33.1	3.560	0.080	-0.890	-0.210
2020/01/31 20:00:33.2	3.560	0.100	-0.930	-0.240
2020/01/31 20:00:33.3	3.550	0.120	-0.970	-0.280
2020/01/31 20:00:33.4	3.540	0.140	-1.010	-0.310
2020/01/31 20:00:33.5	3.540	0.160	-1.030	-0.340
2020/01/31 20:00:33.6	3.530	0.170	-1.060	-0.370
2020/01/31 20:00:33.7	3.520	0.190	-1.070	-0.400
2020/01/31 20:00:33.8	3.520	0.200	-1.080	-0.420
2020/01/31 20:00:33.9	3.510	0.210	-1.090	-0.450
2020/01/31 20:00:34.0	3.500	0.220	-1.090	-0.470
2020/01/31 20:00:34.1	3.500	0.220	-1.080	-0.490
2020/01/31 20:00:34.2	3.500	0.230	-1.070	-0.520
2020/01/31 20:00:34.3	3.490	0.230	-1.060	-0.540
2020/01/31 20:00:34.4	3.490	0.230	-1.040	-0.560
2020/01/31 20:00:34.5	3.490	0.220	-1.020	-0.590
2020/01/31 20:00:34.6	3.490	0.210	-0.990	-0.610
2020/01/31 20:00:34.7	3.500	0.200	-0.960	-0.630
2020/01/31 20:00:34.8	3.500	0.190	-0.930	-0.650
2020/01/31 20:00:34.9	3.520	0.180	-0.900	-0.670
2020/01/31 20:00:35.0	3.520	0.160	-0.860	-0.690
2020/01/31 20:00:35.1	3.530	0.150	-0.830	-0.710
2020/01/31 20:00:35.2	3.550	0.130	-0.790	-0.730
2020/01/31 20:00:35.3	3.560	0.100	-0.750	-0.750
2020/01/31 20:00:35.4	3.570	0.080	-0.710	-0.770
2020/01/31 20:00:35.5	3.590	0.060	-0.670	-0.780
2020/01/31 20:00:35.6	3.600	0.030	-0.630	-0.790
2020/01/31 20:00:35.7	3.620	0.010	-0.590	-0.800
2020/01/31 20:00:35.8	3.640	-0.020	-0.550	-0.810
2020/01/31 20:00:35.9	3.660	-0.040	-0.520	-0.820
2020/01/31 20:00:36.0	3.680	-0.070	-0.480	-0.820
2020/01/31 20:00:36.1	3.700	-0.100	-0.440	-0.830
2020/01/31 20:00:36.2	3.720	-0.120	-0.410	-0.830
2020/01/31 20:00:36.3	3.740	-0.140	-0.370	-0.830
2020/01/31 20:00:36.4	3.760	-0.170	-0.340	-0.830
2020/01/31 20:00:36.5	3.790	-0.190	-0.310	-0.820
2020/01/31 20:00:36.6	3.810	-0.210	-0.280	-0.820
2020/01/31 20:00:36.7	3.840	-0.230	-0.260	-0.810
2020/01/31 20:00:36.8	3.870	-0.250	-0.230	-0.800
2020/01/31 20:00:36.9	3.890	-0.260	-0.210	-0.790
2020/01/31 20:00:37.0	3.920	-0.280	-0.190	-0.780
2020/01/31 20:00:37.1	3.950	-0.290	-0.170	-0.760
2020/01/31 20:00:37.2	3.980	-0.300	-0.150	-0.750
2020/01/31 20:00:37.3	4.000	-0.300	-0.130	-0.730
2020/01/31 20:00:37.4	4.030	-0.310	-0.120	-0.710
2020/01/31 20:00:37.5	4.060	-0.310	-0.100	-0.700
2020/01/31 20:00:37.6	4.080	-0.320	-0.090	-0.680
2020/01/31 20:00:37.7	4.110	-0.320	-0.070	-0.650
2020/01/31 20:00:37.8	4.130	-0.320	-0.060	-0.630
2020/01/31 20:00:37.9	4.140	-0.310	-0.050	-0.600
2020/01/31 20:00:38.0	4.160	-0.310	-0.030	-0.570
2020/01/31 20:00:38.1	4.180	-0.300	-0.020	-0.540
2020/01/31 20:00:38.2	4.190	-0.300	-0.010	-0.510
2020/01/31 20:00:38.3	4.200	-0.290	0.010	-0.470
2020/01/31 20:00:38.4	4.210	-0.280	0.020	-0.430
2020/01/31 20:00:38.5	4.210	-0.270	0.040	-0.390
2020/01/31 20:00:38.6	4.210	-0.260	0.050	-0.350
2020/01/31 20:00:38.7	4.210	-0.250	0.070	-0.300
2020/01/31 20:00:38.8	4.200	-0.240	0.090	-0.250
2020/01/31 20:00:38.9	4.200	-0.230	0.100	-0.200
2020/01/31 20:00:39.0	4.190	-0.220	0.120	-0.150
2020/01/31 20:00:39.1	4.170	-0.210	0.140	-0.100
2020/01/31 20:00:39.2	4.150	-0.200	0.150	-0.040
2020/01/31 20:00:39.3	4.130	-0.200	0.170	0.010
2020/01/31 20:00:39.4	4.110	-0.190	0.190	0.060
2020/01/31 20:00:39.5	4.090	-0.180	0.210	0.110
2020/01/31 20:00:39.6	4.060	-0.170	0.220	0.160
2020/01/31 20:00:39.7	4.030	-0.170	0.240	0.200
2020/01/31 20:00:39.8	4.000	-0.160	0.250	0.250
2020/01/31 20:00:39.9	3.970	-0.160	0.270	0.290
2020/01/31 20:00:40.0	3.930	-0.150	0.280	0.330
2020/01/31 20:00:40.1	3.900	-0.150	0.290	0.370
2020/01/31 20:00:40.2	3.860	-0.150	0.300	0.410
2020/01/31 20:00:40.3	3.830	-0.140	0.310	0.440
2020/01/31 20:00:40.4	3.790	-0.140	0.310	0.470
2020/01/31 20:00:40.5	3.750	-0.130	0.310	0.500
2020/01/31 20:00:40.6	3.710	-0.130	0.320	0.530
2020/01/31 20:00:40.7	3.680	-0.130	0.310	0.550
2020/01/31 20:00:40.8	3.640	-0.120	0.310	0.580
2020/01/31 20:00:40.9	3.600	-0.110	0.310	0.590
2020/01/31 20:00:41.0	3.560	-0.110	0.300	0.610
2020/01/31 20:00:41.1	3.520	-0.100	0.290	0.630
2020/01/31 20:00:41.2	3.490	-0.090	0.270	0.640
2020/01/31 20:00:41.3	3.450	-0.080	0.260	0.650
2020/01/31 20:00:41.4	3.420	-0.070	0.240	0.660
2020/01/31 20:00:41.5	3.380	-0.060	0.220	0.660
2020/01/31 20:00:41.6	3.350	-0.050	0.190	0.660
2020/01/31 20:00:41.7	3.320	-0.040	0.160	0.660
2020/01/31 20:00:41.8	3.280	-0.020	0.130	0.650
2020/01/31 20:00:41.9	3.260	-0.010	0.090	0.640
2020/01/31 20:00:42.0	3.230	0.010	0.060	0.630
2020/01/31 20:00:42.1	3.200	0.020	0.020	0.610
2020/01/31 20:00:42.2	3.180	0.040	-0.020	0.590
2020/01/31 20:00:42.3	3.160	0.060	-0.070	0.570
2020/01/31 20:00:42.4	3.140	0.080	-0.110	0.540
2020/01/31 20:00:42.5	3.120	0.100	-0.160	0.520
2020/01/31 20:00:42.6	3.100	0.120	-0.210	0.490
2020/01/31 20:00:42.7	3.090	0.140	-0.260	0.460
2020/01/31 20:00:42.8	3.080	0.170	-0.310	0.420
2020/01/31 20:00:42.9	3.070	0.190	-0.350	0.380
2020/01/31 20:00:43.0	3.060	0.210	-0.400	0.350
2020/01/31 20:00:43.1	3.060	0.230	-0.450	0.310
2020/01/31 20:00:43.2	3.050	0.250	-0.500	0.280
2020/01/31 20:00:43.3	3.050	0.280	-0.550	0.240
2020/01/31 20:00:43.4	3.060	0.300	-0.590	0.200
2020/01/31 20:00:43.5	3.060	0.310	-0.630	0.160
2020/01/31 20:00:43.6	3.070	0.330	-0.670	0.120
2020/01/31 20:00:43.7	3.070	0.350	-0.700	0.090
2020/01/31 20:00:43.8	3.080	0.360	-0.740	0.050
2020/01/31 20:00:43.9	3.090	0.370	-0.770	0.010
2020/01/31 20:00:44.0	3.100	0.380	-0.790	-0.030
2020/01/31 20:00:44.1	3.110	0.380	-0.800	-0.060
2020/01/31 20:00:44.2	3.130	0.380	-0.820	-0.100
2020/01/31 20:00:44.3	3.140	0.380	-0.820	-0.130
2020/01/31 20:00:44.4	3.160	0.380	-0.820	-0.170
2020/01/31 20:00:44.5	3.170	0.370	-0.820	-0.200
2020/01/31 20:00:44.6	3.190	0.360	-0.800	-0.230
2020/01/31 20:00:44.7	3.200	0.340	-0.790	-0.270
2020/01/31 20:00:44.8	3.220	0.320	-0.770	-0.300
2020/01/31 20:00:44.9	3.240	0.300	-0.740	-0.330
2020/01/31 20:00:45.0	3.260	0.270	-0.720	-0.360
2020/01/31 20:00:45.1	3.280	0.240	-0.680	-0.390
2020/01/31 20:00:45.2	3.300	0.210	-0.650	-0.420
2020/01/31 20:00:45.3	3.320	0.180	-0.610	-0.450
2020/01/31 20:00:45.4	3.340	0.140	-0.570	-0.470
2020/01/31 20:00:45.5	3.360	0.100	-0.530	-0.500
2020/01/31 20:00:45.6	3.380	0.060	-0.480	-0.520
2020/01/31 20:00:45.7	3.400	0.030	-0.440	-0.540
2020/01/31 20:00:45.8	3.420	-0.010	-0.400	-0.560
2020/01/31 20:00:45.9	3.440	-0.050	-0.350	-0.580
2020/01/31 20:00:46.0	3.470	-0.090	-0.310	-0.600
2020/01/31 20:00:46.1	3.490	-0.130	-0.270	-0.610
2020/01/31 20:00:46.2	3.520	-0.170	-0.240	-0.630
2020/01/31 20:00:46.3	3.540	-0.200	-0.210	-0.640
2020/01/31 20:00:46.4	3.570	-0.240	-0.180	-0.650
2020/01/31 20:00:46.5	3.600	-0.270	-0.150	-0.660
2020/01/31 20:00:46.6	3.620	-0.290	-0.130	-0.670
2020/01/31 20:00:46.7	3.650	-0.320	-0.110	-0.680
2020/01/31 20:00:46.8	3.680	-0.340	-0.100	-0.690
2020/01/31 20:00:46.9	3.720	-0.350	-0.100	-0.700
2020/01/31 20:00:47.0	3.750	-0.360	-0.100	-0.710
2020/01/31 20:00:47.1	3.780	-0.370	-0.100	-0.720
2020/01/31 20:00:47.2	3.810	-0.370	-0.110	-0.730
2020/01/31 20:00:47.3	3.840	-0.370	-0.120	-0.730
2020/01/31 20:00:47.4	3.870	-0.370	-0.140	-0.740
2020/01/31 20:00:47.5	3.900	-0.350	-0.160	-0.740
2020/01/31 20:00:47.6	3.930	-0.340	-0.180	-0.740
2020/01/31 20:00:47.7	3.950	-0.320	-0.210	-0.740
2020/01/31 20:00:47.8	3.980	-0.300	-0.230	-0.740
2020/01/31 20:00:47.9	4.000	-0.270	-0.270	-0.740
2020/01/31 20:00:48.0	4.030	-0.240	-0.300	-0.730
2020/01/31 20:00:48.1	4.040	-0.200	-0.330	-0.720
2020/01/31 20:00:48.2	4.060	-0.160	-0.360	-0.710
2020/01/31 20:00:48.3	4.070	-0.120	-0.390	-0.690
2020/01/31 20:00:48.4	4.080	-0.080	-0.420	-0.660
2020/01/31 20:00:48.5	4.090	-0.030	-0.450	-0.640
2020/01/31 20:00:48.6	4.090	0.010	-0.480	-0.610
2020/01/31 20:00:48.7	4.090	0.060	-0.500	-0.570
2020/01/31 20:00:48.8	4.090	0.100	-0.520	-0.540
2020/01/31 20:00:48.9	4.080	0.150	-0.540	-0.490
2020/01/31 20:00:49.0	4.060	0.200	-0.560	-0.450
2020/01/31 20:00:49.1	4.050	0.240	-0.570	-0.400
2020/01/31 20:00:49.2	4.030	0.280	-0.570	-0.350
2020/01/31 20:00:49.3	4.000	0.320	-0.570	-0.300
2020/01/31 20:00:49.4	3.980	0.360	-0.570	-0.250
2020/01/31 20:00:49.5	3.950	0.390	-0.560	-0.200
2020/01/31 20:00:49.6	3.910	0.420	-0.550	-0.140
2020/01/31 20:00:49.7	3.870	0.450	-0.530	-0.090
2020/01/31 20:00:49.8	3.830	0.470	-0.510	-0.030
2020/01/31 20:00:49.9	3.780	0.490	-0.480	0.030
2020/01/31 20:00:50.0	3.740	0.500	-0.450	0.080
2020/01/31 20:00:50.1	3.690	0.510	-0.420	0.130
2020/01/31 20:00:50.2	3.640	0.520	-0.390	0.180
2020/01/31 20:00:50.3	3.590	0.510	-0.350	0.230
2020/01/31 20:00:50.4	3.540	0.510	-0.310	0.270
2020/01/31 20:00:50.5	3.490	0.500	-0.260	0.310
2020/01/31 20:00:50.6	3.440	0.480	-0.220	0.340
2020/01/31 20:00:50.7	3.390	0.460	-0.180	0.370
2020/01/31 20:00:50.8	3.340	0.440	-0.140	0.390
2020/01/31 20:00:50.9	3.290	0.410	-0.100	0.410
2020/01/31 20:00:51.0	3.250	0.370	-0.060	0.420
2020/01/31 20:00:51.1	3.210	0.340	-0.020	0.430
2020/01/31 20:00:51.2	3.170	0.300	0.010	0.420
2020/01/31 20:00:51.3	3.130	0.250	0.040	0.420
2020/01/31 20:00:51.4	3.100	0.210	0.070	0.400
2020/01/31 20:00:51.5	3.080	0.160	0.090	0.380
2020/01/31 20:00:51.6	3.050	0.110	0.110	0.350
2020/01/31 20:00:51.7	3.030	0.060	0.130	0.310
2020/01/31 20:00:51.8	3.020	0.010	0.140	0.270
2020/01/31 20:00:51.9	3.010	-0.040	0.150	0.230
2020/01/31 20:00:52.0	3.000	-0.090	0.150	0.180
2020/01/31 20:00:52.1	3.000	-0.140	0.150	0.130
2020/01/31 20:00:52.2	2.990	-0.200	0.140	0.070
2020/01/31 20:00:52.3	2.990	-0.250	0.130	0.020
2020/01/31 20:00:52.4	2.990	-0.300	0.120	-0.040
2020/01/31 20:00:52.5	3.000	-0.340	0.100	-0.100
2020/01/31 20:00:52.6	3.000	-0.390	0.080	-0.160
2020/01/31 20:00:52.7	3.010	-0.430	0.060	-0.220
2020/01/31 20:00:52.8	3.020	-0.470	0.040	-0.290
2020/01/31 20:00:52.9	3.030	-0.510	0.010	-0.350
2020/01/31 20:00:53.0	3.040	-0.550	-0.010	-0.420
2020/01/31 20:00:53.1	3.060	-0.580	-0.040	-0.480
2020/01/31 20:00:53.2	3.080	-0.610	-0.070	-0.550
2020/01/31 20:00:53.3	3.100	-0.630	-0.100	-0.620
2020/01/31 20:00:53.4	3.120	-0.650	-0.130	-0.680
2020/01/31 20:00:53.5	3.150	-0.670	-0.160	-0.740
2020/01/31 20:00:53.6	3.180	-0.680	-0.190	-0.810
2020/01/31 20:00:53.7	3.220	-0.680	-0.230	-0.870
2020/01/31 20:00:53.8	3.260	-0.680	-0.260	-0.930
2020/01/31 20:00:53.9	3.310	-0.680	-0.290	-0.990
2020/01/31 20:00:54.0	3.350	-0.670	-0.320	-1.050
2020/01/31 20:00:54.1	3.400	-0.650	-0.350	-1.110
2020/01/31 20:00:54.2	3.450	-0.630	-0.380	-1.160
2020/01/31 20:00:54.3	3.500	-0.610	-0.410	-1.210
2020/01/31 20:00:54.4	3.560	-0.580	-0.440	-1.250
2020/01/31 20:00:54.5	3.620	-0.550	-0.460	-1.300
2020/01/31 20:00:54.6	3.680	-0.510	-0.490	-1.330
2020/01/31 20:00:54.7	3.740	-0.470	-0.510	-1.370
2020/01/31 20:00:54.8	3.800	-0.420	-0.530	-1.390
2020/01/31 20:00:54.9	3.860	-0.370	-0.550	-1.420
2020/01/31 20:00:55.0	3.920	-0.320	-0.570	-1.430
2020/01/31 20:00:55.1	3.990	-0.270	-0.580	-1.440
2020/01/31 20:00:55.2	4.050	-0.210	-0.590	-1.440
2020/01/31 20:00:55.3	4.100	-0.160	-0.590	-1.440
2020/01/31 20:00:55.4	4.160	-0.100	-0.590	-1.430
2020/01/31 20:00:55.5	4.210	-0.050	-0.580	-1.410
2020/01/31 20:00:55.6	4.260	0.010	-0.570	-1.380
2020/01/31 20:00:55.7	4.310	0.060	-0.560	-1.350
2020/01/31 20:00:55.8	4.350	0.110	-0.540	-1.320
2020/01/31 20:00:55.9	4.380	0.160	-0.510	-1.270
2020/01/31 20:00:56.0	4.410	0.200	-0.480	-1.220
2020/01/31 20:00:56.1	4.440	0.250	-0.440	-1.170
2020/01/31 20:00:56.2	4.450	0.280	-0.400	-1.120
2020/01/31 20:00:56.3	4.470	0.310	-0.360	-1.060
2020/01/31 20:00:56.4	4.470	0.340	-0.310	-0.990
2020/01/31 20:00:56.5	4.470	0.360	-0.260	-0.920
2020/01/31 20:00:56.6	4.460	0.380	-0.200	-0.850
2020/01/31 20:00:56.7	4.450	0.390	-0.140	-0.780
2020/01/31 20:00:56.8	4.430	0.400	-0.080	-0.700
2020/01/31 20:00:56.9	4.400	0.400	-0.020	-0.620
2020/01/31 20:00:57.0	4.370	0.400	0.040	-0.540
2020/01/31 20:00:57.1	4.330	0.390	0.100	-0.460
2020/01/31 20:00:57.2	4.290	0.380	0.160	-0.390
2020/01/31 20:00:57.3	4.250	0.360	0.220	-0.310
2020/01/31 20:00:57.4	4.200	0.340	0.280	-0.230
2020/01/31 20:00:57.5	4.140	0.320	0.330	-0.150
2020/01/31 20:00:57.6	4.090	0.290	0.380	-0.080
2020/01/31 20:00:57.7	4.030	0.250	0.430	-0.010
2020/01/31 20:00:57.8	3.970	0.220	0.470	0.060
2020/01/31 20:00:57.9	3.900	0.180	0.500	0.130
2020/01/31 20:00:58.0	3.840	0.140	0.520	0.180
2020/01/31 20:00:58.1	3.780	0.100	0.540	0.240
2020/01/31 20:00:58.2	3.720	0.060	0.550	0.280
2020/01/31 20:00:58.3	3.670	0.020	0.550	0.320
2020/01/31 20:00:58.4	3.610	-0.020	0.540	0.360
2020/01/31 20:00:58.5	3.560	-0.060	0.520	0.380
2020/01/31 20:00:58.6	3.510	-0.100	0.500	0.400
2020/01/31 20:00:58.7	3.460	-0.130	0.460	0.410
2020/01/31 20:00:58.8	3.410	-0.160	0.420	0.420
2020/01/31 20:00:58.9	3.360	-0.190	0.370	0.410
2020/01/31 20:00:59.0	3.320	-0.220	0.310	0.400
2020/01/31 20:00:59.1	3.290	-0.240	0.240	0.380
2020/01/31 20:00:59.2	3.260	-0.260	0.170	0.350
2020/01/31 20:00:59.3	3.230	-0.270	0.090	0.330
2020/01/31 20:00:59.4	3.210	-0.280	0.000	0.290
2020/01/31 20:00:59.5	3.180	-0.290	-0.080	0.250
2020/01/31 20:00:59.6	3.170	-0.290	-0.180	0.210
2020/01/31 20:00:59.7	3.150	-0.280	-0.270	0.170
2020/01/31 20:00:59.8	3.130	-0.270	-0.360	0.120
2020/01/31 20:00:59.9	3.120	-0.260	-0.460	0.060
2020/01/31 20:01:00.0	3.110	-0.240	-0.550	0.010
2020/01/31 20:01:00.1	3.100	-0.220	-0.640	-0.040
2020/01/31 20:01:00.2	3.090	-0.200	-0.730	-0.090
2020/01/31 20:01:00.3	3.090	-0.170	-0.810	-0.150
2020/01/31 20:01:00.4	3.080	-0.130	-0.890	-0.200
2020/01/31 20:01:00.5	3.080	-0.100	-0.950	-0.240
2020/01/31 20:01:00.6	3.080	-0.060	-1.020	-0.290
2020/01/31 20:01:00.7	3.080	-0.020	-1.070	-0.330
2020/01/31 20:01:00.8	3.080	0.020	-1.110	-0.370
2020/01/31 20:01:00.9	3.080	0.060	-1.150	-0.410
2020/01/31 20:01:01.0	3.090	0.100	-1.180	-0.440
2020/01/31 20:01:01.1	3.090	0.140	-1.190	-0.460
2020/01/31 20:01:01.2	3.100	0.180	-1.200	-0.480
2020/01/31 20:01:01.3	3.110	0.220	-1.200	-0.500
2020/01/31 20:01:01.4	3.120	0.260	-1.190	-0.510
2020/01/31 20:01:01.5	3.140	0.300	-1.170	-0.510
2020/01/31 20:01:01.6	3.150	0.330	-1.140	-0.520
2020/01/31 20:01:01.7	3.170	0.360	-1.110	-0.510
2020/01/31 20:01:01.8	3.190	0.390	-1.070	-0.510
2020/01/31 20:01:01.9	3.220	0.420	-1.030	-0.500
2020/01/31 20:01:02.0	3.240	0.440	-0.980	-0.480
2020/01/31 20:01:02.1	3.270	0.460	-0.930	-0.470
2020/01/31 20:01:02.2	3.300	0.480	-0.870	-0.450
2020/01/31 20:01:02.3	3.330	0.490	-0.820	-0.430
2020/01/31 20:01:02.4	3.360	0.490	-0.760	-0.410
2020/01/31 20:01:02.5	3.400	0.500	-0.700	-0.400
2020/01/31 20:01:02.6	3.430	0.500	-0.650	-0.380
2020/01/31 20:01:02.7	3.470	0.490	-0.600	-0.360
2020/01/31 20:01:02.8	3.510	0.480	-0.550	-0.350
2020/01/31 20:01:02.9	3.550	0.470	-0.500	-0.330
2020/01/31 20:01:03.0	3.590	0.460	-0.460	-0.320
2020/01/31 20:01:03.1	3.630	0.440	-0.420	-0.310
2020/01/31 20:01:03.2	3.680	0.420	-0.380	-0.310
2020/01/31 20:01:03.3	3.730	0.390	-0.350	-0.300
2020/01/31 20:01:03.4	3.770	0.370	-0.320	-0.300
2020/01/31 20:01:03.5	3.820	0.340	-0.290	-0.310
2020/01/31 20:01:03.6	3.870	0.310	-0.270	-0.310
2020/01/31 20:01:03.7	3.920	0.270	-0.260	-0.320
2020/01/31 20:01:03.8	3.970	0.240	-0.250	-0.330
2020/01/31 20:01:03.9	4.020	0.210	-0.240	-0.350
2020/01/31 20:01:04.0	4.070	0.170	-0.230	-0.370
2020/01/31 20:01:04.1	4.120	0.140	-0.230	-0.390
2020/01/31 20:01:04.2	4.170	0.100	-0.240	-0.410
2020/01/31 20:01:04.3	4.220	0.070	-0.240	-0.430
2020/01/31 20:01:04.4	4.270	0.030	-0.250	-0.450
2020/01/31 20:01:04.5	4.320	-0.000	-0.260	-0.470
2020/01/31 20:01:04.6	4.370	-0.030	-0.270	-0.500
2020/01/31 20:01:04.7	4.410	-0.060	-0.280	-0.520
2020/01/31 20:01:04.8	4.450	-0.090	-0.290	-0.530
2020/01/31 20:01:04.9	4.500	-0.120	-0.300	-0.550
2020/01/31 20:01:05.0	4.530	-0.150	-0.300	-0.560
2020/01/31 20:01:05.1	4.560	-0.180	-0.310	-0.570
2020/01/31 20:01:05.2	4.580	-0.200	-0.310	-0.580
2020/01/31 20:01:05.3	4.600	-0.220	-0.300	-0.580
2020/01/31 20:01:05.4	4.620	-0.250	-0.300	-0.580
2020/01/31 20:01:05.5	4.630	-0.270	-0.280	-0.570
2020/01/31 20:01:05.6	4.630	-0.280	-0.270	-0.570
2020/01/31 20:01:05.7	4.630	-0.300	-0.250	-0.560
2020/01/31 20:01:05.8	4.630	-0.320	-0.230	-0.540
2020/01/31 20:01:05.9	4.620	-0.330	-0.200	-0.520
2020/01/31 20:01:06.0	4.600	-0.340	-0.160	-0.500
2020/01/31 20:01:06.1	4.590	-0.350	-0.130	-0.480
2020/01/31 20:01:06.2	4.560	-0.350	-0.090	-0.450
2020/01/31 20:01:06.3	4.540	-0.360	-0.050	-0.420
2020/01/31 20:01:06.4	4.510	-0.360	-0.010	-0.380
2020/01/31 20:01:06.5	4.480	-0.360	0.040	-0.350
2020/01/31 20:01:06.6	4.440	-0.360	0.090	-0.310
2020/01/31 20:01:06.7	4.400	-0.350	0.130	-0.270
2020/01/31 20:01:06.8	4.360	-0.350	0.180	-0.220
2020/01/31 20:01:06.9	4.310	-0.340	0.220	-0.180
2020/01/31 20:01:07.0	4.260	-0.320	0.260	-0.140
2020/01/31 20:01:07.1	4.210	-0.310	0.310	-0.090
2020/01/31 20:01:07.2	4.160	-0.290	0.340	-0.050
2020/01/31 20:01:07.3	4.110	-0.270	0.380	-0.000
2020/01/31 20:01:07.4	4.060	-0.250	0.410	0.040
2020/01/31 20:01:07.5	4.020	-0.230	0.430	0.090
2020/01/31 20:01:07.6	3.970	-0.200	0.450	0.130
2020/01/31 20:01:07.7	3.920	-0.170	0.460	0.170
2020/01/31 20:01:07.8	3.880	-0.140	0.470	0.200
2020/01/31 20:01:07.9	3.830	-0.110	0.470	0.240
2020/01/31 20:01:08.0	3.790	-0.070	0.460	0.270
2020/01/31 20:01:08.1	3.750	-0.040	0.460	0.300
2020/01/31 20:01:08.2	3.710	-0.000	0.440	0.320
2020/01/31 20:01:08.3	3.680	0.030	0.420	0.330
2020/01/31 20:01:08.4	3.650	0.070	0.390	0.350
2020/01/31 20:01:08.5	3.620	0.100	0.360	0.350
2020/01/31 20:01:08.6	3.600	0.140	0.330	0.360
2020/01/31 20:01:08.7	3.580	0.170	0.290	0.350
2020/01/31 20:01:08.8	3.560	0.200	0.240	0.350
2020/01/31 20:01:08.9	3.550	0.230	0.200	0.330
2020/01/31 20:01:09.0	3.540	0.260	0.160	0.310
2020/01/31 20:01:09.1	3.530	0.280	0.110	0.290
2020/01/31 20:01:09.2	3.530	0.300	0.060	0.270
2020/01/31 20:01:09.3	3.520	0.320	0.010	0.240
2020/01/31 20:01:09.4	3.530	0.340	-0.040	0.210
2020/01/31 20:01:09.5	3.530	0.350	-0.090	0.170
2020/01/31 20:01:09.6	3.540	0.350	-0.140	0.130
2020/01/31 20:01:09.7	3.550	0.360	-0.190	0.090
2020/01/31 20:01:09.8	3.560	0.360	-0.230	0.050
2020/01/31 20:01:09.9	3.570	0.350	-0.270	0.010
2020/01/31 20:01:10.0	3.590	0.340	-0.310	-0.040
2020/01/31 20:01:10.1	3.610	0.330	-0.340	-0.080
2020/01/31 20:01:10.2	3.620	0.320	-0.370	-0.130
2020/01/31 20:01:10.3	3.640	0.300	-0.400	-0.170
2020/01/31 20:01:10.4	3.660	0.270	-0.420	-0.220
2020/01/31 20:01:10.5	3.680	0.240	-0.440	-0.260
2020/01/31 20:01:10.6	3.690	0.210	-0.450	-0.300
2020/01/31 20:01:10.7	3.710	0.180	-0.450	-0.340
2020/01/31 20:01:10.8	3.720	0.140	-0.450	-0.380
2020/01/31 20:01:10.9	3.760	0.100	-0.450	-0.420
2020/01/31 20:01:11.0	3.770	0.060	-0.440	-0.460
2020/01/31 20:01:11.1	3.780	0.020	-0.420	-0.490
2020/01/31 20:01:11.2	3.790	-0.030	-0.400	-0.520
2020/01/31 20:01:11.3	3.790	-0.080	-0.380	-0.550
2020/01/31 20:01:11.4	3.790	-0.120	-0.360	-0.580
2020/01/31 20:01:11.5	3.800	-0.170	-0.330	-0.610
2020/01/31 20:01:11.6	3.800	-0.220	-0.300	-0.630
2020/01/31 20:01:11.7	3.790	-0.270	-0.270	-0.650
2020/01/31 20:01:11.8	3.790	-0.310	-0.230	-0.670
2020/01/31 20:01:11.9	3.780	-0.350	-0.200	-0.690
2020/01/31 20:01:12.0	3.770	-0.400	-0.170	-0.700
2020/01/31 20:01:12.1	3.770	-0.440	-0.140	-0.710
2020/01/31 20:01:12.2	3.760	-0.470	-0.110	-0.720
2020/01/31 20:01:12.3	3.750	-0.510	-0.080	-0.730
2020/01/31 20:01:12.4	3.740	-0.540	-0.060	-0.730
2020/01/31 20:01:12.5	3.730	-0.560	-0.040	-0.730
2020/01/31 20:01:12.6	3.710	-0.580	-0.020	-0.730
2020/01/31 20:01:12.7	3.700	-0.600	-0.010	-0.720
2020/01/31 20:01:12.8	3.690	-0.620	-0.000	-0.720
2020/01/31 20:01:12.9	3.680	-0.620	-0.010	-0.710
2020/01/31 20:01:13.0	3.670	-0.630	-0.010	-0.700
2020/01/31 20:01:13.1	3.660	-0.630	-0.020	-0.680
2020/01/31 20:01:13.2	3.660	-0.620	-0.040	-0.660
2020/01/31 20:01:13.3	3.650	-0.610	-0.060	-0.650
2020/01/31 20:01:13.4	3.640	-0.590	-0.080	-0.630
2020/01/31 20:01:13.5	3.630	-0.570	-0.110	-0.610
2020/01/31 20:01:13.6	3.630	-0.550	-0.150	-0.590
2020/01/31 20:01:13.7	3.620	-0.520	-0.190	-0.560
2020/01/31 20:01:13.8	3.620	-0.490	-0.230	-0.540
2020/01/31 20:01:13.9	3.610	-0.450	-0.280	-0.510
2020/01/31 20:01:14.0	3.600	-0.410	-0.330	-0.490
2020/01/31 20:01:14.1	3.600	-0.370	-0.380	-0.470
2020/01/31 20:01:14.2	3.600	-0.330	-0.430	-0.440
2020/01/31 20:01:14.3	3.600	-0.280	-0.490	-0.420
2020/01/31 20:01:14.4	3.600	-0.230	-0.540	-0.400
2020/01/31 20:01:14.5	3.600	-0.180	-0.600	-0.380
2020/01/31 20:01:14.6	3.600	-0.130	-0.660	-0.360
2020/01/31 20:01:14.7	3.610	-0.080	-0.720	-0.350
2020/01/31 20:01:14.8	3.610	-0.020	-0.780	-0.330
2020/01/31 20:01:14.9	3.630	0.030	-0.830	-0.310
2020/01/31 20:01:15.0	3.640	0.090	-0.890	-0.300
2020/01/31 20:01:15.1	3.650	0.140	-0.940	-0.280
2020/01/31 20:01:15.2	3.660	0.200	-1.000	-0.270
2020/01/31 20:01:15.3	3.680	0.260	-1.040	-0.250
2020/01/31 20:01:15.4	3.700	0.310	-1.090	-0.240
2020/01/31 20:01:15.5	3.720	0.360	-1.130	-0.230
2020/01/31 20:01:15.6	3.740	0.420	-1.170	-0.220
2020/01/31 20:01:15.7	3.770	0.470	-1.200	-0.210
2020/01/31 20:01:15.8	3.790	0.520	-1.230	-0.200
2020/01/31 20:01:15.9	3.820	0.570	-1.260	-0.190
2020/01/31 20:01:16.0	3.850	0.610	-1.280	-0.180
2020/01/31 20:01:16.1	3.890	0.660	-1.300	-0.170
2020/01/31 20:01:16.2	3.920	0.700	-1.310	-0.170
2020/01/31 20:01:16.3	3.960	0.730	-1.310	-0.160
2020/01/31 20:01:16.4	3.990	0.770	-1.310	-0.150
2020/01/31 20:01:16.5	4.030	0.800	-1.300	-0.150
2020/01/31 20:01:16.6	4.070	0.830	-1.290	-0.140
2020/01/31 20:01:16.7	4.110	0.850	-1.270	-0.140
2020/01/31 20:01:16.8	4.150	0.870	-1.240	-0.130
2020/01/31 20:01:16.9	4.190	0.880	-1.210	-0.130
2020/01/31 20:01:17.0	4.220	0.890	-1.170	-0.130
2020/01/31 20:01:17.1	4.260	0.900	-1.130	-0.130
2020/01/31 20:01:17.2	4.290	0.900	-1.080	-0.130
2020/01/31 20:01:17.3	4.330	0.900	-1.020	-0.130
2020/01/31 20:01:17.4	4.360	0.890	-0.960	-0.130
2020/01/31 20:01:17.5	4.390	0.870	-0.900	-0.130
2020/01/31 20:01:17.6	4.420	0.850	-0.830	-0.140
2020/01/31 20:01:17.7	4.440	0.830	-0.750	-0.140
2020/01/31 20:01:17.8	4.460	0.800	-0.670	-0.150
2020/01/31 20:01:17.9	4.480	0.760	-0.590	-0.160
2020/01/31 20:01:18.0	4.500	0.720	-0.500	-0.160
2020/01/31 20:01:18.1	4.510	0.670	-0.410	-0.170
2020/01/31 20:01:18.2	4.520	0.620	-0.310	-0.170
2020/01/31 20:01:18.3	4.530	0.570	-0.220	-0.180
2020/01/31 20:01:18.4	4.530	0.510	-0.120	-0.180
2020/01/31 20:01:18.5	4.530	0.440	-0.010	-0.180
2020/01/31 20:01:18.6	4.520	0.380	0.090	-0.180
2020/01/31 20:01:18.7	4.510	0.310	0.190	-0.180
2020/01/31 20:01:18.8	4.500	0.230	0.290	-0.180
2020/01/31 20:01:18.9	4.490	0.160	0.400	-0.170
2020/01/31 20:01:19.0	4.470	0.080	0.500	-0.170
2020/01/31 20:01:19.1	4.440	-0.000	0.600	-0.160
2020/01/31 20:01:19.2	4.410	-0.080	0.690	-0.160
2020/01/31 20:01:19.3	4.380	-0.160	0.790	-0.150
2020/01/31 20:01:19.4	4.350	-0.240	0.870	-0.140
2020/01/31 20:01:19.5	4.310	-0.330	0.960	-0.140
2020/01/31 20:01:19.6	4.270	-0.400	1.040	-0.130
2020/01/31 20:01:19.7	4.230	-0.480	1.110	-0.120
2020/01/31 20:01:19.8	4.180	-0.560	1.180	-0.120
2020/01/31 20:01:19.9	4.140	-0.630	1.240	-0.120
2020/01/31 20:01:20.0	4.090	-0.700	1.290	-0.110
2020/01/31 20:01:20.1	4.040	-0.760	1.340	-0.100
2020/01/31 20:01:20.2	4.000	-0.820	1.380	-0.100
2020/01/31 20:01:20.3	3.950	-0.880	1.410	-0.090
2020/01/31 20:01:20.4	3.900	-0.930	1.430	-0.080
2020/01/31 20:01:20.5	3.850	-0.970	1.440	-0.080
2020/01/31 20:01:20.6	3.800	-1.000	1.440	-0.070
2020/01/31 20:01:20.7	3.760	-1.030	1.440	-0.070
2020/01/31 20:01:20.8	3.710	-1.050	1.420	-0.060
2020/01/31 20:01:20.9	3.650	-1.070	1.400	-0.060
2020/01/31 20:01:21.0	3.610	-1.080	1.370	-0.050
2020/01/31 20:01:21.1	3.570	-1.070	1.330	-0.040
2020/01/31 20:01:21.2	3.530	-1.060	1.280	-0.040
2020/01/31 20:01:21.3	3.490	-1.050	1.220	-0.030
2020/01/31 20:01:21.4	3.450	-1.020	1.150	-0.020
2020/01/31 20:01:21.5	3.410	-0.990	1.080	-0.000
2020/01/31 20:01:21.6	3.370	-0.950	1.000	0.010
2020/01/31 20:01:21.7	3.330	-0.900	0.920	0.020
2020/01/31 20:01:21.8	3.300	-0.850	0.830	0.040
2020/01/31 20:01:21.9	3.260	-0.790	0.730	0.060
2020/01/31 20:01:22.0	3.230	-0.730	0.630	0.070
2020/01/31 20:01:22.1	3.190	-0.660	0.520	0.090
2020/01/31 20:01:22.2	3.160	-0.590	0.420	0.110
2020/01/31 20:01:22.3	3.130	-0.520	0.310	0.130
2020/01/31 20:01:22.4	3.100	-0.440	0.190	0.150
2020/01/31 20:01:22.5	3.080	-0.360	0.080	0.170
2020/01/31 20:01:22.6	3.050	-0.280	-0.040	0.180
2020/01/31 20:01:22.7	3.030	-0.200	-0.150	0.200
2020/01/31 20:01:22.8	3.000	-0.120	-0.260	0.210
2020/01/31 20:01:22.9	2.970	-0.040	-0.380	0.230
2020/01/31 20:01:23.0	2.960	0.040	-0.490	0.240
2020/01/31 20:01:23.1	2.940	0.120	-0.600	0.240
2020/01/31 20:01:23.2	2.920	0.190	-0.710	0.250
2020/01/31 20:01:23.3	2.910	0.270	-0.820	0.250
2020/01/31 20:01:23.4	2.900	0.330	-0.920	0.250
2020/01/31 20:01:23.5	2.890	0.400	-1.020	0.250
2020/01/31 20:01:23.6	2.880	0.450	-1.110	0.240
2020/01/31 20:01:23.7	2.880	0.510	-1.200	0.230
2020/01/31 20:01:23.8	2.880	0.560	-1.290	0.210
2020/01/31 20:01:23.9	2.890	0.600	-1.370	0.190
2020/01/31 20:01:24.0	2.900	0.640	-1.450	0.170
2020/01/31 20:01:24.1	2.910	0.670	-1.520	0.140
2020/01/31 20:01:24.2	2.930	0.690	-1.590	0.110
2020/01/31 20:01:24.3	2.940	0.710	-1.650	0.070
2020/01/31 20:01:24.4	2.970	0.730	-1.710	0.030
2020/01/31 20:01:24.5	2.990	0.740	-1.760	-0.010
2020/01/31 20:01:24.6	3.020	0.740	-1.800	-0.060
2020/01/31 20:01:24.7	3.060	0.740	-1.840	-0.110
2020/01/31 20:01:24.8	3.100	0.740	-1.880	-0.160
2020/01/31 20:01:24.9	3.140	0.730	-1.910	-0.220
2020/01/31 20:01:25.0	3.190	0.720	-1.930	-0.280
2020/01/31 20:01:25.1	3.240	0.700	-1.950	-0.340
2020/01/31 20:01:25.2	3.290	0.680	-1.960	-0.400
2020/01/31 20:01:25.3	3.350	0.650	-1.960	-0.460
2020/01/31 20:01:25.4	3.410	0.620	-1.960	-0.530
2020/01/31 20:01:25.5	3.470	0.590	-1.950	-0.590
2020/01/31 20:01:25.6	3.540	0.560	-1.940	-0.660
2020/01/31 20:01:25.7	3.600	0.530	-1.910	-0.720
2020/01/31 20:01:25.8	3.670	0.490	-1.880	-0.780
2020/01/31 20:01:25.9	3.750	0.460	-1.840	-0.840
2020/01/31 20:01:26.0	3.810	0.420	-1.800	-0.890
2020/01/31 20:01:26.1	3.880	0.380	-1.740	-0.950
2020/01/31 20:01:26.2	3.950	0.340	-1.680	-1.000
2020/01/31 20:01:26.3	4.010	0.300	-1.610	-1.040
2020/01/31 20:01:26.4	4.070	0.260	-1.530	-1.090
2020/01/31 20:01:26.5	4.140	0.220	-1.450	-1.130
2020/01/31 20:01:26.6	4.200	0.180	-1.350	-1.160
2020/01/31 20:01:26.7	4.260	0.140	-1.250	-1.200
2020/01/31 20:01:26.8	4.320	0.100	-1.150	-1.220
2020/01/31 20:01:26.9	4.370	0.060	-1.040	-1.250
2020/01/31 20:01:27.0	4.430	0.030	-0.920	-1.260
2020/01/31 20:01:27.1	4.480	-0.010	-0.790	-1.280
2020/01/31 20:01:27.2	4.520	-0.040	-0.660	-1.280
2020/01/31 20:01:27.3	4.560	-0.080	-0.530	-1.280
2020/01/31 20:01:27.4	4.600	-0.110	-0.400	-1.280
2020/01/31 20:01:27.5	4.640	-0.140	-0.260	-1.270
2020/01/31 20:01:27.6	4.670	-0.170	-0.120	-1.250
2020/01/31 20:01:27.7	4.690	-0.190	0.020	-1.220
2020/01/31 20:01:27.8	4.720	-0.220	0.160	-1.190
2020/01/31 20:01:27.9	4.720	-0.240	0.300	-1.160
2020/01/31 20:01:28.0	4.740	-0.260	0.430	-1.120
2020/01/31 20:01:28.1	4.740	-0.280	0.570	-1.070
2020/01/31 20:01:28.2	4.750	-0.290	0.700	-1.010
2020/01/31 20:01:28.3	4.740	-0.300	0.820	-0.950
2020/01/31 20:01:28.4	4.740	-0.320	0.940	-0.880
2020/01/31 20:01:28.5	4.730	-0.330	1.050	-0.810
2020/01/31 20:01:28.6	4.710	-0.330	1.150	-0.730
2020/01/31 20:01:28.7	4.690	-0.340	1.250	-0.650
2020/01/31 20:01:28.8	4.670	-0.340	1.330	-0.570
2020/01/31 20:01:28.9	4.640	-0.350	1.400	-0.480
2020/01/31 20:01:29.0	4.610	-0.350	1.470	-0.390
2020/01/31 20:01:29.1	4.570	-0.350	1.520	-0.300
2020/01/31 20:01:29.2	4.530	-0.340	1.560	-0.210
2020/01/31 20:01:29.3	4.490	-0.340	1.600	-0.120
2020/01/31 20:01:29.4	4.450	-0.330	1.620	-0.020
2020/01/31 20:01:29.5	4.400	-0.330	1.630	0.060
2020/01/31 20:01:29.6	4.350	-0.320	1.630	0.150
2020/01/31 20:01:29.7	4.300	-0.310	1.620	0.230
2020/01/31 20:01:29.8	4.250	-0.300	1.600	0.310
2020/01/31 20:01:29.9	4.190	-0.290	1.570	0.390
2020/01/31 20:01:30.0	4.140	-0.270	1.530	0.460
2020/01/31 20:01:30.1	4.080	-0.260	1.480	0.530
2020/01/31 20:01:30.2	4.020	-0.250	1.420	0.600
2020/01/31 20:01:30.3	3.970	-0.230	1.350	0.650
2020/01/31 20:01:30.4	3.910	-0.220	1.280	0.710
2020/01/31 20:01:30.5	3.850	-0.200	1.200	0.750
2020/01/31 20:01:30.6	3.800	-0.180	1.110	0.790
2020/01/31 20:01:30.7	3.740	-0.170	1.020	0.830
2020/01/31 20:01:30.8	3.690	-0.150	0.930	0.860
2020/01/31 20:01:30.9	3.630	-0.130	0.830	0.880
2020/01/31 20:01:31.0	3.580	-0.120	0.720	0.900
2020/01/31 20:01:31.1	3.530	-0.100	0.610	0.920
2020/01/31 20:01:31.2	3.480	-0.080	0.500	0.920
2020/01/31 20:01:31.3	3.430	-0.070	0.390	0.930
2020/01/31 20:01:31.4	3.390	-0.050	0.280	0.930
2020/01/31 20:01:31.5	3.350	-0.030	0.160	0.920
2020/01/31 20:01:31.6	3.310	-0.020	0.050	0.910
2020/01/31 20:01:31.7	3.270	-0.000	-0.070	0.890
2020/01/31 20:01:31.8	3.240	0.010	-0.180	0.860
2020/01/31 20:01:31.9	3.210	0.030	-0.290	0.830
2020/01/31 20:01:32.0	3.180	0.040	-0.400	0.790
2020/01/31 20:01:32.1	3.160	0.050	-0.510	0.750
2020/01/31 20:01:32.2	3.150	0.070	-0.610	0.710
2020/01/31 20:01:32.3	3.140	0.080	-0.720	0.650
2020/01/31 20:01:32.4	3.130	0.090	-0.810	0.590
2020/01/31 20:01:32.5	3.130	0.100	-0.900	0.530
2020/01/31 20:01:32.6	3.130	0.100	-0.990	0.460
2020/01/31 20:01:32.7	3.140	0.110	-1.070	0.390
2020/01/31 20:01:32.8	3.150	0.120	-1.150	0.320
2020/01/31 20:01:32.9	3.160	0.120	-1.220	0.240
2020/01/31 20:01:33.0	3.190	0.130	-1.280	0.150
2020/01/31 20:01:33.1	3.210	0.130	-1.340	0.070
2020/01/31 20:01:33.2	3.240	0.130	-1.390	-0.010
2020/01/31 20:01:33.3	3.280	0.130	-1.440	-0.100
2020/01/31 20:01:33.4	3.310	0.130	-1.470	-0.180
2020/01/31 20:01:33.5	3.360	0.130	-1.500	-0.260
2020/01/31 20:01:33.6	3.400	0.130	-1.530	-0.340
2020/01/31 20:01:33.7	3.450	0.130	-1.550	-0.420
2020/01/31 20:01:33.8	3.500	0.130	-1.550	-0.500
2020/01/31 20:01:33.9	3.550	0.130	-1.550	-0.580
2020/01/31 20:01:34.0	3.610	0.130	-1.550	-0.660
2020/01/31 20:01:34.1	3.660	0.120	-1.540	-0.730
2020/01/31 20:01:34.2	3.720	0.120	-1.520	-0.800
2020/01/31 20:01:34.3	3.780	0.110	-1.500	-0.860
2020/01/31 20:01:34.4	3.840	0.100	-1.470	-0.920
2020/01/31 20:01:34.5	3.900	0.100	-1.440	-0.980
2020/01/31 20:01:34.6	3.960	0.090	-1.400	-1.030
2020/01/31 20:01:34.7	4.020	0.080	-1.350	-1.080
2020/01/31 20:01:34.8	4.080	0.070	-1.310	-1.130
2020/01/31 20:01:34.9	4.130	0.060	-1.260	-1.170
2020/01/31 20:01:35.0	4.190	0.060	-1.210	-1.200
2020/01/31 20:01:35.1	4.250	0.050	-1.150	-1.240
2020/01/31 20:01:35.2	4.310	0.040	-1.090	-1.260
2020/01/31 20:01:35.3	4.360	0.030	-1.030	-1.280
2020/01/31 20:01:35.4	4.420	0.020	-0.980	-1.300
2020/01/31 20:01:35.5	4.470	0.010	-0.910	-1.300
2020/01/31 20:01:35.6	4.520	0.010	-0.860	-1.310
2020/01/31 20:01:35.7	4.560	-0.000	-0.790	-1.300
2020/01/31 20:01:35.8	4.610	-0.010	-0.730	-1.300
2020/01/31 20:01:35.9	4.650	-0.010	-0.680	-1.280
2020/01/31 20:01:36.0	4.690	-0.020	-0.620	-1.260
2020/01/31 20:01:36.1	4.720	-0.020	-0.560	-1.230
2020/01/31 20:01:36.2	4.750	-0.020	-0.510	-1.200
2020/01/31 20:01:36.3	4.780	-0.030	-0.450	-1.170
2020/01/31 20:01:36.4	4.800	-0.030	-0.400	-1.130
2020/01/31 20:01:36.5	4.820	-0.030	-0.350	-1.080
2020/01/31 20:01:36.6	4.830	-0.030	-0.290	-1.040
2020/01/31 20:01:36.7	4.840	-0.030	-0.240	-0.990
2020/01/31 20:01:36.8	4.840	-0.040	-0.190	-0.930
2020/01/31 20:01:36.9	4.830	-0.040	-0.150	-0.870
2020/01/31 20:01:37.0	4.820	-0.040	-0.100	-0.810
2020/01/31 20:01:37.1	4.800	-0.040	-0.060	-0.750
2020/01/31 20:01:37.2	4.780	-0.040	-0.010	-0.690
2020/01/31 20:01:37.3	4.760	-0.040	0.030	-0.620
2020/01/31 20:01:37.4	4.730	-0.040	0.070	-0.560
2020/01/31 20:01:37.5	4.700	-0.040	0.110	-0.500
2020/01/31 20:01:37.6	4.660	-0.040	0.150	-0.430
2020/01/31 20:01:37.7	4.610	-0.040	0.190	-0.370
2020/01/31 20:01:37.8	4.570	-0.040	0.230	-0.300
2020/01/31 20:01:37.9	4.510	-0.050	0.270	-0.240
2020/01/31 20:01:38.0	4.460	-0.050	0.300	-0.180
2020/01/31 20:01:38.1	4.410	-0.050	0.330	-0.110
2020/01/31 20:01:38.2	4.350	-0.050	0.360	-0.060
2020/01/31 20:01:38.3	4.290	-0.050	0.390	0.000
2020/01/31 20:01:38.4	4.230	-0.050	0.420	0.050
2020/01/31 20:01:38.5	4.170	-0.060	0.440	0.110
2020/01/31 20:01:38.6	4.110	-0.060	0.460	0.150
2020/01/31 20:01:38.7	4.050	-0.060	0.470	0.200
2020/01/31 20:01:38.8	3.990	-0.060	0.480	0.240
2020/01/31 20:01:38.9	3.930	-0.060	0.490	0.280
2020/01/31 20:01:39.0	3.880	-0.060	0.490	0.310
2020/01/31 20:01:39.1	3.820	-0.060	0.490	0.350
2020/01/31 20:01:39.2	3.770	-0.060	0.480	0.370
2020/01/31 20:01:39.3	3.720	-0.050	0.470	0.390
2020/01/31 20:01:39.4	3.680	-0.050	0.450	0.410
2020/01/31 20:01:39.5	3.630	-0.040	0.430	0.420
2020/01/31 20:01:39.6	3.600	-0.040	0.400	0.430
2020/01/31 20:01:39.7	3.560	-0.030	0.370	0.430
2020/01/31 20:01:39.8	3.530	-0.020	0.340	0.420
2020/01/31 20:01:39.9	3.510	-0.010	0.300	0.410
2020/01/31 20:01:40.0	3.490	0.010	0.260	0.400
2020/01/31 20:01:40.1	3.470	0.020	0.210	0.380
2020/01/31 20:01:40.2	3.450	0.040	0.160	0.360
2020/01/31 20:01:40.3	3.440	0.050	0.110	0.330
2020/01/31 20:01:40.4	3.440	0.070	0.050	0.300
2020/01/31 20:01:40.5	3.440	0.090	-0.000	0.270
2020/01/31 20:01:40.6	3.440	0.110	-0.060	0.230
2020/01/31 20:01:40.7	3.450	0.140	-0.120	0.200
2020/01/31 20:01:40.8	3.460	0.160	-0.180	0.160
2020/01/31 20:01:40.9	3.490	0.180	-0.240	0.110
2020/01/31 20:01:41.0	3.510	0.210	-0.300	0.070
2020/01/31 20:01:41.1	3.530	0.230	-0.350	0.030
2020/01/31 20:01:41.2	3.560	0.260	-0.410	-0.010
2020/01/31 20:01:41.3	3.590	0.280	-0.460	-0.060
2020/01/31 20:01:41.4	3.630	0.310	-0.510	-0.100
2020/01/31 20:01:41.5	3.660	0.330	-0.550	-0.140
2020/01/31 20:01:41.6	3.710	0.350	-0.590	-0.180
2020/01/31 20:01:41.7	3.750	0.370	-0.630	-0.210
2020/01/31 20:01:41.8	3.790	0.390	-0.660	-0.250
2020/01/31 20:01:41.9	3.840	0.410	-0.680	-0.280
2020/01/31 20:01:42.0	3.890	0.420	-0.700	-0.320
2020/01/31 20:01:42.1	3.940	0.440	-0.710	-0.340
2020/01/31 20:01:42.2	3.980	0.440	-0.710	-0.370
2020/01/31 20:01:42.3	4.030	0.450	-0.710	-0.400
2020/01/31 20:01:42.4	4.080	0.450	-0.700	-0.420
2020/01/31 20:01:42.5	4.130	0.450	-0.680	-0.440
2020/01/31 20:01:42.6	4.170	0.450	-0.660	-0.460
2020/01/31 20:01:42.7	4.220	0.440	-0.620	-0.470
2020/01/31 20:01:42.8	4.260	0.430	-0.590	-0.480
2020/01/31 20:01:42.9	4.300	0.410	-0.540	-0.490
2020/01/31 20:01:43.0	4.330	0.390	-0.490	-0.490
2020/01/31 20:01:43.1	4.360	0.370	-0.440	-0.480
2020/01/31 20:01:43.2	4.390	0.340	-0.390	-0.480
2020/01/31 20:01:43.3	4.420	0.320	-0.320	-0.470
2020/01/31 20:01:43.4	4.440	0.280	-0.260	-0.450
2020/01/31 20:01:43.5	4.450	0.250	-0.200	-0.440
2020/01/31 20:01:43.6	4.470	0.210	-0.130	-0.420
2020/01/31 20:01:43.7	4.480	0.170	-0.070	-0.400
2020/01/31 20:01:43.8	4.490	0.130	-0.010	-0.380
2020/01/31 20:01:43.9	4.510	0.080	0.050	-0.350
2020/01/31 20:01:44.0	4.510	0.030	0.110	-0.330
2020/01/31 20:01:44.1	4.510	-0.020	0.170	-0.310
2020/01/31 20:01:44.2	4.510	-0.060	0.220	-0.290
2020/01/31 20:01:44.3	4.500	-0.110	0.260	-0.270
2020/01/31 20:01:44.4	4.500	-0.160	0.300	-0.260
2020/01/31 20:01:44.5	4.490	-0.210	0.330	-0.250
2020/01/31 20:01:44.6	4.480	-0.260	0.360	-0.240
2020/01/31 20:01:44.7	4.470	-0.310	0.380	-0.230
2020/01/31 20:01:44.8	4.460	-0.360	0.390	-0.230
2020/01/31 20:01:44.9	4.450	-0.400	0.400	-0.230
2020/01/31 20:01:45.0	4.440	-0.440	0.400	-0.230
2020/01/31 20:01:45.1	4.430	-0.480	0.380	-0.240
2020/01/31 20:01:45.2	4.420	-0.520	0.360	-0.240
2020/01/31 20:01:45.3	4.410	-0.550	0.340	-0.250
2020/01/31 20:01:45.4	4.400	-0.580	0.310	-0.260
2020/01/31 20:01:45.5	4.390	-0.610	0.260	-0.270
2020/01/31 20:01:45.6	4.380	-0.630	0.220	-0.290
2020/01/31 20:01:45.7	4.370	-0.650	0.170	-0.300
2020/01/31 20:01:45.8	4.360	-0.660	0.110	-0.320
2020/01/31 20:01:45.9	4.350	-0.670	0.050	-0.340
2020/01/31 20:01:46.0	4.350	-0.670	-0.020	-0.370
2020/01/31 20:01:46.1	4.340	-0.670	-0.090	-0.390
2020/01/31 20:01:46.2	4.330	-0.670	-0.150	-0.410
2020/01/31 20:01:46.3	4.320	-0.660	-0.220	-0.440
2020/01/31 20:01:46.4	4.310	-0.650	-0.290	-0.460
2020/01/31 20:01:46.5	4.300	-0.640	-0.360	-0.490
2020/01/31 20:01:46.6	4.290	-0.620	-0.420	-0.510
2020/01/31 20:01:46.7	4.280	-0.590	-0.480	-0.540
2020/01/31 20:01:46.8	4.270	-0.570	-0.540	-0.560
2020/01/31 20:01:46.9	4.260	-0.540	-0.600	-0.580
2020/01/31 20:01:47.0	4.250	-0.510	-0.640	-0.600
2020/01/31 20:01:47.1	4.240	-0.470	-0.690	-0.620
2020/01/31 20:01:47.2	4.230	-0.430	-0.720	-0.630
2020/01/31 20:01:47.3	4.220	-0.400	-0.750	-0.640
2020/01/31 20:01:47.4	4.210	-0.360	-0.780	-0.650
2020/01/31 20:01:47.5	4.200	-0.310	-0.790	-0.650
2020/01/31 20:01:47.6	4.190	-0.270	-0.800	-0.650
2020/01/31 20:01:47.7	4.170	-0.230	-0.810	-0.640
2020/01/31 20:01:47.8	4.160	-0.190	-0.800	-0.630
2020/01/31 20:01:47.9	4.150	-0.150	-0.800	-0.610
2020/01/31 20:01:48.0	4.140	-0.100	-0.780	-0.590
2020/01/31 20:01:48.1	4.120	-0.060	-0.760	-0.570
2020/01/31 20:01:48.2	4.100	-0.020	-0.730	-0.540
2020/01/31 20:01:48.3	4.090	0.010	-0.710	-0.510
2020/01/31 20:01:48.4	4.070	0.050	-0.670	-0.480
2020/01/31 20:01:48.5	4.050	0.090	-0.640	-0.440
2020/01/31 20:01:48.6	4.030	0.120	-0.600	-0.410
2020/01/31 20:01:48.7	4.020	0.150	-0.560	-0.370
2020/01/31 20:01:48.8	4.000	0.180	-0.530	-0.320
2020/01/31 20:01:48.9	4.000	0.200	-0.490	-0.280
2020/01/31 20:01:49.0	3.980	0.230	-0.450	-0.240
2020/01/31 20:01:49.1	3.980	0.250	-0.420	-0.200
2020/01/31 20:01:49.2	3.970	0.270	-0.380	-0.150
2020/01/31 20:01:49.3	3.960	0.290	-0.350	-0.110
2020/01/31 20:01:49.4	3.960	0.310	-0.320	-0.070
2020/01/31 20:01:49.5	3.960	0.320	-0.300	-0.040
2020/01/31 20:01:49.6	3.970	0.330	-0.280	-0.000
2020/01/31 20:01:49.7	3.980	0.340	-0.260	0.030
2020/01/31 20:01:49.8	3.990	0.350	-0.250	0.060
2020/01/31 20:01:49.9	3.990	0.360	-0.240	0.080
2020/01/31 20:01:50.0	4.010	0.370	-0.240	0.100
2020/01/31 20:01:50.1	4.030	0.380	-0.240	0.120
2020/01/31 20:01:50.2	4.050	0.380	-0.250	0.140
2020/01/31 20:01:50.3	4.070	0.380	-0.250	0.150
2020/01/31 20:01:50.4	4.100	0.390	-0.260	0.160
2020/01/31 20:01:50.5	4.130	0.390	-0.280	0.170
2020/01/31 20:01:50.6	4.150	0.390	-0.290	0.170
2020/01/31 20:01:50.7	4.190	0.390	-0.310	0.170
2020/01/31 20:01:50.8	4.220	0.390	-0.330	0.170
2020/01/31 20:01:50.9	4.250	0.380	-0.350	0.170
2020/01/31 20:01:51.0	4.280	0.380	-0.370	0.160
2020/01/31 20:01:51.1	4.310	0.380	-0.390	0.150
2020/01/31 20:01:51.2	4.350	0.370	-0.410	0.140
2020/01/31 20:01:51.3	4.380	0.360	-0.420	0.130
2020/01/31 20:01:51.4	4.410	0.350	-0.440	0.120
2020/01/31 20:01:51.5	4.440	0.340	-0.450	0.100
2020/01/31 20:01:51.6	4.480	0.330	-0.460	0.080
2020/01/31 20:01:51.7	4.500	0.320	-0.460	0.070
2020/01/31 20:01:51.8	4.530	0.310	-0.470	0.050
2020/01/31 20:01:51.9	4.550	0.290	-0.470	0.030
2020/01/31 20:01:52.0	4.580	0.280	-0.460	0.010
2020/01/31 20:01:52.1	4.600	0.260	-0.450	-0.010
2020/01/31 20:01:52.2	4.620	0.240	-0.440	-0.030
2020/01/31 20:01:52.3	4.640	0.220	-0.430	-0.040
2020/01/31 20:01:52.4	4.660	0.200	-0.410	-0.060
2020/01/31 20:01:52.5	4.670	0.170	-0.390	-0.080
2020/01/31 20:01:52.6	4.680	0.150	-0.360	-0.100
2020/01/31 20:01:52.7	4.690	0.130	-0.330	-0.120
2020/01/31 20:01:52.8	4.700	0.100	-0.300	-0.140
2020/01/31 20:01:52.9	4.710	0.080	-0.270	-0.160
2020/01/31 20:01:53.0	4.720	0.050	-0.240	-0.170
2020/01/31 20:01:53.1	4.720	0.030	-0.210	-0.190
2020/01/31 20:01:53.2	4.720	0.010	-0.170	-0.200
2020/01/31 20:01:53.3	4.720	-0.020	-0.140	-0.220
2020/01/31 20:01:53.4	4.720	-0.040	-0.110	-0.230
2020/01/31 20:01:53.5	4.710	-0.060	-0.080	-0.240
2020/01/31 20:01:53.6	4.710	-0.080	-0.050	-0.250
2020/01/31 20:01:53.7	4.700	-0.090	-0.020	-0.260
2020/01/31 20:01:53.8	4.700	-0.110	0.010	-0.270
2020/01/31 20:01:53.9	4.690	-0.120	0.030	-0.280
2020/01/31 20:01:54.0	4.680	-0.130	0.050	-0.280
2020/01/31 20:01:54.1	4.680	-0.140	0.070	-0.290
2020/01/31 20:01:54.2	4.670	-0.150	0.090	-0.290
2020/01/31 20:01:54.3	4.660	-0.150	0.100	-0.300
2020/01/31 20:01:54.4	4.660	-0.150	0.100	-0.300
2020/01/31 20:01:54.5	4.650	-0.150	0.110	-0.300
2020/01/31 20:01:54.6	4.640	-0.140	0.110	-0.300
2020/01/31 20:01:54.7	4.640	-0.130	0.100	-0.310
2020/01/31 20:01:54.8	4.630	-0.120	0.100	-0.310
2020/01/31 20:01:54.9	4.620	-0.110	0.090	-0.300
2020/01/31 20:01:55.0	4.620	-0.090	0.080	-0.300
2020/01/31 20:01:55.1	4.610	-0.070	0.060	-0.300
2020/01/31 20:01:55.2	4.600	-0.050	0.040	-0.300
2020/01/31 20:01:55.3	4.590	-0.030	0.030	-0.290
2020/01/31 20:01:55.4	4.580	-0.010	0.010	-0.280
2020/01/31 20:01:55.5	4.570	0.010	-0.020	-0.270
2020/01/31 20:01:55.6	4.550	0.030	-0.040	-0.260
2020/01/31 20:01:55.7	4.530	0.050	-0.060	-0.240
2020/01/31 20:01:55.8	4.510	0.070	-0.080	-0.230
2020/01/31 20:01:55.9	4.500	0.090	-0.100	-0.210
2020/01/31 20:01:56.0	4.470	0.110	-0.120	-0.190
2020/01/31 20:01:56.1	4.440	0.130	-0.130	-0.180
2020/01/31 20:01:56.2	4.420	0.140	-0.150	-0.160
2020/01/31 20:01:56.3	4.390	0.150	-0.160	-0.150
2020/01/31 20:01:56.4	4.360	0.160	-0.170	-0.130
2020/01/31 20:01:56.5	4.330	0.160	-0.170	-0.120
2020/01/31 20:01:56.6	4.290	0.160	-0.170	-0.110
2020/01/31 20:01:56.7	4.260	0.160	-0.180	-0.100
2020/01/31 20:01:56.8	4.230	0.150	-0.170	-0.090
2020/01/31 20:01:56.9	4.210	0.140	-0.170	-0.080
2020/01/31 20:01:57.0	4.180	0.130	-0.160	-0.080
2020/01/31 20:01:57.1	4.150	0.110	-0.150	-0.070
2020/01/31 20:01:57.2	4.120	0.090	-0.140	-0.070
2020/01/31 20:01:57.3	4.100	0.070	-0.130	-0.070
2020/01/31 20:01:57.4	4.080	0.040	-0.120	-0.080
2020/01/31 20:01:57.5	4.060	0.010	-0.100	-0.080
2020/01/31 20:01:57.6	4.040	-0.020	-0.090	-0.090
2020/01/31 20:01:57.7	4.030	-0.050	-0.080	-0.100
2020/01/31 20:01:57.8	4.020	-0.090	-0.070	-0.110
2020/01/31 20:01:57.9	4.020	-0.130	-0.060	-0.130
2020/01/31 20:01:58.0	4.030	-0.160	-0.050	-0.140
2020/01/31 20:01:58.1	4.030	-0.200	-0.050	-0.160
2020/01/31 20:01:58.2	4.040	-0.230	-0.040	-0.190
2020/01/31 20:01:58.3	4.060	-0.270	-0.040	-0.210
2020/01/31 20:01:58.4	4.080	-0.300	-0.040	-0.240
2020/01/31 20:01:58.5	4.100	-0.340	-0.050	-0.270
2020/01/31 20:01:58.6	4.130	-0.370	-0.060	-0.300
2020/01/31 20:01:58.7	4.160	-0.390	-0.070	-0.330
2020/01/31 20:01:58.8	4.190	-0.420	-0.080	-0.360
2020/01/31 20:01:58.9	4.230	-0.440	-0.100	-0.390
2020/01/31 20:01:59.0	4.270	-0.460	-0.120	-0.430
2020/01/31 20:01:59.1	4.310	-0.480	-0.140	-0.460
2020/01/31 20:01:59.2	4.350	-0.490	-0.170	-0.490
2020/01/31 20:01:59.3	4.390	-0.500	-0.200	-0.520
2020/01/31 20:01:59.4	4.440	-0.510	-0.220	-0.550
2020/01/31 20:01:59.5	4.480	-0.510	-0.250	-0.580
2020/01/31 20:01:59.6	4.520	-0.510	-0.280	-0.610
2020/01/31 20:01:59.7	4.570	-0.500	-0.310	-0.640
2020/01/31 20:01:59.8	4.610	-0.500	-0.340	-0.660
2020/01/31 20:01:59.9	4.650	-0.490	-0.370	-0.680
2020/01/31 20:02:00.0	4.680	-0.470	-0.400	-0.700
2020/01/31 20:02:00.1	4.720	-0.450	-0.420	-0.710
2020/01/31 20:02:00.2	4.750	-0.430	-0.450	-0.720
2020/01/31 20:02:00.3	4.780	-0.410	-0.470	-0.730
2020/01/31 20:02:00.4	4.810	-0.380	-0.490	-0.730
2020/01/31 20:02:00.5	4.840	-0.360	-0.500	-0.730
2020/01/31 20:02:00.6	4.860	-0.330	-0.520	-0.720
2020/01/31 20:02:00.7	4.880	-0.290	-0.530	-0.710
2020/01/31 20:02:00.8	4.900	-0.260	-0.540	-0.700
2020/01/31 20:02:00.9	4.900	-0.230	-0.550	-0.680
2020/01/31 20:02:01.0	4.910	-0.190	-0.560	-0.660
2020/01/31 20:02:01.1	4.920	-0.160	-0.560	-0.630
2020/01/31 20:02:01.2	4.920	-0.120	-0.560	-0.600
2020/01/31 20:02:01.3	4.920	-0.090	-0.560	-0.570
2020/01/31 20:02:01.4	4.920	-0.050	-0.560	-0.530
2020/01/31 20:02:01.5	4.920	-0.010	-0.550	-0.490
2020/01/31 20:02:01.6	4.910	0.020	-0.550	-0.450
2020/01/31 20:02:01.7	4.900	0.050	-0.540	-0.400
2020/01/31 20:02:01.8	4.890	0.090	-0.530	-0.360
2020/01/31 20:02:01.9	4.870	0.120	-0.530	-0.310
2020/01/31 20:02:02.0	4.860	0.150	-0.520	-0.260
2020/01/31 20:02:02.1	4.850	0.180	-0.510	-0.220
2020/01/31 20:02:02.2	4.830	0.210	-0.500	-0.170
2020/01/31 20:02:02.3	4.820	0.240	-0.490	-0.120
2020/01/31 20:02:02.4	4.810	0.260	-0.480	-0.070
2020/01/31 20:02:02.5	4.800	0.290	-0.480	-0.030
2020/01/31 20:02:02.6	4.780	0.310	-0.470	0.020
2020/01/31 20:02:02.7	4.770	0.330	-0.470	0.060
2020/01/31 20:02:02.8	4.770	0.350	-0.470	0.100
2020/01/31 20:02:02.9	4.760	0.370	-0.470	0.130
2020/01/31 20:02:03.0	4.750	0.380	-0.460	0.170
2020/01/31 20:02:03.1	4.750	0.400	-0.460	0.200
2020/01/31 20:02:03.2	4.750	0.410	-0.470	0.220
2020/01/31 20:02:03.3	4.740	0.420	-0.470	0.250
2020/01/31 20:02:03.4	4.740	0.430	-0.470	0.270
2020/01/31 20:02:03.5	4.740	0.440	-0.470	0.280
2020/01/31 20:02:03.6	4.740	0.450	-0.470	0.300
2020/01/31 20:02:03.7	4.740	0.450	-0.470	0.310
2020/01/31 20:02:03.8	4.740	0.450	-0.460	0.320
2020/01/31 20:02:03.9	4.730	0.450	-0.450	0.320
2020/01/31 20:02:04.0	4.730	0.450	-0.450	0.330
2020/01/31 20:02:04.1	4.730	0.450	-0.430	0.330
2020/01/31 20:02:04.2	4.730	0.440	-0.410	0.330
2020/01/31 20:02:04.3	4.730	0.440	-0.390	0.330
2020/01/31 20:02:04.4	4.720	0.430	-0.370	0.330
2020/01/31 20:02:04.5	4.720	0.420	-0.340	0.320
2020/01/31 20:02:04.6	4.710	0.400	-0.310	0.320
2020/01/31 20:02:04.7	4.710	0.390	-0.270	0.310
2020/01/31 20:02:04.8	4.700	0.370	-0.230	0.300
2020/01/31 20:02:04.9	4.700	0.350	-0.190	0.300
2020/01/31 20:02:05.0	4.700	0.330	-0.140	0.290
2020/01/31 20:02:05.1	4.690	0.310	-0.090	0.280
2020/01/31 20:02:05.2	4.690	0.280	-0.040	0.270
2020/01/31 20:02:05.3	4.680	0.250	0.010	0.250
2020/01/31 20:02:05.4	4.680	0.220	0.070	0.240
2020/01/31 20:02:05.5	4.680	0.190	0.120	0.230
2020/01/31 20:02:05.6	4.670	0.160	0.170	0.210
2020/01/31 20:02:05.7	4.670	0.130	0.220	0.200
2020/01/31 20:02:05.8	4.660	0.090	0.270	0.180
2020/01/31 20:02:05.9	4.660	0.050	0.320	0.150
2020/01/31 20:02:06.0	4.650	0.020	0.360	0.130
2020/01/31 20:02:06.1	4.650	-0.020	0.400	0.100
2020/01/31 20:02:06.2	4.650	-0.060	0.430	0.080
2020/01/31 20:02:06.3	4.650	-0.100	0.450	0.050
2020/01/31 20:02:06.4	4.650	-0.140	0.480	0.020
2020/01/31 20:02:06.5	4.650	-0.180	0.490	-0.020
2020/01/31 20:02:06.6	4.650	-0.220	0.500	-0.060
2020/01/31 20:02:06.7	4.650	-0.260	0.500	-0.090
2020/01/31 20:02:06.8	4.650	-0.300	0.500	-0.130
2020/01/31 20:02:06.9	4.640	-0.330	0.480	-0.180
2020/01/31 20:02:07.0	4.640	-0.370	0.460	-0.220
2020/01/31 20:02:07.1	4.640	-0.400	0.440	-0.270
2020/01/31 20:02:07.2	4.650	-0.430	0.400	-0.310
2020/01/31 20:02:07.3	4.650	-0.460	0.360	-0.360
2020/01/31 20:02:07.4	4.660	-0.490	0.310	-0.410
2020/01/31 20:02:07.5	4.660	-0.510	0.260	-0.450
2020/01/31 20:02:07.6	4.670	-0.530	0.200	-0.500
2020/01/31 20:02:07.7	4.670	-0.550	0.130	-0.550
2020/01/31 20:02:07.8	4.680	-0.560	0.060	-0.590
2020/01/31 20:02:07.9	4.690	-0.570	-0.010	-0.640
2020/01/31 20:02:08.0	4.700	-0.570	-0.090	-0.690
2020/01/31 20:02:08.1	4.710	-0.570	-0.170	-0.740
2020/01/31 20:02:08.2	4.720	-0.570	-0.250	-0.780
2020/01/31 20:02:08.3	4.730	-0.570	-0.340	-0.820
2020/01/31 20:02:08.4	4.750	-0.560	-0.420	-0.870
2020/01/31 20:02:08.5	4.760	-0.540	-0.510	-0.910
2020/01/31 20:02:08.6	4.780	-0.520	-0.590	-0.950
2020/01/31 20:02:08.7	4.800	-0.500	-0.680	-0.990
2020/01/31 20:02:08.8	4.830	-0.470	-0.760	-1.030
2020/01/31 20:02:08.9	4.860	-0.450	-0.830	-1.070
2020/01/31 20:02:09.0	4.890	-0.410	-0.900	-1.110
2020/01/31 20:02:09.1	4.920	-0.380	-0.970	-1.150
2020/01/31 20:02:09.2	4.950	-0.340	-1.040	-1.190
2020/01/31 20:02:09.3	4.980	-0.300	-1.090	-1.230
2020/01/31 20:02:09.4	5.010	-0.260	-1.140	-1.270
2020/01/31 20:02:09.5	5.050	-0.220	-1.190	-1.300
2020/01/31 20:02:09.6	5.080	-0.170	-1.220	-1.330
2020/01/31 20:02:09.7	5.110	-0.130	-1.250	-1.360
2020/01/31 20:02:09.8	5.150	-0.080	-1.270	-1.390
2020/01/31 20:02:09.9	5.180	-0.040	-1.280	-1.410
2020/01/31 20:02:10.0	5.220	0.010	-1.280	-1.430
2020/01/31 20:02:10.1	5.250	0.050	-1.270	-1.440
2020/01/31 20:02:10.2	5.280	0.090	-1.250	-1.450
2020/01/31 20:02:10.3	5.310	0.140	-1.220	-1.450
2020/01/31 20:02:10.4	5.340	0.180	-1.190	-1.450
2020/01/31 20:02:10.5	5.360	0.210	-1.140	-1.440
2020/01/31 20:02:10.6	5.390	0.250	-1.090	-1.420
2020/01/31 20:02:10.7	5.410	0.280	-1.030	-1.390
2020/01/31 20:02:10.8	5.430	0.310	-0.960	-1.360
2020/01/31 20:02:10.9	5.460	0.340	-0.880	-1.320
2020/01/31 20:02:11.0	5.470	0.360	-0.800	-1.270
2020/01/31 20:02:11.1	5.480	0.380	-0.710	-1.220
2020/01/31 20:02:11.2	5.490	0.400	-0.620	-1.170
2020/01/31 20:02:11.3	5.500	0.410	-0.530	-1.110
2020/01/31 20:02:11.4	5.500	0.420	-0.430	-1.040
2020/01/31 20:02:11.5	5.510	0.430	-0.340	-0.980
2020/01/31 20:02:11.6	5.510	0.430	-0.240	-0.900
2020/01/31 20:02:11.7	5.510	0.430	-0.140	-0.830
2020/01/31 20:02:11.8	5.500	0.420	-0.050	-0.750
2020/01/31 20:02:11.9	5.490	0.420	0.040	-0.670
2020/01/31 20:02:12.0	5.480	0.410	0.130	-0.590
2020/01/31 20:02:12.1	5.470	0.390	0.210	-0.510
2020/01/31 20:02:12.2	5.460	0.380	0.290	-0.440
2020/01/31 20:02:12.3	5.450	0.360	0.360	-0.360
2020/01/31 20:02:12.4	5.440	0.340	0.430	-0.280
2020/01/31 20:02:12.5	5.430	0.320	0.480	-0.210
2020/01/31 20:02:12.6	5.420	0.300	0.530	-0.140
2020/01/31 20:02:12.7	5.400	0.280	0.580	-0.070
2020/01/31 20:02:12.8	5.390	0.260	0.610	-0.010
2020/01/31 20:02:12.9	5.370	0.230	0.640	0.050
2020/01/31 20:02:13.0	5.360	0.210	0.660	0.100
2020/01/31 20:02:13.1	5.340	0.190	0.670	0.150
2020/01/31 20:02:13.2	5.330	0.170	0.670	0.200
2020/01/31 20:02:13.3	5.310	0.140	0.660	0.240
2020/01/31 20:02:13.4	5.300	0.120	0.650	0.280
2020/01/31 20:02:13.5	5.280	0.100	0.630	0.320
2020/01/31 20:02:13.6	5.270	0.090	0.600	0.350
2020/01/31 20:02:13.7	5.250	0.070	0.570	0.380
2020/01/31 20:02:13.8	5.230	0.050	0.530	0.410
2020/01/31 20:02:13.9	5.210	0.040	0.480	0.430
2020/01/31 20:02:14.0	5.190	0.030	0.440	0.450
2020/01/31 20:02:14.1	5.170	0.020	0.380	0.470
2020/01/31 20:02:14.2	5.150	0.010	0.320	0.480
2020/01/31 20:02:14.3	5.130	-0.000	0.260	0.490
2020/01/31 20:02:14.4	5.120	-0.010	0.200	0.500
2020/01/31 20:02:14.5	5.100	-0.020	0.130	0.500
2020/01/31 20:02:14.6	5.080	-0.020	0.060	0.500
2020/01/31 20:02:14.7	5.060	-0.030	-0.010	0.490
2020/01/31 20:02:14.8	5.050	-0.030	-0.080	0.480
2020/01/31 20:02:14.9	5.020	-0.040	-0.150	0.470
2020/01/31 20:02:15.0	5.010	-0.040	-0.220	0.450
2020/01/31 20:02:15.1	5.000	-0.050	-0.290	0.420
2020/01/31 20:02:15.2	4.990	-0.050	-0.360	0.390
2020/01/31 20:02:15.3	4.980	-0.060	-0.430	0.360
2020/01/31 20:02:15.4	4.980	-0.060	-0.500	0.310
2020/01/31 20:02:15.5	4.980	-0.070	-0.560	0.270
2020/01/31 20:02:15.6	4.980	-0.080	-0.620	0.220
2020/01/31 20:02:15.7	4.980	-0.080	-0.680	0.170
2020/01/31 20:02:15.8	4.980	-0.090	-0.730	0.110
2020/01/31 20:02:15.9	4.980	-0.100	-0.780	0.040
2020/01/31 20:02:16.0	4.990	-0.110	-0.820	-0.020
2020/01/31 20:02:16.1	5.000	-0.120	-0.860	-0.090
2020/01/31 20:02:16.2	5.020	-0.140	-0.900	-0.160
2020/01/31 20:02:16.3	5.030	-0.150	-0.930	-0.240
2020/01/31 20:02:16.4	5.060	-0.160	-0.950	-0.310
2020/01/31 20:02:16.5	5.080	-0.170	-0.970	-0.390
2020/01/31 20:02:16.6	5.110	-0.190	-0.990	-0.460
2020/01/31 20:02:16.7	5.140	-0.200	-1.000	-0.540
2020/01/31 20:02:16.8	5.170	-0.220	-1.000	-0.620
2020/01/31 20:02:16.9	5.210	-0.230	-1.000	-0.700
2020/01/31 20:02:17.0	5.240	-0.240	-1.000	-0.770
2020/01/31 20:02:17.1	5.280	-0.260	-0.990	-0.850
2020/01/31 20:02:17.2	5.330	-0.270	-0.980	-0.920
2020/01/31 20:02:17.3	5.370	-0.280	-0.960	-0.990
2020/01/31 20:02:17.4	5.420	-0.300	-0.940	-1.060
2020/01/31 20:02:17.5	5.460	-0.310	-0.910	-1.130
2020/01/31 20:02:17.6	5.510	-0.310	-0.880	-1.190
2020/01/31 20:02:17.7	5.560	-0.320	-0.850	-1.250
2020/01/31 20:02:17.8	5.610	-0.330	-0.810	-1.310
2020/01/31 20:02:17.9	5.670	-0.330	-0.770	-1.360
2020/01/31 20:02:18.0	5.710	-0.340	-0.730	-1.410
2020/01/31 20:02:18.1	5.760	-0.340	-0.690	-1.450
2020/01/31 20:02:18.2	5.810	-0.340	-0.640	-1.490
2020/01/31 20:02:18.3	5.860	-0.330	-0.590	-1.520
2020/01/31 20:02:18.4	5.900	-0.330	-0.540	-1.540
2020/01/31 20:02:18.5	5.940	-0.320	-0.480	-1.560
2020/01/31 20:02:18.6	5.980	-0.320	-0.420	-1.560
2020/01/31 20:02:18.7	6.020	-0.310	-0.370	-1.570
2020/01/31 20:02:18.8	6.050	-0.300	-0.300	-1.560
2020/01/31 20:02:18.9	6.080	-0.280	-0.240	-1.540
2020/01/31 20:02:19.0	6.100	-0.270	-0.180	-1.520
2020/01/31 20:02:19.1	6.120	-0.260	-0.110	-1.500
2020/01/31 20:02:19.2	6.140	-0.240	-0.050	-1.470
2020/01/31 20:02:19.3	6.150	-0.230	0.020	-1.430
2020/01/31 20:02:19.4	6.150	-0.210	0.090	-1.380
2020/01/31 20:02:19.5	6.150	-0.200	0.150	-1.330
2020/01/31 20:02:19.6	6.150	-0.180	0.220	-1.270
2020/01/31 20:02:19.7	6.140	-0.170	0.280	-1.210
2020/01/31 20:02:19.8	6.130	-0.150	0.340	-1.150
2020/01/31 20:02:19.9	6.100	-0.140	0.400	-1.070
2020/01/31 20:02:20.0	6.080	-0.120	0.450	-1.000
2020/01/31 20:02:20.1	6.060	-0.110	0.500	-0.920
2020/01/31 20:02:20.2	6.030	-0.100	0.550	-0.840
2020/01/31 20:02:20.3	5.990	-0.080	0.590	-0.760
2020/01/31 20:02:20.4	5.960	-0.070	0.620	-0.680
2020/01/31 20:02:20.5	5.920	-0.060	0.650	-0.590
2020/01/31 20:02:20.6	5.870	-0.050	0.670	-0.510
2020/01/31 20:02:20.7	5.830	-0.040	0.680	-0.420
2020/01/31 20:02:20.8	5.790	-0.020	0.690	-0.330
2020/01/31 20:02:20.9	5.730	-0.010	0.690	-0.250
2020/01/31 20:02:21.0	5.690	-0.000	0.680	-0.170
2020/01/31 20:02:21.1	5.640	0.010	0.660	-0.090
2020/01/31 20:02:21.2	5.600	0.020	0.640	-0.010
2020/01/31 20:02:21.3	5.550	0.040	0.610	0.070
2020/01/31 20:02:21.4	5.510	0.050	0.580	0.140
2020/01/31 20:02:21.5	5.470	0.060	0.540	0.210
2020/01/31 20:02:21.6	5.430	0.080	0.490	0.270
2020/01/31 20:02:21.7	5.390	0.090	0.440	0.330
2020/01/31 20:02:21.8	5.360	0.110	0.380	0.390
2020/01/31 20:02:21.9	5.320	0.120	0.320	0.440
2020/01/31 20:02:22.0	5.300	0.140	0.250	0.480
2020/01/31 20:02:22.1	5.270	0.160	0.190	0.520
2020/01/31 20:02:22.2	5.250	0.180	0.110	0.550
2020/01/31 20:02:22.3	5.230	0.200	0.040	0.580
2020/01/31 20:02:22.4	5.210	0.220	-0.040	0.600
2020/01/31 20:02:22.5	5.200	0.240	-0.120	0.610
2020/01/31 20:02:22.6	5.180	0.260	-0.200	0.620
2020/01/31 20:02:22.7	5.170	0.290	-0.270	0.630
2020/01/31 20:02:22.8	5.170	0.310	-0.350	0.630
2020/01/31 20:02:22.9	5.160	0.340	-0.430	0.620
2020/01/31 20:02:23.0	5.160	0.360	-0.500	0.610
2020/01/31 20:02:23.1	5.160	0.380	-0.580	0.600
2020/01/31 20:02:23.2	5.150	0.410	-0.640	0.590
2020/01/31 20:02:23.3	5.150	0.430	-0.710	0.580
2020/01/31 20:02:23.4	5.150	0.460	-0.770	0.570
2020/01/31 20:02:23.5	5.150	0.480	-0.820	0.550
2020/01/31 20:02:23.6	5.150	0.500	-0.870	0.530
2020/01/31 20:02:23.7	5.150	0.520	-0.920	0.520
2020/01/31 20:02:23.8	5.150	0.540	-0.960	0.500
2020/01/31 20:02:23.9	5.150	0.550	-0.990	0.470
2020/01/31 20:02:24.0	5.160	0.570	-1.020	0.450
2020/01/31 20:02:24.1	5.160	0.580	-1.050	0.420
2020/01/31 20:02:24.2	5.170	0.590	-1.070	0.400
2020/01/31 20:02:24.3	5.180	0.590	-1.080	0.370
2020/01/31 20:02:24.4	5.190	0.590	-1.100	0.340
2020/01/31 20:02:24.5	5.200	0.590	-1.110	0.300
2020/01/31 20:02:24.6	5.210	0.590	-1.120	0.260
2020/01/31 20:02:24.7	5.230	0.580	-1.120	0.220
2020/01/31 20:02:24.8	5.250	0.570	-1.130	0.170
2020/01/31 20:02:24.9	5.270	0.550	-1.130	0.120
2020/01/31 20:02:25.0	5.300	0.540	-1.130	0.070
2020/01/31 20:02:25.1	5.330	0.510	-1.120	0.010
2020/01/31 20:02:25.2	5.360	0.490	-1.120	-0.050
2020/01/31 20:02:25.3	5.390	0.460	-1.110	-0.120
2020/01/31 20:02:25.4	5.430	0.430	-1.100	-0.190
2020/01/31 20:02:25.5	5.460	0.390	-1.090	-0.260
2020/01/31 20:02:25.6	5.510	0.360	-1.070	-0.340
2020/01/31 20:02:25.7	5.550	0.310	-1.060	-0.420
2020/01/31 20:02:25.8	5.600	0.270	-1.040	-0.500
2020/01/31 20:02:25.9	5.650	0.230	-1.030	-0.590
2020/01/31 20:02:26.0	5.700	0.180	-1.010	-0.680
2020/01/31 20:02:26.1	5.750	0.130	-0.990	-0.760
2020/01/31 20:02:26.2	5.810	0.080	-0.960	-0.850
2020/01/31 20:02:26.3	5.860	0.030	-0.940	-0.930
2020/01/31 20:02:26.4	5.920	-0.020	-0.910	-1.010
2020/01/31 20:02:26.5	5.970	-0.080	-0.870	-1.090
2020/01/31 20:02:26.6	6.020	-0.130	-0.840	-1.170
2020/01/31 20:02:26.7	6.070	-0.190	-0.790	-1.240
2020/01/31 20:02:26.8	6.110	-0.240	-0.750	-1.310
2020/01/31 20:02:26.9	6.160	-0.300	-0.700	-1.380
2020/01/31 20:02:27.0	6.200	-0.360	-0.640	-1.430
2020/01/31 20:02:27.1	6.240	-0.410	-0.580	-1.490
2020/01/31 20:02:27.2	6.270	-0.470	-0.510	-1.540
2020/01/31 20:02:27.3	6.300	-0.520	-0.440	-1.580
2020/01/31 20:02:27.4	6.320	-0.580	-0.370	-1.610
2020/01/31 20:02:27.5	6.350	-0.630	-0.290	-1.640
2020/01/31 20:02:27.6	6.360	-0.680	-0.200	-1.670
2020/01/31 20:02:27.7	6.380	-0.730	-0.110	-1.680
2020/01/31 20:02:27.8	6.390	-0.770	-0.020	-1.690
2020/01/31 20:02:27.9	6.400	-0.810	0.060	-1.700
2020/01/31 20:02:28.0	6.400	-0.850	0.160	-1.700
2020/01/31 20:02:28.1	6.400	-0.890	0.250	-1.690
2020/01/31 20:02:28.2	6.400	-0.920	0.340	-1.680
2020/01/31 20:02:28.3	6.400	-0.950	0.420	-1.660
2020/01/31 20:02:28.4	6.390	-0.970	0.510	-1.640
2020/01/31 20:02:28.5	6.380	-0.990	0.590	-1.610
2020/01/31 20:02:28.6	6.360	-1.000	0.660	-1.580
2020/01/31 20:02:28.7	6.350	-1.010	0.730	-1.540
2020/01/31 20:02:28.8	6.330	-1.010	0.790	-1.500
2020/01/31 20:02:28.9	6.320	-1.010	0.850	-1.450
2020/01/31 20:02:29.0	6.290	-1.000	0.900	-1.400
2020/01/31 20:02:29.1	6.270	-0.980	0.930	-1.340
2020/01/31 20:02:29.2	6.240	-0.960	0.970	-1.280
2020/01/31 20:02:29.3	6.210	-0.930	0.990	-1.220
2020/01/31 20:02:29.4	6.180	-0.900	1.000	-1.150
2020/01/31 20:02:29.5	6.140	-0.860	1.010	-1.080
2020/01/31 20:02:29.6	6.110	-0.820	1.000	-1.010
2020/01/31 20:02:29.7	6.070	-0.770	0.990	-0.940
2020/01/31 20:02:29.8	6.030	-0.710	0.970	-0.860
2020/01/31 20:02:29.9	5.990	-0.650	0.940	-0.790
2020/01/31 20:02:30.0	5.960	-0.590	0.900	-0.710
2020/01/31 20:02:30.1	5.920	-0.520	0.860	-0.640
2020/01/31 20:02:30.2	5.880	-0.450	0.810	-0.560
2020/01/31 20:02:30.3	5.840	-0.370	0.750	-0.480
2020/01/31 20:02:30.4	5.800	-0.290	0.690	-0.410
2020/01/31 20:02:30.5	5.760	-0.210	0.630	-0.340
2020/01/31 20:02:30.6	5.720	-0.130	0.560	-0.260
2020/01/31 20:02:30.7	5.690	-0.050	0.490	-0.190
2020/01/31 20:02:30.8	5.650	0.040	0.410	-0.130
2020/01/31 20:02:30.9	5.610	0.120	0.330	-0.060
2020/01/31 20:02:31.0	5.570	0.210	0.250	0.000
2020/01/31 20:02:31.1	5.540	0.290	0.170	0.060
2020/01/31 20:02:31.2	5.500	0.370	0.090	0.120
2020/01/31 20:02:31.3	5.470	0.450	0.010	0.170
2020/01/31 20:02:31.4	5.440	0.520	-0.070	0.210
2020/01/31 20:02:31.5	5.410	0.590	-0.150	0.260
2020/01/31 20:02:31.6	5.380	0.650	-0.220	0.290
2020/01/31 20:02:31.7	5.350	0.710	-0.300	0.330
2020/01/31 20:02:31.8	5.320	0.770	-0.370	0.350
2020/01/31 20:02:31.9	5.290	0.820	-0.440	0.380
2020/01/31 20:02:32.0	5.260	0.860	-0.510	0.390
2020/01/31 20:02:32.1	5.250	0.890	-0.570	0.410
2020/01/31 20:02:32.2	5.230	0.920	-0.630	0.410
2020/01/31 20:02:32.3	5.220	0.950	-0.680	0.410
2020/01/31 20:02:32.4	5.210	0.960	-0.740	0.410
2020/01/31 20:02:32.5	5.200	0.970	-0.780	0.400
2020/01/31 20:02:32.6	5.200	0.970	-0.830	0.380
2020/01/31 20:02:32.7	5.200	0.970	-0.870	0.360
2020/01/31 20:02:32.8	5.210	0.960	-0.910	0.340
2020/01/31 20:02:32.9	5.210	0.940	-0.940	0.300
2020/01/31 20:02:33.0	5.220	0.920	-0.970	0.270
2020/01/31 20:02:33.1	5.240	0.890	-1.000	0.220
2020/01/31 20:02:33.2	5.260	0.860	-1.020	0.180
2020/01/31 20:02:33.3	5.290	0.820	-1.040	0.130
2020/01/31 20:02:33.4	5.320	0.780	-1.060	0.070
2020/01/31 20:02:33.5	5.360	0.730	-1.070	0.010
2020/01/31 20:02:33.6	5.400	0.690	-1.080	-0.050
2020/01/31 20:02:33.7	5.440	0.640	-1.090	-0.120
2020/01/31 20:02:33.8	5.490	0.580	-1.090	-0.190
2020/01/31 20:02:33.9	5.530	0.530	-1.090	-0.260
2020/01/31 20:02:34.0	5.580	0.470	-1.090	-0.340
2020/01/31 20:02:34.1	5.620	0.420	-1.080	-0.410
2020/01/31 20:02:34.2	5.670	0.360	-1.060	-0.480
2020/01/31 20:02:34.3	5.720	0.300	-1.050	-0.560
2020/01/31 20:02:34.4	5.770	0.240	-1.020	-0.630
2020/01/31 20:02:34.5	5.820	0.190	-0.990	-0.690
2020/01/31 20:02:34.6	5.870	0.130	-0.960	-0.760
2020/01/31 20:02:34.7	5.920	0.070	-0.920	-0.820
2020/01/31 20:02:34.8	5.960	0.020	-0.880	-0.880
2020/01/31 20:02:34.9	6.000	-0.030	-0.830	-0.940
2020/01/31 20:02:35.0	6.040	-0.080	-0.780	-0.990
2020/01/31 20:02:35.1	6.080	-0.130	-0.720	-1.040
2020/01/31 20:02:35.2	6.110	-0.180	-0.660	-1.080
2020/01/31 20:02:35.3	6.150	-0.220	-0.590	-1.120
2020/01/31 20:02:35.4	6.180	-0.270	-0.520	-1.150
2020/01/31 20:02:35.5	6.200	-0.310	-0.450	-1.180
2020/01/31 20:02:35.6	6.220	-0.340	-0.380	-1.200
2020/01/31 20:02:35.7	6.240	-0.380	-0.310	-1.220
2020/01/31 20:02:35.8	6.260	-0.410	-0.240	-1.230
2020/01/31 20:02:35.9	6.270	-0.430	-0.160	-1.230
2020/01/31 20:02:36.0	6.280	-0.460	-0.090	-1.230
2020/01/31 20:02:36.1	6.290	-0.470	-0.020	-1.230
2020/01/31 20:02:36.2	6.290	-0.490	0.040	-1.220
2020/01/31 20:02:36.3	6.290	-0.500	0.100	-1.200
2020/01/31 20:02:36.4	6.290	-0.510	0.160	-1.180
2020/01/31 20:02:36.5	6.290	-0.520	0.210	-1.160
2020/01/31 20:02:36.6	6.280	-0.520	0.260	-1.130
2020/01/31 20:02:36.7	6.280	-0.520	0.300	-1.110
2020/01/31 20:02:36.8	6.270	-0.510	0.340	-1.080
2020/01/31 20:02:36.9	6.260	-0.500	0.360	-1.040
2020/01/31 20:02:37.0	6.250	-0.490	0.380	-1.010
2020/01/31 20:02:37.1	6.240	-0.480	0.400	-0.970
2020/01/31 20:02:37.2	6.230	-0.460	0.400	-0.930
2020/01/31 20:02:37.3	6.210	-0.440	0.400	-0.890
2020/01/31 20:02:37.4	6.200	-0.420	0.400	-0.850
2020/01/31 20:02:37.5	6.180	-0.390	0.380	-0.810
2020/01/31 20:02:37.6	6.170	-0.370	0.360	-0.770
2020/01/31 20:02:37.7	6.150	-0.340	0.340	-0.730
2020/01/31 20:02:37.8	6.130	-0.310	0.310	-0.680
2020/01/31 20:02:37.9	6.120	-0.280	0.270	-0.640
2020/01/31 20:02:38.0	6.100	-0.250	0.230	-0.600
2020/01/31 20:02:38.1	6.080	-0.220	0.190	-0.560
2020/01/31 20:02:38.2	6.060	-0.190	0.140	-0.530
2020/01/31 20:02:38.3	6.040	-0.160	0.100	-0.490
2020/01/31 20:02:38.4	6.020	-0.130	0.050	-0.460
2020/01/31 20:02:38.5	6.010	-0.110	-0.000	-0.430
2020/01/31 20:02:38.6	5.990	-0.080	-0.050	-0.400
2020/01/31 20:02:38.7	5.970	-0.060	-0.100	-0.380
2020/01/31 20:02:38.8	5.960	-0.030	-0.150	-0.360
2020/01/31 20:02:38.9	5.950	-0.010	-0.200	-0.340
2020/01/31 20:02:39.0	5.940	0.010	-0.250	-0.320
2020/01/31 20:02:39.1	5.930	0.020	-0.290	-0.310
2020/01/31 20:02:39.2	5.920	0.030	-0.340	-0.300
2020/01/31 20:02:39.3	5.910	0.050	-0.380	-0.290
2020/01/31 20:02:39.4	5.900	0.050	-0.420	-0.280
2020/01/31 20:02:39.5	5.900	0.060	-0.460	-0.280
2020/01/31 20:02:39.6	5.890	0.060	-0.490	-0.280
2020/01/31 20:02:39.7	5.890	0.060	-0.520	-0.270
2020/01/31 20:02:39.8	5.880	0.060	-0.550	-0.270
2020/01/31 20:02:39.9	5.880	0.060	-0.570	-0.280
2020/01/31 20:02:40.0	5.880	0.050	-0.590	-0.280
2020/01/31 20:02:40.1	5.880	0.040	-0.610	-0.280
2020/01/31 20:02:40.2	5.880	0.030	-0.620	-0.280
2020/01/31 20:02:40.3	5.880	0.020	-0.620	-0.280
2020/01/31 20:02:40.4	5.870	0.010	-0.620	-0.280
2020/01/31 20:02:40.5	5.870	-0.010	-0.620	-0.290
2020/01/31 20:02:40.6	5.870	-0.020	-0.620	-0.290
2020/01/31 20:02:40.7	5.870	-0.040	-0.610	-0.290
2020/01/31 20:02:40.8	5.870	-0.060	-0.590	-0.300
2020/01/31 20:02:40.9	5.870	-0.080	-0.580	-0.300
2020/01/31 20:02:41.0	5.860	-0.090	-0.560	-0.300
2020/01/31 20:02:41.1	5.860	-0.110	-0.540	-0.300
2020/01/31 20:02:41.2	5.860	-0.130	-0.510	-0.310
2020/01/31 20:02:41.3	5.860	-0.140	-0.490	-0.310
2020/01/31 20:02:41.4	5.860	-0.150	-0.460	-0.310
2020/01/31 20:02:41.5	5.860	-0.160	-0.440	-0.310
2020/01/31 20:02:41.6	5.860	-0.170	-0.410	-0.310
2020/01/31 20:02:41.7	5.860	-0.180	-0.390	-0.300
2020/01/31 20:02:41.8	5.860	-0.180	-0.360	-0.300
2020/01/31 20:02:41.9	5.860	-0.180	-0.340	-0.300
2020/01/31 20:02:42.0	5.870	-0.180	-0.310	-0.300
2020/01/31 20:02:42.1	5.870	-0.170	-0.290	-0.300
2020/01/31 20:02:42.2	5.880	-0.160	-0.270	-0.290
2020/01/31 20:02:42.3	5.880	-0.150	-0.260	-0.290
2020/01/31 20:02:42.4	5.890	-0.130	-0.250	-0.280
2020/01/31 20:02:42.5	5.900	-0.110	-0.240	-0.280
2020/01/31 20:02:42.6	5.910	-0.090	-0.230	-0.270
2020/01/31 20:02:42.7	5.920	-0.060	-0.220	-0.260
2020/01/31 20:02:42.8	5.930	-0.030	-0.220	-0.250
2020/01/31 20:02:42.9	5.940	0.010	-0.220	-0.240
2020/01/31 20:02:43.0	5.950	0.040	-0.220	-0.220
2020/01/31 20:02:43.1	5.960	0.080	-0.230	-0.210
2020/01/31 20:02:43.2	5.970	0.120	-0.230	-0.190
2020/01/31 20:02:43.3	5.980	0.170	-0.240	-0.170
2020/01/31 20:02:43.4	5.990	0.210	-0.250	-0.150
2020/01/31 20:02:43.5	6.000	0.260	-0.250	-0.120
2020/01/31 20:02:43.6	6.010	0.300	-0.260	-0.100
2020/01/31 20:02:43.7	6.010	0.340	-0.260	-0.070
2020/01/31 20:02:43.8	6.020	0.390	-0.270	-0.040
2020/01/31 20:02:43.9	6.020	0.430	-0.280	-0.010
2020/01/31 20:02:44.0	6.020	0.470	-0.280	0.020
2020/01/31 20:02:44.1	6.020	0.510	-0.280	0.050
2020/01/31 20:02:44.2	6.020	0.540	-0.270	0.080
2020/01/31 20:02:44.3	6.020	0.570	-0.270	0.110
2020/01/31 20:02:44.4	6.010	0.600	-0.260	0.140
2020/01/31 20:02:44.5	6.010	0.620	-0.250	0.170
2020/01/31 20:02:44.6	6.000	0.640	-0.230	0.200
2020/01/31 20:02:44.7	5.990	0.650	-0.210	0.230
2020/01/31 20:02:44.8	5.980	0.660	-0.190	0.250
2020/01/31 20:02:44.9	5.980	0.670	-0.170	0.280
2020/01/31 20:02:45.0	5.960	0.660	-0.140	0.300
2020/01/31 20:02:45.1	5.950	0.660	-0.120	0.320
2020/01/31 20:02:45.2	5.940	0.640	-0.090	0.330
2020/01/31 20:02:45.3	5.920	0.620	-0.060	0.350
2020/01/31 20:02:45.4	5.910	0.600	-0.020	0.360
2020/01/31 20:02:45.5	5.890	0.570	0.010	0.370
2020/01/31 20:02:45.6	5.880	0.540	0.040	0.370
2020/01/31 20:02:45.7	5.860	0.500	0.070	0.380
2020/01/31 20:02:45.8	5.850	0.460	0.110	0.380
2020/01/31 20:02:45.9	5.830	0.420	0.130	0.370
2020/01/31 20:02:46.0	5.820	0.370	0.160	0.370
2020/01/31 20:02:46.1	5.800	0.320	0.190	0.360
2020/01/31 20:02:46.2	5.790	0.260	0.210	0.350
2020/01/31 20:02:46.3	5.770	0.210	0.230	0.340
2020/01/31 20:02:46.4	5.760	0.150	0.250	0.320
2020/01/31 20:02:46.5	5.740	0.090	0.260	0.310
2020/01/31 20:02:46.6	5.730	0.030	0.270	0.290
2020/01/31 20:02:46.7	5.720	-0.030	0.270	0.260
2020/01/31 20:02:46.8	5.700	-0.090	0.280	0.240
2020/01/31 20:02:46.9	5.690	-0.150	0.280	0.210
2020/01/31 20:02:47.0	5.670	-0.200	0.270	0.180
2020/01/31 20:02:47.1	5.660	-0.260	0.260	0.140
2020/01/31 20:02:47.2	5.650	-0.310	0.240	0.100
2020/01/31 20:02:47.3	5.640	-0.360	0.220	0.060
2020/01/31 20:02:47.4	5.630	-0.410	0.190	0.020
2020/01/31 20:02:47.5	5.630	-0.450	0.160	-0.030
2020/01/31 20:02:47.6	5.620	-0.490	0.120	-0.080
2020/01/31 20:02:47.7	5.620	-0.520	0.080	-0.130
2020/01/31 20:02:47.8	5.620	-0.550	0.040	-0.190
2020/01/31 20:02:47.9	5.620	-0.580	-0.010	-0.250
2020/01/31 20:02:48.0	5.620	-0.590	-0.060	-0.310
2020/01/31 20:02:48.1	5.630	-0.610	-0.120	-0.370
2020/01/31 20:02:48.2	5.630	-0.620	-0.180	-0.430
2020/01/31 20:02:48.3	5.640	-0.620	-0.240	-0.490
2020/01/31 20:02:48.4	5.650	-0.620	-0.300	-0.550
2020/01/31 20:02:48.5	5.660	-0.610	-0.360	-0.600
2020/01/31 20:02:48.6	5.670	-0.600	-0.420	-0.660
2020/01/31 20:02:48.7	5.690	-0.580	-0.490	-0.710
2020/01/31 20:02:48.8	5.700	-0.560	-0.550	-0.770
2020/01/31 20:02:48.9	5.720	-0.530	-0.610	-0.820
2020/01/31 20:02:49.0	5.740	-0.500	-0.660	-0.870
2020/01/31 20:02:49.1	5.760	-0.460	-0.710	-0.910
2020/01/31 20:02:49.2	5.770	-0.420	-0.760	-0.950
2020/01/31 20:02:49.3	5.790	-0.380	-0.810	-0.980
2020/01/31 20:02:49.4	5.810	-0.330	-0.840	-1.010
2020/01/31 20:02:49.5	5.830	-0.280	-0.880	-1.040
2020/01/31 20:02:49.6	5.850	-0.230	-0.910	-1.060
2020/01/31 20:02:49.7	5.870	-0.170	-0.930	-1.070
2020/01/31 20:02:49.8	5.890	-0.120	-0.950	-1.080
2020/01/31 20:02:49.9	5.920	-0.060	-0.960	-1.080
2020/01/31 20:02:50.0	5.940	-0.000	-0.960	-1.070
2020/01/31 20:02:50.1	5.960	0.050	-0.960	-1.060
2020/01/31 20:02:50.2	5.970	0.110	-0.950	-1.040
2020/01/31 20:02:50.3	5.990	0.160	-0.940	-1.020
2020/01/31 20:02:50.4	6.000	0.220	-0.920	-0.990
2020/01/31 20:02:50.5	6.010	0.270	-0.900	-0.950
2020/01/31 20:02:50.6	6.020	0.320	-0.870	-0.910
2020/01/31 20:02:50.7	6.030	0.360	-0.840	-0.870
2020/01/31 20:02:50.8	6.040	0.410	-0.810	-0.830
2020/01/31 20:02:50.9	6.050	0.440	-0.780	-0.770
2020/01/31 20:02:51.0	6.050	0.480	-0.740	-0.720
2020/01/31 20:02:51.1	6.060	0.510	-0.700	-0.670
2020/01/31 20:02:51.2	6.060	0.540	-0.650	-0.610
2020/01/31 20:02:51.3	6.070	0.560	-0.610	-0.560
2020/01/31 20:02:51.4	6.070	0.580	-0.570	-0.500
2020/01/31 20:02:51.5	6.070	0.590	-0.520	-0.440
2020/01/31 20:02:51.6	6.070	0.600	-0.480	-0.390
2020/01/31 20:02:51.7	6.070	0.600	-0.440	-0.330
2020/01/31 20:02:51.8	6.070	0.600	-0.390	-0.280
2020/01/31 20:02:51.9	6.060	0.590	-0.350	-0.230
2020/01/31 20:02:52.0	6.050	0.580	-0.310	-0.180
2020/01/31 20:02:52.1	6.050	0.560	-0.270	-0.130
2020/01/31 20:02:52.2	6.040	0.540	-0.240	-0.080
2020/01/31 20:02:52.3	6.030	0.520	-0.200	-0.040
2020/01/31 20:02:52.4	6.020	0.490	-0.160	0.000
2020/01/31 20:02:52.5	6.010	0.450	-0.130	0.040
2020/01/31 20:02:52.6	6.000	0.420	-0.090	0.070
2020/01/31 20:02:52.7	5.980	0.380	-0.060	0.100
2020/01/31 20:02:52.8	5.960	0.330	-0.030	0.130
2020/01/31 20:02:52.9	5.940	0.280	-0.000	0.150
2020/01/31 20:02:53.0	5.920	0.230	0.020	0.170
2020/01/31 20:02:53.1	5.900	0.180	0.050	0.190
2020/01/31 20:02:53.2	5.880	0.130	0.070	0.200
2020/01/31 20:02:53.3	5.870	0.080	0.100	0.210
2020/01/31 20:02:53.4	5.850	0.020	0.120	0.210
2020/01/31 20:02:53.5	5.830	-0.030	0.140	0.210
2020/01/31 20:02:53.6	5.810	-0.090	0.150	0.210
2020/01/31 20:02:53.7	5.790	-0.140	0.170	0.210
2020/01/31 20:02:53.8	5.770	-0.190	0.180	0.200
2020/01/31 20:02:53.9	5.740	-0.240	0.200	0.190
2020/01/31 20:02:54.0	5.730	-0.290	0.200	0.180
2020/01/31 20:02:54.1	5.710	-0.340	0.210	0.160
2020/01/31 20:02:54.2	5.690	-0.380	0.220	0.150
2020/01/31 20:02:54.3	5.670	-0.420	0.220	0.130
2020/01/31 20:02:54.4	5.660	-0.460	0.220	0.120
2020/01/31 20:02:54.5	5.650	-0.490	0.220	0.100
2020/01/31 20:02:54.6	5.630	-0.520	0.210	0.070
2020/01/31 20:02:54.7	5.620	-0.550	0.210	0.050
2020/01/31 20:02:54.8	5.610	-0.570	0.200	0.030
2020/01/31 20:02:54.9	5.600	-0.590	0.190	0.000
2020/01/31 20:02:55.0	5.600	-0.600	0.170	-0.030
2020/01/31 20:02:55.1	5.590	-0.610	0.150	-0.060
2020/01/31 20:02:55.2	5.590	-0.610	0.140	-0.090
2020/01/31 20:02:55.3	5.590	-0.610	0.120	-0.120
2020/01/31 20:02:55.4	5.590	-0.600	0.090	-0.150
2020/01/31 20:02:55.5	5.600	-0.590	0.070	-0.190
2020/01/31 20:02:55.6	5.600	-0.570	0.040	-0.220
2020/01/31 20:02:55.7	5.610	-0.550	0.010	-0.260
2020/01/31 20:02:55.8	5.620	-0.530	-0.020	-0.290
2020/01/31 20:02:55.9	5.640	-0.500	-0.060	-0.330
2020/01/31 20:02:56.0	5.650	-0.470	-0.090	-0.360
2020/01/31 20:02:56.1	5.670	-0.440	-0.120	-0.400
2020/01/31 20:02:56.2	5.680	-0.400	-0.160	-0.430
2020/01/31 20:02:56.3	5.700	-0.360	-0.190	-0.460
2020/01/31 20:02:56.4	5.720	-0.310	-0.230	-0.490
2020/01/31 20:02:56.5	5.740	-0.270	-0.260	-0.510
2020/01/31 20:02:56.6	5.760	-0.220	-0.300	-0.540
2020/01/31 20:02:56.7	5.770	-0.170	-0.330	-0.560
2020/01/31 20:02:56.8	5.790	-0.120	-0.360	-0.580
2020/01/31 20:02:56.9	5.800	-0.070	-0.390	-0.600
2020/01/31 20:02:57.0	5.820	-0.020	-0.420	-0.610
2020/01/31 20:02:57.1	5.840	0.030	-0.450	-0.630
2020/01/31 20:02:57.2	5.860	0.070	-0.480	-0.630
2020/01/31 20:02:57.3	5.880	0.120	-0.500	-0.640
2020/01/31 20:02:57.4	5.890	0.160	-0.530	-0.650
2020/01/31 20:02:57.5	5.900	0.200	-0.550	-0.650
2020/01/31 20:02:57.6	5.910	0.240	-0.570	-0.650
2020/01/31 20:02:57.7	5.920	0.280	-0.580	-0.640
2020/01/31 20:02:57.8	5.930	0.310	-0.590	-0.640
2020/01/31 20:02:57.9	5.930	0.340	-0.600	-0.630
2020/01/31 20:02:58.0	5.930	0.360	-0.610	-0.620
2020/01/31 20:02:58.1	5.930	0.380	-0.610	-0.610
2020/01/31 20:02:58.2	5.930	0.400	-0.600	-0.590
2020/01/31 20:02:58.3	5.920	0.410	-0.600	-0.580
2020/01/31 20:02:58.4	5.910	0.420	-0.590	-0.560
2020/01/31 20:02:58.5	5.900	0.420	-0.570	-0.540
2020/01/31 20:02:58.6	5.890	0.420	-0.550	-0.520
2020/01/31 20:02:58.7	5.870	0.420	-0.530	-0.500
2020/01/31 20:02:58.8	5.860	0.410	-0.510	-0.480
2020/01/31 20:02:58.9	5.840	0.400	-0.480	-0.450
2020/01/31 20:02:59.0	5.820	0.390	-0.450	-0.420
2020/01/31 20:02:59.1	5.790	0.370	-0.420	-0.390
2020/01/31 20:02:59.2	5.770	0.350	-0.380	-0.360
2020/01/31 20:02:59.3	5.750	0.330	-0.340	-0.330
2020/01/31 20:02:59.4	5.730	0.310	-0.310	-0.300
2020/01/31 20:02:59.5	5.710	0.280	-0.270	-0.270
2020/01/31 20:02:59.6	5.690	0.260	-0.230	-0.230
2020/01/31 20:02:59.7	5.660	0.230	-0.190	-0.200
2020/01/31 20:02:59.8	5.640	0.200	-0.160	-0.170
2020/01/31 20:02:59.9	5.630	0.170	-0.120	-0.140
2020/01/31 20:03:00.0	5.610	0.150	-0.090	-0.110
2020/01/31 20:03:00.1	5.600	0.120	-0.060	-0.090
2020/01/31 20:03:00.2	5.580	0.090	-0.030	-0.060
2020/01/31 20:03:00.3	5.570	0.070	-0.000	-0.050
2020/01/31 20:03:00.4	5.560	0.040	0.010	-0.030
2020/01/31 20:03:00.5	5.560	0.020	0.030	-0.020
2020/01/31 20:03:00.6	5.550	-0.000	0.040	-0.010
2020/01/31 20:03:00.7	5.550	-0.020	0.040	-0.010
2020/01/31 20:03:00.8	5.560	-0.040	0.040	-0.010
2020/01/31 20:03:00.9	5.550	-0.050	0.040	-0.020
2020/01/31 20:03:01.0	5.560	-0.060	0.030	-0.030
2020/01/31 20:03:01.1	5.580	-0.070	0.010	-0.040
2020/01/31 20:03:01.2	5.590	-0.080	-0.010	-0.060
2020/01/31 20:03:01.3	5.610	-0.080	-0.040	-0.070
2020/01/31 20:03:01.4	5.620	-0.080	-0.060	-0.090
2020/01/31 20:03:01.5	5.640	-0.080	-0.090	-0.120
2020/01/31 20:03:01.6	5.660	-0.080	-0.130	-0.140
2020/01/31 20:03:01.7	5.680	-0.070	-0.160	-0.160
2020/01/31 20:03:01.8	5.700	-0.070	-0.200	-0.180
2020/01/31 20:03:01.9	5.720	-0.060	-0.230	-0.200
2020/01/31 20:03:02.0	5.730	-0.040	-0.270	-0.210
2020/01/31 20:03:02.1	5.750	-0.030	-0.300	-0.230
2020/01/31 20:03:02.2	5.760	-0.020	-0.340	-0.240
2020/01/31 20:03:02.3	5.770	-0.000	-0.370	-0.250
2020/01/31 20:03:02.4	5.780	0.010	-0.390	-0.260
2020/01/31 20:03:02.5	5.790	0.030	-0.420	-0.260
2020/01/31 20:03:02.6	5.790	0.040	-0.440	-0.270
2020/01/31 20:03:02.7	5.790	0.060	-0.460	-0.270
2020/01/31 20:03:02.8	5.800	0.070	-0.470	-0.270
2020/01/31 20:03:02.9	5.800	0.090	-0.480	-0.270
2020/01/31 20:03:03.0	5.800	0.100	-0.490	-0.260
2020/01/31 20:03:03.1	5.800	0.120	-0.490	-0.250
2020/01/31 20:03:03.2	5.790	0.130	-0.490	-0.240
2020/01/31 20:03:03.3	5.790	0.150	-0.480	-0.220
2020/01/31 20:03:03.4	5.780	0.160	-0.480	-0.210
2020/01/31 20:03:03.5	5.770	0.170	-0.470	-0.190
2020/01/31 20:03:03.6	5.760	0.170	-0.450	-0.170
2020/01/31 20:03:03.7	5.750	0.180	-0.440	-0.150
2020/01/31 20:03:03.8	5.740	0.190	-0.420	-0.130
2020/01/31 20:03:03.9	5.720	0.190	-0.400	-0.100
2020/01/31 20:03:04.0	5.710	0.190	-0.380	-0.080
2020/01/31 20:03:04.1	5.700	0.190	-0.360	-0.050
2020/01/31 20:03:04.2	5.680	0.190	-0.340	-0.030
2020/01/31 20:03:04.3	5.670	0.190	-0.330	-0.010
2020/01/31 20:03:04.4	5.660	0.180	-0.310	0.010
2020/01/31 20:03:04.5	5.650	0.180	-0.290	0.030
2020/01/31 20:03:04.6	5.630	0.170	-0.280	0.040
2020/01/31 20:03:04.7	5.620	0.160	-0.260	0.050
2020/01/31 20:03:04.8	5.610	0.150	-0.250	0.060
2020/01/31 20:03:04.9	5.600	0.130	-0.240	0.070
2020/01/31 20:03:05.0	5.590	0.120	-0.240	0.070
2020/01/31 20:03:05.1	5.580	0.100	-0.230	0.070
2020/01/31 20:03:05.2	5.570	0.090	-0.230	0.070
2020/01/31 20:03:05.3	5.570	0.070	-0.230	0.060
2020/01/31 20:03:05.4	5.560	0.050	-0.230	0.050
2020/01/31 20:03:05.5	5.550	0.040	-0.240	0.040
2020/01/31 20:03:05.6	5.550	0.020	-0.240	0.030
2020/01/31 20:03:05.7	5.550	-0.000	-0.250	0.010
2020/01/31 20:03:05.8	5.550	-0.020	-0.260	-0.010
2020/01/31 20:03:05.9	5.560	-0.040	-0.270	-0.040
2020/01/31 20:03:06.0	5.560	-0.060	-0.280	-0.060
2020/01/31 20:03:06.1	5.570	-0.080	-0.290	-0.090
2020/01/31 20:03:06.2	5.570	-0.090	-0.310	-0.130
2020/01/31 20:03:06.3	5.580	-0.110	-0.320	-0.160
2020/01/31 20:03:06.4	5.590	-0.130	-0.340	-0.200
2020/01/31 20:03:06.5	5.600	-0.150	-0.350	-0.230
2020/01/31 20:03:06.6	5.610	-0.160	-0.370	-0.270
2020/01/31 20:03:06.7	5.620	-0.180	-0.380	-0.310
2020/01/31 20:03:06.8	5.630	-0.190	-0.390	-0.350
2020/01/31 20:03:06.9	5.660	-0.200	-0.410	-0.400
2020/01/31 20:03:07.0	5.670	-0.220	-0.420	-0.440
2020/01/31 20:03:07.1	5.690	-0.230	-0.420	-0.490
2020/01/31 20:03:07.2	5.710	-0.240	-0.430	-0.530
2020/01/31 20:03:07.3	5.730	-0.250	-0.430	-0.570
2020/01/31 20:03:07.4	5.750	-0.260	-0.430	-0.610
2020/01/31 20:03:07.5	5.770	-0.260	-0.430	-0.650
2020/01/31 20:03:07.6	5.790	-0.270	-0.430	-0.690
2020/01/31 20:03:07.7	5.810	-0.270	-0.420	-0.720
2020/01/31 20:03:07.8	5.830	-0.280	-0.410	-0.750
2020/01/31 20:03:07.9	5.840	-0.280	-0.400	-0.780
2020/01/31 20:03:08.0	5.870	-0.280	-0.380	-0.800
2020/01/31 20:03:08.1	5.890	-0.280	-0.370	-0.820
2020/01/31 20:03:08.2	5.910	-0.280	-0.350	-0.830
2020/01/31 20:03:08.3	5.930	-0.270	-0.330	-0.840
2020/01/31 20:03:08.4	5.950	-0.270	-0.300	-0.840
2020/01/31 20:03:08.5	5.970	-0.260	-0.280	-0.840
2020/01/31 20:03:08.6	5.980	-0.260	-0.250	-0.830
2020/01/31 20:03:08.7	5.990	-0.250	-0.220	-0.820
2020/01/31 20:03:08.8	6.010	-0.240	-0.190	-0.800
2020/01/31 20:03:08.9	6.020	-0.230	-0.160	-0.770
2020/01/31 20:03:09.0	6.030	-0.230	-0.120	-0.740
2020/01/31 20:03:09.1	6.030	-0.220	-0.090	-0.700
2020/01/31 20:03:09.2	6.030	-0.210	-0.050	-0.660
2020/01/31 20:03:09.3	6.030	-0.200	-0.020	-0.620
2020/01/31 20:03:09.4	6.030	-0.190	0.020	-0.580
2020/01/31 20:03:09.5	6.020	-0.180	0.060	-0.530
2020/01/31 20:03:09.6	6.020	-0.170	0.090	-0.480
2020/01/31 20:03:09.7	6.010	-0.160	0.120	-0.420
2020/01/31 20:03:09.8	5.990	-0.150	0.160	-0.370
2020/01/31 20:03:09.9	5.990	-0.140	0.190	-0.320
2020/01/31 20:03:10.0	5.970	-0.120	0.220	-0.260
2020/01/31 20:03:10.1	5.950	-0.110	0.250	-0.200
2020/01/31 20:03:10.2	5.930	-0.100	0.270	-0.140
2020/01/31 20:03:10.3	5.910	-0.090	0.290	-0.080
2020/01/31 20:03:10.4	5.880	-0.080	0.310	-0.030
2020/01/31 20:03:10.5	5.850	-0.060	0.330	0.030
2020/01/31 20:03:10.6	5.820	-0.050	0.350	0.090
2020/01/31 20:03:10.7	5.790	-0.040	0.360	0.150
2020/01/31 20:03:10.8	5.760	-0.020	0.370	0.210
2020/01/31 20:03:10.9	5.730	-0.010	0.370	0.270
2020/01/31 20:03:11.0	5.690	0.010	0.370	0.330
2020/01/31 20:03:11.1	5.660	0.020	0.370	0.380
2020/01/31 20:03:11.2	5.630	0.040	0.370	0.430
2020/01/31 20:03:11.3	5.590	0.050	0.360	0.480
2020/01/31 20:03:11.4	5.560	0.070	0.350	0.530
2020/01/31 20:03:11.5	5.530	0.080	0.330	0.580
2020/01/31 20:03:11.6	5.500	0.100	0.310	0.620
2020/01/31 20:03:11.7	5.470	0.110	0.290	0.650
2020/01/31 20:03:11.8	5.440	0.130	0.260	0.680
2020/01/31 20:03:11.9	5.410	0.140	0.240	0.710
2020/01/31 20:03:12.0	5.390	0.160	0.200	0.730
2020/01/31 20:03:12.1	5.370	0.170	0.170	0.740
2020/01/31 20:03:12.2	5.350	0.190	0.130	0.750
2020/01/31 20:03:12.3	5.340	0.200	0.080	0.750
2020/01/31 20:03:12.4	5.330	0.210	0.030	0.740
2020/01/31 20:03:12.5	5.320	0.220	-0.020	0.730
2020/01/31 20:03:12.6	5.310	0.230	-0.070	0.710
2020/01/31 20:03:12.7	5.310	0.250	-0.130	0.690
2020/01/31 20:03:12.8	5.320	0.260	-0.190	0.660
2020/01/31 20:03:12.9	5.330	0.270	-0.250	0.620
2020/01/31 20:03:13.0	5.340	0.270	-0.310	0.580
2020/01/31 20:03:13.1	5.350	0.280	-0.380	0.530
2020/01/31 20:03:13.2	5.370	0.290	-0.440	0.480
2020/01/31 20:03:13.3	5.390	0.300	-0.510	0.420
2020/01/31 20:03:13.4	5.410	0.300	-0.570	0.360
2020/01/31 20:03:13.5	5.440	0.310	-0.640	0.300
2020/01/31 20:03:13.6	5.460	0.310	-0.700	0.240
2020/01/31 20:03:13.7	5.490	0.310	-0.760	0.170
2020/01/31 20:03:13.8	5.510	0.310	-0.820	0.110
2020/01/31 20:03:13.9	5.550	0.310	-0.880	0.040
2020/01/31 20:03:14.0	5.580	0.300	-0.930	-0.030
2020/01/31 20:03:14.1	5.610	0.300	-0.980	-0.100
2020/01/31 20:03:14.2	5.640	0.290	-1.030	-0.170
2020/01/31 20:03:14.3	5.660	0.290	-1.070	-0.240
2020/01/31 20:03:14.4	5.690	0.280	-1.100	-0.310
2020/01/31 20:03:14.5	5.720	0.260	-1.140	-0.380
2020/01/31 20:03:14.6	5.750	0.250	-1.160	-0.450
2020/01/31 20:03:14.7	5.780	0.240	-1.180	-0.520
2020/01/31 20:03:14.8	5.810	0.220	-1.200	-0.580
2020/01/31 20:03:14.9	5.850	0.200	-1.210	-0.650
2020/01/31 20:03:15.0	5.880	0.190	-1.210	-0.720
2020/01/31 20:03:15.1	5.910	0.170	-1.210	-0.780
2020/01/31 20:03:15.2	5.930	0.140	-1.200	-0.840
2020/01/31 20:03:15.3	5.960	0.120	-1.190	-0.890
2020/01/31 20:03:15.4	5.990	0.100	-1.170	-0.940
2020/01/31 20:03:15.5	6.010	0.070	-1.150	-0.990
2020/01/31 20:03:15.6	6.030	0.050	-1.120	-1.040
2020/01/31 20:03:15.7	6.050	0.030	-1.090	-1.080
2020/01/31 20:03:15.8	6.070	0.000	-1.050	-1.120
2020/01/31 20:03:15.9	6.090	-0.020	-1.000	-1.150
2020/01/31 20:03:16.0	6.100	-0.050	-0.960	-1.180
2020/01/31 20:03:16.1	6.120	-0.070	-0.910	-1.200
2020/01/31 20:03:16.2	6.130	-0.100	-0.860	-1.220
2020/01/31 20:03:16.3	6.140	-0.120	-0.800	-1.240
2020/01/31 20:03:16.4	6.150	-0.140	-0.740	-1.250
2020/01/31 20:03:16.5	6.160	-0.160	-0.690	-1.250
2020/01/31 20:03:16.6	6.160	-0.180	-0.630	-1.250
2020/01/31 20:03:16.7	6.170	-0.200	-0.570	-1.250
2020/01/31 20:03:16.8	6.180	-0.220	-0.510	-1.240
2020/01/31 20:03:16.9	6.180	-0.230	-0.450	-1.230
2020/01/31 20:03:17.0	6.190	-0.240	-0.400	-1.220
2020/01/31 20:03:17.1	6.190	-0.250	-0.340	-1.200
2020/01/31 20:03:17.2	6.200	-0.260	-0.290	-1.180
2020/01/31 20:03:17.3	6.210	-0.260	-0.240	-1.160
2020/01/31 20:03:17.4	6.220	-0.260	-0.190	-1.130
2020/01/31 20:03:17.5	6.230	-0.260	-0.150	-1.100
2020/01/31 20:03:17.6	6.240	-0.260	-0.110	-1.070
2020/01/31 20:03:17.7	6.250	-0.250	-0.070	-1.040
2020/01/31 20:03:17.8	6.260	-0.250	-0.030	-1.010
2020/01/31 20:03:17.9	6.260	-0.240	0.000	-0.980
2020/01/31 20:03:18.0	6.270	-0.230	0.030	-0.940
2020/01/31 20:03:18.1	6.280	-0.210	0.060	-0.910
2020/01/31 20:03:18.2	6.280	-0.200	0.090	-0.870
2020/01/31 20:03:18.3	6.290	-0.190	0.110	-0.830
2020/01/31 20:03:18.4	6.290	-0.170	0.140	-0.790
2020/01/31 20:03:18.5	6.290	-0.150	0.160	-0.750
2020/01/31 20:03:18.6	6.290	-0.140	0.180	-0.700
2020/01/31 20:03:18.7	6.290	-0.120	0.200	-0.660
2020/01/31 20:03:18.8	6.280	-0.100	0.220	-0.600
2020/01/31 20:03:18.9	6.270	-0.080	0.250	-0.550
2020/01/31 20:03:19.0	6.260	-0.070	0.270	-0.490
2020/01/31 20:03:19.1	6.240	-0.050	0.290	-0.430
2020/01/31 20:03:19.2	6.220	-0.030	0.310	-0.370
2020/01/31 20:03:19.3	6.190	-0.020	0.330	-0.300
2020/01/31 20:03:19.4	6.170	-0.010	0.360	-0.240
2020/01/31 20:03:19.5	6.140	0.010	0.380	-0.170
2020/01/31 20:03:19.6	6.110	0.020	0.400	-0.100
2020/01/31 20:03:19.7	6.070	0.030	0.430	-0.030
2020/01/31 20:03:19.8	6.040	0.030	0.450	0.030
2020/01/31 20:03:19.9	6.000	0.040	0.470	0.100
2020/01/31 20:03:20.0	5.960	0.040	0.490	0.160
2020/01/31 20:03:20.1	5.930	0.040	0.500	0.230
2020/01/31 20:03:20.2	5.890	0.040	0.520	0.290
2020/01/31 20:03:20.3	5.850	0.040	0.530	0.340
2020/01/31 20:03:20.4	5.820	0.030	0.540	0.390
2020/01/31 20:03:20.5	5.780	0.030	0.550	0.440
2020/01/31 20:03:20.6	5.750	0.020	0.550	0.480
2020/01/31 20:03:20.7	5.710	0.010	0.550	0.520
2020/01/31 20:03:20.8	5.680	0.010	0.550	0.550
2020/01/31 20:03:20.9	5.650	-0.000	0.540	0.580
2020/01/31 20:03:21.0	5.620	-0.010	0.530	0.590
2020/01/31 20:03:21.1	5.600	-0.020	0.510	0.610
2020/01/31 20:03:21.2	5.570	-0.040	0.480	0.610
2020/01/31 20:03:21.3	5.550	-0.050	0.450	0.610
2020/01/31 20:03:21.4	5.530	-0.060	0.410	0.610
2020/01/31 20:03:21.5	5.510	-0.070	0.370	0.600
2020/01/31 20:03:21.6	5.500	-0.070	0.320	0.590
2020/01/31 20:03:21.7	5.480	-0.080	0.270	0.570
2020/01/31 20:03:21.8	5.470	-0.090	0.220	0.550
2020/01/31 20:03:21.9	5.450	-0.090	0.150	0.520
2020/01/31 20:03:22.0	5.440	-0.100	0.090	0.490
2020/01/31 20:03:22.1	5.430	-0.100	0.020	0.460
2020/01/31 20:03:22.2	5.420	-0.100	-0.050	0.420
2020/01/31 20:03:22.3	5.410	-0.100	-0.120	0.380
2020/01/31 20:03:22.4	5.410	-0.100	-0.190	0.340
2020/01/31 20:03:22.5	5.400	-0.090	-0.270	0.290
2020/01/31 20:03:22.6	5.400	-0.090	-0.340	0.250
2020/01/31 20:03:22.7	5.390	-0.080	-0.420	0.200
2020/01/31 20:03:22.8	5.390	-0.070	-0.490	0.150
2020/01/31 20:03:22.9	5.400	-0.060	-0.560	0.100
2020/01/31 20:03:23.0	5.400	-0.050	-0.630	0.050
2020/01/31 20:03:23.1	5.400	-0.040	-0.690	0.000
2020/01/31 20:03:23.2	5.400	-0.030	-0.750	-0.050
2020/01/31 20:03:23.3	5.400	-0.020	-0.810	-0.100
2020/01/31 20:03:23.4	5.400	-0.000	-0.860	-0.150
2020/01/31 20:03:23.5	5.400	0.010	-0.910	-0.200
2020/01/31 20:03:23.6	5.410	0.020	-0.950	-0.250
2020/01/31 20:03:23.7	5.410	0.040	-0.990	-0.300
2020/01/31 20:03:23.8	5.420	0.050	-1.020	-0.350
2020/01/31 20:03:23.9	5.440	0.060	-1.050	-0.400
2020/01/31 20:03:24.0	5.440	0.070	-1.070	-0.450
2020/01/31 20:03:24.1	5.450	0.080	-1.090	-0.500
2020/01/31 20:03:24.2	5.460	0.090	-1.100	-0.540
2020/01/31 20:03:24.3	5.470	0.100	-1.110	-0.580
2020/01/31 20:03:24.4	5.480	0.110	-1.110	-0.620
2020/01/31 20:03:24.5	5.490	0.110	-1.110	-0.660
2020/01/31 20:03:24.6	5.500	0.120	-1.100	-0.700
2020/01/31 20:03:24.7	5.510	0.120	-1.090	-0.730
2020/01/31 20:03:24.8	5.530	0.120	-1.070	-0.770
2020/01/31 20:03:24.9	5.540	0.120	-1.050	-0.800
2020/01/31 20:03:25.0	5.550	0.120	-1.020	-0.820
2020/01/31 20:03:25.1	5.570	0.120	-0.990	-0.850
2020/01/31 20:03:25.2	5.580	0.120	-0.960	-0.870
2020/01/31 20:03:25.3	5.600	0.110	-0.920	-0.880
2020/01/31 20:03:25.4	5.620	0.110	-0.880	-0.900
2020/01/31 20:03:25.5	5.640	0.100	-0.840	-0.910
2020/01/31 20:03:25.6	5.660	0.090	-0.790	-0.920
2020/01/31 20:03:25.7	5.680	0.090	-0.750	-0.920
2020/01/31 20:03:25.8	5.710	0.080	-0.700	-0.920
2020/01/31 20:03:25.9	5.730	0.070	-0.640	-0.920
2020/01/31 20:03:26.0	5.760	0.060	-0.590	-0.920
2020/01/31 20:03:26.1	5.780	0.050	-0.540	-0.910
2020/01/31 20:03:26.2	5.810	0.040	-0.490	-0.900
2020/01/31 20:03:26.3	5.830	0.040	-0.430	-0.880
2020/01/31 20:03:26.4	5.860	0.030	-0.380	-0.860
2020/01/31 20:03:26.5	5.880	0.020	-0.330	-0.840
2020/01/31 20:03:26.6	5.910	0.010	-0.280	-0.820
2020/01/31 20:03:26.7	5.930	0.010	-0.220	-0.790
2020/01/31 20:03:26.8	5.960	0.000	-0.170	-0.760
2020/01/31 20:03:26.9	5.970	-0.000	-0.130	-0.730
2020/01/31 20:03:27.0	5.990	-0.010	-0.080	-0.700
2020/01/31 20:03:27.1	6.010	-0.010	-0.040	-0.660
2020/01/31 20:03:27.2	6.030	-0.020	0.010	-0.620
2020/01/31 20:03:27.3	6.040	-0.020	0.050	-0.570
2020/01/31 20:03:27.4	6.050	-0.020	0.090	-0.530
2020/01/31 20:03:27.5	6.050	-0.020	0.120	-0.480
2020/01/31 20:03:27.6	6.060	-0.030	0.160	-0.430
2020/01/31 20:03:27.7	6.060	-0.030	0.190	-0.380
2020/01/31 20:03:27.8	6.060	-0.030	0.220	-0.330
2020/01/31 20:03:27.9	6.060	-0.030	0.250	-0.280
2020/01/31 20:03:28.0	6.060	-0.030	0.270	-0.230
2020/01/31 20:03:28.1	6.050	-0.040	0.290	-0.190
2020/01/31 20:03:28.2	6.040	-0.040	0.310	-0.140
2020/01/31 20:03:28.3	6.030	-0.040	0.330	-0.100
2020/01/31 20:03:28.4	6.020	-0.050	0.340	-0.060
2020/01/31 20:03:28.5	6.010	-0.050	0.350	-0.020
2020/01/31 20:03:28.6	5.990	-0.060	0.350	0.020
2020/01/31 20:03:28.7	5.980	-0.060	0.350	0.050
2020/01/31 20:03:28.8	5.960	-0.070	0.350	0.090
2020/01/31 20:03:28.9	5.930	-0.070	0.340	0.110
2020/01/31 20:03:29.0	5.920	-0.080	0.330	0.140
2020/01/31 20:03:29.1	5.890	-0.090	0.310	0.170
2020/01/31 20:03:29.2	5.870	-0.100	0.300	0.190
2020/01/31 20:03:29.3	5.850	-0.100	0.280	0.210
2020/01/31 20:03:29.4	5.820	-0.110	0.250	0.230
2020/01/31 20:03:29.5	5.800	-0.120	0.230	0.250
2020/01/31 20:03:29.6	5.770	-0.130	0.200	0.260
2020/01/31 20:03:29.7	5.740	-0.140	0.170	0.270
2020/01/31 20:03:29.8	5.710	-0.150	0.140	0.280
2020/01/31 20:03:29.9	5.680	-0.160	0.100	0.290
2020/01/31 20:03:30.0	5.650	-0.170	0.070	0.290
2020/01/31 20:03:30.1	5.620	-0.180	0.030	0.300
2020/01/31 20:03:30.2	5.590	-0.190	-0.020	0.290
2020/01/31 20:03:30.3	5.560	-0.200	-0.060	0.290
2020/01/31 20:03:30.4	5.530	-0.210	-0.100	0.280
2020/01/31 20:03:30.5	5.490	-0.210	-0.150	0.270
2020/01/31 20:03:30.6	5.460	-0.220	-0.200	0.250
2020/01/31 20:03:30.7	5.430	-0.220	-0.240	0.230
2020/01/31 20:03:30.8	5.410	-0.230	-0.290	0.210
2020/01/31 20:03:30.9	5.390	-0.230	-0.330	0.190
2020/01/31 20:03:31.0	5.360	-0.230	-0.380	0.160
2020/01/31 20:03:31.1	5.340	-0.220	-0.430	0.130
2020/01/31 20:03:31.2	5.310	-0.220	-0.470	0.100
2020/01/31 20:03:31.3	5.290	-0.210	-0.510	0.070
2020/01/31 20:03:31.4	5.270	-0.200	-0.550	0.040
2020/01/31 20:03:31.5	5.250	-0.190	-0.590	0.000
2020/01/31 20:03:31.6	5.230	-0.170	-0.620	-0.030
2020/01/31 20:03:31.7	5.220	-0.160	-0.650	-0.060
2020/01/31 20:03:31.8	5.200	-0.140	-0.680	-0.100
2020/01/31 20:03:31.9	5.190	-0.120	-0.710	-0.130
2020/01/31 20:03:32.0	5.180	-0.100	-0.730	-0.160
2020/01/31 20:03:32.1	5.170	-0.070	-0.750	-0.190
2020/01/31 20:03:32.2	5.160	-0.050	-0.760	-0.220
2020/01/31 20:03:32.3	5.150	-0.020	-0.770	-0.250
2020/01/31 20:03:32.4	5.150	0.010	-0.780	-0.270
2020/01/31 20:03:32.5	5.140	0.040	-0.780	-0.300
2020/01/31 20:03:32.6	5.140	0.070	-0.780	-0.320
2020/01/31 20:03:32.7	5.140	0.100	-0.780	-0.340
2020/01/31 20:03:32.8	5.140	0.120	-0.770	-0.360
2020/01/31 20:03:32.9	5.140	0.150	-0.760	-0.380
2020/01/31 20:03:33.0	5.150	0.180	-0.740	-0.400
2020/01/31 20:03:33.1	5.150	0.200	-0.720	-0.420
2020/01/31 20:03:33.2	5.160	0.230	-0.700	-0.430
2020/01/31 20:03:33.3	5.170	0.250	-0.680	-0.440
2020/01/31 20:03:33.4	5.180	0.270	-0.650	-0.460
2020/01/31 20:03:33.5	5.190	0.290	-0.620	-0.470
2020/01/31 20:03:33.6	5.210	0.300	-0.590	-0.480
2020/01/31 20:03:33.7	5.220	0.320	-0.550	-0.490
2020/01/31 20:03:33.8	5.230	0.330	-0.520	-0.500
2020/01/31 20:03:33.9	5.250	0.340	-0.480	-0.510
2020/01/31 20:03:34.0	5.270	0.340	-0.440	-0.510
2020/01/31 20:03:34.1	5.290	0.340	-0.410	-0.520
2020/01/31 20:03:34.2	5.300	0.340	-0.370	-0.520
2020/01/31 20:03:34.3	5.320	0.340	-0.320	-0.520
2020/01/31 20:03:34.4	5.330	0.330	-0.280	-0.530
2020/01/31 20:03:34.5	5.350	0.330	-0.240	-0.520
2020/01/31 20:03:34.6	5.360	0.310	-0.200	-0.520
2020/01/31 20:03:34.7	5.380	0.300	-0.160	-0.510
2020/01/31 20:03:34.8	5.390	0.280	-0.120	-0.510
2020/01/31 20:03:34.9	5.400	0.260	-0.080	-0.500
2020/01/31 20:03:35.0	5.410	0.240	-0.040	-0.480
2020/01/31 20:03:35.1	5.420	0.220	-0.010	-0.470
2020/01/31 20:03:35.2	5.430	0.190	0.030	-0.450
2020/01/31 20:03:35.3	5.430	0.170	0.070	-0.440
2020/01/31 20:03:35.4	5.430	0.140	0.100	-0.420
2020/01/31 20:03:35.5	5.440	0.110	0.130	-0.390
2020/01/31 20:03:35.6	5.430	0.080	0.160	-0.370
2020/01/31 20:03:35.7	5.430	0.050	0.190	-0.350
2020/01/31 20:03:35.8	5.420	0.010	0.210	-0.320
2020/01/31 20:03:35.9	5.410	-0.020	0.240	-0.290
2020/01/31 20:03:36.0	5.400	-0.050	0.260	-0.260
2020/01/31 20:03:36.1	5.380	-0.080	0.270	-0.240
2020/01/31 20:03:36.2	5.360	-0.110	0.290	-0.210
2020/01/31 20:03:36.3	5.340	-0.150	0.300	-0.180
2020/01/31 20:03:36.4	5.320	-0.180	0.300	-0.150
2020/01/31 20:03:36.5	5.300	-0.210	0.310	-0.120
2020/01/31 20:03:36.6	5.270	-0.230	0.310	-0.090
2020/01/31 20:03:36.7	5.240	-0.260	0.310	-0.070
2020/01/31 20:03:36.8	5.220	-0.290	0.300	-0.040
2020/01/31 20:03:36.9	5.190	-0.310	0.290	-0.020
2020/01/31 20:03:37.0	5.160	-0.330	0.270	-0.000
2020/01/31 20:03:37.1	5.140	-0.350	0.260	0.010
2020/01/31 20:03:37.2	5.110	-0.360	0.230	0.030
2020/01/31 20:03:37.3	5.090	-0.380	0.210	0.040
2020/01/31 20:03:37.4	5.060	-0.390	0.180	0.050
2020/01/31 20:03:37.5	5.040	-0.400	0.150	0.050
2020/01/31 20:03:37.6	5.020	-0.400	0.120	0.060
2020/01/31 20:03:37.7	5.000	-0.410	0.080	0.060
2020/01/31 20:03:37.8	4.990	-0.410	0.040	0.060
2020/01/31 20:03:37.9	4.980	-0.400	0.010	0.060
2020/01/31 20:03:38.0	4.970	-0.400	-0.040	0.060
2020/01/31 20:03:38.1	4.960	-0.390	-0.080	0.060
2020/01/31 20:03:38.2	4.960	-0.370	-0.130	0.050
2020/01/31 20:03:38.3	4.960	-0.360	-0.180	0.040
2020/01/31 20:03:38.4	4.960	-0.340	-0.220	0.040
2020/01/31 20:03:38.5	4.960	-0.320	-0.270	0.030
2020/01/31 20:03:38.6	4.960	-0.300	-0.320	0.020
2020/01/31 20:03:38.7	4.960	-0.270	-0.370	0.010
2020/01/31 20:03:38.8	4.970	-0.250	-0.420	-0.000
2020/01/31 20:03:38.9	4.970	-0.220	-0.460	-0.010
2020/01/31 20:03:39.0	4.970	-0.190	-0.510	-0.030
2020/01/31 20:03:39.1	4.980	-0.160	-0.550	-0.040
2020/01/31 20:03:39.2	4.990	-0.130	-0.590	-0.050
2020/01/31 20:03:39.3	5.000	-0.100	-0.620	-0.060
2020/01/31 20:03:39.4	5.010	-0.070	-0.660	-0.070
2020/01/31 20:03:39.5	5.030	-0.040	-0.690	-0.080
2020/01/31 20:03:39.6	5.040	-0.010	-0.720	-0.090
2020/01/31 20:03:39.7	5.050	0.030	-0.740	-0.100
2020/01/31 20:03:39.8	5.060	0.060	-0.770	-0.110
2020/01/31 20:03:39.9	5.090	0.090	-0.790	-0.120
2020/01/31 20:03:40.0	5.100	0.120	-0.800	-0.130
2020/01/31 20:03:40.1	5.120	0.150	-0.810	-0.140
2020/01/31 20:03:40.2	5.130	0.170	-0.820	-0.140
2020/01/31 20:03:40.3	5.150	0.200	-0.830	-0.150
2020/01/31 20:03:40.4	5.160	0.220	-0.830	-0.160
2020/01/31 20:03:40.5	5.180	0.250	-0.830	-0.160
2020/01/31 20:03:40.6	5.190	0.270	-0.820	-0.160
2020/01/31 20:03:40.7	5.200	0.290	-0.810	-0.160
2020/01/31 20:03:40.8	5.220	0.300	-0.800	-0.160
2020/01/31 20:03:40.9	5.230	0.320	-0.780	-0.160
2020/01/31 20:03:41.0	5.240	0.330	-0.760	-0.160
2020/01/31 20:03:41.1	5.250	0.340	-0.740	-0.150
2020/01/31 20:03:41.2	5.260	0.350	-0.710	-0.140
2020/01/31 20:03:41.3	5.260	0.350	-0.680	-0.130
2020/01/31 20:03:41.4	5.270	0.350	-0.650	-0.120
2020/01/31 20:03:41.5	5.270	0.350	-0.620	-0.110
2020/01/31 20:03:41.6	5.280	0.350	-0.580	-0.090
2020/01/31 20:03:41.7	5.280	0.350	-0.540	-0.080
2020/01/31 20:03:41.8	5.280	0.340	-0.510	-0.070
2020/01/31 20:03:41.9	5.270	0.330	-0.470	-0.050
2020/01/31 20:03:42.0	5.270	0.320	-0.430	-0.040
2020/01/31 20:03:42.1	5.270	0.300	-0.390	-0.020
2020/01/31 20:03:42.2	5.270	0.290	-0.360	-0.010
2020/01/31 20:03:42.3	5.270	0.270	-0.320	0.000
2020/01/31 20:03:42.4	5.270	0.260	-0.290	0.020
2020/01/31 20:03:42.5	5.260	0.240	-0.250	0.030
2020/01/31 20:03:42.6	5.260	0.220	-0.220	0.040
2020/01/31 20:03:42.7	5.260	0.200	-0.190	0.050
2020/01/31 20:03:42.8	5.250	0.180	-0.160	0.060
2020/01/31 20:03:42.9	5.250	0.160	-0.130	0.080
2020/01/31 20:03:43.0	5.240	0.150	-0.100	0.090
2020/01/31 20:03:43.1	5.240	0.130	-0.080	0.100
2020/01/31 20:03:43.2	5.230	0.110	-0.060	0.110
2020/01/31 20:03:43.3	5.220	0.100	-0.040	0.130
2020/01/31 20:03:43.4	5.220	0.080	-0.020	0.140
2020/01/31 20:03:43.5	5.210	0.070	-0.010	0.150
2020/01/31 20:03:43.6	5.200	0.060	0.000	0.160
2020/01/31 20:03:43.7	5.190	0.050	0.010	0.170
2020/01/31 20:03:43.8	5.180	0.040	0.020	0.190
2020/01/31 20:03:43.9	5.160	0.030	0.030	0.200
2020/01/31 20:03:44.0	5.150	0.020	0.030	0.210
2020/01/31 20:03:44.1	5.140	0.020	0.040	0.230
2020/01/31 20:03:44.2	5.120	0.010	0.050	0.240
2020/01/31 20:03:44.3	5.110	0.010	0.050	0.250
2020/01/31 20:03:44.4	5.090	0.010	0.050	0.270
2020/01/31 20:03:44.5	5.070	0.010	0.060	0.280
2020/01/31 20:03:44.6	5.050	0.010	0.060	0.300
2020/01/31 20:03:44.7	5.030	0.010	0.060	0.310
2020/01/31 20:03:44.8	5.010	0.010	0.060	0.330
2020/01/31 20:03:44.9	4.980	0.010	0.070	0.340
2020/01/31 20:03:45.0	4.960	0.010	0.070	0.350
2020/01/31 20:03:45.1	4.940	0.010	0.070	0.360
2020/01/31 20:03:45.2	4.920	0.020	0.070	0.370
2020/01/31 20:03:45.3	4.900	0.020	0.070	0.380
2020/01/31 20:03:45.4	4.870	0.020	0.060	0.380
2020/01/31 20:03:45.5	4.850	0.020	0.060	0.380
2020/01/31 20:03:45.6	4.830	0.020	0.060	0.380
2020/01/31 20:03:45.7	4.810	0.010	0.050	0.380
2020/01/31 20:03:45.8	4.790	0.010	0.040	0.370
2020/01/31 20:03:45.9	4.780	0.010	0.030	0.360
2020/01/31 20:03:46.0	4.760	0.000	0.020	0.350
2020/01/31 20:03:46.1	4.750	-0.010	0.010	0.330
2020/01/31 20:03:46.2	4.730	-0.010	0.000	0.310
2020/01/31 20:03:46.3	4.720	-0.020	-0.010	0.290
2020/01/31 20:03:46.4	4.710	-0.030	-0.030	0.260
2020/01/31 20:03:46.5	4.700	-0.050	-0.040	0.240
2020/01/31 20:03:46.6	4.690	-0.060	-0.060	0.210
2020/01/31 20:03:46.7	4.690	-0.070	-0.080	0.180
2020/01/31 20:03:46.8	4.680	-0.090	-0.100	0.140
2020/01/31 20:03:46.9	4.690	-0.100	-0.120	0.110
2020/01/31 20:03:47.0	4.690	-0.120	-0.140	0.070
2020/01/31 20:03:47.1	4.690	-0.130	-0.150	0.040
2020/01/31 20:03:47.2	4.690	-0.150	-0.170	0.000
2020/01/31 20:03:47.3	4.690	-0.160	-0.190	-0.030
2020/01/31 20:03:47.4	4.690	-0.180	-0.210	-0.070
2020/01/31 20:03:47.5	4.700	-0.200	-0.230	-0.110
2020/01/31 20:03:47.6	4.700	-0.210	-0.250	-0.140
2020/01/31 20:03:47.7	4.710	-0.230	-0.270	-0.180
2020/01/31 20:03:47.8	4.720	-0.240	-0.280	-0.220
2020/01/31 20:03:47.9	4.720	-0.250	-0.300	-0.260
2020/01/31 20:03:48.0	4.730	-0.270	-0.320	-0.290
2020/01/31 20:03:48.1	4.750	-0.280	-0.330	-0.330
2020/01/31 20:03:48.2	4.760	-0.290	-0.340	-0.370
2020/01/31 20:03:48.3	4.780	-0.290	-0.360	-0.400
2020/01/31 20:03:48.4	4.800	-0.300	-0.370	-0.440
2020/01/31 20:03:48.5	4.820	-0.300	-0.380	-0.470
2020/01/31 20:03:48.6	4.840	-0.310	-0.400	-0.510
2020/01/31 20:03:48.7	4.870	-0.310	-0.410	-0.540
2020/01/31 20:03:48.8	4.890	-0.310	-0.420	-0.570
2020/01/31 20:03:48.9	4.920	-0.310	-0.430	-0.600
2020/01/31 20:03:49.0	4.950	-0.300	-0.440	-0.630
2020/01/31 20:03:49.1	4.970	-0.300	-0.450	-0.650
2020/01/31 20:03:49.2	5.000	-0.290	-0.460	-0.670
2020/01/31 20:03:49.3	5.030	-0.280	-0.470	-0.690
2020/01/31 20:03:49.4	5.050	-0.270	-0.480	-0.710
2020/01/31 20:03:49.5	5.070	-0.260	-0.490	-0.720
2020/01/31 20:03:49.6	5.100	-0.250	-0.500	-0.730
2020/01/31 20:03:49.7	5.120	-0.240	-0.500	-0.730
2020/01/31 20:03:49.8	5.140	-0.220	-0.510	-0.740
2020/01/31 20:03:49.9	5.150	-0.210	-0.520	-0.730
2020/01/31 20:03:50.0	5.170	-0.190	-0.510	-0.730
2020/01/31 20:03:50.1	5.180	-0.180	-0.510	-0.720
2020/01/31 20:03:50.2	5.180	-0.170	-0.510	-0.710
2020/01/31 20:03:50.3	5.190	-0.150	-0.500	-0.690
2020/01/31 20:03:50.4	5.190	-0.140	-0.490	-0.670
2020/01/31 20:03:50.5	5.190	-0.120	-0.470	-0.640
2020/01/31 20:03:50.6	5.180	-0.110	-0.460	-0.620
2020/01/31 20:03:50.7	5.180	-0.100	-0.440	-0.590
2020/01/31 20:03:50.8	5.170	-0.080	-0.420	-0.550
2020/01/31 20:03:50.9	5.150	-0.070	-0.390	-0.520
2020/01/31 20:03:51.0	5.140	-0.060	-0.370	-0.480
2020/01/31 20:03:51.1	5.120	-0.040	-0.340	-0.440
2020/01/31 20:03:51.2	5.100	-0.030	-0.310	-0.400
2020/01/31 20:03:51.3	5.080	-0.020	-0.280	-0.350
2020/01/31 20:03:51.4	5.060	-0.010	-0.240	-0.310
2020/01/31 20:03:51.5	5.040	0.000	-0.210	-0.260
2020/01/31 20:03:51.6	5.020	0.010	-0.170	-0.210
2020/01/31 20:03:51.7	4.990	0.030	-0.140	-0.160
2020/01/31 20:03:51.8	4.970	0.040	-0.110	-0.110
2020/01/31 20:03:51.9	4.950	0.050	-0.080	-0.060
2020/01/31 20:03:52.0	4.920	0.060	-0.050	-0.000
2020/01/31 20:03:52.1	4.900	0.080	-0.030	0.040
2020/01/31 20:03:52.2	4.880	0.090	-0.010	0.090
2020/01/31 20:03:52.3	4.860	0.110	0.010	0.140
2020/01/31 20:03:52.4	4.840	0.120	0.020	0.180
2020/01/31 20:03:52.5	4.820	0.140	0.040	0.230
2020/01/31 20:03:52.6	4.800	0.160	0.040	0.270
2020/01/31 20:03:52.7	4.790	0.170	0.040	0.310
2020/01/31 20:03:52.8	4.770	0.190	0.040	0.340
2020/01/31 20:03:52.9	4.760	0.210	0.040	0.380
2020/01/31 20:03:53.0	4.750	0.230	0.030	0.410
2020/01/31 20:03:53.1	4.730	0.250	0.010	0.440
2020/01/31 20:03:53.2	4.720	0.270	-0.000	0.460
2020/01/31 20:03:53.3	4.710	0.280	-0.020	0.480
2020/01/31 20:03:53.4	4.690	0.300	-0.040	0.500
2020/01/31 20:03:53.5	4.680	0.320	-0.070	0.510
2020/01/31 20:03:53.6	4.670	0.340	-0.100	0.520
2020/01/31 20:03:53.7	4.660	0.360	-0.130	0.530
2020/01/31 20:03:53.8	4.660	0.370	-0.170	0.530
2020/01/31 20:03:53.9	4.650	0.390	-0.200	0.530
2020/01/31 20:03:54.0	4.650	0.410	-0.240	0.520
2020/01/31 20:03:54.1	4.650	0.420	-0.280	0.510
2020/01/31 20:03:54.2	4.650	0.430	-0.320	0.490
2020/01/31 20:03:54.3	4.650	0.450	-0.360	0.470
2020/01/31 20:03:54.4	4.650	0.460	-0.410	0.450
2020/01/31 20:03:54.5	4.660	0.470	-0.450	0.430
2020/01/31 20:03:54.6	4.670	0.480	-0.490	0.400
2020/01/31 20:03:54.7	4.680	0.490	-0.530	0.370
2020/01/31 20:03:54.8	4.690	0.490	-0.570	0.340
2020/01/31 20:03:54.9	4.700	0.500	-0.610	0.300
2020/01/31 20:03:55.0	4.710	0.500	-0.650	0.260
2020/01/31 20:03:55.1	4.730	0.500	-0.680	0.220
2020/01/31 20:03:55.2	4.750	0.500	-0.720	0.180
2020/01/31 20:03:55.3	4.770	0.490	-0.750	0.140
2020/01/31 20:03:55.4	4.790	0.490	-0.770	0.090
2020/01/31 20:03:55.5	4.810	0.480	-0.790	0.050
2020/01/31 20:03:55.6	4.830	0.470	-0.810	-0.000
2020/01/31 20:03:55.7	4.850	0.460	-0.830	-0.050
2020/01/31 20:03:55.8	4.870	0.440	-0.840	-0.100
2020/01/31 20:03:55.9	4.890	0.420	-0.840	-0.140
2020/01/31 20:03:56.0	4.910	0.400	-0.840	-0.190
2020/01/31 20:03:56.1	4.930	0.380	-0.830	-0.240
2020/01/31 20:03:56.2	4.950	0.350	-0.820	-0.280
2020/01/31 20:03:56.3	4.970	0.320	-0.800	-0.330
2020/01/31 20:03:56.4	4.990	0.290	-0.770	-0.370
2020/01/31 20:03:56.5	5.000	0.260	-0.740	-0.410
2020/01/31 20:03:56.6	5.020	0.220	-0.700	-0.450
2020/01/31 20:03:56.7	5.030	0.180	-0.660	-0.480
2020/01/31 20:03:56.8	5.040	0.140	-0.610	-0.510
2020/01/31 20:03:56.9	5.060	0.090	-0.560	-0.540
2020/01/31 20:03:57.0	5.060	0.050	-0.500	-0.570
2020/01/31 20:03:57.1	5.070	-0.000	-0.440	-0.590
2020/01/31 20:03:57.2	5.070	-0.050	-0.380	-0.610
2020/01/31 20:03:57.3	5.070	-0.100	-0.310	-0.630
2020/01/31 20:03:57.4	5.070	-0.160	-0.240	-0.640
2020/01/31 20:03:57.5	5.070	-0.210	-0.170	-0.640
2020/01/31 20:03:57.6	5.060	-0.260	-0.090	-0.640
2020/01/31 20:03:57.7	5.050	-0.310	-0.020	-0.640
2020/01/31 20:03:57.8	5.040	-0.370	0.060	-0.630
2020/01/31 20:03:57.9	5.030	-0.420	0.130	-0.620
2020/01/31 20:03:58.0	5.020	-0.470	0.210	-0.600
2020/01/31 20:03:58.1	5.000	-0.520	0.280	-0.590
2020/01/31 20:03:58.2	4.980	-0.570	0.350	-0.560
2020/01/31 20:03:58.3	4.950	-0.620	0.410	-0.540
2020/01/31 20:03:58.4	4.930	-0.660	0.480	-0.510
2020/01/31 20:03:58.5	4.900	-0.700	0.530	-0.490
2020/01/31 20:03:58.6	4.880	-0.740	0.580	-0.460
2020/01/31 20:03:58.7	4.850	-0.770	0.630	-0.430
2020/01/31 20:03:58.8	4.820	-0.800	0.660	-0.400
2020/01/31 20:03:58.9	4.800	-0.830	0.690	-0.370
2020/01/31 20:03:59.0	4.770	-0.850	0.710	-0.340
2020/01/31 20:03:59.1	4.740	-0.860	0.720	-0.310
2020/01/31 20:03:59.2	4.720	-0.880	0.720	-0.280
2020/01/31 20:03:59.3	4.690	-0.880	0.720	-0.260
2020/01/31 20:03:59.4	4.670	-0.880	0.700	-0.230
2020/01/31 20:03:59.5	4.640	-0.880	0.670	-0.210
2020/01/31 20:03:59.6	4.620	-0.870	0.640	-0.190
2020/01/31 20:03:59.7	4.590	-0.850	0.600	-0.170
2020/01/31 20:03:59.8	4.570	-0.830	0.550	-0.150
2020/01/31 20:03:59.9	4.550	-0.810	0.490	-0.130
2020/01/31 20:04:00.0	4.530	-0.780	0.430	-0.110
2020/01/31 20:04:00.1	4.510	-0.740	0.360	-0.100
2020/01/31 20:04:00.2	4.490	-0.700	0.280	-0.080
2020/01/31 20:04:00.3	4.470	-0.660	0.200	-0.070
2020/01/31 20:04:00.4	4.450	-0.610	0.120	-0.060
2020/01/31 20:04:00.5	4.430	-0.560	0.030	-0.040
2020/01/31 20:04:00.6	4.410	-0.500	-0.050	-0.030
2020/01/31 20:04:00.7	4.400	-0.440	-0.140	-0.030
2020/01/31 20:04:00.8	4.380	-0.380	-0.230	-0.020
2020/01/31 20:04:00.9	4.360	-0.310	-0.320	-0.010
2020/01/31 20:04:01.0	4.350	-0.250	-0.400	-0.010
2020/01/31 20:04:01.1	4.340	-0.180	-0.480	-0.000
2020/01/31 20:04:01.2	4.330	-0.110	-0.560	0.000
2020/01/31 20:04:01.3	4.310	-0.040	-0.630	0.010
2020/01/31 20:04:01.4	4.300	0.030	-0.700	0.010
2020/01/31 20:04:01.5	4.300	0.100	-0.760	0.010
2020/01/31 20:04:01.6	4.290	0.160	-0.810	0.020
2020/01/31 20:04:01.7	4.280	0.230	-0.860	0.020
2020/01/31 20:04:01.8	4.280	0.290	-0.900	0.020
2020/01/31 20:04:01.9	4.280	0.350	-0.930	0.020
2020/01/31 20:04:02.0	4.280	0.400	-0.960	0.030
2020/01/31 20:04:02.1	4.270	0.450	-0.980	0.030
2020/01/31 20:04:02.2	4.270	0.500	-0.990	0.030
2020/01/31 20:04:02.3	4.280	0.540	-0.990	0.030
2020/01/31 20:04:02.4	4.280	0.580	-0.990	0.020
2020/01/31 20:04:02.5	4.290	0.620	-0.990	0.020
2020/01/31 20:04:02.6	4.290	0.650	-0.970	0.020
2020/01/31 20:04:02.7	4.300	0.670	-0.960	0.020
2020/01/31 20:04:02.8	4.320	0.690	-0.940	0.010
2020/01/31 20:04:02.9	4.330	0.700	-0.920	0.010
2020/01/31 20:04:03.0	4.340	0.710	-0.890	0.000
2020/01/31 20:04:03.1	4.360	0.720	-0.860	-0.000
2020/01/31 20:04:03.2	4.380	0.720	-0.830	-0.010
2020/01/31 20:04:03.3	4.400	0.710	-0.790	-0.010
2020/01/31 20:04:03.4	4.430	0.700	-0.760	-0.020
2020/01/31 20:04:03.5	4.450	0.680	-0.730	-0.030
2020/01/31 20:04:03.6	4.470	0.660	-0.690	-0.040
2020/01/31 20:04:03.7	4.500	0.640	-0.660	-0.050
2020/01/31 20:04:03.8	4.530	0.610	-0.620	-0.060
2020/01/31 20:04:03.9	4.550	0.580	-0.590	-0.070
2020/01/31 20:04:04.0	4.580	0.550	-0.550	-0.090
2020/01/31 20:04:04.1	4.610	0.510	-0.520	-0.100
2020/01/31 20:04:04.2	4.630	0.470	-0.490	-0.120
2020/01/31 20:04:04.3	4.660	0.430	-0.450	-0.140
2020/01/31 20:04:04.4	4.690	0.390	-0.420	-0.160
2020/01/31 20:04:04.5	4.710	0.340	-0.390	-0.180
2020/01/31 20:04:04.6	4.740	0.290	-0.360	-0.200
2020/01/31 20:04:04.7	4.770	0.250	-0.330	-0.220
2020/01/31 20:04:04.8	4.790	0.200	-0.300	-0.240
2020/01/31 20:04:04.9	4.810	0.150	-0.270	-0.270
2020/01/31 20:04:05.0	4.840	0.100	-0.240	-0.290
2020/01/31 20:04:05.1	4.860	0.050	-0.210	-0.310
2020/01/31 20:04:05.2	4.880	0.010	-0.170	-0.340
2020/01/31 20:04:05.3	4.900	-0.040	-0.140	-0.360
2020/01/31 20:04:05.4	4.920	-0.090	-0.100	-0.380
2020/01/31 20:04:05.5	4.940	-0.130	-0.060	-0.400
2020/01/31 20:04:05.6	4.950	-0.170	-0.020	-0.410
2020/01/31 20:04:05.7	4.960	-0.210	0.020	-0.430
2020/01/31 20:04:05.8	4.970	-0.250	0.060	-0.430
2020/01/31 20:04:05.9	4.970	-0.290	0.100	-0.450
2020/01/31 20:04:06.0	4.980	-0.320	0.150	-0.450
2020/01/31 20:04:06.1	4.990	-0.350	0.200	-0.440
2020/01/31 20:04:06.2	4.990	-0.380	0.240	-0.440
2020/01/31 20:04:06.3	4.990	-0.410	0.290	-0.430
2020/01/31 20:04:06.4	4.990	-0.440	0.330	-0.420
2020/01/31 20:04:06.5	4.980	-0.460	0.380	-0.400
2020/01/31 20:04:06.6	4.980	-0.480	0.420	-0.380
2020/01/31 20:04:06.7	4.970	-0.500	0.460	-0.360
2020/01/31 20:04:06.8	4.960	-0.510	0.490	-0.330
2020/01/31 20:04:06.9	4.940	-0.520	0.520	-0.300
2020/01/31 20:04:07.0	4.930	-0.530	0.550	-0.280
2020/01/31 20:04:07.1	4.910	-0.540	0.570	-0.250
2020/01/31 20:04:07.2	4.900	-0.540	0.590	-0.220
2020/01/31 20:04:07.3	4.880	-0.540	0.600	-0.190
2020/01/31 20:04:07.4	4.860	-0.540	0.610	-0.160
2020/01/31 20:04:07.5	4.840	-0.540	0.610	-0.130
2020/01/31 20:04:07.6	4.820	-0.530	0.600	-0.100
2020/01/31 20:04:07.7	4.800	-0.520	0.590	-0.070
2020/01/31 20:04:07.8	4.780	-0.510	0.570	-0.040
2020/01/31 20:04:07.9	4.760	-0.490	0.540	-0.010
2020/01/31 20:04:08.0	4.730	-0.470	0.510	0.020
2020/01/31 20:04:08.1	4.710	-0.450	0.470	0.040
2020/01/31 20:04:08.2	4.680	-0.430	0.430	0.070
2020/01/31 20:04:08.3	4.660	-0.400	0.380	0.090
2020/01/31 20:04:08.4	4.630	-0.370	0.320	0.120
2020/01/31 20:04:08.5	4.610	-0.330	0.260	0.140
2020/01/31 20:04:08.6	4.590	-0.300	0.200	0.160
2020/01/31 20:04:08.7	4.560	-0.260	0.130	0.180
2020/01/31 20:04:08.8	4.540	-0.220	0.060	0.190
2020/01/31 20:04:08.9	4.520	-0.180	-0.020	0.210
2020/01/31 20:04:09.0	4.490	-0.130	-0.100	0.230
2020/01/31 20:04:09.1	4.470	-0.080	-0.180	0.240
2020/01/31 20:04:09.2	4.460	-0.030	-0.260	0.250
2020/01/31 20:04:09.3	4.440	0.020	-0.350	0.260
2020/01/31 20:04:09.4	4.420	0.070	-0.430	0.270
2020/01/31 20:04:09.5	4.410	0.120	-0.520	0.280
2020/01/31 20:04:09.6	4.390	0.180	-0.600	0.280
2020/01/31 20:04:09.7	4.380	0.230	-0.680	0.290
2020/01/31 20:04:09.8	4.370	0.280	-0.760	0.290
2020/01/31 20:04:09.9	4.360	0.340	-0.850	0.290
2020/01/31 20:04:10.0	4.360	0.390	-0.920	0.290
2020/01/31 20:04:10.1	4.350	0.440	-0.990	0.290
2020/01/31 20:04:10.2	4.350	0.490	-1.060	0.290
2020/01/31 20:04:10.3	4.350	0.540	-1.120	0.280
2020/01/31 20:04:10.4	4.350	0.580	-1.170	0.280
2020/01/31 20:04:10.5	4.360	0.620	-1.220	0.270
2020/01/31 20:04:10.6	4.360	0.660	-1.260	0.260
2020/01/31 20:04:10.7	4.370	0.700	-1.300	0.250
2020/01/31 20:04:10.8	4.380	0.730	-1.330	0.240
2020/01/31 20:04:10.9	4.400	0.760	-1.350	0.230
2020/01/31 20:04:11.0	4.420	0.780	-1.360	0.210
2020/01/31 20:04:11.1	4.430	0.800	-1.360	0.190
2020/01/31 20:04:11.2	4.450	0.810	-1.360	0.170
2020/01/31 20:04:11.3	4.470	0.810	-1.350	0.150
2020/01/31 20:04:11.4	4.500	0.810	-1.330	0.120
2020/01/31 20:04:11.5	4.520	0.810	-1.300	0.090
2020/01/31 20:04:11.6	4.550	0.800	-1.270	0.060
2020/01/31 20:04:11.7	4.580	0.780	-1.220	0.030
2020/01/31 20:04:11.8	4.610	0.760	-1.180	-0.010
2020/01/31 20:04:11.9	4.640	0.730	-1.130	-0.040
2020/01/31 20:04:12.0	4.680	0.700	-1.070	-0.080
2020/01/31 20:04:12.1	4.710	0.660	-1.000	-0.120
2020/01/31 20:04:12.2	4.750	0.620	-0.930	-0.170
2020/01/31 20:04:12.3	4.780	0.570	-0.860	-0.210
2020/01/31 20:04:12.4	4.820	0.520	-0.780	-0.250
2020/01/31 20:04:12.5	4.850	0.460	-0.700	-0.300
2020/01/31 20:04:12.6	4.890	0.400	-0.620	-0.350
2020/01/31 20:04:12.7	4.930	0.330	-0.530	-0.390
2020/01/31 20:04:12.8	4.960	0.270	-0.450	-0.440
2020/01/31 20:04:12.9	5.000	0.200	-0.360	-0.480
2020/01/31 20:04:13.0	5.030	0.130	-0.270	-0.530
2020/01/31 20:04:13.1	5.070	0.050	-0.190	-0.570
2020/01/31 20:04:13.2	5.100	-0.020	-0.100	-0.610
2020/01/31 20:04:13.3	5.120	-0.100	-0.020	-0.640
2020/01/31 20:04:13.4	5.150	-0.170	0.060	-0.680
2020/01/31 20:04:13.5	5.170	-0.240	0.140	-0.710
2020/01/31 20:04:13.6	5.190	-0.320	0.220	-0.730
2020/01/31 20:04:13.7	5.210	-0.390	0.290	-0.760
2020/01/31 20:04:13.8	5.220	-0.450	0.370	-0.780
2020/01/31 20:04:13.9	5.230	-0.520	0.430	-0.800
2020/01/31 20:04:14.0	5.230	-0.580	0.490	-0.810
2020/01/31 20:04:14.1	5.230	-0.640	0.550	-0.810
2020/01/31 20:04:14.2	5.230	-0.700	0.610	-0.820
2020/01/31 20:04:14.3	5.220	-0.750	0.660	-0.820
2020/01/31 20:04:14.4	5.210	-0.790	0.700	-0.810
2020/01/31 20:04:14.5	5.190	-0.840	0.740	-0.800
2020/01/31 20:04:14.6	5.170	-0.870	0.780	-0.780
2020/01/31 20:04:14.7	5.150	-0.900	0.810	-0.770
2020/01/31 20:04:14.8	5.120	-0.920	0.830	-0.750
2020/01/31 20:04:14.9	5.080	-0.940	0.850	-0.720
2020/01/31 20:04:15.0	5.050	-0.950	0.860	-0.690
2020/01/31 20:04:15.1	5.010	-0.960	0.860	-0.660
2020/01/31 20:04:15.2	4.980	-0.960	0.850	-0.630
2020/01/31 20:04:15.3	4.940	-0.950	0.840	-0.600
2020/01/31 20:04:15.4	4.900	-0.940	0.830	-0.570
2020/01/31 20:04:15.5	4.860	-0.920	0.800	-0.530
2020/01/31 20:04:15.6	4.820	-0.900	0.770	-0.500
2020/01/31 20:04:15.7	4.780	-0.870	0.730	-0.460
2020/01/31 20:04:15.8	4.730	-0.840	0.690	-0.420
2020/01/31 20:04:15.9	4.690	-0.800	0.630	-0.390
2020/01/31 20:04:16.0	4.650	-0.750	0.580	-0.350
2020/01/31 20:04:16.1	4.600	-0.710	0.520	-0.310
2020/01/31 20:04:16.2	4.560	-0.660	0.450	-0.270
2020/01/31 20:04:16.3	4.520	-0.600	0.380	-0.230
2020/01/31 20:04:16.4	4.480	-0.540	0.310	-0.200
2020/01/31 20:04:16.5	4.440	-0.480	0.230	-0.160
2020/01/31 20:04:16.6	4.390	-0.420	0.150	-0.130
2020/01/31 20:04:16.7	4.360	-0.350	0.060	-0.090
2020/01/31 20:04:16.8	4.320	-0.290	-0.020	-0.060
2020/01/31 20:04:16.9	4.290	-0.220	-0.110	-0.020
2020/01/31 20:04:17.0	4.260	-0.160	-0.190	0.010
2020/01/31 20:04:17.1	4.230	-0.090	-0.280	0.030
2020/01/31 20:04:17.2	4.200	-0.020	-0.370	0.050
2020/01/31 20:04:17.3	4.180	0.040	-0.450	0.080
2020/01/31 20:04:17.4	4.160	0.110	-0.530	0.090
2020/01/31 20:04:17.5	4.140	0.170	-0.610	0.110
2020/01/31 20:04:17.6	4.130	0.230	-0.690	0.120
2020/01/31 20:04:17.7	4.120	0.290	-0.760	0.120
2020/01/31 20:04:17.8	4.110	0.340	-0.830	0.130
2020/01/31 20:04:17.9	4.130	0.400	-0.890	0.120
2020/01/31 20:04:18.0	4.130	0.450	-0.950	0.120
2020/01/31 20:04:18.1	4.140	0.490	-1.000	0.110
2020/01/31 20:04:18.2	4.150	0.530	-1.050	0.100
2020/01/31 20:04:18.3	4.160	0.570	-1.080	0.090
2020/01/31 20:04:18.4	4.180	0.610	-1.120	0.080
2020/01/31 20:04:18.5	4.200	0.640	-1.140	0.060
2020/01/31 20:04:18.6	4.220	0.670	-1.160	0.050
2020/01/31 20:04:18.7	4.250	0.690	-1.170	0.030
2020/01/31 20:04:18.8	4.280	0.710	-1.180	0.020
2020/01/31 20:04:18.9	4.310	0.720	-1.170	0.000
2020/01/31 20:04:19.0	4.340	0.730	-1.160	-0.010
2020/01/31 20:04:19.1	4.370	0.740	-1.150	-0.020
2020/01/31 20:04:19.2	4.410	0.740	-1.120	-0.040
2020/01/31 20:04:19.3	4.450	0.740	-1.090	-0.050
2020/01/31 20:04:19.4	4.480	0.730	-1.050	-0.050
2020/01/31 20:04:19.5	4.520	0.720	-1.000	-0.060
2020/01/31 20:04:19.6	4.550	0.700	-0.950	-0.060
2020/01/31 20:04:19.7	4.590	0.680	-0.900	-0.070
2020/01/31 20:04:19.8	4.620	0.660	-0.840	-0.070
2020/01/31 20:04:19.9	4.650	0.640	-0.770	-0.070
2020/01/31 20:04:20.0	4.690	0.610	-0.710	-0.060
2020/01/31 20:04:20.1	4.720	0.580	-0.640	-0.060
2020/01/31 20:04:20.2	4.740	0.540	-0.570	-0.060
2020/01/31 20:04:20.3	4.770	0.500	-0.500	-0.050
2020/01/31 20:04:20.4	4.790	0.470	-0.430	-0.050
2020/01/31 20:04:20.5	4.820	0.420	-0.350	-0.040
2020/01/31 20:04:20.6	4.830	0.380	-0.290	-0.030
2020/01/31 20:04:20.7	4.850	0.340	-0.220	-0.030
2020/01/31 20:04:20.8	4.860	0.290	-0.150	-0.020
2020/01/31 20:04:20.9	4.870	0.250	-0.100	-0.010
2020/01/31 20:04:21.0	4.880	0.200	-0.040	-0.000
2020/01/31 20:04:21.1	4.890	0.160	0.020	0.000
2020/01/31 20:04:21.2	4.890	0.110	0.070	0.010
2020/01/31 20:04:21.3	4.890	0.070	0.110	0.020
2020/01/31 20:04:21.4	4.890	0.030	0.150	0.020
2020/01/31 20:04:21.5	4.880	-0.020	0.190	0.030
2020/01/31 20:04:21.6	4.880	-0.060	0.220	0.030
2020/01/31 20:04:21.7	4.870	-0.090	0.240	0.030
2020/01/31 20:04:21.8	4.860	-0.130	0.260	0.030
2020/01/31 20:04:21.9	4.850	-0.170	0.280	0.030
2020/01/31 20:04:22.0	4.840	-0.200	0.290	0.030
2020/01/31 20:04:22.1	4.840	-0.230	0.300	0.020
2020/01/31 20:04:22.2	4.830	-0.260	0.300	0.020
2020/01/31 20:04:22.3	4.820	-0.280	0.300	0.020
2020/01/31 20:04:22.4	4.810	-0.310	0.300	0.010
2020/01/31 20:04:22.5	4.800	-0.330	0.290	0.010
2020/01/31 20:04:22.6	4.780	-0.350	0.280	-0.000
2020/01/31 20:04:22.7	4.770	-0.360	0.270	-0.010
2020/01/31 20:04:22.8	4.760	-0.380	0.260	-0.010
2020/01/31 20:04:22.9	4.740	-0.390	0.240	-0.020
2020/01/31 20:04:23.0	4.730	-0.400	0.230	-0.020
2020/01/31 20:04:23.1	4.710	-0.410	0.210	-0.030
2020/01/31 20:04:23.2	4.700	-0.410	0.190	-0.030
2020/01/31 20:04:23.3	4.680	-0.410	0.180	-0.040
2020/01/31 20:04:23.4	4.670	-0.420	0.160	-0.040
2020/01/31 20:04:23.5	4.650	-0.410	0.140	-0.040
2020/01/31 20:04:23.6	4.630	-0.410	0.130	-0.040
2020/01/31 20:04:23.7	4.610	-0.410	0.110	-0.040
2020/01/31 20:04:23.8	4.590	-0.400	0.100	-0.030
2020/01/31 20:04:23.9	4.580	-0.400	0.080	-0.030
2020/01/31 20:04:24.0	4.560	-0.390	0.070	-0.030
2020/01/31 20:04:24.1	4.540	-0.380	0.050	-0.020
2020/01/31 20:04:24.2	4.520	-0.370	0.040	-0.020
2020/01/31 20:04:24.3	4.500	-0.350	0.020	-0.010
2020/01/31 20:04:24.4	4.480	-0.340	0.010	-0.000
2020/01/31 20:04:24.5	4.450	-0.320	-0.010	0.010
2020/01/31 20:04:24.6	4.430	-0.300	-0.020	0.020
2020/01/31 20:04:24.7	4.410	-0.280	-0.040	0.030
2020/01/31 20:04:24.8	4.390	-0.260	-0.060	0.040
2020/01/31 20:04:24.9	4.380	-0.240	-0.080	0.050
2020/01/31 20:04:25.0	4.360	-0.220	-0.100	0.070
2020/01/31 20:04:25.1	4.340	-0.190	-0.120	0.090
2020/01/31 20:04:25.2	4.330	-0.160	-0.150	0.100
2020/01/31 20:04:25.3	4.310	-0.130	-0.180	0.120
2020/01/31 20:04:25.4	4.300	-0.100	-0.200	0.140
2020/01/31 20:04:25.5	4.280	-0.070	-0.240	0.170
2020/01/31 20:04:25.6	4.270	-0.030	-0.270	0.190
2020/01/31 20:04:25.7	4.260	0.000	-0.300	0.210
2020/01/31 20:04:25.8	4.240	0.040	-0.340	0.240
2020/01/31 20:04:25.9	4.230	0.080	-0.380	0.260
2020/01/31 20:04:26.0	4.220	0.110	-0.420	0.290
2020/01/31 20:04:26.1	4.210	0.150	-0.460	0.310
2020/01/31 20:04:26.2	4.200	0.190	-0.510	0.340
2020/01/31 20:04:26.3	4.190	0.230	-0.550	0.360
2020/01/31 20:04:26.4	4.180	0.270	-0.590	0.380
2020/01/31 20:04:26.5	4.170	0.310	-0.640	0.410
2020/01/31 20:04:26.6	4.160	0.340	-0.680	0.430
2020/01/31 20:04:26.7	4.150	0.380	-0.720	0.450
2020/01/31 20:04:26.8	4.140	0.420	-0.760	0.460
2020/01/31 20:04:26.9	4.140	0.450	-0.800	0.480
2020/01/31 20:04:27.0	4.130	0.480	-0.830	0.490
2020/01/31 20:04:27.1	4.120	0.510	-0.870	0.500
2020/01/31 20:04:27.2	4.110	0.540	-0.890	0.510
2020/01/31 20:04:27.3	4.110	0.560	-0.920	0.510
2020/01/31 20:04:27.4	4.100	0.580	-0.940	0.510
2020/01/31 20:04:27.5	4.090	0.600	-0.950	0.510
2020/01/31 20:04:27.6	4.090	0.620	-0.960	0.510
2020/01/31 20:04:27.7	4.090	0.630	-0.970	0.500
2020/01/31 20:04:27.8	4.080	0.640	-0.970	0.490
2020/01/31 20:04:27.9	4.080	0.650	-0.960	0.480
2020/01/31 20:04:28.0	4.080	0.650	-0.950	0.470
2020/01/31 20:04:28.1	4.080	0.650	-0.930	0.460
2020/01/31 20:04:28.2	4.080	0.650	-0.910	0.440
2020/01/31 20:04:28.3	4.080	0.640	-0.880	0.420
2020/01/31 20:04:28.4	4.090	0.630	-0.840	0.400
2020/01/31 20:04:28.5	4.100	0.610	-0.800	0.380
2020/01/31 20:04:28.6	4.110	0.590	-0.750	0.370
2020/01/31 20:04:28.7	4.110	0.570	-0.700	0.340
2020/01/31 20:04:28.8	4.130	0.540	-0.650	0.320
2020/01/31 20:04:28.9	4.140	0.510	-0.580	0.300
2020/01/31 20:04:29.0	4.150	0.470	-0.520	0.270
2020/01/31 20:04:29.1	4.160	0.430	-0.450	0.250
2020/01/31 20:04:29.2	4.180	0.390	-0.380	0.220
2020/01/31 20:04:29.3	4.190	0.340	-0.310	0.190
2020/01/31 20:04:29.4	4.210	0.290	-0.240	0.150
2020/01/31 20:04:29.5	4.230	0.240	-0.170	0.120
2020/01/31 20:04:29.6	4.240	0.180	-0.100	0.080
2020/01/31 20:04:29.7	4.260	0.120	-0.030	0.040
2020/01/31 20:04:29.8	4.280	0.060	0.040	0.000
2020/01/31 20:04:29.9	4.300	-0.000	0.110	-0.040
2020/01/31 20:04:30.0	4.320	-0.070	0.170	-0.090
2020/01/31 20:04:30.1	4.340	-0.130	0.230	-0.130
2020/01/31 20:04:30.2	4.350	-0.200	0.280	-0.180
2020/01/31 20:04:30.3	4.370	-0.270	0.340	-0.230
2020/01/31 20:04:30.4	4.390	-0.330	0.380	-0.280
2020/01/31 20:04:30.5	4.410	-0.400	0.420	-0.320
2020/01/31 20:04:30.6	4.430	-0.460	0.460	-0.370
2020/01/31 20:04:30.7	4.440	-0.530	0.490	-0.420
2020/01/31 20:04:30.8	4.460	-0.590	0.510	-0.460
2020/01/31 20:04:30.9	4.470	-0.650	0.540	-0.510
2020/01/31 20:04:31.0	4.490	-0.700	0.550	-0.550
2020/01/31 20:04:31.1	4.500	-0.750	0.560	-0.590
2020/01/31 20:04:31.2	4.520	-0.800	0.560	-0.620
2020/01/31 20:04:31.3	4.530	-0.840	0.550	-0.660
2020/01/31 20:04:31.4	4.540	-0.880	0.550	-0.690
2020/01/31 20:04:31.5	4.550	-0.910	0.530	-0.710
2020/01/31 20:04:31.6	4.560	-0.940	0.510	-0.740
2020/01/31 20:04:31.7	4.570	-0.960	0.490	-0.760
2020/01/31 20:04:31.8	4.580	-0.970	0.460	-0.780
2020/01/31 20:04:31.9	4.590	-0.980	0.430	-0.790
2020/01/31 20:04:32.0	4.600	-0.980	0.390	-0.800
2020/01/31 20:04:32.1	4.610	-0.970	0.350	-0.810
2020/01/31 20:04:32.2	4.610	-0.960	0.300	-0.820
2020/01/31 20:04:32.3	4.620	-0.940	0.260	-0.820
2020/01/31 20:04:32.4	4.630	-0.910	0.210	-0.820
2020/01/31 20:04:32.5	4.640	-0.880	0.150	-0.820
2020/01/31 20:04:32.6	4.650	-0.830	0.090	-0.810
2020/01/31 20:04:32.7	4.650	-0.790	0.030	-0.800
2020/01/31 20:04:32.8	4.660	-0.730	-0.030	-0.790
2020/01/31 20:04:32.9	4.690	-0.670	-0.080	-0.770
2020/01/31 20:04:33.0	4.690	-0.610	-0.150	-0.750
2020/01/31 20:04:33.1	4.700	-0.540	-0.210	-0.730
2020/01/31 20:04:33.2	4.700	-0.470	-0.280	-0.700
2020/01/31 20:04:33.3	4.710	-0.390	-0.340	-0.680
2020/01/31 20:04:33.4	4.710	-0.310	-0.400	-0.650
2020/01/31 20:04:33.5	4.710	-0.230	-0.460	-0.610
2020/01/31 20:04:33.6	4.710	-0.150	-0.510	-0.580
2020/01/31 20:04:33.7	4.710	-0.060	-0.570	-0.540
2020/01/31 20:04:33.8	4.710	0.020	-0.620	-0.500
2020/01/31 20:04:33.9	4.710	0.100	-0.670	-0.460
2020/01/31 20:04:34.0	4.700	0.180	-0.720	-0.410
2020/01/31 20:04:34.1	4.700	0.260	-0.760	-0.370
2020/01/31 20:04:34.2	4.690	0.340	-0.790	-0.330
2020/01/31 20:04:34.3	4.680	0.420	-0.830	-0.290
2020/01/31 20:04:34.4	4.670	0.490	-0.850	-0.250
2020/01/31 20:04:34.5	4.650	0.550	-0.870	-0.200
2020/01/31 20:04:34.6	4.640	0.610	-0.890	-0.160
2020/01/31 20:04:34.7	4.620	0.670	-0.900	-0.120
2020/01/31 20:04:34.8	4.600	0.720	-0.900	-0.090
2020/01/31 20:04:34.9	4.560	0.760	-0.900	-0.050
2020/01/31 20:04:35.0	4.540	0.800	-0.900	-0.010
2020/01/31 20:04:35.1	4.510	0.830	-0.890	0.020
2020/01/31 20:04:35.2	4.490	0.850	-0.870	0.050
2020/01/31 20:04:35.3	4.460	0.870	-0.850	0.080
2020/01/31 20:04:35.4	4.430	0.880	-0.820	0.100
2020/01/31 20:04:35.5	4.400	0.890	-0.790	0.120
2020/01/31 20:04:35.6	4.370	0.890	-0.760	0.140
2020/01/31 20:04:35.7	4.350	0.880	-0.720	0.160
2020/01/31 20:04:35.8	4.320	0.870	-0.680	0.170
2020/01/31 20:04:35.9	4.280	0.850	-0.640	0.180
2020/01/31 20:04:36.0	4.260	0.820	-0.590	0.180
2020/01/31 20:04:36.1	4.230	0.790	-0.550	0.180
2020/01/31 20:04:36.2	4.200	0.760	-0.500	0.170
2020/01/31 20:04:36.3	4.180	0.720	-0.450	0.160
2020/01/31 20:04:36.4	4.150	0.680	-0.400	0.150
2020/01/31 20:04:36.5	4.130	0.640	-0.360	0.130
2020/01/31 20:04:36.6	4.110	0.590	-0.310	0.100
2020/01/31 20:04:36.7	4.090	0.550	-0.260	0.080
2020/01/31 20:04:36.8	4.070	0.500	-0.220	0.050
2020/01/31 20:04:36.9	4.050	0.440	-0.180	0.010
2020/01/31 20:04:37.0	4.040	0.390	-0.140	-0.030
2020/01/31 20:04:37.1	4.030	0.340	-0.100	-0.070
2020/01/31 20:04:37.2	4.020	0.290	-0.070	-0.110
2020/01/31 20:04:37.3	4.010	0.240	-0.040	-0.160
2020/01/31 20:04:37.4	4.010	0.190	-0.010	-0.210
2020/01/31 20:04:37.5	4.010	0.140	0.010	-0.260
2020/01/31 20:04:37.6	4.010	0.100	0.030	-0.310
2020/01/31 20:04:37.7	4.010	0.050	0.050	-0.370
2020/01/31 20:04:37.8	4.020	0.010	0.060	-0.420
2020/01/31 20:04:37.9	4.040	-0.030	0.060	-0.480
2020/01/31 20:04:38.0	4.050	-0.060	0.070	-0.530
2020/01/31 20:04:38.1	4.060	-0.090	0.060	-0.580
2020/01/31 20:04:38.2	4.070	-0.120	0.060	-0.630
2020/01/31 20:04:38.3	4.090	-0.150	0.050	-0.680
2020/01/31 20:04:38.4	4.100	-0.180	0.040	-0.730
2020/01/31 20:04:38.5	4.120	-0.200	0.020	-0.770
2020/01/31 20:04:38.6	4.140	-0.220	0.010	-0.810
2020/01/31 20:04:38.7	4.150	-0.230	-0.010	-0.850
2020/01/31 20:04:38.8	4.170	-0.250	-0.030	-0.890
2020/01/31 20:04:38.9	4.200	-0.260	-0.050	-0.920
2020/01/31 20:04:39.0	4.220	-0.270	-0.070	-0.940
2020/01/31 20:04:39.1	4.240	-0.280	-0.090	-0.970
2020/01/31 20:04:39.2	4.250	-0.290	-0.120	-1.000
2020/01/31 20:04:39.3	4.270	-0.300	-0.140	-1.020
2020/01/31 20:04:39.4	4.290	-0.300	-0.160	-1.040
2020/01/31 20:04:39.5	4.310	-0.300	-0.180	-1.050
2020/01/31 20:04:39.6	4.320	-0.310	-0.200	-1.070
2020/01/31 20:04:39.7	4.340	-0.310	-0.220	-1.080
2020/01/31 20:04:39.8	4.360	-0.310	-0.240	-1.090
2020/01/31 20:04:39.9	4.400	-0.300	-0.250	-1.100
2020/01/31 20:04:40.0	4.420	-0.300	-0.270	-1.110
2020/01/31 20:04:40.1	4.430	-0.300	-0.290	-1.110
2020/01/31 20:04:40.2	4.450	-0.290	-0.300	-1.110
2020/01/31 20:04:40.3	4.470	-0.290	-0.310	-1.110
2020/01/31 20:04:40.4	4.480	-0.280	-0.320	-1.100
2020/01/31 20:04:40.5	4.500	-0.280	-0.320	-1.090
2020/01/31 20:04:40.6	4.510	-0.270	-0.320	-1.070
2020/01/31 20:04:40.7	4.520	-0.260	-0.320	-1.050
2020/01/31 20:04:40.8	4.530	-0.260	-0.320	-1.020
2020/01/31 20:04:40.9	4.540	-0.250	-0.310	-1.000
2020/01/31 20:04:41.0	4.550	-0.240	-0.300	-0.960
2020/01/31 20:04:41.1	4.550	-0.230	-0.290	-0.930
2020/01/31 20:04:41.2	4.560	-0.220	-0.270	-0.880
2020/01/31 20:04:41.3	4.560	-0.210	-0.250	-0.840
2020/01/31 20:04:41.4	4.570	-0.200	-0.230	-0.790
2020/01/31 20:04:41.5	4.570	-0.180	-0.210	-0.740
2020/01/31 20:04:41.6	4.570	-0.170	-0.180	-0.680
2020/01/31 20:04:41.7	4.570	-0.160	-0.150	-0.620
2020/01/31 20:04:41.8	4.570	-0.140	-0.120	-0.560
2020/01/31 20:04:41.9	4.570	-0.130	-0.090	-0.500
2020/01/31 20:04:42.0	4.570	-0.110	-0.060	-0.440
2020/01/31 20:04:42.1	4.560	-0.100	-0.030	-0.370
2020/01/31 20:04:42.2	4.560	-0.080	0.010	-0.310
2020/01/31 20:04:42.3	4.550	-0.060	0.040	-0.250
2020/01/31 20:04:42.4	4.550	-0.050	0.070	-0.190
2020/01/31 20:04:42.5	4.540	-0.030	0.090	-0.130
2020/01/31 20:04:42.6	4.540	-0.010	0.120	-0.070
2020/01/31 20:04:42.7	4.530	0.010	0.140	-0.020
2020/01/31 20:04:42.8	4.530	0.020	0.150	0.040
2020/01/31 20:04:42.9	4.520	0.040	0.160	0.090
2020/01/31 20:04:43.0	4.510	0.060	0.170	0.140
2020/01/31 20:04:43.1	4.510	0.080	0.170	0.180
2020/01/31 20:04:43.2	4.510	0.100	0.170	0.230
2020/01/31 20:04:43.3	4.500	0.120	0.160	0.270
2020/01/31 20:04:43.4	4.500	0.140	0.140	0.310
2020/01/31 20:04:43.5	4.500	0.160	0.120	0.340
2020/01/31 20:04:43.6	4.500	0.180	0.100	0.370
2020/01/31 20:04:43.7	4.500	0.190	0.070	0.400
2020/01/31 20:04:43.8	4.500	0.210	0.040	0.430
2020/01/31 20:04:43.9	4.490	0.230	-0.000	0.450
2020/01/31 20:04:44.0	4.490	0.240	-0.050	0.460
2020/01/31 20:04:44.1	4.490	0.260	-0.090	0.470
2020/01/31 20:04:44.2	4.500	0.270	-0.140	0.480
2020/01/31 20:04:44.3	4.500	0.280	-0.190	0.480
2020/01/31 20:04:44.4	4.510	0.290	-0.250	0.480
2020/01/31 20:04:44.5	4.510	0.290	-0.300	0.470
2020/01/31 20:04:44.6	4.520	0.300	-0.360	0.450
2020/01/31 20:04:44.7	4.530	0.300	-0.420	0.440
2020/01/31 20:04:44.8	4.530	0.300	-0.480	0.410
2020/01/31 20:04:44.9	4.530	0.290	-0.540	0.390
2020/01/31 20:04:45.0	4.540	0.290	-0.590	0.360
2020/01/31 20:04:45.1	4.540	0.280	-0.640	0.320
2020/01/31 20:04:45.2	4.550	0.260	-0.700	0.280
2020/01/31 20:04:45.3	4.560	0.250	-0.740	0.240
2020/01/31 20:04:45.4	4.560	0.230	-0.790	0.200
2020/01/31 20:04:45.5	4.570	0.210	-0.830	0.150
2020/01/31 20:04:45.6	4.570	0.180	-0.870	0.090
2020/01/31 20:04:45.7	4.580	0.160	-0.900	0.040
2020/01/31 20:04:45.8	4.590	0.130	-0.930	-0.020
2020/01/31 20:04:45.9	4.590	0.100	-0.950	-0.080
2020/01/31 20:04:46.0	4.600	0.060	-0.970	-0.140
2020/01/31 20:04:46.1	4.600	0.030	-0.980	-0.200
2020/01/31 20:04:46.2	4.610	-0.010	-0.990	-0.260
2020/01/31 20:04:46.3	4.620	-0.050	-0.990	-0.320
2020/01/31 20:04:46.4	4.630	-0.090	-0.980	-0.380
2020/01/31 20:04:46.5	4.640	-0.130	-0.970	-0.430
2020/01/31 20:04:46.6	4.650	-0.170	-0.960	-0.490
2020/01/31 20:04:46.7	4.660	-0.200	-0.940	-0.540
2020/01/31 20:04:46.8	4.670	-0.240	-0.910	-0.590
2020/01/31 20:04:46.9	4.680	-0.280	-0.880	-0.640
2020/01/31 20:04:47.0	4.700	-0.320	-0.850	-0.690
2020/01/31 20:04:47.1	4.710	-0.350	-0.810	-0.740
2020/01/31 20:04:47.2	4.730	-0.380	-0.770	-0.780
2020/01/31 20:04:47.3	4.740	-0.410	-0.720	-0.820
2020/01/31 20:04:47.4	4.760	-0.440	-0.670	-0.860
2020/01/31 20:04:47.5	4.780	-0.460	-0.620	-0.890
2020/01/31 20:04:47.6	4.800	-0.480	-0.570	-0.920
2020/01/31 20:04:47.7	4.810	-0.500	-0.510	-0.950
2020/01/31 20:04:47.8	4.830	-0.510	-0.450	-0.970
2020/01/31 20:04:47.9	4.850	-0.520	-0.400	-0.990
2020/01/31 20:04:48.0	4.860	-0.530	-0.330	-1.000
2020/01/31 20:04:48.1	4.870	-0.530	-0.270	-1.010
2020/01/31 20:04:48.2	4.880	-0.530	-0.210	-1.010
2020/01/31 20:04:48.3	4.880	-0.520	-0.140	-1.000
2020/01/31 20:04:48.4	4.880	-0.510	-0.070	-0.980
2020/01/31 20:04:48.5	4.880	-0.490	-0.000	-0.960
2020/01/31 20:04:48.6	4.870	-0.480	0.060	-0.930
2020/01/31 20:04:48.7	4.860	-0.450	0.130	-0.890
2020/01/31 20:04:48.8	4.840	-0.430	0.200	-0.850
2020/01/31 20:04:48.9	4.820	-0.400	0.260	-0.800
2020/01/31 20:04:49.0	4.790	-0.360	0.320	-0.740
2020/01/31 20:04:49.1	4.770	-0.330	0.380	-0.690
2020/01/31 20:04:49.2	4.740	-0.290	0.430	-0.620
2020/01/31 20:04:49.3	4.710	-0.240	0.480	-0.560
2020/01/31 20:04:49.4	4.680	-0.200	0.520	-0.490
2020/01/31 20:04:49.5	4.640	-0.150	0.560	-0.420
2020/01/31 20:04:49.6	4.610	-0.110	0.590	-0.350
2020/01/31 20:04:49.7	4.580	-0.060	0.610	-0.280
2020/01/31 20:04:49.8	4.540	-0.010	0.630	-0.200
2020/01/31 20:04:49.9	4.510	0.040	0.630	-0.130
2020/01/31 20:04:50.0	4.480	0.100	0.630	-0.060
2020/01/31 20:04:50.1	4.450	0.150	0.620	0.010
2020/01/31 20:04:50.2	4.420	0.200	0.600	0.070
2020/01/31 20:04:50.3	4.400	0.260	0.570	0.130
2020/01/31 20:04:50.4	4.380	0.310	0.530	0.190
2020/01/31 20:04:50.5	4.360	0.360	0.480	0.240
2020/01/31 20:04:50.6	4.350	0.410	0.420	0.280
2020/01/31 20:04:50.7	4.340	0.460	0.360	0.330
2020/01/31 20:04:50.8	4.330	0.510	0.290	0.360
2020/01/31 20:04:50.9	4.320	0.560	0.210	0.400
2020/01/31 20:04:51.0	4.320	0.610	0.120	0.420
2020/01/31 20:04:51.1	4.320	0.650	0.040	0.440
2020/01/31 20:04:51.2	4.330	0.690	-0.050	0.460
2020/01/31 20:04:51.3	4.340	0.730	-0.150	0.470
2020/01/31 20:04:51.4	4.340	0.770	-0.240	0.470
2020/01/31 20:04:51.5	4.350	0.800	-0.330	0.480
2020/01/31 20:04:51.6	4.360	0.830	-0.420	0.470
2020/01/31 20:04:51.7	4.370	0.850	-0.510	0.470
2020/01/31 20:04:51.8	4.380	0.870	-0.590	0.460
2020/01/31 20:04:51.9	4.380	0.880	-0.670	0.450
2020/01/31 20:04:52.0	4.390	0.890	-0.740	0.430
2020/01/31 20:04:52.1	4.400	0.890	-0.800	0.410
2020/01/31 20:04:52.2	4.400	0.890	-0.850	0.400
2020/01/31 20:04:52.3	4.410	0.880	-0.890	0.370
2020/01/31 20:04:52.4	4.420	0.860	-0.920	0.350
2020/01/31 20:04:52.5	4.420	0.840	-0.950	0.330
2020/01/31 20:04:52.6	4.430	0.810	-0.960	0.310
2020/01/31 20:04:52.7	4.430	0.780	-0.960	0.280
2020/01/31 20:04:52.8	4.440	0.740	-0.950	0.260
2020/01/31 20:04:52.9	4.450	0.700	-0.930	0.230
2020/01/31 20:04:53.0	4.450	0.650	-0.900	0.210
2020/01/31 20:04:53.1	4.460	0.590	-0.860	0.180
2020/01/31 20:04:53.2	4.470	0.530	-0.820	0.150
2020/01/31 20:04:53.3	4.470	0.470	-0.770	0.130
2020/01/31 20:04:53.4	4.480	0.400	-0.710	0.100
2020/01/31 20:04:53.5	4.490	0.340	-0.650	0.070
2020/01/31 20:04:53.6	4.500	0.260	-0.590	0.040
2020/01/31 20:04:53.7	4.510	0.190	-0.520	0.020
2020/01/31 20:04:53.8	4.520	0.110	-0.450	-0.010
2020/01/31 20:04:53.9	4.530	0.040	-0.380	-0.040
2020/01/31 20:04:54.0	4.550	-0.040	-0.320	-0.070
2020/01/31 20:04:54.1	4.560	-0.120	-0.250	-0.110
2020/01/31 20:04:54.2	4.580	-0.190	-0.190	-0.140
2020/01/31 20:04:54.3	4.600	-0.270	-0.130	-0.170
2020/01/31 20:04:54.4	4.620	-0.340	-0.080	-0.210
2020/01/31 20:04:54.5	4.640	-0.410	-0.030	-0.250
2020/01/31 20:04:54.6	4.660	-0.470	0.010	-0.290
2020/01/31 20:04:54.7	4.680	-0.530	0.050	-0.330
2020/01/31 20:04:54.8	4.710	-0.590	0.080	-0.370
2020/01/31 20:04:54.9	4.740	-0.640	0.100	-0.410
2020/01/31 20:04:55.0	4.770	-0.690	0.120	-0.450
2020/01/31 20:04:55.1	4.800	-0.730	0.130	-0.500
2020/01/31 20:04:55.2	4.820	-0.760	0.140	-0.540
2020/01/31 20:04:55.3	4.850	-0.790	0.140	-0.570
2020/01/31 20:04:55.4	4.880	-0.810	0.130	-0.610
2020/01/31 20:04:55.5	4.900	-0.830	0.120	-0.640
2020/01/31 20:04:55.6	4.920	-0.840	0.100	-0.670
2020/01/31 20:04:55.7	4.940	-0.840	0.090	-0.690
2020/01/31 20:04:55.8	4.960	-0.830	0.060	-0.710
2020/01/31 20:04:55.9	4.970	-0.820	0.040	-0.740
2020/01/31 20:04:56.0	4.990	-0.810	0.010	-0.750
2020/01/31 20:04:56.1	5.000	-0.790	-0.020	-0.750
2020/01/31 20:04:56.2	5.010	-0.760	-0.050	-0.760
2020/01/31 20:04:56.3	5.020	-0.730	-0.080	-0.760
2020/01/31 20:04:56.4	5.020	-0.690	-0.120	-0.750
2020/01/31 20:04:56.5	5.020	-0.650	-0.150	-0.740
2020/01/31 20:04:56.6	5.020	-0.610	-0.190	-0.730
2020/01/31 20:04:56.7	5.020	-0.560	-0.230	-0.710
2020/01/31 20:04:56.8	5.010	-0.520	-0.260	-0.690
2020/01/31 20:04:56.9	5.010	-0.470	-0.300	-0.670
2020/01/31 20:04:57.0	5.000	-0.420	-0.340	-0.650
2020/01/31 20:04:57.1	4.990	-0.370	-0.380	-0.620
2020/01/31 20:04:57.2	4.970	-0.320	-0.410	-0.600
2020/01/31 20:04:57.3	4.960	-0.270	-0.440	-0.580
2020/01/31 20:04:57.4	4.950	-0.220	-0.480	-0.550
2020/01/31 20:04:57.5	4.930	-0.170	-0.510	-0.530
2020/01/31 20:04:57.6	4.910	-0.130	-0.540	-0.510
2020/01/31 20:04:57.7	4.900	-0.080	-0.560	-0.490
2020/01/31 20:04:57.8	4.880	-0.040	-0.590	-0.470
2020/01/31 20:04:57.9	4.860	-0.010	-0.610	-0.450
2020/01/31 20:04:58.0	4.850	0.030	-0.630	-0.430
2020/01/31 20:04:58.1	4.830	0.060	-0.640	-0.420
2020/01/31 20:04:58.2	4.820	0.090	-0.650	-0.400
2020/01/31 20:04:58.3	4.800	0.110	-0.660	-0.390
2020/01/31 20:04:58.4	4.790	0.130	-0.670	-0.380
2020/01/31 20:04:58.5	4.780	0.150	-0.670	-0.370
2020/01/31 20:04:58.6	4.770	0.160	-0.670	-0.360
2020/01/31 20:04:58.7	4.770	0.170	-0.660	-0.350
2020/01/31 20:04:58.8	4.760	0.180	-0.650	-0.350
2020/01/31 20:04:58.9	4.750	0.180	-0.630	-0.340
2020/01/31 20:04:59.0	4.750	0.180	-0.610	-0.330
2020/01/31 20:04:59.1	4.740	0.170	-0.590	-0.330
2020/01/31 20:04:59.2	4.740	0.170	-0.560	-0.320
2020/01/31 20:04:59.3	4.740	0.160	-0.520	-0.310
2020/01/31 20:04:59.4	4.740	0.140	-0.480	-0.310
2020/01/31 20:04:59.5	4.740	0.130	-0.440	-0.300
2020/01/31 20:04:59.6	4.750	0.110	-0.390	-0.290
2020/01/31 20:04:59.7	4.750	0.100	-0.340	-0.280
2020/01/31 20:04:59.8	4.750	0.080	-0.290	-0.270
2020/01/31 20:04:59.9	4.760	0.060	-0.230	-0.260
2020/01/31 20:05:00.0	4.760	0.040	-0.170	-0.250
2020/01/31 20:05:00.1	4.770	0.030	-0.110	-0.240
2020/01/31 20:05:00.2	4.770	0.010	-0.050	-0.220
2020/01/31 20:05:00.3	4.780	-0.010	0.010	-0.210
2020/01/31 20:05:00.4	4.780	-0.020	0.070	-0.190
2020/01/31 20:05:00.5	4.780	-0.040	0.130	-0.170
2020/01/31 20:05:00.6	4.790	-0.050	0.190	-0.150
2020/01/31 20:05:00.7	4.790	-0.060	0.250	-0.130
2020/01/31 20:05:00.8	4.790	-0.060	0.300	-0.100
2020/01/31 20:05:00.9	4.790	-0.070	0.350	-0.070
2020/01/31 20:05:01.0	4.790	-0.070	0.390	-0.050
2020/01/31 20:05:01.1	4.790	-0.060	0.430	-0.020
2020/01/31 20:05:01.2	4.790	-0.060	0.470	0.010
2020/01/31 20:05:01.3	4.780	-0.050	0.500	0.050
2020/01/31 20:05:01.4	4.780	-0.030	0.530	0.080
2020/01/31 20:05:01.5	4.770	-0.020	0.540	0.120
2020/01/31 20:05:01.6	4.770	-0.000	0.560	0.160
2020/01/31 20:05:01.7	4.760	0.020	0.560	0.190
2020/01/31 20:05:01.8	4.750	0.050	0.570	0.230
2020/01/31 20:05:01.9	4.740	0.070	0.550	0.270
2020/01/31 20:05:02.0	4.730	0.100	0.540	0.310
2020/01/31 20:05:02.1	4.720	0.130	0.520	0.340
2020/01/31 20:05:02.2	4.710	0.160	0.500	0.380
2020/01/31 20:05:02.3	4.700	0.200	0.460	0.410
2020/01/31 20:05:02.4	4.690	0.230	0.430	0.450
2020/01/31 20:05:02.5	4.680	0.260	0.380	0.480
2020/01/31 20:05:02.6	4.670	0.290	0.330	0.500
2020/01/31 20:05:02.7	4.660	0.330	0.280	0.530
2020/01/31 20:05:02.8	4.650	0.360	0.220	0.550
2020/01/31 20:05:02.9	4.640	0.390	0.150	0.570
2020/01/31 20:05:03.0	4.630	0.420	0.090	0.580
2020/01/31 20:05:03.1	4.630	0.440	0.010	0.590
2020/01/31 20:05:03.2	4.630	0.460	-0.060	0.580
2020/01/31 20:05:03.3	4.630	0.480	-0.140	0.580
2020/01/31 20:05:03.4	4.630	0.500	-0.230	0.560
2020/01/31 20:05:03.5	4.640	0.510	-0.310	0.540
2020/01/31 20:05:03.6	4.650	0.520	-0.400	0.510
2020/01/31 20:05:03.7	4.660	0.530	-0.480	0.470
2020/01/31 20:05:03.8	4.680	0.530	-0.570	0.420
2020/01/31 20:05:03.9	4.690	0.530	-0.660	0.360
2020/01/31 20:05:04.0	4.710	0.530	-0.740	0.300
2020/01/31 20:05:04.1	4.740	0.520	-0.830	0.230
2020/01/31 20:05:04.2	4.780	0.510	-0.910	0.160
2020/01/31 20:05:04.3	4.820	0.500	-0.990	0.070
2020/01/31 20:05:04.4	4.860	0.480	-1.070	-0.010
2020/01/31 20:05:04.5	4.900	0.460	-1.140	-0.100
2020/01/31 20:05:04.6	4.950	0.430	-1.210	-0.190
2020/01/31 20:05:04.7	5.000	0.410	-1.270	-0.290
2020/01/31 20:05:04.8	5.050	0.380	-1.320	-0.380
2020/01/31 20:05:04.9	5.100	0.340	-1.380	-0.480
2020/01/31 20:05:05.0	5.150	0.310	-1.410	-0.570
2020/01/31 20:05:05.1	5.200	0.270	-1.440	-0.660
2020/01/31 20:05:05.2	5.250	0.230	-1.460	-0.750
2020/01/31 20:05:05.3	5.300	0.180	-1.470	-0.830
2020/01/31 20:05:05.4	5.340	0.140	-1.470	-0.910
2020/01/31 20:05:05.5	5.380	0.090	-1.460	-0.990
2020/01/31 20:05:05.6	5.420	0.040	-1.430	-1.060
2020/01/31 20:05:05.7	5.450	-0.010	-1.400	-1.130
2020/01/31 20:05:05.8	5.480	-0.060	-1.350	-1.200
2020/01/31 20:05:05.9	5.500	-0.120	-1.290	-1.260
2020/01/31 20:05:06.0	5.520	-0.170	-1.230	-1.320
2020/01/31 20:05:06.1	5.540	-0.230	-1.160	-1.370
2020/01/31 20:05:06.2	5.550	-0.280	-1.080	-1.420
2020/01/31 20:05:06.3	5.560	-0.340	-0.990	-1.470
2020/01/31 20:05:06.4	5.570	-0.390	-0.890	-1.510
2020/01/31 20:05:06.5	5.570	-0.440	-0.790	-1.550
2020/01/31 20:05:06.6	5.570	-0.490	-0.690	-1.590
2020/01/31 20:05:06.7	5.570	-0.540	-0.580	-1.610
2020/01/31 20:05:06.8	5.560	-0.590	-0.470	-1.640
2020/01/31 20:05:06.9	5.550	-0.640	-0.350	-1.660
2020/01/31 20:05:07.0	5.540	-0.680	-0.240	-1.670
2020/01/31 20:05:07.1	5.530	-0.720	-0.120	-1.680
2020/01/31 20:05:07.2	5.510	-0.760	-0.010	-1.690
2020/01/31 20:05:07.3	5.490	-0.790	0.100	-1.690
2020/01/31 20:05:07.4	5.480	-0.820	0.210	-1.680
2020/01/31 20:05:07.5	5.460	-0.840	0.310	-1.670
2020/01/31 20:05:07.6	5.440	-0.850	0.410	-1.650
2020/01/31 20:05:07.7	5.420	-0.870	0.500	-1.630
2020/01/31 20:05:07.8	5.400	-0.870	0.580	-1.600
2020/01/31 20:05:07.9	5.380	-0.870	0.660	-1.570
2020/01/31 20:05:08.0	5.360	-0.860	0.720	-1.530
2020/01/31 20:05:08.1	5.340	-0.850	0.780	-1.490
2020/01/31 20:05:08.2	5.310	-0.830	0.830	-1.440
2020/01/31 20:05:08.3	5.290	-0.800	0.880	-1.380
2020/01/31 20:05:08.4	5.270	-0.770	0.910	-1.320
2020/01/31 20:05:08.5	5.240	-0.730	0.930	-1.250
2020/01/31 20:05:08.6	5.220	-0.690	0.940	-1.180
2020/01/31 20:05:08.7	5.200	-0.640	0.940	-1.110
2020/01/31 20:05:08.8	5.170	-0.580	0.940	-1.030
2020/01/31 20:05:08.9	5.140	-0.520	0.920	-0.950
2020/01/31 20:05:09.0	5.110	-0.460	0.890	-0.860
2020/01/31 20:05:09.1	5.090	-0.390	0.850	-0.780
2020/01/31 20:05:09.2	5.060	-0.320	0.810	-0.690
2020/01/31 20:05:09.3	5.040	-0.240	0.750	-0.610
2020/01/31 20:05:09.4	5.010	-0.160	0.690	-0.520
2020/01/31 20:05:09.5	4.990	-0.080	0.630	-0.430
2020/01/31 20:05:09.6	4.960	0.000	0.550	-0.340
2020/01/31 20:05:09.7	4.940	0.090	0.470	-0.260
2020/01/31 20:05:09.8	4.910	0.170	0.390	-0.170
2020/01/31 20:05:09.9	4.900	0.250	0.300	-0.090
2020/01/31 20:05:10.0	4.870	0.330	0.210	-0.000
2020/01/31 20:05:10.1	4.850	0.420	0.110	0.080
2020/01/31 20:05:10.2	4.830	0.490	0.020	0.160
2020/01/31 20:05:10.3	4.810	0.570	-0.080	0.230
2020/01/31 20:05:10.4	4.800	0.640	-0.170	0.300
2020/01/31 20:05:10.5	4.780	0.710	-0.260	0.370
2020/01/31 20:05:10.6	4.770	0.780	-0.360	0.430
2020/01/31 20:05:10.7	4.750	0.840	-0.440	0.490
2020/01/31 20:05:10.8	4.740	0.890	-0.530	0.550
2020/01/31 20:05:10.9	4.730	0.940	-0.610	0.610
2020/01/31 20:05:11.0	4.720	0.980	-0.680	0.650
2020/01/31 20:05:11.1	4.710	1.020	-0.750	0.700
2020/01/31 20:05:11.2	4.710	1.050	-0.810	0.740
2020/01/31 20:05:11.3	4.700	1.070	-0.870	0.770
2020/01/31 20:05:11.4	4.700	1.090	-0.920	0.790
2020/01/31 20:05:11.5	4.700	1.090	-0.960	0.810
2020/01/31 20:05:11.6	4.700	1.090	-0.990	0.830
2020/01/31 20:05:11.7	4.700	1.090	-1.020	0.830
2020/01/31 20:05:11.8	4.700	1.070	-1.040	0.840
2020/01/31 20:05:11.9	4.710	1.050	-1.060	0.830
2020/01/31 20:05:12.0	4.720	1.020	-1.060	0.820
2020/01/31 20:05:12.1	4.730	0.980	-1.070	0.800
2020/01/31 20:05:12.2	4.740	0.940	-1.060	0.780
2020/01/31 20:05:12.3	4.750	0.890	-1.050	0.750
2020/01/31 20:05:12.4	4.770	0.840	-1.040	0.710
2020/01/31 20:05:12.5	4.790	0.780	-1.020	0.670
2020/01/31 20:05:12.6	4.810	0.710	-1.000	0.620
2020/01/31 20:05:12.7	4.840	0.650	-0.970	0.570
2020/01/31 20:05:12.8	4.870	0.570	-0.940	0.510
2020/01/31 20:05:12.9	4.910	0.500	-0.910	0.440
2020/01/31 20:05:13.0	4.940	0.420	-0.870	0.370
2020/01/31 20:05:13.1	4.980	0.340	-0.830	0.290
2020/01/31 20:05:13.2	5.020	0.260	-0.790	0.210
2020/01/31 20:05:13.3	5.060	0.180	-0.750	0.130
2020/01/31 20:05:13.4	5.100	0.100	-0.710	0.050
2020/01/31 20:05:13.5	5.140	0.010	-0.660	-0.040
2020/01/31 20:05:13.6	5.190	-0.070	-0.610	-0.130
2020/01/31 20:05:13.7	5.230	-0.150	-0.570	-0.220
2020/01/31 20:05:13.8	5.270	-0.230	-0.520	-0.320
2020/01/31 20:05:13.9	5.320	-0.310	-0.470	-0.410
2020/01/31 20:05:14.0	5.360	-0.390	-0.420	-0.500
2020/01/31 20:05:14.1	5.400	-0.460	-0.360	-0.590
2020/01/31 20:05:14.2	5.440	-0.540	-0.310	-0.680
2020/01/31 20:05:14.3	5.470	-0.610	-0.260	-0.770
2020/01/31 20:05:14.4	5.500	-0.680	-0.210	-0.850
2020/01/31 20:05:14.5	5.530	-0.740	-0.150	-0.930
2020/01/31 20:05:14.6	5.550	-0.800	-0.100	-1.010
2020/01/31 20:05:14.7	5.570	-0.860	-0.050	-1.080
2020/01/31 20:05:14.8	5.590	-0.910	0.000	-1.140
2020/01/31 20:05:14.9	5.610	-0.960	0.050	-1.200
2020/01/31 20:05:15.0	5.620	-1.000	0.100	-1.250
2020/01/31 20:05:15.1	5.630	-1.040	0.150	-1.300
2020/01/31 20:05:15.2	5.630	-1.070	0.190	-1.340
2020/01/31 20:05:15.3	5.620	-1.100	0.240	-1.370
2020/01/31 20:05:15.4	5.620	-1.120	0.280	-1.390
2020/01/31 20:05:15.5	5.610	-1.140	0.320	-1.400
2020/01/31 20:05:15.6	5.590	-1.150	0.350	-1.410
2020/01/31 20:05:15.7	5.580	-1.150	0.390	-1.410
2020/01/31 20:05:15.8	5.560	-1.150	0.410	-1.400
2020/01/31 20:05:15.9	5.530	-1.150	0.440	-1.390
2020/01/31 20:05:16.0	5.510	-1.130	0.460	-1.370
2020/01/31 20:05:16.1	5.490	-1.120	0.480	-1.340
2020/01/31 20:05:16.2	5.460	-1.090	0.490	-1.310
2020/01/31 20:05:16.3	5.440	-1.060	0.500	-1.270
2020/01/31 20:05:16.4	5.410	-1.030	0.500	-1.230
2020/01/31 20:05:16.5	5.380	-0.990	0.490	-1.180
2020/01/31 20:05:16.6	5.360	-0.940	0.480	-1.130
2020/01/31 20:05:16.7	5.330	-0.890	0.470	-1.080
2020/01/31 20:05:16.8	5.300	-0.830	0.450	-1.020
2020/01/31 20:05:16.9	5.290	-0.770	0.420	-0.960
2020/01/31 20:05:17.0	5.260	-0.700	0.390	-0.900
2020/01/31 20:05:17.1	5.230	-0.630	0.360	-0.830
2020/01/31 20:05:17.2	5.210	-0.560	0.320	-0.770
2020/01/31 20:05:17.3	5.180	-0.480	0.280	-0.700
2020/01/31 20:05:17.4	5.160	-0.400	0.230	-0.630
2020/01/31 20:05:17.5	5.140	-0.320	0.180	-0.560
2020/01/31 20:05:17.6	5.110	-0.230	0.130	-0.480
2020/01/31 20:05:17.7	5.080	-0.150	0.080	-0.410
2020/01/31 20:05:17.8	5.060	-0.060	0.030	-0.330
2020/01/31 20:05:17.9	5.030	0.030	-0.030	-0.260
2020/01/31 20:05:18.0	5.000	0.120	-0.080	-0.180
2020/01/31 20:05:18.1	4.980	0.210	-0.130	-0.100
2020/01/31 20:05:18.2	4.950	0.290	-0.190	-0.020
2020/01/31 20:05:18.3	4.930	0.380	-0.240	0.060
2020/01/31 20:05:18.4	4.900	0.460	-0.290	0.130
2020/01/31 20:05:18.5	4.880	0.540	-0.330	0.210
2020/01/31 20:05:18.6	4.860	0.620	-0.380	0.280
2020/01/31 20:05:18.7	4.840	0.690	-0.420	0.350
2020/01/31 20:05:18.8	4.820	0.760	-0.460	0.420
2020/01/31 20:05:18.9	4.800	0.820	-0.500	0.490
2020/01/31 20:05:19.0	4.780	0.880	-0.540	0.540
2020/01/31 20:05:19.1	4.770	0.930	-0.570	0.600
2020/01/31 20:05:19.2	4.760	0.980	-0.600	0.650
2020/01/31 20:05:19.3	4.750	1.020	-0.630	0.690
2020/01/31 20:05:19.4	4.740	1.050	-0.650	0.730
2020/01/31 20:05:19.5	4.740	1.080	-0.680	0.760
2020/01/31 20:05:19.6	4.730	1.100	-0.690	0.790
2020/01/31 20:05:19.7	4.730	1.110	-0.710	0.800
2020/01/31 20:05:19.8	4.730	1.120	-0.720	0.810
2020/01/31 20:05:19.9	4.740	1.120	-0.730	0.820
2020/01/31 20:05:20.0	4.750	1.110	-0.740	0.810
2020/01/31 20:05:20.1	4.750	1.100	-0.740	0.800
2020/01/31 20:05:20.2	4.770	1.080	-0.750	0.780
2020/01/31 20:05:20.3	4.780	1.050	-0.750	0.760
2020/01/31 20:05:20.4	4.790	1.020	-0.740	0.730
2020/01/31 20:05:20.5	4.810	0.980	-0.740	0.690
2020/01/31 20:05:20.6	4.830	0.940	-0.730	0.660
2020/01/31 20:05:20.7	4.850	0.890	-0.720	0.610
2020/01/31 20:05:20.8	4.880	0.840	-0.720	0.560
2020/01/31 20:05:20.9	4.900	0.780	-0.700	0.510
2020/01/31 20:05:21.0	4.930	0.720	-0.690	0.460
2020/01/31 20:05:21.1	4.960	0.660	-0.670	0.400
2020/01/31 20:05:21.2	4.990	0.600	-0.660	0.350
2020/01/31 20:05:21.3	5.020	0.530	-0.640	0.290
2020/01/31 20:05:21.4	5.050	0.460	-0.620	0.230
2020/01/31 20:05:21.5	5.090	0.400	-0.600	0.170
2020/01/31 20:05:21.6	5.120	0.330	-0.580	0.120
2020/01/31 20:05:21.7	5.150	0.260	-0.560	0.060
2020/01/31 20:05:21.8	5.190	0.190	-0.530	0.000
2020/01/31 20:05:21.9	5.220	0.120	-0.500	-0.050
2020/01/31 20:05:22.0	5.260	0.050	-0.470	-0.100
2020/01/31 20:05:22.1	5.290	-0.010	-0.440	-0.160
2020/01/31 20:05:22.2	5.310	-0.080	-0.410	-0.210
2020/01/31 20:05:22.3	5.340	-0.140	-0.380	-0.260
2020/01/31 20:05:22.4	5.370	-0.210	-0.340	-0.310
2020/01/31 20:05:22.5	5.390	-0.270	-0.310	-0.360
2020/01/31 20:05:22.6	5.410	-0.330	-0.270	-0.410
2020/01/31 20:05:22.7	5.430	-0.380	-0.240	-0.450
2020/01/31 20:05:22.8	5.450	-0.440	-0.200	-0.490
2020/01/31 20:05:22.9	5.460	-0.490	-0.160	-0.540
2020/01/31 20:05:23.0	5.470	-0.540	-0.120	-0.580
2020/01/31 20:05:23.1	5.490	-0.580	-0.080	-0.610
2020/01/31 20:05:23.2	5.490	-0.620	-0.050	-0.650
2020/01/31 20:05:23.3	5.500	-0.660	-0.010	-0.680
2020/01/31 20:05:23.4	5.510	-0.690	0.030	-0.710
2020/01/31 20:05:23.5	5.510	-0.720	0.060	-0.730
2020/01/31 20:05:23.6	5.520	-0.750	0.090	-0.760
2020/01/31 20:05:23.7	5.520	-0.770	0.120	-0.770
2020/01/31 20:05:23.8	5.520	-0.790	0.150	-0.790
2020/01/31 20:05:23.9	5.510	-0.800	0.170	-0.810
2020/01/31 20:05:24.0	5.510	-0.810	0.190	-0.810
2020/01/31 20:05:24.1	5.500	-0.810	0.210	-0.820
2020/01/31 20:05:24.2	5.500	-0.810	0.220	-0.820
2020/01/31 20:05:24.3	5.500	-0.810	0.230	-0.820
2020/01/31 20:05:24.4	5.490	-0.800	0.240	-0.810
2020/01/31 20:05:24.5	5.490	-0.780	0.240	-0.800
2020/01/31 20:05:24.6	5.480	-0.760	0.230	-0.790
2020/01/31 20:05:24.7	5.480	-0.730	0.220	-0.770
2020/01/31 20:05:24.8	5.480	-0.700	0.210	-0.750
2020/01/31 20:05:24.9	5.470	-0.670	0.190	-0.730
2020/01/31 20:05:25.0	5.460	-0.630	0.160	-0.710
2020/01/31 20:05:25.1	5.460	-0.590	0.140	-0.680
2020/01/31 20:05:25.2	5.460	-0.540	0.110	-0.650
2020/01/31 20:05:25.3	5.460	-0.490	0.070	-0.620
2020/01/31 20:05:25.4	5.450	-0.440	0.040	-0.590
2020/01/31 20:05:25.5	5.450	-0.380	-0.000	-0.560
2020/01/31 20:05:25.6	5.450	-0.320	-0.040	-0.530
2020/01/31 20:05:25.7	5.450	-0.260	-0.090	-0.500
2020/01/31 20:05:25.8	5.450	-0.200	-0.130	-0.460
2020/01/31 20:05:25.9	5.450	-0.140	-0.180	-0.430
2020/01/31 20:05:26.0	5.450	-0.070	-0.220	-0.400
2020/01/31 20:05:26.1	5.450	-0.010	-0.270	-0.360
2020/01/31 20:05:26.2	5.450	0.050	-0.320	-0.330
2020/01/31 20:05:26.3	5.440	0.120	-0.370	-0.300
2020/01/31 20:05:26.4	5.440	0.180	-0.420	-0.260
2020/01/31 20:05:26.5	5.440	0.240	-0.460	-0.230
2020/01/31 20:05:26.6	5.430	0.300	-0.500	-0.200
2020/01/31 20:05:26.7	5.430	0.350	-0.540	-0.160
2020/01/31 20:05:26.8	5.420	0.410	-0.580	-0.120
2020/01/31 20:05:26.9	5.410	0.460	-0.610	-0.090
2020/01/31 20:05:27.0	5.400	0.500	-0.640	-0.050
2020/01/31 20:05:27.1	5.390	0.540	-0.670	-0.010
2020/01/31 20:05:27.2	5.380	0.580	-0.680	0.030
2020/01/31 20:05:27.3	5.370	0.620	-0.700	0.060
2020/01/31 20:05:27.4	5.350	0.650	-0.710	0.100
2020/01/31 20:05:27.5	5.340	0.670	-0.710	0.130
2020/01/31 20:05:27.6	5.320	0.690	-0.710	0.170
2020/01/31 20:05:27.7	5.300	0.700	-0.700	0.200
2020/01/31 20:05:27.8	5.290	0.710	-0.680	0.240
2020/01/31 20:05:27.9	5.270	0.720	-0.660	0.270
2020/01/31 20:05:28.0	5.250	0.720	-0.640	0.300
2020/01/31 20:05:28.1	5.230	0.710	-0.610	0.330
2020/01/31 20:05:28.2	5.210	0.700	-0.580	0.360
2020/01/31 20:05:28.3	5.190	0.690	-0.540	0.380
2020/01/31 20:05:28.4	5.170	0.670	-0.500	0.400
2020/01/31 20:05:28.5	5.150	0.640	-0.460	0.420
2020/01/31 20:05:28.6	5.130	0.620	-0.410	0.430
2020/01/31 20:05:28.7	5.120	0.590	-0.370	0.440
2020/01/31 20:05:28.8	5.100	0.550	-0.320	0.450
2020/01/31 20:05:28.9	5.070	0.510	-0.270	0.450
2020/01/31 20:05:29.0	5.060	0.480	-0.220	0.450
2020/01/31 20:05:29.1	5.040	0.440	-0.170	0.440
2020/01/31 20:05:29.2	5.030	0.390	-0.130	0.430
2020/01/31 20:05:29.3	5.020	0.350	-0.080	0.420
2020/01/31 20:05:29.4	5.010	0.310	-0.040	0.400
2020/01/31 20:05:29.5	5.010	0.270	0.000	0.380
2020/01/31 20:05:29.6	5.010	0.220	0.040	0.360
2020/01/31 20:05:29.7	5.000	0.180	0.070	0.330
2020/01/31 20:05:29.8	5.000	0.140	0.100	0.310
2020/01/31 20:05:29.9	5.010	0.100	0.130	0.270
2020/01/31 20:05:30.0	5.010	0.060	0.150	0.240
2020/01/31 20:05:30.1	5.020	0.030	0.170	0.210
2020/01/31 20:05:30.2	5.030	-0.010	0.190	0.170
2020/01/31 20:05:30.3	5.040	-0.040	0.200	0.140
2020/01/31 20:05:30.4	5.050	-0.070	0.210	0.100
2020/01/31 20:05:30.5	5.060	-0.090	0.220	0.070
2020/01/31 20:05:30.6	5.070	-0.120	0.220	0.030
2020/01/31 20:05:30.7	5.090	-0.140	0.210	-0.000
2020/01/31 20:05:30.8	5.100	-0.160	0.210	-0.040
2020/01/31 20:05:30.9	5.120	-0.170	0.200	-0.080
2020/01/31 20:05:31.0	5.130	-0.190	0.180	-0.120
2020/01/31 20:05:31.1	5.150	-0.200	0.170	-0.150
2020/01/31 20:05:31.2	5.170	-0.210	0.150	-0.190
2020/01/31 20:05:31.3	5.190	-0.220	0.120	-0.230
2020/01/31 20:05:31.4	5.210	-0.220	0.100	-0.270
2020/01/31 20:05:31.5	5.230	-0.230	0.070	-0.320
2020/01/31 20:05:31.6	5.250	-0.230	0.030	-0.360
2020/01/31 20:05:31.7	5.270	-0.230	-0.000	-0.400
2020/01/31 20:05:31.8	5.290	-0.230	-0.040	-0.440
2020/01/31 20:05:31.9	5.320	-0.230	-0.080	-0.490
2020/01/31 20:05:32.0	5.350	-0.230	-0.120	-0.530
2020/01/31 20:05:32.1	5.370	-0.230	-0.160	-0.580
2020/01/31 20:05:32.2	5.390	-0.230	-0.210	-0.620
2020/01/31 20:05:32.3	5.420	-0.230	-0.250	-0.660
2020/01/31 20:05:32.4	5.440	-0.230	-0.290	-0.710
2020/01/31 20:05:32.5	5.470	-0.230	-0.330	-0.750
2020/01/31 20:05:32.6	5.490	-0.230	-0.370	-0.790
2020/01/31 20:05:32.7	5.510	-0.230	-0.410	-0.830
2020/01/31 20:05:32.8	5.530	-0.230	-0.440	-0.870
2020/01/31 20:05:32.9	5.560	-0.230	-0.470	-0.900
2020/01/31 20:05:33.0	5.590	-0.230	-0.500	-0.940
2020/01/31 20:05:33.1	5.610	-0.240	-0.530	-0.970
2020/01/31 20:05:33.2	5.630	-0.240	-0.550	-1.010
2020/01/31 20:05:33.3	5.650	-0.250	-0.570	-1.040
2020/01/31 20:05:33.4	5.680	-0.250	-0.590	-1.060
2020/01/31 20:05:33.5	5.700	-0.260	-0.600	-1.090
2020/01/31 20:05:33.6	5.720	-0.260	-0.610	-1.110
2020/01/31 20:05:33.7	5.740	-0.270	-0.620	-1.130
2020/01/31 20:05:33.8	5.760	-0.280	-0.620	-1.150
2020/01/31 20:05:33.9	5.760	-0.290	-0.630	-1.170
2020/01/31 20:05:34.0	5.780	-0.290	-0.620	-1.180
2020/01/31 20:05:34.1	5.800	-0.300	-0.610	-1.180
2020/01/31 20:05:34.2	5.810	-0.310	-0.600	-1.180
2020/01/31 20:05:34.3	5.830	-0.310	-0.580	-1.180
2020/01/31 20:05:34.4	5.840	-0.320	-0.560	-1.180
2020/01/31 20:05:34.5	5.850	-0.320	-0.540	-1.170
2020/01/31 20:05:34.6	5.860	-0.330	-0.520	-1.150
2020/01/31 20:05:34.7	5.860	-0.330	-0.490	-1.130
2020/01/31 20:05:34.8	5.870	-0.330	-0.460	-1.100
2020/01/31 20:05:34.9	5.870	-0.330	-0.430	-1.070
2020/01/31 20:05:35.0	5.870	-0.330	-0.400	-1.030
2020/01/31 20:05:35.1	5.870	-0.330	-0.370	-0.990
2020/01/31 20:05:35.2	5.870	-0.320	-0.340	-0.940
2020/01/31 20:05:35.3	5.860	-0.320	-0.310	-0.890
2020/01/31 20:05:35.4	5.850	-0.310	-0.270	-0.840
2020/01/31 20:05:35.5	5.840	-0.300	-0.240	-0.780
2020/01/31 20:05:35.6	5.820	-0.290	-0.210	-0.730
2020/01/31 20:05:35.7	5.810	-0.280	-0.180	-0.670
2020/01/31 20:05:35.8	5.790	-0.270	-0.150	-0.600
2020/01/31 20:05:35.9	5.760	-0.260	-0.130	-0.540
2020/01/31 20:05:36.0	5.740	-0.240	-0.110	-0.470
2020/01/31 20:05:36.1	5.710	-0.230	-0.080	-0.400
2020/01/31 20:05:36.2	5.690	-0.220	-0.060	-0.340
2020/01/31 20:05:36.3	5.660	-0.200	-0.040	-0.270
2020/01/31 20:05:36.4	5.630	-0.180	-0.020	-0.210
2020/01/31 20:05:36.5	5.600	-0.170	-0.010	-0.150
2020/01/31 20:05:36.6	5.570	-0.150	0.000	-0.080
2020/01/31 20:05:36.7	5.540	-0.130	0.010	-0.030
2020/01/31 20:05:36.8	5.500	-0.110	0.020	0.030
2020/01/31 20:05:36.9	5.470	-0.100	0.020	0.080
2020/01/31 20:05:37.0	5.430	-0.080	0.020	0.130
2020/01/31 20:05:37.1	5.400	-0.060	0.020	0.180
2020/01/31 20:05:37.2	5.380	-0.040	0.020	0.220
2020/01/31 20:05:37.3	5.350	-0.020	0.010	0.250
2020/01/31 20:05:37.4	5.320	-0.010	-0.000	0.290
2020/01/31 20:05:37.5	5.290	0.010	-0.020	0.320
2020/01/31 20:05:37.6	5.270	0.030	-0.030	0.340
2020/01/31 20:05:37.7	5.250	0.050	-0.050	0.360
2020/01/31 20:05:37.8	5.230	0.070	-0.070	0.370
2020/01/31 20:05:37.9	5.200	0.080	-0.090	0.380
2020/01/31 20:05:38.0	5.190	0.100	-0.120	0.390
2020/01/31 20:05:38.1	5.170	0.120	-0.140	0.390
2020/01/31 20:05:38.2	5.160	0.140	-0.170	0.390
2020/01/31 20:05:38.3	5.160	0.150	-0.190	0.380
2020/01/31 20:05:38.4	5.150	0.170	-0.220	0.370
2020/01/31 20:05:38.5	5.140	0.190	-0.240	0.360
2020/01/31 20:05:38.6	5.140	0.210	-0.260	0.350
2020/01/31 20:05:38.7	5.140	0.230	-0.290	0.340
2020/01/31 20:05:38.8	5.150	0.250	-0.310	0.330
2020/01/31 20:05:38.9	5.160	0.260	-0.330	0.310
2020/01/31 20:05:39.0	5.170	0.280	-0.350	0.290
2020/01/31 20:05:39.1	5.170	0.300	-0.360	0.270
2020/01/31 20:05:39.2	5.180	0.320	-0.370	0.250
2020/01/31 20:05:39.3	5.200	0.340	-0.390	0.240
2020/01/31 20:05:39.4	5.210	0.360	-0.390	0.220
2020/01/31 20:05:39.5	5.230	0.380	-0.400	0.200
2020/01/31 20:05:39.6	5.240	0.400	-0.400	0.180
2020/01/31 20:05:39.7	5.260	0.410	-0.400	0.160
2020/01/31 20:05:39.8	5.280	0.430	-0.400	0.140
2020/01/31 20:05:39.9	5.310	0.450	-0.400	0.130
2020/01/31 20:05:40.0	5.330	0.470	-0.390	0.110
2020/01/31 20:05:40.1	5.360	0.480	-0.390	0.090
2020/01/31 20:05:40.2	5.380	0.500	-0.380	0.070
2020/01/31 20:05:40.3	5.400	0.510	-0.380	0.060
2020/01/31 20:05:40.4	5.420	0.520	-0.370	0.040
2020/01/31 20:05:40.5	5.440	0.530	-0.360	0.030
2020/01/31 20:05:40.6	5.460	0.540	-0.360	0.020
2020/01/31 20:05:40.7	5.480	0.550	-0.350	0.000
2020/01/31 20:05:40.8	5.500	0.560	-0.340	-0.010
2020/01/31 20:05:40.9	5.520	0.570	-0.340	-0.020
2020/01/31 20:05:41.0	5.540	0.570	-0.340	-0.030
2020/01/31 20:05:41.1	5.550	0.570	-0.330	-0.040
2020/01/31 20:05:41.2	5.560	0.570	-0.320	-0.050
2020/01/31 20:05:41.3	5.580	0.570	-0.310	-0.060
2020/01/31 20:05:41.4	5.590	0.560	-0.310	-0.070
2020/01/31 20:05:41.5	5.600	0.550	-0.300	-0.080
2020/01/31 20:05:41.6	5.610	0.540	-0.290	-0.090
2020/01/31 20:05:41.7	5.620	0.530	-0.280	-0.100
2020/01/31 20:05:41.8	5.620	0.510	-0.270	-0.110
2020/01/31 20:05:41.9	5.620	0.500	-0.260	-0.120
2020/01/31 20:05:42.0	5.630	0.480	-0.260	-0.140
2020/01/31 20:05:42.1	5.640	0.450	-0.250	-0.150
2020/01/31 20:05:42.2	5.640	0.430	-0.240	-0.160
2020/01/31 20:05:42.3	5.650	0.400	-0.240	-0.170
2020/01/31 20:05:42.4	5.660	0.370	-0.240	-0.180
2020/01/31 20:05:42.5	5.660	0.340	-0.230	-0.200
2020/01/31 20:05:42.6	5.670	0.310	-0.230	-0.210
2020/01/31 20:05:42.7	5.680	0.280	-0.230	-0.220
2020/01/31 20:05:42.8	5.680	0.240	-0.230	-0.240
2020/01/31 20:05:42.9	5.690	0.210	-0.230	-0.250
2020/01/31 20:05:43.0	5.700	0.170	-0.230	-0.270
2020/01/31 20:05:43.1	5.700	0.130	-0.230	-0.280
2020/01/31 20:05:43.2	5.710	0.090	-0.240	-0.290
2020/01/31 20:05:43.3	5.710	0.060	-0.240	-0.300
2020/01/31 20:05:43.4	5.710	0.020	-0.240	-0.320
2020/01/31 20:05:43.5	5.710	-0.020	-0.250	-0.330
2020/01/31 20:05:43.6	5.710	-0.060	-0.250	-0.350
2020/01/31 20:05:43.7	5.710	-0.100	-0.260	-0.360
2020/01/31 20:05:43.8	5.710	-0.140	-0.260	-0.380
2020/01/31 20:05:43.9	5.710	-0.180	-0.270	-0.400
2020/01/31 20:05:44.0	5.710	-0.210	-0.280	-0.420
2020/01/31 20:05:44.1	5.710	-0.250	-0.290	-0.440
2020/01/31 20:05:44.2	5.710	-0.280	-0.290	-0.460
2020/01/31 20:05:44.3	5.710	-0.310	-0.300	-0.480
2020/01/31 20:05:44.4	5.710	-0.340	-0.310	-0.510
2020/01/31 20:05:44.5	5.720	-0.370	-0.320	-0.530
2020/01/31 20:05:44.6	5.720	-0.400	-0.330	-0.560
2020/01/31 20:05:44.7	5.720	-0.420	-0.330	-0.580
2020/01/31 20:05:44.8	5.720	-0.440	-0.340	-0.610
2020/01/31 20:05:44.9	5.720	-0.460	-0.350	-0.640
2020/01/31 20:05:45.0	5.720	-0.470	-0.360	-0.660
2020/01/31 20:05:45.1	5.730	-0.490	-0.360	-0.680
2020/01/31 20:05:45.2	5.730	-0.500	-0.370	-0.700
2020/01/31 20:05:45.3	5.730	-0.500	-0.370	-0.720
2020/01/31 20:05:45.4	5.730	-0.510	-0.370	-0.730
2020/01/31 20:05:45.5	5.730	-0.510	-0.380	-0.740
2020/01/31 20:05:45.6	5.730	-0.510	-0.380	-0.760
2020/01/31 20:05:45.7	5.730	-0.510	-0.380	-0.760
2020/01/31 20:05:45.8	5.730	-0.500	-0.380	-0.770
2020/01/31 20:05:45.9	5.720	-0.500	-0.380	-0.770
2020/01/31 20:05:46.0	5.720	-0.490	-0.380	-0.770
2020/01/31 20:05:46.1	5.720	-0.480	-0.380	-0.770
2020/01/31 20:05:46.2	5.720	-0.460	-0.380	-0.770
2020/01/31 20:05:46.3	5.720	-0.450	-0.380	-0.760
2020/01/31 20:05:46.4	5.720	-0.430	-0.380	-0.760
2020/01/31 20:05:46.5	5.720	-0.410	-0.370	-0.750
2020/01/31 20:05:46.6	5.720	-0.390	-0.370	-0.740
2020/01/31 20:05:46.7	5.720	-0.370	-0.370	-0.720
2020/01/31 20:05:46.8	5.720	-0.350	-0.360	-0.710
2020/01/31 20:05:46.9	5.730	-0.330	-0.350	-0.690
2020/01/31 20:05:47.0	5.730	-0.310	-0.350	-0.670
2020/01/31 20:05:47.1	5.740	-0.280	-0.340	-0.650
2020/01/31 20:05:47.2	5.740	-0.260	-0.330	-0.630
2020/01/31 20:05:47.3	5.740	-0.240	-0.310	-0.610
2020/01/31 20:05:47.4	5.750	-0.210	-0.300	-0.580
2020/01/31 20:05:47.5	5.750	-0.190	-0.290	-0.560
2020/01/31 20:05:47.6	5.760	-0.160	-0.270	-0.530
2020/01/31 20:05:47.7	5.760	-0.140	-0.250	-0.500
2020/01/31 20:05:47.8	5.770	-0.110	-0.230	-0.470
2020/01/31 20:05:47.9	5.760	-0.090	-0.210	-0.430
2020/01/31 20:05:48.0	5.770	-0.070	-0.190	-0.400
2020/01/31 20:05:48.1	5.770	-0.040	-0.160	-0.360
2020/01/31 20:05:48.2	5.770	-0.020	-0.130	-0.320
2020/01/31 20:05:48.3	5.780	-0.000	-0.100	-0.280
2020/01/31 20:05:48.4	5.780	0.020	-0.060	-0.240
2020/01/31 20:05:48.5	5.780	0.040	-0.020	-0.190
2020/01/31 20:05:48.6	5.790	0.050	0.010	-0.150
2020/01/31 20:05:48.7	5.790	0.070	0.060	-0.100
2020/01/31 20:05:48.8	5.790	0.080	0.100	-0.050
2020/01/31 20:05:48.9	5.780	0.100	0.140	0.000
2020/01/31 20:05:49.0	5.780	0.110	0.190	0.050
2020/01/31 20:05:49.1	5.780	0.120	0.230	0.110
2020/01/31 20:05:49.2	5.780	0.130	0.280	0.160
2020/01/31 20:05:49.3	5.780	0.140	0.320	0.210
2020/01/31 20:05:49.4	5.770	0.150	0.360	0.270
2020/01/31 20:05:49.5	5.770	0.150	0.410	0.320
2020/01/31 20:05:49.6	5.760	0.160	0.440	0.380
2020/01/31 20:05:49.7	5.760	0.170	0.480	0.430
2020/01/31 20:05:49.8	5.760	0.170	0.510	0.480
2020/01/31 20:05:49.9	5.740	0.170	0.530	0.540
2020/01/31 20:05:50.0	5.740	0.180	0.550	0.580
2020/01/31 20:05:50.1	5.730	0.180	0.560	0.630
2020/01/31 20:05:50.2	5.730	0.180	0.560	0.670
2020/01/31 20:05:50.3	5.730	0.180	0.560	0.710
2020/01/31 20:05:50.4	5.720	0.190	0.550	0.750
2020/01/31 20:05:50.5	5.720	0.190	0.530	0.780
2020/01/31 20:05:50.6	5.720	0.190	0.510	0.810
2020/01/31 20:05:50.7	5.720	0.190	0.470	0.830
2020/01/31 20:05:50.8	5.720	0.190	0.430	0.850
2020/01/31 20:05:50.9	5.710	0.190	0.380	0.860
2020/01/31 20:05:51.0	5.710	0.190	0.330	0.870
2020/01/31 20:05:51.1	5.710	0.200	0.260	0.870
2020/01/31 20:05:51.2	5.720	0.200	0.200	0.860
2020/01/31 20:05:51.3	5.720	0.200	0.130	0.850
2020/01/31 20:05:51.4	5.730	0.200	0.050	0.840
2020/01/31 20:05:51.5	5.730	0.200	-0.030	0.810
2020/01/31 20:05:51.6	5.740	0.200	-0.110	0.780
2020/01/31 20:05:51.7	5.740	0.190	-0.200	0.750
2020/01/31 20:05:51.8	5.750	0.190	-0.280	0.710
2020/01/31 20:05:51.9	5.760	0.190	-0.370	0.670
2020/01/31 20:05:52.0	5.770	0.190	-0.460	0.620
2020/01/31 20:05:52.1	5.770	0.190	-0.540	0.580
2020/01/31 20:05:52.2	5.770	0.180	-0.620	0.530
2020/01/31 20:05:52.3	5.770	0.180	-0.700	0.480
2020/01/31 20:05:52.4	5.770	0.170	-0.770	0.420
2020/01/31 20:05:52.5	5.760	0.170	-0.840	0.370
2020/01/31 20:05:52.6	5.760	0.160	-0.900	0.320
2020/01/31 20:05:52.7	5.750	0.150	-0.960	0.260
2020/01/31 20:05:52.8	5.740	0.140	-1.010	0.200
2020/01/31 20:05:52.9	5.730	0.130	-1.050	0.150
2020/01/31 20:05:53.0	5.720	0.120	-1.090	0.090
2020/01/31 20:05:53.1	5.710	0.110	-1.130	0.020
2020/01/31 20:05:53.2	5.700	0.100	-1.150	-0.040
2020/01/31 20:05:53.3	5.690	0.080	-1.170	-0.100
2020/01/31 20:05:53.4	5.680	0.070	-1.190	-0.170
2020/01/31 20:05:53.5	5.670	0.050	-1.200	-0.240
2020/01/31 20:05:53.6	5.670	0.040	-1.200	-0.300
2020/01/31 20:05:53.7	5.670	0.020	-1.200	-0.370
2020/01/31 20:05:53.8	5.660	0.010	-1.190	-0.440
2020/01/31 20:05:53.9	5.670	-0.010	-1.180	-0.520
2020/01/31 20:05:54.0	5.670	-0.020	-1.160	-0.580
2020/01/31 20:05:54.1	5.680	-0.040	-1.140	-0.650
2020/01/31 20:05:54.2	5.680	-0.050	-1.120	-0.720
2020/01/31 20:05:54.3	5.690	-0.060	-1.090	-0.790
2020/01/31 20:05:54.4	5.700	-0.080	-1.060	-0.860
2020/01/31 20:05:54.5	5.710	-0.090	-1.020	-0.920
2020/01/31 20:05:54.6	5.730	-0.100	-0.990	-0.980
2020/01/31 20:05:54.7	5.740	-0.110	-0.950	-1.040
2020/01/31 20:05:54.8	5.760	-0.120	-0.910	-1.100
2020/01/31 20:05:54.9	5.770	-0.130	-0.870	-1.160
2020/01/31 20:05:55.0	5.790	-0.130	-0.820	-1.200
2020/01/31 20:05:55.1	5.810	-0.140	-0.780	-1.250
2020/01/31 20:05:55.2	5.830	-0.140	-0.730	-1.290
2020/01/31 20:05:55.3	5.860	-0.140	-0.690	-1.320
2020/01/31 20:05:55.4	5.880	-0.140	-0.640	-1.350
2020/01/31 20:05:55.5	5.910	-0.140	-0.600	-1.370
2020/01/31 20:05:55.6	5.940	-0.130	-0.550	-1.390
2020/01/31 20:05:55.7	5.960	-0.130	-0.500	-1.400
2020/01/31 20:05:55.8	5.990	-0.120	-0.460	-1.400
2020/01/31 20:05:55.9	6.010	-0.110	-0.410	-1.390
2020/01/31 20:05:56.0	6.040	-0.100	-0.370	-1.380
2020/01/31 20:05:56.1	6.060	-0.090	-0.320	-1.360
2020/01/31 20:05:56.2	6.080	-0.080	-0.280	-1.330
2020/01/31 20:05:56.3	6.090	-0.060	-0.230	-1.300
2020/01/31 20:05:56.4	6.110	-0.050	-0.180	-1.270
2020/01/31 20:05:56.5	6.120	-0.040	-0.140	-1.230
2020/01/31 20:05:56.6	6.130	-0.020	-0.090	-1.180
2020/01/31 20:05:56.7	6.140	-0.010	-0.050	-1.130
2020/01/31 20:05:56.8	6.140	0.010	-0.000	-1.080
2020/01/31 20:05:56.9	6.140	0.020	0.040	-1.020
2020/01/31 20:05:57.0	6.140	0.030	0.080	-0.960
2020/01/31 20:05:57.1	6.140	0.050	0.120	-0.900
2020/01/31 20:05:57.2	6.130	0.060	0.160	-0.840
2020/01/31 20:05:57.3	6.130	0.070	0.190	-0.770
2020/01/31 20:05:57.4	6.120	0.080	0.230	-0.700
2020/01/31 20:05:57.5	6.110	0.090	0.260	-0.630
2020/01/31 20:05:57.6	6.100	0.100	0.290	-0.560
2020/01/31 20:05:57.7	6.090	0.110	0.310	-0.490
2020/01/31 20:05:57.8	6.080	0.110	0.340	-0.420
2020/01/31 20:05:57.9	6.060	0.120	0.350	-0.350
2020/01/31 20:05:58.0	6.050	0.120	0.370	-0.290
2020/01/31 20:05:58.1	6.030	0.120	0.380	-0.220
2020/01/31 20:05:58.2	6.020	0.120	0.390	-0.160
2020/01/31 20:05:58.3	6.000	0.120	0.390	-0.090
2020/01/31 20:05:58.4	5.990	0.110	0.390	-0.030
2020/01/31 20:05:58.5	5.980	0.110	0.390	0.030
2020/01/31 20:05:58.6	5.960	0.100	0.380	0.080
2020/01/31 20:05:58.7	5.950	0.100	0.370	0.130
2020/01/31 20:05:58.8	5.930	0.090	0.360	0.180
2020/01/31 20:05:58.9	5.920	0.080	0.350	0.230
2020/01/31 20:05:59.0	5.910	0.060	0.330	0.270
2020/01/31 20:05:59.1	5.900	0.050	0.300	0.310
2020/01/31 20:05:59.2	5.890	0.040	0.280	0.340
2020/01/31 20:05:59.3	5.880	0.030	0.250	0.370
2020/01/31 20:05:59.4	5.880	0.010	0.220	0.390
2020/01/31 20:05:59.5	5.870	-0.000	0.190	0.410
2020/01/31 20:05:59.6	5.870	-0.020	0.160	0.420
2020/01/31 20:05:59.7	5.860	-0.030	0.130	0.430
2020/01/31 20:05:59.8	5.860	-0.050	0.090	0.430
2020/01/31 20:05:59.9	5.860	-0.060	0.060	0.420
2020/01/31 20:06:00.0	5.870	-0.070	0.020	0.410
2020/01/31 20:06:00.1	5.870	-0.090	-0.010	0.400
2020/01/31 20:06:00.2	5.870	-0.100	-0.050	0.380
2020/01/31 20:06:00.3	5.880	-0.110	-0.080	0.360
2020/01/31 20:06:00.4	5.880	-0.120	-0.110	0.330
2020/01/31 20:06:00.5	5.890	-0.130	-0.150	0.310
2020/01/31 20:06:00.6	5.900	-0.130	-0.180	0.280
2020/01/31 20:06:00.7	5.900	-0.140	-0.210	0.250
2020/01/31 20:06:00.8	5.910	-0.140	-0.230	0.220
2020/01/31 20:06:00.9	5.920	-0.140	-0.250	0.190
2020/01/31 20:06:01.0	5.930	-0.150	-0.280	0.160
2020/01/31 20:06:01.1	5.930	-0.150	-0.300	0.130
2020/01/31 20:06:01.2	5.930	-0.150	-0.310	0.100
2020/01/31 20:06:01.3	5.930	-0.140	-0.330	0.080
2020/01/31 20:06:01.4	5.930	-0.140	-0.340	0.050
2020/01/31 20:06:01.5	5.930	-0.130	-0.350	0.030
2020/01/31 20:06:01.6	5.930	-0.130	-0.360	0.010
2020/01/31 20:06:01.7	5.920	-0.120	-0.370	-0.010
2020/01/31 20:06:01.8	5.920	-0.110	-0.370	-0.030
2020/01/31 20:06:01.9	5.900	-0.110	-0.380	-0.040
2020/01/31 20:06:02.0	5.890	-0.100	-0.380	-0.060
2020/01/31 20:06:02.1	5.880	-0.090	-0.380	-0.070
2020/01/31 20:06:02.2	5.870	-0.080	-0.380	-0.080
2020/01/31 20:06:02.3	5.860	-0.070	-0.380	-0.100
2020/01/31 20:06:02.4	5.850	-0.060	-0.380	-0.110
2020/01/31 20:06:02.5	5.830	-0.050	-0.380	-0.120
2020/01/31 20:06:02.6	5.820	-0.040	-0.380	-0.130
2020/01/31 20:06:02.7	5.800	-0.030	-0.390	-0.140
2020/01/31 20:06:02.8	5.790	-0.010	-0.390	-0.160
2020/01/31 20:06:02.9	5.770	-0.000	-0.390	-0.170
2020/01/31 20:06:03.0	5.760	0.010	-0.390	-0.180
2020/01/31 20:06:03.1	5.740	0.020	-0.390	-0.200
2020/01/31 20:06:03.2	5.720	0.020	-0.400	-0.210
2020/01/31 20:06:03.3	5.700	0.030	-0.400	-0.220
2020/01/31 20:06:03.4	5.680	0.040	-0.410	-0.240
2020/01/31 20:06:03.5	5.660	0.050	-0.410	-0.250
2020/01/31 20:06:03.6	5.640	0.050	-0.420	-0.260
2020/01/31 20:06:03.7	5.620	0.060	-0.420	-0.280
2020/01/31 20:06:03.8	5.600	0.060	-0.430	-0.290
2020/01/31 20:06:03.9	5.590	0.060	-0.440	-0.310
2020/01/31 20:06:04.0	5.570	0.070	-0.450	-0.320
2020/01/31 20:06:04.1	5.550	0.070	-0.450	-0.340
2020/01/31 20:06:04.2	5.540	0.070	-0.450	-0.350
2020/01/31 20:06:04.3	5.520	0.070	-0.460	-0.360
2020/01/31 20:06:04.4	5.500	0.060	-0.460	-0.370
2020/01/31 20:06:04.5	5.490	0.060	-0.460	-0.380
2020/01/31 20:06:04.6	5.470	0.060	-0.460	-0.390
2020/01/31 20:06:04.7	5.460	0.050	-0.450	-0.390
2020/01/31 20:06:04.8	5.450	0.050	-0.450	-0.400
2020/01/31 20:06:04.9	5.450	0.040	-0.450	-0.410
2020/01/31 20:06:05.0	5.440	0.030	-0.440	-0.410
2020/01/31 20:06:05.1	5.440	0.030	-0.430	-0.420
2020/01/31 20:06:05.2	5.430	0.020	-0.420	-0.420
2020/01/31 20:06:05.3	5.430	0.010	-0.410	-0.420
2020/01/31 20:06:05.4	5.430	0.000	-0.400	-0.420
2020/01/31 20:06:05.5	5.440	-0.000	-0.380	-0.420
2020/01/31 20:06:05.6	5.440	-0.010	-0.370	-0.420
2020/01/31 20:06:05.7	5.450	-0.020	-0.350	-0.420
2020/01/31 20:06:05.8	5.450	-0.020	-0.330	-0.420
2020/01/31 20:06:05.9	5.470	-0.030	-0.320	-0.420
2020/01/31 20:06:06.0	5.480	-0.030	-0.300	-0.410
2020/01/31 20:06:06.1	5.490	-0.030	-0.280	-0.410
2020/01/31 20:06:06.2	5.500	-0.040	-0.270	-0.400
2020/01/31 20:06:06.3	5.510	-0.040	-0.250	-0.390
2020/01/31 20:06:06.4	5.520	-0.030	-0.230	-0.370
2020/01/31 20:06:06.5	5.530	-0.030	-0.210	-0.350
2020/01/31 20:06:06.6	5.540	-0.030	-0.200	-0.340
2020/01/31 20:06:06.7	5.550	-0.020	-0.180	-0.320
2020/01/31 20:06:06.8	5.560	-0.020	-0.170	-0.290
2020/01/31 20:06:06.9	5.580	-0.010	-0.160	-0.270
2020/01/31 20:06:07.0	5.580	0.000	-0.140	-0.240
2020/01/31 20:06:07.1	5.590	0.010	-0.140	-0.210
2020/01/31 20:06:07.2	5.600	0.020	-0.130	-0.180
2020/01/31 20:06:07.3	5.610	0.040	-0.120	-0.150
2020/01/31 20:06:07.4	5.610	0.050	-0.120	-0.120
2020/01/31 20:06:07.5	5.620	0.070	-0.120	-0.090
2020/01/31 20:06:07.6	5.630	0.080	-0.120	-0.060
2020/01/31 20:06:07.7	5.630	0.100	-0.130	-0.030
2020/01/31 20:06:07.8	5.640	0.110	-0.140	-0.010
2020/01/31 20:06:07.9	5.650	0.130	-0.150	0.020
2020/01/31 20:06:08.0	5.650	0.140	-0.160	0.040
2020/01/31 20:06:08.1	5.660	0.160	-0.180	0.060
2020/01/31 20:06:08.2	5.670	0.170	-0.200	0.070
2020/01/31 20:06:08.3	5.680	0.190	-0.220	0.080
2020/01/31 20:06:08.4	5.690	0.200	-0.240	0.090
2020/01/31 20:06:08.5	5.700	0.210	-0.260	0.090
2020/01/31 20:06:08.6	5.710	0.220	-0.290	0.090
2020/01/31 20:06:08.7	5.720	0.230	-0.310	0.090
2020/01/31 20:06:08.8	5.740	0.240	-0.340	0.080
2020/01/31 20:06:08.9	5.760	0.250	-0.370	0.070
2020/01/31 20:06:09.0	5.770	0.250	-0.390	0.050
2020/01/31 20:06:09.1	5.790	0.250	-0.410	0.030
2020/01/31 20:06:09.2	5.810	0.250	-0.430	0.000
2020/01/31 20:06:09.3	5.830	0.250	-0.450	-0.020
2020/01/31 20:06:09.4	5.850	0.240	-0.460	-0.050
2020/01/31 20:06:09.5	5.860	0.230	-0.470	-0.080
2020/01/31 20:06:09.6	5.880	0.210	-0.480	-0.110
2020/01/31 20:06:09.7	5.900	0.200	-0.480	-0.130
2020/01/31 20:06:09.8	5.920	0.180	-0.480	-0.160
2020/01/31 20:06:09.9	5.920	0.150	-0.480	-0.200
2020/01/31 20:06:10.0	5.940	0.130	-0.470	-0.230
2020/01/31 20:06:10.1	5.950	0.100	-0.460	-0.250
2020/01/31 20:06:10.2	5.970	0.070	-0.440	-0.280
2020/01/31 20:06:10.3	5.980	0.030	-0.420	-0.310
2020/01/31 20:06:10.4	5.990	-0.010	-0.390	-0.330
2020/01/31 20:06:10.5	5.990	-0.050	-0.360	-0.350
2020/01/31 20:06:10.6	6.000	-0.090	-0.330	-0.370
2020/01/31 20:06:10.7	6.010	-0.130	-0.290	-0.390
2020/01/31 20:06:10.8	6.010	-0.180	-0.250	-0.410
2020/01/31 20:06:10.9	6.000	-0.230	-0.210	-0.420
2020/01/31 20:06:11.0	6.000	-0.280	-0.160	-0.430
2020/01/31 20:06:11.1	6.000	-0.330	-0.110	-0.450
2020/01/31 20:06:11.2	5.990	-0.370	-0.060	-0.450
2020/01/31 20:06:11.3	5.970	-0.420	-0.010	-0.460
2020/01/31 20:06:11.4	5.960	-0.470	0.050	-0.460
2020/01/31 20:06:11.5	5.940	-0.520	0.100	-0.460
2020/01/31 20:06:11.6	5.920	-0.560	0.150	-0.460
2020/01/31 20:06:11.7	5.900	-0.600	0.210	-0.450
2020/01/31 20:06:11.8	5.870	-0.640	0.260	-0.430
2020/01/31 20:06:11.9	5.840	-0.680	0.310	-0.420
2020/01/31 20:06:12.0	5.810	-0.710	0.360	-0.400
2020/01/31 20:06:12.1	5.770	-0.740	0.400	-0.370
2020/01/31 20:06:12.2	5.730	-0.760	0.440	-0.350
2020/01/31 20:06:12.3	5.690	-0.780	0.480	-0.310
2020/01/31 20:06:12.4	5.640	-0.790	0.510	-0.280
2020/01/31 20:06:12.5	5.600	-0.800	0.530	-0.240
2020/01/31 20:06:12.6	5.550	-0.800	0.550	-0.200
2020/01/31 20:06:12.7	5.500	-0.800	0.560	-0.160
2020/01/31 20:06:12.8	5.460	-0.790	0.570	-0.110
2020/01/31 20:06:12.9	5.420	-0.770	0.560	-0.080
2020/01/31 20:06:13.0	5.370	-0.750	0.550	-0.030
2020/01/31 20:06:13.1	5.330	-0.720	0.530	0.010
2020/01/31 20:06:13.2	5.290	-0.680	0.500	0.050
2020/01/31 20:06:13.3	5.250	-0.640	0.460	0.080
2020/01/31 20:06:13.4	5.210	-0.590	0.410	0.120
2020/01/31 20:06:13.5	5.180	-0.530	0.360	0.150
2020/01/31 20:06:13.6	5.150	-0.470	0.290	0.180
2020/01/31 20:06:13.7	5.130	-0.400	0.220	0.210
2020/01/31 20:06:13.8	5.100	-0.330	0.140	0.240
2020/01/31 20:06:13.9	5.090	-0.250	0.050	0.260
2020/01/31 20:06:14.0	5.070	-0.170	-0.040	0.280
2020/01/31 20:06:14.1	5.060	-0.080	-0.130	0.300
2020/01/31 20:06:14.2	5.050	0.010	-0.230	0.310
2020/01/31 20:06:14.3	5.040	0.100	-0.330	0.320
2020/01/31 20:06:14.4	5.030	0.190	-0.430	0.330
2020/01/31 20:06:14.5	5.030	0.280	-0.520	0.330
2020/01/31 20:06:14.6	5.030	0.360	-0.620	0.330
2020/01/31 20:06:14.7	5.030	0.450	-0.720	0.330
2020/01/31 20:06:14.8	5.040	0.540	-0.810	0.330
2020/01/31 20:06:14.9	5.030	0.620	-0.890	0.320
2020/01/31 20:06:15.0	5.040	0.700	-0.970	0.310
2020/01/31 20:06:15.1	5.050	0.770	-1.050	0.300
2020/01/31 20:06:15.2	5.060	0.840	-1.110	0.290
2020/01/31 20:06:15.3	5.080	0.900	-1.170	0.280
2020/01/31 20:06:15.4	5.090	0.960	-1.220	0.270
2020/01/31 20:06:15.5	5.110	1.010	-1.260	0.260
2020/01/31 20:06:15.6	5.130	1.060	-1.290	0.240
2020/01/31 20:06:15.7	5.150	1.090	-1.310	0.230
2020/01/31 20:06:15.8	5.170	1.120	-1.330	0.220
2020/01/31 20:06:15.9	5.190	1.140	-1.330	0.210
2020/01/31 20:06:16.0	5.210	1.150	-1.320	0.190
2020/01/31 20:06:16.1	5.240	1.160	-1.310	0.180
2020/01/31 20:06:16.2	5.260	1.150	-1.280	0.160
2020/01/31 20:06:16.3	5.290	1.140	-1.250	0.150
2020/01/31 20:06:16.4	5.320	1.120	-1.210	0.130
2020/01/31 20:06:16.5	5.350	1.100	-1.160	0.120
2020/01/31 20:06:16.6	5.370	1.060	-1.110	0.100
2020/01/31 20:06:16.7	5.400	1.020	-1.050	0.090
2020/01/31 20:06:16.8	5.430	0.980	-0.990	0.070
2020/01/31 20:06:16.9	5.460	0.920	-0.920	0.050
2020/01/31 20:06:17.0	5.490	0.860	-0.850	0.030
2020/01/31 20:06:17.1	5.510	0.800	-0.780	0.020
2020/01/31 20:06:17.2	5.540	0.730	-0.700	-0.010
2020/01/31 20:06:17.3	5.570	0.660	-0.630	-0.030
2020/01/31 20:06:17.4	5.590	0.580	-0.550	-0.060
2020/01/31 20:06:17.5	5.620	0.500	-0.480	-0.080
2020/01/31 20:06:17.6	5.640	0.420	-0.400	-0.110
2020/01/31 20:06:17.7	5.670	0.340	-0.330	-0.150
2020/01/31 20:06:17.8	5.690	0.260	-0.270	-0.180
2020/01/31 20:06:17.9	5.720	0.170	-0.200	-0.220
2020/01/31 20:06:18.0	5.750	0.090	-0.140	-0.260
2020/01/31 20:06:18.1	5.770	0.000	-0.090	-0.300
2020/01/31 20:06:18.2	5.790	-0.080	-0.040	-0.350
2020/01/31 20:06:18.3	5.810	-0.160	0.010	-0.400
2020/01/31 20:06:18.4	5.830	-0.230	0.050	-0.450
2020/01/31 20:06:18.5	5.850	-0.310	0.080	-0.500
2020/01/31 20:06:18.6	5.870	-0.380	0.120	-0.550
2020/01/31 20:06:18.7	5.880	-0.440	0.140	-0.600
2020/01/31 20:06:18.8	5.890	-0.510	0.170	-0.650
2020/01/31 20:06:18.9	5.910	-0.570	0.190	-0.700
2020/01/31 20:06:19.0	5.920	-0.620	0.210	-0.740
2020/01/31 20:06:19.1	5.920	-0.670	0.220	-0.780
2020/01/31 20:06:19.2	5.920	-0.720	0.240	-0.810
2020/01/31 20:06:19.3	5.920	-0.760	0.250	-0.840
2020/01/31 20:06:19.4	5.910	-0.800	0.260	-0.870
2020/01/31 20:06:19.5	5.900	-0.830	0.270	-0.890
2020/01/31 20:06:19.6	5.890	-0.850	0.290	-0.910
2020/01/31 20:06:19.7	5.870	-0.880	0.300	-0.920
2020/01/31 20:06:19.8	5.850	-0.890	0.310	-0.920
2020/01/31 20:06:19.9	5.820	-0.910	0.320	-0.920
2020/01/31 20:06:20.0	5.790	-0.920	0.340	-0.920
2020/01/31 20:06:20.1	5.760	-0.920	0.350	-0.910
2020/01/31 20:06:20.2	5.730	-0.920	0.370	-0.900
2020/01/31 20:06:20.3	5.700	-0.920	0.380	-0.880
2020/01/31 20:06:20.4	5.660	-0.920	0.400	-0.860
2020/01/31 20:06:20.5	5.630	-0.910	0.420	-0.840
2020/01/31 20:06:20.6	5.590	-0.890	0.430	-0.820
2020/01/31 20:06:20.7	5.550	-0.880	0.450	-0.790
2020/01/31 20:06:20.8	5.510	-0.860	0.460	-0.770
2020/01/31 20:06:20.9	5.480	-0.840	0.470	-0.740
2020/01/31 20:06:21.0	5.440	-0.820	0.480	-0.710
2020/01/31 20:06:21.1	5.400	-0.790	0.490	-0.670
2020/01/31 20:06:21.2	5.360	-0.760	0.490	-0.640
2020/01/31 20:06:21.3	5.330	-0.730	0.500	-0.600
2020/01/31 20:06:21.4	5.290	-0.700	0.500	-0.570
2020/01/31 20:06:21.5	5.260	-0.660	0.490	-0.530
2020/01/31 20:06:21.6	5.230	-0.630	0.490	-0.490
2020/01/31 20:06:21.7	5.200	-0.590	0.480	-0.450
2020/01/31 20:06:21.8	5.180	-0.540	0.460	-0.410
2020/01/31 20:06:21.9	5.150	-0.500	0.440	-0.370
2020/01/31 20:06:22.0	5.120	-0.460	0.420	-0.330
2020/01/31 20:06:22.1	5.100	-0.410	0.400	-0.280
2020/01/31 20:06:22.2	5.090	-0.360	0.370	-0.240
2020/01/31 20:06:22.3	5.070	-0.310	0.340	-0.190
2020/01/31 20:06:22.4	5.060	-0.260	0.300	-0.140
2020/01/31 20:06:22.5	5.040	-0.210	0.270	-0.090
2020/01/31 20:06:22.6	5.030	-0.160	0.230	-0.040
2020/01/31 20:06:22.7	5.020	-0.110	0.190	0.010
2020/01/31 20:06:22.8	5.020	-0.050	0.140	0.060
2020/01/31 20:06:22.9	5.020	-0.000	0.100	0.110
2020/01/31 20:06:23.0	5.010	0.050	0.060	0.160
2020/01/31 20:06:23.1	5.010	0.110	0.010	0.210
2020/01/31 20:06:23.2	5.000	0.160	-0.040	0.260
2020/01/31 20:06:23.3	5.000	0.210	-0.080	0.310
2020/01/31 20:06:23.4	5.000	0.260	-0.130	0.360
2020/01/31 20:06:23.5	5.000	0.300	-0.170	0.410
2020/01/31 20:06:23.6	5.000	0.350	-0.220	0.450
2020/01/31 20:06:23.7	5.000	0.390	-0.260	0.490
2020/01/31 20:06:23.8	5.000	0.430	-0.300	0.530
2020/01/31 20:06:23.9	4.990	0.470	-0.350	0.570
2020/01/31 20:06:24.0	5.000	0.510	-0.390	0.600
2020/01/31 20:06:24.1	5.000	0.540	-0.430	0.640
2020/01/31 20:06:24.2	5.000	0.570	-0.460	0.660
2020/01/31 20:06:24.3	5.010	0.590	-0.500	0.680
2020/01/31 20:06:24.4	5.010	0.610	-0.540	0.700
2020/01/31 20:06:24.5	5.020	0.630	-0.570	0.720
2020/01/31 20:06:24.6	5.030	0.650	-0.600	0.730
2020/01/31 20:06:24.7	5.030	0.660	-0.630	0.730
2020/01/31 20:06:24.8	5.040	0.670	-0.670	0.730
2020/01/31 20:06:24.9	5.050	0.670	-0.690	0.730
2020/01/31 20:06:25.0	5.070	0.670	-0.730	0.720
2020/01/31 20:06:25.1	5.080	0.670	-0.760	0.710
2020/01/31 20:06:25.2	5.100	0.660	-0.790	0.690
2020/01/31 20:06:25.3	5.110	0.660	-0.810	0.670
2020/01/31 20:06:25.4	5.130	0.640	-0.840	0.650
2020/01/31 20:06:25.5	5.150	0.630	-0.870	0.620
2020/01/31 20:06:25.6	5.170	0.610	-0.900	0.590
2020/01/31 20:06:25.7	5.190	0.590	-0.930	0.550
2020/01/31 20:06:25.8	5.210	0.570	-0.960	0.510
2020/01/31 20:06:25.9	5.240	0.550	-0.990	0.470
2020/01/31 20:06:26.0	5.260	0.520	-1.010	0.420
2020/01/31 20:06:26.1	5.280	0.500	-1.040	0.370
2020/01/31 20:06:26.2	5.310	0.470	-1.060	0.310
2020/01/31 20:06:26.3	5.330	0.440	-1.090	0.250
2020/01/31 20:06:26.4	5.360	0.410	-1.110	0.190
2020/01/31 20:06:26.5	5.380	0.380	-1.130	0.120
2020/01/31 20:06:26.6	5.410	0.340	-1.140	0.050
2020/01/31 20:06:26.7	5.430	0.310	-1.160	-0.020
2020/01/31 20:06:26.8	5.460	0.280	-1.170	-0.100
2020/01/31 20:06:26.9	5.490	0.240	-1.170	-0.180
2020/01/31 20:06:27.0	5.520	0.210	-1.180	-0.260
2020/01/31 20:06:27.1	5.540	0.170	-1.180	-0.340
2020/01/31 20:06:27.2	5.570	0.140	-1.170	-0.420
2020/01/31 20:06:27.3	5.600	0.100	-1.160	-0.500
2020/01/31 20:06:27.4	5.620	0.070	-1.150	-0.580
2020/01/31 20:06:27.5	5.650	0.040	-1.130	-0.660
2020/01/31 20:06:27.6	5.670	0.000	-1.110	-0.730
2020/01/31 20:06:27.7	5.690	-0.030	-1.080	-0.800
2020/01/31 20:06:27.8	5.710	-0.060	-1.040	-0.870
2020/01/31 20:06:27.9	5.730	-0.090	-1.010	-0.930
2020/01/31 20:06:28.0	5.750	-0.120	-0.960	-0.990
2020/01/31 20:06:28.1	5.760	-0.150	-0.910	-1.040
2020/01/31 20:06:28.2	5.780	-0.180	-0.850	-1.080
2020/01/31 20:06:28.3	5.790	-0.210	-0.790	-1.120
2020/01/31 20:06:28.4	5.800	-0.230	-0.720	-1.150
2020/01/31 20:06:28.5	5.810	-0.260	-0.650	-1.180
2020/01/31 20:06:28.6	5.820	-0.280	-0.570	-1.190
2020/01/31 20:06:28.7	5.830	-0.310	-0.490	-1.200
2020/01/31 20:06:28.8	5.830	-0.330	-0.410	-1.210
2020/01/31 20:06:28.9	5.830	-0.350	-0.320	-1.210
2020/01/31 20:06:29.0	5.830	-0.370	-0.240	-1.200
2020/01/31 20:06:29.1	5.820	-0.390	-0.150	-1.190
2020/01/31 20:06:29.2	5.820	-0.400	-0.060	-1.170
2020/01/31 20:06:29.3	5.810	-0.420	0.030	-1.150
2020/01/31 20:06:29.4	5.800	-0.430	0.120	-1.120
2020/01/31 20:06:29.5	5.780	-0.450	0.210	-1.090
2020/01/31 20:06:29.6	5.770	-0.460	0.300	-1.060
2020/01/31 20:06:29.7	5.750	-0.470	0.380	-1.020
2020/01/31 20:06:29.8	5.730	-0.470	0.460	-0.980
2020/01/31 20:06:29.9	5.720	-0.480	0.530	-0.940
2020/01/31 20:06:30.0	5.700	-0.480	0.600	-0.900
2020/01/31 20:06:30.1	5.670	-0.490	0.670	-0.850
2020/01/31 20:06:30.2	5.650	-0.490	0.730	-0.810
2020/01/31 20:06:30.3	5.620	-0.480	0.780	-0.760
2020/01/31 20:06:30.4	5.600	-0.480	0.820	-0.710
2020/01/31 20:06:30.5	5.570	-0.470	0.860	-0.660
2020/01/31 20:06:30.6	5.550	-0.460	0.890	-0.610
2020/01/31 20:06:30.7	5.520	-0.450	0.920	-0.560
2020/01/31 20:06:30.8	5.500	-0.440	0.930	-0.510
2020/01/31 20:06:30.9	5.470	-0.420	0.940	-0.460
2020/01/31 20:06:31.0	5.450	-0.400	0.940	-0.410
2020/01/31 20:06:31.1	5.430	-0.380	0.930	-0.360
2020/01/31 20:06:31.2	5.410	-0.360	0.910	-0.310
2020/01/31 20:06:31.3	5.390	-0.330	0.890	-0.260
2020/01/31 20:06:31.4	5.370	-0.310	0.860	-0.210
2020/01/31 20:06:31.5	5.350	-0.280	0.820	-0.160
2020/01/31 20:06:31.6	5.330	-0.250	0.780	-0.120
2020/01/31 20:06:31.7	5.320	-0.220	0.730	-0.070
2020/01/31 20:06:31.8	5.310	-0.190	0.670	-0.030
2020/01/31 20:06:31.9	5.290	-0.150	0.610	0.010
2020/01/31 20:06:32.0	5.270	-0.120	0.550	0.060
2020/01/31 20:06:32.1	5.260	-0.080	0.480	0.100
2020/01/31 20:06:32.2	5.250	-0.050	0.410	0.140
2020/01/31 20:06:32.3	5.240	-0.010	0.340	0.180
2020/01/31 20:06:32.4	5.230	0.020	0.270	0.220
2020/01/31 20:06:32.5	5.210	0.060	0.200	0.260
2020/01/31 20:06:32.6	5.200	0.090	0.130	0.300
2020/01/31 20:06:32.7	5.190	0.130	0.050	0.330
2020/01/31 20:06:32.8	5.180	0.160	-0.010	0.370
2020/01/31 20:06:32.9	5.170	0.200	-0.080	0.400
2020/01/31 20:06:33.0	5.160	0.230	-0.150	0.430
2020/01/31 20:06:33.1	5.150	0.260	-0.210	0.460
2020/01/31 20:06:33.2	5.140	0.290	-0.270	0.480
2020/01/31 20:06:33.3	5.120	0.320	-0.320	0.500
2020/01/31 20:06:33.4	5.110	0.340	-0.370	0.520
2020/01/31 20:06:33.5	5.100	0.370	-0.420	0.540
2020/01/31 20:06:33.6	5.090	0.390	-0.460	0.560
2020/01/31 20:06:33.7	5.080	0.410	-0.500	0.570
2020/01/31 20:06:33.8	5.070	0.440	-0.540	0.580
2020/01/31 20:06:33.9	5.060	0.450	-0.580	0.580
2020/01/31 20:06:34.0	5.050	0.470	-0.610	0.590
2020/01/31 20:06:34.1	5.050	0.490	-0.630	0.590
2020/01/31 20:06:34.2	5.040	0.500	-0.660	0.590
2020/01/31 20:06:34.3	5.040	0.510	-0.680	0.590
2020/01/31 20:06:34.4	5.040	0.520	-0.700	0.580
2020/01/31 20:06:34.5	5.040	0.530	-0.720	0.570
2020/01/31 20:06:34.6	5.040	0.540	-0.730	0.560
2020/01/31 20:06:34.7	5.040	0.540	-0.750	0.550
2020/01/31 20:06:34.8	5.040	0.550	-0.760	0.530
2020/01/31 20:06:34.9	5.050	0.550	-0.770	0.510
2020/01/31 20:06:35.0	5.060	0.550	-0.780	0.490
2020/01/31 20:06:35.1	5.070	0.540	-0.790	0.460
2020/01/31 20:06:35.2	5.080	0.530	-0.800	0.430
2020/01/31 20:06:35.3	5.090	0.520	-0.810	0.400
2020/01/31 20:06:35.4	5.100	0.510	-0.820	0.360
2020/01/31 20:06:35.5	5.110	0.500	-0.830	0.320
2020/01/31 20:06:35.6	5.130	0.480	-0.840	0.270
2020/01/31 20:06:35.7	5.140	0.460	-0.840	0.220
2020/01/31 20:06:35.8	5.160	0.430	-0.850	0.160
2020/01/31 20:06:35.9	5.190	0.400	-0.850	0.100
2020/01/31 20:06:36.0	5.200	0.370	-0.860	0.030
2020/01/31 20:06:36.1	5.220	0.340	-0.860	-0.040
2020/01/31 20:06:36.2	5.250	0.310	-0.860	-0.120
2020/01/31 20:06:36.3	5.270	0.270	-0.860	-0.200
2020/01/31 20:06:36.4	5.290	0.230	-0.860	-0.280
2020/01/31 20:06:36.5	5.310	0.180	-0.860	-0.370
2020/01/31 20:06:36.6	5.340	0.140	-0.850	-0.460
2020/01/31 20:06:36.7	5.360	0.090	-0.840	-0.550
2020/01/31 20:06:36.8	5.380	0.040	-0.830	-0.650
2020/01/31 20:06:36.9	5.420	-0.010	-0.820	-0.740
2020/01/31 20:06:37.0	5.440	-0.070	-0.800	-0.840
2020/01/31 20:06:37.1	5.470	-0.120	-0.780	-0.930
2020/01/31 20:06:37.2	5.490	-0.170	-0.760	-1.020
2020/01/31 20:06:37.3	5.510	-0.230	-0.740	-1.110
2020/01/31 20:06:37.4	5.530	-0.280	-0.710	-1.190
2020/01/31 20:06:37.5	5.550	-0.330	-0.670	-1.270
2020/01/31 20:06:37.6	5.570	-0.390	-0.640	-1.350
2020/01/31 20:06:37.7	5.590	-0.440	-0.600	-1.420
2020/01/31 20:06:37.8	5.610	-0.490	-0.560	-1.480
2020/01/31 20:06:37.9	5.630	-0.540	-0.510	-1.550
2020/01/31 20:06:38.0	5.640	-0.580	-0.470	-1.600
2020/01/31 20:06:38.1	5.660	-0.620	-0.420	-1.640
2020/01/31 20:06:38.2	5.680	-0.660	-0.370	-1.680
2020/01/31 20:06:38.3	5.700	-0.700	-0.310	-1.710
2020/01/31 20:06:38.4	5.720	-0.730	-0.260	-1.740
2020/01/31 20:06:38.5	5.740	-0.760	-0.210	-1.750
2020/01/31 20:06:38.6	5.760	-0.780	-0.160	-1.770
2020/01/31 20:06:38.7	5.780	-0.800	-0.110	-1.770
2020/01/31 20:06:38.8	5.790	-0.820	-0.050	-1.770
2020/01/31 20:06:38.9	5.820	-0.820	-0.010	-1.760
2020/01/31 20:06:39.0	5.830	-0.830	0.040	-1.750
2020/01/31 20:06:39.1	5.850	-0.830	0.080	-1.720
2020/01/31 20:06:39.2	5.870	-0.820	0.120	-1.700
2020/01/31 20:06:39.3	5.880	-0.810	0.160	-1.670
2020/01/31 20:06:39.4	5.900	-0.790	0.200	-1.630
2020/01/31 20:06:39.5	5.910	-0.760	0.230	-1.580
2020/01/31 20:06:39.6	5.920	-0.740	0.260	-1.530
2020/01/31 20:06:39.7	5.930	-0.700	0.280	-1.480
2020/01/31 20:06:39.8	5.940	-0.660	0.310	-1.420
2020/01/31 20:06:39.9	5.940	-0.620	0.320	-1.350
2020/01/31 20:06:40.0	5.930	-0.570	0.340	-1.270
2020/01/31 20:06:40.1	5.930	-0.520	0.350	-1.190
2020/01/31 20:06:40.2	5.920	-0.470	0.360	-1.100
2020/01/31 20:06:40.3	5.910	-0.410	0.360	-1.010
2020/01/31 20:06:40.4	5.890	-0.350	0.370	-0.920
2020/01/31 20:06:40.5	5.880	-0.280	0.370	-0.810
2020/01/31 20:06:40.6	5.850	-0.220	0.360	-0.710
2020/01/31 20:06:40.7	5.830	-0.150	0.360	-0.600
2020/01/31 20:06:40.8	5.800	-0.080	0.350	-0.490
2020/01/31 20:06:40.9	5.760	-0.010	0.330	-0.380
2020/01/31 20:06:41.0	5.730	0.060	0.320	-0.270
2020/01/31 20:06:41.1	5.700	0.130	0.300	-0.160
2020/01/31 20:06:41.2	5.660	0.190	0.280	-0.050
2020/01/31 20:06:41.3	5.620	0.260	0.260	0.060
2020/01/31 20:06:41.4	5.590	0.330	0.240	0.170
2020/01/31 20:06:41.5	5.550	0.390	0.210	0.270
2020/01/31 20:06:41.6	5.510	0.450	0.180	0.370
2020/01/31 20:06:41.7	5.470	0.510	0.150	0.470
2020/01/31 20:06:41.8	5.430	0.570	0.120	0.560
2020/01/31 20:06:41.9	5.390	0.620	0.090	0.650
2020/01/31 20:06:42.0	5.350	0.670	0.060	0.730
2020/01/31 20:06:42.1	5.310	0.710	0.020	0.810
2020/01/31 20:06:42.2	5.260	0.750	-0.010	0.890
2020/01/31 20:06:42.3	5.220	0.780	-0.040	0.950
2020/01/31 20:06:42.4	5.180	0.810	-0.080	1.010
2020/01/31 20:06:42.5	5.140	0.840	-0.110	1.060
2020/01/31 20:06:42.6	5.110	0.860	-0.140	1.100
2020/01/31 20:06:42.7	5.070	0.870	-0.170	1.140
2020/01/31 20:06:42.8	5.040	0.880	-0.210	1.170
2020/01/31 20:06:42.9	5.000	0.880	-0.240	1.190
2020/01/31 20:06:43.0	4.970	0.880	-0.270	1.200
2020/01/31 20:06:43.1	4.940	0.880	-0.300	1.200
2020/01/31 20:06:43.2	4.920	0.870	-0.330	1.200
2020/01/31 20:06:43.3	4.900	0.860	-0.360	1.190
2020/01/31 20:06:43.4	4.880	0.840	-0.390	1.170
2020/01/31 20:06:43.5	4.870	0.810	-0.420	1.140
2020/01/31 20:06:43.6	4.860	0.790	-0.450	1.100
2020/01/31 20:06:43.7	4.860	0.760	-0.480	1.050
2020/01/31 20:06:43.8	4.860	0.720	-0.510	1.000
2020/01/31 20:06:43.9	4.860	0.680	-0.540	0.930
2020/01/31 20:06:44.0	4.870	0.640	-0.570	0.860
2020/01/31 20:06:44.1	4.880	0.600	-0.600	0.780
2020/01/31 20:06:44.2	4.900	0.560	-0.630	0.700
2020/01/31 20:06:44.3	4.930	0.510	-0.660	0.610
2020/01/31 20:06:44.4	4.950	0.460	-0.690	0.510
2020/01/31 20:06:44.5	4.980	0.410	-0.710	0.420
2020/01/31 20:06:44.6	5.020	0.360	-0.740	0.310
2020/01/31 20:06:44.7	5.050	0.310	-0.760	0.210
2020/01/31 20:06:44.8	5.090	0.250	-0.790	0.100
2020/01/31 20:06:44.9	5.140	0.200	-0.810	-0.010
2020/01/31 20:06:45.0	5.180	0.150	-0.820	-0.120
2020/01/31 20:06:45.1	5.230	0.090	-0.840	-0.230
2020/01/31 20:06:45.2	5.270	0.040	-0.840	-0.330
2020/01/31 20:06:45.3	5.320	-0.010	-0.850	-0.430
2020/01/31 20:06:45.4	5.360	-0.060	-0.850	-0.530
2020/01/31 20:06:45.5	5.400	-0.110	-0.850	-0.630
2020/01/31 20:06:45.6	5.450	-0.160	-0.850	-0.720
2020/01/31 20:06:45.7	5.490	-0.200	-0.840	-0.810
2020/01/31 20:06:45.8	5.530	-0.250	-0.820	-0.890
2020/01/31 20:06:45.9	5.580	-0.290	-0.810	-0.980
2020/01/31 20:06:46.0	5.620	-0.330	-0.790	-1.060
2020/01/31 20:06:46.1	5.660	-0.370	-0.760	-1.130
2020/01/31 20:06:46.2	5.690	-0.410	-0.730	-1.190
2020/01/31 20:06:46.3	5.730	-0.440	-0.700	-1.250
2020/01/31 20:06:46.4	5.760	-0.470	-0.670	-1.300
2020/01/31 20:06:46.5	5.790	-0.500	-0.640	-1.350
2020/01/31 20:06:46.6	5.820	-0.530	-0.600	-1.390
2020/01/31 20:06:46.7	5.850	-0.550	-0.560	-1.430
2020/01/31 20:06:46.8	5.870	-0.570	-0.520	-1.450
2020/01/31 20:06:46.9	5.900	-0.590	-0.490	-1.470
2020/01/31 20:06:47.0	5.920	-0.610	-0.440	-1.490
2020/01/31 20:06:47.1	5.930	-0.620	-0.400	-1.490
2020/01/31 20:06:47.2	5.950	-0.630	-0.360	-1.490
2020/01/31 20:06:47.3	5.960	-0.640	-0.320	-1.480
2020/01/31 20:06:47.4	5.970	-0.640	-0.280	-1.470
2020/01/31 20:06:47.5	5.970	-0.650	-0.240	-1.450
2020/01/31 20:06:47.6	5.980	-0.650	-0.200	-1.420
2020/01/31 20:06:47.7	5.980	-0.640	-0.160	-1.390
2020/01/31 20:06:47.8	5.970	-0.640	-0.120	-1.360
2020/01/31 20:06:47.9	5.960	-0.630	-0.090	-1.310
2020/01/31 20:06:48.0	5.960	-0.620	-0.060	-1.260
2020/01/31 20:06:48.1	5.950	-0.610	-0.030	-1.210
2020/01/31 20:06:48.2	5.940	-0.600	-0.000	-1.160
2020/01/31 20:06:48.3	5.930	-0.590	0.020	-1.100
2020/01/31 20:06:48.4	5.910	-0.570	0.040	-1.040
2020/01/31 20:06:48.5	5.900	-0.550	0.060	-0.980
2020/01/31 20:06:48.6	5.890	-0.530	0.080	-0.920
2020/01/31 20:06:48.7	5.870	-0.510	0.090	-0.850
2020/01/31 20:06:48.8	5.850	-0.480	0.110	-0.790
2020/01/31 20:06:48.9	5.840	-0.460	0.110	-0.720
2020/01/31 20:06:49.0	5.830	-0.430	0.110	-0.650
2020/01/31 20:06:49.1	5.810	-0.400	0.120	-0.590
2020/01/31 20:06:49.2	5.790	-0.380	0.120	-0.520
2020/01/31 20:06:49.3	5.780	-0.350	0.120	-0.460
2020/01/31 20:06:49.4	5.770	-0.320	0.110	-0.400
2020/01/31 20:06:49.5	5.750	-0.280	0.110	-0.340
2020/01/31 20:06:49.6	5.740	-0.250	0.100	-0.280
2020/01/31 20:06:49.7	5.730	-0.220	0.090	-0.220
2020/01/31 20:06:49.8	5.710	-0.180	0.080	-0.160
2020/01/31 20:06:49.9	5.700	-0.150	0.070	-0.110
2020/01/31 20:06:50.0	5.690	-0.110	0.050	-0.060
2020/01/31 20:06:50.1	5.680	-0.080	0.040	-0.000
2020/01/31 20:06:50.2	5.660	-0.040	0.020	0.050
2020/01/31 20:06:50.3	5.660	-0.010	0.010	0.090
2020/01/31 20:06:50.4	5.650	0.030	-0.010	0.140
2020/01/31 20:06:50.5	5.640	0.060	-0.030	0.180
2020/01/31 20:06:50.6	5.630	0.100	-0.050	0.220
2020/01/31 20:06:50.7	5.620	0.140	-0.060	0.260
2020/01/31 20:06:50.8	5.610	0.170	-0.080	0.300
2020/01/31 20:06:50.9	5.600	0.200	-0.100	0.330
2020/01/31 20:06:51.0	5.600	0.240	-0.120	0.360
2020/01/31 20:06:51.1	5.590	0.270	-0.130	0.380
2020/01/31 20:06:51.2	5.590	0.300	-0.150	0.410
2020/01/31 20:06:51.3	5.590	0.330	-0.160	0.430
2020/01/31 20:06:51.4	5.590	0.360	-0.170	0.450
2020/01/31 20:06:51.5	5.580	0.390	-0.190	0.460
2020/01/31 20:06:51.6	5.580	0.420	-0.200	0.480
2020/01/31 20:06:51.7	5.580	0.440	-0.210	0.490
2020/01/31 20:06:51.8	5.580	0.470	-0.220	0.500
2020/01/31 20:06:51.9	5.560	0.490	-0.230	0.510
2020/01/31 20:06:52.0	5.560	0.510	-0.240	0.510
2020/01/31 20:06:52.1	5.550	0.520	-0.240	0.520
2020/01/31 20:06:52.2	5.550	0.540	-0.250	0.520
2020/01/31 20:06:52.3	5.540	0.550	-0.250	0.520
2020/01/31 20:06:52.4	5.540	0.560	-0.250	0.520
2020/01/31 20:06:52.5	5.530	0.570	-0.260	0.520
2020/01/31 20:06:52.6	5.520	0.570	-0.260	0.510
2020/01/31 20:06:52.7	5.510	0.570	-0.250	0.500
2020/01/31 20:06:52.8	5.500	0.570	-0.250	0.490
2020/01/31 20:06:52.9	5.500	0.570	-0.250	0.480
2020/01/31 20:06:53.0	5.490	0.560	-0.240	0.460
2020/01/31 20:06:53.1	5.480	0.560	-0.230	0.450
2020/01/31 20:06:53.2	5.470	0.540	-0.230	0.430
2020/01/31 20:06:53.3	5.450	0.530	-0.220	0.410
2020/01/31 20:06:53.4	5.440	0.520	-0.200	0.390
2020/01/31 20:06:53.5	5.420	0.500	-0.190	0.380
2020/01/31 20:06:53.6	5.400	0.480	-0.180	0.360
2020/01/31 20:06:53.7	5.390	0.460	-0.160	0.340
2020/01/31 20:06:53.8	5.370	0.430	-0.150	0.320
2020/01/31 20:06:53.9	5.360	0.410	-0.140	0.300
2020/01/31 20:06:54.0	5.340	0.380	-0.120	0.280
2020/01/31 20:06:54.1	5.320	0.360	-0.110	0.260
2020/01/31 20:06:54.2	5.300	0.330	-0.100	0.240
2020/01/31 20:06:54.3	5.280	0.300	-0.080	0.220
2020/01/31 20:06:54.4	5.260	0.270	-0.070	0.200
2020/01/31 20:06:54.5	5.250	0.240	-0.060	0.170
2020/01/31 20:06:54.6	5.230	0.210	-0.060	0.150
2020/01/31 20:06:54.7	5.210	0.180	-0.050	0.120
2020/01/31 20:06:54.8	5.200	0.150	-0.050	0.090
2020/01/31 20:06:54.9	5.190	0.120	-0.060	0.060
2020/01/31 20:06:55.0	5.170	0.090	-0.060	0.020
2020/01/31 20:06:55.1	5.160	0.070	-0.070	-0.010
2020/01/31 20:06:55.2	5.150	0.040	-0.080	-0.050
2020/01/31 20:06:55.3	5.150	0.010	-0.100	-0.100
2020/01/31 20:06:55.4	5.140	-0.010	-0.120	-0.140
2020/01/31 20:06:55.5	5.140	-0.030	-0.150	-0.190
2020/01/31 20:06:55.6	5.140	-0.060	-0.170	-0.240
2020/01/31 20:06:55.7	5.140	-0.070	-0.210	-0.290
2020/01/31 20:06:55.8	5.150	-0.090	-0.240	-0.350
2020/01/31 20:06:55.9	5.160	-0.110	-0.280	-0.400
2020/01/31 20:06:56.0	5.170	-0.120	-0.320	-0.460
2020/01/31 20:06:56.1	5.180	-0.130	-0.370	-0.510
2020/01/31 20:06:56.2	5.200	-0.140	-0.410	-0.570
2020/01/31 20:06:56.3	5.220	-0.150	-0.460	-0.630
2020/01/31 20:06:56.4	5.240	-0.160	-0.510	-0.680
2020/01/31 20:06:56.5	5.260	-0.160	-0.550	-0.740
2020/01/31 20:06:56.6	5.290	-0.170	-0.600	-0.790
2020/01/31 20:06:56.7	5.320	-0.170	-0.650	-0.840
2020/01/31 20:06:56.8	5.350	-0.170	-0.700	-0.900
2020/01/31 20:06:56.9	5.380	-0.170	-0.740	-0.950
2020/01/31 20:06:57.0	5.410	-0.170	-0.780	-1.000
2020/01/31 20:06:57.1	5.450	-0.160	-0.820	-1.040
2020/01/31 20:06:57.2	5.490	-0.160	-0.860	-1.090
2020/01/31 20:06:57.3	5.520	-0.160	-0.890	-1.130
2020/01/31 20:06:57.4	5.560	-0.160	-0.920	-1.170
2020/01/31 20:06:57.5	5.600	-0.150	-0.940	-1.200
2020/01/31 20:06:57.6	5.640	-0.150	-0.960	-1.230
2020/01/31 20:06:57.7	5.670	-0.150	-0.970	-1.260
2020/01/31 20:06:57.8	5.710	-0.150	-0.970	-1.280
2020/01/31 20:06:57.9	5.740	-0.150	-0.970	-1.300
2020/01/31 20:06:58.0	5.770	-0.150	-0.960	-1.310
2020/01/31 20:06:58.1	5.800	-0.160	-0.950	-1.320
2020/01/31 20:06:58.2	5.820	-0.160	-0.930	-1.320
2020/01/31 20:06:58.3	5.850	-0.170	-0.900	-1.320
2020/01/31 20:06:58.4	5.870	-0.180	-0.860	-1.320
2020/01/31 20:06:58.5	5.880	-0.190	-0.820	-1.310
2020/01/31 20:06:58.6	5.900	-0.200	-0.770	-1.290
2020/01/31 20:06:58.7	5.910	-0.210	-0.710	-1.270
2020/01/31 20:06:58.8	5.920	-0.230	-0.650	-1.240
2020/01/31 20:06:58.9	5.920	-0.240	-0.590	-1.220
2020/01/31 20:06:59.0	5.920	-0.260	-0.530	-1.180
2020/01/31 20:06:59.1	5.920	-0.280	-0.460	-1.140
2020/01/31 20:06:59.2	5.920	-0.290	-0.380	-1.100
2020/01/31 20:06:59.3	5.910	-0.310	-0.310	-1.050
2020/01/31 20:06:59.4	5.900	-0.330	-0.240	-0.990
2020/01/31 20:06:59.5	5.890	-0.340	-0.160	-0.940
2020/01/31 20:06:59.6	5.870	-0.360	-0.090	-0.880
2020/01/31 20:06:59.7	5.850	-0.370	-0.010	-0.810
2020/01/31 20:06:59.8	5.830	-0.380	0.060	-0.740
2020/01/31 20:06:59.9	5.810	-0.390	0.120	-0.670
2020/01/31 20:07:00.0	5.780	-0.400	0.190	-0.590
2020/01/31 20:07:00.1	5.760	-0.410	0.250	-0.520
2020/01/31 20:07:00.2	5.730	-0.410	0.310	-0.440
2020/01/31 20:07:00.3	5.700	-0.410	0.360	-0.370
2020/01/31 20:07:00.4	5.670	-0.410	0.410	-0.290
2020/01/31 20:07:00.5	5.640	-0.400	0.450	-0.220
2020/01/31 20:07:00.6	5.620	-0.390	0.480	-0.140
2020/01/31 20:07:00.7	5.590	-0.380	0.510	-0.070
2020/01/31 20:07:00.8	5.560	-0.360	0.530	0.000
2020/01/31 20:07:00.9	5.530	-0.340	0.540	0.070
2020/01/31 20:07:01.0	5.500	-0.310	0.550	0.140
2020/01/31 20:07:01.1	5.480	-0.280	0.550	0.200
2020/01/31 20:07:01.2	5.450	-0.250	0.550	0.260
2020/01/31 20:07:01.3	5.430	-0.210	0.540	0.320
2020/01/31 20:07:01.4	5.410	-0.170	0.520	0.380
2020/01/31 20:07:01.5	5.380	-0.120	0.500	0.430
2020/01/31 20:07:01.6	5.360	-0.070	0.470	0.480
2020/01/31 20:07:01.7	5.340	-0.020	0.440	0.530
2020/01/31 20:07:01.8	5.320	0.030	0.410	0.570
2020/01/31 20:07:01.9	5.300	0.080	0.370	0.610
2020/01/31 20:07:02.0	5.280	0.130	0.330	0.640
2020/01/31 20:07:02.1	5.260	0.180	0.290	0.670
2020/01/31 20:07:02.2	5.230	0.230	0.240	0.700
2020/01/31 20:07:02.3	5.210	0.280	0.200	0.720
2020/01/31 20:07:02.4	5.180	0.330	0.150	0.740
2020/01/31 20:07:02.5	5.150	0.370	0.100	0.760
2020/01/31 20:07:02.6	5.130	0.410	0.060	0.770
2020/01/31 20:07:02.7	5.100	0.450	0.010	0.780
2020/01/31 20:07:02.8	5.070	0.480	-0.040	0.790
2020/01/31 20:07:02.9	5.040	0.510	-0.080	0.780
2020/01/31 20:07:03.0	5.010	0.530	-0.130	0.780
2020/01/31 20:07:03.1	4.980	0.550	-0.170	0.770
2020/01/31 20:07:03.2	4.950	0.560	-0.210	0.760
2020/01/31 20:07:03.3	4.920	0.560	-0.250	0.740
2020/01/31 20:07:03.4	4.890	0.560	-0.290	0.720
2020/01/31 20:07:03.5	4.870	0.550	-0.330	0.690
2020/01/31 20:07:03.6	4.840	0.540	-0.360	0.660
2020/01/31 20:07:03.7	4.820	0.520	-0.400	0.620
2020/01/31 20:07:03.8	4.810	0.500	-0.430	0.580
2020/01/31 20:07:03.9	4.800	0.470	-0.470	0.530
2020/01/31 20:07:04.0	4.780	0.440	-0.500	0.480
2020/01/31 20:07:04.1	4.780	0.400	-0.530	0.420
2020/01/31 20:07:04.2	4.770	0.360	-0.550	0.360
2020/01/31 20:07:04.3	4.780	0.320	-0.580	0.300
2020/01/31 20:07:04.4	4.780	0.280	-0.610	0.220
2020/01/31 20:07:04.5	4.790	0.230	-0.630	0.150
2020/01/31 20:07:04.6	4.800	0.180	-0.660	0.070
2020/01/31 20:07:04.7	4.820	0.130	-0.680	-0.010
2020/01/31 20:07:04.8	4.840	0.080	-0.710	-0.090
2020/01/31 20:07:04.9	4.880	0.030	-0.730	-0.180
2020/01/31 20:07:05.0	4.910	-0.010	-0.750	-0.260
2020/01/31 20:07:05.1	4.940	-0.060	-0.770	-0.340
2020/01/31 20:07:05.2	4.970	-0.100	-0.790	-0.420
2020/01/31 20:07:05.3	5.010	-0.140	-0.810	-0.500
2020/01/31 20:07:05.4	5.050	-0.180	-0.820	-0.580
2020/01/31 20:07:05.5	5.090	-0.210	-0.840	-0.660
2020/01/31 20:07:05.6	5.130	-0.240	-0.850	-0.730
2020/01/31 20:07:05.7	5.170	-0.260	-0.850	-0.800
2020/01/31 20:07:05.8	5.210	-0.280	-0.860	-0.860
2020/01/31 20:07:05.9	5.250	-0.300	-0.870	-0.930
2020/01/31 20:07:06.0	5.290	-0.310	-0.870	-0.980
2020/01/31 20:07:06.1	5.330	-0.310	-0.870	-1.030
2020/01/31 20:07:06.2	5.380	-0.310	-0.860	-1.080
2020/01/31 20:07:06.3	5.420	-0.310	-0.850	-1.120
2020/01/31 20:07:06.4	5.470	-0.300	-0.840	-1.150
2020/01/31 20:07:06.5	5.510	-0.290	-0.820	-1.180
2020/01/31 20:07:06.6	5.550	-0.270	-0.800	-1.200
2020/01/31 20:07:06.7	5.590	-0.250	-0.780	-1.210
2020/01/31 20:07:06.8	5.620	-0.230	-0.750	-1.220
2020/01/31 20:07:06.9	5.650	-0.210	-0.720	-1.230
2020/01/31 20:07:07.0	5.680	-0.180	-0.690	-1.220
2020/01/31 20:07:07.1	5.710	-0.150	-0.650	-1.220
2020/01/31 20:07:07.2	5.730	-0.120	-0.610	-1.200
2020/01/31 20:07:07.3	5.760	-0.090	-0.570	-1.190
2020/01/31 20:07:07.4	5.780	-0.060	-0.530	-1.160
2020/01/31 20:07:07.5	5.800	-0.030	-0.480	-1.140
2020/01/31 20:07:07.6	5.810	0.000	-0.440	-1.100
2020/01/31 20:07:07.7	5.820	0.030	-0.390	-1.070
2020/01/31 20:07:07.8	5.830	0.060	-0.340	-1.030
2020/01/31 20:07:07.9	5.830	0.090	-0.290	-0.990
2020/01/31 20:07:08.0	5.830	0.110	-0.240	-0.940
2020/01/31 20:07:08.1	5.830	0.130	-0.190	-0.890
2020/01/31 20:07:08.2	5.830	0.150	-0.140	-0.830
2020/01/31 20:07:08.3	5.820	0.160	-0.090	-0.780
2020/01/31 20:07:08.4	5.810	0.170	-0.040	-0.720
2020/01/31 20:07:08.5	5.800	0.180	0.010	-0.660
2020/01/31 20:07:08.6	5.780	0.190	0.060	-0.590
2020/01/31 20:07:08.7	5.770	0.190	0.100	-0.530
2020/01/31 20:07:08.8	5.750	0.190	0.150	-0.470
2020/01/31 20:07:08.9	5.730	0.190	0.190	-0.400
2020/01/31 20:07:09.0	5.710	0.180	0.230	-0.330
2020/01/31 20:07:09.1	5.680	0.170	0.260	-0.270
2020/01/31 20:07:09.2	5.660	0.160	0.290	-0.200
2020/01/31 20:07:09.3	5.640	0.140	0.320	-0.140
2020/01/31 20:07:09.4	5.610	0.120	0.340	-0.080
2020/01/31 20:07:09.5	5.590	0.100	0.360	-0.020
2020/01/31 20:07:09.6	5.570	0.080	0.380	0.040
2020/01/31 20:07:09.7	5.540	0.060	0.390	0.100
2020/01/31 20:07:09.8	5.520	0.040	0.400	0.150
2020/01/31 20:07:09.9	5.500	0.010	0.410	0.200
2020/01/31 20:07:10.0	5.480	-0.010	0.410	0.250
2020/01/31 20:07:10.1	5.460	-0.040	0.400	0.290
2020/01/31 20:07:10.2	5.440	-0.060	0.400	0.320
2020/01/31 20:07:10.3	5.420	-0.090	0.390	0.360
2020/01/31 20:07:10.4	5.400	-0.110	0.370	0.380
2020/01/31 20:07:10.5	5.380	-0.130	0.360	0.410
2020/01/31 20:07:10.6	5.360	-0.150	0.340	0.430
2020/01/31 20:07:10.7	5.340	-0.170	0.320	0.450
2020/01/31 20:07:10.8	5.320	-0.190	0.290	0.460
2020/01/31 20:07:10.9	5.300	-0.210	0.270	0.470
2020/01/31 20:07:11.0	5.280	-0.220	0.240	0.480
2020/01/31 20:07:11.1	5.260	-0.230	0.210	0.490
2020/01/31 20:07:11.2	5.240	-0.240	0.180	0.490
2020/01/31 20:07:11.3	5.210	-0.250	0.150	0.500
2020/01/31 20:07:11.4	5.190	-0.250	0.120	0.500
2020/01/31 20:07:11.5	5.170	-0.260	0.080	0.490
2020/01/31 20:07:11.6	5.150	-0.250	0.040	0.490
2020/01/31 20:07:11.7	5.130	-0.250	0.000	0.480
2020/01/31 20:07:11.8	5.110	-0.250	-0.040	0.460
2020/01/31 20:07:11.9	5.090	-0.240	-0.090	0.440
2020/01/31 20:07:12.0	5.070	-0.230	-0.130	0.410
2020/01/31 20:07:12.1	5.060	-0.210	-0.180	0.390
2020/01/31 20:07:12.2	5.050	-0.200	-0.230	0.360
2020/01/31 20:07:12.3	5.040	-0.180	-0.280	0.320
2020/01/31 20:07:12.4	5.040	-0.160	-0.330	0.280
2020/01/31 20:07:12.5	5.040	-0.140	-0.380	0.240
2020/01/31 20:07:12.6	5.040	-0.120	-0.440	0.190
2020/01/31 20:07:12.7	5.050	-0.090	-0.490	0.140
2020/01/31 20:07:12.8	5.060	-0.060	-0.550	0.090
2020/01/31 20:07:12.9	5.070	-0.040	-0.610	0.030
2020/01/31 20:07:13.0	5.090	-0.010	-0.670	-0.030
2020/01/31 20:07:13.1	5.120	0.030	-0.730	-0.090
2020/01/31 20:07:13.2	5.150	0.060	-0.790	-0.150
2020/01/31 20:07:13.3	5.180	0.090	-0.850	-0.220
2020/01/31 20:07:13.4	5.220	0.120	-0.910	-0.280
2020/01/31 20:07:13.5	5.260	0.150	-0.970	-0.350
2020/01/31 20:07:13.6	5.310	0.190	-1.020	-0.410
2020/01/31 20:07:13.7	5.350	0.220	-1.070	-0.470
2020/01/31 20:07:13.8	5.400	0.250	-1.110	-0.530
2020/01/31 20:07:13.9	5.440	0.270	-1.150	-0.600
2020/01/31 20:07:14.0	5.490	0.300	-1.190	-0.650
2020/01/31 20:07:14.1	5.540	0.320	-1.220	-0.710
2020/01/31 20:07:14.2	5.590	0.340	-1.240	-0.760
2020/01/31 20:07:14.3	5.640	0.360	-1.250	-0.800
2020/01/31 20:07:14.4	5.680	0.370	-1.260	-0.840
2020/01/31 20:07:14.5	5.730	0.370	-1.260	-0.880
2020/01/31 20:07:14.6	5.770	0.380	-1.240	-0.910
2020/01/31 20:07:14.7	5.800	0.380	-1.220	-0.930
2020/01/31 20:07:14.8	5.840	0.370	-1.190	-0.950
2020/01/31 20:07:14.9	5.870	0.360	-1.150	-0.970
2020/01/31 20:07:15.0	5.890	0.340	-1.100	-0.980
2020/01/31 20:07:15.1	5.910	0.320	-1.040	-0.980
2020/01/31 20:07:15.2	5.930	0.300	-0.970	-0.980
2020/01/31 20:07:15.3	5.940	0.270	-0.890	-0.970
2020/01/31 20:07:15.4	5.950	0.230	-0.800	-0.960
2020/01/31 20:07:15.5	5.950	0.190	-0.710	-0.950
2020/01/31 20:07:15.6	5.950	0.150	-0.610	-0.930
2020/01/31 20:07:15.7	5.940	0.100	-0.500	-0.910
2020/01/31 20:07:15.8	5.930	0.050	-0.390	-0.880
2020/01/31 20:07:15.9	5.920	0.000	-0.270	-0.850
2020/01/31 20:07:16.0	5.900	-0.050	-0.150	-0.810
2020/01/31 20:07:16.1	5.870	-0.110	-0.030	-0.780
2020/01/31 20:07:16.2	5.840	-0.170	0.080	-0.740
2020/01/31 20:07:16.3	5.810	-0.230	0.200	-0.700
2020/01/31 20:07:16.4	5.780	-0.280	0.320	-0.660
2020/01/31 20:07:16.5	5.740	-0.340	0.430	-0.610
2020/01/31 20:07:16.6	5.700	-0.400	0.540	-0.570
2020/01/31 20:07:16.7	5.670	-0.450	0.640	-0.530
2020/01/31 20:07:16.8	5.620	-0.510	0.730	-0.480
2020/01/31 20:07:16.9	5.610	-0.560	0.810	-0.440
2020/01/31 20:07:17.0	5.560	-0.600	0.890	-0.390
2020/01/31 20:07:17.1	5.520	-0.650	0.960	-0.350
2020/01/31 20:07:17.2	5.480	-0.680	1.020	-0.310
2020/01/31 20:07:17.3	5.440	-0.720	1.060	-0.260
2020/01/31 20:07:17.4	5.400	-0.740	1.100	-0.230
2020/01/31 20:07:17.5	5.360	-0.760	1.120	-0.190
2020/01/31 20:07:17.6	5.320	-0.780	1.140	-0.150
2020/01/31 20:07:17.7	5.280	-0.790	1.140	-0.120
2020/01/31 20:07:17.8	5.250	-0.790	1.130	-0.090
2020/01/31 20:07:17.9	5.230	-0.780	1.110	-0.060
2020/01/31 20:07:18.0	5.190	-0.770	1.070	-0.040
2020/01/31 20:07:18.1	5.170	-0.750	1.030	-0.010
2020/01/31 20:07:18.2	5.140	-0.720	0.970	0.010
2020/01/31 20:07:18.3	5.110	-0.690	0.910	0.030
2020/01/31 20:07:18.4	5.090	-0.650	0.830	0.040
2020/01/31 20:07:18.5	5.070	-0.610	0.750	0.060
2020/01/31 20:07:18.6	5.050	-0.560	0.660	0.070
2020/01/31 20:07:18.7	5.030	-0.510	0.560	0.080
2020/01/31 20:07:18.8	5.010	-0.450	0.460	0.090
2020/01/31 20:07:18.9	4.990	-0.380	0.350	0.090
2020/01/31 20:07:19.0	4.980	-0.320	0.240	0.090
2020/01/31 20:07:19.1	4.970	-0.250	0.130	0.090
2020/01/31 20:07:19.2	4.960	-0.180	0.010	0.090
2020/01/31 20:07:19.3	4.950	-0.100	-0.100	0.080
2020/01/31 20:07:19.4	4.950	-0.030	-0.220	0.080
2020/01/31 20:07:19.5	4.950	0.050	-0.330	0.070
2020/01/31 20:07:19.6	4.940	0.120	-0.440	0.070
2020/01/31 20:07:19.7	4.950	0.190	-0.540	0.060
2020/01/31 20:07:19.8	4.950	0.270	-0.640	0.050
2020/01/31 20:07:19.9	4.960	0.340	-0.740	0.050
2020/01/31 20:07:20.0	4.970	0.410	-0.830	0.040
2020/01/31 20:07:20.1	4.980	0.470	-0.920	0.030
2020/01/31 20:07:20.2	4.990	0.530	-0.990	0.020
2020/01/31 20:07:20.3	5.010	0.590	-1.060	0.010
2020/01/31 20:07:20.4	5.030	0.640	-1.130	0.000
2020/01/31 20:07:20.5	5.050	0.690	-1.180	-0.010
2020/01/31 20:07:20.6	5.070	0.730	-1.230	-0.020
2020/01/31 20:07:20.7	5.090	0.770	-1.270	-0.030
2020/01/31 20:07:20.8	5.110	0.800	-1.290	-0.040
2020/01/31 20:07:20.9	5.130	0.830	-1.320	-0.060
2020/01/31 20:07:21.0	5.150	0.850	-1.330	-0.070
2020/01/31 20:07:21.1	5.180	0.860	-1.340	-0.080
2020/01/31 20:07:21.2	5.210	0.870	-1.330	-0.090
2020/01/31 20:07:21.3	5.240	0.870	-1.320	-0.100
2020/01/31 20:07:21.4	5.260	0.870	-1.300	-0.110
2020/01/31 20:07:21.5	5.290	0.860	-1.280	-0.130
2020/01/31 20:07:21.6	5.320	0.850	-1.250	-0.140
2020/01/31 20:07:21.7	5.340	0.830	-1.210	-0.150
2020/01/31 20:07:21.8	5.370	0.800	-1.160	-0.150
2020/01/31 20:07:21.9	5.390	0.770	-1.120	-0.160
2020/01/31 20:07:22.0	5.420	0.740	-1.060	-0.170
2020/01/31 20:07:22.1	5.440	0.700	-1.000	-0.170
2020/01/31 20:07:22.2	5.450	0.660	-0.940	-0.170
2020/01/31 20:07:22.3	5.470	0.620	-0.880	-0.180
2020/01/31 20:07:22.4	5.490	0.570	-0.810	-0.180
2020/01/31 20:07:22.5	5.500	0.520	-0.740	-0.180
2020/01/31 20:07:22.6	5.510	0.470	-0.670	-0.180
2020/01/31 20:07:22.7	5.520	0.420	-0.600	-0.180
2020/01/31 20:07:22.8	5.530	0.360	-0.530	-0.170
2020/01/31 20:07:22.9	5.540	0.310	-0.460	-0.170
2020/01/31 20:07:23.0	5.550	0.250	-0.400	-0.170
2020/01/31 20:07:23.1	5.550	0.190	-0.330	-0.170
2020/01/31 20:07:23.2	5.560	0.140	-0.270	-0.170
2020/01/31 20:07:23.3	5.560	0.080	-0.210	-0.170
2020/01/31 20:07:23.4	5.560	0.030	-0.160	-0.170
2020/01/31 20:07:23.5	5.570	-0.020	-0.110	-0.180
2020/01/31 20:07:23.6	5.570	-0.070	-0.060	-0.190
2020/01/31 20:07:23.7	5.570	-0.120	-0.020	-0.190
2020/01/31 20:07:23.8	5.570	-0.170	0.020	-0.200
2020/01/31 20:07:23.9	5.570	-0.210	0.050	-0.220
2020/01/31 20:07:24.0	5.570	-0.250	0.080	-0.230
2020/01/31 20:07:24.1	5.570	-0.290	0.100	-0.250
2020/01/31 20:07:24.2	5.570	-0.330	0.130	-0.260
2020/01/31 20:07:24.3	5.570	-0.360	0.140	-0.280
2020/01/31 20:07:24.4	5.570	-0.390	0.150	-0.300
2020/01/31 20:07:24.5	5.570	-0.420	0.160	-0.310
2020/01/31 20:07:24.6	5.570	-0.440	0.170	-0.330
2020/01/31 20:07:24.7	5.560	-0.460	0.170	-0.350
2020/01/31 20:07:24.8	5.560	-0.470	0.170	-0.370
2020/01/31 20:07:24.9	5.540	-0.490	0.170	-0.390
2020/01/31 20:07:25.0	5.540	-0.500	0.170	-0.400
2020/01/31 20:07:25.1	5.530	-0.500	0.170	-0.410
2020/01/31 20:07:25.2	5.520	-0.510	0.160	-0.420
2020/01/31 20:07:25.3	5.510	-0.510	0.160	-0.430
2020/01/31 20:07:25.4	5.500	-0.510	0.150	-0.440
2020/01/31 20:07:25.5	5.480	-0.500	0.150	-0.440
2020/01/31 20:07:25.6	5.470	-0.500	0.140	-0.440
2020/01/31 20:07:25.7	5.450	-0.490	0.130	-0.440
2020/01/31 20:07:25.8	5.430	-0.480	0.130	-0.440
2020/01/31 20:07:25.9	5.400	-0.470	0.120	-0.440
2020/01/31 20:07:26.0	5.380	-0.460	0.110	-0.430
2020/01/31 20:07:26.1	5.360	-0.440	0.110	-0.420
2020/01/31 20:07:26.2	5.340	-0.430	0.100	-0.410
2020/01/31 20:07:26.3	5.320	-0.410	0.100	-0.400
2020/01/31 20:07:26.4	5.300	-0.400	0.090	-0.380
2020/01/31 20:07:26.5	5.280	-0.380	0.090	-0.370
2020/01/31 20:07:26.6	5.270	-0.360	0.080	-0.350
2020/01/31 20:07:26.7	5.250	-0.340	0.070	-0.330
2020/01/31 20:07:26.8	5.230	-0.320	0.060	-0.310
2020/01/31 20:07:26.9	5.220	-0.300	0.050	-0.290
2020/01/31 20:07:27.0	5.200	-0.270	0.040	-0.270
2020/01/31 20:07:27.1	5.190	-0.250	0.030	-0.250
2020/01/31 20:07:27.2	5.170	-0.230	0.020	-0.230
2020/01/31 20:07:27.3	5.160	-0.200	0.010	-0.200
2020/01/31 20:07:27.4	5.150	-0.180	-0.010	-0.180
2020/01/31 20:07:27.5	5.130	-0.150	-0.020	-0.160
2020/01/31 20:07:27.6	5.120	-0.130	-0.040	-0.130
2020/01/31 20:07:27.7	5.110	-0.100	-0.060	-0.110
2020/01/31 20:07:27.8	5.100	-0.070	-0.070	-0.080
2020/01/31 20:07:27.9	5.100	-0.050	-0.090	-0.060
2020/01/31 20:07:28.0	5.090	-0.020	-0.110	-0.030
2020/01/31 20:07:28.1	5.080	0.000	-0.130	-0.010
2020/01/31 20:07:28.2	5.070	0.030	-0.140	0.020
2020/01/31 20:07:28.3	5.060	0.060	-0.160	0.040
2020/01/31 20:07:28.4	5.050	0.080	-0.180	0.070
2020/01/31 20:07:28.5	5.050	0.110	-0.190	0.090
2020/01/31 20:07:28.6	5.040	0.140	-0.210	0.120
2020/01/31 20:07:28.7	5.040	0.160	-0.220	0.140
2020/01/31 20:07:28.8	5.030	0.180	-0.240	0.170
2020/01/31 20:07:28.9	5.030	0.210	-0.250	0.190
2020/01/31 20:07:29.0	5.030	0.230	-0.260	0.210
2020/01/31 20:07:29.1	5.030	0.250	-0.270	0.230
2020/01/31 20:07:29.2	5.030	0.270	-0.290	0.250
2020/01/31 20:07:29.3	5.040	0.290	-0.300	0.270
2020/01/31 20:07:29.4	5.050	0.310	-0.310	0.290
2020/01/31 20:07:29.5	5.060	0.320	-0.320	0.300
2020/01/31 20:07:29.6	5.070	0.340	-0.320	0.310
2020/01/31 20:07:29.7	5.080	0.350	-0.330	0.320
2020/01/31 20:07:29.8	5.100	0.360	-0.340	0.330
2020/01/31 20:07:29.9	5.110	0.370	-0.350	0.340
2020/01/31 20:07:30.0	5.130	0.380	-0.360	0.340
2020/01/31 20:07:30.1	5.150	0.390	-0.370	0.350
2020/01/31 20:07:30.2	5.170	0.390	-0.380	0.350
2020/01/31 20:07:30.3	5.190	0.390	-0.380	0.350
2020/01/31 20:07:30.4	5.210	0.390	-0.390	0.340
2020/01/31 20:07:30.5	5.230	0.390	-0.400	0.340
2020/01/31 20:07:30.6	5.260	0.380	-0.400	0.330
2020/01/31 20:07:30.7	5.280	0.380	-0.410	0.320
2020/01/31 20:07:30.8	5.310	0.370	-0.410	0.310
2020/01/31 20:07:30.9	5.320	0.360	-0.420	0.290
2020/01/31 20:07:31.0	5.350	0.350	-0.420	0.270
2020/01/31 20:07:31.1	5.380	0.330	-0.430	0.250
2020/01/31 20:07:31.2	5.400	0.310	-0.430	0.230
2020/01/31 20:07:31.3	5.430	0.290	-0.440	0.200
2020/01/31 20:07:31.4	5.460	0.270	-0.440	0.180
2020/01/31 20:07:31.5	5.490	0.250	-0.440	0.140
2020/01/31 20:07:31.6	5.520	0.230	-0.440	0.110
2020/01/31 20:07:31.7	5.540	0.200	-0.440	0.080
2020/01/31 20:07:31.8	5.570	0.170	-0.440	0.040
2020/01/31 20:07:31.9	5.590	0.140	-0.440	0.000
2020/01/31 20:07:32.0	5.610	0.110	-0.440	-0.030
2020/01/31 20:07:32.1	5.630	0.080	-0.440	-0.070
2020/01/31 20:07:32.2	5.650	0.050	-0.430	-0.100
2020/01/31 20:07:32.3	5.660	0.020	-0.420	-0.140
2020/01/31 20:07:32.4	5.670	-0.020	-0.410	-0.170
2020/01/31 20:07:32.5	5.670	-0.050	-0.400	-0.200
2020/01/31 20:07:32.6	5.670	-0.090	-0.390	-0.230
2020/01/31 20:07:32.7	5.660	-0.120	-0.370	-0.250
2020/01/31 20:07:32.8	5.650	-0.160	-0.360	-0.280
2020/01/31 20:07:32.9	5.630	-0.190	-0.330	-0.300
2020/01/31 20:07:33.0	5.610	-0.230	-0.310	-0.320
2020/01/31 20:07:33.1	5.580	-0.270	-0.290	-0.330
2020/01/31 20:07:33.2	5.550	-0.300	-0.260	-0.350
2020/01/31 20:07:33.3	5.520	-0.330	-0.230	-0.360
2020/01/31 20:07:33.4	5.480	-0.360	-0.200	-0.370
2020/01/31 20:07:33.5	5.440	-0.400	-0.170	-0.370
2020/01/31 20:07:33.6	5.400	-0.420	-0.140	-0.380
2020/01/31 20:07:33.7	5.350	-0.450	-0.110	-0.380
2020/01/31 20:07:33.8	5.310	-0.480	-0.080	-0.380
2020/01/31 20:07:33.9	5.260	-0.500	-0.060	-0.380
2020/01/31 20:07:34.0	5.210	-0.520	-0.030	-0.370
2020/01/31 20:07:34.1	5.160	-0.530	-0.000	-0.370
2020/01/31 20:07:34.2	5.110	-0.550	0.020	-0.360
2020/01/31 20:07:34.3	5.060	-0.560	0.040	-0.350
2020/01/31 20:07:34.4	5.010	-0.560	0.060	-0.340
2020/01/31 20:07:34.5	4.960	-0.570	0.080	-0.320
2020/01/31 20:07:34.6	4.910	-0.560	0.090	-0.310
2020/01/31 20:07:34.7	4.860	-0.560	0.100	-0.300
2020/01/31 20:07:34.8	4.810	-0.550	0.100	-0.280
2020/01/31 20:07:34.9	4.780	-0.540	0.100	-0.280
2020/01/31 20:07:35.0	4.730	-0.520	0.090	-0.260
2020/01/31 20:07:35.1	4.700	-0.490	0.080	-0.250
2020/01/31 20:07:35.2	4.660	-0.470	0.070	-0.240
2020/01/31 20:07:35.3	4.630	-0.430	0.040	-0.220
2020/01/31 20:07:35.4	4.600	-0.400	0.020	-0.210
2020/01/31 20:07:35.5	4.580	-0.360	-0.020	-0.200
2020/01/31 20:07:35.6	4.560	-0.310	-0.050	-0.190
2020/01/31 20:07:35.7	4.540	-0.260	-0.100	-0.190
2020/01/31 20:07:35.8	4.530	-0.210	-0.140	-0.180
2020/01/31 20:07:35.9	4.530	-0.160	-0.190	-0.170
2020/01/31 20:07:36.0	4.530	-0.100	-0.250	-0.170
2020/01/31 20:07:36.1	4.540	-0.040	-0.300	-0.170
2020/01/31 20:07:36.2	4.550	0.030	-0.360	-0.170
2020/01/31 20:07:36.3	4.560	0.090	-0.420	-0.170
2020/01/31 20:07:36.4	4.580	0.160	-0.480	-0.180
2020/01/31 20:07:36.5	4.610	0.220	-0.540	-0.190
2020/01/31 20:07:36.6	4.640	0.290	-0.600	-0.200
2020/01/31 20:07:36.7	4.670	0.350	-0.660	-0.220
2020/01/31 20:07:36.8	4.710	0.420	-0.720	-0.240
2020/01/31 20:07:36.9	4.750	0.480	-0.780	-0.260
2020/01/31 20:07:37.0	4.800	0.540	-0.830	-0.280
2020/01/31 20:07:37.1	4.850	0.600	-0.880	-0.300
2020/01/31 20:07:37.2	4.900	0.660	-0.920	-0.320
2020/01/31 20:07:37.3	4.950	0.710	-0.960	-0.340
2020/01/31 20:07:37.4	5.000	0.750	-0.990	-0.360
2020/01/31 20:07:37.5	5.050	0.800	-1.010	-0.370
2020/01/31 20:07:37.6	5.100	0.840	-1.020	-0.390
2020/01/31 20:07:37.7	5.150	0.870	-1.030	-0.400
2020/01/31 20:07:37.8	5.200	0.890	-1.020	-0.400
2020/01/31 20:07:37.9	5.250	0.920	-1.010	-0.400
2020/01/31 20:07:38.0	5.290	0.930	-0.990	-0.390
2020/01/31 20:07:38.1	5.320	0.940	-0.960	-0.380
2020/01/31 20:07:38.2	5.350	0.940	-0.930	-0.370
2020/01/31 20:07:38.3	5.380	0.930	-0.880	-0.350
2020/01/31 20:07:38.4	5.400	0.920	-0.820	-0.330
2020/01/31 20:07:38.5	5.410	0.900	-0.760	-0.300
2020/01/31 20:07:38.6	5.420	0.870	-0.690	-0.270
2020/01/31 20:07:38.7	5.420	0.840	-0.620	-0.240
2020/01/31 20:07:38.8	5.420	0.800	-0.540	-0.200
2020/01/31 20:07:38.9	5.410	0.750	-0.460	-0.170
2020/01/31 20:07:39.0	5.400	0.700	-0.380	-0.140
2020/01/31 20:07:39.1	5.390	0.650	-0.290	-0.100
2020/01/31 20:07:39.2	5.370	0.580	-0.200	-0.070
2020/01/31 20:07:39.3	5.350	0.520	-0.120	-0.040
2020/01/31 20:07:39.4	5.330	0.450	-0.030	-0.010
2020/01/31 20:07:39.5	5.310	0.380	0.050	0.010
2020/01/31 20:07:39.6	5.280	0.300	0.130	0.030
2020/01/31 20:07:39.7	5.260	0.220	0.200	0.040
2020/01/31 20:07:39.8	5.240	0.140	0.270	0.050
2020/01/31 20:07:39.9	5.200	0.070	0.330	0.050
2020/01/31 20:07:40.0	5.180	-0.010	0.380	0.040
2020/01/31 20:07:40.1	5.160	-0.090	0.430	0.030
2020/01/31 20:07:40.2	5.150	-0.170	0.470	0.010
2020/01/31 20:07:40.3	5.140	-0.250	0.500	-0.010
2020/01/31 20:07:40.4	5.130	-0.320	0.520	-0.050
2020/01/31 20:07:40.5	5.120	-0.390	0.540	-0.080
2020/01/31 20:07:40.6	5.120	-0.460	0.540	-0.130
2020/01/31 20:07:40.7	5.120	-0.520	0.540	-0.180
2020/01/31 20:07:40.8	5.120	-0.580	0.530	-0.230
2020/01/31 20:07:40.9	5.120	-0.630	0.510	-0.290
2020/01/31 20:07:41.0	5.120	-0.680	0.490	-0.350
2020/01/31 20:07:41.1	5.120	-0.730	0.460	-0.410
2020/01/31 20:07:41.2	5.130	-0.770	0.430	-0.470
2020/01/31 20:07:41.3	5.130	-0.800	0.400	-0.520
2020/01/31 20:07:41.4	5.130	-0.830	0.360	-0.570
2020/01/31 20:07:41.5	5.130	-0.850	0.320	-0.620
2020/01/31 20:07:41.6	5.120	-0.870	0.280	-0.660
2020/01/31 20:07:41.7	5.110	-0.890	0.240	-0.700
2020/01/31 20:07:41.8	5.100	-0.900	0.200	-0.730
2020/01/31 20:07:41.9	5.080	-0.900	0.170	-0.760
2020/01/31 20:07:42.0	5.060	-0.910	0.130	-0.790
2020/01/31 20:07:42.1	5.040	-0.900	0.100	-0.810
2020/01/31 20:07:42.2	5.020	-0.900	0.070	-0.830
2020/01/31 20:07:42.3	4.990	-0.880	0.040	-0.840
2020/01/31 20:07:42.4	4.970	-0.870	0.020	-0.840
2020/01/31 20:07:42.5	4.940	-0.850	0.000	-0.850
2020/01/31 20:07:42.6	4.910	-0.830	-0.020	-0.850
2020/01/31 20:07:42.7	4.870	-0.810	-0.030	-0.840
2020/01/31 20:07:42.8	4.840	-0.780	-0.040	-0.830
2020/01/31 20:07:42.9	4.810	-0.760	-0.040	-0.810
2020/01/31 20:07:43.0	4.770	-0.730	-0.040	-0.790
2020/01/31 20:07:43.1	4.730	-0.690	-0.050	-0.770
2020/01/31 20:07:43.2	4.700	-0.660	-0.050	-0.740
2020/01/31 20:07:43.3	4.660	-0.620	-0.040	-0.710
2020/01/31 20:07:43.4	4.620	-0.590	-0.040	-0.680
2020/01/31 20:07:43.5	4.580	-0.550	-0.040	-0.640
2020/01/31 20:07:43.6	4.550	-0.510	-0.040	-0.600
2020/01/31 20:07:43.7	4.510	-0.460	-0.030	-0.560
2020/01/31 20:07:43.8	4.480	-0.420	-0.030	-0.510
2020/01/31 20:07:43.9	4.450	-0.380	-0.040	-0.470
2020/01/31 20:07:44.0	4.430	-0.330	-0.040	-0.420
2020/01/31 20:07:44.1	4.400	-0.280	-0.050	-0.370
2020/01/31 20:07:44.2	4.380	-0.240	-0.060	-0.320
2020/01/31 20:07:44.3	4.350	-0.190	-0.070	-0.270
2020/01/31 20:07:44.4	4.340	-0.140	-0.090	-0.220
2020/01/31 20:07:44.5	4.320	-0.090	-0.110	-0.170
2020/01/31 20:07:44.6	4.310	-0.040	-0.130	-0.130
2020/01/31 20:07:44.7	4.300	0.010	-0.160	-0.080
2020/01/31 20:07:44.8	4.300	0.070	-0.190	-0.030
2020/01/31 20:07:44.9	4.300	0.120	-0.230	0.010
2020/01/31 20:07:45.0	4.300	0.170	-0.270	0.050
2020/01/31 20:07:45.1	4.310	0.220	-0.320	0.090
2020/01/31 20:07:45.2	4.320	0.280	-0.360	0.120
2020/01/31 20:07:45.3	4.330	0.330	-0.410	0.150
2020/01/31 20:07:45.4	4.350	0.380	-0.470	0.180
2020/01/31 20:07:45.5	4.370	0.430	-0.520	0.210
2020/01/31 20:07:45.6	4.400	0.470	-0.580	0.230
2020/01/31 20:07:45.7	4.430	0.520	-0.640	0.250
2020/01/31 20:07:45.8	4.460	0.570	-0.700	0.260
2020/01/31 20:07:45.9	4.510	0.610	-0.760	0.280
2020/01/31 20:07:46.0	4.540	0.650	-0.810	0.290
2020/01/31 20:07:46.1	4.580	0.690	-0.870	0.290
2020/01/31 20:07:46.2	4.620	0.730	-0.920	0.300
2020/01/31 20:07:46.3	4.650	0.760	-0.960	0.300
2020/01/31 20:07:46.4	4.690	0.790	-1.010	0.300
2020/01/31 20:07:46.5	4.730	0.820	-1.050	0.300
2020/01/31 20:07:46.6	4.770	0.840	-1.080	0.300
2020/01/31 20:07:46.7	4.810	0.860	-1.110	0.300
2020/01/31 20:07:46.8	4.850	0.880	-1.130	0.300
2020/01/31 20:07:46.9	4.870	0.890	-1.150	0.300
2020/01/31 20:07:47.0	4.900	0.900	-1.150	0.300
2020/01/31 20:07:47.1	4.940	0.900	-1.150	0.300
2020/01/31 20:07:47.2	4.970	0.900	-1.150	0.300
2020/01/31 20:07:47.3	5.000	0.900	-1.130	0.300
2020/01/31 20:07:47.4	5.030	0.890	-1.110	0.300
2020/01/31 20:07:47.5	5.050	0.870	-1.080	0.300
2020/01/31 20:07:47.6	5.070	0.860	-1.040	0.310
2020/01/31 20:07:47.7	5.090	0.840	-1.000	0.310
2020/01/31 20:07:47.8	5.110	0.810	-0.950	0.310
2020/01/31 20:07:47.9	5.120	0.780	-0.900	0.320
2020/01/31 20:07:48.0	5.130	0.750	-0.840	0.330
2020/01/31 20:07:48.1	5.140	0.710	-0.780	0.330
2020/01/31 20:07:48.2	5.140	0.670	-0.710	0.340
2020/01/31 20:07:48.3	5.140	0.630	-0.640	0.350
2020/01/31 20:07:48.4	5.140	0.580	-0.570	0.350
2020/01/31 20:07:48.5	5.130	0.530	-0.500	0.360
2020/01/31 20:07:48.6	5.130	0.480	-0.420	0.360
2020/01/31 20:07:48.7	5.120	0.430	-0.350	0.370
2020/01/31 20:07:48.8	5.100	0.370	-0.270	0.370
2020/01/31 20:07:48.9	5.100	0.310	-0.200	0.370
2020/01/31 20:07:49.0	5.080	0.250	-0.130	0.360
2020/01/31 20:07:49.1	5.060	0.190	-0.060	0.350
2020/01/31 20:07:49.2	5.040	0.130	0.010	0.340
2020/01/31 20:07:49.3	5.030	0.070	0.070	0.330
2020/01/31 20:07:49.4	5.010	0.010	0.130	0.310
2020/01/31 20:07:49.5	4.990	-0.050	0.190	0.290
2020/01/31 20:07:49.6	4.970	-0.110	0.240	0.270
2020/01/31 20:07:49.7	4.950	-0.160	0.290	0.240
2020/01/31 20:07:49.8	4.930	-0.220	0.330	0.210
2020/01/31 20:07:49.9	4.910	-0.270	0.370	0.180
2020/01/31 20:07:50.0	4.890	-0.330	0.400	0.140
2020/01/31 20:07:50.1	4.870	-0.380	0.420	0.100
2020/01/31 20:07:50.2	4.850	-0.420	0.450	0.060
2020/01/31 20:07:50.3	4.830	-0.470	0.460	0.020
2020/01/31 20:07:50.4	4.810	-0.500	0.470	-0.020
2020/01/31 20:07:50.5	4.790	-0.540	0.480	-0.070
2020/01/31 20:07:50.6	4.780	-0.570	0.480	-0.110
2020/01/31 20:07:50.7	4.760	-0.600	0.470	-0.160
2020/01/31 20:07:50.8	4.740	-0.620	0.460	-0.200
2020/01/31 20:07:50.9	4.720	-0.640	0.440	-0.250
2020/01/31 20:07:51.0	4.710	-0.660	0.420	-0.290
2020/01/31 20:07:51.1	4.690	-0.670	0.400	-0.330
2020/01/31 20:07:51.2	4.680	-0.680	0.370	-0.370
2020/01/31 20:07:51.3	4.670	-0.680	0.340	-0.400
2020/01/31 20:07:51.4	4.650	-0.680	0.310	-0.440
2020/01/31 20:07:51.5	4.640	-0.680	0.270	-0.470
2020/01/31 20:07:51.6	4.630	-0.670	0.230	-0.510
2020/01/31 20:07:51.7	4.620	-0.660	0.190	-0.540
2020/01/31 20:07:51.8	4.610	-0.640	0.150	-0.560
2020/01/31 20:07:51.9	4.610	-0.620	0.110	-0.590
2020/01/31 20:07:52.0	4.610	-0.600	0.060	-0.620
2020/01/31 20:07:52.1	4.600	-0.580	0.020	-0.640
2020/01/31 20:07:52.2	4.600	-0.550	-0.030	-0.670
2020/01/31 20:07:52.3	4.600	-0.520	-0.080	-0.690
2020/01/31 20:07:52.4	4.610	-0.490	-0.130	-0.710
2020/01/31 20:07:52.5	4.610	-0.450	-0.180	-0.730
2020/01/31 20:07:52.6	4.620	-0.420	-0.220	-0.750
2020/01/31 20:07:52.7	4.630	-0.380	-0.270	-0.770
2020/01/31 20:07:52.8	4.640	-0.350	-0.320	-0.790
2020/01/31 20:07:52.9	4.660	-0.310	-0.370	-0.810
2020/01/31 20:07:53.0	4.680	-0.270	-0.410	-0.820
2020/01/31 20:07:53.1	4.700	-0.230	-0.450	-0.840
2020/01/31 20:07:53.2	4.730	-0.200	-0.490	-0.850
2020/01/31 20:07:53.3	4.750	-0.160	-0.530	-0.860
2020/01/31 20:07:53.4	4.780	-0.130	-0.560	-0.870
2020/01/31 20:07:53.5	4.810	-0.090	-0.590	-0.880
2020/01/31 20:07:53.6	4.840	-0.060	-0.610	-0.880
2020/01/31 20:07:53.7	4.870	-0.030	-0.630	-0.880
2020/01/31 20:07:53.8	4.900	-0.000	-0.640	-0.880
2020/01/31 20:07:53.9	4.930	0.020	-0.650	-0.870
2020/01/31 20:07:54.0	4.950	0.040	-0.650	-0.860
2020/01/31 20:07:54.1	4.980	0.060	-0.650	-0.840
2020/01/31 20:07:54.2	5.000	0.080	-0.630	-0.820
2020/01/31 20:07:54.3	5.020	0.090	-0.620	-0.800
2020/01/31 20:07:54.4	5.040	0.100	-0.590	-0.770
2020/01/31 20:07:54.5	5.060	0.100	-0.560	-0.740
2020/01/31 20:07:54.6	5.070	0.110	-0.530	-0.700
2020/01/31 20:07:54.7	5.080	0.110	-0.490	-0.660
2020/01/31 20:07:54.8	5.090	0.100	-0.440	-0.610
2020/01/31 20:07:54.9	5.080	0.100	-0.400	-0.560
2020/01/31 20:07:55.0	5.080	0.090	-0.340	-0.500
2020/01/31 20:07:55.1	5.070	0.080	-0.290	-0.450
2020/01/31 20:07:55.2	5.060	0.070	-0.230	-0.380
2020/01/31 20:07:55.3	5.050	0.060	-0.170	-0.320
2020/01/31 20:07:55.4	5.040	0.040	-0.110	-0.260
2020/01/31 20:07:55.5	5.020	0.030	-0.050	-0.190
2020/01/31 20:07:55.6	5.000	0.020	0.010	-0.120
2020/01/31 20:07:55.7	4.990	0.000	0.060	-0.050
2020/01/31 20:07:55.8	4.970	-0.010	0.110	0.010
2020/01/31 20:07:55.9	4.950	-0.020	0.160	0.080
2020/01/31 20:07:56.0	4.920	-0.030	0.200	0.140
2020/01/31 20:07:56.1	4.900	-0.040	0.240	0.200
2020/01/31 20:07:56.2	4.880	-0.050	0.270	0.260
2020/01/31 20:07:56.3	4.860	-0.050	0.290	0.320
2020/01/31 20:07:56.4	4.850	-0.050	0.310	0.370
2020/01/31 20:07:56.5	4.830	-0.050	0.320	0.410
2020/01/31 20:07:56.6	4.810	-0.040	0.320	0.460
2020/01/31 20:07:56.7	4.800	-0.030	0.310	0.500
2020/01/31 20:07:56.8	4.780	-0.020	0.300	0.530
2020/01/31 20:07:56.9	4.760	-0.000	0.280	0.560
2020/01/31 20:07:57.0	4.750	0.020	0.250	0.590
2020/01/31 20:07:57.1	4.740	0.040	0.220	0.610
2020/01/31 20:07:57.2	4.730	0.070	0.170	0.630
2020/01/31 20:07:57.3	4.720	0.100	0.130	0.650
2020/01/31 20:07:57.4	4.710	0.130	0.070	0.660
2020/01/31 20:07:57.5	4.700	0.170	0.010	0.670
2020/01/31 20:07:57.6	4.700	0.210	-0.050	0.670
2020/01/31 20:07:57.7	4.690	0.240	-0.110	0.670
2020/01/31 20:07:57.8	4.680	0.280	-0.180	0.660
2020/01/31 20:07:57.9	4.680	0.320	-0.250	0.660
2020/01/31 20:07:58.0	4.670	0.360	-0.320	0.640
2020/01/31 20:07:58.1	4.670	0.400	-0.390	0.630
2020/01/31 20:07:58.2	4.660	0.430	-0.460	0.610
2020/01/31 20:07:58.3	4.660	0.470	-0.530	0.590
2020/01/31 20:07:58.4	4.650	0.500	-0.590	0.570
2020/01/31 20:07:58.5	4.650	0.530	-0.660	0.540
2020/01/31 20:07:58.6	4.640	0.560	-0.710	0.510
2020/01/31 20:07:58.7	4.630	0.580	-0.770	0.480
2020/01/31 20:07:58.8	4.630	0.600	-0.820	0.450
2020/01/31 20:07:58.9	4.620	0.610	-0.870	0.410
2020/01/31 20:07:59.0	4.610	0.620	-0.910	0.370
2020/01/31 20:07:59.1	4.610	0.630	-0.940	0.330
2020/01/31 20:07:59.2	4.610	0.630	-0.970	0.290
2020/01/31 20:07:59.3	4.610	0.630	-0.990	0.240
2020/01/31 20:07:59.4	4.610	0.620	-1.010	0.200
2020/01/31 20:07:59.5	4.610	0.610	-1.020	0.150
2020/01/31 20:07:59.6	4.610	0.590	-1.020	0.100
2020/01/31 20:07:59.7	4.620	0.560	-1.020	0.050
2020/01/31 20:07:59.8	4.630	0.540	-1.010	0.000
2020/01/31 20:07:59.9	4.630	0.510	-0.990	-0.050
2020/01/31 20:08:00.0	4.640	0.470	-0.980	-0.100
2020/01/31 20:08:00.1	4.660	0.430	-0.950	-0.150
2020/01/31 20:08:00.2	4.680	0.390	-0.920	-0.200
2020/01/31 20:08:00.3	4.690	0.350	-0.890	-0.250
2020/01/31 20:08:00.4	4.710	0.300	-0.860	-0.310
2020/01/31 20:08:00.5	4.740	0.250	-0.820	-0.360
2020/01/31 20:08:00.6	4.760	0.200	-0.780	-0.410
2020/01/31 20:08:00.7	4.790	0.150	-0.740	-0.460
2020/01/31 20:08:00.8	4.810	0.100	-0.690	-0.510
2020/01/31 20:08:00.9	4.830	0.040	-0.650	-0.570
2020/01/31 20:08:01.0	4.850	-0.010	-0.600	-0.610
2020/01/31 20:08:01.1	4.880	-0.070	-0.550	-0.660
2020/01/31 20:08:01.2	4.900	-0.120	-0.500	-0.710
2020/01/31 20:08:01.3	4.930	-0.180	-0.450	-0.750
2020/01/31 20:08:01.4	4.950	-0.230	-0.400	-0.800
2020/01/31 20:08:01.5	4.980	-0.280	-0.360	-0.840
2020/01/31 20:08:01.6	5.000	-0.330	-0.310	-0.880
2020/01/31 20:08:01.7	5.020	-0.380	-0.260	-0.920
2020/01/31 20:08:01.8	5.040	-0.420	-0.210	-0.960
2020/01/31 20:08:01.9	5.040	-0.460	-0.170	-0.990
2020/01/31 20:08:02.0	5.060	-0.500	-0.120	-1.030
2020/01/31 20:08:02.1	5.080	-0.540	-0.080	-1.060
2020/01/31 20:08:02.2	5.100	-0.570	-0.030	-1.080
2020/01/31 20:08:02.3	5.110	-0.590	0.010	-1.110
2020/01/31 20:08:02.4	5.130	-0.620	0.050	-1.130
2020/01/31 20:08:02.5	5.140	-0.640	0.080	-1.140
2020/01/31 20:08:02.6	5.160	-0.650	0.120	-1.160
2020/01/31 20:08:02.7	5.170	-0.660	0.160	-1.160
2020/01/31 20:08:02.8	5.180	-0.670	0.190	-1.170
2020/01/31 20:08:02.9	5.200	-0.670	0.220	-1.160
2020/01/31 20:08:03.0	5.200	-0.660	0.250	-1.160
2020/01/31 20:08:03.1	5.210	-0.660	0.270	-1.140
2020/01/31 20:08:03.2	5.210	-0.640	0.290	-1.120
2020/01/31 20:08:03.3	5.220	-0.630	0.310	-1.100
2020/01/31 20:08:03.4	5.220	-0.610	0.330	-1.070
2020/01/31 20:08:03.5	5.220	-0.580	0.340	-1.040
2020/01/31 20:08:03.6	5.220	-0.550	0.350	-1.010
2020/01/31 20:08:03.7	5.220	-0.520	0.350	-0.970
2020/01/31 20:08:03.8	5.210	-0.490	0.360	-0.930
2020/01/31 20:08:03.9	5.210	-0.450	0.350	-0.880
2020/01/31 20:08:04.0	5.200	-0.410	0.350	-0.830
2020/01/31 20:08:04.1	5.190	-0.360	0.340	-0.780
2020/01/31 20:08:04.2	5.180	-0.320	0.330	-0.720
2020/01/31 20:08:04.3	5.170	-0.270	0.310	-0.670
2020/01/31 20:08:04.4	5.160	-0.220	0.300	-0.610
2020/01/31 20:08:04.5	5.150	-0.170	0.280	-0.550
2020/01/31 20:08:04.6	5.140	-0.120	0.250	-0.490
2020/01/31 20:08:04.7	5.130	-0.070	0.230	-0.430
2020/01/31 20:08:04.8	5.110	-0.020	0.200	-0.370
2020/01/31 20:08:04.9	5.090	0.040	0.180	-0.300
2020/01/31 20:08:05.0	5.070	0.090	0.150	-0.240
2020/01/31 20:08:05.1	5.060	0.140	0.120	-0.180
2020/01/31 20:08:05.2	5.040	0.180	0.090	-0.110
2020/01/31 20:08:05.3	5.020	0.230	0.060	-0.050
2020/01/31 20:08:05.4	5.000	0.280	0.020	0.010
2020/01/31 20:08:05.5	4.980	0.320	-0.010	0.070
2020/01/31 20:08:05.6	4.960	0.360	-0.040	0.130
2020/01/31 20:08:05.7	4.940	0.400	-0.060	0.190
2020/01/31 20:08:05.8	4.920	0.440	-0.090	0.240
2020/01/31 20:08:05.9	4.910	0.470	-0.120	0.300
2020/01/31 20:08:06.0	4.890	0.510	-0.140	0.350
2020/01/31 20:08:06.1	4.870	0.530	-0.170	0.400
2020/01/31 20:08:06.2	4.850	0.560	-0.190	0.450
2020/01/31 20:08:06.3	4.830	0.580	-0.210	0.490
2020/01/31 20:08:06.4	4.800	0.600	-0.230	0.520
2020/01/31 20:08:06.5	4.780	0.610	-0.250	0.560
2020/01/31 20:08:06.6	4.760	0.620	-0.270	0.590
2020/01/31 20:08:06.7	4.740	0.630	-0.280	0.610
2020/01/31 20:08:06.8	4.720	0.630	-0.290	0.630
2020/01/31 20:08:06.9	4.710	0.630	-0.300	0.650
2020/01/31 20:08:07.0	4.690	0.630	-0.310	0.660
2020/01/31 20:08:07.1	4.670	0.620	-0.320	0.660
2020/01/31 20:08:07.2	4.650	0.610	-0.330	0.660
2020/01/31 20:08:07.3	4.640	0.590	-0.330	0.660
2020/01/31 20:08:07.4	4.620	0.570	-0.340	0.650
2020/01/31 20:08:07.5	4.610	0.550	-0.340	0.640
2020/01/31 20:08:07.6	4.600	0.530	-0.350	0.620
2020/01/31 20:08:07.7	4.590	0.500	-0.350	0.600
2020/01/31 20:08:07.8	4.580	0.460	-0.350	0.570
2020/01/31 20:08:07.9	4.580	0.430	-0.350	0.540
2020/01/31 20:08:08.0	4.570	0.390	-0.360	0.500
2020/01/31 20:08:08.1	4.570	0.350	-0.360	0.460
2020/01/31 20:08:08.2	4.570	0.300	-0.370	0.410
2020/01/31 20:08:08.3	4.570	0.250	-0.370	0.360
2020/01/31 20:08:08.4	4.570	0.200	-0.380	0.300
2020/01/31 20:08:08.5	4.570	0.150	-0.390	0.240
2020/01/31 20:08:08.6	4.580	0.100	-0.390	0.180
2020/01/31 20:08:08.7	4.590	0.040	-0.400	0.120
2020/01/31 20:08:08.8	4.600	-0.010	-0.410	0.050
2020/01/31 20:08:08.9	4.620	-0.070	-0.430	-0.030
2020/01/31 20:08:09.0	4.640	-0.120	-0.440	-0.100
2020/01/31 20:08:09.1	4.660	-0.180	-0.460	-0.180
2020/01/31 20:08:09.2	4.670	-0.240	-0.470	-0.260
2020/01/31 20:08:09.3	4.700	-0.290	-0.490	-0.340
2020/01/31 20:08:09.4	4.720	-0.350	-0.500	-0.410
2020/01/31 20:08:09.5	4.740	-0.400	-0.520	-0.490
2020/01/31 20:08:09.6	4.770	-0.450	-0.540	-0.570
2020/01/31 20:08:09.7	4.800	-0.500	-0.560	-0.650
2020/01/31 20:08:09.8	4.830	-0.540	-0.580	-0.720
2020/01/31 20:08:09.9	4.850	-0.590	-0.600	-0.800
2020/01/31 20:08:10.0	4.880	-0.630	-0.610	-0.870
2020/01/31 20:08:10.1	4.910	-0.660	-0.630	-0.940
2020/01/31 20:08:10.2	4.940	-0.690	-0.650	-1.000
2020/01/31 20:08:10.3	4.970	-0.720	-0.670	-1.060
2020/01/31 20:08:10.4	5.000	-0.740	-0.680	-1.120
2020/01/31 20:08:10.5	5.030	-0.760	-0.700	-1.170
2020/01/31 20:08:10.6	5.060	-0.780	-0.710	-1.220
2020/01/31 20:08:10.7	5.090	-0.780	-0.720	-1.260
2020/01/31 20:08:10.8	5.120	-0.790	-0.730	-1.290
2020/01/31 20:08:10.9	5.130	-0.790	-0.730	-1.320
2020/01/31 20:08:11.0	5.150	-0.780	-0.730	-1.340
2020/01/31 20:08:11.1	5.170	-0.770	-0.730	-1.350
2020/01/31 20:08:11.2	5.190	-0.750	-0.720	-1.360
2020/01/31 20:08:11.3	5.200	-0.730	-0.720	-1.350
2020/01/31 20:08:11.4	5.210	-0.700	-0.700	-1.340
2020/01/31 20:08:11.5	5.220	-0.670	-0.690	-1.320
2020/01/31 20:08:11.6	5.230	-0.630	-0.670	-1.290
2020/01/31 20:08:11.7	5.240	-0.590	-0.650	-1.260
2020/01/31 20:08:11.8	5.240	-0.550	-0.620	-1.220
2020/01/31 20:08:11.9	5.230	-0.500	-0.590	-1.170
2020/01/31 20:08:12.0	5.230	-0.450	-0.560	-1.120
2020/01/31 20:08:12.1	5.230	-0.400	-0.530	-1.070
2020/01/31 20:08:12.2	5.230	-0.340	-0.490	-1.010
2020/01/31 20:08:12.3	5.230	-0.280	-0.450	-0.940
2020/01/31 20:08:12.4	5.220	-0.220	-0.410	-0.870
2020/01/31 20:08:12.5	5.220	-0.150	-0.370	-0.800
2020/01/31 20:08:12.6	5.210	-0.090	-0.330	-0.720
2020/01/31 20:08:12.7	5.210	-0.020	-0.290	-0.650
2020/01/31 20:08:12.8	5.200	0.040	-0.250	-0.560
2020/01/31 20:08:12.9	5.200	0.110	-0.210	-0.480
2020/01/31 20:08:13.0	5.190	0.170	-0.170	-0.400
2020/01/31 20:08:13.1	5.180	0.240	-0.120	-0.310
2020/01/31 20:08:13.2	5.170	0.300	-0.080	-0.230
2020/01/31 20:08:13.3	5.160	0.360	-0.050	-0.140
2020/01/31 20:08:13.4	5.160	0.420	-0.010	-0.060
2020/01/31 20:08:13.5	5.140	0.480	0.030	0.030
2020/01/31 20:08:13.6	5.130	0.530	0.060	0.110
2020/01/31 20:08:13.7	5.120	0.580	0.090	0.190
2020/01/31 20:08:13.8	5.110	0.630	0.110	0.270
2020/01/31 20:08:13.9	5.110	0.670	0.140	0.350
2020/01/31 20:08:14.0	5.100	0.710	0.160	0.420
2020/01/31 20:08:14.1	5.090	0.740	0.180	0.490
2020/01/31 20:08:14.2	5.090	0.770	0.200	0.560
2020/01/31 20:08:14.3	5.080	0.790	0.210	0.620
2020/01/31 20:08:14.4	5.070	0.810	0.220	0.680
2020/01/31 20:08:14.5	5.060	0.820	0.220	0.730
2020/01/31 20:08:14.6	5.060	0.820	0.230	0.780
2020/01/31 20:08:14.7	5.060	0.820	0.220	0.820
2020/01/31 20:08:14.8	5.050	0.820	0.220	0.850
2020/01/31 20:08:14.9	5.050	0.810	0.210	0.890
2020/01/31 20:08:15.0	5.050	0.790	0.200	0.910
2020/01/31 20:08:15.1	5.060	0.770	0.180	0.930
2020/01/31 20:08:15.2	5.060	0.750	0.160	0.930
2020/01/31 20:08:15.3	5.070	0.720	0.140	0.930
2020/01/31 20:08:15.4	5.080	0.680	0.110	0.920
2020/01/31 20:08:15.5	5.100	0.640	0.090	0.910
2020/01/31 20:08:15.6	5.110	0.600	0.050	0.890
2020/01/31 20:08:15.7	5.130	0.560	0.020	0.860
2020/01/31 20:08:15.8	5.150	0.510	-0.020	0.820
2020/01/31 20:08:15.9	5.170	0.460	-0.050	0.780
2020/01/31 20:08:16.0	5.200	0.400	-0.090	0.730
2020/01/31 20:08:16.1	5.220	0.350	-0.130	0.670
2020/01/31 20:08:16.2	5.250	0.290	-0.170	0.610
2020/01/31 20:08:16.3	5.280	0.230	-0.210	0.540
2020/01/31 20:08:16.4	5.310	0.170	-0.250	0.470
2020/01/31 20:08:16.5	5.340	0.110	-0.300	0.390
2020/01/31 20:08:16.6	5.370	0.060	-0.340	0.310
2020/01/31 20:08:16.7	5.410	-0.000	-0.380	0.230
2020/01/31 20:08:16.8	5.440	-0.060	-0.410	0.150
2020/01/31 20:08:16.9	5.460	-0.110	-0.450	0.060
2020/01/31 20:08:17.0	5.490	-0.160	-0.480	-0.030
2020/01/31 20:08:17.1	5.530	-0.210	-0.510	-0.110
2020/01/31 20:08:17.2	5.560	-0.260	-0.540	-0.200
2020/01/31 20:08:17.3	5.590	-0.310	-0.570	-0.280
2020/01/31 20:08:17.4	5.620	-0.350	-0.590	-0.360
2020/01/31 20:08:17.5	5.650	-0.390	-0.610	-0.430
2020/01/31 20:08:17.6	5.670	-0.420	-0.620	-0.500
2020/01/31 20:08:17.7	5.690	-0.460	-0.630	-0.570
2020/01/31 20:08:17.8	5.710	-0.480	-0.630	-0.630
2020/01/31 20:08:17.9	5.720	-0.510	-0.630	-0.690
2020/01/31 20:08:18.0	5.730	-0.530	-0.630	-0.740
2020/01/31 20:08:18.1	5.730	-0.550	-0.620	-0.790
2020/01/31 20:08:18.2	5.730	-0.560	-0.600	-0.830
2020/01/31 20:08:18.3	5.730	-0.570	-0.580	-0.860
2020/01/31 20:08:18.4	5.720	-0.580	-0.560	-0.880
2020/01/31 20:08:18.5	5.710	-0.580	-0.530	-0.900
2020/01/31 20:08:18.6	5.700	-0.580	-0.490	-0.920
2020/01/31 20:08:18.7	5.670	-0.580	-0.450	-0.920
2020/01/31 20:08:18.8	5.650	-0.570	-0.410	-0.920
2020/01/31 20:08:18.9	5.620	-0.560	-0.360	-0.910
2020/01/31 20:08:19.0	5.580	-0.550	-0.310	-0.900
2020/01/31 20:08:19.1	5.550	-0.530	-0.260	-0.880
2020/01/31 20:08:19.2	5.510	-0.510	-0.200	-0.860
2020/01/31 20:08:19.3	5.470	-0.500	-0.140	-0.830
2020/01/31 20:08:19.4	5.420	-0.470	-0.080	-0.790
2020/01/31 20:08:19.5	5.380	-0.450	-0.020	-0.760
2020/01/31 20:08:19.6	5.330	-0.420	0.040	-0.710
2020/01/31 20:08:19.7	5.280	-0.400	0.100	-0.670
2020/01/31 20:08:19.8	5.230	-0.370	0.160	-0.620
2020/01/31 20:08:19.9	5.190	-0.340	0.210	-0.560
2020/01/31 20:08:20.0	5.140	-0.310	0.260	-0.510
2020/01/31 20:08:20.1	5.090	-0.280	0.310	-0.450
2020/01/31 20:08:20.2	5.040	-0.250	0.360	-0.400
2020/01/31 20:08:20.3	5.000	-0.210	0.390	-0.340
2020/01/31 20:08:20.4	4.960	-0.180	0.430	-0.280
2020/01/31 20:08:20.5	4.920	-0.140	0.450	-0.220
2020/01/31 20:08:20.6	4.880	-0.110	0.470	-0.170
2020/01/31 20:08:20.7	4.850	-0.070	0.480	-0.110
2020/01/31 20:08:20.8	4.810	-0.040	0.490	-0.060
2020/01/31 20:08:20.9	4.800	-0.000	0.480	-0.010
2020/01/31 20:08:21.0	4.770	0.030	0.470	0.040
2020/01/31 20:08:21.1	4.750	0.070	0.440	0.080
2020/01/31 20:08:21.2	4.740	0.100	0.420	0.120
2020/01/31 20:08:21.3	4.730	0.140	0.380	0.160
2020/01/31 20:08:21.4	4.720	0.170	0.340	0.200
2020/01/31 20:08:21.5	4.710	0.210	0.290	0.220
2020/01/31 20:08:21.6	4.710	0.240	0.230	0.250
2020/01/31 20:08:21.7	4.710	0.270	0.170	0.270
2020/01/31 20:08:21.8	4.720	0.300	0.100	0.290
2020/01/31 20:08:21.9	4.730	0.330	0.030	0.300
2020/01/31 20:08:22.0	4.740	0.360	-0.050	0.310
2020/01/31 20:08:22.1	4.750	0.390	-0.120	0.310
2020/01/31 20:08:22.2	4.760	0.420	-0.200	0.310
2020/01/31 20:08:22.3	4.770	0.440	-0.280	0.310
2020/01/31 20:08:22.4	4.790	0.460	-0.360	0.300
2020/01/31 20:08:22.5	4.810	0.480	-0.440	0.290
2020/01/31 20:08:22.6	4.830	0.500	-0.510	0.280
2020/01/31 20:08:22.7	4.850	0.520	-0.590	0.260
2020/01/31 20:08:22.8	4.870	0.530	-0.660	0.250
2020/01/31 20:08:22.9	4.880	0.540	-0.720	0.230
2020/01/31 20:08:23.0	4.910	0.550	-0.790	0.210
2020/01/31 20:08:23.1	4.930	0.550	-0.850	0.190
2020/01/31 20:08:23.2	4.960	0.560	-0.900	0.160
2020/01/31 20:08:23.3	4.980	0.560	-0.950	0.140
2020/01/31 20:08:23.4	5.010	0.560	-0.990	0.120
2020/01/31 20:08:23.5	5.040	0.550	-1.030	0.100
2020/01/31 20:08:23.6	5.070	0.550	-1.070	0.080
2020/01/31 20:08:23.7	5.100	0.540	-1.090	0.050
2020/01/31 20:08:23.8	5.130	0.520	-1.120	0.030
2020/01/31 20:08:23.9	5.170	0.510	-1.130	0.010
2020/01/31 20:08:24.0	5.200	0.490	-1.140	-0.020
2020/01/31 20:08:24.1	5.230	0.470	-1.150	-0.040
2020/01/31 20:08:24.2	5.270	0.450	-1.150	-0.070
2020/01/31 20:08:24.3	5.300	0.420	-1.150	-0.090
2020/01/31 20:08:24.4	5.340	0.390	-1.140	-0.120
2020/01/31 20:08:24.5	5.370	0.360	-1.130	-0.150
2020/01/31 20:08:24.6	5.410	0.330	-1.110	-0.180
2020/01/31 20:08:24.7	5.440	0.290	-1.090	-0.210
2020/01/31 20:08:24.8	5.470	0.260	-1.070	-0.230
2020/01/31 20:08:24.9	5.500	0.220	-1.040	-0.270
2020/01/31 20:08:25.0	5.530	0.180	-1.010	-0.290
2020/01/31 20:08:25.1	5.560	0.130	-0.980	-0.320
2020/01/31 20:08:25.2	5.590	0.090	-0.940	-0.350
2020/01/31 20:08:25.3	5.610	0.050	-0.900	-0.380
2020/01/31 20:08:25.4	5.640	0.000	-0.860	-0.410
2020/01/31 20:08:25.5	5.660	-0.040	-0.820	-0.440
2020/01/31 20:08:25.6	5.680	-0.090	-0.770	-0.460
2020/01/31 20:08:25.7	5.700	-0.130	-0.720	-0.490
2020/01/31 20:08:25.8	5.720	-0.180	-0.680	-0.510
2020/01/31 20:08:25.9	5.730	-0.220	-0.630	-0.540
2020/01/31 20:08:26.0	5.740	-0.270	-0.570	-0.560
2020/01/31 20:08:26.1	5.750	-0.310	-0.520	-0.580
2020/01/31 20:08:26.2	5.760	-0.350	-0.470	-0.600
2020/01/31 20:08:26.3	5.760	-0.390	-0.420	-0.620
2020/01/31 20:08:26.4	5.760	-0.430	-0.360	-0.630
2020/01/31 20:08:26.5	5.760	-0.470	-0.300	-0.640
2020/01/31 20:08:26.6	5.750	-0.500	-0.250	-0.650
2020/01/31 20:08:26.7	5.740	-0.540	-0.190	-0.660
2020/01/31 20:08:26.8	5.730	-0.570	-0.130	-0.660
2020/01/31 20:08:26.9	5.710	-0.600	-0.080	-0.670
2020/01/31 20:08:27.0	5.690	-0.620	-0.020	-0.660
2020/01/31 20:08:27.1	5.670	-0.640	0.050	-0.650
2020/01/31 20:08:27.2	5.640	-0.670	0.110	-0.640
2020/01/31 20:08:27.3	5.610	-0.680	0.170	-0.620
2020/01/31 20:08:27.4	5.580	-0.700	0.240	-0.600
2020/01/31 20:08:27.5	5.540	-0.710	0.300	-0.580
2020/01/31 20:08:27.6	5.500	-0.710	0.370	-0.550
2020/01/31 20:08:27.7	5.460	-0.720	0.430	-0.510
2020/01/31 20:08:27.8	5.410	-0.720	0.500	-0.470
2020/01/31 20:08:27.9	5.360	-0.720	0.560	-0.430
2020/01/31 20:08:28.0	5.320	-0.710	0.620	-0.390
2020/01/31 20:08:28.1	5.270	-0.700	0.680	-0.340
2020/01/31 20:08:28.2	5.220	-0.690	0.740	-0.290
2020/01/31 20:08:28.3	5.170	-0.670	0.790	-0.240
2020/01/31 20:08:28.4	5.120	-0.650	0.840	-0.180
2020/01/31 20:08:28.5	5.070	-0.630	0.890	-0.130
2020/01/31 20:08:28.6	5.020	-0.600	0.930	-0.070
2020/01/31 20:08:28.7	4.970	-0.570	0.970	-0.020
2020/01/31 20:08:28.8	4.920	-0.540	1.000	0.040
2020/01/31 20:08:28.9	4.890	-0.500	1.010	0.090
2020/01/31 20:08:29.0	4.840	-0.470	1.030	0.140
2020/01/31 20:08:29.1	4.800	-0.420	1.040	0.200
2020/01/31 20:08:29.2	4.760	-0.380	1.040	0.240
2020/01/31 20:08:29.3	4.720	-0.330	1.030	0.290
2020/01/31 20:08:29.4	4.690	-0.290	1.010	0.330
2020/01/31 20:08:29.5	4.650	-0.240	0.980	0.380
2020/01/31 20:08:29.6	4.620	-0.180	0.950	0.420
2020/01/31 20:08:29.7	4.590	-0.130	0.900	0.450
2020/01/31 20:08:29.8	4.560	-0.080	0.850	0.490
2020/01/31 20:08:29.9	4.520	-0.020	0.790	0.530
2020/01/31 20:08:30.0	4.490	0.030	0.720	0.560
2020/01/31 20:08:30.1	4.470	0.090	0.640	0.580
2020/01/31 20:08:30.2	4.450	0.150	0.560	0.610
2020/01/31 20:08:30.3	4.430	0.200	0.470	0.630
2020/01/31 20:08:30.4	4.410	0.260	0.380	0.650
2020/01/31 20:08:30.5	4.390	0.310	0.280	0.660
2020/01/31 20:08:30.6	4.380	0.360	0.170	0.670
2020/01/31 20:08:30.7	4.360	0.410	0.070	0.680
2020/01/31 20:08:30.8	4.350	0.460	-0.040	0.680
2020/01/31 20:08:30.9	4.350	0.510	-0.150	0.680
2020/01/31 20:08:31.0	4.350	0.550	-0.260	0.680
2020/01/31 20:08:31.1	4.340	0.590	-0.370	0.670
2020/01/31 20:08:31.2	4.340	0.630	-0.480	0.660
2020/01/31 20:08:31.3	4.340	0.660	-0.590	0.640
2020/01/31 20:08:31.4	4.350	0.690	-0.700	0.620
2020/01/31 20:08:31.5	4.350	0.720	-0.800	0.600
2020/01/31 20:08:31.6	4.360	0.740	-0.900	0.570
2020/01/31 20:08:31.7	4.370	0.760	-0.990	0.540
2020/01/31 20:08:31.8	4.380	0.770	-1.080	0.510
2020/01/31 20:08:31.9	4.390	0.780	-1.160	0.480
2020/01/31 20:08:32.0	4.400	0.780	-1.230	0.440
2020/01/31 20:08:32.1	4.420	0.780	-1.300	0.400
2020/01/31 20:08:32.2	4.440	0.770	-1.360	0.360
2020/01/31 20:08:32.3	4.450	0.760	-1.420	0.310
2020/01/31 20:08:32.4	4.480	0.750	-1.460	0.260
2020/01/31 20:08:32.5	4.500	0.730	-1.500	0.200
2020/01/31 20:08:32.6	4.520	0.700	-1.530	0.140
2020/01/31 20:08:32.7	4.550	0.670	-1.550	0.090
2020/01/31 20:08:32.8	4.570	0.640	-1.570	0.020
2020/01/31 20:08:32.9	4.610	0.600	-1.570	-0.040
2020/01/31 20:08:33.0	4.640	0.560	-1.570	-0.110
2020/01/31 20:08:33.1	4.680	0.520	-1.560	-0.180
2020/01/31 20:08:33.2	4.710	0.480	-1.540	-0.240
2020/01/31 20:08:33.3	4.740	0.430	-1.520	-0.310
2020/01/31 20:08:33.4	4.780	0.380	-1.490	-0.370
2020/01/31 20:08:33.5	4.820	0.330	-1.450	-0.440
2020/01/31 20:08:33.6	4.850	0.280	-1.400	-0.510
2020/01/31 20:08:33.7	4.890	0.220	-1.350	-0.570
2020/01/31 20:08:33.8	4.930	0.170	-1.300	-0.630
2020/01/31 20:08:33.9	4.980	0.120	-1.240	-0.690
2020/01/31 20:08:34.0	5.020	0.070	-1.180	-0.750
2020/01/31 20:08:34.1	5.060	0.010	-1.110	-0.810
2020/01/31 20:08:34.2	5.100	-0.030	-1.040	-0.870
2020/01/31 20:08:34.3	5.140	-0.080	-0.970	-0.920
2020/01/31 20:08:34.4	5.180	-0.130	-0.900	-0.970
2020/01/31 20:08:34.5	5.220	-0.170	-0.820	-1.020
2020/01/31 20:08:34.6	5.250	-0.220	-0.750	-1.060
2020/01/31 20:08:34.7	5.290	-0.260	-0.670	-1.100
2020/01/31 20:08:34.8	5.330	-0.290	-0.590	-1.140
2020/01/31 20:08:34.9	5.350	-0.330	-0.520	-1.170
2020/01/31 20:08:35.0	5.390	-0.360	-0.440	-1.200
2020/01/31 20:08:35.1	5.420	-0.390	-0.370	-1.220
2020/01/31 20:08:35.2	5.450	-0.420	-0.300	-1.250
2020/01/31 20:08:35.3	5.480	-0.440	-0.230	-1.260
2020/01/31 20:08:35.4	5.510	-0.460	-0.160	-1.270
2020/01/31 20:08:35.5	5.530	-0.470	-0.100	-1.280
2020/01/31 20:08:35.6	5.560	-0.490	-0.040	-1.290
2020/01/31 20:08:35.7	5.580	-0.500	0.020	-1.290
2020/01/31 20:08:35.8	5.600	-0.500	0.080	-1.280
2020/01/31 20:08:35.9	5.620	-0.500	0.120	-1.280
2020/01/31 20:08:36.0	5.640	-0.500	0.170	-1.260
2020/01/31 20:08:36.1	5.650	-0.500	0.220	-1.250
2020/01/31 20:08:36.2	5.670	-0.500	0.260	-1.220
2020/01/31 20:08:36.3	5.670	-0.490	0.300	-1.190
2020/01/31 20:08:36.4	5.680	-0.480	0.330	-1.160
2020/01/31 20:08:36.5	5.670	-0.470	0.360	-1.120
2020/01/31 20:08:36.6	5.670	-0.450	0.390	-1.070
2020/01/31 20:08:36.7	5.660	-0.440	0.420	-1.020
2020/01/31 20:08:36.8	5.640	-0.420	0.450	-0.960
2020/01/31 20:08:36.9	5.620	-0.410	0.470	-0.890
2020/01/31 20:08:37.0	5.600	-0.390	0.490	-0.830
2020/01/31 20:08:37.1	5.570	-0.370	0.510	-0.760
2020/01/31 20:08:37.2	5.530	-0.350	0.530	-0.690
2020/01/31 20:08:37.3	5.500	-0.330	0.540	-0.610
2020/01/31 20:08:37.4	5.460	-0.310	0.550	-0.540
2020/01/31 20:08:37.5	5.420	-0.300	0.560	-0.470
2020/01/31 20:08:37.6	5.380	-0.280	0.570	-0.390
2020/01/31 20:08:37.7	5.330	-0.260	0.580	-0.320
2020/01/31 20:08:37.8	5.290	-0.240	0.580	-0.250
2020/01/31 20:08:37.9	5.240	-0.220	0.580	-0.180
2020/01/31 20:08:38.0	5.200	-0.200	0.580	-0.110
2020/01/31 20:08:38.1	5.150	-0.180	0.570	-0.050
2020/01/31 20:08:38.2	5.110	-0.160	0.560	0.010
2020/01/31 20:08:38.3	5.060	-0.140	0.550	0.070
2020/01/31 20:08:38.4	5.020	-0.120	0.540	0.120
2020/01/31 20:08:38.5	4.980	-0.100	0.520	0.170
2020/01/31 20:08:38.6	4.950	-0.080	0.500	0.210
2020/01/31 20:08:38.7	4.910	-0.060	0.470	0.250
2020/01/31 20:08:38.8	4.880	-0.040	0.440	0.290
2020/01/31 20:08:38.9	4.860	-0.010	0.410	0.320
2020/01/31 20:08:39.0	4.840	0.010	0.380	0.350
2020/01/31 20:08:39.1	4.820	0.030	0.340	0.370
2020/01/31 20:08:39.2	4.800	0.060	0.300	0.390
2020/01/31 20:08:39.3	4.780	0.090	0.260	0.410
2020/01/31 20:08:39.4	4.760	0.110	0.210	0.420
2020/01/31 20:08:39.5	4.750	0.140	0.170	0.430
2020/01/31 20:08:39.6	4.730	0.170	0.120	0.450
2020/01/31 20:08:39.7	4.720	0.200	0.080	0.460
2020/01/31 20:08:39.8	4.710	0.220	0.030	0.470
2020/01/31 20:08:39.9	4.700	0.250	-0.020	0.480
2020/01/31 20:08:40.0	4.680	0.280	-0.060	0.480
2020/01/31 20:08:40.1	4.670	0.310	-0.110	0.490
2020/01/31 20:08:40.2	4.660	0.330	-0.150	0.490
2020/01/31 20:08:40.3	4.640	0.350	-0.190	0.500
2020/01/31 20:08:40.4	4.630	0.380	-0.230	0.500
2020/01/31 20:08:40.5	4.610	0.400	-0.270	0.500
2020/01/31 20:08:40.6	4.600	0.420	-0.310	0.500
2020/01/31 20:08:40.7	4.580	0.430	-0.340	0.490
2020/01/31 20:08:40.8	4.570	0.450	-0.370	0.480
2020/01/31 20:08:40.9	4.560	0.460	-0.400	0.480
2020/01/31 20:08:41.0	4.540	0.470	-0.430	0.470
2020/01/31 20:08:41.1	4.530	0.480	-0.460	0.450
2020/01/31 20:08:41.2	4.520	0.480	-0.480	0.440
2020/01/31 20:08:41.3	4.500	0.480	-0.500	0.420
2020/01/31 20:08:41.4	4.490	0.480	-0.520	0.400
2020/01/31 20:08:41.5	4.480	0.480	-0.540	0.370
2020/01/31 20:08:41.6	4.480	0.470	-0.560	0.340
2020/01/31 20:08:41.7	4.470	0.460	-0.570	0.320
2020/01/31 20:08:41.8	4.460	0.450	-0.580	0.290
2020/01/31 20:08:41.9	4.460	0.440	-0.590	0.250
2020/01/31 20:08:42.0	4.460	0.420	-0.610	0.210
2020/01/31 20:08:42.1	4.460	0.400	-0.620	0.180
2020/01/31 20:08:42.2	4.460	0.380	-0.630	0.140
2020/01/31 20:08:42.3	4.470	0.360	-0.630	0.100
2020/01/31 20:08:42.4	4.480	0.330	-0.640	0.060
2020/01/31 20:08:42.5	4.480	0.300	-0.650	0.020
2020/01/31 20:08:42.6	4.500	0.270	-0.660	-0.020
2020/01/31 20:08:42.7	4.510	0.240	-0.670	-0.060
2020/01/31 20:08:42.8	4.530	0.210	-0.680	-0.100
2020/01/31 20:08:42.9	4.540	0.180	-0.690	-0.140
2020/01/31 20:08:43.0	4.560	0.150	-0.690	-0.180
2020/01/31 20:08:43.1	4.590	0.110	-0.700	-0.230
2020/01/31 20:08:43.2	4.610	0.080	-0.710	-0.270
2020/01/31 20:08:43.3	4.630	0.040	-0.720	-0.310
2020/01/31 20:08:43.4	4.660	0.010	-0.720	-0.350
2020/01/31 20:08:43.5	4.690	-0.030	-0.730	-0.400
2020/01/31 20:08:43.6	4.720	-0.060	-0.740	-0.440
2020/01/31 20:08:43.7	4.750	-0.100	-0.740	-0.480
2020/01/31 20:08:43.8	4.780	-0.130	-0.750	-0.520
2020/01/31 20:08:43.9	4.820	-0.160	-0.750	-0.570
2020/01/31 20:08:44.0	4.850	-0.200	-0.750	-0.610
2020/01/31 20:08:44.1	4.890	-0.230	-0.750	-0.640
2020/01/31 20:08:44.2	4.920	-0.260	-0.750	-0.680
2020/01/31 20:08:44.3	4.960	-0.290	-0.750	-0.720
2020/01/31 20:08:44.4	4.990	-0.310	-0.750	-0.750
2020/01/31 20:08:44.5	5.030	-0.340	-0.740	-0.790
2020/01/31 20:08:44.6	5.060	-0.360	-0.740	-0.820
2020/01/31 20:08:44.7	5.100	-0.390	-0.730	-0.840
2020/01/31 20:08:44.8	5.130	-0.410	-0.720	-0.870
2020/01/31 20:08:44.9	5.150	-0.420	-0.710	-0.890
2020/01/31 20:08:45.0	5.190	-0.440	-0.690	-0.910
2020/01/31 20:08:45.1	5.220	-0.450	-0.680	-0.930
2020/01/31 20:08:45.2	5.250	-0.460	-0.660	-0.950
2020/01/31 20:08:45.3	5.280	-0.470	-0.640	-0.960
2020/01/31 20:08:45.4	5.320	-0.470	-0.620	-0.970
2020/01/31 20:08:45.5	5.350	-0.480	-0.600	-0.970
2020/01/31 20:08:45.6	5.380	-0.480	-0.580	-0.980
2020/01/31 20:08:45.7	5.410	-0.470	-0.560	-0.980
2020/01/31 20:08:45.8	5.430	-0.470	-0.540	-0.980
2020/01/31 20:08:45.9	5.460	-0.460	-0.510	-0.970
2020/01/31 20:08:46.0	5.490	-0.450	-0.490	-0.970
2020/01/31 20:08:46.1	5.520	-0.430	-0.470	-0.960
2020/01/31 20:08:46.2	5.540	-0.420	-0.450	-0.940
2020/01/31 20:08:46.3	5.560	-0.400	-0.430	-0.930
2020/01/31 20:08:46.4	5.580	-0.380	-0.410	-0.910
2020/01/31 20:08:46.5	5.600	-0.360	-0.380	-0.890
2020/01/31 20:08:46.6	5.620	-0.340	-0.360	-0.860
2020/01/31 20:08:46.7	5.630	-0.310	-0.340	-0.840
2020/01/31 20:08:46.8	5.650	-0.280	-0.320	-0.810
2020/01/31 20:08:46.9	5.650	-0.260	-0.300	-0.780
2020/01/31 20:08:47.0	5.660	-0.230	-0.280	-0.750
2020/01/31 20:08:47.1	5.670	-0.200	-0.250	-0.710
2020/01/31 20:08:47.2	5.670	-0.170	-0.230	-0.680
2020/01/31 20:08:47.3	5.680	-0.140	-0.210	-0.650
2020/01/31 20:08:47.4	5.680	-0.110	-0.180	-0.620
2020/01/31 20:08:47.5	5.690	-0.080	-0.160	-0.590
2020/01/31 20:08:47.6	5.690	-0.050	-0.130	-0.560
2020/01/31 20:08:47.7	5.690	-0.020	-0.100	-0.530
2020/01/31 20:08:47.8	5.680	0.000	-0.080	-0.500
2020/01/31 20:08:47.9	5.690	0.030	-0.050	-0.470
2020/01/31 20:08:48.0	5.680	0.060	-0.020	-0.430
2020/01/31 20:08:48.1	5.680	0.080	0.010	-0.400
2020/01/31 20:08:48.2	5.670	0.110	0.040	-0.370
2020/01/31 20:08:48.3	5.650	0.130	0.070	-0.330
2020/01/31 20:08:48.4	5.640	0.150	0.100	-0.300
2020/01/31 20:08:48.5	5.620	0.170	0.130	-0.260
2020/01/31 20:08:48.6	5.600	0.180	0.160	-0.220
2020/01/31 20:08:48.7	5.570	0.200	0.200	-0.180
2020/01/31 20:08:48.8	5.550	0.210	0.230	-0.130
2020/01/31 20:08:48.9	5.510	0.220	0.260	-0.080
2020/01/31 20:08:49.0	5.470	0.230	0.300	-0.040
2020/01/31 20:08:49.1	5.430	0.230	0.330	0.010
2020/01/31 20:08:49.2	5.390	0.240	0.360	0.050
2020/01/31 20:08:49.3	5.350	0.240	0.390	0.100
2020/01/31 20:08:49.4	5.310	0.240	0.430	0.140
2020/01/31 20:08:49.5	5.260	0.240	0.460	0.180
2020/01/31 20:08:49.6	5.210	0.230	0.480	0.230
2020/01/31 20:08:49.7	5.160	0.230	0.510	0.260
2020/01/31 20:08:49.8	5.110	0.220	0.530	0.300
2020/01/31 20:08:49.9	5.080	0.210	0.560	0.340
2020/01/31 20:08:50.0	5.030	0.200	0.570	0.360
2020/01/31 20:08:50.1	4.980	0.190	0.590	0.390
2020/01/31 20:08:50.2	4.930	0.180	0.600	0.410
2020/01/31 20:08:50.3	4.880	0.170	0.610	0.430
2020/01/31 20:08:50.4	4.840	0.160	0.610	0.440
2020/01/31 20:08:50.5	4.790	0.140	0.600	0.440
2020/01/31 20:08:50.6	4.750	0.130	0.600	0.440
2020/01/31 20:08:50.7	4.710	0.120	0.580	0.440
2020/01/31 20:08:50.8	4.680	0.110	0.560	0.430
2020/01/31 20:08:50.9	4.660	0.100	0.540	0.410
2020/01/31 20:08:51.0	4.630	0.090	0.510	0.390
2020/01/31 20:08:51.1	4.610	0.080	0.470	0.370
2020/01/31 20:08:51.2	4.590	0.080	0.430	0.340
2020/01/31 20:08:51.3	4.570	0.070	0.390	0.310
2020/01/31 20:08:51.4	4.560	0.070	0.330	0.280
2020/01/31 20:08:51.5	4.550	0.070	0.280	0.250
2020/01/31 20:08:51.6	4.550	0.080	0.210	0.210
2020/01/31 20:08:51.7	4.550	0.080	0.150	0.170
2020/01/31 20:08:51.8	4.550	0.090	0.070	0.130
2020/01/31 20:08:51.9	4.570	0.090	-0.000	0.090
2020/01/31 20:08:52.0	4.580	0.100	-0.080	0.040
2020/01/31 20:08:52.1	4.600	0.110	-0.160	-0.000
2020/01/31 20:08:52.2	4.620	0.130	-0.250	-0.050
2020/01/31 20:08:52.3	4.640	0.140	-0.330	-0.090
2020/01/31 20:08:52.4	4.660	0.150	-0.420	-0.140
2020/01/31 20:08:52.5	4.690	0.170	-0.500	-0.190
2020/01/31 20:08:52.6	4.710	0.180	-0.580	-0.230
2020/01/31 20:08:52.7	4.740	0.200	-0.660	-0.280
2020/01/31 20:08:52.8	4.770	0.210	-0.740	-0.320
2020/01/31 20:08:52.9	4.800	0.230	-0.820	-0.370
2020/01/31 20:08:53.0	4.830	0.240	-0.890	-0.410
2020/01/31 20:08:53.1	4.850	0.250	-0.950	-0.450
2020/01/31 20:08:53.2	4.880	0.260	-1.020	-0.500
2020/01/31 20:08:53.3	4.910	0.270	-1.070	-0.540
2020/01/31 20:08:53.4	4.930	0.270	-1.120	-0.570
2020/01/31 20:08:53.5	4.960	0.280	-1.170	-0.610
2020/01/31 20:08:53.6	4.980	0.280	-1.200	-0.650
2020/01/31 20:08:53.7	5.010	0.280	-1.230	-0.680
2020/01/31 20:08:53.8	5.030	0.270	-1.250	-0.710
2020/01/31 20:08:53.9	5.040	0.270	-1.270	-0.740
2020/01/31 20:08:54.0	5.060	0.260	-1.280	-0.770
2020/01/31 20:08:54.1	5.080	0.240	-1.280	-0.790
2020/01/31 20:08:54.2	5.090	0.230	-1.270	-0.810
2020/01/31 20:08:54.3	5.100	0.210	-1.260	-0.830
2020/01/31 20:08:54.4	5.120	0.190	-1.240	-0.840
2020/01/31 20:08:54.5	5.130	0.170	-1.220	-0.860
2020/01/31 20:08:54.6	5.140	0.150	-1.180	-0.860
2020/01/31 20:08:54.7	5.150	0.120	-1.150	-0.870
2020/01/31 20:08:54.8	5.160	0.090	-1.110	-0.870
2020/01/31 20:08:54.9	5.150	0.060	-1.060	-0.870
2020/01/31 20:08:55.0	5.160	0.030	-1.010	-0.870
2020/01/31 20:08:55.1	5.170	0.000	-0.960	-0.860
2020/01/31 20:08:55.2	5.180	-0.030	-0.910	-0.850
2020/01/31 20:08:55.3	5.190	-0.060	-0.860	-0.850
2020/01/31 20:08:55.4	5.200	-0.100	-0.800	-0.840
2020/01/31 20:08:55.5	5.220	-0.130	-0.750	-0.830
2020/01/31 20:08:55.6	5.230	-0.160	-0.690	-0.820
2020/01/31 20:08:55.7	5.250	-0.190	-0.640	-0.810
2020/01/31 20:08:55.8	5.270	-0.220	-0.590	-0.800
2020/01/31 20:08:55.9	5.290	-0.250	-0.540	-0.800
2020/01/31 20:08:56.0	5.310	-0.280	-0.490	-0.790
2020/01/31 20:08:56.1	5.330	-0.300	-0.450	-0.780
2020/01/31 20:08:56.2	5.360	-0.330	-0.410	-0.780
2020/01/31 20:08:56.3	5.380	-0.350	-0.370	-0.780
2020/01/31 20:08:56.4	5.400	-0.370	-0.330	-0.770
2020/01/31 20:08:56.5	5.430	-0.380	-0.300	-0.770
2020/01/31 20:08:56.6	5.460	-0.390	-0.260	-0.770
2020/01/31 20:08:56.7	5.480	-0.400	-0.230	-0.770
2020/01/31 20:08:56.8	5.510	-0.410	-0.210	-0.760
2020/01/31 20:08:56.9	5.520	-0.410	-0.180	-0.760
2020/01/31 20:08:57.0	5.550	-0.410	-0.160	-0.760
2020/01/31 20:08:57.1	5.570	-0.410	-0.130	-0.760
2020/01/31 20:08:57.2	5.600	-0.410	-0.110	-0.750
2020/01/31 20:08:57.3	5.620	-0.400	-0.090	-0.740
2020/01/31 20:08:57.4	5.640	-0.390	-0.060	-0.730
2020/01/31 20:08:57.5	5.660	-0.380	-0.040	-0.720
2020/01/31 20:08:57.6	5.680	-0.360	-0.010	-0.700
2020/01/31 20:08:57.7	5.700	-0.340	0.010	-0.690
2020/01/31 20:08:57.8	5.710	-0.330	0.040	-0.670
2020/01/31 20:08:57.9	5.720	-0.310	0.060	-0.640
2020/01/31 20:08:58.0	5.730	-0.290	0.090	-0.620
2020/01/31 20:08:58.1	5.740	-0.270	0.110	-0.600
2020/01/31 20:08:58.2	5.750	-0.250	0.140	-0.570
2020/01/31 20:08:58.3	5.750	-0.230	0.170	-0.540
2020/01/31 20:08:58.4	5.750	-0.200	0.200	-0.510
2020/01/31 20:08:58.5	5.750	-0.180	0.230	-0.480
2020/01/31 20:08:58.6	5.750	-0.160	0.260	-0.440
2020/01/31 20:08:58.7	5.740	-0.150	0.290	-0.410
2020/01/31 20:08:58.8	5.730	-0.130	0.320	-0.370
2020/01/31 20:08:58.9	5.720	-0.110	0.350	-0.330
2020/01/31 20:08:59.0	5.710	-0.100	0.380	-0.300
2020/01/31 20:08:59.1	5.690	-0.080	0.400	-0.260
2020/01/31 20:08:59.2	5.670	-0.070	0.430	-0.220
2020/01/31 20:08:59.3	5.650	-0.060	0.450	-0.180
2020/01/31 20:08:59.4	5.630	-0.050	0.470	-0.150
2020/01/31 20:08:59.5	5.610	-0.040	0.490	-0.110
2020/01/31 20:08:59.6	5.580	-0.040	0.500	-0.070
2020/01/31 20:08:59.7	5.560	-0.030	0.510	-0.030
2020/01/31 20:08:59.8	5.530	-0.030	0.520	0.010
2020/01/31 20:08:59.9	5.510	-0.020	0.520	0.050
2020/01/31 20:09:00.0	5.480	-0.020	0.520	0.090
2020/01/31 20:09:00.1	5.450	-0.010	0.520	0.130
2020/01/31 20:09:00.2	5.430	-0.010	0.510	0.170
2020/01/31 20:09:00.3	5.400	-0.010	0.500	0.200
2020/01/31 20:09:00.4	5.370	-0.010	0.480	0.240
2020/01/31 20:09:00.5	5.350	-0.000	0.460	0.270
2020/01/31 20:09:00.6	5.320	-0.000	0.430	0.300
2020/01/31 20:09:00.7	5.300	0.000	0.400	0.330
2020/01/31 20:09:00.8	5.270	0.010	0.370	0.360
2020/01/31 20:09:00.9	5.240	0.010	0.340	0.380
2020/01/31 20:09:01.0	5.220	0.020	0.300	0.410
2020/01/31 20:09:01.1	5.190	0.030	0.260	0.420
2020/01/31 20:09:01.2	5.170	0.030	0.210	0.440
2020/01/31 20:09:01.3	5.150	0.040	0.170	0.450
2020/01/31 20:09:01.4	5.120	0.050	0.120	0.460
2020/01/31 20:09:01.5	5.100	0.060	0.070	0.460
2020/01/31 20:09:01.6	5.080	0.070	0.020	0.460
2020/01/31 20:09:01.7	5.060	0.080	-0.030	0.460
2020/01/31 20:09:01.8	5.030	0.100	-0.080	0.460
2020/01/31 20:09:01.9	5.020	0.110	-0.130	0.450
2020/01/31 20:09:02.0	5.010	0.130	-0.180	0.450
2020/01/31 20:09:02.1	4.990	0.140	-0.230	0.440
2020/01/31 20:09:02.2	4.970	0.160	-0.270	0.420
2020/01/31 20:09:02.3	4.960	0.170	-0.320	0.410
2020/01/31 20:09:02.4	4.940	0.190	-0.370	0.390
2020/01/31 20:09:02.5	4.930	0.210	-0.410	0.380
2020/01/31 20:09:02.6	4.920	0.220	-0.450	0.360
2020/01/31 20:09:02.7	4.910	0.240	-0.490	0.340
2020/01/31 20:09:02.8	4.900	0.250	-0.530	0.320
2020/01/31 20:09:02.9	4.900	0.270	-0.570	0.300
2020/01/31 20:09:03.0	4.890	0.290	-0.600	0.280
2020/01/31 20:09:03.1	4.890	0.300	-0.640	0.250
2020/01/31 20:09:03.2	4.890	0.310	-0.670	0.230
2020/01/31 20:09:03.3	4.890	0.330	-0.710	0.200
2020/01/31 20:09:03.4	4.900	0.340	-0.740	0.170
2020/01/31 20:09:03.5	4.900	0.350	-0.770	0.140
2020/01/31 20:09:03.6	4.910	0.360	-0.800	0.110
2020/01/31 20:09:03.7	4.920	0.370	-0.820	0.080
2020/01/31 20:09:03.8	4.930	0.380	-0.850	0.040
2020/01/31 20:09:03.9	4.950	0.380	-0.880	0.010
2020/01/31 20:09:04.0	4.960	0.390	-0.900	-0.030
2020/01/31 20:09:04.1	4.980	0.390	-0.930	-0.080
2020/01/31 20:09:04.2	5.000	0.390	-0.950	-0.120
2020/01/31 20:09:04.3	5.020	0.390	-0.970	-0.160
2020/01/31 20:09:04.4	5.040	0.390	-0.990	-0.210
2020/01/31 20:09:04.5	5.070	0.380	-1.010	-0.260
2020/01/31 20:09:04.6	5.090	0.380	-1.020	-0.320
2020/01/31 20:09:04.7	5.120	0.370	-1.040	-0.370
2020/01/31 20:09:04.8	5.150	0.360	-1.050	-0.430
2020/01/31 20:09:04.9	5.170	0.350	-1.060	-0.490
2020/01/31 20:09:05.0	5.200	0.330	-1.070	-0.550
2020/01/31 20:09:05.1	5.240	0.320	-1.080	-0.610
2020/01/31 20:09:05.2	5.270	0.300	-1.080	-0.670
2020/01/31 20:09:05.3	5.300	0.290	-1.080	-0.730
2020/01/31 20:09:05.4	5.340	0.270	-1.070	-0.790
2020/01/31 20:09:05.5	5.370	0.250	-1.070	-0.850
2020/01/31 20:09:05.6	5.410	0.230	-1.060	-0.910
2020/01/31 20:09:05.7	5.450	0.210	-1.040	-0.960
2020/01/31 20:09:05.8	5.490	0.180	-1.020	-1.020
2020/01/31 20:09:05.9	5.520	0.160	-1.000	-1.080
2020/01/31 20:09:06.0	5.560	0.130	-0.980	-1.130
2020/01/31 20:09:06.1	5.600	0.110	-0.960	-1.170
2020/01/31 20:09:06.2	5.640	0.080	-0.930	-1.220
2020/01/31 20:09:06.3	5.680	0.060	-0.890	-1.260
2020/01/31 20:09:06.4	5.720	0.030	-0.860	-1.300
2020/01/31 20:09:06.5	5.770	0.010	-0.820	-1.330
2020/01/31 20:09:06.6	5.810	-0.010	-0.780	-1.360
2020/01/31 20:09:06.7	5.850	-0.040	-0.740	-1.390
2020/01/31 20:09:06.8	5.890	-0.060	-0.700	-1.410
2020/01/31 20:09:06.9	5.930	-0.090	-0.650	-1.430
2020/01/31 20:09:07.0	5.960	-0.110	-0.600	-1.440
2020/01/31 20:09:07.1	6.000	-0.130	-0.550	-1.450
2020/01/31 20:09:07.2	6.040	-0.150	-0.500	-1.450
2020/01/31 20:09:07.3	6.070	-0.170	-0.450	-1.450
2020/01/31 20:09:07.4	6.100	-0.190	-0.400	-1.440
2020/01/31 20:09:07.5	6.130	-0.210	-0.340	-1.430
2020/01/31 20:09:07.6	6.160	-0.230	-0.280	-1.420
2020/01/31 20:09:07.7	6.190	-0.250	-0.220	-1.400
2020/01/31 20:09:07.8	6.210	-0.260	-0.160	-1.370
2020/01/31 20:09:07.9	6.220	-0.280	-0.100	-1.350
2020/01/31 20:09:08.0	6.230	-0.290	-0.040	-1.310
2020/01/31 20:09:08.1	6.250	-0.300	0.030	-1.280
2020/01/31 20:09:08.2	6.260	-0.310	0.090	-1.240
2020/01/31 20:09:08.3	6.260	-0.320	0.160	-1.190
2020/01/31 20:09:08.4	6.260	-0.330	0.230	-1.140
2020/01/31 20:09:08.5	6.260	-0.330	0.300	-1.080
2020/01/31 20:09:08.6	6.250	-0.340	0.360	-1.020
2020/01/31 20:09:08.7	6.240	-0.340	0.430	-0.960
2020/01/31 20:09:08.8	6.230	-0.340	0.500	-0.890
2020/01/31 20:09:08.9	6.210	-0.340	0.570	-0.810
2020/01/31 20:09:09.0	6.180	-0.340	0.630	-0.730
2020/01/31 20:09:09.1	6.160	-0.340	0.700	-0.650
2020/01/31 20:09:09.2	6.140	-0.330	0.760	-0.560
2020/01/31 20:09:09.3	6.110	-0.330	0.820	-0.470
2020/01/31 20:09:09.4	6.070	-0.330	0.870	-0.380
2020/01/31 20:09:09.5	6.040	-0.320	0.920	-0.290
2020/01/31 20:09:09.6	6.000	-0.310	0.970	-0.200
2020/01/31 20:09:09.7	5.960	-0.310	1.010	-0.110
2020/01/31 20:09:09.8	5.920	-0.300	1.040	-0.020
2020/01/31 20:09:09.9	5.880	-0.290	1.070	0.070
2020/01/31 20:09:10.0	5.840	-0.280	1.080	0.160
2020/01/31 20:09:10.1	5.790	-0.270	1.090	0.250
2020/01/31 20:09:10.2	5.750	-0.260	1.100	0.330
2020/01/31 20:09:10.3	5.710	-0.250	1.090	0.400
2020/01/31 20:09:10.4	5.660	-0.240	1.070	0.470
2020/01/31 20:09:10.5	5.620	-0.230	1.040	0.540
2020/01/31 20:09:10.6	5.580	-0.220	1.010	0.600
2020/01/31 20:09:10.7	5.540	-0.210	0.960	0.650
2020/01/31 20:09:10.8	5.500	-0.190	0.900	0.700
2020/01/31 20:09:10.9	5.480	-0.180	0.840	0.740
2020/01/31 20:09:11.0	5.450	-0.170	0.770	0.770
2020/01/31 20:09:11.1	5.420	-0.150	0.690	0.800
2020/01/31 20:09:11.2	5.390	-0.140	0.600	0.810
2020/01/31 20:09:11.3	5.370	-0.120	0.500	0.820
2020/01/31 20:09:11.4	5.350	-0.110	0.400	0.820
2020/01/31 20:09:11.5	5.330	-0.090	0.290	0.810
2020/01/31 20:09:11.6	5.320	-0.080	0.170	0.790
2020/01/31 20:09:11.7	5.310	-0.060	0.060	0.770
2020/01/31 20:09:11.8	5.310	-0.050	-0.060	0.740
2020/01/31 20:09:11.9	5.310	-0.030	-0.180	0.710
2020/01/31 20:09:12.0	5.310	-0.010	-0.300	0.670
2020/01/31 20:09:12.1	5.320	0.000	-0.420	0.620
2020/01/31 20:09:12.2	5.320	0.020	-0.540	0.570
2020/01/31 20:09:12.3	5.330	0.030	-0.650	0.510
2020/01/31 20:09:12.4	5.340	0.050	-0.760	0.450
2020/01/31 20:09:12.5	5.360	0.060	-0.870	0.390
2020/01/31 20:09:12.6	5.380	0.070	-0.970	0.320
2020/01/31 20:09:12.7	5.400	0.090	-1.060	0.250
2020/01/31 20:09:12.8	5.420	0.100	-1.150	0.170
2020/01/31 20:09:12.9	5.450	0.110	-1.220	0.100
2020/01/31 20:09:13.0	5.470	0.120	-1.290	0.030
2020/01/31 20:09:13.1	5.500	0.130	-1.350	-0.050
2020/01/31 20:09:13.2	5.520	0.140	-1.400	-0.120
2020/01/31 20:09:13.3	5.550	0.150	-1.450	-0.190
2020/01/31 20:09:13.4	5.580	0.160	-1.480	-0.250
2020/01/31 20:09:13.5	5.600	0.170	-1.500	-0.320
2020/01/31 20:09:13.6	5.630	0.170	-1.510	-0.380
2020/01/31 20:09:13.7	5.650	0.180	-1.510	-0.430
2020/01/31 20:09:13.8	5.680	0.180	-1.500	-0.490
2020/01/31 20:09:13.9	5.700	0.190	-1.480	-0.540
2020/01/31 20:09:14.0	5.720	0.190	-1.460	-0.580
2020/01/31 20:09:14.1	5.750	0.190	-1.420	-0.620
2020/01/31 20:09:14.2	5.770	0.190	-1.380	-0.660
2020/01/31 20:09:14.3	5.790	0.190	-1.330	-0.700
2020/01/31 20:09:14.4	5.810	0.190	-1.280	-0.730
2020/01/31 20:09:14.5	5.830	0.190	-1.220	-0.760
2020/01/31 20:09:14.6	5.850	0.190	-1.160	-0.780
2020/01/31 20:09:14.7	5.870	0.190	-1.090	-0.810
2020/01/31 20:09:14.8	5.890	0.190	-1.020	-0.820
2020/01/31 20:09:14.9	5.900	0.180	-0.960	-0.850
2020/01/31 20:09:15.0	5.920	0.180	-0.880	-0.860
2020/01/31 20:09:15.1	5.940	0.180	-0.810	-0.870
2020/01/31 20:09:15.2	5.970	0.180	-0.740	-0.890
2020/01/31 20:09:15.3	5.990	0.180	-0.670	-0.900
2020/01/31 20:09:15.4	6.010	0.170	-0.600	-0.900
2020/01/31 20:09:15.5	6.030	0.170	-0.530	-0.910
2020/01/31 20:09:15.6	6.050	0.170	-0.470	-0.920
2020/01/31 20:09:15.7	6.080	0.170	-0.400	-0.930
2020/01/31 20:09:15.8	6.100	0.170	-0.350	-0.930
2020/01/31 20:09:15.9	6.130	0.170	-0.290	-0.940
2020/01/31 20:09:16.0	6.150	0.170	-0.240	-0.940
2020/01/31 20:09:16.1	6.170	0.170	-0.190	-0.940
2020/01/31 20:09:16.2	6.190	0.170	-0.150	-0.940
2020/01/31 20:09:16.3	6.210	0.170	-0.110	-0.940
2020/01/31 20:09:16.4	6.230	0.170	-0.070	-0.930
2020/01/31 20:09:16.5	6.240	0.170	-0.040	-0.920
2020/01/31 20:09:16.6	6.250	0.170	-0.010	-0.910
2020/01/31 20:09:16.7	6.260	0.170	0.020	-0.890
2020/01/31 20:09:16.8	6.270	0.170	0.050	-0.870
2020/01/31 20:09:16.9	6.270	0.160	0.070	-0.840
2020/01/31 20:09:17.0	6.270	0.160	0.090	-0.810
2020/01/31 20:09:17.1	6.270	0.160	0.110	-0.780
2020/01/31 20:09:17.2	6.260	0.150	0.120	-0.740
2020/01/31 20:09:17.3	6.250	0.150	0.140	-0.700
2020/01/31 20:09:17.4	6.240	0.140	0.150	-0.660
2020/01/31 20:09:17.5	6.230	0.130	0.170	-0.610
2020/01/31 20:09:17.6	6.210	0.120	0.180	-0.570
2020/01/31 20:09:17.7	6.200	0.110	0.190	-0.520
2020/01/31 20:09:17.8	6.180	0.100	0.200	-0.470
2020/01/31 20:09:17.9	6.150	0.090	0.210	-0.410
2020/01/31 20:09:18.0	6.130	0.080	0.220	-0.360
2020/01/31 20:09:18.1	6.110	0.060	0.230	-0.320
2020/01/31 20:09:18.2	6.080	0.050	0.240	-0.270
2020/01/31 20:09:18.3	6.060	0.030	0.250	-0.220
2020/01/31 20:09:18.4	6.030	0.020	0.250	-0.170
2020/01/31 20:09:18.5	6.010	0.000	0.260	-0.130
2020/01/31 20:09:18.6	5.980	-0.020	0.260	-0.090
2020/01/31 20:09:18.7	5.960	-0.030	0.260	-0.050
2020/01/31 20:09:18.8	5.940	-0.050	0.260	-0.010
2020/01/31 20:09:18.9	5.920	-0.070	0.260	0.020
2020/01/31 20:09:19.0	5.900	-0.090	0.260	0.050
2020/01/31 20:09:19.1	5.880	-0.100	0.260	0.070
2020/01/31 20:09:19.2	5.860	-0.120	0.250	0.100
2020/01/31 20:09:19.3	5.840	-0.130	0.240	0.120
2020/01/31 20:09:19.4	5.830	-0.150	0.230	0.140
2020/01/31 20:09:19.5	5.810	-0.160	0.220	0.150
2020/01/31 20:09:19.6	5.790	-0.180	0.210	0.170
2020/01/31 20:09:19.7	5.780	-0.190	0.190	0.180
2020/01/31 20:09:19.8	5.760	-0.200	0.170	0.180
2020/01/31 20:09:19.9	5.760	-0.210	0.150	0.190
2020/01/31 20:09:20.0	5.740	-0.220	0.130	0.200
2020/01/31 20:09:20.1	5.730	-0.220	0.110	0.200
2020/01/31 20:09:20.2	5.720	-0.230	0.090	0.190
2020/01/31 20:09:20.3	5.720	-0.240	0.060	0.180
2020/01/31 20:09:20.4	5.710	-0.240	0.030	0.180
2020/01/31 20:09:20.5	5.710	-0.240	0.000	0.160
2020/01/31 20:09:20.6	5.710	-0.240	-0.030	0.150
2020/01/31 20:09:20.7	5.710	-0.240	-0.060	0.130
2020/01/31 20:09:20.8	5.710	-0.240	-0.090	0.120
2020/01/31 20:09:20.9	5.720	-0.240	-0.130	0.100
2020/01/31 20:09:21.0	5.720	-0.240	-0.170	0.070
2020/01/31 20:09:21.1	5.730	-0.230	-0.200	0.050
2020/01/31 20:09:21.2	5.740	-0.230	-0.240	0.020
2020/01/31 20:09:21.3	5.750	-0.220	-0.280	-0.010
2020/01/31 20:09:21.4	5.760	-0.210	-0.310	-0.040
2020/01/31 20:09:21.5	5.780	-0.210	-0.350	-0.080
2020/01/31 20:09:21.6	5.790	-0.200	-0.390	-0.110
2020/01/31 20:09:21.7	5.810	-0.190	-0.420	-0.150
2020/01/31 20:09:21.8	5.830	-0.170	-0.460	-0.180
2020/01/31 20:09:21.9	5.840	-0.160	-0.490	-0.220
2020/01/31 20:09:22.0	5.860	-0.150	-0.520	-0.260
2020/01/31 20:09:22.1	5.880	-0.140	-0.550	-0.300
2020/01/31 20:09:22.2	5.900	-0.120	-0.580	-0.340
2020/01/31 20:09:22.3	5.930	-0.110	-0.610	-0.380
2020/01/31 20:09:22.4	5.950	-0.100	-0.630	-0.410
2020/01/31 20:09:22.5	5.970	-0.080	-0.660	-0.450
2020/01/31 20:09:22.6	6.000	-0.070	-0.670	-0.480
2020/01/31 20:09:22.7	6.020	-0.060	-0.690	-0.520
2020/01/31 20:09:22.8	6.040	-0.050	-0.700	-0.550
2020/01/31 20:09:22.9	6.060	-0.040	-0.710	-0.570
2020/01/31 20:09:23.0	6.080	-0.030	-0.720	-0.600
2020/01/31 20:09:23.1	6.100	-0.020	-0.720	-0.620
2020/01/31 20:09:23.2	6.120	-0.010	-0.720	-0.640
2020/01/31 20:09:23.3	6.140	-0.000	-0.710	-0.660
2020/01/31 20:09:23.4	6.160	0.000	-0.700	-0.670
2020/01/31 20:09:23.5	6.170	0.010	-0.690	-0.680
2020/01/31 20:09:23.6	6.180	0.010	-0.680	-0.680
2020/01/31 20:09:23.7	6.200	0.010	-0.660	-0.690
2020/01/31 20:09:23.8	6.200	0.010	-0.640	-0.690
2020/01/31 20:09:23.9	6.210	0.000	-0.620	-0.680
2020/01/31 20:09:24.0	6.220	0.000	-0.590	-0.680
2020/01/31 20:09:24.1	6.230	-0.000	-0.570	-0.670
2020/01/31 20:09:24.2	6.230	-0.010	-0.540	-0.660
2020/01/31 20:09:24.3	6.230	-0.020	-0.510	-0.650
2020/01/31 20:09:24.4	6.240	-0.030	-0.480	-0.640
2020/01/31 20:09:24.5	6.240	-0.040	-0.450	-0.630
2020/01/31 20:09:24.6	6.240	-0.050	-0.430	-0.610
2020/01/31 20:09:24.7	6.240	-0.060	-0.400	-0.600
2020/01/31 20:09:24.8	6.240	-0.070	-0.370	-0.590
2020/01/31 20:09:24.9	6.240	-0.080	-0.340	-0.580
2020/01/31 20:09:25.0	6.230	-0.090	-0.320	-0.560
2020/01/31 20:09:25.1	6.230	-0.100	-0.290	-0.550
2020/01/31 20:09:25.2	6.230	-0.110	-0.270	-0.530
2020/01/31 20:09:25.3	6.220	-0.120	-0.240	-0.520
2020/01/31 20:09:25.4	6.220	-0.130	-0.220	-0.510
2020/01/31 20:09:25.5	6.210	-0.140	-0.210	-0.500
2020/01/31 20:09:25.6	6.210	-0.140	-0.190	-0.490
2020/01/31 20:09:25.7	6.200	-0.140	-0.170	-0.480
2020/01/31 20:09:25.8	6.200	-0.140	-0.160	-0.470
2020/01/31 20:09:25.9	6.190	-0.140	-0.150	-0.460
2020/01/31 20:09:26.0	6.180	-0.140	-0.140	-0.450
2020/01/31 20:09:26.1	6.170	-0.140	-0.140	-0.440
2020/01/31 20:09:26.2	6.170	-0.130	-0.130	-0.430
2020/01/31 20:09:26.3	6.160	-0.120	-0.130	-0.420
2020/01/31 20:09:26.4	6.150	-0.100	-0.130	-0.410
2020/01/31 20:09:26.5	6.140	-0.090	-0.130	-0.390
2020/01/31 20:09:26.6	6.130	-0.070	-0.130	-0.380
2020/01/31 20:09:26.7	6.120	-0.050	-0.130	-0.360
2020/01/31 20:09:26.8	6.100	-0.030	-0.140	-0.340
2020/01/31 20:09:26.9	6.090	-0.000	-0.140	-0.330
2020/01/31 20:09:27.0	6.080	0.020	-0.150	-0.310
2020/01/31 20:09:27.1	6.060	0.050	-0.150	-0.280
2020/01/31 20:09:27.2	6.050	0.080	-0.160	-0.260
2020/01/31 20:09:27.3	6.030	0.110	-0.160	-0.240
2020/01/31 20:09:27.4	6.010	0.140	-0.160	-0.210
2020/01/31 20:09:27.5	5.990	0.170	-0.160	-0.190
2020/01/31 20:09:27.6	5.980	0.210	-0.160	-0.170
2020/01/31 20:09:27.7	5.960	0.240	-0.160	-0.150
2020/01/31 20:09:27.8	5.940	0.270	-0.160	-0.120
2020/01/31 20:09:27.9	5.930	0.300	-0.160	-0.100
2020/01/31 20:09:28.0	5.910	0.330	-0.150	-0.080
2020/01/31 20:09:28.1	5.900	0.360	-0.150	-0.060
2020/01/31 20:09:28.2	5.880	0.380	-0.140	-0.050
2020/01/31 20:09:28.3	5.870	0.410	-0.130	-0.030
2020/01/31 20:09:28.4	5.860	0.430	-0.120	-0.010
2020/01/31 20:09:28.5	5.850	0.460	-0.110	0.000
2020/01/31 20:09:28.6	5.840	0.480	-0.100	0.020
2020/01/31 20:09:28.7	5.830	0.490	-0.090	0.030
2020/01/31 20:09:28.8	5.820	0.510	-0.080	0.050
2020/01/31 20:09:28.9	5.820	0.520	-0.070	0.070
2020/01/31 20:09:29.0	5.820	0.530	-0.060	0.080
2020/01/31 20:09:29.1	5.810	0.540	-0.050	0.100
2020/01/31 20:09:29.2	5.810	0.540	-0.040	0.110
2020/01/31 20:09:29.3	5.810	0.540	-0.030	0.130
2020/01/31 20:09:29.4	5.810	0.540	-0.020	0.150
2020/01/31 20:09:29.5	5.810	0.530	-0.010	0.160
2020/01/31 20:09:29.6	5.810	0.530	0.000	0.180
2020/01/31 20:09:29.7	5.810	0.510	0.010	0.190
2020/01/31 20:09:29.8	5.810	0.500	0.020	0.210
2020/01/31 20:09:29.9	5.810	0.480	0.030	0.220
2020/01/31 20:09:30.0	5.800	0.460	0.040	0.240
2020/01/31 20:09:30.1	5.800	0.430	0.040	0.250
2020/01/31 20:09:30.2	5.800	0.400	0.050	0.260
2020/01/31 20:09:30.3	5.790	0.370	0.050	0.270
2020/01/31 20:09:30.4	5.790	0.340	0.060	0.280
2020/01/31 20:09:30.5	5.780	0.300	0.060	0.280
2020/01/31 20:09:30.6	5.770	0.270	0.060	0.280
2020/01/31 20:09:30.7	5.760	0.230	0.060	0.280
2020/01/31 20:09:30.8	5.750	0.180	0.050	0.280
2020/01/31 20:09:30.9	5.740	0.140	0.050	0.270
2020/01/31 20:09:31.0	5.730	0.100	0.040	0.250
2020/01/31 20:09:31.1	5.720	0.050	0.020	0.240
2020/01/31 20:09:31.2	5.710	0.000	0.010	0.220
2020/01/31 20:09:31.3	5.700	-0.040	-0.010	0.190
2020/01/31 20:09:31.4	5.690	-0.090	-0.030	0.160
2020/01/31 20:09:31.5	5.690	-0.130	-0.050	0.130
2020/01/31 20:09:31.6	5.680	-0.180	-0.080	0.100
2020/01/31 20:09:31.7	5.670	-0.220	-0.110	0.060
2020/01/31 20:09:31.8	5.670	-0.270	-0.140	0.020
2020/01/31 20:09:31.9	5.670	-0.310	-0.170	-0.030
2020/01/31 20:09:32.0	5.670	-0.350	-0.210	-0.070
2020/01/31 20:09:32.1	5.680	-0.380	-0.250	-0.110
2020/01/31 20:09:32.2	5.680	-0.420	-0.290	-0.160
2020/01/31 20:09:32.3	5.690	-0.450	-0.330	-0.210
2020/01/31 20:09:32.4	5.700	-0.480	-0.380	-0.260
2020/01/31 20:09:32.5	5.720	-0.500	-0.430	-0.310
2020/01/31 20:09:32.6	5.730	-0.520	-0.480	-0.360
2020/01/31 20:09:32.7	5.750	-0.540	-0.520	-0.410
2020/01/31 20:09:32.8	5.780	-0.560	-0.570	-0.470
2020/01/31 20:09:32.9	5.800	-0.570	-0.630	-0.520
2020/01/31 20:09:33.0	5.830	-0.580	-0.670	-0.580
2020/01/31 20:09:33.1	5.860	-0.590	-0.720	-0.630
2020/01/31 20:09:33.2	5.900	-0.590	-0.770	-0.680
2020/01/31 20:09:33.3	5.930	-0.590	-0.810	-0.740
2020/01/31 20:09:33.4	5.970	-0.590	-0.850	-0.790
2020/01/31 20:09:33.5	6.010	-0.580	-0.890	-0.840
2020/01/31 20:09:33.6	6.040	-0.570	-0.920	-0.880
2020/01/31 20:09:33.7	6.080	-0.560	-0.950	-0.920
2020/01/31 20:09:33.8	6.120	-0.550	-0.970	-0.960
2020/01/31 20:09:33.9	6.160	-0.530	-0.990	-1.000
2020/01/31 20:09:34.0	6.200	-0.510	-1.000	-1.020
2020/01/31 20:09:34.1	6.230	-0.490	-1.000	-1.050
2020/01/31 20:09:34.2	6.270	-0.470	-1.000	-1.060
2020/01/31 20:09:34.3	6.300	-0.440	-0.980	-1.080
2020/01/31 20:09:34.4	6.330	-0.420	-0.970	-1.080
2020/01/31 20:09:34.5	6.360	-0.390	-0.940	-1.080
2020/01/31 20:09:34.6	6.390	-0.370	-0.900	-1.080
2020/01/31 20:09:34.7	6.420	-0.340	-0.860	-1.070
2020/01/31 20:09:34.8	6.440	-0.320	-0.820	-1.050
2020/01/31 20:09:34.9	6.450	-0.290	-0.760	-1.030
2020/01/31 20:09:35.0	6.470	-0.260	-0.700	-1.000
2020/01/31 20:09:35.1	6.490	-0.240	-0.640	-0.970
2020/01/31 20:09:35.2	6.500	-0.220	-0.570	-0.930
2020/01/31 20:09:35.3	6.510	-0.200	-0.500	-0.890
2020/01/31 20:09:35.4	6.520	-0.180	-0.430	-0.850
2020/01/31 20:09:35.5	6.520	-0.160	-0.350	-0.810
2020/01/31 20:09:35.6	6.530	-0.140	-0.280	-0.760
2020/01/31 20:09:35.7	6.530	-0.130	-0.200	-0.710
2020/01/31 20:09:35.8	6.520	-0.110	-0.130	-0.660
2020/01/31 20:09:35.9	6.520	-0.100	-0.060	-0.610
2020/01/31 20:09:36.0	6.510	-0.090	0.010	-0.550
2020/01/31 20:09:36.1	6.500	-0.080	0.070	-0.500
2020/01/31 20:09:36.2	6.480	-0.080	0.140	-0.450
2020/01/31 20:09:36.3	6.470	-0.070	0.190	-0.390
2020/01/31 20:09:36.4	6.450	-0.070	0.250	-0.340
2020/01/31 20:09:36.5	6.440	-0.070	0.290	-0.280
2020/01/31 20:09:36.6	6.420	-0.070	0.330	-0.230
2020/01/31 20:09:36.7	6.400	-0.060	0.370	-0.180
2020/01/31 20:09:36.8	6.380	-0.060	0.390	-0.130
2020/01/31 20:09:36.9	6.370	-0.060	0.410	-0.090
2020/01/31 20:09:37.0	6.350	-0.060	0.430	-0.040
2020/01/31 20:09:37.1	6.330	-0.060	0.430	-0.000
2020/01/31 20:09:37.2	6.310	-0.060	0.430	0.030
2020/01/31 20:09:37.3	6.290	-0.050	0.420	0.070
2020/01/31 20:09:37.4	6.280	-0.050	0.410	0.100
2020/01/31 20:09:37.5	6.260	-0.040	0.390	0.130
2020/01/31 20:09:37.6	6.250	-0.040	0.360	0.150
2020/01/31 20:09:37.7	6.240	-0.030	0.330	0.170
2020/01/31 20:09:37.8	6.230	-0.020	0.300	0.190
2020/01/31 20:09:37.9	6.220	-0.000	0.260	0.200
2020/01/31 20:09:38.0	6.210	0.010	0.220	0.210
2020/01/31 20:09:38.1	6.200	0.030	0.170	0.220
2020/01/31 20:09:38.2	6.200	0.050	0.120	0.220
2020/01/31 20:09:38.3	6.190	0.070	0.070	0.230
2020/01/31 20:09:38.4	6.180	0.090	0.020	0.230
2020/01/31 20:09:38.5	6.170	0.120	-0.030	0.230
2020/01/31 20:09:38.6	6.170	0.150	-0.080	0.230
2020/01/31 20:09:38.7	6.160	0.170	-0.120	0.230
2020/01/31 20:09:38.8	6.150	0.200	-0.170	0.220
2020/01/31 20:09:38.9	6.150	0.230	-0.220	0.220
2020/01/31 20:09:39.0	6.140	0.270	-0.260	0.220
2020/01/31 20:09:39.1	6.130	0.300	-0.300	0.210
2020/01/31 20:09:39.2	6.130	0.330	-0.340	0.210
2020/01/31 20:09:39.3	6.120	0.360	-0.370	0.210
2020/01/31 20:09:39.4	6.110	0.390	-0.400	0.200
2020/01/31 20:09:39.5	6.100	0.420	-0.430	0.200
2020/01/31 20:09:39.6	6.090	0.450	-0.450	0.190
2020/01/31 20:09:39.7	6.080	0.470	-0.470	0.180
2020/01/31 20:09:39.8	6.070	0.490	-0.490	0.180
2020/01/31 20:09:39.9	6.050	0.510	-0.500	0.170
2020/01/31 20:09:40.0	6.030	0.530	-0.510	0.160
2020/01/31 20:09:40.1	6.020	0.540	-0.510	0.150
2020/01/31 20:09:40.2	6.000	0.550	-0.510	0.140
2020/01/31 20:09:40.3	5.980	0.560	-0.510	0.130
2020/01/31 20:09:40.4	5.970	0.560	-0.500	0.120
2020/01/31 20:09:40.5	5.950	0.560	-0.490	0.110
2020/01/31 20:09:40.6	5.930	0.550	-0.480	0.100
2020/01/31 20:09:40.7	5.910	0.540	-0.460	0.090
2020/01/31 20:09:40.8	5.890	0.530	-0.440	0.070
2020/01/31 20:09:40.9	5.860	0.520	-0.420	0.050
2020/01/31 20:09:41.0	5.840	0.500	-0.400	0.040
2020/01/31 20:09:41.1	5.820	0.470	-0.380	0.030
2020/01/31 20:09:41.2	5.790	0.450	-0.360	0.020
2020/01/31 20:09:41.3	5.770	0.420	-0.340	0.000
2020/01/31 20:09:41.4	5.750	0.390	-0.320	-0.010
2020/01/31 20:09:41.5	5.740	0.350	-0.300	-0.030
2020/01/31 20:09:41.6	5.720	0.320	-0.280	-0.050
2020/01/31 20:09:41.7	5.710	0.280	-0.270	-0.070
2020/01/31 20:09:41.8	5.690	0.250	-0.260	-0.090
2020/01/31 20:09:41.9	5.680	0.210	-0.250	-0.110
2020/01/31 20:09:42.0	5.670	0.170	-0.240	-0.130
2020/01/31 20:09:42.1	5.670	0.140	-0.240	-0.160
2020/01/31 20:09:42.2	5.670	0.100	-0.240	-0.190
2020/01/31 20:09:42.3	5.680	0.070	-0.240	-0.220
2020/01/31 20:09:42.4	5.690	0.040	-0.250	-0.260
2020/01/31 20:09:42.5	5.700	0.010	-0.270	-0.300
2020/01/31 20:09:42.6	5.710	-0.010	-0.280	-0.330
2020/01/31 20:09:42.7	5.730	-0.030	-0.300	-0.370
2020/01/31 20:09:42.8	5.760	-0.050	-0.330	-0.410
2020/01/31 20:09:42.9	5.790	-0.070	-0.350	-0.460
2020/01/31 20:09:43.0	5.820	-0.080	-0.380	-0.490
2020/01/31 20:09:43.1	5.850	-0.090	-0.400	-0.530
2020/01/31 20:09:43.2	5.880	-0.090	-0.430	-0.560
2020/01/31 20:09:43.3	5.900	-0.090	-0.450	-0.590
2020/01/31 20:09:43.4	5.930	-0.090	-0.480	-0.620
2020/01/31 20:09:43.5	5.960	-0.080	-0.500	-0.640
2020/01/31 20:09:43.6	5.990	-0.070	-0.520	-0.660
2020/01/31 20:09:43.7	6.010	-0.060	-0.540	-0.670
2020/01/31 20:09:43.8	6.030	-0.050	-0.550	-0.680
2020/01/31 20:09:43.9	6.060	-0.040	-0.560	-0.680
2020/01/31 20:09:44.0	6.080	-0.020	-0.560	-0.680
2020/01/31 20:09:44.1	6.090	-0.010	-0.560	-0.670
2020/01/31 20:09:44.2	6.110	0.010	-0.560	-0.660
2020/01/31 20:09:44.3	6.120	0.020	-0.550	-0.650
2020/01/31 20:09:44.4	6.130	0.030	-0.540	-0.640
2020/01/31 20:09:44.5	6.130	0.050	-0.520	-0.620
2020/01/31 20:09:44.6	6.140	0.060	-0.490	-0.600
2020/01/31 20:09:44.7	6.140	0.060	-0.470	-0.580
2020/01/31 20:09:44.8	6.140	0.070	-0.440	-0.550
2020/01/31 20:09:44.9	6.140	0.070	-0.410	-0.530
2020/01/31 20:09:45.0	6.140	0.070	-0.370	-0.510
2020/01/31 20:09:45.1	6.140	0.070	-0.340	-0.480
2020/01/31 20:09:45.2	6.140	0.060	-0.300	-0.460
2020/01/31 20:09:45.3	6.140	0.050	-0.260	-0.440
2020/01/31 20:09:45.4	6.140	0.040	-0.230	-0.420
2020/01/31 20:09:45.5	6.150	0.020	-0.190	-0.400
2020/01/31 20:09:45.6	6.150	0.010	-0.150	-0.380
2020/01/31 20:09:45.7	6.160	-0.020	-0.120	-0.360
2020/01/31 20:09:45.8	6.160	-0.040	-0.080	-0.350
2020/01/31 20:09:45.9	6.170	-0.070	-0.060	-0.330
2020/01/31 20:09:46.0	6.180	-0.100	-0.030	-0.320
2020/01/31 20:09:46.1	6.200	-0.130	-0.000	-0.320
2020/01/31 20:09:46.2	6.210	-0.160	0.020	-0.310
2020/01/31 20:09:46.3	6.230	-0.190	0.030	-0.310
2020/01/31 20:09:46.4	6.250	-0.230	0.050	-0.310
2020/01/31 20:09:46.5	6.280	-0.260	0.060	-0.310
2020/01/31 20:09:46.6	6.300	-0.290	0.060	-0.310
2020/01/31 20:09:46.7	6.330	-0.330	0.070	-0.320
2020/01/31 20:09:46.8	6.350	-0.360	0.070	-0.330
2020/01/31 20:09:46.9	6.370	-0.400	0.060	-0.340
2020/01/31 20:09:47.0	6.400	-0.430	0.060	-0.350
2020/01/31 20:09:47.1	6.430	-0.460	0.050	-0.360
2020/01/31 20:09:47.2	6.460	-0.490	0.040	-0.370
2020/01/31 20:09:47.3	6.480	-0.520	0.020	-0.390
2020/01/31 20:09:47.4	6.510	-0.540	0.010	-0.400
2020/01/31 20:09:47.5	6.540	-0.570	-0.010	-0.420
2020/01/31 20:09:47.6	6.560	-0.590	-0.030	-0.440
2020/01/31 20:09:47.7	6.580	-0.600	-0.050	-0.450
2020/01/31 20:09:47.8	6.600	-0.610	-0.070	-0.470
2020/01/31 20:09:47.9	6.620	-0.620	-0.100	-0.480
2020/01/31 20:09:48.0	6.630	-0.630	-0.120	-0.490
2020/01/31 20:09:48.1	6.650	-0.630	-0.140	-0.500
2020/01/31 20:09:48.2	6.660	-0.630	-0.160	-0.510
2020/01/31 20:09:48.3	6.670	-0.620	-0.180	-0.510
2020/01/31 20:09:48.4	6.670	-0.610	-0.200	-0.510
2020/01/31 20:09:48.5	6.670	-0.600	-0.210	-0.510
2020/01/31 20:09:48.6	6.670	-0.580	-0.230	-0.500
2020/01/31 20:09:48.7	6.670	-0.560	-0.240	-0.500
2020/01/31 20:09:48.8	6.670	-0.540	-0.260	-0.480
2020/01/31 20:09:48.9	6.660	-0.510	-0.260	-0.470
2020/01/31 20:09:49.0	6.650	-0.480	-0.270	-0.460
2020/01/31 20:09:49.1	6.640	-0.450	-0.280	-0.440
2020/01/31 20:09:49.2	6.620	-0.410	-0.290	-0.420
2020/01/31 20:09:49.3	6.610	-0.370	-0.290	-0.390
2020/01/31 20:09:49.4	6.590	-0.330	-0.300	-0.370
2020/01/31 20:09:49.5	6.570	-0.290	-0.300	-0.340
2020/01/31 20:09:49.6	6.550	-0.250	-0.300	-0.310
2020/01/31 20:09:49.7	6.530	-0.200	-0.300	-0.280
2020/01/31 20:09:49.8	6.510	-0.160	-0.300	-0.250
2020/01/31 20:09:49.9	6.480	-0.110	-0.300	-0.220
2020/01/31 20:09:50.0	6.460	-0.070	-0.300	-0.180
2020/01/31 20:09:50.1	6.430	-0.020	-0.290	-0.150
2020/01/31 20:09:50.2	6.410	0.020	-0.290	-0.110
2020/01/31 20:09:50.3	6.380	0.070	-0.290	-0.080
2020/01/31 20:09:50.4	6.350	0.110	-0.280	-0.040
2020/01/31 20:09:50.5	6.330	0.150	-0.280	-0.010
2020/01/31 20:09:50.6	6.300	0.190	-0.270	0.030
2020/01/31 20:09:50.7	6.280	0.220	-0.270	0.060
2020/01/31 20:09:50.8	6.250	0.260	-0.260	0.090
2020/01/31 20:09:50.9	6.230	0.290	-0.260	0.120
2020/01/31 20:09:51.0	6.200	0.320	-0.250	0.150
2020/01/31 20:09:51.1	6.170	0.340	-0.240	0.180
2020/01/31 20:09:51.2	6.140	0.360	-0.240	0.200
2020/01/31 20:09:51.3	6.110	0.380	-0.230	0.230
2020/01/31 20:09:51.4	6.080	0.390	-0.220	0.240
2020/01/31 20:09:51.5	6.050	0.400	-0.210	0.260
2020/01/31 20:09:51.6	6.020	0.410	-0.200	0.270
2020/01/31 20:09:51.7	5.990	0.410	-0.190	0.280
2020/01/31 20:09:51.8	5.960	0.410	-0.180	0.290
2020/01/31 20:09:51.9	5.930	0.400	-0.170	0.290
2020/01/31 20:09:52.0	5.900	0.400	-0.160	0.290
2020/01/31 20:09:52.1	5.880	0.380	-0.150	0.280
2020/01/31 20:09:52.2	5.850	0.370	-0.140	0.280
2020/01/31 20:09:52.3	5.830	0.350	-0.130	0.270
2020/01/31 20:09:52.4	5.810	0.340	-0.130	0.250
2020/01/31 20:09:52.5	5.790	0.320	-0.120	0.230
2020/01/31 20:09:52.6	5.770	0.290	-0.120	0.210
2020/01/31 20:09:52.7	5.760	0.270	-0.110	0.190
2020/01/31 20:09:52.8	5.740	0.250	-0.110	0.160
2020/01/31 20:09:52.9	5.740	0.230	-0.110	0.130
2020/01/31 20:09:53.0	5.740	0.200	-0.120	0.100
2020/01/31 20:09:53.1	5.730	0.180	-0.120	0.070
2020/01/31 20:09:53.2	5.730	0.160	-0.130	0.030
2020/01/31 20:09:53.3	5.730	0.140	-0.130	-0.000
2020/01/31 20:09:53.4	5.740	0.120	-0.140	-0.040
2020/01/31 20:09:53.5	5.740	0.110	-0.150	-0.080
2020/01/31 20:09:53.6	5.750	0.090	-0.170	-0.120
2020/01/31 20:09:53.7	5.760	0.080	-0.180	-0.160
2020/01/31 20:09:53.8	5.770	0.070	-0.190	-0.200
2020/01/31 20:09:53.9	5.790	0.060	-0.210	-0.240
2020/01/31 20:09:54.0	5.810	0.050	-0.230	-0.280
2020/01/31 20:09:54.1	5.820	0.050	-0.250	-0.320
2020/01/31 20:09:54.2	5.840	0.050	-0.270	-0.360
2020/01/31 20:09:54.3	5.860	0.050	-0.290	-0.400
2020/01/31 20:09:54.4	5.880	0.060	-0.310	-0.440
2020/01/31 20:09:54.5	5.910	0.070	-0.330	-0.470
2020/01/31 20:09:54.6	5.930	0.080	-0.360	-0.510
2020/01/31 20:09:54.7	5.950	0.090	-0.380	-0.540
2020/01/31 20:09:54.8	5.970	0.100	-0.400	-0.570
2020/01/31 20:09:54.9	5.990	0.120	-0.420	-0.600
2020/01/31 20:09:55.0	6.010	0.140	-0.440	-0.620
2020/01/31 20:09:55.1	6.030	0.150	-0.460	-0.650
2020/01/31 20:09:55.2	6.050	0.170	-0.480	-0.670
2020/01/31 20:09:55.3	6.070	0.190	-0.500	-0.690
2020/01/31 20:09:55.4	6.090	0.210	-0.510	-0.700
2020/01/31 20:09:55.5	6.110	0.230	-0.530	-0.710
2020/01/31 20:09:55.6	6.130	0.250	-0.540	-0.720
2020/01/31 20:09:55.7	6.150	0.270	-0.540	-0.720
2020/01/31 20:09:55.8	6.160	0.280	-0.550	-0.730
2020/01/31 20:09:55.9	6.180	0.300	-0.550	-0.720
2020/01/31 20:09:56.0	6.190	0.310	-0.560	-0.720
2020/01/31 20:09:56.1	6.210	0.330	-0.550	-0.710
2020/01/31 20:09:56.2	6.220	0.340	-0.550	-0.690
2020/01/31 20:09:56.3	6.230	0.350	-0.550	-0.670
2020/01/31 20:09:56.4	6.240	0.350	-0.540	-0.650
2020/01/31 20:09:56.5	6.240	0.360	-0.530	-0.630
2020/01/31 20:09:56.6	6.250	0.360	-0.520	-0.600
2020/01/31 20:09:56.7	6.260	0.350	-0.510	-0.570
2020/01/31 20:09:56.8	6.260	0.350	-0.500	-0.550
2020/01/31 20:09:56.9	6.260	0.340	-0.480	-0.510
2020/01/31 20:09:57.0	6.270	0.330	-0.470	-0.480
2020/01/31 20:09:57.1	6.270	0.320	-0.460	-0.450
2020/01/31 20:09:57.2	6.280	0.310	-0.450	-0.420
2020/01/31 20:09:57.3	6.280	0.290	-0.440	-0.390
2020/01/31 20:09:57.4	6.290	0.270	-0.430	-0.370
2020/01/31 20:09:57.5	6.300	0.250	-0.420	-0.340
2020/01/31 20:09:57.6	6.300	0.220	-0.410	-0.320
2020/01/31 20:09:57.7	6.310	0.200	-0.400	-0.290
2020/01/31 20:09:57.8	6.310	0.170	-0.390	-0.270
2020/01/31 20:09:57.9	6.320	0.140	-0.380	-0.250
2020/01/31 20:09:58.0	6.320	0.110	-0.370	-0.240
2020/01/31 20:09:58.1	6.330	0.080	-0.360	-0.220
2020/01/31 20:09:58.2	6.330	0.050	-0.350	-0.210
2020/01/31 20:09:58.3	6.330	0.020	-0.350	-0.200
2020/01/31 20:09:58.4	6.330	-0.010	-0.340	-0.190
2020/01/31 20:09:58.5	6.330	-0.050	-0.330	-0.190
2020/01/31 20:09:58.6	6.340	-0.080	-0.330	-0.190
2020/01/31 20:09:58.7	6.340	-0.110	-0.320	-0.190
2020/01/31 20:09:58.8	6.330	-0.140	-0.310	-0.190
2020/01/31 20:09:58.9	6.330	-0.170	-0.300	-0.190
2020/01/31 20:09:59.0	6.330	-0.200	-0.290	-0.200
2020/01/31 20:09:59.1	6.330	-0.230	-0.280	-0.210
2020/01/31 20:09:59.2	6.330	-0.260	-0.270	-0.220
2020/01/31 20:09:59.3	6.330	-0.280	-0.260	-0.230
2020/01/31 20:09:59.4	6.330	-0.310	-0.250	-0.250
2020/01/31 20:09:59.5	6.330	-0.330	-0.240	-0.260
2020/01/31 20:09:59.6	6.330	-0.350	-0.230	-0.280
2020/01/31 20:09:59.7	6.330	-0.370	-0.220	-0.300
2020/01/31 20:09:59.8	6.340	-0.380	-0.200	-0.310
2020/01/31 20:09:59.9	6.330	-0.400	-0.190	-0.330
2020/01/31 20:10:00.0	6.330	-0.410	-0.180	-0.350
2020/01/31 20:10:00.1	6.340	-0.420	-0.160	-0.370
2020/01/31 20:10:00.2	6.340	-0.430	-0.150	-0.380
2020/01/31 20:10:00.3	6.340	-0.440	-0.140	-0.400
2020/01/31 20:10:00.4	6.340	-0.450	-0.120	-0.410
2020/01/31 20:10:00.5	6.340	-0.450	-0.110	-0.420
2020/01/31 20:10:00.6	6.340	-0.450	-0.090	-0.430
2020/01/31 20:10:00.7	6.340	-0.450	-0.080	-0.440
2020/01/31 20:10:00.8	6.340	-0.450	-0.060	-0.450
2020/01/31 20:10:00.9	6.340	-0.450	-0.040	-0.450
2020/01/31 20:10:01.0	6.340	-0.450	-0.030	-0.450
2020/01/31 20:10:01.1	6.330	-0.450	-0.010	-0.460
2020/01/31 20:10:01.2	6.330	-0.440	0.010	-0.450
2020/01/31 20:10:01.3	6.320	-0.440	0.030	-0.450
2020/01/31 20:10:01.4	6.310	-0.430	0.050	-0.440
2020/01/31 20:10:01.5	6.300	-0.420	0.070	-0.440
2020/01/31 20:10:01.6	6.290	-0.410	0.090	-0.430
2020/01/31 20:10:01.7	6.280	-0.410	0.110	-0.410
2020/01/31 20:10:01.8	6.270	-0.400	0.130	-0.400
2020/01/31 20:10:01.9	6.250	-0.390	0.150	-0.390
2020/01/31 20:10:02.0	6.240	-0.380	0.170	-0.370
2020/01/31 20:10:02.1	6.220	-0.360	0.190	-0.350
2020/01/31 20:10:02.2	6.210	-0.350	0.210	-0.330
2020/01/31 20:10:02.3	6.190	-0.340	0.230	-0.310
2020/01/31 20:10:02.4	6.180	-0.320	0.250	-0.290
2020/01/31 20:10:02.5	6.160	-0.310	0.260	-0.270
2020/01/31 20:10:02.6	6.140	-0.290	0.280	-0.240
2020/01/31 20:10:02.7	6.130	-0.280	0.290	-0.220
2020/01/31 20:10:02.8	6.110	-0.260	0.300	-0.200
2020/01/31 20:10:02.9	6.090	-0.240	0.310	-0.170
2020/01/31 20:10:03.0	6.080	-0.220	0.320	-0.150
2020/01/31 20:10:03.1	6.060	-0.200	0.320	-0.120
2020/01/31 20:10:03.2	6.050	-0.180	0.330	-0.090
2020/01/31 20:10:03.3	6.030	-0.160	0.320	-0.060
2020/01/31 20:10:03.4	6.010	-0.130	0.320	-0.030
2020/01/31 20:10:03.5	6.000	-0.110	0.310	-0.000
2020/01/31 20:10:03.6	5.980	-0.080	0.300	0.030
2020/01/31 20:10:03.7	5.960	-0.060	0.290	0.060
2020/01/31 20:10:03.8	5.940	-0.030	0.270	0.100
2020/01/31 20:10:03.9	5.920	-0.010	0.240	0.130
2020/01/31 20:10:04.0	5.900	0.020	0.220	0.170
2020/01/31 20:10:04.1	5.880	0.050	0.190	0.200
2020/01/31 20:10:04.2	5.860	0.070	0.150	0.240
2020/01/31 20:10:04.3	5.840	0.100	0.110	0.270
2020/01/31 20:10:04.4	5.820	0.130	0.070	0.300
2020/01/31 20:10:04.5	5.800	0.150	0.030	0.330
2020/01/31 20:10:04.6	5.770	0.180	-0.020	0.360
2020/01/31 20:10:04.7	5.750	0.200	-0.070	0.380
2020/01/31 20:10:04.8	5.730	0.230	-0.120	0.400
2020/01/31 20:10:04.9	5.710	0.250	-0.180	0.430
2020/01/31 20:10:05.0	5.680	0.270	-0.230	0.440
2020/01/31 20:10:05.1	5.660	0.290	-0.290	0.460
2020/01/31 20:10:05.2	5.640	0.310	-0.350	0.470
2020/01/31 20:10:05.3	5.620	0.330	-0.410	0.470
2020/01/31 20:10:05.4	5.600	0.350	-0.460	0.480
2020/01/31 20:10:05.5	5.580	0.360	-0.520	0.480
2020/01/31 20:10:05.6	5.560	0.370	-0.570	0.470
2020/01/31 20:10:05.7	5.540	0.380	-0.630	0.470
2020/01/31 20:10:05.8	5.520	0.390	-0.680	0.460
2020/01/31 20:10:05.9	5.510	0.400	-0.730	0.440
2020/01/31 20:10:06.0	5.490	0.410	-0.770	0.430
2020/01/31 20:10:06.1	5.480	0.410	-0.810	0.410
2020/01/31 20:10:06.2	5.470	0.410	-0.840	0.390
2020/01/31 20:10:06.3	5.460	0.410	-0.870	0.370
2020/01/31 20:10:06.4	5.450	0.410	-0.900	0.350
2020/01/31 20:10:06.5	5.440	0.410	-0.920	0.320
2020/01/31 20:10:06.6	5.440	0.400	-0.940	0.300
2020/01/31 20:10:06.7	5.430	0.390	-0.960	0.270
2020/01/31 20:10:06.8	5.430	0.390	-0.970	0.240
2020/01/31 20:10:06.9	5.440	0.380	-0.970	0.220
2020/01/31 20:10:07.0	5.440	0.370	-0.980	0.190
2020/01/31 20:10:07.1	5.450	0.360	-0.980	0.150
2020/01/31 20:10:07.2	5.450	0.340	-0.980	0.120
2020/01/31 20:10:07.3	5.460	0.330	-0.970	0.090
2020/01/31 20:10:07.4	5.470	0.320	-0.970	0.050
2020/01/31 20:10:07.5	5.490	0.300	-0.960	0.010
2020/01/31 20:10:07.6	5.500	0.280	-0.950	-0.030
2020/01/31 20:10:07.7	5.520	0.270	-0.940	-0.070
2020/01/31 20:10:07.8	5.540	0.250	-0.920	-0.110
2020/01/31 20:10:07.9	5.560	0.230	-0.910	-0.150
2020/01/31 20:10:08.0	5.590	0.210	-0.890	-0.200
2020/01/31 20:10:08.1	5.610	0.190	-0.870	-0.240
2020/01/31 20:10:08.2	5.640	0.170	-0.850	-0.290
2020/01/31 20:10:08.3	5.660	0.150	-0.830	-0.340
2020/01/31 20:10:08.4	5.690	0.130	-0.810	-0.380
2020/01/31 20:10:08.5	5.720	0.100	-0.780	-0.430
2020/01/31 20:10:08.6	5.750	0.080	-0.760	-0.470
2020/01/31 20:10:08.7	5.780	0.060	-0.730	-0.520
2020/01/31 20:10:08.8	5.810	0.040	-0.700	-0.560
2020/01/31 20:10:08.9	5.850	0.010	-0.670	-0.600
2020/01/31 20:10:09.0	5.880	-0.010	-0.640	-0.640
2020/01/31 20:10:09.1	5.910	-0.030	-0.610	-0.680
2020/01/31 20:10:09.2	5.940	-0.050	-0.580	-0.710
2020/01/31 20:10:09.3	5.960	-0.070	-0.540	-0.740
2020/01/31 20:10:09.4	5.990	-0.090	-0.510	-0.770
2020/01/31 20:10:09.5	6.010	-0.110	-0.470	-0.800
2020/01/31 20:10:09.6	6.030	-0.130	-0.430	-0.820
2020/01/31 20:10:09.7	6.050	-0.150	-0.400	-0.830
2020/01/31 20:10:09.8	6.070	-0.170	-0.360	-0.850
2020/01/31 20:10:09.9	6.090	-0.180	-0.320	-0.860
2020/01/31 20:10:10.0	6.100	-0.190	-0.280	-0.870
2020/01/31 20:10:10.1	6.120	-0.210	-0.240	-0.870
2020/01/31 20:10:10.2	6.140	-0.220	-0.200	-0.870
2020/01/31 20:10:10.3	6.150	-0.220	-0.170	-0.860
2020/01/31 20:10:10.4	6.160	-0.230	-0.130	-0.860
2020/01/31 20:10:10.5	6.180	-0.230	-0.090	-0.850
2020/01/31 20:10:10.6	6.190	-0.240	-0.060	-0.830
2020/01/31 20:10:10.7	6.200	-0.240	-0.030	-0.810
2020/01/31 20:10:10.8	6.210	-0.230	0.010	-0.790
2020/01/31 20:10:10.9	6.230	-0.230	0.040	-0.770
2020/01/31 20:10:11.0	6.240	-0.220	0.070	-0.740
2020/01/31 20:10:11.1	6.240	-0.220	0.090	-0.710
2020/01/31 20:10:11.2	6.250	-0.210	0.120	-0.670
2020/01/31 20:10:11.3	6.260	-0.190	0.150	-0.640
2020/01/31 20:10:11.4	6.260	-0.180	0.170	-0.600
2020/01/31 20:10:11.5	6.260	-0.170	0.200	-0.550
2020/01/31 20:10:11.6	6.260	-0.150	0.220	-0.510
2020/01/31 20:10:11.7	6.260	-0.140	0.240	-0.460
2020/01/31 20:10:11.8	6.260	-0.120	0.260	-0.410
2020/01/31 20:10:11.9	6.240	-0.110	0.280	-0.360
2020/01/31 20:10:12.0	6.230	-0.090	0.300	-0.310
2020/01/31 20:10:12.1	6.220	-0.080	0.320	-0.250
2020/01/31 20:10:12.2	6.200	-0.070	0.340	-0.200
2020/01/31 20:10:12.3	6.190	-0.050	0.360	-0.140
2020/01/31 20:10:12.4	6.170	-0.040	0.370	-0.090
2020/01/31 20:10:12.5	6.150	-0.030	0.390	-0.040
2020/01/31 20:10:12.6	6.120	-0.020	0.400	0.020
2020/01/31 20:10:12.7	6.100	-0.010	0.420	0.070
2020/01/31 20:10:12.8	6.070	-0.000	0.430	0.120
2020/01/31 20:10:12.9	6.030	0.000	0.440	0.170
2020/01/31 20:10:13.0	6.000	0.000	0.450	0.220
2020/01/31 20:10:13.1	5.970	0.010	0.450	0.260
2020/01/31 20:10:13.2	5.940	0.010	0.460	0.300
2020/01/31 20:10:13.3	5.900	0.010	0.460	0.340
2020/01/31 20:10:13.4	5.870	0.010	0.460	0.380
2020/01/31 20:10:13.5	5.840	0.000	0.450	0.410
2020/01/31 20:10:13.6	5.800	-0.000	0.440	0.440
2020/01/31 20:10:13.7	5.770	-0.010	0.430	0.470
2020/01/31 20:10:13.8	5.740	-0.010	0.410	0.490
2020/01/31 20:10:13.9	5.720	-0.020	0.390	0.510
2020/01/31 20:10:14.0	5.690	-0.030	0.360	0.520
2020/01/31 20:10:14.1	5.660	-0.030	0.330	0.520
2020/01/31 20:10:14.2	5.640	-0.040	0.300	0.530
2020/01/31 20:10:14.3	5.620	-0.050	0.260	0.520
2020/01/31 20:10:14.4	5.590	-0.050	0.220	0.510
2020/01/31 20:10:14.5	5.580	-0.060	0.180	0.500
2020/01/31 20:10:14.6	5.560	-0.070	0.130	0.490
2020/01/31 20:10:14.7	5.540	-0.070	0.080	0.460
2020/01/31 20:10:14.8	5.530	-0.070	0.030	0.440
2020/01/31 20:10:14.9	5.520	-0.080	-0.020	0.410
2020/01/31 20:10:15.0	5.520	-0.080	-0.080	0.380
2020/01/31 20:10:15.1	5.510	-0.080	-0.140	0.350
2020/01/31 20:10:15.2	5.500	-0.080	-0.200	0.320
2020/01/31 20:10:15.3	5.500	-0.080	-0.250	0.280
2020/01/31 20:10:15.4	5.490	-0.080	-0.310	0.250
2020/01/31 20:10:15.5	5.490	-0.070	-0.360	0.210
2020/01/31 20:10:15.6	5.490	-0.070	-0.410	0.180
2020/01/31 20:10:15.7	5.480	-0.070	-0.460	0.140
2020/01/31 20:10:15.8	5.480	-0.060	-0.510	0.110
2020/01/31 20:10:15.9	5.480	-0.060	-0.560	0.070
2020/01/31 20:10:16.0	5.470	-0.050	-0.600	0.040
2020/01/31 20:10:16.1	5.470	-0.040	-0.630	0.000
2020/01/31 20:10:16.2	5.470	-0.040	-0.660	-0.030
2020/01/31 20:10:16.3	5.470	-0.030	-0.690	-0.060
2020/01/31 20:10:16.4	5.460	-0.030	-0.720	-0.090
2020/01/31 20:10:16.5	5.460	-0.020	-0.730	-0.120
2020/01/31 20:10:16.6	5.460	-0.010	-0.750	-0.150
2020/01/31 20:10:16.7	5.450	-0.010	-0.760	-0.180
2020/01/31 20:10:16.8	5.450	-0.000	-0.770	-0.210
2020/01/31 20:10:16.9	5.450	0.000	-0.780	-0.230
2020/01/31 20:10:17.0	5.440	0.010	-0.780	-0.260
2020/01/31 20:10:17.1	5.440	0.010	-0.780	-0.280
2020/01/31 20:10:17.2	5.440	0.020	-0.780	-0.310
2020/01/31 20:10:17.3	5.440	0.030	-0.780	-0.330
2020/01/31 20:10:17.4	5.440	0.030	-0.780	-0.350
2020/01/31 20:10:17.5	5.440	0.040	-0.770	-0.380
2020/01/31 20:10:17.6	5.440	0.050	-0.770	-0.400
2020/01/31 20:10:17.7	5.450	0.050	-0.770	-0.420
2020/01/31 20:10:17.8	5.450	0.060	-0.760	-0.440
2020/01/31 20:10:17.9	5.470	0.070	-0.760	-0.470
2020/01/31 20:10:18.0	5.480	0.080	-0.760	-0.490
2020/01/31 20:10:18.1	5.490	0.090	-0.760	-0.510
2020/01/31 20:10:18.2	5.500	0.100	-0.770	-0.530
2020/01/31 20:10:18.3	5.520	0.110	-0.770	-0.550
2020/01/31 20:10:18.4	5.540	0.120	-0.770	-0.570
2020/01/31 20:10:18.5	5.550	0.130	-0.780	-0.580
2020/01/31 20:10:18.6	5.570	0.150	-0.780	-0.600
2020/01/31 20:10:18.7	5.590	0.160	-0.790	-0.620
2020/01/31 20:10:18.8	5.620	0.170	-0.790	-0.630
2020/01/31 20:10:18.9	5.650	0.180	-0.800	-0.650
2020/01/31 20:10:19.0	5.670	0.200	-0.810	-0.660
2020/01/31 20:10:19.1	5.700	0.210	-0.810	-0.670
2020/01/31 20:10:19.2	5.720	0.220	-0.810	-0.680
2020/01/31 20:10:19.3	5.750	0.230	-0.810	-0.690
2020/01/31 20:10:19.4	5.780	0.240	-0.810	-0.690
2020/01/31 20:10:19.5	5.810	0.250	-0.810	-0.700
2020/01/31 20:10:19.6	5.830	0.260	-0.800	-0.700
2020/01/31 20:10:19.7	5.860	0.270	-0.790	-0.700
2020/01/31 20:10:19.8	5.890	0.280	-0.770	-0.690
2020/01/31 20:10:19.9	5.910	0.280	-0.750	-0.690
2020/01/31 20:10:20.0	5.940	0.290	-0.730	-0.670
2020/01/31 20:10:20.1	5.960	0.290	-0.700	-0.660
2020/01/31 20:10:20.2	5.980	0.290	-0.660	-0.640
2020/01/31 20:10:20.3	6.000	0.290	-0.620	-0.610
2020/01/31 20:10:20.4	6.020	0.290	-0.570	-0.580
2020/01/31 20:10:20.5	6.030	0.290	-0.520	-0.540
2020/01/31 20:10:20.6	6.040	0.280	-0.460	-0.500
2020/01/31 20:10:20.7	6.050	0.270	-0.390	-0.450
2020/01/31 20:10:20.8	6.050	0.260	-0.320	-0.400
2020/01/31 20:10:20.9	6.050	0.250	-0.250	-0.350
2020/01/31 20:10:21.0	6.040	0.230	-0.170	-0.290
2020/01/31 20:10:21.1	6.040	0.210	-0.080	-0.230
2020/01/31 20:10:21.2	6.030	0.190	0.000	-0.170
2020/01/31 20:10:21.3	6.010	0.170	0.090	-0.110
2020/01/31 20:10:21.4	6.000	0.140	0.180	-0.040
2020/01/31 20:10:21.5	5.980	0.120	0.270	0.020
2020/01/31 20:10:21.6	5.960	0.090	0.360	0.090
2020/01/31 20:10:21.7	5.940	0.060	0.450	0.150
2020/01/31 20:10:21.8	5.910	0.020	0.530	0.220
2020/01/31 20:10:21.9	5.890	-0.010	0.610	0.280
2020/01/31 20:10:22.0	5.860	-0.050	0.680	0.330
2020/01/31 20:10:22.1	5.830	-0.090	0.750	0.390
2020/01/31 20:10:22.2	5.810	-0.130	0.810	0.430
2020/01/31 20:10:22.3	5.780	-0.160	0.870	0.480
2020/01/31 20:10:22.4	5.750	-0.200	0.910	0.510
2020/01/31 20:10:22.5	5.720	-0.240	0.950	0.540
2020/01/31 20:10:22.6	5.690	-0.280	0.980	0.570
2020/01/31 20:10:22.7	5.670	-0.310	1.000	0.590
2020/01/31 20:10:22.8	5.640	-0.350	1.010	0.600
2020/01/31 20:10:22.9	5.620	-0.380	1.010	0.610
2020/01/31 20:10:23.0	5.600	-0.410	1.000	0.610
2020/01/31 20:10:23.1	5.580	-0.440	0.980	0.600
2020/01/31 20:10:23.2	5.560	-0.470	0.950	0.580
2020/01/31 20:10:23.3	5.540	-0.490	0.910	0.560
2020/01/31 20:10:23.4	5.520	-0.510	0.860	0.530
2020/01/31 20:10:23.5	5.510	-0.530	0.790	0.490
2020/01/31 20:10:23.6	5.500	-0.540	0.720	0.450
2020/01/31 20:10:23.7	5.490	-0.550	0.640	0.410
2020/01/31 20:10:23.8	5.480	-0.560	0.550	0.360
2020/01/31 20:10:23.9	5.480	-0.560	0.460	0.300
2020/01/31 20:10:24.0	5.470	-0.550	0.350	0.240
2020/01/31 20:10:24.1	5.480	-0.540	0.240	0.180
2020/01/31 20:10:24.2	5.480	-0.530	0.130	0.120
2020/01/31 20:10:24.3	5.480	-0.510	0.010	0.060
2020/01/31 20:10:24.4	5.490	-0.490	-0.110	-0.010
2020/01/31 20:10:24.5	5.500	-0.460	-0.230	-0.070
2020/01/31 20:10:24.6	5.520	-0.430	-0.350	-0.140
2020/01/31 20:10:24.7	5.530	-0.400	-0.470	-0.200
2020/01/31 20:10:24.8	5.550	-0.360	-0.600	-0.260
2020/01/31 20:10:24.9	5.560	-0.310	-0.710	-0.320
2020/01/31 20:10:25.0	5.580	-0.270	-0.830	-0.380
2020/01/31 20:10:25.1	5.600	-0.220	-0.940	-0.430
2020/01/31 20:10:25.2	5.630	-0.170	-1.040	-0.490
2020/01/31 20:10:25.3	5.650	-0.120	-1.140	-0.540
2020/01/31 20:10:25.4	5.670	-0.060	-1.230	-0.580
2020/01/31 20:10:25.5	5.700	-0.010	-1.310	-0.630
2020/01/31 20:10:25.6	5.720	0.050	-1.390	-0.670
2020/01/31 20:10:25.7	5.740	0.110	-1.450	-0.700
2020/01/31 20:10:25.8	5.760	0.160	-1.500	-0.730
2020/01/31 20:10:25.9	5.790	0.220	-1.550	-0.760
2020/01/31 20:10:26.0	5.810	0.270	-1.580	-0.780
2020/01/31 20:10:26.1	5.830	0.330	-1.600	-0.790
2020/01/31 20:10:26.2	5.850	0.380	-1.600	-0.790
2020/01/31 20:10:26.3	5.860	0.430	-1.600	-0.790
2020/01/31 20:10:26.4	5.870	0.480	-1.580	-0.780
2020/01/31 20:10:26.5	5.880	0.520	-1.550	-0.770
2020/01/31 20:10:26.6	5.880	0.560	-1.520	-0.750
2020/01/31 20:10:26.7	5.880	0.600	-1.470	-0.720
2020/01/31 20:10:26.8	5.880	0.630	-1.410	-0.690
2020/01/31 20:10:26.9	5.890	0.660	-1.340	-0.660
2020/01/31 20:10:27.0	5.880	0.690	-1.260	-0.610
2020/01/31 20:10:27.1	5.860	0.710	-1.170	-0.570
2020/01/31 20:10:27.2	5.850	0.720	-1.070	-0.520
2020/01/31 20:10:27.3	5.830	0.730	-0.970	-0.460
2020/01/31 20:10:27.4	5.800	0.740	-0.870	-0.400
2020/01/31 20:10:27.5	5.770	0.740	-0.760	-0.340
2020/01/31 20:10:27.6	5.740	0.740	-0.640	-0.280
2020/01/31 20:10:27.7	5.710	0.730	-0.530	-0.210
2020/01/31 20:10:27.8	5.680	0.720	-0.410	-0.150
2020/01/31 20:10:27.9	5.650	0.700	-0.300	-0.080
2020/01/31 20:10:28.0	5.620	0.680	-0.190	-0.020
2020/01/31 20:10:28.1	5.580	0.660	-0.090	0.050
2020/01/31 20:10:28.2	5.550	0.630	0.020	0.110
2020/01/31 20:10:28.3	5.520	0.600	0.120	0.160
2020/01/31 20:10:28.4	5.480	0.570	0.210	0.220
2020/01/31 20:10:28.5	5.450	0.530	0.290	0.270
2020/01/31 20:10:28.6	5.420	0.490	0.360	0.310
2020/01/31 20:10:28.7	5.400	0.450	0.430	0.350
2020/01/31 20:10:28.8	5.370	0.400	0.490	0.380
2020/01/31 20:10:28.9	5.350	0.350	0.540	0.400
2020/01/31 20:10:29.0	5.330	0.310	0.570	0.420
2020/01/31 20:10:29.1	5.320	0.260	0.600	0.440
2020/01/31 20:10:29.2	5.300	0.210	0.620	0.440
2020/01/31 20:10:29.3	5.290	0.150	0.630	0.440
2020/01/31 20:10:29.4	5.290	0.100	0.630	0.430
2020/01/31 20:10:29.5	5.280	0.050	0.620	0.420
2020/01/31 20:10:29.6	5.280	-0.000	0.600	0.400
2020/01/31 20:10:29.7	5.290	-0.050	0.570	0.370
2020/01/31 20:10:29.8	5.290	-0.110	0.540	0.340
2020/01/31 20:10:29.9	5.300	-0.160	0.500	0.300
2020/01/31 20:10:30.0	5.310	-0.210	0.450	0.260
2020/01/31 20:10:30.1	5.330	-0.250	0.400	0.210
2020/01/31 20:10:30.2	5.350	-0.300	0.340	0.160
2020/01/31 20:10:30.3	5.370	-0.340	0.280	0.100
2020/01/31 20:10:30.4	5.390	-0.390	0.210	0.040
2020/01/31 20:10:30.5	5.420	-0.430	0.140	-0.020
2020/01/31 20:10:30.6	5.440	-0.460	0.070	-0.080
2020/01/31 20:10:30.7	5.470	-0.500	0.000	-0.150
2020/01/31 20:10:30.8	5.500	-0.530	-0.070	-0.210
2020/01/31 20:10:30.9	5.530	-0.560	-0.140	-0.280
2020/01/31 20:10:31.0	5.560	-0.580	-0.210	-0.340
2020/01/31 20:10:31.1	5.600	-0.600	-0.270	-0.400
2020/01/31 20:10:31.2	5.630	-0.620	-0.330	-0.460
2020/01/31 20:10:31.3	5.670	-0.640	-0.390	-0.520
2020/01/31 20:10:31.4	5.700	-0.650	-0.440	-0.580
2020/01/31 20:10:31.5	5.740	-0.660	-0.490	-0.630
2020/01/31 20:10:31.6	5.770	-0.660	-0.540	-0.680
2020/01/31 20:10:31.7	5.800	-0.670	-0.570	-0.720
2020/01/31 20:10:31.8	5.840	-0.670	-0.600	-0.760
2020/01/31 20:10:31.9	5.850	-0.670	-0.630	-0.800
2020/01/31 20:10:32.0	5.880	-0.660	-0.640	-0.840
2020/01/31 20:10:32.1	5.910	-0.660	-0.660	-0.870
2020/01/31 20:10:32.2	5.930	-0.650	-0.660	-0.900
2020/01/31 20:10:32.3	5.950	-0.640	-0.660	-0.920
2020/01/31 20:10:32.4	5.970	-0.630	-0.650	-0.940
2020/01/31 20:10:32.5	5.990	-0.610	-0.630	-0.950
2020/01/31 20:10:32.6	6.000	-0.600	-0.610	-0.960
2020/01/31 20:10:32.7	6.010	-0.580	-0.580	-0.970
2020/01/31 20:10:32.8	6.020	-0.560	-0.540	-0.970
2020/01/31 20:10:32.9	6.020	-0.540	-0.510	-0.960
2020/01/31 20:10:33.0	6.020	-0.520	-0.460	-0.950
2020/01/31 20:10:33.1	6.020	-0.500	-0.410	-0.940
2020/01/31 20:10:33.2	6.020	-0.470	-0.360	-0.920
2020/01/31 20:10:33.3	6.010	-0.450	-0.300	-0.900
2020/01/31 20:10:33.4	6.000	-0.420	-0.250	-0.870
2020/01/31 20:10:33.5	5.990	-0.400	-0.190	-0.840
2020/01/31 20:10:33.6	5.970	-0.370	-0.130	-0.810
2020/01/31 20:10:33.7	5.950	-0.350	-0.060	-0.770
2020/01/31 20:10:33.8	5.930	-0.320	-0.000	-0.730
2020/01/31 20:10:33.9	5.900	-0.290	0.050	-0.680
2020/01/31 20:10:34.0	5.870	-0.270	0.110	-0.630
2020/01/31 20:10:34.1	5.840	-0.240	0.170	-0.580
2020/01/31 20:10:34.2	5.810	-0.220	0.220	-0.530
2020/01/31 20:10:34.3	5.780	-0.190	0.270	-0.470
2020/01/31 20:10:34.4	5.740	-0.170	0.310	-0.410
2020/01/31 20:10:34.5	5.700	-0.140	0.350	-0.350
2020/01/31 20:10:34.6	5.670	-0.120	0.380	-0.280
2020/01/31 20:10:34.7	5.630	-0.100	0.400	-0.220
2020/01/31 20:10:34.8	5.600	-0.070	0.410	-0.160
2020/01/31 20:10:34.9	5.570	-0.050	0.420	-0.100
2020/01/31 20:10:35.0	5.530	-0.020	0.420	-0.050
2020/01/31 20:10:35.1	5.500	0.000	0.410	0.000
2020/01/31 20:10:35.2	5.470	0.020	0.390	0.050
2020/01/31 20:10:35.3	5.440	0.050	0.360	0.100
2020/01/31 20:10:35.4	5.410	0.070	0.320	0.130
2020/01/31 20:10:35.5	5.380	0.100	0.270	0.170
2020/01/31 20:10:35.6	5.360	0.120	0.220	0.200
2020/01/31 20:10:35.7	5.340	0.150	0.160	0.220
2020/01/31 20:10:35.8	5.320	0.180	0.090	0.240
2020/01/31 20:10:35.9	5.310	0.200	0.010	0.250
2020/01/31 20:10:36.0	5.290	0.230	-0.070	0.260
2020/01/31 20:10:36.1	5.280	0.260	-0.160	0.260
2020/01/31 20:10:36.2	5.270	0.290	-0.250	0.260
2020/01/31 20:10:36.3	5.260	0.310	-0.340	0.260
2020/01/31 20:10:36.4	5.260	0.340	-0.440	0.250
2020/01/31 20:10:36.5	5.260	0.370	-0.530	0.240
2020/01/31 20:10:36.6	5.250	0.400	-0.630	0.230
2020/01/31 20:10:36.7	5.250	0.430	-0.720	0.220
2020/01/31 20:10:36.8	5.250	0.460	-0.810	0.210
2020/01/31 20:10:36.9	5.240	0.490	-0.900	0.190
2020/01/31 20:10:37.0	5.240	0.520	-0.980	0.180
2020/01/31 20:10:37.1	5.240	0.550	-1.050	0.170
2020/01/31 20:10:37.2	5.240	0.580	-1.110	0.160
2020/01/31 20:10:37.3	5.240	0.600	-1.170	0.150
2020/01/31 20:10:37.4	5.240	0.630	-1.220	0.150
2020/01/31 20:10:37.5	5.240	0.650	-1.260	0.140
2020/01/31 20:10:37.6	5.240	0.670	-1.290	0.140
2020/01/31 20:10:37.7	5.250	0.690	-1.310	0.130
2020/01/31 20:10:37.8	5.250	0.700	-1.320	0.130
2020/01/31 20:10:37.9	5.250	0.720	-1.320	0.130
2020/01/31 20:10:38.0	5.250	0.720	-1.310	0.130
2020/01/31 20:10:38.1	5.250	0.730	-1.290	0.130
2020/01/31 20:10:38.2	5.250	0.730	-1.260	0.130
2020/01/31 20:10:38.3	5.250	0.730	-1.220	0.130
2020/01/31 20:10:38.4	5.250	0.720	-1.180	0.140
2020/01/31 20:10:38.5	5.250	0.710	-1.130	0.140
2020/01/31 20:10:38.6	5.260	0.700	-1.070	0.140
2020/01/31 20:10:38.7	5.260	0.680	-1.000	0.150
2020/01/31 20:10:38.8	5.260	0.660	-0.930	0.150
2020/01/31 20:10:38.9	5.260	0.640	-0.860	0.150
2020/01/31 20:10:39.0	5.260	0.610	-0.780	0.160
2020/01/31 20:10:39.1	5.270	0.580	-0.700	0.160
2020/01/31 20:10:39.2	5.270	0.550	-0.610	0.170
2020/01/31 20:10:39.3	5.270	0.510	-0.520	0.170
2020/01/31 20:10:39.4	5.270	0.470	-0.440	0.170
2020/01/31 20:10:39.5	5.280	0.420	-0.350	0.180
2020/01/31 20:10:39.6	5.280	0.380	-0.270	0.180
2020/01/31 20:10:39.7	5.280	0.330	-0.180	0.180
2020/01/31 20:10:39.8	5.290	0.280	-0.100	0.180
2020/01/31 20:10:39.9	5.300	0.230	-0.030	0.180
2020/01/31 20:10:40.0	5.300	0.180	0.050	0.170
2020/01/31 20:10:40.1	5.310	0.130	0.120	0.170
2020/01/31 20:10:40.2	5.310	0.080	0.180	0.160
2020/01/31 20:10:40.3	5.320	0.030	0.240	0.160
2020/01/31 20:10:40.4	5.330	-0.020	0.290	0.150
2020/01/31 20:10:40.5	5.330	-0.070	0.330	0.140
2020/01/31 20:10:40.6	5.340	-0.120	0.370	0.120
2020/01/31 20:10:40.7	5.350	-0.160	0.400	0.110
2020/01/31 20:10:40.8	5.370	-0.200	0.430	0.090
2020/01/31 20:10:40.9	5.390	-0.250	0.450	0.080
2020/01/31 20:10:41.0	5.400	-0.280	0.460	0.060
2020/01/31 20:10:41.1	5.410	-0.320	0.460	0.040
2020/01/31 20:10:41.2	5.430	-0.350	0.460	0.010
2020/01/31 20:10:41.3	5.440	-0.380	0.450	-0.010
2020/01/31 20:10:41.4	5.460	-0.410	0.430	-0.030
2020/01/31 20:10:41.5	5.480	-0.430	0.410	-0.060
2020/01/31 20:10:41.6	5.490	-0.450	0.390	-0.090
2020/01/31 20:10:41.7	5.510	-0.470	0.360	-0.120
2020/01/31 20:10:41.8	5.520	-0.490	0.320	-0.150
2020/01/31 20:10:41.9	5.540	-0.500	0.280	-0.180
2020/01/31 20:10:42.0	5.560	-0.510	0.240	-0.220
2020/01/31 20:10:42.1	5.570	-0.510	0.190	-0.250
2020/01/31 20:10:42.2	5.590	-0.520	0.150	-0.290
2020/01/31 20:10:42.3	5.600	-0.520	0.100	-0.330
2020/01/31 20:10:42.4	5.610	-0.510	0.050	-0.370
2020/01/31 20:10:42.5	5.630	-0.510	-0.000	-0.410
2020/01/31 20:10:42.6	5.640	-0.500	-0.060	-0.460
2020/01/31 20:10:42.7	5.660	-0.490	-0.100	-0.500
2020/01/31 20:10:42.8	5.670	-0.480	-0.150	-0.540
2020/01/31 20:10:42.9	5.670	-0.470	-0.200	-0.580
2020/01/31 20:10:43.0	5.680	-0.460	-0.240	-0.620
2020/01/31 20:10:43.1	5.690	-0.440	-0.280	-0.650
2020/01/31 20:10:43.2	5.700	-0.430	-0.320	-0.680
2020/01/31 20:10:43.3	5.700	-0.410	-0.350	-0.700
2020/01/31 20:10:43.4	5.700	-0.400	-0.380	-0.720
2020/01/31 20:10:43.5	5.690	-0.380	-0.400	-0.730
2020/01/31 20:10:43.6	5.680	-0.370	-0.410	-0.740
2020/01/31 20:10:43.7	5.660	-0.350	-0.420	-0.740
2020/01/31 20:10:43.8	5.640	-0.340	-0.420	-0.740
2020/01/31 20:10:43.9	5.610	-0.330	-0.420	-0.720
2020/01/31 20:10:44.0	5.590	-0.320	-0.410	-0.710
2020/01/31 20:10:44.1	5.560	-0.310	-0.390	-0.700
2020/01/31 20:10:44.2	5.520	-0.300	-0.380	-0.680
2020/01/31 20:10:44.3	5.490	-0.290	-0.350	-0.660
2020/01/31 20:10:44.4	5.450	-0.280	-0.330	-0.640
2020/01/31 20:10:44.5	5.410	-0.280	-0.290	-0.620
2020/01/31 20:10:44.6	5.370	-0.270	-0.260	-0.590
2020/01/31 20:10:44.7	5.320	-0.270	-0.220	-0.570
2020/01/31 20:10:44.8	5.280	-0.270	-0.180	-0.540
2020/01/31 20:10:44.9	5.230	-0.270	-0.150	-0.520
2020/01/31 20:10:45.0	5.180	-0.270	-0.110	-0.500
2020/01/31 20:10:45.1	5.130	-0.270	-0.060	-0.470
2020/01/31 20:10:45.2	5.080	-0.260	-0.020	-0.450
2020/01/31 20:10:45.3	5.040	-0.260	0.020	-0.420
2020/01/31 20:10:45.4	4.990	-0.260	0.060	-0.400
2020/01/31 20:10:45.5	4.940	-0.260	0.090	-0.370
2020/01/31 20:10:45.6	4.890	-0.260	0.120	-0.350
2020/01/31 20:10:45.7	4.850	-0.250	0.160	-0.320
2020/01/31 20:10:45.8	4.810	-0.240	0.180	-0.300
2020/01/31 20:10:45.9	4.780	-0.240	0.200	-0.280
2020/01/31 20:10:46.0	4.740	-0.220	0.220	-0.250
2020/01/31 20:10:46.1	4.710	-0.210	0.240	-0.230
2020/01/31 20:10:46.2	4.680	-0.190	0.240	-0.200
2020/01/31 20:10:46.3	4.650	-0.170	0.250	-0.180
2020/01/31 20:10:46.4	4.630	-0.150	0.240	-0.150
2020/01/31 20:10:46.5	4.610	-0.130	0.230	-0.130
2020/01/31 20:10:46.6	4.590	-0.100	0.220	-0.110
2020/01/31 20:10:46.7	4.580	-0.070	0.200	-0.090
2020/01/31 20:10:46.8	4.570	-0.040	0.170	-0.060
2020/01/31 20:10:46.9	4.560	-0.000	0.130	-0.040
2020/01/31 20:10:47.0	4.560	0.030	0.100	-0.030
2020/01/31 20:10:47.1	4.560	0.070	0.050	-0.010
2020/01/31 20:10:47.2	4.560	0.110	0.010	0.000
2020/01/31 20:10:47.3	4.570	0.150	-0.040	0.010
2020/01/31 20:10:47.4	4.580	0.190	-0.100	0.020
2020/01/31 20:10:47.5	4.600	0.230	-0.150	0.030
2020/01/31 20:10:47.6	4.610	0.260	-0.210	0.030
2020/01/31 20:10:47.7	4.630	0.300	-0.270	0.030
2020/01/31 20:10:47.8	4.650	0.330	-0.330	0.020
2020/01/31 20:10:47.9	4.680	0.360	-0.390	0.020
2020/01/31 20:10:48.0	4.700	0.390	-0.450	0.000
2020/01/31 20:10:48.1	4.720	0.420	-0.510	-0.010
2020/01/31 20:10:48.2	4.730	0.440	-0.570	-0.030
2020/01/31 20:10:48.3	4.750	0.450	-0.620	-0.050
2020/01/31 20:10:48.4	4.770	0.470	-0.670	-0.070
2020/01/31 20:10:48.5	4.790	0.470	-0.720	-0.090
2020/01/31 20:10:48.6	4.800	0.480	-0.760	-0.110
2020/01/31 20:10:48.7	4.820	0.470	-0.800	-0.140
2020/01/31 20:10:48.8	4.830	0.470	-0.840	-0.170
2020/01/31 20:10:48.9	4.840	0.460	-0.870	-0.190
2020/01/31 20:10:49.0	4.850	0.440	-0.900	-0.220
2020/01/31 20:10:49.1	4.860	0.430	-0.920	-0.250
2020/01/31 20:10:49.2	4.870	0.400	-0.940	-0.280
2020/01/31 20:10:49.3	4.880	0.380	-0.950	-0.300
2020/01/31 20:10:49.4	4.890	0.350	-0.960	-0.330
2020/01/31 20:10:49.5	4.900	0.320	-0.960	-0.360
2020/01/31 20:10:49.6	4.900	0.280	-0.960	-0.380
2020/01/31 20:10:49.7	4.910	0.250	-0.950	-0.410
2020/01/31 20:10:49.8	4.920	0.210	-0.940	-0.430
2020/01/31 20:10:49.9	4.940	0.170	-0.920	-0.460
2020/01/31 20:10:50.0	4.940	0.140	-0.900	-0.480
2020/01/31 20:10:50.1	4.950	0.100	-0.880	-0.500
2020/01/31 20:10:50.2	4.960	0.060	-0.860	-0.510
2020/01/31 20:10:50.3	4.960	0.030	-0.830	-0.530
2020/01/31 20:10:50.4	4.970	-0.010	-0.800	-0.550
2020/01/31 20:10:50.5	4.980	-0.040	-0.770	-0.560
2020/01/31 20:10:50.6	4.990	-0.060	-0.740	-0.580
2020/01/31 20:10:50.7	5.000	-0.090	-0.700	-0.590
2020/01/31 20:10:50.8	5.010	-0.110	-0.670	-0.600
2020/01/31 20:10:50.9	5.010	-0.120	-0.640	-0.610
2020/01/31 20:10:51.0	5.020	-0.130	-0.600	-0.610
2020/01/31 20:10:51.1	5.030	-0.140	-0.570	-0.610
2020/01/31 20:10:51.2	5.040	-0.140	-0.540	-0.610
2020/01/31 20:10:51.3	5.050	-0.140	-0.510	-0.610
2020/01/31 20:10:51.4	5.060	-0.130	-0.480	-0.600
2020/01/31 20:10:51.5	5.070	-0.120	-0.450	-0.590
2020/01/31 20:10:51.6	5.070	-0.100	-0.420	-0.570
2020/01/31 20:10:51.7	5.070	-0.070	-0.390	-0.550
2020/01/31 20:10:51.8	5.080	-0.050	-0.360	-0.520
2020/01/31 20:10:51.9	5.070	-0.020	-0.330	-0.500
2020/01/31 20:10:52.0	5.060	0.010	-0.300	-0.460
2020/01/31 20:10:52.1	5.060	0.050	-0.270	-0.430
2020/01/31 20:10:52.2	5.050	0.080	-0.250	-0.400
2020/01/31 20:10:52.3	5.040	0.120	-0.220	-0.360
2020/01/31 20:10:52.4	5.030	0.150	-0.190	-0.320
2020/01/31 20:10:52.5	5.020	0.190	-0.160	-0.280
2020/01/31 20:10:52.6	5.010	0.230	-0.130	-0.240
2020/01/31 20:10:52.7	4.990	0.260	-0.100	-0.210
2020/01/31 20:10:52.8	4.980	0.290	-0.080	-0.170
2020/01/31 20:10:52.9	4.950	0.320	-0.050	-0.130
2020/01/31 20:10:53.0	4.930	0.350	-0.020	-0.100
2020/01/31 20:10:53.1	4.910	0.370	0.010	-0.060
2020/01/31 20:10:53.2	4.890	0.390	0.040	-0.030
2020/01/31 20:10:53.3	4.860	0.400	0.070	0.000
2020/01/31 20:10:53.4	4.840	0.410	0.090	0.030
2020/01/31 20:10:53.5	4.810	0.410	0.120	0.060
2020/01/31 20:10:53.6	4.780	0.410	0.150	0.090
2020/01/31 20:10:53.7	4.760	0.410	0.170	0.110
2020/01/31 20:10:53.8	4.730	0.400	0.200	0.130
2020/01/31 20:10:53.9	4.690	0.380	0.220	0.140
2020/01/31 20:10:54.0	4.670	0.360	0.240	0.160
2020/01/31 20:10:54.1	4.640	0.340	0.260	0.170
2020/01/31 20:10:54.2	4.610	0.310	0.280	0.180
2020/01/31 20:10:54.3	4.590	0.270	0.300	0.180
2020/01/31 20:10:54.4	4.560	0.240	0.310	0.180
2020/01/31 20:10:54.5	4.540	0.190	0.320	0.180
2020/01/31 20:10:54.6	4.520	0.150	0.330	0.170
2020/01/31 20:10:54.7	4.490	0.100	0.340	0.160
2020/01/31 20:10:54.8	4.480	0.050	0.340	0.150
2020/01/31 20:10:54.9	4.490	0.000	0.340	0.130
2020/01/31 20:10:55.0	4.470	-0.050	0.330	0.110
2020/01/31 20:10:55.1	4.460	-0.100	0.330	0.080
2020/01/31 20:10:55.2	4.450	-0.160	0.320	0.060
2020/01/31 20:10:55.3	4.450	-0.210	0.300	0.020
2020/01/31 20:10:55.4	4.440	-0.260	0.280	-0.010
2020/01/31 20:10:55.5	4.440	-0.310	0.260	-0.050
2020/01/31 20:10:55.6	4.450	-0.360	0.240	-0.090
2020/01/31 20:10:55.7	4.460	-0.400	0.210	-0.130
2020/01/31 20:10:55.8	4.470	-0.440	0.180	-0.180
2020/01/31 20:10:55.9	4.480	-0.480	0.150	-0.230
2020/01/31 20:10:56.0	4.490	-0.520	0.110	-0.270
2020/01/31 20:10:56.1	4.510	-0.550	0.080	-0.320
2020/01/31 20:10:56.2	4.530	-0.580	0.040	-0.370
2020/01/31 20:10:56.3	4.550	-0.600	0.000	-0.420
2020/01/31 20:10:56.4	4.570	-0.620	-0.040	-0.470
2020/01/31 20:10:56.5	4.590	-0.640	-0.070	-0.520
2020/01/31 20:10:56.6	4.610	-0.650	-0.110	-0.560
2020/01/31 20:10:56.7	4.630	-0.650	-0.150	-0.610
2020/01/31 20:10:56.8	4.650	-0.660	-0.180	-0.650
2020/01/31 20:10:56.9	4.660	-0.660	-0.220	-0.700
2020/01/31 20:10:57.0	4.680	-0.650	-0.250	-0.740
2020/01/31 20:10:57.1	4.700	-0.650	-0.280	-0.770
2020/01/31 20:10:57.2	4.720	-0.630	-0.310	-0.810
2020/01/31 20:10:57.3	4.730	-0.620	-0.330	-0.840
2020/01/31 20:10:57.4	4.740	-0.600	-0.360	-0.870
2020/01/31 20:10:57.5	4.760	-0.580	-0.380	-0.890
2020/01/31 20:10:57.6	4.770	-0.560	-0.390	-0.910
2020/01/31 20:10:57.7	4.770	-0.540	-0.410	-0.930
2020/01/31 20:10:57.8	4.780	-0.510	-0.420	-0.940
2020/01/31 20:10:57.9	4.770	-0.480	-0.440	-0.940
2020/01/31 20:10:58.0	4.770	-0.450	-0.440	-0.940
2020/01/31 20:10:58.1	4.770	-0.420	-0.450	-0.940
2020/01/31 20:10:58.2	4.770	-0.390	-0.450	-0.930
2020/01/31 20:10:58.3	4.770	-0.360	-0.450	-0.920
2020/01/31 20:10:58.4	4.760	-0.330	-0.450	-0.900
2020/01/31 20:10:58.5	4.760	-0.290	-0.450	-0.880
2020/01/31 20:10:58.6	4.750	-0.260	-0.450	-0.860
2020/01/31 20:10:58.7	4.740	-0.230	-0.450	-0.830
2020/01/31 20:10:58.8	4.720	-0.190	-0.440	-0.800
2020/01/31 20:10:58.9	4.710	-0.160	-0.440	-0.760
2020/01/31 20:10:59.0	4.700	-0.130	-0.430	-0.730
2020/01/31 20:10:59.1	4.680	-0.100	-0.430	-0.690
2020/01/31 20:10:59.2	4.660	-0.070	-0.430	-0.650
2020/01/31 20:10:59.3	4.640	-0.030	-0.430	-0.610
2020/01/31 20:10:59.4	4.620	-0.000	-0.430	-0.560
2020/01/31 20:10:59.5	4.600	0.030	-0.430	-0.520
2020/01/31 20:10:59.6	4.580	0.060	-0.430	-0.470
2020/01/31 20:10:59.7	4.560	0.090	-0.430	-0.430
2020/01/31 20:10:59.8	4.540	0.120	-0.440	-0.380
2020/01/31 20:10:59.9	4.530	0.140	-0.450	-0.340
2020/01/31 20:11:00.0	4.510	0.170	-0.460	-0.290
2020/01/31 20:11:00.1	4.490	0.200	-0.470	-0.250
2020/01/31 20:11:00.2	4.470	0.230	-0.480	-0.200
2020/01/31 20:11:00.3	4.460	0.260	-0.490	-0.160
2020/01/31 20:11:00.4	4.440	0.280	-0.510	-0.110
2020/01/31 20:11:00.5	4.430	0.310	-0.520	-0.070
2020/01/31 20:11:00.6	4.420	0.340	-0.540	-0.030
2020/01/31 20:11:00.7	4.410	0.370	-0.550	0.010
2020/01/31 20:11:00.8	4.400	0.390	-0.570	0.050
2020/01/31 20:11:00.9	4.400	0.420	-0.590	0.080
2020/01/31 20:11:01.0	4.400	0.450	-0.600	0.120
2020/01/31 20:11:01.1	4.400	0.470	-0.620	0.150
2020/01/31 20:11:01.2	4.400	0.500	-0.630	0.180
2020/01/31 20:11:01.3	4.410	0.520	-0.650	0.210
2020/01/31 20:11:01.4	4.410	0.550	-0.660	0.230
2020/01/31 20:11:01.5	4.420	0.570	-0.670	0.250
2020/01/31 20:11:01.6	4.440	0.590	-0.680	0.270
2020/01/31 20:11:01.7	4.450	0.610	-0.680	0.280
2020/01/31 20:11:01.8	4.470	0.620	-0.690	0.300
2020/01/31 20:11:01.9	4.480	0.640	-0.690	0.310
2020/01/31 20:11:02.0	4.500	0.650	-0.690	0.310
2020/01/31 20:11:02.1	4.530	0.660	-0.680	0.320
2020/01/31 20:11:02.2	4.550	0.660	-0.670	0.320
2020/01/31 20:11:02.3	4.570	0.660	-0.660	0.320
2020/01/31 20:11:02.4	4.590	0.660	-0.640	0.320
2020/01/31 20:11:02.5	4.610	0.660	-0.620	0.320
2020/01/31 20:11:02.6	4.630	0.650	-0.590	0.320
2020/01/31 20:11:02.7	4.650	0.630	-0.560	0.320
2020/01/31 20:11:02.8	4.670	0.610	-0.530	0.310
2020/01/31 20:11:02.9	4.690	0.590	-0.490	0.310
2020/01/31 20:11:03.0	4.710	0.560	-0.450	0.300
2020/01/31 20:11:03.1	4.720	0.530	-0.400	0.290
2020/01/31 20:11:03.2	4.740	0.500	-0.350	0.290
2020/01/31 20:11:03.3	4.750	0.460	-0.300	0.280
2020/01/31 20:11:03.4	4.770	0.410	-0.250	0.270
2020/01/31 20:11:03.5	4.780	0.370	-0.190	0.250
2020/01/31 20:11:03.6	4.790	0.320	-0.130	0.240
2020/01/31 20:11:03.7	4.800	0.270	-0.080	0.230
2020/01/31 20:11:03.8	4.800	0.210	-0.020	0.210
2020/01/31 20:11:03.9	4.820	0.150	0.040	0.190
2020/01/31 20:11:04.0	4.820	0.100	0.100	0.180
2020/01/31 20:11:04.1	4.830	0.040	0.160	0.160
2020/01/31 20:11:04.2	4.830	-0.020	0.210	0.140
2020/01/31 20:11:04.3	4.830	-0.080	0.260	0.120
2020/01/31 20:11:04.4	4.820	-0.140	0.310	0.100
2020/01/31 20:11:04.5	4.820	-0.200	0.360	0.090
2020/01/31 20:11:04.6	4.810	-0.260	0.410	0.070
2020/01/31 20:11:04.7	4.800	-0.320	0.450	0.060
2020/01/31 20:11:04.8	4.790	-0.380	0.490	0.040
2020/01/31 20:11:04.9	4.770	-0.430	0.520	0.020
2020/01/31 20:11:05.0	4.750	-0.480	0.550	0.010
2020/01/31 20:11:05.1	4.730	-0.520	0.580	-0.010
2020/01/31 20:11:05.2	4.710	-0.570	0.600	-0.020
2020/01/31 20:11:05.3	4.690	-0.610	0.610	-0.030
2020/01/31 20:11:05.4	4.670	-0.640	0.620	-0.040
2020/01/31 20:11:05.5	4.640	-0.670	0.620	-0.050
2020/01/31 20:11:05.6	4.620	-0.700	0.620	-0.060
2020/01/31 20:11:05.7	4.590	-0.720	0.610	-0.070
2020/01/31 20:11:05.8	4.560	-0.730	0.600	-0.080
2020/01/31 20:11:05.9	4.540	-0.740	0.590	-0.090
2020/01/31 20:11:06.0	4.510	-0.750	0.560	-0.100
2020/01/31 20:11:06.1	4.480	-0.750	0.530	-0.100
2020/01/31 20:11:06.2	4.450	-0.740	0.490	-0.110
2020/01/31 20:11:06.3	4.420	-0.730	0.450	-0.120
2020/01/31 20:11:06.4	4.400	-0.710	0.400	-0.120
2020/01/31 20:11:06.5	4.370	-0.690	0.340	-0.130
2020/01/31 20:11:06.6	4.350	-0.660	0.290	-0.130
2020/01/31 20:11:06.7	4.320	-0.630	0.220	-0.140
2020/01/31 20:11:06.8	4.300	-0.600	0.150	-0.150
2020/01/31 20:11:06.9	4.270	-0.560	0.080	-0.160
2020/01/31 20:11:07.0	4.250	-0.520	-0.000	-0.170
2020/01/31 20:11:07.1	4.230	-0.470	-0.080	-0.180
2020/01/31 20:11:07.2	4.220	-0.420	-0.160	-0.190
2020/01/31 20:11:07.3	4.200	-0.370	-0.250	-0.200
2020/01/31 20:11:07.4	4.190	-0.320	-0.330	-0.210
2020/01/31 20:11:07.5	4.180	-0.260	-0.420	-0.230
2020/01/31 20:11:07.6	4.170	-0.200	-0.510	-0.240
2020/01/31 20:11:07.7	4.160	-0.150	-0.590	-0.260
2020/01/31 20:11:07.8	4.160	-0.090	-0.680	-0.280
2020/01/31 20:11:07.9	4.160	-0.030	-0.760	-0.300
2020/01/31 20:11:08.0	4.160	0.030	-0.840	-0.320
2020/01/31 20:11:08.1	4.170	0.080	-0.910	-0.340
2020/01/31 20:11:08.2	4.170	0.140	-0.990	-0.370
2020/01/31 20:11:08.3	4.180	0.190	-1.050	-0.390
2020/01/31 20:11:08.4	4.200	0.250	-1.120	-0.410
2020/01/31 20:11:08.5	4.210	0.300	-1.180	-0.440
2020/01/31 20:11:08.6	4.230	0.340	-1.230	-0.470
2020/01/31 20:11:08.7	4.250	0.390	-1.280	-0.490
2020/01/31 20:11:08.8	4.270	0.430	-1.320	-0.520
2020/01/31 20:11:08.9	4.300	0.470	-1.360	-0.540
2020/01/31 20:11:09.0	4.330	0.500	-1.380	-0.570
2020/01/31 20:11:09.1	4.360	0.540	-1.400	-0.590
2020/01/31 20:11:09.2	4.390	0.560	-1.410	-0.610
2020/01/31 20:11:09.3	4.420	0.590	-1.410	-0.620
2020/01/31 20:11:09.4	4.450	0.610	-1.400	-0.640
2020/01/31 20:11:09.5	4.470	0.620	-1.380	-0.650
2020/01/31 20:11:09.6	4.500	0.630	-1.360	-0.650
2020/01/31 20:11:09.7	4.530	0.640	-1.320	-0.660
2020/01/31 20:11:09.8	4.550	0.640	-1.270	-0.660
2020/01/31 20:11:09.9	4.570	0.630	-1.220	-0.650
2020/01/31 20:11:10.0	4.590	0.620	-1.160	-0.640
2020/01/31 20:11:10.1	4.610	0.610	-1.090	-0.630
2020/01/31 20:11:10.2	4.620	0.590	-1.010	-0.610
2020/01/31 20:11:10.3	4.640	0.570	-0.920	-0.590
2020/01/31 20:11:10.4	4.650	0.540	-0.830	-0.570
2020/01/31 20:11:10.5	4.650	0.510	-0.730	-0.540
2020/01/31 20:11:10.6	4.650	0.480	-0.630	-0.510
2020/01/31 20:11:10.7	4.650	0.440	-0.530	-0.480
2020/01/31 20:11:10.8	4.650	0.400	-0.420	-0.450
2020/01/31 20:11:10.9	4.660	0.350	-0.310	-0.420
2020/01/31 20:11:11.0	4.650	0.310	-0.200	-0.390
2020/01/31 20:11:11.1	4.640	0.260	-0.090	-0.350
2020/01/31 20:11:11.2	4.630	0.200	0.010	-0.320
2020/01/31 20:11:11.3	4.620	0.150	0.110	-0.290
2020/01/31 20:11:11.4	4.610	0.100	0.210	-0.260
2020/01/31 20:11:11.5	4.600	0.040	0.310	-0.230
2020/01/31 20:11:11.6	4.580	-0.010	0.400	-0.210
2020/01/31 20:11:11.7	4.570	-0.060	0.480	-0.190
2020/01/31 20:11:11.8	4.550	-0.120	0.560	-0.170
2020/01/31 20:11:11.9	4.540	-0.170	0.620	-0.150
2020/01/31 20:11:12.0	4.530	-0.220	0.680	-0.130
2020/01/31 20:11:12.1	4.510	-0.270	0.740	-0.120
2020/01/31 20:11:12.2	4.500	-0.310	0.780	-0.110
2020/01/31 20:11:12.3	4.490	-0.360	0.810	-0.100
2020/01/31 20:11:12.4	4.480	-0.390	0.840	-0.100
2020/01/31 20:11:12.5	4.470	-0.430	0.860	-0.100
2020/01/31 20:11:12.6	4.460	-0.460	0.860	-0.100
2020/01/31 20:11:12.7	4.450	-0.490	0.860	-0.100
2020/01/31 20:11:12.8	4.440	-0.510	0.850	-0.100
2020/01/31 20:11:12.9	4.430	-0.530	0.840	-0.110
2020/01/31 20:11:13.0	4.430	-0.540	0.810	-0.120
2020/01/31 20:11:13.1	4.420	-0.550	0.780	-0.130
2020/01/31 20:11:13.2	4.420	-0.550	0.730	-0.130
2020/01/31 20:11:13.3	4.420	-0.550	0.690	-0.140
2020/01/31 20:11:13.4	4.420	-0.540	0.630	-0.150
2020/01/31 20:11:13.5	4.430	-0.520	0.580	-0.160
2020/01/31 20:11:13.6	4.430	-0.510	0.510	-0.170
2020/01/31 20:11:13.7	4.440	-0.480	0.450	-0.180
2020/01/31 20:11:13.8	4.450	-0.460	0.380	-0.190
2020/01/31 20:11:13.9	4.460	-0.430	0.300	-0.200
2020/01/31 20:11:14.0	4.470	-0.390	0.230	-0.210
2020/01/31 20:11:14.1	4.480	-0.350	0.160	-0.220
2020/01/31 20:11:14.2	4.490	-0.310	0.080	-0.220
2020/01/31 20:11:14.3	4.500	-0.270	0.010	-0.220
2020/01/31 20:11:14.4	4.520	-0.230	-0.060	-0.220
2020/01/31 20:11:14.5	4.530	-0.180	-0.130	-0.210
2020/01/31 20:11:14.6	4.540	-0.130	-0.190	-0.210
2020/01/31 20:11:14.7	4.550	-0.090	-0.250	-0.200
2020/01/31 20:11:14.8	4.550	-0.040	-0.310	-0.190
2020/01/31 20:11:14.9	4.550	0.010	-0.360	-0.180
2020/01/31 20:11:15.0	4.560	0.050	-0.410	-0.160
2020/01/31 20:11:15.1	4.560	0.100	-0.450	-0.140
2020/01/31 20:11:15.2	4.560	0.140	-0.480	-0.130
2020/01/31 20:11:15.3	4.560	0.180	-0.520	-0.100
2020/01/31 20:11:15.4	4.560	0.220	-0.540	-0.080
2020/01/31 20:11:15.5	4.550	0.250	-0.560	-0.050
2020/01/31 20:11:15.6	4.550	0.290	-0.580	-0.020
2020/01/31 20:11:15.7	4.540	0.310	-0.590	0.010
2020/01/31 20:11:15.8	4.540	0.340	-0.600	0.040
2020/01/31 20:11:15.9	4.530	0.360	-0.610	0.070
2020/01/31 20:11:16.0	4.520	0.380	-0.610	0.100
2020/01/31 20:11:16.1	4.510	0.400	-0.610	0.140
2020/01/31 20:11:16.2	4.500	0.410	-0.600	0.170
2020/01/31 20:11:16.3	4.480	0.410	-0.590	0.210
2020/01/31 20:11:16.4	4.470	0.420	-0.580	0.240
2020/01/31 20:11:16.5	4.460	0.420	-0.570	0.270
2020/01/31 20:11:16.6	4.450	0.410	-0.560	0.300
2020/01/31 20:11:16.7	4.430	0.410	-0.550	0.320
2020/01/31 20:11:16.8	4.420	0.400	-0.540	0.350
2020/01/31 20:11:16.9	4.410	0.380	-0.530	0.370
2020/01/31 20:11:17.0	4.400	0.370	-0.520	0.380
2020/01/31 20:11:17.1	4.390	0.350	-0.520	0.390
2020/01/31 20:11:17.2	4.390	0.330	-0.510	0.390
2020/01/31 20:11:17.3	4.380	0.310	-0.510	0.390
2020/01/31 20:11:17.4	4.380	0.280	-0.510	0.380
2020/01/31 20:11:17.5	4.380	0.260	-0.510	0.360
2020/01/31 20:11:17.6	4.380	0.230	-0.510	0.340
2020/01/31 20:11:17.7	4.380	0.210	-0.520	0.320
2020/01/31 20:11:17.8	4.380	0.180	-0.530	0.280
2020/01/31 20:11:17.9	4.390	0.160	-0.540	0.240
2020/01/31 20:11:18.0	4.400	0.130	-0.550	0.200
2020/01/31 20:11:18.1	4.410	0.100	-0.570	0.150
2020/01/31 20:11:18.2	4.420	0.080	-0.580	0.100
2020/01/31 20:11:18.3	4.440	0.050	-0.600	0.050
2020/01/31 20:11:18.4	4.450	0.030	-0.610	-0.010
2020/01/31 20:11:18.5	4.470	0.000	-0.630	-0.060
2020/01/31 20:11:18.6	4.490	-0.020	-0.650	-0.120
2020/01/31 20:11:18.7	4.510	-0.040	-0.660	-0.180
2020/01/31 20:11:18.8	4.530	-0.060	-0.670	-0.230
2020/01/31 20:11:18.9	4.560	-0.080	-0.680	-0.290
2020/01/31 20:11:19.0	4.580	-0.100	-0.690	-0.350
2020/01/31 20:11:19.1	4.610	-0.110	-0.700	-0.410
2020/01/31 20:11:19.2	4.630	-0.130	-0.700	-0.460
2020/01/31 20:11:19.3	4.660	-0.150	-0.700	-0.510
2020/01/31 20:11:19.4	4.680	-0.160	-0.700	-0.560
2020/01/31 20:11:19.5	4.710	-0.170	-0.690	-0.610
2020/01/31 20:11:19.6	4.740	-0.190	-0.680	-0.660
2020/01/31 20:11:19.7	4.760	-0.200	-0.670	-0.700
2020/01/31 20:11:19.8	4.790	-0.210	-0.650	-0.740
2020/01/31 20:11:19.9	4.800	-0.230	-0.630	-0.790
2020/01/31 20:11:20.0	4.830	-0.240	-0.610	-0.830
2020/01/31 20:11:20.1	4.850	-0.250	-0.580	-0.860
2020/01/31 20:11:20.2	4.870	-0.270	-0.540	-0.900
2020/01/31 20:11:20.3	4.890	-0.280	-0.510	-0.930
2020/01/31 20:11:20.4	4.910	-0.290	-0.470	-0.960
2020/01/31 20:11:20.5	4.930	-0.310	-0.430	-0.980
2020/01/31 20:11:20.6	4.950	-0.320	-0.390	-1.010
2020/01/31 20:11:20.7	4.960	-0.330	-0.340	-1.030
2020/01/31 20:11:20.8	4.980	-0.340	-0.300	-1.040
2020/01/31 20:11:20.9	4.990	-0.360	-0.250	-1.050
2020/01/31 20:11:21.0	5.000	-0.370	-0.200	-1.060
2020/01/31 20:11:21.1	5.010	-0.380	-0.150	-1.060
2020/01/31 20:11:21.2	5.020	-0.390	-0.110	-1.060
2020/01/31 20:11:21.3	5.030	-0.400	-0.060	-1.050
2020/01/31 20:11:21.4	5.030	-0.410	-0.010	-1.030
2020/01/31 20:11:21.5	5.030	-0.420	0.030	-1.010
2020/01/31 20:11:21.6	5.030	-0.420	0.080	-0.990
2020/01/31 20:11:21.7	5.030	-0.430	0.120	-0.960
2020/01/31 20:11:21.8	5.030	-0.430	0.160	-0.920
2020/01/31 20:11:21.9	5.020	-0.430	0.190	-0.890
2020/01/31 20:11:22.0	5.010	-0.430	0.230	-0.850
2020/01/31 20:11:22.1	5.000	-0.430	0.260	-0.810
2020/01/31 20:11:22.2	4.990	-0.430	0.290	-0.760
2020/01/31 20:11:22.3	4.980	-0.420	0.310	-0.720
2020/01/31 20:11:22.4	4.970	-0.420	0.330	-0.670
2020/01/31 20:11:22.5	4.960	-0.410	0.340	-0.630
2020/01/31 20:11:22.6	4.950	-0.390	0.360	-0.580
2020/01/31 20:11:22.7	4.930	-0.380	0.360	-0.530
2020/01/31 20:11:22.8	4.920	-0.360	0.360	-0.480
2020/01/31 20:11:22.9	4.900	-0.330	0.360	-0.440
2020/01/31 20:11:23.0	4.880	-0.310	0.360	-0.390
2020/01/31 20:11:23.1	4.870	-0.280	0.350	-0.340
2020/01/31 20:11:23.2	4.850	-0.250	0.330	-0.300
2020/01/31 20:11:23.3	4.840	-0.220	0.310	-0.250
2020/01/31 20:11:23.4	4.820	-0.180	0.290	-0.210
2020/01/31 20:11:23.5	4.810	-0.140	0.260	-0.160
2020/01/31 20:11:23.6	4.790	-0.100	0.230	-0.110
2020/01/31 20:11:23.7	4.770	-0.050	0.200	-0.070
2020/01/31 20:11:23.8	4.750	-0.010	0.170	-0.020
2020/01/31 20:11:23.9	4.740	0.040	0.130	0.030
2020/01/31 20:11:24.0	4.720	0.090	0.100	0.080
2020/01/31 20:11:24.1	4.700	0.150	0.060	0.120
2020/01/31 20:11:24.2	4.670	0.200	0.030	0.170
2020/01/31 20:11:24.3	4.650	0.250	-0.010	0.220
2020/01/31 20:11:24.4	4.630	0.310	-0.050	0.270
2020/01/31 20:11:24.5	4.600	0.360	-0.080	0.310
2020/01/31 20:11:24.6	4.580	0.410	-0.120	0.360
2020/01/31 20:11:24.7	4.550	0.460	-0.150	0.400
2020/01/31 20:11:24.8	4.530	0.520	-0.180	0.450
2020/01/31 20:11:24.9	4.500	0.560	-0.210	0.490
2020/01/31 20:11:25.0	4.480	0.610	-0.230	0.530
2020/01/31 20:11:25.1	4.450	0.660	-0.260	0.560
2020/01/31 20:11:25.2	4.430	0.700	-0.280	0.600
2020/01/31 20:11:25.3	4.400	0.740	-0.300	0.630
2020/01/31 20:11:25.4	4.380	0.770	-0.320	0.650
2020/01/31 20:11:25.5	4.360	0.810	-0.340	0.680
2020/01/31 20:11:25.6	4.340	0.830	-0.360	0.700
2020/01/31 20:11:25.7	4.320	0.860	-0.370	0.710
2020/01/31 20:11:25.8	4.300	0.880	-0.380	0.730
2020/01/31 20:11:25.9	4.280	0.890	-0.390	0.740
2020/01/31 20:11:26.0	4.270	0.910	-0.400	0.740
2020/01/31 20:11:26.1	4.260	0.910	-0.410	0.740
2020/01/31 20:11:26.2	4.240	0.920	-0.420	0.740
2020/01/31 20:11:26.3	4.240	0.910	-0.420	0.730
2020/01/31 20:11:26.4	4.230	0.910	-0.430	0.710
2020/01/31 20:11:26.5	4.230	0.890	-0.430	0.700
2020/01/31 20:11:26.6	4.220	0.880	-0.430	0.670
2020/01/31 20:11:26.7	4.230	0.860	-0.430	0.650
2020/01/31 20:11:26.8	4.230	0.830	-0.430	0.620
2020/01/31 20:11:26.9	4.250	0.810	-0.430	0.580
2020/01/31 20:11:27.0	4.260	0.770	-0.440	0.540
2020/01/31 20:11:27.1	4.270	0.740	-0.440	0.500
2020/01/31 20:11:27.2	4.290	0.700	-0.440	0.450
2020/01/31 20:11:27.3	4.310	0.660	-0.440	0.400
2020/01/31 20:11:27.4	4.340	0.610	-0.440	0.350
2020/01/31 20:11:27.5	4.360	0.560	-0.450	0.290
2020/01/31 20:11:27.6	4.390	0.510	-0.450	0.220
2020/01/31 20:11:27.7	4.420	0.460	-0.460	0.160
2020/01/31 20:11:27.8	4.460	0.410	-0.460	0.090
2020/01/31 20:11:27.9	4.490	0.350	-0.480	0.010
2020/01/31 20:11:28.0	4.530	0.290	-0.480	-0.060
2020/01/31 20:11:28.1	4.560	0.230	-0.490	-0.140
2020/01/31 20:11:28.2	4.600	0.170	-0.500	-0.220
2020/01/31 20:11:28.3	4.640	0.110	-0.510	-0.300
2020/01/31 20:11:28.4	4.670	0.050	-0.530	-0.380
2020/01/31 20:11:28.5	4.710	-0.010	-0.540	-0.450
2020/01/31 20:11:28.6	4.740	-0.070	-0.550	-0.530
2020/01/31 20:11:28.7	4.780	-0.130	-0.560	-0.610
2020/01/31 20:11:28.8	4.810	-0.190	-0.580	-0.690
2020/01/31 20:11:28.9	4.840	-0.250	-0.590	-0.760
2020/01/31 20:11:29.0	4.880	-0.310	-0.600	-0.840
2020/01/31 20:11:29.1	4.910	-0.360	-0.610	-0.910
2020/01/31 20:11:29.2	4.940	-0.410	-0.620	-0.980
2020/01/31 20:11:29.3	4.970	-0.460	-0.640	-1.050
2020/01/31 20:11:29.4	5.010	-0.510	-0.650	-1.110
2020/01/31 20:11:29.5	5.040	-0.560	-0.660	-1.170
2020/01/31 20:11:29.6	5.070	-0.600	-0.670	-1.230
2020/01/31 20:11:29.7	5.100	-0.640	-0.670	-1.290
2020/01/31 20:11:29.8	5.140	-0.680	-0.680	-1.340
2020/01/31 20:11:29.9	5.160	-0.710	-0.690	-1.400
2020/01/31 20:11:30.0	5.190	-0.740	-0.690	-1.450
2020/01/31 20:11:30.1	5.230	-0.760	-0.690	-1.490
2020/01/31 20:11:30.2	5.260	-0.780	-0.690	-1.530
2020/01/31 20:11:30.3	5.300	-0.800	-0.680	-1.570
2020/01/31 20:11:30.4	5.330	-0.810	-0.680	-1.610
2020/01/31 20:11:30.5	5.360	-0.820	-0.670	-1.630
2020/01/31 20:11:30.6	5.400	-0.830	-0.650	-1.660
2020/01/31 20:11:30.7	5.430	-0.830	-0.640	-1.680
2020/01/31 20:11:30.8	5.460	-0.830	-0.620	-1.690
2020/01/31 20:11:30.9	5.480	-0.830	-0.600	-1.700
2020/01/31 20:11:31.0	5.510	-0.820	-0.570	-1.700
2020/01/31 20:11:31.1	5.530	-0.810	-0.540	-1.700
2020/01/31 20:11:31.2	5.550	-0.800	-0.500	-1.690
2020/01/31 20:11:31.3	5.560	-0.790	-0.460	-1.670
2020/01/31 20:11:31.4	5.580	-0.770	-0.420	-1.650
2020/01/31 20:11:31.5	5.590	-0.760	-0.370	-1.620
2020/01/31 20:11:31.6	5.590	-0.740	-0.320	-1.590
2020/01/31 20:11:31.7	5.590	-0.720	-0.260	-1.550
2020/01/31 20:11:31.8	5.590	-0.700	-0.200	-1.500
2020/01/31 20:11:31.9	5.580	-0.680	-0.140	-1.440
2020/01/31 20:11:32.0	5.570	-0.650	-0.080	-1.390
2020/01/31 20:11:32.1	5.560	-0.630	-0.020	-1.320
2020/01/31 20:11:32.2	5.540	-0.610	0.050	-1.260
2020/01/31 20:11:32.3	5.520	-0.590	0.110	-1.190
2020/01/31 20:11:32.4	5.500	-0.560	0.180	-1.120
2020/01/31 20:11:32.5	5.470	-0.540	0.240	-1.040
2020/01/31 20:11:32.6	5.450	-0.520	0.300	-0.960
2020/01/31 20:11:32.7	5.420	-0.490	0.360	-0.880
2020/01/31 20:11:32.8	5.390	-0.470	0.420	-0.800
2020/01/31 20:11:32.9	5.340	-0.440	0.470	-0.720
2020/01/31 20:11:33.0	5.310	-0.420	0.520	-0.640
2020/01/31 20:11:33.1	5.270	-0.390	0.570	-0.560
2020/01/31 20:11:33.2	5.240	-0.370	0.610	-0.480
2020/01/31 20:11:33.3	5.210	-0.340	0.640	-0.400
2020/01/31 20:11:33.4	5.170	-0.310	0.670	-0.320
2020/01/31 20:11:33.5	5.140	-0.280	0.690	-0.240
2020/01/31 20:11:33.6	5.110	-0.250	0.700	-0.160
2020/01/31 20:11:33.7	5.070	-0.220	0.710	-0.090
2020/01/31 20:11:33.8	5.040	-0.190	0.710	-0.020
2020/01/31 20:11:33.9	5.020	-0.160	0.700	0.050
2020/01/31 20:11:34.0	4.990	-0.120	0.690	0.120
2020/01/31 20:11:34.1	4.970	-0.080	0.670	0.180
2020/01/31 20:11:34.2	4.940	-0.050	0.650	0.240
2020/01/31 20:11:34.3	4.910	-0.010	0.620	0.300
2020/01/31 20:11:34.4	4.880	0.030	0.580	0.360
2020/01/31 20:11:34.5	4.860	0.080	0.540	0.410
2020/01/31 20:11:34.6	4.830	0.120	0.500	0.460
2020/01/31 20:11:34.7	4.800	0.170	0.450	0.510
2020/01/31 20:11:34.8	4.780	0.210	0.400	0.560
2020/01/31 20:11:34.9	4.760	0.260	0.340	0.610
2020/01/31 20:11:35.0	4.730	0.310	0.280	0.650
2020/01/31 20:11:35.1	4.700	0.360	0.230	0.700
2020/01/31 20:11:35.2	4.670	0.410	0.170	0.740
2020/01/31 20:11:35.3	4.640	0.450	0.100	0.780
2020/01/31 20:11:35.4	4.610	0.500	0.040	0.830
2020/01/31 20:11:35.5	4.570	0.550	-0.020	0.860
2020/01/31 20:11:35.6	4.540	0.590	-0.080	0.900
2020/01/31 20:11:35.7	4.500	0.640	-0.140	0.940
2020/01/31 20:11:35.8	4.460	0.680	-0.200	0.970
2020/01/31 20:11:35.9	4.420	0.720	-0.250	1.000
2020/01/31 20:11:36.0	4.380	0.750	-0.310	1.020
2020/01/31 20:11:36.1	4.340	0.790	-0.360	1.040
2020/01/31 20:11:36.2	4.300	0.820	-0.410	1.060
2020/01/31 20:11:36.3	4.260	0.840	-0.460	1.070
2020/01/31 20:11:36.4	4.230	0.860	-0.510	1.080
2020/01/31 20:11:36.5	4.190	0.880	-0.550	1.070
2020/01/31 20:11:36.6	4.160	0.890	-0.590	1.070
2020/01/31 20:11:36.7	4.130	0.900	-0.630	1.060
2020/01/31 20:11:36.8	4.100	0.900	-0.670	1.030
2020/01/31 20:11:36.9	4.080	0.900	-0.710	1.000
2020/01/31 20:11:37.0	4.060	0.900	-0.740	0.970
2020/01/31 20:11:37.1	4.050	0.880	-0.780	0.930
2020/01/31 20:11:37.2	4.030	0.870	-0.810	0.880
2020/01/31 20:11:37.3	4.030	0.850	-0.840	0.820
2020/01/31 20:11:37.4	4.030	0.820	-0.870	0.760
2020/01/31 20:11:37.5	4.030	0.800	-0.900	0.690
2020/01/31 20:11:37.6	4.040	0.760	-0.930	0.610
2020/01/31 20:11:37.7	4.050	0.730	-0.960	0.520
2020/01/31 20:11:37.8	4.070	0.690	-0.980	0.430
2020/01/31 20:11:37.9	4.100	0.650	-1.010	0.330
2020/01/31 20:11:38.0	4.140	0.600	-1.040	0.230
2020/01/31 20:11:38.1	4.180	0.550	-1.060	0.120
2020/01/31 20:11:38.2	4.220	0.510	-1.090	0.010
2020/01/31 20:11:38.3	4.270	0.460	-1.110	-0.100
2020/01/31 20:11:38.4	4.330	0.400	-1.130	-0.220
2020/01/31 20:11:38.5	4.390	0.350	-1.150	-0.350
2020/01/31 20:11:38.6	4.460	0.300	-1.170	-0.470
2020/01/31 20:11:38.7	4.530	0.250	-1.190	-0.590
2020/01/31 20:11:38.8	4.600	0.190	-1.200	-0.720
2020/01/31 20:11:38.9	4.680	0.140	-1.220	-0.850
2020/01/31 20:11:39.0	4.760	0.090	-1.220	-0.980
2020/01/31 20:11:39.1	4.840	0.040	-1.230	-1.100
2020/01/31 20:11:39.2	4.930	-0.010	-1.230	-1.220
2020/01/31 20:11:39.3	5.020	-0.060	-1.230	-1.340
2020/01/31 20:11:39.4	5.100	-0.100	-1.220	-1.450
2020/01/31 20:11:39.5	5.190	-0.150	-1.210	-1.560
2020/01/31 20:11:39.6	5.280	-0.190	-1.200	-1.660
2020/01/31 20:11:39.7	5.370	-0.230	-1.180	-1.760
2020/01/31 20:11:39.8	5.460	-0.270	-1.160	-1.860
2020/01/31 20:11:39.9	5.550	-0.310	-1.130	-1.940
2020/01/31 20:11:40.0	5.630	-0.340	-1.100	-2.020
2020/01/31 20:11:40.1	5.710	-0.370	-1.060	-2.100
2020/01/31 20:11:40.2	5.790	-0.400	-1.020	-2.160
2020/01/31 20:11:40.3	5.870	-0.430	-0.970	-2.230
2020/01/31 20:11:40.4	5.950	-0.450	-0.920	-2.280
2020/01/31 20:11:40.5	6.020	-0.470	-0.870	-2.330
2020/01/31 20:11:40.6	6.100	-0.490	-0.810	-2.370
2020/01/31 20:11:40.7	6.160	-0.510	-0.750	-2.400
2020/01/31 20:11:40.8	6.230	-0.530	-0.690	-2.430
2020/01/31 20:11:40.9	6.280	-0.540	-0.630	-2.450
2020/01/31 20:11:41.0	6.340	-0.550	-0.560	-2.460
2020/01/31 20:11:41.1	6.390	-0.560	-0.490	-2.460
2020/01/31 20:11:41.2	6.430	-0.570	-0.410	-2.450
2020/01/31 20:11:41.3	6.460	-0.570	-0.340	-2.430
2020/01/31 20:11:41.4	6.490	-0.580	-0.260	-2.400
2020/01/31 20:11:41.5	6.510	-0.580	-0.180	-2.360
2020/01/31 20:11:41.6	6.520	-0.580	-0.090	-2.310
2020/01/31 20:11:41.7	6.520	-0.580	-0.010	-2.250
2020/01/31 20:11:41.8	6.520	-0.580	0.080	-2.180
2020/01/31 20:11:41.9	6.510	-0.580	0.170	-2.100
2020/01/31 20:11:42.0	6.480	-0.570	0.260	-2.010
2020/01/31 20:11:42.1	6.450	-0.570	0.350	-1.920
2020/01/31 20:11:42.2	6.410	-0.570	0.440	-1.810
2020/01/31 20:11:42.3	6.370	-0.560	0.520	-1.710
2020/01/31 20:11:42.4	6.310	-0.550	0.610	-1.590
2020/01/31 20:11:42.5	6.250	-0.540	0.690	-1.470
2020/01/31 20:11:42.6	6.190	-0.530	0.780	-1.350
2020/01/31 20:11:42.7	6.110	-0.520	0.850	-1.220
2020/01/31 20:11:42.8	6.040	-0.510	0.930	-1.090
2020/01/31 20:11:42.9	5.950	-0.500	0.990	-0.950
2020/01/31 20:11:43.0	5.860	-0.480	1.060	-0.820
2020/01/31 20:11:43.1	5.770	-0.460	1.120	-0.680
2020/01/31 20:11:43.2	5.680	-0.450	1.170	-0.550
2020/01/31 20:11:43.3	5.590	-0.430	1.220	-0.410
2020/01/31 20:11:43.4	5.500	-0.410	1.260	-0.280
2020/01/31 20:11:43.5	5.410	-0.380	1.290	-0.150
2020/01/31 20:11:43.6	5.320	-0.360	1.310	-0.030
2020/01/31 20:11:43.7	5.230	-0.330	1.330	0.090
2020/01/31 20:11:43.8	5.140	-0.300	1.330	0.210
2020/01/31 20:11:43.9	5.060	-0.270	1.330	0.320
2020/01/31 20:11:44.0	4.970	-0.230	1.310	0.430
2020/01/31 20:11:44.1	4.890	-0.190	1.290	0.530
2020/01/31 20:11:44.2	4.810	-0.150	1.260	0.620
2020/01/31 20:11:44.3	4.740	-0.110	1.220	0.700
2020/01/31 20:11:44.4	4.670	-0.070	1.170	0.780
2020/01/31 20:11:44.5	4.600	-0.020	1.110	0.850
2020/01/31 20:11:44.6	4.540	0.030	1.040	0.910
2020/01/31 20:11:44.7	4.480	0.070	0.960	0.970
2020/01/31 20:11:44.8	4.430	0.120	0.880	1.020
2020/01/31 20:11:44.9	4.390	0.170	0.790	1.060
2020/01/31 20:11:45.0	4.340	0.230	0.700	1.090
2020/01/31 20:11:45.1	4.300	0.280	0.600	1.120
2020/01/31 20:11:45.2	4.250	0.330	0.490	1.140
2020/01/31 20:11:45.3	4.210	0.370	0.390	1.150
2020/01/31 20:11:45.4	4.170	0.420	0.280	1.160
2020/01/31 20:11:45.5	4.130	0.460	0.170	1.170
2020/01/31 20:11:45.6	4.100	0.510	0.060	1.160
2020/01/31 20:11:45.7	4.070	0.540	-0.050	1.150
2020/01/31 20:11:45.8	4.040	0.580	-0.160	1.130
2020/01/31 20:11:45.9	4.000	0.610	-0.270	1.110
2020/01/31 20:11:46.0	3.980	0.640	-0.370	1.080
2020/01/31 20:11:46.1	3.950	0.660	-0.480	1.050
2020/01/31 20:11:46.2	3.940	0.680	-0.580	1.000
2020/01/31 20:11:46.3	3.920	0.690	-0.670	0.960
2020/01/31 20:11:46.4	3.910	0.700	-0.760	0.910
2020/01/31 20:11:46.5	3.910	0.700	-0.850	0.850
2020/01/31 20:11:46.6	3.910	0.700	-0.940	0.790
2020/01/31 20:11:46.7	3.910	0.690	-1.020	0.720
2020/01/31 20:11:46.8	3.920	0.680	-1.090	0.650
2020/01/31 20:11:46.9	3.940	0.660	-1.160	0.570
2020/01/31 20:11:47.0	3.960	0.640	-1.220	0.490
2020/01/31 20:11:47.1	3.980	0.610	-1.290	0.400
2020/01/31 20:11:47.2	4.010	0.580	-1.350	0.310
2020/01/31 20:11:47.3	4.050	0.550	-1.410	0.220
2020/01/31 20:11:47.4	4.090	0.510	-1.460	0.120
2020/01/31 20:11:47.5	4.140	0.480	-1.510	0.010
2020/01/31 20:11:47.6	4.200	0.440	-1.560	-0.090
2020/01/31 20:11:47.7	4.250	0.390	-1.600	-0.200
2020/01/31 20:11:47.8	4.320	0.350	-1.640	-0.310
2020/01/31 20:11:47.9	4.390	0.300	-1.680	-0.430
2020/01/31 20:11:48.0	4.460	0.260	-1.710	-0.540
2020/01/31 20:11:48.1	4.540	0.210	-1.730	-0.650
2020/01/31 20:11:48.2	4.610	0.160	-1.750	-0.760
2020/01/31 20:11:48.3	4.690	0.110	-1.760	-0.870
2020/01/31 20:11:48.4	4.770	0.070	-1.770	-0.980
2020/01/31 20:11:48.5	4.850	0.020	-1.780	-1.080
2020/01/31 20:11:48.6	4.920	-0.030	-1.770	-1.190
2020/01/31 20:11:48.7	5.000	-0.070	-1.760	-1.280
2020/01/31 20:11:48.8	5.080	-0.110	-1.750	-1.380
2020/01/31 20:11:48.9	5.160	-0.150	-1.720	-1.470
2020/01/31 20:11:49.0	5.230	-0.190	-1.690	-1.550
2020/01/31 20:11:49.1	5.310	-0.230	-1.660	-1.630
2020/01/31 20:11:49.2	5.380	-0.260	-1.620	-1.700
2020/01/31 20:11:49.3	5.450	-0.290	-1.570	-1.770
2020/01/31 20:11:49.4	5.510	-0.320	-1.520	-1.820
2020/01/31 20:11:49.5	5.580	-0.350	-1.460	-1.870
2020/01/31 20:11:49.6	5.640	-0.370	-1.390	-1.920
2020/01/31 20:11:49.7	5.700	-0.390	-1.320	-1.950
2020/01/31 20:11:49.8	5.760	-0.400	-1.240	-1.980
2020/01/31 20:11:49.9	5.810	-0.420	-1.160	-2.000
2020/01/31 20:11:50.0	5.860	-0.430	-1.070	-2.020
2020/01/31 20:11:50.1	5.910	-0.440	-0.980	-2.020
2020/01/31 20:11:50.2	5.950	-0.440	-0.890	-2.020
2020/01/31 20:11:50.3	5.990	-0.440	-0.790	-2.010
2020/01/31 20:11:50.4	6.030	-0.450	-0.690	-1.990
2020/01/31 20:11:50.5	6.060	-0.440	-0.580	-1.960
2020/01/31 20:11:50.6	6.090	-0.440	-0.480	-1.930
2020/01/31 20:11:50.7	6.110	-0.440	-0.370	-1.880
2020/01/31 20:11:50.8	6.130	-0.430	-0.260	-1.830
2020/01/31 20:11:50.9	6.150	-0.420	-0.160	-1.770
2020/01/31 20:11:51.0	6.160	-0.410	-0.050	-1.710
2020/01/31 20:11:51.1	6.170	-0.400	0.060	-1.640
2020/01/31 20:11:51.2	6.170	-0.390	0.160	-1.570
2020/01/31 20:11:51.3	6.170	-0.380	0.270	-1.490
2020/01/31 20:11:51.4	6.160	-0.370	0.360	-1.410
2020/01/31 20:11:51.5	6.150	-0.350	0.460	-1.320
2020/01/31 20:11:51.6	6.140	-0.340	0.550	-1.230
2020/01/31 20:11:51.7	6.130	-0.330	0.640	-1.140
2020/01/31 20:11:51.8	6.110	-0.310	0.720	-1.040
2020/01/31 20:11:51.9	6.080	-0.300	0.790	-0.950
2020/01/31 20:11:52.0	6.060	-0.280	0.860	-0.850
2020/01/31 20:11:52.1	6.030	-0.270	0.930	-0.750
2020/01/31 20:11:52.2	6.000	-0.250	0.980	-0.650
2020/01/31 20:11:52.3	5.970	-0.240	1.030	-0.550
2020/01/31 20:11:52.4	5.930	-0.220	1.080	-0.450
2020/01/31 20:11:52.5	5.890	-0.210	1.110	-0.340
2020/01/31 20:11:52.6	5.850	-0.190	1.140	-0.240
2020/01/31 20:11:52.7	5.810	-0.170	1.160	-0.140
2020/01/31 20:11:52.8	5.760	-0.160	1.180	-0.040
2020/01/31 20:11:52.9	5.700	-0.140	1.190	0.060
2020/01/31 20:11:53.0	5.650	-0.130	1.190	0.160
2020/01/31 20:11:53.1	5.590	-0.110	1.190	0.260
2020/01/31 20:11:53.2	5.540	-0.090	1.190	0.350
2020/01/31 20:11:53.3	5.480	-0.080	1.180	0.450
2020/01/31 20:11:53.4	5.410	-0.060	1.160	0.540
2020/01/31 20:11:53.5	5.350	-0.050	1.140	0.630
2020/01/31 20:11:53.6	5.280	-0.030	1.110	0.710
2020/01/31 20:11:53.7	5.220	-0.020	1.080	0.790
2020/01/31 20:11:53.8	5.150	-0.000	1.050	0.870
2020/01/31 20:11:53.9	5.080	0.010	1.020	0.940
2020/01/31 20:11:54.0	5.010	0.030	0.980	1.010
2020/01/31 20:11:54.1	4.940	0.040	0.930	1.070
2020/01/31 20:11:54.2	4.870	0.050	0.880	1.120
2020/01/31 20:11:54.3	4.800	0.060	0.830	1.170
2020/01/31 20:11:54.4	4.740	0.080	0.780	1.210
2020/01/31 20:11:54.5	4.680	0.090	0.720	1.240
2020/01/31 20:11:54.6	4.620	0.100	0.660	1.260
2020/01/31 20:11:54.7	4.560	0.120	0.600	1.280
2020/01/31 20:11:54.8	4.500	0.130	0.530	1.290
2020/01/31 20:11:54.9	4.450	0.140	0.460	1.290
2020/01/31 20:11:55.0	4.410	0.150	0.380	1.280
2020/01/31 20:11:55.1	4.370	0.170	0.300	1.270
2020/01/31 20:11:55.2	4.330	0.180	0.220	1.250
2020/01/31 20:11:55.3	4.300	0.200	0.140	1.220
2020/01/31 20:11:55.4	4.270	0.210	0.050	1.180
2020/01/31 20:11:55.5	4.250	0.230	-0.040	1.130
2020/01/31 20:11:55.6	4.230	0.250	-0.140	1.080
2020/01/31 20:11:55.7	4.220	0.260	-0.230	1.030
2020/01/31 20:11:55.8	4.220	0.280	-0.330	0.960
2020/01/31 20:11:55.9	4.220	0.300	-0.430	0.890
2020/01/31 20:11:56.0	4.220	0.320	-0.530	0.820
2020/01/31 20:11:56.1	4.220	0.340	-0.630	0.740
2020/01/31 20:11:56.2	4.240	0.360	-0.730	0.660
2020/01/31 20:11:56.3	4.250	0.380	-0.820	0.580
2020/01/31 20:11:56.4	4.270	0.400	-0.920	0.490
2020/01/31 20:11:56.5	4.290	0.420	-1.010	0.400
2020/01/31 20:11:56.6	4.320	0.440	-1.110	0.310
2020/01/31 20:11:56.7	4.350	0.460	-1.190	0.210
2020/01/31 20:11:56.8	4.390	0.470	-1.280	0.110
2020/01/31 20:11:56.9	4.440	0.490	-1.350	0.010
2020/01/31 20:11:57.0	4.480	0.500	-1.430	-0.090
2020/01/31 20:11:57.1	4.530	0.520	-1.490	-0.190
2020/01/31 20:11:57.2	4.580	0.530	-1.550	-0.290
2020/01/31 20:11:57.3	4.640	0.540	-1.610	-0.400
2020/01/31 20:11:57.4	4.700	0.540	-1.660	-0.500
2020/01/31 20:11:57.5	4.760	0.550	-1.700	-0.600
2020/01/31 20:11:57.6	4.830	0.550	-1.730	-0.700
2020/01/31 20:11:57.7	4.900	0.550	-1.760	-0.800
2020/01/31 20:11:57.8	4.970	0.550	-1.780	-0.900
2020/01/31 20:11:57.9	5.050	0.540	-1.790	-1.000
2020/01/31 20:11:58.0	5.120	0.530	-1.790	-1.090
2020/01/31 20:11:58.1	5.190	0.520	-1.790	-1.170
2020/01/31 20:11:58.2	5.260	0.500	-1.780	-1.250
2020/01/31 20:11:58.3	5.320	0.480	-1.750	-1.330
2020/01/31 20:11:58.4	5.390	0.460	-1.720	-1.400
2020/01/31 20:11:58.5	5.450	0.430	-1.680	-1.460
2020/01/31 20:11:58.6	5.510	0.400	-1.640	-1.520
2020/01/31 20:11:58.7	5.560	0.360	-1.580	-1.570
2020/01/31 20:11:58.8	5.610	0.320	-1.520	-1.620
2020/01/31 20:11:58.9	5.670	0.280	-1.450	-1.660
2020/01/31 20:11:59.0	5.710	0.240	-1.380	-1.700
2020/01/31 20:11:59.1	5.750	0.190	-1.300	-1.730
2020/01/31 20:11:59.2	5.790	0.150	-1.210	-1.750
2020/01/31 20:11:59.3	5.820	0.100	-1.120	-1.770
2020/01/31 20:11:59.4	5.850	0.050	-1.030	-1.780
2020/01/31 20:11:59.5	5.880	-0.010	-0.930	-1.790
2020/01/31 20:11:59.6	5.900	-0.060	-0.820	-1.780
2020/01/31 20:11:59.7	5.920	-0.110	-0.720	-1.780
2020/01/31 20:11:59.8	5.940	-0.170	-0.610	-1.770
2020/01/31 20:11:59.9	5.950	-0.220	-0.510	-1.750
2020/01/31 20:12:00.0	5.960	-0.280	-0.400	-1.720
2020/01/31 20:12:00.1	5.960	-0.330	-0.290	-1.690
2020/01/31 20:12:00.2	5.960	-0.380	-0.170	-1.660
2020/01/31 20:12:00.3	5.960	-0.430	-0.070	-1.620
2020/01/31 20:12:00.4	5.950	-0.470	0.040	-1.570
2020/01/31 20:12:00.5	5.940	-0.520	0.150	-1.520
2020/01/31 20:12:00.6	5.920	-0.560	0.250	-1.460
2020/01/31 20:12:00.7	5.910	-0.600	0.350	-1.400
2020/01/31 20:12:00.8	5.890	-0.630	0.450	-1.340
2020/01/31 20:12:00.9	5.860	-0.670	0.540	-1.270
2020/01/31 20:12:01.0	5.830	-0.700	0.620	-1.200
2020/01/31 20:12:01.1	5.800	-0.720	0.700	-1.120
2020/01/31 20:12:01.2	5.770	-0.740	0.780	-1.040
2020/01/31 20:12:01.3	5.730	-0.760	0.850	-0.960
2020/01/31 20:12:01.4	5.700	-0.770	0.900	-0.880
2020/01/31 20:12:01.5	5.660	-0.780	0.960	-0.800
2020/01/31 20:12:01.6	5.620	-0.780	1.000	-0.720
2020/01/31 20:12:01.7	5.590	-0.780	1.040	-0.630
2020/01/31 20:12:01.8	5.550	-0.770	1.060	-0.550
2020/01/31 20:12:01.9	5.500	-0.760	1.070	-0.470
2020/01/31 20:12:02.0	5.460	-0.740	1.080	-0.390
2020/01/31 20:12:02.1	5.430	-0.720	1.080	-0.310
2020/01/31 20:12:02.2	5.400	-0.690	1.070	-0.230
2020/01/31 20:12:02.3	5.370	-0.660	1.050	-0.160
2020/01/31 20:12:02.4	5.340	-0.620	1.020	-0.090
2020/01/31 20:12:02.5	5.310	-0.580	0.980	-0.030
2020/01/31 20:12:02.6	5.290	-0.540	0.930	0.040
2020/01/31 20:12:02.7	5.260	-0.490	0.880	0.100
2020/01/31 20:12:02.8	5.240	-0.430	0.820	0.160
2020/01/31 20:12:02.9	5.220	-0.380	0.760	0.210
2020/01/31 20:12:03.0	5.190	-0.320	0.690	0.260
2020/01/31 20:12:03.1	5.170	-0.260	0.620	0.310
2020/01/31 20:12:03.2	5.150	-0.190	0.550	0.350
2020/01/31 20:12:03.3	5.130	-0.130	0.470	0.400
2020/01/31 20:12:03.4	5.110	-0.060	0.390	0.440
2020/01/31 20:12:03.5	5.100	0.000	0.310	0.470
2020/01/31 20:12:03.6	5.080	0.070	0.240	0.510
2020/01/31 20:12:03.7	5.060	0.130	0.160	0.540
2020/01/31 20:12:03.8	5.040	0.200	0.080	0.570
2020/01/31 20:12:03.9	5.030	0.260	-0.000	0.600
2020/01/31 20:12:04.0	5.020	0.320	-0.080	0.620
2020/01/31 20:12:04.1	5.000	0.370	-0.150	0.630
2020/01/31 20:12:04.2	4.990	0.430	-0.230	0.650
2020/01/31 20:12:04.3	4.980	0.480	-0.300	0.650
2020/01/31 20:12:04.4	4.970	0.520	-0.370	0.660
2020/01/31 20:12:04.5	4.970	0.560	-0.430	0.660
2020/01/31 20:12:04.6	4.960	0.600	-0.490	0.660
2020/01/31 20:12:04.7	4.960	0.640	-0.550	0.650
2020/01/31 20:12:04.8	4.960	0.660	-0.600	0.640
2020/01/31 20:12:04.9	4.960	0.690	-0.650	0.630
2020/01/31 20:12:05.0	4.960	0.710	-0.700	0.610
2020/01/31 20:12:05.1	4.970	0.720	-0.740	0.590
2020/01/31 20:12:05.2	4.980	0.730	-0.780	0.570
2020/01/31 20:12:05.3	4.990	0.740	-0.810	0.540
2020/01/31 20:12:05.4	5.000	0.740	-0.840	0.510
2020/01/31 20:12:05.5	5.010	0.730	-0.860	0.480
2020/01/31 20:12:05.6	5.030	0.720	-0.880	0.440
2020/01/31 20:12:05.7	5.050	0.710	-0.890	0.410
2020/01/31 20:12:05.8	5.060	0.690	-0.900	0.370
2020/01/31 20:12:05.9	5.080	0.670	-0.900	0.320
2020/01/31 20:12:06.0	5.100	0.640	-0.900	0.280
2020/01/31 20:12:06.1	5.120	0.610	-0.890	0.240
2020/01/31 20:12:06.2	5.140	0.580	-0.870	0.200
2020/01/31 20:12:06.3	5.160	0.540	-0.860	0.150
2020/01/31 20:12:06.4	5.180	0.500	-0.830	0.110
2020/01/31 20:12:06.5	5.200	0.460	-0.800	0.060
2020/01/31 20:12:06.6	5.220	0.420	-0.770	0.020
2020/01/31 20:12:06.7	5.230	0.370	-0.730	-0.030
2020/01/31 20:12:06.8	5.250	0.330	-0.690	-0.080
2020/01/31 20:12:06.9	5.270	0.280	-0.640	-0.120
2020/01/31 20:12:07.0	5.280	0.230	-0.600	-0.160
2020/01/31 20:12:07.1	5.300	0.180	-0.550	-0.210
2020/01/31 20:12:07.2	5.310	0.140	-0.500	-0.250
2020/01/31 20:12:07.3	5.320	0.090	-0.440	-0.290
2020/01/31 20:12:07.4	5.330	0.040	-0.390	-0.320
2020/01/31 20:12:07.5	5.340	-0.000	-0.330	-0.360
2020/01/31 20:12:07.6	5.350	-0.050	-0.280	-0.390
2020/01/31 20:12:07.7	5.350	-0.090	-0.220	-0.430
2020/01/31 20:12:07.8	5.360	-0.130	-0.170	-0.460
2020/01/31 20:12:07.9	5.370	-0.170	-0.120	-0.490
2020/01/31 20:12:08.0	5.370	-0.210	-0.070	-0.520
2020/01/31 20:12:08.1	5.380	-0.240	-0.020	-0.540
2020/01/31 20:12:08.2	5.390	-0.270	0.020	-0.570
2020/01/31 20:12:08.3	5.400	-0.300	0.060	-0.590
2020/01/31 20:12:08.4	5.410	-0.320	0.100	-0.600
2020/01/31 20:12:08.5	5.420	-0.340	0.130	-0.620
2020/01/31 20:12:08.6	5.430	-0.350	0.150	-0.630
2020/01/31 20:12:08.7	5.440	-0.360	0.180	-0.650
2020/01/31 20:12:08.8	5.460	-0.370	0.190	-0.660
2020/01/31 20:12:08.9	5.470	-0.380	0.200	-0.660
2020/01/31 20:12:09.0	5.480	-0.370	0.200	-0.670
2020/01/31 20:12:09.1	5.500	-0.370	0.200	-0.670
2020/01/31 20:12:09.2	5.510	-0.360	0.200	-0.670
2020/01/31 20:12:09.3	5.530	-0.350	0.180	-0.670
2020/01/31 20:12:09.4	5.540	-0.340	0.170	-0.660
2020/01/31 20:12:09.5	5.550	-0.320	0.150	-0.660
2020/01/31 20:12:09.6	5.570	-0.300	0.120	-0.640
2020/01/31 20:12:09.7	5.570	-0.280	0.090	-0.630
2020/01/31 20:12:09.8	5.580	-0.260	0.060	-0.610
2020/01/31 20:12:09.9	5.580	-0.230	0.020	-0.590
2020/01/31 20:12:10.0	5.590	-0.210	-0.020	-0.570
2020/01/31 20:12:10.1	5.590	-0.180	-0.060	-0.550
2020/01/31 20:12:10.2	5.590	-0.150	-0.100	-0.520
2020/01/31 20:12:10.3	5.580	-0.120	-0.150	-0.500
2020/01/31 20:12:10.4	5.580	-0.100	-0.190	-0.470
2020/01/31 20:12:10.5	5.570	-0.070	-0.240	-0.440
2020/01/31 20:12:10.6	5.560	-0.040	-0.280	-0.420
2020/01/31 20:12:10.7	5.540	-0.010	-0.330	-0.390
2020/01/31 20:12:10.8	5.530	0.010	-0.380	-0.360
2020/01/31 20:12:10.9	5.510	0.040	-0.420	-0.330
2020/01/31 20:12:11.0	5.490	0.060	-0.460	-0.300
2020/01/31 20:12:11.1	5.470	0.080	-0.510	-0.270
2020/01/31 20:12:11.2	5.450	0.100	-0.550	-0.250
2020/01/31 20:12:11.3	5.420	0.120	-0.590	-0.220
2020/01/31 20:12:11.4	5.400	0.140	-0.620	-0.190
2020/01/31 20:12:11.5	5.370	0.150	-0.660	-0.170
2020/01/31 20:12:11.6	5.350	0.170	-0.690	-0.150
2020/01/31 20:12:11.7	5.330	0.180	-0.730	-0.130
2020/01/31 20:12:11.8	5.310	0.190	-0.750	-0.110
2020/01/31 20:12:11.9	5.290	0.190	-0.780	-0.100
2020/01/31 20:12:12.0	5.270	0.200	-0.810	-0.080
2020/01/31 20:12:12.1	5.260	0.200	-0.830	-0.080
2020/01/31 20:12:12.2	5.250	0.210	-0.840	-0.070
2020/01/31 20:12:12.3	5.240	0.210	-0.860	-0.070
2020/01/31 20:12:12.4	5.230	0.210	-0.870	-0.070
2020/01/31 20:12:12.5	5.230	0.210	-0.880	-0.080
2020/01/31 20:12:12.6	5.230	0.200	-0.890	-0.090
2020/01/31 20:12:12.7	5.240	0.200	-0.890	-0.100
2020/01/31 20:12:12.8	5.250	0.200	-0.890	-0.120
2020/01/31 20:12:12.9	5.260	0.190	-0.880	-0.140
2020/01/31 20:12:13.0	5.280	0.190	-0.870	-0.170
2020/01/31 20:12:13.1	5.300	0.180	-0.860	-0.200
2020/01/31 20:12:13.2	5.330	0.180	-0.850	-0.230
2020/01/31 20:12:13.3	5.360	0.170	-0.830	-0.260
2020/01/31 20:12:13.4	5.390	0.160	-0.800	-0.290
2020/01/31 20:12:13.5	5.430	0.160	-0.780	-0.330
2020/01/31 20:12:13.6	5.470	0.150	-0.740	-0.360
2020/01/31 20:12:13.7	5.510	0.150	-0.710	-0.400
2020/01/31 20:12:13.8	5.550	0.140	-0.670	-0.430
2020/01/31 20:12:13.9	5.600	0.140	-0.620	-0.470
2020/01/31 20:12:14.0	5.650	0.130	-0.570	-0.500
2020/01/31 20:12:14.1	5.690	0.120	-0.520	-0.530
2020/01/31 20:12:14.2	5.740	0.120	-0.460	-0.560
2020/01/31 20:12:14.3	5.780	0.110	-0.400	-0.580
2020/01/31 20:12:14.4	5.830	0.100	-0.330	-0.610
2020/01/31 20:12:14.5	5.870	0.100	-0.270	-0.630
2020/01/31 20:12:14.6	5.910	0.090	-0.200	-0.640
2020/01/31 20:12:14.7	5.950	0.080	-0.120	-0.660
2020/01/31 20:12:14.8	5.990	0.070	-0.050	-0.670
2020/01/31 20:12:14.9	6.020	0.060	0.020	-0.680
2020/01/31 20:12:15.0	6.050	0.040	0.100	-0.680
2020/01/31 20:12:15.1	6.080	0.030	0.170	-0.680
2020/01/31 20:12:15.2	6.100	0.010	0.240	-0.680
2020/01/31 20:12:15.3	6.130	-0.000	0.310	-0.670
2020/01/31 20:12:15.4	6.140	-0.020	0.380	-0.660
2020/01/31 20:12:15.5	6.160	-0.040	0.450	-0.650
2020/01/31 20:12:15.6	6.170	-0.060	0.510	-0.630
2020/01/31 20:12:15.7	6.180	-0.080	0.570	-0.610
2020/01/31 20:12:15.8	6.180	-0.100	0.620	-0.590
2020/01/31 20:12:15.9	6.170	-0.120	0.670	-0.570
2020/01/31 20:12:16.0	6.170	-0.150	0.710	-0.540
2020/01/31 20:12:16.1	6.160	-0.170	0.750	-0.510
2020/01/31 20:12:16.2	6.140	-0.190	0.780	-0.470
2020/01/31 20:12:16.3	6.130	-0.210	0.810	-0.440
2020/01/31 20:12:16.4	6.110	-0.240	0.830	-0.400
2020/01/31 20:12:16.5	6.090	-0.260	0.840	-0.360
2020/01/31 20:12:16.6	6.060	-0.280	0.850	-0.320
2020/01/31 20:12:16.7	6.030	-0.300	0.840	-0.280
2020/01/31 20:12:16.8	6.000	-0.320	0.840	-0.240
2020/01/31 20:12:16.9	5.970	-0.340	0.820	-0.190
2020/01/31 20:12:17.0	5.940	-0.360	0.800	-0.150
2020/01/31 20:12:17.1	5.900	-0.370	0.770	-0.100
2020/01/31 20:12:17.2	5.870	-0.380	0.740	-0.060
2020/01/31 20:12:17.3	5.830	-0.390	0.690	-0.020
2020/01/31 20:12:17.4	5.800	-0.400	0.650	0.020
2020/01/31 20:12:17.5	5.760	-0.400	0.590	0.060
2020/01/31 20:12:17.6	5.730	-0.410	0.530	0.100
2020/01/31 20:12:17.7	5.690	-0.410	0.470	0.140
2020/01/31 20:12:17.8	5.660	-0.400	0.400	0.170
2020/01/31 20:12:17.9	5.640	-0.400	0.320	0.200
2020/01/31 20:12:18.0	5.610	-0.390	0.250	0.230
2020/01/31 20:12:18.1	5.580	-0.370	0.160	0.260
2020/01/31 20:12:18.2	5.550	-0.360	0.080	0.280
2020/01/31 20:12:18.3	5.520	-0.340	-0.010	0.300
2020/01/31 20:12:18.4	5.500	-0.320	-0.090	0.320
2020/01/31 20:12:18.5	5.470	-0.290	-0.180	0.330
2020/01/31 20:12:18.6	5.450	-0.270	-0.270	0.340
2020/01/31 20:12:18.7	5.430	-0.240	-0.360	0.350
2020/01/31 20:12:18.8	5.410	-0.210	-0.440	0.350
2020/01/31 20:12:18.9	5.400	-0.180	-0.530	0.360
2020/01/31 20:12:19.0	5.380	-0.140	-0.610	0.350
2020/01/31 20:12:19.1	5.360	-0.110	-0.690	0.340
2020/01/31 20:12:19.2	5.340	-0.070	-0.760	0.330
2020/01/31 20:12:19.3	5.330	-0.040	-0.830	0.310
2020/01/31 20:12:19.4	5.310	-0.000	-0.900	0.300
2020/01/31 20:12:19.5	5.300	0.030	-0.960	0.270
2020/01/31 20:12:19.6	5.290	0.070	-1.010	0.250
2020/01/31 20:12:19.7	5.280	0.110	-1.060	0.220
2020/01/31 20:12:19.8	5.270	0.140	-1.100	0.190
2020/01/31 20:12:19.9	5.260	0.180	-1.140	0.150
2020/01/31 20:12:20.0	5.250	0.210	-1.170	0.120
2020/01/31 20:12:20.1	5.250	0.250	-1.200	0.080
2020/01/31 20:12:20.2	5.250	0.280	-1.220	0.050
2020/01/31 20:12:20.3	5.260	0.310	-1.240	0.010
2020/01/31 20:12:20.4	5.260	0.340	-1.240	-0.030
2020/01/31 20:12:20.5	5.280	0.370	-1.250	-0.070
2020/01/31 20:12:20.6	5.290	0.390	-1.250	-0.110
2020/01/31 20:12:20.7	5.310	0.420	-1.240	-0.150
2020/01/31 20:12:20.8	5.330	0.440	-1.230	-0.190
2020/01/31 20:12:20.9	5.360	0.460	-1.220	-0.220
2020/01/31 20:12:21.0	5.380	0.480	-1.200	-0.260
2020/01/31 20:12:21.1	5.410	0.500	-1.180	-0.300
2020/01/31 20:12:21.2	5.440	0.520	-1.150	-0.330
2020/01/31 20:12:21.3	5.480	0.530	-1.120	-0.370
2020/01/31 20:12:21.4	5.520	0.540	-1.090	-0.400
2020/01/31 20:12:21.5	5.550	0.550	-1.060	-0.440
2020/01/31 20:12:21.6	5.590	0.550	-1.020	-0.470
2020/01/31 20:12:21.7	5.630	0.560	-0.980	-0.500
2020/01/31 20:12:21.8	5.680	0.560	-0.940	-0.530
2020/01/31 20:12:21.9	5.720	0.560	-0.900	-0.560
2020/01/31 20:12:22.0	5.760	0.550	-0.860	-0.590
2020/01/31 20:12:22.1	5.800	0.550	-0.810	-0.620
2020/01/31 20:12:22.2	5.840	0.540	-0.760	-0.640
2020/01/31 20:12:22.3	5.890	0.530	-0.710	-0.660
2020/01/31 20:12:22.4	5.930	0.520	-0.660	-0.690
2020/01/31 20:12:22.5	5.970	0.510	-0.610	-0.710
2020/01/31 20:12:22.6	6.010	0.490	-0.560	-0.720
2020/01/31 20:12:22.7	6.050	0.470	-0.510	-0.740
2020/01/31 20:12:22.8	6.080	0.460	-0.450	-0.750
2020/01/31 20:12:22.9	6.120	0.440	-0.400	-0.760
2020/01/31 20:12:23.0	6.150	0.420	-0.340	-0.770
2020/01/31 20:12:23.1	6.190	0.400	-0.290	-0.770
2020/01/31 20:12:23.2	6.220	0.370	-0.230	-0.770
2020/01/31 20:12:23.3	6.240	0.350	-0.170	-0.770
2020/01/31 20:12:23.4	6.270	0.320	-0.110	-0.760
2020/01/31 20:12:23.5	6.290	0.300	-0.050	-0.750
2020/01/31 20:12:23.6	6.310	0.270	0.010	-0.730
2020/01/31 20:12:23.7	6.330	0.240	0.070	-0.720
2020/01/31 20:12:23.8	6.350	0.210	0.130	-0.690
2020/01/31 20:12:23.9	6.360	0.180	0.190	-0.670
2020/01/31 20:12:24.0	6.370	0.150	0.250	-0.640
2020/01/31 20:12:24.1	6.380	0.120	0.310	-0.610
2020/01/31 20:12:24.2	6.380	0.090	0.360	-0.580
2020/01/31 20:12:24.3	6.380	0.060	0.420	-0.550
2020/01/31 20:12:24.4	6.380	0.020	0.470	-0.520
2020/01/31 20:12:24.5	6.380	-0.010	0.510	-0.480
2020/01/31 20:12:24.6	6.370	-0.050	0.560	-0.440
2020/01/31 20:12:24.7	6.370	-0.080	0.600	-0.410
2020/01/31 20:12:24.8	6.360	-0.120	0.640	-0.370
2020/01/31 20:12:24.9	6.340	-0.160	0.670	-0.330
2020/01/31 20:12:25.0	6.330	-0.200	0.690	-0.300
2020/01/31 20:12:25.1	6.310	-0.230	0.710	-0.260
2020/01/31 20:12:25.2	6.300	-0.270	0.730	-0.230
2020/01/31 20:12:25.3	6.280	-0.310	0.740	-0.200
2020/01/31 20:12:25.4	6.260	-0.340	0.740	-0.170
2020/01/31 20:12:25.5	6.240	-0.380	0.740	-0.140
2020/01/31 20:12:25.6	6.220	-0.410	0.730	-0.120
2020/01/31 20:12:25.7	6.200	-0.450	0.710	-0.110
2020/01/31 20:12:25.8	6.180	-0.480	0.690	-0.090
2020/01/31 20:12:25.9	6.150	-0.510	0.660	-0.080
2020/01/31 20:12:26.0	6.130	-0.540	0.630	-0.080
2020/01/31 20:12:26.1	6.110	-0.570	0.590	-0.080
2020/01/31 20:12:26.2	6.090	-0.600	0.540	-0.080
2020/01/31 20:12:26.3	6.070	-0.620	0.500	-0.090
2020/01/31 20:12:26.4	6.050	-0.640	0.440	-0.100
2020/01/31 20:12:26.5	6.030	-0.660	0.390	-0.120
2020/01/31 20:12:26.6	6.010	-0.670	0.320	-0.140
2020/01/31 20:12:26.7	5.990	-0.680	0.260	-0.160
2020/01/31 20:12:26.8	5.980	-0.690	0.190	-0.180
2020/01/31 20:12:26.9	5.950	-0.690	0.130	-0.210
2020/01/31 20:12:27.0	5.930	-0.700	0.060	-0.230
2020/01/31 20:12:27.1	5.910	-0.690	-0.010	-0.260
2020/01/31 20:12:27.2	5.900	-0.690	-0.080	-0.280
2020/01/31 20:12:27.3	5.880	-0.680	-0.150	-0.300
2020/01/31 20:12:27.4	5.860	-0.660	-0.210	-0.310
2020/01/31 20:12:27.5	5.840	-0.650	-0.270	-0.330
2020/01/31 20:12:27.6	5.830	-0.630	-0.340	-0.340
2020/01/31 20:12:27.7	5.810	-0.600	-0.390	-0.350
2020/01/31 20:12:27.8	5.790	-0.580	-0.450	-0.360
2020/01/31 20:12:27.9	5.770	-0.550	-0.500	-0.360
2020/01/31 20:12:28.0	5.750	-0.520	-0.540	-0.360
2020/01/31 20:12:28.1	5.730	-0.490	-0.580	-0.360
2020/01/31 20:12:28.2	5.710	-0.450	-0.620	-0.350
2020/01/31 20:12:28.3	5.690	-0.420	-0.650	-0.350
2020/01/31 20:12:28.4	5.670	-0.380	-0.680	-0.340
2020/01/31 20:12:28.5	5.650	-0.340	-0.710	-0.330
2020/01/31 20:12:28.6	5.630	-0.300	-0.730	-0.310
2020/01/31 20:12:28.7	5.610	-0.260	-0.740	-0.300
2020/01/31 20:12:28.8	5.600	-0.210	-0.760	-0.290
2020/01/31 20:12:28.9	5.580	-0.170	-0.770	-0.270
2020/01/31 20:12:29.0	5.570	-0.130	-0.780	-0.260
2020/01/31 20:12:29.1	5.560	-0.080	-0.790	-0.240
2020/01/31 20:12:29.2	5.550	-0.040	-0.790	-0.230
2020/01/31 20:12:29.3	5.540	0.010	-0.800	-0.210
2020/01/31 20:12:29.4	5.540	0.050	-0.800	-0.200
2020/01/31 20:12:29.5	5.540	0.100	-0.800	-0.190
2020/01/31 20:12:29.6	5.540	0.140	-0.800	-0.170
2020/01/31 20:12:29.7	5.550	0.190	-0.800	-0.160
2020/01/31 20:12:29.8	5.560	0.230	-0.800	-0.150
2020/01/31 20:12:29.9	5.560	0.280	-0.790	-0.140
2020/01/31 20:12:30.0	5.580	0.320	-0.790	-0.130
2020/01/31 20:12:30.1	5.590	0.360	-0.790	-0.120
2020/01/31 20:12:30.2	5.610	0.400	-0.790	-0.110
2020/01/31 20:12:30.3	5.640	0.440	-0.780	-0.100
2020/01/31 20:12:30.4	5.660	0.480	-0.780	-0.100
2020/01/31 20:12:30.5	5.690	0.520	-0.780	-0.090
2020/01/31 20:12:30.6	5.710	0.560	-0.770	-0.080
2020/01/31 20:12:30.7	5.740	0.590	-0.760	-0.070
2020/01/31 20:12:30.8	5.770	0.620	-0.750	-0.060
2020/01/31 20:12:30.9	5.810	0.650	-0.750	-0.060
2020/01/31 20:12:31.0	5.850	0.680	-0.740	-0.050
2020/01/31 20:12:31.1	5.880	0.700	-0.720	-0.040
2020/01/31 20:12:31.2	5.910	0.720	-0.710	-0.030
2020/01/31 20:12:31.3	5.940	0.740	-0.690	-0.020
2020/01/31 20:12:31.4	5.970	0.750	-0.680	-0.020
2020/01/31 20:12:31.5	6.000	0.760	-0.660	-0.010
2020/01/31 20:12:31.6	6.040	0.760	-0.630	-0.000
2020/01/31 20:12:31.7	6.070	0.760	-0.610	0.000
2020/01/31 20:12:31.8	6.090	0.760	-0.590	0.010
2020/01/31 20:12:31.9	6.130	0.750	-0.560	0.020
2020/01/31 20:12:32.0	6.150	0.740	-0.530	0.030
2020/01/31 20:12:32.1	6.180	0.730	-0.500	0.030
2020/01/31 20:12:32.2	6.210	0.710	-0.470	0.040
2020/01/31 20:12:32.3	6.230	0.680	-0.440	0.040
2020/01/31 20:12:32.4	6.250	0.650	-0.400	0.050
2020/01/31 20:12:32.5	6.270	0.620	-0.370	0.050
2020/01/31 20:12:32.6	6.290	0.590	-0.330	0.050
2020/01/31 20:12:32.7	6.310	0.550	-0.300	0.060
2020/01/31 20:12:32.8	6.320	0.500	-0.260	0.060
2020/01/31 20:12:32.9	6.330	0.460	-0.220	0.060
2020/01/31 20:12:33.0	6.340	0.410	-0.180	0.060
2020/01/31 20:12:33.1	6.350	0.360	-0.140	0.060
2020/01/31 20:12:33.2	6.350	0.300	-0.100	0.060
2020/01/31 20:12:33.3	6.360	0.250	-0.060	0.070
2020/01/31 20:12:33.4	6.360	0.190	-0.020	0.070
2020/01/31 20:12:33.5	6.370	0.130	0.020	0.070
2020/01/31 20:12:33.6	6.370	0.070	0.060	0.070
2020/01/31 20:12:33.7	6.370	0.010	0.100	0.070
2020/01/31 20:12:33.8	6.360	-0.050	0.140	0.080
2020/01/31 20:12:33.9	6.370	-0.100	0.180	0.080
2020/01/31 20:12:34.0	6.360	-0.160	0.220	0.090
2020/01/31 20:12:34.1	6.350	-0.220	0.250	0.100
2020/01/31 20:12:34.2	6.340	-0.270	0.290	0.100
2020/01/31 20:12:34.3	6.330	-0.320	0.320	0.110
2020/01/31 20:12:34.4	6.320	-0.370	0.350	0.120
2020/01/31 20:12:34.5	6.300	-0.420	0.380	0.130
2020/01/31 20:12:34.6	6.280	-0.460	0.410	0.140
2020/01/31 20:12:34.7	6.270	-0.500	0.430	0.150
2020/01/31 20:12:34.8	6.250	-0.540	0.450	0.160
2020/01/31 20:12:34.9	6.220	-0.570	0.470	0.160
2020/01/31 20:12:35.0	6.200	-0.600	0.490	0.170
2020/01/31 20:12:35.1	6.170	-0.630	0.510	0.180
2020/01/31 20:12:35.2	6.150	-0.650	0.520	0.190
2020/01/31 20:12:35.3	6.120	-0.660	0.530	0.200
2020/01/31 20:12:35.4	6.100	-0.670	0.540	0.210
2020/01/31 20:12:35.5	6.070	-0.680	0.540	0.220
2020/01/31 20:12:35.6	6.050	-0.680	0.540	0.230
2020/01/31 20:12:35.7	6.020	-0.670	0.540	0.240
2020/01/31 20:12:35.8	6.000	-0.660	0.530	0.250
2020/01/31 20:12:35.9	5.980	-0.650	0.520	0.260
2020/01/31 20:12:36.0	5.960	-0.630	0.510	0.270
2020/01/31 20:12:36.1	5.940	-0.610	0.490	0.270
2020/01/31 20:12:36.2	5.920	-0.580	0.460	0.280
2020/01/31 20:12:36.3	5.900	-0.550	0.440	0.290
2020/01/31 20:12:36.4	5.880	-0.520	0.400	0.290
2020/01/31 20:12:36.5	5.860	-0.480	0.360	0.300
2020/01/31 20:12:36.6	5.850	-0.440	0.320	0.300
2020/01/31 20:12:36.7	5.840	-0.400	0.270	0.300
2020/01/31 20:12:36.8	5.820	-0.360	0.220	0.300
2020/01/31 20:12:36.9	5.810	-0.320	0.160	0.300
2020/01/31 20:12:37.0	5.810	-0.270	0.100	0.300
2020/01/31 20:12:37.1	5.800	-0.230	0.030	0.290
2020/01/31 20:12:37.2	5.790	-0.180	-0.030	0.280
2020/01/31 20:12:37.3	5.790	-0.140	-0.100	0.270
2020/01/31 20:12:37.4	5.790	-0.090	-0.180	0.260
2020/01/31 20:12:37.5	5.780	-0.050	-0.250	0.240
2020/01/31 20:12:37.6	5.790	-0.010	-0.330	0.220
2020/01/31 20:12:37.7	5.790	0.030	-0.410	0.190
2020/01/31 20:12:37.8	5.790	0.060	-0.480	0.160
2020/01/31 20:12:37.9	5.790	0.100	-0.560	0.130
2020/01/31 20:12:38.0	5.800	0.130	-0.640	0.100
2020/01/31 20:12:38.1	5.810	0.160	-0.710	0.060
2020/01/31 20:12:38.2	5.810	0.180	-0.790	0.020
2020/01/31 20:12:38.3	5.820	0.200	-0.860	-0.030
2020/01/31 20:12:38.4	5.840	0.220	-0.930	-0.070
2020/01/31 20:12:38.5	5.850	0.240	-1.000	-0.120
2020/01/31 20:12:38.6	5.860	0.250	-1.060	-0.170
2020/01/31 20:12:38.7	5.870	0.260	-1.120	-0.220
2020/01/31 20:12:38.8	5.890	0.270	-1.180	-0.270
2020/01/31 20:12:38.9	5.910	0.270	-1.230	-0.320
2020/01/31 20:12:39.0	5.920	0.270	-1.270	-0.370
2020/01/31 20:12:39.1	5.940	0.270	-1.310	-0.420
2020/01/31 20:12:39.2	5.960	0.260	-1.340	-0.470
2020/01/31 20:12:39.3	5.970	0.250	-1.360	-0.510
2020/01/31 20:12:39.4	5.990	0.240	-1.380	-0.560
2020/01/31 20:12:39.5	6.010	0.230	-1.380	-0.600
2020/01/31 20:12:39.6	6.030	0.220	-1.380	-0.630
2020/01/31 20:12:39.7	6.040	0.210	-1.360	-0.660
2020/01/31 20:12:39.8	6.060	0.190	-1.340	-0.690
2020/01/31 20:12:39.9	6.090	0.180	-1.310	-0.720
2020/01/31 20:12:40.0	6.100	0.160	-1.270	-0.740
2020/01/31 20:12:40.1	6.120	0.140	-1.230	-0.760
2020/01/31 20:12:40.2	6.130	0.130	-1.170	-0.770
2020/01/31 20:12:40.3	6.150	0.110	-1.110	-0.780
2020/01/31 20:12:40.4	6.160	0.090	-1.040	-0.780
2020/01/31 20:12:40.5	6.170	0.080	-0.970	-0.780
2020/01/31 20:12:40.6	6.190	0.060	-0.890	-0.780
2020/01/31 20:12:40.7	6.200	0.050	-0.800	-0.770
2020/01/31 20:12:40.8	6.210	0.040	-0.710	-0.760
2020/01/31 20:12:40.9	6.240	0.030	-0.620	-0.750
2020/01/31 20:12:41.0	6.250	0.020	-0.530	-0.730
2020/01/31 20:12:41.1	6.260	0.010	-0.430	-0.710
2020/01/31 20:12:41.2	6.270	0.000	-0.330	-0.680
2020/01/31 20:12:41.3	6.290	-0.000	-0.230	-0.660
2020/01/31 20:12:41.4	6.300	-0.010	-0.140	-0.630
2020/01/31 20:12:41.5	6.310	-0.010	-0.040	-0.600
2020/01/31 20:12:41.6	6.320	-0.010	0.050	-0.570
2020/01/31 20:12:41.7	6.320	-0.020	0.150	-0.540
2020/01/31 20:12:41.8	6.330	-0.020	0.230	-0.510
2020/01/31 20:12:41.9	6.330	-0.020	0.310	-0.480
2020/01/31 20:12:42.0	6.340	-0.020	0.400	-0.440
2020/01/31 20:12:42.1	6.340	-0.020	0.470	-0.410
2020/01/31 20:12:42.2	6.340	-0.020	0.540	-0.370
2020/01/31 20:12:42.3	6.340	-0.020	0.600	-0.340
2020/01/31 20:12:42.4	6.340	-0.020	0.660	-0.310
2020/01/31 20:12:42.5	6.340	-0.020	0.710	-0.270
2020/01/31 20:12:42.6	6.330	-0.020	0.760	-0.240
2020/01/31 20:12:42.7	6.330	-0.030	0.790	-0.210
2020/01/31 20:12:42.8	6.320	-0.030	0.820	-0.180
2020/01/31 20:12:42.9	6.310	-0.030	0.840	-0.150
2020/01/31 20:12:43.0	6.300	-0.040	0.850	-0.120
2020/01/31 20:12:43.1	6.290	-0.040	0.850	-0.100
2020/01/31 20:12:43.2	6.290	-0.050	0.850	-0.080
2020/01/31 20:12:43.3	6.280	-0.060	0.830	-0.060
2020/01/31 20:12:43.4	6.270	-0.060	0.810	-0.050
2020/01/31 20:12:43.5	6.260	-0.070	0.780	-0.030
2020/01/31 20:12:43.6	6.250	-0.070	0.740	-0.020
2020/01/31 20:12:43.7	6.250	-0.080	0.690	-0.010
2020/01/31 20:12:43.8	6.240	-0.090	0.640	-0.010
2020/01/31 20:12:43.9	6.240	-0.090	0.580	-0.010
2020/01/31 20:12:44.0	6.230	-0.100	0.520	-0.010
2020/01/31 20:12:44.1	6.220	-0.100	0.450	-0.010
2020/01/31 20:12:44.2	6.210	-0.100	0.370	-0.020
2020/01/31 20:12:44.3	6.200	-0.100	0.290	-0.030
2020/01/31 20:12:44.4	6.200	-0.100	0.200	-0.040
2020/01/31 20:12:44.5	6.190	-0.100	0.120	-0.050
2020/01/31 20:12:44.6	6.180	-0.090	0.030	-0.060
2020/01/31 20:12:44.7	6.180	-0.090	-0.070	-0.070
2020/01/31 20:12:44.8	6.170	-0.080	-0.160	-0.090
2020/01/31 20:12:44.9	6.170	-0.070	-0.250	-0.110
2020/01/31 20:12:45.0	6.160	-0.060	-0.340	-0.130
2020/01/31 20:12:45.1	6.160	-0.040	-0.430	-0.140
2020/01/31 20:12:45.2	6.150	-0.020	-0.510	-0.160
2020/01/31 20:12:45.3	6.150	-0.010	-0.600	-0.170
2020/01/31 20:12:45.4	6.150	0.010	-0.670	-0.190
2020/01/31 20:12:45.5	6.150	0.040	-0.750	-0.200
2020/01/31 20:12:45.6	6.150	0.060	-0.810	-0.220
2020/01/31 20:12:45.7	6.150	0.080	-0.870	-0.230
2020/01/31 20:12:45.8	6.150	0.110	-0.930	-0.250
2020/01/31 20:12:45.9	6.150	0.130	-0.980	-0.260
2020/01/31 20:12:46.0	6.150	0.160	-1.020	-0.280
2020/01/31 20:12:46.1	6.150	0.180	-1.050	-0.290
2020/01/31 20:12:46.2	6.160	0.210	-1.080	-0.300
2020/01/31 20:12:46.3	6.160	0.230	-1.100	-0.320
2020/01/31 20:12:46.4	6.170	0.260	-1.120	-0.330
2020/01/31 20:12:46.5	6.180	0.280	-1.130	-0.350
2020/01/31 20:12:46.6	6.190	0.300	-1.130	-0.360
2020/01/31 20:12:46.7	6.200	0.320	-1.130	-0.370
2020/01/31 20:12:46.8	6.210	0.340	-1.120	-0.390
2020/01/31 20:12:46.9	6.220	0.360	-1.110	-0.400
2020/01/31 20:12:47.0	6.230	0.370	-1.090	-0.410
2020/01/31 20:12:47.1	6.250	0.380	-1.060	-0.420
2020/01/31 20:12:47.2	6.260	0.390	-1.030	-0.430
2020/01/31 20:12:47.3	6.280	0.390	-0.990	-0.440
2020/01/31 20:12:47.4	6.290	0.400	-0.950	-0.440
2020/01/31 20:12:47.5	6.310	0.390	-0.910	-0.450
2020/01/31 20:12:47.6	6.320	0.390	-0.860	-0.450
2020/01/31 20:12:47.7	6.330	0.380	-0.800	-0.460
2020/01/31 20:12:47.8	6.340	0.360	-0.750	-0.460
2020/01/31 20:12:47.9	6.360	0.340	-0.690	-0.460
2020/01/31 20:12:48.0	6.370	0.320	-0.620	-0.460
2020/01/31 20:12:48.1	6.380	0.300	-0.560	-0.450
2020/01/31 20:12:48.2	6.380	0.260	-0.490	-0.450
2020/01/31 20:12:48.3	6.390	0.230	-0.430	-0.450
2020/01/31 20:12:48.4	6.390	0.190	-0.360	-0.450
2020/01/31 20:12:48.5	6.390	0.150	-0.290	-0.450
2020/01/31 20:12:48.6	6.390	0.100	-0.220	-0.440
2020/01/31 20:12:48.7	6.390	0.060	-0.150	-0.440
2020/01/31 20:12:48.8	6.390	0.010	-0.090	-0.440
2020/01/31 20:12:48.9	6.380	-0.050	-0.020	-0.440
2020/01/31 20:12:49.0	6.370	-0.100	0.040	-0.440
2020/01/31 20:12:49.1	6.360	-0.160	0.100	-0.440
2020/01/31 20:12:49.2	6.360	-0.220	0.150	-0.440
2020/01/31 20:12:49.3	6.350	-0.270	0.200	-0.450
2020/01/31 20:12:49.4	6.340	-0.330	0.250	-0.450
2020/01/31 20:12:49.5	6.330	-0.390	0.290	-0.450
2020/01/31 20:12:49.6	6.320	-0.440	0.330	-0.450
2020/01/31 20:12:49.7	6.320	-0.490	0.360	-0.460
2020/01/31 20:12:49.8	6.310	-0.550	0.390	-0.460
2020/01/31 20:12:49.9	6.300	-0.590	0.410	-0.460
2020/01/31 20:12:50.0	6.290	-0.640	0.420	-0.460
2020/01/31 20:12:50.1	6.280	-0.680	0.430	-0.460
2020/01/31 20:12:50.2	6.270	-0.710	0.430	-0.460
2020/01/31 20:12:50.3	6.270	-0.750	0.430	-0.460
2020/01/31 20:12:50.4	6.260	-0.770	0.420	-0.450
2020/01/31 20:12:50.5	6.250	-0.790	0.410	-0.450
2020/01/31 20:12:50.6	6.250	-0.810	0.390	-0.440
2020/01/31 20:12:50.7	6.240	-0.820	0.370	-0.430
2020/01/31 20:12:50.8	6.230	-0.820	0.350	-0.420
2020/01/31 20:12:50.9	6.220	-0.820	0.320	-0.410
2020/01/31 20:12:51.0	6.210	-0.810	0.290	-0.400
2020/01/31 20:12:51.1	6.210	-0.800	0.260	-0.390
2020/01/31 20:12:51.2	6.200	-0.780	0.220	-0.370
2020/01/31 20:12:51.3	6.190	-0.750	0.190	-0.360
2020/01/31 20:12:51.4	6.190	-0.710	0.150	-0.340
2020/01/31 20:12:51.5	6.180	-0.670	0.110	-0.320
2020/01/31 20:12:51.6	6.170	-0.630	0.070	-0.300
2020/01/31 20:12:51.7	6.160	-0.580	0.040	-0.280
2020/01/31 20:12:51.8	6.150	-0.520	-0.000	-0.250
2020/01/31 20:12:51.9	6.140	-0.460	-0.040	-0.230
2020/01/31 20:12:52.0	6.130	-0.400	-0.070	-0.200
2020/01/31 20:12:52.1	6.120	-0.330	-0.110	-0.180
2020/01/31 20:12:52.2	6.100	-0.260	-0.140	-0.150
2020/01/31 20:12:52.3	6.090	-0.190	-0.170	-0.120
2020/01/31 20:12:52.4	6.080	-0.120	-0.210	-0.080
2020/01/31 20:12:52.5	6.060	-0.040	-0.240	-0.050
2020/01/31 20:12:52.6	6.050	0.030	-0.260	-0.020
2020/01/31 20:12:52.7	6.040	0.110	-0.290	0.010
2020/01/31 20:12:52.8	6.020	0.180	-0.320	0.050
2020/01/31 20:12:52.9	6.010	0.250	-0.340	0.080
2020/01/31 20:12:53.0	6.000	0.320	-0.370	0.120
2020/01/31 20:12:53.1	5.990	0.390	-0.390	0.160
2020/01/31 20:12:53.2	5.970	0.460	-0.410	0.190
2020/01/31 20:12:53.3	5.960	0.520	-0.420	0.230
2020/01/31 20:12:53.4	5.950	0.580	-0.440	0.270
2020/01/31 20:12:53.5	5.940	0.630	-0.450	0.300
2020/01/31 20:12:53.6	5.930	0.680	-0.470	0.340
2020/01/31 20:12:53.7	5.920	0.730	-0.480	0.370
2020/01/31 20:12:53.8	5.910	0.770	-0.490	0.410
2020/01/31 20:12:53.9	5.900	0.800	-0.500	0.440
2020/01/31 20:12:54.0	5.900	0.830	-0.500	0.470
2020/01/31 20:12:54.1	5.890	0.850	-0.510	0.500
2020/01/31 20:12:54.2	5.890	0.860	-0.510	0.520
2020/01/31 20:12:54.3	5.880	0.870	-0.510	0.540
2020/01/31 20:12:54.4	5.880	0.870	-0.510	0.560
2020/01/31 20:12:54.5	5.870	0.870	-0.510	0.570
2020/01/31 20:12:54.6	5.870	0.860	-0.510	0.580
2020/01/31 20:12:54.7	5.860	0.840	-0.500	0.580
2020/01/31 20:12:54.8	5.860	0.820	-0.500	0.580
2020/01/31 20:12:54.9	5.870	0.790	-0.490	0.570
2020/01/31 20:12:55.0	5.870	0.760	-0.480	0.560
2020/01/31 20:12:55.1	5.860	0.720	-0.470	0.540
2020/01/31 20:12:55.2	5.860	0.680	-0.460	0.530
2020/01/31 20:12:55.3	5.850	0.630	-0.440	0.500
2020/01/31 20:12:55.4	5.850	0.580	-0.430	0.480
2020/01/31 20:12:55.5	5.840	0.520	-0.410	0.450
2020/01/31 20:12:55.6	5.830	0.460	-0.390	0.420
2020/01/31 20:12:55.7	5.830	0.400	-0.370	0.380
2020/01/31 20:12:55.8	5.820	0.340	-0.350	0.340
2020/01/31 20:12:55.9	5.820	0.280	-0.330	0.300
2020/01/31 20:12:56.0	5.820	0.220	-0.310	0.260
2020/01/31 20:12:56.1	5.820	0.150	-0.290	0.210
2020/01/31 20:12:56.2	5.820	0.090	-0.270	0.160
2020/01/31 20:12:56.3	5.820	0.020	-0.260	0.120
2020/01/31 20:12:56.4	5.820	-0.040	-0.240	0.060
2020/01/31 20:12:56.5	5.830	-0.100	-0.230	0.010
2020/01/31 20:12:56.6	5.830	-0.160	-0.220	-0.040
2020/01/31 20:12:56.7	5.850	-0.220	-0.220	-0.100
2020/01/31 20:12:56.8	5.860	-0.270	-0.220	-0.160
2020/01/31 20:12:56.9	5.890	-0.320	-0.220	-0.220
2020/01/31 20:12:57.0	5.900	-0.370	-0.230	-0.290
2020/01/31 20:12:57.1	5.920	-0.410	-0.240	-0.350
2020/01/31 20:12:57.2	5.950	-0.450	-0.250	-0.420
2020/01/31 20:12:57.3	5.970	-0.480	-0.270	-0.480
2020/01/31 20:12:57.4	6.000	-0.510	-0.290	-0.550
2020/01/31 20:12:57.5	6.030	-0.530	-0.320	-0.620
2020/01/31 20:12:57.6	6.070	-0.550	-0.350	-0.680
2020/01/31 20:12:57.7	6.100	-0.560	-0.380	-0.750
2020/01/31 20:12:57.8	6.140	-0.570	-0.420	-0.820
2020/01/31 20:12:57.9	6.190	-0.580	-0.450	-0.880
2020/01/31 20:12:58.0	6.220	-0.570	-0.490	-0.940
2020/01/31 20:12:58.1	6.260	-0.570	-0.530	-1.000
2020/01/31 20:12:58.2	6.300	-0.560	-0.570	-1.060
2020/01/31 20:12:58.3	6.340	-0.550	-0.600	-1.110
2020/01/31 20:12:58.4	6.380	-0.530	-0.640	-1.160
2020/01/31 20:12:58.5	6.420	-0.510	-0.670	-1.200
2020/01/31 20:12:58.6	6.460	-0.490	-0.700	-1.240
2020/01/31 20:12:58.7	6.500	-0.460	-0.720	-1.270
2020/01/31 20:12:58.8	6.530	-0.430	-0.740	-1.300
2020/01/31 20:12:58.9	6.570	-0.400	-0.760	-1.320
2020/01/31 20:12:59.0	6.600	-0.360	-0.770	-1.340
2020/01/31 20:12:59.1	6.630	-0.330	-0.770	-1.340
2020/01/31 20:12:59.2	6.650	-0.290	-0.770	-1.340
2020/01/31 20:12:59.3	6.680	-0.260	-0.770	-1.340
2020/01/31 20:12:59.4	6.700	-0.220	-0.750	-1.330
2020/01/31 20:12:59.5	6.720	-0.190	-0.730	-1.310
2020/01/31 20:12:59.6	6.730	-0.150	-0.710	-1.290
2020/01/31 20:12:59.7	6.740	-0.110	-0.670	-1.260
2020/01/31 20:12:59.8	6.750	-0.080	-0.640	-1.230
2020/01/31 20:12:59.9	6.770	-0.050	-0.600	-1.190
2020/01/31 20:13:00.0	6.780	-0.020	-0.550	-1.150
2020/01/31 20:13:00.1	6.780	0.010	-0.500	-1.110
2020/01/31 20:13:00.2	6.780	0.030	-0.450	-1.060
2020/01/31 20:13:00.3	6.780	0.060	-0.390	-1.010
2020/01/31 20:13:00.4	6.780	0.080	-0.330	-0.960
2020/01/31 20:13:00.5	6.780	0.100	-0.270	-0.910
2020/01/31 20:13:00.6	6.780	0.110	-0.210	-0.860
2020/01/31 20:13:00.7	6.770	0.120	-0.140	-0.810
2020/01/31 20:13:00.8	6.760	0.130	-0.080	-0.760
2020/01/31 20:13:00.9	6.760	0.140	-0.010	-0.700
2020/01/31 20:13:01.0	6.750	0.140	0.050	-0.650
2020/01/31 20:13:01.1	6.740	0.140	0.110	-0.590
2020/01/31 20:13:01.2	6.720	0.140	0.170	-0.540
2020/01/31 20:13:01.3	6.710	0.130	0.220	-0.480
2020/01/31 20:13:01.4	6.690	0.120	0.280	-0.430
2020/01/31 20:13:01.5	6.670	0.110	0.330	-0.370
2020/01/31 20:13:01.6	6.650	0.100	0.380	-0.320
2020/01/31 20:13:01.7	6.620	0.080	0.420	-0.270
2020/01/31 20:13:01.8	6.600	0.060	0.460	-0.220
2020/01/31 20:13:01.9	6.560	0.040	0.500	-0.160
2020/01/31 20:13:02.0	6.530	0.020	0.530	-0.120
2020/01/31 20:13:02.1	6.500	-0.000	0.560	-0.070
2020/01/31 20:13:02.2	6.470	-0.030	0.580	-0.020
2020/01/31 20:13:02.3	6.430	-0.050	0.600	0.020
2020/01/31 20:13:02.4	6.400	-0.080	0.620	0.060
2020/01/31 20:13:02.5	6.360	-0.110	0.630	0.090
2020/01/31 20:13:02.6	6.320	-0.130	0.640	0.130
2020/01/31 20:13:02.7	6.290	-0.160	0.640	0.160
2020/01/31 20:13:02.8	6.250	-0.180	0.640	0.190
2020/01/31 20:13:02.9	6.210	-0.210	0.630	0.210
2020/01/31 20:13:03.0	6.170	-0.230	0.620	0.230
2020/01/31 20:13:03.1	6.140	-0.250	0.600	0.250
2020/01/31 20:13:03.2	6.100	-0.270	0.580	0.270
2020/01/31 20:13:03.3	6.070	-0.290	0.550	0.280
2020/01/31 20:13:03.4	6.040	-0.300	0.520	0.300
2020/01/31 20:13:03.5	6.000	-0.310	0.490	0.310
2020/01/31 20:13:03.6	5.970	-0.320	0.450	0.310
2020/01/31 20:13:03.7	5.950	-0.330	0.410	0.320
2020/01/31 20:13:03.8	5.920	-0.330	0.360	0.320
2020/01/31 20:13:03.9	5.880	-0.320	0.320	0.320
2020/01/31 20:13:04.0	5.860	-0.320	0.260	0.320
2020/01/31 20:13:04.1	5.830	-0.300	0.210	0.320
2020/01/31 20:13:04.2	5.810	-0.290	0.150	0.320
2020/01/31 20:13:04.3	5.800	-0.270	0.090	0.310
2020/01/31 20:13:04.4	5.780	-0.240	0.020	0.310
2020/01/31 20:13:04.5	5.760	-0.220	-0.040	0.300
2020/01/31 20:13:04.6	5.750	-0.180	-0.110	0.300
2020/01/31 20:13:04.7	5.740	-0.150	-0.170	0.290
2020/01/31 20:13:04.8	5.730	-0.100	-0.240	0.280
2020/01/31 20:13:04.9	5.730	-0.060	-0.310	0.270
2020/01/31 20:13:05.0	5.730	-0.010	-0.380	0.250
2020/01/31 20:13:05.1	5.730	0.040	-0.450	0.240
2020/01/31 20:13:05.2	5.730	0.090	-0.520	0.230
2020/01/31 20:13:05.3	5.740	0.150	-0.580	0.220
2020/01/31 20:13:05.4	5.740	0.210	-0.650	0.200
2020/01/31 20:13:05.5	5.750	0.270	-0.710	0.190
2020/01/31 20:13:05.6	5.770	0.330	-0.770	0.170
2020/01/31 20:13:05.7	5.780	0.390	-0.830	0.160
2020/01/31 20:13:05.8	5.790	0.450	-0.890	0.140
2020/01/31 20:13:05.9	5.810	0.510	-0.940	0.120
2020/01/31 20:13:06.0	5.830	0.570	-0.980	0.110
2020/01/31 20:13:06.1	5.850	0.620	-1.030	0.090
2020/01/31 20:13:06.2	5.870	0.670	-1.070	0.070
2020/01/31 20:13:06.3	5.890	0.720	-1.110	0.050
2020/01/31 20:13:06.4	5.920	0.770	-1.140	0.030
2020/01/31 20:13:06.5	5.940	0.810	-1.160	0.010
2020/01/31 20:13:06.6	5.970	0.850	-1.180	-0.010
2020/01/31 20:13:06.7	5.990	0.880	-1.200	-0.030
2020/01/31 20:13:06.8	6.020	0.900	-1.210	-0.040
2020/01/31 20:13:06.9	6.050	0.920	-1.220	-0.060
2020/01/31 20:13:07.0	6.070	0.930	-1.210	-0.080
2020/01/31 20:13:07.1	6.090	0.930	-1.210	-0.090
2020/01/31 20:13:07.2	6.110	0.930	-1.190	-0.110
2020/01/31 20:13:07.3	6.130	0.920	-1.170	-0.130
2020/01/31 20:13:07.4	6.150	0.910	-1.140	-0.140
2020/01/31 20:13:07.5	6.160	0.880	-1.110	-0.160
2020/01/31 20:13:07.6	6.170	0.850	-1.070	-0.170
2020/01/31 20:13:07.7	6.180	0.810	-1.030	-0.190
2020/01/31 20:13:07.8	6.190	0.770	-0.980	-0.200
2020/01/31 20:13:07.9	6.210	0.720	-0.920	-0.220
2020/01/31 20:13:08.0	6.210	0.660	-0.860	-0.240
2020/01/31 20:13:08.1	6.210	0.590	-0.790	-0.250
2020/01/31 20:13:08.2	6.210	0.530	-0.730	-0.270
2020/01/31 20:13:08.3	6.210	0.450	-0.660	-0.290
2020/01/31 20:13:08.4	6.210	0.370	-0.590	-0.310
2020/01/31 20:13:08.5	6.210	0.290	-0.510	-0.330
2020/01/31 20:13:08.6	6.200	0.210	-0.440	-0.350
2020/01/31 20:13:08.7	6.200	0.120	-0.360	-0.380
2020/01/31 20:13:08.8	6.190	0.030	-0.290	-0.400
2020/01/31 20:13:08.9	6.190	-0.060	-0.220	-0.430
2020/01/31 20:13:09.0	6.180	-0.150	-0.150	-0.460
2020/01/31 20:13:09.1	6.180	-0.240	-0.080	-0.490
2020/01/31 20:13:09.2	6.180	-0.330	-0.010	-0.530
2020/01/31 20:13:09.3	6.170	-0.420	0.050	-0.560
2020/01/31 20:13:09.4	6.170	-0.510	0.110	-0.600
2020/01/31 20:13:09.5	6.170	-0.590	0.170	-0.630
2020/01/31 20:13:09.6	6.170	-0.670	0.220	-0.670
2020/01/31 20:13:09.7	6.170	-0.750	0.270	-0.710
2020/01/31 20:13:09.8	6.170	-0.820	0.310	-0.740
2020/01/31 20:13:09.9	6.170	-0.880	0.350	-0.780
2020/01/31 20:13:10.0	6.170	-0.940	0.380	-0.820
2020/01/31 20:13:10.1	6.170	-1.000	0.410	-0.850
2020/01/31 20:13:10.2	6.170	-1.040	0.430	-0.880
2020/01/31 20:13:10.3	6.180	-1.080	0.450	-0.900
2020/01/31 20:13:10.4	6.180	-1.110	0.460	-0.920
2020/01/31 20:13:10.5	6.180	-1.140	0.460	-0.940
2020/01/31 20:13:10.6	6.180	-1.160	0.460	-0.950
2020/01/31 20:13:10.7	6.180	-1.160	0.460	-0.960
2020/01/31 20:13:10.8	6.180	-1.170	0.440	-0.970
2020/01/31 20:13:10.9	6.190	-1.160	0.430	-0.970
2020/01/31 20:13:11.0	6.190	-1.150	0.400	-0.970
2020/01/31 20:13:11.1	6.200	-1.130	0.380	-0.960
2020/01/31 20:13:11.2	6.200	-1.100	0.350	-0.950
2020/01/31 20:13:11.3	6.200	-1.060	0.310	-0.940
2020/01/31 20:13:11.4	6.200	-1.020	0.270	-0.930
2020/01/31 20:13:11.5	6.210	-0.970	0.230	-0.910
2020/01/31 20:13:11.6	6.210	-0.920	0.180	-0.880
2020/01/31 20:13:11.7	6.220	-0.860	0.130	-0.860
2020/01/31 20:13:11.8	6.220	-0.800	0.080	-0.830
2020/01/31 20:13:11.9	6.230	-0.730	0.030	-0.800
2020/01/31 20:13:12.0	6.230	-0.650	-0.020	-0.770
2020/01/31 20:13:12.1	6.240	-0.580	-0.070	-0.730
2020/01/31 20:13:12.2	6.240	-0.500	-0.130	-0.690
2020/01/31 20:13:12.3	6.240	-0.420	-0.180	-0.650
2020/01/31 20:13:12.4	6.230	-0.340	-0.230	-0.610
2020/01/31 20:13:12.5	6.230	-0.250	-0.270	-0.570
2020/01/31 20:13:12.6	6.230	-0.170	-0.320	-0.520
2020/01/31 20:13:12.7	6.220	-0.080	-0.360	-0.480
2020/01/31 20:13:12.8	6.220	-0.000	-0.400	-0.430
2020/01/31 20:13:12.9	6.210	0.080	-0.430	-0.380
2020/01/31 20:13:13.0	6.200	0.160	-0.460	-0.330
2020/01/31 20:13:13.1	6.190	0.230	-0.480	-0.270
2020/01/31 20:13:13.2	6.180	0.310	-0.500	-0.220
2020/01/31 20:13:13.3	6.160	0.370	-0.520	-0.160
2020/01/31 20:13:13.4	6.140	0.440	-0.530	-0.100
2020/01/31 20:13:13.5	6.120	0.500	-0.530	-0.040
2020/01/31 20:13:13.6	6.090	0.550	-0.530	0.020
2020/01/31 20:13:13.7	6.070	0.600	-0.530	0.090
2020/01/31 20:13:13.8	6.040	0.640	-0.520	0.150
2020/01/31 20:13:13.9	6.020	0.670	-0.510	0.220
2020/01/31 20:13:14.0	5.990	0.700	-0.490	0.280
2020/01/31 20:13:14.1	5.950	0.720	-0.470	0.340
2020/01/31 20:13:14.2	5.920	0.740	-0.440	0.400
2020/01/31 20:13:14.3	5.890	0.750	-0.420	0.450
2020/01/31 20:13:14.4	5.850	0.750	-0.390	0.510
2020/01/31 20:13:14.5	5.820	0.750	-0.350	0.560
2020/01/31 20:13:14.6	5.780	0.740	-0.320	0.600
2020/01/31 20:13:14.7	5.750	0.730	-0.290	0.650
2020/01/31 20:13:14.8	5.710	0.710	-0.250	0.680
2020/01/31 20:13:14.9	5.680	0.680	-0.220	0.710
2020/01/31 20:13:15.0	5.650	0.650	-0.180	0.740
2020/01/31 20:13:15.1	5.620	0.620	-0.150	0.760
2020/01/31 20:13:15.2	5.600	0.580	-0.120	0.780
2020/01/31 20:13:15.3	5.580	0.550	-0.100	0.790
2020/01/31 20:13:15.4	5.550	0.500	-0.070	0.790
2020/01/31 20:13:15.5	5.540	0.460	-0.050	0.780
2020/01/31 20:13:15.6	5.520	0.420	-0.030	0.770
2020/01/31 20:13:15.7	5.510	0.370	-0.020	0.760
2020/01/31 20:13:15.8	5.500	0.330	-0.000	0.730
2020/01/31 20:13:15.9	5.490	0.280	0.010	0.700
2020/01/31 20:13:16.0	5.490	0.240	0.010	0.670
2020/01/31 20:13:16.1	5.490	0.190	0.010	0.630
2020/01/31 20:13:16.2	5.490	0.150	0.010	0.590
2020/01/31 20:13:16.3	5.500	0.110	0.010	0.540
2020/01/31 20:13:16.4	5.500	0.070	-0.000	0.490
2020/01/31 20:13:16.5	5.520	0.040	-0.020	0.440
2020/01/31 20:13:16.6	5.530	0.010	-0.030	0.380
2020/01/31 20:13:16.7	5.550	-0.020	-0.050	0.330
2020/01/31 20:13:16.8	5.570	-0.050	-0.070	0.260
2020/01/31 20:13:16.9	5.580	-0.070	-0.100	0.200
2020/01/31 20:13:17.0	5.610	-0.090	-0.120	0.130
2020/01/31 20:13:17.1	5.630	-0.110	-0.150	0.070
2020/01/31 20:13:17.2	5.650	-0.120	-0.180	0.000
2020/01/31 20:13:17.3	5.670	-0.130	-0.200	-0.060
2020/01/31 20:13:17.4	5.700	-0.140	-0.230	-0.130
2020/01/31 20:13:17.5	5.720	-0.150	-0.260	-0.200
2020/01/31 20:13:17.6	5.740	-0.150	-0.290	-0.260
2020/01/31 20:13:17.7	5.760	-0.160	-0.320	-0.320
2020/01/31 20:13:17.8	5.780	-0.160	-0.340	-0.390
2020/01/31 20:13:17.9	5.810	-0.150	-0.370	-0.450
2020/01/31 20:13:18.0	5.830	-0.150	-0.390	-0.510
2020/01/31 20:13:18.1	5.850	-0.150	-0.410	-0.560
2020/01/31 20:13:18.2	5.860	-0.140	-0.430	-0.620
2020/01/31 20:13:18.3	5.870	-0.140	-0.450	-0.670
2020/01/31 20:13:18.4	5.880	-0.130	-0.470	-0.710
2020/01/31 20:13:18.5	5.890	-0.120	-0.480	-0.760
2020/01/31 20:13:18.6	5.900	-0.110	-0.490	-0.790
2020/01/31 20:13:18.7	5.910	-0.110	-0.490	-0.830
2020/01/31 20:13:18.8	5.910	-0.100	-0.500	-0.860
2020/01/31 20:13:18.9	5.890	-0.090	-0.500	-0.880
2020/01/31 20:13:19.0	5.890	-0.080	-0.500	-0.900
2020/01/31 20:13:19.1	5.890	-0.080	-0.500	-0.910
2020/01/31 20:13:19.2	5.890	-0.070	-0.490	-0.920
2020/01/31 20:13:19.3	5.880	-0.060	-0.480	-0.920
2020/01/31 20:13:19.4	5.880	-0.060	-0.470	-0.910
2020/01/31 20:13:19.5	5.870	-0.050	-0.460	-0.900
2020/01/31 20:13:19.6	5.860	-0.050	-0.450	-0.880
2020/01/31 20:13:19.7	5.850	-0.040	-0.440	-0.870
2020/01/31 20:13:19.8	5.840	-0.030	-0.420	-0.840
2020/01/31 20:13:19.9	5.830	-0.030	-0.410	-0.810
2020/01/31 20:13:20.0	5.820	-0.020	-0.390	-0.780
2020/01/31 20:13:20.1	5.810	-0.020	-0.380	-0.750
2020/01/31 20:13:20.2	5.790	-0.010	-0.360	-0.710
2020/01/31 20:13:20.3	5.780	-0.000	-0.340	-0.670
2020/01/31 20:13:20.4	5.770	0.000	-0.330	-0.630
2020/01/31 20:13:20.5	5.760	0.010	-0.310	-0.590
2020/01/31 20:13:20.6	5.750	0.020	-0.300	-0.550
2020/01/31 20:13:20.7	5.740	0.030	-0.280	-0.510
2020/01/31 20:13:20.8	5.730	0.040	-0.270	-0.460
2020/01/31 20:13:20.9	5.720	0.050	-0.260	-0.420
2020/01/31 20:13:21.0	5.720	0.070	-0.250	-0.380
2020/01/31 20:13:21.1	5.710	0.080	-0.240	-0.330
2020/01/31 20:13:21.2	5.710	0.090	-0.230	-0.290
2020/01/31 20:13:21.3	5.700	0.110	-0.230	-0.250
2020/01/31 20:13:21.4	5.700	0.120	-0.220	-0.210
2020/01/31 20:13:21.5	5.700	0.140	-0.220	-0.180
2020/01/31 20:13:21.6	5.700	0.160	-0.220	-0.140
2020/01/31 20:13:21.7	5.700	0.170	-0.220	-0.110
2020/01/31 20:13:21.8	5.710	0.190	-0.220	-0.070
2020/01/31 20:13:21.9	5.710	0.210	-0.220	-0.040
2020/01/31 20:13:22.0	5.720	0.230	-0.230	-0.010
2020/01/31 20:13:22.1	5.720	0.240	-0.230	0.020
2020/01/31 20:13:22.2	5.730	0.260	-0.240	0.050
2020/01/31 20:13:22.3	5.740	0.280	-0.240	0.080
2020/01/31 20:13:22.4	5.750	0.290	-0.250	0.110
2020/01/31 20:13:22.5	5.760	0.300	-0.250	0.130
2020/01/31 20:13:22.6	5.770	0.310	-0.260	0.150
2020/01/31 20:13:22.7	5.780	0.320	-0.260	0.180
2020/01/31 20:13:22.8	5.790	0.330	-0.270	0.200
2020/01/31 20:13:22.9	5.800	0.330	-0.280	0.220
2020/01/31 20:13:23.0	5.800	0.330	-0.280	0.240
2020/01/31 20:13:23.1	5.810	0.330	-0.280	0.260
2020/01/31 20:13:23.2	5.820	0.330	-0.280	0.270
2020/01/31 20:13:23.3	5.830	0.320	-0.290	0.290
2020/01/31 20:13:23.4	5.830	0.310	-0.290	0.300
2020/01/31 20:13:23.5	5.840	0.300	-0.280	0.310
2020/01/31 20:13:23.6	5.840	0.280	-0.280	0.310
2020/01/31 20:13:23.7	5.850	0.260	-0.280	0.310
2020/01/31 20:13:23.8	5.850	0.230	-0.280	0.310
2020/01/31 20:13:23.9	5.850	0.210	-0.270	0.310
2020/01/31 20:13:24.0	5.850	0.170	-0.260	0.300
2020/01/31 20:13:24.1	5.850	0.140	-0.250	0.290
2020/01/31 20:13:24.2	5.850	0.100	-0.250	0.280
2020/01/31 20:13:24.3	5.850	0.070	-0.240	0.260
2020/01/31 20:13:24.4	5.850	0.020	-0.230	0.250
2020/01/31 20:13:24.5	5.850	-0.020	-0.220	0.230
2020/01/31 20:13:24.6	5.850	-0.060	-0.200	0.200
2020/01/31 20:13:24.7	5.850	-0.110	-0.190	0.180
2020/01/31 20:13:24.8	5.850	-0.160	-0.180	0.150
2020/01/31 20:13:24.9	5.850	-0.210	-0.170	0.120
2020/01/31 20:13:25.0	5.850	-0.260	-0.150	0.090
2020/01/31 20:13:25.1	5.850	-0.300	-0.140	0.050
2020/01/31 20:13:25.2	5.850	-0.350	-0.130	0.020
2020/01/31 20:13:25.3	5.850	-0.400	-0.110	-0.020
2020/01/31 20:13:25.4	5.840	-0.450	-0.100	-0.060
2020/01/31 20:13:25.5	5.840	-0.500	-0.090	-0.090
2020/01/31 20:13:25.6	5.840	-0.540	-0.080	-0.130
2020/01/31 20:13:25.7	5.840	-0.580	-0.060	-0.170
2020/01/31 20:13:25.8	5.840	-0.620	-0.050	-0.210
2020/01/31 20:13:25.9	5.840	-0.660	-0.040	-0.250
2020/01/31 20:13:26.0	5.840	-0.690	-0.030	-0.290
2020/01/31 20:13:26.1	5.830	-0.720	-0.030	-0.330
2020/01/31 20:13:26.2	5.830	-0.750	-0.020	-0.360
2020/01/31 20:13:26.3	5.820	-0.770	-0.020	-0.390
2020/01/31 20:13:26.4	5.820	-0.790	-0.010	-0.430
2020/01/31 20:13:26.5	5.810	-0.800	-0.010	-0.460
2020/01/31 20:13:26.6	5.800	-0.810	-0.010	-0.480
2020/01/31 20:13:26.7	5.780	-0.810	-0.010	-0.510
2020/01/31 20:13:26.8	5.770	-0.810	-0.020	-0.530
2020/01/31 20:13:26.9	5.770	-0.800	-0.020	-0.550
2020/01/31 20:13:27.0	5.750	-0.790	-0.030	-0.560
2020/01/31 20:13:27.1	5.740	-0.770	-0.040	-0.570
2020/01/31 20:13:27.2	5.720	-0.750	-0.040	-0.580
2020/01/31 20:13:27.3	5.700	-0.720	-0.060	-0.590
2020/01/31 20:13:27.4	5.680	-0.690	-0.070	-0.590
2020/01/31 20:13:27.5	5.660	-0.650	-0.080	-0.590
2020/01/31 20:13:27.6	5.640	-0.610	-0.100	-0.590
2020/01/31 20:13:27.7	5.620	-0.560	-0.110	-0.580
2020/01/31 20:13:27.8	5.600	-0.510	-0.130	-0.570
2020/01/31 20:13:27.9	5.580	-0.450	-0.150	-0.560
2020/01/31 20:13:28.0	5.560	-0.390	-0.170	-0.550
2020/01/31 20:13:28.1	5.540	-0.330	-0.190	-0.530
2020/01/31 20:13:28.2	5.520	-0.270	-0.210	-0.510
2020/01/31 20:13:28.3	5.500	-0.200	-0.230	-0.480
2020/01/31 20:13:28.4	5.480	-0.130	-0.250	-0.460
2020/01/31 20:13:28.5	5.460	-0.060	-0.270	-0.430
2020/01/31 20:13:28.6	5.450	0.010	-0.290	-0.400
2020/01/31 20:13:28.7	5.430	0.080	-0.310	-0.370
2020/01/31 20:13:28.8	5.420	0.150	-0.340	-0.340
2020/01/31 20:13:28.9	5.420	0.220	-0.360	-0.300
2020/01/31 20:13:29.0	5.410	0.290	-0.380	-0.270
2020/01/31 20:13:29.1	5.400	0.360	-0.400	-0.240
2020/01/31 20:13:29.2	5.400	0.430	-0.420	-0.210
2020/01/31 20:13:29.3	5.390	0.490	-0.440	-0.170
2020/01/31 20:13:29.4	5.390	0.550	-0.460	-0.140
2020/01/31 20:13:29.5	5.390	0.610	-0.470	-0.100
2020/01/31 20:13:29.6	5.390	0.660	-0.490	-0.070
2020/01/31 20:13:29.7	5.390	0.710	-0.500	-0.030
2020/01/31 20:13:29.8	5.390	0.760	-0.510	0.000
2020/01/31 20:13:29.9	5.390	0.800	-0.520	0.040
2020/01/31 20:13:30.0	5.390	0.830	-0.530	0.070
2020/01/31 20:13:30.1	5.390	0.860	-0.530	0.110
2020/01/31 20:13:30.2	5.390	0.890	-0.540	0.140
2020/01/31 20:13:30.3	5.390	0.910	-0.540	0.180
2020/01/31 20:13:30.4	5.390	0.930	-0.530	0.210
2020/01/31 20:13:30.5	5.390	0.940	-0.530	0.240
2020/01/31 20:13:30.6	5.390	0.940	-0.520	0.280
2020/01/31 20:13:30.7	5.390	0.940	-0.510	0.310
2020/01/31 20:13:30.8	5.390	0.940	-0.500	0.340
2020/01/31 20:13:30.9	5.380	0.930	-0.480	0.370
2020/01/31 20:13:31.0	5.380	0.910	-0.470	0.400
2020/01/31 20:13:31.1	5.380	0.890	-0.450	0.430
2020/01/31 20:13:31.2	5.380	0.870	-0.430	0.460
2020/01/31 20:13:31.3	5.370	0.840	-0.400	0.480
2020/01/31 20:13:31.4	5.370	0.810	-0.380	0.510
2020/01/31 20:13:31.5	5.360	0.780	-0.350	0.530
2020/01/31 20:13:31.6	5.360	0.740	-0.320	0.550
2020/01/31 20:13:31.7	5.350	0.700	-0.290	0.570
2020/01/31 20:13:31.8	5.340	0.660	-0.260	0.580
2020/01/31 20:13:31.9	5.320	0.620	-0.230	0.590
2020/01/31 20:13:32.0	5.310	0.570	-0.200	0.600
2020/01/31 20:13:32.1	5.300	0.530	-0.170	0.610
2020/01/31 20:13:32.2	5.290	0.480	-0.140	0.610
2020/01/31 20:13:32.3	5.280	0.430	-0.110	0.610
2020/01/31 20:13:32.4	5.270	0.380	-0.090	0.610
2020/01/31 20:13:32.5	5.260	0.330	-0.060	0.600
2020/01/31 20:13:32.6	5.260	0.290	-0.040	0.590
2020/01/31 20:13:32.7	5.250	0.240	-0.020	0.570
2020/01/31 20:13:32.8	5.240	0.190	-0.000	0.550
2020/01/31 20:13:32.9	5.230	0.150	0.010	0.530
2020/01/31 20:13:33.0	5.220	0.100	0.020	0.510
2020/01/31 20:13:33.1	5.220	0.060	0.030	0.480
2020/01/31 20:13:33.2	5.220	0.020	0.040	0.450
2020/01/31 20:13:33.3	5.210	-0.020	0.040	0.420
2020/01/31 20:13:33.4	5.220	-0.060	0.040	0.390
2020/01/31 20:13:33.5	5.220	-0.100	0.040	0.350
2020/01/31 20:13:33.6	5.220	-0.130	0.030	0.310
2020/01/31 20:13:33.7	5.230	-0.160	0.020	0.270
2020/01/31 20:13:33.8	5.240	-0.190	0.000	0.230
2020/01/31 20:13:33.9	5.240	-0.220	-0.020	0.190
2020/01/31 20:13:34.0	5.250	-0.250	-0.040	0.140
2020/01/31 20:13:34.1	5.270	-0.270	-0.060	0.100
2020/01/31 20:13:34.2	5.280	-0.290	-0.080	0.050
2020/01/31 20:13:34.3	5.300	-0.320	-0.110	-0.000
2020/01/31 20:13:34.4	5.310	-0.340	-0.140	-0.050
2020/01/31 20:13:34.5	5.330	-0.360	-0.170	-0.100
2020/01/31 20:13:34.6	5.350	-0.370	-0.200	-0.160
2020/01/31 20:13:34.7	5.370	-0.390	-0.230	-0.210
2020/01/31 20:13:34.8	5.390	-0.410	-0.260	-0.270
2020/01/31 20:13:34.9	5.420	-0.420	-0.300	-0.330
2020/01/31 20:13:35.0	5.440	-0.440	-0.330	-0.380
2020/01/31 20:13:35.1	5.460	-0.450	-0.360	-0.440
2020/01/31 20:13:35.2	5.490	-0.460	-0.390	-0.500
2020/01/31 20:13:35.3	5.510	-0.470	-0.420	-0.560
2020/01/31 20:13:35.4	5.540	-0.480	-0.440	-0.610
2020/01/31 20:13:35.5	5.560	-0.490	-0.470	-0.670
2020/01/31 20:13:35.6	5.590	-0.500	-0.490	-0.730
2020/01/31 20:13:35.7	5.610	-0.500	-0.520	-0.780
2020/01/31 20:13:35.8	5.640	-0.510	-0.540	-0.830
2020/01/31 20:13:35.9	5.670	-0.520	-0.560	-0.880
2020/01/31 20:13:36.0	5.690	-0.520	-0.580	-0.930
2020/01/31 20:13:36.1	5.720	-0.520	-0.590	-0.980
2020/01/31 20:13:36.2	5.740	-0.520	-0.610	-1.020
2020/01/31 20:13:36.3	5.770	-0.520	-0.620	-1.060
2020/01/31 20:13:36.4	5.790	-0.520	-0.630	-1.100
2020/01/31 20:13:36.5	5.810	-0.520	-0.640	-1.130
2020/01/31 20:13:36.6	5.840	-0.510	-0.650	-1.160
2020/01/31 20:13:36.7	5.860	-0.510	-0.660	-1.190
2020/01/31 20:13:36.8	5.880	-0.500	-0.660	-1.210
2020/01/31 20:13:36.9	5.910	-0.490	-0.660	-1.230
2020/01/31 20:13:37.0	5.930	-0.480	-0.660	-1.240
2020/01/31 20:13:37.1	5.950	-0.470	-0.650	-1.260
2020/01/31 20:13:37.2	5.970	-0.460	-0.640	-1.270
2020/01/31 20:13:37.3	5.980	-0.450	-0.620	-1.270
2020/01/31 20:13:37.4	5.990	-0.440	-0.610	-1.270
2020/01/31 20:13:37.5	6.000	-0.420	-0.580	-1.260
2020/01/31 20:13:37.6	6.010	-0.410	-0.550	-1.250
2020/01/31 20:13:37.7	6.010	-0.400	-0.520	-1.240
2020/01/31 20:13:37.8	6.010	-0.380	-0.490	-1.210
2020/01/31 20:13:37.9	6.010	-0.370	-0.440	-1.180
2020/01/31 20:13:38.0	6.000	-0.350	-0.390	-1.150
2020/01/31 20:13:38.1	5.980	-0.340	-0.340	-1.100
2020/01/31 20:13:38.2	5.960	-0.320	-0.290	-1.060
2020/01/31 20:13:38.3	5.930	-0.310	-0.230	-1.000
2020/01/31 20:13:38.4	5.900	-0.300	-0.170	-0.940
2020/01/31 20:13:38.5	5.860	-0.280	-0.110	-0.880
2020/01/31 20:13:38.6	5.820	-0.270	-0.040	-0.810
2020/01/31 20:13:38.7	5.770	-0.260	0.030	-0.730
2020/01/31 20:13:38.8	5.720	-0.250	0.100	-0.660
2020/01/31 20:13:38.9	5.670	-0.240	0.170	-0.570
2020/01/31 20:13:39.0	5.610	-0.220	0.240	-0.480
2020/01/31 20:13:39.1	5.540	-0.210	0.310	-0.390
2020/01/31 20:13:39.2	5.480	-0.200	0.380	-0.300
2020/01/31 20:13:39.3	5.410	-0.190	0.450	-0.210
2020/01/31 20:13:39.4	5.340	-0.180	0.520	-0.120
2020/01/31 20:13:39.5	5.270	-0.170	0.580	-0.030
2020/01/31 20:13:39.6	5.200	-0.150	0.640	0.060
2020/01/31 20:13:39.7	5.130	-0.140	0.690	0.160
2020/01/31 20:13:39.8	5.060	-0.130	0.740	0.250
2020/01/31 20:13:39.9	4.990	-0.110	0.780	0.330
2020/01/31 20:13:40.0	4.920	-0.090	0.810	0.410
2020/01/31 20:13:40.1	4.860	-0.070	0.840	0.500
2020/01/31 20:13:40.2	4.790	-0.050	0.860	0.570
2020/01/31 20:13:40.3	4.730	-0.020	0.860	0.650
2020/01/31 20:13:40.4	4.670	0.000	0.860	0.720
2020/01/31 20:13:40.5	4.620	0.030	0.850	0.780
2020/01/31 20:13:40.6	4.570	0.070	0.830	0.840
2020/01/31 20:13:40.7	4.530	0.100	0.790	0.890
2020/01/31 20:13:40.8	4.490	0.140	0.750	0.930
2020/01/31 20:13:40.9	4.440	0.180	0.700	0.970
2020/01/31 20:13:41.0	4.410	0.220	0.630	1.000
2020/01/31 20:13:41.1	4.390	0.270	0.560	1.020
2020/01/31 20:13:41.2	4.370	0.310	0.480	1.040
2020/01/31 20:13:41.3	4.360	0.360	0.390	1.040
2020/01/31 20:13:41.4	4.350	0.410	0.290	1.040
2020/01/31 20:13:41.5	4.350	0.470	0.180	1.040
2020/01/31 20:13:41.6	4.350	0.520	0.070	1.030
2020/01/31 20:13:41.7	4.360	0.570	-0.050	1.010
2020/01/31 20:13:41.8	4.370	0.620	-0.170	0.990
2020/01/31 20:13:41.9	4.390	0.670	-0.290	0.960
2020/01/31 20:13:42.0	4.410	0.720	-0.420	0.920
2020/01/31 20:13:42.1	4.440	0.770	-0.540	0.880
2020/01/31 20:13:42.2	4.470	0.820	-0.670	0.840
2020/01/31 20:13:42.3	4.500	0.860	-0.790	0.790
2020/01/31 20:13:42.4	4.540	0.900	-0.910	0.740
2020/01/31 20:13:42.5	4.580	0.930	-1.020	0.680
2020/01/31 20:13:42.6	4.610	0.960	-1.130	0.630
2020/01/31 20:13:42.7	4.650	0.990	-1.230	0.570
2020/01/31 20:13:42.8	4.690	1.000	-1.330	0.500
2020/01/31 20:13:42.9	4.730	1.020	-1.410	0.440
2020/01/31 20:13:43.0	4.770	1.020	-1.490	0.370
2020/01/31 20:13:43.1	4.800	1.020	-1.560	0.310
2020/01/31 20:13:43.2	4.830	1.010	-1.620	0.240
2020/01/31 20:13:43.3	4.870	1.000	-1.660	0.180
2020/01/31 20:13:43.4	4.900	0.980	-1.700	0.110
2020/01/31 20:13:43.5	4.930	0.950	-1.720	0.040
2020/01/31 20:13:43.6	4.960	0.910	-1.740	-0.030
2020/01/31 20:13:43.7	4.990	0.870	-1.740	-0.090
2020/01/31 20:13:43.8	5.010	0.820	-1.740	-0.160
2020/01/31 20:13:43.9	5.050	0.760	-1.720	-0.230
2020/01/31 20:13:44.0	5.070	0.700	-1.700	-0.290
2020/01/31 20:13:44.1	5.090	0.640	-1.660	-0.360
2020/01/31 20:13:44.2	5.110	0.570	-1.620	-0.430
2020/01/31 20:13:44.3	5.130	0.490	-1.560	-0.490
2020/01/31 20:13:44.4	5.150	0.410	-1.500	-0.550
2020/01/31 20:13:44.5	5.170	0.330	-1.440	-0.610
2020/01/31 20:13:44.6	5.180	0.250	-1.360	-0.670
2020/01/31 20:13:44.7	5.200	0.160	-1.280	-0.720
2020/01/31 20:13:44.8	5.220	0.070	-1.190	-0.770
2020/01/31 20:13:44.9	5.240	-0.010	-1.100	-0.830
2020/01/31 20:13:45.0	5.250	-0.100	-1.010	-0.880
2020/01/31 20:13:45.1	5.260	-0.190	-0.910	-0.920
2020/01/31 20:13:45.2	5.280	-0.270	-0.810	-0.960
2020/01/31 20:13:45.3	5.290	-0.360	-0.710	-0.990
2020/01/31 20:13:45.4	5.300	-0.440	-0.610	-1.030
2020/01/31 20:13:45.5	5.310	-0.520	-0.510	-1.060
2020/01/31 20:13:45.6	5.320	-0.590	-0.410	-1.090
2020/01/31 20:13:45.7	5.320	-0.660	-0.310	-1.110
2020/01/31 20:13:45.8	5.330	-0.730	-0.210	-1.130
2020/01/31 20:13:45.9	5.340	-0.790	-0.110	-1.150
2020/01/31 20:13:46.0	5.350	-0.840	-0.010	-1.160
2020/01/31 20:13:46.1	5.350	-0.890	0.080	-1.170
2020/01/31 20:13:46.2	5.350	-0.930	0.180	-1.170
2020/01/31 20:13:46.3	5.350	-0.970	0.260	-1.170
2020/01/31 20:13:46.4	5.340	-1.000	0.350	-1.170
2020/01/31 20:13:46.5	5.330	-1.020	0.430	-1.150
2020/01/31 20:13:46.6	5.330	-1.040	0.510	-1.140
2020/01/31 20:13:46.7	5.310	-1.050	0.580	-1.120
2020/01/31 20:13:46.8	5.300	-1.060	0.650	-1.090
2020/01/31 20:13:46.9	5.270	-1.060	0.710	-1.060
2020/01/31 20:13:47.0	5.250	-1.060	0.770	-1.020
2020/01/31 20:13:47.1	5.220	-1.050	0.830	-0.980
2020/01/31 20:13:47.2	5.200	-1.040	0.880	-0.940
2020/01/31 20:13:47.3	5.160	-1.020	0.930	-0.890
2020/01/31 20:13:47.4	5.130	-1.000	0.970	-0.840
2020/01/31 20:13:47.5	5.090	-0.980	1.010	-0.780
2020/01/31 20:13:47.6	5.050	-0.950	1.040	-0.720
2020/01/31 20:13:47.7	5.000	-0.920	1.060	-0.650
2020/01/31 20:13:47.8	4.950	-0.880	1.080	-0.580
2020/01/31 20:13:47.9	4.890	-0.840	1.100	-0.520
2020/01/31 20:13:48.0	4.840	-0.800	1.110	-0.440
2020/01/31 20:13:48.1	4.790	-0.760	1.110	-0.370
2020/01/31 20:13:48.2	4.730	-0.720	1.110	-0.290
2020/01/31 20:13:48.3	4.670	-0.670	1.090	-0.210
2020/01/31 20:13:48.4	4.620	-0.630	1.080	-0.130
2020/01/31 20:13:48.5	4.560	-0.580	1.050	-0.060
2020/01/31 20:13:48.6	4.510	-0.530	1.020	0.020
2020/01/31 20:13:48.7	4.450	-0.480	0.990	0.100
2020/01/31 20:13:48.8	4.400	-0.420	0.940	0.180
2020/01/31 20:13:48.9	4.350	-0.370	0.890	0.250
2020/01/31 20:13:49.0	4.300	-0.320	0.830	0.330
2020/01/31 20:13:49.1	4.250	-0.260	0.770	0.390
2020/01/31 20:13:49.2	4.210	-0.200	0.700	0.460
2020/01/31 20:13:49.3	4.180	-0.150	0.620	0.520
2020/01/31 20:13:49.4	4.140	-0.090	0.540	0.570
2020/01/31 20:13:49.5	4.120	-0.030	0.450	0.630
2020/01/31 20:13:49.6	4.090	0.030	0.350	0.670
2020/01/31 20:13:49.7	4.080	0.100	0.250	0.710
2020/01/31 20:13:49.8	4.060	0.160	0.150	0.750
2020/01/31 20:13:49.9	4.050	0.220	0.040	0.780
2020/01/31 20:13:50.0	4.050	0.290	-0.070	0.810
2020/01/31 20:13:50.1	4.050	0.350	-0.180	0.830
2020/01/31 20:13:50.2	4.050	0.410	-0.290	0.840
2020/01/31 20:13:50.3	4.060	0.470	-0.390	0.860
2020/01/31 20:13:50.4	4.070	0.530	-0.500	0.870
2020/01/31 20:13:50.5	4.080	0.590	-0.600	0.870
2020/01/31 20:13:50.6	4.090	0.640	-0.700	0.880
2020/01/31 20:13:50.7	4.110	0.690	-0.790	0.880
2020/01/31 20:13:50.8	4.120	0.740	-0.880	0.880
2020/01/31 20:13:50.9	4.130	0.780	-0.970	0.880
2020/01/31 20:13:51.0	4.140	0.820	-1.040	0.880
2020/01/31 20:13:51.1	4.150	0.850	-1.100	0.870
2020/01/31 20:13:51.2	4.160	0.880	-1.160	0.850
2020/01/31 20:13:51.3	4.170	0.900	-1.210	0.840
2020/01/31 20:13:51.4	4.180	0.920	-1.250	0.820
2020/01/31 20:13:51.5	4.190	0.930	-1.280	0.800
2020/01/31 20:13:51.6	4.200	0.930	-1.300	0.770
2020/01/31 20:13:51.7	4.210	0.930	-1.320	0.740
2020/01/31 20:13:51.8	4.220	0.920	-1.320	0.710
2020/01/31 20:13:51.9	4.240	0.900	-1.320	0.670
2020/01/31 20:13:52.0	4.250	0.880	-1.310	0.630
2020/01/31 20:13:52.1	4.250	0.850	-1.290	0.580
2020/01/31 20:13:52.2	4.260	0.810	-1.270	0.530
2020/01/31 20:13:52.3	4.270	0.780	-1.240	0.480
2020/01/31 20:13:52.4	4.280	0.730	-1.210	0.420
2020/01/31 20:13:52.5	4.290	0.680	-1.170	0.360
2020/01/31 20:13:52.6	4.300	0.630	-1.120	0.300
2020/01/31 20:13:52.7	4.320	0.570	-1.070	0.240
2020/01/31 20:13:52.8	4.330	0.510	-1.020	0.170
2020/01/31 20:13:52.9	4.350	0.450	-0.970	0.100
2020/01/31 20:13:53.0	4.360	0.390	-0.910	0.040
2020/01/31 20:13:53.1	4.380	0.320	-0.850	-0.030
2020/01/31 20:13:53.2	4.390	0.260	-0.800	-0.100
2020/01/31 20:13:53.3	4.410	0.190	-0.730	-0.160
2020/01/31 20:13:53.4	4.430	0.120	-0.670	-0.230
2020/01/31 20:13:53.5	4.440	0.060	-0.610	-0.290
2020/01/31 20:13:53.6	4.460	-0.000	-0.550	-0.350
2020/01/31 20:13:53.7	4.470	-0.070	-0.490	-0.400
2020/01/31 20:13:53.8	4.480	-0.130	-0.430	-0.460
2020/01/31 20:13:53.9	4.510	-0.180	-0.370	-0.510
2020/01/31 20:13:54.0	4.520	-0.240	-0.310	-0.560
2020/01/31 20:13:54.1	4.530	-0.290	-0.260	-0.600
2020/01/31 20:13:54.2	4.530	-0.340	-0.200	-0.640
2020/01/31 20:13:54.3	4.540	-0.380	-0.150	-0.670
2020/01/31 20:13:54.4	4.540	-0.420	-0.100	-0.700
2020/01/31 20:13:54.5	4.550	-0.460	-0.060	-0.730
2020/01/31 20:13:54.6	4.550	-0.490	-0.020	-0.750
2020/01/31 20:13:54.7	4.550	-0.520	0.020	-0.770
2020/01/31 20:13:54.8	4.550	-0.540	0.060	-0.780
2020/01/31 20:13:54.9	4.530	-0.550	0.090	-0.790
2020/01/31 20:13:55.0	4.530	-0.570	0.120	-0.800
2020/01/31 20:13:55.1	4.520	-0.570	0.140	-0.800
2020/01/31 20:13:55.2	4.520	-0.580	0.160	-0.800
2020/01/31 20:13:55.3	4.520	-0.570	0.180	-0.800
2020/01/31 20:13:55.4	4.520	-0.570	0.190	-0.790
2020/01/31 20:13:55.5	4.520	-0.550	0.190	-0.790
2020/01/31 20:13:55.6	4.520	-0.540	0.200	-0.780
2020/01/31 20:13:55.7	4.520	-0.520	0.200	-0.770
2020/01/31 20:13:55.8	4.520	-0.490	0.190	-0.760
2020/01/31 20:13:55.9	4.520	-0.470	0.180	-0.750
2020/01/31 20:13:56.0	4.520	-0.440	0.170	-0.730
2020/01/31 20:13:56.1	4.530	-0.400	0.150	-0.720
2020/01/31 20:13:56.2	4.540	-0.370	0.130	-0.710
2020/01/31 20:13:56.3	4.550	-0.330	0.100	-0.690
2020/01/31 20:13:56.4	4.560	-0.290	0.080	-0.670
2020/01/31 20:13:56.5	4.570	-0.240	0.050	-0.650
2020/01/31 20:13:56.6	4.580	-0.200	0.020	-0.630
2020/01/31 20:13:56.7	4.590	-0.160	-0.010	-0.600
2020/01/31 20:13:56.8	4.600	-0.120	-0.040	-0.580
2020/01/31 20:13:56.9	4.610	-0.070	-0.070	-0.550
2020/01/31 20:13:57.0	4.620	-0.030	-0.110	-0.520
2020/01/31 20:13:57.1	4.620	0.010	-0.140	-0.490
2020/01/31 20:13:57.2	4.630	0.040	-0.170	-0.460
2020/01/31 20:13:57.3	4.630	0.080	-0.190	-0.430
2020/01/31 20:13:57.4	4.640	0.110	-0.220	-0.390
2020/01/31 20:13:57.5	4.640	0.140	-0.240	-0.360
2020/01/31 20:13:57.6	4.640	0.170	-0.260	-0.320
2020/01/31 20:13:57.7	4.640	0.190	-0.280	-0.290
2020/01/31 20:13:57.8	4.630	0.210	-0.300	-0.250
2020/01/31 20:13:57.9	4.620	0.230	-0.310	-0.210
2020/01/31 20:13:58.0	4.610	0.240	-0.320	-0.170
2020/01/31 20:13:58.1	4.600	0.250	-0.330	-0.140
2020/01/31 20:13:58.2	4.590	0.250	-0.330	-0.100
2020/01/31 20:13:58.3	4.570	0.260	-0.340	-0.060
2020/01/31 20:13:58.4	4.560	0.250	-0.330	-0.030
2020/01/31 20:13:58.5	4.540	0.250	-0.330	0.010
2020/01/31 20:13:58.6	4.530	0.240	-0.320	0.040
2020/01/31 20:13:58.7	4.510	0.230	-0.310	0.070
2020/01/31 20:13:58.8	4.490	0.220	-0.300	0.100
2020/01/31 20:13:58.9	4.470	0.200	-0.290	0.130
2020/01/31 20:13:59.0	4.450	0.180	-0.280	0.160
2020/01/31 20:13:59.1	4.430	0.160	-0.260	0.180
2020/01/31 20:13:59.2	4.420	0.140	-0.240	0.210
2020/01/31 20:13:59.3	4.400	0.120	-0.230	0.230
2020/01/31 20:13:59.4	4.390	0.100	-0.210	0.250
2020/01/31 20:13:59.5	4.380	0.070	-0.190	0.260
2020/01/31 20:13:59.6	4.370	0.050	-0.180	0.270
2020/01/31 20:13:59.7	4.360	0.030	-0.160	0.280
2020/01/31 20:13:59.8	4.350	0.010	-0.150	0.280
2020/01/31 20:13:59.9	4.360	-0.010	-0.130	0.280
2020/01/31 20:14:00.0	4.360	-0.020	-0.130	0.280
2020/01/31 20:14:00.1	4.360	-0.040	-0.120	0.280
2020/01/31 20:14:00.2	4.370	-0.050	-0.110	0.270
2020/01/31 20:14:00.3	4.370	-0.060	-0.110	0.250
2020/01/31 20:14:00.4	4.380	-0.070	-0.110	0.240
2020/01/31 20:14:00.5	4.390	-0.070	-0.110	0.220
2020/01/31 20:14:00.6	4.410	-0.080	-0.120	0.200
2020/01/31 20:14:00.7	4.420	-0.080	-0.130	0.170
2020/01/31 20:14:00.8	4.440	-0.080	-0.130	0.150
2020/01/31 20:14:00.9	4.450	-0.070	-0.150	0.120
2020/01/31 20:14:01.0	4.470	-0.060	-0.160	0.090
2020/01/31 20:14:01.1	4.490	-0.050	-0.170	0.060
2020/01/31 20:14:01.2	4.510	-0.040	-0.190	0.030
2020/01/31 20:14:01.3	4.530	-0.030	-0.200	0.000
2020/01/31 20:14:01.4	4.550	-0.020	-0.220	-0.030
2020/01/31 20:14:01.5	4.570	0.000	-0.240	-0.060
2020/01/31 20:14:01.6	4.580	0.020	-0.260	-0.090
2020/01/31 20:14:01.7	4.600	0.040	-0.270	-0.120
2020/01/31 20:14:01.8	4.620	0.060	-0.290	-0.150
2020/01/31 20:14:01.9	4.620	0.080	-0.300	-0.170
2020/01/31 20:14:02.0	4.630	0.100	-0.320	-0.200
2020/01/31 20:14:02.1	4.650	0.110	-0.330	-0.220
2020/01/31 20:14:02.2	4.660	0.130	-0.350	-0.250
2020/01/31 20:14:02.3	4.670	0.150	-0.360	-0.270
2020/01/31 20:14:02.4	4.690	0.170	-0.370	-0.290
2020/01/31 20:14:02.5	4.700	0.190	-0.370	-0.300
2020/01/31 20:14:02.6	4.710	0.200	-0.380	-0.310
2020/01/31 20:14:02.7	4.710	0.210	-0.380	-0.330
2020/01/31 20:14:02.8	4.720	0.220	-0.380	-0.330
2020/01/31 20:14:02.9	4.720	0.230	-0.380	-0.340
2020/01/31 20:14:03.0	4.720	0.240	-0.370	-0.340
2020/01/31 20:14:03.1	4.720	0.240	-0.370	-0.340
2020/01/31 20:14:03.2	4.720	0.250	-0.350	-0.330
2020/01/31 20:14:03.3	4.720	0.240	-0.340	-0.320
2020/01/31 20:14:03.4	4.720	0.240	-0.320	-0.310
2020/01/31 20:14:03.5	4.710	0.230	-0.310	-0.300
2020/01/31 20:14:03.6	4.700	0.230	-0.290	-0.290
2020/01/31 20:14:03.7	4.690	0.210	-0.260	-0.270
2020/01/31 20:14:03.8	4.680	0.200	-0.240	-0.260
2020/01/31 20:14:03.9	4.680	0.180	-0.210	-0.240
2020/01/31 20:14:04.0	4.670	0.160	-0.190	-0.220
2020/01/31 20:14:04.1	4.650	0.140	-0.160	-0.210
2020/01/31 20:14:04.2	4.640	0.120	-0.130	-0.190
2020/01/31 20:14:04.3	4.630	0.090	-0.110	-0.180
2020/01/31 20:14:04.4	4.620	0.060	-0.080	-0.160
2020/01/31 20:14:04.5	4.600	0.040	-0.060	-0.150
2020/01/31 20:14:04.6	4.590	0.010	-0.040	-0.140
2020/01/31 20:14:04.7	4.580	-0.020	-0.020	-0.140
2020/01/31 20:14:04.8	4.570	-0.050	-0.000	-0.130
2020/01/31 20:14:04.9	4.560	-0.090	0.010	-0.130
2020/01/31 20:14:05.0	4.560	-0.120	0.030	-0.130
2020/01/31 20:14:05.1	4.550	-0.150	0.030	-0.130
2020/01/31 20:14:05.2	4.550	-0.180	0.040	-0.130
2020/01/31 20:14:05.3	4.540	-0.200	0.040	-0.140
2020/01/31 20:14:05.4	4.540	-0.230	0.040	-0.140
2020/01/31 20:14:05.5	4.550	-0.260	0.040	-0.150
2020/01/31 20:14:05.6	4.550	-0.280	0.030	-0.170
2020/01/31 20:14:05.7	4.550	-0.300	0.030	-0.180
2020/01/31 20:14:05.8	4.560	-0.320	0.010	-0.190
2020/01/31 20:14:05.9	4.570	-0.340	-0.010	-0.210
2020/01/31 20:14:06.0	4.580	-0.350	-0.020	-0.230
2020/01/31 20:14:06.1	4.590	-0.360	-0.050	-0.250
2020/01/31 20:14:06.2	4.600	-0.370	-0.070	-0.270
2020/01/31 20:14:06.3	4.620	-0.370	-0.100	-0.280
2020/01/31 20:14:06.4	4.630	-0.370	-0.130	-0.300
2020/01/31 20:14:06.5	4.650	-0.370	-0.160	-0.320
2020/01/31 20:14:06.6	4.660	-0.360	-0.190	-0.340
2020/01/31 20:14:06.7	4.680	-0.350	-0.220	-0.360
2020/01/31 20:14:06.8	4.690	-0.340	-0.260	-0.380
2020/01/31 20:14:06.9	4.710	-0.320	-0.290	-0.400
2020/01/31 20:14:07.0	4.730	-0.300	-0.330	-0.410
2020/01/31 20:14:07.1	4.740	-0.280	-0.370	-0.430
2020/01/31 20:14:07.2	4.760	-0.260	-0.410	-0.440
2020/01/31 20:14:07.3	4.770	-0.230	-0.450	-0.460
2020/01/31 20:14:07.4	4.790	-0.200	-0.490	-0.470
2020/01/31 20:14:07.5	4.810	-0.170	-0.520	-0.480
2020/01/31 20:14:07.6	4.820	-0.130	-0.560	-0.490
2020/01/31 20:14:07.7	4.840	-0.100	-0.590	-0.500
2020/01/31 20:14:07.8	4.850	-0.060	-0.630	-0.500
2020/01/31 20:14:07.9	4.880	-0.030	-0.660	-0.500
2020/01/31 20:14:08.0	4.900	0.010	-0.690	-0.500
2020/01/31 20:14:08.1	4.910	0.040	-0.710	-0.500
2020/01/31 20:14:08.2	4.930	0.080	-0.740	-0.500
2020/01/31 20:14:08.3	4.940	0.110	-0.760	-0.500
2020/01/31 20:14:08.4	4.960	0.150	-0.780	-0.490
2020/01/31 20:14:08.5	4.980	0.180	-0.790	-0.480
2020/01/31 20:14:08.6	5.000	0.210	-0.800	-0.470
2020/01/31 20:14:08.7	5.010	0.240	-0.800	-0.460
2020/01/31 20:14:08.8	5.030	0.270	-0.810	-0.450
2020/01/31 20:14:08.9	5.060	0.300	-0.800	-0.440
2020/01/31 20:14:09.0	5.080	0.320	-0.800	-0.420
2020/01/31 20:14:09.1	5.100	0.350	-0.780	-0.400
2020/01/31 20:14:09.2	5.120	0.360	-0.770	-0.390
2020/01/31 20:14:09.3	5.140	0.380	-0.750	-0.360
2020/01/31 20:14:09.4	5.160	0.400	-0.730	-0.340
2020/01/31 20:14:09.5	5.190	0.410	-0.700	-0.320
2020/01/31 20:14:09.6	5.210	0.410	-0.670	-0.290
2020/01/31 20:14:09.7	5.230	0.420	-0.630	-0.260
2020/01/31 20:14:09.8	5.240	0.420	-0.590	-0.240
2020/01/31 20:14:09.9	5.270	0.420	-0.550	-0.200
2020/01/31 20:14:10.0	5.280	0.420	-0.500	-0.170
2020/01/31 20:14:10.1	5.300	0.410	-0.450	-0.140
2020/01/31 20:14:10.2	5.310	0.400	-0.390	-0.100
2020/01/31 20:14:10.3	5.320	0.390	-0.340	-0.070
2020/01/31 20:14:10.4	5.330	0.370	-0.280	-0.030
2020/01/31 20:14:10.5	5.340	0.350	-0.220	0.000
2020/01/31 20:14:10.6	5.350	0.330	-0.160	0.040
2020/01/31 20:14:10.7	5.350	0.310	-0.100	0.070
2020/01/31 20:14:10.8	5.350	0.280	-0.040	0.110
2020/01/31 20:14:10.9	5.360	0.250	0.020	0.140
2020/01/31 20:14:11.0	5.360	0.220	0.070	0.170
2020/01/31 20:14:11.1	5.360	0.190	0.130	0.190
2020/01/31 20:14:11.2	5.350	0.150	0.170	0.220
2020/01/31 20:14:11.3	5.350	0.120	0.220	0.240
2020/01/31 20:14:11.4	5.340	0.080	0.260	0.250
2020/01/31 20:14:11.5	5.330	0.040	0.300	0.260
2020/01/31 20:14:11.6	5.320	0.010	0.330	0.270
2020/01/31 20:14:11.7	5.310	-0.030	0.360	0.270
2020/01/31 20:14:11.8	5.300	-0.070	0.390	0.270
2020/01/31 20:14:11.9	5.280	-0.110	0.400	0.260
2020/01/31 20:14:12.0	5.270	-0.150	0.420	0.250
2020/01/31 20:14:12.1	5.250	-0.180	0.420	0.240
2020/01/31 20:14:12.2	5.240	-0.220	0.420	0.220
2020/01/31 20:14:12.3	5.220	-0.250	0.420	0.200
2020/01/31 20:14:12.4	5.210	-0.280	0.410	0.170
2020/01/31 20:14:12.5	5.190	-0.310	0.400	0.140
2020/01/31 20:14:12.6	5.170	-0.340	0.380	0.110
2020/01/31 20:14:12.7	5.160	-0.360	0.360	0.080
2020/01/31 20:14:12.8	5.140	-0.380	0.330	0.050
2020/01/31 20:14:12.9	5.120	-0.400	0.300	0.010
2020/01/31 20:14:13.0	5.100	-0.420	0.270	-0.030
2020/01/31 20:14:13.1	5.080	-0.430	0.230	-0.060
2020/01/31 20:14:13.2	5.070	-0.430	0.190	-0.100
2020/01/31 20:14:13.3	5.050	-0.440	0.150	-0.130
2020/01/31 20:14:13.4	5.040	-0.440	0.110	-0.170
2020/01/31 20:14:13.5	5.020	-0.440	0.070	-0.200
2020/01/31 20:14:13.6	5.010	-0.430	0.020	-0.230
2020/01/31 20:14:13.7	4.990	-0.420	-0.020	-0.260
2020/01/31 20:14:13.8	4.980	-0.410	-0.070	-0.290
2020/01/31 20:14:13.9	4.970	-0.390	-0.110	-0.320
2020/01/31 20:14:14.0	4.950	-0.370	-0.150	-0.350
2020/01/31 20:14:14.1	4.950	-0.340	-0.200	-0.380
2020/01/31 20:14:14.2	4.940	-0.320	-0.240	-0.400
2020/01/31 20:14:14.3	4.930	-0.290	-0.280	-0.430
2020/01/31 20:14:14.4	4.930	-0.260	-0.320	-0.450
2020/01/31 20:14:14.5	4.930	-0.220	-0.360	-0.470
2020/01/31 20:14:14.6	4.920	-0.190	-0.400	-0.490
2020/01/31 20:14:14.7	4.930	-0.150	-0.440	-0.510
2020/01/31 20:14:14.8	4.930	-0.110	-0.480	-0.530
2020/01/31 20:14:14.9	4.940	-0.080	-0.510	-0.550
2020/01/31 20:14:15.0	4.950	-0.040	-0.550	-0.570
2020/01/31 20:14:15.1	4.960	-0.000	-0.580	-0.590
2020/01/31 20:14:15.2	4.970	0.040	-0.610	-0.610
2020/01/31 20:14:15.3	4.980	0.070	-0.640	-0.630
2020/01/31 20:14:15.4	5.000	0.110	-0.670	-0.650
2020/01/31 20:14:15.5	5.020	0.140	-0.700	-0.670
2020/01/31 20:14:15.6	5.030	0.170	-0.730	-0.690
2020/01/31 20:14:15.7	5.060	0.200	-0.750	-0.710
2020/01/31 20:14:15.8	5.080	0.230	-0.780	-0.730
2020/01/31 20:14:15.9	5.110	0.250	-0.800	-0.750
2020/01/31 20:14:16.0	5.130	0.280	-0.820	-0.770
2020/01/31 20:14:16.1	5.160	0.300	-0.830	-0.790
2020/01/31 20:14:16.2	5.190	0.310	-0.840	-0.810
2020/01/31 20:14:16.3	5.220	0.330	-0.850	-0.820
2020/01/31 20:14:16.4	5.250	0.340	-0.860	-0.840
2020/01/31 20:14:16.5	5.270	0.340	-0.860	-0.850
2020/01/31 20:14:16.6	5.300	0.350	-0.850	-0.850
2020/01/31 20:14:16.7	5.330	0.350	-0.850	-0.860
2020/01/31 20:14:16.8	5.360	0.350	-0.840	-0.860
2020/01/31 20:14:16.9	5.390	0.340	-0.820	-0.860
2020/01/31 20:14:17.0	5.420	0.330	-0.800	-0.860
2020/01/31 20:14:17.1	5.440	0.320	-0.770	-0.850
2020/01/31 20:14:17.2	5.470	0.310	-0.740	-0.840
2020/01/31 20:14:17.3	5.490	0.290	-0.710	-0.830
2020/01/31 20:14:17.4	5.520	0.270	-0.670	-0.810
2020/01/31 20:14:17.5	5.540	0.250	-0.630	-0.790
2020/01/31 20:14:17.6	5.560	0.230	-0.580	-0.770
2020/01/31 20:14:17.7	5.580	0.210	-0.530	-0.750
2020/01/31 20:14:17.8	5.600	0.180	-0.480	-0.720
2020/01/31 20:14:17.9	5.630	0.150	-0.430	-0.680
2020/01/31 20:14:18.0	5.640	0.130	-0.370	-0.650
2020/01/31 20:14:18.1	5.660	0.100	-0.310	-0.610
2020/01/31 20:14:18.2	5.670	0.070	-0.250	-0.570
2020/01/31 20:14:18.3	5.680	0.050	-0.180	-0.530
2020/01/31 20:14:18.4	5.690	0.020	-0.120	-0.490
2020/01/31 20:14:18.5	5.700	-0.000	-0.050	-0.450
2020/01/31 20:14:18.6	5.700	-0.030	0.010	-0.400
2020/01/31 20:14:18.7	5.700	-0.050	0.070	-0.350
2020/01/31 20:14:18.8	5.700	-0.070	0.130	-0.300
2020/01/31 20:14:18.9	5.700	-0.090	0.190	-0.250
2020/01/31 20:14:19.0	5.700	-0.110	0.250	-0.200
2020/01/31 20:14:19.1	5.690	-0.130	0.300	-0.140
2020/01/31 20:14:19.2	5.680	-0.140	0.340	-0.090
2020/01/31 20:14:19.3	5.670	-0.150	0.380	-0.030
2020/01/31 20:14:19.4	5.660	-0.160	0.420	0.020
2020/01/31 20:14:19.5	5.650	-0.170	0.450	0.080
2020/01/31 20:14:19.6	5.630	-0.180	0.470	0.130
2020/01/31 20:14:19.7	5.620	-0.180	0.490	0.190
2020/01/31 20:14:19.8	5.600	-0.190	0.500	0.240
2020/01/31 20:14:19.9	5.570	-0.190	0.510	0.290
2020/01/31 20:14:20.0	5.550	-0.190	0.510	0.340
2020/01/31 20:14:20.1	5.530	-0.180	0.500	0.380
2020/01/31 20:14:20.2	5.510	-0.180	0.480	0.430
2020/01/31 20:14:20.3	5.490	-0.170	0.460	0.460
2020/01/31 20:14:20.4	5.470	-0.170	0.440	0.500
2020/01/31 20:14:20.5	5.440	-0.160	0.410	0.530
2020/01/31 20:14:20.6	5.420	-0.150	0.370	0.550
2020/01/31 20:14:20.7	5.400	-0.140	0.330	0.570
2020/01/31 20:14:20.8	5.380	-0.130	0.280	0.580
2020/01/31 20:14:20.9	5.360	-0.120	0.240	0.590
2020/01/31 20:14:21.0	5.340	-0.100	0.180	0.590
2020/01/31 20:14:21.1	5.310	-0.090	0.130	0.590
2020/01/31 20:14:21.2	5.290	-0.080	0.070	0.580
2020/01/31 20:14:21.3	5.270	-0.070	0.010	0.560
2020/01/31 20:14:21.4	5.250	-0.050	-0.050	0.550
2020/01/31 20:14:21.5	5.240	-0.040	-0.110	0.530
2020/01/31 20:14:21.6	5.220	-0.030	-0.170	0.500
2020/01/31 20:14:21.7	5.200	-0.020	-0.230	0.480
2020/01/31 20:14:21.8	5.190	-0.000	-0.280	0.450
2020/01/31 20:14:21.9	5.170	0.010	-0.340	0.410
2020/01/31 20:14:22.0	5.160	0.020	-0.400	0.380
2020/01/31 20:14:22.1	5.150	0.030	-0.450	0.340
2020/01/31 20:14:22.2	5.140	0.040	-0.490	0.300
2020/01/31 20:14:22.3	5.140	0.050	-0.540	0.260
2020/01/31 20:14:22.4	5.130	0.060	-0.580	0.220
2020/01/31 20:14:22.5	5.130	0.070	-0.620	0.180
2020/01/31 20:14:22.6	5.130	0.070	-0.650	0.130
2020/01/31 20:14:22.7	5.140	0.080	-0.680	0.090
2020/01/31 20:14:22.8	5.140	0.090	-0.700	0.040
2020/01/31 20:14:22.9	5.150	0.090	-0.720	-0.010
2020/01/31 20:14:23.0	5.160	0.100	-0.740	-0.050
2020/01/31 20:14:23.1	5.170	0.100	-0.750	-0.100
2020/01/31 20:14:23.2	5.190	0.100	-0.760	-0.140
2020/01/31 20:14:23.3	5.200	0.110	-0.760	-0.190
2020/01/31 20:14:23.4	5.220	0.110	-0.760	-0.230
2020/01/31 20:14:23.5	5.240	0.110	-0.760	-0.270
2020/01/31 20:14:23.6	5.260	0.110	-0.760	-0.320
2020/01/31 20:14:23.7	5.290	0.110	-0.750	-0.360
2020/01/31 20:14:23.8	5.310	0.100	-0.740	-0.400
2020/01/31 20:14:23.9	5.350	0.100	-0.720	-0.440
2020/01/31 20:14:24.0	5.370	0.090	-0.710	-0.470
2020/01/31 20:14:24.1	5.400	0.090	-0.690	-0.510
2020/01/31 20:14:24.2	5.430	0.080	-0.670	-0.550
2020/01/31 20:14:24.3	5.460	0.070	-0.640	-0.580
2020/01/31 20:14:24.4	5.480	0.060	-0.620	-0.610
2020/01/31 20:14:24.5	5.510	0.040	-0.600	-0.640
2020/01/31 20:14:24.6	5.540	0.030	-0.570	-0.670
2020/01/31 20:14:24.7	5.570	0.020	-0.540	-0.700
2020/01/31 20:14:24.8	5.590	-0.000	-0.520	-0.730
2020/01/31 20:14:24.9	5.610	-0.020	-0.490	-0.750
2020/01/31 20:14:25.0	5.640	-0.040	-0.460	-0.780
2020/01/31 20:14:25.1	5.660	-0.060	-0.440	-0.800
2020/01/31 20:14:25.2	5.680	-0.080	-0.410	-0.810
2020/01/31 20:14:25.3	5.700	-0.100	-0.390	-0.830
2020/01/31 20:14:25.4	5.720	-0.120	-0.370	-0.840
2020/01/31 20:14:25.5	5.740	-0.140	-0.350	-0.850
2020/01/31 20:14:25.6	5.760	-0.160	-0.330	-0.860
2020/01/31 20:14:25.7	5.780	-0.180	-0.310	-0.860
2020/01/31 20:14:25.8	5.800	-0.200	-0.290	-0.860
2020/01/31 20:14:25.9	5.810	-0.210	-0.280	-0.860
2020/01/31 20:14:26.0	5.830	-0.230	-0.270	-0.860
2020/01/31 20:14:26.1	5.840	-0.240	-0.260	-0.850
2020/01/31 20:14:26.2	5.860	-0.260	-0.260	-0.840
2020/01/31 20:14:26.3	5.880	-0.270	-0.250	-0.830
2020/01/31 20:14:26.4	5.890	-0.280	-0.250	-0.810
2020/01/31 20:14:26.5	5.910	-0.290	-0.250	-0.800
2020/01/31 20:14:26.6	5.920	-0.290	-0.250	-0.780
2020/01/31 20:14:26.7	5.940	-0.300	-0.250	-0.760
2020/01/31 20:14:26.8	5.950	-0.300	-0.250	-0.740
2020/01/31 20:14:26.9	5.970	-0.300	-0.250	-0.720
2020/01/31 20:14:27.0	5.990	-0.300	-0.260	-0.700
2020/01/31 20:14:27.1	6.000	-0.300	-0.260	-0.680
2020/01/31 20:14:27.2	6.010	-0.290	-0.260	-0.650
2020/01/31 20:14:27.3	6.020	-0.280	-0.270	-0.630
2020/01/31 20:14:27.4	6.030	-0.270	-0.270	-0.600
2020/01/31 20:14:27.5	6.040	-0.260	-0.270	-0.580
2020/01/31 20:14:27.6	6.050	-0.250	-0.280	-0.550
2020/01/31 20:14:27.7	6.050	-0.230	-0.280	-0.520
2020/01/31 20:14:27.8	6.060	-0.220	-0.280	-0.490
2020/01/31 20:14:27.9	6.050	-0.200	-0.270	-0.470
2020/01/31 20:14:28.0	6.050	-0.180	-0.270	-0.430
2020/01/31 20:14:28.1	6.040	-0.160	-0.260	-0.400
2020/01/31 20:14:28.2	6.040	-0.130	-0.250	-0.360
2020/01/31 20:14:28.3	6.020	-0.110	-0.230	-0.320
2020/01/31 20:14:28.4	6.010	-0.090	-0.220	-0.290
2020/01/31 20:14:28.5	5.990	-0.060	-0.200	-0.240
2020/01/31 20:14:28.6	5.970	-0.040	-0.180	-0.200
2020/01/31 20:14:28.7	5.940	-0.020	-0.150	-0.160
2020/01/31 20:14:28.8	5.920	0.010	-0.130	-0.110
2020/01/31 20:14:28.9	5.900	0.030	-0.090	-0.060
2020/01/31 20:14:29.0	5.870	0.060	-0.060	-0.010
2020/01/31 20:14:29.1	5.840	0.080	-0.030	0.040
2020/01/31 20:14:29.2	5.810	0.100	0.010	0.090
2020/01/31 20:14:29.3	5.780	0.120	0.040	0.130
2020/01/31 20:14:29.4	5.750	0.140	0.080	0.180
2020/01/31 20:14:29.5	5.710	0.160	0.120	0.230
2020/01/31 20:14:29.6	5.680	0.180	0.150	0.280
2020/01/31 20:14:29.7	5.650	0.200	0.190	0.330
2020/01/31 20:14:29.8	5.610	0.210	0.230	0.380
2020/01/31 20:14:29.9	5.570	0.230	0.260	0.420
2020/01/31 20:14:30.0	5.540	0.240	0.290	0.470
2020/01/31 20:14:30.1	5.510	0.250	0.320	0.510
2020/01/31 20:14:30.2	5.480	0.260	0.350	0.550
2020/01/31 20:14:30.3	5.450	0.270	0.370	0.590
2020/01/31 20:14:30.4	5.420	0.270	0.390	0.620
2020/01/31 20:14:30.5	5.390	0.280	0.400	0.650
2020/01/31 20:14:30.6	5.370	0.280	0.410	0.680
2020/01/31 20:14:30.7	5.340	0.280	0.420	0.700
2020/01/31 20:14:30.8	5.320	0.280	0.420	0.720
2020/01/31 20:14:30.9	5.300	0.280	0.410	0.740
2020/01/31 20:14:31.0	5.270	0.280	0.400	0.750
2020/01/31 20:14:31.1	5.250	0.280	0.390	0.750
2020/01/31 20:14:31.2	5.230	0.280	0.370	0.760
2020/01/31 20:14:31.3	5.220	0.280	0.340	0.750
2020/01/31 20:14:31.4	5.200	0.280	0.310	0.750
2020/01/31 20:14:31.5	5.190	0.270	0.270	0.730
2020/01/31 20:14:31.6	5.170	0.270	0.230	0.720
2020/01/31 20:14:31.7	5.160	0.270	0.180	0.700
2020/01/31 20:14:31.8	5.160	0.270	0.130	0.680
2020/01/31 20:14:31.9	5.150	0.270	0.080	0.650
2020/01/31 20:14:32.0	5.140	0.260	0.020	0.620
2020/01/31 20:14:32.1	5.140	0.260	-0.040	0.590
2020/01/31 20:14:32.2	5.150	0.260	-0.100	0.550
2020/01/31 20:14:32.3	5.150	0.260	-0.170	0.510
2020/01/31 20:14:32.4	5.160	0.260	-0.240	0.470
2020/01/31 20:14:32.5	5.170	0.260	-0.300	0.420
2020/01/31 20:14:32.6	5.190	0.260	-0.370	0.380
2020/01/31 20:14:32.7	5.210	0.260	-0.440	0.330
2020/01/31 20:14:32.8	5.230	0.260	-0.510	0.270
2020/01/31 20:14:32.9	5.250	0.260	-0.580	0.220
2020/01/31 20:14:33.0	5.280	0.260	-0.650	0.170
2020/01/31 20:14:33.1	5.310	0.260	-0.710	0.110
2020/01/31 20:14:33.2	5.340	0.260	-0.770	0.060
2020/01/31 20:14:33.3	5.370	0.260	-0.830	0.000
2020/01/31 20:14:33.4	5.400	0.250	-0.890	-0.060
2020/01/31 20:14:33.5	5.430	0.250	-0.940	-0.110
2020/01/31 20:14:33.6	5.470	0.240	-0.980	-0.170
2020/01/31 20:14:33.7	5.500	0.230	-1.030	-0.220
2020/01/31 20:14:33.8	5.540	0.220	-1.060	-0.280
2020/01/31 20:14:33.9	5.580	0.210	-1.090	-0.340
2020/01/31 20:14:34.0	5.620	0.200	-1.110	-0.390
2020/01/31 20:14:34.1	5.650	0.180	-1.120	-0.440
2020/01/31 20:14:34.2	5.680	0.160	-1.130	-0.490
2020/01/31 20:14:34.3	5.710	0.140	-1.130	-0.540
2020/01/31 20:14:34.4	5.740	0.120	-1.130	-0.590
2020/01/31 20:14:34.5	5.770	0.090	-1.120	-0.630
2020/01/31 20:14:34.6	5.800	0.060	-1.100	-0.670
2020/01/31 20:14:34.7	5.820	0.030	-1.070	-0.700
2020/01/31 20:14:34.8	5.850	-0.000	-1.040	-0.740
2020/01/31 20:14:34.9	5.880	-0.030	-1.000	-0.770
2020/01/31 20:14:35.0	5.900	-0.070	-0.950	-0.790
2020/01/31 20:14:35.1	5.910	-0.110	-0.900	-0.810
2020/01/31 20:14:35.2	5.930	-0.140	-0.850	-0.830
2020/01/31 20:14:35.3	5.940	-0.180	-0.790	-0.840
2020/01/31 20:14:35.4	5.960	-0.220	-0.720	-0.850
2020/01/31 20:14:35.5	5.970	-0.260	-0.660	-0.860
2020/01/31 20:14:35.6	5.980	-0.300	-0.590	-0.860
2020/01/31 20:14:35.7	5.990	-0.340	-0.520	-0.860
2020/01/31 20:14:35.8	6.000	-0.380	-0.450	-0.850
2020/01/31 20:14:35.9	6.000	-0.420	-0.380	-0.850
2020/01/31 20:14:36.0	6.010	-0.450	-0.310	-0.840
2020/01/31 20:14:36.1	6.010	-0.490	-0.240	-0.830
2020/01/31 20:14:36.2	6.020	-0.520	-0.170	-0.820
2020/01/31 20:14:36.3	6.030	-0.550	-0.110	-0.810
2020/01/31 20:14:36.4	6.040	-0.570	-0.050	-0.790
2020/01/31 20:14:36.5	6.040	-0.600	0.010	-0.780
2020/01/31 20:14:36.6	6.050	-0.620	0.060	-0.770
2020/01/31 20:14:36.7	6.060	-0.630	0.110	-0.750
2020/01/31 20:14:36.8	6.060	-0.650	0.150	-0.730
2020/01/31 20:14:36.9	6.070	-0.660	0.180	-0.710
2020/01/31 20:14:37.0	6.070	-0.660	0.210	-0.690
2020/01/31 20:14:37.1	6.070	-0.660	0.240	-0.670
2020/01/31 20:14:37.2	6.070	-0.660	0.260	-0.650
2020/01/31 20:14:37.3	6.070	-0.650	0.270	-0.630
2020/01/31 20:14:37.4	6.070	-0.640	0.280	-0.600
2020/01/31 20:14:37.5	6.060	-0.630	0.280	-0.580
2020/01/31 20:14:37.6	6.050	-0.610	0.280	-0.550
2020/01/31 20:14:37.7	6.040	-0.590	0.280	-0.520
2020/01/31 20:14:37.8	6.020	-0.570	0.280	-0.490
2020/01/31 20:14:37.9	6.010	-0.540	0.270	-0.450
2020/01/31 20:14:38.0	5.990	-0.520	0.250	-0.420
2020/01/31 20:14:38.1	5.970	-0.490	0.240	-0.380
2020/01/31 20:14:38.2	5.940	-0.450	0.220	-0.350
2020/01/31 20:14:38.3	5.910	-0.420	0.210	-0.310
2020/01/31 20:14:38.4	5.880	-0.380	0.190	-0.270
2020/01/31 20:14:38.5	5.850	-0.350	0.170	-0.230
2020/01/31 20:14:38.6	5.820	-0.310	0.140	-0.200
2020/01/31 20:14:38.7	5.780	-0.270	0.120	-0.160
2020/01/31 20:14:38.8	5.750	-0.230	0.100	-0.120
2020/01/31 20:14:38.9	5.710	-0.190	0.080	-0.070
2020/01/31 20:14:39.0	5.670	-0.150	0.050	-0.030
2020/01/31 20:14:39.1	5.640	-0.110	0.020	0.010
2020/01/31 20:14:39.2	5.600	-0.080	-0.000	0.050
2020/01/31 20:14:39.3	5.570	-0.040	-0.030	0.080
2020/01/31 20:14:39.4	5.540	-0.000	-0.060	0.120
2020/01/31 20:14:39.5	5.510	0.040	-0.090	0.160
2020/01/31 20:14:39.6	5.480	0.070	-0.110	0.190
2020/01/31 20:14:39.7	5.450	0.110	-0.150	0.220
2020/01/31 20:14:39.8	5.430	0.140	-0.180	0.250
2020/01/31 20:14:39.9	5.400	0.180	-0.210	0.280
2020/01/31 20:14:40.0	5.380	0.210	-0.240	0.300
2020/01/31 20:14:40.1	5.370	0.240	-0.270	0.320
2020/01/31 20:14:40.2	5.360	0.280	-0.300	0.340
2020/01/31 20:14:40.3	5.350	0.310	-0.340	0.350
2020/01/31 20:14:40.4	5.350	0.340	-0.370	0.360
2020/01/31 20:14:40.5	5.350	0.370	-0.400	0.360
2020/01/31 20:14:40.6	5.350	0.400	-0.430	0.360
2020/01/31 20:14:40.7	5.360	0.430	-0.460	0.360
2020/01/31 20:14:40.8	5.370	0.450	-0.490	0.360
2020/01/31 20:14:40.9	5.380	0.480	-0.510	0.350
2020/01/31 20:14:41.0	5.400	0.500	-0.540	0.340
2020/01/31 20:14:41.1	5.410	0.530	-0.550	0.330
2020/01/31 20:14:41.2	5.430	0.550	-0.570	0.320
2020/01/31 20:14:41.3	5.450	0.570	-0.580	0.310
2020/01/31 20:14:41.4	5.470	0.590	-0.590	0.290
2020/01/31 20:14:41.5	5.490	0.610	-0.590	0.280
2020/01/31 20:14:41.6	5.510	0.620	-0.590	0.270
2020/01/31 20:14:41.7	5.530	0.640	-0.580	0.260
2020/01/31 20:14:41.8	5.540	0.650	-0.570	0.250
2020/01/31 20:14:41.9	5.560	0.660	-0.560	0.240
2020/01/31 20:14:42.0	5.570	0.660	-0.540	0.240
2020/01/31 20:14:42.1	5.590	0.660	-0.520	0.240
2020/01/31 20:14:42.2	5.600	0.660	-0.490	0.240
2020/01/31 20:14:42.3	5.610	0.660	-0.460	0.240
2020/01/31 20:14:42.4	5.610	0.650	-0.430	0.240
2020/01/31 20:14:42.5	5.620	0.650	-0.400	0.250
2020/01/31 20:14:42.6	5.620	0.630	-0.360	0.250
2020/01/31 20:14:42.7	5.620	0.620	-0.330	0.260
2020/01/31 20:14:42.8	5.620	0.600	-0.290	0.270
2020/01/31 20:14:42.9	5.630	0.570	-0.250	0.280
2020/01/31 20:14:43.0	5.630	0.550	-0.210	0.290
2020/01/31 20:14:43.1	5.630	0.520	-0.180	0.290
2020/01/31 20:14:43.2	5.630	0.490	-0.140	0.300
2020/01/31 20:14:43.3	5.620	0.450	-0.110	0.300
2020/01/31 20:14:43.4	5.620	0.420	-0.080	0.300
2020/01/31 20:14:43.5	5.610	0.380	-0.050	0.300
2020/01/31 20:14:43.6	5.610	0.330	-0.020	0.290
2020/01/31 20:14:43.7	5.600	0.290	0.010	0.280
2020/01/31 20:14:43.8	5.600	0.250	0.030	0.270
2020/01/31 20:14:43.9	5.580	0.200	0.050	0.250
2020/01/31 20:14:44.0	5.580	0.150	0.070	0.240
2020/01/31 20:14:44.1	5.570	0.100	0.090	0.220
2020/01/31 20:14:44.2	5.570	0.050	0.100	0.190
2020/01/31 20:14:44.3	5.560	0.000	0.110	0.170
2020/01/31 20:14:44.4	5.560	-0.050	0.120	0.140
2020/01/31 20:14:44.5	5.550	-0.090	0.120	0.110
2020/01/31 20:14:44.6	5.540	-0.140	0.130	0.080
2020/01/31 20:14:44.7	5.540	-0.190	0.130	0.050
2020/01/31 20:14:44.8	5.530	-0.230	0.120	0.020
2020/01/31 20:14:44.9	5.520	-0.280	0.120	-0.010
2020/01/31 20:14:45.0	5.510	-0.320	0.120	-0.040
2020/01/31 20:14:45.1	5.500	-0.360	0.110	-0.070
2020/01/31 20:14:45.2	5.500	-0.390	0.100	-0.100
2020/01/31 20:14:45.3	5.490	-0.420	0.090	-0.130
2020/01/31 20:14:45.4	5.480	-0.460	0.080	-0.160
2020/01/31 20:14:45.5	5.480	-0.480	0.060	-0.180
2020/01/31 20:14:45.6	5.470	-0.510	0.040	-0.210
2020/01/31 20:14:45.7	5.470	-0.530	0.020	-0.240
2020/01/31 20:14:45.8	5.470	-0.540	0.000	-0.270
2020/01/31 20:14:45.9	5.470	-0.560	-0.030	-0.300
2020/01/31 20:14:46.0	5.470	-0.570	-0.050	-0.320
2020/01/31 20:14:46.1	5.470	-0.570	-0.080	-0.350
2020/01/31 20:14:46.2	5.480	-0.580	-0.120	-0.380
2020/01/31 20:14:46.3	5.480	-0.580	-0.150	-0.400
2020/01/31 20:14:46.4	5.490	-0.570	-0.190	-0.430
2020/01/31 20:14:46.5	5.500	-0.560	-0.230	-0.460
2020/01/31 20:14:46.6	5.500	-0.550	-0.270	-0.490
2020/01/31 20:14:46.7	5.510	-0.540	-0.310	-0.510
2020/01/31 20:14:46.8	5.520	-0.520	-0.350	-0.540
2020/01/31 20:14:46.9	5.530	-0.500	-0.400	-0.560
2020/01/31 20:14:47.0	5.540	-0.470	-0.440	-0.590
2020/01/31 20:14:47.1	5.550	-0.450	-0.490	-0.610
2020/01/31 20:14:47.2	5.560	-0.420	-0.540	-0.630
2020/01/31 20:14:47.3	5.570	-0.390	-0.580	-0.650
2020/01/31 20:14:47.4	5.580	-0.350	-0.630	-0.670
2020/01/31 20:14:47.5	5.590	-0.320	-0.670	-0.690
2020/01/31 20:14:47.6	5.610	-0.280	-0.710	-0.700
2020/01/31 20:14:47.7	5.620	-0.240	-0.750	-0.720
2020/01/31 20:14:47.8	5.630	-0.200	-0.790	-0.730
2020/01/31 20:14:47.9	5.650	-0.160	-0.830	-0.740
2020/01/31 20:14:48.0	5.670	-0.120	-0.860	-0.740
2020/01/31 20:14:48.1	5.680	-0.080	-0.880	-0.750
2020/01/31 20:14:48.2	5.690	-0.040	-0.900	-0.750
2020/01/31 20:14:48.3	5.710	0.000	-0.920	-0.750
2020/01/31 20:14:48.4	5.720	0.040	-0.930	-0.750
2020/01/31 20:14:48.5	5.730	0.080	-0.940	-0.740
2020/01/31 20:14:48.6	5.750	0.120	-0.940	-0.740
2020/01/31 20:14:48.7	5.760	0.160	-0.940	-0.720
2020/01/31 20:14:48.8	5.770	0.190	-0.930	-0.710
2020/01/31 20:14:48.9	5.780	0.220	-0.920	-0.690
2020/01/31 20:14:49.0	5.790	0.250	-0.910	-0.670
2020/01/31 20:14:49.1	5.800	0.280	-0.880	-0.650
2020/01/31 20:14:49.2	5.810	0.300	-0.860	-0.620
2020/01/31 20:14:49.3	5.810	0.320	-0.820	-0.590
2020/01/31 20:14:49.4	5.820	0.330	-0.790	-0.560
2020/01/31 20:14:49.5	5.820	0.350	-0.750	-0.530
2020/01/31 20:14:49.6	5.820	0.360	-0.700	-0.500
2020/01/31 20:14:49.7	5.820	0.360	-0.650	-0.460
2020/01/31 20:14:49.8	5.830	0.360	-0.600	-0.430
2020/01/31 20:14:49.9	5.820	0.360	-0.550	-0.390
2020/01/31 20:14:50.0	5.820	0.350	-0.490	-0.360
2020/01/31 20:14:50.1	5.820	0.340	-0.440	-0.330
2020/01/31 20:14:50.2	5.820	0.330	-0.380	-0.300
2020/01/31 20:14:50.3	5.820	0.310	-0.320	-0.270
2020/01/31 20:14:50.4	5.820	0.290	-0.260	-0.240
2020/01/31 20:14:50.5	5.820	0.270	-0.210	-0.210
2020/01/31 20:14:50.6	5.830	0.240	-0.150	-0.180
2020/01/31 20:14:50.7	5.830	0.220	-0.090	-0.160
2020/01/31 20:14:50.8	5.830	0.190	-0.040	-0.140
2020/01/31 20:14:50.9	5.850	0.160	0.010	-0.120
2020/01/31 20:14:51.0	5.850	0.120	0.060	-0.100
2020/01/31 20:14:51.1	5.860	0.090	0.100	-0.080
2020/01/31 20:14:51.2	5.870	0.060	0.140	-0.070
2020/01/31 20:14:51.3	5.890	0.020	0.180	-0.060
2020/01/31 20:14:51.4	5.900	-0.010	0.220	-0.040
2020/01/31 20:14:51.5	5.910	-0.040	0.250	-0.040
2020/01/31 20:14:51.6	5.930	-0.080	0.280	-0.030
2020/01/31 20:14:51.7	5.950	-0.110	0.300	-0.020
2020/01/31 20:14:51.8	5.970	-0.140	0.320	-0.020
2020/01/31 20:14:51.9	5.990	-0.170	0.340	-0.020
2020/01/31 20:14:52.0	6.010	-0.200	0.350	-0.020
2020/01/31 20:14:52.1	6.030	-0.220	0.360	-0.020
2020/01/31 20:14:52.2	6.050	-0.240	0.360	-0.020
2020/01/31 20:14:52.3	6.070	-0.260	0.360	-0.020
2020/01/31 20:14:52.4	6.090	-0.280	0.360	-0.020
2020/01/31 20:14:52.5	6.110	-0.300	0.360	-0.030
2020/01/31 20:14:52.6	6.120	-0.310	0.350	-0.030
2020/01/31 20:14:52.7	6.140	-0.320	0.340	-0.030
2020/01/31 20:14:52.8	6.150	-0.330	0.330	-0.030
2020/01/31 20:14:52.9	6.170	-0.330	0.320	-0.030
2020/01/31 20:14:53.0	6.180	-0.340	0.300	-0.030
2020/01/31 20:14:53.1	6.180	-0.340	0.290	-0.030
2020/01/31 20:14:53.2	6.190	-0.330	0.270	-0.020
2020/01/31 20:14:53.3	6.190	-0.330	0.250	-0.020
2020/01/31 20:14:53.4	6.190	-0.320	0.230	-0.010
2020/01/31 20:14:53.5	6.190	-0.310	0.210	-0.010
2020/01/31 20:14:53.6	6.180	-0.300	0.190	-0.000
2020/01/31 20:14:53.7	6.170	-0.290	0.160	0.010
2020/01/31 20:14:53.8	6.160	-0.270	0.140	0.010
2020/01/31 20:14:53.9	6.140	-0.250	0.120	0.020
2020/01/31 20:14:54.0	6.130	-0.230	0.100	0.030
2020/01/31 20:14:54.1	6.110	-0.210	0.080	0.050
2020/01/31 20:14:54.2	6.090	-0.190	0.060	0.060
2020/01/31 20:14:54.3	6.070	-0.170	0.040	0.070
2020/01/31 20:14:54.4	6.040	-0.150	0.020	0.090
2020/01/31 20:14:54.5	6.020	-0.120	0.000	0.100
2020/01/31 20:14:54.6	5.990	-0.100	-0.010	0.120
2020/01/31 20:14:54.7	5.970	-0.070	-0.030	0.130
2020/01/31 20:14:54.8	5.940	-0.050	-0.050	0.150
2020/01/31 20:14:54.9	5.920	-0.020	-0.070	0.160
2020/01/31 20:14:55.0	5.890	0.000	-0.090	0.180
2020/01/31 20:14:55.1	5.870	0.030	-0.110	0.190
2020/01/31 20:14:55.2	5.840	0.050	-0.130	0.200
2020/01/31 20:14:55.3	5.820	0.080	-0.150	0.210
2020/01/31 20:14:55.4	5.800	0.100	-0.170	0.220
2020/01/31 20:14:55.5	5.780	0.120	-0.190	0.220
2020/01/31 20:14:55.6	5.760	0.140	-0.210	0.230
2020/01/31 20:14:55.7	5.740	0.160	-0.240	0.230
2020/01/31 20:14:55.8	5.730	0.180	-0.260	0.230
2020/01/31 20:14:55.9	5.710	0.200	-0.290	0.220
2020/01/31 20:14:56.0	5.700	0.210	-0.310	0.220
2020/01/31 20:14:56.1	5.690	0.230	-0.340	0.210
2020/01/31 20:14:56.2	5.680	0.240	-0.360	0.190
2020/01/31 20:14:56.3	5.680	0.250	-0.390	0.180
2020/01/31 20:14:56.4	5.670	0.260	-0.420	0.160
2020/01/31 20:14:56.5	5.670	0.270	-0.440	0.140
2020/01/31 20:14:56.6	5.660	0.270	-0.470	0.110
2020/01/31 20:14:56.7	5.660	0.280	-0.500	0.090
2020/01/31 20:14:56.8	5.660	0.280	-0.520	0.060
2020/01/31 20:14:56.9	5.660	0.280	-0.550	0.030
2020/01/31 20:14:57.0	5.660	0.280	-0.570	-0.000
2020/01/31 20:14:57.1	5.660	0.280	-0.590	-0.040
2020/01/31 20:14:57.2	5.660	0.270	-0.610	-0.070
2020/01/31 20:14:57.3	5.660	0.270	-0.630	-0.100
2020/01/31 20:14:57.4	5.660	0.260	-0.640	-0.140
2020/01/31 20:14:57.5	5.660	0.260	-0.650	-0.170
2020/01/31 20:14:57.6	5.660	0.250	-0.660	-0.200
2020/01/31 20:14:57.7	5.670	0.240	-0.670	-0.240
2020/01/31 20:14:57.8	5.670	0.230	-0.680	-0.270
2020/01/31 20:14:57.9	5.660	0.220	-0.680	-0.310
2020/01/31 20:14:58.0	5.670	0.210	-0.680	-0.340
2020/01/31 20:14:58.1	5.680	0.200	-0.690	-0.370
2020/01/31 20:14:58.2	5.680	0.190	-0.690	-0.400
2020/01/31 20:14:58.3	5.690	0.180	-0.680	-0.440
2020/01/31 20:14:58.4	5.710	0.170	-0.680	-0.470
2020/01/31 20:14:58.5	5.720	0.170	-0.680	-0.500
2020/01/31 20:14:58.6	5.740	0.160	-0.680	-0.530
2020/01/31 20:14:58.7	5.760	0.150	-0.680	-0.560
2020/01/31 20:14:58.8	5.780	0.150	-0.670	-0.590
2020/01/31 20:14:58.9	5.810	0.140	-0.670	-0.620
2020/01/31 20:14:59.0	5.830	0.140	-0.670	-0.650
2020/01/31 20:14:59.1	5.860	0.140	-0.670	-0.670
2020/01/31 20:14:59.2	5.890	0.140	-0.670	-0.700
2020/01/31 20:14:59.3	5.910	0.140	-0.670	-0.720
2020/01/31 20:14:59.4	5.940	0.140	-0.670	-0.740
2020/01/31 20:14:59.5	5.970	0.140	-0.670	-0.760
2020/01/31 20:14:59.6	6.000	0.140	-0.670	-0.770
2020/01/31 20:14:59.7	6.030	0.140	-0.670	-0.780
2020/01/31 20:14:59.8	6.060	0.140	-0.670	-0.790
2020/01/31 20:14:59.9	6.080	0.150	-0.670	-0.800
2020/01/31 20:15:00.0	6.110	0.150	-0.660	-0.800
2020/01/31 20:15:00.1	6.130	0.150	-0.650	-0.800
2020/01/31 20:15:00.2	6.150	0.150	-0.640	-0.800
2020/01/31 20:15:00.3	6.170	0.150	-0.630	-0.790
2020/01/31 20:15:00.4	6.180	0.150	-0.610	-0.780
2020/01/31 20:15:00.5	6.200	0.150	-0.590	-0.760
2020/01/31 20:15:00.6	6.210	0.140	-0.570	-0.750
2020/01/31 20:15:00.7	6.220	0.140	-0.540	-0.730
2020/01/31 20:15:00.8	6.230	0.130	-0.520	-0.710
2020/01/31 20:15:00.9	6.240	0.120	-0.480	-0.690
2020/01/31 20:15:01.0	6.240	0.110	-0.450	-0.670
2020/01/31 20:15:01.1	6.250	0.100	-0.410	-0.650
2020/01/31 20:15:01.2	6.250	0.080	-0.380	-0.630
2020/01/31 20:15:01.3	6.250	0.060	-0.340	-0.610
2020/01/31 20:15:01.4	6.240	0.050	-0.300	-0.590
2020/01/31 20:15:01.5	6.240	0.030	-0.260	-0.570
2020/01/31 20:15:01.6	6.240	0.000	-0.210	-0.550
2020/01/31 20:15:01.7	6.230	-0.020	-0.170	-0.530
2020/01/31 20:15:01.8	6.230	-0.040	-0.130	-0.510
2020/01/31 20:15:01.9	6.220	-0.070	-0.100	-0.490
2020/01/31 20:15:02.0	6.210	-0.090	-0.060	-0.470
2020/01/31 20:15:02.1	6.210	-0.120	-0.020	-0.450
2020/01/31 20:15:02.2	6.210	-0.140	0.020	-0.440
2020/01/31 20:15:02.3	6.210	-0.170	0.050	-0.420
2020/01/31 20:15:02.4	6.210	-0.190	0.080	-0.410
2020/01/31 20:15:02.5	6.210	-0.220	0.110	-0.400
2020/01/31 20:15:02.6	6.210	-0.240	0.130	-0.390
2020/01/31 20:15:02.7	6.220	-0.260	0.150	-0.380
2020/01/31 20:15:02.8	6.220	-0.280	0.170	-0.370
2020/01/31 20:15:02.9	6.230	-0.300	0.190	-0.370
2020/01/31 20:15:03.0	6.230	-0.310	0.200	-0.360
2020/01/31 20:15:03.1	6.240	-0.330	0.200	-0.350
2020/01/31 20:15:03.2	6.250	-0.340	0.210	-0.350
2020/01/31 20:15:03.3	6.260	-0.350	0.210	-0.340
2020/01/31 20:15:03.4	6.270	-0.350	0.200	-0.340
2020/01/31 20:15:03.5	6.280	-0.360	0.200	-0.340
2020/01/31 20:15:03.6	6.290	-0.360	0.190	-0.330
2020/01/31 20:15:03.7	6.300	-0.360	0.180	-0.330
2020/01/31 20:15:03.8	6.300	-0.350	0.170	-0.320
2020/01/31 20:15:03.9	6.320	-0.350	0.160	-0.310
2020/01/31 20:15:04.0	6.330	-0.340	0.150	-0.300
2020/01/31 20:15:04.1	6.330	-0.330	0.130	-0.300
2020/01/31 20:15:04.2	6.340	-0.310	0.120	-0.290
2020/01/31 20:15:04.3	6.340	-0.300	0.110	-0.280
2020/01/31 20:15:04.4	6.340	-0.280	0.100	-0.260
2020/01/31 20:15:04.5	6.340	-0.260	0.080	-0.250
2020/01/31 20:15:04.6	6.340	-0.240	0.070	-0.230
2020/01/31 20:15:04.7	6.330	-0.220	0.060	-0.220
2020/01/31 20:15:04.8	6.320	-0.200	0.050	-0.200
2020/01/31 20:15:04.9	6.320	-0.180	0.040	-0.180
2020/01/31 20:15:05.0	6.300	-0.160	0.030	-0.160
2020/01/31 20:15:05.1	6.290	-0.140	0.020	-0.130
2020/01/31 20:15:05.2	6.270	-0.120	0.020	-0.110
2020/01/31 20:15:05.3	6.260	-0.100	0.010	-0.090
2020/01/31 20:15:05.4	6.240	-0.080	0.010	-0.060
2020/01/31 20:15:05.5	6.220	-0.060	0.000	-0.040
2020/01/31 20:15:05.6	6.190	-0.050	-0.000	-0.010
2020/01/31 20:15:05.7	6.170	-0.030	-0.010	0.010
2020/01/31 20:15:05.8	6.140	-0.020	-0.010	0.030
2020/01/31 20:15:05.9	6.120	-0.010	-0.010	0.060
2020/01/31 20:15:06.0	6.090	-0.010	-0.010	0.080
2020/01/31 20:15:06.1	6.060	0.000	-0.020	0.100
2020/01/31 20:15:06.2	6.030	0.000	-0.020	0.120
2020/01/31 20:15:06.3	6.010	0.010	-0.020	0.140
2020/01/31 20:15:06.4	5.980	0.000	-0.020	0.160
2020/01/31 20:15:06.5	5.960	0.000	-0.030	0.170
2020/01/31 20:15:06.6	5.930	-0.000	-0.030	0.180
2020/01/31 20:15:06.7	5.910	-0.010	-0.040	0.190
2020/01/31 20:15:06.8	5.890	-0.010	-0.040	0.200
2020/01/31 20:15:06.9	5.870	-0.020	-0.060	0.200
2020/01/31 20:15:07.0	5.860	-0.030	-0.070	0.200
2020/01/31 20:15:07.1	5.840	-0.040	-0.080	0.200
2020/01/31 20:15:07.2	5.830	-0.050	-0.090	0.200
2020/01/31 20:15:07.3	5.810	-0.060	-0.110	0.190
2020/01/31 20:15:07.4	5.800	-0.070	-0.120	0.190
2020/01/31 20:15:07.5	5.790	-0.080	-0.140	0.180
2020/01/31 20:15:07.6	5.780	-0.080	-0.160	0.170
2020/01/31 20:15:07.7	5.780	-0.090	-0.180	0.160
2020/01/31 20:15:07.8	5.770	-0.100	-0.200	0.150
2020/01/31 20:15:07.9	5.750	-0.110	-0.220	0.130
2020/01/31 20:15:08.0	5.750	-0.110	-0.240	0.120
2020/01/31 20:15:08.1	5.740	-0.110	-0.260	0.100
2020/01/31 20:15:08.2	5.730	-0.120	-0.280	0.090
2020/01/31 20:15:08.3	5.720	-0.110	-0.300	0.070
2020/01/31 20:15:08.4	5.720	-0.110	-0.320	0.060
2020/01/31 20:15:08.5	5.710	-0.110	-0.340	0.050
2020/01/31 20:15:08.6	5.700	-0.100	-0.360	0.030
2020/01/31 20:15:08.7	5.700	-0.090	-0.380	0.020
2020/01/31 20:15:08.8	5.690	-0.080	-0.400	0.010
2020/01/31 20:15:08.9	5.670	-0.070	-0.420	-0.010
2020/01/31 20:15:09.0	5.670	-0.050	-0.430	-0.020
2020/01/31 20:15:09.1	5.670	-0.030	-0.450	-0.030
2020/01/31 20:15:09.2	5.670	-0.010	-0.470	-0.050
2020/01/31 20:15:09.3	5.670	0.010	-0.480	-0.060
2020/01/31 20:15:09.4	5.680	0.030	-0.500	-0.070
2020/01/31 20:15:09.5	5.690	0.060	-0.520	-0.090
2020/01/31 20:15:09.6	5.700	0.090	-0.540	-0.100
2020/01/31 20:15:09.7	5.710	0.120	-0.560	-0.110
2020/01/31 20:15:09.8	5.720	0.150	-0.580	-0.130
2020/01/31 20:15:09.9	5.740	0.180	-0.590	-0.150
2020/01/31 20:15:10.0	5.750	0.220	-0.610	-0.160
2020/01/31 20:15:10.1	5.770	0.250	-0.630	-0.170
2020/01/31 20:15:10.2	5.780	0.290	-0.650	-0.190
2020/01/31 20:15:10.3	5.800	0.320	-0.670	-0.200
2020/01/31 20:15:10.4	5.810	0.350	-0.690	-0.210
2020/01/31 20:15:10.5	5.830	0.390	-0.700	-0.220
2020/01/31 20:15:10.6	5.840	0.420	-0.710	-0.220
2020/01/31 20:15:10.7	5.860	0.440	-0.720	-0.230
2020/01/31 20:15:10.8	5.870	0.470	-0.730	-0.230
2020/01/31 20:15:10.9	5.880	0.490	-0.730	-0.230
2020/01/31 20:15:11.0	5.890	0.510	-0.730	-0.220
2020/01/31 20:15:11.1	5.900	0.530	-0.730	-0.220
2020/01/31 20:15:11.2	5.910	0.550	-0.730	-0.210
2020/01/31 20:15:11.3	5.910	0.560	-0.720	-0.200
2020/01/31 20:15:11.4	5.920	0.570	-0.700	-0.190
2020/01/31 20:15:11.5	5.920	0.570	-0.690	-0.170
2020/01/31 20:15:11.6	5.920	0.570	-0.670	-0.160
2020/01/31 20:15:11.7	5.930	0.560	-0.650	-0.140
2020/01/31 20:15:11.8	5.930	0.560	-0.620	-0.120
2020/01/31 20:15:11.9	5.920	0.540	-0.590	-0.100
2020/01/31 20:15:12.0	5.930	0.530	-0.560	-0.080
2020/01/31 20:15:12.1	5.930	0.510	-0.530	-0.070
2020/01/31 20:15:12.2	5.930	0.490	-0.500	-0.050
2020/01/31 20:15:12.3	5.930	0.460	-0.460	-0.030
2020/01/31 20:15:12.4	5.930	0.430	-0.430	-0.010
2020/01/31 20:15:12.5	5.930	0.400	-0.390	0.010
2020/01/31 20:15:12.6	5.930	0.370	-0.360	0.020
2020/01/31 20:15:12.7	5.930	0.330	-0.320	0.040
2020/01/31 20:15:12.8	5.930	0.290	-0.290	0.050
2020/01/31 20:15:12.9	5.930	0.260	-0.260	0.050
2020/01/31 20:15:13.0	5.930	0.220	-0.230	0.060
2020/01/31 20:15:13.1	5.940	0.180	-0.200	0.070
2020/01/31 20:15:13.2	5.940	0.140	-0.180	0.070
2020/01/31 20:15:13.3	5.950	0.100	-0.150	0.070
2020/01/31 20:15:13.4	5.960	0.060	-0.140	0.070
2020/01/31 20:15:13.5	5.970	0.020	-0.120	0.060
2020/01/31 20:15:13.6	5.990	-0.020	-0.110	0.060
2020/01/31 20:15:13.7	6.000	-0.050	-0.100	0.050
2020/01/31 20:15:13.8	6.010	-0.090	-0.100	0.040
2020/01/31 20:15:13.9	6.020	-0.120	-0.090	0.030
2020/01/31 20:15:14.0	6.040	-0.150	-0.090	0.010
2020/01/31 20:15:14.1	6.060	-0.180	-0.090	-0.000
2020/01/31 20:15:14.2	6.070	-0.210	-0.100	-0.020
2020/01/31 20:15:14.3	6.090	-0.240	-0.100	-0.040
2020/01/31 20:15:14.4	6.100	-0.270	-0.110	-0.060
2020/01/31 20:15:14.5	6.120	-0.290	-0.120	-0.090
2020/01/31 20:15:14.6	6.130	-0.310	-0.130	-0.120
2020/01/31 20:15:14.7	6.140	-0.330	-0.140	-0.150
2020/01/31 20:15:14.8	6.160	-0.350	-0.150	-0.180
2020/01/31 20:15:14.9	6.170	-0.370	-0.160	-0.210
2020/01/31 20:15:15.0	6.180	-0.380	-0.170	-0.250
2020/01/31 20:15:15.1	6.190	-0.400	-0.180	-0.290
2020/01/31 20:15:15.2	6.200	-0.410	-0.180	-0.320
2020/01/31 20:15:15.3	6.200	-0.420	-0.190	-0.360
2020/01/31 20:15:15.4	6.210	-0.430	-0.190	-0.400
2020/01/31 20:15:15.5	6.210	-0.440	-0.190	-0.430
2020/01/31 20:15:15.6	6.220	-0.440	-0.190	-0.460
2020/01/31 20:15:15.7	6.220	-0.450	-0.180	-0.490
2020/01/31 20:15:15.8	6.220	-0.450	-0.180	-0.520
2020/01/31 20:15:15.9	6.220	-0.460	-0.170	-0.550
2020/01/31 20:15:16.0	6.220	-0.460	-0.160	-0.570
2020/01/31 20:15:16.1	6.220	-0.460	-0.140	-0.590
2020/01/31 20:15:16.2	6.220	-0.470	-0.130	-0.610
2020/01/31 20:15:16.3	6.220	-0.470	-0.110	-0.620
2020/01/31 20:15:16.4	6.210	-0.470	-0.100	-0.630
2020/01/31 20:15:16.5	6.210	-0.470	-0.080	-0.640
2020/01/31 20:15:16.6	6.200	-0.470	-0.060	-0.640
2020/01/31 20:15:16.7	6.190	-0.470	-0.040	-0.640
2020/01/31 20:15:16.8	6.180	-0.470	-0.020	-0.640
2020/01/31 20:15:16.9	6.180	-0.470	-0.000	-0.630
2020/01/31 20:15:17.0	6.170	-0.470	0.020	-0.620
2020/01/31 20:15:17.1	6.150	-0.470	0.040	-0.610
2020/01/31 20:15:17.2	6.140	-0.470	0.060	-0.590
2020/01/31 20:15:17.3	6.120	-0.460	0.080	-0.580
2020/01/31 20:15:17.4	6.100	-0.460	0.100	-0.560
2020/01/31 20:15:17.5	6.080	-0.460	0.110	-0.540
2020/01/31 20:15:17.6	6.060	-0.450	0.130	-0.510
2020/01/31 20:15:17.7	6.040	-0.450	0.150	-0.490
2020/01/31 20:15:17.8	6.010	-0.440	0.160	-0.460
2020/01/31 20:15:17.9	6.000	-0.430	0.170	-0.440
2020/01/31 20:15:18.0	5.970	-0.420	0.180	-0.410
2020/01/31 20:15:18.1	5.950	-0.400	0.190	-0.380
2020/01/31 20:15:18.2	5.920	-0.390	0.200	-0.350
2020/01/31 20:15:18.3	5.890	-0.370	0.210	-0.320
2020/01/31 20:15:18.4	5.860	-0.350	0.210	-0.290
2020/01/31 20:15:18.5	5.840	-0.330	0.210	-0.250
2020/01/31 20:15:18.6	5.810	-0.300	0.210	-0.210
2020/01/31 20:15:18.7	5.780	-0.270	0.210	-0.180
2020/01/31 20:15:18.8	5.750	-0.240	0.210	-0.140
2020/01/31 20:15:18.9	5.730	-0.200	0.200	-0.100
2020/01/31 20:15:19.0	5.700	-0.160	0.190	-0.050
2020/01/31 20:15:19.1	5.680	-0.120	0.180	-0.010
2020/01/31 20:15:19.2	5.660	-0.080	0.170	0.040
2020/01/31 20:15:19.3	5.630	-0.030	0.150	0.090
2020/01/31 20:15:19.4	5.610	0.020	0.140	0.140
2020/01/31 20:15:19.5	5.590	0.080	0.120	0.190
2020/01/31 20:15:19.6	5.570	0.130	0.090	0.240
2020/01/31 20:15:19.7	5.560	0.190	0.070	0.290
2020/01/31 20:15:19.8	5.540	0.250	0.040	0.340
2020/01/31 20:15:19.9	5.520	0.310	0.010	0.390
2020/01/31 20:15:20.0	5.500	0.370	-0.030	0.440
2020/01/31 20:15:20.1	5.490	0.430	-0.060	0.480
2020/01/31 20:15:20.2	5.480	0.490	-0.100	0.530
2020/01/31 20:15:20.3	5.470	0.550	-0.150	0.570
2020/01/31 20:15:20.4	5.460	0.610	-0.190	0.610
2020/01/31 20:15:20.5	5.450	0.660	-0.240	0.640
2020/01/31 20:15:20.6	5.440	0.710	-0.290	0.670
2020/01/31 20:15:20.7	5.440	0.760	-0.340	0.690
2020/01/31 20:15:20.8	5.430	0.810	-0.390	0.710
2020/01/31 20:15:20.9	5.420	0.850	-0.450	0.730
2020/01/31 20:15:21.0	5.420	0.890	-0.500	0.740
2020/01/31 20:15:21.1	5.420	0.930	-0.560	0.750
2020/01/31 20:15:21.2	5.420	0.960	-0.610	0.740
2020/01/31 20:15:21.3	5.420	0.980	-0.670	0.740
2020/01/31 20:15:21.4	5.430	1.000	-0.730	0.730
2020/01/31 20:15:21.5	5.430	1.010	-0.780	0.720
2020/01/31 20:15:21.6	5.440	1.020	-0.840	0.700
2020/01/31 20:15:21.7	5.440	1.020	-0.890	0.670
2020/01/31 20:15:21.8	5.450	1.020	-0.940	0.650
2020/01/31 20:15:21.9	5.460	1.010	-0.990	0.610
2020/01/31 20:15:22.0	5.470	0.990	-1.030	0.580
2020/01/31 20:15:22.1	5.490	0.970	-1.070	0.550
2020/01/31 20:15:22.2	5.500	0.940	-1.110	0.510
2020/01/31 20:15:22.3	5.520	0.910	-1.140	0.460
2020/01/31 20:15:22.4	5.530	0.870	-1.160	0.420
2020/01/31 20:15:22.5	5.550	0.830	-1.180	0.370
2020/01/31 20:15:22.6	5.570	0.780	-1.190	0.320
2020/01/31 20:15:22.7	5.600	0.730	-1.200	0.270
2020/01/31 20:15:22.8	5.620	0.670	-1.200	0.220
2020/01/31 20:15:22.9	5.640	0.620	-1.190	0.160
2020/01/31 20:15:23.0	5.670	0.550	-1.180	0.100
2020/01/31 20:15:23.1	5.700	0.490	-1.160	0.040
2020/01/31 20:15:23.2	5.730	0.420	-1.130	-0.020
2020/01/31 20:15:23.3	5.760	0.350	-1.090	-0.080
2020/01/31 20:15:23.4	5.790	0.280	-1.050	-0.140
2020/01/31 20:15:23.5	5.830	0.210	-1.000	-0.200
2020/01/31 20:15:23.6	5.860	0.130	-0.940	-0.260
2020/01/31 20:15:23.7	5.890	0.060	-0.880	-0.320
2020/01/31 20:15:23.8	5.920	-0.010	-0.810	-0.370
2020/01/31 20:15:23.9	5.950	-0.090	-0.730	-0.440
2020/01/31 20:15:24.0	5.980	-0.160	-0.650	-0.490
2020/01/31 20:15:24.1	6.010	-0.230	-0.570	-0.530
2020/01/31 20:15:24.2	6.040	-0.300	-0.480	-0.580
2020/01/31 20:15:24.3	6.060	-0.360	-0.390	-0.620
2020/01/31 20:15:24.4	6.090	-0.430	-0.300	-0.660
2020/01/31 20:15:24.5	6.110	-0.490	-0.210	-0.700
2020/01/31 20:15:24.6	6.130	-0.550	-0.110	-0.730
2020/01/31 20:15:24.7	6.140	-0.600	-0.020	-0.760
2020/01/31 20:15:24.8	6.160	-0.660	0.080	-0.790
2020/01/31 20:15:24.9	6.170	-0.710	0.170	-0.810
2020/01/31 20:15:25.0	6.180	-0.750	0.250	-0.830
2020/01/31 20:15:25.1	6.190	-0.790	0.340	-0.840
2020/01/31 20:15:25.2	6.200	-0.830	0.420	-0.850
2020/01/31 20:15:25.3	6.200	-0.860	0.500	-0.860
2020/01/31 20:15:25.4	6.200	-0.890	0.570	-0.860
2020/01/31 20:15:25.5	6.200	-0.920	0.630	-0.850
2020/01/31 20:15:25.6	6.200	-0.940	0.690	-0.850
2020/01/31 20:15:25.7	6.190	-0.950	0.730	-0.840
2020/01/31 20:15:25.8	6.180	-0.960	0.770	-0.820
2020/01/31 20:15:25.9	6.180	-0.970	0.800	-0.800
2020/01/31 20:15:26.0	6.170	-0.970	0.830	-0.790
2020/01/31 20:15:26.1	6.160	-0.970	0.840	-0.760
2020/01/31 20:15:26.2	6.140	-0.960	0.840	-0.740
2020/01/31 20:15:26.3	6.120	-0.950	0.840	-0.720
2020/01/31 20:15:26.4	6.110	-0.940	0.830	-0.690
2020/01/31 20:15:26.5	6.090	-0.920	0.800	-0.660
2020/01/31 20:15:26.6	6.070	-0.900	0.770	-0.630
2020/01/31 20:15:26.7	6.040	-0.870	0.730	-0.600
2020/01/31 20:15:26.8	6.020	-0.840	0.690	-0.570
2020/01/31 20:15:26.9	5.990	-0.810	0.640	-0.540
2020/01/31 20:15:27.0	5.970	-0.770	0.580	-0.510
2020/01/31 20:15:27.1	5.940	-0.730	0.510	-0.470
2020/01/31 20:15:27.2	5.920	-0.690	0.450	-0.440
2020/01/31 20:15:27.3	5.890	-0.650	0.370	-0.410
2020/01/31 20:15:27.4	5.860	-0.600	0.300	-0.370
2020/01/31 20:15:27.5	5.830	-0.560	0.220	-0.340
2020/01/31 20:15:27.6	5.810	-0.510	0.140	-0.300
2020/01/31 20:15:27.7	5.780	-0.460	0.060	-0.270
2020/01/31 20:15:27.8	5.750	-0.410	-0.020	-0.230
2020/01/31 20:15:27.9	5.710	-0.350	-0.090	-0.200
2020/01/31 20:15:28.0	5.680	-0.300	-0.170	-0.160
2020/01/31 20:15:28.1	5.650	-0.250	-0.250	-0.130
2020/01/31 20:15:28.2	5.620	-0.190	-0.320	-0.090
2020/01/31 20:15:28.3	5.590	-0.140	-0.390	-0.060
2020/01/31 20:15:28.4	5.560	-0.090	-0.450	-0.020
2020/01/31 20:15:28.5	5.540	-0.040	-0.520	0.010
2020/01/31 20:15:28.6	5.510	0.010	-0.570	0.050
2020/01/31 20:15:28.7	5.480	0.060	-0.630	0.080
2020/01/31 20:15:28.8	5.460	0.110	-0.680	0.110
2020/01/31 20:15:28.9	5.440	0.160	-0.720	0.150
2020/01/31 20:15:29.0	5.410	0.200	-0.760	0.180
2020/01/31 20:15:29.1	5.400	0.250	-0.800	0.210
2020/01/31 20:15:29.2	5.380	0.290	-0.830	0.240
2020/01/31 20:15:29.3	5.360	0.330	-0.860	0.270
2020/01/31 20:15:29.4	5.350	0.370	-0.880	0.290
2020/01/31 20:15:29.5	5.340	0.400	-0.890	0.320
2020/01/31 20:15:29.6	5.340	0.440	-0.910	0.340
2020/01/31 20:15:29.7	5.330	0.470	-0.920	0.360
2020/01/31 20:15:29.8	5.330	0.500	-0.920	0.380
2020/01/31 20:15:29.9	5.340	0.530	-0.920	0.400
2020/01/31 20:15:30.0	5.340	0.550	-0.920	0.410
2020/01/31 20:15:30.1	5.340	0.580	-0.910	0.430
2020/01/31 20:15:30.2	5.350	0.600	-0.900	0.440
2020/01/31 20:15:30.3	5.360	0.620	-0.890	0.450
2020/01/31 20:15:30.4	5.370	0.630	-0.870	0.450
2020/01/31 20:15:30.5	5.380	0.650	-0.850	0.450
2020/01/31 20:15:30.6	5.390	0.660	-0.830	0.450
2020/01/31 20:15:30.7	5.400	0.660	-0.810	0.450
2020/01/31 20:15:30.8	5.420	0.670	-0.780	0.450
2020/01/31 20:15:30.9	5.430	0.670	-0.750	0.440
2020/01/31 20:15:31.0	5.450	0.670	-0.710	0.430
2020/01/31 20:15:31.1	5.460	0.660	-0.680	0.410
2020/01/31 20:15:31.2	5.470	0.650	-0.640	0.400
2020/01/31 20:15:31.3	5.480	0.640	-0.600	0.380
2020/01/31 20:15:31.4	5.490	0.630	-0.560	0.360
2020/01/31 20:15:31.5	5.500	0.610	-0.520	0.340
2020/01/31 20:15:31.6	5.510	0.590	-0.480	0.320
2020/01/31 20:15:31.7	5.510	0.570	-0.430	0.290
2020/01/31 20:15:31.8	5.520	0.540	-0.380	0.270
2020/01/31 20:15:31.9	5.530	0.510	-0.340	0.240
2020/01/31 20:15:32.0	5.540	0.480	-0.290	0.210
2020/01/31 20:15:32.1	5.540	0.450	-0.240	0.180
2020/01/31 20:15:32.2	5.550	0.410	-0.200	0.160
2020/01/31 20:15:32.3	5.560	0.380	-0.150	0.130
2020/01/31 20:15:32.4	5.560	0.340	-0.100	0.100
2020/01/31 20:15:32.5	5.570	0.300	-0.060	0.070
2020/01/31 20:15:32.6	5.580	0.260	-0.020	0.040
2020/01/31 20:15:32.7	5.590	0.220	0.020	0.010
2020/01/31 20:15:32.8	5.600	0.180	0.050	-0.020
2020/01/31 20:15:32.9	5.610	0.140	0.080	-0.050
2020/01/31 20:15:33.0	5.630	0.110	0.110	-0.080
2020/01/31 20:15:33.1	5.650	0.070	0.130	-0.120
2020/01/31 20:15:33.2	5.660	0.030	0.150	-0.150
2020/01/31 20:15:33.3	5.680	-0.000	0.160	-0.180
2020/01/31 20:15:33.4	5.700	-0.030	0.170	-0.220
2020/01/31 20:15:33.5	5.720	-0.060	0.170	-0.250
2020/01/31 20:15:33.6	5.750	-0.090	0.170	-0.290
2020/01/31 20:15:33.7	5.770	-0.120	0.160	-0.320
2020/01/31 20:15:33.8	5.790	-0.140	0.150	-0.360
2020/01/31 20:15:33.9	5.820	-0.160	0.130	-0.400
2020/01/31 20:15:34.0	5.840	-0.180	0.100	-0.430
2020/01/31 20:15:34.1	5.870	-0.200	0.080	-0.470
2020/01/31 20:15:34.2	5.890	-0.210	0.050	-0.500
2020/01/31 20:15:34.3	5.910	-0.220	0.010	-0.540
2020/01/31 20:15:34.4	5.930	-0.230	-0.020	-0.570
2020/01/31 20:15:34.5	5.950	-0.230	-0.060	-0.600
2020/01/31 20:15:34.6	5.970	-0.240	-0.100	-0.620
2020/01/31 20:15:34.7	5.980	-0.240	-0.130	-0.640
2020/01/31 20:15:34.8	5.990	-0.230	-0.170	-0.660
2020/01/31 20:15:34.9	6.010	-0.230	-0.210	-0.680
2020/01/31 20:15:35.0	6.010	-0.230	-0.240	-0.690
2020/01/31 20:15:35.1	6.020	-0.220	-0.270	-0.700
2020/01/31 20:15:35.2	6.020	-0.210	-0.300	-0.700
2020/01/31 20:15:35.3	6.010	-0.200	-0.330	-0.700
2020/01/31 20:15:35.4	6.010	-0.190	-0.350	-0.700
2020/01/31 20:15:35.5	6.000	-0.180	-0.370	-0.690
2020/01/31 20:15:35.6	5.990	-0.160	-0.380	-0.670
2020/01/31 20:15:35.7	5.970	-0.150	-0.390	-0.660
2020/01/31 20:15:35.8	5.950	-0.140	-0.400	-0.640
2020/01/31 20:15:35.9	5.930	-0.120	-0.400	-0.610
2020/01/31 20:15:36.0	5.910	-0.110	-0.390	-0.580
2020/01/31 20:15:36.1	5.880	-0.090	-0.380	-0.540
2020/01/31 20:15:36.2	5.850	-0.080	-0.360	-0.510
2020/01/31 20:15:36.3	5.820	-0.070	-0.340	-0.470
2020/01/31 20:15:36.4	5.790	-0.050	-0.320	-0.430
2020/01/31 20:15:36.5	5.760	-0.040	-0.290	-0.390
2020/01/31 20:15:36.6	5.720	-0.030	-0.260	-0.340
2020/01/31 20:15:36.7	5.680	-0.020	-0.220	-0.300
2020/01/31 20:15:36.8	5.650	-0.010	-0.190	-0.250
2020/01/31 20:15:36.9	5.620	0.000	-0.150	-0.200
2020/01/31 20:15:37.0	5.580	0.010	-0.110	-0.150
2020/01/31 20:15:37.1	5.540	0.020	-0.080	-0.110
2020/01/31 20:15:37.2	5.500	0.030	-0.040	-0.060
2020/01/31 20:15:37.3	5.470	0.030	-0.010	-0.020
2020/01/31 20:15:37.4	5.430	0.040	0.030	0.030
2020/01/31 20:15:37.5	5.400	0.040	0.060	0.070
2020/01/31 20:15:37.6	5.360	0.050	0.080	0.110
2020/01/31 20:15:37.7	5.330	0.050	0.110	0.140
2020/01/31 20:15:37.8	5.300	0.060	0.130	0.180
2020/01/31 20:15:37.9	5.270	0.060	0.140	0.210
2020/01/31 20:15:38.0	5.250	0.060	0.150	0.230
2020/01/31 20:15:38.1	5.220	0.060	0.160	0.260
2020/01/31 20:15:38.2	5.200	0.060	0.160	0.270
2020/01/31 20:15:38.3	5.190	0.060	0.160	0.280
2020/01/31 20:15:38.4	5.170	0.060	0.150	0.290
2020/01/31 20:15:38.5	5.160	0.060	0.130	0.290
2020/01/31 20:15:38.6	5.150	0.060	0.110	0.290
2020/01/31 20:15:38.7	5.150	0.060	0.090	0.280
2020/01/31 20:15:38.8	5.150	0.060	0.060	0.270
2020/01/31 20:15:38.9	5.130	0.060	0.020	0.250
2020/01/31 20:15:39.0	5.140	0.060	-0.020	0.230
2020/01/31 20:15:39.1	5.150	0.060	-0.060	0.210
2020/01/31 20:15:39.2	5.160	0.050	-0.100	0.180
2020/01/31 20:15:39.3	5.180	0.050	-0.150	0.150
2020/01/31 20:15:39.4	5.190	0.050	-0.200	0.120
2020/01/31 20:15:39.5	5.210	0.050	-0.250	0.090
2020/01/31 20:15:39.6	5.240	0.040	-0.300	0.050
2020/01/31 20:15:39.7	5.260	0.040	-0.350	0.020
2020/01/31 20:15:39.8	5.280	0.030	-0.400	-0.020
2020/01/31 20:15:39.9	5.320	0.020	-0.460	-0.060
2020/01/31 20:15:40.0	5.340	0.020	-0.500	-0.090
2020/01/31 20:15:40.1	5.370	0.010	-0.550	-0.130
2020/01/31 20:15:40.2	5.400	-0.000	-0.590	-0.160
2020/01/31 20:15:40.3	5.420	-0.010	-0.630	-0.190
2020/01/31 20:15:40.4	5.450	-0.020	-0.660	-0.220
2020/01/31 20:15:40.5	5.480	-0.040	-0.690	-0.250
2020/01/31 20:15:40.6	5.500	-0.050	-0.720	-0.280
2020/01/31 20:15:40.7	5.530	-0.070	-0.740	-0.300
2020/01/31 20:15:40.8	5.550	-0.080	-0.760	-0.330
2020/01/31 20:15:40.9	5.580	-0.100	-0.770	-0.350
2020/01/31 20:15:41.0	5.600	-0.120	-0.780	-0.370
2020/01/31 20:15:41.1	5.630	-0.140	-0.780	-0.390
2020/01/31 20:15:41.2	5.650	-0.160	-0.780	-0.400
2020/01/31 20:15:41.3	5.670	-0.180	-0.780	-0.410
2020/01/31 20:15:41.4	5.690	-0.200	-0.770	-0.420
2020/01/31 20:15:41.5	5.710	-0.220	-0.750	-0.430
2020/01/31 20:15:41.6	5.730	-0.240	-0.740	-0.440
2020/01/31 20:15:41.7	5.750	-0.260	-0.710	-0.450
2020/01/31 20:15:41.8	5.770	-0.280	-0.690	-0.450
2020/01/31 20:15:41.9	5.790	-0.300	-0.670	-0.450
2020/01/31 20:15:42.0	5.810	-0.310	-0.640	-0.450
2020/01/31 20:15:42.1	5.830	-0.330	-0.600	-0.450
2020/01/31 20:15:42.2	5.840	-0.340	-0.570	-0.440
2020/01/31 20:15:42.3	5.860	-0.350	-0.530	-0.430
2020/01/31 20:15:42.4	5.880	-0.360	-0.500	-0.420
2020/01/31 20:15:42.5	5.890	-0.370	-0.460	-0.410
2020/01/31 20:15:42.6	5.910	-0.370	-0.420	-0.400
2020/01/31 20:15:42.7	5.920	-0.370	-0.380	-0.380
2020/01/31 20:15:42.8	5.940	-0.370	-0.350	-0.370
2020/01/31 20:15:42.9	5.950	-0.370	-0.300	-0.350
2020/01/31 20:15:43.0	5.960	-0.360	-0.270	-0.320
2020/01/31 20:15:43.1	5.970	-0.350	-0.230	-0.290
2020/01/31 20:15:43.2	5.970	-0.330	-0.200	-0.260
2020/01/31 20:15:43.3	5.970	-0.310	-0.160	-0.220
2020/01/31 20:15:43.4	5.970	-0.290	-0.130	-0.180
2020/01/31 20:15:43.5	5.960	-0.270	-0.100	-0.140
2020/01/31 20:15:43.6	5.950	-0.240	-0.070	-0.090
2020/01/31 20:15:43.7	5.940	-0.220	-0.040	-0.040
2020/01/31 20:15:43.8	5.920	-0.190	-0.010	0.000
2020/01/31 20:15:43.9	5.890	-0.150	0.010	0.060
2020/01/31 20:15:44.0	5.870	-0.120	0.030	0.110
2020/01/31 20:15:44.1	5.840	-0.090	0.050	0.160
2020/01/31 20:15:44.2	5.810	-0.050	0.070	0.210
2020/01/31 20:15:44.3	5.780	-0.010	0.080	0.260
2020/01/31 20:15:44.4	5.740	0.020	0.090	0.310
2020/01/31 20:15:44.5	5.700	0.060	0.100	0.360
2020/01/31 20:15:44.6	5.660	0.100	0.110	0.400
2020/01/31 20:15:44.7	5.620	0.130	0.110	0.440
2020/01/31 20:15:44.8	5.580	0.170	0.120	0.480
2020/01/31 20:15:44.9	5.530	0.200	0.120	0.510
2020/01/31 20:15:45.0	5.490	0.230	0.110	0.540
2020/01/31 20:15:45.1	5.440	0.260	0.110	0.560
2020/01/31 20:15:45.2	5.410	0.290	0.100	0.570
2020/01/31 20:15:45.3	5.370	0.310	0.090	0.580
2020/01/31 20:15:45.4	5.330	0.340	0.070	0.590
2020/01/31 20:15:45.5	5.300	0.360	0.060	0.590
2020/01/31 20:15:45.6	5.270	0.370	0.040	0.580
2020/01/31 20:15:45.7	5.250	0.390	0.020	0.570
2020/01/31 20:15:45.8	5.230	0.400	-0.000	0.550
2020/01/31 20:15:45.9	5.200	0.410	-0.030	0.530
2020/01/31 20:15:46.0	5.190	0.410	-0.060	0.500
2020/01/31 20:15:46.1	5.180	0.410	-0.080	0.480
2020/01/31 20:15:46.2	5.170	0.410	-0.110	0.440
2020/01/31 20:15:46.3	5.170	0.410	-0.140	0.410
2020/01/31 20:15:46.4	5.170	0.400	-0.170	0.370
2020/01/31 20:15:46.5	5.180	0.400	-0.200	0.330
2020/01/31 20:15:46.6	5.190	0.380	-0.230	0.290
2020/01/31 20:15:46.7	5.200	0.370	-0.260	0.240
2020/01/31 20:15:46.8	5.210	0.350	-0.290	0.190
2020/01/31 20:15:46.9	5.220	0.330	-0.320	0.140
2020/01/31 20:15:47.0	5.240	0.310	-0.340	0.090
2020/01/31 20:15:47.1	5.260	0.290	-0.370	0.040
2020/01/31 20:15:47.2	5.290	0.260	-0.390	-0.010
2020/01/31 20:15:47.3	5.310	0.230	-0.400	-0.060
2020/01/31 20:15:47.4	5.330	0.210	-0.420	-0.110
2020/01/31 20:15:47.5	5.360	0.180	-0.430	-0.160
2020/01/31 20:15:47.6	5.380	0.150	-0.440	-0.200
2020/01/31 20:15:47.7	5.400	0.120	-0.440	-0.250
2020/01/31 20:15:47.8	5.420	0.090	-0.450	-0.290
2020/01/31 20:15:47.9	5.450	0.050	-0.450	-0.330
2020/01/31 20:15:48.0	5.460	0.030	-0.440	-0.360
2020/01/31 20:15:48.1	5.480	-0.000	-0.430	-0.390
2020/01/31 20:15:48.2	5.490	-0.030	-0.410	-0.410
2020/01/31 20:15:48.3	5.500	-0.060	-0.400	-0.440
2020/01/31 20:15:48.4	5.510	-0.080	-0.380	-0.450
2020/01/31 20:15:48.5	5.520	-0.100	-0.350	-0.460
2020/01/31 20:15:48.6	5.520	-0.120	-0.330	-0.470
2020/01/31 20:15:48.7	5.530	-0.140	-0.300	-0.480
2020/01/31 20:15:48.8	5.530	-0.160	-0.280	-0.480
2020/01/31 20:15:48.9	5.530	-0.170	-0.250	-0.480
2020/01/31 20:15:49.0	5.530	-0.180	-0.220	-0.470
2020/01/31 20:15:49.1	5.530	-0.180	-0.200	-0.470
2020/01/31 20:15:49.2	5.530	-0.180	-0.180	-0.460
2020/01/31 20:15:49.3	5.530	-0.180	-0.160	-0.450
2020/01/31 20:15:49.4	5.540	-0.180	-0.140	-0.440
2020/01/31 20:15:49.5	5.540	-0.170	-0.130	-0.430
2020/01/31 20:15:49.6	5.540	-0.160	-0.130	-0.420
2020/01/31 20:15:49.7	5.550	-0.140	-0.120	-0.410
2020/01/31 20:15:49.8	5.560	-0.120	-0.130	-0.400
2020/01/31 20:15:49.9	5.550	-0.100	-0.140	-0.390
2020/01/31 20:15:50.0	5.560	-0.080	-0.150	-0.380
2020/01/31 20:15:50.1	5.570	-0.050	-0.170	-0.370
2020/01/31 20:15:50.2	5.580	-0.020	-0.190	-0.360
2020/01/31 20:15:50.3	5.590	0.010	-0.210	-0.350
2020/01/31 20:15:50.4	5.600	0.040	-0.240	-0.340
2020/01/31 20:15:50.5	5.610	0.070	-0.270	-0.330
2020/01/31 20:15:50.6	5.620	0.110	-0.300	-0.320
2020/01/31 20:15:50.7	5.630	0.140	-0.330	-0.310
2020/01/31 20:15:50.8	5.640	0.170	-0.360	-0.300
2020/01/31 20:15:50.9	5.650	0.200	-0.390	-0.290
2020/01/31 20:15:51.0	5.660	0.230	-0.430	-0.280
2020/01/31 20:15:51.1	5.660	0.260	-0.460	-0.270
2020/01/31 20:15:51.2	5.670	0.290	-0.490	-0.260
2020/01/31 20:15:51.3	5.670	0.310	-0.510	-0.260
2020/01/31 20:15:51.4	5.670	0.330	-0.540	-0.250
2020/01/31 20:15:51.5	5.670	0.340	-0.560	-0.240
2020/01/31 20:15:51.6	5.670	0.360	-0.570	-0.230
2020/01/31 20:15:51.7	5.670	0.360	-0.580	-0.230
2020/01/31 20:15:51.8	5.670	0.370	-0.590	-0.220
2020/01/31 20:15:51.9	5.670	0.370	-0.590	-0.210
2020/01/31 20:15:52.0	5.670	0.370	-0.590	-0.210
2020/01/31 20:15:52.1	5.660	0.360	-0.580	-0.200
2020/01/31 20:15:52.2	5.650	0.340	-0.570	-0.190
2020/01/31 20:15:52.3	5.640	0.330	-0.550	-0.180
2020/01/31 20:15:52.4	5.630	0.310	-0.530	-0.180
2020/01/31 20:15:52.5	5.630	0.280	-0.510	-0.170
2020/01/31 20:15:52.6	5.620	0.250	-0.480	-0.160
2020/01/31 20:15:52.7	5.610	0.220	-0.440	-0.160
2020/01/31 20:15:52.8	5.600	0.180	-0.410	-0.150
2020/01/31 20:15:52.9	5.600	0.150	-0.370	-0.140
2020/01/31 20:15:53.0	5.590	0.100	-0.330	-0.140
2020/01/31 20:15:53.1	5.580	0.060	-0.290	-0.130
2020/01/31 20:15:53.2	5.570	0.020	-0.250	-0.130
2020/01/31 20:15:53.3	5.560	-0.030	-0.210	-0.130
2020/01/31 20:15:53.4	5.550	-0.070	-0.170	-0.130
2020/01/31 20:15:53.5	5.550	-0.120	-0.130	-0.130
2020/01/31 20:15:53.6	5.550	-0.170	-0.100	-0.140
2020/01/31 20:15:53.7	5.540	-0.210	-0.060	-0.150
2020/01/31 20:15:53.8	5.540	-0.260	-0.030	-0.160
2020/01/31 20:15:53.9	5.530	-0.300	-0.010	-0.170
2020/01/31 20:15:54.0	5.530	-0.340	0.020	-0.190
2020/01/31 20:15:54.1	5.540	-0.380	0.040	-0.210
2020/01/31 20:15:54.2	5.540	-0.410	0.050	-0.230
2020/01/31 20:15:54.3	5.540	-0.450	0.070	-0.250
2020/01/31 20:15:54.4	5.540	-0.480	0.080	-0.270
2020/01/31 20:15:54.5	5.550	-0.510	0.080	-0.300
2020/01/31 20:15:54.6	5.550	-0.530	0.090	-0.330
2020/01/31 20:15:54.7	5.550	-0.550	0.090	-0.350
2020/01/31 20:15:54.8	5.560	-0.560	0.090	-0.380
2020/01/31 20:15:54.9	5.550	-0.580	0.080	-0.400
2020/01/31 20:15:55.0	5.550	-0.580	0.080	-0.430
2020/01/31 20:15:55.1	5.560	-0.590	0.070	-0.450
2020/01/31 20:15:55.2	5.560	-0.590	0.060	-0.470
2020/01/31 20:15:55.3	5.560	-0.580	0.050	-0.480
2020/01/31 20:15:55.4	5.570	-0.570	0.040	-0.500
2020/01/31 20:15:55.5	5.570	-0.560	0.030	-0.510
2020/01/31 20:15:55.6	5.570	-0.540	0.020	-0.520
2020/01/31 20:15:55.7	5.570	-0.520	0.000	-0.520
2020/01/31 20:15:55.8	5.570	-0.500	-0.010	-0.520
2020/01/31 20:15:55.9	5.580	-0.470	-0.020	-0.520
2020/01/31 20:15:56.0	5.580	-0.440	-0.040	-0.520
2020/01/31 20:15:56.1	5.580	-0.410	-0.050	-0.510
2020/01/31 20:15:56.2	5.580	-0.380	-0.070	-0.500
2020/01/31 20:15:56.3	5.590	-0.340	-0.080	-0.490
2020/01/31 20:15:56.4	5.590	-0.300	-0.100	-0.470
2020/01/31 20:15:56.5	5.590	-0.260	-0.110	-0.450
2020/01/31 20:15:56.6	5.590	-0.210	-0.130	-0.430
2020/01/31 20:15:56.7	5.590	-0.170	-0.140	-0.410
2020/01/31 20:15:56.8	5.590	-0.130	-0.150	-0.380
2020/01/31 20:15:56.9	5.590	-0.080	-0.170	-0.350
2020/01/31 20:15:57.0	5.590	-0.030	-0.180	-0.320
2020/01/31 20:15:57.1	5.580	0.010	-0.190	-0.290
2020/01/31 20:15:57.2	5.580	0.060	-0.210	-0.260
2020/01/31 20:15:57.3	5.580	0.100	-0.220	-0.230
2020/01/31 20:15:57.4	5.570	0.150	-0.230	-0.190
2020/01/31 20:15:57.5	5.570	0.190	-0.240	-0.150
2020/01/31 20:15:57.6	5.560	0.240	-0.250	-0.120
2020/01/31 20:15:57.7	5.550	0.280	-0.250	-0.080
2020/01/31 20:15:57.8	5.550	0.320	-0.260	-0.040
2020/01/31 20:15:57.9	5.520	0.360	-0.270	-0.000
2020/01/31 20:15:58.0	5.510	0.400	-0.270	0.030
2020/01/31 20:15:58.1	5.500	0.430	-0.280	0.070
2020/01/31 20:15:58.2	5.490	0.460	-0.290	0.110
2020/01/31 20:15:58.3	5.480	0.490	-0.290	0.150
2020/01/31 20:15:58.4	5.470	0.520	-0.290	0.180
2020/01/31 20:15:58.5	5.460	0.540	-0.300	0.210
2020/01/31 20:15:58.6	5.450	0.560	-0.300	0.250
2020/01/31 20:15:58.7	5.430	0.580	-0.310	0.280
2020/01/31 20:15:58.8	5.420	0.590	-0.310	0.310
2020/01/31 20:15:58.9	5.410	0.600	-0.320	0.340
2020/01/31 20:15:59.0	5.400	0.600	-0.320	0.360
2020/01/31 20:15:59.1	5.390	0.610	-0.330	0.380
2020/01/31 20:15:59.2	5.380	0.600	-0.330	0.400
2020/01/31 20:15:59.3	5.360	0.600	-0.340	0.410
2020/01/31 20:15:59.4	5.350	0.590	-0.340	0.420
2020/01/31 20:15:59.5	5.340	0.580	-0.350	0.420
2020/01/31 20:15:59.6	5.330	0.560	-0.350	0.420
2020/01/31 20:15:59.7	5.320	0.540	-0.360	0.420
2020/01/31 20:15:59.8	5.320	0.520	-0.360	0.410
2020/01/31 20:15:59.9	5.320	0.490	-0.370	0.400
2020/01/31 20:16:00.0	5.310	0.460	-0.370	0.380
2020/01/31 20:16:00.1	5.310	0.430	-0.380	0.350
2020/01/31 20:16:00.2	5.310	0.390	-0.380	0.330
2020/01/31 20:16:00.3	5.310	0.350	-0.390	0.300
2020/01/31 20:16:00.4	5.310	0.310	-0.400	0.260
2020/01/31 20:16:00.5	5.310	0.270	-0.400	0.230
2020/01/31 20:16:00.6	5.310	0.220	-0.410	0.190
2020/01/31 20:16:00.7	5.310	0.180	-0.410	0.150
2020/01/31 20:16:00.8	5.320	0.130	-0.420	0.110
2020/01/31 20:16:00.9	5.320	0.080	-0.420	0.070
2020/01/31 20:16:01.0	5.330	0.040	-0.420	0.030
2020/01/31 20:16:01.1	5.340	-0.010	-0.420	-0.010
2020/01/31 20:16:01.2	5.340	-0.060	-0.420	-0.050
2020/01/31 20:16:01.3	5.350	-0.110	-0.420	-0.090
2020/01/31 20:16:01.4	5.350	-0.150	-0.420	-0.130
2020/01/31 20:16:01.5	5.360	-0.200	-0.420	-0.160
2020/01/31 20:16:01.6	5.360	-0.240	-0.410	-0.200
2020/01/31 20:16:01.7	5.370	-0.290	-0.410	-0.230
2020/01/31 20:16:01.8	5.380	-0.330	-0.400	-0.260
2020/01/31 20:16:01.9	5.380	-0.370	-0.400	-0.290
2020/01/31 20:16:02.0	5.390	-0.400	-0.390	-0.330
2020/01/31 20:16:02.1	5.400	-0.440	-0.390	-0.360
2020/01/31 20:16:02.2	5.410	-0.470	-0.380	-0.380
2020/01/31 20:16:02.3	5.420	-0.500	-0.370	-0.410
2020/01/31 20:16:02.4	5.440	-0.520	-0.360	-0.440
2020/01/31 20:16:02.5	5.450	-0.540	-0.360	-0.470
2020/01/31 20:16:02.6	5.470	-0.560	-0.350	-0.500
2020/01/31 20:16:02.7	5.480	-0.580	-0.350	-0.530
2020/01/31 20:16:02.8	5.500	-0.590	-0.340	-0.560
2020/01/31 20:16:02.9	5.520	-0.600	-0.340	-0.590
2020/01/31 20:16:03.0	5.540	-0.610	-0.340	-0.620
2020/01/31 20:16:03.1	5.560	-0.610	-0.330	-0.640
2020/01/31 20:16:03.2	5.590	-0.610	-0.330	-0.670
2020/01/31 20:16:03.3	5.610	-0.600	-0.330	-0.700
2020/01/31 20:16:03.4	5.630	-0.590	-0.330	-0.720
2020/01/31 20:16:03.5	5.650	-0.580	-0.330	-0.750
2020/01/31 20:16:03.6	5.680	-0.570	-0.330	-0.770
2020/01/31 20:16:03.7	5.700	-0.550	-0.330	-0.790
2020/01/31 20:16:03.8	5.720	-0.530	-0.330	-0.810
2020/01/31 20:16:03.9	5.740	-0.500	-0.330	-0.820
2020/01/31 20:16:04.0	5.760	-0.470	-0.330	-0.830
2020/01/31 20:16:04.1	5.770	-0.450	-0.330	-0.840
2020/01/31 20:16:04.2	5.790	-0.410	-0.330	-0.830
2020/01/31 20:16:04.3	5.800	-0.380	-0.320	-0.830
2020/01/31 20:16:04.4	5.800	-0.340	-0.320	-0.820
2020/01/31 20:16:04.5	5.810	-0.310	-0.310	-0.800
2020/01/31 20:16:04.6	5.810	-0.270	-0.300	-0.780
2020/01/31 20:16:04.7	5.810	-0.230	-0.290	-0.750
2020/01/31 20:16:04.8	5.800	-0.190	-0.280	-0.720
2020/01/31 20:16:04.9	5.790	-0.150	-0.260	-0.680
2020/01/31 20:16:05.0	5.780	-0.110	-0.250	-0.640
2020/01/31 20:16:05.1	5.770	-0.070	-0.230	-0.590
2020/01/31 20:16:05.2	5.760	-0.030	-0.210	-0.540
2020/01/31 20:16:05.3	5.740	0.020	-0.190	-0.490
2020/01/31 20:16:05.4	5.720	0.050	-0.180	-0.440
2020/01/31 20:16:05.5	5.710	0.090	-0.160	-0.380
2020/01/31 20:16:05.6	5.690	0.130	-0.140	-0.330
2020/01/31 20:16:05.7	5.670	0.170	-0.120	-0.270
2020/01/31 20:16:05.8	5.650	0.200	-0.100	-0.220
2020/01/31 20:16:05.9	5.630	0.240	-0.080	-0.160
2020/01/31 20:16:06.0	5.610	0.270	-0.070	-0.110
2020/01/31 20:16:06.1	5.590	0.300	-0.050	-0.050
2020/01/31 20:16:06.2	5.570	0.330	-0.040	-0.000
2020/01/31 20:16:06.3	5.560	0.350	-0.030	0.040
2020/01/31 20:16:06.4	5.540	0.380	-0.030	0.090
2020/01/31 20:16:06.5	5.530	0.400	-0.020	0.130
2020/01/31 20:16:06.6	5.520	0.420	-0.020	0.170
2020/01/31 20:16:06.7	5.510	0.440	-0.020	0.200
2020/01/31 20:16:06.8	5.500	0.460	-0.030	0.230
2020/01/31 20:16:06.9	5.490	0.470	-0.030	0.260
2020/01/31 20:16:07.0	5.490	0.480	-0.040	0.280
2020/01/31 20:16:07.1	5.480	0.490	-0.050	0.300
2020/01/31 20:16:07.2	5.480	0.490	-0.060	0.320
2020/01/31 20:16:07.3	5.480	0.500	-0.080	0.330
2020/01/31 20:16:07.4	5.490	0.500	-0.090	0.330
2020/01/31 20:16:07.5	5.490	0.500	-0.110	0.340
2020/01/31 20:16:07.6	5.490	0.490	-0.130	0.340
2020/01/31 20:16:07.7	5.490	0.490	-0.150	0.340
2020/01/31 20:16:07.8	5.490	0.480	-0.160	0.330
2020/01/31 20:16:07.9	5.490	0.460	-0.180	0.320
2020/01/31 20:16:08.0	5.490	0.450	-0.200	0.320
2020/01/31 20:16:08.1	5.500	0.430	-0.210	0.300
2020/01/31 20:16:08.2	5.500	0.410	-0.220	0.290
2020/01/31 20:16:08.3	5.500	0.380	-0.230	0.280
2020/01/31 20:16:08.4	5.500	0.350	-0.240	0.260
2020/01/31 20:16:08.5	5.500	0.330	-0.250	0.240
2020/01/31 20:16:08.6	5.490	0.290	-0.250	0.220
2020/01/31 20:16:08.7	5.490	0.260	-0.260	0.190
2020/01/31 20:16:08.8	5.490	0.220	-0.260	0.170
2020/01/31 20:16:08.9	5.480	0.180	-0.250	0.140
2020/01/31 20:16:09.0	5.480	0.140	-0.250	0.110
2020/01/31 20:16:09.1	5.480	0.100	-0.250	0.070
2020/01/31 20:16:09.2	5.480	0.060	-0.240	0.040
2020/01/31 20:16:09.3	5.480	0.020	-0.240	0.000
2020/01/31 20:16:09.4	5.480	-0.030	-0.230	-0.030
2020/01/31 20:16:09.5	5.480	-0.070	-0.220	-0.070
2020/01/31 20:16:09.6	5.480	-0.120	-0.220	-0.110
2020/01/31 20:16:09.7	5.480	-0.160	-0.210	-0.150
2020/01/31 20:16:09.8	5.480	-0.200	-0.200	-0.180
2020/01/31 20:16:09.9	5.490	-0.240	-0.200	-0.230
2020/01/31 20:16:10.0	5.500	-0.280	-0.200	-0.260
2020/01/31 20:16:10.1	5.500	-0.320	-0.190	-0.290
2020/01/31 20:16:10.2	5.500	-0.350	-0.190	-0.330
2020/01/31 20:16:10.3	5.500	-0.380	-0.190	-0.360
2020/01/31 20:16:10.4	5.500	-0.410	-0.200	-0.390
2020/01/31 20:16:10.5	5.510	-0.440	-0.200	-0.410
2020/01/31 20:16:10.6	5.510	-0.460	-0.210	-0.440
2020/01/31 20:16:10.7	5.510	-0.470	-0.220	-0.460
2020/01/31 20:16:10.8	5.520	-0.480	-0.230	-0.490
2020/01/31 20:16:10.9	5.520	-0.490	-0.240	-0.500
2020/01/31 20:16:11.0	5.520	-0.490	-0.260	-0.520
2020/01/31 20:16:11.1	5.530	-0.490	-0.270	-0.530
2020/01/31 20:16:11.2	5.530	-0.480	-0.290	-0.540
2020/01/31 20:16:11.3	5.540	-0.470	-0.310	-0.550
2020/01/31 20:16:11.4	5.540	-0.450	-0.330	-0.560
2020/01/31 20:16:11.5	5.550	-0.430	-0.350	-0.570
2020/01/31 20:16:11.6	5.550	-0.400	-0.360	-0.570
2020/01/31 20:16:11.7	5.550	-0.370	-0.380	-0.570
2020/01/31 20:16:11.8	5.560	-0.340	-0.400	-0.570
2020/01/31 20:16:11.9	5.560	-0.300	-0.420	-0.570
2020/01/31 20:16:12.0	5.560	-0.260	-0.430	-0.560
2020/01/31 20:16:12.1	5.560	-0.210	-0.440	-0.550
2020/01/31 20:16:12.2	5.560	-0.170	-0.450	-0.540
2020/01/31 20:16:12.3	5.560	-0.120	-0.460	-0.520
2020/01/31 20:16:12.4	5.560	-0.080	-0.460	-0.500
2020/01/31 20:16:12.5	5.560	-0.030	-0.460	-0.480
2020/01/31 20:16:12.6	5.560	0.020	-0.460	-0.450
2020/01/31 20:16:12.7	5.550	0.070	-0.460	-0.420
2020/01/31 20:16:12.8	5.550	0.120	-0.450	-0.390
2020/01/31 20:16:12.9	5.530	0.160	-0.440	-0.360
2020/01/31 20:16:13.0	5.530	0.210	-0.430	-0.320
2020/01/31 20:16:13.1	5.520	0.250	-0.410	-0.290
2020/01/31 20:16:13.2	5.520	0.290	-0.390	-0.250
2020/01/31 20:16:13.3	5.510	0.330	-0.370	-0.220
2020/01/31 20:16:13.4	5.500	0.370	-0.350	-0.180
2020/01/31 20:16:13.5	5.490	0.400	-0.330	-0.140
2020/01/31 20:16:13.6	5.490	0.420	-0.300	-0.100
2020/01/31 20:16:13.7	5.480	0.450	-0.280	-0.060
2020/01/31 20:16:13.8	5.470	0.470	-0.250	-0.030
2020/01/31 20:16:13.9	5.470	0.480	-0.220	0.010
2020/01/31 20:16:14.0	5.460	0.500	-0.200	0.050
2020/01/31 20:16:14.1	5.460	0.500	-0.170	0.080
2020/01/31 20:16:14.2	5.450	0.500	-0.150	0.120
2020/01/31 20:16:14.3	5.440	0.500	-0.120	0.150
2020/01/31 20:16:14.4	5.440	0.490	-0.100	0.170
2020/01/31 20:16:14.5	5.430	0.480	-0.080	0.200
2020/01/31 20:16:14.6	5.420	0.470	-0.060	0.220
2020/01/31 20:16:14.7	5.420	0.450	-0.040	0.240
2020/01/31 20:16:14.8	5.410	0.430	-0.020	0.260
2020/01/31 20:16:14.9	5.400	0.400	-0.010	0.270
2020/01/31 20:16:15.0	5.400	0.370	0.010	0.280
2020/01/31 20:16:15.1	5.390	0.340	0.020	0.280
2020/01/31 20:16:15.2	5.390	0.310	0.030	0.280
2020/01/31 20:16:15.3	5.390	0.270	0.040	0.280
2020/01/31 20:16:15.4	5.380	0.230	0.040	0.280
2020/01/31 20:16:15.5	5.380	0.200	0.050	0.270
2020/01/31 20:16:15.6	5.380	0.160	0.050	0.250
2020/01/31 20:16:15.7	5.370	0.120	0.040	0.240
2020/01/31 20:16:15.8	5.370	0.080	0.040	0.220
2020/01/31 20:16:15.9	5.360	0.040	0.040	0.200
2020/01/31 20:16:16.0	5.360	0.010	0.030	0.180
2020/01/31 20:16:16.1	5.350	-0.030	0.020	0.160
2020/01/31 20:16:16.2	5.350	-0.070	0.010	0.140
2020/01/31 20:16:16.3	5.340	-0.100	-0.010	0.110
2020/01/31 20:16:16.4	5.340	-0.130	-0.020	0.090
2020/01/31 20:16:16.5	5.330	-0.160	-0.040	0.070
2020/01/31 20:16:16.6	5.330	-0.180	-0.070	0.040
2020/01/31 20:16:16.7	5.320	-0.210	-0.090	0.010
2020/01/31 20:16:16.8	5.320	-0.230	-0.120	-0.010
2020/01/31 20:16:16.9	5.310	-0.250	-0.150	-0.040
2020/01/31 20:16:17.0	5.310	-0.260	-0.190	-0.070
2020/01/31 20:16:17.1	5.310	-0.270	-0.220	-0.100
2020/01/31 20:16:17.2	5.310	-0.280	-0.260	-0.130
2020/01/31 20:16:17.3	5.310	-0.290	-0.300	-0.160
2020/01/31 20:16:17.4	5.320	-0.290	-0.350	-0.190
2020/01/31 20:16:17.5	5.320	-0.290	-0.390	-0.220
2020/01/31 20:16:17.6	5.330	-0.290	-0.440	-0.250
2020/01/31 20:16:17.7	5.330	-0.290	-0.490	-0.280
2020/01/31 20:16:17.8	5.340	-0.280	-0.530	-0.310
2020/01/31 20:16:17.9	5.370	-0.270	-0.580	-0.350
2020/01/31 20:16:18.0	5.380	-0.260	-0.630	-0.380
2020/01/31 20:16:18.1	5.390	-0.250	-0.680	-0.410
2020/01/31 20:16:18.2	5.410	-0.240	-0.720	-0.440
2020/01/31 20:16:18.3	5.420	-0.230	-0.770	-0.480
2020/01/31 20:16:18.4	5.440	-0.210	-0.810	-0.510
2020/01/31 20:16:18.5	5.450	-0.200	-0.840	-0.540
2020/01/31 20:16:18.6	5.470	-0.190	-0.880	-0.580
2020/01/31 20:16:18.7	5.480	-0.180	-0.900	-0.610
2020/01/31 20:16:18.8	5.500	-0.170	-0.930	-0.640
2020/01/31 20:16:18.9	5.520	-0.160	-0.950	-0.670
2020/01/31 20:16:19.0	5.540	-0.150	-0.970	-0.700
2020/01/31 20:16:19.1	5.550	-0.140	-0.970	-0.720
2020/01/31 20:16:19.2	5.570	-0.140	-0.980	-0.750
2020/01/31 20:16:19.3	5.580	-0.130	-0.970	-0.770
2020/01/31 20:16:19.4	5.600	-0.130	-0.960	-0.790
2020/01/31 20:16:19.5	5.610	-0.130	-0.950	-0.810
2020/01/31 20:16:19.6	5.630	-0.130	-0.920	-0.830
2020/01/31 20:16:19.7	5.650	-0.140	-0.890	-0.840
2020/01/31 20:16:19.8	5.660	-0.140	-0.860	-0.850
2020/01/31 20:16:19.9	5.680	-0.150	-0.820	-0.870
2020/01/31 20:16:20.0	5.700	-0.150	-0.770	-0.870
2020/01/31 20:16:20.1	5.720	-0.160	-0.720	-0.880
2020/01/31 20:16:20.2	5.730	-0.170	-0.660	-0.880
2020/01/31 20:16:20.3	5.750	-0.180	-0.610	-0.870
2020/01/31 20:16:20.4	5.770	-0.190	-0.540	-0.870
2020/01/31 20:16:20.5	5.790	-0.200	-0.480	-0.860
2020/01/31 20:16:20.6	5.810	-0.210	-0.410	-0.850
2020/01/31 20:16:20.7	5.830	-0.220	-0.340	-0.840
2020/01/31 20:16:20.8	5.850	-0.230	-0.270	-0.830
2020/01/31 20:16:20.9	5.870	-0.240	-0.200	-0.800
2020/01/31 20:16:21.0	5.890	-0.240	-0.130	-0.790
2020/01/31 20:16:21.1	5.910	-0.250	-0.060	-0.770
2020/01/31 20:16:21.2	5.930	-0.250	0.010	-0.740
2020/01/31 20:16:21.3	5.950	-0.260	0.080	-0.720
2020/01/31 20:16:21.4	5.960	-0.260	0.140	-0.690
2020/01/31 20:16:21.5	5.980	-0.260	0.210	-0.670
2020/01/31 20:16:21.6	5.990	-0.250	0.260	-0.640
2020/01/31 20:16:21.7	6.010	-0.250	0.320	-0.600
2020/01/31 20:16:21.8	6.020	-0.240	0.360	-0.570
2020/01/31 20:16:21.9	6.020	-0.230	0.410	-0.530
2020/01/31 20:16:22.0	6.030	-0.210	0.450	-0.490
2020/01/31 20:16:22.1	6.030	-0.200	0.480	-0.450
2020/01/31 20:16:22.2	6.030	-0.180	0.510	-0.400
2020/01/31 20:16:22.3	6.030	-0.150	0.530	-0.350
2020/01/31 20:16:22.4	6.020	-0.130	0.550	-0.290
2020/01/31 20:16:22.5	6.010	-0.100	0.570	-0.240
2020/01/31 20:16:22.6	6.000	-0.080	0.580	-0.180
2020/01/31 20:16:22.7	5.990	-0.050	0.580	-0.120
2020/01/31 20:16:22.8	5.970	-0.020	0.580	-0.050
2020/01/31 20:16:22.9	5.950	0.010	0.570	0.010
2020/01/31 20:16:23.0	5.930	0.040	0.560	0.070
2020/01/31 20:16:23.1	5.900	0.080	0.550	0.140
2020/01/31 20:16:23.2	5.860	0.110	0.540	0.200
2020/01/31 20:16:23.3	5.830	0.140	0.520	0.260
2020/01/31 20:16:23.4	5.790	0.170	0.500	0.320
2020/01/31 20:16:23.5	5.750	0.200	0.470	0.380
2020/01/31 20:16:23.6	5.700	0.230	0.440	0.440
2020/01/31 20:16:23.7	5.660	0.260	0.410	0.490
2020/01/31 20:16:23.8	5.610	0.280	0.380	0.540
2020/01/31 20:16:23.9	5.560	0.310	0.340	0.590
2020/01/31 20:16:24.0	5.510	0.330	0.310	0.630
2020/01/31 20:16:24.1	5.460	0.350	0.270	0.670
2020/01/31 20:16:24.2	5.410	0.370	0.230	0.700
2020/01/31 20:16:24.3	5.360	0.380	0.190	0.730
2020/01/31 20:16:24.4	5.310	0.390	0.150	0.750
2020/01/31 20:16:24.5	5.270	0.400	0.100	0.770
2020/01/31 20:16:24.6	5.220	0.410	0.060	0.780
2020/01/31 20:16:24.7	5.170	0.420	0.010	0.790
2020/01/31 20:16:24.8	5.130	0.420	-0.040	0.800
2020/01/31 20:16:24.9	5.080	0.420	-0.090	0.790
2020/01/31 20:16:25.0	5.040	0.420	-0.140	0.780
2020/01/31 20:16:25.1	5.010	0.410	-0.180	0.770
2020/01/31 20:16:25.2	4.970	0.410	-0.240	0.760
2020/01/31 20:16:25.3	4.940	0.400	-0.280	0.740
2020/01/31 20:16:25.4	4.910	0.390	-0.330	0.710
2020/01/31 20:16:25.5	4.890	0.380	-0.380	0.680
2020/01/31 20:16:25.6	4.870	0.370	-0.430	0.650
2020/01/31 20:16:25.7	4.850	0.350	-0.480	0.610
2020/01/31 20:16:25.8	4.840	0.340	-0.530	0.570
2020/01/31 20:16:25.9	4.830	0.320	-0.580	0.520
2020/01/31 20:16:26.0	4.830	0.300	-0.630	0.470
2020/01/31 20:16:26.1	4.830	0.290	-0.680	0.420
2020/01/31 20:16:26.2	4.830	0.270	-0.730	0.360
2020/01/31 20:16:26.3	4.840	0.250	-0.770	0.300
2020/01/31 20:16:26.4	4.860	0.240	-0.820	0.240
2020/01/31 20:16:26.5	4.870	0.220	-0.860	0.170
2020/01/31 20:16:26.6	4.890	0.210	-0.900	0.100
2020/01/31 20:16:26.7	4.920	0.190	-0.940	0.030
2020/01/31 20:16:26.8	4.950	0.180	-0.980	-0.040
2020/01/31 20:16:26.9	4.990	0.160	-1.010	-0.110
2020/01/31 20:16:27.0	5.030	0.150	-1.040	-0.190
2020/01/31 20:16:27.1	5.060	0.140	-1.060	-0.260
2020/01/31 20:16:27.2	5.100	0.130	-1.080	-0.330
2020/01/31 20:16:27.3	5.140	0.120	-1.100	-0.410
2020/01/31 20:16:27.4	5.190	0.110	-1.120	-0.480
2020/01/31 20:16:27.5	5.230	0.100	-1.120	-0.550
2020/01/31 20:16:27.6	5.270	0.090	-1.130	-0.620
2020/01/31 20:16:27.7	5.310	0.080	-1.130	-0.690
2020/01/31 20:16:27.8	5.360	0.070	-1.120	-0.750
2020/01/31 20:16:27.9	5.400	0.060	-1.110	-0.820
2020/01/31 20:16:28.0	5.450	0.050	-1.100	-0.880
2020/01/31 20:16:28.1	5.490	0.050	-1.080	-0.930
2020/01/31 20:16:28.2	5.530	0.040	-1.050	-0.980
2020/01/31 20:16:28.3	5.560	0.030	-1.020	-1.030
2020/01/31 20:16:28.4	5.600	0.030	-0.980	-1.080
2020/01/31 20:16:28.5	5.630	0.020	-0.940	-1.120
2020/01/31 20:16:28.6	5.670	0.010	-0.900	-1.150
2020/01/31 20:16:28.7	5.700	0.000	-0.860	-1.180
2020/01/31 20:16:28.8	5.730	-0.010	-0.810	-1.200
2020/01/31 20:16:28.9	5.750	-0.020	-0.750	-1.220
2020/01/31 20:16:29.0	5.780	-0.030	-0.690	-1.230
2020/01/31 20:16:29.1	5.800	-0.040	-0.640	-1.240
2020/01/31 20:16:29.2	5.820	-0.050	-0.580	-1.240
2020/01/31 20:16:29.3	5.840	-0.060	-0.520	-1.240
2020/01/31 20:16:29.4	5.860	-0.070	-0.470	-1.230
2020/01/31 20:16:29.5	5.870	-0.090	-0.410	-1.220
2020/01/31 20:16:29.6	5.890	-0.100	-0.350	-1.210
2020/01/31 20:16:29.7	5.900	-0.120	-0.300	-1.190
2020/01/31 20:16:29.8	5.910	-0.130	-0.240	-1.180
2020/01/31 20:16:29.9	5.920	-0.150	-0.200	-1.150
2020/01/31 20:16:30.0	5.930	-0.160	-0.150	-1.130
2020/01/31 20:16:30.1	5.940	-0.180	-0.100	-1.110
2020/01/31 20:16:30.2	5.950	-0.200	-0.060	-1.090
2020/01/31 20:16:30.3	5.960	-0.210	-0.020	-1.070
2020/01/31 20:16:30.4	5.970	-0.230	0.020	-1.050
2020/01/31 20:16:30.5	5.980	-0.250	0.050	-1.020
2020/01/31 20:16:30.6	5.980	-0.260	0.080	-1.000
2020/01/31 20:16:30.7	5.990	-0.280	0.100	-0.980
2020/01/31 20:16:30.8	5.990	-0.290	0.120	-0.950
2020/01/31 20:16:30.9	5.990	-0.310	0.140	-0.930
2020/01/31 20:16:31.0	5.990	-0.320	0.160	-0.910
2020/01/31 20:16:31.1	5.990	-0.330	0.170	-0.890
2020/01/31 20:16:31.2	5.990	-0.340	0.180	-0.860
2020/01/31 20:16:31.3	5.980	-0.350	0.180	-0.830
2020/01/31 20:16:31.4	5.980	-0.360	0.180	-0.810
2020/01/31 20:16:31.5	5.970	-0.370	0.180	-0.780
2020/01/31 20:16:31.6	5.960	-0.370	0.180	-0.740
2020/01/31 20:16:31.7	5.950	-0.370	0.180	-0.710
2020/01/31 20:16:31.8	5.940	-0.370	0.170	-0.670
2020/01/31 20:16:31.9	5.930	-0.370	0.170	-0.620
2020/01/31 20:16:32.0	5.910	-0.370	0.170	-0.580
2020/01/31 20:16:32.1	5.890	-0.360	0.160	-0.530
2020/01/31 20:16:32.2	5.870	-0.350	0.160	-0.490
2020/01/31 20:16:32.3	5.840	-0.340	0.160	-0.440
2020/01/31 20:16:32.4	5.820	-0.330	0.160	-0.380
2020/01/31 20:16:32.5	5.790	-0.320	0.160	-0.330
2020/01/31 20:16:32.6	5.770	-0.310	0.170	-0.270
2020/01/31 20:16:32.7	5.740	-0.300	0.170	-0.220
2020/01/31 20:16:32.8	5.710	-0.280	0.170	-0.160
2020/01/31 20:16:32.9	5.670	-0.270	0.180	-0.100
2020/01/31 20:16:33.0	5.650	-0.250	0.190	-0.050
2020/01/31 20:16:33.1	5.620	-0.240	0.190	0.010
2020/01/31 20:16:33.2	5.600	-0.220	0.200	0.060
2020/01/31 20:16:33.3	5.570	-0.200	0.210	0.110
2020/01/31 20:16:33.4	5.550	-0.180	0.220	0.160
2020/01/31 20:16:33.5	5.530	-0.170	0.230	0.200
2020/01/31 20:16:33.6	5.510	-0.150	0.230	0.250
2020/01/31 20:16:33.7	5.490	-0.130	0.240	0.290
2020/01/31 20:16:33.8	5.470	-0.110	0.250	0.330
2020/01/31 20:16:33.9	5.460	-0.100	0.250	0.360
2020/01/31 20:16:34.0	5.450	-0.080	0.250	0.390
2020/01/31 20:16:34.1	5.430	-0.060	0.250	0.420
2020/01/31 20:16:34.2	5.420	-0.050	0.250	0.450
2020/01/31 20:16:34.3	5.410	-0.030	0.250	0.470
2020/01/31 20:16:34.4	5.400	-0.010	0.250	0.490
2020/01/31 20:16:34.5	5.400	0.000	0.240	0.500
2020/01/31 20:16:34.6	5.390	0.020	0.240	0.520
2020/01/31 20:16:34.7	5.380	0.030	0.230	0.530
2020/01/31 20:16:34.8	5.380	0.050	0.220	0.540
2020/01/31 20:16:34.9	5.370	0.060	0.210	0.560
2020/01/31 20:16:35.0	5.370	0.080	0.190	0.560
2020/01/31 20:16:35.1	5.360	0.090	0.180	0.570
2020/01/31 20:16:35.2	5.350	0.100	0.160	0.580
2020/01/31 20:16:35.3	5.350	0.110	0.140	0.580
2020/01/31 20:16:35.4	5.340	0.120	0.120	0.590
2020/01/31 20:16:35.5	5.330	0.130	0.090	0.590
2020/01/31 20:16:35.6	5.330	0.140	0.070	0.590
2020/01/31 20:16:35.7	5.320	0.150	0.040	0.590
2020/01/31 20:16:35.8	5.310	0.160	0.010	0.590
2020/01/31 20:16:35.9	5.320	0.170	-0.030	0.580
2020/01/31 20:16:36.0	5.310	0.170	-0.060	0.570
2020/01/31 20:16:36.1	5.300	0.180	-0.100	0.560
2020/01/31 20:16:36.2	5.290	0.180	-0.130	0.550
2020/01/31 20:16:36.3	5.290	0.190	-0.170	0.530
2020/01/31 20:16:36.4	5.280	0.190	-0.220	0.510
2020/01/31 20:16:36.5	5.270	0.190	-0.260	0.490
2020/01/31 20:16:36.6	5.270	0.190	-0.300	0.460
2020/01/31 20:16:36.7	5.260	0.190	-0.350	0.430
2020/01/31 20:16:36.8	5.260	0.190	-0.400	0.400
2020/01/31 20:16:36.9	5.250	0.190	-0.450	0.360
2020/01/31 20:16:37.0	5.240	0.190	-0.500	0.330
2020/01/31 20:16:37.1	5.240	0.190	-0.550	0.290
2020/01/31 20:16:37.2	5.230	0.190	-0.600	0.240
2020/01/31 20:16:37.3	5.230	0.190	-0.650	0.200
2020/01/31 20:16:37.4	5.220	0.190	-0.700	0.150
2020/01/31 20:16:37.5	5.220	0.190	-0.750	0.100
2020/01/31 20:16:37.6	5.210	0.180	-0.790	0.060
2020/01/31 20:16:37.7	5.210	0.180	-0.830	0.010
2020/01/31 20:16:37.8	5.200	0.180	-0.870	-0.040
2020/01/31 20:16:37.9	5.200	0.170	-0.910	-0.100
2020/01/31 20:16:38.0	5.200	0.170	-0.950	-0.150
2020/01/31 20:16:38.1	5.200	0.160	-0.980	-0.190
2020/01/31 20:16:38.2	5.200	0.160	-1.000	-0.240
2020/01/31 20:16:38.3	5.200	0.150	-1.020	-0.290
2020/01/31 20:16:38.4	5.200	0.150	-1.040	-0.340
2020/01/31 20:16:38.5	5.200	0.140	-1.050	-0.390
2020/01/31 20:16:38.6	5.210	0.140	-1.060	-0.430
2020/01/31 20:16:38.7	5.220	0.130	-1.070	-0.480
2020/01/31 20:16:38.8	5.230	0.130	-1.070	-0.530
2020/01/31 20:16:38.9	5.240	0.120	-1.060	-0.570
2020/01/31 20:16:39.0	5.260	0.120	-1.050	-0.620
2020/01/31 20:16:39.1	5.280	0.110	-1.040	-0.660
2020/01/31 20:16:39.2	5.300	0.110	-1.030	-0.710
2020/01/31 20:16:39.3	5.330	0.110	-1.020	-0.760
2020/01/31 20:16:39.4	5.370	0.110	-1.000	-0.800
2020/01/31 20:16:39.5	5.400	0.110	-0.980	-0.840
2020/01/31 20:16:39.6	5.440	0.110	-0.960	-0.890
2020/01/31 20:16:39.7	5.480	0.110	-0.940	-0.930
2020/01/31 20:16:39.8	5.530	0.120	-0.920	-0.960
2020/01/31 20:16:39.9	5.580	0.130	-0.900	-1.000
2020/01/31 20:16:40.0	5.640	0.130	-0.870	-1.030
2020/01/31 20:16:40.1	5.690	0.140	-0.840	-1.060
2020/01/31 20:16:40.2	5.740	0.150	-0.810	-1.090
2020/01/31 20:16:40.3	5.800	0.160	-0.780	-1.110
2020/01/31 20:16:40.4	5.850	0.170	-0.750	-1.120
2020/01/31 20:16:40.5	5.910	0.190	-0.710	-1.130
2020/01/31 20:16:40.6	5.960	0.200	-0.670	-1.140
2020/01/31 20:16:40.7	6.010	0.210	-0.630	-1.140
2020/01/31 20:16:40.8	6.060	0.220	-0.590	-1.130
2020/01/31 20:16:40.9	6.110	0.220	-0.540	-1.120
2020/01/31 20:16:41.0	6.150	0.230	-0.490	-1.100
2020/01/31 20:16:41.1	6.190	0.230	-0.430	-1.080
2020/01/31 20:16:41.2	6.220	0.240	-0.380	-1.050
2020/01/31 20:16:41.3	6.250	0.230	-0.310	-1.010
2020/01/31 20:16:41.4	6.280	0.230	-0.250	-0.970
2020/01/31 20:16:41.5	6.300	0.220	-0.180	-0.930
2020/01/31 20:16:41.6	6.310	0.210	-0.120	-0.880
2020/01/31 20:16:41.7	6.320	0.190	-0.050	-0.830
2020/01/31 20:16:41.8	6.320	0.170	0.030	-0.770
2020/01/31 20:16:41.9	6.310	0.150	0.090	-0.710
2020/01/31 20:16:42.0	6.300	0.120	0.170	-0.650
2020/01/31 20:16:42.1	6.290	0.090	0.240	-0.600
2020/01/31 20:16:42.2	6.270	0.050	0.300	-0.540
2020/01/31 20:16:42.3	6.250	0.010	0.370	-0.480
2020/01/31 20:16:42.4	6.220	-0.030	0.430	-0.430
2020/01/31 20:16:42.5	6.190	-0.080	0.490	-0.370
2020/01/31 20:16:42.6	6.160	-0.130	0.540	-0.320
2020/01/31 20:16:42.7	6.130	-0.180	0.590	-0.270
2020/01/31 20:16:42.8	6.090	-0.230	0.630	-0.220
2020/01/31 20:16:42.9	6.050	-0.280	0.670	-0.180
2020/01/31 20:16:43.0	6.010	-0.330	0.700	-0.140
2020/01/31 20:16:43.1	5.970	-0.390	0.720	-0.100
2020/01/31 20:16:43.2	5.930	-0.440	0.730	-0.070
2020/01/31 20:16:43.3	5.890	-0.490	0.740	-0.040
2020/01/31 20:16:43.4	5.850	-0.540	0.740	-0.010
2020/01/31 20:16:43.5	5.810	-0.580	0.730	0.010
2020/01/31 20:16:43.6	5.770	-0.630	0.710	0.030
2020/01/31 20:16:43.7	5.740	-0.670	0.690	0.040
2020/01/31 20:16:43.8	5.710	-0.700	0.650	0.040
2020/01/31 20:16:43.9	5.660	-0.730	0.610	0.040
2020/01/31 20:16:44.0	5.630	-0.750	0.560	0.040
2020/01/31 20:16:44.1	5.610	-0.770	0.500	0.030
2020/01/31 20:16:44.2	5.600	-0.780	0.440	0.010
2020/01/31 20:16:44.3	5.580	-0.790	0.370	-0.020
2020/01/31 20:16:44.4	5.570	-0.780	0.290	-0.040
2020/01/31 20:16:44.5	5.570	-0.770	0.210	-0.080
2020/01/31 20:16:44.6	5.560	-0.760	0.120	-0.110
2020/01/31 20:16:44.7	5.560	-0.730	0.030	-0.150
2020/01/31 20:16:44.8	5.570	-0.700	-0.070	-0.190
2020/01/31 20:16:44.9	5.560	-0.660	-0.160	-0.240
2020/01/31 20:16:45.0	5.570	-0.610	-0.260	-0.280
2020/01/31 20:16:45.1	5.580	-0.560	-0.350	-0.320
2020/01/31 20:16:45.2	5.590	-0.500	-0.440	-0.360
2020/01/31 20:16:45.3	5.610	-0.430	-0.530	-0.400
2020/01/31 20:16:45.4	5.620	-0.360	-0.620	-0.430
2020/01/31 20:16:45.5	5.640	-0.290	-0.700	-0.460
2020/01/31 20:16:45.6	5.660	-0.210	-0.770	-0.480
2020/01/31 20:16:45.7	5.670	-0.130	-0.840	-0.500
2020/01/31 20:16:45.8	5.690	-0.040	-0.900	-0.520
2020/01/31 20:16:45.9	5.710	0.050	-0.950	-0.520
2020/01/31 20:16:46.0	5.720	0.130	-0.990	-0.520
2020/01/31 20:16:46.1	5.740	0.220	-1.020	-0.520
2020/01/31 20:16:46.2	5.750	0.300	-1.040	-0.510
2020/01/31 20:16:46.3	5.760	0.390	-1.060	-0.490
2020/01/31 20:16:46.4	5.760	0.470	-1.060	-0.470
2020/01/31 20:16:46.5	5.770	0.540	-1.050	-0.450
2020/01/31 20:16:46.6	5.770	0.610	-1.040	-0.420
2020/01/31 20:16:46.7	5.770	0.680	-1.010	-0.380
2020/01/31 20:16:46.8	5.770	0.740	-0.980	-0.350
2020/01/31 20:16:46.9	5.790	0.790	-0.940	-0.310
2020/01/31 20:16:47.0	5.790	0.840	-0.890	-0.270
2020/01/31 20:16:47.1	5.780	0.880	-0.840	-0.220
2020/01/31 20:16:47.2	5.770	0.910	-0.770	-0.180
2020/01/31 20:16:47.3	5.760	0.930	-0.710	-0.140
2020/01/31 20:16:47.4	5.750	0.950	-0.630	-0.090
2020/01/31 20:16:47.5	5.730	0.950	-0.560	-0.050
2020/01/31 20:16:47.6	5.720	0.950	-0.480	-0.000
2020/01/31 20:16:47.7	5.700	0.940	-0.400	0.050
2020/01/31 20:16:47.8	5.680	0.930	-0.320	0.090
2020/01/31 20:16:47.9	5.660	0.900	-0.240	0.140
2020/01/31 20:16:48.0	5.640	0.870	-0.160	0.180
2020/01/31 20:16:48.1	5.620	0.830	-0.090	0.230
2020/01/31 20:16:48.2	5.600	0.780	-0.010	0.270
2020/01/31 20:16:48.3	5.580	0.730	0.060	0.300
2020/01/31 20:16:48.4	5.560	0.680	0.130	0.340
2020/01/31 20:16:48.5	5.540	0.610	0.200	0.370
2020/01/31 20:16:48.6	5.520	0.550	0.260	0.390
2020/01/31 20:16:48.7	5.500	0.480	0.310	0.420
2020/01/31 20:16:48.8	5.490	0.410	0.360	0.430
2020/01/31 20:16:48.9	5.480	0.330	0.400	0.440
2020/01/31 20:16:49.0	5.460	0.260	0.440	0.450
2020/01/31 20:16:49.1	5.450	0.190	0.460	0.440
2020/01/31 20:16:49.2	5.450	0.110	0.480	0.440
2020/01/31 20:16:49.3	5.440	0.040	0.500	0.420
2020/01/31 20:16:49.4	5.440	-0.040	0.510	0.400
2020/01/31 20:16:49.5	5.430	-0.110	0.510	0.370
2020/01/31 20:16:49.6	5.430	-0.170	0.500	0.340
2020/01/31 20:16:49.7	5.440	-0.240	0.490	0.300
2020/01/31 20:16:49.8	5.440	-0.300	0.480	0.260
2020/01/31 20:16:49.9	5.440	-0.360	0.450	0.220
2020/01/31 20:16:50.0	5.450	-0.410	0.430	0.170
2020/01/31 20:16:50.1	5.460	-0.460	0.390	0.120
2020/01/31 20:16:50.2	5.470	-0.500	0.360	0.060
2020/01/31 20:16:50.3	5.480	-0.540	0.320	0.010
2020/01/31 20:16:50.4	5.500	-0.570	0.270	-0.050
2020/01/31 20:16:50.5	5.510	-0.600	0.230	-0.100
2020/01/31 20:16:50.6	5.530	-0.620	0.180	-0.160
2020/01/31 20:16:50.7	5.550	-0.630	0.120	-0.220
2020/01/31 20:16:50.8	5.570	-0.640	0.070	-0.280
2020/01/31 20:16:50.9	5.580	-0.650	0.020	-0.340
2020/01/31 20:16:51.0	5.600	-0.650	-0.040	-0.400
2020/01/31 20:16:51.1	5.630	-0.650	-0.100	-0.450
2020/01/31 20:16:51.2	5.650	-0.640	-0.160	-0.510
2020/01/31 20:16:51.3	5.680	-0.620	-0.220	-0.560
2020/01/31 20:16:51.4	5.710	-0.610	-0.280	-0.610
2020/01/31 20:16:51.5	5.740	-0.590	-0.340	-0.660
2020/01/31 20:16:51.6	5.770	-0.560	-0.400	-0.710
2020/01/31 20:16:51.7	5.800	-0.540	-0.460	-0.750
2020/01/31 20:16:51.8	5.830	-0.510	-0.520	-0.800
2020/01/31 20:16:51.9	5.860	-0.480	-0.580	-0.840
2020/01/31 20:16:52.0	5.900	-0.450	-0.640	-0.880
2020/01/31 20:16:52.1	5.930	-0.420	-0.700	-0.920
2020/01/31 20:16:52.2	5.960	-0.380	-0.750	-0.950
2020/01/31 20:16:52.3	6.000	-0.350	-0.810	-0.990
2020/01/31 20:16:52.4	6.030	-0.310	-0.860	-1.020
2020/01/31 20:16:52.5	6.070	-0.280	-0.910	-1.050
2020/01/31 20:16:52.6	6.100	-0.240	-0.950	-1.080
2020/01/31 20:16:52.7	6.140	-0.210	-0.990	-1.110
2020/01/31 20:16:52.8	6.170	-0.180	-1.030	-1.140
2020/01/31 20:16:52.9	6.210	-0.150	-1.060	-1.160
2020/01/31 20:16:53.0	6.240	-0.120	-1.090	-1.180
2020/01/31 20:16:53.1	6.270	-0.100	-1.110	-1.200
2020/01/31 20:16:53.2	6.300	-0.070	-1.130	-1.220
2020/01/31 20:16:53.3	6.330	-0.050	-1.140	-1.230
2020/01/31 20:16:53.4	6.360	-0.030	-1.150	-1.240
2020/01/31 20:16:53.5	6.380	-0.020	-1.150	-1.250
2020/01/31 20:16:53.6	6.410	-0.000	-1.150	-1.250
2020/01/31 20:16:53.7	6.430	0.010	-1.130	-1.250
2020/01/31 20:16:53.8	6.440	0.020	-1.120	-1.250
2020/01/31 20:16:53.9	6.470	0.020	-1.090	-1.240
2020/01/31 20:16:54.0	6.480	0.030	-1.060	-1.220
2020/01/31 20:16:54.1	6.490	0.030	-1.020	-1.210
2020/01/31 20:16:54.2	6.490	0.030	-0.980	-1.190
2020/01/31 20:16:54.3	6.500	0.020	-0.930	-1.160
2020/01/31 20:16:54.4	6.490	0.020	-0.870	-1.130
2020/01/31 20:16:54.5	6.490	0.010	-0.810	-1.100
2020/01/31 20:16:54.6	6.480	0.000	-0.740	-1.060
2020/01/31 20:16:54.7	6.470	-0.000	-0.670	-1.020
2020/01/31 20:16:54.8	6.450	-0.010	-0.590	-0.970
2020/01/31 20:16:54.9	6.430	-0.020	-0.520	-0.920
2020/01/31 20:16:55.0	6.410	-0.030	-0.440	-0.870
2020/01/31 20:16:55.1	6.390	-0.050	-0.360	-0.810
2020/01/31 20:16:55.2	6.370	-0.060	-0.290	-0.760
2020/01/31 20:16:55.3	6.340	-0.070	-0.210	-0.700
2020/01/31 20:16:55.4	6.310	-0.070	-0.130	-0.650
2020/01/31 20:16:55.5	6.290	-0.080	-0.060	-0.590
2020/01/31 20:16:55.6	6.260	-0.090	0.010	-0.540
2020/01/31 20:16:55.7	6.240	-0.090	0.070	-0.480
2020/01/31 20:16:55.8	6.210	-0.100	0.130	-0.430
2020/01/31 20:16:55.9	6.190	-0.100	0.180	-0.370
2020/01/31 20:16:56.0	6.170	-0.100	0.230	-0.320
2020/01/31 20:16:56.1	6.140	-0.090	0.270	-0.280
2020/01/31 20:16:56.2	6.120	-0.090	0.310	-0.230
2020/01/31 20:16:56.3	6.100	-0.080	0.340	-0.180
2020/01/31 20:16:56.4	6.080	-0.070	0.370	-0.140
2020/01/31 20:16:56.5	6.060	-0.060	0.380	-0.100
2020/01/31 20:16:56.6	6.040	-0.040	0.400	-0.070
2020/01/31 20:16:56.7	6.020	-0.030	0.400	-0.030
2020/01/31 20:16:56.8	6.000	-0.010	0.410	0.000
2020/01/31 20:16:56.9	5.980	0.010	0.400	0.030
2020/01/31 20:16:57.0	5.970	0.040	0.400	0.060
2020/01/31 20:16:57.1	5.950	0.060	0.380	0.080
2020/01/31 20:16:57.2	5.940	0.090	0.370	0.100
2020/01/31 20:16:57.3	5.920	0.120	0.350	0.120
2020/01/31 20:16:57.4	5.910	0.140	0.330	0.140
2020/01/31 20:16:57.5	5.890	0.170	0.300	0.160
2020/01/31 20:16:57.6	5.880	0.200	0.280	0.170
2020/01/31 20:16:57.7	5.860	0.230	0.250	0.190
2020/01/31 20:16:57.8	5.850	0.270	0.220	0.200
2020/01/31 20:16:57.9	5.830	0.300	0.200	0.220
2020/01/31 20:16:58.0	5.810	0.330	0.170	0.230
2020/01/31 20:16:58.1	5.800	0.360	0.140	0.250
2020/01/31 20:16:58.2	5.780	0.390	0.110	0.270
2020/01/31 20:16:58.3	5.770	0.410	0.090	0.280
2020/01/31 20:16:58.4	5.750	0.440	0.070	0.300
2020/01/31 20:16:58.5	5.740	0.470	0.040	0.320
2020/01/31 20:16:58.6	5.720	0.490	0.020	0.340
2020/01/31 20:16:58.7	5.710	0.510	0.010	0.360
2020/01/31 20:16:58.8	5.690	0.530	-0.010	0.380
2020/01/31 20:16:58.9	5.680	0.550	-0.020	0.400
2020/01/31 20:16:59.0	5.670	0.570	-0.040	0.420
2020/01/31 20:16:59.1	5.660	0.580	-0.050	0.430
2020/01/31 20:16:59.2	5.650	0.590	-0.060	0.450
2020/01/31 20:16:59.3	5.640	0.590	-0.070	0.460
2020/01/31 20:16:59.4	5.630	0.600	-0.080	0.470
2020/01/31 20:16:59.5	5.620	0.600	-0.090	0.470
2020/01/31 20:16:59.6	5.620	0.590	-0.100	0.480
2020/01/31 20:16:59.7	5.610	0.590	-0.110	0.480
2020/01/31 20:16:59.8	5.610	0.580	-0.110	0.470
2020/01/31 20:16:59.9	5.620	0.570	-0.120	0.460
2020/01/31 20:17:00.0	5.620	0.550	-0.130	0.450
2020/01/31 20:17:00.1	5.630	0.530	-0.150	0.430
2020/01/31 20:17:00.2	5.630	0.510	-0.160	0.410
2020/01/31 20:17:00.3	5.640	0.490	-0.180	0.380
2020/01/31 20:17:00.4	5.650	0.460	-0.190	0.350
2020/01/31 20:17:00.5	5.660	0.430	-0.210	0.320
2020/01/31 20:17:00.6	5.670	0.400	-0.230	0.280
2020/01/31 20:17:00.7	5.690	0.370	-0.260	0.250
2020/01/31 20:17:00.8	5.700	0.340	-0.280	0.210
2020/01/31 20:17:00.9	5.720	0.300	-0.310	0.170
2020/01/31 20:17:01.0	5.730	0.260	-0.340	0.130
2020/01/31 20:17:01.1	5.750	0.220	-0.360	0.080
2020/01/31 20:17:01.2	5.760	0.180	-0.390	0.040
2020/01/31 20:17:01.3	5.780	0.140	-0.430	-0.010
2020/01/31 20:17:01.4	5.800	0.100	-0.460	-0.050
2020/01/31 20:17:01.5	5.820	0.060	-0.490	-0.100
2020/01/31 20:17:01.6	5.840	0.020	-0.520	-0.150
2020/01/31 20:17:01.7	5.860	-0.030	-0.560	-0.200
2020/01/31 20:17:01.8	5.890	-0.070	-0.590	-0.250
2020/01/31 20:17:01.9	5.910	-0.110	-0.620	-0.310
2020/01/31 20:17:02.0	5.940	-0.150	-0.660	-0.360
2020/01/31 20:17:02.1	5.960	-0.190	-0.690	-0.420
2020/01/31 20:17:02.2	5.990	-0.230	-0.720	-0.480
2020/01/31 20:17:02.3	6.020	-0.270	-0.750	-0.540
2020/01/31 20:17:02.4	6.050	-0.300	-0.780	-0.590
2020/01/31 20:17:02.5	6.080	-0.340	-0.800	-0.650
2020/01/31 20:17:02.6	6.120	-0.370	-0.820	-0.710
2020/01/31 20:17:02.7	6.150	-0.410	-0.850	-0.770
2020/01/31 20:17:02.8	6.180	-0.430	-0.860	-0.830
2020/01/31 20:17:02.9	6.220	-0.460	-0.880	-0.890
2020/01/31 20:17:03.0	6.250	-0.490	-0.890	-0.950
2020/01/31 20:17:03.1	6.280	-0.510	-0.900	-1.000
2020/01/31 20:17:03.2	6.310	-0.530	-0.900	-1.050
2020/01/31 20:17:03.3	6.340	-0.550	-0.900	-1.100
2020/01/31 20:17:03.4	6.360	-0.560	-0.900	-1.140
2020/01/31 20:17:03.5	6.390	-0.570	-0.890	-1.180
2020/01/31 20:17:03.6	6.410	-0.580	-0.870	-1.210
2020/01/31 20:17:03.7	6.440	-0.590	-0.850	-1.240
2020/01/31 20:17:03.8	6.460	-0.590	-0.820	-1.260
2020/01/31 20:17:03.9	6.480	-0.600	-0.790	-1.270
2020/01/31 20:17:04.0	6.500	-0.590	-0.750	-1.270
2020/01/31 20:17:04.1	6.520	-0.590	-0.710	-1.270
2020/01/31 20:17:04.2	6.530	-0.580	-0.660	-1.260
2020/01/31 20:17:04.3	6.540	-0.570	-0.610	-1.250
2020/01/31 20:17:04.4	6.550	-0.560	-0.550	-1.220
2020/01/31 20:17:04.5	6.560	-0.550	-0.490	-1.190
2020/01/31 20:17:04.6	6.560	-0.540	-0.430	-1.160
2020/01/31 20:17:04.7	6.570	-0.520	-0.360	-1.120
2020/01/31 20:17:04.8	6.570	-0.500	-0.290	-1.080
2020/01/31 20:17:04.9	6.550	-0.480	-0.230	-1.030
2020/01/31 20:17:05.0	6.550	-0.460	-0.160	-0.980
2020/01/31 20:17:05.1	6.550	-0.430	-0.080	-0.920
2020/01/31 20:17:05.2	6.550	-0.410	-0.010	-0.860
2020/01/31 20:17:05.3	6.540	-0.380	0.060	-0.800
2020/01/31 20:17:05.4	6.540	-0.360	0.130	-0.740
2020/01/31 20:17:05.5	6.530	-0.330	0.190	-0.680
2020/01/31 20:17:05.6	6.520	-0.300	0.250	-0.620
2020/01/31 20:17:05.7	6.510	-0.270	0.310	-0.560
2020/01/31 20:17:05.8	6.510	-0.240	0.360	-0.500
2020/01/31 20:17:05.9	6.500	-0.210	0.410	-0.430
2020/01/31 20:17:06.0	6.490	-0.180	0.450	-0.370
2020/01/31 20:17:06.1	6.480	-0.150	0.480	-0.310
2020/01/31 20:17:06.2	6.470	-0.120	0.510	-0.250
2020/01/31 20:17:06.3	6.450	-0.080	0.530	-0.200
2020/01/31 20:17:06.4	6.440	-0.050	0.550	-0.140
2020/01/31 20:17:06.5	6.420	-0.020	0.560	-0.080
2020/01/31 20:17:06.6	6.410	0.010	0.560	-0.030
2020/01/31 20:17:06.7	6.390	0.040	0.560	0.030
2020/01/31 20:17:06.8	6.370	0.070	0.550	0.080
2020/01/31 20:17:06.9	6.340	0.100	0.540	0.140
2020/01/31 20:17:07.0	6.310	0.130	0.520	0.190
2020/01/31 20:17:07.1	6.290	0.160	0.490	0.240
2020/01/31 20:17:07.2	6.260	0.180	0.460	0.300
2020/01/31 20:17:07.3	6.230	0.210	0.430	0.350
2020/01/31 20:17:07.4	6.200	0.230	0.380	0.390
2020/01/31 20:17:07.5	6.170	0.260	0.340	0.430
2020/01/31 20:17:07.6	6.140	0.280	0.290	0.470
2020/01/31 20:17:07.7	6.110	0.300	0.240	0.510
2020/01/31 20:17:07.8	6.080	0.310	0.180	0.540
2020/01/31 20:17:07.9	6.040	0.330	0.120	0.560
2020/01/31 20:17:08.0	6.010	0.340	0.060	0.570
2020/01/31 20:17:08.1	5.990	0.360	-0.000	0.590
2020/01/31 20:17:08.2	5.960	0.370	-0.070	0.590
2020/01/31 20:17:08.3	5.950	0.370	-0.130	0.590
2020/01/31 20:17:08.4	5.930	0.380	-0.200	0.580
2020/01/31 20:17:08.5	5.920	0.390	-0.270	0.560
2020/01/31 20:17:08.6	5.910	0.390	-0.340	0.540
2020/01/31 20:17:08.7	5.910	0.390	-0.410	0.520
2020/01/31 20:17:08.8	5.900	0.390	-0.470	0.490
2020/01/31 20:17:08.9	5.910	0.390	-0.530	0.450
2020/01/31 20:17:09.0	5.910	0.390	-0.600	0.420
2020/01/31 20:17:09.1	5.920	0.390	-0.660	0.380
2020/01/31 20:17:09.2	5.920	0.380	-0.720	0.330
2020/01/31 20:17:09.3	5.930	0.380	-0.770	0.290
2020/01/31 20:17:09.4	5.940	0.370	-0.820	0.240
2020/01/31 20:17:09.5	5.950	0.360	-0.870	0.190
2020/01/31 20:17:09.6	5.970	0.350	-0.910	0.140
2020/01/31 20:17:09.7	5.980	0.340	-0.940	0.090
2020/01/31 20:17:09.8	5.990	0.330	-0.970	0.040
2020/01/31 20:17:09.9	6.010	0.320	-1.000	-0.010
2020/01/31 20:17:10.0	6.030	0.300	-1.010	-0.070
2020/01/31 20:17:10.1	6.040	0.290	-1.020	-0.120
2020/01/31 20:17:10.2	6.060	0.270	-1.030	-0.170
2020/01/31 20:17:10.3	6.080	0.250	-1.020	-0.220
2020/01/31 20:17:10.4	6.090	0.240	-1.010	-0.260
2020/01/31 20:17:10.5	6.110	0.220	-0.990	-0.310
2020/01/31 20:17:10.6	6.120	0.200	-0.970	-0.360
2020/01/31 20:17:10.7	6.140	0.180	-0.940	-0.400
2020/01/31 20:17:10.8	6.150	0.160	-0.910	-0.440
2020/01/31 20:17:10.9	6.170	0.130	-0.870	-0.480
2020/01/31 20:17:11.0	6.190	0.110	-0.820	-0.520
2020/01/31 20:17:11.1	6.200	0.090	-0.770	-0.560
2020/01/31 20:17:11.2	6.210	0.060	-0.720	-0.600
2020/01/31 20:17:11.3	6.220	0.040	-0.670	-0.630
2020/01/31 20:17:11.4	6.230	0.010	-0.620	-0.660
2020/01/31 20:17:11.5	6.240	-0.010	-0.560	-0.690
2020/01/31 20:17:11.6	6.250	-0.030	-0.510	-0.720
2020/01/31 20:17:11.7	6.260	-0.060	-0.450	-0.740
2020/01/31 20:17:11.8	6.270	-0.080	-0.390	-0.770
2020/01/31 20:17:11.9	6.260	-0.110	-0.340	-0.790
2020/01/31 20:17:12.0	6.270	-0.130	-0.290	-0.810
2020/01/31 20:17:12.1	6.280	-0.150	-0.240	-0.830
2020/01/31 20:17:12.2	6.290	-0.170	-0.190	-0.840
2020/01/31 20:17:12.3	6.300	-0.200	-0.150	-0.850
2020/01/31 20:17:12.4	6.300	-0.210	-0.110	-0.860
2020/01/31 20:17:12.5	6.310	-0.230	-0.070	-0.870
2020/01/31 20:17:12.6	6.320	-0.250	-0.040	-0.870
2020/01/31 20:17:12.7	6.330	-0.260	-0.010	-0.870
2020/01/31 20:17:12.8	6.340	-0.280	0.020	-0.870
2020/01/31 20:17:12.9	6.340	-0.290	0.040	-0.870
2020/01/31 20:17:13.0	6.350	-0.290	0.060	-0.870
2020/01/31 20:17:13.1	6.360	-0.300	0.070	-0.860
2020/01/31 20:17:13.2	6.370	-0.310	0.080	-0.850
2020/01/31 20:17:13.3	6.380	-0.310	0.090	-0.840
2020/01/31 20:17:13.4	6.390	-0.310	0.090	-0.820
2020/01/31 20:17:13.5	6.400	-0.310	0.090	-0.800
2020/01/31 20:17:13.6	6.410	-0.300	0.090	-0.780
2020/01/31 20:17:13.7	6.410	-0.300	0.090	-0.760
2020/01/31 20:17:13.8	6.420	-0.290	0.080	-0.740
2020/01/31 20:17:13.9	6.440	-0.280	0.080	-0.710
2020/01/31 20:17:14.0	6.440	-0.270	0.070	-0.680
2020/01/31 20:17:14.1	6.440	-0.250	0.060	-0.650
2020/01/31 20:17:14.2	6.440	-0.240	0.050	-0.610
2020/01/31 20:17:14.3	6.450	-0.220	0.040	-0.580
2020/01/31 20:17:14.4	6.450	-0.200	0.030	-0.540
2020/01/31 20:17:14.5	6.450	-0.180	0.010	-0.490
2020/01/31 20:17:14.6	6.450	-0.150	0.000	-0.450
2020/01/31 20:17:14.7	6.440	-0.130	-0.010	-0.400
2020/01/31 20:17:14.8	6.440	-0.100	-0.020	-0.350
2020/01/31 20:17:14.9	6.430	-0.080	-0.040	-0.300
2020/01/31 20:17:15.0	6.430	-0.050	-0.050	-0.250
2020/01/31 20:17:15.1	6.420	-0.020	-0.060	-0.190
2020/01/31 20:17:15.2	6.420	0.010	-0.060	-0.140
2020/01/31 20:17:15.3	6.420	0.040	-0.070	-0.080
2020/01/31 20:17:15.4	6.410	0.070	-0.080	-0.030
2020/01/31 20:17:15.5	6.400	0.090	-0.080	0.030
2020/01/31 20:17:15.6	6.390	0.120	-0.090	0.090
2020/01/31 20:17:15.7	6.380	0.150	-0.090	0.150
2020/01/31 20:17:15.8	6.370	0.170	-0.090	0.210
2020/01/31 20:17:15.9	6.360	0.200	-0.100	0.270
2020/01/31 20:17:16.0	6.350	0.220	-0.100	0.330
2020/01/31 20:17:16.1	6.330	0.240	-0.100	0.390
2020/01/31 20:17:16.2	6.320	0.260	-0.090	0.440
2020/01/31 20:17:16.3	6.300	0.280	-0.090	0.500
2020/01/31 20:17:16.4	6.280	0.290	-0.090	0.550
2020/01/31 20:17:16.5	6.260	0.310	-0.090	0.600
2020/01/31 20:17:16.6	6.240	0.320	-0.080	0.640
2020/01/31 20:17:16.7	6.220	0.330	-0.080	0.680
2020/01/31 20:17:16.8	6.200	0.330	-0.080	0.720
2020/01/31 20:17:16.9	6.190	0.330	-0.080	0.760
2020/01/31 20:17:17.0	6.170	0.330	-0.080	0.790
2020/01/31 20:17:17.1	6.150	0.330	-0.080	0.810
2020/01/31 20:17:17.2	6.130	0.330	-0.090	0.830
2020/01/31 20:17:17.3	6.110	0.320	-0.090	0.850
2020/01/31 20:17:17.4	6.090	0.310	-0.090	0.860
2020/01/31 20:17:17.5	6.070	0.290	-0.100	0.860
2020/01/31 20:17:17.6	6.050	0.280	-0.110	0.860
2020/01/31 20:17:17.7	6.040	0.260	-0.120	0.860
2020/01/31 20:17:17.8	6.020	0.240	-0.130	0.840
2020/01/31 20:17:17.9	6.000	0.220	-0.150	0.830
2020/01/31 20:17:18.0	5.980	0.200	-0.160	0.810
2020/01/31 20:17:18.1	5.970	0.170	-0.180	0.780
2020/01/31 20:17:18.2	5.950	0.150	-0.200	0.750
2020/01/31 20:17:18.3	5.940	0.120	-0.220	0.720
2020/01/31 20:17:18.4	5.920	0.090	-0.240	0.680
2020/01/31 20:17:18.5	5.910	0.060	-0.260	0.640
2020/01/31 20:17:18.6	5.900	0.030	-0.290	0.590
2020/01/31 20:17:18.7	5.890	0.000	-0.320	0.540
2020/01/31 20:17:18.8	5.880	-0.020	-0.340	0.490
2020/01/31 20:17:18.9	5.880	-0.050	-0.370	0.430
2020/01/31 20:17:19.0	5.870	-0.080	-0.400	0.370
2020/01/31 20:17:19.1	5.870	-0.110	-0.430	0.310
2020/01/31 20:17:19.2	5.860	-0.130	-0.460	0.240
2020/01/31 20:17:19.3	5.860	-0.150	-0.490	0.170
2020/01/31 20:17:19.4	5.860	-0.180	-0.520	0.110
2020/01/31 20:17:19.5	5.870	-0.190	-0.550	0.040
2020/01/31 20:17:19.6	5.870	-0.210	-0.580	-0.030
2020/01/31 20:17:19.7	5.880	-0.230	-0.600	-0.100
2020/01/31 20:17:19.8	5.890	-0.240	-0.630	-0.170
2020/01/31 20:17:19.9	5.900	-0.250	-0.650	-0.250
2020/01/31 20:17:20.0	5.910	-0.250	-0.670	-0.310
2020/01/31 20:17:20.1	5.930	-0.260	-0.690	-0.380
2020/01/31 20:17:20.2	5.950	-0.260	-0.700	-0.450
2020/01/31 20:17:20.3	5.970	-0.260	-0.710	-0.510
2020/01/31 20:17:20.4	5.990	-0.250	-0.720	-0.570
2020/01/31 20:17:20.5	6.010	-0.250	-0.730	-0.630
2020/01/31 20:17:20.6	6.040	-0.240	-0.730	-0.680
2020/01/31 20:17:20.7	6.060	-0.230	-0.720	-0.730
2020/01/31 20:17:20.8	6.080	-0.220	-0.720	-0.780
2020/01/31 20:17:20.9	6.090	-0.210	-0.710	-0.820
2020/01/31 20:17:21.0	6.110	-0.190	-0.690	-0.860
2020/01/31 20:17:21.1	6.140	-0.180	-0.670	-0.890
2020/01/31 20:17:21.2	6.160	-0.160	-0.650	-0.920
2020/01/31 20:17:21.3	6.180	-0.150	-0.630	-0.950
2020/01/31 20:17:21.4	6.190	-0.130	-0.600	-0.970
2020/01/31 20:17:21.5	6.210	-0.120	-0.570	-0.980
2020/01/31 20:17:21.6	6.230	-0.100	-0.530	-0.990
2020/01/31 20:17:21.7	6.250	-0.090	-0.500	-1.000
2020/01/31 20:17:21.8	6.260	-0.070	-0.460	-1.000
2020/01/31 20:17:21.9	6.280	-0.060	-0.420	-1.000
2020/01/31 20:17:22.0	6.290	-0.050	-0.370	-0.990
2020/01/31 20:17:22.1	6.300	-0.040	-0.330	-0.980
2020/01/31 20:17:22.2	6.310	-0.030	-0.290	-0.970
2020/01/31 20:17:22.3	6.320	-0.020	-0.240	-0.950
2020/01/31 20:17:22.4	6.320	-0.010	-0.200	-0.930
2020/01/31 20:17:22.5	6.330	-0.010	-0.150	-0.910
2020/01/31 20:17:22.6	6.330	-0.000	-0.110	-0.880
2020/01/31 20:17:22.7	6.340	0.000	-0.070	-0.850
2020/01/31 20:17:22.8	6.340	0.010	-0.030	-0.820
2020/01/31 20:17:22.9	6.330	0.010	0.010	-0.780
2020/01/31 20:17:23.0	6.340	0.010	0.040	-0.750
2020/01/31 20:17:23.1	6.340	0.010	0.070	-0.710
2020/01/31 20:17:23.2	6.340	0.010	0.090	-0.680
2020/01/31 20:17:23.3	6.350	0.010	0.120	-0.640
2020/01/31 20:17:23.4	6.350	0.010	0.140	-0.600
2020/01/31 20:17:23.5	6.360	0.010	0.150	-0.570
2020/01/31 20:17:23.6	6.360	0.000	0.160	-0.530
2020/01/31 20:17:23.7	6.370	0.000	0.160	-0.490
2020/01/31 20:17:23.8	6.370	0.000	0.160	-0.460
2020/01/31 20:17:23.9	6.370	0.000	0.160	-0.420
2020/01/31 20:17:24.0	6.370	0.010	0.150	-0.390
2020/01/31 20:17:24.1	6.380	0.010	0.130	-0.350
2020/01/31 20:17:24.2	6.380	0.010	0.120	-0.320
2020/01/31 20:17:24.3	6.380	0.020	0.100	-0.280
2020/01/31 20:17:24.4	6.380	0.020	0.070	-0.240
2020/01/31 20:17:24.5	6.380	0.030	0.050	-0.200
2020/01/31 20:17:24.6	6.380	0.040	0.020	-0.170
2020/01/31 20:17:24.7	6.380	0.040	-0.010	-0.130
2020/01/31 20:17:24.8	6.370	0.050	-0.040	-0.090
2020/01/31 20:17:24.9	6.370	0.070	-0.080	-0.050
2020/01/31 20:17:25.0	6.360	0.080	-0.110	-0.010
2020/01/31 20:17:25.1	6.360	0.090	-0.140	0.030
2020/01/31 20:17:25.2	6.350	0.100	-0.180	0.060
2020/01/31 20:17:25.3	6.340	0.120	-0.210	0.100
2020/01/31 20:17:25.4	6.330	0.130	-0.240	0.140
2020/01/31 20:17:25.5	6.320	0.140	-0.270	0.170
2020/01/31 20:17:25.6	6.310	0.160	-0.300	0.210
2020/01/31 20:17:25.7	6.300	0.170	-0.330	0.240
2020/01/31 20:17:25.8	6.290	0.190	-0.350	0.270
2020/01/31 20:17:25.9	6.280	0.200	-0.380	0.300
2020/01/31 20:17:26.0	6.270	0.210	-0.400	0.340
2020/01/31 20:17:26.1	6.250	0.220	-0.420	0.360
2020/01/31 20:17:26.2	6.230	0.230	-0.430	0.390
2020/01/31 20:17:26.3	6.210	0.240	-0.450	0.420
2020/01/31 20:17:26.4	6.200	0.240	-0.460	0.440
2020/01/31 20:17:26.5	6.180	0.250	-0.460	0.460
2020/01/31 20:17:26.6	6.160	0.250	-0.460	0.480
2020/01/31 20:17:26.7	6.140	0.250	-0.460	0.500
2020/01/31 20:17:26.8	6.110	0.250	-0.460	0.510
2020/01/31 20:17:26.9	6.110	0.250	-0.450	0.530
2020/01/31 20:17:27.0	6.090	0.250	-0.440	0.540
2020/01/31 20:17:27.1	6.070	0.240	-0.430	0.540
2020/01/31 20:17:27.2	6.040	0.230	-0.410	0.550
2020/01/31 20:17:27.3	6.030	0.220	-0.400	0.550
2020/01/31 20:17:27.4	6.010	0.210	-0.380	0.540
2020/01/31 20:17:27.5	5.990	0.200	-0.360	0.530
2020/01/31 20:17:27.6	5.980	0.180	-0.340	0.520
2020/01/31 20:17:27.7	5.960	0.170	-0.310	0.510
2020/01/31 20:17:27.8	5.950	0.150	-0.290	0.490
2020/01/31 20:17:27.9	5.950	0.130	-0.270	0.470
2020/01/31 20:17:28.0	5.940	0.110	-0.250	0.440
2020/01/31 20:17:28.1	5.940	0.090	-0.230	0.410
2020/01/31 20:17:28.2	5.930	0.070	-0.210	0.380
2020/01/31 20:17:28.3	5.930	0.050	-0.190	0.350
2020/01/31 20:17:28.4	5.930	0.030	-0.170	0.320
2020/01/31 20:17:28.5	5.930	0.010	-0.150	0.280
2020/01/31 20:17:28.6	5.940	-0.010	-0.140	0.240
2020/01/31 20:17:28.7	5.940	-0.040	-0.120	0.200
2020/01/31 20:17:28.8	5.950	-0.060	-0.110	0.160
2020/01/31 20:17:28.9	5.940	-0.080	-0.090	0.110
2020/01/31 20:17:29.0	5.950	-0.100	-0.080	0.060
2020/01/31 20:17:29.1	5.960	-0.120	-0.070	0.020
2020/01/31 20:17:29.2	5.960	-0.140	-0.060	-0.030
2020/01/31 20:17:29.3	5.970	-0.160	-0.050	-0.070
2020/01/31 20:17:29.4	5.980	-0.180	-0.040	-0.120
2020/01/31 20:17:29.5	5.980	-0.190	-0.040	-0.160
2020/01/31 20:17:29.6	5.990	-0.210	-0.030	-0.200
2020/01/31 20:17:29.7	5.990	-0.220	-0.030	-0.240
2020/01/31 20:17:29.8	6.000	-0.230	-0.020	-0.280
2020/01/31 20:17:29.9	6.020	-0.240	-0.020	-0.320
2020/01/31 20:17:30.0	6.020	-0.250	-0.020	-0.350
2020/01/31 20:17:30.1	6.020	-0.260	-0.020	-0.380
2020/01/31 20:17:30.2	6.020	-0.260	-0.020	-0.410
2020/01/31 20:17:30.3	6.020	-0.260	-0.020	-0.430
2020/01/31 20:17:30.4	6.020	-0.260	-0.020	-0.460
2020/01/31 20:17:30.5	6.020	-0.260	-0.020	-0.470
2020/01/31 20:17:30.6	6.020	-0.260	-0.020	-0.490
2020/01/31 20:17:30.7	6.020	-0.250	-0.020	-0.500
2020/01/31 20:17:30.8	6.020	-0.240	-0.030	-0.520
2020/01/31 20:17:30.9	6.010	-0.230	-0.040	-0.520
2020/01/31 20:17:31.0	6.010	-0.220	-0.050	-0.530
2020/01/31 20:17:31.1	6.010	-0.200	-0.060	-0.530
2020/01/31 20:17:31.2	6.010	-0.190	-0.070	-0.530
2020/01/31 20:17:31.3	6.010	-0.170	-0.090	-0.540
2020/01/31 20:17:31.4	6.020	-0.150	-0.100	-0.530
2020/01/31 20:17:31.5	6.020	-0.130	-0.120	-0.530
2020/01/31 20:17:31.6	6.020	-0.110	-0.150	-0.530
2020/01/31 20:17:31.7	6.030	-0.090	-0.170	-0.530
2020/01/31 20:17:31.8	6.030	-0.070	-0.200	-0.530
2020/01/31 20:17:31.9	6.050	-0.050	-0.230	-0.520
2020/01/31 20:17:32.0	6.050	-0.030	-0.260	-0.520
2020/01/31 20:17:32.1	6.060	-0.000	-0.290	-0.520
2020/01/31 20:17:32.2	6.070	0.020	-0.330	-0.520
2020/01/31 20:17:32.3	6.070	0.040	-0.360	-0.510
2020/01/31 20:17:32.4	6.080	0.060	-0.400	-0.510
2020/01/31 20:17:32.5	6.090	0.080	-0.430	-0.510
2020/01/31 20:17:32.6	6.100	0.090	-0.470	-0.510
2020/01/31 20:17:32.7	6.100	0.110	-0.500	-0.510
2020/01/31 20:17:32.8	6.110	0.130	-0.530	-0.510
2020/01/31 20:17:32.9	6.110	0.140	-0.570	-0.500
2020/01/31 20:17:33.0	6.120	0.150	-0.600	-0.500
2020/01/31 20:17:33.1	6.120	0.160	-0.630	-0.500
2020/01/31 20:17:33.2	6.130	0.170	-0.650	-0.500
2020/01/31 20:17:33.3	6.140	0.170	-0.680	-0.500
2020/01/31 20:17:33.4	6.150	0.180	-0.700	-0.500
2020/01/31 20:17:33.5	6.150	0.180	-0.710	-0.510
2020/01/31 20:17:33.6	6.160	0.180	-0.730	-0.510
2020/01/31 20:17:33.7	6.170	0.180	-0.740	-0.510
2020/01/31 20:17:33.8	6.170	0.170	-0.750	-0.510
2020/01/31 20:17:33.9	6.200	0.170	-0.750	-0.510
2020/01/31 20:17:34.0	6.200	0.160	-0.750	-0.510
2020/01/31 20:17:34.1	6.210	0.150	-0.750	-0.520
2020/01/31 20:17:34.2	6.220	0.140	-0.740	-0.520
2020/01/31 20:17:34.3	6.220	0.130	-0.730	-0.520
2020/01/31 20:17:34.4	6.230	0.120	-0.720	-0.520
2020/01/31 20:17:34.5	6.240	0.110	-0.700	-0.510
2020/01/31 20:17:34.6	6.240	0.100	-0.680	-0.510
2020/01/31 20:17:34.7	6.250	0.090	-0.660	-0.510
2020/01/31 20:17:34.8	6.250	0.070	-0.640	-0.500
2020/01/31 20:17:34.9	6.250	0.060	-0.610	-0.490
2020/01/31 20:17:35.0	6.260	0.050	-0.580	-0.480
2020/01/31 20:17:35.1	6.260	0.030	-0.550	-0.460
2020/01/31 20:17:35.2	6.250	0.020	-0.520	-0.450
2020/01/31 20:17:35.3	6.250	0.010	-0.480	-0.430
2020/01/31 20:17:35.4	6.250	-0.000	-0.440	-0.410
2020/01/31 20:17:35.5	6.240	-0.010	-0.400	-0.390
2020/01/31 20:17:35.6	6.240	-0.020	-0.360	-0.370
2020/01/31 20:17:35.7	6.230	-0.030	-0.320	-0.340
2020/01/31 20:17:35.8	6.220	-0.040	-0.270	-0.320
2020/01/31 20:17:35.9	6.210	-0.050	-0.230	-0.290
2020/01/31 20:17:36.0	6.200	-0.050	-0.190	-0.270
2020/01/31 20:17:36.1	6.190	-0.060	-0.140	-0.240
2020/01/31 20:17:36.2	6.180	-0.060	-0.100	-0.210
2020/01/31 20:17:36.3	6.170	-0.060	-0.060	-0.180
2020/01/31 20:17:36.4	6.160	-0.070	-0.030	-0.150
2020/01/31 20:17:36.5	6.150	-0.070	0.010	-0.130
2020/01/31 20:17:36.6	6.140	-0.060	0.040	-0.100
2020/01/31 20:17:36.7	6.130	-0.060	0.070	-0.080
2020/01/31 20:17:36.8	6.120	-0.060	0.090	-0.050
2020/01/31 20:17:36.9	6.120	-0.050	0.110	-0.030
2020/01/31 20:17:37.0	6.110	-0.040	0.130	-0.010
2020/01/31 20:17:37.1	6.110	-0.040	0.150	0.000
2020/01/31 20:17:37.2	6.110	-0.030	0.160	0.020
2020/01/31 20:17:37.3	6.110	-0.020	0.160	0.030
2020/01/31 20:17:37.4	6.110	-0.010	0.170	0.040
2020/01/31 20:17:37.5	6.110	0.000	0.170	0.050
2020/01/31 20:17:37.6	6.110	0.010	0.160	0.060
2020/01/31 20:17:37.7	6.120	0.020	0.150	0.060
2020/01/31 20:17:37.8	6.120	0.030	0.140	0.070
2020/01/31 20:17:37.9	6.130	0.040	0.130	0.070
2020/01/31 20:17:38.0	6.130	0.050	0.110	0.070
2020/01/31 20:17:38.1	6.140	0.060	0.090	0.070
2020/01/31 20:17:38.2	6.140	0.060	0.070	0.060
2020/01/31 20:17:38.3	6.150	0.070	0.050	0.060
2020/01/31 20:17:38.4	6.160	0.070	0.030	0.050
2020/01/31 20:17:38.5	6.160	0.070	0.010	0.050
2020/01/31 20:17:38.6	6.170	0.070	-0.010	0.040
2020/01/31 20:17:38.7	6.180	0.070	-0.040	0.030
2020/01/31 20:17:38.8	6.180	0.060	-0.060	0.020
2020/01/31 20:17:38.9	6.180	0.050	-0.080	0.010
2020/01/31 20:17:39.0	6.190	0.040	-0.100	-0.010
2020/01/31 20:17:39.1	6.200	0.030	-0.120	-0.020
2020/01/31 20:17:39.2	6.200	0.020	-0.130	-0.030
2020/01/31 20:17:39.3	6.210	0.000	-0.150	-0.040
2020/01/31 20:17:39.4	6.210	-0.010	-0.160	-0.050
2020/01/31 20:17:39.5	6.210	-0.030	-0.170	-0.060
2020/01/31 20:17:39.6	6.220	-0.050	-0.170	-0.080
2020/01/31 20:17:39.7	6.220	-0.070	-0.170	-0.080
2020/01/31 20:17:39.8	6.220	-0.100	-0.170	-0.090
2020/01/31 20:17:39.9	6.210	-0.120	-0.170	-0.100
2020/01/31 20:17:40.0	6.210	-0.140	-0.160	-0.100
2020/01/31 20:17:40.1	6.200	-0.170	-0.150	-0.100
2020/01/31 20:17:40.2	6.200	-0.190	-0.140	-0.100
2020/01/31 20:17:40.3	6.190	-0.220	-0.120	-0.100
2020/01/31 20:17:40.4	6.180	-0.240	-0.110	-0.090
2020/01/31 20:17:40.5	6.170	-0.260	-0.090	-0.080
2020/01/31 20:17:40.6	6.160	-0.290	-0.070	-0.070
2020/01/31 20:17:40.7	6.150	-0.310	-0.050	-0.060
2020/01/31 20:17:40.8	6.130	-0.330	-0.030	-0.040
2020/01/31 20:17:40.9	6.110	-0.340	-0.010	-0.030
2020/01/31 20:17:41.0	6.100	-0.360	0.000	-0.010
2020/01/31 20:17:41.1	6.080	-0.370	0.020	0.010
2020/01/31 20:17:41.2	6.070	-0.380	0.030	0.020
2020/01/31 20:17:41.3	6.050	-0.380	0.040	0.040
2020/01/31 20:17:41.4	6.040	-0.390	0.050	0.050
2020/01/31 20:17:41.5	6.030	-0.390	0.050	0.070
2020/01/31 20:17:41.6	6.010	-0.390	0.050	0.080
2020/01/31 20:17:41.7	6.000	-0.380	0.040	0.090
2020/01/31 20:17:41.8	5.980	-0.370	0.030	0.100
2020/01/31 20:17:41.9	5.980	-0.360	0.020	0.100
2020/01/31 20:17:42.0	5.970	-0.340	-0.000	0.110
2020/01/31 20:17:42.1	5.950	-0.320	-0.030	0.110
2020/01/31 20:17:42.2	5.940	-0.300	-0.050	0.100
2020/01/31 20:17:42.3	5.930	-0.280	-0.080	0.100
2020/01/31 20:17:42.4	5.920	-0.250	-0.120	0.090
2020/01/31 20:17:42.5	5.910	-0.220	-0.150	0.080
2020/01/31 20:17:42.6	5.890	-0.190	-0.200	0.070
2020/01/31 20:17:42.7	5.880	-0.150	-0.240	0.050
2020/01/31 20:17:42.8	5.880	-0.110	-0.280	0.040
2020/01/31 20:17:42.9	5.860	-0.080	-0.330	0.020
2020/01/31 20:17:43.0	5.860	-0.040	-0.380	0.000
2020/01/31 20:17:43.1	5.850	0.000	-0.430	-0.020
2020/01/31 20:17:43.2	5.850	0.040	-0.480	-0.040
2020/01/31 20:17:43.3	5.840	0.080	-0.530	-0.070
2020/01/31 20:17:43.4	5.840	0.120	-0.580	-0.090
2020/01/31 20:17:43.5	5.840	0.170	-0.630	-0.120
2020/01/31 20:17:43.6	5.850	0.210	-0.680	-0.150
2020/01/31 20:17:43.7	5.850	0.250	-0.720	-0.180
2020/01/31 20:17:43.8	5.860	0.290	-0.770	-0.210
2020/01/31 20:17:43.9	5.870	0.320	-0.810	-0.240
2020/01/31 20:17:44.0	5.870	0.360	-0.850	-0.270
2020/01/31 20:17:44.1	5.890	0.400	-0.880	-0.300
2020/01/31 20:17:44.2	5.900	0.430	-0.910	-0.320
2020/01/31 20:17:44.3	5.910	0.460	-0.940	-0.350
2020/01/31 20:17:44.4	5.930	0.490	-0.960	-0.370
2020/01/31 20:17:44.5	5.940	0.520	-0.980	-0.390
2020/01/31 20:17:44.6	5.960	0.540	-1.000	-0.410
2020/01/31 20:17:44.7	5.980	0.570	-1.010	-0.430
2020/01/31 20:17:44.8	5.990	0.590	-1.010	-0.450
2020/01/31 20:17:44.9	6.020	0.600	-1.010	-0.460
2020/01/31 20:17:45.0	6.040	0.620	-1.010	-0.470
2020/01/31 20:17:45.1	6.050	0.630	-1.000	-0.470
2020/01/31 20:17:45.2	6.070	0.630	-0.980	-0.480
2020/01/31 20:17:45.3	6.080	0.640	-0.960	-0.480
2020/01/31 20:17:45.4	6.100	0.640	-0.930	-0.480
2020/01/31 20:17:45.5	6.110	0.640	-0.900	-0.470
2020/01/31 20:17:45.6	6.120	0.630	-0.870	-0.460
2020/01/31 20:17:45.7	6.140	0.620	-0.830	-0.450
2020/01/31 20:17:45.8	6.150	0.610	-0.780	-0.440
2020/01/31 20:17:45.9	6.160	0.600	-0.730	-0.420
2020/01/31 20:17:46.0	6.170	0.580	-0.680	-0.410
2020/01/31 20:17:46.1	6.170	0.560	-0.630	-0.390
2020/01/31 20:17:46.2	6.180	0.540	-0.570	-0.370
2020/01/31 20:17:46.3	6.180	0.510	-0.510	-0.340
2020/01/31 20:17:46.4	6.190	0.480	-0.450	-0.320
2020/01/31 20:17:46.5	6.190	0.450	-0.390	-0.300
2020/01/31 20:17:46.6	6.190	0.410	-0.320	-0.270
2020/01/31 20:17:46.7	6.190	0.380	-0.260	-0.250
2020/01/31 20:17:46.8	6.190	0.340	-0.200	-0.220
2020/01/31 20:17:46.9	6.180	0.300	-0.140	-0.200
2020/01/31 20:17:47.0	6.180	0.260	-0.080	-0.170
2020/01/31 20:17:47.1	6.170	0.220	-0.030	-0.150
2020/01/31 20:17:47.2	6.170	0.170	0.030	-0.130
2020/01/31 20:17:47.3	6.160	0.130	0.080	-0.110
2020/01/31 20:17:47.4	6.160	0.080	0.130	-0.090
2020/01/31 20:17:47.5	6.150	0.040	0.170	-0.080
2020/01/31 20:17:47.6	6.140	-0.000	0.210	-0.060
2020/01/31 20:17:47.7	6.130	-0.050	0.240	-0.050
2020/01/31 20:17:47.8	6.130	-0.090	0.280	-0.040
2020/01/31 20:17:47.9	6.100	-0.140	0.290	-0.030
2020/01/31 20:17:48.0	6.090	-0.180	0.320	-0.030
2020/01/31 20:17:48.1	6.080	-0.220	0.330	-0.020
2020/01/31 20:17:48.2	6.070	-0.260	0.340	-0.020
2020/01/31 20:17:48.3	6.070	-0.300	0.350	-0.020
2020/01/31 20:17:48.4	6.060	-0.340	0.360	-0.020
2020/01/31 20:17:48.5	6.050	-0.370	0.360	-0.020
2020/01/31 20:17:48.6	6.040	-0.410	0.350	-0.030
2020/01/31 20:17:48.7	6.030	-0.440	0.350	-0.030
2020/01/31 20:17:48.8	6.020	-0.470	0.340	-0.040
2020/01/31 20:17:48.9	6.020	-0.500	0.340	-0.050
2020/01/31 20:17:49.0	6.010	-0.530	0.320	-0.060
2020/01/31 20:17:49.1	6.010	-0.560	0.310	-0.070
2020/01/31 20:17:49.2	6.000	-0.580	0.290	-0.090
2020/01/31 20:17:49.3	5.990	-0.600	0.270	-0.100
2020/01/31 20:17:49.4	5.990	-0.620	0.250	-0.120
2020/01/31 20:17:49.5	5.990	-0.640	0.230	-0.140
2020/01/31 20:17:49.6	5.980	-0.660	0.210	-0.160
2020/01/31 20:17:49.7	5.980	-0.680	0.180	-0.190
2020/01/31 20:17:49.8	5.980	-0.690	0.160	-0.210
2020/01/31 20:17:49.9	5.980	-0.700	0.130	-0.240
2020/01/31 20:17:50.0	5.980	-0.710	0.110	-0.270
2020/01/31 20:17:50.1	5.980	-0.720	0.080	-0.300
2020/01/31 20:17:50.2	5.990	-0.720	0.050	-0.330
2020/01/31 20:17:50.3	6.000	-0.720	0.030	-0.360
2020/01/31 20:17:50.4	6.000	-0.720	0.000	-0.390
2020/01/31 20:17:50.5	6.010	-0.720	-0.020	-0.420
2020/01/31 20:17:50.6	6.020	-0.720	-0.050	-0.450
2020/01/31 20:17:50.7	6.030	-0.710	-0.080	-0.480
2020/01/31 20:17:50.8	6.040	-0.700	-0.100	-0.500
2020/01/31 20:17:50.9	6.050	-0.680	-0.120	-0.530
2020/01/31 20:17:51.0	6.060	-0.670	-0.140	-0.550
2020/01/31 20:17:51.1	6.070	-0.650	-0.170	-0.570
2020/01/31 20:17:51.2	6.080	-0.630	-0.190	-0.590
2020/01/31 20:17:51.3	6.090	-0.600	-0.210	-0.600
2020/01/31 20:17:51.4	6.100	-0.570	-0.230	-0.610
2020/01/31 20:17:51.5	6.110	-0.540	-0.250	-0.620
2020/01/31 20:17:51.6	6.120	-0.500	-0.260	-0.620
2020/01/31 20:17:51.7	6.120	-0.470	-0.280	-0.610
2020/01/31 20:17:51.8	6.130	-0.430	-0.300	-0.600
2020/01/31 20:17:51.9	6.140	-0.380	-0.310	-0.590
2020/01/31 20:17:52.0	6.140	-0.340	-0.320	-0.570
2020/01/31 20:17:52.1	6.140	-0.290	-0.330	-0.540
2020/01/31 20:17:52.2	6.130	-0.240	-0.340	-0.510
2020/01/31 20:17:52.3	6.120	-0.190	-0.350	-0.470
2020/01/31 20:17:52.4	6.110	-0.140	-0.360	-0.420
2020/01/31 20:17:52.5	6.090	-0.090	-0.360	-0.370
2020/01/31 20:17:52.6	6.070	-0.030	-0.370	-0.320
2020/01/31 20:17:52.7	6.040	0.020	-0.370	-0.260
2020/01/31 20:17:52.8	6.010	0.070	-0.370	-0.200
2020/01/31 20:17:52.9	5.990	0.120	-0.380	-0.140
2020/01/31 20:17:53.0	5.960	0.170	-0.380	-0.070
2020/01/31 20:17:53.1	5.930	0.220	-0.380	-0.010
2020/01/31 20:17:53.2	5.890	0.270	-0.380	0.050
2020/01/31 20:17:53.3	5.850	0.320	-0.380	0.110
2020/01/31 20:17:53.4	5.810	0.360	-0.390	0.170
2020/01/31 20:17:53.5	5.770	0.400	-0.390	0.230
2020/01/31 20:17:53.6	5.730	0.440	-0.390	0.290
2020/01/31 20:17:53.7	5.690	0.480	-0.400	0.350
2020/01/31 20:17:53.8	5.650	0.520	-0.400	0.400
2020/01/31 20:17:53.9	5.620	0.550	-0.410	0.450
2020/01/31 20:17:54.0	5.590	0.580	-0.420	0.490
2020/01/31 20:17:54.1	5.560	0.600	-0.430	0.540
2020/01/31 20:17:54.2	5.530	0.620	-0.440	0.570
2020/01/31 20:17:54.3	5.500	0.640	-0.460	0.600
2020/01/31 20:17:54.4	5.480	0.660	-0.470	0.630
2020/01/31 20:17:54.5	5.460	0.670	-0.490	0.650
2020/01/31 20:17:54.6	5.440	0.680	-0.510	0.670
2020/01/31 20:17:54.7	5.420	0.690	-0.520	0.690
2020/01/31 20:17:54.8	5.410	0.690	-0.540	0.700
2020/01/31 20:17:54.9	5.390	0.690	-0.560	0.710
2020/01/31 20:17:55.0	5.380	0.690	-0.580	0.710
2020/01/31 20:17:55.1	5.370	0.680	-0.590	0.710
2020/01/31 20:17:55.2	5.360	0.670	-0.600	0.710
2020/01/31 20:17:55.3	5.350	0.660	-0.610	0.700
2020/01/31 20:17:55.4	5.350	0.640	-0.620	0.690
2020/01/31 20:17:55.5	5.350	0.620	-0.620	0.680
2020/01/31 20:17:55.6	5.340	0.590	-0.620	0.670
2020/01/31 20:17:55.7	5.350	0.560	-0.610	0.640
2020/01/31 20:17:55.8	5.350	0.530	-0.600	0.620
2020/01/31 20:17:55.9	5.370	0.500	-0.590	0.580
2020/01/31 20:17:56.0	5.380	0.460	-0.580	0.550
2020/01/31 20:17:56.1	5.390	0.420	-0.570	0.510
2020/01/31 20:17:56.2	5.400	0.380	-0.550	0.460
2020/01/31 20:17:56.3	5.410	0.340	-0.530	0.410
2020/01/31 20:17:56.4	5.430	0.290	-0.510	0.350
2020/01/31 20:17:56.5	5.450	0.250	-0.480	0.290
2020/01/31 20:17:56.6	5.470	0.200	-0.460	0.230
2020/01/31 20:17:56.7	5.490	0.150	-0.430	0.160
2020/01/31 20:17:56.8	5.510	0.110	-0.410	0.090
2020/01/31 20:17:56.9	5.540	0.060	-0.380	0.020
2020/01/31 20:17:57.0	5.570	0.010	-0.350	-0.060
2020/01/31 20:17:57.1	5.590	-0.030	-0.320	-0.130
2020/01/31 20:17:57.2	5.620	-0.080	-0.290	-0.200
2020/01/31 20:17:57.3	5.650	-0.120	-0.270	-0.270
2020/01/31 20:17:57.4	5.670	-0.170	-0.240	-0.350
2020/01/31 20:17:57.5	5.700	-0.210	-0.210	-0.410
2020/01/31 20:17:57.6	5.730	-0.250	-0.180	-0.480
2020/01/31 20:17:57.7	5.750	-0.280	-0.150	-0.540
2020/01/31 20:17:57.8	5.780	-0.320	-0.130	-0.600
2020/01/31 20:17:57.9	5.800	-0.350	-0.100	-0.660
2020/01/31 20:17:58.0	5.830	-0.380	-0.080	-0.720
2020/01/31 20:17:58.1	5.850	-0.410	-0.050	-0.760
2020/01/31 20:17:58.2	5.870	-0.430	-0.030	-0.810
2020/01/31 20:17:58.3	5.890	-0.450	-0.010	-0.850
2020/01/31 20:17:58.4	5.910	-0.470	0.010	-0.880
2020/01/31 20:17:58.5	5.930	-0.480	0.030	-0.910
2020/01/31 20:17:58.6	5.940	-0.490	0.040	-0.930
2020/01/31 20:17:58.7	5.960	-0.500	0.060	-0.950
2020/01/31 20:17:58.8	5.970	-0.500	0.070	-0.960
2020/01/31 20:17:58.9	5.970	-0.500	0.070	-0.970
2020/01/31 20:17:59.0	5.980	-0.500	0.080	-0.980
2020/01/31 20:17:59.1	5.990	-0.500	0.080	-0.980
2020/01/31 20:17:59.2	6.000	-0.490	0.080	-0.970
2020/01/31 20:17:59.3	6.000	-0.480	0.070	-0.960
2020/01/31 20:17:59.4	6.000	-0.460	0.060	-0.950
2020/01/31 20:17:59.5	6.000	-0.440	0.050	-0.930
2020/01/31 20:17:59.6	6.000	-0.420	0.030	-0.910
2020/01/31 20:17:59.7	6.000	-0.400	0.010	-0.890
2020/01/31 20:17:59.8	6.000	-0.370	-0.010	-0.870
2020/01/31 20:17:59.9	5.990	-0.340	-0.040	-0.840
2020/01/31 20:18:00.0	5.990	-0.310	-0.070	-0.800
2020/01/31 20:18:00.1	5.980	-0.280	-0.100	-0.770
2020/01/31 20:18:00.2	5.980	-0.240	-0.130	-0.730
2020/01/31 20:18:00.3	5.970	-0.210	-0.170	-0.700
2020/01/31 20:18:00.4	5.970	-0.170	-0.200	-0.650
2020/01/31 20:18:00.5	5.960	-0.130	-0.240	-0.610
2020/01/31 20:18:00.6	5.950	-0.090	-0.280	-0.570
2020/01/31 20:18:00.7	5.950	-0.040	-0.320	-0.520
2020/01/31 20:18:00.8	5.940	-0.000	-0.360	-0.470
2020/01/31 20:18:00.9	5.930	0.040	-0.390	-0.420
2020/01/31 20:18:01.0	5.930	0.080	-0.420	-0.370
2020/01/31 20:18:01.1	5.920	0.120	-0.450	-0.310
2020/01/31 20:18:01.2	5.910	0.160	-0.480	-0.260
2020/01/31 20:18:01.3	5.900	0.200	-0.500	-0.200
2020/01/31 20:18:01.4	5.880	0.230	-0.520	-0.150
2020/01/31 20:18:01.5	5.870	0.270	-0.530	-0.090
2020/01/31 20:18:01.6	5.860	0.300	-0.540	-0.040
2020/01/31 20:18:01.7	5.850	0.320	-0.540	0.020
2020/01/31 20:18:01.8	5.830	0.350	-0.540	0.070
2020/01/31 20:18:01.9	5.810	0.370	-0.530	0.130
2020/01/31 20:18:02.0	5.800	0.390	-0.520	0.190
2020/01/31 20:18:02.1	5.780	0.400	-0.490	0.240
2020/01/31 20:18:02.2	5.760	0.410	-0.470	0.290
2020/01/31 20:18:02.3	5.740	0.420	-0.430	0.340
2020/01/31 20:18:02.4	5.720	0.420	-0.400	0.380
2020/01/31 20:18:02.5	5.700	0.410	-0.360	0.420
2020/01/31 20:18:02.6	5.670	0.410	-0.310	0.470
2020/01/31 20:18:02.7	5.650	0.400	-0.260	0.500
2020/01/31 20:18:02.8	5.620	0.380	-0.210	0.540
2020/01/31 20:18:02.9	5.610	0.360	-0.160	0.570
2020/01/31 20:18:03.0	5.590	0.340	-0.100	0.600
2020/01/31 20:18:03.1	5.560	0.320	-0.050	0.630
2020/01/31 20:18:03.2	5.530	0.290	0.000	0.650
2020/01/31 20:18:03.3	5.500	0.260	0.060	0.670
2020/01/31 20:18:03.4	5.480	0.220	0.110	0.690
2020/01/31 20:18:03.5	5.450	0.190	0.160	0.700
2020/01/31 20:18:03.6	5.420	0.150	0.200	0.710
2020/01/31 20:18:03.7	5.390	0.120	0.240	0.710
2020/01/31 20:18:03.8	5.360	0.080	0.280	0.720
2020/01/31 20:18:03.9	5.350	0.040	0.310	0.720
2020/01/31 20:18:04.0	5.330	0.000	0.340	0.710
2020/01/31 20:18:04.1	5.300	-0.030	0.350	0.700
2020/01/31 20:18:04.2	5.280	-0.070	0.360	0.690
2020/01/31 20:18:04.3	5.260	-0.100	0.370	0.670
2020/01/31 20:18:04.4	5.240	-0.130	0.360	0.650
2020/01/31 20:18:04.5	5.220	-0.160	0.350	0.620
2020/01/31 20:18:04.6	5.200	-0.190	0.330	0.590
2020/01/31 20:18:04.7	5.190	-0.210	0.300	0.560
2020/01/31 20:18:04.8	5.180	-0.230	0.270	0.520
2020/01/31 20:18:04.9	5.170	-0.240	0.220	0.480
2020/01/31 20:18:05.0	5.160	-0.260	0.170	0.430
2020/01/31 20:18:05.1	5.160	-0.270	0.110	0.390
2020/01/31 20:18:05.2	5.160	-0.270	0.050	0.340
2020/01/31 20:18:05.3	5.160	-0.270	-0.020	0.290
2020/01/31 20:18:05.4	5.160	-0.270	-0.090	0.230
2020/01/31 20:18:05.5	5.160	-0.260	-0.170	0.180
2020/01/31 20:18:05.6	5.170	-0.260	-0.250	0.120
2020/01/31 20:18:05.7	5.170	-0.240	-0.330	0.060
2020/01/31 20:18:05.8	5.180	-0.230	-0.410	0.000
2020/01/31 20:18:05.9	5.190	-0.210	-0.490	-0.060
2020/01/31 20:18:06.0	5.200	-0.190	-0.580	-0.120
2020/01/31 20:18:06.1	5.220	-0.170	-0.660	-0.180
2020/01/31 20:18:06.2	5.230	-0.150	-0.730	-0.240
2020/01/31 20:18:06.3	5.240	-0.120	-0.810	-0.290
2020/01/31 20:18:06.4	5.260	-0.100	-0.870	-0.350
2020/01/31 20:18:06.5	5.280	-0.070	-0.940	-0.410
2020/01/31 20:18:06.6	5.290	-0.040	-0.990	-0.460
2020/01/31 20:18:06.7	5.310	-0.020	-1.040	-0.510
2020/01/31 20:18:06.8	5.330	0.010	-1.080	-0.550
2020/01/31 20:18:06.9	5.350	0.030	-1.110	-0.600
2020/01/31 20:18:07.0	5.370	0.050	-1.130	-0.630
2020/01/31 20:18:07.1	5.390	0.070	-1.140	-0.670
2020/01/31 20:18:07.2	5.410	0.090	-1.140	-0.700
2020/01/31 20:18:07.3	5.430	0.110	-1.130	-0.720
2020/01/31 20:18:07.4	5.440	0.120	-1.110	-0.740
2020/01/31 20:18:07.5	5.460	0.130	-1.090	-0.760
2020/01/31 20:18:07.6	5.470	0.140	-1.050	-0.770
2020/01/31 20:18:07.7	5.490	0.150	-1.000	-0.770
2020/01/31 20:18:07.8	5.500	0.150	-0.940	-0.770
2020/01/31 20:18:07.9	5.510	0.150	-0.880	-0.770
2020/01/31 20:18:08.0	5.520	0.140	-0.810	-0.760
2020/01/31 20:18:08.1	5.530	0.130	-0.730	-0.740
2020/01/31 20:18:08.2	5.530	0.120	-0.650	-0.720
2020/01/31 20:18:08.3	5.540	0.100	-0.560	-0.700
2020/01/31 20:18:08.4	5.550	0.090	-0.470	-0.680
2020/01/31 20:18:08.5	5.550	0.070	-0.380	-0.660
2020/01/31 20:18:08.6	5.560	0.040	-0.290	-0.630
2020/01/31 20:18:08.7	5.560	0.020	-0.200	-0.610
2020/01/31 20:18:08.8	5.560	-0.010	-0.110	-0.580
2020/01/31 20:18:08.9	5.570	-0.040	-0.030	-0.550
2020/01/31 20:18:09.0	5.570	-0.070	0.050	-0.520
2020/01/31 20:18:09.1	5.570	-0.110	0.130	-0.500
2020/01/31 20:18:09.2	5.580	-0.140	0.210	-0.470
2020/01/31 20:18:09.3	5.580	-0.170	0.270	-0.440
2020/01/31 20:18:09.4	5.580	-0.200	0.330	-0.420
2020/01/31 20:18:09.5	5.590	-0.230	0.390	-0.390
2020/01/31 20:18:09.6	5.590	-0.260	0.430	-0.360
2020/01/31 20:18:09.7	5.590	-0.290	0.470	-0.340
2020/01/31 20:18:09.8	5.590	-0.320	0.500	-0.310
2020/01/31 20:18:09.9	5.580	-0.340	0.520	-0.280
2020/01/31 20:18:10.0	5.580	-0.360	0.530	-0.260
2020/01/31 20:18:10.1	5.580	-0.380	0.540	-0.230
2020/01/31 20:18:10.2	5.580	-0.400	0.530	-0.200
2020/01/31 20:18:10.3	5.580	-0.410	0.520	-0.170
2020/01/31 20:18:10.4	5.580	-0.420	0.500	-0.140
2020/01/31 20:18:10.5	5.580	-0.420	0.470	-0.120
2020/01/31 20:18:10.6	5.570	-0.420	0.440	-0.090
2020/01/31 20:18:10.7	5.570	-0.420	0.400	-0.060
2020/01/31 20:18:10.8	5.570	-0.410	0.360	-0.030
2020/01/31 20:18:10.9	5.560	-0.400	0.310	-0.000
2020/01/31 20:18:11.0	5.560	-0.380	0.250	0.020
2020/01/31 20:18:11.1	5.550	-0.360	0.200	0.050
2020/01/31 20:18:11.2	5.540	-0.340	0.140	0.080
2020/01/31 20:18:11.3	5.540	-0.310	0.080	0.100
2020/01/31 20:18:11.4	5.530	-0.280	0.010	0.130
2020/01/31 20:18:11.5	5.520	-0.240	-0.050	0.160
2020/01/31 20:18:11.6	5.510	-0.200	-0.120	0.190
2020/01/31 20:18:11.7	5.490	-0.160	-0.180	0.220
2020/01/31 20:18:11.8	5.480	-0.120	-0.240	0.250
2020/01/31 20:18:11.9	5.470	-0.070	-0.300	0.270
2020/01/31 20:18:12.0	5.450	-0.030	-0.360	0.300
2020/01/31 20:18:12.1	5.440	0.020	-0.420	0.330
2020/01/31 20:18:12.2	5.420	0.070	-0.480	0.360
2020/01/31 20:18:12.3	5.410	0.120	-0.530	0.390
2020/01/31 20:18:12.4	5.390	0.170	-0.580	0.410
2020/01/31 20:18:12.5	5.380	0.220	-0.630	0.440
2020/01/31 20:18:12.6	5.360	0.270	-0.670	0.460
2020/01/31 20:18:12.7	5.350	0.310	-0.710	0.490
2020/01/31 20:18:12.8	5.330	0.360	-0.750	0.510
2020/01/31 20:18:12.9	5.330	0.400	-0.780	0.530
2020/01/31 20:18:13.0	5.320	0.440	-0.810	0.550
2020/01/31 20:18:13.1	5.300	0.480	-0.830	0.570
2020/01/31 20:18:13.2	5.290	0.510	-0.850	0.580
2020/01/31 20:18:13.3	5.270	0.540	-0.860	0.590
2020/01/31 20:18:13.4	5.260	0.570	-0.870	0.600
2020/01/31 20:18:13.5	5.250	0.590	-0.870	0.600
2020/01/31 20:18:13.6	5.230	0.610	-0.860	0.600
2020/01/31 20:18:13.7	5.220	0.620	-0.850	0.600
2020/01/31 20:18:13.8	5.210	0.630	-0.830	0.590
2020/01/31 20:18:13.9	5.180	0.630	-0.820	0.580
2020/01/31 20:18:14.0	5.170	0.630	-0.790	0.560
2020/01/31 20:18:14.1	5.160	0.630	-0.760	0.540
2020/01/31 20:18:14.2	5.140	0.620	-0.720	0.520
2020/01/31 20:18:14.3	5.130	0.600	-0.680	0.500
2020/01/31 20:18:14.4	5.120	0.580	-0.630	0.470
2020/01/31 20:18:14.5	5.110	0.560	-0.580	0.440
2020/01/31 20:18:14.6	5.100	0.540	-0.530	0.410
2020/01/31 20:18:14.7	5.090	0.510	-0.470	0.380
2020/01/31 20:18:14.8	5.080	0.480	-0.410	0.350
2020/01/31 20:18:14.9	5.070	0.440	-0.350	0.320
2020/01/31 20:18:15.0	5.060	0.400	-0.290	0.290
2020/01/31 20:18:15.1	5.050	0.360	-0.230	0.260
2020/01/31 20:18:15.2	5.040	0.320	-0.170	0.230
2020/01/31 20:18:15.3	5.040	0.280	-0.100	0.200
2020/01/31 20:18:15.4	5.030	0.230	-0.040	0.170
2020/01/31 20:18:15.5	5.020	0.190	0.020	0.140
2020/01/31 20:18:15.6	5.010	0.140	0.080	0.110
2020/01/31 20:18:15.7	5.000	0.100	0.130	0.090
2020/01/31 20:18:15.8	4.990	0.060	0.180	0.060
2020/01/31 20:18:15.9	4.990	0.010	0.230	0.030
2020/01/31 20:18:16.0	4.980	-0.030	0.270	0.010
2020/01/31 20:18:16.1	4.970	-0.070	0.310	-0.020
2020/01/31 20:18:16.2	4.970	-0.110	0.340	-0.040
2020/01/31 20:18:16.3	4.960	-0.150	0.360	-0.070
2020/01/31 20:18:16.4	4.960	-0.180	0.380	-0.100
2020/01/31 20:18:16.5	4.960	-0.220	0.390	-0.130
2020/01/31 20:18:16.6	4.960	-0.250	0.400	-0.160
2020/01/31 20:18:16.7	4.960	-0.270	0.390	-0.200
2020/01/31 20:18:16.8	4.970	-0.300	0.380	-0.230
2020/01/31 20:18:16.9	4.980	-0.320	0.370	-0.270
2020/01/31 20:18:17.0	4.990	-0.340	0.340	-0.310
2020/01/31 20:18:17.1	5.000	-0.350	0.310	-0.350
2020/01/31 20:18:17.2	5.010	-0.370	0.280	-0.390
2020/01/31 20:18:17.3	5.020	-0.380	0.230	-0.440
2020/01/31 20:18:17.4	5.030	-0.380	0.190	-0.480
2020/01/31 20:18:17.5	5.040	-0.390	0.140	-0.520
2020/01/31 20:18:17.6	5.050	-0.390	0.080	-0.560
2020/01/31 20:18:17.7	5.060	-0.380	0.020	-0.600
2020/01/31 20:18:17.8	5.070	-0.380	-0.040	-0.640
2020/01/31 20:18:17.9	5.080	-0.370	-0.100	-0.680
2020/01/31 20:18:18.0	5.090	-0.370	-0.160	-0.720
2020/01/31 20:18:18.1	5.100	-0.360	-0.220	-0.750
2020/01/31 20:18:18.2	5.110	-0.350	-0.280	-0.780
2020/01/31 20:18:18.3	5.120	-0.340	-0.330	-0.810
2020/01/31 20:18:18.4	5.130	-0.320	-0.390	-0.840
2020/01/31 20:18:18.5	5.140	-0.310	-0.440	-0.860
2020/01/31 20:18:18.6	5.140	-0.300	-0.490	-0.890
2020/01/31 20:18:18.7	5.150	-0.280	-0.530	-0.900
2020/01/31 20:18:18.8	5.160	-0.270	-0.560	-0.920
2020/01/31 20:18:18.9	5.160	-0.250	-0.590	-0.930
2020/01/31 20:18:19.0	5.160	-0.240	-0.620	-0.940
2020/01/31 20:18:19.1	5.170	-0.230	-0.640	-0.940
2020/01/31 20:18:19.2	5.170	-0.220	-0.650	-0.930
2020/01/31 20:18:19.3	5.180	-0.200	-0.650	-0.930
2020/01/31 20:18:19.4	5.190	-0.190	-0.650	-0.920
2020/01/31 20:18:19.5	5.190	-0.180	-0.640	-0.900
2020/01/31 20:18:19.6	5.200	-0.170	-0.630	-0.880
2020/01/31 20:18:19.7	5.200	-0.170	-0.610	-0.850
2020/01/31 20:18:19.8	5.210	-0.160	-0.580	-0.820
2020/01/31 20:18:19.9	5.200	-0.150	-0.550	-0.790
2020/01/31 20:18:20.0	5.210	-0.140	-0.520	-0.750
2020/01/31 20:18:20.1	5.210	-0.140	-0.480	-0.710
2020/01/31 20:18:20.2	5.220	-0.130	-0.440	-0.670
2020/01/31 20:18:20.3	5.230	-0.130	-0.400	-0.620
2020/01/31 20:18:20.4	5.230	-0.120	-0.350	-0.570
2020/01/31 20:18:20.5	5.240	-0.120	-0.310	-0.520
2020/01/31 20:18:20.6	5.250	-0.120	-0.260	-0.470
2020/01/31 20:18:20.7	5.250	-0.110	-0.210	-0.420
2020/01/31 20:18:20.8	5.260	-0.110	-0.170	-0.360
2020/01/31 20:18:20.9	5.260	-0.100	-0.120	-0.300
2020/01/31 20:18:21.0	5.270	-0.100	-0.080	-0.240
2020/01/31 20:18:21.1	5.270	-0.090	-0.040	-0.190
2020/01/31 20:18:21.2	5.270	-0.090	-0.010	-0.130
2020/01/31 20:18:21.3	5.270	-0.080	0.020	-0.070
2020/01/31 20:18:21.4	5.270	-0.070	0.050	-0.010
2020/01/31 20:18:21.5	5.270	-0.060	0.070	0.040
2020/01/31 20:18:21.6	5.260	-0.050	0.090	0.100
2020/01/31 20:18:21.7	5.260	-0.040	0.100	0.160
2020/01/31 20:18:21.8	5.250	-0.020	0.110	0.210
2020/01/31 20:18:21.9	5.240	-0.010	0.110	0.260
2020/01/31 20:18:22.0	5.230	0.010	0.110	0.310
2020/01/31 20:18:22.1	5.220	0.030	0.100	0.360
2020/01/31 20:18:22.2	5.210	0.050	0.090	0.410
2020/01/31 20:18:22.3	5.190	0.070	0.070	0.450
2020/01/31 20:18:22.4	5.170	0.090	0.050	0.500
2020/01/31 20:18:22.5	5.150	0.110	0.030	0.540
2020/01/31 20:18:22.6	5.130	0.130	-0.000	0.570
2020/01/31 20:18:22.7	5.110	0.160	-0.040	0.610
2020/01/31 20:18:22.8	5.080	0.180	-0.070	0.640
2020/01/31 20:18:22.9	5.060	0.200	-0.110	0.670
2020/01/31 20:18:23.0	5.030	0.220	-0.150	0.690
2020/01/31 20:18:23.1	4.990	0.240	-0.200	0.710
2020/01/31 20:18:23.2	4.960	0.260	-0.240	0.730
2020/01/31 20:18:23.3	4.930	0.280	-0.290	0.740
2020/01/31 20:18:23.4	4.890	0.290	-0.340	0.750
2020/01/31 20:18:23.5	4.860	0.310	-0.390	0.750
2020/01/31 20:18:23.6	4.830	0.320	-0.440	0.750
2020/01/31 20:18:23.7	4.790	0.330	-0.490	0.750
2020/01/31 20:18:23.8	4.760	0.340	-0.540	0.740
2020/01/31 20:18:23.9	4.730	0.350	-0.590	0.720
2020/01/31 20:18:24.0	4.700	0.350	-0.640	0.700
2020/01/31 20:18:24.1	4.670	0.350	-0.680	0.680
2020/01/31 20:18:24.2	4.650	0.350	-0.730	0.650
2020/01/31 20:18:24.3	4.630	0.350	-0.770	0.620
2020/01/31 20:18:24.4	4.610	0.350	-0.810	0.590
2020/01/31 20:18:24.5	4.600	0.340	-0.840	0.550
2020/01/31 20:18:24.6	4.590	0.340	-0.880	0.500
2020/01/31 20:18:24.7	4.580	0.330	-0.910	0.460
2020/01/31 20:18:24.8	4.570	0.320	-0.930	0.410
2020/01/31 20:18:24.9	4.570	0.310	-0.950	0.360
2020/01/31 20:18:25.0	4.580	0.300	-0.970	0.300
2020/01/31 20:18:25.1	4.590	0.280	-0.980	0.250
2020/01/31 20:18:25.2	4.600	0.270	-0.990	0.200
2020/01/31 20:18:25.3	4.610	0.260	-0.990	0.140
2020/01/31 20:18:25.4	4.630	0.240	-0.990	0.090
2020/01/31 20:18:25.5	4.650	0.230	-0.980	0.030
2020/01/31 20:18:25.6	4.670	0.210	-0.970	-0.020
2020/01/31 20:18:25.7	4.690	0.200	-0.950	-0.080
2020/01/31 20:18:25.8	4.720	0.180	-0.920	-0.130
2020/01/31 20:18:25.9	4.740	0.170	-0.890	-0.180
2020/01/31 20:18:26.0	4.760	0.150	-0.850	-0.220
2020/01/31 20:18:26.1	4.790	0.140	-0.800	-0.260
2020/01/31 20:18:26.2	4.810	0.120	-0.750	-0.300
2020/01/31 20:18:26.3	4.840	0.100	-0.690	-0.340
2020/01/31 20:18:26.4	4.860	0.090	-0.630	-0.370
2020/01/31 20:18:26.5	4.880	0.070	-0.560	-0.400
2020/01/31 20:18:26.6	4.900	0.050	-0.490	-0.420
2020/01/31 20:18:26.7	4.920	0.040	-0.410	-0.440
2020/01/31 20:18:26.8	4.940	0.020	-0.330	-0.450
2020/01/31 20:18:26.9	4.950	0.000	-0.240	-0.460
2020/01/31 20:18:27.0	4.970	-0.010	-0.160	-0.470
2020/01/31 20:18:27.1	4.980	-0.030	-0.070	-0.470
2020/01/31 20:18:27.2	4.990	-0.050	0.020	-0.470
2020/01/31 20:18:27.3	4.990	-0.070	0.100	-0.460
2020/01/31 20:18:27.4	5.000	-0.090	0.190	-0.450
2020/01/31 20:18:27.5	5.000	-0.110	0.280	-0.430
2020/01/31 20:18:27.6	5.000	-0.130	0.360	-0.410
2020/01/31 20:18:27.7	5.000	-0.150	0.440	-0.390
2020/01/31 20:18:27.8	4.990	-0.170	0.510	-0.370
2020/01/31 20:18:27.9	5.000	-0.190	0.580	-0.340
2020/01/31 20:18:28.0	4.990	-0.210	0.650	-0.310
2020/01/31 20:18:28.1	4.980	-0.230	0.710	-0.280
2020/01/31 20:18:28.2	4.960	-0.250	0.760	-0.250
2020/01/31 20:18:28.3	4.950	-0.270	0.800	-0.220
2020/01/31 20:18:28.4	4.930	-0.290	0.840	-0.180
2020/01/31 20:18:28.5	4.910	-0.310	0.870	-0.150
2020/01/31 20:18:28.6	4.890	-0.320	0.890	-0.110
2020/01/31 20:18:28.7	4.870	-0.340	0.900	-0.070
2020/01/31 20:18:28.8	4.850	-0.350	0.910	-0.040
2020/01/31 20:18:28.9	4.840	-0.370	0.900	0.000
2020/01/31 20:18:29.0	4.810	-0.380	0.890	0.040
2020/01/31 20:18:29.1	4.790	-0.390	0.870	0.070
2020/01/31 20:18:29.2	4.760	-0.390	0.840	0.110
2020/01/31 20:18:29.3	4.730	-0.400	0.800	0.140
2020/01/31 20:18:29.4	4.700	-0.400	0.760	0.170
2020/01/31 20:18:29.5	4.680	-0.400	0.700	0.190
2020/01/31 20:18:29.6	4.650	-0.400	0.640	0.220
2020/01/31 20:18:29.7	4.630	-0.390	0.580	0.240
2020/01/31 20:18:29.8	4.600	-0.380	0.510	0.260
2020/01/31 20:18:29.9	4.580	-0.370	0.420	0.280
2020/01/31 20:18:30.0	4.560	-0.360	0.340	0.300
2020/01/31 20:18:30.1	4.540	-0.340	0.250	0.310
2020/01/31 20:18:30.2	4.520	-0.320	0.160	0.320
2020/01/31 20:18:30.3	4.510	-0.300	0.070	0.320
2020/01/31 20:18:30.4	4.500	-0.270	-0.030	0.320
2020/01/31 20:18:30.5	4.490	-0.240	-0.130	0.320
2020/01/31 20:18:30.6	4.480	-0.210	-0.230	0.320
2020/01/31 20:18:30.7	4.480	-0.180	-0.330	0.310
2020/01/31 20:18:30.8	4.480	-0.140	-0.440	0.300
2020/01/31 20:18:30.9	4.480	-0.100	-0.530	0.280
2020/01/31 20:18:31.0	4.490	-0.060	-0.630	0.270
2020/01/31 20:18:31.1	4.500	-0.020	-0.720	0.250
2020/01/31 20:18:31.2	4.520	0.020	-0.820	0.230
2020/01/31 20:18:31.3	4.530	0.060	-0.900	0.210
2020/01/31 20:18:31.4	4.550	0.110	-0.980	0.190
2020/01/31 20:18:31.5	4.570	0.150	-1.060	0.170
2020/01/31 20:18:31.6	4.590	0.190	-1.130	0.140
2020/01/31 20:18:31.7	4.610	0.240	-1.190	0.120
2020/01/31 20:18:31.8	4.630	0.280	-1.240	0.100
2020/01/31 20:18:31.9	4.640	0.310	-1.290	0.080
2020/01/31 20:18:32.0	4.660	0.350	-1.320	0.060
2020/01/31 20:18:32.1	4.680	0.380	-1.350	0.040
2020/01/31 20:18:32.2	4.700	0.410	-1.370	0.020
2020/01/31 20:18:32.3	4.710	0.430	-1.380	-0.000
2020/01/31 20:18:32.4	4.730	0.450	-1.380	-0.020
2020/01/31 20:18:32.5	4.740	0.470	-1.370	-0.040
2020/01/31 20:18:32.6	4.750	0.480	-1.350	-0.050
2020/01/31 20:18:32.7	4.760	0.490	-1.320	-0.070
2020/01/31 20:18:32.8	4.760	0.490	-1.280	-0.080
2020/01/31 20:18:32.9	4.760	0.490	-1.240	-0.090
2020/01/31 20:18:33.0	4.760	0.480	-1.190	-0.110
2020/01/31 20:18:33.1	4.750	0.470	-1.130	-0.120
2020/01/31 20:18:33.2	4.750	0.450	-1.060	-0.130
2020/01/31 20:18:33.3	4.740	0.430	-0.990	-0.140
2020/01/31 20:18:33.4	4.730	0.400	-0.910	-0.150
2020/01/31 20:18:33.5	4.720	0.370	-0.830	-0.150
2020/01/31 20:18:33.6	4.700	0.340	-0.740	-0.160
2020/01/31 20:18:33.7	4.690	0.310	-0.650	-0.160
2020/01/31 20:18:33.8	4.670	0.270	-0.560	-0.160
2020/01/31 20:18:33.9	4.650	0.220	-0.460	-0.170
2020/01/31 20:18:34.0	4.640	0.180	-0.370	-0.170
2020/01/31 20:18:34.1	4.620	0.140	-0.270	-0.160
2020/01/31 20:18:34.2	4.610	0.090	-0.180	-0.160
2020/01/31 20:18:34.3	4.600	0.040	-0.090	-0.160
2020/01/31 20:18:34.4	4.580	-0.000	-0.010	-0.150
2020/01/31 20:18:34.5	4.570	-0.050	0.080	-0.150
2020/01/31 20:18:34.6	4.560	-0.090	0.150	-0.140
2020/01/31 20:18:34.7	4.550	-0.140	0.230	-0.140
2020/01/31 20:18:34.8	4.550	-0.180	0.290	-0.140
2020/01/31 20:18:34.9	4.550	-0.220	0.360	-0.130
2020/01/31 20:18:35.0	4.540	-0.260	0.410	-0.130
2020/01/31 20:18:35.1	4.540	-0.300	0.460	-0.120
2020/01/31 20:18:35.2	4.530	-0.340	0.500	-0.120
2020/01/31 20:18:35.3	4.530	-0.370	0.540	-0.120
2020/01/31 20:18:35.4	4.530	-0.400	0.570	-0.120
2020/01/31 20:18:35.5	4.520	-0.420	0.590	-0.110
2020/01/31 20:18:35.6	4.520	-0.450	0.610	-0.110
2020/01/31 20:18:35.7	4.520	-0.460	0.620	-0.110
2020/01/31 20:18:35.8	4.510	-0.480	0.620	-0.110
2020/01/31 20:18:35.9	4.520	-0.490	0.620	-0.110
2020/01/31 20:18:36.0	4.520	-0.500	0.610	-0.100
2020/01/31 20:18:36.1	4.520	-0.510	0.590	-0.100
2020/01/31 20:18:36.2	4.510	-0.510	0.570	-0.090
2020/01/31 20:18:36.3	4.510	-0.500	0.540	-0.090
2020/01/31 20:18:36.4	4.500	-0.500	0.510	-0.080
2020/01/31 20:18:36.5	4.490	-0.490	0.480	-0.070
2020/01/31 20:18:36.6	4.480	-0.480	0.440	-0.060
2020/01/31 20:18:36.7	4.470	-0.470	0.400	-0.050
2020/01/31 20:18:36.8	4.460	-0.450	0.350	-0.040
2020/01/31 20:18:36.9	4.460	-0.430	0.300	-0.030
2020/01/31 20:18:37.0	4.450	-0.410	0.250	-0.010
2020/01/31 20:18:37.1	4.430	-0.390	0.200	0.000
2020/01/31 20:18:37.2	4.420	-0.360	0.140	0.020
2020/01/31 20:18:37.3	4.400	-0.330	0.080	0.030
2020/01/31 20:18:37.4	4.390	-0.300	0.020	0.050
2020/01/31 20:18:37.5	4.370	-0.280	-0.040	0.070
2020/01/31 20:18:37.6	4.360	-0.240	-0.100	0.080
2020/01/31 20:18:37.7	4.340	-0.210	-0.160	0.100
2020/01/31 20:18:37.8	4.330	-0.180	-0.220	0.120
2020/01/31 20:18:37.9	4.310	-0.150	-0.290	0.140
2020/01/31 20:18:38.0	4.300	-0.110	-0.350	0.150
2020/01/31 20:18:38.1	4.290	-0.080	-0.410	0.170
2020/01/31 20:18:38.2	4.270	-0.040	-0.470	0.180
2020/01/31 20:18:38.3	4.260	-0.010	-0.530	0.190
2020/01/31 20:18:38.4	4.250	0.030	-0.590	0.200
2020/01/31 20:18:38.5	4.240	0.060	-0.650	0.210
2020/01/31 20:18:38.6	4.230	0.100	-0.700	0.220
2020/01/31 20:18:38.7	4.230	0.140	-0.760	0.230
2020/01/31 20:18:38.8	4.220	0.170	-0.810	0.240
2020/01/31 20:18:38.9	4.220	0.210	-0.860	0.250
2020/01/31 20:18:39.0	4.220	0.240	-0.900	0.250
2020/01/31 20:18:39.1	4.230	0.280	-0.950	0.260
2020/01/31 20:18:39.2	4.230	0.310	-0.990	0.270
2020/01/31 20:18:39.3	4.230	0.350	-1.030	0.280
2020/01/31 20:18:39.4	4.240	0.380	-1.060	0.280
2020/01/31 20:18:39.5	4.240	0.410	-1.090	0.290
2020/01/31 20:18:39.6	4.250	0.440	-1.110	0.290
2020/01/31 20:18:39.7	4.260	0.470	-1.130	0.300
2020/01/31 20:18:39.8	4.270	0.500	-1.140	0.310
2020/01/31 20:18:39.9	4.270	0.530	-1.150	0.310
2020/01/31 20:18:40.0	4.280	0.550	-1.150	0.320
2020/01/31 20:18:40.1	4.290	0.580	-1.150	0.320
2020/01/31 20:18:40.2	4.300	0.600	-1.140	0.330
2020/01/31 20:18:40.3	4.310	0.610	-1.120	0.330
2020/01/31 20:18:40.4	4.320	0.630	-1.090	0.330
2020/01/31 20:18:40.5	4.330	0.640	-1.060	0.340
2020/01/31 20:18:40.6	4.340	0.650	-1.030	0.340
2020/01/31 20:18:40.7	4.350	0.660	-0.990	0.340
2020/01/31 20:18:40.8	4.360	0.660	-0.940	0.350
2020/01/31 20:18:40.9	4.370	0.660	-0.890	0.350
2020/01/31 20:18:41.0	4.380	0.660	-0.830	0.350
2020/01/31 20:18:41.1	4.380	0.660	-0.770	0.350
2020/01/31 20:18:41.2	4.390	0.650	-0.700	0.360
2020/01/31 20:18:41.3	4.400	0.650	-0.630	0.360
2020/01/31 20:18:41.4	4.410	0.630	-0.560	0.360
2020/01/31 20:18:41.5	4.410	0.620	-0.490	0.360
2020/01/31 20:18:41.6	4.420	0.600	-0.410	0.360
2020/01/31 20:18:41.7	4.430	0.580	-0.330	0.370
2020/01/31 20:18:41.8	4.430	0.560	-0.260	0.370
2020/01/31 20:18:41.9	4.420	0.540	-0.180	0.370
2020/01/31 20:18:42.0	4.430	0.510	-0.110	0.370
2020/01/31 20:18:42.1	4.430	0.480	-0.030	0.370
2020/01/31 20:18:42.2	4.430	0.450	0.040	0.360
2020/01/31 20:18:42.3	4.430	0.410	0.110	0.360
2020/01/31 20:18:42.4	4.420	0.380	0.180	0.360
2020/01/31 20:18:42.5	4.420	0.340	0.250	0.350
2020/01/31 20:18:42.6	4.420	0.300	0.310	0.340
2020/01/31 20:18:42.7	4.410	0.260	0.360	0.330
2020/01/31 20:18:42.8	4.410	0.220	0.420	0.320
2020/01/31 20:18:42.9	4.400	0.170	0.460	0.300
2020/01/31 20:18:43.0	4.390	0.130	0.500	0.290
2020/01/31 20:18:43.1	4.390	0.080	0.540	0.270
2020/01/31 20:18:43.2	4.380	0.030	0.570	0.240
2020/01/31 20:18:43.3	4.380	-0.020	0.590	0.210
2020/01/31 20:18:43.4	4.370	-0.070	0.610	0.180
2020/01/31 20:18:43.5	4.370	-0.120	0.620	0.150
2020/01/31 20:18:43.6	4.360	-0.170	0.630	0.110
2020/01/31 20:18:43.7	4.360	-0.220	0.630	0.070
2020/01/31 20:18:43.8	4.360	-0.270	0.630	0.020
2020/01/31 20:18:43.9	4.360	-0.320	0.620	-0.020
2020/01/31 20:18:44.0	4.370	-0.370	0.610	-0.070
2020/01/31 20:18:44.1	4.370	-0.420	0.590	-0.120
2020/01/31 20:18:44.2	4.370	-0.470	0.570	-0.180
2020/01/31 20:18:44.3	4.380	-0.510	0.540	-0.230
2020/01/31 20:18:44.4	4.380	-0.560	0.510	-0.280
2020/01/31 20:18:44.5	4.390	-0.600	0.480	-0.340
2020/01/31 20:18:44.6	4.400	-0.640	0.440	-0.390
2020/01/31 20:18:44.7	4.400	-0.670	0.410	-0.440
2020/01/31 20:18:44.8	4.410	-0.700	0.370	-0.490
2020/01/31 20:18:44.9	4.420	-0.730	0.330	-0.540
2020/01/31 20:18:45.0	4.430	-0.760	0.280	-0.590
2020/01/31 20:18:45.1	4.440	-0.780	0.240	-0.630
2020/01/31 20:18:45.2	4.440	-0.800	0.200	-0.670
2020/01/31 20:18:45.3	4.450	-0.820	0.150	-0.700
2020/01/31 20:18:45.4	4.450	-0.830	0.110	-0.740
2020/01/31 20:18:45.5	4.460	-0.830	0.070	-0.760
2020/01/31 20:18:45.6	4.460	-0.840	0.030	-0.790
2020/01/31 20:18:45.7	4.460	-0.830	-0.020	-0.800
2020/01/31 20:18:45.8	4.460	-0.830	-0.060	-0.820
2020/01/31 20:18:45.9	4.470	-0.820	-0.100	-0.830
2020/01/31 20:18:46.0	4.460	-0.800	-0.140	-0.830
2020/01/31 20:18:46.1	4.460	-0.780	-0.180	-0.830
2020/01/31 20:18:46.2	4.460	-0.760	-0.220	-0.830
2020/01/31 20:18:46.3	4.450	-0.740	-0.260	-0.820
2020/01/31 20:18:46.4	4.440	-0.710	-0.290	-0.810
2020/01/31 20:18:46.5	4.440	-0.670	-0.330	-0.790
2020/01/31 20:18:46.6	4.430	-0.640	-0.370	-0.780
2020/01/31 20:18:46.7	4.420	-0.600	-0.400	-0.760
2020/01/31 20:18:46.8	4.410	-0.550	-0.440	-0.730
2020/01/31 20:18:46.9	4.390	-0.510	-0.470	-0.710
2020/01/31 20:18:47.0	4.380	-0.460	-0.500	-0.680
2020/01/31 20:18:47.1	4.370	-0.420	-0.540	-0.660
2020/01/31 20:18:47.2	4.360	-0.370	-0.570	-0.630
2020/01/31 20:18:47.3	4.340	-0.320	-0.600	-0.600
2020/01/31 20:18:47.4	4.330	-0.270	-0.630	-0.580
2020/01/31 20:18:47.5	4.310	-0.210	-0.660	-0.550
2020/01/31 20:18:47.6	4.300	-0.160	-0.680	-0.530
2020/01/31 20:18:47.7	4.280	-0.110	-0.710	-0.500
2020/01/31 20:18:47.8	4.270	-0.060	-0.730	-0.480
2020/01/31 20:18:47.9	4.260	-0.010	-0.760	-0.450
2020/01/31 20:18:48.0	4.250	0.040	-0.770	-0.420
2020/01/31 20:18:48.1	4.230	0.080	-0.790	-0.400
2020/01/31 20:18:48.2	4.220	0.130	-0.800	-0.370
2020/01/31 20:18:48.3	4.200	0.170	-0.820	-0.350
2020/01/31 20:18:48.4	4.190	0.210	-0.820	-0.320
2020/01/31 20:18:48.5	4.180	0.250	-0.830	-0.290
2020/01/31 20:18:48.6	4.170	0.290	-0.830	-0.260
2020/01/31 20:18:48.7	4.160	0.320	-0.830	-0.230
2020/01/31 20:18:48.8	4.150	0.350	-0.820	-0.200
2020/01/31 20:18:48.9	4.150	0.380	-0.810	-0.170
2020/01/31 20:18:49.0	4.140	0.410	-0.800	-0.130
2020/01/31 20:18:49.1	4.140	0.430	-0.780	-0.100
2020/01/31 20:18:49.2	4.130	0.450	-0.760	-0.070
2020/01/31 20:18:49.3	4.130	0.470	-0.730	-0.030
2020/01/31 20:18:49.4	4.130	0.480	-0.710	0.010
2020/01/31 20:18:49.5	4.140	0.500	-0.680	0.040
2020/01/31 20:18:49.6	4.140	0.500	-0.650	0.080
2020/01/31 20:18:49.7	4.150	0.510	-0.610	0.110
2020/01/31 20:18:49.8	4.160	0.520	-0.570	0.150
2020/01/31 20:18:49.9	4.170	0.520	-0.530	0.190
2020/01/31 20:18:50.0	4.190	0.520	-0.490	0.220
2020/01/31 20:18:50.1	4.200	0.520	-0.450	0.250
2020/01/31 20:18:50.2	4.220	0.520	-0.410	0.280
2020/01/31 20:18:50.3	4.240	0.510	-0.370	0.310
2020/01/31 20:18:50.4	4.250	0.500	-0.330	0.340
2020/01/31 20:18:50.5	4.280	0.500	-0.280	0.370
2020/01/31 20:18:50.6	4.300	0.490	-0.240	0.390
2020/01/31 20:18:50.7	4.320	0.470	-0.200	0.410
2020/01/31 20:18:50.8	4.340	0.460	-0.160	0.440
2020/01/31 20:18:50.9	4.360	0.450	-0.130	0.450
2020/01/31 20:18:51.0	4.380	0.430	-0.090	0.470
2020/01/31 20:18:51.1	4.410	0.420	-0.050	0.480
2020/01/31 20:18:51.2	4.430	0.400	-0.020	0.500
2020/01/31 20:18:51.3	4.450	0.390	0.010	0.510
2020/01/31 20:18:51.4	4.470	0.370	0.040	0.520
2020/01/31 20:18:51.5	4.480	0.350	0.060	0.520
2020/01/31 20:18:51.6	4.500	0.330	0.080	0.520
2020/01/31 20:18:51.7	4.520	0.310	0.100	0.520
2020/01/31 20:18:51.8	4.540	0.290	0.110	0.510
2020/01/31 20:18:51.9	4.550	0.270	0.130	0.510
2020/01/31 20:18:52.0	4.560	0.240	0.130	0.490
2020/01/31 20:18:52.1	4.580	0.220	0.130	0.480
2020/01/31 20:18:52.2	4.590	0.200	0.130	0.460
2020/01/31 20:18:52.3	4.610	0.170	0.120	0.430
2020/01/31 20:18:52.4	4.620	0.150	0.110	0.410
2020/01/31 20:18:52.5	4.630	0.130	0.090	0.380
2020/01/31 20:18:52.6	4.640	0.100	0.070	0.350
2020/01/31 20:18:52.7	4.660	0.080	0.040	0.310
2020/01/31 20:18:52.8	4.670	0.060	0.010	0.280
2020/01/31 20:18:52.9	4.690	0.040	-0.030	0.240
2020/01/31 20:18:53.0	4.700	0.010	-0.060	0.200
2020/01/31 20:18:53.1	4.710	-0.010	-0.110	0.160
2020/01/31 20:18:53.2	4.730	-0.030	-0.150	0.120
2020/01/31 20:18:53.3	4.740	-0.050	-0.200	0.080
2020/01/31 20:18:53.4	4.750	-0.070	-0.250	0.030
2020/01/31 20:18:53.5	4.770	-0.080	-0.300	-0.010
2020/01/31 20:18:53.6	4.790	-0.100	-0.350	-0.050
2020/01/31 20:18:53.7	4.800	-0.120	-0.410	-0.100
2020/01/31 20:18:53.8	4.820	-0.130	-0.460	-0.140
2020/01/31 20:18:53.9	4.830	-0.140	-0.520	-0.190
2020/01/31 20:18:54.0	4.840	-0.150	-0.570	-0.230
2020/01/31 20:18:54.1	4.860	-0.160	-0.620	-0.270
2020/01/31 20:18:54.2	4.870	-0.170	-0.670	-0.320
2020/01/31 20:18:54.3	4.890	-0.180	-0.720	-0.360
2020/01/31 20:18:54.4	4.900	-0.190	-0.760	-0.390
2020/01/31 20:18:54.5	4.920	-0.190	-0.790	-0.430
2020/01/31 20:18:54.6	4.930	-0.190	-0.830	-0.460
2020/01/31 20:18:54.7	4.940	-0.200	-0.860	-0.500
2020/01/31 20:18:54.8	4.940	-0.200	-0.880	-0.530
2020/01/31 20:18:54.9	4.950	-0.200	-0.890	-0.550
2020/01/31 20:18:55.0	4.960	-0.200	-0.900	-0.580
2020/01/31 20:18:55.1	4.960	-0.210	-0.900	-0.600
2020/01/31 20:18:55.2	4.950	-0.210	-0.890	-0.610
2020/01/31 20:18:55.3	4.950	-0.210	-0.880	-0.620
2020/01/31 20:18:55.4	4.940	-0.210	-0.850	-0.630
2020/01/31 20:18:55.5	4.930	-0.210	-0.820	-0.630
2020/01/31 20:18:55.6	4.910	-0.210	-0.780	-0.630
2020/01/31 20:18:55.7	4.890	-0.210	-0.740	-0.630
2020/01/31 20:18:55.8	4.870	-0.210	-0.680	-0.620
2020/01/31 20:18:55.9	4.860	-0.220	-0.620	-0.600
2020/01/31 20:18:56.0	4.830	-0.220	-0.550	-0.580
2020/01/31 20:18:56.1	4.800	-0.220	-0.480	-0.560
2020/01/31 20:18:56.2	4.770	-0.220	-0.400	-0.540
2020/01/31 20:18:56.3	4.740	-0.220	-0.320	-0.510
2020/01/31 20:18:56.4	4.710	-0.230	-0.230	-0.480
2020/01/31 20:18:56.5	4.680	-0.230	-0.150	-0.450
2020/01/31 20:18:56.6	4.650	-0.230	-0.060	-0.420
2020/01/31 20:18:56.7	4.610	-0.230	0.030	-0.390
2020/01/31 20:18:56.8	4.580	-0.230	0.120	-0.350
2020/01/31 20:18:56.9	4.550	-0.230	0.200	-0.320
2020/01/31 20:18:57.0	4.520	-0.230	0.280	-0.280
2020/01/31 20:18:57.1	4.480	-0.230	0.360	-0.240
2020/01/31 20:18:57.2	4.450	-0.230	0.440	-0.210
2020/01/31 20:18:57.3	4.420	-0.230	0.510	-0.170
2020/01/31 20:18:57.4	4.380	-0.220	0.570	-0.140
2020/01/31 20:18:57.5	4.350	-0.220	0.630	-0.110
2020/01/31 20:18:57.6	4.320	-0.210	0.680	-0.080
2020/01/31 20:18:57.7	4.300	-0.200	0.720	-0.040
2020/01/31 20:18:57.8	4.270	-0.190	0.750	-0.020
2020/01/31 20:18:57.9	4.260	-0.170	0.780	0.010
2020/01/31 20:18:58.0	4.240	-0.160	0.800	0.040
2020/01/31 20:18:58.1	4.220	-0.140	0.800	0.060
2020/01/31 20:18:58.2	4.200	-0.120	0.800	0.080
2020/01/31 20:18:58.3	4.190	-0.100	0.790	0.100
2020/01/31 20:18:58.4	4.180	-0.080	0.780	0.110
2020/01/31 20:18:58.5	4.170	-0.060	0.750	0.130
2020/01/31 20:18:58.6	4.160	-0.030	0.720	0.140
2020/01/31 20:18:58.7	4.160	-0.000	0.680	0.140
2020/01/31 20:18:58.8	4.160	0.020	0.630	0.150
2020/01/31 20:18:58.9	4.160	0.050	0.570	0.150
2020/01/31 20:18:59.0	4.160	0.080	0.520	0.150
2020/01/31 20:18:59.1	4.170	0.120	0.460	0.150
2020/01/31 20:18:59.2	4.170	0.150	0.390	0.140
2020/01/31 20:18:59.3	4.180	0.180	0.330	0.140
2020/01/31 20:18:59.4	4.190	0.210	0.260	0.130
2020/01/31 20:18:59.5	4.200	0.240	0.180	0.130
2020/01/31 20:18:59.6	4.210	0.270	0.110	0.120
2020/01/31 20:18:59.7	4.220	0.300	0.040	0.110
2020/01/31 20:18:59.8	4.240	0.330	-0.030	0.100
2020/01/31 20:18:59.9	4.250	0.360	-0.110	0.080
2020/01/31 20:19:00.0	4.260	0.380	-0.180	0.070
2020/01/31 20:19:00.1	4.280	0.400	-0.250	0.060
2020/01/31 20:19:00.2	4.290	0.420	-0.320	0.040
2020/01/31 20:19:00.3	4.310	0.440	-0.390	0.030
2020/01/31 20:19:00.4	4.330	0.450	-0.450	0.010
2020/01/31 20:19:00.5	4.340	0.460	-0.520	-0.000
2020/01/31 20:19:00.6	4.360	0.470	-0.580	-0.020
2020/01/31 20:19:00.7	4.380	0.480	-0.640	-0.040
2020/01/31 20:19:00.8	4.400	0.480	-0.690	-0.060
2020/01/31 20:19:00.9	4.420	0.470	-0.750	-0.080
2020/01/31 20:19:01.0	4.440	0.470	-0.790	-0.100
2020/01/31 20:19:01.1	4.460	0.450	-0.840	-0.120
2020/01/31 20:19:01.2	4.480	0.440	-0.880	-0.140
2020/01/31 20:19:01.3	4.500	0.420	-0.910	-0.170
2020/01/31 20:19:01.4	4.520	0.400	-0.940	-0.190
2020/01/31 20:19:01.5	4.540	0.370	-0.970	-0.220
2020/01/31 20:19:01.6	4.560	0.350	-0.990	-0.240
2020/01/31 20:19:01.7	4.580	0.310	-1.000	-0.270
2020/01/31 20:19:01.8	4.600	0.280	-1.010	-0.300
2020/01/31 20:19:01.9	4.620	0.240	-1.020	-0.330
2020/01/31 20:19:02.0	4.640	0.200	-1.020	-0.360
2020/01/31 20:19:02.1	4.650	0.160	-1.010	-0.390
2020/01/31 20:19:02.2	4.670	0.110	-1.000	-0.420
2020/01/31 20:19:02.3	4.690	0.060	-0.990	-0.450
2020/01/31 20:19:02.4	4.700	0.010	-0.960	-0.470
2020/01/31 20:19:02.5	4.710	-0.040	-0.940	-0.500
2020/01/31 20:19:02.6	4.720	-0.090	-0.910	-0.530
2020/01/31 20:19:02.7	4.730	-0.140	-0.880	-0.560
2020/01/31 20:19:02.8	4.730	-0.190	-0.840	-0.580
2020/01/31 20:19:02.9	4.720	-0.240	-0.810	-0.600
2020/01/31 20:19:03.0	4.720	-0.290	-0.760	-0.620
2020/01/31 20:19:03.1	4.720	-0.340	-0.710	-0.640
2020/01/31 20:19:03.2	4.710	-0.390	-0.660	-0.650
2020/01/31 20:19:03.3	4.700	-0.440	-0.610	-0.660
2020/01/31 20:19:03.4	4.680	-0.490	-0.550	-0.670
2020/01/31 20:19:03.5	4.670	-0.530	-0.500	-0.670
2020/01/31 20:19:03.6	4.650	-0.580	-0.440	-0.680
2020/01/31 20:19:03.7	4.620	-0.620	-0.390	-0.670
2020/01/31 20:19:03.8	4.600	-0.650	-0.330	-0.670
2020/01/31 20:19:03.9	4.570	-0.680	-0.280	-0.660
2020/01/31 20:19:04.0	4.550	-0.710	-0.230	-0.650
2020/01/31 20:19:04.1	4.530	-0.730	-0.180	-0.640
2020/01/31 20:19:04.2	4.500	-0.750	-0.140	-0.630
2020/01/31 20:19:04.3	4.480	-0.770	-0.100	-0.620
2020/01/31 20:19:04.4	4.460	-0.770	-0.060	-0.600
2020/01/31 20:19:04.5	4.440	-0.780	-0.030	-0.590
2020/01/31 20:19:04.6	4.420	-0.770	-0.010	-0.570
2020/01/31 20:19:04.7	4.400	-0.760	0.010	-0.560
2020/01/31 20:19:04.8	4.390	-0.750	0.020	-0.540
2020/01/31 20:19:04.9	4.370	-0.730	0.020	-0.530
2020/01/31 20:19:05.0	4.360	-0.700	0.020	-0.520
2020/01/31 20:19:05.1	4.360	-0.660	0.010	-0.500
2020/01/31 20:19:05.2	4.360	-0.620	-0.000	-0.480
2020/01/31 20:19:05.3	4.360	-0.570	-0.020	-0.470
2020/01/31 20:19:05.4	4.370	-0.520	-0.050	-0.450
2020/01/31 20:19:05.5	4.380	-0.460	-0.080	-0.430
2020/01/31 20:19:05.6	4.400	-0.400	-0.110	-0.410
2020/01/31 20:19:05.7	4.410	-0.330	-0.150	-0.390
2020/01/31 20:19:05.8	4.430	-0.260	-0.190	-0.370
2020/01/31 20:19:05.9	4.440	-0.190	-0.230	-0.340
2020/01/31 20:19:06.0	4.460	-0.110	-0.260	-0.310
2020/01/31 20:19:06.1	4.470	-0.030	-0.300	-0.280
2020/01/31 20:19:06.2	4.490	0.040	-0.330	-0.250
2020/01/31 20:19:06.3	4.500	0.120	-0.360	-0.210
2020/01/31 20:19:06.4	4.520	0.200	-0.390	-0.170
2020/01/31 20:19:06.5	4.530	0.270	-0.410	-0.120
2020/01/31 20:19:06.6	4.540	0.340	-0.430	-0.070
2020/01/31 20:19:06.7	4.540	0.410	-0.440	-0.020
2020/01/31 20:19:06.8	4.550	0.480	-0.440	0.030
2020/01/31 20:19:06.9	4.570	0.540	-0.440	0.090
2020/01/31 20:19:07.0	4.570	0.590	-0.440	0.140
2020/01/31 20:19:07.1	4.560	0.640	-0.430	0.190
2020/01/31 20:19:07.2	4.560	0.690	-0.410	0.250
2020/01/31 20:19:07.3	4.550	0.720	-0.390	0.300
2020/01/31 20:19:07.4	4.540	0.760	-0.370	0.360
2020/01/31 20:19:07.5	4.530	0.780	-0.340	0.410
2020/01/31 20:19:07.6	4.510	0.800	-0.310	0.460
2020/01/31 20:19:07.7	4.500	0.810	-0.270	0.520
2020/01/31 20:19:07.8	4.480	0.810	-0.240	0.570
2020/01/31 20:19:07.9	4.450	0.810	-0.200	0.610
2020/01/31 20:19:08.0	4.430	0.800	-0.160	0.660
2020/01/31 20:19:08.1	4.400	0.790	-0.120	0.700
2020/01/31 20:19:08.2	4.380	0.770	-0.080	0.740
2020/01/31 20:19:08.3	4.350	0.740	-0.030	0.770
2020/01/31 20:19:08.4	4.330	0.700	0.010	0.800
2020/01/31 20:19:08.5	4.300	0.670	0.040	0.830
2020/01/31 20:19:08.6	4.270	0.620	0.080	0.850
2020/01/31 20:19:08.7	4.250	0.580	0.110	0.860
2020/01/31 20:19:08.8	4.220	0.530	0.140	0.870
2020/01/31 20:19:08.9	4.190	0.470	0.170	0.870
2020/01/31 20:19:09.0	4.160	0.420	0.190	0.870
2020/01/31 20:19:09.1	4.140	0.360	0.210	0.860
2020/01/31 20:19:09.2	4.130	0.300	0.220	0.840
2020/01/31 20:19:09.3	4.110	0.240	0.230	0.810
2020/01/31 20:19:09.4	4.100	0.180	0.230	0.780
2020/01/31 20:19:09.5	4.090	0.120	0.230	0.740
2020/01/31 20:19:09.6	4.080	0.060	0.220	0.700
2020/01/31 20:19:09.7	4.070	0.000	0.210	0.640
2020/01/31 20:19:09.8	4.070	-0.050	0.190	0.590
2020/01/31 20:19:09.9	4.090	-0.110	0.170	0.520
2020/01/31 20:19:10.0	4.090	-0.160	0.140	0.460
2020/01/31 20:19:10.1	4.090	-0.200	0.110	0.390
2020/01/31 20:19:10.2	4.100	-0.250	0.070	0.310
2020/01/31 20:19:10.3	4.110	-0.290	0.030	0.240
2020/01/31 20:19:10.4	4.120	-0.330	-0.010	0.160
2020/01/31 20:19:10.5	4.140	-0.360	-0.050	0.080
2020/01/31 20:19:10.6	4.150	-0.390	-0.100	0.000
2020/01/31 20:19:10.7	4.170	-0.410	-0.140	-0.080
2020/01/31 20:19:10.8	4.180	-0.430	-0.190	-0.160
2020/01/31 20:19:10.9	4.200	-0.450	-0.230	-0.240
2020/01/31 20:19:11.0	4.220	-0.460	-0.270	-0.310
2020/01/31 20:19:11.1	4.240	-0.470	-0.310	-0.380
2020/01/31 20:19:11.2	4.260	-0.480	-0.350	-0.450
2020/01/31 20:19:11.3	4.270	-0.480	-0.380	-0.510
2020/01/31 20:19:11.4	4.290	-0.480	-0.410	-0.570
2020/01/31 20:19:11.5	4.310	-0.470	-0.440	-0.630
2020/01/31 20:19:11.6	4.330	-0.470	-0.460	-0.680
2020/01/31 20:19:11.7	4.340	-0.450	-0.480	-0.730
2020/01/31 20:19:11.8	4.360	-0.440	-0.500	-0.770
2020/01/31 20:19:11.9	4.380	-0.420	-0.510	-0.810
2020/01/31 20:19:12.0	4.390	-0.400	-0.520	-0.840
2020/01/31 20:19:12.1	4.400	-0.380	-0.520	-0.870
2020/01/31 20:19:12.2	4.410	-0.360	-0.510	-0.890
2020/01/31 20:19:12.3	4.420	-0.330	-0.510	-0.910
2020/01/31 20:19:12.4	4.430	-0.300	-0.500	-0.920
2020/01/31 20:19:12.5	4.440	-0.280	-0.480	-0.930
2020/01/31 20:19:12.6	4.450	-0.250	-0.470	-0.920
2020/01/31 20:19:12.7	4.450	-0.210	-0.450	-0.920
2020/01/31 20:19:12.8	4.460	-0.180	-0.430	-0.910
2020/01/31 20:19:12.9	4.470	-0.150	-0.400	-0.890
2020/01/31 20:19:13.0	4.470	-0.120	-0.380	-0.870
2020/01/31 20:19:13.1	4.470	-0.080	-0.350	-0.840
2020/01/31 20:19:13.2	4.470	-0.050	-0.320	-0.800
2020/01/31 20:19:13.3	4.470	-0.020	-0.290	-0.760
2020/01/31 20:19:13.4	4.480	0.020	-0.270	-0.720
2020/01/31 20:19:13.5	4.470	0.050	-0.240	-0.670
2020/01/31 20:19:13.6	4.470	0.080	-0.210	-0.620
2020/01/31 20:19:13.7	4.470	0.110	-0.190	-0.560
2020/01/31 20:19:13.8	4.470	0.140	-0.160	-0.500
2020/01/31 20:19:13.9	4.460	0.170	-0.140	-0.440
2020/01/31 20:19:14.0	4.460	0.190	-0.120	-0.370
2020/01/31 20:19:14.1	4.450	0.220	-0.100	-0.310
2020/01/31 20:19:14.2	4.450	0.240	-0.090	-0.240
2020/01/31 20:19:14.3	4.440	0.270	-0.070	-0.170
2020/01/31 20:19:14.4	4.430	0.290	-0.060	-0.110
2020/01/31 20:19:14.5	4.430	0.310	-0.050	-0.040
2020/01/31 20:19:14.6	4.420	0.320	-0.040	0.020
2020/01/31 20:19:14.7	4.410	0.340	-0.040	0.080
2020/01/31 20:19:14.8	4.410	0.350	-0.040	0.140
2020/01/31 20:19:14.9	4.410	0.360	-0.040	0.200
2020/01/31 20:19:15.0	4.400	0.360	-0.050	0.260
2020/01/31 20:19:15.1	4.390	0.370	-0.060	0.310
2020/01/31 20:19:15.2	4.390	0.370	-0.070	0.360
2020/01/31 20:19:15.3	4.380	0.370	-0.090	0.400
2020/01/31 20:19:15.4	4.370	0.370	-0.100	0.440
2020/01/31 20:19:15.5	4.360	0.360	-0.120	0.480
2020/01/31 20:19:15.6	4.360	0.360	-0.150	0.520
2020/01/31 20:19:15.7	4.350	0.350	-0.170	0.550
2020/01/31 20:19:15.8	4.340	0.330	-0.200	0.580
2020/01/31 20:19:15.9	4.320	0.320	-0.230	0.610
2020/01/31 20:19:16.0	4.310	0.300	-0.250	0.630
2020/01/31 20:19:16.1	4.300	0.280	-0.280	0.650
2020/01/31 20:19:16.2	4.290	0.260	-0.310	0.660
2020/01/31 20:19:16.3	4.280	0.240	-0.340	0.670
2020/01/31 20:19:16.4	4.270	0.220	-0.370	0.680
2020/01/31 20:19:16.5	4.270	0.190	-0.400	0.680
2020/01/31 20:19:16.6	4.260	0.160	-0.430	0.680
2020/01/31 20:19:16.7	4.250	0.140	-0.460	0.670
2020/01/31 20:19:16.8	4.250	0.110	-0.490	0.660
2020/01/31 20:19:16.9	4.240	0.080	-0.510	0.650
2020/01/31 20:19:17.0	4.240	0.050	-0.540	0.630
2020/01/31 20:19:17.1	4.240	0.020	-0.570	0.600
2020/01/31 20:19:17.2	4.240	-0.010	-0.590	0.570
2020/01/31 20:19:17.3	4.250	-0.030	-0.610	0.540
2020/01/31 20:19:17.4	4.260	-0.060	-0.630	0.500
2020/01/31 20:19:17.5	4.270	-0.090	-0.650	0.460
2020/01/31 20:19:17.6	4.280	-0.110	-0.670	0.420
2020/01/31 20:19:17.7	4.290	-0.140	-0.690	0.370
2020/01/31 20:19:17.8	4.310	-0.160	-0.700	0.320
2020/01/31 20:19:17.9	4.330	-0.180	-0.710	0.260
2020/01/31 20:19:18.0	4.350	-0.200	-0.720	0.200
2020/01/31 20:19:18.1	4.370	-0.220	-0.730	0.150
2020/01/31 20:19:18.2	4.390	-0.240	-0.730	0.090
2020/01/31 20:19:18.3	4.420	-0.250	-0.730	0.030
2020/01/31 20:19:18.4	4.440	-0.260	-0.720	-0.030
2020/01/31 20:19:18.5	4.460	-0.270	-0.720	-0.080
2020/01/31 20:19:18.6	4.490	-0.280	-0.710	-0.140
2020/01/31 20:19:18.7	4.510	-0.280	-0.690	-0.190
2020/01/31 20:19:18.8	4.540	-0.280	-0.670	-0.240
2020/01/31 20:19:18.9	4.560	-0.280	-0.650	-0.290
2020/01/31 20:19:19.0	4.580	-0.280	-0.620	-0.340
2020/01/31 20:19:19.1	4.600	-0.280	-0.590	-0.380
2020/01/31 20:19:19.2	4.620	-0.270	-0.560	-0.420
2020/01/31 20:19:19.3	4.640	-0.260	-0.530	-0.450
2020/01/31 20:19:19.4	4.660	-0.250	-0.490	-0.480
2020/01/31 20:19:19.5	4.670	-0.230	-0.450	-0.510
2020/01/31 20:19:19.6	4.690	-0.220	-0.410	-0.530
2020/01/31 20:19:19.7	4.710	-0.200	-0.370	-0.550
2020/01/31 20:19:19.8	4.720	-0.190	-0.330	-0.570
2020/01/31 20:19:19.9	4.750	-0.170	-0.290	-0.580
2020/01/31 20:19:20.0	4.770	-0.150	-0.250	-0.590
2020/01/31 20:19:20.1	4.780	-0.130	-0.210	-0.590
2020/01/31 20:19:20.2	4.800	-0.100	-0.180	-0.590
2020/01/31 20:19:20.3	4.810	-0.080	-0.140	-0.590
2020/01/31 20:19:20.4	4.830	-0.060	-0.110	-0.590
2020/01/31 20:19:20.5	4.840	-0.040	-0.080	-0.580
2020/01/31 20:19:20.6	4.850	-0.010	-0.050	-0.580
2020/01/31 20:19:20.7	4.870	0.010	-0.020	-0.570
2020/01/31 20:19:20.8	4.880	0.040	-0.000	-0.560
2020/01/31 20:19:20.9	4.900	0.060	0.010	-0.540
2020/01/31 20:19:21.0	4.920	0.080	0.030	-0.530
2020/01/31 20:19:21.1	4.930	0.100	0.050	-0.520
2020/01/31 20:19:21.2	4.940	0.130	0.060	-0.500
2020/01/31 20:19:21.3	4.950	0.150	0.070	-0.490
2020/01/31 20:19:21.4	4.960	0.170	0.070	-0.470
2020/01/31 20:19:21.5	4.970	0.180	0.080	-0.450
2020/01/31 20:19:21.6	4.980	0.200	0.080	-0.430
2020/01/31 20:19:21.7	4.980	0.220	0.090	-0.410
2020/01/31 20:19:21.8	4.990	0.230	0.090	-0.390
2020/01/31 20:19:21.9	4.990	0.240	0.080	-0.370
2020/01/31 20:19:22.0	4.990	0.250	0.080	-0.340
2020/01/31 20:19:22.1	4.990	0.260	0.080	-0.310
2020/01/31 20:19:22.2	4.990	0.270	0.080	-0.290
2020/01/31 20:19:22.3	4.980	0.280	0.080	-0.250
2020/01/31 20:19:22.4	4.980	0.280	0.080	-0.220
2020/01/31 20:19:22.5	4.970	0.280	0.080	-0.190
2020/01/31 20:19:22.6	4.960	0.280	0.080	-0.150
2020/01/31 20:19:22.7	4.950	0.280	0.080	-0.110
2020/01/31 20:19:22.8	4.930	0.270	0.080	-0.080
2020/01/31 20:19:22.9	4.920	0.270	0.090	-0.030
2020/01/31 20:19:23.0	4.900	0.260	0.090	0.010
2020/01/31 20:19:23.1	4.890	0.250	0.100	0.050
2020/01/31 20:19:23.2	4.860	0.240	0.100	0.090
2020/01/31 20:19:23.3	4.840	0.230	0.100	0.130
2020/01/31 20:19:23.4	4.820	0.210	0.110	0.170
2020/01/31 20:19:23.5	4.800	0.200	0.110	0.210
2020/01/31 20:19:23.6	4.770	0.180	0.120	0.250
2020/01/31 20:19:23.7	4.750	0.160	0.120	0.280
2020/01/31 20:19:23.8	4.720	0.140	0.120	0.310
2020/01/31 20:19:23.9	4.700	0.120	0.130	0.350
2020/01/31 20:19:24.0	4.680	0.100	0.130	0.370
2020/01/31 20:19:24.1	4.650	0.080	0.130	0.400
2020/01/31 20:19:24.2	4.620	0.050	0.130	0.420
2020/01/31 20:19:24.3	4.600	0.030	0.130	0.430
2020/01/31 20:19:24.4	4.570	0.000	0.130	0.450
2020/01/31 20:19:24.5	4.540	-0.020	0.130	0.460
2020/01/31 20:19:24.6	4.510	-0.050	0.130	0.460
2020/01/31 20:19:24.7	4.480	-0.080	0.130	0.460
2020/01/31 20:19:24.8	4.450	-0.110	0.120	0.460
2020/01/31 20:19:24.9	4.410	-0.140	0.120	0.450
2020/01/31 20:19:25.0	4.380	-0.170	0.110	0.440
2020/01/31 20:19:25.1	4.350	-0.200	0.110	0.430
2020/01/31 20:19:25.2	4.310	-0.230	0.100	0.410
2020/01/31 20:19:25.3	4.280	-0.250	0.090	0.390
2020/01/31 20:19:25.4	4.240	-0.280	0.090	0.370
2020/01/31 20:19:25.5	4.210	-0.310	0.080	0.340
2020/01/31 20:19:25.6	4.180	-0.340	0.060	0.310
2020/01/31 20:19:25.7	4.150	-0.360	0.050	0.290
2020/01/31 20:19:25.8	4.120	-0.390	0.040	0.260
2020/01/31 20:19:25.9	4.080	-0.410	0.020	0.230
2020/01/31 20:19:26.0	4.060	-0.430	-0.000	0.190
2020/01/31 20:19:26.1	4.030	-0.440	-0.020	0.160
2020/01/31 20:19:26.2	4.010	-0.460	-0.050	0.130
2020/01/31 20:19:26.3	4.000	-0.470	-0.080	0.090
2020/01/31 20:19:26.4	3.990	-0.480	-0.110	0.050
2020/01/31 20:19:26.5	3.980	-0.490	-0.150	0.010
2020/01/31 20:19:26.6	3.980	-0.490	-0.190	-0.030
2020/01/31 20:19:26.7	3.980	-0.490	-0.240	-0.070
2020/01/31 20:19:26.8	3.990	-0.480	-0.290	-0.120
2020/01/31 20:19:26.9	4.000	-0.470	-0.350	-0.170
2020/01/31 20:19:27.0	4.020	-0.460	-0.410	-0.220
2020/01/31 20:19:27.1	4.040	-0.450	-0.480	-0.270
2020/01/31 20:19:27.2	4.070	-0.430	-0.550	-0.330
2020/01/31 20:19:27.3	4.110	-0.400	-0.620	-0.390
2020/01/31 20:19:27.4	4.150	-0.380	-0.690	-0.450
2020/01/31 20:19:27.5	4.200	-0.350	-0.770	-0.510
2020/01/31 20:19:27.6	4.240	-0.320	-0.850	-0.570
2020/01/31 20:19:27.7	4.300	-0.280	-0.930	-0.630
2020/01/31 20:19:27.8	4.350	-0.240	-1.010	-0.690
2020/01/31 20:19:27.9	4.420	-0.200	-1.090	-0.760
2020/01/31 20:19:28.0	4.480	-0.160	-1.160	-0.820
2020/01/31 20:19:28.1	4.540	-0.120	-1.230	-0.870
2020/01/31 20:19:28.2	4.600	-0.080	-1.300	-0.930
2020/01/31 20:19:28.3	4.670	-0.030	-1.360	-0.980
2020/01/31 20:19:28.4	4.730	0.010	-1.420	-1.030
2020/01/31 20:19:28.5	4.790	0.060	-1.470	-1.080
2020/01/31 20:19:28.6	4.860	0.100	-1.510	-1.120
2020/01/31 20:19:28.7	4.920	0.150	-1.540	-1.160
2020/01/31 20:19:28.8	4.980	0.190	-1.560	-1.190
2020/01/31 20:19:28.9	5.040	0.230	-1.570	-1.220
2020/01/31 20:19:29.0	5.090	0.270	-1.580	-1.240
2020/01/31 20:19:29.1	5.150	0.300	-1.570	-1.250
2020/01/31 20:19:29.2	5.200	0.340	-1.550	-1.260
2020/01/31 20:19:29.3	5.250	0.370	-1.520	-1.260
2020/01/31 20:19:29.4	5.300	0.400	-1.470	-1.250
2020/01/31 20:19:29.5	5.340	0.420	-1.420	-1.240
2020/01/31 20:19:29.6	5.370	0.440	-1.350	-1.210
2020/01/31 20:19:29.7	5.410	0.460	-1.280	-1.180
2020/01/31 20:19:29.8	5.430	0.470	-1.190	-1.150
2020/01/31 20:19:29.9	5.450	0.480	-1.100	-1.100
2020/01/31 20:19:30.0	5.470	0.480	-0.990	-1.050
2020/01/31 20:19:30.1	5.480	0.480	-0.880	-0.990
2020/01/31 20:19:30.2	5.490	0.480	-0.750	-0.930
2020/01/31 20:19:30.3	5.490	0.470	-0.630	-0.860
2020/01/31 20:19:30.4	5.490	0.460	-0.500	-0.790
2020/01/31 20:19:30.5	5.480	0.440	-0.360	-0.710
2020/01/31 20:19:30.6	5.470	0.420	-0.220	-0.640
2020/01/31 20:19:30.7	5.450	0.390	-0.090	-0.560
2020/01/31 20:19:30.8	5.430	0.360	0.050	-0.480
2020/01/31 20:19:30.9	5.410	0.330	0.190	-0.400
2020/01/31 20:19:31.0	5.390	0.290	0.320	-0.320
2020/01/31 20:19:31.1	5.360	0.250	0.440	-0.250
2020/01/31 20:19:31.2	5.330	0.210	0.560	-0.180
2020/01/31 20:19:31.3	5.300	0.170	0.670	-0.110
2020/01/31 20:19:31.4	5.270	0.120	0.770	-0.040
2020/01/31 20:19:31.5	5.240	0.080	0.860	0.010
2020/01/31 20:19:31.6	5.210	0.040	0.950	0.070
2020/01/31 20:19:31.7	5.190	-0.010	1.020	0.120
2020/01/31 20:19:31.8	5.160	-0.050	1.080	0.160
2020/01/31 20:19:31.9	5.150	-0.090	1.120	0.190
2020/01/31 20:19:32.0	5.130	-0.130	1.150	0.230
2020/01/31 20:19:32.1	5.110	-0.160	1.170	0.250
2020/01/31 20:19:32.2	5.090	-0.200	1.180	0.270
2020/01/31 20:19:32.3	5.070	-0.230	1.180	0.290
2020/01/31 20:19:32.4	5.060	-0.250	1.170	0.300
2020/01/31 20:19:32.5	5.040	-0.280	1.140	0.300
2020/01/31 20:19:32.6	5.030	-0.290	1.100	0.300
2020/01/31 20:19:32.7	5.020	-0.310	1.050	0.300
2020/01/31 20:19:32.8	5.010	-0.310	0.990	0.290
2020/01/31 20:19:32.9	5.010	-0.320	0.920	0.280
2020/01/31 20:19:33.0	5.010	-0.320	0.840	0.270
2020/01/31 20:19:33.1	5.000	-0.310	0.750	0.260
2020/01/31 20:19:33.2	5.000	-0.300	0.660	0.240
2020/01/31 20:19:33.3	5.000	-0.280	0.560	0.220
2020/01/31 20:19:33.4	5.000	-0.260	0.450	0.200
2020/01/31 20:19:33.5	5.000	-0.240	0.340	0.180
2020/01/31 20:19:33.6	5.000	-0.210	0.230	0.150
2020/01/31 20:19:33.7	5.000	-0.180	0.110	0.130
2020/01/31 20:19:33.8	5.000	-0.150	-0.010	0.100
2020/01/31 20:19:33.9	5.010	-0.110	-0.120	0.070
2020/01/31 20:19:34.0	5.010	-0.080	-0.240	0.050
2020/01/31 20:19:34.1	5.010	-0.040	-0.350	0.020
2020/01/31 20:19:34.2	5.010	0.000	-0.460	-0.010
2020/01/31 20:19:34.3	5.010	0.040	-0.560	-0.040
2020/01/31 20:19:34.4	5.000	0.090	-0.660	-0.060
2020/01/31 20:19:34.5	5.000	0.130	-0.760	-0.090
2020/01/31 20:19:34.6	5.000	0.170	-0.840	-0.110
2020/01/31 20:19:34.7	5.000	0.200	-0.920	-0.140
2020/01/31 20:19:34.8	4.990	0.240	-0.990	-0.160
2020/01/31 20:19:34.9	5.000	0.270	-1.050	-0.170
2020/01/31 20:19:35.0	4.990	0.300	-1.100	-0.190
2020/01/31 20:19:35.1	4.980	0.330	-1.140	-0.200
2020/01/31 20:19:35.2	4.970	0.360	-1.170	-0.210
2020/01/31 20:19:35.3	4.960	0.380	-1.190	-0.210
2020/01/31 20:19:35.4	4.940	0.400	-1.200	-0.220
2020/01/31 20:19:35.5	4.930	0.410	-1.200	-0.220
2020/01/31 20:19:35.6	4.910	0.420	-1.190	-0.220
2020/01/31 20:19:35.7	4.900	0.430	-1.170	-0.220
2020/01/31 20:19:35.8	4.880	0.430	-1.150	-0.210
2020/01/31 20:19:35.9	4.860	0.430	-1.110	-0.210
2020/01/31 20:19:36.0	4.850	0.420	-1.070	-0.200
2020/01/31 20:19:36.1	4.830	0.410	-1.020	-0.190
2020/01/31 20:19:36.2	4.810	0.400	-0.960	-0.190
2020/01/31 20:19:36.3	4.800	0.380	-0.900	-0.180
2020/01/31 20:19:36.4	4.780	0.360	-0.840	-0.180
2020/01/31 20:19:36.5	4.770	0.330	-0.770	-0.170
2020/01/31 20:19:36.6	4.760	0.300	-0.700	-0.170
2020/01/31 20:19:36.7	4.760	0.270	-0.630	-0.170
2020/01/31 20:19:36.8	4.760	0.240	-0.560	-0.170
2020/01/31 20:19:36.9	4.750	0.210	-0.490	-0.170
2020/01/31 20:19:37.0	4.760	0.170	-0.420	-0.180
2020/01/31 20:19:37.1	4.760	0.140	-0.350	-0.190
2020/01/31 20:19:37.2	4.770	0.100	-0.290	-0.200
2020/01/31 20:19:37.3	4.790	0.060	-0.230	-0.220
2020/01/31 20:19:37.4	4.810	0.030	-0.170	-0.240
2020/01/31 20:19:37.5	4.830	-0.010	-0.120	-0.260
2020/01/31 20:19:37.6	4.850	-0.050	-0.070	-0.280
2020/01/31 20:19:37.7	4.880	-0.090	-0.020	-0.310
2020/01/31 20:19:37.8	4.900	-0.120	0.020	-0.330
2020/01/31 20:19:37.9	4.930	-0.160	0.060	-0.360
2020/01/31 20:19:38.0	4.960	-0.200	0.090	-0.390
2020/01/31 20:19:38.1	4.990	-0.230	0.130	-0.420
2020/01/31 20:19:38.2	5.020	-0.260	0.150	-0.440
2020/01/31 20:19:38.3	5.050	-0.300	0.180	-0.470
2020/01/31 20:19:38.4	5.080	-0.330	0.200	-0.500
2020/01/31 20:19:38.5	5.100	-0.360	0.220	-0.520
2020/01/31 20:19:38.6	5.130	-0.390	0.230	-0.540
2020/01/31 20:19:38.7	5.150	-0.410	0.250	-0.560
2020/01/31 20:19:38.8	5.180	-0.440	0.260	-0.590
2020/01/31 20:19:38.9	5.200	-0.460	0.270	-0.600
2020/01/31 20:19:39.0	5.220	-0.480	0.270	-0.620
2020/01/31 20:19:39.1	5.240	-0.500	0.270	-0.640
2020/01/31 20:19:39.2	5.270	-0.510	0.280	-0.650
2020/01/31 20:19:39.3	5.290	-0.530	0.270	-0.670
2020/01/31 20:19:39.4	5.310	-0.540	0.270	-0.680
2020/01/31 20:19:39.5	5.330	-0.550	0.260	-0.680
2020/01/31 20:19:39.6	5.350	-0.550	0.250	-0.690
2020/01/31 20:19:39.7	5.360	-0.550	0.240	-0.690
2020/01/31 20:19:39.8	5.380	-0.550	0.230	-0.690
2020/01/31 20:19:39.9	5.390	-0.550	0.200	-0.680
2020/01/31 20:19:40.0	5.410	-0.540	0.190	-0.670
2020/01/31 20:19:40.1	5.430	-0.530	0.160	-0.660
2020/01/31 20:19:40.2	5.440	-0.510	0.140	-0.650
2020/01/31 20:19:40.3	5.460	-0.500	0.110	-0.630
2020/01/31 20:19:40.4	5.470	-0.470	0.080	-0.610
2020/01/31 20:19:40.5	5.490	-0.450	0.050	-0.580
2020/01/31 20:19:40.6	5.500	-0.420	0.020	-0.550
2020/01/31 20:19:40.7	5.510	-0.400	-0.020	-0.520
2020/01/31 20:19:40.8	5.530	-0.360	-0.050	-0.480
2020/01/31 20:19:40.9	5.530	-0.330	-0.090	-0.440
2020/01/31 20:19:41.0	5.530	-0.300	-0.130	-0.400
2020/01/31 20:19:41.1	5.540	-0.260	-0.160	-0.360
2020/01/31 20:19:41.2	5.540	-0.220	-0.200	-0.310
2020/01/31 20:19:41.3	5.550	-0.190	-0.240	-0.260
2020/01/31 20:19:41.4	5.540	-0.150	-0.280	-0.220
2020/01/31 20:19:41.5	5.540	-0.110	-0.310	-0.170
2020/01/31 20:19:41.6	5.530	-0.070	-0.340	-0.120
2020/01/31 20:19:41.7	5.520	-0.040	-0.370	-0.070
2020/01/31 20:19:41.8	5.510	-0.000	-0.400	-0.020
2020/01/31 20:19:41.9	5.500	0.030	-0.430	0.040
2020/01/31 20:19:42.0	5.480	0.060	-0.450	0.090
2020/01/31 20:19:42.1	5.460	0.090	-0.470	0.140
2020/01/31 20:19:42.2	5.430	0.120	-0.490	0.190
2020/01/31 20:19:42.3	5.410	0.140	-0.500	0.230
2020/01/31 20:19:42.4	5.380	0.160	-0.510	0.280
2020/01/31 20:19:42.5	5.350	0.180	-0.510	0.310
2020/01/31 20:19:42.6	5.320	0.200	-0.520	0.350
2020/01/31 20:19:42.7	5.290	0.210	-0.520	0.380
2020/01/31 20:19:42.8	5.260	0.230	-0.510	0.410
2020/01/31 20:19:42.9	5.220	0.230	-0.510	0.430
2020/01/31 20:19:43.0	5.190	0.240	-0.500	0.450
2020/01/31 20:19:43.1	5.160	0.240	-0.490	0.460
2020/01/31 20:19:43.2	5.130	0.240	-0.480	0.470
2020/01/31 20:19:43.3	5.110	0.240	-0.470	0.470
2020/01/31 20:19:43.4	5.080	0.230	-0.460	0.470
2020/01/31 20:19:43.5	5.060	0.230	-0.440	0.460
2020/01/31 20:19:43.6	5.050	0.220	-0.430	0.450
2020/01/31 20:19:43.7	5.030	0.210	-0.420	0.420
2020/01/31 20:19:43.8	5.020	0.200	-0.410	0.400
2020/01/31 20:19:43.9	5.030	0.190	-0.400	0.370
2020/01/31 20:19:44.0	5.030	0.180	-0.390	0.340
2020/01/31 20:19:44.1	5.030	0.170	-0.380	0.300
2020/01/31 20:19:44.2	5.030	0.160	-0.370	0.260
2020/01/31 20:19:44.3	5.040	0.150	-0.370	0.210
2020/01/31 20:19:44.4	5.050	0.140	-0.370	0.160
2020/01/31 20:19:44.5	5.060	0.130	-0.370	0.110
2020/01/31 20:19:44.6	5.080	0.120	-0.380	0.060
2020/01/31 20:19:44.7	5.100	0.110	-0.380	0.000
2020/01/31 20:19:44.8	5.120	0.110	-0.390	-0.050
2020/01/31 20:19:44.9	5.150	0.100	-0.400	-0.110
2020/01/31 20:19:45.0	5.180	0.100	-0.410	-0.170
2020/01/31 20:19:45.1	5.200	0.100	-0.420	-0.220
2020/01/31 20:19:45.2	5.230	0.090	-0.430	-0.280
2020/01/31 20:19:45.3	5.260	0.090	-0.440	-0.330
2020/01/31 20:19:45.4	5.300	0.090	-0.450	-0.380
2020/01/31 20:19:45.5	5.330	0.090	-0.460	-0.430
2020/01/31 20:19:45.6	5.360	0.090	-0.470	-0.480
2020/01/31 20:19:45.7	5.390	0.090	-0.470	-0.530
2020/01/31 20:19:45.8	5.420	0.090	-0.480	-0.580
2020/01/31 20:19:45.9	5.460	0.090	-0.480	-0.620
2020/01/31 20:19:46.0	5.490	0.090	-0.480	-0.660
2020/01/31 20:19:46.1	5.510	0.090	-0.480	-0.700
2020/01/31 20:19:46.2	5.540	0.090	-0.470	-0.740
2020/01/31 20:19:46.3	5.560	0.090	-0.470	-0.770
2020/01/31 20:19:46.4	5.590	0.090	-0.460	-0.800
2020/01/31 20:19:46.5	5.610	0.090	-0.450	-0.830
2020/01/31 20:19:46.6	5.630	0.080	-0.440	-0.850
2020/01/31 20:19:46.7	5.650	0.080	-0.430	-0.870
2020/01/31 20:19:46.8	5.670	0.080	-0.420	-0.880
2020/01/31 20:19:46.9	5.680	0.070	-0.420	-0.890
2020/01/31 20:19:47.0	5.700	0.070	-0.400	-0.900
2020/01/31 20:19:47.1	5.710	0.070	-0.390	-0.900
2020/01/31 20:19:47.2	5.730	0.060	-0.380	-0.890
2020/01/31 20:19:47.3	5.740	0.060	-0.370	-0.890
2020/01/31 20:19:47.4	5.750	0.060	-0.360	-0.880
2020/01/31 20:19:47.5	5.770	0.050	-0.350	-0.860
2020/01/31 20:19:47.6	5.780	0.050	-0.340	-0.850
2020/01/31 20:19:47.7	5.790	0.050	-0.330	-0.830
2020/01/31 20:19:47.8	5.800	0.040	-0.320	-0.810
2020/01/31 20:19:47.9	5.820	0.040	-0.300	-0.780
2020/01/31 20:19:48.0	5.820	0.040	-0.300	-0.760
2020/01/31 20:19:48.1	5.830	0.040	-0.290	-0.730
2020/01/31 20:19:48.2	5.840	0.040	-0.280	-0.700
2020/01/31 20:19:48.3	5.840	0.040	-0.280	-0.670
2020/01/31 20:19:48.4	5.850	0.040	-0.270	-0.640
2020/01/31 20:19:48.5	5.850	0.040	-0.270	-0.610
2020/01/31 20:19:48.6	5.850	0.050	-0.260	-0.580
2020/01/31 20:19:48.7	5.850	0.050	-0.260	-0.550
2020/01/31 20:19:48.8	5.850	0.050	-0.250	-0.520
2020/01/31 20:19:48.9	5.850	0.060	-0.250	-0.490
2020/01/31 20:19:49.0	5.840	0.070	-0.250	-0.460
2020/01/31 20:19:49.1	5.840	0.070	-0.250	-0.440
2020/01/31 20:19:49.2	5.840	0.080	-0.240	-0.420
2020/01/31 20:19:49.3	5.840	0.090	-0.240	-0.390
2020/01/31 20:19:49.4	5.840	0.100	-0.240	-0.380
2020/01/31 20:19:49.5	5.830	0.110	-0.230	-0.360
2020/01/31 20:19:49.6	5.830	0.120	-0.230	-0.340
2020/01/31 20:19:49.7	5.830	0.130	-0.230	-0.330
2020/01/31 20:19:49.8	5.830	0.140	-0.220	-0.320
2020/01/31 20:19:49.9	5.820	0.150	-0.220	-0.310
2020/01/31 20:19:50.0	5.820	0.160	-0.210	-0.290
2020/01/31 20:19:50.1	5.820	0.170	-0.200	-0.280
2020/01/31 20:19:50.2	5.820	0.180	-0.190	-0.270
2020/01/31 20:19:50.3	5.820	0.190	-0.180	-0.260
2020/01/31 20:19:50.4	5.820	0.200	-0.170	-0.250
2020/01/31 20:19:50.5	5.830	0.210	-0.160	-0.240
2020/01/31 20:19:50.6	5.830	0.220	-0.140	-0.230
2020/01/31 20:19:50.7	5.830	0.230	-0.130	-0.220
2020/01/31 20:19:50.8	5.840	0.230	-0.110	-0.200
2020/01/31 20:19:50.9	5.840	0.230	-0.090	-0.190
2020/01/31 20:19:51.0	5.850	0.240	-0.060	-0.170
2020/01/31 20:19:51.1	5.850	0.240	-0.040	-0.160
2020/01/31 20:19:51.2	5.860	0.240	-0.010	-0.140
2020/01/31 20:19:51.3	5.860	0.230	0.010	-0.130
2020/01/31 20:19:51.4	5.860	0.230	0.040	-0.120
2020/01/31 20:19:51.5	5.870	0.220	0.070	-0.100
2020/01/31 20:19:51.6	5.880	0.210	0.100	-0.090
2020/01/31 20:19:51.7	5.880	0.200	0.130	-0.080
2020/01/31 20:19:51.8	5.880	0.190	0.160	-0.070
2020/01/31 20:19:51.9	5.890	0.170	0.180	-0.060
2020/01/31 20:19:52.0	5.890	0.160	0.210	-0.050
2020/01/31 20:19:52.1	5.900	0.140	0.230	-0.040
2020/01/31 20:19:52.2	5.900	0.120	0.260	-0.030
2020/01/31 20:19:52.3	5.900	0.100	0.280	-0.030
2020/01/31 20:19:52.4	5.900	0.080	0.300	-0.020
2020/01/31 20:19:52.5	5.900	0.050	0.320	-0.020
2020/01/31 20:19:52.6	5.900	0.030	0.330	-0.010
2020/01/31 20:19:52.7	5.890	0.000	0.340	-0.010
2020/01/31 20:19:52.8	5.880	-0.020	0.360	-0.010
2020/01/31 20:19:52.9	5.880	-0.050	0.360	-0.000
2020/01/31 20:19:53.0	5.870	-0.080	0.370	0.000
2020/01/31 20:19:53.1	5.860	-0.100	0.370	0.000
2020/01/31 20:19:53.2	5.840	-0.130	0.370	0.010
2020/01/31 20:19:53.3	5.830	-0.160	0.360	0.010
2020/01/31 20:19:53.4	5.810	-0.190	0.360	0.010
2020/01/31 20:19:53.5	5.790	-0.210	0.350	0.010
2020/01/31 20:19:53.6	5.780	-0.240	0.330	0.000
2020/01/31 20:19:53.7	5.760	-0.270	0.320	-0.000
2020/01/31 20:19:53.8	5.740	-0.290	0.290	-0.010
2020/01/31 20:19:53.9	5.740	-0.310	0.260	-0.020
2020/01/31 20:19:54.0	5.730	-0.340	0.240	-0.030
2020/01/31 20:19:54.1	5.720	-0.360	0.200	-0.050
2020/01/31 20:19:54.2	5.710	-0.380	0.170	-0.070
2020/01/31 20:19:54.3	5.700	-0.390	0.130	-0.090
2020/01/31 20:19:54.4	5.700	-0.410	0.090	-0.120
2020/01/31 20:19:54.5	5.700	-0.420	0.040	-0.150
2020/01/31 20:19:54.6	5.700	-0.430	-0.010	-0.180
2020/01/31 20:19:54.7	5.700	-0.440	-0.060	-0.220
2020/01/31 20:19:54.8	5.710	-0.450	-0.110	-0.250
2020/01/31 20:19:54.9	5.710	-0.460	-0.160	-0.290
2020/01/31 20:19:55.0	5.720	-0.460	-0.220	-0.330
2020/01/31 20:19:55.1	5.730	-0.460	-0.280	-0.370
2020/01/31 20:19:55.2	5.740	-0.460	-0.340	-0.410
2020/01/31 20:19:55.3	5.750	-0.460	-0.400	-0.450
2020/01/31 20:19:55.4	5.760	-0.460	-0.460	-0.490
2020/01/31 20:19:55.5	5.770	-0.460	-0.520	-0.530
2020/01/31 20:19:55.6	5.780	-0.450	-0.580	-0.570
2020/01/31 20:19:55.7	5.790	-0.440	-0.630	-0.610
2020/01/31 20:19:55.8	5.810	-0.440	-0.690	-0.640
2020/01/31 20:19:55.9	5.830	-0.430	-0.740	-0.680
2020/01/31 20:19:56.0	5.840	-0.420	-0.790	-0.710
2020/01/31 20:19:56.1	5.850	-0.400	-0.830	-0.740
2020/01/31 20:19:56.2	5.860	-0.390	-0.870	-0.760
2020/01/31 20:19:56.3	5.870	-0.380	-0.900	-0.790
2020/01/31 20:19:56.4	5.880	-0.360	-0.930	-0.810
2020/01/31 20:19:56.5	5.890	-0.350	-0.960	-0.830
2020/01/31 20:19:56.6	5.900	-0.330	-0.980	-0.850
2020/01/31 20:19:56.7	5.920	-0.320	-1.000	-0.860
2020/01/31 20:19:56.8	5.930	-0.300	-1.020	-0.880
2020/01/31 20:19:56.9	5.940	-0.280	-1.030	-0.890
2020/01/31 20:19:57.0	5.960	-0.260	-1.040	-0.900
2020/01/31 20:19:57.1	5.970	-0.240	-1.040	-0.900
2020/01/31 20:19:57.2	5.990	-0.220	-1.040	-0.910
2020/01/31 20:19:57.3	6.020	-0.200	-1.040	-0.910
2020/01/31 20:19:57.4	6.040	-0.180	-1.040	-0.920
2020/01/31 20:19:57.5	6.070	-0.150	-1.040	-0.920
2020/01/31 20:19:57.6	6.090	-0.130	-1.030	-0.920
2020/01/31 20:19:57.7	6.120	-0.100	-1.030	-0.920
2020/01/31 20:19:57.8	6.160	-0.070	-1.020	-0.920
2020/01/31 20:19:57.9	6.200	-0.040	-1.010	-0.920
2020/01/31 20:19:58.0	6.240	-0.010	-1.000	-0.910
2020/01/31 20:19:58.1	6.280	0.020	-0.990	-0.910
2020/01/31 20:19:58.2	6.310	0.060	-0.970	-0.900
2020/01/31 20:19:58.3	6.350	0.090	-0.960	-0.890
2020/01/31 20:19:58.4	6.390	0.120	-0.940	-0.880
2020/01/31 20:19:58.5	6.430	0.160	-0.930	-0.860
2020/01/31 20:19:58.6	6.460	0.190	-0.910	-0.850
2020/01/31 20:19:58.7	6.500	0.230	-0.890	-0.830
2020/01/31 20:19:58.8	6.540	0.260	-0.870	-0.810
2020/01/31 20:19:58.9	6.570	0.300	-0.840	-0.780
2020/01/31 20:19:59.0	6.600	0.330	-0.820	-0.760
2020/01/31 20:19:59.1	6.630	0.360	-0.790	-0.730
2020/01/31 20:19:59.2	6.660	0.390	-0.760	-0.710
2020/01/31 20:19:59.3	6.690	0.420	-0.720	-0.680
2020/01/31 20:19:59.4	6.720	0.450	-0.680	-0.650
2020/01/31 20:19:59.5	6.740	0.480	-0.650	-0.610
2020/01/31 20:19:59.6	6.760	0.500	-0.600	-0.580
2020/01/31 20:19:59.7	6.780	0.520	-0.560	-0.550
2020/01/31 20:19:59.8	6.800	0.540	-0.510	-0.510
2020/01/31 20:19:59.9	6.800	0.550	-0.460	-0.480
2020/01/31 20:20:00.0	6.810	0.570	-0.410	-0.440
2020/01/31 20:20:00.1	6.820	0.580	-0.360	-0.400
2020/01/31 20:20:00.2	6.830	0.580	-0.300	-0.360
2020/01/31 20:20:00.3	6.830	0.580	-0.240	-0.330
2020/01/31 20:20:00.4	6.840	0.580	-0.180	-0.290
2020/01/31 20:20:00.5	6.840	0.580	-0.120	-0.250
2020/01/31 20:20:00.6	6.840	0.570	-0.060	-0.210
2020/01/31 20:20:00.7	6.830	0.560	0.000	-0.170
2020/01/31 20:20:00.8	6.820	0.540	0.060	-0.130
2020/01/31 20:20:00.9	6.810	0.520	0.130	-0.090
2020/01/31 20:20:01.0	6.800	0.500	0.190	-0.060
2020/01/31 20:20:01.1	6.790	0.470	0.250	-0.020
2020/01/31 20:20:01.2	6.770	0.440	0.310	0.020
2020/01/31 20:20:01.3	6.750	0.400	0.370	0.050
2020/01/31 20:20:01.4	6.730	0.360	0.430	0.090
2020/01/31 20:20:01.5	6.700	0.320	0.480	0.120
2020/01/31 20:20:01.6	6.680	0.280	0.530	0.140
2020/01/31 20:20:01.7	6.650	0.240	0.580	0.170
2020/01/31 20:20:01.8	6.620	0.190	0.630	0.200
2020/01/31 20:20:01.9	6.580	0.140	0.660	0.220
2020/01/31 20:20:02.0	6.540	0.090	0.700	0.240
2020/01/31 20:20:02.1	6.500	0.040	0.740	0.260
2020/01/31 20:20:02.2	6.470	-0.010	0.770	0.270
2020/01/31 20:20:02.3	6.430	-0.060	0.800	0.280
2020/01/31 20:20:02.4	6.390	-0.110	0.820	0.300
2020/01/31 20:20:02.5	6.340	-0.160	0.840	0.300
2020/01/31 20:20:02.6	6.300	-0.210	0.860	0.310
2020/01/31 20:20:02.7	6.260	-0.260	0.870	0.320
2020/01/31 20:20:02.8	6.210	-0.300	0.870	0.320
2020/01/31 20:20:02.9	6.160	-0.350	0.870	0.320
2020/01/31 20:20:03.0	6.120	-0.390	0.870	0.320
2020/01/31 20:20:03.1	6.070	-0.420	0.860	0.320
2020/01/31 20:20:03.2	6.030	-0.450	0.840	0.310
2020/01/31 20:20:03.3	5.990	-0.480	0.820	0.310
2020/01/31 20:20:03.4	5.950	-0.510	0.800	0.300
2020/01/31 20:20:03.5	5.910	-0.530	0.760	0.290
2020/01/31 20:20:03.6	5.870	-0.540	0.720	0.270
2020/01/31 20:20:03.7	5.830	-0.550	0.680	0.260
2020/01/31 20:20:03.8	5.800	-0.560	0.630	0.240
2020/01/31 20:20:03.9	5.780	-0.560	0.570	0.220
2020/01/31 20:20:04.0	5.750	-0.550	0.510	0.200
2020/01/31 20:20:04.1	5.720	-0.540	0.440	0.170
2020/01/31 20:20:04.2	5.700	-0.530	0.370	0.150
2020/01/31 20:20:04.3	5.680	-0.510	0.300	0.120
2020/01/31 20:20:04.4	5.660	-0.490	0.220	0.100
2020/01/31 20:20:04.5	5.640	-0.460	0.130	0.070
2020/01/31 20:20:04.6	5.620	-0.430	0.050	0.040
2020/01/31 20:20:04.7	5.610	-0.390	-0.040	0.010
2020/01/31 20:20:04.8	5.600	-0.350	-0.130	-0.020
2020/01/31 20:20:04.9	5.600	-0.310	-0.220	-0.050
2020/01/31 20:20:05.0	5.590	-0.260	-0.310	-0.080
2020/01/31 20:20:05.1	5.590	-0.220	-0.400	-0.100
2020/01/31 20:20:05.2	5.590	-0.170	-0.490	-0.130
2020/01/31 20:20:05.3	5.600	-0.120	-0.570	-0.160
2020/01/31 20:20:05.4	5.600	-0.070	-0.660	-0.190
2020/01/31 20:20:05.5	5.610	-0.020	-0.740	-0.210
2020/01/31 20:20:05.6	5.630	0.030	-0.810	-0.240
2020/01/31 20:20:05.7	5.640	0.080	-0.880	-0.270
2020/01/31 20:20:05.8	5.660	0.130	-0.950	-0.290
2020/01/31 20:20:05.9	5.680	0.170	-1.010	-0.320
2020/01/31 20:20:06.0	5.700	0.220	-1.070	-0.340
2020/01/31 20:20:06.1	5.720	0.260	-1.120	-0.370
2020/01/31 20:20:06.2	5.750	0.300	-1.170	-0.390
2020/01/31 20:20:06.3	5.770	0.340	-1.210	-0.420
2020/01/31 20:20:06.4	5.800	0.370	-1.240	-0.440
2020/01/31 20:20:06.5	5.830	0.400	-1.270	-0.460
2020/01/31 20:20:06.6	5.860	0.430	-1.290	-0.480
2020/01/31 20:20:06.7	5.890	0.450	-1.300	-0.500
2020/01/31 20:20:06.8	5.920	0.470	-1.310	-0.520
2020/01/31 20:20:06.9	5.960	0.480	-1.310	-0.530
2020/01/31 20:20:07.0	5.990	0.500	-1.310	-0.550
2020/01/31 20:20:07.1	6.020	0.500	-1.300	-0.550
2020/01/31 20:20:07.2	6.060	0.510	-1.290	-0.560
2020/01/31 20:20:07.3	6.090	0.510	-1.270	-0.570
2020/01/31 20:20:07.4	6.130	0.510	-1.240	-0.570
2020/01/31 20:20:07.5	6.160	0.500	-1.210	-0.570
2020/01/31 20:20:07.6	6.200	0.490	-1.180	-0.570
2020/01/31 20:20:07.7	6.230	0.480	-1.150	-0.560
2020/01/31 20:20:07.8	6.270	0.460	-1.110	-0.560
2020/01/31 20:20:07.9	6.300	0.440	-1.070	-0.550
2020/01/31 20:20:08.0	6.340	0.420	-1.030	-0.540
2020/01/31 20:20:08.1	6.370	0.400	-0.990	-0.540
2020/01/31 20:20:08.2	6.410	0.370	-0.940	-0.530
2020/01/31 20:20:08.3	6.450	0.340	-0.900	-0.530
2020/01/31 20:20:08.4	6.480	0.310	-0.850	-0.530
2020/01/31 20:20:08.5	6.520	0.280	-0.800	-0.530
2020/01/31 20:20:08.6	6.560	0.250	-0.760	-0.520
2020/01/31 20:20:08.7	6.600	0.210	-0.710	-0.530
2020/01/31 20:20:08.8	6.640	0.180	-0.670	-0.530
2020/01/31 20:20:08.9	6.670	0.140	-0.630	-0.530
2020/01/31 20:20:09.0	6.710	0.100	-0.580	-0.540
2020/01/31 20:20:09.1	6.750	0.070	-0.540	-0.550
2020/01/31 20:20:09.2	6.780	0.030	-0.490	-0.550
2020/01/31 20:20:09.3	6.820	-0.010	-0.450	-0.550
2020/01/31 20:20:09.4	6.850	-0.050	-0.410	-0.560
2020/01/31 20:20:09.5	6.880	-0.090	-0.360	-0.560
2020/01/31 20:20:09.6	6.900	-0.120	-0.320	-0.560
2020/01/31 20:20:09.7	6.930	-0.160	-0.270	-0.560
2020/01/31 20:20:09.8	6.950	-0.200	-0.230	-0.550
2020/01/31 20:20:09.9	6.960	-0.230	-0.180	-0.540
2020/01/31 20:20:10.0	6.970	-0.270	-0.130	-0.530
2020/01/31 20:20:10.1	6.980	-0.300	-0.090	-0.520
2020/01/31 20:20:10.2	6.990	-0.330	-0.040	-0.510
2020/01/31 20:20:10.3	6.990	-0.360	0.010	-0.500
2020/01/31 20:20:10.4	6.990	-0.390	0.060	-0.480
2020/01/31 20:20:10.5	6.990	-0.420	0.100	-0.460
2020/01/31 20:20:10.6	6.980	-0.450	0.150	-0.440
2020/01/31 20:20:10.7	6.980	-0.470	0.190	-0.430
2020/01/31 20:20:10.8	6.970	-0.500	0.240	-0.410
2020/01/31 20:20:10.9	6.950	-0.520	0.280	-0.390
2020/01/31 20:20:11.0	6.930	-0.540	0.320	-0.370
2020/01/31 20:20:11.1	6.920	-0.550	0.360	-0.350
2020/01/31 20:20:11.2	6.900	-0.570	0.400	-0.340
2020/01/31 20:20:11.3	6.870	-0.580	0.430	-0.320
2020/01/31 20:20:11.4	6.850	-0.590	0.460	-0.300
2020/01/31 20:20:11.5	6.820	-0.600	0.490	-0.290
2020/01/31 20:20:11.6	6.800	-0.610	0.510	-0.270
2020/01/31 20:20:11.7	6.760	-0.610	0.530	-0.250
2020/01/31 20:20:11.8	6.730	-0.610	0.550	-0.230
2020/01/31 20:20:11.9	6.690	-0.610	0.550	-0.210
2020/01/31 20:20:12.0	6.650	-0.610	0.560	-0.190
2020/01/31 20:20:12.1	6.610	-0.600	0.570	-0.170
2020/01/31 20:20:12.2	6.570	-0.590	0.570	-0.150
2020/01/31 20:20:12.3	6.520	-0.580	0.570	-0.130
2020/01/31 20:20:12.4	6.480	-0.570	0.560	-0.110
2020/01/31 20:20:12.5	6.430	-0.550	0.550	-0.080
2020/01/31 20:20:12.6	6.380	-0.530	0.540	-0.060
2020/01/31 20:20:12.7	6.340	-0.510	0.520	-0.030
2020/01/31 20:20:12.8	6.290	-0.480	0.500	-0.000
2020/01/31 20:20:12.9	6.240	-0.460	0.480	0.030
2020/01/31 20:20:13.0	6.190	-0.430	0.460	0.060
2020/01/31 20:20:13.1	6.140	-0.390	0.430	0.090
2020/01/31 20:20:13.2	6.090	-0.360	0.400	0.120
2020/01/31 20:20:13.3	6.040	-0.320	0.370	0.150
2020/01/31 20:20:13.4	6.000	-0.290	0.340	0.180
2020/01/31 20:20:13.5	5.950	-0.250	0.310	0.210
2020/01/31 20:20:13.6	5.910	-0.200	0.280	0.240
2020/01/31 20:20:13.7	5.870	-0.160	0.250	0.270
2020/01/31 20:20:13.8	5.830	-0.120	0.210	0.300
2020/01/31 20:20:13.9	5.800	-0.070	0.170	0.340
2020/01/31 20:20:14.0	5.760	-0.030	0.140	0.370
2020/01/31 20:20:14.1	5.730	0.020	0.110	0.390
2020/01/31 20:20:14.2	5.700	0.070	0.080	0.420
2020/01/31 20:20:14.3	5.670	0.110	0.050	0.450
2020/01/31 20:20:14.4	5.640	0.160	0.020	0.480
2020/01/31 20:20:14.5	5.610	0.210	-0.010	0.500
2020/01/31 20:20:14.6	5.580	0.250	-0.040	0.530
2020/01/31 20:20:14.7	5.560	0.300	-0.060	0.550
2020/01/31 20:20:14.8	5.540	0.340	-0.080	0.580
2020/01/31 20:20:14.9	5.530	0.390	-0.110	0.600
2020/01/31 20:20:15.0	5.510	0.430	-0.130	0.620
2020/01/31 20:20:15.1	5.490	0.470	-0.150	0.640
2020/01/31 20:20:15.2	5.480	0.510	-0.170	0.660
2020/01/31 20:20:15.3	5.470	0.550	-0.190	0.670
2020/01/31 20:20:15.4	5.470	0.580	-0.210	0.690
2020/01/31 20:20:15.5	5.460	0.620	-0.240	0.700
2020/01/31 20:20:15.6	5.460	0.650	-0.260	0.710
2020/01/31 20:20:15.7	5.460	0.680	-0.280	0.720
2020/01/31 20:20:15.8	5.470	0.710	-0.300	0.730
2020/01/31 20:20:15.9	5.470	0.730	-0.330	0.730
2020/01/31 20:20:16.0	5.480	0.750	-0.350	0.730
2020/01/31 20:20:16.1	5.490	0.770	-0.380	0.730
2020/01/31 20:20:16.2	5.510	0.790	-0.400	0.720
2020/01/31 20:20:16.3	5.530	0.800	-0.430	0.710
2020/01/31 20:20:16.4	5.540	0.810	-0.460	0.700
2020/01/31 20:20:16.5	5.560	0.820	-0.490	0.680
2020/01/31 20:20:16.6	5.590	0.820	-0.520	0.660
2020/01/31 20:20:16.7	5.610	0.820	-0.550	0.640
2020/01/31 20:20:16.8	5.630	0.820	-0.590	0.610
2020/01/31 20:20:16.9	5.660	0.810	-0.620	0.580
2020/01/31 20:20:17.0	5.690	0.800	-0.650	0.550
2020/01/31 20:20:17.1	5.710	0.790	-0.680	0.510
2020/01/31 20:20:17.2	5.740	0.770	-0.720	0.470
2020/01/31 20:20:17.3	5.770	0.750	-0.750	0.430
2020/01/31 20:20:17.4	5.800	0.720	-0.780	0.380
2020/01/31 20:20:17.5	5.830	0.690	-0.810	0.330
2020/01/31 20:20:17.6	5.860	0.660	-0.840	0.270
2020/01/31 20:20:17.7	5.890	0.620	-0.870	0.220
2020/01/31 20:20:17.8	5.920	0.580	-0.900	0.160
2020/01/31 20:20:17.9	5.950	0.540	-0.920	0.100
2020/01/31 20:20:18.0	5.980	0.490	-0.950	0.030
2020/01/31 20:20:18.1	6.010	0.440	-0.970	-0.030
2020/01/31 20:20:18.2	6.040	0.390	-0.990	-0.100
2020/01/31 20:20:18.3	6.080	0.330	-1.010	-0.170
2020/01/31 20:20:18.4	6.110	0.280	-1.030	-0.240
2020/01/31 20:20:18.5	6.140	0.220	-1.050	-0.310
2020/01/31 20:20:18.6	6.170	0.150	-1.060	-0.380
2020/01/31 20:20:18.7	6.200	0.090	-1.070	-0.460
2020/01/31 20:20:18.8	6.230	0.030	-1.080	-0.530
2020/01/31 20:20:18.9	6.270	-0.040	-1.090	-0.610
2020/01/31 20:20:19.0	6.300	-0.100	-1.090	-0.690
2020/01/31 20:20:19.1	6.340	-0.160	-1.090	-0.770
2020/01/31 20:20:19.2	6.370	-0.230	-1.090	-0.850
2020/01/31 20:20:19.3	6.410	-0.290	-1.080	-0.930
2020/01/31 20:20:19.4	6.450	-0.350	-1.070	-1.000
2020/01/31 20:20:19.5	6.490	-0.410	-1.060	-1.080
2020/01/31 20:20:19.6	6.530	-0.470	-1.040	-1.160
2020/01/31 20:20:19.7	6.570	-0.520	-1.030	-1.230
2020/01/31 20:20:19.8	6.610	-0.580	-1.000	-1.310
2020/01/31 20:20:19.9	6.650	-0.630	-0.980	-1.380
2020/01/31 20:20:20.0	6.690	-0.670	-0.950	-1.450
2020/01/31 20:20:20.1	6.730	-0.720	-0.920	-1.510
2020/01/31 20:20:20.2	6.770	-0.760	-0.880	-1.570
2020/01/31 20:20:20.3	6.810	-0.790	-0.840	-1.630
2020/01/31 20:20:20.4	6.850	-0.820	-0.800	-1.680
2020/01/31 20:20:20.5	6.880	-0.850	-0.750	-1.720
2020/01/31 20:20:20.6	6.910	-0.870	-0.700	-1.760
2020/01/31 20:20:20.7	6.950	-0.890	-0.640	-1.790
2020/01/31 20:20:20.8	6.970	-0.910	-0.580	-1.810
2020/01/31 20:20:20.9	7.010	-0.920	-0.520	-1.830
2020/01/31 20:20:21.0	7.030	-0.920	-0.450	-1.840
2020/01/31 20:20:21.1	7.050	-0.920	-0.380	-1.830
2020/01/31 20:20:21.2	7.070	-0.920	-0.310	-1.820
2020/01/31 20:20:21.3	7.090	-0.920	-0.240	-1.810
2020/01/31 20:20:21.4	7.100	-0.910	-0.160	-1.780
2020/01/31 20:20:21.5	7.100	-0.900	-0.080	-1.740
2020/01/31 20:20:21.6	7.100	-0.880	0.000	-1.700
2020/01/31 20:20:21.7	7.100	-0.860	0.090	-1.650
2020/01/31 20:20:21.8	7.100	-0.840	0.170	-1.600
2020/01/31 20:20:21.9	7.090	-0.820	0.250	-1.530
2020/01/31 20:20:22.0	7.070	-0.800	0.340	-1.460
2020/01/31 20:20:22.1	7.060	-0.770	0.420	-1.380
2020/01/31 20:20:22.2	7.030	-0.740	0.500	-1.300
2020/01/31 20:20:22.3	7.010	-0.710	0.590	-1.220
2020/01/31 20:20:22.4	6.980	-0.680	0.660	-1.130
2020/01/31 20:20:22.5	6.950	-0.650	0.740	-1.030
2020/01/31 20:20:22.6	6.920	-0.610	0.810	-0.940
2020/01/31 20:20:22.7	6.880	-0.580	0.870	-0.830
2020/01/31 20:20:22.8	6.840	-0.540	0.930	-0.730
2020/01/31 20:20:22.9	6.810	-0.500	0.980	-0.630
2020/01/31 20:20:23.0	6.770	-0.460	1.030	-0.520
2020/01/31 20:20:23.1	6.730	-0.420	1.070	-0.410
2020/01/31 20:20:23.2	6.680	-0.380	1.100	-0.300
2020/01/31 20:20:23.3	6.640	-0.340	1.120	-0.200
2020/01/31 20:20:23.4	6.600	-0.290	1.140	-0.090
2020/01/31 20:20:23.5	6.550	-0.240	1.140	0.020
2020/01/31 20:20:23.6	6.510	-0.200	1.140	0.130
2020/01/31 20:20:23.7	6.460	-0.150	1.130	0.230
2020/01/31 20:20:23.8	6.410	-0.100	1.110	0.340
2020/01/31 20:20:23.9	6.360	-0.050	1.090	0.450
2020/01/31 20:20:24.0	6.310	0.000	1.050	0.550
2020/01/31 20:20:24.1	6.260	0.050	1.010	0.650
2020/01/31 20:20:24.2	6.210	0.100	0.970	0.750
2020/01/31 20:20:24.3	6.160	0.160	0.910	0.840
2020/01/31 20:20:24.4	6.110	0.210	0.850	0.930
2020/01/31 20:20:24.5	6.050	0.260	0.790	1.020
2020/01/31 20:20:24.6	6.000	0.310	0.720	1.100
2020/01/31 20:20:24.7	5.950	0.360	0.650	1.180
2020/01/31 20:20:24.8	5.900	0.410	0.570	1.250
2020/01/31 20:20:24.9	5.840	0.460	0.490	1.310
2020/01/31 20:20:25.0	5.780	0.510	0.400	1.360
2020/01/31 20:20:25.1	5.730	0.550	0.320	1.410
2020/01/31 20:20:25.2	5.690	0.600	0.230	1.450
2020/01/31 20:20:25.3	5.640	0.640	0.140	1.470
2020/01/31 20:20:25.4	5.590	0.680	0.050	1.490
2020/01/31 20:20:25.5	5.550	0.710	-0.040	1.500
2020/01/31 20:20:25.6	5.510	0.750	-0.130	1.500
2020/01/31 20:20:25.7	5.470	0.780	-0.220	1.490
2020/01/31 20:20:25.8	5.440	0.810	-0.310	1.470
2020/01/31 20:20:25.9	5.410	0.830	-0.410	1.450
2020/01/31 20:20:26.0	5.380	0.850	-0.500	1.420
2020/01/31 20:20:26.1	5.350	0.870	-0.580	1.380
2020/01/31 20:20:26.2	5.330	0.880	-0.670	1.330
2020/01/31 20:20:26.3	5.310	0.890	-0.750	1.280
2020/01/31 20:20:26.4	5.300	0.900	-0.840	1.230
2020/01/31 20:20:26.5	5.290	0.900	-0.910	1.160
2020/01/31 20:20:26.6	5.280	0.900	-0.990	1.100
2020/01/31 20:20:26.7	5.280	0.890	-1.060	1.020
2020/01/31 20:20:26.8	5.280	0.880	-1.130	0.950
2020/01/31 20:20:26.9	5.290	0.860	-1.200	0.860
2020/01/31 20:20:27.0	5.290	0.850	-1.260	0.780
2020/01/31 20:20:27.1	5.300	0.820	-1.320	0.690
2020/01/31 20:20:27.2	5.320	0.800	-1.370	0.590
2020/01/31 20:20:27.3	5.340	0.760	-1.420	0.490
2020/01/31 20:20:27.4	5.360	0.730	-1.460	0.390
2020/01/31 20:20:27.5	5.380	0.690	-1.500	0.290
2020/01/31 20:20:27.6	5.410	0.650	-1.530	0.180
2020/01/31 20:20:27.7	5.440	0.610	-1.560	0.070
2020/01/31 20:20:27.8	5.470	0.560	-1.580	-0.050
2020/01/31 20:20:27.9	5.500	0.510	-1.600	-0.170
2020/01/31 20:20:28.0	5.540	0.460	-1.610	-0.280
2020/01/31 20:20:28.1	5.580	0.410	-1.610	-0.400
2020/01/31 20:20:28.2	5.630	0.350	-1.610	-0.520
2020/01/31 20:20:28.3	5.670	0.300	-1.600	-0.640
2020/01/31 20:20:28.4	5.720	0.240	-1.590	-0.760
2020/01/31 20:20:28.5	5.770	0.190	-1.570	-0.880
2020/01/31 20:20:28.6	5.820	0.130	-1.540	-0.990
2020/01/31 20:20:28.7	5.880	0.080	-1.510	-1.100
2020/01/31 20:20:28.8	5.930	0.020	-1.470	-1.210
2020/01/31 20:20:28.9	5.990	-0.030	-1.430	-1.330
2020/01/31 20:20:29.0	6.050	-0.080	-1.390	-1.430
2020/01/31 20:20:29.1	6.110	-0.130	-1.340	-1.520
2020/01/31 20:20:29.2	6.180	-0.170	-1.280	-1.620
2020/01/31 20:20:29.3	6.240	-0.220	-1.220	-1.700
2020/01/31 20:20:29.4	6.300	-0.260	-1.150	-1.780
2020/01/31 20:20:29.5	6.370	-0.290	-1.080	-1.850
2020/01/31 20:20:29.6	6.430	-0.330	-1.010	-1.910
2020/01/31 20:20:29.7	6.490	-0.360	-0.930	-1.970
2020/01/31 20:20:29.8	6.560	-0.390	-0.850	-2.020
2020/01/31 20:20:29.9	6.620	-0.410	-0.770	-2.050
2020/01/31 20:20:30.0	6.680	-0.430	-0.690	-2.080
2020/01/31 20:20:30.1	6.730	-0.450	-0.610	-2.100
2020/01/31 20:20:30.2	6.790	-0.460	-0.520	-2.110
2020/01/31 20:20:30.3	6.840	-0.470	-0.430	-2.110
2020/01/31 20:20:30.4	6.890	-0.480	-0.350	-2.110
2020/01/31 20:20:30.5	6.930	-0.480	-0.260	-2.090
2020/01/31 20:20:30.6	6.970	-0.490	-0.170	-2.070
2020/01/31 20:20:30.7	7.000	-0.480	-0.090	-2.030
2020/01/31 20:20:30.8	7.030	-0.480	-0.000	-1.990
2020/01/31 20:20:30.9	7.070	-0.480	0.080	-1.940
2020/01/31 20:20:31.0	7.090	-0.470	0.160	-1.880
2020/01/31 20:20:31.1	7.100	-0.460	0.240	-1.820
2020/01/31 20:20:31.2	7.110	-0.450	0.310	-1.750
2020/01/31 20:20:31.3	7.110	-0.430	0.380	-1.680
2020/01/31 20:20:31.4	7.110	-0.420	0.450	-1.590
2020/01/31 20:20:31.5	7.110	-0.400	0.510	-1.510
2020/01/31 20:20:31.6	7.100	-0.390	0.560	-1.420
2020/01/31 20:20:31.7	7.080	-0.370	0.620	-1.330
2020/01/31 20:20:31.8	7.060	-0.350	0.660	-1.230
2020/01/31 20:20:31.9	7.030	-0.340	0.700	-1.130
2020/01/31 20:20:32.0	7.000	-0.320	0.730	-1.030
2020/01/31 20:20:32.1	6.970	-0.300	0.760	-0.940
2020/01/31 20:20:32.2	6.940	-0.290	0.790	-0.840
2020/01/31 20:20:32.3	6.900	-0.270	0.810	-0.740
2020/01/31 20:20:32.4	6.860	-0.260	0.820	-0.640
2020/01/31 20:20:32.5	6.820	-0.240	0.820	-0.550
2020/01/31 20:20:32.6	6.780	-0.230	0.820	-0.460
2020/01/31 20:20:32.7	6.740	-0.220	0.820	-0.370
2020/01/31 20:20:32.8	6.690	-0.210	0.810	-0.280
2020/01/31 20:20:32.9	6.660	-0.200	0.790	-0.200
2020/01/31 20:20:33.0	6.620	-0.190	0.770	-0.120
2020/01/31 20:20:33.1	6.570	-0.180	0.750	-0.040
2020/01/31 20:20:33.2	6.530	-0.170	0.720	0.030
2020/01/31 20:20:33.3	6.480	-0.170	0.680	0.100
2020/01/31 20:20:33.4	6.440	-0.160	0.650	0.160
2020/01/31 20:20:33.5	6.400	-0.160	0.610	0.220
2020/01/31 20:20:33.6	6.350	-0.150	0.570	0.270
2020/01/31 20:20:33.7	6.310	-0.150	0.520	0.320
2020/01/31 20:20:33.8	6.260	-0.150	0.480	0.370
2020/01/31 20:20:33.9	6.210	-0.150	0.440	0.420
2020/01/31 20:20:34.0	6.160	-0.150	0.390	0.450
2020/01/31 20:20:34.1	6.120	-0.150	0.350	0.490
2020/01/31 20:20:34.2	6.070	-0.150	0.300	0.520
2020/01/31 20:20:34.3	6.020	-0.150	0.260	0.540
2020/01/31 20:20:34.4	5.970	-0.150	0.210	0.560
2020/01/31 20:20:34.5	5.920	-0.150	0.170	0.580
2020/01/31 20:20:34.6	5.870	-0.150	0.130	0.590
2020/01/31 20:20:34.7	5.820	-0.150	0.100	0.600
2020/01/31 20:20:34.8	5.770	-0.150	0.060	0.600
2020/01/31 20:20:34.9	5.730	-0.150	0.030	0.600
2020/01/31 20:20:35.0	5.680	-0.150	-0.010	0.590
2020/01/31 20:20:35.1	5.630	-0.150	-0.040	0.580
2020/01/31 20:20:35.2	5.590	-0.150	-0.070	0.570
2020/01/31 20:20:35.3	5.540	-0.150	-0.100	0.550
2020/01/31 20:20:35.4	5.500	-0.140	-0.120	0.530
2020/01/31 20:20:35.5	5.460	-0.140	-0.150	0.510
2020/01/31 20:20:35.6	5.420	-0.140	-0.170	0.490
2020/01/31 20:20:35.7	5.380	-0.130	-0.200	0.460
2020/01/31 20:20:35.8	5.340	-0.130	-0.220	0.430
2020/01/31 20:20:35.9	5.310	-0.120	-0.250	0.390
2020/01/31 20:20:36.0	5.280	-0.110	-0.270	0.360
2020/01/31 20:20:36.1	5.250	-0.100	-0.290	0.320
2020/01/31 20:20:36.2	5.230	-0.090	-0.320	0.290
2020/01/31 20:20:36.3	5.210	-0.080	-0.340	0.250
2020/01/31 20:20:36.4	5.190	-0.070	-0.370	0.210
2020/01/31 20:20:36.5	5.170	-0.050	-0.390	0.170
2020/01/31 20:20:36.6	5.160	-0.040	-0.420	0.140
2020/01/31 20:20:36.7	5.140	-0.020	-0.440	0.100
2020/01/31 20:20:36.8	5.140	0.000	-0.470	0.060
2020/01/31 20:20:36.9	5.140	0.020	-0.500	0.020
2020/01/31 20:20:37.0	5.130	0.040	-0.530	-0.020
2020/01/31 20:20:37.1	5.140	0.070	-0.560	-0.060
2020/01/31 20:20:37.2	5.140	0.090	-0.600	-0.100
2020/01/31 20:20:37.3	5.150	0.120	-0.630	-0.140
2020/01/31 20:20:37.4	5.170	0.150	-0.660	-0.170
2020/01/31 20:20:37.5	5.190	0.180	-0.700	-0.210
2020/01/31 20:20:37.6	5.210	0.210	-0.740	-0.250
2020/01/31 20:20:37.7	5.230	0.240	-0.770	-0.300
2020/01/31 20:20:37.8	5.260	0.270	-0.810	-0.340
2020/01/31 20:20:37.9	5.290	0.300	-0.850	-0.380
2020/01/31 20:20:38.0	5.330	0.330	-0.890	-0.430
2020/01/31 20:20:38.1	5.370	0.360	-0.920	-0.470
2020/01/31 20:20:38.2	5.410	0.390	-0.960	-0.520
2020/01/31 20:20:38.3	5.460	0.420	-0.990	-0.560
2020/01/31 20:20:38.4	5.500	0.450	-1.020	-0.610
2020/01/31 20:20:38.5	5.550	0.480	-1.050	-0.650
2020/01/31 20:20:38.6	5.600	0.500	-1.070	-0.690
2020/01/31 20:20:38.7	5.640	0.520	-1.090	-0.730
2020/01/31 20:20:38.8	5.690	0.540	-1.110	-0.770
2020/01/31 20:20:38.9	5.760	0.560	-1.130	-0.810
2020/01/31 20:20:39.0	5.800	0.570	-1.130	-0.840
2020/01/31 20:20:39.1	5.850	0.580	-1.140	-0.870
2020/01/31 20:20:39.2	5.890	0.590	-1.140	-0.910
2020/01/31 20:20:39.3	5.930	0.590	-1.130	-0.930
2020/01/31 20:20:39.4	5.970	0.590	-1.120	-0.960
2020/01/31 20:20:39.5	6.010	0.590	-1.100	-0.980
2020/01/31 20:20:39.6	6.050	0.580	-1.080	-1.000
2020/01/31 20:20:39.7	6.090	0.570	-1.060	-1.020
2020/01/31 20:20:39.8	6.120	0.560	-1.030	-1.030
2020/01/31 20:20:39.9	6.160	0.540	-0.990	-1.040
2020/01/31 20:20:40.0	6.190	0.530	-0.950	-1.050
2020/01/31 20:20:40.1	6.230	0.500	-0.910	-1.060
2020/01/31 20:20:40.2	6.250	0.480	-0.860	-1.060
2020/01/31 20:20:40.3	6.280	0.450	-0.820	-1.060
2020/01/31 20:20:40.4	6.310	0.430	-0.760	-1.050
2020/01/31 20:20:40.5	6.340	0.400	-0.710	-1.050
2020/01/31 20:20:40.6	6.360	0.360	-0.650	-1.040
2020/01/31 20:20:40.7	6.390	0.330	-0.600	-1.020
2020/01/31 20:20:40.8	6.410	0.290	-0.540	-1.010
2020/01/31 20:20:40.9	6.430	0.260	-0.480	-0.990
2020/01/31 20:20:41.0	6.450	0.220	-0.420	-0.960
2020/01/31 20:20:41.1	6.470	0.190	-0.360	-0.940
2020/01/31 20:20:41.2	6.480	0.150	-0.300	-0.910
2020/01/31 20:20:41.3	6.490	0.110	-0.240	-0.890
2020/01/31 20:20:41.4	6.500	0.080	-0.180	-0.850
2020/01/31 20:20:41.5	6.510	0.040	-0.130	-0.820
2020/01/31 20:20:41.6	6.510	0.010	-0.070	-0.790
2020/01/31 20:20:41.7	6.510	-0.030	-0.020	-0.750
2020/01/31 20:20:41.8	6.500	-0.060	0.040	-0.710
2020/01/31 20:20:41.9	6.490	-0.090	0.090	-0.670
2020/01/31 20:20:42.0	6.480	-0.120	0.140	-0.630
2020/01/31 20:20:42.1	6.460	-0.140	0.180	-0.590
2020/01/31 20:20:42.2	6.440	-0.170	0.230	-0.540
2020/01/31 20:20:42.3	6.420	-0.190	0.280	-0.490
2020/01/31 20:20:42.4	6.390	-0.210	0.320	-0.440
2020/01/31 20:20:42.5	6.360	-0.220	0.360	-0.390
2020/01/31 20:20:42.6	6.320	-0.240	0.400	-0.340
2020/01/31 20:20:42.7	6.290	-0.250	0.430	-0.290
2020/01/31 20:20:42.8	6.250	-0.260	0.460	-0.240
2020/01/31 20:20:42.9	6.190	-0.260	0.490	-0.180
2020/01/31 20:20:43.0	6.150	-0.270	0.520	-0.130
2020/01/31 20:20:43.1	6.110	-0.270	0.540	-0.080
2020/01/31 20:20:43.2	6.060	-0.270	0.570	-0.030
2020/01/31 20:20:43.3	6.010	-0.270	0.580	0.010
2020/01/31 20:20:43.4	5.960	-0.270	0.600	0.060
2020/01/31 20:20:43.5	5.910	-0.270	0.610	0.110
2020/01/31 20:20:43.6	5.860	-0.260	0.620	0.150
2020/01/31 20:20:43.7	5.820	-0.250	0.630	0.190
2020/01/31 20:20:43.8	5.770	-0.250	0.630	0.230
2020/01/31 20:20:43.9	5.720	-0.240	0.630	0.270
2020/01/31 20:20:44.0	5.680	-0.230	0.630	0.310
2020/01/31 20:20:44.1	5.630	-0.220	0.620	0.340
2020/01/31 20:20:44.2	5.590	-0.210	0.610	0.380
2020/01/31 20:20:44.3	5.540	-0.200	0.590	0.410
2020/01/31 20:20:44.4	5.500	-0.190	0.570	0.440
2020/01/31 20:20:44.5	5.460	-0.180	0.550	0.460
2020/01/31 20:20:44.6	5.420	-0.170	0.520	0.480
2020/01/31 20:20:44.7	5.390	-0.160	0.490	0.500
2020/01/31 20:20:44.8	5.350	-0.150	0.460	0.520
2020/01/31 20:20:44.9	5.320	-0.140	0.430	0.530
2020/01/31 20:20:45.0	5.290	-0.130	0.390	0.540
2020/01/31 20:20:45.1	5.260	-0.120	0.340	0.540
2020/01/31 20:20:45.2	5.240	-0.110	0.300	0.540
2020/01/31 20:20:45.3	5.220	-0.100	0.250	0.540
2020/01/31 20:20:45.4	5.200	-0.100	0.200	0.530
2020/01/31 20:20:45.5	5.190	-0.090	0.150	0.520
2020/01/31 20:20:45.6	5.180	-0.080	0.100	0.510
2020/01/31 20:20:45.7	5.170	-0.080	0.040	0.490
2020/01/31 20:20:45.8	5.160	-0.070	-0.020	0.460
2020/01/31 20:20:45.9	5.150	-0.070	-0.080	0.430
2020/01/31 20:20:46.0	5.160	-0.070	-0.140	0.400
2020/01/31 20:20:46.1	5.160	-0.060	-0.190	0.370
2020/01/31 20:20:46.2	5.160	-0.060	-0.250	0.330
2020/01/31 20:20:46.3	5.170	-0.060	-0.310	0.280
2020/01/31 20:20:46.4	5.180	-0.060	-0.370	0.240
2020/01/31 20:20:46.5	5.200	-0.060	-0.420	0.190
2020/01/31 20:20:46.6	5.210	-0.060	-0.480	0.150
2020/01/31 20:20:46.7	5.230	-0.050	-0.530	0.100
2020/01/31 20:20:46.8	5.260	-0.050	-0.580	0.050
2020/01/31 20:20:46.9	5.280	-0.050	-0.630	-0.010
2020/01/31 20:20:47.0	5.310	-0.050	-0.680	-0.060
2020/01/31 20:20:47.1	5.330	-0.050	-0.720	-0.120
2020/01/31 20:20:47.2	5.370	-0.040	-0.760	-0.170
2020/01/31 20:20:47.3	5.400	-0.040	-0.800	-0.220
2020/01/31 20:20:47.4	5.430	-0.040	-0.840	-0.280
2020/01/31 20:20:47.5	5.470	-0.030	-0.880	-0.330
2020/01/31 20:20:47.6	5.510	-0.030	-0.910	-0.380
2020/01/31 20:20:47.7	5.550	-0.020	-0.940	-0.430
2020/01/31 20:20:47.8	5.590	-0.020	-0.960	-0.490
2020/01/31 20:20:47.9	5.620	-0.010	-0.990	-0.530
2020/01/31 20:20:48.0	5.660	-0.010	-1.010	-0.580
2020/01/31 20:20:48.1	5.700	-0.000	-1.030	-0.630
2020/01/31 20:20:48.2	5.740	0.010	-1.050	-0.670
2020/01/31 20:20:48.3	5.780	0.010	-1.060	-0.710
2020/01/31 20:20:48.4	5.820	0.020	-1.070	-0.750
2020/01/31 20:20:48.5	5.870	0.030	-1.070	-0.790
2020/01/31 20:20:48.6	5.910	0.040	-1.070	-0.820
2020/01/31 20:20:48.7	5.950	0.050	-1.070	-0.850
2020/01/31 20:20:48.8	5.980	0.060	-1.060	-0.880
2020/01/31 20:20:48.9	6.010	0.060	-1.050	-0.910
2020/01/31 20:20:49.0	6.050	0.070	-1.040	-0.930
2020/01/31 20:20:49.1	6.090	0.080	-1.020	-0.950
2020/01/31 20:20:49.2	6.120	0.090	-1.000	-0.970
2020/01/31 20:20:49.3	6.160	0.100	-0.980	-0.980
2020/01/31 20:20:49.4	6.190	0.110	-0.950	-0.990
2020/01/31 20:20:49.5	6.220	0.110	-0.920	-0.990
2020/01/31 20:20:49.6	6.260	0.120	-0.890	-1.000
2020/01/31 20:20:49.7	6.290	0.130	-0.860	-1.000
2020/01/31 20:20:49.8	6.320	0.140	-0.820	-0.990
2020/01/31 20:20:49.9	6.360	0.140	-0.790	-0.980
2020/01/31 20:20:50.0	6.390	0.150	-0.750	-0.970
2020/01/31 20:20:50.1	6.420	0.160	-0.700	-0.960
2020/01/31 20:20:50.2	6.450	0.160	-0.660	-0.950
2020/01/31 20:20:50.3	6.480	0.170	-0.610	-0.930
2020/01/31 20:20:50.4	6.510	0.170	-0.560	-0.920
2020/01/31 20:20:50.5	6.540	0.170	-0.510	-0.890
2020/01/31 20:20:50.6	6.560	0.180	-0.460	-0.870
2020/01/31 20:20:50.7	6.590	0.180	-0.400	-0.840
2020/01/31 20:20:50.8	6.610	0.180	-0.350	-0.810
2020/01/31 20:20:50.9	6.610	0.180	-0.290	-0.780
2020/01/31 20:20:51.0	6.630	0.180	-0.230	-0.740
2020/01/31 20:20:51.1	6.650	0.170	-0.160	-0.710
2020/01/31 20:20:51.2	6.660	0.170	-0.100	-0.660
2020/01/31 20:20:51.3	6.660	0.160	-0.030	-0.620
2020/01/31 20:20:51.4	6.670	0.160	0.040	-0.570
2020/01/31 20:20:51.5	6.670	0.150	0.110	-0.520
2020/01/31 20:20:51.6	6.670	0.140	0.180	-0.470
2020/01/31 20:20:51.7	6.670	0.130	0.260	-0.420
2020/01/31 20:20:51.8	6.660	0.120	0.330	-0.370
2020/01/31 20:20:51.9	6.660	0.100	0.400	-0.310
2020/01/31 20:20:52.0	6.650	0.090	0.460	-0.260
2020/01/31 20:20:52.1	6.640	0.070	0.530	-0.210
2020/01/31 20:20:52.2	6.620	0.050	0.600	-0.150
2020/01/31 20:20:52.3	6.600	0.030	0.660	-0.100
2020/01/31 20:20:52.4	6.580	0.010	0.710	-0.050
2020/01/31 20:20:52.5	6.560	-0.010	0.770	-0.000
2020/01/31 20:20:52.6	6.540	-0.030	0.820	0.050
2020/01/31 20:20:52.7	6.510	-0.050	0.860	0.090
2020/01/31 20:20:52.8	6.480	-0.080	0.900	0.130
2020/01/31 20:20:52.9	6.440	-0.100	0.930	0.170
2020/01/31 20:20:53.0	6.400	-0.130	0.950	0.210
2020/01/31 20:20:53.1	6.360	-0.150	0.970	0.250
2020/01/31 20:20:53.2	6.320	-0.180	0.990	0.280
2020/01/31 20:20:53.3	6.280	-0.210	0.990	0.310
2020/01/31 20:20:53.4	6.240	-0.230	0.990	0.330
2020/01/31 20:20:53.5	6.200	-0.250	0.980	0.350
2020/01/31 20:20:53.6	6.150	-0.280	0.960	0.360
2020/01/31 20:20:53.7	6.110	-0.300	0.930	0.370
2020/01/31 20:20:53.8	6.060	-0.320	0.900	0.380
2020/01/31 20:20:53.9	6.030	-0.340	0.860	0.380
2020/01/31 20:20:54.0	5.980	-0.360	0.810	0.370
2020/01/31 20:20:54.1	5.940	-0.370	0.760	0.350
2020/01/31 20:20:54.2	5.900	-0.390	0.690	0.330
2020/01/31 20:20:54.3	5.870	-0.400	0.620	0.310
2020/01/31 20:20:54.4	5.830	-0.410	0.540	0.280
2020/01/31 20:20:54.5	5.800	-0.410	0.460	0.240
2020/01/31 20:20:54.6	5.770	-0.420	0.360	0.200
2020/01/31 20:20:54.7	5.750	-0.410	0.270	0.150
2020/01/31 20:20:54.8	5.720	-0.410	0.160	0.100
2020/01/31 20:20:54.9	5.710	-0.400	0.060	0.040
2020/01/31 20:20:55.0	5.700	-0.390	-0.050	-0.020
2020/01/31 20:20:55.1	5.690	-0.380	-0.170	-0.090
2020/01/31 20:20:55.2	5.690	-0.360	-0.280	-0.150
2020/01/31 20:20:55.3	5.690	-0.340	-0.400	-0.220
2020/01/31 20:20:55.4	5.700	-0.310	-0.520	-0.290
2020/01/31 20:20:55.5	5.710	-0.280	-0.640	-0.370
2020/01/31 20:20:55.6	5.720	-0.250	-0.750	-0.440
2020/01/31 20:20:55.7	5.740	-0.210	-0.870	-0.510
2020/01/31 20:20:55.8	5.760	-0.170	-0.980	-0.590
2020/01/31 20:20:55.9	5.800	-0.130	-1.090	-0.670
2020/01/31 20:20:56.0	5.830	-0.090	-1.190	-0.740
2020/01/31 20:20:56.1	5.870	-0.050	-1.280	-0.810
2020/01/31 20:20:56.2	5.910	-0.000	-1.370	-0.890
2020/01/31 20:20:56.3	5.950	0.040	-1.460	-0.960
2020/01/31 20:20:56.4	6.000	0.090	-1.530	-1.030
2020/01/31 20:20:56.5	6.050	0.130	-1.600	-1.100
2020/01/31 20:20:56.6	6.110	0.180	-1.650	-1.170
2020/01/31 20:20:56.7	6.160	0.220	-1.700	-1.230
2020/01/31 20:20:56.8	6.220	0.260	-1.730	-1.290
2020/01/31 20:20:56.9	6.290	0.300	-1.760	-1.350
2020/01/31 20:20:57.0	6.340	0.340	-1.780	-1.400
2020/01/31 20:20:57.1	6.400	0.370	-1.780	-1.450
2020/01/31 20:20:57.2	6.460	0.410	-1.770	-1.490
2020/01/31 20:20:57.3	6.520	0.430	-1.750	-1.530
2020/01/31 20:20:57.4	6.580	0.460	-1.720	-1.570
2020/01/31 20:20:57.5	6.640	0.480	-1.670	-1.600
2020/01/31 20:20:57.6	6.690	0.490	-1.620	-1.620
2020/01/31 20:20:57.7	6.740	0.510	-1.560	-1.630
2020/01/31 20:20:57.8	6.790	0.510	-1.490	-1.640
2020/01/31 20:20:57.9	6.840	0.520	-1.410	-1.650
2020/01/31 20:20:58.0	6.890	0.520	-1.320	-1.640
2020/01/31 20:20:58.1	6.930	0.510	-1.230	-1.630
2020/01/31 20:20:58.2	6.970	0.500	-1.130	-1.610
2020/01/31 20:20:58.3	7.010	0.490	-1.020	-1.590
2020/01/31 20:20:58.4	7.050	0.470	-0.920	-1.560
2020/01/31 20:20:58.5	7.080	0.450	-0.800	-1.530
2020/01/31 20:20:58.6	7.110	0.430	-0.690	-1.490
2020/01/31 20:20:58.7	7.140	0.400	-0.570	-1.440
2020/01/31 20:20:58.8	7.160	0.380	-0.460	-1.400
2020/01/31 20:20:58.9	7.200	0.350	-0.350	-1.340
2020/01/31 20:20:59.0	7.220	0.310	-0.240	-1.290
2020/01/31 20:20:59.1	7.240	0.280	-0.130	-1.230
2020/01/31 20:20:59.2	7.250	0.250	-0.030	-1.180
2020/01/31 20:20:59.3	7.270	0.220	0.060	-1.120
2020/01/31 20:20:59.4	7.280	0.180	0.150	-1.060
2020/01/31 20:20:59.5	7.290	0.150	0.230	-1.000
2020/01/31 20:20:59.6	7.300	0.120	0.310	-0.950
2020/01/31 20:20:59.7	7.310	0.090	0.370	-0.890
2020/01/31 20:20:59.8	7.320	0.060	0.430	-0.840
2020/01/31 20:20:59.9	7.320	0.040	0.480	-0.780
2020/01/31 20:21:00.0	7.320	0.010	0.520	-0.730
2020/01/31 20:21:00.1	7.320	-0.010	0.550	-0.670
2020/01/31 20:21:00.2	7.320	-0.030	0.570	-0.620
2020/01/31 20:21:00.3	7.320	-0.040	0.580	-0.570
2020/01/31 20:21:00.4	7.320	-0.050	0.590	-0.520
2020/01/31 20:21:00.5	7.310	-0.060	0.590	-0.470
2020/01/31 20:21:00.6	7.310	-0.070	0.580	-0.420
2020/01/31 20:21:00.7	7.300	-0.070	0.570	-0.370
2020/01/31 20:21:00.8	7.280	-0.070	0.550	-0.320
2020/01/31 20:21:00.9	7.250	-0.060	0.530	-0.270
2020/01/31 20:21:01.0	7.240	-0.060	0.500	-0.220
2020/01/31 20:21:01.1	7.210	-0.050	0.470	-0.170
2020/01/31 20:21:01.2	7.190	-0.040	0.440	-0.120
2020/01/31 20:21:01.3	7.160	-0.030	0.410	-0.070
2020/01/31 20:21:01.4	7.140	-0.010	0.370	-0.020
2020/01/31 20:21:01.5	7.100	0.000	0.340	0.020
2020/01/31 20:21:01.6	7.070	0.020	0.300	0.070
2020/01/31 20:21:01.7	7.030	0.030	0.270	0.110
2020/01/31 20:21:01.8	7.000	0.050	0.230	0.150
2020/01/31 20:21:01.9	6.950	0.060	0.200	0.190
2020/01/31 20:21:02.0	6.910	0.080	0.170	0.230
2020/01/31 20:21:02.1	6.870	0.090	0.140	0.260
2020/01/31 20:21:02.2	6.830	0.100	0.110	0.290
2020/01/31 20:21:02.3	6.780	0.110	0.080	0.320
2020/01/31 20:21:02.4	6.740	0.120	0.060	0.340
2020/01/31 20:21:02.5	6.690	0.120	0.030	0.360
2020/01/31 20:21:02.6	6.650	0.120	0.010	0.380
2020/01/31 20:21:02.7	6.600	0.120	-0.010	0.390
2020/01/31 20:21:02.8	6.560	0.120	-0.030	0.390
2020/01/31 20:21:02.9	6.510	0.110	-0.050	0.390
2020/01/31 20:21:03.0	6.460	0.100	-0.060	0.390
2020/01/31 20:21:03.1	6.420	0.090	-0.070	0.380
2020/01/31 20:21:03.2	6.380	0.070	-0.090	0.360
2020/01/31 20:21:03.3	6.350	0.050	-0.100	0.340
2020/01/31 20:21:03.4	6.310	0.030	-0.110	0.320
2020/01/31 20:21:03.5	6.280	0.010	-0.120	0.290
2020/01/31 20:21:03.6	6.250	-0.020	-0.120	0.250
2020/01/31 20:21:03.7	6.220	-0.050	-0.130	0.210
2020/01/31 20:21:03.8	6.200	-0.080	-0.140	0.160
2020/01/31 20:21:03.9	6.170	-0.120	-0.140	0.110
2020/01/31 20:21:04.0	6.160	-0.150	-0.150	0.050
2020/01/31 20:21:04.1	6.140	-0.190	-0.150	-0.010
2020/01/31 20:21:04.2	6.130	-0.230	-0.160	-0.070
2020/01/31 20:21:04.3	6.120	-0.260	-0.170	-0.140
2020/01/31 20:21:04.4	6.110	-0.300	-0.170	-0.210
2020/01/31 20:21:04.5	6.110	-0.340	-0.180	-0.280
2020/01/31 20:21:04.6	6.110	-0.380	-0.190	-0.360
2020/01/31 20:21:04.7	6.120	-0.420	-0.190	-0.440
2020/01/31 20:21:04.8	6.130	-0.450	-0.200	-0.510
2020/01/31 20:21:04.9	6.140	-0.480	-0.210	-0.600
2020/01/31 20:21:05.0	6.160	-0.520	-0.220	-0.680
2020/01/31 20:21:05.1	6.180	-0.540	-0.230	-0.750
2020/01/31 20:21:05.2	6.200	-0.570	-0.240	-0.830
2020/01/31 20:21:05.3	6.230	-0.590	-0.260	-0.900
2020/01/31 20:21:05.4	6.260	-0.610	-0.270	-0.980
2020/01/31 20:21:05.5	6.290	-0.620	-0.280	-1.050
2020/01/31 20:21:05.6	6.330	-0.640	-0.300	-1.110
2020/01/31 20:21:05.7	6.370	-0.640	-0.310	-1.180
2020/01/31 20:21:05.8	6.410	-0.640	-0.330	-1.240
2020/01/31 20:21:05.9	6.450	-0.640	-0.350	-1.300
2020/01/31 20:21:06.0	6.500	-0.640	-0.360	-1.350
2020/01/31 20:21:06.1	6.550	-0.630	-0.380	-1.400
2020/01/31 20:21:06.2	6.600	-0.610	-0.400	-1.450
2020/01/31 20:21:06.3	6.650	-0.590	-0.420	-1.500
2020/01/31 20:21:06.4	6.700	-0.570	-0.440	-1.540
2020/01/31 20:21:06.5	6.760	-0.540	-0.460	-1.580
2020/01/31 20:21:06.6	6.810	-0.510	-0.470	-1.610
2020/01/31 20:21:06.7	6.860	-0.480	-0.490	-1.640
2020/01/31 20:21:06.8	6.920	-0.450	-0.510	-1.660
2020/01/31 20:21:06.9	6.970	-0.410	-0.520	-1.680
2020/01/31 20:21:07.0	7.020	-0.370	-0.540	-1.690
2020/01/31 20:21:07.1	7.070	-0.320	-0.550	-1.690
2020/01/31 20:21:07.2	7.120	-0.280	-0.560	-1.690
2020/01/31 20:21:07.3	7.160	-0.230	-0.570	-1.690
2020/01/31 20:21:07.4	7.200	-0.180	-0.580	-1.670
2020/01/31 20:21:07.5	7.240	-0.130	-0.580	-1.650
2020/01/31 20:21:07.6	7.270	-0.090	-0.580	-1.630
2020/01/31 20:21:07.7	7.300	-0.040	-0.580	-1.600
2020/01/31 20:21:07.8	7.330	0.010	-0.570	-1.560
2020/01/31 20:21:07.9	7.360	0.060	-0.560	-1.520
2020/01/31 20:21:08.0	7.380	0.100	-0.550	-1.470
2020/01/31 20:21:08.1	7.390	0.140	-0.540	-1.420
2020/01/31 20:21:08.2	7.400	0.180	-0.520	-1.370
2020/01/31 20:21:08.3	7.410	0.220	-0.500	-1.310
2020/01/31 20:21:08.4	7.420	0.260	-0.480	-1.250
2020/01/31 20:21:08.5	7.420	0.290	-0.460	-1.180
2020/01/31 20:21:08.6	7.420	0.320	-0.430	-1.110
2020/01/31 20:21:08.7	7.410	0.340	-0.410	-1.040
2020/01/31 20:21:08.8	7.400	0.360	-0.380	-0.970
2020/01/31 20:21:08.9	7.390	0.380	-0.350	-0.900
2020/01/31 20:21:09.0	7.380	0.400	-0.330	-0.830
2020/01/31 20:21:09.1	7.370	0.410	-0.300	-0.760
2020/01/31 20:21:09.2	7.350	0.410	-0.270	-0.700
2020/01/31 20:21:09.3	7.340	0.420	-0.250	-0.640
2020/01/31 20:21:09.4	7.320	0.420	-0.220	-0.580
2020/01/31 20:21:09.5	7.310	0.410	-0.200	-0.520
2020/01/31 20:21:09.6	7.290	0.410	-0.170	-0.470
2020/01/31 20:21:09.7	7.280	0.400	-0.150	-0.420
2020/01/31 20:21:09.8	7.260	0.380	-0.140	-0.380
2020/01/31 20:21:09.9	7.250	0.370	-0.120	-0.340
2020/01/31 20:21:10.0	7.240	0.350	-0.100	-0.300
2020/01/31 20:21:10.1	7.220	0.330	-0.090	-0.270
2020/01/31 20:21:10.2	7.210	0.310	-0.080	-0.240
2020/01/31 20:21:10.3	7.190	0.290	-0.080	-0.220
2020/01/31 20:21:10.4	7.180	0.270	-0.070	-0.200
2020/01/31 20:21:10.5	7.170	0.250	-0.070	-0.180
2020/01/31 20:21:10.6	7.150	0.220	-0.070	-0.170
2020/01/31 20:21:10.7	7.130	0.200	-0.070	-0.150
2020/01/31 20:21:10.8	7.120	0.180	-0.080	-0.140
2020/01/31 20:21:10.9	7.100	0.160	-0.090	-0.120
2020/01/31 20:21:11.0	7.080	0.140	-0.090	-0.110
2020/01/31 20:21:11.1	7.060	0.120	-0.100	-0.100
2020/01/31 20:21:11.2	7.040	0.100	-0.110	-0.090
2020/01/31 20:21:11.3	7.010	0.080	-0.120	-0.080
2020/01/31 20:21:11.4	6.990	0.070	-0.130	-0.080
2020/01/31 20:21:11.5	6.960	0.060	-0.140	-0.070
2020/01/31 20:21:11.6	6.930	0.050	-0.150	-0.060
2020/01/31 20:21:11.7	6.900	0.040	-0.160	-0.050
2020/01/31 20:21:11.8	6.870	0.030	-0.170	-0.050
2020/01/31 20:21:11.9	6.830	0.030	-0.190	-0.050
2020/01/31 20:21:12.0	6.800	0.030	-0.200	-0.040
2020/01/31 20:21:12.1	6.770	0.030	-0.210	-0.040
2020/01/31 20:21:12.2	6.740	0.030	-0.230	-0.040
2020/01/31 20:21:12.3	6.710	0.040	-0.250	-0.040
2020/01/31 20:21:12.4	6.680	0.050	-0.260	-0.040
2020/01/31 20:21:12.5	6.650	0.060	-0.280	-0.050
2020/01/31 20:21:12.6	6.630	0.070	-0.300	-0.050
2020/01/31 20:21:12.7	6.610	0.090	-0.320	-0.060
2020/01/31 20:21:12.8	6.590	0.110	-0.350	-0.070
2020/01/31 20:21:12.9	6.560	0.130	-0.370	-0.090
2020/01/31 20:21:13.0	6.550	0.150	-0.400	-0.100
2020/01/31 20:21:13.1	6.540	0.180	-0.420	-0.120
2020/01/31 20:21:13.2	6.530	0.200	-0.450	-0.140
2020/01/31 20:21:13.3	6.520	0.230	-0.470	-0.160
2020/01/31 20:21:13.4	6.520	0.260	-0.500	-0.180
2020/01/31 20:21:13.5	6.520	0.280	-0.530	-0.200
2020/01/31 20:21:13.6	6.520	0.310	-0.550	-0.220
2020/01/31 20:21:13.7	6.530	0.340	-0.570	-0.240
2020/01/31 20:21:13.8	6.530	0.370	-0.600	-0.270
2020/01/31 20:21:13.9	6.550	0.390	-0.620	-0.290
2020/01/31 20:21:14.0	6.570	0.410	-0.630	-0.310
2020/01/31 20:21:14.1	6.580	0.440	-0.640	-0.340
2020/01/31 20:21:14.2	6.600	0.450	-0.650	-0.360
2020/01/31 20:21:14.3	6.620	0.470	-0.660	-0.390
2020/01/31 20:21:14.4	6.650	0.480	-0.660	-0.410
2020/01/31 20:21:14.5	6.670	0.490	-0.660	-0.440
2020/01/31 20:21:14.6	6.700	0.500	-0.650	-0.460
2020/01/31 20:21:14.7	6.720	0.500	-0.640	-0.490
2020/01/31 20:21:14.8	6.750	0.500	-0.620	-0.510
2020/01/31 20:21:14.9	6.790	0.490	-0.610	-0.540
2020/01/31 20:21:15.0	6.820	0.480	-0.580	-0.570
2020/01/31 20:21:15.1	6.850	0.470	-0.560	-0.590
2020/01/31 20:21:15.2	6.880	0.450	-0.530	-0.620
2020/01/31 20:21:15.3	6.920	0.420	-0.490	-0.640
2020/01/31 20:21:15.4	6.950	0.400	-0.460	-0.660
2020/01/31 20:21:15.5	6.990	0.370	-0.420	-0.690
2020/01/31 20:21:15.6	7.020	0.330	-0.380	-0.710
2020/01/31 20:21:15.7	7.060	0.300	-0.340	-0.720
2020/01/31 20:21:15.8	7.090	0.260	-0.290	-0.740
2020/01/31 20:21:15.9	7.120	0.220	-0.250	-0.750
2020/01/31 20:21:16.0	7.150	0.170	-0.210	-0.760
2020/01/31 20:21:16.1	7.190	0.120	-0.160	-0.770
2020/01/31 20:21:16.2	7.220	0.080	-0.120	-0.780
2020/01/31 20:21:16.3	7.250	0.030	-0.080	-0.790
2020/01/31 20:21:16.4	7.280	-0.020	-0.030	-0.790
2020/01/31 20:21:16.5	7.300	-0.070	0.010	-0.790
2020/01/31 20:21:16.6	7.330	-0.120	0.050	-0.790
2020/01/31 20:21:16.7	7.350	-0.170	0.090	-0.790
2020/01/31 20:21:16.8	7.370	-0.220	0.130	-0.790
2020/01/31 20:21:16.9	7.370	-0.270	0.160	-0.780
2020/01/31 20:21:17.0	7.390	-0.310	0.200	-0.770
2020/01/31 20:21:17.1	7.410	-0.360	0.230	-0.760
2020/01/31 20:21:17.2	7.420	-0.400	0.260	-0.750
2020/01/31 20:21:17.3	7.440	-0.440	0.280	-0.730
2020/01/31 20:21:17.4	7.450	-0.470	0.310	-0.720
2020/01/31 20:21:17.5	7.460	-0.510	0.330	-0.700
2020/01/31 20:21:17.6	7.470	-0.530	0.350	-0.670
2020/01/31 20:21:17.7	7.470	-0.560	0.370	-0.650
2020/01/31 20:21:17.8	7.470	-0.580	0.380	-0.630
2020/01/31 20:21:17.9	7.480	-0.600	0.390	-0.600
2020/01/31 20:21:18.0	7.470	-0.620	0.400	-0.570
2020/01/31 20:21:18.1	7.470	-0.630	0.410	-0.530
2020/01/31 20:21:18.2	7.460	-0.640	0.410	-0.500
2020/01/31 20:21:18.3	7.450	-0.650	0.410	-0.470
2020/01/31 20:21:18.4	7.440	-0.650	0.410	-0.430
2020/01/31 20:21:18.5	7.420	-0.650	0.400	-0.400
2020/01/31 20:21:18.6	7.410	-0.650	0.390	-0.360
2020/01/31 20:21:18.7	7.390	-0.650	0.380	-0.320
2020/01/31 20:21:18.8	7.370	-0.640	0.370	-0.290
2020/01/31 20:21:18.9	7.340	-0.630	0.350	-0.250
2020/01/31 20:21:19.0	7.320	-0.620	0.330	-0.210
2020/01/31 20:21:19.1	7.290	-0.600	0.300	-0.180
2020/01/31 20:21:19.2	7.270	-0.590	0.280	-0.150
2020/01/31 20:21:19.3	7.240	-0.570	0.250	-0.110
2020/01/31 20:21:19.4	7.210	-0.550	0.220	-0.080
2020/01/31 20:21:19.5	7.180	-0.530	0.190	-0.050
2020/01/31 20:21:19.6	7.140	-0.510	0.160	-0.030
2020/01/31 20:21:19.7	7.110	-0.490	0.130	-0.000
2020/01/31 20:21:19.8	7.080	-0.470	0.090	0.020
2020/01/31 20:21:19.9	7.050	-0.450	0.050	0.040
2020/01/31 20:21:20.0	7.020	-0.430	0.010	0.060
2020/01/31 20:21:20.1	6.980	-0.410	-0.030	0.080
2020/01/31 20:21:20.2	6.940	-0.380	-0.070	0.090
2020/01/31 20:21:20.3	6.910	-0.360	-0.110	0.100
2020/01/31 20:21:20.4	6.870	-0.340	-0.150	0.100
2020/01/31 20:21:20.5	6.830	-0.310	-0.190	0.100
2020/01/31 20:21:20.6	6.790	-0.290	-0.230	0.100
2020/01/31 20:21:20.7	6.760	-0.260	-0.270	0.100
2020/01/31 20:21:20.8	6.720	-0.240	-0.320	0.100
2020/01/31 20:21:20.9	6.700	-0.210	-0.350	0.090
2020/01/31 20:21:21.0	6.660	-0.190	-0.390	0.080
2020/01/31 20:21:21.1	6.630	-0.160	-0.430	0.070
2020/01/31 20:21:21.2	6.600	-0.130	-0.470	0.060
2020/01/31 20:21:21.3	6.570	-0.100	-0.510	0.040
2020/01/31 20:21:21.4	6.540	-0.070	-0.540	0.030
2020/01/31 20:21:21.5	6.510	-0.040	-0.580	0.010
2020/01/31 20:21:21.6	6.490	-0.010	-0.610	-0.000
2020/01/31 20:21:21.7	6.470	0.020	-0.640	-0.020
2020/01/31 20:21:21.8	6.450	0.060	-0.670	-0.040
2020/01/31 20:21:21.9	6.430	0.090	-0.700	-0.060
2020/01/31 20:21:22.0	6.410	0.130	-0.730	-0.080
2020/01/31 20:21:22.1	6.400	0.170	-0.760	-0.100
2020/01/31 20:21:22.2	6.400	0.210	-0.790	-0.120
2020/01/31 20:21:22.3	6.390	0.250	-0.810	-0.140
2020/01/31 20:21:22.4	6.390	0.290	-0.830	-0.160
2020/01/31 20:21:22.5	6.390	0.330	-0.850	-0.180
2020/01/31 20:21:22.6	6.400	0.370	-0.870	-0.200
2020/01/31 20:21:22.7	6.410	0.410	-0.890	-0.220
2020/01/31 20:21:22.8	6.420	0.450	-0.910	-0.250
2020/01/31 20:21:22.9	6.430	0.490	-0.920	-0.270
2020/01/31 20:21:23.0	6.440	0.530	-0.940	-0.300
2020/01/31 20:21:23.1	6.470	0.570	-0.950	-0.320
2020/01/31 20:21:23.2	6.490	0.600	-0.960	-0.350
2020/01/31 20:21:23.3	6.520	0.640	-0.970	-0.380
2020/01/31 20:21:23.4	6.550	0.670	-0.980	-0.400
2020/01/31 20:21:23.5	6.580	0.700	-0.980	-0.430
2020/01/31 20:21:23.6	6.610	0.730	-0.990	-0.460
2020/01/31 20:21:23.7	6.640	0.750	-0.990	-0.490
2020/01/31 20:21:23.8	6.680	0.780	-0.990	-0.510
2020/01/31 20:21:23.9	6.720	0.800	-0.980	-0.540
2020/01/31 20:21:24.0	6.760	0.810	-0.980	-0.570
2020/01/31 20:21:24.1	6.800	0.820	-0.970	-0.590
2020/01/31 20:21:24.2	6.840	0.830	-0.950	-0.610
2020/01/31 20:21:24.3	6.880	0.830	-0.940	-0.630
2020/01/31 20:21:24.4	6.920	0.830	-0.920	-0.650
2020/01/31 20:21:24.5	6.960	0.830	-0.890	-0.670
2020/01/31 20:21:24.6	7.000	0.820	-0.870	-0.680
2020/01/31 20:21:24.7	7.040	0.800	-0.840	-0.690
2020/01/31 20:21:24.8	7.080	0.780	-0.800	-0.700
2020/01/31 20:21:24.9	7.140	0.760	-0.760	-0.700
2020/01/31 20:21:25.0	7.170	0.730	-0.720	-0.710
2020/01/31 20:21:25.1	7.210	0.700	-0.670	-0.720
2020/01/31 20:21:25.2	7.250	0.660	-0.620	-0.720
2020/01/31 20:21:25.3	7.280	0.620	-0.560	-0.720
2020/01/31 20:21:25.4	7.310	0.580	-0.510	-0.720
2020/01/31 20:21:25.5	7.350	0.530	-0.440	-0.720
2020/01/31 20:21:25.6	7.380	0.480	-0.380	-0.720
2020/01/31 20:21:25.7	7.410	0.430	-0.310	-0.720
2020/01/31 20:21:25.8	7.430	0.370	-0.250	-0.710
2020/01/31 20:21:25.9	7.450	0.310	-0.180	-0.710
2020/01/31 20:21:26.0	7.470	0.250	-0.100	-0.700
2020/01/31 20:21:26.1	7.490	0.190	-0.030	-0.690
2020/01/31 20:21:26.2	7.500	0.130	0.050	-0.680
2020/01/31 20:21:26.3	7.510	0.070	0.120	-0.660
2020/01/31 20:21:26.4	7.520	0.000	0.200	-0.640
2020/01/31 20:21:26.5	7.520	-0.060	0.280	-0.620
2020/01/31 20:21:26.6	7.520	-0.120	0.360	-0.590
2020/01/31 20:21:26.7	7.520	-0.190	0.430	-0.560
2020/01/31 20:21:26.8	7.510	-0.250	0.510	-0.530
2020/01/31 20:21:26.9	7.470	-0.300	0.580	-0.500
2020/01/31 20:21:27.0	7.460	-0.360	0.650	-0.460
2020/01/31 20:21:27.1	7.430	-0.410	0.720	-0.420
2020/01/31 20:21:27.2	7.410	-0.460	0.790	-0.380
2020/01/31 20:21:27.3	7.380	-0.510	0.850	-0.340
2020/01/31 20:21:27.4	7.340	-0.560	0.900	-0.300
2020/01/31 20:21:27.5	7.310	-0.600	0.950	-0.250
2020/01/31 20:21:27.6	7.270	-0.630	1.000	-0.210
2020/01/31 20:21:27.7	7.230	-0.660	1.030	-0.170
2020/01/31 20:21:27.8	7.180	-0.690	1.060	-0.120
2020/01/31 20:21:27.9	7.140	-0.710	1.080	-0.080
2020/01/31 20:21:28.0	7.090	-0.730	1.100	-0.040
2020/01/31 20:21:28.1	7.050	-0.750	1.100	-0.000
2020/01/31 20:21:28.2	7.000	-0.750	1.100	0.030
2020/01/31 20:21:28.3	6.950	-0.760	1.090	0.070
2020/01/31 20:21:28.4	6.900	-0.760	1.060	0.090
2020/01/31 20:21:28.5	6.860	-0.750	1.030	0.120
2020/01/31 20:21:28.6	6.810	-0.740	0.990	0.140
2020/01/31 20:21:28.7	6.770	-0.720	0.940	0.160
2020/01/31 20:21:28.8	6.720	-0.700	0.880	0.170
2020/01/31 20:21:28.9	6.670	-0.670	0.810	0.180
2020/01/31 20:21:29.0	6.630	-0.640	0.730	0.180
2020/01/31 20:21:29.1	6.600	-0.610	0.640	0.180
2020/01/31 20:21:29.2	6.560	-0.570	0.550	0.180
2020/01/31 20:21:29.3	6.520	-0.530	0.440	0.170
2020/01/31 20:21:29.4	6.490	-0.480	0.330	0.160
2020/01/31 20:21:29.5	6.460	-0.430	0.220	0.150
2020/01/31 20:21:29.6	6.430	-0.380	0.100	0.130
2020/01/31 20:21:29.7	6.410	-0.320	-0.030	0.100
2020/01/31 20:21:29.8	6.390	-0.260	-0.160	0.080
2020/01/31 20:21:29.9	6.380	-0.200	-0.290	0.050
2020/01/31 20:21:30.0	6.360	-0.140	-0.420	0.020
2020/01/31 20:21:30.1	6.350	-0.080	-0.550	-0.010
2020/01/31 20:21:30.2	6.340	-0.020	-0.680	-0.050
2020/01/31 20:21:30.3	6.330	0.040	-0.800	-0.080
2020/01/31 20:21:30.4	6.330	0.100	-0.920	-0.120
2020/01/31 20:21:30.5	6.330	0.160	-1.040	-0.160
2020/01/31 20:21:30.6	6.340	0.220	-1.140	-0.190
2020/01/31 20:21:30.7	6.350	0.280	-1.250	-0.230
2020/01/31 20:21:30.8	6.360	0.330	-1.340	-0.270
2020/01/31 20:21:30.9	6.360	0.380	-1.420	-0.310
2020/01/31 20:21:31.0	6.380	0.430	-1.490	-0.340
2020/01/31 20:21:31.1	6.400	0.470	-1.550	-0.380
2020/01/31 20:21:31.2	6.420	0.510	-1.610	-0.410
2020/01/31 20:21:31.3	6.450	0.550	-1.650	-0.450
2020/01/31 20:21:31.4	6.480	0.580	-1.670	-0.480
2020/01/31 20:21:31.5	6.500	0.610	-1.690	-0.510
2020/01/31 20:21:31.6	6.530	0.630	-1.690	-0.540
2020/01/31 20:21:31.7	6.560	0.640	-1.690	-0.560
2020/01/31 20:21:31.8	6.600	0.650	-1.670	-0.590
2020/01/31 20:21:31.9	6.630	0.650	-1.640	-0.610
2020/01/31 20:21:32.0	6.670	0.650	-1.600	-0.630
2020/01/31 20:21:32.1	6.700	0.640	-1.550	-0.640
2020/01/31 20:21:32.2	6.730	0.630	-1.500	-0.660
2020/01/31 20:21:32.3	6.770	0.610	-1.430	-0.670
2020/01/31 20:21:32.4	6.800	0.590	-1.360	-0.680
2020/01/31 20:21:32.5	6.830	0.560	-1.280	-0.690
2020/01/31 20:21:32.6	6.870	0.530	-1.190	-0.690
2020/01/31 20:21:32.7	6.900	0.490	-1.100	-0.690
2020/01/31 20:21:32.8	6.930	0.450	-1.010	-0.690
2020/01/31 20:21:32.9	6.950	0.410	-0.920	-0.690
2020/01/31 20:21:33.0	6.980	0.360	-0.820	-0.680
2020/01/31 20:21:33.1	7.000	0.310	-0.720	-0.680
2020/01/31 20:21:33.2	7.030	0.260	-0.620	-0.670
2020/01/31 20:21:33.3	7.050	0.200	-0.510	-0.650
2020/01/31 20:21:33.4	7.070	0.150	-0.410	-0.640
2020/01/31 20:21:33.5	7.090	0.090	-0.310	-0.620
2020/01/31 20:21:33.6	7.110	0.040	-0.220	-0.610
2020/01/31 20:21:33.7	7.130	-0.020	-0.120	-0.590
2020/01/31 20:21:33.8	7.150	-0.070	-0.030	-0.570
2020/01/31 20:21:33.9	7.170	-0.130	0.050	-0.550
2020/01/31 20:21:34.0	7.180	-0.180	0.140	-0.520
2020/01/31 20:21:34.1	7.200	-0.230	0.220	-0.500
2020/01/31 20:21:34.2	7.210	-0.280	0.290	-0.480
2020/01/31 20:21:34.3	7.220	-0.320	0.360	-0.460
2020/01/31 20:21:34.4	7.230	-0.360	0.420	-0.440
2020/01/31 20:21:34.5	7.240	-0.400	0.470	-0.420
2020/01/31 20:21:34.6	7.240	-0.440	0.520	-0.400
2020/01/31 20:21:34.7	7.250	-0.470	0.570	-0.380
2020/01/31 20:21:34.8	7.250	-0.500	0.600	-0.360
2020/01/31 20:21:34.9	7.250	-0.520	0.630	-0.340
2020/01/31 20:21:35.0	7.250	-0.540	0.660	-0.320
2020/01/31 20:21:35.1	7.240	-0.560	0.670	-0.290
2020/01/31 20:21:35.2	7.240	-0.570	0.690	-0.270
2020/01/31 20:21:35.3	7.230	-0.570	0.690	-0.250
2020/01/31 20:21:35.4	7.220	-0.580	0.690	-0.230
2020/01/31 20:21:35.5	7.210	-0.570	0.690	-0.210
2020/01/31 20:21:35.6	7.190	-0.570	0.680	-0.180
2020/01/31 20:21:35.7	7.180	-0.560	0.660	-0.160
2020/01/31 20:21:35.8	7.160	-0.540	0.640	-0.140
2020/01/31 20:21:35.9	7.140	-0.520	0.620	-0.110
2020/01/31 20:21:36.0	7.120	-0.500	0.590	-0.090
2020/01/31 20:21:36.1	7.100	-0.480	0.560	-0.060
2020/01/31 20:21:36.2	7.080	-0.450	0.520	-0.040
2020/01/31 20:21:36.3	7.060	-0.420	0.490	-0.020
2020/01/31 20:21:36.4	7.040	-0.390	0.440	0.010
2020/01/31 20:21:36.5	7.020	-0.350	0.400	0.030
2020/01/31 20:21:36.6	6.990	-0.310	0.360	0.050
2020/01/31 20:21:36.7	6.970	-0.280	0.310	0.070
2020/01/31 20:21:36.8	6.950	-0.240	0.260	0.090
2020/01/31 20:21:36.9	6.930	-0.200	0.210	0.110
2020/01/31 20:21:37.0	6.900	-0.160	0.160	0.130
2020/01/31 20:21:37.1	6.880	-0.110	0.110	0.150
2020/01/31 20:21:37.2	6.860	-0.070	0.060	0.170
2020/01/31 20:21:37.3	6.840	-0.030	0.010	0.180
2020/01/31 20:21:37.4	6.810	0.010	-0.040	0.190
2020/01/31 20:21:37.5	6.800	0.040	-0.090	0.200
2020/01/31 20:21:37.6	6.780	0.080	-0.140	0.210
2020/01/31 20:21:37.7	6.760	0.120	-0.180	0.220
2020/01/31 20:21:37.8	6.740	0.150	-0.230	0.220
2020/01/31 20:21:37.9	6.730	0.190	-0.270	0.220
2020/01/31 20:21:38.0	6.720	0.220	-0.310	0.220
2020/01/31 20:21:38.1	6.710	0.250	-0.360	0.210
2020/01/31 20:21:38.2	6.700	0.280	-0.390	0.210
2020/01/31 20:21:38.3	6.690	0.300	-0.430	0.200
2020/01/31 20:21:38.4	6.690	0.320	-0.460	0.190
2020/01/31 20:21:38.5	6.690	0.350	-0.490	0.180
2020/01/31 20:21:38.6	6.690	0.370	-0.520	0.160
2020/01/31 20:21:38.7	6.690	0.380	-0.540	0.150
2020/01/31 20:21:38.8	6.690	0.400	-0.570	0.130
2020/01/31 20:21:38.9	6.710	0.410	-0.590	0.110
2020/01/31 20:21:39.0	6.720	0.420	-0.600	0.100
2020/01/31 20:21:39.1	6.730	0.430	-0.610	0.080
2020/01/31 20:21:39.2	6.730	0.440	-0.620	0.060
2020/01/31 20:21:39.3	6.750	0.440	-0.630	0.050
2020/01/31 20:21:39.4	6.760	0.440	-0.640	0.030
2020/01/31 20:21:39.5	6.770	0.440	-0.640	0.010
2020/01/31 20:21:39.6	6.780	0.430	-0.630	-0.010
2020/01/31 20:21:39.7	6.790	0.430	-0.630	-0.020
2020/01/31 20:21:39.8	6.800	0.420	-0.620	-0.040
2020/01/31 20:21:39.9	6.810	0.400	-0.610	-0.060
2020/01/31 20:21:40.0	6.810	0.390	-0.600	-0.080
2020/01/31 20:21:40.1	6.820	0.370	-0.580	-0.090
2020/01/31 20:21:40.2	6.830	0.350	-0.560	-0.110
2020/01/31 20:21:40.3	6.830	0.330	-0.540	-0.130
2020/01/31 20:21:40.4	6.830	0.310	-0.520	-0.150
2020/01/31 20:21:40.5	6.830	0.290	-0.500	-0.170
2020/01/31 20:21:40.6	6.830	0.260	-0.470	-0.190
2020/01/31 20:21:40.7	6.830	0.230	-0.450	-0.210
2020/01/31 20:21:40.8	6.820	0.210	-0.420	-0.230
2020/01/31 20:21:40.9	6.790	0.180	-0.400	-0.260
2020/01/31 20:21:41.0	6.780	0.150	-0.370	-0.280
2020/01/31 20:21:41.1	6.760	0.120	-0.340	-0.300
2020/01/31 20:21:41.2	6.740	0.090	-0.320	-0.310
2020/01/31 20:21:41.3	6.720	0.060	-0.290	-0.330
2020/01/31 20:21:41.4	6.690	0.030	-0.270	-0.350
2020/01/31 20:21:41.5	6.660	0.010	-0.240	-0.360
2020/01/31 20:21:41.6	6.630	-0.020	-0.220	-0.370
2020/01/31 20:21:41.7	6.600	-0.040	-0.200	-0.380
2020/01/31 20:21:41.8	6.560	-0.070	-0.170	-0.380
2020/01/31 20:21:41.9	6.520	-0.090	-0.160	-0.390
2020/01/31 20:21:42.0	6.490	-0.100	-0.140	-0.390
2020/01/31 20:21:42.1	6.450	-0.120	-0.120	-0.400
2020/01/31 20:21:42.2	6.420	-0.130	-0.110	-0.400
2020/01/31 20:21:42.3	6.380	-0.140	-0.100	-0.400
2020/01/31 20:21:42.4	6.350	-0.150	-0.100	-0.400
2020/01/31 20:21:42.5	6.320	-0.160	-0.090	-0.400
2020/01/31 20:21:42.6	6.300	-0.160	-0.100	-0.400
2020/01/31 20:21:42.7	6.270	-0.160	-0.100	-0.400
2020/01/31 20:21:42.8	6.250	-0.150	-0.110	-0.410
2020/01/31 20:21:42.9	6.240	-0.150	-0.120	-0.410
2020/01/31 20:21:43.0	6.220	-0.140	-0.140	-0.420
2020/01/31 20:21:43.1	6.210	-0.130	-0.170	-0.420
2020/01/31 20:21:43.2	6.200	-0.110	-0.190	-0.430
2020/01/31 20:21:43.3	6.200	-0.100	-0.220	-0.430
2020/01/31 20:21:43.4	6.190	-0.080	-0.250	-0.440
2020/01/31 20:21:43.5	6.200	-0.060	-0.290	-0.450
2020/01/31 20:21:43.6	6.200	-0.040	-0.320	-0.460
2020/01/31 20:21:43.7	6.210	-0.020	-0.360	-0.470
2020/01/31 20:21:43.8	6.220	-0.000	-0.400	-0.490
2020/01/31 20:21:43.9	6.240	0.020	-0.450	-0.500
2020/01/31 20:21:44.0	6.260	0.040	-0.490	-0.510
2020/01/31 20:21:44.1	6.280	0.060	-0.530	-0.520
2020/01/31 20:21:44.2	6.300	0.090	-0.570	-0.530
2020/01/31 20:21:44.3	6.330	0.110	-0.610	-0.550
2020/01/31 20:21:44.4	6.360	0.130	-0.650	-0.560
2020/01/31 20:21:44.5	6.390	0.150	-0.680	-0.570
2020/01/31 20:21:44.6	6.420	0.170	-0.720	-0.590
2020/01/31 20:21:44.7	6.460	0.180	-0.750	-0.600
2020/01/31 20:21:44.8	6.500	0.200	-0.770	-0.610
2020/01/31 20:21:44.9	6.540	0.210	-0.790	-0.620
2020/01/31 20:21:45.0	6.580	0.220	-0.810	-0.630
2020/01/31 20:21:45.1	6.620	0.230	-0.820	-0.640
2020/01/31 20:21:45.2	6.660	0.230	-0.830	-0.650
2020/01/31 20:21:45.3	6.710	0.230	-0.830	-0.650
2020/01/31 20:21:45.4	6.760	0.230	-0.830	-0.660
2020/01/31 20:21:45.5	6.800	0.230	-0.820	-0.670
2020/01/31 20:21:45.6	6.850	0.220	-0.800	-0.670
2020/01/31 20:21:45.7	6.890	0.210	-0.780	-0.670
2020/01/31 20:21:45.8	6.930	0.190	-0.750	-0.680
2020/01/31 20:21:45.9	6.990	0.170	-0.720	-0.670
2020/01/31 20:21:46.0	7.040	0.150	-0.690	-0.670
2020/01/31 20:21:46.1	7.080	0.130	-0.640	-0.670
2020/01/31 20:21:46.2	7.110	0.100	-0.590	-0.660
2020/01/31 20:21:46.3	7.150	0.070	-0.540	-0.660
2020/01/31 20:21:46.4	7.180	0.040	-0.480	-0.650
2020/01/31 20:21:46.5	7.210	0.000	-0.420	-0.640
2020/01/31 20:21:46.6	7.240	-0.030	-0.350	-0.620
2020/01/31 20:21:46.7	7.270	-0.070	-0.280	-0.600
2020/01/31 20:21:46.8	7.290	-0.110	-0.210	-0.580
2020/01/31 20:21:46.9	7.320	-0.150	-0.140	-0.560
2020/01/31 20:21:47.0	7.330	-0.190	-0.070	-0.540
2020/01/31 20:21:47.1	7.340	-0.240	0.010	-0.510
2020/01/31 20:21:47.2	7.350	-0.280	0.080	-0.470
2020/01/31 20:21:47.3	7.350	-0.320	0.150	-0.440
2020/01/31 20:21:47.4	7.350	-0.360	0.220	-0.400
2020/01/31 20:21:47.5	7.350	-0.400	0.290	-0.360
2020/01/31 20:21:47.6	7.340	-0.440	0.350	-0.310
2020/01/31 20:21:47.7	7.330	-0.480	0.420	-0.270
2020/01/31 20:21:47.8	7.310	-0.510	0.470	-0.220
2020/01/31 20:21:47.9	7.280	-0.550	0.520	-0.170
2020/01/31 20:21:48.0	7.250	-0.580	0.570	-0.110
2020/01/31 20:21:48.1	7.230	-0.600	0.610	-0.060
2020/01/31 20:21:48.2	7.190	-0.630	0.650	-0.010
2020/01/31 20:21:48.3	7.160	-0.650	0.680	0.040
2020/01/31 20:21:48.4	7.120	-0.670	0.710	0.090
2020/01/31 20:21:48.5	7.080	-0.680	0.730	0.140
2020/01/31 20:21:48.6	7.030	-0.690	0.740	0.180
2020/01/31 20:21:48.7	6.990	-0.700	0.740	0.230
2020/01/31 20:21:48.8	6.940	-0.700	0.740	0.270
2020/01/31 20:21:48.9	6.890	-0.700	0.740	0.300
2020/01/31 20:21:49.0	6.840	-0.690	0.720	0.340
2020/01/31 20:21:49.1	6.790	-0.680	0.700	0.370
2020/01/31 20:21:49.2	6.740	-0.660	0.670	0.390
2020/01/31 20:21:49.3	6.690	-0.640	0.630	0.420
2020/01/31 20:21:49.4	6.640	-0.620	0.590	0.430
2020/01/31 20:21:49.5	6.590	-0.590	0.540	0.450
2020/01/31 20:21:49.6	6.540	-0.550	0.480	0.460
2020/01/31 20:21:49.7	6.490	-0.510	0.420	0.470
2020/01/31 20:21:49.8	6.440	-0.470	0.360	0.470
2020/01/31 20:21:49.9	6.380	-0.420	0.280	0.470
2020/01/31 20:21:50.0	6.340	-0.370	0.210	0.470
2020/01/31 20:21:50.1	6.290	-0.320	0.140	0.470
2020/01/31 20:21:50.2	6.250	-0.260	0.060	0.460
2020/01/31 20:21:50.3	6.200	-0.200	-0.010	0.450
2020/01/31 20:21:50.4	6.160	-0.140	-0.090	0.450
2020/01/31 20:21:50.5	6.120	-0.070	-0.170	0.440
2020/01/31 20:21:50.6	6.090	-0.010	-0.240	0.430
2020/01/31 20:21:50.7	6.050	0.060	-0.320	0.420
2020/01/31 20:21:50.8	6.020	0.130	-0.390	0.410
2020/01/31 20:21:50.9	6.000	0.200	-0.450	0.390
2020/01/31 20:21:51.0	5.970	0.260	-0.510	0.380
2020/01/31 20:21:51.1	5.940	0.330	-0.570	0.380
2020/01/31 20:21:51.2	5.920	0.400	-0.630	0.370
2020/01/31 20:21:51.3	5.890	0.460	-0.670	0.360
2020/01/31 20:21:51.4	5.870	0.520	-0.720	0.350
2020/01/31 20:21:51.5	5.850	0.580	-0.760	0.340
2020/01/31 20:21:51.6	5.830	0.640	-0.790	0.330
2020/01/31 20:21:51.7	5.820	0.700	-0.820	0.320
2020/01/31 20:21:51.8	5.800	0.750	-0.840	0.310
2020/01/31 20:21:51.9	5.790	0.790	-0.860	0.300
2020/01/31 20:21:52.0	5.780	0.840	-0.870	0.290
2020/01/31 20:21:52.1	5.770	0.870	-0.870	0.280
2020/01/31 20:21:52.2	5.770	0.910	-0.870	0.270
2020/01/31 20:21:52.3	5.770	0.930	-0.870	0.260
2020/01/31 20:21:52.4	5.760	0.960	-0.860	0.250
2020/01/31 20:21:52.5	5.760	0.970	-0.850	0.230
2020/01/31 20:21:52.6	5.770	0.990	-0.830	0.220
2020/01/31 20:21:52.7	5.770	0.990	-0.810	0.200
2020/01/31 20:21:52.8	5.780	0.990	-0.790	0.180
2020/01/31 20:21:52.9	5.780	0.990	-0.770	0.150
2020/01/31 20:21:53.0	5.790	0.980	-0.740	0.130
2020/01/31 20:21:53.1	5.800	0.960	-0.720	0.110
2020/01/31 20:21:53.2	5.820	0.940	-0.690	0.080
2020/01/31 20:21:53.3	5.830	0.910	-0.660	0.050
2020/01/31 20:21:53.4	5.850	0.880	-0.640	0.020
2020/01/31 20:21:53.5	5.880	0.840	-0.610	-0.020
2020/01/31 20:21:53.6	5.900	0.800	-0.580	-0.050
2020/01/31 20:21:53.7	5.920	0.760	-0.550	-0.090
2020/01/31 20:21:53.8	5.950	0.710	-0.530	-0.130
2020/01/31 20:21:53.9	5.970	0.650	-0.510	-0.180
2020/01/31 20:21:54.0	6.000	0.600	-0.480	-0.220
2020/01/31 20:21:54.1	6.040	0.540	-0.460	-0.260
2020/01/31 20:21:54.2	6.070	0.480	-0.440	-0.310
2020/01/31 20:21:54.3	6.110	0.420	-0.420	-0.350
2020/01/31 20:21:54.4	6.140	0.350	-0.400	-0.400
2020/01/31 20:21:54.5	6.180	0.290	-0.380	-0.440
2020/01/31 20:21:54.6	6.220	0.220	-0.360	-0.490
2020/01/31 20:21:54.7	6.260	0.150	-0.350	-0.530
2020/01/31 20:21:54.8	6.290	0.090	-0.330	-0.580
2020/01/31 20:21:54.9	6.330	0.020	-0.310	-0.620
2020/01/31 20:21:55.0	6.370	-0.050	-0.290	-0.660
2020/01/31 20:21:55.1	6.400	-0.110	-0.280	-0.700
2020/01/31 20:21:55.2	6.430	-0.180	-0.260	-0.730
2020/01/31 20:21:55.3	6.470	-0.240	-0.240	-0.760
2020/01/31 20:21:55.4	6.500	-0.310	-0.220	-0.790
2020/01/31 20:21:55.5	6.520	-0.370	-0.200	-0.810
2020/01/31 20:21:55.6	6.550	-0.420	-0.190	-0.830
2020/01/31 20:21:55.7	6.580	-0.480	-0.170	-0.850
2020/01/31 20:21:55.8	6.600	-0.530	-0.150	-0.870
2020/01/31 20:21:55.9	6.620	-0.580	-0.130	-0.870
2020/01/31 20:21:56.0	6.640	-0.620	-0.110	-0.880
2020/01/31 20:21:56.1	6.660	-0.670	-0.090	-0.880
2020/01/31 20:21:56.2	6.680	-0.700	-0.070	-0.880
2020/01/31 20:21:56.3	6.690	-0.740	-0.050	-0.870
2020/01/31 20:21:56.4	6.700	-0.770	-0.030	-0.860
2020/01/31 20:21:56.5	6.720	-0.790	-0.010	-0.840
2020/01/31 20:21:56.6	6.730	-0.810	0.010	-0.820
2020/01/31 20:21:56.7	6.730	-0.830	0.030	-0.800
2020/01/31 20:21:56.8	6.740	-0.840	0.040	-0.770
2020/01/31 20:21:56.9	6.740	-0.840	0.050	-0.740
2020/01/31 20:21:57.0	6.740	-0.850	0.070	-0.710
2020/01/31 20:21:57.1	6.740	-0.840	0.070	-0.680
2020/01/31 20:21:57.2	6.740	-0.840	0.080	-0.650
2020/01/31 20:21:57.3	6.740	-0.820	0.090	-0.610
2020/01/31 20:21:57.4	6.740	-0.810	0.090	-0.580
2020/01/31 20:21:57.5	6.740	-0.790	0.080	-0.540
2020/01/31 20:21:57.6	6.740	-0.760	0.080	-0.510
2020/01/31 20:21:57.7	6.730	-0.730	0.070	-0.470
2020/01/31 20:21:57.8	6.730	-0.700	0.060	-0.430
2020/01/31 20:21:57.9	6.720	-0.660	0.040	-0.390
2020/01/31 20:21:58.0	6.710	-0.620	0.020	-0.360
2020/01/31 20:21:58.1	6.710	-0.570	-0.010	-0.320
2020/01/31 20:21:58.2	6.710	-0.520	-0.030	-0.280
2020/01/31 20:21:58.3	6.700	-0.470	-0.060	-0.240
2020/01/31 20:21:58.4	6.690	-0.420	-0.100	-0.210
2020/01/31 20:21:58.5	6.690	-0.370	-0.130	-0.170
2020/01/31 20:21:58.6	6.680	-0.310	-0.170	-0.140
2020/01/31 20:21:58.7	6.670	-0.250	-0.210	-0.110
2020/01/31 20:21:58.8	6.660	-0.190	-0.250	-0.070
2020/01/31 20:21:58.9	6.660	-0.130	-0.290	-0.040
2020/01/31 20:21:59.0	6.650	-0.070	-0.340	-0.010
2020/01/31 20:21:59.1	6.640	-0.010	-0.380	0.010
2020/01/31 20:21:59.2	6.630	0.050	-0.420	0.040
2020/01/31 20:21:59.3	6.620	0.100	-0.450	0.070
2020/01/31 20:21:59.4	6.600	0.160	-0.490	0.090
2020/01/31 20:21:59.5	6.590	0.210	-0.520	0.110
2020/01/31 20:21:59.6	6.570	0.260	-0.550	0.130
2020/01/31 20:21:59.7	6.550	0.310	-0.580	0.160
2020/01/31 20:21:59.8	6.530	0.350	-0.600	0.180
2020/01/31 20:21:59.9	6.500	0.390	-0.610	0.200
2020/01/31 20:22:00.0	6.470	0.420	-0.630	0.220
2020/01/31 20:22:00.1	6.440	0.450	-0.630	0.230
2020/01/31 20:22:00.2	6.410	0.480	-0.640	0.250
2020/01/31 20:22:00.3	6.380	0.500	-0.630	0.260
2020/01/31 20:22:00.4	6.350	0.510	-0.620	0.280
2020/01/31 20:22:00.5	6.310	0.520	-0.610	0.290
2020/01/31 20:22:00.6	6.270	0.520	-0.590	0.290
2020/01/31 20:22:00.7	6.240	0.520	-0.560	0.300
2020/01/31 20:22:00.8	6.200	0.510	-0.530	0.300
2020/01/31 20:22:00.9	6.150	0.500	-0.500	0.300
2020/01/31 20:22:01.0	6.120	0.480	-0.460	0.290
2020/01/31 20:22:01.1	6.080	0.460	-0.420	0.280
2020/01/31 20:22:01.2	6.050	0.430	-0.370	0.270
2020/01/31 20:22:01.3	6.020	0.400	-0.320	0.250
2020/01/31 20:22:01.4	5.990	0.360	-0.270	0.230
2020/01/31 20:22:01.5	5.960	0.320	-0.220	0.210
2020/01/31 20:22:01.6	5.930	0.280	-0.160	0.180
2020/01/31 20:22:01.7	5.900	0.230	-0.110	0.150
2020/01/31 20:22:01.8	5.880	0.190	-0.050	0.120
2020/01/31 20:22:01.9	5.860	0.140	0.000	0.080
2020/01/31 20:22:02.0	5.850	0.090	0.060	0.040
2020/01/31 20:22:02.1	5.830	0.040	0.110	0.000
2020/01/31 20:22:02.2	5.820	-0.010	0.150	-0.040
2020/01/31 20:22:02.3	5.810	-0.060	0.200	-0.090
2020/01/31 20:22:02.4	5.800	-0.100	0.240	-0.130
2020/01/31 20:22:02.5	5.790	-0.150	0.280	-0.180
2020/01/31 20:22:02.6	5.790	-0.190	0.310	-0.220
2020/01/31 20:22:02.7	5.790	-0.230	0.340	-0.270
2020/01/31 20:22:02.8	5.790	-0.270	0.370	-0.320
2020/01/31 20:22:02.9	5.790	-0.300	0.390	-0.360
2020/01/31 20:22:03.0	5.800	-0.330	0.400	-0.410
2020/01/31 20:22:03.1	5.810	-0.350	0.410	-0.450
2020/01/31 20:22:03.2	5.820	-0.380	0.420	-0.490
2020/01/31 20:22:03.3	5.830	-0.390	0.420	-0.530
2020/01/31 20:22:03.4	5.840	-0.410	0.420	-0.560
2020/01/31 20:22:03.5	5.860	-0.420	0.410	-0.590
2020/01/31 20:22:03.6	5.870	-0.420	0.400	-0.620
2020/01/31 20:22:03.7	5.890	-0.420	0.390	-0.650
2020/01/31 20:22:03.8	5.900	-0.420	0.370	-0.670
2020/01/31 20:22:03.9	5.920	-0.410	0.340	-0.690
2020/01/31 20:22:04.0	5.930	-0.400	0.320	-0.710
2020/01/31 20:22:04.1	5.950	-0.380	0.290	-0.720
2020/01/31 20:22:04.2	5.970	-0.360	0.260	-0.720
2020/01/31 20:22:04.3	5.980	-0.340	0.220	-0.720
2020/01/31 20:22:04.4	6.000	-0.310	0.180	-0.720
2020/01/31 20:22:04.5	6.010	-0.280	0.140	-0.720
2020/01/31 20:22:04.6	6.020	-0.240	0.100	-0.710
2020/01/31 20:22:04.7	6.040	-0.210	0.050	-0.690
2020/01/31 20:22:04.8	6.050	-0.170	0.010	-0.670
2020/01/31 20:22:04.9	6.060	-0.130	-0.040	-0.650
2020/01/31 20:22:05.0	6.080	-0.080	-0.090	-0.630
2020/01/31 20:22:05.1	6.090	-0.040	-0.140	-0.600
2020/01/31 20:22:05.2	6.100	0.010	-0.200	-0.580
2020/01/31 20:22:05.3	6.110	0.060	-0.250	-0.550
2020/01/31 20:22:05.4	6.130	0.110	-0.300	-0.520
2020/01/31 20:22:05.5	6.140	0.150	-0.360	-0.490
2020/01/31 20:22:05.6	6.150	0.200	-0.410	-0.460
2020/01/31 20:22:05.7	6.170	0.250	-0.470	-0.420
2020/01/31 20:22:05.8	6.180	0.290	-0.520	-0.390
2020/01/31 20:22:05.9	6.190	0.340	-0.580	-0.360
2020/01/31 20:22:06.0	6.200	0.380	-0.630	-0.330
2020/01/31 20:22:06.1	6.210	0.420	-0.680	-0.290
2020/01/31 20:22:06.2	6.220	0.450	-0.730	-0.260
2020/01/31 20:22:06.3	6.220	0.480	-0.770	-0.230
2020/01/31 20:22:06.4	6.230	0.510	-0.820	-0.200
2020/01/31 20:22:06.5	6.240	0.540	-0.860	-0.170
2020/01/31 20:22:06.6	6.240	0.560	-0.900	-0.140
2020/01/31 20:22:06.7	6.240	0.570	-0.930	-0.110
2020/01/31 20:22:06.8	6.240	0.580	-0.970	-0.080
2020/01/31 20:22:06.9	6.250	0.590	-1.000	-0.060
2020/01/31 20:22:07.0	6.250	0.590	-1.020	-0.040
2020/01/31 20:22:07.1	6.250	0.590	-1.040	-0.020
2020/01/31 20:22:07.2	6.240	0.580	-1.060	-0.010
2020/01/31 20:22:07.3	6.240	0.570	-1.080	-0.000
2020/01/31 20:22:07.4	6.230	0.550	-1.090	0.010
2020/01/31 20:22:07.5	6.230	0.530	-1.090	0.010
2020/01/31 20:22:07.6	6.220	0.500	-1.090	0.000
2020/01/31 20:22:07.7	6.210	0.470	-1.090	-0.000
2020/01/31 20:22:07.8	6.190	0.430	-1.080	-0.010
2020/01/31 20:22:07.9	6.190	0.390	-1.070	-0.030
2020/01/31 20:22:08.0	6.180	0.350	-1.050	-0.050
2020/01/31 20:22:08.1	6.160	0.300	-1.030	-0.070
2020/01/31 20:22:08.2	6.150	0.260	-1.000	-0.090
2020/01/31 20:22:08.3	6.130	0.210	-0.970	-0.120
2020/01/31 20:22:08.4	6.120	0.150	-0.930	-0.140
2020/01/31 20:22:08.5	6.110	0.100	-0.890	-0.180
2020/01/31 20:22:08.6	6.090	0.050	-0.840	-0.210
2020/01/31 20:22:08.7	6.080	-0.010	-0.790	-0.250
2020/01/31 20:22:08.8	6.070	-0.060	-0.740	-0.280
2020/01/31 20:22:08.9	6.070	-0.110	-0.680	-0.320
2020/01/31 20:22:09.0	6.060	-0.160	-0.620	-0.360
2020/01/31 20:22:09.1	6.050	-0.210	-0.570	-0.400
2020/01/31 20:22:09.2	6.040	-0.260	-0.510	-0.440
2020/01/31 20:22:09.3	6.040	-0.310	-0.450	-0.480
2020/01/31 20:22:09.4	6.040	-0.350	-0.390	-0.520
2020/01/31 20:22:09.5	6.040	-0.380	-0.330	-0.560
2020/01/31 20:22:09.6	6.040	-0.420	-0.270	-0.590
2020/01/31 20:22:09.7	6.040	-0.440	-0.210	-0.630
2020/01/31 20:22:09.8	6.040	-0.470	-0.160	-0.660
2020/01/31 20:22:09.9	6.070	-0.490	-0.110	-0.690
2020/01/31 20:22:10.0	6.070	-0.500	-0.060	-0.720
2020/01/31 20:22:10.1	6.080	-0.510	-0.010	-0.740
2020/01/31 20:22:10.2	6.090	-0.510	0.030	-0.760
2020/01/31 20:22:10.3	6.100	-0.510	0.070	-0.770
2020/01/31 20:22:10.4	6.110	-0.500	0.110	-0.790
2020/01/31 20:22:10.5	6.130	-0.480	0.140	-0.790
2020/01/31 20:22:10.6	6.140	-0.460	0.170	-0.790
2020/01/31 20:22:10.7	6.160	-0.440	0.200	-0.790
2020/01/31 20:22:10.8	6.170	-0.410	0.220	-0.790
2020/01/31 20:22:10.9	6.180	-0.380	0.240	-0.780
2020/01/31 20:22:11.0	6.190	-0.350	0.260	-0.760
2020/01/31 20:22:11.1	6.210	-0.310	0.270	-0.740
2020/01/31 20:22:11.2	6.230	-0.260	0.290	-0.720
2020/01/31 20:22:11.3	6.240	-0.220	0.300	-0.690
2020/01/31 20:22:11.4	6.250	-0.180	0.310	-0.660
2020/01/31 20:22:11.5	6.260	-0.130	0.310	-0.620
2020/01/31 20:22:11.6	6.270	-0.080	0.320	-0.580
2020/01/31 20:22:11.7	6.280	-0.040	0.320	-0.540
2020/01/31 20:22:11.8	6.280	0.010	0.330	-0.490
2020/01/31 20:22:11.9	6.270	0.050	0.330	-0.440
2020/01/31 20:22:12.0	6.270	0.100	0.340	-0.380
2020/01/31 20:22:12.1	6.260	0.140	0.340	-0.330
2020/01/31 20:22:12.2	6.250	0.180	0.340	-0.270
2020/01/31 20:22:12.3	6.230	0.210	0.340	-0.210
2020/01/31 20:22:12.4	6.210	0.250	0.340	-0.140
2020/01/31 20:22:12.5	6.190	0.270	0.340	-0.080
2020/01/31 20:22:12.6	6.170	0.300	0.340	-0.010
2020/01/31 20:22:12.7	6.140	0.320	0.330	0.060
2020/01/31 20:22:12.8	6.110	0.340	0.330	0.120
2020/01/31 20:22:12.9	6.060	0.350	0.320	0.200
2020/01/31 20:22:13.0	6.030	0.360	0.310	0.260
2020/01/31 20:22:13.1	5.990	0.360	0.300	0.330
2020/01/31 20:22:13.2	5.960	0.360	0.280	0.390
2020/01/31 20:22:13.3	5.920	0.350	0.270	0.460
2020/01/31 20:22:13.4	5.880	0.340	0.250	0.520
2020/01/31 20:22:13.5	5.840	0.330	0.230	0.570
2020/01/31 20:22:13.6	5.810	0.310	0.210	0.620
2020/01/31 20:22:13.7	5.770	0.290	0.180	0.670
2020/01/31 20:22:13.8	5.740	0.260	0.150	0.720
2020/01/31 20:22:13.9	5.700	0.240	0.120	0.750
2020/01/31 20:22:14.0	5.670	0.200	0.090	0.790
2020/01/31 20:22:14.1	5.640	0.170	0.050	0.810
2020/01/31 20:22:14.2	5.610	0.130	0.020	0.830
2020/01/31 20:22:14.3	5.580	0.100	-0.020	0.840
2020/01/31 20:22:14.4	5.550	0.060	-0.060	0.840
2020/01/31 20:22:14.5	5.530	0.010	-0.100	0.840
2020/01/31 20:22:14.6	5.510	-0.030	-0.140	0.830
2020/01/31 20:22:14.7	5.490	-0.070	-0.180	0.810
2020/01/31 20:22:14.8	5.470	-0.110	-0.220	0.790
2020/01/31 20:22:14.9	5.460	-0.160	-0.260	0.760
2020/01/31 20:22:15.0	5.450	-0.200	-0.300	0.720
2020/01/31 20:22:15.1	5.430	-0.240	-0.340	0.680
2020/01/31 20:22:15.2	5.420	-0.280	-0.380	0.630
2020/01/31 20:22:15.3	5.410	-0.320	-0.410	0.580
2020/01/31 20:22:15.4	5.400	-0.360	-0.450	0.530
2020/01/31 20:22:15.5	5.400	-0.390	-0.480	0.480
2020/01/31 20:22:15.6	5.390	-0.420	-0.510	0.420
2020/01/31 20:22:15.7	5.380	-0.450	-0.530	0.370
2020/01/31 20:22:15.8	5.380	-0.480	-0.560	0.310
2020/01/31 20:22:15.9	5.380	-0.500	-0.570	0.250
2020/01/31 20:22:16.0	5.370	-0.520	-0.590	0.190
2020/01/31 20:22:16.1	5.370	-0.540	-0.600	0.140
2020/01/31 20:22:16.2	5.370	-0.550	-0.620	0.090
2020/01/31 20:22:16.3	5.360	-0.560	-0.620	0.040
2020/01/31 20:22:16.4	5.360	-0.560	-0.630	-0.010
2020/01/31 20:22:16.5	5.350	-0.560	-0.630	-0.060
2020/01/31 20:22:16.6	5.350	-0.560	-0.630	-0.110
2020/01/31 20:22:16.7	5.350	-0.560	-0.630	-0.150
2020/01/31 20:22:16.8	5.350	-0.550	-0.630	-0.200
2020/01/31 20:22:16.9	5.350	-0.540	-0.630	-0.240
2020/01/31 20:22:17.0	5.350	-0.520	-0.620	-0.290
2020/01/31 20:22:17.1	5.350	-0.500	-0.620	-0.330
2020/01/31 20:22:17.2	5.360	-0.480	-0.610	-0.380
2020/01/31 20:22:17.3	5.360	-0.460	-0.610	-0.420
2020/01/31 20:22:17.4	5.370	-0.430	-0.600	-0.470
2020/01/31 20:22:17.5	5.380	-0.400	-0.600	-0.510
2020/01/31 20:22:17.6	5.400	-0.360	-0.600	-0.550
2020/01/31 20:22:17.7	5.410	-0.330	-0.590	-0.590
2020/01/31 20:22:17.8	5.430	-0.290	-0.590	-0.640
2020/01/31 20:22:17.9	5.450	-0.250	-0.580	-0.680
2020/01/31 20:22:18.0	5.470	-0.210	-0.580	-0.710
2020/01/31 20:22:18.1	5.490	-0.160	-0.580	-0.740
2020/01/31 20:22:18.2	5.510	-0.120	-0.580	-0.770
2020/01/31 20:22:18.3	5.540	-0.070	-0.570	-0.800
2020/01/31 20:22:18.4	5.560	-0.020	-0.570	-0.810
2020/01/31 20:22:18.5	5.590	0.030	-0.560	-0.830
2020/01/31 20:22:18.6	5.610	0.080	-0.560	-0.840
2020/01/31 20:22:18.7	5.640	0.130	-0.550	-0.840
2020/01/31 20:22:18.8	5.660	0.180	-0.540	-0.840
2020/01/31 20:22:18.9	5.690	0.230	-0.540	-0.830
2020/01/31 20:22:19.0	5.710	0.280	-0.520	-0.810
2020/01/31 20:22:19.1	5.730	0.330	-0.510	-0.790
2020/01/31 20:22:19.2	5.750	0.370	-0.500	-0.770
2020/01/31 20:22:19.3	5.760	0.420	-0.480	-0.740
2020/01/31 20:22:19.4	5.780	0.460	-0.460	-0.700
2020/01/31 20:22:19.5	5.790	0.500	-0.440	-0.660
2020/01/31 20:22:19.6	5.800	0.540	-0.420	-0.620
2020/01/31 20:22:19.7	5.810	0.580	-0.400	-0.570
2020/01/31 20:22:19.8	5.810	0.610	-0.380	-0.520
2020/01/31 20:22:19.9	5.810	0.640	-0.350	-0.470
2020/01/31 20:22:20.0	5.810	0.660	-0.330	-0.410
2020/01/31 20:22:20.1	5.800	0.690	-0.300	-0.360
2020/01/31 20:22:20.2	5.790	0.700	-0.280	-0.300
2020/01/31 20:22:20.3	5.780	0.720	-0.250	-0.240
2020/01/31 20:22:20.4	5.770	0.730	-0.230	-0.180
2020/01/31 20:22:20.5	5.750	0.740	-0.210	-0.110
2020/01/31 20:22:20.6	5.730	0.740	-0.190	-0.050
2020/01/31 20:22:20.7	5.710	0.740	-0.170	0.010
2020/01/31 20:22:20.8	5.690	0.740	-0.150	0.070
2020/01/31 20:22:20.9	5.660	0.730	-0.130	0.130
2020/01/31 20:22:21.0	5.630	0.720	-0.120	0.180
2020/01/31 20:22:21.1	5.610	0.700	-0.100	0.240
2020/01/31 20:22:21.2	5.580	0.690	-0.090	0.290
2020/01/31 20:22:21.3	5.550	0.670	-0.090	0.340
2020/01/31 20:22:21.4	5.520	0.640	-0.080	0.380
2020/01/31 20:22:21.5	5.490	0.620	-0.080	0.420
2020/01/31 20:22:21.6	5.470	0.590	-0.080	0.460
2020/01/31 20:22:21.7	5.440	0.560	-0.090	0.490
2020/01/31 20:22:21.8	5.420	0.530	-0.090	0.520
2020/01/31 20:22:21.9	5.380	0.490	-0.100	0.540
2020/01/31 20:22:22.0	5.360	0.460	-0.110	0.560
2020/01/31 20:22:22.1	5.340	0.420	-0.130	0.580
2020/01/31 20:22:22.2	5.320	0.380	-0.140	0.580
2020/01/31 20:22:22.3	5.310	0.340	-0.160	0.590
2020/01/31 20:22:22.4	5.300	0.310	-0.180	0.590
2020/01/31 20:22:22.5	5.280	0.270	-0.200	0.580
2020/01/31 20:22:22.6	5.280	0.230	-0.210	0.560
2020/01/31 20:22:22.7	5.270	0.190	-0.230	0.550
2020/01/31 20:22:22.8	5.270	0.150	-0.260	0.530
2020/01/31 20:22:22.9	5.260	0.110	-0.280	0.500
2020/01/31 20:22:23.0	5.260	0.070	-0.300	0.470
2020/01/31 20:22:23.1	5.270	0.030	-0.320	0.430
2020/01/31 20:22:23.2	5.270	-0.010	-0.340	0.390
2020/01/31 20:22:23.3	5.280	-0.040	-0.350	0.350
2020/01/31 20:22:23.4	5.290	-0.080	-0.370	0.310
2020/01/31 20:22:23.5	5.300	-0.110	-0.390	0.260
2020/01/31 20:22:23.6	5.320	-0.140	-0.400	0.210
2020/01/31 20:22:23.7	5.330	-0.180	-0.410	0.160
2020/01/31 20:22:23.8	5.350	-0.210	-0.420	0.110
2020/01/31 20:22:23.9	5.380	-0.240	-0.430	0.070
2020/01/31 20:22:24.0	5.390	-0.270	-0.440	0.020
2020/01/31 20:22:24.1	5.410	-0.290	-0.440	-0.030
2020/01/31 20:22:24.2	5.430	-0.320	-0.440	-0.080
2020/01/31 20:22:24.3	5.440	-0.340	-0.440	-0.130
2020/01/31 20:22:24.4	5.460	-0.370	-0.430	-0.170
2020/01/31 20:22:24.5	5.470	-0.390	-0.420	-0.220
2020/01/31 20:22:24.6	5.490	-0.410	-0.410	-0.260
2020/01/31 20:22:24.7	5.500	-0.430	-0.390	-0.300
2020/01/31 20:22:24.8	5.510	-0.450	-0.370	-0.330
2020/01/31 20:22:24.9	5.520	-0.460	-0.350	-0.360
2020/01/31 20:22:25.0	5.530	-0.480	-0.320	-0.390
2020/01/31 20:22:25.1	5.530	-0.490	-0.290	-0.420
2020/01/31 20:22:25.2	5.530	-0.500	-0.260	-0.440
2020/01/31 20:22:25.3	5.530	-0.510	-0.220	-0.460
2020/01/31 20:22:25.4	5.530	-0.520	-0.180	-0.480
2020/01/31 20:22:25.5	5.520	-0.530	-0.140	-0.490
2020/01/31 20:22:25.6	5.510	-0.540	-0.090	-0.490
2020/01/31 20:22:25.7	5.500	-0.540	-0.050	-0.500
2020/01/31 20:22:25.8	5.490	-0.540	-0.000	-0.490
2020/01/31 20:22:25.9	5.480	-0.540	0.040	-0.490
2020/01/31 20:22:26.0	5.460	-0.540	0.090	-0.480
2020/01/31 20:22:26.1	5.440	-0.530	0.130	-0.460
2020/01/31 20:22:26.2	5.420	-0.530	0.180	-0.440
2020/01/31 20:22:26.3	5.400	-0.520	0.220	-0.420
2020/01/31 20:22:26.4	5.380	-0.500	0.260	-0.390
2020/01/31 20:22:26.5	5.350	-0.490	0.300	-0.360
2020/01/31 20:22:26.6	5.330	-0.470	0.330	-0.330
2020/01/31 20:22:26.7	5.300	-0.460	0.370	-0.290
2020/01/31 20:22:26.8	5.280	-0.430	0.390	-0.250
2020/01/31 20:22:26.9	5.260	-0.410	0.410	-0.210
2020/01/31 20:22:27.0	5.230	-0.390	0.430	-0.170
2020/01/31 20:22:27.1	5.210	-0.360	0.440	-0.130
2020/01/31 20:22:27.2	5.190	-0.330	0.450	-0.090
2020/01/31 20:22:27.3	5.170	-0.300	0.450	-0.050
2020/01/31 20:22:27.4	5.150	-0.260	0.440	-0.010
2020/01/31 20:22:27.5	5.130	-0.230	0.430	0.030
2020/01/31 20:22:27.6	5.110	-0.190	0.410	0.070
2020/01/31 20:22:27.7	5.100	-0.160	0.390	0.110
2020/01/31 20:22:27.8	5.080	-0.120	0.360	0.140
2020/01/31 20:22:27.9	5.070	-0.080	0.330	0.170
2020/01/31 20:22:28.0	5.060	-0.040	0.290	0.200
2020/01/31 20:22:28.1	5.050	-0.000	0.250	0.230
2020/01/31 20:22:28.2	5.040	0.040	0.200	0.260
2020/01/31 20:22:28.3	5.020	0.070	0.150	0.280
2020/01/31 20:22:28.4	5.010	0.110	0.100	0.300
2020/01/31 20:22:28.5	5.000	0.140	0.050	0.320
2020/01/31 20:22:28.6	4.990	0.170	-0.000	0.340
2020/01/31 20:22:28.7	4.980	0.200	-0.060	0.350
2020/01/31 20:22:28.8	4.970	0.230	-0.110	0.360
2020/01/31 20:22:28.9	4.950	0.260	-0.160	0.370
2020/01/31 20:22:29.0	4.940	0.280	-0.210	0.380
2020/01/31 20:22:29.1	4.930	0.300	-0.260	0.380
2020/01/31 20:22:29.2	4.910	0.310	-0.310	0.380
2020/01/31 20:22:29.3	4.900	0.320	-0.360	0.380
2020/01/31 20:22:29.4	4.890	0.330	-0.410	0.380
2020/01/31 20:22:29.5	4.880	0.330	-0.450	0.370
2020/01/31 20:22:29.6	4.870	0.330	-0.490	0.360
2020/01/31 20:22:29.7	4.860	0.320	-0.530	0.340
2020/01/31 20:22:29.8	4.850	0.320	-0.570	0.330
2020/01/31 20:22:29.9	4.840	0.300	-0.610	0.310
2020/01/31 20:22:30.0	4.840	0.290	-0.650	0.290
2020/01/31 20:22:30.1	4.840	0.270	-0.680	0.260
2020/01/31 20:22:30.2	4.830	0.250	-0.710	0.230
2020/01/31 20:22:30.3	4.840	0.230	-0.740	0.200
2020/01/31 20:22:30.4	4.840	0.200	-0.770	0.160
2020/01/31 20:22:30.5	4.840	0.170	-0.800	0.120
2020/01/31 20:22:30.6	4.850	0.150	-0.830	0.080
2020/01/31 20:22:30.7	4.860	0.120	-0.850	0.040
2020/01/31 20:22:30.8	4.870	0.080	-0.870	-0.010
2020/01/31 20:22:30.9	4.880	0.050	-0.890	-0.050
2020/01/31 20:22:31.0	4.900	0.020	-0.910	-0.100
2020/01/31 20:22:31.1	4.910	-0.010	-0.920	-0.150
2020/01/31 20:22:31.2	4.930	-0.040	-0.930	-0.200
2020/01/31 20:22:31.3	4.950	-0.070	-0.940	-0.250
2020/01/31 20:22:31.4	4.960	-0.100	-0.950	-0.300
2020/01/31 20:22:31.5	4.980	-0.130	-0.950	-0.340
2020/01/31 20:22:31.6	5.000	-0.150	-0.940	-0.390
2020/01/31 20:22:31.7	5.020	-0.180	-0.940	-0.430
2020/01/31 20:22:31.8	5.050	-0.200	-0.930	-0.480
2020/01/31 20:22:31.9	5.070	-0.220	-0.920	-0.520
2020/01/31 20:22:32.0	5.090	-0.230	-0.900	-0.550
2020/01/31 20:22:32.1	5.110	-0.240	-0.880	-0.590
2020/01/31 20:22:32.2	5.130	-0.250	-0.860	-0.610
2020/01/31 20:22:32.3	5.140	-0.260	-0.830	-0.640
2020/01/31 20:22:32.4	5.160	-0.260	-0.800	-0.660
2020/01/31 20:22:32.5	5.180	-0.260	-0.760	-0.680
2020/01/31 20:22:32.6	5.190	-0.250	-0.720	-0.690
2020/01/31 20:22:32.7	5.210	-0.240	-0.680	-0.690
2020/01/31 20:22:32.8	5.220	-0.230	-0.640	-0.700
2020/01/31 20:22:32.9	5.240	-0.220	-0.600	-0.700
2020/01/31 20:22:33.0	5.250	-0.200	-0.550	-0.690
2020/01/31 20:22:33.1	5.260	-0.170	-0.500	-0.680
2020/01/31 20:22:33.2	5.270	-0.150	-0.450	-0.660
2020/01/31 20:22:33.3	5.270	-0.120	-0.410	-0.640
2020/01/31 20:22:33.4	5.280	-0.090	-0.360	-0.620
2020/01/31 20:22:33.5	5.280	-0.060	-0.310	-0.590
2020/01/31 20:22:33.6	5.280	-0.030	-0.260	-0.550
2020/01/31 20:22:33.7	5.280	0.010	-0.220	-0.520
2020/01/31 20:22:33.8	5.280	0.050	-0.170	-0.480
2020/01/31 20:22:33.9	5.280	0.080	-0.130	-0.430
2020/01/31 20:22:34.0	5.270	0.120	-0.100	-0.390
2020/01/31 20:22:34.1	5.270	0.160	-0.060	-0.350
2020/01/31 20:22:34.2	5.260	0.190	-0.030	-0.300
2020/01/31 20:22:34.3	5.260	0.230	0.010	-0.250
2020/01/31 20:22:34.4	5.250	0.260	0.030	-0.210
2020/01/31 20:22:34.5	5.250	0.300	0.060	-0.160
2020/01/31 20:22:34.6	5.240	0.330	0.080	-0.110
2020/01/31 20:22:34.7	5.240	0.360	0.090	-0.070
2020/01/31 20:22:34.8	5.230	0.390	0.110	-0.020
2020/01/31 20:22:34.9	5.210	0.410	0.120	0.020
2020/01/31 20:22:35.0	5.210	0.440	0.120	0.060
2020/01/31 20:22:35.1	5.200	0.450	0.120	0.100
2020/01/31 20:22:35.2	5.200	0.470	0.120	0.140
2020/01/31 20:22:35.3	5.200	0.480	0.110	0.170
2020/01/31 20:22:35.4	5.200	0.490	0.100	0.200
2020/01/31 20:22:35.5	5.190	0.490	0.090	0.230
2020/01/31 20:22:35.6	5.190	0.490	0.080	0.250
2020/01/31 20:22:35.7	5.190	0.490	0.060	0.270
2020/01/31 20:22:35.8	5.200	0.480	0.050	0.280
2020/01/31 20:22:35.9	5.190	0.470	0.030	0.290
2020/01/31 20:22:36.0	5.200	0.460	0.000	0.290
2020/01/31 20:22:36.1	5.200	0.440	-0.020	0.300
2020/01/31 20:22:36.2	5.200	0.410	-0.040	0.290
2020/01/31 20:22:36.3	5.200	0.390	-0.060	0.290
2020/01/31 20:22:36.4	5.200	0.360	-0.080	0.280
2020/01/31 20:22:36.5	5.200	0.320	-0.100	0.260
2020/01/31 20:22:36.6	5.210	0.280	-0.110	0.250
2020/01/31 20:22:36.7	5.200	0.250	-0.130	0.230
2020/01/31 20:22:36.8	5.200	0.200	-0.140	0.210
2020/01/31 20:22:36.9	5.200	0.160	-0.150	0.200
2020/01/31 20:22:37.0	5.190	0.110	-0.150	0.180
2020/01/31 20:22:37.1	5.180	0.060	-0.160	0.160
2020/01/31 20:22:37.2	5.170	0.010	-0.150	0.140
2020/01/31 20:22:37.3	5.160	-0.040	-0.150	0.120
2020/01/31 20:22:37.4	5.140	-0.090	-0.140	0.100
2020/01/31 20:22:37.5	5.130	-0.140	-0.120	0.080
2020/01/31 20:22:37.6	5.110	-0.200	-0.110	0.060
2020/01/31 20:22:37.7	5.090	-0.250	-0.090	0.040
2020/01/31 20:22:37.8	5.060	-0.300	-0.070	0.020
2020/01/31 20:22:37.9	5.040	-0.350	-0.050	0.000
2020/01/31 20:22:38.0	5.020	-0.400	-0.020	-0.020
2020/01/31 20:22:38.1	5.000	-0.440	0.010	-0.040
2020/01/31 20:22:38.2	4.970	-0.490	0.040	-0.060
2020/01/31 20:22:38.3	4.950	-0.530	0.060	-0.090
2020/01/31 20:22:38.4	4.920	-0.570	0.090	-0.110
2020/01/31 20:22:38.5	4.900	-0.600	0.110	-0.130
2020/01/31 20:22:38.6	4.880	-0.630	0.130	-0.160
2020/01/31 20:22:38.7	4.870	-0.650	0.150	-0.180
2020/01/31 20:22:38.8	4.850	-0.670	0.160	-0.210
2020/01/31 20:22:38.9	4.830	-0.690	0.170	-0.240
2020/01/31 20:22:39.0	4.820	-0.700	0.170	-0.260
2020/01/31 20:22:39.1	4.810	-0.700	0.170	-0.290
2020/01/31 20:22:39.2	4.800	-0.700	0.160	-0.310
2020/01/31 20:22:39.3	4.800	-0.690	0.140	-0.340
2020/01/31 20:22:39.4	4.790	-0.670	0.120	-0.360
2020/01/31 20:22:39.5	4.780	-0.660	0.100	-0.380
2020/01/31 20:22:39.6	4.780	-0.630	0.070	-0.400
2020/01/31 20:22:39.7	4.770	-0.600	0.030	-0.420
2020/01/31 20:22:39.8	4.770	-0.570	-0.000	-0.430
2020/01/31 20:22:39.9	4.760	-0.530	-0.050	-0.450
2020/01/31 20:22:40.0	4.750	-0.490	-0.090	-0.460
2020/01/31 20:22:40.1	4.750	-0.450	-0.140	-0.470
2020/01/31 20:22:40.2	4.750	-0.400	-0.190	-0.480
2020/01/31 20:22:40.3	4.740	-0.350	-0.240	-0.490
2020/01/31 20:22:40.4	4.740	-0.290	-0.290	-0.490
2020/01/31 20:22:40.5	4.730	-0.240	-0.340	-0.500
2020/01/31 20:22:40.6	4.720	-0.180	-0.380	-0.500
2020/01/31 20:22:40.7	4.720	-0.130	-0.430	-0.500
2020/01/31 20:22:40.8	4.710	-0.070	-0.480	-0.500
2020/01/31 20:22:40.9	4.710	-0.020	-0.510	-0.490
2020/01/31 20:22:41.0	4.700	0.040	-0.550	-0.480
2020/01/31 20:22:41.1	4.690	0.090	-0.590	-0.470
2020/01/31 20:22:41.2	4.670	0.140	-0.610	-0.460
2020/01/31 20:22:41.3	4.660	0.190	-0.640	-0.440
2020/01/31 20:22:41.4	4.650	0.230	-0.660	-0.420
2020/01/31 20:22:41.5	4.640	0.270	-0.670	-0.400
2020/01/31 20:22:41.6	4.620	0.310	-0.680	-0.370
2020/01/31 20:22:41.7	4.610	0.340	-0.680	-0.340
2020/01/31 20:22:41.8	4.590	0.370	-0.680	-0.310
2020/01/31 20:22:41.9	4.590	0.400	-0.680	-0.270
2020/01/31 20:22:42.0	4.570	0.420	-0.670	-0.240
2020/01/31 20:22:42.1	4.560	0.430	-0.660	-0.210
2020/01/31 20:22:42.2	4.550	0.440	-0.640	-0.170
2020/01/31 20:22:42.3	4.540	0.450	-0.620	-0.140
2020/01/31 20:22:42.4	4.530	0.450	-0.590	-0.100
2020/01/31 20:22:42.5	4.520	0.440	-0.570	-0.070
2020/01/31 20:22:42.6	4.510	0.440	-0.540	-0.030
2020/01/31 20:22:42.7	4.510	0.420	-0.510	0.000
2020/01/31 20:22:42.8	4.510	0.410	-0.480	0.030
2020/01/31 20:22:42.9	4.510	0.390	-0.450	0.060
2020/01/31 20:22:43.0	4.510	0.370	-0.430	0.090
2020/01/31 20:22:43.1	4.510	0.340	-0.400	0.110
2020/01/31 20:22:43.2	4.520	0.310	-0.370	0.140
2020/01/31 20:22:43.3	4.530	0.280	-0.350	0.160
2020/01/31 20:22:43.4	4.540	0.250	-0.320	0.170
2020/01/31 20:22:43.5	4.550	0.220	-0.300	0.180
2020/01/31 20:22:43.6	4.570	0.190	-0.280	0.190
2020/01/31 20:22:43.7	4.590	0.160	-0.270	0.200
2020/01/31 20:22:43.8	4.600	0.130	-0.250	0.200
2020/01/31 20:22:43.9	4.640	0.100	-0.240	0.200
2020/01/31 20:22:44.0	4.660	0.070	-0.230	0.200
2020/01/31 20:22:44.1	4.680	0.040	-0.230	0.190
2020/01/31 20:22:44.2	4.700	0.010	-0.230	0.180
2020/01/31 20:22:44.3	4.730	-0.010	-0.230	0.170
2020/01/31 20:22:44.4	4.750	-0.030	-0.230	0.160
2020/01/31 20:22:44.5	4.780	-0.050	-0.240	0.150
2020/01/31 20:22:44.6	4.800	-0.060	-0.240	0.130
2020/01/31 20:22:44.7	4.830	-0.070	-0.250	0.110
2020/01/31 20:22:44.8	4.850	-0.080	-0.270	0.100
2020/01/31 20:22:44.9	4.880	-0.080	-0.280	0.080
2020/01/31 20:22:45.0	4.900	-0.080	-0.300	0.060
2020/01/31 20:22:45.1	4.930	-0.080	-0.310	0.050
2020/01/31 20:22:45.2	4.950	-0.070	-0.330	0.030
2020/01/31 20:22:45.3	4.970	-0.070	-0.350	0.020
2020/01/31 20:22:45.4	4.990	-0.050	-0.360	0.010
2020/01/31 20:22:45.5	5.000	-0.040	-0.380	0.010
2020/01/31 20:22:45.6	5.020	-0.020	-0.400	0.000
2020/01/31 20:22:45.7	5.030	-0.000	-0.410	0.000
2020/01/31 20:22:45.8	5.040	0.020	-0.420	0.000
2020/01/31 20:22:45.9	5.040	0.040	-0.430	0.010
2020/01/31 20:22:46.0	5.040	0.060	-0.440	0.010
2020/01/31 20:22:46.1	5.040	0.090	-0.450	0.020
2020/01/31 20:22:46.2	5.040	0.110	-0.460	0.030
2020/01/31 20:22:46.3	5.040	0.130	-0.460	0.040
2020/01/31 20:22:46.4	5.030	0.160	-0.460	0.060
2020/01/31 20:22:46.5	5.020	0.180	-0.460	0.080
2020/01/31 20:22:46.6	5.010	0.200	-0.450	0.100
2020/01/31 20:22:46.7	5.000	0.220	-0.440	0.120
2020/01/31 20:22:46.8	4.980	0.240	-0.430	0.140
2020/01/31 20:22:46.9	4.970	0.250	-0.420	0.160
2020/01/31 20:22:47.0	4.950	0.270	-0.400	0.180
2020/01/31 20:22:47.1	4.930	0.280	-0.370	0.200
2020/01/31 20:22:47.2	4.910	0.280	-0.350	0.230
2020/01/31 20:22:47.3	4.890	0.280	-0.320	0.250
2020/01/31 20:22:47.4	4.870	0.280	-0.290	0.270
2020/01/31 20:22:47.5	4.840	0.280	-0.260	0.290
2020/01/31 20:22:47.6	4.820	0.270	-0.220	0.310
2020/01/31 20:22:47.7	4.790	0.260	-0.190	0.320
2020/01/31 20:22:47.8	4.770	0.240	-0.150	0.330
2020/01/31 20:22:47.9	4.740	0.220	-0.110	0.340
2020/01/31 20:22:48.0	4.720	0.190	-0.060	0.350
2020/01/31 20:22:48.1	4.690	0.160	-0.020	0.350
2020/01/31 20:22:48.2	4.670	0.130	0.020	0.350
2020/01/31 20:22:48.3	4.650	0.090	0.060	0.350
2020/01/31 20:22:48.4	4.620	0.050	0.110	0.340
2020/01/31 20:22:48.5	4.600	0.010	0.150	0.330
2020/01/31 20:22:48.6	4.580	-0.040	0.190	0.310
2020/01/31 20:22:48.7	4.560	-0.090	0.230	0.290
2020/01/31 20:22:48.8	4.550	-0.140	0.270	0.270
2020/01/31 20:22:48.9	4.520	-0.190	0.300	0.250
2020/01/31 20:22:49.0	4.510	-0.240	0.330	0.220
2020/01/31 20:22:49.1	4.500	-0.290	0.360	0.180
2020/01/31 20:22:49.2	4.490	-0.350	0.390	0.150
2020/01/31 20:22:49.3	4.480	-0.400	0.410	0.110
2020/01/31 20:22:49.4	4.480	-0.450	0.420	0.070
2020/01/31 20:22:49.5	4.480	-0.500	0.440	0.030
2020/01/31 20:22:49.6	4.480	-0.540	0.440	-0.020
2020/01/31 20:22:49.7	4.480	-0.580	0.450	-0.060
2020/01/31 20:22:49.8	4.490	-0.620	0.440	-0.110
2020/01/31 20:22:49.9	4.510	-0.660	0.440	-0.170
2020/01/31 20:22:50.0	4.520	-0.690	0.420	-0.210
2020/01/31 20:22:50.1	4.530	-0.710	0.400	-0.260
2020/01/31 20:22:50.2	4.550	-0.730	0.380	-0.310
2020/01/31 20:22:50.3	4.560	-0.750	0.350	-0.350
2020/01/31 20:22:50.4	4.580	-0.760	0.310	-0.400
2020/01/31 20:22:50.5	4.610	-0.760	0.270	-0.440
2020/01/31 20:22:50.6	4.630	-0.760	0.220	-0.480
2020/01/31 20:22:50.7	4.650	-0.750	0.170	-0.520
2020/01/31 20:22:50.8	4.670	-0.730	0.120	-0.550
2020/01/31 20:22:50.9	4.710	-0.710	0.060	-0.590
2020/01/31 20:22:51.0	4.730	-0.680	-0.000	-0.620
2020/01/31 20:22:51.1	4.750	-0.650	-0.070	-0.650
2020/01/31 20:22:51.2	4.780	-0.610	-0.140	-0.670
2020/01/31 20:22:51.3	4.800	-0.570	-0.210	-0.690
2020/01/31 20:22:51.4	4.820	-0.520	-0.280	-0.710
2020/01/31 20:22:51.5	4.840	-0.470	-0.350	-0.720
2020/01/31 20:22:51.6	4.860	-0.410	-0.420	-0.730
2020/01/31 20:22:51.7	4.870	-0.360	-0.490	-0.730
2020/01/31 20:22:51.8	4.880	-0.290	-0.560	-0.730
2020/01/31 20:22:51.9	4.880	-0.230	-0.630	-0.720
2020/01/31 20:22:52.0	4.890	-0.170	-0.690	-0.710
2020/01/31 20:22:52.1	4.900	-0.100	-0.750	-0.690
2020/01/31 20:22:52.2	4.900	-0.040	-0.810	-0.670
2020/01/31 20:22:52.3	4.900	0.030	-0.860	-0.640
2020/01/31 20:22:52.4	4.900	0.090	-0.910	-0.610
2020/01/31 20:22:52.5	4.900	0.160	-0.960	-0.580
2020/01/31 20:22:52.6	4.890	0.220	-1.000	-0.540
2020/01/31 20:22:52.7	4.880	0.280	-1.030	-0.500
2020/01/31 20:22:52.8	4.870	0.330	-1.050	-0.470
2020/01/31 20:22:52.9	4.860	0.380	-1.080	-0.420
2020/01/31 20:22:53.0	4.850	0.430	-1.090	-0.380
2020/01/31 20:22:53.1	4.840	0.470	-1.100	-0.340
2020/01/31 20:22:53.2	4.820	0.510	-1.100	-0.300
2020/01/31 20:22:53.3	4.810	0.550	-1.090	-0.260
2020/01/31 20:22:53.4	4.790	0.580	-1.080	-0.220
2020/01/31 20:22:53.5	4.780	0.600	-1.060	-0.180
2020/01/31 20:22:53.6	4.760	0.620	-1.030	-0.140
2020/01/31 20:22:53.7	4.740	0.640	-1.000	-0.100
2020/01/31 20:22:53.8	4.730	0.650	-0.960	-0.060
2020/01/31 20:22:53.9	4.710	0.650	-0.910	-0.020
2020/01/31 20:22:54.0	4.690	0.650	-0.860	0.020
2020/01/31 20:22:54.1	4.680	0.640	-0.810	0.050
2020/01/31 20:22:54.2	4.660	0.630	-0.740	0.090
2020/01/31 20:22:54.3	4.650	0.620	-0.680	0.120
2020/01/31 20:22:54.4	4.630	0.600	-0.610	0.150
2020/01/31 20:22:54.5	4.620	0.580	-0.540	0.180
2020/01/31 20:22:54.6	4.610	0.550	-0.460	0.210
2020/01/31 20:22:54.7	4.590	0.520	-0.390	0.230
2020/01/31 20:22:54.8	4.580	0.490	-0.310	0.260
2020/01/31 20:22:54.9	4.570	0.450	-0.230	0.280
2020/01/31 20:22:55.0	4.560	0.410	-0.150	0.300
2020/01/31 20:22:55.1	4.550	0.370	-0.070	0.320
2020/01/31 20:22:55.2	4.540	0.330	0.000	0.340
2020/01/31 20:22:55.3	4.520	0.290	0.080	0.350
2020/01/31 20:22:55.4	4.510	0.240	0.150	0.370
2020/01/31 20:22:55.5	4.500	0.200	0.230	0.380
2020/01/31 20:22:55.6	4.480	0.150	0.300	0.390
2020/01/31 20:22:55.7	4.470	0.100	0.360	0.400
2020/01/31 20:22:55.8	4.460	0.060	0.420	0.400
2020/01/31 20:22:55.9	4.440	0.010	0.480	0.410
2020/01/31 20:22:56.0	4.430	-0.030	0.530	0.410
2020/01/31 20:22:56.1	4.420	-0.080	0.580	0.400
2020/01/31 20:22:56.2	4.400	-0.120	0.620	0.390
2020/01/31 20:22:56.3	4.390	-0.160	0.650	0.380
2020/01/31 20:22:56.4	4.380	-0.200	0.680	0.370
2020/01/31 20:22:56.5	4.380	-0.230	0.690	0.350
2020/01/31 20:22:56.6	4.370	-0.260	0.700	0.320
2020/01/31 20:22:56.7	4.370	-0.290	0.700	0.290
2020/01/31 20:22:56.8	4.360	-0.320	0.690	0.260
2020/01/31 20:22:56.9	4.370	-0.340	0.670	0.230
2020/01/31 20:22:57.0	4.370	-0.360	0.650	0.190
2020/01/31 20:22:57.1	4.380	-0.370	0.610	0.140
2020/01/31 20:22:57.2	4.380	-0.380	0.570	0.100
2020/01/31 20:22:57.3	4.390	-0.390	0.520	0.050
2020/01/31 20:22:57.4	4.410	-0.390	0.460	-0.000
2020/01/31 20:22:57.5	4.420	-0.390	0.400	-0.060
2020/01/31 20:22:57.6	4.440	-0.390	0.320	-0.110
2020/01/31 20:22:57.7	4.460	-0.380	0.250	-0.160
2020/01/31 20:22:57.8	4.480	-0.370	0.160	-0.220
2020/01/31 20:22:57.9	4.510	-0.350	0.080	-0.280
2020/01/31 20:22:58.0	4.540	-0.340	-0.010	-0.340
2020/01/31 20:22:58.1	4.570	-0.310	-0.110	-0.390
2020/01/31 20:22:58.2	4.600	-0.290	-0.200	-0.440
2020/01/31 20:22:58.3	4.630	-0.260	-0.300	-0.500
2020/01/31 20:22:58.4	4.660	-0.240	-0.400	-0.550
2020/01/31 20:22:58.5	4.690	-0.210	-0.490	-0.590
2020/01/31 20:22:58.6	4.730	-0.170	-0.590	-0.640
2020/01/31 20:22:58.7	4.760	-0.140	-0.680	-0.690
2020/01/31 20:22:58.8	4.800	-0.110	-0.770	-0.730
2020/01/31 20:22:58.9	4.820	-0.080	-0.860	-0.770
2020/01/31 20:22:59.0	4.860	-0.040	-0.940	-0.800
2020/01/31 20:22:59.1	4.900	-0.010	-1.010	-0.830
2020/01/31 20:22:59.2	4.930	0.020	-1.080	-0.860
2020/01/31 20:22:59.3	4.960	0.060	-1.140	-0.880
2020/01/31 20:22:59.4	4.990	0.090	-1.190	-0.900
2020/01/31 20:22:59.5	5.020	0.120	-1.240	-0.910
2020/01/31 20:22:59.6	5.050	0.140	-1.270	-0.920
2020/01/31 20:22:59.7	5.080	0.170	-1.300	-0.920
2020/01/31 20:22:59.8	5.110	0.190	-1.320	-0.920
2020/01/31 20:22:59.9	5.130	0.210	-1.320	-0.910
2020/01/31 20:23:00.0	5.150	0.230	-1.320	-0.900
2020/01/31 20:23:00.1	5.170	0.250	-1.310	-0.880
2020/01/31 20:23:00.2	5.190	0.260	-1.300	-0.860
2020/01/31 20:23:00.3	5.200	0.270	-1.270	-0.840
2020/01/31 20:23:00.4	5.220	0.270	-1.230	-0.810
2020/01/31 20:23:00.5	5.230	0.280	-1.190	-0.780
2020/01/31 20:23:00.6	5.240	0.280	-1.140	-0.740
2020/01/31 20:23:00.7	5.240	0.280	-1.080	-0.700
2020/01/31 20:23:00.8	5.250	0.270	-1.020	-0.660
2020/01/31 20:23:00.9	5.240	0.260	-0.960	-0.620
2020/01/31 20:23:01.0	5.240	0.250	-0.890	-0.580
2020/01/31 20:23:01.1	5.240	0.240	-0.810	-0.530
2020/01/31 20:23:01.2	5.240	0.220	-0.730	-0.490
2020/01/31 20:23:01.3	5.240	0.200	-0.650	-0.440
2020/01/31 20:23:01.4	5.230	0.180	-0.560	-0.400
2020/01/31 20:23:01.5	5.230	0.160	-0.480	-0.350
2020/01/31 20:23:01.6	5.220	0.140	-0.390	-0.300
2020/01/31 20:23:01.7	5.210	0.120	-0.310	-0.260
2020/01/31 20:23:01.8	5.200	0.090	-0.220	-0.210
2020/01/31 20:23:01.9	5.190	0.060	-0.140	-0.160
2020/01/31 20:23:02.0	5.170	0.040	-0.060	-0.120
2020/01/31 20:23:02.1	5.160	0.010	0.020	-0.070
2020/01/31 20:23:02.2	5.140	-0.020	0.100	-0.020
2020/01/31 20:23:02.3	5.120	-0.040	0.170	0.020
2020/01/31 20:23:02.4	5.100	-0.070	0.250	0.070
2020/01/31 20:23:02.5	5.080	-0.090	0.310	0.110
2020/01/31 20:23:02.6	5.060	-0.120	0.380	0.160
2020/01/31 20:23:02.7	5.030	-0.140	0.440	0.200
2020/01/31 20:23:02.8	5.000	-0.170	0.490	0.240
2020/01/31 20:23:02.9	4.980	-0.190	0.540	0.280
2020/01/31 20:23:03.0	4.950	-0.210	0.580	0.320
2020/01/31 20:23:03.1	4.920	-0.230	0.630	0.360
2020/01/31 20:23:03.2	4.890	-0.240	0.660	0.400
2020/01/31 20:23:03.3	4.860	-0.260	0.690	0.430
2020/01/31 20:23:03.4	4.830	-0.270	0.720	0.460
2020/01/31 20:23:03.5	4.800	-0.280	0.740	0.480
2020/01/31 20:23:03.6	4.770	-0.290	0.750	0.510
2020/01/31 20:23:03.7	4.750	-0.290	0.760	0.530
2020/01/31 20:23:03.8	4.720	-0.300	0.760	0.540
2020/01/31 20:23:03.9	4.700	-0.300	0.760	0.550
2020/01/31 20:23:04.0	4.670	-0.300	0.750	0.560
2020/01/31 20:23:04.1	4.650	-0.290	0.730	0.560
2020/01/31 20:23:04.2	4.640	-0.280	0.710	0.560
2020/01/31 20:23:04.3	4.620	-0.270	0.680	0.560
2020/01/31 20:23:04.4	4.600	-0.260	0.640	0.550
2020/01/31 20:23:04.5	4.590	-0.250	0.600	0.540
2020/01/31 20:23:04.6	4.580	-0.230	0.560	0.530
2020/01/31 20:23:04.7	4.570	-0.210	0.510	0.520
2020/01/31 20:23:04.8	4.560	-0.190	0.450	0.510
2020/01/31 20:23:04.9	4.550	-0.160	0.390	0.490
2020/01/31 20:23:05.0	4.550	-0.140	0.330	0.480
2020/01/31 20:23:05.1	4.540	-0.110	0.270	0.460
2020/01/31 20:23:05.2	4.530	-0.090	0.200	0.450
2020/01/31 20:23:05.3	4.530	-0.060	0.130	0.430
2020/01/31 20:23:05.4	4.520	-0.030	0.060	0.420
2020/01/31 20:23:05.5	4.520	-0.000	-0.010	0.400
2020/01/31 20:23:05.6	4.510	0.020	-0.080	0.390
2020/01/31 20:23:05.7	4.500	0.050	-0.150	0.380
2020/01/31 20:23:05.8	4.500	0.080	-0.230	0.370
2020/01/31 20:23:05.9	4.500	0.100	-0.290	0.350
2020/01/31 20:23:06.0	4.490	0.130	-0.360	0.340
2020/01/31 20:23:06.1	4.480	0.150	-0.430	0.320
2020/01/31 20:23:06.2	4.480	0.170	-0.500	0.300
2020/01/31 20:23:06.3	4.480	0.190	-0.560	0.290
2020/01/31 20:23:06.4	4.480	0.210	-0.620	0.260
2020/01/31 20:23:06.5	4.480	0.220	-0.680	0.240
2020/01/31 20:23:06.6	4.480	0.240	-0.730	0.220
2020/01/31 20:23:06.7	4.480	0.250	-0.790	0.190
2020/01/31 20:23:06.8	4.480	0.260	-0.840	0.160
2020/01/31 20:23:06.9	4.500	0.270	-0.880	0.130
2020/01/31 20:23:07.0	4.510	0.280	-0.920	0.100
2020/01/31 20:23:07.1	4.520	0.280	-0.960	0.060
2020/01/31 20:23:07.2	4.530	0.280	-0.990	0.020
2020/01/31 20:23:07.3	4.540	0.280	-1.020	-0.010
2020/01/31 20:23:07.4	4.560	0.280	-1.040	-0.050
2020/01/31 20:23:07.5	4.580	0.280	-1.060	-0.090
2020/01/31 20:23:07.6	4.600	0.280	-1.080	-0.140
2020/01/31 20:23:07.7	4.630	0.270	-1.090	-0.180
2020/01/31 20:23:07.8	4.650	0.270	-1.090	-0.220
2020/01/31 20:23:07.9	4.690	0.260	-1.090	-0.260
2020/01/31 20:23:08.0	4.720	0.250	-1.090	-0.300
2020/01/31 20:23:08.1	4.740	0.240	-1.070	-0.340
2020/01/31 20:23:08.2	4.770	0.230	-1.060	-0.380
2020/01/31 20:23:08.3	4.800	0.220	-1.030	-0.420
2020/01/31 20:23:08.4	4.830	0.210	-1.010	-0.450
2020/01/31 20:23:08.5	4.850	0.190	-0.970	-0.490
2020/01/31 20:23:08.6	4.880	0.180	-0.930	-0.520
2020/01/31 20:23:08.7	4.900	0.160	-0.890	-0.550
2020/01/31 20:23:08.8	4.920	0.140	-0.840	-0.580
2020/01/31 20:23:08.9	4.950	0.130	-0.790	-0.600
2020/01/31 20:23:09.0	4.960	0.110	-0.740	-0.620
2020/01/31 20:23:09.1	4.980	0.090	-0.680	-0.640
2020/01/31 20:23:09.2	4.990	0.070	-0.620	-0.660
2020/01/31 20:23:09.3	5.010	0.040	-0.560	-0.680
2020/01/31 20:23:09.4	5.020	0.020	-0.490	-0.690
2020/01/31 20:23:09.5	5.030	-0.000	-0.430	-0.700
2020/01/31 20:23:09.6	5.030	-0.020	-0.360	-0.700
2020/01/31 20:23:09.7	5.040	-0.050	-0.300	-0.710
2020/01/31 20:23:09.8	5.050	-0.070	-0.230	-0.710
2020/01/31 20:23:09.9	5.060	-0.090	-0.170	-0.710
2020/01/31 20:23:10.0	5.070	-0.120	-0.110	-0.700
2020/01/31 20:23:10.1	5.070	-0.140	-0.050	-0.700
2020/01/31 20:23:10.2	5.070	-0.170	0.000	-0.690
2020/01/31 20:23:10.3	5.080	-0.190	0.050	-0.680
2020/01/31 20:23:10.4	5.080	-0.210	0.100	-0.670
2020/01/31 20:23:10.5	5.080	-0.230	0.150	-0.650
2020/01/31 20:23:10.6	5.090	-0.250	0.180	-0.640
2020/01/31 20:23:10.7	5.090	-0.270	0.220	-0.620
2020/01/31 20:23:10.8	5.100	-0.290	0.250	-0.610
2020/01/31 20:23:10.9	5.090	-0.310	0.270	-0.590
2020/01/31 20:23:11.0	5.090	-0.320	0.290	-0.580
2020/01/31 20:23:11.1	5.100	-0.340	0.300	-0.560
2020/01/31 20:23:11.2	5.100	-0.350	0.310	-0.540
2020/01/31 20:23:11.3	5.110	-0.360	0.320	-0.520
2020/01/31 20:23:11.4	5.120	-0.370	0.320	-0.500
2020/01/31 20:23:11.5	5.120	-0.380	0.320	-0.480
2020/01/31 20:23:11.6	5.130	-0.380	0.310	-0.470
2020/01/31 20:23:11.7	5.140	-0.380	0.300	-0.450
2020/01/31 20:23:11.8	5.150	-0.380	0.280	-0.420
2020/01/31 20:23:11.9	5.150	-0.380	0.270	-0.400
2020/01/31 20:23:12.0	5.160	-0.380	0.250	-0.380
2020/01/31 20:23:12.1	5.160	-0.370	0.220	-0.350
2020/01/31 20:23:12.2	5.170	-0.360	0.200	-0.330
2020/01/31 20:23:12.3	5.170	-0.350	0.170	-0.300
2020/01/31 20:23:12.4	5.180	-0.340	0.140	-0.280
2020/01/31 20:23:12.5	5.180	-0.330	0.110	-0.250
2020/01/31 20:23:12.6	5.180	-0.310	0.070	-0.220
2020/01/31 20:23:12.7	5.180	-0.300	0.040	-0.190
2020/01/31 20:23:12.8	5.190	-0.280	0.010	-0.160
2020/01/31 20:23:12.9	5.170	-0.260	-0.030	-0.130
2020/01/31 20:23:13.0	5.170	-0.240	-0.060	-0.100
2020/01/31 20:23:13.1	5.170	-0.210	-0.090	-0.070
2020/01/31 20:23:13.2	5.160	-0.190	-0.120	-0.040
2020/01/31 20:23:13.3	5.160	-0.170	-0.150	-0.010
2020/01/31 20:23:13.4	5.150	-0.140	-0.180	0.020
2020/01/31 20:23:13.5	5.140	-0.120	-0.210	0.050
2020/01/31 20:23:13.6	5.130	-0.100	-0.240	0.070
2020/01/31 20:23:13.7	5.120	-0.070	-0.260	0.100
2020/01/31 20:23:13.8	5.110	-0.050	-0.280	0.130
2020/01/31 20:23:13.9	5.090	-0.020	-0.310	0.160
2020/01/31 20:23:14.0	5.070	0.000	-0.320	0.180
2020/01/31 20:23:14.1	5.060	0.030	-0.340	0.210
2020/01/31 20:23:14.2	5.040	0.050	-0.350	0.230
2020/01/31 20:23:14.3	5.020	0.070	-0.360	0.260
2020/01/31 20:23:14.4	5.000	0.090	-0.370	0.280
2020/01/31 20:23:14.5	4.980	0.120	-0.380	0.310
2020/01/31 20:23:14.6	4.950	0.140	-0.390	0.330
2020/01/31 20:23:14.7	4.930	0.160	-0.390	0.350
2020/01/31 20:23:14.8	4.900	0.180	-0.390	0.380
2020/01/31 20:23:14.9	4.880	0.200	-0.390	0.400
2020/01/31 20:23:15.0	4.850	0.210	-0.390	0.430
2020/01/31 20:23:15.1	4.820	0.230	-0.390	0.450
2020/01/31 20:23:15.2	4.790	0.250	-0.380	0.480
2020/01/31 20:23:15.3	4.760	0.270	-0.380	0.500
2020/01/31 20:23:15.4	4.730	0.280	-0.370	0.530
2020/01/31 20:23:15.5	4.700	0.290	-0.360	0.550
2020/01/31 20:23:15.6	4.670	0.310	-0.360	0.570
2020/01/31 20:23:15.7	4.640	0.320	-0.350	0.580
2020/01/31 20:23:15.8	4.610	0.330	-0.350	0.600
2020/01/31 20:23:15.9	4.600	0.340	-0.350	0.610
2020/01/31 20:23:16.0	4.570	0.350	-0.340	0.620
2020/01/31 20:23:16.1	4.540	0.360	-0.340	0.620
2020/01/31 20:23:16.2	4.510	0.370	-0.340	0.630
2020/01/31 20:23:16.3	4.490	0.380	-0.340	0.620
2020/01/31 20:23:16.4	4.470	0.380	-0.350	0.610
2020/01/31 20:23:16.5	4.450	0.390	-0.350	0.600
2020/01/31 20:23:16.6	4.440	0.390	-0.360	0.580
2020/01/31 20:23:16.7	4.420	0.400	-0.380	0.560
2020/01/31 20:23:16.8	4.410	0.400	-0.390	0.530
2020/01/31 20:23:16.9	4.420	0.400	-0.400	0.500
2020/01/31 20:23:17.0	4.410	0.410	-0.420	0.470
2020/01/31 20:23:17.1	4.410	0.410	-0.440	0.430
2020/01/31 20:23:17.2	4.420	0.410	-0.470	0.390
2020/01/31 20:23:17.3	4.430	0.410	-0.490	0.350
2020/01/31 20:23:17.4	4.440	0.420	-0.510	0.300
2020/01/31 20:23:17.5	4.450	0.420	-0.540	0.250
2020/01/31 20:23:17.6	4.470	0.420	-0.560	0.200
2020/01/31 20:23:17.7	4.490	0.420	-0.590	0.140
2020/01/31 20:23:17.8	4.520	0.420	-0.610	0.090
2020/01/31 20:23:17.9	4.560	0.410	-0.640	0.020
2020/01/31 20:23:18.0	4.590	0.410	-0.660	-0.030
2020/01/31 20:23:18.1	4.620	0.410	-0.680	-0.090
2020/01/31 20:23:18.2	4.660	0.400	-0.690	-0.150
2020/01/31 20:23:18.3	4.690	0.400	-0.710	-0.210
2020/01/31 20:23:18.4	4.730	0.390	-0.720	-0.260
2020/01/31 20:23:18.5	4.770	0.380	-0.720	-0.320
2020/01/31 20:23:18.6	4.810	0.370	-0.720	-0.370
2020/01/31 20:23:18.7	4.850	0.360	-0.720	-0.420
2020/01/31 20:23:18.8	4.890	0.340	-0.710	-0.470
2020/01/31 20:23:18.9	4.920	0.320	-0.690	-0.520
2020/01/31 20:23:19.0	4.950	0.300	-0.670	-0.560
2020/01/31 20:23:19.1	4.990	0.280	-0.650	-0.600
2020/01/31 20:23:19.2	5.020	0.260	-0.610	-0.640
2020/01/31 20:23:19.3	5.050	0.230	-0.570	-0.670
2020/01/31 20:23:19.4	5.080	0.200	-0.530	-0.690
2020/01/31 20:23:19.5	5.110	0.170	-0.480	-0.720
2020/01/31 20:23:19.6	5.130	0.140	-0.430	-0.740
2020/01/31 20:23:19.7	5.160	0.100	-0.370	-0.750
2020/01/31 20:23:19.8	5.180	0.070	-0.310	-0.760
2020/01/31 20:23:19.9	5.180	0.030	-0.250	-0.770
2020/01/31 20:23:20.0	5.200	-0.010	-0.180	-0.770
2020/01/31 20:23:20.1	5.210	-0.050	-0.110	-0.760
2020/01/31 20:23:20.2	5.220	-0.090	-0.040	-0.760
2020/01/31 20:23:20.3	5.220	-0.140	0.030	-0.740
2020/01/31 20:23:20.4	5.220	-0.180	0.110	-0.730
2020/01/31 20:23:20.5	5.230	-0.220	0.180	-0.710
2020/01/31 20:23:20.6	5.220	-0.270	0.250	-0.690
2020/01/31 20:23:20.7	5.220	-0.310	0.310	-0.670
2020/01/31 20:23:20.8	5.210	-0.350	0.380	-0.640
2020/01/31 20:23:20.9	5.200	-0.390	0.440	-0.610
2020/01/31 20:23:21.0	5.190	-0.430	0.490	-0.580
2020/01/31 20:23:21.1	5.170	-0.470	0.550	-0.540
2020/01/31 20:23:21.2	5.160	-0.510	0.590	-0.510
2020/01/31 20:23:21.3	5.140	-0.540	0.640	-0.480
2020/01/31 20:23:21.4	5.120	-0.570	0.670	-0.440
2020/01/31 20:23:21.5	5.100	-0.600	0.700	-0.410
2020/01/31 20:23:21.6	5.080	-0.630	0.720	-0.370
2020/01/31 20:23:21.7	5.060	-0.650	0.740	-0.340
2020/01/31 20:23:21.8	5.030	-0.670	0.750	-0.310
2020/01/31 20:23:21.9	5.000	-0.680	0.750	-0.280
2020/01/31 20:23:22.0	4.980	-0.700	0.740	-0.250
2020/01/31 20:23:22.1	4.960	-0.700	0.720	-0.220
2020/01/31 20:23:22.2	4.930	-0.710	0.700	-0.190
2020/01/31 20:23:22.3	4.910	-0.710	0.670	-0.170
2020/01/31 20:23:22.4	4.890	-0.700	0.630	-0.150
2020/01/31 20:23:22.5	4.880	-0.690	0.590	-0.130
2020/01/31 20:23:22.6	4.860	-0.680	0.540	-0.110
2020/01/31 20:23:22.7	4.850	-0.660	0.480	-0.100
2020/01/31 20:23:22.8	4.830	-0.640	0.420	-0.090
2020/01/31 20:23:22.9	4.840	-0.620	0.350	-0.080
2020/01/31 20:23:23.0	4.830	-0.590	0.280	-0.070
2020/01/31 20:23:23.1	4.820	-0.560	0.210	-0.060
2020/01/31 20:23:23.2	4.810	-0.520	0.130	-0.060
2020/01/31 20:23:23.3	4.810	-0.490	0.050	-0.060
2020/01/31 20:23:23.4	4.810	-0.440	-0.030	-0.060
2020/01/31 20:23:23.5	4.800	-0.400	-0.110	-0.060
2020/01/31 20:23:23.6	4.800	-0.360	-0.200	-0.070
2020/01/31 20:23:23.7	4.810	-0.310	-0.280	-0.070
2020/01/31 20:23:23.8	4.810	-0.270	-0.360	-0.080
2020/01/31 20:23:23.9	4.820	-0.220	-0.430	-0.080
2020/01/31 20:23:24.0	4.820	-0.170	-0.510	-0.090
2020/01/31 20:23:24.1	4.820	-0.120	-0.580	-0.090
2020/01/31 20:23:24.2	4.820	-0.070	-0.650	-0.090
2020/01/31 20:23:24.3	4.830	-0.030	-0.710	-0.090
2020/01/31 20:23:24.4	4.830	0.020	-0.770	-0.090
2020/01/31 20:23:24.5	4.830	0.070	-0.820	-0.090
2020/01/31 20:23:24.6	4.830	0.110	-0.870	-0.080
2020/01/31 20:23:24.7	4.830	0.150	-0.920	-0.080
2020/01/31 20:23:24.8	4.830	0.190	-0.960	-0.070
2020/01/31 20:23:24.9	4.810	0.230	-0.990	-0.050
2020/01/31 20:23:25.0	4.810	0.260	-1.020	-0.040
2020/01/31 20:23:25.1	4.800	0.290	-1.040	-0.030
2020/01/31 20:23:25.2	4.800	0.320	-1.060	-0.020
2020/01/31 20:23:25.3	4.790	0.350	-1.070	-0.000
2020/01/31 20:23:25.4	4.780	0.370	-1.080	0.010
2020/01/31 20:23:25.5	4.770	0.390	-1.080	0.030
2020/01/31 20:23:25.6	4.760	0.400	-1.080	0.040
2020/01/31 20:23:25.7	4.750	0.420	-1.070	0.060
2020/01/31 20:23:25.8	4.750	0.430	-1.060	0.070
2020/01/31 20:23:25.9	4.720	0.430	-1.050	0.080
2020/01/31 20:23:26.0	4.710	0.440	-1.030	0.090
2020/01/31 20:23:26.1	4.700	0.440	-1.010	0.090
2020/01/31 20:23:26.2	4.700	0.430	-0.980	0.100
2020/01/31 20:23:26.3	4.690	0.430	-0.950	0.100
2020/01/31 20:23:26.4	4.690	0.420	-0.930	0.110
2020/01/31 20:23:26.5	4.680	0.410	-0.890	0.110
2020/01/31 20:23:26.6	4.680	0.400	-0.860	0.110
2020/01/31 20:23:26.7	4.680	0.390	-0.820	0.100
2020/01/31 20:23:26.8	4.680	0.380	-0.790	0.100
2020/01/31 20:23:26.9	4.680	0.360	-0.750	0.090
2020/01/31 20:23:27.0	4.690	0.340	-0.710	0.090
2020/01/31 20:23:27.1	4.690	0.330	-0.670	0.080
2020/01/31 20:23:27.2	4.690	0.310	-0.630	0.070
2020/01/31 20:23:27.3	4.700	0.290	-0.580	0.060
2020/01/31 20:23:27.4	4.710	0.270	-0.540	0.050
2020/01/31 20:23:27.5	4.710	0.250	-0.490	0.040
2020/01/31 20:23:27.6	4.720	0.230	-0.440	0.030
2020/01/31 20:23:27.7	4.730	0.210	-0.400	0.020
2020/01/31 20:23:27.8	4.730	0.190	-0.350	0.020
2020/01/31 20:23:27.9	4.730	0.170	-0.300	0.010
2020/01/31 20:23:28.0	4.740	0.150	-0.250	0.000
2020/01/31 20:23:28.1	4.740	0.130	-0.200	-0.000
2020/01/31 20:23:28.2	4.740	0.100	-0.150	-0.000
2020/01/31 20:23:28.3	4.740	0.080	-0.100	-0.010
2020/01/31 20:23:28.4	4.740	0.060	-0.050	-0.010
2020/01/31 20:23:28.5	4.740	0.040	-0.000	-0.010
2020/01/31 20:23:28.6	4.740	0.020	0.040	-0.010
2020/01/31 20:23:28.7	4.740	-0.000	0.090	-0.010
2020/01/31 20:23:28.8	4.740	-0.030	0.130	-0.010
2020/01/31 20:23:28.9	4.730	-0.050	0.170	-0.020
2020/01/31 20:23:29.0	4.730	-0.070	0.200	-0.020
2020/01/31 20:23:29.1	4.730	-0.090	0.240	-0.030
2020/01/31 20:23:29.2	4.720	-0.110	0.270	-0.030
2020/01/31 20:23:29.3	4.720	-0.130	0.290	-0.040
2020/01/31 20:23:29.4	4.720	-0.140	0.310	-0.050
2020/01/31 20:23:29.5	4.720	-0.160	0.330	-0.060
2020/01/31 20:23:29.6	4.710	-0.180	0.340	-0.070
2020/01/31 20:23:29.7	4.710	-0.190	0.350	-0.090
2020/01/31 20:23:29.8	4.710	-0.200	0.350	-0.100
2020/01/31 20:23:29.9	4.730	-0.210	0.350	-0.120
2020/01/31 20:23:30.0	4.730	-0.220	0.340	-0.140
2020/01/31 20:23:30.1	4.730	-0.230	0.330	-0.150
2020/01/31 20:23:30.2	4.740	-0.240	0.310	-0.170
2020/01/31 20:23:30.3	4.740	-0.240	0.290	-0.180
2020/01/31 20:23:30.4	4.750	-0.240	0.260	-0.200
2020/01/31 20:23:30.5	4.750	-0.240	0.240	-0.210
2020/01/31 20:23:30.6	4.760	-0.240	0.200	-0.230
2020/01/31 20:23:30.7	4.760	-0.240	0.170	-0.240
2020/01/31 20:23:30.8	4.770	-0.230	0.130	-0.250
2020/01/31 20:23:30.9	4.800	-0.230	0.090	-0.260
2020/01/31 20:23:31.0	4.800	-0.220	0.040	-0.260
2020/01/31 20:23:31.1	4.810	-0.210	-0.000	-0.270
2020/01/31 20:23:31.2	4.810	-0.200	-0.050	-0.280
2020/01/31 20:23:31.3	4.820	-0.190	-0.090	-0.290
2020/01/31 20:23:31.4	4.830	-0.170	-0.140	-0.300
2020/01/31 20:23:31.5	4.830	-0.160	-0.190	-0.300
2020/01/31 20:23:31.6	4.840	-0.140	-0.230	-0.310
2020/01/31 20:23:31.7	4.850	-0.120	-0.280	-0.320
2020/01/31 20:23:31.8	4.850	-0.110	-0.320	-0.320
2020/01/31 20:23:31.9	4.860	-0.090	-0.370	-0.330
2020/01/31 20:23:32.0	4.870	-0.070	-0.410	-0.340
2020/01/31 20:23:32.1	4.870	-0.050	-0.440	-0.340
2020/01/31 20:23:32.2	4.880	-0.030	-0.470	-0.340
2020/01/31 20:23:32.3	4.890	-0.010	-0.500	-0.350
2020/01/31 20:23:32.4	4.890	0.010	-0.530	-0.350
2020/01/31 20:23:32.5	4.900	0.020	-0.550	-0.350
2020/01/31 20:23:32.6	4.900	0.040	-0.570	-0.350
2020/01/31 20:23:32.7	4.900	0.060	-0.580	-0.340
2020/01/31 20:23:32.8	4.910	0.080	-0.590	-0.340
2020/01/31 20:23:32.9	4.910	0.100	-0.600	-0.330
2020/01/31 20:23:33.0	4.910	0.110	-0.600	-0.320
2020/01/31 20:23:33.1	4.910	0.130	-0.600	-0.300
2020/01/31 20:23:33.2	4.910	0.140	-0.590	-0.290
2020/01/31 20:23:33.3	4.900	0.160	-0.580	-0.270
2020/01/31 20:23:33.4	4.890	0.170	-0.570	-0.240
2020/01/31 20:23:33.5	4.880	0.180	-0.550	-0.220
2020/01/31 20:23:33.6	4.870	0.190	-0.530	-0.190
2020/01/31 20:23:33.7	4.860	0.190	-0.500	-0.160
2020/01/31 20:23:33.8	4.840	0.200	-0.470	-0.120
2020/01/31 20:23:33.9	4.810	0.200	-0.450	-0.080
2020/01/31 20:23:34.0	4.790	0.200	-0.410	-0.050
2020/01/31 20:23:34.1	4.760	0.200	-0.370	-0.010
2020/01/31 20:23:34.2	4.740	0.200	-0.340	0.030
2020/01/31 20:23:34.3	4.710	0.200	-0.300	0.080
2020/01/31 20:23:34.4	4.680	0.190	-0.260	0.110
2020/01/31 20:23:34.5	4.650	0.180	-0.210	0.150
2020/01/31 20:23:34.6	4.620	0.170	-0.170	0.190
2020/01/31 20:23:34.7	4.590	0.160	-0.130	0.230
2020/01/31 20:23:34.8	4.560	0.150	-0.090	0.260
2020/01/31 20:23:34.9	4.530	0.140	-0.060	0.290
2020/01/31 20:23:35.0	4.500	0.120	-0.020	0.320
2020/01/31 20:23:35.1	4.470	0.110	0.010	0.340
2020/01/31 20:23:35.2	4.440	0.090	0.040	0.370
2020/01/31 20:23:35.3	4.410	0.080	0.070	0.380
2020/01/31 20:23:35.4	4.390	0.060	0.090	0.400
2020/01/31 20:23:35.5	4.360	0.050	0.110	0.410
2020/01/31 20:23:35.6	4.340	0.030	0.130	0.420
2020/01/31 20:23:35.7	4.320	0.020	0.140	0.420
2020/01/31 20:23:35.8	4.300	0.010	0.150	0.420
2020/01/31 20:23:35.9	4.280	-0.000	0.150	0.420
2020/01/31 20:23:36.0	4.260	-0.010	0.150	0.410
2020/01/31 20:23:36.1	4.250	-0.020	0.150	0.400
2020/01/31 20:23:36.2	4.240	-0.030	0.140	0.390
2020/01/31 20:23:36.3	4.230	-0.030	0.130	0.370
2020/01/31 20:23:36.4	4.230	-0.030	0.110	0.350
2020/01/31 20:23:36.5	4.230	-0.030	0.090	0.330
2020/01/31 20:23:36.6	4.220	-0.030	0.070	0.310
2020/01/31 20:23:36.7	4.230	-0.020	0.050	0.280
2020/01/31 20:23:36.8	4.230	-0.020	0.020	0.260
2020/01/31 20:23:36.9	4.240	-0.010	-0.010	0.220
2020/01/31 20:23:37.0	4.250	0.000	-0.040	0.200
2020/01/31 20:23:37.1	4.260	0.020	-0.080	0.170
2020/01/31 20:23:37.2	4.270	0.030	-0.110	0.140
2020/01/31 20:23:37.3	4.290	0.050	-0.150	0.110
2020/01/31 20:23:37.4	4.310	0.060	-0.180	0.080
2020/01/31 20:23:37.5	4.330	0.080	-0.220	0.050
2020/01/31 20:23:37.6	4.360	0.100	-0.260	0.020
2020/01/31 20:23:37.7	4.380	0.120	-0.300	-0.010
2020/01/31 20:23:37.8	4.410	0.140	-0.330	-0.040
2020/01/31 20:23:37.9	4.440	0.160	-0.370	-0.070
2020/01/31 20:23:38.0	4.480	0.180	-0.410	-0.100
2020/01/31 20:23:38.1	4.510	0.200	-0.440	-0.140
2020/01/31 20:23:38.2	4.550	0.220	-0.480	-0.170
2020/01/31 20:23:38.3	4.590	0.240	-0.510	-0.200
2020/01/31 20:23:38.4	4.630	0.250	-0.540	-0.230
2020/01/31 20:23:38.5	4.680	0.270	-0.570	-0.260
2020/01/31 20:23:38.6	4.720	0.280	-0.600	-0.280
2020/01/31 20:23:38.7	4.760	0.290	-0.620	-0.310
2020/01/31 20:23:38.8	4.800	0.290	-0.650	-0.330
2020/01/31 20:23:38.9	4.830	0.300	-0.660	-0.350
2020/01/31 20:23:39.0	4.870	0.300	-0.680	-0.370
2020/01/31 20:23:39.1	4.910	0.300	-0.680	-0.380
2020/01/31 20:23:39.2	4.940	0.300	-0.690	-0.390
2020/01/31 20:23:39.3	4.970	0.290	-0.690	-0.390
2020/01/31 20:23:39.4	4.990	0.280	-0.690	-0.390
2020/01/31 20:23:39.5	5.010	0.260	-0.680	-0.390
2020/01/31 20:23:39.6	5.030	0.250	-0.660	-0.380
2020/01/31 20:23:39.7	5.040	0.230	-0.650	-0.360
2020/01/31 20:23:39.8	5.040	0.210	-0.620	-0.340
2020/01/31 20:23:39.9	5.040	0.180	-0.600	-0.310
2020/01/31 20:23:40.0	5.040	0.150	-0.570	-0.290
2020/01/31 20:23:40.1	5.030	0.120	-0.530	-0.260
2020/01/31 20:23:40.2	5.010	0.090	-0.500	-0.230
2020/01/31 20:23:40.3	5.000	0.060	-0.460	-0.190
2020/01/31 20:23:40.4	4.980	0.020	-0.410	-0.160
2020/01/31 20:23:40.5	4.950	-0.010	-0.370	-0.120
2020/01/31 20:23:40.6	4.920	-0.050	-0.330	-0.090
2020/01/31 20:23:40.7	4.890	-0.090	-0.280	-0.050
2020/01/31 20:23:40.8	4.860	-0.130	-0.240	-0.020
2020/01/31 20:23:40.9	4.820	-0.170	-0.200	0.020
2020/01/31 20:23:41.0	4.780	-0.210	-0.160	0.050
2020/01/31 20:23:41.1	4.740	-0.240	-0.120	0.080
2020/01/31 20:23:41.2	4.700	-0.280	-0.080	0.110
2020/01/31 20:23:41.3	4.660	-0.310	-0.050	0.130
2020/01/31 20:23:41.4	4.620	-0.340	-0.030	0.150
2020/01/31 20:23:41.5	4.590	-0.370	-0.000	0.170
2020/01/31 20:23:41.6	4.550	-0.400	0.020	0.180
2020/01/31 20:23:41.7	4.510	-0.420	0.030	0.190
2020/01/31 20:23:41.8	4.480	-0.440	0.040	0.200
2020/01/31 20:23:41.9	4.440	-0.450	0.040	0.200
2020/01/31 20:23:42.0	4.410	-0.470	0.040	0.200
2020/01/31 20:23:42.1	4.390	-0.470	0.030	0.190
2020/01/31 20:23:42.2	4.360	-0.480	0.010	0.180
2020/01/31 20:23:42.3	4.340	-0.480	-0.000	0.170
2020/01/31 20:23:42.4	4.310	-0.470	-0.030	0.150
2020/01/31 20:23:42.5	4.300	-0.470	-0.050	0.130
2020/01/31 20:23:42.6	4.280	-0.460	-0.080	0.110
2020/01/31 20:23:42.7	4.260	-0.440	-0.110	0.090
2020/01/31 20:23:42.8	4.250	-0.430	-0.150	0.060
2020/01/31 20:23:42.9	4.250	-0.410	-0.180	0.040
2020/01/31 20:23:43.0	4.240	-0.380	-0.220	0.010
2020/01/31 20:23:43.1	4.230	-0.360	-0.260	-0.020
2020/01/31 20:23:43.2	4.220	-0.340	-0.290	-0.050
2020/01/31 20:23:43.3	4.220	-0.310	-0.320	-0.080
2020/01/31 20:23:43.4	4.210	-0.290	-0.350	-0.110
2020/01/31 20:23:43.5	4.200	-0.260	-0.380	-0.140
2020/01/31 20:23:43.6	4.200	-0.230	-0.410	-0.170
2020/01/31 20:23:43.7	4.200	-0.210	-0.430	-0.200
2020/01/31 20:23:43.8	4.190	-0.190	-0.440	-0.230
2020/01/31 20:23:43.9	4.200	-0.160	-0.460	-0.260
2020/01/31 20:23:44.0	4.200	-0.140	-0.460	-0.290
2020/01/31 20:23:44.1	4.200	-0.120	-0.470	-0.320
2020/01/31 20:23:44.2	4.200	-0.100	-0.460	-0.350
2020/01/31 20:23:44.3	4.200	-0.090	-0.460	-0.380
2020/01/31 20:23:44.4	4.200	-0.070	-0.450	-0.400
2020/01/31 20:23:44.5	4.210	-0.060	-0.430	-0.430
2020/01/31 20:23:44.6	4.210	-0.050	-0.410	-0.450
2020/01/31 20:23:44.7	4.220	-0.040	-0.390	-0.470
2020/01/31 20:23:44.8	4.230	-0.040	-0.370	-0.490
2020/01/31 20:23:44.9	4.230	-0.030	-0.340	-0.510
2020/01/31 20:23:45.0	4.250	-0.030	-0.320	-0.520
2020/01/31 20:23:45.1	4.260	-0.030	-0.290	-0.530
2020/01/31 20:23:45.2	4.280	-0.030	-0.260	-0.540
2020/01/31 20:23:45.3	4.300	-0.030	-0.230	-0.550
2020/01/31 20:23:45.4	4.320	-0.030	-0.190	-0.550
2020/01/31 20:23:45.5	4.350	-0.030	-0.160	-0.550
2020/01/31 20:23:45.6	4.370	-0.040	-0.130	-0.550
2020/01/31 20:23:45.7	4.400	-0.040	-0.110	-0.540
2020/01/31 20:23:45.8	4.420	-0.050	-0.080	-0.530
2020/01/31 20:23:45.9	4.460	-0.050	-0.050	-0.520
2020/01/31 20:23:46.0	4.480	-0.050	-0.030	-0.500
2020/01/31 20:23:46.1	4.510	-0.060	-0.000	-0.490
2020/01/31 20:23:46.2	4.530	-0.060	0.020	-0.470
2020/01/31 20:23:46.3	4.550	-0.070	0.030	-0.440
2020/01/31 20:23:46.4	4.580	-0.070	0.050	-0.420
2020/01/31 20:23:46.5	4.600	-0.070	0.060	-0.390
2020/01/31 20:23:46.6	4.620	-0.070	0.070	-0.370
2020/01/31 20:23:46.7	4.640	-0.070	0.080	-0.340
2020/01/31 20:23:46.8	4.660	-0.070	0.080	-0.310
2020/01/31 20:23:46.9	4.680	-0.060	0.080	-0.280
2020/01/31 20:23:47.0	4.700	-0.060	0.080	-0.260
2020/01/31 20:23:47.1	4.720	-0.050	0.070	-0.230
2020/01/31 20:23:47.2	4.730	-0.040	0.070	-0.210
2020/01/31 20:23:47.3	4.740	-0.030	0.050	-0.180
2020/01/31 20:23:47.4	4.750	-0.020	0.040	-0.160
2020/01/31 20:23:47.5	4.760	-0.000	0.020	-0.140
2020/01/31 20:23:47.6	4.770	0.010	0.000	-0.110
2020/01/31 20:23:47.7	4.780	0.030	-0.020	-0.090
2020/01/31 20:23:47.8	4.780	0.050	-0.040	-0.070
2020/01/31 20:23:47.9	4.790	0.070	-0.070	-0.050
2020/01/31 20:23:48.0	4.790	0.100	-0.090	-0.020
2020/01/31 20:23:48.1	4.790	0.120	-0.120	0.010
2020/01/31 20:23:48.2	4.790	0.150	-0.150	0.030
2020/01/31 20:23:48.3	4.780	0.170	-0.180	0.060
2020/01/31 20:23:48.4	4.770	0.200	-0.200	0.090
2020/01/31 20:23:48.5	4.770	0.220	-0.230	0.120
2020/01/31 20:23:48.6	4.760	0.250	-0.250	0.140
2020/01/31 20:23:48.7	4.740	0.280	-0.280	0.170
2020/01/31 20:23:48.8	4.730	0.310	-0.300	0.200
2020/01/31 20:23:48.9	4.710	0.330	-0.320	0.240
2020/01/31 20:23:49.0	4.700	0.360	-0.340	0.270
2020/01/31 20:23:49.1	4.680	0.380	-0.360	0.300
2020/01/31 20:23:49.2	4.660	0.400	-0.370	0.330
2020/01/31 20:23:49.3	4.640	0.430	-0.380	0.360
2020/01/31 20:23:49.4	4.620	0.450	-0.390	0.390
2020/01/31 20:23:49.5	4.600	0.460	-0.400	0.420
2020/01/31 20:23:49.6	4.580	0.480	-0.400	0.450
2020/01/31 20:23:49.7	4.550	0.490	-0.400	0.470
2020/01/31 20:23:49.8	4.530	0.500	-0.400	0.500
2020/01/31 20:23:49.9	4.500	0.510	-0.400	0.510
2020/01/31 20:23:50.0	4.470	0.510	-0.390	0.530
2020/01/31 20:23:50.1	4.450	0.510	-0.380	0.550
2020/01/31 20:23:50.2	4.420	0.510	-0.380	0.560
2020/01/31 20:23:50.3	4.390	0.500	-0.370	0.570
2020/01/31 20:23:50.4	4.370	0.500	-0.360	0.570
2020/01/31 20:23:50.5	4.340	0.490	-0.350	0.570
2020/01/31 20:23:50.6	4.320	0.470	-0.340	0.570
2020/01/31 20:23:50.7	4.300	0.460	-0.330	0.570
2020/01/31 20:23:50.8	4.270	0.440	-0.320	0.560
2020/01/31 20:23:50.9	4.240	0.420	-0.320	0.550
2020/01/31 20:23:51.0	4.220	0.400	-0.310	0.540
2020/01/31 20:23:51.1	4.200	0.370	-0.300	0.530
2020/01/31 20:23:51.2	4.180	0.350	-0.300	0.510
2020/01/31 20:23:51.3	4.170	0.320	-0.290	0.490
2020/01/31 20:23:51.4	4.150	0.300	-0.290	0.460
2020/01/31 20:23:51.5	4.140	0.270	-0.290	0.440
2020/01/31 20:23:51.6	4.130	0.240	-0.290	0.410
2020/01/31 20:23:51.7	4.120	0.210	-0.290	0.380
2020/01/31 20:23:51.8	4.120	0.190	-0.300	0.340
2020/01/31 20:23:51.9	4.120	0.160	-0.300	0.300
2020/01/31 20:23:52.0	4.120	0.130	-0.320	0.260
2020/01/31 20:23:52.1	4.120	0.110	-0.330	0.220
2020/01/31 20:23:52.2	4.130	0.080	-0.350	0.170
2020/01/31 20:23:52.3	4.140	0.060	-0.370	0.120
2020/01/31 20:23:52.4	4.160	0.040	-0.390	0.060
2020/01/31 20:23:52.5	4.170	0.010	-0.410	0.010
2020/01/31 20:23:52.6	4.190	-0.010	-0.430	-0.050
2020/01/31 20:23:52.7	4.210	-0.020	-0.460	-0.110
2020/01/31 20:23:52.8	4.240	-0.040	-0.490	-0.180
2020/01/31 20:23:52.9	4.250	-0.050	-0.510	-0.240
2020/01/31 20:23:53.0	4.280	-0.070	-0.540	-0.300
2020/01/31 20:23:53.1	4.310	-0.080	-0.570	-0.370
2020/01/31 20:23:53.2	4.330	-0.090	-0.600	-0.430
2020/01/31 20:23:53.3	4.370	-0.100	-0.620	-0.490
2020/01/31 20:23:53.4	4.400	-0.100	-0.640	-0.540
2020/01/31 20:23:53.5	4.430	-0.110	-0.660	-0.600
2020/01/31 20:23:53.6	4.460	-0.120	-0.680	-0.650
2020/01/31 20:23:53.7	4.490	-0.120	-0.700	-0.700
2020/01/31 20:23:53.8	4.520	-0.120	-0.710	-0.740
2020/01/31 20:23:53.9	4.540	-0.130	-0.720	-0.780
2020/01/31 20:23:54.0	4.570	-0.130	-0.730	-0.820
2020/01/31 20:23:54.1	4.600	-0.130	-0.730	-0.860
2020/01/31 20:23:54.2	4.630	-0.140	-0.730	-0.890
2020/01/31 20:23:54.3	4.670	-0.140	-0.730	-0.920
2020/01/31 20:23:54.4	4.700	-0.140	-0.720	-0.950
2020/01/31 20:23:54.5	4.730	-0.150	-0.710	-0.980
2020/01/31 20:23:54.6	4.760	-0.150	-0.690	-1.000
2020/01/31 20:23:54.7	4.800	-0.150	-0.680	-1.020
2020/01/31 20:23:54.8	4.830	-0.160	-0.660	-1.040
2020/01/31 20:23:54.9	4.860	-0.170	-0.630	-1.050
2020/01/31 20:23:55.0	4.890	-0.170	-0.610	-1.060
2020/01/31 20:23:55.1	4.930	-0.180	-0.580	-1.080
2020/01/31 20:23:55.2	4.960	-0.190	-0.550	-1.080
2020/01/31 20:23:55.3	5.000	-0.190	-0.510	-1.090
2020/01/31 20:23:55.4	5.040	-0.200	-0.470	-1.090
2020/01/31 20:23:55.5	5.070	-0.210	-0.430	-1.090
2020/01/31 20:23:55.6	5.100	-0.220	-0.390	-1.090
2020/01/31 20:23:55.7	5.130	-0.230	-0.350	-1.080
2020/01/31 20:23:55.8	5.160	-0.240	-0.300	-1.070
2020/01/31 20:23:55.9	5.190	-0.260	-0.250	-1.050
2020/01/31 20:23:56.0	5.210	-0.270	-0.200	-1.040
2020/01/31 20:23:56.1	5.230	-0.280	-0.140	-1.020
2020/01/31 20:23:56.2	5.240	-0.290	-0.080	-0.990
2020/01/31 20:23:56.3	5.250	-0.310	-0.020	-0.960
2020/01/31 20:23:56.4	5.260	-0.320	0.040	-0.930
2020/01/31 20:23:56.5	5.260	-0.330	0.100	-0.890
2020/01/31 20:23:56.6	5.260	-0.340	0.170	-0.850
2020/01/31 20:23:56.7	5.260	-0.360	0.230	-0.800
2020/01/31 20:23:56.8	5.250	-0.370	0.300	-0.750
2020/01/31 20:23:56.9	5.250	-0.380	0.360	-0.700
2020/01/31 20:23:57.0	5.230	-0.390	0.430	-0.640
2020/01/31 20:23:57.1	5.210	-0.400	0.490	-0.580
2020/01/31 20:23:57.2	5.190	-0.410	0.550	-0.520
2020/01/31 20:23:57.3	5.160	-0.420	0.610	-0.460
2020/01/31 20:23:57.4	5.130	-0.420	0.660	-0.400
2020/01/31 20:23:57.5	5.090	-0.430	0.710	-0.330
2020/01/31 20:23:57.6	5.060	-0.430	0.760	-0.260
2020/01/31 20:23:57.7	5.020	-0.430	0.800	-0.200
2020/01/31 20:23:57.8	4.970	-0.440	0.830	-0.130
2020/01/31 20:23:57.9	4.930	-0.440	0.860	-0.060
2020/01/31 20:23:58.0	4.890	-0.430	0.870	0.000
2020/01/31 20:23:58.1	4.840	-0.430	0.890	0.060
2020/01/31 20:23:58.2	4.790	-0.420	0.890	0.120
2020/01/31 20:23:58.3	4.740	-0.420	0.890	0.180
2020/01/31 20:23:58.4	4.680	-0.410	0.870	0.230
2020/01/31 20:23:58.5	4.640	-0.400	0.850	0.280
2020/01/31 20:23:58.6	4.590	-0.380	0.820	0.320
2020/01/31 20:23:58.7	4.540	-0.370	0.780	0.360
2020/01/31 20:23:58.8	4.490	-0.350	0.730	0.390
2020/01/31 20:23:58.9	4.450	-0.330	0.680	0.420
2020/01/31 20:23:59.0	4.410	-0.310	0.610	0.440
2020/01/31 20:23:59.1	4.370	-0.290	0.540	0.460
2020/01/31 20:23:59.2	4.340	-0.260	0.460	0.460
2020/01/31 20:23:59.3	4.310	-0.240	0.370	0.470
2020/01/31 20:23:59.4	4.280	-0.210	0.280	0.460
2020/01/31 20:23:59.5	4.250	-0.180	0.180	0.450
2020/01/31 20:23:59.6	4.230	-0.150	0.070	0.440
2020/01/31 20:23:59.7	4.220	-0.110	-0.030	0.420
2020/01/31 20:23:59.8	4.210	-0.080	-0.140	0.400
2020/01/31 20:23:59.9	4.190	-0.050	-0.250	0.380
2020/01/31 20:24:00.0	4.180	-0.010	-0.360	0.350
2020/01/31 20:24:00.1	4.180	0.030	-0.470	0.320
2020/01/31 20:24:00.2	4.180	0.060	-0.570	0.290
2020/01/31 20:24:00.3	4.180	0.100	-0.670	0.260
2020/01/31 20:24:00.4	4.180	0.130	-0.770	0.230
2020/01/31 20:24:00.5	4.190	0.170	-0.860	0.200
2020/01/31 20:24:00.6	4.200	0.200	-0.950	0.160
2020/01/31 20:24:00.7	4.200	0.230	-1.020	0.130
2020/01/31 20:24:00.8	4.210	0.260	-1.090	0.090
2020/01/31 20:24:00.9	4.230	0.290	-1.150	0.060
2020/01/31 20:24:01.0	4.240	0.310	-1.210	0.020
2020/01/31 20:24:01.1	4.260	0.340	-1.250	-0.010
2020/01/31 20:24:01.2	4.270	0.360	-1.280	-0.050
2020/01/31 20:24:01.3	4.290	0.380	-1.300	-0.080
2020/01/31 20:24:01.4	4.300	0.390	-1.320	-0.110
2020/01/31 20:24:01.5	4.320	0.400	-1.320	-0.140
2020/01/31 20:24:01.6	4.340	0.410	-1.310	-0.170
2020/01/31 20:24:01.7	4.360	0.420	-1.300	-0.190
2020/01/31 20:24:01.8	4.370	0.420	-1.280	-0.220
2020/01/31 20:24:01.9	4.390	0.430	-1.240	-0.240
2020/01/31 20:24:02.0	4.410	0.420	-1.210	-0.260
2020/01/31 20:24:02.1	4.440	0.420	-1.160	-0.280
2020/01/31 20:24:02.2	4.460	0.420	-1.110	-0.290
2020/01/31 20:24:02.3	4.480	0.410	-1.060	-0.300
2020/01/31 20:24:02.4	4.500	0.400	-1.000	-0.310
2020/01/31 20:24:02.5	4.530	0.390	-0.930	-0.320
2020/01/31 20:24:02.6	4.550	0.370	-0.870	-0.320
2020/01/31 20:24:02.7	4.570	0.360	-0.800	-0.320
2020/01/31 20:24:02.8	4.600	0.350	-0.730	-0.320
2020/01/31 20:24:02.9	4.600	0.330	-0.670	-0.320
2020/01/31 20:24:03.0	4.620	0.310	-0.600	-0.310
2020/01/31 20:24:03.1	4.640	0.300	-0.530	-0.300
2020/01/31 20:24:03.2	4.670	0.280	-0.470	-0.290
2020/01/31 20:24:03.3	4.690	0.260	-0.410	-0.280
2020/01/31 20:24:03.4	4.710	0.250	-0.350	-0.270
2020/01/31 20:24:03.5	4.730	0.230	-0.290	-0.250
2020/01/31 20:24:03.6	4.750	0.210	-0.240	-0.240
2020/01/31 20:24:03.7	4.770	0.200	-0.190	-0.220
2020/01/31 20:24:03.8	4.790	0.190	-0.150	-0.200
2020/01/31 20:24:03.9	4.800	0.170	-0.110	-0.180
2020/01/31 20:24:04.0	4.820	0.160	-0.080	-0.170
2020/01/31 20:24:04.1	4.830	0.150	-0.050	-0.150
2020/01/31 20:24:04.2	4.850	0.140	-0.030	-0.130
2020/01/31 20:24:04.3	4.860	0.130	-0.010	-0.110
2020/01/31 20:24:04.4	4.870	0.120	0.000	-0.090
2020/01/31 20:24:04.5	4.880	0.110	0.010	-0.080
2020/01/31 20:24:04.6	4.890	0.110	0.010	-0.060
2020/01/31 20:24:04.7	4.890	0.100	0.020	-0.040
2020/01/31 20:24:04.8	4.890	0.100	0.010	-0.030
2020/01/31 20:24:04.9	4.900	0.090	0.010	-0.010
2020/01/31 20:24:05.0	4.900	0.090	-0.000	0.000
2020/01/31 20:24:05.1	4.890	0.080	-0.010	0.020
2020/01/31 20:24:05.2	4.890	0.080	-0.030	0.030
2020/01/31 20:24:05.3	4.880	0.080	-0.040	0.040
2020/01/31 20:24:05.4	4.870	0.070	-0.060	0.050
2020/01/31 20:24:05.5	4.870	0.070	-0.080	0.050
2020/01/31 20:24:05.6	4.860	0.060	-0.090	0.060
2020/01/31 20:24:05.7	4.850	0.060	-0.110	0.060
2020/01/31 20:24:05.8	4.840	0.050	-0.130	0.070
2020/01/31 20:24:05.9	4.830	0.050	-0.150	0.070
2020/01/31 20:24:06.0	4.820	0.040	-0.170	0.070
2020/01/31 20:24:06.1	4.810	0.030	-0.190	0.070
2020/01/31 20:24:06.2	4.800	0.020	-0.200	0.070
2020/01/31 20:24:06.3	4.800	0.010	-0.220	0.060
2020/01/31 20:24:06.4	4.790	0.010	-0.240	0.060
2020/01/31 20:24:06.5	4.780	-0.000	-0.260	0.050
2020/01/31 20:24:06.6	4.780	-0.020	-0.270	0.040
2020/01/31 20:24:06.7	4.770	-0.030	-0.290	0.020
2020/01/31 20:24:06.8	4.770	-0.040	-0.300	0.010
2020/01/31 20:24:06.9	4.780	-0.050	-0.310	-0.010
2020/01/31 20:24:07.0	4.770	-0.060	-0.330	-0.020
2020/01/31 20:24:07.1	4.770	-0.070	-0.340	-0.050
2020/01/31 20:24:07.2	4.780	-0.090	-0.350	-0.070
2020/01/31 20:24:07.3	4.780	-0.100	-0.360	-0.100
2020/01/31 20:24:07.4	4.780	-0.110	-0.370	-0.120
2020/01/31 20:24:07.5	4.790	-0.120	-0.380	-0.150
2020/01/31 20:24:07.6	4.800	-0.140	-0.390	-0.190
2020/01/31 20:24:07.7	4.810	-0.150	-0.390	-0.220
2020/01/31 20:24:07.8	4.820	-0.160	-0.400	-0.260
2020/01/31 20:24:07.9	4.840	-0.170	-0.400	-0.300
2020/01/31 20:24:08.0	4.850	-0.180	-0.410	-0.340
2020/01/31 20:24:08.1	4.870	-0.180	-0.410	-0.380
2020/01/31 20:24:08.2	4.890	-0.190	-0.410	-0.430
2020/01/31 20:24:08.3	4.910	-0.190	-0.410	-0.470
2020/01/31 20:24:08.4	4.930	-0.200	-0.410	-0.510
2020/01/31 20:24:08.5	4.950	-0.200	-0.410	-0.560
2020/01/31 20:24:08.6	4.970	-0.200	-0.400	-0.600
2020/01/31 20:24:08.7	4.990	-0.210	-0.400	-0.640
2020/01/31 20:24:08.8	5.010	-0.210	-0.390	-0.680
2020/01/31 20:24:08.9	5.050	-0.200	-0.380	-0.720
2020/01/31 20:24:09.0	5.070	-0.200	-0.360	-0.760
2020/01/31 20:24:09.1	5.090	-0.200	-0.340	-0.790
2020/01/31 20:24:09.2	5.100	-0.200	-0.320	-0.820
2020/01/31 20:24:09.3	5.110	-0.200	-0.300	-0.840
2020/01/31 20:24:09.4	5.120	-0.190	-0.270	-0.860
2020/01/31 20:24:09.5	5.130	-0.190	-0.240	-0.880
2020/01/31 20:24:09.6	5.130	-0.180	-0.210	-0.880
2020/01/31 20:24:09.7	5.130	-0.180	-0.170	-0.890
2020/01/31 20:24:09.8	5.130	-0.180	-0.130	-0.880
2020/01/31 20:24:09.9	5.110	-0.170	-0.090	-0.870
2020/01/31 20:24:10.0	5.100	-0.170	-0.050	-0.860
2020/01/31 20:24:10.1	5.090	-0.170	-0.010	-0.840
2020/01/31 20:24:10.2	5.070	-0.160	0.040	-0.810
2020/01/31 20:24:10.3	5.050	-0.160	0.080	-0.780
2020/01/31 20:24:10.4	5.020	-0.160	0.130	-0.750
2020/01/31 20:24:10.5	5.000	-0.150	0.170	-0.720
2020/01/31 20:24:10.6	4.970	-0.150	0.220	-0.680
2020/01/31 20:24:10.7	4.940	-0.150	0.260	-0.640
2020/01/31 20:24:10.8	4.910	-0.140	0.300	-0.590
2020/01/31 20:24:10.9	4.880	-0.140	0.330	-0.550
2020/01/31 20:24:11.0	4.850	-0.140	0.370	-0.500
2020/01/31 20:24:11.1	4.810	-0.130	0.400	-0.460
2020/01/31 20:24:11.2	4.780	-0.130	0.430	-0.410
2020/01/31 20:24:11.3	4.740	-0.120	0.450	-0.360
2020/01/31 20:24:11.4	4.710	-0.120	0.470	-0.310
2020/01/31 20:24:11.5	4.680	-0.110	0.480	-0.270
2020/01/31 20:24:11.6	4.650	-0.110	0.490	-0.220
2020/01/31 20:24:11.7	4.620	-0.100	0.490	-0.170
2020/01/31 20:24:11.8	4.590	-0.090	0.490	-0.130
2020/01/31 20:24:11.9	4.550	-0.080	0.480	-0.090
2020/01/31 20:24:12.0	4.520	-0.070	0.470	-0.050
2020/01/31 20:24:12.1	4.490	-0.060	0.450	-0.000
2020/01/31 20:24:12.2	4.470	-0.040	0.430	0.030
2020/01/31 20:24:12.3	4.450	-0.030	0.410	0.070
2020/01/31 20:24:12.4	4.430	-0.010	0.380	0.110
2020/01/31 20:24:12.5	4.410	0.000	0.350	0.140
2020/01/31 20:24:12.6	4.400	0.020	0.320	0.170
2020/01/31 20:24:12.7	4.390	0.040	0.280	0.200
2020/01/31 20:24:12.8	4.370	0.060	0.240	0.230
2020/01/31 20:24:12.9	4.380	0.070	0.190	0.250
2020/01/31 20:24:13.0	4.370	0.090	0.150	0.280
2020/01/31 20:24:13.1	4.370	0.110	0.110	0.290
2020/01/31 20:24:13.2	4.360	0.130	0.060	0.310
2020/01/31 20:24:13.3	4.360	0.140	0.010	0.330
2020/01/31 20:24:13.4	4.360	0.160	-0.040	0.340
2020/01/31 20:24:13.5	4.370	0.170	-0.080	0.350
2020/01/31 20:24:13.6	4.370	0.180	-0.130	0.360
2020/01/31 20:24:13.7	4.380	0.190	-0.180	0.370
2020/01/31 20:24:13.8	4.390	0.200	-0.220	0.370
2020/01/31 20:24:13.9	4.400	0.210	-0.270	0.380
2020/01/31 20:24:14.0	4.410	0.220	-0.320	0.380
2020/01/31 20:24:14.1	4.420	0.220	-0.360	0.380
2020/01/31 20:24:14.2	4.430	0.220	-0.400	0.370
2020/01/31 20:24:14.3	4.440	0.230	-0.450	0.370
2020/01/31 20:24:14.4	4.460	0.220	-0.490	0.360
2020/01/31 20:24:14.5	4.470	0.220	-0.530	0.350
2020/01/31 20:24:14.6	4.490	0.220	-0.570	0.350
2020/01/31 20:24:14.7	4.500	0.210	-0.610	0.340
2020/01/31 20:24:14.8	4.510	0.210	-0.640	0.330
2020/01/31 20:24:14.9	4.540	0.200	-0.680	0.310
2020/01/31 20:24:15.0	4.550	0.190	-0.710	0.300
2020/01/31 20:24:15.1	4.560	0.180	-0.750	0.280
2020/01/31 20:24:15.2	4.580	0.170	-0.780	0.270
2020/01/31 20:24:15.3	4.590	0.160	-0.810	0.250
2020/01/31 20:24:15.4	4.610	0.140	-0.840	0.230
2020/01/31 20:24:15.5	4.620	0.130	-0.880	0.210
2020/01/31 20:24:15.6	4.640	0.120	-0.910	0.190
2020/01/31 20:24:15.7	4.650	0.110	-0.940	0.170
2020/01/31 20:24:15.8	4.670	0.100	-0.960	0.140
2020/01/31 20:24:15.9	4.690	0.090	-0.990	0.120
2020/01/31 20:24:16.0	4.710	0.080	-1.020	0.090
2020/01/31 20:24:16.1	4.730	0.070	-1.050	0.060
2020/01/31 20:24:16.2	4.760	0.060	-1.070	0.020
2020/01/31 20:24:16.3	4.780	0.050	-1.090	-0.010
2020/01/31 20:24:16.4	4.810	0.040	-1.110	-0.050
2020/01/31 20:24:16.5	4.840	0.040	-1.130	-0.090
2020/01/31 20:24:16.6	4.870	0.030	-1.140	-0.130
2020/01/31 20:24:16.7	4.900	0.030	-1.150	-0.180
2020/01/31 20:24:16.8	4.930	0.020	-1.160	-0.220
2020/01/31 20:24:16.9	4.960	0.020	-1.170	-0.270
2020/01/31 20:24:17.0	4.990	0.010	-1.170	-0.310
2020/01/31 20:24:17.1	5.010	0.010	-1.160	-0.360
2020/01/31 20:24:17.2	5.040	0.010	-1.150	-0.400
2020/01/31 20:24:17.3	5.070	0.000	-1.130	-0.440
2020/01/31 20:24:17.4	5.090	0.000	-1.110	-0.470
2020/01/31 20:24:17.5	5.120	-0.000	-1.080	-0.510
2020/01/31 20:24:17.6	5.140	-0.010	-1.040	-0.540
2020/01/31 20:24:17.7	5.160	-0.010	-1.000	-0.570
2020/01/31 20:24:17.8	5.180	-0.010	-0.950	-0.600
2020/01/31 20:24:17.9	5.200	-0.020	-0.900	-0.620
2020/01/31 20:24:18.0	5.210	-0.030	-0.840	-0.650
2020/01/31 20:24:18.1	5.220	-0.030	-0.780	-0.670
2020/01/31 20:24:18.2	5.240	-0.040	-0.710	-0.690
2020/01/31 20:24:18.3	5.250	-0.050	-0.640	-0.700
2020/01/31 20:24:18.4	5.260	-0.060	-0.560	-0.710
2020/01/31 20:24:18.5	5.270	-0.070	-0.480	-0.720
2020/01/31 20:24:18.6	5.270	-0.080	-0.400	-0.730
2020/01/31 20:24:18.7	5.280	-0.100	-0.320	-0.730
2020/01/31 20:24:18.8	5.280	-0.110	-0.230	-0.740
2020/01/31 20:24:18.9	5.290	-0.130	-0.150	-0.740
2020/01/31 20:24:19.0	5.290	-0.140	-0.060	-0.730
2020/01/31 20:24:19.1	5.290	-0.160	0.020	-0.730
2020/01/31 20:24:19.2	5.290	-0.180	0.100	-0.720
2020/01/31 20:24:19.3	5.290	-0.200	0.190	-0.710
2020/01/31 20:24:19.4	5.280	-0.220	0.270	-0.690
2020/01/31 20:24:19.5	5.270	-0.240	0.340	-0.670
2020/01/31 20:24:19.6	5.270	-0.260	0.410	-0.660
2020/01/31 20:24:19.7	5.250	-0.280	0.480	-0.630
2020/01/31 20:24:19.8	5.240	-0.290	0.550	-0.610
2020/01/31 20:24:19.9	5.220	-0.310	0.600	-0.580
2020/01/31 20:24:20.0	5.210	-0.330	0.660	-0.560
2020/01/31 20:24:20.1	5.190	-0.350	0.700	-0.530
2020/01/31 20:24:20.2	5.160	-0.360	0.750	-0.500
2020/01/31 20:24:20.3	5.140	-0.380	0.780	-0.460
2020/01/31 20:24:20.4	5.110	-0.390	0.810	-0.430
2020/01/31 20:24:20.5	5.090	-0.400	0.830	-0.400
2020/01/31 20:24:20.6	5.060	-0.410	0.840	-0.360
2020/01/31 20:24:20.7	5.020	-0.420	0.850	-0.320
2020/01/31 20:24:20.8	4.990	-0.420	0.850	-0.290
2020/01/31 20:24:20.9	4.950	-0.420	0.850	-0.250
2020/01/31 20:24:21.0	4.910	-0.420	0.830	-0.210
2020/01/31 20:24:21.1	4.880	-0.420	0.810	-0.180
2020/01/31 20:24:21.2	4.840	-0.410	0.780	-0.140
2020/01/31 20:24:21.3	4.810	-0.400	0.740	-0.110
2020/01/31 20:24:21.4	4.780	-0.390	0.700	-0.080
2020/01/31 20:24:21.5	4.750	-0.370	0.650	-0.050
2020/01/31 20:24:21.6	4.720	-0.360	0.590	-0.020
2020/01/31 20:24:21.7	4.700	-0.330	0.520	-0.000
2020/01/31 20:24:21.8	4.670	-0.310	0.450	0.020
2020/01/31 20:24:21.9	4.650	-0.280	0.370	0.040
2020/01/31 20:24:22.0	4.630	-0.250	0.290	0.060
2020/01/31 20:24:22.1	4.620	-0.220	0.200	0.080
2020/01/31 20:24:22.2	4.600	-0.180	0.110	0.090
2020/01/31 20:24:22.3	4.590	-0.140	0.010	0.100
2020/01/31 20:24:22.4	4.590	-0.100	-0.080	0.110
2020/01/31 20:24:22.5	4.580	-0.050	-0.180	0.120
2020/01/31 20:24:22.6	4.580	-0.010	-0.290	0.120
2020/01/31 20:24:22.7	4.580	0.040	-0.380	0.130
2020/01/31 20:24:22.8	4.580	0.090	-0.480	0.130
2020/01/31 20:24:22.9	4.560	0.140	-0.580	0.130
2020/01/31 20:24:23.0	4.570	0.190	-0.670	0.140
2020/01/31 20:24:23.1	4.570	0.240	-0.760	0.140
2020/01/31 20:24:23.2	4.580	0.290	-0.850	0.140
2020/01/31 20:24:23.3	4.590	0.340	-0.920	0.130
2020/01/31 20:24:23.4	4.600	0.390	-0.990	0.130
2020/01/31 20:24:23.5	4.610	0.440	-1.060	0.130
2020/01/31 20:24:23.6	4.630	0.480	-1.110	0.120
2020/01/31 20:24:23.7	4.640	0.530	-1.150	0.120
2020/01/31 20:24:23.8	4.660	0.570	-1.190	0.110
2020/01/31 20:24:23.9	4.670	0.610	-1.210	0.110
2020/01/31 20:24:24.0	4.690	0.640	-1.230	0.100
2020/01/31 20:24:24.1	4.710	0.680	-1.230	0.100
2020/01/31 20:24:24.2	4.730	0.700	-1.230	0.100
2020/01/31 20:24:24.3	4.750	0.730	-1.210	0.090
2020/01/31 20:24:24.4	4.770	0.750	-1.190	0.090
2020/01/31 20:24:24.5	4.790	0.760	-1.150	0.090
2020/01/31 20:24:24.6	4.810	0.770	-1.110	0.090
2020/01/31 20:24:24.7	4.830	0.780	-1.060	0.100
2020/01/31 20:24:24.8	4.850	0.780	-1.000	0.100
2020/01/31 20:24:24.9	4.870	0.780	-0.940	0.110
2020/01/31 20:24:25.0	4.890	0.770	-0.860	0.120
2020/01/31 20:24:25.1	4.910	0.760	-0.790	0.130
2020/01/31 20:24:25.2	4.930	0.740	-0.710	0.140
2020/01/31 20:24:25.3	4.940	0.710	-0.620	0.160
2020/01/31 20:24:25.4	4.960	0.680	-0.540	0.170
2020/01/31 20:24:25.5	4.970	0.650	-0.450	0.190
2020/01/31 20:24:25.6	4.980	0.610	-0.360	0.210
2020/01/31 20:24:25.7	4.990	0.570	-0.280	0.220
2020/01/31 20:24:25.8	5.000	0.530	-0.190	0.240
2020/01/31 20:24:25.9	5.020	0.480	-0.110	0.260
2020/01/31 20:24:26.0	5.020	0.420	-0.030	0.270
2020/01/31 20:24:26.1	5.030	0.370	0.040	0.280
2020/01/31 20:24:26.2	5.030	0.310	0.110	0.290
2020/01/31 20:24:26.3	5.040	0.250	0.180	0.290
2020/01/31 20:24:26.4	5.040	0.190	0.240	0.290
2020/01/31 20:24:26.5	5.040	0.120	0.290	0.280
2020/01/31 20:24:26.6	5.040	0.060	0.330	0.270
2020/01/31 20:24:26.7	5.040	-0.010	0.370	0.250
2020/01/31 20:24:26.8	5.040	-0.070	0.400	0.230
2020/01/31 20:24:26.9	5.040	-0.130	0.430	0.210
2020/01/31 20:24:27.0	5.040	-0.190	0.440	0.180
2020/01/31 20:24:27.1	5.030	-0.250	0.450	0.150
2020/01/31 20:24:27.2	5.030	-0.310	0.460	0.110
2020/01/31 20:24:27.3	5.030	-0.370	0.450	0.070
2020/01/31 20:24:27.4	5.020	-0.420	0.440	0.030
2020/01/31 20:24:27.5	5.020	-0.470	0.430	-0.010
2020/01/31 20:24:27.6	5.010	-0.510	0.410	-0.060
2020/01/31 20:24:27.7	5.010	-0.550	0.380	-0.100
2020/01/31 20:24:27.8	5.000	-0.590	0.350	-0.150
2020/01/31 20:24:27.9	5.000	-0.620	0.320	-0.210
2020/01/31 20:24:28.0	5.000	-0.640	0.280	-0.250
2020/01/31 20:24:28.1	4.990	-0.660	0.240	-0.300
2020/01/31 20:24:28.2	4.990	-0.680	0.190	-0.350
2020/01/31 20:24:28.3	4.990	-0.690	0.150	-0.400
2020/01/31 20:24:28.4	5.000	-0.700	0.100	-0.440
2020/01/31 20:24:28.5	5.000	-0.700	0.050	-0.480
2020/01/31 20:24:28.6	5.000	-0.700	0.000	-0.530
2020/01/31 20:24:28.7	5.010	-0.690	-0.050	-0.570
2020/01/31 20:24:28.8	5.020	-0.680	-0.100	-0.600
2020/01/31 20:24:28.9	5.020	-0.670	-0.150	-0.640
2020/01/31 20:24:29.0	5.020	-0.650	-0.200	-0.670
2020/01/31 20:24:29.1	5.030	-0.620	-0.240	-0.700
2020/01/31 20:24:29.2	5.040	-0.600	-0.290	-0.720
2020/01/31 20:24:29.3	5.050	-0.570	-0.330	-0.750
2020/01/31 20:24:29.4	5.060	-0.540	-0.370	-0.760
2020/01/31 20:24:29.5	5.070	-0.510	-0.410	-0.780
2020/01/31 20:24:29.6	5.070	-0.470	-0.450	-0.790
2020/01/31 20:24:29.7	5.080	-0.440	-0.480	-0.800
2020/01/31 20:24:29.8	5.090	-0.400	-0.510	-0.800
2020/01/31 20:24:29.9	5.100	-0.360	-0.540	-0.800
2020/01/31 20:24:30.0	5.100	-0.330	-0.560	-0.790
2020/01/31 20:24:30.1	5.110	-0.290	-0.580	-0.790
2020/01/31 20:24:30.2	5.110	-0.250	-0.600	-0.780
2020/01/31 20:24:30.3	5.110	-0.220	-0.610	-0.760
2020/01/31 20:24:30.4	5.120	-0.180	-0.620	-0.750
2020/01/31 20:24:30.5	5.120	-0.140	-0.630	-0.730
2020/01/31 20:24:30.6	5.120	-0.110	-0.630	-0.710
2020/01/31 20:24:30.7	5.120	-0.080	-0.630	-0.690
2020/01/31 20:24:30.8	5.120	-0.050	-0.620	-0.670
2020/01/31 20:24:30.9	5.110	-0.020	-0.620	-0.640
2020/01/31 20:24:31.0	5.110	0.010	-0.610	-0.620
2020/01/31 20:24:31.1	5.100	0.030	-0.600	-0.590
2020/01/31 20:24:31.2	5.100	0.050	-0.590	-0.570
2020/01/31 20:24:31.3	5.100	0.070	-0.570	-0.540
2020/01/31 20:24:31.4	5.100	0.090	-0.560	-0.510
2020/01/31 20:24:31.5	5.100	0.110	-0.540	-0.480
2020/01/31 20:24:31.6	5.100	0.120	-0.520	-0.450
2020/01/31 20:24:31.7	5.090	0.140	-0.500	-0.420
2020/01/31 20:24:31.8	5.090	0.150	-0.480	-0.380
2020/01/31 20:24:31.9	5.090	0.160	-0.450	-0.350
2020/01/31 20:24:32.0	5.090	0.170	-0.430	-0.310
2020/01/31 20:24:32.1	5.090	0.170	-0.410	-0.280
2020/01/31 20:24:32.2	5.090	0.180	-0.390	-0.250
2020/01/31 20:24:32.3	5.090	0.190	-0.370	-0.210
2020/01/31 20:24:32.4	5.090	0.190	-0.350	-0.180
2020/01/31 20:24:32.5	5.090	0.190	-0.330	-0.150
2020/01/31 20:24:32.6	5.090	0.190	-0.320	-0.120
2020/01/31 20:24:32.7	5.100	0.200	-0.300	-0.100
2020/01/31 20:24:32.8	5.100	0.200	-0.280	-0.070
2020/01/31 20:24:32.9	5.110	0.200	-0.270	-0.040
2020/01/31 20:24:33.0	5.120	0.200	-0.260	-0.020
2020/01/31 20:24:33.1	5.130	0.190	-0.250	-0.000
2020/01/31 20:24:33.2	5.140	0.190	-0.240	0.010
2020/01/31 20:24:33.3	5.150	0.190	-0.230	0.030
2020/01/31 20:24:33.4	5.170	0.190	-0.230	0.040
2020/01/31 20:24:33.5	5.180	0.190	-0.220	0.040
2020/01/31 20:24:33.6	5.200	0.190	-0.220	0.050
2020/01/31 20:24:33.7	5.220	0.180	-0.220	0.050
2020/01/31 20:24:33.8	5.230	0.180	-0.220	0.060
2020/01/31 20:24:33.9	5.250	0.180	-0.220	0.050
2020/01/31 20:24:34.0	5.270	0.180	-0.230	0.050
2020/01/31 20:24:34.1	5.290	0.170	-0.230	0.050
2020/01/31 20:24:34.2	5.300	0.170	-0.230	0.050
2020/01/31 20:24:34.3	5.320	0.170	-0.230	0.050
2020/01/31 20:24:34.4	5.330	0.160	-0.240	0.040
2020/01/31 20:24:34.5	5.350	0.160	-0.240	0.040
2020/01/31 20:24:34.6	5.360	0.150	-0.240	0.030
2020/01/31 20:24:34.7	5.380	0.150	-0.250	0.030
2020/01/31 20:24:34.8	5.390	0.150	-0.250	0.020
2020/01/31 20:24:34.9	5.400	0.140	-0.250	0.020
2020/01/31 20:24:35.0	5.410	0.140	-0.250	0.010
2020/01/31 20:24:35.1	5.420	0.130	-0.250	0.010
2020/01/31 20:24:35.2	5.430	0.120	-0.250	0.010
2020/01/31 20:24:35.3	5.430	0.120	-0.250	0.000
2020/01/31 20:24:35.4	5.440	0.110	-0.240	-0.000
2020/01/31 20:24:35.5	5.450	0.110	-0.240	-0.010
2020/01/31 20:24:35.6	5.450	0.100	-0.230	-0.010
2020/01/31 20:24:35.7	5.460	0.090	-0.220	-0.010
2020/01/31 20:24:35.8	5.460	0.090	-0.220	-0.010
2020/01/31 20:24:35.9	5.470	0.080	-0.210	-0.020
2020/01/31 20:24:36.0	5.470	0.080	-0.200	-0.020
2020/01/31 20:24:36.1	5.470	0.070	-0.180	-0.020
2020/01/31 20:24:36.2	5.470	0.060	-0.170	-0.020
2020/01/31 20:24:36.3	5.470	0.060	-0.160	-0.020
2020/01/31 20:24:36.4	5.470	0.050	-0.140	-0.030
2020/01/31 20:24:36.5	5.470	0.050	-0.130	-0.030
2020/01/31 20:24:36.6	5.460	0.040	-0.120	-0.030
2020/01/31 20:24:36.7	5.460	0.040	-0.100	-0.040
2020/01/31 20:24:36.8	5.450	0.030	-0.090	-0.040
2020/01/31 20:24:36.9	5.460	0.030	-0.070	-0.050
2020/01/31 20:24:37.0	5.450	0.030	-0.050	-0.050
2020/01/31 20:24:37.1	5.440	0.030	-0.040	-0.060
2020/01/31 20:24:37.2	5.430	0.030	-0.030	-0.070
2020/01/31 20:24:37.3	5.420	0.030	-0.010	-0.070
2020/01/31 20:24:37.4	5.410	0.030	-0.000	-0.080
2020/01/31 20:24:37.5	5.400	0.030	0.010	-0.090
2020/01/31 20:24:37.6	5.390	0.030	0.020	-0.100
2020/01/31 20:24:37.7	5.380	0.030	0.020	-0.110
2020/01/31 20:24:37.8	5.370	0.040	0.030	-0.110
2020/01/31 20:24:37.9	5.350	0.040	0.030	-0.120
2020/01/31 20:24:38.0	5.340	0.040	0.040	-0.130
2020/01/31 20:24:38.1	5.330	0.050	0.040	-0.140
2020/01/31 20:24:38.2	5.320	0.050	0.030	-0.150
2020/01/31 20:24:38.3	5.300	0.060	0.030	-0.150
2020/01/31 20:24:38.4	5.290	0.060	0.020	-0.160
2020/01/31 20:24:38.5	5.280	0.060	0.010	-0.170
2020/01/31 20:24:38.6	5.270	0.070	-0.000	-0.180
2020/01/31 20:24:38.7	5.260	0.070	-0.020	-0.190
2020/01/31 20:24:38.8	5.250	0.070	-0.040	-0.210
2020/01/31 20:24:38.9	5.240	0.070	-0.060	-0.220
2020/01/31 20:24:39.0	5.230	0.070	-0.080	-0.240
2020/01/31 20:24:39.1	5.220	0.060	-0.110	-0.260
2020/01/31 20:24:39.2	5.220	0.060	-0.140	-0.280
2020/01/31 20:24:39.3	5.210	0.050	-0.170	-0.310
2020/01/31 20:24:39.4	5.210	0.040	-0.210	-0.340
2020/01/31 20:24:39.5	5.210	0.040	-0.240	-0.370
2020/01/31 20:24:39.6	5.210	0.020	-0.280	-0.400
2020/01/31 20:24:39.7	5.220	0.010	-0.320	-0.430
2020/01/31 20:24:39.8	5.220	-0.000	-0.360	-0.470
2020/01/31 20:24:39.9	5.230	-0.010	-0.400	-0.510
2020/01/31 20:24:40.0	5.240	-0.030	-0.440	-0.550
2020/01/31 20:24:40.1	5.250	-0.050	-0.480	-0.590
2020/01/31 20:24:40.2	5.260	-0.060	-0.520	-0.640
2020/01/31 20:24:40.3	5.270	-0.080	-0.560	-0.680
2020/01/31 20:24:40.4	5.290	-0.100	-0.600	-0.730
2020/01/31 20:24:40.5	5.300	-0.110	-0.640	-0.770
2020/01/31 20:24:40.6	5.320	-0.130	-0.670	-0.810
2020/01/31 20:24:40.7	5.340	-0.150	-0.700	-0.860
2020/01/31 20:24:40.8	5.360	-0.160	-0.730	-0.900
2020/01/31 20:24:40.9	5.390	-0.180	-0.750	-0.940
2020/01/31 20:24:41.0	5.410	-0.190	-0.770	-0.980
2020/01/31 20:24:41.1	5.430	-0.200	-0.790	-1.020
2020/01/31 20:24:41.2	5.460	-0.210	-0.800	-1.050
2020/01/31 20:24:41.3	5.480	-0.220	-0.800	-1.080
2020/01/31 20:24:41.4	5.510	-0.230	-0.800	-1.100
2020/01/31 20:24:41.5	5.530	-0.230	-0.800	-1.120
2020/01/31 20:24:41.6	5.550	-0.230	-0.790	-1.140
2020/01/31 20:24:41.7	5.580	-0.230	-0.770	-1.150
2020/01/31 20:24:41.8	5.600	-0.230	-0.750	-1.160
2020/01/31 20:24:41.9	5.630	-0.230	-0.720	-1.160
2020/01/31 20:24:42.0	5.650	-0.220	-0.690	-1.160
2020/01/31 20:24:42.1	5.680	-0.220	-0.650	-1.150
2020/01/31 20:24:42.2	5.710	-0.210	-0.610	-1.140
2020/01/31 20:24:42.3	5.730	-0.200	-0.560	-1.120
2020/01/31 20:24:42.4	5.760	-0.190	-0.510	-1.100
2020/01/31 20:24:42.5	5.780	-0.180	-0.460	-1.070
2020/01/31 20:24:42.6	5.810	-0.160	-0.410	-1.040
2020/01/31 20:24:42.7	5.830	-0.150	-0.350	-1.010
2020/01/31 20:24:42.8	5.850	-0.130	-0.290	-0.970
2020/01/31 20:24:42.9	5.870	-0.120	-0.230	-0.930
2020/01/31 20:24:43.0	5.890	-0.100	-0.170	-0.890
2020/01/31 20:24:43.1	5.910	-0.090	-0.110	-0.840
2020/01/31 20:24:43.2	5.920	-0.070	-0.050	-0.800
2020/01/31 20:24:43.3	5.940	-0.060	0.010	-0.750
2020/01/31 20:24:43.4	5.950	-0.050	0.060	-0.700
2020/01/31 20:24:43.5	5.970	-0.030	0.110	-0.650
2020/01/31 20:24:43.6	5.980	-0.020	0.160	-0.600
2020/01/31 20:24:43.7	5.990	-0.010	0.210	-0.550
2020/01/31 20:24:43.8	5.990	0.000	0.250	-0.500
2020/01/31 20:24:43.9	5.990	0.020	0.280	-0.460
2020/01/31 20:24:44.0	6.000	0.020	0.310	-0.400
2020/01/31 20:24:44.1	6.000	0.030	0.340	-0.350
2020/01/31 20:24:44.2	6.000	0.040	0.350	-0.300
2020/01/31 20:24:44.3	6.000	0.050	0.370	-0.260
2020/01/31 20:24:44.4	5.990	0.050	0.370	-0.210
2020/01/31 20:24:44.5	5.990	0.060	0.370	-0.160
2020/01/31 20:24:44.6	5.980	0.060	0.370	-0.110
2020/01/31 20:24:44.7	5.970	0.060	0.360	-0.070
2020/01/31 20:24:44.8	5.960	0.070	0.340	-0.020
2020/01/31 20:24:44.9	5.960	0.070	0.320	0.020
2020/01/31 20:24:45.0	5.940	0.070	0.300	0.060
2020/01/31 20:24:45.1	5.930	0.060	0.270	0.100
2020/01/31 20:24:45.2	5.910	0.060	0.230	0.140
2020/01/31 20:24:45.3	5.890	0.060	0.190	0.170
2020/01/31 20:24:45.4	5.880	0.060	0.150	0.200
2020/01/31 20:24:45.5	5.860	0.050	0.110	0.220
2020/01/31 20:24:45.6	5.840	0.050	0.060	0.240
2020/01/31 20:24:45.7	5.820	0.050	0.010	0.260
2020/01/31 20:24:45.8	5.800	0.040	-0.040	0.280
2020/01/31 20:24:45.9	5.780	0.040	-0.090	0.290
2020/01/31 20:24:46.0	5.760	0.030	-0.140	0.300
2020/01/31 20:24:46.1	5.750	0.030	-0.190	0.300
2020/01/31 20:24:46.2	5.730	0.020	-0.240	0.300
2020/01/31 20:24:46.3	5.710	0.020	-0.290	0.300
2020/01/31 20:24:46.4	5.690	0.020	-0.340	0.290
2020/01/31 20:24:46.5	5.680	0.020	-0.380	0.280
2020/01/31 20:24:46.6	5.670	0.020	-0.420	0.270
2020/01/31 20:24:46.7	5.650	0.020	-0.460	0.260
2020/01/31 20:24:46.8	5.640	0.020	-0.500	0.240
2020/01/31 20:24:46.9	5.630	0.020	-0.530	0.220
2020/01/31 20:24:47.0	5.620	0.030	-0.550	0.200
2020/01/31 20:24:47.1	5.610	0.030	-0.580	0.180
2020/01/31 20:24:47.2	5.610	0.040	-0.600	0.160
2020/01/31 20:24:47.3	5.610	0.050	-0.610	0.140
2020/01/31 20:24:47.4	5.610	0.050	-0.620	0.110
2020/01/31 20:24:47.5	5.610	0.060	-0.630	0.090
2020/01/31 20:24:47.6	5.610	0.070	-0.630	0.060
2020/01/31 20:24:47.7	5.610	0.090	-0.630	0.040
2020/01/31 20:24:47.8	5.620	0.100	-0.630	0.010
2020/01/31 20:24:47.9	5.620	0.110	-0.620	-0.010
2020/01/31 20:24:48.0	5.620	0.120	-0.610	-0.040
2020/01/31 20:24:48.1	5.630	0.130	-0.600	-0.060
2020/01/31 20:24:48.2	5.640	0.150	-0.580	-0.090
2020/01/31 20:24:48.3	5.650	0.160	-0.560	-0.110
2020/01/31 20:24:48.4	5.660	0.170	-0.530	-0.130
2020/01/31 20:24:48.5	5.670	0.180	-0.510	-0.160
2020/01/31 20:24:48.6	5.680	0.190	-0.480	-0.180
2020/01/31 20:24:48.7	5.690	0.200	-0.450	-0.200
2020/01/31 20:24:48.8	5.700	0.200	-0.430	-0.220
2020/01/31 20:24:48.9	5.710	0.210	-0.400	-0.240
2020/01/31 20:24:49.0	5.720	0.210	-0.370	-0.250
2020/01/31 20:24:49.1	5.730	0.210	-0.340	-0.270
2020/01/31 20:24:49.2	5.740	0.210	-0.310	-0.290
2020/01/31 20:24:49.3	5.750	0.210	-0.290	-0.300
2020/01/31 20:24:49.4	5.760	0.200	-0.270	-0.320
2020/01/31 20:24:49.5	5.780	0.200	-0.240	-0.330
2020/01/31 20:24:49.6	5.790	0.190	-0.230	-0.350
2020/01/31 20:24:49.7	5.800	0.180	-0.210	-0.360
2020/01/31 20:24:49.8	5.810	0.170	-0.200	-0.380
2020/01/31 20:24:49.9	5.840	0.150	-0.190	-0.390
2020/01/31 20:24:50.0	5.850	0.140	-0.180	-0.400
2020/01/31 20:24:50.1	5.870	0.120	-0.180	-0.420
2020/01/31 20:24:50.2	5.880	0.100	-0.180	-0.430
2020/01/31 20:24:50.3	5.890	0.080	-0.190	-0.450
2020/01/31 20:24:50.4	5.900	0.060	-0.200	-0.470
2020/01/31 20:24:50.5	5.920	0.030	-0.210	-0.480
2020/01/31 20:24:50.6	5.930	0.010	-0.220	-0.500
2020/01/31 20:24:50.7	5.940	-0.010	-0.240	-0.510
2020/01/31 20:24:50.8	5.960	-0.040	-0.260	-0.530
2020/01/31 20:24:50.9	5.990	-0.060	-0.290	-0.550
2020/01/31 20:24:51.0	6.000	-0.080	-0.310	-0.570
2020/01/31 20:24:51.1	6.020	-0.110	-0.340	-0.590
2020/01/31 20:24:51.2	6.040	-0.130	-0.370	-0.610
2020/01/31 20:24:51.3	6.050	-0.150	-0.400	-0.630
2020/01/31 20:24:51.4	6.070	-0.170	-0.420	-0.650
2020/01/31 20:24:51.5	6.090	-0.190	-0.450	-0.660
2020/01/31 20:24:51.6	6.110	-0.210	-0.480	-0.680
2020/01/31 20:24:51.7	6.130	-0.220	-0.500	-0.700
2020/01/31 20:24:51.8	6.150	-0.240	-0.520	-0.710
2020/01/31 20:24:51.9	6.170	-0.250	-0.530	-0.720
2020/01/31 20:24:52.0	6.190	-0.260	-0.540	-0.730
2020/01/31 20:24:52.1	6.200	-0.270	-0.550	-0.730
2020/01/31 20:24:52.2	6.210	-0.280	-0.550	-0.730
2020/01/31 20:24:52.3	6.210	-0.290	-0.540	-0.730
2020/01/31 20:24:52.4	6.210	-0.300	-0.530	-0.720
2020/01/31 20:24:52.5	6.210	-0.300	-0.510	-0.710
2020/01/31 20:24:52.6	6.210	-0.310	-0.480	-0.690
2020/01/31 20:24:52.7	6.200	-0.310	-0.450	-0.670
2020/01/31 20:24:52.8	6.190	-0.310	-0.410	-0.650
2020/01/31 20:24:52.9	6.170	-0.310	-0.370	-0.620
2020/01/31 20:24:53.0	6.150	-0.310	-0.320	-0.590
2020/01/31 20:24:53.1	6.130	-0.310	-0.260	-0.550
2020/01/31 20:24:53.2	6.110	-0.300	-0.210	-0.510
2020/01/31 20:24:53.3	6.090	-0.300	-0.150	-0.470
2020/01/31 20:24:53.4	6.060	-0.300	-0.080	-0.430
2020/01/31 20:24:53.5	6.030	-0.290	-0.020	-0.380
2020/01/31 20:24:53.6	6.010	-0.280	0.040	-0.340
2020/01/31 20:24:53.7	5.980	-0.270	0.100	-0.290
2020/01/31 20:24:53.8	5.950	-0.270	0.150	-0.240
2020/01/31 20:24:53.9	5.920	-0.250	0.200	-0.200
2020/01/31 20:24:54.0	5.900	-0.240	0.250	-0.150
2020/01/31 20:24:54.1	5.880	-0.230	0.290	-0.110
2020/01/31 20:24:54.2	5.860	-0.210	0.330	-0.060
2020/01/31 20:24:54.3	5.840	-0.200	0.350	-0.020
2020/01/31 20:24:54.4	5.820	-0.180	0.370	0.010
2020/01/31 20:24:54.5	5.810	-0.160	0.380	0.050
2020/01/31 20:24:54.6	5.810	-0.140	0.390	0.070
2020/01/31 20:24:54.7	5.800	-0.120	0.380	0.100
2020/01/31 20:24:54.8	5.800	-0.090	0.370	0.120
2020/01/31 20:24:54.9	5.790	-0.070	0.350	0.140
2020/01/31 20:24:55.0	5.800	-0.040	0.320	0.150
2020/01/31 20:24:55.1	5.810	-0.010	0.280	0.160
2020/01/31 20:24:55.2	5.820	0.020	0.230	0.160
2020/01/31 20:24:55.3	5.840	0.050	0.180	0.150
2020/01/31 20:24:55.4	5.850	0.080	0.130	0.150
2020/01/31 20:24:55.5	5.870	0.110	0.060	0.130
2020/01/31 20:24:55.6	5.890	0.140	0.000	0.120
2020/01/31 20:24:55.7	5.920	0.170	-0.070	0.090
2020/01/31 20:24:55.8	5.940	0.200	-0.130	0.070
2020/01/31 20:24:55.9	5.970	0.230	-0.210	0.040
2020/01/31 20:24:56.0	6.000	0.250	-0.270	0.010
2020/01/31 20:24:56.1	6.020	0.280	-0.340	-0.020
2020/01/31 20:24:56.2	6.050	0.310	-0.410	-0.050
2020/01/31 20:24:56.3	6.080	0.330	-0.470	-0.090
2020/01/31 20:24:56.4	6.110	0.350	-0.520	-0.120
2020/01/31 20:24:56.5	6.130	0.370	-0.570	-0.150
2020/01/31 20:24:56.6	6.160	0.380	-0.620	-0.180
2020/01/31 20:24:56.7	6.190	0.400	-0.660	-0.220
2020/01/31 20:24:56.8	6.210	0.410	-0.700	-0.240
2020/01/31 20:24:56.9	6.240	0.420	-0.720	-0.270
2020/01/31 20:24:57.0	6.260	0.420	-0.740	-0.300
2020/01/31 20:24:57.1	6.280	0.420	-0.750	-0.320
2020/01/31 20:24:57.2	6.300	0.420	-0.760	-0.340
2020/01/31 20:24:57.3	6.310	0.410	-0.760	-0.350
2020/01/31 20:24:57.4	6.330	0.410	-0.750	-0.360
2020/01/31 20:24:57.5	6.340	0.390	-0.730	-0.370
2020/01/31 20:24:57.6	6.350	0.380	-0.710	-0.370
2020/01/31 20:24:57.7	6.360	0.360	-0.680	-0.370
2020/01/31 20:24:57.8	6.360	0.340	-0.650	-0.370
2020/01/31 20:24:57.9	6.370	0.310	-0.610	-0.360
2020/01/31 20:24:58.0	6.370	0.280	-0.560	-0.350
2020/01/31 20:24:58.1	6.370	0.250	-0.520	-0.340
2020/01/31 20:24:58.2	6.370	0.220	-0.470	-0.330
2020/01/31 20:24:58.3	6.360	0.180	-0.410	-0.310
2020/01/31 20:24:58.4	6.360	0.150	-0.360	-0.300
2020/01/31 20:24:58.5	6.350	0.110	-0.300	-0.280
2020/01/31 20:24:58.6	6.340	0.070	-0.250	-0.270
2020/01/31 20:24:58.7	6.330	0.020	-0.190	-0.260
2020/01/31 20:24:58.8	6.320	-0.020	-0.140	-0.240
2020/01/31 20:24:58.9	6.300	-0.060	-0.090	-0.230
2020/01/31 20:24:59.0	6.290	-0.110	-0.040	-0.230
2020/01/31 20:24:59.1	6.270	-0.150	0.010	-0.220
2020/01/31 20:24:59.2	6.260	-0.190	0.050	-0.220
2020/01/31 20:24:59.3	6.240	-0.240	0.090	-0.220
2020/01/31 20:24:59.4	6.230	-0.280	0.120	-0.220
2020/01/31 20:24:59.5	6.210	-0.310	0.150	-0.230
2020/01/31 20:24:59.6	6.200	-0.350	0.170	-0.240
2020/01/31 20:24:59.7	6.190	-0.390	0.190	-0.250
2020/01/31 20:24:59.8	6.180	-0.420	0.200	-0.270
2020/01/31 20:24:59.9	6.170	-0.450	0.200	-0.300
2020/01/31 20:25:00.0	6.160	-0.470	0.200	-0.320
2020/01/31 20:25:00.1	6.150	-0.490	0.190	-0.340
2020/01/31 20:25:00.2	6.140	-0.510	0.180	-0.370
2020/01/31 20:25:00.3	6.140	-0.520	0.160	-0.400
2020/01/31 20:25:00.4	6.140	-0.530	0.130	-0.430
2020/01/31 20:25:00.5	6.140	-0.530	0.100	-0.460
2020/01/31 20:25:00.6	6.140	-0.530	0.060	-0.500
2020/01/31 20:25:00.7	6.140	-0.520	0.020	-0.530
2020/01/31 20:25:00.8	6.150	-0.500	-0.030	-0.570
2020/01/31 20:25:00.9	6.170	-0.490	-0.080	-0.600
2020/01/31 20:25:01.0	6.180	-0.470	-0.130	-0.640
2020/01/31 20:25:01.1	6.190	-0.440	-0.190	-0.670
2020/01/31 20:25:01.2	6.200	-0.410	-0.240	-0.710
2020/01/31 20:25:01.3	6.220	-0.370	-0.300	-0.740
2020/01/31 20:25:01.4	6.230	-0.330	-0.360	-0.770
2020/01/31 20:25:01.5	6.250	-0.290	-0.410	-0.790
2020/01/31 20:25:01.6	6.260	-0.250	-0.470	-0.820
2020/01/31 20:25:01.7	6.270	-0.200	-0.520	-0.840
2020/01/31 20:25:01.8	6.280	-0.150	-0.570	-0.850
2020/01/31 20:25:01.9	6.290	-0.100	-0.610	-0.860
2020/01/31 20:25:02.0	6.300	-0.050	-0.650	-0.870
2020/01/31 20:25:02.1	6.300	-0.000	-0.680	-0.870
2020/01/31 20:25:02.2	6.300	0.050	-0.710	-0.870
2020/01/31 20:25:02.3	6.300	0.100	-0.730	-0.860
2020/01/31 20:25:02.4	6.300	0.150	-0.740	-0.850
2020/01/31 20:25:02.5	6.290	0.200	-0.750	-0.830
2020/01/31 20:25:02.6	6.280	0.240	-0.760	-0.810
2020/01/31 20:25:02.7	6.270	0.280	-0.750	-0.790
2020/01/31 20:25:02.8	6.260	0.320	-0.740	-0.760
2020/01/31 20:25:02.9	6.240	0.360	-0.730	-0.720
2020/01/31 20:25:03.0	6.220	0.390	-0.710	-0.690
2020/01/31 20:25:03.1	6.200	0.410	-0.690	-0.650
2020/01/31 20:25:03.2	6.180	0.440	-0.660	-0.610
2020/01/31 20:25:03.3	6.160	0.460	-0.630	-0.570
2020/01/31 20:25:03.4	6.140	0.470	-0.600	-0.530
2020/01/31 20:25:03.5	6.120	0.480	-0.560	-0.490
2020/01/31 20:25:03.6	6.100	0.490	-0.530	-0.440
2020/01/31 20:25:03.7	6.080	0.490	-0.490	-0.400
2020/01/31 20:25:03.8	6.070	0.490	-0.450	-0.350
2020/01/31 20:25:03.9	6.060	0.490	-0.410	-0.310
2020/01/31 20:25:04.0	6.050	0.480	-0.370	-0.270
2020/01/31 20:25:04.1	6.030	0.470	-0.340	-0.230
2020/01/31 20:25:04.2	6.020	0.460	-0.300	-0.190
2020/01/31 20:25:04.3	6.020	0.440	-0.270	-0.150
2020/01/31 20:25:04.4	6.010	0.420	-0.240	-0.120
2020/01/31 20:25:04.5	6.010	0.400	-0.210	-0.080
2020/01/31 20:25:04.6	6.010	0.380	-0.180	-0.050
2020/01/31 20:25:04.7	6.020	0.360	-0.160	-0.030
2020/01/31 20:25:04.8	6.030	0.330	-0.140	-0.000
2020/01/31 20:25:04.9	6.050	0.310	-0.120	0.020
2020/01/31 20:25:05.0	6.070	0.280	-0.110	0.040
2020/01/31 20:25:05.1	6.080	0.260	-0.100	0.050
2020/01/31 20:25:05.2	6.100	0.240	-0.090	0.060
2020/01/31 20:25:05.3	6.120	0.210	-0.080	0.070
2020/01/31 20:25:05.4	6.150	0.190	-0.070	0.080
2020/01/31 20:25:05.5	6.170	0.170	-0.070	0.080
2020/01/31 20:25:05.6	6.200	0.140	-0.070	0.080
2020/01/31 20:25:05.7	6.220	0.120	-0.060	0.080
2020/01/31 20:25:05.8	6.250	0.100	-0.060	0.070
2020/01/31 20:25:05.9	6.260	0.080	-0.060	0.060
2020/01/31 20:25:06.0	6.280	0.060	-0.060	0.050
2020/01/31 20:25:06.1	6.310	0.040	-0.050	0.040
2020/01/31 20:25:06.2	6.330	0.030	-0.050	0.030
2020/01/31 20:25:06.3	6.350	0.010	-0.050	0.020
2020/01/31 20:25:06.4	6.370	-0.010	-0.040	0.010
2020/01/31 20:25:06.5	6.390	-0.030	-0.030	0.000
2020/01/31 20:25:06.6	6.410	-0.040	-0.020	-0.000
2020/01/31 20:25:06.7	6.420	-0.060	-0.010	-0.010
2020/01/31 20:25:06.8	6.430	-0.080	-0.000	-0.020
2020/01/31 20:25:06.9	6.450	-0.100	0.010	-0.030
2020/01/31 20:25:07.0	6.460	-0.110	0.020	-0.030
2020/01/31 20:25:07.1	6.460	-0.130	0.040	-0.040
2020/01/31 20:25:07.2	6.470	-0.150	0.050	-0.040
2020/01/31 20:25:07.3	6.470	-0.170	0.060	-0.050
2020/01/31 20:25:07.4	6.470	-0.190	0.080	-0.050
2020/01/31 20:25:07.5	6.470	-0.210	0.090	-0.050
2020/01/31 20:25:07.6	6.470	-0.230	0.100	-0.050
2020/01/31 20:25:07.7	6.460	-0.260	0.110	-0.050
2020/01/31 20:25:07.8	6.460	-0.280	0.120	-0.050
2020/01/31 20:25:07.9	6.460	-0.300	0.130	-0.050
2020/01/31 20:25:08.0	6.450	-0.320	0.140	-0.050
2020/01/31 20:25:08.1	6.440	-0.340	0.140	-0.060
2020/01/31 20:25:08.2	6.430	-0.360	0.140	-0.060
2020/01/31 20:25:08.3	6.430	-0.390	0.130	-0.060
2020/01/31 20:25:08.4	6.420	-0.410	0.130	-0.060
2020/01/31 20:25:08.5	6.410	-0.420	0.120	-0.070
2020/01/31 20:25:08.6	6.400	-0.440	0.100	-0.080
2020/01/31 20:25:08.7	6.390	-0.460	0.090	-0.090
2020/01/31 20:25:08.8	6.380	-0.470	0.060	-0.090
2020/01/31 20:25:08.9	6.380	-0.490	0.040	-0.110
2020/01/31 20:25:09.0	6.370	-0.500	0.010	-0.120
2020/01/31 20:25:09.1	6.360	-0.500	-0.020	-0.130
2020/01/31 20:25:09.2	6.350	-0.510	-0.050	-0.150
2020/01/31 20:25:09.3	6.350	-0.510	-0.090	-0.170
2020/01/31 20:25:09.4	6.340	-0.510	-0.120	-0.180
2020/01/31 20:25:09.5	6.330	-0.510	-0.160	-0.200
2020/01/31 20:25:09.6	6.330	-0.500	-0.210	-0.220
2020/01/31 20:25:09.7	6.320	-0.490	-0.250	-0.240
2020/01/31 20:25:09.8	6.310	-0.480	-0.290	-0.260
2020/01/31 20:25:09.9	6.300	-0.460	-0.330	-0.280
2020/01/31 20:25:10.0	6.300	-0.440	-0.380	-0.300
2020/01/31 20:25:10.1	6.290	-0.420	-0.420	-0.320
2020/01/31 20:25:10.2	6.290	-0.400	-0.460	-0.340
2020/01/31 20:25:10.3	6.290	-0.370	-0.500	-0.360
2020/01/31 20:25:10.4	6.290	-0.340	-0.540	-0.380
2020/01/31 20:25:10.5	6.290	-0.300	-0.580	-0.400
2020/01/31 20:25:10.6	6.290	-0.270	-0.610	-0.420
2020/01/31 20:25:10.7	6.290	-0.230	-0.650	-0.440
2020/01/31 20:25:10.8	6.300	-0.190	-0.680	-0.460
2020/01/31 20:25:10.9	6.290	-0.150	-0.700	-0.480
2020/01/31 20:25:11.0	6.300	-0.110	-0.730	-0.500
2020/01/31 20:25:11.1	6.310	-0.070	-0.750	-0.520
2020/01/31 20:25:11.2	6.330	-0.030	-0.760	-0.540
2020/01/31 20:25:11.3	6.340	0.010	-0.780	-0.560
2020/01/31 20:25:11.4	6.360	0.050	-0.790	-0.580
2020/01/31 20:25:11.5	6.380	0.090	-0.790	-0.600
2020/01/31 20:25:11.6	6.390	0.130	-0.790	-0.620
2020/01/31 20:25:11.7	6.410	0.170	-0.790	-0.640
2020/01/31 20:25:11.8	6.430	0.210	-0.780	-0.650
2020/01/31 20:25:11.9	6.470	0.240	-0.770	-0.670
2020/01/31 20:25:12.0	6.480	0.270	-0.760	-0.680
2020/01/31 20:25:12.1	6.500	0.300	-0.740	-0.680
2020/01/31 20:25:12.2	6.520	0.320	-0.710	-0.690
2020/01/31 20:25:12.3	6.540	0.340	-0.680	-0.690
2020/01/31 20:25:12.4	6.550	0.360	-0.650	-0.680
2020/01/31 20:25:12.5	6.560	0.380	-0.610	-0.670
2020/01/31 20:25:12.6	6.570	0.390	-0.570	-0.660
2020/01/31 20:25:12.7	6.580	0.400	-0.530	-0.640
2020/01/31 20:25:12.8	6.590	0.410	-0.480	-0.620
2020/01/31 20:25:12.9	6.590	0.410	-0.430	-0.600
2020/01/31 20:25:13.0	6.590	0.410	-0.370	-0.570
2020/01/31 20:25:13.1	6.590	0.400	-0.310	-0.540
2020/01/31 20:25:13.2	6.590	0.400	-0.260	-0.500
2020/01/31 20:25:13.3	6.580	0.390	-0.200	-0.470
2020/01/31 20:25:13.4	6.570	0.370	-0.130	-0.420
2020/01/31 20:25:13.5	6.560	0.360	-0.070	-0.380
2020/01/31 20:25:13.6	6.550	0.340	-0.010	-0.340
2020/01/31 20:25:13.7	6.540	0.330	0.050	-0.290
2020/01/31 20:25:13.8	6.520	0.310	0.110	-0.240
2020/01/31 20:25:13.9	6.500	0.280	0.160	-0.190
2020/01/31 20:25:14.0	6.490	0.260	0.210	-0.150
2020/01/31 20:25:14.1	6.470	0.240	0.260	-0.100
2020/01/31 20:25:14.2	6.460	0.220	0.310	-0.050
2020/01/31 20:25:14.3	6.440	0.200	0.340	-0.010
2020/01/31 20:25:14.4	6.420	0.180	0.380	0.030
2020/01/31 20:25:14.5	6.410	0.150	0.410	0.080
2020/01/31 20:25:14.6	6.390	0.130	0.430	0.120
2020/01/31 20:25:14.7	6.370	0.110	0.450	0.160
2020/01/31 20:25:14.8	6.350	0.100	0.460	0.190
2020/01/31 20:25:14.9	6.340	0.080	0.460	0.230
2020/01/31 20:25:15.0	6.320	0.060	0.460	0.260
2020/01/31 20:25:15.1	6.300	0.050	0.450	0.290
2020/01/31 20:25:15.2	6.280	0.040	0.430	0.310
2020/01/31 20:25:15.3	6.270	0.030	0.410	0.330
2020/01/31 20:25:15.4	6.250	0.020	0.380	0.350
2020/01/31 20:25:15.5	6.240	0.010	0.350	0.370
2020/01/31 20:25:15.6	6.220	0.010	0.310	0.380
2020/01/31 20:25:15.7	6.210	0.000	0.260	0.380
2020/01/31 20:25:15.8	6.190	0.000	0.210	0.390
2020/01/31 20:25:15.9	6.180	0.000	0.150	0.380
2020/01/31 20:25:16.0	6.170	0.000	0.090	0.380
2020/01/31 20:25:16.1	6.160	0.000	0.030	0.370
2020/01/31 20:25:16.2	6.150	0.010	-0.040	0.360
2020/01/31 20:25:16.3	6.140	0.020	-0.110	0.340
2020/01/31 20:25:16.4	6.130	0.020	-0.180	0.320
2020/01/31 20:25:16.5	6.130	0.030	-0.260	0.290
2020/01/31 20:25:16.6	6.130	0.040	-0.340	0.260
2020/01/31 20:25:16.7	6.130	0.050	-0.420	0.230
2020/01/31 20:25:16.8	6.130	0.060	-0.490	0.200
2020/01/31 20:25:16.9	6.140	0.070	-0.570	0.160
2020/01/31 20:25:17.0	6.150	0.080	-0.650	0.120
2020/01/31 20:25:17.1	6.170	0.100	-0.720	0.070
2020/01/31 20:25:17.2	6.180	0.110	-0.790	0.030
2020/01/31 20:25:17.3	6.200	0.120	-0.860	-0.020
2020/01/31 20:25:17.4	6.220	0.130	-0.930	-0.070
2020/01/31 20:25:17.5	6.250	0.140	-0.990	-0.120
2020/01/31 20:25:17.6	6.280	0.150	-1.050	-0.170
2020/01/31 20:25:17.7	6.310	0.160	-1.100	-0.230
2020/01/31 20:25:17.8	6.350	0.170	-1.150	-0.280
2020/01/31 20:25:17.9	6.370	0.180	-1.190	-0.340
2020/01/31 20:25:18.0	6.410	0.180	-1.230	-0.390
2020/01/31 20:25:18.1	6.450	0.190	-1.260	-0.440
2020/01/31 20:25:18.2	6.490	0.190	-1.280	-0.490
2020/01/31 20:25:18.3	6.530	0.200	-1.300	-0.540
2020/01/31 20:25:18.4	6.580	0.200	-1.310	-0.580
2020/01/31 20:25:18.5	6.620	0.190	-1.320	-0.630
2020/01/31 20:25:18.6	6.660	0.190	-1.310	-0.670
2020/01/31 20:25:18.7	6.700	0.180	-1.300	-0.700
2020/01/31 20:25:18.8	6.740	0.170	-1.280	-0.740
2020/01/31 20:25:18.9	6.770	0.160	-1.250	-0.770
2020/01/31 20:25:19.0	6.810	0.150	-1.220	-0.800
2020/01/31 20:25:19.1	6.840	0.130	-1.170	-0.820
2020/01/31 20:25:19.2	6.870	0.120	-1.120	-0.850
2020/01/31 20:25:19.3	6.900	0.100	-1.070	-0.860
2020/01/31 20:25:19.4	6.920	0.070	-1.000	-0.880
2020/01/31 20:25:19.5	6.940	0.050	-0.930	-0.890
2020/01/31 20:25:19.6	6.970	0.020	-0.850	-0.910
2020/01/31 20:25:19.7	6.980	-0.010	-0.770	-0.910
2020/01/31 20:25:19.8	7.000	-0.040	-0.680	-0.920
2020/01/31 20:25:19.9	7.020	-0.070	-0.600	-0.920
2020/01/31 20:25:20.0	7.030	-0.100	-0.500	-0.920
2020/01/31 20:25:20.1	7.030	-0.130	-0.400	-0.910
2020/01/31 20:25:20.2	7.040	-0.160	-0.300	-0.900
2020/01/31 20:25:20.3	7.040	-0.200	-0.200	-0.890
2020/01/31 20:25:20.4	7.050	-0.230	-0.090	-0.880
2020/01/31 20:25:20.5	7.040	-0.260	0.010	-0.860
2020/01/31 20:25:20.6	7.040	-0.290	0.120	-0.840
2020/01/31 20:25:20.7	7.040	-0.320	0.220	-0.820
2020/01/31 20:25:20.8	7.030	-0.350	0.320	-0.790
2020/01/31 20:25:20.9	7.030	-0.380	0.420	-0.770
2020/01/31 20:25:21.0	7.010	-0.410	0.520	-0.740
2020/01/31 20:25:21.1	7.000	-0.440	0.610	-0.710
2020/01/31 20:25:21.2	6.990	-0.460	0.700	-0.680
2020/01/31 20:25:21.3	6.970	-0.490	0.780	-0.650
2020/01/31 20:25:21.4	6.950	-0.510	0.850	-0.620
2020/01/31 20:25:21.5	6.930	-0.530	0.920	-0.590
2020/01/31 20:25:21.6	6.910	-0.540	0.980	-0.560
2020/01/31 20:25:21.7	6.890	-0.560	1.030	-0.530
2020/01/31 20:25:21.8	6.870	-0.570	1.080	-0.500
2020/01/31 20:25:21.9	6.850	-0.570	1.110	-0.470
2020/01/31 20:25:22.0	6.830	-0.580	1.140	-0.440
2020/01/31 20:25:22.1	6.810	-0.580	1.150	-0.410
2020/01/31 20:25:22.2	6.790	-0.580	1.160	-0.390
2020/01/31 20:25:22.3	6.770	-0.570	1.160	-0.370
2020/01/31 20:25:22.4	6.750	-0.570	1.150	-0.350
2020/01/31 20:25:22.5	6.730	-0.550	1.130	-0.330
2020/01/31 20:25:22.6	6.710	-0.540	1.100	-0.310
2020/01/31 20:25:22.7	6.690	-0.520	1.070	-0.290
2020/01/31 20:25:22.8	6.680	-0.500	1.020	-0.270
2020/01/31 20:25:22.9	6.650	-0.470	0.970	-0.260
2020/01/31 20:25:23.0	6.630	-0.440	0.910	-0.240
2020/01/31 20:25:23.1	6.610	-0.410	0.840	-0.230
2020/01/31 20:25:23.2	6.600	-0.380	0.770	-0.210
2020/01/31 20:25:23.3	6.580	-0.340	0.690	-0.200
2020/01/31 20:25:23.4	6.560	-0.310	0.610	-0.180
2020/01/31 20:25:23.5	6.550	-0.270	0.520	-0.160
2020/01/31 20:25:23.6	6.530	-0.220	0.430	-0.150
2020/01/31 20:25:23.7	6.510	-0.180	0.340	-0.130
2020/01/31 20:25:23.8	6.500	-0.140	0.240	-0.120
2020/01/31 20:25:23.9	6.490	-0.090	0.140	-0.100
2020/01/31 20:25:24.0	6.470	-0.050	0.040	-0.090
2020/01/31 20:25:24.1	6.460	0.000	-0.060	-0.070
2020/01/31 20:25:24.2	6.440	0.040	-0.170	-0.060
2020/01/31 20:25:24.3	6.420	0.090	-0.270	-0.050
2020/01/31 20:25:24.4	6.410	0.130	-0.370	-0.040
2020/01/31 20:25:24.5	6.400	0.170	-0.470	-0.040
2020/01/31 20:25:24.6	6.380	0.210	-0.570	-0.030
2020/01/31 20:25:24.7	6.370	0.250	-0.670	-0.030
2020/01/31 20:25:24.8	6.360	0.290	-0.760	-0.030
2020/01/31 20:25:24.9	6.340	0.320	-0.850	-0.030
2020/01/31 20:25:25.0	6.330	0.350	-0.940	-0.040
2020/01/31 20:25:25.1	6.330	0.380	-1.020	-0.050
2020/01/31 20:25:25.2	6.320	0.410	-1.100	-0.060
2020/01/31 20:25:25.3	6.310	0.430	-1.170	-0.070
2020/01/31 20:25:25.4	6.310	0.450	-1.240	-0.080
2020/01/31 20:25:25.5	6.300	0.470	-1.300	-0.100
2020/01/31 20:25:25.6	6.300	0.480	-1.350	-0.120
2020/01/31 20:25:25.7	6.300	0.490	-1.400	-0.140
2020/01/31 20:25:25.8	6.300	0.500	-1.440	-0.160
2020/01/31 20:25:25.9	6.310	0.510	-1.470	-0.190
2020/01/31 20:25:26.0	6.310	0.510	-1.500	-0.210
2020/01/31 20:25:26.1	6.310	0.510	-1.520	-0.230
2020/01/31 20:25:26.2	6.320	0.510	-1.530	-0.250
2020/01/31 20:25:26.3	6.320	0.510	-1.530	-0.280
2020/01/31 20:25:26.4	6.330	0.500	-1.530	-0.300
2020/01/31 20:25:26.5	6.340	0.500	-1.510	-0.320
2020/01/31 20:25:26.6	6.350	0.490	-1.500	-0.340
2020/01/31 20:25:26.7	6.360	0.480	-1.470	-0.360
2020/01/31 20:25:26.8	6.370	0.460	-1.440	-0.390
2020/01/31 20:25:26.9	6.380	0.450	-1.400	-0.410
2020/01/31 20:25:27.0	6.400	0.440	-1.350	-0.430
2020/01/31 20:25:27.1	6.410	0.420	-1.300	-0.450
2020/01/31 20:25:27.2	6.430	0.410	-1.250	-0.460
2020/01/31 20:25:27.3	6.440	0.390	-1.190	-0.480
2020/01/31 20:25:27.4	6.460	0.380	-1.120	-0.500
2020/01/31 20:25:27.5	6.470	0.360	-1.050	-0.520
2020/01/31 20:25:27.6	6.480	0.340	-0.970	-0.530
2020/01/31 20:25:27.7	6.500	0.320	-0.900	-0.540
2020/01/31 20:25:27.8	6.510	0.310	-0.810	-0.560
2020/01/31 20:25:27.9	6.520	0.290	-0.730	-0.570
2020/01/31 20:25:28.0	6.530	0.270	-0.640	-0.570
2020/01/31 20:25:28.1	6.540	0.250	-0.560	-0.580
2020/01/31 20:25:28.2	6.540	0.230	-0.470	-0.590
2020/01/31 20:25:28.3	6.550	0.210	-0.380	-0.590
2020/01/31 20:25:28.4	6.550	0.180	-0.290	-0.590
2020/01/31 20:25:28.5	6.560	0.160	-0.200	-0.590
2020/01/31 20:25:28.6	6.560	0.140	-0.110	-0.590
2020/01/31 20:25:28.7	6.560	0.120	-0.020	-0.590
2020/01/31 20:25:28.8	6.560	0.090	0.060	-0.590
2020/01/31 20:25:28.9	6.550	0.070	0.140	-0.590
2020/01/31 20:25:29.0	6.550	0.040	0.210	-0.590
2020/01/31 20:25:29.1	6.550	0.020	0.280	-0.580
2020/01/31 20:25:29.2	6.550	-0.010	0.350	-0.580
2020/01/31 20:25:29.3	6.560	-0.030	0.410	-0.580
2020/01/31 20:25:29.4	6.560	-0.060	0.460	-0.570
2020/01/31 20:25:29.5	6.570	-0.080	0.510	-0.570
2020/01/31 20:25:29.6	6.580	-0.110	0.550	-0.570
2020/01/31 20:25:29.7	6.590	-0.130	0.580	-0.560
2020/01/31 20:25:29.8	6.600	-0.150	0.610	-0.560
2020/01/31 20:25:29.9	6.630	-0.180	0.620	-0.560
2020/01/31 20:25:30.0	6.640	-0.200	0.630	-0.560
2020/01/31 20:25:30.1	6.660	-0.220	0.630	-0.560
2020/01/31 20:25:30.2	6.680	-0.230	0.620	-0.560
2020/01/31 20:25:30.3	6.700	-0.250	0.610	-0.560
2020/01/31 20:25:30.4	6.720	-0.260	0.580	-0.560
2020/01/31 20:25:30.5	6.750	-0.280	0.550	-0.560
2020/01/31 20:25:30.6	6.770	-0.290	0.520	-0.550
2020/01/31 20:25:30.7	6.790	-0.300	0.480	-0.550
2020/01/31 20:25:30.8	6.810	-0.310	0.430	-0.540
2020/01/31 20:25:30.9	6.830	-0.310	0.380	-0.530
2020/01/31 20:25:31.0	6.850	-0.320	0.320	-0.530
2020/01/31 20:25:31.1	6.870	-0.320	0.270	-0.520
2020/01/31 20:25:31.2	6.890	-0.320	0.210	-0.500
2020/01/31 20:25:31.3	6.900	-0.330	0.160	-0.490
2020/01/31 20:25:31.4	6.920	-0.320	0.100	-0.480
2020/01/31 20:25:31.5	6.930	-0.320	0.040	-0.460
2020/01/31 20:25:31.6	6.940	-0.320	-0.010	-0.450
2020/01/31 20:25:31.7	6.950	-0.320	-0.060	-0.430
2020/01/31 20:25:31.8	6.960	-0.310	-0.110	-0.410
2020/01/31 20:25:31.9	6.970	-0.310	-0.150	-0.380
2020/01/31 20:25:32.0	6.970	-0.300	-0.190	-0.360
2020/01/31 20:25:32.1	6.970	-0.290	-0.220	-0.330
2020/01/31 20:25:32.2	6.970	-0.290	-0.250	-0.290
2020/01/31 20:25:32.3	6.970	-0.280	-0.280	-0.260
2020/01/31 20:25:32.4	6.960	-0.270	-0.300	-0.220
2020/01/31 20:25:32.5	6.950	-0.260	-0.310	-0.180
2020/01/31 20:25:32.6	6.930	-0.250	-0.320	-0.130
2020/01/31 20:25:32.7	6.920	-0.240	-0.320	-0.090
2020/01/31 20:25:32.8	6.900	-0.230	-0.320	-0.040
2020/01/31 20:25:32.9	6.880	-0.220	-0.320	0.010
2020/01/31 20:25:33.0	6.860	-0.200	-0.310	0.060
2020/01/31 20:25:33.1	6.830	-0.190	-0.300	0.110
2020/01/31 20:25:33.2	6.800	-0.180	-0.280	0.160
2020/01/31 20:25:33.3	6.770	-0.170	-0.260	0.210
2020/01/31 20:25:33.4	6.740	-0.160	-0.240	0.260
2020/01/31 20:25:33.5	6.710	-0.150	-0.220	0.310
2020/01/31 20:25:33.6	6.680	-0.140	-0.200	0.360
2020/01/31 20:25:33.7	6.650	-0.130	-0.170	0.400
2020/01/31 20:25:33.8	6.610	-0.120	-0.150	0.450
2020/01/31 20:25:33.9	6.590	-0.100	-0.130	0.490
2020/01/31 20:25:34.0	6.560	-0.090	-0.110	0.530
2020/01/31 20:25:34.1	6.530	-0.080	-0.100	0.570
2020/01/31 20:25:34.2	6.500	-0.070	-0.090	0.600
2020/01/31 20:25:34.3	6.470	-0.060	-0.080	0.630
2020/01/31 20:25:34.4	6.450	-0.040	-0.070	0.650
2020/01/31 20:25:34.5	6.420	-0.030	-0.070	0.670
2020/01/31 20:25:34.6	6.400	-0.020	-0.070	0.680
2020/01/31 20:25:34.7	6.380	-0.000	-0.080	0.680
2020/01/31 20:25:34.8	6.360	0.010	-0.090	0.690
2020/01/31 20:25:34.9	6.350	0.020	-0.100	0.680
2020/01/31 20:25:35.0	6.340	0.040	-0.120	0.670
2020/01/31 20:25:35.1	6.330	0.050	-0.140	0.660
2020/01/31 20:25:35.2	6.320	0.070	-0.160	0.640
2020/01/31 20:25:35.3	6.310	0.080	-0.190	0.610
2020/01/31 20:25:35.4	6.310	0.100	-0.220	0.580
2020/01/31 20:25:35.5	6.300	0.110	-0.250	0.550
2020/01/31 20:25:35.6	6.300	0.130	-0.280	0.520
2020/01/31 20:25:35.7	6.300	0.140	-0.310	0.480
2020/01/31 20:25:35.8	6.300	0.150	-0.340	0.430
2020/01/31 20:25:35.9	6.310	0.160	-0.370	0.380
2020/01/31 20:25:36.0	6.310	0.170	-0.410	0.330
2020/01/31 20:25:36.1	6.320	0.180	-0.440	0.280
2020/01/31 20:25:36.2	6.330	0.190	-0.470	0.230
2020/01/31 20:25:36.3	6.340	0.200	-0.500	0.170
2020/01/31 20:25:36.4	6.350	0.210	-0.530	0.120
2020/01/31 20:25:36.5	6.360	0.210	-0.550	0.060
2020/01/31 20:25:36.6	6.380	0.220	-0.580	-0.000
2020/01/31 20:25:36.7	6.390	0.220	-0.600	-0.060
2020/01/31 20:25:36.8	6.410	0.220	-0.620	-0.120
2020/01/31 20:25:36.9	6.430	0.220	-0.640	-0.190
2020/01/31 20:25:37.0	6.450	0.220	-0.660	-0.250
2020/01/31 20:25:37.1	6.470	0.220	-0.680	-0.310
2020/01/31 20:25:37.2	6.490	0.220	-0.690	-0.370
2020/01/31 20:25:37.3	6.510	0.210	-0.700	-0.420
2020/01/31 20:25:37.4	6.530	0.200	-0.710	-0.480
2020/01/31 20:25:37.5	6.550	0.200	-0.720	-0.540
2020/01/31 20:25:37.6	6.580	0.190	-0.730	-0.590
2020/01/31 20:25:37.7	6.600	0.180	-0.730	-0.640
2020/01/31 20:25:37.8	6.620	0.170	-0.730	-0.680
2020/01/31 20:25:37.9	6.630	0.160	-0.740	-0.730
2020/01/31 20:25:38.0	6.650	0.150	-0.740	-0.770
2020/01/31 20:25:38.1	6.670	0.140	-0.740	-0.810
2020/01/31 20:25:38.2	6.690	0.130	-0.730	-0.850
2020/01/31 20:25:38.3	6.700	0.120	-0.730	-0.880
2020/01/31 20:25:38.4	6.720	0.100	-0.720	-0.910
2020/01/31 20:25:38.5	6.740	0.090	-0.710	-0.930
2020/01/31 20:25:38.6	6.750	0.080	-0.700	-0.960
2020/01/31 20:25:38.7	6.770	0.070	-0.690	-0.980
2020/01/31 20:25:38.8	6.790	0.060	-0.670	-0.990
2020/01/31 20:25:38.9	6.800	0.050	-0.660	-1.000
2020/01/31 20:25:39.0	6.820	0.050	-0.640	-1.010
2020/01/31 20:25:39.1	6.830	0.040	-0.630	-1.020
2020/01/31 20:25:39.2	6.850	0.040	-0.610	-1.030
2020/01/31 20:25:39.3	6.870	0.030	-0.590	-1.030
2020/01/31 20:25:39.4	6.880	0.030	-0.570	-1.030
2020/01/31 20:25:39.5	6.900	0.030	-0.540	-1.030
2020/01/31 20:25:39.6	6.920	0.030	-0.520	-1.020
2020/01/31 20:25:39.7	6.940	0.030	-0.500	-1.010
2020/01/31 20:25:39.8	6.950	0.040	-0.470	-1.000
2020/01/31 20:25:39.9	6.970	0.040	-0.440	-0.980
2020/01/31 20:25:40.0	6.980	0.050	-0.410	-0.960
2020/01/31 20:25:40.1	7.000	0.060	-0.380	-0.940
2020/01/31 20:25:40.2	7.010	0.070	-0.340	-0.910
2020/01/31 20:25:40.3	7.020	0.080	-0.300	-0.880
2020/01/31 20:25:40.4	7.030	0.090	-0.260	-0.840
2020/01/31 20:25:40.5	7.040	0.100	-0.220	-0.790
2020/01/31 20:25:40.6	7.040	0.120	-0.170	-0.750
2020/01/31 20:25:40.7	7.050	0.130	-0.120	-0.700
2020/01/31 20:25:40.8	7.050	0.140	-0.070	-0.640
2020/01/31 20:25:40.9	7.040	0.160	-0.020	-0.580
2020/01/31 20:25:41.0	7.030	0.170	0.030	-0.520
2020/01/31 20:25:41.1	7.030	0.180	0.090	-0.460
2020/01/31 20:25:41.2	7.020	0.190	0.140	-0.390
2020/01/31 20:25:41.3	7.010	0.200	0.200	-0.330
2020/01/31 20:25:41.4	7.000	0.210	0.260	-0.260
2020/01/31 20:25:41.5	6.990	0.220	0.310	-0.190
2020/01/31 20:25:41.6	6.970	0.230	0.360	-0.130
2020/01/31 20:25:41.7	6.950	0.230	0.420	-0.060
2020/01/31 20:25:41.8	6.940	0.240	0.470	0.010
2020/01/31 20:25:41.9	6.920	0.240	0.510	0.070
2020/01/31 20:25:42.0	6.900	0.240	0.550	0.140
2020/01/31 20:25:42.1	6.890	0.240	0.590	0.200
2020/01/31 20:25:42.2	6.870	0.230	0.620	0.250
2020/01/31 20:25:42.3	6.850	0.230	0.640	0.310
2020/01/31 20:25:42.4	6.830	0.220	0.660	0.360
2020/01/31 20:25:42.5	6.810	0.210	0.670	0.400
2020/01/31 20:25:42.6	6.790	0.200	0.670	0.440
2020/01/31 20:25:42.7	6.770	0.190	0.660	0.480
2020/01/31 20:25:42.8	6.760	0.180	0.650	0.510
2020/01/31 20:25:42.9	6.740	0.160	0.630	0.540
2020/01/31 20:25:43.0	6.730	0.150	0.600	0.560
2020/01/31 20:25:43.1	6.710	0.130	0.560	0.570
2020/01/31 20:25:43.2	6.700	0.110	0.510	0.580
2020/01/31 20:25:43.3	6.690	0.090	0.460	0.590
2020/01/31 20:25:43.4	6.680	0.070	0.400	0.580
2020/01/31 20:25:43.5	6.680	0.050	0.340	0.570
2020/01/31 20:25:43.6	6.680	0.030	0.270	0.550
2020/01/31 20:25:43.7	6.670	0.000	0.190	0.530
2020/01/31 20:25:43.8	6.670	-0.020	0.120	0.490
2020/01/31 20:25:43.9	6.680	-0.050	0.030	0.460
2020/01/31 20:25:44.0	6.680	-0.080	-0.050	0.410
2020/01/31 20:25:44.1	6.690	-0.110	-0.140	0.360
2020/01/31 20:25:44.2	6.700	-0.130	-0.230	0.300
2020/01/31 20:25:44.3	6.710	-0.160	-0.310	0.230
2020/01/31 20:25:44.4	6.720	-0.190	-0.400	0.160
2020/01/31 20:25:44.5	6.740	-0.220	-0.480	0.090
2020/01/31 20:25:44.6	6.750	-0.250	-0.570	0.010
2020/01/31 20:25:44.7	6.770	-0.280	-0.640	-0.070
2020/01/31 20:25:44.8	6.790	-0.310	-0.720	-0.150
2020/01/31 20:25:44.9	6.800	-0.340	-0.790	-0.240
2020/01/31 20:25:45.0	6.820	-0.370	-0.850	-0.320
2020/01/31 20:25:45.1	6.840	-0.400	-0.900	-0.410
2020/01/31 20:25:45.2	6.860	-0.430	-0.950	-0.490
2020/01/31 20:25:45.3	6.870	-0.450	-0.990	-0.570
2020/01/31 20:25:45.4	6.890	-0.480	-1.020	-0.650
2020/01/31 20:25:45.5	6.910	-0.500	-1.040	-0.720
2020/01/31 20:25:45.6	6.920	-0.530	-1.050	-0.800
2020/01/31 20:25:45.7	6.940	-0.550	-1.050	-0.860
2020/01/31 20:25:45.8	6.960	-0.570	-1.040	-0.930
2020/01/31 20:25:45.9	6.980	-0.590	-1.030	-1.000
2020/01/31 20:25:46.0	6.990	-0.610	-1.010	-1.050
2020/01/31 20:25:46.1	7.010	-0.620	-0.970	-1.100
2020/01/31 20:25:46.2	7.020	-0.630	-0.940	-1.150
2020/01/31 20:25:46.3	7.030	-0.640	-0.890	-1.180
2020/01/31 20:25:46.4	7.040	-0.650	-0.840	-1.220
2020/01/31 20:25:46.5	7.050	-0.650	-0.790	-1.240
2020/01/31 20:25:46.6	7.060	-0.650	-0.730	-1.270
2020/01/31 20:25:46.7	7.070	-0.650	-0.670	-1.280
2020/01/31 20:25:46.8	7.070	-0.640	-0.600	-1.290
2020/01/31 20:25:46.9	7.080	-0.640	-0.540	-1.280
2020/01/31 20:25:47.0	7.080	-0.620	-0.480	-1.280
2020/01/31 20:25:47.1	7.090	-0.610	-0.410	-1.260
2020/01/31 20:25:47.2	7.090	-0.580	-0.350	-1.250
2020/01/31 20:25:47.3	7.090	-0.560	-0.290	-1.220
2020/01/31 20:25:47.4	7.090	-0.530	-0.240	-1.200
2020/01/31 20:25:47.5	7.090	-0.500	-0.180	-1.160
2020/01/31 20:25:47.6	7.080	-0.460	-0.140	-1.130
2020/01/31 20:25:47.7	7.080	-0.420	-0.090	-1.090
2020/01/31 20:25:47.8	7.080	-0.380	-0.060	-1.040
2020/01/31 20:25:47.9	7.080	-0.330	-0.030	-1.000
2020/01/31 20:25:48.0	7.070	-0.290	-0.010	-0.950
2020/01/31 20:25:48.1	7.070	-0.230	0.010	-0.900
2020/01/31 20:25:48.2	7.060	-0.180	0.020	-0.850
2020/01/31 20:25:48.3	7.060	-0.120	0.020	-0.790
2020/01/31 20:25:48.4	7.050	-0.060	0.020	-0.730
2020/01/31 20:25:48.5	7.040	0.000	0.010	-0.680
2020/01/31 20:25:48.6	7.030	0.060	-0.000	-0.620
2020/01/31 20:25:48.7	7.020	0.130	-0.020	-0.560
2020/01/31 20:25:48.8	7.010	0.190	-0.050	-0.490
2020/01/31 20:25:48.9	6.990	0.260	-0.070	-0.430
2020/01/31 20:25:49.0	6.980	0.320	-0.100	-0.370
2020/01/31 20:25:49.1	6.970	0.390	-0.140	-0.300
2020/01/31 20:25:49.2	6.950	0.450	-0.170	-0.240
2020/01/31 20:25:49.3	6.930	0.510	-0.210	-0.170
2020/01/31 20:25:49.4	6.920	0.570	-0.250	-0.110
2020/01/31 20:25:49.5	6.900	0.620	-0.290	-0.040
2020/01/31 20:25:49.6	6.880	0.670	-0.320	0.020
2020/01/31 20:25:49.7	6.860	0.720	-0.360	0.090
2020/01/31 20:25:49.8	6.830	0.770	-0.400	0.150
2020/01/31 20:25:49.9	6.830	0.810	-0.430	0.220
2020/01/31 20:25:50.0	6.800	0.850	-0.460	0.280
2020/01/31 20:25:50.1	6.780	0.880	-0.490	0.330
2020/01/31 20:25:50.2	6.760	0.910	-0.520	0.390
2020/01/31 20:25:50.3	6.740	0.930	-0.540	0.430
2020/01/31 20:25:50.4	6.720	0.950	-0.570	0.480
2020/01/31 20:25:50.5	6.700	0.960	-0.580	0.520
2020/01/31 20:25:50.6	6.680	0.970	-0.600	0.560
2020/01/31 20:25:50.7	6.670	0.970	-0.610	0.590
2020/01/31 20:25:50.8	6.650	0.970	-0.620	0.610
2020/01/31 20:25:50.9	6.640	0.960	-0.630	0.630
2020/01/31 20:25:51.0	6.630	0.950	-0.630	0.640
2020/01/31 20:25:51.1	6.630	0.930	-0.630	0.650
2020/01/31 20:25:51.2	6.620	0.910	-0.630	0.650
2020/01/31 20:25:51.3	6.620	0.890	-0.620	0.650
2020/01/31 20:25:51.4	6.630	0.860	-0.610	0.640
2020/01/31 20:25:51.5	6.630	0.830	-0.600	0.620
2020/01/31 20:25:51.6	6.640	0.800	-0.590	0.600
2020/01/31 20:25:51.7	6.650	0.760	-0.570	0.580
2020/01/31 20:25:51.8	6.670	0.720	-0.550	0.550
2020/01/31 20:25:51.9	6.680	0.680	-0.530	0.520
2020/01/31 20:25:52.0	6.700	0.630	-0.500	0.480
2020/01/31 20:25:52.1	6.720	0.590	-0.480	0.440
2020/01/31 20:25:52.2	6.740	0.540	-0.440	0.400
2020/01/31 20:25:52.3	6.770	0.490	-0.410	0.350
2020/01/31 20:25:52.4	6.790	0.440	-0.380	0.300
2020/01/31 20:25:52.5	6.820	0.390	-0.340	0.250
2020/01/31 20:25:52.6	6.850	0.340	-0.300	0.190
2020/01/31 20:25:52.7	6.880	0.290	-0.260	0.140
2020/01/31 20:25:52.8	6.900	0.240	-0.220	0.080
2020/01/31 20:25:52.9	6.920	0.190	-0.180	0.020
2020/01/31 20:25:53.0	6.950	0.140	-0.140	-0.040
2020/01/31 20:25:53.1	6.980	0.090	-0.100	-0.100
2020/01/31 20:25:53.2	7.000	0.040	-0.050	-0.150
2020/01/31 20:25:53.3	7.020	-0.010	-0.010	-0.210
2020/01/31 20:25:53.4	7.040	-0.060	0.030	-0.260
2020/01/31 20:25:53.5	7.060	-0.110	0.070	-0.310
2020/01/31 20:25:53.6	7.080	-0.160	0.120	-0.360
2020/01/31 20:25:53.7	7.090	-0.200	0.150	-0.410
2020/01/31 20:25:53.8	7.100	-0.250	0.190	-0.450
2020/01/31 20:25:53.9	7.120	-0.290	0.230	-0.490
2020/01/31 20:25:54.0	7.120	-0.340	0.260	-0.520
2020/01/31 20:25:54.1	7.130	-0.380	0.290	-0.560
2020/01/31 20:25:54.2	7.130	-0.420	0.320	-0.580
2020/01/31 20:25:54.3	7.120	-0.460	0.340	-0.610
2020/01/31 20:25:54.4	7.120	-0.490	0.360	-0.630
2020/01/31 20:25:54.5	7.110	-0.530	0.380	-0.650
2020/01/31 20:25:54.6	7.100	-0.560	0.390	-0.660
2020/01/31 20:25:54.7	7.090	-0.590	0.400	-0.680
2020/01/31 20:25:54.8	7.070	-0.620	0.410	-0.690
2020/01/31 20:25:54.9	7.050	-0.650	0.420	-0.690
2020/01/31 20:25:55.0	7.030	-0.670	0.420	-0.700
2020/01/31 20:25:55.1	7.010	-0.690	0.410	-0.700
2020/01/31 20:25:55.2	6.990	-0.710	0.410	-0.700
2020/01/31 20:25:55.3	6.970	-0.730	0.390	-0.700
2020/01/31 20:25:55.4	6.940	-0.740	0.380	-0.700
2020/01/31 20:25:55.5	6.920	-0.750	0.360	-0.700
2020/01/31 20:25:55.6	6.890	-0.760	0.340	-0.690
2020/01/31 20:25:55.7	6.860	-0.760	0.320	-0.690
2020/01/31 20:25:55.8	6.830	-0.760	0.290	-0.680
2020/01/31 20:25:55.9	6.800	-0.760	0.260	-0.660
2020/01/31 20:25:56.0	6.770	-0.760	0.230	-0.650
2020/01/31 20:25:56.1	6.750	-0.750	0.200	-0.630
2020/01/31 20:25:56.2	6.710	-0.740	0.170	-0.600
2020/01/31 20:25:56.3	6.680	-0.730	0.130	-0.580
2020/01/31 20:25:56.4	6.650	-0.710	0.100	-0.550
2020/01/31 20:25:56.5	6.620	-0.700	0.060	-0.510
2020/01/31 20:25:56.6	6.590	-0.680	0.030	-0.480
2020/01/31 20:25:56.7	6.550	-0.650	-0.000	-0.440
2020/01/31 20:25:56.8	6.520	-0.630	-0.040	-0.400
2020/01/31 20:25:56.9	6.500	-0.600	-0.070	-0.350
2020/01/31 20:25:57.0	6.470	-0.570	-0.100	-0.310
2020/01/31 20:25:57.1	6.440	-0.550	-0.140	-0.260
2020/01/31 20:25:57.2	6.400	-0.520	-0.170	-0.220
2020/01/31 20:25:57.3	6.370	-0.490	-0.200	-0.180
2020/01/31 20:25:57.4	6.340	-0.450	-0.230	-0.130
2020/01/31 20:25:57.5	6.310	-0.420	-0.250	-0.090
2020/01/31 20:25:57.6	6.280	-0.390	-0.280	-0.060
2020/01/31 20:25:57.7	6.250	-0.350	-0.310	-0.020
2020/01/31 20:25:57.8	6.230	-0.320	-0.340	0.010
2020/01/31 20:25:57.9	6.200	-0.290	-0.360	0.030
2020/01/31 20:25:58.0	6.180	-0.250	-0.390	0.060
2020/01/31 20:25:58.1	6.170	-0.220	-0.410	0.080
2020/01/31 20:25:58.2	6.160	-0.180	-0.440	0.090
2020/01/31 20:25:58.3	6.150	-0.150	-0.460	0.100
2020/01/31 20:25:58.4	6.140	-0.110	-0.490	0.110
2020/01/31 20:25:58.5	6.140	-0.080	-0.510	0.110
2020/01/31 20:25:58.6	6.140	-0.040	-0.540	0.110
2020/01/31 20:25:58.7	6.150	-0.010	-0.560	0.100
2020/01/31 20:25:58.8	6.160	0.020	-0.580	0.100
2020/01/31 20:25:58.9	6.170	0.060	-0.610	0.080
2020/01/31 20:25:59.0	6.190	0.090	-0.630	0.070
2020/01/31 20:25:59.1	6.210	0.130	-0.650	0.060
2020/01/31 20:25:59.2	6.240	0.160	-0.670	0.040
2020/01/31 20:25:59.3	6.270	0.200	-0.690	0.030
2020/01/31 20:25:59.4	6.290	0.230	-0.710	0.010
2020/01/31 20:25:59.5	6.330	0.260	-0.730	-0.000
2020/01/31 20:25:59.6	6.360	0.300	-0.750	-0.020
2020/01/31 20:25:59.7	6.390	0.330	-0.760	-0.030
2020/01/31 20:25:59.8	6.430	0.360	-0.770	-0.040
2020/01/31 20:25:59.9	6.460	0.390	-0.780	-0.060
2020/01/31 20:26:00.0	6.490	0.420	-0.790	-0.070
2020/01/31 20:26:00.1	6.530	0.440	-0.800	-0.070
2020/01/31 20:26:00.2	6.560	0.470	-0.800	-0.080
2020/01/31 20:26:00.3	6.600	0.490	-0.810	-0.080
2020/01/31 20:26:00.4	6.630	0.510	-0.810	-0.090
2020/01/31 20:26:00.5	6.660	0.530	-0.810	-0.090
2020/01/31 20:26:00.6	6.690	0.550	-0.800	-0.080
2020/01/31 20:26:00.7	6.710	0.570	-0.800	-0.080
2020/01/31 20:26:00.8	6.730	0.580	-0.790	-0.080
2020/01/31 20:26:00.9	6.770	0.600	-0.780	-0.070
2020/01/31 20:26:01.0	6.780	0.610	-0.770	-0.060
2020/01/31 20:26:01.1	6.800	0.610	-0.760	-0.050
2020/01/31 20:26:01.2	6.810	0.620	-0.750	-0.040
2020/01/31 20:26:01.3	6.820	0.620	-0.730	-0.030
2020/01/31 20:26:01.4	6.820	0.620	-0.710	-0.020
2020/01/31 20:26:01.5	6.820	0.620	-0.700	-0.010
2020/01/31 20:26:01.6	6.820	0.620	-0.680	0.000
2020/01/31 20:26:01.7	6.820	0.610	-0.650	0.020
2020/01/31 20:26:01.8	6.810	0.600	-0.630	0.030
2020/01/31 20:26:01.9	6.800	0.590	-0.610	0.040
2020/01/31 20:26:02.0	6.790	0.580	-0.590	0.050
2020/01/31 20:26:02.1	6.780	0.570	-0.560	0.060
2020/01/31 20:26:02.2	6.770	0.550	-0.540	0.070
2020/01/31 20:26:02.3	6.760	0.530	-0.510	0.080
2020/01/31 20:26:02.4	6.740	0.520	-0.480	0.090
2020/01/31 20:26:02.5	6.720	0.500	-0.450	0.100
2020/01/31 20:26:02.6	6.710	0.480	-0.420	0.110
2020/01/31 20:26:02.7	6.690	0.450	-0.390	0.110
2020/01/31 20:26:02.8	6.670	0.430	-0.360	0.120
2020/01/31 20:26:02.9	6.650	0.410	-0.330	0.130
2020/01/31 20:26:03.0	6.630	0.380	-0.300	0.130
2020/01/31 20:26:03.1	6.620	0.360	-0.270	0.130
2020/01/31 20:26:03.2	6.600	0.330	-0.230	0.140
2020/01/31 20:26:03.3	6.590	0.310	-0.200	0.140
2020/01/31 20:26:03.4	6.580	0.280	-0.170	0.140
2020/01/31 20:26:03.5	6.560	0.250	-0.140	0.140
2020/01/31 20:26:03.6	6.550	0.220	-0.110	0.130
2020/01/31 20:26:03.7	6.530	0.200	-0.080	0.130
2020/01/31 20:26:03.8	6.520	0.170	-0.050	0.130
2020/01/31 20:26:03.9	6.520	0.140	-0.020	0.120
2020/01/31 20:26:04.0	6.500	0.110	0.010	0.110
2020/01/31 20:26:04.1	6.490	0.070	0.040	0.100
2020/01/31 20:26:04.2	6.480	0.040	0.070	0.090
2020/01/31 20:26:04.3	6.460	0.010	0.090	0.080
2020/01/31 20:26:04.4	6.450	-0.020	0.120	0.060
2020/01/31 20:26:04.5	6.430	-0.060	0.150	0.050
2020/01/31 20:26:04.6	6.420	-0.090	0.170	0.030
2020/01/31 20:26:04.7	6.410	-0.120	0.200	0.020
2020/01/31 20:26:04.8	6.400	-0.160	0.220	-0.000
2020/01/31 20:26:04.9	6.390	-0.190	0.250	-0.020
2020/01/31 20:26:05.0	6.380	-0.220	0.270	-0.040
2020/01/31 20:26:05.1	6.370	-0.250	0.290	-0.060
2020/01/31 20:26:05.2	6.370	-0.280	0.310	-0.090
2020/01/31 20:26:05.3	6.360	-0.310	0.330	-0.110
2020/01/31 20:26:05.4	6.350	-0.340	0.340	-0.130
2020/01/31 20:26:05.5	6.350	-0.370	0.350	-0.160
2020/01/31 20:26:05.6	6.350	-0.390	0.360	-0.180
2020/01/31 20:26:05.7	6.350	-0.410	0.370	-0.210
2020/01/31 20:26:05.8	6.360	-0.430	0.370	-0.230
2020/01/31 20:26:05.9	6.350	-0.450	0.370	-0.260
2020/01/31 20:26:06.0	6.350	-0.470	0.370	-0.280
2020/01/31 20:26:06.1	6.360	-0.480	0.360	-0.310
2020/01/31 20:26:06.2	6.370	-0.490	0.350	-0.330
2020/01/31 20:26:06.3	6.370	-0.500	0.340	-0.350
2020/01/31 20:26:06.4	6.380	-0.500	0.320	-0.370
2020/01/31 20:26:06.5	6.390	-0.510	0.310	-0.390
2020/01/31 20:26:06.6	6.400	-0.500	0.280	-0.400
2020/01/31 20:26:06.7	6.410	-0.500	0.260	-0.410
2020/01/31 20:26:06.8	6.420	-0.490	0.230	-0.420
2020/01/31 20:26:06.9	6.430	-0.470	0.200	-0.430
2020/01/31 20:26:07.0	6.440	-0.460	0.170	-0.430
2020/01/31 20:26:07.1	6.440	-0.440	0.140	-0.430
2020/01/31 20:26:07.2	6.450	-0.420	0.110	-0.420
2020/01/31 20:26:07.3	6.450	-0.390	0.070	-0.420
2020/01/31 20:26:07.4	6.460	-0.360	0.030	-0.400
2020/01/31 20:26:07.5	6.460	-0.330	-0.000	-0.390
2020/01/31 20:26:07.6	6.460	-0.300	-0.040	-0.370
2020/01/31 20:26:07.7	6.460	-0.270	-0.080	-0.350
2020/01/31 20:26:07.8	6.460	-0.230	-0.120	-0.330
2020/01/31 20:26:07.9	6.460	-0.190	-0.170	-0.310
2020/01/31 20:26:08.0	6.460	-0.160	-0.210	-0.290
2020/01/31 20:26:08.1	6.460	-0.120	-0.240	-0.260
2020/01/31 20:26:08.2	6.460	-0.080	-0.280	-0.240
2020/01/31 20:26:08.3	6.450	-0.040	-0.320	-0.210
2020/01/31 20:26:08.4	6.450	-0.000	-0.360	-0.190
2020/01/31 20:26:08.5	6.450	0.040	-0.390	-0.160
2020/01/31 20:26:08.6	6.440	0.070	-0.430	-0.140
2020/01/31 20:26:08.7	6.440	0.110	-0.460	-0.120
2020/01/31 20:26:08.8	6.440	0.140	-0.500	-0.100
2020/01/31 20:26:08.9	6.430	0.170	-0.530	-0.080
2020/01/31 20:26:09.0	6.420	0.200	-0.560	-0.060
2020/01/31 20:26:09.1	6.420	0.220	-0.590	-0.040
2020/01/31 20:26:09.2	6.420	0.250	-0.610	-0.030
2020/01/31 20:26:09.3	6.420	0.260	-0.630	-0.020
2020/01/31 20:26:09.4	6.420	0.280	-0.660	-0.010
2020/01/31 20:26:09.5	6.420	0.290	-0.670	-0.000
2020/01/31 20:26:09.6	6.420	0.300	-0.690	0.010
2020/01/31 20:26:09.7	6.430	0.310	-0.700	0.010
2020/01/31 20:26:09.8	6.430	0.310	-0.710	0.020
2020/01/31 20:26:09.9	6.430	0.310	-0.710	0.020
2020/01/31 20:26:10.0	6.430	0.300	-0.720	0.020
2020/01/31 20:26:10.1	6.430	0.290	-0.710	0.020
2020/01/31 20:26:10.2	6.440	0.280	-0.710	0.020
2020/01/31 20:26:10.3	6.440	0.270	-0.700	0.020
2020/01/31 20:26:10.4	6.440	0.250	-0.680	0.010
2020/01/31 20:26:10.5	6.440	0.220	-0.670	0.010
2020/01/31 20:26:10.6	6.440	0.200	-0.640	0.000
2020/01/31 20:26:10.7	6.440	0.170	-0.620	-0.010
2020/01/31 20:26:10.8	6.450	0.140	-0.590	-0.020
2020/01/31 20:26:10.9	6.450	0.110	-0.560	-0.030
2020/01/31 20:26:11.0	6.450	0.070	-0.520	-0.050
2020/01/31 20:26:11.1	6.450	0.040	-0.480	-0.070
2020/01/31 20:26:11.2	6.450	-0.000	-0.440	-0.090
2020/01/31 20:26:11.3	6.450	-0.040	-0.400	-0.110
2020/01/31 20:26:11.4	6.440	-0.080	-0.350	-0.130
2020/01/31 20:26:11.5	6.440	-0.120	-0.310	-0.150
2020/01/31 20:26:11.6	6.440	-0.150	-0.260	-0.180
2020/01/31 20:26:11.7	6.430	-0.190	-0.220	-0.200
2020/01/31 20:26:11.8	6.430	-0.230	-0.170	-0.230
2020/01/31 20:26:11.9	6.430	-0.260	-0.120	-0.260
2020/01/31 20:26:12.0	6.420	-0.290	-0.080	-0.290
2020/01/31 20:26:12.1	6.420	-0.320	-0.040	-0.310
2020/01/31 20:26:12.2	6.410	-0.350	0.000	-0.340
2020/01/31 20:26:12.3	6.400	-0.380	0.040	-0.360
2020/01/31 20:26:12.4	6.400	-0.400	0.080	-0.390
2020/01/31 20:26:12.5	6.390	-0.410	0.110	-0.410
2020/01/31 20:26:12.6	6.390	-0.430	0.130	-0.420
2020/01/31 20:26:12.7	6.380	-0.430	0.160	-0.440
2020/01/31 20:26:12.8	6.370	-0.440	0.170	-0.450
2020/01/31 20:26:12.9	6.380	-0.440	0.190	-0.460
2020/01/31 20:26:13.0	6.370	-0.440	0.200	-0.470
2020/01/31 20:26:13.1	6.370	-0.430	0.200	-0.470
2020/01/31 20:26:13.2	6.360	-0.420	0.200	-0.470
2020/01/31 20:26:13.3	6.360	-0.400	0.190	-0.470
2020/01/31 20:26:13.4	6.360	-0.380	0.170	-0.470
2020/01/31 20:26:13.5	6.350	-0.350	0.150	-0.470
2020/01/31 20:26:13.6	6.350	-0.330	0.130	-0.460
2020/01/31 20:26:13.7	6.350	-0.300	0.090	-0.450
2020/01/31 20:26:13.8	6.350	-0.260	0.060	-0.440
2020/01/31 20:26:13.9	6.340	-0.220	0.020	-0.430
2020/01/31 20:26:14.0	6.340	-0.180	-0.030	-0.420
2020/01/31 20:26:14.1	6.340	-0.140	-0.080	-0.410
2020/01/31 20:26:14.2	6.350	-0.100	-0.130	-0.390
2020/01/31 20:26:14.3	6.350	-0.050	-0.180	-0.380
2020/01/31 20:26:14.4	6.350	-0.010	-0.240	-0.360
2020/01/31 20:26:14.5	6.350	0.040	-0.300	-0.340
2020/01/31 20:26:14.6	6.360	0.090	-0.360	-0.330
2020/01/31 20:26:14.7	6.360	0.140	-0.420	-0.310
2020/01/31 20:26:14.8	6.360	0.180	-0.480	-0.290
2020/01/31 20:26:14.9	6.360	0.230	-0.540	-0.270
2020/01/31 20:26:15.0	6.360	0.280	-0.590	-0.250
2020/01/31 20:26:15.1	6.370	0.320	-0.650	-0.230
2020/01/31 20:26:15.2	6.370	0.370	-0.700	-0.210
2020/01/31 20:26:15.3	6.380	0.410	-0.750	-0.190
2020/01/31 20:26:15.4	6.380	0.450	-0.790	-0.160
2020/01/31 20:26:15.5	6.380	0.490	-0.830	-0.140
2020/01/31 20:26:15.6	6.380	0.520	-0.860	-0.110
2020/01/31 20:26:15.7	6.380	0.560	-0.890	-0.080
2020/01/31 20:26:15.8	6.380	0.580	-0.910	-0.050
2020/01/31 20:26:15.9	6.380	0.610	-0.920	-0.020
2020/01/31 20:26:16.0	6.380	0.630	-0.930	0.010
2020/01/31 20:26:16.1	6.370	0.650	-0.940	0.040
2020/01/31 20:26:16.2	6.370	0.660	-0.930	0.070
2020/01/31 20:26:16.3	6.370	0.670	-0.920	0.100
2020/01/31 20:26:16.4	6.370	0.680	-0.900	0.130
2020/01/31 20:26:16.5	6.360	0.680	-0.880	0.170
2020/01/31 20:26:16.6	6.360	0.670	-0.850	0.190
2020/01/31 20:26:16.7	6.360	0.670	-0.820	0.220
2020/01/31 20:26:16.8	6.350	0.650	-0.780	0.250
2020/01/31 20:26:16.9	6.350	0.640	-0.740	0.280
2020/01/31 20:26:17.0	6.350	0.620	-0.690	0.300
2020/01/31 20:26:17.1	6.350	0.590	-0.640	0.310
2020/01/31 20:26:17.2	6.350	0.560	-0.580	0.330
2020/01/31 20:26:17.3	6.350	0.530	-0.530	0.330
2020/01/31 20:26:17.4	6.360	0.490	-0.470	0.340
2020/01/31 20:26:17.5	6.360	0.450	-0.410	0.340
2020/01/31 20:26:17.6	6.370	0.410	-0.360	0.330
2020/01/31 20:26:17.7	6.380	0.370	-0.300	0.320
2020/01/31 20:26:17.8	6.390	0.320	-0.250	0.310
2020/01/31 20:26:17.9	6.400	0.270	-0.190	0.280
2020/01/31 20:26:18.0	6.420	0.220	-0.140	0.260
2020/01/31 20:26:18.1	6.430	0.170	-0.100	0.230
2020/01/31 20:26:18.2	6.450	0.110	-0.050	0.200
2020/01/31 20:26:18.3	6.470	0.060	-0.010	0.160
2020/01/31 20:26:18.4	6.480	0.010	0.030	0.120
2020/01/31 20:26:18.5	6.500	-0.050	0.060	0.090
2020/01/31 20:26:18.6	6.520	-0.100	0.090	0.050
2020/01/31 20:26:18.7	6.530	-0.160	0.120	0.000
2020/01/31 20:26:18.8	6.550	-0.210	0.150	-0.040
2020/01/31 20:26:18.9	6.570	-0.260	0.160	-0.080
2020/01/31 20:26:19.0	6.580	-0.310	0.180	-0.130
2020/01/31 20:26:19.1	6.590	-0.360	0.200	-0.170
2020/01/31 20:26:19.2	6.610	-0.400	0.210	-0.210
2020/01/31 20:26:19.3	6.620	-0.450	0.220	-0.250
2020/01/31 20:26:19.4	6.630	-0.490	0.230	-0.290
2020/01/31 20:26:19.5	6.640	-0.520	0.230	-0.320
2020/01/31 20:26:19.6	6.650	-0.560	0.230	-0.360
2020/01/31 20:26:19.7	6.660	-0.590	0.230	-0.390
2020/01/31 20:26:19.8	6.660	-0.610	0.230	-0.420
2020/01/31 20:26:19.9	6.670	-0.640	0.220	-0.450
2020/01/31 20:26:20.0	6.680	-0.650	0.220	-0.480
2020/01/31 20:26:20.1	6.680	-0.670	0.210	-0.500
2020/01/31 20:26:20.2	6.680	-0.680	0.210	-0.520
2020/01/31 20:26:20.3	6.690	-0.690	0.200	-0.540
2020/01/31 20:26:20.4	6.690	-0.690	0.190	-0.550
2020/01/31 20:26:20.5	6.690	-0.690	0.180	-0.560
2020/01/31 20:26:20.6	6.690	-0.680	0.180	-0.570
2020/01/31 20:26:20.7	6.680	-0.670	0.170	-0.580
2020/01/31 20:26:20.8	6.680	-0.660	0.160	-0.580
2020/01/31 20:26:20.9	6.670	-0.640	0.160	-0.580
2020/01/31 20:26:21.0	6.670	-0.620	0.150	-0.570
2020/01/31 20:26:21.1	6.660	-0.590	0.140	-0.560
2020/01/31 20:26:21.2	6.650	-0.570	0.140	-0.540
2020/01/31 20:26:21.3	6.640	-0.540	0.140	-0.520
2020/01/31 20:26:21.4	6.630	-0.500	0.130	-0.500
2020/01/31 20:26:21.5	6.620	-0.470	0.130	-0.470
2020/01/31 20:26:21.6	6.610	-0.430	0.130	-0.440
2020/01/31 20:26:21.7	6.590	-0.390	0.130	-0.410
2020/01/31 20:26:21.8	6.580	-0.350	0.130	-0.370
2020/01/31 20:26:21.9	6.570	-0.310	0.120	-0.330
2020/01/31 20:26:22.0	6.550	-0.260	0.130	-0.280
2020/01/31 20:26:22.1	6.530	-0.220	0.130	-0.240
2020/01/31 20:26:22.2	6.510	-0.170	0.130	-0.190
2020/01/31 20:26:22.3	6.490	-0.130	0.120	-0.140
2020/01/31 20:26:22.4	6.460	-0.080	0.120	-0.080
2020/01/31 20:26:22.5	6.440	-0.040	0.120	-0.030
2020/01/31 20:26:22.6	6.410	0.010	0.120	0.030
2020/01/31 20:26:22.7	6.380	0.050	0.110	0.090
2020/01/31 20:26:22.8	6.350	0.090	0.110	0.150
2020/01/31 20:26:22.9	6.310	0.130	0.100	0.210
2020/01/31 20:26:23.0	6.280	0.160	0.090	0.270
2020/01/31 20:26:23.1	6.240	0.200	0.070	0.320
2020/01/31 20:26:23.2	6.210	0.230	0.060	0.380
2020/01/31 20:26:23.3	6.180	0.260	0.040	0.430
2020/01/31 20:26:23.4	6.140	0.290	0.020	0.470
2020/01/31 20:26:23.5	6.110	0.310	-0.000	0.520
2020/01/31 20:26:23.6	6.080	0.330	-0.030	0.550
2020/01/31 20:26:23.7	6.050	0.350	-0.060	0.590
2020/01/31 20:26:23.8	6.020	0.360	-0.100	0.620
2020/01/31 20:26:23.9	5.990	0.380	-0.130	0.640
2020/01/31 20:26:24.0	5.970	0.380	-0.180	0.650
2020/01/31 20:26:24.1	5.950	0.390	-0.220	0.660
2020/01/31 20:26:24.2	5.930	0.390	-0.270	0.660
2020/01/31 20:26:24.3	5.920	0.390	-0.320	0.650
2020/01/31 20:26:24.4	5.910	0.390	-0.370	0.640
2020/01/31 20:26:24.5	5.900	0.390	-0.420	0.620
2020/01/31 20:26:24.6	5.900	0.380	-0.480	0.590
2020/01/31 20:26:24.7	5.900	0.370	-0.540	0.560
2020/01/31 20:26:24.8	5.900	0.360	-0.600	0.520
2020/01/31 20:26:24.9	5.910	0.350	-0.660	0.470
2020/01/31 20:26:25.0	5.920	0.330	-0.730	0.420
2020/01/31 20:26:25.1	5.930	0.320	-0.790	0.360
2020/01/31 20:26:25.2	5.950	0.300	-0.850	0.300
2020/01/31 20:26:25.3	5.970	0.290	-0.900	0.240
2020/01/31 20:26:25.4	5.990	0.270	-0.960	0.170
2020/01/31 20:26:25.5	6.010	0.250	-1.010	0.110
2020/01/31 20:26:25.6	6.040	0.230	-1.060	0.040
2020/01/31 20:26:25.7	6.060	0.220	-1.110	-0.030
2020/01/31 20:26:25.8	6.090	0.200	-1.150	-0.100
2020/01/31 20:26:25.9	6.120	0.180	-1.180	-0.180
2020/01/31 20:26:26.0	6.150	0.170	-1.210	-0.250
2020/01/31 20:26:26.1	6.180	0.150	-1.240	-0.310
2020/01/31 20:26:26.2	6.210	0.140	-1.260	-0.380
2020/01/31 20:26:26.3	6.240	0.120	-1.270	-0.450
2020/01/31 20:26:26.4	6.270	0.110	-1.270	-0.510
2020/01/31 20:26:26.5	6.300	0.100	-1.270	-0.570
2020/01/31 20:26:26.6	6.330	0.090	-1.260	-0.630
2020/01/31 20:26:26.7	6.360	0.080	-1.250	-0.690
2020/01/31 20:26:26.8	6.400	0.070	-1.220	-0.740
2020/01/31 20:26:26.9	6.430	0.060	-1.200	-0.790
2020/01/31 20:26:27.0	6.460	0.050	-1.160	-0.830
2020/01/31 20:26:27.1	6.490	0.050	-1.120	-0.870
2020/01/31 20:26:27.2	6.530	0.040	-1.080	-0.910
2020/01/31 20:26:27.3	6.560	0.040	-1.020	-0.940
2020/01/31 20:26:27.4	6.590	0.040	-0.970	-0.970
2020/01/31 20:26:27.5	6.630	0.030	-0.910	-0.990
2020/01/31 20:26:27.6	6.660	0.030	-0.840	-1.010
2020/01/31 20:26:27.7	6.690	0.030	-0.770	-1.020
2020/01/31 20:26:27.8	6.730	0.030	-0.700	-1.030
2020/01/31 20:26:27.9	6.760	0.030	-0.630	-1.030
2020/01/31 20:26:28.0	6.790	0.030	-0.550	-1.030
2020/01/31 20:26:28.1	6.830	0.030	-0.480	-1.020
2020/01/31 20:26:28.2	6.860	0.020	-0.400	-1.020
2020/01/31 20:26:28.3	6.890	0.020	-0.330	-1.000
2020/01/31 20:26:28.4	6.920	0.020	-0.260	-0.990
2020/01/31 20:26:28.5	6.960	0.020	-0.190	-0.970
2020/01/31 20:26:28.6	6.990	0.020	-0.120	-0.950
2020/01/31 20:26:28.7	7.010	0.020	-0.050	-0.920
2020/01/31 20:26:28.8	7.040	0.010	0.010	-0.900
2020/01/31 20:26:28.9	7.070	0.010	0.070	-0.860
2020/01/31 20:26:29.0	7.090	0.000	0.130	-0.830
2020/01/31 20:26:29.1	7.110	-0.000	0.180	-0.790
2020/01/31 20:26:29.2	7.130	-0.010	0.230	-0.750
2020/01/31 20:26:29.3	7.150	-0.020	0.280	-0.710
2020/01/31 20:26:29.4	7.160	-0.020	0.320	-0.670
2020/01/31 20:26:29.5	7.170	-0.030	0.360	-0.620
2020/01/31 20:26:29.6	7.180	-0.040	0.390	-0.570
2020/01/31 20:26:29.7	7.180	-0.050	0.420	-0.520
2020/01/31 20:26:29.8	7.180	-0.060	0.450	-0.470
2020/01/31 20:26:29.9	7.180	-0.080	0.470	-0.420
2020/01/31 20:26:30.0	7.180	-0.090	0.480	-0.370
2020/01/31 20:26:30.1	7.170	-0.100	0.500	-0.320
2020/01/31 20:26:30.2	7.160	-0.120	0.510	-0.270
2020/01/31 20:26:30.3	7.140	-0.130	0.510	-0.220
2020/01/31 20:26:30.4	7.120	-0.150	0.520	-0.170
2020/01/31 20:26:30.5	7.100	-0.160	0.520	-0.120
2020/01/31 20:26:30.6	7.080	-0.180	0.520	-0.070
2020/01/31 20:26:30.7	7.050	-0.200	0.510	-0.030
2020/01/31 20:26:30.8	7.020	-0.210	0.500	0.020
2020/01/31 20:26:30.9	6.990	-0.230	0.490	0.060
2020/01/31 20:26:31.0	6.960	-0.240	0.480	0.100
2020/01/31 20:26:31.1	6.920	-0.260	0.460	0.140
2020/01/31 20:26:31.2	6.890	-0.270	0.440	0.170
2020/01/31 20:26:31.3	6.850	-0.280	0.420	0.200
2020/01/31 20:26:31.4	6.820	-0.290	0.390	0.230
2020/01/31 20:26:31.5	6.780	-0.310	0.370	0.260
2020/01/31 20:26:31.6	6.740	-0.320	0.340	0.280
2020/01/31 20:26:31.7	6.710	-0.330	0.300	0.300
2020/01/31 20:26:31.8	6.670	-0.330	0.270	0.320
2020/01/31 20:26:31.9	6.630	-0.340	0.230	0.330
2020/01/31 20:26:32.0	6.600	-0.350	0.190	0.340
2020/01/31 20:26:32.1	6.560	-0.350	0.150	0.340
2020/01/31 20:26:32.2	6.530	-0.350	0.110	0.340
2020/01/31 20:26:32.3	6.500	-0.360	0.070	0.330
2020/01/31 20:26:32.4	6.470	-0.350	0.020	0.320
2020/01/31 20:26:32.5	6.440	-0.350	-0.020	0.310
2020/01/31 20:26:32.6	6.410	-0.350	-0.070	0.290
2020/01/31 20:26:32.7	6.380	-0.350	-0.110	0.270
2020/01/31 20:26:32.8	6.350	-0.340	-0.160	0.250
2020/01/31 20:26:32.9	6.330	-0.330	-0.200	0.220
2020/01/31 20:26:33.0	6.300	-0.320	-0.250	0.200
2020/01/31 20:26:33.1	6.280	-0.310	-0.290	0.170
2020/01/31 20:26:33.2	6.260	-0.300	-0.330	0.140
2020/01/31 20:26:33.3	6.250	-0.280	-0.370	0.100
2020/01/31 20:26:33.4	6.230	-0.270	-0.410	0.070
2020/01/31 20:26:33.5	6.220	-0.250	-0.440	0.040
2020/01/31 20:26:33.6	6.210	-0.230	-0.480	0.010
2020/01/31 20:26:33.7	6.190	-0.210	-0.510	-0.020
2020/01/31 20:26:33.8	6.180	-0.190	-0.530	-0.050
2020/01/31 20:26:33.9	6.180	-0.160	-0.550	-0.080
2020/01/31 20:26:34.0	6.170	-0.140	-0.570	-0.100
2020/01/31 20:26:34.1	6.160	-0.110	-0.590	-0.120
2020/01/31 20:26:34.2	6.160	-0.090	-0.600	-0.140
2020/01/31 20:26:34.3	6.150	-0.060	-0.610	-0.160
2020/01/31 20:26:34.4	6.140	-0.030	-0.610	-0.170
2020/01/31 20:26:34.5	6.140	-0.000	-0.610	-0.180
2020/01/31 20:26:34.6	6.130	0.030	-0.610	-0.190
2020/01/31 20:26:34.7	6.130	0.060	-0.600	-0.190
2020/01/31 20:26:34.8	6.120	0.080	-0.590	-0.200
2020/01/31 20:26:34.9	6.130	0.110	-0.580	-0.190
2020/01/31 20:26:35.0	6.130	0.140	-0.560	-0.190
2020/01/31 20:26:35.1	6.120	0.170	-0.540	-0.180
2020/01/31 20:26:35.2	6.110	0.200	-0.520	-0.160
2020/01/31 20:26:35.3	6.100	0.230	-0.490	-0.150
2020/01/31 20:26:35.4	6.090	0.260	-0.470	-0.130
2020/01/31 20:26:35.5	6.080	0.280	-0.440	-0.110
2020/01/31 20:26:35.6	6.070	0.310	-0.420	-0.090
2020/01/31 20:26:35.7	6.060	0.330	-0.390	-0.070
2020/01/31 20:26:35.8	6.040	0.360	-0.360	-0.040
2020/01/31 20:26:35.9	6.030	0.380	-0.340	-0.020
2020/01/31 20:26:36.0	6.020	0.400	-0.310	0.010
2020/01/31 20:26:36.1	6.000	0.420	-0.290	0.040
2020/01/31 20:26:36.2	5.990	0.440	-0.270	0.060
2020/01/31 20:26:36.3	5.970	0.450	-0.250	0.080
2020/01/31 20:26:36.4	5.960	0.470	-0.240	0.110
2020/01/31 20:26:36.5	5.950	0.480	-0.220	0.130
2020/01/31 20:26:36.6	5.930	0.490	-0.220	0.150
2020/01/31 20:26:36.7	5.920	0.500	-0.210	0.160
2020/01/31 20:26:36.8	5.910	0.510	-0.210	0.180
2020/01/31 20:26:36.9	5.910	0.520	-0.220	0.190
2020/01/31 20:26:37.0	5.900	0.520	-0.230	0.200
2020/01/31 20:26:37.1	5.900	0.520	-0.240	0.200
2020/01/31 20:26:37.2	5.900	0.530	-0.250	0.200
2020/01/31 20:26:37.3	5.910	0.530	-0.270	0.200
2020/01/31 20:26:37.4	5.920	0.520	-0.290	0.190
2020/01/31 20:26:37.5	5.930	0.520	-0.320	0.170
2020/01/31 20:26:37.6	5.940	0.510	-0.350	0.160
2020/01/31 20:26:37.7	5.960	0.500	-0.380	0.140
2020/01/31 20:26:37.8	5.980	0.490	-0.410	0.110
2020/01/31 20:26:37.9	5.990	0.480	-0.440	0.080
2020/01/31 20:26:38.0	6.020	0.470	-0.470	0.050
2020/01/31 20:26:38.1	6.040	0.450	-0.510	0.020
2020/01/31 20:26:38.2	6.070	0.430	-0.540	-0.020
2020/01/31 20:26:38.3	6.110	0.410	-0.570	-0.060
2020/01/31 20:26:38.4	6.140	0.380	-0.590	-0.090
2020/01/31 20:26:38.5	6.170	0.360	-0.620	-0.130
2020/01/31 20:26:38.6	6.210	0.330	-0.640	-0.180
2020/01/31 20:26:38.7	6.240	0.300	-0.650	-0.220
2020/01/31 20:26:38.8	6.280	0.270	-0.670	-0.260
2020/01/31 20:26:38.9	6.310	0.230	-0.670	-0.300
2020/01/31 20:26:39.0	6.350	0.190	-0.670	-0.340
2020/01/31 20:26:39.1	6.380	0.150	-0.670	-0.380
2020/01/31 20:26:39.2	6.410	0.110	-0.660	-0.410
2020/01/31 20:26:39.3	6.440	0.070	-0.640	-0.450
2020/01/31 20:26:39.4	6.470	0.030	-0.620	-0.480
2020/01/31 20:26:39.5	6.500	-0.020	-0.590	-0.500
2020/01/31 20:26:39.6	6.520	-0.070	-0.550	-0.530
2020/01/31 20:26:39.7	6.550	-0.120	-0.510	-0.550
2020/01/31 20:26:39.8	6.570	-0.160	-0.470	-0.570
2020/01/31 20:26:39.9	6.590	-0.210	-0.420	-0.580
2020/01/31 20:26:40.0	6.600	-0.260	-0.370	-0.590
2020/01/31 20:26:40.1	6.620	-0.310	-0.320	-0.600
2020/01/31 20:26:40.2	6.630	-0.360	-0.260	-0.600
2020/01/31 20:26:40.3	6.640	-0.410	-0.210	-0.600
2020/01/31 20:26:40.4	6.650	-0.450	-0.150	-0.600
2020/01/31 20:26:40.5	6.660	-0.500	-0.090	-0.590
2020/01/31 20:26:40.6	6.660	-0.540	-0.040	-0.580
2020/01/31 20:26:40.7	6.670	-0.580	0.010	-0.570
2020/01/31 20:26:40.8	6.670	-0.620	0.060	-0.560
2020/01/31 20:26:40.9	6.670	-0.660	0.110	-0.540
2020/01/31 20:26:41.0	6.660	-0.690	0.150	-0.530
2020/01/31 20:26:41.1	6.660	-0.720	0.180	-0.510
2020/01/31 20:26:41.2	6.650	-0.750	0.210	-0.490
2020/01/31 20:26:41.3	6.640	-0.770	0.240	-0.470
2020/01/31 20:26:41.4	6.620	-0.790	0.260	-0.450
2020/01/31 20:26:41.5	6.610	-0.800	0.280	-0.430
2020/01/31 20:26:41.6	6.590	-0.810	0.280	-0.410
2020/01/31 20:26:41.7	6.570	-0.820	0.290	-0.380
2020/01/31 20:26:41.8	6.540	-0.820	0.290	-0.360
2020/01/31 20:26:41.9	6.510	-0.810	0.280	-0.330
2020/01/31 20:26:42.0	6.480	-0.800	0.260	-0.300
2020/01/31 20:26:42.1	6.450	-0.790	0.250	-0.270
2020/01/31 20:26:42.2	6.420	-0.770	0.230	-0.240
2020/01/31 20:26:42.3	6.380	-0.750	0.200	-0.210
2020/01/31 20:26:42.4	6.340	-0.720	0.180	-0.170
2020/01/31 20:26:42.5	6.300	-0.690	0.150	-0.140
2020/01/31 20:26:42.6	6.260	-0.660	0.110	-0.100
2020/01/31 20:26:42.7	6.220	-0.620	0.080	-0.060
2020/01/31 20:26:42.8	6.170	-0.570	0.050	-0.030
2020/01/31 20:26:42.9	6.120	-0.530	0.010	0.010
2020/01/31 20:26:43.0	6.080	-0.480	-0.030	0.050
2020/01/31 20:26:43.1	6.030	-0.420	-0.060	0.090
2020/01/31 20:26:43.2	5.980	-0.370	-0.100	0.130
2020/01/31 20:26:43.3	5.930	-0.310	-0.130	0.160
2020/01/31 20:26:43.4	5.890	-0.250	-0.160	0.200
2020/01/31 20:26:43.5	5.840	-0.190	-0.200	0.240
2020/01/31 20:26:43.6	5.790	-0.130	-0.230	0.270
2020/01/31 20:26:43.7	5.750	-0.070	-0.260	0.300
2020/01/31 20:26:43.8	5.700	-0.010	-0.280	0.340
2020/01/31 20:26:43.9	5.650	0.050	-0.310	0.360
2020/01/31 20:26:44.0	5.610	0.110	-0.330	0.390
2020/01/31 20:26:44.1	5.570	0.170	-0.350	0.420
2020/01/31 20:26:44.2	5.530	0.220	-0.370	0.440
2020/01/31 20:26:44.3	5.500	0.280	-0.390	0.460
2020/01/31 20:26:44.4	5.470	0.330	-0.400	0.480
2020/01/31 20:26:44.5	5.440	0.380	-0.420	0.500
2020/01/31 20:26:44.6	5.410	0.430	-0.430	0.510
2020/01/31 20:26:44.7	5.390	0.480	-0.430	0.520
2020/01/31 20:26:44.8	5.370	0.520	-0.440	0.520
2020/01/31 20:26:44.9	5.350	0.560	-0.450	0.530
2020/01/31 20:26:45.0	5.330	0.590	-0.450	0.530
2020/01/31 20:26:45.1	5.320	0.620	-0.450	0.530
2020/01/31 20:26:45.2	5.310	0.650	-0.450	0.530
2020/01/31 20:26:45.3	5.300	0.670	-0.450	0.520
2020/01/31 20:26:45.4	5.290	0.690	-0.440	0.510
2020/01/31 20:26:45.5	5.290	0.700	-0.430	0.500
2020/01/31 20:26:45.6	5.280	0.710	-0.420	0.490
2020/01/31 20:26:45.7	5.280	0.720	-0.410	0.470
2020/01/31 20:26:45.8	5.280	0.720	-0.400	0.460
2020/01/31 20:26:45.9	5.280	0.720	-0.380	0.440
2020/01/31 20:26:46.0	5.290	0.710	-0.370	0.420
2020/01/31 20:26:46.1	5.290	0.700	-0.350	0.400
2020/01/31 20:26:46.2	5.290	0.680	-0.330	0.380
2020/01/31 20:26:46.3	5.290	0.670	-0.320	0.350
2020/01/31 20:26:46.4	5.300	0.640	-0.300	0.320
2020/01/31 20:26:46.5	5.310	0.620	-0.280	0.300
2020/01/31 20:26:46.6	5.310	0.590	-0.260	0.270
2020/01/31 20:26:46.7	5.320	0.560	-0.250	0.240
2020/01/31 20:26:46.8	5.340	0.530	-0.230	0.210
2020/01/31 20:26:46.9	5.360	0.490	-0.220	0.180
2020/01/31 20:26:47.0	5.370	0.460	-0.210	0.150
2020/01/31 20:26:47.1	5.390	0.420	-0.200	0.110
2020/01/31 20:26:47.2	5.410	0.380	-0.190	0.080
2020/01/31 20:26:47.3	5.440	0.340	-0.180	0.050
2020/01/31 20:26:47.4	5.460	0.300	-0.170	0.010
2020/01/31 20:26:47.5	5.490	0.260	-0.170	-0.030
2020/01/31 20:26:47.6	5.520	0.220	-0.170	-0.060
2020/01/31 20:26:47.7	5.550	0.170	-0.170	-0.100
2020/01/31 20:26:47.8	5.580	0.130	-0.170	-0.140
2020/01/31 20:26:47.9	5.620	0.090	-0.180	-0.180
2020/01/31 20:26:48.0	5.650	0.050	-0.190	-0.220
2020/01/31 20:26:48.1	5.680	0.010	-0.200	-0.260
2020/01/31 20:26:48.2	5.710	-0.020	-0.210	-0.300
2020/01/31 20:26:48.3	5.740	-0.060	-0.230	-0.340
2020/01/31 20:26:48.4	5.780	-0.100	-0.240	-0.370
2020/01/31 20:26:48.5	5.810	-0.130	-0.260	-0.410
2020/01/31 20:26:48.6	5.830	-0.160	-0.280	-0.450
2020/01/31 20:26:48.7	5.860	-0.200	-0.300	-0.480
2020/01/31 20:26:48.8	5.890	-0.230	-0.320	-0.520
2020/01/31 20:26:48.9	5.900	-0.260	-0.350	-0.550
2020/01/31 20:26:49.0	5.930	-0.280	-0.370	-0.580
2020/01/31 20:26:49.1	5.950	-0.310	-0.390	-0.610
2020/01/31 20:26:49.2	5.960	-0.330	-0.410	-0.640
2020/01/31 20:26:49.3	5.980	-0.360	-0.420	-0.660
2020/01/31 20:26:49.4	6.000	-0.380	-0.440	-0.680
2020/01/31 20:26:49.5	6.010	-0.400	-0.450	-0.700
2020/01/31 20:26:49.6	6.020	-0.410	-0.460	-0.720
2020/01/31 20:26:49.7	6.030	-0.430	-0.470	-0.730
2020/01/31 20:26:49.8	6.030	-0.440	-0.480	-0.740
2020/01/31 20:26:49.9	6.040	-0.450	-0.480	-0.740
2020/01/31 20:26:50.0	6.040	-0.460	-0.480	-0.740
2020/01/31 20:26:50.1	6.050	-0.470	-0.480	-0.740
2020/01/31 20:26:50.2	6.050	-0.470	-0.470	-0.740
2020/01/31 20:26:50.3	6.050	-0.480	-0.460	-0.730
2020/01/31 20:26:50.4	6.050	-0.480	-0.440	-0.720
2020/01/31 20:26:50.5	6.040	-0.480	-0.430	-0.700
2020/01/31 20:26:50.6	6.040	-0.470	-0.410	-0.690
2020/01/31 20:26:50.7	6.030	-0.470	-0.380	-0.670
2020/01/31 20:26:50.8	6.030	-0.460	-0.360	-0.640
2020/01/31 20:26:50.9	6.010	-0.450	-0.340	-0.620
2020/01/31 20:26:51.0	6.000	-0.440	-0.310	-0.590
2020/01/31 20:26:51.1	5.990	-0.430	-0.280	-0.560
2020/01/31 20:26:51.2	5.980	-0.420	-0.240	-0.530
2020/01/31 20:26:51.3	5.970	-0.400	-0.210	-0.500
2020/01/31 20:26:51.4	5.960	-0.390	-0.180	-0.460
2020/01/31 20:26:51.5	5.940	-0.370	-0.150	-0.430
2020/01/31 20:26:51.6	5.930	-0.350	-0.110	-0.390
2020/01/31 20:26:51.7	5.910	-0.330	-0.080	-0.350
2020/01/31 20:26:51.8	5.900	-0.300	-0.050	-0.310
2020/01/31 20:26:51.9	5.900	-0.280	-0.020	-0.270
2020/01/31 20:26:52.0	5.880	-0.250	0.010	-0.230
2020/01/31 20:26:52.1	5.860	-0.230	0.040	-0.190
2020/01/31 20:26:52.2	5.840	-0.200	0.070	-0.150
2020/01/31 20:26:52.3	5.830	-0.170	0.090	-0.100
2020/01/31 20:26:52.4	5.810	-0.140	0.110	-0.060
2020/01/31 20:26:52.5	5.790	-0.110	0.120	-0.020
2020/01/31 20:26:52.6	5.770	-0.080	0.140	0.030
2020/01/31 20:26:52.7	5.750	-0.050	0.150	0.070
2020/01/31 20:26:52.8	5.730	-0.020	0.160	0.120
2020/01/31 20:26:52.9	5.690	0.010	0.160	0.160
2020/01/31 20:26:53.0	5.670	0.040	0.170	0.200
2020/01/31 20:26:53.1	5.650	0.070	0.170	0.240
2020/01/31 20:26:53.2	5.630	0.100	0.160	0.280
2020/01/31 20:26:53.3	5.610	0.130	0.160	0.310
2020/01/31 20:26:53.4	5.590	0.150	0.150	0.350
2020/01/31 20:26:53.5	5.570	0.180	0.140	0.380
2020/01/31 20:26:53.6	5.550	0.210	0.120	0.400
2020/01/31 20:26:53.7	5.530	0.230	0.100	0.430
2020/01/31 20:26:53.8	5.510	0.250	0.090	0.450
2020/01/31 20:26:53.9	5.490	0.270	0.070	0.470
2020/01/31 20:26:54.0	5.470	0.290	0.040	0.490
2020/01/31 20:26:54.1	5.450	0.310	0.020	0.500
2020/01/31 20:26:54.2	5.430	0.320	-0.000	0.510
2020/01/31 20:26:54.3	5.410	0.340	-0.030	0.520
2020/01/31 20:26:54.4	5.390	0.350	-0.050	0.530
2020/01/31 20:26:54.5	5.370	0.360	-0.080	0.540
2020/01/31 20:26:54.6	5.350	0.360	-0.100	0.540
2020/01/31 20:26:54.7	5.330	0.370	-0.130	0.540
2020/01/31 20:26:54.8	5.310	0.370	-0.150	0.540
2020/01/31 20:26:54.9	5.290	0.370	-0.180	0.540
2020/01/31 20:26:55.0	5.270	0.360	-0.200	0.540
2020/01/31 20:26:55.1	5.260	0.360	-0.220	0.540
2020/01/31 20:26:55.2	5.240	0.350	-0.240	0.530
2020/01/31 20:26:55.3	5.220	0.340	-0.250	0.530
2020/01/31 20:26:55.4	5.210	0.320	-0.270	0.520
2020/01/31 20:26:55.5	5.190	0.310	-0.290	0.510
2020/01/31 20:26:55.6	5.180	0.290	-0.300	0.500
2020/01/31 20:26:55.7	5.170	0.270	-0.320	0.480
2020/01/31 20:26:55.8	5.160	0.250	-0.340	0.460
2020/01/31 20:26:55.9	5.160	0.230	-0.350	0.440
2020/01/31 20:26:56.0	5.160	0.200	-0.370	0.420
2020/01/31 20:26:56.1	5.160	0.180	-0.390	0.390
2020/01/31 20:26:56.2	5.160	0.150	-0.400	0.350
2020/01/31 20:26:56.3	5.160	0.130	-0.420	0.310
2020/01/31 20:26:56.4	5.170	0.100	-0.440	0.270
2020/01/31 20:26:56.5	5.190	0.080	-0.470	0.220
2020/01/31 20:26:56.6	5.200	0.050	-0.490	0.170
2020/01/31 20:26:56.7	5.220	0.030	-0.510	0.110
2020/01/31 20:26:56.8	5.240	0.010	-0.540	0.050
2020/01/31 20:26:56.9	5.270	-0.010	-0.570	-0.010
2020/01/31 20:26:57.0	5.300	-0.030	-0.600	-0.080
2020/01/31 20:26:57.1	5.330	-0.050	-0.630	-0.140
2020/01/31 20:26:57.2	5.360	-0.060	-0.650	-0.200
2020/01/31 20:26:57.3	5.390	-0.070	-0.680	-0.260
2020/01/31 20:26:57.4	5.430	-0.080	-0.710	-0.320
2020/01/31 20:26:57.5	5.460	-0.090	-0.740	-0.380
2020/01/31 20:26:57.6	5.490	-0.100	-0.760	-0.430
2020/01/31 20:26:57.7	5.520	-0.100	-0.780	-0.480
2020/01/31 20:26:57.8	5.560	-0.100	-0.800	-0.520
2020/01/31 20:26:57.9	5.580	-0.100	-0.820	-0.570
2020/01/31 20:26:58.0	5.610	-0.090	-0.830	-0.600
2020/01/31 20:26:58.1	5.630	-0.090	-0.830	-0.620
2020/01/31 20:26:58.2	5.650	-0.080	-0.830	-0.640
2020/01/31 20:26:58.3	5.670	-0.070	-0.820	-0.650
2020/01/31 20:26:58.4	5.690	-0.060	-0.810	-0.660
2020/01/31 20:26:58.5	5.710	-0.050	-0.790	-0.650
2020/01/31 20:26:58.6	5.720	-0.030	-0.770	-0.650
2020/01/31 20:26:58.7	5.730	-0.020	-0.740	-0.630
2020/01/31 20:26:58.8	5.730	-0.010	-0.700	-0.610
2020/01/31 20:26:58.9	5.730	0.010	-0.660	-0.580
2020/01/31 20:26:59.0	5.730	0.020	-0.620	-0.560
2020/01/31 20:26:59.1	5.730	0.030	-0.570	-0.520
2020/01/31 20:26:59.2	5.720	0.040	-0.520	-0.490
2020/01/31 20:26:59.3	5.710	0.050	-0.460	-0.450
2020/01/31 20:26:59.4	5.700	0.060	-0.410	-0.410
2020/01/31 20:26:59.5	5.680	0.070	-0.350	-0.360
2020/01/31 20:26:59.6	5.670	0.080	-0.290	-0.320
2020/01/31 20:26:59.7	5.650	0.080	-0.230	-0.270
2020/01/31 20:26:59.8	5.630	0.090	-0.170	-0.230
2020/01/31 20:26:59.9	5.600	0.090	-0.120	-0.180
2020/01/31 20:27:00.0	5.580	0.090	-0.060	-0.140
2020/01/31 20:27:00.1	5.560	0.090	-0.010	-0.090
2020/01/31 20:27:00.2	5.540	0.090	0.040	-0.050
2020/01/31 20:27:00.3	5.520	0.090	0.090	-0.010
2020/01/31 20:27:00.4	5.500	0.090	0.130	0.030
2020/01/31 20:27:00.5	5.480	0.090	0.160	0.060
2020/01/31 20:27:00.6	5.460	0.090	0.190	0.090
2020/01/31 20:27:00.7	5.440	0.080	0.210	0.120
2020/01/31 20:27:00.8	5.430	0.080	0.230	0.140
2020/01/31 20:27:00.9	5.410	0.080	0.240	0.170
2020/01/31 20:27:01.0	5.400	0.070	0.250	0.180
2020/01/31 20:27:01.1	5.390	0.070	0.250	0.200
2020/01/31 20:27:01.2	5.380	0.070	0.240	0.210
2020/01/31 20:27:01.3	5.370	0.070	0.230	0.220
2020/01/31 20:27:01.4	5.370	0.070	0.210	0.220
2020/01/31 20:27:01.5	5.360	0.070	0.180	0.220
2020/01/31 20:27:01.6	5.360	0.070	0.150	0.220
2020/01/31 20:27:01.7	5.360	0.070	0.120	0.210
2020/01/31 20:27:01.8	5.360	0.070	0.080	0.200
2020/01/31 20:27:01.9	5.360	0.080	0.040	0.180
2020/01/31 20:27:02.0	5.360	0.080	-0.000	0.170
2020/01/31 20:27:02.1	5.370	0.090	-0.050	0.150
2020/01/31 20:27:02.2	5.380	0.100	-0.090	0.130
2020/01/31 20:27:02.3	5.390	0.100	-0.140	0.110
2020/01/31 20:27:02.4	5.400	0.110	-0.190	0.090
2020/01/31 20:27:02.5	5.410	0.120	-0.240	0.070
2020/01/31 20:27:02.6	5.420	0.130	-0.280	0.040
2020/01/31 20:27:02.7	5.430	0.140	-0.330	0.020
2020/01/31 20:27:02.8	5.450	0.140	-0.370	-0.000
2020/01/31 20:27:02.9	5.470	0.150	-0.410	-0.020
2020/01/31 20:27:03.0	5.490	0.160	-0.450	-0.050
2020/01/31 20:27:03.1	5.500	0.160	-0.480	-0.070
2020/01/31 20:27:03.2	5.520	0.170	-0.510	-0.090
2020/01/31 20:27:03.3	5.530	0.170	-0.530	-0.110
2020/01/31 20:27:03.4	5.550	0.180	-0.550	-0.130
2020/01/31 20:27:03.5	5.560	0.180	-0.560	-0.140
2020/01/31 20:27:03.6	5.580	0.180	-0.570	-0.160
2020/01/31 20:27:03.7	5.600	0.170	-0.580	-0.180
2020/01/31 20:27:03.8	5.610	0.170	-0.570	-0.190
2020/01/31 20:27:03.9	5.620	0.160	-0.570	-0.210
2020/01/31 20:27:04.0	5.640	0.150	-0.560	-0.220
2020/01/31 20:27:04.1	5.660	0.140	-0.540	-0.230
2020/01/31 20:27:04.2	5.670	0.120	-0.520	-0.240
2020/01/31 20:27:04.3	5.690	0.100	-0.500	-0.250
2020/01/31 20:27:04.4	5.700	0.080	-0.470	-0.260
2020/01/31 20:27:04.5	5.710	0.060	-0.440	-0.270
2020/01/31 20:27:04.6	5.730	0.040	-0.410	-0.280
2020/01/31 20:27:04.7	5.740	0.010	-0.380	-0.290
2020/01/31 20:27:04.8	5.750	-0.020	-0.340	-0.300
2020/01/31 20:27:04.9	5.760	-0.050	-0.310	-0.310
2020/01/31 20:27:05.0	5.770	-0.080	-0.270	-0.320
2020/01/31 20:27:05.1	5.780	-0.110	-0.230	-0.330
2020/01/31 20:27:05.2	5.790	-0.150	-0.190	-0.340
2020/01/31 20:27:05.3	5.800	-0.180	-0.150	-0.360
2020/01/31 20:27:05.4	5.810	-0.210	-0.110	-0.370
2020/01/31 20:27:05.5	5.810	-0.250	-0.070	-0.380
2020/01/31 20:27:05.6	5.820	-0.280	-0.030	-0.380
2020/01/31 20:27:05.7	5.820	-0.320	0.010	-0.390
2020/01/31 20:27:05.8	5.820	-0.350	0.040	-0.400
2020/01/31 20:27:05.9	5.810	-0.380	0.080	-0.410
2020/01/31 20:27:06.0	5.810	-0.400	0.110	-0.410
2020/01/31 20:27:06.1	5.810	-0.430	0.150	-0.410
2020/01/31 20:27:06.2	5.800	-0.450	0.180	-0.410
2020/01/31 20:27:06.3	5.790	-0.470	0.210	-0.400
2020/01/31 20:27:06.4	5.770	-0.490	0.230	-0.400
2020/01/31 20:27:06.5	5.760	-0.510	0.260	-0.380
2020/01/31 20:27:06.6	5.740	-0.520	0.280	-0.370
2020/01/31 20:27:06.7	5.720	-0.520	0.300	-0.350
2020/01/31 20:27:06.8	5.690	-0.530	0.320	-0.320
2020/01/31 20:27:06.9	5.650	-0.520	0.330	-0.290
2020/01/31 20:27:07.0	5.620	-0.520	0.350	-0.260
2020/01/31 20:27:07.1	5.590	-0.510	0.360	-0.220
2020/01/31 20:27:07.2	5.550	-0.500	0.370	-0.180
2020/01/31 20:27:07.3	5.520	-0.480	0.370	-0.130
2020/01/31 20:27:07.4	5.480	-0.460	0.380	-0.080
2020/01/31 20:27:07.5	5.430	-0.430	0.380	-0.030
2020/01/31 20:27:07.6	5.390	-0.410	0.380	0.030
2020/01/31 20:27:07.7	5.340	-0.370	0.370	0.080
2020/01/31 20:27:07.8	5.290	-0.340	0.360	0.140
2020/01/31 20:27:07.9	5.240	-0.300	0.350	0.200
2020/01/31 20:27:08.0	5.190	-0.260	0.330	0.260
2020/01/31 20:27:08.1	5.140	-0.220	0.310	0.310
2020/01/31 20:27:08.2	5.090	-0.180	0.290	0.370
2020/01/31 20:27:08.3	5.040	-0.130	0.260	0.420
2020/01/31 20:27:08.4	4.990	-0.080	0.230	0.470
2020/01/31 20:27:08.5	4.940	-0.040	0.200	0.510
2020/01/31 20:27:08.6	4.890	0.010	0.160	0.550
2020/01/31 20:27:08.7	4.850	0.060	0.120	0.590
2020/01/31 20:27:08.8	4.800	0.110	0.070	0.620
2020/01/31 20:27:08.9	4.780	0.160	0.030	0.650
2020/01/31 20:27:09.0	4.740	0.200	-0.030	0.670
2020/01/31 20:27:09.1	4.700	0.250	-0.080	0.690
2020/01/31 20:27:09.2	4.670	0.290	-0.140	0.700
2020/01/31 20:27:09.3	4.640	0.330	-0.200	0.710
2020/01/31 20:27:09.4	4.610	0.370	-0.260	0.720
2020/01/31 20:27:09.5	4.590	0.400	-0.320	0.720
2020/01/31 20:27:09.6	4.570	0.440	-0.390	0.710
2020/01/31 20:27:09.7	4.550	0.470	-0.450	0.700
2020/01/31 20:27:09.8	4.540	0.490	-0.510	0.690
2020/01/31 20:27:09.9	4.530	0.520	-0.580	0.670
2020/01/31 20:27:10.0	4.520	0.540	-0.640	0.650
2020/01/31 20:27:10.1	4.520	0.550	-0.700	0.630
2020/01/31 20:27:10.2	4.510	0.560	-0.760	0.600
2020/01/31 20:27:10.3	4.520	0.570	-0.820	0.570
2020/01/31 20:27:10.4	4.520	0.570	-0.870	0.530
2020/01/31 20:27:10.5	4.530	0.570	-0.920	0.490
2020/01/31 20:27:10.6	4.540	0.570	-0.960	0.450
2020/01/31 20:27:10.7	4.560	0.560	-1.010	0.410
2020/01/31 20:27:10.8	4.580	0.540	-1.040	0.360
2020/01/31 20:27:10.9	4.620	0.530	-1.080	0.300
2020/01/31 20:27:11.0	4.650	0.510	-1.110	0.250
2020/01/31 20:27:11.1	4.690	0.490	-1.140	0.190
2020/01/31 20:27:11.2	4.720	0.460	-1.160	0.130
2020/01/31 20:27:11.3	4.770	0.440	-1.180	0.070
2020/01/31 20:27:11.4	4.810	0.410	-1.190	0.000
2020/01/31 20:27:11.5	4.860	0.380	-1.200	-0.070
2020/01/31 20:27:11.6	4.910	0.350	-1.210	-0.140
2020/01/31 20:27:11.7	4.970	0.310	-1.210	-0.210
2020/01/31 20:27:11.8	5.020	0.280	-1.210	-0.280
2020/01/31 20:27:11.9	5.090	0.250	-1.210	-0.350
2020/01/31 20:27:12.0	5.150	0.210	-1.200	-0.420
2020/01/31 20:27:12.1	5.210	0.180	-1.180	-0.490
2020/01/31 20:27:12.2	5.270	0.140	-1.170	-0.560
2020/01/31 20:27:12.3	5.330	0.110	-1.140	-0.620
2020/01/31 20:27:12.4	5.390	0.080	-1.110	-0.680
2020/01/31 20:27:12.5	5.450	0.050	-1.080	-0.740
2020/01/31 20:27:12.6	5.510	0.020	-1.040	-0.790
2020/01/31 20:27:12.7	5.570	-0.010	-1.000	-0.840
2020/01/31 20:27:12.8	5.620	-0.040	-0.960	-0.880
2020/01/31 20:27:12.9	5.660	-0.070	-0.900	-0.920
2020/01/31 20:27:13.0	5.710	-0.100	-0.850	-0.950
2020/01/31 20:27:13.1	5.750	-0.130	-0.790	-0.980
2020/01/31 20:27:13.2	5.780	-0.150	-0.730	-1.000
2020/01/31 20:27:13.3	5.820	-0.180	-0.670	-1.010
2020/01/31 20:27:13.4	5.840	-0.200	-0.600	-1.020
2020/01/31 20:27:13.5	5.860	-0.220	-0.530	-1.020
2020/01/31 20:27:13.6	5.880	-0.240	-0.460	-1.020
2020/01/31 20:27:13.7	5.890	-0.260	-0.390	-1.010
2020/01/31 20:27:13.8	5.900	-0.280	-0.320	-0.990
2020/01/31 20:27:13.9	5.900	-0.290	-0.250	-0.970
2020/01/31 20:27:14.0	5.890	-0.310	-0.180	-0.950
2020/01/31 20:27:14.1	5.890	-0.320	-0.110	-0.930
2020/01/31 20:27:14.2	5.880	-0.330	-0.040	-0.900
2020/01/31 20:27:14.3	5.860	-0.340	0.030	-0.870
2020/01/31 20:27:14.4	5.850	-0.350	0.090	-0.840
2020/01/31 20:27:14.5	5.830	-0.360	0.150	-0.800
2020/01/31 20:27:14.6	5.800	-0.360	0.210	-0.770
2020/01/31 20:27:14.7	5.780	-0.360	0.260	-0.730
2020/01/31 20:27:14.8	5.750	-0.360	0.310	-0.690
2020/01/31 20:27:14.9	5.710	-0.360	0.350	-0.640
2020/01/31 20:27:15.0	5.680	-0.360	0.390	-0.600
2020/01/31 20:27:15.1	5.640	-0.350	0.430	-0.550
2020/01/31 20:27:15.2	5.600	-0.340	0.460	-0.500
2020/01/31 20:27:15.3	5.560	-0.330	0.480	-0.450
2020/01/31 20:27:15.4	5.520	-0.310	0.500	-0.400
2020/01/31 20:27:15.5	5.470	-0.300	0.520	-0.350
2020/01/31 20:27:15.6	5.430	-0.280	0.530	-0.290
2020/01/31 20:27:15.7	5.380	-0.260	0.530	-0.240
2020/01/31 20:27:15.8	5.340	-0.230	0.530	-0.190
2020/01/31 20:27:15.9	5.290	-0.210	0.520	-0.140
2020/01/31 20:27:16.0	5.250	-0.180	0.510	-0.090
2020/01/31 20:27:16.1	5.200	-0.150	0.500	-0.040
2020/01/31 20:27:16.2	5.160	-0.120	0.480	0.010
2020/01/31 20:27:16.3	5.110	-0.090	0.460	0.060
2020/01/31 20:27:16.4	5.070	-0.050	0.430	0.100
2020/01/31 20:27:16.5	5.020	-0.020	0.410	0.140
2020/01/31 20:27:16.6	4.980	0.010	0.380	0.180
2020/01/31 20:27:16.7	4.940	0.050	0.350	0.220
2020/01/31 20:27:16.8	4.900	0.080	0.320	0.250
2020/01/31 20:27:16.9	4.860	0.110	0.290	0.280
2020/01/31 20:27:17.0	4.820	0.150	0.250	0.310
2020/01/31 20:27:17.1	4.780	0.180	0.220	0.330
2020/01/31 20:27:17.2	4.750	0.210	0.190	0.350
2020/01/31 20:27:17.3	4.720	0.230	0.160	0.370
2020/01/31 20:27:17.4	4.690	0.260	0.120	0.390
2020/01/31 20:27:17.5	4.660	0.280	0.090	0.400
2020/01/31 20:27:17.6	4.630	0.300	0.060	0.410
2020/01/31 20:27:17.7	4.610	0.320	0.040	0.420
2020/01/31 20:27:17.8	4.590	0.340	0.010	0.430
2020/01/31 20:27:17.9	4.560	0.350	-0.020	0.430
2020/01/31 20:27:18.0	4.550	0.360	-0.040	0.440
2020/01/31 20:27:18.1	4.530	0.370	-0.060	0.440
2020/01/31 20:27:18.2	4.520	0.370	-0.080	0.440
2020/01/31 20:27:18.3	4.510	0.370	-0.100	0.440
2020/01/31 20:27:18.4	4.500	0.370	-0.120	0.430
2020/01/31 20:27:18.5	4.500	0.360	-0.130	0.430
2020/01/31 20:27:18.6	4.490	0.350	-0.140	0.420
2020/01/31 20:27:18.7	4.490	0.340	-0.150	0.410
2020/01/31 20:27:18.8	4.490	0.320	-0.160	0.400
2020/01/31 20:27:18.9	4.490	0.300	-0.170	0.390
2020/01/31 20:27:19.0	4.490	0.280	-0.170	0.380
2020/01/31 20:27:19.1	4.490	0.260	-0.180	0.360
2020/01/31 20:27:19.2	4.500	0.230	-0.180	0.340
2020/01/31 20:27:19.3	4.510	0.200	-0.180	0.320
2020/01/31 20:27:19.4	4.510	0.170	-0.180	0.290
2020/01/31 20:27:19.5	4.520	0.140	-0.170	0.270
2020/01/31 20:27:19.6	4.530	0.100	-0.170	0.240
2020/01/31 20:27:19.7	4.540	0.070	-0.170	0.210
2020/01/31 20:27:19.8	4.560	0.030	-0.160	0.180
2020/01/31 20:27:19.9	4.570	-0.000	-0.160	0.140
2020/01/31 20:27:20.0	4.580	-0.040	-0.160	0.110
2020/01/31 20:27:20.1	4.600	-0.080	-0.160	0.080
2020/01/31 20:27:20.2	4.610	-0.110	-0.150	0.040
2020/01/31 20:27:20.3	4.630	-0.150	-0.150	0.010
2020/01/31 20:27:20.4	4.640	-0.180	-0.160	-0.020
2020/01/31 20:27:20.5	4.650	-0.210	-0.160	-0.050
2020/01/31 20:27:20.6	4.660	-0.240	-0.160	-0.080
2020/01/31 20:27:20.7	4.680	-0.270	-0.170	-0.110
2020/01/31 20:27:20.8	4.680	-0.300	-0.170	-0.140
2020/01/31 20:27:20.9	4.700	-0.320	-0.180	-0.160
2020/01/31 20:27:21.0	4.710	-0.350	-0.190	-0.190
2020/01/31 20:27:21.1	4.710	-0.370	-0.200	-0.210
2020/01/31 20:27:21.2	4.720	-0.380	-0.210	-0.230
2020/01/31 20:27:21.3	4.720	-0.400	-0.230	-0.250
2020/01/31 20:27:21.4	4.720	-0.410	-0.250	-0.260
2020/01/31 20:27:21.5	4.720	-0.410	-0.270	-0.280
2020/01/31 20:27:21.6	4.720	-0.420	-0.290	-0.290
2020/01/31 20:27:21.7	4.720	-0.420	-0.310	-0.310
2020/01/31 20:27:21.8	4.720	-0.410	-0.340	-0.320
2020/01/31 20:27:21.9	4.720	-0.410	-0.360	-0.330
2020/01/31 20:27:22.0	4.720	-0.400	-0.390	-0.340
2020/01/31 20:27:22.1	4.720	-0.380	-0.420	-0.350
2020/01/31 20:27:22.2	4.720	-0.370	-0.450	-0.360
2020/01/31 20:27:22.3	4.720	-0.350	-0.490	-0.370
2020/01/31 20:27:22.4	4.720	-0.320	-0.520	-0.370
2020/01/31 20:27:22.5	4.720	-0.300	-0.550	-0.380
2020/01/31 20:27:22.6	4.730	-0.270	-0.590	-0.390
2020/01/31 20:27:22.7	4.730	-0.240	-0.620	-0.390
2020/01/31 20:27:22.8	4.740	-0.200	-0.660	-0.400
2020/01/31 20:27:22.9	4.750	-0.160	-0.690	-0.400
2020/01/31 20:27:23.0	4.760	-0.130	-0.730	-0.410
2020/01/31 20:27:23.1	4.770	-0.090	-0.760	-0.410
2020/01/31 20:27:23.2	4.780	-0.050	-0.790	-0.410
2020/01/31 20:27:23.3	4.790	-0.010	-0.820	-0.400
2020/01/31 20:27:23.4	4.800	0.030	-0.840	-0.400
2020/01/31 20:27:23.5	4.810	0.070	-0.870	-0.400
2020/01/31 20:27:23.6	4.820	0.110	-0.890	-0.390
2020/01/31 20:27:23.7	4.830	0.150	-0.900	-0.390
2020/01/31 20:27:23.8	4.850	0.190	-0.920	-0.380
2020/01/31 20:27:23.9	4.870	0.230	-0.930	-0.370
2020/01/31 20:27:24.0	4.890	0.260	-0.940	-0.360
2020/01/31 20:27:24.1	4.900	0.290	-0.940	-0.350
2020/01/31 20:27:24.2	4.920	0.320	-0.940	-0.330
2020/01/31 20:27:24.3	4.930	0.340	-0.930	-0.320
2020/01/31 20:27:24.4	4.950	0.360	-0.920	-0.310
2020/01/31 20:27:24.5	4.960	0.380	-0.900	-0.300
2020/01/31 20:27:24.6	4.970	0.400	-0.880	-0.280
2020/01/31 20:27:24.7	4.990	0.400	-0.860	-0.270
2020/01/31 20:27:24.8	5.000	0.410	-0.830	-0.250
2020/01/31 20:27:24.9	5.030	0.410	-0.790	-0.240
2020/01/31 20:27:25.0	5.040	0.400	-0.750	-0.220
2020/01/31 20:27:25.1	5.050	0.390	-0.710	-0.210
2020/01/31 20:27:25.2	5.060	0.380	-0.660	-0.190
2020/01/31 20:27:25.3	5.070	0.360	-0.610	-0.180
2020/01/31 20:27:25.4	5.080	0.340	-0.560	-0.160
2020/01/31 20:27:25.5	5.090	0.310	-0.500	-0.150
2020/01/31 20:27:25.6	5.090	0.280	-0.450	-0.140
2020/01/31 20:27:25.7	5.100	0.250	-0.390	-0.120
2020/01/31 20:27:25.8	5.110	0.210	-0.330	-0.110
2020/01/31 20:27:25.9	5.120	0.170	-0.280	-0.100
2020/01/31 20:27:26.0	5.120	0.120	-0.220	-0.090
2020/01/31 20:27:26.1	5.120	0.080	-0.170	-0.080
2020/01/31 20:27:26.2	5.120	0.030	-0.110	-0.070
2020/01/31 20:27:26.3	5.120	-0.020	-0.060	-0.070
2020/01/31 20:27:26.4	5.120	-0.070	-0.010	-0.060
2020/01/31 20:27:26.5	5.120	-0.120	0.030	-0.060
2020/01/31 20:27:26.6	5.120	-0.160	0.080	-0.050
2020/01/31 20:27:26.7	5.120	-0.210	0.110	-0.040
2020/01/31 20:27:26.8	5.110	-0.260	0.150	-0.040
2020/01/31 20:27:26.9	5.100	-0.300	0.180	-0.040
2020/01/31 20:27:27.0	5.100	-0.340	0.200	-0.040
2020/01/31 20:27:27.1	5.100	-0.380	0.220	-0.030
2020/01/31 20:27:27.2	5.090	-0.420	0.240	-0.030
2020/01/31 20:27:27.3	5.090	-0.450	0.250	-0.030
2020/01/31 20:27:27.4	5.090	-0.470	0.250	-0.030
2020/01/31 20:27:27.5	5.080	-0.500	0.260	-0.030
2020/01/31 20:27:27.6	5.080	-0.510	0.250	-0.030
2020/01/31 20:27:27.7	5.070	-0.520	0.250	-0.030
2020/01/31 20:27:27.8	5.070	-0.530	0.240	-0.030
2020/01/31 20:27:27.9	5.050	-0.530	0.220	-0.020
2020/01/31 20:27:28.0	5.050	-0.530	0.200	-0.020
2020/01/31 20:27:28.1	5.040	-0.520	0.180	-0.010
2020/01/31 20:27:28.2	5.030	-0.500	0.160	-0.010
2020/01/31 20:27:28.3	5.020	-0.480	0.140	0.000
2020/01/31 20:27:28.4	5.000	-0.450	0.120	0.010
2020/01/31 20:27:28.5	4.990	-0.420	0.100	0.030
2020/01/31 20:27:28.6	4.970	-0.390	0.080	0.050
2020/01/31 20:27:28.7	4.950	-0.350	0.060	0.060
2020/01/31 20:27:28.8	4.930	-0.300	0.040	0.090
2020/01/31 20:27:28.9	4.900	-0.250	0.020	0.110
2020/01/31 20:27:29.0	4.880	-0.200	0.000	0.140
2020/01/31 20:27:29.1	4.860	-0.140	-0.020	0.170
2020/01/31 20:27:29.2	4.840	-0.080	-0.030	0.200
2020/01/31 20:27:29.3	4.820	-0.020	-0.050	0.240
2020/01/31 20:27:29.4	4.790	0.040	-0.060	0.270
2020/01/31 20:27:29.5	4.770	0.100	-0.070	0.310
2020/01/31 20:27:29.6	4.750	0.170	-0.080	0.350
2020/01/31 20:27:29.7	4.730	0.230	-0.090	0.390
2020/01/31 20:27:29.8	4.710	0.300	-0.090	0.430
2020/01/31 20:27:29.9	4.700	0.360	-0.100	0.470
2020/01/31 20:27:30.0	4.680	0.420	-0.110	0.510
2020/01/31 20:27:30.1	4.670	0.480	-0.110	0.540
2020/01/31 20:27:30.2	4.660	0.540	-0.120	0.580
2020/01/31 20:27:30.3	4.650	0.590	-0.120	0.610
2020/01/31 20:27:30.4	4.640	0.650	-0.130	0.640
2020/01/31 20:27:30.5	4.640	0.690	-0.140	0.670
2020/01/31 20:27:30.6	4.640	0.740	-0.140	0.690
2020/01/31 20:27:30.7	4.650	0.780	-0.150	0.710
2020/01/31 20:27:30.8	4.650	0.810	-0.160	0.730
2020/01/31 20:27:30.9	4.660	0.840	-0.170	0.740
2020/01/31 20:27:31.0	4.680	0.860	-0.180	0.740
2020/01/31 20:27:31.1	4.690	0.880	-0.190	0.740
2020/01/31 20:27:31.2	4.700	0.890	-0.200	0.740
2020/01/31 20:27:31.3	4.720	0.900	-0.220	0.730
2020/01/31 20:27:31.4	4.730	0.900	-0.230	0.720
2020/01/31 20:27:31.5	4.750	0.890	-0.240	0.700
2020/01/31 20:27:31.6	4.760	0.880	-0.250	0.680
2020/01/31 20:27:31.7	4.780	0.860	-0.260	0.650
2020/01/31 20:27:31.8	4.800	0.840	-0.280	0.620
2020/01/31 20:27:31.9	4.820	0.810	-0.290	0.580
2020/01/31 20:27:32.0	4.840	0.770	-0.300	0.540
2020/01/31 20:27:32.1	4.850	0.730	-0.300	0.500
2020/01/31 20:27:32.2	4.860	0.680	-0.310	0.460
2020/01/31 20:27:32.3	4.870	0.620	-0.320	0.410
2020/01/31 20:27:32.4	4.880	0.560	-0.320	0.360
2020/01/31 20:27:32.5	4.880	0.500	-0.320	0.310
2020/01/31 20:27:32.6	4.880	0.430	-0.320	0.250
2020/01/31 20:27:32.7	4.890	0.360	-0.320	0.200
2020/01/31 20:27:32.8	4.890	0.290	-0.310	0.140
2020/01/31 20:27:32.9	4.890	0.220	-0.310	0.080
2020/01/31 20:27:33.0	4.890	0.140	-0.300	0.020
2020/01/31 20:27:33.1	4.880	0.060	-0.290	-0.040
2020/01/31 20:27:33.2	4.880	-0.020	-0.280	-0.100
2020/01/31 20:27:33.3	4.870	-0.100	-0.260	-0.160
2020/01/31 20:27:33.4	4.870	-0.180	-0.250	-0.220
2020/01/31 20:27:33.5	4.860	-0.260	-0.240	-0.280
2020/01/31 20:27:33.6	4.860	-0.340	-0.220	-0.340
2020/01/31 20:27:33.7	4.850	-0.410	-0.210	-0.400
2020/01/31 20:27:33.8	4.850	-0.480	-0.200	-0.460
2020/01/31 20:27:33.9	4.840	-0.550	-0.190	-0.520
2020/01/31 20:27:34.0	4.840	-0.620	-0.180	-0.580
2020/01/31 20:27:34.1	4.840	-0.680	-0.180	-0.640
2020/01/31 20:27:34.2	4.840	-0.740	-0.170	-0.700
2020/01/31 20:27:34.3	4.850	-0.790	-0.170	-0.760
2020/01/31 20:27:34.4	4.850	-0.840	-0.170	-0.820
2020/01/31 20:27:34.5	4.860	-0.880	-0.180	-0.880
2020/01/31 20:27:34.6	4.880	-0.910	-0.180	-0.940
2020/01/31 20:27:34.7	4.890	-0.940	-0.200	-0.990
2020/01/31 20:27:34.8	4.910	-0.960	-0.210	-1.050
2020/01/31 20:27:34.9	4.910	-0.980	-0.230	-1.100
2020/01/31 20:27:35.0	4.930	-0.990	-0.250	-1.150
2020/01/31 20:27:35.1	4.960	-0.990	-0.270	-1.190
2020/01/31 20:27:35.2	4.980	-0.980	-0.290	-1.240
2020/01/31 20:27:35.3	5.010	-0.970	-0.310	-1.270
2020/01/31 20:27:35.4	5.040	-0.960	-0.340	-1.300
2020/01/31 20:27:35.5	5.060	-0.930	-0.360	-1.330
2020/01/31 20:27:35.6	5.090	-0.900	-0.390	-1.350
2020/01/31 20:27:35.7	5.120	-0.870	-0.410	-1.370
2020/01/31 20:27:35.8	5.150	-0.830	-0.440	-1.380
2020/01/31 20:27:35.9	5.180	-0.780	-0.460	-1.380
2020/01/31 20:27:36.0	5.210	-0.730	-0.480	-1.380
2020/01/31 20:27:36.1	5.240	-0.680	-0.490	-1.360
2020/01/31 20:27:36.2	5.270	-0.620	-0.510	-1.350
2020/01/31 20:27:36.3	5.300	-0.560	-0.520	-1.320
2020/01/31 20:27:36.4	5.320	-0.500	-0.520	-1.290
2020/01/31 20:27:36.5	5.340	-0.430	-0.520	-1.260
2020/01/31 20:27:36.6	5.360	-0.370	-0.520	-1.210
2020/01/31 20:27:36.7	5.380	-0.300	-0.510	-1.160
2020/01/31 20:27:36.8	5.400	-0.240	-0.500	-1.110
2020/01/31 20:27:36.9	5.410	-0.170	-0.490	-1.050
2020/01/31 20:27:37.0	5.420	-0.110	-0.470	-0.980
2020/01/31 20:27:37.1	5.430	-0.050	-0.450	-0.910
2020/01/31 20:27:37.2	5.430	0.010	-0.430	-0.840
2020/01/31 20:27:37.3	5.440	0.070	-0.400	-0.760
2020/01/31 20:27:37.4	5.440	0.120	-0.370	-0.680
2020/01/31 20:27:37.5	5.440	0.170	-0.350	-0.600
2020/01/31 20:27:37.6	5.430	0.210	-0.320	-0.520
2020/01/31 20:27:37.7	5.430	0.260	-0.290	-0.430
2020/01/31 20:27:37.8	5.420	0.290	-0.260	-0.340
2020/01/31 20:27:37.9	5.390	0.330	-0.230	-0.250
2020/01/31 20:27:38.0	5.380	0.350	-0.200	-0.160
2020/01/31 20:27:38.1	5.360	0.380	-0.180	-0.080
2020/01/31 20:27:38.2	5.350	0.400	-0.150	0.010
2020/01/31 20:27:38.3	5.330	0.410	-0.130	0.090
2020/01/31 20:27:38.4	5.310	0.420	-0.110	0.170
2020/01/31 20:27:38.5	5.300	0.430	-0.100	0.250
2020/01/31 20:27:38.6	5.280	0.430	-0.080	0.320
2020/01/31 20:27:38.7	5.260	0.430	-0.070	0.390
2020/01/31 20:27:38.8	5.240	0.420	-0.070	0.450
2020/01/31 20:27:38.9	5.230	0.410	-0.060	0.510
2020/01/31 20:27:39.0	5.210	0.400	-0.060	0.560
2020/01/31 20:27:39.1	5.190	0.380	-0.070	0.610
2020/01/31 20:27:39.2	5.170	0.370	-0.080	0.650
2020/01/31 20:27:39.3	5.160	0.350	-0.090	0.680
2020/01/31 20:27:39.4	5.140	0.330	-0.100	0.710
2020/01/31 20:27:39.5	5.120	0.310	-0.120	0.730
2020/01/31 20:27:39.6	5.110	0.290	-0.140	0.740
2020/01/31 20:27:39.7	5.090	0.270	-0.160	0.750
2020/01/31 20:27:39.8	5.080	0.240	-0.180	0.760
2020/01/31 20:27:39.9	5.070	0.220	-0.210	0.760
2020/01/31 20:27:40.0	5.050	0.200	-0.230	0.760
2020/01/31 20:27:40.1	5.040	0.180	-0.250	0.750
2020/01/31 20:27:40.2	5.030	0.160	-0.280	0.740
2020/01/31 20:27:40.3	5.020	0.150	-0.300	0.730
2020/01/31 20:27:40.4	5.010	0.130	-0.320	0.710
2020/01/31 20:27:40.5	4.990	0.120	-0.340	0.690
2020/01/31 20:27:40.6	4.990	0.110	-0.360	0.670
2020/01/31 20:27:40.7	4.980	0.100	-0.380	0.650
2020/01/31 20:27:40.8	4.970	0.090	-0.400	0.630
2020/01/31 20:27:40.9	4.960	0.090	-0.420	0.600
2020/01/31 20:27:41.0	4.960	0.080	-0.430	0.570
2020/01/31 20:27:41.1	4.950	0.080	-0.440	0.550
2020/01/31 20:27:41.2	4.950	0.090	-0.450	0.520
2020/01/31 20:27:41.3	4.950	0.090	-0.460	0.490
2020/01/31 20:27:41.4	4.950	0.100	-0.470	0.450
2020/01/31 20:27:41.5	4.950	0.110	-0.470	0.420
2020/01/31 20:27:41.6	4.960	0.120	-0.480	0.380
2020/01/31 20:27:41.7	4.970	0.130	-0.480	0.350
2020/01/31 20:27:41.8	4.980	0.150	-0.480	0.310
2020/01/31 20:27:41.9	4.990	0.170	-0.480	0.270
2020/01/31 20:27:42.0	5.000	0.180	-0.480	0.230
2020/01/31 20:27:42.1	5.020	0.200	-0.480	0.190
2020/01/31 20:27:42.2	5.030	0.220	-0.470	0.150
2020/01/31 20:27:42.3	5.050	0.240	-0.470	0.100
2020/01/31 20:27:42.4	5.070	0.260	-0.460	0.060
2020/01/31 20:27:42.5	5.080	0.280	-0.460	0.020
2020/01/31 20:27:42.6	5.100	0.300	-0.450	-0.020
2020/01/31 20:27:42.7	5.120	0.310	-0.440	-0.060
2020/01/31 20:27:42.8	5.130	0.330	-0.430	-0.090
2020/01/31 20:27:42.9	5.150	0.340	-0.430	-0.130
2020/01/31 20:27:43.0	5.160	0.360	-0.410	-0.170
2020/01/31 20:27:43.1	5.180	0.370	-0.400	-0.200
2020/01/31 20:27:43.2	5.190	0.380	-0.390	-0.230
2020/01/31 20:27:43.3	5.200	0.380	-0.370	-0.260
2020/01/31 20:27:43.4	5.210	0.390	-0.360	-0.290
2020/01/31 20:27:43.5	5.220	0.390	-0.340	-0.320
2020/01/31 20:27:43.6	5.230	0.380	-0.320	-0.350
2020/01/31 20:27:43.7	5.230	0.380	-0.300	-0.380
2020/01/31 20:27:43.8	5.240	0.370	-0.290	-0.400
2020/01/31 20:27:43.9	5.240	0.360	-0.270	-0.420
2020/01/31 20:27:44.0	5.240	0.350	-0.250	-0.440
2020/01/31 20:27:44.1	5.250	0.330	-0.230	-0.460
2020/01/31 20:27:44.2	5.250	0.310	-0.210	-0.480
2020/01/31 20:27:44.3	5.260	0.290	-0.190	-0.500
2020/01/31 20:27:44.4	5.260	0.260	-0.170	-0.510
2020/01/31 20:27:44.5	5.270	0.230	-0.160	-0.530
2020/01/31 20:27:44.6	5.270	0.210	-0.140	-0.540
2020/01/31 20:27:44.7	5.280	0.170	-0.120	-0.550
2020/01/31 20:27:44.8	5.280	0.140	-0.100	-0.560
2020/01/31 20:27:44.9	5.290	0.110	-0.090	-0.570
2020/01/31 20:27:45.0	5.290	0.070	-0.070	-0.580
2020/01/31 20:27:45.1	5.300	0.030	-0.060	-0.580
2020/01/31 20:27:45.2	5.300	-0.000	-0.040	-0.590
2020/01/31 20:27:45.3	5.300	-0.040	-0.030	-0.590
2020/01/31 20:27:45.4	5.310	-0.080	-0.020	-0.590
2020/01/31 20:27:45.5	5.310	-0.120	-0.010	-0.590
2020/01/31 20:27:45.6	5.310	-0.160	0.010	-0.590
2020/01/31 20:27:45.7	5.310	-0.190	0.020	-0.580
2020/01/31 20:27:45.8	5.310	-0.230	0.030	-0.580
2020/01/31 20:27:45.9	5.310	-0.270	0.030	-0.570
2020/01/31 20:27:46.0	5.300	-0.300	0.040	-0.560
2020/01/31 20:27:46.1	5.300	-0.330	0.050	-0.540
2020/01/31 20:27:46.2	5.300	-0.360	0.060	-0.530
2020/01/31 20:27:46.3	5.300	-0.390	0.070	-0.510
2020/01/31 20:27:46.4	5.290	-0.410	0.070	-0.490
2020/01/31 20:27:46.5	5.290	-0.440	0.080	-0.470
2020/01/31 20:27:46.6	5.280	-0.460	0.090	-0.440
2020/01/31 20:27:46.7	5.280	-0.480	0.090	-0.420
2020/01/31 20:27:46.8	5.270	-0.490	0.100	-0.400
2020/01/31 20:27:46.9	5.270	-0.500	0.100	-0.370
2020/01/31 20:27:47.0	5.270	-0.510	0.110	-0.350
2020/01/31 20:27:47.1	5.260	-0.520	0.110	-0.320
2020/01/31 20:27:47.2	5.260	-0.520	0.110	-0.300
2020/01/31 20:27:47.3	5.250	-0.520	0.110	-0.270
2020/01/31 20:27:47.4	5.250	-0.520	0.110	-0.250
2020/01/31 20:27:47.5	5.250	-0.510	0.100	-0.230
2020/01/31 20:27:47.6	5.250	-0.510	0.100	-0.210
2020/01/31 20:27:47.7	5.240	-0.490	0.090	-0.190
2020/01/31 20:27:47.8	5.240	-0.480	0.070	-0.170
2020/01/31 20:27:47.9	5.240	-0.460	0.060	-0.160
2020/01/31 20:27:48.0	5.240	-0.450	0.040	-0.140
2020/01/31 20:27:48.1	5.240	-0.430	0.020	-0.120
2020/01/31 20:27:48.2	5.230	-0.400	-0.010	-0.100
2020/01/31 20:27:48.3	5.230	-0.380	-0.030	-0.090
2020/01/31 20:27:48.4	5.230	-0.350	-0.060	-0.070
2020/01/31 20:27:48.5	5.230	-0.330	-0.090	-0.060
2020/01/31 20:27:48.6	5.220	-0.300	-0.120	-0.040
2020/01/31 20:27:48.7	5.220	-0.270	-0.150	-0.030
2020/01/31 20:27:48.8	5.210	-0.240	-0.190	-0.010
2020/01/31 20:27:48.9	5.210	-0.210	-0.220	0.010
2020/01/31 20:27:49.0	5.200	-0.180	-0.260	0.020
2020/01/31 20:27:49.1	5.200	-0.150	-0.300	0.040
2020/01/31 20:27:49.2	5.190	-0.130	-0.330	0.050
2020/01/31 20:27:49.3	5.190	-0.100	-0.370	0.060
2020/01/31 20:27:49.4	5.180	-0.070	-0.400	0.070
2020/01/31 20:27:49.5	5.180	-0.050	-0.430	0.080
2020/01/31 20:27:49.6	5.170	-0.020	-0.470	0.090
2020/01/31 20:27:49.7	5.170	0.000	-0.500	0.100
2020/01/31 20:27:49.8	5.160	0.020	-0.520	0.100
2020/01/31 20:27:49.9	5.160	0.040	-0.550	0.100
2020/01/31 20:27:50.0	5.150	0.060	-0.580	0.100
2020/01/31 20:27:50.1	5.150	0.080	-0.600	0.110
2020/01/31 20:27:50.2	5.140	0.090	-0.620	0.100
2020/01/31 20:27:50.3	5.140	0.110	-0.630	0.100
2020/01/31 20:27:50.4	5.130	0.120	-0.640	0.100
2020/01/31 20:27:50.5	5.130	0.130	-0.650	0.100
2020/01/31 20:27:50.6	5.120	0.140	-0.650	0.090
2020/01/31 20:27:50.7	5.120	0.150	-0.650	0.090
2020/01/31 20:27:50.8	5.110	0.160	-0.650	0.080
2020/01/31 20:27:50.9	5.110	0.160	-0.640	0.070
2020/01/31 20:27:51.0	5.100	0.170	-0.630	0.060
2020/01/31 20:27:51.1	5.100	0.180	-0.610	0.060
2020/01/31 20:27:51.2	5.090	0.180	-0.600	0.050
2020/01/31 20:27:51.3	5.090	0.190	-0.580	0.050
2020/01/31 20:27:51.4	5.080	0.190	-0.550	0.040
2020/01/31 20:27:51.5	5.080	0.190	-0.530	0.040
2020/01/31 20:27:51.6	5.080	0.200	-0.500	0.040
2020/01/31 20:27:51.7	5.070	0.200	-0.460	0.030
2020/01/31 20:27:51.8	5.070	0.210	-0.430	0.030
2020/01/31 20:27:51.9	5.070	0.210	-0.400	0.030
2020/01/31 20:27:52.0	5.070	0.220	-0.360	0.040
2020/01/31 20:27:52.1	5.070	0.230	-0.320	0.040
2020/01/31 20:27:52.2	5.070	0.230	-0.290	0.050
2020/01/31 20:27:52.3	5.070	0.240	-0.250	0.050
2020/01/31 20:27:52.4	5.070	0.250	-0.210	0.060
2020/01/31 20:27:52.5	5.080	0.260	-0.180	0.080
2020/01/31 20:27:52.6	5.080	0.270	-0.140	0.090
2020/01/31 20:27:52.7	5.080	0.280	-0.110	0.100
2020/01/31 20:27:52.8	5.080	0.290	-0.080	0.120
2020/01/31 20:27:52.9	5.070	0.300	-0.050	0.130
2020/01/31 20:27:53.0	5.080	0.310	-0.020	0.140
2020/01/31 20:27:53.1	5.080	0.310	0.000	0.160
2020/01/31 20:27:53.2	5.080	0.320	0.020	0.170
2020/01/31 20:27:53.3	5.080	0.330	0.040	0.190
2020/01/31 20:27:53.4	5.080	0.330	0.050	0.200
2020/01/31 20:27:53.5	5.080	0.330	0.060	0.210
2020/01/31 20:27:53.6	5.080	0.330	0.070	0.210
2020/01/31 20:27:53.7	5.080	0.330	0.070	0.220
2020/01/31 20:27:53.8	5.080	0.330	0.070	0.220
2020/01/31 20:27:53.9	5.080	0.320	0.070	0.220
2020/01/31 20:27:54.0	5.070	0.320	0.060	0.220
2020/01/31 20:27:54.1	5.070	0.310	0.040	0.210
2020/01/31 20:27:54.2	5.060	0.300	0.030	0.200
2020/01/31 20:27:54.3	5.060	0.280	0.010	0.190
2020/01/31 20:27:54.4	5.050	0.260	-0.010	0.170
2020/01/31 20:27:54.5	5.040	0.250	-0.040	0.150
2020/01/31 20:27:54.6	5.030	0.230	-0.070	0.120
2020/01/31 20:27:54.7	5.030	0.200	-0.100	0.090
2020/01/31 20:27:54.8	5.020	0.180	-0.130	0.060
2020/01/31 20:27:54.9	5.030	0.150	-0.170	0.020
2020/01/31 20:27:55.0	5.020	0.130	-0.210	-0.020
2020/01/31 20:27:55.1	5.020	0.100	-0.250	-0.060
2020/01/31 20:27:55.2	5.010	0.070	-0.290	-0.110
2020/01/31 20:27:55.3	5.010	0.040	-0.330	-0.160
2020/01/31 20:27:55.4	5.020	0.010	-0.370	-0.200
2020/01/31 20:27:55.5	5.020	-0.020	-0.420	-0.250
2020/01/31 20:27:55.6	5.020	-0.050	-0.460	-0.310
2020/01/31 20:27:55.7	5.030	-0.080	-0.510	-0.360
2020/01/31 20:27:55.8	5.050	-0.100	-0.550	-0.410
2020/01/31 20:27:55.9	5.060	-0.130	-0.600	-0.470
2020/01/31 20:27:56.0	5.080	-0.150	-0.640	-0.530
2020/01/31 20:27:56.1	5.100	-0.170	-0.680	-0.580
2020/01/31 20:27:56.2	5.120	-0.190	-0.720	-0.640
2020/01/31 20:27:56.3	5.150	-0.210	-0.760	-0.700
2020/01/31 20:27:56.4	5.170	-0.220	-0.800	-0.750
2020/01/31 20:27:56.5	5.200	-0.230	-0.830	-0.800
2020/01/31 20:27:56.6	5.240	-0.240	-0.860	-0.850
2020/01/31 20:27:56.7	5.270	-0.250	-0.880	-0.900
2020/01/31 20:27:56.8	5.300	-0.250	-0.900	-0.950
2020/01/31 20:27:56.9	5.340	-0.250	-0.910	-0.990
2020/01/31 20:27:57.0	5.370	-0.250	-0.920	-1.030
2020/01/31 20:27:57.1	5.410	-0.250	-0.920	-1.060
2020/01/31 20:27:57.2	5.440	-0.240	-0.920	-1.090
2020/01/31 20:27:57.3	5.470	-0.230	-0.910	-1.110
2020/01/31 20:27:57.4	5.490	-0.220	-0.890	-1.120
2020/01/31 20:27:57.5	5.520	-0.210	-0.870	-1.130
2020/01/31 20:27:57.6	5.540	-0.200	-0.840	-1.130
2020/01/31 20:27:57.7	5.570	-0.190	-0.800	-1.130
2020/01/31 20:27:57.8	5.580	-0.170	-0.760	-1.120
2020/01/31 20:27:57.9	5.600	-0.160	-0.720	-1.100
2020/01/31 20:27:58.0	5.610	-0.140	-0.670	-1.070
2020/01/31 20:27:58.1	5.620	-0.120	-0.610	-1.040
2020/01/31 20:27:58.2	5.630	-0.110	-0.550	-1.000
2020/01/31 20:27:58.3	5.630	-0.090	-0.490	-0.960
2020/01/31 20:27:58.4	5.640	-0.080	-0.420	-0.910
2020/01/31 20:27:58.5	5.640	-0.060	-0.350	-0.860
2020/01/31 20:27:58.6	5.640	-0.050	-0.280	-0.810
2020/01/31 20:27:58.7	5.640	-0.040	-0.210	-0.750
2020/01/31 20:27:58.8	5.630	-0.030	-0.140	-0.690
2020/01/31 20:27:58.9	5.630	-0.010	-0.070	-0.620
2020/01/31 20:27:59.0	5.630	-0.000	-0.000	-0.560
2020/01/31 20:27:59.1	5.630	0.000	0.070	-0.490
2020/01/31 20:27:59.2	5.620	0.010	0.130	-0.430
2020/01/31 20:27:59.3	5.620	0.020	0.190	-0.360
2020/01/31 20:27:59.4	5.610	0.020	0.250	-0.300
2020/01/31 20:27:59.5	5.610	0.030	0.300	-0.240
2020/01/31 20:27:59.6	5.610	0.030	0.350	-0.180
2020/01/31 20:27:59.7	5.610	0.030	0.390	-0.120
2020/01/31 20:27:59.8	5.610	0.030	0.430	-0.060
2020/01/31 20:27:59.9	5.600	0.030	0.460	-0.010
2020/01/31 20:28:00.0	5.600	0.030	0.490	0.040
2020/01/31 20:28:00.1	5.600	0.030	0.510	0.080
2020/01/31 20:28:00.2	5.600	0.030	0.520	0.130
2020/01/31 20:28:00.3	5.600	0.030	0.530	0.170
2020/01/31 20:28:00.4	5.610	0.030	0.530	0.210
2020/01/31 20:28:00.5	5.610	0.030	0.530	0.240
2020/01/31 20:28:00.6	5.610	0.030	0.520	0.280
2020/01/31 20:28:00.7	5.610	0.020	0.510	0.310
2020/01/31 20:28:00.8	5.610	0.020	0.490	0.330
2020/01/31 20:28:00.9	5.600	0.010	0.470	0.360
2020/01/31 20:28:01.0	5.600	0.010	0.450	0.380
2020/01/31 20:28:01.1	5.590	0.010	0.420	0.400
2020/01/31 20:28:01.2	5.590	0.000	0.390	0.420
2020/01/31 20:28:01.3	5.580	-0.000	0.360	0.440
2020/01/31 20:28:01.4	5.570	-0.010	0.330	0.450
2020/01/31 20:28:01.5	5.560	-0.020	0.300	0.460
2020/01/31 20:28:01.6	5.550	-0.020	0.260	0.470
2020/01/31 20:28:01.7	5.540	-0.030	0.230	0.470
2020/01/31 20:28:01.8	5.520	-0.040	0.190	0.470
2020/01/31 20:28:01.9	5.500	-0.050	0.150	0.470
2020/01/31 20:28:02.0	5.490	-0.060	0.120	0.470
2020/01/31 20:28:02.1	5.470	-0.060	0.080	0.470
2020/01/31 20:28:02.2	5.450	-0.070	0.040	0.460
2020/01/31 20:28:02.3	5.440	-0.080	0.010	0.450
2020/01/31 20:28:02.4	5.420	-0.090	-0.030	0.440
2020/01/31 20:28:02.5	5.400	-0.100	-0.060	0.430
2020/01/31 20:28:02.6	5.380	-0.110	-0.100	0.420
2020/01/31 20:28:02.7	5.370	-0.120	-0.130	0.400
2020/01/31 20:28:02.8	5.350	-0.130	-0.170	0.380
2020/01/31 20:28:02.9	5.330	-0.130	-0.200	0.360
2020/01/31 20:28:03.0	5.320	-0.140	-0.230	0.340
2020/01/31 20:28:03.1	5.310	-0.150	-0.270	0.320
2020/01/31 20:28:03.2	5.290	-0.150	-0.300	0.290
2020/01/31 20:28:03.3	5.280	-0.160	-0.330	0.270
2020/01/31 20:28:03.4	5.280	-0.160	-0.370	0.240
2020/01/31 20:28:03.5	5.270	-0.160	-0.400	0.210
2020/01/31 20:28:03.6	5.260	-0.170	-0.430	0.180
2020/01/31 20:28:03.7	5.260	-0.160	-0.460	0.150
2020/01/31 20:28:03.8	5.260	-0.160	-0.490	0.120
2020/01/31 20:28:03.9	5.260	-0.160	-0.520	0.080
2020/01/31 20:28:04.0	5.260	-0.150	-0.550	0.060
2020/01/31 20:28:04.1	5.260	-0.150	-0.570	0.030
2020/01/31 20:28:04.2	5.260	-0.140	-0.600	0.010
2020/01/31 20:28:04.3	5.260	-0.130	-0.620	-0.020
2020/01/31 20:28:04.4	5.260	-0.120	-0.630	-0.040
2020/01/31 20:28:04.5	5.250	-0.100	-0.650	-0.060
2020/01/31 20:28:04.6	5.250	-0.090	-0.660	-0.080
2020/01/31 20:28:04.7	5.250	-0.070	-0.670	-0.090
2020/01/31 20:28:04.8	5.250	-0.050	-0.670	-0.110
2020/01/31 20:28:04.9	5.260	-0.030	-0.680	-0.120
2020/01/31 20:28:05.0	5.260	-0.010	-0.680	-0.130
2020/01/31 20:28:05.1	5.260	0.010	-0.680	-0.140
2020/01/31 20:28:05.2	5.250	0.030	-0.670	-0.140
2020/01/31 20:28:05.3	5.250	0.050	-0.670	-0.150
2020/01/31 20:28:05.4	5.260	0.080	-0.660	-0.150
2020/01/31 20:28:05.5	5.260	0.100	-0.650	-0.160
2020/01/31 20:28:05.6	5.260	0.130	-0.640	-0.160
2020/01/31 20:28:05.7	5.260	0.150	-0.630	-0.160
2020/01/31 20:28:05.8	5.260	0.170	-0.610	-0.160
2020/01/31 20:28:05.9	5.260	0.200	-0.600	-0.160
2020/01/31 20:28:06.0	5.270	0.220	-0.580	-0.170
2020/01/31 20:28:06.1	5.270	0.240	-0.570	-0.170
2020/01/31 20:28:06.2	5.280	0.260	-0.550	-0.170
2020/01/31 20:28:06.3	5.290	0.280	-0.540	-0.180
2020/01/31 20:28:06.4	5.300	0.300	-0.530	-0.180
2020/01/31 20:28:06.5	5.320	0.320	-0.510	-0.190
2020/01/31 20:28:06.6	5.330	0.340	-0.500	-0.200
2020/01/31 20:28:06.7	5.350	0.350	-0.490	-0.210
2020/01/31 20:28:06.8	5.370	0.360	-0.480	-0.220
2020/01/31 20:28:06.9	5.390	0.370	-0.480	-0.230
2020/01/31 20:28:07.0	5.420	0.380	-0.470	-0.250
2020/01/31 20:28:07.1	5.440	0.390	-0.470	-0.260
2020/01/31 20:28:07.2	5.470	0.400	-0.470	-0.280
2020/01/31 20:28:07.3	5.490	0.400	-0.470	-0.290
2020/01/31 20:28:07.4	5.520	0.400	-0.470	-0.310
2020/01/31 20:28:07.5	5.550	0.400	-0.470	-0.330
2020/01/31 20:28:07.6	5.580	0.400	-0.470	-0.340
2020/01/31 20:28:07.7	5.610	0.390	-0.470	-0.350
2020/01/31 20:28:07.8	5.640	0.380	-0.470	-0.370
2020/01/31 20:28:07.9	5.670	0.370	-0.480	-0.380
2020/01/31 20:28:08.0	5.690	0.350	-0.480	-0.390
2020/01/31 20:28:08.1	5.720	0.340	-0.480	-0.400
2020/01/31 20:28:08.2	5.740	0.320	-0.480	-0.410
2020/01/31 20:28:08.3	5.770	0.290	-0.480	-0.420
2020/01/31 20:28:08.4	5.790	0.270	-0.480	-0.430
2020/01/31 20:28:08.5	5.810	0.240	-0.470	-0.430
2020/01/31 20:28:08.6	5.830	0.210	-0.470	-0.440
2020/01/31 20:28:08.7	5.850	0.170	-0.460	-0.440
2020/01/31 20:28:08.8	5.860	0.140	-0.460	-0.450
2020/01/31 20:28:08.9	5.880	0.100	-0.450	-0.450
2020/01/31 20:28:09.0	5.890	0.060	-0.440	-0.450
2020/01/31 20:28:09.1	5.910	0.020	-0.430	-0.450
2020/01/31 20:28:09.2	5.920	-0.020	-0.410	-0.450
2020/01/31 20:28:09.3	5.920	-0.070	-0.400	-0.450
2020/01/31 20:28:09.4	5.930	-0.110	-0.380	-0.450
2020/01/31 20:28:09.5	5.930	-0.150	-0.360	-0.450
2020/01/31 20:28:09.6	5.940	-0.200	-0.340	-0.450
2020/01/31 20:28:09.7	5.940	-0.240	-0.310	-0.440
2020/01/31 20:28:09.8	5.940	-0.290	-0.290	-0.430
2020/01/31 20:28:09.9	5.940	-0.330	-0.260	-0.430
2020/01/31 20:28:10.0	5.930	-0.370	-0.230	-0.420
2020/01/31 20:28:10.1	5.930	-0.410	-0.200	-0.400
2020/01/31 20:28:10.2	5.920	-0.450	-0.170	-0.390
2020/01/31 20:28:10.3	5.910	-0.480	-0.130	-0.370
2020/01/31 20:28:10.4	5.890	-0.520	-0.100	-0.350
2020/01/31 20:28:10.5	5.880	-0.550	-0.060	-0.330
2020/01/31 20:28:10.6	5.860	-0.570	-0.020	-0.310
2020/01/31 20:28:10.7	5.850	-0.600	0.010	-0.280
2020/01/31 20:28:10.8	5.830	-0.620	0.050	-0.250
2020/01/31 20:28:10.9	5.810	-0.630	0.090	-0.230
2020/01/31 20:28:11.0	5.790	-0.640	0.120	-0.190
2020/01/31 20:28:11.1	5.780	-0.650	0.160	-0.160
2020/01/31 20:28:11.2	5.760	-0.650	0.190	-0.130
2020/01/31 20:28:11.3	5.740	-0.650	0.220	-0.090
2020/01/31 20:28:11.4	5.720	-0.640	0.250	-0.060
2020/01/31 20:28:11.5	5.700	-0.630	0.280	-0.020
2020/01/31 20:28:11.6	5.680	-0.610	0.300	0.020
2020/01/31 20:28:11.7	5.670	-0.590	0.320	0.050
2020/01/31 20:28:11.8	5.650	-0.570	0.340	0.090
2020/01/31 20:28:11.9	5.630	-0.530	0.350	0.130
2020/01/31 20:28:12.0	5.620	-0.500	0.360	0.170
2020/01/31 20:28:12.1	5.600	-0.460	0.370	0.200
2020/01/31 20:28:12.2	5.600	-0.420	0.370	0.240
2020/01/31 20:28:12.3	5.590	-0.370	0.370	0.280
2020/01/31 20:28:12.4	5.580	-0.320	0.370	0.310
2020/01/31 20:28:12.5	5.570	-0.270	0.360	0.340
2020/01/31 20:28:12.6	5.570	-0.220	0.350	0.380
2020/01/31 20:28:12.7	5.570	-0.160	0.330	0.410
2020/01/31 20:28:12.8	5.560	-0.110	0.310	0.430
2020/01/31 20:28:12.9	5.560	-0.050	0.300	0.460
2020/01/31 20:28:13.0	5.550	0.000	0.270	0.480
2020/01/31 20:28:13.1	5.550	0.060	0.250	0.510
2020/01/31 20:28:13.2	5.550	0.120	0.220	0.530
2020/01/31 20:28:13.3	5.550	0.170	0.190	0.540
2020/01/31 20:28:13.4	5.550	0.220	0.150	0.560
2020/01/31 20:28:13.5	5.550	0.270	0.120	0.570
2020/01/31 20:28:13.6	5.540	0.320	0.090	0.590
2020/01/31 20:28:13.7	5.540	0.360	0.050	0.600
2020/01/31 20:28:13.8	5.530	0.410	0.010	0.610
2020/01/31 20:28:13.9	5.530	0.440	-0.030	0.610
2020/01/31 20:28:14.0	5.520	0.480	-0.070	0.620
2020/01/31 20:28:14.1	5.510	0.510	-0.110	0.620
2020/01/31 20:28:14.2	5.500	0.540	-0.150	0.630
2020/01/31 20:28:14.3	5.480	0.560	-0.190	0.630
2020/01/31 20:28:14.4	5.470	0.580	-0.220	0.630
2020/01/31 20:28:14.5	5.450	0.600	-0.260	0.630
2020/01/31 20:28:14.6	5.440	0.610	-0.300	0.620
2020/01/31 20:28:14.7	5.420	0.610	-0.340	0.620
2020/01/31 20:28:14.8	5.410	0.620	-0.370	0.610
2020/01/31 20:28:14.9	5.390	0.620	-0.410	0.590
2020/01/31 20:28:15.0	5.370	0.610	-0.440	0.580
2020/01/31 20:28:15.1	5.360	0.610	-0.480	0.560
2020/01/31 20:28:15.2	5.340	0.590	-0.510	0.540
2020/01/31 20:28:15.3	5.330	0.580	-0.540	0.520
2020/01/31 20:28:15.4	5.320	0.560	-0.570	0.500
2020/01/31 20:28:15.5	5.310	0.540	-0.600	0.470
2020/01/31 20:28:15.6	5.300	0.520	-0.630	0.440
2020/01/31 20:28:15.7	5.300	0.500	-0.650	0.410
2020/01/31 20:28:15.8	5.290	0.470	-0.670	0.380
2020/01/31 20:28:15.9	5.290	0.440	-0.700	0.340
2020/01/31 20:28:16.0	5.290	0.410	-0.710	0.310
2020/01/31 20:28:16.1	5.280	0.380	-0.730	0.270
2020/01/31 20:28:16.2	5.280	0.350	-0.740	0.230
2020/01/31 20:28:16.3	5.280	0.320	-0.750	0.190
2020/01/31 20:28:16.4	5.280	0.280	-0.750	0.160
2020/01/31 20:28:16.5	5.280	0.250	-0.750	0.120
2020/01/31 20:28:16.6	5.280	0.210	-0.750	0.080
2020/01/31 20:28:16.7	5.280	0.180	-0.740	0.040
2020/01/31 20:28:16.8	5.290	0.140	-0.730	-0.000
2020/01/31 20:28:16.9	5.300	0.100	-0.720	-0.040
2020/01/31 20:28:17.0	5.300	0.060	-0.700	-0.080
2020/01/31 20:28:17.1	5.300	0.030	-0.680	-0.120
2020/01/31 20:28:17.2	5.310	-0.010	-0.660	-0.160
2020/01/31 20:28:17.3	5.310	-0.050	-0.630	-0.200
2020/01/31 20:28:17.4	5.320	-0.090	-0.600	-0.240
2020/01/31 20:28:17.5	5.320	-0.120	-0.570	-0.290
2020/01/31 20:28:17.6	5.330	-0.160	-0.540	-0.330
2020/01/31 20:28:17.7	5.340	-0.190	-0.510	-0.370
2020/01/31 20:28:17.8	5.340	-0.230	-0.480	-0.410
2020/01/31 20:28:17.9	5.350	-0.260	-0.440	-0.450
2020/01/31 20:28:18.0	5.350	-0.290	-0.410	-0.500
2020/01/31 20:28:18.1	5.360	-0.320	-0.370	-0.530
2020/01/31 20:28:18.2	5.370	-0.350	-0.340	-0.570
2020/01/31 20:28:18.3	5.370	-0.380	-0.300	-0.610
2020/01/31 20:28:18.4	5.380	-0.400	-0.270	-0.640
2020/01/31 20:28:18.5	5.390	-0.420	-0.240	-0.680
2020/01/31 20:28:18.6	5.400	-0.440	-0.200	-0.710
2020/01/31 20:28:18.7	5.410	-0.460	-0.180	-0.740
2020/01/31 20:28:18.8	5.420	-0.470	-0.150	-0.770
2020/01/31 20:28:18.9	5.440	-0.480	-0.130	-0.790
2020/01/31 20:28:19.0	5.450	-0.490	-0.110	-0.820
2020/01/31 20:28:19.1	5.470	-0.500	-0.090	-0.840
2020/01/31 20:28:19.2	5.480	-0.500	-0.080	-0.850
2020/01/31 20:28:19.3	5.500	-0.500	-0.070	-0.870
2020/01/31 20:28:19.4	5.520	-0.490	-0.060	-0.880
2020/01/31 20:28:19.5	5.540	-0.480	-0.060	-0.890
2020/01/31 20:28:19.6	5.570	-0.470	-0.060	-0.900
2020/01/31 20:28:19.7	5.590	-0.460	-0.070	-0.900
2020/01/31 20:28:19.8	5.610	-0.440	-0.080	-0.900
2020/01/31 20:28:19.9	5.640	-0.420	-0.090	-0.890
2020/01/31 20:28:20.0	5.660	-0.400	-0.110	-0.890
2020/01/31 20:28:20.1	5.680	-0.380	-0.120	-0.880
2020/01/31 20:28:20.2	5.700	-0.350	-0.140	-0.860
2020/01/31 20:28:20.3	5.720	-0.320	-0.160	-0.840
2020/01/31 20:28:20.4	5.730	-0.300	-0.190	-0.820
2020/01/31 20:28:20.5	5.750	-0.270	-0.210	-0.800
2020/01/31 20:28:20.6	5.760	-0.240	-0.230	-0.780
2020/01/31 20:28:20.7	5.770	-0.210	-0.260	-0.750
2020/01/31 20:28:20.8	5.780	-0.180	-0.280	-0.720
2020/01/31 20:28:20.9	5.790	-0.150	-0.300	-0.690
2020/01/31 20:28:21.0	5.800	-0.120	-0.320	-0.660
2020/01/31 20:28:21.1	5.800	-0.090	-0.340	-0.630
2020/01/31 20:28:21.2	5.810	-0.070	-0.360	-0.590
2020/01/31 20:28:21.3	5.810	-0.040	-0.380	-0.560
2020/01/31 20:28:21.4	5.810	-0.010	-0.390	-0.530
2020/01/31 20:28:21.5	5.810	0.010	-0.400	-0.490
2020/01/31 20:28:21.6	5.810	0.030	-0.410	-0.460
2020/01/31 20:28:21.7	5.810	0.050	-0.420	-0.430
2020/01/31 20:28:21.8	5.810	0.070	-0.420	-0.390
2020/01/31 20:28:21.9	5.800	0.090	-0.430	-0.360
2020/01/31 20:28:22.0	5.800	0.100	-0.420	-0.320
2020/01/31 20:28:22.1	5.800	0.120	-0.420	-0.290
2020/01/31 20:28:22.2	5.800	0.130	-0.410	-0.260
2020/01/31 20:28:22.3	5.810	0.140	-0.390	-0.220
2020/01/31 20:28:22.4	5.820	0.150	-0.380	-0.190
2020/01/31 20:28:22.5	5.820	0.160	-0.360	-0.160
2020/01/31 20:28:22.6	5.830	0.160	-0.350	-0.130
2020/01/31 20:28:22.7	5.840	0.170	-0.330	-0.110
2020/01/31 20:28:22.8	5.860	0.170	-0.310	-0.080
2020/01/31 20:28:22.9	5.870	0.170	-0.280	-0.060
2020/01/31 20:28:23.0	5.880	0.170	-0.260	-0.030
2020/01/31 20:28:23.1	5.890	0.170	-0.230	-0.010
2020/01/31 20:28:23.2	5.900	0.170	-0.210	0.020
2020/01/31 20:28:23.3	5.910	0.170	-0.180	0.040
2020/01/31 20:28:23.4	5.920	0.170	-0.150	0.060
2020/01/31 20:28:23.5	5.930	0.160	-0.120	0.080
2020/01/31 20:28:23.6	5.930	0.160	-0.100	0.100
2020/01/31 20:28:23.7	5.930	0.150	-0.070	0.120
2020/01/31 20:28:23.8	5.930	0.140	-0.040	0.140
2020/01/31 20:28:23.9	5.930	0.130	-0.010	0.160
2020/01/31 20:28:24.0	5.930	0.130	0.010	0.180
2020/01/31 20:28:24.1	5.920	0.120	0.040	0.200
2020/01/31 20:28:24.2	5.900	0.110	0.070	0.210
2020/01/31 20:28:24.3	5.890	0.100	0.090	0.220
2020/01/31 20:28:24.4	5.870	0.090	0.120	0.240
2020/01/31 20:28:24.5	5.850	0.080	0.140	0.250
2020/01/31 20:28:24.6	5.830	0.070	0.160	0.270
2020/01/31 20:28:24.7	5.810	0.060	0.180	0.280
2020/01/31 20:28:24.8	5.780	0.050	0.190	0.290
2020/01/31 20:28:24.9	5.750	0.050	0.210	0.300
2020/01/31 20:28:25.0	5.730	0.040	0.210	0.310
2020/01/31 20:28:25.1	5.700	0.030	0.220	0.310
2020/01/31 20:28:25.2	5.670	0.030	0.220	0.320
2020/01/31 20:28:25.3	5.650	0.020	0.220	0.320
2020/01/31 20:28:25.4	5.620	0.020	0.210	0.320
2020/01/31 20:28:25.5	5.590	0.010	0.200	0.320
2020/01/31 20:28:25.6	5.570	0.010	0.190	0.320
2020/01/31 20:28:25.7	5.550	0.010	0.170	0.310
2020/01/31 20:28:25.8	5.520	0.000	0.150	0.300
2020/01/31 20:28:25.9	5.500	0.000	0.130	0.290
2020/01/31 20:28:26.0	5.480	0.000	0.100	0.270
2020/01/31 20:28:26.1	5.460	0.000	0.070	0.250
2020/01/31 20:28:26.2	5.450	0.000	0.040	0.230
2020/01/31 20:28:26.3	5.430	0.010	0.010	0.200
2020/01/31 20:28:26.4	5.420	0.010	-0.030	0.180
2020/01/31 20:28:26.5	5.410	0.010	-0.060	0.150
2020/01/31 20:28:26.6	5.400	0.010	-0.100	0.120
2020/01/31 20:28:26.7	5.390	0.020	-0.140	0.090
2020/01/31 20:28:26.8	5.390	0.020	-0.180	0.050
2020/01/31 20:28:26.9	5.390	0.030	-0.220	0.020
2020/01/31 20:28:27.0	5.390	0.030	-0.260	-0.010
2020/01/31 20:28:27.1	5.390	0.030	-0.300	-0.050
2020/01/31 20:28:27.2	5.390	0.040	-0.330	-0.080
2020/01/31 20:28:27.3	5.390	0.050	-0.370	-0.110
2020/01/31 20:28:27.4	5.400	0.050	-0.400	-0.150
2020/01/31 20:28:27.5	5.400	0.060	-0.440	-0.180
2020/01/31 20:28:27.6	5.410	0.060	-0.470	-0.210
2020/01/31 20:28:27.7	5.410	0.070	-0.500	-0.240
2020/01/31 20:28:27.8	5.420	0.070	-0.520	-0.260
2020/01/31 20:28:27.9	5.430	0.070	-0.550	-0.290
2020/01/31 20:28:28.0	5.440	0.080	-0.570	-0.320
2020/01/31 20:28:28.1	5.450	0.080	-0.590	-0.340
2020/01/31 20:28:28.2	5.460	0.090	-0.610	-0.360
2020/01/31 20:28:28.3	5.470	0.090	-0.620	-0.380
2020/01/31 20:28:28.4	5.480	0.090	-0.630	-0.400
2020/01/31 20:28:28.5	5.500	0.090	-0.640	-0.420
2020/01/31 20:28:28.6	5.510	0.090	-0.640	-0.430
2020/01/31 20:28:28.7	5.530	0.090	-0.640	-0.450
2020/01/31 20:28:28.8	5.540	0.090	-0.640	-0.460
2020/01/31 20:28:28.9	5.560	0.090	-0.640	-0.470
2020/01/31 20:28:29.0	5.580	0.090	-0.630	-0.480
2020/01/31 20:28:29.1	5.590	0.090	-0.620	-0.490
2020/01/31 20:28:29.2	5.610	0.080	-0.620	-0.500
2020/01/31 20:28:29.3	5.630	0.080	-0.610	-0.500
2020/01/31 20:28:29.4	5.650	0.080	-0.600	-0.510
2020/01/31 20:28:29.5	5.670	0.070	-0.580	-0.510
2020/01/31 20:28:29.6	5.690	0.070	-0.570	-0.510
2020/01/31 20:28:29.7	5.710	0.060	-0.560	-0.510
2020/01/31 20:28:29.8	5.730	0.060	-0.550	-0.500
2020/01/31 20:28:29.9	5.760	0.050	-0.540	-0.500
2020/01/31 20:28:30.0	5.780	0.040	-0.520	-0.490
2020/01/31 20:28:30.1	5.800	0.040	-0.510	-0.480
2020/01/31 20:28:30.2	5.810	0.030	-0.500	-0.470
2020/01/31 20:28:30.3	5.830	0.020	-0.480	-0.450
2020/01/31 20:28:30.4	5.850	0.020	-0.470	-0.440
2020/01/31 20:28:30.5	5.860	0.010	-0.460	-0.420
2020/01/31 20:28:30.6	5.880	0.000	-0.450	-0.400
2020/01/31 20:28:30.7	5.890	-0.010	-0.430	-0.380
2020/01/31 20:28:30.8	5.900	-0.010	-0.420	-0.360
2020/01/31 20:28:30.9	5.920	-0.020	-0.410	-0.330
2020/01/31 20:28:31.0	5.930	-0.030	-0.400	-0.310
2020/01/31 20:28:31.1	5.930	-0.040	-0.390	-0.290
2020/01/31 20:28:31.2	5.940	-0.040	-0.380	-0.260
2020/01/31 20:28:31.3	5.950	-0.050	-0.360	-0.240
2020/01/31 20:28:31.4	5.950	-0.060	-0.350	-0.220
2020/01/31 20:28:31.5	5.950	-0.060	-0.340	-0.200
2020/01/31 20:28:31.6	5.960	-0.070	-0.330	-0.180
2020/01/31 20:28:31.7	5.960	-0.080	-0.320	-0.160
2020/01/31 20:28:31.8	5.970	-0.080	-0.310	-0.140
2020/01/31 20:28:31.9	5.970	-0.090	-0.300	-0.130
2020/01/31 20:28:32.0	5.970	-0.090	-0.290	-0.110
2020/01/31 20:28:32.1	5.970	-0.100	-0.280	-0.100
2020/01/31 20:28:32.2	5.980	-0.100	-0.270	-0.080
2020/01/31 20:28:32.3	5.980	-0.100	-0.250	-0.070
2020/01/31 20:28:32.4	5.980	-0.110	-0.240	-0.060
2020/01/31 20:28:32.5	5.990	-0.110	-0.230	-0.040
2020/01/31 20:28:32.6	5.990	-0.110	-0.220	-0.030
2020/01/31 20:28:32.7	5.990	-0.110	-0.210	-0.030
2020/01/31 20:28:32.8	5.990	-0.120	-0.190	-0.020
2020/01/31 20:28:32.9	5.990	-0.120	-0.180	-0.010
2020/01/31 20:28:33.0	5.990	-0.120	-0.160	-0.000
2020/01/31 20:28:33.1	5.980	-0.130	-0.140	0.000
2020/01/31 20:28:33.2	5.980	-0.130	-0.130	0.000
2020/01/31 20:28:33.3	5.980	-0.140	-0.110	0.000
2020/01/31 20:28:33.4	5.970	-0.140	-0.090	0.000
2020/01/31 20:28:33.5	5.970	-0.150	-0.070	0.000
2020/01/31 20:28:33.6	5.960	-0.150	-0.050	-0.000
2020/01/31 20:28:33.7	5.950	-0.160	-0.030	-0.010
2020/01/31 20:28:33.8	5.940	-0.170	-0.010	-0.010
2020/01/31 20:28:33.9	5.920	-0.180	0.020	-0.020
2020/01/31 20:28:34.0	5.910	-0.190	0.040	-0.030
2020/01/31 20:28:34.1	5.890	-0.200	0.060	-0.040
2020/01/31 20:28:34.2	5.880	-0.210	0.090	-0.050
2020/01/31 20:28:34.3	5.860	-0.220	0.110	-0.060
2020/01/31 20:28:34.4	5.840	-0.230	0.140	-0.070
2020/01/31 20:28:34.5	5.820	-0.240	0.160	-0.080
2020/01/31 20:28:34.6	5.800	-0.260	0.190	-0.100
2020/01/31 20:28:34.7	5.780	-0.270	0.210	-0.110
2020/01/31 20:28:34.8	5.760	-0.280	0.230	-0.120
2020/01/31 20:28:34.9	5.740	-0.290	0.250	-0.130
2020/01/31 20:28:35.0	5.720	-0.300	0.270	-0.140
2020/01/31 20:28:35.1	5.690	-0.310	0.280	-0.140
2020/01/31 20:28:35.2	5.670	-0.320	0.300	-0.150
2020/01/31 20:28:35.3	5.640	-0.320	0.310	-0.150
2020/01/31 20:28:35.4	5.620	-0.330	0.310	-0.160
2020/01/31 20:28:35.5	5.600	-0.330	0.320	-0.160
2020/01/31 20:28:35.6	5.570	-0.330	0.320	-0.160
2020/01/31 20:28:35.7	5.550	-0.330	0.320	-0.160
2020/01/31 20:28:35.8	5.530	-0.320	0.310	-0.150
2020/01/31 20:28:35.9	5.510	-0.310	0.300	-0.160
2020/01/31 20:28:36.0	5.490	-0.300	0.280	-0.150
2020/01/31 20:28:36.1	5.480	-0.290	0.260	-0.150
2020/01/31 20:28:36.2	5.470	-0.270	0.240	-0.150
2020/01/31 20:28:36.3	5.460	-0.250	0.210	-0.150
2020/01/31 20:28:36.4	5.450	-0.220	0.170	-0.150
2020/01/31 20:28:36.5	5.450	-0.190	0.130	-0.150
2020/01/31 20:28:36.6	5.450	-0.160	0.080	-0.160
2020/01/31 20:28:36.7	5.450	-0.130	0.030	-0.160
2020/01/31 20:28:36.8	5.450	-0.090	-0.030	-0.170
2020/01/31 20:28:36.9	5.460	-0.050	-0.080	-0.170
2020/01/31 20:28:37.0	5.460	-0.010	-0.150	-0.180
2020/01/31 20:28:37.1	5.470	0.040	-0.210	-0.190
2020/01/31 20:28:37.2	5.480	0.080	-0.280	-0.200
2020/01/31 20:28:37.3	5.490	0.130	-0.350	-0.210
2020/01/31 20:28:37.4	5.500	0.180	-0.420	-0.220
2020/01/31 20:28:37.5	5.520	0.230	-0.490	-0.230
2020/01/31 20:28:37.6	5.530	0.280	-0.560	-0.240
2020/01/31 20:28:37.7	5.540	0.340	-0.630	-0.240
2020/01/31 20:28:37.8	5.550	0.390	-0.690	-0.250
2020/01/31 20:28:37.9	5.560	0.440	-0.760	-0.250
2020/01/31 20:28:38.0	5.560	0.490	-0.820	-0.250
2020/01/31 20:28:38.1	5.570	0.530	-0.880	-0.250
2020/01/31 20:28:38.2	5.580	0.580	-0.930	-0.240
2020/01/31 20:28:38.3	5.590	0.620	-0.970	-0.240
2020/01/31 20:28:38.4	5.590	0.650	-1.010	-0.230
2020/01/31 20:28:38.5	5.600	0.690	-1.050	-0.230
2020/01/31 20:28:38.6	5.610	0.720	-1.080	-0.220
2020/01/31 20:28:38.7	5.620	0.740	-1.100	-0.210
2020/01/31 20:28:38.8	5.620	0.760	-1.110	-0.210
2020/01/31 20:28:38.9	5.630	0.770	-1.120	-0.200
2020/01/31 20:28:39.0	5.640	0.780	-1.130	-0.190
2020/01/31 20:28:39.1	5.660	0.790	-1.120	-0.190
2020/01/31 20:28:39.2	5.670	0.780	-1.110	-0.190
2020/01/31 20:28:39.3	5.690	0.770	-1.100	-0.190
2020/01/31 20:28:39.4	5.700	0.760	-1.080	-0.190
2020/01/31 20:28:39.5	5.720	0.740	-1.060	-0.200
2020/01/31 20:28:39.6	5.740	0.720	-1.030	-0.200
2020/01/31 20:28:39.7	5.760	0.680	-0.990	-0.210
2020/01/31 20:28:39.8	5.780	0.650	-0.960	-0.230
2020/01/31 20:28:39.9	5.820	0.610	-0.920	-0.240
2020/01/31 20:28:40.0	5.840	0.560	-0.870	-0.260
2020/01/31 20:28:40.1	5.860	0.510	-0.820	-0.280
2020/01/31 20:28:40.2	5.890	0.450	-0.770	-0.300
2020/01/31 20:28:40.3	5.910	0.400	-0.710	-0.330
2020/01/31 20:28:40.4	5.940	0.330	-0.650	-0.350
2020/01/31 20:28:40.5	5.960	0.270	-0.590	-0.380
2020/01/31 20:28:40.6	5.980	0.200	-0.530	-0.400
2020/01/31 20:28:40.7	6.000	0.130	-0.460	-0.430
2020/01/31 20:28:40.8	6.020	0.060	-0.390	-0.450
2020/01/31 20:28:40.9	6.030	-0.010	-0.320	-0.480
2020/01/31 20:28:41.0	6.040	-0.090	-0.250	-0.500
2020/01/31 20:28:41.1	6.060	-0.160	-0.180	-0.520
2020/01/31 20:28:41.2	6.070	-0.230	-0.110	-0.540
2020/01/31 20:28:41.3	6.080	-0.310	-0.030	-0.560
2020/01/31 20:28:41.4	6.080	-0.380	0.040	-0.580
2020/01/31 20:28:41.5	6.090	-0.450	0.110	-0.600
2020/01/31 20:28:41.6	6.090	-0.520	0.180	-0.610
2020/01/31 20:28:41.7	6.090	-0.580	0.250	-0.620
2020/01/31 20:28:41.8	6.090	-0.640	0.310	-0.630
2020/01/31 20:28:41.9	6.080	-0.700	0.380	-0.650
2020/01/31 20:28:42.0	6.080	-0.750	0.440	-0.650
2020/01/31 20:28:42.1	6.070	-0.800	0.490	-0.660
2020/01/31 20:28:42.2	6.060	-0.840	0.540	-0.660
2020/01/31 20:28:42.3	6.050	-0.880	0.590	-0.660
2020/01/31 20:28:42.4	6.040	-0.910	0.630	-0.660
2020/01/31 20:28:42.5	6.030	-0.930	0.660	-0.660
2020/01/31 20:28:42.6	6.020	-0.950	0.690	-0.660
2020/01/31 20:28:42.7	6.000	-0.960	0.710	-0.650
2020/01/31 20:28:42.8	5.990	-0.970	0.720	-0.640
2020/01/31 20:28:42.9	5.980	-0.970	0.730	-0.630
2020/01/31 20:28:43.0	5.970	-0.960	0.730	-0.620
2020/01/31 20:28:43.1	5.950	-0.950	0.720	-0.600
2020/01/31 20:28:43.2	5.930	-0.920	0.710	-0.580
2020/01/31 20:28:43.3	5.910	-0.900	0.690	-0.560
2020/01/31 20:28:43.4	5.890	-0.860	0.670	-0.540
2020/01/31 20:28:43.5	5.870	-0.820	0.640	-0.510
2020/01/31 20:28:43.6	5.850	-0.780	0.610	-0.480
2020/01/31 20:28:43.7	5.830	-0.730	0.570	-0.450
2020/01/31 20:28:43.8	5.810	-0.680	0.520	-0.420
2020/01/31 20:28:43.9	5.800	-0.620	0.470	-0.390
2020/01/31 20:28:44.0	5.780	-0.560	0.410	-0.350
2020/01/31 20:28:44.1	5.750	-0.490	0.360	-0.320
2020/01/31 20:28:44.2	5.730	-0.430	0.300	-0.290
2020/01/31 20:28:44.3	5.710	-0.360	0.230	-0.260
2020/01/31 20:28:44.4	5.690	-0.290	0.170	-0.230
2020/01/31 20:28:44.5	5.670	-0.220	0.100	-0.200
2020/01/31 20:28:44.6	5.650	-0.150	0.030	-0.160
2020/01/31 20:28:44.7	5.630	-0.080	-0.040	-0.140
2020/01/31 20:28:44.8	5.610	-0.010	-0.110	-0.110
2020/01/31 20:28:44.9	5.600	0.050	-0.180	-0.080
2020/01/31 20:28:45.0	5.580	0.120	-0.250	-0.050
2020/01/31 20:28:45.1	5.570	0.180	-0.320	-0.030
2020/01/31 20:28:45.2	5.550	0.240	-0.390	-0.010
2020/01/31 20:28:45.3	5.540	0.290	-0.450	0.010
2020/01/31 20:28:45.4	5.530	0.340	-0.510	0.030
2020/01/31 20:28:45.5	5.520	0.390	-0.570	0.050
2020/01/31 20:28:45.6	5.510	0.430	-0.620	0.060
2020/01/31 20:28:45.7	5.500	0.470	-0.670	0.070
2020/01/31 20:28:45.8	5.500	0.510	-0.720	0.090
2020/01/31 20:28:45.9	5.500	0.530	-0.760	0.100
2020/01/31 20:28:46.0	5.490	0.560	-0.790	0.110
2020/01/31 20:28:46.1	5.490	0.580	-0.820	0.110
2020/01/31 20:28:46.2	5.490	0.590	-0.840	0.120
2020/01/31 20:28:46.3	5.500	0.600	-0.860	0.130
2020/01/31 20:28:46.4	5.500	0.600	-0.860	0.130
2020/01/31 20:28:46.5	5.500	0.600	-0.870	0.130
2020/01/31 20:28:46.6	5.510	0.590	-0.860	0.140
2020/01/31 20:28:46.7	5.520	0.580	-0.860	0.140
2020/01/31 20:28:46.8	5.530	0.570	-0.840	0.130
2020/01/31 20:28:46.9	5.540	0.550	-0.820	0.130
2020/01/31 20:28:47.0	5.550	0.520	-0.800	0.120
2020/01/31 20:28:47.1	5.560	0.500	-0.780	0.120
2020/01/31 20:28:47.2	5.580	0.470	-0.750	0.110
2020/01/31 20:28:47.3	5.590	0.440	-0.720	0.100
2020/01/31 20:28:47.4	5.610	0.400	-0.680	0.090
2020/01/31 20:28:47.5	5.630	0.370	-0.650	0.080
2020/01/31 20:28:47.6	5.650	0.330	-0.620	0.060
2020/01/31 20:28:47.7	5.670	0.290	-0.580	0.050
2020/01/31 20:28:47.8	5.690	0.260	-0.550	0.030
2020/01/31 20:28:47.9	5.710	0.220	-0.520	0.010
2020/01/31 20:28:48.0	5.730	0.180	-0.480	-0.010
2020/01/31 20:28:48.1	5.750	0.140	-0.450	-0.030
2020/01/31 20:28:48.2	5.780	0.110	-0.430	-0.050
2020/01/31 20:28:48.3	5.800	0.070	-0.400	-0.070
2020/01/31 20:28:48.4	5.830	0.040	-0.380	-0.100
2020/01/31 20:28:48.5	5.850	0.000	-0.360	-0.120
2020/01/31 20:28:48.6	5.880	-0.030	-0.340	-0.150
2020/01/31 20:28:48.7	5.910	-0.060	-0.330	-0.170
2020/01/31 20:28:48.8	5.930	-0.080	-0.320	-0.200
2020/01/31 20:28:48.9	5.950	-0.100	-0.310	-0.230
2020/01/31 20:28:49.0	5.980	-0.130	-0.300	-0.260
2020/01/31 20:28:49.1	6.000	-0.140	-0.300	-0.290
2020/01/31 20:28:49.2	6.020	-0.160	-0.300	-0.320
2020/01/31 20:28:49.3	6.050	-0.170	-0.300	-0.350
2020/01/31 20:28:49.4	6.060	-0.180	-0.310	-0.370
2020/01/31 20:28:49.5	6.080	-0.190	-0.310	-0.400
2020/01/31 20:28:49.6	6.100	-0.190	-0.320	-0.420
2020/01/31 20:28:49.7	6.110	-0.200	-0.330	-0.450
2020/01/31 20:28:49.8	6.120	-0.200	-0.340	-0.470
2020/01/31 20:28:49.9	6.130	-0.190	-0.350	-0.490
2020/01/31 20:28:50.0	6.130	-0.190	-0.360	-0.510
2020/01/31 20:28:50.1	6.140	-0.180	-0.360	-0.520
2020/01/31 20:28:50.2	6.140	-0.170	-0.370	-0.530
2020/01/31 20:28:50.3	6.140	-0.160	-0.380	-0.540
2020/01/31 20:28:50.4	6.140	-0.140	-0.380	-0.550
2020/01/31 20:28:50.5	6.140	-0.130	-0.390	-0.560
2020/01/31 20:28:50.6	6.130	-0.110	-0.390	-0.560
2020/01/31 20:28:50.7	6.130	-0.090	-0.390	-0.560
2020/01/31 20:28:50.8	6.130	-0.070	-0.390	-0.560
2020/01/31 20:28:50.9	6.120	-0.050	-0.380	-0.550
2020/01/31 20:28:51.0	6.120	-0.030	-0.380	-0.550
2020/01/31 20:28:51.1	6.120	-0.010	-0.370	-0.540
2020/01/31 20:28:51.2	6.110	0.020	-0.360	-0.530
2020/01/31 20:28:51.3	6.110	0.040	-0.350	-0.510
2020/01/31 20:28:51.4	6.110	0.060	-0.340	-0.500
2020/01/31 20:28:51.5	6.110	0.080	-0.330	-0.480
2020/01/31 20:28:51.6	6.110	0.110	-0.320	-0.470
2020/01/31 20:28:51.7	6.110	0.130	-0.300	-0.450
2020/01/31 20:28:51.8	6.110	0.150	-0.280	-0.430
2020/01/31 20:28:51.9	6.110	0.170	-0.260	-0.410
2020/01/31 20:28:52.0	6.110	0.180	-0.250	-0.390
2020/01/31 20:28:52.1	6.110	0.200	-0.220	-0.380
2020/01/31 20:28:52.2	6.110	0.210	-0.200	-0.360
2020/01/31 20:28:52.3	6.110	0.230	-0.180	-0.340
2020/01/31 20:28:52.4	6.110	0.240	-0.160	-0.320
2020/01/31 20:28:52.5	6.120	0.240	-0.130	-0.310
2020/01/31 20:28:52.6	6.120	0.250	-0.110	-0.290
2020/01/31 20:28:52.7	6.120	0.250	-0.080	-0.280
2020/01/31 20:28:52.8	6.120	0.250	-0.060	-0.270
2020/01/31 20:28:52.9	6.120	0.240	-0.030	-0.250
2020/01/31 20:28:53.0	6.120	0.240	-0.000	-0.240
2020/01/31 20:28:53.1	6.120	0.230	0.020	-0.230
2020/01/31 20:28:53.2	6.120	0.220	0.050	-0.220
2020/01/31 20:28:53.3	6.130	0.200	0.080	-0.210
2020/01/31 20:28:53.4	6.130	0.190	0.110	-0.190
2020/01/31 20:28:53.5	6.130	0.170	0.130	-0.180
2020/01/31 20:28:53.6	6.140	0.150	0.160	-0.170
2020/01/31 20:28:53.7	6.140	0.130	0.180	-0.170
2020/01/31 20:28:53.8	6.140	0.100	0.200	-0.160
2020/01/31 20:28:53.9	6.150	0.070	0.220	-0.150
2020/01/31 20:28:54.0	6.150	0.050	0.240	-0.150
2020/01/31 20:28:54.1	6.160	0.020	0.250	-0.140
2020/01/31 20:28:54.2	6.170	-0.010	0.260	-0.140
2020/01/31 20:28:54.3	6.170	-0.040	0.270	-0.140
2020/01/31 20:28:54.4	6.180	-0.070	0.270	-0.150
2020/01/31 20:28:54.5	6.190	-0.100	0.270	-0.150
2020/01/31 20:28:54.6	6.200	-0.130	0.270	-0.160
2020/01/31 20:28:54.7	6.210	-0.160	0.260	-0.170
2020/01/31 20:28:54.8	6.220	-0.190	0.250	-0.180
2020/01/31 20:28:54.9	6.230	-0.220	0.240	-0.190
2020/01/31 20:28:55.0	6.240	-0.250	0.220	-0.200
2020/01/31 20:28:55.1	6.250	-0.270	0.200	-0.220
2020/01/31 20:28:55.2	6.260	-0.300	0.170	-0.240
2020/01/31 20:28:55.3	6.270	-0.320	0.140	-0.250
2020/01/31 20:28:55.4	6.280	-0.340	0.110	-0.270
2020/01/31 20:28:55.5	6.280	-0.360	0.070	-0.290
2020/01/31 20:28:55.6	6.280	-0.370	0.030	-0.310
2020/01/31 20:28:55.7	6.280	-0.380	-0.010	-0.330
2020/01/31 20:28:55.8	6.280	-0.400	-0.050	-0.350
2020/01/31 20:28:55.9	6.280	-0.400	-0.090	-0.370
2020/01/31 20:28:56.0	6.280	-0.410	-0.140	-0.390
2020/01/31 20:28:56.1	6.280	-0.410	-0.180	-0.410
2020/01/31 20:28:56.2	6.270	-0.410	-0.230	-0.430
2020/01/31 20:28:56.3	6.270	-0.410	-0.280	-0.450
2020/01/31 20:28:56.4	6.260	-0.400	-0.320	-0.470
2020/01/31 20:28:56.5	6.260	-0.390	-0.370	-0.490
2020/01/31 20:28:56.6	6.250	-0.380	-0.420	-0.500
2020/01/31 20:28:56.7	6.240	-0.370	-0.460	-0.510
2020/01/31 20:28:56.8	6.230	-0.350	-0.500	-0.520
2020/01/31 20:28:56.9	6.230	-0.330	-0.540	-0.530
2020/01/31 20:28:57.0	6.220	-0.310	-0.580	-0.530
2020/01/31 20:28:57.1	6.210	-0.280	-0.620	-0.530
2020/01/31 20:28:57.2	6.200	-0.260	-0.650	-0.530
2020/01/31 20:28:57.3	6.190	-0.230	-0.680	-0.520
2020/01/31 20:28:57.4	6.180	-0.200	-0.700	-0.510
2020/01/31 20:28:57.5	6.170	-0.170	-0.730	-0.500
2020/01/31 20:28:57.6	6.160	-0.140	-0.740	-0.480
2020/01/31 20:28:57.7	6.150	-0.100	-0.750	-0.460
2020/01/31 20:28:57.8	6.140	-0.070	-0.760	-0.440
2020/01/31 20:28:57.9	6.130	-0.030	-0.770	-0.420
2020/01/31 20:28:58.0	6.120	-0.000	-0.770	-0.390
2020/01/31 20:28:58.1	6.120	0.030	-0.760	-0.360
2020/01/31 20:28:58.2	6.110	0.060	-0.750	-0.330
2020/01/31 20:28:58.3	6.100	0.100	-0.740	-0.310
2020/01/31 20:28:58.4	6.100	0.130	-0.720	-0.280
2020/01/31 20:28:58.5	6.090	0.160	-0.700	-0.250
2020/01/31 20:28:58.6	6.090	0.180	-0.670	-0.220
2020/01/31 20:28:58.7	6.090	0.210	-0.640	-0.190
2020/01/31 20:28:58.8	6.090	0.230	-0.610	-0.160
2020/01/31 20:28:58.9	6.080	0.250	-0.570	-0.130
2020/01/31 20:28:59.0	6.080	0.260	-0.530	-0.110
2020/01/31 20:28:59.1	6.080	0.280	-0.490	-0.080
2020/01/31 20:28:59.2	6.090	0.290	-0.440	-0.060
2020/01/31 20:28:59.3	6.090	0.290	-0.390	-0.030
2020/01/31 20:28:59.4	6.090	0.300	-0.340	-0.010
2020/01/31 20:28:59.5	6.090	0.290	-0.290	0.010
2020/01/31 20:28:59.6	6.090	0.290	-0.240	0.030
2020/01/31 20:28:59.7	6.090	0.280	-0.180	0.050
2020/01/31 20:28:59.8	6.090	0.270	-0.130	0.060
2020/01/31 20:28:59.9	6.090	0.260	-0.080	0.080
2020/01/31 20:29:00.0	6.090	0.240	-0.020	0.090
2020/01/31 20:29:00.1	6.100	0.220	0.030	0.100
2020/01/31 20:29:00.2	6.090	0.190	0.080	0.110
2020/01/31 20:29:00.3	6.090	0.170	0.130	0.120
2020/01/31 20:29:00.4	6.090	0.140	0.180	0.130
2020/01/31 20:29:00.5	6.090	0.110	0.220	0.130
2020/01/31 20:29:00.6	6.090	0.080	0.260	0.130
2020/01/31 20:29:00.7	6.090	0.050	0.300	0.130
2020/01/31 20:29:00.8	6.090	0.010	0.330	0.130
2020/01/31 20:29:00.9	6.090	-0.020	0.360	0.120
2020/01/31 20:29:01.0	6.090	-0.050	0.370	0.110
2020/01/31 20:29:01.1	6.090	-0.080	0.390	0.100
2020/01/31 20:29:01.2	6.090	-0.110	0.390	0.090
2020/01/31 20:29:01.3	6.090	-0.140	0.390	0.070
2020/01/31 20:29:01.4	6.100	-0.170	0.380	0.060
2020/01/31 20:29:01.5	6.100	-0.200	0.360	0.030
2020/01/31 20:29:01.6	6.100	-0.220	0.340	0.010
2020/01/31 20:29:01.7	6.110	-0.240	0.300	-0.010
2020/01/31 20:29:01.8	6.110	-0.260	0.260	-0.040
2020/01/31 20:29:01.9	6.110	-0.270	0.220	-0.070
2020/01/31 20:29:02.0	6.120	-0.280	0.160	-0.100
2020/01/31 20:29:02.1	6.130	-0.290	0.100	-0.130
2020/01/31 20:29:02.2	6.130	-0.290	0.040	-0.170
2020/01/31 20:29:02.3	6.140	-0.290	-0.030	-0.200
2020/01/31 20:29:02.4	6.150	-0.290	-0.110	-0.240
2020/01/31 20:29:02.5	6.160	-0.280	-0.190	-0.280
2020/01/31 20:29:02.6	6.170	-0.270	-0.270	-0.310
2020/01/31 20:29:02.7	6.180	-0.250	-0.360	-0.350
2020/01/31 20:29:02.8	6.190	-0.230	-0.440	-0.390
2020/01/31 20:29:02.9	6.210	-0.200	-0.530	-0.430
2020/01/31 20:29:03.0	6.220	-0.180	-0.610	-0.460
2020/01/31 20:29:03.1	6.240	-0.150	-0.700	-0.500
2020/01/31 20:29:03.2	6.250	-0.110	-0.780	-0.530
2020/01/31 20:29:03.3	6.260	-0.070	-0.850	-0.560
2020/01/31 20:29:03.4	6.280	-0.040	-0.930	-0.580
2020/01/31 20:29:03.5	6.290	0.010	-0.990	-0.600
2020/01/31 20:29:03.6	6.300	0.050	-1.050	-0.620
2020/01/31 20:29:03.7	6.320	0.090	-1.110	-0.640
2020/01/31 20:29:03.8	6.330	0.140	-1.160	-0.650
2020/01/31 20:29:03.9	6.350	0.180	-1.190	-0.660
2020/01/31 20:29:04.0	6.360	0.230	-1.230	-0.660
2020/01/31 20:29:04.1	6.380	0.280	-1.250	-0.660
2020/01/31 20:29:04.2	6.390	0.320	-1.260	-0.660
2020/01/31 20:29:04.3	6.400	0.360	-1.270	-0.660
2020/01/31 20:29:04.4	6.410	0.400	-1.270	-0.650
2020/01/31 20:29:04.5	6.430	0.440	-1.260	-0.640
2020/01/31 20:29:04.6	6.440	0.480	-1.240	-0.620
2020/01/31 20:29:04.7	6.450	0.510	-1.210	-0.600
2020/01/31 20:29:04.8	6.460	0.540	-1.180	-0.580
2020/01/31 20:29:04.9	6.470	0.570	-1.140	-0.560
2020/01/31 20:29:05.0	6.480	0.590	-1.080	-0.530
2020/01/31 20:29:05.1	6.490	0.610	-1.030	-0.500
2020/01/31 20:29:05.2	6.500	0.630	-0.960	-0.470
2020/01/31 20:29:05.3	6.510	0.640	-0.890	-0.430
2020/01/31 20:29:05.4	6.510	0.640	-0.820	-0.390
2020/01/31 20:29:05.5	6.520	0.650	-0.740	-0.350
2020/01/31 20:29:05.6	6.520	0.640	-0.660	-0.310
2020/01/31 20:29:05.7	6.520	0.640	-0.570	-0.270
2020/01/31 20:29:05.8	6.520	0.630	-0.480	-0.220
2020/01/31 20:29:05.9	6.530	0.610	-0.390	-0.170
2020/01/31 20:29:06.0	6.520	0.590	-0.290	-0.130
2020/01/31 20:29:06.1	6.510	0.570	-0.200	-0.080
2020/01/31 20:29:06.2	6.500	0.540	-0.110	-0.030
2020/01/31 20:29:06.3	6.490	0.510	-0.020	0.020
2020/01/31 20:29:06.4	6.480	0.470	0.080	0.070
2020/01/31 20:29:06.5	6.460	0.430	0.160	0.120
2020/01/31 20:29:06.6	6.450	0.390	0.250	0.160
2020/01/31 20:29:06.7	6.430	0.350	0.330	0.200
2020/01/31 20:29:06.8	6.410	0.300	0.410	0.240
2020/01/31 20:29:06.9	6.390	0.260	0.480	0.280
2020/01/31 20:29:07.0	6.370	0.210	0.550	0.320
2020/01/31 20:29:07.1	6.340	0.160	0.610	0.350
2020/01/31 20:29:07.2	6.320	0.110	0.670	0.380
2020/01/31 20:29:07.3	6.290	0.050	0.720	0.400
2020/01/31 20:29:07.4	6.270	0.000	0.770	0.420
2020/01/31 20:29:07.5	6.240	-0.050	0.800	0.440
2020/01/31 20:29:07.6	6.220	-0.100	0.830	0.450
2020/01/31 20:29:07.7	6.190	-0.150	0.860	0.460
2020/01/31 20:29:07.8	6.170	-0.190	0.870	0.460
2020/01/31 20:29:07.9	6.140	-0.240	0.880	0.460
2020/01/31 20:29:08.0	6.120	-0.280	0.880	0.450
2020/01/31 20:29:08.1	6.100	-0.320	0.880	0.440
2020/01/31 20:29:08.2	6.080	-0.360	0.870	0.430
2020/01/31 20:29:08.3	6.060	-0.400	0.850	0.410
2020/01/31 20:29:08.4	6.040	-0.430	0.820	0.390
2020/01/31 20:29:08.5	6.020	-0.460	0.790	0.370
2020/01/31 20:29:08.6	6.000	-0.490	0.750	0.350
2020/01/31 20:29:08.7	5.980	-0.510	0.710	0.330
2020/01/31 20:29:08.8	5.960	-0.530	0.660	0.300
2020/01/31 20:29:08.9	5.950	-0.550	0.610	0.270
2020/01/31 20:29:09.0	5.940	-0.570	0.560	0.240
2020/01/31 20:29:09.1	5.920	-0.580	0.490	0.220
2020/01/31 20:29:09.2	5.910	-0.580	0.430	0.190
2020/01/31 20:29:09.3	5.890	-0.590	0.360	0.150
2020/01/31 20:29:09.4	5.880	-0.590	0.290	0.120
2020/01/31 20:29:09.5	5.870	-0.590	0.210	0.090
2020/01/31 20:29:09.6	5.860	-0.580	0.140	0.060
2020/01/31 20:29:09.7	5.850	-0.570	0.060	0.020
2020/01/31 20:29:09.8	5.840	-0.560	-0.020	-0.020
2020/01/31 20:29:09.9	5.840	-0.550	-0.100	-0.060
2020/01/31 20:29:10.0	5.830	-0.530	-0.180	-0.100
2020/01/31 20:29:10.1	5.830	-0.520	-0.270	-0.140
2020/01/31 20:29:10.2	5.830	-0.500	-0.350	-0.180
2020/01/31 20:29:10.3	5.830	-0.470	-0.420	-0.220
2020/01/31 20:29:10.4	5.840	-0.450	-0.500	-0.260
2020/01/31 20:29:10.5	5.850	-0.420	-0.580	-0.310
2020/01/31 20:29:10.6	5.860	-0.390	-0.650	-0.350
2020/01/31 20:29:10.7	5.870	-0.360	-0.720	-0.390
2020/01/31 20:29:10.8	5.890	-0.330	-0.790	-0.440
2020/01/31 20:29:10.9	5.900	-0.300	-0.850	-0.480
2020/01/31 20:29:11.0	5.920	-0.270	-0.900	-0.520
2020/01/31 20:29:11.1	5.940	-0.230	-0.960	-0.560
2020/01/31 20:29:11.2	5.970	-0.200	-1.010	-0.600
2020/01/31 20:29:11.3	6.000	-0.160	-1.050	-0.640
2020/01/31 20:29:11.4	6.030	-0.120	-1.090	-0.670
2020/01/31 20:29:11.5	6.070	-0.090	-1.120	-0.710
2020/01/31 20:29:11.6	6.100	-0.050	-1.140	-0.730
2020/01/31 20:29:11.7	6.140	-0.010	-1.160	-0.760
2020/01/31 20:29:11.8	6.180	0.020	-1.170	-0.770
2020/01/31 20:29:11.9	6.210	0.060	-1.180	-0.790
2020/01/31 20:29:12.0	6.250	0.090	-1.170	-0.800
2020/01/31 20:29:12.1	6.280	0.130	-1.160	-0.800
2020/01/31 20:29:12.2	6.310	0.160	-1.140	-0.800
2020/01/31 20:29:12.3	6.340	0.190	-1.110	-0.790
2020/01/31 20:29:12.4	6.370	0.210	-1.080	-0.770
2020/01/31 20:29:12.5	6.390	0.240	-1.040	-0.750
2020/01/31 20:29:12.6	6.410	0.260	-1.000	-0.720
2020/01/31 20:29:12.7	6.430	0.280	-0.940	-0.690
2020/01/31 20:29:12.8	6.440	0.290	-0.890	-0.650
2020/01/31 20:29:12.9	6.440	0.310	-0.830	-0.610
2020/01/31 20:29:13.0	6.450	0.320	-0.760	-0.560
2020/01/31 20:29:13.1	6.450	0.330	-0.690	-0.520
2020/01/31 20:29:13.2	6.450	0.330	-0.620	-0.470
2020/01/31 20:29:13.3	6.440	0.330	-0.550	-0.420
2020/01/31 20:29:13.4	6.430	0.330	-0.480	-0.360
2020/01/31 20:29:13.5	6.420	0.330	-0.400	-0.310
2020/01/31 20:29:13.6	6.400	0.320	-0.330	-0.260
2020/01/31 20:29:13.7	6.390	0.320	-0.260	-0.200
2020/01/31 20:29:13.8	6.370	0.310	-0.190	-0.150
2020/01/31 20:29:13.9	6.350	0.290	-0.130	-0.090
2020/01/31 20:29:14.0	6.330	0.280	-0.060	-0.040
2020/01/31 20:29:14.1	6.310	0.270	-0.010	0.010
2020/01/31 20:29:14.2	6.280	0.250	0.050	0.060
2020/01/31 20:29:14.3	6.260	0.230	0.100	0.100
2020/01/31 20:29:14.4	6.230	0.220	0.140	0.150
2020/01/31 20:29:14.5	6.210	0.200	0.170	0.190
2020/01/31 20:29:14.6	6.190	0.190	0.200	0.220
2020/01/31 20:29:14.7	6.170	0.170	0.220	0.260
2020/01/31 20:29:14.8	6.140	0.160	0.240	0.290
2020/01/31 20:29:14.9	6.120	0.140	0.250	0.310
2020/01/31 20:29:15.0	6.100	0.130	0.250	0.330
2020/01/31 20:29:15.1	6.090	0.120	0.240	0.350
2020/01/31 20:29:15.2	6.070	0.110	0.230	0.360
2020/01/31 20:29:15.3	6.060	0.110	0.210	0.360
2020/01/31 20:29:15.4	6.050	0.100	0.180	0.360
2020/01/31 20:29:15.5	6.050	0.100	0.140	0.360
2020/01/31 20:29:15.6	6.040	0.100	0.110	0.350
2020/01/31 20:29:15.7	6.040	0.100	0.060	0.340
2020/01/31 20:29:15.8	6.040	0.110	0.010	0.320
2020/01/31 20:29:15.9	6.050	0.120	-0.040	0.300
2020/01/31 20:29:16.0	6.050	0.130	-0.090	0.280
2020/01/31 20:29:16.1	6.060	0.140	-0.150	0.260
2020/01/31 20:29:16.2	6.070	0.150	-0.210	0.230
2020/01/31 20:29:16.3	6.080	0.170	-0.270	0.210
2020/01/31 20:29:16.4	6.090	0.190	-0.320	0.180
2020/01/31 20:29:16.5	6.110	0.200	-0.380	0.160
2020/01/31 20:29:16.6	6.120	0.220	-0.430	0.140
2020/01/31 20:29:16.7	6.130	0.240	-0.480	0.110
2020/01/31 20:29:16.8	6.140	0.260	-0.520	0.090
2020/01/31 20:29:16.9	6.160	0.270	-0.560	0.070
2020/01/31 20:29:17.0	6.170	0.290	-0.590	0.060
2020/01/31 20:29:17.1	6.180	0.300	-0.620	0.040
2020/01/31 20:29:17.2	6.190	0.310	-0.640	0.020
2020/01/31 20:29:17.3	6.200	0.320	-0.650	0.000
2020/01/31 20:29:17.4	6.200	0.330	-0.660	-0.020
2020/01/31 20:29:17.5	6.210	0.330	-0.660	-0.030
2020/01/31 20:29:17.6	6.220	0.330	-0.660	-0.050
2020/01/31 20:29:17.7	6.220	0.320	-0.640	-0.070
2020/01/31 20:29:17.8	6.220	0.310	-0.630	-0.080
2020/01/31 20:29:17.9	6.220	0.300	-0.610	-0.100
2020/01/31 20:29:18.0	6.220	0.280	-0.580	-0.120
2020/01/31 20:29:18.1	6.220	0.260	-0.550	-0.140
2020/01/31 20:29:18.2	6.220	0.240	-0.510	-0.160
2020/01/31 20:29:18.3	6.220	0.210	-0.470	-0.180
2020/01/31 20:29:18.4	6.220	0.170	-0.430	-0.200
2020/01/31 20:29:18.5	6.220	0.140	-0.390	-0.220
2020/01/31 20:29:18.6	6.210	0.100	-0.340	-0.250
2020/01/31 20:29:18.7	6.210	0.050	-0.290	-0.270
2020/01/31 20:29:18.8	6.200	0.010	-0.240	-0.290
2020/01/31 20:29:18.9	6.200	-0.040	-0.190	-0.320
2020/01/31 20:29:19.0	6.190	-0.090	-0.140	-0.340
2020/01/31 20:29:19.1	6.190	-0.140	-0.080	-0.370
2020/01/31 20:29:19.2	6.180	-0.200	-0.030	-0.390
2020/01/31 20:29:19.3	6.170	-0.250	0.020	-0.410
2020/01/31 20:29:19.4	6.160	-0.310	0.070	-0.430
2020/01/31 20:29:19.5	6.150	-0.360	0.120	-0.450
2020/01/31 20:29:19.6	6.140	-0.410	0.170	-0.470
2020/01/31 20:29:19.7	6.130	-0.470	0.210	-0.480
2020/01/31 20:29:19.8	6.120	-0.520	0.250	-0.500
2020/01/31 20:29:19.9	6.100	-0.560	0.290	-0.510
2020/01/31 20:29:20.0	6.090	-0.610	0.330	-0.520
2020/01/31 20:29:20.1	6.080	-0.650	0.360	-0.530
2020/01/31 20:29:20.2	6.060	-0.690	0.390	-0.530
2020/01/31 20:29:20.3	6.050	-0.720	0.410	-0.540
2020/01/31 20:29:20.4	6.040	-0.750	0.430	-0.540
2020/01/31 20:29:20.5	6.020	-0.770	0.450	-0.540
2020/01/31 20:29:20.6	6.010	-0.790	0.460	-0.540
2020/01/31 20:29:20.7	5.990	-0.800	0.460	-0.530
2020/01/31 20:29:20.8	5.980	-0.810	0.470	-0.520
2020/01/31 20:29:20.9	5.960	-0.810	0.460	-0.520
2020/01/31 20:29:21.0	5.950	-0.810	0.450	-0.500
2020/01/31 20:29:21.1	5.930	-0.800	0.440	-0.490
2020/01/31 20:29:21.2	5.910	-0.780	0.420	-0.480
2020/01/31 20:29:21.3	5.890	-0.760	0.390	-0.460
2020/01/31 20:29:21.4	5.880	-0.730	0.360	-0.440
2020/01/31 20:29:21.5	5.860	-0.690	0.330	-0.420
2020/01/31 20:29:21.6	5.840	-0.650	0.290	-0.390
2020/01/31 20:29:21.7	5.830	-0.610	0.240	-0.370
2020/01/31 20:29:21.8	5.810	-0.550	0.190	-0.340
2020/01/31 20:29:21.9	5.810	-0.500	0.140	-0.320
2020/01/31 20:29:22.0	5.790	-0.430	0.080	-0.290
2020/01/31 20:29:22.1	5.780	-0.370	0.030	-0.260
2020/01/31 20:29:22.2	5.770	-0.300	-0.040	-0.230
2020/01/31 20:29:22.3	5.770	-0.230	-0.100	-0.200
2020/01/31 20:29:22.4	5.760	-0.150	-0.160	-0.170
2020/01/31 20:29:22.5	5.760	-0.070	-0.230	-0.140
2020/01/31 20:29:22.6	5.750	0.010	-0.290	-0.110
2020/01/31 20:29:22.7	5.750	0.090	-0.360	-0.080
2020/01/31 20:29:22.8	5.750	0.170	-0.420	-0.050
2020/01/31 20:29:22.9	5.740	0.250	-0.480	-0.020
2020/01/31 20:29:23.0	5.740	0.330	-0.540	0.020
2020/01/31 20:29:23.1	5.740	0.410	-0.590	0.050
2020/01/31 20:29:23.2	5.740	0.480	-0.650	0.090
2020/01/31 20:29:23.3	5.730	0.550	-0.690	0.120
2020/01/31 20:29:23.4	5.730	0.620	-0.740	0.160
2020/01/31 20:29:23.5	5.730	0.680	-0.770	0.190
2020/01/31 20:29:23.6	5.730	0.740	-0.810	0.220
2020/01/31 20:29:23.7	5.730	0.790	-0.840	0.250
2020/01/31 20:29:23.8	5.720	0.840	-0.860	0.280
2020/01/31 20:29:23.9	5.720	0.870	-0.880	0.310
2020/01/31 20:29:24.0	5.720	0.900	-0.890	0.330
2020/01/31 20:29:24.1	5.720	0.930	-0.900	0.350
2020/01/31 20:29:24.2	5.710	0.940	-0.900	0.360
2020/01/31 20:29:24.3	5.710	0.950	-0.900	0.370
2020/01/31 20:29:24.4	5.710	0.950	-0.900	0.370
2020/01/31 20:29:24.5	5.710	0.950	-0.890	0.370
2020/01/31 20:29:24.6	5.710	0.930	-0.880	0.370
2020/01/31 20:29:24.7	5.710	0.910	-0.860	0.360
2020/01/31 20:29:24.8	5.710	0.880	-0.850	0.340
2020/01/31 20:29:24.9	5.710	0.850	-0.830	0.330
2020/01/31 20:29:25.0	5.720	0.800	-0.810	0.310
2020/01/31 20:29:25.1	5.720	0.760	-0.780	0.280
2020/01/31 20:29:25.2	5.730	0.700	-0.750	0.250
2020/01/31 20:29:25.3	5.740	0.640	-0.730	0.220
2020/01/31 20:29:25.4	5.750	0.580	-0.700	0.190
2020/01/31 20:29:25.5	5.770	0.510	-0.670	0.150
2020/01/31 20:29:25.6	5.780	0.440	-0.640	0.100
2020/01/31 20:29:25.7	5.800	0.370	-0.610	0.060
2020/01/31 20:29:25.8	5.820	0.300	-0.580	0.010
2020/01/31 20:29:25.9	5.870	0.220	-0.550	-0.050
2020/01/31 20:29:26.0	5.890	0.140	-0.530	-0.100
2020/01/31 20:29:26.1	5.920	0.070	-0.500	-0.160
2020/01/31 20:29:26.2	5.960	-0.010	-0.480	-0.220
2020/01/31 20:29:26.3	5.990	-0.080	-0.450	-0.280
2020/01/31 20:29:26.4	6.030	-0.150	-0.430	-0.340
2020/01/31 20:29:26.5	6.070	-0.220	-0.410	-0.410
2020/01/31 20:29:26.6	6.110	-0.290	-0.390	-0.470
2020/01/31 20:29:26.7	6.150	-0.350	-0.370	-0.530
2020/01/31 20:29:26.8	6.190	-0.410	-0.350	-0.590
2020/01/31 20:29:26.9	6.230	-0.460	-0.340	-0.660
2020/01/31 20:29:27.0	6.270	-0.510	-0.310	-0.710
2020/01/31 20:29:27.1	6.310	-0.560	-0.290	-0.760
2020/01/31 20:29:27.2	6.350	-0.600	-0.270	-0.800
2020/01/31 20:29:27.3	6.380	-0.630	-0.250	-0.850
2020/01/31 20:29:27.4	6.410	-0.660	-0.220	-0.880
2020/01/31 20:29:27.5	6.440	-0.680	-0.200	-0.910
2020/01/31 20:29:27.6	6.470	-0.700	-0.170	-0.930
2020/01/31 20:29:27.7	6.500	-0.710	-0.140	-0.940
2020/01/31 20:29:27.8	6.520	-0.720	-0.110	-0.950
2020/01/31 20:29:27.9	6.530	-0.720	-0.080	-0.950
2020/01/31 20:29:28.0	6.540	-0.710	-0.050	-0.950
2020/01/31 20:29:28.1	6.560	-0.700	-0.020	-0.930
2020/01/31 20:29:28.2	6.560	-0.690	0.020	-0.910
2020/01/31 20:29:28.3	6.570	-0.670	0.050	-0.890
2020/01/31 20:29:28.4	6.570	-0.650	0.080	-0.860
2020/01/31 20:29:28.5	6.570	-0.620	0.110	-0.830
2020/01/31 20:29:28.6	6.560	-0.590	0.140	-0.790
2020/01/31 20:29:28.7	6.550	-0.560	0.160	-0.740
2020/01/31 20:29:28.8	6.540	-0.520	0.180	-0.700
2020/01/31 20:29:28.9	6.520	-0.480	0.200	-0.650
2020/01/31 20:29:29.0	6.500	-0.440	0.220	-0.590
2020/01/31 20:29:29.1	6.480	-0.390	0.240	-0.540
2020/01/31 20:29:29.2	6.460	-0.350	0.250	-0.480
2020/01/31 20:29:29.3	6.430	-0.300	0.260	-0.420
2020/01/31 20:29:29.4	6.410	-0.250	0.270	-0.360
2020/01/31 20:29:29.5	6.380	-0.210	0.270	-0.310
2020/01/31 20:29:29.6	6.350	-0.160	0.270	-0.250
2020/01/31 20:29:29.7	6.320	-0.110	0.260	-0.190
2020/01/31 20:29:29.8	6.290	-0.060	0.260	-0.130
2020/01/31 20:29:29.9	6.260	-0.020	0.250	-0.070
2020/01/31 20:29:30.0	6.230	0.030	0.240	-0.020
2020/01/31 20:29:30.1	6.200	0.070	0.220	0.040
2020/01/31 20:29:30.2	6.160	0.120	0.200	0.090
2020/01/31 20:29:30.3	6.130	0.160	0.180	0.130
2020/01/31 20:29:30.4	6.100	0.190	0.160	0.180
2020/01/31 20:29:30.5	6.070	0.230	0.140	0.220
2020/01/31 20:29:30.6	6.050	0.260	0.120	0.260
2020/01/31 20:29:30.7	6.020	0.290	0.090	0.300
2020/01/31 20:29:30.8	5.990	0.320	0.070	0.340
2020/01/31 20:29:30.9	5.980	0.350	0.040	0.370
2020/01/31 20:29:31.0	5.950	0.370	0.020	0.400
2020/01/31 20:29:31.1	5.930	0.390	-0.010	0.430
2020/01/31 20:29:31.2	5.900	0.400	-0.030	0.450
2020/01/31 20:29:31.3	5.880	0.410	-0.050	0.470
2020/01/31 20:29:31.4	5.860	0.420	-0.070	0.490
2020/01/31 20:29:31.5	5.840	0.430	-0.090	0.500
2020/01/31 20:29:31.6	5.830	0.430	-0.110	0.520
2020/01/31 20:29:31.7	5.810	0.430	-0.130	0.530
2020/01/31 20:29:31.8	5.800	0.430	-0.150	0.530
2020/01/31 20:29:31.9	5.780	0.420	-0.160	0.540
2020/01/31 20:29:32.0	5.770	0.420	-0.180	0.540
2020/01/31 20:29:32.1	5.770	0.410	-0.190	0.540
2020/01/31 20:29:32.2	5.760	0.390	-0.200	0.540
2020/01/31 20:29:32.3	5.760	0.380	-0.210	0.530
2020/01/31 20:29:32.4	5.760	0.360	-0.220	0.520
2020/01/31 20:29:32.5	5.760	0.350	-0.240	0.500
2020/01/31 20:29:32.6	5.760	0.330	-0.250	0.490
2020/01/31 20:29:32.7	5.770	0.300	-0.260	0.470
2020/01/31 20:29:32.8	5.780	0.280	-0.270	0.440
2020/01/31 20:29:32.9	5.790	0.260	-0.280	0.410
2020/01/31 20:29:33.0	5.800	0.230	-0.290	0.380
2020/01/31 20:29:33.1	5.820	0.200	-0.300	0.340
2020/01/31 20:29:33.2	5.840	0.180	-0.320	0.300
2020/01/31 20:29:33.3	5.850	0.150	-0.330	0.260
2020/01/31 20:29:33.4	5.870	0.120	-0.340	0.220
2020/01/31 20:29:33.5	5.890	0.090	-0.350	0.170
2020/01/31 20:29:33.6	5.910	0.060	-0.370	0.130
2020/01/31 20:29:33.7	5.930	0.030	-0.380	0.080
2020/01/31 20:29:33.8	5.950	0.000	-0.390	0.030
2020/01/31 20:29:33.9	5.960	-0.030	-0.400	-0.020
2020/01/31 20:29:34.0	5.970	-0.060	-0.410	-0.070
2020/01/31 20:29:34.1	5.990	-0.090	-0.420	-0.120
2020/01/31 20:29:34.2	6.000	-0.120	-0.430	-0.160
2020/01/31 20:29:34.3	6.020	-0.140	-0.440	-0.210
2020/01/31 20:29:34.4	6.030	-0.170	-0.450	-0.250
2020/01/31 20:29:34.5	6.050	-0.200	-0.460	-0.290
2020/01/31 20:29:34.6	6.060	-0.220	-0.460	-0.330
2020/01/31 20:29:34.7	6.070	-0.240	-0.470	-0.370
2020/01/31 20:29:34.8	6.080	-0.260	-0.480	-0.410
2020/01/31 20:29:34.9	6.100	-0.280	-0.490	-0.440
2020/01/31 20:29:35.0	6.110	-0.300	-0.490	-0.480
2020/01/31 20:29:35.1	6.130	-0.310	-0.500	-0.510
2020/01/31 20:29:35.2	6.140	-0.330	-0.510	-0.540
2020/01/31 20:29:35.3	6.160	-0.340	-0.520	-0.570
2020/01/31 20:29:35.4	6.170	-0.340	-0.530	-0.600
2020/01/31 20:29:35.5	6.190	-0.340	-0.540	-0.620
2020/01/31 20:29:35.6	6.210	-0.350	-0.550	-0.650
2020/01/31 20:29:35.7	6.240	-0.340	-0.570	-0.670
2020/01/31 20:29:35.8	6.260	-0.340	-0.590	-0.700
2020/01/31 20:29:35.9	6.290	-0.330	-0.600	-0.720
2020/01/31 20:29:36.0	6.310	-0.310	-0.620	-0.740
2020/01/31 20:29:36.1	6.340	-0.300	-0.640	-0.760
2020/01/31 20:29:36.2	6.370	-0.280	-0.660	-0.790
2020/01/31 20:29:36.3	6.400	-0.260	-0.690	-0.800
2020/01/31 20:29:36.4	6.430	-0.230	-0.710	-0.820
2020/01/31 20:29:36.5	6.460	-0.210	-0.730	-0.840
2020/01/31 20:29:36.6	6.490	-0.180	-0.750	-0.850
2020/01/31 20:29:36.7	6.520	-0.150	-0.780	-0.860
2020/01/31 20:29:36.8	6.550	-0.120	-0.790	-0.870
2020/01/31 20:29:36.9	6.580	-0.080	-0.820	-0.880
2020/01/31 20:29:37.0	6.610	-0.050	-0.830	-0.880
2020/01/31 20:29:37.1	6.640	-0.010	-0.840	-0.880
2020/01/31 20:29:37.2	6.660	0.020	-0.850	-0.880
2020/01/31 20:29:37.3	6.690	0.060	-0.860	-0.870
2020/01/31 20:29:37.4	6.710	0.090	-0.860	-0.860
2020/01/31 20:29:37.5	6.730	0.130	-0.850	-0.850
2020/01/31 20:29:37.6	6.750	0.160	-0.840	-0.830
2020/01/31 20:29:37.7	6.760	0.190	-0.830	-0.810
2020/01/31 20:29:37.8	6.770	0.220	-0.810	-0.790
2020/01/31 20:29:37.9	6.780	0.240	-0.780	-0.760
2020/01/31 20:29:38.0	6.790	0.270	-0.760	-0.730
2020/01/31 20:29:38.1	6.790	0.290	-0.720	-0.700
2020/01/31 20:29:38.2	6.800	0.310	-0.680	-0.670
2020/01/31 20:29:38.3	6.800	0.320	-0.640	-0.630
2020/01/31 20:29:38.4	6.790	0.330	-0.590	-0.590
2020/01/31 20:29:38.5	6.790	0.340	-0.530	-0.550
2020/01/31 20:29:38.6	6.780	0.340	-0.480	-0.510
2020/01/31 20:29:38.7	6.770	0.340	-0.420	-0.470
2020/01/31 20:29:38.8	6.760	0.330	-0.360	-0.420
2020/01/31 20:29:38.9	6.760	0.330	-0.290	-0.380
2020/01/31 20:29:39.0	6.750	0.310	-0.230	-0.330
2020/01/31 20:29:39.1	6.730	0.300	-0.160	-0.290
2020/01/31 20:29:39.2	6.720	0.280	-0.090	-0.250
2020/01/31 20:29:39.3	6.700	0.260	-0.020	-0.200
2020/01/31 20:29:39.4	6.680	0.240	0.050	-0.160
2020/01/31 20:29:39.5	6.660	0.210	0.120	-0.120
2020/01/31 20:29:39.6	6.640	0.180	0.180	-0.080
2020/01/31 20:29:39.7	6.620	0.150	0.250	-0.040
2020/01/31 20:29:39.8	6.600	0.110	0.310	-0.010
2020/01/31 20:29:39.9	6.580	0.080	0.370	0.030
2020/01/31 20:29:40.0	6.560	0.050	0.430	0.060
2020/01/31 20:29:40.1	6.530	0.010	0.490	0.080
2020/01/31 20:29:40.2	6.510	-0.030	0.540	0.110
2020/01/31 20:29:40.3	6.480	-0.060	0.580	0.130
2020/01/31 20:29:40.4	6.460	-0.090	0.620	0.160
2020/01/31 20:29:40.5	6.440	-0.130	0.660	0.180
2020/01/31 20:29:40.6	6.410	-0.160	0.690	0.190
2020/01/31 20:29:40.7	6.390	-0.190	0.720	0.210
2020/01/31 20:29:40.8	6.360	-0.220	0.750	0.230
2020/01/31 20:29:40.9	6.340	-0.240	0.760	0.240
2020/01/31 20:29:41.0	6.310	-0.260	0.780	0.250
2020/01/31 20:29:41.1	6.290	-0.280	0.780	0.270
2020/01/31 20:29:41.2	6.260	-0.290	0.790	0.280
2020/01/31 20:29:41.3	6.240	-0.310	0.780	0.290
2020/01/31 20:29:41.4	6.220	-0.310	0.780	0.300
2020/01/31 20:29:41.5	6.200	-0.320	0.760	0.310
2020/01/31 20:29:41.6	6.170	-0.320	0.750	0.320
2020/01/31 20:29:41.7	6.150	-0.320	0.720	0.320
2020/01/31 20:29:41.8	6.130	-0.310	0.700	0.330
2020/01/31 20:29:41.9	6.110	-0.300	0.660	0.340
2020/01/31 20:29:42.0	6.090	-0.280	0.620	0.340
2020/01/31 20:29:42.1	6.070	-0.270	0.580	0.350
2020/01/31 20:29:42.2	6.050	-0.250	0.530	0.360
2020/01/31 20:29:42.3	6.030	-0.220	0.480	0.360
2020/01/31 20:29:42.4	6.020	-0.190	0.430	0.370
2020/01/31 20:29:42.5	6.000	-0.170	0.370	0.370
2020/01/31 20:29:42.6	5.980	-0.130	0.300	0.370
2020/01/31 20:29:42.7	5.970	-0.100	0.240	0.370
2020/01/31 20:29:42.8	5.960	-0.060	0.170	0.370
2020/01/31 20:29:42.9	5.940	-0.030	0.090	0.370
2020/01/31 20:29:43.0	5.930	0.010	0.020	0.360
2020/01/31 20:29:43.1	5.920	0.050	-0.060	0.350
2020/01/31 20:29:43.2	5.920	0.090	-0.140	0.340
2020/01/31 20:29:43.3	5.920	0.130	-0.220	0.320
2020/01/31 20:29:43.4	5.920	0.160	-0.310	0.300
2020/01/31 20:29:43.5	5.920	0.200	-0.390	0.280
2020/01/31 20:29:43.6	5.920	0.240	-0.480	0.260
2020/01/31 20:29:43.7	5.930	0.270	-0.560	0.240
2020/01/31 20:29:43.8	5.940	0.310	-0.640	0.210
2020/01/31 20:29:43.9	5.940	0.340	-0.720	0.180
2020/01/31 20:29:44.0	5.950	0.370	-0.800	0.150
2020/01/31 20:29:44.1	5.960	0.400	-0.880	0.110
2020/01/31 20:29:44.2	5.980	0.420	-0.950	0.080
2020/01/31 20:29:44.3	5.990	0.440	-1.020	0.040
2020/01/31 20:29:44.4	6.010	0.460	-1.090	0.010
2020/01/31 20:29:44.5	6.030	0.480	-1.140	-0.030
2020/01/31 20:29:44.6	6.050	0.490	-1.200	-0.070
2020/01/31 20:29:44.7	6.070	0.500	-1.250	-0.100
2020/01/31 20:29:44.8	6.090	0.500	-1.290	-0.140
2020/01/31 20:29:44.9	6.100	0.510	-1.330	-0.180
2020/01/31 20:29:45.0	6.120	0.500	-1.360	-0.210
2020/01/31 20:29:45.1	6.150	0.500	-1.380	-0.250
2020/01/31 20:29:45.2	6.170	0.490	-1.390	-0.280
2020/01/31 20:29:45.3	6.190	0.480	-1.400	-0.320
2020/01/31 20:29:45.4	6.210	0.460	-1.400	-0.350
2020/01/31 20:29:45.5	6.230	0.440	-1.390	-0.380
2020/01/31 20:29:45.6	6.250	0.420	-1.380	-0.410
2020/01/31 20:29:45.7	6.270	0.390	-1.360	-0.440
2020/01/31 20:29:45.8	6.290	0.360	-1.330	-0.470
2020/01/31 20:29:45.9	6.310	0.330	-1.290	-0.500
2020/01/31 20:29:46.0	6.330	0.300	-1.250	-0.520
2020/01/31 20:29:46.1	6.350	0.260	-1.200	-0.550
2020/01/31 20:29:46.2	6.370	0.220	-1.150	-0.570
2020/01/31 20:29:46.3	6.380	0.180	-1.090	-0.590
2020/01/31 20:29:46.4	6.400	0.140	-1.020	-0.610
2020/01/31 20:29:46.5	6.420	0.100	-0.950	-0.630
2020/01/31 20:29:46.6	6.440	0.050	-0.880	-0.650
2020/01/31 20:29:46.7	6.450	0.000	-0.800	-0.660
2020/01/31 20:29:46.8	6.470	-0.040	-0.720	-0.680
2020/01/31 20:29:46.9	6.480	-0.090	-0.630	-0.690
2020/01/31 20:29:47.0	6.490	-0.140	-0.550	-0.700
2020/01/31 20:29:47.1	6.510	-0.180	-0.460	-0.710
2020/01/31 20:29:47.2	6.520	-0.230	-0.370	-0.720
2020/01/31 20:29:47.3	6.530	-0.280	-0.290	-0.720
2020/01/31 20:29:47.4	6.530	-0.320	-0.200	-0.720
2020/01/31 20:29:47.5	6.540	-0.370	-0.110	-0.720
2020/01/31 20:29:47.6	6.550	-0.410	-0.030	-0.720
2020/01/31 20:29:47.7	6.550	-0.450	0.050	-0.720
2020/01/31 20:29:47.8	6.560	-0.490	0.130	-0.710
2020/01/31 20:29:47.9	6.560	-0.520	0.210	-0.710
2020/01/31 20:29:48.0	6.560	-0.560	0.280	-0.700
2020/01/31 20:29:48.1	6.560	-0.590	0.350	-0.680
2020/01/31 20:29:48.2	6.570	-0.620	0.410	-0.670
2020/01/31 20:29:48.3	6.570	-0.640	0.460	-0.650
2020/01/31 20:29:48.4	6.570	-0.660	0.510	-0.640
2020/01/31 20:29:48.5	6.570	-0.670	0.560	-0.620
2020/01/31 20:29:48.6	6.570	-0.690	0.600	-0.590
2020/01/31 20:29:48.7	6.570	-0.690	0.630	-0.570
2020/01/31 20:29:48.8	6.570	-0.700	0.650	-0.540
2020/01/31 20:29:48.9	6.570	-0.690	0.670	-0.510
2020/01/31 20:29:49.0	6.570	-0.690	0.680	-0.480
2020/01/31 20:29:49.1	6.570	-0.680	0.680	-0.450
2020/01/31 20:29:49.2	6.570	-0.660	0.680	-0.410
2020/01/31 20:29:49.3	6.560	-0.640	0.670	-0.370
2020/01/31 20:29:49.4	6.560	-0.620	0.650	-0.330
2020/01/31 20:29:49.5	6.560	-0.590	0.630	-0.290
2020/01/31 20:29:49.6	6.550	-0.560	0.610	-0.240
2020/01/31 20:29:49.7	6.540	-0.530	0.570	-0.200
2020/01/31 20:29:49.8	6.530	-0.490	0.540	-0.150
2020/01/31 20:29:49.9	6.520	-0.450	0.500	-0.090
2020/01/31 20:29:50.0	6.510	-0.410	0.450	-0.040
2020/01/31 20:29:50.1	6.500	-0.360	0.400	0.010
2020/01/31 20:29:50.2	6.490	-0.310	0.360	0.060
2020/01/31 20:29:50.3	6.470	-0.270	0.300	0.120
2020/01/31 20:29:50.4	6.460	-0.220	0.250	0.170
2020/01/31 20:29:50.5	6.440	-0.170	0.200	0.220
2020/01/31 20:29:50.6	6.420	-0.120	0.150	0.280
2020/01/31 20:29:50.7	6.400	-0.070	0.100	0.330
2020/01/31 20:29:50.8	6.370	-0.020	0.050	0.380
2020/01/31 20:29:50.9	6.350	0.030	-0.000	0.440
2020/01/31 20:29:51.0	6.320	0.080	-0.050	0.490
2020/01/31 20:29:51.1	6.300	0.130	-0.100	0.540
2020/01/31 20:29:51.2	6.270	0.180	-0.140	0.590
2020/01/31 20:29:51.3	6.240	0.220	-0.180	0.640
2020/01/31 20:29:51.4	6.220	0.260	-0.220	0.690
2020/01/31 20:29:51.5	6.190	0.300	-0.260	0.730
2020/01/31 20:29:51.6	6.160	0.340	-0.290	0.780
2020/01/31 20:29:51.7	6.140	0.370	-0.320	0.820
2020/01/31 20:29:51.8	6.120	0.410	-0.350	0.860
2020/01/31 20:29:51.9	6.090	0.440	-0.380	0.900
2020/01/31 20:29:52.0	6.070	0.460	-0.410	0.930
2020/01/31 20:29:52.1	6.060	0.480	-0.430	0.950
2020/01/31 20:29:52.2	6.040	0.500	-0.450	0.980
2020/01/31 20:29:52.3	6.020	0.520	-0.480	0.990
2020/01/31 20:29:52.4	6.010	0.530	-0.500	1.010
2020/01/31 20:29:52.5	6.000	0.540	-0.520	1.010
2020/01/31 20:29:52.6	5.990	0.550	-0.540	1.010
2020/01/31 20:29:52.7	5.990	0.550	-0.550	1.000
2020/01/31 20:29:52.8	5.980	0.550	-0.570	0.990
2020/01/31 20:29:52.9	5.990	0.550	-0.590	0.960
2020/01/31 20:29:53.0	5.990	0.540	-0.610	0.940
2020/01/31 20:29:53.1	5.990	0.530	-0.620	0.900
2020/01/31 20:29:53.2	6.000	0.520	-0.640	0.860
2020/01/31 20:29:53.3	6.000	0.500	-0.660	0.810
2020/01/31 20:29:53.4	6.010	0.480	-0.670	0.750
2020/01/31 20:29:53.5	6.020	0.460	-0.690	0.690
2020/01/31 20:29:53.6	6.030	0.440	-0.700	0.630
2020/01/31 20:29:53.7	6.040	0.410	-0.710	0.560
2020/01/31 20:29:53.8	6.050	0.390	-0.730	0.490
2020/01/31 20:29:53.9	6.070	0.360	-0.740	0.410
2020/01/31 20:29:54.0	6.080	0.330	-0.750	0.330
2020/01/31 20:29:54.1	6.100	0.300	-0.760	0.260
2020/01/31 20:29:54.2	6.110	0.270	-0.770	0.180
2020/01/31 20:29:54.3	6.130	0.240	-0.780	0.100
2020/01/31 20:29:54.4	6.140	0.210	-0.780	0.020
2020/01/31 20:29:54.5	6.160	0.170	-0.790	-0.050
2020/01/31 20:29:54.6	6.170	0.140	-0.790	-0.130
2020/01/31 20:29:54.7	6.190	0.110	-0.790	-0.200
2020/01/31 20:29:54.8	6.210	0.080	-0.800	-0.270
2020/01/31 20:29:54.9	6.220	0.060	-0.790	-0.340
2020/01/31 20:29:55.0	6.240	0.030	-0.790	-0.400
2020/01/31 20:29:55.1	6.260	0.000	-0.790	-0.460
2020/01/31 20:29:55.2	6.280	-0.020	-0.790	-0.520
2020/01/31 20:29:55.3	6.300	-0.040	-0.780	-0.580
2020/01/31 20:29:55.4	6.320	-0.060	-0.780	-0.630
2020/01/31 20:29:55.5	6.340	-0.080	-0.770	-0.680
2020/01/31 20:29:55.6	6.360	-0.090	-0.760	-0.720
2020/01/31 20:29:55.7	6.380	-0.110	-0.750	-0.770
2020/01/31 20:29:55.8	6.400	-0.120	-0.730	-0.800
2020/01/31 20:29:55.9	6.410	-0.120	-0.720	-0.840
2020/01/31 20:29:56.0	6.430	-0.130	-0.700	-0.870
2020/01/31 20:29:56.1	6.450	-0.130	-0.680	-0.890
2020/01/31 20:29:56.2	6.470	-0.130	-0.650	-0.910
2020/01/31 20:29:56.3	6.490	-0.130	-0.630	-0.920
2020/01/31 20:29:56.4	6.510	-0.120	-0.600	-0.930
2020/01/31 20:29:56.5	6.530	-0.120	-0.570	-0.940
2020/01/31 20:29:56.6	6.540	-0.110	-0.530	-0.940
2020/01/31 20:29:56.7	6.560	-0.100	-0.490	-0.930
2020/01/31 20:29:56.8	6.570	-0.090	-0.450	-0.920
2020/01/31 20:29:56.9	6.580	-0.080	-0.410	-0.910
2020/01/31 20:29:57.0	6.590	-0.070	-0.360	-0.900
2020/01/31 20:29:57.1	6.600	-0.060	-0.310	-0.880
2020/01/31 20:29:57.2	6.610	-0.040	-0.250	-0.850
2020/01/31 20:29:57.3	6.610	-0.030	-0.190	-0.820
2020/01/31 20:29:57.4	6.610	-0.020	-0.130	-0.790
2020/01/31 20:29:57.5	6.620	-0.010	-0.070	-0.750
2020/01/31 20:29:57.6	6.620	0.000	-0.000	-0.710
2020/01/31 20:29:57.7	6.620	0.010	0.060	-0.670
2020/01/31 20:29:57.8	6.610	0.020	0.130	-0.620
2020/01/31 20:29:57.9	6.620	0.020	0.190	-0.570
2020/01/31 20:29:58.0	6.610	0.030	0.260	-0.520
2020/01/31 20:29:58.1	6.610	0.030	0.320	-0.470
2020/01/31 20:29:58.2	6.600	0.040	0.390	-0.410
2020/01/31 20:29:58.3	6.600	0.040	0.450	-0.350
2020/01/31 20:29:58.4	6.590	0.030	0.500	-0.300
2020/01/31 20:29:58.5	6.580	0.030	0.560	-0.240
2020/01/31 20:29:58.6	6.580	0.020	0.610	-0.180
2020/01/31 20:29:58.7	6.570	0.020	0.650	-0.120
2020/01/31 20:29:58.8	6.560	0.010	0.700	-0.060
2020/01/31 20:29:58.9	6.550	-0.010	0.730	0.000
2020/01/31 20:29:59.0	6.540	-0.020	0.760	0.060
2020/01/31 20:29:59.1	6.530	-0.040	0.790	0.110
2020/01/31 20:29:59.2	6.520	-0.050	0.810	0.170
2020/01/31 20:29:59.3	6.500	-0.070	0.820	0.210
2020/01/31 20:29:59.4	6.490	-0.100	0.830	0.260
2020/01/31 20:29:59.5	6.470	-0.120	0.830	0.300
2020/01/31 20:29:59.6	6.450	-0.140	0.820	0.340
2020/01/31 20:29:59.7	6.430	-0.170	0.810	0.380
2020/01/31 20:29:59.8	6.410	-0.200	0.790	0.410
2020/01/31 20:29:59.9	6.390	-0.220	0.770	0.430
2020/01/31 20:30:00.0	6.370	-0.250	0.740	0.460
2020/01/31 20:30:00.1	6.350	-0.280	0.710	0.470
2020/01/31 20:30:00.2	6.330	-0.300	0.670	0.480
2020/01/31 20:30:00.3	6.320	-0.330	0.620	0.490
2020/01/31 20:30:00.4	6.300	-0.360	0.570	0.480
2020/01/31 20:30:00.5	6.280	-0.380	0.520	0.480
2020/01/31 20:30:00.6	6.270	-0.400	0.460	0.470
2020/01/31 20:30:00.7	6.260	-0.420	0.390	0.450
2020/01/31 20:30:00.8	6.250	-0.440	0.330	0.430
2020/01/31 20:30:00.9	6.240	-0.450	0.260	0.410
2020/01/31 20:30:01.0	6.240	-0.460	0.180	0.380
2020/01/31 20:30:01.1	6.230	-0.470	0.100	0.350
2020/01/31 20:30:01.2	6.230	-0.470	0.020	0.320
2020/01/31 20:30:01.3	6.240	-0.470	-0.060	0.280
2020/01/31 20:30:01.4	6.240	-0.470	-0.150	0.250
2020/01/31 20:30:01.5	6.250	-0.460	-0.240	0.210
2020/01/31 20:30:01.6	6.260	-0.450	-0.330	0.160
2020/01/31 20:30:01.7	6.270	-0.440	-0.420	0.120
2020/01/31 20:30:01.8	6.280	-0.420	-0.510	0.080
2020/01/31 20:30:01.9	6.300	-0.400	-0.600	0.040
2020/01/31 20:30:02.0	6.310	-0.370	-0.690	-0.000
2020/01/31 20:30:02.1	6.330	-0.340	-0.770	-0.040
2020/01/31 20:30:02.2	6.340	-0.310	-0.860	-0.080
2020/01/31 20:30:02.3	6.360	-0.270	-0.930	-0.110
2020/01/31 20:30:02.4	6.380	-0.240	-1.010	-0.150
2020/01/31 20:30:02.5	6.390	-0.200	-1.070	-0.180
2020/01/31 20:30:02.6	6.400	-0.160	-1.130	-0.210
2020/01/31 20:30:02.7	6.410	-0.110	-1.190	-0.230
2020/01/31 20:30:02.8	6.430	-0.070	-1.240	-0.260
2020/01/31 20:30:02.9	6.430	-0.030	-1.280	-0.280
2020/01/31 20:30:03.0	6.440	0.020	-1.310	-0.290
2020/01/31 20:30:03.1	6.440	0.060	-1.340	-0.310
2020/01/31 20:30:03.2	6.450	0.100	-1.360	-0.320
2020/01/31 20:30:03.3	6.450	0.150	-1.370	-0.320
2020/01/31 20:30:03.4	6.450	0.190	-1.380	-0.330
2020/01/31 20:30:03.5	6.450	0.230	-1.370	-0.330
2020/01/31 20:30:03.6	6.450	0.260	-1.360	-0.320
2020/01/31 20:30:03.7	6.450	0.300	-1.350	-0.320
2020/01/31 20:30:03.8	6.450	0.330	-1.330	-0.310
2020/01/31 20:30:03.9	6.450	0.360	-1.300	-0.290
2020/01/31 20:30:04.0	6.440	0.390	-1.270	-0.270
2020/01/31 20:30:04.1	6.440	0.410	-1.230	-0.260
2020/01/31 20:30:04.2	6.430	0.430	-1.180	-0.240
2020/01/31 20:30:04.3	6.420	0.450	-1.130	-0.220
2020/01/31 20:30:04.4	6.420	0.470	-1.080	-0.190
2020/01/31 20:30:04.5	6.410	0.480	-1.020	-0.170
2020/01/31 20:30:04.6	6.410	0.480	-0.960	-0.150
2020/01/31 20:30:04.7	6.400	0.490	-0.900	-0.130
2020/01/31 20:30:04.8	6.400	0.490	-0.840	-0.100
2020/01/31 20:30:04.9	6.400	0.490	-0.780	-0.090
2020/01/31 20:30:05.0	6.390	0.480	-0.720	-0.070
2020/01/31 20:30:05.1	6.390	0.470	-0.650	-0.050
2020/01/31 20:30:05.2	6.400	0.460	-0.590	-0.030
2020/01/31 20:30:05.3	6.400	0.450	-0.530	-0.020
2020/01/31 20:30:05.4	6.400	0.440	-0.470	-0.010
2020/01/31 20:30:05.5	6.410	0.420	-0.410	0.000
2020/01/31 20:30:05.6	6.410	0.400	-0.350	0.010
2020/01/31 20:30:05.7	6.420	0.380	-0.300	0.010
2020/01/31 20:30:05.8	6.430	0.360	-0.250	0.020
2020/01/31 20:30:05.9	6.430	0.330	-0.200	0.020
2020/01/31 20:30:06.0	6.440	0.310	-0.150	0.020
2020/01/31 20:30:06.1	6.450	0.280	-0.100	0.020
2020/01/31 20:30:06.2	6.460	0.260	-0.060	0.010
2020/01/31 20:30:06.3	6.470	0.230	-0.020	0.010
2020/01/31 20:30:06.4	6.480	0.200	0.020	0.000
2020/01/31 20:30:06.5	6.490	0.180	0.050	-0.000
2020/01/31 20:30:06.6	6.500	0.150	0.090	-0.010
2020/01/31 20:30:06.7	6.510	0.130	0.120	-0.020
2020/01/31 20:30:06.8	6.520	0.100	0.140	-0.020
2020/01/31 20:30:06.9	6.540	0.080	0.170	-0.030
2020/01/31 20:30:07.0	6.550	0.050	0.190	-0.040
2020/01/31 20:30:07.1	6.560	0.030	0.200	-0.050
2020/01/31 20:30:07.2	6.570	0.010	0.220	-0.060
2020/01/31 20:30:07.3	6.580	-0.010	0.230	-0.060
2020/01/31 20:30:07.4	6.600	-0.030	0.240	-0.070
2020/01/31 20:30:07.5	6.610	-0.050	0.250	-0.080
2020/01/31 20:30:07.6	6.620	-0.070	0.250	-0.090
2020/01/31 20:30:07.7	6.640	-0.080	0.250	-0.110
2020/01/31 20:30:07.8	6.650	-0.090	0.250	-0.120
2020/01/31 20:30:07.9	6.670	-0.110	0.250	-0.130
2020/01/31 20:30:08.0	6.680	-0.120	0.240	-0.140
2020/01/31 20:30:08.1	6.690	-0.130	0.230	-0.150
2020/01/31 20:30:08.2	6.710	-0.130	0.230	-0.170
2020/01/31 20:30:08.3	6.720	-0.140	0.220	-0.180
2020/01/31 20:30:08.4	6.730	-0.150	0.200	-0.200
2020/01/31 20:30:08.5	6.730	-0.150	0.190	-0.210
2020/01/31 20:30:08.6	6.740	-0.150	0.180	-0.230
2020/01/31 20:30:08.7	6.740	-0.150	0.160	-0.240
2020/01/31 20:30:08.8	6.750	-0.160	0.150	-0.260
2020/01/31 20:30:08.9	6.740	-0.160	0.130	-0.270
2020/01/31 20:30:09.0	6.740	-0.150	0.110	-0.280
2020/01/31 20:30:09.1	6.740	-0.150	0.100	-0.300
2020/01/31 20:30:09.2	6.730	-0.150	0.080	-0.300
2020/01/31 20:30:09.3	6.730	-0.150	0.070	-0.310
2020/01/31 20:30:09.4	6.720	-0.150	0.060	-0.320
2020/01/31 20:30:09.5	6.700	-0.140	0.050	-0.320
2020/01/31 20:30:09.6	6.690	-0.140	0.030	-0.320
2020/01/31 20:30:09.7	6.670	-0.140	0.020	-0.320
2020/01/31 20:30:09.8	6.660	-0.140	0.010	-0.320
2020/01/31 20:30:09.9	6.640	-0.130	0.010	-0.320
2020/01/31 20:30:10.0	6.620	-0.130	0.000	-0.320
2020/01/31 20:30:10.1	6.600	-0.130	-0.000	-0.310
2020/01/31 20:30:10.2	6.580	-0.130	-0.010	-0.310
2020/01/31 20:30:10.3	6.560	-0.130	-0.010	-0.310
2020/01/31 20:30:10.4	6.530	-0.130	-0.010	-0.310
2020/01/31 20:30:10.5	6.510	-0.130	-0.010	-0.310
2020/01/31 20:30:10.6	6.480	-0.140	-0.010	-0.300
2020/01/31 20:30:10.7	6.460	-0.140	-0.010	-0.300
2020/01/31 20:30:10.8	6.430	-0.140	-0.010	-0.300
2020/01/31 20:30:10.9	6.410	-0.150	-0.010	-0.300
2020/01/31 20:30:11.0	6.380	-0.150	-0.010	-0.300
2020/01/31 20:30:11.1	6.360	-0.150	-0.000	-0.300
2020/01/31 20:30:11.2	6.340	-0.160	-0.000	-0.300
2020/01/31 20:30:11.3	6.320	-0.160	-0.010	-0.310
2020/01/31 20:30:11.4	6.300	-0.170	-0.010	-0.310
2020/01/31 20:30:11.5	6.280	-0.170	-0.010	-0.310
2020/01/31 20:30:11.6	6.260	-0.170	-0.010	-0.310
2020/01/31 20:30:11.7	6.240	-0.180	-0.020	-0.310
2020/01/31 20:30:11.8	6.220	-0.180	-0.030	-0.310
2020/01/31 20:30:11.9	6.200	-0.180	-0.040	-0.310
2020/01/31 20:30:12.0	6.190	-0.180	-0.050	-0.310
2020/01/31 20:30:12.1	6.170	-0.180	-0.060	-0.310
2020/01/31 20:30:12.2	6.160	-0.180	-0.080	-0.300
2020/01/31 20:30:12.3	6.150	-0.180	-0.090	-0.300
2020/01/31 20:30:12.4	6.130	-0.180	-0.110	-0.300
2020/01/31 20:30:12.5	6.120	-0.170	-0.130	-0.300
2020/01/31 20:30:12.6	6.110	-0.170	-0.160	-0.300
2020/01/31 20:30:12.7	6.110	-0.160	-0.180	-0.300
2020/01/31 20:30:12.8	6.100	-0.150	-0.210	-0.300
2020/01/31 20:30:12.9	6.090	-0.140	-0.240	-0.300
2020/01/31 20:30:13.0	6.080	-0.130	-0.270	-0.300
2020/01/31 20:30:13.1	6.080	-0.110	-0.300	-0.300
2020/01/31 20:30:13.2	6.070	-0.100	-0.340	-0.300
2020/01/31 20:30:13.3	6.070	-0.080	-0.370	-0.290
2020/01/31 20:30:13.4	6.070	-0.060	-0.410	-0.290
2020/01/31 20:30:13.5	6.070	-0.040	-0.450	-0.290
2020/01/31 20:30:13.6	6.070	-0.020	-0.490	-0.290
2020/01/31 20:30:13.7	6.070	0.010	-0.530	-0.280
2020/01/31 20:30:13.8	6.080	0.030	-0.570	-0.280
2020/01/31 20:30:13.9	6.080	0.060	-0.600	-0.270
2020/01/31 20:30:14.0	6.080	0.080	-0.640	-0.270
2020/01/31 20:30:14.1	6.090	0.110	-0.680	-0.260
2020/01/31 20:30:14.2	6.100	0.140	-0.710	-0.260
2020/01/31 20:30:14.3	6.110	0.170	-0.740	-0.250
2020/01/31 20:30:14.4	6.120	0.190	-0.770	-0.250
2020/01/31 20:30:14.5	6.140	0.220	-0.800	-0.250
2020/01/31 20:30:14.6	6.150	0.250	-0.820	-0.240
2020/01/31 20:30:14.7	6.170	0.270	-0.840	-0.240
2020/01/31 20:30:14.8	6.190	0.300	-0.860	-0.230
2020/01/31 20:30:14.9	6.200	0.320	-0.880	-0.220
2020/01/31 20:30:15.0	6.220	0.340	-0.880	-0.220
2020/01/31 20:30:15.1	6.240	0.360	-0.880	-0.210
2020/01/31 20:30:15.2	6.260	0.370	-0.880	-0.210
2020/01/31 20:30:15.3	6.280	0.390	-0.870	-0.200
2020/01/31 20:30:15.4	6.310	0.400	-0.850	-0.200
2020/01/31 20:30:15.5	6.330	0.410	-0.830	-0.190
2020/01/31 20:30:15.6	6.360	0.410	-0.810	-0.180
2020/01/31 20:30:15.7	6.390	0.420	-0.780	-0.170
2020/01/31 20:30:15.8	6.410	0.420	-0.750	-0.170
2020/01/31 20:30:15.9	6.440	0.410	-0.710	-0.160
2020/01/31 20:30:16.0	6.470	0.410	-0.670	-0.150
2020/01/31 20:30:16.1	6.500	0.400	-0.630	-0.140
2020/01/31 20:30:16.2	6.520	0.380	-0.590	-0.130
2020/01/31 20:30:16.3	6.550	0.370	-0.540	-0.110
2020/01/31 20:30:16.4	6.580	0.350	-0.500	-0.100
2020/01/31 20:30:16.5	6.610	0.330	-0.450	-0.090
2020/01/31 20:30:16.6	6.640	0.300	-0.410	-0.070
2020/01/31 20:30:16.7	6.660	0.270	-0.360	-0.060
2020/01/31 20:30:16.8	6.690	0.250	-0.320	-0.050
2020/01/31 20:30:16.9	6.720	0.210	-0.280	-0.030
2020/01/31 20:30:17.0	6.750	0.180	-0.240	-0.020
2020/01/31 20:30:17.1	6.770	0.140	-0.200	-0.010
2020/01/31 20:30:17.2	6.800	0.110	-0.170	0.000
2020/01/31 20:30:17.3	6.820	0.070	-0.130	0.010
2020/01/31 20:30:17.4	6.850	0.030	-0.100	0.010
2020/01/31 20:30:17.5	6.870	-0.010	-0.070	0.020
2020/01/31 20:30:17.6	6.890	-0.050	-0.050	0.020
2020/01/31 20:30:17.7	6.900	-0.090	-0.030	0.030
2020/01/31 20:30:17.8	6.920	-0.120	-0.010	0.030
2020/01/31 20:30:17.9	6.930	-0.160	0.010	0.030
2020/01/31 20:30:18.0	6.940	-0.200	0.020	0.030
2020/01/31 20:30:18.1	6.940	-0.240	0.040	0.030
2020/01/31 20:30:18.2	6.940	-0.270	0.050	0.030
2020/01/31 20:30:18.3	6.940	-0.310	0.060	0.030
2020/01/31 20:30:18.4	6.930	-0.340	0.060	0.040
2020/01/31 20:30:18.5	6.910	-0.370	0.070	0.040
2020/01/31 20:30:18.6	6.890	-0.390	0.080	0.040
2020/01/31 20:30:18.7	6.870	-0.420	0.080	0.040
2020/01/31 20:30:18.8	6.850	-0.440	0.090	0.050
2020/01/31 20:30:18.9	6.820	-0.460	0.090	0.050
2020/01/31 20:30:19.0	6.790	-0.470	0.100	0.060
2020/01/31 20:30:19.1	6.750	-0.480	0.100	0.060
2020/01/31 20:30:19.2	6.710	-0.490	0.110	0.070
2020/01/31 20:30:19.3	6.670	-0.500	0.120	0.070
2020/01/31 20:30:19.4	6.620	-0.500	0.120	0.080
2020/01/31 20:30:19.5	6.580	-0.500	0.130	0.090
2020/01/31 20:30:19.6	6.530	-0.490	0.140	0.100
2020/01/31 20:30:19.7	6.480	-0.490	0.140	0.110
2020/01/31 20:30:19.8	6.430	-0.470	0.150	0.130
2020/01/31 20:30:19.9	6.380	-0.460	0.150	0.140
2020/01/31 20:30:20.0	6.320	-0.440	0.160	0.150
2020/01/31 20:30:20.1	6.270	-0.420	0.160	0.160
2020/01/31 20:30:20.2	6.220	-0.400	0.160	0.180
2020/01/31 20:30:20.3	6.170	-0.370	0.160	0.190
2020/01/31 20:30:20.4	6.120	-0.350	0.150	0.200
2020/01/31 20:30:20.5	6.080	-0.320	0.140	0.220
2020/01/31 20:30:20.6	6.030	-0.280	0.140	0.230
2020/01/31 20:30:20.7	5.990	-0.250	0.120	0.240
2020/01/31 20:30:20.8	5.940	-0.220	0.110	0.250
2020/01/31 20:30:20.9	5.910	-0.180	0.090	0.260
2020/01/31 20:30:21.0	5.880	-0.140	0.070	0.260
2020/01/31 20:30:21.1	5.840	-0.110	0.050	0.270
2020/01/31 20:30:21.2	5.800	-0.070	0.030	0.270
2020/01/31 20:30:21.3	5.770	-0.040	0.010	0.260
2020/01/31 20:30:21.4	5.730	-0.000	-0.020	0.260
2020/01/31 20:30:21.5	5.710	0.030	-0.050	0.250
2020/01/31 20:30:21.6	5.680	0.070	-0.080	0.240
2020/01/31 20:30:21.7	5.650	0.100	-0.110	0.220
2020/01/31 20:30:21.8	5.630	0.130	-0.140	0.200
2020/01/31 20:30:21.9	5.610	0.160	-0.180	0.180
2020/01/31 20:30:22.0	5.600	0.180	-0.210	0.160
2020/01/31 20:30:22.1	5.580	0.210	-0.240	0.130
2020/01/31 20:30:22.2	5.580	0.230	-0.280	0.090
2020/01/31 20:30:22.3	5.570	0.250	-0.310	0.060
2020/01/31 20:30:22.4	5.570	0.270	-0.350	0.020
2020/01/31 20:30:22.5	5.570	0.280	-0.380	-0.020
2020/01/31 20:30:22.6	5.570	0.300	-0.420	-0.060
2020/01/31 20:30:22.7	5.580	0.310	-0.450	-0.100
2020/01/31 20:30:22.8	5.590	0.320	-0.480	-0.140
2020/01/31 20:30:22.9	5.600	0.330	-0.510	-0.180
2020/01/31 20:30:23.0	5.610	0.330	-0.540	-0.230
2020/01/31 20:30:23.1	5.640	0.340	-0.570	-0.270
2020/01/31 20:30:23.2	5.660	0.340	-0.590	-0.310
2020/01/31 20:30:23.3	5.690	0.340	-0.620	-0.350
2020/01/31 20:30:23.4	5.720	0.340	-0.640	-0.400
2020/01/31 20:30:23.5	5.760	0.340	-0.660	-0.440
2020/01/31 20:30:23.6	5.800	0.340	-0.670	-0.480
2020/01/31 20:30:23.7	5.840	0.330	-0.690	-0.520
2020/01/31 20:30:23.8	5.880	0.330	-0.700	-0.560
2020/01/31 20:30:23.9	5.930	0.320	-0.710	-0.590
2020/01/31 20:30:24.0	5.980	0.320	-0.720	-0.630
2020/01/31 20:30:24.1	6.030	0.310	-0.730	-0.670
2020/01/31 20:30:24.2	6.090	0.310	-0.740	-0.700
2020/01/31 20:30:24.3	6.140	0.300	-0.740	-0.740
2020/01/31 20:30:24.4	6.200	0.290	-0.740	-0.770
2020/01/31 20:30:24.5	6.260	0.280	-0.740	-0.800
2020/01/31 20:30:24.6	6.320	0.270	-0.740	-0.830
2020/01/31 20:30:24.7	6.380	0.260	-0.730	-0.860
2020/01/31 20:30:24.8	6.440	0.250	-0.720	-0.890
2020/01/31 20:30:24.9	6.480	0.230	-0.720	-0.920
2020/01/31 20:30:25.0	6.540	0.220	-0.710	-0.940
2020/01/31 20:30:25.1	6.600	0.210	-0.690	-0.960
2020/01/31 20:30:25.2	6.660	0.190	-0.680	-0.980
2020/01/31 20:30:25.3	6.720	0.180	-0.660	-1.000
2020/01/31 20:30:25.4	6.770	0.160	-0.640	-1.010
2020/01/31 20:30:25.5	6.830	0.150	-0.620	-1.020
2020/01/31 20:30:25.6	6.880	0.130	-0.600	-1.030
2020/01/31 20:30:25.7	6.930	0.110	-0.570	-1.040
2020/01/31 20:30:25.8	6.980	0.090	-0.550	-1.040
2020/01/31 20:30:25.9	7.030	0.070	-0.520	-1.040
2020/01/31 20:30:26.0	7.080	0.050	-0.490	-1.030
2020/01/31 20:30:26.1	7.110	0.030	-0.460	-1.020
2020/01/31 20:30:26.2	7.150	0.010	-0.430	-1.000
2020/01/31 20:30:26.3	7.180	-0.010	-0.390	-0.980
2020/01/31 20:30:26.4	7.200	-0.030	-0.350	-0.950
2020/01/31 20:30:26.5	7.220	-0.050	-0.310	-0.920
2020/01/31 20:30:26.6	7.240	-0.070	-0.270	-0.890
2020/01/31 20:30:26.7	7.250	-0.090	-0.230	-0.840
2020/01/31 20:30:26.8	7.250	-0.120	-0.180	-0.800
2020/01/31 20:30:26.9	7.240	-0.140	-0.140	-0.740
2020/01/31 20:30:27.0	7.230	-0.160	-0.090	-0.690
2020/01/31 20:30:27.1	7.220	-0.180	-0.040	-0.630
2020/01/31 20:30:27.2	7.200	-0.210	0.010	-0.560
2020/01/31 20:30:27.3	7.170	-0.230	0.060	-0.500
2020/01/31 20:30:27.4	7.140	-0.250	0.110	-0.430
2020/01/31 20:30:27.5	7.110	-0.270	0.160	-0.360
2020/01/31 20:30:27.6	7.070	-0.290	0.210	-0.290
2020/01/31 20:30:27.7	7.020	-0.310	0.260	-0.220
2020/01/31 20:30:27.8	6.970	-0.320	0.310	-0.140
2020/01/31 20:30:27.9	6.910	-0.340	0.350	-0.080
2020/01/31 20:30:28.0	6.860	-0.350	0.390	-0.010
2020/01/31 20:30:28.1	6.800	-0.370	0.430	0.060
2020/01/31 20:30:28.2	6.740	-0.380	0.470	0.130
2020/01/31 20:30:28.3	6.680	-0.390	0.500	0.200
2020/01/31 20:30:28.4	6.620	-0.400	0.530	0.260
2020/01/31 20:30:28.5	6.560	-0.400	0.550	0.320
2020/01/31 20:30:28.6	6.500	-0.400	0.570	0.370
2020/01/31 20:30:28.7	6.440	-0.410	0.590	0.420
2020/01/31 20:30:28.8	6.390	-0.400	0.600	0.470
2020/01/31 20:30:28.9	6.340	-0.400	0.600	0.510
2020/01/31 20:30:29.0	6.280	-0.390	0.590	0.540
2020/01/31 20:30:29.1	6.230	-0.390	0.590	0.570
2020/01/31 20:30:29.2	6.180	-0.380	0.570	0.600
2020/01/31 20:30:29.3	6.130	-0.360	0.550	0.610
2020/01/31 20:30:29.4	6.090	-0.350	0.530	0.630
2020/01/31 20:30:29.5	6.050	-0.330	0.500	0.630
2020/01/31 20:30:29.6	6.010	-0.310	0.460	0.640
2020/01/31 20:30:29.7	5.970	-0.280	0.420	0.630
2020/01/31 20:30:29.8	5.940	-0.260	0.380	0.630
2020/01/31 20:30:29.9	5.920	-0.230	0.330	0.620
2020/01/31 20:30:30.0	5.890	-0.200	0.280	0.600
2020/01/31 20:30:30.1	5.870	-0.170	0.230	0.590
2020/01/31 20:30:30.2	5.860	-0.140	0.170	0.570
2020/01/31 20:30:30.3	5.850	-0.100	0.110	0.550
2020/01/31 20:30:30.4	5.840	-0.070	0.050	0.530
2020/01/31 20:30:30.5	5.830	-0.030	-0.010	0.500
2020/01/31 20:30:30.6	5.830	0.010	-0.070	0.470
2020/01/31 20:30:30.7	5.830	0.050	-0.140	0.450
2020/01/31 20:30:30.8	5.840	0.090	-0.200	0.420
2020/01/31 20:30:30.9	5.840	0.130	-0.260	0.380
2020/01/31 20:30:31.0	5.850	0.160	-0.320	0.350
2020/01/31 20:30:31.1	5.870	0.200	-0.380	0.320
2020/01/31 20:30:31.2	5.880	0.240	-0.440	0.290
2020/01/31 20:30:31.3	5.900	0.280	-0.490	0.250
2020/01/31 20:30:31.4	5.920	0.310	-0.550	0.220
2020/01/31 20:30:31.5	5.940	0.340	-0.600	0.190
2020/01/31 20:30:31.6	5.960	0.370	-0.640	0.160
2020/01/31 20:30:31.7	5.990	0.400	-0.690	0.120
2020/01/31 20:30:31.8	6.010	0.430	-0.730	0.090
2020/01/31 20:30:31.9	6.040	0.450	-0.770	0.060
2020/01/31 20:30:32.0	6.070	0.470	-0.800	0.030
2020/01/31 20:30:32.1	6.100	0.490	-0.830	-0.000
2020/01/31 20:30:32.2	6.130	0.500	-0.860	-0.030
2020/01/31 20:30:32.3	6.170	0.510	-0.890	-0.070
2020/01/31 20:30:32.4	6.200	0.520	-0.910	-0.100
2020/01/31 20:30:32.5	6.240	0.520	-0.920	-0.140
2020/01/31 20:30:32.6	6.270	0.520	-0.940	-0.170
2020/01/31 20:30:32.7	6.310	0.510	-0.950	-0.210
2020/01/31 20:30:32.8	6.350	0.500	-0.960	-0.240
2020/01/31 20:30:32.9	6.390	0.490	-0.970	-0.280
2020/01/31 20:30:33.0	6.430	0.470	-0.970	-0.320
2020/01/31 20:30:33.1	6.470	0.450	-0.970	-0.360
2020/01/31 20:30:33.2	6.510	0.430	-0.970	-0.400
2020/01/31 20:30:33.3	6.550	0.400	-0.960	-0.440
2020/01/31 20:30:33.4	6.590	0.360	-0.960	-0.490
2020/01/31 20:30:33.5	6.630	0.330	-0.950	-0.530
2020/01/31 20:30:33.6	6.670	0.290	-0.930	-0.570
2020/01/31 20:30:33.7	6.700	0.250	-0.920	-0.610
2020/01/31 20:30:33.8	6.740	0.200	-0.900	-0.650
2020/01/31 20:30:33.9	6.780	0.160	-0.890	-0.690
2020/01/31 20:30:34.0	6.810	0.110	-0.860	-0.730
2020/01/31 20:30:34.1	6.830	0.060	-0.840	-0.770
2020/01/31 20:30:34.2	6.860	0.010	-0.810	-0.800
2020/01/31 20:30:34.3	6.880	-0.050	-0.780	-0.830
2020/01/31 20:30:34.4	6.900	-0.100	-0.750	-0.870
2020/01/31 20:30:34.5	6.920	-0.150	-0.710	-0.890
2020/01/31 20:30:34.6	6.940	-0.210	-0.680	-0.920
2020/01/31 20:30:34.7	6.960	-0.260	-0.640	-0.950
2020/01/31 20:30:34.8	6.980	-0.310	-0.600	-0.970
2020/01/31 20:30:34.9	7.000	-0.360	-0.560	-0.990
2020/01/31 20:30:35.0	7.010	-0.400	-0.520	-1.010
2020/01/31 20:30:35.1	7.020	-0.450	-0.480	-1.020
2020/01/31 20:30:35.2	7.040	-0.490	-0.430	-1.030
2020/01/31 20:30:35.3	7.050	-0.530	-0.390	-1.050
2020/01/31 20:30:35.4	7.060	-0.570	-0.350	-1.050
2020/01/31 20:30:35.5	7.070	-0.600	-0.300	-1.060
2020/01/31 20:30:35.6	7.090	-0.630	-0.260	-1.060
2020/01/31 20:30:35.7	7.100	-0.650	-0.220	-1.060
2020/01/31 20:30:35.8	7.110	-0.670	-0.180	-1.060
2020/01/31 20:30:35.9	7.130	-0.690	-0.140	-1.050
2020/01/31 20:30:36.0	7.130	-0.700	-0.100	-1.040
2020/01/31 20:30:36.1	7.140	-0.700	-0.060	-1.020
2020/01/31 20:30:36.2	7.140	-0.710	-0.020	-1.000
2020/01/31 20:30:36.3	7.140	-0.710	0.020	-0.980
2020/01/31 20:30:36.4	7.140	-0.700	0.050	-0.950
2020/01/31 20:30:36.5	7.140	-0.690	0.090	-0.920
2020/01/31 20:30:36.6	7.130	-0.680	0.120	-0.880
2020/01/31 20:30:36.7	7.130	-0.660	0.160	-0.850
2020/01/31 20:30:36.8	7.120	-0.630	0.190	-0.800
2020/01/31 20:30:36.9	7.100	-0.610	0.220	-0.760
2020/01/31 20:30:37.0	7.090	-0.580	0.250	-0.710
2020/01/31 20:30:37.1	7.070	-0.540	0.280	-0.660
2020/01/31 20:30:37.2	7.050	-0.510	0.310	-0.600
2020/01/31 20:30:37.3	7.030	-0.470	0.330	-0.550
2020/01/31 20:30:37.4	7.010	-0.420	0.350	-0.490
2020/01/31 20:30:37.5	6.990	-0.380	0.380	-0.430
2020/01/31 20:30:37.6	6.960	-0.330	0.400	-0.360
2020/01/31 20:30:37.7	6.930	-0.280	0.410	-0.300
2020/01/31 20:30:37.8	6.900	-0.220	0.430	-0.230
2020/01/31 20:30:37.9	6.890	-0.170	0.440	-0.160
2020/01/31 20:30:38.0	6.860	-0.110	0.450	-0.090
2020/01/31 20:30:38.1	6.830	-0.060	0.460	-0.030
2020/01/31 20:30:38.2	6.800	0.000	0.460	0.040
2020/01/31 20:30:38.3	6.780	0.060	0.450	0.100
2020/01/31 20:30:38.4	6.750	0.120	0.440	0.170
2020/01/31 20:30:38.5	6.730	0.180	0.430	0.220
2020/01/31 20:30:38.6	6.710	0.230	0.410	0.280
2020/01/31 20:30:38.7	6.690	0.290	0.390	0.330
2020/01/31 20:30:38.8	6.680	0.350	0.360	0.380
2020/01/31 20:30:38.9	6.660	0.400	0.330	0.420
2020/01/31 20:30:39.0	6.660	0.450	0.290	0.460
2020/01/31 20:30:39.1	6.650	0.500	0.240	0.490
2020/01/31 20:30:39.2	6.640	0.550	0.200	0.520
2020/01/31 20:30:39.3	6.640	0.600	0.140	0.540
2020/01/31 20:30:39.4	6.650	0.640	0.080	0.560
2020/01/31 20:30:39.5	6.650	0.680	0.020	0.580
2020/01/31 20:30:39.6	6.660	0.720	-0.040	0.590
2020/01/31 20:30:39.7	6.660	0.750	-0.110	0.600
2020/01/31 20:30:39.8	6.670	0.780	-0.180	0.600
2020/01/31 20:30:39.9	6.690	0.810	-0.250	0.600
2020/01/31 20:30:40.0	6.700	0.830	-0.310	0.600
2020/01/31 20:30:40.1	6.710	0.850	-0.380	0.590
2020/01/31 20:30:40.2	6.730	0.860	-0.450	0.580
2020/01/31 20:30:40.3	6.740	0.860	-0.510	0.570
2020/01/31 20:30:40.4	6.750	0.860	-0.570	0.550
2020/01/31 20:30:40.5	6.770	0.860	-0.620	0.540
2020/01/31 20:30:40.6	6.780	0.850	-0.670	0.520
2020/01/31 20:30:40.7	6.790	0.830	-0.710	0.490
2020/01/31 20:30:40.8	6.800	0.810	-0.740	0.470
2020/01/31 20:30:40.9	6.820	0.780	-0.770	0.440
2020/01/31 20:30:41.0	6.820	0.750	-0.790	0.420
2020/01/31 20:30:41.1	6.820	0.710	-0.810	0.390
2020/01/31 20:30:41.2	6.820	0.660	-0.810	0.360
2020/01/31 20:30:41.3	6.820	0.610	-0.810	0.320
2020/01/31 20:30:41.4	6.820	0.560	-0.790	0.290
2020/01/31 20:30:41.5	6.810	0.500	-0.770	0.260
2020/01/31 20:30:41.6	6.800	0.430	-0.740	0.230
2020/01/31 20:30:41.7	6.790	0.360	-0.700	0.190
2020/01/31 20:30:41.8	6.780	0.290	-0.650	0.160
2020/01/31 20:30:41.9	6.760	0.220	-0.600	0.120
2020/01/31 20:30:42.0	6.750	0.140	-0.540	0.090
2020/01/31 20:30:42.1	6.730	0.060	-0.480	0.060
2020/01/31 20:30:42.2	6.710	-0.020	-0.400	0.030
2020/01/31 20:30:42.3	6.690	-0.100	-0.330	-0.010
2020/01/31 20:30:42.4	6.670	-0.180	-0.260	-0.040
2020/01/31 20:30:42.5	6.650	-0.260	-0.180	-0.070
2020/01/31 20:30:42.6	6.640	-0.340	-0.100	-0.100
2020/01/31 20:30:42.7	6.620	-0.420	-0.020	-0.140
2020/01/31 20:30:42.8	6.600	-0.500	0.050	-0.170
2020/01/31 20:30:42.9	6.580	-0.570	0.120	-0.210
2020/01/31 20:30:43.0	6.570	-0.640	0.180	-0.240
2020/01/31 20:30:43.1	6.560	-0.700	0.240	-0.280
2020/01/31 20:30:43.2	6.560	-0.760	0.290	-0.320
2020/01/31 20:30:43.3	6.560	-0.810	0.340	-0.370
2020/01/31 20:30:43.4	6.560	-0.860	0.370	-0.410
2020/01/31 20:30:43.5	6.560	-0.900	0.400	-0.460
2020/01/31 20:30:43.6	6.570	-0.930	0.420	-0.500
2020/01/31 20:30:43.7	6.580	-0.960	0.420	-0.550
2020/01/31 20:30:43.8	6.590	-0.980	0.420	-0.590
2020/01/31 20:30:43.9	6.600	-0.990	0.410	-0.640
2020/01/31 20:30:44.0	6.620	-0.990	0.390	-0.680
2020/01/31 20:30:44.1	6.630	-0.980	0.350	-0.730
2020/01/31 20:30:44.2	6.650	-0.970	0.310	-0.760
2020/01/31 20:30:44.3	6.670	-0.940	0.260	-0.800
2020/01/31 20:30:44.4	6.690	-0.910	0.200	-0.830
2020/01/31 20:30:44.5	6.700	-0.870	0.130	-0.870
2020/01/31 20:30:44.6	6.720	-0.830	0.050	-0.890
2020/01/31 20:30:44.7	6.740	-0.770	-0.030	-0.920
2020/01/31 20:30:44.8	6.760	-0.710	-0.110	-0.940
2020/01/31 20:30:44.9	6.780	-0.650	-0.210	-0.950
2020/01/31 20:30:45.0	6.800	-0.580	-0.300	-0.960
2020/01/31 20:30:45.1	6.820	-0.510	-0.390	-0.970
2020/01/31 20:30:45.2	6.830	-0.430	-0.490	-0.980
2020/01/31 20:30:45.3	6.850	-0.350	-0.580	-0.980
2020/01/31 20:30:45.4	6.860	-0.270	-0.670	-0.980
2020/01/31 20:30:45.5	6.870	-0.180	-0.760	-0.970
2020/01/31 20:30:45.6	6.880	-0.100	-0.850	-0.970
2020/01/31 20:30:45.7	6.890	-0.010	-0.930	-0.950
2020/01/31 20:30:45.8	6.900	0.070	-1.000	-0.940
2020/01/31 20:30:45.9	6.890	0.150	-1.070	-0.910
2020/01/31 20:30:46.0	6.890	0.230	-1.130	-0.890
2020/01/31 20:30:46.1	6.900	0.300	-1.180	-0.860
2020/01/31 20:30:46.2	6.900	0.380	-1.230	-0.830
2020/01/31 20:30:46.3	6.900	0.440	-1.270	-0.790
2020/01/31 20:30:46.4	6.900	0.510	-1.290	-0.760
2020/01/31 20:30:46.5	6.890	0.560	-1.310	-0.710
2020/01/31 20:30:46.6	6.880	0.610	-1.320	-0.670
2020/01/31 20:30:46.7	6.870	0.660	-1.320	-0.620
2020/01/31 20:30:46.8	6.860	0.700	-1.310	-0.560
2020/01/31 20:30:46.9	6.860	0.730	-1.290	-0.510
2020/01/31 20:30:47.0	6.850	0.750	-1.260	-0.450
2020/01/31 20:30:47.1	6.830	0.770	-1.220	-0.390
2020/01/31 20:30:47.2	6.820	0.780	-1.180	-0.340
2020/01/31 20:30:47.3	6.810	0.780	-1.120	-0.280
2020/01/31 20:30:47.4	6.790	0.780	-1.060	-0.230
2020/01/31 20:30:47.5	6.780	0.760	-1.000	-0.180
2020/01/31 20:30:47.6	6.770	0.750	-0.920	-0.130
2020/01/31 20:30:47.7	6.760	0.720	-0.850	-0.080
2020/01/31 20:30:47.8	6.750	0.690	-0.770	-0.040
2020/01/31 20:30:47.9	6.750	0.650	-0.680	0.000
2020/01/31 20:30:48.0	6.740	0.610	-0.600	0.030
2020/01/31 20:30:48.1	6.740	0.560	-0.510	0.060
2020/01/31 20:30:48.2	6.740	0.510	-0.420	0.080
2020/01/31 20:30:48.3	6.740	0.460	-0.330	0.100
2020/01/31 20:30:48.4	6.740	0.400	-0.240	0.100
2020/01/31 20:30:48.5	6.750	0.340	-0.140	0.110
2020/01/31 20:30:48.6	6.760	0.270	-0.050	0.100
2020/01/31 20:30:48.7	6.770	0.210	0.030	0.090
2020/01/31 20:30:48.8	6.780	0.140	0.120	0.080
2020/01/31 20:30:48.9	6.780	0.070	0.200	0.050
2020/01/31 20:30:49.0	6.790	0.010	0.280	0.030
2020/01/31 20:30:49.1	6.810	-0.060	0.360	0.010
2020/01/31 20:30:49.2	6.830	-0.120	0.430	-0.020
2020/01/31 20:30:49.3	6.850	-0.180	0.500	-0.050
2020/01/31 20:30:49.4	6.870	-0.240	0.560	-0.080
2020/01/31 20:30:49.5	6.890	-0.300	0.620	-0.120
2020/01/31 20:30:49.6	6.920	-0.350	0.670	-0.150
2020/01/31 20:30:49.7	6.940	-0.400	0.720	-0.190
2020/01/31 20:30:49.8	6.960	-0.450	0.760	-0.220
2020/01/31 20:30:49.9	6.990	-0.490	0.800	-0.250
2020/01/31 20:30:50.0	7.010	-0.520	0.830	-0.280
2020/01/31 20:30:50.1	7.040	-0.550	0.850	-0.310
2020/01/31 20:30:50.2	7.060	-0.580	0.860	-0.330
2020/01/31 20:30:50.3	7.080	-0.600	0.870	-0.350
2020/01/31 20:30:50.4	7.100	-0.610	0.870	-0.370
2020/01/31 20:30:50.5	7.120	-0.620	0.870	-0.380
2020/01/31 20:30:50.6	7.130	-0.630	0.850	-0.390
2020/01/31 20:30:50.7	7.140	-0.630	0.840	-0.390
2020/01/31 20:30:50.8	7.150	-0.620	0.810	-0.390
2020/01/31 20:30:50.9	7.170	-0.610	0.780	-0.390
2020/01/31 20:30:51.0	7.170	-0.590	0.740	-0.390
2020/01/31 20:30:51.1	7.180	-0.570	0.700	-0.370
2020/01/31 20:30:51.2	7.170	-0.550	0.660	-0.360
2020/01/31 20:30:51.3	7.170	-0.520	0.600	-0.340
2020/01/31 20:30:51.4	7.160	-0.480	0.550	-0.320
2020/01/31 20:30:51.5	7.150	-0.450	0.490	-0.290
2020/01/31 20:30:51.6	7.140	-0.410	0.430	-0.260
2020/01/31 20:30:51.7	7.120	-0.370	0.360	-0.220
2020/01/31 20:30:51.8	7.100	-0.320	0.300	-0.180
2020/01/31 20:30:51.9	7.080	-0.280	0.230	-0.140
2020/01/31 20:30:52.0	7.050	-0.230	0.160	-0.100
2020/01/31 20:30:52.1	7.020	-0.180	0.090	-0.050
2020/01/31 20:30:52.2	6.990	-0.130	0.020	-0.000
2020/01/31 20:30:52.3	6.960	-0.080	-0.050	0.040
2020/01/31 20:30:52.4	6.930	-0.030	-0.120	0.090
2020/01/31 20:30:52.5	6.890	0.020	-0.180	0.140
2020/01/31 20:30:52.6	6.860	0.070	-0.250	0.180
2020/01/31 20:30:52.7	6.820	0.110	-0.310	0.230
2020/01/31 20:30:52.8	6.790	0.160	-0.370	0.280
2020/01/31 20:30:52.9	6.760	0.200	-0.430	0.320
2020/01/31 20:30:53.0	6.720	0.240	-0.490	0.360
2020/01/31 20:30:53.1	6.690	0.280	-0.540	0.400
2020/01/31 20:30:53.2	6.660	0.320	-0.590	0.430
2020/01/31 20:30:53.3	6.630	0.350	-0.630	0.470
2020/01/31 20:30:53.4	6.600	0.380	-0.670	0.490
2020/01/31 20:30:53.5	6.580	0.410	-0.710	0.520
2020/01/31 20:30:53.6	6.550	0.430	-0.740	0.540
2020/01/31 20:30:53.7	6.530	0.450	-0.770	0.560
2020/01/31 20:30:53.8	6.510	0.460	-0.800	0.570
2020/01/31 20:30:53.9	6.490	0.470	-0.820	0.580
2020/01/31 20:30:54.0	6.480	0.480	-0.840	0.580
2020/01/31 20:30:54.1	6.470	0.490	-0.860	0.570
2020/01/31 20:30:54.2	6.460	0.490	-0.870	0.570
2020/01/31 20:30:54.3	6.460	0.480	-0.880	0.550
2020/01/31 20:30:54.4	6.460	0.480	-0.880	0.530
2020/01/31 20:30:54.5	6.460	0.470	-0.890	0.510
2020/01/31 20:30:54.6	6.470	0.460	-0.890	0.480
2020/01/31 20:30:54.7	6.480	0.440	-0.890	0.450
2020/01/31 20:30:54.8	6.490	0.430	-0.880	0.420
2020/01/31 20:30:54.9	6.500	0.410	-0.870	0.370
2020/01/31 20:30:55.0	6.520	0.390	-0.870	0.330
2020/01/31 20:30:55.1	6.540	0.360	-0.860	0.290
2020/01/31 20:30:55.2	6.560	0.340	-0.850	0.240
2020/01/31 20:30:55.3	6.590	0.310	-0.830	0.190
2020/01/31 20:30:55.4	6.610	0.290	-0.820	0.140
2020/01/31 20:30:55.5	6.640	0.260	-0.810	0.090
2020/01/31 20:30:55.6	6.670	0.230	-0.790	0.030
2020/01/31 20:30:55.7	6.700	0.200	-0.780	-0.020
2020/01/31 20:30:55.8	6.740	0.180	-0.760	-0.080
2020/01/31 20:30:55.9	6.780	0.150	-0.750	-0.130
2020/01/31 20:30:56.0	6.820	0.120	-0.730	-0.190
2020/01/31 20:30:56.1	6.860	0.090	-0.720	-0.240
2020/01/31 20:30:56.2	6.890	0.070	-0.700	-0.290
2020/01/31 20:30:56.3	6.930	0.040	-0.690	-0.350
2020/01/31 20:30:56.4	6.960	0.020	-0.670	-0.400
2020/01/31 20:30:56.5	7.000	-0.000	-0.650	-0.440
2020/01/31 20:30:56.6	7.030	-0.020	-0.640	-0.490
2020/01/31 20:30:56.7	7.070	-0.040	-0.620	-0.530
2020/01/31 20:30:56.8	7.100	-0.060	-0.610	-0.570
2020/01/31 20:30:56.9	7.150	-0.070	-0.590	-0.610
2020/01/31 20:30:57.0	7.170	-0.090	-0.570	-0.640
2020/01/31 20:30:57.1	7.200	-0.100	-0.550	-0.670
2020/01/31 20:30:57.2	7.220	-0.110	-0.540	-0.700
2020/01/31 20:30:57.3	7.240	-0.120	-0.520	-0.720
2020/01/31 20:30:57.4	7.260	-0.120	-0.500	-0.740
2020/01/31 20:30:57.5	7.280	-0.130	-0.480	-0.760
2020/01/31 20:30:57.6	7.290	-0.130	-0.450	-0.770
2020/01/31 20:30:57.7	7.310	-0.130	-0.430	-0.780
2020/01/31 20:30:57.8	7.310	-0.130	-0.410	-0.790
2020/01/31 20:30:57.9	7.330	-0.120	-0.380	-0.790
2020/01/31 20:30:58.0	7.340	-0.120	-0.360	-0.780
2020/01/31 20:30:58.1	7.340	-0.110	-0.330	-0.780
2020/01/31 20:30:58.2	7.340	-0.100	-0.300	-0.770
2020/01/31 20:30:58.3	7.340	-0.090	-0.270	-0.750
2020/01/31 20:30:58.4	7.330	-0.080	-0.240	-0.730
2020/01/31 20:30:58.5	7.330	-0.070	-0.200	-0.710
2020/01/31 20:30:58.6	7.320	-0.050	-0.170	-0.680
2020/01/31 20:30:58.7	7.320	-0.040	-0.140	-0.660
2020/01/31 20:30:58.8	7.310	-0.020	-0.100	-0.630
2020/01/31 20:30:58.9	7.290	-0.010	-0.060	-0.590
2020/01/31 20:30:59.0	7.280	0.010	-0.030	-0.560
2020/01/31 20:30:59.1	7.260	0.020	0.000	-0.520
2020/01/31 20:30:59.2	7.250	0.040	0.040	-0.480
2020/01/31 20:30:59.3	7.240	0.060	0.070	-0.440
2020/01/31 20:30:59.4	7.230	0.070	0.100	-0.400
2020/01/31 20:30:59.5	7.220	0.080	0.130	-0.360
2020/01/31 20:30:59.6	7.210	0.100	0.160	-0.320
2020/01/31 20:30:59.7	7.190	0.110	0.190	-0.280
2020/01/31 20:30:59.8	7.180	0.120	0.210	-0.240
2020/01/31 20:30:59.9	7.180	0.130	0.230	-0.200
2020/01/31 20:31:00.0	7.170	0.140	0.250	-0.170
2020/01/31 20:31:00.1	7.160	0.150	0.260	-0.130
2020/01/31 20:31:00.2	7.150	0.150	0.280	-0.100
2020/01/31 20:31:00.3	7.140	0.150	0.290	-0.080
2020/01/31 20:31:00.4	7.130	0.160	0.300	-0.050
2020/01/31 20:31:00.5	7.120	0.160	0.310	-0.030
2020/01/31 20:31:00.6	7.110	0.160	0.310	-0.000
2020/01/31 20:31:00.7	7.100	0.150	0.310	0.020
2020/01/31 20:31:00.8	7.100	0.150	0.320	0.040
2020/01/31 20:31:00.9	7.080	0.140	0.310	0.050
2020/01/31 20:31:01.0	7.070	0.130	0.310	0.060
2020/01/31 20:31:01.1	7.060	0.120	0.310	0.070
2020/01/31 20:31:01.2	7.050	0.110	0.300	0.080
2020/01/31 20:31:01.3	7.040	0.100	0.290	0.090
2020/01/31 20:31:01.4	7.030	0.080	0.290	0.100
2020/01/31 20:31:01.5	7.020	0.070	0.280	0.100
2020/01/31 20:31:01.6	7.010	0.050	0.270	0.100
2020/01/31 20:31:01.7	7.000	0.030	0.260	0.100
2020/01/31 20:31:01.8	6.990	0.010	0.250	0.100
2020/01/31 20:31:01.9	6.990	-0.010	0.240	0.100
2020/01/31 20:31:02.0	6.980	-0.030	0.220	0.100
2020/01/31 20:31:02.1	6.970	-0.050	0.210	0.100
2020/01/31 20:31:02.2	6.960	-0.070	0.190	0.090
2020/01/31 20:31:02.3	6.950	-0.100	0.170	0.090
2020/01/31 20:31:02.4	6.950	-0.120	0.150	0.080
2020/01/31 20:31:02.5	6.940	-0.140	0.130	0.080
2020/01/31 20:31:02.6	6.930	-0.160	0.110	0.070
2020/01/31 20:31:02.7	6.920	-0.170	0.090	0.070
2020/01/31 20:31:02.8	6.920	-0.190	0.070	0.060
2020/01/31 20:31:02.9	6.900	-0.210	0.040	0.050
2020/01/31 20:31:03.0	6.890	-0.220	0.010	0.040
2020/01/31 20:31:03.1	6.890	-0.230	-0.010	0.040
2020/01/31 20:31:03.2	6.880	-0.240	-0.040	0.030
2020/01/31 20:31:03.3	6.870	-0.250	-0.070	0.020
2020/01/31 20:31:03.4	6.870	-0.260	-0.100	0.010
2020/01/31 20:31:03.5	6.860	-0.260	-0.140	0.000
2020/01/31 20:31:03.6	6.860	-0.270	-0.170	-0.010
2020/01/31 20:31:03.7	6.850	-0.270	-0.200	-0.020
2020/01/31 20:31:03.8	6.850	-0.260	-0.240	-0.040
2020/01/31 20:31:03.9	6.840	-0.260	-0.270	-0.050
2020/01/31 20:31:04.0	6.840	-0.250	-0.310	-0.070
2020/01/31 20:31:04.1	6.840	-0.240	-0.350	-0.090
2020/01/31 20:31:04.2	6.840	-0.230	-0.380	-0.110
2020/01/31 20:31:04.3	6.840	-0.220	-0.420	-0.130
2020/01/31 20:31:04.4	6.840	-0.200	-0.460	-0.150
2020/01/31 20:31:04.5	6.850	-0.180	-0.490	-0.170
2020/01/31 20:31:04.6	6.850	-0.160	-0.530	-0.190
2020/01/31 20:31:04.7	6.860	-0.140	-0.560	-0.210
2020/01/31 20:31:04.8	6.870	-0.120	-0.600	-0.240
2020/01/31 20:31:04.9	6.870	-0.090	-0.630	-0.260
2020/01/31 20:31:05.0	6.890	-0.070	-0.660	-0.280
2020/01/31 20:31:05.1	6.900	-0.040	-0.700	-0.310
2020/01/31 20:31:05.2	6.910	-0.020	-0.730	-0.330
2020/01/31 20:31:05.3	6.930	0.010	-0.760	-0.360
2020/01/31 20:31:05.4	6.950	0.040	-0.790	-0.390
2020/01/31 20:31:05.5	6.960	0.060	-0.820	-0.420
2020/01/31 20:31:05.6	6.990	0.090	-0.850	-0.440
2020/01/31 20:31:05.7	7.010	0.110	-0.870	-0.470
2020/01/31 20:31:05.8	7.030	0.140	-0.890	-0.500
2020/01/31 20:31:05.9	7.060	0.160	-0.920	-0.520
2020/01/31 20:31:06.0	7.080	0.180	-0.940	-0.550
2020/01/31 20:31:06.1	7.110	0.200	-0.950	-0.570
2020/01/31 20:31:06.2	7.140	0.220	-0.960	-0.590
2020/01/31 20:31:06.3	7.160	0.230	-0.970	-0.620
2020/01/31 20:31:06.4	7.190	0.240	-0.980	-0.630
2020/01/31 20:31:06.5	7.210	0.250	-0.980	-0.650
2020/01/31 20:31:06.6	7.240	0.260	-0.980	-0.660
2020/01/31 20:31:06.7	7.260	0.260	-0.970	-0.670
2020/01/31 20:31:06.8	7.280	0.260	-0.950	-0.680
2020/01/31 20:31:06.9	7.310	0.260	-0.940	-0.680
2020/01/31 20:31:07.0	7.330	0.250	-0.920	-0.680
2020/01/31 20:31:07.1	7.340	0.240	-0.890	-0.670
2020/01/31 20:31:07.2	7.350	0.230	-0.850	-0.670
2020/01/31 20:31:07.3	7.360	0.210	-0.820	-0.650
2020/01/31 20:31:07.4	7.370	0.200	-0.770	-0.640
2020/01/31 20:31:07.5	7.380	0.180	-0.730	-0.620
2020/01/31 20:31:07.6	7.380	0.160	-0.680	-0.600
2020/01/31 20:31:07.7	7.390	0.130	-0.620	-0.570
2020/01/31 20:31:07.8	7.390	0.110	-0.560	-0.540
2020/01/31 20:31:07.9	7.400	0.080	-0.500	-0.510
2020/01/31 20:31:08.0	7.390	0.050	-0.430	-0.470
2020/01/31 20:31:08.1	7.390	0.020	-0.360	-0.430
2020/01/31 20:31:08.2	7.390	-0.010	-0.290	-0.390
2020/01/31 20:31:08.3	7.380	-0.040	-0.220	-0.350
2020/01/31 20:31:08.4	7.370	-0.070	-0.150	-0.310
2020/01/31 20:31:08.5	7.370	-0.100	-0.070	-0.270
2020/01/31 20:31:08.6	7.360	-0.130	0.000	-0.220
2020/01/31 20:31:08.7	7.350	-0.150	0.070	-0.180
2020/01/31 20:31:08.8	7.340	-0.180	0.150	-0.130
2020/01/31 20:31:08.9	7.330	-0.200	0.210	-0.090
2020/01/31 20:31:09.0	7.320	-0.220	0.280	-0.040
2020/01/31 20:31:09.1	7.310	-0.240	0.350	0.000
2020/01/31 20:31:09.2	7.300	-0.260	0.410	0.050
2020/01/31 20:31:09.3	7.290	-0.280	0.470	0.090
2020/01/31 20:31:09.4	7.280	-0.290	0.520	0.140
2020/01/31 20:31:09.5	7.260	-0.300	0.570	0.180
2020/01/31 20:31:09.6	7.250	-0.300	0.610	0.220
2020/01/31 20:31:09.7	7.230	-0.300	0.650	0.270
2020/01/31 20:31:09.8	7.220	-0.300	0.680	0.300
2020/01/31 20:31:09.9	7.190	-0.300	0.710	0.340
2020/01/31 20:31:10.0	7.180	-0.290	0.730	0.380
2020/01/31 20:31:10.1	7.170	-0.280	0.740	0.410
2020/01/31 20:31:10.2	7.150	-0.260	0.740	0.440
2020/01/31 20:31:10.3	7.140	-0.250	0.740	0.460
2020/01/31 20:31:10.4	7.130	-0.230	0.730	0.480
2020/01/31 20:31:10.5	7.110	-0.210	0.710	0.500
2020/01/31 20:31:10.6	7.100	-0.180	0.680	0.510
2020/01/31 20:31:10.7	7.090	-0.160	0.650	0.520
2020/01/31 20:31:10.8	7.080	-0.130	0.610	0.530
2020/01/31 20:31:10.9	7.060	-0.100	0.560	0.530
2020/01/31 20:31:11.0	7.050	-0.070	0.510	0.530
2020/01/31 20:31:11.1	7.040	-0.040	0.450	0.520
2020/01/31 20:31:11.2	7.020	-0.000	0.380	0.520
2020/01/31 20:31:11.3	7.010	0.030	0.310	0.510
2020/01/31 20:31:11.4	7.000	0.060	0.240	0.500
2020/01/31 20:31:11.5	6.990	0.090	0.160	0.480
2020/01/31 20:31:11.6	6.970	0.130	0.080	0.470
2020/01/31 20:31:11.7	6.960	0.160	-0.010	0.450
2020/01/31 20:31:11.8	6.950	0.190	-0.100	0.430
2020/01/31 20:31:11.9	6.940	0.220	-0.190	0.400
2020/01/31 20:31:12.0	6.930	0.250	-0.280	0.370
2020/01/31 20:31:12.1	6.930	0.280	-0.370	0.340
2020/01/31 20:31:12.2	6.920	0.310	-0.470	0.310
2020/01/31 20:31:12.3	6.920	0.330	-0.560	0.270
2020/01/31 20:31:12.4	6.920	0.360	-0.650	0.230
2020/01/31 20:31:12.5	6.920	0.380	-0.740	0.190
2020/01/31 20:31:12.6	6.920	0.400	-0.820	0.150
2020/01/31 20:31:12.7	6.930	0.420	-0.910	0.100
2020/01/31 20:31:12.8	6.940	0.440	-0.990	0.050
2020/01/31 20:31:12.9	6.950	0.450	-1.060	-0.000
2020/01/31 20:31:13.0	6.970	0.470	-1.130	-0.050
2020/01/31 20:31:13.1	6.980	0.480	-1.190	-0.100
2020/01/31 20:31:13.2	7.000	0.490	-1.250	-0.160
2020/01/31 20:31:13.3	7.020	0.490	-1.290	-0.210
2020/01/31 20:31:13.4	7.040	0.500	-1.330	-0.260
2020/01/31 20:31:13.5	7.060	0.500	-1.370	-0.310
2020/01/31 20:31:13.6	7.090	0.500	-1.390	-0.360
2020/01/31 20:31:13.7	7.110	0.500	-1.400	-0.410
2020/01/31 20:31:13.8	7.140	0.500	-1.410	-0.450
2020/01/31 20:31:13.9	7.160	0.490	-1.410	-0.490
2020/01/31 20:31:14.0	7.180	0.490	-1.390	-0.530
2020/01/31 20:31:14.1	7.210	0.480	-1.370	-0.560
2020/01/31 20:31:14.2	7.240	0.470	-1.340	-0.600
2020/01/31 20:31:14.3	7.270	0.460	-1.300	-0.630
2020/01/31 20:31:14.4	7.300	0.450	-1.260	-0.650
2020/01/31 20:31:14.5	7.330	0.430	-1.200	-0.680
2020/01/31 20:31:14.6	7.350	0.420	-1.140	-0.700
2020/01/31 20:31:14.7	7.380	0.400	-1.070	-0.710
2020/01/31 20:31:14.8	7.410	0.380	-1.000	-0.730
2020/01/31 20:31:14.9	7.440	0.370	-0.920	-0.740
2020/01/31 20:31:15.0	7.470	0.350	-0.830	-0.750
2020/01/31 20:31:15.1	7.500	0.320	-0.750	-0.750
2020/01/31 20:31:15.2	7.520	0.300	-0.650	-0.750
2020/01/31 20:31:15.3	7.550	0.280	-0.560	-0.750
2020/01/31 20:31:15.4	7.570	0.250	-0.460	-0.740
2020/01/31 20:31:15.5	7.590	0.230	-0.360	-0.730
2020/01/31 20:31:15.6	7.610	0.200	-0.260	-0.720
2020/01/31 20:31:15.7	7.620	0.170	-0.170	-0.710
2020/01/31 20:31:15.8	7.630	0.140	-0.070	-0.690
2020/01/31 20:31:15.9	7.640	0.100	0.030	-0.670
2020/01/31 20:31:16.0	7.640	0.070	0.130	-0.640
2020/01/31 20:31:16.1	7.650	0.030	0.220	-0.620
2020/01/31 20:31:16.2	7.640	-0.000	0.310	-0.590
2020/01/31 20:31:16.3	7.640	-0.040	0.390	-0.570
2020/01/31 20:31:16.4	7.630	-0.080	0.470	-0.540
2020/01/31 20:31:16.5	7.620	-0.120	0.550	-0.510
2020/01/31 20:31:16.6	7.610	-0.170	0.620	-0.480
2020/01/31 20:31:16.7	7.590	-0.210	0.680	-0.440
2020/01/31 20:31:16.8	7.570	-0.250	0.730	-0.410
2020/01/31 20:31:16.9	7.560	-0.290	0.780	-0.380
2020/01/31 20:31:17.0	7.530	-0.340	0.820	-0.340
2020/01/31 20:31:17.1	7.510	-0.380	0.850	-0.310
2020/01/31 20:31:17.2	7.480	-0.420	0.880	-0.270
2020/01/31 20:31:17.3	7.460	-0.460	0.900	-0.240
2020/01/31 20:31:17.4	7.430	-0.500	0.910	-0.200
2020/01/31 20:31:17.5	7.400	-0.540	0.920	-0.170
2020/01/31 20:31:17.6	7.380	-0.570	0.910	-0.140
2020/01/31 20:31:17.7	7.350	-0.610	0.900	-0.100
2020/01/31 20:31:17.8	7.320	-0.640	0.880	-0.070
2020/01/31 20:31:17.9	7.280	-0.670	0.850	-0.040
2020/01/31 20:31:18.0	7.260	-0.690	0.820	-0.020
2020/01/31 20:31:18.1	7.230	-0.710	0.780	0.010
2020/01/31 20:31:18.2	7.210	-0.730	0.730	0.030
2020/01/31 20:31:18.3	7.190	-0.740	0.670	0.050
2020/01/31 20:31:18.4	7.170	-0.750	0.610	0.070
2020/01/31 20:31:18.5	7.150	-0.760	0.540	0.080
2020/01/31 20:31:18.6	7.140	-0.760	0.460	0.090
2020/01/31 20:31:18.7	7.120	-0.750	0.380	0.100
2020/01/31 20:31:18.8	7.110	-0.750	0.300	0.110
2020/01/31 20:31:18.9	7.090	-0.730	0.210	0.110
2020/01/31 20:31:19.0	7.080	-0.720	0.120	0.110
2020/01/31 20:31:19.1	7.080	-0.690	0.030	0.110
2020/01/31 20:31:19.2	7.070	-0.670	-0.060	0.100
2020/01/31 20:31:19.3	7.070	-0.640	-0.150	0.100
2020/01/31 20:31:19.4	7.070	-0.600	-0.240	0.090
2020/01/31 20:31:19.5	7.080	-0.570	-0.330	0.080
2020/01/31 20:31:19.6	7.080	-0.520	-0.420	0.070
2020/01/31 20:31:19.7	7.090	-0.480	-0.500	0.070
2020/01/31 20:31:19.8	7.100	-0.430	-0.580	0.060
2020/01/31 20:31:19.9	7.110	-0.380	-0.660	0.050
2020/01/31 20:31:20.0	7.120	-0.330	-0.730	0.050
2020/01/31 20:31:20.1	7.130	-0.280	-0.790	0.040
2020/01/31 20:31:20.2	7.140	-0.220	-0.850	0.040
2020/01/31 20:31:20.3	7.160	-0.170	-0.900	0.040
2020/01/31 20:31:20.4	7.170	-0.110	-0.950	0.040
2020/01/31 20:31:20.5	7.190	-0.050	-0.990	0.040
2020/01/31 20:31:20.6	7.210	0.000	-1.020	0.050
2020/01/31 20:31:20.7	7.230	0.060	-1.040	0.050
2020/01/31 20:31:20.8	7.250	0.110	-1.060	0.060
2020/01/31 20:31:20.9	7.280	0.160	-1.070	0.070
2020/01/31 20:31:21.0	7.310	0.210	-1.070	0.080
2020/01/31 20:31:21.1	7.330	0.260	-1.070	0.090
2020/01/31 20:31:21.2	7.350	0.300	-1.060	0.090
2020/01/31 20:31:21.3	7.370	0.340	-1.040	0.100
2020/01/31 20:31:21.4	7.400	0.380	-1.020	0.110
2020/01/31 20:31:21.5	7.420	0.410	-1.000	0.120
2020/01/31 20:31:21.6	7.450	0.440	-0.970	0.140
2020/01/31 20:31:21.7	7.470	0.470	-0.930	0.150
2020/01/31 20:31:21.8	7.490	0.490	-0.890	0.160
2020/01/31 20:31:21.9	7.510	0.500	-0.850	0.170
2020/01/31 20:31:22.0	7.530	0.510	-0.800	0.180
2020/01/31 20:31:22.1	7.550	0.520	-0.750	0.200
2020/01/31 20:31:22.2	7.560	0.520	-0.700	0.210
2020/01/31 20:31:22.3	7.580	0.520	-0.640	0.220
2020/01/31 20:31:22.4	7.590	0.510	-0.580	0.240
2020/01/31 20:31:22.5	7.600	0.500	-0.530	0.250
2020/01/31 20:31:22.6	7.610	0.480	-0.470	0.260
2020/01/31 20:31:22.7	7.610	0.470	-0.410	0.270
2020/01/31 20:31:22.8	7.620	0.440	-0.360	0.280
2020/01/31 20:31:22.9	7.630	0.420	-0.300	0.300
2020/01/31 20:31:23.0	7.630	0.390	-0.250	0.300
2020/01/31 20:31:23.1	7.630	0.360	-0.200	0.310
2020/01/31 20:31:23.2	7.630	0.330	-0.150	0.310
2020/01/31 20:31:23.3	7.630	0.300	-0.110	0.320
2020/01/31 20:31:23.4	7.630	0.260	-0.070	0.320
2020/01/31 20:31:23.5	7.620	0.230	-0.040	0.320
2020/01/31 20:31:23.6	7.620	0.200	-0.010	0.310
2020/01/31 20:31:23.7	7.620	0.160	0.020	0.300
2020/01/31 20:31:23.8	7.610	0.130	0.040	0.290
2020/01/31 20:31:23.9	7.600	0.090	0.050	0.280
2020/01/31 20:31:24.0	7.600	0.060	0.060	0.260
2020/01/31 20:31:24.1	7.590	0.030	0.070	0.240
2020/01/31 20:31:24.2	7.590	-0.000	0.070	0.220
2020/01/31 20:31:24.3	7.580	-0.030	0.070	0.190
2020/01/31 20:31:24.4	7.580	-0.050	0.060	0.170
2020/01/31 20:31:24.5	7.570	-0.080	0.050	0.140
2020/01/31 20:31:24.6	7.560	-0.100	0.040	0.100
2020/01/31 20:31:24.7	7.560	-0.110	0.020	0.070
2020/01/31 20:31:24.8	7.550	-0.130	0.000	0.040
2020/01/31 20:31:24.9	7.550	-0.140	-0.020	-0.000
2020/01/31 20:31:25.0	7.540	-0.140	-0.040	-0.040
2020/01/31 20:31:25.1	7.530	-0.150	-0.070	-0.080
2020/01/31 20:31:25.2	7.520	-0.150	-0.090	-0.110
2020/01/31 20:31:25.3	7.510	-0.150	-0.120	-0.150
2020/01/31 20:31:25.4	7.500	-0.150	-0.150	-0.190
2020/01/31 20:31:25.5	7.490	-0.140	-0.170	-0.220
2020/01/31 20:31:25.6	7.480	-0.130	-0.200	-0.250
2020/01/31 20:31:25.7	7.470	-0.120	-0.220	-0.280
2020/01/31 20:31:25.8	7.460	-0.100	-0.250	-0.310
2020/01/31 20:31:25.9	7.440	-0.090	-0.270	-0.340
2020/01/31 20:31:26.0	7.430	-0.070	-0.280	-0.370
2020/01/31 20:31:26.1	7.420	-0.050	-0.300	-0.390
2020/01/31 20:31:26.2	7.400	-0.030	-0.310	-0.410
2020/01/31 20:31:26.3	7.390	-0.010	-0.320	-0.430
2020/01/31 20:31:26.4	7.380	0.010	-0.330	-0.450
2020/01/31 20:31:26.5	7.380	0.040	-0.330	-0.470
2020/01/31 20:31:26.6	7.370	0.060	-0.340	-0.490
2020/01/31 20:31:26.7	7.360	0.080	-0.340	-0.500
2020/01/31 20:31:26.8	7.360	0.100	-0.330	-0.520
2020/01/31 20:31:26.9	7.340	0.120	-0.330	-0.530
2020/01/31 20:31:27.0	7.340	0.130	-0.330	-0.550
2020/01/31 20:31:27.1	7.340	0.150	-0.320	-0.560
2020/01/31 20:31:27.2	7.340	0.160	-0.310	-0.570
2020/01/31 20:31:27.3	7.340	0.180	-0.300	-0.580
2020/01/31 20:31:27.4	7.340	0.190	-0.290	-0.590
2020/01/31 20:31:27.5	7.340	0.200	-0.280	-0.600
2020/01/31 20:31:27.6	7.340	0.200	-0.260	-0.610
2020/01/31 20:31:27.7	7.350	0.210	-0.250	-0.610
2020/01/31 20:31:27.8	7.350	0.210	-0.240	-0.610
2020/01/31 20:31:27.9	7.360	0.210	-0.220	-0.620
2020/01/31 20:31:28.0	7.360	0.210	-0.210	-0.620
2020/01/31 20:31:28.1	7.370	0.200	-0.200	-0.620
2020/01/31 20:31:28.2	7.370	0.190	-0.190	-0.610
2020/01/31 20:31:28.3	7.380	0.180	-0.170	-0.610
2020/01/31 20:31:28.4	7.380	0.170	-0.160	-0.600
2020/01/31 20:31:28.5	7.390	0.160	-0.150	-0.590
2020/01/31 20:31:28.6	7.400	0.150	-0.140	-0.580
2020/01/31 20:31:28.7	7.410	0.130	-0.130	-0.570
2020/01/31 20:31:28.8	7.410	0.110	-0.120	-0.560
2020/01/31 20:31:28.9	7.430	0.100	-0.110	-0.540
2020/01/31 20:31:29.0	7.440	0.080	-0.110	-0.520
2020/01/31 20:31:29.1	7.450	0.060	-0.100	-0.500
2020/01/31 20:31:29.2	7.460	0.040	-0.090	-0.480
2020/01/31 20:31:29.3	7.470	0.020	-0.090	-0.460
2020/01/31 20:31:29.4	7.480	0.000	-0.080	-0.430
2020/01/31 20:31:29.5	7.490	-0.020	-0.080	-0.410
2020/01/31 20:31:29.6	7.500	-0.040	-0.070	-0.380
2020/01/31 20:31:29.7	7.510	-0.060	-0.070	-0.350
2020/01/31 20:31:29.8	7.520	-0.070	-0.070	-0.320
2020/01/31 20:31:29.9	7.530	-0.090	-0.070	-0.290
2020/01/31 20:31:30.0	7.540	-0.110	-0.070	-0.260
2020/01/31 20:31:30.1	7.550	-0.120	-0.070	-0.230
2020/01/31 20:31:30.2	7.560	-0.130	-0.070	-0.190
2020/01/31 20:31:30.3	7.570	-0.140	-0.070	-0.160
2020/01/31 20:31:30.4	7.570	-0.150	-0.070	-0.130
2020/01/31 20:31:30.5	7.580	-0.160	-0.080	-0.090
2020/01/31 20:31:30.6	7.580	-0.170	-0.080	-0.060
2020/01/31 20:31:30.7	7.590	-0.170	-0.090	-0.020
2020/01/31 20:31:30.8	7.590	-0.180	-0.100	0.010
2020/01/31 20:31:30.9	7.600	-0.180	-0.110	0.040
2020/01/31 20:31:31.0	7.600	-0.180	-0.120	0.080
2020/01/31 20:31:31.1	7.600	-0.170	-0.130	0.110
2020/01/31 20:31:31.2	7.600	-0.170	-0.140	0.140
2020/01/31 20:31:31.3	7.600	-0.160	-0.160	0.170
2020/01/31 20:31:31.4	7.600	-0.150	-0.180	0.190
2020/01/31 20:31:31.5	7.600	-0.140	-0.190	0.220
2020/01/31 20:31:31.6	7.600	-0.130	-0.220	0.240
2020/01/31 20:31:31.7	7.600	-0.120	-0.240	0.260
2020/01/31 20:31:31.8	7.600	-0.100	-0.260	0.270
2020/01/31 20:31:31.9	7.600	-0.080	-0.290	0.290
2020/01/31 20:31:32.0	7.600	-0.060	-0.310	0.300
2020/01/31 20:31:32.1	7.600	-0.040	-0.340	0.310
2020/01/31 20:31:32.2	7.610	-0.020	-0.370	0.310
2020/01/31 20:31:32.3	7.620	0.000	-0.400	0.310
2020/01/31 20:31:32.4	7.620	0.030	-0.440	0.310
2020/01/31 20:31:32.5	7.630	0.050	-0.470	0.310
2020/01/31 20:31:32.6	7.640	0.070	-0.500	0.300
2020/01/31 20:31:32.7	7.650	0.100	-0.530	0.300
2020/01/31 20:31:32.8	7.650	0.120	-0.550	0.290
2020/01/31 20:31:32.9	7.660	0.140	-0.580	0.280
2020/01/31 20:31:33.0	7.670	0.160	-0.610	0.270
2020/01/31 20:31:33.1	7.680	0.180	-0.630	0.260
2020/01/31 20:31:33.2	7.680	0.190	-0.650	0.240
2020/01/31 20:31:33.3	7.690	0.210	-0.660	0.230
2020/01/31 20:31:33.4	7.690	0.220	-0.670	0.220
2020/01/31 20:31:33.5	7.700	0.220	-0.680	0.200
2020/01/31 20:31:33.6	7.700	0.230	-0.680	0.190
2020/01/31 20:31:33.7	7.700	0.230	-0.670	0.180
2020/01/31 20:31:33.8	7.700	0.230	-0.670	0.160
2020/01/31 20:31:33.9	7.710	0.220	-0.650	0.150
2020/01/31 20:31:34.0	7.710	0.210	-0.640	0.130
2020/01/31 20:31:34.1	7.710	0.200	-0.610	0.120
2020/01/31 20:31:34.2	7.710	0.190	-0.580	0.100
2020/01/31 20:31:34.3	7.710	0.170	-0.550	0.080
2020/01/31 20:31:34.4	7.700	0.150	-0.510	0.070
2020/01/31 20:31:34.5	7.700	0.120	-0.470	0.050
2020/01/31 20:31:34.6	7.700	0.090	-0.430	0.030
2020/01/31 20:31:34.7	7.690	0.060	-0.380	0.000
2020/01/31 20:31:34.8	7.690	0.030	-0.330	-0.020
2020/01/31 20:31:34.9	7.700	-0.000	-0.280	-0.040
2020/01/31 20:31:35.0	7.690	-0.040	-0.230	-0.070
2020/01/31 20:31:35.1	7.690	-0.080	-0.170	-0.100
2020/01/31 20:31:35.2	7.680	-0.110	-0.120	-0.120
2020/01/31 20:31:35.3	7.680	-0.150	-0.070	-0.150
2020/01/31 20:31:35.4	7.670	-0.190	-0.020	-0.170
2020/01/31 20:31:35.5	7.670	-0.230	0.030	-0.200
2020/01/31 20:31:35.6	7.670	-0.260	0.080	-0.230
2020/01/31 20:31:35.7	7.660	-0.300	0.120	-0.250
2020/01/31 20:31:35.8	7.660	-0.330	0.160	-0.280
2020/01/31 20:31:35.9	7.650	-0.370	0.200	-0.300
2020/01/31 20:31:36.0	7.650	-0.400	0.230	-0.330
2020/01/31 20:31:36.1	7.640	-0.420	0.260	-0.350
2020/01/31 20:31:36.2	7.640	-0.450	0.290	-0.370
2020/01/31 20:31:36.3	7.630	-0.470	0.310	-0.390
2020/01/31 20:31:36.4	7.630	-0.490	0.320	-0.410
2020/01/31 20:31:36.5	7.620	-0.500	0.330	-0.420
2020/01/31 20:31:36.6	7.610	-0.510	0.340	-0.440
2020/01/31 20:31:36.7	7.610	-0.520	0.340	-0.450
2020/01/31 20:31:36.8	7.600	-0.520	0.330	-0.470
2020/01/31 20:31:36.9	7.570	-0.520	0.310	-0.490
2020/01/31 20:31:37.0	7.570	-0.520	0.300	-0.500
2020/01/31 20:31:37.1	7.560	-0.510	0.270	-0.510
2020/01/31 20:31:37.2	7.560	-0.500	0.240	-0.520
2020/01/31 20:31:37.3	7.550	-0.480	0.210	-0.530
2020/01/31 20:31:37.4	7.550	-0.460	0.160	-0.540
2020/01/31 20:31:37.5	7.550	-0.440	0.120	-0.550
2020/01/31 20:31:37.6	7.540	-0.410	0.070	-0.560
2020/01/31 20:31:37.7	7.540	-0.380	0.010	-0.570
2020/01/31 20:31:37.8	7.540	-0.340	-0.040	-0.570
2020/01/31 20:31:37.9	7.550	-0.310	-0.100	-0.570
2020/01/31 20:31:38.0	7.550	-0.270	-0.160	-0.580
2020/01/31 20:31:38.1	7.540	-0.230	-0.220	-0.570
2020/01/31 20:31:38.2	7.540	-0.180	-0.290	-0.570
2020/01/31 20:31:38.3	7.540	-0.140	-0.350	-0.570
2020/01/31 20:31:38.4	7.550	-0.090	-0.410	-0.560
2020/01/31 20:31:38.5	7.550	-0.040	-0.470	-0.550
2020/01/31 20:31:38.6	7.550	0.000	-0.530	-0.540
2020/01/31 20:31:38.7	7.550	0.050	-0.590	-0.530
2020/01/31 20:31:38.8	7.560	0.100	-0.640	-0.510
2020/01/31 20:31:38.9	7.570	0.150	-0.690	-0.500
2020/01/31 20:31:39.0	7.570	0.190	-0.730	-0.480
2020/01/31 20:31:39.1	7.580	0.240	-0.770	-0.460
2020/01/31 20:31:39.2	7.580	0.280	-0.800	-0.430
2020/01/31 20:31:39.3	7.590	0.320	-0.820	-0.410
2020/01/31 20:31:39.4	7.600	0.360	-0.840	-0.380
2020/01/31 20:31:39.5	7.610	0.390	-0.850	-0.350
2020/01/31 20:31:39.6	7.610	0.420	-0.860	-0.320
2020/01/31 20:31:39.7	7.620	0.450	-0.860	-0.290
2020/01/31 20:31:39.8	7.630	0.480	-0.850	-0.260
2020/01/31 20:31:39.9	7.640	0.500	-0.830	-0.220
2020/01/31 20:31:40.0	7.650	0.520	-0.810	-0.190
2020/01/31 20:31:40.1	7.660	0.530	-0.780	-0.150
2020/01/31 20:31:40.2	7.660	0.540	-0.750	-0.110
2020/01/31 20:31:40.3	7.670	0.550	-0.710	-0.080
2020/01/31 20:31:40.4	7.670	0.550	-0.670	-0.040
2020/01/31 20:31:40.5	7.680	0.540	-0.620	-0.000
2020/01/31 20:31:40.6	7.680	0.540	-0.570	0.030
2020/01/31 20:31:40.7	7.680	0.530	-0.520	0.070
2020/01/31 20:31:40.8	7.680	0.510	-0.460	0.110
2020/01/31 20:31:40.9	7.690	0.500	-0.400	0.140
2020/01/31 20:31:41.0	7.690	0.480	-0.340	0.180
2020/01/31 20:31:41.1	7.690	0.450	-0.280	0.210
2020/01/31 20:31:41.2	7.690	0.420	-0.230	0.240
2020/01/31 20:31:41.3	7.690	0.400	-0.170	0.260
2020/01/31 20:31:41.4	7.690	0.360	-0.120	0.290
2020/01/31 20:31:41.5	7.690	0.330	-0.060	0.310
2020/01/31 20:31:41.6	7.690	0.300	-0.020	0.320
2020/01/31 20:31:41.7	7.690	0.260	0.030	0.340
2020/01/31 20:31:41.8	7.700	0.220	0.070	0.340
2020/01/31 20:31:41.9	7.710	0.180	0.110	0.350
2020/01/31 20:31:42.0	7.710	0.140	0.140	0.350
2020/01/31 20:31:42.1	7.710	0.100	0.160	0.350
2020/01/31 20:31:42.2	7.720	0.060	0.180	0.340
2020/01/31 20:31:42.3	7.720	0.020	0.200	0.330
2020/01/31 20:31:42.4	7.730	-0.010	0.210	0.320
2020/01/31 20:31:42.5	7.730	-0.050	0.210	0.300
2020/01/31 20:31:42.6	7.740	-0.090	0.210	0.280
2020/01/31 20:31:42.7	7.740	-0.120	0.210	0.260
2020/01/31 20:31:42.8	7.750	-0.160	0.190	0.240
2020/01/31 20:31:42.9	7.750	-0.190	0.180	0.210
2020/01/31 20:31:43.0	7.750	-0.220	0.160	0.180
2020/01/31 20:31:43.1	7.760	-0.250	0.130	0.160
2020/01/31 20:31:43.2	7.770	-0.280	0.110	0.120
2020/01/31 20:31:43.3	7.780	-0.300	0.080	0.090
2020/01/31 20:31:43.4	7.790	-0.320	0.040	0.060
2020/01/31 20:31:43.5	7.810	-0.340	0.010	0.020
2020/01/31 20:31:43.6	7.820	-0.360	-0.030	-0.020
2020/01/31 20:31:43.7	7.830	-0.370	-0.070	-0.050
2020/01/31 20:31:43.8	7.850	-0.380	-0.110	-0.090
2020/01/31 20:31:43.9	7.860	-0.390	-0.140	-0.140
2020/01/31 20:31:44.0	7.870	-0.400	-0.180	-0.170
2020/01/31 20:31:44.1	7.890	-0.410	-0.220	-0.210
2020/01/31 20:31:44.2	7.900	-0.410	-0.260	-0.250
2020/01/31 20:31:44.3	7.920	-0.410	-0.300	-0.290
2020/01/31 20:31:44.4	7.930	-0.410	-0.340	-0.330
2020/01/31 20:31:44.5	7.950	-0.410	-0.370	-0.370
2020/01/31 20:31:44.6	7.970	-0.400	-0.410	-0.400
2020/01/31 20:31:44.7	7.980	-0.390	-0.440	-0.440
2020/01/31 20:31:44.8	7.990	-0.390	-0.460	-0.460
2020/01/31 20:31:44.9	8.000	-0.380	-0.480	-0.490
2020/01/31 20:31:45.0	8.010	-0.370	-0.500	-0.510
2020/01/31 20:31:45.1	8.010	-0.350	-0.520	-0.530
2020/01/31 20:31:45.2	8.010	-0.340	-0.530	-0.550
2020/01/31 20:31:45.3	8.010	-0.330	-0.530	-0.560
2020/01/31 20:31:45.4	8.010	-0.320	-0.530	-0.560
2020/01/31 20:31:45.5	8.000	-0.310	-0.520	-0.560
2020/01/31 20:31:45.6	7.990	-0.290	-0.510	-0.560
2020/01/31 20:31:45.7	7.980	-0.280	-0.500	-0.550
2020/01/31 20:31:45.8	7.970	-0.270	-0.480	-0.540
2020/01/31 20:31:45.9	7.950	-0.260	-0.450	-0.530
2020/01/31 20:31:46.0	7.930	-0.250	-0.430	-0.510
2020/01/31 20:31:46.1	7.910	-0.240	-0.400	-0.480
2020/01/31 20:31:46.2	7.890	-0.230	-0.370	-0.460
2020/01/31 20:31:46.3	7.870	-0.220	-0.330	-0.430
2020/01/31 20:31:46.4	7.840	-0.210	-0.300	-0.400
2020/01/31 20:31:46.5	7.820	-0.200	-0.260	-0.360
2020/01/31 20:31:46.6	7.790	-0.190	-0.220	-0.330
2020/01/31 20:31:46.7	7.760	-0.180	-0.190	-0.290
2020/01/31 20:31:46.8	7.740	-0.170	-0.150	-0.260
2020/01/31 20:31:46.9	7.710	-0.160	-0.120	-0.220
2020/01/31 20:31:47.0	7.680	-0.140	-0.090	-0.180
2020/01/31 20:31:47.1	7.660	-0.130	-0.060	-0.150
2020/01/31 20:31:47.2	7.640	-0.120	-0.030	-0.110
2020/01/31 20:31:47.3	7.610	-0.100	-0.010	-0.080
2020/01/31 20:31:47.4	7.590	-0.090	0.010	-0.050
2020/01/31 20:31:47.5	7.570	-0.070	0.020	-0.010
2020/01/31 20:31:47.6	7.550	-0.050	0.030	0.020
2020/01/31 20:31:47.7	7.540	-0.030	0.040	0.050
2020/01/31 20:31:47.8	7.520	-0.000	0.040	0.070
2020/01/31 20:31:47.9	7.510	0.020	0.030	0.100
2020/01/31 20:31:48.0	7.500	0.050	0.020	0.120
2020/01/31 20:31:48.1	7.500	0.080	0.010	0.140
2020/01/31 20:31:48.2	7.490	0.110	-0.010	0.160
2020/01/31 20:31:48.3	7.490	0.140	-0.030	0.170
2020/01/31 20:31:48.4	7.490	0.180	-0.060	0.180
2020/01/31 20:31:48.5	7.490	0.210	-0.090	0.190
2020/01/31 20:31:48.6	7.500	0.250	-0.120	0.200
2020/01/31 20:31:48.7	7.510	0.290	-0.160	0.200
2020/01/31 20:31:48.8	7.520	0.330	-0.200	0.200
2020/01/31 20:31:48.9	7.520	0.370	-0.240	0.210
2020/01/31 20:31:49.0	7.530	0.410	-0.280	0.200
2020/01/31 20:31:49.1	7.550	0.450	-0.320	0.200
2020/01/31 20:31:49.2	7.560	0.490	-0.370	0.200
2020/01/31 20:31:49.3	7.580	0.530	-0.410	0.190
2020/01/31 20:31:49.4	7.590	0.560	-0.450	0.180
2020/01/31 20:31:49.5	7.610	0.600	-0.490	0.170
2020/01/31 20:31:49.6	7.620	0.630	-0.530	0.160
2020/01/31 20:31:49.7	7.640	0.650	-0.570	0.150
2020/01/31 20:31:49.8	7.650	0.680	-0.610	0.140
2020/01/31 20:31:49.9	7.670	0.700	-0.640	0.130
2020/01/31 20:31:50.0	7.690	0.720	-0.670	0.110
2020/01/31 20:31:50.1	7.700	0.730	-0.700	0.090
2020/01/31 20:31:50.2	7.710	0.740	-0.730	0.070
2020/01/31 20:31:50.3	7.720	0.740	-0.750	0.050
2020/01/31 20:31:50.4	7.740	0.740	-0.760	0.030
2020/01/31 20:31:50.5	7.750	0.730	-0.780	0.010
2020/01/31 20:31:50.6	7.760	0.720	-0.790	-0.010
2020/01/31 20:31:50.7	7.770	0.710	-0.790	-0.030
2020/01/31 20:31:50.8	7.770	0.680	-0.790	-0.060
2020/01/31 20:31:50.9	7.780	0.660	-0.790	-0.080
2020/01/31 20:31:51.0	7.790	0.630	-0.780	-0.110
2020/01/31 20:31:51.1	7.800	0.590	-0.770	-0.130
2020/01/31 20:31:51.2	7.800	0.550	-0.760	-0.160
2020/01/31 20:31:51.3	7.810	0.500	-0.740	-0.180
2020/01/31 20:31:51.4	7.810	0.450	-0.710	-0.210
2020/01/31 20:31:51.5	7.810	0.400	-0.690	-0.230
2020/01/31 20:31:51.6	7.810	0.350	-0.650	-0.250
2020/01/31 20:31:51.7	7.820	0.290	-0.620	-0.280
2020/01/31 20:31:51.8	7.820	0.220	-0.580	-0.300
2020/01/31 20:31:51.9	7.810	0.160	-0.530	-0.330
2020/01/31 20:31:52.0	7.810	0.090	-0.490	-0.360
2020/01/31 20:31:52.1	7.810	0.020	-0.430	-0.380
2020/01/31 20:31:52.2	7.800	-0.050	-0.380	-0.400
2020/01/31 20:31:52.3	7.800	-0.120	-0.320	-0.420
2020/01/31 20:31:52.4	7.790	-0.190	-0.270	-0.440
2020/01/31 20:31:52.5	7.780	-0.260	-0.200	-0.460
2020/01/31 20:31:52.6	7.770	-0.330	-0.140	-0.480
2020/01/31 20:31:52.7	7.760	-0.400	-0.080	-0.500
2020/01/31 20:31:52.8	7.750	-0.460	-0.010	-0.520
2020/01/31 20:31:52.9	7.740	-0.530	0.050	-0.530
2020/01/31 20:31:53.0	7.720	-0.590	0.110	-0.550
2020/01/31 20:31:53.1	7.710	-0.650	0.180	-0.570
2020/01/31 20:31:53.2	7.690	-0.700	0.240	-0.580
2020/01/31 20:31:53.3	7.680	-0.760	0.300	-0.600
2020/01/31 20:31:53.4	7.660	-0.810	0.360	-0.610
2020/01/31 20:31:53.5	7.640	-0.850	0.420	-0.620
2020/01/31 20:31:53.6	7.620	-0.890	0.470	-0.630
2020/01/31 20:31:53.7	7.600	-0.920	0.520	-0.640
2020/01/31 20:31:53.8	7.590	-0.950	0.570	-0.640
2020/01/31 20:31:53.9	7.560	-0.980	0.610	-0.650
2020/01/31 20:31:54.0	7.540	-1.000	0.650	-0.650
2020/01/31 20:31:54.1	7.520	-1.010	0.680	-0.650
2020/01/31 20:31:54.2	7.500	-1.020	0.710	-0.640
2020/01/31 20:31:54.3	7.480	-1.020	0.730	-0.640
2020/01/31 20:31:54.4	7.460	-1.020	0.740	-0.630
2020/01/31 20:31:54.5	7.440	-1.010	0.750	-0.620
2020/01/31 20:31:54.6	7.420	-1.000	0.760	-0.610
2020/01/31 20:31:54.7	7.400	-0.980	0.750	-0.590
2020/01/31 20:31:54.8	7.380	-0.960	0.740	-0.570
2020/01/31 20:31:54.9	7.370	-0.930	0.720	-0.550
2020/01/31 20:31:55.0	7.350	-0.900	0.700	-0.530
2020/01/31 20:31:55.1	7.340	-0.860	0.670	-0.510
2020/01/31 20:31:55.2	7.330	-0.810	0.630	-0.490
2020/01/31 20:31:55.3	7.320	-0.770	0.590	-0.460
2020/01/31 20:31:55.4	7.310	-0.720	0.540	-0.440
2020/01/31 20:31:55.5	7.310	-0.660	0.490	-0.410
2020/01/31 20:31:55.6	7.310	-0.600	0.420	-0.380
2020/01/31 20:31:55.7	7.310	-0.540	0.360	-0.360
2020/01/31 20:31:55.8	7.320	-0.480	0.280	-0.330
2020/01/31 20:31:55.9	7.320	-0.410	0.210	-0.300
2020/01/31 20:31:56.0	7.330	-0.340	0.130	-0.270
2020/01/31 20:31:56.1	7.340	-0.270	0.050	-0.240
2020/01/31 20:31:56.2	7.350	-0.200	-0.040	-0.210
2020/01/31 20:31:56.3	7.370	-0.130	-0.130	-0.180
2020/01/31 20:31:56.4	7.380	-0.060	-0.210	-0.150
2020/01/31 20:31:56.5	7.390	0.010	-0.300	-0.120
2020/01/31 20:31:56.6	7.410	0.080	-0.390	-0.090
2020/01/31 20:31:56.7	7.420	0.140	-0.480	-0.060
2020/01/31 20:31:56.8	7.440	0.210	-0.560	-0.030
2020/01/31 20:31:56.9	7.450	0.270	-0.650	-0.000
2020/01/31 20:31:57.0	7.460	0.330	-0.720	0.030
2020/01/31 20:31:57.1	7.470	0.390	-0.800	0.050
2020/01/31 20:31:57.2	7.480	0.450	-0.870	0.080
2020/01/31 20:31:57.3	7.490	0.500	-0.930	0.110
2020/01/31 20:31:57.4	7.500	0.550	-0.990	0.140
2020/01/31 20:31:57.5	7.510	0.590	-1.040	0.170
2020/01/31 20:31:57.6	7.510	0.630	-1.080	0.190
2020/01/31 20:31:57.7	7.520	0.660	-1.120	0.220
2020/01/31 20:31:57.8	7.520	0.690	-1.150	0.250
2020/01/31 20:31:57.9	7.530	0.720	-1.170	0.280
2020/01/31 20:31:58.0	7.530	0.740	-1.190	0.300
2020/01/31 20:31:58.1	7.520	0.750	-1.200	0.330
2020/01/31 20:31:58.2	7.520	0.760	-1.210	0.350
2020/01/31 20:31:58.3	7.510	0.770	-1.200	0.370
2020/01/31 20:31:58.4	7.490	0.770	-1.190	0.400
2020/01/31 20:31:58.5	7.480	0.770	-1.180	0.420
2020/01/31 20:31:58.6	7.460	0.760	-1.160	0.440
2020/01/31 20:31:58.7	7.440	0.750	-1.130	0.460
2020/01/31 20:31:58.8	7.420	0.730	-1.100	0.470
2020/01/31 20:31:58.9	7.400	0.710	-1.070	0.480
2020/01/31 20:31:59.0	7.370	0.690	-1.040	0.500
2020/01/31 20:31:59.1	7.350	0.660	-1.000	0.510
2020/01/31 20:31:59.2	7.320	0.640	-0.950	0.510
2020/01/31 20:31:59.3	7.300	0.610	-0.910	0.510
2020/01/31 20:31:59.4	7.270	0.570	-0.870	0.510
2020/01/31 20:31:59.5	7.250	0.540	-0.820	0.500
2020/01/31 20:31:59.6	7.230	0.510	-0.770	0.490
2020/01/31 20:31:59.7	7.210	0.470	-0.730	0.480
2020/01/31 20:31:59.8	7.190	0.440	-0.690	0.460
2020/01/31 20:31:59.9	7.180	0.400	-0.640	0.430
2020/01/31 20:32:00.0	7.170	0.370	-0.600	0.400
2020/01/31 20:32:00.1	7.160	0.330	-0.570	0.360
2020/01/31 20:32:00.2	7.150	0.300	-0.530	0.320
2020/01/31 20:32:00.3	7.150	0.270	-0.500	0.280
2020/01/31 20:32:00.4	7.150	0.240	-0.470	0.230
2020/01/31 20:32:00.5	7.150	0.210	-0.440	0.170
2020/01/31 20:32:00.6	7.160	0.180	-0.410	0.120
2020/01/31 20:32:00.7	7.170	0.160	-0.390	0.060
2020/01/31 20:32:00.8	7.180	0.130	-0.370	-0.000
2020/01/31 20:32:00.9	7.210	0.110	-0.350	-0.070
2020/01/31 20:32:01.0	7.230	0.090	-0.330	-0.140
2020/01/31 20:32:01.1	7.250	0.080	-0.310	-0.200
2020/01/31 20:32:01.2	7.270	0.060	-0.300	-0.270
2020/01/31 20:32:01.3	7.300	0.050	-0.280	-0.330
2020/01/31 20:32:01.4	7.330	0.040	-0.260	-0.390
2020/01/31 20:32:01.5	7.350	0.030	-0.250	-0.450
2020/01/31 20:32:01.6	7.380	0.020	-0.230	-0.510
2020/01/31 20:32:01.7	7.410	0.020	-0.210	-0.560
2020/01/31 20:32:01.8	7.430	0.010	-0.190	-0.600
2020/01/31 20:32:01.9	7.450	0.000	-0.170	-0.650
2020/01/31 20:32:02.0	7.480	-0.000	-0.140	-0.680
2020/01/31 20:32:02.1	7.500	-0.010	-0.110	-0.710
2020/01/31 20:32:02.2	7.520	-0.020	-0.080	-0.740
2020/01/31 20:32:02.3	7.530	-0.030	-0.050	-0.760
2020/01/31 20:32:02.4	7.550	-0.040	-0.010	-0.770
2020/01/31 20:32:02.5	7.560	-0.050	0.030	-0.770
2020/01/31 20:32:02.6	7.570	-0.060	0.070	-0.780
2020/01/31 20:32:02.7	7.570	-0.070	0.110	-0.770
2020/01/31 20:32:02.8	7.570	-0.080	0.160	-0.760
2020/01/31 20:32:02.9	7.560	-0.100	0.210	-0.750
2020/01/31 20:32:03.0	7.560	-0.120	0.250	-0.740
2020/01/31 20:32:03.1	7.550	-0.130	0.300	-0.720
2020/01/31 20:32:03.2	7.550	-0.150	0.350	-0.690
2020/01/31 20:32:03.3	7.540	-0.170	0.390	-0.670
2020/01/31 20:32:03.4	7.530	-0.190	0.440	-0.640
2020/01/31 20:32:03.5	7.520	-0.220	0.480	-0.610
2020/01/31 20:32:03.6	7.510	-0.240	0.510	-0.580
2020/01/31 20:32:03.7	7.490	-0.260	0.550	-0.540
2020/01/31 20:32:03.8	7.480	-0.280	0.580	-0.500
2020/01/31 20:32:03.9	7.470	-0.300	0.600	-0.460
2020/01/31 20:32:04.0	7.450	-0.320	0.620	-0.420
2020/01/31 20:32:04.1	7.440	-0.340	0.640	-0.390
2020/01/31 20:32:04.2	7.420	-0.360	0.640	-0.350
2020/01/31 20:32:04.3	7.400	-0.380	0.650	-0.310
2020/01/31 20:32:04.4	7.380	-0.400	0.640	-0.270
2020/01/31 20:32:04.5	7.360	-0.410	0.630	-0.230
2020/01/31 20:32:04.6	7.350	-0.420	0.620	-0.190
2020/01/31 20:32:04.7	7.330	-0.430	0.600	-0.160
2020/01/31 20:32:04.8	7.310	-0.430	0.570	-0.120
2020/01/31 20:32:04.9	7.280	-0.440	0.530	-0.080
2020/01/31 20:32:05.0	7.270	-0.440	0.490	-0.050
2020/01/31 20:32:05.1	7.260	-0.430	0.450	-0.020
2020/01/31 20:32:05.2	7.240	-0.430	0.400	0.000
2020/01/31 20:32:05.3	7.230	-0.420	0.340	0.030
2020/01/31 20:32:05.4	7.220	-0.400	0.280	0.050
2020/01/31 20:32:05.5	7.210	-0.390	0.220	0.070
2020/01/31 20:32:05.6	7.200	-0.370	0.160	0.080
2020/01/31 20:32:05.7	7.200	-0.350	0.090	0.100
2020/01/31 20:32:05.8	7.190	-0.330	0.020	0.110
2020/01/31 20:32:05.9	7.180	-0.310	-0.040	0.120
2020/01/31 20:32:06.0	7.170	-0.280	-0.110	0.120
2020/01/31 20:32:06.1	7.160	-0.260	-0.180	0.130
2020/01/31 20:32:06.2	7.150	-0.230	-0.250	0.130
2020/01/31 20:32:06.3	7.140	-0.200	-0.310	0.130
2020/01/31 20:32:06.4	7.130	-0.180	-0.370	0.130
2020/01/31 20:32:06.5	7.120	-0.150	-0.430	0.130
2020/01/31 20:32:06.6	7.110	-0.120	-0.490	0.120
2020/01/31 20:32:06.7	7.100	-0.100	-0.550	0.110
2020/01/31 20:32:06.8	7.090	-0.070	-0.600	0.110
2020/01/31 20:32:06.9	7.070	-0.050	-0.650	0.100
2020/01/31 20:32:07.0	7.060	-0.030	-0.700	0.090
2020/01/31 20:32:07.1	7.050	-0.000	-0.740	0.070
2020/01/31 20:32:07.2	7.040	0.020	-0.770	0.060
2020/01/31 20:32:07.3	7.030	0.030	-0.810	0.050
2020/01/31 20:32:07.4	7.020	0.050	-0.840	0.030
2020/01/31 20:32:07.5	7.010	0.060	-0.870	0.010
2020/01/31 20:32:07.6	7.000	0.080	-0.890	-0.010
2020/01/31 20:32:07.7	6.990	0.090	-0.910	-0.030
2020/01/31 20:32:07.8	6.990	0.100	-0.920	-0.050
2020/01/31 20:32:07.9	6.990	0.110	-0.930	-0.080
2020/01/31 20:32:08.0	6.990	0.110	-0.940	-0.100
2020/01/31 20:32:08.1	6.990	0.120	-0.950	-0.130
2020/01/31 20:32:08.2	6.990	0.120	-0.950	-0.160
2020/01/31 20:32:08.3	7.000	0.120	-0.950	-0.180
2020/01/31 20:32:08.4	7.010	0.130	-0.940	-0.210
2020/01/31 20:32:08.5	7.020	0.130	-0.940	-0.240
2020/01/31 20:32:08.6	7.030	0.130	-0.930	-0.270
2020/01/31 20:32:08.7	7.040	0.130	-0.910	-0.300
2020/01/31 20:32:08.8	7.060	0.140	-0.900	-0.320
2020/01/31 20:32:08.9	7.050	0.140	-0.880	-0.350
2020/01/31 20:32:09.0	7.070	0.140	-0.860	-0.370
2020/01/31 20:32:09.1	7.090	0.140	-0.840	-0.400
2020/01/31 20:32:09.2	7.110	0.150	-0.820	-0.420
2020/01/31 20:32:09.3	7.140	0.150	-0.790	-0.440
2020/01/31 20:32:09.4	7.160	0.150	-0.760	-0.460
2020/01/31 20:32:09.5	7.180	0.160	-0.730	-0.480
2020/01/31 20:32:09.6	7.210	0.160	-0.700	-0.490
2020/01/31 20:32:09.7	7.240	0.170	-0.660	-0.500
2020/01/31 20:32:09.8	7.260	0.170	-0.630	-0.510
2020/01/31 20:32:09.9	7.300	0.180	-0.590	-0.520
2020/01/31 20:32:10.0	7.320	0.180	-0.550	-0.520
2020/01/31 20:32:10.1	7.350	0.190	-0.510	-0.520
2020/01/31 20:32:10.2	7.370	0.190	-0.470	-0.520
2020/01/31 20:32:10.3	7.400	0.190	-0.430	-0.520
2020/01/31 20:32:10.4	7.420	0.190	-0.380	-0.510
2020/01/31 20:32:10.5	7.440	0.190	-0.340	-0.500
2020/01/31 20:32:10.6	7.460	0.190	-0.300	-0.490
2020/01/31 20:32:10.7	7.480	0.190	-0.250	-0.470
2020/01/31 20:32:10.8	7.490	0.190	-0.210	-0.460
2020/01/31 20:32:10.9	7.500	0.180	-0.170	-0.430
2020/01/31 20:32:11.0	7.510	0.180	-0.120	-0.410
2020/01/31 20:32:11.1	7.520	0.170	-0.080	-0.390
2020/01/31 20:32:11.2	7.530	0.160	-0.040	-0.360
2020/01/31 20:32:11.3	7.530	0.150	0.000	-0.340
2020/01/31 20:32:11.4	7.540	0.140	0.040	-0.310
2020/01/31 20:32:11.5	7.540	0.120	0.080	-0.290
2020/01/31 20:32:11.6	7.540	0.110	0.110	-0.260
2020/01/31 20:32:11.7	7.540	0.090	0.150	-0.230
2020/01/31 20:32:11.8	7.530	0.080	0.180	-0.200
2020/01/31 20:32:11.9	7.530	0.060	0.210	-0.170
2020/01/31 20:32:12.0	7.520	0.040	0.230	-0.140
2020/01/31 20:32:12.1	7.500	0.020	0.250	-0.110
2020/01/31 20:32:12.2	7.490	0.000	0.270	-0.080
2020/01/31 20:32:12.3	7.470	-0.020	0.280	-0.060
2020/01/31 20:32:12.4	7.450	-0.040	0.290	-0.030
2020/01/31 20:32:12.5	7.430	-0.060	0.300	-0.000
2020/01/31 20:32:12.6	7.410	-0.080	0.300	0.030
2020/01/31 20:32:12.7	7.390	-0.100	0.300	0.050
2020/01/31 20:32:12.8	7.370	-0.110	0.290	0.070
2020/01/31 20:32:12.9	7.340	-0.130	0.280	0.100
2020/01/31 20:32:13.0	7.320	-0.150	0.260	0.120
2020/01/31 20:32:13.1	7.290	-0.160	0.240	0.140
2020/01/31 20:32:13.2	7.270	-0.170	0.220	0.150
2020/01/31 20:32:13.3	7.240	-0.180	0.190	0.170
2020/01/31 20:32:13.4	7.220	-0.180	0.160	0.180
2020/01/31 20:32:13.5	7.200	-0.190	0.120	0.190
2020/01/31 20:32:13.6	7.180	-0.190	0.080	0.200
2020/01/31 20:32:13.7	7.150	-0.190	0.040	0.210
2020/01/31 20:32:13.8	7.130	-0.180	-0.000	0.210
2020/01/31 20:32:13.9	7.130	-0.180	-0.040	0.220
2020/01/31 20:32:14.0	7.110	-0.170	-0.090	0.220
2020/01/31 20:32:14.1	7.100	-0.150	-0.140	0.220
2020/01/31 20:32:14.2	7.080	-0.140	-0.190	0.220
2020/01/31 20:32:14.3	7.060	-0.120	-0.240	0.210
2020/01/31 20:32:14.4	7.050	-0.100	-0.290	0.210
2020/01/31 20:32:14.5	7.030	-0.080	-0.340	0.200
2020/01/31 20:32:14.6	7.010	-0.060	-0.390	0.200
2020/01/31 20:32:14.7	7.000	-0.030	-0.440	0.190
2020/01/31 20:32:14.8	6.980	-0.000	-0.480	0.180
2020/01/31 20:32:14.9	6.980	0.020	-0.530	0.170
2020/01/31 20:32:15.0	6.960	0.050	-0.560	0.170
2020/01/31 20:32:15.1	6.940	0.080	-0.590	0.160
2020/01/31 20:32:15.2	6.930	0.110	-0.620	0.150
2020/01/31 20:32:15.3	6.910	0.140	-0.650	0.150
2020/01/31 20:32:15.4	6.900	0.170	-0.660	0.140
2020/01/31 20:32:15.5	6.880	0.190	-0.670	0.140
2020/01/31 20:32:15.6	6.860	0.220	-0.680	0.140
2020/01/31 20:32:15.7	6.850	0.240	-0.680	0.130
2020/01/31 20:32:15.8	6.830	0.270	-0.680	0.130
2020/01/31 20:32:15.9	6.820	0.290	-0.660	0.130
2020/01/31 20:32:16.0	6.810	0.300	-0.650	0.120
2020/01/31 20:32:16.1	6.790	0.320	-0.620	0.120
2020/01/31 20:32:16.2	6.780	0.330	-0.600	0.120
2020/01/31 20:32:16.3	6.780	0.340	-0.560	0.120
2020/01/31 20:32:16.4	6.770	0.350	-0.530	0.120
2020/01/31 20:32:16.5	6.760	0.350	-0.490	0.120
2020/01/31 20:32:16.6	6.760	0.360	-0.440	0.120
2020/01/31 20:32:16.7	6.760	0.350	-0.400	0.120
2020/01/31 20:32:16.8	6.760	0.350	-0.350	0.120
2020/01/31 20:32:16.9	6.760	0.340	-0.300	0.120
2020/01/31 20:32:17.0	6.760	0.330	-0.250	0.110
2020/01/31 20:32:17.1	6.770	0.320	-0.190	0.110
2020/01/31 20:32:17.2	6.780	0.310	-0.140	0.110
2020/01/31 20:32:17.3	6.790	0.290	-0.090	0.110
2020/01/31 20:32:17.4	6.800	0.270	-0.040	0.110
2020/01/31 20:32:17.5	6.820	0.240	0.010	0.100
2020/01/31 20:32:17.6	6.830	0.220	0.060	0.100
2020/01/31 20:32:17.7	6.840	0.190	0.110	0.100
2020/01/31 20:32:17.8	6.860	0.160	0.150	0.090
2020/01/31 20:32:17.9	6.880	0.130	0.190	0.080
2020/01/31 20:32:18.0	6.890	0.100	0.220	0.070
2020/01/31 20:32:18.1	6.910	0.070	0.250	0.060
2020/01/31 20:32:18.2	6.930	0.030	0.270	0.050
2020/01/31 20:32:18.3	6.940	-0.000	0.290	0.030
2020/01/31 20:32:18.4	6.960	-0.040	0.300	0.010
2020/01/31 20:32:18.5	6.980	-0.070	0.310	-0.010
2020/01/31 20:32:18.6	7.000	-0.100	0.310	-0.030
2020/01/31 20:32:18.7	7.020	-0.140	0.300	-0.060
2020/01/31 20:32:18.8	7.040	-0.170	0.290	-0.090
2020/01/31 20:32:18.9	7.040	-0.200	0.280	-0.120
2020/01/31 20:32:19.0	7.060	-0.230	0.250	-0.150
2020/01/31 20:32:19.1	7.080	-0.260	0.220	-0.190
2020/01/31 20:32:19.2	7.100	-0.290	0.180	-0.220
2020/01/31 20:32:19.3	7.130	-0.320	0.140	-0.260
2020/01/31 20:32:19.4	7.150	-0.340	0.100	-0.300
2020/01/31 20:32:19.5	7.170	-0.360	0.050	-0.340
2020/01/31 20:32:19.6	7.190	-0.380	-0.010	-0.380
2020/01/31 20:32:19.7	7.210	-0.400	-0.070	-0.420
2020/01/31 20:32:19.8	7.230	-0.410	-0.130	-0.460
2020/01/31 20:32:19.9	7.260	-0.420	-0.190	-0.500
2020/01/31 20:32:20.0	7.280	-0.430	-0.250	-0.540
2020/01/31 20:32:20.1	7.290	-0.440	-0.310	-0.570
2020/01/31 20:32:20.2	7.310	-0.440	-0.370	-0.600
2020/01/31 20:32:20.3	7.320	-0.440	-0.440	-0.620
2020/01/31 20:32:20.4	7.330	-0.440	-0.500	-0.640
2020/01/31 20:32:20.5	7.340	-0.440	-0.560	-0.660
2020/01/31 20:32:20.6	7.350	-0.430	-0.610	-0.680
2020/01/31 20:32:20.7	7.360	-0.420	-0.670	-0.690
2020/01/31 20:32:20.8	7.360	-0.410	-0.720	-0.690
2020/01/31 20:32:20.9	7.380	-0.390	-0.760	-0.690
2020/01/31 20:32:21.0	7.380	-0.380	-0.800	-0.690
2020/01/31 20:32:21.1	7.390	-0.360	-0.850	-0.690
2020/01/31 20:32:21.2	7.390	-0.340	-0.880	-0.680
2020/01/31 20:32:21.3	7.390	-0.320	-0.920	-0.680
2020/01/31 20:32:21.4	7.390	-0.290	-0.940	-0.660
2020/01/31 20:32:21.5	7.380	-0.270	-0.970	-0.650
2020/01/31 20:32:21.6	7.380	-0.240	-0.990	-0.640
2020/01/31 20:32:21.7	7.380	-0.220	-1.010	-0.620
2020/01/31 20:32:21.8	7.380	-0.190	-1.020	-0.600
2020/01/31 20:32:21.9	7.370	-0.160	-1.030	-0.580
2020/01/31 20:32:22.0	7.370	-0.130	-1.030	-0.550
2020/01/31 20:32:22.1	7.360	-0.100	-1.020	-0.530
2020/01/31 20:32:22.2	7.360	-0.060	-1.020	-0.500
2020/01/31 20:32:22.3	7.350	-0.030	-1.000	-0.470
2020/01/31 20:32:22.4	7.340	-0.000	-0.980	-0.440
2020/01/31 20:32:22.5	7.330	0.030	-0.960	-0.410
2020/01/31 20:32:22.6	7.310	0.060	-0.930	-0.370
2020/01/31 20:32:22.7	7.300	0.100	-0.900	-0.330
2020/01/31 20:32:22.8	7.280	0.130	-0.860	-0.290
2020/01/31 20:32:22.9	7.270	0.160	-0.820	-0.250
2020/01/31 20:32:23.0	7.260	0.190	-0.770	-0.200
2020/01/31 20:32:23.1	7.230	0.220	-0.720	-0.160
2020/01/31 20:32:23.2	7.210	0.250	-0.660	-0.110
2020/01/31 20:32:23.3	7.190	0.270	-0.600	-0.060
2020/01/31 20:32:23.4	7.170	0.300	-0.540	-0.010
2020/01/31 20:32:23.5	7.140	0.320	-0.470	0.040
2020/01/31 20:32:23.6	7.120	0.350	-0.410	0.090
2020/01/31 20:32:23.7	7.100	0.370	-0.340	0.140
2020/01/31 20:32:23.8	7.070	0.380	-0.270	0.190
2020/01/31 20:32:23.9	7.030	0.400	-0.200	0.240
2020/01/31 20:32:24.0	7.010	0.410	-0.130	0.280
2020/01/31 20:32:24.1	6.990	0.420	-0.060	0.330
2020/01/31 20:32:24.2	6.970	0.430	0.000	0.370
2020/01/31 20:32:24.3	6.950	0.440	0.070	0.400
2020/01/31 20:32:24.4	6.940	0.440	0.130	0.440
2020/01/31 20:32:24.5	6.920	0.450	0.180	0.470
2020/01/31 20:32:24.6	6.910	0.440	0.240	0.490
2020/01/31 20:32:24.7	6.900	0.440	0.280	0.520
2020/01/31 20:32:24.8	6.890	0.440	0.330	0.530
2020/01/31 20:32:24.9	6.890	0.430	0.370	0.550
2020/01/31 20:32:25.0	6.890	0.420	0.400	0.560
2020/01/31 20:32:25.1	6.890	0.410	0.430	0.560
2020/01/31 20:32:25.2	6.890	0.390	0.450	0.560
2020/01/31 20:32:25.3	6.900	0.380	0.460	0.550
2020/01/31 20:32:25.4	6.910	0.360	0.470	0.540
2020/01/31 20:32:25.5	6.920	0.340	0.480	0.520
2020/01/31 20:32:25.6	6.930	0.320	0.480	0.510
2020/01/31 20:32:25.7	6.940	0.300	0.480	0.490
2020/01/31 20:32:25.8	6.960	0.280	0.470	0.460
2020/01/31 20:32:25.9	6.960	0.250	0.450	0.430
2020/01/31 20:32:26.0	6.980	0.230	0.440	0.410
2020/01/31 20:32:26.1	7.000	0.200	0.420	0.380
2020/01/31 20:32:26.2	7.010	0.170	0.400	0.350
2020/01/31 20:32:26.3	7.030	0.150	0.370	0.320
2020/01/31 20:32:26.4	7.050	0.120	0.350	0.290
2020/01/31 20:32:26.5	7.070	0.090	0.320	0.260
2020/01/31 20:32:26.6	7.080	0.060	0.290	0.230
2020/01/31 20:32:26.7	7.100	0.030	0.260	0.200
2020/01/31 20:32:26.8	7.120	0.000	0.230	0.170
2020/01/31 20:32:26.9	7.140	-0.030	0.210	0.150
2020/01/31 20:32:27.0	7.150	-0.050	0.180	0.120
2020/01/31 20:32:27.1	7.170	-0.080	0.160	0.100
2020/01/31 20:32:27.2	7.180	-0.110	0.130	0.080
2020/01/31 20:32:27.3	7.190	-0.140	0.110	0.060
2020/01/31 20:32:27.4	7.200	-0.160	0.090	0.040
2020/01/31 20:32:27.5	7.210	-0.190	0.070	0.020
2020/01/31 20:32:27.6	7.220	-0.220	0.060	0.010
2020/01/31 20:32:27.7	7.220	-0.240	0.040	-0.000
2020/01/31 20:32:27.8	7.230	-0.270	0.030	-0.010
2020/01/31 20:32:27.9	7.230	-0.290	0.020	-0.020
2020/01/31 20:32:28.0	7.230	-0.310	0.010	-0.020
2020/01/31 20:32:28.1	7.220	-0.330	-0.000	-0.030
2020/01/31 20:32:28.2	7.220	-0.350	-0.010	-0.030
2020/01/31 20:32:28.3	7.210	-0.370	-0.020	-0.030
2020/01/31 20:32:28.4	7.200	-0.380	-0.030	-0.030
2020/01/31 20:32:28.5	7.200	-0.400	-0.050	-0.030
2020/01/31 20:32:28.6	7.180	-0.410	-0.060	-0.030
2020/01/31 20:32:28.7	7.170	-0.420	-0.080	-0.020
2020/01/31 20:32:28.8	7.160	-0.430	-0.090	-0.020
2020/01/31 20:32:28.9	7.150	-0.440	-0.110	-0.020
2020/01/31 20:32:29.0	7.140	-0.440	-0.140	-0.010
2020/01/31 20:32:29.1	7.120	-0.440	-0.160	-0.010
2020/01/31 20:32:29.2	7.100	-0.440	-0.190	-0.010
2020/01/31 20:32:29.3	7.090	-0.440	-0.220	-0.010
2020/01/31 20:32:29.4	7.070	-0.430	-0.260	-0.010
2020/01/31 20:32:29.5	7.060	-0.420	-0.300	-0.010
2020/01/31 20:32:29.6	7.040	-0.410	-0.340	-0.010
2020/01/31 20:32:29.7	7.030	-0.390	-0.380	-0.020
2020/01/31 20:32:29.8	7.020	-0.380	-0.430	-0.020
2020/01/31 20:32:29.9	7.010	-0.360	-0.480	-0.030
2020/01/31 20:32:30.0	7.010	-0.330	-0.530	-0.040
2020/01/31 20:32:30.1	7.000	-0.310	-0.580	-0.060
2020/01/31 20:32:30.2	6.990	-0.280	-0.640	-0.070
2020/01/31 20:32:30.3	6.990	-0.250	-0.690	-0.090
2020/01/31 20:32:30.4	6.990	-0.220	-0.750	-0.100
2020/01/31 20:32:30.5	6.990	-0.190	-0.800	-0.120
2020/01/31 20:32:30.6	6.990	-0.150	-0.860	-0.150
2020/01/31 20:32:30.7	6.990	-0.120	-0.910	-0.170
2020/01/31 20:32:30.8	7.000	-0.080	-0.960	-0.190
2020/01/31 20:32:30.9	7.000	-0.040	-1.010	-0.210
2020/01/31 20:32:31.0	7.010	-0.000	-1.050	-0.230
2020/01/31 20:32:31.1	7.010	0.030	-1.090	-0.250
2020/01/31 20:32:31.2	7.020	0.070	-1.130	-0.280
2020/01/31 20:32:31.3	7.040	0.110	-1.160	-0.300
2020/01/31 20:32:31.4	7.050	0.150	-1.190	-0.320
2020/01/31 20:32:31.5	7.060	0.190	-1.210	-0.330
2020/01/31 20:32:31.6	7.070	0.220	-1.230	-0.350
2020/01/31 20:32:31.7	7.090	0.250	-1.230	-0.370
2020/01/31 20:32:31.8	7.100	0.280	-1.240	-0.380
2020/01/31 20:32:31.9	7.110	0.310	-1.230	-0.390
2020/01/31 20:32:32.0	7.120	0.340	-1.220	-0.400
2020/01/31 20:32:32.1	7.140	0.360	-1.200	-0.400
2020/01/31 20:32:32.2	7.160	0.380	-1.180	-0.400
2020/01/31 20:32:32.3	7.170	0.400	-1.140	-0.400
2020/01/31 20:32:32.4	7.190	0.420	-1.100	-0.390
2020/01/31 20:32:32.5	7.200	0.430	-1.060	-0.390
2020/01/31 20:32:32.6	7.220	0.430	-1.010	-0.370
2020/01/31 20:32:32.7	7.230	0.440	-0.950	-0.360
2020/01/31 20:32:32.8	7.250	0.430	-0.890	-0.340
2020/01/31 20:32:32.9	7.260	0.430	-0.820	-0.320
2020/01/31 20:32:33.0	7.270	0.420	-0.750	-0.290
2020/01/31 20:32:33.1	7.280	0.410	-0.670	-0.270
2020/01/31 20:32:33.2	7.290	0.390	-0.590	-0.240
2020/01/31 20:32:33.3	7.300	0.370	-0.510	-0.210
2020/01/31 20:32:33.4	7.310	0.350	-0.430	-0.180
2020/01/31 20:32:33.5	7.310	0.320	-0.340	-0.150
2020/01/31 20:32:33.6	7.310	0.290	-0.250	-0.120
2020/01/31 20:32:33.7	7.310	0.250	-0.170	-0.090
2020/01/31 20:32:33.8	7.310	0.220	-0.080	-0.050
2020/01/31 20:32:33.9	7.310	0.180	0.000	-0.020
2020/01/31 20:32:34.0	7.300	0.140	0.090	0.010
2020/01/31 20:32:34.1	7.300	0.100	0.170	0.040
2020/01/31 20:32:34.2	7.290	0.060	0.240	0.070
2020/01/31 20:32:34.3	7.280	0.020	0.320	0.090
2020/01/31 20:32:34.4	7.270	-0.020	0.380	0.120
2020/01/31 20:32:34.5	7.260	-0.060	0.450	0.140
2020/01/31 20:32:34.6	7.240	-0.100	0.500	0.170
2020/01/31 20:32:34.7	7.230	-0.140	0.550	0.190
2020/01/31 20:32:34.8	7.220	-0.180	0.590	0.200
2020/01/31 20:32:34.9	7.210	-0.210	0.620	0.220
2020/01/31 20:32:35.0	7.200	-0.250	0.650	0.230
2020/01/31 20:32:35.1	7.190	-0.270	0.670	0.250
2020/01/31 20:32:35.2	7.180	-0.300	0.690	0.250
2020/01/31 20:32:35.3	7.170	-0.320	0.690	0.260
2020/01/31 20:32:35.4	7.160	-0.340	0.690	0.270
2020/01/31 20:32:35.5				
2020/01/31 20:32:35.6	7.150	-0.350	0.680	0.270
2020/01/31 20:32:35.7	7.140	-0.360	0.640	0.270
2020/01/31 20:32:35.8	7.140	-0.360	0.620	0.260
2020/01/31 20:32:35.9	7.130	-0.360	0.580	0.260
2020/01/31 20:32:36.0	7.130	-0.350	0.540	0.250
2020/01/31 20:32:36.1	7.130	-0.340	0.490	0.240
2020/01/31 20:32:36.2	7.130	-0.320	0.440	0.230
2020/01/31 20:32:36.3	7.140	-0.300	0.390	0.220
2020/01/31 20:32:36.4	7.140	-0.280	0.330	0.210
2020/01/31 20:32:36.5	7.140	-0.250	0.270	0.190
2020/01/31 20:32:36.6	7.150	-0.230	0.210	0.170
2020/01/31 20:32:36.7	7.150	-0.200	0.140	0.160
2020/01/31 20:32:36.8	7.160	-0.160	0.080	0.140
2020/01/31 20:32:36.9	7.180	-0.130	0.010	0.120
2020/01/31 20:32:37.0	7.190	-0.100	-0.060	0.100
2020/01/31 20:32:37.1	7.200	-0.060	-0.120	0.080
2020/01/31 20:32:37.2	7.210	-0.020	-0.190	0.060
2020/01/31 20:32:37.3	7.220	0.010	-0.250	0.030
2020/01/31 20:32:37.4	7.230	0.050	-0.310	0.010
2020/01/31 20:32:37.5	7.240	0.080	-0.370	-0.010
2020/01/31 20:32:37.6	7.250	0.110	-0.430	-0.030
2020/01/31 20:32:37.7	7.260	0.140	-0.480	-0.050
2020/01/31 20:32:37.8	7.270	0.170	-0.530	-0.070
2020/01/31 20:32:37.9	7.300	0.200	-0.570	-0.090
2020/01/31 20:32:38.0	7.310	0.230	-0.610	-0.110
2020/01/31 20:32:38.1	7.320	0.250	-0.650	-0.120
2020/01/31 20:32:38.2	7.320	0.270	-0.680	-0.140
2020/01/31 20:32:38.3	7.330	0.280	-0.700	-0.150
2020/01/31 20:32:38.4	7.330	0.300	-0.720	-0.160
2020/01/31 20:32:38.5	7.340	0.310	-0.730	-0.170
2020/01/31 20:32:38.6	7.340	0.320	-0.740	-0.170
2020/01/31 20:32:38.7	7.340	0.320	-0.740	-0.180
2020/01/31 20:32:38.8	7.340	0.320	-0.740	-0.180
2020/01/31 20:32:38.9	7.350	0.320	-0.730	-0.180
2020/01/31 20:32:39.0	7.350	0.320	-0.720	-0.190
2020/01/31 20:32:39.1	7.340	0.310	-0.700	-0.180
2020/01/31 20:32:39.2	7.340	0.300	-0.680	-0.180
2020/01/31 20:32:39.3	7.330	0.290	-0.650	-0.180
2020/01/31 20:32:39.4	7.330	0.270	-0.620	-0.180
2020/01/31 20:32:39.5	7.320	0.260	-0.590	-0.170
2020/01/31 20:32:39.6	7.310	0.240	-0.550	-0.170
2020/01/31 20:32:39.7	7.300	0.220	-0.510	-0.170
2020/01/31 20:32:39.8	7.290	0.200	-0.470	-0.160
2020/01/31 20:32:39.9	7.290	0.180	-0.430	-0.160
2020/01/31 20:32:40.0	7.270	0.160	-0.380	-0.150
2020/01/31 20:32:40.1	7.260	0.130	-0.340	-0.140
2020/01/31 20:32:40.2	7.240	0.110	-0.290	-0.130
2020/01/31 20:32:40.3	7.230	0.090	-0.250	-0.120
2020/01/31 20:32:40.4	7.210	0.060	-0.200	-0.110
2020/01/31 20:32:40.5	7.200	0.040	-0.160	-0.100
2020/01/31 20:32:40.6	7.180	0.020	-0.110	-0.090
2020/01/31 20:32:40.7	7.160	-0.000	-0.070	-0.080
2020/01/31 20:32:40.8	7.150	-0.020	-0.030	-0.070
2020/01/31 20:32:40.9	7.140	-0.040	0.010	-0.050
2020/01/31 20:32:41.0	7.120	-0.060	0.040	-0.040
2020/01/31 20:32:41.1	7.110	-0.080	0.070	-0.030
2020/01/31 20:32:41.2	7.090	-0.090	0.100	-0.020
2020/01/31 20:32:41.3	7.080	-0.110	0.130	-0.000
2020/01/31 20:32:41.4	7.070	-0.120	0.150	0.010
2020/01/31 20:32:41.5	7.050	-0.130	0.160	0.020
2020/01/31 20:32:41.6	7.040	-0.140	0.170	0.030
2020/01/31 20:32:41.7	7.030	-0.140	0.180	0.050
2020/01/31 20:32:41.8				
2020/01/31 20:32:41.9	7.020	-0.150	0.180	0.060
2020/01/31 20:32:42.0	7.000	-0.150	0.180	0.080
2020/01/31 20:32:42.1	6.990	-0.150	0.170	0.090
2020/01/31 20:32:42.2	6.970	-0.150	0.150	0.100
2020/01/31 20:32:42.3	6.960	-0.150	0.140	0.110
2020/01/31 20:32:42.4	6.950	-0.150	0.120	0.120
2020/01/31 20:32:42.5	6.940	-0.140	0.090	0.130
2020/01/31 20:32:42.6	6.930	-0.140	0.070	0.130
2020/01/31 20:32:42.7	6.920	-0.130	0.040	0.140
2020/01/31 20:32:42.8	6.910	-0.130	0.000	0.140
2020/01/31 20:32:42.9	6.900	-0.120	-0.030	0.140
2020/01/31 20:32:43.0	6.890	-0.110	-0.070	0.130
2020/01/31 20:32:43.1	6.880	-0.100	-0.110	0.130
2020/01/31 20:32:43.2	6.870	-0.090	-0.150	0.120
2020/01/31 20:32:43.3	6.860	-0.090	-0.190	0.110
2020/01/31 20:32:43.4	6.860	-0.080	-0.230	0.100
2020/01/31 20:32:43.5	6.850	-0.070	-0.280	0.090
2020/01/31 20:32:43.6	6.850	-0.060	-0.320	0.070
2020/01/31 20:32:43.7	6.850	-0.050	-0.360	0.060
2020/01/31 20:32:43.8	6.850	-0.040	-0.410	0.040
2020/01/31 20:32:43.9	6.840	-0.020	-0.450	0.020
2020/01/31 20:32:44.0	6.850	-0.010	-0.490	0.000
2020/01/31 20:32:44.1	6.850	-0.000	-0.530	-0.020
2020/01/31 20:32:44.2	6.860	0.010	-0.580	-0.030
2020/01/31 20:32:44.3	6.870	0.020	-0.610	-0.050
2020/01/31 20:32:44.4	6.880	0.040	-0.650	-0.070
2020/01/31 20:32:44.5	6.890	0.050	-0.690	-0.090
2020/01/31 20:32:44.6	6.900	0.060	-0.720	-0.110
2020/01/31 20:32:44.7	6.920	0.070	-0.750	-0.120
2020/01/31 20:32:44.8	6.930	0.090	-0.780	-0.140
2020/01/31 20:32:44.9	6.950	0.100	-0.800	-0.150
2020/01/31 20:32:45.0	6.970	0.110	-0.820	-0.170
2020/01/31 20:32:45.1	6.990	0.120	-0.840	-0.180
2020/01/31 20:32:45.2	7.010	0.130	-0.860	-0.190
2020/01/31 20:32:45.3	7.030	0.140	-0.870	-0.200
2020/01/31 20:32:45.4	7.050	0.150	-0.880	-0.210
2020/01/31 20:32:45.5	7.070	0.150	-0.880	-0.220
2020/01/31 20:32:45.6	7.100	0.160	-0.880	-0.230
2020/01/31 20:32:45.7	7.120	0.160	-0.880	-0.240
2020/01/31 20:32:45.8	7.140	0.160	-0.870	-0.250
2020/01/31 20:32:45.9	7.160	0.160	-0.860	-0.260
2020/01/31 20:32:46.0	7.190	0.160	-0.840	-0.270
2020/01/31 20:32:46.1	7.210	0.150	-0.820	-0.280
2020/01/31 20:32:46.2	7.230	0.150	-0.800	-0.300
2020/01/31 20:32:46.3	7.260	0.140	-0.780	-0.310
2020/01/31 20:32:46.4	7.280	0.130	-0.750	-0.320
2020/01/31 20:32:46.5	7.300	0.120	-0.720	-0.340
2020/01/31 20:32:46.6	7.320	0.100	-0.690	-0.350
2020/01/31 20:32:46.7	7.340	0.090	-0.660	-0.360
2020/01/31 20:32:46.8	7.360	0.070	-0.620	-0.370
2020/01/31 20:32:46.9	7.380	0.050	-0.580	-0.380
2020/01/31 20:32:47.0	7.390	0.030	-0.540	-0.390
2020/01/31 20:32:47.1	7.410	0.010	-0.500	-0.400
2020/01/31 20:32:47.2	7.420	-0.020	-0.460	-0.410
2020/01/31 20:32:47.3	7.430	-0.040	-0.410	-0.410
2020/01/31 20:32:47.4	7.440	-0.060	-0.370	-0.420
2020/01/31 20:32:47.5	7.450	-0.090	-0.320	-0.420
2020/01/31 20:32:47.6	7.450	-0.110	-0.280	-0.410
2020/01/31 20:32:47.7	7.460	-0.140	-0.230	-0.410
2020/01/31 20:32:47.8	7.460	-0.160	-0.180	-0.400
2020/01/31 20:32:47.9	7.460	-0.180	-0.130	-0.390
2020/01/31 20:32:48.0	7.450	-0.210	-0.080	-0.380
2020/01/31 20:32:48.1	7.450	-0.230	-0.040	-0.370
2020/01/31 20:32:48.2	7.440	-0.250	0.010	-0.350
2020/01/31 20:32:48.3	7.440	-0.260	0.050	-0.340
2020/01/31 20:32:48.4	7.430	-0.280	0.100	-0.320
2020/01/31 20:32:48.5	7.420	-0.290	0.140	-0.300
2020/01/31 20:32:48.6	7.410	-0.310	0.180	-0.270
2020/01/31 20:32:48.7	7.400	-0.320	0.220	-0.250
2020/01/31 20:32:48.8	7.390	-0.320	0.250	-0.220
2020/01/31 20:32:48.9	7.390	-0.330	0.290	-0.200
2020/01/31 20:32:49.0	7.370	-0.330	0.320	-0.170
2020/01/31 20:32:49.1	7.360	-0.330	0.340	-0.140
2020/01/31 20:32:49.2	7.350	-0.330	0.370	-0.110
2020/01/31 20:32:49.3	7.330	-0.320	0.390	-0.080
2020/01/31 20:32:49.4	7.320	-0.320	0.410	-0.050
2020/01/31 20:32:49.5	7.300	-0.310	0.420	-0.020
2020/01/31 20:32:49.6	7.280	-0.300	0.440	0.010
2020/01/31 20:32:49.7	7.270	-0.280	0.450	0.040
2020/01/31 20:32:49.8	7.240	-0.270	0.450	0.070
2020/01/31 20:32:49.9	7.230	-0.250	0.460	0.100
2020/01/31 20:32:50.0	7.200	-0.230	0.460	0.130
2020/01/31 20:32:50.1	7.180	-0.210	0.460	0.170
2020/01/31 20:32:50.2	7.150	-0.190	0.460	0.200
2020/01/31 20:32:50.3	7.120	-0.170	0.450	0.230
2020/01/31 20:32:50.4	7.090	-0.150	0.450	0.260
2020/01/31 20:32:50.5	7.060	-0.130	0.440	0.290
2020/01/31 20:32:50.6	7.030	-0.100	0.420	0.330
2020/01/31 20:32:50.7	6.990	-0.080	0.410	0.360
2020/01/31 20:32:50.8	6.960	-0.060	0.390	0.390
2020/01/31 20:32:50.9	6.910	-0.040	0.370	0.420
2020/01/31 20:32:51.0	6.870	-0.010	0.350	0.450
2020/01/31 20:32:51.1	6.830	0.010	0.320	0.470
2020/01/31 20:32:51.2	6.800	0.030	0.300	0.500
2020/01/31 20:32:51.3	6.760	0.050	0.270	0.520
2020/01/31 20:32:51.4	6.720	0.070	0.230	0.540
2020/01/31 20:32:51.5	6.690	0.090	0.200	0.560
2020/01/31 20:32:51.6	6.650	0.100	0.160	0.570
2020/01/31 20:32:51.7	6.620	0.120	0.120	0.580
2020/01/31 20:32:51.8	6.590	0.130	0.070	0.590
2020/01/31 20:32:51.9	6.560	0.150	0.020	0.590
2020/01/31 20:32:52.0	6.530	0.160	-0.030	0.580
2020/01/31 20:32:52.1	6.510	0.180	-0.080	0.580
2020/01/31 20:32:52.2	6.490	0.190	-0.140	0.560
2020/01/31 20:32:52.3	6.470	0.200	-0.190	0.540
2020/01/31 20:32:52.4	6.450	0.220	-0.250	0.520
2020/01/31 20:32:52.5	6.440	0.230	-0.320	0.490
2020/01/31 20:32:52.6	6.430	0.240	-0.380	0.460
2020/01/31 20:32:52.7	6.430	0.250	-0.440	0.430
2020/01/31 20:32:52.8	6.430	0.270	-0.500	0.390
2020/01/31 20:32:52.9	6.420	0.280	-0.570	0.350
2020/01/31 20:32:53.0	6.430	0.290	-0.630	0.310
2020/01/31 20:32:53.1	6.430	0.310	-0.690	0.260
2020/01/31 20:32:53.2	6.440	0.320	-0.750	0.220
2020/01/31 20:32:53.3	6.450	0.340	-0.810	0.170
2020/01/31 20:32:53.4	6.470	0.350	-0.860	0.130
2020/01/31 20:32:53.5	6.480	0.360	-0.910	0.080
2020/01/31 20:32:53.6	6.500	0.380	-0.960	0.040
2020/01/31 20:32:53.7	6.520	0.390	-1.000	-0.010
2020/01/31 20:32:53.8	6.540	0.400	-1.030	-0.060
2020/01/31 20:32:53.9	6.560	0.410	-1.070	-0.100
2020/01/31 20:32:54.0	6.580	0.420	-1.100	-0.150
2020/01/31 20:32:54.1	6.610	0.430	-1.120	-0.190
2020/01/31 20:32:54.2	6.630	0.430	-1.130	-0.240
2020/01/31 20:32:54.3	6.660	0.440	-1.150	-0.280
2020/01/31 20:32:54.4				
2020/01/31 20:32:54.5	6.680	0.440	-1.150	-0.320
2020/01/31 20:32:54.6	6.740	0.440	-1.140	-0.400
2020/01/31 20:32:54.7	6.760	0.440	-1.130	-0.430
2020/01/31 20:32:54.8	6.790	0.440	-1.120	-0.460
2020/01/31 20:32:54.9	6.820	0.430	-1.090	-0.490
2020/01/31 20:32:55.0	6.840	0.420	-1.060	-0.520
2020/01/31 20:32:55.1	6.870	0.410	-1.030	-0.540
2020/01/31 20:32:55.2	6.890	0.390	-1.000	-0.560
2020/01/31 20:32:55.3	6.910	0.380	-0.950	-0.570
2020/01/31 20:32:55.4	6.940	0.360	-0.910	-0.580
2020/01/31 20:32:55.5	6.960	0.340	-0.860	-0.590
2020/01/31 20:32:55.6	6.980	0.320	-0.810	-0.600
2020/01/31 20:32:55.7	6.990	0.290	-0.760	-0.600
2020/01/31 20:32:55.8	7.010	0.270	-0.700	-0.600
2020/01/31 20:32:55.9	7.020	0.240	-0.650	-0.590
2020/01/31 20:32:56.0	7.040	0.210	-0.590	-0.580
2020/01/31 20:32:56.1	7.050	0.180	-0.530	-0.570
2020/01/31 20:32:56.2	7.070	0.140	-0.480	-0.560
2020/01/31 20:32:56.3	7.080	0.110	-0.420	-0.550
2020/01/31 20:32:56.4	7.090	0.070	-0.360	-0.530
2020/01/31 20:32:56.5				
2020/01/31 20:32:56.6	7.100	0.040	-0.300	-0.510
2020/01/31 20:32:56.7	7.120	-0.030	-0.200	-0.470
2020/01/31 20:32:56.8	7.120	-0.070	-0.150	-0.450
2020/01/31 20:32:56.9	7.130	-0.110	-0.090	-0.430
2020/01/31 20:32:57.0	7.130	-0.140	-0.050	-0.400
2020/01/31 20:32:57.1	7.140	-0.180	-0.000	-0.380
2020/01/31 20:32:57.2	7.140	-0.210	0.040	-0.350
2020/01/31 20:32:57.3	7.140	-0.250	0.080	-0.320
2020/01/31 20:32:57.4	7.140	-0.280	0.120	-0.290
2020/01/31 20:32:57.5	7.130	-0.320	0.160	-0.260
2020/01/31 20:32:57.6	7.130	-0.350	0.190	-0.230
2020/01/31 20:32:57.7	7.120	-0.380	0.220	-0.200
2020/01/31 20:32:57.8	7.110	-0.410	0.260	-0.170
2020/01/31 20:32:57.9	7.090	-0.450	0.280	-0.140
2020/01/31 20:32:58.0	7.080	-0.470	0.310	-0.110
2020/01/31 20:32:58.1	7.070	-0.500	0.340	-0.080
2020/01/31 20:32:58.2	7.060	-0.530	0.360	-0.050
2020/01/31 20:32:58.3	7.040	-0.560	0.380	-0.020
2020/01/31 20:32:58.4	7.030	-0.580	0.400	0.000
2020/01/31 20:32:58.5	7.010	-0.600	0.420	0.030
2020/01/31 20:32:58.6	6.990	-0.620	0.440	0.050
2020/01/31 20:32:58.7	6.980	-0.640	0.450	0.070
2020/01/31 20:32:58.8	6.960	-0.660	0.460	0.090
2020/01/31 20:32:58.9	6.940	-0.670	0.460	0.110
2020/01/31 20:32:59.0	6.920	-0.680	0.470	0.130
2020/01/31 20:32:59.1	6.900	-0.690	0.470	0.140
2020/01/31 20:32:59.2	6.890	-0.690	0.470	0.160
2020/01/31 20:32:59.3	6.880	-0.700	0.460	0.170
2020/01/31 20:32:59.4	6.870	-0.690	0.450	0.180
2020/01/31 20:32:59.5	6.860	-0.690	0.430	0.190
2020/01/31 20:32:59.6	6.850	-0.680	0.410	0.190
2020/01/31 20:32:59.7	6.850	-0.670	0.380	0.200
2020/01/31 20:32:59.8	6.840	-0.650	0.350	0.200
2020/01/31 20:32:59.9	6.830	-0.630	0.320	0.200
2020/01/31 20:33:00.0	6.830	-0.610	0.280	0.200
2020/01/31 20:33:00.1	6.830	-0.580	0.240	0.190
2020/01/31 20:33:00.2	6.830	-0.550	0.190	0.190
2020/01/31 20:33:00.3	6.830	-0.520	0.140	0.190
2020/01/31 20:33:00.4	6.830	-0.480	0.080	0.180
2020/01/31 20:33:00.5	6.840	-0.440	0.030	0.180
2020/01/31 20:33:00.6	6.840	-0.400	-0.030	0.170
2020/01/31 20:33:00.7				
2020/01/31 20:33:00.8	6.840	-0.350	-0.090	0.160
2020/01/31 20:33:00.9	6.840	-0.250	-0.220	0.150
2020/01/31 20:33:01.0	6.850	-0.200	-0.290	0.140
2020/01/31 20:33:01.1	6.850	-0.140	-0.350	0.130
2020/01/31 20:33:01.2	6.850	-0.090	-0.410	0.120
2020/01/31 20:33:01.3	6.850	-0.030	-0.470	0.110
2020/01/31 20:33:01.4	6.850	0.020	-0.530	0.100
2020/01/31 20:33:01.5	6.850	0.080	-0.580	0.100
2020/01/31 20:33:01.6	6.850	0.130	-0.630	0.090
2020/01/31 20:33:01.7	6.840	0.180	-0.680	0.080
2020/01/31 20:33:01.8	6.840	0.230	-0.720	0.080
2020/01/31 20:33:01.9	6.830	0.280	-0.760	0.080
2020/01/31 20:33:02.0	6.830	0.330	-0.790	0.070
2020/01/31 20:33:02.1	6.820	0.370	-0.820	0.070
2020/01/31 20:33:02.2	6.810	0.410	-0.840	0.070
2020/01/31 20:33:02.3	6.810	0.450	-0.850	0.080
2020/01/31 20:33:02.4	6.800	0.480	-0.860	0.080
2020/01/31 20:33:02.5	6.780	0.510	-0.860	0.090
2020/01/31 20:33:02.6	6.770	0.540	-0.860	0.100
2020/01/31 20:33:02.7	6.760	0.560	-0.850	0.110
2020/01/31 20:33:02.8				
2020/01/31 20:33:02.9	6.750	0.580	-0.830	0.120
2020/01/31 20:33:03.0	6.730	0.590	-0.780	0.150
2020/01/31 20:33:03.1	6.710	0.600	-0.750	0.160
2020/01/31 20:33:03.2	6.700	0.600	-0.720	0.170
2020/01/31 20:33:03.3	6.690	0.590	-0.680	0.190
2020/01/31 20:33:03.4	6.670	0.580	-0.630	0.200
2020/01/31 20:33:03.5	6.660	0.560	-0.590	0.220
2020/01/31 20:33:03.6	6.650	0.550	-0.540	0.230
2020/01/31 20:33:03.7	6.640	0.520	-0.490	0.240
2020/01/31 20:33:03.8	6.630	0.500	-0.440	0.250
2020/01/31 20:33:03.9	6.610	0.470	-0.390	0.260
2020/01/31 20:33:04.0	6.610	0.440	-0.340	0.270
2020/01/31 20:33:04.1	6.600	0.410	-0.300	0.270
2020/01/31 20:33:04.2	6.600	0.370	-0.250	0.270
2020/01/31 20:33:04.3	6.590	0.340	-0.200	0.270
2020/01/31 20:33:04.4	6.590	0.300	-0.160	0.260
2020/01/31 20:33:04.5	6.580	0.270	-0.120	0.260
2020/01/31 20:33:04.6	6.580	0.230	-0.080	0.250
2020/01/31 20:33:04.7	6.580	0.190	-0.050	0.240
2020/01/31 20:33:04.8	6.580	0.150	-0.010	0.220
2020/01/31 20:33:04.9				
2020/01/31 20:33:05.0	6.580	0.120	0.010	0.200
2020/01/31 20:33:05.1	6.570	0.050	0.060	0.170
2020/01/31 20:33:05.2	6.570	0.010	0.080	0.150
2020/01/31 20:33:05.3	6.570	-0.020	0.100	0.130
2020/01/31 20:33:05.4	6.570	-0.050	0.110	0.110
2020/01/31 20:33:05.5	6.560	-0.070	0.120	0.080
2020/01/31 20:33:05.6	6.560	-0.100	0.130	0.060
2020/01/31 20:33:05.7	6.560	-0.120	0.130	0.030
2020/01/31 20:33:05.8	6.560	-0.140	0.130	0.000
2020/01/31 20:33:05.9	6.560	-0.160	0.130	-0.020
2020/01/31 20:33:06.0	6.560	-0.180	0.120	-0.050
2020/01/31 20:33:06.1	6.570	-0.190	0.110	-0.080
2020/01/31 20:33:06.2	6.570	-0.200	0.090	-0.110
2020/01/31 20:33:06.3	6.580	-0.210	0.070	-0.140
2020/01/31 20:33:06.4	6.580	-0.220	0.050	-0.170
2020/01/31 20:33:06.5	6.590	-0.220	0.030	-0.210
2020/01/31 20:33:06.6	6.600	-0.220	0.000	-0.240
2020/01/31 20:33:06.7	6.610	-0.220	-0.030	-0.270
2020/01/31 20:33:06.8	6.620	-0.220	-0.060	-0.300
2020/01/31 20:33:06.9	6.630	-0.210	-0.100	-0.330
2020/01/31 20:33:07.0				
2020/01/31 20:33:07.1	6.640	-0.200	-0.140	-0.360
2020/01/31 20:33:07.2	6.670	-0.180	-0.220	-0.420
2020/01/31 20:33:07.3	6.680	-0.160	-0.260	-0.440
2020/01/31 20:33:07.4	6.700	-0.150	-0.310	-0.460
2020/01/31 20:33:07.5	6.710	-0.130	-0.350	-0.480
2020/01/31 20:33:07.6	6.730	-0.110	-0.390	-0.500
2020/01/31 20:33:07.7	6.740	-0.090	-0.430	-0.510
2020/01/31 20:33:07.8	6.760	-0.070	-0.480	-0.520
2020/01/31 20:33:07.9	6.770	-0.050	-0.510	-0.530
2020/01/31 20:33:08.0	6.780	-0.020	-0.550	-0.540
2020/01/31 20:33:08.1	6.790	0.000	-0.590	-0.540
2020/01/31 20:33:08.2	6.810	0.020	-0.620	-0.540
2020/01/31 20:33:08.3	6.820	0.050	-0.660	-0.540
2020/01/31 20:33:08.4	6.830	0.070	-0.680	-0.540
2020/01/31 20:33:08.5	6.850	0.090	-0.710	-0.540
2020/01/31 20:33:08.6	6.860	0.120	-0.730	-0.530
2020/01/31 20:33:08.7	6.870	0.140	-0.750	-0.530
2020/01/31 20:33:08.8	6.880	0.160	-0.760	-0.520
2020/01/31 20:33:08.9	6.880	0.180	-0.780	-0.510
2020/01/31 20:33:09.0	6.890	0.200	-0.790	-0.500
2020/01/31 20:33:09.1				
2020/01/31 20:33:09.2	6.910	0.220	-0.790	-0.490
2020/01/31 20:33:09.3	6.930	0.250	-0.780	-0.460
2020/01/31 20:33:09.4	6.940	0.260	-0.770	-0.440
2020/01/31 20:33:09.5	6.950	0.270	-0.760	-0.420
2020/01/31 20:33:09.6	6.960	0.280	-0.740	-0.400
2020/01/31 20:33:09.7	6.970	0.290	-0.720	-0.370
2020/01/31 20:33:09.8	6.970	0.300	-0.690	-0.340
2020/01/31 20:33:09.9	6.980	0.300	-0.660	-0.300
2020/01/31 20:33:10.0	6.990	0.300	-0.620	-0.270
2020/01/31 20:33:10.1	6.990	0.300	-0.580	-0.230
2020/01/31 20:33:10.2	6.990	0.290	-0.540	-0.190
2020/01/31 20:33:10.3	6.980	0.280	-0.490	-0.140
2020/01/31 20:33:10.4	6.980	0.270	-0.450	-0.100
2020/01/31 20:33:10.5	6.970	0.260	-0.390	-0.050
2020/01/31 20:33:10.6	6.960	0.240	-0.340	-0.010
2020/01/31 20:33:10.7	6.950	0.220	-0.280	0.040
2020/01/31 20:33:10.8	6.930	0.200	-0.220	0.090
2020/01/31 20:33:10.9	6.930	0.170	-0.170	0.140
2020/01/31 20:33:11.0	6.910	0.140	-0.110	0.190
2020/01/31 20:33:11.1	6.890	0.110	-0.040	0.230
2020/01/31 20:33:11.2				
2020/01/31 20:33:11.3	6.870	0.080	0.020	0.280
2020/01/31 20:33:11.4	6.820	0.010	0.130	0.360
2020/01/31 20:33:11.5	6.800	-0.030	0.190	0.400
2020/01/31 20:33:11.6	6.770	-0.070	0.240	0.430
2020/01/31 20:33:11.7	6.740	-0.120	0.290	0.460
2020/01/31 20:33:11.8	6.710	-0.160	0.340	0.490
2020/01/31 20:33:11.9	6.680	-0.200	0.390	0.510
2020/01/31 20:33:12.0	6.650	-0.240	0.430	0.530
2020/01/31 20:33:12.1	6.620	-0.290	0.460	0.540
2020/01/31 20:33:12.2	6.580	-0.330	0.500	0.560
2020/01/31 20:33:12.3	6.550	-0.370	0.520	0.570
2020/01/31 20:33:12.4	6.510	-0.410	0.550	0.570
2020/01/31 20:33:12.5	6.480	-0.440	0.570	0.570
2020/01/31 20:33:12.6	6.450	-0.480	0.580	0.570
2020/01/31 20:33:12.7	6.410	-0.510	0.590	0.560
2020/01/31 20:33:12.8	6.380	-0.540	0.590	0.550
2020/01/31 20:33:12.9	6.350	-0.560	0.580	0.530
2020/01/31 20:33:13.0	6.320	-0.590	0.570	0.510
2020/01/31 20:33:13.1	6.290	-0.610	0.560	0.490
2020/01/31 20:33:13.2	6.270	-0.620	0.530	0.460
2020/01/31 20:33:13.3				
2020/01/31 20:33:13.4	6.250	-0.630	0.510	0.430
2020/01/31 20:33:13.5	6.220	-0.640	0.430	0.360
2020/01/31 20:33:13.6	6.200	-0.640	0.380	0.320
2020/01/31 20:33:13.7	6.200	-0.640	0.330	0.270
2020/01/31 20:33:13.8	6.190	-0.630	0.270	0.230
2020/01/31 20:33:13.9	6.190	-0.620	0.210	0.170
2020/01/31 20:33:14.0	6.200	-0.600	0.140	0.120
2020/01/31 20:33:14.1	6.200	-0.580	0.070	0.070
2020/01/31 20:33:14.2	6.210	-0.560	-0.000	0.010
2020/01/31 20:33:14.3	6.230	-0.530	-0.080	-0.040
2020/01/31 20:33:14.4	6.240	-0.500	-0.160	-0.100
2020/01/31 20:33:14.5	6.260	-0.460	-0.240	-0.160
2020/01/31 20:33:14.6	6.280	-0.430	-0.320	-0.210
2020/01/31 20:33:14.7	6.300	-0.390	-0.390	-0.270
2020/01/31 20:33:14.8	6.320	-0.350	-0.470	-0.320
2020/01/31 20:33:14.9	6.350	-0.310	-0.550	-0.370
2020/01/31 20:33:15.0	6.370	-0.260	-0.620	-0.420
2020/01/31 20:33:15.1	6.400	-0.220	-0.690	-0.470
2020/01/31 20:33:15.2	6.420	-0.180	-0.750	-0.510
2020/01/31 20:33:15.3	6.440	-0.130	-0.810	-0.550
2020/01/31 20:33:15.4				
2020/01/31 20:33:15.5	6.470	-0.090	-0.870	-0.580
2020/01/31 20:33:15.6	6.510	0.000	-0.960	-0.630
2020/01/31 20:33:15.7	6.530	0.050	-0.990	-0.650
2020/01/31 20:33:15.8	6.560	0.090	-1.020	-0.670
2020/01/31 20:33:15.9	6.580	0.130	-1.040	-0.680
2020/01/31 20:33:16.0	6.600	0.170	-1.060	-0.680
2020/01/31 20:33:16.1	6.620	0.210	-1.060	-0.680
2020/01/31 20:33:16.2	6.640	0.250	-1.060	-0.680
2020/01/31 20:33:16.3	6.660	0.280	-1.060	-0.670
2020/01/31 20:33:16.4	6.680	0.320	-1.040	-0.660
2020/01/31 20:33:16.5	6.700	0.350	-1.030	-0.640
2020/01/31 20:33:16.6	6.720	0.380	-1.000	-0.630
2020/01/31 20:33:16.7	6.740	0.400	-0.970	-0.610
2020/01/31 20:33:16.8	6.760	0.430	-0.940	-0.580
2020/01/31 20:33:16.9	6.780	0.450	-0.900	-0.560
2020/01/31 20:33:17.0	6.800	0.470	-0.860	-0.530
2020/01/31 20:33:17.1	6.820	0.490	-0.820	-0.500
2020/01/31 20:33:17.2	6.840	0.500	-0.780	-0.470
2020/01/31 20:33:17.3	6.860	0.520	-0.730	-0.440
2020/01/31 20:33:17.4	6.880	0.530	-0.690	-0.410
2020/01/31 20:33:17.5				
2020/01/31 20:33:17.6	6.890	0.530	-0.640	-0.380
2020/01/31 20:33:17.7	6.930	0.540	-0.550	-0.320
2020/01/31 20:33:17.8	6.950	0.540	-0.510	-0.280
2020/01/31 20:33:17.9	6.960	0.540	-0.470	-0.250
2020/01/31 20:33:18.0	6.970	0.530	-0.430	-0.210
2020/01/31 20:33:18.1	6.990	0.530	-0.390	-0.180
2020/01/31 20:33:18.2	7.000	0.520	-0.350	-0.150
2020/01/31 20:33:18.3	7.000	0.510	-0.320	-0.110
2020/01/31 20:33:18.4	7.010	0.490	-0.280	-0.080
2020/01/31 20:33:18.5	7.020	0.480	-0.250	-0.040
2020/01/31 20:33:18.6	7.020	0.460	-0.220	-0.010
2020/01/31 20:33:18.7	7.020	0.440	-0.190	0.020
2020/01/31 20:33:18.8	7.010	0.420	-0.160	0.050
2020/01/31 20:33:18.9	7.010	0.390	-0.140	0.080
2020/01/31 20:33:19.0	7.010	0.360	-0.120	0.110
2020/01/31 20:33:19.1	7.000	0.340	-0.100	0.130
2020/01/31 20:33:19.2	6.980	0.310	-0.080	0.150
2020/01/31 20:33:19.3	6.970	0.280	-0.060	0.160
2020/01/31 20:33:19.4	6.950	0.250	-0.050	0.170
2020/01/31 20:33:19.5	6.930	0.210	-0.040	0.180
2020/01/31 20:33:19.6				
2020/01/31 20:33:19.7	6.910	0.180	-0.030	0.180
2020/01/31 20:33:19.8	6.860	0.110	-0.010	0.170
2020/01/31 20:33:19.9	6.840	0.080	-0.000	0.160
2020/01/31 20:33:20.0	6.820	0.040	-0.000	0.140
2020/01/31 20:33:20.1	6.790	0.010	-0.000	0.120
2020/01/31 20:33:20.2	6.770	-0.030	-0.000	0.090
2020/01/31 20:33:20.3	6.740	-0.060	-0.000	0.060
2020/01/31 20:33:20.4	6.720	-0.090	-0.010	0.020
2020/01/31 20:33:20.5	6.700	-0.120	-0.010	-0.010
2020/01/31 20:33:20.6	6.670	-0.150	-0.020	-0.050
2020/01/31 20:33:20.7	6.650	-0.180	-0.030	-0.100
2020/01/31 20:33:20.8	6.630	-0.210	-0.040	-0.140
2020/01/31 20:33:20.9	6.620	-0.240	-0.050	-0.190
2020/01/31 20:33:21.0	6.600	-0.260	-0.060	-0.240
2020/01/31 20:33:21.1	6.590	-0.280	-0.080	-0.290
2020/01/31 20:33:21.2	6.580	-0.300	-0.090	-0.340
2020/01/31 20:33:21.3	6.570	-0.320	-0.100	-0.390
2020/01/31 20:33:21.4	6.560	-0.340	-0.120	-0.440
2020/01/31 20:33:21.5	6.560	-0.350	-0.140	-0.490
2020/01/31 20:33:21.6	6.560	-0.370	-0.150	-0.550
2020/01/31 20:33:21.7				
2020/01/31 20:33:21.8	6.560	-0.380	-0.170	-0.600
2020/01/31 20:33:21.9	6.560	-0.390	-0.190	-0.690
2020/01/31 20:33:22.0	6.560	-0.400	-0.210	-0.740
2020/01/31 20:33:22.1	6.570	-0.400	-0.220	-0.780
2020/01/31 20:33:22.2	6.570	-0.400	-0.230	-0.820
2020/01/31 20:33:22.3	6.580	-0.400	-0.240	-0.860
2020/01/31 20:33:22.4	6.580	-0.400	-0.250	-0.890
2020/01/31 20:33:22.5	6.590	-0.390	-0.250	-0.920
2020/01/31 20:33:22.6	6.590	-0.390	-0.260	-0.950
2020/01/31 20:33:22.7	6.600	-0.380	-0.260	-0.970
2020/01/31 20:33:22.8	6.600	-0.370	-0.260	-0.990
2020/01/31 20:33:22.9	6.610	-0.360	-0.260	-1.000
2020/01/31 20:33:23.0	6.610	-0.350	-0.260	-1.010
2020/01/31 20:33:23.1	6.620	-0.340	-0.250	-1.020
2020/01/31 20:33:23.2	6.620	-0.330	-0.240	-1.020
2020/01/31 20:33:23.3	6.620	-0.310	-0.230	-1.010
2020/01/31 20:33:23.4	6.620	-0.300	-0.220	-1.000
2020/01/31 20:33:23.5	6.620	-0.280	-0.210	-0.980
2020/01/31 20:33:23.6	6.630	-0.270	-0.190	-0.960
2020/01/31 20:33:23.7	6.620	-0.250	-0.170	-0.930
2020/01/31 20:33:23.8				
2020/01/31 20:33:23.9	6.620	-0.230	-0.150	-0.890
2020/01/31 20:33:24.0	6.600	-0.190	-0.100	-0.810
2020/01/31 20:33:24.1	6.600	-0.180	-0.070	-0.760
2020/01/31 20:33:24.2	6.600	-0.160	-0.040	-0.710
2020/01/31 20:33:24.3	6.590	-0.140	-0.010	-0.650
2020/01/31 20:33:24.4	6.590	-0.120	0.020	-0.590
2020/01/31 20:33:24.5	6.580	-0.100	0.050	-0.530
2020/01/31 20:33:24.6	6.580	-0.080	0.080	-0.470
2020/01/31 20:33:24.7	6.570	-0.060	0.110	-0.400
2020/01/31 20:33:24.8	6.570	-0.040	0.140	-0.330
2020/01/31 20:33:24.9	6.570	-0.020	0.160	-0.260
2020/01/31 20:33:25.0	6.560	-0.000	0.190	-0.190
2020/01/31 20:33:25.1	6.560	0.010	0.210	-0.120
2020/01/31 20:33:25.2	6.550	0.030	0.220	-0.050
2020/01/31 20:33:25.3	6.550	0.050	0.240	0.020
2020/01/31 20:33:25.4	6.540	0.070	0.250	0.090
2020/01/31 20:33:25.5	6.530	0.090	0.260	0.160
2020/01/31 20:33:25.6	6.530	0.110	0.260	0.230
2020/01/31 20:33:25.7	6.520	0.130	0.260	0.300
2020/01/31 20:33:25.8	6.520	0.150	0.250	0.360
2020/01/31 20:33:25.9				
2020/01/31 20:33:26.0	6.510	0.170	0.240	0.420
2020/01/31 20:33:26.1	6.500	0.200	0.210	0.540
2020/01/31 20:33:26.2	6.500	0.220	0.180	0.590
2020/01/31 20:33:26.3	6.490	0.240	0.160	0.640
2020/01/31 20:33:26.4	6.490	0.260	0.120	0.680
2020/01/31 20:33:26.5	6.490	0.280	0.090	0.720
2020/01/31 20:33:26.6	6.480	0.300	0.050	0.760
2020/01/31 20:33:26.7	6.480	0.310	0.010	0.790
2020/01/31 20:33:26.8	6.480	0.330	-0.040	0.820
2020/01/31 20:33:26.9	6.480	0.350	-0.080	0.840
2020/01/31 20:33:27.0	6.480	0.360	-0.130	0.850
2020/01/31 20:33:27.1	6.480	0.370	-0.180	0.860
2020/01/31 20:33:27.2	6.490	0.390	-0.230	0.860
2020/01/31 20:33:27.3	6.490	0.400	-0.280	0.860
2020/01/31 20:33:27.4	6.500	0.410	-0.340	0.850
2020/01/31 20:33:27.5	6.500	0.420	-0.390	0.840
2020/01/31 20:33:27.6	6.510	0.420	-0.440	0.820
2020/01/31 20:33:27.7	6.520	0.430	-0.500	0.800
2020/01/31 20:33:27.8	6.530	0.430	-0.550	0.770
2020/01/31 20:33:27.9	6.540	0.430	-0.600	0.740
2020/01/31 20:33:28.0				
2020/01/31 20:33:28.1	6.550	0.430	-0.650	0.700
2020/01/31 20:33:28.2	6.580	0.410	-0.750	0.620
2020/01/31 20:33:28.3	6.600	0.400	-0.790	0.580
2020/01/31 20:33:28.4	6.610	0.390	-0.830	0.520
2020/01/31 20:33:28.5	6.630	0.380	-0.870	0.470
2020/01/31 20:33:28.6	6.650	0.360	-0.900	0.410
2020/01/31 20:33:28.7	6.670	0.340	-0.940	0.350
2020/01/31 20:33:28.8	6.690	0.320	-0.960	0.290
2020/01/31 20:33:28.9	6.710	0.290	-0.990	0.220
2020/01/31 20:33:29.0	6.730	0.270	-1.010	0.160
2020/01/31 20:33:29.1	6.750	0.240	-1.030	0.090
2020/01/31 20:33:29.2	6.770	0.210	-1.040	0.030
2020/01/31 20:33:29.3	6.780	0.180	-1.050	-0.040
2020/01/31 20:33:29.4	6.800	0.140	-1.050	-0.100
2020/01/31 20:33:29.5	6.810	0.110	-1.050	-0.160
2020/01/31 20:33:29.6	6.820	0.070	-1.050	-0.220
2020/01/31 20:33:29.7	6.820	0.040	-1.040	-0.280
2020/01/31 20:33:29.8	6.830	-0.000	-1.020	-0.330
2020/01/31 20:33:29.9				
2020/01/31 20:33:30.0	6.830	-0.040	-1.000	-0.390
2020/01/31 20:33:30.1				
2020/01/31 20:33:30.2	6.830	-0.110	-0.950	-0.480
2020/01/31 20:33:30.3	6.820	-0.190	-0.880	-0.560
2020/01/31 20:33:30.4	6.820	-0.220	-0.840	-0.600
2020/01/31 20:33:30.5	6.810	-0.260	-0.800	-0.630
2020/01/31 20:33:30.6	6.800	-0.290	-0.750	-0.660
2020/01/31 20:33:30.7	6.790	-0.320	-0.700	-0.680
2020/01/31 20:33:30.8	6.780	-0.350	-0.650	-0.700
2020/01/31 20:33:30.9	6.770	-0.380	-0.600	-0.720
2020/01/31 20:33:31.0	6.760	-0.400	-0.550	-0.740
2020/01/31 20:33:31.1	6.750	-0.420	-0.500	-0.750
2020/01/31 20:33:31.2	6.740	-0.440	-0.440	-0.760
2020/01/31 20:33:31.3	6.730	-0.460	-0.390	-0.770
2020/01/31 20:33:31.4	6.730	-0.470	-0.340	-0.770
2020/01/31 20:33:31.5	6.720	-0.480	-0.290	-0.780
2020/01/31 20:33:31.6	6.720	-0.480	-0.240	-0.780
2020/01/31 20:33:31.7	6.710	-0.490	-0.190	-0.780
2020/01/31 20:33:31.8	6.710	-0.490	-0.140	-0.780
2020/01/31 20:33:31.9	6.720	-0.480	-0.100	-0.770
2020/01/31 20:33:32.0				
2020/01/31 20:33:32.1	6.720	-0.480	-0.060	-0.770
2020/01/31 20:33:32.2				
2020/01/31 20:33:32.3	6.720	-0.450	0.020	-0.750
2020/01/31 20:33:32.4	6.730	-0.420	0.080	-0.720
2020/01/31 20:33:32.5	6.730	-0.390	0.110	-0.710
2020/01/31 20:33:32.6	6.740	-0.370	0.140	-0.690
2020/01/31 20:33:32.7	6.740	-0.340	0.160	-0.660
2020/01/31 20:33:32.8	6.750	-0.320	0.180	-0.640
2020/01/31 20:33:32.9	6.760	-0.280	0.200	-0.610
2020/01/31 20:33:33.0				
2020/01/31 20:33:33.1	6.760	-0.250	0.220	-0.580
2020/01/31 20:33:33.2	6.770	-0.180	0.240	-0.500
2020/01/31 20:33:33.3	6.770	-0.150	0.250	-0.460
2020/01/31 20:33:33.4	6.780	-0.110	0.260	-0.410
2020/01/31 20:33:33.5	6.780	-0.080	0.270	-0.360
2020/01/31 20:33:33.6	6.780	-0.040	0.280	-0.310
2020/01/31 20:33:33.7	6.780	-0.010	0.280	-0.260
2020/01/31 20:33:33.8	6.770	0.020	0.290	-0.200
2020/01/31 20:33:33.9	6.760	0.050	0.290	-0.140
2020/01/31 20:33:34.0	6.760	0.080	0.290	-0.070
2020/01/31 20:33:34.1	6.750	0.110	0.290	-0.010
2020/01/31 20:33:34.2	6.740	0.140	0.280	0.050
2020/01/31 20:33:34.3				
2020/01/31 20:33:34.4	6.730	0.170	0.280	0.120
2020/01/31 20:33:34.5	6.700	0.210	0.270	0.240
2020/01/31 20:33:34.6	6.680	0.220	0.260	0.300
2020/01/31 20:33:34.7	6.670	0.240	0.240	0.360
2020/01/31 20:33:34.8	6.650	0.250	0.230	0.410
2020/01/31 20:33:34.9	6.620	0.260	0.210	0.460
2020/01/31 20:33:35.0	6.600	0.270	0.180	0.500
2020/01/31 20:33:35.1	6.580	0.270	0.160	0.550
2020/01/31 20:33:35.2	6.570	0.280	0.130	0.580
2020/01/31 20:33:35.3	6.550	0.280	0.100	0.610
2020/01/31 20:33:35.4	6.530	0.280	0.070	0.640
2020/01/31 20:33:35.5	6.520	0.270	0.030	0.660
2020/01/31 20:33:35.6	6.500	0.270	-0.010	0.670
2020/01/31 20:33:35.7	6.490	0.260	-0.050	0.680
2020/01/31 20:33:35.8	6.470	0.250	-0.090	0.690
2020/01/31 20:33:35.9	6.470	0.250	-0.140	0.690
2020/01/31 20:33:36.0	6.460	0.240	-0.180	0.680
2020/01/31 20:33:36.1	6.450	0.230	-0.220	0.680
2020/01/31 20:33:36.2	6.440	0.220	-0.270	0.670
2020/01/31 20:33:36.3	6.430	0.210	-0.310	0.660
2020/01/31 20:33:36.4				
2020/01/31 20:33:36.5	6.420	0.200	-0.350	0.640
2020/01/31 20:33:36.6	6.410	0.180	-0.420	0.610
2020/01/31 20:33:36.7	6.400	0.180	-0.460	0.590
2020/01/31 20:33:36.8	6.400	0.170	-0.490	0.570
2020/01/31 20:33:36.9	6.390	0.170	-0.520	0.550
2020/01/31 20:33:37.0	6.390	0.160	-0.540	0.530
2020/01/31 20:33:37.1				
2020/01/31 20:33:37.2	6.390	0.160	-0.560	0.510
2020/01/31 20:33:37.3	6.400	0.160	-0.590	0.470
2020/01/31 20:33:37.4	6.400	0.160	-0.600	0.440
2020/01/31 20:33:37.5	6.410	0.170	-0.610	0.420
2020/01/31 20:33:37.6	6.410	0.170	-0.610	0.390
2020/01/31 20:33:37.7	6.420	0.170	-0.610	0.360
2020/01/31 20:33:37.8	6.420	0.180	-0.610	0.340
2020/01/31 20:33:37.9	6.430	0.180	-0.600	0.310
2020/01/31 20:33:38.0	6.440	0.180	-0.590	0.280
2020/01/31 20:33:38.1	6.450	0.190	-0.580	0.250
2020/01/31 20:33:38.2	6.460	0.190	-0.560	0.220
2020/01/31 20:33:38.3	6.460	0.190	-0.540	0.190
2020/01/31 20:33:38.4	6.470	0.190	-0.510	0.160
2020/01/31 20:33:38.5				
2020/01/31 20:33:38.6	6.480	0.190	-0.490	0.130
2020/01/31 20:33:38.7	6.490	0.190	-0.430	0.070
2020/01/31 20:33:38.8	6.490	0.180	-0.400	0.040
2020/01/31 20:33:38.9				
2020/01/31 20:33:39.0	6.500	0.170	-0.360	0.010
2020/01/31 20:33:39.1	6.500	0.160	-0.330	-0.020
2020/01/31 20:33:39.2	6.500	0.150	-0.290	-0.040
2020/01/31 20:33:39.3	6.500	0.140	-0.260	-0.070
2020/01/31 20:33:39.4	6.500	0.120	-0.220	-0.100
2020/01/31 20:33:39.5	6.500	0.080	-0.150	-0.160
2020/01/31 20:33:39.6	6.490	0.060	-0.120	-0.190
2020/01/31 20:33:39.7	6.490	0.030	-0.080	-0.220
2020/01/31 20:33:39.8	6.490	0.000	-0.050	-0.250
2020/01/31 20:33:39.9	6.500	-0.020	-0.020	-0.280
2020/01/31 20:33:40.0	6.500	-0.050	0.000	-0.310
2020/01/31 20:33:40.1	6.500	-0.090	0.030	-0.340
2020/01/31 20:33:40.2	6.490	-0.120	0.050	-0.370
2020/01/31 20:33:40.3	6.490	-0.150	0.070	-0.400
2020/01/31 20:33:40.4	6.490	-0.180	0.080	-0.430
2020/01/31 20:33:40.5				
2020/01/31 20:33:40.6	6.490	-0.220	0.090	-0.460
2020/01/31 20:33:40.7	6.490	-0.250	0.090	-0.490
2020/01/31 20:33:40.8	6.500	-0.310	0.090	-0.560
2020/01/31 20:33:40.9				
2020/01/31 20:33:41.0	6.500	-0.340	0.080	-0.590
2020/01/31 20:33:41.1	6.510	-0.370	0.070	-0.620
2020/01/31 20:33:41.2	6.520	-0.390	0.050	-0.660
2020/01/31 20:33:41.3	6.530	-0.410	0.030	-0.690
2020/01/31 20:33:41.4	6.550	-0.430	0.010	-0.730
2020/01/31 20:33:41.5	6.570	-0.450	-0.020	-0.760
2020/01/31 20:33:41.6	6.590	-0.460	-0.060	-0.790
2020/01/31 20:33:41.7	6.610	-0.470	-0.090	-0.830
2020/01/31 20:33:41.8	6.650	-0.480	-0.170	-0.880
2020/01/31 20:33:41.9				
2020/01/31 20:33:42.0	6.660	-0.470	-0.210	-0.910
2020/01/31 20:33:42.1	6.690	-0.470	-0.250	-0.930
2020/01/31 20:33:42.2	6.710	-0.460	-0.300	-0.940
2020/01/31 20:33:42.3	6.720	-0.440	-0.340	-0.950
2020/01/31 20:33:42.4	6.740	-0.430	-0.380	-0.950
2020/01/31 20:33:42.5	6.760	-0.400	-0.410	-0.950
2020/01/31 20:33:42.6	6.770	-0.380	-0.450	-0.940
2020/01/31 20:33:42.7				
2020/01/31 20:33:42.8	6.790	-0.320	-0.510	-0.910
2020/01/31 20:33:42.9				
2020/01/31 20:33:43.0	6.790	-0.260	-0.560	-0.850
2020/01/31 20:33:43.1	6.790	-0.220	-0.570	-0.810
2020/01/31 20:33:43.2	6.790	-0.190	-0.590	-0.770
2020/01/31 20:33:43.3	6.790	-0.150	-0.600	-0.730
2020/01/31 20:33:43.4	6.780	-0.110	-0.610	-0.680
2020/01/31 20:33:43.5	6.770	-0.080	-0.610	-0.630
2020/01/31 20:33:43.6	6.760	-0.040	-0.620	-0.580
2020/01/31 20:33:43.7	6.730	0.030	-0.610	-0.470
2020/01/31 20:33:43.8	6.720	0.070	-0.610	-0.420
2020/01/31 20:33:43.9				
2020/01/31 20:33:44.0	6.690	0.100	-0.600	-0.350
2020/01/31 20:33:44.1	6.670	0.130	-0.590	-0.300
2020/01/31 20:33:44.2	6.650	0.160	-0.580	-0.240
2020/01/31 20:33:44.3	6.600	0.220	-0.560	-0.120
2020/01/31 20:33:44.4	6.580	0.240	-0.540	-0.070
2020/01/31 20:33:44.5	6.550	0.260	-0.530	-0.010
2020/01/31 20:33:44.6				
2020/01/31 20:33:44.7	6.530	0.280	-0.510	0.040
2020/01/31 20:33:44.8	6.500	0.300	-0.500	0.090
2020/01/31 20:33:44.9	6.470	0.310	-0.480	0.140
2020/01/31 20:33:45.0	6.420	0.320	-0.450	0.240
2020/01/31 20:33:45.1	6.400	0.330	-0.440	0.280
2020/01/31 20:33:45.2	6.370	0.330	-0.420	0.320
2020/01/31 20:33:45.3	6.350	0.330	-0.400	0.350
2020/01/31 20:33:45.4	6.320	0.330	-0.390	0.390
2020/01/31 20:33:45.5				
2020/01/31 20:33:45.6	6.300	0.320	-0.370	0.420
2020/01/31 20:33:45.7	6.260	0.300	-0.350	0.460
2020/01/31 20:33:45.8	6.240	0.290	-0.330	0.480
2020/01/31 20:33:45.9				
2020/01/31 20:33:46.0	6.210	0.280	-0.320	0.490
2020/01/31 20:33:46.1	6.200	0.260	-0.300	0.500
2020/01/31 20:33:46.2	6.180	0.250	-0.290	0.510
2020/01/31 20:33:46.3	6.170	0.230	-0.280	0.510
2020/01/31 20:33:46.4	6.160	0.220	-0.270	0.500
2020/01/31 20:33:46.5	6.150	0.200	-0.260	0.490
2020/01/31 20:33:46.6	6.150	0.180	-0.250	0.470
2020/01/31 20:33:46.7	6.140	0.150	-0.230	0.430
2020/01/31 20:33:46.8	6.150	0.140	-0.220	0.410
2020/01/31 20:33:46.9				
2020/01/31 20:33:47.0	6.150	0.130	-0.210	0.380
2020/01/31 20:33:47.1	6.170	0.100	-0.200	0.320
2020/01/31 20:33:47.2	6.180	0.090	-0.190	0.280
2020/01/31 20:33:47.3	6.200	0.090	-0.190	0.250
2020/01/31 20:33:47.4	6.220	0.080	-0.180	0.210
2020/01/31 20:33:47.5				
2020/01/31 20:33:47.6	6.240	0.080	-0.180	0.180
2020/01/31 20:33:47.7	6.260	0.070	-0.170	0.140
2020/01/31 20:33:47.8	6.320	0.070	-0.150	0.070
2020/01/31 20:33:47.9				
2020/01/31 20:33:48.0	6.350	0.080	-0.140	0.040
2020/01/31 20:33:48.1	6.370	0.080	-0.130	0.010
2020/01/31 20:33:48.2	6.430	0.080	-0.100	-0.050
2020/01/31 20:33:48.3	6.460	0.090	-0.080	-0.080
2020/01/31 20:33:48.4	6.490	0.090	-0.060	-0.100
2020/01/31 20:33:48.5	6.510	0.090	-0.040	-0.130
2020/01/31 20:33:48.6	6.540	0.100	-0.020	-0.150
2020/01/31 20:33:48.7	6.560	0.100	0.010	-0.170
2020/01/31 20:33:48.8				
2020/01/31 20:33:48.9	6.590	0.100	0.030	-0.180
2020/01/31 20:33:49.0				
2020/01/31 20:33:49.1	6.610	0.100	0.080	-0.200
2020/01/31 20:33:49.2	6.630	0.090	0.110	-0.210
2020/01/31 20:33:49.3	6.640	0.090	0.130	-0.210
2020/01/31 20:33:49.4	6.650	0.080	0.160	-0.210
2020/01/31 20:33:49.5	6.660	0.070	0.180	-0.210
2020/01/31 20:33:49.6	6.660	0.060	0.200	-0.210
2020/01/31 20:33:49.7	6.670	0.050	0.220	-0.200
2020/01/31 20:33:49.8	6.660	0.020	0.260	-0.180
2020/01/31 20:33:49.9				
2020/01/31 20:33:50.0	6.660	0.010	0.260	-0.170
2020/01/31 20:33:50.1	6.650	-0.010	0.270	-0.150
2020/01/31 20:33:50.2	6.640	-0.030	0.280	-0.140
2020/01/31 20:33:50.3	6.630	-0.050	0.280	-0.120
2020/01/31 20:33:50.4	6.610	-0.080	0.270	-0.110
2020/01/31 20:33:50.5				
2020/01/31 20:33:50.6	6.580	-0.120	0.250	-0.090
2020/01/31 20:33:50.7	6.540	-0.170	0.200	-0.070
2020/01/31 20:33:50.8				
2020/01/31 20:33:50.9	6.530	-0.190	0.170	-0.060
2020/01/31 20:33:51.0	6.500	-0.230	0.090	-0.050
2020/01/31 20:33:51.1				
2020/01/31 20:33:51.2	6.490	-0.250	0.040	-0.060
2020/01/31 20:33:51.3	6.460	-0.280	-0.070	-0.070
2020/01/31 20:33:51.4				
2020/01/31 20:33:51.5	6.450	-0.300	-0.130	-0.080
2020/01/31 20:33:51.6	6.440	-0.310	-0.190	-0.100
2020/01/31 20:33:51.7	6.440	-0.320	-0.260	-0.120
2020/01/31 20:33:51.8	6.430	-0.330	-0.400	-0.170
2020/01/31 20:33:51.9				
2020/01/31 20:33:52.0	6.440	-0.330	-0.480	-0.210
2020/01/31 20:33:52.1	6.440	-0.320	-0.620	-0.270
2020/01/31 20:33:52.2	6.440	-0.320	-0.690	-0.310
2020/01/31 20:33:52.3	6.450	-0.310	-0.760	-0.350
2020/01/31 20:33:52.4				
2020/01/31 20:33:52.5	6.450	-0.300	-0.830	-0.390
2020/01/31 20:33:52.6	6.460	-0.280	-0.890	-0.430
2020/01/31 20:33:52.7	6.460	-0.270	-0.950	-0.470
2020/01/31 20:33:52.8	6.470	-0.250	-1.000	-0.510
2020/01/31 20:33:52.9	6.480	-0.230	-1.050	-0.560
2020/01/31 20:33:53.0	6.500	-0.180	-1.130	-0.630
2020/01/31 20:33:53.1	6.520	-0.160	-1.150	-0.670
2020/01/31 20:33:53.2				
2020/01/31 20:33:53.3	6.530	-0.130	-1.170	-0.700
2020/01/31 20:33:53.4	6.540	-0.110	-1.180	-0.730
2020/01/31 20:33:53.5	6.550	-0.080	-1.190	-0.760
2020/01/31 20:33:53.6	6.560	-0.050	-1.180	-0.790
2020/01/31 20:33:53.7	6.580	-0.030	-1.170	-0.810
2020/01/31 20:33:53.8	6.590	-0.000	-1.150	-0.830
2020/01/31 20:33:53.9	6.600	0.020	-1.110	-0.840
2020/01/31 20:33:54.0	6.630	0.050	-1.070	-0.850
2020/01/31 20:33:54.1	6.640	0.070	-1.030	-0.850
2020/01/31 20:33:54.2	6.650	0.090	-0.970	-0.850
2020/01/31 20:33:54.3	6.650	0.110	-0.910	-0.840
2020/01/31 20:33:54.4	6.660	0.120	-0.840	-0.830
2020/01/31 20:33:54.5	6.660	0.140	-0.770	-0.810
2020/01/31 20:33:54.6	6.660	0.150	-0.680	-0.780
2020/01/31 20:33:54.7	6.650	0.170	-0.510	-0.720
2020/01/31 20:33:54.8	6.640	0.170	-0.410	-0.680
2020/01/31 20:33:54.9				
2020/01/31 20:33:55.0	6.610	0.170	-0.320	-0.630
2020/01/31 20:33:55.1	6.590	0.170	-0.220	-0.590
2020/01/31 20:33:55.2	6.570	0.170	-0.110	-0.540
2020/01/31 20:33:55.3	6.560	0.160	-0.010	-0.490
2020/01/31 20:33:55.4	6.530	0.160	0.090	-0.430
2020/01/31 20:33:55.5	6.480	0.130	0.280	-0.320
2020/01/31 20:33:55.6	6.460	0.120	0.370	-0.270
2020/01/31 20:33:55.7	6.430	0.100	0.460	-0.210
2020/01/31 20:33:55.8				
2020/01/31 20:33:55.9	6.400	0.090	0.540	-0.150
2020/01/31 20:33:56.0	6.370	0.070	0.610	-0.100
2020/01/31 20:33:56.1	6.340	0.050	0.680	-0.050
2020/01/31 20:33:56.2	6.280	0.010	0.790	0.050
2020/01/31 20:33:56.3	6.260	-0.010	0.840	0.100
2020/01/31 20:33:56.4	6.230	-0.020	0.870	0.150
2020/01/31 20:33:56.5	6.210	-0.040	0.890	0.190
2020/01/31 20:33:56.6	6.180	-0.050	0.910	0.230
2020/01/31 20:33:56.7	6.160	-0.070	0.910	0.270
2020/01/31 20:33:56.8	6.140	-0.080	0.900	0.300
2020/01/31 20:33:56.9				
2020/01/31 20:33:57.0	6.120	-0.080	0.880	0.330
2020/01/31 20:33:57.1	6.110	-0.090	0.850	0.360
2020/01/31 20:33:57.2	6.090	-0.090	0.820	0.380
2020/01/31 20:33:57.3	6.080	-0.090	0.770	0.400
2020/01/31 20:33:57.4	6.070	-0.090	0.710	0.420
2020/01/31 20:33:57.5	6.060	-0.080	0.640	0.430
2020/01/31 20:33:57.6	6.060	-0.070	0.560	0.440
2020/01/31 20:33:57.7	6.060	-0.060	0.480	0.440
2020/01/31 20:33:57.8	6.060	-0.040	0.390	0.440
2020/01/31 20:33:57.9	6.060	-0.020	0.290	0.430
2020/01/31 20:33:58.0	6.060	0.020	0.080	0.420
2020/01/31 20:33:58.1	6.070	0.050	-0.030	0.400
2020/01/31 20:33:58.2	6.080	0.080	-0.140	0.390
2020/01/31 20:33:58.3	6.090	0.110	-0.250	0.370
2020/01/31 20:33:58.4				
2020/01/31 20:33:58.5	6.100	0.140	-0.360	0.340
2020/01/31 20:33:58.6	6.110	0.170	-0.470	0.320
2020/01/31 20:33:58.7	6.130	0.200	-0.580	0.290
2020/01/31 20:33:58.8	6.140	0.230	-0.690	0.260
2020/01/31 20:33:58.9	6.160	0.260	-0.790	0.230
2020/01/31 20:33:59.0	6.170	0.290	-0.880	0.190
2020/01/31 20:33:59.1	6.190	0.320	-0.970	0.160
2020/01/31 20:33:59.2	6.200	0.350	-1.060	0.120
2020/01/31 20:33:59.3	6.220	0.370	-1.130	0.080
2020/01/31 20:33:59.4	6.230	0.390	-1.200	0.050
2020/01/31 20:33:59.5	6.250	0.410	-1.260	0.010
2020/01/31 20:33:59.6	6.260	0.430	-1.310	-0.030
2020/01/31 20:33:59.7				
2020/01/31 20:33:59.8	6.280	0.450	-1.380	-0.100
2020/01/31 20:33:59.9	6.300	0.450	-1.410	-0.130
2020/01/31 20:34:00.0	6.350	0.440	-1.420	-0.200
2020/01/31 20:34:00.1				
2020/01/31 20:34:00.2	6.360	0.430	-1.420	-0.230
2020/01/31 20:34:00.3	6.380	0.400	-1.380	-0.300
2020/01/31 20:34:00.4				
2020/01/31 20:34:00.5	6.390	0.380	-1.350	-0.330
2020/01/31 20:34:00.6	6.410	0.350	-1.310	-0.360
2020/01/31 20:34:00.7	6.420	0.320	-1.270	-0.390
2020/01/31 20:34:00.8	6.430	0.290	-1.210	-0.420
2020/01/31 20:34:00.9	6.450	0.250	-1.150	-0.450
2020/01/31 20:34:01.0	6.470	0.210	-1.090	-0.480
2020/01/31 20:34:01.1	6.480	0.160	-1.020	-0.510
2020/01/31 20:34:01.2	6.500	0.120	-0.950	-0.540
2020/01/31 20:34:01.3	6.510	0.070	-0.880	-0.570
2020/01/31 20:34:01.4	6.530	0.020	-0.800	-0.610
2020/01/31 20:34:01.5	6.550	-0.030	-0.720	-0.640
2020/01/31 20:34:01.6	6.560	-0.080	-0.640	-0.670
2020/01/31 20:34:01.7	6.580	-0.130	-0.560	-0.700
2020/01/31 20:34:01.8	6.600	-0.190	-0.470	-0.730
2020/01/31 20:34:01.9	6.610	-0.240	-0.390	-0.760
2020/01/31 20:34:02.0	6.630	-0.290	-0.310	-0.790
2020/01/31 20:34:02.1				
2020/01/31 20:34:02.2	6.660	-0.380	-0.140	-0.830
2020/01/31 20:34:02.3	6.660	-0.430	-0.060	-0.840
2020/01/31 20:34:02.4	6.670	-0.470	0.020	-0.850
2020/01/31 20:34:02.5	6.670	-0.510	0.100	-0.860
2020/01/31 20:34:02.6	6.670	-0.550	0.180	-0.850
2020/01/31 20:34:02.7	6.670	-0.580	0.250	-0.850
2020/01/31 20:34:02.8	6.670	-0.610	0.320	-0.840
2020/01/31 20:34:02.9				
2020/01/31 20:34:03.0	6.630	-0.650	0.450	-0.800
2020/01/31 20:34:03.1	6.620	-0.670	0.520	-0.770
2020/01/31 20:34:03.2	6.610	-0.680	0.570	-0.740
2020/01/31 20:34:03.3	6.590	-0.680	0.620	-0.700
2020/01/31 20:34:03.4	6.580	-0.680	0.670	-0.660
2020/01/31 20:34:03.5	6.560	-0.680	0.710	-0.610
2020/01/31 20:34:03.6	6.540	-0.670	0.750	-0.570
2020/01/31 20:34:03.7	6.520	-0.660	0.780	-0.520
2020/01/31 20:34:03.8	6.500	-0.640	0.800	-0.470
2020/01/31 20:34:03.9	6.480	-0.620	0.820	-0.420
2020/01/31 20:34:04.0	6.450	-0.590	0.820	-0.370
2020/01/31 20:34:04.1	6.420	-0.560	0.820	-0.320
2020/01/31 20:34:04.2	6.400	-0.530	0.810	-0.270
2020/01/31 20:34:04.3	6.380	-0.490	0.800	-0.220
2020/01/31 20:34:04.4	6.350	-0.450	0.770	-0.160
2020/01/31 20:34:04.5	6.330	-0.400	0.740	-0.120
2020/01/31 20:34:04.6	6.310	-0.360	0.700	-0.070
2020/01/31 20:34:04.7	6.280	-0.310	0.660	-0.020
2020/01/31 20:34:04.8	6.250	-0.260	0.600	0.030
2020/01/31 20:34:04.9	6.230	-0.210	0.550	0.070
2020/01/31 20:34:05.0	6.170	-0.100	0.410	0.160
2020/01/31 20:34:05.1				
2020/01/31 20:34:05.2	6.140	-0.050	0.340	0.200
2020/01/31 20:34:05.3	6.090	0.060	0.190	0.270
2020/01/31 20:34:05.4				
2020/01/31 20:34:05.5	6.070	0.110	0.110	0.310
2020/01/31 20:34:05.6	6.050	0.160	0.030	0.340
2020/01/31 20:34:05.7	6.030	0.210	-0.050	0.370
2020/01/31 20:34:05.8	6.010	0.250	-0.140	0.400
2020/01/31 20:34:05.9	5.990	0.300	-0.220	0.420
2020/01/31 20:34:06.0	6.000	0.340	-0.300	0.450
2020/01/31 20:34:06.1	5.980	0.380	-0.370	0.470
2020/01/31 20:34:06.2	5.980	0.420	-0.450	0.480
2020/01/31 20:34:06.3	5.970	0.450	-0.520	0.500
2020/01/31 20:34:06.4	5.960	0.480	-0.590	0.510
2020/01/31 20:34:06.5	5.960	0.510	-0.660	0.510
2020/01/31 20:34:06.6	5.960	0.540	-0.720	0.510
2020/01/31 20:34:06.7	5.970	0.560	-0.780	0.510
2020/01/31 20:34:06.8	5.970	0.580	-0.840	0.500
2020/01/31 20:34:06.9	5.980	0.600	-0.890	0.490
2020/01/31 20:34:07.0	5.980	0.610	-0.940	0.480
2020/01/31 20:34:07.1	6.000	0.620	-1.010	0.450
2020/01/31 20:34:07.2				
2020/01/31 20:34:07.3	6.020	0.630	-1.050	0.420
2020/01/31 20:34:07.4				
2020/01/31 20:34:07.5	6.050	0.630	-1.090	0.370
2020/01/31 20:34:07.6	6.070	0.620	-1.100	0.340
2020/01/31 20:34:07.7	6.080	0.610	-1.110	0.300
2020/01/31 20:34:07.8	6.100	0.600	-1.110	0.270
2020/01/31 20:34:07.9				
2020/01/31 20:34:08.0	6.160	0.580	-1.100	0.190
2020/01/31 20:34:08.1	6.180	0.560	-1.080	0.160
2020/01/31 20:34:08.2	6.200	0.540	-1.060	0.120
2020/01/31 20:34:08.3	6.210	0.520	-1.030	0.080
2020/01/31 20:34:08.4	6.230	0.490	-1.000	0.040
2020/01/31 20:34:08.5	6.250	0.470	-0.960	0.010
2020/01/31 20:34:08.6	6.260	0.440	-0.920	-0.030
2020/01/31 20:34:08.7	6.270	0.410	-0.870	-0.060
2020/01/31 20:34:08.8	6.280	0.380	-0.810	-0.090
2020/01/31 20:34:08.9	6.290	0.350	-0.750	-0.120
2020/01/31 20:34:09.0	6.300	0.310	-0.700	-0.150
2020/01/31 20:34:09.1	6.300	0.280	-0.630	-0.170
2020/01/31 20:34:09.2	6.310	0.240	-0.560	-0.190
2020/01/31 20:34:09.3	6.310	0.200	-0.490	-0.210
2020/01/31 20:34:09.4	6.310	0.160	-0.420	-0.230
2020/01/31 20:34:09.5	6.310	0.120	-0.350	-0.250
2020/01/31 20:34:09.6	6.310	0.080	-0.280	-0.260
2020/01/31 20:34:09.7	6.310	0.040	-0.210	-0.270
2020/01/31 20:34:09.8	6.300	-0.000	-0.140	-0.280
2020/01/31 20:34:09.9	6.300	-0.050	-0.070	-0.290
2020/01/31 20:34:10.0	6.280	-0.090	-0.000	-0.300
2020/01/31 20:34:10.1	6.270	-0.130	0.060	-0.310
2020/01/31 20:34:10.2				
2020/01/31 20:34:10.3	6.260	-0.220	0.180	-0.320
2020/01/31 20:34:10.4	6.250	-0.260	0.230	-0.320
2020/01/31 20:34:10.5	6.240	-0.300	0.270	-0.330
2020/01/31 20:34:10.6	6.230	-0.330	0.320	-0.330
2020/01/31 20:34:10.7	6.220	-0.370	0.350	-0.340
2020/01/31 20:34:10.8	6.210	-0.410	0.380	-0.340
2020/01/31 20:34:10.9	6.200	-0.440	0.400	-0.340
2020/01/31 20:34:11.0	6.180	-0.470	0.420	-0.350
2020/01/31 20:34:11.1	6.170	-0.500	0.430	-0.350
2020/01/31 20:34:11.2	6.160	-0.520	0.440	-0.360
2020/01/31 20:34:11.3	6.150	-0.550	0.440	-0.360
2020/01/31 20:34:11.4	6.140	-0.570	0.430	-0.360
2020/01/31 20:34:11.5	6.130	-0.580	0.420	-0.360
2020/01/31 20:34:11.6	6.120	-0.600	0.400	-0.360
2020/01/31 20:34:11.7	6.110	-0.610	0.380	-0.350
2020/01/31 20:34:11.8	6.100	-0.620	0.360	-0.350
2020/01/31 20:34:11.9	6.090	-0.620	0.330	-0.340
2020/01/31 20:34:12.0	6.080	-0.620	0.290	-0.330
2020/01/31 20:34:12.1	6.070	-0.620	0.260	-0.320
2020/01/31 20:34:12.2	6.060	-0.610	0.220	-0.310
2020/01/31 20:34:12.3	6.050	-0.610	0.180	-0.290
2020/01/31 20:34:12.4	6.040	-0.590	0.140	-0.280
2020/01/31 20:34:12.5	6.030	-0.580	0.090	-0.260
2020/01/31 20:34:12.6	6.020	-0.560	0.050	-0.240
2020/01/31 20:34:12.7	6.010	-0.540	0.000	-0.220
2020/01/31 20:34:12.8	6.000	-0.520	-0.040	-0.210
2020/01/31 20:34:12.9	5.990	-0.490	-0.080	-0.190
2020/01/31 20:34:13.0	5.990	-0.460	-0.130	-0.160
2020/01/31 20:34:13.1	5.990	-0.430	-0.170	-0.140
2020/01/31 20:34:13.2	5.980	-0.400	-0.210	-0.130
2020/01/31 20:34:13.3	5.980	-0.360	-0.250	-0.110
2020/01/31 20:34:13.4	5.980	-0.330	-0.290	-0.090
2020/01/31 20:34:13.5	5.980	-0.290	-0.330	-0.070
2020/01/31 20:34:13.6	5.980	-0.250	-0.370	-0.060
2020/01/31 20:34:13.7	5.980	-0.210	-0.400	-0.040
2020/01/31 20:34:13.8	5.990	-0.180	-0.440	-0.030
2020/01/31 20:34:13.9	6.000	-0.140	-0.470	-0.010
2020/01/31 20:34:14.0	6.020	-0.090	-0.510	-0.000
2020/01/31 20:34:14.1	6.030	-0.050	-0.540	0.010
2020/01/31 20:34:14.2	6.040	-0.010	-0.570	0.020
2020/01/31 20:34:14.3	6.060	0.030	-0.600	0.020
2020/01/31 20:34:14.4	6.080	0.060	-0.630	0.030
2020/01/31 20:34:14.5	6.100	0.100	-0.660	0.040
2020/01/31 20:34:14.6	6.120	0.140	-0.680	0.040
2020/01/31 20:34:14.7	6.140	0.170	-0.710	0.040
2020/01/31 20:34:14.8	6.160	0.210	-0.730	0.050
2020/01/31 20:34:14.9	6.190	0.240	-0.750	0.050
2020/01/31 20:34:15.0	6.230	0.270	-0.770	0.050
2020/01/31 20:34:15.1	6.250	0.300	-0.790	0.050
2020/01/31 20:34:15.2	6.280	0.320	-0.800	0.050
2020/01/31 20:34:15.3	6.310	0.340	-0.810	0.040
2020/01/31 20:34:15.4	6.330	0.360	-0.820	0.040
2020/01/31 20:34:15.5	6.360	0.380	-0.830	0.040
2020/01/31 20:34:15.6	6.390	0.390	-0.840	0.030
2020/01/31 20:34:15.7	6.410	0.400	-0.840	0.030
2020/01/31 20:34:15.8	6.440	0.410	-0.830	0.020
2020/01/31 20:34:15.9	6.460	0.410	-0.830	0.010
2020/01/31 20:34:16.0	6.480	0.410	-0.820	0.010
2020/01/31 20:34:16.1	6.510	0.410	-0.810	-0.000
2020/01/31 20:34:16.2	6.530	0.410	-0.790	-0.010
2020/01/31 20:34:16.3	6.550	0.400	-0.780	-0.020
2020/01/31 20:34:16.4	6.570	0.390	-0.750	-0.030
2020/01/31 20:34:16.5	6.580	0.380	-0.730	-0.040
2020/01/31 20:34:16.6	6.600	0.360	-0.690	-0.060
2020/01/31 20:34:16.7	6.610	0.350	-0.660	-0.070
2020/01/31 20:34:16.8	6.620	0.330	-0.620	-0.080
2020/01/31 20:34:16.9	6.630	0.300	-0.580	-0.090
2020/01/31 20:34:17.0	6.630	0.280	-0.540	-0.100
2020/01/31 20:34:17.1	6.630	0.260	-0.490	-0.110
2020/01/31 20:34:17.2	6.640	0.230	-0.440	-0.120
2020/01/31 20:34:17.3	6.640	0.200	-0.390	-0.130
2020/01/31 20:34:17.4	6.640	0.170	-0.330	-0.140
2020/01/31 20:34:17.5	6.640	0.140	-0.270	-0.150
2020/01/31 20:34:17.6	6.630	0.110	-0.210	-0.150
2020/01/31 20:34:17.7	6.630	0.080	-0.150	-0.160
2020/01/31 20:34:17.8	6.620	0.050	-0.090	-0.160
2020/01/31 20:34:17.9	6.610	0.020	-0.030	-0.160
2020/01/31 20:34:18.0	6.610	-0.010	0.030	-0.160
2020/01/31 20:34:18.1	6.600	-0.040	0.090	-0.160
2020/01/31 20:34:18.2	6.580	-0.070	0.150	-0.160
2020/01/31 20:34:18.3	6.560	-0.100	0.210	-0.160
2020/01/31 20:34:18.4	6.550	-0.130	0.270	-0.160
2020/01/31 20:34:18.5	6.520	-0.160	0.320	-0.160
2020/01/31 20:34:18.6	6.500	-0.190	0.380	-0.160
2020/01/31 20:34:18.7	6.470	-0.210	0.430	-0.160
2020/01/31 20:34:18.8	6.450	-0.240	0.470	-0.150
2020/01/31 20:34:18.9	6.420	-0.260	0.520	-0.150
2020/01/31 20:34:19.0	6.370	-0.280	0.550	-0.140
2020/01/31 20:34:19.1	6.340	-0.300	0.590	-0.140
2020/01/31 20:34:19.2	6.300	-0.320	0.620	-0.130
2020/01/31 20:34:19.3	6.270	-0.330	0.640	-0.120
2020/01/31 20:34:19.4	6.230	-0.350	0.660	-0.120
2020/01/31 20:34:19.5	6.190	-0.360	0.670	-0.110
2020/01/31 20:34:19.6	6.150	-0.360	0.680	-0.100
2020/01/31 20:34:19.7	6.110	-0.370	0.680	-0.090
2020/01/31 20:34:19.8	6.070	-0.370	0.670	-0.080
2020/01/31 20:34:19.9	6.020	-0.370	0.660	-0.070
2020/01/31 20:34:20.0	5.970	-0.360	0.640	-0.060
2020/01/31 20:34:20.1	5.930	-0.350	0.620	-0.060
2020/01/31 20:34:20.2	5.890	-0.340	0.590	-0.050
2020/01/31 20:34:20.3	5.850	-0.330	0.550	-0.040
2020/01/31 20:34:20.4	5.810	-0.310	0.510	-0.030
2020/01/31 20:34:20.5	5.770	-0.290	0.470	-0.030
2020/01/31 20:34:20.6	5.730	-0.270	0.420	-0.020
2020/01/31 20:34:20.7	5.690	-0.240	0.370	-0.010
2020/01/31 20:34:20.8	5.650	-0.210	0.310	-0.010
2020/01/31 20:34:20.9	5.620	-0.180	0.240	-0.000
2020/01/31 20:34:21.0	5.590	-0.140	0.170	-0.000
2020/01/31 20:34:21.1	5.560	-0.100	0.100	0.000
2020/01/31 20:34:21.2	5.530	-0.060	0.030	0.010
2020/01/31 20:34:21.3	5.500	-0.020	-0.040	0.010
2020/01/31 20:34:21.4	5.480	0.030	-0.120	0.020
2020/01/31 20:34:21.5	5.460	0.080	-0.190	0.020
2020/01/31 20:34:21.6	5.440	0.120	-0.270	0.020
2020/01/31 20:34:21.7	5.430	0.170	-0.350	0.030
2020/01/31 20:34:21.8	5.420	0.220	-0.430	0.030
2020/01/31 20:34:21.9	5.410	0.270	-0.500	0.030
2020/01/31 20:34:22.0	5.430	0.320	-0.570	0.040
2020/01/31 20:34:22.1	5.430	0.370	-0.650	0.040
2020/01/31 20:34:22.2	5.440	0.420	-0.720	0.040
2020/01/31 20:34:22.3	5.450	0.470	-0.790	0.040
2020/01/31 20:34:22.4	5.460	0.510	-0.850	0.040
2020/01/31 20:34:22.5	5.470	0.550	-0.910	0.040
2020/01/31 20:34:22.6	5.490	0.590	-0.970	0.040
2020/01/31 20:34:22.7	5.520	0.630	-1.020	0.040
2020/01/31 20:34:22.8	5.540	0.660	-1.070	0.030
2020/01/31 20:34:22.9	5.570	0.690	-1.110	0.030
2020/01/31 20:34:23.0	5.600	0.710	-1.150	0.020
2020/01/31 20:34:23.1	5.630	0.730	-1.180	0.010
2020/01/31 20:34:23.2	5.670	0.740	-1.200	0.000
2020/01/31 20:34:23.3	5.710	0.750	-1.220	-0.010
2020/01/31 20:34:23.4	5.740	0.750	-1.230	-0.020
2020/01/31 20:34:23.5	5.780	0.750	-1.230	-0.030
2020/01/31 20:34:23.6	5.820	0.740	-1.230	-0.050
2020/01/31 20:34:23.7	5.860	0.730	-1.220	-0.060
2020/01/31 20:34:23.8	5.900	0.710	-1.210	-0.080
2020/01/31 20:34:23.9	5.940	0.690	-1.180	-0.090
2020/01/31 20:34:24.0	5.990	0.650	-1.160	-0.110
2020/01/31 20:34:24.1	6.020	0.620	-1.120	-0.130
2020/01/31 20:34:24.2	6.060	0.580	-1.080	-0.140
2020/01/31 20:34:24.3	6.100	0.530	-1.030	-0.160
2020/01/31 20:34:24.4	6.140	0.480	-0.980	-0.170
2020/01/31 20:34:24.5	6.170	0.430	-0.920	-0.190
2020/01/31 20:34:24.6	6.200	0.370	-0.860	-0.200
2020/01/31 20:34:24.7	6.230	0.310	-0.790	-0.220
2020/01/31 20:34:24.8	6.260	0.250	-0.720	-0.230
2020/01/31 20:34:24.9	6.280	0.180	-0.650	-0.240
2020/01/31 20:34:25.0	6.310	0.110	-0.570	-0.250
2020/01/31 20:34:25.1	6.330	0.040	-0.490	-0.250
2020/01/31 20:34:25.2	6.340	-0.030	-0.410	-0.260
2020/01/31 20:34:25.3	6.360	-0.100	-0.330	-0.270
2020/01/31 20:34:25.4	6.370	-0.180	-0.250	-0.270
2020/01/31 20:34:25.5	6.380	-0.250	-0.170	-0.280
2020/01/31 20:34:25.6	6.390	-0.320	-0.090	-0.280
2020/01/31 20:34:25.7	6.390	-0.390	-0.010	-0.290
2020/01/31 20:34:25.8	6.390	-0.460	0.060	-0.290
2020/01/31 20:34:25.9	6.390	-0.530	0.130	-0.290
2020/01/31 20:34:26.0	6.390	-0.590	0.200	-0.290
2020/01/31 20:34:26.1	6.380	-0.650	0.260	-0.290
2020/01/31 20:34:26.2	6.380	-0.710	0.320	-0.290
2020/01/31 20:34:26.3	6.370	-0.760	0.370	-0.290
2020/01/31 20:34:26.4	6.360	-0.810	0.420	-0.290
2020/01/31 20:34:26.5	6.350	-0.860	0.460	-0.290
2020/01/31 20:34:26.6	6.340	-0.890	0.490	-0.280
2020/01/31 20:34:26.7	6.320	-0.930	0.520	-0.280
2020/01/31 20:34:26.8	6.300	-0.950	0.540	-0.280
2020/01/31 20:34:26.9	6.280	-0.970	0.550	-0.270
2020/01/31 20:34:27.0	6.250	-0.990	0.560	-0.270
2020/01/31 20:34:27.1	6.230	-1.000	0.560	-0.260
2020/01/31 20:34:27.2	6.200	-1.000	0.550	-0.250
2020/01/31 20:34:27.3	6.180	-0.990	0.540	-0.240
2020/01/31 20:34:27.4	6.150	-0.980	0.520	-0.230
2020/01/31 20:34:27.5	6.120	-0.970	0.490	-0.220
2020/01/31 20:34:27.6	6.090	-0.940	0.460	-0.210
2020/01/31 20:34:27.7	6.060	-0.910	0.430	-0.200
2020/01/31 20:34:27.8	6.030	-0.870	0.380	-0.190
2020/01/31 20:34:27.9	5.990	-0.830	0.340	-0.170
2020/01/31 20:34:28.0	5.960	-0.780	0.290	-0.160
2020/01/31 20:34:28.1	5.930	-0.730	0.230	-0.140
2020/01/31 20:34:28.2	5.900	-0.670	0.180	-0.130
2020/01/31 20:34:28.3	5.870	-0.610	0.120	-0.110
2020/01/31 20:34:28.4	5.840	-0.540	0.060	-0.090
2020/01/31 20:34:28.5	5.820	-0.470	-0.010	-0.080
2020/01/31 20:34:28.6	5.800	-0.400	-0.070	-0.060
2020/01/31 20:34:28.7	5.770	-0.320	-0.130	-0.040
2020/01/31 20:34:28.8	5.750	-0.240	-0.200	-0.020
2020/01/31 20:34:28.9	5.740	-0.160	-0.260	-0.000
2020/01/31 20:34:29.0	5.730	-0.090	-0.320	0.020
2020/01/31 20:34:29.1	5.710	-0.010	-0.380	0.040
2020/01/31 20:34:29.2	5.700	0.070	-0.430	0.060
2020/01/31 20:34:29.3	5.690	0.150	-0.490	0.090
2020/01/31 20:34:29.4	5.690	0.230	-0.530	0.110
2020/01/31 20:34:29.5	5.680	0.300	-0.580	0.130
2020/01/31 20:34:29.6	5.680	0.380	-0.610	0.160
2020/01/31 20:34:29.7	5.670	0.440	-0.640	0.190
2020/01/31 20:34:29.8	5.670	0.510	-0.670	0.210
2020/01/31 20:34:29.9	5.660	0.570	-0.690	0.240
2020/01/31 20:34:30.0	5.680	0.620	-0.700	0.280
2020/01/31 20:34:30.1	5.670	0.670	-0.700	0.310
2020/01/31 20:34:30.2	5.670	0.710	-0.700	0.340
2020/01/31 20:34:30.3	5.660	0.750	-0.690	0.370
2020/01/31 20:34:30.4	5.660	0.780	-0.670	0.410
2020/01/31 20:34:30.5	5.650	0.810	-0.640	0.440
2020/01/31 20:34:30.6	5.640	0.830	-0.610	0.470
2020/01/31 20:34:30.7	5.630	0.840	-0.570	0.500
2020/01/31 20:34:30.8	5.630	0.840	-0.530	0.540
2020/01/31 20:34:30.9	5.620	0.840	-0.480	0.570
2020/01/31 20:34:31.0	5.620	0.830	-0.430	0.600
2020/01/31 20:34:31.1	5.610	0.820	-0.370	0.620
2020/01/31 20:34:31.2	5.600	0.800	-0.310	0.650
2020/01/31 20:34:31.3	5.590	0.770	-0.250	0.670
2020/01/31 20:34:31.4	5.590	0.740	-0.180	0.680
2020/01/31 20:34:31.5	5.580	0.700	-0.120	0.700
2020/01/31 20:34:31.6	5.580	0.660	-0.060	0.710
2020/01/31 20:34:31.7	5.580	0.610	-0.000	0.710
2020/01/31 20:34:31.8	5.570	0.560	0.050	0.710
2020/01/31 20:34:31.9	5.580	0.510	0.100	0.700
2020/01/31 20:34:32.0	5.570	0.450	0.140	0.690
2020/01/31 20:34:32.1	5.580	0.400	0.180	0.670
2020/01/31 20:34:32.2	5.580	0.340	0.220	0.650
2020/01/31 20:34:32.3	5.590	0.280	0.240	0.620
2020/01/31 20:34:32.4	5.600	0.220	0.270	0.590
2020/01/31 20:34:32.5	5.600	0.150	0.280	0.560
2020/01/31 20:34:32.6	5.610	0.090	0.290	0.520
2020/01/31 20:34:32.7	5.620	0.030	0.280	0.470
2020/01/31 20:34:32.8	5.630	-0.020	0.270	0.430
2020/01/31 20:34:32.9	5.640	-0.080	0.260	0.380
2020/01/31 20:34:33.0	5.640	-0.130	0.230	0.320
2020/01/31 20:34:33.1	5.660	-0.180	0.200	0.270
2020/01/31 20:34:33.2	5.670	-0.230	0.160	0.210
2020/01/31 20:34:33.3	5.680	-0.270	0.110	0.150
2020/01/31 20:34:33.4	5.690	-0.310	0.050	0.090
2020/01/31 20:34:33.5	5.700	-0.340	-0.010	0.020
2020/01/31 20:34:33.6	5.710	-0.370	-0.070	-0.040
2020/01/31 20:34:33.7	5.730	-0.400	-0.140	-0.100
2020/01/31 20:34:33.8	5.740	-0.420	-0.220	-0.170
2020/01/31 20:34:33.9	5.750	-0.430	-0.290	-0.230
2020/01/31 20:34:34.0	5.780	-0.440	-0.370	-0.290
2020/01/31 20:34:34.1	5.790	-0.450	-0.450	-0.350
2020/01/31 20:34:34.2	5.810	-0.440	-0.530	-0.410
2020/01/31 20:34:34.3	5.820	-0.440	-0.610	-0.470
2020/01/31 20:34:34.4	5.840	-0.430	-0.690	-0.520
2020/01/31 20:34:34.5	5.850	-0.410	-0.770	-0.570
2020/01/31 20:34:34.6	5.870	-0.390	-0.840	-0.620
2020/01/31 20:34:34.7	5.880	-0.370	-0.910	-0.660
2020/01/31 20:34:34.8	5.900	-0.350	-0.970	-0.700
2020/01/31 20:34:34.9	5.910	-0.320	-1.030	-0.740
2020/01/31 20:34:35.0	5.950	-0.280	-1.070	-0.770
2020/01/31 20:34:35.1	5.960	-0.250	-1.120	-0.800
2020/01/31 20:34:35.2	5.980	-0.210	-1.150	-0.820
2020/01/31 20:34:35.3	5.990	-0.170	-1.170	-0.830
2020/01/31 20:34:35.4	6.010	-0.130	-1.190	-0.840
2020/01/31 20:34:35.5	6.020	-0.090	-1.200	-0.840
2020/01/31 20:34:35.6	6.040	-0.040	-1.190	-0.840
2020/01/31 20:34:35.7	6.060	0.000	-1.180	-0.830
2020/01/31 20:34:35.8	6.070	0.040	-1.160	-0.820
2020/01/31 20:34:35.9	6.090	0.090	-1.130	-0.800
2020/01/31 20:34:36.0	6.110	0.130	-1.100	-0.770
2020/01/31 20:34:36.1	6.120	0.170	-1.050	-0.740
2020/01/31 20:34:36.2	6.140	0.210	-1.000	-0.710
2020/01/31 20:34:36.3	6.160	0.250	-0.940	-0.670
2020/01/31 20:34:36.4	6.180	0.280	-0.870	-0.630
2020/01/31 20:34:36.5	6.200	0.310	-0.800	-0.590
2020/01/31 20:34:36.6	6.220	0.340	-0.720	-0.540
2020/01/31 20:34:36.7	6.240	0.370	-0.640	-0.500
2020/01/31 20:34:36.8	6.260	0.390	-0.550	-0.450
2020/01/31 20:34:36.9	6.270	0.410	-0.460	-0.390
2020/01/31 20:34:37.0	6.290	0.430	-0.370	-0.340
2020/01/31 20:34:37.1	6.300	0.440	-0.280	-0.280
2020/01/31 20:34:37.2	6.320	0.440	-0.180	-0.230
2020/01/31 20:34:37.3	6.330	0.450	-0.090	-0.170
2020/01/31 20:34:37.4	6.340	0.450	0.000	-0.120
2020/01/31 20:34:37.5	6.350	0.440	0.090	-0.060
2020/01/31 20:34:37.6	6.360	0.430	0.170	-0.010
2020/01/31 20:34:37.7	6.360	0.420	0.260	0.040
2020/01/31 20:34:37.8	6.370	0.400	0.330	0.100
2020/01/31 20:34:37.9	6.370	0.380	0.410	0.150
2020/01/31 20:34:38.0	6.360	0.360	0.470	0.210
2020/01/31 20:34:38.1	6.360	0.330	0.530	0.260
2020/01/31 20:34:38.2	6.360	0.290	0.580	0.300
2020/01/31 20:34:38.3	6.360	0.260	0.630	0.350
2020/01/31 20:34:38.4	6.360	0.220	0.670	0.390
2020/01/31 20:34:38.5	6.350	0.180	0.700	0.420
2020/01/31 20:34:38.6	6.350	0.140	0.720	0.460
2020/01/31 20:34:38.7	6.340	0.100	0.740	0.490
2020/01/31 20:34:38.8	6.340	0.050	0.750	0.510
2020/01/31 20:34:38.9	6.330	0.000	0.750	0.530
2020/01/31 20:34:39.0	6.310	-0.040	0.740	0.540
2020/01/31 20:34:39.1	6.300	-0.090	0.720	0.550
2020/01/31 20:34:39.2	6.290	-0.140	0.700	0.550
2020/01/31 20:34:39.3	6.290	-0.180	0.670	0.550
2020/01/31 20:34:39.4	6.280	-0.230	0.630	0.540
2020/01/31 20:34:39.5	6.270	-0.270	0.590	0.520
2020/01/31 20:34:39.6	6.270	-0.320	0.540	0.500
2020/01/31 20:34:39.7	6.260	-0.360	0.480	0.480
2020/01/31 20:34:39.8	6.250	-0.390	0.430	0.450
2020/01/31 20:34:39.9	6.250	-0.430	0.360	0.420
2020/01/31 20:34:40.0	6.250	-0.460	0.300	0.380
2020/01/31 20:34:40.1	6.250	-0.490	0.230	0.340
2020/01/31 20:34:40.2	6.250	-0.520	0.170	0.300
2020/01/31 20:34:40.3	6.240	-0.540	0.100	0.260
2020/01/31 20:34:40.4	6.240	-0.560	0.030	0.220
2020/01/31 20:34:40.5	6.240	-0.570	-0.030	0.180
2020/01/31 20:34:40.6	6.240	-0.580	-0.100	0.140
2020/01/31 20:34:40.7	6.240	-0.590	-0.160	0.090
2020/01/31 20:34:40.8	6.240	-0.590	-0.220	0.050
2020/01/31 20:34:40.9	6.250	-0.590	-0.280	0.020
2020/01/31 20:34:41.0	6.250	-0.580	-0.330	-0.020
2020/01/31 20:34:41.1	6.250	-0.570	-0.380	-0.060
2020/01/31 20:34:41.2	6.250	-0.560	-0.430	-0.090
2020/01/31 20:34:41.3	6.250	-0.540	-0.470	-0.120
2020/01/31 20:34:41.4	6.250	-0.520	-0.500	-0.150
2020/01/31 20:34:41.5	6.250	-0.500	-0.540	-0.170
2020/01/31 20:34:41.6	6.250	-0.470	-0.560	-0.200
2020/01/31 20:34:41.7	6.250	-0.450	-0.580	-0.210
2020/01/31 20:34:41.8	6.250	-0.410	-0.600	-0.230
2020/01/31 20:34:41.9	6.250	-0.380	-0.610	-0.250
2020/01/31 20:34:42.0	6.230	-0.350	-0.630	-0.260
2020/01/31 20:34:42.1	6.230	-0.310	-0.630	-0.270
2020/01/31 20:34:42.2	6.220	-0.270	-0.630	-0.270
2020/01/31 20:34:42.3	6.220	-0.230	-0.630	-0.280
2020/01/31 20:34:42.4	6.210	-0.190	-0.620	-0.280
2020/01/31 20:34:42.5	6.210	-0.150	-0.620	-0.280
2020/01/31 20:34:42.6	6.200	-0.110	-0.610	-0.280
2020/01/31 20:34:42.7	6.200	-0.080	-0.590	-0.270
2020/01/31 20:34:42.8	6.190	-0.040	-0.580	-0.270
2020/01/31 20:34:42.9	6.190	0.000	-0.570	-0.260
2020/01/31 20:34:43.0	6.180	0.040	-0.550	-0.250
2020/01/31 20:34:43.1	6.180	0.080	-0.540	-0.240
2020/01/31 20:34:43.2	6.170	0.120	-0.520	-0.230
2020/01/31 20:34:43.3	6.170	0.150	-0.510	-0.220
2020/01/31 20:34:43.4	6.170	0.190	-0.500	-0.200
2020/01/31 20:34:43.5	6.170	0.220	-0.490	-0.190
2020/01/31 20:34:43.6	6.180	0.250	-0.480	-0.180
2020/01/31 20:34:43.7	6.180	0.280	-0.470	-0.170
2020/01/31 20:34:43.8	6.180	0.310	-0.470	-0.150
2020/01/31 20:34:43.9	6.190	0.340	-0.470	-0.140
2020/01/31 20:34:44.0	6.190	0.360	-0.470	-0.130
2020/01/31 20:34:44.1	6.200	0.390	-0.470	-0.110
2020/01/31 20:34:44.2	6.210	0.410	-0.480	-0.100
2020/01/31 20:34:44.3	6.220	0.430	-0.490	-0.090
2020/01/31 20:34:44.4	6.230	0.450	-0.500	-0.080
2020/01/31 20:34:44.5	6.240	0.470	-0.510	-0.070
2020/01/31 20:34:44.6	6.250	0.480	-0.520	-0.060
2020/01/31 20:34:44.7	6.260	0.500	-0.540	-0.050
2020/01/31 20:34:44.8	6.280	0.510	-0.550	-0.050
2020/01/31 20:34:44.9	6.300	0.520	-0.570	-0.040
2020/01/31 20:34:45.0	6.310	0.530	-0.590	-0.040
2020/01/31 20:34:45.1	6.330	0.540	-0.610	-0.040
2020/01/31 20:34:45.2	6.350	0.550	-0.630	-0.030
2020/01/31 20:34:45.3	6.370	0.560	-0.650	-0.030
2020/01/31 20:34:45.4	6.390	0.560	-0.670	-0.040
2020/01/31 20:34:45.5	6.410	0.570	-0.690	-0.040
2020/01/31 20:34:45.6	6.440	0.570	-0.710	-0.040
2020/01/31 20:34:45.7	6.460	0.570	-0.720	-0.050
2020/01/31 20:34:45.8	6.490	0.570	-0.740	-0.060
2020/01/31 20:34:45.9	6.510	0.570	-0.750	-0.060
2020/01/31 20:34:46.0	6.550	0.560	-0.750	-0.070
2020/01/31 20:34:46.1	6.570	0.560	-0.760	-0.080
2020/01/31 20:34:46.2	6.590	0.550	-0.760	-0.090
2020/01/31 20:34:46.3	6.610	0.540	-0.750	-0.100
2020/01/31 20:34:46.4	6.630	0.520	-0.740	-0.110
2020/01/31 20:34:46.5	6.640	0.510	-0.730	-0.120
2020/01/31 20:34:46.6	6.650	0.490	-0.710	-0.130
2020/01/31 20:34:46.7	6.660	0.470	-0.690	-0.140
2020/01/31 20:34:46.8	6.670	0.450	-0.660	-0.150
2020/01/31 20:34:46.9	6.670	0.420	-0.630	-0.160
2020/01/31 20:34:47.0	6.680	0.390	-0.590	-0.170
2020/01/31 20:34:47.1	6.670	0.360	-0.550	-0.180
2020/01/31 20:34:47.2	6.660	0.330	-0.500	-0.180
2020/01/31 20:34:47.3	6.650	0.290	-0.450	-0.190
2020/01/31 20:34:47.4	6.640	0.250	-0.400	-0.190
2020/01/31 20:34:47.5	6.620	0.210	-0.340	-0.200
2020/01/31 20:34:47.6	6.600	0.170	-0.280	-0.200
2020/01/31 20:34:47.7	6.570	0.120	-0.210	-0.200
2020/01/31 20:34:47.8	6.550	0.070	-0.150	-0.200
2020/01/31 20:34:47.9	6.520	0.020	-0.080	-0.200
2020/01/31 20:34:48.0	6.480	-0.030	-0.010	-0.200
2020/01/31 20:34:48.1	6.450	-0.080	0.060	-0.210
2020/01/31 20:34:48.2	6.420	-0.140	0.130	-0.210
2020/01/31 20:34:48.3	6.390	-0.190	0.200	-0.210
2020/01/31 20:34:48.4	6.360	-0.250	0.270	-0.220
2020/01/31 20:34:48.5	6.320	-0.300	0.330	-0.230
2020/01/31 20:34:48.6	6.290	-0.350	0.400	-0.240
2020/01/31 20:34:48.7	6.260	-0.410	0.450	-0.250
2020/01/31 20:34:48.8	6.230	-0.460	0.510	-0.260
2020/01/31 20:34:48.9	6.210	-0.510	0.560	-0.280
2020/01/31 20:34:49.0	6.190	-0.560	0.610	-0.290
2020/01/31 20:34:49.1	6.160	-0.600	0.650	-0.310
2020/01/31 20:34:49.2	6.140	-0.640	0.680	-0.340
2020/01/31 20:34:49.3	6.130	-0.680	0.700	-0.360
2020/01/31 20:34:49.4	6.110	-0.720	0.720	-0.390
2020/01/31 20:34:49.5	6.100	-0.750	0.730	-0.420
2020/01/31 20:34:49.6	6.090	-0.770	0.740	-0.450
2020/01/31 20:34:49.7	6.080	-0.800	0.730	-0.480
2020/01/31 20:34:49.8	6.080	-0.810	0.720	-0.510
2020/01/31 20:34:49.9	6.070	-0.820	0.710	-0.540
2020/01/31 20:34:50.0	6.070	-0.830	0.680	-0.570
2020/01/31 20:34:50.1	6.080	-0.830	0.650	-0.600
2020/01/31 20:34:50.2	6.080	-0.830	0.610	-0.630
2020/01/31 20:34:50.3	6.080	-0.820	0.570	-0.650
2020/01/31 20:34:50.4	6.090	-0.810	0.520	-0.680
2020/01/31 20:34:50.5	6.090	-0.790	0.470	-0.700
2020/01/31 20:34:50.6	6.100	-0.760	0.410	-0.720
2020/01/31 20:34:50.7	6.110	-0.740	0.350	-0.730
2020/01/31 20:34:50.8	6.110	-0.700	0.290	-0.740
2020/01/31 20:34:50.9	6.120	-0.670	0.230	-0.750
2020/01/31 20:34:51.0	6.110	-0.630	0.160	-0.760
2020/01/31 20:34:51.1	6.110	-0.580	0.100	-0.760
2020/01/31 20:34:51.2	6.120	-0.540	0.030	-0.760
2020/01/31 20:34:51.3	6.120	-0.490	-0.040	-0.750
2020/01/31 20:34:51.4	6.120	-0.440	-0.100	-0.740
2020/01/31 20:34:51.5	6.130	-0.380	-0.170	-0.730
2020/01/31 20:34:51.6	6.130	-0.330	-0.230	-0.710
2020/01/31 20:34:51.7	6.130	-0.270	-0.290	-0.690
2020/01/31 20:34:51.8	6.130	-0.220	-0.350	-0.670
2020/01/31 20:34:51.9	6.130	-0.160	-0.410	-0.650
2020/01/31 20:34:52.0	6.130	-0.110	-0.470	-0.610
2020/01/31 20:34:52.1	6.130	-0.050	-0.520	-0.590
2020/01/31 20:34:52.2	6.130	0.010	-0.570	-0.560
2020/01/31 20:34:52.3	6.130	0.060	-0.630	-0.530
2020/01/31 20:34:52.4	6.130	0.110	-0.670	-0.500
2020/01/31 20:34:52.5	6.130	0.170	-0.720	-0.470
2020/01/31 20:34:52.6	6.130	0.220	-0.770	-0.430
2020/01/31 20:34:52.7	6.140	0.260	-0.810	-0.400
2020/01/31 20:34:52.8	6.140	0.310	-0.850	-0.370
2020/01/31 20:34:52.9	6.140	0.350	-0.890	-0.340
2020/01/31 20:34:53.0	6.150	0.390	-0.930	-0.300
2020/01/31 20:34:53.1	6.150	0.430	-0.960	-0.270
2020/01/31 20:34:53.2	6.160	0.460	-0.990	-0.240
2020/01/31 20:34:53.3	6.160	0.500	-1.020	-0.200
2020/01/31 20:34:53.4	6.170	0.520	-1.050	-0.170
2020/01/31 20:34:53.5	6.170	0.550	-1.070	-0.140
2020/01/31 20:34:53.6	6.170	0.570	-1.080	-0.110
2020/01/31 20:34:53.7	6.170	0.580	-1.090	-0.070
2020/01/31 20:34:53.8	6.170	0.600	-1.100	-0.040
2020/01/31 20:34:53.9	6.170	0.610	-1.100	-0.010
2020/01/31 20:34:54.0	6.170	0.610	-1.100	0.020
2020/01/31 20:34:54.1	6.170	0.610	-1.080	0.050
2020/01/31 20:34:54.2	6.160	0.610	-1.070	0.080
2020/01/31 20:34:54.3	6.150	0.600	-1.040	0.110
2020/01/31 20:34:54.4	6.150	0.590	-1.020	0.130
2020/01/31 20:34:54.5	6.140	0.580	-0.980	0.150
2020/01/31 20:34:54.6	6.130	0.570	-0.940	0.180
2020/01/31 20:34:54.7	6.120	0.550	-0.900	0.200
2020/01/31 20:34:54.8	6.110	0.530	-0.840	0.220
2020/01/31 20:34:54.9	6.100	0.500	-0.790	0.230
2020/01/31 20:34:55.0	6.100	0.480	-0.730	0.250
2020/01/31 20:34:55.1	6.090	0.450	-0.670	0.260
2020/01/31 20:34:55.2	6.070	0.420	-0.600	0.270
2020/01/31 20:34:55.3	6.060	0.390	-0.530	0.290
2020/01/31 20:34:55.4	6.050	0.360	-0.450	0.290
2020/01/31 20:34:55.5	6.050	0.330	-0.380	0.300
2020/01/31 20:34:55.6	6.040	0.300	-0.300	0.310
2020/01/31 20:34:55.7	6.030	0.270	-0.220	0.320
2020/01/31 20:34:55.8	6.020	0.240	-0.140	0.320
2020/01/31 20:34:55.9	6.020	0.210	-0.070	0.320
2020/01/31 20:34:56.0	6.020	0.180	0.010	0.330
2020/01/31 20:34:56.1	6.020	0.150	0.090	0.330
2020/01/31 20:34:56.2	6.010	0.120	0.160	0.330
2020/01/31 20:34:56.3	6.010	0.090	0.230	0.330
2020/01/31 20:34:56.4	6.000	0.070	0.300	0.330
2020/01/31 20:34:56.5	6.000	0.040	0.360	0.330
2020/01/31 20:34:56.6	6.000	0.010	0.420	0.330
2020/01/31 20:34:56.7	5.990	-0.010	0.480	0.330
2020/01/31 20:34:56.8	5.990	-0.040	0.530	0.320
2020/01/31 20:34:56.9	5.980	-0.060	0.570	0.320
2020/01/31 20:34:57.0	5.970	-0.080	0.610	0.310
2020/01/31 20:34:57.1	5.960	-0.110	0.640	0.310
2020/01/31 20:34:57.2	5.950	-0.130	0.670	0.300
2020/01/31 20:34:57.3	5.950	-0.150	0.690	0.290
2020/01/31 20:34:57.4	5.940	-0.170	0.700	0.270
2020/01/31 20:34:57.5	5.930	-0.190	0.710	0.260
2020/01/31 20:34:57.6	5.920	-0.210	0.710	0.240
2020/01/31 20:34:57.7	5.910	-0.230	0.700	0.220
2020/01/31 20:34:57.8	5.900	-0.250	0.680	0.200
2020/01/31 20:34:57.9	5.890	-0.270	0.660	0.180
2020/01/31 20:34:58.0	5.870	-0.290	0.630	0.160
2020/01/31 20:34:58.1	5.860	-0.310	0.590	0.130
2020/01/31 20:34:58.2	5.850	-0.320	0.550	0.110
2020/01/31 20:34:58.3	5.840	-0.340	0.500	0.080
2020/01/31 20:34:58.4	5.830	-0.350	0.450	0.050
2020/01/31 20:34:58.5	5.830	-0.360	0.390	0.020
2020/01/31 20:34:58.6	5.820	-0.380	0.320	-0.010
2020/01/31 20:34:58.7	5.820	-0.390	0.250	-0.050
2020/01/31 20:34:58.8	5.810	-0.390	0.170	-0.080
2020/01/31 20:34:58.9	5.810	-0.400	0.090	-0.120
2020/01/31 20:34:59.0	5.810	-0.410	0.010	-0.160
2020/01/31 20:34:59.1	5.810	-0.410	-0.070	-0.200
2020/01/31 20:34:59.2	5.820	-0.410	-0.160	-0.240
2020/01/31 20:34:59.3	5.830	-0.410	-0.250	-0.290
2020/01/31 20:34:59.4	5.840	-0.400	-0.350	-0.330
2020/01/31 20:34:59.5	5.850	-0.400	-0.440	-0.380
2020/01/31 20:34:59.6	5.870	-0.390	-0.530	-0.420
2020/01/31 20:34:59.7	5.880	-0.380	-0.620	-0.470
2020/01/31 20:34:59.8	5.900	-0.360	-0.710	-0.520
2020/01/31 20:34:59.9	5.920	-0.340	-0.790	-0.560
2020/01/31 20:35:00.0	5.950	-0.320	-0.870	-0.610
2020/01/31 20:35:00.1	5.970	-0.300	-0.950	-0.650
2020/01/31 20:35:00.2	5.990	-0.280	-1.020	-0.690
2020/01/31 20:35:00.3	6.020	-0.250	-1.080	-0.730
2020/01/31 20:35:00.4	6.040	-0.220	-1.130	-0.760
2020/01/31 20:35:00.5	6.070	-0.190	-1.180	-0.790
2020/01/31 20:35:00.6	6.090	-0.160	-1.220	-0.810
2020/01/31 20:35:00.7	6.110	-0.130	-1.240	-0.830
2020/01/31 20:35:00.8	6.130	-0.090	-1.260	-0.840
2020/01/31 20:35:00.9	6.160	-0.060	-1.270	-0.850
2020/01/31 20:35:01.0	6.180	-0.020	-1.270	-0.850
2020/01/31 20:35:01.1	6.200	0.020	-1.260	-0.840
2020/01/31 20:35:01.2	6.220	0.060	-1.240	-0.830
2020/01/31 20:35:01.3	6.230	0.100	-1.210	-0.810
2020/01/31 20:35:01.4	6.250	0.130	-1.170	-0.790
2020/01/31 20:35:01.5	6.260	0.170	-1.120	-0.760
2020/01/31 20:35:01.6	6.270	0.200	-1.070	-0.720
2020/01/31 20:35:01.7	6.280	0.240	-1.010	-0.680
2020/01/31 20:35:01.8	6.290	0.270	-0.940	-0.640
2020/01/31 20:35:01.9	6.290	0.300	-0.870	-0.590
2020/01/31 20:35:02.0	6.300	0.330	-0.790	-0.540
2020/01/31 20:35:02.1	6.300	0.350	-0.710	-0.480
2020/01/31 20:35:02.2	6.300	0.370	-0.630	-0.420
2020/01/31 20:35:02.3	6.300	0.390	-0.540	-0.360
2020/01/31 20:35:02.4	6.290	0.410	-0.450	-0.300
2020/01/31 20:35:02.5	6.280	0.420	-0.360	-0.240
2020/01/31 20:35:02.6	6.270	0.430	-0.280	-0.170
2020/01/31 20:35:02.7	6.260	0.430	-0.190	-0.110
2020/01/31 20:35:02.8	6.250	0.430	-0.110	-0.050
2020/01/31 20:35:02.9	6.230	0.430	-0.030	0.020
2020/01/31 20:35:03.0	6.210	0.430	0.050	0.090
2020/01/31 20:35:03.1	6.190	0.420	0.120	0.150
2020/01/31 20:35:03.2	6.170	0.400	0.180	0.210
2020/01/31 20:35:03.3	6.150	0.390	0.240	0.270
2020/01/31 20:35:03.4	6.130	0.370	0.300	0.320
2020/01/31 20:35:03.5	6.110	0.350	0.340	0.370
2020/01/31 20:35:03.6	6.090	0.330	0.380	0.420
2020/01/31 20:35:03.7	6.060	0.300	0.410	0.460
2020/01/31 20:35:03.8	6.040	0.280	0.440	0.500
2020/01/31 20:35:03.9	6.020	0.250	0.450	0.530
2020/01/31 20:35:04.0	6.010	0.220	0.450	0.550
2020/01/31 20:35:04.1	5.990	0.190	0.450	0.570
2020/01/31 20:35:04.2	5.970	0.160	0.440	0.580
2020/01/31 20:35:04.3	5.960	0.130	0.420	0.590
2020/01/31 20:35:04.4	5.950	0.100	0.400	0.590
2020/01/31 20:35:04.5	5.940	0.070	0.360	0.580
2020/01/31 20:35:04.6	5.930	0.040	0.320	0.570
2020/01/31 20:35:04.7	5.920	0.020	0.280	0.550
2020/01/31 20:35:04.8	5.920	-0.010	0.220	0.530
2020/01/31 20:35:04.9	5.920	-0.030	0.170	0.500
2020/01/31 20:35:05.0	5.930	-0.050	0.100	0.460
2020/01/31 20:35:05.1	5.930	-0.070	0.040	0.430
2020/01/31 20:35:05.2	5.940	-0.090	-0.030	0.390
2020/01/31 20:35:05.3	5.950	-0.100	-0.100	0.350
2020/01/31 20:35:05.4	5.970	-0.110	-0.180	0.300
2020/01/31 20:35:05.5	5.980	-0.120	-0.250	0.250
2020/01/31 20:35:05.6	6.000	-0.130	-0.320	0.200
2020/01/31 20:35:05.7	6.020	-0.130	-0.390	0.160
2020/01/31 20:35:05.8	6.050	-0.130	-0.460	0.110
2020/01/31 20:35:05.9	6.070	-0.130	-0.530	0.060
2020/01/31 20:35:06.0	6.110	-0.130	-0.590	0.000
2020/01/31 20:35:06.1	6.130	-0.120	-0.640	-0.050
2020/01/31 20:35:06.2	6.160	-0.110	-0.690	-0.100
2020/01/31 20:35:06.3	6.190	-0.100	-0.740	-0.150
2020/01/31 20:35:06.4	6.220	-0.100	-0.780	-0.190
2020/01/31 20:35:06.5	6.250	-0.090	-0.810	-0.240
2020/01/31 20:35:06.6	6.280	-0.070	-0.830	-0.280
2020/01/31 20:35:06.7	6.310	-0.060	-0.850	-0.320
2020/01/31 20:35:06.8	6.330	-0.050	-0.850	-0.360
2020/01/31 20:35:06.9	6.360	-0.040	-0.850	-0.390
2020/01/31 20:35:07.0	6.380	-0.030	-0.840	-0.420
2020/01/31 20:35:07.1	6.400	-0.020	-0.820	-0.450
2020/01/31 20:35:07.2	6.420	-0.020	-0.800	-0.470
2020/01/31 20:35:07.3	6.430	-0.010	-0.760	-0.490
2020/01/31 20:35:07.4	6.440	-0.010	-0.720	-0.500
2020/01/31 20:35:07.5	6.450	-0.010	-0.670	-0.510
2020/01/31 20:35:07.6	6.460	-0.010	-0.610	-0.520
2020/01/31 20:35:07.7	6.460	-0.010	-0.550	-0.520
2020/01/31 20:35:07.8	6.460	-0.010	-0.480	-0.520
2020/01/31 20:35:07.9	6.460	-0.020	-0.400	-0.510
2020/01/31 20:35:08.0	6.460	-0.030	-0.330	-0.510
2020/01/31 20:35:08.1	6.450	-0.040	-0.250	-0.500
2020/01/31 20:35:08.2	6.440	-0.050	-0.160	-0.490
2020/01/31 20:35:08.3	6.430	-0.060	-0.080	-0.470
2020/01/31 20:35:08.4	6.410	-0.080	-0.000	-0.460
2020/01/31 20:35:08.5	6.400	-0.100	0.080	-0.440
2020/01/31 20:35:08.6	6.390	-0.120	0.150	-0.430
2020/01/31 20:35:08.7	6.370	-0.140	0.220	-0.410
2020/01/31 20:35:08.8	6.360	-0.160	0.290	-0.400
2020/01/31 20:35:08.9	6.350	-0.180	0.350	-0.380
2020/01/31 20:35:09.0	6.330	-0.200	0.400	-0.370
2020/01/31 20:35:09.1	6.320	-0.220	0.450	-0.350
2020/01/31 20:35:09.2	6.310	-0.240	0.490	-0.340
2020/01/31 20:35:09.3	6.300	-0.260	0.520	-0.330
2020/01/31 20:35:09.4	6.300	-0.270	0.540	-0.320
2020/01/31 20:35:09.5	6.290	-0.290	0.550	-0.310
2020/01/31 20:35:09.6	6.290	-0.300	0.560	-0.300
2020/01/31 20:35:09.7	6.280	-0.310	0.550	-0.300
2020/01/31 20:35:09.8	6.280	-0.320	0.540	-0.290
2020/01/31 20:35:09.9	6.280	-0.320	0.510	-0.290
2020/01/31 20:35:10.0	6.270	-0.320	0.480	-0.290
2020/01/31 20:35:10.1	6.270	-0.320	0.440	-0.280
2020/01/31 20:35:10.2	6.270	-0.310	0.400	-0.280
2020/01/31 20:35:10.3	6.270	-0.300	0.340	-0.280
2020/01/31 20:35:10.4	6.270	-0.280	0.290	-0.270
2020/01/31 20:35:10.5	6.270	-0.270	0.230	-0.270
2020/01/31 20:35:10.6	6.270	-0.250	0.160	-0.270
2020/01/31 20:35:10.7	6.270	-0.220	0.090	-0.260
2020/01/31 20:35:10.8	6.270	-0.190	0.020	-0.250
2020/01/31 20:35:10.9	6.270	-0.160	-0.050	-0.240
2020/01/31 20:35:11.0	6.270	-0.130	-0.130	-0.240
2020/01/31 20:35:11.1	6.270	-0.090	-0.200	-0.230
2020/01/31 20:35:11.2	6.270	-0.050	-0.270	-0.210
2020/01/31 20:35:11.3	6.280	-0.020	-0.340	-0.200
2020/01/31 20:35:11.4	6.280	0.030	-0.400	-0.180
2020/01/31 20:35:11.5	6.280	0.070	-0.460	-0.170
2020/01/31 20:35:11.6	6.280	0.110	-0.520	-0.150
2020/01/31 20:35:11.7	6.280	0.150	-0.570	-0.130
2020/01/31 20:35:11.8	6.280	0.190	-0.620	-0.110
2020/01/31 20:35:11.9	6.280	0.230	-0.660	-0.090
2020/01/31 20:35:12.0	6.300	0.270	-0.700	-0.050
2020/01/31 20:35:12.1	6.290	0.310	-0.730	-0.030
2020/01/31 20:35:12.2	6.290	0.340	-0.760	-0.000
2020/01/31 20:35:12.3	6.290	0.380	-0.780	0.020
2020/01/31 20:35:12.4	6.290	0.410	-0.790	0.050
2020/01/31 20:35:12.5	6.280	0.430	-0.800	0.080
2020/01/31 20:35:12.6	6.280	0.450	-0.800	0.110
2020/01/31 20:35:12.7	6.270	0.470	-0.790	0.130
2020/01/31 20:35:12.8	6.270	0.490	-0.780	0.160
2020/01/31 20:35:12.9	6.260	0.500	-0.770	0.190
2020/01/31 20:35:13.0	6.260	0.500	-0.750	0.210
2020/01/31 20:35:13.1	6.260	0.500	-0.720	0.240
2020/01/31 20:35:13.2	6.250	0.500	-0.690	0.260
2020/01/31 20:35:13.3	6.240	0.490	-0.660	0.280
2020/01/31 20:35:13.4	6.230	0.480	-0.630	0.290
2020/01/31 20:35:13.5	6.210	0.460	-0.590	0.310
2020/01/31 20:35:13.6	6.200	0.440	-0.550	0.320
2020/01/31 20:35:13.7	6.190	0.410	-0.510	0.330
2020/01/31 20:35:13.8	6.180	0.380	-0.470	0.330
2020/01/31 20:35:13.9	6.170	0.350	-0.430	0.330
2020/01/31 20:35:14.0	6.150	0.310	-0.390	0.330
2020/01/31 20:35:14.1	6.140	0.280	-0.350	0.320
2020/01/31 20:35:14.2	6.140	0.230	-0.310	0.310
2020/01/31 20:35:14.3	6.130	0.190	-0.270	0.290
2020/01/31 20:35:14.4	6.120	0.150	-0.240	0.270
2020/01/31 20:35:14.5	6.110	0.100	-0.210	0.250
2020/01/31 20:35:14.6	6.100	0.050	-0.180	0.220
2020/01/31 20:35:14.7	6.100	0.010	-0.150	0.190
2020/01/31 20:35:14.8	6.090	-0.040	-0.130	0.150
2020/01/31 20:35:14.9	6.080	-0.090	-0.120	0.110
2020/01/31 20:35:15.0	6.070	-0.140	-0.100	0.070
2020/01/31 20:35:15.1	6.070	-0.180	-0.100	0.030
2020/01/31 20:35:15.2	6.070	-0.220	-0.090	-0.020
2020/01/31 20:35:15.3	6.070	-0.260	-0.090	-0.070
2020/01/31 20:35:15.4	6.070	-0.300	-0.100	-0.110
2020/01/31 20:35:15.5	6.070	-0.340	-0.110	-0.160
2020/01/31 20:35:15.6	6.070	-0.370	-0.120	-0.210
2020/01/31 20:35:15.7	6.080	-0.390	-0.140	-0.270
2020/01/31 20:35:15.8	6.080	-0.420	-0.160	-0.320
2020/01/31 20:35:15.9	6.090	-0.430	-0.180	-0.370
2020/01/31 20:35:16.0	6.100	-0.450	-0.210	-0.420
2020/01/31 20:35:16.1	6.120	-0.460	-0.240	-0.470
2020/01/31 20:35:16.2	6.130	-0.460	-0.280	-0.510
2020/01/31 20:35:16.3	6.140	-0.460	-0.320	-0.560
2020/01/31 20:35:16.4	6.160	-0.450	-0.350	-0.600
2020/01/31 20:35:16.5	6.180	-0.440	-0.390	-0.640
2020/01/31 20:35:16.6	6.200	-0.420	-0.430	-0.680
2020/01/31 20:35:16.7	6.220	-0.400	-0.470	-0.710
2020/01/31 20:35:16.8	6.240	-0.380	-0.520	-0.740
2020/01/31 20:35:16.9	6.270	-0.350	-0.550	-0.760
2020/01/31 20:35:17.0	6.290	-0.310	-0.590	-0.780
2020/01/31 20:35:17.1	6.310	-0.280	-0.630	-0.800
2020/01/31 20:35:17.2	6.330	-0.240	-0.660	-0.810
2020/01/31 20:35:17.3	6.360	-0.200	-0.690	-0.810
2020/01/31 20:35:17.4	6.380	-0.150	-0.710	-0.810
2020/01/31 20:35:17.5	6.400	-0.110	-0.730	-0.810
2020/01/31 20:35:17.6	6.430	-0.060	-0.750	-0.800
2020/01/31 20:35:17.7	6.450	-0.010	-0.760	-0.790
2020/01/31 20:35:17.8	6.470	0.030	-0.770	-0.770
2020/01/31 20:35:17.9	6.500	0.080	-0.770	-0.750
2020/01/31 20:35:18.0	6.520	0.120	-0.770	-0.730
2020/01/31 20:35:18.1	6.550	0.170	-0.760	-0.710
2020/01/31 20:35:18.2	6.570	0.210	-0.750	-0.680
2020/01/31 20:35:18.3	6.590	0.240	-0.730	-0.650
2020/01/31 20:35:18.4	6.620	0.280	-0.710	-0.620
2020/01/31 20:35:18.5	6.640	0.310	-0.680	-0.590
2020/01/31 20:35:18.6	6.660	0.340	-0.640	-0.550
2020/01/31 20:35:18.7	6.680	0.360	-0.600	-0.510
2020/01/31 20:35:18.8	6.700	0.380	-0.560	-0.480
2020/01/31 20:35:18.9	6.710	0.400	-0.520	-0.440
2020/01/31 20:35:19.0	6.720	0.410	-0.470	-0.390
2020/01/31 20:35:19.1	6.730	0.410	-0.410	-0.360
2020/01/31 20:35:19.2	6.750	0.410	-0.360	-0.320
2020/01/31 20:35:19.3	6.750	0.410	-0.300	-0.280
2020/01/31 20:35:19.4	6.760	0.400	-0.230	-0.240
2020/01/31 20:35:19.5	6.770	0.380	-0.170	-0.200
2020/01/31 20:35:19.6	6.770	0.370	-0.110	-0.160
2020/01/31 20:35:19.7	6.770	0.340	-0.040	-0.120
2020/01/31 20:35:19.8	6.770	0.320	0.020	-0.080
2020/01/31 20:35:19.9	6.760	0.290	0.080	-0.050
2020/01/31 20:35:20.0	6.760	0.260	0.140	-0.010
2020/01/31 20:35:20.1	6.750	0.220	0.200	0.020
2020/01/31 20:35:20.2	6.740	0.180	0.260	0.060
2020/01/31 20:35:20.3	6.730	0.140	0.310	0.090
2020/01/31 20:35:20.4	6.720	0.100	0.360	0.120
2020/01/31 20:35:20.5	6.710	0.060	0.410	0.140
2020/01/31 20:35:20.6	6.700	0.020	0.450	0.170
2020/01/31 20:35:20.7	6.690	-0.030	0.490	0.190
2020/01/31 20:35:20.8	6.670	-0.070	0.520	0.210
2020/01/31 20:35:20.9	6.660	-0.110	0.550	0.230
2020/01/31 20:35:21.0	6.650	-0.150	0.570	0.250
2020/01/31 20:35:21.1	6.630	-0.190	0.590	0.270
2020/01/31 20:35:21.2	6.620	-0.220	0.600	0.280
2020/01/31 20:35:21.3	6.600	-0.250	0.600	0.290
2020/01/31 20:35:21.4	6.580	-0.280	0.600	0.300
2020/01/31 20:35:21.5	6.570	-0.310	0.600	0.310
2020/01/31 20:35:21.6	6.550	-0.340	0.590	0.320
2020/01/31 20:35:21.7	6.530	-0.360	0.570	0.320
2020/01/31 20:35:21.8	6.510	-0.370	0.560	0.320
2020/01/31 20:35:21.9	6.490	-0.390	0.530	0.320
2020/01/31 20:35:22.0	6.470	-0.390	0.510	0.320
2020/01/31 20:35:22.1	6.450	-0.400	0.470	0.320
2020/01/31 20:35:22.2	6.430	-0.400	0.440	0.320
2020/01/31 20:35:22.3	6.410	-0.400	0.410	0.310
2020/01/31 20:35:22.4	6.380	-0.390	0.370	0.310
2020/01/31 20:35:22.5	6.360	-0.390	0.330	0.300
2020/01/31 20:35:22.6	6.330	-0.370	0.290	0.290
2020/01/31 20:35:22.7	6.310	-0.360	0.240	0.280
2020/01/31 20:35:22.8	6.280	-0.340	0.200	0.270
2020/01/31 20:35:22.9	6.260	-0.320	0.160	0.260
2020/01/31 20:35:23.0	6.240	-0.300	0.110	0.250
2020/01/31 20:35:23.1	6.220	-0.270	0.070	0.240
2020/01/31 20:35:23.2	6.190	-0.250	0.030	0.220
2020/01/31 20:35:23.3	6.170	-0.220	-0.020	0.210
2020/01/31 20:35:23.4	6.150	-0.190	-0.060	0.190
2020/01/31 20:35:23.5	6.130	-0.160	-0.100	0.170
2020/01/31 20:35:23.6	6.110	-0.130	-0.150	0.160
2020/01/31 20:35:23.7	6.090	-0.100	-0.190	0.140
2020/01/31 20:35:23.8	6.070	-0.080	-0.230	0.120
2020/01/31 20:35:23.9	6.060	-0.050	-0.270	0.100
2020/01/31 20:35:24.0	6.050	-0.020	-0.320	0.070
2020/01/31 20:35:24.1	6.030	0.010	-0.360	0.050
2020/01/31 20:35:24.2	6.020	0.030	-0.400	0.030
2020/01/31 20:35:24.3	6.010	0.060	-0.440	0.010
2020/01/31 20:35:24.4	6.010	0.080	-0.480	-0.020
2020/01/31 20:35:24.5	6.000	0.100	-0.520	-0.040
2020/01/31 20:35:24.6	5.990	0.110	-0.560	-0.070
2020/01/31 20:35:24.7	5.990	0.130	-0.590	-0.100
2020/01/31 20:35:24.8	5.990	0.140	-0.630	-0.130
2020/01/31 20:35:24.9	5.990	0.160	-0.660	-0.160
2020/01/31 20:35:25.0	5.990	0.160	-0.700	-0.190
2020/01/31 20:35:25.1	5.990	0.170	-0.730	-0.220
2020/01/31 20:35:25.2	5.990	0.170	-0.760	-0.260
2020/01/31 20:35:25.3	5.990	0.180	-0.790	-0.290
2020/01/31 20:35:25.4	5.990	0.180	-0.820	-0.330
2020/01/31 20:35:25.5	6.000	0.180	-0.840	-0.360
2020/01/31 20:35:25.6	6.000	0.170	-0.870	-0.400
2020/01/31 20:35:25.7	6.010	0.170	-0.890	-0.430
2020/01/31 20:35:25.8	6.010	0.160	-0.900	-0.470
2020/01/31 20:35:25.9	6.020	0.160	-0.920	-0.510
2020/01/31 20:35:26.0	6.030	0.150	-0.930	-0.540
2020/01/31 20:35:26.1	6.040	0.140	-0.940	-0.580
2020/01/31 20:35:26.2	6.050	0.130	-0.950	-0.610
2020/01/31 20:35:26.3	6.060	0.120	-0.950	-0.640
2020/01/31 20:35:26.4	6.070	0.120	-0.960	-0.670
2020/01/31 20:35:26.5	6.090	0.110	-0.960	-0.700
2020/01/31 20:35:26.6	6.100	0.100	-0.960	-0.720
2020/01/31 20:35:26.7	6.120	0.100	-0.960	-0.750
2020/01/31 20:35:26.8	6.140	0.090	-0.950	-0.770
2020/01/31 20:35:26.9	6.160	0.090	-0.950	-0.790
2020/01/31 20:35:27.0	6.170	0.090	-0.950	-0.810
2020/01/31 20:35:27.1	6.200	0.090	-0.940	-0.830
2020/01/31 20:35:27.2	6.230	0.090	-0.940	-0.850
2020/01/31 20:35:27.3	6.270	0.090	-0.930	-0.860
2020/01/31 20:35:27.4	6.300	0.090	-0.920	-0.880
2020/01/31 20:35:27.5	6.340	0.100	-0.910	-0.890
2020/01/31 20:35:27.6	6.380	0.110	-0.910	-0.910
2020/01/31 20:35:27.7	6.430	0.120	-0.900	-0.920
2020/01/31 20:35:27.8	6.470	0.120	-0.880	-0.940
2020/01/31 20:35:27.9	6.520	0.130	-0.870	-0.950
2020/01/31 20:35:28.0	6.570	0.140	-0.860	-0.950
2020/01/31 20:35:28.1	6.620	0.150	-0.840	-0.960
2020/01/31 20:35:28.2	6.670	0.160	-0.820	-0.970
2020/01/31 20:35:28.3	6.710	0.170	-0.800	-0.970
2020/01/31 20:35:28.4	6.760	0.180	-0.780	-0.970
2020/01/31 20:35:28.5	6.800	0.190	-0.750	-0.960
2020/01/31 20:35:28.6	6.850	0.200	-0.720	-0.960
2020/01/31 20:35:28.7	6.890	0.200	-0.680	-0.950
2020/01/31 20:35:28.8	6.930	0.210	-0.640	-0.930
2020/01/31 20:35:28.9	6.960	0.210	-0.600	-0.920
2020/01/31 20:35:29.0	6.990	0.210	-0.550	-0.890
2020/01/31 20:35:29.1	7.020	0.210	-0.500	-0.870
2020/01/31 20:35:29.2	7.050	0.210	-0.440	-0.840
2020/01/31 20:35:29.3	7.070	0.200	-0.380	-0.810
2020/01/31 20:35:29.4	7.090	0.200	-0.310	-0.770
2020/01/31 20:35:29.5	7.100	0.190	-0.250	-0.730
2020/01/31 20:35:29.6	7.110	0.170	-0.180	-0.690
2020/01/31 20:35:29.7	7.120	0.160	-0.100	-0.650
2020/01/31 20:35:29.8	7.120	0.140	-0.020	-0.600
2020/01/31 20:35:29.9	7.120	0.120	0.050	-0.550
2020/01/31 20:35:30.0	7.110	0.100	0.130	-0.500
2020/01/31 20:35:30.1	7.100	0.070	0.210	-0.450
2020/01/31 20:35:30.2	7.090	0.050	0.290	-0.400
2020/01/31 20:35:30.3	7.080	0.020	0.370	-0.350
2020/01/31 20:35:30.4	7.060	-0.010	0.440	-0.290
2020/01/31 20:35:30.5	7.040	-0.040	0.520	-0.240
2020/01/31 20:35:30.6	7.020	-0.070	0.590	-0.180
2020/01/31 20:35:30.7	7.000	-0.100	0.650	-0.130
2020/01/31 20:35:30.8	6.970	-0.140	0.710	-0.080
2020/01/31 20:35:30.9	6.950	-0.170	0.770	-0.030
2020/01/31 20:35:31.0	6.900	-0.200	0.820	0.020
2020/01/31 20:35:31.1	6.880	-0.240	0.870	0.070
2020/01/31 20:35:31.2	6.850	-0.270	0.910	0.110
2020/01/31 20:35:31.3	6.820	-0.300	0.940	0.160
2020/01/31 20:35:31.4	6.780	-0.330	0.960	0.200
2020/01/31 20:35:31.5	6.750	-0.350	0.970	0.240
2020/01/31 20:35:31.6	6.720	-0.380	0.980	0.270
2020/01/31 20:35:31.7	6.680	-0.400	0.980	0.310
2020/01/31 20:35:31.8	6.650	-0.420	0.970	0.340
2020/01/31 20:35:31.9	6.610	-0.440	0.950	0.360
2020/01/31 20:35:32.0	6.570	-0.460	0.920	0.390
2020/01/31 20:35:32.1	6.530	-0.470	0.890	0.410
2020/01/31 20:35:32.2	6.490	-0.480	0.850	0.430
2020/01/31 20:35:32.3	6.450	-0.480	0.810	0.440
2020/01/31 20:35:32.4	6.410	-0.490	0.760	0.460
2020/01/31 20:35:32.5	6.370	-0.490	0.700	0.460
2020/01/31 20:35:32.6	6.330	-0.480	0.640	0.470
2020/01/31 20:35:32.7	6.280	-0.480	0.570	0.470
2020/01/31 20:35:32.8	6.240	-0.470	0.500	0.470
2020/01/31 20:35:32.9	6.200	-0.460	0.430	0.470
2020/01/31 20:35:33.0	6.150	-0.440	0.360	0.460
2020/01/31 20:35:33.1	6.110	-0.420	0.280	0.460
2020/01/31 20:35:33.2	6.070	-0.400	0.200	0.450
2020/01/31 20:35:33.3	6.040	-0.380	0.120	0.440
2020/01/31 20:35:33.4	6.000	-0.350	0.030	0.430
2020/01/31 20:35:33.5	5.970	-0.320	-0.050	0.410
2020/01/31 20:35:33.6	5.940	-0.290	-0.130	0.400
2020/01/31 20:35:33.7	5.910	-0.260	-0.220	0.380
2020/01/31 20:35:33.8	5.880	-0.220	-0.300	0.370
2020/01/31 20:35:33.9	5.860	-0.180	-0.380	0.350
2020/01/31 20:35:34.0	5.850	-0.150	-0.460	0.330
2020/01/31 20:35:34.1	5.830	-0.110	-0.540	0.310
2020/01/31 20:35:34.2	5.810	-0.070	-0.620	0.290
2020/01/31 20:35:34.3	5.800	-0.030	-0.700	0.260
2020/01/31 20:35:34.4	5.780	0.010	-0.770	0.240
2020/01/31 20:35:34.5	5.770	0.050	-0.840	0.210
2020/01/31 20:35:34.6	5.760	0.090	-0.900	0.180
2020/01/31 20:35:34.7	5.760	0.130	-0.960	0.150
2020/01/31 20:35:34.8	5.760	0.170	-1.020	0.120
2020/01/31 20:35:34.9	5.760	0.200	-1.070	0.090
2020/01/31 20:35:35.0	5.780	0.240	-1.120	0.060
2020/01/31 20:35:35.1	5.790	0.270	-1.170	0.020
2020/01/31 20:35:35.2	5.790	0.300	-1.210	-0.020
2020/01/31 20:35:35.3	5.810	0.320	-1.240	-0.060
2020/01/31 20:35:35.4	5.820	0.350	-1.270	-0.100
2020/01/31 20:35:35.5	5.840	0.370	-1.290	-0.150
2020/01/31 20:35:35.6	5.860	0.390	-1.310	-0.190
2020/01/31 20:35:35.7	5.880	0.410	-1.320	-0.240
2020/01/31 20:35:35.8	5.910	0.420	-1.330	-0.280
2020/01/31 20:35:35.9	5.940	0.440	-1.330	-0.330
2020/01/31 20:35:36.0	5.980	0.450	-1.320	-0.380
2020/01/31 20:35:36.1	6.010	0.450	-1.310	-0.420
2020/01/31 20:35:36.2	6.050	0.460	-1.300	-0.470
2020/01/31 20:35:36.3	6.090	0.460	-1.280	-0.510
2020/01/31 20:35:36.4	6.130	0.460	-1.250	-0.550
2020/01/31 20:35:36.5	6.170	0.450	-1.220	-0.590
2020/01/31 20:35:36.6	6.210	0.440	-1.180	-0.630
2020/01/31 20:35:36.7	6.260	0.440	-1.140	-0.670
2020/01/31 20:35:36.8	6.300	0.420	-1.090	-0.700
2020/01/31 20:35:36.9	6.350	0.410	-1.050	-0.730
2020/01/31 20:35:37.0	6.400	0.400	-0.990	-0.760
2020/01/31 20:35:37.1	6.440	0.380	-0.940	-0.790
2020/01/31 20:35:37.2	6.480	0.360	-0.880	-0.810
2020/01/31 20:35:37.3	6.520	0.340	-0.810	-0.840
2020/01/31 20:35:37.4	6.560	0.320	-0.750	-0.850
2020/01/31 20:35:37.5	6.600	0.290	-0.680	-0.870
2020/01/31 20:35:37.6	6.640	0.270	-0.610	-0.880
2020/01/31 20:35:37.7	6.680	0.240	-0.540	-0.890
2020/01/31 20:35:37.8	6.710	0.220	-0.470	-0.890
2020/01/31 20:35:37.9	6.740	0.190	-0.400	-0.890
2020/01/31 20:35:38.0	6.780	0.170	-0.330	-0.890
2020/01/31 20:35:38.1	6.800	0.140	-0.260	-0.890
2020/01/31 20:35:38.2	6.830	0.120	-0.190	-0.880
2020/01/31 20:35:38.3	6.850	0.090	-0.120	-0.870
2020/01/31 20:35:38.4	6.870	0.060	-0.050	-0.850
2020/01/31 20:35:38.5	6.890	0.040	0.010	-0.840
2020/01/31 20:35:38.6	6.910	0.010	0.070	-0.820
2020/01/31 20:35:38.7	6.920	-0.010	0.120	-0.790
2020/01/31 20:35:38.8	6.930	-0.040	0.180	-0.770
2020/01/31 20:35:38.9	6.940	-0.060	0.220	-0.740
2020/01/31 20:35:39.0	6.950	-0.080	0.260	-0.710
2020/01/31 20:35:39.1	6.950	-0.100	0.300	-0.680
2020/01/31 20:35:39.2	6.950	-0.120	0.340	-0.650
2020/01/31 20:35:39.3	6.950	-0.140	0.370	-0.610
2020/01/31 20:35:39.4	6.940	-0.160	0.400	-0.580
2020/01/31 20:35:39.5	6.940	-0.180	0.420	-0.540
2020/01/31 20:35:39.6	6.930	-0.200	0.440	-0.500
2020/01/31 20:35:39.7	6.920	-0.210	0.450	-0.460
2020/01/31 20:35:39.8	6.910	-0.220	0.450	-0.420
2020/01/31 20:35:39.9	6.900	-0.240	0.460	-0.390
2020/01/31 20:35:40.0	6.880	-0.250	0.450	-0.350
2020/01/31 20:35:40.1	6.870	-0.260	0.450	-0.310
2020/01/31 20:35:40.2	6.860	-0.270	0.430	-0.280
2020/01/31 20:35:40.3	6.840	-0.270	0.420	-0.240
2020/01/31 20:35:40.4	6.830	-0.280	0.400	-0.210
2020/01/31 20:35:40.5	6.810	-0.280	0.370	-0.180
2020/01/31 20:35:40.6	6.800	-0.290	0.350	-0.150
2020/01/31 20:35:40.7	6.780	-0.290	0.320	-0.120
2020/01/31 20:35:40.8	6.770	-0.290	0.290	-0.090
2020/01/31 20:35:40.9	6.750	-0.290	0.250	-0.060
2020/01/31 20:35:41.0	6.730	-0.280	0.220	-0.030
2020/01/31 20:35:41.1	6.710	-0.280	0.190	0.000
2020/01/31 20:35:41.2	6.690	-0.270	0.150	0.030
2020/01/31 20:35:41.3	6.670	-0.270	0.120	0.060
2020/01/31 20:35:41.4	6.650	-0.260	0.080	0.090
2020/01/31 20:35:41.5	6.630	-0.250	0.050	0.120
2020/01/31 20:35:41.6	6.610	-0.240	0.020	0.150
2020/01/31 20:35:41.7	6.590	-0.230	-0.000	0.170
2020/01/31 20:35:41.8	6.570	-0.220	-0.030	0.200
2020/01/31 20:35:41.9	6.540	-0.210	-0.050	0.230
2020/01/31 20:35:42.0	6.510	-0.200	-0.070	0.250
2020/01/31 20:35:42.1	6.480	-0.190	-0.090	0.280
2020/01/31 20:35:42.2	6.460	-0.170	-0.100	0.300
2020/01/31 20:35:42.3	6.430	-0.160	-0.110	0.320
2020/01/31 20:35:42.4	6.410	-0.150	-0.120	0.340
2020/01/31 20:35:42.5	6.380	-0.130	-0.120	0.360
2020/01/31 20:35:42.6	6.350	-0.120	-0.120	0.380
2020/01/31 20:35:42.7	6.330	-0.100	-0.120	0.400
2020/01/31 20:35:42.8	6.300	-0.090	-0.110	0.420
2020/01/31 20:35:42.9	6.270	-0.070	-0.110	0.430
2020/01/31 20:35:43.0	6.240	-0.060	-0.100	0.440
2020/01/31 20:35:43.1	6.220	-0.040	-0.090	0.460
2020/01/31 20:35:43.2	6.190	-0.030	-0.080	0.470
2020/01/31 20:35:43.3	6.170	-0.010	-0.070	0.480
2020/01/31 20:35:43.4	6.140	0.000	-0.060	0.480
2020/01/31 20:35:43.5	6.120	0.020	-0.060	0.490
2020/01/31 20:35:43.6	6.100	0.030	-0.050	0.490
2020/01/31 20:35:43.7	6.080	0.050	-0.050	0.490
2020/01/31 20:35:43.8	6.060	0.060	-0.050	0.490
2020/01/31 20:35:43.9	6.050	0.080	-0.050	0.490
2020/01/31 20:35:44.0	6.050	0.090	-0.060	0.490
2020/01/31 20:35:44.1	6.040	0.100	-0.060	0.480
2020/01/31 20:35:44.2	6.030	0.110	-0.080	0.470
2020/01/31 20:35:44.3	6.020	0.130	-0.090	0.450
2020/01/31 20:35:44.4	6.020	0.140	-0.110	0.440
2020/01/31 20:35:44.5	6.010	0.150	-0.140	0.420
2020/01/31 20:35:44.6	6.010	0.160	-0.160	0.390
2020/01/31 20:35:44.7	6.020	0.170	-0.190	0.370
2020/01/31 20:35:44.8	6.020	0.170	-0.230	0.330
2020/01/31 20:35:44.9	6.030	0.180	-0.270	0.300
2020/01/31 20:35:45.0	6.050	0.190	-0.310	0.260
2020/01/31 20:35:45.1	6.070	0.190	-0.350	0.220
2020/01/31 20:35:45.2	6.090	0.200	-0.400	0.170
2020/01/31 20:35:45.3	6.110	0.200	-0.440	0.120
2020/01/31 20:35:45.4	6.130	0.210	-0.490	0.060
2020/01/31 20:35:45.5	6.160	0.210	-0.540	0.010
2020/01/31 20:35:45.6	6.190	0.210	-0.600	-0.050
2020/01/31 20:35:45.7	6.220	0.210	-0.650	-0.110
2020/01/31 20:35:45.8	6.260	0.210	-0.700	-0.180
2020/01/31 20:35:45.9	6.300	0.210	-0.750	-0.240
2020/01/31 20:35:46.0	6.350	0.210	-0.800	-0.310
2020/01/31 20:35:46.1	6.390	0.210	-0.840	-0.370
2020/01/31 20:35:46.2	6.430	0.200	-0.880	-0.430
2020/01/31 20:35:46.3	6.470	0.200	-0.920	-0.490
2020/01/31 20:35:46.4	6.520	0.190	-0.950	-0.550
2020/01/31 20:35:46.5	6.560	0.190	-0.980	-0.600
2020/01/31 20:35:46.6	6.600	0.180	-1.000	-0.650
2020/01/31 20:35:46.7	6.650	0.170	-1.010	-0.700
2020/01/31 20:35:46.8	6.690	0.160	-1.020	-0.750
2020/01/31 20:35:46.9	6.730	0.140	-1.020	-0.790
2020/01/31 20:35:47.0	6.770	0.130	-1.010	-0.820
2020/01/31 20:35:47.1	6.810	0.120	-1.000	-0.850
2020/01/31 20:35:47.2	6.840	0.100	-0.990	-0.880
2020/01/31 20:35:47.3	6.870	0.080	-0.960	-0.900
2020/01/31 20:35:47.4	6.910	0.070	-0.930	-0.920
2020/01/31 20:35:47.5	6.930	0.050	-0.900	-0.930
2020/01/31 20:35:47.6	6.960	0.030	-0.860	-0.940
2020/01/31 20:35:47.7	6.980	0.010	-0.810	-0.950
2020/01/31 20:35:47.8	7.010	-0.010	-0.760	-0.950
2020/01/31 20:35:47.9	7.030	-0.030	-0.700	-0.940
2020/01/31 20:35:48.0	7.030	-0.050	-0.650	-0.940
2020/01/31 20:35:48.1	7.040	-0.070	-0.590	-0.930
2020/01/31 20:35:48.2	7.050	-0.090	-0.530	-0.920
2020/01/31 20:35:48.3	7.070	-0.110	-0.470	-0.900
2020/01/31 20:35:48.4	7.080	-0.120	-0.400	-0.890
2020/01/31 20:35:48.5	7.090	-0.140	-0.340	-0.870
2020/01/31 20:35:48.6	7.090	-0.160	-0.280	-0.840
2020/01/31 20:35:48.7	7.100	-0.170	-0.220	-0.820
2020/01/31 20:35:48.8	7.100	-0.190	-0.160	-0.790
2020/01/31 20:35:48.9	7.110	-0.200	-0.110	-0.770
2020/01/31 20:35:49.0	7.100	-0.210	-0.060	-0.730
2020/01/31 20:35:49.1	7.100	-0.220	-0.010	-0.700
2020/01/31 20:35:49.2	7.100	-0.230	0.040	-0.670
2020/01/31 20:35:49.3	7.090	-0.240	0.080	-0.630
2020/01/31 20:35:49.4	7.090	-0.240	0.110	-0.600
2020/01/31 20:35:49.5	7.080	-0.250	0.150	-0.560
2020/01/31 20:35:49.6	7.070	-0.250	0.180	-0.530
2020/01/31 20:35:49.7	7.060	-0.260	0.200	-0.490
2020/01/31 20:35:49.8	7.050	-0.260	0.220	-0.460
2020/01/31 20:35:49.9	7.040	-0.260	0.240	-0.420
2020/01/31 20:35:50.0	7.030	-0.260	0.250	-0.390
2020/01/31 20:35:50.1	7.020	-0.250	0.260	-0.350
2020/01/31 20:35:50.2	7.010	-0.250	0.260	-0.320
2020/01/31 20:35:50.3	6.990	-0.250	0.260	-0.290
2020/01/31 20:35:50.4	6.980	-0.240	0.260	-0.260
2020/01/31 20:35:50.5	6.970	-0.240	0.260	-0.230
2020/01/31 20:35:50.6	6.950	-0.230	0.250	-0.210
2020/01/31 20:35:50.7	6.940	-0.220	0.240	-0.190
2020/01/31 20:35:50.8	6.920	-0.220	0.230	-0.160
2020/01/31 20:35:50.9	6.910	-0.210	0.210	-0.150
2020/01/31 20:35:51.0	6.890	-0.200	0.190	-0.130
2020/01/31 20:35:51.1	6.880	-0.190	0.180	-0.110
2020/01/31 20:35:51.2	6.860	-0.180	0.160	-0.100
2020/01/31 20:35:51.3	6.840	-0.170	0.140	-0.090
2020/01/31 20:35:51.4	6.830	-0.160	0.120	-0.080
2020/01/31 20:35:51.5	6.810	-0.140	0.100	-0.070
2020/01/31 20:35:51.6	6.790	-0.130	0.080	-0.070
2020/01/31 20:35:51.7	6.770	-0.120	0.060	-0.060
2020/01/31 20:35:51.8	6.750	-0.100	0.040	-0.050
2020/01/31 20:35:51.9	6.730	-0.090	0.020	-0.040
2020/01/31 20:35:52.0	6.710	-0.080	-0.000	-0.030
2020/01/31 20:35:52.1	6.690	-0.060	-0.020	-0.030
2020/01/31 20:35:52.2	6.670	-0.050	-0.040	-0.020
2020/01/31 20:35:52.3	6.650	-0.030	-0.050	-0.010
2020/01/31 20:35:52.4	6.630	-0.020	-0.070	-0.010
2020/01/31 20:35:52.5	6.610	-0.000	-0.090	-0.000
2020/01/31 20:35:52.6	6.590	0.020	-0.100	0.000
2020/01/31 20:35:52.7	6.570	0.030	-0.120	0.000
2020/01/31 20:35:52.8	6.560	0.050	-0.140	0.010
2020/01/31 20:35:52.9	6.540	0.060	-0.150	0.010
2020/01/31 20:35:53.0	6.540	0.080	-0.170	0.000
2020/01/31 20:35:53.1	6.530	0.100	-0.190	0.000
2020/01/31 20:35:53.2	6.510	0.110	-0.200	-0.000
2020/01/31 20:35:53.3	6.500	0.130	-0.220	-0.010
2020/01/31 20:35:53.4	6.490	0.150	-0.240	-0.010
2020/01/31 20:35:53.5	6.490	0.160	-0.250	-0.020
2020/01/31 20:35:53.6	6.480	0.180	-0.270	-0.030
2020/01/31 20:35:53.7	6.470	0.200	-0.290	-0.040
2020/01/31 20:35:53.8	6.470	0.210	-0.300	-0.050
2020/01/31 20:35:53.9	6.460	0.230	-0.320	-0.060
2020/01/31 20:35:54.0	6.470	0.240	-0.330	-0.080
2020/01/31 20:35:54.1	6.470	0.260	-0.350	-0.090
2020/01/31 20:35:54.2	6.460	0.270	-0.360	-0.100
2020/01/31 20:35:54.3	6.460	0.290	-0.370	-0.110
2020/01/31 20:35:54.4	6.450	0.300	-0.380	-0.120
2020/01/31 20:35:54.5	6.450	0.310	-0.380	-0.120
2020/01/31 20:35:54.6	6.440	0.320	-0.390	-0.130
2020/01/31 20:35:54.7	6.430	0.330	-0.390	-0.140
2020/01/31 20:35:54.8	6.430	0.330	-0.390	-0.140
2020/01/31 20:35:54.9	6.420	0.340	-0.390	-0.140
2020/01/31 20:35:55.0	6.400	0.340	-0.380	-0.140
2020/01/31 20:35:55.1	6.400	0.340	-0.370	-0.140
2020/01/31 20:35:55.2	6.390	0.340	-0.370	-0.130
2020/01/31 20:35:55.3	6.380	0.340	-0.360	-0.130
2020/01/31 20:35:55.4	6.380	0.340	-0.340	-0.130
2020/01/31 20:35:55.5	6.380	0.330	-0.330	-0.120
2020/01/31 20:35:55.6	6.380	0.330	-0.320	-0.120
2020/01/31 20:35:55.7	6.380	0.320	-0.310	-0.120
2020/01/31 20:35:55.8	6.380	0.310	-0.300	-0.120
2020/01/31 20:35:55.9	6.390	0.300	-0.300	-0.120
2020/01/31 20:35:56.0	6.400	0.280	-0.290	-0.120
2020/01/31 20:35:56.1	6.420	0.270	-0.290	-0.130
2020/01/31 20:35:56.2	6.430	0.260	-0.300	-0.130
2020/01/31 20:35:56.3	6.450	0.240	-0.300	-0.150
2020/01/31 20:35:56.4	6.480	0.220	-0.310	-0.160
2020/01/31 20:35:56.5	6.500	0.210	-0.320	-0.180
2020/01/31 20:35:56.6	6.530	0.190	-0.340	-0.200
2020/01/31 20:35:56.7	6.560	0.170	-0.360	-0.220
2020/01/31 20:35:56.8	6.600	0.150	-0.390	-0.250
2020/01/31 20:35:56.9	6.640	0.140	-0.410	-0.280
2020/01/31 20:35:57.0	6.680	0.120	-0.440	-0.310
2020/01/31 20:35:57.1	6.720	0.100	-0.480	-0.350
2020/01/31 20:35:57.2	6.770	0.090	-0.510	-0.380
2020/01/31 20:35:57.3	6.810	0.070	-0.540	-0.420
2020/01/31 20:35:57.4	6.850	0.050	-0.580	-0.450
2020/01/31 20:35:57.5	6.890	0.030	-0.610	-0.490
2020/01/31 20:35:57.6	6.940	0.020	-0.640	-0.530
2020/01/31 20:35:57.7	6.980	0.000	-0.670	-0.560
2020/01/31 20:35:57.8	7.020	-0.010	-0.700	-0.600
2020/01/31 20:35:57.9	7.060	-0.030	-0.730	-0.630
2020/01/31 20:35:58.0	7.110	-0.040	-0.750	-0.670
2020/01/31 20:35:58.1	7.140	-0.060	-0.760	-0.700
2020/01/31 20:35:58.2	7.180	-0.070	-0.770	-0.730
2020/01/31 20:35:58.3	7.210	-0.090	-0.780	-0.760
2020/01/31 20:35:58.4	7.250	-0.100	-0.780	-0.780
2020/01/31 20:35:58.5	7.280	-0.110	-0.770	-0.800
2020/01/31 20:35:58.6	7.300	-0.130	-0.760	-0.820
2020/01/31 20:35:58.7	7.330	-0.140	-0.740	-0.840
2020/01/31 20:35:58.8	7.350	-0.160	-0.720	-0.850
2020/01/31 20:35:58.9	7.370	-0.170	-0.690	-0.850
2020/01/31 20:35:59.0	7.390	-0.190	-0.650	-0.850
2020/01/31 20:35:59.1	7.410	-0.200	-0.610	-0.850
2020/01/31 20:35:59.2	7.420	-0.220	-0.570	-0.850
2020/01/31 20:35:59.3	7.430	-0.230	-0.510	-0.840
2020/01/31 20:35:59.4	7.430	-0.250	-0.460	-0.820
2020/01/31 20:35:59.5	7.440	-0.260	-0.400	-0.800
2020/01/31 20:35:59.6	7.440	-0.280	-0.340	-0.780
2020/01/31 20:35:59.7	7.440	-0.290	-0.270	-0.750
2020/01/31 20:35:59.8	7.430	-0.310	-0.200	-0.720
2020/01/31 20:35:59.9	7.430	-0.330	-0.130	-0.680
2020/01/31 20:36:00.0	7.410	-0.340	-0.070	-0.640
2020/01/31 20:36:00.1	7.390	-0.360	0.000	-0.600
2020/01/31 20:36:00.2	7.380	-0.370	0.070	-0.560
2020/01/31 20:36:00.3	7.360	-0.390	0.140	-0.510
2020/01/31 20:36:00.4	7.350	-0.400	0.200	-0.460
2020/01/31 20:36:00.5	7.320	-0.420	0.260	-0.410
2020/01/31 20:36:00.6	7.300	-0.430	0.320	-0.360
2020/01/31 20:36:00.7	7.280	-0.440	0.370	-0.310
2020/01/31 20:36:00.8	7.250	-0.450	0.420	-0.250
2020/01/31 20:36:00.9	7.220	-0.460	0.460	-0.200
2020/01/31 20:36:01.0	7.200	-0.460	0.500	-0.150
2020/01/31 20:36:01.1	7.170	-0.460	0.530	-0.100
2020/01/31 20:36:01.2	7.130	-0.470	0.560	-0.040
2020/01/31 20:36:01.3	7.100	-0.470	0.580	0.010
2020/01/31 20:36:01.4	7.060	-0.460	0.590	0.050
2020/01/31 20:36:01.5	7.020	-0.460	0.600	0.100
2020/01/31 20:36:01.6	6.990	-0.450	0.590	0.150
2020/01/31 20:36:01.7	6.950	-0.430	0.590	0.200
2020/01/31 20:36:01.8	6.900	-0.420	0.570	0.240
2020/01/31 20:36:01.9	6.860	-0.400	0.550	0.280
2020/01/31 20:36:02.0	6.810	-0.380	0.520	0.320
2020/01/31 20:36:02.1	6.770	-0.350	0.490	0.360
2020/01/31 20:36:02.2	6.720	-0.320	0.450	0.400
2020/01/31 20:36:02.3	6.680	-0.290	0.410	0.440
2020/01/31 20:36:02.4	6.640	-0.260	0.360	0.470
2020/01/31 20:36:02.5	6.590	-0.220	0.300	0.500
2020/01/31 20:36:02.6	6.550	-0.180	0.250	0.530
2020/01/31 20:36:02.7	6.510	-0.140	0.190	0.550
2020/01/31 20:36:02.8	6.480	-0.090	0.120	0.570
2020/01/31 20:36:02.9	6.440	-0.040	0.060	0.590
2020/01/31 20:36:03.0	6.410	0.010	-0.010	0.610
2020/01/31 20:36:03.1	6.370	0.060	-0.070	0.620
2020/01/31 20:36:03.2	6.340	0.110	-0.140	0.630
2020/01/31 20:36:03.3	6.320	0.160	-0.210	0.640
2020/01/31 20:36:03.4	6.290	0.210	-0.270	0.640
2020/01/31 20:36:03.5	6.270	0.270	-0.340	0.650
2020/01/31 20:36:03.6	6.240	0.320	-0.400	0.640
2020/01/31 20:36:03.7	6.230	0.370	-0.450	0.640
2020/01/31 20:36:03.8	6.210	0.420	-0.510	0.630
2020/01/31 20:36:03.9	6.200	0.470	-0.560	0.620
2020/01/31 20:36:04.0	6.190	0.510	-0.610	0.610
2020/01/31 20:36:04.1	6.190	0.550	-0.650	0.590
2020/01/31 20:36:04.2	6.180	0.590	-0.690	0.570
2020/01/31 20:36:04.3	6.180	0.630	-0.720	0.550
2020/01/31 20:36:04.4	6.180	0.660	-0.740	0.530
2020/01/31 20:36:04.5	6.180	0.690	-0.770	0.510
2020/01/31 20:36:04.6	6.190	0.710	-0.780	0.480
2020/01/31 20:36:04.7	6.200	0.730	-0.790	0.450
2020/01/31 20:36:04.8	6.210	0.750	-0.800	0.420
2020/01/31 20:36:04.9	6.230	0.760	-0.800	0.380
2020/01/31 20:36:05.0	6.250	0.760	-0.800	0.350
2020/01/31 20:36:05.1	6.270	0.760	-0.790	0.310
2020/01/31 20:36:05.2	6.290	0.760	-0.780	0.270
2020/01/31 20:36:05.3	6.310	0.750	-0.770	0.240
2020/01/31 20:36:05.4	6.340	0.740	-0.750	0.200
2020/01/31 20:36:05.5	6.360	0.720	-0.730	0.150
2020/01/31 20:36:05.6	6.390	0.700	-0.710	0.110
2020/01/31 20:36:05.7	6.420	0.670	-0.690	0.070
2020/01/31 20:36:05.8	6.450	0.640	-0.670	0.030
2020/01/31 20:36:05.9	6.480	0.600	-0.640	-0.020
2020/01/31 20:36:06.0	6.510	0.560	-0.620	-0.070
2020/01/31 20:36:06.1	6.540	0.520	-0.590	-0.110
2020/01/31 20:36:06.2	6.570	0.470	-0.570	-0.160
2020/01/31 20:36:06.3	6.600	0.430	-0.540	-0.210
2020/01/31 20:36:06.4	6.630	0.370	-0.520	-0.260
2020/01/31 20:36:06.5	6.660	0.320	-0.500	-0.320
2020/01/31 20:36:06.6	6.700	0.260	-0.480	-0.370
2020/01/31 20:36:06.7	6.730	0.210	-0.460	-0.430
2020/01/31 20:36:06.8	6.770	0.150	-0.440	-0.480
2020/01/31 20:36:06.9	6.810	0.090	-0.430	-0.540
2020/01/31 20:36:07.0	6.860	0.030	-0.410	-0.590
2020/01/31 20:36:07.1	6.890	-0.030	-0.400	-0.650
2020/01/31 20:36:07.2	6.930	-0.080	-0.390	-0.710
2020/01/31 20:36:07.3	6.970	-0.140	-0.390	-0.760
2020/01/31 20:36:07.4	7.010	-0.190	-0.380	-0.810
2020/01/31 20:36:07.5	7.050	-0.250	-0.370	-0.860
2020/01/31 20:36:07.6	7.090	-0.300	-0.370	-0.910
2020/01/31 20:36:07.7	7.130	-0.340	-0.370	-0.950
2020/01/31 20:36:07.8	7.180	-0.390	-0.370	-0.990
2020/01/31 20:36:07.9	7.220	-0.430	-0.370	-1.030
2020/01/31 20:36:08.0	7.260	-0.470	-0.370	-1.070
2020/01/31 20:36:08.1	7.310	-0.500	-0.380	-1.100
2020/01/31 20:36:08.2	7.350	-0.530	-0.380	-1.130
2020/01/31 20:36:08.3	7.390	-0.560	-0.380	-1.150
2020/01/31 20:36:08.4	7.420	-0.580	-0.380	-1.170
2020/01/31 20:36:08.5	7.460	-0.600	-0.380	-1.180
2020/01/31 20:36:08.6	7.500	-0.610	-0.380	-1.190
2020/01/31 20:36:08.7	7.530	-0.620	-0.380	-1.190
2020/01/31 20:36:08.8	7.550	-0.630	-0.370	-1.190
2020/01/31 20:36:08.9	7.580	-0.640	-0.360	-1.180
2020/01/31 20:36:09.0	7.600	-0.640	-0.340	-1.170
2020/01/31 20:36:09.1	7.620	-0.640	-0.330	-1.150
2020/01/31 20:36:09.2	7.630	-0.630	-0.310	-1.120
2020/01/31 20:36:09.3	7.630	-0.620	-0.280	-1.090
2020/01/31 20:36:09.4	7.630	-0.610	-0.250	-1.050
2020/01/31 20:36:09.5	7.630	-0.600	-0.220	-1.010
2020/01/31 20:36:09.6	7.620	-0.580	-0.180	-0.960
2020/01/31 20:36:09.7	7.610	-0.560	-0.140	-0.910
2020/01/31 20:36:09.8	7.590	-0.540	-0.090	-0.860
2020/01/31 20:36:09.9	7.570	-0.520	-0.050	-0.800
2020/01/31 20:36:10.0	7.540	-0.490	-0.000	-0.730
2020/01/31 20:36:10.1	7.510	-0.470	0.050	-0.670
2020/01/31 20:36:10.2	7.480	-0.440	0.100	-0.600
2020/01/31 20:36:10.3	7.440	-0.410	0.160	-0.530
2020/01/31 20:36:10.4	7.410	-0.370	0.210	-0.450
2020/01/31 20:36:10.5	7.370	-0.340	0.260	-0.370
2020/01/31 20:36:10.6	7.330	-0.310	0.320	-0.300
2020/01/31 20:36:10.7	7.280	-0.270	0.360	-0.220
2020/01/31 20:36:10.8	7.240	-0.230	0.410	-0.140
2020/01/31 20:36:10.9	7.200	-0.200	0.450	-0.050
2020/01/31 20:36:11.0	7.140	-0.160	0.490	0.030
2020/01/31 20:36:11.1	7.100	-0.120	0.530	0.110
2020/01/31 20:36:11.2	7.050	-0.080	0.550	0.190
2020/01/31 20:36:11.3	7.010	-0.050	0.580	0.260
2020/01/31 20:36:11.4	6.960	-0.010	0.590	0.330
2020/01/31 20:36:11.5	6.920	0.030	0.600	0.400
2020/01/31 20:36:11.6	6.870	0.060	0.600	0.460
2020/01/31 20:36:11.7	6.830	0.100	0.590	0.520
2020/01/31 20:36:11.8	6.790	0.140	0.580	0.580
2020/01/31 20:36:11.9	6.750	0.170	0.560	0.620
2020/01/31 20:36:12.0	6.700	0.200	0.520	0.660
2020/01/31 20:36:12.1	6.670	0.230	0.490	0.700
2020/01/31 20:36:12.2	6.630	0.260	0.450	0.720
2020/01/31 20:36:12.3	6.590	0.290	0.400	0.740
2020/01/31 20:36:12.4	6.560	0.310	0.350	0.750
2020/01/31 20:36:12.5	6.530	0.330	0.290	0.760
2020/01/31 20:36:12.6	6.500	0.350	0.230	0.750
2020/01/31 20:36:12.7	6.480	0.370	0.160	0.740
2020/01/31 20:36:12.8	6.450	0.390	0.090	0.730
2020/01/31 20:36:12.9	6.430	0.400	0.010	0.700
2020/01/31 20:36:13.0	6.410	0.410	-0.060	0.680
2020/01/31 20:36:13.1	6.390	0.420	-0.140	0.640
2020/01/31 20:36:13.2	6.380	0.420	-0.220	0.600
2020/01/31 20:36:13.3	6.370	0.430	-0.300	0.560
2020/01/31 20:36:13.4	6.370	0.430	-0.380	0.510
2020/01/31 20:36:13.5	6.370	0.430	-0.470	0.460
2020/01/31 20:36:13.6	6.370	0.430	-0.550	0.410
2020/01/31 20:36:13.7	6.380	0.420	-0.620	0.350
2020/01/31 20:36:13.8	6.390	0.420	-0.700	0.290
2020/01/31 20:36:13.9	6.410	0.410	-0.780	0.230
2020/01/31 20:36:14.0	6.430	0.410	-0.850	0.170
2020/01/31 20:36:14.1	6.450	0.400	-0.920	0.110
2020/01/31 20:36:14.2	6.480	0.390	-0.980	0.040
2020/01/31 20:36:14.3	6.510	0.380	-1.040	-0.020
2020/01/31 20:36:14.4	6.550	0.380	-1.090	-0.080
2020/01/31 20:36:14.5	6.580	0.370	-1.140	-0.140
2020/01/31 20:36:14.6	6.620	0.360	-1.190	-0.200
2020/01/31 20:36:14.7	6.660	0.350	-1.220	-0.260
2020/01/31 20:36:14.8	6.700	0.340	-1.260	-0.320
2020/01/31 20:36:14.9	6.740	0.330	-1.280	-0.380
2020/01/31 20:36:15.0	6.790	0.320	-1.300	-0.430
2020/01/31 20:36:15.1	6.840	0.310	-1.310	-0.480
2020/01/31 20:36:15.2	6.880	0.300	-1.310	-0.530
2020/01/31 20:36:15.3	6.920	0.290	-1.310	-0.580
2020/01/31 20:36:15.4	6.960	0.280	-1.300	-0.620
2020/01/31 20:36:15.5	7.000	0.270	-1.280	-0.660
2020/01/31 20:36:15.6	7.030	0.260	-1.260	-0.700
2020/01/31 20:36:15.7	7.070	0.250	-1.230	-0.730
2020/01/31 20:36:15.8	7.100	0.240	-1.190	-0.760
2020/01/31 20:36:15.9	7.130	0.230	-1.140	-0.780
2020/01/31 20:36:16.0	7.150	0.220	-1.090	-0.800
2020/01/31 20:36:16.1	7.180	0.220	-1.030	-0.820
2020/01/31 20:36:16.2	7.210	0.210	-0.970	-0.830
2020/01/31 20:36:16.3	7.230	0.200	-0.900	-0.830
2020/01/31 20:36:16.4	7.250	0.190	-0.830	-0.830
2020/01/31 20:36:16.5	7.270	0.180	-0.750	-0.820
2020/01/31 20:36:16.6	7.280	0.170	-0.670	-0.810
2020/01/31 20:36:16.7	7.300	0.160	-0.590	-0.790
2020/01/31 20:36:16.8	7.310	0.160	-0.500	-0.770
2020/01/31 20:36:16.9	7.320	0.150	-0.410	-0.750
2020/01/31 20:36:17.0	7.320	0.140	-0.330	-0.720
2020/01/31 20:36:17.1	7.330	0.130	-0.240	-0.690
2020/01/31 20:36:17.2	7.330	0.110	-0.150	-0.650
2020/01/31 20:36:17.3	7.330	0.100	-0.060	-0.610
2020/01/31 20:36:17.4	7.330	0.090	0.030	-0.580
2020/01/31 20:36:17.5	7.330	0.080	0.110	-0.540
2020/01/31 20:36:17.6	7.320	0.060	0.190	-0.490
2020/01/31 20:36:17.7	7.310	0.040	0.270	-0.450
2020/01/31 20:36:17.8	7.300	0.020	0.350	-0.410
2020/01/31 20:36:17.9	7.290	0.010	0.420	-0.370
2020/01/31 20:36:18.0	7.280	-0.020	0.480	-0.320
2020/01/31 20:36:18.1	7.270	-0.040	0.540	-0.280
2020/01/31 20:36:18.2	7.260	-0.060	0.590	-0.250
2020/01/31 20:36:18.3	7.250	-0.090	0.630	-0.220
2020/01/31 20:36:18.4	7.230	-0.110	0.670	-0.190
2020/01/31 20:36:18.5	7.220	-0.140	0.700	-0.160
2020/01/31 20:36:18.6	7.210	-0.170	0.720	-0.140
2020/01/31 20:36:18.7	7.200	-0.200	0.740	-0.130
2020/01/31 20:36:18.8	7.180	-0.230	0.750	-0.110
2020/01/31 20:36:18.9	7.170	-0.260	0.750	-0.100
2020/01/31 20:36:19.0	7.160	-0.290	0.730	-0.100
2020/01/31 20:36:19.1	7.150	-0.330	0.720	-0.100
2020/01/31 20:36:19.2	7.140	-0.360	0.700	-0.110
2020/01/31 20:36:19.3	7.140	-0.390	0.670	-0.110
2020/01/31 20:36:19.4	7.130	-0.420	0.640	-0.130
2020/01/31 20:36:19.5	7.130	-0.450	0.590	-0.140
2020/01/31 20:36:19.6	7.120	-0.480	0.550	-0.160
2020/01/31 20:36:19.7	7.120	-0.510	0.500	-0.190
2020/01/31 20:36:19.8	7.120	-0.540	0.440	-0.220
2020/01/31 20:36:19.9	7.120	-0.570	0.380	-0.240
2020/01/31 20:36:20.0	7.100	-0.590	0.320	-0.280
2020/01/31 20:36:20.1	7.100	-0.620	0.260	-0.310
2020/01/31 20:36:20.2	7.110	-0.640	0.190	-0.350
2020/01/31 20:36:20.3	7.110	-0.660	0.120	-0.380
2020/01/31 20:36:20.4	7.110	-0.670	0.050	-0.420
2020/01/31 20:36:20.5	7.120	-0.690	-0.020	-0.460
2020/01/31 20:36:20.6	7.120	-0.700	-0.100	-0.500
2020/01/31 20:36:20.7	7.130	-0.710	-0.170	-0.540
2020/01/31 20:36:20.8	7.140	-0.710	-0.240	-0.580
2020/01/31 20:36:20.9	7.150	-0.710	-0.310	-0.620
2020/01/31 20:36:21.0	7.160	-0.710	-0.380	-0.660
2020/01/31 20:36:21.1	7.180	-0.700	-0.450	-0.700
2020/01/31 20:36:21.2	7.190	-0.690	-0.520	-0.740
2020/01/31 20:36:21.3	7.210	-0.680	-0.580	-0.770
2020/01/31 20:36:21.4	7.230	-0.660	-0.640	-0.800
2020/01/31 20:36:21.5	7.240	-0.640	-0.690	-0.830
2020/01/31 20:36:21.6	7.260	-0.610	-0.750	-0.850
2020/01/31 20:36:21.7	7.280	-0.580	-0.790	-0.880
2020/01/31 20:36:21.8	7.300	-0.550	-0.840	-0.900
2020/01/31 20:36:21.9	7.310	-0.510	-0.870	-0.910
2020/01/31 20:36:22.0	7.350	-0.470	-0.900	-0.920
2020/01/31 20:36:22.1	7.370	-0.420	-0.930	-0.930
2020/01/31 20:36:22.2	7.380	-0.370	-0.950	-0.930
2020/01/31 20:36:22.3	7.400	-0.320	-0.970	-0.930
2020/01/31 20:36:22.4	7.410	-0.270	-0.980	-0.920
2020/01/31 20:36:22.5	7.430	-0.220	-0.990	-0.910
2020/01/31 20:36:22.6	7.440	-0.160	-0.990	-0.900
2020/01/31 20:36:22.7	7.450	-0.100	-0.980	-0.870
2020/01/31 20:36:22.8	7.460	-0.040	-0.970	-0.840
2020/01/31 20:36:22.9	7.470	0.020	-0.950	-0.810
2020/01/31 20:36:23.0	7.480	0.080	-0.940	-0.780
2020/01/31 20:36:23.1	7.480	0.140	-0.910	-0.740
2020/01/31 20:36:23.2	7.480	0.190	-0.880	-0.690
2020/01/31 20:36:23.3	7.480	0.250	-0.840	-0.640
2020/01/31 20:36:23.4	7.480	0.300	-0.800	-0.590
2020/01/31 20:36:23.5	7.480	0.360	-0.760	-0.540
2020/01/31 20:36:23.6	7.470	0.400	-0.710	-0.480
2020/01/31 20:36:23.7	7.460	0.450	-0.660	-0.430
2020/01/31 20:36:23.8	7.450	0.490	-0.610	-0.370
2020/01/31 20:36:23.9	7.440	0.530	-0.550	-0.310
2020/01/31 20:36:24.0	7.440	0.560	-0.490	-0.240
2020/01/31 20:36:24.1	7.420	0.590	-0.430	-0.190
2020/01/31 20:36:24.2	7.410	0.620	-0.370	-0.130
2020/01/31 20:36:24.3	7.400	0.640	-0.310	-0.070
2020/01/31 20:36:24.4	7.380	0.650	-0.250	-0.020
2020/01/31 20:36:24.5	7.370	0.660	-0.200	0.040
2020/01/31 20:36:24.6	7.350	0.670	-0.140	0.090
2020/01/31 20:36:24.7	7.340	0.670	-0.080	0.140
2020/01/31 20:36:24.8	7.320	0.670	-0.020	0.180
2020/01/31 20:36:24.9	7.310	0.660	0.030	0.230
2020/01/31 20:36:25.0	7.300	0.650	0.080	0.260
2020/01/31 20:36:25.1	7.290	0.630	0.120	0.300
2020/01/31 20:36:25.2	7.280	0.610	0.170	0.330
2020/01/31 20:36:25.3	7.270	0.590	0.210	0.360
2020/01/31 20:36:25.4	7.260	0.560	0.250	0.380
2020/01/31 20:36:25.5	7.250	0.530	0.280	0.400
2020/01/31 20:36:25.6	7.240	0.500	0.320	0.420
2020/01/31 20:36:25.7	7.240	0.470	0.340	0.430
2020/01/31 20:36:25.8	7.230	0.430	0.370	0.440
2020/01/31 20:36:25.9	7.220	0.390	0.390	0.440
2020/01/31 20:36:26.0	7.210	0.350	0.400	0.440
2020/01/31 20:36:26.1	7.210	0.310	0.410	0.440
2020/01/31 20:36:26.2	7.200	0.270	0.420	0.440
2020/01/31 20:36:26.3	7.200	0.230	0.420	0.430
2020/01/31 20:36:26.4	7.190	0.190	0.410	0.410
2020/01/31 20:36:26.5	7.190	0.150	0.400	0.400
2020/01/31 20:36:26.6	7.180	0.110	0.390	0.380
2020/01/31 20:36:26.7	7.180	0.070	0.370	0.360
2020/01/31 20:36:26.8	7.180	0.030	0.340	0.330
2020/01/31 20:36:26.9	7.180	-0.000	0.310	0.310
2020/01/31 20:36:27.0	7.170	-0.030	0.270	0.280
2020/01/31 20:36:27.1	7.170	-0.060	0.220	0.250
2020/01/31 20:36:27.2	7.180	-0.090	0.170	0.220
2020/01/31 20:36:27.3	7.180	-0.110	0.120	0.180
2020/01/31 20:36:27.4	7.190	-0.130	0.050	0.140
2020/01/31 20:36:27.5	7.200	-0.140	-0.010	0.100
2020/01/31 20:36:27.6	7.220	-0.160	-0.090	0.060
2020/01/31 20:36:27.7	7.230	-0.160	-0.160	0.010
2020/01/31 20:36:27.8	7.250	-0.170	-0.240	-0.040
2020/01/31 20:36:27.9	7.270	-0.170	-0.330	-0.090
2020/01/31 20:36:28.0	7.300	-0.160	-0.410	-0.140
2020/01/31 20:36:28.1	7.320	-0.160	-0.500	-0.190
2020/01/31 20:36:28.2	7.350	-0.150	-0.590	-0.240
2020/01/31 20:36:28.3	7.380	-0.130	-0.680	-0.300
2020/01/31 20:36:28.4	7.400	-0.110	-0.770	-0.350
2020/01/31 20:36:28.5	7.430	-0.090	-0.860	-0.410
2020/01/31 20:36:28.6	7.460	-0.070	-0.950	-0.460
2020/01/31 20:36:28.7	7.490	-0.050	-1.030	-0.520
2020/01/31 20:36:28.8	7.510	-0.020	-1.110	-0.570
2020/01/31 20:36:28.9	7.540	0.010	-1.180	-0.620
2020/01/31 20:36:29.0	7.570	0.040	-1.250	-0.670
2020/01/31 20:36:29.1	7.590	0.070	-1.300	-0.720
2020/01/31 20:36:29.2	7.620	0.100	-1.350	-0.760
2020/01/31 20:36:29.3	7.640	0.130	-1.390	-0.800
2020/01/31 20:36:29.4	7.660	0.160	-1.420	-0.830
2020/01/31 20:36:29.5	7.680	0.180	-1.440	-0.870
2020/01/31 20:36:29.6	7.700	0.210	-1.450	-0.890
2020/01/31 20:36:29.7	7.710	0.230	-1.450	-0.910
2020/01/31 20:36:29.8	7.720	0.260	-1.440	-0.930
2020/01/31 20:36:29.9	7.730	0.270	-1.410	-0.940
2020/01/31 20:36:30.0	7.760	0.290	-1.370	-0.950
2020/01/31 20:36:30.1	7.760	0.310	-1.330	-0.940
2020/01/31 20:36:30.2	7.760	0.320	-1.270	-0.940
2020/01/31 20:36:30.3	7.770	0.320	-1.200	-0.930
2020/01/31 20:36:30.4	7.770	0.330	-1.120	-0.910
2020/01/31 20:36:30.5	7.770	0.320	-1.030	-0.890
2020/01/31 20:36:30.6	7.760	0.320	-0.930	-0.870
2020/01/31 20:36:30.7	7.760	0.310	-0.830	-0.840
2020/01/31 20:36:30.8	7.760	0.300	-0.720	-0.810
2020/01/31 20:36:30.9	7.750	0.280	-0.600	-0.780
2020/01/31 20:36:31.0	7.740	0.260	-0.480	-0.740
2020/01/31 20:36:31.1	7.730	0.240	-0.360	-0.700
2020/01/31 20:36:31.2	7.730	0.210	-0.240	-0.660
2020/01/31 20:36:31.3	7.720	0.180	-0.110	-0.620
2020/01/31 20:36:31.4	7.710	0.140	0.020	-0.580
2020/01/31 20:36:31.5	7.700	0.100	0.140	-0.550
2020/01/31 20:36:31.6	7.690	0.070	0.260	-0.510
2020/01/31 20:36:31.7	7.690	0.020	0.380	-0.470
2020/01/31 20:36:31.8	7.680	-0.020	0.490	-0.440
2020/01/31 20:36:31.9	7.670	-0.060	0.600	-0.400
2020/01/31 20:36:32.0	7.670	-0.110	0.700	-0.370
2020/01/31 20:36:32.1	7.670	-0.160	0.790	-0.340
2020/01/31 20:36:32.2	7.660	-0.200	0.880	-0.310
2020/01/31 20:36:32.3	7.660	-0.250	0.960	-0.290
2020/01/31 20:36:32.4	7.650	-0.300	1.030	-0.270
2020/01/31 20:36:32.5	7.650	-0.340	1.090	-0.250
2020/01/31 20:36:32.6	7.650	-0.380	1.140	-0.230
2020/01/31 20:36:32.7	7.640	-0.430	1.180	-0.220
2020/01/31 20:36:32.8	7.640	-0.470	1.210	-0.200
2020/01/31 20:36:32.9	7.630	-0.510	1.240	-0.190
2020/01/31 20:36:33.0	7.630	-0.540	1.250	-0.190
2020/01/31 20:36:33.1	7.630	-0.570	1.250	-0.180
2020/01/31 20:36:33.2	7.620	-0.600	1.240	-0.170
2020/01/31 20:36:33.3	7.620	-0.630	1.220	-0.170
2020/01/31 20:36:33.4	7.610	-0.650	1.200	-0.160
2020/01/31 20:36:33.5	7.600	-0.670	1.160	-0.160
2020/01/31 20:36:33.6	7.600	-0.680	1.120	-0.160
2020/01/31 20:36:33.7	7.590	-0.690	1.060	-0.160
2020/01/31 20:36:33.8	7.580	-0.700	1.000	-0.150
2020/01/31 20:36:33.9	7.570	-0.700	0.940	-0.150
2020/01/31 20:36:34.0	7.550	-0.700	0.860	-0.150
2020/01/31 20:36:34.1	7.540	-0.690	0.780	-0.150
2020/01/31 20:36:34.2	7.530	-0.680	0.690	-0.150
2020/01/31 20:36:34.3	7.510	-0.660	0.600	-0.150
2020/01/31 20:36:34.4	7.500	-0.640	0.510	-0.150
2020/01/31 20:36:34.5	7.490	-0.620	0.410	-0.140
2020/01/31 20:36:34.6	7.470	-0.590	0.310	-0.140
2020/01/31 20:36:34.7	7.460	-0.560	0.210	-0.140
2020/01/31 20:36:34.8	7.450	-0.520	0.110	-0.140
2020/01/31 20:36:34.9	7.430	-0.490	0.000	-0.140
2020/01/31 20:36:35.0	7.420	-0.440	-0.100	-0.140
2020/01/31 20:36:35.1	7.410	-0.400	-0.200	-0.130
2020/01/31 20:36:35.2	7.390	-0.350	-0.310	-0.130
2020/01/31 20:36:35.3	7.380	-0.300	-0.410	-0.130
2020/01/31 20:36:35.4	7.360	-0.250	-0.510	-0.120
2020/01/31 20:36:35.5	7.350	-0.200	-0.610	-0.120
2020/01/31 20:36:35.6	7.330	-0.150	-0.700	-0.110
2020/01/31 20:36:35.7	7.320	-0.090	-0.790	-0.110
2020/01/31 20:36:35.8	7.310	-0.030	-0.880	-0.110
2020/01/31 20:36:35.9	7.290	0.020	-0.970	-0.100
2020/01/31 20:36:36.0	7.270	0.080	-1.050	-0.100
2020/01/31 20:36:36.1	7.260	0.140	-1.130	-0.100
2020/01/31 20:36:36.2	7.260	0.190	-1.200	-0.100
2020/01/31 20:36:36.3	7.250	0.250	-1.270	-0.100
2020/01/31 20:36:36.4	7.250	0.300	-1.330	-0.100
2020/01/31 20:36:36.5	7.240	0.350	-1.390	-0.100
2020/01/31 20:36:36.6	7.240	0.400	-1.440	-0.100
2020/01/31 20:36:36.7	7.240	0.450	-1.490	-0.110
2020/01/31 20:36:36.8	7.250	0.490	-1.540	-0.110
2020/01/31 20:36:36.9	7.250	0.540	-1.570	-0.120
2020/01/31 20:36:37.0	7.270	0.580	-1.600	-0.130
2020/01/31 20:36:37.1	7.280	0.610	-1.630	-0.130
2020/01/31 20:36:37.2	7.290	0.650	-1.650	-0.140
2020/01/31 20:36:37.3	7.310	0.680	-1.660	-0.150
2020/01/31 20:36:37.4	7.330	0.700	-1.660	-0.170
2020/01/31 20:36:37.5	7.350	0.730	-1.660	-0.180
2020/01/31 20:36:37.6	7.370	0.750	-1.650	-0.190
2020/01/31 20:36:37.7	7.390	0.760	-1.640	-0.210
2020/01/31 20:36:37.8	7.410	0.770	-1.610	-0.220
2020/01/31 20:36:37.9	7.440	0.770	-1.580	-0.240
2020/01/31 20:36:38.0	7.470	0.780	-1.550	-0.250
2020/01/31 20:36:38.1	7.490	0.770	-1.500	-0.270
2020/01/31 20:36:38.2	7.510	0.760	-1.450	-0.280
2020/01/31 20:36:38.3	7.530	0.750	-1.390	-0.290
2020/01/31 20:36:38.4	7.550	0.730	-1.320	-0.300
2020/01/31 20:36:38.5	7.570	0.710	-1.240	-0.310
2020/01/31 20:36:38.6	7.590	0.690	-1.160	-0.310
2020/01/31 20:36:38.7	7.600	0.660	-1.080	-0.320
2020/01/31 20:36:38.8	7.610	0.620	-0.980	-0.320
2020/01/31 20:36:38.9	7.620	0.580	-0.880	-0.320
2020/01/31 20:36:39.0	7.620	0.540	-0.780	-0.310
2020/01/31 20:36:39.1	7.630	0.500	-0.680	-0.310
2020/01/31 20:36:39.2	7.630	0.450	-0.570	-0.300
2020/01/31 20:36:39.3	7.630	0.400	-0.450	-0.300
2020/01/31 20:36:39.4	7.630	0.340	-0.340	-0.290
2020/01/31 20:36:39.5	7.620	0.290	-0.230	-0.280
2020/01/31 20:36:39.6	7.620	0.230	-0.120	-0.270
2020/01/31 20:36:39.7	7.610	0.170	-0.000	-0.260
2020/01/31 20:36:39.8	7.600	0.110	0.100	-0.250
2020/01/31 20:36:39.9	7.590	0.050	0.210	-0.240
2020/01/31 20:36:40.0	7.580	-0.010	0.310	-0.230
2020/01/31 20:36:40.1	7.570	-0.070	0.400	-0.230
2020/01/31 20:36:40.2	7.560	-0.130	0.490	-0.220
2020/01/31 20:36:40.3	7.550	-0.190	0.570	-0.220
2020/01/31 20:36:40.4	7.550	-0.250	0.650	-0.210
2020/01/31 20:36:40.5	7.540	-0.310	0.720	-0.210
2020/01/31 20:36:40.6	7.540	-0.360	0.780	-0.210
2020/01/31 20:36:40.7	7.540	-0.410	0.830	-0.220
2020/01/31 20:36:40.8	7.530	-0.460	0.870	-0.220
2020/01/31 20:36:40.9	7.530	-0.500	0.900	-0.220
2020/01/31 20:36:41.0	7.530	-0.540	0.920	-0.230
2020/01/31 20:36:41.1	7.540	-0.570	0.940	-0.240
2020/01/31 20:36:41.2	7.540	-0.600	0.940	-0.250
2020/01/31 20:36:41.3	7.540	-0.630	0.940	-0.250
2020/01/31 20:36:41.4	7.540	-0.650	0.930	-0.260
2020/01/31 20:36:41.5	7.550	-0.660	0.910	-0.270
2020/01/31 20:36:41.6	7.550	-0.670	0.880	-0.270
2020/01/31 20:36:41.7	7.550	-0.680	0.850	-0.270
2020/01/31 20:36:41.8	7.550	-0.680	0.810	-0.280
2020/01/31 20:36:41.9	7.550	-0.670	0.770	-0.280
2020/01/31 20:36:42.0	7.540	-0.670	0.720	-0.280
2020/01/31 20:36:42.1	7.540	-0.650	0.670	-0.270
2020/01/31 20:36:42.2	7.540	-0.630	0.620	-0.270
2020/01/31 20:36:42.3	7.540	-0.610	0.570	-0.260
2020/01/31 20:36:42.4	7.530	-0.590	0.510	-0.250
2020/01/31 20:36:42.5	7.530	-0.560	0.450	-0.230
2020/01/31 20:36:42.6	7.520	-0.520	0.400	-0.220
2020/01/31 20:36:42.7	7.510	-0.490	0.340	-0.200
2020/01/31 20:36:42.8	7.500	-0.450	0.290	-0.180
2020/01/31 20:36:42.9	7.480	-0.410	0.240	-0.150
2020/01/31 20:36:43.0	7.470	-0.370	0.190	-0.120
2020/01/31 20:36:43.1	7.450	-0.330	0.150	-0.090
2020/01/31 20:36:43.2	7.430	-0.290	0.100	-0.060
2020/01/31 20:36:43.3	7.410	-0.240	0.060	-0.030
2020/01/31 20:36:43.4	7.390	-0.200	0.020	0.010
2020/01/31 20:36:43.5	7.360	-0.150	-0.020	0.050
2020/01/31 20:36:43.6	7.330	-0.110	-0.050	0.080
2020/01/31 20:36:43.7	7.310	-0.070	-0.080	0.120
2020/01/31 20:36:43.8	7.280	-0.030	-0.110	0.160
2020/01/31 20:36:43.9	7.250	0.010	-0.140	0.190
2020/01/31 20:36:44.0	7.210	0.050	-0.170	0.230
2020/01/31 20:36:44.1	7.180	0.090	-0.200	0.260
2020/01/31 20:36:44.2	7.150	0.120	-0.220	0.290
2020/01/31 20:36:44.3	7.120	0.160	-0.240	0.320
2020/01/31 20:36:44.4	7.090	0.190	-0.260	0.350
2020/01/31 20:36:44.5	7.060	0.220	-0.280	0.370
2020/01/31 20:36:44.6	7.030	0.240	-0.300	0.390
2020/01/31 20:36:44.7	7.010	0.270	-0.330	0.400
2020/01/31 20:36:44.8	6.990	0.290	-0.350	0.410
2020/01/31 20:36:44.9	6.970	0.320	-0.370	0.420
2020/01/31 20:36:45.0	6.970	0.340	-0.390	0.420
2020/01/31 20:36:45.1	6.950	0.360	-0.420	0.420
2020/01/31 20:36:45.2	6.940	0.370	-0.440	0.420
2020/01/31 20:36:45.3	6.930	0.390	-0.470	0.410
2020/01/31 20:36:45.4	6.920	0.400	-0.500	0.400
2020/01/31 20:36:45.5	6.920	0.420	-0.530	0.390
2020/01/31 20:36:45.6	6.920	0.430	-0.560	0.370
2020/01/31 20:36:45.7	6.920	0.440	-0.590	0.350
2020/01/31 20:36:45.8	6.920	0.450	-0.630	0.330
2020/01/31 20:36:45.9	6.930	0.460	-0.660	0.310
2020/01/31 20:36:46.0	6.940	0.470	-0.700	0.280
2020/01/31 20:36:46.1	6.950	0.480	-0.730	0.250
2020/01/31 20:36:46.2	6.960	0.480	-0.760	0.230
2020/01/31 20:36:46.3	6.970	0.490	-0.800	0.190
2020/01/31 20:36:46.4	6.990	0.490	-0.830	0.160
2020/01/31 20:36:46.5	7.000	0.490	-0.860	0.130
2020/01/31 20:36:46.6	7.020	0.500	-0.890	0.100
2020/01/31 20:36:46.7	7.030	0.500	-0.910	0.060
2020/01/31 20:36:46.8	7.050	0.490	-0.930	0.030
2020/01/31 20:36:46.9	7.070	0.490	-0.950	-0.000
2020/01/31 20:36:47.0	7.090	0.490	-0.970	-0.040
2020/01/31 20:36:47.1	7.110	0.480	-0.980	-0.070
2020/01/31 20:36:47.2	7.130	0.480	-0.990	-0.110
2020/01/31 20:36:47.3	7.150	0.470	-0.990	-0.140
2020/01/31 20:36:47.4	7.170	0.450	-0.990	-0.180
2020/01/31 20:36:47.5	7.200	0.440	-0.980	-0.210
2020/01/31 20:36:47.6	7.220	0.430	-0.970	-0.250
2020/01/31 20:36:47.7	7.240	0.410	-0.950	-0.280
2020/01/31 20:36:47.8	7.260	0.390	-0.930	-0.320
2020/01/31 20:36:47.9	7.290	0.370	-0.910	-0.350
2020/01/31 20:36:48.0	7.310	0.340	-0.880	-0.390
2020/01/31 20:36:48.1	7.340	0.320	-0.850	-0.420
2020/01/31 20:36:48.2	7.360	0.290	-0.810	-0.450
2020/01/31 20:36:48.3	7.390	0.260	-0.770	-0.470
2020/01/31 20:36:48.4	7.410	0.230	-0.730	-0.500
2020/01/31 20:36:48.5	7.430	0.200	-0.680	-0.520
2020/01/31 20:36:48.6	7.450	0.160	-0.640	-0.540
2020/01/31 20:36:48.7	7.480	0.120	-0.590	-0.560
2020/01/31 20:36:48.8	7.490	0.090	-0.530	-0.570
2020/01/31 20:36:48.9	7.510	0.050	-0.480	-0.590
2020/01/31 20:36:49.0	7.530	0.010	-0.420	-0.600
2020/01/31 20:36:49.1	7.550	-0.030	-0.370	-0.600
2020/01/31 20:36:49.2	7.560	-0.080	-0.310	-0.610
2020/01/31 20:36:49.3	7.580	-0.120	-0.250	-0.610
2020/01/31 20:36:49.4	7.590	-0.160	-0.190	-0.610
2020/01/31 20:36:49.5	7.600	-0.200	-0.140	-0.610
2020/01/31 20:36:49.6	7.610	-0.250	-0.080	-0.610
2020/01/31 20:36:49.7	7.620	-0.290	-0.030	-0.600
2020/01/31 20:36:49.8	7.630	-0.330	0.030	-0.600
2020/01/31 20:36:49.9	7.640	-0.370	0.080	-0.590
2020/01/31 20:36:50.0	7.640	-0.410	0.120	-0.580
2020/01/31 20:36:50.1	7.640	-0.450	0.170	-0.580
2020/01/31 20:36:50.2	7.650	-0.480	0.210	-0.570
2020/01/31 20:36:50.3	7.650	-0.520	0.250	-0.560
2020/01/31 20:36:50.4	7.660	-0.550	0.280	-0.560
2020/01/31 20:36:50.5	7.660	-0.580	0.310	-0.550
2020/01/31 20:36:50.6	7.670	-0.610	0.340	-0.540
2020/01/31 20:36:50.7	7.670	-0.630	0.360	-0.540
2020/01/31 20:36:50.8	7.670	-0.650	0.380	-0.530
2020/01/31 20:36:50.9	7.670	-0.670	0.390	-0.520
2020/01/31 20:36:51.0	7.670	-0.680	0.390	-0.520
2020/01/31 20:36:51.1	7.670	-0.700	0.400	-0.510
2020/01/31 20:36:51.2	7.670	-0.700	0.390	-0.500
2020/01/31 20:36:51.3	7.660	-0.710	0.390	-0.490
2020/01/31 20:36:51.4	7.660	-0.710	0.380	-0.480
2020/01/31 20:36:51.5	7.650	-0.710	0.360	-0.470
2020/01/31 20:36:51.6	7.640	-0.700	0.340	-0.460
2020/01/31 20:36:51.7	7.630	-0.690	0.320	-0.440
2020/01/31 20:36:51.8	7.620	-0.680	0.300	-0.430
2020/01/31 20:36:51.9	7.610	-0.660	0.270	-0.410
2020/01/31 20:36:52.0	7.580	-0.640	0.240	-0.390
2020/01/31 20:36:52.1	7.560	-0.620	0.210	-0.360
2020/01/31 20:36:52.2	7.540	-0.600	0.180	-0.340
2020/01/31 20:36:52.3	7.520	-0.570	0.140	-0.310
2020/01/31 20:36:52.4	7.490	-0.530	0.110	-0.280
2020/01/31 20:36:52.5	7.470	-0.500	0.070	-0.250
2020/01/31 20:36:52.6	7.440	-0.460	0.040	-0.220
2020/01/31 20:36:52.7	7.410	-0.420	0.000	-0.190
2020/01/31 20:36:52.8	7.380	-0.380	-0.030	-0.150
2020/01/31 20:36:52.9	7.340	-0.340	-0.060	-0.110
2020/01/31 20:36:53.0	7.300	-0.290	-0.090	-0.070
2020/01/31 20:36:53.1	7.270	-0.240	-0.130	-0.030
2020/01/31 20:36:53.2	7.230	-0.190	-0.150	0.010
2020/01/31 20:36:53.3	7.180	-0.140	-0.180	0.060
2020/01/31 20:36:53.4	7.140	-0.090	-0.200	0.110
2020/01/31 20:36:53.5	7.100	-0.030	-0.220	0.150
2020/01/31 20:36:53.6	7.050	0.020	-0.240	0.210
2020/01/31 20:36:53.7	7.000	0.070	-0.260	0.260
2020/01/31 20:36:53.8	6.950	0.130	-0.280	0.310
2020/01/31 20:36:53.9	6.910	0.180	-0.290	0.360
2020/01/31 20:36:54.0	6.860	0.230	-0.300	0.420
2020/01/31 20:36:54.1	6.810	0.290	-0.310	0.470
2020/01/31 20:36:54.2	6.770	0.340	-0.320	0.520
2020/01/31 20:36:54.3	6.720	0.390	-0.320	0.570
2020/01/31 20:36:54.4	6.680	0.440	-0.330	0.610
2020/01/31 20:36:54.5	6.640	0.490	-0.330	0.660
2020/01/31 20:36:54.6	6.600	0.540	-0.340	0.700
2020/01/31 20:36:54.7	6.570	0.580	-0.340	0.740
2020/01/31 20:36:54.8	6.540	0.620	-0.340	0.770
2020/01/31 20:36:54.9	6.510	0.670	-0.340	0.800
2020/01/31 20:36:55.0	6.490	0.710	-0.340	0.830
2020/01/31 20:36:55.1	6.470	0.740	-0.350	0.850
2020/01/31 20:36:55.2	6.450	0.770	-0.350	0.870
2020/01/31 20:36:55.3	6.440	0.810	-0.360	0.880
2020/01/31 20:36:55.4	6.430	0.830	-0.360	0.890
2020/01/31 20:36:55.5	6.420	0.850	-0.370	0.890
2020/01/31 20:36:55.6	6.410	0.870	-0.370	0.900
2020/01/31 20:36:55.7	6.410	0.890	-0.380	0.890
2020/01/31 20:36:55.8	6.410	0.900	-0.390	0.890
2020/01/31 20:36:55.9	6.410	0.910	-0.390	0.870
2020/01/31 20:36:56.0	6.420	0.910	-0.400	0.860
2020/01/31 20:36:56.1	6.420	0.900	-0.410	0.840
2020/01/31 20:36:56.2	6.430	0.890	-0.420	0.810
2020/01/31 20:36:56.3	6.440	0.880	-0.420	0.780
2020/01/31 20:36:56.4	6.450	0.860	-0.430	0.750
2020/01/31 20:36:56.5	6.460	0.840	-0.430	0.710
2020/01/31 20:36:56.6	6.480	0.810	-0.430	0.670
2020/01/31 20:36:56.7	6.500	0.780	-0.440	0.620
2020/01/31 20:36:56.8	6.520	0.740	-0.440	0.560
2020/01/31 20:36:56.9	6.540	0.690	-0.450	0.500
2020/01/31 20:36:57.0	6.580	0.650	-0.450	0.440
2020/01/31 20:36:57.1	6.600	0.590	-0.460	0.380
2020/01/31 20:36:57.2	6.630	0.540	-0.460	0.310
2020/01/31 20:36:57.3	6.660	0.480	-0.470	0.230
2020/01/31 20:36:57.4	6.690	0.420	-0.470	0.150
2020/01/31 20:36:57.5	6.720	0.350	-0.480	0.070
2020/01/31 20:36:57.6	6.750	0.280	-0.490	-0.010
2020/01/31 20:36:57.7	6.780	0.210	-0.490	-0.090
2020/01/31 20:36:57.8	6.810	0.140	-0.500	-0.170
2020/01/31 20:36:57.9	6.840	0.070	-0.510	-0.260
2020/01/31 20:36:58.0	6.870	-0.000	-0.510	-0.340
2020/01/31 20:36:58.1	6.900	-0.080	-0.520	-0.430
2020/01/31 20:36:58.2	6.930	-0.150	-0.530	-0.510
2020/01/31 20:36:58.3	6.970	-0.220	-0.530	-0.600
2020/01/31 20:36:58.4	7.000	-0.290	-0.540	-0.680
2020/01/31 20:36:58.5	7.040	-0.360	-0.540	-0.760
2020/01/31 20:36:58.6	7.070	-0.430	-0.550	-0.840
2020/01/31 20:36:58.7	7.110	-0.490	-0.550	-0.920
2020/01/31 20:36:58.8	7.150	-0.550	-0.560	-0.990
2020/01/31 20:36:58.9	7.190	-0.610	-0.560	-1.070
2020/01/31 20:36:59.0	7.230	-0.660	-0.560	-1.140
2020/01/31 20:36:59.1	7.270	-0.700	-0.570	-1.200
2020/01/31 20:36:59.2	7.310	-0.750	-0.570	-1.270
2020/01/31 20:36:59.3	7.350	-0.780	-0.570	-1.330
2020/01/31 20:36:59.4	7.390	-0.810	-0.570	-1.390
2020/01/31 20:36:59.5	7.430	-0.840	-0.570	-1.440
2020/01/31 20:36:59.6	7.470	-0.860	-0.570	-1.490
2020/01/31 20:36:59.7	7.510	-0.870	-0.560	-1.540
2020/01/31 20:36:59.8	7.550	-0.880	-0.560	-1.580
2020/01/31 20:36:59.9	7.580	-0.880	-0.550	-1.610
2020/01/31 20:37:00.0	7.620	-0.880	-0.540	-1.640
2020/01/31 20:37:00.1	7.650	-0.870	-0.520	-1.660
2020/01/31 20:37:00.2	7.680	-0.860	-0.510	-1.670
2020/01/31 20:37:00.3	7.710	-0.840	-0.490	-1.680
2020/01/31 20:37:00.4	7.730	-0.820	-0.460	-1.680
2020/01/31 20:37:00.5	7.750	-0.800	-0.430	-1.670
2020/01/31 20:37:00.6	7.760	-0.770	-0.400	-1.650
2020/01/31 20:37:00.7	7.770	-0.740	-0.370	-1.630
2020/01/31 20:37:00.8	7.780	-0.700	-0.330	-1.600
2020/01/31 20:37:00.9	7.780	-0.660	-0.280	-1.560
2020/01/31 20:37:01.0	7.780	-0.620	-0.230	-1.510
2020/01/31 20:37:01.1	7.780	-0.580	-0.180	-1.460
2020/01/31 20:37:01.2	7.760	-0.540	-0.130	-1.400
2020/01/31 20:37:01.3	7.740	-0.490	-0.080	-1.340
2020/01/31 20:37:01.4	7.720	-0.450	-0.020	-1.270
2020/01/31 20:37:01.5	7.700	-0.410	0.040	-1.190
2020/01/31 20:37:01.6	7.660	-0.360	0.100	-1.110
2020/01/31 20:37:01.7	7.630	-0.320	0.160	-1.030
2020/01/31 20:37:01.8	7.590	-0.270	0.210	-0.940
2020/01/31 20:37:01.9	7.550	-0.230	0.270	-0.850
2020/01/31 20:37:02.0	7.510	-0.190	0.320	-0.750
2020/01/31 20:37:02.1	7.460	-0.150	0.370	-0.650
2020/01/31 20:37:02.2	7.410	-0.110	0.420	-0.550
2020/01/31 20:37:02.3	7.360	-0.070	0.470	-0.460
2020/01/31 20:37:02.4	7.310	-0.040	0.510	-0.360
2020/01/31 20:37:02.5	7.260	-0.000	0.550	-0.260
2020/01/31 20:37:02.6	7.210	0.030	0.580	-0.160
2020/01/31 20:37:02.7	7.150	0.060	0.610	-0.070
2020/01/31 20:37:02.8	7.100	0.090	0.630	0.030
2020/01/31 20:37:02.9	7.050	0.120	0.650	0.120
2020/01/31 20:37:03.0	6.990	0.150	0.650	0.200
2020/01/31 20:37:03.1	6.940	0.170	0.650	0.290
2020/01/31 20:37:03.2	6.890	0.200	0.650	0.370
2020/01/31 20:37:03.3	6.840	0.220	0.630	0.450
2020/01/31 20:37:03.4	6.800	0.250	0.620	0.520
2020/01/31 20:37:03.5	6.750	0.270	0.590	0.590
2020/01/31 20:37:03.6	6.710	0.290	0.560	0.660
2020/01/31 20:37:03.7	6.670	0.310	0.520	0.720
2020/01/31 20:37:03.8	6.630	0.330	0.480	0.780
2020/01/31 20:37:03.9	6.590	0.350	0.440	0.830
2020/01/31 20:37:04.0	6.550	0.370	0.380	0.880
2020/01/31 20:37:04.1	6.520	0.390	0.330	0.920
2020/01/31 20:37:04.2	6.480	0.410	0.270	0.950
2020/01/31 20:37:04.3	6.450	0.430	0.210	0.980
2020/01/31 20:37:04.4	6.410	0.440	0.150	1.010
2020/01/31 20:37:04.5	6.380	0.460	0.080	1.030
2020/01/31 20:37:04.6	6.350	0.470	0.010	1.040
2020/01/31 20:37:04.7	6.330	0.480	-0.060	1.050
2020/01/31 20:37:04.8	6.300	0.490	-0.130	1.060
2020/01/31 20:37:04.9	6.280	0.500	-0.200	1.060
2020/01/31 20:37:05.0	6.250	0.510	-0.270	1.050
2020/01/31 20:37:05.1	6.230	0.520	-0.340	1.040
2020/01/31 20:37:05.2	6.210	0.520	-0.410	1.020
2020/01/31 20:37:05.3	6.190	0.530	-0.480	1.000
2020/01/31 20:37:05.4	6.180	0.530	-0.550	0.970
2020/01/31 20:37:05.5	6.170	0.530	-0.620	0.940
2020/01/31 20:37:05.6	6.160	0.520	-0.690	0.900
2020/01/31 20:37:05.7	6.160	0.520	-0.750	0.850
2020/01/31 20:37:05.8	6.160	0.510	-0.820	0.800
2020/01/31 20:37:05.9	6.160	0.500	-0.880	0.750
2020/01/31 20:37:06.0	6.170	0.490	-0.940	0.690
2020/01/31 20:37:06.1	6.180	0.480	-1.000	0.620
2020/01/31 20:37:06.2	6.190	0.470	-1.050	0.550
2020/01/31 20:37:06.3	6.210	0.450	-1.110	0.470
2020/01/31 20:37:06.4	6.230	0.430	-1.160	0.390
2020/01/31 20:37:06.5	6.260	0.410	-1.200	0.310
2020/01/31 20:37:06.6	6.290	0.390	-1.240	0.220
2020/01/31 20:37:06.7	6.320	0.370	-1.280	0.140
2020/01/31 20:37:06.8	6.350	0.340	-1.300	0.050
2020/01/31 20:37:06.9	6.390	0.310	-1.330	-0.050
2020/01/31 20:37:07.0	6.430	0.290	-1.350	-0.140
2020/01/31 20:37:07.1	6.470	0.260	-1.360	-0.230
2020/01/31 20:37:07.2	6.510	0.230	-1.370	-0.330
2020/01/31 20:37:07.3	6.550	0.200	-1.360	-0.420
2020/01/31 20:37:07.4	6.590	0.170	-1.360	-0.510
2020/01/31 20:37:07.5	6.630	0.140	-1.340	-0.600
2020/01/31 20:37:07.6	6.670	0.100	-1.320	-0.680
2020/01/31 20:37:07.7	6.710	0.070	-1.290	-0.770
2020/01/31 20:37:07.8	6.750	0.040	-1.250	-0.840
2020/01/31 20:37:07.9	6.790	0.010	-1.210	-0.920
2020/01/31 20:37:08.0	6.830	-0.030	-1.160	-1.000
2020/01/31 20:37:08.1	6.870	-0.060	-1.110	-1.060
2020/01/31 20:37:08.2	6.900	-0.090	-1.050	-1.120
2020/01/31 20:37:08.3	6.930	-0.120	-0.980	-1.180
2020/01/31 20:37:08.4	6.960	-0.140	-0.910	-1.230
2020/01/31 20:37:08.5	6.990	-0.170	-0.840	-1.270
2020/01/31 20:37:08.6	7.020	-0.190	-0.760	-1.310
2020/01/31 20:37:08.7	7.040	-0.220	-0.680	-1.340
2020/01/31 20:37:08.8	7.070	-0.240	-0.600	-1.360
2020/01/31 20:37:08.9	7.090	-0.260	-0.520	-1.380
2020/01/31 20:37:09.0	7.100	-0.270	-0.430	-1.390
2020/01/31 20:37:09.1	7.120	-0.290	-0.350	-1.390
2020/01/31 20:37:09.2	7.130	-0.300	-0.260	-1.390
2020/01/31 20:37:09.3	7.140	-0.310	-0.170	-1.380
2020/01/31 20:37:09.4	7.150	-0.320	-0.090	-1.360
2020/01/31 20:37:09.5	7.150	-0.320	-0.010	-1.340
2020/01/31 20:37:09.6	7.160	-0.330	0.080	-1.310
2020/01/31 20:37:09.7	7.160	-0.330	0.160	-1.280
2020/01/31 20:37:09.8	7.150	-0.330	0.230	-1.240
2020/01/31 20:37:09.9	7.150	-0.320	0.310	-1.200
2020/01/31 20:37:10.0	7.130	-0.320	0.370	-1.150
2020/01/31 20:37:10.1	7.120	-0.310	0.440	-1.090
2020/01/31 20:37:10.2	7.110	-0.300	0.500	-1.030
2020/01/31 20:37:10.3	7.090	-0.290	0.550	-0.970
2020/01/31 20:37:10.4	7.070	-0.280	0.600	-0.910
2020/01/31 20:37:10.5	7.050	-0.270	0.650	-0.830
2020/01/31 20:37:10.6	7.030	-0.250	0.690	-0.760
2020/01/31 20:37:10.7	7.010	-0.240	0.720	-0.680
2020/01/31 20:37:10.8	6.980	-0.220	0.740	-0.610
2020/01/31 20:37:10.9	6.960	-0.210	0.760	-0.520
2020/01/31 20:37:11.0	6.940	-0.190	0.770	-0.440
2020/01/31 20:37:11.1	6.910	-0.170	0.780	-0.350
2020/01/31 20:37:11.2	6.870	-0.150	0.780	-0.260
2020/01/31 20:37:11.3	6.840	-0.130	0.780	-0.180
2020/01/31 20:37:11.4	6.810	-0.120	0.770	-0.090
2020/01/31 20:37:11.5	6.770	-0.100	0.750	-0.000
2020/01/31 20:37:11.6	6.740	-0.080	0.730	0.080
2020/01/31 20:37:11.7	6.700	-0.070	0.710	0.160
2020/01/31 20:37:11.8	6.670	-0.050	0.670	0.250
2020/01/31 20:37:11.9	6.630	-0.040	0.640	0.320
2020/01/31 20:37:12.0	6.580	-0.030	0.600	0.400
2020/01/31 20:37:12.1	6.540	-0.020	0.560	0.470
2020/01/31 20:37:12.2	6.510	-0.010	0.510	0.530
2020/01/31 20:37:12.3	6.470	-0.000	0.460	0.600
2020/01/31 20:37:12.4	6.440	0.000	0.410	0.650
2020/01/31 20:37:12.5	6.400	0.010	0.350	0.700
2020/01/31 20:37:12.6	6.370	0.010	0.300	0.740
2020/01/31 20:37:12.7	6.340	0.010	0.240	0.780
2020/01/31 20:37:12.8	6.310	0.010	0.180	0.810
2020/01/31 20:37:12.9	6.280	0.010	0.110	0.840
2020/01/31 20:37:13.0	6.260	0.010	0.050	0.860
2020/01/31 20:37:13.1	6.230	0.010	-0.010	0.870
2020/01/31 20:37:13.2	6.210	0.010	-0.080	0.880
2020/01/31 20:37:13.3	6.190	0.000	-0.140	0.880
2020/01/31 20:37:13.4	6.180	-0.000	-0.210	0.880
2020/01/31 20:37:13.5	6.160	-0.010	-0.270	0.870
2020/01/31 20:37:13.6	6.150	-0.010	-0.340	0.860
2020/01/31 20:37:13.7	6.140	-0.020	-0.400	0.850
2020/01/31 20:37:13.8	6.130	-0.030	-0.460	0.830
2020/01/31 20:37:13.9	6.120	-0.030	-0.520	0.820
2020/01/31 20:37:14.0	6.110	-0.040	-0.570	0.790
2020/01/31 20:37:14.1	6.110	-0.040	-0.620	0.770
2020/01/31 20:37:14.2	6.100	-0.050	-0.670	0.750
2020/01/31 20:37:14.3	6.090	-0.050	-0.710	0.730
2020/01/31 20:37:14.4	6.090	-0.060	-0.750	0.700
2020/01/31 20:37:14.5	6.090	-0.060	-0.790	0.670
2020/01/31 20:37:14.6	6.080	-0.060	-0.820	0.650
2020/01/31 20:37:14.7	6.080	-0.060	-0.850	0.620
2020/01/31 20:37:14.8	6.080	-0.070	-0.870	0.590
2020/01/31 20:37:14.9	6.080	-0.070	-0.880	0.570
2020/01/31 20:37:15.0	6.070	-0.070	-0.900	0.530
2020/01/31 20:37:15.1	6.070	-0.070	-0.900	0.500
2020/01/31 20:37:15.2	6.070	-0.070	-0.910	0.470
2020/01/31 20:37:15.3	6.070	-0.060	-0.910	0.440
2020/01/31 20:37:15.4	6.080	-0.060	-0.910	0.410
2020/01/31 20:37:15.5	6.080	-0.060	-0.900	0.370
2020/01/31 20:37:15.6	6.080	-0.050	-0.890	0.340
2020/01/31 20:37:15.7	6.080	-0.050	-0.880	0.300
2020/01/31 20:37:15.8	6.090	-0.040	-0.860	0.260
2020/01/31 20:37:15.9	6.090	-0.040	-0.840	0.220
2020/01/31 20:37:16.0	6.100	-0.030	-0.820	0.180
2020/01/31 20:37:16.1	6.110	-0.020	-0.800	0.140
2020/01/31 20:37:16.2	6.110	-0.010	-0.770	0.110
2020/01/31 20:37:16.3	6.110	-0.010	-0.750	0.070
2020/01/31 20:37:16.4	6.120	0.000	-0.720	0.030
2020/01/31 20:37:16.5	6.120	0.010	-0.690	-0.000
2020/01/31 20:37:16.6	6.120	0.020	-0.650	-0.040
2020/01/31 20:37:16.7	6.120	0.030	-0.620	-0.070
2020/01/31 20:37:16.8	6.120	0.030	-0.590	-0.100
2020/01/31 20:37:16.9	6.120	0.040	-0.550	-0.130
2020/01/31 20:37:17.0	6.120	0.050	-0.510	-0.160
2020/01/31 20:37:17.1	6.120	0.060	-0.480	-0.180
2020/01/31 20:37:17.2	6.120	0.070	-0.440	-0.210
2020/01/31 20:37:17.3	6.120	0.070	-0.400	-0.230
2020/01/31 20:37:17.4	6.110	0.080	-0.360	-0.250
2020/01/31 20:37:17.5	6.110	0.080	-0.320	-0.260
2020/01/31 20:37:17.6	6.110	0.090	-0.290	-0.280
2020/01/31 20:37:17.7	6.100	0.090	-0.250	-0.290
2020/01/31 20:37:17.8	6.100	0.100	-0.220	-0.300
2020/01/31 20:37:17.9	6.100	0.100	-0.180	-0.310
2020/01/31 20:37:18.0	6.090	0.100	-0.150	-0.310
2020/01/31 20:37:18.1	6.090	0.100	-0.120	-0.320
2020/01/31 20:37:18.2	6.090	0.110	-0.100	-0.320
2020/01/31 20:37:18.3	6.090	0.110	-0.070	-0.320
2020/01/31 20:37:18.4	6.090	0.110	-0.050	-0.320
2020/01/31 20:37:18.5	6.100	0.110	-0.030	-0.320
2020/01/31 20:37:18.6	6.100	0.110	-0.020	-0.320
2020/01/31 20:37:18.7	6.110	0.110	-0.010	-0.320
2020/01/31 20:37:18.8	6.110	0.110	0.000	-0.320
2020/01/31 20:37:18.9	6.120	0.100	0.010	-0.310
2020/01/31 20:37:19.0	6.120	0.100	0.010	-0.310
2020/01/31 20:37:19.1	6.130	0.100	0.010	-0.310
2020/01/31 20:37:19.2	6.130	0.100	0.010	-0.310
2020/01/31 20:37:19.3	6.140	0.090	0.010	-0.300
2020/01/31 20:37:19.4	6.150	0.090	-0.000	-0.300
2020/01/31 20:37:19.5	6.160	0.090	-0.010	-0.290
2020/01/31 20:37:19.6	6.170	0.080	-0.020	-0.290
2020/01/31 20:37:19.7	6.180	0.080	-0.040	-0.280
2020/01/31 20:37:19.8	6.190	0.070	-0.050	-0.270
2020/01/31 20:37:19.9	6.200	0.070	-0.070	-0.260
2020/01/31 20:37:20.0	6.230	0.060	-0.080	-0.250
2020/01/31 20:37:20.1	6.240	0.060	-0.100	-0.240
2020/01/31 20:37:20.2	6.250	0.060	-0.120	-0.230
2020/01/31 20:37:20.3	6.260	0.050	-0.140	-0.220
2020/01/31 20:37:20.4	6.270	0.050	-0.160	-0.200
2020/01/31 20:37:20.5	6.280	0.040	-0.180	-0.190
2020/01/31 20:37:20.6	6.290	0.040	-0.200	-0.170
2020/01/31 20:37:20.7	6.290	0.040	-0.230	-0.150
2020/01/31 20:37:20.8	6.300	0.040	-0.250	-0.130
2020/01/31 20:37:20.9	6.300	0.040	-0.270	-0.110
2020/01/31 20:37:21.0	6.300	0.030	-0.290	-0.100
2020/01/31 20:37:21.1	6.310	0.030	-0.310	-0.070
2020/01/31 20:37:21.2	6.310	0.030	-0.330	-0.050
2020/01/31 20:37:21.3	6.310	0.040	-0.340	-0.020
2020/01/31 20:37:21.4	6.300	0.040	-0.360	0.000
2020/01/31 20:37:21.5	6.300	0.040	-0.370	0.030
2020/01/31 20:37:21.6	6.300	0.040	-0.380	0.060
2020/01/31 20:37:21.7	6.290	0.050	-0.390	0.080
2020/01/31 20:37:21.8	6.280	0.050	-0.400	0.110
2020/01/31 20:37:21.9	6.270	0.060	-0.400	0.140
2020/01/31 20:37:22.0	6.280	0.060	-0.400	0.170
2020/01/31 20:37:22.1	6.270	0.070	-0.400	0.190
2020/01/31 20:37:22.2	6.260	0.080	-0.400	0.220
2020/01/31 20:37:22.3	6.250	0.080	-0.390	0.240
2020/01/31 20:37:22.4	6.240	0.090	-0.390	0.270
2020/01/31 20:37:22.5	6.230	0.100	-0.380	0.290
2020/01/31 20:37:22.6	6.220	0.110	-0.370	0.310
2020/01/31 20:37:22.7	6.210	0.120	-0.360	0.330
2020/01/31 20:37:22.8	6.210	0.130	-0.350	0.340
2020/01/31 20:37:22.9	6.200	0.140	-0.340	0.360
2020/01/31 20:37:23.0	6.200	0.150	-0.340	0.370
2020/01/31 20:37:23.1	6.190	0.160	-0.320	0.380
2020/01/31 20:37:23.2	6.190	0.170	-0.310	0.390
2020/01/31 20:37:23.3	6.180	0.180	-0.290	0.400
2020/01/31 20:37:23.4	6.170	0.190	-0.270	0.400
2020/01/31 20:37:23.5	6.170	0.200	-0.250	0.410
2020/01/31 20:37:23.6	6.160	0.210	-0.240	0.410
2020/01/31 20:37:23.7	6.150	0.210	-0.220	0.410
2020/01/31 20:37:23.8	6.150	0.220	-0.200	0.400
2020/01/31 20:37:23.9	6.140	0.220	-0.180	0.400
2020/01/31 20:37:24.0	6.120	0.220	-0.150	0.390
2020/01/31 20:37:24.1	6.110	0.220	-0.130	0.380
2020/01/31 20:37:24.2	6.100	0.210	-0.110	0.370
2020/01/31 20:37:24.3	6.090	0.200	-0.090	0.350
2020/01/31 20:37:24.4	6.070	0.200	-0.070	0.340
2020/01/31 20:37:24.5	6.060	0.180	-0.050	0.320
2020/01/31 20:37:24.6	6.040	0.170	-0.020	0.300
2020/01/31 20:37:24.7	6.020	0.160	-0.000	0.280
2020/01/31 20:37:24.8	6.000	0.140	0.020	0.250
2020/01/31 20:37:24.9	5.980	0.120	0.040	0.230
2020/01/31 20:37:25.0	5.960	0.090	0.060	0.210
2020/01/31 20:37:25.1	5.940	0.070	0.080	0.180
2020/01/31 20:37:25.2	5.910	0.040	0.100	0.150
2020/01/31 20:37:25.3	5.890	0.010	0.120	0.130
2020/01/31 20:37:25.4	5.860	-0.020	0.130	0.100
2020/01/31 20:37:25.5	5.840	-0.050	0.150	0.070
2020/01/31 20:37:25.6	5.810	-0.080	0.160	0.040
2020/01/31 20:37:25.7	5.790	-0.110	0.170	0.020
2020/01/31 20:37:25.8	5.760	-0.140	0.180	-0.010
2020/01/31 20:37:25.9	5.740	-0.170	0.190	-0.040
2020/01/31 20:37:26.0	5.720	-0.200	0.190	-0.070
2020/01/31 20:37:26.1	5.700	-0.230	0.190	-0.100
2020/01/31 20:37:26.2	5.680	-0.260	0.190	-0.130
2020/01/31 20:37:26.3	5.660	-0.290	0.180	-0.160
2020/01/31 20:37:26.4	5.650	-0.310	0.170	-0.180
2020/01/31 20:37:26.5	5.640	-0.330	0.160	-0.210
2020/01/31 20:37:26.6	5.630	-0.350	0.150	-0.240
2020/01/31 20:37:26.7	5.620	-0.370	0.130	-0.270
2020/01/31 20:37:26.8	5.610	-0.380	0.110	-0.300
2020/01/31 20:37:26.9	5.610	-0.390	0.090	-0.330
2020/01/31 20:37:27.0	5.610	-0.400	0.070	-0.360
2020/01/31 20:37:27.1	5.610	-0.410	0.040	-0.380
2020/01/31 20:37:27.2	5.610	-0.410	0.010	-0.410
2020/01/31 20:37:27.3	5.620	-0.400	-0.030	-0.440
2020/01/31 20:37:27.4	5.620	-0.400	-0.060	-0.460
2020/01/31 20:37:27.5	5.630	-0.390	-0.100	-0.480
2020/01/31 20:37:27.6	5.640	-0.380	-0.140	-0.510
2020/01/31 20:37:27.7	5.660	-0.360	-0.180	-0.530
2020/01/31 20:37:27.8	5.680	-0.340	-0.220	-0.550
2020/01/31 20:37:27.9	5.690	-0.320	-0.260	-0.580
2020/01/31 20:37:28.0	5.700	-0.300	-0.300	-0.600
2020/01/31 20:37:28.1	5.720	-0.280	-0.340	-0.620
2020/01/31 20:37:28.2	5.750	-0.250	-0.380	-0.630
2020/01/31 20:37:28.3	5.770	-0.230	-0.420	-0.650
2020/01/31 20:37:28.4	5.800	-0.200	-0.460	-0.660
2020/01/31 20:37:28.5	5.820	-0.180	-0.500	-0.680
2020/01/31 20:37:28.6	5.850	-0.150	-0.540	-0.690
2020/01/31 20:37:28.7	5.880	-0.120	-0.570	-0.700
2020/01/31 20:37:28.8	5.900	-0.100	-0.600	-0.700
2020/01/31 20:37:28.9	5.930	-0.070	-0.630	-0.710
2020/01/31 20:37:29.0	5.950	-0.050	-0.650	-0.710
2020/01/31 20:37:29.1	5.970	-0.030	-0.670	-0.700
2020/01/31 20:37:29.2	6.000	-0.010	-0.690	-0.700
2020/01/31 20:37:29.3	6.020	0.010	-0.700	-0.690
2020/01/31 20:37:29.4	6.040	0.020	-0.720	-0.680
2020/01/31 20:37:29.5	6.050	0.040	-0.720	-0.660
2020/01/31 20:37:29.6	6.070	0.050	-0.720	-0.650
2020/01/31 20:37:29.7	6.090	0.060	-0.720	-0.630
2020/01/31 20:37:29.8	6.100	0.060	-0.720	-0.600
2020/01/31 20:37:29.9	6.110	0.060	-0.710	-0.580
2020/01/31 20:37:30.0	6.120	0.060	-0.700	-0.550
2020/01/31 20:37:30.1	6.130	0.060	-0.690	-0.520
2020/01/31 20:37:30.2	6.140	0.060	-0.670	-0.490
2020/01/31 20:37:30.3	6.140	0.050	-0.650	-0.460
2020/01/31 20:37:30.4	6.140	0.040	-0.630	-0.430
2020/01/31 20:37:30.5	6.150	0.030	-0.610	-0.390
2020/01/31 20:37:30.6	6.150	0.020	-0.580	-0.360
2020/01/31 20:37:30.7	6.150	0.010	-0.560	-0.320
2020/01/31 20:37:30.8	6.140	-0.010	-0.530	-0.290
2020/01/31 20:37:30.9	6.140	-0.030	-0.500	-0.260
2020/01/31 20:37:31.0	6.130	-0.040	-0.480	-0.220
2020/01/31 20:37:31.1	6.130	-0.060	-0.450	-0.190
2020/01/31 20:37:31.2	6.120	-0.080	-0.420	-0.170
2020/01/31 20:37:31.3	6.120	-0.100	-0.400	-0.140
2020/01/31 20:37:31.4	6.120	-0.110	-0.380	-0.110
2020/01/31 20:37:31.5	6.110	-0.130	-0.360	-0.090
2020/01/31 20:37:31.6	6.110	-0.150	-0.340	-0.070
2020/01/31 20:37:31.7	6.110	-0.160	-0.320	-0.050
2020/01/31 20:37:31.8	6.110	-0.170	-0.310	-0.030
2020/01/31 20:37:31.9	6.110	-0.180	-0.300	-0.020
2020/01/31 20:37:32.0	6.100	-0.190	-0.290	-0.010
2020/01/31 20:37:32.1	6.100	-0.200	-0.280	0.000
2020/01/31 20:37:32.2	6.100	-0.210	-0.280	0.010
2020/01/31 20:37:32.3	6.100	-0.210	-0.280	0.020
2020/01/31 20:37:32.4	6.090	-0.210	-0.280	0.020
2020/01/31 20:37:32.5	6.090	-0.210	-0.280	0.030
2020/01/31 20:37:32.6	6.090	-0.210	-0.280	0.040
2020/01/31 20:37:32.7	6.080	-0.210	-0.280	0.040
2020/01/31 20:37:32.8	6.080	-0.200	-0.280	0.050
2020/01/31 20:37:32.9	6.070	-0.200	-0.280	0.060
2020/01/31 20:37:33.0	6.060	-0.190	-0.290	0.060
2020/01/31 20:37:33.1	6.050	-0.180	-0.290	0.070
2020/01/31 20:37:33.2	6.030	-0.160	-0.280	0.080
2020/01/31 20:37:33.3	6.010	-0.150	-0.280	0.090
2020/01/31 20:37:33.4	5.990	-0.130	-0.280	0.100
2020/01/31 20:37:33.5	5.970	-0.120	-0.270	0.110
2020/01/31 20:37:33.6	5.950	-0.100	-0.260	0.120
2020/01/31 20:37:33.7	5.930	-0.080	-0.250	0.140
2020/01/31 20:37:33.8	5.900	-0.060	-0.240	0.150
2020/01/31 20:37:33.9	5.880	-0.040	-0.230	0.160
2020/01/31 20:37:34.0	5.860	-0.020	-0.210	0.170
2020/01/31 20:37:34.1	5.840	0.010	-0.200	0.180
2020/01/31 20:37:34.2	5.810	0.030	-0.180	0.190
2020/01/31 20:37:34.3	5.790	0.050	-0.160	0.210
2020/01/31 20:37:34.4	5.760	0.080	-0.150	0.220
2020/01/31 20:37:34.5	5.730	0.100	-0.130	0.230
2020/01/31 20:37:34.6	5.710	0.130	-0.110	0.230
2020/01/31 20:37:34.7	5.680	0.150	-0.090	0.240
2020/01/31 20:37:34.8	5.660	0.180	-0.070	0.250
2020/01/31 20:37:34.9	5.640	0.200	-0.050	0.260
2020/01/31 20:37:35.0	5.630	0.220	-0.040	0.260
2020/01/31 20:37:35.1	5.610	0.250	-0.020	0.260
2020/01/31 20:37:35.2	5.590	0.270	-0.010	0.260
2020/01/31 20:37:35.3	5.570	0.290	0.010	0.260
2020/01/31 20:37:35.4	5.560	0.310	0.020	0.260
2020/01/31 20:37:35.5	5.540	0.330	0.030	0.260
2020/01/31 20:37:35.6	5.530	0.350	0.040	0.250
2020/01/31 20:37:35.7	5.520	0.370	0.040	0.250
2020/01/31 20:37:35.8	5.510	0.380	0.050	0.240
2020/01/31 20:37:35.9	5.500	0.400	0.050	0.230
2020/01/31 20:37:36.0	5.490	0.410	0.050	0.210
2020/01/31 20:37:36.1	5.490	0.420	0.050	0.200
2020/01/31 20:37:36.2	5.490	0.430	0.050	0.180
2020/01/31 20:37:36.3	5.490	0.440	0.040	0.160
2020/01/31 20:37:36.4	5.500	0.440	0.030	0.140
2020/01/31 20:37:36.5	5.510	0.440	0.020	0.110
2020/01/31 20:37:36.6	5.520	0.440	0.010	0.090
2020/01/31 20:37:36.7	5.530	0.440	-0.010	0.060
2020/01/31 20:37:36.8	5.550	0.430	-0.030	0.030
2020/01/31 20:37:36.9	5.570	0.430	-0.040	-0.010
2020/01/31 20:37:37.0	5.590	0.410	-0.060	-0.040
2020/01/31 20:37:37.1	5.610	0.400	-0.080	-0.080
2020/01/31 20:37:37.2	5.640	0.380	-0.100	-0.110
2020/01/31 20:37:37.3	5.660	0.360	-0.130	-0.150
2020/01/31 20:37:37.4	5.680	0.340	-0.150	-0.180
2020/01/31 20:37:37.5	5.710	0.320	-0.170	-0.210
2020/01/31 20:37:37.6	5.730	0.290	-0.190	-0.240
2020/01/31 20:37:37.7	5.750	0.260	-0.200	-0.270
2020/01/31 20:37:37.8	5.780	0.230	-0.220	-0.300
2020/01/31 20:37:37.9	5.800	0.200	-0.230	-0.330
2020/01/31 20:37:38.0	5.820	0.160	-0.250	-0.360
2020/01/31 20:37:38.1	5.840	0.130	-0.250	-0.380
2020/01/31 20:37:38.2	5.860	0.090	-0.260	-0.400
2020/01/31 20:37:38.3	5.870	0.050	-0.260	-0.410
2020/01/31 20:37:38.4	5.880	0.010	-0.260	-0.430
2020/01/31 20:37:38.5	5.890	-0.030	-0.260	-0.440
2020/01/31 20:37:38.6	5.900	-0.070	-0.250	-0.440
2020/01/31 20:37:38.7	5.910	-0.100	-0.240	-0.450
2020/01/31 20:37:38.8	5.910	-0.140	-0.230	-0.450
2020/01/31 20:37:38.9	5.920	-0.180	-0.220	-0.440
2020/01/31 20:37:39.0	5.920	-0.220	-0.200	-0.430
2020/01/31 20:37:39.1	5.920	-0.250	-0.180	-0.420
2020/01/31 20:37:39.2	5.920	-0.280	-0.160	-0.410
2020/01/31 20:37:39.3	5.920	-0.310	-0.140	-0.390
2020/01/31 20:37:39.4	5.910	-0.340	-0.120	-0.370
2020/01/31 20:37:39.5	5.910	-0.370	-0.100	-0.350
2020/01/31 20:37:39.6	5.900	-0.390	-0.080	-0.330
2020/01/31 20:37:39.7	5.900	-0.410	-0.070	-0.310
2020/01/31 20:37:39.8	5.890	-0.430	-0.050	-0.280
2020/01/31 20:37:39.9	5.890	-0.440	-0.040	-0.260
2020/01/31 20:37:40.0	5.880	-0.450	-0.040	-0.230
2020/01/31 20:37:40.1	5.870	-0.450	-0.040	-0.200
2020/01/31 20:37:40.2	5.860	-0.460	-0.040	-0.180
2020/01/31 20:37:40.3	5.850	-0.460	-0.040	-0.150
2020/01/31 20:37:40.4	5.850	-0.450	-0.050	-0.130
2020/01/31 20:37:40.5	5.840	-0.450	-0.070	-0.100
2020/01/31 20:37:40.6	5.830	-0.440	-0.080	-0.080
2020/01/31 20:37:40.7	5.820	-0.430	-0.110	-0.060
2020/01/31 20:37:40.8	5.810	-0.410	-0.130	-0.040
2020/01/31 20:37:40.9	5.800	-0.390	-0.160	-0.020
2020/01/31 20:37:41.0	5.790	-0.380	-0.190	-0.000
2020/01/31 20:37:41.1	5.780	-0.350	-0.230	0.010
2020/01/31 20:37:41.2	5.770	-0.330	-0.270	0.020
2020/01/31 20:37:41.3	5.750	-0.310	-0.310	0.030
2020/01/31 20:37:41.4	5.740	-0.280	-0.350	0.040
2020/01/31 20:37:41.5	5.720	-0.250	-0.400	0.050
2020/01/31 20:37:41.6	5.700	-0.220	-0.440	0.050
2020/01/31 20:37:41.7	5.690	-0.200	-0.490	0.050
2020/01/31 20:37:41.8	5.670	-0.170	-0.530	0.050
2020/01/31 20:37:41.9	5.650	-0.140	-0.580	0.050
2020/01/31 20:37:42.0	5.640	-0.110	-0.620	0.040
2020/01/31 20:37:42.1	5.620	-0.090	-0.670	0.030
2020/01/31 20:37:42.2	5.600	-0.060	-0.710	0.010
2020/01/31 20:37:42.3	5.580	-0.040	-0.750	-0.000
2020/01/31 20:37:42.4	5.570	-0.010	-0.780	-0.020
2020/01/31 20:37:42.5	5.550	0.010	-0.820	-0.050
2020/01/31 20:37:42.6	5.540	0.030	-0.850	-0.070
2020/01/31 20:37:42.7	5.530	0.050	-0.880	-0.100
2020/01/31 20:37:42.8	5.520	0.060	-0.900	-0.140
2020/01/31 20:37:42.9	5.520	0.080	-0.920	-0.170
2020/01/31 20:37:43.0	5.530	0.090	-0.940	-0.210
2020/01/31 20:37:43.1	5.530	0.100	-0.950	-0.240
2020/01/31 20:37:43.2	5.530	0.110	-0.960	-0.280
2020/01/31 20:37:43.3	5.540	0.120	-0.960	-0.320
2020/01/31 20:37:43.4	5.550	0.130	-0.960	-0.360
2020/01/31 20:37:43.5	5.570	0.130	-0.960	-0.390
2020/01/31 20:37:43.6	5.590	0.130	-0.950	-0.430
2020/01/31 20:37:43.7	5.610	0.130	-0.940	-0.460
2020/01/31 20:37:43.8	5.630	0.130	-0.920	-0.500
2020/01/31 20:37:43.9	5.660	0.130	-0.900	-0.530
2020/01/31 20:37:44.0	5.680	0.130	-0.870	-0.560
2020/01/31 20:37:44.1	5.710	0.130	-0.840	-0.590
2020/01/31 20:37:44.2	5.750	0.120	-0.810	-0.620
2020/01/31 20:37:44.3	5.780	0.120	-0.770	-0.640
2020/01/31 20:37:44.4	5.810	0.110	-0.720	-0.660
2020/01/31 20:37:44.5	5.840	0.110	-0.670	-0.670
2020/01/31 20:37:44.6	5.870	0.100	-0.620	-0.680
2020/01/31 20:37:44.7	5.900	0.090	-0.560	-0.690
2020/01/31 20:37:44.8	5.930	0.080	-0.500	-0.690
2020/01/31 20:37:44.9	5.960	0.070	-0.430	-0.690
2020/01/31 20:37:45.0	5.980	0.060	-0.360	-0.690
2020/01/31 20:37:45.1	6.000	0.040	-0.290	-0.680
2020/01/31 20:37:45.2	6.020	0.030	-0.210	-0.660
2020/01/31 20:37:45.3	6.030	0.020	-0.140	-0.640
2020/01/31 20:37:45.4	6.040	0.000	-0.050	-0.620
2020/01/31 20:37:45.5	6.040	-0.010	0.030	-0.590
2020/01/31 20:37:45.6	6.050	-0.030	0.110	-0.560
2020/01/31 20:37:45.7	6.040	-0.040	0.190	-0.520
2020/01/31 20:37:45.8	6.040	-0.060	0.270	-0.480
2020/01/31 20:37:45.9	6.030	-0.070	0.350	-0.440
2020/01/31 20:37:46.0	6.000	-0.090	0.430	-0.390
2020/01/31 20:37:46.1	5.990	-0.110	0.510	-0.340
2020/01/31 20:37:46.2	5.970	-0.120	0.580	-0.290
2020/01/31 20:37:46.3	5.950	-0.140	0.640	-0.230
2020/01/31 20:37:46.4	5.920	-0.150	0.700	-0.180
2020/01/31 20:37:46.5	5.900	-0.170	0.760	-0.120
2020/01/31 20:37:46.6	5.870	-0.180	0.810	-0.070
2020/01/31 20:37:46.7	5.840	-0.190	0.850	-0.010
2020/01/31 20:37:46.8	5.810	-0.210	0.880	0.040
2020/01/31 20:37:46.9	5.780	-0.220	0.900	0.100
2020/01/31 20:37:47.0	5.760	-0.230	0.920	0.150
2020/01/31 20:37:47.1	5.730	-0.230	0.930	0.200
2020/01/31 20:37:47.2	5.710	-0.240	0.920	0.250
2020/01/31 20:37:47.3	5.680	-0.250	0.910	0.290
2020/01/31 20:37:47.4	5.660	-0.250	0.890	0.330
2020/01/31 20:37:47.5	5.630	-0.250	0.860	0.370
2020/01/31 20:37:47.6	5.620	-0.250	0.820	0.400
2020/01/31 20:37:47.7	5.600	-0.250	0.770	0.430
2020/01/31 20:37:47.8	5.590	-0.240	0.720	0.460
2020/01/31 20:37:47.9	5.580	-0.230	0.650	0.470
2020/01/31 20:37:48.0	5.570	-0.220	0.580	0.480
2020/01/31 20:37:48.1	5.560	-0.210	0.500	0.490
2020/01/31 20:37:48.2	5.560	-0.200	0.410	0.490
2020/01/31 20:37:48.3	5.570	-0.180	0.320	0.490
2020/01/31 20:37:48.4	5.570	-0.160	0.230	0.480
2020/01/31 20:37:48.5	5.580	-0.140	0.130	0.460
2020/01/31 20:37:48.6	5.590	-0.120	0.030	0.440
2020/01/31 20:37:48.7	5.610	-0.100	-0.070	0.420
2020/01/31 20:37:48.8	5.620	-0.070	-0.170	0.390
2020/01/31 20:37:48.9	5.640	-0.050	-0.270	0.360
2020/01/31 20:37:49.0	5.650	-0.020	-0.360	0.330
2020/01/31 20:37:49.1	5.660	0.010	-0.460	0.300
2020/01/31 20:37:49.2	5.680	0.040	-0.550	0.270
2020/01/31 20:37:49.3	5.700	0.070	-0.630	0.240
2020/01/31 20:37:49.4	5.710	0.090	-0.710	0.210
2020/01/31 20:37:49.5	5.730	0.120	-0.780	0.180
2020/01/31 20:37:49.6	5.740	0.150	-0.840	0.150
2020/01/31 20:37:49.7	5.750	0.170	-0.900	0.120
2020/01/31 20:37:49.8	5.770	0.200	-0.950	0.100
2020/01/31 20:37:49.9	5.780	0.220	-0.980	0.080
2020/01/31 20:37:50.0	5.790	0.240	-1.020	0.060
2020/01/31 20:37:50.1	5.800	0.260	-1.040	0.040
2020/01/31 20:37:50.2	5.810	0.280	-1.050	0.030
2020/01/31 20:37:50.3	5.810	0.290	-1.060	0.010
2020/01/31 20:37:50.4	5.810	0.300	-1.060	0.000
2020/01/31 20:37:50.5	5.820	0.310	-1.050	-0.010
2020/01/31 20:37:50.6	5.820	0.310	-1.030	-0.020
2020/01/31 20:37:50.7	5.820	0.310	-1.010	-0.030
2020/01/31 20:37:50.8	5.810	0.310	-0.990	-0.030
2020/01/31 20:37:50.9	5.810	0.300	-0.960	-0.040
2020/01/31 20:37:51.0	5.810	0.300	-0.920	-0.040
2020/01/31 20:37:51.1	5.800	0.290	-0.880	-0.050
2020/01/31 20:37:51.2	5.790	0.270	-0.840	-0.050
2020/01/31 20:37:51.3	5.780	0.260	-0.800	-0.050
2020/01/31 20:37:51.4	5.770	0.240	-0.760	-0.050
2020/01/31 20:37:51.5	5.760	0.220	-0.720	-0.060
2020/01/31 20:37:51.6	5.750	0.200	-0.680	-0.060
2020/01/31 20:37:51.7	5.740	0.170	-0.640	-0.060
2020/01/31 20:37:51.8	5.730	0.150	-0.600	-0.070
2020/01/31 20:37:51.9	5.710	0.130	-0.560	-0.070
2020/01/31 20:37:52.0	5.680	0.100	-0.530	-0.080
2020/01/31 20:37:52.1	5.670	0.080	-0.500	-0.090
2020/01/31 20:37:52.2	5.660	0.050	-0.470	-0.090
2020/01/31 20:37:52.3	5.640	0.030	-0.450	-0.100
2020/01/31 20:37:52.4	5.630	0.000	-0.420	-0.110
2020/01/31 20:37:52.5	5.620	-0.020	-0.410	-0.120
2020/01/31 20:37:52.6	5.610	-0.040	-0.390	-0.130
2020/01/31 20:37:52.7	5.600	-0.060	-0.380	-0.140
2020/01/31 20:37:52.8	5.590	-0.070	-0.370	-0.150
2020/01/31 20:37:52.9	5.580	-0.090	-0.360	-0.160
2020/01/31 20:37:53.0	5.570	-0.100	-0.360	-0.170
2020/01/31 20:37:53.1	5.560	-0.110	-0.360	-0.180
2020/01/31 20:37:53.2	5.550	-0.120	-0.370	-0.200
2020/01/31 20:37:53.3	5.550	-0.120	-0.370	-0.210
2020/01/31 20:37:53.4	5.540	-0.120	-0.380	-0.220
2020/01/31 20:37:53.5	5.540	-0.120	-0.390	-0.230
2020/01/31 20:37:53.6	5.540	-0.120	-0.400	-0.240
2020/01/31 20:37:53.7	5.540	-0.110	-0.410	-0.250
2020/01/31 20:37:53.8	5.530	-0.100	-0.420	-0.260
2020/01/31 20:37:53.9	5.540	-0.090	-0.430	-0.270
2020/01/31 20:37:54.0	5.530	-0.080	-0.440	-0.280
2020/01/31 20:37:54.1	5.540	-0.060	-0.450	-0.280
2020/01/31 20:37:54.2	5.540	-0.050	-0.460	-0.290
2020/01/31 20:37:54.3	5.550	-0.030	-0.470	-0.290
2020/01/31 20:37:54.4	5.550	-0.010	-0.480	-0.290
2020/01/31 20:37:54.5	5.560	0.010	-0.480	-0.290
2020/01/31 20:37:54.6	5.570	0.030	-0.480	-0.290
2020/01/31 20:37:54.7	5.580	0.050	-0.480	-0.290
2020/01/31 20:37:54.8	5.580	0.070	-0.480	-0.290
2020/01/31 20:37:54.9	5.600	0.090	-0.480	-0.280
2020/01/31 20:37:55.0	5.620	0.100	-0.460	-0.280
2020/01/31 20:37:55.1	5.630	0.120	-0.450	-0.270
2020/01/31 20:37:55.2	5.640	0.140	-0.440	-0.260
2020/01/31 20:37:55.3	5.660	0.160	-0.420	-0.250
2020/01/31 20:37:55.4	5.670	0.170	-0.400	-0.240
2020/01/31 20:37:55.5	5.690	0.190	-0.380	-0.230
2020/01/31 20:37:55.6	5.710	0.200	-0.350	-0.220
2020/01/31 20:37:55.7	5.730	0.210	-0.320	-0.200
2020/01/31 20:37:55.8	5.750	0.220	-0.290	-0.190
2020/01/31 20:37:55.9	5.770	0.230	-0.250	-0.180
2020/01/31 20:37:56.0	5.790	0.230	-0.220	-0.160
2020/01/31 20:37:56.1	5.810	0.240	-0.180	-0.150
2020/01/31 20:37:56.2	5.830	0.240	-0.140	-0.130
2020/01/31 20:37:56.3	5.850	0.240	-0.090	-0.110
2020/01/31 20:37:56.4	5.860	0.230	-0.050	-0.090
2020/01/31 20:37:56.5	5.880	0.220	0.000	-0.060
2020/01/31 20:37:56.6	5.890	0.220	0.050	-0.040
2020/01/31 20:37:56.7	5.900	0.200	0.110	-0.010
2020/01/31 20:37:56.8	5.910	0.190	0.160	0.020
2020/01/31 20:37:56.9	5.920	0.170	0.210	0.050
2020/01/31 20:37:57.0	5.920	0.150	0.270	0.090
2020/01/31 20:37:57.1	5.930	0.130	0.320	0.130
2020/01/31 20:37:57.2	5.920	0.110	0.370	0.160
2020/01/31 20:37:57.3	5.920	0.080	0.420	0.200
2020/01/31 20:37:57.4	5.910	0.050	0.470	0.230
2020/01/31 20:37:57.5	5.910	0.020	0.510	0.270
2020/01/31 20:37:57.6	5.900	-0.010	0.550	0.300
2020/01/31 20:37:57.7	5.890	-0.040	0.590	0.330
2020/01/31 20:37:57.8	5.870	-0.070	0.620	0.360
2020/01/31 20:37:57.9	5.860	-0.110	0.640	0.390
2020/01/31 20:37:58.0	5.830	-0.140	0.660	0.410
2020/01/31 20:37:58.1	5.820	-0.180	0.670	0.430
2020/01/31 20:37:58.2	5.800	-0.210	0.670	0.450
2020/01/31 20:37:58.3	5.780	-0.240	0.670	0.470
2020/01/31 20:37:58.4	5.760	-0.280	0.660	0.480
2020/01/31 20:37:58.5	5.740	-0.310	0.650	0.480
2020/01/31 20:37:58.6	5.730	-0.340	0.620	0.490
2020/01/31 20:37:58.7	5.710	-0.370	0.590	0.480
2020/01/31 20:37:58.8	5.690	-0.400	0.550	0.480
2020/01/31 20:37:58.9	5.670	-0.420	0.510	0.460
2020/01/31 20:37:59.0	5.650	-0.440	0.460	0.450
2020/01/31 20:37:59.1	5.640	-0.460	0.400	0.430
2020/01/31 20:37:59.2	5.620	-0.480	0.340	0.400
2020/01/31 20:37:59.3	5.610	-0.500	0.270	0.370
2020/01/31 20:37:59.4	5.600	-0.510	0.200	0.340
2020/01/31 20:37:59.5	5.590	-0.510	0.130	0.310
2020/01/31 20:37:59.6	5.580	-0.520	0.050	0.270
2020/01/31 20:37:59.7	5.580	-0.520	-0.030	0.230
2020/01/31 20:37:59.8	5.570	-0.520	-0.110	0.190
2020/01/31 20:37:59.9	5.560	-0.510	-0.190	0.150
2020/01/31 20:38:00.0	5.570	-0.500	-0.270	0.100
2020/01/31 20:38:00.1	5.560	-0.490	-0.350	0.060
2020/01/31 20:38:00.2	5.560	-0.470	-0.430	0.020
2020/01/31 20:38:00.3	5.560	-0.450	-0.510	-0.020
2020/01/31 20:38:00.4	5.560	-0.430	-0.580	-0.060
2020/01/31 20:38:00.5	5.560	-0.400	-0.650	-0.100
2020/01/31 20:38:00.6	5.550	-0.370	-0.710	-0.130
2020/01/31 20:38:00.7	5.550	-0.340	-0.770	-0.160
2020/01/31 20:38:00.8	5.550	-0.310	-0.830	-0.200
2020/01/31 20:38:00.9	5.550	-0.280	-0.870	-0.220
2020/01/31 20:38:01.0	5.560	-0.240	-0.920	-0.250
2020/01/31 20:38:01.1	5.560	-0.210	-0.950	-0.270
2020/01/31 20:38:01.2	5.560	-0.170	-0.980	-0.290
2020/01/31 20:38:01.3	5.560	-0.130	-1.000	-0.310
2020/01/31 20:38:01.4	5.560	-0.100	-1.020	-0.320
2020/01/31 20:38:01.5	5.560	-0.060	-1.030	-0.330
2020/01/31 20:38:01.6	5.560	-0.020	-1.030	-0.340
2020/01/31 20:38:01.7	5.570	0.010	-1.030	-0.340
2020/01/31 20:38:01.8	5.570	0.050	-1.020	-0.350
2020/01/31 20:38:01.9	5.580	0.090	-1.010	-0.350
2020/01/31 20:38:02.0	5.590	0.120	-0.990	-0.340
2020/01/31 20:38:02.1	5.600	0.150	-0.970	-0.340
2020/01/31 20:38:02.2	5.610	0.180	-0.950	-0.330
2020/01/31 20:38:02.3	5.620	0.210	-0.910	-0.320
2020/01/31 20:38:02.4	5.630	0.240	-0.880	-0.300
2020/01/31 20:38:02.5	5.640	0.270	-0.850	-0.290
2020/01/31 20:38:02.6	5.660	0.290	-0.810	-0.270
2020/01/31 20:38:02.7	5.670	0.320	-0.770	-0.260
2020/01/31 20:38:02.8	5.690	0.340	-0.720	-0.240
2020/01/31 20:38:02.9	5.700	0.350	-0.680	-0.220
2020/01/31 20:38:03.0	5.730	0.370	-0.640	-0.200
2020/01/31 20:38:03.1	5.740	0.380	-0.590	-0.180
2020/01/31 20:38:03.2	5.760	0.390	-0.550	-0.160
2020/01/31 20:38:03.3	5.770	0.400	-0.500	-0.140
2020/01/31 20:38:03.4	5.790	0.400	-0.450	-0.120
2020/01/31 20:38:03.5	5.800	0.400	-0.410	-0.100
2020/01/31 20:38:03.6	5.810	0.400	-0.360	-0.080
2020/01/31 20:38:03.7	5.820	0.400	-0.310	-0.060
2020/01/31 20:38:03.8	5.830	0.390	-0.270	-0.040
2020/01/31 20:38:03.9	5.840	0.380	-0.220	-0.020
2020/01/31 20:38:04.0	5.850	0.370	-0.180	0.000
2020/01/31 20:38:04.1	5.850	0.350	-0.140	0.020
2020/01/31 20:38:04.2	5.850	0.340	-0.100	0.040
2020/01/31 20:38:04.3	5.850	0.320	-0.050	0.050
2020/01/31 20:38:04.4	5.850	0.290	-0.020	0.070
2020/01/31 20:38:04.5	5.850	0.270	0.020	0.080
2020/01/31 20:38:04.6	5.850	0.250	0.050	0.090
2020/01/31 20:38:04.7	5.850	0.220	0.080	0.090
2020/01/31 20:38:04.8	5.850	0.190	0.110	0.090
2020/01/31 20:38:04.9	5.850	0.160	0.130	0.090
2020/01/31 20:38:05.0	5.850	0.140	0.160	0.090
2020/01/31 20:38:05.1	5.850	0.110	0.170	0.080
2020/01/31 20:38:05.2	5.850	0.080	0.180	0.060
2020/01/31 20:38:05.3	5.860	0.050	0.190	0.040
2020/01/31 20:38:05.4	5.860	0.020	0.190	0.020
2020/01/31 20:38:05.5	5.870	-0.000	0.190	-0.000
2020/01/31 20:38:05.6	5.880	-0.030	0.190	-0.030
2020/01/31 20:38:05.7	5.880	-0.050	0.180	-0.060
2020/01/31 20:38:05.8	5.890	-0.080	0.160	-0.090
2020/01/31 20:38:05.9	5.900	-0.100	0.140	-0.130
2020/01/31 20:38:06.0	5.910	-0.120	0.120	-0.160
2020/01/31 20:38:06.1	5.920	-0.130	0.090	-0.200
2020/01/31 20:38:06.2	5.930	-0.150	0.060	-0.240
2020/01/31 20:38:06.3	5.940	-0.160	0.030	-0.270
2020/01/31 20:38:06.4	5.960	-0.170	-0.010	-0.310
2020/01/31 20:38:06.5	5.970	-0.180	-0.050	-0.340
2020/01/31 20:38:06.6	5.980	-0.180	-0.090	-0.370
2020/01/31 20:38:06.7	5.990	-0.180	-0.130	-0.400
2020/01/31 20:38:06.8	6.010	-0.180	-0.170	-0.430
2020/01/31 20:38:06.9	6.020	-0.180	-0.210	-0.460
2020/01/31 20:38:07.0	6.040	-0.180	-0.250	-0.480
2020/01/31 20:38:07.1	6.050	-0.170	-0.300	-0.510
2020/01/31 20:38:07.2	6.060	-0.170	-0.340	-0.530
2020/01/31 20:38:07.3	6.070	-0.160	-0.380	-0.550
2020/01/31 20:38:07.4	6.080	-0.150	-0.410	-0.560
2020/01/31 20:38:07.5	6.090	-0.140	-0.450	-0.570
2020/01/31 20:38:07.6	6.090	-0.130	-0.480	-0.580
2020/01/31 20:38:07.7	6.090	-0.120	-0.510	-0.590
2020/01/31 20:38:07.8	6.100	-0.100	-0.540	-0.590
2020/01/31 20:38:07.9	6.100	-0.090	-0.560	-0.590
2020/01/31 20:38:08.0	6.090	-0.080	-0.580	-0.590
2020/01/31 20:38:08.1	6.090	-0.070	-0.600	-0.580
2020/01/31 20:38:08.2	6.080	-0.060	-0.600	-0.570
2020/01/31 20:38:08.3	6.070	-0.050	-0.610	-0.550
2020/01/31 20:38:08.4	6.060	-0.040	-0.610	-0.530
2020/01/31 20:38:08.5	6.040	-0.030	-0.610	-0.510
2020/01/31 20:38:08.6	6.030	-0.020	-0.600	-0.480
2020/01/31 20:38:08.7	6.010	-0.010	-0.590	-0.460
2020/01/31 20:38:08.8	5.990	-0.010	-0.570	-0.420
2020/01/31 20:38:08.9	5.970	0.000	-0.550	-0.390
2020/01/31 20:38:09.0	5.950	0.000	-0.530	-0.350
2020/01/31 20:38:09.1	5.930	0.010	-0.500	-0.310
2020/01/31 20:38:09.2	5.900	0.010	-0.480	-0.270
2020/01/31 20:38:09.3	5.870	0.010	-0.440	-0.220
2020/01/31 20:38:09.4	5.840	0.010	-0.410	-0.170
2020/01/31 20:38:09.5	5.810	0.010	-0.380	-0.130
2020/01/31 20:38:09.6	5.770	0.010	-0.340	-0.080
2020/01/31 20:38:09.7	5.740	0.010	-0.300	-0.030
2020/01/31 20:38:09.8	5.700	0.010	-0.260	0.030
2020/01/31 20:38:09.9	5.670	0.010	-0.220	0.080
2020/01/31 20:38:10.0	5.640	0.010	-0.190	0.130
2020/01/31 20:38:10.1	5.600	0.010	-0.150	0.180
2020/01/31 20:38:10.2	5.570	0.010	-0.110	0.230
2020/01/31 20:38:10.3	5.540	0.020	-0.070	0.280
2020/01/31 20:38:10.4	5.510	0.020	-0.040	0.330
2020/01/31 20:38:10.5	5.480	0.020	-0.010	0.370
2020/01/31 20:38:10.6	5.450	0.030	0.020	0.410
2020/01/31 20:38:10.7	5.430	0.040	0.040	0.450
2020/01/31 20:38:10.8	5.410	0.040	0.070	0.480
2020/01/31 20:38:10.9	5.390	0.060	0.080	0.510
2020/01/31 20:38:11.0	5.390	0.070	0.090	0.540
2020/01/31 20:38:11.1	5.380	0.080	0.100	0.550
2020/01/31 20:38:11.2	5.370	0.100	0.110	0.570
2020/01/31 20:38:11.3	5.370	0.120	0.110	0.570
2020/01/31 20:38:11.4	5.370	0.140	0.100	0.580
2020/01/31 20:38:11.5	5.370	0.160	0.090	0.570
2020/01/31 20:38:11.6	5.380	0.180	0.080	0.560
2020/01/31 20:38:11.7	5.390	0.200	0.070	0.550
2020/01/31 20:38:11.8	5.410	0.220	0.050	0.530
2020/01/31 20:38:11.9	5.430	0.250	0.020	0.510
2020/01/31 20:38:12.0	5.440	0.270	-0.000	0.490
2020/01/31 20:38:12.1	5.460	0.290	-0.030	0.460
2020/01/31 20:38:12.2	5.490	0.320	-0.060	0.440
2020/01/31 20:38:12.3	5.510	0.340	-0.090	0.400
2020/01/31 20:38:12.4	5.540	0.350	-0.120	0.370
2020/01/31 20:38:12.5	5.570	0.370	-0.140	0.340
2020/01/31 20:38:12.6	5.590	0.380	-0.170	0.300
2020/01/31 20:38:12.7	5.620	0.390	-0.190	0.270
2020/01/31 20:38:12.8	5.650	0.390	-0.210	0.230
2020/01/31 20:38:12.9	5.670	0.390	-0.230	0.200
2020/01/31 20:38:13.0	5.690	0.390	-0.250	0.160
2020/01/31 20:38:13.1	5.710	0.380	-0.270	0.120
2020/01/31 20:38:13.2	5.730	0.370	-0.280	0.080
2020/01/31 20:38:13.3	5.750	0.350	-0.280	0.040
2020/01/31 20:38:13.4	5.770	0.330	-0.290	0.010
2020/01/31 20:38:13.5	5.790	0.300	-0.290	-0.030
2020/01/31 20:38:13.6	5.800	0.270	-0.290	-0.070
2020/01/31 20:38:13.7	5.820	0.240	-0.290	-0.110
2020/01/31 20:38:13.8	5.830	0.200	-0.280	-0.150
2020/01/31 20:38:13.9	5.840	0.160	-0.280	-0.180
2020/01/31 20:38:14.0	5.860	0.110	-0.270	-0.220
2020/01/31 20:38:14.1	5.870	0.060	-0.260	-0.260
2020/01/31 20:38:14.2	5.880	0.010	-0.250	-0.290
2020/01/31 20:38:14.3	5.890	-0.040	-0.250	-0.330
2020/01/31 20:38:14.4	5.900	-0.090	-0.240	-0.360
2020/01/31 20:38:14.5	5.900	-0.140	-0.240	-0.390
2020/01/31 20:38:14.6	5.910	-0.200	-0.230	-0.420
2020/01/31 20:38:14.7	5.920	-0.250	-0.230	-0.460
2020/01/31 20:38:14.8	5.920	-0.300	-0.230	-0.480
2020/01/31 20:38:14.9	5.930	-0.350	-0.230	-0.510
2020/01/31 20:38:15.0	5.940	-0.400	-0.230	-0.540
2020/01/31 20:38:15.1	5.950	-0.450	-0.240	-0.570
2020/01/31 20:38:15.2	5.950	-0.490	-0.240	-0.590
2020/01/31 20:38:15.3	5.960	-0.530	-0.250	-0.610
2020/01/31 20:38:15.4	5.960	-0.560	-0.260	-0.630
2020/01/31 20:38:15.5	5.960	-0.590	-0.280	-0.650
2020/01/31 20:38:15.6	5.960	-0.620	-0.290	-0.660
2020/01/31 20:38:15.7	5.970	-0.640	-0.300	-0.680
2020/01/31 20:38:15.8	5.970	-0.660	-0.320	-0.690
2020/01/31 20:38:15.9	5.970	-0.670	-0.330	-0.700
2020/01/31 20:38:16.0	5.960	-0.670	-0.350	-0.710
2020/01/31 20:38:16.1	5.960	-0.670	-0.370	-0.720
2020/01/31 20:38:16.2	5.960	-0.660	-0.390	-0.720
2020/01/31 20:38:16.3	5.960	-0.650	-0.400	-0.720
2020/01/31 20:38:16.4	5.960	-0.630	-0.410	-0.720
2020/01/31 20:38:16.5	5.950	-0.610	-0.430	-0.720
2020/01/31 20:38:16.6	5.950	-0.580	-0.440	-0.720
2020/01/31 20:38:16.7	5.950	-0.540	-0.450	-0.710
2020/01/31 20:38:16.8	5.950	-0.510	-0.450	-0.700
2020/01/31 20:38:16.9	5.950	-0.470	-0.460	-0.690
2020/01/31 20:38:17.0	5.950	-0.420	-0.460	-0.680
2020/01/31 20:38:17.1	5.950	-0.370	-0.470	-0.670
2020/01/31 20:38:17.2	5.950	-0.330	-0.460	-0.650
2020/01/31 20:38:17.3	5.950	-0.270	-0.460	-0.620
2020/01/31 20:38:17.4	5.950	-0.220	-0.450	-0.600
2020/01/31 20:38:17.5	5.950	-0.170	-0.440	-0.570
2020/01/31 20:38:17.6	5.940	-0.110	-0.430	-0.540
2020/01/31 20:38:17.7	5.940	-0.060	-0.420	-0.510
2020/01/31 20:38:17.8	5.940	-0.010	-0.410	-0.470
2020/01/31 20:38:17.9	5.940	0.040	-0.390	-0.430
2020/01/31 20:38:18.0	5.930	0.090	-0.380	-0.380
2020/01/31 20:38:18.1	5.920	0.140	-0.360	-0.340
2020/01/31 20:38:18.2	5.920	0.180	-0.340	-0.300
2020/01/31 20:38:18.3	5.910	0.220	-0.330	-0.250
2020/01/31 20:38:18.4	5.910	0.260	-0.310	-0.210
2020/01/31 20:38:18.5	5.900	0.290	-0.290	-0.160
2020/01/31 20:38:18.6	5.900	0.320	-0.270	-0.110
2020/01/31 20:38:18.7	5.890	0.350	-0.250	-0.060
2020/01/31 20:38:18.8	5.880	0.370	-0.230	-0.010
2020/01/31 20:38:18.9	5.870	0.390	-0.210	0.030
2020/01/31 20:38:19.0	5.850	0.400	-0.190	0.080
2020/01/31 20:38:19.1	5.840	0.410	-0.170	0.120
2020/01/31 20:38:19.2	5.830	0.420	-0.160	0.170
2020/01/31 20:38:19.3	5.810	0.420	-0.140	0.210
2020/01/31 20:38:19.4	5.800	0.420	-0.130	0.250
2020/01/31 20:38:19.5	5.790	0.420	-0.110	0.290
2020/01/31 20:38:19.6	5.770	0.410	-0.100	0.330
2020/01/31 20:38:19.7	5.750	0.400	-0.090	0.360
2020/01/31 20:38:19.8	5.730	0.390	-0.080	0.400
2020/01/31 20:38:19.9	5.710	0.370	-0.070	0.430
2020/01/31 20:38:20.0	5.700	0.360	-0.070	0.460
2020/01/31 20:38:20.1	5.670	0.340	-0.060	0.490
2020/01/31 20:38:20.2	5.650	0.320	-0.050	0.520
2020/01/31 20:38:20.3	5.620	0.300	-0.050	0.550
2020/01/31 20:38:20.4	5.600	0.290	-0.040	0.580
2020/01/31 20:38:20.5	5.570	0.270	-0.040	0.600
2020/01/31 20:38:20.6	5.550	0.250	-0.030	0.620
2020/01/31 20:38:20.7	5.520	0.230	-0.030	0.640
2020/01/31 20:38:20.8	5.490	0.220	-0.030	0.660
2020/01/31 20:38:20.9	5.470	0.200	-0.030	0.680
2020/01/31 20:38:21.0	5.440	0.190	-0.030	0.680
2020/01/31 20:38:21.1	5.420	0.180	-0.040	0.690
2020/01/31 20:38:21.2	5.400	0.170	-0.040	0.690
2020/01/31 20:38:21.3	5.380	0.160	-0.050	0.700
2020/01/31 20:38:21.4	5.360	0.160	-0.060	0.690
2020/01/31 20:38:21.5	5.340	0.160	-0.080	0.690
2020/01/31 20:38:21.6	5.330	0.160	-0.090	0.680
2020/01/31 20:38:21.7	5.310	0.160	-0.110	0.660
2020/01/31 20:38:21.8	5.300	0.160	-0.130	0.650
2020/01/31 20:38:21.9	5.290	0.170	-0.150	0.630
2020/01/31 20:38:22.0	5.280	0.170	-0.180	0.610
2020/01/31 20:38:22.1	5.280	0.180	-0.200	0.590
2020/01/31 20:38:22.2	5.280	0.190	-0.230	0.560
2020/01/31 20:38:22.3	5.280	0.200	-0.260	0.530
2020/01/31 20:38:22.4	5.280	0.210	-0.280	0.500
2020/01/31 20:38:22.5	5.290	0.220	-0.310	0.470
2020/01/31 20:38:22.6	5.290	0.230	-0.340	0.430
2020/01/31 20:38:22.7	5.300	0.240	-0.370	0.390
2020/01/31 20:38:22.8	5.320	0.250	-0.390	0.350
2020/01/31 20:38:22.9	5.330	0.260	-0.420	0.310
2020/01/31 20:38:23.0	5.360	0.270	-0.450	0.270
2020/01/31 20:38:23.1	5.380	0.270	-0.470	0.220
2020/01/31 20:38:23.2	5.410	0.280	-0.490	0.180
2020/01/31 20:38:23.3	5.430	0.280	-0.510	0.130
2020/01/31 20:38:23.4	5.460	0.280	-0.530	0.080
2020/01/31 20:38:23.5	5.480	0.280	-0.550	0.030
2020/01/31 20:38:23.6	5.510	0.270	-0.560	-0.030
2020/01/31 20:38:23.7	5.550	0.260	-0.580	-0.080
2020/01/31 20:38:23.8	5.580	0.250	-0.590	-0.140
2020/01/31 20:38:23.9	5.610	0.240	-0.590	-0.190
2020/01/31 20:38:24.0	5.640	0.220	-0.600	-0.250
2020/01/31 20:38:24.1	5.680	0.210	-0.600	-0.310
2020/01/31 20:38:24.2	5.710	0.190	-0.600	-0.360
2020/01/31 20:38:24.3	5.750	0.160	-0.600	-0.420
2020/01/31 20:38:24.4	5.790	0.130	-0.590	-0.480
2020/01/31 20:38:24.5	5.820	0.110	-0.580	-0.530
2020/01/31 20:38:24.6	5.850	0.070	-0.570	-0.590
2020/01/31 20:38:24.7	5.890	0.040	-0.560	-0.640
2020/01/31 20:38:24.8	5.920	0.000	-0.540	-0.690
2020/01/31 20:38:24.9	5.950	-0.040	-0.520	-0.740
2020/01/31 20:38:25.0	5.980	-0.080	-0.500	-0.790
2020/01/31 20:38:25.1	6.000	-0.120	-0.470	-0.830
2020/01/31 20:38:25.2	6.020	-0.160	-0.440	-0.870
2020/01/31 20:38:25.3	6.040	-0.210	-0.410	-0.910
2020/01/31 20:38:25.4	6.060	-0.250	-0.380	-0.940
2020/01/31 20:38:25.5	6.070	-0.300	-0.340	-0.970
2020/01/31 20:38:25.6	6.080	-0.340	-0.300	-1.000
2020/01/31 20:38:25.7	6.080	-0.390	-0.260	-1.020
2020/01/31 20:38:25.8	6.080	-0.430	-0.220	-1.030
2020/01/31 20:38:25.9	6.080	-0.480	-0.180	-1.040
2020/01/31 20:38:26.0	6.090	-0.520	-0.130	-1.040
2020/01/31 20:38:26.1	6.080	-0.560	-0.090	-1.040
2020/01/31 20:38:26.2	6.060	-0.600	-0.040	-1.040
2020/01/31 20:38:26.3	6.050	-0.640	0.000	-1.030
2020/01/31 20:38:26.4	6.030	-0.670	0.050	-1.020
2020/01/31 20:38:26.5	6.010	-0.710	0.090	-1.000
2020/01/31 20:38:26.6	5.980	-0.730	0.140	-0.980
2020/01/31 20:38:26.7	5.960	-0.760	0.180	-0.960
2020/01/31 20:38:26.8	5.930	-0.780	0.220	-0.930
2020/01/31 20:38:26.9	5.900	-0.800	0.260	-0.910
2020/01/31 20:38:27.0	5.870	-0.810	0.290	-0.880
2020/01/31 20:38:27.1	5.840	-0.820	0.320	-0.840
2020/01/31 20:38:27.2	5.810	-0.820	0.340	-0.810
2020/01/31 20:38:27.3	5.780	-0.820	0.360	-0.770
2020/01/31 20:38:27.4	5.750	-0.810	0.380	-0.740
2020/01/31 20:38:27.5	5.720	-0.790	0.390	-0.700
2020/01/31 20:38:27.6	5.700	-0.780	0.390	-0.660
2020/01/31 20:38:27.7	5.670	-0.750	0.390	-0.620
2020/01/31 20:38:27.8	5.650	-0.720	0.380	-0.580
2020/01/31 20:38:27.9	5.630	-0.690	0.360	-0.540
2020/01/31 20:38:28.0	5.610	-0.650	0.350	-0.500
2020/01/31 20:38:28.1	5.600	-0.600	0.320	-0.460
2020/01/31 20:38:28.2	5.580	-0.550	0.280	-0.420
2020/01/31 20:38:28.3	5.570	-0.490	0.250	-0.370
2020/01/31 20:38:28.4	5.570	-0.430	0.200	-0.330
2020/01/31 20:38:28.5	5.560	-0.370	0.150	-0.290
2020/01/31 20:38:28.6	5.560	-0.300	0.100	-0.250
2020/01/31 20:38:28.7	5.560	-0.230	0.040	-0.210
2020/01/31 20:38:28.8	5.560	-0.150	-0.020	-0.170
2020/01/31 20:38:28.9	5.570	-0.070	-0.080	-0.130
2020/01/31 20:38:29.0	5.580	0.000	-0.150	-0.090
2020/01/31 20:38:29.1	5.590	0.080	-0.220	-0.050
2020/01/31 20:38:29.2	5.600	0.160	-0.290	-0.010
2020/01/31 20:38:29.3	5.620	0.240	-0.350	0.020
2020/01/31 20:38:29.4	5.630	0.320	-0.420	0.060
2020/01/31 20:38:29.5	5.650	0.400	-0.480	0.100
2020/01/31 20:38:29.6	5.670	0.470	-0.550	0.130
2020/01/31 20:38:29.7	5.680	0.540	-0.600	0.170
2020/01/31 20:38:29.8	5.700	0.610	-0.660	0.200
2020/01/31 20:38:29.9	5.720	0.670	-0.710	0.230
2020/01/31 20:38:30.0	5.730	0.730	-0.760	0.270
2020/01/31 20:38:30.1	5.740	0.780	-0.800	0.290
2020/01/31 20:38:30.2	5.760	0.820	-0.840	0.320
2020/01/31 20:38:30.3	5.770	0.860	-0.870	0.350
2020/01/31 20:38:30.4	5.780	0.890	-0.890	0.370
2020/01/31 20:38:30.5	5.790	0.920	-0.910	0.390
2020/01/31 20:38:30.6	5.800	0.940	-0.920	0.410
2020/01/31 20:38:30.7	5.800	0.950	-0.920	0.430
2020/01/31 20:38:30.8	5.800	0.950	-0.910	0.440
2020/01/31 20:38:30.9	5.800	0.950	-0.900	0.460
2020/01/31 20:38:31.0	5.790	0.930	-0.880	0.470
2020/01/31 20:38:31.1	5.780	0.910	-0.860	0.480
2020/01/31 20:38:31.2	5.770	0.890	-0.820	0.490
2020/01/31 20:38:31.3	5.750	0.850	-0.790	0.500
2020/01/31 20:38:31.4	5.740	0.810	-0.740	0.500
2020/01/31 20:38:31.5	5.720	0.770	-0.690	0.500
2020/01/31 20:38:31.6	5.690	0.720	-0.640	0.500
2020/01/31 20:38:31.7	5.670	0.660	-0.580	0.500
2020/01/31 20:38:31.8	5.640	0.600	-0.520	0.490
2020/01/31 20:38:31.9	5.610	0.530	-0.450	0.480
2020/01/31 20:38:32.0	5.600	0.470	-0.390	0.470
2020/01/31 20:38:32.1	5.570	0.400	-0.320	0.460
2020/01/31 20:38:32.2	5.540	0.320	-0.260	0.440
2020/01/31 20:38:32.3	5.510	0.250	-0.200	0.420
2020/01/31 20:38:32.4	5.480	0.180	-0.130	0.400
2020/01/31 20:38:32.5	5.450	0.100	-0.080	0.370
2020/01/31 20:38:32.6	5.420	0.030	-0.020	0.340
2020/01/31 20:38:32.7	5.390	-0.040	0.030	0.310
2020/01/31 20:38:32.8	5.360	-0.100	0.080	0.280
2020/01/31 20:38:32.9	5.330	-0.170	0.120	0.240
2020/01/31 20:38:33.0	5.310	-0.230	0.150	0.200
2020/01/31 20:38:33.1	5.290	-0.280	0.170	0.150
2020/01/31 20:38:33.2	5.270	-0.330	0.200	0.110
2020/01/31 20:38:33.3	5.250	-0.380	0.210	0.060
2020/01/31 20:38:33.4	5.240	-0.420	0.220	0.010
2020/01/31 20:38:33.5	5.220	-0.450	0.220	-0.040
2020/01/31 20:38:33.6	5.210	-0.480	0.210	-0.090
2020/01/31 20:38:33.7	5.200	-0.500	0.200	-0.140
2020/01/31 20:38:33.8	5.190	-0.510	0.180	-0.190
2020/01/31 20:38:33.9	5.180	-0.520	0.160	-0.240
2020/01/31 20:38:34.0	5.180	-0.520	0.140	-0.300
2020/01/31 20:38:34.1	5.180	-0.520	0.100	-0.350
2020/01/31 20:38:34.2	5.170	-0.510	0.070	-0.400
2020/01/31 20:38:34.3	5.170	-0.490	0.030	-0.440
2020/01/31 20:38:34.4	5.180	-0.470	-0.010	-0.490
2020/01/31 20:38:34.5	5.180	-0.450	-0.050	-0.540
2020/01/31 20:38:34.6	5.180	-0.420	-0.100	-0.580
2020/01/31 20:38:34.7	5.190	-0.390	-0.140	-0.620
2020/01/31 20:38:34.8	5.200	-0.350	-0.190	-0.660
2020/01/31 20:38:34.9	5.210	-0.310	-0.230	-0.700
2020/01/31 20:38:35.0	5.230	-0.270	-0.280	-0.740
2020/01/31 20:38:35.1	5.250	-0.230	-0.320	-0.770
2020/01/31 20:38:35.2	5.270	-0.190	-0.360	-0.800
2020/01/31 20:38:35.3	5.290	-0.140	-0.400	-0.830
2020/01/31 20:38:35.4	5.310	-0.100	-0.440	-0.860
2020/01/31 20:38:35.5	5.330	-0.060	-0.480	-0.880
2020/01/31 20:38:35.6	5.360	-0.020	-0.510	-0.910
2020/01/31 20:38:35.7	5.380	0.030	-0.540	-0.920
2020/01/31 20:38:35.8	5.410	0.060	-0.570	-0.940
2020/01/31 20:38:35.9	5.440	0.100	-0.590	-0.950
2020/01/31 20:38:36.0	5.480	0.140	-0.610	-0.960
2020/01/31 20:38:36.1	5.510	0.170	-0.630	-0.960
2020/01/31 20:38:36.2	5.540	0.190	-0.640	-0.960
2020/01/31 20:38:36.3	5.580	0.220	-0.650	-0.960
2020/01/31 20:38:36.4	5.610	0.240	-0.650	-0.950
2020/01/31 20:38:36.5	5.640	0.260	-0.650	-0.940
2020/01/31 20:38:36.6	5.680	0.270	-0.650	-0.930
2020/01/31 20:38:36.7	5.710	0.280	-0.640	-0.910
2020/01/31 20:38:36.8	5.740	0.280	-0.630	-0.890
2020/01/31 20:38:36.9	5.770	0.280	-0.610	-0.870
2020/01/31 20:38:37.0	5.800	0.270	-0.590	-0.840
2020/01/31 20:38:37.1	5.830	0.270	-0.560	-0.810
2020/01/31 20:38:37.2	5.850	0.250	-0.530	-0.780
2020/01/31 20:38:37.3	5.870	0.240	-0.490	-0.750
2020/01/31 20:38:37.4	5.890	0.220	-0.460	-0.720
2020/01/31 20:38:37.5	5.900	0.190	-0.420	-0.680
2020/01/31 20:38:37.6	5.910	0.170	-0.370	-0.650
2020/01/31 20:38:37.7	5.920	0.140	-0.330	-0.620
2020/01/31 20:38:37.8	5.930	0.110	-0.280	-0.580
2020/01/31 20:38:37.9	5.930	0.080	-0.230	-0.540
2020/01/31 20:38:38.0	5.930	0.050	-0.180	-0.510
2020/01/31 20:38:38.1	5.920	0.010	-0.130	-0.470
2020/01/31 20:38:38.2	5.920	-0.020	-0.080	-0.430
2020/01/31 20:38:38.3	5.910	-0.050	-0.030	-0.390
2020/01/31 20:38:38.4	5.910	-0.090	0.020	-0.350
2020/01/31 20:38:38.5	5.900	-0.120	0.070	-0.310
2020/01/31 20:38:38.6	5.880	-0.150	0.120	-0.270
2020/01/31 20:38:38.7	5.870	-0.180	0.160	-0.230
2020/01/31 20:38:38.8	5.860	-0.210	0.210	-0.190
2020/01/31 20:38:38.9	5.850	-0.230	0.250	-0.150
2020/01/31 20:38:39.0	5.830	-0.260	0.290	-0.110
2020/01/31 20:38:39.1	5.810	-0.280	0.320	-0.070
2020/01/31 20:38:39.2	5.800	-0.300	0.350	-0.040
2020/01/31 20:38:39.3	5.780	-0.320	0.380	0.000
2020/01/31 20:38:39.4	5.770	-0.330	0.400	0.030
2020/01/31 20:38:39.5	5.750	-0.340	0.420	0.070
2020/01/31 20:38:39.6	5.740	-0.350	0.430	0.100
2020/01/31 20:38:39.7	5.720	-0.360	0.440	0.130
2020/01/31 20:38:39.8	5.700	-0.360	0.440	0.160
2020/01/31 20:38:39.9	5.690	-0.360	0.440	0.180
2020/01/31 20:38:40.0	5.680	-0.360	0.430	0.210
2020/01/31 20:38:40.1	5.660	-0.360	0.420	0.240
2020/01/31 20:38:40.2	5.650	-0.360	0.400	0.260
2020/01/31 20:38:40.3	5.630	-0.350	0.380	0.280
2020/01/31 20:38:40.4	5.610	-0.340	0.360	0.300
2020/01/31 20:38:40.5	5.590	-0.330	0.330	0.310
2020/01/31 20:38:40.6	5.580	-0.320	0.300	0.330
2020/01/31 20:38:40.7	5.560	-0.310	0.260	0.340
2020/01/31 20:38:40.8	5.540	-0.290	0.220	0.350
2020/01/31 20:38:40.9	5.530	-0.280	0.180	0.360
2020/01/31 20:38:41.0	5.520	-0.260	0.130	0.360
2020/01/31 20:38:41.1	5.500	-0.250	0.080	0.360
2020/01/31 20:38:41.2	5.490	-0.230	0.030	0.360
2020/01/31 20:38:41.3	5.480	-0.210	-0.020	0.360
2020/01/31 20:38:41.4	5.470	-0.190	-0.080	0.350
2020/01/31 20:38:41.5	5.450	-0.170	-0.130	0.350
2020/01/31 20:38:41.6	5.440	-0.150	-0.190	0.340
2020/01/31 20:38:41.7	5.440	-0.130	-0.250	0.330
2020/01/31 20:38:41.8	5.430	-0.110	-0.300	0.320
2020/01/31 20:38:41.9	5.420	-0.090	-0.360	0.310
2020/01/31 20:38:42.0	5.410	-0.070	-0.420	0.290
2020/01/31 20:38:42.1	5.400	-0.050	-0.470	0.270
2020/01/31 20:38:42.2	5.400	-0.030	-0.530	0.260
2020/01/31 20:38:42.3	5.400	-0.010	-0.580	0.250
2020/01/31 20:38:42.4	5.390	0.010	-0.630	0.230
2020/01/31 20:38:42.5	5.390	0.030	-0.680	0.220
2020/01/31 20:38:42.6	5.400	0.050	-0.720	0.200
2020/01/31 20:38:42.7	5.400	0.070	-0.770	0.180
2020/01/31 20:38:42.8	5.400	0.090	-0.810	0.170
2020/01/31 20:38:42.9	5.410	0.110	-0.850	0.150
2020/01/31 20:38:43.0	5.420	0.130	-0.880	0.130
2020/01/31 20:38:43.1	5.430	0.150	-0.910	0.110
2020/01/31 20:38:43.2	5.440	0.170	-0.940	0.090
2020/01/31 20:38:43.3	5.450	0.190	-0.970	0.080
2020/01/31 20:38:43.4	5.460	0.210	-0.990	0.060
2020/01/31 20:38:43.5	5.480	0.230	-1.010	0.040
2020/01/31 20:38:43.6	5.490	0.240	-1.020	0.020
2020/01/31 20:38:43.7	5.510	0.260	-1.030	-0.000
2020/01/31 20:38:43.8	5.520	0.270	-1.040	-0.030
2020/01/31 20:38:43.9	5.540	0.290	-1.040	-0.050
2020/01/31 20:38:44.0	5.570	0.300	-1.040	-0.070
2020/01/31 20:38:44.1	5.590	0.310	-1.040	-0.090
2020/01/31 20:38:44.2	5.610	0.320	-1.030	-0.120
2020/01/31 20:38:44.3	5.640	0.330	-1.020	-0.140
2020/01/31 20:38:44.4	5.660	0.340	-1.000	-0.170
2020/01/31 20:38:44.5	5.680	0.350	-0.980	-0.190
2020/01/31 20:38:44.6	5.710	0.350	-0.960	-0.220
2020/01/31 20:38:44.7	5.730	0.360	-0.930	-0.240
2020/01/31 20:38:44.8	5.760	0.360	-0.900	-0.270
2020/01/31 20:38:44.9	5.780	0.360	-0.860	-0.290
2020/01/31 20:38:45.0	5.820	0.360	-0.820	-0.320
2020/01/31 20:38:45.1	5.840	0.360	-0.780	-0.340
2020/01/31 20:38:45.2	5.870	0.360	-0.730	-0.360
2020/01/31 20:38:45.3	5.890	0.350	-0.680	-0.380
2020/01/31 20:38:45.4	5.920	0.350	-0.630	-0.400
2020/01/31 20:38:45.5	5.940	0.340	-0.570	-0.410
2020/01/31 20:38:45.6	5.960	0.330	-0.510	-0.420
2020/01/31 20:38:45.7	5.980	0.330	-0.450	-0.430
2020/01/31 20:38:45.8	6.000	0.320	-0.390	-0.440
2020/01/31 20:38:45.9	6.020	0.300	-0.320	-0.440
2020/01/31 20:38:46.0	6.030	0.290	-0.260	-0.440
2020/01/31 20:38:46.1	6.050	0.280	-0.190	-0.440
2020/01/31 20:38:46.2	6.060	0.270	-0.130	-0.440
2020/01/31 20:38:46.3	6.080	0.250	-0.060	-0.430
2020/01/31 20:38:46.4	6.090	0.230	0.000	-0.420
2020/01/31 20:38:46.5	6.100	0.220	0.060	-0.410
2020/01/31 20:38:46.6	6.110	0.200	0.120	-0.400
2020/01/31 20:38:46.7	6.130	0.180	0.180	-0.380
2020/01/31 20:38:46.8	6.130	0.160	0.230	-0.370
2020/01/31 20:38:46.9	6.140	0.140	0.280	-0.350
2020/01/31 20:38:47.0	6.140	0.120	0.330	-0.330
2020/01/31 20:38:47.1	6.150	0.100	0.370	-0.320
2020/01/31 20:38:47.2	6.160	0.080	0.410	-0.300
2020/01/31 20:38:47.3	6.160	0.060	0.440	-0.280
2020/01/31 20:38:47.4	6.170	0.040	0.470	-0.260
2020/01/31 20:38:47.5	6.170	0.020	0.490	-0.240
2020/01/31 20:38:47.6	6.180	0.000	0.510	-0.220
2020/01/31 20:38:47.7	6.180	-0.020	0.520	-0.200
2020/01/31 20:38:47.8	6.180	-0.040	0.530	-0.180
2020/01/31 20:38:47.9	6.190	-0.060	0.530	-0.160
2020/01/31 20:38:48.0	6.190	-0.070	0.520	-0.140
2020/01/31 20:38:48.1	6.190	-0.090	0.510	-0.120
2020/01/31 20:38:48.2	6.190	-0.110	0.490	-0.100
2020/01/31 20:38:48.3	6.180	-0.120	0.480	-0.080
2020/01/31 20:38:48.4	6.180	-0.130	0.450	-0.060
2020/01/31 20:38:48.5	6.180	-0.150	0.430	-0.040
2020/01/31 20:38:48.6	6.170	-0.160	0.390	-0.020
2020/01/31 20:38:48.7	6.170	-0.170	0.360	0.000
2020/01/31 20:38:48.8	6.160	-0.180	0.320	0.020
2020/01/31 20:38:48.9	6.150	-0.190	0.280	0.040
2020/01/31 20:38:49.0	6.130	-0.200	0.240	0.050
2020/01/31 20:38:49.1	6.130	-0.200	0.190	0.060
2020/01/31 20:38:49.2	6.120	-0.210	0.150	0.070
2020/01/31 20:38:49.3	6.110	-0.210	0.100	0.080
2020/01/31 20:38:49.4	6.110	-0.210	0.050	0.090
2020/01/31 20:38:49.5	6.100	-0.220	-0.010	0.100
2020/01/31 20:38:49.6	6.090	-0.220	-0.060	0.100
2020/01/31 20:38:49.7	6.090	-0.220	-0.110	0.100
2020/01/31 20:38:49.8	6.080	-0.220	-0.160	0.100
2020/01/31 20:38:49.9	6.070	-0.220	-0.210	0.100
2020/01/31 20:38:50.0	6.060	-0.210	-0.260	0.100
2020/01/31 20:38:50.1	6.050	-0.210	-0.310	0.100
2020/01/31 20:38:50.2	6.040	-0.210	-0.350	0.090
2020/01/31 20:38:50.3	6.030	-0.210	-0.390	0.090
2020/01/31 20:38:50.4	6.020	-0.200	-0.430	0.080
2020/01/31 20:38:50.5	6.010	-0.200	-0.460	0.080
2020/01/31 20:38:50.6	5.990	-0.190	-0.490	0.070
2020/01/31 20:38:50.7	5.980	-0.190	-0.520	0.070
2020/01/31 20:38:50.8	5.970	-0.180	-0.550	0.070
2020/01/31 20:38:50.9	5.950	-0.180	-0.560	0.060
2020/01/31 20:38:51.0	5.960	-0.170	-0.580	0.060
2020/01/31 20:38:51.1	5.950	-0.170	-0.590	0.050
2020/01/31 20:38:51.2	5.930	-0.170	-0.600	0.050
2020/01/31 20:38:51.3	5.920	-0.160	-0.600	0.040
2020/01/31 20:38:51.4	5.910	-0.160	-0.610	0.030
2020/01/31 20:38:51.5	5.890	-0.150	-0.600	0.030
2020/01/31 20:38:51.6	5.880	-0.150	-0.600	0.020
2020/01/31 20:38:51.7	5.870	-0.140	-0.600	0.010
2020/01/31 20:38:51.8	5.860	-0.140	-0.590	-0.000
2020/01/31 20:38:51.9	5.860	-0.130	-0.580	-0.010
2020/01/31 20:38:52.0	5.850	-0.130	-0.570	-0.030
2020/01/31 20:38:52.1	5.850	-0.120	-0.560	-0.040
2020/01/31 20:38:52.2	5.840	-0.110	-0.550	-0.060
2020/01/31 20:38:52.3	5.840	-0.110	-0.540	-0.080
2020/01/31 20:38:52.4	5.840	-0.100	-0.530	-0.100
2020/01/31 20:38:52.5	5.840	-0.090	-0.520	-0.130
2020/01/31 20:38:52.6	5.850	-0.080	-0.510	-0.150
2020/01/31 20:38:52.7	5.850	-0.070	-0.500	-0.180
2020/01/31 20:38:52.8	5.860	-0.060	-0.490	-0.200
2020/01/31 20:38:52.9	5.870	-0.050	-0.480	-0.230
2020/01/31 20:38:53.0	5.880	-0.040	-0.470	-0.260
2020/01/31 20:38:53.1	5.890	-0.020	-0.470	-0.290
2020/01/31 20:38:53.2	5.910	-0.010	-0.460	-0.320
2020/01/31 20:38:53.3	5.930	0.010	-0.460	-0.350
2020/01/31 20:38:53.4	5.950	0.030	-0.460	-0.390
2020/01/31 20:38:53.5	5.970	0.040	-0.450	-0.420
2020/01/31 20:38:53.6	5.990	0.060	-0.450	-0.450
2020/01/31 20:38:53.7	6.020	0.080	-0.450	-0.470
2020/01/31 20:38:53.8	6.040	0.100	-0.450	-0.500
2020/01/31 20:38:53.9	6.070	0.110	-0.450	-0.530
2020/01/31 20:38:54.0	6.080	0.130	-0.450	-0.560
2020/01/31 20:38:54.1	6.110	0.150	-0.450	-0.580
2020/01/31 20:38:54.2	6.140	0.170	-0.440	-0.600
2020/01/31 20:38:54.3	6.160	0.190	-0.440	-0.620
2020/01/31 20:38:54.4	6.190	0.200	-0.430	-0.630
2020/01/31 20:38:54.5	6.220	0.220	-0.430	-0.640
2020/01/31 20:38:54.6	6.240	0.230	-0.420	-0.650
2020/01/31 20:38:54.7	6.270	0.250	-0.410	-0.660
2020/01/31 20:38:54.8	6.290	0.260	-0.400	-0.660
2020/01/31 20:38:54.9	6.320	0.270	-0.380	-0.650
2020/01/31 20:38:55.0	6.350	0.280	-0.370	-0.650
2020/01/31 20:38:55.1	6.370	0.280	-0.350	-0.640
2020/01/31 20:38:55.2	6.390	0.290	-0.330	-0.630
2020/01/31 20:38:55.3	6.400	0.290	-0.310	-0.610
2020/01/31 20:38:55.4	6.420	0.290	-0.290	-0.590
2020/01/31 20:38:55.5	6.440	0.290	-0.260	-0.580
2020/01/31 20:38:55.6	6.450	0.290	-0.240	-0.550
2020/01/31 20:38:55.7	6.470	0.280	-0.210	-0.530
2020/01/31 20:38:55.8	6.480	0.280	-0.180	-0.510
2020/01/31 20:38:55.9	6.500	0.270	-0.160	-0.480
2020/01/31 20:38:56.0	6.500	0.260	-0.130	-0.460
2020/01/31 20:38:56.1	6.520	0.250	-0.100	-0.430
2020/01/31 20:38:56.2	6.530	0.230	-0.070	-0.400
2020/01/31 20:38:56.3	6.540	0.220	-0.040	-0.370
2020/01/31 20:38:56.4	6.550	0.200	-0.010	-0.340
2020/01/31 20:38:56.5	6.560	0.180	0.020	-0.310
2020/01/31 20:38:56.6	6.560	0.170	0.050	-0.280
2020/01/31 20:38:56.7	6.570	0.150	0.080	-0.250
2020/01/31 20:38:56.8	6.570	0.120	0.110	-0.220
2020/01/31 20:38:56.9	6.580	0.100	0.130	-0.180
2020/01/31 20:38:57.0	6.590	0.080	0.160	-0.150
2020/01/31 20:38:57.1	6.590	0.060	0.180	-0.120
2020/01/31 20:38:57.2	6.590	0.040	0.200	-0.090
2020/01/31 20:38:57.3	6.590	0.010	0.220	-0.060
2020/01/31 20:38:57.4	6.590	-0.010	0.240	-0.030
2020/01/31 20:38:57.5	6.580	-0.030	0.250	-0.010
2020/01/31 20:38:57.6	6.580	-0.060	0.260	0.020
2020/01/31 20:38:57.7	6.570	-0.080	0.270	0.040
2020/01/31 20:38:57.8	6.560	-0.100	0.270	0.060
2020/01/31 20:38:57.9	6.550	-0.120	0.270	0.070
2020/01/31 20:38:58.0	6.540	-0.140	0.260	0.090
2020/01/31 20:38:58.1	6.530	-0.160	0.250	0.100
2020/01/31 20:38:58.2	6.520	-0.180	0.240	0.100
2020/01/31 20:38:58.3	6.510	-0.200	0.220	0.110
2020/01/31 20:38:58.4	6.490	-0.210	0.190	0.110
2020/01/31 20:38:58.5	6.480	-0.220	0.170	0.110
2020/01/31 20:38:58.6	6.470	-0.240	0.140	0.100
2020/01/31 20:38:58.7	6.450	-0.250	0.100	0.100
2020/01/31 20:38:58.8	6.440	-0.250	0.060	0.090
2020/01/31 20:38:58.9	6.420	-0.260	0.020	0.070
2020/01/31 20:38:59.0	6.410	-0.260	-0.030	0.060
2020/01/31 20:38:59.1	6.400	-0.260	-0.080	0.040
2020/01/31 20:38:59.2	6.380	-0.260	-0.130	0.020
2020/01/31 20:38:59.3	6.370	-0.260	-0.180	0.000
2020/01/31 20:38:59.4	6.350	-0.250	-0.230	-0.020
2020/01/31 20:38:59.5	6.340	-0.250	-0.280	-0.030
2020/01/31 20:38:59.6	6.330	-0.230	-0.340	-0.050
2020/01/31 20:38:59.7	6.310	-0.220	-0.390	-0.070
2020/01/31 20:38:59.8	6.300	-0.210	-0.440	-0.090
2020/01/31 20:38:59.9	6.290	-0.190	-0.490	-0.100
2020/01/31 20:39:00.0	6.270	-0.170	-0.540	-0.110
2020/01/31 20:39:00.1	6.250	-0.150	-0.580	-0.120
2020/01/31 20:39:00.2	6.240	-0.130	-0.620	-0.120
2020/01/31 20:39:00.3	6.220	-0.110	-0.660	-0.130
2020/01/31 20:39:00.4	6.210	-0.090	-0.690	-0.130
2020/01/31 20:39:00.5	6.190	-0.070	-0.710	-0.120
2020/01/31 20:39:00.6	6.170	-0.040	-0.740	-0.120
2020/01/31 20:39:00.7	6.150	-0.020	-0.750	-0.110
2020/01/31 20:39:00.8	6.140	0.010	-0.770	-0.100
2020/01/31 20:39:00.9	6.120	0.030	-0.770	-0.090
2020/01/31 20:39:01.0	6.090	0.050	-0.780	-0.080
2020/01/31 20:39:01.1	6.070	0.070	-0.780	-0.060
2020/01/31 20:39:01.2	6.050	0.090	-0.770	-0.050
2020/01/31 20:39:01.3	6.030	0.110	-0.760	-0.030
2020/01/31 20:39:01.4	6.010	0.130	-0.740	-0.010
2020/01/31 20:39:01.5	5.990	0.140	-0.720	0.000
2020/01/31 20:39:01.6	5.970	0.160	-0.700	0.020
2020/01/31 20:39:01.7	5.950	0.170	-0.680	0.030
2020/01/31 20:39:01.8	5.940	0.170	-0.650	0.040
2020/01/31 20:39:01.9	5.920	0.180	-0.620	0.060
2020/01/31 20:39:02.0	5.910	0.190	-0.590	0.070
2020/01/31 20:39:02.1	5.890	0.190	-0.560	0.070
2020/01/31 20:39:02.2	5.890	0.190	-0.520	0.080
2020/01/31 20:39:02.3	5.880	0.180	-0.490	0.080
2020/01/31 20:39:02.4	5.880	0.180	-0.460	0.080
2020/01/31 20:39:02.5	5.880	0.170	-0.420	0.080
2020/01/31 20:39:02.6	5.880	0.170	-0.390	0.070
2020/01/31 20:39:02.7	5.890	0.160	-0.360	0.060
2020/01/31 20:39:02.8	5.900	0.150	-0.330	0.050
2020/01/31 20:39:02.9	5.910	0.140	-0.300	0.040
2020/01/31 20:39:03.0	5.940	0.130	-0.280	0.020
2020/01/31 20:39:03.1	5.960	0.110	-0.250	-0.000
2020/01/31 20:39:03.2	5.980	0.100	-0.230	-0.020
2020/01/31 20:39:03.3	6.010	0.090	-0.210	-0.050
2020/01/31 20:39:03.4	6.050	0.070	-0.200	-0.080
2020/01/31 20:39:03.5	6.080	0.060	-0.180	-0.110
2020/01/31 20:39:03.6	6.120	0.050	-0.170	-0.150
2020/01/31 20:39:03.7	6.160	0.030	-0.160	-0.180
2020/01/31 20:39:03.8	6.210	0.020	-0.160	-0.220
2020/01/31 20:39:03.9	6.250	0.010	-0.150	-0.260
2020/01/31 20:39:04.0	6.300	0.000	-0.150	-0.300
2020/01/31 20:39:04.1	6.340	-0.010	-0.150	-0.340
2020/01/31 20:39:04.2	6.390	-0.020	-0.150	-0.380
2020/01/31 20:39:04.3	6.440	-0.030	-0.150	-0.420
2020/01/31 20:39:04.4	6.480	-0.030	-0.160	-0.460
2020/01/31 20:39:04.5	6.530	-0.040	-0.160	-0.490
2020/01/31 20:39:04.6	6.570	-0.040	-0.170	-0.530
2020/01/31 20:39:04.7	6.610	-0.050	-0.170	-0.560
2020/01/31 20:39:04.8	6.650	-0.050	-0.180	-0.590
2020/01/31 20:39:04.9	6.690	-0.050	-0.180	-0.620
2020/01/31 20:39:05.0	6.720	-0.050	-0.190	-0.650
2020/01/31 20:39:05.1	6.750	-0.050	-0.190	-0.670
2020/01/31 20:39:05.2	6.780	-0.040	-0.200	-0.690
2020/01/31 20:39:05.3	6.800	-0.040	-0.200	-0.700
2020/01/31 20:39:05.4	6.820	-0.040	-0.200	-0.710
2020/01/31 20:39:05.5	6.830	-0.030	-0.200	-0.720
2020/01/31 20:39:05.6	6.850	-0.020	-0.200	-0.720
2020/01/31 20:39:05.7	6.850	-0.020	-0.200	-0.710
2020/01/31 20:39:05.8	6.850	-0.010	-0.190	-0.710
2020/01/31 20:39:05.9	6.850	-0.000	-0.190	-0.690
2020/01/31 20:39:06.0	6.840	0.000	-0.190	-0.680
2020/01/31 20:39:06.1	6.830	0.010	-0.180	-0.660
2020/01/31 20:39:06.2	6.810	0.020	-0.180	-0.640
2020/01/31 20:39:06.3	6.800	0.020	-0.180	-0.620
2020/01/31 20:39:06.4	6.780	0.030	-0.170	-0.600
2020/01/31 20:39:06.5	6.750	0.040	-0.170	-0.580
2020/01/31 20:39:06.6	6.730	0.040	-0.160	-0.560
2020/01/31 20:39:06.7	6.710	0.050	-0.160	-0.540
2020/01/31 20:39:06.8	6.680	0.050	-0.160	-0.520
2020/01/31 20:39:06.9	6.650	0.050	-0.150	-0.500
2020/01/31 20:39:07.0	6.620	0.060	-0.150	-0.480
2020/01/31 20:39:07.1	6.590	0.060	-0.150	-0.460
2020/01/31 20:39:07.2	6.570	0.060	-0.140	-0.450
2020/01/31 20:39:07.3	6.540	0.060	-0.140	-0.430
2020/01/31 20:39:07.4	6.510	0.070	-0.140	-0.420
2020/01/31 20:39:07.5	6.480	0.070	-0.130	-0.400
2020/01/31 20:39:07.6	6.450	0.070	-0.130	-0.380
2020/01/31 20:39:07.7	6.430	0.070	-0.120	-0.370
2020/01/31 20:39:07.8	6.400	0.070	-0.110	-0.350
2020/01/31 20:39:07.9	6.370	0.070	-0.100	-0.340
2020/01/31 20:39:08.0	6.350	0.060	-0.090	-0.320
2020/01/31 20:39:08.1	6.330	0.060	-0.080	-0.310
2020/01/31 20:39:08.2	6.300	0.060	-0.060	-0.290
2020/01/31 20:39:08.3	6.270	0.060	-0.050	-0.270
2020/01/31 20:39:08.4	6.240	0.050	-0.020	-0.250
2020/01/31 20:39:08.5	6.210	0.040	-0.000	-0.230
2020/01/31 20:39:08.6	6.180	0.040	0.030	-0.210
2020/01/31 20:39:08.7	6.140	0.030	0.050	-0.190
2020/01/31 20:39:08.8	6.110	0.020	0.080	-0.170
2020/01/31 20:39:08.9	6.080	0.010	0.120	-0.140
2020/01/31 20:39:09.0	6.030	0.000	0.150	-0.120
2020/01/31 20:39:09.1	6.000	-0.010	0.180	-0.090
2020/01/31 20:39:09.2	5.960	-0.020	0.210	-0.060
2020/01/31 20:39:09.3	5.920	-0.040	0.250	-0.040
2020/01/31 20:39:09.4	5.890	-0.050	0.280	-0.010
2020/01/31 20:39:09.5	5.850	-0.070	0.310	0.010
2020/01/31 20:39:09.6	5.820	-0.080	0.330	0.030
2020/01/31 20:39:09.7	5.780	-0.100	0.350	0.060
2020/01/31 20:39:09.8	5.750	-0.120	0.370	0.070
2020/01/31 20:39:09.9	5.720	-0.130	0.380	0.090
2020/01/31 20:39:10.0	5.700	-0.150	0.390	0.110
2020/01/31 20:39:10.1	5.670	-0.170	0.390	0.120
2020/01/31 20:39:10.2	5.650	-0.180	0.380	0.130
2020/01/31 20:39:10.3	5.630	-0.190	0.370	0.140
2020/01/31 20:39:10.4	5.610	-0.210	0.350	0.140
2020/01/31 20:39:10.5	5.590	-0.220	0.320	0.140
2020/01/31 20:39:10.6	5.580	-0.230	0.290	0.130
2020/01/31 20:39:10.7	5.580	-0.240	0.240	0.120
2020/01/31 20:39:10.8	5.570	-0.240	0.190	0.110
2020/01/31 20:39:10.9	5.570	-0.240	0.130	0.090
2020/01/31 20:39:11.0	5.570	-0.240	0.070	0.070
2020/01/31 20:39:11.1	5.580	-0.240	-0.000	0.050
2020/01/31 20:39:11.2	5.590	-0.240	-0.080	0.030
2020/01/31 20:39:11.3	5.610	-0.230	-0.160	0.000
2020/01/31 20:39:11.4	5.630	-0.220	-0.250	-0.030
2020/01/31 20:39:11.5	5.650	-0.200	-0.330	-0.060
2020/01/31 20:39:11.6	5.670	-0.190	-0.430	-0.090
2020/01/31 20:39:11.7	5.700	-0.170	-0.520	-0.120
2020/01/31 20:39:11.8	5.720	-0.140	-0.610	-0.150
2020/01/31 20:39:11.9	5.760	-0.120	-0.700	-0.190
2020/01/31 20:39:12.0	5.800	-0.090	-0.790	-0.220
2020/01/31 20:39:12.1	5.830	-0.060	-0.880	-0.260
2020/01/31 20:39:12.2	5.870	-0.030	-0.960	-0.290
2020/01/31 20:39:12.3	5.910	0.000	-1.040	-0.330
2020/01/31 20:39:12.4	5.950	0.040	-1.120	-0.360
2020/01/31 20:39:12.5	6.000	0.070	-1.180	-0.400
2020/01/31 20:39:12.6	6.040	0.110	-1.250	-0.430
2020/01/31 20:39:12.7	6.090	0.140	-1.300	-0.470
2020/01/31 20:39:12.8	6.140	0.180	-1.350	-0.500
2020/01/31 20:39:12.9	6.180	0.210	-1.390	-0.530
2020/01/31 20:39:13.0	6.230	0.240	-1.420	-0.560
2020/01/31 20:39:13.1	6.280	0.280	-1.440	-0.580
2020/01/31 20:39:13.2	6.320	0.310	-1.460	-0.610
2020/01/31 20:39:13.3	6.370	0.340	-1.460	-0.630
2020/01/31 20:39:13.4	6.410	0.360	-1.450	-0.650
2020/01/31 20:39:13.5	6.450	0.380	-1.440	-0.660
2020/01/31 20:39:13.6	6.490	0.400	-1.420	-0.680
2020/01/31 20:39:13.7	6.530	0.420	-1.390	-0.680
2020/01/31 20:39:13.8	6.570	0.430	-1.350	-0.690
2020/01/31 20:39:13.9	6.600	0.440	-1.300	-0.690
2020/01/31 20:39:14.0	6.640	0.450	-1.240	-0.690
2020/01/31 20:39:14.1	6.670	0.450	-1.180	-0.680
2020/01/31 20:39:14.2	6.700	0.450	-1.120	-0.670
2020/01/31 20:39:14.3	6.720	0.440	-1.040	-0.660
2020/01/31 20:39:14.4	6.740	0.430	-0.970	-0.650
2020/01/31 20:39:14.5	6.760	0.420	-0.890	-0.640
2020/01/31 20:39:14.6	6.780	0.400	-0.800	-0.620
2020/01/31 20:39:14.7	6.800	0.380	-0.720	-0.600
2020/01/31 20:39:14.8	6.810	0.350	-0.630	-0.580
2020/01/31 20:39:14.9	6.820	0.320	-0.540	-0.560
2020/01/31 20:39:15.0	6.830	0.290	-0.450	-0.540
2020/01/31 20:39:15.1	6.840	0.260	-0.360	-0.510
2020/01/31 20:39:15.2	6.850	0.220	-0.270	-0.490
2020/01/31 20:39:15.3	6.850	0.180	-0.180	-0.470
2020/01/31 20:39:15.4	6.850	0.140	-0.090	-0.450
2020/01/31 20:39:15.5	6.850	0.100	-0.010	-0.430
2020/01/31 20:39:15.6	6.850	0.060	0.070	-0.400
2020/01/31 20:39:15.7	6.850	0.020	0.150	-0.380
2020/01/31 20:39:15.8	6.840	-0.030	0.230	-0.360
2020/01/31 20:39:15.9	6.830	-0.070	0.300	-0.340
2020/01/31 20:39:16.0	6.820	-0.120	0.360	-0.310
2020/01/31 20:39:16.1	6.810	-0.160	0.430	-0.290
2020/01/31 20:39:16.2	6.800	-0.200	0.490	-0.270
2020/01/31 20:39:16.3	6.790	-0.240	0.540	-0.250
2020/01/31 20:39:16.4	6.770	-0.280	0.590	-0.220
2020/01/31 20:39:16.5	6.750	-0.320	0.630	-0.200
2020/01/31 20:39:16.6	6.740	-0.350	0.670	-0.180
2020/01/31 20:39:16.7	6.720	-0.390	0.710	-0.160
2020/01/31 20:39:16.8	6.700	-0.420	0.730	-0.140
2020/01/31 20:39:16.9	6.680	-0.440	0.760	-0.120
2020/01/31 20:39:17.0	6.650	-0.470	0.770	-0.100
2020/01/31 20:39:17.1	6.630	-0.490	0.780	-0.080
2020/01/31 20:39:17.2	6.610	-0.500	0.790	-0.070
2020/01/31 20:39:17.3	6.590	-0.520	0.790	-0.050
2020/01/31 20:39:17.4	6.560	-0.530	0.780	-0.030
2020/01/31 20:39:17.5	6.540	-0.540	0.760	-0.020
2020/01/31 20:39:17.6	6.520	-0.540	0.740	-0.010
2020/01/31 20:39:17.7	6.490	-0.540	0.720	0.010
2020/01/31 20:39:17.8	6.470	-0.540	0.690	0.020
2020/01/31 20:39:17.9	6.450	-0.530	0.650	0.030
2020/01/31 20:39:18.0	6.420	-0.520	0.610	0.040
2020/01/31 20:39:18.1	6.400	-0.510	0.570	0.050
2020/01/31 20:39:18.2	6.380	-0.490	0.520	0.060
2020/01/31 20:39:18.3	6.360	-0.470	0.460	0.060
2020/01/31 20:39:18.4	6.340	-0.450	0.410	0.070
2020/01/31 20:39:18.5	6.320	-0.430	0.350	0.070
2020/01/31 20:39:18.6	6.310	-0.400	0.290	0.070
2020/01/31 20:39:18.7	6.290	-0.380	0.230	0.080
2020/01/31 20:39:18.8	6.270	-0.350	0.170	0.080
2020/01/31 20:39:18.9	6.260	-0.320	0.100	0.070
2020/01/31 20:39:19.0	6.240	-0.280	0.040	0.070
2020/01/31 20:39:19.1	6.230	-0.250	-0.020	0.070
2020/01/31 20:39:19.2	6.210	-0.220	-0.080	0.060
2020/01/31 20:39:19.3	6.200	-0.180	-0.140	0.060
2020/01/31 20:39:19.4	6.190	-0.150	-0.200	0.050
2020/01/31 20:39:19.5	6.180	-0.120	-0.260	0.040
2020/01/31 20:39:19.6	6.170	-0.080	-0.310	0.030
2020/01/31 20:39:19.7	6.160	-0.050	-0.360	0.020
2020/01/31 20:39:19.8	6.160	-0.020	-0.410	0.010
2020/01/31 20:39:19.9	6.150	0.010	-0.450	-0.000
2020/01/31 20:39:20.0	6.140	0.040	-0.490	-0.010
2020/01/31 20:39:20.1	6.140	0.070	-0.530	-0.030
2020/01/31 20:39:20.2	6.140	0.090	-0.560	-0.040
2020/01/31 20:39:20.3	6.140	0.120	-0.590	-0.060
2020/01/31 20:39:20.4	6.140	0.140	-0.610	-0.070
2020/01/31 20:39:20.5	6.150	0.160	-0.640	-0.090
2020/01/31 20:39:20.6	6.150	0.180	-0.650	-0.100
2020/01/31 20:39:20.7	6.160	0.200	-0.670	-0.120
2020/01/31 20:39:20.8	6.170	0.210	-0.670	-0.130
2020/01/31 20:39:20.9	6.190	0.230	-0.680	-0.150
2020/01/31 20:39:21.0	6.200	0.240	-0.680	-0.170
2020/01/31 20:39:21.1	6.220	0.250	-0.680	-0.180
2020/01/31 20:39:21.2	6.240	0.250	-0.670	-0.200
2020/01/31 20:39:21.3	6.260	0.260	-0.660	-0.220
2020/01/31 20:39:21.4	6.280	0.260	-0.650	-0.230
2020/01/31 20:39:21.5	6.300	0.270	-0.640	-0.250
2020/01/31 20:39:21.6	6.320	0.270	-0.620	-0.260
2020/01/31 20:39:21.7	6.340	0.270	-0.600	-0.280
2020/01/31 20:39:21.8	6.360	0.260	-0.580	-0.290
2020/01/31 20:39:21.9	6.390	0.260	-0.560	-0.300
2020/01/31 20:39:22.0	6.420	0.260	-0.540	-0.310
2020/01/31 20:39:22.1	6.440	0.250	-0.520	-0.320
2020/01/31 20:39:22.2	6.460	0.240	-0.490	-0.340
2020/01/31 20:39:22.3	6.490	0.240	-0.470	-0.350
2020/01/31 20:39:22.4	6.520	0.230	-0.450	-0.360
2020/01/31 20:39:22.5	6.540	0.220	-0.430	-0.370
2020/01/31 20:39:22.6	6.570	0.210	-0.410	-0.380
2020/01/31 20:39:22.7	6.600	0.210	-0.400	-0.390
2020/01/31 20:39:22.8	6.630	0.200	-0.390	-0.400
2020/01/31 20:39:22.9	6.660	0.190	-0.380	-0.420
2020/01/31 20:39:23.0	6.700	0.180	-0.370	-0.430
2020/01/31 20:39:23.1	6.730	0.180	-0.360	-0.440
2020/01/31 20:39:23.2	6.760	0.170	-0.360	-0.460
2020/01/31 20:39:23.3	6.790	0.160	-0.370	-0.470
2020/01/31 20:39:23.4	6.820	0.160	-0.370	-0.480
2020/01/31 20:39:23.5	6.850	0.160	-0.380	-0.500
2020/01/31 20:39:23.6	6.880	0.150	-0.390	-0.510
2020/01/31 20:39:23.7	6.910	0.150	-0.400	-0.520
2020/01/31 20:39:23.8	6.940	0.150	-0.410	-0.520
2020/01/31 20:39:23.9	6.960	0.150	-0.430	-0.530
2020/01/31 20:39:24.0	6.990	0.150	-0.440	-0.540
2020/01/31 20:39:24.1	7.010	0.150	-0.460	-0.540
2020/01/31 20:39:24.2	7.030	0.150	-0.480	-0.540
2020/01/31 20:39:24.3	7.050	0.160	-0.500	-0.550
2020/01/31 20:39:24.4	7.070	0.160	-0.510	-0.550
2020/01/31 20:39:24.5	7.080	0.170	-0.530	-0.550
2020/01/31 20:39:24.6	7.100	0.170	-0.550	-0.550
2020/01/31 20:39:24.7	7.110	0.180	-0.560	-0.540
2020/01/31 20:39:24.8	7.120	0.180	-0.570	-0.540
2020/01/31 20:39:24.9	7.130	0.190	-0.580	-0.530
2020/01/31 20:39:25.0	7.130	0.190	-0.590	-0.530
2020/01/31 20:39:25.1	7.140	0.200	-0.600	-0.520
2020/01/31 20:39:25.2	7.140	0.200	-0.600	-0.510
2020/01/31 20:39:25.3	7.150	0.210	-0.600	-0.500
2020/01/31 20:39:25.4	7.150	0.210	-0.600	-0.490
2020/01/31 20:39:25.5	7.150	0.220	-0.590	-0.480
2020/01/31 20:39:25.6	7.150	0.220	-0.590	-0.460
2020/01/31 20:39:25.7	7.160	0.220	-0.580	-0.450
2020/01/31 20:39:25.8	7.160	0.220	-0.560	-0.430
2020/01/31 20:39:25.9	7.160	0.220	-0.540	-0.420
2020/01/31 20:39:26.0	7.160	0.220	-0.520	-0.400
2020/01/31 20:39:26.1	7.160	0.210	-0.500	-0.380
2020/01/31 20:39:26.2	7.160	0.210	-0.470	-0.360
2020/01/31 20:39:26.3	7.150	0.200	-0.450	-0.340
2020/01/31 20:39:26.4	7.150	0.190	-0.410	-0.320
2020/01/31 20:39:26.5	7.150	0.180	-0.380	-0.290
2020/01/31 20:39:26.6	7.140	0.160	-0.340	-0.270
2020/01/31 20:39:26.7	7.140	0.150	-0.300	-0.250
2020/01/31 20:39:26.8	7.130	0.130	-0.260	-0.220
2020/01/31 20:39:26.9	7.120	0.110	-0.220	-0.200
2020/01/31 20:39:27.0	7.120	0.090	-0.170	-0.170
2020/01/31 20:39:27.1	7.110	0.070	-0.130	-0.140
2020/01/31 20:39:27.2	7.100	0.040	-0.080	-0.120
2020/01/31 20:39:27.3	7.100	0.020	-0.030	-0.090
2020/01/31 20:39:27.4	7.090	-0.010	0.010	-0.070
2020/01/31 20:39:27.5	7.080	-0.040	0.060	-0.040
2020/01/31 20:39:27.6	7.070	-0.070	0.100	-0.020
2020/01/31 20:39:27.7	7.060	-0.100	0.150	0.010
2020/01/31 20:39:27.8	7.050	-0.120	0.190	0.030
2020/01/31 20:39:27.9	7.050	-0.150	0.230	0.050
2020/01/31 20:39:28.0	7.040	-0.180	0.260	0.070
2020/01/31 20:39:28.1	7.030	-0.210	0.300	0.090
2020/01/31 20:39:28.2	7.030	-0.240	0.330	0.110
2020/01/31 20:39:28.3	7.020	-0.270	0.350	0.120
2020/01/31 20:39:28.4	7.010	-0.290	0.370	0.130
2020/01/31 20:39:28.5	7.010	-0.320	0.390	0.140
2020/01/31 20:39:28.6	7.000	-0.340	0.400	0.150
2020/01/31 20:39:28.7	7.000	-0.360	0.410	0.160
2020/01/31 20:39:28.8	7.000	-0.380	0.410	0.160
2020/01/31 20:39:28.9	6.990	-0.400	0.410	0.160
2020/01/31 20:39:29.0	6.980	-0.410	0.400	0.160
2020/01/31 20:39:29.1	6.980	-0.430	0.380	0.150
2020/01/31 20:39:29.2	6.980	-0.440	0.360	0.140
2020/01/31 20:39:29.3	6.980	-0.440	0.340	0.130
2020/01/31 20:39:29.4	6.980	-0.440	0.320	0.120
2020/01/31 20:39:29.5	6.980	-0.440	0.290	0.100
2020/01/31 20:39:29.6	6.980	-0.440	0.250	0.080
2020/01/31 20:39:29.7	6.980	-0.440	0.210	0.070
2020/01/31 20:39:29.8	6.980	-0.430	0.170	0.050
2020/01/31 20:39:29.9	6.980	-0.410	0.130	0.020
2020/01/31 20:39:30.0	6.980	-0.400	0.090	0.000
2020/01/31 20:39:30.1	6.980	-0.380	0.040	-0.020
2020/01/31 20:39:30.2	6.970	-0.360	-0.000	-0.040
2020/01/31 20:39:30.3	6.970	-0.340	-0.050	-0.060
2020/01/31 20:39:30.4	6.970	-0.320	-0.100	-0.070
2020/01/31 20:39:30.5	6.960	-0.290	-0.150	-0.090
2020/01/31 20:39:30.6	6.950	-0.270	-0.190	-0.100
2020/01/31 20:39:30.7	6.950	-0.240	-0.240	-0.120
2020/01/31 20:39:30.8	6.940	-0.210	-0.280	-0.130
2020/01/31 20:39:30.9	6.930	-0.180	-0.320	-0.140
2020/01/31 20:39:31.0	6.920	-0.150	-0.360	-0.160
2020/01/31 20:39:31.1	6.910	-0.120	-0.390	-0.170
2020/01/31 20:39:31.2	6.900	-0.090	-0.430	-0.180
2020/01/31 20:39:31.3	6.900	-0.060	-0.460	-0.190
2020/01/31 20:39:31.4	6.890	-0.030	-0.490	-0.200
2020/01/31 20:39:31.5	6.880	0.000	-0.520	-0.210
2020/01/31 20:39:31.6	6.880	0.030	-0.540	-0.230
2020/01/31 20:39:31.7	6.870	0.060	-0.560	-0.240
2020/01/31 20:39:31.8	6.870	0.080	-0.580	-0.250
2020/01/31 20:39:31.9	6.870	0.110	-0.590	-0.270
2020/01/31 20:39:32.0	6.860	0.130	-0.610	-0.280
2020/01/31 20:39:32.1	6.860	0.150	-0.620	-0.300
2020/01/31 20:39:32.2	6.860	0.170	-0.630	-0.310
2020/01/31 20:39:32.3	6.870	0.190	-0.640	-0.330
2020/01/31 20:39:32.4	6.880	0.210	-0.640	-0.350
2020/01/31 20:39:32.5	6.880	0.220	-0.640	-0.360
2020/01/31 20:39:32.6	6.900	0.240	-0.640	-0.380
2020/01/31 20:39:32.7	6.910	0.250	-0.630	-0.400
2020/01/31 20:39:32.8	6.920	0.260	-0.630	-0.410
2020/01/31 20:39:32.9	6.940	0.270	-0.620	-0.430
2020/01/31 20:39:33.0	6.970	0.280	-0.610	-0.450
2020/01/31 20:39:33.1	6.980	0.280	-0.590	-0.460
2020/01/31 20:39:33.2	7.000	0.290	-0.570	-0.480
2020/01/31 20:39:33.3	7.020	0.290	-0.560	-0.490
2020/01/31 20:39:33.4	7.040	0.290	-0.530	-0.510
2020/01/31 20:39:33.5	7.060	0.290	-0.510	-0.520
2020/01/31 20:39:33.6	7.080	0.290	-0.480	-0.530
2020/01/31 20:39:33.7	7.100	0.280	-0.460	-0.540
2020/01/31 20:39:33.8	7.120	0.280	-0.420	-0.550
2020/01/31 20:39:33.9	7.140	0.270	-0.390	-0.560
2020/01/31 20:39:34.0	7.160	0.260	-0.360	-0.560
2020/01/31 20:39:34.1	7.180	0.250	-0.320	-0.560
2020/01/31 20:39:34.2	7.200	0.240	-0.280	-0.570
2020/01/31 20:39:34.3	7.220	0.230	-0.240	-0.570
2020/01/31 20:39:34.4	7.230	0.210	-0.200	-0.570
2020/01/31 20:39:34.5	7.250	0.200	-0.160	-0.560
2020/01/31 20:39:34.6	7.270	0.180	-0.120	-0.560
2020/01/31 20:39:34.7	7.280	0.170	-0.080	-0.550
2020/01/31 20:39:34.8	7.300	0.150	-0.050	-0.550
2020/01/31 20:39:34.9	7.310	0.130	-0.010	-0.540
2020/01/31 20:39:35.0	7.330	0.120	0.020	-0.520
2020/01/31 20:39:35.1	7.340	0.100	0.050	-0.510
2020/01/31 20:39:35.2	7.350	0.080	0.080	-0.490
2020/01/31 20:39:35.3	7.360	0.060	0.100	-0.480
2020/01/31 20:39:35.4	7.370	0.040	0.120	-0.460
2020/01/31 20:39:35.5	7.380	0.030	0.140	-0.440
2020/01/31 20:39:35.6	7.390	0.010	0.140	-0.410
2020/01/31 20:39:35.7	7.400	-0.010	0.150	-0.390
2020/01/31 20:39:35.8	7.410	-0.020	0.140	-0.370
2020/01/31 20:39:35.9	7.410	-0.040	0.140	-0.350
2020/01/31 20:39:36.0	7.420	-0.050	0.120	-0.320
2020/01/31 20:39:36.1	7.430	-0.060	0.100	-0.300
2020/01/31 20:39:36.2	7.430	-0.080	0.070	-0.270
2020/01/31 20:39:36.3	7.440	-0.090	0.040	-0.250
2020/01/31 20:39:36.4	7.440	-0.100	0.010	-0.230
2020/01/31 20:39:36.5	7.450	-0.110	-0.040	-0.210
2020/01/31 20:39:36.6	7.450	-0.120	-0.080	-0.200
2020/01/31 20:39:36.7	7.460	-0.120	-0.130	-0.180
2020/01/31 20:39:36.8	7.460	-0.130	-0.190	-0.170
2020/01/31 20:39:36.9	7.460	-0.130	-0.240	-0.160
2020/01/31 20:39:37.0	7.450	-0.140	-0.300	-0.150
2020/01/31 20:39:37.1	7.450	-0.140	-0.360	-0.140
2020/01/31 20:39:37.2	7.450	-0.140	-0.420	-0.140
2020/01/31 20:39:37.3	7.450	-0.140	-0.480	-0.140
2020/01/31 20:39:37.4	7.450	-0.140	-0.540	-0.130
2020/01/31 20:39:37.5	7.450	-0.140	-0.600	-0.140
2020/01/31 20:39:37.6	7.440	-0.140	-0.660	-0.140
2020/01/31 20:39:37.7	7.430	-0.140	-0.710	-0.140
2020/01/31 20:39:37.8	7.430	-0.140	-0.760	-0.150
2020/01/31 20:39:37.9	7.420	-0.130	-0.810	-0.150
2020/01/31 20:39:38.0	7.400	-0.130	-0.840	-0.150
2020/01/31 20:39:38.1	7.390	-0.130	-0.880	-0.150
2020/01/31 20:39:38.2	7.380	-0.120	-0.900	-0.160
2020/01/31 20:39:38.3	7.360	-0.120	-0.930	-0.160
2020/01/31 20:39:38.4	7.350	-0.110	-0.940	-0.160
2020/01/31 20:39:38.5	7.330	-0.110	-0.950	-0.170
2020/01/31 20:39:38.6	7.310	-0.100	-0.950	-0.170
2020/01/31 20:39:38.7	7.290	-0.100	-0.950	-0.170
2020/01/31 20:39:38.8	7.280	-0.100	-0.930	-0.170
2020/01/31 20:39:38.9	7.260	-0.090	-0.910	-0.170
2020/01/31 20:39:39.0	7.260	-0.090	-0.890	-0.170
2020/01/31 20:39:39.1	7.240	-0.090	-0.860	-0.170
2020/01/31 20:39:39.2	7.220	-0.080	-0.820	-0.170
2020/01/31 20:39:39.3	7.210	-0.080	-0.770	-0.170
2020/01/31 20:39:39.4	7.200	-0.080	-0.720	-0.170
2020/01/31 20:39:39.5	7.180	-0.080	-0.670	-0.170
2020/01/31 20:39:39.6	7.170	-0.080	-0.610	-0.170
2020/01/31 20:39:39.7	7.160	-0.080	-0.550	-0.170
2020/01/31 20:39:39.8	7.160	-0.080	-0.490	-0.180
2020/01/31 20:39:39.9	7.150	-0.080	-0.420	-0.180
2020/01/31 20:39:40.0	7.140	-0.080	-0.350	-0.190
2020/01/31 20:39:40.1	7.140	-0.080	-0.280	-0.200
2020/01/31 20:39:40.2	7.140	-0.080	-0.210	-0.200
2020/01/31 20:39:40.3	7.140	-0.080	-0.150	-0.210
2020/01/31 20:39:40.4	7.140	-0.080	-0.080	-0.220
2020/01/31 20:39:40.5	7.140	-0.090	-0.010	-0.230
2020/01/31 20:39:40.6	7.140	-0.090	0.050	-0.230
2020/01/31 20:39:40.7	7.150	-0.090	0.110	-0.240
2020/01/31 20:39:40.8	7.150	-0.090	0.170	-0.240
2020/01/31 20:39:40.9	7.160	-0.090	0.220	-0.250
2020/01/31 20:39:41.0	7.160	-0.080	0.270	-0.250
2020/01/31 20:39:41.1	7.160	-0.080	0.320	-0.250
2020/01/31 20:39:41.2	7.170	-0.080	0.360	-0.240
2020/01/31 20:39:41.3	7.170	-0.070	0.400	-0.230
2020/01/31 20:39:41.4	7.180	-0.070	0.440	-0.220
2020/01/31 20:39:41.5	7.180	-0.060	0.470	-0.210
2020/01/31 20:39:41.6	7.180	-0.050	0.500	-0.200
2020/01/31 20:39:41.7	7.190	-0.040	0.520	-0.180
2020/01/31 20:39:41.8	7.190	-0.030	0.530	-0.160
2020/01/31 20:39:41.9	7.190	-0.020	0.550	-0.140
2020/01/31 20:39:42.0	7.180	-0.000	0.550	-0.120
2020/01/31 20:39:42.1	7.180	0.010	0.550	-0.100
2020/01/31 20:39:42.2	7.180	0.030	0.550	-0.070
2020/01/31 20:39:42.3	7.180	0.050	0.540	-0.050
2020/01/31 20:39:42.4	7.180	0.070	0.520	-0.020
2020/01/31 20:39:42.5	7.190	0.090	0.500	0.000
2020/01/31 20:39:42.6	7.190	0.110	0.470	0.020
2020/01/31 20:39:42.7	7.190	0.140	0.440	0.050
2020/01/31 20:39:42.8	7.190	0.160	0.400	0.070
2020/01/31 20:39:42.9	7.190	0.190	0.350	0.090
2020/01/31 20:39:43.0	7.190	0.220	0.300	0.110
2020/01/31 20:39:43.1	7.190	0.250	0.250	0.130
2020/01/31 20:39:43.2	7.200	0.280	0.190	0.150
2020/01/31 20:39:43.3	7.200	0.310	0.130	0.160
2020/01/31 20:39:43.4	7.210	0.340	0.060	0.180
2020/01/31 20:39:43.5	7.210	0.360	-0.010	0.190
2020/01/31 20:39:43.6	7.220	0.390	-0.080	0.200
2020/01/31 20:39:43.7	7.230	0.420	-0.150	0.200
2020/01/31 20:39:43.8	7.240	0.450	-0.230	0.210
2020/01/31 20:39:43.9	7.250	0.470	-0.300	0.210
2020/01/31 20:39:44.0	7.260	0.500	-0.370	0.210
2020/01/31 20:39:44.1	7.270	0.520	-0.440	0.210
2020/01/31 20:39:44.2	7.280	0.530	-0.510	0.210
2020/01/31 20:39:44.3	7.290	0.550	-0.580	0.200
2020/01/31 20:39:44.4	7.300	0.560	-0.640	0.200
2020/01/31 20:39:44.5	7.310	0.560	-0.700	0.190
2020/01/31 20:39:44.6	7.320	0.570	-0.750	0.180
2020/01/31 20:39:44.7	7.330	0.560	-0.790	0.170
2020/01/31 20:39:44.8	7.340	0.560	-0.830	0.160
2020/01/31 20:39:44.9	7.350	0.550	-0.870	0.140
2020/01/31 20:39:45.0	7.370	0.530	-0.890	0.130
2020/01/31 20:39:45.1	7.370	0.500	-0.910	0.110
2020/01/31 20:39:45.2	7.380	0.480	-0.920	0.090
2020/01/31 20:39:45.3	7.380	0.440	-0.920	0.070
2020/01/31 20:39:45.4	7.370	0.400	-0.920	0.050
2020/01/31 20:39:45.5	7.370	0.360	-0.910	0.030
2020/01/31 20:39:45.6	7.370	0.310	-0.890	0.010
2020/01/31 20:39:45.7	7.360	0.260	-0.860	-0.020
2020/01/31 20:39:45.8	7.350	0.200	-0.830	-0.040
2020/01/31 20:39:45.9	7.340	0.140	-0.790	-0.070
2020/01/31 20:39:46.0	7.350	0.070	-0.750	-0.100
2020/01/31 20:39:46.1	7.340	0.000	-0.700	-0.120
2020/01/31 20:39:46.2	7.320	-0.070	-0.640	-0.150
2020/01/31 20:39:46.3	7.310	-0.140	-0.590	-0.180
2020/01/31 20:39:46.4	7.290	-0.210	-0.530	-0.210
2020/01/31 20:39:46.5	7.270	-0.290	-0.460	-0.240
2020/01/31 20:39:46.6	7.250	-0.370	-0.400	-0.270
2020/01/31 20:39:46.7	7.240	-0.440	-0.330	-0.310
2020/01/31 20:39:46.8	7.220	-0.510	-0.270	-0.340
2020/01/31 20:39:46.9	7.200	-0.590	-0.200	-0.380
2020/01/31 20:39:47.0	7.190	-0.660	-0.140	-0.410
2020/01/31 20:39:47.1	7.170	-0.720	-0.080	-0.450
2020/01/31 20:39:47.2	7.150	-0.790	-0.020	-0.490
2020/01/31 20:39:47.3	7.140	-0.840	0.040	-0.520
2020/01/31 20:39:47.4	7.120	-0.900	0.090	-0.560
2020/01/31 20:39:47.5	7.110	-0.950	0.140	-0.600
2020/01/31 20:39:47.6	7.100	-0.990	0.180	-0.640
2020/01/31 20:39:47.7	7.080	-1.020	0.220	-0.670
2020/01/31 20:39:47.8	7.070	-1.050	0.250	-0.710
2020/01/31 20:39:47.9	7.060	-1.070	0.280	-0.740
2020/01/31 20:39:48.0	7.040	-1.080	0.300	-0.780
2020/01/31 20:39:48.1	7.030	-1.090	0.310	-0.810
2020/01/31 20:39:48.2	7.020	-1.090	0.320	-0.840
2020/01/31 20:39:48.3	7.020	-1.080	0.320	-0.860
2020/01/31 20:39:48.4	7.010	-1.060	0.320	-0.880
2020/01/31 20:39:48.5	7.000	-1.030	0.310	-0.890
2020/01/31 20:39:48.6	6.990	-1.000	0.300	-0.900
2020/01/31 20:39:48.7	6.990	-0.960	0.280	-0.910
2020/01/31 20:39:48.8	6.980	-0.910	0.250	-0.910
2020/01/31 20:39:48.9	6.980	-0.860	0.220	-0.910
2020/01/31 20:39:49.0	6.970	-0.800	0.180	-0.910
2020/01/31 20:39:49.1	6.970	-0.730	0.140	-0.900
2020/01/31 20:39:49.2	6.970	-0.660	0.090	-0.900
2020/01/31 20:39:49.3	6.970	-0.580	0.040	-0.890
2020/01/31 20:39:49.4	6.980	-0.500	-0.020	-0.880
2020/01/31 20:39:49.5	6.980	-0.420	-0.080	-0.870
2020/01/31 20:39:49.6	6.990	-0.330	-0.140	-0.860
2020/01/31 20:39:49.7	7.000	-0.250	-0.210	-0.840
2020/01/31 20:39:49.8	7.020	-0.160	-0.270	-0.830
2020/01/31 20:39:49.9	7.030	-0.070	-0.340	-0.810
2020/01/31 20:39:50.0	7.050	0.020	-0.410	-0.800
2020/01/31 20:39:50.1	7.070	0.110	-0.480	-0.780
2020/01/31 20:39:50.2	7.090	0.190	-0.550	-0.770
2020/01/31 20:39:50.3	7.110	0.270	-0.620	-0.750
2020/01/31 20:39:50.4	7.140	0.350	-0.690	-0.730
2020/01/31 20:39:50.5	7.160	0.430	-0.760	-0.710
2020/01/31 20:39:50.6	7.180	0.500	-0.820	-0.690
2020/01/31 20:39:50.7	7.210	0.570	-0.870	-0.670
2020/01/31 20:39:50.8	7.230	0.630	-0.930	-0.650
2020/01/31 20:39:50.9	7.250	0.690	-0.970	-0.620
2020/01/31 20:39:51.0	7.280	0.740	-1.020	-0.600
2020/01/31 20:39:51.1	7.300	0.780	-1.050	-0.570
2020/01/31 20:39:51.2	7.320	0.820	-1.080	-0.540
2020/01/31 20:39:51.3	7.340	0.850	-1.100	-0.510
2020/01/31 20:39:51.4	7.350	0.880	-1.110	-0.480
2020/01/31 20:39:51.5	7.360	0.890	-1.120	-0.440
2020/01/31 20:39:51.6	7.370	0.900	-1.110	-0.410
2020/01/31 20:39:51.7	7.380	0.900	-1.100	-0.370
2020/01/31 20:39:51.8	7.380	0.900	-1.090	-0.340
2020/01/31 20:39:51.9	7.390	0.890	-1.060	-0.300
2020/01/31 20:39:52.0	7.390	0.870	-1.020	-0.260
2020/01/31 20:39:52.1	7.380	0.850	-0.980	-0.220
2020/01/31 20:39:52.2	7.380	0.820	-0.940	-0.180
2020/01/31 20:39:52.3	7.370	0.790	-0.880	-0.140
2020/01/31 20:39:52.4	7.360	0.750	-0.820	-0.100
2020/01/31 20:39:52.5	7.350	0.710	-0.750	-0.060
2020/01/31 20:39:52.6	7.340	0.660	-0.680	-0.020
2020/01/31 20:39:52.7	7.320	0.610	-0.610	0.020
2020/01/31 20:39:52.8	7.310	0.560	-0.520	0.060
2020/01/31 20:39:52.9	7.290	0.510	-0.440	0.100
2020/01/31 20:39:53.0	7.270	0.450	-0.350	0.150
2020/01/31 20:39:53.1	7.250	0.400	-0.260	0.190
2020/01/31 20:39:53.2	7.220	0.340	-0.170	0.230
2020/01/31 20:39:53.3	7.190	0.290	-0.080	0.270
2020/01/31 20:39:53.4	7.160	0.240	0.010	0.310
2020/01/31 20:39:53.5	7.130	0.180	0.110	0.350
2020/01/31 20:39:53.6	7.100	0.130	0.200	0.390
2020/01/31 20:39:53.7	7.070	0.090	0.290	0.430
2020/01/31 20:39:53.8	7.030	0.040	0.380	0.460
2020/01/31 20:39:53.9	7.000	-0.000	0.460	0.490
2020/01/31 20:39:54.0	6.970	-0.040	0.540	0.520
2020/01/31 20:39:54.1	6.930	-0.080	0.620	0.550
2020/01/31 20:39:54.2	6.900	-0.120	0.680	0.580
2020/01/31 20:39:54.3	6.860	-0.150	0.750	0.600
2020/01/31 20:39:54.4	6.830	-0.170	0.800	0.620
2020/01/31 20:39:54.5	6.790	-0.200	0.850	0.630
2020/01/31 20:39:54.6	6.760	-0.220	0.890	0.640
2020/01/31 20:39:54.7	6.730	-0.230	0.920	0.650
2020/01/31 20:39:54.8	6.700	-0.250	0.940	0.650
2020/01/31 20:39:54.9	6.680	-0.260	0.950	0.650
2020/01/31 20:39:55.0	6.640	-0.270	0.950	0.640
2020/01/31 20:39:55.1	6.610	-0.270	0.950	0.630
2020/01/31 20:39:55.2	6.590	-0.270	0.930	0.610
2020/01/31 20:39:55.3	6.570	-0.270	0.900	0.590
2020/01/31 20:39:55.4	6.550	-0.270	0.870	0.570
2020/01/31 20:39:55.5	6.530	-0.260	0.820	0.550
2020/01/31 20:39:55.6	6.520	-0.250	0.770	0.520
2020/01/31 20:39:55.7	6.500	-0.240	0.700	0.490
2020/01/31 20:39:55.8	6.490	-0.230	0.630	0.460
2020/01/31 20:39:55.9	6.480	-0.210	0.550	0.420
2020/01/31 20:39:56.0	6.470	-0.200	0.470	0.380
2020/01/31 20:39:56.1	6.460	-0.180	0.380	0.340
2020/01/31 20:39:56.2	6.450	-0.170	0.290	0.300
2020/01/31 20:39:56.3	6.450	-0.150	0.190	0.260
2020/01/31 20:39:56.4	6.440	-0.130	0.080	0.210
2020/01/31 20:39:56.5	6.440	-0.110	-0.030	0.160
2020/01/31 20:39:56.6	6.440	-0.100	-0.140	0.110
2020/01/31 20:39:56.7	6.440	-0.080	-0.250	0.060
2020/01/31 20:39:56.8	6.440	-0.060	-0.360	0.010
2020/01/31 20:39:56.9	6.450	-0.040	-0.470	-0.050
2020/01/31 20:39:57.0	6.470	-0.030	-0.580	-0.100
2020/01/31 20:39:57.1	6.480	-0.010	-0.680	-0.160
2020/01/31 20:39:57.2	6.490	0.000	-0.780	-0.210
2020/01/31 20:39:57.3	6.510	0.020	-0.880	-0.270
2020/01/31 20:39:57.4	6.530	0.030	-0.980	-0.320
2020/01/31 20:39:57.5	6.550	0.040	-1.060	-0.370
2020/01/31 20:39:57.6	6.580	0.050	-1.150	-0.420
2020/01/31 20:39:57.7	6.610	0.060	-1.220	-0.470
2020/01/31 20:39:57.8	6.640	0.070	-1.290	-0.520
2020/01/31 20:39:57.9	6.680	0.070	-1.340	-0.570
2020/01/31 20:39:58.0	6.720	0.080	-1.390	-0.610
2020/01/31 20:39:58.1	6.760	0.080	-1.430	-0.650
2020/01/31 20:39:58.2	6.800	0.090	-1.460	-0.690
2020/01/31 20:39:58.3	6.850	0.090	-1.480	-0.730
2020/01/31 20:39:58.4	6.890	0.090	-1.500	-0.760
2020/01/31 20:39:58.5	6.940	0.090	-1.500	-0.780
2020/01/31 20:39:58.6	6.980	0.090	-1.490	-0.800
2020/01/31 20:39:58.7	7.030	0.080	-1.470	-0.820
2020/01/31 20:39:58.8	7.080	0.080	-1.440	-0.840
2020/01/31 20:39:58.9	7.130	0.070	-1.400	-0.850
2020/01/31 20:39:59.0	7.170	0.070	-1.350	-0.850
2020/01/31 20:39:59.1	7.220	0.060	-1.300	-0.860
2020/01/31 20:39:59.2	7.270	0.050	-1.230	-0.860
2020/01/31 20:39:59.3	7.310	0.040	-1.160	-0.850
2020/01/31 20:39:59.4	7.350	0.030	-1.080	-0.840
2020/01/31 20:39:59.5	7.390	0.010	-1.000	-0.830
2020/01/31 20:39:59.6	7.430	-0.000	-0.910	-0.820
2020/01/31 20:39:59.7	7.470	-0.020	-0.810	-0.800
2020/01/31 20:39:59.8	7.500	-0.040	-0.710	-0.780
2020/01/31 20:39:59.9	7.540	-0.060	-0.610	-0.760
2020/01/31 20:40:00.0	7.550	-0.080	-0.510	-0.730
2020/01/31 20:40:00.1	7.570	-0.100	-0.400	-0.700
2020/01/31 20:40:00.2	7.590	-0.130	-0.290	-0.660
2020/01/31 20:40:00.3	7.610	-0.160	-0.190	-0.630
2020/01/31 20:40:00.4	7.620	-0.180	-0.080	-0.590
2020/01/31 20:40:00.5	7.630	-0.210	0.020	-0.560
2020/01/31 20:40:00.6	7.640	-0.240	0.120	-0.520
2020/01/31 20:40:00.7	7.640	-0.270	0.220	-0.480
2020/01/31 20:40:00.8	7.640	-0.310	0.310	-0.440
2020/01/31 20:40:00.9	7.630	-0.340	0.400	-0.400
2020/01/31 20:40:01.0	7.620	-0.370	0.470	-0.350
2020/01/31 20:40:01.1	7.610	-0.400	0.550	-0.310
2020/01/31 20:40:01.2	7.600	-0.440	0.610	-0.280
2020/01/31 20:40:01.3	7.580	-0.470	0.670	-0.240
2020/01/31 20:40:01.4	7.560	-0.500	0.720	-0.210
2020/01/31 20:40:01.5	7.540	-0.530	0.760	-0.170
2020/01/31 20:40:01.6	7.520	-0.560	0.800	-0.140
2020/01/31 20:40:01.7	7.490	-0.590	0.820	-0.110
2020/01/31 20:40:01.8	7.470	-0.610	0.830	-0.090
2020/01/31 20:40:01.9	7.440	-0.630	0.840	-0.060
2020/01/31 20:40:02.0	7.410	-0.650	0.830	-0.040
2020/01/31 20:40:02.1	7.380	-0.670	0.820	-0.020
2020/01/31 20:40:02.2	7.350	-0.680	0.800	-0.010
2020/01/31 20:40:02.3	7.320	-0.680	0.760	0.010
2020/01/31 20:40:02.4	7.290	-0.690	0.730	0.020
2020/01/31 20:40:02.5	7.260	-0.690	0.680	0.030
2020/01/31 20:40:02.6	7.240	-0.680	0.630	0.040
2020/01/31 20:40:02.7	7.210	-0.670	0.570	0.050
2020/01/31 20:40:02.8	7.180	-0.650	0.510	0.060
2020/01/31 20:40:02.9	7.150	-0.630	0.440	0.060
2020/01/31 20:40:03.0	7.120	-0.600	0.370	0.070
2020/01/31 20:40:03.1	7.090	-0.570	0.300	0.080
2020/01/31 20:40:03.2	7.070	-0.530	0.220	0.080
2020/01/31 20:40:03.3	7.040	-0.490	0.140	0.090
2020/01/31 20:40:03.4	7.020	-0.440	0.070	0.090
2020/01/31 20:40:03.5	6.990	-0.380	-0.010	0.100
2020/01/31 20:40:03.6	6.970	-0.330	-0.090	0.100
2020/01/31 20:40:03.7	6.950	-0.260	-0.160	0.110
2020/01/31 20:40:03.8	6.930	-0.200	-0.240	0.110
2020/01/31 20:40:03.9	6.920	-0.130	-0.310	0.120
2020/01/31 20:40:04.0	6.920	-0.050	-0.380	0.120
2020/01/31 20:40:04.1	6.900	0.020	-0.450	0.130
2020/01/31 20:40:04.2	6.890	0.100	-0.510	0.130
2020/01/31 20:40:04.3	6.880	0.180	-0.570	0.140
2020/01/31 20:40:04.4	6.870	0.260	-0.630	0.150
2020/01/31 20:40:04.5	6.870	0.340	-0.680	0.150
2020/01/31 20:40:04.6	6.860	0.420	-0.720	0.160
2020/01/31 20:40:04.7	6.850	0.490	-0.760	0.170
2020/01/31 20:40:04.8	6.850	0.570	-0.790	0.180
2020/01/31 20:40:04.9	6.850	0.640	-0.820	0.190
2020/01/31 20:40:05.0	6.860	0.710	-0.850	0.210
2020/01/31 20:40:05.1	6.850	0.780	-0.860	0.220
2020/01/31 20:40:05.2	6.850	0.840	-0.870	0.230
2020/01/31 20:40:05.3	6.850	0.890	-0.880	0.250
2020/01/31 20:40:05.4	6.850	0.940	-0.880	0.260
2020/01/31 20:40:05.5	6.850	0.990	-0.880	0.270
2020/01/31 20:40:05.6	6.850	1.030	-0.870	0.290
2020/01/31 20:40:05.7	6.860	1.060	-0.850	0.300
2020/01/31 20:40:05.8	6.860	1.090	-0.840	0.310
2020/01/31 20:40:05.9	6.860	1.110	-0.820	0.320
2020/01/31 20:40:06.0	6.860	1.120	-0.790	0.340
2020/01/31 20:40:06.1	6.870	1.130	-0.760	0.350
2020/01/31 20:40:06.2	6.880	1.130	-0.730	0.350
2020/01/31 20:40:06.3	6.890	1.120	-0.700	0.360
2020/01/31 20:40:06.4	6.910	1.110	-0.670	0.360
2020/01/31 20:40:06.5	6.920	1.090	-0.640	0.360
2020/01/31 20:40:06.6	6.940	1.070	-0.610	0.360
2020/01/31 20:40:06.7	6.960	1.040	-0.570	0.360
2020/01/31 20:40:06.8	6.980	1.010	-0.540	0.350
2020/01/31 20:40:06.9	7.000	0.970	-0.510	0.340
2020/01/31 20:40:07.0	7.030	0.920	-0.480	0.330
2020/01/31 20:40:07.1	7.050	0.880	-0.450	0.310
2020/01/31 20:40:07.2	7.080	0.820	-0.420	0.290
2020/01/31 20:40:07.3	7.110	0.770	-0.400	0.270
2020/01/31 20:40:07.4	7.140	0.710	-0.370	0.240
2020/01/31 20:40:07.5	7.170	0.650	-0.350	0.210
2020/01/31 20:40:07.6	7.210	0.590	-0.330	0.170
2020/01/31 20:40:07.7	7.240	0.530	-0.310	0.140
2020/01/31 20:40:07.8	7.270	0.460	-0.300	0.100
2020/01/31 20:40:07.9	7.300	0.400	-0.290	0.060
2020/01/31 20:40:08.0	7.340	0.330	-0.270	0.010
2020/01/31 20:40:08.1	7.370	0.270	-0.260	-0.030
2020/01/31 20:40:08.2	7.400	0.200	-0.250	-0.080
2020/01/31 20:40:08.3	7.430	0.140	-0.240	-0.120
2020/01/31 20:40:08.4	7.460	0.070	-0.240	-0.170
2020/01/31 20:40:08.5	7.480	0.010	-0.230	-0.220
2020/01/31 20:40:08.6	7.510	-0.050	-0.220	-0.270
2020/01/31 20:40:08.7	7.530	-0.120	-0.210	-0.320
2020/01/31 20:40:08.8	7.550	-0.180	-0.200	-0.370
2020/01/31 20:40:08.9	7.570	-0.230	-0.200	-0.430
2020/01/31 20:40:09.0	7.580	-0.290	-0.190	-0.480
2020/01/31 20:40:09.1	7.600	-0.340	-0.180	-0.530
2020/01/31 20:40:09.2	7.610	-0.400	-0.170	-0.580
2020/01/31 20:40:09.3	7.620	-0.440	-0.160	-0.630
2020/01/31 20:40:09.4	7.630	-0.490	-0.140	-0.680
2020/01/31 20:40:09.5	7.630	-0.540	-0.130	-0.720
2020/01/31 20:40:09.6	7.640	-0.580	-0.120	-0.770
2020/01/31 20:40:09.7	7.640	-0.620	-0.100	-0.810
2020/01/31 20:40:09.8	7.640	-0.660	-0.090	-0.850
2020/01/31 20:40:09.9	7.640	-0.690	-0.070	-0.890
2020/01/31 20:40:10.0	7.630	-0.720	-0.060	-0.920
2020/01/31 20:40:10.1	7.620	-0.750	-0.040	-0.950
2020/01/31 20:40:10.2	7.610	-0.780	-0.020	-0.980
2020/01/31 20:40:10.3	7.600	-0.800	-0.000	-1.010
2020/01/31 20:40:10.4	7.590	-0.820	0.020	-1.030
2020/01/31 20:40:10.5	7.580	-0.840	0.030	-1.050
2020/01/31 20:40:10.6	7.560	-0.850	0.050	-1.060
2020/01/31 20:40:10.7	7.550	-0.860	0.070	-1.070
2020/01/31 20:40:10.8	7.530	-0.870	0.080	-1.080
2020/01/31 20:40:10.9	7.510	-0.870	0.100	-1.090
2020/01/31 20:40:11.0	7.480	-0.870	0.110	-1.090
2020/01/31 20:40:11.1	7.470	-0.870	0.120	-1.090
2020/01/31 20:40:11.2	7.450	-0.860	0.130	-1.080
2020/01/31 20:40:11.3	7.430	-0.850	0.140	-1.070
2020/01/31 20:40:11.4	7.410	-0.840	0.140	-1.060
2020/01/31 20:40:11.5	7.400	-0.830	0.150	-1.050
2020/01/31 20:40:11.6	7.380	-0.810	0.140	-1.030
2020/01/31 20:40:11.7	7.370	-0.780	0.140	-1.020
2020/01/31 20:40:11.8	7.360	-0.760	0.130	-1.000
2020/01/31 20:40:11.9	7.340	-0.730	0.120	-0.980
2020/01/31 20:40:12.0	7.350	-0.690	0.100	-0.950
2020/01/31 20:40:12.1	7.340	-0.660	0.090	-0.930
2020/01/31 20:40:12.2	7.340	-0.620	0.060	-0.910
2020/01/31 20:40:12.3	7.330	-0.570	0.040	-0.880
2020/01/31 20:40:12.4	7.330	-0.530	0.010	-0.860
2020/01/31 20:40:12.5	7.320	-0.480	-0.010	-0.830
2020/01/31 20:40:12.6	7.320	-0.440	-0.040	-0.800
2020/01/31 20:40:12.7	7.320	-0.390	-0.080	-0.770
2020/01/31 20:40:12.8	7.320	-0.340	-0.110	-0.740
2020/01/31 20:40:12.9	7.320	-0.280	-0.150	-0.710
2020/01/31 20:40:13.0	7.320	-0.230	-0.180	-0.670
2020/01/31 20:40:13.1	7.320	-0.180	-0.210	-0.640
2020/01/31 20:40:13.2	7.310	-0.130	-0.250	-0.600
2020/01/31 20:40:13.3	7.310	-0.070	-0.280	-0.560
2020/01/31 20:40:13.4	7.310	-0.020	-0.310	-0.510
2020/01/31 20:40:13.5	7.300	0.030	-0.340	-0.470
2020/01/31 20:40:13.6	7.290	0.080	-0.370	-0.420
2020/01/31 20:40:13.7	7.290	0.120	-0.390	-0.370
2020/01/31 20:40:13.8	7.280	0.170	-0.420	-0.320
2020/01/31 20:40:13.9	7.270	0.210	-0.430	-0.270
2020/01/31 20:40:14.0	7.250	0.250	-0.450	-0.220
2020/01/31 20:40:14.1	7.240	0.290	-0.460	-0.160
2020/01/31 20:40:14.2	7.230	0.330	-0.470	-0.110
2020/01/31 20:40:14.3	7.220	0.360	-0.480	-0.050
2020/01/31 20:40:14.4	7.210	0.390	-0.480	0.000
2020/01/31 20:40:14.5	7.200	0.410	-0.480	0.060
2020/01/31 20:40:14.6	7.190	0.440	-0.480	0.110
2020/01/31 20:40:14.7	7.180	0.460	-0.470	0.170
2020/01/31 20:40:14.8	7.170	0.470	-0.460	0.220
2020/01/31 20:40:14.9	7.170	0.490	-0.460	0.270
2020/01/31 20:40:15.0	7.160	0.500	-0.450	0.310
2020/01/31 20:40:15.1	7.150	0.500	-0.430	0.360
2020/01/31 20:40:15.2	7.140	0.510	-0.420	0.410
2020/01/31 20:40:15.3	7.130	0.510	-0.400	0.450
2020/01/31 20:40:15.4	7.130	0.510	-0.390	0.490
2020/01/31 20:40:15.5	7.120	0.500	-0.370	0.530
2020/01/31 20:40:15.6	7.120	0.490	-0.350	0.570
2020/01/31 20:40:15.7	7.110	0.480	-0.340	0.600
2020/01/31 20:40:15.8	7.110	0.470	-0.320	0.630
2020/01/31 20:40:15.9	7.100	0.460	-0.300	0.650
2020/01/31 20:40:16.0	7.100	0.440	-0.280	0.680
2020/01/31 20:40:16.1	7.090	0.430	-0.260	0.700
2020/01/31 20:40:16.2	7.090	0.410	-0.240	0.720
2020/01/31 20:40:16.3	7.090	0.380	-0.220	0.730
2020/01/31 20:40:16.4	7.080	0.360	-0.210	0.740
2020/01/31 20:40:16.5	7.080	0.340	-0.190	0.750
2020/01/31 20:40:16.6	7.080	0.310	-0.170	0.750
2020/01/31 20:40:16.7	7.080	0.290	-0.160	0.750
2020/01/31 20:40:16.8	7.090	0.270	-0.150	0.740
2020/01/31 20:40:16.9	7.090	0.240	-0.130	0.730
2020/01/31 20:40:17.0	7.090	0.210	-0.120	0.710
2020/01/31 20:40:17.1	7.100	0.190	-0.120	0.690
2020/01/31 20:40:17.2	7.110	0.170	-0.110	0.670
2020/01/31 20:40:17.3	7.120	0.140	-0.100	0.640
2020/01/31 20:40:17.4	7.120	0.120	-0.100	0.610
2020/01/31 20:40:17.5	7.130	0.100	-0.100	0.580
2020/01/31 20:40:17.6	7.140	0.080	-0.100	0.550
2020/01/31 20:40:17.7	7.150	0.060	-0.110	0.520
2020/01/31 20:40:17.8	7.160	0.040	-0.110	0.480
2020/01/31 20:40:17.9	7.170	0.030	-0.120	0.440
2020/01/31 20:40:18.0	7.170	0.010	-0.120	0.410
2020/01/31 20:40:18.1	7.180	0.000	-0.130	0.370
2020/01/31 20:40:18.2	7.190	-0.010	-0.140	0.330
2020/01/31 20:40:18.3	7.200	-0.020	-0.150	0.290
2020/01/31 20:40:18.4	7.210	-0.020	-0.170	0.250
2020/01/31 20:40:18.5	7.210	-0.030	-0.180	0.220
2020/01/31 20:40:18.6	7.220	-0.030	-0.190	0.180
2020/01/31 20:40:18.7	7.220	-0.030	-0.210	0.140
2020/01/31 20:40:18.8	7.230	-0.030	-0.220	0.100
2020/01/31 20:40:18.9	7.230	-0.020	-0.240	0.060
2020/01/31 20:40:19.0	7.240	-0.020	-0.260	0.020
2020/01/31 20:40:19.1	7.250	-0.020	-0.270	-0.020
2020/01/31 20:40:19.2	7.250	-0.010	-0.290	-0.050
2020/01/31 20:40:19.3	7.260	-0.000	-0.310	-0.090
2020/01/31 20:40:19.4	7.260	0.010	-0.330	-0.130
2020/01/31 20:40:19.5	7.260	0.020	-0.350	-0.170
2020/01/31 20:40:19.6	7.270	0.020	-0.370	-0.210
2020/01/31 20:40:19.7	7.270	0.030	-0.390	-0.240
2020/01/31 20:40:19.8	7.270	0.040	-0.400	-0.280
2020/01/31 20:40:19.9	7.270	0.050	-0.420	-0.310
2020/01/31 20:40:20.0	7.280	0.060	-0.440	-0.350
2020/01/31 20:40:20.1	7.280	0.060	-0.460	-0.380
2020/01/31 20:40:20.2	7.280	0.070	-0.470	-0.410
2020/01/31 20:40:20.3	7.270	0.070	-0.490	-0.440
2020/01/31 20:40:20.4	7.270	0.070	-0.500	-0.460
2020/01/31 20:40:20.5	7.260	0.070	-0.510	-0.490
2020/01/31 20:40:20.6	7.250	0.070	-0.520	-0.500
2020/01/31 20:40:20.7	7.240	0.070	-0.530	-0.520
2020/01/31 20:40:20.8	7.230	0.070	-0.540	-0.530
2020/01/31 20:40:20.9	7.220	0.060	-0.550	-0.540
2020/01/31 20:40:21.0	7.200	0.050	-0.550	-0.550
2020/01/31 20:40:21.1	7.190	0.050	-0.560	-0.550
2020/01/31 20:40:21.2	7.170	0.040	-0.560	-0.550
2020/01/31 20:40:21.3	7.160	0.030	-0.560	-0.550
2020/01/31 20:40:21.4	7.140	0.010	-0.560	-0.550
2020/01/31 20:40:21.5	7.130	0.000	-0.560	-0.540
2020/01/31 20:40:21.6	7.120	-0.010	-0.560	-0.540
2020/01/31 20:40:21.7	7.110	-0.030	-0.560	-0.530
2020/01/31 20:40:21.8	7.100	-0.040	-0.560	-0.530
2020/01/31 20:40:21.9	7.090	-0.060	-0.550	-0.520
2020/01/31 20:40:22.0	7.090	-0.070	-0.550	-0.510
2020/01/31 20:40:22.1	7.090	-0.090	-0.540	-0.510
2020/01/31 20:40:22.2	7.080	-0.100	-0.530	-0.510
2020/01/31 20:40:22.3	7.080	-0.110	-0.530	-0.500
2020/01/31 20:40:22.4	7.080	-0.130	-0.520	-0.500
2020/01/31 20:40:22.5	7.090	-0.140	-0.510	-0.500
2020/01/31 20:40:22.6	7.090	-0.150	-0.500	-0.510
2020/01/31 20:40:22.7	7.100	-0.160	-0.490	-0.510
2020/01/31 20:40:22.8	7.100	-0.170	-0.470	-0.510
2020/01/31 20:40:22.9	7.110	-0.170	-0.460	-0.510
2020/01/31 20:40:23.0	7.140	-0.180	-0.440	-0.510
2020/01/31 20:40:23.1	7.150	-0.180	-0.420	-0.510
2020/01/31 20:40:23.2	7.160	-0.180	-0.400	-0.510
2020/01/31 20:40:23.3	7.170	-0.180	-0.370	-0.510
2020/01/31 20:40:23.4	7.190	-0.180	-0.340	-0.510
2020/01/31 20:40:23.5	7.200	-0.180	-0.320	-0.500
2020/01/31 20:40:23.6	7.210	-0.170	-0.280	-0.490
2020/01/31 20:40:23.7	7.220	-0.170	-0.250	-0.470
2020/01/31 20:40:23.8	7.240	-0.160	-0.220	-0.460
2020/01/31 20:40:23.9	7.250	-0.150	-0.180	-0.440
2020/01/31 20:40:24.0	7.260	-0.140	-0.140	-0.410
2020/01/31 20:40:24.1	7.270	-0.130	-0.100	-0.390
2020/01/31 20:40:24.2	7.270	-0.120	-0.060	-0.360
2020/01/31 20:40:24.3	7.280	-0.110	-0.020	-0.330
2020/01/31 20:40:24.4	7.280	-0.100	0.020	-0.290
2020/01/31 20:40:24.5	7.280	-0.080	0.060	-0.250
2020/01/31 20:40:24.6	7.280	-0.070	0.100	-0.210
2020/01/31 20:40:24.7	7.270	-0.060	0.140	-0.170
2020/01/31 20:40:24.8	7.270	-0.050	0.180	-0.130
2020/01/31 20:40:24.9	7.260	-0.040	0.220	-0.090
2020/01/31 20:40:25.0	7.230	-0.020	0.250	-0.040
2020/01/31 20:40:25.1	7.220	-0.010	0.280	0.000
2020/01/31 20:40:25.2	7.210	-0.000	0.310	0.050
2020/01/31 20:40:25.3	7.200	0.000	0.340	0.090
2020/01/31 20:40:25.4	7.180	0.010	0.370	0.130
2020/01/31 20:40:25.5	7.160	0.020	0.390	0.170
2020/01/31 20:40:25.6	7.150	0.030	0.400	0.210
2020/01/31 20:40:25.7	7.130	0.030	0.410	0.250
2020/01/31 20:40:25.8	7.110	0.040	0.420	0.290
2020/01/31 20:40:25.9	7.090	0.040	0.420	0.320
2020/01/31 20:40:26.0	7.060	0.050	0.420	0.360
2020/01/31 20:40:26.1	7.040	0.050	0.410	0.390
2020/01/31 20:40:26.2	7.020	0.050	0.400	0.420
2020/01/31 20:40:26.3	7.000	0.050	0.380	0.440
2020/01/31 20:40:26.4	6.980	0.050	0.360	0.470
2020/01/31 20:40:26.5	6.960	0.050	0.340	0.490
2020/01/31 20:40:26.6	6.950	0.050	0.310	0.510
2020/01/31 20:40:26.7	6.930	0.060	0.270	0.530
2020/01/31 20:40:26.8	6.920	0.060	0.230	0.550
2020/01/31 20:40:26.9	6.900	0.060	0.190	0.560
2020/01/31 20:40:27.0	6.890	0.060	0.150	0.580
2020/01/31 20:40:27.1	6.880	0.060	0.110	0.590
2020/01/31 20:40:27.2	6.870	0.060	0.060	0.600
2020/01/31 20:40:27.3	6.860	0.060	0.010	0.600
2020/01/31 20:40:27.4	6.850	0.060	-0.050	0.600
2020/01/31 20:40:27.5	6.840	0.060	-0.100	0.600
2020/01/31 20:40:27.6	6.830	0.060	-0.150	0.590
2020/01/31 20:40:27.7	6.820	0.060	-0.200	0.590
2020/01/31 20:40:27.8	6.810	0.060	-0.260	0.580
2020/01/31 20:40:27.9	6.800	0.070	-0.310	0.560
2020/01/31 20:40:28.0	6.810	0.070	-0.350	0.550
2020/01/31 20:40:28.1	6.800	0.070	-0.400	0.530
2020/01/31 20:40:28.2	6.790	0.080	-0.440	0.510
2020/01/31 20:40:28.3	6.790	0.080	-0.480	0.500
2020/01/31 20:40:28.4	6.780	0.090	-0.510	0.480
2020/01/31 20:40:28.5	6.780	0.090	-0.540	0.460
2020/01/31 20:40:28.6	6.770	0.100	-0.570	0.440
2020/01/31 20:40:28.7	6.760	0.100	-0.590	0.420
2020/01/31 20:40:28.8	6.750	0.110	-0.610	0.400
2020/01/31 20:40:28.9	6.750	0.120	-0.630	0.380
2020/01/31 20:40:29.0	6.760	0.120	-0.640	0.360
2020/01/31 20:40:29.1	6.750	0.130	-0.650	0.340
2020/01/31 20:40:29.2	6.750	0.140	-0.650	0.320
2020/01/31 20:40:29.3	6.740	0.140	-0.650	0.300
2020/01/31 20:40:29.4	6.740	0.150	-0.650	0.280
2020/01/31 20:40:29.5	6.730	0.150	-0.650	0.260
2020/01/31 20:40:29.6	6.730	0.160	-0.640	0.230
2020/01/31 20:40:29.7	6.730	0.160	-0.640	0.210
2020/01/31 20:40:29.8	6.730	0.170	-0.630	0.180
2020/01/31 20:40:29.9	6.730	0.170	-0.620	0.160
2020/01/31 20:40:30.0	6.730	0.170	-0.610	0.130
2020/01/31 20:40:30.1	6.740	0.170	-0.600	0.110
2020/01/31 20:40:30.2	6.740	0.180	-0.600	0.080
2020/01/31 20:40:30.3	6.750	0.180	-0.590	0.050
2020/01/31 20:40:30.4	6.760	0.180	-0.580	0.020
2020/01/31 20:40:30.5	6.780	0.170	-0.570	-0.010
2020/01/31 20:40:30.6	6.790	0.170	-0.570	-0.050
2020/01/31 20:40:30.7	6.810	0.170	-0.570	-0.080
2020/01/31 20:40:30.8	6.830	0.170	-0.570	-0.110
2020/01/31 20:40:30.9	6.850	0.160	-0.570	-0.150
2020/01/31 20:40:31.0	6.870	0.160	-0.570	-0.190
2020/01/31 20:40:31.1	6.890	0.150	-0.570	-0.220
2020/01/31 20:40:31.2	6.920	0.140	-0.570	-0.260
2020/01/31 20:40:31.3	6.950	0.130	-0.580	-0.300
2020/01/31 20:40:31.4	6.970	0.120	-0.580	-0.330
2020/01/31 20:40:31.5	7.000	0.110	-0.580	-0.370
2020/01/31 20:40:31.6	7.020	0.100	-0.590	-0.400
2020/01/31 20:40:31.7	7.050	0.080	-0.590	-0.430
2020/01/31 20:40:31.8	7.070	0.070	-0.590	-0.470
2020/01/31 20:40:31.9	7.090	0.050	-0.590	-0.500
2020/01/31 20:40:32.0	7.130	0.030	-0.590	-0.520
2020/01/31 20:40:32.1	7.150	0.010	-0.580	-0.550
2020/01/31 20:40:32.2	7.160	-0.010	-0.570	-0.580
2020/01/31 20:40:32.3	7.180	-0.030	-0.560	-0.610
2020/01/31 20:40:32.4	7.200	-0.050	-0.550	-0.630
2020/01/31 20:40:32.5	7.210	-0.080	-0.540	-0.650
2020/01/31 20:40:32.6	7.210	-0.100	-0.520	-0.680
2020/01/31 20:40:32.7	7.220	-0.130	-0.490	-0.690
2020/01/31 20:40:32.8	7.230	-0.160	-0.470	-0.710
2020/01/31 20:40:32.9	7.230	-0.180	-0.440	-0.720
2020/01/31 20:40:33.0	7.230	-0.210	-0.400	-0.730
2020/01/31 20:40:33.1	7.230	-0.240	-0.370	-0.740
2020/01/31 20:40:33.2	7.220	-0.270	-0.330	-0.740
2020/01/31 20:40:33.3	7.210	-0.300	-0.290	-0.740
2020/01/31 20:40:33.4	7.210	-0.320	-0.240	-0.740
2020/01/31 20:40:33.5	7.200	-0.350	-0.200	-0.740
2020/01/31 20:40:33.6	7.190	-0.380	-0.150	-0.730
2020/01/31 20:40:33.7	7.170	-0.400	-0.110	-0.720
2020/01/31 20:40:33.8	7.160	-0.430	-0.060	-0.710
2020/01/31 20:40:33.9	7.150	-0.450	-0.010	-0.690
2020/01/31 20:40:34.0	7.130	-0.470	0.030	-0.670
2020/01/31 20:40:34.1	7.120	-0.480	0.080	-0.650
2020/01/31 20:40:34.2	7.100	-0.500	0.120	-0.630
2020/01/31 20:40:34.3	7.090	-0.510	0.160	-0.610
2020/01/31 20:40:34.4	7.080	-0.520	0.190	-0.590
2020/01/31 20:40:34.5	7.060	-0.520	0.220	-0.570
2020/01/31 20:40:34.6	7.050	-0.520	0.250	-0.550
2020/01/31 20:40:34.7	7.040	-0.520	0.270	-0.530
2020/01/31 20:40:34.8	7.030	-0.510	0.290	-0.500
2020/01/31 20:40:34.9	7.020	-0.500	0.300	-0.480
2020/01/31 20:40:35.0	7.010	-0.490	0.300	-0.460
2020/01/31 20:40:35.1	7.000	-0.470	0.300	-0.440
2020/01/31 20:40:35.2	7.000	-0.450	0.300	-0.410
2020/01/31 20:40:35.3	6.990	-0.420	0.290	-0.390
2020/01/31 20:40:35.4	6.980	-0.390	0.270	-0.360
2020/01/31 20:40:35.5	6.980	-0.360	0.250	-0.330
2020/01/31 20:40:35.6	6.970	-0.330	0.230	-0.310
2020/01/31 20:40:35.7	6.960	-0.290	0.200	-0.280
2020/01/31 20:40:35.8	6.950	-0.240	0.170	-0.250
2020/01/31 20:40:35.9	6.950	-0.200	0.140	-0.220
2020/01/31 20:40:36.0	6.930	-0.150	0.100	-0.180
2020/01/31 20:40:36.1	6.920	-0.100	0.060	-0.150
2020/01/31 20:40:36.2	6.900	-0.050	0.020	-0.120
2020/01/31 20:40:36.3	6.890	-0.000	-0.020	-0.090
2020/01/31 20:40:36.4	6.880	0.050	-0.070	-0.050
2020/01/31 20:40:36.5	6.860	0.100	-0.110	-0.020
2020/01/31 20:40:36.6	6.840	0.150	-0.150	0.010
2020/01/31 20:40:36.7	6.830	0.200	-0.200	0.050
2020/01/31 20:40:36.8	6.810	0.250	-0.240	0.080
2020/01/31 20:40:36.9	6.790	0.300	-0.280	0.110
2020/01/31 20:40:37.0	6.770	0.350	-0.320	0.150
2020/01/31 20:40:37.1	6.750	0.390	-0.360	0.180
2020/01/31 20:40:37.2	6.730	0.430	-0.390	0.210
2020/01/31 20:40:37.3	6.710	0.470	-0.430	0.240
2020/01/31 20:40:37.4	6.690	0.510	-0.460	0.270
2020/01/31 20:40:37.5	6.670	0.540	-0.490	0.300
2020/01/31 20:40:37.6	6.650	0.570	-0.510	0.320
2020/01/31 20:40:37.7	6.640	0.600	-0.530	0.350
2020/01/31 20:40:37.8	6.620	0.620	-0.550	0.370
2020/01/31 20:40:37.9	6.600	0.640	-0.570	0.400
2020/01/31 20:40:38.0	6.580	0.650	-0.580	0.420
2020/01/31 20:40:38.1	6.570	0.670	-0.590	0.440
2020/01/31 20:40:38.2	6.550	0.670	-0.590	0.460
2020/01/31 20:40:38.3	6.540	0.670	-0.590	0.480
2020/01/31 20:40:38.4	6.530	0.670	-0.590	0.490
2020/01/31 20:40:38.5	6.510	0.670	-0.590	0.510
2020/01/31 20:40:38.6	6.500	0.660	-0.580	0.520
2020/01/31 20:40:38.7	6.490	0.640	-0.570	0.530
2020/01/31 20:40:38.8	6.490	0.620	-0.550	0.530
2020/01/31 20:40:38.9	6.480	0.600	-0.540	0.530
2020/01/31 20:40:39.0	6.480	0.580	-0.520	0.540
2020/01/31 20:40:39.1	6.480	0.550	-0.500	0.530
2020/01/31 20:40:39.2	6.480	0.520	-0.480	0.520
2020/01/31 20:40:39.3	6.480	0.490	-0.450	0.510
2020/01/31 20:40:39.4	6.480	0.450	-0.430	0.490
2020/01/31 20:40:39.5	6.480	0.410	-0.400	0.470
2020/01/31 20:40:39.6	6.480	0.370	-0.380	0.440
2020/01/31 20:40:39.7	6.490	0.330	-0.350	0.420
2020/01/31 20:40:39.8	6.490	0.290	-0.330	0.390
2020/01/31 20:40:39.9	6.500	0.250	-0.300	0.360
2020/01/31 20:40:40.0	6.510	0.210	-0.280	0.320
2020/01/31 20:40:40.1	6.520	0.160	-0.250	0.280
2020/01/31 20:40:40.2	6.520	0.120	-0.220	0.250
2020/01/31 20:40:40.3	6.530	0.070	-0.190	0.210
2020/01/31 20:40:40.4	6.540	0.030	-0.170	0.180
2020/01/31 20:40:40.5	6.550	-0.010	-0.140	0.140
2020/01/31 20:40:40.6	6.560	-0.050	-0.110	0.110
2020/01/31 20:40:40.7	6.560	-0.090	-0.090	0.070
2020/01/31 20:40:40.8	6.570	-0.130	-0.060	0.040
2020/01/31 20:40:40.9	6.570	-0.170	-0.040	0.010
2020/01/31 20:40:41.0	6.570	-0.210	-0.010	-0.020
2020/01/31 20:40:41.1	6.570	-0.250	0.010	-0.050
2020/01/31 20:40:41.2	6.580	-0.280	0.040	-0.080
2020/01/31 20:40:41.3	6.580	-0.310	0.060	-0.110
2020/01/31 20:40:41.4	6.570	-0.340	0.080	-0.130
2020/01/31 20:40:41.5	6.570	-0.370	0.100	-0.150
2020/01/31 20:40:41.6	6.570	-0.400	0.120	-0.180
2020/01/31 20:40:41.7	6.570	-0.430	0.140	-0.200
2020/01/31 20:40:41.8	6.560	-0.450	0.150	-0.220
2020/01/31 20:40:41.9	6.560	-0.470	0.160	-0.230
2020/01/31 20:40:42.0	6.560	-0.490	0.170	-0.250
2020/01/31 20:40:42.1	6.550	-0.510	0.170	-0.270
2020/01/31 20:40:42.2	6.550	-0.520	0.180	-0.280
2020/01/31 20:40:42.3	6.540	-0.530	0.180	-0.290
2020/01/31 20:40:42.4	6.540	-0.540	0.170	-0.310
2020/01/31 20:40:42.5	6.540	-0.550	0.160	-0.320
2020/01/31 20:40:42.6	6.540	-0.560	0.150	-0.330
2020/01/31 20:40:42.7	6.540	-0.560	0.130	-0.340
2020/01/31 20:40:42.8	6.540	-0.560	0.110	-0.340
2020/01/31 20:40:42.9	6.540	-0.550	0.090	-0.350
2020/01/31 20:40:43.0	6.550	-0.550	0.060	-0.350
2020/01/31 20:40:43.1	6.560	-0.540	0.030	-0.350
2020/01/31 20:40:43.2	6.560	-0.520	-0.000	-0.360
2020/01/31 20:40:43.3	6.570	-0.510	-0.040	-0.360
2020/01/31 20:40:43.4	6.580	-0.490	-0.080	-0.350
2020/01/31 20:40:43.5	6.590	-0.470	-0.130	-0.350
2020/01/31 20:40:43.6	6.610	-0.440	-0.170	-0.340
2020/01/31 20:40:43.7	6.620	-0.420	-0.220	-0.340
2020/01/31 20:40:43.8	6.640	-0.390	-0.270	-0.330
2020/01/31 20:40:43.9	6.650	-0.360	-0.320	-0.320
2020/01/31 20:40:44.0	6.660	-0.320	-0.370	-0.310
2020/01/31 20:40:44.1	6.680	-0.290	-0.420	-0.300
2020/01/31 20:40:44.2	6.700	-0.250	-0.470	-0.280
2020/01/31 20:40:44.3	6.710	-0.210	-0.520	-0.260
2020/01/31 20:40:44.4	6.730	-0.170	-0.560	-0.240
2020/01/31 20:40:44.5	6.740	-0.130	-0.610	-0.220
2020/01/31 20:40:44.6	6.750	-0.090	-0.650	-0.200
2020/01/31 20:40:44.7	6.760	-0.040	-0.690	-0.170
2020/01/31 20:40:44.8	6.760	-0.000	-0.720	-0.150
2020/01/31 20:40:44.9	6.770	0.040	-0.750	-0.120
2020/01/31 20:40:45.0	6.770	0.080	-0.780	-0.090
2020/01/31 20:40:45.1	6.770	0.120	-0.800	-0.060
2020/01/31 20:40:45.2	6.760	0.160	-0.820	-0.020
2020/01/31 20:40:45.3	6.760	0.200	-0.830	0.010
2020/01/31 20:40:45.4	6.750	0.240	-0.840	0.050
2020/01/31 20:40:45.5	6.730	0.270	-0.840	0.090
2020/01/31 20:40:45.6	6.720	0.300	-0.840	0.120
2020/01/31 20:40:45.7	6.700	0.330	-0.830	0.160
2020/01/31 20:40:45.8	6.680	0.360	-0.820	0.200
2020/01/31 20:40:45.9	6.660	0.390	-0.800	0.250
2020/01/31 20:40:46.0	6.630	0.410	-0.780	0.290
2020/01/31 20:40:46.1	6.600	0.430	-0.760	0.330
2020/01/31 20:40:46.2	6.580	0.440	-0.730	0.370
2020/01/31 20:40:46.3	6.550	0.450	-0.700	0.410
2020/01/31 20:40:46.4	6.520	0.460	-0.670	0.450
2020/01/31 20:40:46.5	6.490	0.470	-0.640	0.490
2020/01/31 20:40:46.6	6.460	0.470	-0.600	0.530
2020/01/31 20:40:46.7	6.430	0.470	-0.560	0.560
2020/01/31 20:40:46.8	6.400	0.460	-0.520	0.600
2020/01/31 20:40:46.9	6.370	0.450	-0.480	0.630
2020/01/31 20:40:47.0	6.330	0.440	-0.450	0.660
2020/01/31 20:40:47.1	6.300	0.420	-0.410	0.680
2020/01/31 20:40:47.2	6.270	0.410	-0.370	0.700
2020/01/31 20:40:47.3	6.240	0.390	-0.330	0.720
2020/01/31 20:40:47.4	6.210	0.370	-0.300	0.730
2020/01/31 20:40:47.5	6.190	0.340	-0.260	0.740
2020/01/31 20:40:47.6	6.160	0.320	-0.230	0.740
2020/01/31 20:40:47.7	6.140	0.290	-0.200	0.730
2020/01/31 20:40:47.8	6.120	0.260	-0.180	0.720
2020/01/31 20:40:47.9	6.110	0.240	-0.150	0.700
2020/01/31 20:40:48.0	6.100	0.210	-0.130	0.680
2020/01/31 20:40:48.1	6.080	0.180	-0.110	0.650
2020/01/31 20:40:48.2	6.080	0.150	-0.100	0.620
2020/01/31 20:40:48.3	6.070	0.130	-0.090	0.580
2020/01/31 20:40:48.4	6.070	0.110	-0.080	0.540
2020/01/31 20:40:48.5	6.070	0.080	-0.070	0.490
2020/01/31 20:40:48.6	6.080	0.060	-0.060	0.440
2020/01/31 20:40:48.7	6.090	0.040	-0.060	0.390
2020/01/31 20:40:48.8	6.100	0.030	-0.060	0.330
2020/01/31 20:40:48.9	6.110	0.010	-0.060	0.280
2020/01/31 20:40:49.0	6.120	0.000	-0.060	0.210
2020/01/31 20:40:49.1	6.140	-0.010	-0.060	0.150
2020/01/31 20:40:49.2	6.160	-0.010	-0.060	0.090
2020/01/31 20:40:49.3	6.180	-0.020	-0.060	0.030
2020/01/31 20:40:49.4	6.210	-0.020	-0.060	-0.020
2020/01/31 20:40:49.5	6.230	-0.020	-0.060	-0.080
2020/01/31 20:40:49.6	6.260	-0.020	-0.060	-0.130
2020/01/31 20:40:49.7	6.280	-0.010	-0.050	-0.180
2020/01/31 20:40:49.8	6.310	-0.010	-0.040	-0.220
2020/01/31 20:40:49.9	6.330	-0.000	-0.030	-0.260
2020/01/31 20:40:50.0	6.370	0.000	-0.020	-0.290
2020/01/31 20:40:50.1	6.380	0.010	-0.010	-0.320
2020/01/31 20:40:50.2	6.400	0.010	0.010	-0.340
2020/01/31 20:40:50.3	6.410	0.010	0.030	-0.360
2020/01/31 20:40:50.4	6.420	0.020	0.050	-0.370
2020/01/31 20:40:50.5	6.430	0.020	0.070	-0.370
2020/01/31 20:40:50.6	6.430	0.020	0.100	-0.370
2020/01/31 20:40:50.7	6.430	0.020	0.120	-0.370
2020/01/31 20:40:50.8	6.420	0.010	0.150	-0.360
2020/01/31 20:40:50.9	6.410	0.000	0.170	-0.350
2020/01/31 20:40:51.0	6.400	-0.010	0.190	-0.330
2020/01/31 20:40:51.1	6.390	-0.020	0.210	-0.320
2020/01/31 20:40:51.2	6.370	-0.030	0.230	-0.300
2020/01/31 20:40:51.3	6.350	-0.050	0.240	-0.290
2020/01/31 20:40:51.4	6.330	-0.070	0.250	-0.270
2020/01/31 20:40:51.5	6.310	-0.090	0.260	-0.250
2020/01/31 20:40:51.6	6.290	-0.110	0.270	-0.240
2020/01/31 20:40:51.7	6.260	-0.130	0.270	-0.220
2020/01/31 20:40:51.8	6.240	-0.160	0.260	-0.210
2020/01/31 20:40:51.9	6.210	-0.180	0.250	-0.200
2020/01/31 20:40:52.0	6.190	-0.210	0.240	-0.190
2020/01/31 20:40:52.1	6.170	-0.230	0.210	-0.180
2020/01/31 20:40:52.2	6.150	-0.260	0.190	-0.170
2020/01/31 20:40:52.3	6.130	-0.290	0.150	-0.170
2020/01/31 20:40:52.4	6.120	-0.310	0.120	-0.170
2020/01/31 20:40:52.5	6.110	-0.330	0.070	-0.170
2020/01/31 20:40:52.6	6.100	-0.350	0.020	-0.170
2020/01/31 20:40:52.7	6.090	-0.370	-0.030	-0.180
2020/01/31 20:40:52.8	6.090	-0.390	-0.090	-0.190
2020/01/31 20:40:52.9	6.090	-0.400	-0.150	-0.200
2020/01/31 20:40:53.0	6.080	-0.420	-0.210	-0.210
2020/01/31 20:40:53.1	6.090	-0.420	-0.280	-0.230
2020/01/31 20:40:53.2	6.100	-0.430	-0.350	-0.250
2020/01/31 20:40:53.3	6.110	-0.430	-0.410	-0.260
2020/01/31 20:40:53.4	6.130	-0.430	-0.480	-0.280
2020/01/31 20:40:53.5	6.140	-0.430	-0.550	-0.310
2020/01/31 20:40:53.6	6.160	-0.420	-0.610	-0.330
2020/01/31 20:40:53.7	6.180	-0.410	-0.670	-0.350
2020/01/31 20:40:53.8	6.190	-0.400	-0.720	-0.370
2020/01/31 20:40:53.9	6.210	-0.380	-0.780	-0.390
2020/01/31 20:40:54.0	6.230	-0.370	-0.820	-0.420
2020/01/31 20:40:54.1	6.250	-0.350	-0.860	-0.440
2020/01/31 20:40:54.2	6.270	-0.330	-0.890	-0.450
2020/01/31 20:40:54.3	6.280	-0.310	-0.910	-0.470
2020/01/31 20:40:54.4	6.300	-0.280	-0.930	-0.490
2020/01/31 20:40:54.5	6.310	-0.260	-0.930	-0.500
2020/01/31 20:40:54.6	6.320	-0.230	-0.930	-0.510
2020/01/31 20:40:54.7	6.330	-0.210	-0.920	-0.510
2020/01/31 20:40:54.8	6.340	-0.180	-0.910	-0.510
2020/01/31 20:40:54.9	6.340	-0.160	-0.880	-0.510
2020/01/31 20:40:55.0	6.340	-0.130	-0.850	-0.500
2020/01/31 20:40:55.1	6.340	-0.110	-0.810	-0.490
2020/01/31 20:40:55.2	6.340	-0.080	-0.760	-0.480
2020/01/31 20:40:55.3	6.330	-0.060	-0.710	-0.450
2020/01/31 20:40:55.4	6.330	-0.030	-0.650	-0.430
2020/01/31 20:40:55.5	6.320	-0.010	-0.590	-0.400
2020/01/31 20:40:55.6	6.300	0.010	-0.520	-0.360
2020/01/31 20:40:55.7	6.290	0.030	-0.450	-0.320
2020/01/31 20:40:55.8	6.280	0.050	-0.380	-0.270
2020/01/31 20:40:55.9	6.260	0.070	-0.310	-0.220
2020/01/31 20:40:56.0	6.240	0.080	-0.230	-0.170
2020/01/31 20:40:56.1	6.220	0.100	-0.160	-0.120
2020/01/31 20:40:56.2	6.200	0.110	-0.090	-0.060
2020/01/31 20:40:56.3	6.180	0.130	-0.030	-0.010
2020/01/31 20:40:56.4	6.160	0.140	0.040	0.050
2020/01/31 20:40:56.5	6.140	0.150	0.090	0.110
2020/01/31 20:40:56.6	6.110	0.160	0.140	0.160
2020/01/31 20:40:56.7	6.090	0.180	0.190	0.220
2020/01/31 20:40:56.8	6.070	0.190	0.230	0.270
2020/01/31 20:40:56.9	6.050	0.200	0.260	0.320
2020/01/31 20:40:57.0	6.040	0.210	0.280	0.370
2020/01/31 20:40:57.1	6.020	0.220	0.300	0.410
2020/01/31 20:40:57.2	6.000	0.230	0.300	0.450
2020/01/31 20:40:57.3	5.980	0.240	0.300	0.490
2020/01/31 20:40:57.4	5.970	0.250	0.290	0.520
2020/01/31 20:40:57.5	5.950	0.270	0.280	0.550
2020/01/31 20:40:57.6	5.940	0.280	0.250	0.570
2020/01/31 20:40:57.7	5.920	0.290	0.220	0.590
2020/01/31 20:40:57.8	5.910	0.310	0.180	0.610
2020/01/31 20:40:57.9	5.900	0.320	0.130	0.620
2020/01/31 20:40:58.0	5.870	0.330	0.080	0.620
2020/01/31 20:40:58.1	5.860	0.350	0.020	0.630
2020/01/31 20:40:58.2	5.850	0.360	-0.040	0.620
2020/01/31 20:40:58.3	5.850	0.370	-0.110	0.620
2020/01/31 20:40:58.4	5.840	0.390	-0.170	0.610
2020/01/31 20:40:58.5	5.830	0.400	-0.240	0.590
2020/01/31 20:40:58.6	5.830	0.410	-0.310	0.580
2020/01/31 20:40:58.7	5.830	0.420	-0.380	0.560
2020/01/31 20:40:58.8	5.820	0.430	-0.450	0.540
2020/01/31 20:40:58.9	5.820	0.440	-0.520	0.510
2020/01/31 20:40:59.0	5.820	0.450	-0.580	0.490
2020/01/31 20:40:59.1	5.820	0.460	-0.640	0.460
2020/01/31 20:40:59.2	5.820	0.460	-0.700	0.430
2020/01/31 20:40:59.3	5.830	0.460	-0.750	0.390
2020/01/31 20:40:59.4	5.830	0.460	-0.800	0.360
2020/01/31 20:40:59.5	5.840	0.460	-0.840	0.320
2020/01/31 20:40:59.6	5.850	0.450	-0.880	0.290
2020/01/31 20:40:59.7	5.860	0.440	-0.910	0.250
2020/01/31 20:40:59.8	5.870	0.430	-0.930	0.210
2020/01/31 20:40:59.9	5.880	0.410	-0.950	0.170
2020/01/31 20:41:00.0	5.910	0.400	-0.950	0.140
2020/01/31 20:41:00.1	5.920	0.380	-0.950	0.100
2020/01/31 20:41:00.2	5.930	0.350	-0.950	0.060
2020/01/31 20:41:00.3	5.940	0.330	-0.930	0.020
2020/01/31 20:41:00.4	5.950	0.300	-0.910	-0.010
2020/01/31 20:41:00.5	5.960	0.270	-0.880	-0.050
2020/01/31 20:41:00.6	5.970	0.230	-0.850	-0.090
2020/01/31 20:41:00.7	5.980	0.190	-0.810	-0.120
2020/01/31 20:41:00.8	5.990	0.150	-0.760	-0.150
2020/01/31 20:41:00.9	6.000	0.110	-0.710	-0.190
2020/01/31 20:41:01.0	6.000	0.070	-0.660	-0.220
2020/01/31 20:41:01.1	6.010	0.030	-0.600	-0.250
2020/01/31 20:41:01.2	6.010	-0.020	-0.540	-0.280
2020/01/31 20:41:01.3	6.020	-0.070	-0.470	-0.310
2020/01/31 20:41:01.4	6.020	-0.110	-0.400	-0.340
2020/01/31 20:41:01.5	6.020	-0.160	-0.340	-0.360
2020/01/31 20:41:01.6	6.030	-0.200	-0.270	-0.380
2020/01/31 20:41:01.7	6.030	-0.250	-0.200	-0.400
2020/01/31 20:41:01.8	6.030	-0.290	-0.130	-0.420
2020/01/31 20:41:01.9	6.030	-0.340	-0.070	-0.430
2020/01/31 20:41:02.0	6.030	-0.380	-0.010	-0.440
2020/01/31 20:41:02.1	6.030	-0.410	0.050	-0.450
2020/01/31 20:41:02.2	6.030	-0.450	0.110	-0.460
2020/01/31 20:41:02.3	6.030	-0.480	0.160	-0.460
2020/01/31 20:41:02.4	6.030	-0.510	0.210	-0.460
2020/01/31 20:41:02.5	6.020	-0.540	0.250	-0.460
2020/01/31 20:41:02.6	6.020	-0.560	0.290	-0.460
2020/01/31 20:41:02.7	6.020	-0.580	0.330	-0.450
2020/01/31 20:41:02.8	6.010	-0.600	0.360	-0.440
2020/01/31 20:41:02.9	6.010	-0.610	0.380	-0.430
2020/01/31 20:41:03.0	6.010	-0.620	0.390	-0.420
2020/01/31 20:41:03.1	6.010	-0.630	0.400	-0.400
2020/01/31 20:41:03.2	6.010	-0.630	0.410	-0.390
2020/01/31 20:41:03.3	6.000	-0.620	0.410	-0.370
2020/01/31 20:41:03.4	6.000	-0.620	0.400	-0.340
2020/01/31 20:41:03.5	6.000	-0.610	0.390	-0.320
2020/01/31 20:41:03.6	5.990	-0.590	0.370	-0.290
2020/01/31 20:41:03.7	5.990	-0.570	0.350	-0.270
2020/01/31 20:41:03.8	5.980	-0.550	0.330	-0.240
2020/01/31 20:41:03.9	5.980	-0.530	0.300	-0.210
2020/01/31 20:41:04.0	5.980	-0.500	0.260	-0.180
2020/01/31 20:41:04.1	5.970	-0.480	0.230	-0.150
2020/01/31 20:41:04.2	5.970	-0.440	0.190	-0.120
2020/01/31 20:41:04.3	5.960	-0.410	0.150	-0.080
2020/01/31 20:41:04.4	5.950	-0.380	0.110	-0.050
2020/01/31 20:41:04.5	5.940	-0.340	0.060	-0.010
2020/01/31 20:41:04.6	5.930	-0.310	0.020	0.030
2020/01/31 20:41:04.7	5.920	-0.270	-0.020	0.060
2020/01/31 20:41:04.8	5.910	-0.230	-0.070	0.100
2020/01/31 20:41:04.9	5.900	-0.190	-0.110	0.140
2020/01/31 20:41:05.0	5.880	-0.150	-0.160	0.180
2020/01/31 20:41:05.1	5.860	-0.120	-0.200	0.220
2020/01/31 20:41:05.2	5.850	-0.080	-0.240	0.260
2020/01/31 20:41:05.3	5.840	-0.040	-0.280	0.300
2020/01/31 20:41:05.4	5.830	-0.010	-0.320	0.340
2020/01/31 20:41:05.5	5.810	0.030	-0.360	0.380
2020/01/31 20:41:05.6	5.800	0.060	-0.400	0.410
2020/01/31 20:41:05.7	5.790	0.100	-0.430	0.450
2020/01/31 20:41:05.8	5.780	0.130	-0.460	0.480
2020/01/31 20:41:05.9	5.780	0.160	-0.500	0.510
2020/01/31 20:41:06.0	5.780	0.190	-0.520	0.540
2020/01/31 20:41:06.1	5.770	0.210	-0.550	0.560
2020/01/31 20:41:06.2	5.770	0.240	-0.580	0.580
2020/01/31 20:41:06.3	5.770	0.270	-0.600	0.600
2020/01/31 20:41:06.4	5.770	0.290	-0.620	0.610
2020/01/31 20:41:06.5	5.770	0.310	-0.640	0.620
2020/01/31 20:41:06.6	5.770	0.330	-0.660	0.630
2020/01/31 20:41:06.7	5.780	0.350	-0.670	0.630
2020/01/31 20:41:06.8	5.780	0.360	-0.690	0.630
2020/01/31 20:41:06.9	5.790	0.370	-0.690	0.630
2020/01/31 20:41:07.0	5.790	0.390	-0.710	0.620
2020/01/31 20:41:07.1	5.800	0.390	-0.710	0.610
2020/01/31 20:41:07.2	5.810	0.400	-0.700	0.600
2020/01/31 20:41:07.3	5.810	0.410	-0.700	0.590
2020/01/31 20:41:07.4	5.820	0.410	-0.690	0.580
2020/01/31 20:41:07.5	5.830	0.410	-0.670	0.570
2020/01/31 20:41:07.6	5.830	0.400	-0.650	0.550
2020/01/31 20:41:07.7	5.840	0.400	-0.630	0.540
2020/01/31 20:41:07.8	5.840	0.390	-0.600	0.520
2020/01/31 20:41:07.9	5.840	0.380	-0.570	0.510
2020/01/31 20:41:08.0	5.850	0.360	-0.530	0.500
2020/01/31 20:41:08.1	5.850	0.350	-0.490	0.490
2020/01/31 20:41:08.2	5.850	0.330	-0.440	0.470
2020/01/31 20:41:08.3	5.840	0.300	-0.400	0.460
2020/01/31 20:41:08.4	5.830	0.280	-0.340	0.450
2020/01/31 20:41:08.5	5.820	0.250	-0.290	0.440
2020/01/31 20:41:08.6	5.810	0.220	-0.230	0.420
2020/01/31 20:41:08.7	5.790	0.190	-0.170	0.410
2020/01/31 20:41:08.8	5.770	0.150	-0.100	0.400
2020/01/31 20:41:08.9	5.760	0.120	-0.040	0.390
2020/01/31 20:41:09.0	5.740	0.080	0.020	0.370
2020/01/31 20:41:09.1	5.720	0.040	0.090	0.360
2020/01/31 20:41:09.2	5.700	-0.000	0.150	0.350
2020/01/31 20:41:09.3	5.680	-0.040	0.210	0.330
2020/01/31 20:41:09.4	5.650	-0.080	0.280	0.320
2020/01/31 20:41:09.5	5.630	-0.130	0.340	0.300
2020/01/31 20:41:09.6	5.600	-0.170	0.390	0.290
2020/01/31 20:41:09.7	5.580	-0.210	0.440	0.270
2020/01/31 20:41:09.8	5.560	-0.240	0.490	0.260
2020/01/31 20:41:09.9	5.530	-0.280	0.530	0.240
2020/01/31 20:41:10.0	5.510	-0.320	0.570	0.220
2020/01/31 20:41:10.1	5.490	-0.350	0.600	0.210
2020/01/31 20:41:10.2	5.470	-0.380	0.620	0.180
2020/01/31 20:41:10.3	5.450	-0.410	0.640	0.160
2020/01/31 20:41:10.4	5.440	-0.430	0.640	0.140
2020/01/31 20:41:10.5	5.420	-0.450	0.640	0.120
2020/01/31 20:41:10.6	5.410	-0.470	0.630	0.090
2020/01/31 20:41:10.7	5.400	-0.480	0.610	0.060
2020/01/31 20:41:10.8	5.390	-0.490	0.590	0.040
2020/01/31 20:41:10.9	5.390	-0.500	0.550	0.010
2020/01/31 20:41:11.0	5.390	-0.500	0.510	-0.030
2020/01/31 20:41:11.1	5.390	-0.490	0.450	-0.060
2020/01/31 20:41:11.2	5.390	-0.490	0.390	-0.090
2020/01/31 20:41:11.3	5.400	-0.470	0.320	-0.120
2020/01/31 20:41:11.4	5.400	-0.460	0.250	-0.150
2020/01/31 20:41:11.5	5.410	-0.440	0.160	-0.190
2020/01/31 20:41:11.6	5.420	-0.410	0.070	-0.220
2020/01/31 20:41:11.7	5.430	-0.380	-0.020	-0.250
2020/01/31 20:41:11.8	5.440	-0.350	-0.120	-0.290
2020/01/31 20:41:11.9	5.450	-0.310	-0.220	-0.320
2020/01/31 20:41:12.0	5.460	-0.270	-0.330	-0.350
2020/01/31 20:41:12.1	5.470	-0.230	-0.430	-0.380
2020/01/31 20:41:12.2	5.490	-0.190	-0.540	-0.410
2020/01/31 20:41:12.3	5.500	-0.140	-0.650	-0.450
2020/01/31 20:41:12.4	5.520	-0.090	-0.760	-0.470
2020/01/31 20:41:12.5	5.530	-0.040	-0.860	-0.500
2020/01/31 20:41:12.6	5.550	0.010	-0.960	-0.530
2020/01/31 20:41:12.7	5.560	0.060	-1.060	-0.550
2020/01/31 20:41:12.8	5.580	0.110	-1.160	-0.580
2020/01/31 20:41:12.9	5.600	0.160	-1.250	-0.600
2020/01/31 20:41:13.0	5.610	0.210	-1.330	-0.620
2020/01/31 20:41:13.1	5.630	0.260	-1.400	-0.640
2020/01/31 20:41:13.2	5.650	0.310	-1.470	-0.660
2020/01/31 20:41:13.3	5.660	0.360	-1.530	-0.670
2020/01/31 20:41:13.4	5.680	0.400	-1.590	-0.680
2020/01/31 20:41:13.5	5.690	0.440	-1.630	-0.690
2020/01/31 20:41:13.6	5.700	0.480	-1.660	-0.700
2020/01/31 20:41:13.7	5.720	0.520	-1.690	-0.700
2020/01/31 20:41:13.8	5.730	0.550	-1.700	-0.700
2020/01/31 20:41:13.9	5.740	0.580	-1.700	-0.700
2020/01/31 20:41:14.0	5.730	0.610	-1.700	-0.690
2020/01/31 20:41:14.1	5.740	0.630	-1.690	-0.680
2020/01/31 20:41:14.2	5.750	0.640	-1.660	-0.670
2020/01/31 20:41:14.3	5.750	0.660	-1.620	-0.650
2020/01/31 20:41:14.4	5.760	0.660	-1.570	-0.630
2020/01/31 20:41:14.5	5.760	0.670	-1.520	-0.610
2020/01/31 20:41:14.6	5.770	0.670	-1.450	-0.590
2020/01/31 20:41:14.7	5.770	0.660	-1.380	-0.560
2020/01/31 20:41:14.8	5.770	0.650	-1.290	-0.530
2020/01/31 20:41:14.9	5.770	0.640	-1.200	-0.500
2020/01/31 20:41:15.0	5.760	0.620	-1.110	-0.470
2020/01/31 20:41:15.1	5.760	0.590	-1.000	-0.440
2020/01/31 20:41:15.2	5.760	0.570	-0.890	-0.400
2020/01/31 20:41:15.3	5.760	0.530	-0.780	-0.370
2020/01/31 20:41:15.4	5.750	0.500	-0.670	-0.330
2020/01/31 20:41:15.5	5.750	0.460	-0.550	-0.300
2020/01/31 20:41:15.6	5.740	0.420	-0.430	-0.260
2020/01/31 20:41:15.7	5.730	0.380	-0.300	-0.220
2020/01/31 20:41:15.8	5.720	0.330	-0.180	-0.180
2020/01/31 20:41:15.9	5.710	0.280	-0.060	-0.150
2020/01/31 20:41:16.0	5.700	0.230	0.060	-0.110
2020/01/31 20:41:16.1	5.690	0.170	0.180	-0.070
2020/01/31 20:41:16.2	5.670	0.120	0.290	-0.030
2020/01/31 20:41:16.3	5.660	0.060	0.410	0.000
2020/01/31 20:41:16.4	5.650	0.010	0.520	0.040
2020/01/31 20:41:16.5	5.640	-0.050	0.620	0.070
2020/01/31 20:41:16.6	5.630	-0.110	0.720	0.110
2020/01/31 20:41:16.7	5.620	-0.160	0.810	0.140
2020/01/31 20:41:16.8	5.600	-0.220	0.890	0.170
2020/01/31 20:41:16.9	5.590	-0.270	0.970	0.200
2020/01/31 20:41:17.0	5.590	-0.330	1.040	0.230
2020/01/31 20:41:17.1	5.580	-0.380	1.100	0.260
2020/01/31 20:41:17.2	5.570	-0.430	1.150	0.290
2020/01/31 20:41:17.3	5.560	-0.470	1.200	0.310
2020/01/31 20:41:17.4	5.550	-0.520	1.230	0.330
2020/01/31 20:41:17.5	5.550	-0.560	1.260	0.350
2020/01/31 20:41:17.6	5.540	-0.590	1.270	0.360
2020/01/31 20:41:17.7	5.540	-0.630	1.280	0.370
2020/01/31 20:41:17.8	5.540	-0.650	1.280	0.380
2020/01/31 20:41:17.9	5.530	-0.680	1.270	0.390
2020/01/31 20:41:18.0	5.540	-0.700	1.250	0.400
2020/01/31 20:41:18.1	5.540	-0.720	1.220	0.400
2020/01/31 20:41:18.2	5.540	-0.730	1.180	0.410
2020/01/31 20:41:18.3	5.540	-0.740	1.140	0.410
2020/01/31 20:41:18.4	5.540	-0.740	1.090	0.400
2020/01/31 20:41:18.5	5.540	-0.740	1.030	0.400
2020/01/31 20:41:18.6	5.550	-0.730	0.970	0.400
2020/01/31 20:41:18.7	5.550	-0.730	0.900	0.390
2020/01/31 20:41:18.8	5.560	-0.710	0.820	0.390
2020/01/31 20:41:18.9	5.560	-0.690	0.740	0.380
2020/01/31 20:41:19.0	5.560	-0.670	0.660	0.370
2020/01/31 20:41:19.1	5.570	-0.650	0.570	0.360
2020/01/31 20:41:19.2	5.580	-0.620	0.470	0.350
2020/01/31 20:41:19.3	5.590	-0.580	0.370	0.340
2020/01/31 20:41:19.4	5.590	-0.550	0.270	0.330
2020/01/31 20:41:19.5	5.600	-0.510	0.170	0.320
2020/01/31 20:41:19.6	5.610	-0.470	0.070	0.310
2020/01/31 20:41:19.7	5.620	-0.430	-0.030	0.300
2020/01/31 20:41:19.8	5.630	-0.380	-0.140	0.300
2020/01/31 20:41:19.9	5.640	-0.330	-0.240	0.290
2020/01/31 20:41:20.0	5.630	-0.290	-0.340	0.280
2020/01/31 20:41:20.1	5.640	-0.240	-0.440	0.280
2020/01/31 20:41:20.2	5.640	-0.190	-0.530	0.270
2020/01/31 20:41:20.3	5.650	-0.150	-0.630	0.270
2020/01/31 20:41:20.4	5.650	-0.100	-0.720	0.260
2020/01/31 20:41:20.5	5.650	-0.060	-0.800	0.260
2020/01/31 20:41:20.6	5.640	-0.010	-0.880	0.250
2020/01/31 20:41:20.7	5.640	0.030	-0.960	0.250
2020/01/31 20:41:20.8	5.640	0.070	-1.030	0.240
2020/01/31 20:41:20.9	5.630	0.110	-1.090	0.230
2020/01/31 20:41:21.0	5.620	0.150	-1.150	0.230
2020/01/31 20:41:21.1	5.610	0.180	-1.210	0.220
2020/01/31 20:41:21.2	5.600	0.210	-1.250	0.210
2020/01/31 20:41:21.3	5.580	0.240	-1.290	0.200
2020/01/31 20:41:21.4	5.570	0.260	-1.320	0.180
2020/01/31 20:41:21.5	5.550	0.290	-1.340	0.170
2020/01/31 20:41:21.6	5.540	0.310	-1.360	0.160
2020/01/31 20:41:21.7	5.520	0.330	-1.370	0.140
2020/01/31 20:41:21.8	5.500	0.340	-1.370	0.130
2020/01/31 20:41:21.9	5.480	0.350	-1.360	0.120
2020/01/31 20:41:22.0	5.460	0.360	-1.350	0.100
2020/01/31 20:41:22.1	5.440	0.370	-1.330	0.090
2020/01/31 20:41:22.2	5.420	0.380	-1.300	0.080
2020/01/31 20:41:22.3	5.400	0.380	-1.270	0.060
2020/01/31 20:41:22.4	5.380	0.380	-1.230	0.050
2020/01/31 20:41:22.5	5.360	0.380	-1.190	0.040
2020/01/31 20:41:22.6	5.340	0.380	-1.140	0.030
2020/01/31 20:41:22.7	5.330	0.380	-1.080	0.020
2020/01/31 20:41:22.8	5.310	0.370	-1.030	0.010
2020/01/31 20:41:22.9	5.290	0.370	-0.970	-0.000
2020/01/31 20:41:23.0	5.280	0.360	-0.910	-0.010
2020/01/31 20:41:23.1	5.260	0.360	-0.840	-0.020
2020/01/31 20:41:23.2	5.250	0.350	-0.770	-0.030
2020/01/31 20:41:23.3	5.240	0.340	-0.710	-0.040
2020/01/31 20:41:23.4	5.230	0.340	-0.640	-0.050
2020/01/31 20:41:23.5	5.220	0.330	-0.570	-0.060
2020/01/31 20:41:23.6	5.210	0.320	-0.500	-0.070
2020/01/31 20:41:23.7	5.200	0.310	-0.430	-0.080
2020/01/31 20:41:23.8	5.200	0.310	-0.370	-0.090
2020/01/31 20:41:23.9	5.200	0.300	-0.310	-0.110
2020/01/31 20:41:24.0	5.190	0.290	-0.240	-0.120
2020/01/31 20:41:24.1	5.190	0.290	-0.180	-0.140
2020/01/31 20:41:24.2	5.190	0.280	-0.130	-0.160
2020/01/31 20:41:24.3	5.200	0.280	-0.080	-0.170
2020/01/31 20:41:24.4	5.210	0.280	-0.030	-0.190
2020/01/31 20:41:24.5	5.220	0.270	0.010	-0.210
2020/01/31 20:41:24.6	5.230	0.270	0.050	-0.230
2020/01/31 20:41:24.7	5.240	0.270	0.090	-0.250
2020/01/31 20:41:24.8	5.260	0.270	0.120	-0.270
2020/01/31 20:41:24.9	5.270	0.270	0.150	-0.280
2020/01/31 20:41:25.0	5.290	0.270	0.170	-0.300
2020/01/31 20:41:25.1	5.310	0.280	0.190	-0.310
2020/01/31 20:41:25.2	5.330	0.280	0.210	-0.330
2020/01/31 20:41:25.3	5.350	0.280	0.230	-0.340
2020/01/31 20:41:25.4	5.370	0.280	0.240	-0.350
2020/01/31 20:41:25.5	5.380	0.280	0.250	-0.350
2020/01/31 20:41:25.6	5.400	0.290	0.260	-0.360
2020/01/31 20:41:25.7	5.420	0.290	0.270	-0.360
2020/01/31 20:41:25.8	5.430	0.290	0.270	-0.360
2020/01/31 20:41:25.9	5.450	0.290	0.270	-0.360
2020/01/31 20:41:26.0	5.470	0.280	0.270	-0.350
2020/01/31 20:41:26.1	5.480	0.280	0.260	-0.340
2020/01/31 20:41:26.2	5.500	0.280	0.260	-0.330
2020/01/31 20:41:26.3	5.510	0.270	0.250	-0.320
2020/01/31 20:41:26.4	5.520	0.260	0.240	-0.310
2020/01/31 20:41:26.5	5.530	0.250	0.220	-0.300
2020/01/31 20:41:26.6	5.540	0.240	0.210	-0.290
2020/01/31 20:41:26.7	5.540	0.230	0.190	-0.270
2020/01/31 20:41:26.8	5.550	0.210	0.170	-0.260
2020/01/31 20:41:26.9	5.550	0.190	0.140	-0.240
2020/01/31 20:41:27.0	5.550	0.180	0.120	-0.220
2020/01/31 20:41:27.1	5.550	0.150	0.090	-0.200
2020/01/31 20:41:27.2	5.550	0.130	0.060	-0.190
2020/01/31 20:41:27.3	5.550	0.110	0.030	-0.170
2020/01/31 20:41:27.4	5.550	0.080	0.000	-0.160
2020/01/31 20:41:27.5	5.550	0.050	-0.030	-0.150
2020/01/31 20:41:27.6	5.540	0.020	-0.060	-0.130
2020/01/31 20:41:27.7	5.540	-0.010	-0.100	-0.120
2020/01/31 20:41:27.8	5.530	-0.040	-0.130	-0.110
2020/01/31 20:41:27.9	5.530	-0.070	-0.160	-0.100
2020/01/31 20:41:28.0	5.520	-0.100	-0.190	-0.100
2020/01/31 20:41:28.1	5.520	-0.130	-0.230	-0.090
2020/01/31 20:41:28.2	5.520	-0.160	-0.260	-0.090
2020/01/31 20:41:28.3	5.510	-0.190	-0.290	-0.080
2020/01/31 20:41:28.4	5.510	-0.220	-0.320	-0.080
2020/01/31 20:41:28.5	5.510	-0.250	-0.350	-0.080
2020/01/31 20:41:28.6	5.510	-0.280	-0.380	-0.080
2020/01/31 20:41:28.7	5.510	-0.310	-0.410	-0.090
2020/01/31 20:41:28.8	5.510	-0.330	-0.430	-0.090
2020/01/31 20:41:28.9	5.510	-0.360	-0.450	-0.090
2020/01/31 20:41:29.0	5.510	-0.380	-0.480	-0.100
2020/01/31 20:41:29.1	5.520	-0.400	-0.500	-0.100
2020/01/31 20:41:29.2	5.520	-0.420	-0.510	-0.110
2020/01/31 20:41:29.3	5.530	-0.430	-0.530	-0.120
2020/01/31 20:41:29.4	5.540	-0.450	-0.540	-0.130
2020/01/31 20:41:29.5	5.550	-0.460	-0.560	-0.140
2020/01/31 20:41:29.6	5.560	-0.470	-0.570	-0.150
2020/01/31 20:41:29.7	5.580	-0.480	-0.570	-0.170
2020/01/31 20:41:29.8	5.590	-0.480	-0.580	-0.180
2020/01/31 20:41:29.9	5.610	-0.490	-0.590	-0.190
2020/01/31 20:41:30.0	5.630	-0.490	-0.590	-0.210
2020/01/31 20:41:30.1	5.650	-0.490	-0.590	-0.220
2020/01/31 20:41:30.2	5.660	-0.490	-0.590	-0.240
2020/01/31 20:41:30.3	5.680	-0.480	-0.590	-0.250
2020/01/31 20:41:30.4	5.700	-0.480	-0.590	-0.260
2020/01/31 20:41:30.5	5.720	-0.470	-0.580	-0.280
2020/01/31 20:41:30.6	5.740	-0.460	-0.580	-0.290
2020/01/31 20:41:30.7	5.760	-0.450	-0.570	-0.300
2020/01/31 20:41:30.8	5.780	-0.440	-0.560	-0.310
2020/01/31 20:41:30.9	5.800	-0.430	-0.550	-0.320
2020/01/31 20:41:31.0	5.830	-0.420	-0.550	-0.330
2020/01/31 20:41:31.1	5.850	-0.410	-0.530	-0.340
2020/01/31 20:41:31.2	5.860	-0.400	-0.520	-0.340
2020/01/31 20:41:31.3	5.880	-0.380	-0.500	-0.350
2020/01/31 20:41:31.4	5.900	-0.370	-0.480	-0.350
2020/01/31 20:41:31.5	5.910	-0.350	-0.470	-0.350
2020/01/31 20:41:31.6	5.930	-0.340	-0.450	-0.340
2020/01/31 20:41:31.7	5.940	-0.320	-0.430	-0.340
2020/01/31 20:41:31.8	5.960	-0.310	-0.400	-0.330
2020/01/31 20:41:31.9	5.970	-0.290	-0.380	-0.320
2020/01/31 20:41:32.0	5.980	-0.280	-0.350	-0.310
2020/01/31 20:41:32.1	5.990	-0.260	-0.330	-0.300
2020/01/31 20:41:32.2	6.000	-0.240	-0.300	-0.280
2020/01/31 20:41:32.3	6.010	-0.230	-0.270	-0.250
2020/01/31 20:41:32.4	6.010	-0.210	-0.240	-0.230
2020/01/31 20:41:32.5	6.010	-0.190	-0.210	-0.200
2020/01/31 20:41:32.6	6.020	-0.170	-0.180	-0.170
2020/01/31 20:41:32.7	6.010	-0.150	-0.150	-0.130
2020/01/31 20:41:32.8	6.010	-0.130	-0.120	-0.090
2020/01/31 20:41:32.9	6.000	-0.110	-0.090	-0.050
2020/01/31 20:41:33.0	5.990	-0.090	-0.060	-0.000
2020/01/31 20:41:33.1	5.980	-0.070	-0.030	0.050
2020/01/31 20:41:33.2	5.970	-0.050	0.010	0.100
2020/01/31 20:41:33.3	5.950	-0.030	0.040	0.150
2020/01/31 20:41:33.4	5.930	-0.010	0.070	0.200
2020/01/31 20:41:33.5	5.910	0.010	0.110	0.250
2020/01/31 20:41:33.6	5.880	0.040	0.140	0.310
2020/01/31 20:41:33.7	5.850	0.060	0.170	0.360
2020/01/31 20:41:33.8	5.820	0.080	0.200	0.420
2020/01/31 20:41:33.9	5.790	0.100	0.230	0.470
2020/01/31 20:41:34.0	5.760	0.120	0.260	0.530
2020/01/31 20:41:34.1	5.720	0.150	0.280	0.580
2020/01/31 20:41:34.2	5.680	0.170	0.300	0.630
2020/01/31 20:41:34.3	5.640	0.190	0.320	0.680
2020/01/31 20:41:34.4	5.610	0.210	0.340	0.730
2020/01/31 20:41:34.5	5.570	0.240	0.350	0.770
2020/01/31 20:41:34.6	5.530	0.260	0.360	0.810
2020/01/31 20:41:34.7	5.490	0.280	0.360	0.850
2020/01/31 20:41:34.8	5.450	0.300	0.360	0.880
2020/01/31 20:41:34.9	5.410	0.320	0.350	0.910
2020/01/31 20:41:35.0	5.380	0.340	0.340	0.940
2020/01/31 20:41:35.1	5.350	0.370	0.330	0.960
2020/01/31 20:41:35.2	5.320	0.390	0.310	0.970
2020/01/31 20:41:35.3	5.280	0.410	0.290	0.990
2020/01/31 20:41:35.4	5.250	0.430	0.260	0.990
2020/01/31 20:41:35.5	5.230	0.450	0.220	1.000
2020/01/31 20:41:35.6	5.200	0.460	0.190	1.000
2020/01/31 20:41:35.7	5.180	0.480	0.150	0.990
2020/01/31 20:41:35.8	5.150	0.500	0.100	0.980
2020/01/31 20:41:35.9	5.130	0.510	0.060	0.960
2020/01/31 20:41:36.0	5.110	0.530	0.010	0.940
2020/01/31 20:41:36.1	5.100	0.540	-0.050	0.910
2020/01/31 20:41:36.2	5.080	0.550	-0.100	0.890
2020/01/31 20:41:36.3	5.070	0.560	-0.160	0.850
2020/01/31 20:41:36.4	5.060	0.570	-0.220	0.810
2020/01/31 20:41:36.5	5.050	0.580	-0.280	0.770
2020/01/31 20:41:36.6	5.040	0.580	-0.340	0.720
2020/01/31 20:41:36.7	5.030	0.590	-0.400	0.670
2020/01/31 20:41:36.8	5.020	0.590	-0.450	0.620
2020/01/31 20:41:36.9	5.020	0.590	-0.510	0.560
2020/01/31 20:41:37.0	5.020	0.590	-0.570	0.500
2020/01/31 20:41:37.1	5.020	0.580	-0.620	0.440
2020/01/31 20:41:37.2	5.020	0.580	-0.680	0.370
2020/01/31 20:41:37.3	5.020	0.570	-0.730	0.310
2020/01/31 20:41:37.4	5.020	0.550	-0.780	0.240
2020/01/31 20:41:37.5	5.030	0.540	-0.820	0.170
2020/01/31 20:41:37.6	5.030	0.530	-0.860	0.090
2020/01/31 20:41:37.7	5.040	0.510	-0.900	0.020
2020/01/31 20:41:37.8	5.050	0.490	-0.940	-0.060
2020/01/31 20:41:37.9	5.070	0.470	-0.970	-0.140
2020/01/31 20:41:38.0	5.090	0.440	-1.000	-0.220
2020/01/31 20:41:38.1	5.110	0.420	-1.020	-0.300
2020/01/31 20:41:38.2	5.140	0.390	-1.040	-0.380
2020/01/31 20:41:38.3	5.160	0.360	-1.060	-0.460
2020/01/31 20:41:38.4	5.190	0.330	-1.070	-0.540
2020/01/31 20:41:38.5	5.230	0.300	-1.080	-0.620
2020/01/31 20:41:38.6	5.260	0.260	-1.080	-0.700
2020/01/31 20:41:38.7	5.300	0.230	-1.080	-0.780
2020/01/31 20:41:38.8	5.350	0.190	-1.080	-0.860
2020/01/31 20:41:38.9	5.390	0.160	-1.070	-0.940
2020/01/31 20:41:39.0	5.440	0.120	-1.050	-1.010
2020/01/31 20:41:39.1	5.490	0.080	-1.030	-1.080
2020/01/31 20:41:39.2	5.540	0.040	-1.010	-1.150
2020/01/31 20:41:39.3	5.590	0.000	-0.980	-1.220
2020/01/31 20:41:39.4	5.640	-0.040	-0.950	-1.280
2020/01/31 20:41:39.5	5.700	-0.070	-0.910	-1.340
2020/01/31 20:41:39.6	5.750	-0.110	-0.870	-1.390
2020/01/31 20:41:39.7	5.810	-0.150	-0.830	-1.440
2020/01/31 20:41:39.8	5.860	-0.180	-0.790	-1.490
2020/01/31 20:41:39.9	5.920	-0.220	-0.740	-1.530
2020/01/31 20:41:40.0	5.990	-0.250	-0.690	-1.570
2020/01/31 20:41:40.1	6.040	-0.280	-0.640	-1.600
2020/01/31 20:41:40.2	6.090	-0.310	-0.580	-1.630
2020/01/31 20:41:40.3	6.140	-0.340	-0.530	-1.650
2020/01/31 20:41:40.4	6.190	-0.370	-0.470	-1.660
2020/01/31 20:41:40.5	6.240	-0.390	-0.420	-1.670
2020/01/31 20:41:40.6	6.290	-0.410	-0.360	-1.660
2020/01/31 20:41:40.7	6.330	-0.430	-0.300	-1.660
2020/01/31 20:41:40.8	6.370	-0.450	-0.250	-1.640
2020/01/31 20:41:40.9	6.410	-0.460	-0.190	-1.620
2020/01/31 20:41:41.0	6.450	-0.470	-0.140	-1.590
2020/01/31 20:41:41.1	6.480	-0.480	-0.090	-1.560
2020/01/31 20:41:41.2	6.510	-0.490	-0.040	-1.520
2020/01/31 20:41:41.3	6.530	-0.500	0.010	-1.480
2020/01/31 20:41:41.4	6.550	-0.500	0.060	-1.440
2020/01/31 20:41:41.5	6.570	-0.500	0.100	-1.380
2020/01/31 20:41:41.6	6.580	-0.500	0.140	-1.330
2020/01/31 20:41:41.7	6.590	-0.500	0.170	-1.270
2020/01/31 20:41:41.8	6.600	-0.490	0.210	-1.210
2020/01/31 20:41:41.9	6.600	-0.490	0.230	-1.160
2020/01/31 20:41:42.0	6.600	-0.480	0.260	-1.090
2020/01/31 20:41:42.1	6.600	-0.470	0.270	-1.030
2020/01/31 20:41:42.2	6.600	-0.470	0.290	-0.970
2020/01/31 20:41:42.3	6.590	-0.460	0.300	-0.910
2020/01/31 20:41:42.4	6.580	-0.450	0.300	-0.850
2020/01/31 20:41:42.5	6.570	-0.430	0.310	-0.790
2020/01/31 20:41:42.6	6.560	-0.420	0.300	-0.730
2020/01/31 20:41:42.7	6.550	-0.410	0.300	-0.670
2020/01/31 20:41:42.8	6.530	-0.400	0.290	-0.620
2020/01/31 20:41:42.9	6.520	-0.380	0.280	-0.560
2020/01/31 20:41:43.0	6.510	-0.370	0.260	-0.500
2020/01/31 20:41:43.1	6.490	-0.360	0.250	-0.450
2020/01/31 20:41:43.2	6.470	-0.340	0.230	-0.400
2020/01/31 20:41:43.3	6.450	-0.330	0.210	-0.350
2020/01/31 20:41:43.4	6.430	-0.310	0.200	-0.300
2020/01/31 20:41:43.5	6.400	-0.300	0.180	-0.250
2020/01/31 20:41:43.6	6.380	-0.280	0.160	-0.200
2020/01/31 20:41:43.7	6.350	-0.270	0.150	-0.150
2020/01/31 20:41:43.8	6.320	-0.250	0.140	-0.100
2020/01/31 20:41:43.9	6.290	-0.240	0.130	-0.050
2020/01/31 20:41:44.0	6.250	-0.230	0.120	0.000
2020/01/31 20:41:44.1	6.220	-0.210	0.110	0.060
2020/01/31 20:41:44.2	6.180	-0.200	0.110	0.110
2020/01/31 20:41:44.3	6.140	-0.190	0.110	0.160
2020/01/31 20:41:44.4	6.100	-0.170	0.120	0.220
2020/01/31 20:41:44.5	6.060	-0.160	0.120	0.270
2020/01/31 20:41:44.6	6.020	-0.150	0.130	0.330
2020/01/31 20:41:44.7	5.980	-0.140	0.150	0.380
2020/01/31 20:41:44.8	5.930	-0.130	0.160	0.430
2020/01/31 20:41:44.9	5.890	-0.120	0.180	0.480
2020/01/31 20:41:45.0	5.840	-0.110	0.190	0.520
2020/01/31 20:41:45.1	5.790	-0.100	0.210	0.570
2020/01/31 20:41:45.2	5.750	-0.090	0.230	0.610
2020/01/31 20:41:45.3	5.700	-0.080	0.250	0.640
2020/01/31 20:41:45.4	5.660	-0.070	0.260	0.670
2020/01/31 20:41:45.5	5.620	-0.060	0.280	0.700
2020/01/31 20:41:45.6	5.580	-0.040	0.290	0.720
2020/01/31 20:41:45.7	5.540	-0.030	0.300	0.740
2020/01/31 20:41:45.8	5.500	-0.020	0.310	0.760
2020/01/31 20:41:45.9	5.460	-0.010	0.310	0.760
2020/01/31 20:41:46.0	5.430	0.010	0.300	0.760
2020/01/31 20:41:46.1	5.400	0.020	0.290	0.760
2020/01/31 20:41:46.2	5.360	0.040	0.280	0.760
2020/01/31 20:41:46.3	5.340	0.060	0.260	0.750
2020/01/31 20:41:46.4	5.310	0.080	0.240	0.740
2020/01/31 20:41:46.5	5.290	0.100	0.210	0.720
2020/01/31 20:41:46.6	5.270	0.120	0.170	0.700
2020/01/31 20:41:46.7	5.250	0.140	0.130	0.680
2020/01/31 20:41:46.8	5.230	0.170	0.080	0.650
2020/01/31 20:41:46.9	5.220	0.200	0.020	0.620
2020/01/31 20:41:47.0	5.220	0.220	-0.040	0.590
2020/01/31 20:41:47.1	5.220	0.250	-0.100	0.550
2020/01/31 20:41:47.2	5.210	0.280	-0.170	0.520
2020/01/31 20:41:47.3	5.220	0.310	-0.240	0.480
2020/01/31 20:41:47.4	5.220	0.340	-0.310	0.440
2020/01/31 20:41:47.5	5.230	0.370	-0.390	0.390
2020/01/31 20:41:47.6	5.240	0.400	-0.470	0.350
2020/01/31 20:41:47.7	5.250	0.430	-0.550	0.300
2020/01/31 20:41:47.8	5.260	0.460	-0.630	0.250
2020/01/31 20:41:47.9	5.280	0.490	-0.710	0.200
2020/01/31 20:41:48.0	5.300	0.510	-0.790	0.150
2020/01/31 20:41:48.1	5.320	0.530	-0.870	0.100
2020/01/31 20:41:48.2	5.340	0.550	-0.940	0.040
2020/01/31 20:41:48.3	5.360	0.570	-1.010	-0.010
2020/01/31 20:41:48.4	5.380	0.580	-1.080	-0.070
2020/01/31 20:41:48.5	5.400	0.600	-1.140	-0.130
2020/01/31 20:41:48.6	5.430	0.600	-1.190	-0.180
2020/01/31 20:41:48.7	5.450	0.610	-1.240	-0.240
2020/01/31 20:41:48.8	5.470	0.610	-1.290	-0.300
2020/01/31 20:41:48.9	5.500	0.600	-1.330	-0.350
2020/01/31 20:41:49.0	5.520	0.590	-1.360	-0.400
2020/01/31 20:41:49.1	5.550	0.580	-1.380	-0.460
2020/01/31 20:41:49.2	5.570	0.570	-1.400	-0.510
2020/01/31 20:41:49.3	5.600	0.550	-1.410	-0.560
2020/01/31 20:41:49.4	5.630	0.520	-1.410	-0.600
2020/01/31 20:41:49.5	5.650	0.500	-1.400	-0.650
2020/01/31 20:41:49.6	5.680	0.460	-1.390	-0.690
2020/01/31 20:41:49.7	5.710	0.430	-1.370	-0.730
2020/01/31 20:41:49.8	5.740	0.390	-1.340	-0.770
2020/01/31 20:41:49.9	5.770	0.350	-1.310	-0.810
2020/01/31 20:41:50.0	5.790	0.310	-1.270	-0.840
2020/01/31 20:41:50.1	5.820	0.270	-1.230	-0.880
2020/01/31 20:41:50.2	5.850	0.220	-1.180	-0.910
2020/01/31 20:41:50.3	5.880	0.170	-1.130	-0.930
2020/01/31 20:41:50.4	5.910	0.120	-1.070	-0.960
2020/01/31 20:41:50.5	5.940	0.070	-1.010	-0.980
2020/01/31 20:41:50.6	5.970	0.020	-0.940	-1.000
2020/01/31 20:41:50.7	6.000	-0.030	-0.880	-1.020
2020/01/31 20:41:50.8	6.030	-0.070	-0.810	-1.030
2020/01/31 20:41:50.9	6.050	-0.120	-0.740	-1.050
2020/01/31 20:41:51.0	6.070	-0.170	-0.670	-1.060
2020/01/31 20:41:51.1	6.100	-0.220	-0.600	-1.070
2020/01/31 20:41:51.2	6.120	-0.260	-0.520	-1.070
2020/01/31 20:41:51.3	6.140	-0.300	-0.450	-1.070
2020/01/31 20:41:51.4	6.160	-0.340	-0.370	-1.060
2020/01/31 20:41:51.5	6.180	-0.380	-0.300	-1.050
2020/01/31 20:41:51.6	6.190	-0.410	-0.230	-1.040
2020/01/31 20:41:51.7	6.210	-0.440	-0.160	-1.020
2020/01/31 20:41:51.8	6.220	-0.460	-0.090	-1.000
2020/01/31 20:41:51.9	6.230	-0.480	-0.020	-0.980
2020/01/31 20:41:52.0	6.240	-0.500	0.040	-0.940
2020/01/31 20:41:52.1	6.250	-0.520	0.110	-0.910
2020/01/31 20:41:52.2	6.250	-0.530	0.170	-0.870
2020/01/31 20:41:52.3	6.250	-0.530	0.220	-0.820
2020/01/31 20:41:52.4	6.250	-0.540	0.280	-0.780
2020/01/31 20:41:52.5	6.250	-0.530	0.330	-0.730
2020/01/31 20:41:52.6	6.240	-0.530	0.380	-0.670
2020/01/31 20:41:52.7	6.230	-0.520	0.420	-0.620
2020/01/31 20:41:52.8	6.220	-0.510	0.460	-0.560
2020/01/31 20:41:52.9	6.210	-0.490	0.500	-0.500
2020/01/31 20:41:53.0	6.190	-0.480	0.530	-0.440
2020/01/31 20:41:53.1	6.180	-0.460	0.560	-0.380
2020/01/31 20:41:53.2	6.170	-0.430	0.580	-0.320
2020/01/31 20:41:53.3	6.160	-0.400	0.600	-0.260
2020/01/31 20:41:53.4	6.140	-0.370	0.610	-0.200
2020/01/31 20:41:53.5	6.130	-0.340	0.620	-0.140
2020/01/31 20:41:53.6	6.110	-0.310	0.620	-0.080
2020/01/31 20:41:53.7	6.100	-0.270	0.620	-0.030
2020/01/31 20:41:53.8	6.080	-0.240	0.610	0.030
2020/01/31 20:41:53.9	6.070	-0.200	0.600	0.080
2020/01/31 20:41:54.0	6.050	-0.160	0.580	0.140
2020/01/31 20:41:54.1	6.040	-0.120	0.560	0.190
2020/01/31 20:41:54.2	6.020	-0.080	0.540	0.240
2020/01/31 20:41:54.3	6.010	-0.050	0.510	0.280
2020/01/31 20:41:54.4	5.990	-0.010	0.480	0.320
2020/01/31 20:41:54.5	5.970	0.030	0.450	0.370
2020/01/31 20:41:54.6	5.950	0.070	0.410	0.400
2020/01/31 20:41:54.7	5.930	0.100	0.370	0.440
2020/01/31 20:41:54.8	5.920	0.140	0.330	0.470
2020/01/31 20:41:54.9	5.900	0.170	0.290	0.500
2020/01/31 20:41:55.0	5.880	0.200	0.240	0.530
2020/01/31 20:41:55.1	5.860	0.220	0.200	0.560
2020/01/31 20:41:55.2	5.840	0.250	0.150	0.580
2020/01/31 20:41:55.3	5.830	0.270	0.100	0.600
2020/01/31 20:41:55.4	5.810	0.290	0.050	0.610
2020/01/31 20:41:55.5	5.790	0.300	0.010	0.620
2020/01/31 20:41:55.6	5.770	0.320	-0.040	0.630
2020/01/31 20:41:55.7	5.760	0.330	-0.090	0.630
2020/01/31 20:41:55.8	5.740	0.330	-0.130	0.630
2020/01/31 20:41:55.9	5.720	0.330	-0.170	0.630
2020/01/31 20:41:56.0	5.690	0.330	-0.220	0.620
2020/01/31 20:41:56.1	5.670	0.330	-0.260	0.610
2020/01/31 20:41:56.2	5.650	0.320	-0.290	0.600
2020/01/31 20:41:56.3	5.640	0.310	-0.330	0.580
2020/01/31 20:41:56.4	5.620	0.300	-0.360	0.550
2020/01/31 20:41:56.5	5.610	0.280	-0.380	0.530
2020/01/31 20:41:56.6	5.600	0.260	-0.410	0.490
2020/01/31 20:41:56.7	5.580	0.240	-0.430	0.460
2020/01/31 20:41:56.8	5.570	0.220	-0.450	0.420
2020/01/31 20:41:56.9	5.560	0.200	-0.470	0.380
2020/01/31 20:41:57.0	5.550	0.170	-0.480	0.330
2020/01/31 20:41:57.1	5.550	0.140	-0.490	0.290
2020/01/31 20:41:57.2	5.540	0.120	-0.500	0.240
2020/01/31 20:41:57.3	5.530	0.090	-0.510	0.190
2020/01/31 20:41:57.4	5.520	0.060	-0.510	0.140
2020/01/31 20:41:57.5	5.520	0.030	-0.510	0.090
2020/01/31 20:41:57.6	5.510	0.010	-0.510	0.030
2020/01/31 20:41:57.7	5.510	-0.020	-0.510	-0.020
2020/01/31 20:41:57.8	5.510	-0.040	-0.510	-0.070
2020/01/31 20:41:57.9	5.510	-0.060	-0.500	-0.120
2020/01/31 20:41:58.0	5.510	-0.080	-0.500	-0.170
2020/01/31 20:41:58.1	5.510	-0.100	-0.500	-0.220
2020/01/31 20:41:58.2	5.520	-0.120	-0.490	-0.270
2020/01/31 20:41:58.3	5.520	-0.130	-0.480	-0.320
2020/01/31 20:41:58.4	5.530	-0.140	-0.480	-0.360
2020/01/31 20:41:58.5	5.540	-0.150	-0.470	-0.410
2020/01/31 20:41:58.6	5.560	-0.150	-0.460	-0.450
2020/01/31 20:41:58.7	5.570	-0.160	-0.450	-0.490
2020/01/31 20:41:58.8	5.590	-0.160	-0.450	-0.530
2020/01/31 20:41:58.9	5.600	-0.150	-0.440	-0.560
2020/01/31 20:41:59.0	5.620	-0.150	-0.440	-0.590
2020/01/31 20:41:59.1	5.640	-0.140	-0.430	-0.620
2020/01/31 20:41:59.2	5.660	-0.130	-0.430	-0.650
2020/01/31 20:41:59.3	5.680	-0.110	-0.420	-0.670
2020/01/31 20:41:59.4	5.700	-0.100	-0.410	-0.690
2020/01/31 20:41:59.5	5.710	-0.080	-0.410	-0.700
2020/01/31 20:41:59.6	5.730	-0.070	-0.400	-0.720
2020/01/31 20:41:59.7	5.750	-0.050	-0.400	-0.720
2020/01/31 20:41:59.8	5.770	-0.030	-0.390	-0.730
2020/01/31 20:41:59.9	5.790	-0.010	-0.390	-0.730
2020/01/31 20:42:00.0	5.800	0.010	-0.380	-0.730
2020/01/31 20:42:00.1	5.820	0.020	-0.380	-0.720
2020/01/31 20:42:00.2	5.830	0.040	-0.370	-0.720
2020/01/31 20:42:00.3	5.850	0.060	-0.370	-0.710
2020/01/31 20:42:00.4	5.860	0.070	-0.360	-0.700
2020/01/31 20:42:00.5	5.880	0.080	-0.350	-0.680
2020/01/31 20:42:00.6	5.890	0.090	-0.340	-0.670
2020/01/31 20:42:00.7	5.900	0.100	-0.330	-0.650
2020/01/31 20:42:00.8	5.910	0.110	-0.320	-0.630
2020/01/31 20:42:00.9	5.920	0.110	-0.310	-0.610
2020/01/31 20:42:01.0	5.930	0.110	-0.300	-0.590
2020/01/31 20:42:01.1	5.940	0.110	-0.290	-0.570
2020/01/31 20:42:01.2	5.940	0.110	-0.270	-0.540
2020/01/31 20:42:01.3	5.940	0.100	-0.260	-0.510
2020/01/31 20:42:01.4	5.940	0.090	-0.250	-0.480
2020/01/31 20:42:01.5	5.930	0.080	-0.230	-0.450
2020/01/31 20:42:01.6	5.930	0.060	-0.220	-0.420
2020/01/31 20:42:01.7	5.920	0.040	-0.210	-0.380
2020/01/31 20:42:01.8	5.910	0.020	-0.200	-0.350
2020/01/31 20:42:01.9	5.900	-0.000	-0.190	-0.320
2020/01/31 20:42:02.0	5.890	-0.030	-0.180	-0.290
2020/01/31 20:42:02.1	5.880	-0.050	-0.170	-0.250
2020/01/31 20:42:02.2	5.870	-0.080	-0.170	-0.230
2020/01/31 20:42:02.3	5.860	-0.110	-0.160	-0.200
2020/01/31 20:42:02.4	5.850	-0.130	-0.170	-0.180
2020/01/31 20:42:02.5	5.840	-0.160	-0.170	-0.160
2020/01/31 20:42:02.6	5.840	-0.190	-0.170	-0.140
2020/01/31 20:42:02.7	5.840	-0.220	-0.180	-0.130
2020/01/31 20:42:02.8	5.830	-0.240	-0.200	-0.110
2020/01/31 20:42:02.9	5.840	-0.270	-0.210	-0.110
2020/01/31 20:42:03.0	5.840	-0.290	-0.230	-0.100
2020/01/31 20:42:03.1	5.850	-0.310	-0.250	-0.110
2020/01/31 20:42:03.2	5.850	-0.320	-0.280	-0.110
2020/01/31 20:42:03.3	5.860	-0.340	-0.310	-0.120
2020/01/31 20:42:03.4	5.880	-0.350	-0.340	-0.130
2020/01/31 20:42:03.5	5.890	-0.350	-0.370	-0.140
2020/01/31 20:42:03.6	5.900	-0.350	-0.400	-0.150
2020/01/31 20:42:03.7	5.920	-0.350	-0.440	-0.170
2020/01/31 20:42:03.8	5.940	-0.350	-0.470	-0.190
2020/01/31 20:42:03.9	5.950	-0.340	-0.500	-0.200
2020/01/31 20:42:04.0	5.970	-0.330	-0.540	-0.220
2020/01/31 20:42:04.1	5.990	-0.310	-0.570	-0.240
2020/01/31 20:42:04.2	6.010	-0.290	-0.600	-0.260
2020/01/31 20:42:04.3	6.030	-0.260	-0.620	-0.270
2020/01/31 20:42:04.4	6.040	-0.240	-0.640	-0.280
2020/01/31 20:42:04.5	6.060	-0.210	-0.660	-0.290
2020/01/31 20:42:04.6	6.080	-0.170	-0.680	-0.300
2020/01/31 20:42:04.7	6.100	-0.140	-0.680	-0.310
2020/01/31 20:42:04.8	6.110	-0.100	-0.690	-0.310
2020/01/31 20:42:04.9	6.130	-0.060	-0.690	-0.320
2020/01/31 20:42:05.0	6.150	-0.020	-0.680	-0.320
2020/01/31 20:42:05.1	6.160	0.020	-0.670	-0.320
2020/01/31 20:42:05.2	6.180	0.060	-0.650	-0.310
2020/01/31 20:42:05.3	6.190	0.100	-0.630	-0.310
2020/01/31 20:42:05.4	6.210	0.140	-0.600	-0.300
2020/01/31 20:42:05.5	6.220	0.170	-0.570	-0.290
2020/01/31 20:42:05.6	6.240	0.210	-0.530	-0.270
2020/01/31 20:42:05.7	6.250	0.250	-0.490	-0.260
2020/01/31 20:42:05.8	6.260	0.280	-0.450	-0.240
2020/01/31 20:42:05.9	6.280	0.310	-0.400	-0.220
2020/01/31 20:42:06.0	6.300	0.340	-0.350	-0.190
2020/01/31 20:42:06.1	6.310	0.360	-0.300	-0.170
2020/01/31 20:42:06.2	6.320	0.390	-0.250	-0.150
2020/01/31 20:42:06.3	6.330	0.400	-0.200	-0.130
2020/01/31 20:42:06.4	6.350	0.420	-0.150	-0.100
2020/01/31 20:42:06.5	6.360	0.430	-0.100	-0.080
2020/01/31 20:42:06.6	6.370	0.440	-0.050	-0.060
2020/01/31 20:42:06.7	6.380	0.450	0.000	-0.030
2020/01/31 20:42:06.8	6.390	0.450	0.050	-0.010
2020/01/31 20:42:06.9	6.400	0.450	0.090	0.010
2020/01/31 20:42:07.0	6.420	0.440	0.130	0.030
2020/01/31 20:42:07.1	6.430	0.430	0.170	0.050
2020/01/31 20:42:07.2	6.430	0.420	0.210	0.080
2020/01/31 20:42:07.3	6.440	0.410	0.240	0.100
2020/01/31 20:42:07.4	6.440	0.390	0.270	0.120
2020/01/31 20:42:07.5	6.440	0.370	0.290	0.140
2020/01/31 20:42:07.6	6.440	0.350	0.310	0.160
2020/01/31 20:42:07.7	6.430	0.320	0.330	0.180
2020/01/31 20:42:07.8	6.420	0.300	0.340	0.200
2020/01/31 20:42:07.9	6.410	0.270	0.350	0.220
2020/01/31 20:42:08.0	6.390	0.240	0.360	0.240
2020/01/31 20:42:08.1	6.380	0.210	0.360	0.250
2020/01/31 20:42:08.2	6.360	0.180	0.360	0.270
2020/01/31 20:42:08.3	6.330	0.150	0.350	0.290
2020/01/31 20:42:08.4	6.310	0.120	0.340	0.300
2020/01/31 20:42:08.5	6.280	0.090	0.330	0.310
2020/01/31 20:42:08.6	6.250	0.060	0.320	0.320
2020/01/31 20:42:08.7	6.220	0.030	0.300	0.330
2020/01/31 20:42:08.8	6.180	0.000	0.270	0.340
2020/01/31 20:42:08.9	6.150	-0.020	0.250	0.340
2020/01/31 20:42:09.0	6.120	-0.050	0.220	0.340
2020/01/31 20:42:09.1	6.080	-0.070	0.190	0.340
2020/01/31 20:42:09.2	6.050	-0.090	0.150	0.330
2020/01/31 20:42:09.3	6.020	-0.100	0.110	0.330
2020/01/31 20:42:09.4	5.990	-0.120	0.070	0.320
2020/01/31 20:42:09.5	5.960	-0.130	0.030	0.310
2020/01/31 20:42:09.6	5.940	-0.130	-0.010	0.290
2020/01/31 20:42:09.7	5.910	-0.140	-0.060	0.280
2020/01/31 20:42:09.8	5.890	-0.140	-0.110	0.260
2020/01/31 20:42:09.9	5.870	-0.140	-0.160	0.240
2020/01/31 20:42:10.0	5.850	-0.130	-0.210	0.220
2020/01/31 20:42:10.1	5.830	-0.120	-0.260	0.200
2020/01/31 20:42:10.2	5.820	-0.110	-0.310	0.170
2020/01/31 20:42:10.3	5.810	-0.100	-0.360	0.150
2020/01/31 20:42:10.4	5.800	-0.080	-0.410	0.120
2020/01/31 20:42:10.5	5.800	-0.060	-0.450	0.100
2020/01/31 20:42:10.6	5.790	-0.040	-0.500	0.070
2020/01/31 20:42:10.7	5.790	-0.020	-0.540	0.050
2020/01/31 20:42:10.8	5.790	-0.000	-0.590	0.020
2020/01/31 20:42:10.9	5.800	0.020	-0.620	-0.000
2020/01/31 20:42:11.0	5.800	0.040	-0.660	-0.030
2020/01/31 20:42:11.1	5.810	0.060	-0.690	-0.060
2020/01/31 20:42:11.2	5.820	0.090	-0.720	-0.090
2020/01/31 20:42:11.3	5.830	0.110	-0.750	-0.110
2020/01/31 20:42:11.4	5.840	0.120	-0.780	-0.140
2020/01/31 20:42:11.5	5.860	0.140	-0.790	-0.170
2020/01/31 20:42:11.6	5.870	0.160	-0.810	-0.200
2020/01/31 20:42:11.7	5.890	0.170	-0.820	-0.230
2020/01/31 20:42:11.8	5.910	0.180	-0.830	-0.270
2020/01/31 20:42:11.9	5.930	0.190	-0.830	-0.300
2020/01/31 20:42:12.0	5.950	0.190	-0.830	-0.330
2020/01/31 20:42:12.1	5.970	0.190	-0.830	-0.370
2020/01/31 20:42:12.2	6.000	0.190	-0.820	-0.400
2020/01/31 20:42:12.3	6.020	0.190	-0.800	-0.440
2020/01/31 20:42:12.4	6.050	0.180	-0.780	-0.470
2020/01/31 20:42:12.5	6.080	0.160	-0.760	-0.510
2020/01/31 20:42:12.6	6.100	0.150	-0.730	-0.550
2020/01/31 20:42:12.7	6.130	0.130	-0.700	-0.580
2020/01/31 20:42:12.8	6.150	0.100	-0.670	-0.620
2020/01/31 20:42:12.9	6.180	0.080	-0.630	-0.650
2020/01/31 20:42:13.0	6.210	0.050	-0.600	-0.680
2020/01/31 20:42:13.1	6.240	0.020	-0.560	-0.720
2020/01/31 20:42:13.2	6.270	-0.020	-0.510	-0.750
2020/01/31 20:42:13.3	6.290	-0.050	-0.470	-0.780
2020/01/31 20:42:13.4	6.320	-0.090	-0.420	-0.800
2020/01/31 20:42:13.5	6.340	-0.130	-0.370	-0.830
2020/01/31 20:42:13.6	6.360	-0.170	-0.330	-0.850
2020/01/31 20:42:13.7	6.390	-0.210	-0.280	-0.870
2020/01/31 20:42:13.8	6.410	-0.240	-0.230	-0.880
2020/01/31 20:42:13.9	6.440	-0.280	-0.190	-0.890
2020/01/31 20:42:14.0	6.450	-0.320	-0.140	-0.910
2020/01/31 20:42:14.1	6.480	-0.350	-0.100	-0.910
2020/01/31 20:42:14.2	6.500	-0.390	-0.060	-0.920
2020/01/31 20:42:14.3	6.520	-0.420	-0.030	-0.920
2020/01/31 20:42:14.4	6.550	-0.440	0.010	-0.910
2020/01/31 20:42:14.5	6.570	-0.470	0.040	-0.910
2020/01/31 20:42:14.6	6.600	-0.490	0.060	-0.900
2020/01/31 20:42:14.7	6.620	-0.510	0.080	-0.890
2020/01/31 20:42:14.8	6.650	-0.520	0.100	-0.880
2020/01/31 20:42:14.9	6.680	-0.530	0.110	-0.860
2020/01/31 20:42:15.0	6.710	-0.530	0.120	-0.840
2020/01/31 20:42:15.1	6.730	-0.530	0.130	-0.820
2020/01/31 20:42:15.2	6.760	-0.530	0.130	-0.790
2020/01/31 20:42:15.3	6.780	-0.520	0.120	-0.770
2020/01/31 20:42:15.4	6.810	-0.510	0.120	-0.740
2020/01/31 20:42:15.5	6.830	-0.490	0.110	-0.710
2020/01/31 20:42:15.6	6.850	-0.470	0.090	-0.680
2020/01/31 20:42:15.7	6.870	-0.450	0.080	-0.640
2020/01/31 20:42:15.8	6.890	-0.420	0.060	-0.610
2020/01/31 20:42:15.9	6.910	-0.400	0.040	-0.570
2020/01/31 20:42:16.0	6.920	-0.370	0.020	-0.530
2020/01/31 20:42:16.1	6.930	-0.330	-0.000	-0.490
2020/01/31 20:42:16.2	6.940	-0.300	-0.020	-0.450
2020/01/31 20:42:16.3	6.950	-0.270	-0.040	-0.410
2020/01/31 20:42:16.4	6.950	-0.230	-0.060	-0.370
2020/01/31 20:42:16.5	6.960	-0.200	-0.080	-0.330
2020/01/31 20:42:16.6	6.950	-0.160	-0.100	-0.280
2020/01/31 20:42:16.7	6.950	-0.130	-0.110	-0.240
2020/01/31 20:42:16.8	6.940	-0.100	-0.120	-0.190
2020/01/31 20:42:16.9	6.930	-0.070	-0.140	-0.140
2020/01/31 20:42:17.0	6.920	-0.040	-0.140	-0.090
2020/01/31 20:42:17.1	6.900	-0.010	-0.150	-0.040
2020/01/31 20:42:17.2	6.870	0.020	-0.160	0.010
2020/01/31 20:42:17.3	6.840	0.040	-0.160	0.060
2020/01/31 20:42:17.4	6.810	0.060	-0.160	0.110
2020/01/31 20:42:17.5	6.780	0.080	-0.160	0.160
2020/01/31 20:42:17.6	6.740	0.100	-0.160	0.210
2020/01/31 20:42:17.7	6.710	0.110	-0.160	0.260
2020/01/31 20:42:17.8	6.670	0.120	-0.150	0.310
2020/01/31 20:42:17.9	6.630	0.130	-0.150	0.350
2020/01/31 20:42:18.0	6.580	0.140	-0.150	0.390
2020/01/31 20:42:18.1	6.540	0.150	-0.140	0.430
2020/01/31 20:42:18.2	6.500	0.150	-0.140	0.470
2020/01/31 20:42:18.3	6.460	0.150	-0.140	0.500
2020/01/31 20:42:18.4	6.420	0.160	-0.140	0.530
2020/01/31 20:42:18.5	6.380	0.160	-0.140	0.560
2020/01/31 20:42:18.6	6.340	0.160	-0.150	0.580
2020/01/31 20:42:18.7	6.310	0.160	-0.150	0.590
2020/01/31 20:42:18.8	6.270	0.160	-0.160	0.600
2020/01/31 20:42:18.9	6.240	0.160	-0.170	0.610
2020/01/31 20:42:19.0	6.220	0.160	-0.190	0.600
2020/01/31 20:42:19.1	6.190	0.160	-0.200	0.600
2020/01/31 20:42:19.2	6.170	0.170	-0.220	0.590
2020/01/31 20:42:19.3	6.150	0.170	-0.240	0.570
2020/01/31 20:42:19.4	6.130	0.180	-0.270	0.550
2020/01/31 20:42:19.5	6.120	0.190	-0.290	0.520
2020/01/31 20:42:19.6	6.110	0.200	-0.320	0.500
2020/01/31 20:42:19.7	6.100	0.220	-0.350	0.460
2020/01/31 20:42:19.8	6.090	0.230	-0.380	0.430
2020/01/31 20:42:19.9	6.090	0.250	-0.410	0.390
2020/01/31 20:42:20.0	6.090	0.270	-0.440	0.350
2020/01/31 20:42:20.1	6.090	0.290	-0.460	0.310
2020/01/31 20:42:20.2	6.090	0.310	-0.490	0.270
2020/01/31 20:42:20.3	6.100	0.340	-0.510	0.230
2020/01/31 20:42:20.4	6.100	0.360	-0.540	0.190
2020/01/31 20:42:20.5	6.110	0.380	-0.560	0.150
2020/01/31 20:42:20.6	6.110	0.400	-0.580	0.110
2020/01/31 20:42:20.7	6.120	0.420	-0.590	0.070
2020/01/31 20:42:20.8	6.130	0.440	-0.600	0.020
2020/01/31 20:42:20.9	6.140	0.460	-0.610	-0.020
2020/01/31 20:42:21.0	6.160	0.480	-0.620	-0.050
2020/01/31 20:42:21.1	6.170	0.490	-0.620	-0.090
2020/01/31 20:42:21.2	6.180	0.500	-0.620	-0.130
2020/01/31 20:42:21.3	6.200	0.510	-0.620	-0.170
2020/01/31 20:42:21.4	6.220	0.520	-0.620	-0.200
2020/01/31 20:42:21.5	6.240	0.520	-0.620	-0.240
2020/01/31 20:42:21.6	6.260	0.520	-0.610	-0.270
2020/01/31 20:42:21.7	6.280	0.520	-0.600	-0.310
2020/01/31 20:42:21.8	6.300	0.520	-0.590	-0.340
2020/01/31 20:42:21.9	6.330	0.510	-0.580	-0.370
2020/01/31 20:42:22.0	6.360	0.500	-0.570	-0.400
2020/01/31 20:42:22.1	6.390	0.490	-0.550	-0.430
2020/01/31 20:42:22.2	6.410	0.470	-0.540	-0.450
2020/01/31 20:42:22.3	6.440	0.460	-0.520	-0.480
2020/01/31 20:42:22.4	6.470	0.440	-0.500	-0.500
2020/01/31 20:42:22.5	6.500	0.410	-0.490	-0.530
2020/01/31 20:42:22.6	6.530	0.390	-0.470	-0.550
2020/01/31 20:42:22.7	6.560	0.360	-0.450	-0.570
2020/01/31 20:42:22.8	6.590	0.340	-0.430	-0.580
2020/01/31 20:42:22.9	6.620	0.310	-0.400	-0.600
2020/01/31 20:42:23.0	6.640	0.280	-0.380	-0.610
2020/01/31 20:42:23.1	6.670	0.250	-0.360	-0.620
2020/01/31 20:42:23.2	6.690	0.220	-0.330	-0.630
2020/01/31 20:42:23.3	6.710	0.190	-0.310	-0.630
2020/01/31 20:42:23.4	6.730	0.160	-0.280	-0.630
2020/01/31 20:42:23.5	6.750	0.130	-0.250	-0.620
2020/01/31 20:42:23.6	6.760	0.100	-0.220	-0.610
2020/01/31 20:42:23.7	6.780	0.070	-0.180	-0.600
2020/01/31 20:42:23.8	6.780	0.050	-0.150	-0.580
2020/01/31 20:42:23.9	6.790	0.020	-0.120	-0.560
2020/01/31 20:42:24.0	6.790	-0.010	-0.080	-0.540
2020/01/31 20:42:24.1	6.790	-0.040	-0.050	-0.510
2020/01/31 20:42:24.2	6.780	-0.060	-0.020	-0.480
2020/01/31 20:42:24.3	6.780	-0.090	0.020	-0.450
2020/01/31 20:42:24.4	6.770	-0.120	0.050	-0.420
2020/01/31 20:42:24.5	6.760	-0.140	0.080	-0.380
2020/01/31 20:42:24.6	6.750	-0.170	0.100	-0.350
2020/01/31 20:42:24.7	6.740	-0.190	0.130	-0.320
2020/01/31 20:42:24.8	6.720	-0.220	0.150	-0.290
2020/01/31 20:42:24.9	6.710	-0.250	0.170	-0.260
2020/01/31 20:42:25.0	6.690	-0.270	0.190	-0.230
2020/01/31 20:42:25.1	6.670	-0.300	0.200	-0.210
2020/01/31 20:42:25.2	6.660	-0.320	0.200	-0.190
2020/01/31 20:42:25.3	6.640	-0.350	0.210	-0.170
2020/01/31 20:42:25.4	6.620	-0.370	0.210	-0.160
2020/01/31 20:42:25.5	6.610	-0.390	0.200	-0.150
2020/01/31 20:42:25.6	6.590	-0.420	0.190	-0.150
2020/01/31 20:42:25.7	6.580	-0.440	0.180	-0.150
2020/01/31 20:42:25.8	6.570	-0.460	0.160	-0.150
2020/01/31 20:42:25.9	6.560	-0.490	0.140	-0.160
2020/01/31 20:42:26.0	6.560	-0.510	0.110	-0.180
2020/01/31 20:42:26.1	6.560	-0.530	0.080	-0.200
2020/01/31 20:42:26.2	6.550	-0.540	0.050	-0.220
2020/01/31 20:42:26.3	6.550	-0.560	0.020	-0.240
2020/01/31 20:42:26.4	6.550	-0.580	-0.020	-0.270
2020/01/31 20:42:26.5	6.560	-0.590	-0.050	-0.310
2020/01/31 20:42:26.6	6.560	-0.600	-0.090	-0.340
2020/01/31 20:42:26.7	6.570	-0.610	-0.130	-0.370
2020/01/31 20:42:26.8	6.580	-0.620	-0.170	-0.410
2020/01/31 20:42:26.9	6.590	-0.620	-0.210	-0.440
2020/01/31 20:42:27.0	6.600	-0.630	-0.260	-0.480
2020/01/31 20:42:27.1	6.620	-0.630	-0.290	-0.520
2020/01/31 20:42:27.2	6.630	-0.630	-0.330	-0.550
2020/01/31 20:42:27.3	6.650	-0.620	-0.370	-0.590
2020/01/31 20:42:27.4	6.670	-0.620	-0.400	-0.620
2020/01/31 20:42:27.5	6.690	-0.610	-0.430	-0.650
2020/01/31 20:42:27.6	6.710	-0.600	-0.460	-0.680
2020/01/31 20:42:27.7	6.730	-0.580	-0.480	-0.710
2020/01/31 20:42:27.8	6.760	-0.570	-0.500	-0.740
2020/01/31 20:42:27.9	6.780	-0.550	-0.520	-0.760
2020/01/31 20:42:28.0	6.800	-0.530	-0.530	-0.790
2020/01/31 20:42:28.1	6.830	-0.500	-0.540	-0.800
2020/01/31 20:42:28.2	6.850	-0.470	-0.550	-0.820
2020/01/31 20:42:28.3	6.880	-0.440	-0.560	-0.840
2020/01/31 20:42:28.4	6.900	-0.410	-0.560	-0.850
2020/01/31 20:42:28.5	6.930	-0.380	-0.560	-0.850
2020/01/31 20:42:28.6	6.960	-0.340	-0.560	-0.860
2020/01/31 20:42:28.7	6.980	-0.300	-0.560	-0.860
2020/01/31 20:42:28.8	7.000	-0.260	-0.550	-0.850
2020/01/31 20:42:28.9	7.020	-0.220	-0.540	-0.850
2020/01/31 20:42:29.0	7.040	-0.180	-0.530	-0.830
2020/01/31 20:42:29.1	7.060	-0.130	-0.520	-0.810
2020/01/31 20:42:29.2	7.070	-0.090	-0.510	-0.790
2020/01/31 20:42:29.3	7.090	-0.040	-0.490	-0.770
2020/01/31 20:42:29.4	7.100	0.010	-0.480	-0.740
2020/01/31 20:42:29.5	7.100	0.050	-0.460	-0.700
2020/01/31 20:42:29.6	7.110	0.100	-0.440	-0.670
2020/01/31 20:42:29.7	7.110	0.150	-0.420	-0.630
2020/01/31 20:42:29.8	7.110	0.190	-0.400	-0.580
2020/01/31 20:42:29.9	7.110	0.240	-0.380	-0.540
2020/01/31 20:42:30.0	7.100	0.280	-0.360	-0.490
2020/01/31 20:42:30.1	7.100	0.320	-0.340	-0.440
2020/01/31 20:42:30.2	7.090	0.360	-0.320	-0.390
2020/01/31 20:42:30.3	7.080	0.400	-0.300	-0.330
2020/01/31 20:42:30.4	7.060	0.440	-0.280	-0.270
2020/01/31 20:42:30.5	7.050	0.470	-0.260	-0.210
2020/01/31 20:42:30.6	7.030	0.500	-0.240	-0.150
2020/01/31 20:42:30.7	7.010	0.530	-0.220	-0.090
2020/01/31 20:42:30.8	6.990	0.550	-0.190	-0.030
2020/01/31 20:42:30.9	6.970	0.580	-0.170	0.030
2020/01/31 20:42:31.0	6.950	0.590	-0.150	0.100
2020/01/31 20:42:31.1	6.920	0.610	-0.130	0.160
2020/01/31 20:42:31.2	6.900	0.620	-0.110	0.220
2020/01/31 20:42:31.3	6.870	0.620	-0.090	0.270
2020/01/31 20:42:31.4	6.850	0.630	-0.070	0.330
2020/01/31 20:42:31.5	6.820	0.620	-0.050	0.380
2020/01/31 20:42:31.6	6.790	0.620	-0.030	0.430
2020/01/31 20:42:31.7	6.770	0.610	-0.010	0.470
2020/01/31 20:42:31.8	6.740	0.600	0.010	0.510
2020/01/31 20:42:31.9	6.720	0.580	0.020	0.550
2020/01/31 20:42:32.0	6.680	0.560	0.040	0.580
2020/01/31 20:42:32.1	6.660	0.540	0.060	0.600
2020/01/31 20:42:32.2	6.630	0.510	0.070	0.620
2020/01/31 20:42:32.3	6.610	0.480	0.090	0.640
2020/01/31 20:42:32.4	6.580	0.450	0.100	0.640
2020/01/31 20:42:32.5	6.560	0.420	0.110	0.650
2020/01/31 20:42:32.6	6.540	0.380	0.120	0.650
2020/01/31 20:42:32.7	6.520	0.350	0.130	0.640
2020/01/31 20:42:32.8	6.500	0.310	0.130	0.630
2020/01/31 20:42:32.9	6.480	0.270	0.140	0.610
2020/01/31 20:42:33.0	6.470	0.240	0.140	0.590
2020/01/31 20:42:33.1	6.460	0.200	0.140	0.570
2020/01/31 20:42:33.2	6.450	0.160	0.130	0.550
2020/01/31 20:42:33.3	6.450	0.120	0.120	0.520
2020/01/31 20:42:33.4	6.440	0.090	0.110	0.480
2020/01/31 20:42:33.5	6.440	0.060	0.100	0.450
2020/01/31 20:42:33.6	6.440	0.020	0.080	0.410
2020/01/31 20:42:33.7	6.440	-0.010	0.070	0.370
2020/01/31 20:42:33.8	6.450	-0.040	0.040	0.320
2020/01/31 20:42:33.9	6.460	-0.060	0.020	0.280
2020/01/31 20:42:34.0	6.480	-0.090	-0.010	0.230
2020/01/31 20:42:34.1	6.490	-0.110	-0.040	0.180
2020/01/31 20:42:34.2	6.500	-0.130	-0.070	0.130
2020/01/31 20:42:34.3	6.520	-0.150	-0.110	0.070
2020/01/31 20:42:34.4	6.540	-0.170	-0.150	0.020
2020/01/31 20:42:34.5	6.550	-0.180	-0.190	-0.040
2020/01/31 20:42:34.6	6.580	-0.190	-0.230	-0.100
2020/01/31 20:42:34.7	6.600	-0.200	-0.270	-0.160
2020/01/31 20:42:34.8	6.620	-0.210	-0.320	-0.210
2020/01/31 20:42:34.9	6.640	-0.210	-0.360	-0.270
2020/01/31 20:42:35.0	6.660	-0.220	-0.410	-0.330
2020/01/31 20:42:35.1	6.680	-0.220	-0.450	-0.390
2020/01/31 20:42:35.2	6.710	-0.220	-0.500	-0.450
2020/01/31 20:42:35.3	6.730	-0.210	-0.540	-0.500
2020/01/31 20:42:35.4	6.760	-0.210	-0.590	-0.560
2020/01/31 20:42:35.5	6.780	-0.200	-0.630	-0.610
2020/01/31 20:42:35.6	6.800	-0.200	-0.670	-0.660
2020/01/31 20:42:35.7	6.830	-0.190	-0.710	-0.700
2020/01/31 20:42:35.8	6.850	-0.180	-0.750	-0.740
2020/01/31 20:42:35.9	6.880	-0.170	-0.780	-0.780
2020/01/31 20:42:36.0	6.890	-0.150	-0.820	-0.820
2020/01/31 20:42:36.1	6.910	-0.140	-0.850	-0.850
2020/01/31 20:42:36.2	6.940	-0.120	-0.880	-0.870
2020/01/31 20:42:36.3	6.960	-0.110	-0.900	-0.900
2020/01/31 20:42:36.4	6.980	-0.090	-0.920	-0.920
2020/01/31 20:42:36.5	7.000	-0.070	-0.940	-0.930
2020/01/31 20:42:36.6	7.020	-0.050	-0.950	-0.940
2020/01/31 20:42:36.7	7.040	-0.030	-0.960	-0.950
2020/01/31 20:42:36.8	7.060	-0.010	-0.970	-0.950
2020/01/31 20:42:36.9	7.080	0.010	-0.980	-0.950
2020/01/31 20:42:37.0	7.090	0.030	-0.980	-0.950
2020/01/31 20:42:37.1	7.110	0.050	-0.980	-0.950
2020/01/31 20:42:37.2	7.120	0.070	-0.970	-0.940
2020/01/31 20:42:37.3	7.140	0.090	-0.970	-0.930
2020/01/31 20:42:37.4	7.160	0.110	-0.960	-0.920
2020/01/31 20:42:37.5	7.180	0.130	-0.950	-0.910
2020/01/31 20:42:37.6	7.200	0.140	-0.940	-0.900
2020/01/31 20:42:37.7	7.220	0.160	-0.920	-0.880
2020/01/31 20:42:37.8	7.240	0.180	-0.900	-0.870
2020/01/31 20:42:37.9	7.260	0.190	-0.880	-0.850
2020/01/31 20:42:38.0	7.290	0.200	-0.860	-0.830
2020/01/31 20:42:38.1	7.310	0.210	-0.840	-0.820
2020/01/31 20:42:38.2	7.330	0.220	-0.810	-0.800
2020/01/31 20:42:38.3	7.350	0.220	-0.780	-0.790
2020/01/31 20:42:38.4	7.370	0.220	-0.740	-0.780
2020/01/31 20:42:38.5	7.390	0.220	-0.700	-0.760
2020/01/31 20:42:38.6	7.410	0.220	-0.660	-0.750
2020/01/31 20:42:38.7	7.430	0.210	-0.620	-0.730
2020/01/31 20:42:38.8	7.440	0.210	-0.570	-0.720
2020/01/31 20:42:38.9	7.460	0.190	-0.520	-0.700
2020/01/31 20:42:39.0	7.470	0.180	-0.470	-0.680
2020/01/31 20:42:39.1	7.490	0.160	-0.410	-0.670
2020/01/31 20:42:39.2	7.500	0.130	-0.350	-0.650
2020/01/31 20:42:39.3	7.510	0.110	-0.280	-0.630
2020/01/31 20:42:39.4	7.520	0.080	-0.210	-0.610
2020/01/31 20:42:39.5	7.530	0.050	-0.140	-0.590
2020/01/31 20:42:39.6	7.540	0.010	-0.060	-0.570
2020/01/31 20:42:39.7	7.540	-0.030	0.020	-0.540
2020/01/31 20:42:39.8	7.540	-0.070	0.110	-0.510
2020/01/31 20:42:39.9	7.530	-0.110	0.190	-0.480
2020/01/31 20:42:40.0	7.530	-0.150	0.280	-0.450
2020/01/31 20:42:40.1	7.520	-0.200	0.370	-0.420
2020/01/31 20:42:40.2	7.510	-0.250	0.470	-0.380
2020/01/31 20:42:40.3	7.490	-0.300	0.560	-0.340
2020/01/31 20:42:40.4	7.470	-0.350	0.650	-0.310
2020/01/31 20:42:40.5	7.450	-0.400	0.740	-0.260
2020/01/31 20:42:40.6	7.430	-0.440	0.830	-0.220
2020/01/31 20:42:40.7	7.400	-0.490	0.910	-0.180
2020/01/31 20:42:40.8	7.380	-0.540	0.990	-0.130
2020/01/31 20:42:40.9	7.350	-0.580	1.060	-0.090
2020/01/31 20:42:41.0	7.320	-0.630	1.130	-0.050
2020/01/31 20:42:41.1	7.290	-0.670	1.190	-0.000
2020/01/31 20:42:41.2	7.250	-0.700	1.240	0.040
2020/01/31 20:42:41.3	7.220	-0.730	1.290	0.090
2020/01/31 20:42:41.4	7.180	-0.760	1.320	0.130
2020/01/31 20:42:41.5	7.140	-0.780	1.350	0.180
2020/01/31 20:42:41.6	7.110	-0.800	1.360	0.220
2020/01/31 20:42:41.7	7.070	-0.810	1.370	0.260
2020/01/31 20:42:41.8	7.030	-0.820	1.360	0.300
2020/01/31 20:42:41.9	6.990	-0.820	1.340	0.340
2020/01/31 20:42:42.0	6.960	-0.810	1.310	0.380
2020/01/31 20:42:42.1	6.930	-0.790	1.260	0.420
2020/01/31 20:42:42.2	6.890	-0.770	1.210	0.450
2020/01/31 20:42:42.3	6.850	-0.740	1.140	0.480
2020/01/31 20:42:42.4	6.810	-0.710	1.050	0.510
2020/01/31 20:42:42.5	6.780	-0.670	0.960	0.540
2020/01/31 20:42:42.6	6.740	-0.620	0.860	0.560
2020/01/31 20:42:42.7	6.710	-0.560	0.740	0.580
2020/01/31 20:42:42.8	6.680	-0.500	0.620	0.600
2020/01/31 20:42:42.9	6.650	-0.430	0.490	0.620
2020/01/31 20:42:43.0	6.620	-0.350	0.350	0.630
2020/01/31 20:42:43.1	6.600	-0.270	0.200	0.650
2020/01/31 20:42:43.2	6.570	-0.190	0.050	0.650
2020/01/31 20:42:43.3	6.540	-0.100	-0.110	0.660
2020/01/31 20:42:43.4	6.520	-0.020	-0.270	0.660
2020/01/31 20:42:43.5	6.500	0.080	-0.420	0.660
2020/01/31 20:42:43.6	6.480	0.170	-0.580	0.660
2020/01/31 20:42:43.7	6.460	0.260	-0.740	0.650
2020/01/31 20:42:43.8	6.440	0.350	-0.900	0.640
2020/01/31 20:42:43.9	6.430	0.440	-1.050	0.630
2020/01/31 20:42:44.0	6.410	0.530	-1.190	0.620
2020/01/31 20:42:44.1	6.400	0.620	-1.330	0.610
2020/01/31 20:42:44.2	6.390	0.700	-1.460	0.590
2020/01/31 20:42:44.3	6.380	0.780	-1.590	0.570
2020/01/31 20:42:44.4	6.380	0.850	-1.700	0.550
2020/01/31 20:42:44.5	6.380	0.920	-1.800	0.520
2020/01/31 20:42:44.6	6.370	0.980	-1.900	0.500
2020/01/31 20:42:44.7	6.380	1.030	-1.980	0.470
2020/01/31 20:42:44.8	6.380	1.080	-2.050	0.440
2020/01/31 20:42:44.9	6.390	1.120	-2.100	0.410
2020/01/31 20:42:45.0	6.390	1.150	-2.150	0.370
2020/01/31 20:42:45.1	6.400	1.170	-2.180	0.330
2020/01/31 20:42:45.2	6.410	1.190	-2.190	0.290
2020/01/31 20:42:45.3	6.430	1.190	-2.200	0.250
2020/01/31 20:42:45.4	6.440	1.190	-2.190	0.210
2020/01/31 20:42:45.5	6.460	1.180	-2.160	0.170
2020/01/31 20:42:45.6	6.490	1.160	-2.130	0.120
2020/01/31 20:42:45.7	6.510	1.140	-2.080	0.080
2020/01/31 20:42:45.8	6.540	1.100	-2.020	0.030
2020/01/31 20:42:45.9	6.570	1.060	-1.950	-0.020
2020/01/31 20:42:46.0	6.610	1.020	-1.870	-0.070
2020/01/31 20:42:46.1	6.650	0.960	-1.780	-0.120
2020/01/31 20:42:46.2	6.680	0.900	-1.680	-0.170
2020/01/31 20:42:46.3	6.720	0.840	-1.580	-0.220
2020/01/31 20:42:46.4	6.760	0.770	-1.460	-0.270
2020/01/31 20:42:46.5	6.800	0.690	-1.340	-0.330
2020/01/31 20:42:46.6	6.840	0.620	-1.220	-0.380
2020/01/31 20:42:46.7	6.880	0.540	-1.090	-0.430
2020/01/31 20:42:46.8	6.930	0.450	-0.960	-0.480
2020/01/31 20:42:46.9	6.970	0.370	-0.830	-0.530
2020/01/31 20:42:47.0	7.010	0.290	-0.690	-0.580
2020/01/31 20:42:47.1	7.050	0.200	-0.560	-0.630
2020/01/31 20:42:47.2	7.090	0.110	-0.420	-0.670
2020/01/31 20:42:47.3	7.130	0.030	-0.280	-0.710
2020/01/31 20:42:47.4	7.160	-0.050	-0.150	-0.740
2020/01/31 20:42:47.5	7.190	-0.130	-0.010	-0.770
2020/01/31 20:42:47.6	7.220	-0.210	0.120	-0.800
2020/01/31 20:42:47.7	7.250	-0.290	0.240	-0.820
2020/01/31 20:42:47.8	7.280	-0.360	0.370	-0.840
2020/01/31 20:42:47.9	7.300	-0.430	0.490	-0.850
2020/01/31 20:42:48.0	7.320	-0.500	0.600	-0.860
2020/01/31 20:42:48.1	7.330	-0.560	0.710	-0.860
2020/01/31 20:42:48.2	7.340	-0.610	0.810	-0.850
2020/01/31 20:42:48.3	7.350	-0.660	0.910	-0.840
2020/01/31 20:42:48.4	7.350	-0.710	1.000	-0.820
2020/01/31 20:42:48.5	7.350	-0.750	1.080	-0.800
2020/01/31 20:42:48.6	7.340	-0.780	1.150	-0.770
2020/01/31 20:42:48.7	7.340	-0.810	1.220	-0.740
2020/01/31 20:42:48.8	7.330	-0.830	1.270	-0.700
2020/01/31 20:42:48.9	7.310	-0.850	1.320	-0.660
2020/01/31 20:42:49.0	7.290	-0.860	1.360	-0.610
2020/01/31 20:42:49.1	7.270	-0.870	1.390	-0.570
2020/01/31 20:42:49.2	7.250	-0.870	1.410	-0.520
2020/01/31 20:42:49.3	7.230	-0.870	1.420	-0.470
2020/01/31 20:42:49.4	7.210	-0.860	1.420	-0.420
2020/01/31 20:42:49.5	7.180	-0.850	1.410	-0.370
2020/01/31 20:42:49.6	7.150	-0.830	1.390	-0.310
2020/01/31 20:42:49.7	7.130	-0.810	1.360	-0.260
2020/01/31 20:42:49.8	7.100	-0.780	1.320	-0.210
2020/01/31 20:42:49.9	7.070	-0.750	1.280	-0.160
2020/01/31 20:42:50.0	7.030	-0.720	1.220	-0.110
2020/01/31 20:42:50.1	7.000	-0.680	1.160	-0.060
2020/01/31 20:42:50.2	6.970	-0.650	1.090	-0.010
2020/01/31 20:42:50.3	6.940	-0.610	1.010	0.030
2020/01/31 20:42:50.4	6.910	-0.560	0.930	0.070
2020/01/31 20:42:50.5	6.880	-0.520	0.840	0.110
2020/01/31 20:42:50.6	6.850	-0.470	0.750	0.150
2020/01/31 20:42:50.7	6.820	-0.430	0.660	0.190
2020/01/31 20:42:50.8	6.790	-0.380	0.560	0.220
2020/01/31 20:42:50.9	6.760	-0.330	0.460	0.250
2020/01/31 20:42:51.0	6.740	-0.280	0.360	0.280
2020/01/31 20:42:51.1	6.710	-0.230	0.260	0.310
2020/01/31 20:42:51.2	6.680	-0.190	0.150	0.330
2020/01/31 20:42:51.3	6.650	-0.140	0.050	0.360
2020/01/31 20:42:51.4	6.620	-0.100	-0.050	0.380
2020/01/31 20:42:51.5	6.600	-0.050	-0.150	0.390
2020/01/31 20:42:51.6	6.570	-0.010	-0.250	0.410
2020/01/31 20:42:51.7	6.540	0.030	-0.340	0.420
2020/01/31 20:42:51.8	6.520	0.070	-0.430	0.430
2020/01/31 20:42:51.9	6.500	0.110	-0.520	0.430
2020/01/31 20:42:52.0	6.470	0.140	-0.600	0.430
2020/01/31 20:42:52.1	6.450	0.180	-0.680	0.430
2020/01/31 20:42:52.2	6.430	0.210	-0.760	0.430
2020/01/31 20:42:52.3	6.410	0.240	-0.830	0.430
2020/01/31 20:42:52.4	6.400	0.260	-0.900	0.420
2020/01/31 20:42:52.5	6.390	0.290	-0.960	0.410
2020/01/31 20:42:52.6	6.370	0.310	-1.010	0.400
2020/01/31 20:42:52.7	6.370	0.330	-1.060	0.380
2020/01/31 20:42:52.8	6.360	0.350	-1.110	0.370
2020/01/31 20:42:52.9	6.360	0.360	-1.150	0.350
2020/01/31 20:42:53.0	6.350	0.380	-1.190	0.320
2020/01/31 20:42:53.1	6.360	0.390	-1.220	0.290
2020/01/31 20:42:53.2	6.360	0.400	-1.240	0.260
2020/01/31 20:42:53.3	6.370	0.410	-1.260	0.230
2020/01/31 20:42:53.4	6.390	0.420	-1.280	0.200
2020/01/31 20:42:53.5	6.400	0.420	-1.290	0.170
2020/01/31 20:42:53.6	6.420	0.430	-1.300	0.130
2020/01/31 20:42:53.7	6.430	0.430	-1.300	0.100
2020/01/31 20:42:53.8	6.450	0.430	-1.300	0.060
2020/01/31 20:42:53.9	6.470	0.430	-1.290	0.030
2020/01/31 20:42:54.0	6.480	0.430	-1.280	-0.010
2020/01/31 20:42:54.1	6.500	0.430	-1.270	-0.040
2020/01/31 20:42:54.2	6.530	0.420	-1.250	-0.070
2020/01/31 20:42:54.3	6.550	0.420	-1.230	-0.100
2020/01/31 20:42:54.4	6.570	0.410	-1.200	-0.130
2020/01/31 20:42:54.5	6.590	0.400	-1.170	-0.150
2020/01/31 20:42:54.6	6.610	0.400	-1.140	-0.180
2020/01/31 20:42:54.7	6.630	0.390	-1.100	-0.200
2020/01/31 20:42:54.8	6.650	0.380	-1.070	-0.220
2020/01/31 20:42:54.9	6.670	0.360	-1.020	-0.240
2020/01/31 20:42:55.0	6.710	0.350	-0.980	-0.250
2020/01/31 20:42:55.1	6.730	0.340	-0.940	-0.270
2020/01/31 20:42:55.2	6.750	0.330	-0.890	-0.290
2020/01/31 20:42:55.3	6.770	0.310	-0.840	-0.300
2020/01/31 20:42:55.4	6.790	0.300	-0.790	-0.310
2020/01/31 20:42:55.5	6.820	0.280	-0.740	-0.330
2020/01/31 20:42:55.6	6.840	0.260	-0.690	-0.340
2020/01/31 20:42:55.7	6.860	0.240	-0.640	-0.350
2020/01/31 20:42:55.8	6.880	0.230	-0.590	-0.360
2020/01/31 20:42:55.9	6.900	0.210	-0.540	-0.370
2020/01/31 20:42:56.0	6.930	0.190	-0.490	-0.380
2020/01/31 20:42:56.1	6.950	0.170	-0.440	-0.380
2020/01/31 20:42:56.2	6.970	0.150	-0.390	-0.390
2020/01/31 20:42:56.3	6.990	0.130	-0.340	-0.390
2020/01/31 20:42:56.4	7.010	0.100	-0.290	-0.390
2020/01/31 20:42:56.5	7.030	0.080	-0.240	-0.400
2020/01/31 20:42:56.6	7.050	0.060	-0.190	-0.400
2020/01/31 20:42:56.7	7.070	0.040	-0.140	-0.390
2020/01/31 20:42:56.8	7.090	0.010	-0.090	-0.390
2020/01/31 20:42:56.9	7.110	-0.010	-0.050	-0.380
2020/01/31 20:42:57.0	7.120	-0.030	-0.000	-0.380
2020/01/31 20:42:57.1	7.140	-0.060	0.040	-0.370
2020/01/31 20:42:57.2	7.160	-0.080	0.090	-0.360
2020/01/31 20:42:57.3	7.170	-0.100	0.130	-0.340
2020/01/31 20:42:57.4	7.180	-0.120	0.170	-0.330
2020/01/31 20:42:57.5	7.200	-0.150	0.210	-0.310
2020/01/31 20:42:57.6	7.210	-0.170	0.250	-0.290
2020/01/31 20:42:57.7	7.210	-0.190	0.290	-0.270
2020/01/31 20:42:57.8	7.220	-0.210	0.320	-0.250
2020/01/31 20:42:57.9	7.220	-0.230	0.350	-0.220
2020/01/31 20:42:58.0	7.230	-0.250	0.390	-0.190
2020/01/31 20:42:58.1	7.230	-0.270	0.420	-0.170
2020/01/31 20:42:58.2	7.230	-0.290	0.450	-0.140
2020/01/31 20:42:58.3	7.220	-0.300	0.470	-0.110
2020/01/31 20:42:58.4	7.210	-0.320	0.490	-0.080
2020/01/31 20:42:58.5	7.200	-0.330	0.520	-0.050
2020/01/31 20:42:58.6	7.190	-0.340	0.530	-0.020
2020/01/31 20:42:58.7	7.170	-0.350	0.550	0.010
2020/01/31 20:42:58.8	7.160	-0.360	0.560	0.050
2020/01/31 20:42:58.9	7.130	-0.370	0.570	0.080
2020/01/31 20:42:59.0	7.110	-0.370	0.580	0.110
2020/01/31 20:42:59.1	7.090	-0.370	0.580	0.140
2020/01/31 20:42:59.2	7.060	-0.370	0.580	0.170
2020/01/31 20:42:59.3	7.030	-0.370	0.580	0.200
2020/01/31 20:42:59.4	7.000	-0.360	0.570	0.230
2020/01/31 20:42:59.5	6.970	-0.350	0.560	0.250
2020/01/31 20:42:59.6	6.940	-0.340	0.540	0.280
2020/01/31 20:42:59.7	6.910	-0.330	0.520	0.310
2020/01/31 20:42:59.8	6.880	-0.310	0.500	0.330
2020/01/31 20:42:59.9	6.850	-0.290	0.470	0.350
2020/01/31 20:43:00.0	6.830	-0.270	0.440	0.380
2020/01/31 20:43:00.1	6.790	-0.250	0.400	0.400
2020/01/31 20:43:00.2	6.760	-0.220	0.360	0.410
2020/01/31 20:43:00.3	6.730	-0.200	0.310	0.430
2020/01/31 20:43:00.4	6.710	-0.170	0.260	0.440
2020/01/31 20:43:00.5	6.680	-0.140	0.210	0.450
2020/01/31 20:43:00.6	6.650	-0.110	0.150	0.460
2020/01/31 20:43:00.7	6.630	-0.080	0.100	0.470
2020/01/31 20:43:00.8	6.600	-0.050	0.040	0.470
2020/01/31 20:43:00.9	6.580	-0.010	-0.030	0.470
2020/01/31 20:43:01.0	6.570	0.020	-0.090	0.470
2020/01/31 20:43:01.1	6.550	0.050	-0.160	0.460
2020/01/31 20:43:01.2	6.530	0.090	-0.220	0.450
2020/01/31 20:43:01.3	6.510	0.120	-0.290	0.440
2020/01/31 20:43:01.4	6.500	0.150	-0.350	0.430
2020/01/31 20:43:01.5	6.480	0.180	-0.410	0.410
2020/01/31 20:43:01.6	6.470	0.200	-0.480	0.390
2020/01/31 20:43:01.7	6.460	0.230	-0.530	0.370
2020/01/31 20:43:01.8	6.450	0.250	-0.590	0.340
2020/01/31 20:43:01.9	6.440	0.270	-0.640	0.310
2020/01/31 20:43:02.0	6.430	0.290	-0.690	0.280
2020/01/31 20:43:02.1	6.420	0.300	-0.730	0.250
2020/01/31 20:43:02.2	6.410	0.320	-0.770	0.220
2020/01/31 20:43:02.3	6.410	0.330	-0.800	0.190
2020/01/31 20:43:02.4	6.400	0.330	-0.830	0.160
2020/01/31 20:43:02.5	6.390	0.330	-0.850	0.120
2020/01/31 20:43:02.6	6.390	0.330	-0.870	0.080
2020/01/31 20:43:02.7	6.380	0.330	-0.880	0.040
2020/01/31 20:43:02.8	6.380	0.320	-0.890	0.010
2020/01/31 20:43:02.9	6.380	0.310	-0.890	-0.030
2020/01/31 20:43:03.0	6.390	0.300	-0.890	-0.070
2020/01/31 20:43:03.1	6.390	0.290	-0.880	-0.110
2020/01/31 20:43:03.2	6.390	0.270	-0.870	-0.150
2020/01/31 20:43:03.3	6.400	0.250	-0.860	-0.200
2020/01/31 20:43:03.4	6.410	0.230	-0.850	-0.240
2020/01/31 20:43:03.5	6.420	0.210	-0.830	-0.280
2020/01/31 20:43:03.6	6.430	0.190	-0.820	-0.320
2020/01/31 20:43:03.7	6.450	0.160	-0.800	-0.360
2020/01/31 20:43:03.8	6.470	0.140	-0.780	-0.400
2020/01/31 20:43:03.9	6.490	0.120	-0.770	-0.450
2020/01/31 20:43:04.0	6.520	0.100	-0.750	-0.490
2020/01/31 20:43:04.1	6.550	0.070	-0.740	-0.540
2020/01/31 20:43:04.2	6.580	0.050	-0.720	-0.580
2020/01/31 20:43:04.3	6.620	0.040	-0.710	-0.620
2020/01/31 20:43:04.4	6.660	0.020	-0.700	-0.670
2020/01/31 20:43:04.5	6.700	0.010	-0.690	-0.710
2020/01/31 20:43:04.6	6.740	-0.010	-0.680	-0.760
2020/01/31 20:43:04.7	6.790	-0.020	-0.680	-0.800
2020/01/31 20:43:04.8	6.840	-0.020	-0.670	-0.850
2020/01/31 20:43:04.9	6.890	-0.030	-0.670	-0.890
2020/01/31 20:43:05.0	6.940	-0.030	-0.670	-0.930
2020/01/31 20:43:05.1	6.990	-0.030	-0.660	-0.970
2020/01/31 20:43:05.2	7.040	-0.030	-0.660	-1.010
2020/01/31 20:43:05.3	7.100	-0.020	-0.660	-1.050
2020/01/31 20:43:05.4	7.150	-0.020	-0.650	-1.080
2020/01/31 20:43:05.5	7.200	-0.010	-0.650	-1.120
2020/01/31 20:43:05.6	7.250	0.000	-0.640	-1.140
2020/01/31 20:43:05.7	7.290	0.010	-0.630	-1.170
2020/01/31 20:43:05.8	7.340	0.030	-0.610	-1.190
2020/01/31 20:43:05.9	7.380	0.040	-0.590	-1.200
2020/01/31 20:43:06.0	7.400	0.050	-0.570	-1.210
2020/01/31 20:43:06.1	7.430	0.060	-0.540	-1.210
2020/01/31 20:43:06.2	7.450	0.070	-0.500	-1.200
2020/01/31 20:43:06.3	7.470	0.080	-0.460	-1.190
2020/01/31 20:43:06.4	7.480	0.090	-0.410	-1.170
2020/01/31 20:43:06.5	7.480	0.100	-0.360	-1.140
2020/01/31 20:43:06.6	7.480	0.100	-0.300	-1.110
2020/01/31 20:43:06.7	7.470	0.110	-0.230	-1.060
2020/01/31 20:43:06.8	7.460	0.110	-0.170	-1.020
2020/01/31 20:43:06.9	7.440	0.110	-0.090	-0.970
2020/01/31 20:43:07.0	7.400	0.100	-0.020	-0.910
2020/01/31 20:43:07.1	7.360	0.100	0.060	-0.850
2020/01/31 20:43:07.2	7.330	0.090	0.150	-0.780
2020/01/31 20:43:07.3	7.290	0.080	0.230	-0.720
2020/01/31 20:43:07.4	7.250	0.060	0.310	-0.650
2020/01/31 20:43:07.5	7.200	0.050	0.390	-0.580
2020/01/31 20:43:07.6	7.150	0.030	0.470	-0.510
2020/01/31 20:43:07.7	7.100	0.000	0.540	-0.430
2020/01/31 20:43:07.8	7.050	-0.020	0.610	-0.370
2020/01/31 20:43:07.9	7.000	-0.050	0.680	-0.300
2020/01/31 20:43:08.0	6.940	-0.080	0.730	-0.230
2020/01/31 20:43:08.1	6.890	-0.110	0.790	-0.170
2020/01/31 20:43:08.2	6.840	-0.140	0.830	-0.110
2020/01/31 20:43:08.3	6.790	-0.170	0.870	-0.060
2020/01/31 20:43:08.4	6.750	-0.200	0.890	-0.020
2020/01/31 20:43:08.5	6.710	-0.230	0.910	0.030
2020/01/31 20:43:08.6	6.670	-0.260	0.920	0.060
2020/01/31 20:43:08.7	6.630	-0.290	0.920	0.090
2020/01/31 20:43:08.8	6.600	-0.320	0.910	0.110
2020/01/31 20:43:08.9	6.570	-0.340	0.890	0.130
2020/01/31 20:43:09.0	6.540	-0.370	0.860	0.140
2020/01/31 20:43:09.1	6.520	-0.390	0.820	0.150
2020/01/31 20:43:09.2	6.500	-0.410	0.770	0.150
2020/01/31 20:43:09.3	6.480	-0.420	0.710	0.140
2020/01/31 20:43:09.4	6.470	-0.440	0.640	0.140
2020/01/31 20:43:09.5	6.460	-0.450	0.560	0.130
2020/01/31 20:43:09.6	6.450	-0.450	0.480	0.110
2020/01/31 20:43:09.7	6.440	-0.450	0.390	0.090
2020/01/31 20:43:09.8	6.440	-0.450	0.300	0.080
2020/01/31 20:43:09.9	6.440	-0.440	0.200	0.060
2020/01/31 20:43:10.0	6.440	-0.430	0.100	0.040
2020/01/31 20:43:10.1	6.440	-0.410	-0.000	0.020
2020/01/31 20:43:10.2	6.440	-0.390	-0.110	-0.000
2020/01/31 20:43:10.3	6.440	-0.370	-0.220	-0.020
2020/01/31 20:43:10.4	6.450	-0.340	-0.320	-0.040
2020/01/31 20:43:10.5	6.450	-0.300	-0.430	-0.050
2020/01/31 20:43:10.6	6.450	-0.270	-0.530	-0.070
2020/01/31 20:43:10.7	6.450	-0.230	-0.630	-0.080
2020/01/31 20:43:10.8	6.460	-0.190	-0.730	-0.090
2020/01/31 20:43:10.9	6.460	-0.150	-0.820	-0.100
2020/01/31 20:43:11.0	6.470	-0.100	-0.910	-0.110
2020/01/31 20:43:11.1	6.470	-0.050	-0.990	-0.120
2020/01/31 20:43:11.2	6.480	-0.000	-1.070	-0.120
2020/01/31 20:43:11.3	6.480	0.050	-1.140	-0.130
2020/01/31 20:43:11.4	6.490	0.100	-1.210	-0.130
2020/01/31 20:43:11.5	6.500	0.150	-1.270	-0.130
2020/01/31 20:43:11.6	6.500	0.190	-1.320	-0.140
2020/01/31 20:43:11.7	6.510	0.240	-1.360	-0.140
2020/01/31 20:43:11.8	6.520	0.290	-1.400	-0.140
2020/01/31 20:43:11.9	6.530	0.340	-1.430	-0.150
2020/01/31 20:43:12.0	6.550	0.380	-1.460	-0.150
2020/01/31 20:43:12.1	6.570	0.420	-1.470	-0.150
2020/01/31 20:43:12.2	6.580	0.460	-1.480	-0.160
2020/01/31 20:43:12.3	6.600	0.500	-1.490	-0.160
2020/01/31 20:43:12.4	6.620	0.530	-1.490	-0.170
2020/01/31 20:43:12.5	6.640	0.560	-1.480	-0.170
2020/01/31 20:43:12.6	6.660	0.590	-1.460	-0.180
2020/01/31 20:43:12.7	6.690	0.610	-1.440	-0.190
2020/01/31 20:43:12.8	6.710	0.630	-1.410	-0.190
2020/01/31 20:43:12.9	6.740	0.640	-1.370	-0.200
2020/01/31 20:43:13.0	6.770	0.650	-1.340	-0.210
2020/01/31 20:43:13.1	6.800	0.660	-1.290	-0.220
2020/01/31 20:43:13.2	6.820	0.660	-1.240	-0.220
2020/01/31 20:43:13.3	6.850	0.660	-1.180	-0.230
2020/01/31 20:43:13.4	6.880	0.650	-1.120	-0.240
2020/01/31 20:43:13.5	6.900	0.640	-1.050	-0.240
2020/01/31 20:43:13.6	6.930	0.620	-0.980	-0.250
2020/01/31 20:43:13.7	6.950	0.600	-0.910	-0.250
2020/01/31 20:43:13.8	6.970	0.570	-0.830	-0.260
2020/01/31 20:43:13.9	6.990	0.550	-0.740	-0.260
2020/01/31 20:43:14.0	7.010	0.510	-0.650	-0.260
2020/01/31 20:43:14.1	7.030	0.480	-0.570	-0.260
2020/01/31 20:43:14.2	7.040	0.440	-0.480	-0.260
2020/01/31 20:43:14.3	7.050	0.400	-0.380	-0.250
2020/01/31 20:43:14.4	7.060	0.350	-0.290	-0.250
2020/01/31 20:43:14.5	7.070	0.300	-0.190	-0.250
2020/01/31 20:43:14.6	7.080	0.260	-0.090	-0.240
2020/01/31 20:43:14.7	7.080	0.200	0.000	-0.240
2020/01/31 20:43:14.8	7.080	0.150	0.100	-0.230
2020/01/31 20:43:14.9	7.080	0.100	0.200	-0.220
2020/01/31 20:43:15.0	7.070	0.050	0.280	-0.220
2020/01/31 20:43:15.1	7.070	-0.010	0.380	-0.210
2020/01/31 20:43:15.2	7.060	-0.060	0.460	-0.200
2020/01/31 20:43:15.3	7.050	-0.110	0.550	-0.180
2020/01/31 20:43:15.4	7.040	-0.160	0.630	-0.170
2020/01/31 20:43:15.5	7.030	-0.210	0.710	-0.160
2020/01/31 20:43:15.6	7.020	-0.260	0.780	-0.150
2020/01/31 20:43:15.7	7.010	-0.300	0.850	-0.130
2020/01/31 20:43:15.8	6.990	-0.350	0.910	-0.120
2020/01/31 20:43:15.9	6.980	-0.390	0.960	-0.100
2020/01/31 20:43:16.0	6.960	-0.420	1.010	-0.090
2020/01/31 20:43:16.1	6.950	-0.460	1.050	-0.070
2020/01/31 20:43:16.2	6.930	-0.490	1.090	-0.050
2020/01/31 20:43:16.3	6.910	-0.510	1.110	-0.030
2020/01/31 20:43:16.4	6.890	-0.540	1.130	-0.010
2020/01/31 20:43:16.5	6.870	-0.550	1.140	0.010
2020/01/31 20:43:16.6	6.850	-0.570	1.140	0.030
2020/01/31 20:43:16.7	6.830	-0.580	1.130	0.050
2020/01/31 20:43:16.8	6.810	-0.590	1.120	0.070
2020/01/31 20:43:16.9	6.790	-0.590	1.100	0.090
2020/01/31 20:43:17.0	6.770	-0.590	1.070	0.120
2020/01/31 20:43:17.1	6.750	-0.590	1.030	0.130
2020/01/31 20:43:17.2	6.730	-0.580	0.980	0.150
2020/01/31 20:43:17.3	6.710	-0.570	0.930	0.170
2020/01/31 20:43:17.4	6.690	-0.550	0.880	0.190
2020/01/31 20:43:17.5	6.670	-0.540	0.810	0.210
2020/01/31 20:43:17.6	6.650	-0.510	0.740	0.220
2020/01/31 20:43:17.7	6.630	-0.490	0.670	0.240
2020/01/31 20:43:17.8	6.610	-0.470	0.590	0.250
2020/01/31 20:43:17.9	6.590	-0.440	0.510	0.270
2020/01/31 20:43:18.0	6.580	-0.410	0.420	0.280
2020/01/31 20:43:18.1	6.560	-0.380	0.330	0.290
2020/01/31 20:43:18.2	6.540	-0.350	0.240	0.300
2020/01/31 20:43:18.3	6.520	-0.320	0.140	0.310
2020/01/31 20:43:18.4	6.510	-0.280	0.050	0.320
2020/01/31 20:43:18.5	6.490	-0.250	-0.050	0.320
2020/01/31 20:43:18.6	6.480	-0.220	-0.150	0.330
2020/01/31 20:43:18.7	6.460	-0.190	-0.240	0.330
2020/01/31 20:43:18.8	6.450	-0.160	-0.340	0.330
2020/01/31 20:43:18.9	6.430	-0.120	-0.440	0.330
2020/01/31 20:43:19.0	6.430	-0.090	-0.530	0.320
2020/01/31 20:43:19.1	6.420	-0.070	-0.620	0.310
2020/01/31 20:43:19.2	6.410	-0.040	-0.710	0.300
2020/01/31 20:43:19.3	6.400	-0.010	-0.790	0.290
2020/01/31 20:43:19.4	6.390	0.010	-0.870	0.270
2020/01/31 20:43:19.5	6.380	0.040	-0.950	0.250
2020/01/31 20:43:19.6	6.380	0.060	-1.020	0.230
2020/01/31 20:43:19.7	6.380	0.080	-1.090	0.210
2020/01/31 20:43:19.8	6.380	0.100	-1.150	0.180
2020/01/31 20:43:19.9	6.380	0.120	-1.200	0.160
2020/01/31 20:43:20.0	6.380	0.130	-1.260	0.130
2020/01/31 20:43:20.1	6.390	0.150	-1.300	0.100
2020/01/31 20:43:20.2	6.390	0.160	-1.340	0.070
2020/01/31 20:43:20.3	6.400	0.180	-1.370	0.040
2020/01/31 20:43:20.4	6.410	0.190	-1.400	0.010
2020/01/31 20:43:20.5	6.420	0.200	-1.410	-0.020
2020/01/31 20:43:20.6	6.430	0.210	-1.430	-0.050
2020/01/31 20:43:20.7	6.450	0.220	-1.430	-0.080
2020/01/31 20:43:20.8	6.460	0.230	-1.430	-0.110
2020/01/31 20:43:20.9	6.480	0.240	-1.430	-0.140
2020/01/31 20:43:21.0	6.490	0.250	-1.410	-0.170
2020/01/31 20:43:21.1	6.510	0.260	-1.400	-0.200
2020/01/31 20:43:21.2	6.530	0.270	-1.380	-0.230
2020/01/31 20:43:21.3	6.560	0.280	-1.350	-0.260
2020/01/31 20:43:21.4	6.590	0.280	-1.320	-0.290
2020/01/31 20:43:21.5	6.620	0.290	-1.290	-0.320
2020/01/31 20:43:21.6	6.650	0.300	-1.260	-0.350
2020/01/31 20:43:21.7	6.690	0.300	-1.220	-0.380
2020/01/31 20:43:21.8	6.720	0.310	-1.180	-0.410
2020/01/31 20:43:21.9	6.750	0.310	-1.130	-0.440
2020/01/31 20:43:22.0	6.790	0.310	-1.090	-0.470
2020/01/31 20:43:22.1	6.830	0.320	-1.040	-0.500
2020/01/31 20:43:22.2	6.860	0.320	-0.990	-0.520
2020/01/31 20:43:22.3	6.890	0.320	-0.940	-0.540
2020/01/31 20:43:22.4	6.920	0.320	-0.880	-0.560
2020/01/31 20:43:22.5	6.950	0.320	-0.830	-0.580
2020/01/31 20:43:22.6	6.980	0.320	-0.770	-0.600
2020/01/31 20:43:22.7	7.000	0.320	-0.710	-0.610
2020/01/31 20:43:22.8	7.020	0.310	-0.650	-0.610
2020/01/31 20:43:22.9	7.040	0.310	-0.590	-0.620
2020/01/31 20:43:23.0	7.060	0.300	-0.530	-0.620
2020/01/31 20:43:23.1	7.070	0.290	-0.470	-0.620
2020/01/31 20:43:23.2	7.080	0.280	-0.400	-0.610
2020/01/31 20:43:23.3	7.090	0.270	-0.340	-0.600
2020/01/31 20:43:23.4	7.090	0.260	-0.280	-0.590
2020/01/31 20:43:23.5	7.090	0.250	-0.220	-0.570
2020/01/31 20:43:23.6	7.090	0.230	-0.150	-0.550
2020/01/31 20:43:23.7	7.090	0.220	-0.090	-0.530
2020/01/31 20:43:23.8	7.080	0.200	-0.030	-0.510
2020/01/31 20:43:23.9	7.080	0.180	0.030	-0.490
2020/01/31 20:43:24.0	7.070	0.160	0.090	-0.460
2020/01/31 20:43:24.1	7.060	0.140	0.140	-0.440
2020/01/31 20:43:24.2	7.040	0.120	0.200	-0.410
2020/01/31 20:43:24.3	7.030	0.100	0.250	-0.380
2020/01/31 20:43:24.4	7.010	0.090	0.300	-0.350
2020/01/31 20:43:24.5	7.000	0.070	0.350	-0.320
2020/01/31 20:43:24.6	6.980	0.050	0.390	-0.300
2020/01/31 20:43:24.7	6.970	0.030	0.430	-0.270
2020/01/31 20:43:24.8	6.950	0.010	0.470	-0.240
2020/01/31 20:43:24.9	6.930	-0.010	0.500	-0.210
2020/01/31 20:43:25.0	6.910	-0.020	0.530	-0.190
2020/01/31 20:43:25.1	6.900	-0.040	0.560	-0.160
2020/01/31 20:43:25.2	6.880	-0.050	0.580	-0.140
2020/01/31 20:43:25.3	6.860	-0.060	0.590	-0.110
2020/01/31 20:43:25.4	6.850	-0.070	0.600	-0.090
2020/01/31 20:43:25.5	6.830	-0.070	0.610	-0.060
2020/01/31 20:43:25.6	6.810	-0.080	0.610	-0.040
2020/01/31 20:43:25.7	6.800	-0.080	0.610	-0.020
2020/01/31 20:43:25.8	6.780	-0.080	0.600	0.010
2020/01/31 20:43:25.9	6.770	-0.090	0.590	0.030
2020/01/31 20:43:26.0	6.760	-0.080	0.570	0.050
2020/01/31 20:43:26.1	6.740	-0.080	0.550	0.070
2020/01/31 20:43:26.2	6.730	-0.080	0.530	0.080
2020/01/31 20:43:26.3	6.710	-0.070	0.510	0.100
2020/01/31 20:43:26.4	6.690	-0.070	0.480	0.110
2020/01/31 20:43:26.5	6.680	-0.060	0.450	0.130
2020/01/31 20:43:26.6	6.660	-0.060	0.410	0.140
2020/01/31 20:43:26.7	6.640	-0.050	0.380	0.140
2020/01/31 20:43:26.8	6.620	-0.050	0.340	0.150
2020/01/31 20:43:26.9	6.610	-0.040	0.300	0.150
2020/01/31 20:43:27.0	6.590	-0.040	0.250	0.150
2020/01/31 20:43:27.1	6.570	-0.030	0.210	0.150
2020/01/31 20:43:27.2	6.560	-0.030	0.160	0.140
2020/01/31 20:43:27.3	6.540	-0.030	0.120	0.130
2020/01/31 20:43:27.4	6.530	-0.030	0.070	0.120
2020/01/31 20:43:27.5	6.520	-0.020	0.020	0.110
2020/01/31 20:43:27.6	6.510	-0.030	-0.030	0.100
2020/01/31 20:43:27.7	6.500	-0.030	-0.080	0.080
2020/01/31 20:43:27.8	6.490	-0.030	-0.130	0.060
2020/01/31 20:43:27.9	6.480	-0.040	-0.170	0.040
2020/01/31 20:43:28.0	6.470	-0.040	-0.220	0.020
2020/01/31 20:43:28.1	6.470	-0.050	-0.270	-0.010
2020/01/31 20:43:28.2	6.460	-0.060	-0.310	-0.030
2020/01/31 20:43:28.3	6.460	-0.070	-0.350	-0.060
2020/01/31 20:43:28.4	6.460	-0.080	-0.390	-0.090
2020/01/31 20:43:28.5	6.460	-0.090	-0.430	-0.120
2020/01/31 20:43:28.6	6.460	-0.110	-0.460	-0.150
2020/01/31 20:43:28.7	6.470	-0.130	-0.490	-0.180
2020/01/31 20:43:28.8	6.470	-0.140	-0.520	-0.220
2020/01/31 20:43:28.9	6.470	-0.160	-0.540	-0.250
2020/01/31 20:43:29.0	6.480	-0.180	-0.560	-0.290
2020/01/31 20:43:29.1	6.490	-0.200	-0.580	-0.320
2020/01/31 20:43:29.2	6.490	-0.220	-0.590	-0.360
2020/01/31 20:43:29.3	6.500	-0.240	-0.590	-0.390
2020/01/31 20:43:29.4	6.510	-0.260	-0.590	-0.430
2020/01/31 20:43:29.5	6.520	-0.280	-0.590	-0.460
2020/01/31 20:43:29.6	6.530	-0.310	-0.590	-0.500
2020/01/31 20:43:29.7	6.540	-0.330	-0.580	-0.530
2020/01/31 20:43:29.8	6.560	-0.340	-0.560	-0.560
2020/01/31 20:43:29.9	6.570	-0.360	-0.550	-0.590
2020/01/31 20:43:30.0	6.580	-0.380	-0.530	-0.630
2020/01/31 20:43:30.1	6.600	-0.400	-0.500	-0.650
2020/01/31 20:43:30.2	6.620	-0.410	-0.480	-0.680
2020/01/31 20:43:30.3	6.630	-0.420	-0.450	-0.700
2020/01/31 20:43:30.4	6.650	-0.430	-0.420	-0.720
2020/01/31 20:43:30.5	6.670	-0.440	-0.390	-0.740
2020/01/31 20:43:30.6	6.690	-0.450	-0.360	-0.750
2020/01/31 20:43:30.7	6.700	-0.450	-0.330	-0.760
2020/01/31 20:43:30.8	6.720	-0.450	-0.290	-0.770
2020/01/31 20:43:30.9	6.740	-0.450	-0.260	-0.780
2020/01/31 20:43:31.0	6.730	-0.450	-0.230	-0.780
2020/01/31 20:43:31.1	6.750	-0.440	-0.200	-0.780
2020/01/31 20:43:31.2	6.760	-0.430	-0.170	-0.780
2020/01/31 20:43:31.3	6.780	-0.420	-0.140	-0.770
2020/01/31 20:43:31.4	6.790	-0.410	-0.120	-0.760
2020/01/31 20:43:31.5	6.810	-0.390	-0.090	-0.750
2020/01/31 20:43:31.6	6.820	-0.370	-0.070	-0.730
2020/01/31 20:43:31.7	6.840	-0.350	-0.060	-0.710
2020/01/31 20:43:31.8	6.850	-0.320	-0.040	-0.690
2020/01/31 20:43:31.9	6.860	-0.300	-0.030	-0.670
2020/01/31 20:43:32.0	6.880	-0.270	-0.030	-0.650
2020/01/31 20:43:32.1	6.890	-0.230	-0.020	-0.620
2020/01/31 20:43:32.2	6.900	-0.200	-0.020	-0.580
2020/01/31 20:43:32.3	6.910	-0.160	-0.020	-0.550
2020/01/31 20:43:32.4	6.920	-0.120	-0.030	-0.510
2020/01/31 20:43:32.5	6.930	-0.080	-0.040	-0.470
2020/01/31 20:43:32.6	6.930	-0.040	-0.050	-0.430
2020/01/31 20:43:32.7	6.940	0.000	-0.070	-0.380
2020/01/31 20:43:32.8	6.940	0.050	-0.090	-0.330
2020/01/31 20:43:32.9	6.940	0.090	-0.110	-0.280
2020/01/31 20:43:33.0	6.940	0.140	-0.140	-0.230
2020/01/31 20:43:33.1	6.940	0.180	-0.170	-0.180
2020/01/31 20:43:33.2	6.940	0.230	-0.200	-0.120
2020/01/31 20:43:33.3	6.940	0.270	-0.230	-0.070
2020/01/31 20:43:33.4	6.930	0.320	-0.270	-0.020
2020/01/31 20:43:33.5	6.930	0.360	-0.310	0.040
2020/01/31 20:43:33.6	6.920	0.410	-0.350	0.090
2020/01/31 20:43:33.7	6.920	0.450	-0.390	0.140
2020/01/31 20:43:33.8	6.910	0.490	-0.440	0.190
2020/01/31 20:43:33.9	6.900	0.520	-0.480	0.240
2020/01/31 20:43:34.0	6.900	0.560	-0.520	0.290
2020/01/31 20:43:34.1	6.890	0.590	-0.570	0.330
2020/01/31 20:43:34.2	6.880	0.620	-0.610	0.380
2020/01/31 20:43:34.3	6.860	0.650	-0.660	0.420
2020/01/31 20:43:34.4	6.850	0.670	-0.700	0.460
2020/01/31 20:43:34.5	6.840	0.690	-0.740	0.490
2020/01/31 20:43:34.6	6.820	0.710	-0.780	0.530
2020/01/31 20:43:34.7	6.810	0.720	-0.810	0.560
2020/01/31 20:43:34.8	6.790	0.730	-0.850	0.590
2020/01/31 20:43:34.9	6.770	0.740	-0.880	0.620
2020/01/31 20:43:35.0	6.760	0.740	-0.910	0.640
2020/01/31 20:43:35.1	6.740	0.740	-0.930	0.660
2020/01/31 20:43:35.2	6.730	0.730	-0.950	0.680
2020/01/31 20:43:35.3	6.710	0.720	-0.970	0.700
2020/01/31 20:43:35.4	6.690	0.710	-0.980	0.710
2020/01/31 20:43:35.5	6.670	0.690	-0.980	0.710
2020/01/31 20:43:35.6	6.650	0.670	-0.990	0.720
2020/01/31 20:43:35.7	6.630	0.650	-0.980	0.720
2020/01/31 20:43:35.8	6.610	0.630	-0.980	0.710
2020/01/31 20:43:35.9	6.590	0.600	-0.970	0.710
2020/01/31 20:43:36.0	6.570	0.560	-0.950	0.690
2020/01/31 20:43:36.1	6.560	0.530	-0.930	0.670
2020/01/31 20:43:36.2	6.550	0.490	-0.910	0.650
2020/01/31 20:43:36.3	6.540	0.450	-0.890	0.620
2020/01/31 20:43:36.4	6.530	0.410	-0.860	0.580
2020/01/31 20:43:36.5	6.520	0.370	-0.820	0.540
2020/01/31 20:43:36.6	6.520	0.330	-0.790	0.500
2020/01/31 20:43:36.7	6.520	0.290	-0.750	0.450
2020/01/31 20:43:36.8	6.520	0.240	-0.720	0.390
2020/01/31 20:43:36.9	6.520	0.200	-0.680	0.340
2020/01/31 20:43:37.0	6.520	0.150	-0.630	0.270
2020/01/31 20:43:37.1	6.540	0.110	-0.590	0.200
2020/01/31 20:43:37.2	6.550	0.060	-0.550	0.130
2020/01/31 20:43:37.3	6.570	0.020	-0.510	0.060
2020/01/31 20:43:37.4	6.590	-0.020	-0.470	-0.020
2020/01/31 20:43:37.5	6.620	-0.060	-0.420	-0.100
2020/01/31 20:43:37.6	6.650	-0.100	-0.380	-0.180
2020/01/31 20:43:37.7	6.670	-0.140	-0.340	-0.260
2020/01/31 20:43:37.8	6.710	-0.180	-0.300	-0.340
2020/01/31 20:43:37.9	6.740	-0.210	-0.250	-0.420
2020/01/31 20:43:38.0	6.780	-0.250	-0.210	-0.500
2020/01/31 20:43:38.1	6.820	-0.280	-0.160	-0.580
2020/01/31 20:43:38.2	6.850	-0.310	-0.120	-0.660
2020/01/31 20:43:38.3	6.890	-0.350	-0.070	-0.730
2020/01/31 20:43:38.4	6.930	-0.370	-0.030	-0.800
2020/01/31 20:43:38.5	6.970	-0.400	0.020	-0.860
2020/01/31 20:43:38.6	7.000	-0.430	0.070	-0.920
2020/01/31 20:43:38.7	7.030	-0.450	0.120	-0.980
2020/01/31 20:43:38.8	7.060	-0.480	0.170	-1.020
2020/01/31 20:43:38.9	7.090	-0.500	0.220	-1.060
2020/01/31 20:43:39.0	7.130	-0.520	0.270	-1.100
2020/01/31 20:43:39.1	7.150	-0.540	0.320	-1.130
2020/01/31 20:43:39.2	7.160	-0.560	0.380	-1.150
2020/01/31 20:43:39.3	7.180	-0.580	0.440	-1.160
2020/01/31 20:43:39.4	7.190	-0.600	0.490	-1.170
2020/01/31 20:43:39.5	7.190	-0.610	0.550	-1.170
2020/01/31 20:43:39.6	7.190	-0.630	0.600	-1.160
2020/01/31 20:43:39.7	7.190	-0.640	0.650	-1.150
2020/01/31 20:43:39.8	7.180	-0.650	0.700	-1.140
2020/01/31 20:43:39.9	7.170	-0.660	0.750	-1.110
2020/01/31 20:43:40.0	7.160	-0.670	0.800	-1.090
2020/01/31 20:43:40.1	7.140	-0.680	0.840	-1.060
2020/01/31 20:43:40.2	7.130	-0.680	0.870	-1.020
2020/01/31 20:43:40.3	7.110	-0.680	0.900	-0.980
2020/01/31 20:43:40.4	7.090	-0.680	0.930	-0.930
2020/01/31 20:43:40.5	7.070	-0.680	0.940	-0.890
2020/01/31 20:43:40.6	7.050	-0.670	0.950	-0.840
2020/01/31 20:43:40.7	7.020	-0.670	0.960	-0.780
2020/01/31 20:43:40.8	7.000	-0.650	0.950	-0.730
2020/01/31 20:43:40.9	6.980	-0.640	0.940	-0.670
2020/01/31 20:43:41.0	6.960	-0.620	0.910	-0.610
2020/01/31 20:43:41.1	6.930	-0.600	0.880	-0.550
2020/01/31 20:43:41.2	6.910	-0.580	0.850	-0.480
2020/01/31 20:43:41.3	6.890	-0.550	0.800	-0.420
2020/01/31 20:43:41.4	6.870	-0.520	0.750	-0.350
2020/01/31 20:43:41.5	6.840	-0.480	0.690	-0.280
2020/01/31 20:43:41.6	6.820	-0.440	0.630	-0.210
2020/01/31 20:43:41.7	6.790	-0.400	0.560	-0.130
2020/01/31 20:43:41.8	6.760	-0.360	0.490	-0.060
2020/01/31 20:43:41.9	6.730	-0.320	0.410	0.010
2020/01/31 20:43:42.0	6.710	-0.270	0.330	0.090
2020/01/31 20:43:42.1	6.680	-0.220	0.250	0.160
2020/01/31 20:43:42.2	6.650	-0.170	0.170	0.230
2020/01/31 20:43:42.3	6.610	-0.120	0.090	0.300
2020/01/31 20:43:42.4	6.580	-0.070	0.000	0.370
2020/01/31 20:43:42.5	6.540	-0.020	-0.080	0.430
2020/01/31 20:43:42.6	6.510	0.030	-0.160	0.490
2020/01/31 20:43:42.7	6.470	0.080	-0.250	0.540
2020/01/31 20:43:42.8	6.430	0.130	-0.320	0.590
2020/01/31 20:43:42.9	6.400	0.170	-0.400	0.640
2020/01/31 20:43:43.0	6.350	0.220	-0.480	0.680
2020/01/31 20:43:43.1	6.320	0.260	-0.560	0.710
2020/01/31 20:43:43.2	6.290	0.310	-0.630	0.740
2020/01/31 20:43:43.3	6.260	0.350	-0.700	0.770
2020/01/31 20:43:43.4	6.240	0.380	-0.760	0.790
2020/01/31 20:43:43.5	6.220	0.420	-0.820	0.800
2020/01/31 20:43:43.6	6.200	0.450	-0.880	0.810
2020/01/31 20:43:43.7	6.180	0.480	-0.940	0.810
2020/01/31 20:43:43.8	6.170	0.500	-0.990	0.810
2020/01/31 20:43:43.9	6.160	0.530	-1.040	0.800
2020/01/31 20:43:44.0	6.140	0.550	-1.090	0.780
2020/01/31 20:43:44.1	6.140	0.560	-1.130	0.760
2020/01/31 20:43:44.2	6.140	0.570	-1.170	0.740
2020/01/31 20:43:44.3	6.150	0.580	-1.210	0.710
2020/01/31 20:43:44.4	6.160	0.590	-1.240	0.680
2020/01/31 20:43:44.5	6.180	0.590	-1.270	0.640
2020/01/31 20:43:44.6	6.200	0.590	-1.290	0.590
2020/01/31 20:43:44.7	6.220	0.580	-1.310	0.550
2020/01/31 20:43:44.8	6.250	0.570	-1.320	0.490
2020/01/31 20:43:44.9	6.280	0.560	-1.330	0.440
2020/01/31 20:43:45.0	6.310	0.540	-1.330	0.370
2020/01/31 20:43:45.1	6.350	0.530	-1.340	0.310
2020/01/31 20:43:45.2	6.380	0.510	-1.330	0.240
2020/01/31 20:43:45.3	6.420	0.480	-1.320	0.170
2020/01/31 20:43:45.4	6.460	0.460	-1.310	0.100
2020/01/31 20:43:45.5	6.500	0.430	-1.290	0.020
2020/01/31 20:43:45.6	6.540	0.410	-1.270	-0.050
2020/01/31 20:43:45.7	6.580	0.380	-1.250	-0.120
2020/01/31 20:43:45.8	6.620	0.340	-1.220	-0.190
2020/01/31 20:43:45.9	6.660	0.310	-1.180	-0.260
2020/01/31 20:43:46.0	6.720	0.280	-1.140	-0.320
2020/01/31 20:43:46.1	6.750	0.250	-1.100	-0.380
2020/01/31 20:43:46.2	6.780	0.210	-1.050	-0.440
2020/01/31 20:43:46.3	6.810	0.180	-1.000	-0.490
2020/01/31 20:43:46.4	6.840	0.150	-0.940	-0.530
2020/01/31 20:43:46.5	6.860	0.110	-0.880	-0.570
2020/01/31 20:43:46.6	6.880	0.080	-0.810	-0.610
2020/01/31 20:43:46.7	6.900	0.050	-0.740	-0.640
2020/01/31 20:43:46.8	6.910	0.010	-0.670	-0.660
2020/01/31 20:43:46.9	6.920	-0.020	-0.600	-0.680
2020/01/31 20:43:47.0	6.930	-0.050	-0.530	-0.700
2020/01/31 20:43:47.1	6.930	-0.080	-0.460	-0.710
2020/01/31 20:43:47.2	6.940	-0.110	-0.380	-0.720
2020/01/31 20:43:47.3	6.940	-0.130	-0.310	-0.720
2020/01/31 20:43:47.4	6.940	-0.160	-0.240	-0.720
2020/01/31 20:43:47.5	6.940	-0.180	-0.170	-0.720
2020/01/31 20:43:47.6	6.930	-0.200	-0.100	-0.710
2020/01/31 20:43:47.7	6.930	-0.220	-0.030	-0.700
2020/01/31 20:43:47.8	6.930	-0.240	0.030	-0.690
2020/01/31 20:43:47.9	6.920	-0.250	0.090	-0.680
2020/01/31 20:43:48.0	6.920	-0.260	0.140	-0.660
2020/01/31 20:43:48.1	6.920	-0.270	0.190	-0.650
2020/01/31 20:43:48.2	6.910	-0.280	0.230	-0.630
2020/01/31 20:43:48.3	6.900	-0.280	0.260	-0.610
2020/01/31 20:43:48.4	6.900	-0.280	0.290	-0.600
2020/01/31 20:43:48.5	6.890	-0.280	0.320	-0.580
2020/01/31 20:43:48.6	6.890	-0.280	0.330	-0.550
2020/01/31 20:43:48.7	6.880	-0.280	0.340	-0.530
2020/01/31 20:43:48.8	6.880	-0.270	0.350	-0.510
2020/01/31 20:43:48.9	6.870	-0.260	0.350	-0.490
2020/01/31 20:43:49.0	6.870	-0.250	0.340	-0.470
2020/01/31 20:43:49.1	6.870	-0.230	0.330	-0.440
2020/01/31 20:43:49.2	6.860	-0.220	0.320	-0.420
2020/01/31 20:43:49.3	6.860	-0.200	0.300	-0.390
2020/01/31 20:43:49.4	6.850	-0.180	0.280	-0.360
2020/01/31 20:43:49.5	6.850	-0.170	0.260	-0.330
2020/01/31 20:43:49.6	6.840	-0.150	0.230	-0.300
2020/01/31 20:43:49.7	6.840	-0.130	0.210	-0.270
2020/01/31 20:43:49.8	6.830	-0.110	0.180	-0.240
2020/01/31 20:43:49.9	6.820	-0.090	0.150	-0.220
2020/01/31 20:43:50.0	6.820	-0.080	0.130	-0.180
2020/01/31 20:43:50.1	6.810	-0.060	0.100	-0.150
2020/01/31 20:43:50.2	6.810	-0.050	0.080	-0.130
2020/01/31 20:43:50.3	6.800	-0.030	0.050	-0.100
2020/01/31 20:43:50.4	6.790	-0.020	0.030	-0.070
2020/01/31 20:43:50.5	6.780	-0.010	0.010	-0.040
2020/01/31 20:43:50.6	6.770	0.000	-0.000	-0.020
2020/01/31 20:43:50.7	6.760	0.010	-0.010	0.010
2020/01/31 20:43:50.8	6.750	0.010	-0.020	0.040
2020/01/31 20:43:50.9	6.740	0.020	-0.030	0.060
2020/01/31 20:43:51.0	6.740	0.020	-0.040	0.090
2020/01/31 20:43:51.1	6.730	0.020	-0.040	0.110
2020/01/31 20:43:51.2	6.720	0.020	-0.040	0.140
2020/01/31 20:43:51.3	6.710	0.020	-0.040	0.160
2020/01/31 20:43:51.4	6.700	0.020	-0.030	0.180
2020/01/31 20:43:51.5	6.690	0.010	-0.030	0.200
2020/01/31 20:43:51.6	6.680	0.010	-0.020	0.230
2020/01/31 20:43:51.7	6.680	0.000	-0.010	0.250
2020/01/31 20:43:51.8	6.670	-0.000	-0.000	0.270
2020/01/31 20:43:51.9	6.660	-0.010	0.000	0.290
2020/01/31 20:43:52.0	6.660	-0.020	0.010	0.310
2020/01/31 20:43:52.1	6.650	-0.030	0.020	0.330
2020/01/31 20:43:52.2	6.640	-0.040	0.030	0.350
2020/01/31 20:43:52.3	6.630	-0.050	0.030	0.370
2020/01/31 20:43:52.4	6.620	-0.060	0.040	0.390
2020/01/31 20:43:52.5	6.610	-0.060	0.050	0.410
2020/01/31 20:43:52.6	6.600	-0.070	0.050	0.430
2020/01/31 20:43:52.7	6.590	-0.080	0.050	0.440
2020/01/31 20:43:52.8	6.570	-0.090	0.050	0.450
2020/01/31 20:43:52.9	6.560	-0.100	0.050	0.460
2020/01/31 20:43:53.0	6.530	-0.110	0.040	0.470
2020/01/31 20:43:53.1	6.520	-0.110	0.030	0.470
2020/01/31 20:43:53.2	6.500	-0.120	0.020	0.460
2020/01/31 20:43:53.3	6.480	-0.130	0.010	0.460
2020/01/31 20:43:53.4	6.470	-0.130	-0.010	0.440
2020/01/31 20:43:53.5	6.450	-0.140	-0.030	0.430
2020/01/31 20:43:53.6	6.440	-0.140	-0.050	0.400
2020/01/31 20:43:53.7	6.420	-0.150	-0.070	0.380
2020/01/31 20:43:53.8	6.410	-0.150	-0.100	0.350
2020/01/31 20:43:53.9	6.390	-0.150	-0.130	0.310
2020/01/31 20:43:54.0	6.380	-0.150	-0.160	0.270
2020/01/31 20:43:54.1	6.370	-0.150	-0.190	0.230
2020/01/31 20:43:54.2	6.360	-0.160	-0.220	0.190
2020/01/31 20:43:54.3	6.350	-0.160	-0.260	0.150
2020/01/31 20:43:54.4	6.340	-0.150	-0.290	0.110
2020/01/31 20:43:54.5	6.330	-0.150	-0.320	0.060
2020/01/31 20:43:54.6	6.320	-0.150	-0.360	0.020
2020/01/31 20:43:54.7	6.310	-0.150	-0.390	-0.020
2020/01/31 20:43:54.8	6.300	-0.150	-0.430	-0.060
2020/01/31 20:43:54.9	6.300	-0.140	-0.460	-0.100
2020/01/31 20:43:55.0	6.280	-0.140	-0.490	-0.140
2020/01/31 20:43:55.1	6.280	-0.130	-0.520	-0.170
2020/01/31 20:43:55.2	6.280	-0.120	-0.540	-0.200
2020/01/31 20:43:55.3	6.270	-0.120	-0.570	-0.230
2020/01/31 20:43:55.4	6.270	-0.110	-0.590	-0.260
2020/01/31 20:43:55.5	6.270	-0.100	-0.610	-0.280
2020/01/31 20:43:55.6	6.280	-0.090	-0.630	-0.310
2020/01/31 20:43:55.7	6.280	-0.080	-0.640	-0.330
2020/01/31 20:43:55.8	6.290	-0.070	-0.660	-0.350
2020/01/31 20:43:55.9	6.290	-0.050	-0.670	-0.370
2020/01/31 20:43:56.0	6.300	-0.040	-0.680	-0.390
2020/01/31 20:43:56.1	6.310	-0.030	-0.690	-0.410
2020/01/31 20:43:56.2	6.320	-0.010	-0.700	-0.430
2020/01/31 20:43:56.3	6.340	0.000	-0.700	-0.450
2020/01/31 20:43:56.4	6.360	0.020	-0.700	-0.460
2020/01/31 20:43:56.5	6.370	0.040	-0.700	-0.480
2020/01/31 20:43:56.6	6.400	0.050	-0.700	-0.500
2020/01/31 20:43:56.7	6.420	0.070	-0.700	-0.520
2020/01/31 20:43:56.8	6.440	0.090	-0.690	-0.530
2020/01/31 20:43:56.9	6.470	0.110	-0.680	-0.550
2020/01/31 20:43:57.0	6.500	0.130	-0.670	-0.560
2020/01/31 20:43:57.1	6.530	0.150	-0.660	-0.570
2020/01/31 20:43:57.2	6.550	0.180	-0.650	-0.580
2020/01/31 20:43:57.3	6.580	0.200	-0.630	-0.580
2020/01/31 20:43:57.4	6.600	0.220	-0.610	-0.580
2020/01/31 20:43:57.5	6.620	0.240	-0.590	-0.580
2020/01/31 20:43:57.6	6.640	0.260	-0.560	-0.570
2020/01/31 20:43:57.7	6.660	0.280	-0.540	-0.560
2020/01/31 20:43:57.8	6.680	0.300	-0.510	-0.550
2020/01/31 20:43:57.9	6.700	0.320	-0.470	-0.530
2020/01/31 20:43:58.0	6.700	0.340	-0.440	-0.510
2020/01/31 20:43:58.1	6.710	0.350	-0.410	-0.480
2020/01/31 20:43:58.2	6.730	0.360	-0.370	-0.450
2020/01/31 20:43:58.3	6.730	0.370	-0.330	-0.420
2020/01/31 20:43:58.4	6.740	0.380	-0.290	-0.380
2020/01/31 20:43:58.5	6.740	0.390	-0.250	-0.350
2020/01/31 20:43:58.6	6.740	0.390	-0.200	-0.310
2020/01/31 20:43:58.7	6.740	0.390	-0.160	-0.280
2020/01/31 20:43:58.8	6.740	0.380	-0.120	-0.240
2020/01/31 20:43:58.9	6.740	0.380	-0.080	-0.210
2020/01/31 20:43:59.0	6.740	0.370	-0.040	-0.170
2020/01/31 20:43:59.1	6.730	0.360	-0.010	-0.130
2020/01/31 20:43:59.2	6.720	0.340	0.020	-0.100
2020/01/31 20:43:59.3	6.710	0.320	0.050	-0.070
2020/01/31 20:43:59.4	6.700	0.300	0.080	-0.040
2020/01/31 20:43:59.5	6.690	0.280	0.100	-0.010
2020/01/31 20:43:59.6	6.680	0.260	0.120	0.010
2020/01/31 20:43:59.7	6.680	0.230	0.130	0.030
2020/01/31 20:43:59.8	6.670	0.200	0.140	0.050
2020/01/31 20:43:59.9	6.660	0.170	0.140	0.070
2020/01/31 20:44:00.0	6.660	0.140	0.140	0.090
2020/01/31 20:44:00.1	6.650	0.110	0.130	0.100
2020/01/31 20:44:00.2	6.650	0.080	0.120	0.110
2020/01/31 20:44:00.3	6.640	0.040	0.100	0.120
2020/01/31 20:44:00.4	6.640	0.010	0.080	0.130
2020/01/31 20:44:00.5	6.640	-0.020	0.050	0.130
2020/01/31 20:44:00.6	6.640	-0.060	0.030	0.130
2020/01/31 20:44:00.7	6.630	-0.090	-0.010	0.130
2020/01/31 20:44:00.8	6.630	-0.120	-0.040	0.130
2020/01/31 20:44:00.9	6.630	-0.150	-0.080	0.120
2020/01/31 20:44:01.0	6.630	-0.180	-0.110	0.120
2020/01/31 20:44:01.1	6.630	-0.210	-0.150	0.110
2020/01/31 20:44:01.2	6.630	-0.230	-0.190	0.100
2020/01/31 20:44:01.3	6.640	-0.260	-0.230	0.080
2020/01/31 20:44:01.4	6.640	-0.280	-0.270	0.070
2020/01/31 20:44:01.5	6.640	-0.300	-0.300	0.050
2020/01/31 20:44:01.6	6.640	-0.320	-0.340	0.030
2020/01/31 20:44:01.7	6.650	-0.340	-0.370	0.010
2020/01/31 20:44:01.8	6.650	-0.350	-0.400	-0.010
2020/01/31 20:44:01.9	6.650	-0.370	-0.420	-0.040
2020/01/31 20:44:02.0	6.660	-0.380	-0.450	-0.070
2020/01/31 20:44:02.1	6.660	-0.380	-0.460	-0.090
2020/01/31 20:44:02.2	6.670	-0.390	-0.480	-0.110
2020/01/31 20:44:02.3	6.670	-0.390	-0.490	-0.140
2020/01/31 20:44:02.4	6.670	-0.400	-0.500	-0.160
2020/01/31 20:44:02.5	6.670	-0.390	-0.500	-0.180
2020/01/31 20:44:02.6	6.680	-0.390	-0.500	-0.200
2020/01/31 20:44:02.7	6.680	-0.380	-0.490	-0.220
2020/01/31 20:44:02.8	6.680	-0.380	-0.490	-0.240
2020/01/31 20:44:02.9	6.680	-0.360	-0.480	-0.250
2020/01/31 20:44:03.0	6.680	-0.350	-0.460	-0.260
2020/01/31 20:44:03.1	6.680	-0.340	-0.440	-0.270
2020/01/31 20:44:03.2	6.680	-0.320	-0.420	-0.280
2020/01/31 20:44:03.3	6.680	-0.300	-0.400	-0.280
2020/01/31 20:44:03.4	6.670	-0.280	-0.380	-0.290
2020/01/31 20:44:03.5	6.660	-0.260	-0.350	-0.280
2020/01/31 20:44:03.6	6.660	-0.230	-0.330	-0.280
2020/01/31 20:44:03.7	6.650	-0.210	-0.300	-0.270
2020/01/31 20:44:03.8	6.640	-0.180	-0.270	-0.260
2020/01/31 20:44:03.9	6.630	-0.150	-0.250	-0.240
2020/01/31 20:44:04.0	6.610	-0.120	-0.230	-0.230
2020/01/31 20:44:04.1	6.600	-0.090	-0.200	-0.210
2020/01/31 20:44:04.2	6.580	-0.060	-0.180	-0.190
2020/01/31 20:44:04.3	6.570	-0.030	-0.160	-0.160
2020/01/31 20:44:04.4	6.560	0.010	-0.150	-0.140
2020/01/31 20:44:04.5	6.550	0.040	-0.130	-0.110
2020/01/31 20:44:04.6	6.540	0.070	-0.120	-0.090
2020/01/31 20:44:04.7	6.530	0.110	-0.110	-0.060
2020/01/31 20:44:04.8	6.520	0.140	-0.110	-0.030
2020/01/31 20:44:04.9	6.510	0.170	-0.110	-0.010
2020/01/31 20:44:05.0	6.490	0.200	-0.110	0.020
2020/01/31 20:44:05.1	6.490	0.240	-0.120	0.050
2020/01/31 20:44:05.2	6.480	0.270	-0.130	0.070
2020/01/31 20:44:05.3	6.480	0.300	-0.140	0.090
2020/01/31 20:44:05.4	6.480	0.320	-0.160	0.110
2020/01/31 20:44:05.5	6.480	0.350	-0.180	0.130
2020/01/31 20:44:05.6	6.490	0.370	-0.200	0.150
2020/01/31 20:44:05.7	6.490	0.400	-0.220	0.170
2020/01/31 20:44:05.8	6.500	0.410	-0.240	0.180
2020/01/31 20:44:05.9	6.500	0.430	-0.270	0.190
2020/01/31 20:44:06.0	6.510	0.450	-0.290	0.210
2020/01/31 20:44:06.1	6.520	0.460	-0.310	0.210
2020/01/31 20:44:06.2	6.530	0.460	-0.330	0.220
2020/01/31 20:44:06.3	6.540	0.470	-0.350	0.230
2020/01/31 20:44:06.4	6.550	0.470	-0.370	0.230
2020/01/31 20:44:06.5	6.560	0.470	-0.390	0.230
2020/01/31 20:44:06.6	6.580	0.460	-0.400	0.230
2020/01/31 20:44:06.7	6.590	0.450	-0.410	0.230
2020/01/31 20:44:06.8	6.600	0.440	-0.420	0.220
2020/01/31 20:44:06.9	6.620	0.420	-0.420	0.220
2020/01/31 20:44:07.0	6.630	0.400	-0.420	0.210
2020/01/31 20:44:07.1	6.640	0.370	-0.420	0.200
2020/01/31 20:44:07.2	6.660	0.350	-0.410	0.190
2020/01/31 20:44:07.3	6.670	0.310	-0.400	0.180
2020/01/31 20:44:07.4	6.690	0.280	-0.380	0.170
2020/01/31 20:44:07.5	6.700	0.240	-0.360	0.160
2020/01/31 20:44:07.6	6.710	0.200	-0.340	0.150
2020/01/31 20:44:07.7	6.720	0.160	-0.320	0.140
2020/01/31 20:44:07.8	6.730	0.110	-0.290	0.130
2020/01/31 20:44:07.9	6.740	0.070	-0.260	0.120
2020/01/31 20:44:08.0	6.740	0.020	-0.230	0.100
2020/01/31 20:44:08.1	6.740	-0.030	-0.190	0.080
2020/01/31 20:44:08.2	6.750	-0.090	-0.160	0.070
2020/01/31 20:44:08.3	6.750	-0.140	-0.120	0.050
2020/01/31 20:44:08.4	6.760	-0.200	-0.080	0.020
2020/01/31 20:44:08.5	6.760	-0.250	-0.050	0.000
2020/01/31 20:44:08.6	6.760	-0.310	-0.010	-0.030
2020/01/31 20:44:08.7	6.760	-0.360	0.020	-0.060
2020/01/31 20:44:08.8	6.760	-0.410	0.050	-0.090
2020/01/31 20:44:08.9	6.760	-0.460	0.080	-0.120
2020/01/31 20:44:09.0	6.750	-0.510	0.110	-0.160
2020/01/31 20:44:09.1	6.750	-0.560	0.130	-0.200
2020/01/31 20:44:09.2	6.750	-0.610	0.150	-0.230
2020/01/31 20:44:09.3	6.740	-0.650	0.170	-0.270
2020/01/31 20:44:09.4	6.740	-0.690	0.180	-0.310
2020/01/31 20:44:09.5	6.740	-0.720	0.190	-0.360
2020/01/31 20:44:09.6	6.730	-0.750	0.190	-0.400
2020/01/31 20:44:09.7	6.730	-0.780	0.190	-0.440
2020/01/31 20:44:09.8	6.730	-0.800	0.180	-0.480
2020/01/31 20:44:09.9	6.730	-0.820	0.170	-0.520
2020/01/31 20:44:10.0	6.740	-0.830	0.150	-0.570
2020/01/31 20:44:10.1	6.740	-0.830	0.130	-0.610
2020/01/31 20:44:10.2	6.750	-0.830	0.100	-0.650
2020/01/31 20:44:10.3	6.760	-0.830	0.070	-0.690
2020/01/31 20:44:10.4	6.770	-0.810	0.030	-0.730
2020/01/31 20:44:10.5	6.790	-0.800	-0.010	-0.770
2020/01/31 20:44:10.6	6.810	-0.770	-0.060	-0.800
2020/01/31 20:44:10.7	6.830	-0.740	-0.100	-0.840
2020/01/31 20:44:10.8	6.850	-0.710	-0.160	-0.880
2020/01/31 20:44:10.9	6.880	-0.670	-0.210	-0.910
2020/01/31 20:44:11.0	6.900	-0.620	-0.270	-0.950
2020/01/31 20:44:11.1	6.930	-0.570	-0.330	-0.980
2020/01/31 20:44:11.2	6.960	-0.520	-0.390	-1.010
2020/01/31 20:44:11.3	6.990	-0.460	-0.450	-1.040
2020/01/31 20:44:11.4	7.020	-0.400	-0.510	-1.070
2020/01/31 20:44:11.5	7.050	-0.340	-0.560	-1.090
2020/01/31 20:44:11.6	7.080	-0.270	-0.620	-1.110
2020/01/31 20:44:11.7	7.110	-0.210	-0.670	-1.120
2020/01/31 20:44:11.8	7.140	-0.140	-0.720	-1.130
2020/01/31 20:44:11.9	7.160	-0.070	-0.760	-1.140
2020/01/31 20:44:12.0	7.200	0.000	-0.790	-1.130
2020/01/31 20:44:12.1	7.210	0.070	-0.820	-1.130
2020/01/31 20:44:12.2	7.230	0.140	-0.850	-1.110
2020/01/31 20:44:12.3	7.230	0.200	-0.860	-1.100
2020/01/31 20:44:12.4	7.230	0.260	-0.870	-1.070
2020/01/31 20:44:12.5	7.230	0.330	-0.880	-1.040
2020/01/31 20:44:12.6	7.230	0.380	-0.870	-1.010
2020/01/31 20:44:12.7	7.210	0.440	-0.860	-0.970
2020/01/31 20:44:12.8	7.200	0.490	-0.850	-0.920
2020/01/31 20:44:12.9	7.180	0.540	-0.820	-0.880
2020/01/31 20:44:13.0	7.150	0.580	-0.790	-0.820
2020/01/31 20:44:13.1	7.120	0.620	-0.760	-0.770
2020/01/31 20:44:13.2	7.090	0.660	-0.710	-0.710
2020/01/31 20:44:13.3	7.060	0.690	-0.660	-0.640
2020/01/31 20:44:13.4	7.020	0.720	-0.610	-0.580
2020/01/31 20:44:13.5	6.980	0.740	-0.550	-0.510
2020/01/31 20:44:13.6	6.940	0.760	-0.480	-0.440
2020/01/31 20:44:13.7	6.900	0.770	-0.420	-0.370
2020/01/31 20:44:13.8	6.860	0.790	-0.350	-0.290
2020/01/31 20:44:13.9	6.810	0.790	-0.280	-0.220
2020/01/31 20:44:14.0	6.780	0.800	-0.220	-0.150
2020/01/31 20:44:14.1	6.740	0.800	-0.150	-0.070
2020/01/31 20:44:14.2	6.700	0.790	-0.080	-0.000
2020/01/31 20:44:14.3	6.670	0.790	-0.020	0.070
2020/01/31 20:44:14.4	6.630	0.780	0.030	0.130
2020/01/31 20:44:14.5	6.600	0.770	0.090	0.190
2020/01/31 20:44:14.6	6.570	0.760	0.140	0.250
2020/01/31 20:44:14.7	6.550	0.740	0.180	0.310
2020/01/31 20:44:14.8	6.530	0.730	0.210	0.360
2020/01/31 20:44:14.9	6.510	0.710	0.240	0.400
2020/01/31 20:44:15.0	6.490	0.690	0.260	0.440
2020/01/31 20:44:15.1	6.480	0.670	0.270	0.470
2020/01/31 20:44:15.2	6.470	0.650	0.280	0.500
2020/01/31 20:44:15.3	6.470	0.630	0.280	0.510
2020/01/31 20:44:15.4	6.470	0.610	0.270	0.530
2020/01/31 20:44:15.5	6.480	0.580	0.260	0.530
2020/01/31 20:44:15.6	6.490	0.560	0.240	0.530
2020/01/31 20:44:15.7	6.500	0.530	0.210	0.530
2020/01/31 20:44:15.8	6.510	0.510	0.180	0.510
2020/01/31 20:44:15.9	6.530	0.480	0.150	0.500
2020/01/31 20:44:16.0	6.540	0.450	0.120	0.470
2020/01/31 20:44:16.1	6.560	0.420	0.080	0.450
2020/01/31 20:44:16.2	6.590	0.390	0.040	0.420
2020/01/31 20:44:16.3	6.610	0.360	-0.000	0.390
2020/01/31 20:44:16.4	6.630	0.330	-0.040	0.360
2020/01/31 20:44:16.5	6.650	0.290	-0.090	0.320
2020/01/31 20:44:16.6	6.680	0.260	-0.130	0.280
2020/01/31 20:44:16.7	6.700	0.220	-0.160	0.240
2020/01/31 20:44:16.8	6.720	0.180	-0.200	0.200
2020/01/31 20:44:16.9	6.740	0.130	-0.230	0.160
2020/01/31 20:44:17.0	6.750	0.090	-0.260	0.120
2020/01/31 20:44:17.1	6.770	0.040	-0.290	0.080
2020/01/31 20:44:17.2	6.790	-0.010	-0.310	0.030
2020/01/31 20:44:17.3	6.810	-0.060	-0.330	-0.010
2020/01/31 20:44:17.4	6.820	-0.110	-0.350	-0.060
2020/01/31 20:44:17.5	6.840	-0.160	-0.360	-0.100
2020/01/31 20:44:17.6	6.850	-0.220	-0.370	-0.150
2020/01/31 20:44:17.7	6.870	-0.280	-0.380	-0.200
2020/01/31 20:44:17.8	6.880	-0.330	-0.380	-0.240
2020/01/31 20:44:17.9	6.890	-0.390	-0.380	-0.290
2020/01/31 20:44:18.0	6.900	-0.450	-0.370	-0.330
2020/01/31 20:44:18.1	6.910	-0.510	-0.370	-0.380
2020/01/31 20:44:18.2	6.910	-0.570	-0.370	-0.430
2020/01/31 20:44:18.3	6.920	-0.630	-0.360	-0.470
2020/01/31 20:44:18.4	6.930	-0.690	-0.360	-0.520
2020/01/31 20:44:18.5	6.940	-0.740	-0.350	-0.570
2020/01/31 20:44:18.6	6.940	-0.800	-0.340	-0.610
2020/01/31 20:44:18.7	6.950	-0.850	-0.340	-0.660
2020/01/31 20:44:18.8	6.960	-0.900	-0.330	-0.700
2020/01/31 20:44:18.9	6.970	-0.940	-0.330	-0.750
2020/01/31 20:44:19.0	6.970	-0.980	-0.330	-0.790
2020/01/31 20:44:19.1	6.980	-1.020	-0.340	-0.840
2020/01/31 20:44:19.2	6.990	-1.050	-0.340	-0.880
2020/01/31 20:44:19.3	7.010	-1.080	-0.350	-0.920
2020/01/31 20:44:19.4	7.020	-1.100	-0.360	-0.960
2020/01/31 20:44:19.5	7.030	-1.120	-0.370	-1.000
2020/01/31 20:44:19.6	7.040	-1.130	-0.390	-1.030
2020/01/31 20:44:19.7	7.060	-1.130	-0.410	-1.060
2020/01/31 20:44:19.8	7.070	-1.130	-0.430	-1.090
2020/01/31 20:44:19.9	7.080	-1.120	-0.450	-1.120
2020/01/31 20:44:20.0	7.110	-1.100	-0.480	-1.140
2020/01/31 20:44:20.1	7.120	-1.080	-0.500	-1.160
2020/01/31 20:44:20.2	7.130	-1.050	-0.530	-1.170
2020/01/31 20:44:20.3	7.140	-1.010	-0.560	-1.180
2020/01/31 20:44:20.4	7.160	-0.970	-0.590	-1.180
2020/01/31 20:44:20.5	7.170	-0.920	-0.620	-1.190
2020/01/31 20:44:20.6	7.180	-0.860	-0.640	-1.180
2020/01/31 20:44:20.7	7.190	-0.800	-0.670	-1.170
2020/01/31 20:44:20.8	7.190	-0.730	-0.690	-1.160
2020/01/31 20:44:20.9	7.200	-0.660	-0.710	-1.140
2020/01/31 20:44:21.0	7.210	-0.580	-0.730	-1.130
2020/01/31 20:44:21.1	7.210	-0.500	-0.750	-1.100
2020/01/31 20:44:21.2	7.220	-0.420	-0.760	-1.070
2020/01/31 20:44:21.3	7.220	-0.340	-0.760	-1.040
2020/01/31 20:44:21.4	7.220	-0.250	-0.760	-1.000
2020/01/31 20:44:21.5	7.220	-0.160	-0.760	-0.960
2020/01/31 20:44:21.6	7.220	-0.070	-0.750	-0.920
2020/01/31 20:44:21.7	7.220	0.020	-0.730	-0.880
2020/01/31 20:44:21.8	7.220	0.100	-0.720	-0.830
2020/01/31 20:44:21.9	7.220	0.190	-0.690	-0.780
2020/01/31 20:44:22.0	7.220	0.270	-0.670	-0.720
2020/01/31 20:44:22.1	7.220	0.360	-0.640	-0.670
2020/01/31 20:44:22.2	7.210	0.430	-0.600	-0.610
2020/01/31 20:44:22.3	7.210	0.510	-0.570	-0.550
2020/01/31 20:44:22.4	7.200	0.580	-0.520	-0.490
2020/01/31 20:44:22.5	7.190	0.640	-0.480	-0.420
2020/01/31 20:44:22.6	7.180	0.700	-0.430	-0.360
2020/01/31 20:44:22.7	7.180	0.760	-0.380	-0.290
2020/01/31 20:44:22.8	7.170	0.800	-0.330	-0.220
2020/01/31 20:44:22.9	7.160	0.850	-0.270	-0.150
2020/01/31 20:44:23.0	7.140	0.880	-0.220	-0.080
2020/01/31 20:44:23.1	7.130	0.910	-0.170	-0.010
2020/01/31 20:44:23.2	7.120	0.930	-0.110	0.060
2020/01/31 20:44:23.3	7.110	0.950	-0.060	0.130
2020/01/31 20:44:23.4	7.100	0.960	-0.010	0.200
2020/01/31 20:44:23.5	7.090	0.960	0.050	0.270
2020/01/31 20:44:23.6	7.080	0.960	0.100	0.330
2020/01/31 20:44:23.7	7.060	0.950	0.150	0.390
2020/01/31 20:44:23.8	7.050	0.940	0.190	0.460
2020/01/31 20:44:23.9	7.040	0.910	0.230	0.510
2020/01/31 20:44:24.0	7.040	0.890	0.270	0.560
2020/01/31 20:44:24.1	7.020	0.860	0.310	0.610
2020/01/31 20:44:24.2	7.010	0.820	0.340	0.660
2020/01/31 20:44:24.3	7.000	0.780	0.370	0.690
2020/01/31 20:44:24.4	6.990	0.740	0.400	0.730
2020/01/31 20:44:24.5	6.980	0.690	0.420	0.750
2020/01/31 20:44:24.6	6.970	0.640	0.440	0.780
2020/01/31 20:44:24.7	6.960	0.590	0.460	0.790
2020/01/31 20:44:24.8	6.950	0.530	0.470	0.800
2020/01/31 20:44:24.9	6.940	0.470	0.470	0.800
2020/01/31 20:44:25.0	6.940	0.420	0.470	0.800
2020/01/31 20:44:25.1	6.930	0.360	0.470	0.790
2020/01/31 20:44:25.2	6.910	0.300	0.460	0.770
2020/01/31 20:44:25.3	6.900	0.240	0.460	0.760
2020/01/31 20:44:25.4	6.890	0.180	0.440	0.730
2020/01/31 20:44:25.5	6.880	0.120	0.430	0.700
2020/01/31 20:44:25.6	6.870	0.060	0.410	0.670
2020/01/31 20:44:25.7	6.860	0.010	0.380	0.640
2020/01/31 20:44:25.8	6.840	-0.050	0.360	0.600
2020/01/31 20:44:25.9	6.830	-0.100	0.330	0.560
2020/01/31 20:44:26.0	6.820	-0.150	0.300	0.510
2020/01/31 20:44:26.1	6.810	-0.200	0.270	0.470
2020/01/31 20:44:26.2	6.800	-0.240	0.230	0.420
2020/01/31 20:44:26.3	6.790	-0.290	0.190	0.360
2020/01/31 20:44:26.4	6.780	-0.330	0.150	0.310
2020/01/31 20:44:26.5	6.770	-0.360	0.110	0.250
2020/01/31 20:44:26.6	6.760	-0.390	0.060	0.190
2020/01/31 20:44:26.7	6.760	-0.420	0.020	0.130
2020/01/31 20:44:26.8	6.750	-0.450	-0.030	0.060
2020/01/31 20:44:26.9	6.750	-0.470	-0.080	-0.000
2020/01/31 20:44:27.0	6.750	-0.480	-0.130	-0.070
2020/01/31 20:44:27.1	6.750	-0.490	-0.180	-0.140
2020/01/31 20:44:27.2	6.760	-0.500	-0.240	-0.210
2020/01/31 20:44:27.3	6.760	-0.510	-0.290	-0.280
2020/01/31 20:44:27.4	6.770	-0.510	-0.350	-0.340
2020/01/31 20:44:27.5	6.780	-0.510	-0.400	-0.410
2020/01/31 20:44:27.6	6.790	-0.500	-0.460	-0.470
2020/01/31 20:44:27.7	6.800	-0.490	-0.510	-0.530
2020/01/31 20:44:27.8	6.820	-0.470	-0.570	-0.590
2020/01/31 20:44:27.9	6.840	-0.460	-0.620	-0.650
2020/01/31 20:44:28.0	6.840	-0.440	-0.680	-0.710
2020/01/31 20:44:28.1	6.860	-0.420	-0.730	-0.770
2020/01/31 20:44:28.2	6.880	-0.390	-0.780	-0.810
2020/01/31 20:44:28.3	6.900	-0.360	-0.820	-0.860
2020/01/31 20:44:28.4	6.920	-0.330	-0.860	-0.900
2020/01/31 20:44:28.5	6.940	-0.300	-0.900	-0.940
2020/01/31 20:44:28.6	6.960	-0.270	-0.930	-0.970
2020/01/31 20:44:28.7	6.990	-0.240	-0.960	-1.000
2020/01/31 20:44:28.8	7.010	-0.210	-0.990	-1.020
2020/01/31 20:44:28.9	7.030	-0.180	-1.010	-1.040
2020/01/31 20:44:29.0	7.050	-0.140	-1.020	-1.060
2020/01/31 20:44:29.1	7.080	-0.110	-1.040	-1.070
2020/01/31 20:44:29.2	7.100	-0.080	-1.040	-1.080
2020/01/31 20:44:29.3	7.130	-0.050	-1.050	-1.080
2020/01/31 20:44:29.4	7.150	-0.020	-1.040	-1.070
2020/01/31 20:44:29.5	7.180	0.010	-1.040	-1.070
2020/01/31 20:44:29.6	7.200	0.040	-1.020	-1.060
2020/01/31 20:44:29.7	7.220	0.060	-1.010	-1.040
2020/01/31 20:44:29.8	7.250	0.090	-0.980	-1.020
2020/01/31 20:44:29.9	7.270	0.110	-0.960	-1.000
2020/01/31 20:44:30.0	7.310	0.130	-0.930	-0.970
2020/01/31 20:44:30.1	7.330	0.150	-0.890	-0.940
2020/01/31 20:44:30.2	7.350	0.160	-0.860	-0.910
2020/01/31 20:44:30.3	7.360	0.170	-0.810	-0.880
2020/01/31 20:44:30.4	7.380	0.180	-0.770	-0.840
2020/01/31 20:44:30.5	7.390	0.190	-0.720	-0.790
2020/01/31 20:44:30.6	7.410	0.190	-0.660	-0.750
2020/01/31 20:44:30.7	7.410	0.190	-0.610	-0.700
2020/01/31 20:44:30.8	7.420	0.190	-0.550	-0.660
2020/01/31 20:44:30.9	7.430	0.190	-0.490	-0.610
2020/01/31 20:44:31.0	7.430	0.180	-0.430	-0.550
2020/01/31 20:44:31.1	7.440	0.170	-0.360	-0.500
2020/01/31 20:44:31.2	7.430	0.160	-0.300	-0.440
2020/01/31 20:44:31.3	7.430	0.140	-0.240	-0.390
2020/01/31 20:44:31.4	7.430	0.130	-0.180	-0.340
2020/01/31 20:44:31.5	7.420	0.110	-0.120	-0.280
2020/01/31 20:44:31.6	7.420	0.090	-0.060	-0.230
2020/01/31 20:44:31.7	7.410	0.070	-0.010	-0.180
2020/01/31 20:44:31.8	7.400	0.050	0.040	-0.130
2020/01/31 20:44:31.9	7.390	0.030	0.090	-0.090
2020/01/31 20:44:32.0	7.390	0.010	0.130	-0.040
2020/01/31 20:44:32.1	7.380	-0.010	0.160	-0.000
2020/01/31 20:44:32.2	7.380	-0.030	0.200	0.040
2020/01/31 20:44:32.3	7.370	-0.050	0.220	0.080
2020/01/31 20:44:32.4	7.370	-0.060	0.240	0.110
2020/01/31 20:44:32.5	7.370	-0.080	0.260	0.140
2020/01/31 20:44:32.6	7.370	-0.090	0.270	0.170
2020/01/31 20:44:32.7	7.370	-0.100	0.270	0.200
2020/01/31 20:44:32.8	7.380	-0.110	0.270	0.220
2020/01/31 20:44:32.9	7.380	-0.120	0.260	0.240
2020/01/31 20:44:33.0	7.390	-0.130	0.250	0.260
2020/01/31 20:44:33.1	7.390	-0.130	0.230	0.270
2020/01/31 20:44:33.2	7.400	-0.130	0.210	0.280
2020/01/31 20:44:33.3	7.400	-0.130	0.190	0.290
2020/01/31 20:44:33.4	7.400	-0.130	0.170	0.300
2020/01/31 20:44:33.5	7.410	-0.120	0.140	0.300
2020/01/31 20:44:33.6	7.410	-0.110	0.110	0.310
2020/01/31 20:44:33.7	7.410	-0.100	0.080	0.310
2020/01/31 20:44:33.8	7.410	-0.090	0.050	0.300
2020/01/31 20:44:33.9	7.410	-0.080	0.020	0.300
2020/01/31 20:44:34.0	7.410	-0.060	-0.000	0.290
2020/01/31 20:44:34.1	7.400	-0.050	-0.030	0.290
2020/01/31 20:44:34.2	7.390	-0.030	-0.060	0.280
2020/01/31 20:44:34.3	7.390	-0.010	-0.090	0.280
2020/01/31 20:44:34.4	7.370	0.020	-0.110	0.270
2020/01/31 20:44:34.5	7.360	0.040	-0.130	0.260
2020/01/31 20:44:34.6	7.340	0.060	-0.160	0.260
2020/01/31 20:44:34.7	7.330	0.080	-0.180	0.250
2020/01/31 20:44:34.8	7.310	0.110	-0.190	0.240
2020/01/31 20:44:34.9	7.290	0.130	-0.210	0.240
2020/01/31 20:44:35.0	7.260	0.160	-0.220	0.230
2020/01/31 20:44:35.1	7.240	0.180	-0.240	0.220
2020/01/31 20:44:35.2	7.220	0.200	-0.250	0.220
2020/01/31 20:44:35.3	7.200	0.230	-0.260	0.210
2020/01/31 20:44:35.4	7.180	0.250	-0.270	0.200
2020/01/31 20:44:35.5	7.160	0.270	-0.280	0.190
2020/01/31 20:44:35.6	7.140	0.290	-0.290	0.180
2020/01/31 20:44:35.7	7.120	0.300	-0.310	0.160
2020/01/31 20:44:35.8	7.100	0.320	-0.320	0.150
2020/01/31 20:44:35.9	7.090	0.330	-0.330	0.130
2020/01/31 20:44:36.0	7.080	0.340	-0.350	0.110
2020/01/31 20:44:36.1	7.070	0.350	-0.360	0.090
2020/01/31 20:44:36.2	7.060	0.360	-0.370	0.070
2020/01/31 20:44:36.3	7.050	0.370	-0.390	0.050
2020/01/31 20:44:36.4	7.040	0.370	-0.400	0.020
2020/01/31 20:44:36.5	7.040	0.370	-0.410	-0.010
2020/01/31 20:44:36.6	7.030	0.370	-0.430	-0.040
2020/01/31 20:44:36.7	7.030	0.370	-0.440	-0.070
2020/01/31 20:44:36.8	7.030	0.370	-0.450	-0.100
2020/01/31 20:44:36.9	7.030	0.360	-0.460	-0.130
2020/01/31 20:44:37.0	7.030	0.350	-0.470	-0.160
2020/01/31 20:44:37.1	7.030	0.340	-0.480	-0.200
2020/01/31 20:44:37.2	7.030	0.330	-0.480	-0.230
2020/01/31 20:44:37.3	7.030	0.310	-0.480	-0.260
2020/01/31 20:44:37.4	7.040	0.290	-0.480	-0.290
2020/01/31 20:44:37.5	7.040	0.270	-0.480	-0.330
2020/01/31 20:44:37.6	7.050	0.250	-0.480	-0.360
2020/01/31 20:44:37.7	7.050	0.230	-0.470	-0.390
2020/01/31 20:44:37.8	7.060	0.210	-0.460	-0.410
2020/01/31 20:44:37.9	7.060	0.180	-0.440	-0.440
2020/01/31 20:44:38.0	7.080	0.160	-0.430	-0.470
2020/01/31 20:44:38.1	7.080	0.130	-0.410	-0.490
2020/01/31 20:44:38.2	7.090	0.100	-0.390	-0.510
2020/01/31 20:44:38.3	7.100	0.070	-0.360	-0.530
2020/01/31 20:44:38.4	7.110	0.040	-0.330	-0.550
2020/01/31 20:44:38.5	7.120	0.010	-0.300	-0.570
2020/01/31 20:44:38.6	7.130	-0.020	-0.270	-0.580
2020/01/31 20:44:38.7	7.140	-0.050	-0.230	-0.600
2020/01/31 20:44:38.8	7.160	-0.090	-0.200	-0.610
2020/01/31 20:44:38.9	7.170	-0.120	-0.160	-0.630
2020/01/31 20:44:39.0	7.160	-0.150	-0.120	-0.640
2020/01/31 20:44:39.1	7.180	-0.190	-0.090	-0.650
2020/01/31 20:44:39.2	7.190	-0.220	-0.050	-0.660
2020/01/31 20:44:39.3	7.210	-0.250	-0.010	-0.670
2020/01/31 20:44:39.4	7.220	-0.280	0.020	-0.680
2020/01/31 20:44:39.5	7.230	-0.320	0.050	-0.690
2020/01/31 20:44:39.6	7.250	-0.350	0.080	-0.700
2020/01/31 20:44:39.7	7.260	-0.380	0.110	-0.710
2020/01/31 20:44:39.8	7.280	-0.400	0.130	-0.710
2020/01/31 20:44:39.9	7.290	-0.430	0.150	-0.720
2020/01/31 20:44:40.0	7.300	-0.450	0.170	-0.720
2020/01/31 20:44:40.1	7.310	-0.480	0.180	-0.720
2020/01/31 20:44:40.2	7.320	-0.500	0.190	-0.720
2020/01/31 20:44:40.3	7.340	-0.520	0.190	-0.710
2020/01/31 20:44:40.4	7.350	-0.530	0.190	-0.700
2020/01/31 20:44:40.5	7.360	-0.550	0.180	-0.700
2020/01/31 20:44:40.6	7.370	-0.560	0.170	-0.680
2020/01/31 20:44:40.7	7.380	-0.560	0.160	-0.670
2020/01/31 20:44:40.8	7.390	-0.570	0.140	-0.650
2020/01/31 20:44:40.9	7.400	-0.570	0.120	-0.630
2020/01/31 20:44:41.0	7.410	-0.560	0.100	-0.600
2020/01/31 20:44:41.1	7.420	-0.560	0.070	-0.580
2020/01/31 20:44:41.2	7.430	-0.550	0.040	-0.550
2020/01/31 20:44:41.3	7.430	-0.540	0.000	-0.520
2020/01/31 20:44:41.4	7.440	-0.520	-0.030	-0.490
2020/01/31 20:44:41.5	7.450	-0.500	-0.070	-0.460
2020/01/31 20:44:41.6	7.460	-0.480	-0.110	-0.420
2020/01/31 20:44:41.7	7.460	-0.450	-0.150	-0.390
2020/01/31 20:44:41.8	7.470	-0.420	-0.190	-0.360
2020/01/31 20:44:41.9	7.480	-0.390	-0.240	-0.320
2020/01/31 20:44:42.0	7.480	-0.360	-0.280	-0.290
2020/01/31 20:44:42.1	7.480	-0.320	-0.320	-0.250
2020/01/31 20:44:42.2	7.490	-0.280	-0.360	-0.220
2020/01/31 20:44:42.3	7.490	-0.240	-0.410	-0.180
2020/01/31 20:44:42.4	7.500	-0.200	-0.450	-0.150
2020/01/31 20:44:42.5	7.500	-0.150	-0.490	-0.120
2020/01/31 20:44:42.6	7.500	-0.110	-0.530	-0.080
2020/01/31 20:44:42.7	7.500	-0.060	-0.560	-0.050
2020/01/31 20:44:42.8	7.500	-0.010	-0.590	-0.020
2020/01/31 20:44:42.9	7.500	0.030	-0.620	0.010
2020/01/31 20:44:43.0	7.510	0.080	-0.650	0.040
2020/01/31 20:44:43.1	7.510	0.120	-0.680	0.070
2020/01/31 20:44:43.2	7.500	0.170	-0.700	0.100
2020/01/31 20:44:43.3	7.500	0.210	-0.710	0.120
2020/01/31 20:44:43.4	7.490	0.250	-0.720	0.150
2020/01/31 20:44:43.5	7.490	0.290	-0.730	0.180
2020/01/31 20:44:43.6	7.480	0.330	-0.730	0.200
2020/01/31 20:44:43.7	7.480	0.360	-0.730	0.220
2020/01/31 20:44:43.8	7.470	0.400	-0.730	0.240
2020/01/31 20:44:43.9	7.460	0.430	-0.720	0.260
2020/01/31 20:44:44.0	7.470	0.450	-0.710	0.290
2020/01/31 20:44:44.1	7.460	0.470	-0.690	0.300
2020/01/31 20:44:44.2	7.450	0.490	-0.670	0.320
2020/01/31 20:44:44.3	7.440	0.510	-0.650	0.340
2020/01/31 20:44:44.4	7.430	0.520	-0.620	0.350
2020/01/31 20:44:44.5	7.420	0.530	-0.590	0.360
2020/01/31 20:44:44.6	7.410	0.530	-0.560	0.370
2020/01/31 20:44:44.7	7.400	0.530	-0.530	0.370
2020/01/31 20:44:44.8	7.400	0.530	-0.490	0.380
2020/01/31 20:44:44.9	7.390	0.520	-0.460	0.370
2020/01/31 20:44:45.0	7.380	0.510	-0.420	0.370
2020/01/31 20:44:45.1	7.380	0.490	-0.380	0.360
2020/01/31 20:44:45.2	7.370	0.480	-0.340	0.340
2020/01/31 20:44:45.3	7.370	0.450	-0.310	0.330
2020/01/31 20:44:45.4	7.360	0.430	-0.270	0.300
2020/01/31 20:44:45.5	7.360	0.400	-0.230	0.280
2020/01/31 20:44:45.6	7.360	0.370	-0.190	0.250
2020/01/31 20:44:45.7	7.360	0.340	-0.160	0.210
2020/01/31 20:44:45.8	7.360	0.310	-0.130	0.170
2020/01/31 20:44:45.9	7.360	0.280	-0.100	0.130
2020/01/31 20:44:46.0	7.370	0.240	-0.070	0.090
2020/01/31 20:44:46.1	7.370	0.210	-0.040	0.040
2020/01/31 20:44:46.2	7.380	0.170	-0.020	-0.010
2020/01/31 20:44:46.3	7.380	0.140	0.000	-0.060
2020/01/31 20:44:46.4	7.390	0.100	0.020	-0.110
2020/01/31 20:44:46.5	7.400	0.070	0.030	-0.170
2020/01/31 20:44:46.6	7.410	0.030	0.040	-0.220
2020/01/31 20:44:46.7	7.420	0.000	0.040	-0.280
2020/01/31 20:44:46.8	7.440	-0.030	0.050	-0.330
2020/01/31 20:44:46.9	7.450	-0.050	0.040	-0.390
2020/01/31 20:44:47.0	7.450	-0.080	0.040	-0.450
2020/01/31 20:44:47.1	7.470	-0.100	0.030	-0.510
2020/01/31 20:44:47.2	7.490	-0.120	0.010	-0.560
2020/01/31 20:44:47.3	7.510	-0.140	-0.000	-0.610
2020/01/31 20:44:47.4	7.530	-0.150	-0.030	-0.670
2020/01/31 20:44:47.5	7.550	-0.170	-0.050	-0.710
2020/01/31 20:44:47.6	7.570	-0.170	-0.080	-0.760
2020/01/31 20:44:47.7	7.590	-0.180	-0.110	-0.800
2020/01/31 20:44:47.8	7.610	-0.180	-0.140	-0.840
2020/01/31 20:44:47.9	7.620	-0.190	-0.170	-0.880
2020/01/31 20:44:48.0	7.640	-0.180	-0.200	-0.910
2020/01/31 20:44:48.1	7.660	-0.180	-0.240	-0.940
2020/01/31 20:44:48.2	7.670	-0.170	-0.270	-0.960
2020/01/31 20:44:48.3	7.680	-0.160	-0.310	-0.980
2020/01/31 20:44:48.4	7.700	-0.150	-0.340	-0.990
2020/01/31 20:44:48.5	7.710	-0.140	-0.370	-1.000
2020/01/31 20:44:48.6	7.720	-0.130	-0.410	-1.010
2020/01/31 20:44:48.7	7.720	-0.110	-0.440	-1.010
2020/01/31 20:44:48.8	7.730	-0.100	-0.460	-1.000
2020/01/31 20:44:48.9	7.730	-0.080	-0.490	-0.990
2020/01/31 20:44:49.0	7.720	-0.060	-0.510	-0.980
2020/01/31 20:44:49.1	7.720	-0.050	-0.530	-0.970
2020/01/31 20:44:49.2	7.720	-0.030	-0.540	-0.950
2020/01/31 20:44:49.3	7.720	-0.010	-0.560	-0.930
2020/01/31 20:44:49.4	7.720	0.010	-0.560	-0.900
2020/01/31 20:44:49.5	7.720	0.020	-0.570	-0.880
2020/01/31 20:44:49.6	7.710	0.040	-0.560	-0.850
2020/01/31 20:44:49.7	7.710	0.050	-0.560	-0.820
2020/01/31 20:44:49.8	7.700	0.070	-0.550	-0.780
2020/01/31 20:44:49.9	7.700	0.080	-0.530	-0.750
2020/01/31 20:44:50.0	7.670	0.090	-0.520	-0.710
2020/01/31 20:44:50.1	7.670	0.110	-0.490	-0.670
2020/01/31 20:44:50.2	7.660	0.120	-0.470	-0.620
2020/01/31 20:44:50.3	7.660	0.120	-0.440	-0.580
2020/01/31 20:44:50.4	7.650	0.130	-0.400	-0.530
2020/01/31 20:44:50.5	7.650	0.140	-0.360	-0.490
2020/01/31 20:44:50.6	7.640	0.140	-0.320	-0.440
2020/01/31 20:44:50.7	7.640	0.140	-0.280	-0.390
2020/01/31 20:44:50.8	7.630	0.150	-0.240	-0.340
2020/01/31 20:44:50.9	7.630	0.150	-0.190	-0.290
2020/01/31 20:44:51.0	7.640	0.140	-0.150	-0.240
2020/01/31 20:44:51.1	7.630	0.140	-0.100	-0.190
2020/01/31 20:44:51.2	7.630	0.140	-0.050	-0.140
2020/01/31 20:44:51.3	7.630	0.130	-0.010	-0.090
2020/01/31 20:44:51.4	7.630	0.120	0.030	-0.050
2020/01/31 20:44:51.5	7.630	0.110	0.070	-0.000
2020/01/31 20:44:51.6	7.620	0.100	0.110	0.040
2020/01/31 20:44:51.7	7.620	0.090	0.150	0.080
2020/01/31 20:44:51.8	7.620	0.070	0.180	0.120
2020/01/31 20:44:51.9	7.620	0.050	0.210	0.150
2020/01/31 20:44:52.0	7.620	0.040	0.230	0.180
2020/01/31 20:44:52.1	7.620	0.020	0.250	0.210
2020/01/31 20:44:52.2	7.620	-0.000	0.270	0.240
2020/01/31 20:44:52.3	7.610	-0.030	0.280	0.260
2020/01/31 20:44:52.4	7.600	-0.050	0.290	0.280
2020/01/31 20:44:52.5	7.600	-0.070	0.290	0.300
2020/01/31 20:44:52.6	7.590	-0.100	0.290	0.310
2020/01/31 20:44:52.7	7.580	-0.120	0.280	0.320
2020/01/31 20:44:52.8	7.580	-0.150	0.270	0.330
2020/01/31 20:44:52.9	7.570	-0.180	0.250	0.330
2020/01/31 20:44:53.0	7.560	-0.200	0.230	0.330
2020/01/31 20:44:53.1	7.560	-0.230	0.210	0.320
2020/01/31 20:44:53.2	7.550	-0.260	0.180	0.310
2020/01/31 20:44:53.3	7.550	-0.280	0.150	0.300
2020/01/31 20:44:53.4	7.540	-0.310	0.120	0.280
2020/01/31 20:44:53.5	7.540	-0.330	0.080	0.260
2020/01/31 20:44:53.6	7.540	-0.360	0.040	0.230
2020/01/31 20:44:53.7	7.540	-0.380	-0.000	0.200
2020/01/31 20:44:53.8	7.540	-0.400	-0.040	0.170
2020/01/31 20:44:53.9	7.550	-0.420	-0.090	0.140
2020/01/31 20:44:54.0	7.560	-0.430	-0.130	0.100
2020/01/31 20:44:54.1	7.570	-0.450	-0.170	0.060
2020/01/31 20:44:54.2	7.580	-0.460	-0.220	0.020
2020/01/31 20:44:54.3	7.590	-0.470	-0.270	-0.020
2020/01/31 20:44:54.4	7.600	-0.470	-0.310	-0.050
2020/01/31 20:44:54.5	7.620	-0.470	-0.350	-0.090
2020/01/31 20:44:54.6	7.630	-0.470	-0.390	-0.130
2020/01/31 20:44:54.7	7.640	-0.470	-0.430	-0.170
2020/01/31 20:44:54.8	7.660	-0.460	-0.460	-0.200
2020/01/31 20:44:54.9	7.670	-0.450	-0.490	-0.240
2020/01/31 20:44:55.0	7.680	-0.430	-0.520	-0.270
2020/01/31 20:44:55.1	7.690	-0.420	-0.540	-0.300
2020/01/31 20:44:55.2	7.700	-0.400	-0.550	-0.320
2020/01/31 20:44:55.3	7.710	-0.380	-0.570	-0.340
2020/01/31 20:44:55.4	7.720	-0.350	-0.570	-0.360
2020/01/31 20:44:55.5	7.730	-0.320	-0.580	-0.370
2020/01/31 20:44:55.6	7.740	-0.290	-0.580	-0.370
2020/01/31 20:44:55.7	7.750	-0.260	-0.570	-0.380
2020/01/31 20:44:55.8	7.750	-0.230	-0.570	-0.370
2020/01/31 20:44:55.9	7.750	-0.200	-0.560	-0.370
2020/01/31 20:44:56.0	7.750	-0.160	-0.540	-0.360
2020/01/31 20:44:56.1	7.750	-0.130	-0.530	-0.340
2020/01/31 20:44:56.2	7.750	-0.090	-0.510	-0.330
2020/01/31 20:44:56.3	7.750	-0.050	-0.490	-0.310
2020/01/31 20:44:56.4	7.750	-0.020	-0.470	-0.290
2020/01/31 20:44:56.5	7.740	0.020	-0.460	-0.270
2020/01/31 20:44:56.6	7.730	0.050	-0.440	-0.250
2020/01/31 20:44:56.7	7.730	0.090	-0.420	-0.230
2020/01/31 20:44:56.8	7.720	0.120	-0.400	-0.210
2020/01/31 20:44:56.9	7.710	0.150	-0.390	-0.190
2020/01/31 20:44:57.0	7.690	0.190	-0.380	-0.170
2020/01/31 20:44:57.1	7.680	0.220	-0.370	-0.150
2020/01/31 20:44:57.2	7.670	0.240	-0.360	-0.130
2020/01/31 20:44:57.3	7.670	0.270	-0.350	-0.110
2020/01/31 20:44:57.4	7.650	0.290	-0.340	-0.090
2020/01/31 20:44:57.5	7.640	0.320	-0.340	-0.070
2020/01/31 20:44:57.6	7.630	0.340	-0.330	-0.050
2020/01/31 20:44:57.7	7.620	0.360	-0.330	-0.030
2020/01/31 20:44:57.8	7.610	0.370	-0.340	-0.010
2020/01/31 20:44:57.9	7.590	0.390	-0.340	0.000
2020/01/31 20:44:58.0	7.590	0.400	-0.340	0.020
2020/01/31 20:44:58.1	7.570	0.410	-0.350	0.030
2020/01/31 20:44:58.2	7.560	0.420	-0.360	0.050
2020/01/31 20:44:58.3	7.550	0.430	-0.370	0.060
2020/01/31 20:44:58.4	7.540	0.430	-0.380	0.060
2020/01/31 20:44:58.5	7.530	0.440	-0.400	0.070
2020/01/31 20:44:58.6	7.520	0.440	-0.410	0.080
2020/01/31 20:44:58.7	7.520	0.440	-0.430	0.080
2020/01/31 20:44:58.8	7.510	0.440	-0.440	0.080
2020/01/31 20:44:58.9	7.500	0.430	-0.460	0.080
2020/01/31 20:44:59.0	7.500	0.430	-0.480	0.080
2020/01/31 20:44:59.1	7.500	0.420	-0.500	0.080
2020/01/31 20:44:59.2	7.500	0.420	-0.510	0.080
2020/01/31 20:44:59.3	7.500	0.410	-0.520	0.070
2020/01/31 20:44:59.4	7.500	0.400	-0.530	0.070
2020/01/31 20:44:59.5	7.510	0.400	-0.540	0.060
2020/01/31 20:44:59.6	7.510	0.390	-0.550	0.050
2020/01/31 20:44:59.7	7.520	0.380	-0.550	0.040
2020/01/31 20:44:59.8	7.530	0.370	-0.560	0.040
2020/01/31 20:44:59.9	7.540	0.360	-0.560	0.030
2020/01/31 20:45:00.0	7.550	0.350	-0.550	0.020
2020/01/31 20:45:00.1	7.570	0.340	-0.550	0.000
2020/01/31 20:45:00.2	7.580	0.330	-0.540	-0.010
2020/01/31 20:45:00.3	7.590	0.320	-0.530	-0.020
2020/01/31 20:45:00.4	7.610	0.320	-0.520	-0.030
2020/01/31 20:45:00.5	7.620	0.310	-0.510	-0.040
2020/01/31 20:45:00.6	7.640	0.300	-0.500	-0.050
2020/01/31 20:45:00.7	7.660	0.300	-0.480	-0.070
2020/01/31 20:45:00.8	7.670	0.290	-0.460	-0.080
2020/01/31 20:45:00.9	7.690	0.290	-0.440	-0.090
2020/01/31 20:45:01.0	7.720	0.290	-0.410	-0.100
2020/01/31 20:45:01.1	7.740	0.280	-0.390	-0.110
2020/01/31 20:45:01.2	7.760	0.280	-0.360	-0.120
2020/01/31 20:45:01.3	7.790	0.280	-0.330	-0.130
2020/01/31 20:45:01.4	7.810	0.280	-0.300	-0.130
2020/01/31 20:45:01.5	7.830	0.280	-0.270	-0.140
2020/01/31 20:45:01.6	7.850	0.270	-0.230	-0.150
2020/01/31 20:45:01.7	7.870	0.270	-0.200	-0.150
2020/01/31 20:45:01.8	7.890	0.270	-0.170	-0.160
2020/01/31 20:45:01.9	7.910	0.260	-0.130	-0.170
2020/01/31 20:45:02.0	7.930	0.250	-0.100	-0.170
2020/01/31 20:45:02.1	7.950	0.250	-0.060	-0.170
2020/01/31 20:45:02.2	7.960	0.240	-0.030	-0.170
2020/01/31 20:45:02.3	7.970	0.220	0.010	-0.180
2020/01/31 20:45:02.4	7.980	0.210	0.040	-0.180
2020/01/31 20:45:02.5	7.990	0.190	0.070	-0.180
2020/01/31 20:45:02.6	7.990	0.170	0.110	-0.180
2020/01/31 20:45:02.7	7.990	0.150	0.140	-0.180
2020/01/31 20:45:02.8	7.990	0.120	0.170	-0.180
2020/01/31 20:45:02.9	7.980	0.090	0.200	-0.180
2020/01/31 20:45:03.0	7.960	0.060	0.220	-0.180
2020/01/31 20:45:03.1	7.950	0.020	0.250	-0.190
2020/01/31 20:45:03.2	7.930	-0.010	0.280	-0.190
2020/01/31 20:45:03.3	7.920	-0.060	0.300	-0.190
2020/01/31 20:45:03.4	7.900	-0.100	0.320	-0.200
2020/01/31 20:45:03.5	7.880	-0.140	0.340	-0.210
2020/01/31 20:45:03.6	7.850	-0.190	0.360	-0.220
2020/01/31 20:45:03.7	7.830	-0.240	0.370	-0.230
2020/01/31 20:45:03.8	7.800	-0.290	0.380	-0.240
2020/01/31 20:45:03.9	7.780	-0.340	0.390	-0.260
2020/01/31 20:45:04.0	7.750	-0.400	0.390	-0.280
2020/01/31 20:45:04.1	7.720	-0.450	0.390	-0.300
2020/01/31 20:45:04.2	7.700	-0.500	0.390	-0.320
2020/01/31 20:45:04.3	7.680	-0.550	0.380	-0.340
2020/01/31 20:45:04.4	7.660	-0.600	0.370	-0.370
2020/01/31 20:45:04.5	7.630	-0.650	0.360	-0.390
2020/01/31 20:45:04.6	7.620	-0.690	0.340	-0.420
2020/01/31 20:45:04.7	7.600	-0.740	0.320	-0.450
2020/01/31 20:45:04.8	7.590	-0.780	0.290	-0.480
2020/01/31 20:45:04.9	7.570	-0.810	0.260	-0.510
2020/01/31 20:45:05.0	7.560	-0.840	0.230	-0.540
2020/01/31 20:45:05.1	7.550	-0.870	0.190	-0.580
2020/01/31 20:45:05.2	7.550	-0.890	0.150	-0.610
2020/01/31 20:45:05.3	7.540	-0.910	0.110	-0.640
2020/01/31 20:45:05.4	7.540	-0.920	0.060	-0.670
2020/01/31 20:45:05.5	7.540	-0.920	0.010	-0.700
2020/01/31 20:45:05.6	7.540	-0.920	-0.050	-0.730
2020/01/31 20:45:05.7	7.550	-0.920	-0.100	-0.750
2020/01/31 20:45:05.8	7.550	-0.900	-0.160	-0.780
2020/01/31 20:45:05.9	7.550	-0.890	-0.220	-0.800
2020/01/31 20:45:06.0	7.540	-0.860	-0.280	-0.820
2020/01/31 20:45:06.1	7.550	-0.830	-0.330	-0.830
2020/01/31 20:45:06.2	7.560	-0.800	-0.390	-0.850
2020/01/31 20:45:06.3	7.560	-0.760	-0.450	-0.850
2020/01/31 20:45:06.4	7.570	-0.720	-0.500	-0.860
2020/01/31 20:45:06.5	7.570	-0.670	-0.550	-0.860
2020/01/31 20:45:06.6	7.580	-0.620	-0.600	-0.860
2020/01/31 20:45:06.7	7.590	-0.560	-0.650	-0.850
2020/01/31 20:45:06.8	7.590	-0.510	-0.690	-0.840
2020/01/31 20:45:06.9	7.600	-0.450	-0.730	-0.820
2020/01/31 20:45:07.0	7.600	-0.390	-0.760	-0.800
2020/01/31 20:45:07.1	7.610	-0.320	-0.790	-0.780
2020/01/31 20:45:07.2	7.610	-0.260	-0.820	-0.750
2020/01/31 20:45:07.3	7.620	-0.200	-0.840	-0.730
2020/01/31 20:45:07.4	7.620	-0.130	-0.860	-0.690
2020/01/31 20:45:07.5	7.630	-0.070	-0.870	-0.660
2020/01/31 20:45:07.6	7.630	-0.010	-0.880	-0.620
2020/01/31 20:45:07.7	7.630	0.050	-0.880	-0.580
2020/01/31 20:45:07.8	7.630	0.110	-0.880	-0.540
2020/01/31 20:45:07.9	7.640	0.160	-0.880	-0.500
2020/01/31 20:45:08.0	7.650	0.220	-0.880	-0.450
2020/01/31 20:45:08.1	7.650	0.270	-0.870	-0.410
2020/01/31 20:45:08.2	7.650	0.310	-0.850	-0.360
2020/01/31 20:45:08.3	7.650	0.360	-0.840	-0.310
2020/01/31 20:45:08.4	7.650	0.400	-0.820	-0.260
2020/01/31 20:45:08.5	7.660	0.430	-0.800	-0.210
2020/01/31 20:45:08.6	7.660	0.470	-0.780	-0.160
2020/01/31 20:45:08.7	7.660	0.490	-0.750	-0.110
2020/01/31 20:45:08.8	7.660	0.520	-0.730	-0.060
2020/01/31 20:45:08.9	7.660	0.540	-0.700	-0.010
2020/01/31 20:45:09.0	7.680	0.560	-0.680	0.040
2020/01/31 20:45:09.1	7.680	0.570	-0.650	0.080
2020/01/31 20:45:09.2	7.680	0.580	-0.620	0.130
2020/01/31 20:45:09.3	7.690	0.590	-0.590	0.170
2020/01/31 20:45:09.4	7.690	0.590	-0.560	0.210
2020/01/31 20:45:09.5	7.690	0.590	-0.520	0.240
2020/01/31 20:45:09.6	7.690	0.580	-0.490	0.280
2020/01/31 20:45:09.7	7.690	0.570	-0.460	0.310
2020/01/31 20:45:09.8	7.690	0.560	-0.430	0.340
2020/01/31 20:45:09.9	7.690	0.550	-0.390	0.360
2020/01/31 20:45:10.0	7.690	0.540	-0.360	0.390
2020/01/31 20:45:10.1	7.680	0.520	-0.330	0.410
2020/01/31 20:45:10.2	7.670	0.500	-0.300	0.430
2020/01/31 20:45:10.3	7.670	0.480	-0.260	0.450
2020/01/31 20:45:10.4	7.660	0.460	-0.230	0.470
2020/01/31 20:45:10.5	7.650	0.440	-0.200	0.480
2020/01/31 20:45:10.6	7.640	0.420	-0.170	0.490
2020/01/31 20:45:10.7	7.620	0.400	-0.140	0.500
2020/01/31 20:45:10.8	7.610	0.380	-0.110	0.510
2020/01/31 20:45:10.9	7.600	0.360	-0.080	0.510
2020/01/31 20:45:11.0	7.590	0.340	-0.060	0.510
2020/01/31 20:45:11.1	7.580	0.320	-0.030	0.510
2020/01/31 20:45:11.2	7.570	0.300	-0.010	0.500
2020/01/31 20:45:11.3	7.560	0.280	0.010	0.500
2020/01/31 20:45:11.4	7.560	0.260	0.030	0.490
2020/01/31 20:45:11.5	7.550	0.250	0.040	0.480
2020/01/31 20:45:11.6	7.550	0.240	0.060	0.460
2020/01/31 20:45:11.7	7.540	0.230	0.070	0.450
2020/01/31 20:45:11.8	7.540	0.210	0.080	0.430
2020/01/31 20:45:11.9	7.540	0.200	0.080	0.410
2020/01/31 20:45:12.0	7.540	0.200	0.090	0.390
2020/01/31 20:45:12.1	7.540	0.190	0.090	0.370
2020/01/31 20:45:12.2	7.550	0.180	0.100	0.350
2020/01/31 20:45:12.3	7.550	0.180	0.100	0.320
2020/01/31 20:45:12.4	7.550	0.170	0.090	0.290
2020/01/31 20:45:12.5	7.550	0.170	0.090	0.270
2020/01/31 20:45:12.6	7.550	0.160	0.090	0.240
2020/01/31 20:45:12.7	7.560	0.160	0.080	0.200
2020/01/31 20:45:12.8	7.560	0.150	0.080	0.170
2020/01/31 20:45:12.9	7.560	0.140	0.070	0.140
2020/01/31 20:45:13.0	7.570	0.140	0.060	0.100
2020/01/31 20:45:13.1	7.570	0.130	0.060	0.070
2020/01/31 20:45:13.2	7.570	0.120	0.050	0.030
2020/01/31 20:45:13.3	7.580	0.110	0.040	-0.000
2020/01/31 20:45:13.4	7.580	0.100	0.040	-0.040
2020/01/31 20:45:13.5	7.580	0.090	0.030	-0.070
2020/01/31 20:45:13.6	7.580	0.080	0.020	-0.110
2020/01/31 20:45:13.7	7.580	0.070	0.020	-0.140
2020/01/31 20:45:13.8	7.590	0.060	0.010	-0.170
2020/01/31 20:45:13.9	7.590	0.040	0.000	-0.200
2020/01/31 20:45:14.0	7.580	0.030	-0.010	-0.240
2020/01/31 20:45:14.1	7.580	0.010	-0.010	-0.270
2020/01/31 20:45:14.2	7.580	-0.010	-0.020	-0.290
2020/01/31 20:45:14.3	7.580	-0.020	-0.030	-0.310
2020/01/31 20:45:14.4	7.580	-0.040	-0.040	-0.330
2020/01/31 20:45:14.5	7.580	-0.060	-0.040	-0.350
2020/01/31 20:45:14.6	7.590	-0.080	-0.050	-0.370
2020/01/31 20:45:14.7	7.590	-0.090	-0.060	-0.380
2020/01/31 20:45:14.8	7.590	-0.110	-0.070	-0.390
2020/01/31 20:45:14.9	7.590	-0.130	-0.080	-0.400
2020/01/31 20:45:15.0	7.590	-0.140	-0.090	-0.410
2020/01/31 20:45:15.1	7.590	-0.160	-0.100	-0.410
2020/01/31 20:45:15.2	7.600	-0.170	-0.110	-0.420
2020/01/31 20:45:15.3	7.600	-0.180	-0.120	-0.420
2020/01/31 20:45:15.4	7.600	-0.200	-0.140	-0.410
2020/01/31 20:45:15.5	7.610	-0.210	-0.160	-0.410
2020/01/31 20:45:15.6	7.610	-0.210	-0.180	-0.410
2020/01/31 20:45:15.7	7.620	-0.220	-0.200	-0.410
2020/01/31 20:45:15.8	7.620	-0.230	-0.220	-0.400
2020/01/31 20:45:15.9	7.630	-0.230	-0.250	-0.400
2020/01/31 20:45:16.0	7.620	-0.230	-0.280	-0.400
2020/01/31 20:45:16.1	7.630	-0.230	-0.310	-0.390
2020/01/31 20:45:16.2	7.630	-0.230	-0.340	-0.390
2020/01/31 20:45:16.3	7.640	-0.230	-0.380	-0.380
2020/01/31 20:45:16.4	7.650	-0.220	-0.410	-0.380
2020/01/31 20:45:16.5	7.660	-0.220	-0.450	-0.380
2020/01/31 20:45:16.6	7.670	-0.210	-0.480	-0.370
2020/01/31 20:45:16.7	7.680	-0.200	-0.520	-0.370
2020/01/31 20:45:16.8	7.680	-0.190	-0.550	-0.370
2020/01/31 20:45:16.9	7.700	-0.190	-0.590	-0.360
2020/01/31 20:45:17.0	7.700	-0.180	-0.620	-0.360
2020/01/31 20:45:17.1	7.710	-0.170	-0.650	-0.360
2020/01/31 20:45:17.2	7.730	-0.160	-0.680	-0.360
2020/01/31 20:45:17.3	7.740	-0.150	-0.710	-0.360
2020/01/31 20:45:17.4	7.750	-0.140	-0.730	-0.360
2020/01/31 20:45:17.5	7.760	-0.130	-0.750	-0.360
2020/01/31 20:45:17.6	7.780	-0.120	-0.770	-0.360
2020/01/31 20:45:17.7	7.790	-0.110	-0.790	-0.360
2020/01/31 20:45:17.8	7.810	-0.110	-0.800	-0.360
2020/01/31 20:45:17.9	7.820	-0.100	-0.800	-0.360
2020/01/31 20:45:18.0	7.840	-0.100	-0.800	-0.360
2020/01/31 20:45:18.1	7.860	-0.100	-0.800	-0.360
2020/01/31 20:45:18.2	7.870	-0.100	-0.790	-0.360
2020/01/31 20:45:18.3	7.890	-0.100	-0.770	-0.360
2020/01/31 20:45:18.4	7.900	-0.100	-0.750	-0.360
2020/01/31 20:45:18.5	7.910	-0.100	-0.720	-0.360
2020/01/31 20:45:18.6	7.920	-0.110	-0.690	-0.360
2020/01/31 20:45:18.7	7.920	-0.120	-0.650	-0.360
2020/01/31 20:45:18.8	7.930	-0.130	-0.610	-0.350
2020/01/31 20:45:18.9	7.930	-0.140	-0.560	-0.350
2020/01/31 20:45:19.0	7.940	-0.150	-0.510	-0.340
2020/01/31 20:45:19.1	7.940	-0.160	-0.460	-0.330
2020/01/31 20:45:19.2	7.930	-0.180	-0.400	-0.320
2020/01/31 20:45:19.3	7.930	-0.190	-0.340	-0.310
2020/01/31 20:45:19.4	7.920	-0.200	-0.280	-0.300
2020/01/31 20:45:19.5	7.920	-0.220	-0.210	-0.290
2020/01/31 20:45:19.6	7.910	-0.230	-0.150	-0.280
2020/01/31 20:45:19.7	7.900	-0.240	-0.080	-0.260
2020/01/31 20:45:19.8	7.890	-0.260	-0.020	-0.250
2020/01/31 20:45:19.9	7.890	-0.270	0.040	-0.230
2020/01/31 20:45:20.0	7.890	-0.280	0.100	-0.210
2020/01/31 20:45:20.1	7.880	-0.280	0.160	-0.200
2020/01/31 20:45:20.2	7.870	-0.290	0.210	-0.170
2020/01/31 20:45:20.3	7.860	-0.290	0.260	-0.150
2020/01/31 20:45:20.4	7.860	-0.290	0.300	-0.130
2020/01/31 20:45:20.5	7.850	-0.290	0.340	-0.100
2020/01/31 20:45:20.6	7.840	-0.280	0.370	-0.080
2020/01/31 20:45:20.7	7.840	-0.270	0.400	-0.050
2020/01/31 20:45:20.8	7.830	-0.260	0.420	-0.020
2020/01/31 20:45:20.9	7.830	-0.250	0.430	0.010
2020/01/31 20:45:21.0	7.830	-0.230	0.440	0.040
2020/01/31 20:45:21.1	7.830	-0.210	0.440	0.070
2020/01/31 20:45:21.2	7.820	-0.190	0.430	0.100
2020/01/31 20:45:21.3	7.820	-0.160	0.420	0.130
2020/01/31 20:45:21.4	7.810	-0.140	0.400	0.160
2020/01/31 20:45:21.5	7.800	-0.110	0.370	0.190
2020/01/31 20:45:21.6	7.790	-0.080	0.340	0.220
2020/01/31 20:45:21.7	7.780	-0.050	0.310	0.250
2020/01/31 20:45:21.8	7.770	-0.020	0.260	0.280
2020/01/31 20:45:21.9	7.750	0.010	0.220	0.310
2020/01/31 20:45:22.0	7.740	0.040	0.170	0.330
2020/01/31 20:45:22.1	7.730	0.070	0.120	0.350
2020/01/31 20:45:22.2	7.710	0.100	0.060	0.370
2020/01/31 20:45:22.3	7.690	0.120	0.000	0.390
2020/01/31 20:45:22.4	7.670	0.150	-0.050	0.410
2020/01/31 20:45:22.5	7.650	0.170	-0.110	0.430
2020/01/31 20:45:22.6	7.620	0.200	-0.170	0.440
2020/01/31 20:45:22.7	7.600	0.220	-0.230	0.450
2020/01/31 20:45:22.8	7.570	0.240	-0.290	0.460
2020/01/31 20:45:22.9	7.550	0.250	-0.340	0.470
2020/01/31 20:45:23.0	7.530	0.270	-0.400	0.480
2020/01/31 20:45:23.1	7.500	0.280	-0.440	0.490
2020/01/31 20:45:23.2	7.470	0.290	-0.490	0.490
2020/01/31 20:45:23.3	7.440	0.290	-0.530	0.500
2020/01/31 20:45:23.4	7.410	0.300	-0.570	0.500
2020/01/31 20:45:23.5	7.380	0.300	-0.600	0.510
2020/01/31 20:45:23.6	7.350	0.300	-0.630	0.510
2020/01/31 20:45:23.7	7.330	0.300	-0.660	0.510
2020/01/31 20:45:23.8	7.300	0.290	-0.680	0.500
2020/01/31 20:45:23.9	7.270	0.290	-0.700	0.500
2020/01/31 20:45:24.0	7.260	0.280	-0.710	0.490
2020/01/31 20:45:24.1	7.230	0.270	-0.720	0.480
2020/01/31 20:45:24.2	7.210	0.260	-0.720	0.470
2020/01/31 20:45:24.3	7.190	0.240	-0.720	0.450
2020/01/31 20:45:24.4	7.180	0.230	-0.720	0.430
2020/01/31 20:45:24.5	7.160	0.220	-0.720	0.410
2020/01/31 20:45:24.6	7.150	0.200	-0.710	0.380
2020/01/31 20:45:24.7	7.140	0.190	-0.710	0.350
2020/01/31 20:45:24.8	7.140	0.180	-0.700	0.320
2020/01/31 20:45:24.9	7.140	0.160	-0.690	0.280
2020/01/31 20:45:25.0	7.140	0.150	-0.680	0.230
2020/01/31 20:45:25.1	7.150	0.140	-0.670	0.190
2020/01/31 20:45:25.2	7.160	0.130	-0.660	0.140
2020/01/31 20:45:25.3	7.170	0.120	-0.650	0.090
2020/01/31 20:45:25.4	7.190	0.110	-0.640	0.030
2020/01/31 20:45:25.5	7.210	0.110	-0.630	-0.030
2020/01/31 20:45:25.6	7.240	0.100	-0.620	-0.090
2020/01/31 20:45:25.7	7.260	0.100	-0.610	-0.150
2020/01/31 20:45:25.8	7.300	0.100	-0.600	-0.210
2020/01/31 20:45:25.9	7.330	0.100	-0.590	-0.270
2020/01/31 20:45:26.0	7.370	0.100	-0.580	-0.330
2020/01/31 20:45:26.1	7.410	0.110	-0.570	-0.390
2020/01/31 20:45:26.2	7.460	0.110	-0.560	-0.450
2020/01/31 20:45:26.3	7.500	0.120	-0.550	-0.510
2020/01/31 20:45:26.4	7.540	0.130	-0.540	-0.560
2020/01/31 20:45:26.5	7.580	0.140	-0.520	-0.610
2020/01/31 20:45:26.6	7.630	0.150	-0.510	-0.660
2020/01/31 20:45:26.7	7.670	0.160	-0.490	-0.700
2020/01/31 20:45:26.8	7.710	0.170	-0.470	-0.740
2020/01/31 20:45:26.9	7.750	0.180	-0.460	-0.770
2020/01/31 20:45:27.0	7.770	0.190	-0.430	-0.800
2020/01/31 20:45:27.1	7.810	0.200	-0.410	-0.830
2020/01/31 20:45:27.2	7.840	0.210	-0.390	-0.850
2020/01/31 20:45:27.3	7.880	0.220	-0.360	-0.860
2020/01/31 20:45:27.4	7.910	0.230	-0.330	-0.870
2020/01/31 20:45:27.5	7.940	0.230	-0.300	-0.870
2020/01/31 20:45:27.6	7.970	0.240	-0.270	-0.870
2020/01/31 20:45:27.7	7.990	0.240	-0.240	-0.870
2020/01/31 20:45:27.8	8.020	0.240	-0.210	-0.860
2020/01/31 20:45:27.9	8.040	0.240	-0.180	-0.850
2020/01/31 20:45:28.0	8.050	0.240	-0.150	-0.830
2020/01/31 20:45:28.1	8.060	0.240	-0.120	-0.810
2020/01/31 20:45:28.2	8.080	0.230	-0.080	-0.790
2020/01/31 20:45:28.3	8.090	0.220	-0.050	-0.760
2020/01/31 20:45:28.4	8.100	0.210	-0.020	-0.730
2020/01/31 20:45:28.5	8.100	0.200	0.010	-0.700
2020/01/31 20:45:28.6	8.110	0.190	0.040	-0.670
2020/01/31 20:45:28.7	8.110	0.170	0.060	-0.640
2020/01/31 20:45:28.8	8.110	0.150	0.090	-0.600
2020/01/31 20:45:28.9	8.110	0.130	0.110	-0.560
2020/01/31 20:45:29.0	8.090	0.110	0.130	-0.530
2020/01/31 20:45:29.1	8.090	0.090	0.150	-0.490
2020/01/31 20:45:29.2	8.080	0.070	0.170	-0.450
2020/01/31 20:45:29.3	8.070	0.040	0.180	-0.410
2020/01/31 20:45:29.4	8.060	0.010	0.190	-0.370
2020/01/31 20:45:29.5	8.040	-0.010	0.200	-0.340
2020/01/31 20:45:29.6	8.030	-0.040	0.200	-0.300
2020/01/31 20:45:29.7	8.010	-0.070	0.200	-0.260
2020/01/31 20:45:29.8	7.990	-0.100	0.200	-0.230
2020/01/31 20:45:29.9	7.970	-0.130	0.200	-0.190
2020/01/31 20:45:30.0	7.930	-0.160	0.200	-0.160
2020/01/31 20:45:30.1	7.900	-0.190	0.190	-0.130
2020/01/31 20:45:30.2	7.880	-0.220	0.190	-0.090
2020/01/31 20:45:30.3	7.850	-0.250	0.180	-0.060
2020/01/31 20:45:30.4	7.810	-0.280	0.170	-0.040
2020/01/31 20:45:30.5	7.780	-0.310	0.160	-0.010
2020/01/31 20:45:30.6	7.750	-0.340	0.150	0.020
2020/01/31 20:45:30.7	7.710	-0.360	0.140	0.040
2020/01/31 20:45:30.8	7.670	-0.390	0.130	0.060
2020/01/31 20:45:30.9	7.630	-0.420	0.120	0.090
2020/01/31 20:45:31.0	7.590	-0.450	0.110	0.110
2020/01/31 20:45:31.1	7.540	-0.470	0.100	0.130
2020/01/31 20:45:31.2	7.500	-0.500	0.090	0.150
2020/01/31 20:45:31.3	7.450	-0.520	0.080	0.170
2020/01/31 20:45:31.4	7.410	-0.540	0.070	0.180
2020/01/31 20:45:31.5	7.360	-0.560	0.060	0.200
2020/01/31 20:45:31.6	7.310	-0.580	0.050	0.220
2020/01/31 20:45:31.7	7.260	-0.590	0.040	0.240
2020/01/31 20:45:31.8	7.220	-0.600	0.030	0.250
2020/01/31 20:45:31.9	7.170	-0.610	0.020	0.260
2020/01/31 20:45:32.0	7.130	-0.620	0.010	0.280
2020/01/31 20:45:32.1	7.090	-0.620	0.000	0.280
2020/01/31 20:45:32.2	7.050	-0.630	-0.010	0.290
2020/01/31 20:45:32.3	7.010	-0.620	-0.020	0.300
2020/01/31 20:45:32.4	6.970	-0.620	-0.030	0.300
2020/01/31 20:45:32.5	6.940	-0.610	-0.050	0.290
2020/01/31 20:45:32.6	6.910	-0.600	-0.060	0.280
2020/01/31 20:45:32.7	6.880	-0.590	-0.080	0.270
2020/01/31 20:45:32.8	6.860	-0.570	-0.100	0.260
2020/01/31 20:45:32.9	6.850	-0.550	-0.130	0.240
2020/01/31 20:45:33.0	6.830	-0.530	-0.150	0.220
2020/01/31 20:45:33.1	6.820	-0.500	-0.180	0.190
2020/01/31 20:45:33.2	6.820	-0.470	-0.210	0.160
2020/01/31 20:45:33.3	6.820	-0.430	-0.240	0.130
2020/01/31 20:45:33.4	6.830	-0.400	-0.270	0.100
2020/01/31 20:45:33.5	6.840	-0.350	-0.310	0.070
2020/01/31 20:45:33.6	6.850	-0.310	-0.340	0.040
2020/01/31 20:45:33.7	6.870	-0.270	-0.380	0.010
2020/01/31 20:45:33.8	6.890	-0.220	-0.410	-0.020
2020/01/31 20:45:33.9	6.910	-0.170	-0.450	-0.050
2020/01/31 20:45:34.0	6.940	-0.120	-0.490	-0.080
2020/01/31 20:45:34.1	6.970	-0.070	-0.520	-0.110
2020/01/31 20:45:34.2	7.000	-0.020	-0.550	-0.130
2020/01/31 20:45:34.3	7.030	0.030	-0.580	-0.160
2020/01/31 20:45:34.4	7.050	0.070	-0.610	-0.170
2020/01/31 20:45:34.5	7.080	0.120	-0.640	-0.190
2020/01/31 20:45:34.6	7.110	0.170	-0.660	-0.200
2020/01/31 20:45:34.7	7.140	0.210	-0.680	-0.210
2020/01/31 20:45:34.8	7.170	0.260	-0.700	-0.220
2020/01/31 20:45:34.9	7.200	0.300	-0.720	-0.220
2020/01/31 20:45:35.0	7.220	0.340	-0.730	-0.220
2020/01/31 20:45:35.1	7.250	0.370	-0.740	-0.220
2020/01/31 20:45:35.2	7.270	0.400	-0.750	-0.210
2020/01/31 20:45:35.3	7.290	0.430	-0.750	-0.200
2020/01/31 20:45:35.4	7.310	0.460	-0.750	-0.190
2020/01/31 20:45:35.5	7.330	0.480	-0.750	-0.180
2020/01/31 20:45:35.6	7.350	0.500	-0.750	-0.160
2020/01/31 20:45:35.7	7.370	0.520	-0.740	-0.140
2020/01/31 20:45:35.8	7.380	0.530	-0.730	-0.120
2020/01/31 20:45:35.9	7.400	0.540	-0.720	-0.100
2020/01/31 20:45:36.0	7.410	0.550	-0.700	-0.070
2020/01/31 20:45:36.1	7.420	0.550	-0.690	-0.050
2020/01/31 20:45:36.2	7.430	0.550	-0.670	-0.020
2020/01/31 20:45:36.3	7.430	0.550	-0.660	0.010
2020/01/31 20:45:36.4	7.440	0.540	-0.640	0.040
2020/01/31 20:45:36.5	7.440	0.540	-0.620	0.070
2020/01/31 20:45:36.6	7.440	0.530	-0.600	0.090
2020/01/31 20:45:36.7	7.440	0.510	-0.590	0.120
2020/01/31 20:45:36.8	7.440	0.500	-0.570	0.150
2020/01/31 20:45:36.9	7.430	0.480	-0.550	0.180
2020/01/31 20:45:37.0	7.420	0.460	-0.530	0.210
2020/01/31 20:45:37.1	7.410	0.440	-0.510	0.230
2020/01/31 20:45:37.2	7.400	0.420	-0.490	0.260
2020/01/31 20:45:37.3	7.390	0.390	-0.470	0.280
2020/01/31 20:45:37.4	7.380	0.370	-0.450	0.300
2020/01/31 20:45:37.5	7.360	0.340	-0.430	0.320
2020/01/31 20:45:37.6	7.350	0.310	-0.400	0.340
2020/01/31 20:45:37.7	7.330	0.290	-0.380	0.360
2020/01/31 20:45:37.8	7.310	0.260	-0.360	0.370
2020/01/31 20:45:37.9	7.300	0.230	-0.340	0.380
2020/01/31 20:45:38.0	7.290	0.200	-0.320	0.380
2020/01/31 20:45:38.1	7.270	0.170	-0.290	0.380
2020/01/31 20:45:38.2	7.260	0.140	-0.270	0.380
2020/01/31 20:45:38.3	7.250	0.110	-0.250	0.380
2020/01/31 20:45:38.4	7.230	0.080	-0.230	0.370
2020/01/31 20:45:38.5	7.220	0.050	-0.210	0.350
2020/01/31 20:45:38.6	7.210	0.020	-0.180	0.340
2020/01/31 20:45:38.7	7.210	-0.010	-0.160	0.310
2020/01/31 20:45:38.8	7.200	-0.030	-0.140	0.290
2020/01/31 20:45:38.9	7.190	-0.060	-0.120	0.260
2020/01/31 20:45:39.0	7.180	-0.090	-0.100	0.220
2020/01/31 20:45:39.1	7.180	-0.110	-0.070	0.190
2020/01/31 20:45:39.2	7.180	-0.140	-0.050	0.150
2020/01/31 20:45:39.3	7.180	-0.160	-0.030	0.110
2020/01/31 20:45:39.4	7.180	-0.180	-0.010	0.060
2020/01/31 20:45:39.5	7.180	-0.200	0.010	0.020
2020/01/31 20:45:39.6	7.190	-0.220	0.040	-0.020
2020/01/31 20:45:39.7	7.190	-0.240	0.060	-0.070
2020/01/31 20:45:39.8	7.200	-0.260	0.080	-0.110
2020/01/31 20:45:39.9	7.200	-0.280	0.100	-0.160
2020/01/31 20:45:40.0	7.220	-0.290	0.120	-0.210
2020/01/31 20:45:40.1	7.220	-0.300	0.140	-0.250
2020/01/31 20:45:40.2	7.230	-0.310	0.160	-0.290
2020/01/31 20:45:40.3	7.230	-0.320	0.170	-0.320
2020/01/31 20:45:40.4	7.240	-0.330	0.190	-0.350
2020/01/31 20:45:40.5	7.240	-0.330	0.210	-0.380
2020/01/31 20:45:40.6	7.240	-0.330	0.220	-0.410
2020/01/31 20:45:40.7	7.250	-0.330	0.230	-0.430
2020/01/31 20:45:40.8	7.250	-0.330	0.240	-0.440
2020/01/31 20:45:40.9	7.250	-0.330	0.250	-0.450
2020/01/31 20:45:41.0	7.240	-0.320	0.260	-0.450
2020/01/31 20:45:41.1	7.240	-0.310	0.260	-0.450
2020/01/31 20:45:41.2	7.240	-0.300	0.260	-0.450
2020/01/31 20:45:41.3	7.230	-0.290	0.260	-0.440
2020/01/31 20:45:41.4	7.230	-0.270	0.260	-0.420
2020/01/31 20:45:41.5	7.220	-0.260	0.250	-0.400
2020/01/31 20:45:41.6	7.210	-0.240	0.230	-0.380
2020/01/31 20:45:41.7	7.210	-0.220	0.220	-0.350
2020/01/31 20:45:41.8	7.200	-0.200	0.190	-0.320
2020/01/31 20:45:41.9	7.190	-0.180	0.170	-0.290
2020/01/31 20:45:42.0	7.160	-0.150	0.130	-0.260
2020/01/31 20:45:42.1	7.150	-0.130	0.090	-0.230
2020/01/31 20:45:42.2	7.140	-0.100	0.050	-0.190
2020/01/31 20:45:42.3	7.130	-0.080	0.010	-0.160
2020/01/31 20:45:42.4	7.120	-0.050	-0.050	-0.130
2020/01/31 20:45:42.5	7.110	-0.020	-0.100	-0.090
2020/01/31 20:45:42.6	7.100	0.010	-0.160	-0.060
2020/01/31 20:45:42.7	7.100	0.040	-0.220	-0.040
2020/01/31 20:45:42.8	7.090	0.070	-0.280	-0.010
2020/01/31 20:45:42.9	7.080	0.100	-0.350	0.010
2020/01/31 20:45:43.0	7.100	0.130	-0.410	0.040
2020/01/31 20:45:43.1	7.100	0.160	-0.480	0.060
2020/01/31 20:45:43.2	7.100	0.190	-0.550	0.080
2020/01/31 20:45:43.3	7.100	0.210	-0.620	0.090
2020/01/31 20:45:43.4	7.100	0.240	-0.690	0.100
2020/01/31 20:45:43.5	7.100	0.270	-0.750	0.100
2020/01/31 20:45:43.6	7.110	0.290	-0.810	0.110
2020/01/31 20:45:43.7	7.120	0.310	-0.870	0.110
2020/01/31 20:45:43.8	7.120	0.330	-0.930	0.110
2020/01/31 20:45:43.9	7.130	0.350	-0.970	0.110
2020/01/31 20:45:44.0	7.150	0.370	-1.020	0.100
2020/01/31 20:45:44.1	7.160	0.380	-1.060	0.090
2020/01/31 20:45:44.2	7.170	0.390	-1.080	0.080
2020/01/31 20:45:44.3	7.190	0.400	-1.100	0.070
2020/01/31 20:45:44.4	7.200	0.400	-1.120	0.060
2020/01/31 20:45:44.5	7.210	0.400	-1.120	0.040
2020/01/31 20:45:44.6	7.230	0.400	-1.110	0.030
2020/01/31 20:45:44.7	7.240	0.390	-1.100	0.010
2020/01/31 20:45:44.8	7.250	0.380	-1.080	-0.000
2020/01/31 20:45:44.9	7.260	0.370	-1.040	-0.020
2020/01/31 20:45:45.0	7.270	0.350	-1.000	-0.040
2020/01/31 20:45:45.1	7.280	0.330	-0.950	-0.060
2020/01/31 20:45:45.2	7.280	0.300	-0.890	-0.080
2020/01/31 20:45:45.3	7.290	0.270	-0.830	-0.090
2020/01/31 20:45:45.4	7.300	0.240	-0.760	-0.110
2020/01/31 20:45:45.5	7.300	0.210	-0.680	-0.130
2020/01/31 20:45:45.6	7.310	0.170	-0.600	-0.150
2020/01/31 20:45:45.7	7.310	0.130	-0.510	-0.170
2020/01/31 20:45:45.8	7.310	0.080	-0.420	-0.190
2020/01/31 20:45:45.9	7.310	0.040	-0.330	-0.200
2020/01/31 20:45:46.0	7.320	-0.000	-0.250	-0.220
2020/01/31 20:45:46.1	7.320	-0.050	-0.150	-0.240
2020/01/31 20:45:46.2	7.330	-0.100	-0.060	-0.260
2020/01/31 20:45:46.3	7.330	-0.150	0.030	-0.270
2020/01/31 20:45:46.4	7.330	-0.190	0.120	-0.280
2020/01/31 20:45:46.5	7.330	-0.240	0.200	-0.300
2020/01/31 20:45:46.6	7.330	-0.280	0.290	-0.310
2020/01/31 20:45:46.7	7.330	-0.330	0.360	-0.320
2020/01/31 20:45:46.8	7.330	-0.370	0.430	-0.320
2020/01/31 20:45:46.9	7.330	-0.410	0.500	-0.330
2020/01/31 20:45:47.0	7.320	-0.440	0.550	-0.330
2020/01/31 20:45:47.1	7.320	-0.470	0.610	-0.330
2020/01/31 20:45:47.2	7.320	-0.500	0.650	-0.330
2020/01/31 20:45:47.3	7.320	-0.530	0.690	-0.320
2020/01/31 20:45:47.4	7.320	-0.550	0.720	-0.320
2020/01/31 20:45:47.5	7.320	-0.570	0.740	-0.310
2020/01/31 20:45:47.6	7.320	-0.580	0.750	-0.300
2020/01/31 20:45:47.7	7.320	-0.590	0.760	-0.290
2020/01/31 20:45:47.8	7.330	-0.590	0.760	-0.270
2020/01/31 20:45:47.9	7.330	-0.590	0.750	-0.260
2020/01/31 20:45:48.0	7.340	-0.590	0.730	-0.240
2020/01/31 20:45:48.1	7.340	-0.580	0.710	-0.230
2020/01/31 20:45:48.2	7.340	-0.570	0.680	-0.210
2020/01/31 20:45:48.3	7.350	-0.560	0.640	-0.200
2020/01/31 20:45:48.4	7.350	-0.540	0.600	-0.180
2020/01/31 20:45:48.5	7.350	-0.510	0.550	-0.160
2020/01/31 20:45:48.6	7.350	-0.490	0.500	-0.140
2020/01/31 20:45:48.7	7.340	-0.460	0.440	-0.120
2020/01/31 20:45:48.8	7.340	-0.430	0.380	-0.100
2020/01/31 20:45:48.9	7.330	-0.400	0.320	-0.070
2020/01/31 20:45:49.0	7.340	-0.360	0.250	-0.040
2020/01/31 20:45:49.1	7.330	-0.330	0.190	-0.020
2020/01/31 20:45:49.2	7.320	-0.290	0.120	0.010
2020/01/31 20:45:49.3	7.300	-0.250	0.060	0.040
2020/01/31 20:45:49.4	7.290	-0.210	-0.010	0.070
2020/01/31 20:45:49.5	7.270	-0.170	-0.070	0.100
2020/01/31 20:45:49.6	7.240	-0.130	-0.140	0.130
2020/01/31 20:45:49.7	7.220	-0.090	-0.200	0.160
2020/01/31 20:45:49.8	7.190	-0.060	-0.260	0.190
2020/01/31 20:45:49.9	7.160	-0.020	-0.310	0.230
2020/01/31 20:45:50.0	7.140	0.010	-0.370	0.260
2020/01/31 20:45:50.1	7.110	0.050	-0.420	0.290
2020/01/31 20:45:50.2	7.080	0.080	-0.460	0.310
2020/01/31 20:45:50.3	7.050	0.110	-0.510	0.340
2020/01/31 20:45:50.4	7.020	0.140	-0.550	0.360
2020/01/31 20:45:50.5	6.980	0.170	-0.580	0.390
2020/01/31 20:45:50.6	6.950	0.190	-0.620	0.410
2020/01/31 20:45:50.7	6.920	0.210	-0.650	0.420
2020/01/31 20:45:50.8	6.890	0.230	-0.680	0.440
2020/01/31 20:45:50.9	6.860	0.250	-0.700	0.450
2020/01/31 20:45:51.0	6.830	0.270	-0.720	0.460
2020/01/31 20:45:51.1	6.810	0.280	-0.740	0.470
2020/01/31 20:45:51.2	6.780	0.300	-0.760	0.470
2020/01/31 20:45:51.3	6.760	0.310	-0.780	0.480
2020/01/31 20:45:51.4	6.740	0.320	-0.790	0.470
2020/01/31 20:45:51.5	6.720	0.330	-0.810	0.470
2020/01/31 20:45:51.6	6.700	0.330	-0.820	0.460
2020/01/31 20:45:51.7	6.680	0.340	-0.830	0.450
2020/01/31 20:45:51.8	6.670	0.340	-0.840	0.430
2020/01/31 20:45:51.9	6.660	0.350	-0.850	0.420
2020/01/31 20:45:52.0	6.650	0.350	-0.860	0.390
2020/01/31 20:45:52.1	6.640	0.360	-0.860	0.370
2020/01/31 20:45:52.2	6.640	0.360	-0.870	0.340
2020/01/31 20:45:52.3	6.640	0.360	-0.880	0.310
2020/01/31 20:45:52.4	6.640	0.370	-0.880	0.280
2020/01/31 20:45:52.5	6.640	0.370	-0.890	0.250
2020/01/31 20:45:52.6	6.640	0.380	-0.890	0.210
2020/01/31 20:45:52.7	6.650	0.390	-0.900	0.170
2020/01/31 20:45:52.8	6.660	0.390	-0.900	0.130
2020/01/31 20:45:52.9	6.670	0.400	-0.910	0.090
2020/01/31 20:45:53.0	6.690	0.410	-0.910	0.050
2020/01/31 20:45:53.1	6.700	0.420	-0.910	0.010
2020/01/31 20:45:53.2	6.720	0.430	-0.910	-0.030
2020/01/31 20:45:53.3	6.730	0.440	-0.910	-0.070
2020/01/31 20:45:53.4	6.750	0.450	-0.910	-0.120
2020/01/31 20:45:53.5	6.770	0.460	-0.910	-0.150
2020/01/31 20:45:53.6	6.790	0.470	-0.900	-0.190
2020/01/31 20:45:53.7	6.810	0.480	-0.890	-0.230
2020/01/31 20:45:53.8	6.830	0.490	-0.880	-0.270
2020/01/31 20:45:53.9	6.860	0.490	-0.870	-0.300
2020/01/31 20:45:54.0	6.860	0.500	-0.850	-0.340
2020/01/31 20:45:54.1	6.890	0.500	-0.830	-0.370
2020/01/31 20:45:54.2	6.910	0.510	-0.810	-0.400
2020/01/31 20:45:54.3	6.940	0.510	-0.780	-0.430
2020/01/31 20:45:54.4	6.960	0.500	-0.750	-0.460
2020/01/31 20:45:54.5	6.990	0.500	-0.710	-0.490
2020/01/31 20:45:54.6	7.010	0.490	-0.680	-0.520
2020/01/31 20:45:54.7	7.040	0.480	-0.640	-0.540
2020/01/31 20:45:54.8	7.070	0.470	-0.600	-0.570
2020/01/31 20:45:54.9	7.100	0.450	-0.550	-0.590
2020/01/31 20:45:55.0	7.110	0.430	-0.510	-0.610
2020/01/31 20:45:55.1	7.140	0.410	-0.460	-0.630
2020/01/31 20:45:55.2	7.170	0.390	-0.410	-0.640
2020/01/31 20:45:55.3	7.200	0.360	-0.360	-0.660
2020/01/31 20:45:55.4	7.230	0.330	-0.310	-0.670
2020/01/31 20:45:55.5	7.260	0.290	-0.250	-0.680
2020/01/31 20:45:55.6	7.290	0.260	-0.200	-0.680
2020/01/31 20:45:55.7	7.310	0.220	-0.150	-0.680
2020/01/31 20:45:55.8	7.340	0.170	-0.090	-0.680
2020/01/31 20:45:55.9	7.370	0.130	-0.040	-0.670
2020/01/31 20:45:56.0	7.400	0.080	0.020	-0.660
2020/01/31 20:45:56.1	7.420	0.040	0.070	-0.640
2020/01/31 20:45:56.2	7.440	-0.010	0.130	-0.620
2020/01/31 20:45:56.3	7.460	-0.060	0.180	-0.600
2020/01/31 20:45:56.4	7.470	-0.120	0.240	-0.570
2020/01/31 20:45:56.5	7.480	-0.170	0.290	-0.540
2020/01/31 20:45:56.6	7.490	-0.220	0.350	-0.500
2020/01/31 20:45:56.7	7.500	-0.280	0.400	-0.460
2020/01/31 20:45:56.8	7.500	-0.330	0.450	-0.430
2020/01/31 20:45:56.9	7.500	-0.390	0.500	-0.380
2020/01/31 20:45:57.0	7.500	-0.440	0.540	-0.340
2020/01/31 20:45:57.1	7.490	-0.490	0.590	-0.300
2020/01/31 20:45:57.2	7.480	-0.540	0.640	-0.250
2020/01/31 20:45:57.3	7.470	-0.590	0.680	-0.210
2020/01/31 20:45:57.4	7.450	-0.640	0.720	-0.170
2020/01/31 20:45:57.5	7.430	-0.680	0.750	-0.130
2020/01/31 20:45:57.6	7.410	-0.730	0.780	-0.080
2020/01/31 20:45:57.7	7.390	-0.770	0.810	-0.040
2020/01/31 20:45:57.8	7.360	-0.800	0.840	-0.000
2020/01/31 20:45:57.9	7.330	-0.830	0.860	0.040
2020/01/31 20:45:58.0	7.300	-0.860	0.870	0.080
2020/01/31 20:45:58.1	7.270	-0.880	0.880	0.120
2020/01/31 20:45:58.2	7.230	-0.900	0.880	0.150
2020/01/31 20:45:58.3	7.200	-0.920	0.880	0.190
2020/01/31 20:45:58.4	7.160	-0.920	0.870	0.230
2020/01/31 20:45:58.5	7.130	-0.930	0.860	0.260
2020/01/31 20:45:58.6	7.090	-0.930	0.840	0.290
2020/01/31 20:45:58.7	7.050	-0.920	0.810	0.330
2020/01/31 20:45:58.8	7.020	-0.910	0.780	0.360
2020/01/31 20:45:58.9	6.980	-0.890	0.740	0.390
2020/01/31 20:45:59.0	6.950	-0.870	0.690	0.420
2020/01/31 20:45:59.1	6.910	-0.840	0.640	0.440
2020/01/31 20:45:59.2	6.870	-0.810	0.580	0.470
2020/01/31 20:45:59.3	6.840	-0.770	0.520	0.490
2020/01/31 20:45:59.4	6.800	-0.730	0.450	0.510
2020/01/31 20:45:59.5	6.770	-0.680	0.380	0.530
2020/01/31 20:45:59.6	6.730	-0.630	0.300	0.550
2020/01/31 20:45:59.7	6.700	-0.580	0.220	0.560
2020/01/31 20:45:59.8	6.670	-0.520	0.140	0.570
2020/01/31 20:45:59.9	6.630	-0.460	0.050	0.580
2020/01/31 20:46:00.0	6.600	-0.400	-0.030	0.580
2020/01/31 20:46:00.1	6.570	-0.340	-0.120	0.580
2020/01/31 20:46:00.2	6.540	-0.270	-0.210	0.570
2020/01/31 20:46:00.3	6.520	-0.210	-0.300	0.560
2020/01/31 20:46:00.4	6.490	-0.140	-0.390	0.550
2020/01/31 20:46:00.5	6.470	-0.070	-0.480	0.530
2020/01/31 20:46:00.6	6.460	-0.010	-0.570	0.510
2020/01/31 20:46:00.7	6.440	0.060	-0.660	0.480
2020/01/31 20:46:00.8	6.430	0.120	-0.740	0.450
2020/01/31 20:46:00.9	6.420	0.190	-0.820	0.420
2020/01/31 20:46:01.0	6.400	0.250	-0.900	0.390
2020/01/31 20:46:01.1	6.400	0.310	-0.980	0.360
2020/01/31 20:46:01.2	6.400	0.370	-1.040	0.320
2020/01/31 20:46:01.3	6.400	0.420	-1.100	0.290
2020/01/31 20:46:01.4	6.400	0.470	-1.160	0.250
2020/01/31 20:46:01.5	6.410	0.520	-1.210	0.210
2020/01/31 20:46:01.6	6.420	0.560	-1.250	0.180
2020/01/31 20:46:01.7	6.430	0.610	-1.290	0.150
2020/01/31 20:46:01.8	6.440	0.640	-1.320	0.110
2020/01/31 20:46:01.9	6.460	0.680	-1.340	0.080
2020/01/31 20:46:02.0	6.480	0.710	-1.350	0.040
2020/01/31 20:46:02.1	6.490	0.740	-1.360	0.020
2020/01/31 20:46:02.2	6.510	0.760	-1.360	-0.010
2020/01/31 20:46:02.3	6.530	0.780	-1.360	-0.030
2020/01/31 20:46:02.4	6.550	0.790	-1.340	-0.060
2020/01/31 20:46:02.5	6.580	0.800	-1.330	-0.080
2020/01/31 20:46:02.6	6.600	0.810	-1.300	-0.100
2020/01/31 20:46:02.7	6.630	0.810	-1.280	-0.120
2020/01/31 20:46:02.8	6.650	0.810	-1.240	-0.140
2020/01/31 20:46:02.9	6.680	0.810	-1.210	-0.160
2020/01/31 20:46:03.0	6.700	0.800	-1.170	-0.170
2020/01/31 20:46:03.1	6.730	0.790	-1.130	-0.180
2020/01/31 20:46:03.2	6.760	0.770	-1.090	-0.200
2020/01/31 20:46:03.3	6.790	0.760	-1.040	-0.210
2020/01/31 20:46:03.4	6.820	0.740	-0.990	-0.220
2020/01/31 20:46:03.5	6.850	0.720	-0.940	-0.230
2020/01/31 20:46:03.6	6.880	0.690	-0.890	-0.250
2020/01/31 20:46:03.7	6.910	0.670	-0.840	-0.260
2020/01/31 20:46:03.8	6.940	0.640	-0.780	-0.270
2020/01/31 20:46:03.9	6.960	0.610	-0.730	-0.280
2020/01/31 20:46:04.0	7.010	0.580	-0.670	-0.290
2020/01/31 20:46:04.1	7.040	0.540	-0.620	-0.290
2020/01/31 20:46:04.2	7.060	0.510	-0.560	-0.300
2020/01/31 20:46:04.3	7.090	0.480	-0.510	-0.300
2020/01/31 20:46:04.4	7.120	0.440	-0.450	-0.310
2020/01/31 20:46:04.5	7.140	0.410	-0.400	-0.310
2020/01/31 20:46:04.6	7.160	0.370	-0.340	-0.310
2020/01/31 20:46:04.7	7.190	0.340	-0.280	-0.300
2020/01/31 20:46:04.8	7.210	0.300	-0.230	-0.300
2020/01/31 20:46:04.9	7.220	0.260	-0.170	-0.290
2020/01/31 20:46:05.0	7.260	0.230	-0.120	-0.280
2020/01/31 20:46:05.1	7.270	0.190	-0.060	-0.270
2020/01/31 20:46:05.2	7.280	0.160	-0.010	-0.250
2020/01/31 20:46:05.3	7.290	0.130	0.040	-0.230
2020/01/31 20:46:05.4	7.300	0.090	0.100	-0.210
2020/01/31 20:46:05.5	7.300	0.060	0.150	-0.190
2020/01/31 20:46:05.6	7.310	0.030	0.200	-0.170
2020/01/31 20:46:05.7	7.310	0.000	0.240	-0.140
2020/01/31 20:46:05.8	7.300	-0.030	0.290	-0.120
2020/01/31 20:46:05.9	7.300	-0.050	0.330	-0.090
2020/01/31 20:46:06.0	7.300	-0.080	0.360	-0.060
2020/01/31 20:46:06.1	7.290	-0.110	0.390	-0.030
2020/01/31 20:46:06.2	7.280	-0.130	0.420	-0.010
2020/01/31 20:46:06.3	7.280	-0.160	0.450	0.020
2020/01/31 20:46:06.4	7.260	-0.180	0.470	0.050
2020/01/31 20:46:06.5	7.250	-0.200	0.480	0.070
2020/01/31 20:46:06.6	7.240	-0.220	0.490	0.100
2020/01/31 20:46:06.7	7.230	-0.240	0.490	0.120
2020/01/31 20:46:06.8	7.210	-0.260	0.490	0.140
2020/01/31 20:46:06.9	7.190	-0.280	0.490	0.160
2020/01/31 20:46:07.0	7.170	-0.300	0.480	0.180
2020/01/31 20:46:07.1	7.150	-0.310	0.460	0.200
2020/01/31 20:46:07.2	7.130	-0.330	0.440	0.210
2020/01/31 20:46:07.3	7.110	-0.340	0.420	0.220
2020/01/31 20:46:07.4	7.090	-0.360	0.400	0.230
2020/01/31 20:46:07.5	7.070	-0.370	0.370	0.230
2020/01/31 20:46:07.6	7.050	-0.380	0.340	0.230
2020/01/31 20:46:07.7	7.030	-0.400	0.300	0.220
2020/01/31 20:46:07.8	7.000	-0.410	0.270	0.220
2020/01/31 20:46:07.9	6.980	-0.420	0.230	0.200
2020/01/31 20:46:08.0	6.960	-0.430	0.190	0.190
2020/01/31 20:46:08.1	6.940	-0.440	0.150	0.170
2020/01/31 20:46:08.2	6.910	-0.450	0.110	0.150
2020/01/31 20:46:08.3	6.890	-0.460	0.070	0.130
2020/01/31 20:46:08.4	6.870	-0.470	0.040	0.100
2020/01/31 20:46:08.5	6.850	-0.480	0.000	0.080
2020/01/31 20:46:08.6	6.830	-0.490	-0.030	0.050
2020/01/31 20:46:08.7	6.810	-0.500	-0.060	0.020
2020/01/31 20:46:08.8	6.800	-0.510	-0.090	-0.010
2020/01/31 20:46:08.9	6.780	-0.520	-0.120	-0.040
2020/01/31 20:46:09.0	6.770	-0.520	-0.140	-0.080
2020/01/31 20:46:09.1	6.760	-0.530	-0.160	-0.110
2020/01/31 20:46:09.2	6.750	-0.540	-0.180	-0.140
2020/01/31 20:46:09.3	6.740	-0.540	-0.190	-0.170
2020/01/31 20:46:09.4	6.730	-0.550	-0.200	-0.200
2020/01/31 20:46:09.5	6.720	-0.550	-0.210	-0.230
2020/01/31 20:46:09.6	6.720	-0.560	-0.220	-0.260
2020/01/31 20:46:09.7	6.720	-0.560	-0.230	-0.290
2020/01/31 20:46:09.8	6.720	-0.560	-0.230	-0.320
2020/01/31 20:46:09.9	6.720	-0.560	-0.230	-0.350
2020/01/31 20:46:10.0	6.700	-0.560	-0.230	-0.380
2020/01/31 20:46:10.1	6.710	-0.560	-0.240	-0.400
2020/01/31 20:46:10.2	6.720	-0.550	-0.240	-0.430
2020/01/31 20:46:10.3	6.730	-0.540	-0.240	-0.460
2020/01/31 20:46:10.4	6.750	-0.530	-0.240	-0.480
2020/01/31 20:46:10.5	6.760	-0.520	-0.240	-0.510
2020/01/31 20:46:10.6	6.780	-0.510	-0.250	-0.530
2020/01/31 20:46:10.7	6.800	-0.490	-0.250	-0.550
2020/01/31 20:46:10.8	6.820	-0.470	-0.260	-0.580
2020/01/31 20:46:10.9	6.850	-0.450	-0.270	-0.600
2020/01/31 20:46:11.0	6.850	-0.430	-0.280	-0.620
2020/01/31 20:46:11.1	6.880	-0.400	-0.290	-0.630
2020/01/31 20:46:11.2	6.910	-0.370	-0.310	-0.640
2020/01/31 20:46:11.3	6.940	-0.340	-0.320	-0.650
2020/01/31 20:46:11.4	6.960	-0.300	-0.340	-0.660
2020/01/31 20:46:11.5	6.990	-0.260	-0.360	-0.670
2020/01/31 20:46:11.6	7.020	-0.220	-0.380	-0.670
2020/01/31 20:46:11.7	7.040	-0.180	-0.410	-0.670
2020/01/31 20:46:11.8	7.070	-0.140	-0.430	-0.660
2020/01/31 20:46:11.9	7.090	-0.090	-0.450	-0.660
2020/01/31 20:46:12.0	7.110	-0.040	-0.470	-0.640
2020/01/31 20:46:12.1	7.130	0.010	-0.500	-0.630
2020/01/31 20:46:12.2	7.150	0.060	-0.520	-0.610
2020/01/31 20:46:12.3	7.170	0.110	-0.550	-0.580
2020/01/31 20:46:12.4	7.190	0.160	-0.570	-0.550
2020/01/31 20:46:12.5	7.200	0.210	-0.590	-0.520
2020/01/31 20:46:12.6	7.220	0.260	-0.620	-0.480
2020/01/31 20:46:12.7	7.230	0.310	-0.640	-0.440
2020/01/31 20:46:12.8	7.230	0.360	-0.660	-0.390
2020/01/31 20:46:12.9	7.240	0.410	-0.680	-0.350
2020/01/31 20:46:13.0	7.240	0.460	-0.700	-0.290
2020/01/31 20:46:13.1	7.250	0.510	-0.710	-0.240
2020/01/31 20:46:13.2	7.250	0.550	-0.730	-0.190
2020/01/31 20:46:13.3	7.250	0.590	-0.740	-0.140
2020/01/31 20:46:13.4	7.250	0.630	-0.750	-0.080
2020/01/31 20:46:13.5	7.250	0.670	-0.750	-0.030
2020/01/31 20:46:13.6	7.240	0.700	-0.760	0.030
2020/01/31 20:46:13.7	7.240	0.730	-0.760	0.080
2020/01/31 20:46:13.8	7.230	0.750	-0.760	0.130
2020/01/31 20:46:13.9	7.220	0.780	-0.750	0.180
2020/01/31 20:46:14.0	7.210	0.790	-0.740	0.240
2020/01/31 20:46:14.1	7.200	0.810	-0.730	0.280
2020/01/31 20:46:14.2	7.190	0.820	-0.720	0.330
2020/01/31 20:46:14.3	7.170	0.820	-0.700	0.380
2020/01/31 20:46:14.4	7.160	0.820	-0.680	0.420
2020/01/31 20:46:14.5	7.140	0.820	-0.650	0.460
2020/01/31 20:46:14.6	7.120	0.810	-0.620	0.500
2020/01/31 20:46:14.7	7.100	0.800	-0.590	0.530
2020/01/31 20:46:14.8	7.070	0.780	-0.560	0.560
2020/01/31 20:46:14.9	7.050	0.760	-0.520	0.590
2020/01/31 20:46:15.0	7.040	0.730	-0.480	0.610
2020/01/31 20:46:15.1	7.020	0.700	-0.440	0.630
2020/01/31 20:46:15.2	6.990	0.670	-0.400	0.650
2020/01/31 20:46:15.3	6.960	0.630	-0.350	0.660
2020/01/31 20:46:15.4	6.930	0.600	-0.300	0.670
2020/01/31 20:46:15.5	6.900	0.550	-0.250	0.670
2020/01/31 20:46:15.6	6.870	0.510	-0.210	0.670
2020/01/31 20:46:15.7	6.840	0.460	-0.160	0.670
2020/01/31 20:46:15.8	6.820	0.420	-0.110	0.670
2020/01/31 20:46:15.9	6.790	0.370	-0.060	0.660
2020/01/31 20:46:16.0	6.780	0.320	-0.010	0.650
2020/01/31 20:46:16.1	6.750	0.270	0.030	0.630
2020/01/31 20:46:16.2	6.720	0.210	0.080	0.610
2020/01/31 20:46:16.3	6.700	0.160	0.120	0.590
2020/01/31 20:46:16.4	6.670	0.110	0.160	0.570
2020/01/31 20:46:16.5	6.650	0.060	0.200	0.550
2020/01/31 20:46:16.6	6.630	0.020	0.230	0.520
2020/01/31 20:46:16.7	6.610	-0.030	0.260	0.500
2020/01/31 20:46:16.8	6.590	-0.070	0.290	0.470
2020/01/31 20:46:16.9	6.570	-0.110	0.320	0.440
2020/01/31 20:46:17.0	6.550	-0.150	0.340	0.400
2020/01/31 20:46:17.1	6.530	-0.190	0.350	0.370
2020/01/31 20:46:17.2	6.520	-0.220	0.370	0.330
2020/01/31 20:46:17.3	6.510	-0.250	0.370	0.290
2020/01/31 20:46:17.4	6.500	-0.280	0.380	0.260
2020/01/31 20:46:17.5	6.490	-0.300	0.370	0.220
2020/01/31 20:46:17.6	6.490	-0.320	0.370	0.180
2020/01/31 20:46:17.7	6.490	-0.330	0.360	0.130
2020/01/31 20:46:17.8	6.490	-0.340	0.340	0.090
2020/01/31 20:46:17.9	6.490	-0.350	0.320	0.050
2020/01/31 20:46:18.0	6.500	-0.350	0.290	0.000
2020/01/31 20:46:18.1	6.510	-0.350	0.260	-0.050
2020/01/31 20:46:18.2	6.520	-0.350	0.230	-0.090
2020/01/31 20:46:18.3	6.540	-0.340	0.190	-0.140
2020/01/31 20:46:18.4	6.550	-0.330	0.140	-0.190
2020/01/31 20:46:18.5	6.570	-0.310	0.090	-0.230
2020/01/31 20:46:18.6	6.590	-0.300	0.040	-0.280
2020/01/31 20:46:18.7	6.610	-0.280	-0.020	-0.320
2020/01/31 20:46:18.8	6.640	-0.250	-0.070	-0.370
2020/01/31 20:46:18.9	6.660	-0.230	-0.130	-0.410
2020/01/31 20:46:19.0	6.680	-0.200	-0.190	-0.450
2020/01/31 20:46:19.1	6.710	-0.180	-0.250	-0.490
2020/01/31 20:46:19.2	6.730	-0.150	-0.320	-0.530
2020/01/31 20:46:19.3	6.760	-0.130	-0.380	-0.560
2020/01/31 20:46:19.4	6.790	-0.100	-0.440	-0.600
2020/01/31 20:46:19.5	6.810	-0.080	-0.500	-0.630
2020/01/31 20:46:19.6	6.840	-0.050	-0.560	-0.650
2020/01/31 20:46:19.7	6.870	-0.030	-0.610	-0.680
2020/01/31 20:46:19.8	6.890	-0.010	-0.660	-0.710
2020/01/31 20:46:19.9	6.910	0.010	-0.710	-0.730
2020/01/31 20:46:20.0	6.950	0.030	-0.750	-0.740
2020/01/31 20:46:20.1	6.970	0.040	-0.790	-0.760
2020/01/31 20:46:20.2	6.990	0.050	-0.830	-0.780
2020/01/31 20:46:20.3	7.010	0.060	-0.860	-0.790
2020/01/31 20:46:20.4	7.030	0.060	-0.880	-0.810
2020/01/31 20:46:20.5	7.040	0.060	-0.890	-0.820
2020/01/31 20:46:20.6	7.060	0.060	-0.910	-0.820
2020/01/31 20:46:20.7	7.070	0.050	-0.910	-0.830
2020/01/31 20:46:20.8	7.080	0.050	-0.910	-0.830
2020/01/31 20:46:20.9	7.090	0.030	-0.900	-0.840
2020/01/31 20:46:21.0	7.080	0.020	-0.890	-0.840
2020/01/31 20:46:21.1	7.090	-0.000	-0.870	-0.830
2020/01/31 20:46:21.2	7.090	-0.020	-0.850	-0.830
2020/01/31 20:46:21.3	7.100	-0.050	-0.820	-0.820
2020/01/31 20:46:21.4	7.100	-0.070	-0.790	-0.810
2020/01/31 20:46:21.5	7.100	-0.100	-0.750	-0.800
2020/01/31 20:46:21.6	7.100	-0.130	-0.710	-0.790
2020/01/31 20:46:21.7	7.100	-0.160	-0.660	-0.780
2020/01/31 20:46:21.8	7.100	-0.190	-0.610	-0.770
2020/01/31 20:46:21.9	7.100	-0.220	-0.560	-0.750
2020/01/31 20:46:22.0	7.100	-0.250	-0.510	-0.730
2020/01/31 20:46:22.1	7.100	-0.290	-0.450	-0.710
2020/01/31 20:46:22.2	7.100	-0.320	-0.400	-0.690
2020/01/31 20:46:22.3	7.100	-0.350	-0.340	-0.670
2020/01/31 20:46:22.4	7.100	-0.380	-0.290	-0.650
2020/01/31 20:46:22.5	7.100	-0.410	-0.230	-0.630
2020/01/31 20:46:22.6	7.100	-0.430	-0.170	-0.610
2020/01/31 20:46:22.7	7.100	-0.460	-0.120	-0.580
2020/01/31 20:46:22.8	7.100	-0.480	-0.070	-0.560
2020/01/31 20:46:22.9	7.100	-0.500	-0.010	-0.530
2020/01/31 20:46:23.0	7.100	-0.510	0.040	-0.510
2020/01/31 20:46:23.1	7.100	-0.530	0.080	-0.480
2020/01/31 20:46:23.2	7.100	-0.540	0.130	-0.450
2020/01/31 20:46:23.3	7.100	-0.550	0.180	-0.420
2020/01/31 20:46:23.4	7.110	-0.550	0.220	-0.400
2020/01/31 20:46:23.5	7.110	-0.550	0.260	-0.360
2020/01/31 20:46:23.6	7.100	-0.550	0.300	-0.330
2020/01/31 20:46:23.7	7.100	-0.540	0.330	-0.300
2020/01/31 20:46:23.8	7.100	-0.530	0.360	-0.260
2020/01/31 20:46:23.9	7.090	-0.520	0.390	-0.230
2020/01/31 20:46:24.0	7.080	-0.500	0.410	-0.180
2020/01/31 20:46:24.1	7.070	-0.480	0.440	-0.140
2020/01/31 20:46:24.2	7.060	-0.460	0.460	-0.090
2020/01/31 20:46:24.3	7.040	-0.440	0.470	-0.050
2020/01/31 20:46:24.4	7.020	-0.410	0.490	0.000
2020/01/31 20:46:24.5	6.990	-0.390	0.500	0.050
2020/01/31 20:46:24.6	6.960	-0.360	0.510	0.100
2020/01/31 20:46:24.7	6.930	-0.330	0.510	0.160
2020/01/31 20:46:24.8	6.900	-0.290	0.510	0.210
2020/01/31 20:46:24.9	6.870	-0.260	0.500	0.260
2020/01/31 20:46:25.0	6.820	-0.230	0.500	0.310
2020/01/31 20:46:25.1	6.780	-0.190	0.480	0.370
2020/01/31 20:46:25.2	6.740	-0.160	0.470	0.420
2020/01/31 20:46:25.3	6.700	-0.120	0.450	0.470
2020/01/31 20:46:25.4	6.660	-0.090	0.420	0.520
2020/01/31 20:46:25.5	6.610	-0.050	0.390	0.560
2020/01/31 20:46:25.6	6.570	-0.010	0.360	0.610
2020/01/31 20:46:25.7	6.520	0.020	0.330	0.650
2020/01/31 20:46:25.8	6.480	0.060	0.290	0.690
2020/01/31 20:46:25.9	6.440	0.090	0.240	0.720
2020/01/31 20:46:26.0	6.400	0.130	0.200	0.760
2020/01/31 20:46:26.1	6.360	0.160	0.150	0.790
2020/01/31 20:46:26.2	6.320	0.200	0.100	0.810
2020/01/31 20:46:26.3	6.280	0.230	0.040	0.830
2020/01/31 20:46:26.4	6.240	0.270	-0.020	0.850
2020/01/31 20:46:26.5	6.210	0.300	-0.080	0.860
2020/01/31 20:46:26.6	6.180	0.330	-0.140	0.870
2020/01/31 20:46:26.7	6.150	0.370	-0.210	0.880
2020/01/31 20:46:26.8	6.130	0.400	-0.280	0.870
2020/01/31 20:46:26.9	6.100	0.430	-0.350	0.870
2020/01/31 20:46:27.0	6.090	0.470	-0.420	0.850
2020/01/31 20:46:27.1	6.070	0.500	-0.490	0.840
2020/01/31 20:46:27.2	6.070	0.530	-0.560	0.820
2020/01/31 20:46:27.3	6.060	0.560	-0.640	0.790
2020/01/31 20:46:27.4	6.060	0.590	-0.710	0.760
2020/01/31 20:46:27.5	6.070	0.620	-0.780	0.730
2020/01/31 20:46:27.6	6.070	0.650	-0.850	0.690
2020/01/31 20:46:27.7	6.090	0.670	-0.920	0.660
2020/01/31 20:46:27.8	6.100	0.700	-0.990	0.610
2020/01/31 20:46:27.9	6.120	0.720	-1.050	0.570
2020/01/31 20:46:28.0	6.120	0.740	-1.120	0.520
2020/01/31 20:46:28.1	6.140	0.760	-1.170	0.470
2020/01/31 20:46:28.2	6.170	0.770	-1.230	0.410
2020/01/31 20:46:28.3	6.200	0.790	-1.280	0.360
2020/01/31 20:46:28.4	6.230	0.800	-1.320	0.300
2020/01/31 20:46:28.5	6.260	0.810	-1.360	0.240
2020/01/31 20:46:28.6	6.300	0.810	-1.390	0.180
2020/01/31 20:46:28.7	6.340	0.810	-1.420	0.110
2020/01/31 20:46:28.8	6.380	0.810	-1.440	0.050
2020/01/31 20:46:28.9	6.420	0.800	-1.460	-0.020
2020/01/31 20:46:29.0	6.470	0.790	-1.470	-0.090
2020/01/31 20:46:29.1	6.510	0.770	-1.470	-0.160
2020/01/31 20:46:29.2	6.560	0.760	-1.460	-0.230
2020/01/31 20:46:29.3	6.600	0.730	-1.450	-0.300
2020/01/31 20:46:29.4	6.650	0.710	-1.430	-0.370
2020/01/31 20:46:29.5	6.700	0.680	-1.400	-0.440
2020/01/31 20:46:29.6	6.750	0.650	-1.370	-0.510
2020/01/31 20:46:29.7	6.800	0.610	-1.330	-0.570
2020/01/31 20:46:29.8	6.850	0.570	-1.290	-0.640
2020/01/31 20:46:29.9	6.890	0.520	-1.230	-0.700
2020/01/31 20:46:30.0	6.950	0.480	-1.170	-0.760
2020/01/31 20:46:30.1	6.990	0.430	-1.100	-0.810
2020/01/31 20:46:30.2	7.030	0.370	-1.030	-0.860
2020/01/31 20:46:30.3	7.060	0.320	-0.960	-0.910
2020/01/31 20:46:30.4	7.090	0.260	-0.870	-0.950
2020/01/31 20:46:30.5	7.120	0.200	-0.780	-0.990
2020/01/31 20:46:30.6	7.140	0.140	-0.690	-1.020
2020/01/31 20:46:30.7	7.160	0.080	-0.590	-1.040
2020/01/31 20:46:30.8	7.180	0.010	-0.490	-1.060
2020/01/31 20:46:30.9	7.190	-0.050	-0.390	-1.070
2020/01/31 20:46:31.0	7.180	-0.120	-0.280	-1.070
2020/01/31 20:46:31.1	7.190	-0.180	-0.170	-1.070
2020/01/31 20:46:31.2	7.180	-0.250	-0.060	-1.070
2020/01/31 20:46:31.3	7.180	-0.310	0.050	-1.050
2020/01/31 20:46:31.4	7.170	-0.370	0.160	-1.040
2020/01/31 20:46:31.5	7.160	-0.430	0.280	-1.020
2020/01/31 20:46:31.6	7.140	-0.490	0.390	-0.990
2020/01/31 20:46:31.7	7.120	-0.550	0.490	-0.960
2020/01/31 20:46:31.8	7.100	-0.600	0.600	-0.930
2020/01/31 20:46:31.9	7.080	-0.650	0.700	-0.900
2020/01/31 20:46:32.0	7.050	-0.700	0.790	-0.860
2020/01/31 20:46:32.1	7.030	-0.740	0.880	-0.820
2020/01/31 20:46:32.2	6.990	-0.780	0.960	-0.770
2020/01/31 20:46:32.3	6.960	-0.820	1.040	-0.730
2020/01/31 20:46:32.4	6.930	-0.850	1.110	-0.680
2020/01/31 20:46:32.5	6.890	-0.870	1.170	-0.640
2020/01/31 20:46:32.6	6.850	-0.900	1.220	-0.590
2020/01/31 20:46:32.7	6.810	-0.910	1.260	-0.540
2020/01/31 20:46:32.8	6.770	-0.920	1.290	-0.490
2020/01/31 20:46:32.9	6.730	-0.930	1.310	-0.440
2020/01/31 20:46:33.0	6.680	-0.930	1.320	-0.390
2020/01/31 20:46:33.1	6.640	-0.920	1.320	-0.340
2020/01/31 20:46:33.2	6.600	-0.910	1.320	-0.290
2020/01/31 20:46:33.3	6.560	-0.900	1.300	-0.240
2020/01/31 20:46:33.4	6.520	-0.880	1.270	-0.200
2020/01/31 20:46:33.5	6.490	-0.850	1.230	-0.150
2020/01/31 20:46:33.6	6.450	-0.820	1.180	-0.110
2020/01/31 20:46:33.7	6.410	-0.790	1.130	-0.070
2020/01/31 20:46:33.8	6.380	-0.750	1.060	-0.040
2020/01/31 20:46:33.9	6.350	-0.710	0.990	-0.010
2020/01/31 20:46:34.0	6.300	-0.660	0.910	0.030
2020/01/31 20:46:34.1	6.280	-0.610	0.820	0.050
2020/01/31 20:46:34.2	6.250	-0.550	0.720	0.080
2020/01/31 20:46:34.3	6.230	-0.500	0.620	0.100
2020/01/31 20:46:34.4	6.210	-0.440	0.520	0.110
2020/01/31 20:46:34.5	6.190	-0.380	0.410	0.130
2020/01/31 20:46:34.6	6.180	-0.310	0.290	0.140
2020/01/31 20:46:34.7	6.170	-0.250	0.180	0.160
2020/01/31 20:46:34.8	6.160	-0.180	0.060	0.170
2020/01/31 20:46:34.9	6.150	-0.110	-0.060	0.180
2020/01/31 20:46:35.0	6.150	-0.050	-0.170	0.190
2020/01/31 20:46:35.1	6.150	0.020	-0.290	0.200
2020/01/31 20:46:35.2	6.150	0.090	-0.410	0.210
2020/01/31 20:46:35.3	6.150	0.150	-0.520	0.230
2020/01/31 20:46:35.4	6.150	0.210	-0.620	0.240
2020/01/31 20:46:35.5	6.150	0.280	-0.730	0.260
2020/01/31 20:46:35.6	6.160	0.340	-0.830	0.270
2020/01/31 20:46:35.7	6.170	0.390	-0.920	0.290
2020/01/31 20:46:35.8	6.180	0.450	-1.000	0.300
2020/01/31 20:46:35.9	6.180	0.500	-1.080	0.320
2020/01/31 20:46:36.0	6.200	0.540	-1.160	0.340
2020/01/31 20:46:36.1	6.210	0.580	-1.220	0.360
2020/01/31 20:46:36.2	6.220	0.620	-1.280	0.370
2020/01/31 20:46:36.3	6.230	0.650	-1.320	0.380
2020/01/31 20:46:36.4	6.250	0.680	-1.360	0.400
2020/01/31 20:46:36.5	6.260	0.700	-1.390	0.410
2020/01/31 20:46:36.6	6.270	0.720	-1.410	0.420
2020/01/31 20:46:36.7	6.290	0.730	-1.430	0.420
2020/01/31 20:46:36.8	6.300	0.740	-1.430	0.430
2020/01/31 20:46:36.9	6.320	0.740	-1.430	0.430
2020/01/31 20:46:37.0	6.330	0.730	-1.410	0.430
2020/01/31 20:46:37.1	6.350	0.720	-1.400	0.420
2020/01/31 20:46:37.2	6.360	0.700	-1.370	0.410
2020/01/31 20:46:37.3	6.380	0.680	-1.340	0.400
2020/01/31 20:46:37.4	6.390	0.650	-1.300	0.390
2020/01/31 20:46:37.5	6.410	0.620	-1.260	0.370
2020/01/31 20:46:37.6	6.420	0.580	-1.210	0.350
2020/01/31 20:46:37.7	6.430	0.540	-1.160	0.330
2020/01/31 20:46:37.8	6.450	0.500	-1.100	0.300
2020/01/31 20:46:37.9	6.460	0.450	-1.040	0.280
2020/01/31 20:46:38.0	6.470	0.400	-0.980	0.250
2020/01/31 20:46:38.1	6.480	0.340	-0.920	0.210
2020/01/31 20:46:38.2	6.490	0.280	-0.850	0.180
2020/01/31 20:46:38.3	6.510	0.220	-0.790	0.140
2020/01/31 20:46:38.4	6.510	0.160	-0.720	0.100
2020/01/31 20:46:38.5	6.520	0.090	-0.650	0.060
2020/01/31 20:46:38.6	6.530	0.030	-0.580	0.020
2020/01/31 20:46:38.7	6.540	-0.030	-0.510	-0.030
2020/01/31 20:46:38.8	6.550	-0.100	-0.450	-0.070
2020/01/31 20:46:38.9	6.560	-0.160	-0.380	-0.120
2020/01/31 20:46:39.0	6.570	-0.230	-0.320	-0.180
2020/01/31 20:46:39.1	6.580	-0.290	-0.250	-0.230
2020/01/31 20:46:39.2	6.590	-0.350	-0.190	-0.280
2020/01/31 20:46:39.3	6.600	-0.400	-0.130	-0.340
2020/01/31 20:46:39.4	6.610	-0.460	-0.070	-0.390
2020/01/31 20:46:39.5	6.620	-0.510	-0.020	-0.450
2020/01/31 20:46:39.6	6.640	-0.560	0.030	-0.500
2020/01/31 20:46:39.7	6.650	-0.600	0.080	-0.560
2020/01/31 20:46:39.8	6.670	-0.630	0.130	-0.620
2020/01/31 20:46:39.9	6.680	-0.670	0.170	-0.670
2020/01/31 20:46:40.0	6.690	-0.690	0.210	-0.720
2020/01/31 20:46:40.1	6.710	-0.710	0.240	-0.770
2020/01/31 20:46:40.2	6.730	-0.730	0.280	-0.820
2020/01/31 20:46:40.3	6.740	-0.740	0.310	-0.860
2020/01/31 20:46:40.4	6.760	-0.740	0.330	-0.900
2020/01/31 20:46:40.5	6.780	-0.740	0.350	-0.930
2020/01/31 20:46:40.6	6.800	-0.730	0.370	-0.960
2020/01/31 20:46:40.7	6.810	-0.710	0.380	-0.980
2020/01/31 20:46:40.8	6.830	-0.690	0.390	-1.000
2020/01/31 20:46:40.9	6.840	-0.660	0.400	-1.010
2020/01/31 20:46:41.0	6.850	-0.630	0.400	-1.020
2020/01/31 20:46:41.1	6.860	-0.590	0.400	-1.020
2020/01/31 20:46:41.2	6.870	-0.540	0.390	-1.020
2020/01/31 20:46:41.3	6.880	-0.490	0.390	-1.010
2020/01/31 20:46:41.4	6.890	-0.430	0.370	-0.990
2020/01/31 20:46:41.5	6.890	-0.380	0.360	-0.970
2020/01/31 20:46:41.6	6.900	-0.310	0.340	-0.940
2020/01/31 20:46:41.7	6.900	-0.250	0.310	-0.910
2020/01/31 20:46:41.8	6.900	-0.180	0.290	-0.870
2020/01/31 20:46:41.9	6.900	-0.110	0.260	-0.830
2020/01/31 20:46:42.0	6.880	-0.040	0.220	-0.780
2020/01/31 20:46:42.1	6.880	0.030	0.190	-0.730
2020/01/31 20:46:42.2	6.870	0.100	0.150	-0.680
2020/01/31 20:46:42.3	6.860	0.180	0.110	-0.630
2020/01/31 20:46:42.4	6.840	0.250	0.060	-0.570
2020/01/31 20:46:42.5	6.830	0.310	0.020	-0.510
2020/01/31 20:46:42.6	6.810	0.380	-0.030	-0.450
2020/01/31 20:46:42.7	6.790	0.440	-0.080	-0.380
2020/01/31 20:46:42.8	6.760	0.500	-0.120	-0.320
2020/01/31 20:46:42.9	6.740	0.560	-0.170	-0.260
2020/01/31 20:46:43.0	6.710	0.610	-0.230	-0.190
2020/01/31 20:46:43.1	6.690	0.660	-0.270	-0.130
2020/01/31 20:46:43.2	6.660	0.700	-0.320	-0.080
2020/01/31 20:46:43.3	6.630	0.740	-0.370	-0.020
2020/01/31 20:46:43.4	6.600	0.780	-0.420	0.030
2020/01/31 20:46:43.5	6.570	0.810	-0.460	0.080
2020/01/31 20:46:43.6	6.540	0.830	-0.500	0.130
2020/01/31 20:46:43.7	6.510	0.850	-0.540	0.170
2020/01/31 20:46:43.8	6.480	0.860	-0.580	0.210
2020/01/31 20:46:43.9	6.450	0.870	-0.620	0.250
2020/01/31 20:46:44.0	6.430	0.870	-0.650	0.280
2020/01/31 20:46:44.1	6.410	0.860	-0.680	0.310
2020/01/31 20:46:44.2	6.390	0.860	-0.710	0.340
2020/01/31 20:46:44.3	6.370	0.840	-0.730	0.360
2020/01/31 20:46:44.4	6.350	0.820	-0.750	0.370
2020/01/31 20:46:44.5	6.330	0.800	-0.770	0.380
2020/01/31 20:46:44.6	6.320	0.780	-0.780	0.380
2020/01/31 20:46:44.7	6.310	0.750	-0.790	0.380
2020/01/31 20:46:44.8	6.300	0.710	-0.800	0.380
2020/01/31 20:46:44.9	6.300	0.680	-0.800	0.360
2020/01/31 20:46:45.0	6.290	0.640	-0.810	0.350
2020/01/31 20:46:45.1	6.290	0.590	-0.800	0.330
2020/01/31 20:46:45.2	6.290	0.550	-0.800	0.310
2020/01/31 20:46:45.3	6.300	0.500	-0.790	0.280
2020/01/31 20:46:45.4	6.310	0.450	-0.780	0.250
2020/01/31 20:46:45.5	6.320	0.400	-0.760	0.210
2020/01/31 20:46:45.6	6.330	0.350	-0.740	0.180
2020/01/31 20:46:45.7	6.340	0.290	-0.720	0.130
2020/01/31 20:46:45.8	6.360	0.240	-0.690	0.090
2020/01/31 20:46:45.9	6.370	0.190	-0.660	0.040
2020/01/31 20:46:46.0	6.390	0.130	-0.630	-0.010
2020/01/31 20:46:46.1	6.410	0.080	-0.590	-0.060
2020/01/31 20:46:46.2	6.440	0.020	-0.550	-0.120
2020/01/31 20:46:46.3	6.460	-0.030	-0.510	-0.170
2020/01/31 20:46:46.4	6.490	-0.080	-0.460	-0.230
2020/01/31 20:46:46.5	6.510	-0.140	-0.410	-0.290
2020/01/31 20:46:46.6	6.540	-0.190	-0.360	-0.340
2020/01/31 20:46:46.7	6.570	-0.240	-0.310	-0.400
2020/01/31 20:46:46.8	6.600	-0.280	-0.260	-0.460
2020/01/31 20:46:46.9	6.640	-0.330	-0.200	-0.510
2020/01/31 20:46:47.0	6.670	-0.370	-0.150	-0.570
2020/01/31 20:46:47.1	6.710	-0.410	-0.090	-0.620
2020/01/31 20:46:47.2	6.740	-0.450	-0.040	-0.670
2020/01/31 20:46:47.3	6.770	-0.480	0.020	-0.710
2020/01/31 20:46:47.4	6.810	-0.520	0.070	-0.750
2020/01/31 20:46:47.5	6.840	-0.550	0.120	-0.790
2020/01/31 20:46:47.6	6.870	-0.570	0.170	-0.830
2020/01/31 20:46:47.7	6.910	-0.600	0.220	-0.860
2020/01/31 20:46:47.8	6.940	-0.620	0.270	-0.880
2020/01/31 20:46:47.9	6.970	-0.640	0.320	-0.910
2020/01/31 20:46:48.0	6.980	-0.660	0.360	-0.920
2020/01/31 20:46:48.1	7.010	-0.670	0.390	-0.940
2020/01/31 20:46:48.2	7.040	-0.680	0.430	-0.950
2020/01/31 20:46:48.3	7.060	-0.690	0.460	-0.950
2020/01/31 20:46:48.4	7.080	-0.690	0.480	-0.950
2020/01/31 20:46:48.5	7.110	-0.690	0.500	-0.950
2020/01/31 20:46:48.6	7.130	-0.690	0.510	-0.940
2020/01/31 20:46:48.7	7.150	-0.690	0.520	-0.930
2020/01/31 20:46:48.8	7.170	-0.680	0.520	-0.920
2020/01/31 20:46:48.9	7.190	-0.670	0.520	-0.910
2020/01/31 20:46:49.0	7.210	-0.660	0.510	-0.900
2020/01/31 20:46:49.1	7.230	-0.640	0.490	-0.880
2020/01/31 20:46:49.2	7.250	-0.630	0.470	-0.860
2020/01/31 20:46:49.3	7.260	-0.610	0.440	-0.840
2020/01/31 20:46:49.4	7.280	-0.580	0.400	-0.820
2020/01/31 20:46:49.5	7.290	-0.560	0.360	-0.800
2020/01/31 20:46:49.6	7.300	-0.540	0.320	-0.770
2020/01/31 20:46:49.7	7.300	-0.510	0.270	-0.750
2020/01/31 20:46:49.8	7.310	-0.480	0.220	-0.710
2020/01/31 20:46:49.9	7.310	-0.450	0.160	-0.680
2020/01/31 20:46:50.0	7.290	-0.420	0.110	-0.640
2020/01/31 20:46:50.1	7.280	-0.390	0.050	-0.600
2020/01/31 20:46:50.2	7.270	-0.360	-0.020	-0.560
2020/01/31 20:46:50.3	7.260	-0.320	-0.080	-0.520
2020/01/31 20:46:50.4	7.240	-0.290	-0.140	-0.470
2020/01/31 20:46:50.5	7.220	-0.260	-0.200	-0.430
2020/01/31 20:46:50.6	7.190	-0.220	-0.260	-0.380
2020/01/31 20:46:50.7	7.170	-0.190	-0.320	-0.330
2020/01/31 20:46:50.8	7.140	-0.160	-0.380	-0.280
2020/01/31 20:46:50.9	7.100	-0.130	-0.440	-0.240
2020/01/31 20:46:51.0	7.070	-0.100	-0.490	-0.180
2020/01/31 20:46:51.1	7.030	-0.070	-0.540	-0.140
2020/01/31 20:46:51.2	6.990	-0.040	-0.580	-0.090
2020/01/31 20:46:51.3	6.950	-0.010	-0.620	-0.040
2020/01/31 20:46:51.4	6.900	0.020	-0.660	-0.000
2020/01/31 20:46:51.5	6.860	0.050	-0.690	0.040
2020/01/31 20:46:51.6	6.810	0.070	-0.720	0.080
2020/01/31 20:46:51.7	6.770	0.100	-0.740	0.120
2020/01/31 20:46:51.8	6.720	0.120	-0.760	0.160
2020/01/31 20:46:51.9	6.680	0.140	-0.770	0.190
2020/01/31 20:46:52.0	6.640	0.160	-0.780	0.220
2020/01/31 20:46:52.1	6.600	0.180	-0.780	0.250
2020/01/31 20:46:52.2	6.560	0.200	-0.780	0.270
2020/01/31 20:46:52.3	6.520	0.220	-0.780	0.290
2020/01/31 20:46:52.4	6.490	0.230	-0.770	0.300
2020/01/31 20:46:52.5	6.460	0.250	-0.760	0.310
2020/01/31 20:46:52.6	6.430	0.260	-0.750	0.320
2020/01/31 20:46:52.7	6.410	0.280	-0.730	0.320
2020/01/31 20:46:52.8	6.390	0.290	-0.710	0.320
2020/01/31 20:46:52.9	6.380	0.300	-0.690	0.310
2020/01/31 20:46:53.0	6.380	0.310	-0.670	0.300
2020/01/31 20:46:53.1	6.380	0.320	-0.650	0.290
2020/01/31 20:46:53.2	6.380	0.330	-0.630	0.270
2020/01/31 20:46:53.3	6.380	0.340	-0.600	0.250
2020/01/31 20:46:53.4	6.390	0.340	-0.580	0.220
2020/01/31 20:46:53.5	6.410	0.350	-0.560	0.190
2020/01/31 20:46:53.6	6.420	0.350	-0.530	0.170
2020/01/31 20:46:53.7	6.440	0.360	-0.510	0.130
2020/01/31 20:46:53.8	6.470	0.360	-0.490	0.100
2020/01/31 20:46:53.9	6.490	0.360	-0.460	0.070
2020/01/31 20:46:54.0	6.520	0.370	-0.440	0.030
2020/01/31 20:46:54.1	6.550	0.370	-0.420	0.000
2020/01/31 20:46:54.2	6.580	0.370	-0.390	-0.030
2020/01/31 20:46:54.3	6.600	0.360	-0.370	-0.060
2020/01/31 20:46:54.4	6.630	0.360	-0.340	-0.090
2020/01/31 20:46:54.5	6.660	0.360	-0.320	-0.120
2020/01/31 20:46:54.6	6.690	0.360	-0.300	-0.140
2020/01/31 20:46:54.7	6.710	0.350	-0.280	-0.170
2020/01/31 20:46:54.8	6.740	0.350	-0.250	-0.190
2020/01/31 20:46:54.9	6.760	0.350	-0.230	-0.200
2020/01/31 20:46:55.0	6.770	0.340	-0.210	-0.220
2020/01/31 20:46:55.1	6.790	0.340	-0.190	-0.230
2020/01/31 20:46:55.2	6.810	0.330	-0.170	-0.230
2020/01/31 20:46:55.3	6.820	0.330	-0.160	-0.240
2020/01/31 20:46:55.4	6.840	0.320	-0.140	-0.240
2020/01/31 20:46:55.5	6.850	0.320	-0.130	-0.230
2020/01/31 20:46:55.6	6.860	0.310	-0.120	-0.230
2020/01/31 20:46:55.7	6.870	0.310	-0.110	-0.220
2020/01/31 20:46:55.8	6.880	0.300	-0.100	-0.210
2020/01/31 20:46:55.9	6.890	0.300	-0.100	-0.200
2020/01/31 20:46:56.0	6.900	0.290	-0.100	-0.190
2020/01/31 20:46:56.1	6.910	0.290	-0.110	-0.180
2020/01/31 20:46:56.2	6.920	0.280	-0.110	-0.160
2020/01/31 20:46:56.3	6.920	0.280	-0.120	-0.150
2020/01/31 20:46:56.4	6.930	0.280	-0.140	-0.140
2020/01/31 20:46:56.5	6.940	0.270	-0.160	-0.130
2020/01/31 20:46:56.6	6.950	0.270	-0.180	-0.130
2020/01/31 20:46:56.7	6.960	0.270	-0.200	-0.120
2020/01/31 20:46:56.8	6.970	0.260	-0.230	-0.120
2020/01/31 20:46:56.9	6.990	0.260	-0.260	-0.120
2020/01/31 20:46:57.0	7.010	0.260	-0.290	-0.110
2020/01/31 20:46:57.1	7.020	0.250	-0.320	-0.120
2020/01/31 20:46:57.2	7.040	0.250	-0.360	-0.120
2020/01/31 20:46:57.3	7.050	0.250	-0.390	-0.120
2020/01/31 20:46:57.4	7.060	0.240	-0.430	-0.130
2020/01/31 20:46:57.5	7.070	0.240	-0.460	-0.140
2020/01/31 20:46:57.6	7.090	0.230	-0.500	-0.150
2020/01/31 20:46:57.7	7.100	0.220	-0.530	-0.160
2020/01/31 20:46:57.8	7.110	0.220	-0.560	-0.170
2020/01/31 20:46:57.9	7.120	0.210	-0.590	-0.180
2020/01/31 20:46:58.0	7.130	0.200	-0.620	-0.190
2020/01/31 20:46:58.1	7.150	0.180	-0.640	-0.210
2020/01/31 20:46:58.2	7.160	0.170	-0.650	-0.220
2020/01/31 20:46:58.3	7.170	0.150	-0.660	-0.240
2020/01/31 20:46:58.4	7.180	0.140	-0.670	-0.260
2020/01/31 20:46:58.5	7.190	0.120	-0.670	-0.280
2020/01/31 20:46:58.6	7.200	0.100	-0.660	-0.300
2020/01/31 20:46:58.7	7.200	0.070	-0.650	-0.320
2020/01/31 20:46:58.8	7.210	0.050	-0.640	-0.340
2020/01/31 20:46:58.9	7.220	0.020	-0.610	-0.370
2020/01/31 20:46:59.0	7.250	-0.000	-0.580	-0.390
2020/01/31 20:46:59.1	7.260	-0.030	-0.550	-0.420
2020/01/31 20:46:59.2	7.270	-0.060	-0.510	-0.440
2020/01/31 20:46:59.3	7.270	-0.100	-0.460	-0.460
2020/01/31 20:46:59.4	7.280	-0.130	-0.410	-0.490
2020/01/31 20:46:59.5	7.290	-0.160	-0.360	-0.510
2020/01/31 20:46:59.6	7.300	-0.200	-0.300	-0.530
2020/01/31 20:46:59.7	7.310	-0.230	-0.240	-0.550
2020/01/31 20:46:59.8	7.310	-0.270	-0.170	-0.560
2020/01/31 20:46:59.9	7.320	-0.300	-0.100	-0.580
2020/01/31 20:47:00.0	7.320	-0.340	-0.030	-0.590
2020/01/31 20:47:00.1	7.320	-0.380	0.040	-0.600
2020/01/31 20:47:00.2	7.330	-0.410	0.120	-0.600
2020/01/31 20:47:00.3	7.330	-0.440	0.190	-0.610
2020/01/31 20:47:00.4	7.330	-0.480	0.270	-0.610
2020/01/31 20:47:00.5	7.330	-0.510	0.340	-0.610
2020/01/31 20:47:00.6	7.320	-0.540	0.410	-0.600
2020/01/31 20:47:00.7	7.320	-0.570	0.480	-0.600
2020/01/31 20:47:00.8	7.310	-0.590	0.550	-0.590
2020/01/31 20:47:00.9	7.300	-0.620	0.610	-0.570
2020/01/31 20:47:01.0	7.260	-0.640	0.670	-0.560
2020/01/31 20:47:01.1	7.250	-0.660	0.730	-0.540
2020/01/31 20:47:01.2	7.230	-0.680	0.780	-0.520
2020/01/31 20:47:01.3	7.210	-0.690	0.830	-0.500
2020/01/31 20:47:01.4	7.180	-0.700	0.870	-0.470
2020/01/31 20:47:01.5	7.160	-0.710	0.900	-0.440
2020/01/31 20:47:01.6	7.130	-0.720	0.930	-0.410
2020/01/31 20:47:01.7	7.100	-0.720	0.950	-0.380
2020/01/31 20:47:01.8	7.070	-0.710	0.970	-0.340
2020/01/31 20:47:01.9	7.030	-0.710	0.970	-0.310
2020/01/31 20:47:02.0	7.000	-0.690	0.970	-0.270
2020/01/31 20:47:02.1	6.960	-0.680	0.950	-0.230
2020/01/31 20:47:02.2	6.920	-0.660	0.930	-0.190
2020/01/31 20:47:02.3	6.880	-0.630	0.900	-0.160
2020/01/31 20:47:02.4	6.850	-0.610	0.870	-0.120
2020/01/31 20:47:02.5	6.810	-0.570	0.820	-0.080
2020/01/31 20:47:02.6	6.770	-0.540	0.760	-0.050
2020/01/31 20:47:02.7	6.730	-0.500	0.700	-0.010
2020/01/31 20:47:02.8	6.700	-0.450	0.620	0.020
2020/01/31 20:47:02.9	6.670	-0.410	0.540	0.050
2020/01/31 20:47:03.0	6.640	-0.360	0.450	0.080
2020/01/31 20:47:03.1	6.620	-0.300	0.350	0.100
2020/01/31 20:47:03.2	6.590	-0.250	0.250	0.120
2020/01/31 20:47:03.3	6.570	-0.190	0.130	0.140
2020/01/31 20:47:03.4	6.550	-0.120	0.020	0.150
2020/01/31 20:47:03.5	6.540	-0.060	-0.100	0.160
2020/01/31 20:47:03.6	6.530	0.000	-0.230	0.170
2020/01/31 20:47:03.7	6.520	0.070	-0.360	0.170
2020/01/31 20:47:03.8	6.510	0.140	-0.490	0.170
2020/01/31 20:47:03.9	6.510	0.200	-0.620	0.160
2020/01/31 20:47:04.0	6.520	0.270	-0.740	0.160
2020/01/31 20:47:04.1	6.520	0.340	-0.870	0.150
2020/01/31 20:47:04.2	6.520	0.400	-1.000	0.130
2020/01/31 20:47:04.3	6.530	0.460	-1.120	0.120
2020/01/31 20:47:04.4	6.530	0.520	-1.230	0.100
2020/01/31 20:47:04.5	6.540	0.580	-1.340	0.090
2020/01/31 20:47:04.6	6.550	0.630	-1.440	0.070
2020/01/31 20:47:04.7	6.550	0.680	-1.530	0.050
2020/01/31 20:47:04.8	6.560	0.730	-1.610	0.030
2020/01/31 20:47:04.9	6.570	0.770	-1.690	0.010
2020/01/31 20:47:05.0	6.570	0.800	-1.750	-0.010
2020/01/31 20:47:05.1	6.580	0.830	-1.790	-0.030
2020/01/31 20:47:05.2	6.590	0.860	-1.830	-0.050
2020/01/31 20:47:05.3	6.590	0.870	-1.850	-0.070
2020/01/31 20:47:05.4	6.600	0.880	-1.860	-0.090
2020/01/31 20:47:05.5	6.600	0.890	-1.860	-0.110
2020/01/31 20:47:05.6	6.610	0.890	-1.840	-0.130
2020/01/31 20:47:05.7	6.620	0.880	-1.810	-0.140
2020/01/31 20:47:05.8	6.620	0.870	-1.770	-0.160
2020/01/31 20:47:05.9	6.630	0.850	-1.720	-0.180
2020/01/31 20:47:06.0	6.650	0.830	-1.660	-0.190
2020/01/31 20:47:06.1	6.650	0.800	-1.580	-0.210
2020/01/31 20:47:06.2	6.660	0.760	-1.500	-0.220
2020/01/31 20:47:06.3	6.670	0.720	-1.410	-0.230
2020/01/31 20:47:06.4	6.680	0.680	-1.320	-0.240
2020/01/31 20:47:06.5	6.690	0.630	-1.220	-0.260
2020/01/31 20:47:06.6	6.710	0.580	-1.120	-0.270
2020/01/31 20:47:06.7	6.720	0.530	-1.010	-0.280
2020/01/31 20:47:06.8	6.740	0.470	-0.900	-0.290
2020/01/31 20:47:06.9	6.750	0.410	-0.790	-0.300
2020/01/31 20:47:07.0	6.780	0.350	-0.680	-0.310
2020/01/31 20:47:07.1	6.800	0.290	-0.580	-0.320
2020/01/31 20:47:07.2	6.820	0.230	-0.470	-0.340
2020/01/31 20:47:07.3	6.850	0.170	-0.370	-0.350
2020/01/31 20:47:07.4	6.870	0.110	-0.270	-0.360
2020/01/31 20:47:07.5	6.900	0.050	-0.180	-0.370
2020/01/31 20:47:07.6	6.920	-0.010	-0.090	-0.390
2020/01/31 20:47:07.7	6.950	-0.070	-0.010	-0.400
2020/01/31 20:47:07.8	6.970	-0.120	0.070	-0.410
2020/01/31 20:47:07.9	7.000	-0.180	0.150	-0.430
2020/01/31 20:47:08.0	7.020	-0.230	0.220	-0.440
2020/01/31 20:47:08.1	7.040	-0.280	0.280	-0.450
2020/01/31 20:47:08.2	7.060	-0.330	0.340	-0.460
2020/01/31 20:47:08.3	7.080	-0.370	0.390	-0.470
2020/01/31 20:47:08.4	7.100	-0.410	0.430	-0.480
2020/01/31 20:47:08.5	7.120	-0.450	0.470	-0.490
2020/01/31 20:47:08.6	7.140	-0.480	0.510	-0.500
2020/01/31 20:47:08.7	7.150	-0.510	0.540	-0.510
2020/01/31 20:47:08.8	7.160	-0.540	0.560	-0.510
2020/01/31 20:47:08.9	7.170	-0.560	0.580	-0.510
2020/01/31 20:47:09.0	7.160	-0.580	0.600	-0.510
2020/01/31 20:47:09.1	7.170	-0.590	0.610	-0.510
2020/01/31 20:47:09.2	7.180	-0.600	0.620	-0.510
2020/01/31 20:47:09.3	7.180	-0.610	0.620	-0.500
2020/01/31 20:47:09.4	7.180	-0.610	0.620	-0.490
2020/01/31 20:47:09.5	7.180	-0.610	0.620	-0.470
2020/01/31 20:47:09.6	7.180	-0.600	0.610	-0.450
2020/01/31 20:47:09.7	7.180	-0.600	0.600	-0.430
2020/01/31 20:47:09.8	7.180	-0.580	0.590	-0.410
2020/01/31 20:47:09.9	7.170	-0.570	0.570	-0.390
2020/01/31 20:47:10.0	7.170	-0.550	0.550	-0.360
2020/01/31 20:47:10.1	7.160	-0.530	0.530	-0.330
2020/01/31 20:47:10.2	7.150	-0.510	0.510	-0.290
2020/01/31 20:47:10.3	7.140	-0.480	0.490	-0.260
2020/01/31 20:47:10.4	7.130	-0.450	0.460	-0.220
2020/01/31 20:47:10.5	7.120	-0.420	0.430	-0.180
2020/01/31 20:47:10.6	7.110	-0.390	0.400	-0.140
2020/01/31 20:47:10.7	7.090	-0.360	0.370	-0.110
2020/01/31 20:47:10.8	7.080	-0.330	0.340	-0.070
2020/01/31 20:47:10.9	7.070	-0.290	0.300	-0.030
2020/01/31 20:47:11.0	7.050	-0.250	0.270	0.010
2020/01/31 20:47:11.1	7.030	-0.220	0.230	0.040
2020/01/31 20:47:11.2	7.020	-0.180	0.190	0.070
2020/01/31 20:47:11.3	7.010	-0.150	0.150	0.100
2020/01/31 20:47:11.4	6.990	-0.110	0.110	0.130
2020/01/31 20:47:11.5	6.980	-0.070	0.070	0.160
2020/01/31 20:47:11.6	6.960	-0.040	0.030	0.190
2020/01/31 20:47:11.7	6.950	-0.000	-0.010	0.210
2020/01/31 20:47:11.8	6.940	0.030	-0.050	0.240
2020/01/31 20:47:11.9	6.920	0.060	-0.090	0.260
2020/01/31 20:47:12.0	6.910	0.090	-0.130	0.280
2020/01/31 20:47:12.1	6.900	0.120	-0.160	0.300
2020/01/31 20:47:12.2	6.880	0.150	-0.200	0.320
2020/01/31 20:47:12.3	6.860	0.180	-0.240	0.340
2020/01/31 20:47:12.4	6.850	0.200	-0.270	0.360
2020/01/31 20:47:12.5	6.830	0.220	-0.300	0.380
2020/01/31 20:47:12.6	6.810	0.240	-0.330	0.390
2020/01/31 20:47:12.7	6.790	0.260	-0.360	0.410
2020/01/31 20:47:12.8	6.770	0.270	-0.390	0.430
2020/01/31 20:47:12.9	6.740	0.280	-0.410	0.440
2020/01/31 20:47:13.0	6.730	0.290	-0.440	0.460
2020/01/31 20:47:13.1	6.700	0.300	-0.450	0.470
2020/01/31 20:47:13.2	6.670	0.300	-0.470	0.480
2020/01/31 20:47:13.3	6.650	0.300	-0.490	0.480
2020/01/31 20:47:13.4	6.620	0.300	-0.500	0.480
2020/01/31 20:47:13.5	6.590	0.300	-0.510	0.480
2020/01/31 20:47:13.6	6.560	0.290	-0.520	0.480
2020/01/31 20:47:13.7	6.520	0.280	-0.520	0.470
2020/01/31 20:47:13.8	6.490	0.270	-0.520	0.460
2020/01/31 20:47:13.9	6.460	0.250	-0.530	0.440
2020/01/31 20:47:14.0	6.440	0.240	-0.530	0.420
2020/01/31 20:47:14.1	6.400	0.220	-0.520	0.390
2020/01/31 20:47:14.2	6.370	0.200	-0.520	0.370
2020/01/31 20:47:14.3	6.340	0.180	-0.510	0.340
2020/01/31 20:47:14.4	6.310	0.160	-0.510	0.300
2020/01/31 20:47:14.5	6.290	0.140	-0.500	0.270
2020/01/31 20:47:14.6	6.260	0.120	-0.490	0.230
2020/01/31 20:47:14.7	6.240	0.100	-0.490	0.190
2020/01/31 20:47:14.8	6.220	0.080	-0.480	0.150
2020/01/31 20:47:14.9	6.200	0.060	-0.470	0.100
2020/01/31 20:47:15.0	6.180	0.050	-0.460	0.060
2020/01/31 20:47:15.1	6.160	0.030	-0.450	0.010
2020/01/31 20:47:15.2	6.150	0.010	-0.450	-0.040
2020/01/31 20:47:15.3	6.150	0.000	-0.440	-0.090
2020/01/31 20:47:15.4	6.150	-0.010	-0.440	-0.140
2020/01/31 20:47:15.5	6.150	-0.020	-0.430	-0.190
2020/01/31 20:47:15.6	6.160	-0.030	-0.430	-0.250
2020/01/31 20:47:15.7	6.170	-0.040	-0.430	-0.300
2020/01/31 20:47:15.8	6.190	-0.040	-0.430	-0.360
2020/01/31 20:47:15.9	6.210	-0.040	-0.440	-0.420
2020/01/31 20:47:16.0	6.230	-0.040	-0.440	-0.480
2020/01/31 20:47:16.1	6.260	-0.040	-0.450	-0.540
2020/01/31 20:47:16.2	6.300	-0.040	-0.460	-0.590
2020/01/31 20:47:16.3	6.340	-0.030	-0.470	-0.650
2020/01/31 20:47:16.4	6.380	-0.020	-0.480	-0.710
2020/01/31 20:47:16.5	6.420	-0.010	-0.490	-0.770
2020/01/31 20:47:16.6	6.470	-0.000	-0.510	-0.820
2020/01/31 20:47:16.7	6.520	0.010	-0.520	-0.880
2020/01/31 20:47:16.8	6.570	0.020	-0.530	-0.930
2020/01/31 20:47:16.9	6.620	0.030	-0.540	-0.980
2020/01/31 20:47:17.0	6.670	0.050	-0.560	-1.030
2020/01/31 20:47:17.1	6.720	0.060	-0.560	-1.070
2020/01/31 20:47:17.2	6.780	0.070	-0.570	-1.110
2020/01/31 20:47:17.3	6.830	0.090	-0.580	-1.140
2020/01/31 20:47:17.4	6.880	0.100	-0.580	-1.170
2020/01/31 20:47:17.5	6.930	0.110	-0.580	-1.200
2020/01/31 20:47:17.6	6.980	0.120	-0.580	-1.220
2020/01/31 20:47:17.7	7.020	0.130	-0.570	-1.230
2020/01/31 20:47:17.8	7.070	0.140	-0.560	-1.240
2020/01/31 20:47:17.9	7.110	0.140	-0.550	-1.240
2020/01/31 20:47:18.0	7.160	0.150	-0.540	-1.230
2020/01/31 20:47:18.1	7.190	0.150	-0.520	-1.220
2020/01/31 20:47:18.2	7.230	0.160	-0.500	-1.200
2020/01/31 20:47:18.3	7.260	0.160	-0.480	-1.180
2020/01/31 20:47:18.4	7.280	0.160	-0.460	-1.160
2020/01/31 20:47:18.5	7.310	0.150	-0.440	-1.130
2020/01/31 20:47:18.6	7.330	0.150	-0.420	-1.090
2020/01/31 20:47:18.7	7.340	0.150	-0.390	-1.060
2020/01/31 20:47:18.8	7.360	0.140	-0.370	-1.020
2020/01/31 20:47:18.9	7.370	0.130	-0.350	-0.980
2020/01/31 20:47:19.0	7.380	0.120	-0.330	-0.930
2020/01/31 20:47:19.1	7.390	0.110	-0.310	-0.880
2020/01/31 20:47:19.2	7.390	0.100	-0.290	-0.840
2020/01/31 20:47:19.3	7.390	0.090	-0.270	-0.790
2020/01/31 20:47:19.4	7.390	0.070	-0.250	-0.740
2020/01/31 20:47:19.5	7.390	0.060	-0.230	-0.700
2020/01/31 20:47:19.6	7.390	0.040	-0.220	-0.650
2020/01/31 20:47:19.7	7.380	0.030	-0.210	-0.610
2020/01/31 20:47:19.8	7.370	0.010	-0.190	-0.570
2020/01/31 20:47:19.9	7.360	-0.010	-0.180	-0.530
2020/01/31 20:47:20.0	7.360	-0.020	-0.170	-0.490
2020/01/31 20:47:20.1	7.340	-0.040	-0.170	-0.450
2020/01/31 20:47:20.2	7.330	-0.050	-0.160	-0.420
2020/01/31 20:47:20.3	7.310	-0.070	-0.150	-0.380
2020/01/31 20:47:20.4	7.300	-0.080	-0.140	-0.350
2020/01/31 20:47:20.5	7.280	-0.100	-0.130	-0.320
2020/01/31 20:47:20.6	7.260	-0.110	-0.120	-0.290
2020/01/31 20:47:20.7	7.240	-0.130	-0.110	-0.260
2020/01/31 20:47:20.8	7.210	-0.140	-0.090	-0.230
2020/01/31 20:47:20.9	7.190	-0.150	-0.080	-0.200
2020/01/31 20:47:21.0	7.170	-0.160	-0.070	-0.180
2020/01/31 20:47:21.1	7.140	-0.170	-0.050	-0.150
2020/01/31 20:47:21.2	7.110	-0.180	-0.030	-0.130
2020/01/31 20:47:21.3	7.080	-0.190	-0.010	-0.110
2020/01/31 20:47:21.4	7.050	-0.190	0.010	-0.090
2020/01/31 20:47:21.5	7.020	-0.200	0.030	-0.070
2020/01/31 20:47:21.6	6.990	-0.200	0.050	-0.050
2020/01/31 20:47:21.7	6.960	-0.210	0.070	-0.040
2020/01/31 20:47:21.8	6.930	-0.210	0.100	-0.030
2020/01/31 20:47:21.9	6.900	-0.220	0.120	-0.010
2020/01/31 20:47:22.0	6.850	-0.220	0.140	-0.010
2020/01/31 20:47:22.1	6.820	-0.220	0.160	0.000
2020/01/31 20:47:22.2	6.780	-0.220	0.190	0.010
2020/01/31 20:47:22.3	6.750	-0.230	0.210	0.020
2020/01/31 20:47:22.4	6.710	-0.230	0.230	0.030
2020/01/31 20:47:22.5	6.670	-0.220	0.240	0.030
2020/01/31 20:47:22.6	6.640	-0.220	0.260	0.040
2020/01/31 20:47:22.7	6.600	-0.220	0.270	0.050
2020/01/31 20:47:22.8	6.560	-0.220	0.280	0.050
2020/01/31 20:47:22.9	6.530	-0.220	0.290	0.050
2020/01/31 20:47:23.0	6.490	-0.210	0.290	0.050
2020/01/31 20:47:23.1	6.460	-0.210	0.290	0.060
2020/01/31 20:47:23.2	6.430	-0.200	0.290	0.060
2020/01/31 20:47:23.3	6.400	-0.190	0.280	0.060
2020/01/31 20:47:23.4	6.380	-0.180	0.260	0.050
2020/01/31 20:47:23.5	6.350	-0.170	0.250	0.050
2020/01/31 20:47:23.6	6.330	-0.160	0.230	0.040
2020/01/31 20:47:23.7	6.310	-0.150	0.200	0.030
2020/01/31 20:47:23.8	6.300	-0.140	0.170	0.020
2020/01/31 20:47:23.9	6.280	-0.130	0.140	0.010
2020/01/31 20:47:24.0	6.270	-0.110	0.100	-0.000
2020/01/31 20:47:24.1	6.270	-0.100	0.060	-0.020
2020/01/31 20:47:24.2	6.260	-0.080	0.020	-0.040
2020/01/31 20:47:24.3	6.260	-0.070	-0.020	-0.060
2020/01/31 20:47:24.4	6.270	-0.050	-0.070	-0.080
2020/01/31 20:47:24.5	6.280	-0.030	-0.110	-0.100
2020/01/31 20:47:24.6	6.290	-0.020	-0.160	-0.130
2020/01/31 20:47:24.7	6.300	0.000	-0.210	-0.160
2020/01/31 20:47:24.8	6.320	0.020	-0.260	-0.190
2020/01/31 20:47:24.9	6.340	0.040	-0.310	-0.210
2020/01/31 20:47:25.0	6.370	0.060	-0.350	-0.250
2020/01/31 20:47:25.1	6.400	0.070	-0.400	-0.270
2020/01/31 20:47:25.2	6.420	0.090	-0.440	-0.300
2020/01/31 20:47:25.3	6.450	0.110	-0.480	-0.320
2020/01/31 20:47:25.4	6.480	0.120	-0.520	-0.340
2020/01/31 20:47:25.5	6.510	0.130	-0.550	-0.370
2020/01/31 20:47:25.6	6.540	0.150	-0.580	-0.380
2020/01/31 20:47:25.7	6.570	0.160	-0.600	-0.400
2020/01/31 20:47:25.8	6.610	0.160	-0.620	-0.410
2020/01/31 20:47:25.9	6.640	0.170	-0.640	-0.420
2020/01/31 20:47:26.0	6.670	0.180	-0.650	-0.430
2020/01/31 20:47:26.1	6.700	0.180	-0.660	-0.430
2020/01/31 20:47:26.2	6.740	0.180	-0.660	-0.440
2020/01/31 20:47:26.3	6.770	0.180	-0.660	-0.440
2020/01/31 20:47:26.4	6.800	0.180	-0.650	-0.440
2020/01/31 20:47:26.5	6.830	0.170	-0.640	-0.440
2020/01/31 20:47:26.6	6.870	0.160	-0.630	-0.430
2020/01/31 20:47:26.7	6.900	0.160	-0.610	-0.430
2020/01/31 20:47:26.8	6.930	0.150	-0.600	-0.420
2020/01/31 20:47:26.9	6.950	0.130	-0.580	-0.420
2020/01/31 20:47:27.0	6.980	0.120	-0.560	-0.410
2020/01/31 20:47:27.1	7.000	0.110	-0.540	-0.400
2020/01/31 20:47:27.2	7.030	0.090	-0.520	-0.390
2020/01/31 20:47:27.3	7.050	0.080	-0.500	-0.380
2020/01/31 20:47:27.4	7.070	0.060	-0.480	-0.370
2020/01/31 20:47:27.5	7.090	0.040	-0.460	-0.360
2020/01/31 20:47:27.6	7.110	0.030	-0.440	-0.350
2020/01/31 20:47:27.7	7.120	0.010	-0.430	-0.340
2020/01/31 20:47:27.8	7.140	-0.000	-0.410	-0.330
2020/01/31 20:47:27.9	7.150	-0.020	-0.400	-0.320
2020/01/31 20:47:28.0	7.190	-0.030	-0.400	-0.310
2020/01/31 20:47:28.1	7.200	-0.050	-0.390	-0.300
2020/01/31 20:47:28.2	7.200	-0.060	-0.380	-0.300
2020/01/31 20:47:28.3	7.210	-0.070	-0.380	-0.290
2020/01/31 20:47:28.4	7.210	-0.080	-0.380	-0.280
2020/01/31 20:47:28.5	7.210	-0.080	-0.380	-0.270
2020/01/31 20:47:28.6	7.210	-0.090	-0.390	-0.260
2020/01/31 20:47:28.7	7.210	-0.090	-0.390	-0.260
2020/01/31 20:47:28.8	7.210	-0.090	-0.400	-0.250
2020/01/31 20:47:28.9	7.210	-0.090	-0.410	-0.240
2020/01/31 20:47:29.0	7.210	-0.080	-0.420	-0.240
2020/01/31 20:47:29.1	7.210	-0.080	-0.440	-0.230
2020/01/31 20:47:29.2	7.210	-0.070	-0.450	-0.230
2020/01/31 20:47:29.3	7.200	-0.060	-0.470	-0.230
2020/01/31 20:47:29.4	7.200	-0.050	-0.490	-0.230
2020/01/31 20:47:29.5	7.200	-0.040	-0.500	-0.230
2020/01/31 20:47:29.6	7.200	-0.030	-0.520	-0.230
2020/01/31 20:47:29.7	7.200	-0.010	-0.530	-0.230
2020/01/31 20:47:29.8	7.200	-0.000	-0.550	-0.240
2020/01/31 20:47:29.9	7.200	0.020	-0.560	-0.240
2020/01/31 20:47:30.0	7.190	0.030	-0.580	-0.250
2020/01/31 20:47:30.1	7.190	0.050	-0.590	-0.260
2020/01/31 20:47:30.2	7.200	0.060	-0.600	-0.280
2020/01/31 20:47:30.3	7.200	0.080	-0.610	-0.290
2020/01/31 20:47:30.4	7.200	0.090	-0.610	-0.300
2020/01/31 20:47:30.5	7.210	0.100	-0.610	-0.320
2020/01/31 20:47:30.6	7.210	0.120	-0.610	-0.330
2020/01/31 20:47:30.7	7.210	0.130	-0.600	-0.350
2020/01/31 20:47:30.8	7.220	0.140	-0.590	-0.360
2020/01/31 20:47:30.9	7.220	0.150	-0.580	-0.380
2020/01/31 20:47:31.0	7.220	0.150	-0.560	-0.390
2020/01/31 20:47:31.1	7.220	0.160	-0.530	-0.400
2020/01/31 20:47:31.2	7.220	0.160	-0.510	-0.410
2020/01/31 20:47:31.3	7.210	0.160	-0.470	-0.420
2020/01/31 20:47:31.4	7.210	0.160	-0.440	-0.420
2020/01/31 20:47:31.5	7.200	0.150	-0.390	-0.420
2020/01/31 20:47:31.6	7.190	0.150	-0.350	-0.430
2020/01/31 20:47:31.7	7.180	0.140	-0.300	-0.430
2020/01/31 20:47:31.8	7.160	0.130	-0.250	-0.430
2020/01/31 20:47:31.9	7.150	0.120	-0.190	-0.420
2020/01/31 20:47:32.0	7.140	0.110	-0.140	-0.420
2020/01/31 20:47:32.1	7.120	0.090	-0.080	-0.410
2020/01/31 20:47:32.2	7.100	0.070	-0.020	-0.400
2020/01/31 20:47:32.3	7.080	0.060	0.040	-0.390
2020/01/31 20:47:32.4	7.060	0.040	0.100	-0.380
2020/01/31 20:47:32.5	7.040	0.020	0.160	-0.370
2020/01/31 20:47:32.6	7.020	-0.000	0.220	-0.360
2020/01/31 20:47:32.7	7.000	-0.020	0.280	-0.340
2020/01/31 20:47:32.8	6.980	-0.040	0.330	-0.330
2020/01/31 20:47:32.9	6.960	-0.060	0.380	-0.310
2020/01/31 20:47:33.0	6.940	-0.080	0.430	-0.300
2020/01/31 20:47:33.1	6.920	-0.090	0.470	-0.280
2020/01/31 20:47:33.2	6.900	-0.110	0.520	-0.270
2020/01/31 20:47:33.3	6.880	-0.120	0.550	-0.250
2020/01/31 20:47:33.4	6.860	-0.130	0.580	-0.230
2020/01/31 20:47:33.5	6.850	-0.140	0.600	-0.210
2020/01/31 20:47:33.6	6.830	-0.150	0.620	-0.190
2020/01/31 20:47:33.7	6.810	-0.160	0.630	-0.170
2020/01/31 20:47:33.8	6.790	-0.160	0.640	-0.150
2020/01/31 20:47:33.9	6.780	-0.160	0.640	-0.130
2020/01/31 20:47:34.0	6.750	-0.160	0.630	-0.110
2020/01/31 20:47:34.1	6.740	-0.160	0.620	-0.090
2020/01/31 20:47:34.2	6.730	-0.150	0.600	-0.070
2020/01/31 20:47:34.3	6.720	-0.140	0.570	-0.060
2020/01/31 20:47:34.4	6.710	-0.130	0.540	-0.040
2020/01/31 20:47:34.5	6.700	-0.120	0.510	-0.020
2020/01/31 20:47:34.6	6.690	-0.110	0.460	-0.010
2020/01/31 20:47:34.7	6.690	-0.090	0.420	0.010
2020/01/31 20:47:34.8	6.680	-0.080	0.370	0.020
2020/01/31 20:47:34.9	6.680	-0.060	0.310	0.030
2020/01/31 20:47:35.0	6.680	-0.040	0.250	0.040
2020/01/31 20:47:35.1	6.670	-0.020	0.190	0.050
2020/01/31 20:47:35.2	6.670	-0.010	0.130	0.060
2020/01/31 20:47:35.3	6.670	0.010	0.060	0.060
2020/01/31 20:47:35.4	6.660	0.030	-0.010	0.060
2020/01/31 20:47:35.5	6.660	0.040	-0.070	0.060
2020/01/31 20:47:35.6	6.670	0.060	-0.140	0.060
2020/01/31 20:47:35.7	6.670	0.070	-0.210	0.050
2020/01/31 20:47:35.8	6.670	0.080	-0.280	0.040
2020/01/31 20:47:35.9	6.670	0.090	-0.350	0.030
2020/01/31 20:47:36.0	6.680	0.100	-0.420	0.020
2020/01/31 20:47:36.1	6.690	0.110	-0.480	0.010
2020/01/31 20:47:36.2	6.700	0.110	-0.550	-0.010
2020/01/31 20:47:36.3	6.710	0.120	-0.610	-0.020
2020/01/31 20:47:36.4	6.730	0.120	-0.670	-0.040
2020/01/31 20:47:36.5	6.750	0.120	-0.730	-0.070
2020/01/31 20:47:36.6	6.770	0.120	-0.790	-0.090
2020/01/31 20:47:36.7	6.790	0.110	-0.840	-0.110
2020/01/31 20:47:36.8	6.820	0.110	-0.890	-0.140
2020/01/31 20:47:36.9	6.850	0.100	-0.940	-0.170
2020/01/31 20:47:37.0	6.880	0.090	-0.980	-0.200
2020/01/31 20:47:37.1	6.910	0.080	-1.020	-0.230
2020/01/31 20:47:37.2	6.950	0.070	-1.050	-0.260
2020/01/31 20:47:37.3	6.990	0.050	-1.080	-0.300
2020/01/31 20:47:37.4	7.020	0.040	-1.100	-0.330
2020/01/31 20:47:37.5	7.060	0.020	-1.110	-0.360
2020/01/31 20:47:37.6	7.100	0.000	-1.120	-0.390
2020/01/31 20:47:37.7	7.130	-0.020	-1.120	-0.420
2020/01/31 20:47:37.8	7.170	-0.040	-1.120	-0.450
2020/01/31 20:47:37.9	7.200	-0.060	-1.110	-0.470
2020/01/31 20:47:38.0	7.230	-0.080	-1.090	-0.500
2020/01/31 20:47:38.1	7.260	-0.100	-1.070	-0.520
2020/01/31 20:47:38.2	7.280	-0.130	-1.040	-0.540
2020/01/31 20:47:38.3	7.310	-0.150	-1.000	-0.560
2020/01/31 20:47:38.4	7.330	-0.170	-0.960	-0.570
2020/01/31 20:47:38.5	7.350	-0.190	-0.920	-0.590
2020/01/31 20:47:38.6	7.370	-0.220	-0.870	-0.600
2020/01/31 20:47:38.7	7.380	-0.240	-0.810	-0.600
2020/01/31 20:47:38.8	7.390	-0.260	-0.750	-0.610
2020/01/31 20:47:38.9	7.410	-0.280	-0.690	-0.610
2020/01/31 20:47:39.0	7.410	-0.290	-0.620	-0.610
2020/01/31 20:47:39.1	7.420	-0.310	-0.560	-0.610
2020/01/31 20:47:39.2	7.420	-0.320	-0.490	-0.600
2020/01/31 20:47:39.3	7.430	-0.340	-0.420	-0.600
2020/01/31 20:47:39.4	7.440	-0.350	-0.350	-0.590
2020/01/31 20:47:39.5	7.440	-0.360	-0.280	-0.580
2020/01/31 20:47:39.6	7.450	-0.360	-0.220	-0.570
2020/01/31 20:47:39.7	7.450	-0.370	-0.150	-0.560
2020/01/31 20:47:39.8	7.450	-0.370	-0.090	-0.560
2020/01/31 20:47:39.9	7.460	-0.370	-0.030	-0.540
2020/01/31 20:47:40.0	7.470	-0.360	0.020	-0.530
2020/01/31 20:47:40.1	7.470	-0.360	0.080	-0.520
2020/01/31 20:47:40.2	7.470	-0.350	0.130	-0.510
2020/01/31 20:47:40.3	7.480	-0.330	0.170	-0.490
2020/01/31 20:47:40.4	7.480	-0.320	0.210	-0.480
2020/01/31 20:47:40.5	7.480	-0.300	0.250	-0.460
2020/01/31 20:47:40.6	7.480	-0.280	0.280	-0.440
2020/01/31 20:47:40.7	7.480	-0.260	0.310	-0.420
2020/01/31 20:47:40.8	7.470	-0.230	0.330	-0.400
2020/01/31 20:47:40.9	7.470	-0.200	0.350	-0.370
2020/01/31 20:47:41.0	7.460	-0.170	0.360	-0.340
2020/01/31 20:47:41.1	7.460	-0.140	0.370	-0.310
2020/01/31 20:47:41.2	7.450	-0.110	0.370	-0.280
2020/01/31 20:47:41.3	7.440	-0.080	0.380	-0.240
2020/01/31 20:47:41.4	7.430	-0.040	0.370	-0.210
2020/01/31 20:47:41.5	7.420	-0.000	0.370	-0.170
2020/01/31 20:47:41.6	7.400	0.030	0.360	-0.130
2020/01/31 20:47:41.7	7.390	0.070	0.340	-0.090
2020/01/31 20:47:41.8	7.370	0.110	0.320	-0.050
2020/01/31 20:47:41.9	7.360	0.140	0.300	-0.010
2020/01/31 20:47:42.0	7.340	0.180	0.280	0.040
2020/01/31 20:47:42.1	7.320	0.220	0.250	0.090
2020/01/31 20:47:42.2	7.300	0.250	0.220	0.130
2020/01/31 20:47:42.3	7.280	0.280	0.190	0.180
2020/01/31 20:47:42.4	7.250	0.320	0.150	0.220
2020/01/31 20:47:42.5	7.220	0.350	0.120	0.260
2020/01/31 20:47:42.6	7.190	0.380	0.080	0.310
2020/01/31 20:47:42.7	7.160	0.400	0.040	0.350
2020/01/31 20:47:42.8	7.130	0.430	-0.000	0.390
2020/01/31 20:47:42.9	7.090	0.450	-0.050	0.430
2020/01/31 20:47:43.0	7.060	0.470	-0.090	0.470
2020/01/31 20:47:43.1	7.020	0.480	-0.130	0.500
2020/01/31 20:47:43.2	6.980	0.500	-0.170	0.530
2020/01/31 20:47:43.3	6.940	0.510	-0.220	0.550
2020/01/31 20:47:43.4	6.900	0.520	-0.260	0.570
2020/01/31 20:47:43.5	6.860	0.520	-0.300	0.590
2020/01/31 20:47:43.6	6.820	0.530	-0.340	0.600
2020/01/31 20:47:43.7	6.780	0.530	-0.380	0.610
2020/01/31 20:47:43.8	6.750	0.530	-0.420	0.620
2020/01/31 20:47:43.9	6.710	0.520	-0.460	0.620
2020/01/31 20:47:44.0	6.670	0.520	-0.490	0.620
2020/01/31 20:47:44.1	6.640	0.510	-0.530	0.610
2020/01/31 20:47:44.2	6.610	0.500	-0.560	0.590
2020/01/31 20:47:44.3	6.580	0.480	-0.590	0.580
2020/01/31 20:47:44.4	6.560	0.470	-0.620	0.560
2020/01/31 20:47:44.5	6.540	0.450	-0.650	0.530
2020/01/31 20:47:44.6	6.520	0.440	-0.680	0.500
2020/01/31 20:47:44.7	6.510	0.420	-0.700	0.470
2020/01/31 20:47:44.8	6.500	0.400	-0.730	0.440
2020/01/31 20:47:44.9	6.490	0.380	-0.750	0.400
2020/01/31 20:47:45.0	6.490	0.360	-0.770	0.350
2020/01/31 20:47:45.1	6.490	0.340	-0.790	0.310
2020/01/31 20:47:45.2	6.490	0.310	-0.800	0.260
2020/01/31 20:47:45.3	6.500	0.290	-0.810	0.210
2020/01/31 20:47:45.4	6.510	0.260	-0.830	0.150
2020/01/31 20:47:45.5	6.530	0.240	-0.830	0.090
2020/01/31 20:47:45.6	6.540	0.210	-0.840	0.030
2020/01/31 20:47:45.7	6.560	0.180	-0.840	-0.030
2020/01/31 20:47:45.8	6.590	0.160	-0.840	-0.090
2020/01/31 20:47:45.9	6.610	0.130	-0.840	-0.160
2020/01/31 20:47:46.0	6.640	0.100	-0.840	-0.230
2020/01/31 20:47:46.1	6.670	0.070	-0.830	-0.290
2020/01/31 20:47:46.2	6.710	0.040	-0.820	-0.360
2020/01/31 20:47:46.3	6.740	0.010	-0.800	-0.430
2020/01/31 20:47:46.4	6.770	-0.030	-0.780	-0.500
2020/01/31 20:47:46.5	6.810	-0.060	-0.760	-0.570
2020/01/31 20:47:46.6	6.840	-0.090	-0.730	-0.640
2020/01/31 20:47:46.7	6.870	-0.130	-0.710	-0.710
2020/01/31 20:47:46.8	6.910	-0.160	-0.670	-0.770
2020/01/31 20:47:46.9	6.940	-0.190	-0.640	-0.830
2020/01/31 20:47:47.0	6.980	-0.230	-0.600	-0.890
2020/01/31 20:47:47.1	7.010	-0.260	-0.550	-0.940
2020/01/31 20:47:47.2	7.040	-0.290	-0.510	-0.990
2020/01/31 20:47:47.3	7.060	-0.320	-0.460	-1.030
2020/01/31 20:47:47.4	7.090	-0.350	-0.410	-1.070
2020/01/31 20:47:47.5	7.110	-0.380	-0.350	-1.100
2020/01/31 20:47:47.6	7.140	-0.410	-0.300	-1.130
2020/01/31 20:47:47.7	7.160	-0.430	-0.240	-1.150
2020/01/31 20:47:47.8	7.180	-0.460	-0.190	-1.160
2020/01/31 20:47:47.9	7.200	-0.480	-0.130	-1.160
2020/01/31 20:47:48.0	7.210	-0.500	-0.070	-1.170
2020/01/31 20:47:48.1	7.220	-0.510	-0.010	-1.160
2020/01/31 20:47:48.2	7.240	-0.530	0.040	-1.150
2020/01/31 20:47:48.3	7.250	-0.540	0.100	-1.130
2020/01/31 20:47:48.4	7.270	-0.550	0.150	-1.110
2020/01/31 20:47:48.5	7.280	-0.550	0.200	-1.080
2020/01/31 20:47:48.6	7.290	-0.560	0.240	-1.050
2020/01/31 20:47:48.7	7.310	-0.560	0.280	-1.020
2020/01/31 20:47:48.8	7.320	-0.550	0.320	-0.980
2020/01/31 20:47:48.9	7.330	-0.540	0.350	-0.940
2020/01/31 20:47:49.0	7.330	-0.530	0.370	-0.890
2020/01/31 20:47:49.1	7.340	-0.510	0.390	-0.850
2020/01/31 20:47:49.2	7.350	-0.490	0.410	-0.800
2020/01/31 20:47:49.3	7.360	-0.470	0.420	-0.750
2020/01/31 20:47:49.4	7.360	-0.450	0.420	-0.690
2020/01/31 20:47:49.5	7.370	-0.420	0.420	-0.640
2020/01/31 20:47:49.6	7.380	-0.380	0.410	-0.590
2020/01/31 20:47:49.7	7.380	-0.350	0.400	-0.530
2020/01/31 20:47:49.8	7.380	-0.310	0.390	-0.480
2020/01/31 20:47:49.9	7.390	-0.270	0.370	-0.420
2020/01/31 20:47:50.0	7.390	-0.220	0.340	-0.370
2020/01/31 20:47:50.1	7.380	-0.180	0.320	-0.310
2020/01/31 20:47:50.2	7.380	-0.130	0.290	-0.250
2020/01/31 20:47:50.3	7.380	-0.090	0.260	-0.200
2020/01/31 20:47:50.4	7.370	-0.040	0.230	-0.150
2020/01/31 20:47:50.5	7.360	0.010	0.190	-0.090
2020/01/31 20:47:50.6	7.350	0.050	0.160	-0.040
2020/01/31 20:47:50.7	7.340	0.100	0.120	0.010
2020/01/31 20:47:50.8	7.330	0.140	0.080	0.060
2020/01/31 20:47:50.9	7.310	0.180	0.050	0.100
2020/01/31 20:47:51.0	7.280	0.220	0.010	0.150
2020/01/31 20:47:51.1	7.260	0.260	-0.030	0.190
2020/01/31 20:47:51.2	7.250	0.300	-0.060	0.230
2020/01/31 20:47:51.3	7.220	0.330	-0.100	0.280
2020/01/31 20:47:51.4	7.200	0.360	-0.130	0.310
2020/01/31 20:47:51.5	7.180	0.380	-0.160	0.350
2020/01/31 20:47:51.6	7.150	0.400	-0.190	0.390
2020/01/31 20:47:51.7	7.130	0.420	-0.220	0.430
2020/01/31 20:47:51.8	7.100	0.430	-0.250	0.460
2020/01/31 20:47:51.9	7.070	0.430	-0.280	0.490
2020/01/31 20:47:52.0	7.030	0.440	-0.300	0.520
2020/01/31 20:47:52.1	7.000	0.430	-0.320	0.550
2020/01/31 20:47:52.2	6.970	0.430	-0.340	0.570
2020/01/31 20:47:52.3	6.930	0.420	-0.360	0.590
2020/01/31 20:47:52.4	6.900	0.400	-0.380	0.600
2020/01/31 20:47:52.5	6.870	0.380	-0.400	0.610
2020/01/31 20:47:52.6	6.830	0.360	-0.410	0.620
2020/01/31 20:47:52.7	6.800	0.340	-0.420	0.610
2020/01/31 20:47:52.8	6.770	0.310	-0.440	0.600
2020/01/31 20:47:52.9	6.730	0.270	-0.440	0.590
2020/01/31 20:47:53.0	6.710	0.240	-0.450	0.570
2020/01/31 20:47:53.1	6.680	0.200	-0.460	0.550
2020/01/31 20:47:53.2	6.650	0.160	-0.460	0.520
2020/01/31 20:47:53.3	6.620	0.120	-0.460	0.490
2020/01/31 20:47:53.4	6.590	0.080	-0.460	0.450
2020/01/31 20:47:53.5	6.560	0.030	-0.460	0.410
2020/01/31 20:47:53.6	6.530	-0.010	-0.450	0.370
2020/01/31 20:47:53.7	6.510	-0.050	-0.450	0.320
2020/01/31 20:47:53.8	6.490	-0.090	-0.440	0.270
2020/01/31 20:47:53.9	6.470	-0.130	-0.440	0.220
2020/01/31 20:47:54.0	6.470	-0.160	-0.430	0.170
2020/01/31 20:47:54.1	6.460	-0.190	-0.420	0.120
2020/01/31 20:47:54.2	6.450	-0.220	-0.420	0.060
2020/01/31 20:47:54.3	6.450	-0.250	-0.410	0.010
2020/01/31 20:47:54.4	6.440	-0.270	-0.400	-0.040
2020/01/31 20:47:54.5	6.440	-0.290	-0.390	-0.090
2020/01/31 20:47:54.6	6.440	-0.300	-0.380	-0.130
2020/01/31 20:47:54.7	6.450	-0.310	-0.380	-0.180
2020/01/31 20:47:54.8	6.450	-0.310	-0.370	-0.230
2020/01/31 20:47:54.9	6.460	-0.310	-0.370	-0.270
2020/01/31 20:47:55.0	6.460	-0.310	-0.360	-0.310
2020/01/31 20:47:55.1	6.470	-0.300	-0.360	-0.350
2020/01/31 20:47:55.2	6.480	-0.280	-0.360	-0.380
2020/01/31 20:47:55.3	6.490	-0.260	-0.360	-0.410
2020/01/31 20:47:55.4	6.510	-0.240	-0.360	-0.440
2020/01/31 20:47:55.5	6.520	-0.210	-0.370	-0.470
2020/01/31 20:47:55.6	6.540	-0.180	-0.370	-0.500
2020/01/31 20:47:55.7	6.550	-0.140	-0.380	-0.520
2020/01/31 20:47:55.8	6.570	-0.110	-0.390	-0.540
2020/01/31 20:47:55.9	6.590	-0.070	-0.400	-0.560
2020/01/31 20:47:56.0	6.600	-0.020	-0.410	-0.580
2020/01/31 20:47:56.1	6.620	0.020	-0.420	-0.590
2020/01/31 20:47:56.2	6.630	0.070	-0.440	-0.600
2020/01/31 20:47:56.3	6.650	0.110	-0.450	-0.610
2020/01/31 20:47:56.4	6.670	0.160	-0.460	-0.610
2020/01/31 20:47:56.5	6.680	0.200	-0.480	-0.610
2020/01/31 20:47:56.6	6.700	0.240	-0.490	-0.610
2020/01/31 20:47:56.7	6.710	0.290	-0.500	-0.600
2020/01/31 20:47:56.8	6.730	0.330	-0.510	-0.590
2020/01/31 20:47:56.9	6.740	0.360	-0.520	-0.580
2020/01/31 20:47:57.0	6.760	0.400	-0.530	-0.560
2020/01/31 20:47:57.1	6.770	0.430	-0.540	-0.550
2020/01/31 20:47:57.2	6.780	0.460	-0.540	-0.530
2020/01/31 20:47:57.3	6.790	0.480	-0.550	-0.510
2020/01/31 20:47:57.4	6.810	0.510	-0.550	-0.500
2020/01/31 20:47:57.5	6.820	0.520	-0.550	-0.470
2020/01/31 20:47:57.6	6.830	0.530	-0.550	-0.450
2020/01/31 20:47:57.7	6.840	0.540	-0.550	-0.430
2020/01/31 20:47:57.8	6.850	0.550	-0.550	-0.400
2020/01/31 20:47:57.9	6.860	0.540	-0.540	-0.380
2020/01/31 20:47:58.0	6.880	0.540	-0.540	-0.350
2020/01/31 20:47:58.1	6.890	0.530	-0.530	-0.320
2020/01/31 20:47:58.2	6.900	0.510	-0.520	-0.290
2020/01/31 20:47:58.3	6.910	0.500	-0.510	-0.260
2020/01/31 20:47:58.4	6.920	0.470	-0.490	-0.230
2020/01/31 20:47:58.5	6.930	0.450	-0.480	-0.200
2020/01/31 20:47:58.6	6.940	0.410	-0.460	-0.170
2020/01/31 20:47:58.7	6.950	0.380	-0.430	-0.150
2020/01/31 20:47:58.8	6.950	0.340	-0.410	-0.120
2020/01/31 20:47:58.9	6.960	0.300	-0.390	-0.100
2020/01/31 20:47:59.0	6.950	0.250	-0.360	-0.080
2020/01/31 20:47:59.1	6.960	0.210	-0.330	-0.060
2020/01/31 20:47:59.2	6.960	0.160	-0.300	-0.040
2020/01/31 20:47:59.3	6.970	0.110	-0.260	-0.030
2020/01/31 20:47:59.4	6.970	0.050	-0.230	-0.010
2020/01/31 20:47:59.5	6.970	0.000	-0.190	-0.000
2020/01/31 20:47:59.6	6.970	-0.050	-0.160	0.000
2020/01/31 20:47:59.7	6.980	-0.110	-0.120	0.010
2020/01/31 20:47:59.8	6.970	-0.160	-0.080	0.010
2020/01/31 20:47:59.9	6.970	-0.210	-0.040	0.020
2020/01/31 20:48:00.0	6.980	-0.260	-0.000	0.020
2020/01/31 20:48:00.1	6.980	-0.310	0.030	0.020
2020/01/31 20:48:00.2	6.980	-0.360	0.070	0.020
2020/01/31 20:48:00.3	6.980	-0.410	0.100	0.010
2020/01/31 20:48:00.4	6.970	-0.450	0.140	0.010
2020/01/31 20:48:00.5	6.970	-0.490	0.170	0.000
2020/01/31 20:48:00.6	6.960	-0.530	0.200	-0.000
2020/01/31 20:48:00.7	6.960	-0.560	0.220	-0.010
2020/01/31 20:48:00.8	6.960	-0.590	0.250	-0.020
2020/01/31 20:48:00.9	6.950	-0.610	0.270	-0.030
2020/01/31 20:48:01.0	6.940	-0.630	0.280	-0.040
2020/01/31 20:48:01.1	6.940	-0.650	0.300	-0.050
2020/01/31 20:48:01.2	6.930	-0.660	0.310	-0.070
2020/01/31 20:48:01.3	6.930	-0.670	0.310	-0.080
2020/01/31 20:48:01.4	6.920	-0.680	0.310	-0.090
2020/01/31 20:48:01.5	6.920	-0.680	0.310	-0.110
2020/01/31 20:48:01.6	6.920	-0.670	0.300	-0.130
2020/01/31 20:48:01.7	6.910	-0.660	0.290	-0.140
2020/01/31 20:48:01.8	6.910	-0.650	0.270	-0.160
2020/01/31 20:48:01.9	6.910	-0.630	0.250	-0.180
2020/01/31 20:48:02.0	6.900	-0.610	0.230	-0.190
2020/01/31 20:48:02.1	6.900	-0.590	0.200	-0.210
2020/01/31 20:48:02.2	6.900	-0.560	0.160	-0.230
2020/01/31 20:48:02.3	6.900	-0.530	0.130	-0.250
2020/01/31 20:48:02.4	6.900	-0.500	0.090	-0.260
2020/01/31 20:48:02.5	6.900	-0.460	0.050	-0.280
2020/01/31 20:48:02.6	6.890	-0.430	0.010	-0.290
2020/01/31 20:48:02.7	6.890	-0.390	-0.040	-0.300
2020/01/31 20:48:02.8	6.890	-0.350	-0.080	-0.310
2020/01/31 20:48:02.9	6.890	-0.310	-0.130	-0.320
2020/01/31 20:48:03.0	6.890	-0.260	-0.170	-0.330
2020/01/31 20:48:03.1	6.880	-0.220	-0.220	-0.340
2020/01/31 20:48:03.2	6.880	-0.180	-0.260	-0.340
2020/01/31 20:48:03.3	6.880	-0.140	-0.300	-0.350
2020/01/31 20:48:03.4	6.880	-0.100	-0.340	-0.350
2020/01/31 20:48:03.5	6.880	-0.060	-0.380	-0.350
2020/01/31 20:48:03.6	6.880	-0.020	-0.410	-0.360
2020/01/31 20:48:03.7	6.890	0.020	-0.450	-0.360
2020/01/31 20:48:03.8	6.890	0.060	-0.480	-0.360
2020/01/31 20:48:03.9	6.890	0.100	-0.500	-0.360
2020/01/31 20:48:04.0	6.900	0.130	-0.520	-0.360
2020/01/31 20:48:04.1	6.910	0.160	-0.540	-0.360
2020/01/31 20:48:04.2	6.910	0.190	-0.560	-0.350
2020/01/31 20:48:04.3	6.920	0.220	-0.570	-0.350
2020/01/31 20:48:04.4	6.920	0.240	-0.570	-0.340
2020/01/31 20:48:04.5	6.920	0.260	-0.570	-0.330
2020/01/31 20:48:04.6	6.920	0.280	-0.570	-0.310
2020/01/31 20:48:04.7	6.920	0.300	-0.560	-0.300
2020/01/31 20:48:04.8	6.920	0.310	-0.540	-0.280
2020/01/31 20:48:04.9	6.910	0.330	-0.520	-0.260
2020/01/31 20:48:05.0	6.890	0.330	-0.500	-0.230
2020/01/31 20:48:05.1	6.880	0.340	-0.480	-0.200
2020/01/31 20:48:05.2	6.870	0.340	-0.450	-0.170
2020/01/31 20:48:05.3	6.860	0.340	-0.410	-0.140
2020/01/31 20:48:05.4	6.840	0.340	-0.380	-0.110
2020/01/31 20:48:05.5	6.830	0.330	-0.340	-0.080
2020/01/31 20:48:05.6	6.810	0.330	-0.300	-0.050
2020/01/31 20:48:05.7	6.790	0.320	-0.250	-0.010
2020/01/31 20:48:05.8	6.770	0.310	-0.210	0.020
2020/01/31 20:48:05.9	6.750	0.290	-0.170	0.050
2020/01/31 20:48:06.0	6.730	0.280	-0.120	0.080
2020/01/31 20:48:06.1	6.700	0.260	-0.080	0.110
2020/01/31 20:48:06.2	6.680	0.240	-0.050	0.140
2020/01/31 20:48:06.3	6.660	0.220	-0.010	0.160
2020/01/31 20:48:06.4	6.640	0.200	0.020	0.180
2020/01/31 20:48:06.5	6.620	0.180	0.050	0.200
2020/01/31 20:48:06.6	6.600	0.160	0.070	0.220
2020/01/31 20:48:06.7	6.580	0.140	0.090	0.230
2020/01/31 20:48:06.8	6.560	0.120	0.100	0.240
2020/01/31 20:48:06.9	6.540	0.100	0.110	0.240
2020/01/31 20:48:07.0	6.530	0.090	0.110	0.250
2020/01/31 20:48:07.1	6.520	0.070	0.110	0.250
2020/01/31 20:48:07.2	6.500	0.060	0.090	0.250
2020/01/31 20:48:07.3	6.490	0.050	0.080	0.240
2020/01/31 20:48:07.4	6.490	0.040	0.060	0.240
2020/01/31 20:48:07.5	6.480	0.030	0.030	0.230
2020/01/31 20:48:07.6	6.470	0.030	-0.010	0.220
2020/01/31 20:48:07.7	6.470	0.030	-0.050	0.210
2020/01/31 20:48:07.8	6.470	0.030	-0.090	0.190
2020/01/31 20:48:07.9	6.470	0.040	-0.140	0.180
2020/01/31 20:48:08.0	6.470	0.050	-0.180	0.160
2020/01/31 20:48:08.1	6.470	0.060	-0.240	0.140
2020/01/31 20:48:08.2	6.480	0.070	-0.290	0.120
2020/01/31 20:48:08.3	6.490	0.090	-0.350	0.100
2020/01/31 20:48:08.4	6.500	0.110	-0.400	0.080
2020/01/31 20:48:08.5	6.510	0.130	-0.460	0.060
2020/01/31 20:48:08.6	6.520	0.150	-0.520	0.040
2020/01/31 20:48:08.7	6.540	0.180	-0.570	0.020
2020/01/31 20:48:08.8	6.560	0.200	-0.620	-0.010
2020/01/31 20:48:08.9	6.580	0.230	-0.670	-0.030
2020/01/31 20:48:09.0	6.610	0.260	-0.710	-0.050
2020/01/31 20:48:09.1	6.640	0.290	-0.750	-0.070
2020/01/31 20:48:09.2	6.660	0.320	-0.790	-0.090
2020/01/31 20:48:09.3	6.680	0.340	-0.820	-0.110
2020/01/31 20:48:09.4	6.710	0.370	-0.850	-0.130
2020/01/31 20:48:09.5	6.730	0.390	-0.870	-0.140
2020/01/31 20:48:09.6	6.760	0.420	-0.880	-0.160
2020/01/31 20:48:09.7	6.780	0.440	-0.890	-0.170
2020/01/31 20:48:09.8	6.810	0.450	-0.900	-0.180
2020/01/31 20:48:09.9	6.830	0.460	-0.890	-0.190
2020/01/31 20:48:10.0	6.850	0.470	-0.890	-0.200
2020/01/31 20:48:10.1	6.870	0.480	-0.880	-0.200
2020/01/31 20:48:10.2	6.890	0.480	-0.860	-0.210
2020/01/31 20:48:10.3	6.910	0.470	-0.840	-0.220
2020/01/31 20:48:10.4	6.930	0.460	-0.810	-0.220
2020/01/31 20:48:10.5	6.950	0.450	-0.780	-0.230
2020/01/31 20:48:10.6	6.960	0.430	-0.750	-0.230
2020/01/31 20:48:10.7	6.970	0.400	-0.710	-0.240
2020/01/31 20:48:10.8	6.980	0.380	-0.670	-0.240
2020/01/31 20:48:10.9	6.990	0.340	-0.630	-0.250
2020/01/31 20:48:11.0	7.000	0.300	-0.580	-0.250
2020/01/31 20:48:11.1	7.010	0.260	-0.540	-0.260
2020/01/31 20:48:11.2	7.010	0.220	-0.490	-0.260
2020/01/31 20:48:11.3	7.020	0.170	-0.450	-0.270
2020/01/31 20:48:11.4	7.020	0.110	-0.410	-0.280
2020/01/31 20:48:11.5	7.020	0.060	-0.360	-0.290
2020/01/31 20:48:11.6	7.020	-0.000	-0.320	-0.310
2020/01/31 20:48:11.7	7.020	-0.060	-0.280	-0.320
2020/01/31 20:48:11.8	7.020	-0.120	-0.240	-0.340
2020/01/31 20:48:11.9	7.020	-0.180	-0.210	-0.350
2020/01/31 20:48:12.0	7.010	-0.250	-0.180	-0.370
2020/01/31 20:48:12.1	7.010	-0.310	-0.150	-0.390
2020/01/31 20:48:12.2	7.010	-0.370	-0.130	-0.410
2020/01/31 20:48:12.3	7.010	-0.430	-0.100	-0.440
2020/01/31 20:48:12.4	7.010	-0.480	-0.080	-0.460
2020/01/31 20:48:12.5	7.010	-0.540	-0.070	-0.490
2020/01/31 20:48:12.6	7.010	-0.590	-0.050	-0.520
2020/01/31 20:48:12.7	7.010	-0.640	-0.040	-0.550
2020/01/31 20:48:12.8	7.010	-0.680	-0.030	-0.580
2020/01/31 20:48:12.9	7.020	-0.720	-0.020	-0.610
2020/01/31 20:48:13.0	7.010	-0.760	-0.020	-0.640
2020/01/31 20:48:13.1	7.020	-0.790	-0.010	-0.670
2020/01/31 20:48:13.2	7.020	-0.810	-0.010	-0.700
2020/01/31 20:48:13.3	7.030	-0.830	-0.010	-0.730
2020/01/31 20:48:13.4	7.030	-0.840	-0.010	-0.750
2020/01/31 20:48:13.5	7.040	-0.850	-0.020	-0.770
2020/01/31 20:48:13.6	7.040	-0.850	-0.020	-0.790
2020/01/31 20:48:13.7	7.050	-0.850	-0.020	-0.800
2020/01/31 20:48:13.8	7.050	-0.830	-0.020	-0.810
2020/01/31 20:48:13.9	7.060	-0.820	-0.020	-0.820
2020/01/31 20:48:14.0	7.060	-0.790	-0.020	-0.830
2020/01/31 20:48:14.1	7.070	-0.760	-0.020	-0.820
2020/01/31 20:48:14.2	7.070	-0.730	-0.020	-0.820
2020/01/31 20:48:14.3	7.070	-0.690	-0.020	-0.810
2020/01/31 20:48:14.4	7.070	-0.650	-0.010	-0.800
2020/01/31 20:48:14.5	7.070	-0.600	-0.010	-0.780
2020/01/31 20:48:14.6	7.070	-0.550	0.000	-0.760
2020/01/31 20:48:14.7	7.070	-0.490	0.010	-0.740
2020/01/31 20:48:14.8	7.070	-0.430	0.030	-0.710
2020/01/31 20:48:14.9	7.060	-0.370	0.040	-0.670
2020/01/31 20:48:15.0	7.060	-0.310	0.050	-0.630
2020/01/31 20:48:15.1	7.050	-0.250	0.070	-0.590
2020/01/31 20:48:15.2	7.050	-0.180	0.100	-0.550
2020/01/31 20:48:15.3	7.040	-0.120	0.120	-0.500
2020/01/31 20:48:15.4	7.030	-0.050	0.140	-0.450
2020/01/31 20:48:15.5	7.020	0.010	0.170	-0.400
2020/01/31 20:48:15.6	7.010	0.070	0.200	-0.340
2020/01/31 20:48:15.7	7.000	0.130	0.220	-0.290
2020/01/31 20:48:15.8	6.990	0.180	0.250	-0.230
2020/01/31 20:48:15.9	6.970	0.230	0.280	-0.170
2020/01/31 20:48:16.0	6.960	0.280	0.300	-0.110
2020/01/31 20:48:16.1	6.940	0.330	0.330	-0.050
2020/01/31 20:48:16.2	6.920	0.370	0.350	0.010
2020/01/31 20:48:16.3	6.900	0.400	0.370	0.070
2020/01/31 20:48:16.4	6.880	0.430	0.390	0.120
2020/01/31 20:48:16.5	6.860	0.460	0.410	0.180
2020/01/31 20:48:16.6	6.840	0.480	0.420	0.230
2020/01/31 20:48:16.7	6.810	0.500	0.430	0.290
2020/01/31 20:48:16.8	6.790	0.510	0.440	0.340
2020/01/31 20:48:16.9	6.770	0.520	0.440	0.380
2020/01/31 20:48:17.0	6.750	0.520	0.430	0.430
2020/01/31 20:48:17.1	6.730	0.510	0.430	0.470
2020/01/31 20:48:17.2	6.710	0.510	0.410	0.500
2020/01/31 20:48:17.3	6.680	0.500	0.400	0.530
2020/01/31 20:48:17.4	6.660	0.480	0.370	0.560
2020/01/31 20:48:17.5	6.640	0.460	0.350	0.580
2020/01/31 20:48:17.6	6.620	0.440	0.310	0.590
2020/01/31 20:48:17.7	6.600	0.410	0.280	0.600
2020/01/31 20:48:17.8	6.580	0.390	0.230	0.610
2020/01/31 20:48:17.9	6.570	0.350	0.190	0.610
2020/01/31 20:48:18.0	6.530	0.320	0.140	0.600
2020/01/31 20:48:18.1	6.520	0.290	0.080	0.590
2020/01/31 20:48:18.2	6.510	0.250	0.020	0.570
2020/01/31 20:48:18.3	6.490	0.220	-0.040	0.550
2020/01/31 20:48:18.4	6.480	0.190	-0.110	0.530
2020/01/31 20:48:18.5	6.470	0.150	-0.180	0.500
2020/01/31 20:48:18.6	6.460	0.120	-0.250	0.470
2020/01/31 20:48:18.7	6.460	0.090	-0.320	0.440
2020/01/31 20:48:18.8	6.450	0.060	-0.400	0.400
2020/01/31 20:48:18.9	6.450	0.030	-0.480	0.360
2020/01/31 20:48:19.0	6.470	0.000	-0.550	0.310
2020/01/31 20:48:19.1	6.470	-0.020	-0.630	0.260
2020/01/31 20:48:19.2	6.470	-0.040	-0.710	0.210
2020/01/31 20:48:19.3	6.480	-0.060	-0.800	0.160
2020/01/31 20:48:19.4	6.490	-0.070	-0.880	0.100
2020/01/31 20:48:19.5	6.500	-0.080	-0.950	0.040
2020/01/31 20:48:19.6	6.520	-0.090	-1.030	-0.020
2020/01/31 20:48:19.7	6.540	-0.090	-1.110	-0.080
2020/01/31 20:48:19.8	6.560	-0.090	-1.180	-0.140
2020/01/31 20:48:19.9	6.580	-0.090	-1.250	-0.210
2020/01/31 20:48:20.0	6.610	-0.080	-1.320	-0.280
2020/01/31 20:48:20.1	6.630	-0.070	-1.380	-0.340
2020/01/31 20:48:20.2	6.660	-0.050	-1.430	-0.410
2020/01/31 20:48:20.3	6.690	-0.040	-1.480	-0.480
2020/01/31 20:48:20.4	6.720	-0.020	-1.530	-0.540
2020/01/31 20:48:20.5	6.760	0.000	-1.560	-0.610
2020/01/31 20:48:20.6	6.790	0.030	-1.600	-0.670
2020/01/31 20:48:20.7	6.830	0.050	-1.620	-0.730
2020/01/31 20:48:20.8	6.870	0.070	-1.630	-0.790
2020/01/31 20:48:20.9	6.910	0.100	-1.640	-0.850
2020/01/31 20:48:21.0	6.950	0.120	-1.640	-0.910
2020/01/31 20:48:21.1	6.990	0.150	-1.640	-0.960
2020/01/31 20:48:21.2	7.030	0.170	-1.620	-1.010
2020/01/31 20:48:21.3	7.080	0.200	-1.600	-1.060
2020/01/31 20:48:21.4	7.120	0.220	-1.560	-1.100
2020/01/31 20:48:21.5	7.170	0.240	-1.520	-1.130
2020/01/31 20:48:21.6	7.210	0.250	-1.470	-1.170
2020/01/31 20:48:21.7	7.260	0.270	-1.420	-1.190
2020/01/31 20:48:21.8	7.300	0.280	-1.350	-1.210
2020/01/31 20:48:21.9	7.350	0.290	-1.280	-1.230
2020/01/31 20:48:22.0	7.400	0.300	-1.210	-1.240
2020/01/31 20:48:22.1	7.440	0.300	-1.130	-1.240
2020/01/31 20:48:22.2	7.480	0.300	-1.030	-1.240
2020/01/31 20:48:22.3	7.520	0.290	-0.940	-1.230
2020/01/31 20:48:22.4	7.550	0.280	-0.840	-1.210
2020/01/31 20:48:22.5	7.590	0.270	-0.730	-1.190
2020/01/31 20:48:22.6	7.620	0.260	-0.620	-1.160
2020/01/31 20:48:22.7	7.640	0.240	-0.510	-1.130
2020/01/31 20:48:22.8	7.670	0.220	-0.400	-1.100
2020/01/31 20:48:22.9	7.690	0.190	-0.290	-1.060
2020/01/31 20:48:23.0	7.720	0.160	-0.170	-1.010
2020/01/31 20:48:23.1	7.740	0.130	-0.060	-0.960
2020/01/31 20:48:23.2	7.750	0.100	0.050	-0.910
2020/01/31 20:48:23.3	7.770	0.070	0.160	-0.860
2020/01/31 20:48:23.4	7.780	0.030	0.260	-0.800
2020/01/31 20:48:23.5	7.780	-0.010	0.360	-0.740
2020/01/31 20:48:23.6	7.780	-0.040	0.460	-0.680
2020/01/31 20:48:23.7	7.780	-0.080	0.550	-0.620
2020/01/31 20:48:23.8	7.780	-0.120	0.640	-0.550
2020/01/31 20:48:23.9	7.780	-0.150	0.720	-0.490
2020/01/31 20:48:24.0	7.760	-0.190	0.800	-0.420
2020/01/31 20:48:24.1	7.750	-0.220	0.860	-0.360
2020/01/31 20:48:24.2	7.730	-0.260	0.920	-0.290
2020/01/31 20:48:24.3	7.710	-0.290	0.980	-0.220
2020/01/31 20:48:24.4	7.690	-0.320	1.020	-0.160
2020/01/31 20:48:24.5	7.670	-0.340	1.060	-0.090
2020/01/31 20:48:24.6	7.640	-0.370	1.090	-0.030
2020/01/31 20:48:24.7	7.620	-0.390	1.110	0.040
2020/01/31 20:48:24.8	7.580	-0.400	1.120	0.100
2020/01/31 20:48:24.9	7.550	-0.410	1.130	0.160
2020/01/31 20:48:25.0	7.520	-0.420	1.130	0.220
2020/01/31 20:48:25.1	7.480	-0.430	1.120	0.280
2020/01/31 20:48:25.2	7.440	-0.430	1.100	0.340
2020/01/31 20:48:25.3	7.400	-0.430	1.070	0.400
2020/01/31 20:48:25.4	7.360	-0.420	1.040	0.460
2020/01/31 20:48:25.5	7.310	-0.410	1.000	0.510
2020/01/31 20:48:25.6	7.270	-0.400	0.960	0.560
2020/01/31 20:48:25.7	7.230	-0.380	0.910	0.610
2020/01/31 20:48:25.8	7.180	-0.370	0.850	0.650
2020/01/31 20:48:25.9	7.140	-0.340	0.790	0.690
2020/01/31 20:48:26.0	7.100	-0.320	0.720	0.730
2020/01/31 20:48:26.1	7.060	-0.290	0.650	0.770
2020/01/31 20:48:26.2	7.010	-0.260	0.580	0.790
2020/01/31 20:48:26.3	6.970	-0.230	0.500	0.820
2020/01/31 20:48:26.4	6.930	-0.200	0.420	0.830
2020/01/31 20:48:26.5	6.890	-0.170	0.340	0.850
2020/01/31 20:48:26.6	6.850	-0.130	0.260	0.850
2020/01/31 20:48:26.7	6.810	-0.100	0.170	0.850
2020/01/31 20:48:26.8	6.780	-0.060	0.080	0.850
2020/01/31 20:48:26.9	6.750	-0.020	-0.000	0.830
2020/01/31 20:48:27.0	6.720	0.010	-0.090	0.820
2020/01/31 20:48:27.1	6.700	0.050	-0.180	0.800
2020/01/31 20:48:27.2	6.670	0.080	-0.270	0.770
2020/01/31 20:48:27.3	6.650	0.120	-0.360	0.740
2020/01/31 20:48:27.4	6.630	0.150	-0.440	0.710
2020/01/31 20:48:27.5	6.620	0.180	-0.530	0.680
2020/01/31 20:48:27.6	6.610	0.220	-0.610	0.640
2020/01/31 20:48:27.7	6.600	0.250	-0.690	0.600
2020/01/31 20:48:27.8	6.590	0.270	-0.770	0.550
2020/01/31 20:48:27.9	6.590	0.300	-0.840	0.510
2020/01/31 20:48:28.0	6.600	0.320	-0.910	0.460
2020/01/31 20:48:28.1	6.600	0.350	-0.970	0.410
2020/01/31 20:48:28.2	6.610	0.370	-1.030	0.360
2020/01/31 20:48:28.3	6.620	0.380	-1.080	0.300
2020/01/31 20:48:28.4	6.630	0.400	-1.130	0.250
2020/01/31 20:48:28.5	6.650	0.410	-1.170	0.200
2020/01/31 20:48:28.6	6.660	0.420	-1.210	0.140
2020/01/31 20:48:28.7	6.680	0.420	-1.230	0.080
2020/01/31 20:48:28.8	6.700	0.420	-1.250	0.030
2020/01/31 20:48:28.9	6.720	0.420	-1.270	-0.030
2020/01/31 20:48:29.0	6.740	0.420	-1.270	-0.090
2020/01/31 20:48:29.1	6.760	0.410	-1.270	-0.140
2020/01/31 20:48:29.2	6.780	0.400	-1.260	-0.200
2020/01/31 20:48:29.3	6.800	0.390	-1.240	-0.250
2020/01/31 20:48:29.4	6.810	0.380	-1.210	-0.290
2020/01/31 20:48:29.5	6.830	0.360	-1.180	-0.340
2020/01/31 20:48:29.6	6.850	0.340	-1.140	-0.380
2020/01/31 20:48:29.7	6.860	0.320	-1.090	-0.420
2020/01/31 20:48:29.8	6.880	0.290	-1.040	-0.450
2020/01/31 20:48:29.9	6.900	0.270	-0.980	-0.480
2020/01/31 20:48:30.0	6.900	0.240	-0.920	-0.510
2020/01/31 20:48:30.1	6.920	0.210	-0.850	-0.530
2020/01/31 20:48:30.2	6.930	0.180	-0.780	-0.550
2020/01/31 20:48:30.3	6.940	0.150	-0.710	-0.560
2020/01/31 20:48:30.4	6.950	0.120	-0.630	-0.570
2020/01/31 20:48:30.5	6.960	0.090	-0.550	-0.580
2020/01/31 20:48:30.6	6.970	0.050	-0.480	-0.590
2020/01/31 20:48:30.7	6.980	0.020	-0.410	-0.590
2020/01/31 20:48:30.8	6.990	-0.010	-0.330	-0.590
2020/01/31 20:48:30.9	7.010	-0.040	-0.270	-0.590
2020/01/31 20:48:31.0	7.000	-0.070	-0.200	-0.590
2020/01/31 20:48:31.1	7.020	-0.110	-0.140	-0.590
2020/01/31 20:48:31.2	7.030	-0.140	-0.090	-0.580
2020/01/31 20:48:31.3	7.040	-0.160	-0.040	-0.580
2020/01/31 20:48:31.4	7.060	-0.190	0.000	-0.580
2020/01/31 20:48:31.5	7.070	-0.220	0.040	-0.580
2020/01/31 20:48:31.6	7.090	-0.240	0.070	-0.580
2020/01/31 20:48:31.7	7.100	-0.260	0.090	-0.590
2020/01/31 20:48:31.8	7.120	-0.280	0.100	-0.590
2020/01/31 20:48:31.9	7.140	-0.290	0.110	-0.590
2020/01/31 20:48:32.0	7.160	-0.310	0.110	-0.600
2020/01/31 20:48:32.1	7.180	-0.320	0.110	-0.600
2020/01/31 20:48:32.2	7.200	-0.330	0.100	-0.610
2020/01/31 20:48:32.3	7.230	-0.330	0.080	-0.620
2020/01/31 20:48:32.4	7.250	-0.340	0.060	-0.620
2020/01/31 20:48:32.5	7.270	-0.340	0.030	-0.630
2020/01/31 20:48:32.6	7.290	-0.330	0.000	-0.640
2020/01/31 20:48:32.7	7.310	-0.330	-0.030	-0.640
2020/01/31 20:48:32.8	7.330	-0.320	-0.060	-0.640
2020/01/31 20:48:32.9	7.350	-0.310	-0.100	-0.640
2020/01/31 20:48:33.0	7.360	-0.300	-0.130	-0.650
2020/01/31 20:48:33.1	7.380	-0.290	-0.170	-0.640
2020/01/31 20:48:33.2	7.390	-0.270	-0.200	-0.640
2020/01/31 20:48:33.3	7.400	-0.250	-0.220	-0.630
2020/01/31 20:48:33.4	7.410	-0.240	-0.250	-0.610
2020/01/31 20:48:33.5	7.420	-0.220	-0.270	-0.590
2020/01/31 20:48:33.6	7.420	-0.200	-0.290	-0.570
2020/01/31 20:48:33.7	7.430	-0.180	-0.300	-0.550
2020/01/31 20:48:33.8	7.430	-0.160	-0.310	-0.520
2020/01/31 20:48:33.9	7.430	-0.140	-0.310	-0.490
2020/01/31 20:48:34.0	7.430	-0.110	-0.300	-0.460
2020/01/31 20:48:34.1	7.420	-0.100	-0.300	-0.420
2020/01/31 20:48:34.2	7.420	-0.080	-0.290	-0.380
2020/01/31 20:48:34.3	7.410	-0.060	-0.270	-0.350
2020/01/31 20:48:34.4	7.400	-0.040	-0.250	-0.310
2020/01/31 20:48:34.5	7.390	-0.030	-0.220	-0.270
2020/01/31 20:48:34.6	7.380	-0.010	-0.200	-0.230
2020/01/31 20:48:34.7	7.370	0.000	-0.160	-0.190
2020/01/31 20:48:34.8	7.360	0.010	-0.130	-0.160
2020/01/31 20:48:34.9	7.350	0.020	-0.090	-0.120
2020/01/31 20:48:35.0	7.320	0.030	-0.060	-0.090
2020/01/31 20:48:35.1	7.310	0.040	-0.020	-0.050
2020/01/31 20:48:35.2	7.300	0.040	0.010	-0.020
2020/01/31 20:48:35.3	7.280	0.050	0.050	0.000
2020/01/31 20:48:35.4	7.270	0.050	0.090	0.030
2020/01/31 20:48:35.5	7.260	0.050	0.120	0.050
2020/01/31 20:48:35.6	7.250	0.050	0.150	0.070
2020/01/31 20:48:35.7	7.230	0.050	0.180	0.090
2020/01/31 20:48:35.8	7.220	0.050	0.200	0.110
2020/01/31 20:48:35.9	7.210	0.050	0.230	0.120
2020/01/31 20:48:36.0	7.210	0.050	0.240	0.130
2020/01/31 20:48:36.1	7.200	0.050	0.250	0.140
2020/01/31 20:48:36.2	7.190	0.050	0.260	0.150
2020/01/31 20:48:36.3	7.180	0.040	0.260	0.160
2020/01/31 20:48:36.4	7.170	0.040	0.250	0.160
2020/01/31 20:48:36.5	7.150	0.040	0.240	0.170
2020/01/31 20:48:36.6	7.140	0.040	0.230	0.170
2020/01/31 20:48:36.7	7.130	0.040	0.210	0.180
2020/01/31 20:48:36.8	7.110	0.050	0.190	0.180
2020/01/31 20:48:36.9	7.090	0.050	0.160	0.190
2020/01/31 20:48:37.0	7.070	0.050	0.120	0.190
2020/01/31 20:48:37.1	7.050	0.050	0.090	0.200
2020/01/31 20:48:37.2	7.020	0.060	0.050	0.200
2020/01/31 20:48:37.3	7.000	0.060	0.000	0.200
2020/01/31 20:48:37.4	6.970	0.070	-0.040	0.210
2020/01/31 20:48:37.5	6.940	0.070	-0.090	0.210
2020/01/31 20:48:37.6	6.900	0.080	-0.140	0.210
2020/01/31 20:48:37.7	6.870	0.090	-0.190	0.210
2020/01/31 20:48:37.8	6.840	0.090	-0.240	0.210
2020/01/31 20:48:37.9	6.800	0.100	-0.300	0.200
2020/01/31 20:48:38.0	6.770	0.110	-0.350	0.200
2020/01/31 20:48:38.1	6.740	0.120	-0.400	0.190
2020/01/31 20:48:38.2	6.700	0.120	-0.460	0.180
2020/01/31 20:48:38.3	6.670	0.130	-0.510	0.170
2020/01/31 20:48:38.4	6.630	0.140	-0.560	0.150
2020/01/31 20:48:38.5	6.600	0.150	-0.610	0.140
2020/01/31 20:48:38.6	6.570	0.160	-0.660	0.120
2020/01/31 20:48:38.7	6.540	0.170	-0.710	0.100
2020/01/31 20:48:38.8	6.520	0.180	-0.750	0.080
2020/01/31 20:48:38.9	6.490	0.190	-0.800	0.060
2020/01/31 20:48:39.0	6.470	0.200	-0.840	0.030
2020/01/31 20:48:39.1	6.450	0.200	-0.870	0.000
2020/01/31 20:48:39.2	6.440	0.210	-0.900	-0.030
2020/01/31 20:48:39.3	6.430	0.220	-0.930	-0.060
2020/01/31 20:48:39.4	6.420	0.230	-0.960	-0.090
2020/01/31 20:48:39.5	6.420	0.240	-0.980	-0.120
2020/01/31 20:48:39.6	6.420	0.240	-0.990	-0.160
2020/01/31 20:48:39.7	6.420	0.250	-1.000	-0.200
2020/01/31 20:48:39.8	6.430	0.260	-1.010	-0.230
2020/01/31 20:48:39.9	6.440	0.260	-1.010	-0.270
2020/01/31 20:48:40.0	6.460	0.270	-1.000	-0.310
2020/01/31 20:48:40.1	6.470	0.270	-0.990	-0.350
2020/01/31 20:48:40.2	6.490	0.280	-0.970	-0.390
2020/01/31 20:48:40.3	6.510	0.280	-0.950	-0.430
2020/01/31 20:48:40.4	6.540	0.280	-0.920	-0.460
2020/01/31 20:48:40.5	6.560	0.280	-0.890	-0.500
2020/01/31 20:48:40.6	6.590	0.280	-0.850	-0.530
2020/01/31 20:48:40.7	6.610	0.280	-0.800	-0.560
2020/01/31 20:48:40.8	6.640	0.270	-0.750	-0.590
2020/01/31 20:48:40.9	6.660	0.270	-0.700	-0.620
2020/01/31 20:48:41.0	6.690	0.260	-0.640	-0.640
2020/01/31 20:48:41.1	6.710	0.250	-0.570	-0.650
2020/01/31 20:48:41.2	6.730	0.240	-0.500	-0.670
2020/01/31 20:48:41.3	6.750	0.220	-0.430	-0.680
2020/01/31 20:48:41.4	6.770	0.210	-0.360	-0.680
2020/01/31 20:48:41.5	6.780	0.190	-0.280	-0.690
2020/01/31 20:48:41.6	6.800	0.170	-0.210	-0.690
2020/01/31 20:48:41.7	6.810	0.140	-0.130	-0.680
2020/01/31 20:48:41.8	6.820	0.120	-0.050	-0.680
2020/01/31 20:48:41.9	6.830	0.090	0.020	-0.670
2020/01/31 20:48:42.0	6.820	0.060	0.090	-0.650
2020/01/31 20:48:42.1	6.830	0.030	0.160	-0.640
2020/01/31 20:48:42.2	6.840	0.000	0.230	-0.620
2020/01/31 20:48:42.3	6.850	-0.030	0.290	-0.610
2020/01/31 20:48:42.4	6.860	-0.070	0.350	-0.590
2020/01/31 20:48:42.5	6.870	-0.100	0.400	-0.570
2020/01/31 20:48:42.6	6.880	-0.140	0.450	-0.550
2020/01/31 20:48:42.7	6.890	-0.170	0.490	-0.530
2020/01/31 20:48:42.8	6.900	-0.210	0.530	-0.510
2020/01/31 20:48:42.9	6.910	-0.240	0.550	-0.490
2020/01/31 20:48:43.0	6.910	-0.270	0.570	-0.470
2020/01/31 20:48:43.1	6.920	-0.310	0.590	-0.450
2020/01/31 20:48:43.2	6.930	-0.340	0.600	-0.430
2020/01/31 20:48:43.3	6.940	-0.370	0.600	-0.410
2020/01/31 20:48:43.4	6.950	-0.400	0.590	-0.390
2020/01/31 20:48:43.5	6.960	-0.420	0.580	-0.370
2020/01/31 20:48:43.6	6.970	-0.450	0.560	-0.350
2020/01/31 20:48:43.7	6.980	-0.470	0.540	-0.330
2020/01/31 20:48:43.8	6.990	-0.490	0.510	-0.310
2020/01/31 20:48:43.9	7.000	-0.510	0.470	-0.290
2020/01/31 20:48:44.0	7.030	-0.520	0.430	-0.260
2020/01/31 20:48:44.1	7.030	-0.540	0.390	-0.240
2020/01/31 20:48:44.2	7.040	-0.540	0.340	-0.230
2020/01/31 20:48:44.3	7.050	-0.550	0.280	-0.200
2020/01/31 20:48:44.4	7.050	-0.550	0.230	-0.180
2020/01/31 20:48:44.5	7.060	-0.550	0.170	-0.160
2020/01/31 20:48:44.6	7.060	-0.540	0.110	-0.140
2020/01/31 20:48:44.7	7.060	-0.540	0.050	-0.120
2020/01/31 20:48:44.8	7.060	-0.520	-0.010	-0.090
2020/01/31 20:48:44.9	7.050	-0.510	-0.070	-0.070
2020/01/31 20:48:45.0	7.050	-0.490	-0.130	-0.040
2020/01/31 20:48:45.1	7.040	-0.470	-0.190	-0.020
2020/01/31 20:48:45.2	7.030	-0.440	-0.240	0.010
2020/01/31 20:48:45.3	7.010	-0.410	-0.300	0.050
2020/01/31 20:48:45.4	7.000	-0.380	-0.360	0.080
2020/01/31 20:48:45.5	6.980	-0.350	-0.410	0.110
2020/01/31 20:48:45.6	6.960	-0.320	-0.460	0.150
2020/01/31 20:48:45.7	6.930	-0.280	-0.500	0.180
2020/01/31 20:48:45.8	6.910	-0.240	-0.550	0.220
2020/01/31 20:48:45.9	6.880	-0.200	-0.590	0.260
2020/01/31 20:48:46.0	6.850	-0.160	-0.630	0.290
2020/01/31 20:48:46.1	6.820	-0.120	-0.660	0.330
2020/01/31 20:48:46.2	6.800	-0.070	-0.700	0.360
2020/01/31 20:48:46.3	6.770	-0.030	-0.720	0.390
2020/01/31 20:48:46.4	6.740	0.010	-0.750	0.420
2020/01/31 20:48:46.5	6.710	0.050	-0.770	0.450
2020/01/31 20:48:46.6	6.680	0.090	-0.790	0.470
2020/01/31 20:48:46.7	6.650	0.130	-0.810	0.490
2020/01/31 20:48:46.8	6.620	0.170	-0.820	0.510
2020/01/31 20:48:46.9	6.600	0.210	-0.830	0.520
2020/01/31 20:48:47.0	6.570	0.250	-0.840	0.530
2020/01/31 20:48:47.1	6.550	0.280	-0.850	0.540
2020/01/31 20:48:47.2	6.530	0.310	-0.850	0.540
2020/01/31 20:48:47.3	6.500	0.350	-0.850	0.540
2020/01/31 20:48:47.4	6.480	0.370	-0.850	0.530
2020/01/31 20:48:47.5	6.470	0.400	-0.840	0.530
2020/01/31 20:48:47.6	6.450	0.420	-0.840	0.510
2020/01/31 20:48:47.7	6.430	0.440	-0.830	0.500
2020/01/31 20:48:47.8	6.420	0.460	-0.810	0.480
2020/01/31 20:48:47.9	6.400	0.480	-0.800	0.470
2020/01/31 20:48:48.0	6.390	0.490	-0.790	0.440
2020/01/31 20:48:48.1	6.380	0.500	-0.770	0.420
2020/01/31 20:48:48.2	6.370	0.500	-0.740	0.400
2020/01/31 20:48:48.3	6.360	0.510	-0.720	0.380
2020/01/31 20:48:48.4	6.350	0.510	-0.690	0.350
2020/01/31 20:48:48.5	6.350	0.510	-0.660	0.320
2020/01/31 20:48:48.6	6.340	0.500	-0.630	0.290
2020/01/31 20:48:48.7	6.340	0.500	-0.590	0.270
2020/01/31 20:48:48.8	6.340	0.490	-0.560	0.230
2020/01/31 20:48:48.9	6.340	0.480	-0.520	0.200
2020/01/31 20:48:49.0	6.360	0.460	-0.480	0.170
2020/01/31 20:48:49.1	6.370	0.450	-0.440	0.130
2020/01/31 20:48:49.2	6.380	0.430	-0.400	0.100
2020/01/31 20:48:49.3	6.390	0.410	-0.360	0.060
2020/01/31 20:48:49.4	6.410	0.400	-0.320	0.030
2020/01/31 20:48:49.5	6.420	0.370	-0.280	-0.010
2020/01/31 20:48:49.6	6.440	0.350	-0.240	-0.050
2020/01/31 20:48:49.7	6.450	0.330	-0.200	-0.080
2020/01/31 20:48:49.8	6.470	0.310	-0.160	-0.120
2020/01/31 20:48:49.9	6.490	0.280	-0.120	-0.150
2020/01/31 20:48:50.0	6.510	0.260	-0.080	-0.190
2020/01/31 20:48:50.1	6.530	0.230	-0.040	-0.220
2020/01/31 20:48:50.2	6.540	0.210	0.000	-0.240
2020/01/31 20:48:50.3	6.560	0.180	0.050	-0.260
2020/01/31 20:48:50.4	6.570	0.150	0.090	-0.280
2020/01/31 20:48:50.5	6.580	0.120	0.130	-0.300
2020/01/31 20:48:50.6	6.590	0.100	0.170	-0.310
2020/01/31 20:48:50.7	6.590	0.070	0.210	-0.320
2020/01/31 20:48:50.8	6.600	0.040	0.250	-0.330
2020/01/31 20:48:50.9	6.600	0.010	0.290	-0.330
2020/01/31 20:48:51.0	6.580	-0.010	0.330	-0.330
2020/01/31 20:48:51.1	6.580	-0.040	0.360	-0.330
2020/01/31 20:48:51.2	6.580	-0.070	0.400	-0.320
2020/01/31 20:48:51.3	6.570	-0.100	0.430	-0.310
2020/01/31 20:48:51.4	6.570	-0.120	0.460	-0.300
2020/01/31 20:48:51.5	6.560	-0.150	0.480	-0.280
2020/01/31 20:48:51.6	6.550	-0.180	0.510	-0.260
2020/01/31 20:48:51.7	6.540	-0.200	0.520	-0.240
2020/01/31 20:48:51.8	6.530	-0.230	0.540	-0.220
2020/01/31 20:48:51.9	6.510	-0.250	0.550	-0.200
2020/01/31 20:48:52.0	6.490	-0.280	0.550	-0.180
2020/01/31 20:48:52.1	6.480	-0.300	0.550	-0.150
2020/01/31 20:48:52.2	6.460	-0.320	0.540	-0.130
2020/01/31 20:48:52.3	6.440	-0.340	0.530	-0.110
2020/01/31 20:48:52.4	6.420	-0.360	0.510	-0.080
2020/01/31 20:48:52.5	6.400	-0.380	0.490	-0.060
2020/01/31 20:48:52.6	6.380	-0.390	0.460	-0.040
2020/01/31 20:48:52.7	6.360	-0.410	0.420	-0.020
2020/01/31 20:48:52.8	6.340	-0.420	0.380	-0.010
2020/01/31 20:48:52.9	6.320	-0.430	0.330	0.010
2020/01/31 20:48:53.0	6.300	-0.440	0.280	0.020
2020/01/31 20:48:53.1	6.280	-0.440	0.220	0.030
2020/01/31 20:48:53.2	6.270	-0.450	0.160	0.040
2020/01/31 20:48:53.3	6.250	-0.450	0.090	0.050
2020/01/31 20:48:53.4	6.230	-0.440	0.020	0.050
2020/01/31 20:48:53.5	6.220	-0.440	-0.060	0.050
2020/01/31 20:48:53.6	6.210	-0.430	-0.140	0.050
2020/01/31 20:48:53.7	6.200	-0.420	-0.220	0.040
2020/01/31 20:48:53.8	6.200	-0.400	-0.310	0.030
2020/01/31 20:48:53.9	6.190	-0.390	-0.390	0.020
2020/01/31 20:48:54.0	6.200	-0.370	-0.480	-0.000
2020/01/31 20:48:54.1	6.210	-0.340	-0.570	-0.030
2020/01/31 20:48:54.2	6.220	-0.320	-0.660	-0.050
2020/01/31 20:48:54.3	6.230	-0.290	-0.740	-0.090
2020/01/31 20:48:54.4	6.240	-0.260	-0.830	-0.120
2020/01/31 20:48:54.5	6.260	-0.230	-0.910	-0.160
2020/01/31 20:48:54.6	6.280	-0.190	-0.990	-0.200
2020/01/31 20:48:54.7	6.310	-0.160	-1.070	-0.240
2020/01/31 20:48:54.8	6.340	-0.120	-1.140	-0.290
2020/01/31 20:48:54.9	6.370	-0.080	-1.200	-0.330
2020/01/31 20:48:55.0	6.400	-0.040	-1.260	-0.380
2020/01/31 20:48:55.1	6.440	-0.000	-1.310	-0.420
2020/01/31 20:48:55.2	6.470	0.040	-1.360	-0.460
2020/01/31 20:48:55.3	6.500	0.080	-1.390	-0.500
2020/01/31 20:48:55.4	6.540	0.110	-1.420	-0.540
2020/01/31 20:48:55.5	6.570	0.150	-1.430	-0.580
2020/01/31 20:48:55.6	6.610	0.180	-1.440	-0.610
2020/01/31 20:48:55.7	6.640	0.220	-1.440	-0.630
2020/01/31 20:48:55.8	6.670	0.250	-1.420	-0.650
2020/01/31 20:48:55.9	6.700	0.280	-1.400	-0.670
2020/01/31 20:48:56.0	6.730	0.300	-1.370	-0.690
2020/01/31 20:48:56.1	6.750	0.320	-1.320	-0.690
2020/01/31 20:48:56.2	6.780	0.340	-1.270	-0.690
2020/01/31 20:48:56.3	6.800	0.360	-1.210	-0.690
2020/01/31 20:48:56.4	6.820	0.370	-1.130	-0.680
2020/01/31 20:48:56.5	6.830	0.380	-1.050	-0.670
2020/01/31 20:48:56.6	6.840	0.380	-0.970	-0.650
2020/01/31 20:48:56.7	6.860	0.380	-0.870	-0.630
2020/01/31 20:48:56.8	6.860	0.380	-0.770	-0.600
2020/01/31 20:48:56.9	6.870	0.370	-0.670	-0.570
2020/01/31 20:48:57.0	6.890	0.360	-0.570	-0.530
2020/01/31 20:48:57.1	6.890	0.350	-0.460	-0.500
2020/01/31 20:48:57.2	6.890	0.330	-0.350	-0.460
2020/01/31 20:48:57.3	6.890	0.310	-0.240	-0.420
2020/01/31 20:48:57.4	6.880	0.290	-0.130	-0.380
2020/01/31 20:48:57.5	6.880	0.260	-0.020	-0.340
2020/01/31 20:48:57.6	6.870	0.230	0.080	-0.300
2020/01/31 20:48:57.7	6.860	0.200	0.180	-0.260
2020/01/31 20:48:57.8	6.850	0.170	0.280	-0.220
2020/01/31 20:48:57.9	6.840	0.140	0.370	-0.180
2020/01/31 20:48:58.0	6.840	0.110	0.450	-0.140
2020/01/31 20:48:58.1	6.820	0.070	0.530	-0.110
2020/01/31 20:48:58.2	6.810	0.030	0.600	-0.070
2020/01/31 20:48:58.3	6.790	-0.000	0.660	-0.030
2020/01/31 20:48:58.4	6.780	-0.040	0.710	0.000
2020/01/31 20:48:58.5	6.760	-0.070	0.760	0.040
2020/01/31 20:48:58.6	6.740	-0.100	0.800	0.070
2020/01/31 20:48:58.7	6.720	-0.140	0.830	0.100
2020/01/31 20:48:58.8	6.700	-0.170	0.850	0.130
2020/01/31 20:48:58.9	6.680	-0.200	0.860	0.160
2020/01/31 20:48:59.0	6.650	-0.220	0.860	0.190
2020/01/31 20:48:59.1	6.630	-0.250	0.850	0.220
2020/01/31 20:48:59.2	6.610	-0.270	0.840	0.240
2020/01/31 20:48:59.3	6.580	-0.290	0.820	0.270
2020/01/31 20:48:59.4	6.560	-0.310	0.780	0.300
2020/01/31 20:48:59.5	6.530	-0.320	0.750	0.320
2020/01/31 20:48:59.6	6.510	-0.330	0.700	0.340
2020/01/31 20:48:59.7	6.480	-0.340	0.650	0.370
2020/01/31 20:48:59.8	6.450	-0.340	0.590	0.390
2020/01/31 20:48:59.9	6.430	-0.350	0.520	0.410
2020/01/31 20:49:00.0	6.400	-0.340	0.460	0.430
2020/01/31 20:49:00.1	6.370	-0.340	0.380	0.450
2020/01/31 20:49:00.2	6.340	-0.330	0.310	0.470
2020/01/31 20:49:00.3	6.320	-0.320	0.230	0.480
2020/01/31 20:49:00.4	6.280	-0.310	0.150	0.500
2020/01/31 20:49:00.5	6.250	-0.290	0.070	0.510
2020/01/31 20:49:00.6	6.220	-0.280	-0.020	0.520
2020/01/31 20:49:00.7	6.190	-0.260	-0.100	0.520
2020/01/31 20:49:00.8	6.160	-0.230	-0.180	0.530
2020/01/31 20:49:00.9	6.130	-0.210	-0.260	0.530
2020/01/31 20:49:01.0	6.110	-0.190	-0.340	0.530
2020/01/31 20:49:01.1	6.080	-0.160	-0.420	0.520
2020/01/31 20:49:01.2	6.050	-0.130	-0.490	0.510
2020/01/31 20:49:01.3	6.030	-0.100	-0.560	0.510
2020/01/31 20:49:01.4	6.000	-0.070	-0.630	0.490
2020/01/31 20:49:01.5	5.970	-0.040	-0.690	0.480
2020/01/31 20:49:01.6	5.950	-0.010	-0.750	0.460
2020/01/31 20:49:01.7	5.920	0.020	-0.800	0.450
2020/01/31 20:49:01.8	5.900	0.050	-0.850	0.430
2020/01/31 20:49:01.9	5.880	0.080	-0.890	0.410
2020/01/31 20:49:02.0	5.850	0.110	-0.930	0.390
2020/01/31 20:49:02.1	5.830	0.140	-0.960	0.370
2020/01/31 20:49:02.2	5.820	0.170	-0.980	0.340
2020/01/31 20:49:02.3	5.810	0.200	-1.000	0.320
2020/01/31 20:49:02.4	5.790	0.220	-1.010	0.300
2020/01/31 20:49:02.5	5.790	0.250	-1.020	0.280
2020/01/31 20:49:02.6	5.780	0.270	-1.020	0.250
2020/01/31 20:49:02.7	5.780	0.290	-1.020	0.230
2020/01/31 20:49:02.8	5.780	0.310	-1.010	0.210
2020/01/31 20:49:02.9	5.780	0.330	-0.990	0.180
2020/01/31 20:49:03.0	5.780	0.340	-0.980	0.150
2020/01/31 20:49:03.1	5.790	0.350	-0.950	0.130
2020/01/31 20:49:03.2	5.800	0.360	-0.920	0.100
2020/01/31 20:49:03.3	5.810	0.370	-0.890	0.080
2020/01/31 20:49:03.4	5.830	0.370	-0.860	0.050
2020/01/31 20:49:03.5	5.840	0.380	-0.820	0.020
2020/01/31 20:49:03.6	5.860	0.370	-0.780	-0.000
2020/01/31 20:49:03.7	5.890	0.370	-0.730	-0.030
2020/01/31 20:49:03.8	5.910	0.360	-0.680	-0.060
2020/01/31 20:49:03.9	5.940	0.360	-0.640	-0.090
2020/01/31 20:49:04.0	5.960	0.340	-0.590	-0.110
2020/01/31 20:49:04.1	5.990	0.330	-0.540	-0.140
2020/01/31 20:49:04.2	6.030	0.310	-0.490	-0.170
2020/01/31 20:49:04.3	6.060	0.300	-0.440	-0.190
2020/01/31 20:49:04.4	6.100	0.280	-0.380	-0.220
2020/01/31 20:49:04.5	6.130	0.250	-0.330	-0.240
2020/01/31 20:49:04.6	6.170	0.230	-0.280	-0.270
2020/01/31 20:49:04.7	6.210	0.200	-0.230	-0.290
2020/01/31 20:49:04.8	6.250	0.180	-0.180	-0.310
2020/01/31 20:49:04.9	6.290	0.150	-0.140	-0.330
2020/01/31 20:49:05.0	6.360	0.120	-0.090	-0.350
2020/01/31 20:49:05.1	6.400	0.090	-0.050	-0.370
2020/01/31 20:49:05.2	6.440	0.060	-0.010	-0.380
2020/01/31 20:49:05.3	6.480	0.020	0.030	-0.400
2020/01/31 20:49:05.4	6.530	-0.010	0.070	-0.410
2020/01/31 20:49:05.5	6.570	-0.040	0.110	-0.420
2020/01/31 20:49:05.6	6.600	-0.080	0.140	-0.420
2020/01/31 20:49:05.7	6.640	-0.110	0.180	-0.430
2020/01/31 20:49:05.8	6.670	-0.150	0.210	-0.430
2020/01/31 20:49:05.9	6.700	-0.180	0.240	-0.430
2020/01/31 20:49:06.0	6.730	-0.220	0.260	-0.430
2020/01/31 20:49:06.1	6.750	-0.250	0.290	-0.430
2020/01/31 20:49:06.2	6.770	-0.280	0.310	-0.420
2020/01/31 20:49:06.3	6.780	-0.320	0.330	-0.410
2020/01/31 20:49:06.4	6.790	-0.350	0.350	-0.390
2020/01/31 20:49:06.5	6.790	-0.380	0.370	-0.380
2020/01/31 20:49:06.6	6.790	-0.410	0.390	-0.360
2020/01/31 20:49:06.7	6.790	-0.430	0.400	-0.340
2020/01/31 20:49:06.8	6.780	-0.460	0.410	-0.310
2020/01/31 20:49:06.9	6.770	-0.480	0.410	-0.280
2020/01/31 20:49:07.0	6.740	-0.500	0.420	-0.250
2020/01/31 20:49:07.1	6.720	-0.520	0.410	-0.220
2020/01/31 20:49:07.2	6.700	-0.540	0.410	-0.190
2020/01/31 20:49:07.3	6.680	-0.550	0.400	-0.150
2020/01/31 20:49:07.4	6.650	-0.560	0.380	-0.120
2020/01/31 20:49:07.5	6.620	-0.560	0.360	-0.080
2020/01/31 20:49:07.6	6.590	-0.560	0.340	-0.050
2020/01/31 20:49:07.7	6.570	-0.560	0.310	-0.020
2020/01/31 20:49:07.8	6.540	-0.560	0.270	0.010
2020/01/31 20:49:07.9	6.510	-0.550	0.230	0.040
2020/01/31 20:49:08.0	6.480	-0.530	0.180	0.060
2020/01/31 20:49:08.1	6.460	-0.520	0.120	0.090
2020/01/31 20:49:08.2	6.430	-0.500	0.060	0.110
2020/01/31 20:49:08.3	6.410	-0.470	-0.000	0.120
2020/01/31 20:49:08.4	6.390	-0.440	-0.070	0.140
2020/01/31 20:49:08.5	6.380	-0.410	-0.150	0.150
2020/01/31 20:49:08.6	6.360	-0.380	-0.220	0.150
2020/01/31 20:49:08.7	6.350	-0.340	-0.300	0.160
2020/01/31 20:49:08.8	6.330	-0.300	-0.380	0.160
2020/01/31 20:49:08.9	6.320	-0.250	-0.470	0.150
2020/01/31 20:49:09.0	6.310	-0.210	-0.550	0.150
2020/01/31 20:49:09.1	6.300	-0.160	-0.630	0.140
2020/01/31 20:49:09.2	6.290	-0.110	-0.710	0.130
2020/01/31 20:49:09.3	6.280	-0.060	-0.790	0.120
2020/01/31 20:49:09.4	6.280	-0.010	-0.860	0.100
2020/01/31 20:49:09.5	6.270	0.040	-0.930	0.090
2020/01/31 20:49:09.6	6.260	0.090	-0.990	0.070
2020/01/31 20:49:09.7	6.260	0.140	-1.040	0.060
2020/01/31 20:49:09.8	6.250	0.180	-1.090	0.040
2020/01/31 20:49:09.9	6.240	0.230	-1.130	0.030
2020/01/31 20:49:10.0	6.230	0.280	-1.160	0.020
2020/01/31 20:49:10.1	6.220	0.320	-1.180	0.010
2020/01/31 20:49:10.2	6.210	0.360	-1.200	0.000
2020/01/31 20:49:10.3	6.200	0.400	-1.200	-0.000
2020/01/31 20:49:10.4	6.190	0.430	-1.190	-0.010
2020/01/31 20:49:10.5	6.180	0.470	-1.170	-0.010
2020/01/31 20:49:10.6	6.170	0.490	-1.150	-0.000
2020/01/31 20:49:10.7	6.150	0.520	-1.110	0.000
2020/01/31 20:49:10.8	6.140	0.540	-1.060	0.010
2020/01/31 20:49:10.9	6.130	0.550	-1.010	0.020
2020/01/31 20:49:11.0	6.110	0.570	-0.950	0.030
2020/01/31 20:49:11.1	6.100	0.570	-0.880	0.050
2020/01/31 20:49:11.2	6.080	0.580	-0.800	0.070
2020/01/31 20:49:11.3	6.070	0.570	-0.720	0.090
2020/01/31 20:49:11.4	6.050	0.570	-0.640	0.110
2020/01/31 20:49:11.5	6.040	0.560	-0.550	0.130
2020/01/31 20:49:11.6	6.020	0.540	-0.450	0.150
2020/01/31 20:49:11.7	6.000	0.530	-0.360	0.180
2020/01/31 20:49:11.8	5.990	0.500	-0.260	0.200
2020/01/31 20:49:11.9	5.970	0.480	-0.170	0.220
2020/01/31 20:49:12.0	5.950	0.450	-0.080	0.240
2020/01/31 20:49:12.1	5.930	0.420	0.010	0.260
2020/01/31 20:49:12.2	5.920	0.380	0.100	0.280
2020/01/31 20:49:12.3	5.900	0.350	0.190	0.300
2020/01/31 20:49:12.4	5.890	0.310	0.270	0.310
2020/01/31 20:49:12.5	5.880	0.270	0.340	0.320
2020/01/31 20:49:12.6	5.870	0.220	0.410	0.330
2020/01/31 20:49:12.7	5.860	0.180	0.470	0.340
2020/01/31 20:49:12.8	5.850	0.140	0.530	0.340
2020/01/31 20:49:12.9	5.840	0.090	0.570	0.340
2020/01/31 20:49:13.0	5.820	0.050	0.610	0.330
2020/01/31 20:49:13.1	5.820	0.010	0.640	0.330
2020/01/31 20:49:13.2	5.820	-0.040	0.660	0.320
2020/01/31 20:49:13.3	5.820	-0.080	0.670	0.300
2020/01/31 20:49:13.4	5.820	-0.110	0.670	0.290
2020/01/31 20:49:13.5	5.820	-0.150	0.660	0.270
2020/01/31 20:49:13.6	5.830	-0.190	0.640	0.240
2020/01/31 20:49:13.7	5.830	-0.220	0.620	0.220
2020/01/31 20:49:13.8	5.840	-0.250	0.590	0.190
2020/01/31 20:49:13.9	5.860	-0.270	0.550	0.160
2020/01/31 20:49:14.0	5.860	-0.300	0.500	0.130
2020/01/31 20:49:14.1	5.880	-0.320	0.450	0.090
2020/01/31 20:49:14.2	5.900	-0.330	0.390	0.050
2020/01/31 20:49:14.3	5.920	-0.350	0.330	0.020
2020/01/31 20:49:14.4	5.940	-0.360	0.260	-0.020
2020/01/31 20:49:14.5	5.970	-0.360	0.190	-0.070
2020/01/31 20:49:14.6	6.000	-0.370	0.110	-0.110
2020/01/31 20:49:14.7	6.020	-0.370	0.040	-0.150
2020/01/31 20:49:14.8	6.050	-0.360	-0.040	-0.200
2020/01/31 20:49:14.9	6.090	-0.360	-0.120	-0.240
2020/01/31 20:49:15.0	6.100	-0.350	-0.200	-0.290
2020/01/31 20:49:15.1	6.130	-0.340	-0.280	-0.330
2020/01/31 20:49:15.2	6.160	-0.320	-0.360	-0.370
2020/01/31 20:49:15.3	6.190	-0.310	-0.430	-0.400
2020/01/31 20:49:15.4	6.210	-0.290	-0.510	-0.440
2020/01/31 20:49:15.5	6.240	-0.270	-0.580	-0.470
2020/01/31 20:49:15.6	6.260	-0.250	-0.640	-0.500
2020/01/31 20:49:15.7	6.280	-0.230	-0.700	-0.520
2020/01/31 20:49:15.8	6.300	-0.210	-0.760	-0.540
2020/01/31 20:49:15.9	6.310	-0.190	-0.810	-0.560
2020/01/31 20:49:16.0	6.320	-0.160	-0.850	-0.570
2020/01/31 20:49:16.1	6.330	-0.140	-0.890	-0.580
2020/01/31 20:49:16.2	6.340	-0.120	-0.930	-0.580
2020/01/31 20:49:16.3	6.350	-0.100	-0.950	-0.580
2020/01/31 20:49:16.4	6.350	-0.070	-0.970	-0.580
2020/01/31 20:49:16.5	6.360	-0.050	-0.990	-0.570
2020/01/31 20:49:16.6	6.360	-0.030	-1.000	-0.560
2020/01/31 20:49:16.7	6.360	-0.010	-1.000	-0.550
2020/01/31 20:49:16.8	6.360	0.010	-0.990	-0.530
2020/01/31 20:49:16.9	6.350	0.020	-0.980	-0.510
2020/01/31 20:49:17.0	6.360	0.040	-0.970	-0.490
2020/01/31 20:49:17.1	6.350	0.060	-0.950	-0.460
2020/01/31 20:49:17.2	6.340	0.070	-0.920	-0.430
2020/01/31 20:49:17.3	6.330	0.080	-0.890	-0.400
2020/01/31 20:49:17.4	6.320	0.090	-0.850	-0.370
2020/01/31 20:49:17.5	6.300	0.100	-0.810	-0.340
2020/01/31 20:49:17.6	6.290	0.110	-0.760	-0.300
2020/01/31 20:49:17.7	6.270	0.120	-0.710	-0.260
2020/01/31 20:49:17.8	6.250	0.120	-0.660	-0.220
2020/01/31 20:49:17.9	6.240	0.130	-0.600	-0.180
2020/01/31 20:49:18.0	6.230	0.130	-0.540	-0.130
2020/01/31 20:49:18.1	6.210	0.130	-0.480	-0.090
2020/01/31 20:49:18.2	6.190	0.130	-0.420	-0.040
2020/01/31 20:49:18.3	6.170	0.130	-0.360	0.000
2020/01/31 20:49:18.4	6.150	0.130	-0.300	0.050
2020/01/31 20:49:18.5	6.120	0.130	-0.240	0.100
2020/01/31 20:49:18.6	6.100	0.130	-0.170	0.150
2020/01/31 20:49:18.7	6.070	0.120	-0.110	0.200
2020/01/31 20:49:18.8	6.040	0.120	-0.050	0.250
2020/01/31 20:49:18.9	6.020	0.110	0.010	0.300
2020/01/31 20:49:19.0	5.990	0.110	0.060	0.340
2020/01/31 20:49:19.1	5.960	0.100	0.110	0.390
2020/01/31 20:49:19.2	5.930	0.090	0.160	0.430
2020/01/31 20:49:19.3	5.900	0.080	0.210	0.470
2020/01/31 20:49:19.4	5.870	0.070	0.250	0.510
2020/01/31 20:49:19.5	5.840	0.060	0.290	0.540
2020/01/31 20:49:19.6	5.810	0.040	0.320	0.570
2020/01/31 20:49:19.7	5.790	0.030	0.350	0.590
2020/01/31 20:49:19.8	5.760	0.020	0.370	0.610
2020/01/31 20:49:19.9	5.740	0.010	0.390	0.610
2020/01/31 20:49:20.0	5.740	-0.010	0.400	0.620
2020/01/31 20:49:20.1	5.720	-0.020	0.410	0.620
2020/01/31 20:49:20.2	5.710	-0.030	0.410	0.610
2020/01/31 20:49:20.3	5.690	-0.050	0.410	0.590
2020/01/31 20:49:20.4	5.690	-0.060	0.400	0.560
2020/01/31 20:49:20.5	5.680	-0.070	0.380	0.540
2020/01/31 20:49:20.6	5.680	-0.090	0.360	0.500
2020/01/31 20:49:20.7	5.680	-0.100	0.330	0.460
2020/01/31 20:49:20.8	5.680	-0.110	0.300	0.420
2020/01/31 20:49:20.9	5.690	-0.120	0.260	0.370
2020/01/31 20:49:21.0	5.700	-0.130	0.230	0.320
2020/01/31 20:49:21.1	5.710	-0.130	0.180	0.270
2020/01/31 20:49:21.2	5.730	-0.140	0.140	0.210
2020/01/31 20:49:21.3	5.740	-0.150	0.090	0.160
2020/01/31 20:49:21.4	5.750	-0.150	0.040	0.110
2020/01/31 20:49:21.5	5.770	-0.160	-0.010	0.050
2020/01/31 20:49:21.6	5.780	-0.160	-0.060	0.000
2020/01/31 20:49:21.7	5.800	-0.160	-0.100	-0.050
2020/01/31 20:49:21.8	5.820	-0.160	-0.150	-0.100
2020/01/31 20:49:21.9	5.830	-0.160	-0.200	-0.150
2020/01/31 20:49:22.0	5.840	-0.160	-0.250	-0.200
2020/01/31 20:49:22.1	5.860	-0.160	-0.290	-0.250
2020/01/31 20:49:22.2	5.870	-0.160	-0.340	-0.290
2020/01/31 20:49:22.3	5.880	-0.160	-0.380	-0.330
2020/01/31 20:49:22.4	5.900	-0.160	-0.410	-0.360
2020/01/31 20:49:22.5	5.910	-0.150	-0.450	-0.400
2020/01/31 20:49:22.6	5.920	-0.150	-0.480	-0.430
2020/01/31 20:49:22.7	5.930	-0.140	-0.510	-0.460
2020/01/31 20:49:22.8	5.940	-0.140	-0.540	-0.480
2020/01/31 20:49:22.9	5.950	-0.130	-0.560	-0.510
2020/01/31 20:49:23.0	5.940	-0.120	-0.580	-0.530
2020/01/31 20:49:23.1	5.960	-0.110	-0.600	-0.550
2020/01/31 20:49:23.2	5.970	-0.100	-0.620	-0.570
2020/01/31 20:49:23.3	5.980	-0.090	-0.630	-0.590
2020/01/31 20:49:23.4	5.990	-0.080	-0.650	-0.600
2020/01/31 20:49:23.5	6.000	-0.070	-0.660	-0.620
2020/01/31 20:49:23.6	6.020	-0.060	-0.670	-0.630
2020/01/31 20:49:23.7	6.030	-0.040	-0.680	-0.640
2020/01/31 20:49:23.8	6.040	-0.030	-0.690	-0.640
2020/01/31 20:49:23.9	6.050	-0.010	-0.690	-0.640
2020/01/31 20:49:24.0	6.060	0.000	-0.700	-0.650
2020/01/31 20:49:24.1	6.070	0.020	-0.700	-0.650
2020/01/31 20:49:24.2	6.080	0.040	-0.690	-0.640
2020/01/31 20:49:24.3	6.090	0.060	-0.690	-0.630
2020/01/31 20:49:24.4	6.100	0.080	-0.680	-0.620
2020/01/31 20:49:24.5	6.110	0.090	-0.670	-0.610
2020/01/31 20:49:24.6	6.120	0.110	-0.660	-0.590
2020/01/31 20:49:24.7	6.120	0.130	-0.640	-0.570
2020/01/31 20:49:24.8	6.130	0.150	-0.620	-0.540
2020/01/31 20:49:24.9	6.130	0.170	-0.600	-0.520
2020/01/31 20:49:25.0	6.120	0.190	-0.580	-0.480
2020/01/31 20:49:25.1	6.120	0.210	-0.550	-0.450
2020/01/31 20:49:25.2	6.120	0.230	-0.520	-0.420
2020/01/31 20:49:25.3	6.110	0.240	-0.490	-0.380
2020/01/31 20:49:25.4	6.100	0.260	-0.460	-0.340
2020/01/31 20:49:25.5	6.100	0.270	-0.430	-0.300
2020/01/31 20:49:25.6	6.080	0.280	-0.390	-0.260
2020/01/31 20:49:25.7	6.070	0.290	-0.360	-0.220
2020/01/31 20:49:25.8	6.060	0.300	-0.320	-0.170
2020/01/31 20:49:25.9	6.040	0.310	-0.280	-0.130
2020/01/31 20:49:26.0	6.020	0.310	-0.250	-0.080
2020/01/31 20:49:26.1	6.010	0.320	-0.210	-0.040
2020/01/31 20:49:26.2	5.990	0.320	-0.170	0.010
2020/01/31 20:49:26.3	5.970	0.320	-0.140	0.050
2020/01/31 20:49:26.4	5.950	0.320	-0.110	0.090
2020/01/31 20:49:26.5	5.920	0.310	-0.070	0.140
2020/01/31 20:49:26.6	5.900	0.310	-0.040	0.180
2020/01/31 20:49:26.7	5.880	0.300	-0.020	0.220
2020/01/31 20:49:26.8	5.860	0.290	0.010	0.250
2020/01/31 20:49:26.9	5.840	0.280	0.030	0.290
2020/01/31 20:49:27.0	5.820	0.270	0.050	0.320
2020/01/31 20:49:27.1	5.800	0.250	0.060	0.340
2020/01/31 20:49:27.2	5.780	0.240	0.070	0.370
2020/01/31 20:49:27.3	5.770	0.230	0.080	0.390
2020/01/31 20:49:27.4	5.750	0.210	0.090	0.410
2020/01/31 20:49:27.5	5.730	0.200	0.090	0.420
2020/01/31 20:49:27.6	5.720	0.180	0.090	0.430
2020/01/31 20:49:27.7	5.710	0.170	0.080	0.440
2020/01/31 20:49:27.8	5.700	0.160	0.070	0.450
2020/01/31 20:49:27.9	5.690	0.140	0.060	0.450
2020/01/31 20:49:28.0	5.670	0.130	0.040	0.450
2020/01/31 20:49:28.1	5.660	0.120	0.030	0.440
2020/01/31 20:49:28.2	5.660	0.110	0.000	0.440
2020/01/31 20:49:28.3	5.650	0.100	-0.020	0.440
2020/01/31 20:49:28.4	5.640	0.090	-0.040	0.430
2020/01/31 20:49:28.5	5.630	0.080	-0.070	0.430
2020/01/31 20:49:28.6	5.620	0.070	-0.090	0.420
2020/01/31 20:49:28.7	5.610	0.070	-0.110	0.410
2020/01/31 20:49:28.8	5.600	0.060	-0.140	0.400
2020/01/31 20:49:28.9	5.590	0.050	-0.160	0.400
2020/01/31 20:49:29.0	5.580	0.050	-0.190	0.390
2020/01/31 20:49:29.1	5.570	0.040	-0.210	0.380
2020/01/31 20:49:29.2	5.560	0.030	-0.230	0.370
2020/01/31 20:49:29.3	5.540	0.020	-0.240	0.360
2020/01/31 20:49:29.4	5.530	0.010	-0.260	0.350
2020/01/31 20:49:29.5	5.520	0.000	-0.270	0.340
2020/01/31 20:49:29.6	5.510	-0.010	-0.290	0.320
2020/01/31 20:49:29.7	5.500	-0.020	-0.300	0.310
2020/01/31 20:49:29.8	5.490	-0.030	-0.310	0.290
2020/01/31 20:49:29.9	5.480	-0.050	-0.320	0.270
2020/01/31 20:49:30.0	5.460	-0.060	-0.320	0.250
2020/01/31 20:49:30.1	5.460	-0.080	-0.330	0.220
2020/01/31 20:49:30.2	5.450	-0.100	-0.340	0.200
2020/01/31 20:49:30.3	5.450	-0.120	-0.340	0.170
2020/01/31 20:49:30.4	5.450	-0.140	-0.350	0.140
2020/01/31 20:49:30.5	5.460	-0.160	-0.350	0.110
2020/01/31 20:49:30.6	5.460	-0.180	-0.360	0.070
2020/01/31 20:49:30.7	5.470	-0.210	-0.370	0.040
2020/01/31 20:49:30.8	5.480	-0.230	-0.370	-0.000
2020/01/31 20:49:30.9	5.490	-0.250	-0.380	-0.040
2020/01/31 20:49:31.0	5.520	-0.270	-0.390	-0.080
2020/01/31 20:49:31.1	5.540	-0.290	-0.400	-0.120
2020/01/31 20:49:31.2	5.560	-0.320	-0.410	-0.170
2020/01/31 20:49:31.3	5.580	-0.340	-0.420	-0.210
2020/01/31 20:49:31.4	5.610	-0.350	-0.430	-0.250
2020/01/31 20:49:31.5	5.630	-0.370	-0.440	-0.300
2020/01/31 20:49:31.6	5.660	-0.390	-0.460	-0.340
2020/01/31 20:49:31.7	5.690	-0.400	-0.470	-0.390
2020/01/31 20:49:31.8	5.720	-0.410	-0.480	-0.430
2020/01/31 20:49:31.9	5.740	-0.420	-0.490	-0.470
2020/01/31 20:49:32.0	5.770	-0.430	-0.510	-0.520
2020/01/31 20:49:32.1	5.800	-0.430	-0.520	-0.550
2020/01/31 20:49:32.2	5.830	-0.440	-0.520	-0.590
2020/01/31 20:49:32.3	5.850	-0.430	-0.530	-0.620
2020/01/31 20:49:32.4	5.880	-0.430	-0.530	-0.650
2020/01/31 20:49:32.5	5.900	-0.420	-0.530	-0.670
2020/01/31 20:49:32.6	5.920	-0.420	-0.530	-0.690
2020/01/31 20:49:32.7	5.940	-0.400	-0.520	-0.700
2020/01/31 20:49:32.8	5.950	-0.390	-0.510	-0.710
2020/01/31 20:49:32.9	5.960	-0.370	-0.500	-0.720
2020/01/31 20:49:33.0	5.980	-0.350	-0.490	-0.720
2020/01/31 20:49:33.1	5.990	-0.330	-0.470	-0.720
2020/01/31 20:49:33.2	5.990	-0.300	-0.440	-0.710
2020/01/31 20:49:33.3	5.990	-0.280	-0.420	-0.700
2020/01/31 20:49:33.4	5.990	-0.250	-0.390	-0.680
2020/01/31 20:49:33.5	5.990	-0.220	-0.360	-0.660
2020/01/31 20:49:33.6	5.980	-0.190	-0.320	-0.630
2020/01/31 20:49:33.7	5.970	-0.150	-0.280	-0.600
2020/01/31 20:49:33.8	5.960	-0.120	-0.240	-0.560
2020/01/31 20:49:33.9	5.950	-0.080	-0.200	-0.520
2020/01/31 20:49:34.0	5.930	-0.050	-0.160	-0.480
2020/01/31 20:49:34.1	5.920	-0.010	-0.120	-0.430
2020/01/31 20:49:34.2	5.900	0.020	-0.070	-0.380
2020/01/31 20:49:34.3	5.880	0.060	-0.030	-0.330
2020/01/31 20:49:34.4	5.850	0.090	0.020	-0.270
2020/01/31 20:49:34.5	5.830	0.120	0.060	-0.210
2020/01/31 20:49:34.6	5.800	0.160	0.110	-0.150
2020/01/31 20:49:34.7	5.780	0.180	0.150	-0.090
2020/01/31 20:49:34.8	5.750	0.210	0.190	-0.030
2020/01/31 20:49:34.9	5.720	0.240	0.220	0.030
2020/01/31 20:49:35.0	5.700	0.260	0.260	0.090
2020/01/31 20:49:35.1	5.670	0.280	0.290	0.150
2020/01/31 20:49:35.2	5.640	0.300	0.310	0.210
2020/01/31 20:49:35.3	5.610	0.320	0.340	0.270
2020/01/31 20:49:35.4	5.580	0.330	0.360	0.330
2020/01/31 20:49:35.5	5.550	0.340	0.370	0.380
2020/01/31 20:49:35.6	5.520	0.340	0.380	0.430
2020/01/31 20:49:35.7	5.490	0.350	0.390	0.480
2020/01/31 20:49:35.8	5.460	0.350	0.390	0.520
2020/01/31 20:49:35.9	5.430	0.350	0.390	0.560
2020/01/31 20:49:36.0	5.420	0.340	0.370	0.590
2020/01/31 20:49:36.1	5.390	0.340	0.360	0.620
2020/01/31 20:49:36.2	5.370	0.330	0.340	0.640
2020/01/31 20:49:36.3	5.340	0.310	0.310	0.660
2020/01/31 20:49:36.4	5.310	0.300	0.280	0.670
2020/01/31 20:49:36.5	5.290	0.280	0.250	0.670
2020/01/31 20:49:36.6	5.270	0.260	0.210	0.670
2020/01/31 20:49:36.7	5.240	0.250	0.160	0.670
2020/01/31 20:49:36.8	5.220	0.220	0.110	0.660
2020/01/31 20:49:36.9	5.200	0.200	0.060	0.640
2020/01/31 20:49:37.0	5.190	0.180	0.010	0.620
2020/01/31 20:49:37.1	5.170	0.160	-0.050	0.590
2020/01/31 20:49:37.2	5.160	0.140	-0.120	0.570
2020/01/31 20:49:37.3	5.140	0.110	-0.180	0.530
2020/01/31 20:49:37.4	5.130	0.090	-0.240	0.500
2020/01/31 20:49:37.5	5.110	0.070	-0.310	0.470
2020/01/31 20:49:37.6	5.100	0.050	-0.370	0.430
2020/01/31 20:49:37.7	5.090	0.030	-0.430	0.390
2020/01/31 20:49:37.8	5.080	0.020	-0.500	0.350
2020/01/31 20:49:37.9	5.080	0.000	-0.560	0.310
2020/01/31 20:49:38.0	5.080	-0.010	-0.620	0.260
2020/01/31 20:49:38.1	5.080	-0.020	-0.670	0.220
2020/01/31 20:49:38.2	5.070	-0.030	-0.730	0.170
2020/01/31 20:49:38.3	5.080	-0.040	-0.780	0.130
2020/01/31 20:49:38.4	5.080	-0.050	-0.820	0.080
2020/01/31 20:49:38.5	5.080	-0.050	-0.870	0.040
2020/01/31 20:49:38.6	5.090	-0.050	-0.910	-0.010
2020/01/31 20:49:38.7	5.100	-0.050	-0.940	-0.050
2020/01/31 20:49:38.8	5.120	-0.040	-0.980	-0.100
2020/01/31 20:49:38.9	5.130	-0.030	-1.010	-0.140
2020/01/31 20:49:39.0	5.140	-0.030	-1.030	-0.190
2020/01/31 20:49:39.1	5.160	-0.010	-1.050	-0.230
2020/01/31 20:49:39.2	5.190	-0.000	-1.060	-0.270
2020/01/31 20:49:39.3	5.210	0.010	-1.080	-0.300
2020/01/31 20:49:39.4	5.240	0.030	-1.080	-0.340
2020/01/31 20:49:39.5	5.260	0.040	-1.090	-0.370
2020/01/31 20:49:39.6	5.290	0.060	-1.090	-0.400
2020/01/31 20:49:39.7	5.320	0.080	-1.080	-0.430
2020/01/31 20:49:39.8	5.350	0.100	-1.070	-0.450
2020/01/31 20:49:39.9	5.380	0.110	-1.050	-0.470
2020/01/31 20:49:40.0	5.400	0.130	-1.040	-0.490
2020/01/31 20:49:40.1	5.430	0.140	-1.020	-0.500
2020/01/31 20:49:40.2	5.450	0.160	-0.990	-0.510
2020/01/31 20:49:40.3	5.480	0.170	-0.960	-0.520
2020/01/31 20:49:40.4	5.510	0.180	-0.920	-0.520
2020/01/31 20:49:40.5	5.530	0.180	-0.880	-0.530
2020/01/31 20:49:40.6	5.560	0.190	-0.830	-0.530
2020/01/31 20:49:40.7	5.580	0.190	-0.790	-0.520
2020/01/31 20:49:40.8	5.610	0.190	-0.730	-0.520
2020/01/31 20:49:40.9	5.630	0.180	-0.680	-0.510
2020/01/31 20:49:41.0	5.640	0.180	-0.620	-0.510
2020/01/31 20:49:41.1	5.660	0.170	-0.560	-0.500
2020/01/31 20:49:41.2	5.680	0.150	-0.500	-0.490
2020/01/31 20:49:41.3	5.700	0.140	-0.430	-0.470
2020/01/31 20:49:41.4	5.720	0.120	-0.370	-0.460
2020/01/31 20:49:41.5	5.740	0.100	-0.300	-0.450
2020/01/31 20:49:41.6	5.760	0.070	-0.230	-0.430
2020/01/31 20:49:41.7	5.770	0.040	-0.160	-0.420
2020/01/31 20:49:41.8	5.790	0.010	-0.090	-0.400
2020/01/31 20:49:41.9	5.800	-0.020	-0.020	-0.380
2020/01/31 20:49:42.0	5.800	-0.050	0.040	-0.360
2020/01/31 20:49:42.1	5.810	-0.090	0.110	-0.340
2020/01/31 20:49:42.2	5.820	-0.120	0.180	-0.320
2020/01/31 20:49:42.3	5.820	-0.160	0.250	-0.300
2020/01/31 20:49:42.4	5.820	-0.200	0.310	-0.270
2020/01/31 20:49:42.5	5.820	-0.240	0.380	-0.250
2020/01/31 20:49:42.6	5.820	-0.280	0.440	-0.230
2020/01/31 20:49:42.7	5.820	-0.320	0.490	-0.200
2020/01/31 20:49:42.8	5.810	-0.360	0.540	-0.180
2020/01/31 20:49:42.9	5.800	-0.390	0.590	-0.150
2020/01/31 20:49:43.0	5.800	-0.430	0.630	-0.130
2020/01/31 20:49:43.1	5.790	-0.460	0.670	-0.110
2020/01/31 20:49:43.2	5.770	-0.490	0.700	-0.080
2020/01/31 20:49:43.3	5.760	-0.520	0.720	-0.060
2020/01/31 20:49:43.4	5.740	-0.550	0.740	-0.040
2020/01/31 20:49:43.5	5.730	-0.570	0.750	-0.020
2020/01/31 20:49:43.6	5.710	-0.590	0.750	0.000
2020/01/31 20:49:43.7	5.690	-0.600	0.750	0.020
2020/01/31 20:49:43.8	5.680	-0.610	0.730	0.040
2020/01/31 20:49:43.9	5.660	-0.620	0.710	0.060
2020/01/31 20:49:44.0	5.640	-0.620	0.690	0.070
2020/01/31 20:49:44.1	5.630	-0.610	0.650	0.080
2020/01/31 20:49:44.2	5.610	-0.610	0.600	0.100
2020/01/31 20:49:44.3	5.590	-0.590	0.550	0.110
2020/01/31 20:49:44.4	5.570	-0.570	0.490	0.120
2020/01/31 20:49:44.5	5.550	-0.550	0.430	0.130
2020/01/31 20:49:44.6	5.530	-0.520	0.360	0.140
2020/01/31 20:49:44.7	5.510	-0.490	0.290	0.150
2020/01/31 20:49:44.8	5.500	-0.450	0.210	0.160
2020/01/31 20:49:44.9	5.480	-0.400	0.130	0.170
2020/01/31 20:49:45.0	5.460	-0.360	0.040	0.180
2020/01/31 20:49:45.1	5.440	-0.310	-0.040	0.190
2020/01/31 20:49:45.2	5.420	-0.260	-0.130	0.200
2020/01/31 20:49:45.3	5.400	-0.200	-0.210	0.210
2020/01/31 20:49:45.4	5.380	-0.140	-0.300	0.220
2020/01/31 20:49:45.5	5.360	-0.080	-0.380	0.230
2020/01/31 20:49:45.6	5.340	-0.020	-0.460	0.250
2020/01/31 20:49:45.7	5.320	0.040	-0.540	0.260
2020/01/31 20:49:45.8	5.300	0.110	-0.610	0.270
2020/01/31 20:49:45.9	5.290	0.170	-0.680	0.280
2020/01/31 20:49:46.0	5.270	0.230	-0.740	0.280
2020/01/31 20:49:46.1	5.250	0.290	-0.800	0.290
2020/01/31 20:49:46.2	5.240	0.350	-0.850	0.300
2020/01/31 20:49:46.3	5.220	0.410	-0.900	0.310
2020/01/31 20:49:46.4	5.210	0.460	-0.940	0.320
2020/01/31 20:49:46.5	5.190	0.510	-0.970	0.330
2020/01/31 20:49:46.6	5.180	0.560	-1.000	0.330
2020/01/31 20:49:46.7	5.170	0.600	-1.010	0.340
2020/01/31 20:49:46.8	5.160	0.640	-1.030	0.340
2020/01/31 20:49:46.9	5.150	0.680	-1.030	0.350
2020/01/31 20:49:47.0	5.140	0.710	-1.030	0.350
2020/01/31 20:49:47.1	5.130	0.730	-1.020	0.360
2020/01/31 20:49:47.2	5.120	0.750	-1.010	0.360
2020/01/31 20:49:47.3	5.110	0.760	-0.980	0.360
2020/01/31 20:49:47.4	5.100	0.770	-0.950	0.360
2020/01/31 20:49:47.5	5.080	0.780	-0.920	0.360
2020/01/31 20:49:47.6	5.070	0.770	-0.880	0.360
2020/01/31 20:49:47.7	5.060	0.760	-0.830	0.360
2020/01/31 20:49:47.8	5.050	0.750	-0.780	0.350
2020/01/31 20:49:47.9	5.040	0.730	-0.720	0.350
2020/01/31 20:49:48.0	5.030	0.710	-0.670	0.340
2020/01/31 20:49:48.1	5.020	0.680	-0.610	0.330
2020/01/31 20:49:48.2	5.020	0.650	-0.550	0.320
2020/01/31 20:49:48.3	5.010	0.620	-0.490	0.310
2020/01/31 20:49:48.4	5.010	0.580	-0.420	0.290
2020/01/31 20:49:48.5	5.010	0.540	-0.360	0.280
2020/01/31 20:49:48.6	5.010	0.500	-0.310	0.260
2020/01/31 20:49:48.7	5.010	0.450	-0.250	0.240
2020/01/31 20:49:48.8	5.010	0.410	-0.190	0.210
2020/01/31 20:49:48.9	5.020	0.360	-0.140	0.190
2020/01/31 20:49:49.0	5.030	0.310	-0.100	0.160
2020/01/31 20:49:49.1	5.040	0.270	-0.050	0.130
2020/01/31 20:49:49.2	5.050	0.220	-0.010	0.100
2020/01/31 20:49:49.3	5.060	0.180	0.020	0.070
2020/01/31 20:49:49.4	5.080	0.130	0.050	0.040
2020/01/31 20:49:49.5	5.100	0.090	0.080	0.000
2020/01/31 20:49:49.6	5.110	0.050	0.100	-0.030
2020/01/31 20:49:49.7	5.130	0.010	0.110	-0.060
2020/01/31 20:49:49.8	5.150	-0.030	0.130	-0.100
2020/01/31 20:49:49.9	5.170	-0.060	0.130	-0.130
2020/01/31 20:49:50.0	5.200	-0.100	0.140	-0.170
2020/01/31 20:49:50.1	5.220	-0.130	0.140	-0.200
2020/01/31 20:49:50.2	5.240	-0.160	0.140	-0.240
2020/01/31 20:49:50.3	5.260	-0.180	0.130	-0.270
2020/01/31 20:49:50.4	5.280	-0.210	0.120	-0.310
2020/01/31 20:49:50.5	5.290	-0.230	0.100	-0.340
2020/01/31 20:49:50.6	5.310	-0.250	0.090	-0.380
2020/01/31 20:49:50.7	5.330	-0.270	0.070	-0.410
2020/01/31 20:49:50.8	5.340	-0.290	0.050	-0.440
2020/01/31 20:49:50.9	5.360	-0.310	0.020	-0.480
2020/01/31 20:49:51.0	5.370	-0.330	-0.010	-0.510
2020/01/31 20:49:51.1	5.380	-0.340	-0.030	-0.540
2020/01/31 20:49:51.2	5.390	-0.360	-0.050	-0.560
2020/01/31 20:49:51.3	5.390	-0.370	-0.080	-0.590
2020/01/31 20:49:51.4	5.400	-0.380	-0.100	-0.610
2020/01/31 20:49:51.5	5.400	-0.400	-0.130	-0.620
2020/01/31 20:49:51.6	5.410	-0.410	-0.150	-0.640
2020/01/31 20:49:51.7	5.410	-0.420	-0.170	-0.650
2020/01/31 20:49:51.8	5.400	-0.430	-0.190	-0.660
2020/01/31 20:49:51.9	5.400	-0.440	-0.210	-0.660
2020/01/31 20:49:52.0	5.380	-0.450	-0.230	-0.670
2020/01/31 20:49:52.1	5.380	-0.450	-0.250	-0.670
2020/01/31 20:49:52.2	5.370	-0.460	-0.260	-0.670
2020/01/31 20:49:52.3	5.370	-0.470	-0.280	-0.670
2020/01/31 20:49:52.4	5.360	-0.470	-0.290	-0.660
2020/01/31 20:49:52.5	5.350	-0.480	-0.300	-0.650
2020/01/31 20:49:52.6	5.340	-0.480	-0.310	-0.640
2020/01/31 20:49:52.7	5.340	-0.480	-0.310	-0.630
2020/01/31 20:49:52.8	5.330	-0.490	-0.320	-0.620
2020/01/31 20:49:52.9	5.320	-0.480	-0.320	-0.600
2020/01/31 20:49:53.0	5.320	-0.480	-0.320	-0.580
2020/01/31 20:49:53.1	5.310	-0.480	-0.320	-0.560
2020/01/31 20:49:53.2	5.310	-0.470	-0.320	-0.540
2020/01/31 20:49:53.3	5.300	-0.460	-0.320	-0.510
2020/01/31 20:49:53.4	5.300	-0.450	-0.320	-0.490
2020/01/31 20:49:53.5	5.300	-0.440	-0.320	-0.460
2020/01/31 20:49:53.6	5.300	-0.420	-0.310	-0.430
2020/01/31 20:49:53.7	5.300	-0.410	-0.310	-0.400
2020/01/31 20:49:53.8	5.300	-0.380	-0.310	-0.370
2020/01/31 20:49:53.9	5.310	-0.360	-0.310	-0.340
2020/01/31 20:49:54.0	5.330	-0.330	-0.310	-0.310
2020/01/31 20:49:54.1	5.330	-0.310	-0.310	-0.280
2020/01/31 20:49:54.2	5.340	-0.270	-0.310	-0.240
2020/01/31 20:49:54.3	5.350	-0.240	-0.320	-0.200
2020/01/31 20:49:54.4	5.360	-0.210	-0.320	-0.170
2020/01/31 20:49:54.5	5.370	-0.170	-0.320	-0.130
2020/01/31 20:49:54.6	5.370	-0.130	-0.330	-0.090
2020/01/31 20:49:54.7	5.380	-0.090	-0.340	-0.050
2020/01/31 20:49:54.8	5.390	-0.050	-0.350	-0.010
2020/01/31 20:49:54.9	5.400	-0.010	-0.350	0.030
2020/01/31 20:49:55.0	5.410	0.030	-0.360	0.070
2020/01/31 20:49:55.1	5.420	0.070	-0.370	0.110
2020/01/31 20:49:55.2	5.430	0.110	-0.390	0.150
2020/01/31 20:49:55.3	5.440	0.140	-0.400	0.190
2020/01/31 20:49:55.4	5.440	0.180	-0.410	0.220
2020/01/31 20:49:55.5	5.450	0.220	-0.420	0.250
2020/01/31 20:49:55.6	5.460	0.260	-0.430	0.280
2020/01/31 20:49:55.7	5.460	0.290	-0.450	0.310
2020/01/31 20:49:55.8	5.470	0.320	-0.460	0.340
2020/01/31 20:49:55.9	5.470	0.350	-0.470	0.360
2020/01/31 20:49:56.0	5.480	0.380	-0.480	0.390
2020/01/31 20:49:56.1	5.490	0.400	-0.480	0.410
2020/01/31 20:49:56.2	5.490	0.420	-0.490	0.430
2020/01/31 20:49:56.3	5.490	0.440	-0.490	0.440
2020/01/31 20:49:56.4	5.500	0.450	-0.490	0.460
2020/01/31 20:49:56.5	5.500	0.470	-0.490	0.470
2020/01/31 20:49:56.6	5.500	0.470	-0.480	0.480
2020/01/31 20:49:56.7	5.500	0.480	-0.470	0.490
2020/01/31 20:49:56.8	5.490	0.480	-0.460	0.500
2020/01/31 20:49:56.9	5.490	0.470	-0.440	0.510
2020/01/31 20:49:57.0	5.490	0.460	-0.420	0.510
2020/01/31 20:49:57.1	5.480	0.450	-0.390	0.520
2020/01/31 20:49:57.2	5.480	0.430	-0.360	0.520
2020/01/31 20:49:57.3	5.470	0.410	-0.330	0.520
2020/01/31 20:49:57.4	5.460	0.390	-0.290	0.520
2020/01/31 20:49:57.5	5.450	0.360	-0.250	0.520
2020/01/31 20:49:57.6	5.440	0.330	-0.210	0.520
2020/01/31 20:49:57.7	5.430	0.300	-0.170	0.510
2020/01/31 20:49:57.8	5.420	0.260	-0.120	0.500
2020/01/31 20:49:57.9	5.410	0.220	-0.070	0.490
2020/01/31 20:49:58.0	5.380	0.180	-0.030	0.470
2020/01/31 20:49:58.1	5.370	0.140	0.020	0.460
2020/01/31 20:49:58.2	5.360	0.100	0.060	0.440
2020/01/31 20:49:58.3	5.340	0.050	0.110	0.420
2020/01/31 20:49:58.4	5.330	0.010	0.150	0.400
2020/01/31 20:49:58.5	5.320	-0.040	0.200	0.370
2020/01/31 20:49:58.6	5.300	-0.080	0.230	0.350
2020/01/31 20:49:58.7	5.290	-0.130	0.270	0.320
2020/01/31 20:49:58.8	5.280	-0.170	0.310	0.300
2020/01/31 20:49:58.9	5.260	-0.210	0.330	0.270
2020/01/31 20:49:59.0	5.230	-0.250	0.360	0.250
2020/01/31 20:49:59.1	5.210	-0.290	0.380	0.220
2020/01/31 20:49:59.2	5.190	-0.320	0.400	0.200
2020/01/31 20:49:59.3	5.170	-0.350	0.420	0.180
2020/01/31 20:49:59.4	5.150	-0.380	0.430	0.160
2020/01/31 20:49:59.5	5.130	-0.400	0.430	0.140
2020/01/31 20:49:59.6	5.110	-0.420	0.430	0.130
2020/01/31 20:49:59.7	5.090	-0.430	0.430	0.110
2020/01/31 20:49:59.8	5.070	-0.440	0.420	0.100
2020/01/31 20:49:59.9	5.050	-0.440	0.410	0.090
2020/01/31 20:50:00.0	5.020	-0.440	0.390	0.080
2020/01/31 20:50:00.1	5.000	-0.430	0.370	0.070
2020/01/31 20:50:00.2	4.980	-0.420	0.340	0.060
2020/01/31 20:50:00.3	4.960	-0.410	0.310	0.060
2020/01/31 20:50:00.4	4.940	-0.380	0.270	0.050
2020/01/31 20:50:00.5	4.920	-0.360	0.230	0.050
2020/01/31 20:50:00.6	4.900	-0.330	0.180	0.040
2020/01/31 20:50:00.7	4.890	-0.290	0.130	0.030
2020/01/31 20:50:00.8	4.870	-0.260	0.070	0.030
2020/01/31 20:50:00.9	4.860	-0.210	0.010	0.020
2020/01/31 20:50:01.0	4.850	-0.170	-0.050	0.020
2020/01/31 20:50:01.1	4.850	-0.120	-0.110	0.010
2020/01/31 20:50:01.2	4.840	-0.070	-0.180	0.000
2020/01/31 20:50:01.3	4.830	-0.020	-0.250	-0.000
2020/01/31 20:50:01.4	4.830	0.040	-0.330	-0.010
2020/01/31 20:50:01.5	4.830	0.090	-0.400	-0.020
2020/01/31 20:50:01.6	4.830	0.150	-0.470	-0.020
2020/01/31 20:50:01.7	4.830	0.200	-0.550	-0.030
2020/01/31 20:50:01.8	4.830	0.260	-0.620	-0.030
2020/01/31 20:50:01.9	4.840	0.310	-0.690	-0.040
2020/01/31 20:50:02.0	4.850	0.370	-0.760	-0.050
2020/01/31 20:50:02.1	4.850	0.420	-0.830	-0.050
2020/01/31 20:50:02.2	4.860	0.470	-0.890	-0.060
2020/01/31 20:50:02.3	4.870	0.510	-0.950	-0.060
2020/01/31 20:50:02.4	4.880	0.550	-1.010	-0.070
2020/01/31 20:50:02.5	4.890	0.590	-1.060	-0.070
2020/01/31 20:50:02.6	4.900	0.630	-1.110	-0.080
2020/01/31 20:50:02.7	4.910	0.660	-1.150	-0.080
2020/01/31 20:50:02.8	4.930	0.680	-1.180	-0.090
2020/01/31 20:50:02.9	4.940	0.710	-1.210	-0.100
2020/01/31 20:50:03.0	4.970	0.720	-1.240	-0.100
2020/01/31 20:50:03.1	4.990	0.740	-1.250	-0.110
2020/01/31 20:50:03.2	5.010	0.740	-1.270	-0.120
2020/01/31 20:50:03.3	5.030	0.740	-1.270	-0.130
2020/01/31 20:50:03.4	5.050	0.740	-1.270	-0.140
2020/01/31 20:50:03.5	5.080	0.730	-1.260	-0.150
2020/01/31 20:50:03.6	5.100	0.720	-1.250	-0.160
2020/01/31 20:50:03.7	5.130	0.700	-1.230	-0.180
2020/01/31 20:50:03.8	5.160	0.680	-1.210	-0.190
2020/01/31 20:50:03.9	5.190	0.650	-1.180	-0.210
2020/01/31 20:50:04.0	5.220	0.620	-1.140	-0.220
2020/01/31 20:50:04.1	5.260	0.580	-1.110	-0.240
2020/01/31 20:50:04.2	5.290	0.540	-1.060	-0.250
2020/01/31 20:50:04.3	5.320	0.490	-1.020	-0.270
2020/01/31 20:50:04.4	5.350	0.450	-0.960	-0.290
2020/01/31 20:50:04.5	5.390	0.390	-0.910	-0.300
2020/01/31 20:50:04.6	5.420	0.340	-0.850	-0.320
2020/01/31 20:50:04.7	5.450	0.280	-0.790	-0.340
2020/01/31 20:50:04.8	5.490	0.220	-0.730	-0.350
2020/01/31 20:50:04.9	5.520	0.150	-0.660	-0.370
2020/01/31 20:50:05.0	5.530	0.090	-0.590	-0.380
2020/01/31 20:50:05.1	5.560	0.020	-0.520	-0.400
2020/01/31 20:50:05.2	5.590	-0.040	-0.440	-0.410
2020/01/31 20:50:05.3	5.610	-0.110	-0.370	-0.420
2020/01/31 20:50:05.4	5.640	-0.180	-0.290	-0.430
2020/01/31 20:50:05.5	5.660	-0.250	-0.220	-0.440
2020/01/31 20:50:05.6	5.680	-0.320	-0.140	-0.450
2020/01/31 20:50:05.7	5.690	-0.390	-0.060	-0.460
2020/01/31 20:50:05.8	5.710	-0.450	0.020	-0.460
2020/01/31 20:50:05.9	5.720	-0.520	0.100	-0.460
2020/01/31 20:50:06.0	5.740	-0.580	0.170	-0.460
2020/01/31 20:50:06.1	5.740	-0.640	0.250	-0.450
2020/01/31 20:50:06.2	5.740	-0.700	0.320	-0.450
2020/01/31 20:50:06.3	5.740	-0.750	0.400	-0.440
2020/01/31 20:50:06.4	5.730	-0.800	0.470	-0.430
2020/01/31 20:50:06.5	5.720	-0.850	0.540	-0.410
2020/01/31 20:50:06.6	5.700	-0.900	0.600	-0.390
2020/01/31 20:50:06.7	5.690	-0.930	0.660	-0.370
2020/01/31 20:50:06.8	5.660	-0.970	0.720	-0.340
2020/01/31 20:50:06.9	5.640	-1.000	0.770	-0.320
2020/01/31 20:50:07.0	5.620	-1.020	0.820	-0.280
2020/01/31 20:50:07.1	5.590	-1.040	0.860	-0.250
2020/01/31 20:50:07.2	5.560	-1.050	0.900	-0.210
2020/01/31 20:50:07.3	5.520	-1.050	0.930	-0.170
2020/01/31 20:50:07.4	5.490	-1.050	0.950	-0.130
2020/01/31 20:50:07.5	5.450	-1.040	0.960	-0.090
2020/01/31 20:50:07.6	5.410	-1.030	0.970	-0.050
2020/01/31 20:50:07.7	5.380	-1.010	0.970	-0.000
2020/01/31 20:50:07.8	5.340	-0.980	0.970	0.040
2020/01/31 20:50:07.9	5.300	-0.950	0.950	0.080
2020/01/31 20:50:08.0	5.260	-0.910	0.920	0.120
2020/01/31 20:50:08.1	5.220	-0.860	0.890	0.160
2020/01/31 20:50:08.2	5.190	-0.810	0.850	0.200
2020/01/31 20:50:08.3	5.160	-0.750	0.800	0.240
2020/01/31 20:50:08.4	5.130	-0.680	0.740	0.280
2020/01/31 20:50:08.5	5.110	-0.610	0.680	0.310
2020/01/31 20:50:08.6	5.080	-0.530	0.610	0.350
2020/01/31 20:50:08.7	5.060	-0.450	0.530	0.380
2020/01/31 20:50:08.8	5.040	-0.370	0.450	0.420
2020/01/31 20:50:08.9	5.020	-0.280	0.360	0.450
2020/01/31 20:50:09.0	4.990	-0.190	0.270	0.480
2020/01/31 20:50:09.1	4.970	-0.100	0.180	0.520
2020/01/31 20:50:09.2	4.950	-0.010	0.090	0.550
2020/01/31 20:50:09.3	4.940	0.080	-0.010	0.580
2020/01/31 20:50:09.4	4.920	0.170	-0.100	0.610
2020/01/31 20:50:09.5	4.900	0.260	-0.190	0.640
2020/01/31 20:50:09.6	4.880	0.340	-0.270	0.660
2020/01/31 20:50:09.7	4.870	0.420	-0.360	0.690
2020/01/31 20:50:09.8	4.850	0.500	-0.440	0.720
2020/01/31 20:50:09.9	4.830	0.570	-0.510	0.740
2020/01/31 20:50:10.0	4.810	0.640	-0.580	0.760
2020/01/31 20:50:10.1	4.790	0.700	-0.650	0.780
2020/01/31 20:50:10.2	4.770	0.750	-0.700	0.800
2020/01/31 20:50:10.3	4.760	0.800	-0.750	0.810
2020/01/31 20:50:10.4	4.740	0.840	-0.800	0.820
2020/01/31 20:50:10.5	4.720	0.870	-0.830	0.830
2020/01/31 20:50:10.6	4.710	0.890	-0.860	0.840
2020/01/31 20:50:10.7	4.690	0.910	-0.880	0.840
2020/01/31 20:50:10.8	4.680	0.920	-0.900	0.840
2020/01/31 20:50:10.9	4.670	0.920	-0.910	0.840
2020/01/31 20:50:11.0	4.670	0.910	-0.910	0.830
2020/01/31 20:50:11.1	4.660	0.900	-0.900	0.820
2020/01/31 20:50:11.2	4.660	0.870	-0.900	0.810
2020/01/31 20:50:11.3	4.650	0.850	-0.880	0.790
2020/01/31 20:50:11.4	4.650	0.810	-0.860	0.770
2020/01/31 20:50:11.5	4.650	0.770	-0.840	0.740
2020/01/31 20:50:11.6	4.650	0.720	-0.820	0.710
2020/01/31 20:50:11.7	4.650	0.670	-0.790	0.670
2020/01/31 20:50:11.8	4.660	0.620	-0.760	0.630
2020/01/31 20:50:11.9	4.660	0.560	-0.730	0.590
2020/01/31 20:50:12.0	4.690	0.500	-0.700	0.540
2020/01/31 20:50:12.1	4.690	0.430	-0.670	0.490
2020/01/31 20:50:12.2	4.700	0.370	-0.640	0.430
2020/01/31 20:50:12.3	4.710	0.300	-0.600	0.380
2020/01/31 20:50:12.4	4.720	0.230	-0.570	0.310
2020/01/31 20:50:12.5	4.730	0.160	-0.540	0.250
2020/01/31 20:50:12.6	4.740	0.090	-0.510	0.180
2020/01/31 20:50:12.7	4.750	0.030	-0.480	0.110
2020/01/31 20:50:12.8	4.760	-0.040	-0.450	0.040
2020/01/31 20:50:12.9	4.770	-0.100	-0.420	-0.030
2020/01/31 20:50:13.0	4.790	-0.160	-0.400	-0.110
2020/01/31 20:50:13.1	4.800	-0.210	-0.380	-0.180
2020/01/31 20:50:13.2	4.820	-0.270	-0.360	-0.260
2020/01/31 20:50:13.3	4.830	-0.310	-0.340	-0.330
2020/01/31 20:50:13.4	4.850	-0.360	-0.330	-0.410
2020/01/31 20:50:13.5	4.870	-0.400	-0.320	-0.490
2020/01/31 20:50:13.6	4.890	-0.430	-0.310	-0.570
2020/01/31 20:50:13.7	4.910	-0.460	-0.300	-0.650
2020/01/31 20:50:13.8	4.930	-0.480	-0.300	-0.720
2020/01/31 20:50:13.9	4.960	-0.500	-0.310	-0.800
2020/01/31 20:50:14.0	4.990	-0.520	-0.310	-0.870
2020/01/31 20:50:14.1	5.010	-0.530	-0.320	-0.940
2020/01/31 20:50:14.2	5.030	-0.530	-0.330	-1.010
2020/01/31 20:50:14.3	5.060	-0.530	-0.340	-1.070
2020/01/31 20:50:14.4	5.080	-0.530	-0.360	-1.130
2020/01/31 20:50:14.5	5.110	-0.520	-0.370	-1.180
2020/01/31 20:50:14.6	5.130	-0.510	-0.390	-1.240
2020/01/31 20:50:14.7	5.150	-0.490	-0.410	-1.280
2020/01/31 20:50:14.8	5.170	-0.470	-0.420	-1.320
2020/01/31 20:50:14.9	5.190	-0.450	-0.440	-1.360
2020/01/31 20:50:15.0	5.200	-0.430	-0.460	-1.400
2020/01/31 20:50:15.1	5.220	-0.400	-0.480	-1.420
2020/01/31 20:50:15.2	5.230	-0.370	-0.490	-1.440
2020/01/31 20:50:15.3	5.250	-0.340	-0.510	-1.460
2020/01/31 20:50:15.4	5.260	-0.310	-0.520	-1.470
2020/01/31 20:50:15.5	5.270	-0.280	-0.530	-1.470
2020/01/31 20:50:15.6	5.290	-0.250	-0.540	-1.470
2020/01/31 20:50:15.7	5.290	-0.210	-0.540	-1.470
2020/01/31 20:50:15.8	5.300	-0.180	-0.540	-1.450
2020/01/31 20:50:15.9	5.310	-0.150	-0.540	-1.430
2020/01/31 20:50:16.0	5.300	-0.110	-0.540	-1.410
2020/01/31 20:50:16.1	5.300	-0.080	-0.530	-1.380
2020/01/31 20:50:16.2	5.300	-0.050	-0.520	-1.340
2020/01/31 20:50:16.3	5.300	-0.020	-0.500	-1.300
2020/01/31 20:50:16.4	5.290	0.010	-0.480	-1.250
2020/01/31 20:50:16.5	5.290	0.040	-0.460	-1.190
2020/01/31 20:50:16.6	5.280	0.060	-0.430	-1.140
2020/01/31 20:50:16.7	5.260	0.090	-0.400	-1.070
2020/01/31 20:50:16.8	5.250	0.110	-0.360	-1.000
2020/01/31 20:50:16.9	5.240	0.140	-0.330	-0.930
2020/01/31 20:50:17.0	5.210	0.160	-0.290	-0.850
2020/01/31 20:50:17.1	5.200	0.180	-0.250	-0.760
2020/01/31 20:50:17.2	5.180	0.200	-0.200	-0.680
2020/01/31 20:50:17.3	5.160	0.220	-0.160	-0.590
2020/01/31 20:50:17.4	5.130	0.230	-0.120	-0.500
2020/01/31 20:50:17.5	5.110	0.250	-0.070	-0.410
2020/01/31 20:50:17.6	5.090	0.260	-0.030	-0.320
2020/01/31 20:50:17.7	5.060	0.280	0.010	-0.220
2020/01/31 20:50:17.8	5.040	0.290	0.050	-0.130
2020/01/31 20:50:17.9	5.010	0.300	0.090	-0.040
2020/01/31 20:50:18.0	4.970	0.310	0.130	0.060
2020/01/31 20:50:18.1	4.950	0.330	0.160	0.150
2020/01/31 20:50:18.2	4.920	0.340	0.190	0.230
2020/01/31 20:50:18.3	4.900	0.350	0.220	0.320
2020/01/31 20:50:18.4	4.880	0.350	0.240	0.400
2020/01/31 20:50:18.5	4.860	0.360	0.260	0.470
2020/01/31 20:50:18.6	4.840	0.370	0.280	0.550
2020/01/31 20:50:18.7	4.820	0.380	0.290	0.610
2020/01/31 20:50:18.8	4.800	0.390	0.290	0.680
2020/01/31 20:50:18.9	4.790	0.390	0.290	0.730
2020/01/31 20:50:19.0	4.770	0.400	0.290	0.790
2020/01/31 20:50:19.1	4.760	0.410	0.280	0.840
2020/01/31 20:50:19.2	4.740	0.410	0.260	0.880
2020/01/31 20:50:19.3	4.730	0.420	0.240	0.910
2020/01/31 20:50:19.4	4.720	0.420	0.220	0.950
2020/01/31 20:50:19.5	4.710	0.420	0.190	0.970
2020/01/31 20:50:19.6	4.710	0.420	0.160	0.990
2020/01/31 20:50:19.7	4.700	0.420	0.130	1.010
2020/01/31 20:50:19.8	4.690	0.420	0.090	1.020
2020/01/31 20:50:19.9	4.680	0.410	0.050	1.030
2020/01/31 20:50:20.0	4.690	0.400	0.010	1.030
2020/01/31 20:50:20.1	4.680	0.400	-0.040	1.020
2020/01/31 20:50:20.2	4.680	0.390	-0.080	1.010
2020/01/31 20:50:20.3	4.680	0.370	-0.130	0.990
2020/01/31 20:50:20.4	4.680	0.360	-0.170	0.970
2020/01/31 20:50:20.5	4.680	0.340	-0.220	0.940
2020/01/31 20:50:20.6	4.690	0.320	-0.260	0.910
2020/01/31 20:50:20.7	4.690	0.300	-0.300	0.870
2020/01/31 20:50:20.8	4.700	0.280	-0.340	0.820
2020/01/31 20:50:20.9	4.710	0.250	-0.380	0.770
2020/01/31 20:50:21.0	4.720	0.220	-0.410	0.720
2020/01/31 20:50:21.1	4.730	0.200	-0.440	0.660
2020/01/31 20:50:21.2	4.740	0.160	-0.470	0.610
2020/01/31 20:50:21.3	4.750	0.130	-0.490	0.540
2020/01/31 20:50:21.4	4.760	0.090	-0.510	0.480
2020/01/31 20:50:21.5	4.770	0.060	-0.530	0.410
2020/01/31 20:50:21.6	4.790	0.020	-0.540	0.350
2020/01/31 20:50:21.7	4.800	-0.020	-0.540	0.280
2020/01/31 20:50:21.8	4.810	-0.060	-0.540	0.210
2020/01/31 20:50:21.9	4.830	-0.100	-0.530	0.150
2020/01/31 20:50:22.0	4.840	-0.150	-0.510	0.080
2020/01/31 20:50:22.1	4.850	-0.190	-0.500	0.020
2020/01/31 20:50:22.2	4.860	-0.240	-0.470	-0.040
2020/01/31 20:50:22.3	4.870	-0.280	-0.450	-0.100
2020/01/31 20:50:22.4	4.880	-0.320	-0.410	-0.160
2020/01/31 20:50:22.5	4.890	-0.370	-0.380	-0.220
2020/01/31 20:50:22.6	4.900	-0.410	-0.340	-0.270
2020/01/31 20:50:22.7	4.910	-0.450	-0.300	-0.320
2020/01/31 20:50:22.8	4.910	-0.490	-0.260	-0.370
2020/01/31 20:50:22.9	4.920	-0.530	-0.210	-0.420
2020/01/31 20:50:23.0	4.920	-0.560	-0.170	-0.470
2020/01/31 20:50:23.1	4.920	-0.590	-0.120	-0.500
2020/01/31 20:50:23.2	4.930	-0.630	-0.080	-0.540
2020/01/31 20:50:23.3	4.930	-0.650	-0.030	-0.570
2020/01/31 20:50:23.4	4.930	-0.680	0.010	-0.600
2020/01/31 20:50:23.5	4.930	-0.700	0.050	-0.630
2020/01/31 20:50:23.6	4.930	-0.710	0.090	-0.650
2020/01/31 20:50:23.7	4.920	-0.720	0.120	-0.670
2020/01/31 20:50:23.8	4.920	-0.730	0.150	-0.680
2020/01/31 20:50:23.9	4.920	-0.730	0.180	-0.690
2020/01/31 20:50:24.0	4.920	-0.730	0.200	-0.700
2020/01/31 20:50:24.1	4.920	-0.720	0.210	-0.700
2020/01/31 20:50:24.2	4.910	-0.710	0.230	-0.700
2020/01/31 20:50:24.3	4.910	-0.700	0.230	-0.700
2020/01/31 20:50:24.4	4.900	-0.680	0.230	-0.690
2020/01/31 20:50:24.5	4.900	-0.650	0.230	-0.680
2020/01/31 20:50:24.6	4.890	-0.620	0.220	-0.660
2020/01/31 20:50:24.7	4.880	-0.590	0.200	-0.640
2020/01/31 20:50:24.8	4.870	-0.550	0.180	-0.620
2020/01/31 20:50:24.9	4.860	-0.510	0.160	-0.590
2020/01/31 20:50:25.0	4.840	-0.470	0.120	-0.570
2020/01/31 20:50:25.1	4.830	-0.420	0.090	-0.540
2020/01/31 20:50:25.2	4.820	-0.370	0.050	-0.510
2020/01/31 20:50:25.3	4.810	-0.320	0.010	-0.470
2020/01/31 20:50:25.4	4.800	-0.270	-0.040	-0.430
2020/01/31 20:50:25.5	4.790	-0.220	-0.090	-0.390
2020/01/31 20:50:25.6	4.770	-0.170	-0.140	-0.350
2020/01/31 20:50:25.7	4.760	-0.120	-0.190	-0.320
2020/01/31 20:50:25.8	4.750	-0.070	-0.240	-0.280
2020/01/31 20:50:25.9	4.740	-0.020	-0.300	-0.240
2020/01/31 20:50:26.0	4.730	0.030	-0.360	-0.190
2020/01/31 20:50:26.1	4.720	0.080	-0.410	-0.160
2020/01/31 20:50:26.2	4.710	0.120	-0.470	-0.120
2020/01/31 20:50:26.3	4.700	0.170	-0.520	-0.090
2020/01/31 20:50:26.4	4.690	0.200	-0.580	-0.060
2020/01/31 20:50:26.5	4.680	0.240	-0.630	-0.030
2020/01/31 20:50:26.6	4.670	0.270	-0.680	0.000
2020/01/31 20:50:26.7	4.670	0.300	-0.720	0.030
2020/01/31 20:50:26.8	4.660	0.330	-0.770	0.050
2020/01/31 20:50:26.9	4.660	0.350	-0.810	0.070
2020/01/31 20:50:27.0	4.670	0.370	-0.850	0.090
2020/01/31 20:50:27.1	4.670	0.390	-0.890	0.100
2020/01/31 20:50:27.2	4.670	0.400	-0.920	0.110
2020/01/31 20:50:27.3	4.680	0.410	-0.950	0.120
2020/01/31 20:50:27.4	4.690	0.410	-0.970	0.130
2020/01/31 20:50:27.5	4.700	0.410	-0.990	0.140
2020/01/31 20:50:27.6	4.710	0.410	-1.010	0.140
2020/01/31 20:50:27.7	4.720	0.410	-1.020	0.140
2020/01/31 20:50:27.8	4.740	0.400	-1.030	0.140
2020/01/31 20:50:27.9	4.750	0.390	-1.030	0.140
2020/01/31 20:50:28.0	4.770	0.380	-1.030	0.140
2020/01/31 20:50:28.1	4.790	0.370	-1.020	0.140
2020/01/31 20:50:28.2	4.810	0.350	-1.010	0.140
2020/01/31 20:50:28.3	4.830	0.340	-0.990	0.140
2020/01/31 20:50:28.4	4.840	0.320	-0.970	0.140
2020/01/31 20:50:28.5	4.860	0.300	-0.940	0.130
2020/01/31 20:50:28.6	4.880	0.280	-0.910	0.130
2020/01/31 20:50:28.7	4.900	0.260	-0.880	0.130
2020/01/31 20:50:28.8	4.920	0.250	-0.840	0.130
2020/01/31 20:50:28.9	4.930	0.230	-0.800	0.130
2020/01/31 20:50:29.0	4.940	0.210	-0.760	0.130
2020/01/31 20:50:29.1	4.950	0.200	-0.720	0.140
2020/01/31 20:50:29.2	4.970	0.180	-0.670	0.140
2020/01/31 20:50:29.3	4.980	0.170	-0.620	0.140
2020/01/31 20:50:29.4	4.990	0.150	-0.570	0.140
2020/01/31 20:50:29.5	5.010	0.140	-0.520	0.150
2020/01/31 20:50:29.6	5.020	0.140	-0.460	0.150
2020/01/31 20:50:29.7	5.030	0.130	-0.410	0.150
2020/01/31 20:50:29.8	5.040	0.130	-0.350	0.160
2020/01/31 20:50:29.9	5.040	0.120	-0.300	0.160
2020/01/31 20:50:30.0	5.060	0.120	-0.250	0.170
2020/01/31 20:50:30.1	5.060	0.120	-0.200	0.170
2020/01/31 20:50:30.2	5.070	0.130	-0.150	0.180
2020/01/31 20:50:30.3	5.070	0.130	-0.100	0.180
2020/01/31 20:50:30.4	5.070	0.140	-0.050	0.180
2020/01/31 20:50:30.5	5.070	0.150	-0.010	0.190
2020/01/31 20:50:30.6	5.080	0.160	0.040	0.190
2020/01/31 20:50:30.7	5.080	0.170	0.080	0.190
2020/01/31 20:50:30.8	5.070	0.180	0.110	0.190
2020/01/31 20:50:30.9	5.070	0.200	0.150	0.190
2020/01/31 20:50:31.0	5.070	0.210	0.180	0.190
2020/01/31 20:50:31.1	5.070	0.230	0.210	0.180
2020/01/31 20:50:31.2	5.070	0.240	0.230	0.180
2020/01/31 20:50:31.3	5.070	0.260	0.250	0.170
2020/01/31 20:50:31.4	5.060	0.270	0.270	0.170
2020/01/31 20:50:31.5	5.060	0.290	0.290	0.160
2020/01/31 20:50:31.6	5.060	0.300	0.300	0.150
2020/01/31 20:50:31.7	5.050	0.310	0.310	0.150
2020/01/31 20:50:31.8	5.050	0.320	0.320	0.140
2020/01/31 20:50:31.9	5.040	0.330	0.330	0.130
2020/01/31 20:50:32.0	5.030	0.340	0.330	0.120
2020/01/31 20:50:32.1	5.030	0.350	0.330	0.110
2020/01/31 20:50:32.2	5.020	0.350	0.330	0.110
2020/01/31 20:50:32.3	5.010	0.350	0.330	0.100
2020/01/31 20:50:32.4	5.000	0.350	0.320	0.090
2020/01/31 20:50:32.5	5.000	0.350	0.320	0.080
2020/01/31 20:50:32.6	4.990	0.340	0.310	0.070
2020/01/31 20:50:32.7	4.980	0.330	0.300	0.060
2020/01/31 20:50:32.8	4.970	0.320	0.290	0.050
2020/01/31 20:50:32.9	4.960	0.300	0.280	0.040
2020/01/31 20:50:33.0	4.950	0.290	0.280	0.020
2020/01/31 20:50:33.1	4.950	0.270	0.270	0.010
2020/01/31 20:50:33.2	4.940	0.240	0.250	-0.010
2020/01/31 20:50:33.3	4.930	0.220	0.240	-0.030
2020/01/31 20:50:33.4	4.930	0.190	0.220	-0.050
2020/01/31 20:50:33.5	4.920	0.160	0.210	-0.070
2020/01/31 20:50:33.6	4.920	0.120	0.190	-0.090
2020/01/31 20:50:33.7	4.910	0.090	0.170	-0.110
2020/01/31 20:50:33.8	4.910	0.050	0.160	-0.130
2020/01/31 20:50:33.9	4.910	0.020	0.140	-0.160
2020/01/31 20:50:34.0	4.910	-0.020	0.120	-0.190
2020/01/31 20:50:34.1	4.910	-0.060	0.100	-0.210
2020/01/31 20:50:34.2	4.910	-0.100	0.080	-0.240
2020/01/31 20:50:34.3	4.910	-0.140	0.060	-0.270
2020/01/31 20:50:34.4	4.910	-0.180	0.050	-0.290
2020/01/31 20:50:34.5	4.910	-0.210	0.030	-0.320
2020/01/31 20:50:34.6	4.910	-0.250	0.010	-0.350
2020/01/31 20:50:34.7	4.920	-0.290	-0.000	-0.370
2020/01/31 20:50:34.8	4.920	-0.320	-0.020	-0.390
2020/01/31 20:50:34.9	4.920	-0.350	-0.040	-0.420
2020/01/31 20:50:35.0	4.940	-0.380	-0.050	-0.440
2020/01/31 20:50:35.1	4.940	-0.410	-0.060	-0.460
2020/01/31 20:50:35.2	4.950	-0.440	-0.080	-0.480
2020/01/31 20:50:35.3	4.960	-0.460	-0.100	-0.490
2020/01/31 20:50:35.4	4.960	-0.480	-0.110	-0.510
2020/01/31 20:50:35.5	4.970	-0.500	-0.130	-0.520
2020/01/31 20:50:35.6	4.980	-0.510	-0.150	-0.540
2020/01/31 20:50:35.7	4.990	-0.520	-0.170	-0.550
2020/01/31 20:50:35.8	4.990	-0.530	-0.190	-0.560
2020/01/31 20:50:35.9	5.000	-0.540	-0.210	-0.570
2020/01/31 20:50:36.0	5.020	-0.540	-0.240	-0.580
2020/01/31 20:50:36.1	5.030	-0.540	-0.260	-0.590
2020/01/31 20:50:36.2	5.040	-0.540	-0.290	-0.590
2020/01/31 20:50:36.3	5.050	-0.530	-0.320	-0.600
2020/01/31 20:50:36.4	5.060	-0.520	-0.350	-0.600
2020/01/31 20:50:36.5	5.070	-0.510	-0.380	-0.600
2020/01/31 20:50:36.6	5.080	-0.490	-0.410	-0.610
2020/01/31 20:50:36.7	5.090	-0.480	-0.450	-0.610
2020/01/31 20:50:36.8	5.110	-0.460	-0.480	-0.600
2020/01/31 20:50:36.9	5.120	-0.430	-0.520	-0.600
2020/01/31 20:50:37.0	5.140	-0.410	-0.560	-0.600
2020/01/31 20:50:37.1	5.150	-0.380	-0.600	-0.590
2020/01/31 20:50:37.2	5.170	-0.360	-0.640	-0.590
2020/01/31 20:50:37.3	5.190	-0.330	-0.680	-0.580
2020/01/31 20:50:37.4	5.210	-0.300	-0.720	-0.570
2020/01/31 20:50:37.5	5.230	-0.260	-0.770	-0.560
2020/01/31 20:50:37.6	5.250	-0.230	-0.810	-0.550
2020/01/31 20:50:37.7	5.270	-0.200	-0.850	-0.540
2020/01/31 20:50:37.8	5.290	-0.160	-0.890	-0.530
2020/01/31 20:50:37.9	5.310	-0.130	-0.920	-0.510
2020/01/31 20:50:38.0	5.330	-0.100	-0.960	-0.490
2020/01/31 20:50:38.1	5.350	-0.060	-0.990	-0.470
2020/01/31 20:50:38.2	5.360	-0.030	-1.020	-0.440
2020/01/31 20:50:38.3	5.370	-0.000	-1.040	-0.410
2020/01/31 20:50:38.4	5.370	0.030	-1.060	-0.380
2020/01/31 20:50:38.5	5.380	0.060	-1.070	-0.350
2020/01/31 20:50:38.6	5.380	0.080	-1.080	-0.310
2020/01/31 20:50:38.7	5.370	0.110	-1.080	-0.280
2020/01/31 20:50:38.8	5.370	0.130	-1.080	-0.240
2020/01/31 20:50:38.9	5.360	0.150	-1.070	-0.210
2020/01/31 20:50:39.0	5.340	0.170	-1.060	-0.170
2020/01/31 20:50:39.1	5.330	0.180	-1.040	-0.130
2020/01/31 20:50:39.2	5.310	0.190	-1.020	-0.100
2020/01/31 20:50:39.3	5.290	0.200	-0.990	-0.060
2020/01/31 20:50:39.4	5.270	0.210	-0.950	-0.030
2020/01/31 20:50:39.5	5.250	0.220	-0.920	0.000
2020/01/31 20:50:39.6	5.230	0.220	-0.870	0.040
2020/01/31 20:50:39.7	5.200	0.230	-0.830	0.070
2020/01/31 20:50:39.8	5.180	0.230	-0.780	0.100
2020/01/31 20:50:39.9	5.160	0.230	-0.730	0.120
2020/01/31 20:50:40.0	5.130	0.230	-0.670	0.150
2020/01/31 20:50:40.1	5.110	0.220	-0.620	0.170
2020/01/31 20:50:40.2	5.090	0.220	-0.560	0.190
2020/01/31 20:50:40.3	5.080	0.210	-0.500	0.210
2020/01/31 20:50:40.4	5.060	0.210	-0.440	0.220
2020/01/31 20:50:40.5	5.050	0.200	-0.380	0.240
2020/01/31 20:50:40.6	5.040	0.200	-0.320	0.240
2020/01/31 20:50:40.7	5.040	0.190	-0.260	0.250
2020/01/31 20:50:40.8	5.030	0.180	-0.200	0.250
2020/01/31 20:50:40.9	5.030	0.180	-0.150	0.250
2020/01/31 20:50:41.0	5.040	0.170	-0.090	0.240
2020/01/31 20:50:41.1	5.040	0.170	-0.040	0.240
2020/01/31 20:50:41.2	5.060	0.160	0.010	0.230
2020/01/31 20:50:41.3	5.070	0.160	0.060	0.210
2020/01/31 20:50:41.4	5.090	0.150	0.110	0.200
2020/01/31 20:50:41.5	5.110	0.150	0.150	0.180
2020/01/31 20:50:41.6	5.130	0.150	0.200	0.170
2020/01/31 20:50:41.7	5.150	0.150	0.240	0.150
2020/01/31 20:50:41.8	5.180	0.150	0.270	0.130
2020/01/31 20:50:41.9	5.200	0.150	0.310	0.110
2020/01/31 20:50:42.0	5.240	0.150	0.340	0.090
2020/01/31 20:50:42.1	5.270	0.150	0.360	0.070
2020/01/31 20:50:42.2	5.290	0.160	0.390	0.050
2020/01/31 20:50:42.3	5.320	0.160	0.420	0.030
2020/01/31 20:50:42.4	5.350	0.160	0.440	0.020
2020/01/31 20:50:42.5	5.380	0.170	0.460	0.000
2020/01/31 20:50:42.6	5.400	0.170	0.470	-0.010
2020/01/31 20:50:42.7	5.430	0.170	0.480	-0.020
2020/01/31 20:50:42.8	5.450	0.180	0.490	-0.030
2020/01/31 20:50:42.9	5.470	0.180	0.500	-0.040
2020/01/31 20:50:43.0	5.480	0.190	0.510	-0.040
2020/01/31 20:50:43.1	5.500	0.190	0.510	-0.050
2020/01/31 20:50:43.2	5.520	0.190	0.510	-0.050
2020/01/31 20:50:43.3	5.530	0.190	0.500	-0.050
2020/01/31 20:50:43.4	5.550	0.190	0.490	-0.050
2020/01/31 20:50:43.5	5.560	0.190	0.480	-0.050
2020/01/31 20:50:43.6	5.570	0.190	0.460	-0.050
2020/01/31 20:50:43.7	5.580	0.190	0.450	-0.050
2020/01/31 20:50:43.8	5.580	0.180	0.420	-0.050
2020/01/31 20:50:43.9	5.590	0.180	0.400	-0.050
2020/01/31 20:50:44.0	5.600	0.170	0.370	-0.040
2020/01/31 20:50:44.1	5.610	0.160	0.340	-0.040
2020/01/31 20:50:44.2	5.610	0.150	0.300	-0.040
2020/01/31 20:50:44.3	5.610	0.140	0.270	-0.050
2020/01/31 20:50:44.4	5.610	0.130	0.230	-0.050
2020/01/31 20:50:44.5	5.610	0.120	0.180	-0.050
2020/01/31 20:50:44.6	5.610	0.110	0.140	-0.060
2020/01/31 20:50:44.7	5.600	0.090	0.090	-0.060
2020/01/31 20:50:44.8	5.600	0.070	0.040	-0.070
2020/01/31 20:50:44.9	5.600	0.060	-0.010	-0.080
2020/01/31 20:50:45.0	5.590	0.040	-0.070	-0.090
2020/01/31 20:50:45.1	5.590	0.020	-0.120	-0.110
2020/01/31 20:50:45.2	5.580	0.000	-0.170	-0.120
2020/01/31 20:50:45.3	5.570	-0.020	-0.230	-0.140
2020/01/31 20:50:45.4	5.570	-0.040	-0.280	-0.150
2020/01/31 20:50:45.5	5.560	-0.060	-0.340	-0.170
2020/01/31 20:50:45.6	5.560	-0.080	-0.390	-0.190
2020/01/31 20:50:45.7	5.550	-0.100	-0.440	-0.210
2020/01/31 20:50:45.8	5.540	-0.120	-0.500	-0.230
2020/01/31 20:50:45.9	5.540	-0.140	-0.550	-0.250
2020/01/31 20:50:46.0	5.530	-0.150	-0.590	-0.270
2020/01/31 20:50:46.1	5.520	-0.170	-0.640	-0.290
2020/01/31 20:50:46.2	5.510	-0.190	-0.680	-0.320
2020/01/31 20:50:46.3	5.510	-0.200	-0.720	-0.340
2020/01/31 20:50:46.4	5.500	-0.220	-0.760	-0.370
2020/01/31 20:50:46.5	5.500	-0.230	-0.790	-0.390
2020/01/31 20:50:46.6	5.490	-0.240	-0.820	-0.410
2020/01/31 20:50:46.7	5.490	-0.250	-0.840	-0.440
2020/01/31 20:50:46.8	5.480	-0.250	-0.870	-0.460
2020/01/31 20:50:46.9	5.480	-0.260	-0.880	-0.490
2020/01/31 20:50:47.0	5.470	-0.260	-0.900	-0.510
2020/01/31 20:50:47.1	5.470	-0.260	-0.910	-0.540
2020/01/31 20:50:47.2	5.470	-0.260	-0.910	-0.560
2020/01/31 20:50:47.3	5.470	-0.260	-0.910	-0.580
2020/01/31 20:50:47.4	5.470	-0.250	-0.910	-0.600
2020/01/31 20:50:47.5	5.470	-0.240	-0.900	-0.610
2020/01/31 20:50:47.6	5.470	-0.230	-0.890	-0.630
2020/01/31 20:50:47.7	5.480	-0.220	-0.880	-0.640
2020/01/31 20:50:47.8	5.480	-0.210	-0.860	-0.650
2020/01/31 20:50:47.9	5.490	-0.190	-0.830	-0.660
2020/01/31 20:50:48.0	5.500	-0.170	-0.810	-0.660
2020/01/31 20:50:48.1	5.500	-0.150	-0.780	-0.660
2020/01/31 20:50:48.2	5.510	-0.130	-0.740	-0.660
2020/01/31 20:50:48.3	5.510	-0.110	-0.710	-0.650
2020/01/31 20:50:48.4	5.520	-0.090	-0.670	-0.640
2020/01/31 20:50:48.5	5.520	-0.070	-0.620	-0.630
2020/01/31 20:50:48.6	5.530	-0.050	-0.580	-0.610
2020/01/31 20:50:48.7	5.530	-0.020	-0.530	-0.590
2020/01/31 20:50:48.8	5.530	-0.000	-0.480	-0.560
2020/01/31 20:50:48.9	5.530	0.020	-0.430	-0.530
2020/01/31 20:50:49.0	5.530	0.040	-0.380	-0.500
2020/01/31 20:50:49.1	5.530	0.060	-0.330	-0.460
2020/01/31 20:50:49.2	5.520	0.080	-0.270	-0.430
2020/01/31 20:50:49.3	5.510	0.100	-0.220	-0.380
2020/01/31 20:50:49.4	5.500	0.110	-0.170	-0.340
2020/01/31 20:50:49.5	5.490	0.120	-0.110	-0.300
2020/01/31 20:50:49.6	5.480	0.140	-0.070	-0.250
2020/01/31 20:50:49.7	5.470	0.150	-0.020	-0.210
2020/01/31 20:50:49.8	5.460	0.160	0.030	-0.160
2020/01/31 20:50:49.9	5.440	0.170	0.070	-0.120
2020/01/31 20:50:50.0	5.430	0.170	0.100	-0.080
2020/01/31 20:50:50.1	5.410	0.180	0.130	-0.040
2020/01/31 20:50:50.2	5.400	0.180	0.160	0.000
2020/01/31 20:50:50.3	5.390	0.180	0.180	0.040
2020/01/31 20:50:50.4	5.380	0.180	0.190	0.080
2020/01/31 20:50:50.5	5.380	0.180	0.200	0.110
2020/01/31 20:50:50.6	5.370	0.180	0.210	0.140
2020/01/31 20:50:50.7	5.370	0.180	0.210	0.160
2020/01/31 20:50:50.8	5.370	0.180	0.200	0.190
2020/01/31 20:50:50.9	5.380	0.180	0.190	0.200
2020/01/31 20:50:51.0	5.390	0.170	0.170	0.220
2020/01/31 20:50:51.1	5.400	0.170	0.140	0.230
2020/01/31 20:50:51.2	5.410	0.170	0.120	0.230
2020/01/31 20:50:51.3	5.430	0.160	0.080	0.240
2020/01/31 20:50:51.4	5.450	0.160	0.050	0.230
2020/01/31 20:50:51.5	5.470	0.150	0.000	0.220
2020/01/31 20:50:51.6	5.490	0.140	-0.040	0.210
2020/01/31 20:50:51.7	5.520	0.140	-0.080	0.190
2020/01/31 20:50:51.8	5.550	0.130	-0.130	0.170
2020/01/31 20:50:51.9	5.580	0.120	-0.180	0.140
2020/01/31 20:50:52.0	5.590	0.110	-0.220	0.110
2020/01/31 20:50:52.1	5.630	0.100	-0.270	0.080
2020/01/31 20:50:52.2	5.660	0.090	-0.310	0.040
2020/01/31 20:50:52.3	5.690	0.070	-0.350	0.000
2020/01/31 20:50:52.4	5.730	0.060	-0.390	-0.040
2020/01/31 20:50:52.5	5.760	0.040	-0.430	-0.090
2020/01/31 20:50:52.6	5.790	0.030	-0.460	-0.130
2020/01/31 20:50:52.7	5.820	0.010	-0.490	-0.180
2020/01/31 20:50:52.8	5.860	-0.000	-0.510	-0.220
2020/01/31 20:50:52.9	5.890	-0.020	-0.530	-0.270
2020/01/31 20:50:53.0	5.930	-0.040	-0.550	-0.310
2020/01/31 20:50:53.1	5.960	-0.060	-0.550	-0.350
2020/01/31 20:50:53.2	5.980	-0.080	-0.550	-0.390
2020/01/31 20:50:53.3	6.010	-0.090	-0.550	-0.420
2020/01/31 20:50:53.4	6.030	-0.110	-0.540	-0.450
2020/01/31 20:50:53.5	6.040	-0.130	-0.520	-0.480
2020/01/31 20:50:53.6	6.060	-0.150	-0.500	-0.500
2020/01/31 20:50:53.7	6.070	-0.170	-0.470	-0.510
2020/01/31 20:50:53.8	6.080	-0.180	-0.440	-0.520
2020/01/31 20:50:53.9	6.090	-0.200	-0.400	-0.520
2020/01/31 20:50:54.0	6.090	-0.220	-0.360	-0.530
2020/01/31 20:50:54.1	6.090	-0.230	-0.320	-0.520
2020/01/31 20:50:54.2	6.080	-0.250	-0.270	-0.510
2020/01/31 20:50:54.3	6.080	-0.260	-0.230	-0.490
2020/01/31 20:50:54.4	6.070	-0.270	-0.180	-0.470
2020/01/31 20:50:54.5	6.060	-0.280	-0.130	-0.450
2020/01/31 20:50:54.6	6.050	-0.290	-0.080	-0.430
2020/01/31 20:50:54.7	6.030	-0.300	-0.040	-0.400
2020/01/31 20:50:54.8	6.020	-0.310	0.000	-0.370
2020/01/31 20:50:54.9	6.000	-0.320	0.040	-0.340
2020/01/31 20:50:55.0	5.960	-0.320	0.070	-0.310
2020/01/31 20:50:55.1	5.930	-0.320	0.100	-0.270
2020/01/31 20:50:55.2	5.910	-0.330	0.120	-0.240
2020/01/31 20:50:55.3	5.880	-0.320	0.140	-0.210
2020/01/31 20:50:55.4	5.850	-0.320	0.160	-0.180
2020/01/31 20:50:55.5	5.830	-0.320	0.170	-0.150
2020/01/31 20:50:55.6	5.800	-0.310	0.170	-0.120
2020/01/31 20:50:55.7	5.760	-0.300	0.160	-0.090
2020/01/31 20:50:55.8	5.730	-0.290	0.150	-0.060
2020/01/31 20:50:55.9	5.700	-0.280	0.140	-0.030
2020/01/31 20:50:56.0	5.670	-0.270	0.120	-0.010
2020/01/31 20:50:56.1	5.640	-0.250	0.090	0.010
2020/01/31 20:50:56.2	5.610	-0.230	0.060	0.030
2020/01/31 20:50:56.3	5.580	-0.210	0.020	0.050
2020/01/31 20:50:56.4	5.550	-0.190	-0.020	0.070
2020/01/31 20:50:56.5	5.520	-0.170	-0.060	0.080
2020/01/31 20:50:56.6	5.500	-0.140	-0.110	0.090
2020/01/31 20:50:56.7	5.470	-0.120	-0.160	0.090
2020/01/31 20:50:56.8	5.450	-0.090	-0.210	0.090
2020/01/31 20:50:56.9	5.430	-0.060	-0.260	0.090
2020/01/31 20:50:57.0	5.420	-0.030	-0.320	0.090
2020/01/31 20:50:57.1	5.400	-0.010	-0.380	0.080
2020/01/31 20:50:57.2	5.390	0.020	-0.430	0.070
2020/01/31 20:50:57.3	5.390	0.050	-0.480	0.050
2020/01/31 20:50:57.4	5.390	0.080	-0.540	0.030
2020/01/31 20:50:57.5	5.390	0.110	-0.590	0.010
2020/01/31 20:50:57.6	5.390	0.140	-0.640	-0.010
2020/01/31 20:50:57.7	5.400	0.170	-0.680	-0.030
2020/01/31 20:50:57.8	5.410	0.200	-0.720	-0.060
2020/01/31 20:50:57.9	5.430	0.220	-0.760	-0.090
2020/01/31 20:50:58.0	5.440	0.250	-0.790	-0.120
2020/01/31 20:50:58.1	5.460	0.270	-0.820	-0.140
2020/01/31 20:50:58.2	5.480	0.290	-0.850	-0.170
2020/01/31 20:50:58.3	5.500	0.310	-0.860	-0.200
2020/01/31 20:50:58.4	5.530	0.330	-0.870	-0.230
2020/01/31 20:50:58.5	5.560	0.340	-0.880	-0.250
2020/01/31 20:50:58.6	5.590	0.350	-0.880	-0.280
2020/01/31 20:50:58.7	5.620	0.360	-0.870	-0.310
2020/01/31 20:50:58.8	5.650	0.360	-0.860	-0.330
2020/01/31 20:50:58.9	5.680	0.370	-0.840	-0.360
2020/01/31 20:50:59.0	5.710	0.370	-0.820	-0.380
2020/01/31 20:50:59.1	5.740	0.360	-0.790	-0.410
2020/01/31 20:50:59.2	5.780	0.360	-0.750	-0.430
2020/01/31 20:50:59.3	5.810	0.350	-0.710	-0.450
2020/01/31 20:50:59.4	5.840	0.340	-0.670	-0.470
2020/01/31 20:50:59.5	5.880	0.330	-0.620	-0.480
2020/01/31 20:50:59.6	5.910	0.310	-0.570	-0.500
2020/01/31 20:50:59.7	5.940	0.300	-0.520	-0.510
2020/01/31 20:50:59.8	5.970	0.280	-0.460	-0.530
2020/01/31 20:50:59.9	6.000	0.260	-0.400	-0.540
2020/01/31 20:51:00.0	6.040	0.240	-0.340	-0.540
2020/01/31 20:51:00.1	6.070	0.220	-0.280	-0.550
2020/01/31 20:51:00.2	6.090	0.190	-0.220	-0.560
2020/01/31 20:51:00.3	6.120	0.170	-0.160	-0.560
2020/01/31 20:51:00.4	6.140	0.140	-0.100	-0.560
2020/01/31 20:51:00.5	6.160	0.120	-0.040	-0.560
2020/01/31 20:51:00.6	6.190	0.100	0.020	-0.560
2020/01/31 20:51:00.7	6.210	0.070	0.080	-0.550
2020/01/31 20:51:00.8	6.230	0.050	0.130	-0.550
2020/01/31 20:51:00.9	6.240	0.020	0.180	-0.540
2020/01/31 20:51:01.0	6.270	0.000	0.220	-0.520
2020/01/31 20:51:01.1	6.280	-0.020	0.260	-0.510
2020/01/31 20:51:01.2	6.290	-0.040	0.300	-0.500
2020/01/31 20:51:01.3	6.300	-0.060	0.330	-0.480
2020/01/31 20:51:01.4	6.310	-0.080	0.350	-0.460
2020/01/31 20:51:01.5	6.320	-0.100	0.380	-0.440
2020/01/31 20:51:01.6	6.330	-0.110	0.390	-0.410
2020/01/31 20:51:01.7	6.330	-0.130	0.400	-0.390
2020/01/31 20:51:01.8	6.330	-0.140	0.410	-0.360
2020/01/31 20:51:01.9	6.340	-0.150	0.410	-0.340
2020/01/31 20:51:02.0	6.360	-0.160	0.410	-0.310
2020/01/31 20:51:02.1	6.360	-0.170	0.400	-0.280
2020/01/31 20:51:02.2	6.360	-0.180	0.390	-0.260
2020/01/31 20:51:02.3	6.360	-0.190	0.370	-0.230
2020/01/31 20:51:02.4	6.350	-0.190	0.350	-0.210
2020/01/31 20:51:02.5	6.350	-0.200	0.320	-0.180
2020/01/31 20:51:02.6	6.350	-0.200	0.290	-0.160
2020/01/31 20:51:02.7	6.340	-0.200	0.260	-0.140
2020/01/31 20:51:02.8	6.340	-0.200	0.220	-0.120
2020/01/31 20:51:02.9	6.340	-0.200	0.180	-0.100
2020/01/31 20:51:03.0	6.330	-0.200	0.140	-0.080
2020/01/31 20:51:03.1	6.320	-0.200	0.090	-0.070
2020/01/31 20:51:03.2	6.320	-0.200	0.050	-0.060
2020/01/31 20:51:03.3	6.310	-0.200	0.000	-0.050
2020/01/31 20:51:03.4	6.300	-0.190	-0.040	-0.040
2020/01/31 20:51:03.5	6.300	-0.190	-0.090	-0.030
2020/01/31 20:51:03.6	6.290	-0.190	-0.130	-0.020
2020/01/31 20:51:03.7	6.280	-0.180	-0.180	-0.020
2020/01/31 20:51:03.8	6.280	-0.180	-0.220	-0.010
2020/01/31 20:51:03.9	6.270	-0.170	-0.260	-0.010
2020/01/31 20:51:04.0	6.260	-0.170	-0.300	-0.010
2020/01/31 20:51:04.1	6.240	-0.160	-0.330	-0.010
2020/01/31 20:51:04.2	6.230	-0.160	-0.360	-0.000
2020/01/31 20:51:04.3	6.220	-0.150	-0.390	-0.000
2020/01/31 20:51:04.4	6.210	-0.150	-0.420	0.000
2020/01/31 20:51:04.5	6.190	-0.140	-0.440	0.000
2020/01/31 20:51:04.6	6.180	-0.140	-0.460	0.010
2020/01/31 20:51:04.7	6.160	-0.130	-0.470	0.010
2020/01/31 20:51:04.8	6.150	-0.120	-0.480	0.010
2020/01/31 20:51:04.9	6.130	-0.120	-0.490	0.010
2020/01/31 20:51:05.0	6.120	-0.110	-0.490	0.010
2020/01/31 20:51:05.1	6.100	-0.110	-0.490	0.020
2020/01/31 20:51:05.2	6.080	-0.100	-0.490	0.020
2020/01/31 20:51:05.3	6.060	-0.090	-0.480	0.020
2020/01/31 20:51:05.4	6.040	-0.090	-0.470	0.020
2020/01/31 20:51:05.5	6.030	-0.080	-0.450	0.030
2020/01/31 20:51:05.6	6.010	-0.070	-0.440	0.030
2020/01/31 20:51:05.7	5.990	-0.070	-0.420	0.030
2020/01/31 20:51:05.8	5.970	-0.060	-0.400	0.030
2020/01/31 20:51:05.9	5.950	-0.050	-0.380	0.030
2020/01/31 20:51:06.0	5.930	-0.040	-0.360	0.030
2020/01/31 20:51:06.1	5.910	-0.040	-0.340	0.030
2020/01/31 20:51:06.2	5.900	-0.030	-0.320	0.030
2020/01/31 20:51:06.3	5.880	-0.020	-0.310	0.030
2020/01/31 20:51:06.4	5.860	-0.010	-0.290	0.030
2020/01/31 20:51:06.5	5.850	-0.000	-0.270	0.020
2020/01/31 20:51:06.6	5.840	0.010	-0.260	0.010
2020/01/31 20:51:06.7	5.820	0.020	-0.250	0.010
2020/01/31 20:51:06.8	5.810	0.030	-0.240	-0.000
2020/01/31 20:51:06.9	5.810	0.040	-0.230	-0.020
2020/01/31 20:51:07.0	5.820	0.060	-0.220	-0.030
2020/01/31 20:51:07.1	5.810	0.070	-0.220	-0.040
2020/01/31 20:51:07.2	5.810	0.080	-0.230	-0.060
2020/01/31 20:51:07.3	5.820	0.100	-0.230	-0.070
2020/01/31 20:51:07.4	5.820	0.110	-0.240	-0.090
2020/01/31 20:51:07.5	5.830	0.130	-0.260	-0.110
2020/01/31 20:51:07.6	5.840	0.150	-0.270	-0.130
2020/01/31 20:51:07.7	5.850	0.160	-0.290	-0.150
2020/01/31 20:51:07.8	5.870	0.180	-0.310	-0.170
2020/01/31 20:51:07.9	5.880	0.200	-0.340	-0.190
2020/01/31 20:51:08.0	5.900	0.220	-0.360	-0.210
2020/01/31 20:51:08.1	5.920	0.230	-0.390	-0.230
2020/01/31 20:51:08.2	5.940	0.250	-0.420	-0.250
2020/01/31 20:51:08.3	5.960	0.270	-0.450	-0.270
2020/01/31 20:51:08.4	5.990	0.280	-0.470	-0.290
2020/01/31 20:51:08.5	6.010	0.300	-0.500	-0.310
2020/01/31 20:51:08.6	6.040	0.310	-0.530	-0.320
2020/01/31 20:51:08.7	6.060	0.320	-0.560	-0.340
2020/01/31 20:51:08.8	6.090	0.330	-0.590	-0.360
2020/01/31 20:51:08.9	6.120	0.340	-0.620	-0.380
2020/01/31 20:51:09.0	6.140	0.350	-0.640	-0.400
2020/01/31 20:51:09.1	6.170	0.350	-0.670	-0.410
2020/01/31 20:51:09.2	6.190	0.350	-0.690	-0.430
2020/01/31 20:51:09.3	6.220	0.350	-0.710	-0.450
2020/01/31 20:51:09.4	6.250	0.350	-0.720	-0.460
2020/01/31 20:51:09.5	6.270	0.340	-0.740	-0.480
2020/01/31 20:51:09.6	6.300	0.340	-0.750	-0.490
2020/01/31 20:51:09.7	6.330	0.320	-0.760	-0.510
2020/01/31 20:51:09.8	6.350	0.310	-0.760	-0.520
2020/01/31 20:51:09.9	6.380	0.290	-0.760	-0.540
2020/01/31 20:51:10.0	6.400	0.270	-0.760	-0.550
2020/01/31 20:51:10.1	6.420	0.250	-0.760	-0.570
2020/01/31 20:51:10.2	6.440	0.230	-0.750	-0.580
2020/01/31 20:51:10.3	6.460	0.200	-0.730	-0.590
2020/01/31 20:51:10.4	6.480	0.170	-0.720	-0.600
2020/01/31 20:51:10.5	6.500	0.140	-0.690	-0.610
2020/01/31 20:51:10.6	6.520	0.110	-0.670	-0.620
2020/01/31 20:51:10.7	6.530	0.080	-0.640	-0.630
2020/01/31 20:51:10.8	6.550	0.040	-0.610	-0.630
2020/01/31 20:51:10.9	6.560	0.010	-0.570	-0.630
2020/01/31 20:51:11.0	6.570	-0.030	-0.530	-0.620
2020/01/31 20:51:11.1	6.570	-0.070	-0.490	-0.620
2020/01/31 20:51:11.2	6.580	-0.100	-0.440	-0.610
2020/01/31 20:51:11.3	6.580	-0.140	-0.400	-0.600
2020/01/31 20:51:11.4	6.590	-0.180	-0.350	-0.590
2020/01/31 20:51:11.5	6.590	-0.210	-0.300	-0.570
2020/01/31 20:51:11.6	6.590	-0.250	-0.250	-0.550
2020/01/31 20:51:11.7	6.580	-0.280	-0.190	-0.530
2020/01/31 20:51:11.8	6.580	-0.310	-0.140	-0.510
2020/01/31 20:51:11.9	6.580	-0.340	-0.090	-0.490
2020/01/31 20:51:12.0	6.570	-0.370	-0.040	-0.460
2020/01/31 20:51:12.1	6.560	-0.400	0.010	-0.430
2020/01/31 20:51:12.2	6.550	-0.420	0.060	-0.410
2020/01/31 20:51:12.3	6.540	-0.450	0.110	-0.380
2020/01/31 20:51:12.4	6.530	-0.470	0.160	-0.350
2020/01/31 20:51:12.5	6.520	-0.480	0.200	-0.320
2020/01/31 20:51:12.6	6.510	-0.500	0.240	-0.290
2020/01/31 20:51:12.7	6.490	-0.510	0.270	-0.260
2020/01/31 20:51:12.8	6.480	-0.510	0.310	-0.230
2020/01/31 20:51:12.9	6.470	-0.520	0.330	-0.200
2020/01/31 20:51:13.0	6.450	-0.520	0.360	-0.170
2020/01/31 20:51:13.1	6.440	-0.520	0.370	-0.140
2020/01/31 20:51:13.2	6.430	-0.510	0.390	-0.120
2020/01/31 20:51:13.3	6.420	-0.500	0.400	-0.090
2020/01/31 20:51:13.4	6.410	-0.490	0.400	-0.070
2020/01/31 20:51:13.5	6.390	-0.480	0.400	-0.050
2020/01/31 20:51:13.6	6.390	-0.460	0.400	-0.030
2020/01/31 20:51:13.7	6.380	-0.440	0.390	-0.020
2020/01/31 20:51:13.8	6.370	-0.420	0.380	-0.000
2020/01/31 20:51:13.9	6.360	-0.400	0.360	0.010
2020/01/31 20:51:14.0	6.360	-0.380	0.340	0.020
2020/01/31 20:51:14.1	6.360	-0.350	0.320	0.030
2020/01/31 20:51:14.2	6.350	-0.320	0.290	0.030
2020/01/31 20:51:14.3	6.350	-0.290	0.260	0.040
2020/01/31 20:51:14.4	6.350	-0.270	0.230	0.040
2020/01/31 20:51:14.5	6.350	-0.240	0.200	0.040
2020/01/31 20:51:14.6	6.350	-0.210	0.160	0.030
2020/01/31 20:51:14.7	6.350	-0.180	0.120	0.030
2020/01/31 20:51:14.8	6.360	-0.150	0.090	0.020
2020/01/31 20:51:14.9	6.360	-0.120	0.050	0.010
2020/01/31 20:51:15.0	6.380	-0.090	0.010	0.000
2020/01/31 20:51:15.1	6.380	-0.060	-0.030	-0.010
2020/01/31 20:51:15.2	6.390	-0.030	-0.070	-0.020
2020/01/31 20:51:15.3	6.390	-0.010	-0.110	-0.030
2020/01/31 20:51:15.4	6.400	0.020	-0.150	-0.040
2020/01/31 20:51:15.5	6.410	0.040	-0.190	-0.060
2020/01/31 20:51:15.6	6.420	0.060	-0.220	-0.070
2020/01/31 20:51:15.7	6.430	0.080	-0.250	-0.080
2020/01/31 20:51:15.8	6.430	0.100	-0.280	-0.090
2020/01/31 20:51:15.9	6.440	0.120	-0.310	-0.100
2020/01/31 20:51:16.0	6.440	0.130	-0.340	-0.110
2020/01/31 20:51:16.1	6.450	0.150	-0.360	-0.120
2020/01/31 20:51:16.2	6.460	0.160	-0.380	-0.120
2020/01/31 20:51:16.3	6.470	0.170	-0.390	-0.120
2020/01/31 20:51:16.4	6.470	0.180	-0.400	-0.120
2020/01/31 20:51:16.5	6.480	0.180	-0.410	-0.120
2020/01/31 20:51:16.6	6.480	0.190	-0.410	-0.110
2020/01/31 20:51:16.7	6.490	0.190	-0.410	-0.100
2020/01/31 20:51:16.8	6.490	0.190	-0.400	-0.090
2020/01/31 20:51:16.9	6.480	0.190	-0.390	-0.080
2020/01/31 20:51:17.0	6.470	0.190	-0.380	-0.060
2020/01/31 20:51:17.1	6.470	0.190	-0.360	-0.040
2020/01/31 20:51:17.2	6.460	0.190	-0.350	-0.020
2020/01/31 20:51:17.3	6.450	0.180	-0.330	0.000
2020/01/31 20:51:17.4	6.440	0.180	-0.300	0.030
2020/01/31 20:51:17.5	6.420	0.170	-0.280	0.050
2020/01/31 20:51:17.6	6.410	0.170	-0.260	0.080
2020/01/31 20:51:17.7	6.390	0.160	-0.230	0.110
2020/01/31 20:51:17.8	6.370	0.160	-0.210	0.130
2020/01/31 20:51:17.9	6.350	0.150	-0.180	0.160
2020/01/31 20:51:18.0	6.330	0.140	-0.160	0.190
2020/01/31 20:51:18.1	6.300	0.130	-0.140	0.210
2020/01/31 20:51:18.2	6.280	0.130	-0.120	0.240
2020/01/31 20:51:18.3	6.250	0.120	-0.110	0.270
2020/01/31 20:51:18.4	6.220	0.120	-0.090	0.290
2020/01/31 20:51:18.5	6.200	0.110	-0.080	0.310
2020/01/31 20:51:18.6	6.170	0.110	-0.070	0.330
2020/01/31 20:51:18.7	6.140	0.110	-0.070	0.350
2020/01/31 20:51:18.8	6.120	0.100	-0.070	0.370
2020/01/31 20:51:18.9	6.090	0.100	-0.080	0.380
2020/01/31 20:51:19.0	6.080	0.100	-0.080	0.390
2020/01/31 20:51:19.1	6.050	0.100	-0.100	0.400
2020/01/31 20:51:19.2	6.040	0.110	-0.120	0.410
2020/01/31 20:51:19.3	6.020	0.110	-0.150	0.410
2020/01/31 20:51:19.4	6.010	0.120	-0.170	0.400
2020/01/31 20:51:19.5	6.000	0.120	-0.210	0.400
2020/01/31 20:51:19.6	5.990	0.130	-0.250	0.390
2020/01/31 20:51:19.7	5.990	0.140	-0.290	0.370
2020/01/31 20:51:19.8	6.000	0.150	-0.340	0.350
2020/01/31 20:51:19.9	6.000	0.160	-0.390	0.330
2020/01/31 20:51:20.0	6.010	0.180	-0.450	0.300
2020/01/31 20:51:20.1	6.020	0.190	-0.500	0.270
2020/01/31 20:51:20.2	6.040	0.210	-0.560	0.240
2020/01/31 20:51:20.3	6.060	0.220	-0.620	0.200
2020/01/31 20:51:20.4	6.090	0.230	-0.680	0.160
2020/01/31 20:51:20.5	6.110	0.250	-0.740	0.120
2020/01/31 20:51:20.6	6.140	0.260	-0.800	0.070
2020/01/31 20:51:20.7	6.180	0.280	-0.860	0.030
2020/01/31 20:51:20.8	6.210	0.290	-0.910	-0.020
2020/01/31 20:51:20.9	6.250	0.300	-0.960	-0.070
2020/01/31 20:51:21.0	6.280	0.310	-1.010	-0.120
2020/01/31 20:51:21.1	6.320	0.320	-1.050	-0.170
2020/01/31 20:51:21.2	6.360	0.330	-1.090	-0.210
2020/01/31 20:51:21.3	6.400	0.340	-1.120	-0.260
2020/01/31 20:51:21.4	6.440	0.340	-1.140	-0.310
2020/01/31 20:51:21.5	6.470	0.340	-1.160	-0.350
2020/01/31 20:51:21.6	6.510	0.340	-1.170	-0.390
2020/01/31 20:51:21.7	6.550	0.340	-1.170	-0.430
2020/01/31 20:51:21.8	6.590	0.330	-1.170	-0.470
2020/01/31 20:51:21.9	6.620	0.330	-1.160	-0.510
2020/01/31 20:51:22.0	6.650	0.320	-1.130	-0.540
2020/01/31 20:51:22.1	6.680	0.300	-1.110	-0.570
2020/01/31 20:51:22.2	6.720	0.290	-1.070	-0.600
2020/01/31 20:51:22.3	6.750	0.270	-1.030	-0.620
2020/01/31 20:51:22.4	6.770	0.250	-0.980	-0.640
2020/01/31 20:51:22.5	6.800	0.230	-0.920	-0.650
2020/01/31 20:51:22.6	6.820	0.200	-0.860	-0.660
2020/01/31 20:51:22.7	6.850	0.180	-0.800	-0.670
2020/01/31 20:51:22.8	6.870	0.150	-0.730	-0.670
2020/01/31 20:51:22.9	6.880	0.120	-0.650	-0.670
2020/01/31 20:51:23.0	6.870	0.080	-0.570	-0.670
2020/01/31 20:51:23.1	6.880	0.050	-0.490	-0.660
2020/01/31 20:51:23.2	6.890	0.010	-0.410	-0.650
2020/01/31 20:51:23.3	6.900	-0.020	-0.320	-0.640
2020/01/31 20:51:23.4	6.900	-0.060	-0.230	-0.620
2020/01/31 20:51:23.5	6.900	-0.100	-0.150	-0.610
2020/01/31 20:51:23.6	6.900	-0.140	-0.060	-0.590
2020/01/31 20:51:23.7	6.900	-0.180	0.020	-0.560
2020/01/31 20:51:23.8	6.890	-0.220	0.110	-0.540
2020/01/31 20:51:23.9	6.880	-0.260	0.190	-0.520
2020/01/31 20:51:24.0	6.880	-0.300	0.260	-0.490
2020/01/31 20:51:24.1	6.870	-0.340	0.340	-0.470
2020/01/31 20:51:24.2	6.860	-0.370	0.410	-0.440
2020/01/31 20:51:24.3	6.850	-0.410	0.470	-0.420
2020/01/31 20:51:24.4	6.830	-0.440	0.530	-0.390
2020/01/31 20:51:24.5	6.820	-0.470	0.580	-0.370
2020/01/31 20:51:24.6	6.800	-0.500	0.630	-0.340
2020/01/31 20:51:24.7	6.780	-0.530	0.670	-0.320
2020/01/31 20:51:24.8	6.760	-0.560	0.700	-0.300
2020/01/31 20:51:24.9	6.750	-0.580	0.730	-0.280
2020/01/31 20:51:25.0	6.730	-0.600	0.760	-0.250
2020/01/31 20:51:25.1	6.710	-0.620	0.770	-0.230
2020/01/31 20:51:25.2	6.690	-0.630	0.780	-0.210
2020/01/31 20:51:25.3	6.680	-0.640	0.780	-0.190
2020/01/31 20:51:25.4	6.660	-0.650	0.780	-0.170
2020/01/31 20:51:25.5	6.640	-0.650	0.770	-0.160
2020/01/31 20:51:25.6	6.620	-0.650	0.750	-0.140
2020/01/31 20:51:25.7	6.610	-0.650	0.720	-0.130
2020/01/31 20:51:25.8	6.590	-0.640	0.700	-0.110
2020/01/31 20:51:25.9	6.580	-0.630	0.660	-0.100
2020/01/31 20:51:26.0	6.560	-0.620	0.620	-0.090
2020/01/31 20:51:26.1	6.550	-0.600	0.580	-0.080
2020/01/31 20:51:26.2	6.530	-0.580	0.530	-0.070
2020/01/31 20:51:26.3	6.520	-0.560	0.480	-0.070
2020/01/31 20:51:26.4	6.500	-0.530	0.430	-0.060
2020/01/31 20:51:26.5	6.490	-0.500	0.380	-0.050
2020/01/31 20:51:26.6	6.480	-0.470	0.320	-0.040
2020/01/31 20:51:26.7	6.470	-0.430	0.260	-0.040
2020/01/31 20:51:26.8	6.450	-0.390	0.200	-0.030
2020/01/31 20:51:26.9	6.440	-0.350	0.140	-0.030
2020/01/31 20:51:27.0	6.430	-0.310	0.080	-0.020
2020/01/31 20:51:27.1	6.420	-0.270	0.020	-0.010
2020/01/31 20:51:27.2	6.400	-0.220	-0.040	-0.010
2020/01/31 20:51:27.3	6.390	-0.180	-0.100	0.000
2020/01/31 20:51:27.4	6.380	-0.130	-0.160	0.010
2020/01/31 20:51:27.5	6.370	-0.080	-0.220	0.010
2020/01/31 20:51:27.6	6.350	-0.030	-0.270	0.020
2020/01/31 20:51:27.7	6.340	0.020	-0.330	0.030
2020/01/31 20:51:27.8	6.330	0.070	-0.380	0.030
2020/01/31 20:51:27.9	6.320	0.110	-0.430	0.040
2020/01/31 20:51:28.0	6.320	0.160	-0.480	0.050
2020/01/31 20:51:28.1	6.310	0.210	-0.530	0.050
2020/01/31 20:51:28.2	6.310	0.250	-0.580	0.050
2020/01/31 20:51:28.3	6.300	0.290	-0.620	0.060
2020/01/31 20:51:28.4	6.300	0.340	-0.670	0.060
2020/01/31 20:51:28.5	6.290	0.370	-0.700	0.070
2020/01/31 20:51:28.6	6.290	0.410	-0.740	0.070
2020/01/31 20:51:28.7	6.290	0.450	-0.770	0.070
2020/01/31 20:51:28.8	6.290	0.480	-0.800	0.070
2020/01/31 20:51:28.9	6.300	0.510	-0.830	0.080
2020/01/31 20:51:29.0	6.300	0.540	-0.860	0.070
2020/01/31 20:51:29.1	6.310	0.560	-0.880	0.070
2020/01/31 20:51:29.2	6.320	0.580	-0.890	0.070
2020/01/31 20:51:29.3	6.330	0.600	-0.910	0.070
2020/01/31 20:51:29.4	6.340	0.620	-0.920	0.070
2020/01/31 20:51:29.5	6.350	0.630	-0.920	0.060
2020/01/31 20:51:29.6	6.360	0.630	-0.920	0.060
2020/01/31 20:51:29.7	6.380	0.640	-0.920	0.050
2020/01/31 20:51:29.8	6.400	0.640	-0.920	0.050
2020/01/31 20:51:29.9	6.410	0.640	-0.910	0.040
2020/01/31 20:51:30.0	6.430	0.630	-0.890	0.030
2020/01/31 20:51:30.1	6.450	0.620	-0.880	0.020
2020/01/31 20:51:30.2	6.470	0.610	-0.860	0.000
2020/01/31 20:51:30.3	6.490	0.600	-0.840	-0.010
2020/01/31 20:51:30.4	6.510	0.580	-0.810	-0.030
2020/01/31 20:51:30.5	6.530	0.550	-0.780	-0.040
2020/01/31 20:51:30.6	6.550	0.530	-0.750	-0.060
2020/01/31 20:51:30.7	6.570	0.500	-0.720	-0.080
2020/01/31 20:51:30.8	6.590	0.470	-0.680	-0.100
2020/01/31 20:51:30.9	6.610	0.430	-0.640	-0.120
2020/01/31 20:51:31.0	6.620	0.390	-0.600	-0.140
2020/01/31 20:51:31.1	6.640	0.350	-0.560	-0.160
2020/01/31 20:51:31.2	6.660	0.310	-0.520	-0.180
2020/01/31 20:51:31.3	6.670	0.270	-0.480	-0.200
2020/01/31 20:51:31.4	6.690	0.220	-0.430	-0.230
2020/01/31 20:51:31.5	6.700	0.170	-0.390	-0.250
2020/01/31 20:51:31.6	6.710	0.120	-0.350	-0.270
2020/01/31 20:51:31.7	6.730	0.070	-0.300	-0.290
2020/01/31 20:51:31.8	6.740	0.020	-0.260	-0.310
2020/01/31 20:51:31.9	6.740	-0.030	-0.220	-0.330
2020/01/31 20:51:32.0	6.760	-0.080	-0.180	-0.350
2020/01/31 20:51:32.1	6.770	-0.130	-0.140	-0.370
2020/01/31 20:51:32.2	6.770	-0.180	-0.100	-0.390
2020/01/31 20:51:32.3	6.780	-0.230	-0.070	-0.410
2020/01/31 20:51:32.4	6.780	-0.280	-0.030	-0.420
2020/01/31 20:51:32.5	6.780	-0.320	-0.000	-0.440
2020/01/31 20:51:32.6	6.780	-0.370	0.020	-0.460
2020/01/31 20:51:32.7	6.770	-0.410	0.050	-0.470
2020/01/31 20:51:32.8	6.770	-0.450	0.070	-0.490
2020/01/31 20:51:32.9	6.770	-0.490	0.090	-0.510
2020/01/31 20:51:33.0	6.760	-0.520	0.100	-0.520
2020/01/31 20:51:33.1	6.750	-0.550	0.110	-0.540
2020/01/31 20:51:33.2	6.750	-0.580	0.110	-0.550
2020/01/31 20:51:33.3	6.740	-0.600	0.110	-0.570
2020/01/31 20:51:33.4	6.740	-0.620	0.110	-0.580
2020/01/31 20:51:33.5	6.730	-0.630	0.110	-0.590
2020/01/31 20:51:33.6	6.730	-0.640	0.100	-0.610
2020/01/31 20:51:33.7	6.720	-0.650	0.080	-0.620
2020/01/31 20:51:33.8	6.720	-0.650	0.070	-0.630
2020/01/31 20:51:33.9	6.710	-0.650	0.050	-0.640
2020/01/31 20:51:34.0	6.720	-0.640	0.030	-0.650
2020/01/31 20:51:34.1	6.720	-0.630	0.010	-0.660
2020/01/31 20:51:34.2	6.720	-0.610	-0.010	-0.670
2020/01/31 20:51:34.3	6.720	-0.600	-0.040	-0.680
2020/01/31 20:51:34.4	6.720	-0.570	-0.060	-0.680
2020/01/31 20:51:34.5	6.720	-0.550	-0.090	-0.690
2020/01/31 20:51:34.6	6.720	-0.520	-0.120	-0.690
2020/01/31 20:51:34.7	6.730	-0.490	-0.140	-0.690
2020/01/31 20:51:34.8	6.730	-0.450	-0.170	-0.690
2020/01/31 20:51:34.9	6.740	-0.410	-0.190	-0.690
2020/01/31 20:51:35.0	6.750	-0.370	-0.210	-0.690
2020/01/31 20:51:35.1	6.760	-0.330	-0.230	-0.690
2020/01/31 20:51:35.2	6.770	-0.290	-0.250	-0.680
2020/01/31 20:51:35.3	6.780	-0.240	-0.270	-0.680
2020/01/31 20:51:35.4	6.790	-0.200	-0.280	-0.670
2020/01/31 20:51:35.5	6.810	-0.150	-0.300	-0.660
2020/01/31 20:51:35.6	6.820	-0.110	-0.310	-0.640
2020/01/31 20:51:35.7	6.830	-0.060	-0.310	-0.630
2020/01/31 20:51:35.8	6.840	-0.020	-0.320	-0.610
2020/01/31 20:51:35.9	6.850	0.030	-0.320	-0.590
2020/01/31 20:51:36.0	6.860	0.070	-0.310	-0.560
2020/01/31 20:51:36.1	6.870	0.110	-0.310	-0.530
2020/01/31 20:51:36.2	6.880	0.150	-0.300	-0.500
2020/01/31 20:51:36.3	6.880	0.190	-0.290	-0.470
2020/01/31 20:51:36.4	6.890	0.230	-0.280	-0.430
2020/01/31 20:51:36.5	6.890	0.260	-0.270	-0.390
2020/01/31 20:51:36.6	6.900	0.290	-0.260	-0.350
2020/01/31 20:51:36.7	6.900	0.320	-0.240	-0.310
2020/01/31 20:51:36.8	6.900	0.350	-0.230	-0.270
2020/01/31 20:51:36.9	6.900	0.380	-0.210	-0.220
2020/01/31 20:51:37.0	6.890	0.400	-0.200	-0.170
2020/01/31 20:51:37.1	6.880	0.420	-0.180	-0.130
2020/01/31 20:51:37.2	6.880	0.440	-0.170	-0.080
2020/01/31 20:51:37.3	6.870	0.450	-0.150	-0.040
2020/01/31 20:51:37.4	6.870	0.460	-0.140	0.010
2020/01/31 20:51:37.5	6.860	0.470	-0.130	0.050
2020/01/31 20:51:37.6	6.850	0.480	-0.120	0.090
2020/01/31 20:51:37.7	6.840	0.480	-0.110	0.130
2020/01/31 20:51:37.8	6.840	0.490	-0.110	0.160
2020/01/31 20:51:37.9	6.830	0.490	-0.100	0.200
2020/01/31 20:51:38.0	6.810	0.480	-0.100	0.230
2020/01/31 20:51:38.1	6.800	0.480	-0.100	0.250
2020/01/31 20:51:38.2	6.790	0.470	-0.100	0.280
2020/01/31 20:51:38.3	6.780	0.470	-0.110	0.300
2020/01/31 20:51:38.4	6.770	0.460	-0.110	0.320
2020/01/31 20:51:38.5	6.760	0.450	-0.120	0.330
2020/01/31 20:51:38.6	6.760	0.430	-0.130	0.340
2020/01/31 20:51:38.7	6.750	0.420	-0.150	0.350
2020/01/31 20:51:38.8	6.750	0.410	-0.160	0.350
2020/01/31 20:51:38.9	6.740	0.390	-0.170	0.350
2020/01/31 20:51:39.0	6.740	0.370	-0.190	0.350
2020/01/31 20:51:39.1	6.740	0.350	-0.200	0.350
2020/01/31 20:51:39.2	6.730	0.330	-0.220	0.340
2020/01/31 20:51:39.3	6.740	0.310	-0.230	0.330
2020/01/31 20:51:39.4	6.740	0.290	-0.250	0.320
2020/01/31 20:51:39.5	6.740	0.270	-0.270	0.310
2020/01/31 20:51:39.6	6.740	0.240	-0.280	0.300
2020/01/31 20:51:39.7	6.750	0.220	-0.300	0.280
2020/01/31 20:51:39.8	6.760	0.190	-0.310	0.260
2020/01/31 20:51:39.9	6.770	0.160	-0.330	0.240
2020/01/31 20:51:40.0	6.790	0.130	-0.340	0.220
2020/01/31 20:51:40.1	6.800	0.100	-0.350	0.200
2020/01/31 20:51:40.2	6.810	0.070	-0.360	0.170
2020/01/31 20:51:40.3	6.820	0.040	-0.370	0.150
2020/01/31 20:51:40.4	6.830	0.010	-0.380	0.120
2020/01/31 20:51:40.5	6.840	-0.020	-0.380	0.090
2020/01/31 20:51:40.6	6.850	-0.050	-0.390	0.060
2020/01/31 20:51:40.7	6.860	-0.090	-0.390	0.020
2020/01/31 20:51:40.8	6.870	-0.120	-0.390	-0.010
2020/01/31 20:51:40.9	6.890	-0.160	-0.380	-0.040
2020/01/31 20:51:41.0	6.900	-0.190	-0.380	-0.080
2020/01/31 20:51:41.1	6.910	-0.230	-0.370	-0.110
2020/01/31 20:51:41.2	6.920	-0.260	-0.370	-0.150
2020/01/31 20:51:41.3	6.930	-0.300	-0.360	-0.180
2020/01/31 20:51:41.4	6.940	-0.340	-0.340	-0.210
2020/01/31 20:51:41.5	6.950	-0.370	-0.330	-0.240
2020/01/31 20:51:41.6	6.960	-0.410	-0.310	-0.280
2020/01/31 20:51:41.7	6.970	-0.440	-0.300	-0.300
2020/01/31 20:51:41.8	6.970	-0.470	-0.280	-0.330
2020/01/31 20:51:41.9	6.970	-0.500	-0.260	-0.360
2020/01/31 20:51:42.0	6.970	-0.530	-0.240	-0.380
2020/01/31 20:51:42.1	6.970	-0.560	-0.220	-0.400
2020/01/31 20:51:42.2	6.970	-0.580	-0.200	-0.420
2020/01/31 20:51:42.3	6.960	-0.610	-0.180	-0.440
2020/01/31 20:51:42.4	6.960	-0.630	-0.160	-0.450
2020/01/31 20:51:42.5	6.960	-0.640	-0.150	-0.460
2020/01/31 20:51:42.6	6.950	-0.650	-0.130	-0.470
2020/01/31 20:51:42.7	6.940	-0.660	-0.120	-0.480
2020/01/31 20:51:42.8	6.940	-0.670	-0.110	-0.480
2020/01/31 20:51:42.9	6.930	-0.670	-0.100	-0.490
2020/01/31 20:51:43.0	6.910	-0.660	-0.090	-0.490
2020/01/31 20:51:43.1	6.910	-0.650	-0.090	-0.490
2020/01/31 20:51:43.2	6.900	-0.640	-0.090	-0.480
2020/01/31 20:51:43.3	6.890	-0.620	-0.100	-0.480
2020/01/31 20:51:43.4	6.880	-0.600	-0.110	-0.470
2020/01/31 20:51:43.5	6.880	-0.570	-0.120	-0.460
2020/01/31 20:51:43.6	6.870	-0.540	-0.140	-0.450
2020/01/31 20:51:43.7	6.860	-0.500	-0.170	-0.430
2020/01/31 20:51:43.8	6.860	-0.450	-0.190	-0.420
2020/01/31 20:51:43.9	6.860	-0.410	-0.230	-0.400
2020/01/31 20:51:44.0	6.850	-0.350	-0.260	-0.380
2020/01/31 20:51:44.1	6.850	-0.300	-0.300	-0.360
2020/01/31 20:51:44.2	6.850	-0.240	-0.340	-0.340
2020/01/31 20:51:44.3	6.850	-0.170	-0.380	-0.320
2020/01/31 20:51:44.4	6.850	-0.110	-0.420	-0.290
2020/01/31 20:51:44.5	6.850	-0.040	-0.460	-0.270
2020/01/31 20:51:44.6	6.850	0.030	-0.500	-0.240
2020/01/31 20:51:44.7	6.850	0.100	-0.550	-0.210
2020/01/31 20:51:44.8	6.840	0.180	-0.580	-0.190
2020/01/31 20:51:44.9	6.840	0.250	-0.620	-0.160
2020/01/31 20:51:45.0	6.830	0.320	-0.650	-0.130
2020/01/31 20:51:45.1	6.820	0.390	-0.680	-0.100
2020/01/31 20:51:45.2	6.820	0.460	-0.710	-0.070
2020/01/31 20:51:45.3	6.810	0.520	-0.720	-0.040
2020/01/31 20:51:45.4	6.810	0.580	-0.740	-0.010
2020/01/31 20:51:45.5	6.800	0.640	-0.740	0.020
2020/01/31 20:51:45.6	6.790	0.690	-0.740	0.050
2020/01/31 20:51:45.7	6.780	0.740	-0.730	0.080
2020/01/31 20:51:45.8	6.770	0.780	-0.720	0.100
2020/01/31 20:51:45.9	6.750	0.810	-0.700	0.130
2020/01/31 20:51:46.0	6.750	0.840	-0.680	0.160
2020/01/31 20:51:46.1	6.730	0.860	-0.640	0.180
2020/01/31 20:51:46.2	6.720	0.880	-0.600	0.210
2020/01/31 20:51:46.3	6.700	0.890	-0.560	0.230
2020/01/31 20:51:46.4	6.680	0.890	-0.510	0.250
2020/01/31 20:51:46.5	6.660	0.880	-0.450	0.270
2020/01/31 20:51:46.6	6.640	0.860	-0.400	0.290
2020/01/31 20:51:46.7	6.630	0.840	-0.340	0.300
2020/01/31 20:51:46.8	6.610	0.810	-0.270	0.310
2020/01/31 20:51:46.9	6.590	0.770	-0.210	0.320
2020/01/31 20:51:47.0	6.600	0.730	-0.140	0.330
2020/01/31 20:51:47.1	6.590	0.680	-0.080	0.330
2020/01/31 20:51:47.2	6.580	0.630	-0.010	0.320
2020/01/31 20:51:47.3	6.570	0.570	0.050	0.310
2020/01/31 20:51:47.4	6.560	0.500	0.110	0.300
2020/01/31 20:51:47.5	6.550	0.440	0.160	0.280
2020/01/31 20:51:47.6	6.550	0.360	0.220	0.260
2020/01/31 20:51:47.7	6.550	0.290	0.260	0.230
2020/01/31 20:51:47.8	6.560	0.210	0.310	0.190
2020/01/31 20:51:47.9	6.570	0.140	0.340	0.160
2020/01/31 20:51:48.0	6.590	0.060	0.370	0.110
2020/01/31 20:51:48.1	6.610	-0.020	0.390	0.060
2020/01/31 20:51:48.2	6.630	-0.090	0.410	0.010
2020/01/31 20:51:48.3	6.650	-0.170	0.420	-0.040
2020/01/31 20:51:48.4	6.670	-0.240	0.420	-0.100
2020/01/31 20:51:48.5	6.700	-0.310	0.410	-0.160
2020/01/31 20:51:48.6	6.730	-0.380	0.400	-0.220
2020/01/31 20:51:48.7	6.770	-0.440	0.380	-0.290
2020/01/31 20:51:48.8	6.800	-0.500	0.350	-0.350
2020/01/31 20:51:48.9	6.840	-0.550	0.320	-0.410
2020/01/31 20:51:49.0	6.890	-0.600	0.280	-0.480
2020/01/31 20:51:49.1	6.920	-0.640	0.240	-0.540
2020/01/31 20:51:49.2	6.960	-0.680	0.190	-0.600
2020/01/31 20:51:49.3	6.990	-0.710	0.140	-0.650
2020/01/31 20:51:49.4	7.030	-0.740	0.080	-0.700
2020/01/31 20:51:49.5	7.060	-0.760	0.030	-0.750
2020/01/31 20:51:49.6	7.090	-0.780	-0.040	-0.800
2020/01/31 20:51:49.7	7.120	-0.790	-0.100	-0.840
2020/01/31 20:51:49.8	7.150	-0.790	-0.160	-0.880
2020/01/31 20:51:49.9	7.170	-0.790	-0.230	-0.910
2020/01/31 20:51:50.0	7.190	-0.780	-0.290	-0.940
2020/01/31 20:51:50.1	7.210	-0.770	-0.350	-0.960
2020/01/31 20:51:50.2	7.230	-0.750	-0.410	-0.980
2020/01/31 20:51:50.3	7.250	-0.720	-0.470	-1.000
2020/01/31 20:51:50.4	7.260	-0.700	-0.530	-1.010
2020/01/31 20:51:50.5	7.270	-0.660	-0.580	-1.020
2020/01/31 20:51:50.6	7.280	-0.630	-0.630	-1.020
2020/01/31 20:51:50.7	7.280	-0.590	-0.670	-1.020
2020/01/31 20:51:50.8	7.280	-0.550	-0.710	-1.010
2020/01/31 20:51:50.9	7.290	-0.500	-0.740	-1.000
2020/01/31 20:51:51.0	7.280	-0.460	-0.770	-0.980
2020/01/31 20:51:51.1	7.270	-0.410	-0.790	-0.960
2020/01/31 20:51:51.2	7.270	-0.360	-0.810	-0.940
2020/01/31 20:51:51.3	7.260	-0.300	-0.810	-0.910
2020/01/31 20:51:51.4	7.250	-0.250	-0.820	-0.880
2020/01/31 20:51:51.5	7.240	-0.190	-0.810	-0.840
2020/01/31 20:51:51.6	7.230	-0.140	-0.800	-0.810
2020/01/31 20:51:51.7	7.220	-0.090	-0.790	-0.760
2020/01/31 20:51:51.8	7.200	-0.030	-0.770	-0.720
2020/01/31 20:51:51.9	7.190	0.020	-0.740	-0.670
2020/01/31 20:51:52.0	7.160	0.070	-0.720	-0.620
2020/01/31 20:51:52.1	7.140	0.130	-0.680	-0.570
2020/01/31 20:51:52.2	7.130	0.180	-0.640	-0.510
2020/01/31 20:51:52.3	7.110	0.230	-0.600	-0.450
2020/01/31 20:51:52.4	7.090	0.270	-0.560	-0.390
2020/01/31 20:51:52.5	7.080	0.320	-0.520	-0.330
2020/01/31 20:51:52.6	7.060	0.360	-0.470	-0.270
2020/01/31 20:51:52.7	7.050	0.400	-0.420	-0.210
2020/01/31 20:51:52.8	7.030	0.440	-0.370	-0.150
2020/01/31 20:51:52.9	7.020	0.480	-0.330	-0.090
2020/01/31 20:51:53.0	7.010	0.510	-0.280	-0.030
2020/01/31 20:51:53.1	6.990	0.540	-0.240	0.030
2020/01/31 20:51:53.2	6.980	0.570	-0.190	0.090
2020/01/31 20:51:53.3	6.970	0.600	-0.150	0.140
2020/01/31 20:51:53.4	6.960	0.620	-0.110	0.190
2020/01/31 20:51:53.5	6.950	0.640	-0.070	0.240
2020/01/31 20:51:53.6	6.940	0.660	-0.040	0.290
2020/01/31 20:51:53.7	6.930	0.670	-0.000	0.330
2020/01/31 20:51:53.8	6.920	0.690	0.030	0.370
2020/01/31 20:51:53.9	6.910	0.690	0.050	0.410
2020/01/31 20:51:54.0	6.900	0.700	0.080	0.440
2020/01/31 20:51:54.1	6.890	0.700	0.100	0.480
2020/01/31 20:51:54.2	6.880	0.700	0.120	0.500
2020/01/31 20:51:54.3	6.870	0.690	0.140	0.530
2020/01/31 20:51:54.4	6.860	0.680	0.150	0.560
2020/01/31 20:51:54.5	6.850	0.670	0.170	0.580
2020/01/31 20:51:54.6	6.840	0.660	0.180	0.590
2020/01/31 20:51:54.7	6.830	0.640	0.190	0.610
2020/01/31 20:51:54.8	6.820	0.620	0.190	0.620
2020/01/31 20:51:54.9	6.810	0.590	0.190	0.630
2020/01/31 20:51:55.0	6.810	0.570	0.190	0.640
2020/01/31 20:51:55.1	6.800	0.540	0.190	0.640
2020/01/31 20:51:55.2	6.790	0.510	0.180	0.640
2020/01/31 20:51:55.3	6.780	0.470	0.180	0.640
2020/01/31 20:51:55.4	6.770	0.430	0.160	0.640
2020/01/31 20:51:55.5	6.770	0.400	0.150	0.630
2020/01/31 20:51:55.6	6.760	0.350	0.130	0.620
2020/01/31 20:51:55.7	6.750	0.310	0.110	0.610
2020/01/31 20:51:55.8	6.750	0.270	0.090	0.600
2020/01/31 20:51:55.9	6.750	0.220	0.060	0.580
2020/01/31 20:51:56.0	6.730	0.170	0.030	0.560
2020/01/31 20:51:56.1	6.730	0.130	-0.000	0.530
2020/01/31 20:51:56.2	6.730	0.080	-0.030	0.500
2020/01/31 20:51:56.3	6.730	0.030	-0.070	0.470
2020/01/31 20:51:56.4	6.720	-0.020	-0.110	0.430
2020/01/31 20:51:56.5	6.720	-0.080	-0.140	0.380
2020/01/31 20:51:56.6	6.720	-0.130	-0.180	0.340
2020/01/31 20:51:56.7	6.720	-0.180	-0.220	0.290
2020/01/31 20:51:56.8	6.720	-0.230	-0.260	0.240
2020/01/31 20:51:56.9	6.720	-0.280	-0.300	0.180
2020/01/31 20:51:57.0	6.730	-0.330	-0.340	0.120
2020/01/31 20:51:57.1	6.730	-0.370	-0.380	0.060
2020/01/31 20:51:57.2	6.730	-0.420	-0.420	0.000
2020/01/31 20:51:57.3	6.730	-0.460	-0.460	-0.060
2020/01/31 20:51:57.4	6.740	-0.500	-0.500	-0.120
2020/01/31 20:51:57.5	6.740	-0.540	-0.540	-0.180
2020/01/31 20:51:57.6	6.750	-0.580	-0.570	-0.250
2020/01/31 20:51:57.7	6.750	-0.610	-0.610	-0.310
2020/01/31 20:51:57.8	6.760	-0.640	-0.640	-0.370
2020/01/31 20:51:57.9	6.770	-0.670	-0.670	-0.440
2020/01/31 20:51:58.0	6.780	-0.690	-0.700	-0.500
2020/01/31 20:51:58.1	6.790	-0.710	-0.730	-0.560
2020/01/31 20:51:58.2	6.810	-0.730	-0.760	-0.620
2020/01/31 20:51:58.3	6.830	-0.740	-0.790	-0.680
2020/01/31 20:51:58.4	6.850	-0.750	-0.820	-0.740
2020/01/31 20:51:58.5	6.880	-0.750	-0.840	-0.800
2020/01/31 20:51:58.6	6.900	-0.750	-0.860	-0.850
2020/01/31 20:51:58.7	6.930	-0.740	-0.890	-0.910
2020/01/31 20:51:58.8	6.970	-0.730	-0.900	-0.960
2020/01/31 20:51:58.9	7.000	-0.720	-0.920	-1.010
2020/01/31 20:51:59.0	7.030	-0.700	-0.930	-1.050
2020/01/31 20:51:59.1	7.070	-0.670	-0.950	-1.100
2020/01/31 20:51:59.2	7.110	-0.640	-0.960	-1.140
2020/01/31 20:51:59.3	7.150	-0.610	-0.960	-1.170
2020/01/31 20:51:59.4	7.190	-0.580	-0.960	-1.200
2020/01/31 20:51:59.5	7.230	-0.540	-0.960	-1.230
2020/01/31 20:51:59.6	7.270	-0.490	-0.960	-1.250
2020/01/31 20:51:59.7	7.310	-0.450	-0.950	-1.260
2020/01/31 20:51:59.8	7.350	-0.400	-0.930	-1.270
2020/01/31 20:51:59.9	7.390	-0.350	-0.910	-1.270
2020/01/31 20:52:00.0	7.420	-0.290	-0.890	-1.270
2020/01/31 20:52:00.1	7.460	-0.240	-0.860	-1.250
2020/01/31 20:52:00.2	7.490	-0.180	-0.820	-1.230
2020/01/31 20:52:00.3	7.520	-0.130	-0.780	-1.200
2020/01/31 20:52:00.4	7.540	-0.070	-0.730	-1.170
2020/01/31 20:52:00.5	7.570	-0.010	-0.680	-1.120
2020/01/31 20:52:00.6	7.590	0.040	-0.620	-1.070
2020/01/31 20:52:00.7	7.610	0.100	-0.560	-1.020
2020/01/31 20:52:00.8	7.620	0.150	-0.490	-0.950
2020/01/31 20:52:00.9	7.630	0.200	-0.410	-0.880
2020/01/31 20:52:01.0	7.630	0.250	-0.330	-0.800
2020/01/31 20:52:01.1	7.630	0.300	-0.250	-0.720
2020/01/31 20:52:01.2	7.630	0.340	-0.170	-0.640
2020/01/31 20:52:01.3	7.630	0.380	-0.090	-0.550
2020/01/31 20:52:01.4	7.630	0.420	0.000	-0.460
2020/01/31 20:52:01.5	7.620	0.450	0.090	-0.360
2020/01/31 20:52:01.6	7.600	0.480	0.170	-0.260
2020/01/31 20:52:01.7	7.590	0.500	0.260	-0.160
2020/01/31 20:52:01.8	7.570	0.520	0.340	-0.060
2020/01/31 20:52:01.9	7.550	0.540	0.420	0.040
2020/01/31 20:52:02.0	7.520	0.550	0.500	0.140
2020/01/31 20:52:02.1	7.490	0.550	0.570	0.240
2020/01/31 20:52:02.2	7.460	0.550	0.640	0.330
2020/01/31 20:52:02.3	7.420	0.550	0.700	0.420
2020/01/31 20:52:02.4	7.380	0.540	0.760	0.510
2020/01/31 20:52:02.5	7.340	0.530	0.810	0.590
2020/01/31 20:52:02.6	7.300	0.510	0.850	0.670
2020/01/31 20:52:02.7	7.250	0.490	0.890	0.740
2020/01/31 20:52:02.8	7.200	0.460	0.920	0.810
2020/01/31 20:52:02.9	7.160	0.430	0.940	0.860
2020/01/31 20:52:03.0	7.120	0.400	0.950	0.920
2020/01/31 20:52:03.1	7.070	0.370	0.950	0.960
2020/01/31 20:52:03.2	7.020	0.330	0.940	0.990
2020/01/31 20:52:03.3	6.970	0.290	0.920	1.010
2020/01/31 20:52:03.4	6.930	0.250	0.900	1.030
2020/01/31 20:52:03.5	6.880	0.210	0.860	1.040
2020/01/31 20:52:03.6	6.840	0.170	0.810	1.040
2020/01/31 20:52:03.7	6.800	0.130	0.760	1.040
2020/01/31 20:52:03.8	6.760	0.100	0.690	1.020
2020/01/31 20:52:03.9	6.720	0.060	0.620	1.000
2020/01/31 20:52:04.0	6.700	0.020	0.540	0.970
2020/01/31 20:52:04.1	6.670	-0.010	0.450	0.940
2020/01/31 20:52:04.2	6.650	-0.040	0.360	0.900
2020/01/31 20:52:04.3	6.630	-0.070	0.250	0.860
2020/01/31 20:52:04.4	6.620	-0.090	0.150	0.800
2020/01/31 20:52:04.5	6.610	-0.110	0.030	0.750
2020/01/31 20:52:04.6	6.600	-0.130	-0.080	0.680
2020/01/31 20:52:04.7	6.600	-0.140	-0.200	0.620
2020/01/31 20:52:04.8	6.610	-0.150	-0.320	0.540
2020/01/31 20:52:04.9	6.620	-0.150	-0.450	0.470
2020/01/31 20:52:05.0	6.630	-0.150	-0.560	0.390
2020/01/31 20:52:05.1	6.650	-0.150	-0.680	0.310
2020/01/31 20:52:05.2	6.670	-0.140	-0.800	0.220
2020/01/31 20:52:05.3	6.690	-0.130	-0.910	0.140
2020/01/31 20:52:05.4	6.710	-0.110	-1.010	0.060
2020/01/31 20:52:05.5	6.740	-0.100	-1.110	-0.020
2020/01/31 20:52:05.6	6.770	-0.080	-1.210	-0.110
2020/01/31 20:52:05.7	6.800	-0.050	-1.290	-0.190
2020/01/31 20:52:05.8	6.830	-0.030	-1.360	-0.260
2020/01/31 20:52:05.9	6.860	-0.000	-1.420	-0.340
2020/01/31 20:52:06.0	6.890	0.020	-1.470	-0.420
2020/01/31 20:52:06.1	6.920	0.050	-1.510	-0.480
2020/01/31 20:52:06.2	6.950	0.070	-1.540	-0.540
2020/01/31 20:52:06.3	6.980	0.100	-1.560	-0.600
2020/01/31 20:52:06.4	7.010	0.120	-1.560	-0.650
2020/01/31 20:52:06.5	7.040	0.150	-1.550	-0.700
2020/01/31 20:52:06.6	7.070	0.170	-1.530	-0.740
2020/01/31 20:52:06.7	7.090	0.190	-1.500	-0.780
2020/01/31 20:52:06.8	7.120	0.210	-1.460	-0.810
2020/01/31 20:52:06.9	7.140	0.220	-1.410	-0.830
2020/01/31 20:52:07.0	7.150	0.240	-1.360	-0.850
2020/01/31 20:52:07.1	7.170	0.250	-1.290	-0.860
2020/01/31 20:52:07.2	7.190	0.250	-1.210	-0.860
2020/01/31 20:52:07.3	7.210	0.260	-1.130	-0.860
2020/01/31 20:52:07.4	7.230	0.260	-1.050	-0.850
2020/01/31 20:52:07.5	7.250	0.260	-0.960	-0.830
2020/01/31 20:52:07.6	7.260	0.250	-0.860	-0.810
2020/01/31 20:52:07.7	7.280	0.240	-0.770	-0.790
2020/01/31 20:52:07.8	7.290	0.230	-0.670	-0.760
2020/01/31 20:52:07.9	7.310	0.220	-0.580	-0.730
2020/01/31 20:52:08.0	7.310	0.210	-0.480	-0.700
2020/01/31 20:52:08.1	7.320	0.190	-0.390	-0.660
2020/01/31 20:52:08.2	7.330	0.180	-0.300	-0.610
2020/01/31 20:52:08.3	7.340	0.160	-0.210	-0.570
2020/01/31 20:52:08.4	7.340	0.140	-0.130	-0.520
2020/01/31 20:52:08.5	7.350	0.110	-0.050	-0.470
2020/01/31 20:52:08.6	7.350	0.090	0.020	-0.420
2020/01/31 20:52:08.7	7.350	0.070	0.090	-0.360
2020/01/31 20:52:08.8	7.350	0.050	0.150	-0.310
2020/01/31 20:52:08.9	7.350	0.030	0.210	-0.250
2020/01/31 20:52:09.0	7.340	0.010	0.250	-0.200
2020/01/31 20:52:09.1	7.330	-0.020	0.300	-0.140
2020/01/31 20:52:09.2	7.310	-0.030	0.340	-0.080
2020/01/31 20:52:09.3	7.300	-0.050	0.370	-0.030
2020/01/31 20:52:09.4	7.280	-0.070	0.400	0.030
2020/01/31 20:52:09.5	7.260	-0.090	0.420	0.080
2020/01/31 20:52:09.6	7.240	-0.100	0.430	0.140
2020/01/31 20:52:09.7	7.220	-0.110	0.440	0.190
2020/01/31 20:52:09.8	7.190	-0.120	0.450	0.240
2020/01/31 20:52:09.9	7.170	-0.130	0.450	0.290
2020/01/31 20:52:10.0	7.160	-0.140	0.440	0.330
2020/01/31 20:52:10.1	7.130	-0.140	0.440	0.380
2020/01/31 20:52:10.2	7.100	-0.140	0.420	0.420
2020/01/31 20:52:10.3	7.080	-0.140	0.400	0.450
2020/01/31 20:52:10.4	7.050	-0.140	0.380	0.490
2020/01/31 20:52:10.5	7.030	-0.140	0.350	0.520
2020/01/31 20:52:10.6	7.000	-0.140	0.320	0.550
2020/01/31 20:52:10.7	6.980	-0.130	0.290	0.570
2020/01/31 20:52:10.8	6.950	-0.130	0.250	0.590
2020/01/31 20:52:10.9	6.930	-0.120	0.210	0.600
2020/01/31 20:52:11.0	6.900	-0.110	0.160	0.610
2020/01/31 20:52:11.1	6.880	-0.100	0.120	0.620
2020/01/31 20:52:11.2	6.860	-0.090	0.070	0.620
2020/01/31 20:52:11.3	6.840	-0.080	0.020	0.620
2020/01/31 20:52:11.4	6.830	-0.070	-0.040	0.610
2020/01/31 20:52:11.5	6.810	-0.070	-0.090	0.600
2020/01/31 20:52:11.6	6.800	-0.060	-0.150	0.580
2020/01/31 20:52:11.7	6.790	-0.050	-0.200	0.560
2020/01/31 20:52:11.8	6.790	-0.040	-0.260	0.540
2020/01/31 20:52:11.9	6.780	-0.030	-0.310	0.500
2020/01/31 20:52:12.0	6.800	-0.030	-0.360	0.470
2020/01/31 20:52:12.1	6.810	-0.020	-0.420	0.430
2020/01/31 20:52:12.2	6.810	-0.020	-0.470	0.380
2020/01/31 20:52:12.3	6.820	-0.010	-0.520	0.330
2020/01/31 20:52:12.4	6.830	-0.010	-0.570	0.280
2020/01/31 20:52:12.5	6.840	-0.010	-0.610	0.220
2020/01/31 20:52:12.6	6.860	-0.010	-0.650	0.160
2020/01/31 20:52:12.7	6.880	-0.010	-0.690	0.100
2020/01/31 20:52:12.8	6.900	-0.010	-0.720	0.040
2020/01/31 20:52:12.9	6.930	-0.010	-0.750	-0.020
2020/01/31 20:52:13.0	6.960	-0.010	-0.780	-0.090
2020/01/31 20:52:13.1	6.990	-0.010	-0.800	-0.160
2020/01/31 20:52:13.2	7.020	-0.020	-0.810	-0.220
2020/01/31 20:52:13.3	7.050	-0.020	-0.820	-0.280
2020/01/31 20:52:13.4	7.090	-0.030	-0.820	-0.350
2020/01/31 20:52:13.5	7.120	-0.040	-0.820	-0.400
2020/01/31 20:52:13.6	7.160	-0.040	-0.810	-0.460
2020/01/31 20:52:13.7	7.200	-0.050	-0.800	-0.510
2020/01/31 20:52:13.8	7.240	-0.060	-0.780	-0.560
2020/01/31 20:52:13.9	7.280	-0.070	-0.750	-0.610
2020/01/31 20:52:14.0	7.310	-0.080	-0.720	-0.650
2020/01/31 20:52:14.1	7.350	-0.080	-0.690	-0.680
2020/01/31 20:52:14.2	7.390	-0.090	-0.650	-0.710
2020/01/31 20:52:14.3	7.420	-0.100	-0.600	-0.740
2020/01/31 20:52:14.4	7.450	-0.110	-0.550	-0.750
2020/01/31 20:52:14.5	7.480	-0.120	-0.500	-0.760
2020/01/31 20:52:14.6	7.510	-0.120	-0.440	-0.770
2020/01/31 20:52:14.7	7.530	-0.130	-0.380	-0.760
2020/01/31 20:52:14.8	7.550	-0.140	-0.320	-0.750
2020/01/31 20:52:14.9	7.570	-0.140	-0.250	-0.730
2020/01/31 20:52:15.0	7.560	-0.150	-0.190	-0.710
2020/01/31 20:52:15.1	7.570	-0.150	-0.120	-0.680
2020/01/31 20:52:15.2	7.570	-0.160	-0.050	-0.640
2020/01/31 20:52:15.3	7.570	-0.160	0.010	-0.600
2020/01/31 20:52:15.4	7.570	-0.160	0.080	-0.560
2020/01/31 20:52:15.5	7.560	-0.170	0.150	-0.500
2020/01/31 20:52:15.6	7.540	-0.170	0.210	-0.450
2020/01/31 20:52:15.7	7.530	-0.170	0.270	-0.390
2020/01/31 20:52:15.8	7.510	-0.160	0.330	-0.330
2020/01/31 20:52:15.9	7.480	-0.160	0.380	-0.270
2020/01/31 20:52:16.0	7.450	-0.160	0.430	-0.210
2020/01/31 20:52:16.1	7.420	-0.150	0.480	-0.140
2020/01/31 20:52:16.2	7.390	-0.150	0.520	-0.080
2020/01/31 20:52:16.3	7.360	-0.140	0.550	-0.020
2020/01/31 20:52:16.4	7.320	-0.130	0.580	0.040
2020/01/31 20:52:16.5	7.290	-0.120	0.610	0.100
2020/01/31 20:52:16.6	7.260	-0.110	0.620	0.150
2020/01/31 20:52:16.7	7.220	-0.090	0.630	0.210
2020/01/31 20:52:16.8	7.180	-0.080	0.640	0.260
2020/01/31 20:52:16.9	7.150	-0.060	0.630	0.310
2020/01/31 20:52:17.0	7.100	-0.040	0.620	0.350
2020/01/31 20:52:17.1	7.060	-0.020	0.600	0.390
2020/01/31 20:52:17.2	7.030	0.000	0.580	0.430
2020/01/31 20:52:17.3	6.990	0.020	0.550	0.470
2020/01/31 20:52:17.4	6.950	0.050	0.510	0.510
2020/01/31 20:52:17.5	6.910	0.070	0.470	0.540
2020/01/31 20:52:17.6	6.880	0.100	0.420	0.570
2020/01/31 20:52:17.7	6.840	0.120	0.360	0.600
2020/01/31 20:52:17.8	6.800	0.150	0.310	0.620
2020/01/31 20:52:17.9	6.760	0.170	0.240	0.640
2020/01/31 20:52:18.0	6.740	0.190	0.180	0.660
2020/01/31 20:52:18.1	6.700	0.220	0.110	0.670
2020/01/31 20:52:18.2	6.670	0.240	0.040	0.680
2020/01/31 20:52:18.3	6.630	0.260	-0.040	0.690
2020/01/31 20:52:18.4	6.600	0.280	-0.110	0.680
2020/01/31 20:52:18.5	6.570	0.300	-0.190	0.680
2020/01/31 20:52:18.6	6.540	0.320	-0.260	0.670
2020/01/31 20:52:18.7	6.520	0.340	-0.340	0.650
2020/01/31 20:52:18.8	6.490	0.350	-0.420	0.630
2020/01/31 20:52:18.9	6.480	0.360	-0.500	0.600
2020/01/31 20:52:19.0	6.470	0.370	-0.570	0.570
2020/01/31 20:52:19.1	6.460	0.380	-0.650	0.530
2020/01/31 20:52:19.2	6.450	0.390	-0.720	0.480
2020/01/31 20:52:19.3	6.450	0.400	-0.790	0.430
2020/01/31 20:52:19.4	6.450	0.400	-0.860	0.380
2020/01/31 20:52:19.5	6.450	0.400	-0.920	0.320
2020/01/31 20:52:19.6	6.460	0.400	-0.990	0.250
2020/01/31 20:52:19.7	6.470	0.400	-1.050	0.190
2020/01/31 20:52:19.8	6.490	0.400	-1.100	0.120
2020/01/31 20:52:19.9	6.500	0.390	-1.150	0.040
2020/01/31 20:52:20.0	6.530	0.380	-1.200	-0.030
2020/01/31 20:52:20.1	6.550	0.370	-1.240	-0.100
2020/01/31 20:52:20.2	6.570	0.360	-1.270	-0.180
2020/01/31 20:52:20.3	6.600	0.350	-1.300	-0.250
2020/01/31 20:52:20.4	6.630	0.340	-1.320	-0.320
2020/01/31 20:52:20.5	6.650	0.320	-1.330	-0.390
2020/01/31 20:52:20.6	6.680	0.310	-1.340	-0.450
2020/01/31 20:52:20.7	6.710	0.290	-1.340	-0.520
2020/01/31 20:52:20.8	6.730	0.270	-1.340	-0.580
2020/01/31 20:52:20.9	6.760	0.250	-1.320	-0.630
2020/01/31 20:52:21.0	6.780	0.230	-1.310	-0.690
2020/01/31 20:52:21.1	6.810	0.210	-1.280	-0.740
2020/01/31 20:52:21.2	6.830	0.180	-1.250	-0.780
2020/01/31 20:52:21.3	6.860	0.160	-1.210	-0.820
2020/01/31 20:52:21.4	6.890	0.140	-1.160	-0.860
2020/01/31 20:52:21.5	6.920	0.110	-1.110	-0.890
2020/01/31 20:52:21.6	6.940	0.090	-1.060	-0.920
2020/01/31 20:52:21.7	6.970	0.060	-1.000	-0.950
2020/01/31 20:52:21.8	7.000	0.040	-0.940	-0.970
2020/01/31 20:52:21.9	7.020	0.010	-0.870	-0.980
2020/01/31 20:52:22.0	7.060	-0.010	-0.800	-0.990
2020/01/31 20:52:22.1	7.080	-0.040	-0.730	-1.000
2020/01/31 20:52:22.2	7.110	-0.060	-0.660	-1.010
2020/01/31 20:52:22.3	7.130	-0.080	-0.580	-1.010
2020/01/31 20:52:22.4	7.150	-0.110	-0.510	-1.000
2020/01/31 20:52:22.5	7.180	-0.130	-0.430	-1.000
2020/01/31 20:52:22.6	7.200	-0.150	-0.360	-0.990
2020/01/31 20:52:22.7	7.220	-0.170	-0.280	-0.980
2020/01/31 20:52:22.8	7.240	-0.190	-0.210	-0.970
2020/01/31 20:52:22.9	7.260	-0.210	-0.130	-0.950
2020/01/31 20:52:23.0	7.280	-0.230	-0.070	-0.940
2020/01/31 20:52:23.1	7.300	-0.240	-0.000	-0.920
2020/01/31 20:52:23.2	7.310	-0.260	0.060	-0.900
2020/01/31 20:52:23.3	7.330	-0.280	0.130	-0.870
2020/01/31 20:52:23.4	7.350	-0.290	0.190	-0.850
2020/01/31 20:52:23.5	7.360	-0.300	0.240	-0.820
2020/01/31 20:52:23.6	7.370	-0.310	0.290	-0.800
2020/01/31 20:52:23.7	7.390	-0.320	0.340	-0.770
2020/01/31 20:52:23.8	7.400	-0.330	0.390	-0.740
2020/01/31 20:52:23.9	7.410	-0.340	0.430	-0.710
2020/01/31 20:52:24.0	7.410	-0.340	0.470	-0.680
2020/01/31 20:52:24.1	7.420	-0.350	0.500	-0.650
2020/01/31 20:52:24.2	7.430	-0.350	0.520	-0.620
2020/01/31 20:52:24.3	7.440	-0.350	0.540	-0.580
2020/01/31 20:52:24.4	7.450	-0.350	0.560	-0.550
2020/01/31 20:52:24.5	7.460	-0.350	0.570	-0.520
2020/01/31 20:52:24.6	7.470	-0.350	0.570	-0.490
2020/01/31 20:52:24.7	7.470	-0.350	0.580	-0.460
2020/01/31 20:52:24.8	7.480	-0.340	0.570	-0.430
2020/01/31 20:52:24.9	7.480	-0.340	0.560	-0.400
2020/01/31 20:52:25.0	7.460	-0.330	0.550	-0.370
2020/01/31 20:52:25.1	7.460	-0.320	0.530	-0.340
2020/01/31 20:52:25.2	7.460	-0.310	0.510	-0.310
2020/01/31 20:52:25.3	7.450	-0.300	0.490	-0.290
2020/01/31 20:52:25.4	7.440	-0.290	0.460	-0.260
2020/01/31 20:52:25.5	7.430	-0.280	0.440	-0.230
2020/01/31 20:52:25.6	7.410	-0.270	0.410	-0.200
2020/01/31 20:52:25.7	7.400	-0.260	0.370	-0.170
2020/01/31 20:52:25.8	7.370	-0.250	0.340	-0.140
2020/01/31 20:52:25.9	7.350	-0.230	0.310	-0.110
2020/01/31 20:52:26.0	7.320	-0.220	0.270	-0.070
2020/01/31 20:52:26.1	7.290	-0.200	0.230	-0.040
2020/01/31 20:52:26.2	7.260	-0.190	0.200	-0.000
2020/01/31 20:52:26.3	7.220	-0.170	0.160	0.030
2020/01/31 20:52:26.4	7.180	-0.160	0.120	0.070
2020/01/31 20:52:26.5	7.140	-0.140	0.080	0.100
2020/01/31 20:52:26.6	7.100	-0.130	0.040	0.140
2020/01/31 20:52:26.7	7.050	-0.110	0.010	0.170
2020/01/31 20:52:26.8	7.010	-0.090	-0.030	0.210
2020/01/31 20:52:26.9	6.960	-0.070	-0.070	0.240
2020/01/31 20:52:27.0	6.920	-0.050	-0.110	0.280
2020/01/31 20:52:27.1	6.870	-0.030	-0.150	0.310
2020/01/31 20:52:27.2	6.820	-0.010	-0.190	0.340
2020/01/31 20:52:27.3	6.780	0.010	-0.230	0.370
2020/01/31 20:52:27.4	6.740	0.040	-0.270	0.400
2020/01/31 20:52:27.5	6.690	0.060	-0.310	0.430
2020/01/31 20:52:27.6	6.650	0.090	-0.350	0.460
2020/01/31 20:52:27.7	6.610	0.110	-0.390	0.480
2020/01/31 20:52:27.8	6.570	0.140	-0.430	0.500
2020/01/31 20:52:27.9	6.530	0.170	-0.470	0.520
2020/01/31 20:52:28.0	6.500	0.190	-0.510	0.540
2020/01/31 20:52:28.1	6.470	0.220	-0.550	0.550
2020/01/31 20:52:28.2	6.440	0.250	-0.590	0.560
2020/01/31 20:52:28.3	6.410	0.280	-0.620	0.570
2020/01/31 20:52:28.4	6.380	0.310	-0.660	0.570
2020/01/31 20:52:28.5	6.360	0.330	-0.690	0.570
2020/01/31 20:52:28.6	6.340	0.360	-0.720	0.560
2020/01/31 20:52:28.7	6.330	0.390	-0.740	0.550
2020/01/31 20:52:28.8	6.310	0.410	-0.770	0.540
2020/01/31 20:52:28.9	6.300	0.430	-0.790	0.530
2020/01/31 20:52:29.0	6.290	0.460	-0.810	0.510
2020/01/31 20:52:29.1	6.290	0.470	-0.820	0.500
2020/01/31 20:52:29.2	6.290	0.490	-0.830	0.480
2020/01/31 20:52:29.3	6.290	0.510	-0.840	0.450
2020/01/31 20:52:29.4	6.290	0.520	-0.840	0.430
2020/01/31 20:52:29.5	6.300	0.530	-0.840	0.400
2020/01/31 20:52:29.6	6.300	0.530	-0.830	0.380
2020/01/31 20:52:29.7	6.320	0.530	-0.820	0.350
2020/01/31 20:52:29.8	6.330	0.530	-0.800	0.310
2020/01/31 20:52:29.9	6.340	0.520	-0.780	0.280
2020/01/31 20:52:30.0	6.360	0.510	-0.760	0.250
2020/01/31 20:52:30.1	6.380	0.500	-0.730	0.210
2020/01/31 20:52:30.2	6.400	0.480	-0.700	0.180
2020/01/31 20:52:30.3	6.420	0.460	-0.670	0.140
2020/01/31 20:52:30.4	6.440	0.440	-0.630	0.100
2020/01/31 20:52:30.5	6.460	0.410	-0.580	0.060
2020/01/31 20:52:30.6	6.480	0.370	-0.530	0.020
2020/01/31 20:52:30.7	6.490	0.340	-0.480	-0.010
2020/01/31 20:52:30.8	6.510	0.300	-0.430	-0.050
2020/01/31 20:52:30.9	6.530	0.250	-0.380	-0.090
2020/01/31 20:52:31.0	6.570	0.210	-0.330	-0.130
2020/01/31 20:52:31.1	6.580	0.160	-0.270	-0.160
2020/01/31 20:52:31.2	6.600	0.110	-0.210	-0.190
2020/01/31 20:52:31.3	6.610	0.060	-0.150	-0.230
2020/01/31 20:52:31.4	6.620	0.010	-0.100	-0.260
2020/01/31 20:52:31.5	6.630	-0.050	-0.040	-0.280
2020/01/31 20:52:31.6	6.640	-0.100	0.010	-0.310
2020/01/31 20:52:31.7	6.640	-0.150	0.060	-0.340
2020/01/31 20:52:31.8	6.650	-0.210	0.110	-0.360
2020/01/31 20:52:31.9	6.650	-0.260	0.160	-0.380
2020/01/31 20:52:32.0	6.680	-0.300	0.210	-0.400
2020/01/31 20:52:32.1	6.680	-0.350	0.250	-0.420
2020/01/31 20:52:32.2	6.680	-0.390	0.280	-0.440
2020/01/31 20:52:32.3	6.690	-0.440	0.310	-0.450
2020/01/31 20:52:32.4	6.690	-0.470	0.330	-0.460
2020/01/31 20:52:32.5	6.690	-0.500	0.350	-0.480
2020/01/31 20:52:32.6	6.690	-0.530	0.360	-0.490
2020/01/31 20:52:32.7	6.690	-0.560	0.370	-0.500
2020/01/31 20:52:32.8	6.690	-0.570	0.370	-0.500
2020/01/31 20:52:32.9	6.700	-0.590	0.360	-0.510
2020/01/31 20:52:33.0	6.710	-0.600	0.350	-0.520
2020/01/31 20:52:33.1	6.710	-0.600	0.330	-0.520
2020/01/31 20:52:33.2	6.720	-0.590	0.300	-0.530
2020/01/31 20:52:33.3	6.720	-0.590	0.270	-0.530
2020/01/31 20:52:33.4	6.730	-0.570	0.230	-0.530
2020/01/31 20:52:33.5	6.740	-0.550	0.180	-0.530
2020/01/31 20:52:33.6	6.750	-0.530	0.130	-0.530
2020/01/31 20:52:33.7	6.760	-0.500	0.080	-0.530
2020/01/31 20:52:33.8	6.770	-0.470	0.020	-0.530
2020/01/31 20:52:33.9	6.780	-0.430	-0.040	-0.520
2020/01/31 20:52:34.0	6.790	-0.390	-0.100	-0.520
2020/01/31 20:52:34.1	6.800	-0.350	-0.170	-0.510
2020/01/31 20:52:34.2	6.810	-0.310	-0.240	-0.510
2020/01/31 20:52:34.3	6.830	-0.260	-0.300	-0.500
2020/01/31 20:52:34.4	6.840	-0.220	-0.370	-0.490
2020/01/31 20:52:34.5	6.850	-0.170	-0.440	-0.480
2020/01/31 20:52:34.6	6.860	-0.120	-0.500	-0.460
2020/01/31 20:52:34.7	6.860	-0.080	-0.560	-0.450
2020/01/31 20:52:34.8	6.870	-0.030	-0.620	-0.440
2020/01/31 20:52:34.9	6.870	0.010	-0.670	-0.430
2020/01/31 20:52:35.0	6.870	0.050	-0.730	-0.410
2020/01/31 20:52:35.1	6.870	0.090	-0.770	-0.400
2020/01/31 20:52:35.2	6.870	0.120	-0.810	-0.390
2020/01/31 20:52:35.3	6.870	0.150	-0.840	-0.370
2020/01/31 20:52:35.4	6.880	0.180	-0.870	-0.370
2020/01/31 20:52:35.5	6.880	0.200	-0.890	-0.360
2020/01/31 20:52:35.6	6.880	0.220	-0.900	-0.350
2020/01/31 20:52:35.7	6.880	0.230	-0.910	-0.340
2020/01/31 20:52:35.8	6.870	0.240	-0.910	-0.340
2020/01/31 20:52:35.9	6.870	0.240	-0.900	-0.330
2020/01/31 20:52:36.0	6.860	0.250	-0.890	-0.330
2020/01/31 20:52:36.1	6.860	0.240	-0.870	-0.320
2020/01/31 20:52:36.2	6.860	0.230	-0.840	-0.320
2020/01/31 20:52:36.3	6.860	0.220	-0.810	-0.320
2020/01/31 20:52:36.4	6.860	0.200	-0.770	-0.310
2020/01/31 20:52:36.5	6.860	0.190	-0.730	-0.310
2020/01/31 20:52:36.6	6.860	0.160	-0.690	-0.300
2020/01/31 20:52:36.7	6.860	0.140	-0.630	-0.300
2020/01/31 20:52:36.8	6.870	0.110	-0.580	-0.300
2020/01/31 20:52:36.9	6.870	0.080	-0.520	-0.290
2020/01/31 20:52:37.0	6.880	0.050	-0.460	-0.280
2020/01/31 20:52:37.1	6.880	0.020	-0.400	-0.280
2020/01/31 20:52:37.2	6.890	-0.010	-0.340	-0.270
2020/01/31 20:52:37.3	6.890	-0.050	-0.270	-0.260
2020/01/31 20:52:37.4	6.900	-0.080	-0.210	-0.250
2020/01/31 20:52:37.5	6.910	-0.110	-0.140	-0.240
2020/01/31 20:52:37.6	6.920	-0.140	-0.080	-0.230
2020/01/31 20:52:37.7	6.930	-0.170	-0.010	-0.220
2020/01/31 20:52:37.8	6.930	-0.200	0.050	-0.210
2020/01/31 20:52:37.9	6.940	-0.230	0.110	-0.200
2020/01/31 20:52:38.0	6.940	-0.250	0.160	-0.180
2020/01/31 20:52:38.1	6.940	-0.270	0.210	-0.170
2020/01/31 20:52:38.2	6.950	-0.290	0.260	-0.160
2020/01/31 20:52:38.3	6.960	-0.310	0.310	-0.140
2020/01/31 20:52:38.4	6.960	-0.320	0.350	-0.120
2020/01/31 20:52:38.5	6.960	-0.330	0.390	-0.100
2020/01/31 20:52:38.6	6.970	-0.330	0.420	-0.080
2020/01/31 20:52:38.7	6.970	-0.340	0.450	-0.060
2020/01/31 20:52:38.8	6.960	-0.330	0.470	-0.040
2020/01/31 20:52:38.9	6.960	-0.330	0.480	-0.020
2020/01/31 20:52:39.0	6.960	-0.320	0.490	0.010
2020/01/31 20:52:39.1	6.950	-0.310	0.500	0.030
2020/01/31 20:52:39.2	6.940	-0.300	0.500	0.060
2020/01/31 20:52:39.3	6.930	-0.280	0.500	0.090
2020/01/31 20:52:39.4	6.910	-0.260	0.490	0.120
2020/01/31 20:52:39.5	6.890	-0.240	0.470	0.150
2020/01/31 20:52:39.6	6.870	-0.210	0.450	0.180
2020/01/31 20:52:39.7	6.840	-0.180	0.430	0.210
2020/01/31 20:52:39.8	6.810	-0.150	0.400	0.240
2020/01/31 20:52:39.9	6.780	-0.120	0.370	0.270
2020/01/31 20:52:40.0	6.750	-0.090	0.330	0.300
2020/01/31 20:52:40.1	6.720	-0.050	0.290	0.340
2020/01/31 20:52:40.2	6.690	-0.010	0.240	0.370
2020/01/31 20:52:40.3	6.650	0.030	0.190	0.410
2020/01/31 20:52:40.4	6.610	0.070	0.140	0.440
2020/01/31 20:52:40.5	6.570	0.110	0.080	0.470
2020/01/31 20:52:40.6	6.540	0.150	0.030	0.500
2020/01/31 20:52:40.7	6.500	0.190	-0.040	0.540
2020/01/31 20:52:40.8	6.460	0.240	-0.100	0.560
2020/01/31 20:52:40.9	6.420	0.280	-0.170	0.590
2020/01/31 20:52:41.0	6.390	0.320	-0.230	0.620
2020/01/31 20:52:41.1	6.360	0.360	-0.300	0.640
2020/01/31 20:52:41.2	6.330	0.410	-0.370	0.660
2020/01/31 20:52:41.3	6.300	0.450	-0.440	0.670
2020/01/31 20:52:41.4	6.270	0.480	-0.510	0.680
2020/01/31 20:52:41.5	6.250	0.520	-0.570	0.690
2020/01/31 20:52:41.6	6.230	0.560	-0.640	0.690
2020/01/31 20:52:41.7	6.220	0.590	-0.710	0.690
2020/01/31 20:52:41.8	6.210	0.620	-0.770	0.680
2020/01/31 20:52:41.9	6.200	0.650	-0.830	0.670
2020/01/31 20:52:42.0	6.190	0.680	-0.890	0.650
2020/01/31 20:52:42.1	6.190	0.700	-0.950	0.630
2020/01/31 20:52:42.2	6.200	0.720	-1.000	0.600
2020/01/31 20:52:42.3	6.210	0.730	-1.050	0.570
2020/01/31 20:52:42.4	6.220	0.750	-1.090	0.540
2020/01/31 20:52:42.5	6.240	0.750	-1.130	0.500
2020/01/31 20:52:42.6	6.270	0.760	-1.160	0.460
2020/01/31 20:52:42.7	6.290	0.760	-1.190	0.410
2020/01/31 20:52:42.8	6.320	0.750	-1.220	0.360
2020/01/31 20:52:42.9	6.360	0.740	-1.230	0.310
2020/01/31 20:52:43.0	6.390	0.730	-1.250	0.260
2020/01/31 20:52:43.1	6.430	0.710	-1.250	0.200
2020/01/31 20:52:43.2	6.470	0.690	-1.250	0.150
2020/01/31 20:52:43.3	6.510	0.660	-1.240	0.090
2020/01/31 20:52:43.4	6.550	0.630	-1.220	0.040
2020/01/31 20:52:43.5	6.590	0.600	-1.200	-0.020
2020/01/31 20:52:43.6	6.630	0.550	-1.170	-0.080
2020/01/31 20:52:43.7	6.670	0.510	-1.130	-0.130
2020/01/31 20:52:43.8	6.700	0.460	-1.080	-0.180
2020/01/31 20:52:43.9	6.740	0.410	-1.030	-0.240
2020/01/31 20:52:44.0	6.780	0.350	-0.970	-0.280
2020/01/31 20:52:44.1	6.810	0.290	-0.900	-0.330
2020/01/31 20:52:44.2	6.840	0.220	-0.830	-0.380
2020/01/31 20:52:44.3	6.870	0.160	-0.750	-0.420
2020/01/31 20:52:44.4	6.890	0.090	-0.670	-0.460
2020/01/31 20:52:44.5	6.900	0.020	-0.580	-0.490
2020/01/31 20:52:44.6	6.920	-0.050	-0.490	-0.530
2020/01/31 20:52:44.7	6.930	-0.120	-0.400	-0.550
2020/01/31 20:52:44.8	6.940	-0.200	-0.300	-0.580
2020/01/31 20:52:44.9	6.950	-0.270	-0.210	-0.600
2020/01/31 20:52:45.0	6.960	-0.340	-0.110	-0.620
2020/01/31 20:52:45.1	6.970	-0.410	-0.010	-0.630
2020/01/31 20:52:45.2	6.970	-0.480	0.080	-0.650
2020/01/31 20:52:45.3	6.970	-0.540	0.170	-0.650
2020/01/31 20:52:45.4	6.960	-0.610	0.260	-0.660
2020/01/31 20:52:45.5	6.960	-0.670	0.340	-0.660
2020/01/31 20:52:45.6	6.960	-0.720	0.420	-0.660
2020/01/31 20:52:45.7	6.950	-0.770	0.490	-0.660
2020/01/31 20:52:45.8	6.950	-0.820	0.560	-0.660
2020/01/31 20:52:45.9	6.940	-0.860	0.610	-0.660
2020/01/31 20:52:46.0	6.950	-0.900	0.660	-0.650
2020/01/31 20:52:46.1	6.950	-0.930	0.700	-0.650
2020/01/31 20:52:46.2	6.940	-0.960	0.730	-0.640
2020/01/31 20:52:46.3	6.940	-0.980	0.750	-0.630
2020/01/31 20:52:46.4	6.930	-0.990	0.770	-0.620
2020/01/31 20:52:46.5	6.920	-1.000	0.780	-0.610
2020/01/31 20:52:46.6	6.920	-1.000	0.780	-0.600
2020/01/31 20:52:46.7	6.910	-1.000	0.770	-0.590
2020/01/31 20:52:46.8	6.900	-0.990	0.760	-0.580
2020/01/31 20:52:46.9	6.900	-0.980	0.740	-0.560
2020/01/31 20:52:47.0	6.900	-0.960	0.710	-0.550
2020/01/31 20:52:47.1	6.890	-0.940	0.680	-0.540
2020/01/31 20:52:47.2	6.890	-0.910	0.640	-0.520
2020/01/31 20:52:47.3	6.880	-0.880	0.590	-0.510
2020/01/31 20:52:47.4	6.880	-0.840	0.540	-0.500
2020/01/31 20:52:47.5	6.870	-0.800	0.490	-0.480
2020/01/31 20:52:47.6	6.870	-0.760	0.430	-0.470
2020/01/31 20:52:47.7	6.860	-0.710	0.380	-0.460
2020/01/31 20:52:47.8	6.860	-0.660	0.310	-0.450
2020/01/31 20:52:47.9	6.860	-0.610	0.250	-0.430
2020/01/31 20:52:48.0	6.860	-0.560	0.190	-0.420
2020/01/31 20:52:48.1	6.860	-0.500	0.130	-0.410
2020/01/31 20:52:48.2	6.850	-0.450	0.070	-0.400
2020/01/31 20:52:48.3	6.850	-0.390	0.000	-0.380
2020/01/31 20:52:48.4	6.850	-0.330	-0.050	-0.370
2020/01/31 20:52:48.5	6.850	-0.280	-0.110	-0.350
2020/01/31 20:52:48.6	6.850	-0.220	-0.160	-0.330
2020/01/31 20:52:48.7	6.840	-0.170	-0.210	-0.310
2020/01/31 20:52:48.8	6.840	-0.120	-0.250	-0.290
2020/01/31 20:52:48.9	6.840	-0.070	-0.290	-0.270
2020/01/31 20:52:49.0	6.830	-0.020	-0.330	-0.240
2020/01/31 20:52:49.1	6.830	0.030	-0.360	-0.220
2020/01/31 20:52:49.2	6.830	0.070	-0.390	-0.190
2020/01/31 20:52:49.3	6.830	0.110	-0.410	-0.160
2020/01/31 20:52:49.4	6.820	0.150	-0.420	-0.130
2020/01/31 20:52:49.5	6.820	0.180	-0.430	-0.090
2020/01/31 20:52:49.6	6.820	0.210	-0.440	-0.060
2020/01/31 20:52:49.7	6.810	0.240	-0.440	-0.020
2020/01/31 20:52:49.8	6.800	0.260	-0.430	0.020
2020/01/31 20:52:49.9	6.790	0.280	-0.420	0.060
2020/01/31 20:52:50.0	6.780	0.300	-0.410	0.100
2020/01/31 20:52:50.1	6.770	0.310	-0.390	0.140
2020/01/31 20:52:50.2	6.760	0.320	-0.370	0.180
2020/01/31 20:52:50.3	6.740	0.320	-0.350	0.220
2020/01/31 20:52:50.4	6.720	0.330	-0.320	0.270
2020/01/31 20:52:50.5	6.710	0.330	-0.290	0.310
2020/01/31 20:52:50.6	6.690	0.320	-0.270	0.350
2020/01/31 20:52:50.7	6.670	0.320	-0.240	0.390
2020/01/31 20:52:50.8	6.640	0.310	-0.210	0.420
2020/01/31 20:52:50.9	6.620	0.300	-0.180	0.460
2020/01/31 20:52:51.0	6.600	0.290	-0.160	0.500
2020/01/31 20:52:51.1	6.580	0.280	-0.140	0.530
2020/01/31 20:52:51.2	6.560	0.270	-0.120	0.550
2020/01/31 20:52:51.3	6.530	0.260	-0.110	0.570
2020/01/31 20:52:51.4	6.510	0.250	-0.100	0.590
2020/01/31 20:52:51.5	6.490	0.240	-0.100	0.610
2020/01/31 20:52:51.6	6.470	0.230	-0.100	0.620
2020/01/31 20:52:51.7	6.450	0.220	-0.110	0.630
2020/01/31 20:52:51.8	6.430	0.210	-0.130	0.630
2020/01/31 20:52:51.9	6.410	0.200	-0.150	0.630
2020/01/31 20:52:52.0	6.400	0.200	-0.180	0.620
2020/01/31 20:52:52.1	6.380	0.200	-0.210	0.610
2020/01/31 20:52:52.2	6.360	0.200	-0.250	0.600
2020/01/31 20:52:52.3	6.350	0.200	-0.300	0.570
2020/01/31 20:52:52.4	6.340	0.200	-0.350	0.550
2020/01/31 20:52:52.5	6.330	0.210	-0.400	0.520
2020/01/31 20:52:52.6	6.320	0.220	-0.460	0.490
2020/01/31 20:52:52.7	6.320	0.230	-0.520	0.450
2020/01/31 20:52:52.8	6.310	0.250	-0.590	0.410
2020/01/31 20:52:52.9	6.310	0.260	-0.660	0.370
2020/01/31 20:52:53.0	6.310	0.280	-0.730	0.320
2020/01/31 20:52:53.1	6.310	0.300	-0.800	0.270
2020/01/31 20:52:53.2	6.310	0.320	-0.870	0.220
2020/01/31 20:52:53.3	6.320	0.350	-0.950	0.170
2020/01/31 20:52:53.4	6.320	0.380	-1.020	0.120
2020/01/31 20:52:53.5	6.330	0.400	-1.090	0.060
2020/01/31 20:52:53.6	6.340	0.430	-1.150	0.000
2020/01/31 20:52:53.7	6.350	0.460	-1.210	-0.050
2020/01/31 20:52:53.8	6.370	0.480	-1.270	-0.110
2020/01/31 20:52:53.9	6.380	0.510	-1.320	-0.170
2020/01/31 20:52:54.0	6.400	0.540	-1.370	-0.230
2020/01/31 20:52:54.1	6.420	0.560	-1.410	-0.280
2020/01/31 20:52:54.2	6.440	0.580	-1.440	-0.340
2020/01/31 20:52:54.3	6.470	0.600	-1.460	-0.390
2020/01/31 20:52:54.4	6.500	0.620	-1.480	-0.440
2020/01/31 20:52:54.5	6.530	0.640	-1.480	-0.490
2020/01/31 20:52:54.6	6.560	0.650	-1.480	-0.540
2020/01/31 20:52:54.7	6.600	0.650	-1.470	-0.590
2020/01/31 20:52:54.8	6.630	0.660	-1.440	-0.640
2020/01/31 20:52:54.9	6.670	0.660	-1.410	-0.680
2020/01/31 20:52:55.0	6.700	0.650	-1.370	-0.720
2020/01/31 20:52:55.1	6.740	0.650	-1.310	-0.750
2020/01/31 20:52:55.2	6.780	0.630	-1.250	-0.790
2020/01/31 20:52:55.3	6.820	0.620	-1.180	-0.820
2020/01/31 20:52:55.4	6.860	0.590	-1.110	-0.850
2020/01/31 20:52:55.5	6.900	0.570	-1.020	-0.870
2020/01/31 20:52:55.6	6.940	0.530	-0.930	-0.890
2020/01/31 20:52:55.7	6.980	0.500	-0.830	-0.910
2020/01/31 20:52:55.8	7.030	0.460	-0.720	-0.920
2020/01/31 20:52:55.9	7.060	0.410	-0.610	-0.930
2020/01/31 20:52:56.0	7.090	0.370	-0.510	-0.940
2020/01/31 20:52:56.1	7.120	0.320	-0.390	-0.940
2020/01/31 20:52:56.2	7.160	0.260	-0.270	-0.930
2020/01/31 20:52:56.3	7.190	0.210	-0.150	-0.920
2020/01/31 20:52:56.4	7.220	0.150	-0.030	-0.900
2020/01/31 20:52:56.5	7.250	0.090	0.090	-0.880
2020/01/31 20:52:56.6	7.270	0.020	0.210	-0.860
2020/01/31 20:52:56.7	7.290	-0.040	0.330	-0.830
2020/01/31 20:52:56.8	7.310	-0.100	0.440	-0.800
2020/01/31 20:52:56.9	7.320	-0.170	0.550	-0.760
2020/01/31 20:52:57.0	7.320	-0.230	0.660	-0.710
2020/01/31 20:52:57.1	7.320	-0.300	0.760	-0.660
2020/01/31 20:52:57.2	7.320	-0.360	0.860	-0.610
2020/01/31 20:52:57.3	7.310	-0.420	0.950	-0.550
2020/01/31 20:52:57.4	7.290	-0.480	1.040	-0.490
2020/01/31 20:52:57.5	7.270	-0.540	1.110	-0.430
2020/01/31 20:52:57.6	7.240	-0.600	1.180	-0.360
2020/01/31 20:52:57.7	7.210	-0.650	1.240	-0.290
2020/01/31 20:52:57.8	7.180	-0.700	1.300	-0.230
2020/01/31 20:52:57.9	7.140	-0.740	1.340	-0.160
2020/01/31 20:52:58.0	7.100	-0.790	1.370	-0.090
2020/01/31 20:52:58.1	7.060	-0.820	1.390	-0.020
2020/01/31 20:52:58.2	7.010	-0.860	1.410	0.050
2020/01/31 20:52:58.3	6.950	-0.890	1.410	0.110
2020/01/31 20:52:58.4	6.900	-0.910	1.400	0.180
2020/01/31 20:52:58.5	6.840	-0.930	1.390	0.240
2020/01/31 20:52:58.6	6.780	-0.940	1.360	0.290
2020/01/31 20:52:58.7	6.720	-0.950	1.320	0.350
2020/01/31 20:52:58.8	6.660	-0.950	1.270	0.400
2020/01/31 20:52:58.9	6.600	-0.950	1.210	0.440
2020/01/31 20:52:59.0	6.560	-0.940	1.140	0.490
2020/01/31 20:52:59.1	6.500	-0.920	1.070	0.520
2020/01/31 20:52:59.2	6.450	-0.900	0.980	0.550
2020/01/31 20:52:59.3	6.400	-0.870	0.890	0.580
2020/01/31 20:52:59.4	6.350	-0.840	0.780	0.600
2020/01/31 20:52:59.5	6.310	-0.800	0.680	0.620
2020/01/31 20:52:59.6	6.270	-0.760	0.560	0.630
2020/01/31 20:52:59.7	6.230	-0.710	0.440	0.630
2020/01/31 20:52:59.8	6.200	-0.660	0.320	0.630
2020/01/31 20:52:59.9	6.170	-0.600	0.190	0.630
2020/01/31 20:53:00.0	6.150	-0.540	0.070	0.620
2020/01/31 20:53:00.1	6.130	-0.480	-0.060	0.610
2020/01/31 20:53:00.2	6.110	-0.410	-0.190	0.590
2020/01/31 20:53:00.3	6.100	-0.340	-0.320	0.570
2020/01/31 20:53:00.4	6.090	-0.270	-0.450	0.550
2020/01/31 20:53:00.5	6.090	-0.200	-0.570	0.530
2020/01/31 20:53:00.6	6.090	-0.130	-0.680	0.500
2020/01/31 20:53:00.7	6.090	-0.060	-0.800	0.470
2020/01/31 20:53:00.8	6.090	0.020	-0.900	0.440
2020/01/31 20:53:00.9	6.100	0.090	-1.000	0.410
2020/01/31 20:53:01.0	6.110	0.160	-1.090	0.370
2020/01/31 20:53:01.1	6.120	0.220	-1.170	0.330
2020/01/31 20:53:01.2	6.140	0.290	-1.240	0.300
2020/01/31 20:53:01.3	6.150	0.350	-1.300	0.260
2020/01/31 20:53:01.4	6.160	0.400	-1.350	0.230
2020/01/31 20:53:01.5	6.180	0.460	-1.380	0.190
2020/01/31 20:53:01.6	6.200	0.500	-1.410	0.160
2020/01/31 20:53:01.7	6.220	0.550	-1.430	0.120
2020/01/31 20:53:01.8	6.230	0.580	-1.440	0.090
2020/01/31 20:53:01.9	6.250	0.610	-1.430	0.050
2020/01/31 20:53:02.0	6.290	0.640	-1.420	0.020
2020/01/31 20:53:02.1	6.310	0.660	-1.400	-0.010
2020/01/31 20:53:02.2	6.330	0.670	-1.360	-0.030
2020/01/31 20:53:02.3	6.350	0.680	-1.320	-0.060
2020/01/31 20:53:02.4	6.370	0.680	-1.280	-0.080
2020/01/31 20:53:02.5	6.390	0.680	-1.220	-0.100
2020/01/31 20:53:02.6	6.410	0.670	-1.160	-0.120
2020/01/31 20:53:02.7	6.430	0.650	-1.090	-0.140
2020/01/31 20:53:02.8	6.450	0.630	-1.020	-0.150
2020/01/31 20:53:02.9	6.470	0.610	-0.950	-0.160
2020/01/31 20:53:03.0	6.480	0.580	-0.880	-0.170
2020/01/31 20:53:03.1	6.500	0.550	-0.800	-0.170
2020/01/31 20:53:03.2	6.510	0.510	-0.720	-0.170
2020/01/31 20:53:03.3	6.530	0.470	-0.640	-0.170
2020/01/31 20:53:03.4	6.550	0.430	-0.560	-0.160
2020/01/31 20:53:03.5	6.570	0.390	-0.480	-0.150
2020/01/31 20:53:03.6	6.580	0.340	-0.410	-0.140
2020/01/31 20:53:03.7	6.590	0.300	-0.330	-0.130
2020/01/31 20:53:03.8	6.600	0.250	-0.260	-0.110
2020/01/31 20:53:03.9	6.610	0.200	-0.190	-0.100
2020/01/31 20:53:04.0	6.610	0.150	-0.130	-0.080
2020/01/31 20:53:04.1	6.620	0.100	-0.070	-0.070
2020/01/31 20:53:04.2	6.620	0.050	-0.010	-0.050
2020/01/31 20:53:04.3	6.620	0.010	0.040	-0.030
2020/01/31 20:53:04.4	6.610	-0.040	0.090	-0.020
2020/01/31 20:53:04.5	6.610	-0.080	0.130	-0.010
2020/01/31 20:53:04.6	6.610	-0.120	0.160	0.000
2020/01/31 20:53:04.7	6.600	-0.160	0.190	0.010
2020/01/31 20:53:04.8	6.590	-0.190	0.220	0.020
2020/01/31 20:53:04.9	6.590	-0.220	0.240	0.030
2020/01/31 20:53:05.0	6.590	-0.240	0.250	0.030
2020/01/31 20:53:05.1	6.590	-0.270	0.250	0.030
2020/01/31 20:53:05.2	6.580	-0.280	0.250	0.030
2020/01/31 20:53:05.3	6.580	-0.290	0.250	0.030
2020/01/31 20:53:05.4	6.570	-0.300	0.240	0.030
2020/01/31 20:53:05.5	6.570	-0.300	0.230	0.030
2020/01/31 20:53:05.6	6.560	-0.300	0.210	0.030
2020/01/31 20:53:05.7	6.560	-0.290	0.190	0.020
2020/01/31 20:53:05.8	6.560	-0.280	0.160	0.020
2020/01/31 20:53:05.9	6.550	-0.260	0.130	0.010
2020/01/31 20:53:06.0	6.560	-0.240	0.090	0.010
2020/01/31 20:53:06.1	6.560	-0.210	0.060	0.000
2020/01/31 20:53:06.2	6.560	-0.190	0.020	-0.000
2020/01/31 20:53:06.3	6.560	-0.160	-0.030	-0.010
2020/01/31 20:53:06.4	6.560	-0.120	-0.070	-0.020
2020/01/31 20:53:06.5	6.560	-0.090	-0.120	-0.030
2020/01/31 20:53:06.6	6.570	-0.050	-0.170	-0.030
2020/01/31 20:53:06.7	6.570	-0.020	-0.210	-0.040
2020/01/31 20:53:06.8	6.570	0.020	-0.260	-0.050
2020/01/31 20:53:06.9	6.580	0.050	-0.310	-0.060
2020/01/31 20:53:07.0	6.570	0.090	-0.350	-0.080
2020/01/31 20:53:07.1	6.570	0.120	-0.400	-0.090
2020/01/31 20:53:07.2	6.570	0.150	-0.440	-0.100
2020/01/31 20:53:07.3	6.570	0.180	-0.480	-0.120
2020/01/31 20:53:07.4	6.570	0.210	-0.520	-0.140
2020/01/31 20:53:07.5	6.580	0.230	-0.560	-0.160
2020/01/31 20:53:07.6	6.580	0.250	-0.590	-0.180
2020/01/31 20:53:07.7	6.580	0.260	-0.620	-0.200
2020/01/31 20:53:07.8	6.580	0.280	-0.650	-0.220
2020/01/31 20:53:07.9	6.580	0.280	-0.680	-0.250
2020/01/31 20:53:08.0	6.580	0.290	-0.700	-0.280
2020/01/31 20:53:08.1	6.590	0.290	-0.710	-0.310
2020/01/31 20:53:08.2	6.590	0.280	-0.730	-0.330
2020/01/31 20:53:08.3	6.600	0.270	-0.740	-0.370
2020/01/31 20:53:08.4	6.600	0.260	-0.740	-0.400
2020/01/31 20:53:08.5	6.610	0.240	-0.740	-0.430
2020/01/31 20:53:08.6	6.620	0.230	-0.740	-0.470
2020/01/31 20:53:08.7	6.630	0.200	-0.740	-0.500
2020/01/31 20:53:08.8	6.640	0.180	-0.730	-0.540
2020/01/31 20:53:08.9	6.650	0.150	-0.710	-0.580
2020/01/31 20:53:09.0	6.650	0.120	-0.700	-0.610
2020/01/31 20:53:09.1	6.670	0.090	-0.680	-0.650
2020/01/31 20:53:09.2	6.680	0.050	-0.660	-0.680
2020/01/31 20:53:09.3	6.700	0.020	-0.630	-0.720
2020/01/31 20:53:09.4	6.720	-0.010	-0.600	-0.750
2020/01/31 20:53:09.5	6.740	-0.050	-0.570	-0.780
2020/01/31 20:53:09.6	6.760	-0.080	-0.540	-0.810
2020/01/31 20:53:09.7	6.780	-0.110	-0.500	-0.830
2020/01/31 20:53:09.8	6.800	-0.140	-0.470	-0.860
2020/01/31 20:53:09.9	6.820	-0.170	-0.430	-0.880
2020/01/31 20:53:10.0	6.830	-0.190	-0.390	-0.900
2020/01/31 20:53:10.1	6.850	-0.220	-0.350	-0.910
2020/01/31 20:53:10.2	6.870	-0.240	-0.300	-0.920
2020/01/31 20:53:10.3	6.890	-0.260	-0.260	-0.920
2020/01/31 20:53:10.4	6.910	-0.270	-0.210	-0.920
2020/01/31 20:53:10.5	6.930	-0.280	-0.160	-0.920
2020/01/31 20:53:10.6	6.950	-0.290	-0.110	-0.910
2020/01/31 20:53:10.7	6.960	-0.290	-0.070	-0.890
2020/01/31 20:53:10.8	6.980	-0.290	-0.020	-0.870
2020/01/31 20:53:10.9	6.990	-0.290	0.030	-0.850
2020/01/31 20:53:11.0	7.000	-0.280	0.080	-0.810
2020/01/31 20:53:11.1	7.000	-0.270	0.130	-0.770
2020/01/31 20:53:11.2	7.010	-0.260	0.180	-0.730
2020/01/31 20:53:11.3	7.010	-0.250	0.230	-0.690
2020/01/31 20:53:11.4	7.000	-0.230	0.270	-0.640
2020/01/31 20:53:11.5	7.000	-0.210	0.320	-0.590
2020/01/31 20:53:11.6	6.990	-0.190	0.360	-0.530
2020/01/31 20:53:11.7	6.980	-0.170	0.400	-0.480
2020/01/31 20:53:11.8	6.970	-0.150	0.440	-0.420
2020/01/31 20:53:11.9	6.960	-0.120	0.470	-0.360
2020/01/31 20:53:12.0	6.940	-0.100	0.500	-0.290
2020/01/31 20:53:12.1	6.930	-0.080	0.530	-0.230
2020/01/31 20:53:12.2	6.910	-0.050	0.550	-0.170
2020/01/31 20:53:12.3	6.890	-0.030	0.570	-0.100
2020/01/31 20:53:12.4	6.870	-0.010	0.580	-0.040
2020/01/31 20:53:12.5	6.850	0.010	0.590	0.020
2020/01/31 20:53:12.6	6.830	0.030	0.590	0.080
2020/01/31 20:53:12.7	6.810	0.050	0.590	0.130
2020/01/31 20:53:12.8	6.780	0.070	0.580	0.190
2020/01/31 20:53:12.9	6.760	0.090	0.570	0.240
2020/01/31 20:53:13.0	6.740	0.100	0.540	0.300
2020/01/31 20:53:13.1	6.720	0.110	0.520	0.340
2020/01/31 20:53:13.2	6.690	0.120	0.490	0.390
2020/01/31 20:53:13.3	6.670	0.130	0.450	0.430
2020/01/31 20:53:13.4	6.650	0.130	0.410	0.470
2020/01/31 20:53:13.5	6.620	0.130	0.370	0.500
2020/01/31 20:53:13.6	6.600	0.140	0.320	0.530
2020/01/31 20:53:13.7	6.580	0.130	0.260	0.560
2020/01/31 20:53:13.8	6.560	0.130	0.210	0.580
2020/01/31 20:53:13.9	6.530	0.120	0.150	0.590
2020/01/31 20:53:14.0	6.510	0.120	0.090	0.610
2020/01/31 20:53:14.1	6.490	0.110	0.020	0.610
2020/01/31 20:53:14.2	6.470	0.090	-0.040	0.610
2020/01/31 20:53:14.3	6.450	0.080	-0.110	0.600
2020/01/31 20:53:14.4	6.430	0.070	-0.180	0.590
2020/01/31 20:53:14.5	6.410	0.050	-0.240	0.570
2020/01/31 20:53:14.6	6.400	0.030	-0.310	0.550
2020/01/31 20:53:14.7	6.380	0.020	-0.380	0.520
2020/01/31 20:53:14.8	6.370	-0.000	-0.440	0.490
2020/01/31 20:53:14.9	6.360	-0.020	-0.500	0.460
2020/01/31 20:53:15.0	6.350	-0.040	-0.570	0.420
2020/01/31 20:53:15.1	6.340	-0.060	-0.620	0.380
2020/01/31 20:53:15.2	6.340	-0.070	-0.680	0.340
2020/01/31 20:53:15.3	6.340	-0.090	-0.730	0.290
2020/01/31 20:53:15.4	6.340	-0.100	-0.780	0.240
2020/01/31 20:53:15.5	6.340	-0.120	-0.820	0.200
2020/01/31 20:53:15.6	6.340	-0.130	-0.860	0.150
2020/01/31 20:53:15.7	6.350	-0.140	-0.890	0.100
2020/01/31 20:53:15.8	6.360	-0.150	-0.920	0.050
2020/01/31 20:53:15.9	6.370	-0.150	-0.950	-0.000
2020/01/31 20:53:16.0	6.400	-0.160	-0.970	-0.050
2020/01/31 20:53:16.1	6.420	-0.160	-0.990	-0.100
2020/01/31 20:53:16.2	6.440	-0.160	-1.000	-0.150
2020/01/31 20:53:16.3	6.460	-0.150	-1.010	-0.200
2020/01/31 20:53:16.4	6.490	-0.150	-1.020	-0.250
2020/01/31 20:53:16.5	6.510	-0.140	-1.020	-0.300
2020/01/31 20:53:16.6	6.540	-0.130	-1.020	-0.340
2020/01/31 20:53:16.7	6.570	-0.120	-1.020	-0.380
2020/01/31 20:53:16.8	6.610	-0.100	-1.010	-0.430
2020/01/31 20:53:16.9	6.640	-0.090	-0.990	-0.470
2020/01/31 20:53:17.0	6.680	-0.070	-0.980	-0.500
2020/01/31 20:53:17.1	6.720	-0.050	-0.960	-0.540
2020/01/31 20:53:17.2	6.760	-0.030	-0.940	-0.570
2020/01/31 20:53:17.3	6.790	-0.010	-0.910	-0.600
2020/01/31 20:53:17.4	6.830	0.010	-0.880	-0.620
2020/01/31 20:53:17.5	6.860	0.040	-0.850	-0.640
2020/01/31 20:53:17.6	6.900	0.060	-0.820	-0.660
2020/01/31 20:53:17.7	6.930	0.080	-0.780	-0.680
2020/01/31 20:53:17.8	6.970	0.110	-0.740	-0.690
2020/01/31 20:53:17.9	7.000	0.130	-0.700	-0.690
2020/01/31 20:53:18.0	7.020	0.150	-0.650	-0.700
2020/01/31 20:53:18.1	7.050	0.170	-0.610	-0.700
2020/01/31 20:53:18.2	7.080	0.190	-0.560	-0.690
2020/01/31 20:53:18.3	7.100	0.210	-0.510	-0.680
2020/01/31 20:53:18.4	7.120	0.220	-0.470	-0.670
2020/01/31 20:53:18.5	7.140	0.240	-0.420	-0.650
2020/01/31 20:53:18.6	7.160	0.250	-0.370	-0.630
2020/01/31 20:53:18.7	7.170	0.260	-0.330	-0.610
2020/01/31 20:53:18.8	7.190	0.270	-0.280	-0.590
2020/01/31 20:53:18.9	7.200	0.280	-0.240	-0.560
2020/01/31 20:53:19.0	7.190	0.280	-0.200	-0.530
2020/01/31 20:53:19.1	7.200	0.280	-0.160	-0.510
2020/01/31 20:53:19.2	7.210	0.280	-0.120	-0.480
2020/01/31 20:53:19.3	7.220	0.280	-0.080	-0.450
2020/01/31 20:53:19.4	7.220	0.280	-0.050	-0.420
2020/01/31 20:53:19.5	7.230	0.270	-0.020	-0.400
2020/01/31 20:53:19.6	7.230	0.270	-0.000	-0.370
2020/01/31 20:53:19.7	7.240	0.260	0.020	-0.350
2020/01/31 20:53:19.8	7.240	0.250	0.030	-0.320
2020/01/31 20:53:19.9	7.240	0.230	0.050	-0.300
2020/01/31 20:53:20.0	7.250	0.220	0.050	-0.280
2020/01/31 20:53:20.1	7.250	0.210	0.060	-0.250
2020/01/31 20:53:20.2	7.250	0.190	0.050	-0.230
2020/01/31 20:53:20.3	7.250	0.170	0.050	-0.210
2020/01/31 20:53:20.4	7.250	0.160	0.040	-0.190
2020/01/31 20:53:20.5	7.250	0.140	0.030	-0.180
2020/01/31 20:53:20.6	7.240	0.120	0.010	-0.160
2020/01/31 20:53:20.7	7.240	0.100	-0.000	-0.140
2020/01/31 20:53:20.8	7.230	0.090	-0.020	-0.130
2020/01/31 20:53:20.9	7.230	0.070	-0.050	-0.120
2020/01/31 20:53:21.0	7.230	0.050	-0.070	-0.100
2020/01/31 20:53:21.1	7.230	0.030	-0.090	-0.090
2020/01/31 20:53:21.2	7.220	0.020	-0.120	-0.080
2020/01/31 20:53:21.3	7.210	-0.000	-0.140	-0.070
2020/01/31 20:53:21.4	7.200	-0.020	-0.170	-0.050
2020/01/31 20:53:21.5	7.190	-0.030	-0.190	-0.040
2020/01/31 20:53:21.6	7.170	-0.050	-0.210	-0.040
2020/01/31 20:53:21.7	7.160	-0.060	-0.230	-0.030
2020/01/31 20:53:21.8	7.150	-0.070	-0.250	-0.020
2020/01/31 20:53:21.9	7.130	-0.090	-0.270	-0.010
2020/01/31 20:53:22.0	7.110	-0.100	-0.280	-0.010
2020/01/31 20:53:22.1	7.100	-0.110	-0.290	0.000
2020/01/31 20:53:22.2	7.080	-0.120	-0.300	0.010
2020/01/31 20:53:22.3	7.070	-0.130	-0.300	0.010
2020/01/31 20:53:22.4	7.060	-0.130	-0.300	0.010
2020/01/31 20:53:22.5	7.040	-0.140	-0.290	0.020
2020/01/31 20:53:22.6	7.030	-0.150	-0.280	0.020
2020/01/31 20:53:22.7	7.010	-0.150	-0.270	0.020
2020/01/31 20:53:22.8	7.000	-0.160	-0.250	0.020
2020/01/31 20:53:22.9	6.990	-0.160	-0.230	0.020
2020/01/31 20:53:23.0	6.980	-0.160	-0.210	0.020
2020/01/31 20:53:23.1	6.970	-0.160	-0.190	0.020
2020/01/31 20:53:23.2	6.960	-0.160	-0.160	0.020
2020/01/31 20:53:23.3	6.950	-0.160	-0.130	0.020
2020/01/31 20:53:23.4	6.940	-0.160	-0.100	0.020
2020/01/31 20:53:23.5	6.940	-0.150	-0.060	0.020
2020/01/31 20:53:23.6	6.930	-0.150	-0.030	0.010
2020/01/31 20:53:23.7	6.920	-0.140	0.010	0.010
2020/01/31 20:53:23.8	6.920	-0.140	0.040	0.010
2020/01/31 20:53:23.9	6.910	-0.130	0.070	0.010
2020/01/31 20:53:24.0	6.900	-0.130	0.110	0.010
2020/01/31 20:53:24.1	6.890	-0.120	0.140	0.010
2020/01/31 20:53:24.2	6.880	-0.110	0.170	0.010
2020/01/31 20:53:24.3	6.880	-0.100	0.190	0.010
2020/01/31 20:53:24.4	6.870	-0.090	0.220	0.010
2020/01/31 20:53:24.5	6.870	-0.090	0.240	0.010
2020/01/31 20:53:24.6	6.860	-0.080	0.260	0.010
2020/01/31 20:53:24.7	6.850	-0.070	0.270	0.010
2020/01/31 20:53:24.8	6.840	-0.060	0.280	0.010
2020/01/31 20:53:24.9	6.830	-0.060	0.290	0.010
2020/01/31 20:53:25.0	6.830	-0.050	0.290	0.010
2020/01/31 20:53:25.1	6.810	-0.040	0.290	0.010
2020/01/31 20:53:25.2	6.800	-0.040	0.280	0.010
2020/01/31 20:53:25.3	6.790	-0.030	0.270	0.000
2020/01/31 20:53:25.4	6.770	-0.030	0.250	-0.010
2020/01/31 20:53:25.5	6.760	-0.030	0.230	-0.020
2020/01/31 20:53:25.6	6.740	-0.020	0.210	-0.030
2020/01/31 20:53:25.7	6.720	-0.020	0.180	-0.040
2020/01/31 20:53:25.8	6.700	-0.020	0.140	-0.050
2020/01/31 20:53:25.9	6.690	-0.020	0.110	-0.070
2020/01/31 20:53:26.0	6.680	-0.020	0.060	-0.080
2020/01/31 20:53:26.1	6.660	-0.020	0.020	-0.100
2020/01/31 20:53:26.2	6.640	-0.020	-0.030	-0.120
2020/01/31 20:53:26.3	6.620	-0.020	-0.080	-0.140
2020/01/31 20:53:26.4	6.610	-0.020	-0.140	-0.160
2020/01/31 20:53:26.5	6.590	-0.020	-0.190	-0.180
2020/01/31 20:53:26.6	6.570	-0.020	-0.250	-0.200
2020/01/31 20:53:26.7	6.550	-0.020	-0.310	-0.220
2020/01/31 20:53:26.8	6.540	-0.020	-0.370	-0.250
2020/01/31 20:53:26.9	6.520	-0.020	-0.440	-0.270
2020/01/31 20:53:27.0	6.500	-0.020	-0.500	-0.300
2020/01/31 20:53:27.1	6.480	-0.020	-0.560	-0.320
2020/01/31 20:53:27.2	6.480	-0.020	-0.620	-0.350
2020/01/31 20:53:27.3	6.470	-0.020	-0.670	-0.380
2020/01/31 20:53:27.4	6.460	-0.020	-0.730	-0.410
2020/01/31 20:53:27.5	6.460	-0.010	-0.780	-0.440
2020/01/31 20:53:27.6	6.450	-0.010	-0.830	-0.470
2020/01/31 20:53:27.7	6.450	-0.010	-0.870	-0.500
2020/01/31 20:53:27.8	6.450	-0.010	-0.910	-0.530
2020/01/31 20:53:27.9	6.460	-0.000	-0.940	-0.550
2020/01/31 20:53:28.0	6.450	0.000	-0.960	-0.580
2020/01/31 20:53:28.1	6.460	0.010	-0.980	-0.610
2020/01/31 20:53:28.2	6.470	0.010	-0.990	-0.630
2020/01/31 20:53:28.3	6.470	0.020	-1.000	-0.650
2020/01/31 20:53:28.4	6.480	0.020	-0.990	-0.670
2020/01/31 20:53:28.5	6.490	0.020	-0.980	-0.690
2020/01/31 20:53:28.6	6.500	0.030	-0.960	-0.700
2020/01/31 20:53:28.7	6.510	0.030	-0.930	-0.710
2020/01/31 20:53:28.8	6.520	0.030	-0.890	-0.720
2020/01/31 20:53:28.9	6.530	0.030	-0.840	-0.720
2020/01/31 20:53:29.0	6.530	0.030	-0.790	-0.720
2020/01/31 20:53:29.1	6.530	0.030	-0.730	-0.710
2020/01/31 20:53:29.2	6.540	0.030	-0.670	-0.700
2020/01/31 20:53:29.3	6.550	0.030	-0.600	-0.690
2020/01/31 20:53:29.4	6.560	0.020	-0.520	-0.670
2020/01/31 20:53:29.5	6.560	0.020	-0.440	-0.650
2020/01/31 20:53:29.6	6.570	0.010	-0.350	-0.630
2020/01/31 20:53:29.7	6.580	0.010	-0.270	-0.600
2020/01/31 20:53:29.8	6.580	-0.000	-0.180	-0.570
2020/01/31 20:53:29.9	6.590	-0.010	-0.100	-0.530
2020/01/31 20:53:30.0	6.590	-0.020	-0.020	-0.500
2020/01/31 20:53:30.1	6.600	-0.030	0.060	-0.460
2020/01/31 20:53:30.2	6.610	-0.040	0.140	-0.420
2020/01/31 20:53:30.3	6.610	-0.050	0.210	-0.380
2020/01/31 20:53:30.4	6.620	-0.060	0.280	-0.340
2020/01/31 20:53:30.5	6.630	-0.070	0.340	-0.300
2020/01/31 20:53:30.6	6.640	-0.080	0.390	-0.260
2020/01/31 20:53:30.7	6.660	-0.090	0.430	-0.220
2020/01/31 20:53:30.8	6.670	-0.100	0.470	-0.190
2020/01/31 20:53:30.9	6.680	-0.110	0.490	-0.150
2020/01/31 20:53:31.0	6.700	-0.110	0.510	-0.110
2020/01/31 20:53:31.1	6.710	-0.120	0.520	-0.080
2020/01/31 20:53:31.2	6.730	-0.120	0.510	-0.050
2020/01/31 20:53:31.3	6.740	-0.120	0.500	-0.010
2020/01/31 20:53:31.4	6.750	-0.120	0.480	0.020
2020/01/31 20:53:31.5	6.760	-0.120	0.450	0.040
2020/01/31 20:53:31.6	6.760	-0.120	0.410	0.070
2020/01/31 20:53:31.7	6.770	-0.110	0.360	0.090
2020/01/31 20:53:31.8	6.770	-0.110	0.300	0.120
2020/01/31 20:53:31.9	6.780	-0.100	0.230	0.140
2020/01/31 20:53:32.0	6.790	-0.080	0.160	0.160
2020/01/31 20:53:32.1	6.800	-0.070	0.080	0.170
2020/01/31 20:53:32.2	6.800	-0.050	-0.000	0.190
2020/01/31 20:53:32.3	6.800	-0.040	-0.090	0.200
2020/01/31 20:53:32.4	6.800	-0.020	-0.190	0.200
2020/01/31 20:53:32.5	6.800	0.010	-0.280	0.210
2020/01/31 20:53:32.6	6.810	0.030	-0.380	0.210
2020/01/31 20:53:32.7	6.810	0.050	-0.480	0.200
2020/01/31 20:53:32.8	6.810	0.080	-0.580	0.200
2020/01/31 20:53:32.9	6.820	0.110	-0.680	0.190
2020/01/31 20:53:33.0	6.810	0.140	-0.770	0.170
2020/01/31 20:53:33.1	6.820	0.160	-0.870	0.160
2020/01/31 20:53:33.2	6.830	0.190	-0.960	0.140
2020/01/31 20:53:33.3	6.830	0.220	-1.040	0.120
2020/01/31 20:53:33.4	6.840	0.250	-1.120	0.100
2020/01/31 20:53:33.5	6.840	0.280	-1.200	0.080
2020/01/31 20:53:33.6	6.850	0.300	-1.260	0.050
2020/01/31 20:53:33.7	6.850	0.330	-1.320	0.030
2020/01/31 20:53:33.8	6.860	0.350	-1.360	0.000
2020/01/31 20:53:33.9	6.860	0.380	-1.400	-0.020
2020/01/31 20:53:34.0	6.870	0.400	-1.430	-0.050
2020/01/31 20:53:34.1	6.870	0.410	-1.440	-0.070
2020/01/31 20:53:34.2	6.870	0.430	-1.450	-0.100
2020/01/31 20:53:34.3	6.870	0.440	-1.440	-0.120
2020/01/31 20:53:34.4	6.870	0.450	-1.430	-0.150
2020/01/31 20:53:34.5	6.880	0.450	-1.400	-0.170
2020/01/31 20:53:34.6	6.880	0.450	-1.360	-0.200
2020/01/31 20:53:34.7	6.880	0.450	-1.310	-0.220
2020/01/31 20:53:34.8	6.880	0.450	-1.250	-0.240
2020/01/31 20:53:34.9	6.880	0.440	-1.180	-0.260
2020/01/31 20:53:35.0	6.880	0.430	-1.110	-0.280
2020/01/31 20:53:35.1	6.880	0.410	-1.020	-0.300
2020/01/31 20:53:35.2	6.890	0.390	-0.930	-0.310
2020/01/31 20:53:35.3	6.890	0.370	-0.830	-0.330
2020/01/31 20:53:35.4	6.900	0.340	-0.730	-0.340
2020/01/31 20:53:35.5	6.900	0.320	-0.620	-0.350
2020/01/31 20:53:35.6	6.910	0.290	-0.510	-0.360
2020/01/31 20:53:35.7	6.920	0.260	-0.400	-0.370
2020/01/31 20:53:35.8	6.930	0.220	-0.280	-0.370
2020/01/31 20:53:35.9	6.930	0.190	-0.170	-0.380
2020/01/31 20:53:36.0	6.940	0.150	-0.060	-0.380
2020/01/31 20:53:36.1	6.950	0.110	0.050	-0.380
2020/01/31 20:53:36.2	6.960	0.070	0.160	-0.380
2020/01/31 20:53:36.3	6.970	0.030	0.260	-0.380
2020/01/31 20:53:36.4	6.980	-0.010	0.370	-0.370
2020/01/31 20:53:36.5	6.980	-0.050	0.460	-0.360
2020/01/31 20:53:36.6	6.990	-0.090	0.550	-0.350
2020/01/31 20:53:36.7	6.990	-0.130	0.640	-0.340
2020/01/31 20:53:36.8	7.000	-0.170	0.720	-0.330
2020/01/31 20:53:36.9	7.000	-0.210	0.790	-0.320
2020/01/31 20:53:37.0	6.990	-0.240	0.850	-0.300
2020/01/31 20:53:37.1	6.990	-0.280	0.910	-0.280
2020/01/31 20:53:37.2	6.980	-0.320	0.970	-0.260
2020/01/31 20:53:37.3	6.970	-0.350	1.010	-0.240
2020/01/31 20:53:37.4	6.960	-0.380	1.050	-0.220
2020/01/31 20:53:37.5	6.950	-0.410	1.080	-0.190
2020/01/31 20:53:37.6	6.930	-0.440	1.110	-0.160
2020/01/31 20:53:37.7	6.910	-0.470	1.130	-0.130
2020/01/31 20:53:37.8	6.890	-0.500	1.140	-0.100
2020/01/31 20:53:37.9	6.860	-0.520	1.150	-0.070
2020/01/31 20:53:38.0	6.860	-0.540	1.150	-0.020
2020/01/31 20:53:38.1	6.820	-0.560	1.140	0.020
2020/01/31 20:53:38.2	6.790	-0.580	1.130	0.060
2020/01/31 20:53:38.3	6.750	-0.590	1.110	0.100
2020/01/31 20:53:38.4	6.700	-0.610	1.090	0.150
2020/01/31 20:53:38.5	6.650	-0.620	1.060	0.200
2020/01/31 20:53:38.6	6.610	-0.630	1.020	0.250
2020/01/31 20:53:38.7	6.550	-0.630	0.980	0.310
2020/01/31 20:53:38.8	6.500	-0.630	0.940	0.360
2020/01/31 20:53:38.9	6.450	-0.630	0.890	0.410
2020/01/31 20:53:39.0	6.410	-0.630	0.830	0.470
2020/01/31 20:53:39.1	6.350	-0.630	0.780	0.520
2020/01/31 20:53:39.2	6.300	-0.620	0.710	0.570
2020/01/31 20:53:39.3	6.250	-0.610	0.640	0.620
2020/01/31 20:53:39.4	6.200	-0.590	0.570	0.670
2020/01/31 20:53:39.5	6.150	-0.570	0.490	0.710
2020/01/31 20:53:39.6	6.110	-0.550	0.410	0.750
2020/01/31 20:53:39.7	6.060	-0.530	0.330	0.780
2020/01/31 20:53:39.8	6.030	-0.500	0.230	0.810
2020/01/31 20:53:39.9	5.990	-0.470	0.140	0.830
2020/01/31 20:53:40.0	5.970	-0.440	0.040	0.840
2020/01/31 20:53:40.1	5.950	-0.400	-0.060	0.850
2020/01/31 20:53:40.2	5.930	-0.360	-0.160	0.850
2020/01/31 20:53:40.3	5.920	-0.310	-0.270	0.840
2020/01/31 20:53:40.4	5.910	-0.270	-0.380	0.830
2020/01/31 20:53:40.5	5.900	-0.220	-0.500	0.810
2020/01/31 20:53:40.6	5.910	-0.170	-0.610	0.780
2020/01/31 20:53:40.7	5.910	-0.110	-0.720	0.750
2020/01/31 20:53:40.8	5.920	-0.050	-0.830	0.710
2020/01/31 20:53:40.9	5.930	0.010	-0.940	0.670
2020/01/31 20:53:41.0	5.940	0.070	-1.050	0.620
2020/01/31 20:53:41.1	5.960	0.130	-1.150	0.580
2020/01/31 20:53:41.2	5.980	0.190	-1.250	0.530
2020/01/31 20:53:41.3	6.000	0.250	-1.340	0.480
2020/01/31 20:53:41.4	6.030	0.310	-1.430	0.430
2020/01/31 20:53:41.5	6.060	0.370	-1.510	0.380
2020/01/31 20:53:41.6	6.090	0.420	-1.580	0.320
2020/01/31 20:53:41.7	6.120	0.480	-1.640	0.270
2020/01/31 20:53:41.8	6.150	0.530	-1.700	0.220
2020/01/31 20:53:41.9	6.180	0.580	-1.740	0.160
2020/01/31 20:53:42.0	6.220	0.620	-1.780	0.110
2020/01/31 20:53:42.1	6.250	0.660	-1.810	0.060
2020/01/31 20:53:42.2	6.280	0.700	-1.820	0.010
2020/01/31 20:53:42.3	6.310	0.730	-1.830	-0.040
2020/01/31 20:53:42.4	6.340	0.750	-1.830	-0.090
2020/01/31 20:53:42.5	6.370	0.770	-1.810	-0.140
2020/01/31 20:53:42.6	6.400	0.780	-1.790	-0.180
2020/01/31 20:53:42.7	6.420	0.790	-1.760	-0.230
2020/01/31 20:53:42.8	6.450	0.790	-1.720	-0.270
2020/01/31 20:53:42.9	6.480	0.790	-1.670	-0.310
2020/01/31 20:53:43.0	6.490	0.770	-1.620	-0.360
2020/01/31 20:53:43.1	6.520	0.760	-1.560	-0.400
2020/01/31 20:53:43.2	6.550	0.730	-1.490	-0.430
2020/01/31 20:53:43.3	6.580	0.700	-1.410	-0.470
2020/01/31 20:53:43.4	6.610	0.670	-1.330	-0.500
2020/01/31 20:53:43.5	6.640	0.630	-1.250	-0.530
2020/01/31 20:53:43.6	6.670	0.590	-1.160	-0.560
2020/01/31 20:53:43.7	6.700	0.540	-1.070	-0.590
2020/01/31 20:53:43.8	6.730	0.480	-0.980	-0.620
2020/01/31 20:53:43.9	6.760	0.430	-0.890	-0.650
2020/01/31 20:53:44.0	6.790	0.370	-0.800	-0.670
2020/01/31 20:53:44.1	6.820	0.300	-0.710	-0.700
2020/01/31 20:53:44.2	6.850	0.240	-0.610	-0.720
2020/01/31 20:53:44.3	6.890	0.170	-0.520	-0.740
2020/01/31 20:53:44.4	6.920	0.100	-0.430	-0.760
2020/01/31 20:53:44.5	6.950	0.030	-0.340	-0.780
2020/01/31 20:53:44.6	6.980	-0.040	-0.250	-0.800
2020/01/31 20:53:44.7	7.010	-0.110	-0.170	-0.810
2020/01/31 20:53:44.8	7.040	-0.180	-0.080	-0.830
2020/01/31 20:53:44.9	7.060	-0.250	-0.000	-0.840
2020/01/31 20:53:45.0	7.080	-0.310	0.070	-0.850
2020/01/31 20:53:45.1	7.110	-0.380	0.150	-0.860
2020/01/31 20:53:45.2	7.130	-0.440	0.220	-0.860
2020/01/31 20:53:45.3	7.140	-0.500	0.290	-0.860
2020/01/31 20:53:45.4	7.160	-0.550	0.360	-0.860
2020/01/31 20:53:45.5	7.170	-0.610	0.420	-0.860
2020/01/31 20:53:45.6	7.180	-0.650	0.490	-0.850
2020/01/31 20:53:45.7	7.180	-0.690	0.540	-0.830
2020/01/31 20:53:45.8	7.190	-0.730	0.600	-0.810
2020/01/31 20:53:45.9	7.190	-0.760	0.650	-0.790
2020/01/31 20:53:46.0	7.180	-0.790	0.700	-0.760
2020/01/31 20:53:46.1	7.170	-0.810	0.740	-0.730
2020/01/31 20:53:46.2	7.160	-0.830	0.780	-0.690
2020/01/31 20:53:46.3	7.150	-0.830	0.820	-0.660
2020/01/31 20:53:46.4	7.140	-0.840	0.850	-0.610
2020/01/31 20:53:46.5	7.120	-0.840	0.880	-0.560
2020/01/31 20:53:46.6	7.090	-0.830	0.900	-0.510
2020/01/31 20:53:46.7	7.070	-0.810	0.910	-0.460
2020/01/31 20:53:46.8	7.040	-0.790	0.920	-0.400
2020/01/31 20:53:46.9	7.010	-0.770	0.930	-0.330
2020/01/31 20:53:47.0	6.980	-0.740	0.930	-0.270
2020/01/31 20:53:47.1	6.950	-0.700	0.930	-0.200
2020/01/31 20:53:47.2	6.910	-0.660	0.910	-0.130
2020/01/31 20:53:47.3	6.870	-0.620	0.900	-0.060
2020/01/31 20:53:47.4	6.830	-0.570	0.870	0.010
2020/01/31 20:53:47.5	6.790	-0.520	0.850	0.090
2020/01/31 20:53:47.6	6.740	-0.460	0.810	0.160
2020/01/31 20:53:47.7	6.690	-0.410	0.770	0.240
2020/01/31 20:53:47.8	6.640	-0.340	0.730	0.320
2020/01/31 20:53:47.9	6.590	-0.280	0.680	0.400
2020/01/31 20:53:48.0	6.540	-0.220	0.630	0.480
2020/01/31 20:53:48.1	6.480	-0.150	0.580	0.560
2020/01/31 20:53:48.2	6.430	-0.080	0.520	0.630
2020/01/31 20:53:48.3	6.380	-0.010	0.460	0.710
2020/01/31 20:53:48.4	6.330	0.060	0.390	0.780
2020/01/31 20:53:48.5	6.280	0.130	0.320	0.860
2020/01/31 20:53:48.6	6.230	0.190	0.260	0.920
2020/01/31 20:53:48.7	6.180	0.260	0.180	0.990
2020/01/31 20:53:48.8	6.140	0.330	0.110	1.050
2020/01/31 20:53:48.9	6.100	0.390	0.040	1.100
2020/01/31 20:53:49.0	6.070	0.450	-0.030	1.150
2020/01/31 20:53:49.1	6.030	0.510	-0.100	1.200
2020/01/31 20:53:49.2	6.000	0.570	-0.180	1.230
2020/01/31 20:53:49.3	5.970	0.620	-0.250	1.260
2020/01/31 20:53:49.4	5.950	0.670	-0.320	1.280
2020/01/31 20:53:49.5	5.930	0.720	-0.390	1.300
2020/01/31 20:53:49.6	5.910	0.760	-0.460	1.310
2020/01/31 20:53:49.7	5.900	0.800	-0.520	1.310
2020/01/31 20:53:49.8	5.890	0.830	-0.590	1.300
2020/01/31 20:53:49.9	5.880	0.860	-0.650	1.290
2020/01/31 20:53:50.0	5.890	0.890	-0.710	1.270
2020/01/31 20:53:50.1	5.890	0.910	-0.760	1.240
2020/01/31 20:53:50.2	5.900	0.920	-0.820	1.210
2020/01/31 20:53:50.3	5.910	0.930	-0.860	1.180
2020/01/31 20:53:50.4	5.920	0.930	-0.900	1.130
2020/01/31 20:53:50.5	5.930	0.930	-0.940	1.090
2020/01/31 20:53:50.6	5.940	0.920	-0.970	1.040
2020/01/31 20:53:50.7	5.960	0.910	-1.000	0.990
2020/01/31 20:53:50.8	5.980	0.890	-1.020	0.930
2020/01/31 20:53:50.9	5.990	0.870	-1.040	0.870
2020/01/31 20:53:51.0	6.020	0.840	-1.050	0.810
2020/01/31 20:53:51.1	6.040	0.800	-1.060	0.740
2020/01/31 20:53:51.2	6.070	0.760	-1.060	0.680
2020/01/31 20:53:51.3	6.090	0.720	-1.060	0.610
2020/01/31 20:53:51.4	6.120	0.670	-1.050	0.530
2020/01/31 20:53:51.5	6.150	0.620	-1.040	0.460
2020/01/31 20:53:51.6	6.180	0.560	-1.020	0.380
2020/01/31 20:53:51.7	6.210	0.510	-1.000	0.310
2020/01/31 20:53:51.8	6.240	0.440	-0.980	0.230
2020/01/31 20:53:51.9	6.270	0.380	-0.960	0.150
2020/01/31 20:53:52.0	6.290	0.310	-0.930	0.060
2020/01/31 20:53:52.1	6.320	0.250	-0.900	-0.020
2020/01/31 20:53:52.2	6.360	0.180	-0.860	-0.110
2020/01/31 20:53:52.3	6.400	0.110	-0.830	-0.190
2020/01/31 20:53:52.4	6.430	0.040	-0.800	-0.270
2020/01/31 20:53:52.5	6.470	-0.030	-0.760	-0.360
2020/01/31 20:53:52.6	6.500	-0.100	-0.720	-0.440
2020/01/31 20:53:52.7	6.540	-0.170	-0.680	-0.520
2020/01/31 20:53:52.8	6.570	-0.230	-0.640	-0.590
2020/01/31 20:53:52.9	6.610	-0.300	-0.600	-0.670
2020/01/31 20:53:53.0	6.620	-0.360	-0.560	-0.740
2020/01/31 20:53:53.1	6.650	-0.420	-0.520	-0.810
2020/01/31 20:53:53.2	6.680	-0.480	-0.480	-0.870
2020/01/31 20:53:53.3	6.710	-0.530	-0.430	-0.930
2020/01/31 20:53:53.4	6.730	-0.580	-0.390	-0.990
2020/01/31 20:53:53.5	6.760	-0.630	-0.340	-1.030
2020/01/31 20:53:53.6	6.780	-0.670	-0.290	-1.080
2020/01/31 20:53:53.7	6.800	-0.710	-0.250	-1.120
2020/01/31 20:53:53.8	6.820	-0.750	-0.200	-1.150
2020/01/31 20:53:53.9	6.840	-0.780	-0.150	-1.180
2020/01/31 20:53:54.0	6.860	-0.800	-0.110	-1.200
2020/01/31 20:53:54.1	6.870	-0.820	-0.060	-1.220
2020/01/31 20:53:54.2	6.890	-0.840	-0.020	-1.230
2020/01/31 20:53:54.3	6.900	-0.850	0.020	-1.240
2020/01/31 20:53:54.4	6.910	-0.860	0.060	-1.240
2020/01/31 20:53:54.5	6.920	-0.860	0.090	-1.240
2020/01/31 20:53:54.6	6.930	-0.860	0.130	-1.240
2020/01/31 20:53:54.7	6.940	-0.860	0.160	-1.230
2020/01/31 20:53:54.8	6.950	-0.850	0.190	-1.220
2020/01/31 20:53:54.9	6.960	-0.830	0.210	-1.210
2020/01/31 20:53:55.0	6.960	-0.810	0.230	-1.190
2020/01/31 20:53:55.1	6.970	-0.790	0.250	-1.170
2020/01/31 20:53:55.2	6.980	-0.770	0.260	-1.150
2020/01/31 20:53:55.3	6.980	-0.740	0.280	-1.120
2020/01/31 20:53:55.4	6.990	-0.710	0.280	-1.100
2020/01/31 20:53:55.5	6.990	-0.680	0.290	-1.070
2020/01/31 20:53:55.6	7.000	-0.640	0.290	-1.040
2020/01/31 20:53:55.7	7.000	-0.600	0.290	-1.010
2020/01/31 20:53:55.8	7.000	-0.560	0.290	-0.970
2020/01/31 20:53:55.9	7.010	-0.520	0.280	-0.940
2020/01/31 20:53:56.0	7.000	-0.480	0.270	-0.900
2020/01/31 20:53:56.1	7.010	-0.430	0.260	-0.860
2020/01/31 20:53:56.2	7.010	-0.390	0.250	-0.820
2020/01/31 20:53:56.3	7.010	-0.340	0.230	-0.780
2020/01/31 20:53:56.4	7.010	-0.300	0.210	-0.740
2020/01/31 20:53:56.5	7.000	-0.250	0.190	-0.690
2020/01/31 20:53:56.6	7.000	-0.200	0.170	-0.650
2020/01/31 20:53:56.7	7.000	-0.160	0.140	-0.600
2020/01/31 20:53:56.8	6.990	-0.110	0.120	-0.550
2020/01/31 20:53:56.9	6.990	-0.070	0.090	-0.500
2020/01/31 20:53:57.0	6.980	-0.030	0.060	-0.450
2020/01/31 20:53:57.1	6.970	0.010	0.030	-0.400
2020/01/31 20:53:57.2	6.960	0.060	-0.000	-0.340
2020/01/31 20:53:57.3	6.950	0.100	-0.030	-0.290
2020/01/31 20:53:57.4	6.940	0.130	-0.070	-0.240
2020/01/31 20:53:57.5	6.920	0.170	-0.100	-0.180
2020/01/31 20:53:57.6	6.910	0.200	-0.130	-0.130
2020/01/31 20:53:57.7	6.890	0.240	-0.170	-0.080
2020/01/31 20:53:57.8	6.880	0.270	-0.200	-0.020
2020/01/31 20:53:57.9	6.860	0.300	-0.230	0.030
2020/01/31 20:53:58.0	6.840	0.330	-0.270	0.080
2020/01/31 20:53:58.1	6.820	0.350	-0.300	0.120
2020/01/31 20:53:58.2	6.800	0.380	-0.330	0.170
2020/01/31 20:53:58.3	6.780	0.400	-0.360	0.210
2020/01/31 20:53:58.4	6.760	0.420	-0.390	0.250
2020/01/31 20:53:58.5	6.740	0.440	-0.410	0.290
2020/01/31 20:53:58.6	6.710	0.460	-0.440	0.330
2020/01/31 20:53:58.7	6.690	0.470	-0.460	0.370
2020/01/31 20:53:58.8	6.670	0.490	-0.480	0.400
2020/01/31 20:53:58.9	6.650	0.500	-0.500	0.430
2020/01/31 20:53:59.0	6.630	0.510	-0.520	0.460
2020/01/31 20:53:59.1	6.610	0.510	-0.530	0.480
2020/01/31 20:53:59.2	6.590	0.520	-0.540	0.500
2020/01/31 20:53:59.3	6.560	0.520	-0.550	0.520
2020/01/31 20:53:59.4	6.540	0.520	-0.560	0.540
2020/01/31 20:53:59.5	6.520	0.520	-0.560	0.550
2020/01/31 20:53:59.6	6.500	0.520	-0.570	0.560
2020/01/31 20:53:59.7	6.490	0.520	-0.570	0.570
2020/01/31 20:53:59.8	6.470	0.510	-0.570	0.580
2020/01/31 20:53:59.9	6.450	0.510	-0.570	0.580
2020/01/31 20:54:00.0	6.450	0.500	-0.570	0.580
2020/01/31 20:54:00.1	6.430	0.490	-0.560	0.580
2020/01/31 20:54:00.2	6.420	0.480	-0.560	0.570
2020/01/31 20:54:00.3	6.410	0.460	-0.550	0.570
2020/01/31 20:54:00.4	6.400	0.450	-0.540	0.560
2020/01/31 20:54:00.5	6.390	0.430	-0.530	0.550
2020/01/31 20:54:00.6	6.380	0.420	-0.520	0.530
2020/01/31 20:54:00.7	6.380	0.400	-0.510	0.520
2020/01/31 20:54:00.8	6.370	0.380	-0.500	0.500
2020/01/31 20:54:00.9	6.370	0.360	-0.480	0.480
2020/01/31 20:54:01.0	6.360	0.340	-0.470	0.460
2020/01/31 20:54:01.1	6.360	0.310	-0.450	0.430
2020/01/31 20:54:01.2	6.360	0.290	-0.440	0.410
2020/01/31 20:54:01.3	6.360	0.260	-0.430	0.380
2020/01/31 20:54:01.4	6.360	0.240	-0.410	0.350
2020/01/31 20:54:01.5	6.370	0.210	-0.400	0.310
2020/01/31 20:54:01.6	6.370	0.190	-0.380	0.280
2020/01/31 20:54:01.7	6.380	0.160	-0.370	0.240
2020/01/31 20:54:01.8	6.380	0.140	-0.350	0.200
2020/01/31 20:54:01.9	6.390	0.110	-0.340	0.160
2020/01/31 20:54:02.0	6.410	0.090	-0.330	0.110
2020/01/31 20:54:02.1	6.420	0.060	-0.320	0.060
2020/01/31 20:54:02.2	6.430	0.030	-0.310	0.020
2020/01/31 20:54:02.3	6.450	0.010	-0.300	-0.030
2020/01/31 20:54:02.4	6.470	-0.010	-0.290	-0.080
2020/01/31 20:54:02.5	6.490	-0.040	-0.280	-0.130
2020/01/31 20:54:02.6	6.510	-0.060	-0.270	-0.180
2020/01/31 20:54:02.7	6.530	-0.080	-0.270	-0.230
2020/01/31 20:54:02.8	6.550	-0.100	-0.260	-0.280
2020/01/31 20:54:02.9	6.580	-0.130	-0.260	-0.330
2020/01/31 20:54:03.0	6.610	-0.140	-0.250	-0.380
2020/01/31 20:54:03.1	6.640	-0.160	-0.250	-0.430
2020/01/31 20:54:03.2	6.670	-0.180	-0.250	-0.480
2020/01/31 20:54:03.3	6.690	-0.200	-0.250	-0.530
2020/01/31 20:54:03.4	6.720	-0.210	-0.250	-0.570
2020/01/31 20:54:03.5	6.750	-0.230	-0.250	-0.620
2020/01/31 20:54:03.6	6.770	-0.240	-0.260	-0.660
2020/01/31 20:54:03.7	6.800	-0.250	-0.260	-0.700
2020/01/31 20:54:03.8	6.830	-0.260	-0.260	-0.740
2020/01/31 20:54:03.9	6.860	-0.270	-0.260	-0.770
2020/01/31 20:54:04.0	6.890	-0.270	-0.270	-0.810
2020/01/31 20:54:04.1	6.920	-0.280	-0.270	-0.840
2020/01/31 20:54:04.2	6.950	-0.280	-0.280	-0.870
2020/01/31 20:54:04.3	6.970	-0.280	-0.280	-0.890
2020/01/31 20:54:04.4	7.000	-0.280	-0.290	-0.910
2020/01/31 20:54:04.5	7.020	-0.280	-0.290	-0.920
2020/01/31 20:54:04.6	7.050	-0.280	-0.300	-0.940
2020/01/31 20:54:04.7	7.070	-0.270	-0.300	-0.940
2020/01/31 20:54:04.8	7.090	-0.270	-0.300	-0.940
2020/01/31 20:54:04.9	7.100	-0.260	-0.300	-0.940
2020/01/31 20:54:05.0	7.120	-0.250	-0.300	-0.940
2020/01/31 20:54:05.1	7.130	-0.240	-0.300	-0.930
2020/01/31 20:54:05.2	7.140	-0.230	-0.300	-0.920
2020/01/31 20:54:05.3	7.150	-0.220	-0.300	-0.910
2020/01/31 20:54:05.4	7.160	-0.210	-0.290	-0.890
2020/01/31 20:54:05.5	7.170	-0.200	-0.290	-0.880
2020/01/31 20:54:05.6	7.180	-0.190	-0.280	-0.860
2020/01/31 20:54:05.7	7.180	-0.180	-0.270	-0.840
2020/01/31 20:54:05.8	7.180	-0.160	-0.260	-0.820
2020/01/31 20:54:05.9	7.190	-0.150	-0.250	-0.800
2020/01/31 20:54:06.0	7.170	-0.140	-0.240	-0.780
2020/01/31 20:54:06.1	7.180	-0.120	-0.220	-0.760
2020/01/31 20:54:06.2	7.170	-0.110	-0.210	-0.730
2020/01/31 20:54:06.3	7.170	-0.100	-0.190	-0.700
2020/01/31 20:54:06.4	7.170	-0.080	-0.170	-0.670
2020/01/31 20:54:06.5	7.160	-0.070	-0.150	-0.640
2020/01/31 20:54:06.6	7.160	-0.060	-0.130	-0.610
2020/01/31 20:54:06.7	7.150	-0.040	-0.110	-0.580
2020/01/31 20:54:06.8	7.140	-0.030	-0.090	-0.540
2020/01/31 20:54:06.9	7.130	-0.020	-0.070	-0.500
2020/01/31 20:54:07.0	7.100	-0.010	-0.040	-0.460
2020/01/31 20:54:07.1	7.090	-0.000	-0.020	-0.420
2020/01/31 20:54:07.2	7.070	0.010	0.010	-0.370
2020/01/31 20:54:07.3	7.060	0.010	0.030	-0.330
2020/01/31 20:54:07.4	7.040	0.010	0.050	-0.280
2020/01/31 20:54:07.5	7.020	0.020	0.080	-0.240
2020/01/31 20:54:07.6	7.000	0.020	0.100	-0.190
2020/01/31 20:54:07.7	6.980	0.020	0.120	-0.150
2020/01/31 20:54:07.8	6.950	0.010	0.130	-0.110
2020/01/31 20:54:07.9	6.930	0.010	0.150	-0.070
2020/01/31 20:54:08.0	6.900	0.000	0.160	-0.040
2020/01/31 20:54:08.1	6.880	-0.010	0.170	-0.010
2020/01/31 20:54:08.2	6.850	-0.020	0.180	0.020
2020/01/31 20:54:08.3	6.830	-0.030	0.190	0.050
2020/01/31 20:54:08.4	6.810	-0.040	0.200	0.070
2020/01/31 20:54:08.5	6.790	-0.060	0.200	0.080
2020/01/31 20:54:08.6	6.770	-0.070	0.200	0.090
2020/01/31 20:54:08.7	6.750	-0.090	0.200	0.100
2020/01/31 20:54:08.8	6.730	-0.100	0.190	0.110
2020/01/31 20:54:08.9	6.720	-0.120	0.190	0.110
2020/01/31 20:54:09.0	6.710	-0.130	0.180	0.100
2020/01/31 20:54:09.1	6.690	-0.150	0.170	0.100
2020/01/31 20:54:09.2	6.680	-0.160	0.150	0.090
2020/01/31 20:54:09.3	6.670	-0.170	0.130	0.070
2020/01/31 20:54:09.4	6.660	-0.190	0.110	0.060
2020/01/31 20:54:09.5	6.660	-0.200	0.090	0.050
2020/01/31 20:54:09.6	6.650	-0.210	0.070	0.030
2020/01/31 20:54:09.7	6.640	-0.210	0.040	0.020
2020/01/31 20:54:09.8	6.640	-0.220	0.020	0.000
2020/01/31 20:54:09.9	6.630	-0.220	-0.010	-0.020
2020/01/31 20:54:10.0	6.650	-0.220	-0.040	-0.030
2020/01/31 20:54:10.1	6.650	-0.220	-0.070	-0.050
2020/01/31 20:54:10.2	6.650	-0.210	-0.100	-0.060
2020/01/31 20:54:10.3	6.640	-0.200	-0.130	-0.080
2020/01/31 20:54:10.4	6.640	-0.190	-0.160	-0.090
2020/01/31 20:54:10.5	6.640	-0.180	-0.200	-0.100
2020/01/31 20:54:10.6	6.640	-0.160	-0.230	-0.110
2020/01/31 20:54:10.7	6.640	-0.140	-0.260	-0.130
2020/01/31 20:54:10.8	6.640	-0.120	-0.300	-0.140
2020/01/31 20:54:10.9	6.640	-0.090	-0.330	-0.140
2020/01/31 20:54:11.0	6.640	-0.070	-0.370	-0.150
2020/01/31 20:54:11.1	6.640	-0.040	-0.400	-0.160
2020/01/31 20:54:11.2	6.640	-0.010	-0.440	-0.160
2020/01/31 20:54:11.3	6.640	0.020	-0.470	-0.170
2020/01/31 20:54:11.4	6.640	0.060	-0.510	-0.170
2020/01/31 20:54:11.5	6.640	0.090	-0.540	-0.170
2020/01/31 20:54:11.6	6.640	0.130	-0.570	-0.170
2020/01/31 20:54:11.7	6.640	0.170	-0.610	-0.170
2020/01/31 20:54:11.8	6.640	0.200	-0.640	-0.170
2020/01/31 20:54:11.9	6.640	0.240	-0.670	-0.160
2020/01/31 20:54:12.0	6.630	0.280	-0.700	-0.160
2020/01/31 20:54:12.1	6.630	0.310	-0.730	-0.150
2020/01/31 20:54:12.2	6.630	0.350	-0.760	-0.140
2020/01/31 20:54:12.3	6.630	0.380	-0.790	-0.140
2020/01/31 20:54:12.4	6.620	0.410	-0.810	-0.130
2020/01/31 20:54:12.5	6.620	0.440	-0.840	-0.120
2020/01/31 20:54:12.6	6.620	0.470	-0.860	-0.110
2020/01/31 20:54:12.7	6.620	0.500	-0.870	-0.100
2020/01/31 20:54:12.8	6.620	0.520	-0.890	-0.090
2020/01/31 20:54:12.9	6.620	0.540	-0.900	-0.080
2020/01/31 20:54:13.0	6.630	0.560	-0.920	-0.080
2020/01/31 20:54:13.1	6.630	0.580	-0.930	-0.070
2020/01/31 20:54:13.2	6.640	0.590	-0.930	-0.060
2020/01/31 20:54:13.3	6.650	0.600	-0.930	-0.050
2020/01/31 20:54:13.4	6.650	0.600	-0.940	-0.050
2020/01/31 20:54:13.5	6.670	0.600	-0.930	-0.040
2020/01/31 20:54:13.6	6.680	0.600	-0.930	-0.040
2020/01/31 20:54:13.7	6.690	0.600	-0.920	-0.040
2020/01/31 20:54:13.8	6.710	0.590	-0.910	-0.040
2020/01/31 20:54:13.9	6.730	0.580	-0.890	-0.040
2020/01/31 20:54:14.0	6.750	0.560	-0.870	-0.030
2020/01/31 20:54:14.1	6.770	0.540	-0.850	-0.040
2020/01/31 20:54:14.2	6.790	0.520	-0.830	-0.040
2020/01/31 20:54:14.3	6.810	0.490	-0.800	-0.040
2020/01/31 20:54:14.4	6.840	0.470	-0.770	-0.050
2020/01/31 20:54:14.5	6.860	0.430	-0.730	-0.050
2020/01/31 20:54:14.6	6.890	0.400	-0.690	-0.060
2020/01/31 20:54:14.7	6.910	0.360	-0.650	-0.070
2020/01/31 20:54:14.8	6.940	0.320	-0.600	-0.070
2020/01/31 20:54:14.9	6.960	0.280	-0.550	-0.080
2020/01/31 20:54:15.0	6.990	0.240	-0.500	-0.090
2020/01/31 20:54:15.1	7.010	0.200	-0.440	-0.100
2020/01/31 20:54:15.2	7.040	0.150	-0.380	-0.110
2020/01/31 20:54:15.3	7.060	0.100	-0.320	-0.110
2020/01/31 20:54:15.4	7.070	0.060	-0.250	-0.120
2020/01/31 20:54:15.5	7.090	0.010	-0.180	-0.120
2020/01/31 20:54:15.6	7.110	-0.040	-0.110	-0.130
2020/01/31 20:54:15.7	7.120	-0.090	-0.040	-0.130
2020/01/31 20:54:15.8	7.140	-0.140	0.040	-0.130
2020/01/31 20:54:15.9	7.150	-0.190	0.110	-0.130
2020/01/31 20:54:16.0	7.150	-0.240	0.180	-0.130
2020/01/31 20:54:16.1	7.160	-0.280	0.240	-0.130
2020/01/31 20:54:16.2	7.170	-0.330	0.310	-0.130
2020/01/31 20:54:16.3	7.180	-0.370	0.380	-0.130
2020/01/31 20:54:16.4	7.180	-0.410	0.440	-0.120
2020/01/31 20:54:16.5	7.190	-0.450	0.490	-0.120
2020/01/31 20:54:16.6	7.190	-0.480	0.540	-0.120
2020/01/31 20:54:16.7	7.200	-0.520	0.590	-0.110
2020/01/31 20:54:16.8	7.200	-0.540	0.620	-0.110
2020/01/31 20:54:16.9	7.200	-0.570	0.660	-0.100
2020/01/31 20:54:17.0	7.190	-0.590	0.680	-0.100
2020/01/31 20:54:17.1	7.190	-0.610	0.700	-0.090
2020/01/31 20:54:17.2	7.180	-0.630	0.710	-0.080
2020/01/31 20:54:17.3	7.180	-0.640	0.710	-0.080
2020/01/31 20:54:17.4	7.170	-0.640	0.700	-0.070
2020/01/31 20:54:17.5	7.170	-0.640	0.690	-0.060
2020/01/31 20:54:17.6	7.160	-0.640	0.670	-0.060
2020/01/31 20:54:17.7	7.160	-0.640	0.640	-0.050
2020/01/31 20:54:17.8	7.150	-0.630	0.610	-0.050
2020/01/31 20:54:17.9	7.140	-0.610	0.560	-0.040
2020/01/31 20:54:18.0	7.130	-0.590	0.510	-0.040
2020/01/31 20:54:18.1	7.120	-0.570	0.460	-0.040
2020/01/31 20:54:18.2	7.110	-0.550	0.400	-0.040
2020/01/31 20:54:18.3	7.100	-0.520	0.340	-0.040
2020/01/31 20:54:18.4	7.090	-0.490	0.270	-0.040
2020/01/31 20:54:18.5	7.080	-0.450	0.200	-0.040
2020/01/31 20:54:18.6	7.060	-0.420	0.120	-0.040
2020/01/31 20:54:18.7	7.050	-0.380	0.050	-0.040
2020/01/31 20:54:18.8	7.040	-0.340	-0.020	-0.040
2020/01/31 20:54:18.9	7.020	-0.290	-0.100	-0.040
2020/01/31 20:54:19.0	7.010	-0.250	-0.170	-0.040
2020/01/31 20:54:19.1	6.990	-0.210	-0.240	-0.040
2020/01/31 20:54:19.2	6.980	-0.160	-0.310	-0.040
2020/01/31 20:54:19.3	6.960	-0.120	-0.380	-0.040
2020/01/31 20:54:19.4	6.940	-0.070	-0.440	-0.040
2020/01/31 20:54:19.5	6.920	-0.030	-0.500	-0.040
2020/01/31 20:54:19.6	6.900	0.010	-0.560	-0.040
2020/01/31 20:54:19.7	6.880	0.050	-0.610	-0.040
2020/01/31 20:54:19.8	6.860	0.090	-0.650	-0.040
2020/01/31 20:54:19.9	6.850	0.130	-0.690	-0.040
2020/01/31 20:54:20.0	6.820	0.170	-0.730	-0.030
2020/01/31 20:54:20.1	6.810	0.200	-0.760	-0.030
2020/01/31 20:54:20.2	6.790	0.240	-0.780	-0.030
2020/01/31 20:54:20.3	6.770	0.260	-0.790	-0.030
2020/01/31 20:54:20.4	6.760	0.290	-0.800	-0.020
2020/01/31 20:54:20.5	6.750	0.320	-0.810	-0.020
2020/01/31 20:54:20.6	6.730	0.340	-0.810	-0.020
2020/01/31 20:54:20.7	6.720	0.360	-0.800	-0.010
2020/01/31 20:54:20.8	6.710	0.370	-0.790	-0.010
2020/01/31 20:54:20.9	6.700	0.380	-0.770	-0.000
2020/01/31 20:54:21.0	6.710	0.390	-0.760	0.000
2020/01/31 20:54:21.1	6.700	0.400	-0.730	0.010
2020/01/31 20:54:21.2	6.700	0.400	-0.700	0.020
2020/01/31 20:54:21.3	6.690	0.400	-0.670	0.030
2020/01/31 20:54:21.4	6.690	0.400	-0.630	0.040
2020/01/31 20:54:21.5	6.680	0.400	-0.590	0.050
2020/01/31 20:54:21.6	6.680	0.390	-0.550	0.060
2020/01/31 20:54:21.7	6.680	0.380	-0.510	0.070
2020/01/31 20:54:21.8	6.680	0.370	-0.460	0.080
2020/01/31 20:54:21.9	6.680	0.350	-0.410	0.090
2020/01/31 20:54:22.0	6.670	0.330	-0.370	0.100
2020/01/31 20:54:22.1	6.670	0.310	-0.320	0.110
2020/01/31 20:54:22.2	6.670	0.290	-0.270	0.120
2020/01/31 20:54:22.3	6.670	0.270	-0.230	0.140
2020/01/31 20:54:22.4	6.660	0.240	-0.180	0.150
2020/01/31 20:54:22.5	6.660	0.220	-0.140	0.160
2020/01/31 20:54:22.6	6.660	0.190	-0.090	0.180
2020/01/31 20:54:22.7	6.660	0.160	-0.050	0.190
2020/01/31 20:54:22.8	6.650	0.140	-0.020	0.210
2020/01/31 20:54:22.9	6.650	0.110	0.010	0.220
2020/01/31 20:54:23.0	6.660	0.080	0.040	0.240
2020/01/31 20:54:23.1	6.650	0.050	0.070	0.250
2020/01/31 20:54:23.2	6.650	0.020	0.090	0.260
2020/01/31 20:54:23.3	6.640	-0.010	0.110	0.270
2020/01/31 20:54:23.4	6.640	-0.040	0.120	0.290
2020/01/31 20:54:23.5	6.630	-0.060	0.120	0.290
2020/01/31 20:54:23.6	6.630	-0.090	0.120	0.300
2020/01/31 20:54:23.7	6.620	-0.110	0.110	0.310
2020/01/31 20:54:23.8	6.620	-0.130	0.100	0.310
2020/01/31 20:54:23.9	6.620	-0.150	0.080	0.310
2020/01/31 20:54:24.0	6.630	-0.170	0.050	0.300
2020/01/31 20:54:24.1	6.640	-0.190	0.020	0.290
2020/01/31 20:54:24.2	6.640	-0.200	-0.020	0.280
2020/01/31 20:54:24.3	6.660	-0.210	-0.070	0.270
2020/01/31 20:54:24.4	6.670	-0.220	-0.120	0.250
2020/01/31 20:54:24.5	6.690	-0.220	-0.180	0.230
2020/01/31 20:54:24.6	6.710	-0.220	-0.240	0.200
2020/01/31 20:54:24.7	6.730	-0.220	-0.300	0.170
2020/01/31 20:54:24.8	6.750	-0.210	-0.370	0.130
2020/01/31 20:54:24.9	6.780	-0.210	-0.440	0.100
2020/01/31 20:54:25.0	6.820	-0.190	-0.520	0.060
2020/01/31 20:54:25.1	6.850	-0.180	-0.590	0.020
2020/01/31 20:54:25.2	6.880	-0.160	-0.670	-0.030
2020/01/31 20:54:25.3	6.920	-0.140	-0.740	-0.070
2020/01/31 20:54:25.4	6.950	-0.120	-0.810	-0.120
2020/01/31 20:54:25.5	6.990	-0.100	-0.880	-0.170
2020/01/31 20:54:25.6	7.020	-0.070	-0.950	-0.220
2020/01/31 20:54:25.7	7.060	-0.040	-1.010	-0.270
2020/01/31 20:54:25.8	7.100	-0.010	-1.060	-0.310
2020/01/31 20:54:25.9	7.140	0.020	-1.110	-0.360
2020/01/31 20:54:26.0	7.160	0.050	-1.150	-0.410
2020/01/31 20:54:26.1	7.200	0.080	-1.170	-0.450
2020/01/31 20:54:26.2	7.230	0.110	-1.200	-0.490
2020/01/31 20:54:26.3	7.270	0.140	-1.210	-0.520
2020/01/31 20:54:26.4	7.300	0.170	-1.210	-0.550
2020/01/31 20:54:26.5	7.320	0.190	-1.200	-0.580
2020/01/31 20:54:26.6	7.350	0.220	-1.180	-0.600
2020/01/31 20:54:26.7	7.370	0.240	-1.150	-0.620
2020/01/31 20:54:26.8	7.390	0.270	-1.110	-0.630
2020/01/31 20:54:26.9	7.410	0.280	-1.060	-0.640
2020/01/31 20:54:27.0	7.440	0.300	-1.000	-0.640
2020/01/31 20:54:27.1	7.460	0.310	-0.930	-0.630
2020/01/31 20:54:27.2	7.460	0.320	-0.850	-0.620
2020/01/31 20:54:27.3	7.470	0.330	-0.760	-0.610
2020/01/31 20:54:27.4	7.470	0.330	-0.670	-0.580
2020/01/31 20:54:27.5	7.470	0.320	-0.570	-0.560
2020/01/31 20:54:27.6	7.460	0.320	-0.460	-0.530
2020/01/31 20:54:27.7	7.450	0.310	-0.350	-0.500
2020/01/31 20:54:27.8	7.440	0.290	-0.240	-0.460
2020/01/31 20:54:27.9	7.430	0.270	-0.120	-0.430
2020/01/31 20:54:28.0	7.410	0.250	-0.010	-0.380
2020/01/31 20:54:28.1	7.390	0.220	0.110	-0.340
2020/01/31 20:54:28.2	7.370	0.190	0.230	-0.300
2020/01/31 20:54:28.3	7.350	0.160	0.340	-0.260
2020/01/31 20:54:28.4	7.320	0.130	0.460	-0.220
2020/01/31 20:54:28.5	7.290	0.090	0.560	-0.170
2020/01/31 20:54:28.6	7.270	0.050	0.670	-0.130
2020/01/31 20:54:28.7	7.240	0.010	0.770	-0.090
2020/01/31 20:54:28.8	7.210	-0.030	0.860	-0.050
2020/01/31 20:54:28.9	7.170	-0.070	0.940	-0.010
2020/01/31 20:54:29.0	7.150	-0.120	1.010	0.020
2020/01/31 20:54:29.1	7.120	-0.160	1.080	0.050
2020/01/31 20:54:29.2	7.080	-0.200	1.130	0.090
2020/01/31 20:54:29.3	7.050	-0.240	1.180	0.120
2020/01/31 20:54:29.4	7.020	-0.270	1.210	0.150
2020/01/31 20:54:29.5	6.990	-0.310	1.240	0.170
2020/01/31 20:54:29.6	6.950	-0.340	1.250	0.200
2020/01/31 20:54:29.7	6.920	-0.360	1.260	0.220
2020/01/31 20:54:29.8	6.890	-0.390	1.250	0.250
2020/01/31 20:54:29.9	6.860	-0.410	1.230	0.270
2020/01/31 20:54:30.0	6.830	-0.420	1.200	0.290
2020/01/31 20:54:30.1	6.800	-0.430	1.160	0.300
2020/01/31 20:54:30.2	6.770	-0.440	1.110	0.320
2020/01/31 20:54:30.3	6.750	-0.440	1.050	0.330
2020/01/31 20:54:30.4	6.730	-0.440	0.980	0.340
2020/01/31 20:54:30.5	6.710	-0.430	0.900	0.340
2020/01/31 20:54:30.6	6.690	-0.420	0.810	0.350
2020/01/31 20:54:30.7	6.670	-0.410	0.710	0.350
2020/01/31 20:54:30.8	6.650	-0.390	0.610	0.350
2020/01/31 20:54:30.9	6.640	-0.360	0.510	0.340
2020/01/31 20:54:31.0	6.630	-0.340	0.390	0.330
2020/01/31 20:54:31.1	6.620	-0.310	0.270	0.320
2020/01/31 20:54:31.2	6.610	-0.280	0.150	0.300
2020/01/31 20:54:31.3	6.600	-0.240	0.030	0.280
2020/01/31 20:54:31.4	6.600	-0.210	-0.090	0.260
2020/01/31 20:54:31.5	6.590	-0.180	-0.220	0.230
2020/01/31 20:54:31.6	6.590	-0.140	-0.340	0.200
2020/01/31 20:54:31.7	6.590	-0.100	-0.470	0.170
2020/01/31 20:54:31.8	6.590	-0.070	-0.590	0.140
2020/01/31 20:54:31.9	6.590	-0.040	-0.710	0.100
2020/01/31 20:54:32.0	6.610	-0.000	-0.820	0.070
2020/01/31 20:54:32.1	6.610	0.030	-0.930	0.030
2020/01/31 20:54:32.2	6.620	0.050	-1.030	-0.010
2020/01/31 20:54:32.3	6.620	0.080	-1.130	-0.050
2020/01/31 20:54:32.4	6.630	0.100	-1.220	-0.090
2020/01/31 20:54:32.5	6.630	0.120	-1.300	-0.130
2020/01/31 20:54:32.6	6.640	0.130	-1.370	-0.170
2020/01/31 20:54:32.7	6.650	0.150	-1.440	-0.210
2020/01/31 20:54:32.8	6.650	0.150	-1.500	-0.250
2020/01/31 20:54:32.9	6.660	0.160	-1.550	-0.290
2020/01/31 20:54:33.0	6.670	0.160	-1.590	-0.330
2020/01/31 20:54:33.1	6.680	0.160	-1.620	-0.380
2020/01/31 20:54:33.2	6.700	0.150	-1.650	-0.420
2020/01/31 20:54:33.3	6.710	0.140	-1.660	-0.470
2020/01/31 20:54:33.4	6.730	0.130	-1.670	-0.510
2020/01/31 20:54:33.5	6.750	0.110	-1.670	-0.560
2020/01/31 20:54:33.6	6.770	0.100	-1.670	-0.610
2020/01/31 20:54:33.7	6.800	0.080	-1.650	-0.650
2020/01/31 20:54:33.8	6.820	0.060	-1.630	-0.700
2020/01/31 20:54:33.9	6.850	0.030	-1.600	-0.750
2020/01/31 20:54:34.0	6.880	0.010	-1.570	-0.800
2020/01/31 20:54:34.1	6.910	-0.010	-1.530	-0.850
2020/01/31 20:54:34.2	6.940	-0.030	-1.490	-0.890
2020/01/31 20:54:34.3	6.980	-0.060	-1.440	-0.930
2020/01/31 20:54:34.4	7.010	-0.080	-1.390	-0.970
2020/01/31 20:54:34.5	7.050	-0.100	-1.330	-1.010
2020/01/31 20:54:34.6	7.090	-0.120	-1.270	-1.050
2020/01/31 20:54:34.7	7.120	-0.130	-1.200	-1.080
2020/01/31 20:54:34.8	7.160	-0.150	-1.130	-1.100
2020/01/31 20:54:34.9	7.200	-0.160	-1.060	-1.130
2020/01/31 20:54:35.0	7.240	-0.160	-0.980	-1.140
2020/01/31 20:54:35.1	7.270	-0.170	-0.910	-1.150
2020/01/31 20:54:35.2	7.310	-0.170	-0.830	-1.160
2020/01/31 20:54:35.3	7.340	-0.170	-0.740	-1.150
2020/01/31 20:54:35.4	7.360	-0.160	-0.660	-1.140
2020/01/31 20:54:35.5	7.390	-0.150	-0.570	-1.130
2020/01/31 20:54:35.6	7.410	-0.140	-0.490	-1.110
2020/01/31 20:54:35.7	7.430	-0.120	-0.400	-1.080
2020/01/31 20:54:35.8	7.450	-0.100	-0.310	-1.040
2020/01/31 20:54:35.9	7.460	-0.080	-0.230	-1.000
2020/01/31 20:54:36.0	7.470	-0.050	-0.140	-0.960
2020/01/31 20:54:36.1	7.480	-0.020	-0.060	-0.910
2020/01/31 20:54:36.2	7.480	0.000	0.020	-0.860
2020/01/31 20:54:36.3	7.480	0.030	0.100	-0.810
2020/01/31 20:54:36.4	7.480	0.070	0.180	-0.750
2020/01/31 20:54:36.5	7.480	0.100	0.250	-0.700
2020/01/31 20:54:36.6	7.470	0.130	0.320	-0.640
2020/01/31 20:54:36.7	7.460	0.160	0.380	-0.580
2020/01/31 20:54:36.8	7.450	0.190	0.440	-0.520
2020/01/31 20:54:36.9	7.430	0.220	0.500	-0.450
2020/01/31 20:54:37.0	7.400	0.250	0.540	-0.390
2020/01/31 20:54:37.1	7.380	0.280	0.590	-0.330
2020/01/31 20:54:37.2	7.360	0.310	0.620	-0.270
2020/01/31 20:54:37.3	7.340	0.330	0.650	-0.210
2020/01/31 20:54:37.4	7.320	0.350	0.670	-0.150
2020/01/31 20:54:37.5	7.290	0.370	0.690	-0.090
2020/01/31 20:54:37.6	7.270	0.390	0.700	-0.030
2020/01/31 20:54:37.7	7.250	0.400	0.700	0.020
2020/01/31 20:54:37.8	7.220	0.420	0.700	0.070
2020/01/31 20:54:37.9	7.200	0.430	0.690	0.120
2020/01/31 20:54:38.0	7.180	0.430	0.670	0.170
2020/01/31 20:54:38.1	7.160	0.430	0.650	0.220
2020/01/31 20:54:38.2	7.140	0.430	0.620	0.260
2020/01/31 20:54:38.3	7.120	0.430	0.590	0.290
2020/01/31 20:54:38.4	7.100	0.430	0.550	0.320
2020/01/31 20:54:38.5	7.090	0.420	0.510	0.350
2020/01/31 20:54:38.6	7.070	0.410	0.470	0.380
2020/01/31 20:54:38.7	7.060	0.400	0.420	0.400
2020/01/31 20:54:38.8	7.050	0.380	0.370	0.420
2020/01/31 20:54:38.9	7.030	0.370	0.320	0.430
2020/01/31 20:54:39.0	7.010	0.350	0.270	0.440
2020/01/31 20:54:39.1	7.000	0.330	0.220	0.440
2020/01/31 20:54:39.2	6.990	0.310	0.170	0.450
2020/01/31 20:54:39.3	6.980	0.280	0.120	0.450
2020/01/31 20:54:39.4	6.970	0.260	0.070	0.440
2020/01/31 20:54:39.5	6.960	0.240	0.020	0.430
2020/01/31 20:54:39.6	6.950	0.210	-0.020	0.420
2020/01/31 20:54:39.7	6.940	0.190	-0.060	0.410
2020/01/31 20:54:39.8	6.940	0.160	-0.100	0.400
2020/01/31 20:54:39.9	6.930	0.130	-0.140	0.390
2020/01/31 20:54:40.0	6.920	0.110	-0.170	0.370
2020/01/31 20:54:40.1	6.910	0.080	-0.190	0.360
2020/01/31 20:54:40.2	6.900	0.060	-0.220	0.340
2020/01/31 20:54:40.3	6.890	0.030	-0.230	0.330
2020/01/31 20:54:40.4	6.880	0.010	-0.250	0.310
2020/01/31 20:54:40.5	6.870	-0.010	-0.260	0.300
2020/01/31 20:54:40.6	6.870	-0.030	-0.270	0.280
2020/01/31 20:54:40.7	6.860	-0.060	-0.270	0.260
2020/01/31 20:54:40.8	6.850	-0.080	-0.270	0.250
2020/01/31 20:54:40.9	6.850	-0.100	-0.270	0.230
2020/01/31 20:54:41.0	6.840	-0.120	-0.270	0.210
2020/01/31 20:54:41.1	6.830	-0.130	-0.260	0.190
2020/01/31 20:54:41.2	6.830	-0.150	-0.260	0.170
2020/01/31 20:54:41.3	6.830	-0.170	-0.250	0.150
2020/01/31 20:54:41.4	6.830	-0.180	-0.250	0.130
2020/01/31 20:54:41.5	6.830	-0.200	-0.240	0.110
2020/01/31 20:54:41.6	6.840	-0.210	-0.240	0.080
2020/01/31 20:54:41.7	6.840	-0.220	-0.230	0.060
2020/01/31 20:54:41.8	6.850	-0.240	-0.230	0.030
2020/01/31 20:54:41.9	6.860	-0.250	-0.230	0.010
2020/01/31 20:54:42.0	6.870	-0.260	-0.230	-0.020
2020/01/31 20:54:42.1	6.880	-0.270	-0.230	-0.050
2020/01/31 20:54:42.2	6.890	-0.280	-0.240	-0.080
2020/01/31 20:54:42.3	6.900	-0.290	-0.250	-0.110
2020/01/31 20:54:42.4	6.910	-0.300	-0.250	-0.140
2020/01/31 20:54:42.5	6.920	-0.310	-0.270	-0.170
2020/01/31 20:54:42.6	6.930	-0.320	-0.280	-0.190
2020/01/31 20:54:42.7	6.940	-0.320	-0.300	-0.220
2020/01/31 20:54:42.8	6.950	-0.330	-0.310	-0.250
2020/01/31 20:54:42.9	6.960	-0.340	-0.330	-0.280
2020/01/31 20:54:43.0	6.970	-0.350	-0.350	-0.310
2020/01/31 20:54:43.1	6.980	-0.350	-0.380	-0.330
2020/01/31 20:54:43.2	6.990	-0.360	-0.400	-0.360
2020/01/31 20:54:43.3	7.000	-0.360	-0.430	-0.380
2020/01/31 20:54:43.4	7.010	-0.370	-0.450	-0.400
2020/01/31 20:54:43.5	7.020	-0.370	-0.480	-0.420
2020/01/31 20:54:43.6	7.030	-0.370	-0.510	-0.440
2020/01/31 20:54:43.7	7.040	-0.370	-0.530	-0.460
2020/01/31 20:54:43.8	7.050	-0.370	-0.560	-0.480
2020/01/31 20:54:43.9	7.060	-0.370	-0.590	-0.490
2020/01/31 20:54:44.0	7.050	-0.370	-0.620	-0.510
2020/01/31 20:54:44.1	7.060	-0.370	-0.640	-0.530
2020/01/31 20:54:44.2	7.070	-0.370	-0.670	-0.540
2020/01/31 20:54:44.3	7.080	-0.370	-0.690	-0.550
2020/01/31 20:54:44.4	7.090	-0.360	-0.710	-0.570
2020/01/31 20:54:44.5	7.100	-0.360	-0.730	-0.580
2020/01/31 20:54:44.6	7.110	-0.350	-0.750	-0.590
2020/01/31 20:54:44.7	7.120	-0.340	-0.770	-0.610
2020/01/31 20:54:44.8	7.130	-0.330	-0.780	-0.620
2020/01/31 20:54:44.9	7.140	-0.320	-0.800	-0.630
2020/01/31 20:54:45.0	7.160	-0.310	-0.800	-0.640
2020/01/31 20:54:45.1	7.180	-0.300	-0.810	-0.650
2020/01/31 20:54:45.2	7.190	-0.290	-0.820	-0.660
2020/01/31 20:54:45.3	7.200	-0.270	-0.820	-0.660
2020/01/31 20:54:45.4	7.210	-0.250	-0.820	-0.660
2020/01/31 20:54:45.5	7.220	-0.240	-0.810	-0.660
2020/01/31 20:54:45.6	7.230	-0.220	-0.810	-0.660
2020/01/31 20:54:45.7	7.240	-0.200	-0.800	-0.660
2020/01/31 20:54:45.8	7.250	-0.180	-0.780	-0.650
2020/01/31 20:54:45.9	7.260	-0.160	-0.770	-0.650
2020/01/31 20:54:46.0	7.260	-0.140	-0.750	-0.640
2020/01/31 20:54:46.1	7.270	-0.120	-0.730	-0.630
2020/01/31 20:54:46.2	7.280	-0.100	-0.700	-0.610
2020/01/31 20:54:46.3	7.290	-0.080	-0.670	-0.600
2020/01/31 20:54:46.4	7.300	-0.060	-0.640	-0.580
2020/01/31 20:54:46.5	7.310	-0.040	-0.610	-0.570
2020/01/31 20:54:46.6	7.320	-0.010	-0.570	-0.550
2020/01/31 20:54:46.7	7.330	0.010	-0.540	-0.530
2020/01/31 20:54:46.8	7.350	0.030	-0.500	-0.510
2020/01/31 20:54:46.9	7.360	0.050	-0.460	-0.490
2020/01/31 20:54:47.0	7.370	0.070	-0.420	-0.460
2020/01/31 20:54:47.1	7.380	0.100	-0.380	-0.430
2020/01/31 20:54:47.2	7.400	0.120	-0.340	-0.410
2020/01/31 20:54:47.3	7.410	0.140	-0.300	-0.380
2020/01/31 20:54:47.4	7.420	0.160	-0.260	-0.350
2020/01/31 20:54:47.5	7.430	0.180	-0.220	-0.310
2020/01/31 20:54:47.6	7.440	0.190	-0.180	-0.280
2020/01/31 20:54:47.7	7.450	0.210	-0.130	-0.240
2020/01/31 20:54:47.8	7.450	0.220	-0.090	-0.200
2020/01/31 20:54:47.9	7.450	0.240	-0.050	-0.160
2020/01/31 20:54:48.0	7.460	0.250	-0.010	-0.110
2020/01/31 20:54:48.1	7.460	0.260	0.030	-0.070
2020/01/31 20:54:48.2	7.450	0.270	0.070	-0.020
2020/01/31 20:54:48.3	7.430	0.280	0.110	0.030
2020/01/31 20:54:48.4	7.410	0.280	0.140	0.080
2020/01/31 20:54:48.5	7.390	0.290	0.180	0.130
2020/01/31 20:54:48.6	7.370	0.290	0.210	0.180
2020/01/31 20:54:48.7	7.350	0.290	0.240	0.230
2020/01/31 20:54:48.8	7.320	0.300	0.270	0.280
2020/01/31 20:54:48.9	7.290	0.300	0.300	0.330
2020/01/31 20:54:49.0	7.270	0.300	0.310	0.370
2020/01/31 20:54:49.1	7.240	0.290	0.330	0.410
2020/01/31 20:54:49.2	7.200	0.290	0.350	0.450
2020/01/31 20:54:49.3	7.170	0.290	0.350	0.490
2020/01/31 20:54:49.4	7.130	0.290	0.360	0.520
2020/01/31 20:54:49.5	7.100	0.280	0.360	0.550
2020/01/31 20:54:49.6	7.070	0.280	0.360	0.580
2020/01/31 20:54:49.7	7.030	0.280	0.350	0.600
2020/01/31 20:54:49.8	7.000	0.280	0.330	0.620
2020/01/31 20:54:49.9	6.970	0.270	0.320	0.630
2020/01/31 20:54:50.0	6.930	0.270	0.300	0.650
2020/01/31 20:54:50.1	6.900	0.270	0.270	0.650
2020/01/31 20:54:50.2	6.870	0.270	0.240	0.660
2020/01/31 20:54:50.3	6.850	0.280	0.210	0.650
2020/01/31 20:54:50.4	6.820	0.280	0.170	0.650
2020/01/31 20:54:50.5	6.800	0.280	0.130	0.640
2020/01/31 20:54:50.6	6.780	0.290	0.090	0.630
2020/01/31 20:54:50.7	6.760	0.300	0.040	0.620
2020/01/31 20:54:50.8	6.740	0.300	-0.000	0.610
2020/01/31 20:54:50.9	6.720	0.310	-0.050	0.590
2020/01/31 20:54:51.0	6.720	0.320	-0.100	0.570
2020/01/31 20:54:51.1	6.710	0.330	-0.140	0.550
2020/01/31 20:54:51.2	6.700	0.340	-0.190	0.530
2020/01/31 20:54:51.3	6.690	0.350	-0.240	0.510
2020/01/31 20:54:51.4	6.680	0.360	-0.280	0.490
2020/01/31 20:54:51.5	6.680	0.370	-0.320	0.460
2020/01/31 20:54:51.6	6.680	0.380	-0.360	0.430
2020/01/31 20:54:51.7	6.680	0.390	-0.400	0.400
2020/01/31 20:54:51.8	6.680	0.400	-0.440	0.370
2020/01/31 20:54:51.9	6.690	0.400	-0.470	0.340
2020/01/31 20:54:52.0	6.700	0.410	-0.510	0.310
2020/01/31 20:54:52.1	6.710	0.410	-0.530	0.280
2020/01/31 20:54:52.2	6.730	0.410	-0.560	0.240
2020/01/31 20:54:52.3	6.740	0.410	-0.580	0.200
2020/01/31 20:54:52.4	6.760	0.400	-0.600	0.160
2020/01/31 20:54:52.5	6.770	0.390	-0.620	0.120
2020/01/31 20:54:52.6	6.790	0.380	-0.630	0.080
2020/01/31 20:54:52.7	6.810	0.370	-0.640	0.040
2020/01/31 20:54:52.8	6.830	0.350	-0.640	-0.000
2020/01/31 20:54:52.9	6.850	0.330	-0.650	-0.050
2020/01/31 20:54:53.0	6.880	0.310	-0.640	-0.090
2020/01/31 20:54:53.1	6.900	0.290	-0.640	-0.130
2020/01/31 20:54:53.2	6.920	0.260	-0.630	-0.170
2020/01/31 20:54:53.3	6.940	0.220	-0.620	-0.210
2020/01/31 20:54:53.4	6.970	0.190	-0.610	-0.260
2020/01/31 20:54:53.5	6.990	0.150	-0.590	-0.300
2020/01/31 20:54:53.6	7.010	0.110	-0.570	-0.340
2020/01/31 20:54:53.7	7.030	0.070	-0.550	-0.370
2020/01/31 20:54:53.8	7.050	0.020	-0.530	-0.410
2020/01/31 20:54:53.9	7.070	-0.030	-0.510	-0.450
2020/01/31 20:54:54.0	7.090	-0.070	-0.480	-0.490
2020/01/31 20:54:54.1	7.110	-0.130	-0.450	-0.520
2020/01/31 20:54:54.2	7.130	-0.180	-0.420	-0.560
2020/01/31 20:54:54.3	7.150	-0.230	-0.390	-0.590
2020/01/31 20:54:54.4	7.170	-0.280	-0.360	-0.620
2020/01/31 20:54:54.5	7.180	-0.330	-0.330	-0.650
2020/01/31 20:54:54.6	7.200	-0.390	-0.300	-0.670
2020/01/31 20:54:54.7	7.220	-0.440	-0.270	-0.700
2020/01/31 20:54:54.8	7.230	-0.490	-0.240	-0.720
2020/01/31 20:54:54.9	7.250	-0.540	-0.210	-0.750
2020/01/31 20:54:55.0	7.240	-0.580	-0.180	-0.760
2020/01/31 20:54:55.1	7.260	-0.630	-0.150	-0.780
2020/01/31 20:54:55.2	7.280	-0.670	-0.130	-0.800
2020/01/31 20:54:55.3	7.300	-0.710	-0.100	-0.820
2020/01/31 20:54:55.4	7.310	-0.740	-0.080	-0.830
2020/01/31 20:54:55.5	7.330	-0.770	-0.060	-0.840
2020/01/31 20:54:55.6	7.350	-0.800	-0.050	-0.850
2020/01/31 20:54:55.7	7.360	-0.820	-0.030	-0.860
2020/01/31 20:54:55.8	7.380	-0.840	-0.020	-0.860
2020/01/31 20:54:55.9	7.400	-0.850	-0.000	-0.860
2020/01/31 20:54:56.0	7.410	-0.860	0.010	-0.860
2020/01/31 20:54:56.1	7.420	-0.870	0.020	-0.850
2020/01/31 20:54:56.2	7.430	-0.870	0.030	-0.840
2020/01/31 20:54:56.3	7.440	-0.870	0.040	-0.830
2020/01/31 20:54:56.4	7.450	-0.860	0.040	-0.810
2020/01/31 20:54:56.5	7.450	-0.850	0.050	-0.790
2020/01/31 20:54:56.6	7.450	-0.840	0.060	-0.760
2020/01/31 20:54:56.7	7.450	-0.820	0.060	-0.730
2020/01/31 20:54:56.8	7.450	-0.800	0.070	-0.700
2020/01/31 20:54:56.9	7.450	-0.770	0.070	-0.670
2020/01/31 20:54:57.0	7.440	-0.740	0.070	-0.630
2020/01/31 20:54:57.1	7.430	-0.710	0.070	-0.590
2020/01/31 20:54:57.2	7.420	-0.680	0.070	-0.550
2020/01/31 20:54:57.3	7.410	-0.640	0.070	-0.510
2020/01/31 20:54:57.4	7.390	-0.600	0.070	-0.470
2020/01/31 20:54:57.5	7.370	-0.560	0.070	-0.420
2020/01/31 20:54:57.6	7.350	-0.520	0.060	-0.380
2020/01/31 20:54:57.7	7.330	-0.480	0.050	-0.340
2020/01/31 20:54:57.8	7.310	-0.430	0.040	-0.290
2020/01/31 20:54:57.9	7.280	-0.390	0.020	-0.250
2020/01/31 20:54:58.0	7.250	-0.340	0.010	-0.210
2020/01/31 20:54:58.1	7.230	-0.290	-0.010	-0.160
2020/01/31 20:54:58.2	7.210	-0.240	-0.030	-0.120
2020/01/31 20:54:58.3	7.180	-0.190	-0.050	-0.070
2020/01/31 20:54:58.4	7.160	-0.140	-0.080	-0.030
2020/01/31 20:54:58.5	7.130	-0.090	-0.110	0.010
2020/01/31 20:54:58.6	7.110	-0.030	-0.130	0.050
2020/01/31 20:54:58.7	7.080	0.020	-0.160	0.100
2020/01/31 20:54:58.8	7.060	0.070	-0.200	0.140
2020/01/31 20:54:58.9	7.030	0.120	-0.230	0.180
2020/01/31 20:54:59.0	7.010	0.170	-0.260	0.230
2020/01/31 20:54:59.1	6.990	0.220	-0.290	0.270
2020/01/31 20:54:59.2	6.970	0.270	-0.330	0.310
2020/01/31 20:54:59.3	6.950	0.310	-0.360	0.350
2020/01/31 20:54:59.4	6.920	0.360	-0.390	0.380
2020/01/31 20:54:59.5	6.900	0.400	-0.420	0.420
2020/01/31 20:54:59.6	6.880	0.440	-0.450	0.460
2020/01/31 20:54:59.7	6.860	0.480	-0.480	0.490
2020/01/31 20:54:59.8	6.830	0.520	-0.500	0.530
2020/01/31 20:54:59.9	6.810	0.550	-0.520	0.560
2020/01/31 20:55:00.0	6.790	0.580	-0.540	0.580
2020/01/31 20:55:00.1	6.760	0.610	-0.560	0.610
2020/01/31 20:55:00.2	6.740	0.640	-0.570	0.630
2020/01/31 20:55:00.3	6.720	0.660	-0.580	0.650
2020/01/31 20:55:00.4	6.690	0.670	-0.580	0.660
2020/01/31 20:55:00.5	6.670	0.690	-0.580	0.670
2020/01/31 20:55:00.6	6.650	0.700	-0.580	0.680
2020/01/31 20:55:00.7	6.630	0.700	-0.570	0.680
2020/01/31 20:55:00.8	6.610	0.700	-0.560	0.680
2020/01/31 20:55:00.9	6.590	0.700	-0.550	0.670
2020/01/31 20:55:01.0	6.570	0.700	-0.540	0.660
2020/01/31 20:55:01.1	6.560	0.690	-0.520	0.650
2020/01/31 20:55:01.2	6.540	0.680	-0.510	0.630
2020/01/31 20:55:01.3	6.530	0.660	-0.490	0.620
2020/01/31 20:55:01.4	6.520	0.650	-0.470	0.590
2020/01/31 20:55:01.5	6.520	0.630	-0.450	0.570
2020/01/31 20:55:01.6	6.510	0.610	-0.430	0.540
2020/01/31 20:55:01.7	6.510	0.580	-0.420	0.510
2020/01/31 20:55:01.8	6.510	0.560	-0.400	0.480
2020/01/31 20:55:01.9	6.520	0.530	-0.390	0.440
2020/01/31 20:55:02.0	6.540	0.500	-0.370	0.410
2020/01/31 20:55:02.1	6.550	0.470	-0.360	0.370
2020/01/31 20:55:02.2	6.570	0.440	-0.350	0.320
2020/01/31 20:55:02.3	6.580	0.410	-0.350	0.280
2020/01/31 20:55:02.4	6.600	0.380	-0.350	0.230
2020/01/31 20:55:02.5	6.620	0.350	-0.350	0.180
2020/01/31 20:55:02.6	6.650	0.320	-0.360	0.130
2020/01/31 20:55:02.7	6.670	0.290	-0.360	0.080
2020/01/31 20:55:02.8	6.700	0.260	-0.370	0.030
2020/01/31 20:55:02.9	6.730	0.240	-0.390	-0.030
2020/01/31 20:55:03.0	6.760	0.210	-0.410	-0.090
2020/01/31 20:55:03.1	6.790	0.180	-0.420	-0.140
2020/01/31 20:55:03.2	6.820	0.160	-0.440	-0.190
2020/01/31 20:55:03.3	6.850	0.140	-0.460	-0.240
2020/01/31 20:55:03.4	6.880	0.110	-0.470	-0.290
2020/01/31 20:55:03.5	6.910	0.090	-0.490	-0.330
2020/01/31 20:55:03.6	6.930	0.070	-0.500	-0.380
2020/01/31 20:55:03.7	6.960	0.050	-0.510	-0.410
2020/01/31 20:55:03.8	6.980	0.040	-0.520	-0.450
2020/01/31 20:55:03.9	7.000	0.020	-0.530	-0.480
2020/01/31 20:55:04.0	7.010	0.010	-0.530	-0.500
2020/01/31 20:55:04.1	7.020	-0.010	-0.530	-0.520
2020/01/31 20:55:04.2	7.040	-0.020	-0.530	-0.540
2020/01/31 20:55:04.3	7.040	-0.030	-0.520	-0.550
2020/01/31 20:55:04.4	7.050	-0.040	-0.510	-0.560
2020/01/31 20:55:04.5	7.050	-0.050	-0.490	-0.560
2020/01/31 20:55:04.6	7.060	-0.060	-0.470	-0.560
2020/01/31 20:55:04.7	7.060	-0.070	-0.450	-0.560
2020/01/31 20:55:04.8	7.060	-0.080	-0.430	-0.550
2020/01/31 20:55:04.9	7.060	-0.090	-0.400	-0.540
2020/01/31 20:55:05.0	7.040	-0.090	-0.370	-0.530
2020/01/31 20:55:05.1	7.040	-0.100	-0.340	-0.520
2020/01/31 20:55:05.2	7.040	-0.100	-0.310	-0.510
2020/01/31 20:55:05.3	7.040	-0.110	-0.280	-0.490
2020/01/31 20:55:05.4	7.040	-0.110	-0.260	-0.470
2020/01/31 20:55:05.5	7.050	-0.120	-0.230	-0.460
2020/01/31 20:55:05.6	7.050	-0.120	-0.200	-0.440
2020/01/31 20:55:05.7	7.060	-0.120	-0.180	-0.420
2020/01/31 20:55:05.8	7.070	-0.130	-0.150	-0.410
2020/01/31 20:55:05.9	7.080	-0.130	-0.130	-0.400
2020/01/31 20:55:06.0	7.090	-0.130	-0.120	-0.380
2020/01/31 20:55:06.1	7.100	-0.130	-0.100	-0.370
2020/01/31 20:55:06.2	7.120	-0.130	-0.090	-0.360
2020/01/31 20:55:06.3	7.130	-0.130	-0.080	-0.350
2020/01/31 20:55:06.4	7.140	-0.140	-0.080	-0.340
2020/01/31 20:55:06.5	7.160	-0.140	-0.070	-0.330
2020/01/31 20:55:06.6	7.170	-0.140	-0.070	-0.330
2020/01/31 20:55:06.7	7.180	-0.140	-0.070	-0.320
2020/01/31 20:55:06.8	7.190	-0.150	-0.070	-0.310
2020/01/31 20:55:06.9	7.200	-0.150	-0.070	-0.310
2020/01/31 20:55:07.0	7.200	-0.160	-0.070	-0.310
2020/01/31 20:55:07.1	7.200	-0.170	-0.070	-0.300
2020/01/31 20:55:07.2	7.200	-0.180	-0.070	-0.300
2020/01/31 20:55:07.3	7.200	-0.190	-0.070	-0.300
2020/01/31 20:55:07.4	7.200	-0.200	-0.070	-0.300
2020/01/31 20:55:07.5	7.200	-0.210	-0.060	-0.300
2020/01/31 20:55:07.6	7.200	-0.220	-0.060	-0.300
2020/01/31 20:55:07.7	7.190	-0.240	-0.050	-0.300
2020/01/31 20:55:07.8	7.180	-0.250	-0.040	-0.300
2020/01/31 20:55:07.9	7.170	-0.270	-0.040	-0.300
2020/01/31 20:55:08.0	7.180	-0.280	-0.020	-0.300
2020/01/31 20:55:08.1	7.160	-0.300	-0.010	-0.300
2020/01/31 20:55:08.2	7.150	-0.320	0.010	-0.290
2020/01/31 20:55:08.3	7.140	-0.330	0.020	-0.290
2020/01/31 20:55:08.4	7.120	-0.350	0.050	-0.290
2020/01/31 20:55:08.5	7.100	-0.360	0.070	-0.290
2020/01/31 20:55:08.6	7.090	-0.380	0.090	-0.280
2020/01/31 20:55:08.7	7.070	-0.390	0.110	-0.280
2020/01/31 20:55:08.8	7.050	-0.400	0.140	-0.280
2020/01/31 20:55:08.9	7.030	-0.420	0.160	-0.270
2020/01/31 20:55:09.0	7.020	-0.420	0.190	-0.270
2020/01/31 20:55:09.1	7.000	-0.430	0.210	-0.260
2020/01/31 20:55:09.2	6.980	-0.430	0.240	-0.250
2020/01/31 20:55:09.3	6.960	-0.440	0.260	-0.240
2020/01/31 20:55:09.4	6.940	-0.440	0.290	-0.220
2020/01/31 20:55:09.5	6.910	-0.430	0.300	-0.210
2020/01/31 20:55:09.6	6.890	-0.420	0.320	-0.190
2020/01/31 20:55:09.7	6.870	-0.410	0.340	-0.170
2020/01/31 20:55:09.8	6.850	-0.400	0.350	-0.150
2020/01/31 20:55:09.9	6.820	-0.380	0.360	-0.130
2020/01/31 20:55:10.0	6.780	-0.360	0.360	-0.110
2020/01/31 20:55:10.1	6.760	-0.340	0.360	-0.080
2020/01/31 20:55:10.2	6.740	-0.310	0.350	-0.050
2020/01/31 20:55:10.3	6.710	-0.290	0.350	-0.020
2020/01/31 20:55:10.4	6.690	-0.250	0.340	0.010
2020/01/31 20:55:10.5	6.670	-0.220	0.320	0.040
2020/01/31 20:55:10.6	6.650	-0.180	0.300	0.070
2020/01/31 20:55:10.7	6.630	-0.150	0.280	0.110
2020/01/31 20:55:10.8	6.610	-0.110	0.250	0.140
2020/01/31 20:55:10.9	6.590	-0.070	0.220	0.170
2020/01/31 20:55:11.0	6.570	-0.020	0.180	0.210
2020/01/31 20:55:11.1	6.550	0.020	0.150	0.240
2020/01/31 20:55:11.2	6.530	0.060	0.100	0.270
2020/01/31 20:55:11.3	6.510	0.100	0.060	0.300
2020/01/31 20:55:11.4	6.500	0.150	0.010	0.330
2020/01/31 20:55:11.5	6.480	0.190	-0.030	0.360
2020/01/31 20:55:11.6	6.470	0.230	-0.080	0.380
2020/01/31 20:55:11.7	6.450	0.260	-0.140	0.400
2020/01/31 20:55:11.8	6.440	0.300	-0.190	0.420
2020/01/31 20:55:11.9	6.430	0.330	-0.240	0.440
2020/01/31 20:55:12.0	6.420	0.360	-0.300	0.450
2020/01/31 20:55:12.1	6.410	0.390	-0.350	0.460
2020/01/31 20:55:12.2	6.400	0.420	-0.400	0.470
2020/01/31 20:55:12.3	6.390	0.440	-0.460	0.470
2020/01/31 20:55:12.4	6.380	0.460	-0.510	0.470
2020/01/31 20:55:12.5	6.380	0.480	-0.560	0.470
2020/01/31 20:55:12.6	6.380	0.490	-0.600	0.460
2020/01/31 20:55:12.7	6.370	0.500	-0.650	0.450
2020/01/31 20:55:12.8	6.370	0.500	-0.700	0.430
2020/01/31 20:55:12.9	6.380	0.510	-0.740	0.410
2020/01/31 20:55:13.0	6.360	0.500	-0.770	0.390
2020/01/31 20:55:13.1	6.370	0.500	-0.810	0.370
2020/01/31 20:55:13.2	6.380	0.490	-0.850	0.340
2020/01/31 20:55:13.3	6.380	0.480	-0.880	0.310
2020/01/31 20:55:13.4	6.390	0.470	-0.910	0.290
2020/01/31 20:55:13.5	6.410	0.460	-0.940	0.250
2020/01/31 20:55:13.6	6.420	0.440	-0.960	0.220
2020/01/31 20:55:13.7	6.440	0.420	-0.980	0.190
2020/01/31 20:55:13.8	6.450	0.400	-1.000	0.150
2020/01/31 20:55:13.9	6.470	0.380	-1.020	0.120
2020/01/31 20:55:14.0	6.500	0.360	-1.030	0.080
2020/01/31 20:55:14.1	6.520	0.330	-1.040	0.040
2020/01/31 20:55:14.2	6.540	0.310	-1.050	0.010
2020/01/31 20:55:14.3	6.560	0.280	-1.050	-0.030
2020/01/31 20:55:14.4	6.590	0.260	-1.050	-0.070
2020/01/31 20:55:14.5	6.610	0.230	-1.050	-0.110
2020/01/31 20:55:14.6	6.640	0.210	-1.050	-0.150
2020/01/31 20:55:14.7	6.660	0.180	-1.040	-0.190
2020/01/31 20:55:14.8	6.690	0.160	-1.030	-0.230
2020/01/31 20:55:14.9	6.710	0.130	-1.020	-0.270
2020/01/31 20:55:15.0	6.730	0.110	-1.010	-0.310
2020/01/31 20:55:15.1	6.750	0.090	-0.990	-0.350
2020/01/31 20:55:15.2	6.780	0.070	-0.970	-0.400
2020/01/31 20:55:15.3	6.800	0.040	-0.950	-0.440
2020/01/31 20:55:15.4	6.830	0.020	-0.930	-0.480
2020/01/31 20:55:15.5	6.860	0.000	-0.910	-0.520
2020/01/31 20:55:15.6	6.880	-0.020	-0.880	-0.560
2020/01/31 20:55:15.7	6.900	-0.040	-0.850	-0.600
2020/01/31 20:55:15.8	6.930	-0.050	-0.820	-0.640
2020/01/31 20:55:15.9	6.950	-0.070	-0.790	-0.670
2020/01/31 20:55:16.0	6.980	-0.090	-0.760	-0.710
2020/01/31 20:55:16.1	7.000	-0.100	-0.720	-0.740
2020/01/31 20:55:16.2	7.020	-0.120	-0.690	-0.770
2020/01/31 20:55:16.3	7.040	-0.130	-0.650	-0.800
2020/01/31 20:55:16.4	7.060	-0.140	-0.610	-0.820
2020/01/31 20:55:16.5	7.070	-0.150	-0.570	-0.840
2020/01/31 20:55:16.6	7.090	-0.170	-0.530	-0.860
2020/01/31 20:55:16.7	7.100	-0.180	-0.490	-0.880
2020/01/31 20:55:16.8	7.110	-0.190	-0.440	-0.890
2020/01/31 20:55:16.9	7.120	-0.200	-0.400	-0.890
2020/01/31 20:55:17.0	7.110	-0.210	-0.360	-0.900
2020/01/31 20:55:17.1	7.110	-0.220	-0.310	-0.900
2020/01/31 20:55:17.2	7.120	-0.230	-0.260	-0.890
2020/01/31 20:55:17.3	7.120	-0.240	-0.220	-0.880
2020/01/31 20:55:17.4	7.120	-0.250	-0.170	-0.870
2020/01/31 20:55:17.5	7.110	-0.260	-0.120	-0.860
2020/01/31 20:55:17.6	7.110	-0.270	-0.070	-0.840
2020/01/31 20:55:17.7	7.110	-0.280	-0.030	-0.820
2020/01/31 20:55:17.8	7.100	-0.290	0.020	-0.800
2020/01/31 20:55:17.9	7.090	-0.300	0.070	-0.770
2020/01/31 20:55:18.0	7.090	-0.310	0.110	-0.740
2020/01/31 20:55:18.1	7.080	-0.310	0.150	-0.710
2020/01/31 20:55:18.2	7.070	-0.320	0.190	-0.680
2020/01/31 20:55:18.3	7.060	-0.320	0.230	-0.650
2020/01/31 20:55:18.4	7.050	-0.330	0.270	-0.620
2020/01/31 20:55:18.5	7.040	-0.330	0.300	-0.580
2020/01/31 20:55:18.6	7.030	-0.330	0.330	-0.550
2020/01/31 20:55:18.7	7.020	-0.340	0.360	-0.510
2020/01/31 20:55:18.8	7.010	-0.330	0.390	-0.480
2020/01/31 20:55:18.9	6.990	-0.330	0.410	-0.440
2020/01/31 20:55:19.0	6.980	-0.330	0.430	-0.400
2020/01/31 20:55:19.1	6.970	-0.320	0.450	-0.360
2020/01/31 20:55:19.2	6.960	-0.320	0.460	-0.320
2020/01/31 20:55:19.3	6.940	-0.310	0.470	-0.290
2020/01/31 20:55:19.4	6.930	-0.290	0.480	-0.250
2020/01/31 20:55:19.5	6.920	-0.280	0.480	-0.210
2020/01/31 20:55:19.6	6.910	-0.270	0.480	-0.170
2020/01/31 20:55:19.7	6.900	-0.250	0.480	-0.130
2020/01/31 20:55:19.8	6.890	-0.230	0.480	-0.090
2020/01/31 20:55:19.9	6.870	-0.210	0.470	-0.050
2020/01/31 20:55:20.0	6.870	-0.190	0.460	-0.010
2020/01/31 20:55:20.1	6.860	-0.160	0.450	0.030
2020/01/31 20:55:20.2	6.850	-0.140	0.430	0.070
2020/01/31 20:55:20.3	6.840	-0.110	0.410	0.110
2020/01/31 20:55:20.4	6.830	-0.080	0.400	0.150
2020/01/31 20:55:20.5	6.820	-0.060	0.380	0.190
2020/01/31 20:55:20.6	6.800	-0.030	0.360	0.230
2020/01/31 20:55:20.7	6.790	0.000	0.330	0.280
2020/01/31 20:55:20.8	6.780	0.030	0.310	0.320
2020/01/31 20:55:20.9	6.760	0.060	0.290	0.370
2020/01/31 20:55:21.0	6.760	0.090	0.270	0.410
2020/01/31 20:55:21.1	6.740	0.110	0.250	0.460
2020/01/31 20:55:21.2	6.720	0.140	0.220	0.510
2020/01/31 20:55:21.3	6.690	0.160	0.200	0.550
2020/01/31 20:55:21.4	6.670	0.190	0.180	0.600
2020/01/31 20:55:21.5	6.640	0.210	0.160	0.650
2020/01/31 20:55:21.6	6.610	0.220	0.140	0.690
2020/01/31 20:55:21.7	6.580	0.240	0.120	0.740
2020/01/31 20:55:21.8	6.550	0.250	0.110	0.780
2020/01/31 20:55:21.9	6.520	0.270	0.090	0.820
2020/01/31 20:55:22.0	6.500	0.280	0.070	0.870
2020/01/31 20:55:22.1	6.460	0.280	0.050	0.900
2020/01/31 20:55:22.2	6.430	0.290	0.030	0.940
2020/01/31 20:55:22.3	6.400	0.290	0.000	0.970
2020/01/31 20:55:22.4	6.370	0.290	-0.020	0.990
2020/01/31 20:55:22.5	6.340	0.290	-0.040	1.010
2020/01/31 20:55:22.6	6.310	0.290	-0.070	1.020
2020/01/31 20:55:22.7	6.280	0.280	-0.100	1.030
2020/01/31 20:55:22.8	6.260	0.280	-0.130	1.040
2020/01/31 20:55:22.9	6.240	0.270	-0.160	1.030
2020/01/31 20:55:23.0	6.230	0.260	-0.200	1.020
2020/01/31 20:55:23.1	6.210	0.250	-0.240	1.010
2020/01/31 20:55:23.2	6.200	0.240	-0.280	0.980
2020/01/31 20:55:23.3	6.190	0.230	-0.320	0.960
2020/01/31 20:55:23.4	6.190	0.220	-0.370	0.920
2020/01/31 20:55:23.5	6.180	0.210	-0.410	0.890
2020/01/31 20:55:23.6	6.180	0.200	-0.460	0.840
2020/01/31 20:55:23.7	6.180	0.190	-0.510	0.800
2020/01/31 20:55:23.8	6.190	0.180	-0.550	0.750
2020/01/31 20:55:23.9	6.190	0.170	-0.600	0.690
2020/01/31 20:55:24.0	6.200	0.150	-0.640	0.630
2020/01/31 20:55:24.1	6.210	0.140	-0.690	0.570
2020/01/31 20:55:24.2	6.220	0.130	-0.730	0.500
2020/01/31 20:55:24.3	6.230	0.120	-0.770	0.430
2020/01/31 20:55:24.4	6.250	0.110	-0.800	0.360
2020/01/31 20:55:24.5	6.260	0.100	-0.830	0.290
2020/01/31 20:55:24.6	6.280	0.090	-0.860	0.210
2020/01/31 20:55:24.7	6.300	0.070	-0.880	0.130
2020/01/31 20:55:24.8	6.320	0.060	-0.900	0.060
2020/01/31 20:55:24.9	6.340	0.050	-0.920	-0.020
2020/01/31 20:55:25.0	6.360	0.040	-0.930	-0.100
2020/01/31 20:55:25.1	6.380	0.030	-0.930	-0.180
2020/01/31 20:55:25.2	6.400	0.020	-0.940	-0.250
2020/01/31 20:55:25.3	6.430	0.010	-0.930	-0.320
2020/01/31 20:55:25.4	6.450	-0.000	-0.930	-0.390
2020/01/31 20:55:25.5	6.470	-0.020	-0.920	-0.460
2020/01/31 20:55:25.6	6.490	-0.030	-0.910	-0.520
2020/01/31 20:55:25.7	6.520	-0.040	-0.900	-0.580
2020/01/31 20:55:25.8	6.540	-0.050	-0.880	-0.640
2020/01/31 20:55:25.9	6.570	-0.060	-0.860	-0.700
2020/01/31 20:55:26.0	6.580	-0.070	-0.840	-0.750
2020/01/31 20:55:26.1	6.600	-0.080	-0.820	-0.800
2020/01/31 20:55:26.2	6.630	-0.090	-0.790	-0.850
2020/01/31 20:55:26.3	6.650	-0.100	-0.770	-0.890
2020/01/31 20:55:26.4	6.670	-0.110	-0.740	-0.930
2020/01/31 20:55:26.5	6.700	-0.120	-0.710	-0.970
2020/01/31 20:55:26.6	6.720	-0.130	-0.690	-1.000
2020/01/31 20:55:26.7	6.740	-0.130	-0.660	-1.030
2020/01/31 20:55:26.8	6.760	-0.140	-0.640	-1.060
2020/01/31 20:55:26.9	6.780	-0.150	-0.610	-1.080
2020/01/31 20:55:27.0	6.800	-0.160	-0.590	-1.100
2020/01/31 20:55:27.1	6.820	-0.160	-0.560	-1.120
2020/01/31 20:55:27.2	6.840	-0.170	-0.540	-1.130
2020/01/31 20:55:27.3	6.860	-0.170	-0.520	-1.130
2020/01/31 20:55:27.4	6.880	-0.170	-0.500	-1.140
2020/01/31 20:55:27.5	6.890	-0.170	-0.470	-1.140
2020/01/31 20:55:27.6	6.910	-0.170	-0.450	-1.130
2020/01/31 20:55:27.7	6.920	-0.170	-0.440	-1.120
2020/01/31 20:55:27.8	6.940	-0.170	-0.420	-1.110
2020/01/31 20:55:27.9	6.950	-0.170	-0.400	-1.090
2020/01/31 20:55:28.0	6.960	-0.160	-0.390	-1.070
2020/01/31 20:55:28.1	6.970	-0.160	-0.380	-1.050
2020/01/31 20:55:28.2	6.980	-0.150	-0.370	-1.020
2020/01/31 20:55:28.3	6.990	-0.140	-0.350	-0.990
2020/01/31 20:55:28.4	6.990	-0.140	-0.340	-0.960
2020/01/31 20:55:28.5	6.990	-0.130	-0.330	-0.920
2020/01/31 20:55:28.6	6.990	-0.110	-0.320	-0.890
2020/01/31 20:55:28.7	6.990	-0.100	-0.310	-0.840
2020/01/31 20:55:28.8	6.990	-0.090	-0.290	-0.800
2020/01/31 20:55:28.9	6.980	-0.080	-0.280	-0.750
2020/01/31 20:55:29.0	6.960	-0.070	-0.270	-0.700
2020/01/31 20:55:29.1	6.950	-0.060	-0.250	-0.640
2020/01/31 20:55:29.2	6.930	-0.050	-0.230	-0.590
2020/01/31 20:55:29.3	6.920	-0.040	-0.210	-0.530
2020/01/31 20:55:29.4	6.900	-0.020	-0.190	-0.470
2020/01/31 20:55:29.5	6.870	-0.020	-0.170	-0.410
2020/01/31 20:55:29.6	6.850	-0.010	-0.140	-0.340
2020/01/31 20:55:29.7	6.820	-0.000	-0.120	-0.270
2020/01/31 20:55:29.8	6.790	0.010	-0.090	-0.210
2020/01/31 20:55:29.9	6.760	0.010	-0.050	-0.140
2020/01/31 20:55:30.0	6.730	0.010	-0.020	-0.060
2020/01/31 20:55:30.1	6.690	0.010	0.020	0.010
2020/01/31 20:55:30.2	6.650	0.010	0.050	0.080
2020/01/31 20:55:30.3	6.610	0.010	0.090	0.150
2020/01/31 20:55:30.4	6.570	0.010	0.130	0.220
2020/01/31 20:55:30.5	6.530	0.000	0.170	0.290
2020/01/31 20:55:30.6	6.480	-0.010	0.210	0.360
2020/01/31 20:55:30.7	6.440	-0.010	0.240	0.430
2020/01/31 20:55:30.8	6.390	-0.020	0.280	0.490
2020/01/31 20:55:30.9	6.350	-0.040	0.320	0.550
2020/01/31 20:55:31.0	6.300	-0.050	0.350	0.610
2020/01/31 20:55:31.1	6.260	-0.060	0.380	0.660
2020/01/31 20:55:31.2	6.220	-0.080	0.410	0.710
2020/01/31 20:55:31.3	6.180	-0.090	0.430	0.760
2020/01/31 20:55:31.4	6.150	-0.100	0.450	0.800
2020/01/31 20:55:31.5	6.110	-0.120	0.460	0.830
2020/01/31 20:55:31.6	6.080	-0.130	0.470	0.850
2020/01/31 20:55:31.7	6.050	-0.140	0.480	0.880
2020/01/31 20:55:31.8	6.030	-0.150	0.480	0.890
2020/01/31 20:55:31.9	6.010	-0.160	0.480	0.900
2020/01/31 20:55:32.0	6.000	-0.170	0.470	0.900
2020/01/31 20:55:32.1	5.980	-0.180	0.450	0.890
2020/01/31 20:55:32.2	5.970	-0.180	0.430	0.880
2020/01/31 20:55:32.3	5.970	-0.180	0.410	0.870
2020/01/31 20:55:32.4	5.960	-0.180	0.380	0.850
2020/01/31 20:55:32.5	5.960	-0.170	0.340	0.820
2020/01/31 20:55:32.6	5.970	-0.170	0.300	0.790
2020/01/31 20:55:32.7	5.970	-0.160	0.260	0.760
2020/01/31 20:55:32.8	5.980	-0.140	0.220	0.730
2020/01/31 20:55:32.9	5.990	-0.130	0.170	0.690
2020/01/31 20:55:33.0	6.020	-0.110	0.120	0.650
2020/01/31 20:55:33.1	6.030	-0.090	0.070	0.610
2020/01/31 20:55:33.2	6.050	-0.060	0.010	0.570
2020/01/31 20:55:33.3	6.060	-0.040	-0.040	0.530
2020/01/31 20:55:33.4	6.080	-0.010	-0.090	0.490
2020/01/31 20:55:33.5	6.090	0.020	-0.150	0.450
2020/01/31 20:55:33.6	6.100	0.050	-0.200	0.410
2020/01/31 20:55:33.7	6.120	0.070	-0.250	0.380
2020/01/31 20:55:33.8	6.130	0.100	-0.300	0.340
2020/01/31 20:55:33.9	6.140	0.130	-0.350	0.300
2020/01/31 20:55:34.0	6.140	0.160	-0.400	0.260
2020/01/31 20:55:34.1	6.150	0.190	-0.440	0.230
2020/01/31 20:55:34.2	6.160	0.220	-0.480	0.200
2020/01/31 20:55:34.3	6.170	0.250	-0.520	0.170
2020/01/31 20:55:34.4	6.180	0.270	-0.560	0.140
2020/01/31 20:55:34.5	6.180	0.300	-0.600	0.110
2020/01/31 20:55:34.6	6.190	0.320	-0.630	0.090
2020/01/31 20:55:34.7	6.190	0.340	-0.670	0.070
2020/01/31 20:55:34.8	6.200	0.360	-0.690	0.040
2020/01/31 20:55:34.9	6.200	0.370	-0.720	0.030
2020/01/31 20:55:35.0	6.200	0.390	-0.750	0.010
2020/01/31 20:55:35.1	6.200	0.400	-0.770	-0.000
2020/01/31 20:55:35.2	6.210	0.410	-0.790	-0.010
2020/01/31 20:55:35.3	6.210	0.410	-0.810	-0.030
2020/01/31 20:55:35.4	6.220	0.420	-0.830	-0.040
2020/01/31 20:55:35.5	6.230	0.420	-0.850	-0.040
2020/01/31 20:55:35.6	6.230	0.420	-0.860	-0.050
2020/01/31 20:55:35.7	6.240	0.420	-0.870	-0.060
2020/01/31 20:55:35.8	6.250	0.420	-0.890	-0.070
2020/01/31 20:55:35.9	6.260	0.410	-0.900	-0.080
2020/01/31 20:55:36.0	6.270	0.400	-0.910	-0.090
2020/01/31 20:55:36.1	6.280	0.390	-0.910	-0.100
2020/01/31 20:55:36.2	6.300	0.380	-0.920	-0.110
2020/01/31 20:55:36.3	6.310	0.360	-0.920	-0.120
2020/01/31 20:55:36.4	6.320	0.350	-0.920	-0.130
2020/01/31 20:55:36.5	6.340	0.330	-0.920	-0.150
2020/01/31 20:55:36.6	6.350	0.310	-0.910	-0.160
2020/01/31 20:55:36.7	6.360	0.290	-0.900	-0.180
2020/01/31 20:55:36.8	6.380	0.270	-0.890	-0.190
2020/01/31 20:55:36.9	6.390	0.240	-0.870	-0.210
2020/01/31 20:55:37.0	6.400	0.220	-0.850	-0.230
2020/01/31 20:55:37.1	6.410	0.190	-0.830	-0.250
2020/01/31 20:55:37.2	6.420	0.170	-0.800	-0.270
2020/01/31 20:55:37.3	6.430	0.140	-0.760	-0.300
2020/01/31 20:55:37.4	6.440	0.110	-0.730	-0.320
2020/01/31 20:55:37.5	6.450	0.080	-0.690	-0.350
2020/01/31 20:55:37.6	6.460	0.040	-0.650	-0.370
2020/01/31 20:55:37.7	6.460	0.010	-0.600	-0.390
2020/01/31 20:55:37.8	6.470	-0.020	-0.550	-0.420
2020/01/31 20:55:37.9	6.480	-0.050	-0.490	-0.440
2020/01/31 20:55:38.0	6.500	-0.090	-0.440	-0.460
2020/01/31 20:55:38.1	6.510	-0.120	-0.380	-0.470
2020/01/31 20:55:38.2	6.510	-0.160	-0.320	-0.490
2020/01/31 20:55:38.3	6.510	-0.190	-0.260	-0.500
2020/01/31 20:55:38.4	6.520	-0.230	-0.190	-0.510
2020/01/31 20:55:38.5	6.520	-0.260	-0.130	-0.510
2020/01/31 20:55:38.6	6.520	-0.290	-0.060	-0.520
2020/01/31 20:55:38.7	6.520	-0.330	0.010	-0.520
2020/01/31 20:55:38.8	6.520	-0.360	0.070	-0.510
2020/01/31 20:55:38.9	6.520	-0.390	0.140	-0.500
2020/01/31 20:55:39.0	6.520	-0.420	0.200	-0.490
2020/01/31 20:55:39.1	6.510	-0.450	0.260	-0.480
2020/01/31 20:55:39.2	6.500	-0.480	0.320	-0.460
2020/01/31 20:55:39.3	6.490	-0.510	0.380	-0.440
2020/01/31 20:55:39.4	6.480	-0.530	0.440	-0.420
2020/01/31 20:55:39.5	6.470	-0.560	0.490	-0.400
2020/01/31 20:55:39.6	6.450	-0.580	0.540	-0.380
2020/01/31 20:55:39.7	6.440	-0.590	0.590	-0.350
2020/01/31 20:55:39.8	6.420	-0.610	0.630	-0.330
2020/01/31 20:55:39.9	6.400	-0.620	0.660	-0.300
2020/01/31 20:55:40.0	6.380	-0.630	0.690	-0.270
2020/01/31 20:55:40.1	6.360	-0.640	0.720	-0.240
2020/01/31 20:55:40.2	6.340	-0.650	0.740	-0.210
2020/01/31 20:55:40.3	6.320	-0.650	0.750	-0.180
2020/01/31 20:55:40.4	6.290	-0.640	0.760	-0.140
2020/01/31 20:55:40.5	6.270	-0.630	0.760	-0.110
2020/01/31 20:55:40.6	6.250	-0.620	0.750	-0.070
2020/01/31 20:55:40.7	6.230	-0.610	0.740	-0.030
2020/01/31 20:55:40.8	6.200	-0.590	0.730	0.000
2020/01/31 20:55:40.9	6.180	-0.560	0.700	0.040
2020/01/31 20:55:41.0	6.180	-0.540	0.670	0.080
2020/01/31 20:55:41.1	6.160	-0.510	0.640	0.120
2020/01/31 20:55:41.2	6.140	-0.470	0.600	0.160
2020/01/31 20:55:41.3	6.120	-0.430	0.550	0.200
2020/01/31 20:55:41.4	6.100	-0.390	0.490	0.240
2020/01/31 20:55:41.5	6.080	-0.340	0.430	0.280
2020/01/31 20:55:41.6	6.060	-0.300	0.370	0.320
2020/01/31 20:55:41.7	6.040	-0.250	0.300	0.360
2020/01/31 20:55:41.8	6.030	-0.190	0.230	0.390
2020/01/31 20:55:41.9	6.010	-0.140	0.150	0.420
2020/01/31 20:55:42.0	6.000	-0.090	0.070	0.460
2020/01/31 20:55:42.1	5.980	-0.030	-0.010	0.490
2020/01/31 20:55:42.2	5.970	0.020	-0.100	0.510
2020/01/31 20:55:42.3	5.960	0.080	-0.190	0.540
2020/01/31 20:55:42.4	5.950	0.130	-0.280	0.560
2020/01/31 20:55:42.5	5.940	0.190	-0.370	0.570
2020/01/31 20:55:42.6	5.930	0.240	-0.460	0.590
2020/01/31 20:55:42.7	5.920	0.290	-0.550	0.600
2020/01/31 20:55:42.8	5.920	0.340	-0.640	0.600
2020/01/31 20:55:42.9	5.920	0.390	-0.730	0.600
2020/01/31 20:55:43.0	5.910	0.430	-0.820	0.600
2020/01/31 20:55:43.1	5.920	0.470	-0.900	0.600
2020/01/31 20:55:43.2	5.920	0.510	-0.990	0.590
2020/01/31 20:55:43.3	5.920	0.550	-1.060	0.580
2020/01/31 20:55:43.4	5.930	0.580	-1.140	0.570
2020/01/31 20:55:43.5	5.940	0.610	-1.200	0.550
2020/01/31 20:55:43.6	5.950	0.630	-1.270	0.530
2020/01/31 20:55:43.7	5.960	0.650	-1.320	0.510
2020/01/31 20:55:43.8	5.980	0.670	-1.370	0.480
2020/01/31 20:55:43.9	6.000	0.690	-1.420	0.460
2020/01/31 20:55:44.0	6.010	0.700	-1.450	0.430
2020/01/31 20:55:44.1	6.030	0.700	-1.480	0.400
2020/01/31 20:55:44.2	6.050	0.700	-1.500	0.370
2020/01/31 20:55:44.3	6.070	0.700	-1.510	0.340
2020/01/31 20:55:44.4	6.100	0.700	-1.510	0.310
2020/01/31 20:55:44.5	6.120	0.690	-1.500	0.290
2020/01/31 20:55:44.6	6.140	0.670	-1.480	0.260
2020/01/31 20:55:44.7	6.170	0.660	-1.450	0.230
2020/01/31 20:55:44.8	6.190	0.640	-1.420	0.200
2020/01/31 20:55:44.9	6.210	0.610	-1.370	0.180
2020/01/31 20:55:45.0	6.230	0.590	-1.320	0.150
2020/01/31 20:55:45.1	6.250	0.560	-1.250	0.130
2020/01/31 20:55:45.2	6.270	0.520	-1.180	0.100
2020/01/31 20:55:45.3	6.290	0.490	-1.110	0.080
2020/01/31 20:55:45.4	6.310	0.450	-1.020	0.060
2020/01/31 20:55:45.5	6.330	0.410	-0.940	0.040
2020/01/31 20:55:45.6	6.350	0.370	-0.850	0.030
2020/01/31 20:55:45.7	6.360	0.330	-0.750	0.010
2020/01/31 20:55:45.8	6.380	0.290	-0.650	-0.010
2020/01/31 20:55:45.9	6.400	0.240	-0.550	-0.030
2020/01/31 20:55:46.0	6.390	0.200	-0.460	-0.040
2020/01/31 20:55:46.1	6.400	0.150	-0.360	-0.060
2020/01/31 20:55:46.2	6.420	0.100	-0.260	-0.080
2020/01/31 20:55:46.3	6.430	0.060	-0.160	-0.100
2020/01/31 20:55:46.4	6.440	0.010	-0.070	-0.120
2020/01/31 20:55:46.5	6.450	-0.040	0.020	-0.140
2020/01/31 20:55:46.6	6.460	-0.090	0.110	-0.160
2020/01/31 20:55:46.7	6.460	-0.130	0.190	-0.180
2020/01/31 20:55:46.8	6.470	-0.180	0.270	-0.200
2020/01/31 20:55:46.9	6.470	-0.230	0.340	-0.220
2020/01/31 20:55:47.0	6.480	-0.270	0.410	-0.240
2020/01/31 20:55:47.1	6.470	-0.310	0.480	-0.260
2020/01/31 20:55:47.2	6.470	-0.360	0.530	-0.280
2020/01/31 20:55:47.3	6.460	-0.400	0.580	-0.300
2020/01/31 20:55:47.4	6.450	-0.430	0.630	-0.320
2020/01/31 20:55:47.5	6.440	-0.470	0.660	-0.340
2020/01/31 20:55:47.6	6.430	-0.500	0.690	-0.360
2020/01/31 20:55:47.7	6.420	-0.540	0.720	-0.370
2020/01/31 20:55:47.8	6.400	-0.560	0.730	-0.390
2020/01/31 20:55:47.9	6.390	-0.590	0.750	-0.400
2020/01/31 20:55:48.0	6.370	-0.610	0.750	-0.420
2020/01/31 20:55:48.1	6.350	-0.630	0.750	-0.430
2020/01/31 20:55:48.2	6.340	-0.650	0.740	-0.440
2020/01/31 20:55:48.3	6.320	-0.660	0.730	-0.440
2020/01/31 20:55:48.4	6.300	-0.670	0.710	-0.450
2020/01/31 20:55:48.5	6.280	-0.680	0.680	-0.450
2020/01/31 20:55:48.6	6.260	-0.680	0.650	-0.450
2020/01/31 20:55:48.7	6.240	-0.680	0.620	-0.460
2020/01/31 20:55:48.8	6.220	-0.670	0.580	-0.450
2020/01/31 20:55:48.9	6.210	-0.660	0.540	-0.450
2020/01/31 20:55:49.0	6.170	-0.650	0.490	-0.450
2020/01/31 20:55:49.1	6.160	-0.630	0.440	-0.440
2020/01/31 20:55:49.2	6.140	-0.610	0.390	-0.440
2020/01/31 20:55:49.3	6.130	-0.580	0.330	-0.430
2020/01/31 20:55:49.4	6.120	-0.550	0.260	-0.420
2020/01/31 20:55:49.5	6.100	-0.520	0.200	-0.410
2020/01/31 20:55:49.6	6.090	-0.490	0.130	-0.400
2020/01/31 20:55:49.7	6.080	-0.450	0.060	-0.380
2020/01/31 20:55:49.8	6.080	-0.410	-0.010	-0.370
2020/01/31 20:55:49.9	6.070	-0.360	-0.080	-0.360
2020/01/31 20:55:50.0	6.050	-0.310	-0.160	-0.340
2020/01/31 20:55:50.1	6.050	-0.270	-0.230	-0.330
2020/01/31 20:55:50.2	6.040	-0.220	-0.300	-0.310
2020/01/31 20:55:50.3	6.040	-0.170	-0.370	-0.290
2020/01/31 20:55:50.4	6.040	-0.110	-0.430	-0.270
2020/01/31 20:55:50.5	6.040	-0.060	-0.490	-0.250
2020/01/31 20:55:50.6	6.040	-0.010	-0.550	-0.230
2020/01/31 20:55:50.7	6.040	0.040	-0.600	-0.210
2020/01/31 20:55:50.8	6.040	0.090	-0.650	-0.180
2020/01/31 20:55:50.9	6.040	0.140	-0.690	-0.160
2020/01/31 20:55:51.0	6.050	0.190	-0.730	-0.120
2020/01/31 20:55:51.1	6.050	0.240	-0.760	-0.090
2020/01/31 20:55:51.2	6.040	0.290	-0.780	-0.060
2020/01/31 20:55:51.3	6.040	0.330	-0.800	-0.030
2020/01/31 20:55:51.4	6.040	0.370	-0.810	0.010
2020/01/31 20:55:51.5	6.030	0.400	-0.810	0.050
2020/01/31 20:55:51.6	6.020	0.440	-0.810	0.090
2020/01/31 20:55:51.7	6.010	0.470	-0.800	0.130
2020/01/31 20:55:51.8	6.000	0.490	-0.780	0.170
2020/01/31 20:55:51.9	5.990	0.510	-0.750	0.210
2020/01/31 20:55:52.0	5.980	0.530	-0.730	0.250
2020/01/31 20:55:52.1	5.970	0.550	-0.690	0.300
2020/01/31 20:55:52.2	5.950	0.560	-0.650	0.340
2020/01/31 20:55:52.3	5.940	0.560	-0.610	0.380
2020/01/31 20:55:52.4	5.920	0.560	-0.560	0.420
2020/01/31 20:55:52.5	5.900	0.560	-0.510	0.460
2020/01/31 20:55:52.6	5.890	0.550	-0.450	0.500
2020/01/31 20:55:52.7	5.870	0.540	-0.400	0.540
2020/01/31 20:55:52.8	5.860	0.530	-0.340	0.570
2020/01/31 20:55:52.9	5.840	0.510	-0.290	0.600
2020/01/31 20:55:53.0	5.830	0.490	-0.240	0.630
2020/01/31 20:55:53.1	5.810	0.470	-0.180	0.650
2020/01/31 20:55:53.2	5.800	0.440	-0.130	0.670
2020/01/31 20:55:53.3	5.790	0.410	-0.090	0.680
2020/01/31 20:55:53.4	5.790	0.380	-0.050	0.680
2020/01/31 20:55:53.5	5.780	0.350	-0.010	0.690
2020/01/31 20:55:53.6	5.780	0.310	0.030	0.680
2020/01/31 20:55:53.7	5.780	0.280	0.050	0.680
2020/01/31 20:55:53.8	5.780	0.240	0.080	0.660
2020/01/31 20:55:53.9	5.780	0.200	0.100	0.640
2020/01/31 20:55:54.0	5.790	0.160	0.110	0.620
2020/01/31 20:55:54.1	5.800	0.120	0.110	0.590
2020/01/31 20:55:54.2	5.810	0.080	0.110	0.560
2020/01/31 20:55:54.3	5.820	0.040	0.110	0.520
2020/01/31 20:55:54.4	5.830	0.010	0.090	0.480
2020/01/31 20:55:54.5	5.850	-0.030	0.080	0.440
2020/01/31 20:55:54.6	5.870	-0.060	0.060	0.390
2020/01/31 20:55:54.7	5.890	-0.100	0.030	0.340
2020/01/31 20:55:54.8	5.910	-0.130	-0.000	0.290
2020/01/31 20:55:54.9	5.930	-0.160	-0.040	0.230
2020/01/31 20:55:55.0	5.950	-0.190	-0.080	0.170
2020/01/31 20:55:55.1	5.980	-0.210	-0.130	0.120
2020/01/31 20:55:55.2	6.010	-0.240	-0.170	0.060
2020/01/31 20:55:55.3	6.040	-0.260	-0.220	-0.000
2020/01/31 20:55:55.4	6.070	-0.270	-0.270	-0.060
2020/01/31 20:55:55.5	6.100	-0.290	-0.330	-0.120
2020/01/31 20:55:55.6	6.130	-0.300	-0.380	-0.180
2020/01/31 20:55:55.7	6.160	-0.310	-0.430	-0.230
2020/01/31 20:55:55.8	6.190	-0.320	-0.490	-0.290
2020/01/31 20:55:55.9	6.230	-0.330	-0.540	-0.340
2020/01/31 20:55:56.0	6.260	-0.330	-0.590	-0.390
2020/01/31 20:55:56.1	6.290	-0.330	-0.640	-0.440
2020/01/31 20:55:56.2	6.320	-0.330	-0.680	-0.490
2020/01/31 20:55:56.3	6.340	-0.330	-0.730	-0.530
2020/01/31 20:55:56.4	6.370	-0.320	-0.760	-0.570
2020/01/31 20:55:56.5	6.390	-0.320	-0.800	-0.600
2020/01/31 20:55:56.6	6.420	-0.310	-0.830	-0.630
2020/01/31 20:55:56.7	6.440	-0.300	-0.850	-0.660
2020/01/31 20:55:56.8	6.460	-0.290	-0.870	-0.680
2020/01/31 20:55:56.9	6.470	-0.270	-0.890	-0.690
2020/01/31 20:55:57.0	6.490	-0.260	-0.900	-0.710
2020/01/31 20:55:57.1	6.510	-0.250	-0.900	-0.720
2020/01/31 20:55:57.2	6.520	-0.230	-0.900	-0.720
2020/01/31 20:55:57.3	6.530	-0.220	-0.900	-0.720
2020/01/31 20:55:57.4	6.540	-0.200	-0.890	-0.720
2020/01/31 20:55:57.5	6.540	-0.180	-0.870	-0.710
2020/01/31 20:55:57.6	6.550	-0.170	-0.850	-0.700
2020/01/31 20:55:57.7	6.550	-0.150	-0.830	-0.690
2020/01/31 20:55:57.8	6.550	-0.130	-0.800	-0.670
2020/01/31 20:55:57.9	6.540	-0.120	-0.770	-0.650
2020/01/31 20:55:58.0	6.520	-0.100	-0.740	-0.620
2020/01/31 20:55:58.1	6.520	-0.090	-0.700	-0.590
2020/01/31 20:55:58.2	6.510	-0.070	-0.660	-0.560
2020/01/31 20:55:58.3	6.490	-0.060	-0.610	-0.530
2020/01/31 20:55:58.4	6.480	-0.040	-0.560	-0.490
2020/01/31 20:55:58.5	6.460	-0.030	-0.520	-0.460
2020/01/31 20:55:58.6	6.450	-0.010	-0.470	-0.420
2020/01/31 20:55:58.7	6.430	-0.000	-0.410	-0.370
2020/01/31 20:55:58.8	6.410	0.010	-0.360	-0.330
2020/01/31 20:55:58.9	6.380	0.020	-0.310	-0.280
2020/01/31 20:55:59.0	6.360	0.040	-0.260	-0.240
2020/01/31 20:55:59.1	6.330	0.050	-0.210	-0.190
2020/01/31 20:55:59.2	6.310	0.060	-0.150	-0.130
2020/01/31 20:55:59.3	6.280	0.070	-0.100	-0.080
2020/01/31 20:55:59.4	6.250	0.080	-0.050	-0.030
2020/01/31 20:55:59.5	6.230	0.090	-0.000	0.020
2020/01/31 20:55:59.6	6.200	0.100	0.050	0.070
2020/01/31 20:55:59.7	6.170	0.110	0.090	0.120
2020/01/31 20:55:59.8	6.150	0.110	0.130	0.170
2020/01/31 20:55:59.9	6.120	0.120	0.170	0.220
2020/01/31 20:56:00.0	6.080	0.130	0.210	0.270
2020/01/31 20:56:00.1	6.060	0.140	0.240	0.310
2020/01/31 20:56:00.2	6.030	0.140	0.270	0.350
2020/01/31 20:56:00.3	6.010	0.150	0.300	0.380
2020/01/31 20:56:00.4	5.990	0.150	0.330	0.410
2020/01/31 20:56:00.5	5.970	0.160	0.350	0.440
2020/01/31 20:56:00.6	5.950	0.160	0.360	0.470
2020/01/31 20:56:00.7	5.930	0.170	0.380	0.490
2020/01/31 20:56:00.8	5.910	0.170	0.390	0.510
2020/01/31 20:56:00.9	5.900	0.170	0.390	0.520
2020/01/31 20:56:01.0	5.910	0.170	0.400	0.530
2020/01/31 20:56:01.1	5.900	0.170	0.400	0.540
2020/01/31 20:56:01.2	5.890	0.170	0.400	0.550
2020/01/31 20:56:01.3	5.880	0.170	0.400	0.550
2020/01/31 20:56:01.4	5.870	0.170	0.390	0.540
2020/01/31 20:56:01.5	5.860	0.160	0.380	0.540
2020/01/31 20:56:01.6	5.860	0.160	0.370	0.530
2020/01/31 20:56:01.7	5.850	0.150	0.360	0.520
2020/01/31 20:56:01.8	5.850	0.150	0.340	0.510
2020/01/31 20:56:01.9	5.850	0.140	0.320	0.500
2020/01/31 20:56:02.0	5.850	0.130	0.300	0.480
2020/01/31 20:56:02.1	5.850	0.120	0.280	0.470
2020/01/31 20:56:02.2	5.850	0.120	0.260	0.450
2020/01/31 20:56:02.3	5.850	0.100	0.230	0.430
2020/01/31 20:56:02.4	5.850	0.090	0.210	0.400
2020/01/31 20:56:02.5	5.850	0.080	0.180	0.380
2020/01/31 20:56:02.6	5.850	0.070	0.150	0.350
2020/01/31 20:56:02.7	5.860	0.060	0.110	0.330
2020/01/31 20:56:02.8	5.860	0.050	0.080	0.300
2020/01/31 20:56:02.9	5.870	0.040	0.040	0.270
2020/01/31 20:56:03.0	5.880	0.030	0.010	0.230
2020/01/31 20:56:03.1	5.890	0.010	-0.030	0.200
2020/01/31 20:56:03.2	5.910	0.000	-0.080	0.160
2020/01/31 20:56:03.3	5.920	-0.010	-0.120	0.130
2020/01/31 20:56:03.4	5.930	-0.020	-0.160	0.090
2020/01/31 20:56:03.5	5.950	-0.030	-0.210	0.060
2020/01/31 20:56:03.6	5.960	-0.040	-0.260	0.020
2020/01/31 20:56:03.7	5.980	-0.050	-0.300	-0.010
2020/01/31 20:56:03.8	5.990	-0.050	-0.350	-0.040
2020/01/31 20:56:03.9	6.010	-0.060	-0.400	-0.080
2020/01/31 20:56:04.0	6.020	-0.070	-0.450	-0.110
2020/01/31 20:56:04.1	6.040	-0.080	-0.490	-0.150
2020/01/31 20:56:04.2	6.050	-0.080	-0.540	-0.180
2020/01/31 20:56:04.3	6.060	-0.090	-0.580	-0.210
2020/01/31 20:56:04.4	6.080	-0.100	-0.620	-0.240
2020/01/31 20:56:04.5	6.090	-0.100	-0.660	-0.270
2020/01/31 20:56:04.6	6.100	-0.110	-0.700	-0.290
2020/01/31 20:56:04.7	6.110	-0.110	-0.730	-0.320
2020/01/31 20:56:04.8	6.110	-0.120	-0.760	-0.350
2020/01/31 20:56:04.9	6.120	-0.130	-0.790	-0.370
2020/01/31 20:56:05.0	6.120	-0.130	-0.810	-0.400
2020/01/31 20:56:05.1	6.130	-0.140	-0.830	-0.420
2020/01/31 20:56:05.2	6.130	-0.140	-0.850	-0.440
2020/01/31 20:56:05.3	6.130	-0.140	-0.860	-0.460
2020/01/31 20:56:05.4	6.130	-0.150	-0.870	-0.480
2020/01/31 20:56:05.5	6.120	-0.150	-0.880	-0.500
2020/01/31 20:56:05.6	6.120	-0.150	-0.880	-0.510
2020/01/31 20:56:05.7	6.120	-0.150	-0.870	-0.520
2020/01/31 20:56:05.8	6.120	-0.150	-0.870	-0.530
2020/01/31 20:56:05.9	6.120	-0.150	-0.860	-0.540
2020/01/31 20:56:06.0	6.110	-0.150	-0.840	-0.550
2020/01/31 20:56:06.1	6.110	-0.150	-0.830	-0.560
2020/01/31 20:56:06.2	6.110	-0.140	-0.810	-0.560
2020/01/31 20:56:06.3	6.110	-0.140	-0.780	-0.560
2020/01/31 20:56:06.4	6.110	-0.130	-0.760	-0.560
2020/01/31 20:56:06.5	6.110	-0.120	-0.730	-0.550
2020/01/31 20:56:06.6	6.110	-0.110	-0.700	-0.540
2020/01/31 20:56:06.7	6.110	-0.100	-0.670	-0.530
2020/01/31 20:56:06.8	6.110	-0.080	-0.630	-0.510
2020/01/31 20:56:06.9	6.110	-0.070	-0.590	-0.490
2020/01/31 20:56:07.0	6.100	-0.050	-0.560	-0.460
2020/01/31 20:56:07.1	6.100	-0.040	-0.520	-0.430
2020/01/31 20:56:07.2	6.100	-0.020	-0.480	-0.400
2020/01/31 20:56:07.3	6.100	0.000	-0.440	-0.360
2020/01/31 20:56:07.4	6.090	0.020	-0.400	-0.320
2020/01/31 20:56:07.5	6.090	0.040	-0.360	-0.280
2020/01/31 20:56:07.6	6.080	0.060	-0.320	-0.230
2020/01/31 20:56:07.7	6.080	0.080	-0.280	-0.180
2020/01/31 20:56:07.8	6.070	0.100	-0.250	-0.140
2020/01/31 20:56:07.9	6.070	0.120	-0.210	-0.090
2020/01/31 20:56:08.0	6.060	0.140	-0.170	-0.040
2020/01/31 20:56:08.1	6.050	0.150	-0.140	0.010
2020/01/31 20:56:08.2	6.040	0.170	-0.110	0.060
2020/01/31 20:56:08.3	6.040	0.180	-0.080	0.100
2020/01/31 20:56:08.4	6.030	0.200	-0.050	0.150
2020/01/31 20:56:08.5	6.020	0.210	-0.020	0.190
2020/01/31 20:56:08.6	6.020	0.220	-0.000	0.240
2020/01/31 20:56:08.7	6.010	0.230	0.020	0.280
2020/01/31 20:56:08.8	6.010	0.240	0.040	0.310
2020/01/31 20:56:08.9	6.000	0.240	0.060	0.350
2020/01/31 20:56:09.0	6.010	0.240	0.070	0.390
2020/01/31 20:56:09.1	6.010	0.250	0.080	0.420
2020/01/31 20:56:09.2	6.000	0.240	0.090	0.450
2020/01/31 20:56:09.3	6.000	0.240	0.100	0.480
2020/01/31 20:56:09.4	5.990	0.240	0.110	0.510
2020/01/31 20:56:09.5	5.990	0.230	0.110	0.540
2020/01/31 20:56:09.6	5.990	0.220	0.120	0.560
2020/01/31 20:56:09.7	5.990	0.210	0.120	0.590
2020/01/31 20:56:09.8	5.980	0.190	0.120	0.610
2020/01/31 20:56:09.9	5.980	0.180	0.120	0.630
2020/01/31 20:56:10.0	5.990	0.160	0.130	0.640
2020/01/31 20:56:10.1	5.990	0.140	0.120	0.660
2020/01/31 20:56:10.2	5.990	0.120	0.120	0.670
2020/01/31 20:56:10.3	5.990	0.100	0.110	0.680
2020/01/31 20:56:10.4	5.990	0.080	0.110	0.690
2020/01/31 20:56:10.5	5.990	0.060	0.100	0.690
2020/01/31 20:56:10.6	5.990	0.030	0.090	0.690
2020/01/31 20:56:10.7	5.990	0.010	0.080	0.690
2020/01/31 20:56:10.8	5.990	-0.020	0.070	0.690
2020/01/31 20:56:10.9	5.990	-0.040	0.060	0.680
2020/01/31 20:56:11.0	5.990	-0.070	0.040	0.670
2020/01/31 20:56:11.1	5.990	-0.090	0.030	0.660
2020/01/31 20:56:11.2	5.990	-0.110	0.010	0.640
2020/01/31 20:56:11.3	5.990	-0.140	-0.010	0.620
2020/01/31 20:56:11.4	5.990	-0.160	-0.030	0.600
2020/01/31 20:56:11.5	5.990	-0.180	-0.050	0.580
2020/01/31 20:56:11.6	5.990	-0.200	-0.080	0.550
2020/01/31 20:56:11.7	5.990	-0.210	-0.100	0.530
2020/01/31 20:56:11.8	5.990	-0.230	-0.130	0.500
2020/01/31 20:56:11.9	5.990	-0.240	-0.160	0.470
2020/01/31 20:56:12.0	5.970	-0.250	-0.190	0.430
2020/01/31 20:56:12.1	5.970	-0.250	-0.220	0.400
2020/01/31 20:56:12.2	5.970	-0.260	-0.250	0.370
2020/01/31 20:56:12.3	5.970	-0.250	-0.280	0.340
2020/01/31 20:56:12.4	5.970	-0.250	-0.310	0.310
2020/01/31 20:56:12.5	5.970	-0.240	-0.350	0.280
2020/01/31 20:56:12.6	5.980	-0.230	-0.380	0.250
2020/01/31 20:56:12.7	5.980	-0.220	-0.410	0.220
2020/01/31 20:56:12.8	5.980	-0.210	-0.450	0.190
2020/01/31 20:56:12.9	5.980	-0.190	-0.480	0.170
2020/01/31 20:56:13.0	5.980	-0.170	-0.510	0.140
2020/01/31 20:56:13.1	5.980	-0.150	-0.540	0.120
2020/01/31 20:56:13.2	5.980	-0.130	-0.570	0.090
2020/01/31 20:56:13.3	5.980	-0.100	-0.600	0.070
2020/01/31 20:56:13.4	5.980	-0.070	-0.620	0.050
2020/01/31 20:56:13.5	5.970	-0.050	-0.650	0.030
2020/01/31 20:56:13.6	5.960	-0.020	-0.670	0.020
2020/01/31 20:56:13.7	5.960	0.010	-0.680	0.000
2020/01/31 20:56:13.8	5.950	0.030	-0.700	-0.010
2020/01/31 20:56:13.9	5.940	0.060	-0.710	-0.020
2020/01/31 20:56:14.0	5.940	0.090	-0.720	-0.030
2020/01/31 20:56:14.1	5.920	0.110	-0.730	-0.040
2020/01/31 20:56:14.2	5.910	0.130	-0.730	-0.050
2020/01/31 20:56:14.3	5.890	0.150	-0.730	-0.060
2020/01/31 20:56:14.4	5.880	0.170	-0.720	-0.070
2020/01/31 20:56:14.5	5.860	0.190	-0.710	-0.070
2020/01/31 20:56:14.6	5.840	0.210	-0.700	-0.080
2020/01/31 20:56:14.7	5.830	0.220	-0.680	-0.090
2020/01/31 20:56:14.8	5.810	0.230	-0.660	-0.100
2020/01/31 20:56:14.9	5.800	0.240	-0.640	-0.110
2020/01/31 20:56:15.0	5.790	0.240	-0.620	-0.120
2020/01/31 20:56:15.1	5.780	0.240	-0.590	-0.140
2020/01/31 20:56:15.2	5.770	0.240	-0.560	-0.150
2020/01/31 20:56:15.3	5.760	0.240	-0.530	-0.160
2020/01/31 20:56:15.4	5.760	0.230	-0.490	-0.180
2020/01/31 20:56:15.5	5.760	0.220	-0.460	-0.200
2020/01/31 20:56:15.6	5.760	0.210	-0.420	-0.210
2020/01/31 20:56:15.7	5.760	0.190	-0.380	-0.230
2020/01/31 20:56:15.8	5.770	0.180	-0.340	-0.250
2020/01/31 20:56:15.9	5.780	0.160	-0.300	-0.270
2020/01/31 20:56:16.0	5.790	0.140	-0.260	-0.290
2020/01/31 20:56:16.1	5.810	0.120	-0.220	-0.320
2020/01/31 20:56:16.2	5.830	0.100	-0.180	-0.340
2020/01/31 20:56:16.3	5.860	0.080	-0.150	-0.360
2020/01/31 20:56:16.4	5.880	0.050	-0.110	-0.390
2020/01/31 20:56:16.5	5.910	0.030	-0.080	-0.410
2020/01/31 20:56:16.6	5.950	0.000	-0.040	-0.430
2020/01/31 20:56:16.7	5.980	-0.020	-0.010	-0.450
2020/01/31 20:56:16.8	6.020	-0.040	0.020	-0.470
2020/01/31 20:56:16.9	6.060	-0.070	0.050	-0.490
2020/01/31 20:56:17.0	6.080	-0.090	0.070	-0.510
2020/01/31 20:56:17.1	6.120	-0.110	0.100	-0.520
2020/01/31 20:56:17.2	6.150	-0.130	0.120	-0.530
2020/01/31 20:56:17.3	6.190	-0.160	0.140	-0.540
2020/01/31 20:56:17.4	6.220	-0.180	0.170	-0.540
2020/01/31 20:56:17.5	6.250	-0.190	0.190	-0.540
2020/01/31 20:56:17.6	6.280	-0.210	0.210	-0.530
2020/01/31 20:56:17.7	6.300	-0.230	0.230	-0.530
2020/01/31 20:56:17.8	6.320	-0.250	0.250	-0.510
2020/01/31 20:56:17.9	6.340	-0.260	0.270	-0.490
2020/01/31 20:56:18.0	6.340	-0.270	0.280	-0.470
2020/01/31 20:56:18.1	6.350	-0.280	0.300	-0.450
2020/01/31 20:56:18.2	6.360	-0.290	0.310	-0.420
2020/01/31 20:56:18.3	6.360	-0.300	0.330	-0.380
2020/01/31 20:56:18.4	6.350	-0.300	0.340	-0.340
2020/01/31 20:56:18.5	6.340	-0.300	0.350	-0.290
2020/01/31 20:56:18.6	6.320	-0.300	0.360	-0.240
2020/01/31 20:56:18.7	6.300	-0.300	0.370	-0.180
2020/01/31 20:56:18.8	6.270	-0.300	0.380	-0.120
2020/01/31 20:56:18.9	6.240	-0.290	0.380	-0.060
2020/01/31 20:56:19.0	6.200	-0.280	0.380	0.010
2020/01/31 20:56:19.1	6.170	-0.270	0.380	0.080
2020/01/31 20:56:19.2	6.130	-0.250	0.380	0.140
2020/01/31 20:56:19.3	6.080	-0.240	0.370	0.210
2020/01/31 20:56:19.4	6.040	-0.220	0.350	0.280
2020/01/31 20:56:19.5	6.000	-0.200	0.330	0.350
2020/01/31 20:56:19.6	5.950	-0.170	0.310	0.420
2020/01/31 20:56:19.7	5.910	-0.150	0.280	0.480
2020/01/31 20:56:19.8	5.870	-0.120	0.250	0.550
2020/01/31 20:56:19.9	5.830	-0.090	0.210	0.610
2020/01/31 20:56:20.0	5.790	-0.050	0.160	0.660
2020/01/31 20:56:20.1	5.760	-0.020	0.110	0.710
2020/01/31 20:56:20.2	5.730	0.020	0.050	0.760
2020/01/31 20:56:20.3	5.700	0.060	-0.010	0.800
2020/01/31 20:56:20.4	5.670	0.100	-0.080	0.830
2020/01/31 20:56:20.5	5.640	0.140	-0.150	0.850
2020/01/31 20:56:20.6	5.620	0.180	-0.220	0.880
2020/01/31 20:56:20.7	5.600	0.220	-0.300	0.890
2020/01/31 20:56:20.8	5.590	0.270	-0.380	0.900
2020/01/31 20:56:20.9	5.580	0.310	-0.460	0.900
2020/01/31 20:56:21.0	5.570	0.350	-0.540	0.900
2020/01/31 20:56:21.1	5.560	0.390	-0.620	0.890
2020/01/31 20:56:21.2	5.550	0.430	-0.700	0.880
2020/01/31 20:56:21.3	5.540	0.470	-0.780	0.870
2020/01/31 20:56:21.4	5.540	0.500	-0.850	0.850
2020/01/31 20:56:21.5	5.540	0.530	-0.920	0.830
2020/01/31 20:56:21.6	5.540	0.560	-0.990	0.800
2020/01/31 20:56:21.7	5.540	0.590	-1.050	0.770
2020/01/31 20:56:21.8	5.540	0.610	-1.100	0.740
2020/01/31 20:56:21.9	5.550	0.620	-1.150	0.700
2020/01/31 20:56:22.0	5.560	0.630	-1.190	0.660
2020/01/31 20:56:22.1	5.570	0.640	-1.230	0.620
2020/01/31 20:56:22.2	5.580	0.640	-1.250	0.570
2020/01/31 20:56:22.3	5.590	0.640	-1.270	0.520
2020/01/31 20:56:22.4	5.600	0.630	-1.270	0.470
2020/01/31 20:56:22.5	5.610	0.610	-1.270	0.420
2020/01/31 20:56:22.6	5.630	0.590	-1.270	0.360
2020/01/31 20:56:22.7	5.650	0.560	-1.250	0.300
2020/01/31 20:56:22.8	5.660	0.530	-1.230	0.240
2020/01/31 20:56:22.9	5.680	0.490	-1.200	0.180
2020/01/31 20:56:23.0	5.710	0.450	-1.160	0.110
2020/01/31 20:56:23.1	5.740	0.400	-1.120	0.050
2020/01/31 20:56:23.2	5.760	0.350	-1.070	-0.020
2020/01/31 20:56:23.3	5.790	0.300	-1.010	-0.080
2020/01/31 20:56:23.4	5.810	0.240	-0.950	-0.150
2020/01/31 20:56:23.5	5.840	0.170	-0.890	-0.220
2020/01/31 20:56:23.6	5.870	0.110	-0.830	-0.280
2020/01/31 20:56:23.7	5.900	0.040	-0.760	-0.340
2020/01/31 20:56:23.8	5.920	-0.030	-0.680	-0.410
2020/01/31 20:56:23.9	5.950	-0.100	-0.610	-0.470
2020/01/31 20:56:24.0	5.980	-0.170	-0.540	-0.530
2020/01/31 20:56:24.1	6.010	-0.240	-0.460	-0.580
2020/01/31 20:56:24.2	6.040	-0.310	-0.390	-0.640
2020/01/31 20:56:24.3	6.070	-0.380	-0.310	-0.690
2020/01/31 20:56:24.4	6.090	-0.450	-0.240	-0.740
2020/01/31 20:56:24.5	6.120	-0.520	-0.170	-0.790
2020/01/31 20:56:24.6	6.150	-0.580	-0.100	-0.830
2020/01/31 20:56:24.7	6.180	-0.640	-0.030	-0.870
2020/01/31 20:56:24.8	6.210	-0.700	0.030	-0.910
2020/01/31 20:56:24.9	6.230	-0.750	0.090	-0.940
2020/01/31 20:56:25.0	6.250	-0.800	0.140	-0.970
2020/01/31 20:56:25.1	6.280	-0.840	0.200	-1.000
2020/01/31 20:56:25.2	6.300	-0.870	0.240	-1.020
2020/01/31 20:56:25.3	6.320	-0.900	0.290	-1.040
2020/01/31 20:56:25.4	6.340	-0.930	0.330	-1.050
2020/01/31 20:56:25.5	6.370	-0.950	0.360	-1.060
2020/01/31 20:56:25.6	6.380	-0.960	0.390	-1.060
2020/01/31 20:56:25.7	6.400	-0.960	0.410	-1.070
2020/01/31 20:56:25.8	6.420	-0.960	0.430	-1.060
2020/01/31 20:56:25.9	6.430	-0.950	0.440	-1.050
2020/01/31 20:56:26.0	6.450	-0.940	0.450	-1.040
2020/01/31 20:56:26.1	6.460	-0.920	0.450	-1.020
2020/01/31 20:56:26.2	6.470	-0.890	0.450	-1.000
2020/01/31 20:56:26.3	6.470	-0.860	0.440	-0.970
2020/01/31 20:56:26.4	6.470	-0.820	0.430	-0.940
2020/01/31 20:56:26.5	6.480	-0.780	0.420	-0.910
2020/01/31 20:56:26.6	6.470	-0.730	0.400	-0.870
2020/01/31 20:56:26.7	6.470	-0.670	0.380	-0.820
2020/01/31 20:56:26.8	6.460	-0.610	0.360	-0.780
2020/01/31 20:56:26.9	6.460	-0.550	0.340	-0.730
2020/01/31 20:56:27.0	6.450	-0.490	0.310	-0.670
2020/01/31 20:56:27.1	6.440	-0.420	0.280	-0.620
2020/01/31 20:56:27.2	6.420	-0.350	0.250	-0.560
2020/01/31 20:56:27.3	6.410	-0.280	0.220	-0.500
2020/01/31 20:56:27.4	6.390	-0.200	0.190	-0.430
2020/01/31 20:56:27.5	6.370	-0.130	0.160	-0.360
2020/01/31 20:56:27.6	6.350	-0.060	0.130	-0.290
2020/01/31 20:56:27.7	6.330	0.020	0.100	-0.220
2020/01/31 20:56:27.8	6.300	0.090	0.060	-0.150
2020/01/31 20:56:27.9	6.280	0.170	0.030	-0.070
2020/01/31 20:56:28.0	6.240	0.240	-0.000	0.010
2020/01/31 20:56:28.1	6.220	0.310	-0.030	0.090
2020/01/31 20:56:28.2	6.190	0.370	-0.060	0.160
2020/01/31 20:56:28.3	6.160	0.440	-0.090	0.240
2020/01/31 20:56:28.4	6.130	0.500	-0.120	0.310
2020/01/31 20:56:28.5	6.100	0.550	-0.150	0.390
2020/01/31 20:56:28.6	6.070	0.610	-0.180	0.460
2020/01/31 20:56:28.7	6.040	0.660	-0.200	0.520
2020/01/31 20:56:28.8	6.010	0.700	-0.230	0.590
2020/01/31 20:56:28.9	5.980	0.740	-0.250	0.650
2020/01/31 20:56:29.0	5.940	0.770	-0.280	0.700
2020/01/31 20:56:29.1	5.910	0.800	-0.300	0.760
2020/01/31 20:56:29.2	5.890	0.830	-0.320	0.800
2020/01/31 20:56:29.3	5.860	0.850	-0.340	0.840
2020/01/31 20:56:29.4	5.830	0.860	-0.350	0.870
2020/01/31 20:56:29.5	5.810	0.870	-0.370	0.900
2020/01/31 20:56:29.6	5.790	0.880	-0.380	0.910
2020/01/31 20:56:29.7	5.770	0.880	-0.390	0.920
2020/01/31 20:56:29.8	5.750	0.870	-0.400	0.930
2020/01/31 20:56:29.9	5.730	0.860	-0.410	0.930
2020/01/31 20:56:30.0	5.710	0.850	-0.420	0.920
2020/01/31 20:56:30.1	5.690	0.830	-0.420	0.900
2020/01/31 20:56:30.2	5.680	0.800	-0.430	0.880
2020/01/31 20:56:30.3	5.670	0.770	-0.430	0.860
2020/01/31 20:56:30.4	5.660	0.740	-0.430	0.820
2020/01/31 20:56:30.5	5.650	0.710	-0.440	0.780
2020/01/31 20:56:30.6	5.650	0.670	-0.440	0.740
2020/01/31 20:56:30.7	5.640	0.620	-0.440	0.690
2020/01/31 20:56:30.8	5.640	0.580	-0.440	0.630
2020/01/31 20:56:30.9	5.640	0.530	-0.440	0.570
2020/01/31 20:56:31.0	5.630	0.480	-0.440	0.500
2020/01/31 20:56:31.1	5.630	0.430	-0.440	0.440
2020/01/31 20:56:31.2	5.640	0.370	-0.440	0.360
2020/01/31 20:56:31.3	5.640	0.320	-0.440	0.290
2020/01/31 20:56:31.4	5.650	0.260	-0.430	0.210
2020/01/31 20:56:31.5	5.660	0.200	-0.430	0.130
2020/01/31 20:56:31.6	5.680	0.150	-0.430	0.050
2020/01/31 20:56:31.7	5.690	0.090	-0.430	-0.030
2020/01/31 20:56:31.8	5.710	0.030	-0.430	-0.120
2020/01/31 20:56:31.9	5.730	-0.030	-0.430	-0.200
2020/01/31 20:56:32.0	5.740	-0.080	-0.430	-0.290
2020/01/31 20:56:32.1	5.760	-0.140	-0.430	-0.380
2020/01/31 20:56:32.2	5.790	-0.190	-0.430	-0.460
2020/01/31 20:56:32.3	5.810	-0.240	-0.440	-0.550
2020/01/31 20:56:32.4	5.840	-0.280	-0.450	-0.630
2020/01/31 20:56:32.5	5.880	-0.330	-0.450	-0.720
2020/01/31 20:56:32.6	5.910	-0.370	-0.460	-0.800
2020/01/31 20:56:32.7	5.950	-0.410	-0.470	-0.880
2020/01/31 20:56:32.8	5.990	-0.440	-0.480	-0.960
2020/01/31 20:56:32.9	6.030	-0.470	-0.490	-1.030
2020/01/31 20:56:33.0	6.080	-0.500	-0.500	-1.100
2020/01/31 20:56:33.1	6.130	-0.520	-0.510	-1.170
2020/01/31 20:56:33.2	6.170	-0.540	-0.520	-1.230
2020/01/31 20:56:33.3	6.220	-0.560	-0.530	-1.280
2020/01/31 20:56:33.4	6.260	-0.570	-0.530	-1.330
2020/01/31 20:56:33.5	6.310	-0.570	-0.540	-1.380
2020/01/31 20:56:33.6	6.360	-0.580	-0.540	-1.420
2020/01/31 20:56:33.7	6.400	-0.580	-0.550	-1.460
2020/01/31 20:56:33.8	6.450	-0.580	-0.550	-1.490
2020/01/31 20:56:33.9	6.490	-0.570	-0.550	-1.510
2020/01/31 20:56:34.0	6.550	-0.560	-0.550	-1.530
2020/01/31 20:56:34.1	6.590	-0.550	-0.540	-1.540
2020/01/31 20:56:34.2	6.630	-0.540	-0.530	-1.550
2020/01/31 20:56:34.3	6.680	-0.530	-0.520	-1.560
2020/01/31 20:56:34.4	6.710	-0.510	-0.510	-1.560
2020/01/31 20:56:34.5	6.750	-0.490	-0.500	-1.550
2020/01/31 20:56:34.6	6.790	-0.470	-0.480	-1.540
2020/01/31 20:56:34.7	6.820	-0.450	-0.470	-1.520
2020/01/31 20:56:34.8	6.840	-0.430	-0.450	-1.500
2020/01/31 20:56:34.9	6.870	-0.400	-0.420	-1.480
2020/01/31 20:56:35.0	6.890	-0.380	-0.400	-1.450
2020/01/31 20:56:35.1	6.900	-0.360	-0.380	-1.410
2020/01/31 20:56:35.2	6.910	-0.330	-0.350	-1.360
2020/01/31 20:56:35.3	6.920	-0.310	-0.320	-1.320
2020/01/31 20:56:35.4	6.930	-0.290	-0.290	-1.260
2020/01/31 20:56:35.5	6.920	-0.260	-0.260	-1.200
2020/01/31 20:56:35.6	6.920	-0.240	-0.230	-1.140
2020/01/31 20:56:35.7	6.910	-0.220	-0.200	-1.070
2020/01/31 20:56:35.8	6.890	-0.200	-0.170	-1.000
2020/01/31 20:56:35.9	6.870	-0.180	-0.140	-0.920
2020/01/31 20:56:36.0	6.860	-0.160	-0.110	-0.830
2020/01/31 20:56:36.1	6.830	-0.140	-0.090	-0.750
2020/01/31 20:56:36.2	6.800	-0.130	-0.060	-0.670
2020/01/31 20:56:36.3	6.770	-0.110	-0.040	-0.590
2020/01/31 20:56:36.4	6.730	-0.100	-0.010	-0.500
2020/01/31 20:56:36.5	6.700	-0.090	0.010	-0.420
2020/01/31 20:56:36.6	6.660	-0.070	0.030	-0.340
2020/01/31 20:56:36.7	6.620	-0.060	0.040	-0.260
2020/01/31 20:56:36.8	6.580	-0.050	0.050	-0.180
2020/01/31 20:56:36.9	6.540	-0.040	0.060	-0.100
2020/01/31 20:56:37.0	6.500	-0.030	0.060	-0.030
2020/01/31 20:56:37.1	6.460	-0.020	0.060	0.030
2020/01/31 20:56:37.2	6.430	-0.010	0.050	0.090
2020/01/31 20:56:37.3	6.390	0.000	0.040	0.150
2020/01/31 20:56:37.4	6.360	0.010	0.030	0.200
2020/01/31 20:56:37.5	6.330	0.030	0.010	0.250
2020/01/31 20:56:37.6	6.300	0.040	-0.010	0.290
2020/01/31 20:56:37.7	6.280	0.050	-0.030	0.320
2020/01/31 20:56:37.8	6.250	0.070	-0.060	0.350
2020/01/31 20:56:37.9	6.230	0.090	-0.090	0.380
2020/01/31 20:56:38.0	6.220	0.100	-0.110	0.400
2020/01/31 20:56:38.1	6.200	0.120	-0.140	0.410
2020/01/31 20:56:38.2	6.190	0.140	-0.180	0.420
2020/01/31 20:56:38.3	6.170	0.170	-0.210	0.430
2020/01/31 20:56:38.4	6.160	0.190	-0.250	0.440
2020/01/31 20:56:38.5	6.150	0.210	-0.280	0.440
2020/01/31 20:56:38.6	6.140	0.240	-0.310	0.440
2020/01/31 20:56:38.7	6.140	0.260	-0.340	0.440
2020/01/31 20:56:38.8	6.130	0.290	-0.370	0.440
2020/01/31 20:56:38.9	6.130	0.320	-0.390	0.430
2020/01/31 20:56:39.0	6.130	0.340	-0.410	0.430
2020/01/31 20:56:39.1	6.130	0.370	-0.430	0.430
2020/01/31 20:56:39.2	6.120	0.390	-0.440	0.420
2020/01/31 20:56:39.3	6.120	0.420	-0.450	0.420
2020/01/31 20:56:39.4	6.120	0.440	-0.450	0.410
2020/01/31 20:56:39.5	6.120	0.460	-0.440	0.410
2020/01/31 20:56:39.6	6.110	0.480	-0.440	0.400
2020/01/31 20:56:39.7	6.110	0.490	-0.420	0.400
2020/01/31 20:56:39.8	6.110	0.510	-0.400	0.400
2020/01/31 20:56:39.9	6.100	0.520	-0.380	0.400
2020/01/31 20:56:40.0	6.100	0.520	-0.350	0.390
2020/01/31 20:56:40.1	6.090	0.530	-0.320	0.390
2020/01/31 20:56:40.2	6.090	0.530	-0.280	0.390
2020/01/31 20:56:40.3	6.080	0.530	-0.240	0.390
2020/01/31 20:56:40.4	6.080	0.520	-0.200	0.390
2020/01/31 20:56:40.5	6.070	0.510	-0.160	0.390
2020/01/31 20:56:40.6	6.070	0.500	-0.120	0.390
2020/01/31 20:56:40.7	6.060	0.480	-0.070	0.390
2020/01/31 20:56:40.8	6.060	0.460	-0.030	0.390
2020/01/31 20:56:40.9	6.060	0.440	0.010	0.390
2020/01/31 20:56:41.0	6.040	0.420	0.050	0.380
2020/01/31 20:56:41.1	6.040	0.390	0.090	0.370
2020/01/31 20:56:41.2	6.040	0.360	0.130	0.370
2020/01/31 20:56:41.3	6.040	0.320	0.160	0.360
2020/01/31 20:56:41.4	6.040	0.290	0.190	0.340
2020/01/31 20:56:41.5	6.050	0.250	0.210	0.320
2020/01/31 20:56:41.6	6.050	0.210	0.230	0.310
2020/01/31 20:56:41.7	6.060	0.170	0.240	0.280
2020/01/31 20:56:41.8	6.060	0.130	0.250	0.260
2020/01/31 20:56:41.9	6.070	0.090	0.260	0.230
2020/01/31 20:56:42.0	6.090	0.040	0.260	0.200
2020/01/31 20:56:42.1	6.100	0.000	0.250	0.170
2020/01/31 20:56:42.2	6.110	-0.040	0.240	0.140
2020/01/31 20:56:42.3	6.120	-0.080	0.230	0.100
2020/01/31 20:56:42.4	6.130	-0.120	0.210	0.060
2020/01/31 20:56:42.5	6.140	-0.160	0.180	0.030
2020/01/31 20:56:42.6	6.160	-0.190	0.150	-0.010
2020/01/31 20:56:42.7	6.170	-0.230	0.120	-0.050
2020/01/31 20:56:42.8	6.190	-0.260	0.090	-0.090
2020/01/31 20:56:42.9	6.200	-0.290	0.050	-0.130
2020/01/31 20:56:43.0	6.210	-0.320	0.010	-0.180
2020/01/31 20:56:43.1	6.220	-0.340	-0.030	-0.210
2020/01/31 20:56:43.2	6.230	-0.370	-0.080	-0.250
2020/01/31 20:56:43.3	6.240	-0.380	-0.120	-0.280
2020/01/31 20:56:43.4	6.250	-0.400	-0.160	-0.310
2020/01/31 20:56:43.5	6.250	-0.420	-0.210	-0.340
2020/01/31 20:56:43.6	6.260	-0.430	-0.250	-0.370
2020/01/31 20:56:43.7	6.260	-0.440	-0.300	-0.400
2020/01/31 20:56:43.8	6.270	-0.440	-0.340	-0.420
2020/01/31 20:56:43.9	6.270	-0.440	-0.380	-0.440
2020/01/31 20:56:44.0	6.250	-0.450	-0.420	-0.450
2020/01/31 20:56:44.1	6.250	-0.440	-0.450	-0.460
2020/01/31 20:56:44.2	6.250	-0.440	-0.490	-0.470
2020/01/31 20:56:44.3	6.240	-0.440	-0.520	-0.480
2020/01/31 20:56:44.4	6.240	-0.430	-0.560	-0.480
2020/01/31 20:56:44.5	6.240	-0.420	-0.580	-0.480
2020/01/31 20:56:44.6	6.230	-0.410	-0.610	-0.480
2020/01/31 20:56:44.7	6.230	-0.390	-0.640	-0.480
2020/01/31 20:56:44.8	6.220	-0.380	-0.670	-0.480
2020/01/31 20:56:44.9	6.220	-0.360	-0.690	-0.470
2020/01/31 20:56:45.0	6.200	-0.340	-0.720	-0.460
2020/01/31 20:56:45.1	6.200	-0.330	-0.740	-0.460
2020/01/31 20:56:45.2	6.200	-0.310	-0.760	-0.450
2020/01/31 20:56:45.3	6.190	-0.290	-0.780	-0.440
2020/01/31 20:56:45.4	6.190	-0.270	-0.790	-0.430
2020/01/31 20:56:45.5	6.190	-0.240	-0.810	-0.420
2020/01/31 20:56:45.6	6.190	-0.220	-0.830	-0.410
2020/01/31 20:56:45.7	6.190	-0.200	-0.840	-0.400
2020/01/31 20:56:45.8	6.190	-0.180	-0.860	-0.390
2020/01/31 20:56:45.9	6.200	-0.150	-0.870	-0.380
2020/01/31 20:56:46.0	6.210	-0.130	-0.880	-0.370
2020/01/31 20:56:46.1	6.210	-0.110	-0.880	-0.370
2020/01/31 20:56:46.2	6.220	-0.080	-0.890	-0.360
2020/01/31 20:56:46.3	6.220	-0.060	-0.890	-0.350
2020/01/31 20:56:46.4	6.230	-0.040	-0.890	-0.340
2020/01/31 20:56:46.5	6.240	-0.020	-0.890	-0.330
2020/01/31 20:56:46.6	6.240	0.010	-0.890	-0.320
2020/01/31 20:56:46.7	6.250	0.030	-0.880	-0.310
2020/01/31 20:56:46.8	6.260	0.050	-0.870	-0.300
2020/01/31 20:56:46.9	6.270	0.070	-0.860	-0.290
2020/01/31 20:56:47.0	6.290	0.090	-0.840	-0.270
2020/01/31 20:56:47.1	6.300	0.110	-0.820	-0.260
2020/01/31 20:56:47.2	6.310	0.120	-0.790	-0.250
2020/01/31 20:56:47.3	6.320	0.140	-0.760	-0.240
2020/01/31 20:56:47.4	6.330	0.160	-0.730	-0.220
2020/01/31 20:56:47.5	6.340	0.170	-0.700	-0.210
2020/01/31 20:56:47.6	6.350	0.180	-0.660	-0.190
2020/01/31 20:56:47.7	6.360	0.200	-0.620	-0.180
2020/01/31 20:56:47.8	6.370	0.210	-0.570	-0.160
2020/01/31 20:56:47.9	6.380	0.220	-0.520	-0.150
2020/01/31 20:56:48.0	6.390	0.230	-0.480	-0.130
2020/01/31 20:56:48.1	6.400	0.230	-0.420	-0.110
2020/01/31 20:56:48.2	6.410	0.240	-0.370	-0.090
2020/01/31 20:56:48.3	6.420	0.250	-0.310	-0.080
2020/01/31 20:56:48.4	6.430	0.250	-0.260	-0.060
2020/01/31 20:56:48.5	6.440	0.250	-0.200	-0.040
2020/01/31 20:56:48.6	6.450	0.260	-0.140	-0.020
2020/01/31 20:56:48.7	6.450	0.260	-0.080	0.000
2020/01/31 20:56:48.8	6.460	0.260	-0.020	0.020
2020/01/31 20:56:48.9	6.470	0.260	0.030	0.040
2020/01/31 20:56:49.0	6.480	0.260	0.090	0.060
2020/01/31 20:56:49.1	6.490	0.260	0.140	0.090
2020/01/31 20:56:49.2	6.490	0.260	0.190	0.110
2020/01/31 20:56:49.3	6.500	0.250	0.240	0.130
2020/01/31 20:56:49.4	6.510	0.250	0.280	0.140
2020/01/31 20:56:49.5	6.520	0.250	0.320	0.160
2020/01/31 20:56:49.6	6.520	0.240	0.360	0.180
2020/01/31 20:56:49.7	6.530	0.240	0.390	0.200
2020/01/31 20:56:49.8	6.540	0.230	0.420	0.210
2020/01/31 20:56:49.9	6.540	0.230	0.440	0.230
2020/01/31 20:56:50.0	6.540	0.220	0.460	0.250
2020/01/31 20:56:50.1	6.550	0.220	0.470	0.260
2020/01/31 20:56:50.2	6.550	0.210	0.480	0.280
2020/01/31 20:56:50.3	6.550	0.200	0.480	0.290
2020/01/31 20:56:50.4	6.550	0.200	0.480	0.300
2020/01/31 20:56:50.5	6.540	0.190	0.470	0.320
2020/01/31 20:56:50.6	6.540	0.180	0.460	0.330
2020/01/31 20:56:50.7	6.530	0.180	0.440	0.340
2020/01/31 20:56:50.8	6.520	0.170	0.420	0.350
2020/01/31 20:56:50.9	6.500	0.160	0.390	0.360
2020/01/31 20:56:51.0	6.480	0.150	0.360	0.370
2020/01/31 20:56:51.1	6.460	0.150	0.330	0.370
2020/01/31 20:56:51.2	6.440	0.140	0.290	0.380
2020/01/31 20:56:51.3	6.430	0.130	0.250	0.380
2020/01/31 20:56:51.4	6.410	0.130	0.200	0.380
2020/01/31 20:56:51.5	6.390	0.120	0.160	0.370
2020/01/31 20:56:51.6	6.370	0.110	0.110	0.370
2020/01/31 20:56:51.7	6.350	0.110	0.060	0.360
2020/01/31 20:56:51.8	6.330	0.100	0.010	0.350
2020/01/31 20:56:51.9	6.310	0.100	-0.050	0.340
2020/01/31 20:56:52.0	6.300	0.090	-0.100	0.330
2020/01/31 20:56:52.1	6.280	0.090	-0.150	0.310
2020/01/31 20:56:52.2	6.260	0.090	-0.200	0.290
2020/01/31 20:56:52.3	6.240	0.080	-0.250	0.270
2020/01/31 20:56:52.4	6.220	0.080	-0.300	0.250
2020/01/31 20:56:52.5	6.200	0.070	-0.340	0.230
2020/01/31 20:56:52.6	6.190	0.070	-0.380	0.210
2020/01/31 20:56:52.7	6.170	0.060	-0.420	0.180
2020/01/31 20:56:52.8	6.150	0.060	-0.460	0.150
2020/01/31 20:56:52.9	6.130	0.050	-0.490	0.130
2020/01/31 20:56:53.0	6.130	0.040	-0.520	0.100
2020/01/31 20:56:53.1	6.110	0.030	-0.540	0.080
2020/01/31 20:56:53.2	6.100	0.030	-0.550	0.050
2020/01/31 20:56:53.3	6.080	0.020	-0.570	0.030
2020/01/31 20:56:53.4	6.060	0.000	-0.570	0.000
2020/01/31 20:56:53.5	6.050	-0.010	-0.580	-0.020
2020/01/31 20:56:53.6	6.040	-0.020	-0.570	-0.040
2020/01/31 20:56:53.7	6.020	-0.030	-0.570	-0.060
2020/01/31 20:56:53.8	6.010	-0.050	-0.550	-0.080
2020/01/31 20:56:53.9	6.000	-0.070	-0.540	-0.100
2020/01/31 20:56:54.0	5.980	-0.080	-0.520	-0.120
2020/01/31 20:56:54.1	5.970	-0.100	-0.490	-0.140
2020/01/31 20:56:54.2	5.960	-0.120	-0.460	-0.160
2020/01/31 20:56:54.3	5.950	-0.140	-0.430	-0.170
2020/01/31 20:56:54.4	5.940	-0.160	-0.400	-0.190
2020/01/31 20:56:54.5	5.940	-0.180	-0.360	-0.200
2020/01/31 20:56:54.6	5.930	-0.210	-0.330	-0.220
2020/01/31 20:56:54.7	5.930	-0.230	-0.290	-0.230
2020/01/31 20:56:54.8	5.930	-0.250	-0.250	-0.240
2020/01/31 20:56:54.9	5.920	-0.270	-0.210	-0.250
2020/01/31 20:56:55.0	5.920	-0.290	-0.170	-0.260
2020/01/31 20:56:55.1	5.920	-0.310	-0.140	-0.270
2020/01/31 20:56:55.2	5.920	-0.330	-0.100	-0.280
2020/01/31 20:56:55.3	5.920	-0.350	-0.060	-0.290
2020/01/31 20:56:55.4	5.920	-0.360	-0.030	-0.290
2020/01/31 20:56:55.5	5.920	-0.380	0.010	-0.300
2020/01/31 20:56:55.6	5.920	-0.390	0.030	-0.310
2020/01/31 20:56:55.7	5.930	-0.400	0.060	-0.320
2020/01/31 20:56:55.8	5.930	-0.410	0.080	-0.320
2020/01/31 20:56:55.9	5.930	-0.410	0.090	-0.330
2020/01/31 20:56:56.0	5.930	-0.410	0.110	-0.340
2020/01/31 20:56:56.1	5.940	-0.410	0.110	-0.340
2020/01/31 20:56:56.2	5.940	-0.410	0.120	-0.340
2020/01/31 20:56:56.3	5.940	-0.400	0.110	-0.350
2020/01/31 20:56:56.4	5.950	-0.390	0.110	-0.350
2020/01/31 20:56:56.5	5.950	-0.380	0.090	-0.350
2020/01/31 20:56:56.6	5.960	-0.360	0.080	-0.360
2020/01/31 20:56:56.7	5.960	-0.340	0.050	-0.360
2020/01/31 20:56:56.8	5.970	-0.320	0.020	-0.360
2020/01/31 20:56:56.9	5.980	-0.290	-0.010	-0.360
2020/01/31 20:56:57.0	5.990	-0.260	-0.050	-0.360
2020/01/31 20:56:57.1	6.000	-0.230	-0.090	-0.350
2020/01/31 20:56:57.2	6.010	-0.200	-0.130	-0.350
2020/01/31 20:56:57.3	6.020	-0.170	-0.180	-0.350
2020/01/31 20:56:57.4	6.030	-0.130	-0.230	-0.340
2020/01/31 20:56:57.5	6.040	-0.100	-0.280	-0.340
2020/01/31 20:56:57.6	6.060	-0.060	-0.340	-0.330
2020/01/31 20:56:57.7	6.070	-0.020	-0.390	-0.320
2020/01/31 20:56:57.8	6.080	0.020	-0.450	-0.320
2020/01/31 20:56:57.9	6.090	0.060	-0.500	-0.310
2020/01/31 20:56:58.0	6.090	0.090	-0.560	-0.300
2020/01/31 20:56:58.1	6.100	0.130	-0.620	-0.290
2020/01/31 20:56:58.2	6.110	0.170	-0.670	-0.280
2020/01/31 20:56:58.3	6.130	0.200	-0.720	-0.270
2020/01/31 20:56:58.4	6.140	0.230	-0.770	-0.260
2020/01/31 20:56:58.5	6.150	0.260	-0.820	-0.260
2020/01/31 20:56:58.6	6.160	0.290	-0.860	-0.250
2020/01/31 20:56:58.7	6.170	0.310	-0.900	-0.240
2020/01/31 20:56:58.8	6.180	0.330	-0.940	-0.240
2020/01/31 20:56:58.9	6.190	0.350	-0.970	-0.230
2020/01/31 20:56:59.0	6.200	0.370	-0.990	-0.220
2020/01/31 20:56:59.1	6.210	0.380	-1.010	-0.220
2020/01/31 20:56:59.2	6.220	0.390	-1.030	-0.220
2020/01/31 20:56:59.3	6.230	0.390	-1.040	-0.210
2020/01/31 20:56:59.4	6.240	0.390	-1.050	-0.210
2020/01/31 20:56:59.5	6.250	0.390	-1.050	-0.210
2020/01/31 20:56:59.6	6.250	0.390	-1.040	-0.200
2020/01/31 20:56:59.7	6.260	0.380	-1.030	-0.200
2020/01/31 20:56:59.8	6.270	0.370	-1.020	-0.200
2020/01/31 20:56:59.9	6.280	0.350	-1.000	-0.200
2020/01/31 20:57:00.0	6.300	0.340	-0.980	-0.200
2020/01/31 20:57:00.1	6.310	0.320	-0.950	-0.200
2020/01/31 20:57:00.2	6.320	0.300	-0.920	-0.200
2020/01/31 20:57:00.3	6.330	0.270	-0.890	-0.200
2020/01/31 20:57:00.4	6.340	0.250	-0.850	-0.200
2020/01/31 20:57:00.5	6.360	0.220	-0.800	-0.200
2020/01/31 20:57:00.6	6.370	0.190	-0.760	-0.210
2020/01/31 20:57:00.7	6.380	0.160	-0.710	-0.210
2020/01/31 20:57:00.8	6.400	0.130	-0.660	-0.210
2020/01/31 20:57:00.9	6.410	0.100	-0.610	-0.220
2020/01/31 20:57:01.0	6.420	0.070	-0.560	-0.220
2020/01/31 20:57:01.1	6.430	0.040	-0.500	-0.230
2020/01/31 20:57:01.2	6.440	0.010	-0.450	-0.230
2020/01/31 20:57:01.3	6.450	-0.020	-0.390	-0.230
2020/01/31 20:57:01.4	6.470	-0.050	-0.340	-0.230
2020/01/31 20:57:01.5	6.480	-0.080	-0.280	-0.230
2020/01/31 20:57:01.6	6.480	-0.100	-0.230	-0.230
2020/01/31 20:57:01.7	6.490	-0.130	-0.170	-0.230
2020/01/31 20:57:01.8	6.500	-0.150	-0.120	-0.230
2020/01/31 20:57:01.9	6.500	-0.170	-0.060	-0.220
2020/01/31 20:57:02.0	6.510	-0.190	-0.010	-0.220
2020/01/31 20:57:02.1	6.510	-0.200	0.040	-0.210
2020/01/31 20:57:02.2	6.510	-0.210	0.090	-0.200
2020/01/31 20:57:02.3	6.510	-0.220	0.130	-0.180
2020/01/31 20:57:02.4	6.500	-0.230	0.180	-0.160
2020/01/31 20:57:02.5	6.500	-0.240	0.220	-0.140
2020/01/31 20:57:02.6	6.490	-0.240	0.260	-0.120
2020/01/31 20:57:02.7	6.480	-0.240	0.300	-0.090
2020/01/31 20:57:02.8	6.470	-0.230	0.340	-0.070
2020/01/31 20:57:02.9	6.450	-0.230	0.380	-0.030
2020/01/31 20:57:03.0	6.420	-0.220	0.410	0.000
2020/01/31 20:57:03.1	6.410	-0.200	0.440	0.040
2020/01/31 20:57:03.2	6.380	-0.190	0.460	0.080
2020/01/31 20:57:03.3	6.360	-0.170	0.490	0.120
2020/01/31 20:57:03.4	6.330	-0.150	0.500	0.170
2020/01/31 20:57:03.5	6.300	-0.130	0.520	0.210
2020/01/31 20:57:03.6	6.270	-0.110	0.530	0.260
2020/01/31 20:57:03.7	6.240	-0.090	0.540	0.310
2020/01/31 20:57:03.8	6.210	-0.060	0.550	0.350
2020/01/31 20:57:03.9	6.170	-0.030	0.550	0.400
2020/01/31 20:57:04.0	6.150	-0.010	0.550	0.450
2020/01/31 20:57:04.1	6.110	0.020	0.550	0.500
2020/01/31 20:57:04.2	6.070	0.050	0.540	0.550
2020/01/31 20:57:04.3	6.040	0.080	0.520	0.590
2020/01/31 20:57:04.4	6.000	0.110	0.510	0.640
2020/01/31 20:57:04.5	5.960	0.140	0.490	0.680
2020/01/31 20:57:04.6	5.930	0.170	0.460	0.720
2020/01/31 20:57:04.7	5.900	0.200	0.430	0.750
2020/01/31 20:57:04.8	5.860	0.230	0.400	0.790
2020/01/31 20:57:04.9	5.830	0.260	0.370	0.820
2020/01/31 20:57:05.0	5.810	0.280	0.330	0.850
2020/01/31 20:57:05.1	5.780	0.310	0.290	0.870
2020/01/31 20:57:05.2	5.750	0.330	0.250	0.890
2020/01/31 20:57:05.3	5.720	0.350	0.210	0.910
2020/01/31 20:57:05.4	5.690	0.370	0.160	0.920
2020/01/31 20:57:05.5	5.670	0.390	0.110	0.930
2020/01/31 20:57:05.6	5.640	0.410	0.070	0.940
2020/01/31 20:57:05.7	5.620	0.420	0.020	0.950
2020/01/31 20:57:05.8	5.600	0.430	-0.030	0.950
2020/01/31 20:57:05.9	5.580	0.440	-0.070	0.950
2020/01/31 20:57:06.0	5.570	0.450	-0.120	0.940
2020/01/31 20:57:06.1	5.550	0.450	-0.170	0.940
2020/01/31 20:57:06.2	5.530	0.450	-0.210	0.920
2020/01/31 20:57:06.3	5.520	0.440	-0.250	0.910
2020/01/31 20:57:06.4	5.500	0.440	-0.300	0.890
2020/01/31 20:57:06.5	5.490	0.430	-0.330	0.870
2020/01/31 20:57:06.6	5.490	0.420	-0.370	0.840
2020/01/31 20:57:06.7	5.480	0.400	-0.410	0.810
2020/01/31 20:57:06.8	5.480	0.380	-0.450	0.780
2020/01/31 20:57:06.9	5.480	0.360	-0.480	0.740
2020/01/31 20:57:07.0	5.500	0.330	-0.510	0.690
2020/01/31 20:57:07.1	5.510	0.310	-0.540	0.640
2020/01/31 20:57:07.2	5.520	0.280	-0.570	0.590
2020/01/31 20:57:07.3	5.540	0.250	-0.600	0.530
2020/01/31 20:57:07.4	5.560	0.210	-0.630	0.470
2020/01/31 20:57:07.5	5.580	0.180	-0.660	0.400
2020/01/31 20:57:07.6	5.600	0.140	-0.680	0.330
2020/01/31 20:57:07.7	5.630	0.100	-0.700	0.250
2020/01/31 20:57:07.8	5.660	0.070	-0.730	0.180
2020/01/31 20:57:07.9	5.690	0.030	-0.750	0.100
2020/01/31 20:57:08.0	5.730	-0.010	-0.770	0.010
2020/01/31 20:57:08.1	5.770	-0.050	-0.780	-0.070
2020/01/31 20:57:08.2	5.800	-0.090	-0.790	-0.160
2020/01/31 20:57:08.3	5.840	-0.130	-0.810	-0.240
2020/01/31 20:57:08.4	5.880	-0.170	-0.810	-0.320
2020/01/31 20:57:08.5	5.910	-0.210	-0.820	-0.400
2020/01/31 20:57:08.6	5.950	-0.250	-0.820	-0.480
2020/01/31 20:57:08.7	5.990	-0.280	-0.820	-0.550
2020/01/31 20:57:08.8	6.030	-0.320	-0.810	-0.620
2020/01/31 20:57:08.9	6.060	-0.350	-0.810	-0.690
2020/01/31 20:57:09.0	6.100	-0.390	-0.800	-0.750
2020/01/31 20:57:09.1	6.140	-0.420	-0.780	-0.810
2020/01/31 20:57:09.2	6.170	-0.440	-0.770	-0.860
2020/01/31 20:57:09.3	6.200	-0.470	-0.740	-0.910
2020/01/31 20:57:09.4	6.230	-0.500	-0.720	-0.960
2020/01/31 20:57:09.5	6.260	-0.520	-0.700	-1.000
2020/01/31 20:57:09.6	6.280	-0.540	-0.670	-1.030
2020/01/31 20:57:09.7	6.310	-0.560	-0.640	-1.060
2020/01/31 20:57:09.8	6.330	-0.570	-0.610	-1.080
2020/01/31 20:57:09.9	6.350	-0.590	-0.580	-1.100
2020/01/31 20:57:10.0	6.380	-0.600	-0.540	-1.110
2020/01/31 20:57:10.1	6.400	-0.610	-0.510	-1.120
2020/01/31 20:57:10.2	6.410	-0.610	-0.480	-1.130
2020/01/31 20:57:10.3	6.430	-0.610	-0.440	-1.130
2020/01/31 20:57:10.4	6.440	-0.610	-0.410	-1.130
2020/01/31 20:57:10.5	6.460	-0.610	-0.380	-1.130
2020/01/31 20:57:10.6	6.470	-0.610	-0.360	-1.120
2020/01/31 20:57:10.7	6.480	-0.600	-0.330	-1.110
2020/01/31 20:57:10.8	6.490	-0.590	-0.310	-1.100
2020/01/31 20:57:10.9	6.500	-0.570	-0.290	-1.090
2020/01/31 20:57:11.0	6.500	-0.550	-0.270	-1.070
2020/01/31 20:57:11.1	6.510	-0.530	-0.250	-1.050
2020/01/31 20:57:11.2	6.520	-0.510	-0.240	-1.030
2020/01/31 20:57:11.3	6.540	-0.490	-0.230	-1.010
2020/01/31 20:57:11.4	6.550	-0.460	-0.220	-0.990
2020/01/31 20:57:11.5	6.560	-0.430	-0.210	-0.960
2020/01/31 20:57:11.6	6.570	-0.400	-0.210	-0.940
2020/01/31 20:57:11.7	6.580	-0.370	-0.210	-0.910
2020/01/31 20:57:11.8	6.590	-0.330	-0.210	-0.880
2020/01/31 20:57:11.9	6.600	-0.290	-0.210	-0.850
2020/01/31 20:57:12.0	6.610	-0.260	-0.210	-0.820
2020/01/31 20:57:12.1	6.620	-0.220	-0.210	-0.790
2020/01/31 20:57:12.2	6.630	-0.180	-0.210	-0.760
2020/01/31 20:57:12.3	6.640	-0.140	-0.210	-0.720
2020/01/31 20:57:12.4	6.640	-0.100	-0.220	-0.680
2020/01/31 20:57:12.5	6.650	-0.060	-0.220	-0.640
2020/01/31 20:57:12.6	6.650	-0.020	-0.220	-0.600
2020/01/31 20:57:12.7	6.650	0.020	-0.220	-0.550
2020/01/31 20:57:12.8	6.650	0.060	-0.210	-0.500
2020/01/31 20:57:12.9	6.640	0.090	-0.210	-0.450
2020/01/31 20:57:13.0	6.620	0.120	-0.210	-0.390
2020/01/31 20:57:13.1	6.610	0.160	-0.200	-0.330
2020/01/31 20:57:13.2	6.590	0.180	-0.180	-0.270
2020/01/31 20:57:13.3	6.570	0.210	-0.170	-0.210
2020/01/31 20:57:13.4	6.550	0.240	-0.160	-0.140
2020/01/31 20:57:13.5	6.520	0.260	-0.140	-0.080
2020/01/31 20:57:13.6	6.490	0.270	-0.120	-0.010
2020/01/31 20:57:13.7	6.460	0.290	-0.100	0.060
2020/01/31 20:57:13.8	6.430	0.300	-0.080	0.120
2020/01/31 20:57:13.9	6.390	0.310	-0.060	0.190
2020/01/31 20:57:14.0	6.350	0.320	-0.040	0.250
2020/01/31 20:57:14.1	6.320	0.320	-0.020	0.320
2020/01/31 20:57:14.2	6.280	0.320	0.010	0.380
2020/01/31 20:57:14.3	6.240	0.320	0.030	0.430
2020/01/31 20:57:14.4	6.200	0.320	0.040	0.490
2020/01/31 20:57:14.5	6.160	0.320	0.060	0.540
2020/01/31 20:57:14.6	6.120	0.310	0.080	0.590
2020/01/31 20:57:14.7	6.080	0.310	0.090	0.630
2020/01/31 20:57:14.8	6.040	0.300	0.100	0.670
2020/01/31 20:57:14.9	6.000	0.290	0.110	0.710
2020/01/31 20:57:15.0	5.960	0.280	0.110	0.740
2020/01/31 20:57:15.1	5.930	0.270	0.110	0.760
2020/01/31 20:57:15.2	5.890	0.260	0.110	0.780
2020/01/31 20:57:15.3	5.860	0.260	0.110	0.800
2020/01/31 20:57:15.4	5.830	0.250	0.100	0.810
2020/01/31 20:57:15.5	5.800	0.240	0.080	0.820
2020/01/31 20:57:15.6	5.780	0.240	0.070	0.820
2020/01/31 20:57:15.7	5.750	0.240	0.050	0.820
2020/01/31 20:57:15.8	5.730	0.240	0.020	0.810
2020/01/31 20:57:15.9	5.710	0.240	-0.000	0.800
2020/01/31 20:57:16.0	5.690	0.240	-0.030	0.790
2020/01/31 20:57:16.1	5.670	0.240	-0.060	0.760
2020/01/31 20:57:16.2	5.650	0.250	-0.100	0.740
2020/01/31 20:57:16.3	5.640	0.250	-0.130	0.710
2020/01/31 20:57:16.4	5.630	0.260	-0.170	0.680
2020/01/31 20:57:16.5	5.630	0.270	-0.210	0.640
2020/01/31 20:57:16.6	5.620	0.290	-0.260	0.590
2020/01/31 20:57:16.7	5.620	0.300	-0.300	0.550
2020/01/31 20:57:16.8	5.620	0.310	-0.340	0.500
2020/01/31 20:57:16.9	5.630	0.330	-0.380	0.450
2020/01/31 20:57:17.0	5.620	0.340	-0.430	0.400
2020/01/31 20:57:17.1	5.630	0.360	-0.470	0.340
2020/01/31 20:57:17.2	5.640	0.370	-0.510	0.290
2020/01/31 20:57:17.3	5.650	0.390	-0.550	0.240
2020/01/31 20:57:17.4	5.660	0.400	-0.590	0.180
2020/01/31 20:57:17.5	5.680	0.420	-0.620	0.130
2020/01/31 20:57:17.6	5.700	0.430	-0.660	0.080
2020/01/31 20:57:17.7	5.710	0.440	-0.690	0.030
2020/01/31 20:57:17.8	5.740	0.460	-0.710	-0.020
2020/01/31 20:57:17.9	5.760	0.470	-0.730	-0.070
2020/01/31 20:57:18.0	5.800	0.470	-0.760	-0.120
2020/01/31 20:57:18.1	5.820	0.480	-0.770	-0.170
2020/01/31 20:57:18.2	5.850	0.480	-0.780	-0.210
2020/01/31 20:57:18.3	5.880	0.480	-0.790	-0.260
2020/01/31 20:57:18.4	5.910	0.480	-0.790	-0.300
2020/01/31 20:57:18.5	5.940	0.470	-0.780	-0.340
2020/01/31 20:57:18.6	5.970	0.470	-0.770	-0.380
2020/01/31 20:57:18.7	6.000	0.450	-0.760	-0.410
2020/01/31 20:57:18.8	6.030	0.440	-0.740	-0.450
2020/01/31 20:57:18.9	6.070	0.420	-0.720	-0.480
2020/01/31 20:57:19.0	6.100	0.400	-0.690	-0.510
2020/01/31 20:57:19.1	6.140	0.380	-0.660	-0.540
2020/01/31 20:57:19.2	6.170	0.360	-0.630	-0.560
2020/01/31 20:57:19.3	6.210	0.330	-0.590	-0.590
2020/01/31 20:57:19.4	6.240	0.300	-0.550	-0.610
2020/01/31 20:57:19.5	6.270	0.260	-0.500	-0.620
2020/01/31 20:57:19.6	6.300	0.230	-0.460	-0.640
2020/01/31 20:57:19.7	6.330	0.190	-0.410	-0.650
2020/01/31 20:57:19.8	6.350	0.150	-0.350	-0.650
2020/01/31 20:57:19.9	6.380	0.110	-0.300	-0.650
2020/01/31 20:57:20.0	6.400	0.070	-0.250	-0.650
2020/01/31 20:57:20.1	6.410	0.030	-0.190	-0.640
2020/01/31 20:57:20.2	6.430	-0.010	-0.130	-0.620
2020/01/31 20:57:20.3	6.440	-0.060	-0.070	-0.600
2020/01/31 20:57:20.4	6.450	-0.100	-0.010	-0.580
2020/01/31 20:57:20.5	6.460	-0.150	0.050	-0.560
2020/01/31 20:57:20.6	6.460	-0.190	0.110	-0.530
2020/01/31 20:57:20.7	6.460	-0.240	0.160	-0.500
2020/01/31 20:57:20.8	6.460	-0.280	0.220	-0.470
2020/01/31 20:57:20.9	6.460	-0.320	0.270	-0.450
2020/01/31 20:57:21.0	6.450	-0.370	0.320	-0.410
2020/01/31 20:57:21.1	6.440	-0.410	0.370	-0.380
2020/01/31 20:57:21.2	6.430	-0.450	0.410	-0.350
2020/01/31 20:57:21.3	6.420	-0.490	0.450	-0.320
2020/01/31 20:57:21.4	6.400	-0.530	0.490	-0.290
2020/01/31 20:57:21.5	6.390	-0.560	0.520	-0.270
2020/01/31 20:57:21.6	6.370	-0.600	0.540	-0.240
2020/01/31 20:57:21.7	6.350	-0.630	0.560	-0.210
2020/01/31 20:57:21.8	6.330	-0.660	0.580	-0.190
2020/01/31 20:57:21.9	6.310	-0.680	0.590	-0.160
2020/01/31 20:57:22.0	6.300	-0.710	0.590	-0.140
2020/01/31 20:57:22.1	6.270	-0.730	0.580	-0.120
2020/01/31 20:57:22.2	6.250	-0.740	0.570	-0.100
2020/01/31 20:57:22.3	6.230	-0.760	0.560	-0.070
2020/01/31 20:57:22.4	6.200	-0.770	0.540	-0.050
2020/01/31 20:57:22.5	6.180	-0.770	0.510	-0.030
2020/01/31 20:57:22.6	6.150	-0.780	0.470	-0.010
2020/01/31 20:57:22.7	6.130	-0.780	0.430	0.000
2020/01/31 20:57:22.8	6.100	-0.770	0.390	0.020
2020/01/31 20:57:22.9	6.070	-0.770	0.340	0.040
2020/01/31 20:57:23.0	6.040	-0.760	0.290	0.050
2020/01/31 20:57:23.1	6.010	-0.740	0.230	0.070
2020/01/31 20:57:23.2	5.990	-0.720	0.170	0.080
2020/01/31 20:57:23.3	5.960	-0.700	0.100	0.090
2020/01/31 20:57:23.4	5.940	-0.680	0.040	0.100
2020/01/31 20:57:23.5	5.910	-0.650	-0.030	0.110
2020/01/31 20:57:23.6	5.890	-0.620	-0.100	0.120
2020/01/31 20:57:23.7	5.860	-0.590	-0.170	0.130
2020/01/31 20:57:23.8	5.830	-0.550	-0.240	0.130
2020/01/31 20:57:23.9	5.810	-0.510	-0.310	0.140
2020/01/31 20:57:24.0	5.790	-0.470	-0.380	0.140
2020/01/31 20:57:24.1	5.770	-0.430	-0.450	0.140
2020/01/31 20:57:24.2	5.740	-0.380	-0.510	0.150
2020/01/31 20:57:24.3	5.720	-0.340	-0.580	0.150
2020/01/31 20:57:24.4	5.690	-0.290	-0.640	0.150
2020/01/31 20:57:24.5	5.670	-0.240	-0.700	0.150
2020/01/31 20:57:24.6	5.640	-0.190	-0.750	0.160
2020/01/31 20:57:24.7	5.620	-0.140	-0.810	0.160
2020/01/31 20:57:24.8	5.600	-0.090	-0.850	0.160
2020/01/31 20:57:24.9	5.570	-0.040	-0.900	0.160
2020/01/31 20:57:25.0	5.570	0.020	-0.930	0.170
2020/01/31 20:57:25.1	5.550	0.070	-0.970	0.170
2020/01/31 20:57:25.2	5.530	0.120	-1.000	0.170
2020/01/31 20:57:25.3	5.510	0.160	-1.020	0.170
2020/01/31 20:57:25.4	5.500	0.210	-1.040	0.170
2020/01/31 20:57:25.5	5.480	0.260	-1.050	0.170
2020/01/31 20:57:25.6	5.470	0.300	-1.060	0.160
2020/01/31 20:57:25.7	5.460	0.340	-1.060	0.160
2020/01/31 20:57:25.8	5.460	0.380	-1.060	0.160
2020/01/31 20:57:25.9	5.460	0.420	-1.060	0.150
2020/01/31 20:57:26.0	5.470	0.450	-1.050	0.140
2020/01/31 20:57:26.1	5.470	0.480	-1.040	0.130
2020/01/31 20:57:26.2	5.480	0.510	-1.030	0.110
2020/01/31 20:57:26.3	5.490	0.530	-1.010	0.100
2020/01/31 20:57:26.4	5.510	0.560	-0.990	0.080
2020/01/31 20:57:26.5	5.530	0.570	-0.970	0.060
2020/01/31 20:57:26.6	5.560	0.590	-0.940	0.030
2020/01/31 20:57:26.7	5.590	0.600	-0.920	0.010
2020/01/31 20:57:26.8	5.620	0.610	-0.890	-0.020
2020/01/31 20:57:26.9	5.650	0.610	-0.860	-0.050
2020/01/31 20:57:27.0	5.700	0.610	-0.830	-0.070
2020/01/31 20:57:27.1	5.750	0.610	-0.800	-0.100
2020/01/31 20:57:27.2	5.790	0.600	-0.760	-0.130
2020/01/31 20:57:27.3	5.830	0.590	-0.720	-0.160
2020/01/31 20:57:27.4	5.870	0.570	-0.680	-0.190
2020/01/31 20:57:27.5	5.910	0.560	-0.640	-0.210
2020/01/31 20:57:27.6	5.950	0.530	-0.600	-0.240
2020/01/31 20:57:27.7	5.990	0.510	-0.550	-0.260
2020/01/31 20:57:27.8	6.030	0.480	-0.500	-0.280
2020/01/31 20:57:27.9	6.060	0.450	-0.450	-0.300
2020/01/31 20:57:28.0	6.080	0.420	-0.400	-0.320
2020/01/31 20:57:28.1	6.110	0.380	-0.350	-0.330
2020/01/31 20:57:28.2	6.140	0.340	-0.290	-0.340
2020/01/31 20:57:28.3	6.170	0.310	-0.230	-0.340
2020/01/31 20:57:28.4	6.190	0.270	-0.180	-0.340
2020/01/31 20:57:28.5	6.210	0.230	-0.120	-0.340
2020/01/31 20:57:28.6	6.220	0.180	-0.060	-0.330
2020/01/31 20:57:28.7	6.230	0.140	0.000	-0.320
2020/01/31 20:57:28.8	6.240	0.100	0.060	-0.310
2020/01/31 20:57:28.9	6.240	0.070	0.120	-0.290
2020/01/31 20:57:29.0	6.240	0.030	0.180	-0.270
2020/01/31 20:57:29.1	6.230	-0.010	0.230	-0.240
2020/01/31 20:57:29.2	6.230	-0.040	0.290	-0.220
2020/01/31 20:57:29.3	6.220	-0.070	0.340	-0.180
2020/01/31 20:57:29.4	6.210	-0.100	0.380	-0.150
2020/01/31 20:57:29.5	6.200	-0.130	0.430	-0.120
2020/01/31 20:57:29.6	6.190	-0.160	0.460	-0.090
2020/01/31 20:57:29.7	6.180	-0.180	0.490	-0.050
2020/01/31 20:57:29.8	6.160	-0.190	0.520	-0.020
2020/01/31 20:57:29.9	6.140	-0.210	0.540	0.010
2020/01/31 20:57:30.0	6.110	-0.220	0.550	0.050
2020/01/31 20:57:30.1	6.090	-0.220	0.560	0.080
2020/01/31 20:57:30.2	6.070	-0.230	0.560	0.110
2020/01/31 20:57:30.3	6.050	-0.230	0.550	0.140
2020/01/31 20:57:30.4	6.020	-0.220	0.540	0.170
2020/01/31 20:57:30.5	6.000	-0.220	0.510	0.190
2020/01/31 20:57:30.6	5.980	-0.210	0.490	0.210
2020/01/31 20:57:30.7	5.960	-0.190	0.450	0.240
2020/01/31 20:57:30.8	5.930	-0.180	0.410	0.250
2020/01/31 20:57:30.9	5.910	-0.160	0.360	0.270
2020/01/31 20:57:31.0	5.890	-0.140	0.320	0.280
2020/01/31 20:57:31.1	5.870	-0.120	0.260	0.290
2020/01/31 20:57:31.2	5.850	-0.100	0.200	0.300
2020/01/31 20:57:31.3	5.830	-0.070	0.130	0.300
2020/01/31 20:57:31.4	5.810	-0.050	0.070	0.300
2020/01/31 20:57:31.5	5.790	-0.020	-0.000	0.300
2020/01/31 20:57:31.6	5.780	0.010	-0.070	0.290
2020/01/31 20:57:31.7	5.770	0.030	-0.150	0.280
2020/01/31 20:57:31.8	5.760	0.060	-0.220	0.270
2020/01/31 20:57:31.9	5.750	0.090	-0.290	0.250
2020/01/31 20:57:32.0	5.730	0.110	-0.370	0.230
2020/01/31 20:57:32.1	5.730	0.130	-0.440	0.210
2020/01/31 20:57:32.2	5.720	0.160	-0.500	0.180
2020/01/31 20:57:32.3	5.720	0.180	-0.560	0.150
2020/01/31 20:57:32.4	5.720	0.190	-0.620	0.120
2020/01/31 20:57:32.5	5.730	0.210	-0.680	0.090
2020/01/31 20:57:32.6	5.730	0.220	-0.730	0.060
2020/01/31 20:57:32.7	5.740	0.230	-0.770	0.020
2020/01/31 20:57:32.8	5.740	0.240	-0.800	-0.010
2020/01/31 20:57:32.9	5.750	0.240	-0.830	-0.040
2020/01/31 20:57:33.0	5.770	0.240	-0.840	-0.080
2020/01/31 20:57:33.1	5.780	0.240	-0.850	-0.110
2020/01/31 20:57:33.2	5.790	0.230	-0.850	-0.140
2020/01/31 20:57:33.3	5.800	0.220	-0.840	-0.170
2020/01/31 20:57:33.4	5.810	0.210	-0.830	-0.210
2020/01/31 20:57:33.5	5.820	0.190	-0.800	-0.230
2020/01/31 20:57:33.6	5.830	0.170	-0.770	-0.260
2020/01/31 20:57:33.7	5.840	0.140	-0.730	-0.290
2020/01/31 20:57:33.8	5.860	0.120	-0.680	-0.310
2020/01/31 20:57:33.9	5.870	0.090	-0.620	-0.330
2020/01/31 20:57:34.0	5.880	0.060	-0.570	-0.350
2020/01/31 20:57:34.1	5.890	0.020	-0.500	-0.370
2020/01/31 20:57:34.2	5.900	-0.010	-0.430	-0.390
2020/01/31 20:57:34.3	5.910	-0.050	-0.360	-0.400
2020/01/31 20:57:34.4	5.920	-0.090	-0.280	-0.410
2020/01/31 20:57:34.5	5.920	-0.130	-0.200	-0.420
2020/01/31 20:57:34.6	5.930	-0.170	-0.130	-0.420
2020/01/31 20:57:34.7	5.930	-0.210	-0.050	-0.430
2020/01/31 20:57:34.8	5.940	-0.250	0.030	-0.430
2020/01/31 20:57:34.9	5.940	-0.290	0.100	-0.430
2020/01/31 20:57:35.0	5.950	-0.330	0.170	-0.430
2020/01/31 20:57:35.1	5.950	-0.370	0.240	-0.430
2020/01/31 20:57:35.2	5.950	-0.410	0.300	-0.430
2020/01/31 20:57:35.3	5.950	-0.440	0.350	-0.420
2020/01/31 20:57:35.4	5.950	-0.480	0.400	-0.420
2020/01/31 20:57:35.5	5.950	-0.500	0.440	-0.420
2020/01/31 20:57:35.6	5.960	-0.530	0.480	-0.410
2020/01/31 20:57:35.7	5.960	-0.550	0.500	-0.410
2020/01/31 20:57:35.8	5.960	-0.570	0.520	-0.410
2020/01/31 20:57:35.9	5.960	-0.590	0.530	-0.410
2020/01/31 20:57:36.0	5.960	-0.600	0.520	-0.400
2020/01/31 20:57:36.1	5.960	-0.600	0.510	-0.400
2020/01/31 20:57:36.2	5.960	-0.600	0.500	-0.400
2020/01/31 20:57:36.3	5.970	-0.600	0.470	-0.400
2020/01/31 20:57:36.4	5.970	-0.590	0.430	-0.390
2020/01/31 20:57:36.5	5.980	-0.580	0.390	-0.390
2020/01/31 20:57:36.6	5.980	-0.560	0.340	-0.390
2020/01/31 20:57:36.7	5.980	-0.540	0.290	-0.380
2020/01/31 20:57:36.8	5.990	-0.510	0.220	-0.380
2020/01/31 20:57:36.9	5.990	-0.480	0.160	-0.370
2020/01/31 20:57:37.0	5.990	-0.440	0.090	-0.360
2020/01/31 20:57:37.1	5.990	-0.400	0.010	-0.350
2020/01/31 20:57:37.2	5.990	-0.360	-0.060	-0.340
2020/01/31 20:57:37.3	5.990	-0.310	-0.140	-0.320
2020/01/31 20:57:37.4	5.990	-0.270	-0.220	-0.310
2020/01/31 20:57:37.5	5.990	-0.210	-0.300	-0.290
2020/01/31 20:57:37.6	5.990	-0.160	-0.370	-0.260
2020/01/31 20:57:37.7	5.980	-0.110	-0.450	-0.240
2020/01/31 20:57:37.8	5.980	-0.050	-0.520	-0.220
2020/01/31 20:57:37.9	5.970	0.010	-0.590	-0.190
2020/01/31 20:57:38.0	5.970	0.060	-0.660	-0.160
2020/01/31 20:57:38.1	5.960	0.120	-0.730	-0.130
2020/01/31 20:57:38.2	5.950	0.180	-0.790	-0.100
2020/01/31 20:57:38.3	5.940	0.230	-0.840	-0.070
2020/01/31 20:57:38.4	5.930	0.290	-0.890	-0.040
2020/01/31 20:57:38.5	5.920	0.340	-0.940	-0.010
2020/01/31 20:57:38.6	5.910	0.400	-0.980	0.020
2020/01/31 20:57:38.7	5.910	0.450	-1.020	0.060
2020/01/31 20:57:38.8	5.900	0.490	-1.050	0.090
2020/01/31 20:57:38.9	5.890	0.540	-1.070	0.120
2020/01/31 20:57:39.0	5.900	0.580	-1.090	0.150
2020/01/31 20:57:39.1	5.900	0.620	-1.100	0.180
2020/01/31 20:57:39.2	5.900	0.660	-1.110	0.210
2020/01/31 20:57:39.3	5.900	0.690	-1.110	0.240
2020/01/31 20:57:39.4	5.900	0.720	-1.110	0.270
2020/01/31 20:57:39.5	5.900	0.740	-1.100	0.290
2020/01/31 20:57:39.6	5.910	0.760	-1.090	0.310
2020/01/31 20:57:39.7	5.910	0.780	-1.080	0.340
2020/01/31 20:57:39.8	5.920	0.790	-1.060	0.360
2020/01/31 20:57:39.9	5.930	0.800	-1.030	0.370
2020/01/31 20:57:40.0	5.950	0.810	-1.010	0.390
2020/01/31 20:57:40.1	5.960	0.810	-0.980	0.400
2020/01/31 20:57:40.2	5.970	0.810	-0.940	0.410
2020/01/31 20:57:40.3	5.980	0.800	-0.910	0.420
2020/01/31 20:57:40.4	6.000	0.790	-0.870	0.420
2020/01/31 20:57:40.5	6.010	0.770	-0.830	0.420
2020/01/31 20:57:40.6	6.030	0.760	-0.780	0.420
2020/01/31 20:57:40.7	6.040	0.730	-0.730	0.410
2020/01/31 20:57:40.8	6.060	0.710	-0.680	0.400
2020/01/31 20:57:40.9	6.070	0.680	-0.630	0.390
2020/01/31 20:57:41.0	6.070	0.640	-0.580	0.380
2020/01/31 20:57:41.1	6.080	0.610	-0.530	0.360
2020/01/31 20:57:41.2	6.100	0.570	-0.470	0.340
2020/01/31 20:57:41.3	6.110	0.520	-0.420	0.320
2020/01/31 20:57:41.4	6.120	0.480	-0.360	0.300
2020/01/31 20:57:41.5	6.130	0.430	-0.300	0.280
2020/01/31 20:57:41.6	6.140	0.380	-0.250	0.260
2020/01/31 20:57:41.7	6.150	0.330	-0.190	0.230
2020/01/31 20:57:41.8	6.160	0.270	-0.140	0.210
2020/01/31 20:57:41.9	6.170	0.220	-0.080	0.190
2020/01/31 20:57:42.0	6.180	0.160	-0.030	0.160
2020/01/31 20:57:42.1	6.190	0.110	0.020	0.140
2020/01/31 20:57:42.2	6.200	0.050	0.070	0.110
2020/01/31 20:57:42.3	6.210	-0.010	0.120	0.090
2020/01/31 20:57:42.4	6.210	-0.060	0.170	0.070
2020/01/31 20:57:42.5	6.220	-0.120	0.210	0.040
2020/01/31 20:57:42.6	6.220	-0.180	0.250	0.020
2020/01/31 20:57:42.7	6.230	-0.230	0.290	-0.000
2020/01/31 20:57:42.8	6.240	-0.290	0.330	-0.020
2020/01/31 20:57:42.9	6.240	-0.340	0.370	-0.040
2020/01/31 20:57:43.0	6.260	-0.390	0.400	-0.060
2020/01/31 20:57:43.1	6.260	-0.440	0.430	-0.080
2020/01/31 20:57:43.2	6.260	-0.490	0.460	-0.100
2020/01/31 20:57:43.3	6.260	-0.530	0.480	-0.120
2020/01/31 20:57:43.4	6.260	-0.580	0.510	-0.130
2020/01/31 20:57:43.5	6.260	-0.620	0.530	-0.150
2020/01/31 20:57:43.6	6.260	-0.660	0.540	-0.170
2020/01/31 20:57:43.7	6.250	-0.690	0.560	-0.180
2020/01/31 20:57:43.8	6.250	-0.720	0.570	-0.200
2020/01/31 20:57:43.9	6.240	-0.750	0.570	-0.210
2020/01/31 20:57:44.0	6.220	-0.780	0.580	-0.230
2020/01/31 20:57:44.1	6.210	-0.800	0.580	-0.240
2020/01/31 20:57:44.2	6.200	-0.820	0.570	-0.250
2020/01/31 20:57:44.3	6.190	-0.840	0.570	-0.270
2020/01/31 20:57:44.4	6.180	-0.850	0.560	-0.280
2020/01/31 20:57:44.5	6.170	-0.850	0.540	-0.290
2020/01/31 20:57:44.6	6.150	-0.860	0.520	-0.300
2020/01/31 20:57:44.7	6.140	-0.860	0.500	-0.320
2020/01/31 20:57:44.8	6.120	-0.850	0.480	-0.330
2020/01/31 20:57:44.9	6.110	-0.850	0.450	-0.330
2020/01/31 20:57:45.0	6.080	-0.830	0.420	-0.340
2020/01/31 20:57:45.1	6.070	-0.820	0.390	-0.350
2020/01/31 20:57:45.2	6.050	-0.800	0.350	-0.350
2020/01/31 20:57:45.3	6.030	-0.770	0.310	-0.360
2020/01/31 20:57:45.4	6.020	-0.750	0.270	-0.360
2020/01/31 20:57:45.5	6.000	-0.720	0.230	-0.360
2020/01/31 20:57:45.6	5.990	-0.680	0.180	-0.370
2020/01/31 20:57:45.7	5.980	-0.650	0.130	-0.370
2020/01/31 20:57:45.8	5.960	-0.600	0.080	-0.370
2020/01/31 20:57:45.9	5.950	-0.560	0.030	-0.360
2020/01/31 20:57:46.0	5.940	-0.510	-0.020	-0.360
2020/01/31 20:57:46.1	5.940	-0.470	-0.070	-0.360
2020/01/31 20:57:46.2	5.930	-0.410	-0.120	-0.360
2020/01/31 20:57:46.3	5.920	-0.360	-0.180	-0.360
2020/01/31 20:57:46.4	5.920	-0.310	-0.230	-0.360
2020/01/31 20:57:46.5	5.920	-0.250	-0.290	-0.350
2020/01/31 20:57:46.6	5.920	-0.190	-0.340	-0.350
2020/01/31 20:57:46.7	5.920	-0.130	-0.390	-0.350
2020/01/31 20:57:46.8	5.920	-0.080	-0.450	-0.350
2020/01/31 20:57:46.9	5.920	-0.020	-0.500	-0.340
2020/01/31 20:57:47.0	5.930	0.040	-0.550	-0.340
2020/01/31 20:57:47.1	5.930	0.100	-0.590	-0.330
2020/01/31 20:57:47.2	5.930	0.150	-0.640	-0.320
2020/01/31 20:57:47.3	5.940	0.210	-0.680	-0.300
2020/01/31 20:57:47.4	5.940	0.260	-0.720	-0.290
2020/01/31 20:57:47.5	5.940	0.310	-0.750	-0.270
2020/01/31 20:57:47.6	5.940	0.360	-0.780	-0.250
2020/01/31 20:57:47.7	5.930	0.400	-0.810	-0.220
2020/01/31 20:57:47.8	5.930	0.440	-0.830	-0.190
2020/01/31 20:57:47.9	5.920	0.480	-0.850	-0.160
2020/01/31 20:57:48.0	5.910	0.510	-0.860	-0.120
2020/01/31 20:57:48.1	5.900	0.540	-0.870	-0.090
2020/01/31 20:57:48.2	5.890	0.570	-0.880	-0.050
2020/01/31 20:57:48.3	5.880	0.590	-0.880	-0.020
2020/01/31 20:57:48.4	5.870	0.600	-0.880	0.020
2020/01/31 20:57:48.5	5.850	0.610	-0.870	0.050
2020/01/31 20:57:48.6	5.840	0.620	-0.860	0.080
2020/01/31 20:57:48.7	5.820	0.620	-0.850	0.120
2020/01/31 20:57:48.8	5.810	0.610	-0.840	0.140
2020/01/31 20:57:48.9	5.800	0.600	-0.820	0.170
2020/01/31 20:57:49.0	5.790	0.590	-0.800	0.190
2020/01/31 20:57:49.1	5.770	0.570	-0.790	0.210
2020/01/31 20:57:49.2	5.760	0.550	-0.770	0.220
2020/01/31 20:57:49.3	5.760	0.520	-0.750	0.230
2020/01/31 20:57:49.4	5.750	0.490	-0.730	0.230
2020/01/31 20:57:49.5	5.750	0.460	-0.710	0.220
2020/01/31 20:57:49.6	5.740	0.430	-0.690	0.210
2020/01/31 20:57:49.7	5.750	0.390	-0.670	0.190
2020/01/31 20:57:49.8	5.750	0.360	-0.660	0.170
2020/01/31 20:57:49.9	5.760	0.320	-0.640	0.150
2020/01/31 20:57:50.0	5.780	0.280	-0.630	0.120
2020/01/31 20:57:50.1	5.790	0.240	-0.620	0.080
2020/01/31 20:57:50.2	5.810	0.200	-0.610	0.040
2020/01/31 20:57:50.3	5.830	0.160	-0.600	-0.000
2020/01/31 20:57:50.4	5.850	0.130	-0.600	-0.050
2020/01/31 20:57:50.5	5.870	0.100	-0.590	-0.100
2020/01/31 20:57:50.6	5.900	0.060	-0.590	-0.140
2020/01/31 20:57:50.7	5.920	0.040	-0.580	-0.190
2020/01/31 20:57:50.8	5.950	0.010	-0.580	-0.240
2020/01/31 20:57:50.9	5.980	-0.010	-0.580	-0.290
2020/01/31 20:57:51.0	6.010	-0.030	-0.570	-0.340
2020/01/31 20:57:51.1	6.030	-0.040	-0.570	-0.390
2020/01/31 20:57:51.2	6.060	-0.060	-0.560	-0.430
2020/01/31 20:57:51.3	6.090	-0.060	-0.550	-0.470
2020/01/31 20:57:51.4	6.110	-0.060	-0.540	-0.500
2020/01/31 20:57:51.5	6.140	-0.060	-0.530	-0.530
2020/01/31 20:57:51.6	6.170	-0.060	-0.510	-0.560
2020/01/31 20:57:51.7	6.190	-0.050	-0.500	-0.590
2020/01/31 20:57:51.8	6.210	-0.040	-0.480	-0.610
2020/01/31 20:57:51.9	6.230	-0.020	-0.450	-0.620
2020/01/31 20:57:52.0	6.260	-0.000	-0.430	-0.630
2020/01/31 20:57:52.1	6.270	0.020	-0.400	-0.640
2020/01/31 20:57:52.2	6.290	0.050	-0.380	-0.650
2020/01/31 20:57:52.3	6.310	0.070	-0.350	-0.650
2020/01/31 20:57:52.4	6.330	0.100	-0.320	-0.650
2020/01/31 20:57:52.5	6.340	0.140	-0.280	-0.640
2020/01/31 20:57:52.6	6.360	0.170	-0.250	-0.640
2020/01/31 20:57:52.7	6.380	0.200	-0.220	-0.630
2020/01/31 20:57:52.8	6.390	0.230	-0.190	-0.610
2020/01/31 20:57:52.9	6.400	0.260	-0.160	-0.600
2020/01/31 20:57:53.0	6.420	0.300	-0.130	-0.580
2020/01/31 20:57:53.1	6.430	0.330	-0.100	-0.560
2020/01/31 20:57:53.2	6.440	0.350	-0.070	-0.540
2020/01/31 20:57:53.3	6.450	0.380	-0.040	-0.520
2020/01/31 20:57:53.4	6.460	0.400	-0.020	-0.500
2020/01/31 20:57:53.5	6.460	0.420	0.010	-0.470
2020/01/31 20:57:53.6	6.460	0.440	0.030	-0.440
2020/01/31 20:57:53.7	6.460	0.450	0.060	-0.410
2020/01/31 20:57:53.8	6.460	0.460	0.080	-0.380
2020/01/31 20:57:53.9	6.460	0.470	0.100	-0.350
2020/01/31 20:57:54.0	6.430	0.470	0.120	-0.320
2020/01/31 20:57:54.1	6.420	0.460	0.140	-0.280
2020/01/31 20:57:54.2	6.410	0.450	0.160	-0.250
2020/01/31 20:57:54.3	6.400	0.440	0.180	-0.220
2020/01/31 20:57:54.4	6.380	0.420	0.200	-0.190
2020/01/31 20:57:54.5	6.360	0.400	0.220	-0.160
2020/01/31 20:57:54.6	6.350	0.370	0.230	-0.130
2020/01/31 20:57:54.7	6.330	0.340	0.250	-0.110
2020/01/31 20:57:54.8	6.310	0.300	0.270	-0.090
2020/01/31 20:57:54.9	6.290	0.260	0.290	-0.070
2020/01/31 20:57:55.0	6.250	0.210	0.310	-0.050
2020/01/31 20:57:55.1	6.230	0.160	0.320	-0.030
2020/01/31 20:57:55.2	6.210	0.110	0.340	-0.020
2020/01/31 20:57:55.3	6.190	0.060	0.350	-0.020
2020/01/31 20:57:55.4	6.170	0.000	0.370	-0.010
2020/01/31 20:57:55.5	6.160	-0.050	0.380	-0.010
2020/01/31 20:57:55.6	6.140	-0.110	0.390	-0.010
2020/01/31 20:57:55.7	6.130	-0.170	0.400	-0.010
2020/01/31 20:57:55.8	6.110	-0.230	0.410	-0.020
2020/01/31 20:57:55.9	6.100	-0.290	0.420	-0.030
2020/01/31 20:57:56.0	6.090	-0.350	0.420	-0.040
2020/01/31 20:57:56.1	6.080	-0.400	0.430	-0.060
2020/01/31 20:57:56.2	6.070	-0.460	0.430	-0.070
2020/01/31 20:57:56.3	6.050	-0.510	0.430	-0.090
2020/01/31 20:57:56.4	6.040	-0.560	0.430	-0.110
2020/01/31 20:57:56.5	6.030	-0.610	0.430	-0.130
2020/01/31 20:57:56.6	6.020	-0.650	0.420	-0.140
2020/01/31 20:57:56.7	6.010	-0.690	0.420	-0.160
2020/01/31 20:57:56.8	5.990	-0.730	0.410	-0.180
2020/01/31 20:57:56.9	5.980	-0.760	0.400	-0.190
2020/01/31 20:57:57.0	5.970	-0.790	0.390	-0.210
2020/01/31 20:57:57.1	5.950	-0.810	0.370	-0.230
2020/01/31 20:57:57.2	5.940	-0.830	0.350	-0.240
2020/01/31 20:57:57.3	5.920	-0.850	0.330	-0.250
2020/01/31 20:57:57.4	5.910	-0.860	0.300	-0.260
2020/01/31 20:57:57.5	5.890	-0.860	0.280	-0.270
2020/01/31 20:57:57.6	5.880	-0.860	0.240	-0.270
2020/01/31 20:57:57.7	5.860	-0.860	0.210	-0.280
2020/01/31 20:57:57.8	5.840	-0.850	0.170	-0.280
2020/01/31 20:57:57.9	5.820	-0.830	0.130	-0.280
2020/01/31 20:57:58.0	5.810	-0.820	0.080	-0.270
2020/01/31 20:57:58.1	5.790	-0.790	0.030	-0.270
2020/01/31 20:57:58.2	5.770	-0.760	-0.030	-0.270
2020/01/31 20:57:58.3	5.750	-0.730	-0.080	-0.260
2020/01/31 20:57:58.4	5.730	-0.690	-0.150	-0.250
2020/01/31 20:57:58.5	5.720	-0.650	-0.210	-0.250
2020/01/31 20:57:58.6	5.700	-0.600	-0.280	-0.240
2020/01/31 20:57:58.7	5.680	-0.550	-0.350	-0.230
2020/01/31 20:57:58.8	5.670	-0.500	-0.420	-0.220
2020/01/31 20:57:58.9	5.650	-0.440	-0.490	-0.210
2020/01/31 20:57:59.0	5.650	-0.380	-0.570	-0.200
2020/01/31 20:57:59.1	5.630	-0.320	-0.640	-0.190
2020/01/31 20:57:59.2	5.630	-0.250	-0.720	-0.180
2020/01/31 20:57:59.3	5.620	-0.190	-0.790	-0.170
2020/01/31 20:57:59.4	5.610	-0.120	-0.870	-0.160
2020/01/31 20:57:59.5	5.610	-0.050	-0.940	-0.150
2020/01/31 20:57:59.6	5.610	0.020	-1.020	-0.140
2020/01/31 20:57:59.7	5.620	0.090	-1.090	-0.130
2020/01/31 20:57:59.8	5.630	0.160	-1.150	-0.130
2020/01/31 20:57:59.9	5.640	0.230	-1.220	-0.120
2020/01/31 20:58:00.0	5.670	0.290	-1.280	-0.120
2020/01/31 20:58:00.1	5.680	0.350	-1.330	-0.110
2020/01/31 20:58:00.2	5.700	0.410	-1.380	-0.110
2020/01/31 20:58:00.3	5.730	0.470	-1.420	-0.110
2020/01/31 20:58:00.4	5.750	0.530	-1.450	-0.120
2020/01/31 20:58:00.5	5.780	0.570	-1.480	-0.120
2020/01/31 20:58:00.6	5.810	0.620	-1.500	-0.120
2020/01/31 20:58:00.7	5.840	0.660	-1.510	-0.130
2020/01/31 20:58:00.8	5.870	0.690	-1.520	-0.130
2020/01/31 20:58:00.9	5.900	0.720	-1.510	-0.140
2020/01/31 20:58:01.0	5.960	0.750	-1.500	-0.140
2020/01/31 20:58:01.1	5.990	0.760	-1.480	-0.140
2020/01/31 20:58:01.2	6.030	0.770	-1.450	-0.150
2020/01/31 20:58:01.3	6.070	0.780	-1.420	-0.160
2020/01/31 20:58:01.4	6.100	0.780	-1.370	-0.160
2020/01/31 20:58:01.5	6.140	0.770	-1.320	-0.160
2020/01/31 20:58:01.6	6.170	0.760	-1.260	-0.170
2020/01/31 20:58:01.7	6.200	0.740	-1.190	-0.170
2020/01/31 20:58:01.8	6.240	0.720	-1.120	-0.170
2020/01/31 20:58:01.9	6.270	0.690	-1.040	-0.170
2020/01/31 20:58:02.0	6.300	0.650	-0.960	-0.170
2020/01/31 20:58:02.1	6.330	0.610	-0.870	-0.160
2020/01/31 20:58:02.2	6.350	0.570	-0.770	-0.160
2020/01/31 20:58:02.3	6.380	0.520	-0.680	-0.150
2020/01/31 20:58:02.4	6.400	0.470	-0.580	-0.140
2020/01/31 20:58:02.5	6.420	0.420	-0.480	-0.130
2020/01/31 20:58:02.6	6.440	0.360	-0.370	-0.120
2020/01/31 20:58:02.7	6.460	0.310	-0.270	-0.110
2020/01/31 20:58:02.8	6.470	0.250	-0.170	-0.100
2020/01/31 20:58:02.9	6.490	0.190	-0.070	-0.090
2020/01/31 20:58:03.0	6.470	0.130	0.030	-0.080
2020/01/31 20:58:03.1	6.480	0.070	0.130	-0.060
2020/01/31 20:58:03.2	6.490	0.010	0.220	-0.040
2020/01/31 20:58:03.3	6.500	-0.050	0.310	-0.030
2020/01/31 20:58:03.4	6.500	-0.100	0.400	-0.010
2020/01/31 20:58:03.5	6.500	-0.150	0.480	0.010
2020/01/31 20:58:03.6	6.500	-0.200	0.550	0.030
2020/01/31 20:58:03.7	6.500	-0.250	0.620	0.050
2020/01/31 20:58:03.8	6.490	-0.290	0.680	0.070
2020/01/31 20:58:03.9	6.490	-0.330	0.740	0.090
2020/01/31 20:58:04.0	6.470	-0.370	0.780	0.100
2020/01/31 20:58:04.1	6.460	-0.400	0.820	0.120
2020/01/31 20:58:04.2	6.450	-0.430	0.850	0.140
2020/01/31 20:58:04.3	6.430	-0.450	0.870	0.150
2020/01/31 20:58:04.4	6.420	-0.460	0.880	0.170
2020/01/31 20:58:04.5	6.400	-0.480	0.880	0.180
2020/01/31 20:58:04.6	6.380	-0.480	0.880	0.200
2020/01/31 20:58:04.7	6.370	-0.480	0.860	0.210
2020/01/31 20:58:04.8	6.350	-0.480	0.840	0.220
2020/01/31 20:58:04.9	6.330	-0.470	0.800	0.230
2020/01/31 20:58:05.0	6.280	-0.460	0.760	0.240
2020/01/31 20:58:05.1	6.260	-0.440	0.710	0.250
2020/01/31 20:58:05.2	6.240	-0.420	0.650	0.260
2020/01/31 20:58:05.3	6.220	-0.390	0.590	0.260
2020/01/31 20:58:05.4	6.200	-0.360	0.520	0.270
2020/01/31 20:58:05.5	6.180	-0.330	0.440	0.270
2020/01/31 20:58:05.6	6.160	-0.290	0.360	0.270
2020/01/31 20:58:05.7	6.150	-0.250	0.270	0.270
2020/01/31 20:58:05.8	6.130	-0.210	0.180	0.280
2020/01/31 20:58:05.9	6.120	-0.160	0.090	0.280
2020/01/31 20:58:06.0	6.100	-0.120	0.010	0.280
2020/01/31 20:58:06.1	6.090	-0.070	-0.090	0.280
2020/01/31 20:58:06.2	6.080	-0.020	-0.180	0.280
2020/01/31 20:58:06.3	6.060	0.030	-0.270	0.280
2020/01/31 20:58:06.4	6.050	0.080	-0.350	0.280
2020/01/31 20:58:06.5	6.040	0.130	-0.430	0.280
2020/01/31 20:58:06.6	6.020	0.180	-0.510	0.280
2020/01/31 20:58:06.7	6.010	0.230	-0.580	0.270
2020/01/31 20:58:06.8	6.000	0.280	-0.650	0.270
2020/01/31 20:58:06.9	5.990	0.320	-0.710	0.270
2020/01/31 20:58:07.0	5.990	0.360	-0.760	0.280
2020/01/31 20:58:07.1	5.980	0.400	-0.800	0.280
2020/01/31 20:58:07.2	5.970	0.440	-0.840	0.280
2020/01/31 20:58:07.3	5.960	0.470	-0.860	0.280
2020/01/31 20:58:07.4	5.940	0.500	-0.880	0.280
2020/01/31 20:58:07.5	5.930	0.530	-0.890	0.280
2020/01/31 20:58:07.6	5.920	0.550	-0.890	0.290
2020/01/31 20:58:07.7	5.910	0.570	-0.880	0.290
2020/01/31 20:58:07.8	5.890	0.580	-0.870	0.300
2020/01/31 20:58:07.9	5.880	0.590	-0.840	0.300
2020/01/31 20:58:08.0	5.890	0.600	-0.810	0.310
2020/01/31 20:58:08.1	5.880	0.600	-0.770	0.320
2020/01/31 20:58:08.2	5.870	0.600	-0.730	0.330
2020/01/31 20:58:08.3	5.860	0.600	-0.680	0.340
2020/01/31 20:58:08.4	5.850	0.590	-0.630	0.350
2020/01/31 20:58:08.5	5.850	0.570	-0.570	0.360
2020/01/31 20:58:08.6	5.850	0.560	-0.510	0.370
2020/01/31 20:58:08.7	5.840	0.540	-0.450	0.370
2020/01/31 20:58:08.8	5.850	0.510	-0.390	0.380
2020/01/31 20:58:08.9	5.850	0.490	-0.330	0.380
2020/01/31 20:58:09.0	5.850	0.460	-0.280	0.380
2020/01/31 20:58:09.1	5.860	0.430	-0.220	0.380
2020/01/31 20:58:09.2	5.860	0.390	-0.160	0.370
2020/01/31 20:58:09.3	5.870	0.350	-0.100	0.360
2020/01/31 20:58:09.4	5.880	0.320	-0.050	0.350
2020/01/31 20:58:09.5	5.900	0.270	-0.010	0.330
2020/01/31 20:58:09.6	5.910	0.230	0.040	0.320
2020/01/31 20:58:09.7	5.930	0.190	0.080	0.290
2020/01/31 20:58:09.8	5.940	0.140	0.110	0.270
2020/01/31 20:58:09.9	5.960	0.090	0.140	0.240
2020/01/31 20:58:10.0	5.960	0.050	0.170	0.200
2020/01/31 20:58:10.1	5.980	0.000	0.190	0.160
2020/01/31 20:58:10.2	6.000	-0.050	0.200	0.120
2020/01/31 20:58:10.3	6.020	-0.090	0.210	0.080
2020/01/31 20:58:10.4	6.040	-0.140	0.210	0.030
2020/01/31 20:58:10.5	6.060	-0.180	0.210	-0.010
2020/01/31 20:58:10.6	6.090	-0.230	0.200	-0.060
2020/01/31 20:58:10.7	6.110	-0.270	0.190	-0.110
2020/01/31 20:58:10.8	6.140	-0.310	0.170	-0.160
2020/01/31 20:58:10.9	6.160	-0.350	0.150	-0.200
2020/01/31 20:58:11.0	6.180	-0.380	0.120	-0.250
2020/01/31 20:58:11.1	6.210	-0.410	0.090	-0.300
2020/01/31 20:58:11.2	6.230	-0.440	0.060	-0.350
2020/01/31 20:58:11.3	6.250	-0.470	0.020	-0.390
2020/01/31 20:58:11.4	6.280	-0.500	-0.020	-0.430
2020/01/31 20:58:11.5	6.300	-0.520	-0.060	-0.480
2020/01/31 20:58:11.6	6.320	-0.540	-0.100	-0.510
2020/01/31 20:58:11.7	6.340	-0.550	-0.140	-0.550
2020/01/31 20:58:11.8	6.360	-0.560	-0.180	-0.590
2020/01/31 20:58:11.9	6.370	-0.570	-0.230	-0.620
2020/01/31 20:58:12.0	6.370	-0.580	-0.270	-0.650
2020/01/31 20:58:12.1	6.390	-0.580	-0.310	-0.680
2020/01/31 20:58:12.2	6.400	-0.580	-0.360	-0.710
2020/01/31 20:58:12.3	6.410	-0.580	-0.400	-0.730
2020/01/31 20:58:12.4	6.420	-0.570	-0.440	-0.750
2020/01/31 20:58:12.5	6.430	-0.560	-0.470	-0.770
2020/01/31 20:58:12.6	6.440	-0.550	-0.510	-0.790
2020/01/31 20:58:12.7	6.450	-0.540	-0.540	-0.800
2020/01/31 20:58:12.8	6.450	-0.520	-0.570	-0.810
2020/01/31 20:58:12.9	6.460	-0.500	-0.600	-0.810
2020/01/31 20:58:13.0	6.460	-0.480	-0.620	-0.810
2020/01/31 20:58:13.1	6.460	-0.460	-0.640	-0.800
2020/01/31 20:58:13.2	6.460	-0.440	-0.660	-0.790
2020/01/31 20:58:13.3	6.460	-0.410	-0.670	-0.780
2020/01/31 20:58:13.4	6.450	-0.390	-0.670	-0.760
2020/01/31 20:58:13.5	6.440	-0.360	-0.680	-0.740
2020/01/31 20:58:13.6	6.430	-0.330	-0.680	-0.710
2020/01/31 20:58:13.7	6.420	-0.300	-0.670	-0.690
2020/01/31 20:58:13.8	6.410	-0.270	-0.660	-0.660
2020/01/31 20:58:13.9	6.400	-0.250	-0.640	-0.630
2020/01/31 20:58:14.0	6.390	-0.220	-0.630	-0.590
2020/01/31 20:58:14.1	6.370	-0.190	-0.610	-0.550
2020/01/31 20:58:14.2	6.360	-0.160	-0.580	-0.520
2020/01/31 20:58:14.3	6.350	-0.130	-0.550	-0.480
2020/01/31 20:58:14.4	6.330	-0.110	-0.510	-0.440
2020/01/31 20:58:14.5	6.320	-0.080	-0.480	-0.400
2020/01/31 20:58:14.6	6.310	-0.050	-0.440	-0.360
2020/01/31 20:58:14.7	6.300	-0.030	-0.390	-0.310
2020/01/31 20:58:14.8	6.280	-0.000	-0.350	-0.270
2020/01/31 20:58:14.9	6.270	0.020	-0.300	-0.230
2020/01/31 20:58:15.0	6.260	0.040	-0.260	-0.180
2020/01/31 20:58:15.1	6.250	0.060	-0.210	-0.140
2020/01/31 20:58:15.2	6.240	0.080	-0.170	-0.100
2020/01/31 20:58:15.3	6.230	0.100	-0.120	-0.050
2020/01/31 20:58:15.4	6.220	0.120	-0.080	-0.010
2020/01/31 20:58:15.5	6.210	0.140	-0.040	0.030
2020/01/31 20:58:15.6	6.210	0.160	0.000	0.070
2020/01/31 20:58:15.7	6.200	0.180	0.040	0.110
2020/01/31 20:58:15.8	6.190	0.200	0.070	0.150
2020/01/31 20:58:15.9	6.190	0.210	0.100	0.180
2020/01/31 20:58:16.0	6.190	0.230	0.130	0.220
2020/01/31 20:58:16.1	6.180	0.240	0.150	0.250
2020/01/31 20:58:16.2	6.180	0.260	0.160	0.280
2020/01/31 20:58:16.3	6.180	0.280	0.170	0.310
2020/01/31 20:58:16.4	6.180	0.290	0.170	0.330
2020/01/31 20:58:16.5	6.180	0.310	0.170	0.350
2020/01/31 20:58:16.6	6.180	0.320	0.170	0.370
2020/01/31 20:58:16.7	6.180	0.340	0.160	0.380
2020/01/31 20:58:16.8	6.190	0.350	0.140	0.390
2020/01/31 20:58:16.9	6.190	0.370	0.110	0.400
2020/01/31 20:58:17.0	6.200	0.380	0.090	0.410
2020/01/31 20:58:17.1	6.210	0.390	0.050	0.400
2020/01/31 20:58:17.2	6.220	0.410	0.020	0.400
2020/01/31 20:58:17.3	6.220	0.420	-0.020	0.390
2020/01/31 20:58:17.4	6.230	0.430	-0.070	0.380
2020/01/31 20:58:17.5	6.240	0.440	-0.120	0.360
2020/01/31 20:58:17.6	6.260	0.450	-0.170	0.340
2020/01/31 20:58:17.7	6.270	0.460	-0.220	0.320
2020/01/31 20:58:17.8	6.280	0.460	-0.270	0.290
2020/01/31 20:58:17.9	6.290	0.460	-0.320	0.270
2020/01/31 20:58:18.0	6.310	0.470	-0.380	0.240
2020/01/31 20:58:18.1	6.320	0.470	-0.430	0.210
2020/01/31 20:58:18.2	6.330	0.460	-0.470	0.170
2020/01/31 20:58:18.3	6.340	0.460	-0.520	0.140
2020/01/31 20:58:18.4	6.360	0.450	-0.560	0.110
2020/01/31 20:58:18.5	6.370	0.440	-0.600	0.070
2020/01/31 20:58:18.6	6.380	0.420	-0.640	0.040
2020/01/31 20:58:18.7	6.390	0.410	-0.670	0.000
2020/01/31 20:58:18.8	6.400	0.380	-0.700	-0.030
2020/01/31 20:58:18.9	6.410	0.360	-0.720	-0.070
2020/01/31 20:58:19.0	6.420	0.330	-0.730	-0.110
2020/01/31 20:58:19.1	6.430	0.300	-0.740	-0.150
2020/01/31 20:58:19.2	6.440	0.270	-0.750	-0.190
2020/01/31 20:58:19.3	6.450	0.240	-0.750	-0.220
2020/01/31 20:58:19.4	6.460	0.200	-0.740	-0.260
2020/01/31 20:58:19.5	6.470	0.160	-0.730	-0.300
2020/01/31 20:58:19.6	6.490	0.120	-0.710	-0.340
2020/01/31 20:58:19.7	6.500	0.080	-0.690	-0.380
2020/01/31 20:58:19.8	6.510	0.030	-0.670	-0.420
2020/01/31 20:58:19.9	6.520	-0.010	-0.640	-0.460
2020/01/31 20:58:20.0	6.540	-0.060	-0.600	-0.500
2020/01/31 20:58:20.1	6.550	-0.100	-0.570	-0.540
2020/01/31 20:58:20.2	6.560	-0.150	-0.530	-0.580
2020/01/31 20:58:20.3	6.570	-0.200	-0.490	-0.610
2020/01/31 20:58:20.4	6.580	-0.240	-0.440	-0.650
2020/01/31 20:58:20.5	6.580	-0.280	-0.400	-0.680
2020/01/31 20:58:20.6	6.590	-0.320	-0.350	-0.710
2020/01/31 20:58:20.7	6.590	-0.360	-0.300	-0.730
2020/01/31 20:58:20.8	6.590	-0.400	-0.250	-0.760
2020/01/31 20:58:20.9	6.590	-0.430	-0.200	-0.780
2020/01/31 20:58:21.0	6.590	-0.470	-0.150	-0.790
2020/01/31 20:58:21.1	6.580	-0.490	-0.100	-0.800
2020/01/31 20:58:21.2	6.580	-0.520	-0.060	-0.810
2020/01/31 20:58:21.3	6.570	-0.540	-0.010	-0.820
2020/01/31 20:58:21.4	6.570	-0.560	0.030	-0.830
2020/01/31 20:58:21.5	6.560	-0.570	0.070	-0.830
2020/01/31 20:58:21.6	6.550	-0.570	0.100	-0.830
2020/01/31 20:58:21.7	6.540	-0.580	0.130	-0.820
2020/01/31 20:58:21.8	6.530	-0.570	0.160	-0.810
2020/01/31 20:58:21.9	6.510	-0.570	0.180	-0.800
2020/01/31 20:58:22.0	6.490	-0.550	0.200	-0.790
2020/01/31 20:58:22.1	6.480	-0.530	0.210	-0.770
2020/01/31 20:58:22.2	6.470	-0.510	0.210	-0.750
2020/01/31 20:58:22.3	6.460	-0.480	0.210	-0.730
2020/01/31 20:58:22.4	6.460	-0.450	0.200	-0.700
2020/01/31 20:58:22.5	6.450	-0.410	0.180	-0.670
2020/01/31 20:58:22.6	6.440	-0.360	0.160	-0.650
2020/01/31 20:58:22.7	6.440	-0.310	0.130	-0.620
2020/01/31 20:58:22.8	6.430	-0.260	0.100	-0.580
2020/01/31 20:58:22.9	6.430	-0.210	0.060	-0.550
2020/01/31 20:58:23.0	6.440	-0.150	0.020	-0.510
2020/01/31 20:58:23.1	6.440	-0.090	-0.020	-0.480
2020/01/31 20:58:23.2	6.430	-0.020	-0.070	-0.440
2020/01/31 20:58:23.3	6.430	0.040	-0.120	-0.400
2020/01/31 20:58:23.4	6.430	0.110	-0.170	-0.350
2020/01/31 20:58:23.5	6.420	0.170	-0.220	-0.310
2020/01/31 20:58:23.6	6.420	0.240	-0.270	-0.260
2020/01/31 20:58:23.7	6.420	0.300	-0.320	-0.220
2020/01/31 20:58:23.8	6.410	0.360	-0.360	-0.170
2020/01/31 20:58:23.9	6.410	0.420	-0.410	-0.130
2020/01/31 20:58:24.0	6.390	0.480	-0.450	-0.080
2020/01/31 20:58:24.1	6.390	0.530	-0.490	-0.030
2020/01/31 20:58:24.2	6.390	0.580	-0.530	0.010
2020/01/31 20:58:24.3	6.390	0.620	-0.560	0.050
2020/01/31 20:58:24.4	6.380	0.660	-0.580	0.090
2020/01/31 20:58:24.5	6.390	0.690	-0.610	0.120
2020/01/31 20:58:24.6	6.390	0.720	-0.620	0.160
2020/01/31 20:58:24.7	6.390	0.740	-0.630	0.190
2020/01/31 20:58:24.8	6.390	0.750	-0.640	0.220
2020/01/31 20:58:24.9	6.400	0.760	-0.630	0.240
2020/01/31 20:58:25.0	6.400	0.760	-0.630	0.270
2020/01/31 20:58:25.1	6.410	0.760	-0.610	0.290
2020/01/31 20:58:25.2	6.420	0.740	-0.590	0.300
2020/01/31 20:58:25.3	6.430	0.720	-0.570	0.320
2020/01/31 20:58:25.4	6.440	0.700	-0.540	0.330
2020/01/31 20:58:25.5	6.450	0.670	-0.510	0.340
2020/01/31 20:58:25.6	6.460	0.630	-0.470	0.340
2020/01/31 20:58:25.7	6.470	0.590	-0.430	0.340
2020/01/31 20:58:25.8	6.490	0.540	-0.380	0.340
2020/01/31 20:58:25.9	6.500	0.480	-0.340	0.340
2020/01/31 20:58:26.0	6.510	0.430	-0.280	0.330
2020/01/31 20:58:26.1	6.520	0.360	-0.230	0.320
2020/01/31 20:58:26.2	6.520	0.300	-0.170	0.310
2020/01/31 20:58:26.3	6.530	0.230	-0.120	0.300
2020/01/31 20:58:26.4	6.530	0.160	-0.060	0.280
2020/01/31 20:58:26.5	6.540	0.090	-0.000	0.270
2020/01/31 20:58:26.6	6.540	0.010	0.060	0.250
2020/01/31 20:58:26.7	6.540	-0.060	0.120	0.230
2020/01/31 20:58:26.8	6.530	-0.140	0.170	0.210
2020/01/31 20:58:26.9	6.530	-0.220	0.220	0.190
2020/01/31 20:58:27.0	6.500	-0.290	0.270	0.160
2020/01/31 20:58:27.1	6.490	-0.360	0.320	0.140
2020/01/31 20:58:27.2	6.480	-0.430	0.360	0.120
2020/01/31 20:58:27.3	6.470	-0.500	0.400	0.100
2020/01/31 20:58:27.4	6.450	-0.560	0.430	0.070
2020/01/31 20:58:27.5	6.440	-0.620	0.460	0.050
2020/01/31 20:58:27.6	6.420	-0.670	0.480	0.030
2020/01/31 20:58:27.7	6.400	-0.720	0.490	0.010
2020/01/31 20:58:27.8	6.380	-0.770	0.500	-0.010
2020/01/31 20:58:27.9	6.360	-0.800	0.500	-0.040
2020/01/31 20:58:28.0	6.330	-0.840	0.490	-0.060
2020/01/31 20:58:28.1	6.310	-0.860	0.470	-0.080
2020/01/31 20:58:28.2	6.290	-0.880	0.450	-0.100
2020/01/31 20:58:28.3	6.270	-0.900	0.420	-0.120
2020/01/31 20:58:28.4	6.250	-0.900	0.380	-0.140
2020/01/31 20:58:28.5	6.230	-0.900	0.340	-0.160
2020/01/31 20:58:28.6	6.210	-0.900	0.280	-0.190
2020/01/31 20:58:28.7	6.190	-0.880	0.230	-0.210
2020/01/31 20:58:28.8	6.170	-0.860	0.160	-0.230
2020/01/31 20:58:28.9	6.150	-0.840	0.090	-0.250
2020/01/31 20:58:29.0	6.140	-0.810	0.020	-0.270
2020/01/31 20:58:29.1	6.120	-0.770	-0.060	-0.290
2020/01/31 20:58:29.2	6.110	-0.730	-0.140	-0.310
2020/01/31 20:58:29.3	6.090	-0.680	-0.220	-0.330
2020/01/31 20:58:29.4	6.080	-0.630	-0.310	-0.360
2020/01/31 20:58:29.5	6.070	-0.580	-0.390	-0.380
2020/01/31 20:58:29.6	6.060	-0.520	-0.480	-0.400
2020/01/31 20:58:29.7	6.050	-0.450	-0.560	-0.420
2020/01/31 20:58:29.8	6.040	-0.390	-0.650	-0.440
2020/01/31 20:58:29.9	6.030	-0.320	-0.730	-0.460
2020/01/31 20:58:30.0	6.040	-0.250	-0.810	-0.480
2020/01/31 20:58:30.1	6.040	-0.180	-0.880	-0.500
2020/01/31 20:58:30.2	6.040	-0.110	-0.950	-0.520
2020/01/31 20:58:30.3	6.040	-0.040	-1.020	-0.530
2020/01/31 20:58:30.4	6.040	0.030	-1.070	-0.540
2020/01/31 20:58:30.5	6.040	0.100	-1.130	-0.550
2020/01/31 20:58:30.6	6.050	0.170	-1.170	-0.560
2020/01/31 20:58:30.7	6.050	0.230	-1.210	-0.560
2020/01/31 20:58:30.8	6.060	0.300	-1.240	-0.570
2020/01/31 20:58:30.9	6.070	0.360	-1.260	-0.570
2020/01/31 20:58:31.0	6.100	0.410	-1.270	-0.560
2020/01/31 20:58:31.1	6.120	0.460	-1.280	-0.560
2020/01/31 20:58:31.2	6.130	0.510	-1.270	-0.550
2020/01/31 20:58:31.3	6.140	0.550	-1.260	-0.540
2020/01/31 20:58:31.4	6.160	0.590	-1.240	-0.530
2020/01/31 20:58:31.5	6.180	0.620	-1.210	-0.520
2020/01/31 20:58:31.6	6.190	0.650	-1.170	-0.510
2020/01/31 20:58:31.7	6.210	0.670	-1.120	-0.490
2020/01/31 20:58:31.8	6.230	0.680	-1.070	-0.480
2020/01/31 20:58:31.9	6.250	0.690	-1.010	-0.460
2020/01/31 20:58:32.0	6.270	0.690	-0.940	-0.440
2020/01/31 20:58:32.1	6.290	0.690	-0.870	-0.410
2020/01/31 20:58:32.2	6.310	0.680	-0.790	-0.390
2020/01/31 20:58:32.3	6.340	0.670	-0.720	-0.360
2020/01/31 20:58:32.4	6.360	0.650	-0.640	-0.330
2020/01/31 20:58:32.5	6.380	0.630	-0.550	-0.300
2020/01/31 20:58:32.6	6.400	0.600	-0.470	-0.270
2020/01/31 20:58:32.7	6.420	0.570	-0.390	-0.240
2020/01/31 20:58:32.8	6.440	0.530	-0.310	-0.210
2020/01/31 20:58:32.9	6.460	0.500	-0.230	-0.180
2020/01/31 20:58:33.0	6.460	0.450	-0.150	-0.150
2020/01/31 20:58:33.1	6.490	0.410	-0.080	-0.110
2020/01/31 20:58:33.2	6.510	0.370	-0.010	-0.080
2020/01/31 20:58:33.3	6.530	0.320	0.060	-0.050
2020/01/31 20:58:33.4	6.550	0.270	0.120	-0.010
2020/01/31 20:58:33.5	6.560	0.230	0.180	0.020
2020/01/31 20:58:33.6	6.580	0.180	0.240	0.050
2020/01/31 20:58:33.7	6.600	0.130	0.280	0.080
2020/01/31 20:58:33.8	6.610	0.090	0.330	0.110
2020/01/31 20:58:33.9	6.630	0.040	0.360	0.140
2020/01/31 20:58:34.0	6.630	-0.000	0.400	0.170
2020/01/31 20:58:34.1	6.640	-0.050	0.430	0.190
2020/01/31 20:58:34.2	6.650	-0.090	0.450	0.210
2020/01/31 20:58:34.3	6.660	-0.130	0.460	0.230
2020/01/31 20:58:34.4	6.670	-0.160	0.470	0.250
2020/01/31 20:58:34.5	6.680	-0.200	0.470	0.270
2020/01/31 20:58:34.6	6.680	-0.230	0.470	0.280
2020/01/31 20:58:34.7	6.690	-0.260	0.460	0.290
2020/01/31 20:58:34.8	6.690	-0.280	0.450	0.290
2020/01/31 20:58:34.9	6.700	-0.300	0.430	0.300
2020/01/31 20:58:35.0	6.690	-0.320	0.410	0.300
2020/01/31 20:58:35.1	6.690	-0.340	0.390	0.300
2020/01/31 20:58:35.2	6.690	-0.350	0.360	0.300
2020/01/31 20:58:35.3	6.690	-0.360	0.330	0.290
2020/01/31 20:58:35.4	6.690	-0.370	0.290	0.280
2020/01/31 20:58:35.5	6.690	-0.370	0.250	0.280
2020/01/31 20:58:35.6	6.690	-0.370	0.210	0.270
2020/01/31 20:58:35.7	6.690	-0.370	0.170	0.260
2020/01/31 20:58:35.8	6.690	-0.370	0.130	0.240
2020/01/31 20:58:35.9	6.680	-0.360	0.090	0.230
2020/01/31 20:58:36.0	6.670	-0.350	0.050	0.210
2020/01/31 20:58:36.1	6.670	-0.340	0.010	0.200
2020/01/31 20:58:36.2	6.660	-0.330	-0.030	0.180
2020/01/31 20:58:36.3	6.650	-0.320	-0.070	0.170
2020/01/31 20:58:36.4	6.640	-0.300	-0.110	0.150
2020/01/31 20:58:36.5	6.630	-0.280	-0.140	0.140
2020/01/31 20:58:36.6	6.620	-0.270	-0.180	0.120
2020/01/31 20:58:36.7	6.600	-0.250	-0.210	0.110
2020/01/31 20:58:36.8	6.590	-0.230	-0.240	0.090
2020/01/31 20:58:36.9	6.570	-0.210	-0.260	0.080
2020/01/31 20:58:37.0	6.560	-0.190	-0.280	0.070
2020/01/31 20:58:37.1	6.540	-0.170	-0.300	0.060
2020/01/31 20:58:37.2	6.520	-0.150	-0.320	0.050
2020/01/31 20:58:37.3	6.500	-0.130	-0.330	0.050
2020/01/31 20:58:37.4	6.470	-0.110	-0.340	0.050
2020/01/31 20:58:37.5	6.450	-0.090	-0.350	0.050
2020/01/31 20:58:37.6	6.420	-0.070	-0.350	0.050
2020/01/31 20:58:37.7	6.390	-0.050	-0.350	0.060
2020/01/31 20:58:37.8	6.350	-0.030	-0.350	0.060
2020/01/31 20:58:37.9	6.320	-0.010	-0.340	0.070
2020/01/31 20:58:38.0	6.290	0.010	-0.330	0.090
2020/01/31 20:58:38.1	6.250	0.030	-0.320	0.100
2020/01/31 20:58:38.2	6.210	0.050	-0.310	0.120
2020/01/31 20:58:38.3	6.180	0.060	-0.300	0.140
2020/01/31 20:58:38.4	6.140	0.080	-0.280	0.160
2020/01/31 20:58:38.5	6.090	0.090	-0.270	0.180
2020/01/31 20:58:38.6	6.050	0.110	-0.260	0.200
2020/01/31 20:58:38.7	6.010	0.120	-0.240	0.220
2020/01/31 20:58:38.8	5.970	0.130	-0.230	0.240
2020/01/31 20:58:38.9	5.930	0.150	-0.220	0.260
2020/01/31 20:58:39.0	5.890	0.160	-0.210	0.280
2020/01/31 20:58:39.1	5.850	0.170	-0.200	0.290
2020/01/31 20:58:39.2	5.810	0.180	-0.190	0.310
2020/01/31 20:58:39.3	5.770	0.190	-0.190	0.320
2020/01/31 20:58:39.4	5.730	0.190	-0.180	0.340
2020/01/31 20:58:39.5	5.700	0.200	-0.180	0.340
2020/01/31 20:58:39.6	5.660	0.210	-0.190	0.350
2020/01/31 20:58:39.7	5.630	0.210	-0.190	0.360
2020/01/31 20:58:39.8	5.600	0.220	-0.200	0.360
2020/01/31 20:58:39.9	5.570	0.220	-0.210	0.360
2020/01/31 20:58:40.0	5.560	0.230	-0.230	0.360
2020/01/31 20:58:40.1	5.540	0.230	-0.240	0.350
2020/01/31 20:58:40.2	5.520	0.230	-0.260	0.340
2020/01/31 20:58:40.3	5.500	0.240	-0.290	0.330
2020/01/31 20:58:40.4	5.490	0.240	-0.310	0.320
2020/01/31 20:58:40.5	5.480	0.240	-0.340	0.300
2020/01/31 20:58:40.6	5.470	0.240	-0.370	0.280
2020/01/31 20:58:40.7	5.470	0.240	-0.400	0.260
2020/01/31 20:58:40.8	5.470	0.240	-0.430	0.230
2020/01/31 20:58:40.9	5.470	0.240	-0.460	0.200
2020/01/31 20:58:41.0	5.480	0.240	-0.500	0.170
2020/01/31 20:58:41.1	5.490	0.240	-0.530	0.130
2020/01/31 20:58:41.2	5.510	0.240	-0.570	0.100
2020/01/31 20:58:41.3	5.520	0.230	-0.600	0.060
2020/01/31 20:58:41.4	5.550	0.230	-0.630	0.020
2020/01/31 20:58:41.5	5.570	0.230	-0.660	-0.030
2020/01/31 20:58:41.6	5.600	0.220	-0.680	-0.070
2020/01/31 20:58:41.7	5.630	0.210	-0.710	-0.120
2020/01/31 20:58:41.8	5.660	0.210	-0.730	-0.170
2020/01/31 20:58:41.9	5.700	0.200	-0.740	-0.210
2020/01/31 20:58:42.0	5.740	0.190	-0.760	-0.260
2020/01/31 20:58:42.1	5.780	0.180	-0.770	-0.310
2020/01/31 20:58:42.2	5.830	0.170	-0.780	-0.360
2020/01/31 20:58:42.3	5.870	0.150	-0.780	-0.410
2020/01/31 20:58:42.4	5.920	0.140	-0.780	-0.460
2020/01/31 20:58:42.5	5.970	0.130	-0.770	-0.500
2020/01/31 20:58:42.6	6.010	0.110	-0.760	-0.540
2020/01/31 20:58:42.7	6.060	0.090	-0.750	-0.590
2020/01/31 20:58:42.8	6.110	0.070	-0.730	-0.620
2020/01/31 20:58:42.9	6.150	0.050	-0.710	-0.660
2020/01/31 20:58:43.0	6.210	0.030	-0.680	-0.690
2020/01/31 20:58:43.1	6.260	0.010	-0.650	-0.720
2020/01/31 20:58:43.2	6.300	-0.010	-0.610	-0.750
2020/01/31 20:58:43.3	6.340	-0.040	-0.570	-0.770
2020/01/31 20:58:43.4	6.380	-0.060	-0.530	-0.790
2020/01/31 20:58:43.5	6.420	-0.090	-0.490	-0.810
2020/01/31 20:58:43.6	6.460	-0.110	-0.450	-0.820
2020/01/31 20:58:43.7	6.490	-0.130	-0.400	-0.830
2020/01/31 20:58:43.8	6.520	-0.160	-0.350	-0.830
2020/01/31 20:58:43.9	6.560	-0.180	-0.300	-0.830
2020/01/31 20:58:44.0	6.570	-0.200	-0.260	-0.820
2020/01/31 20:58:44.1	6.600	-0.220	-0.210	-0.810
2020/01/31 20:58:44.2	6.620	-0.240	-0.170	-0.790
2020/01/31 20:58:44.3	6.650	-0.260	-0.120	-0.770
2020/01/31 20:58:44.4	6.660	-0.280	-0.080	-0.750
2020/01/31 20:58:44.5	6.680	-0.300	-0.040	-0.720
2020/01/31 20:58:44.6	6.700	-0.310	-0.000	-0.690
2020/01/31 20:58:44.7	6.710	-0.320	0.030	-0.660
2020/01/31 20:58:44.8	6.720	-0.330	0.060	-0.630
2020/01/31 20:58:44.9	6.730	-0.340	0.080	-0.590
2020/01/31 20:58:45.0	6.750	-0.350	0.100	-0.550
2020/01/31 20:58:45.1	6.750	-0.350	0.120	-0.510
2020/01/31 20:58:45.2	6.750	-0.350	0.130	-0.460
2020/01/31 20:58:45.3	6.740	-0.350	0.140	-0.420
2020/01/31 20:58:45.4	6.740	-0.350	0.140	-0.370
2020/01/31 20:58:45.5	6.730	-0.340	0.140	-0.320
2020/01/31 20:58:45.6	6.720	-0.340	0.130	-0.270
2020/01/31 20:58:45.7	6.700	-0.330	0.120	-0.230
2020/01/31 20:58:45.8	6.680	-0.320	0.110	-0.180
2020/01/31 20:58:45.9	6.660	-0.300	0.090	-0.130
2020/01/31 20:58:46.0	6.630	-0.290	0.080	-0.080
2020/01/31 20:58:46.1	6.600	-0.270	0.060	-0.040
2020/01/31 20:58:46.2	6.570	-0.260	0.040	0.010
2020/01/31 20:58:46.3	6.550	-0.240	0.010	0.050
2020/01/31 20:58:46.4	6.520	-0.220	-0.010	0.100
2020/01/31 20:58:46.5	6.480	-0.200	-0.040	0.140
2020/01/31 20:58:46.6	6.450	-0.170	-0.060	0.170
2020/01/31 20:58:46.7	6.420	-0.150	-0.080	0.210
2020/01/31 20:58:46.8	6.390	-0.130	-0.110	0.240
2020/01/31 20:58:46.9	6.350	-0.110	-0.130	0.280
2020/01/31 20:58:47.0	6.320	-0.080	-0.150	0.310
2020/01/31 20:58:47.1	6.280	-0.060	-0.170	0.330
2020/01/31 20:58:47.2	6.250	-0.030	-0.190	0.360
2020/01/31 20:58:47.3	6.210	-0.010	-0.200	0.380
2020/01/31 20:58:47.4	6.180	0.010	-0.210	0.400
2020/01/31 20:58:47.5	6.140	0.040	-0.220	0.410
2020/01/31 20:58:47.6	6.110	0.060	-0.230	0.430
2020/01/31 20:58:47.7	6.080	0.080	-0.230	0.440
2020/01/31 20:58:47.8	6.050	0.100	-0.240	0.450
2020/01/31 20:58:47.9	6.010	0.120	-0.240	0.460
2020/01/31 20:58:48.0	5.990	0.140	-0.230	0.460
2020/01/31 20:58:48.1	5.960	0.160	-0.230	0.470
2020/01/31 20:58:48.2	5.930	0.180	-0.220	0.470
2020/01/31 20:58:48.3	5.890	0.190	-0.210	0.480
2020/01/31 20:58:48.4	5.860	0.200	-0.200	0.480
2020/01/31 20:58:48.5	5.820	0.220	-0.180	0.480
2020/01/31 20:58:48.6	5.790	0.230	-0.170	0.480
2020/01/31 20:58:48.7	5.750	0.230	-0.150	0.480
2020/01/31 20:58:48.8	5.710	0.240	-0.130	0.480
2020/01/31 20:58:48.9	5.670	0.240	-0.110	0.480
2020/01/31 20:58:49.0	5.650	0.250	-0.090	0.480
2020/01/31 20:58:49.1	5.610	0.250	-0.070	0.480
2020/01/31 20:58:49.2	5.570	0.240	-0.050	0.470
2020/01/31 20:58:49.3	5.530	0.240	-0.030	0.460
2020/01/31 20:58:49.4	5.500	0.230	-0.010	0.460
2020/01/31 20:58:49.5	5.460	0.220	0.010	0.450
2020/01/31 20:58:49.6	5.430	0.210	0.030	0.430
2020/01/31 20:58:49.7	5.400	0.200	0.050	0.420
2020/01/31 20:58:49.8	5.370	0.190	0.060	0.400
2020/01/31 20:58:49.9	5.350	0.170	0.080	0.380
2020/01/31 20:58:50.0	5.330	0.160	0.090	0.350
2020/01/31 20:58:50.1	5.310	0.140	0.100	0.330
2020/01/31 20:58:50.2	5.290	0.120	0.100	0.300
2020/01/31 20:58:50.3	5.280	0.100	0.110	0.270
2020/01/31 20:58:50.4	5.270	0.080	0.110	0.240
2020/01/31 20:58:50.5	5.270	0.060	0.100	0.200
2020/01/31 20:58:50.6	5.270	0.040	0.100	0.160
2020/01/31 20:58:50.7	5.280	0.010	0.090	0.120
2020/01/31 20:58:50.8	5.290	-0.010	0.070	0.080
2020/01/31 20:58:50.9	5.300	-0.020	0.060	0.030
2020/01/31 20:58:51.0	5.320	-0.040	0.040	-0.020
2020/01/31 20:58:51.1	5.340	-0.060	0.010	-0.070
2020/01/31 20:58:51.2	5.360	-0.080	-0.020	-0.110
2020/01/31 20:58:51.3	5.390	-0.090	-0.050	-0.170
2020/01/31 20:58:51.4	5.420	-0.100	-0.080	-0.220
2020/01/31 20:58:51.5	5.460	-0.120	-0.120	-0.270
2020/01/31 20:58:51.6	5.490	-0.130	-0.150	-0.320
2020/01/31 20:58:51.7	5.530	-0.130	-0.190	-0.360
2020/01/31 20:58:51.8	5.570	-0.140	-0.230	-0.410
2020/01/31 20:58:51.9	5.610	-0.140	-0.280	-0.460
2020/01/31 20:58:52.0	5.640	-0.150	-0.320	-0.500
2020/01/31 20:58:52.1	5.680	-0.150	-0.360	-0.540
2020/01/31 20:58:52.2	5.720	-0.140	-0.400	-0.580
2020/01/31 20:58:52.3	5.760	-0.140	-0.450	-0.610
2020/01/31 20:58:52.4	5.800	-0.140	-0.490	-0.640
2020/01/31 20:58:52.5	5.840	-0.130	-0.530	-0.670
2020/01/31 20:58:52.6	5.880	-0.120	-0.570	-0.690
2020/01/31 20:58:52.7	5.920	-0.110	-0.610	-0.710
2020/01/31 20:58:52.8	5.950	-0.100	-0.650	-0.730
2020/01/31 20:58:52.9	5.990	-0.090	-0.680	-0.750
2020/01/31 20:58:53.0	6.020	-0.080	-0.720	-0.770
2020/01/31 20:58:53.1	6.050	-0.070	-0.750	-0.780
2020/01/31 20:58:53.2	6.080	-0.060	-0.780	-0.790
2020/01/31 20:58:53.3	6.110	-0.040	-0.800	-0.800
2020/01/31 20:58:53.4	6.140	-0.030	-0.830	-0.800
2020/01/31 20:58:53.5	6.170	-0.020	-0.850	-0.810
2020/01/31 20:58:53.6	6.190	-0.010	-0.870	-0.810
2020/01/31 20:58:53.7	6.220	0.010	-0.890	-0.810
2020/01/31 20:58:53.8	6.240	0.020	-0.900	-0.800
2020/01/31 20:58:53.9	6.260	0.030	-0.920	-0.800
2020/01/31 20:58:54.0	6.300	0.040	-0.920	-0.790
2020/01/31 20:58:54.1	6.320	0.050	-0.930	-0.770
2020/01/31 20:58:54.2	6.340	0.060	-0.930	-0.760
2020/01/31 20:58:54.3	6.350	0.070	-0.930	-0.740
2020/01/31 20:58:54.4	6.370	0.080	-0.930	-0.720
2020/01/31 20:58:54.5	6.380	0.080	-0.920	-0.700
2020/01/31 20:58:54.6	6.380	0.090	-0.910	-0.670
2020/01/31 20:58:54.7	6.390	0.090	-0.900	-0.650
2020/01/31 20:58:54.8	6.390	0.090	-0.880	-0.620
2020/01/31 20:58:54.9	6.390	0.090	-0.860	-0.580
2020/01/31 20:58:55.0	6.390	0.090	-0.840	-0.550
2020/01/31 20:58:55.1	6.380	0.090	-0.810	-0.510
2020/01/31 20:58:55.2	6.370	0.080	-0.780	-0.470
2020/01/31 20:58:55.3	6.360	0.080	-0.740	-0.440
2020/01/31 20:58:55.4	6.350	0.070	-0.700	-0.400
2020/01/31 20:58:55.5	6.340	0.070	-0.660	-0.350
2020/01/31 20:58:55.6	6.320	0.060	-0.610	-0.310
2020/01/31 20:58:55.7	6.300	0.050	-0.560	-0.270
2020/01/31 20:58:55.8	6.280	0.040	-0.500	-0.230
2020/01/31 20:58:55.9	6.250	0.030	-0.440	-0.180
2020/01/31 20:58:56.0	6.220	0.020	-0.380	-0.140
2020/01/31 20:58:56.1	6.190	0.010	-0.320	-0.100
2020/01/31 20:58:56.2	6.160	0.000	-0.250	-0.050
2020/01/31 20:58:56.3	6.130	-0.010	-0.180	-0.010
2020/01/31 20:58:56.4	6.090	-0.010	-0.120	0.040
2020/01/31 20:58:56.5	6.060	-0.020	-0.050	0.080
2020/01/31 20:58:56.6	6.020	-0.030	0.020	0.120
2020/01/31 20:58:56.7	5.980	-0.040	0.090	0.170
2020/01/31 20:58:56.8	5.940	-0.040	0.150	0.210
2020/01/31 20:58:56.9	5.900	-0.050	0.220	0.250
2020/01/31 20:58:57.0	5.850	-0.060	0.270	0.280
2020/01/31 20:58:57.1	5.800	-0.060	0.330	0.320
2020/01/31 20:58:57.2	5.760	-0.070	0.390	0.360
2020/01/31 20:58:57.3	5.720	-0.070	0.440	0.390
2020/01/31 20:58:57.4	5.670	-0.070	0.480	0.420
2020/01/31 20:58:57.5	5.630	-0.080	0.530	0.450
2020/01/31 20:58:57.6	5.580	-0.080	0.560	0.470
2020/01/31 20:58:57.7	5.540	-0.080	0.590	0.490
2020/01/31 20:58:57.8	5.500	-0.080	0.620	0.510
2020/01/31 20:58:57.9	5.460	-0.080	0.630	0.520
2020/01/31 20:58:58.0	5.430	-0.080	0.650	0.530
2020/01/31 20:58:58.1	5.390	-0.080	0.650	0.530
2020/01/31 20:58:58.2	5.360	-0.080	0.650	0.530
2020/01/31 20:58:58.3	5.330	-0.080	0.640	0.530
2020/01/31 20:58:58.4	5.310	-0.080	0.620	0.510
2020/01/31 20:58:58.5	5.280	-0.080	0.590	0.500
2020/01/31 20:58:58.6	5.270	-0.070	0.560	0.480
2020/01/31 20:58:58.7	5.250	-0.070	0.520	0.450
2020/01/31 20:58:58.8	5.240	-0.070	0.470	0.420
2020/01/31 20:58:58.9	5.240	-0.070	0.420	0.390
2020/01/31 20:58:59.0	5.230	-0.060	0.360	0.340
2020/01/31 20:58:59.1	5.240	-0.060	0.300	0.300
2020/01/31 20:58:59.2	5.240	-0.050	0.230	0.260
2020/01/31 20:58:59.3	5.250	-0.050	0.160	0.210
2020/01/31 20:58:59.4	5.260	-0.050	0.090	0.150
2020/01/31 20:58:59.5	5.270	-0.040	0.010	0.100
2020/01/31 20:58:59.6	5.290	-0.040	-0.060	0.050
2020/01/31 20:58:59.7	5.310	-0.030	-0.140	-0.010
2020/01/31 20:58:59.8	5.330	-0.030	-0.210	-0.060
2020/01/31 20:58:59.9	5.350	-0.030	-0.290	-0.120
2020/01/31 20:59:00.0	5.370	-0.030	-0.360	-0.170
2020/01/31 20:59:00.1	5.390	-0.020	-0.420	-0.220
2020/01/31 20:59:00.2	5.410	-0.020	-0.490	-0.270
2020/01/31 20:59:00.3	5.430	-0.020	-0.550	-0.320
2020/01/31 20:59:00.4	5.450	-0.020	-0.600	-0.360
2020/01/31 20:59:00.5	5.470	-0.020	-0.650	-0.410
2020/01/31 20:59:00.6	5.490	-0.020	-0.690	-0.440
2020/01/31 20:59:00.7	5.510	-0.030	-0.730	-0.480
2020/01/31 20:59:00.8	5.530	-0.030	-0.760	-0.510
2020/01/31 20:59:00.9	5.540	-0.030	-0.780	-0.530
2020/01/31 20:59:01.0	5.560	-0.030	-0.800	-0.560
2020/01/31 20:59:01.1	5.580	-0.030	-0.810	-0.570
2020/01/31 20:59:01.2	5.590	-0.030	-0.820	-0.590
2020/01/31 20:59:01.3	5.610	-0.040	-0.820	-0.600
2020/01/31 20:59:01.4	5.620	-0.040	-0.820	-0.600
2020/01/31 20:59:01.5	5.630	-0.040	-0.810	-0.610
2020/01/31 20:59:01.6	5.650	-0.040	-0.800	-0.610
2020/01/31 20:59:01.7	5.660	-0.040	-0.790	-0.600
2020/01/31 20:59:01.8	5.680	-0.040	-0.770	-0.600
2020/01/31 20:59:01.9	5.690	-0.030	-0.750	-0.590
2020/01/31 20:59:02.0	5.710	-0.030	-0.730	-0.580
2020/01/31 20:59:02.1	5.730	-0.020	-0.710	-0.570
2020/01/31 20:59:02.2	5.750	-0.020	-0.690	-0.550
2020/01/31 20:59:02.3	5.770	-0.010	-0.660	-0.540
2020/01/31 20:59:02.4	5.790	0.000	-0.640	-0.520
2020/01/31 20:59:02.5	5.810	0.020	-0.610	-0.500
2020/01/31 20:59:02.6	5.840	0.030	-0.590	-0.480
2020/01/31 20:59:02.7	5.860	0.040	-0.570	-0.460
2020/01/31 20:59:02.8	5.880	0.060	-0.540	-0.440
2020/01/31 20:59:02.9	5.910	0.080	-0.520	-0.410
2020/01/31 20:59:03.0	5.930	0.100	-0.500	-0.390
2020/01/31 20:59:03.1	5.950	0.110	-0.480	-0.370
2020/01/31 20:59:03.2	5.970	0.130	-0.460	-0.340
2020/01/31 20:59:03.3	5.990	0.150	-0.440	-0.310
2020/01/31 20:59:03.4	6.010	0.170	-0.420	-0.280
2020/01/31 20:59:03.5	6.030	0.190	-0.400	-0.250
2020/01/31 20:59:03.6	6.050	0.200	-0.370	-0.220
2020/01/31 20:59:03.7	6.060	0.220	-0.350	-0.190
2020/01/31 20:59:03.8	6.080	0.230	-0.330	-0.160
2020/01/31 20:59:03.9	6.090	0.240	-0.310	-0.130
2020/01/31 20:59:04.0	6.090	0.250	-0.280	-0.090
2020/01/31 20:59:04.1	6.100	0.260	-0.260	-0.050
2020/01/31 20:59:04.2	6.100	0.260	-0.240	-0.020
2020/01/31 20:59:04.3	6.100	0.260	-0.210	0.010
2020/01/31 20:59:04.4	6.100	0.260	-0.190	0.040
2020/01/31 20:59:04.5	6.100	0.250	-0.160	0.070
2020/01/31 20:59:04.6	6.090	0.240	-0.130	0.100
2020/01/31 20:59:04.7	6.080	0.230	-0.110	0.130
2020/01/31 20:59:04.8	6.070	0.210	-0.080	0.150
2020/01/31 20:59:04.9	6.060	0.190	-0.050	0.180
2020/01/31 20:59:05.0	6.040	0.160	-0.030	0.200
2020/01/31 20:59:05.1	6.020	0.140	0.000	0.220
2020/01/31 20:59:05.2	6.000	0.110	0.030	0.230
2020/01/31 20:59:05.3	5.980	0.070	0.050	0.250
2020/01/31 20:59:05.4	5.950	0.040	0.080	0.260
2020/01/31 20:59:05.5	5.930	-0.000	0.100	0.270
2020/01/31 20:59:05.6	5.900	-0.040	0.120	0.280
2020/01/31 20:59:05.7	5.870	-0.080	0.140	0.280
2020/01/31 20:59:05.8	5.850	-0.130	0.160	0.280
2020/01/31 20:59:05.9	5.820	-0.170	0.180	0.280
2020/01/31 20:59:06.0	5.780	-0.210	0.190	0.270
2020/01/31 20:59:06.1	5.760	-0.250	0.200	0.260
2020/01/31 20:59:06.2	5.730	-0.300	0.210	0.240
2020/01/31 20:59:06.3	5.700	-0.340	0.220	0.230
2020/01/31 20:59:06.4	5.680	-0.380	0.220	0.210
2020/01/31 20:59:06.5	5.660	-0.410	0.220	0.190
2020/01/31 20:59:06.6	5.640	-0.450	0.220	0.160
2020/01/31 20:59:06.7	5.610	-0.480	0.210	0.130
2020/01/31 20:59:06.8	5.600	-0.510	0.200	0.100
2020/01/31 20:59:06.9	5.580	-0.530	0.180	0.070
2020/01/31 20:59:07.0	5.560	-0.550	0.170	0.040
2020/01/31 20:59:07.1	5.540	-0.570	0.150	0.000
2020/01/31 20:59:07.2	5.530	-0.580	0.120	-0.030
2020/01/31 20:59:07.3	5.520	-0.590	0.100	-0.060
2020/01/31 20:59:07.4	5.500	-0.600	0.070	-0.100
2020/01/31 20:59:07.5	5.490	-0.590	0.040	-0.130
2020/01/31 20:59:07.6	5.480	-0.590	0.010	-0.160
2020/01/31 20:59:07.7	5.470	-0.580	-0.020	-0.200
2020/01/31 20:59:07.8	5.460	-0.560	-0.060	-0.230
2020/01/31 20:59:07.9	5.450	-0.550	-0.090	-0.260
2020/01/31 20:59:08.0	5.440	-0.520	-0.130	-0.290
2020/01/31 20:59:08.1	5.430	-0.500	-0.170	-0.310
2020/01/31 20:59:08.2	5.420	-0.460	-0.200	-0.340
2020/01/31 20:59:08.3	5.420	-0.430	-0.240	-0.360
2020/01/31 20:59:08.4	5.410	-0.390	-0.280	-0.380
2020/01/31 20:59:08.5	5.410	-0.350	-0.310	-0.400
2020/01/31 20:59:08.6	5.400	-0.310	-0.350	-0.410
2020/01/31 20:59:08.7	5.400	-0.260	-0.380	-0.420
2020/01/31 20:59:08.8	5.390	-0.210	-0.420	-0.430
2020/01/31 20:59:08.9	5.390	-0.160	-0.450	-0.440
2020/01/31 20:59:09.0	5.390	-0.110	-0.480	-0.440
2020/01/31 20:59:09.1	5.390	-0.060	-0.510	-0.440
2020/01/31 20:59:09.2	5.390	-0.000	-0.540	-0.440
2020/01/31 20:59:09.3	5.390	0.050	-0.570	-0.430
2020/01/31 20:59:09.4	5.400	0.100	-0.590	-0.420
2020/01/31 20:59:09.5	5.400	0.160	-0.610	-0.410
2020/01/31 20:59:09.6	5.410	0.210	-0.630	-0.400
2020/01/31 20:59:09.7	5.410	0.260	-0.650	-0.380
2020/01/31 20:59:09.8	5.420	0.310	-0.670	-0.360
2020/01/31 20:59:09.9	5.430	0.350	-0.680	-0.340
2020/01/31 20:59:10.0	5.440	0.400	-0.690	-0.310
2020/01/31 20:59:10.1	5.450	0.440	-0.700	-0.290
2020/01/31 20:59:10.2	5.460	0.480	-0.710	-0.260
2020/01/31 20:59:10.3	5.470	0.510	-0.720	-0.240
2020/01/31 20:59:10.4	5.480	0.540	-0.720	-0.210
2020/01/31 20:59:10.5	5.500	0.570	-0.720	-0.190
2020/01/31 20:59:10.6	5.510	0.590	-0.720	-0.160
2020/01/31 20:59:10.7	5.520	0.610	-0.720	-0.140
2020/01/31 20:59:10.8	5.540	0.620	-0.720	-0.120
2020/01/31 20:59:10.9	5.550	0.630	-0.710	-0.100
2020/01/31 20:59:11.0	5.560	0.640	-0.700	-0.070
2020/01/31 20:59:11.1	5.580	0.630	-0.690	-0.060
2020/01/31 20:59:11.2	5.590	0.630	-0.680	-0.040
2020/01/31 20:59:11.3	5.600	0.620	-0.670	-0.030
2020/01/31 20:59:11.4	5.620	0.600	-0.650	-0.020
2020/01/31 20:59:11.5	5.630	0.590	-0.640	-0.010
2020/01/31 20:59:11.6	5.640	0.560	-0.620	-0.010
2020/01/31 20:59:11.7	5.660	0.540	-0.600	-0.010
2020/01/31 20:59:11.8	5.670	0.500	-0.580	-0.010
2020/01/31 20:59:11.9	5.690	0.470	-0.570	-0.010
2020/01/31 20:59:12.0	5.700	0.430	-0.540	-0.020
2020/01/31 20:59:12.1	5.720	0.390	-0.520	-0.030
2020/01/31 20:59:12.2	5.730	0.340	-0.500	-0.040
2020/01/31 20:59:12.3	5.750	0.300	-0.480	-0.050
2020/01/31 20:59:12.4	5.760	0.250	-0.450	-0.070
2020/01/31 20:59:12.5	5.770	0.200	-0.430	-0.090
2020/01/31 20:59:12.6	5.790	0.140	-0.400	-0.110
2020/01/31 20:59:12.7	5.800	0.090	-0.380	-0.130
2020/01/31 20:59:12.8	5.820	0.040	-0.350	-0.160
2020/01/31 20:59:12.9	5.830	-0.020	-0.330	-0.190
2020/01/31 20:59:13.0	5.850	-0.070	-0.300	-0.220
2020/01/31 20:59:13.1	5.860	-0.120	-0.270	-0.250
2020/01/31 20:59:13.2	5.880	-0.170	-0.240	-0.280
2020/01/31 20:59:13.3	5.890	-0.220	-0.210	-0.310
2020/01/31 20:59:13.4	5.900	-0.260	-0.180	-0.340
2020/01/31 20:59:13.5	5.920	-0.310	-0.150	-0.360
2020/01/31 20:59:13.6	5.930	-0.350	-0.120	-0.390
2020/01/31 20:59:13.7	5.940	-0.390	-0.090	-0.410
2020/01/31 20:59:13.8	5.950	-0.420	-0.050	-0.440
2020/01/31 20:59:13.9	5.960	-0.450	-0.010	-0.450
2020/01/31 20:59:14.0	5.970	-0.480	0.020	-0.470
2020/01/31 20:59:14.1	5.970	-0.500	0.060	-0.480
2020/01/31 20:59:14.2	5.970	-0.520	0.100	-0.490
2020/01/31 20:59:14.3	5.970	-0.540	0.140	-0.490
2020/01/31 20:59:14.4	5.970	-0.550	0.180	-0.480
2020/01/31 20:59:14.5	5.960	-0.560	0.220	-0.470
2020/01/31 20:59:14.6	5.950	-0.560	0.260	-0.450
2020/01/31 20:59:14.7	5.940	-0.560	0.300	-0.430
2020/01/31 20:59:14.8	5.930	-0.560	0.340	-0.400
2020/01/31 20:59:14.9	5.910	-0.550	0.380	-0.370
2020/01/31 20:59:15.0	5.890	-0.540	0.420	-0.330
2020/01/31 20:59:15.1	5.870	-0.520	0.450	-0.290
2020/01/31 20:59:15.2	5.850	-0.500	0.480	-0.240
2020/01/31 20:59:15.3	5.830	-0.480	0.510	-0.190
2020/01/31 20:59:15.4	5.800	-0.460	0.530	-0.140
2020/01/31 20:59:15.5	5.780	-0.430	0.550	-0.090
2020/01/31 20:59:15.6	5.750	-0.400	0.560	-0.040
2020/01/31 20:59:15.7	5.730	-0.370	0.570	0.010
2020/01/31 20:59:15.8	5.700	-0.340	0.570	0.060
2020/01/31 20:59:15.9	5.680	-0.310	0.570	0.110
2020/01/31 20:59:16.0	5.660	-0.270	0.550	0.160
2020/01/31 20:59:16.1	5.640	-0.240	0.530	0.200
2020/01/31 20:59:16.2	5.610	-0.200	0.510	0.250
2020/01/31 20:59:16.3	5.590	-0.160	0.480	0.290
2020/01/31 20:59:16.4	5.570	-0.130	0.450	0.320
2020/01/31 20:59:16.5	5.560	-0.090	0.400	0.360
2020/01/31 20:59:16.6	5.540	-0.050	0.360	0.390
2020/01/31 20:59:16.7	5.520	-0.010	0.310	0.410
2020/01/31 20:59:16.8	5.500	0.020	0.250	0.440
2020/01/31 20:59:16.9	5.490	0.060	0.190	0.460
2020/01/31 20:59:17.0	5.470	0.090	0.120	0.470
2020/01/31 20:59:17.1	5.460	0.130	0.050	0.490
2020/01/31 20:59:17.2	5.450	0.160	-0.020	0.490
2020/01/31 20:59:17.3	5.430	0.190	-0.100	0.500
2020/01/31 20:59:17.4	5.420	0.220	-0.170	0.500
2020/01/31 20:59:17.5	5.410	0.240	-0.250	0.500
2020/01/31 20:59:17.6	5.400	0.270	-0.330	0.490
2020/01/31 20:59:17.7	5.390	0.290	-0.410	0.480
2020/01/31 20:59:17.8	5.380	0.310	-0.490	0.470
2020/01/31 20:59:17.9	5.370	0.330	-0.570	0.450
2020/01/31 20:59:18.0	5.380	0.340	-0.650	0.430
2020/01/31 20:59:18.1	5.370	0.350	-0.730	0.410
2020/01/31 20:59:18.2	5.360	0.360	-0.800	0.390
2020/01/31 20:59:18.3	5.360	0.370	-0.860	0.360
2020/01/31 20:59:18.4	5.360	0.370	-0.930	0.330
2020/01/31 20:59:18.5	5.350	0.370	-0.980	0.300
2020/01/31 20:59:18.6	5.350	0.370	-1.040	0.260
2020/01/31 20:59:18.7	5.350	0.360	-1.090	0.230
2020/01/31 20:59:18.8	5.350	0.350	-1.130	0.190
2020/01/31 20:59:18.9	5.350	0.340	-1.160	0.150
2020/01/31 20:59:19.0	5.360	0.330	-1.190	0.100
2020/01/31 20:59:19.1	5.360	0.310	-1.210	0.060
2020/01/31 20:59:19.2	5.370	0.300	-1.230	0.010
2020/01/31 20:59:19.3	5.370	0.280	-1.240	-0.030
2020/01/31 20:59:19.4	5.380	0.260	-1.240	-0.080
2020/01/31 20:59:19.5	5.390	0.240	-1.240	-0.130
2020/01/31 20:59:19.6	5.410	0.210	-1.230	-0.190
2020/01/31 20:59:19.7	5.420	0.190	-1.220	-0.240
2020/01/31 20:59:19.8	5.440	0.160	-1.210	-0.290
2020/01/31 20:59:19.9	5.460	0.140	-1.180	-0.350
2020/01/31 20:59:20.0	5.480	0.110	-1.160	-0.400
2020/01/31 20:59:20.1	5.510	0.090	-1.120	-0.450
2020/01/31 20:59:20.2	5.530	0.060	-1.090	-0.510
2020/01/31 20:59:20.3	5.560	0.040	-1.040	-0.560
2020/01/31 20:59:20.4	5.590	0.010	-1.000	-0.610
2020/01/31 20:59:20.5	5.620	-0.010	-0.950	-0.660
2020/01/31 20:59:20.6	5.650	-0.040	-0.900	-0.710
2020/01/31 20:59:20.7	5.680	-0.060	-0.840	-0.760
2020/01/31 20:59:20.8	5.720	-0.080	-0.780	-0.800
2020/01/31 20:59:20.9	5.750	-0.100	-0.720	-0.850
2020/01/31 20:59:21.0	5.790	-0.120	-0.660	-0.890
2020/01/31 20:59:21.1	5.820	-0.130	-0.590	-0.920
2020/01/31 20:59:21.2	5.860	-0.150	-0.520	-0.950
2020/01/31 20:59:21.3	5.900	-0.160	-0.460	-0.980
2020/01/31 20:59:21.4	5.930	-0.170	-0.390	-1.000
2020/01/31 20:59:21.5	5.960	-0.180	-0.320	-1.020
2020/01/31 20:59:21.6	5.990	-0.190	-0.250	-1.030
2020/01/31 20:59:21.7	6.020	-0.190	-0.180	-1.030
2020/01/31 20:59:21.8	6.050	-0.200	-0.110	-1.030
2020/01/31 20:59:21.9	6.080	-0.200	-0.040	-1.020
2020/01/31 20:59:22.0	6.100	-0.200	0.030	-1.010
2020/01/31 20:59:22.1	6.120	-0.200	0.090	-0.990
2020/01/31 20:59:22.2	6.130	-0.200	0.150	-0.970
2020/01/31 20:59:22.3	6.150	-0.190	0.210	-0.940
2020/01/31 20:59:22.4	6.160	-0.190	0.260	-0.910
2020/01/31 20:59:22.5	6.170	-0.180	0.320	-0.880
2020/01/31 20:59:22.6	6.170	-0.170	0.360	-0.840
2020/01/31 20:59:22.7	6.180	-0.160	0.400	-0.800
2020/01/31 20:59:22.8	6.180	-0.150	0.440	-0.750
2020/01/31 20:59:22.9	6.180	-0.140	0.470	-0.710
2020/01/31 20:59:23.0	6.160	-0.130	0.490	-0.660
2020/01/31 20:59:23.1	6.150	-0.110	0.510	-0.610
2020/01/31 20:59:23.2	6.140	-0.100	0.530	-0.560
2020/01/31 20:59:23.3	6.130	-0.080	0.540	-0.510
2020/01/31 20:59:23.4	6.120	-0.060	0.540	-0.460
2020/01/31 20:59:23.5	6.100	-0.050	0.540	-0.400
2020/01/31 20:59:23.6	6.080	-0.030	0.530	-0.350
2020/01/31 20:59:23.7	6.070	-0.010	0.520	-0.290
2020/01/31 20:59:23.8	6.050	0.010	0.500	-0.240
2020/01/31 20:59:23.9	6.030	0.030	0.480	-0.180
2020/01/31 20:59:24.0	6.010	0.050	0.460	-0.120
2020/01/31 20:59:24.1	5.990	0.070	0.430	-0.070
2020/01/31 20:59:24.2	5.960	0.090	0.400	-0.010
2020/01/31 20:59:24.3	5.940	0.100	0.370	0.050
2020/01/31 20:59:24.4	5.910	0.120	0.340	0.100
2020/01/31 20:59:24.5	5.880	0.140	0.300	0.150
2020/01/31 20:59:24.6	5.860	0.150	0.260	0.210
2020/01/31 20:59:24.7	5.830	0.170	0.230	0.260
2020/01/31 20:59:24.8	5.800	0.180	0.190	0.310
2020/01/31 20:59:24.9	5.770	0.190	0.160	0.360
2020/01/31 20:59:25.0	5.730	0.200	0.120	0.400
2020/01/31 20:59:25.1	5.700	0.200	0.090	0.440
2020/01/31 20:59:25.2	5.670	0.210	0.050	0.480
2020/01/31 20:59:25.3	5.640	0.210	0.020	0.520
2020/01/31 20:59:25.4	5.610	0.200	-0.010	0.550
2020/01/31 20:59:25.5	5.580	0.200	-0.040	0.580
2020/01/31 20:59:25.6	5.550	0.190	-0.070	0.610
2020/01/31 20:59:25.7	5.520	0.180	-0.090	0.630
2020/01/31 20:59:25.8	5.490	0.160	-0.120	0.640
2020/01/31 20:59:25.9	5.470	0.150	-0.140	0.650
2020/01/31 20:59:26.0	5.450	0.120	-0.160	0.660
2020/01/31 20:59:26.1	5.430	0.100	-0.180	0.660
2020/01/31 20:59:26.2	5.400	0.080	-0.200	0.650
2020/01/31 20:59:26.3	5.380	0.050	-0.220	0.640
2020/01/31 20:59:26.4	5.370	0.020	-0.240	0.620
2020/01/31 20:59:26.5	5.350	-0.020	-0.250	0.600
2020/01/31 20:59:26.6	5.340	-0.050	-0.270	0.580
2020/01/31 20:59:26.7	5.320	-0.090	-0.280	0.550
2020/01/31 20:59:26.8	5.310	-0.120	-0.300	0.510
2020/01/31 20:59:26.9	5.310	-0.160	-0.320	0.470
2020/01/31 20:59:27.0	5.300	-0.200	-0.330	0.420
2020/01/31 20:59:27.1	5.300	-0.240	-0.350	0.370
2020/01/31 20:59:27.2	5.300	-0.270	-0.370	0.320
2020/01/31 20:59:27.3	5.310	-0.310	-0.390	0.260
2020/01/31 20:59:27.4	5.320	-0.340	-0.410	0.200
2020/01/31 20:59:27.5	5.330	-0.380	-0.430	0.130
2020/01/31 20:59:27.6	5.340	-0.410	-0.460	0.060
2020/01/31 20:59:27.7	5.360	-0.440	-0.480	-0.010
2020/01/31 20:59:27.8	5.380	-0.460	-0.510	-0.080
2020/01/31 20:59:27.9	5.400	-0.480	-0.540	-0.150
2020/01/31 20:59:28.0	5.420	-0.500	-0.570	-0.230
2020/01/31 20:59:28.1	5.440	-0.520	-0.590	-0.300
2020/01/31 20:59:28.2	5.470	-0.530	-0.620	-0.370
2020/01/31 20:59:28.3	5.490	-0.540	-0.650	-0.440
2020/01/31 20:59:28.4	5.510	-0.540	-0.680	-0.500
2020/01/31 20:59:28.5	5.540	-0.540	-0.710	-0.560
2020/01/31 20:59:28.6	5.560	-0.530	-0.730	-0.620
2020/01/31 20:59:28.7	5.580	-0.520	-0.750	-0.670
2020/01/31 20:59:28.8	5.600	-0.510	-0.770	-0.710
2020/01/31 20:59:28.9	5.620	-0.490	-0.790	-0.750
2020/01/31 20:59:29.0	5.640	-0.460	-0.810	-0.790
2020/01/31 20:59:29.1	5.650	-0.440	-0.820	-0.820
2020/01/31 20:59:29.2	5.670	-0.410	-0.830	-0.840
2020/01/31 20:59:29.3	5.680	-0.370	-0.830	-0.860
2020/01/31 20:59:29.4	5.690	-0.330	-0.830	-0.870
2020/01/31 20:59:29.5	5.710	-0.290	-0.830	-0.880
2020/01/31 20:59:29.6	5.720	-0.250	-0.820	-0.880
2020/01/31 20:59:29.7	5.720	-0.200	-0.820	-0.870
2020/01/31 20:59:29.8	5.730	-0.160	-0.800	-0.870
2020/01/31 20:59:29.9	5.740	-0.110	-0.790	-0.850
2020/01/31 20:59:30.0	5.750	-0.060	-0.780	-0.840
2020/01/31 20:59:30.1	5.760	-0.010	-0.760	-0.820
2020/01/31 20:59:30.2	5.770	0.050	-0.740	-0.800
2020/01/31 20:59:30.3	5.770	0.100	-0.720	-0.770
2020/01/31 20:59:30.4	5.780	0.150	-0.710	-0.750
2020/01/31 20:59:30.5	5.790	0.200	-0.690	-0.720
2020/01/31 20:59:30.6	5.800	0.240	-0.670	-0.700
2020/01/31 20:59:30.7	5.800	0.290	-0.650	-0.670
2020/01/31 20:59:30.8	5.820	0.340	-0.630	-0.640
2020/01/31 20:59:30.9	5.830	0.380	-0.620	-0.610
2020/01/31 20:59:31.0	5.840	0.420	-0.610	-0.580
2020/01/31 20:59:31.1	5.860	0.460	-0.590	-0.550
2020/01/31 20:59:31.2	5.870	0.490	-0.580	-0.530
2020/01/31 20:59:31.3	5.890	0.530	-0.570	-0.500
2020/01/31 20:59:31.4	5.910	0.550	-0.560	-0.480
2020/01/31 20:59:31.5	5.930	0.580	-0.550	-0.450
2020/01/31 20:59:31.6	5.950	0.600	-0.540	-0.430
2020/01/31 20:59:31.7	5.960	0.620	-0.530	-0.410
2020/01/31 20:59:31.8	5.980	0.630	-0.530	-0.390
2020/01/31 20:59:31.9	6.000	0.640	-0.520	-0.370
2020/01/31 20:59:32.0	6.010	0.650	-0.510	-0.340
2020/01/31 20:59:32.1	6.030	0.650	-0.490	-0.330
2020/01/31 20:59:32.2	6.040	0.650	-0.480	-0.310
2020/01/31 20:59:32.3	6.050	0.640	-0.460	-0.290
2020/01/31 20:59:32.4	6.060	0.630	-0.440	-0.270
2020/01/31 20:59:32.5	6.070	0.620	-0.420	-0.250
2020/01/31 20:59:32.6	6.080	0.600	-0.390	-0.230
2020/01/31 20:59:32.7	6.090	0.580	-0.360	-0.210
2020/01/31 20:59:32.8	6.090	0.560	-0.330	-0.200
2020/01/31 20:59:32.9	6.090	0.530	-0.290	-0.180
2020/01/31 20:59:33.0	6.100	0.500	-0.250	-0.160
2020/01/31 20:59:33.1	6.090	0.460	-0.210	-0.140
2020/01/31 20:59:33.2	6.090	0.430	-0.160	-0.120
2020/01/31 20:59:33.3	6.080	0.390	-0.110	-0.100
2020/01/31 20:59:33.4	6.070	0.350	-0.050	-0.080
2020/01/31 20:59:33.5	6.060	0.300	0.010	-0.060
2020/01/31 20:59:33.6	6.050	0.260	0.070	-0.040
2020/01/31 20:59:33.7	6.040	0.210	0.130	-0.020
2020/01/31 20:59:33.8	6.020	0.160	0.190	0.000
2020/01/31 20:59:33.9	6.000	0.120	0.250	0.030
2020/01/31 20:59:34.0	5.980	0.070	0.320	0.050
2020/01/31 20:59:34.1	5.960	0.020	0.380	0.070
2020/01/31 20:59:34.2	5.940	-0.030	0.440	0.090
2020/01/31 20:59:34.3	5.920	-0.070	0.500	0.110
2020/01/31 20:59:34.4	5.890	-0.120	0.550	0.130
2020/01/31 20:59:34.5	5.870	-0.160	0.600	0.150
2020/01/31 20:59:34.6	5.840	-0.200	0.650	0.170
2020/01/31 20:59:34.7	5.820	-0.240	0.690	0.190
2020/01/31 20:59:34.8	5.790	-0.280	0.730	0.210
2020/01/31 20:59:34.9	5.770	-0.310	0.760	0.220
2020/01/31 20:59:35.0	5.730	-0.350	0.790	0.240
2020/01/31 20:59:35.1	5.700	-0.370	0.810	0.250
2020/01/31 20:59:35.2	5.680	-0.400	0.820	0.270
2020/01/31 20:59:35.3	5.650	-0.420	0.830	0.280
2020/01/31 20:59:35.4	5.620	-0.440	0.830	0.290
2020/01/31 20:59:35.5	5.600	-0.450	0.820	0.300
2020/01/31 20:59:35.6	5.570	-0.460	0.800	0.310
2020/01/31 20:59:35.7	5.550	-0.470	0.780	0.320
2020/01/31 20:59:35.8	5.520	-0.470	0.750	0.330
2020/01/31 20:59:35.9	5.500	-0.460	0.710	0.330
2020/01/31 20:59:36.0	5.470	-0.450	0.670	0.330
2020/01/31 20:59:36.1	5.450	-0.440	0.620	0.340
2020/01/31 20:59:36.2	5.430	-0.420	0.560	0.340
2020/01/31 20:59:36.3	5.410	-0.400	0.490	0.340
2020/01/31 20:59:36.4	5.390	-0.380	0.430	0.340
2020/01/31 20:59:36.5	5.380	-0.350	0.350	0.340
2020/01/31 20:59:36.6	5.360	-0.320	0.270	0.330
2020/01/31 20:59:36.7	5.350	-0.290	0.190	0.320
2020/01/31 20:59:36.8	5.340	-0.260	0.110	0.310
2020/01/31 20:59:36.9	5.320	-0.220	0.020	0.300
2020/01/31 20:59:37.0	5.310	-0.180	-0.080	0.280
2020/01/31 20:59:37.1	5.310	-0.140	-0.170	0.260
2020/01/31 20:59:37.2	5.300	-0.100	-0.260	0.240
2020/01/31 20:59:37.3	5.290	-0.060	-0.350	0.210
2020/01/31 20:59:37.4	5.290	-0.030	-0.440	0.190
2020/01/31 20:59:37.5	5.280	0.010	-0.530	0.160
2020/01/31 20:59:37.6	5.280	0.050	-0.620	0.130
2020/01/31 20:59:37.7	5.280	0.080	-0.700	0.100
2020/01/31 20:59:37.8	5.280	0.110	-0.780	0.060
2020/01/31 20:59:37.9	5.270	0.140	-0.850	0.030
2020/01/31 20:59:38.0	5.270	0.170	-0.920	-0.010
2020/01/31 20:59:38.1	5.270	0.190	-0.980	-0.050
2020/01/31 20:59:38.2	5.270	0.210	-1.040	-0.090
2020/01/31 20:59:38.3	5.270	0.220	-1.090	-0.130
2020/01/31 20:59:38.4	5.270	0.230	-1.130	-0.170
2020/01/31 20:59:38.5	5.280	0.240	-1.170	-0.210
2020/01/31 20:59:38.6	5.280	0.240	-1.200	-0.250
2020/01/31 20:59:38.7	5.290	0.230	-1.220	-0.290
2020/01/31 20:59:38.8	5.290	0.230	-1.230	-0.330
2020/01/31 20:59:38.9	5.300	0.220	-1.240	-0.360
2020/01/31 20:59:39.0	5.330	0.200	-1.240	-0.400
2020/01/31 20:59:39.1	5.340	0.180	-1.230	-0.440
2020/01/31 20:59:39.2	5.350	0.160	-1.210	-0.470
2020/01/31 20:59:39.3	5.370	0.140	-1.190	-0.510
2020/01/31 20:59:39.4	5.380	0.110	-1.160	-0.540
2020/01/31 20:59:39.5	5.400	0.080	-1.130	-0.570
2020/01/31 20:59:39.6	5.420	0.050	-1.090	-0.600
2020/01/31 20:59:39.7	5.440	0.010	-1.040	-0.640
2020/01/31 20:59:39.8	5.460	-0.020	-1.000	-0.660
2020/01/31 20:59:39.9	5.480	-0.060	-0.940	-0.690
2020/01/31 20:59:40.0	5.490	-0.090	-0.890	-0.720
2020/01/31 20:59:40.1	5.510	-0.130	-0.830	-0.750
2020/01/31 20:59:40.2	5.540	-0.160	-0.770	-0.770
2020/01/31 20:59:40.3	5.570	-0.200	-0.700	-0.790
2020/01/31 20:59:40.4	5.600	-0.230	-0.640	-0.810
2020/01/31 20:59:40.5	5.630	-0.260	-0.580	-0.820
2020/01/31 20:59:40.6	5.660	-0.290	-0.510	-0.830
2020/01/31 20:59:40.7	5.690	-0.310	-0.440	-0.840
2020/01/31 20:59:40.8	5.720	-0.330	-0.380	-0.840
2020/01/31 20:59:40.9	5.750	-0.350	-0.310	-0.840
2020/01/31 20:59:41.0	5.770	-0.370	-0.250	-0.840
2020/01/31 20:59:41.1	5.800	-0.390	-0.190	-0.830
2020/01/31 20:59:41.2	5.830	-0.400	-0.130	-0.820
2020/01/31 20:59:41.3	5.850	-0.400	-0.070	-0.800
2020/01/31 20:59:41.4	5.870	-0.410	-0.010	-0.770
2020/01/31 20:59:41.5	5.890	-0.410	0.040	-0.750
2020/01/31 20:59:41.6	5.910	-0.410	0.090	-0.710
2020/01/31 20:59:41.7	5.920	-0.400	0.140	-0.670
2020/01/31 20:59:41.8	5.930	-0.390	0.180	-0.630
2020/01/31 20:59:41.9	5.940	-0.380	0.220	-0.590
2020/01/31 20:59:42.0	5.940	-0.360	0.250	-0.540
2020/01/31 20:59:42.1	5.940	-0.350	0.280	-0.500
2020/01/31 20:59:42.2	5.940	-0.330	0.310	-0.450
2020/01/31 20:59:42.3	5.930	-0.300	0.330	-0.390
2020/01/31 20:59:42.4	5.930	-0.280	0.340	-0.340
2020/01/31 20:59:42.5	5.910	-0.250	0.350	-0.290
2020/01/31 20:59:42.6	5.900	-0.220	0.350	-0.240
2020/01/31 20:59:42.7	5.880	-0.190	0.350	-0.180
2020/01/31 20:59:42.8	5.870	-0.160	0.350	-0.130
2020/01/31 20:59:42.9	5.850	-0.130	0.340	-0.080
2020/01/31 20:59:43.0	5.830	-0.100	0.320	-0.030
2020/01/31 20:59:43.1	5.810	-0.070	0.300	0.020
2020/01/31 20:59:43.2	5.780	-0.030	0.270	0.070
2020/01/31 20:59:43.3	5.760	-0.000	0.240	0.110
2020/01/31 20:59:43.4	5.740	0.030	0.210	0.150
2020/01/31 20:59:43.5	5.710	0.060	0.170	0.190
2020/01/31 20:59:43.6	5.690	0.090	0.120	0.230
2020/01/31 20:59:43.7	5.670	0.120	0.070	0.260
2020/01/31 20:59:43.8	5.650	0.150	0.020	0.280
2020/01/31 20:59:43.9	5.630	0.170	-0.030	0.310
2020/01/31 20:59:44.0	5.610	0.200	-0.090	0.330
2020/01/31 20:59:44.1	5.600	0.220	-0.140	0.350
2020/01/31 20:59:44.2	5.580	0.240	-0.200	0.360
2020/01/31 20:59:44.3	5.570	0.250	-0.260	0.370
2020/01/31 20:59:44.4	5.550	0.270	-0.310	0.370
2020/01/31 20:59:44.5	5.540	0.280	-0.370	0.380
2020/01/31 20:59:44.6	5.520	0.290	-0.430	0.370
2020/01/31 20:59:44.7	5.510	0.300	-0.480	0.370
2020/01/31 20:59:44.8	5.500	0.300	-0.530	0.360
2020/01/31 20:59:44.9	5.490	0.300	-0.580	0.350
2020/01/31 20:59:45.0	5.490	0.300	-0.620	0.330
2020/01/31 20:59:45.1	5.480	0.300	-0.670	0.320
2020/01/31 20:59:45.2	5.480	0.300	-0.700	0.300
2020/01/31 20:59:45.3	5.470	0.300	-0.740	0.280
2020/01/31 20:59:45.4	5.460	0.290	-0.770	0.270
2020/01/31 20:59:45.5	5.460	0.280	-0.790	0.240
2020/01/31 20:59:45.6	5.450	0.270	-0.810	0.220
2020/01/31 20:59:45.7	5.450	0.260	-0.820	0.200
2020/01/31 20:59:45.8	5.440	0.260	-0.830	0.180
2020/01/31 20:59:45.9	5.440	0.250	-0.830	0.160
2020/01/31 20:59:46.0	5.450	0.240	-0.820	0.130
2020/01/31 20:59:46.1	5.440	0.230	-0.810	0.110
2020/01/31 20:59:46.2	5.440	0.220	-0.800	0.080
2020/01/31 20:59:46.3	5.440	0.210	-0.780	0.060
2020/01/31 20:59:46.4	5.430	0.200	-0.750	0.030
2020/01/31 20:59:46.5	5.430	0.190	-0.720	0.010
2020/01/31 20:59:46.6	5.430	0.190	-0.680	-0.020
2020/01/31 20:59:46.7	5.420	0.180	-0.650	-0.040
2020/01/31 20:59:46.8	5.420	0.180	-0.600	-0.070
2020/01/31 20:59:46.9	5.420	0.180	-0.560	-0.100
2020/01/31 20:59:47.0	5.420	0.180	-0.520	-0.130
2020/01/31 20:59:47.1	5.420	0.180	-0.470	-0.150
2020/01/31 20:59:47.2	5.430	0.180	-0.430	-0.180
2020/01/31 20:59:47.3	5.430	0.180	-0.380	-0.210
2020/01/31 20:59:47.4	5.430	0.190	-0.340	-0.240
2020/01/31 20:59:47.5	5.440	0.200	-0.300	-0.260
2020/01/31 20:59:47.6	5.440	0.200	-0.260	-0.290
2020/01/31 20:59:47.7	5.450	0.210	-0.220	-0.310
2020/01/31 20:59:47.8	5.460	0.220	-0.180	-0.340
2020/01/31 20:59:47.9	5.460	0.230	-0.150	-0.360
2020/01/31 20:59:48.0	5.470	0.240	-0.120	-0.380
2020/01/31 20:59:48.1	5.480	0.260	-0.100	-0.400
2020/01/31 20:59:48.2	5.490	0.270	-0.070	-0.410
2020/01/31 20:59:48.3	5.500	0.280	-0.050	-0.420
2020/01/31 20:59:48.4	5.520	0.290	-0.040	-0.430
2020/01/31 20:59:48.5	5.530	0.310	-0.020	-0.430
2020/01/31 20:59:48.6	5.540	0.320	-0.010	-0.430
2020/01/31 20:59:48.7	5.550	0.330	0.000	-0.430
2020/01/31 20:59:48.8	5.560	0.330	0.010	-0.430
2020/01/31 20:59:48.9	5.570	0.340	0.020	-0.420
2020/01/31 20:59:49.0	5.580	0.340	0.030	-0.410
2020/01/31 20:59:49.1	5.590	0.350	0.030	-0.400
2020/01/31 20:59:49.2	5.600	0.350	0.040	-0.390
2020/01/31 20:59:49.3	5.610	0.340	0.050	-0.370
2020/01/31 20:59:49.4	5.620	0.340	0.050	-0.360
2020/01/31 20:59:49.5	5.630	0.330	0.060	-0.340
2020/01/31 20:59:49.6	5.640	0.320	0.060	-0.330
2020/01/31 20:59:49.7	5.640	0.300	0.070	-0.310
2020/01/31 20:59:49.8	5.650	0.290	0.080	-0.290
2020/01/31 20:59:49.9	5.650	0.270	0.090	-0.270
2020/01/31 20:59:50.0	5.660	0.240	0.100	-0.240
2020/01/31 20:59:50.1	5.660	0.220	0.110	-0.220
2020/01/31 20:59:50.2	5.660	0.190	0.120	-0.200
2020/01/31 20:59:50.3	5.660	0.160	0.140	-0.180
2020/01/31 20:59:50.4	5.660	0.120	0.150	-0.160
2020/01/31 20:59:50.5	5.660	0.090	0.160	-0.140
2020/01/31 20:59:50.6	5.660	0.050	0.180	-0.120
2020/01/31 20:59:50.7	5.660	0.010	0.190	-0.100
2020/01/31 20:59:50.8	5.650	-0.030	0.200	-0.080
2020/01/31 20:59:50.9	5.650	-0.080	0.210	-0.060
2020/01/31 20:59:51.0	5.640	-0.120	0.220	-0.040
2020/01/31 20:59:51.1	5.630	-0.160	0.230	-0.030
2020/01/31 20:59:51.2	5.630	-0.210	0.240	-0.010
2020/01/31 20:59:51.3	5.620	-0.250	0.240	0.010
2020/01/31 20:59:51.4	5.620	-0.290	0.250	0.020
2020/01/31 20:59:51.5	5.610	-0.330	0.250	0.030
2020/01/31 20:59:51.6	5.600	-0.370	0.250	0.040
2020/01/31 20:59:51.7	5.600	-0.410	0.240	0.060
2020/01/31 20:59:51.8	5.590	-0.450	0.230	0.060
2020/01/31 20:59:51.9	5.590	-0.480	0.220	0.070
2020/01/31 20:59:52.0	5.570	-0.510	0.200	0.080
2020/01/31 20:59:52.1	5.560	-0.540	0.190	0.080
2020/01/31 20:59:52.2	5.560	-0.560	0.160	0.090
2020/01/31 20:59:52.3	5.550	-0.580	0.140	0.090
2020/01/31 20:59:52.4	5.540	-0.600	0.110	0.090
2020/01/31 20:59:52.5	5.540	-0.620	0.080	0.080
2020/01/31 20:59:52.6	5.530	-0.620	0.040	0.080
2020/01/31 20:59:52.7	5.530	-0.630	0.000	0.070
2020/01/31 20:59:52.8	5.520	-0.630	-0.040	0.060
2020/01/31 20:59:52.9	5.520	-0.630	-0.090	0.050
2020/01/31 20:59:53.0	5.510	-0.620	-0.130	0.040
2020/01/31 20:59:53.1	5.510	-0.610	-0.180	0.030
2020/01/31 20:59:53.2	5.510	-0.590	-0.230	0.010
2020/01/31 20:59:53.3	5.510	-0.570	-0.280	-0.000
2020/01/31 20:59:53.4	5.510	-0.540	-0.340	-0.020
2020/01/31 20:59:53.5	5.510	-0.510	-0.390	-0.030
2020/01/31 20:59:53.6	5.510	-0.480	-0.450	-0.050
2020/01/31 20:59:53.7	5.510	-0.450	-0.500	-0.060
2020/01/31 20:59:53.8	5.520	-0.410	-0.550	-0.070
2020/01/31 20:59:53.9	5.520	-0.370	-0.600	-0.080
2020/01/31 20:59:54.0	5.530	-0.320	-0.650	-0.090
2020/01/31 20:59:54.1	5.530	-0.280	-0.700	-0.100
2020/01/31 20:59:54.2	5.530	-0.230	-0.740	-0.110
2020/01/31 20:59:54.3	5.540	-0.180	-0.780	-0.110
2020/01/31 20:59:54.4	5.540	-0.130	-0.820	-0.110
2020/01/31 20:59:54.5	5.540	-0.080	-0.860	-0.110
2020/01/31 20:59:54.6	5.550	-0.040	-0.890	-0.110
2020/01/31 20:59:54.7	5.550	0.010	-0.920	-0.110
2020/01/31 20:59:54.8	5.550	0.060	-0.940	-0.110
2020/01/31 20:59:54.9	5.550	0.110	-0.960	-0.100
2020/01/31 20:59:55.0	5.560	0.150	-0.970	-0.090
2020/01/31 20:59:55.1	5.560	0.190	-0.980	-0.090
2020/01/31 20:59:55.2	5.560	0.230	-0.990	-0.080
2020/01/31 20:59:55.3	5.560	0.260	-0.990	-0.070
2020/01/31 20:59:55.4	5.560	0.300	-0.990	-0.070
2020/01/31 20:59:55.5	5.560	0.320	-0.980	-0.060
2020/01/31 20:59:55.6	5.550	0.350	-0.960	-0.050
2020/01/31 20:59:55.7	5.550	0.370	-0.950	-0.050
2020/01/31 20:59:55.8	5.550	0.390	-0.930	-0.040
2020/01/31 20:59:55.9	5.550	0.400	-0.900	-0.040
2020/01/31 20:59:56.0	5.540	0.410	-0.880	-0.030
2020/01/31 20:59:56.1	5.540	0.410	-0.850	-0.030
2020/01/31 20:59:56.2	5.540	0.410	-0.810	-0.030
2020/01/31 20:59:56.3	5.540	0.410	-0.780	-0.030
2020/01/31 20:59:56.4	5.540	0.400	-0.740	-0.030
2020/01/31 20:59:56.5	5.540	0.390	-0.700	-0.030
2020/01/31 20:59:56.6	5.550	0.380	-0.650	-0.040
2020/01/31 20:59:56.7	5.550	0.360	-0.610	-0.040
2020/01/31 20:59:56.8	5.550	0.340	-0.560	-0.050
2020/01/31 20:59:56.9	5.560	0.310	-0.520	-0.060
2020/01/31 20:59:57.0	5.560	0.290	-0.470	-0.070
2020/01/31 20:59:57.1	5.560	0.260	-0.420	-0.080
2020/01/31 20:59:57.2	5.570	0.230	-0.380	-0.090
2020/01/31 20:59:57.3	5.570	0.200	-0.330	-0.110
2020/01/31 20:59:57.4	5.570	0.160	-0.280	-0.120
2020/01/31 20:59:57.5	5.580	0.130	-0.240	-0.130
2020/01/31 20:59:57.6	5.590	0.090	-0.190	-0.150
2020/01/31 20:59:57.7	5.590	0.060	-0.140	-0.160
2020/01/31 20:59:57.8	5.600	0.020	-0.100	-0.180
2020/01/31 20:59:57.9	5.610	-0.010	-0.060	-0.190
2020/01/31 20:59:58.0	5.620	-0.040	-0.020	-0.210
2020/01/31 20:59:58.1	5.630	-0.080	0.020	-0.220
2020/01/31 20:59:58.2	5.640	-0.110	0.060	-0.230
2020/01/31 20:59:58.3	5.650	-0.140	0.090	-0.250
2020/01/31 20:59:58.4	5.660	-0.170	0.120	-0.260
2020/01/31 20:59:58.5	5.670	-0.190	0.150	-0.280
2020/01/31 20:59:58.6	5.680	-0.210	0.170	-0.290
2020/01/31 20:59:58.7	5.700	-0.230	0.190	-0.310
2020/01/31 20:59:58.8	5.710	-0.250	0.200	-0.330
2020/01/31 20:59:58.9	5.730	-0.270	0.210	-0.340
2020/01/31 20:59:59.0	5.750	-0.280	0.220	-0.360
2020/01/31 20:59:59.1	5.770	-0.290	0.220	-0.380
2020/01/31 20:59:59.2	5.790	-0.290	0.210	-0.400
2020/01/31 20:59:59.3	5.810	-0.290	0.200	-0.420
2020/01/31 20:59:59.4	5.830	-0.290	0.190	-0.430
2020/01/31 20:59:59.5	5.850	-0.280	0.170	-0.450
2020/01/31 20:59:59.6	5.870	-0.280	0.150	-0.470
2020/01/31 20:59:59.7	5.890	-0.260	0.120	-0.490
2020/01/31 20:59:59.8	5.910	-0.250	0.090	-0.510
2020/01/31 20:59:59.9	5.930	-0.230	0.060	-0.520
2020/01/31 21:00:00.0	5.950	-0.210	0.030	-0.540
2020/01/31 21:00:00.1	5.960	-0.190	-0.010	-0.550
2020/01/31 21:00:00.2	5.980	-0.160	-0.050	-0.560
2020/01/31 21:00:00.3	5.990	-0.130	-0.080	-0.570
2020/01/31 21:00:00.4	6.010	-0.100	-0.120	-0.580
2020/01/31 21:00:00.5	6.020	-0.070	-0.160	-0.580
2020/01/31 21:00:00.6	6.020	-0.040	-0.200	-0.580
2020/01/31 21:00:00.7	6.030	-0.010	-0.230	-0.570
2020/01/31 21:00:00.8	6.030	0.030	-0.270	-0.560
2020/01/31 21:00:00.9	6.030	0.060	-0.300	-0.550
2020/01/31 21:00:01.0	6.030	0.090	-0.330	-0.530
2020/01/31 21:00:01.1	6.020	0.130	-0.350	-0.510
2020/01/31 21:00:01.2	6.020	0.160	-0.370	-0.490
2020/01/31 21:00:01.3	6.000	0.190	-0.390	-0.460
2020/01/31 21:00:01.4	5.990	0.220	-0.410	-0.430
2020/01/31 21:00:01.5	5.970	0.250	-0.420	-0.400
2020/01/31 21:00:01.6	5.960	0.270	-0.430	-0.360
2020/01/31 21:00:01.7	5.940	0.290	-0.430	-0.330
2020/01/31 21:00:01.8	5.910	0.310	-0.430	-0.290
2020/01/31 21:00:01.9	5.890	0.330	-0.430	-0.250
2020/01/31 21:00:02.0	5.870	0.350	-0.410	-0.210
2020/01/31 21:00:02.1	5.840	0.360	-0.400	-0.160
2020/01/31 21:00:02.2	5.820	0.370	-0.390	-0.120
2020/01/31 21:00:02.3	5.790	0.380	-0.370	-0.080
2020/01/31 21:00:02.4	5.770	0.380	-0.350	-0.040
2020/01/31 21:00:02.5	5.740	0.390	-0.330	0.000
2020/01/31 21:00:02.6	5.720	0.390	-0.310	0.040
2020/01/31 21:00:02.7	5.700	0.380	-0.280	0.080
2020/01/31 21:00:02.8	5.680	0.380	-0.260	0.110
2020/01/31 21:00:02.9	5.660	0.370	-0.230	0.150
2020/01/31 21:00:03.0	5.620	0.360	-0.200	0.180
2020/01/31 21:00:03.1	5.610	0.350	-0.180	0.210
2020/01/31 21:00:03.2	5.590	0.340	-0.150	0.240
2020/01/31 21:00:03.3	5.580	0.330	-0.120	0.260
2020/01/31 21:00:03.4	5.560	0.320	-0.090	0.280
2020/01/31 21:00:03.5	5.550	0.300	-0.060	0.300
2020/01/31 21:00:03.6	5.540	0.290	-0.040	0.320
2020/01/31 21:00:03.7	5.530	0.270	-0.010	0.330
2020/01/31 21:00:03.8	5.520	0.250	0.020	0.340
2020/01/31 21:00:03.9	5.500	0.230	0.050	0.360
2020/01/31 21:00:04.0	5.470	0.220	0.080	0.360
2020/01/31 21:00:04.1	5.460	0.200	0.100	0.370
2020/01/31 21:00:04.2	5.450	0.180	0.130	0.380
2020/01/31 21:00:04.3	5.440	0.160	0.150	0.380
2020/01/31 21:00:04.4	5.420	0.140	0.180	0.390
2020/01/31 21:00:04.5	5.410	0.120	0.200	0.390
2020/01/31 21:00:04.6	5.390	0.100	0.230	0.400
2020/01/31 21:00:04.7	5.380	0.090	0.250	0.410
2020/01/31 21:00:04.8	5.360	0.070	0.260	0.410
2020/01/31 21:00:04.9	5.340	0.050	0.280	0.410
2020/01/31 21:00:05.0	5.320	0.030	0.290	0.410
2020/01/31 21:00:05.1	5.300	0.010	0.300	0.420
2020/01/31 21:00:05.2	5.280	-0.000	0.310	0.420
2020/01/31 21:00:05.3	5.260	-0.020	0.310	0.410
2020/01/31 21:00:05.4	5.250	-0.030	0.310	0.410
2020/01/31 21:00:05.5	5.230	-0.050	0.300	0.400
2020/01/31 21:00:05.6	5.210	-0.060	0.290	0.390
2020/01/31 21:00:05.7	5.200	-0.070	0.280	0.380
2020/01/31 21:00:05.8	5.190	-0.080	0.250	0.360
2020/01/31 21:00:05.9	5.180	-0.090	0.220	0.350
2020/01/31 21:00:06.0	5.180	-0.100	0.190	0.330
2020/01/31 21:00:06.1	5.170	-0.110	0.150	0.300
2020/01/31 21:00:06.2	5.170	-0.120	0.100	0.270
2020/01/31 21:00:06.3	5.180	-0.120	0.050	0.240
2020/01/31 21:00:06.4	5.180	-0.130	-0.010	0.200
2020/01/31 21:00:06.5	5.200	-0.130	-0.070	0.160
2020/01/31 21:00:06.6	5.210	-0.130	-0.140	0.120
2020/01/31 21:00:06.7	5.230	-0.130	-0.210	0.070
2020/01/31 21:00:06.8	5.250	-0.130	-0.290	0.020
2020/01/31 21:00:06.9	5.280	-0.120	-0.370	-0.040
2020/01/31 21:00:07.0	5.310	-0.120	-0.460	-0.090
2020/01/31 21:00:07.1	5.340	-0.110	-0.540	-0.150
2020/01/31 21:00:07.2	5.380	-0.110	-0.630	-0.210
2020/01/31 21:00:07.3	5.420	-0.100	-0.710	-0.280
2020/01/31 21:00:07.4	5.460	-0.100	-0.800	-0.340
2020/01/31 21:00:07.5	5.500	-0.090	-0.880	-0.400
2020/01/31 21:00:07.6	5.540	-0.080	-0.970	-0.470
2020/01/31 21:00:07.7	5.580	-0.080	-1.050	-0.530
2020/01/31 21:00:07.8	5.630	-0.070	-1.120	-0.590
2020/01/31 21:00:07.9	5.670	-0.070	-1.190	-0.650
2020/01/31 21:00:08.0	5.710	-0.060	-1.250	-0.720
2020/01/31 21:00:08.1	5.760	-0.060	-1.310	-0.780
2020/01/31 21:00:08.2	5.800	-0.060	-1.360	-0.830
2020/01/31 21:00:08.3	5.840	-0.050	-1.400	-0.880
2020/01/31 21:00:08.4	5.880	-0.060	-1.440	-0.930
2020/01/31 21:00:08.5	5.920	-0.060	-1.460	-0.970
2020/01/31 21:00:08.6	5.960	-0.060	-1.470	-1.010
2020/01/31 21:00:08.7	5.990	-0.070	-1.480	-1.040
2020/01/31 21:00:08.8	6.020	-0.080	-1.470	-1.070
2020/01/31 21:00:08.9	6.050	-0.090	-1.460	-1.090
2020/01/31 21:00:09.0	6.090	-0.100	-1.430	-1.100
2020/01/31 21:00:09.1	6.110	-0.110	-1.390	-1.110
2020/01/31 21:00:09.2	6.120	-0.130	-1.340	-1.120
2020/01/31 21:00:09.3	6.130	-0.140	-1.290	-1.120
2020/01/31 21:00:09.4	6.140	-0.160	-1.220	-1.110
2020/01/31 21:00:09.5	6.150	-0.180	-1.150	-1.100
2020/01/31 21:00:09.6	6.150	-0.210	-1.070	-1.080
2020/01/31 21:00:09.7	6.150	-0.230	-0.980	-1.060
2020/01/31 21:00:09.8	6.150	-0.250	-0.890	-1.030
2020/01/31 21:00:09.9	6.140	-0.280	-0.790	-1.010
2020/01/31 21:00:10.0	6.120	-0.300	-0.680	-0.970
2020/01/31 21:00:10.1	6.110	-0.330	-0.580	-0.930
2020/01/31 21:00:10.2	6.090	-0.350	-0.470	-0.900
2020/01/31 21:00:10.3	6.070	-0.380	-0.360	-0.860
2020/01/31 21:00:10.4	6.050	-0.400	-0.250	-0.810
2020/01/31 21:00:10.5	6.030	-0.420	-0.150	-0.770
2020/01/31 21:00:10.6	6.000	-0.440	-0.040	-0.720
2020/01/31 21:00:10.7	5.980	-0.460	0.060	-0.670
2020/01/31 21:00:10.8	5.950	-0.480	0.160	-0.620
2020/01/31 21:00:10.9	5.920	-0.490	0.250	-0.570
2020/01/31 21:00:11.0	5.910	-0.500	0.340	-0.520
2020/01/31 21:00:11.1	5.880	-0.510	0.420	-0.460
2020/01/31 21:00:11.2	5.850	-0.510	0.490	-0.410
2020/01/31 21:00:11.3	5.810	-0.510	0.550	-0.360
2020/01/31 21:00:11.4	5.780	-0.510	0.610	-0.300
2020/01/31 21:00:11.5	5.750	-0.500	0.660	-0.250
2020/01/31 21:00:11.6	5.720	-0.490	0.700	-0.200
2020/01/31 21:00:11.7	5.690	-0.470	0.730	-0.150
2020/01/31 21:00:11.8	5.660	-0.450	0.750	-0.110
2020/01/31 21:00:11.9	5.630	-0.430	0.770	-0.060
2020/01/31 21:00:12.0	5.590	-0.400	0.770	-0.010
2020/01/31 21:00:12.1	5.570	-0.370	0.770	0.030
2020/01/31 21:00:12.2	5.540	-0.330	0.760	0.070
2020/01/31 21:00:12.3	5.520	-0.290	0.740	0.100
2020/01/31 21:00:12.4	5.490	-0.250	0.710	0.140
2020/01/31 21:00:12.5	5.470	-0.200	0.680	0.170
2020/01/31 21:00:12.6	5.450	-0.150	0.640	0.200
2020/01/31 21:00:12.7	5.430	-0.100	0.600	0.230
2020/01/31 21:00:12.8	5.410	-0.040	0.550	0.260
2020/01/31 21:00:12.9	5.390	0.010	0.500	0.290
2020/01/31 21:00:13.0	5.370	0.070	0.440	0.310
2020/01/31 21:00:13.1	5.350	0.130	0.380	0.330
2020/01/31 21:00:13.2	5.340	0.180	0.320	0.350
2020/01/31 21:00:13.3	5.320	0.240	0.270	0.380
2020/01/31 21:00:13.4	5.300	0.300	0.210	0.400
2020/01/31 21:00:13.5	5.290	0.350	0.150	0.420
2020/01/31 21:00:13.6	5.270	0.400	0.090	0.440
2020/01/31 21:00:13.7	5.260	0.460	0.030	0.460
2020/01/31 21:00:13.8	5.240	0.500	-0.020	0.480
2020/01/31 21:00:13.9	5.230	0.550	-0.080	0.500
2020/01/31 21:00:14.0	5.210	0.590	-0.120	0.520
2020/01/31 21:00:14.1	5.200	0.630	-0.170	0.530
2020/01/31 21:00:14.2	5.180	0.660	-0.210	0.550
2020/01/31 21:00:14.3	5.170	0.690	-0.250	0.560
2020/01/31 21:00:14.4	5.160	0.720	-0.290	0.570
2020/01/31 21:00:14.5	5.140	0.740	-0.330	0.580
2020/01/31 21:00:14.6	5.130	0.760	-0.360	0.580
2020/01/31 21:00:14.7	5.120	0.770	-0.390	0.580
2020/01/31 21:00:14.8	5.120	0.770	-0.420	0.580
2020/01/31 21:00:14.9	5.110	0.780	-0.440	0.580
2020/01/31 21:00:15.0	5.100	0.770	-0.460	0.570
2020/01/31 21:00:15.1	5.100	0.770	-0.480	0.560
2020/01/31 21:00:15.2	5.100	0.760	-0.500	0.540
2020/01/31 21:00:15.3	5.100	0.740	-0.520	0.530
2020/01/31 21:00:15.4	5.100	0.720	-0.530	0.510
2020/01/31 21:00:15.5	5.100	0.700	-0.550	0.480
2020/01/31 21:00:15.6	5.110	0.670	-0.560	0.460
2020/01/31 21:00:15.7	5.120	0.640	-0.570	0.430
2020/01/31 21:00:15.8	5.130	0.610	-0.580	0.400
2020/01/31 21:00:15.9	5.140	0.580	-0.600	0.360
2020/01/31 21:00:16.0	5.160	0.540	-0.610	0.320
2020/01/31 21:00:16.1	5.170	0.510	-0.620	0.280
2020/01/31 21:00:16.2	5.190	0.470	-0.630	0.240
2020/01/31 21:00:16.3	5.210	0.430	-0.640	0.200
2020/01/31 21:00:16.4	5.230	0.390	-0.650	0.160
2020/01/31 21:00:16.5	5.250	0.340	-0.660	0.110
2020/01/31 21:00:16.6	5.280	0.300	-0.670	0.070
2020/01/31 21:00:16.7	5.300	0.260	-0.670	0.020
2020/01/31 21:00:16.8	5.330	0.210	-0.680	-0.030
2020/01/31 21:00:16.9	5.360	0.170	-0.690	-0.080
2020/01/31 21:00:17.0	5.390	0.130	-0.690	-0.130
2020/01/31 21:00:17.1	5.420	0.080	-0.690	-0.180
2020/01/31 21:00:17.2	5.450	0.040	-0.690	-0.230
2020/01/31 21:00:17.3	5.480	-0.000	-0.690	-0.280
2020/01/31 21:00:17.4	5.510	-0.040	-0.690	-0.330
2020/01/31 21:00:17.5	5.540	-0.080	-0.690	-0.380
2020/01/31 21:00:17.6	5.570	-0.120	-0.680	-0.430
2020/01/31 21:00:17.7	5.600	-0.160	-0.680	-0.480
2020/01/31 21:00:17.8	5.620	-0.200	-0.670	-0.530
2020/01/31 21:00:17.9	5.650	-0.240	-0.650	-0.580
2020/01/31 21:00:18.0	5.680	-0.270	-0.640	-0.620
2020/01/31 21:00:18.1	5.700	-0.310	-0.620	-0.660
2020/01/31 21:00:18.2	5.720	-0.340	-0.600	-0.700
2020/01/31 21:00:18.3	5.740	-0.370	-0.580	-0.740
2020/01/31 21:00:18.4	5.750	-0.400	-0.560	-0.770
2020/01/31 21:00:18.5	5.760	-0.430	-0.530	-0.800
2020/01/31 21:00:18.6	5.770	-0.460	-0.500	-0.820
2020/01/31 21:00:18.7	5.780	-0.480	-0.460	-0.840
2020/01/31 21:00:18.8	5.780	-0.500	-0.430	-0.860
2020/01/31 21:00:18.9	5.780	-0.520	-0.390	-0.860
2020/01/31 21:00:19.0	5.780	-0.540	-0.340	-0.870
2020/01/31 21:00:19.1	5.770	-0.550	-0.300	-0.870
2020/01/31 21:00:19.2	5.760	-0.570	-0.250	-0.860
2020/01/31 21:00:19.3	5.750	-0.580	-0.210	-0.850
2020/01/31 21:00:19.4	5.740	-0.580	-0.160	-0.830
2020/01/31 21:00:19.5	5.720	-0.590	-0.110	-0.810
2020/01/31 21:00:19.6	5.710	-0.590	-0.060	-0.780
2020/01/31 21:00:19.7	5.690	-0.590	-0.010	-0.760
2020/01/31 21:00:19.8	5.670	-0.590	0.040	-0.720
2020/01/31 21:00:19.9	5.640	-0.580	0.090	-0.690
2020/01/31 21:00:20.0	5.620	-0.580	0.130	-0.650
2020/01/31 21:00:20.1	5.600	-0.560	0.180	-0.610
2020/01/31 21:00:20.2	5.580	-0.550	0.220	-0.570
2020/01/31 21:00:20.3	5.550	-0.540	0.250	-0.530
2020/01/31 21:00:20.4	5.530	-0.520	0.290	-0.480
2020/01/31 21:00:20.5	5.510	-0.500	0.320	-0.440
2020/01/31 21:00:20.6	5.490	-0.470	0.340	-0.400
2020/01/31 21:00:20.7	5.470	-0.450	0.360	-0.350
2020/01/31 21:00:20.8	5.450	-0.420	0.380	-0.310
2020/01/31 21:00:20.9	5.430	-0.390	0.390	-0.260
2020/01/31 21:00:21.0	5.410	-0.360	0.390	-0.220
2020/01/31 21:00:21.1	5.400	-0.320	0.390	-0.180
2020/01/31 21:00:21.2	5.380	-0.290	0.390	-0.130
2020/01/31 21:00:21.3	5.370	-0.250	0.370	-0.100
2020/01/31 21:00:21.4	5.360	-0.220	0.360	-0.060
2020/01/31 21:00:21.5	5.350	-0.180	0.330	-0.030
2020/01/31 21:00:21.6	5.350	-0.140	0.310	0.010
2020/01/31 21:00:21.7	5.340	-0.100	0.270	0.040
2020/01/31 21:00:21.8	5.340	-0.060	0.240	0.060
2020/01/31 21:00:21.9	5.340	-0.030	0.200	0.090
2020/01/31 21:00:22.0	5.330	0.010	0.150	0.110
2020/01/31 21:00:22.1	5.330	0.050	0.110	0.130
2020/01/31 21:00:22.2	5.340	0.090	0.060	0.150
2020/01/31 21:00:22.3	5.340	0.120	0.000	0.160
2020/01/31 21:00:22.4	5.340	0.150	-0.050	0.170
2020/01/31 21:00:22.5	5.350	0.190	-0.110	0.180
2020/01/31 21:00:22.6	5.360	0.220	-0.160	0.190
2020/01/31 21:00:22.7	5.370	0.250	-0.220	0.190
2020/01/31 21:00:22.8	5.380	0.270	-0.270	0.190
2020/01/31 21:00:22.9	5.390	0.300	-0.330	0.190
2020/01/31 21:00:23.0	5.410	0.320	-0.380	0.190
2020/01/31 21:00:23.1	5.420	0.340	-0.430	0.180
2020/01/31 21:00:23.2	5.440	0.360	-0.480	0.180
2020/01/31 21:00:23.3	5.450	0.370	-0.530	0.170
2020/01/31 21:00:23.4	5.460	0.390	-0.570	0.150
2020/01/31 21:00:23.5	5.480	0.400	-0.620	0.140
2020/01/31 21:00:23.6	5.490	0.400	-0.660	0.120
2020/01/31 21:00:23.7	5.500	0.410	-0.690	0.110
2020/01/31 21:00:23.8	5.520	0.410	-0.730	0.090
2020/01/31 21:00:23.9	5.530	0.410	-0.760	0.070
2020/01/31 21:00:24.0	5.550	0.410	-0.790	0.050
2020/01/31 21:00:24.1	5.560	0.400	-0.810	0.030
2020/01/31 21:00:24.2	5.580	0.390	-0.830	0.010
2020/01/31 21:00:24.3	5.590	0.380	-0.850	-0.010
2020/01/31 21:00:24.4	5.600	0.370	-0.870	-0.030
2020/01/31 21:00:24.5	5.610	0.360	-0.880	-0.060
2020/01/31 21:00:24.6	5.620	0.350	-0.890	-0.080
2020/01/31 21:00:24.7	5.630	0.340	-0.900	-0.100
2020/01/31 21:00:24.8	5.640	0.320	-0.900	-0.120
2020/01/31 21:00:24.9	5.650	0.300	-0.910	-0.140
2020/01/31 21:00:25.0	5.650	0.290	-0.900	-0.170
2020/01/31 21:00:25.1	5.660	0.270	-0.900	-0.190
2020/01/31 21:00:25.2	5.670	0.260	-0.890	-0.210
2020/01/31 21:00:25.3	5.670	0.240	-0.880	-0.230
2020/01/31 21:00:25.4	5.680	0.220	-0.870	-0.250
2020/01/31 21:00:25.5	5.680	0.210	-0.850	-0.270
2020/01/31 21:00:25.6	5.690	0.190	-0.830	-0.280
2020/01/31 21:00:25.7	5.690	0.180	-0.810	-0.300
2020/01/31 21:00:25.8	5.690	0.160	-0.790	-0.310
2020/01/31 21:00:25.9	5.690	0.150	-0.760	-0.330
2020/01/31 21:00:26.0	5.680	0.130	-0.720	-0.340
2020/01/31 21:00:26.1	5.670	0.120	-0.690	-0.350
2020/01/31 21:00:26.2	5.660	0.100	-0.650	-0.360
2020/01/31 21:00:26.3	5.660	0.090	-0.610	-0.360
2020/01/31 21:00:26.4	5.650	0.080	-0.560	-0.370
2020/01/31 21:00:26.5	5.640	0.070	-0.520	-0.370
2020/01/31 21:00:26.6	5.630	0.060	-0.470	-0.360
2020/01/31 21:00:26.7	5.620	0.050	-0.410	-0.360
2020/01/31 21:00:26.8	5.610	0.040	-0.360	-0.350
2020/01/31 21:00:26.9	5.600	0.030	-0.300	-0.340
2020/01/31 21:00:27.0	5.580	0.030	-0.240	-0.330
2020/01/31 21:00:27.1	5.580	0.020	-0.180	-0.310
2020/01/31 21:00:27.2	5.570	0.020	-0.110	-0.290
2020/01/31 21:00:27.3	5.560	0.010	-0.050	-0.270
2020/01/31 21:00:27.4	5.550	0.010	0.020	-0.240
2020/01/31 21:00:27.5	5.540	0.010	0.080	-0.210
2020/01/31 21:00:27.6	5.530	0.010	0.140	-0.170
2020/01/31 21:00:27.7	5.520	0.010	0.210	-0.130
2020/01/31 21:00:27.8	5.520	0.010	0.270	-0.090
2020/01/31 21:00:27.9	5.510	0.010	0.320	-0.050
2020/01/31 21:00:28.0	5.490	0.010	0.380	-0.010
2020/01/31 21:00:28.1	5.490	0.010	0.430	0.040
2020/01/31 21:00:28.2	5.480	0.020	0.480	0.090
2020/01/31 21:00:28.3	5.470	0.020	0.520	0.140
2020/01/31 21:00:28.4	5.470	0.020	0.560	0.190
2020/01/31 21:00:28.5	5.460	0.020	0.590	0.240
2020/01/31 21:00:28.6	5.450	0.020	0.620	0.290
2020/01/31 21:00:28.7	5.450	0.020	0.640	0.330
2020/01/31 21:00:28.8	5.440	0.030	0.650	0.380
2020/01/31 21:00:28.9	5.430	0.030	0.660	0.420
2020/01/31 21:00:29.0	5.430	0.030	0.660	0.460
2020/01/31 21:00:29.1	5.420	0.020	0.650	0.500
2020/01/31 21:00:29.2	5.410	0.020	0.640	0.530
2020/01/31 21:00:29.3	5.410	0.020	0.620	0.550
2020/01/31 21:00:29.4	5.400	0.020	0.600	0.570
2020/01/31 21:00:29.5	5.400	0.010	0.560	0.590
2020/01/31 21:00:29.6	5.390	0.010	0.520	0.590
2020/01/31 21:00:29.7	5.390	0.000	0.480	0.600
2020/01/31 21:00:29.8	5.390	-0.000	0.420	0.590
2020/01/31 21:00:29.9	5.390	-0.010	0.360	0.580
2020/01/31 21:00:30.0	5.400	-0.020	0.300	0.560
2020/01/31 21:00:30.1	5.400	-0.020	0.230	0.530
2020/01/31 21:00:30.2	5.410	-0.030	0.160	0.500
2020/01/31 21:00:30.3	5.410	-0.040	0.080	0.460
2020/01/31 21:00:30.4	5.420	-0.050	-0.010	0.420
2020/01/31 21:00:30.5	5.430	-0.060	-0.090	0.380
2020/01/31 21:00:30.6	5.450	-0.070	-0.180	0.330
2020/01/31 21:00:30.7	5.460	-0.070	-0.270	0.280
2020/01/31 21:00:30.8	5.480	-0.080	-0.360	0.220
2020/01/31 21:00:30.9	5.500	-0.090	-0.450	0.170
2020/01/31 21:00:31.0	5.510	-0.100	-0.550	0.100
2020/01/31 21:00:31.1	5.530	-0.110	-0.630	0.040
2020/01/31 21:00:31.2	5.560	-0.120	-0.720	-0.020
2020/01/31 21:00:31.3	5.580	-0.130	-0.800	-0.080
2020/01/31 21:00:31.4	5.610	-0.140	-0.870	-0.140
2020/01/31 21:00:31.5	5.640	-0.150	-0.940	-0.200
2020/01/31 21:00:31.6	5.670	-0.150	-1.010	-0.260
2020/01/31 21:00:31.7	5.700	-0.160	-1.070	-0.320
2020/01/31 21:00:31.8	5.730	-0.170	-1.120	-0.380
2020/01/31 21:00:31.9	5.760	-0.180	-1.160	-0.440
2020/01/31 21:00:32.0	5.790	-0.190	-1.180	-0.500
2020/01/31 21:00:32.1	5.820	-0.190	-1.210	-0.550
2020/01/31 21:00:32.2	5.850	-0.200	-1.220	-0.600
2020/01/31 21:00:32.3	5.880	-0.210	-1.230	-0.660
2020/01/31 21:00:32.4	5.910	-0.210	-1.230	-0.700
2020/01/31 21:00:32.5	5.940	-0.220	-1.220	-0.750
2020/01/31 21:00:32.6	5.960	-0.220	-1.200	-0.800
2020/01/31 21:00:32.7	5.990	-0.230	-1.170	-0.840
2020/01/31 21:00:32.8	6.010	-0.230	-1.140	-0.870
2020/01/31 21:00:32.9	6.030	-0.230	-1.090	-0.910
2020/01/31 21:00:33.0	6.060	-0.230	-1.050	-0.940
2020/01/31 21:00:33.1	6.070	-0.240	-0.990	-0.960
2020/01/31 21:00:33.2	6.080	-0.240	-0.920	-0.980
2020/01/31 21:00:33.3	6.090	-0.230	-0.850	-0.990
2020/01/31 21:00:33.4	6.100	-0.230	-0.780	-1.000
2020/01/31 21:00:33.5	6.100	-0.230	-0.700	-1.000
2020/01/31 21:00:33.6	6.100	-0.220	-0.610	-0.990
2020/01/31 21:00:33.7	6.100	-0.220	-0.530	-0.980
2020/01/31 21:00:33.8	6.090	-0.210	-0.440	-0.960
2020/01/31 21:00:33.9	6.080	-0.200	-0.350	-0.930
2020/01/31 21:00:34.0	6.060	-0.190	-0.260	-0.910
2020/01/31 21:00:34.1	6.050	-0.180	-0.180	-0.870
2020/01/31 21:00:34.2	6.030	-0.170	-0.090	-0.840
2020/01/31 21:00:34.3	6.010	-0.150	-0.010	-0.800
2020/01/31 21:00:34.4	5.990	-0.140	0.070	-0.750
2020/01/31 21:00:34.5	5.970	-0.130	0.150	-0.710
2020/01/31 21:00:34.6	5.950	-0.110	0.220	-0.660
2020/01/31 21:00:34.7	5.930	-0.100	0.280	-0.610
2020/01/31 21:00:34.8	5.900	-0.080	0.340	-0.560
2020/01/31 21:00:34.9	5.870	-0.070	0.390	-0.500
2020/01/31 21:00:35.0	5.850	-0.050	0.430	-0.450
2020/01/31 21:00:35.1	5.820	-0.040	0.460	-0.390
2020/01/31 21:00:35.2	5.790	-0.020	0.490	-0.340
2020/01/31 21:00:35.3	5.760	-0.000	0.510	-0.290
2020/01/31 21:00:35.4	5.730	0.010	0.520	-0.240
2020/01/31 21:00:35.5	5.700	0.030	0.530	-0.190
2020/01/31 21:00:35.6	5.670	0.040	0.520	-0.140
2020/01/31 21:00:35.7	5.650	0.050	0.510	-0.100
2020/01/31 21:00:35.8	5.620	0.070	0.490	-0.060
2020/01/31 21:00:35.9	5.590	0.080	0.460	-0.020
2020/01/31 21:00:36.0	5.560	0.090	0.430	0.010
2020/01/31 21:00:36.1	5.530	0.110	0.380	0.050
2020/01/31 21:00:36.2	5.510	0.120	0.340	0.070
2020/01/31 21:00:36.3	5.490	0.130	0.290	0.100
2020/01/31 21:00:36.4	5.470	0.140	0.230	0.120
2020/01/31 21:00:36.5	5.460	0.150	0.180	0.140
2020/01/31 21:00:36.6	5.440	0.160	0.110	0.160
2020/01/31 21:00:36.7	5.430	0.170	0.050	0.170
2020/01/31 21:00:36.8	5.420	0.180	-0.010	0.190
2020/01/31 21:00:36.9	5.410	0.180	-0.080	0.200
2020/01/31 21:00:37.0	5.400	0.190	-0.140	0.200
2020/01/31 21:00:37.1	5.400	0.200	-0.200	0.210
2020/01/31 21:00:37.2	5.390	0.200	-0.260	0.210
2020/01/31 21:00:37.3	5.390	0.210	-0.320	0.210
2020/01/31 21:00:37.4	5.390	0.210	-0.380	0.220
2020/01/31 21:00:37.5	5.390	0.220	-0.430	0.210
2020/01/31 21:00:37.6	5.390	0.220	-0.480	0.210
2020/01/31 21:00:37.7	5.390	0.220	-0.530	0.210
2020/01/31 21:00:37.8	5.390	0.220	-0.570	0.200
2020/01/31 21:00:37.9	5.400	0.220	-0.610	0.200
2020/01/31 21:00:38.0	5.400	0.220	-0.640	0.180
2020/01/31 21:00:38.1	5.410	0.220	-0.670	0.170
2020/01/31 21:00:38.2	5.410	0.210	-0.690	0.160
2020/01/31 21:00:38.3	5.430	0.210	-0.700	0.150
2020/01/31 21:00:38.4	5.440	0.200	-0.720	0.130
2020/01/31 21:00:38.5	5.450	0.190	-0.720	0.110
2020/01/31 21:00:38.6	5.470	0.190	-0.720	0.090
2020/01/31 21:00:38.7	5.480	0.180	-0.720	0.070
2020/01/31 21:00:38.8	5.500	0.170	-0.710	0.050
2020/01/31 21:00:38.9	5.520	0.160	-0.700	0.020
2020/01/31 21:00:39.0	5.540	0.150	-0.690	-0.000
2020/01/31 21:00:39.1	5.560	0.130	-0.680	-0.030
2020/01/31 21:00:39.2	5.590	0.120	-0.660	-0.060
2020/01/31 21:00:39.3	5.620	0.110	-0.640	-0.090
2020/01/31 21:00:39.4	5.650	0.100	-0.620	-0.120
2020/01/31 21:00:39.5	5.680	0.080	-0.600	-0.150
2020/01/31 21:00:39.6	5.720	0.070	-0.580	-0.180
2020/01/31 21:00:39.7	5.750	0.060	-0.560	-0.210
2020/01/31 21:00:39.8	5.790	0.050	-0.530	-0.250
2020/01/31 21:00:39.9	5.830	0.040	-0.510	-0.280
2020/01/31 21:00:40.0	5.870	0.030	-0.490	-0.310
2020/01/31 21:00:40.1	5.910	0.020	-0.470	-0.340
2020/01/31 21:00:40.2	5.940	0.010	-0.460	-0.370
2020/01/31 21:00:40.3	5.980	-0.000	-0.440	-0.400
2020/01/31 21:00:40.4	6.020	-0.010	-0.430	-0.430
2020/01/31 21:00:40.5	6.050	-0.020	-0.420	-0.460
2020/01/31 21:00:40.6	6.080	-0.020	-0.400	-0.480
2020/01/31 21:00:40.7	6.110	-0.030	-0.400	-0.510
2020/01/31 21:00:40.8	6.140	-0.040	-0.390	-0.530
2020/01/31 21:00:40.9	6.160	-0.040	-0.380	-0.550
2020/01/31 21:00:41.0	6.180	-0.040	-0.370	-0.560
2020/01/31 21:00:41.1	6.200	-0.050	-0.370	-0.580
2020/01/31 21:00:41.2	6.220	-0.050	-0.370	-0.590
2020/01/31 21:00:41.3	6.230	-0.050	-0.360	-0.600
2020/01/31 21:00:41.4	6.230	-0.050	-0.360	-0.610
2020/01/31 21:00:41.5	6.230	-0.050	-0.350	-0.620
2020/01/31 21:00:41.6	6.230	-0.050	-0.340	-0.620
2020/01/31 21:00:41.7	6.230	-0.050	-0.340	-0.610
2020/01/31 21:00:41.8	6.220	-0.050	-0.330	-0.610
2020/01/31 21:00:41.9	6.200	-0.050	-0.320	-0.600
2020/01/31 21:00:42.0	6.170	-0.040	-0.310	-0.590
2020/01/31 21:00:42.1	6.150	-0.040	-0.300	-0.570
2020/01/31 21:00:42.2	6.130	-0.040	-0.290	-0.560
2020/01/31 21:00:42.3	6.100	-0.040	-0.280	-0.530
2020/01/31 21:00:42.4	6.070	-0.040	-0.260	-0.510
2020/01/31 21:00:42.5	6.040	-0.040	-0.250	-0.480
2020/01/31 21:00:42.6	6.000	-0.030	-0.230	-0.450
2020/01/31 21:00:42.7	5.970	-0.030	-0.210	-0.420
2020/01/31 21:00:42.8	5.930	-0.030	-0.190	-0.390
2020/01/31 21:00:42.9	5.890	-0.030	-0.180	-0.360
2020/01/31 21:00:43.0	5.880	-0.030	-0.150	-0.320
2020/01/31 21:00:43.1	5.840	-0.030	-0.130	-0.290
2020/01/31 21:00:43.2	5.800	-0.030	-0.110	-0.260
2020/01/31 21:00:43.3	5.760	-0.040	-0.090	-0.230
2020/01/31 21:00:43.4	5.720	-0.040	-0.070	-0.200
2020/01/31 21:00:43.5	5.680	-0.040	-0.040	-0.170
2020/01/31 21:00:43.6	5.650	-0.040	-0.020	-0.150
2020/01/31 21:00:43.7	5.610	-0.040	0.000	-0.120
2020/01/31 21:00:43.8	5.580	-0.040	0.020	-0.100
2020/01/31 21:00:43.9	5.550	-0.050	0.040	-0.070
2020/01/31 21:00:44.0	5.520	-0.050	0.060	-0.050
2020/01/31 21:00:44.1	5.490	-0.050	0.080	-0.030
2020/01/31 21:00:44.2	5.460	-0.050	0.100	-0.010
2020/01/31 21:00:44.3	5.440	-0.050	0.120	0.010
2020/01/31 21:00:44.4	5.420	-0.050	0.140	0.020
2020/01/31 21:00:44.5	5.400	-0.040	0.150	0.040
2020/01/31 21:00:44.6	5.380	-0.040	0.170	0.050
2020/01/31 21:00:44.7	5.370	-0.040	0.180	0.070
2020/01/31 21:00:44.8	5.360	-0.040	0.190	0.080
2020/01/31 21:00:44.9	5.350	-0.030	0.200	0.090
2020/01/31 21:00:45.0	5.320	-0.030	0.210	0.090
2020/01/31 21:00:45.1	5.320	-0.020	0.210	0.100
2020/01/31 21:00:45.2	5.320	-0.010	0.220	0.110
2020/01/31 21:00:45.3	5.320	-0.010	0.220	0.110
2020/01/31 21:00:45.4	5.320	0.000	0.210	0.110
2020/01/31 21:00:45.5	5.320	0.010	0.210	0.110
2020/01/31 21:00:45.6	5.330	0.020	0.200	0.100
2020/01/31 21:00:45.7	5.340	0.030	0.190	0.090
2020/01/31 21:00:45.8	5.350	0.040	0.170	0.080
2020/01/31 21:00:45.9	5.360	0.050	0.160	0.070
2020/01/31 21:00:46.0	5.380	0.060	0.130	0.050
2020/01/31 21:00:46.1	5.390	0.070	0.110	0.030
2020/01/31 21:00:46.2	5.410	0.080	0.080	0.020
2020/01/31 21:00:46.3	5.420	0.090	0.060	-0.000
2020/01/31 21:00:46.4	5.440	0.100	0.020	-0.020
2020/01/31 21:00:46.5	5.450	0.110	-0.010	-0.040
2020/01/31 21:00:46.6	5.470	0.110	-0.040	-0.050
2020/01/31 21:00:46.7	5.490	0.120	-0.070	-0.070
2020/01/31 21:00:46.8	5.500	0.120	-0.110	-0.090
2020/01/31 21:00:46.9	5.520	0.120	-0.140	-0.100
2020/01/31 21:00:47.0	5.530	0.120	-0.180	-0.120
2020/01/31 21:00:47.1	5.540	0.120	-0.210	-0.130
2020/01/31 21:00:47.2	5.550	0.120	-0.250	-0.140
2020/01/31 21:00:47.3	5.570	0.110	-0.280	-0.150
2020/01/31 21:00:47.4	5.580	0.100	-0.310	-0.170
2020/01/31 21:00:47.5	5.590	0.090	-0.350	-0.180
2020/01/31 21:00:47.6	5.600	0.070	-0.380	-0.190
2020/01/31 21:00:47.7	5.610	0.060	-0.410	-0.200
2020/01/31 21:00:47.8	5.620	0.040	-0.440	-0.210
2020/01/31 21:00:47.9	5.630	0.020	-0.470	-0.210
2020/01/31 21:00:48.0	5.640	-0.010	-0.500	-0.220
2020/01/31 21:00:48.1	5.650	-0.030	-0.530	-0.230
2020/01/31 21:00:48.2	5.650	-0.060	-0.560	-0.240
2020/01/31 21:00:48.3	5.660	-0.090	-0.580	-0.250
2020/01/31 21:00:48.4	5.670	-0.110	-0.610	-0.260
2020/01/31 21:00:48.5	5.680	-0.140	-0.630	-0.270
2020/01/31 21:00:48.6	5.690	-0.170	-0.650	-0.280
2020/01/31 21:00:48.7	5.700	-0.200	-0.670	-0.290
2020/01/31 21:00:48.8	5.700	-0.230	-0.690	-0.300
2020/01/31 21:00:48.9	5.710	-0.260	-0.710	-0.310
2020/01/31 21:00:49.0	5.720	-0.290	-0.710	-0.330
2020/01/31 21:00:49.1	5.730	-0.320	-0.730	-0.340
2020/01/31 21:00:49.2	5.750	-0.350	-0.730	-0.360
2020/01/31 21:00:49.3	5.760	-0.370	-0.740	-0.370
2020/01/31 21:00:49.4	5.770	-0.390	-0.740	-0.380
2020/01/31 21:00:49.5	5.780	-0.410	-0.740	-0.390
2020/01/31 21:00:49.6	5.790	-0.430	-0.740	-0.410
2020/01/31 21:00:49.7	5.800	-0.450	-0.730	-0.410
2020/01/31 21:00:49.8	5.810	-0.460	-0.720	-0.420
2020/01/31 21:00:49.9	5.820	-0.470	-0.700	-0.430
2020/01/31 21:00:50.0	5.840	-0.480	-0.690	-0.430
2020/01/31 21:00:50.1	5.850	-0.480	-0.660	-0.430
2020/01/31 21:00:50.2	5.850	-0.480	-0.630	-0.430
2020/01/31 21:00:50.3	5.850	-0.480	-0.600	-0.420
2020/01/31 21:00:50.4	5.850	-0.470	-0.560	-0.410
2020/01/31 21:00:50.5	5.850	-0.470	-0.520	-0.390
2020/01/31 21:00:50.6	5.850	-0.450	-0.480	-0.370
2020/01/31 21:00:50.7	5.840	-0.440	-0.440	-0.350
2020/01/31 21:00:50.8	5.830	-0.420	-0.390	-0.320
2020/01/31 21:00:50.9	5.820	-0.400	-0.350	-0.290
2020/01/31 21:00:51.0	5.810	-0.380	-0.300	-0.260
2020/01/31 21:00:51.1	5.790	-0.360	-0.260	-0.230
2020/01/31 21:00:51.2	5.780	-0.330	-0.210	-0.190
2020/01/31 21:00:51.3	5.770	-0.300	-0.170	-0.160
2020/01/31 21:00:51.4	5.760	-0.270	-0.130	-0.120
2020/01/31 21:00:51.5	5.740	-0.230	-0.090	-0.080
2020/01/31 21:00:51.6	5.730	-0.190	-0.060	-0.040
2020/01/31 21:00:51.7	5.720	-0.160	-0.030	0.000
2020/01/31 21:00:51.8	5.710	-0.120	-0.000	0.040
2020/01/31 21:00:51.9	5.700	-0.080	0.020	0.070
2020/01/31 21:00:52.0	5.690	-0.040	0.030	0.110
2020/01/31 21:00:52.1	5.680	0.010	0.050	0.150
2020/01/31 21:00:52.2	5.680	0.050	0.050	0.180
2020/01/31 21:00:52.3	5.670	0.090	0.050	0.210
2020/01/31 21:00:52.4	5.670	0.130	0.050	0.240
2020/01/31 21:00:52.5	5.660	0.180	0.040	0.260
2020/01/31 21:00:52.6	5.660	0.220	0.030	0.290
2020/01/31 21:00:52.7	5.660	0.260	0.010	0.310
2020/01/31 21:00:52.8	5.650	0.300	-0.010	0.330
2020/01/31 21:00:52.9	5.650	0.340	-0.030	0.350
2020/01/31 21:00:53.0	5.660	0.370	-0.060	0.360
2020/01/31 21:00:53.1	5.660	0.410	-0.090	0.370
2020/01/31 21:00:53.2	5.660	0.440	-0.110	0.380
2020/01/31 21:00:53.3	5.650	0.470	-0.140	0.390
2020/01/31 21:00:53.4	5.650	0.490	-0.170	0.390
2020/01/31 21:00:53.5	5.650	0.520	-0.200	0.400
2020/01/31 21:00:53.6	5.640	0.530	-0.230	0.390
2020/01/31 21:00:53.7	5.640	0.550	-0.260	0.390
2020/01/31 21:00:53.8	5.630	0.560	-0.290	0.380
2020/01/31 21:00:53.9	5.630	0.570	-0.310	0.370
2020/01/31 21:00:54.0	5.620	0.570	-0.340	0.350
2020/01/31 21:00:54.1	5.620	0.570	-0.360	0.330
2020/01/31 21:00:54.2	5.610	0.570	-0.380	0.310
2020/01/31 21:00:54.3	5.610	0.560	-0.390	0.280
2020/01/31 21:00:54.4	5.610	0.550	-0.410	0.260
2020/01/31 21:00:54.5	5.610	0.530	-0.420	0.230
2020/01/31 21:00:54.6	5.610	0.510	-0.430	0.200
2020/01/31 21:00:54.7	5.610	0.490	-0.440	0.160
2020/01/31 21:00:54.8	5.620	0.470	-0.450	0.130
2020/01/31 21:00:54.9	5.620	0.440	-0.450	0.090
2020/01/31 21:00:55.0	5.620	0.410	-0.450	0.050
2020/01/31 21:00:55.1	5.630	0.380	-0.440	0.020
2020/01/31 21:00:55.2	5.640	0.350	-0.440	-0.020
2020/01/31 21:00:55.3	5.650	0.320	-0.430	-0.060
2020/01/31 21:00:55.4	5.660	0.280	-0.420	-0.090
2020/01/31 21:00:55.5	5.670	0.250	-0.410	-0.130
2020/01/31 21:00:55.6	5.680	0.220	-0.400	-0.170
2020/01/31 21:00:55.7	5.700	0.180	-0.380	-0.200
2020/01/31 21:00:55.8	5.710	0.150	-0.370	-0.240
2020/01/31 21:00:55.9	5.730	0.120	-0.350	-0.280
2020/01/31 21:00:56.0	5.740	0.090	-0.330	-0.320
2020/01/31 21:00:56.1	5.760	0.060	-0.320	-0.350
2020/01/31 21:00:56.2	5.790	0.030	-0.300	-0.390
2020/01/31 21:00:56.3	5.810	0.000	-0.280	-0.420
2020/01/31 21:00:56.4	5.840	-0.020	-0.260	-0.450
2020/01/31 21:00:56.5	5.860	-0.040	-0.240	-0.480
2020/01/31 21:00:56.6	5.890	-0.060	-0.230	-0.510
2020/01/31 21:00:56.7	5.920	-0.080	-0.210	-0.540
2020/01/31 21:00:56.8	5.940	-0.100	-0.190	-0.560
2020/01/31 21:00:56.9	5.970	-0.110	-0.180	-0.580
2020/01/31 21:00:57.0	6.000	-0.120	-0.160	-0.600
2020/01/31 21:00:57.1	6.020	-0.130	-0.150	-0.610
2020/01/31 21:00:57.2	6.040	-0.140	-0.140	-0.620
2020/01/31 21:00:57.3	6.060	-0.150	-0.120	-0.630
2020/01/31 21:00:57.4	6.080	-0.150	-0.110	-0.640
2020/01/31 21:00:57.5	6.100	-0.160	-0.100	-0.640
2020/01/31 21:00:57.6	6.110	-0.160	-0.090	-0.630
2020/01/31 21:00:57.7	6.130	-0.160	-0.080	-0.630
2020/01/31 21:00:57.8	6.140	-0.170	-0.070	-0.620
2020/01/31 21:00:57.9	6.140	-0.170	-0.070	-0.610
2020/01/31 21:00:58.0	6.160	-0.170	-0.060	-0.600
2020/01/31 21:00:58.1	6.160	-0.170	-0.050	-0.580
2020/01/31 21:00:58.2	6.150	-0.170	-0.040	-0.560
2020/01/31 21:00:58.3	6.150	-0.170	-0.040	-0.540
2020/01/31 21:00:58.4	6.140	-0.170	-0.030	-0.520
2020/01/31 21:00:58.5	6.130	-0.170	-0.030	-0.490
2020/01/31 21:00:58.6	6.110	-0.170	-0.020	-0.460
2020/01/31 21:00:58.7	6.100	-0.170	-0.020	-0.430
2020/01/31 21:00:58.8	6.080	-0.170	-0.020	-0.400
2020/01/31 21:00:58.9	6.060	-0.170	-0.010	-0.370
2020/01/31 21:00:59.0	6.040	-0.180	-0.010	-0.340
2020/01/31 21:00:59.1	6.020	-0.180	-0.010	-0.310
2020/01/31 21:00:59.2	5.990	-0.180	-0.010	-0.280
2020/01/31 21:00:59.3	5.970	-0.190	-0.010	-0.250
2020/01/31 21:00:59.4	5.950	-0.190	-0.010	-0.220
2020/01/31 21:00:59.5	5.920	-0.200	-0.010	-0.180
2020/01/31 21:00:59.6	5.900	-0.210	-0.010	-0.150
2020/01/31 21:00:59.7	5.870	-0.220	-0.020	-0.120
2020/01/31 21:00:59.8	5.850	-0.230	-0.020	-0.090
2020/01/31 21:00:59.9	5.820	-0.240	-0.020	-0.060
2020/01/31 21:01:00.0	5.790	-0.240	-0.030	-0.030
2020/01/31 21:01:00.1	5.770	-0.260	-0.030	-0.010
2020/01/31 21:01:00.2	5.740	-0.270	-0.040	0.020
2020/01/31 21:01:00.3	5.720	-0.280	-0.040	0.040
2020/01/31 21:01:00.4	5.690	-0.290	-0.050	0.060
2020/01/31 21:01:00.5	5.670	-0.300	-0.060	0.080
2020/01/31 21:01:00.6	5.650	-0.310	-0.070	0.090
2020/01/31 21:01:00.7	5.630	-0.320	-0.080	0.100
2020/01/31 21:01:00.8	5.610	-0.330	-0.090	0.110
2020/01/31 21:01:00.9	5.600	-0.330	-0.110	0.110
2020/01/31 21:01:01.0	5.580	-0.340	-0.120	0.110
2020/01/31 21:01:01.1	5.570	-0.340	-0.140	0.110
2020/01/31 21:01:01.2	5.560	-0.350	-0.160	0.100
2020/01/31 21:01:01.3	5.550	-0.350	-0.170	0.090
2020/01/31 21:01:01.4	5.540	-0.350	-0.190	0.070
2020/01/31 21:01:01.5	5.540	-0.350	-0.220	0.060
2020/01/31 21:01:01.6	5.540	-0.350	-0.240	0.040
2020/01/31 21:01:01.7	5.540	-0.340	-0.260	0.020
2020/01/31 21:01:01.8	5.540	-0.330	-0.290	-0.010
2020/01/31 21:01:01.9	5.550	-0.320	-0.310	-0.030
2020/01/31 21:01:02.0	5.560	-0.310	-0.340	-0.060
2020/01/31 21:01:02.1	5.570	-0.290	-0.370	-0.090
2020/01/31 21:01:02.2	5.580	-0.280	-0.400	-0.110
2020/01/31 21:01:02.3	5.600	-0.260	-0.430	-0.130
2020/01/31 21:01:02.4	5.610	-0.240	-0.460	-0.160
2020/01/31 21:01:02.5	5.630	-0.210	-0.480	-0.180
2020/01/31 21:01:02.6	5.650	-0.180	-0.510	-0.200
2020/01/31 21:01:02.7	5.670	-0.160	-0.540	-0.230
2020/01/31 21:01:02.8	5.690	-0.130	-0.570	-0.250
2020/01/31 21:01:02.9	5.710	-0.090	-0.590	-0.270
2020/01/31 21:01:03.0	5.730	-0.060	-0.620	-0.290
2020/01/31 21:01:03.1	5.750	-0.030	-0.640	-0.310
2020/01/31 21:01:03.2	5.770	0.010	-0.670	-0.320
2020/01/31 21:01:03.3	5.800	0.040	-0.690	-0.340
2020/01/31 21:01:03.4	5.830	0.070	-0.700	-0.360
2020/01/31 21:01:03.5	5.850	0.110	-0.720	-0.370
2020/01/31 21:01:03.6	5.880	0.140	-0.730	-0.390
2020/01/31 21:01:03.7	5.900	0.180	-0.740	-0.400
2020/01/31 21:01:03.8	5.930	0.210	-0.750	-0.410
2020/01/31 21:01:03.9	5.950	0.240	-0.750	-0.430
2020/01/31 21:01:04.0	5.990	0.270	-0.750	-0.440
2020/01/31 21:01:04.1	6.020	0.290	-0.750	-0.450
2020/01/31 21:01:04.2	6.040	0.320	-0.740	-0.450
2020/01/31 21:01:04.3	6.060	0.340	-0.730	-0.460
2020/01/31 21:01:04.4	6.080	0.360	-0.710	-0.460
2020/01/31 21:01:04.5	6.100	0.370	-0.690	-0.460
2020/01/31 21:01:04.6	6.110	0.390	-0.660	-0.460
2020/01/31 21:01:04.7	6.130	0.400	-0.640	-0.460
2020/01/31 21:01:04.8	6.140	0.400	-0.600	-0.450
2020/01/31 21:01:04.9	6.160	0.410	-0.570	-0.440
2020/01/31 21:01:05.0	6.160	0.410	-0.530	-0.440
2020/01/31 21:01:05.1	6.170	0.410	-0.490	-0.420
2020/01/31 21:01:05.2	6.180	0.400	-0.440	-0.410
2020/01/31 21:01:05.3	6.190	0.390	-0.400	-0.390
2020/01/31 21:01:05.4	6.200	0.380	-0.350	-0.380
2020/01/31 21:01:05.5	6.200	0.370	-0.300	-0.360
2020/01/31 21:01:05.6	6.210	0.350	-0.250	-0.340
2020/01/31 21:01:05.7	6.210	0.330	-0.200	-0.320
2020/01/31 21:01:05.8	6.210	0.310	-0.150	-0.300
2020/01/31 21:01:05.9	6.220	0.280	-0.100	-0.280
2020/01/31 21:01:06.0	6.220	0.260	-0.050	-0.250
2020/01/31 21:01:06.1	6.220	0.230	-0.010	-0.230
2020/01/31 21:01:06.2	6.220	0.200	0.040	-0.210
2020/01/31 21:01:06.3	6.220	0.170	0.080	-0.190
2020/01/31 21:01:06.4	6.220	0.140	0.120	-0.160
2020/01/31 21:01:06.5	6.210	0.110	0.160	-0.140
2020/01/31 21:01:06.6	6.200	0.080	0.190	-0.120
2020/01/31 21:01:06.7	6.190	0.040	0.220	-0.100
2020/01/31 21:01:06.8	6.180	0.010	0.250	-0.070
2020/01/31 21:01:06.9	6.170	-0.020	0.270	-0.050
2020/01/31 21:01:07.0	6.140	-0.050	0.280	-0.030
2020/01/31 21:01:07.1	6.120	-0.080	0.300	-0.010
2020/01/31 21:01:07.2	6.100	-0.110	0.310	0.010
2020/01/31 21:01:07.3	6.080	-0.140	0.310	0.030
2020/01/31 21:01:07.4	6.060	-0.170	0.310	0.050
2020/01/31 21:01:07.5	6.040	-0.190	0.300	0.060
2020/01/31 21:01:07.6	6.010	-0.210	0.290	0.080
2020/01/31 21:01:07.7	5.990	-0.230	0.280	0.090
2020/01/31 21:01:07.8	5.960	-0.250	0.260	0.100
2020/01/31 21:01:07.9	5.940	-0.260	0.230	0.110
2020/01/31 21:01:08.0	5.920	-0.280	0.200	0.120
2020/01/31 21:01:08.1	5.900	-0.280	0.170	0.120
2020/01/31 21:01:08.2	5.880	-0.290	0.130	0.130
2020/01/31 21:01:08.3	5.850	-0.290	0.090	0.130
2020/01/31 21:01:08.4	5.830	-0.290	0.040	0.130
2020/01/31 21:01:08.5	5.820	-0.290	-0.010	0.130
2020/01/31 21:01:08.6	5.800	-0.280	-0.060	0.130
2020/01/31 21:01:08.7	5.790	-0.270	-0.110	0.120
2020/01/31 21:01:08.8	5.780	-0.260	-0.170	0.120
2020/01/31 21:01:08.9	5.770	-0.240	-0.230	0.110
2020/01/31 21:01:09.0	5.750	-0.220	-0.300	0.100
2020/01/31 21:01:09.1	5.750	-0.200	-0.360	0.080
2020/01/31 21:01:09.2	5.750	-0.170	-0.420	0.070
2020/01/31 21:01:09.3	5.750	-0.150	-0.480	0.060
2020/01/31 21:01:09.4	5.750	-0.120	-0.540	0.040
2020/01/31 21:01:09.5	5.750	-0.090	-0.600	0.030
2020/01/31 21:01:09.6	5.750	-0.060	-0.650	0.010
2020/01/31 21:01:09.7	5.760	-0.020	-0.700	-0.000
2020/01/31 21:01:09.8	5.760	0.010	-0.750	-0.020
2020/01/31 21:01:09.9	5.770	0.040	-0.790	-0.030
2020/01/31 21:01:10.0	5.780	0.070	-0.820	-0.040
2020/01/31 21:01:10.1	5.790	0.090	-0.850	-0.060
2020/01/31 21:01:10.2	5.800	0.120	-0.870	-0.080
2020/01/31 21:01:10.3	5.810	0.140	-0.890	-0.100
2020/01/31 21:01:10.4	5.830	0.170	-0.900	-0.120
2020/01/31 21:01:10.5	5.840	0.190	-0.900	-0.140
2020/01/31 21:01:10.6	5.850	0.200	-0.900	-0.160
2020/01/31 21:01:10.7	5.870	0.210	-0.890	-0.190
2020/01/31 21:01:10.8	5.890	0.220	-0.870	-0.210
2020/01/31 21:01:10.9	5.900	0.230	-0.850	-0.240
2020/01/31 21:01:11.0	5.930	0.230	-0.820	-0.270
2020/01/31 21:01:11.1	5.950	0.230	-0.790	-0.290
2020/01/31 21:01:11.2	5.970	0.230	-0.750	-0.320
2020/01/31 21:01:11.3	5.990	0.220	-0.700	-0.350
2020/01/31 21:01:11.4	6.000	0.210	-0.650	-0.370
2020/01/31 21:01:11.5	6.030	0.190	-0.600	-0.400
2020/01/31 21:01:11.6	6.050	0.170	-0.550	-0.430
2020/01/31 21:01:11.7	6.070	0.150	-0.490	-0.450
2020/01/31 21:01:11.8	6.080	0.130	-0.430	-0.470
2020/01/31 21:01:11.9	6.100	0.100	-0.370	-0.490
2020/01/31 21:01:12.0	6.100	0.070	-0.310	-0.510
2020/01/31 21:01:12.1	6.120	0.040	-0.250	-0.530
2020/01/31 21:01:12.2	6.130	0.010	-0.190	-0.540
2020/01/31 21:01:12.3	6.150	-0.030	-0.120	-0.550
2020/01/31 21:01:12.4	6.160	-0.060	-0.060	-0.560
2020/01/31 21:01:12.5	6.170	-0.100	-0.000	-0.570
2020/01/31 21:01:12.6	6.180	-0.130	0.060	-0.570
2020/01/31 21:01:12.7	6.190	-0.170	0.120	-0.580
2020/01/31 21:01:12.8	6.190	-0.200	0.170	-0.580
2020/01/31 21:01:12.9	6.200	-0.240	0.220	-0.570
2020/01/31 21:01:13.0	6.180	-0.270	0.270	-0.570
2020/01/31 21:01:13.1	6.180	-0.300	0.320	-0.560
2020/01/31 21:01:13.2	6.180	-0.330	0.360	-0.560
2020/01/31 21:01:13.3	6.180	-0.360	0.400	-0.550
2020/01/31 21:01:13.4	6.180	-0.390	0.430	-0.540
2020/01/31 21:01:13.5	6.170	-0.410	0.460	-0.520
2020/01/31 21:01:13.6	6.170	-0.430	0.480	-0.510
2020/01/31 21:01:13.7	6.160	-0.440	0.500	-0.490
2020/01/31 21:01:13.8	6.150	-0.460	0.520	-0.480
2020/01/31 21:01:13.9	6.140	-0.460	0.530	-0.460
2020/01/31 21:01:14.0	6.130	-0.470	0.540	-0.440
2020/01/31 21:01:14.1	6.120	-0.470	0.530	-0.420
2020/01/31 21:01:14.2	6.110	-0.470	0.530	-0.400
2020/01/31 21:01:14.3	6.100	-0.470	0.520	-0.370
2020/01/31 21:01:14.4	6.080	-0.460	0.500	-0.350
2020/01/31 21:01:14.5	6.070	-0.450	0.480	-0.330
2020/01/31 21:01:14.6	6.060	-0.430	0.460	-0.300
2020/01/31 21:01:14.7	6.040	-0.410	0.430	-0.280
2020/01/31 21:01:14.8	6.030	-0.390	0.400	-0.250
2020/01/31 21:01:14.9	6.010	-0.360	0.360	-0.220
2020/01/31 21:01:15.0	6.010	-0.340	0.320	-0.190
2020/01/31 21:01:15.1	6.000	-0.310	0.270	-0.160
2020/01/31 21:01:15.2	5.980	-0.270	0.220	-0.130
2020/01/31 21:01:15.3	5.970	-0.240	0.170	-0.100
2020/01/31 21:01:15.4	5.950	-0.200	0.120	-0.070
2020/01/31 21:01:15.5	5.930	-0.170	0.060	-0.030
2020/01/31 21:01:15.6	5.910	-0.130	0.010	-0.000
2020/01/31 21:01:15.7	5.890	-0.090	-0.050	0.030
2020/01/31 21:01:15.8	5.870	-0.040	-0.110	0.070
2020/01/31 21:01:15.9	5.850	-0.000	-0.170	0.100
2020/01/31 21:01:16.0	5.830	0.040	-0.230	0.140
2020/01/31 21:01:16.1	5.810	0.080	-0.290	0.170
2020/01/31 21:01:16.2	5.800	0.120	-0.350	0.200
2020/01/31 21:01:16.3	5.780	0.160	-0.400	0.230
2020/01/31 21:01:16.4	5.760	0.200	-0.460	0.260
2020/01/31 21:01:16.5	5.750	0.240	-0.520	0.280
2020/01/31 21:01:16.6	5.730	0.280	-0.570	0.310
2020/01/31 21:01:16.7	5.720	0.320	-0.620	0.330
2020/01/31 21:01:16.8	5.710	0.350	-0.670	0.340
2020/01/31 21:01:16.9	5.700	0.390	-0.710	0.360
2020/01/31 21:01:17.0	5.690	0.420	-0.760	0.370
2020/01/31 21:01:17.1	5.680	0.450	-0.800	0.380
2020/01/31 21:01:17.2	5.680	0.470	-0.840	0.380
2020/01/31 21:01:17.3	5.680	0.500	-0.870	0.390
2020/01/31 21:01:17.4	5.680	0.520	-0.900	0.390
2020/01/31 21:01:17.5	5.680	0.540	-0.930	0.380
2020/01/31 21:01:17.6	5.690	0.560	-0.960	0.380
2020/01/31 21:01:17.7	5.690	0.570	-0.980	0.370
2020/01/31 21:01:17.8	5.700	0.580	-1.000	0.350
2020/01/31 21:01:17.9	5.720	0.590	-1.020	0.340
2020/01/31 21:01:18.0	5.750	0.590	-1.030	0.320
2020/01/31 21:01:18.1	5.770	0.600	-1.040	0.300
2020/01/31 21:01:18.2	5.780	0.590	-1.050	0.270
2020/01/31 21:01:18.3	5.800	0.580	-1.060	0.240
2020/01/31 21:01:18.4	5.810	0.570	-1.060	0.210
2020/01/31 21:01:18.5	5.830	0.560	-1.050	0.180
2020/01/31 21:01:18.6	5.840	0.540	-1.050	0.140
2020/01/31 21:01:18.7	5.860	0.520	-1.040	0.100
2020/01/31 21:01:18.8	5.870	0.490	-1.020	0.060
2020/01/31 21:01:18.9	5.890	0.460	-1.000	0.010
2020/01/31 21:01:19.0	5.890	0.430	-0.990	-0.040
2020/01/31 21:01:19.1	5.910	0.390	-0.960	-0.090
2020/01/31 21:01:19.2	5.920	0.350	-0.940	-0.140
2020/01/31 21:01:19.3	5.930	0.310	-0.910	-0.190
2020/01/31 21:01:19.4	5.940	0.260	-0.880	-0.250
2020/01/31 21:01:19.5	5.950	0.220	-0.840	-0.300
2020/01/31 21:01:19.6	5.950	0.170	-0.810	-0.360
2020/01/31 21:01:19.7	5.960	0.120	-0.770	-0.410
2020/01/31 21:01:19.8	5.970	0.080	-0.730	-0.470
2020/01/31 21:01:19.9	5.980	0.030	-0.690	-0.520
2020/01/31 21:01:20.0	5.990	-0.020	-0.650	-0.580
2020/01/31 21:01:20.1	6.000	-0.070	-0.610	-0.640
2020/01/31 21:01:20.2	6.000	-0.120	-0.560	-0.690
2020/01/31 21:01:20.3	6.010	-0.160	-0.520	-0.740
2020/01/31 21:01:20.4	6.020	-0.210	-0.470	-0.790
2020/01/31 21:01:20.5	6.030	-0.250	-0.420	-0.830
2020/01/31 21:01:20.6	6.040	-0.290	-0.380	-0.880
2020/01/31 21:01:20.7	6.050	-0.320	-0.330	-0.920
2020/01/31 21:01:20.8	6.060	-0.360	-0.280	-0.960
2020/01/31 21:01:20.9	6.070	-0.390	-0.230	-0.990
2020/01/31 21:01:21.0	6.070	-0.420	-0.190	-1.020
2020/01/31 21:01:21.1	6.080	-0.440	-0.140	-1.050
2020/01/31 21:01:21.2	6.090	-0.460	-0.090	-1.070
2020/01/31 21:01:21.3	6.090	-0.480	-0.040	-1.090
2020/01/31 21:01:21.4	6.100	-0.490	0.010	-1.100
2020/01/31 21:01:21.5	6.110	-0.500	0.050	-1.110
2020/01/31 21:01:21.6	6.110	-0.500	0.100	-1.120
2020/01/31 21:01:21.7	6.110	-0.510	0.150	-1.120
2020/01/31 21:01:21.8	6.120	-0.500	0.190	-1.110
2020/01/31 21:01:21.9	6.120	-0.500	0.230	-1.110
2020/01/31 21:01:22.0	6.120	-0.490	0.270	-1.090
2020/01/31 21:01:22.1	6.120	-0.480	0.310	-1.070
2020/01/31 21:01:22.2	6.120	-0.470	0.350	-1.060
2020/01/31 21:01:22.3	6.120	-0.460	0.390	-1.030
2020/01/31 21:01:22.4	6.120	-0.440	0.420	-1.010
2020/01/31 21:01:22.5	6.120	-0.420	0.450	-0.970
2020/01/31 21:01:22.6	6.120	-0.400	0.480	-0.940
2020/01/31 21:01:22.7	6.110	-0.370	0.500	-0.900
2020/01/31 21:01:22.8	6.110	-0.350	0.520	-0.860
2020/01/31 21:01:22.9	6.100	-0.320	0.540	-0.820
2020/01/31 21:01:23.0	6.100	-0.300	0.550	-0.770
2020/01/31 21:01:23.1	6.090	-0.270	0.560	-0.720
2020/01/31 21:01:23.2	6.080	-0.240	0.570	-0.670
2020/01/31 21:01:23.3	6.060	-0.210	0.570	-0.610
2020/01/31 21:01:23.4	6.050	-0.180	0.570	-0.550
2020/01/31 21:01:23.5	6.040	-0.160	0.570	-0.490
2020/01/31 21:01:23.6	6.030	-0.130	0.560	-0.420
2020/01/31 21:01:23.7	6.010	-0.100	0.540	-0.360
2020/01/31 21:01:23.8	6.000	-0.070	0.530	-0.290
2020/01/31 21:01:23.9	5.980	-0.050	0.510	-0.230
2020/01/31 21:01:24.0	5.950	-0.020	0.480	-0.160
2020/01/31 21:01:24.1	5.930	0.010	0.460	-0.090
2020/01/31 21:01:24.2	5.920	0.030	0.430	-0.030
2020/01/31 21:01:24.3	5.900	0.050	0.400	0.040
2020/01/31 21:01:24.4	5.890	0.070	0.360	0.100
2020/01/31 21:01:24.5	5.870	0.100	0.330	0.150
2020/01/31 21:01:24.6	5.860	0.120	0.290	0.210
2020/01/31 21:01:24.7	5.850	0.130	0.250	0.260
2020/01/31 21:01:24.8	5.840	0.150	0.200	0.310
2020/01/31 21:01:24.9	5.820	0.170	0.160	0.360
2020/01/31 21:01:25.0	5.820	0.180	0.110	0.400
2020/01/31 21:01:25.1	5.810	0.200	0.060	0.440
2020/01/31 21:01:25.2	5.800	0.210	0.020	0.480
2020/01/31 21:01:25.3	5.790	0.220	-0.030	0.510
2020/01/31 21:01:25.4	5.790	0.240	-0.080	0.530
2020/01/31 21:01:25.5	5.780	0.250	-0.130	0.560
2020/01/31 21:01:25.6	5.770	0.260	-0.180	0.580
2020/01/31 21:01:25.7	5.770	0.270	-0.230	0.590
2020/01/31 21:01:25.8	5.770	0.280	-0.280	0.600
2020/01/31 21:01:25.9	5.760	0.280	-0.330	0.610
2020/01/31 21:01:26.0	5.760	0.290	-0.380	0.620
2020/01/31 21:01:26.1	5.760	0.290	-0.420	0.620
2020/01/31 21:01:26.2	5.750	0.300	-0.460	0.620
2020/01/31 21:01:26.3	5.750	0.300	-0.500	0.610
2020/01/31 21:01:26.4	5.740	0.300	-0.540	0.610
2020/01/31 21:01:26.5	5.740	0.300	-0.570	0.600
2020/01/31 21:01:26.6	5.730	0.300	-0.610	0.590
2020/01/31 21:01:26.7	5.730	0.300	-0.630	0.580
2020/01/31 21:01:26.8	5.720	0.300	-0.660	0.570
2020/01/31 21:01:26.9	5.710	0.290	-0.690	0.550
2020/01/31 21:01:27.0	5.710	0.290	-0.710	0.530
2020/01/31 21:01:27.1	5.700	0.280	-0.730	0.510
2020/01/31 21:01:27.2	5.700	0.270	-0.740	0.490
2020/01/31 21:01:27.3	5.690	0.260	-0.760	0.460
2020/01/31 21:01:27.4	5.680	0.250	-0.770	0.430
2020/01/31 21:01:27.5	5.670	0.230	-0.780	0.400
2020/01/31 21:01:27.6	5.660	0.220	-0.790	0.360
2020/01/31 21:01:27.7	5.650	0.200	-0.790	0.330
2020/01/31 21:01:27.8	5.640	0.180	-0.800	0.290
2020/01/31 21:01:27.9	5.630	0.170	-0.800	0.250
2020/01/31 21:01:28.0	5.620	0.150	-0.810	0.200
2020/01/31 21:01:28.1	5.610	0.130	-0.810	0.160
2020/01/31 21:01:28.2	5.610	0.110	-0.810	0.110
2020/01/31 21:01:28.3	5.600	0.090	-0.810	0.060
2020/01/31 21:01:28.4	5.600	0.070	-0.810	0.010
2020/01/31 21:01:28.5	5.600	0.050	-0.810	-0.050
2020/01/31 21:01:28.6	5.600	0.030	-0.810	-0.100
2020/01/31 21:01:28.7	5.600	0.010	-0.810	-0.150
2020/01/31 21:01:28.8	5.610	-0.010	-0.800	-0.210
2020/01/31 21:01:28.9	5.610	-0.030	-0.800	-0.260
2020/01/31 21:01:29.0	5.630	-0.050	-0.800	-0.320
2020/01/31 21:01:29.1	5.640	-0.060	-0.790	-0.380
2020/01/31 21:01:29.2	5.650	-0.080	-0.780	-0.430
2020/01/31 21:01:29.3	5.660	-0.090	-0.780	-0.480
2020/01/31 21:01:29.4	5.680	-0.110	-0.770	-0.530
2020/01/31 21:01:29.5	5.700	-0.120	-0.760	-0.580
2020/01/31 21:01:29.6	5.710	-0.130	-0.750	-0.620
2020/01/31 21:01:29.7	5.730	-0.140	-0.730	-0.670
2020/01/31 21:01:29.8	5.750	-0.150	-0.720	-0.710
2020/01/31 21:01:29.9	5.770	-0.160	-0.710	-0.750
2020/01/31 21:01:30.0	5.800	-0.170	-0.690	-0.780
2020/01/31 21:01:30.1	5.820	-0.180	-0.670	-0.810
2020/01/31 21:01:30.2	5.840	-0.180	-0.650	-0.840
2020/01/31 21:01:30.3	5.860	-0.190	-0.630	-0.870
2020/01/31 21:01:30.4	5.880	-0.190	-0.600	-0.890
2020/01/31 21:01:30.5	5.910	-0.200	-0.580	-0.910
2020/01/31 21:01:30.6	5.930	-0.200	-0.550	-0.920
2020/01/31 21:01:30.7	5.940	-0.200	-0.520	-0.930
2020/01/31 21:01:30.8	5.960	-0.200	-0.490	-0.930
2020/01/31 21:01:30.9	5.980	-0.210	-0.450	-0.940
2020/01/31 21:01:31.0	6.000	-0.210	-0.410	-0.930
2020/01/31 21:01:31.1	6.010	-0.210	-0.380	-0.930
2020/01/31 21:01:31.2	6.030	-0.210	-0.340	-0.910
2020/01/31 21:01:31.3	6.040	-0.210	-0.300	-0.900
2020/01/31 21:01:31.4	6.050	-0.200	-0.260	-0.880
2020/01/31 21:01:31.5	6.060	-0.200	-0.220	-0.860
2020/01/31 21:01:31.6	6.060	-0.200	-0.180	-0.830
2020/01/31 21:01:31.7	6.070	-0.200	-0.140	-0.810
2020/01/31 21:01:31.8	6.070	-0.190	-0.100	-0.780
2020/01/31 21:01:31.9	6.070	-0.190	-0.060	-0.740
2020/01/31 21:01:32.0	6.060	-0.180	-0.020	-0.710
2020/01/31 21:01:32.1	6.060	-0.180	0.020	-0.670
2020/01/31 21:01:32.2	6.050	-0.170	0.060	-0.630
2020/01/31 21:01:32.3	6.050	-0.160	0.100	-0.580
2020/01/31 21:01:32.4	6.040	-0.160	0.130	-0.540
2020/01/31 21:01:32.5	6.020	-0.150	0.170	-0.490
2020/01/31 21:01:32.6	6.010	-0.140	0.210	-0.440
2020/01/31 21:01:32.7	5.990	-0.130	0.240	-0.390
2020/01/31 21:01:32.8	5.980	-0.120	0.270	-0.340
2020/01/31 21:01:32.9	5.960	-0.100	0.300	-0.280
2020/01/31 21:01:33.0	5.940	-0.090	0.330	-0.230
2020/01/31 21:01:33.1	5.920	-0.080	0.350	-0.180
2020/01/31 21:01:33.2	5.900	-0.060	0.370	-0.130
2020/01/31 21:01:33.3	5.880	-0.050	0.390	-0.070
2020/01/31 21:01:33.4	5.860	-0.030	0.400	-0.020
2020/01/31 21:01:33.5	5.840	-0.010	0.410	0.030
2020/01/31 21:01:33.6	5.820	0.010	0.420	0.080
2020/01/31 21:01:33.7	5.800	0.030	0.420	0.120
2020/01/31 21:01:33.8	5.790	0.050	0.420	0.170
2020/01/31 21:01:33.9	5.770	0.070	0.410	0.210
2020/01/31 21:01:34.0	5.760	0.100	0.400	0.250
2020/01/31 21:01:34.1	5.740	0.120	0.380	0.290
2020/01/31 21:01:34.2	5.730	0.140	0.360	0.330
2020/01/31 21:01:34.3	5.720	0.170	0.340	0.360
2020/01/31 21:01:34.4	5.710	0.200	0.310	0.400
2020/01/31 21:01:34.5	5.690	0.220	0.280	0.430
2020/01/31 21:01:34.6	5.680	0.250	0.250	0.460
2020/01/31 21:01:34.7	5.670	0.270	0.210	0.480
2020/01/31 21:01:34.8	5.660	0.300	0.170	0.510
2020/01/31 21:01:34.9	5.650	0.320	0.130	0.530
2020/01/31 21:01:35.0	5.640	0.350	0.080	0.560
2020/01/31 21:01:35.1	5.630	0.370	0.040	0.570
2020/01/31 21:01:35.2	5.620	0.390	-0.010	0.590
2020/01/31 21:01:35.3	5.610	0.410	-0.050	0.600
2020/01/31 21:01:35.4	5.600	0.430	-0.100	0.610
2020/01/31 21:01:35.5	5.580	0.440	-0.140	0.620
2020/01/31 21:01:35.6	5.570	0.460	-0.190	0.620
2020/01/31 21:01:35.7	5.560	0.470	-0.230	0.620
2020/01/31 21:01:35.8	5.540	0.480	-0.280	0.620
2020/01/31 21:01:35.9	5.530	0.480	-0.320	0.610
2020/01/31 21:01:36.0	5.530	0.480	-0.360	0.600
2020/01/31 21:01:36.1	5.510	0.480	-0.390	0.580
2020/01/31 21:01:36.2	5.500	0.480	-0.430	0.560
2020/01/31 21:01:36.3	5.490	0.470	-0.460	0.540
2020/01/31 21:01:36.4	5.470	0.460	-0.490	0.510
2020/01/31 21:01:36.5	5.460	0.440	-0.510	0.490
2020/01/31 21:01:36.6	5.450	0.430	-0.540	0.460
2020/01/31 21:01:36.7	5.440	0.410	-0.560	0.420
2020/01/31 21:01:36.8	5.440	0.380	-0.570	0.390
2020/01/31 21:01:36.9	5.430	0.360	-0.590	0.350
2020/01/31 21:01:37.0	5.430	0.330	-0.600	0.310
2020/01/31 21:01:37.1	5.420	0.300	-0.610	0.270
2020/01/31 21:01:37.2	5.420	0.260	-0.620	0.230
2020/01/31 21:01:37.3	5.430	0.220	-0.620	0.190
2020/01/31 21:01:37.4	5.430	0.190	-0.630	0.150
2020/01/31 21:01:37.5	5.430	0.140	-0.630	0.110
2020/01/31 21:01:37.6	5.440	0.100	-0.630	0.060
2020/01/31 21:01:37.7	5.440	0.060	-0.620	0.020
2020/01/31 21:01:37.8	5.450	0.010	-0.620	-0.030
2020/01/31 21:01:37.9	5.460	-0.040	-0.610	-0.070
2020/01/31 21:01:38.0	5.480	-0.090	-0.600	-0.120
2020/01/31 21:01:38.1	5.490	-0.130	-0.590	-0.170
2020/01/31 21:01:38.2	5.500	-0.180	-0.580	-0.220
2020/01/31 21:01:38.3	5.510	-0.230	-0.570	-0.270
2020/01/31 21:01:38.4	5.520	-0.280	-0.550	-0.320
2020/01/31 21:01:38.5	5.530	-0.330	-0.540	-0.370
2020/01/31 21:01:38.6	5.550	-0.380	-0.520	-0.420
2020/01/31 21:01:38.7	5.560	-0.420	-0.510	-0.470
2020/01/31 21:01:38.8	5.580	-0.460	-0.490	-0.520
2020/01/31 21:01:38.9	5.600	-0.500	-0.480	-0.570
2020/01/31 21:01:39.0	5.620	-0.540	-0.460	-0.630
2020/01/31 21:01:39.1	5.640	-0.570	-0.450	-0.680
2020/01/31 21:01:39.2	5.660	-0.600	-0.430	-0.740
2020/01/31 21:01:39.3	5.690	-0.630	-0.420	-0.790
2020/01/31 21:01:39.4	5.710	-0.650	-0.410	-0.840
2020/01/31 21:01:39.5	5.740	-0.670	-0.400	-0.880
2020/01/31 21:01:39.6	5.760	-0.680	-0.380	-0.930
2020/01/31 21:01:39.7	5.790	-0.690	-0.370	-0.970
2020/01/31 21:01:39.8	5.820	-0.700	-0.370	-1.010
2020/01/31 21:01:39.9	5.850	-0.700	-0.360	-1.050
2020/01/31 21:01:40.0	5.880	-0.690	-0.350	-1.080
2020/01/31 21:01:40.1	5.910	-0.680	-0.340	-1.110
2020/01/31 21:01:40.2	5.930	-0.670	-0.340	-1.130
2020/01/31 21:01:40.3	5.960	-0.650	-0.330	-1.150
2020/01/31 21:01:40.4	5.980	-0.620	-0.320	-1.160
2020/01/31 21:01:40.5	6.000	-0.590	-0.320	-1.160
2020/01/31 21:01:40.6	6.020	-0.560	-0.310	-1.150
2020/01/31 21:01:40.7	6.030	-0.530	-0.300	-1.140
2020/01/31 21:01:40.8	6.040	-0.490	-0.280	-1.120
2020/01/31 21:01:40.9	6.050	-0.450	-0.270	-1.090
2020/01/31 21:01:41.0	6.050	-0.410	-0.250	-1.060
2020/01/31 21:01:41.1	6.050	-0.360	-0.240	-1.020
2020/01/31 21:01:41.2	6.050	-0.320	-0.220	-0.980
2020/01/31 21:01:41.3	6.040	-0.270	-0.190	-0.930
2020/01/31 21:01:41.4	6.030	-0.220	-0.170	-0.880
2020/01/31 21:01:41.5	6.020	-0.180	-0.140	-0.820
2020/01/31 21:01:41.6	6.010	-0.130	-0.120	-0.750
2020/01/31 21:01:41.7	5.990	-0.080	-0.090	-0.680
2020/01/31 21:01:41.8	5.970	-0.040	-0.060	-0.610
2020/01/31 21:01:41.9	5.940	0.010	-0.030	-0.530
2020/01/31 21:01:42.0	5.910	0.050	0.000	-0.450
2020/01/31 21:01:42.1	5.880	0.100	0.030	-0.370
2020/01/31 21:01:42.2	5.850	0.140	0.060	-0.280
2020/01/31 21:01:42.3	5.810	0.170	0.090	-0.200
2020/01/31 21:01:42.4	5.780	0.210	0.110	-0.110
2020/01/31 21:01:42.5	5.740	0.240	0.140	-0.020
2020/01/31 21:01:42.6	5.700	0.270	0.160	0.070
2020/01/31 21:01:42.7	5.670	0.300	0.180	0.150
2020/01/31 21:01:42.8	5.630	0.320	0.190	0.240
2020/01/31 21:01:42.9	5.590	0.350	0.200	0.320
2020/01/31 21:01:43.0	5.550	0.370	0.210	0.400
2020/01/31 21:01:43.1	5.520	0.380	0.210	0.480
2020/01/31 21:01:43.2	5.480	0.390	0.200	0.550
2020/01/31 21:01:43.3	5.450	0.400	0.200	0.610
2020/01/31 21:01:43.4	5.420	0.410	0.180	0.670
2020/01/31 21:01:43.5	5.390	0.420	0.170	0.720
2020/01/31 21:01:43.6	5.360	0.420	0.140	0.770
2020/01/31 21:01:43.7	5.330	0.420	0.120	0.800
2020/01/31 21:01:43.8	5.300	0.410	0.090	0.830
2020/01/31 21:01:43.9	5.280	0.410	0.050	0.860
2020/01/31 21:01:44.0	5.260	0.400	0.010	0.870
2020/01/31 21:01:44.1	5.240	0.390	-0.030	0.880
2020/01/31 21:01:44.2	5.230	0.380	-0.080	0.880
2020/01/31 21:01:44.3	5.220	0.370	-0.130	0.870
2020/01/31 21:01:44.4	5.210	0.350	-0.180	0.860
2020/01/31 21:01:44.5	5.200	0.340	-0.230	0.830
2020/01/31 21:01:44.6	5.200	0.320	-0.290	0.810
2020/01/31 21:01:44.7	5.200	0.300	-0.340	0.780
2020/01/31 21:01:44.8	5.200	0.280	-0.400	0.740
2020/01/31 21:01:44.9	5.210	0.260	-0.460	0.700
2020/01/31 21:01:45.0	5.230	0.250	-0.510	0.650
2020/01/31 21:01:45.1	5.240	0.230	-0.570	0.600
2020/01/31 21:01:45.2	5.250	0.210	-0.620	0.550
2020/01/31 21:01:45.3	5.270	0.190	-0.680	0.490
2020/01/31 21:01:45.4	5.290	0.180	-0.720	0.440
2020/01/31 21:01:45.5	5.310	0.160	-0.770	0.380
2020/01/31 21:01:45.6	5.340	0.150	-0.810	0.320
2020/01/31 21:01:45.7	5.360	0.130	-0.850	0.260
2020/01/31 21:01:45.8	5.390	0.120	-0.890	0.200
2020/01/31 21:01:45.9	5.430	0.110	-0.920	0.140
2020/01/31 21:01:46.0	5.470	0.100	-0.940	0.070
2020/01/31 21:01:46.1	5.500	0.090	-0.960	0.000
2020/01/31 21:01:46.2	5.540	0.080	-0.980	-0.060
2020/01/31 21:01:46.3	5.580	0.080	-0.990	-0.120
2020/01/31 21:01:46.4	5.630	0.070	-0.990	-0.180
2020/01/31 21:01:46.5	5.670	0.070	-0.990	-0.240
2020/01/31 21:01:46.6	5.720	0.060	-0.980	-0.300
2020/01/31 21:01:46.7	5.760	0.060	-0.970	-0.360
2020/01/31 21:01:46.8	5.810	0.060	-0.960	-0.410
2020/01/31 21:01:46.9	5.850	0.060	-0.930	-0.460
2020/01/31 21:01:47.0	5.890	0.060	-0.910	-0.500
2020/01/31 21:01:47.1	5.930	0.060	-0.880	-0.550
2020/01/31 21:01:47.2	5.970	0.060	-0.840	-0.580
2020/01/31 21:01:47.3	6.000	0.060	-0.800	-0.620
2020/01/31 21:01:47.4	6.040	0.060	-0.750	-0.640
2020/01/31 21:01:47.5	6.070	0.050	-0.700	-0.670
2020/01/31 21:01:47.6	6.100	0.050	-0.650	-0.690
2020/01/31 21:01:47.7	6.120	0.050	-0.590	-0.700
2020/01/31 21:01:47.8	6.150	0.040	-0.530	-0.710
2020/01/31 21:01:47.9	6.170	0.040	-0.470	-0.710
2020/01/31 21:01:48.0	6.170	0.030	-0.410	-0.710
2020/01/31 21:01:48.1	6.180	0.020	-0.340	-0.700
2020/01/31 21:01:48.2	6.190	0.010	-0.280	-0.690
2020/01/31 21:01:48.3	6.200	0.000	-0.210	-0.680
2020/01/31 21:01:48.4	6.200	-0.010	-0.140	-0.660
2020/01/31 21:01:48.5	6.200	-0.030	-0.080	-0.630
2020/01/31 21:01:48.6	6.200	-0.040	-0.010	-0.610
2020/01/31 21:01:48.7	6.190	-0.060	0.050	-0.580
2020/01/31 21:01:48.8	6.180	-0.070	0.120	-0.550
2020/01/31 21:01:48.9	6.170	-0.090	0.180	-0.520
2020/01/31 21:01:49.0	6.140	-0.110	0.230	-0.490
2020/01/31 21:01:49.1	6.130	-0.130	0.290	-0.450
2020/01/31 21:01:49.2	6.110	-0.150	0.340	-0.420
2020/01/31 21:01:49.3	6.090	-0.170	0.390	-0.380
2020/01/31 21:01:49.4	6.060	-0.190	0.440	-0.340
2020/01/31 21:01:49.5	6.040	-0.220	0.480	-0.310
2020/01/31 21:01:49.6	6.010	-0.240	0.510	-0.270
2020/01/31 21:01:49.7	5.990	-0.260	0.550	-0.230
2020/01/31 21:01:49.8	5.960	-0.280	0.570	-0.200
2020/01/31 21:01:49.9	5.930	-0.300	0.590	-0.170
2020/01/31 21:01:50.0	5.920	-0.310	0.610	-0.130
2020/01/31 21:01:50.1	5.890	-0.330	0.620	-0.100
2020/01/31 21:01:50.2	5.860	-0.350	0.620	-0.080
2020/01/31 21:01:50.3	5.830	-0.360	0.620	-0.050
2020/01/31 21:01:50.4	5.800	-0.370	0.610	-0.030
2020/01/31 21:01:50.5	5.780	-0.380	0.600	-0.000
2020/01/31 21:01:50.6	5.750	-0.390	0.590	0.020
2020/01/31 21:01:50.7	5.720	-0.390	0.560	0.040
2020/01/31 21:01:50.8	5.700	-0.390	0.540	0.060
2020/01/31 21:01:50.9	5.670	-0.390	0.510	0.080
2020/01/31 21:01:51.0	5.650	-0.390	0.470	0.100
2020/01/31 21:01:51.1	5.620	-0.380	0.430	0.120
2020/01/31 21:01:51.2	5.600	-0.370	0.390	0.130
2020/01/31 21:01:51.3	5.570	-0.360	0.350	0.150
2020/01/31 21:01:51.4	5.540	-0.340	0.300	0.170
2020/01/31 21:01:51.5	5.510	-0.320	0.250	0.190
2020/01/31 21:01:51.6	5.490	-0.300	0.200	0.210
2020/01/31 21:01:51.7	5.460	-0.280	0.140	0.220
2020/01/31 21:01:51.8	5.430	-0.250	0.090	0.240
2020/01/31 21:01:51.9	5.400	-0.230	0.030	0.250
2020/01/31 21:01:52.0	5.380	-0.200	-0.020	0.270
2020/01/31 21:01:52.1	5.350	-0.170	-0.080	0.280
2020/01/31 21:01:52.2	5.330	-0.140	-0.140	0.290
2020/01/31 21:01:52.3	5.300	-0.100	-0.190	0.290
2020/01/31 21:01:52.4	5.280	-0.070	-0.250	0.300
2020/01/31 21:01:52.5	5.260	-0.040	-0.310	0.300
2020/01/31 21:01:52.6	5.240	-0.000	-0.370	0.290
2020/01/31 21:01:52.7	5.220	0.030	-0.420	0.280
2020/01/31 21:01:52.8	5.210	0.060	-0.480	0.270
2020/01/31 21:01:52.9	5.200	0.100	-0.530	0.260
2020/01/31 21:01:53.0	5.190	0.130	-0.590	0.240
2020/01/31 21:01:53.1	5.180	0.160	-0.640	0.220
2020/01/31 21:01:53.2	5.180	0.190	-0.690	0.200
2020/01/31 21:01:53.3	5.180	0.220	-0.740	0.170
2020/01/31 21:01:53.4	5.180	0.250	-0.790	0.140
2020/01/31 21:01:53.5	5.190	0.280	-0.830	0.110
2020/01/31 21:01:53.6	5.200	0.310	-0.880	0.080
2020/01/31 21:01:53.7	5.210	0.330	-0.920	0.050
2020/01/31 21:01:53.8	5.230	0.350	-0.960	0.020
2020/01/31 21:01:53.9	5.250	0.380	-1.000	-0.010
2020/01/31 21:01:54.0	5.280	0.400	-1.030	-0.050
2020/01/31 21:01:54.1	5.310	0.410	-1.070	-0.080
2020/01/31 21:01:54.2	5.340	0.430	-1.100	-0.110
2020/01/31 21:01:54.3	5.370	0.440	-1.120	-0.140
2020/01/31 21:01:54.4	5.400	0.450	-1.140	-0.170
2020/01/31 21:01:54.5	5.430	0.460	-1.160	-0.200
2020/01/31 21:01:54.6	5.470	0.470	-1.180	-0.220
2020/01/31 21:01:54.7	5.510	0.480	-1.190	-0.250
2020/01/31 21:01:54.8	5.540	0.480	-1.190	-0.270
2020/01/31 21:01:54.9	5.580	0.480	-1.190	-0.290
2020/01/31 21:01:55.0	5.620	0.480	-1.190	-0.310
2020/01/31 21:01:55.1	5.660	0.470	-1.180	-0.330
2020/01/31 21:01:55.2	5.700	0.470	-1.170	-0.340
2020/01/31 21:01:55.3	5.740	0.460	-1.150	-0.360
2020/01/31 21:01:55.4	5.780	0.450	-1.120	-0.370
2020/01/31 21:01:55.5	5.820	0.440	-1.090	-0.380
2020/01/31 21:01:55.6	5.860	0.420	-1.060	-0.390
2020/01/31 21:01:55.7	5.890	0.410	-1.020	-0.390
2020/01/31 21:01:55.8	5.920	0.390	-0.970	-0.400
2020/01/31 21:01:55.9	5.960	0.370	-0.920	-0.400
2020/01/31 21:01:56.0	5.990	0.350	-0.860	-0.400
2020/01/31 21:01:56.1	6.020	0.330	-0.800	-0.400
2020/01/31 21:01:56.2	6.040	0.300	-0.730	-0.400
2020/01/31 21:01:56.3	6.070	0.280	-0.660	-0.390
2020/01/31 21:01:56.4	6.090	0.250	-0.590	-0.380
2020/01/31 21:01:56.5	6.110	0.220	-0.510	-0.370
2020/01/31 21:01:56.6	6.130	0.190	-0.430	-0.350
2020/01/31 21:01:56.7	6.150	0.160	-0.340	-0.340
2020/01/31 21:01:56.8	6.160	0.130	-0.260	-0.320
2020/01/31 21:01:56.9	6.160	0.100	-0.170	-0.290
2020/01/31 21:01:57.0	6.170	0.070	-0.080	-0.260
2020/01/31 21:01:57.1	6.170	0.030	0.010	-0.240
2020/01/31 21:01:57.2	6.170	-0.000	0.090	-0.210
2020/01/31 21:01:57.3	6.160	-0.040	0.180	-0.170
2020/01/31 21:01:57.4	6.150	-0.070	0.270	-0.140
2020/01/31 21:01:57.5	6.130	-0.110	0.350	-0.100
2020/01/31 21:01:57.6	6.110	-0.150	0.440	-0.060
2020/01/31 21:01:57.7	6.080	-0.180	0.510	-0.020
2020/01/31 21:01:57.8	6.050	-0.220	0.590	0.020
2020/01/31 21:01:57.9	6.020	-0.250	0.660	0.060
2020/01/31 21:01:58.0	5.980	-0.290	0.720	0.100
2020/01/31 21:01:58.1	5.940	-0.320	0.780	0.140
2020/01/31 21:01:58.2	5.900	-0.350	0.830	0.180
2020/01/31 21:01:58.3	5.860	-0.380	0.870	0.220
2020/01/31 21:01:58.4	5.820	-0.410	0.910	0.260
2020/01/31 21:01:58.5	5.780	-0.440	0.930	0.290
2020/01/31 21:01:58.6	5.730	-0.470	0.950	0.320
2020/01/31 21:01:58.7	5.690	-0.490	0.960	0.350
2020/01/31 21:01:58.8	5.650	-0.510	0.960	0.370
2020/01/31 21:01:58.9	5.610	-0.520	0.950	0.390
2020/01/31 21:01:59.0	5.560	-0.540	0.930	0.410
2020/01/31 21:01:59.1	5.530	-0.540	0.900	0.420
2020/01/31 21:01:59.2	5.500	-0.550	0.860	0.420
2020/01/31 21:01:59.3	5.470	-0.550	0.810	0.420
2020/01/31 21:01:59.4	5.440	-0.550	0.750	0.410
2020/01/31 21:01:59.5	5.420	-0.540	0.680	0.390
2020/01/31 21:01:59.6	5.400	-0.530	0.600	0.380
2020/01/31 21:01:59.7	5.390	-0.510	0.510	0.350
2020/01/31 21:01:59.8	5.380	-0.490	0.420	0.320
2020/01/31 21:01:59.9	5.370	-0.470	0.320	0.290
2020/01/31 21:02:00.0	5.380	-0.440	0.210	0.250
2020/01/31 21:02:00.1	5.380	-0.410	0.100	0.220
2020/01/31 21:02:00.2	5.380	-0.380	-0.010	0.170
2020/01/31 21:02:00.3	5.380	-0.340	-0.120	0.130
2020/01/31 21:02:00.4	5.380	-0.300	-0.230	0.080
2020/01/31 21:02:00.5	5.390	-0.270	-0.340	0.030
2020/01/31 21:02:00.6	5.400	-0.230	-0.450	-0.020
2020/01/31 21:02:00.7	5.410	-0.190	-0.560	-0.070
2020/01/31 21:02:00.8	5.410	-0.140	-0.660	-0.120
2020/01/31 21:02:00.9	5.420	-0.100	-0.760	-0.170
2020/01/31 21:02:01.0	5.430	-0.060	-0.840	-0.220
2020/01/31 21:02:01.1	5.440	-0.030	-0.930	-0.270
2020/01/31 21:02:01.2	5.440	0.010	-1.000	-0.320
2020/01/31 21:02:01.3	5.450	0.050	-1.060	-0.360
2020/01/31 21:02:01.4	5.460	0.080	-1.120	-0.400
2020/01/31 21:02:01.5	5.460	0.110	-1.160	-0.440
2020/01/31 21:02:01.6	5.470	0.140	-1.200	-0.470
2020/01/31 21:02:01.7	5.470	0.160	-1.220	-0.500
2020/01/31 21:02:01.8	5.470	0.190	-1.230	-0.530
2020/01/31 21:02:01.9	5.480	0.210	-1.230	-0.550
2020/01/31 21:02:02.0	5.480	0.220	-1.220	-0.570
2020/01/31 21:02:02.1	5.480	0.230	-1.200	-0.580
2020/01/31 21:02:02.2	5.480	0.240	-1.160	-0.590
2020/01/31 21:02:02.3	5.470	0.250	-1.120	-0.600
2020/01/31 21:02:02.4	5.470	0.250	-1.070	-0.590
2020/01/31 21:02:02.5	5.460	0.250	-1.010	-0.590
2020/01/31 21:02:02.6	5.460	0.250	-0.940	-0.580
2020/01/31 21:02:02.7	5.450	0.240	-0.860	-0.560
2020/01/31 21:02:02.8	5.450	0.230	-0.780	-0.550
2020/01/31 21:02:02.9	5.440	0.220	-0.700	-0.520
2020/01/31 21:02:03.0	5.430	0.200	-0.610	-0.500
2020/01/31 21:02:03.1	5.420	0.190	-0.520	-0.470
2020/01/31 21:02:03.2	5.410	0.170	-0.430	-0.440
2020/01/31 21:02:03.3	5.400	0.150	-0.330	-0.400
2020/01/31 21:02:03.4	5.390	0.140	-0.240	-0.370
2020/01/31 21:02:03.5	5.380	0.120	-0.150	-0.330
2020/01/31 21:02:03.6	5.370	0.100	-0.060	-0.290
2020/01/31 21:02:03.7	5.360	0.080	0.020	-0.250
2020/01/31 21:02:03.8	5.350	0.060	0.100	-0.210
2020/01/31 21:02:03.9	5.330	0.040	0.180	-0.170
2020/01/31 21:02:04.0	5.310	0.020	0.250	-0.130
2020/01/31 21:02:04.1	5.300	0.010	0.310	-0.090
2020/01/31 21:02:04.2	5.290	-0.010	0.360	-0.040
2020/01/31 21:02:04.3	5.270	-0.020	0.410	-0.000
2020/01/31 21:02:04.4	5.260	-0.040	0.450	0.040
2020/01/31 21:02:04.5	5.250	-0.040	0.480	0.080
2020/01/31 21:02:04.6	5.230	-0.050	0.500	0.120
2020/01/31 21:02:04.7	5.220	-0.060	0.500	0.150
2020/01/31 21:02:04.8	5.210	-0.060	0.500	0.190
2020/01/31 21:02:04.9	5.200	-0.060	0.490	0.220
2020/01/31 21:02:05.0	5.190	-0.050	0.470	0.250
2020/01/31 21:02:05.1	5.190	-0.050	0.440	0.280
2020/01/31 21:02:05.2	5.180	-0.040	0.400	0.300
2020/01/31 21:02:05.3	5.180	-0.030	0.350	0.320
2020/01/31 21:02:05.4	5.180	-0.010	0.300	0.330
2020/01/31 21:02:05.5	5.180	0.010	0.240	0.350
2020/01/31 21:02:05.6	5.180	0.030	0.170	0.360
2020/01/31 21:02:05.7	5.190	0.050	0.090	0.360
2020/01/31 21:02:05.8	5.190	0.070	0.010	0.370
2020/01/31 21:02:05.9	5.200	0.100	-0.080	0.370
2020/01/31 21:02:06.0	5.210	0.130	-0.160	0.360
2020/01/31 21:02:06.1	5.220	0.160	-0.250	0.360
2020/01/31 21:02:06.2	5.230	0.190	-0.340	0.350
2020/01/31 21:02:06.3	5.250	0.220	-0.430	0.340
2020/01/31 21:02:06.4	5.260	0.260	-0.520	0.330
2020/01/31 21:02:06.5	5.280	0.290	-0.610	0.320
2020/01/31 21:02:06.6	5.290	0.320	-0.690	0.300
2020/01/31 21:02:06.7	5.310	0.350	-0.770	0.290
2020/01/31 21:02:06.8	5.320	0.380	-0.840	0.270
2020/01/31 21:02:06.9	5.340	0.410	-0.910	0.250
2020/01/31 21:02:07.0	5.380	0.440	-0.970	0.240
2020/01/31 21:02:07.1	5.400	0.460	-1.020	0.220
2020/01/31 21:02:07.2	5.420	0.480	-1.070	0.200
2020/01/31 21:02:07.3	5.440	0.500	-1.100	0.180
2020/01/31 21:02:07.4	5.460	0.520	-1.130	0.160
2020/01/31 21:02:07.5	5.480	0.530	-1.150	0.140
2020/01/31 21:02:07.6	5.500	0.540	-1.170	0.120
2020/01/31 21:02:07.7	5.520	0.550	-1.170	0.100
2020/01/31 21:02:07.8	5.540	0.550	-1.160	0.080
2020/01/31 21:02:07.9	5.560	0.540	-1.150	0.060
2020/01/31 21:02:08.0	5.570	0.530	-1.120	0.040
2020/01/31 21:02:08.1	5.580	0.520	-1.090	0.020
2020/01/31 21:02:08.2	5.590	0.500	-1.040	0.000
2020/01/31 21:02:08.3	5.600	0.480	-1.000	-0.020
2020/01/31 21:02:08.4	5.610	0.450	-0.940	-0.030
2020/01/31 21:02:08.5	5.610	0.420	-0.870	-0.050
2020/01/31 21:02:08.6	5.610	0.380	-0.800	-0.070
2020/01/31 21:02:08.7	5.610	0.340	-0.730	-0.090
2020/01/31 21:02:08.8	5.600	0.290	-0.650	-0.100
2020/01/31 21:02:08.9	5.590	0.240	-0.570	-0.120
2020/01/31 21:02:09.0	5.590	0.190	-0.480	-0.130
2020/01/31 21:02:09.1	5.570	0.130	-0.400	-0.150
2020/01/31 21:02:09.2	5.560	0.070	-0.310	-0.160
2020/01/31 21:02:09.3	5.550	0.010	-0.220	-0.180
2020/01/31 21:02:09.4	5.530	-0.050	-0.130	-0.190
2020/01/31 21:02:09.5	5.510	-0.110	-0.040	-0.210
2020/01/31 21:02:09.6	5.490	-0.170	0.040	-0.220
2020/01/31 21:02:09.7	5.470	-0.240	0.130	-0.240
2020/01/31 21:02:09.8	5.450	-0.300	0.200	-0.260
2020/01/31 21:02:09.9	5.440	-0.360	0.270	-0.270
2020/01/31 21:02:10.0	5.410	-0.420	0.340	-0.290
2020/01/31 21:02:10.1	5.390	-0.480	0.400	-0.310
2020/01/31 21:02:10.2	5.370	-0.530	0.460	-0.330
2020/01/31 21:02:10.3	5.360	-0.580	0.500	-0.350
2020/01/31 21:02:10.4	5.350	-0.630	0.540	-0.380
2020/01/31 21:02:10.5	5.330	-0.670	0.570	-0.400
2020/01/31 21:02:10.6	5.320	-0.710	0.600	-0.420
2020/01/31 21:02:10.7	5.310	-0.740	0.610	-0.450
2020/01/31 21:02:10.8	5.310	-0.770	0.620	-0.470
2020/01/31 21:02:10.9	5.300	-0.790	0.620	-0.500
2020/01/31 21:02:11.0	5.280	-0.810	0.610	-0.530
2020/01/31 21:02:11.1	5.280	-0.820	0.600	-0.550
2020/01/31 21:02:11.2	5.280	-0.820	0.580	-0.580
2020/01/31 21:02:11.3	5.270	-0.820	0.550	-0.600
2020/01/31 21:02:11.4	5.270	-0.820	0.520	-0.620
2020/01/31 21:02:11.5	5.270	-0.800	0.480	-0.640
2020/01/31 21:02:11.6	5.260	-0.790	0.440	-0.660
2020/01/31 21:02:11.7	5.260	-0.760	0.390	-0.670
2020/01/31 21:02:11.8	5.250	-0.740	0.340	-0.680
2020/01/31 21:02:11.9	5.250	-0.700	0.290	-0.680
2020/01/31 21:02:12.0	5.260	-0.660	0.230	-0.680
2020/01/31 21:02:12.1	5.250	-0.620	0.180	-0.680
2020/01/31 21:02:12.2	5.240	-0.570	0.120	-0.680
2020/01/31 21:02:12.3	5.240	-0.530	0.060	-0.670
2020/01/31 21:02:12.4	5.230	-0.470	0.010	-0.650
2020/01/31 21:02:12.5	5.220	-0.420	-0.050	-0.630
2020/01/31 21:02:12.6	5.210	-0.360	-0.110	-0.610
2020/01/31 21:02:12.7	5.200	-0.300	-0.160	-0.580
2020/01/31 21:02:12.8	5.190	-0.240	-0.210	-0.550
2020/01/31 21:02:12.9	5.180	-0.180	-0.270	-0.510
2020/01/31 21:02:13.0	5.180	-0.120	-0.320	-0.470
2020/01/31 21:02:13.1	5.170	-0.050	-0.360	-0.430
2020/01/31 21:02:13.2	5.160	0.010	-0.400	-0.390
2020/01/31 21:02:13.3	5.150	0.070	-0.450	-0.350
2020/01/31 21:02:13.4	5.140	0.130	-0.480	-0.300
2020/01/31 21:02:13.5	5.130	0.190	-0.520	-0.260
2020/01/31 21:02:13.6	5.130	0.240	-0.550	-0.210
2020/01/31 21:02:13.7	5.120	0.300	-0.580	-0.160
2020/01/31 21:02:13.8	5.110	0.350	-0.600	-0.120
2020/01/31 21:02:13.9	5.110	0.400	-0.630	-0.070
2020/01/31 21:02:14.0	5.110	0.450	-0.650	-0.020
2020/01/31 21:02:14.1	5.110	0.490	-0.660	0.030
2020/01/31 21:02:14.2	5.110	0.530	-0.670	0.070
2020/01/31 21:02:14.3	5.110	0.570	-0.680	0.120
2020/01/31 21:02:14.4	5.110	0.600	-0.690	0.170
2020/01/31 21:02:14.5	5.110	0.630	-0.690	0.210
2020/01/31 21:02:14.6	5.110	0.660	-0.690	0.250
2020/01/31 21:02:14.7	5.120	0.680	-0.680	0.300
2020/01/31 21:02:14.8	5.120	0.700	-0.680	0.340
2020/01/31 21:02:14.9	5.130	0.720	-0.660	0.380
2020/01/31 21:02:15.0	5.140	0.730	-0.650	0.420
2020/01/31 21:02:15.1	5.150	0.740	-0.630	0.460
2020/01/31 21:02:15.2	5.150	0.740	-0.610	0.490
2020/01/31 21:02:15.3	5.160	0.740	-0.590	0.530
2020/01/31 21:02:15.4	5.170	0.740	-0.560	0.560
2020/01/31 21:02:15.5	5.180	0.730	-0.520	0.590
2020/01/31 21:02:15.6	5.190	0.720	-0.490	0.620
2020/01/31 21:02:15.7	5.190	0.700	-0.450	0.650
2020/01/31 21:02:15.8	5.200	0.680	-0.410	0.670
2020/01/31 21:02:15.9	5.200	0.650	-0.360	0.700
2020/01/31 21:02:16.0	5.200	0.620	-0.310	0.720
2020/01/31 21:02:16.1	5.200	0.590	-0.270	0.730
2020/01/31 21:02:16.2	5.200	0.550	-0.220	0.750
2020/01/31 21:02:16.3	5.200	0.510	-0.170	0.760
2020/01/31 21:02:16.4	5.190	0.470	-0.120	0.770
2020/01/31 21:02:16.5	5.190	0.420	-0.070	0.770
2020/01/31 21:02:16.6	5.180	0.370	-0.020	0.770
2020/01/31 21:02:16.7	5.170	0.320	0.030	0.770
2020/01/31 21:02:16.8	5.160	0.260	0.070	0.760
2020/01/31 21:02:16.9	5.150	0.200	0.110	0.760
2020/01/31 21:02:17.0	5.140	0.150	0.150	0.750
2020/01/31 21:02:17.1	5.130	0.090	0.180	0.730
2020/01/31 21:02:17.2	5.110	0.020	0.210	0.720
2020/01/31 21:02:17.3	5.100	-0.040	0.230	0.700
2020/01/31 21:02:17.4	5.090	-0.100	0.250	0.670
2020/01/31 21:02:17.5	5.070	-0.150	0.260	0.640
2020/01/31 21:02:17.6	5.060	-0.210	0.270	0.610
2020/01/31 21:02:17.7	5.050	-0.270	0.260	0.580
2020/01/31 21:02:17.8	5.040	-0.320	0.250	0.540
2020/01/31 21:02:17.9	5.030	-0.370	0.240	0.500
2020/01/31 21:02:18.0	5.020	-0.410	0.210	0.450
2020/01/31 21:02:18.1	5.010	-0.450	0.180	0.400
2020/01/31 21:02:18.2	5.010	-0.490	0.140	0.350
2020/01/31 21:02:18.3	5.010	-0.520	0.100	0.290
2020/01/31 21:02:18.4	5.020	-0.550	0.040	0.230
2020/01/31 21:02:18.5	5.020	-0.570	-0.020	0.170
2020/01/31 21:02:18.6	5.030	-0.580	-0.080	0.110
2020/01/31 21:02:18.7	5.040	-0.590	-0.150	0.040
2020/01/31 21:02:18.8	5.060	-0.600	-0.230	-0.020
2020/01/31 21:02:18.9	5.070	-0.590	-0.310	-0.090
2020/01/31 21:02:19.0	5.090	-0.580	-0.390	-0.160
2020/01/31 21:02:19.1	5.110	-0.570	-0.470	-0.220
2020/01/31 21:02:19.2	5.130	-0.550	-0.550	-0.290
2020/01/31 21:02:19.3	5.150	-0.520	-0.630	-0.350
2020/01/31 21:02:19.4	5.170	-0.490	-0.710	-0.420
2020/01/31 21:02:19.5	5.190	-0.450	-0.790	-0.480
2020/01/31 21:02:19.6	5.210	-0.410	-0.860	-0.540
2020/01/31 21:02:19.7	5.230	-0.370	-0.930	-0.590
2020/01/31 21:02:19.8	5.250	-0.320	-0.990	-0.640
2020/01/31 21:02:19.9	5.270	-0.270	-1.050	-0.690
2020/01/31 21:02:20.0	5.300	-0.210	-1.100	-0.740
2020/01/31 21:02:20.1	5.310	-0.160	-1.140	-0.780
2020/01/31 21:02:20.2	5.320	-0.110	-1.170	-0.810
2020/01/31 21:02:20.3	5.340	-0.050	-1.190	-0.850
2020/01/31 21:02:20.4	5.350	0.000	-1.200	-0.870
2020/01/31 21:02:20.5	5.350	0.050	-1.210	-0.900
2020/01/31 21:02:20.6	5.360	0.100	-1.200	-0.910
2020/01/31 21:02:20.7	5.360	0.150	-1.190	-0.930
2020/01/31 21:02:20.8	5.360	0.190	-1.160	-0.930
2020/01/31 21:02:20.9	5.360	0.230	-1.130	-0.940
2020/01/31 21:02:21.0	5.340	0.260	-1.090	-0.930
2020/01/31 21:02:21.1	5.340	0.290	-1.040	-0.920
2020/01/31 21:02:21.2	5.330	0.320	-0.980	-0.910
2020/01/31 21:02:21.3	5.320	0.340	-0.910	-0.900
2020/01/31 21:02:21.4	5.320	0.350	-0.840	-0.880
2020/01/31 21:02:21.5	5.300	0.360	-0.770	-0.850
2020/01/31 21:02:21.6	5.290	0.360	-0.690	-0.830
2020/01/31 21:02:21.7	5.280	0.360	-0.600	-0.800
2020/01/31 21:02:21.8	5.270	0.350	-0.510	-0.770
2020/01/31 21:02:21.9	5.260	0.340	-0.430	-0.730
2020/01/31 21:02:22.0	5.240	0.320	-0.340	-0.700
2020/01/31 21:02:22.1	5.220	0.300	-0.250	-0.660
2020/01/31 21:02:22.2	5.210	0.270	-0.160	-0.620
2020/01/31 21:02:22.3	5.200	0.240	-0.070	-0.580
2020/01/31 21:02:22.4	5.190	0.200	0.010	-0.540
2020/01/31 21:02:22.5	5.190	0.160	0.090	-0.510
2020/01/31 21:02:22.6	5.180	0.120	0.170	-0.470
2020/01/31 21:02:22.7	5.180	0.080	0.240	-0.430
2020/01/31 21:02:22.8	5.170	0.040	0.300	-0.390
2020/01/31 21:02:22.9	5.170	-0.010	0.360	-0.360
2020/01/31 21:02:23.0	5.160	-0.050	0.410	-0.330
2020/01/31 21:02:23.1	5.160	-0.100	0.460	-0.300
2020/01/31 21:02:23.2	5.160	-0.140	0.500	-0.270
2020/01/31 21:02:23.3	5.170	-0.180	0.530	-0.250
2020/01/31 21:02:23.4	5.170	-0.220	0.550	-0.230
2020/01/31 21:02:23.5	5.180	-0.260	0.570	-0.210
2020/01/31 21:02:23.6	5.190	-0.300	0.580	-0.190
2020/01/31 21:02:23.7	5.200	-0.330	0.580	-0.170
2020/01/31 21:02:23.8	5.210	-0.350	0.580	-0.160
2020/01/31 21:02:23.9	5.220	-0.380	0.570	-0.140
2020/01/31 21:02:24.0	5.220	-0.400	0.560	-0.130
2020/01/31 21:02:24.1	5.230	-0.410	0.540	-0.110
2020/01/31 21:02:24.2	5.240	-0.420	0.520	-0.100
2020/01/31 21:02:24.3	5.250	-0.430	0.490	-0.080
2020/01/31 21:02:24.4	5.250	-0.430	0.470	-0.060
2020/01/31 21:02:24.5	5.260	-0.430	0.430	-0.040
2020/01/31 21:02:24.6	5.260	-0.420	0.400	-0.020
2020/01/31 21:02:24.7	5.270	-0.400	0.370	0.000
2020/01/31 21:02:24.8	5.270	-0.390	0.330	0.030
2020/01/31 21:02:24.9	5.270	-0.370	0.300	0.050
2020/01/31 21:02:25.0	5.290	-0.340	0.260	0.080
2020/01/31 21:02:25.1	5.290	-0.310	0.220	0.110
2020/01/31 21:02:25.2	5.290	-0.280	0.190	0.130
2020/01/31 21:02:25.3	5.290	-0.250	0.150	0.160
2020/01/31 21:02:25.4	5.290	-0.210	0.110	0.190
2020/01/31 21:02:25.5	5.290	-0.170	0.070	0.220
2020/01/31 21:02:25.6	5.290	-0.130	0.030	0.250
2020/01/31 21:02:25.7	5.290	-0.090	-0.000	0.270
2020/01/31 21:02:25.8	5.290	-0.040	-0.040	0.300
2020/01/31 21:02:25.9	5.290	0.000	-0.080	0.320
2020/01/31 21:02:26.0	5.290	0.050	-0.120	0.350
2020/01/31 21:02:26.1	5.290	0.090	-0.160	0.370
2020/01/31 21:02:26.2	5.290	0.140	-0.200	0.390
2020/01/31 21:02:26.3	5.290	0.180	-0.230	0.410
2020/01/31 21:02:26.4	5.290	0.220	-0.270	0.430
2020/01/31 21:02:26.5	5.280	0.270	-0.300	0.450
2020/01/31 21:02:26.6	5.270	0.310	-0.330	0.470
2020/01/31 21:02:26.7	5.270	0.340	-0.360	0.490
2020/01/31 21:02:26.8	5.260	0.380	-0.390	0.510
2020/01/31 21:02:26.9	5.240	0.410	-0.410	0.530
2020/01/31 21:02:27.0	5.230	0.440	-0.430	0.550
2020/01/31 21:02:27.1	5.210	0.470	-0.450	0.570
2020/01/31 21:02:27.2	5.190	0.490	-0.460	0.590
2020/01/31 21:02:27.3	5.170	0.510	-0.480	0.600
2020/01/31 21:02:27.4	5.140	0.520	-0.480	0.620
2020/01/31 21:02:27.5	5.110	0.530	-0.490	0.630
2020/01/31 21:02:27.6	5.080	0.540	-0.500	0.640
2020/01/31 21:02:27.7	5.050	0.540	-0.500	0.640
2020/01/31 21:02:27.8	5.020	0.540	-0.500	0.640
2020/01/31 21:02:27.9	4.990	0.540	-0.500	0.630
2020/01/31 21:02:28.0	4.950	0.530	-0.500	0.630
2020/01/31 21:02:28.1	4.920	0.520	-0.490	0.610
2020/01/31 21:02:28.2	4.890	0.500	-0.490	0.590
2020/01/31 21:02:28.3	4.860	0.480	-0.490	0.560
2020/01/31 21:02:28.4	4.830	0.460	-0.490	0.530
2020/01/31 21:02:28.5	4.810	0.440	-0.480	0.490
2020/01/31 21:02:28.6	4.790	0.410	-0.480	0.450
2020/01/31 21:02:28.7	4.770	0.380	-0.490	0.400
2020/01/31 21:02:28.8	4.760	0.350	-0.490	0.340
2020/01/31 21:02:28.9	4.750	0.320	-0.500	0.280
2020/01/31 21:02:29.0	4.750	0.280	-0.500	0.210
2020/01/31 21:02:29.1	4.750	0.250	-0.510	0.140
2020/01/31 21:02:29.2	4.760	0.210	-0.520	0.060
2020/01/31 21:02:29.3	4.770	0.170	-0.540	-0.020
2020/01/31 21:02:29.4	4.790	0.140	-0.560	-0.100
2020/01/31 21:02:29.5	4.810	0.100	-0.580	-0.190
2020/01/31 21:02:29.6	4.840	0.070	-0.600	-0.280
2020/01/31 21:02:29.7	4.870	0.030	-0.620	-0.380
2020/01/31 21:02:29.8	4.900	-0.000	-0.650	-0.480
2020/01/31 21:02:29.9	4.940	-0.030	-0.670	-0.570
2020/01/31 21:02:30.0	4.980	-0.060	-0.700	-0.670
2020/01/31 21:02:30.1	5.030	-0.090	-0.730	-0.770
2020/01/31 21:02:30.2	5.080	-0.120	-0.750	-0.870
2020/01/31 21:02:30.3	5.140	-0.150	-0.780	-0.970
2020/01/31 21:02:30.4	5.190	-0.180	-0.800	-1.070
2020/01/31 21:02:30.5	5.250	-0.200	-0.820	-1.160
2020/01/31 21:02:30.6	5.310	-0.220	-0.830	-1.250
2020/01/31 21:02:30.7	5.370	-0.240	-0.840	-1.340
2020/01/31 21:02:30.8	5.430	-0.260	-0.850	-1.420
2020/01/31 21:02:30.9	5.490	-0.280	-0.850	-1.490
2020/01/31 21:02:31.0	5.540	-0.300	-0.860	-1.570
2020/01/31 21:02:31.1	5.600	-0.310	-0.850	-1.630
2020/01/31 21:02:31.2	5.660	-0.330	-0.830	-1.680
2020/01/31 21:02:31.3	5.720	-0.340	-0.810	-1.730
2020/01/31 21:02:31.4	5.770	-0.350	-0.780	-1.770
2020/01/31 21:02:31.5	5.820	-0.360	-0.740	-1.800
2020/01/31 21:02:31.6	5.870	-0.360	-0.700	-1.820
2020/01/31 21:02:31.7	5.920	-0.370	-0.650	-1.830
2020/01/31 21:02:31.8	5.960	-0.380	-0.600	-1.830
2020/01/31 21:02:31.9	5.990	-0.380	-0.540	-1.820
2020/01/31 21:02:32.0	6.020	-0.380	-0.470	-1.800
2020/01/31 21:02:32.1	6.040	-0.390	-0.400	-1.770
2020/01/31 21:02:32.2	6.070	-0.390	-0.320	-1.740
2020/01/31 21:02:32.3	6.080	-0.390	-0.240	-1.700
2020/01/31 21:02:32.4	6.090	-0.390	-0.160	-1.650
2020/01/31 21:02:32.5	6.100	-0.390	-0.080	-1.590
2020/01/31 21:02:32.6	6.100	-0.390	0.000	-1.530
2020/01/31 21:02:32.7	6.100	-0.390	0.080	-1.460
2020/01/31 21:02:32.8	6.090	-0.380	0.160	-1.380
2020/01/31 21:02:32.9	6.080	-0.380	0.240	-1.300
2020/01/31 21:02:33.0	6.070	-0.380	0.310	-1.210
2020/01/31 21:02:33.1	6.050	-0.370	0.380	-1.120
2020/01/31 21:02:33.2	6.030	-0.360	0.440	-1.030
2020/01/31 21:02:33.3	6.000	-0.360	0.500	-0.930
2020/01/31 21:02:33.4	5.980	-0.350	0.550	-0.840
2020/01/31 21:02:33.5	5.950	-0.340	0.590	-0.740
2020/01/31 21:02:33.6	5.920	-0.320	0.630	-0.640
2020/01/31 21:02:33.7	5.890	-0.310	0.650	-0.540
2020/01/31 21:02:33.8	5.860	-0.300	0.670	-0.450
2020/01/31 21:02:33.9	5.830	-0.280	0.670	-0.350
2020/01/31 21:02:34.0	5.790	-0.260	0.670	-0.250
2020/01/31 21:02:34.1	5.760	-0.240	0.650	-0.160
2020/01/31 21:02:34.2	5.740	-0.210	0.630	-0.080
2020/01/31 21:02:34.3	5.710	-0.190	0.600	0.000
2020/01/31 21:02:34.4	5.680	-0.160	0.560	0.080
2020/01/31 21:02:34.5	5.660	-0.130	0.500	0.150
2020/01/31 21:02:34.6	5.640	-0.100	0.440	0.210
2020/01/31 21:02:34.7	5.620	-0.070	0.380	0.270
2020/01/31 21:02:34.8	5.600	-0.030	0.300	0.320
2020/01/31 21:02:34.9	5.590	0.000	0.220	0.360
2020/01/31 21:02:35.0	5.570	0.040	0.140	0.400
2020/01/31 21:02:35.1	5.560	0.080	0.050	0.440
2020/01/31 21:02:35.2	5.550	0.120	-0.040	0.460
2020/01/31 21:02:35.3	5.540	0.160	-0.140	0.490
2020/01/31 21:02:35.4	5.540	0.200	-0.230	0.510
2020/01/31 21:02:35.5	5.530	0.240	-0.330	0.520
2020/01/31 21:02:35.6	5.530	0.280	-0.420	0.530
2020/01/31 21:02:35.7	5.530	0.320	-0.510	0.540
2020/01/31 21:02:35.8	5.520	0.360	-0.600	0.540
2020/01/31 21:02:35.9	5.520	0.400	-0.680	0.540
2020/01/31 21:02:36.0	5.520	0.430	-0.760	0.540
2020/01/31 21:02:36.1	5.520	0.460	-0.830	0.540
2020/01/31 21:02:36.2	5.520	0.490	-0.890	0.530
2020/01/31 21:02:36.3	5.520	0.520	-0.940	0.520
2020/01/31 21:02:36.4	5.520	0.550	-0.990	0.510
2020/01/31 21:02:36.5	5.510	0.570	-1.020	0.500
2020/01/31 21:02:36.6	5.510	0.580	-1.050	0.480
2020/01/31 21:02:36.7	5.510	0.600	-1.070	0.460
2020/01/31 21:02:36.8	5.510	0.600	-1.080	0.450
2020/01/31 21:02:36.9	5.510	0.610	-1.070	0.420
2020/01/31 21:02:37.0	5.520	0.610	-1.060	0.400
2020/01/31 21:02:37.1	5.520	0.600	-1.040	0.380
2020/01/31 21:02:37.2	5.520	0.590	-1.010	0.350
2020/01/31 21:02:37.3	5.520	0.580	-0.970	0.320
2020/01/31 21:02:37.4	5.510	0.560	-0.930	0.290
2020/01/31 21:02:37.5	5.510	0.540	-0.880	0.260
2020/01/31 21:02:37.6	5.510	0.510	-0.820	0.230
2020/01/31 21:02:37.7	5.500	0.480	-0.750	0.190
2020/01/31 21:02:37.8	5.500	0.450	-0.680	0.160
2020/01/31 21:02:37.9	5.500	0.410	-0.610	0.130
2020/01/31 21:02:38.0	5.500	0.370	-0.530	0.090
2020/01/31 21:02:38.1	5.500	0.320	-0.450	0.060
2020/01/31 21:02:38.2	5.500	0.280	-0.370	0.020
2020/01/31 21:02:38.3	5.500	0.230	-0.280	-0.010
2020/01/31 21:02:38.4	5.500	0.180	-0.200	-0.050
2020/01/31 21:02:38.5	5.500	0.130	-0.120	-0.080
2020/01/31 21:02:38.6	5.500	0.080	-0.040	-0.110
2020/01/31 21:02:38.7	5.500	0.030	0.040	-0.150
2020/01/31 21:02:38.8	5.510	-0.020	0.110	-0.180
2020/01/31 21:02:38.9	5.510	-0.070	0.180	-0.210
2020/01/31 21:02:39.0	5.520	-0.120	0.240	-0.240
2020/01/31 21:02:39.1	5.520	-0.160	0.300	-0.270
2020/01/31 21:02:39.2	5.530	-0.210	0.350	-0.300
2020/01/31 21:02:39.3	5.540	-0.250	0.400	-0.330
2020/01/31 21:02:39.4	5.540	-0.290	0.440	-0.360
2020/01/31 21:02:39.5	5.550	-0.320	0.470	-0.380
2020/01/31 21:02:39.6	5.560	-0.350	0.500	-0.410
2020/01/31 21:02:39.7	5.570	-0.380	0.520	-0.430
2020/01/31 21:02:39.8	5.580	-0.410	0.530	-0.450
2020/01/31 21:02:39.9	5.590	-0.430	0.530	-0.480
2020/01/31 21:02:40.0	5.610	-0.450	0.520	-0.500
2020/01/31 21:02:40.1	5.620	-0.460	0.510	-0.520
2020/01/31 21:02:40.2	5.630	-0.470	0.490	-0.530
2020/01/31 21:02:40.3	5.640	-0.480	0.470	-0.550
2020/01/31 21:02:40.4	5.650	-0.480	0.430	-0.570
2020/01/31 21:02:40.5	5.660	-0.480	0.400	-0.580
2020/01/31 21:02:40.6	5.670	-0.470	0.350	-0.600
2020/01/31 21:02:40.7	5.680	-0.470	0.300	-0.610
2020/01/31 21:02:40.8	5.690	-0.450	0.250	-0.620
2020/01/31 21:02:40.9	5.700	-0.440	0.200	-0.630
2020/01/31 21:02:41.0	5.710	-0.420	0.140	-0.640
2020/01/31 21:02:41.1	5.720	-0.410	0.070	-0.650
2020/01/31 21:02:41.2	5.720	-0.390	0.010	-0.650
2020/01/31 21:02:41.3	5.730	-0.360	-0.050	-0.650
2020/01/31 21:02:41.4	5.740	-0.340	-0.120	-0.650
2020/01/31 21:02:41.5	5.740	-0.320	-0.180	-0.650
2020/01/31 21:02:41.6	5.740	-0.290	-0.250	-0.650
2020/01/31 21:02:41.7	5.740	-0.260	-0.310	-0.640
2020/01/31 21:02:41.8	5.740	-0.240	-0.370	-0.630
2020/01/31 21:02:41.9	5.740	-0.210	-0.440	-0.620
2020/01/31 21:02:42.0	5.730	-0.190	-0.490	-0.600
2020/01/31 21:02:42.1	5.730	-0.160	-0.550	-0.590
2020/01/31 21:02:42.2	5.720	-0.140	-0.600	-0.570
2020/01/31 21:02:42.3	5.720	-0.110	-0.650	-0.550
2020/01/31 21:02:42.4	5.710	-0.090	-0.700	-0.530
2020/01/31 21:02:42.5	5.710	-0.070	-0.740	-0.510
2020/01/31 21:02:42.6	5.700	-0.050	-0.780	-0.490
2020/01/31 21:02:42.7	5.700	-0.030	-0.810	-0.470
2020/01/31 21:02:42.8	5.690	-0.010	-0.840	-0.450
2020/01/31 21:02:42.9	5.690	0.000	-0.870	-0.420
2020/01/31 21:02:43.0	5.690	0.020	-0.890	-0.400
2020/01/31 21:02:43.1	5.690	0.030	-0.900	-0.380
2020/01/31 21:02:43.2	5.690	0.040	-0.920	-0.360
2020/01/31 21:02:43.3	5.690	0.050	-0.920	-0.340
2020/01/31 21:02:43.4	5.690	0.060	-0.920	-0.320
2020/01/31 21:02:43.5	5.690	0.070	-0.920	-0.300
2020/01/31 21:02:43.6	5.700	0.080	-0.910	-0.280
2020/01/31 21:02:43.7	5.700	0.090	-0.900	-0.260
2020/01/31 21:02:43.8	5.710	0.090	-0.890	-0.240
2020/01/31 21:02:43.9	5.710	0.100	-0.860	-0.230
2020/01/31 21:02:44.0	5.730	0.100	-0.840	-0.210
2020/01/31 21:02:44.1	5.740	0.110	-0.810	-0.190
2020/01/31 21:02:44.2	5.750	0.110	-0.770	-0.180
2020/01/31 21:02:44.3	5.760	0.120	-0.730	-0.160
2020/01/31 21:02:44.4	5.770	0.120	-0.690	-0.140
2020/01/31 21:02:44.5	5.770	0.120	-0.640	-0.120
2020/01/31 21:02:44.6	5.780	0.130	-0.590	-0.100
2020/01/31 21:02:44.7	5.790	0.130	-0.540	-0.080
2020/01/31 21:02:44.8	5.800	0.140	-0.480	-0.050
2020/01/31 21:02:44.9	5.800	0.140	-0.430	-0.030
2020/01/31 21:02:45.0	5.810	0.150	-0.370	0.000
2020/01/31 21:02:45.1	5.810	0.160	-0.310	0.030
2020/01/31 21:02:45.2	5.820	0.160	-0.250	0.060
2020/01/31 21:02:45.3	5.820	0.170	-0.190	0.100
2020/01/31 21:02:45.4	5.820	0.180	-0.130	0.130
2020/01/31 21:02:45.5	5.830	0.190	-0.070	0.170
2020/01/31 21:02:45.6	5.830	0.200	-0.010	0.210
2020/01/31 21:02:45.7	5.830	0.210	0.050	0.250
2020/01/31 21:02:45.8	5.830	0.220	0.100	0.290
2020/01/31 21:02:45.9	5.820	0.230	0.150	0.340
2020/01/31 21:02:46.0	5.810	0.240	0.200	0.380
2020/01/31 21:02:46.1	5.800	0.250	0.240	0.420
2020/01/31 21:02:46.2	5.800	0.260	0.280	0.470
2020/01/31 21:02:46.3	5.790	0.270	0.320	0.510
2020/01/31 21:02:46.4	5.780	0.280	0.340	0.550
2020/01/31 21:02:46.5	5.770	0.280	0.370	0.590
2020/01/31 21:02:46.6	5.760	0.290	0.390	0.620
2020/01/31 21:02:46.7	5.750	0.300	0.400	0.650
2020/01/31 21:02:46.8	5.740	0.300	0.400	0.680
2020/01/31 21:02:46.9	5.730	0.310	0.400	0.710
2020/01/31 21:02:47.0	5.730	0.310	0.390	0.730
2020/01/31 21:02:47.1	5.720	0.310	0.380	0.740
2020/01/31 21:02:47.2	5.710	0.310	0.360	0.750
2020/01/31 21:02:47.3	5.700	0.310	0.330	0.750
2020/01/31 21:02:47.4	5.700	0.310	0.300	0.740
2020/01/31 21:02:47.5	5.690	0.300	0.260	0.730
2020/01/31 21:02:47.6	5.680	0.300	0.210	0.720
2020/01/31 21:02:47.7	5.680	0.290	0.160	0.700
2020/01/31 21:02:47.8	5.670	0.280	0.110	0.670
2020/01/31 21:02:47.9	5.670	0.270	0.050	0.640
2020/01/31 21:02:48.0	5.660	0.260	-0.010	0.600
2020/01/31 21:02:48.1	5.660	0.250	-0.070	0.560
2020/01/31 21:02:48.2	5.650	0.230	-0.140	0.520
2020/01/31 21:02:48.3	5.650	0.220	-0.210	0.470
2020/01/31 21:02:48.4	5.650	0.200	-0.280	0.430
2020/01/31 21:02:48.5	5.650	0.190	-0.340	0.380
2020/01/31 21:02:48.6	5.650	0.170	-0.410	0.330
2020/01/31 21:02:48.7	5.650	0.150	-0.480	0.280
2020/01/31 21:02:48.8	5.650	0.130	-0.540	0.220
2020/01/31 21:02:48.9	5.660	0.110	-0.600	0.170
2020/01/31 21:02:49.0	5.670	0.080	-0.650	0.110
2020/01/31 21:02:49.1	5.670	0.060	-0.700	0.060
2020/01/31 21:02:49.2	5.680	0.040	-0.750	0.010
2020/01/31 21:02:49.3	5.690	0.010	-0.790	-0.050
2020/01/31 21:02:49.4	5.690	-0.010	-0.830	-0.110
2020/01/31 21:02:49.5	5.700	-0.040	-0.860	-0.160
2020/01/31 21:02:49.6	5.710	-0.060	-0.890	-0.220
2020/01/31 21:02:49.7	5.720	-0.090	-0.910	-0.270
2020/01/31 21:02:49.8	5.730	-0.120	-0.920	-0.330
2020/01/31 21:02:49.9	5.750	-0.140	-0.930	-0.380
2020/01/31 21:02:50.0	5.760	-0.170	-0.930	-0.440
2020/01/31 21:02:50.1	5.780	-0.190	-0.930	-0.490
2020/01/31 21:02:50.2	5.800	-0.220	-0.920	-0.540
2020/01/31 21:02:50.3	5.810	-0.240	-0.900	-0.590
2020/01/31 21:02:50.4	5.830	-0.260	-0.880	-0.640
2020/01/31 21:02:50.5	5.850	-0.280	-0.850	-0.690
2020/01/31 21:02:50.6	5.870	-0.300	-0.820	-0.730
2020/01/31 21:02:50.7	5.890	-0.320	-0.780	-0.770
2020/01/31 21:02:50.8	5.910	-0.330	-0.740	-0.800
2020/01/31 21:02:50.9	5.930	-0.350	-0.690	-0.830
2020/01/31 21:02:51.0	5.930	-0.360	-0.650	-0.860
2020/01/31 21:02:51.1	5.950	-0.370	-0.590	-0.880
2020/01/31 21:02:51.2	5.970	-0.370	-0.530	-0.900
2020/01/31 21:02:51.3	5.990	-0.370	-0.470	-0.910
2020/01/31 21:02:51.4	6.000	-0.380	-0.410	-0.910
2020/01/31 21:02:51.5	6.020	-0.370	-0.340	-0.910
2020/01/31 21:02:51.6	6.030	-0.370	-0.280	-0.900
2020/01/31 21:02:51.7	6.040	-0.360	-0.210	-0.890
2020/01/31 21:02:51.8	6.060	-0.350	-0.140	-0.870
2020/01/31 21:02:51.9	6.070	-0.340	-0.080	-0.840
2020/01/31 21:02:52.0	6.060	-0.320	-0.010	-0.810
2020/01/31 21:02:52.1	6.070	-0.310	0.050	-0.780
2020/01/31 21:02:52.2	6.080	-0.290	0.110	-0.740
2020/01/31 21:02:52.3	6.080	-0.270	0.170	-0.690
2020/01/31 21:02:52.4	6.080	-0.240	0.220	-0.650
2020/01/31 21:02:52.5	6.080	-0.220	0.270	-0.600
2020/01/31 21:02:52.6	6.080	-0.190	0.310	-0.550
2020/01/31 21:02:52.7	6.070	-0.170	0.350	-0.490
2020/01/31 21:02:52.8	6.070	-0.140	0.380	-0.440
2020/01/31 21:02:52.9	6.070	-0.110	0.410	-0.390
2020/01/31 21:02:53.0	6.060	-0.080	0.420	-0.330
2020/01/31 21:02:53.1	6.050	-0.050	0.440	-0.280
2020/01/31 21:02:53.2	6.050	-0.020	0.450	-0.230
2020/01/31 21:02:53.3	6.040	0.010	0.450	-0.180
2020/01/31 21:02:53.4	6.030	0.040	0.440	-0.130
2020/01/31 21:02:53.5	6.020	0.070	0.430	-0.090
2020/01/31 21:02:53.6	6.010	0.100	0.410	-0.050
2020/01/31 21:02:53.7	6.000	0.120	0.390	-0.000
2020/01/31 21:02:53.8	5.990	0.150	0.360	0.030
2020/01/31 21:02:53.9	5.980	0.170	0.330	0.070
2020/01/31 21:02:54.0	5.980	0.200	0.300	0.110
2020/01/31 21:02:54.1	5.970	0.220	0.260	0.140
2020/01/31 21:02:54.2	5.950	0.240	0.220	0.170
2020/01/31 21:02:54.3	5.940	0.250	0.180	0.200
2020/01/31 21:02:54.4	5.920	0.270	0.130	0.230
2020/01/31 21:02:54.5	5.910	0.280	0.090	0.260
2020/01/31 21:02:54.6	5.890	0.290	0.040	0.280
2020/01/31 21:02:54.7	5.870	0.290	-0.000	0.310
2020/01/31 21:02:54.8	5.850	0.300	-0.050	0.330
2020/01/31 21:02:54.9	5.830	0.300	-0.090	0.340
2020/01/31 21:02:55.0	5.810	0.300	-0.130	0.360
2020/01/31 21:02:55.1	5.800	0.290	-0.170	0.380
2020/01/31 21:02:55.2	5.780	0.280	-0.210	0.380
2020/01/31 21:02:55.3	5.770	0.270	-0.250	0.390
2020/01/31 21:02:55.4	5.760	0.260	-0.280	0.390
2020/01/31 21:02:55.5	5.750	0.240	-0.310	0.390
2020/01/31 21:02:55.6	5.740	0.230	-0.340	0.380
2020/01/31 21:02:55.7	5.740	0.210	-0.370	0.370
2020/01/31 21:02:55.8	5.740	0.180	-0.400	0.350
2020/01/31 21:02:55.9	5.740	0.160	-0.430	0.330
2020/01/31 21:02:56.0	5.750	0.140	-0.450	0.310
2020/01/31 21:02:56.1	5.760	0.110	-0.470	0.280
2020/01/31 21:02:56.2	5.770	0.090	-0.490	0.250
2020/01/31 21:02:56.3	5.780	0.060	-0.510	0.210
2020/01/31 21:02:56.4	5.800	0.040	-0.530	0.170
2020/01/31 21:02:56.5	5.830	0.010	-0.540	0.130
2020/01/31 21:02:56.6	5.850	-0.010	-0.560	0.080
2020/01/31 21:02:56.7	5.880	-0.040	-0.570	0.030
2020/01/31 21:02:56.8	5.920	-0.060	-0.580	-0.020
2020/01/31 21:02:56.9	5.950	-0.090	-0.600	-0.080
2020/01/31 21:02:57.0	5.990	-0.110	-0.610	-0.130
2020/01/31 21:02:57.1	6.030	-0.130	-0.610	-0.190
2020/01/31 21:02:57.2	6.070	-0.150	-0.620	-0.250
2020/01/31 21:02:57.3	6.110	-0.170	-0.630	-0.300
2020/01/31 21:02:57.4	6.150	-0.190	-0.630	-0.350
2020/01/31 21:02:57.5	6.190	-0.200	-0.630	-0.410
2020/01/31 21:02:57.6	6.230	-0.220	-0.630	-0.450
2020/01/31 21:02:57.7	6.260	-0.230	-0.620	-0.500
2020/01/31 21:02:57.8	6.300	-0.250	-0.620	-0.540
2020/01/31 21:02:57.9	6.320	-0.260	-0.610	-0.570
2020/01/31 21:02:58.0	6.350	-0.270	-0.590	-0.600
2020/01/31 21:02:58.1	6.370	-0.280	-0.580	-0.620
2020/01/31 21:02:58.2	6.390	-0.290	-0.560	-0.640
2020/01/31 21:02:58.3	6.410	-0.290	-0.540	-0.650
2020/01/31 21:02:58.4	6.420	-0.300	-0.520	-0.660
2020/01/31 21:02:58.5	6.430	-0.300	-0.490	-0.660
2020/01/31 21:02:58.6	6.430	-0.300	-0.470	-0.660
2020/01/31 21:02:58.7	6.430	-0.310	-0.440	-0.650
2020/01/31 21:02:58.8	6.430	-0.310	-0.410	-0.630
2020/01/31 21:02:58.9	6.420	-0.300	-0.390	-0.620
2020/01/31 21:02:59.0	6.420	-0.300	-0.360	-0.590
2020/01/31 21:02:59.1	6.410	-0.300	-0.330	-0.570
2020/01/31 21:02:59.2	6.400	-0.290	-0.310	-0.550
2020/01/31 21:02:59.3	6.380	-0.290	-0.280	-0.520
2020/01/31 21:02:59.4	6.360	-0.280	-0.260	-0.490
2020/01/31 21:02:59.5	6.340	-0.270	-0.240	-0.460
2020/01/31 21:02:59.6	6.320	-0.260	-0.230	-0.430
2020/01/31 21:02:59.7	6.300	-0.240	-0.210	-0.390
2020/01/31 21:02:59.8	6.270	-0.230	-0.200	-0.360
2020/01/31 21:02:59.9	6.240	-0.220	-0.200	-0.330
2020/01/31 21:03:00.0	6.210	-0.200	-0.190	-0.300
2020/01/31 21:03:00.1	6.180	-0.180	-0.190	-0.260
2020/01/31 21:03:00.2	6.150	-0.160	-0.190	-0.230
2020/01/31 21:03:00.3	6.120	-0.140	-0.200	-0.200
2020/01/31 21:03:00.4	6.090	-0.120	-0.200	-0.170
2020/01/31 21:03:00.5	6.050	-0.090	-0.210	-0.130
2020/01/31 21:03:00.6	6.020	-0.070	-0.220	-0.100
2020/01/31 21:03:00.7	5.980	-0.040	-0.230	-0.080
2020/01/31 21:03:00.8	5.950	-0.020	-0.250	-0.050
2020/01/31 21:03:00.9	5.920	0.010	-0.260	-0.020
2020/01/31 21:03:01.0	5.880	0.040	-0.270	0.010
2020/01/31 21:03:01.1	5.850	0.070	-0.290	0.030
2020/01/31 21:03:01.2	5.820	0.100	-0.310	0.050
2020/01/31 21:03:01.3	5.790	0.130	-0.320	0.070
2020/01/31 21:03:01.4	5.760	0.160	-0.340	0.090
2020/01/31 21:03:01.5	5.730	0.190	-0.350	0.100
2020/01/31 21:03:01.6	5.710	0.220	-0.370	0.110
2020/01/31 21:03:01.7	5.680	0.260	-0.380	0.130
2020/01/31 21:03:01.8	5.660	0.290	-0.390	0.140
2020/01/31 21:03:01.9	5.650	0.320	-0.410	0.140
2020/01/31 21:03:02.0	5.630	0.350	-0.420	0.150
2020/01/31 21:03:02.1	5.610	0.380	-0.430	0.150
2020/01/31 21:03:02.2	5.600	0.410	-0.440	0.150
2020/01/31 21:03:02.3	5.600	0.440	-0.440	0.150
2020/01/31 21:03:02.4	5.600	0.460	-0.450	0.150
2020/01/31 21:03:02.5	5.600	0.490	-0.450	0.140
2020/01/31 21:03:02.6	5.600	0.510	-0.450	0.130
2020/01/31 21:03:02.7	5.610	0.530	-0.450	0.120
2020/01/31 21:03:02.8	5.620	0.550	-0.450	0.110
2020/01/31 21:03:02.9	5.630	0.560	-0.450	0.100
2020/01/31 21:03:03.0	5.650	0.580	-0.440	0.080
2020/01/31 21:03:03.1	5.670	0.590	-0.430	0.070
2020/01/31 21:03:03.2	5.700	0.590	-0.420	0.050
2020/01/31 21:03:03.3	5.730	0.600	-0.410	0.030
2020/01/31 21:03:03.4	5.750	0.600	-0.390	0.010
2020/01/31 21:03:03.5	5.790	0.600	-0.380	-0.010
2020/01/31 21:03:03.6	5.820	0.590	-0.360	-0.040
2020/01/31 21:03:03.7	5.860	0.580	-0.340	-0.060
2020/01/31 21:03:03.8	5.890	0.570	-0.320	-0.080
2020/01/31 21:03:03.9	5.930	0.550	-0.300	-0.110
2020/01/31 21:03:04.0	5.970	0.530	-0.280	-0.130
2020/01/31 21:03:04.1	6.010	0.510	-0.250	-0.150
2020/01/31 21:03:04.2	6.050	0.480	-0.220	-0.180
2020/01/31 21:03:04.3	6.090	0.450	-0.190	-0.200
2020/01/31 21:03:04.4	6.120	0.420	-0.160	-0.210
2020/01/31 21:03:04.5	6.160	0.390	-0.120	-0.230
2020/01/31 21:03:04.6	6.190	0.350	-0.090	-0.240
2020/01/31 21:03:04.7	6.220	0.310	-0.050	-0.250
2020/01/31 21:03:04.8	6.260	0.260	-0.010	-0.260
2020/01/31 21:03:04.9	6.280	0.220	0.030	-0.270
2020/01/31 21:03:05.0	6.300	0.170	0.070	-0.270
2020/01/31 21:03:05.1	6.330	0.120	0.100	-0.270
2020/01/31 21:03:05.2	6.350	0.070	0.140	-0.270
2020/01/31 21:03:05.3	6.370	0.020	0.180	-0.270
2020/01/31 21:03:05.4	6.390	-0.030	0.210	-0.260
2020/01/31 21:03:05.5	6.400	-0.080	0.240	-0.250
2020/01/31 21:03:05.6	6.420	-0.130	0.270	-0.240
2020/01/31 21:03:05.7	6.430	-0.180	0.300	-0.230
2020/01/31 21:03:05.8	6.440	-0.230	0.320	-0.220
2020/01/31 21:03:05.9	6.450	-0.280	0.340	-0.210
2020/01/31 21:03:06.0	6.460	-0.330	0.350	-0.190
2020/01/31 21:03:06.1	6.470	-0.380	0.360	-0.170
2020/01/31 21:03:06.2	6.470	-0.420	0.370	-0.160
2020/01/31 21:03:06.3	6.470	-0.470	0.370	-0.150
2020/01/31 21:03:06.4	6.470	-0.510	0.360	-0.130
2020/01/31 21:03:06.5	6.470	-0.550	0.350	-0.120
2020/01/31 21:03:06.6	6.460	-0.580	0.340	-0.110
2020/01/31 21:03:06.7	6.450	-0.610	0.320	-0.100
2020/01/31 21:03:06.8	6.440	-0.640	0.300	-0.090
2020/01/31 21:03:06.9	6.430	-0.670	0.270	-0.090
2020/01/31 21:03:07.0	6.420	-0.690	0.230	-0.080
2020/01/31 21:03:07.1	6.400	-0.700	0.200	-0.080
2020/01/31 21:03:07.2	6.380	-0.720	0.160	-0.070
2020/01/31 21:03:07.3	6.370	-0.730	0.120	-0.070
2020/01/31 21:03:07.4	6.350	-0.730	0.080	-0.070
2020/01/31 21:03:07.5	6.330	-0.730	0.030	-0.070
2020/01/31 21:03:07.6	6.310	-0.730	-0.010	-0.070
2020/01/31 21:03:07.7	6.280	-0.720	-0.060	-0.070
2020/01/31 21:03:07.8	6.260	-0.710	-0.110	-0.080
2020/01/31 21:03:07.9	6.240	-0.700	-0.150	-0.080
2020/01/31 21:03:08.0	6.220	-0.680	-0.200	-0.090
2020/01/31 21:03:08.1	6.200	-0.660	-0.240	-0.090
2020/01/31 21:03:08.2	6.170	-0.640	-0.280	-0.100
2020/01/31 21:03:08.3	6.150	-0.610	-0.320	-0.100
2020/01/31 21:03:08.4	6.120	-0.580	-0.360	-0.110
2020/01/31 21:03:08.5	6.100	-0.550	-0.390	-0.120
2020/01/31 21:03:08.6	6.070	-0.520	-0.420	-0.120
2020/01/31 21:03:08.7	6.040	-0.490	-0.450	-0.130
2020/01/31 21:03:08.8	6.020	-0.450	-0.470	-0.130
2020/01/31 21:03:08.9	5.990	-0.410	-0.480	-0.140
2020/01/31 21:03:09.0	5.970	-0.380	-0.500	-0.140
2020/01/31 21:03:09.1	5.940	-0.340	-0.510	-0.150
2020/01/31 21:03:09.2	5.920	-0.300	-0.510	-0.150
2020/01/31 21:03:09.3	5.890	-0.260	-0.510	-0.150
2020/01/31 21:03:09.4	5.870	-0.230	-0.510	-0.150
2020/01/31 21:03:09.5	5.840	-0.190	-0.500	-0.140
2020/01/31 21:03:09.6	5.820	-0.160	-0.490	-0.140
2020/01/31 21:03:09.7	5.800	-0.120	-0.470	-0.130
2020/01/31 21:03:09.8	5.780	-0.090	-0.460	-0.120
2020/01/31 21:03:09.9	5.760	-0.060	-0.440	-0.110
2020/01/31 21:03:10.0	5.770	-0.020	-0.420	-0.100
2020/01/31 21:03:10.1	5.750	0.000	-0.400	-0.090
2020/01/31 21:03:10.2	5.740	0.030	-0.380	-0.080
2020/01/31 21:03:10.3	5.740	0.060	-0.360	-0.060
2020/01/31 21:03:10.4	5.730	0.080	-0.340	-0.050
2020/01/31 21:03:10.5	5.730	0.110	-0.330	-0.030
2020/01/31 21:03:10.6	5.730	0.130	-0.310	-0.020
2020/01/31 21:03:10.7	5.730	0.150	-0.300	-0.010
2020/01/31 21:03:10.8	5.740	0.160	-0.290	0.010
2020/01/31 21:03:10.9	5.740	0.180	-0.280	0.020
2020/01/31 21:03:11.0	5.760	0.190	-0.280	0.030
2020/01/31 21:03:11.1	5.770	0.210	-0.280	0.040
2020/01/31 21:03:11.2	5.780	0.220	-0.280	0.050
2020/01/31 21:03:11.3	5.800	0.230	-0.280	0.050
2020/01/31 21:03:11.4	5.810	0.240	-0.290	0.060
2020/01/31 21:03:11.5	5.830	0.240	-0.310	0.060
2020/01/31 21:03:11.6	5.850	0.250	-0.320	0.060
2020/01/31 21:03:11.7	5.860	0.250	-0.340	0.060
2020/01/31 21:03:11.8	5.880	0.260	-0.360	0.060
2020/01/31 21:03:11.9	5.900	0.260	-0.380	0.060
2020/01/31 21:03:12.0	5.890	0.270	-0.410	0.050
2020/01/31 21:03:12.1	5.910	0.270	-0.430	0.050
2020/01/31 21:03:12.2	5.930	0.280	-0.460	0.040
2020/01/31 21:03:12.3	5.940	0.280	-0.490	0.040
2020/01/31 21:03:12.4	5.960	0.290	-0.520	0.040
2020/01/31 21:03:12.5	5.970	0.290	-0.550	0.040
2020/01/31 21:03:12.6	5.980	0.300	-0.570	0.040
2020/01/31 21:03:12.7	6.000	0.300	-0.600	0.050
2020/01/31 21:03:12.8	6.010	0.310	-0.630	0.050
2020/01/31 21:03:12.9	6.020	0.310	-0.660	0.050
2020/01/31 21:03:13.0	6.030	0.320	-0.690	0.060
2020/01/31 21:03:13.1	6.040	0.330	-0.710	0.070
2020/01/31 21:03:13.2	6.050	0.340	-0.730	0.070
2020/01/31 21:03:13.3	6.060	0.350	-0.750	0.080
2020/01/31 21:03:13.4	6.060	0.360	-0.770	0.080
2020/01/31 21:03:13.5	6.070	0.360	-0.790	0.090
2020/01/31 21:03:13.6	6.080	0.370	-0.810	0.090
2020/01/31 21:03:13.7	6.090	0.380	-0.820	0.100
2020/01/31 21:03:13.8	6.100	0.390	-0.830	0.100
2020/01/31 21:03:13.9	6.110	0.400	-0.840	0.100
2020/01/31 21:03:14.0	6.110	0.410	-0.850	0.100
2020/01/31 21:03:14.1	6.120	0.420	-0.850	0.090
2020/01/31 21:03:14.2	6.130	0.430	-0.850	0.090
2020/01/31 21:03:14.3	6.140	0.440	-0.850	0.080
2020/01/31 21:03:14.4	6.160	0.440	-0.840	0.070
2020/01/31 21:03:14.5	6.170	0.450	-0.830	0.060
2020/01/31 21:03:14.6	6.180	0.450	-0.820	0.040
2020/01/31 21:03:14.7	6.200	0.460	-0.800	0.030
2020/01/31 21:03:14.8	6.210	0.460	-0.780	0.010
2020/01/31 21:03:14.9	6.220	0.460	-0.750	-0.010
2020/01/31 21:03:15.0	6.240	0.450	-0.720	-0.020
2020/01/31 21:03:15.1	6.250	0.450	-0.690	-0.040
2020/01/31 21:03:15.2	6.260	0.440	-0.650	-0.060
2020/01/31 21:03:15.3	6.270	0.430	-0.600	-0.080
2020/01/31 21:03:15.4	6.280	0.410	-0.550	-0.100
2020/01/31 21:03:15.5	6.290	0.390	-0.500	-0.120
2020/01/31 21:03:15.6	6.290	0.370	-0.440	-0.150
2020/01/31 21:03:15.7	6.300	0.350	-0.380	-0.170
2020/01/31 21:03:15.8	6.310	0.320	-0.320	-0.190
2020/01/31 21:03:15.9	6.310	0.290	-0.250	-0.210
2020/01/31 21:03:16.0	6.320	0.260	-0.180	-0.240
2020/01/31 21:03:16.1	6.330	0.230	-0.110	-0.260
2020/01/31 21:03:16.2	6.340	0.190	-0.040	-0.280
2020/01/31 21:03:16.3	6.340	0.150	0.040	-0.310
2020/01/31 21:03:16.4	6.350	0.110	0.110	-0.330
2020/01/31 21:03:16.5	6.360	0.060	0.190	-0.360
2020/01/31 21:03:16.6	6.360	0.020	0.260	-0.380
2020/01/31 21:03:16.7	6.370	-0.030	0.340	-0.400
2020/01/31 21:03:16.8	6.380	-0.080	0.410	-0.420
2020/01/31 21:03:16.9	6.390	-0.120	0.480	-0.450
2020/01/31 21:03:17.0	6.400	-0.170	0.540	-0.470
2020/01/31 21:03:17.1	6.400	-0.220	0.600	-0.490
2020/01/31 21:03:17.2	6.410	-0.270	0.660	-0.500
2020/01/31 21:03:17.3	6.420	-0.310	0.710	-0.520
2020/01/31 21:03:17.4	6.430	-0.360	0.760	-0.530
2020/01/31 21:03:17.5	6.440	-0.400	0.810	-0.540
2020/01/31 21:03:17.6	6.440	-0.440	0.840	-0.550
2020/01/31 21:03:17.7	6.450	-0.480	0.880	-0.550
2020/01/31 21:03:17.8	6.450	-0.510	0.900	-0.560
2020/01/31 21:03:17.9	6.450	-0.550	0.920	-0.550
2020/01/31 21:03:18.0	6.450	-0.580	0.930	-0.550
2020/01/31 21:03:18.1	6.450	-0.600	0.930	-0.540
2020/01/31 21:03:18.2	6.440	-0.630	0.930	-0.530
2020/01/31 21:03:18.3	6.440	-0.640	0.920	-0.520
2020/01/31 21:03:18.4	6.430	-0.660	0.900	-0.500
2020/01/31 21:03:18.5	6.420	-0.670	0.880	-0.480
2020/01/31 21:03:18.6	6.410	-0.680	0.840	-0.450
2020/01/31 21:03:18.7	6.390	-0.680	0.800	-0.430
2020/01/31 21:03:18.8	6.380	-0.680	0.750	-0.400
2020/01/31 21:03:18.9	6.360	-0.670	0.690	-0.370
2020/01/31 21:03:19.0	6.330	-0.660	0.630	-0.340
2020/01/31 21:03:19.1	6.310	-0.650	0.560	-0.310
2020/01/31 21:03:19.2	6.280	-0.630	0.480	-0.270
2020/01/31 21:03:19.3	6.260	-0.610	0.400	-0.240
2020/01/31 21:03:19.4	6.240	-0.590	0.310	-0.210
2020/01/31 21:03:19.5	6.220	-0.560	0.210	-0.180
2020/01/31 21:03:19.6	6.200	-0.530	0.120	-0.160
2020/01/31 21:03:19.7	6.180	-0.500	0.010	-0.130
2020/01/31 21:03:19.8	6.160	-0.470	-0.090	-0.110
2020/01/31 21:03:19.9	6.140	-0.430	-0.200	-0.080
2020/01/31 21:03:20.0	6.120	-0.390	-0.300	-0.060
2020/01/31 21:03:20.1	6.100	-0.350	-0.410	-0.050
2020/01/31 21:03:20.2	6.090	-0.310	-0.520	-0.030
2020/01/31 21:03:20.3	6.070	-0.260	-0.620	-0.010
2020/01/31 21:03:20.4	6.060	-0.220	-0.720	0.000
2020/01/31 21:03:20.5	6.050	-0.180	-0.820	0.010
2020/01/31 21:03:20.6	6.040	-0.130	-0.910	0.020
2020/01/31 21:03:20.7	6.030	-0.090	-0.990	0.030
2020/01/31 21:03:20.8	6.020	-0.040	-1.070	0.040
2020/01/31 21:03:20.9	6.010	-0.000	-1.140	0.050
2020/01/31 21:03:21.0	6.010	0.040	-1.210	0.060
2020/01/31 21:03:21.1	6.000	0.080	-1.260	0.060
2020/01/31 21:03:21.2	5.990	0.120	-1.310	0.070
2020/01/31 21:03:21.3	5.980	0.150	-1.340	0.070
2020/01/31 21:03:21.4	5.970	0.190	-1.360	0.080
2020/01/31 21:03:21.5	5.970	0.220	-1.380	0.090
2020/01/31 21:03:21.6	5.960	0.250	-1.380	0.090
2020/01/31 21:03:21.7	5.950	0.280	-1.370	0.100
2020/01/31 21:03:21.8	5.940	0.300	-1.350	0.110
2020/01/31 21:03:21.9	5.940	0.330	-1.320	0.120
2020/01/31 21:03:22.0	5.940	0.340	-1.270	0.130
2020/01/31 21:03:22.1	5.930	0.360	-1.220	0.140
2020/01/31 21:03:22.2	5.930	0.370	-1.170	0.150
2020/01/31 21:03:22.3	5.920	0.380	-1.100	0.160
2020/01/31 21:03:22.4	5.910	0.390	-1.030	0.170
2020/01/31 21:03:22.5	5.910	0.390	-0.950	0.180
2020/01/31 21:03:22.6	5.910	0.390	-0.870	0.190
2020/01/31 21:03:22.7	5.900	0.390	-0.780	0.200
2020/01/31 21:03:22.8	5.900	0.390	-0.700	0.210
2020/01/31 21:03:22.9	5.900	0.380	-0.610	0.210
2020/01/31 21:03:23.0	5.910	0.370	-0.520	0.210
2020/01/31 21:03:23.1	5.910	0.350	-0.430	0.210
2020/01/31 21:03:23.2	5.920	0.340	-0.350	0.210
2020/01/31 21:03:23.3	5.920	0.320	-0.270	0.200
2020/01/31 21:03:23.4	5.930	0.300	-0.190	0.190
2020/01/31 21:03:23.5	5.940	0.270	-0.120	0.170
2020/01/31 21:03:23.6	5.950	0.250	-0.050	0.150
2020/01/31 21:03:23.7	5.960	0.220	0.010	0.130
2020/01/31 21:03:23.8	5.980	0.200	0.060	0.100
2020/01/31 21:03:23.9	6.000	0.170	0.100	0.070
2020/01/31 21:03:24.0	6.020	0.140	0.140	0.040
2020/01/31 21:03:24.1	6.040	0.120	0.170	0.000
2020/01/31 21:03:24.2	6.060	0.090	0.200	-0.040
2020/01/31 21:03:24.3	6.090	0.060	0.210	-0.070
2020/01/31 21:03:24.4	6.110	0.040	0.220	-0.110
2020/01/31 21:03:24.5	6.140	0.020	0.220	-0.150
2020/01/31 21:03:24.6	6.170	-0.000	0.210	-0.190
2020/01/31 21:03:24.7	6.190	-0.020	0.190	-0.230
2020/01/31 21:03:24.8	6.220	-0.040	0.170	-0.270
2020/01/31 21:03:24.9	6.250	-0.050	0.140	-0.300
2020/01/31 21:03:25.0	6.270	-0.070	0.120	-0.340
2020/01/31 21:03:25.1	6.300	-0.080	0.080	-0.380
2020/01/31 21:03:25.2	6.330	-0.080	0.040	-0.400
2020/01/31 21:03:25.3	6.350	-0.090	-0.000	-0.430
2020/01/31 21:03:25.4	6.380	-0.090	-0.040	-0.450
2020/01/31 21:03:25.5	6.400	-0.090	-0.090	-0.480
2020/01/31 21:03:25.6	6.430	-0.090	-0.130	-0.500
2020/01/31 21:03:25.7	6.450	-0.090	-0.180	-0.510
2020/01/31 21:03:25.8	6.470	-0.080	-0.220	-0.530
2020/01/31 21:03:25.9	6.490	-0.070	-0.270	-0.540
2020/01/31 21:03:26.0	6.510	-0.060	-0.310	-0.550
2020/01/31 21:03:26.1	6.530	-0.050	-0.350	-0.560
2020/01/31 21:03:26.2	6.550	-0.040	-0.390	-0.570
2020/01/31 21:03:26.3	6.560	-0.020	-0.420	-0.570
2020/01/31 21:03:26.4	6.580	-0.010	-0.450	-0.580
2020/01/31 21:03:26.5	6.590	0.010	-0.480	-0.580
2020/01/31 21:03:26.6	6.600	0.020	-0.500	-0.580
2020/01/31 21:03:26.7	6.610	0.040	-0.510	-0.580
2020/01/31 21:03:26.8	6.610	0.060	-0.530	-0.570
2020/01/31 21:03:26.9	6.620	0.070	-0.530	-0.560
2020/01/31 21:03:27.0	6.590	0.080	-0.540	-0.550
2020/01/31 21:03:27.1	6.590	0.100	-0.530	-0.530
2020/01/31 21:03:27.2	6.590	0.110	-0.530	-0.510
2020/01/31 21:03:27.3	6.580	0.120	-0.510	-0.490
2020/01/31 21:03:27.4	6.560	0.130	-0.500	-0.460
2020/01/31 21:03:27.5	6.550	0.140	-0.470	-0.430
2020/01/31 21:03:27.6	6.530	0.140	-0.450	-0.400
2020/01/31 21:03:27.7	6.510	0.150	-0.420	-0.360
2020/01/31 21:03:27.8	6.490	0.150	-0.390	-0.320
2020/01/31 21:03:27.9	6.460	0.150	-0.350	-0.280
2020/01/31 21:03:28.0	6.440	0.150	-0.310	-0.240
2020/01/31 21:03:28.1	6.410	0.140	-0.270	-0.190
2020/01/31 21:03:28.2	6.380	0.130	-0.230	-0.150
2020/01/31 21:03:28.3	6.340	0.120	-0.190	-0.110
2020/01/31 21:03:28.4	6.300	0.110	-0.140	-0.060
2020/01/31 21:03:28.5	6.260	0.100	-0.100	-0.020
2020/01/31 21:03:28.6	6.220	0.090	-0.060	0.020
2020/01/31 21:03:28.7	6.180	0.070	-0.020	0.060
2020/01/31 21:03:28.8	6.140	0.060	0.020	0.100
2020/01/31 21:03:28.9	6.100	0.040	0.060	0.140
2020/01/31 21:03:29.0	6.070	0.020	0.090	0.170
2020/01/31 21:03:29.1	6.030	0.010	0.120	0.200
2020/01/31 21:03:29.2	5.990	-0.010	0.150	0.230
2020/01/31 21:03:29.3	5.950	-0.030	0.170	0.250
2020/01/31 21:03:29.4	5.920	-0.050	0.190	0.270
2020/01/31 21:03:29.5	5.880	-0.060	0.210	0.290
2020/01/31 21:03:29.6	5.850	-0.080	0.210	0.300
2020/01/31 21:03:29.7	5.820	-0.090	0.220	0.310
2020/01/31 21:03:29.8	5.800	-0.100	0.220	0.310
2020/01/31 21:03:29.9	5.770	-0.110	0.210	0.320
2020/01/31 21:03:30.0	5.750	-0.120	0.210	0.310
2020/01/31 21:03:30.1	5.730	-0.130	0.190	0.310
2020/01/31 21:03:30.2	5.710	-0.130	0.180	0.300
2020/01/31 21:03:30.3	5.700	-0.140	0.160	0.280
2020/01/31 21:03:30.4	5.680	-0.140	0.130	0.270
2020/01/31 21:03:30.5	5.670	-0.140	0.110	0.250
2020/01/31 21:03:30.6	5.660	-0.140	0.080	0.230
2020/01/31 21:03:30.7	5.650	-0.140	0.050	0.210
2020/01/31 21:03:30.8	5.650	-0.130	0.020	0.190
2020/01/31 21:03:30.9	5.640	-0.130	-0.020	0.160
2020/01/31 21:03:31.0	5.630	-0.120	-0.050	0.130
2020/01/31 21:03:31.1	5.630	-0.120	-0.090	0.110
2020/01/31 21:03:31.2	5.630	-0.110	-0.120	0.080
2020/01/31 21:03:31.3	5.630	-0.110	-0.160	0.050
2020/01/31 21:03:31.4	5.630	-0.100	-0.190	0.020
2020/01/31 21:03:31.5	5.640	-0.090	-0.230	-0.010
2020/01/31 21:03:31.6	5.650	-0.090	-0.260	-0.040
2020/01/31 21:03:31.7	5.660	-0.080	-0.290	-0.070
2020/01/31 21:03:31.8	5.670	-0.080	-0.330	-0.100
2020/01/31 21:03:31.9	5.680	-0.070	-0.360	-0.130
2020/01/31 21:03:32.0	5.690	-0.070	-0.390	-0.170
2020/01/31 21:03:32.1	5.710	-0.060	-0.420	-0.200
2020/01/31 21:03:32.2	5.730	-0.060	-0.440	-0.230
2020/01/31 21:03:32.3	5.750	-0.050	-0.470	-0.260
2020/01/31 21:03:32.4	5.770	-0.050	-0.490	-0.290
2020/01/31 21:03:32.5	5.800	-0.050	-0.520	-0.320
2020/01/31 21:03:32.6	5.830	-0.040	-0.540	-0.340
2020/01/31 21:03:32.7	5.850	-0.040	-0.560	-0.370
2020/01/31 21:03:32.8	5.880	-0.040	-0.570	-0.390
2020/01/31 21:03:32.9	5.910	-0.040	-0.590	-0.410
2020/01/31 21:03:33.0	5.940	-0.040	-0.600	-0.440
2020/01/31 21:03:33.1	5.970	-0.040	-0.610	-0.460
2020/01/31 21:03:33.2	6.010	-0.040	-0.620	-0.470
2020/01/31 21:03:33.3	6.040	-0.040	-0.630	-0.490
2020/01/31 21:03:33.4	6.070	-0.040	-0.630	-0.500
2020/01/31 21:03:33.5	6.100	-0.040	-0.630	-0.510
2020/01/31 21:03:33.6	6.130	-0.050	-0.620	-0.510
2020/01/31 21:03:33.7	6.160	-0.050	-0.620	-0.520
2020/01/31 21:03:33.8	6.190	-0.050	-0.610	-0.520
2020/01/31 21:03:33.9	6.210	-0.050	-0.600	-0.520
2020/01/31 21:03:34.0	6.250	-0.050	-0.590	-0.510
2020/01/31 21:03:34.1	6.270	-0.060	-0.570	-0.510
2020/01/31 21:03:34.2	6.290	-0.060	-0.550	-0.500
2020/01/31 21:03:34.3	6.310	-0.060	-0.530	-0.490
2020/01/31 21:03:34.4	6.330	-0.060	-0.500	-0.470
2020/01/31 21:03:34.5	6.340	-0.070	-0.480	-0.450
2020/01/31 21:03:34.6	6.350	-0.070	-0.450	-0.430
2020/01/31 21:03:34.7	6.360	-0.070	-0.420	-0.400
2020/01/31 21:03:34.8	6.360	-0.070	-0.390	-0.370
2020/01/31 21:03:34.9	6.360	-0.070	-0.350	-0.340
2020/01/31 21:03:35.0	6.360	-0.070	-0.320	-0.300
2020/01/31 21:03:35.1	6.350	-0.080	-0.290	-0.270
2020/01/31 21:03:35.2	6.340	-0.080	-0.250	-0.220
2020/01/31 21:03:35.3	6.320	-0.080	-0.220	-0.180
2020/01/31 21:03:35.4	6.300	-0.080	-0.180	-0.130
2020/01/31 21:03:35.5	6.280	-0.080	-0.150	-0.090
2020/01/31 21:03:35.6	6.260	-0.080	-0.120	-0.040
2020/01/31 21:03:35.7	6.230	-0.080	-0.090	0.010
2020/01/31 21:03:35.8	6.210	-0.080	-0.060	0.060
2020/01/31 21:03:35.9	6.180	-0.080	-0.040	0.100
2020/01/31 21:03:36.0	6.140	-0.090	-0.010	0.150
2020/01/31 21:03:36.1	6.110	-0.090	0.010	0.200
2020/01/31 21:03:36.2	6.070	-0.090	0.020	0.240
2020/01/31 21:03:36.3	6.040	-0.090	0.040	0.270
2020/01/31 21:03:36.4	6.010	-0.090	0.040	0.310
2020/01/31 21:03:36.5	5.980	-0.090	0.050	0.330
2020/01/31 21:03:36.6	5.950	-0.090	0.050	0.360
2020/01/31 21:03:36.7	5.920	-0.080	0.040	0.380
2020/01/31 21:03:36.8	5.890	-0.080	0.030	0.390
2020/01/31 21:03:36.9	5.860	-0.080	0.020	0.400
2020/01/31 21:03:37.0	5.840	-0.080	0.000	0.400
2020/01/31 21:03:37.1	5.820	-0.070	-0.020	0.400
2020/01/31 21:03:37.2	5.800	-0.070	-0.040	0.400
2020/01/31 21:03:37.3	5.770	-0.060	-0.070	0.400
2020/01/31 21:03:37.4	5.750	-0.060	-0.090	0.390
2020/01/31 21:03:37.5	5.730	-0.050	-0.120	0.380
2020/01/31 21:03:37.6	5.710	-0.050	-0.150	0.370
2020/01/31 21:03:37.7	5.700	-0.040	-0.180	0.350
2020/01/31 21:03:37.8	5.680	-0.030	-0.210	0.340
2020/01/31 21:03:37.9	5.660	-0.020	-0.230	0.320
2020/01/31 21:03:38.0	5.650	-0.020	-0.260	0.300
2020/01/31 21:03:38.1	5.630	-0.010	-0.290	0.270
2020/01/31 21:03:38.2	5.620	0.000	-0.310	0.250
2020/01/31 21:03:38.3	5.610	0.010	-0.330	0.220
2020/01/31 21:03:38.4	5.600	0.020	-0.350	0.200
2020/01/31 21:03:38.5	5.590	0.030	-0.370	0.170
2020/01/31 21:03:38.6	5.590	0.040	-0.390	0.140
2020/01/31 21:03:38.7	5.580	0.050	-0.410	0.110
2020/01/31 21:03:38.8	5.580	0.060	-0.420	0.080
2020/01/31 21:03:38.9	5.580	0.070	-0.430	0.040
2020/01/31 21:03:39.0	5.580	0.080	-0.440	0.010
2020/01/31 21:03:39.1	5.580	0.090	-0.440	-0.020
2020/01/31 21:03:39.2	5.590	0.100	-0.450	-0.050
2020/01/31 21:03:39.3	5.590	0.110	-0.440	-0.070
2020/01/31 21:03:39.4	5.590	0.120	-0.440	-0.100
2020/01/31 21:03:39.5	5.590	0.130	-0.430	-0.120
2020/01/31 21:03:39.6	5.590	0.140	-0.420	-0.130
2020/01/31 21:03:39.7	5.590	0.150	-0.410	-0.150
2020/01/31 21:03:39.8	5.590	0.160	-0.390	-0.160
2020/01/31 21:03:39.9	5.590	0.170	-0.370	-0.170
2020/01/31 21:03:40.0	5.590	0.180	-0.350	-0.170
2020/01/31 21:03:40.1	5.590	0.180	-0.330	-0.170
2020/01/31 21:03:40.2	5.580	0.190	-0.300	-0.160
2020/01/31 21:03:40.3	5.580	0.200	-0.280	-0.160
2020/01/31 21:03:40.4	5.570	0.210	-0.250	-0.150
2020/01/31 21:03:40.5	5.570	0.220	-0.220	-0.130
2020/01/31 21:03:40.6	5.560	0.230	-0.190	-0.120
2020/01/31 21:03:40.7	5.550	0.240	-0.170	-0.100
2020/01/31 21:03:40.8	5.550	0.250	-0.140	-0.080
2020/01/31 21:03:40.9	5.540	0.260	-0.120	-0.060
2020/01/31 21:03:41.0	5.530	0.270	-0.090	-0.030
2020/01/31 21:03:41.1	5.530	0.290	-0.070	-0.010
2020/01/31 21:03:41.2	5.530	0.300	-0.060	0.010
2020/01/31 21:03:41.3	5.530	0.310	-0.040	0.040
2020/01/31 21:03:41.4	5.530	0.320	-0.030	0.060
2020/01/31 21:03:41.5	5.530	0.330	-0.030	0.080
2020/01/31 21:03:41.6	5.530	0.350	-0.030	0.100
2020/01/31 21:03:41.7	5.530	0.360	-0.030	0.120
2020/01/31 21:03:41.8	5.540	0.370	-0.040	0.140
2020/01/31 21:03:41.9	5.540	0.390	-0.050	0.160
2020/01/31 21:03:42.0	5.530	0.400	-0.060	0.180
2020/01/31 21:03:42.1	5.540	0.410	-0.080	0.190
2020/01/31 21:03:42.2	5.540	0.420	-0.100	0.210
2020/01/31 21:03:42.3	5.550	0.430	-0.120	0.220
2020/01/31 21:03:42.4	5.550	0.440	-0.150	0.230
2020/01/31 21:03:42.5	5.560	0.450	-0.180	0.240
2020/01/31 21:03:42.6	5.570	0.450	-0.210	0.240
2020/01/31 21:03:42.7	5.570	0.460	-0.240	0.240
2020/01/31 21:03:42.8	5.580	0.460	-0.270	0.240
2020/01/31 21:03:42.9	5.590	0.460	-0.310	0.240
2020/01/31 21:03:43.0	5.590	0.460	-0.340	0.240
2020/01/31 21:03:43.1	5.600	0.460	-0.370	0.230
2020/01/31 21:03:43.2	5.610	0.450	-0.400	0.220
2020/01/31 21:03:43.3	5.620	0.440	-0.430	0.210
2020/01/31 21:03:43.4	5.630	0.430	-0.460	0.190
2020/01/31 21:03:43.5	5.640	0.410	-0.490	0.170
2020/01/31 21:03:43.6	5.650	0.390	-0.510	0.150
2020/01/31 21:03:43.7	5.660	0.370	-0.530	0.120
2020/01/31 21:03:43.8	5.670	0.340	-0.550	0.090
2020/01/31 21:03:43.9	5.690	0.320	-0.570	0.060
2020/01/31 21:03:44.0	5.700	0.280	-0.590	0.030
2020/01/31 21:03:44.1	5.720	0.250	-0.600	-0.000
2020/01/31 21:03:44.2	5.730	0.210	-0.610	-0.040
2020/01/31 21:03:44.3	5.750	0.170	-0.610	-0.080
2020/01/31 21:03:44.4	5.770	0.130	-0.610	-0.120
2020/01/31 21:03:44.5	5.780	0.080	-0.610	-0.170
2020/01/31 21:03:44.6	5.800	0.030	-0.610	-0.210
2020/01/31 21:03:44.7	5.810	-0.020	-0.600	-0.250
2020/01/31 21:03:44.8	5.830	-0.070	-0.590	-0.300
2020/01/31 21:03:44.9	5.850	-0.120	-0.580	-0.340
2020/01/31 21:03:45.0	5.860	-0.180	-0.560	-0.380
2020/01/31 21:03:45.1	5.870	-0.230	-0.540	-0.420
2020/01/31 21:03:45.2	5.890	-0.290	-0.520	-0.460
2020/01/31 21:03:45.3	5.900	-0.340	-0.490	-0.500
2020/01/31 21:03:45.4	5.910	-0.390	-0.470	-0.530
2020/01/31 21:03:45.5	5.920	-0.450	-0.440	-0.560
2020/01/31 21:03:45.6	5.920	-0.500	-0.410	-0.590
2020/01/31 21:03:45.7	5.930	-0.550	-0.370	-0.620
2020/01/31 21:03:45.8	5.930	-0.600	-0.340	-0.640
2020/01/31 21:03:45.9	5.930	-0.640	-0.300	-0.660
2020/01/31 21:03:46.0	5.930	-0.690	-0.270	-0.670
2020/01/31 21:03:46.1	5.930	-0.730	-0.230	-0.680
2020/01/31 21:03:46.2	5.920	-0.760	-0.190	-0.690
2020/01/31 21:03:46.3	5.910	-0.800	-0.150	-0.700
2020/01/31 21:03:46.4	5.900	-0.830	-0.100	-0.700
2020/01/31 21:03:46.5	5.880	-0.850	-0.060	-0.700
2020/01/31 21:03:46.6	5.870	-0.870	-0.020	-0.700
2020/01/31 21:03:46.7	5.850	-0.890	0.020	-0.690
2020/01/31 21:03:46.8	5.820	-0.900	0.060	-0.680
2020/01/31 21:03:46.9	5.800	-0.910	0.100	-0.670
2020/01/31 21:03:47.0	5.770	-0.920	0.130	-0.660
2020/01/31 21:03:47.1	5.740	-0.920	0.170	-0.640
2020/01/31 21:03:47.2	5.720	-0.910	0.200	-0.620
2020/01/31 21:03:47.3	5.690	-0.900	0.230	-0.600
2020/01/31 21:03:47.4	5.660	-0.890	0.260	-0.570
2020/01/31 21:03:47.5	5.630	-0.870	0.280	-0.550
2020/01/31 21:03:47.6	5.600	-0.850	0.300	-0.520
2020/01/31 21:03:47.7	5.580	-0.820	0.320	-0.490
2020/01/31 21:03:47.8	5.550	-0.790	0.330	-0.460
2020/01/31 21:03:47.9	5.520	-0.760	0.340	-0.430
2020/01/31 21:03:48.0	5.500	-0.720	0.350	-0.400
2020/01/31 21:03:48.1	5.480	-0.680	0.350	-0.370
2020/01/31 21:03:48.2	5.460	-0.640	0.350	-0.340
2020/01/31 21:03:48.3	5.430	-0.590	0.340	-0.300
2020/01/31 21:03:48.4	5.410	-0.540	0.340	-0.260
2020/01/31 21:03:48.5	5.390	-0.500	0.320	-0.230
2020/01/31 21:03:48.6	5.380	-0.450	0.310	-0.190
2020/01/31 21:03:48.7	5.360	-0.390	0.290	-0.150
2020/01/31 21:03:48.8	5.340	-0.340	0.270	-0.110
2020/01/31 21:03:48.9	5.330	-0.290	0.250	-0.070
2020/01/31 21:03:49.0	5.310	-0.240	0.220	-0.030
2020/01/31 21:03:49.1	5.300	-0.180	0.200	0.020
2020/01/31 21:03:49.2	5.290	-0.130	0.170	0.060
2020/01/31 21:03:49.3	5.280	-0.080	0.140	0.090
2020/01/31 21:03:49.4	5.270	-0.030	0.100	0.130
2020/01/31 21:03:49.5	5.260	0.020	0.070	0.170
2020/01/31 21:03:49.6	5.250	0.060	0.030	0.210
2020/01/31 21:03:49.7	5.240	0.110	-0.000	0.240
2020/01/31 21:03:49.8	5.240	0.150	-0.040	0.270
2020/01/31 21:03:49.9	5.230	0.200	-0.080	0.300
2020/01/31 21:03:50.0	5.240	0.240	-0.120	0.330
2020/01/31 21:03:50.1	5.230	0.270	-0.160	0.360
2020/01/31 21:03:50.2	5.230	0.310	-0.210	0.390
2020/01/31 21:03:50.3	5.230	0.340	-0.250	0.410
2020/01/31 21:03:50.4	5.230	0.370	-0.290	0.430
2020/01/31 21:03:50.5	5.230	0.400	-0.340	0.450
2020/01/31 21:03:50.6	5.240	0.430	-0.380	0.470
2020/01/31 21:03:50.7	5.240	0.460	-0.430	0.480
2020/01/31 21:03:50.8	5.240	0.480	-0.470	0.500
2020/01/31 21:03:50.9	5.250	0.500	-0.520	0.510
2020/01/31 21:03:51.0	5.270	0.530	-0.560	0.520
2020/01/31 21:03:51.1	5.280	0.550	-0.610	0.520
2020/01/31 21:03:51.2	5.290	0.560	-0.650	0.530
2020/01/31 21:03:51.3	5.300	0.580	-0.700	0.540
2020/01/31 21:03:51.4	5.310	0.590	-0.750	0.540
2020/01/31 21:03:51.5	5.320	0.610	-0.790	0.540
2020/01/31 21:03:51.6	5.330	0.620	-0.830	0.540
2020/01/31 21:03:51.7	5.350	0.630	-0.880	0.530
2020/01/31 21:03:51.8	5.360	0.640	-0.920	0.530
2020/01/31 21:03:51.9	5.370	0.650	-0.960	0.520
2020/01/31 21:03:52.0	5.390	0.660	-0.990	0.510
2020/01/31 21:03:52.1	5.400	0.660	-1.030	0.500
2020/01/31 21:03:52.2	5.410	0.670	-1.060	0.480
2020/01/31 21:03:52.3	5.420	0.670	-1.080	0.470
2020/01/31 21:03:52.4	5.430	0.670	-1.110	0.450
2020/01/31 21:03:52.5	5.440	0.670	-1.120	0.430
2020/01/31 21:03:52.6	5.450	0.670	-1.140	0.410
2020/01/31 21:03:52.7	5.460	0.660	-1.140	0.390
2020/01/31 21:03:52.8	5.460	0.660	-1.150	0.360
2020/01/31 21:03:52.9	5.470	0.650	-1.140	0.340
2020/01/31 21:03:53.0	5.460	0.640	-1.130	0.310
2020/01/31 21:03:53.1	5.460	0.630	-1.110	0.280
2020/01/31 21:03:53.2	5.460	0.610	-1.090	0.260
2020/01/31 21:03:53.3	5.460	0.600	-1.060	0.230
2020/01/31 21:03:53.4	5.460	0.580	-1.030	0.200
2020/01/31 21:03:53.5	5.450	0.560	-0.980	0.180
2020/01/31 21:03:53.6	5.450	0.540	-0.940	0.150
2020/01/31 21:03:53.7	5.440	0.510	-0.880	0.130
2020/01/31 21:03:53.8	5.430	0.490	-0.820	0.100
2020/01/31 21:03:53.9	5.420	0.460	-0.750	0.080
2020/01/31 21:03:54.0	5.420	0.430	-0.680	0.060
2020/01/31 21:03:54.1	5.410	0.390	-0.610	0.040
2020/01/31 21:03:54.2	5.400	0.360	-0.530	0.020
2020/01/31 21:03:54.3	5.380	0.320	-0.440	0.000
2020/01/31 21:03:54.4	5.370	0.280	-0.360	-0.010
2020/01/31 21:03:54.5	5.350	0.240	-0.270	-0.030
2020/01/31 21:03:54.6	5.340	0.200	-0.180	-0.050
2020/01/31 21:03:54.7	5.330	0.160	-0.080	-0.060
2020/01/31 21:03:54.8	5.310	0.110	0.010	-0.080
2020/01/31 21:03:54.9	5.300	0.070	0.100	-0.100
2020/01/31 21:03:55.0	5.280	0.030	0.180	-0.120
2020/01/31 21:03:55.1	5.270	-0.020	0.270	-0.130
2020/01/31 21:03:55.2	5.260	-0.060	0.350	-0.150
2020/01/31 21:03:55.3	5.250	-0.110	0.420	-0.170
2020/01/31 21:03:55.4	5.240	-0.150	0.490	-0.180
2020/01/31 21:03:55.5	5.240	-0.190	0.560	-0.200
2020/01/31 21:03:55.6	5.230	-0.230	0.620	-0.220
2020/01/31 21:03:55.7	5.230	-0.270	0.670	-0.240
2020/01/31 21:03:55.8	5.230	-0.310	0.710	-0.260
2020/01/31 21:03:55.9	5.230	-0.340	0.740	-0.280
2020/01/31 21:03:56.0	5.230	-0.370	0.770	-0.300
2020/01/31 21:03:56.1	5.240	-0.400	0.790	-0.320
2020/01/31 21:03:56.2	5.240	-0.430	0.800	-0.330
2020/01/31 21:03:56.3	5.240	-0.450	0.800	-0.350
2020/01/31 21:03:56.4	5.250	-0.470	0.790	-0.370
2020/01/31 21:03:56.5	5.250	-0.490	0.780	-0.390
2020/01/31 21:03:56.6	5.260	-0.500	0.760	-0.410
2020/01/31 21:03:56.7	5.270	-0.510	0.730	-0.430
2020/01/31 21:03:56.8	5.270	-0.520	0.690	-0.440
2020/01/31 21:03:56.9	5.280	-0.530	0.650	-0.460
2020/01/31 21:03:57.0	5.280	-0.530	0.600	-0.470
2020/01/31 21:03:57.1	5.290	-0.530	0.550	-0.490
2020/01/31 21:03:57.2	5.290	-0.520	0.490	-0.500
2020/01/31 21:03:57.3	5.290	-0.520	0.430	-0.510
2020/01/31 21:03:57.4	5.290	-0.510	0.370	-0.520
2020/01/31 21:03:57.5	5.290	-0.500	0.300	-0.520
2020/01/31 21:03:57.6	5.290	-0.490	0.230	-0.530
2020/01/31 21:03:57.7	5.290	-0.480	0.160	-0.530
2020/01/31 21:03:57.8	5.280	-0.470	0.090	-0.530
2020/01/31 21:03:57.9	5.280	-0.450	0.020	-0.520
2020/01/31 21:03:58.0	5.260	-0.440	-0.050	-0.520
2020/01/31 21:03:58.1	5.260	-0.420	-0.120	-0.510
2020/01/31 21:03:58.2	5.250	-0.400	-0.190	-0.500
2020/01/31 21:03:58.3	5.240	-0.390	-0.260	-0.480
2020/01/31 21:03:58.4	5.230	-0.370	-0.320	-0.460
2020/01/31 21:03:58.5	5.230	-0.350	-0.380	-0.440
2020/01/31 21:03:58.6	5.220	-0.340	-0.450	-0.420
2020/01/31 21:03:58.7	5.210	-0.320	-0.500	-0.400
2020/01/31 21:03:58.8	5.200	-0.310	-0.560	-0.370
2020/01/31 21:03:58.9	5.190	-0.290	-0.610	-0.340
2020/01/31 21:03:59.0	5.170	-0.280	-0.660	-0.300
2020/01/31 21:03:59.1	5.160	-0.260	-0.700	-0.270
2020/01/31 21:03:59.2	5.150	-0.250	-0.740	-0.230
2020/01/31 21:03:59.3	5.140	-0.240	-0.780	-0.200
2020/01/31 21:03:59.4	5.130	-0.230	-0.810	-0.160
2020/01/31 21:03:59.5	5.120	-0.220	-0.840	-0.130
2020/01/31 21:03:59.6	5.110	-0.210	-0.870	-0.090
2020/01/31 21:03:59.7	5.100	-0.200	-0.890	-0.050
2020/01/31 21:03:59.8	5.090	-0.190	-0.900	-0.020
2020/01/31 21:03:59.9	5.090	-0.180	-0.920	0.010
2020/01/31 21:04:00.0	5.080	-0.170	-0.930	0.040
2020/01/31 21:04:00.1	5.080	-0.160	-0.930	0.070
2020/01/31 21:04:00.2	5.070	-0.150	-0.940	0.100
2020/01/31 21:04:00.3	5.070	-0.150	-0.940	0.120
2020/01/31 21:04:00.4	5.070	-0.140	-0.930	0.140
2020/01/31 21:04:00.5	5.070	-0.130	-0.930	0.160
2020/01/31 21:04:00.6	5.070	-0.120	-0.920	0.170
2020/01/31 21:04:00.7	5.070	-0.110	-0.910	0.180
2020/01/31 21:04:00.8	5.080	-0.090	-0.900	0.190
2020/01/31 21:04:00.9	5.080	-0.080	-0.880	0.190
2020/01/31 21:04:01.0	5.100	-0.070	-0.860	0.190
2020/01/31 21:04:01.1	5.100	-0.060	-0.840	0.190
2020/01/31 21:04:01.2	5.110	-0.040	-0.820	0.190
2020/01/31 21:04:01.3	5.120	-0.030	-0.790	0.180
2020/01/31 21:04:01.4	5.130	-0.010	-0.760	0.180
2020/01/31 21:04:01.5	5.130	0.000	-0.730	0.170
2020/01/31 21:04:01.6	5.140	0.020	-0.700	0.160
2020/01/31 21:04:01.7	5.150	0.030	-0.660	0.150
2020/01/31 21:04:01.8	5.150	0.050	-0.630	0.150
2020/01/31 21:04:01.9	5.160	0.060	-0.590	0.140
2020/01/31 21:04:02.0	5.150	0.080	-0.550	0.140
2020/01/31 21:04:02.1	5.150	0.090	-0.500	0.130
2020/01/31 21:04:02.2	5.150	0.100	-0.460	0.130
2020/01/31 21:04:02.3	5.140	0.120	-0.410	0.130
2020/01/31 21:04:02.4	5.140	0.130	-0.360	0.130
2020/01/31 21:04:02.5	5.130	0.140	-0.310	0.140
2020/01/31 21:04:02.6	5.120	0.150	-0.260	0.140
2020/01/31 21:04:02.7	5.110	0.160	-0.210	0.150
2020/01/31 21:04:02.8	5.100	0.170	-0.160	0.160
2020/01/31 21:04:02.9	5.080	0.180	-0.110	0.170
2020/01/31 21:04:03.0	5.070	0.180	-0.060	0.190
2020/01/31 21:04:03.1	5.050	0.190	-0.010	0.210
2020/01/31 21:04:03.2	5.030	0.190	0.040	0.220
2020/01/31 21:04:03.3	5.020	0.200	0.090	0.240
2020/01/31 21:04:03.4	5.000	0.200	0.130	0.260
2020/01/31 21:04:03.5	4.970	0.200	0.170	0.280
2020/01/31 21:04:03.6	4.950	0.200	0.210	0.290
2020/01/31 21:04:03.7	4.930	0.200	0.250	0.310
2020/01/31 21:04:03.8	4.910	0.200	0.280	0.330
2020/01/31 21:04:03.9	4.890	0.200	0.310	0.350
2020/01/31 21:04:04.0	4.880	0.200	0.340	0.360
2020/01/31 21:04:04.1	4.860	0.200	0.360	0.380
2020/01/31 21:04:04.2	4.830	0.190	0.380	0.390
2020/01/31 21:04:04.3	4.810	0.190	0.400	0.410
2020/01/31 21:04:04.4	4.790	0.190	0.410	0.420
2020/01/31 21:04:04.5	4.770	0.190	0.420	0.440
2020/01/31 21:04:04.6	4.750	0.190	0.430	0.450
2020/01/31 21:04:04.7	4.730	0.180	0.430	0.460
2020/01/31 21:04:04.8	4.720	0.180	0.430	0.470
2020/01/31 21:04:04.9	4.700	0.180	0.420	0.490
2020/01/31 21:04:05.0	4.680	0.180	0.410	0.500
2020/01/31 21:04:05.1	4.670	0.180	0.400	0.510
2020/01/31 21:04:05.2	4.650	0.170	0.380	0.520
2020/01/31 21:04:05.3	4.640	0.170	0.360	0.520
2020/01/31 21:04:05.4	4.630	0.170	0.340	0.530
2020/01/31 21:04:05.5	4.620	0.170	0.310	0.530
2020/01/31 21:04:05.6	4.620	0.170	0.280	0.530
2020/01/31 21:04:05.7	4.610	0.170	0.240	0.530
2020/01/31 21:04:05.8	4.610	0.170	0.200	0.530
2020/01/31 21:04:05.9	4.610	0.170	0.160	0.520
2020/01/31 21:04:06.0	4.630	0.160	0.120	0.510
2020/01/31 21:04:06.1	4.630	0.160	0.080	0.500
2020/01/31 21:04:06.2	4.640	0.160	0.030	0.480
2020/01/31 21:04:06.3	4.640	0.160	-0.020	0.460
2020/01/31 21:04:06.4	4.650	0.160	-0.070	0.440
2020/01/31 21:04:06.5	4.660	0.150	-0.120	0.410
2020/01/31 21:04:06.6	4.670	0.150	-0.170	0.380
2020/01/31 21:04:06.7	4.680	0.150	-0.230	0.350
2020/01/31 21:04:06.8	4.690	0.140	-0.280	0.320
2020/01/31 21:04:06.9	4.710	0.140	-0.330	0.280
2020/01/31 21:04:07.0	4.710	0.130	-0.380	0.240
2020/01/31 21:04:07.1	4.730	0.130	-0.430	0.190
2020/01/31 21:04:07.2	4.740	0.120	-0.480	0.150
2020/01/31 21:04:07.3	4.760	0.120	-0.530	0.110
2020/01/31 21:04:07.4	4.770	0.110	-0.570	0.070
2020/01/31 21:04:07.5	4.780	0.100	-0.610	0.020
2020/01/31 21:04:07.6	4.800	0.100	-0.650	-0.020
2020/01/31 21:04:07.7	4.810	0.090	-0.680	-0.050
2020/01/31 21:04:07.8	4.830	0.090	-0.710	-0.090
2020/01/31 21:04:07.9	4.840	0.080	-0.740	-0.130
2020/01/31 21:04:08.0	4.850	0.080	-0.760	-0.160
2020/01/31 21:04:08.1	4.860	0.070	-0.780	-0.180
2020/01/31 21:04:08.2	4.870	0.070	-0.790	-0.210
2020/01/31 21:04:08.3	4.880	0.060	-0.800	-0.230
2020/01/31 21:04:08.4	4.890	0.060	-0.800	-0.240
2020/01/31 21:04:08.5	4.890	0.050	-0.810	-0.250
2020/01/31 21:04:08.6	4.900	0.050	-0.800	-0.260
2020/01/31 21:04:08.7	4.910	0.050	-0.800	-0.260
2020/01/31 21:04:08.8	4.910	0.040	-0.790	-0.260
2020/01/31 21:04:08.9	4.910	0.040	-0.780	-0.260
2020/01/31 21:04:09.0	4.900	0.030	-0.760	-0.260
2020/01/31 21:04:09.1	4.900	0.030	-0.740	-0.250
2020/01/31 21:04:09.2	4.900	0.030	-0.720	-0.240
2020/01/31 21:04:09.3	4.900	0.020	-0.700	-0.230
2020/01/31 21:04:09.4	4.900	0.020	-0.680	-0.220
2020/01/31 21:04:09.5	4.900	0.010	-0.660	-0.200
2020/01/31 21:04:09.6	4.900	0.010	-0.630	-0.190
2020/01/31 21:04:09.7	4.890	0.000	-0.610	-0.180
2020/01/31 21:04:09.8	4.890	-0.000	-0.580	-0.170
2020/01/31 21:04:09.9	4.890	-0.010	-0.560	-0.160
2020/01/31 21:04:10.0	4.890	-0.010	-0.540	-0.160
2020/01/31 21:04:10.1	4.890	-0.020	-0.510	-0.150
2020/01/31 21:04:10.2	4.880	-0.030	-0.490	-0.140
2020/01/31 21:04:10.3	4.880	-0.030	-0.470	-0.140
2020/01/31 21:04:10.4	4.880	-0.040	-0.450	-0.130
2020/01/31 21:04:10.5	4.880	-0.050	-0.430	-0.130
2020/01/31 21:04:10.6	4.870	-0.060	-0.410	-0.130
2020/01/31 21:04:10.7	4.870	-0.060	-0.390	-0.120
2020/01/31 21:04:10.8	4.870	-0.070	-0.370	-0.120
2020/01/31 21:04:10.9	4.860	-0.080	-0.350	-0.120
2020/01/31 21:04:11.0	4.850	-0.090	-0.340	-0.120
2020/01/31 21:04:11.1	4.840	-0.100	-0.320	-0.120
2020/01/31 21:04:11.2	4.840	-0.110	-0.300	-0.120
2020/01/31 21:04:11.3	4.830	-0.120	-0.280	-0.120
2020/01/31 21:04:11.4	4.830	-0.130	-0.270	-0.120
2020/01/31 21:04:11.5	4.820	-0.140	-0.250	-0.120
2020/01/31 21:04:11.6	4.820	-0.150	-0.230	-0.120
2020/01/31 21:04:11.7	4.810	-0.160	-0.220	-0.130
2020/01/31 21:04:11.8	4.810	-0.170	-0.200	-0.130
2020/01/31 21:04:11.9	4.800	-0.180	-0.180	-0.140
2020/01/31 21:04:12.0	4.800	-0.190	-0.160	-0.140
2020/01/31 21:04:12.1	4.790	-0.200	-0.150	-0.150
2020/01/31 21:04:12.2	4.790	-0.210	-0.130	-0.160
2020/01/31 21:04:12.3	4.780	-0.220	-0.120	-0.170
2020/01/31 21:04:12.4	4.780	-0.220	-0.100	-0.170
2020/01/31 21:04:12.5	4.780	-0.230	-0.090	-0.180
2020/01/31 21:04:12.6	4.770	-0.240	-0.070	-0.190
2020/01/31 21:04:12.7	4.770	-0.250	-0.060	-0.200
2020/01/31 21:04:12.8	4.770	-0.260	-0.050	-0.210
2020/01/31 21:04:12.9	4.760	-0.260	-0.040	-0.220
2020/01/31 21:04:13.0	4.760	-0.270	-0.030	-0.230
2020/01/31 21:04:13.1	4.760	-0.270	-0.020	-0.230
2020/01/31 21:04:13.2	4.760	-0.280	-0.010	-0.240
2020/01/31 21:04:13.3	4.750	-0.280	-0.010	-0.250
2020/01/31 21:04:13.4	4.750	-0.280	-0.000	-0.260
2020/01/31 21:04:13.5	4.750	-0.280	-0.000	-0.270
2020/01/31 21:04:13.6	4.740	-0.280	-0.000	-0.280
2020/01/31 21:04:13.7	4.730	-0.280	-0.000	-0.290
2020/01/31 21:04:13.8	4.730	-0.280	-0.010	-0.300
2020/01/31 21:04:13.9	4.720	-0.270	-0.010	-0.300
2020/01/31 21:04:14.0	4.710	-0.270	-0.020	-0.310
2020/01/31 21:04:14.1	4.710	-0.260	-0.020	-0.320
2020/01/31 21:04:14.2	4.700	-0.250	-0.030	-0.320
2020/01/31 21:04:14.3	4.700	-0.240	-0.040	-0.320
2020/01/31 21:04:14.4	4.690	-0.230	-0.050	-0.330
2020/01/31 21:04:14.5	4.690	-0.220	-0.060	-0.330
2020/01/31 21:04:14.6	4.680	-0.200	-0.070	-0.330
2020/01/31 21:04:14.7	4.680	-0.180	-0.090	-0.330
2020/01/31 21:04:14.8	4.670	-0.170	-0.100	-0.330
2020/01/31 21:04:14.9	4.670	-0.150	-0.110	-0.320
2020/01/31 21:04:15.0	4.670	-0.130	-0.130	-0.320
2020/01/31 21:04:15.1	4.670	-0.100	-0.140	-0.310
2020/01/31 21:04:15.2	4.670	-0.080	-0.150	-0.310
2020/01/31 21:04:15.3	4.670	-0.060	-0.170	-0.300
2020/01/31 21:04:15.4	4.670	-0.030	-0.180	-0.290
2020/01/31 21:04:15.5	4.660	-0.010	-0.190	-0.280
2020/01/31 21:04:15.6	4.660	0.020	-0.200	-0.260
2020/01/31 21:04:15.7	4.660	0.040	-0.210	-0.250
2020/01/31 21:04:15.8	4.650	0.060	-0.210	-0.230
2020/01/31 21:04:15.9	4.650	0.090	-0.220	-0.210
2020/01/31 21:04:16.0	4.640	0.110	-0.230	-0.190
2020/01/31 21:04:16.1	4.640	0.140	-0.230	-0.170
2020/01/31 21:04:16.2	4.630	0.160	-0.230	-0.140
2020/01/31 21:04:16.3	4.620	0.180	-0.230	-0.110
2020/01/31 21:04:16.4	4.610	0.200	-0.220	-0.080
2020/01/31 21:04:16.5	4.600	0.220	-0.220	-0.050
2020/01/31 21:04:16.6	4.590	0.230	-0.210	-0.020
2020/01/31 21:04:16.7	4.580	0.250	-0.200	0.020
2020/01/31 21:04:16.8	4.560	0.260	-0.190	0.050
2020/01/31 21:04:16.9	4.550	0.270	-0.180	0.090
2020/01/31 21:04:17.0	4.530	0.280	-0.170	0.130
2020/01/31 21:04:17.1	4.510	0.280	-0.150	0.170
2020/01/31 21:04:17.2	4.490	0.290	-0.130	0.200
2020/01/31 21:04:17.3	4.480	0.290	-0.120	0.240
2020/01/31 21:04:17.4	4.460	0.290	-0.100	0.270
2020/01/31 21:04:17.5	4.440	0.280	-0.080	0.310
2020/01/31 21:04:17.6	4.430	0.280	-0.070	0.340
2020/01/31 21:04:17.7	4.410	0.270	-0.050	0.370
2020/01/31 21:04:17.8	4.400	0.260	-0.040	0.400
2020/01/31 21:04:17.9	4.390	0.250	-0.030	0.420
2020/01/31 21:04:18.0	4.380	0.240	-0.020	0.430
2020/01/31 21:04:18.1	4.370	0.230	-0.010	0.450
2020/01/31 21:04:18.2	4.370	0.210	-0.010	0.460
2020/01/31 21:04:18.3	4.370	0.200	-0.010	0.470
2020/01/31 21:04:18.4	4.370	0.180	-0.010	0.470
2020/01/31 21:04:18.5	4.370	0.160	-0.020	0.470
2020/01/31 21:04:18.6	4.370	0.150	-0.030	0.460
2020/01/31 21:04:18.7	4.380	0.130	-0.040	0.450
2020/01/31 21:04:18.8	4.390	0.110	-0.060	0.430
2020/01/31 21:04:18.9	4.400	0.100	-0.080	0.420
2020/01/31 21:04:19.0	4.430	0.080	-0.100	0.400
2020/01/31 21:04:19.1	4.440	0.070	-0.130	0.370
2020/01/31 21:04:19.2	4.460	0.050	-0.160	0.350
2020/01/31 21:04:19.3	4.470	0.040	-0.190	0.330
2020/01/31 21:04:19.4	4.480	0.030	-0.220	0.300
2020/01/31 21:04:19.5	4.490	0.010	-0.250	0.280
2020/01/31 21:04:19.6	4.500	0.000	-0.280	0.260
2020/01/31 21:04:19.7	4.510	-0.010	-0.310	0.240
2020/01/31 21:04:19.8	4.510	-0.020	-0.340	0.220
2020/01/31 21:04:19.9	4.520	-0.020	-0.370	0.200
2020/01/31 21:04:20.0	4.530	-0.030	-0.400	0.190
2020/01/31 21:04:20.1	4.530	-0.040	-0.420	0.170
2020/01/31 21:04:20.2	4.530	-0.040	-0.450	0.150
2020/01/31 21:04:20.3	4.520	-0.050	-0.470	0.140
2020/01/31 21:04:20.4	4.510	-0.050	-0.490	0.130
2020/01/31 21:04:20.5	4.510	-0.050	-0.510	0.110
2020/01/31 21:04:20.6	4.490	-0.060	-0.520	0.100
2020/01/31 21:04:20.7	4.480	-0.060	-0.530	0.090
2020/01/31 21:04:20.8	4.470	-0.060	-0.540	0.080
2020/01/31 21:04:20.9	4.460	-0.060	-0.550	0.070
2020/01/31 21:04:21.0	4.430	-0.060	-0.550	0.060
2020/01/31 21:04:21.1	4.420	-0.060	-0.550	0.050
2020/01/31 21:04:21.2	4.410	-0.060	-0.550	0.040
2020/01/31 21:04:21.3	4.390	-0.050	-0.550	0.030
2020/01/31 21:04:21.4	4.380	-0.050	-0.550	0.020
2020/01/31 21:04:21.5	4.370	-0.050	-0.550	0.010
2020/01/31 21:04:21.6	4.360	-0.050	-0.540	0.000
2020/01/31 21:04:21.7	4.350	-0.050	-0.540	-0.010
2020/01/31 21:04:21.8	4.350	-0.040	-0.530	-0.020
2020/01/31 21:04:21.9	4.340	-0.040	-0.530	-0.030
2020/01/31 21:04:22.0	4.330	-0.040	-0.520	-0.050
2020/01/31 21:04:22.1	4.330	-0.040	-0.510	-0.060
2020/01/31 21:04:22.2	4.330	-0.040	-0.500	-0.070
2020/01/31 21:04:22.3	4.330	-0.040	-0.490	-0.080
2020/01/31 21:04:22.4	4.330	-0.040	-0.480	-0.100
2020/01/31 21:04:22.5	4.340	-0.040	-0.470	-0.110
2020/01/31 21:04:22.6	4.340	-0.050	-0.460	-0.130
2020/01/31 21:04:22.7	4.350	-0.050	-0.450	-0.140
2020/01/31 21:04:22.8	4.350	-0.060	-0.440	-0.160
2020/01/31 21:04:22.9	4.360	-0.060	-0.430	-0.170
2020/01/31 21:04:23.0	4.360	-0.070	-0.420	-0.190
2020/01/31 21:04:23.1	4.380	-0.080	-0.400	-0.210
2020/01/31 21:04:23.2	4.390	-0.090	-0.390	-0.230
2020/01/31 21:04:23.3	4.400	-0.100	-0.370	-0.250
2020/01/31 21:04:23.4	4.420	-0.110	-0.360	-0.270
2020/01/31 21:04:23.5	4.440	-0.120	-0.340	-0.290
2020/01/31 21:04:23.6	4.460	-0.140	-0.330	-0.310
2020/01/31 21:04:23.7	4.480	-0.150	-0.310	-0.340
2020/01/31 21:04:23.8	4.500	-0.170	-0.290	-0.360
2020/01/31 21:04:23.9	4.520	-0.180	-0.280	-0.390
2020/01/31 21:04:24.0	4.540	-0.200	-0.260	-0.410
2020/01/31 21:04:24.1	4.570	-0.210	-0.240	-0.440
2020/01/31 21:04:24.2	4.590	-0.220	-0.230	-0.460
2020/01/31 21:04:24.3	4.610	-0.240	-0.210	-0.480
2020/01/31 21:04:24.4	4.640	-0.250	-0.200	-0.510
2020/01/31 21:04:24.5	4.660	-0.260	-0.190	-0.530
2020/01/31 21:04:24.6	4.680	-0.270	-0.170	-0.550
2020/01/31 21:04:24.7	4.710	-0.280	-0.160	-0.560
2020/01/31 21:04:24.8	4.730	-0.290	-0.150	-0.580
2020/01/31 21:04:24.9	4.750	-0.300	-0.140	-0.590
2020/01/31 21:04:25.0	4.770	-0.300	-0.130	-0.600
2020/01/31 21:04:25.1	4.790	-0.300	-0.130	-0.610
2020/01/31 21:04:25.2	4.810	-0.310	-0.120	-0.610
2020/01/31 21:04:25.3	4.830	-0.300	-0.120	-0.610
2020/01/31 21:04:25.4	4.850	-0.300	-0.110	-0.600
2020/01/31 21:04:25.5	4.860	-0.300	-0.110	-0.600
2020/01/31 21:04:25.6	4.870	-0.290	-0.110	-0.590
2020/01/31 21:04:25.7	4.880	-0.280	-0.110	-0.570
2020/01/31 21:04:25.8	4.890	-0.270	-0.110	-0.550
2020/01/31 21:04:25.9	4.900	-0.250	-0.110	-0.530
2020/01/31 21:04:26.0	4.900	-0.230	-0.120	-0.500
2020/01/31 21:04:26.1	4.900	-0.220	-0.130	-0.470
2020/01/31 21:04:26.2	4.900	-0.200	-0.130	-0.440
2020/01/31 21:04:26.3	4.900	-0.170	-0.140	-0.400
2020/01/31 21:04:26.4	4.890	-0.150	-0.150	-0.360
2020/01/31 21:04:26.5	4.880	-0.130	-0.160	-0.320
2020/01/31 21:04:26.6	4.870	-0.100	-0.160	-0.280
2020/01/31 21:04:26.7	4.850	-0.070	-0.170	-0.240
2020/01/31 21:04:26.8	4.830	-0.040	-0.180	-0.190
2020/01/31 21:04:26.9	4.810	-0.010	-0.200	-0.140
2020/01/31 21:04:27.0	4.780	0.020	-0.210	-0.090
2020/01/31 21:04:27.1	4.750	0.050	-0.220	-0.040
2020/01/31 21:04:27.2	4.720	0.080	-0.230	0.010
2020/01/31 21:04:27.3	4.690	0.110	-0.240	0.070
2020/01/31 21:04:27.4	4.650	0.150	-0.250	0.120
2020/01/31 21:04:27.5	4.610	0.180	-0.260	0.170
2020/01/31 21:04:27.6	4.570	0.210	-0.260	0.220
2020/01/31 21:04:27.7	4.530	0.240	-0.270	0.280
2020/01/31 21:04:27.8	4.480	0.270	-0.280	0.330
2020/01/31 21:04:27.9	4.440	0.300	-0.290	0.380
2020/01/31 21:04:28.0	4.400	0.340	-0.290	0.420
2020/01/31 21:04:28.1	4.360	0.370	-0.300	0.470
2020/01/31 21:04:28.2	4.310	0.390	-0.300	0.520
2020/01/31 21:04:28.3	4.270	0.420	-0.310	0.560
2020/01/31 21:04:28.4	4.220	0.450	-0.310	0.600
2020/01/31 21:04:28.5	4.180	0.470	-0.310	0.640
2020/01/31 21:04:28.6	4.150	0.500	-0.320	0.670
2020/01/31 21:04:28.7	4.110	0.520	-0.320	0.700
2020/01/31 21:04:28.8	4.080	0.540	-0.320	0.730
2020/01/31 21:04:28.9	4.050	0.560	-0.330	0.750
2020/01/31 21:04:29.0	4.030	0.570	-0.330	0.770
2020/01/31 21:04:29.1	4.010	0.590	-0.340	0.780
2020/01/31 21:04:29.2	3.990	0.600	-0.340	0.790
2020/01/31 21:04:29.3	3.980	0.600	-0.340	0.790
2020/01/31 21:04:29.4	3.970	0.610	-0.340	0.790
2020/01/31 21:04:29.5	3.960	0.610	-0.340	0.770
2020/01/31 21:04:29.6	3.960	0.600	-0.340	0.760
2020/01/31 21:04:29.7	3.960	0.600	-0.340	0.740
2020/01/31 21:04:29.8	3.960	0.580	-0.330	0.710
2020/01/31 21:04:29.9	3.960	0.570	-0.330	0.680
2020/01/31 21:04:30.0	3.960	0.550	-0.320	0.650
2020/01/31 21:04:30.1	3.970	0.520	-0.310	0.610
2020/01/31 21:04:30.2	3.980	0.500	-0.300	0.560
2020/01/31 21:04:30.3	3.990	0.460	-0.290	0.520
2020/01/31 21:04:30.4	4.000	0.430	-0.280	0.470
2020/01/31 21:04:30.5	4.020	0.390	-0.260	0.410
2020/01/31 21:04:30.6	4.040	0.350	-0.240	0.360
2020/01/31 21:04:30.7	4.050	0.300	-0.230	0.300
2020/01/31 21:04:30.8	4.070	0.250	-0.210	0.250
2020/01/31 21:04:30.9	4.090	0.200	-0.180	0.190
2020/01/31 21:04:31.0	4.120	0.150	-0.160	0.130
2020/01/31 21:04:31.1	4.140	0.090	-0.140	0.070
2020/01/31 21:04:31.2	4.170	0.030	-0.110	0.020
2020/01/31 21:04:31.3	4.190	-0.020	-0.080	-0.040
2020/01/31 21:04:31.4	4.220	-0.080	-0.060	-0.090
2020/01/31 21:04:31.5	4.240	-0.140	-0.030	-0.140
2020/01/31 21:04:31.6	4.260	-0.200	0.000	-0.190
2020/01/31 21:04:31.7	4.290	-0.260	0.030	-0.240
2020/01/31 21:04:31.8	4.310	-0.320	0.060	-0.280
2020/01/31 21:04:31.9	4.340	-0.370	0.080	-0.320
2020/01/31 21:04:32.0	4.350	-0.420	0.110	-0.370
2020/01/31 21:04:32.1	4.380	-0.470	0.140	-0.400
2020/01/31 21:04:32.2	4.400	-0.520	0.160	-0.430
2020/01/31 21:04:32.3	4.420	-0.560	0.180	-0.460
2020/01/31 21:04:32.4	4.440	-0.600	0.190	-0.480
2020/01/31 21:04:32.5	4.460	-0.640	0.210	-0.500
2020/01/31 21:04:32.6	4.480	-0.670	0.220	-0.520
2020/01/31 21:04:32.7	4.500	-0.690	0.220	-0.530
2020/01/31 21:04:32.8	4.510	-0.710	0.220	-0.540
2020/01/31 21:04:32.9	4.530	-0.730	0.220	-0.550
2020/01/31 21:04:33.0	4.530	-0.730	0.210	-0.560
2020/01/31 21:04:33.1	4.540	-0.740	0.200	-0.560
2020/01/31 21:04:33.2	4.550	-0.740	0.190	-0.550
2020/01/31 21:04:33.3	4.560	-0.730	0.170	-0.550
2020/01/31 21:04:33.4	4.570	-0.720	0.150	-0.540
2020/01/31 21:04:33.5	4.580	-0.700	0.120	-0.530
2020/01/31 21:04:33.6	4.580	-0.670	0.090	-0.520
2020/01/31 21:04:33.7	4.580	-0.650	0.050	-0.510
2020/01/31 21:04:33.8	4.590	-0.620	0.010	-0.500
2020/01/31 21:04:33.9	4.590	-0.580	-0.030	-0.490
2020/01/31 21:04:34.0	4.590	-0.540	-0.080	-0.470
2020/01/31 21:04:34.1	4.590	-0.500	-0.130	-0.460
2020/01/31 21:04:34.2	4.580	-0.450	-0.180	-0.440
2020/01/31 21:04:34.3	4.580	-0.410	-0.230	-0.430
2020/01/31 21:04:34.4	4.580	-0.360	-0.290	-0.410
2020/01/31 21:04:34.5	4.580	-0.310	-0.340	-0.400
2020/01/31 21:04:34.6	4.570	-0.260	-0.400	-0.380
2020/01/31 21:04:34.7	4.570	-0.210	-0.460	-0.360
2020/01/31 21:04:34.8	4.560	-0.160	-0.510	-0.350
2020/01/31 21:04:34.9	4.560	-0.110	-0.570	-0.330
2020/01/31 21:04:35.0	4.550	-0.060	-0.620	-0.310
2020/01/31 21:04:35.1	4.540	-0.010	-0.670	-0.290
2020/01/31 21:04:35.2	4.530	0.030	-0.720	-0.270
2020/01/31 21:04:35.3	4.520	0.070	-0.760	-0.250
2020/01/31 21:04:35.4	4.510	0.110	-0.800	-0.230
2020/01/31 21:04:35.5	4.500	0.150	-0.830	-0.210
2020/01/31 21:04:35.6	4.490	0.180	-0.860	-0.190
2020/01/31 21:04:35.7	4.480	0.210	-0.880	-0.170
2020/01/31 21:04:35.8	4.460	0.240	-0.900	-0.150
2020/01/31 21:04:35.9	4.450	0.260	-0.910	-0.130
2020/01/31 21:04:36.0	4.430	0.280	-0.920	-0.100
2020/01/31 21:04:36.1	4.410	0.290	-0.920	-0.080
2020/01/31 21:04:36.2	4.400	0.300	-0.910	-0.060
2020/01/31 21:04:36.3	4.380	0.310	-0.900	-0.040
2020/01/31 21:04:36.4	4.370	0.310	-0.890	-0.020
2020/01/31 21:04:36.5	4.350	0.310	-0.860	0.000
2020/01/31 21:04:36.6	4.330	0.300	-0.840	0.020
2020/01/31 21:04:36.7	4.320	0.300	-0.810	0.040
2020/01/31 21:04:36.8	4.300	0.280	-0.770	0.060
2020/01/31 21:04:36.9	4.290	0.270	-0.730	0.070
2020/01/31 21:04:37.0	4.280	0.260	-0.690	0.090
2020/01/31 21:04:37.1	4.270	0.240	-0.650	0.100
2020/01/31 21:04:37.2	4.250	0.220	-0.600	0.110
2020/01/31 21:04:37.3	4.240	0.200	-0.560	0.110
2020/01/31 21:04:37.4	4.240	0.180	-0.510	0.120
2020/01/31 21:04:37.5	4.230	0.160	-0.470	0.120
2020/01/31 21:04:37.6	4.230	0.140	-0.430	0.120
2020/01/31 21:04:37.7	4.230	0.120	-0.390	0.110
2020/01/31 21:04:37.8	4.230	0.100	-0.350	0.100
2020/01/31 21:04:37.9	4.230	0.080	-0.310	0.090
2020/01/31 21:04:38.0	4.230	0.060	-0.280	0.070
2020/01/31 21:04:38.1	4.240	0.050	-0.250	0.050
2020/01/31 21:04:38.2	4.250	0.030	-0.220	0.020
2020/01/31 21:04:38.3	4.260	0.020	-0.200	-0.000
2020/01/31 21:04:38.4	4.270	0.010	-0.180	-0.030
2020/01/31 21:04:38.5	4.290	0.000	-0.160	-0.060
2020/01/31 21:04:38.6	4.300	0.000	-0.150	-0.090
2020/01/31 21:04:38.7	4.320	-0.000	-0.140	-0.120
2020/01/31 21:04:38.8	4.340	0.000	-0.130	-0.150
2020/01/31 21:04:38.9	4.350	0.010	-0.130	-0.180
2020/01/31 21:04:39.0	4.370	0.010	-0.130	-0.210
2020/01/31 21:04:39.1	4.390	0.020	-0.130	-0.230
2020/01/31 21:04:39.2	4.410	0.030	-0.140	-0.260
2020/01/31 21:04:39.3	4.420	0.050	-0.140	-0.280
2020/01/31 21:04:39.4	4.440	0.060	-0.150	-0.310
2020/01/31 21:04:39.5	4.450	0.080	-0.160	-0.330
2020/01/31 21:04:39.6	4.460	0.100	-0.170	-0.340
2020/01/31 21:04:39.7	4.470	0.120	-0.170	-0.360
2020/01/31 21:04:39.8	4.480	0.140	-0.180	-0.370
2020/01/31 21:04:39.9	4.490	0.170	-0.190	-0.380
2020/01/31 21:04:40.0	4.500	0.190	-0.200	-0.380
2020/01/31 21:04:40.1	4.500	0.210	-0.200	-0.380
2020/01/31 21:04:40.2	4.500	0.230	-0.200	-0.380
2020/01/31 21:04:40.3	4.500	0.250	-0.200	-0.370
2020/01/31 21:04:40.4	4.500	0.270	-0.200	-0.360
2020/01/31 21:04:40.5	4.490	0.290	-0.190	-0.350
2020/01/31 21:04:40.6	4.490	0.310	-0.180	-0.330
2020/01/31 21:04:40.7	4.480	0.320	-0.170	-0.310
2020/01/31 21:04:40.8	4.470	0.330	-0.150	-0.290
2020/01/31 21:04:40.9	4.460	0.340	-0.140	-0.270
2020/01/31 21:04:41.0	4.460	0.350	-0.110	-0.240
2020/01/31 21:04:41.1	4.450	0.350	-0.090	-0.220
2020/01/31 21:04:41.2	4.430	0.360	-0.060	-0.190
2020/01/31 21:04:41.3	4.410	0.350	-0.040	-0.160
2020/01/31 21:04:41.4	4.400	0.350	-0.010	-0.120
2020/01/31 21:04:41.5	4.380	0.340	0.020	-0.090
2020/01/31 21:04:41.6	4.360	0.330	0.050	-0.060
2020/01/31 21:04:41.7	4.340	0.320	0.080	-0.020
2020/01/31 21:04:41.8	4.320	0.300	0.110	0.010
2020/01/31 21:04:41.9	4.300	0.280	0.140	0.050
2020/01/31 21:04:42.0	4.270	0.260	0.170	0.090
2020/01/31 21:04:42.1	4.250	0.230	0.200	0.120
2020/01/31 21:04:42.2	4.220	0.210	0.220	0.150
2020/01/31 21:04:42.3	4.200	0.180	0.250	0.180
2020/01/31 21:04:42.4	4.180	0.150	0.270	0.210
2020/01/31 21:04:42.5	4.160	0.120	0.290	0.240
2020/01/31 21:04:42.6	4.140	0.090	0.300	0.260
2020/01/31 21:04:42.7	4.120	0.060	0.320	0.290
2020/01/31 21:04:42.8	4.100	0.020	0.320	0.310
2020/01/31 21:04:42.9	4.090	-0.010	0.330	0.320
2020/01/31 21:04:43.0	4.070	-0.040	0.320	0.340
2020/01/31 21:04:43.1	4.060	-0.070	0.320	0.350
2020/01/31 21:04:43.2	4.040	-0.100	0.310	0.360
2020/01/31 21:04:43.3	4.030	-0.130	0.300	0.360
2020/01/31 21:04:43.4	4.020	-0.160	0.280	0.370
2020/01/31 21:04:43.5	4.020	-0.190	0.260	0.360
2020/01/31 21:04:43.6	4.010	-0.210	0.230	0.360
2020/01/31 21:04:43.7	4.010	-0.240	0.200	0.350
2020/01/31 21:04:43.8	4.000	-0.260	0.170	0.340
2020/01/31 21:04:43.9	4.000	-0.280	0.130	0.330
2020/01/31 21:04:44.0	4.000	-0.300	0.090	0.310
2020/01/31 21:04:44.1	4.010	-0.310	0.050	0.290
2020/01/31 21:04:44.2	4.010	-0.330	0.010	0.270
2020/01/31 21:04:44.3	4.020	-0.340	-0.030	0.250
2020/01/31 21:04:44.4	4.020	-0.350	-0.080	0.220
2020/01/31 21:04:44.5	4.030	-0.360	-0.130	0.190
2020/01/31 21:04:44.6	4.040	-0.360	-0.180	0.170
2020/01/31 21:04:44.7	4.060	-0.370	-0.220	0.140
2020/01/31 21:04:44.8	4.070	-0.370	-0.270	0.110
2020/01/31 21:04:44.9	4.090	-0.370	-0.320	0.070
2020/01/31 21:04:45.0	4.100	-0.370	-0.370	0.040
2020/01/31 21:04:45.1	4.110	-0.370	-0.420	0.000
2020/01/31 21:04:45.2	4.130	-0.370	-0.460	-0.030
2020/01/31 21:04:45.3	4.150	-0.360	-0.510	-0.070
2020/01/31 21:04:45.4	4.180	-0.350	-0.550	-0.100
2020/01/31 21:04:45.5	4.200	-0.340	-0.600	-0.140
2020/01/31 21:04:45.6	4.220	-0.330	-0.640	-0.170
2020/01/31 21:04:45.7	4.250	-0.320	-0.680	-0.210
2020/01/31 21:04:45.8	4.270	-0.310	-0.710	-0.250
2020/01/31 21:04:45.9	4.300	-0.300	-0.750	-0.280
2020/01/31 21:04:46.0	4.320	-0.280	-0.780	-0.320
2020/01/31 21:04:46.1	4.350	-0.270	-0.800	-0.350
2020/01/31 21:04:46.2	4.370	-0.250	-0.830	-0.380
2020/01/31 21:04:46.3	4.390	-0.240	-0.850	-0.410
2020/01/31 21:04:46.4	4.410	-0.220	-0.870	-0.440
2020/01/31 21:04:46.5	4.430	-0.200	-0.880	-0.460
2020/01/31 21:04:46.6	4.450	-0.180	-0.890	-0.480
2020/01/31 21:04:46.7	4.460	-0.170	-0.900	-0.500
2020/01/31 21:04:46.8	4.470	-0.150	-0.900	-0.510
2020/01/31 21:04:46.9	4.480	-0.130	-0.890	-0.520
2020/01/31 21:04:47.0	4.470	-0.110	-0.890	-0.520
2020/01/31 21:04:47.1	4.470	-0.100	-0.870	-0.520
2020/01/31 21:04:47.2	4.470	-0.080	-0.860	-0.510
2020/01/31 21:04:47.3	4.470	-0.060	-0.840	-0.510
2020/01/31 21:04:47.4	4.460	-0.050	-0.810	-0.490
2020/01/31 21:04:47.5	4.450	-0.030	-0.780	-0.470
2020/01/31 21:04:47.6	4.430	-0.010	-0.750	-0.450
2020/01/31 21:04:47.7	4.420	-0.000	-0.720	-0.430
2020/01/31 21:04:47.8	4.400	0.010	-0.680	-0.400
2020/01/31 21:04:47.9	4.380	0.030	-0.640	-0.370
2020/01/31 21:04:48.0	4.360	0.040	-0.600	-0.330
2020/01/31 21:04:48.1	4.340	0.050	-0.560	-0.290
2020/01/31 21:04:48.2	4.310	0.060	-0.510	-0.260
2020/01/31 21:04:48.3	4.290	0.070	-0.470	-0.220
2020/01/31 21:04:48.4	4.260	0.080	-0.430	-0.180
2020/01/31 21:04:48.5	4.230	0.090	-0.380	-0.150
2020/01/31 21:04:48.6	4.200	0.100	-0.340	-0.110
2020/01/31 21:04:48.7	4.170	0.110	-0.300	-0.070
2020/01/31 21:04:48.8	4.150	0.120	-0.260	-0.030
2020/01/31 21:04:48.9	4.120	0.130	-0.220	0.000
2020/01/31 21:04:49.0	4.080	0.140	-0.180	0.040
2020/01/31 21:04:49.1	4.050	0.150	-0.150	0.070
2020/01/31 21:04:49.2	4.030	0.150	-0.120	0.110
2020/01/31 21:04:49.3	4.000	0.160	-0.090	0.140
2020/01/31 21:04:49.4	3.970	0.170	-0.060	0.170
2020/01/31 21:04:49.5	3.940	0.180	-0.040	0.200
2020/01/31 21:04:49.6	3.920	0.190	-0.020	0.230
2020/01/31 21:04:49.7	3.900	0.190	0.000	0.260
2020/01/31 21:04:49.8	3.880	0.200	0.020	0.280
2020/01/31 21:04:49.9	3.860	0.210	0.030	0.310
2020/01/31 21:04:50.0	3.840	0.220	0.040	0.320
2020/01/31 21:04:50.1	3.830	0.230	0.050	0.340
2020/01/31 21:04:50.2	3.820	0.230	0.060	0.360
2020/01/31 21:04:50.3	3.810	0.240	0.060	0.370
2020/01/31 21:04:50.4	3.800	0.250	0.060	0.380
2020/01/31 21:04:50.5	3.800	0.250	0.060	0.380
2020/01/31 21:04:50.6	3.800	0.260	0.050	0.390
2020/01/31 21:04:50.7	3.800	0.260	0.050	0.390
2020/01/31 21:04:50.8	3.800	0.270	0.040	0.390
2020/01/31 21:04:50.9	3.800	0.270	0.030	0.390
2020/01/31 21:04:51.0	3.810	0.270	0.020	0.380
2020/01/31 21:04:51.1	3.820	0.270	0.010	0.380
2020/01/31 21:04:51.2	3.820	0.270	0.000	0.370
2020/01/31 21:04:51.3	3.830	0.260	-0.010	0.360
2020/01/31 21:04:51.4	3.830	0.260	-0.020	0.350
2020/01/31 21:04:51.5	3.840	0.250	-0.030	0.340
2020/01/31 21:04:51.6	3.840	0.240	-0.040	0.330
2020/01/31 21:04:51.7	3.850	0.230	-0.050	0.320
2020/01/31 21:04:51.8	3.850	0.220	-0.060	0.300
2020/01/31 21:04:51.9	3.850	0.200	-0.070	0.290
2020/01/31 21:04:52.0	3.850	0.190	-0.090	0.270
2020/01/31 21:04:52.1	3.850	0.170	-0.100	0.250
2020/01/31 21:04:52.2	3.860	0.150	-0.110	0.230
2020/01/31 21:04:52.3	3.860	0.130	-0.130	0.200
2020/01/31 21:04:52.4	3.860	0.110	-0.140	0.180
2020/01/31 21:04:52.5	3.860	0.090	-0.150	0.150
2020/01/31 21:04:52.6	3.870	0.070	-0.170	0.130
2020/01/31 21:04:52.7	3.870	0.050	-0.180	0.100
2020/01/31 21:04:52.8	3.880	0.030	-0.200	0.070
2020/01/31 21:04:52.9	3.890	0.010	-0.220	0.030
2020/01/31 21:04:53.0	3.910	-0.010	-0.230	0.000
2020/01/31 21:04:53.1	3.920	-0.030	-0.250	-0.030
2020/01/31 21:04:53.2	3.930	-0.050	-0.270	-0.070
2020/01/31 21:04:53.3	3.940	-0.070	-0.290	-0.100
2020/01/31 21:04:53.4	3.960	-0.080	-0.320	-0.140
2020/01/31 21:04:53.5	3.970	-0.100	-0.340	-0.180
2020/01/31 21:04:53.6	3.990	-0.110	-0.370	-0.220
2020/01/31 21:04:53.7	4.010	-0.120	-0.390	-0.250
2020/01/31 21:04:53.8	4.030	-0.130	-0.420	-0.290
2020/01/31 21:04:53.9	4.040	-0.130	-0.440	-0.330
2020/01/31 21:04:54.0	4.070	-0.140	-0.470	-0.360
2020/01/31 21:04:54.1	4.090	-0.140	-0.490	-0.400
2020/01/31 21:04:54.2	4.110	-0.140	-0.510	-0.430
2020/01/31 21:04:54.3	4.130	-0.140	-0.530	-0.460
2020/01/31 21:04:54.4	4.140	-0.140	-0.550	-0.490
2020/01/31 21:04:54.5	4.160	-0.140	-0.570	-0.510
2020/01/31 21:04:54.6	4.180	-0.140	-0.580	-0.540
2020/01/31 21:04:54.7	4.190	-0.130	-0.590	-0.560
2020/01/31 21:04:54.8	4.200	-0.130	-0.590	-0.570
2020/01/31 21:04:54.9	4.210	-0.130	-0.590	-0.590
2020/01/31 21:04:55.0	4.220	-0.130	-0.590	-0.600
2020/01/31 21:04:55.1	4.220	-0.120	-0.580	-0.600
2020/01/31 21:04:55.2	4.220	-0.120	-0.560	-0.610
2020/01/31 21:04:55.3	4.220	-0.120	-0.540	-0.610
2020/01/31 21:04:55.4	4.220	-0.120	-0.520	-0.610
2020/01/31 21:04:55.5	4.210	-0.120	-0.490	-0.600
2020/01/31 21:04:55.6	4.200	-0.120	-0.450	-0.590
2020/01/31 21:04:55.7	4.190	-0.120	-0.410	-0.570
2020/01/31 21:04:55.8	4.180	-0.130	-0.370	-0.560
2020/01/31 21:04:55.9	4.160	-0.130	-0.320	-0.530
2020/01/31 21:04:56.0	4.150	-0.130	-0.270	-0.510
2020/01/31 21:04:56.1	4.130	-0.140	-0.210	-0.490
2020/01/31 21:04:56.2	4.110	-0.140	-0.150	-0.460
2020/01/31 21:04:56.3	4.090	-0.150	-0.090	-0.420
2020/01/31 21:04:56.4	4.070	-0.160	-0.030	-0.390
2020/01/31 21:04:56.5	4.050	-0.160	0.030	-0.350
2020/01/31 21:04:56.6	4.030	-0.170	0.090	-0.310
2020/01/31 21:04:56.7	4.000	-0.170	0.140	-0.270
2020/01/31 21:04:56.8	3.980	-0.180	0.200	-0.230
2020/01/31 21:04:56.9	3.960	-0.180	0.250	-0.190
2020/01/31 21:04:57.0	3.930	-0.190	0.300	-0.150
2020/01/31 21:04:57.1	3.910	-0.190	0.350	-0.110
2020/01/31 21:04:57.2	3.890	-0.190	0.380	-0.070
2020/01/31 21:04:57.3	3.880	-0.190	0.420	-0.020
2020/01/31 21:04:57.4	3.860	-0.190	0.440	0.010
2020/01/31 21:04:57.5	3.850	-0.180	0.460	0.050
2020/01/31 21:04:57.6	3.840	-0.180	0.470	0.090
2020/01/31 21:04:57.7	3.830	-0.170	0.460	0.120
2020/01/31 21:04:57.8	3.830	-0.160	0.460	0.150
2020/01/31 21:04:57.9	3.820	-0.150	0.440	0.180
2020/01/31 21:04:58.0	3.820	-0.130	0.410	0.210
2020/01/31 21:04:58.1	3.820	-0.120	0.380	0.230
2020/01/31 21:04:58.2	3.820	-0.100	0.340	0.250
2020/01/31 21:04:58.3	3.830	-0.080	0.290	0.260
2020/01/31 21:04:58.4	3.830	-0.060	0.230	0.270
2020/01/31 21:04:58.5	3.830	-0.030	0.170	0.280
2020/01/31 21:04:58.6	3.840	-0.010	0.100	0.290
2020/01/31 21:04:58.7	3.850	0.020	0.020	0.290
2020/01/31 21:04:58.8	3.850	0.040	-0.060	0.290
2020/01/31 21:04:58.9	3.860	0.070	-0.140	0.290
2020/01/31 21:04:59.0	3.890	0.090	-0.220	0.280
2020/01/31 21:04:59.1	3.900	0.120	-0.310	0.270
2020/01/31 21:04:59.2	3.900	0.150	-0.400	0.260
2020/01/31 21:04:59.3	3.910	0.170	-0.490	0.250
2020/01/31 21:04:59.4	3.920	0.200	-0.570	0.230
2020/01/31 21:04:59.5	3.930	0.230	-0.660	0.210
2020/01/31 21:04:59.6	3.940	0.250	-0.740	0.190
2020/01/31 21:04:59.7	3.960	0.270	-0.820	0.160
2020/01/31 21:04:59.8	3.970	0.300	-0.900	0.140
2020/01/31 21:04:59.9	3.980	0.320	-0.970	0.110
2020/01/31 21:05:00.0	4.000	0.340	-1.030	0.080
2020/01/31 21:05:00.1	4.020	0.350	-1.090	0.050
2020/01/31 21:05:00.2	4.030	0.370	-1.140	0.020
2020/01/31 21:05:00.3	4.050	0.380	-1.180	-0.000
2020/01/31 21:05:00.4	4.060	0.390	-1.220	-0.030
2020/01/31 21:05:00.5	4.080	0.400	-1.240	-0.060
2020/01/31 21:05:00.6	4.100	0.410	-1.260	-0.090
2020/01/31 21:05:00.7	4.110	0.410	-1.270	-0.110
2020/01/31 21:05:00.8	4.130	0.410	-1.270	-0.140
2020/01/31 21:05:00.9	4.150	0.410	-1.260	-0.160
2020/01/31 21:05:01.0	4.170	0.410	-1.240	-0.180
2020/01/31 21:05:01.1	4.190	0.400	-1.210	-0.200
2020/01/31 21:05:01.2	4.210	0.390	-1.170	-0.220
2020/01/31 21:05:01.3	4.230	0.380	-1.120	-0.230
2020/01/31 21:05:01.4	4.250	0.360	-1.070	-0.240
2020/01/31 21:05:01.5	4.260	0.340	-1.010	-0.250
2020/01/31 21:05:01.6	4.280	0.320	-0.930	-0.260
2020/01/31 21:05:01.7	4.290	0.300	-0.860	-0.260
2020/01/31 21:05:01.8	4.300	0.270	-0.770	-0.260
2020/01/31 21:05:01.9	4.310	0.240	-0.680	-0.260
2020/01/31 21:05:02.0	4.310	0.210	-0.590	-0.250
2020/01/31 21:05:02.1	4.310	0.180	-0.490	-0.240
2020/01/31 21:05:02.2	4.310	0.140	-0.380	-0.220
2020/01/31 21:05:02.3	4.310	0.100	-0.280	-0.200
2020/01/31 21:05:02.4	4.300	0.060	-0.170	-0.180
2020/01/31 21:05:02.5	4.290	0.010	-0.060	-0.150
2020/01/31 21:05:02.6	4.280	-0.030	0.050	-0.120
2020/01/31 21:05:02.7	4.260	-0.070	0.160	-0.090
2020/01/31 21:05:02.8	4.240	-0.120	0.260	-0.060
2020/01/31 21:05:02.9	4.220	-0.170	0.360	-0.020
2020/01/31 21:05:03.0	4.180	-0.210	0.460	0.020
2020/01/31 21:05:03.1	4.150	-0.260	0.550	0.050
2020/01/31 21:05:03.2	4.120	-0.300	0.640	0.090
2020/01/31 21:05:03.3	4.090	-0.350	0.720	0.130
2020/01/31 21:05:03.4	4.060	-0.390	0.790	0.170
2020/01/31 21:05:03.5	4.030	-0.430	0.860	0.210
2020/01/31 21:05:03.6	3.990	-0.470	0.910	0.240
2020/01/31 21:05:03.7	3.960	-0.500	0.960	0.280
2020/01/31 21:05:03.8	3.930	-0.530	1.000	0.310
2020/01/31 21:05:03.9	3.890	-0.560	1.020	0.340
2020/01/31 21:05:04.0	3.860	-0.590	1.040	0.370
2020/01/31 21:05:04.1	3.830	-0.610	1.050	0.390
2020/01/31 21:05:04.2	3.800	-0.630	1.040	0.410
2020/01/31 21:05:04.3	3.760	-0.640	1.020	0.430
2020/01/31 21:05:04.4	3.730	-0.650	1.000	0.450
2020/01/31 21:05:04.5	3.700	-0.650	0.960	0.460
2020/01/31 21:05:04.6	3.670	-0.650	0.920	0.460
2020/01/31 21:05:04.7	3.640	-0.650	0.860	0.470
2020/01/31 21:05:04.8	3.610	-0.640	0.800	0.470
2020/01/31 21:05:04.9	3.580	-0.630	0.730	0.460
2020/01/31 21:05:05.0	3.560	-0.610	0.650	0.450
2020/01/31 21:05:05.1	3.540	-0.590	0.560	0.440
2020/01/31 21:05:05.2	3.520	-0.560	0.470	0.420
2020/01/31 21:05:05.3	3.500	-0.530	0.370	0.400
2020/01/31 21:05:05.4	3.490	-0.500	0.260	0.370
2020/01/31 21:05:05.5	3.480	-0.470	0.150	0.340
2020/01/31 21:05:05.6	3.470	-0.430	0.040	0.300
2020/01/31 21:05:05.7	3.470	-0.380	-0.080	0.270
2020/01/31 21:05:05.8	3.470	-0.340	-0.200	0.230
2020/01/31 21:05:05.9	3.470	-0.290	-0.320	0.180
2020/01/31 21:05:06.0	3.470	-0.240	-0.440	0.140
2020/01/31 21:05:06.1	3.480	-0.190	-0.560	0.090
2020/01/31 21:05:06.2	3.500	-0.140	-0.680	0.040
2020/01/31 21:05:06.3	3.510	-0.090	-0.790	-0.010
2020/01/31 21:05:06.4	3.540	-0.030	-0.910	-0.060
2020/01/31 21:05:06.5	3.560	0.020	-1.020	-0.100
2020/01/31 21:05:06.6	3.590	0.080	-1.130	-0.150
2020/01/31 21:05:06.7	3.620	0.130	-1.230	-0.200
2020/01/31 21:05:06.8	3.650	0.190	-1.320	-0.250
2020/01/31 21:05:06.9	3.690	0.240	-1.410	-0.290
2020/01/31 21:05:07.0	3.730	0.290	-1.490	-0.340
2020/01/31 21:05:07.1	3.770	0.340	-1.560	-0.380
2020/01/31 21:05:07.2	3.810	0.380	-1.610	-0.420
2020/01/31 21:05:07.3	3.860	0.420	-1.660	-0.460
2020/01/31 21:05:07.4	3.900	0.460	-1.700	-0.500
2020/01/31 21:05:07.5	3.950	0.500	-1.730	-0.530
2020/01/31 21:05:07.6	3.990	0.530	-1.750	-0.570
2020/01/31 21:05:07.7	4.040	0.560	-1.750	-0.600
2020/01/31 21:05:07.8	4.080	0.590	-1.750	-0.630
2020/01/31 21:05:07.9	4.130	0.610	-1.730	-0.650
2020/01/31 21:05:08.0	4.180	0.620	-1.700	-0.670
2020/01/31 21:05:08.1	4.220	0.640	-1.660	-0.690
2020/01/31 21:05:08.2	4.260	0.650	-1.610	-0.700
2020/01/31 21:05:08.3	4.300	0.650	-1.550	-0.710
2020/01/31 21:05:08.4	4.340	0.650	-1.480	-0.710
2020/01/31 21:05:08.5	4.380	0.640	-1.390	-0.710
2020/01/31 21:05:08.6	4.410	0.630	-1.300	-0.700
2020/01/31 21:05:08.7	4.440	0.620	-1.200	-0.680
2020/01/31 21:05:08.8	4.470	0.600	-1.100	-0.660
2020/01/31 21:05:08.9	4.500	0.580	-0.980	-0.640
2020/01/31 21:05:09.0	4.530	0.560	-0.860	-0.610
2020/01/31 21:05:09.1	4.550	0.530	-0.740	-0.580
2020/01/31 21:05:09.2	4.560	0.500	-0.610	-0.540
2020/01/31 21:05:09.3	4.580	0.470	-0.480	-0.500
2020/01/31 21:05:09.4	4.590	0.430	-0.350	-0.450
2020/01/31 21:05:09.5	4.590	0.400	-0.220	-0.410
2020/01/31 21:05:09.6	4.600	0.360	-0.090	-0.360
2020/01/31 21:05:09.7	4.600	0.310	0.040	-0.300
2020/01/31 21:05:09.8	4.600	0.270	0.160	-0.250
2020/01/31 21:05:09.9	4.590	0.230	0.280	-0.200
2020/01/31 21:05:10.0	4.590	0.180	0.390	-0.140
2020/01/31 21:05:10.1	4.580	0.140	0.500	-0.080
2020/01/31 21:05:10.2	4.570	0.090	0.600	-0.030
2020/01/31 21:05:10.3	4.550	0.040	0.690	0.020
2020/01/31 21:05:10.4	4.530	0.000	0.780	0.070
2020/01/31 21:05:10.5	4.510	-0.040	0.850	0.120
2020/01/31 21:05:10.6	4.490	-0.090	0.920	0.170
2020/01/31 21:05:10.7	4.470	-0.130	0.970	0.210
2020/01/31 21:05:10.8	4.450	-0.160	1.020	0.250
2020/01/31 21:05:10.9	4.420	-0.200	1.060	0.290
2020/01/31 21:05:11.0	4.400	-0.230	1.080	0.330
2020/01/31 21:05:11.1	4.370	-0.260	1.090	0.360
2020/01/31 21:05:11.2	4.340	-0.290	1.100	0.390
2020/01/31 21:05:11.3	4.310	-0.320	1.090	0.410
2020/01/31 21:05:11.4	4.290	-0.340	1.080	0.430
2020/01/31 21:05:11.5	4.260	-0.360	1.050	0.450
2020/01/31 21:05:11.6	4.230	-0.370	1.020	0.470
2020/01/31 21:05:11.7	4.200	-0.380	0.980	0.480
2020/01/31 21:05:11.8	4.180	-0.390	0.930	0.480
2020/01/31 21:05:11.9	4.150	-0.390	0.870	0.480
2020/01/31 21:05:12.0	4.130	-0.390	0.800	0.480
2020/01/31 21:05:12.1	4.100	-0.390	0.730	0.480
2020/01/31 21:05:12.2	4.080	-0.380	0.660	0.470
2020/01/31 21:05:12.3	4.060	-0.380	0.570	0.460
2020/01/31 21:05:12.4	4.040	-0.360	0.490	0.440
2020/01/31 21:05:12.5	4.020	-0.350	0.400	0.420
2020/01/31 21:05:12.6	4.000	-0.330	0.310	0.400
2020/01/31 21:05:12.7	3.980	-0.320	0.220	0.380
2020/01/31 21:05:12.8	3.970	-0.300	0.120	0.350
2020/01/31 21:05:12.9	3.950	-0.270	0.020	0.310
2020/01/31 21:05:13.0	3.950	-0.250	-0.070	0.280
2020/01/31 21:05:13.1	3.940	-0.230	-0.170	0.240
2020/01/31 21:05:13.2	3.940	-0.200	-0.270	0.200
2020/01/31 21:05:13.3	3.930	-0.180	-0.360	0.150
2020/01/31 21:05:13.4	3.930	-0.150	-0.450	0.110
2020/01/31 21:05:13.5	3.930	-0.130	-0.540	0.060
2020/01/31 21:05:13.6	3.930	-0.100	-0.630	0.010
2020/01/31 21:05:13.7	3.930	-0.080	-0.720	-0.040
2020/01/31 21:05:13.8	3.940	-0.060	-0.800	-0.090
2020/01/31 21:05:13.9	3.940	-0.030	-0.870	-0.140
2020/01/31 21:05:14.0	3.950	-0.010	-0.940	-0.180
2020/01/31 21:05:14.1	3.960	0.010	-1.010	-0.230
2020/01/31 21:05:14.2	3.970	0.030	-1.070	-0.280
2020/01/31 21:05:14.3	3.990	0.050	-1.130	-0.330
2020/01/31 21:05:14.4	4.000	0.060	-1.170	-0.370
2020/01/31 21:05:14.5	4.020	0.080	-1.210	-0.410
2020/01/31 21:05:14.6	4.040	0.090	-1.250	-0.450
2020/01/31 21:05:14.7	4.050	0.110	-1.270	-0.490
2020/01/31 21:05:14.8	4.070	0.120	-1.290	-0.530
2020/01/31 21:05:14.9	4.090	0.130	-1.300	-0.560
2020/01/31 21:05:15.0	4.110	0.130	-1.310	-0.600
2020/01/31 21:05:15.1	4.130	0.140	-1.300	-0.620
2020/01/31 21:05:15.2	4.150	0.140	-1.290	-0.650
2020/01/31 21:05:15.3	4.170	0.150	-1.270	-0.670
2020/01/31 21:05:15.4	4.190	0.150	-1.240	-0.680
2020/01/31 21:05:15.5	4.210	0.150	-1.200	-0.700
2020/01/31 21:05:15.6	4.230	0.150	-1.160	-0.710
2020/01/31 21:05:15.7	4.250	0.150	-1.110	-0.710
2020/01/31 21:05:15.8	4.270	0.150	-1.060	-0.710
2020/01/31 21:05:15.9	4.290	0.150	-1.000	-0.710
2020/01/31 21:05:16.0	4.310	0.140	-0.940	-0.700
2020/01/31 21:05:16.1	4.330	0.140	-0.870	-0.690
2020/01/31 21:05:16.2	4.350	0.140	-0.800	-0.680
2020/01/31 21:05:16.3	4.370	0.140	-0.730	-0.660
2020/01/31 21:05:16.4	4.390	0.130	-0.650	-0.630
2020/01/31 21:05:16.5	4.400	0.130	-0.570	-0.610
2020/01/31 21:05:16.6	4.420	0.130	-0.490	-0.580
2020/01/31 21:05:16.7	4.440	0.130	-0.410	-0.540
2020/01/31 21:05:16.8	4.460	0.130	-0.330	-0.510
2020/01/31 21:05:16.9	4.480	0.130	-0.250	-0.470
2020/01/31 21:05:17.0	4.490	0.130	-0.180	-0.430
2020/01/31 21:05:17.1	4.510	0.130	-0.100	-0.390
2020/01/31 21:05:17.2	4.520	0.130	-0.030	-0.340
2020/01/31 21:05:17.3	4.540	0.130	0.040	-0.300
2020/01/31 21:05:17.4	4.550	0.120	0.110	-0.250
2020/01/31 21:05:17.5	4.560	0.120	0.170	-0.210
2020/01/31 21:05:17.6	4.570	0.120	0.230	-0.160
2020/01/31 21:05:17.7	4.570	0.120	0.290	-0.110
2020/01/31 21:05:17.8	4.570	0.120	0.340	-0.060
2020/01/31 21:05:17.9	4.580	0.110	0.390	-0.010
2020/01/31 21:05:18.0	4.570	0.110	0.430	0.040
2020/01/31 21:05:18.1	4.570	0.110	0.470	0.090
2020/01/31 21:05:18.2	4.560	0.100	0.500	0.140
2020/01/31 21:05:18.3	4.560	0.090	0.530	0.180
2020/01/31 21:05:18.4	4.550	0.090	0.550	0.220
2020/01/31 21:05:18.5	4.540	0.080	0.560	0.270
2020/01/31 21:05:18.6	4.530	0.070	0.570	0.310
2020/01/31 21:05:18.7	4.530	0.060	0.580	0.350
2020/01/31 21:05:18.8	4.520	0.050	0.580	0.380
2020/01/31 21:05:18.9	4.510	0.040	0.570	0.410
2020/01/31 21:05:19.0	4.500	0.030	0.570	0.440
2020/01/31 21:05:19.1	4.490	0.010	0.550	0.460
2020/01/31 21:05:19.2	4.480	0.000	0.520	0.490
2020/01/31 21:05:19.3	4.480	-0.010	0.500	0.500
2020/01/31 21:05:19.4	4.470	-0.020	0.460	0.510
2020/01/31 21:05:19.5	4.470	-0.030	0.430	0.520
2020/01/31 21:05:19.6	4.470	-0.040	0.380	0.520
2020/01/31 21:05:19.7	4.470	-0.050	0.340	0.520
2020/01/31 21:05:19.8	4.470	-0.060	0.290	0.520
2020/01/31 21:05:19.9	4.470	-0.070	0.230	0.510
2020/01/31 21:05:20.0	4.490	-0.080	0.180	0.500
2020/01/31 21:05:20.1	4.490	-0.090	0.120	0.480
2020/01/31 21:05:20.2	4.490	-0.090	0.060	0.460
2020/01/31 21:05:20.3	4.500	-0.100	-0.000	0.440
2020/01/31 21:05:20.4	4.510	-0.100	-0.060	0.420
2020/01/31 21:05:20.5	4.510	-0.100	-0.120	0.400
2020/01/31 21:05:20.6	4.520	-0.100	-0.180	0.380
2020/01/31 21:05:20.7	4.520	-0.100	-0.240	0.360
2020/01/31 21:05:20.8	4.530	-0.100	-0.290	0.330
2020/01/31 21:05:20.9	4.530	-0.100	-0.350	0.300
2020/01/31 21:05:21.0	4.530	-0.090	-0.400	0.280
2020/01/31 21:05:21.1	4.540	-0.090	-0.450	0.250
2020/01/31 21:05:21.2	4.540	-0.080	-0.490	0.220
2020/01/31 21:05:21.3	4.540	-0.070	-0.540	0.190
2020/01/31 21:05:21.4	4.540	-0.070	-0.580	0.160
2020/01/31 21:05:21.5	4.550	-0.060	-0.610	0.130
2020/01/31 21:05:21.6	4.550	-0.050	-0.650	0.100
2020/01/31 21:05:21.7	4.550	-0.040	-0.680	0.060
2020/01/31 21:05:21.8	4.550	-0.030	-0.700	0.020
2020/01/31 21:05:21.9	4.550	-0.020	-0.730	-0.010
2020/01/31 21:05:22.0	4.560	-0.010	-0.750	-0.050
2020/01/31 21:05:22.1	4.560	-0.000	-0.760	-0.090
2020/01/31 21:05:22.2	4.560	0.010	-0.780	-0.130
2020/01/31 21:05:22.3	4.560	0.010	-0.790	-0.180
2020/01/31 21:05:22.4	4.560	0.020	-0.790	-0.220
2020/01/31 21:05:22.5	4.560	0.020	-0.800	-0.260
2020/01/31 21:05:22.6	4.560	0.030	-0.800	-0.300
2020/01/31 21:05:22.7	4.560	0.030	-0.800	-0.340
2020/01/31 21:05:22.8	4.560	0.030	-0.790	-0.390
2020/01/31 21:05:22.9	4.560	0.030	-0.790	-0.430
2020/01/31 21:05:23.0	4.560	0.030	-0.780	-0.470
2020/01/31 21:05:23.1	4.560	0.030	-0.770	-0.500
2020/01/31 21:05:23.2	4.560	0.030	-0.760	-0.540
2020/01/31 21:05:23.3	4.560	0.020	-0.740	-0.580
2020/01/31 21:05:23.4	4.560	0.020	-0.730	-0.610
2020/01/31 21:05:23.5	4.570	0.010	-0.710	-0.640
2020/01/31 21:05:23.6	4.570	0.000	-0.690	-0.670
2020/01/31 21:05:23.7	4.570	-0.010	-0.670	-0.690
2020/01/31 21:05:23.8	4.570	-0.020	-0.640	-0.710
2020/01/31 21:05:23.9	4.570	-0.030	-0.620	-0.730
2020/01/31 21:05:24.0	4.570	-0.040	-0.600	-0.750
2020/01/31 21:05:24.1	4.570	-0.050	-0.570	-0.760
2020/01/31 21:05:24.2	4.560	-0.060	-0.540	-0.770
2020/01/31 21:05:24.3	4.560	-0.070	-0.520	-0.770
2020/01/31 21:05:24.4	4.560	-0.080	-0.490	-0.780
2020/01/31 21:05:24.5	4.560	-0.090	-0.460	-0.780
2020/01/31 21:05:24.6	4.560	-0.100	-0.430	-0.770
2020/01/31 21:05:24.7	4.560	-0.110	-0.410	-0.760
2020/01/31 21:05:24.8	4.550	-0.120	-0.380	-0.750
2020/01/31 21:05:24.9	4.550	-0.130	-0.350	-0.740
2020/01/31 21:05:25.0	4.560	-0.130	-0.320	-0.730
2020/01/31 21:05:25.1	4.560	-0.140	-0.300	-0.710
2020/01/31 21:05:25.2	4.560	-0.140	-0.270	-0.680
2020/01/31 21:05:25.3	4.560	-0.140	-0.250	-0.660
2020/01/31 21:05:25.4	4.560	-0.130	-0.220	-0.630
2020/01/31 21:05:25.5	4.570	-0.130	-0.200	-0.600
2020/01/31 21:05:25.6	4.570	-0.120	-0.170	-0.560
2020/01/31 21:05:25.7	4.580	-0.110	-0.150	-0.530
2020/01/31 21:05:25.8	4.590	-0.100	-0.130	-0.490
2020/01/31 21:05:25.9	4.590	-0.090	-0.110	-0.460
2020/01/31 21:05:26.0	4.600	-0.070	-0.090	-0.410
2020/01/31 21:05:26.1	4.600	-0.050	-0.070	-0.370
2020/01/31 21:05:26.2	4.610	-0.030	-0.050	-0.330
2020/01/31 21:05:26.3	4.620	-0.010	-0.040	-0.290
2020/01/31 21:05:26.4	4.630	0.010	-0.020	-0.240
2020/01/31 21:05:26.5	4.630	0.030	-0.010	-0.200
2020/01/31 21:05:26.6	4.640	0.060	0.000	-0.150
2020/01/31 21:05:26.7	4.640	0.080	0.020	-0.110
2020/01/31 21:05:26.8	4.640	0.110	0.030	-0.060
2020/01/31 21:05:26.9	4.640	0.140	0.030	-0.010
2020/01/31 21:05:27.0	4.620	0.160	0.040	0.030
2020/01/31 21:05:27.1	4.620	0.190	0.050	0.080
2020/01/31 21:05:27.2	4.610	0.210	0.050	0.130
2020/01/31 21:05:27.3	4.600	0.230	0.060	0.170
2020/01/31 21:05:27.4	4.600	0.260	0.060	0.220
2020/01/31 21:05:27.5	4.590	0.280	0.060	0.260
2020/01/31 21:05:27.6	4.580	0.300	0.060	0.300
2020/01/31 21:05:27.7	4.560	0.320	0.060	0.340
2020/01/31 21:05:27.8	4.550	0.330	0.050	0.370
2020/01/31 21:05:27.9	4.540	0.350	0.040	0.410
2020/01/31 21:05:28.0	4.560	0.360	0.040	0.440
2020/01/31 21:05:28.1	4.550	0.370	0.020	0.470
2020/01/31 21:05:28.2	4.540	0.380	0.010	0.490
2020/01/31 21:05:28.3	4.530	0.380	-0.000	0.510
2020/01/31 21:05:28.4	4.530	0.380	-0.020	0.530
2020/01/31 21:05:28.5	4.530	0.390	-0.030	0.540
2020/01/31 21:05:28.6	4.530	0.390	-0.050	0.550
2020/01/31 21:05:28.7	4.530	0.380	-0.080	0.560
2020/01/31 21:05:28.8	4.540	0.380	-0.100	0.560
2020/01/31 21:05:28.9	4.550	0.370	-0.120	0.560
2020/01/31 21:05:29.0	4.570	0.370	-0.150	0.550
2020/01/31 21:05:29.1	4.580	0.360	-0.170	0.540
2020/01/31 21:05:29.2	4.600	0.340	-0.200	0.530
2020/01/31 21:05:29.3	4.610	0.330	-0.220	0.520
2020/01/31 21:05:29.4	4.630	0.320	-0.250	0.500
2020/01/31 21:05:29.5	4.650	0.300	-0.270	0.480
2020/01/31 21:05:29.6	4.670	0.280	-0.290	0.460
2020/01/31 21:05:29.7	4.690	0.260	-0.310	0.440
2020/01/31 21:05:29.8	4.710	0.240	-0.330	0.410
2020/01/31 21:05:29.9	4.730	0.220	-0.340	0.380
2020/01/31 21:05:30.0	4.760	0.190	-0.360	0.350
2020/01/31 21:05:30.1	4.780	0.170	-0.370	0.330
2020/01/31 21:05:30.2	4.800	0.140	-0.380	0.300
2020/01/31 21:05:30.3	4.820	0.120	-0.380	0.260
2020/01/31 21:05:30.4	4.840	0.090	-0.380	0.230
2020/01/31 21:05:30.5	4.860	0.060	-0.380	0.200
2020/01/31 21:05:30.6	4.870	0.030	-0.380	0.170
2020/01/31 21:05:30.7	4.890	-0.000	-0.370	0.140
2020/01/31 21:05:30.8	4.900	-0.030	-0.360	0.100
2020/01/31 21:05:30.9	4.910	-0.060	-0.350	0.070
2020/01/31 21:05:31.0	4.910	-0.100	-0.330	0.030
2020/01/31 21:05:31.1	4.920	-0.130	-0.320	-0.000
2020/01/31 21:05:31.2	4.920	-0.160	-0.300	-0.030
2020/01/31 21:05:31.3	4.930	-0.190	-0.280	-0.070
2020/01/31 21:05:31.4	4.930	-0.220	-0.260	-0.100
2020/01/31 21:05:31.5	4.930	-0.250	-0.240	-0.140
2020/01/31 21:05:31.6	4.930	-0.280	-0.220	-0.170
2020/01/31 21:05:31.7	4.930	-0.310	-0.200	-0.210
2020/01/31 21:05:31.8	4.930	-0.340	-0.190	-0.250
2020/01/31 21:05:31.9	4.930	-0.360	-0.170	-0.280
2020/01/31 21:05:32.0	4.920	-0.390	-0.160	-0.320
2020/01/31 21:05:32.1	4.920	-0.410	-0.150	-0.350
2020/01/31 21:05:32.2	4.920	-0.430	-0.140	-0.390
2020/01/31 21:05:32.3	4.920	-0.450	-0.140	-0.430
2020/01/31 21:05:32.4	4.920	-0.460	-0.130	-0.470
2020/01/31 21:05:32.5	4.920	-0.470	-0.140	-0.500
2020/01/31 21:05:32.6	4.920	-0.480	-0.140	-0.540
2020/01/31 21:05:32.7	4.920	-0.490	-0.150	-0.570
2020/01/31 21:05:32.8	4.920	-0.490	-0.160	-0.600
2020/01/31 21:05:32.9	4.920	-0.490	-0.180	-0.630
2020/01/31 21:05:33.0	4.930	-0.490	-0.200	-0.670
2020/01/31 21:05:33.1	4.930	-0.480	-0.220	-0.690
2020/01/31 21:05:33.2	4.930	-0.470	-0.240	-0.720
2020/01/31 21:05:33.3	4.930	-0.460	-0.270	-0.740
2020/01/31 21:05:33.4	4.930	-0.440	-0.300	-0.760
2020/01/31 21:05:33.5	4.940	-0.420	-0.330	-0.770
2020/01/31 21:05:33.6	4.940	-0.400	-0.360	-0.780
2020/01/31 21:05:33.7	4.940	-0.370	-0.390	-0.790
2020/01/31 21:05:33.8	4.940	-0.340	-0.420	-0.790
2020/01/31 21:05:33.9	4.940	-0.310	-0.450	-0.790
2020/01/31 21:05:34.0	4.940	-0.280	-0.480	-0.780
2020/01/31 21:05:34.1	4.940	-0.240	-0.500	-0.770
2020/01/31 21:05:34.2	4.950	-0.200	-0.530	-0.760
2020/01/31 21:05:34.3	4.950	-0.160	-0.550	-0.740
2020/01/31 21:05:34.4	4.950	-0.120	-0.570	-0.720
2020/01/31 21:05:34.5	4.950	-0.080	-0.590	-0.690
2020/01/31 21:05:34.6	4.950	-0.030	-0.600	-0.660
2020/01/31 21:05:34.7	4.960	0.010	-0.610	-0.630
2020/01/31 21:05:34.8	4.960	0.060	-0.620	-0.600
2020/01/31 21:05:34.9	4.960	0.100	-0.620	-0.570
2020/01/31 21:05:35.0	4.960	0.150	-0.610	-0.530
2020/01/31 21:05:35.1	4.960	0.190	-0.610	-0.490
2020/01/31 21:05:35.2	4.970	0.230	-0.590	-0.450
2020/01/31 21:05:35.3	4.970	0.270	-0.580	-0.400
2020/01/31 21:05:35.4	4.970	0.310	-0.550	-0.350
2020/01/31 21:05:35.5	4.970	0.350	-0.530	-0.310
2020/01/31 21:05:35.6	4.970	0.390	-0.490	-0.250
2020/01/31 21:05:35.7	4.970	0.420	-0.460	-0.200
2020/01/31 21:05:35.8	4.960	0.450	-0.420	-0.140
2020/01/31 21:05:35.9	4.950	0.480	-0.370	-0.090
2020/01/31 21:05:36.0	4.940	0.500	-0.330	-0.030
2020/01/31 21:05:36.1	4.930	0.520	-0.280	0.030
2020/01/31 21:05:36.2	4.920	0.530	-0.220	0.100
2020/01/31 21:05:36.3	4.900	0.540	-0.160	0.160
2020/01/31 21:05:36.4	4.880	0.540	-0.110	0.230
2020/01/31 21:05:36.5	4.860	0.540	-0.040	0.290
2020/01/31 21:05:36.6	4.840	0.540	0.020	0.360
2020/01/31 21:05:36.7	4.810	0.530	0.080	0.420
2020/01/31 21:05:36.8	4.790	0.510	0.140	0.480
2020/01/31 21:05:36.9	4.760	0.490	0.200	0.550
2020/01/31 21:05:37.0	4.750	0.470	0.260	0.610
2020/01/31 21:05:37.1	4.720	0.440	0.310	0.670
2020/01/31 21:05:37.2	4.690	0.400	0.360	0.720
2020/01/31 21:05:37.3	4.660	0.360	0.410	0.760
2020/01/31 21:05:37.4	4.640	0.320	0.450	0.800
2020/01/31 21:05:37.5	4.610	0.270	0.490	0.840
2020/01/31 21:05:37.6	4.590	0.220	0.520	0.860
2020/01/31 21:05:37.7	4.570	0.170	0.540	0.880
2020/01/31 21:05:37.8	4.550	0.110	0.550	0.890
2020/01/31 21:05:37.9	4.540	0.060	0.560	0.880
2020/01/31 21:05:38.0	4.540	-0.000	0.560	0.870
2020/01/31 21:05:38.1	4.530	-0.060	0.550	0.850
2020/01/31 21:05:38.2	4.530	-0.120	0.530	0.820
2020/01/31 21:05:38.3	4.530	-0.180	0.500	0.780
2020/01/31 21:05:38.4	4.540	-0.240	0.460	0.730
2020/01/31 21:05:38.5	4.550	-0.290	0.420	0.680
2020/01/31 21:05:38.6	4.570	-0.340	0.360	0.620
2020/01/31 21:05:38.7	4.590	-0.390	0.300	0.550
2020/01/31 21:05:38.8	4.610	-0.440	0.230	0.470
2020/01/31 21:05:38.9	4.630	-0.480	0.160	0.390
2020/01/31 21:05:39.0	4.660	-0.520	0.070	0.300
2020/01/31 21:05:39.1	4.690	-0.550	-0.010	0.210
2020/01/31 21:05:39.2	4.730	-0.580	-0.100	0.120
2020/01/31 21:05:39.3	4.760	-0.600	-0.190	0.030
2020/01/31 21:05:39.4	4.800	-0.610	-0.280	-0.050
2020/01/31 21:05:39.5	4.840	-0.620	-0.380	-0.140
2020/01/31 21:05:39.6	4.880	-0.630	-0.470	-0.230
2020/01/31 21:05:39.7	4.920	-0.630	-0.560	-0.310
2020/01/31 21:05:39.8	4.960	-0.620	-0.640	-0.390
2020/01/31 21:05:39.9	5.000	-0.600	-0.730	-0.470
2020/01/31 21:05:40.0	5.040	-0.580	-0.800	-0.550
2020/01/31 21:05:40.1	5.080	-0.560	-0.880	-0.620
2020/01/31 21:05:40.2	5.120	-0.530	-0.950	-0.680
2020/01/31 21:05:40.3	5.170	-0.490	-1.010	-0.740
2020/01/31 21:05:40.4	5.210	-0.450	-1.070	-0.800
2020/01/31 21:05:40.5	5.250	-0.410	-1.120	-0.850
2020/01/31 21:05:40.6	5.290	-0.360	-1.170	-0.900
2020/01/31 21:05:40.7	5.320	-0.310	-1.210	-0.940
2020/01/31 21:05:40.8	5.360	-0.260	-1.240	-0.980
2020/01/31 21:05:40.9	5.400	-0.210	-1.260	-1.010
2020/01/31 21:05:41.0	5.430	-0.150	-1.280	-1.040
2020/01/31 21:05:41.1	5.460	-0.100	-1.300	-1.060
2020/01/31 21:05:41.2	5.490	-0.040	-1.300	-1.070
2020/01/31 21:05:41.3	5.520	0.010	-1.300	-1.080
2020/01/31 21:05:41.4	5.550	0.070	-1.300	-1.090
2020/01/31 21:05:41.5	5.580	0.120	-1.290	-1.090
2020/01/31 21:05:41.6	5.610	0.170	-1.270	-1.090
2020/01/31 21:05:41.7	5.630	0.220	-1.240	-1.080
2020/01/31 21:05:41.8	5.650	0.270	-1.210	-1.070
2020/01/31 21:05:41.9	5.670	0.310	-1.180	-1.050
2020/01/31 21:05:42.0	5.680	0.350	-1.140	-1.030
2020/01/31 21:05:42.1	5.700	0.380	-1.090	-1.000
2020/01/31 21:05:42.2	5.710	0.410	-1.040	-0.980
2020/01/31 21:05:42.3	5.730	0.440	-0.990	-0.940
2020/01/31 21:05:42.4	5.740	0.460	-0.930	-0.910
2020/01/31 21:05:42.5	5.740	0.480	-0.870	-0.870
2020/01/31 21:05:42.6	5.750	0.490	-0.800	-0.830
2020/01/31 21:05:42.7	5.750	0.500	-0.730	-0.790
2020/01/31 21:05:42.8	5.750	0.500	-0.660	-0.740
2020/01/31 21:05:42.9	5.750	0.500	-0.580	-0.700
2020/01/31 21:05:43.0	5.750	0.490	-0.510	-0.650
2020/01/31 21:05:43.1	5.740	0.480	-0.430	-0.600
2020/01/31 21:05:43.2	5.730	0.470	-0.350	-0.550
2020/01/31 21:05:43.3	5.720	0.450	-0.270	-0.500
2020/01/31 21:05:43.4	5.700	0.430	-0.190	-0.450
2020/01/31 21:05:43.5	5.690	0.400	-0.120	-0.400
2020/01/31 21:05:43.6	5.670	0.370	-0.040	-0.350
2020/01/31 21:05:43.7	5.650	0.350	0.030	-0.300
2020/01/31 21:05:43.8	5.630	0.310	0.100	-0.250
2020/01/31 21:05:43.9	5.610	0.280	0.170	-0.200
2020/01/31 21:05:44.0	5.590	0.250	0.230	-0.160
2020/01/31 21:05:44.1	5.570	0.210	0.290	-0.110
2020/01/31 21:05:44.2	5.540	0.180	0.350	-0.070
2020/01/31 21:05:44.3	5.520	0.140	0.400	-0.030
2020/01/31 21:05:44.4	5.500	0.110	0.440	0.010
2020/01/31 21:05:44.5	5.480	0.080	0.480	0.050
2020/01/31 21:05:44.6	5.460	0.040	0.510	0.090
2020/01/31 21:05:44.7	5.440	0.020	0.540	0.120
2020/01/31 21:05:44.8	5.420	-0.010	0.560	0.150
2020/01/31 21:05:44.9	5.400	-0.040	0.570	0.190
2020/01/31 21:05:45.0	5.390	-0.060	0.580	0.210
2020/01/31 21:05:45.1	5.370	-0.080	0.580	0.240
2020/01/31 21:05:45.2	5.360	-0.090	0.570	0.260
2020/01/31 21:05:45.3	5.350	-0.100	0.560	0.290
2020/01/31 21:05:45.4	5.340	-0.110	0.550	0.310
2020/01/31 21:05:45.5	5.340	-0.120	0.530	0.320
2020/01/31 21:05:45.6	5.330	-0.120	0.500	0.340
2020/01/31 21:05:45.7	5.320	-0.120	0.470	0.350
2020/01/31 21:05:45.8	5.320	-0.120	0.440	0.360
2020/01/31 21:05:45.9	5.310	-0.120	0.410	0.370
2020/01/31 21:05:46.0	5.300	-0.110	0.370	0.370
2020/01/31 21:05:46.1	5.300	-0.100	0.340	0.370
2020/01/31 21:05:46.2	5.300	-0.090	0.300	0.370
2020/01/31 21:05:46.3	5.290	-0.080	0.260	0.370
2020/01/31 21:05:46.4	5.290	-0.060	0.230	0.370
2020/01/31 21:05:46.5	5.290	-0.050	0.190	0.360
2020/01/31 21:05:46.6	5.290	-0.030	0.150	0.360
2020/01/31 21:05:46.7	5.280	-0.020	0.120	0.350
2020/01/31 21:05:46.8	5.280	-0.000	0.080	0.340
2020/01/31 21:05:46.9	5.280	0.010	0.050	0.330
2020/01/31 21:05:47.0	5.290	0.030	0.030	0.320
2020/01/31 21:05:47.1	5.290	0.040	-0.000	0.310
2020/01/31 21:05:47.2	5.290	0.060	-0.030	0.300
2020/01/31 21:05:47.3	5.290	0.070	-0.050	0.290
2020/01/31 21:05:47.4	5.280	0.080	-0.080	0.280
2020/01/31 21:05:47.5	5.280	0.090	-0.090	0.260
2020/01/31 21:05:47.6	5.280	0.100	-0.110	0.250
2020/01/31 21:05:47.7	5.280	0.100	-0.130	0.240
2020/01/31 21:05:47.8	5.280	0.110	-0.140	0.230
2020/01/31 21:05:47.9	5.280	0.110	-0.160	0.210
2020/01/31 21:05:48.0	5.280	0.100	-0.170	0.200
2020/01/31 21:05:48.1	5.280	0.100	-0.190	0.180
2020/01/31 21:05:48.2	5.280	0.090	-0.200	0.160
2020/01/31 21:05:48.3	5.280	0.090	-0.210	0.140
2020/01/31 21:05:48.4	5.280	0.070	-0.220	0.120
2020/01/31 21:05:48.5	5.280	0.060	-0.230	0.100
2020/01/31 21:05:48.6	5.280	0.040	-0.240	0.080
2020/01/31 21:05:48.7	5.290	0.030	-0.250	0.050
2020/01/31 21:05:48.8	5.290	0.010	-0.260	0.020
2020/01/31 21:05:48.9	5.290	-0.010	-0.280	-0.010
2020/01/31 21:05:49.0	5.290	-0.040	-0.280	-0.040
2020/01/31 21:05:49.1	5.290	-0.060	-0.300	-0.070
2020/01/31 21:05:49.2	5.290	-0.080	-0.310	-0.110
2020/01/31 21:05:49.3	5.300	-0.110	-0.330	-0.150
2020/01/31 21:05:49.4	5.310	-0.140	-0.340	-0.190
2020/01/31 21:05:49.5	5.310	-0.160	-0.360	-0.230
2020/01/31 21:05:49.6	5.320	-0.190	-0.380	-0.270
2020/01/31 21:05:49.7	5.320	-0.210	-0.400	-0.310
2020/01/31 21:05:49.8	5.330	-0.230	-0.420	-0.350
2020/01/31 21:05:49.9	5.340	-0.260	-0.440	-0.390
2020/01/31 21:05:50.0	5.340	-0.280	-0.460	-0.430
2020/01/31 21:05:50.1	5.350	-0.300	-0.480	-0.470
2020/01/31 21:05:50.2	5.360	-0.320	-0.500	-0.510
2020/01/31 21:05:50.3	5.370	-0.330	-0.520	-0.540
2020/01/31 21:05:50.4	5.390	-0.340	-0.550	-0.580
2020/01/31 21:05:50.5	5.400	-0.360	-0.570	-0.610
2020/01/31 21:05:50.6	5.410	-0.360	-0.590	-0.640
2020/01/31 21:05:50.7	5.430	-0.370	-0.610	-0.670
2020/01/31 21:05:50.8	5.450	-0.370	-0.630	-0.700
2020/01/31 21:05:50.9	5.460	-0.370	-0.650	-0.730
2020/01/31 21:05:51.0	5.490	-0.370	-0.670	-0.750
2020/01/31 21:05:51.1	5.510	-0.360	-0.680	-0.770
2020/01/31 21:05:51.2	5.530	-0.350	-0.700	-0.790
2020/01/31 21:05:51.3	5.550	-0.340	-0.710	-0.810
2020/01/31 21:05:51.4	5.560	-0.330	-0.720	-0.820
2020/01/31 21:05:51.5	5.580	-0.310	-0.730	-0.830
2020/01/31 21:05:51.6	5.600	-0.290	-0.740	-0.840
2020/01/31 21:05:51.7	5.610	-0.270	-0.750	-0.850
2020/01/31 21:05:51.8	5.630	-0.250	-0.750	-0.850
2020/01/31 21:05:51.9	5.640	-0.230	-0.750	-0.840
2020/01/31 21:05:52.0	5.650	-0.210	-0.750	-0.830
2020/01/31 21:05:52.1	5.660	-0.180	-0.740	-0.820
2020/01/31 21:05:52.2	5.660	-0.150	-0.730	-0.810
2020/01/31 21:05:52.3	5.670	-0.130	-0.720	-0.790
2020/01/31 21:05:52.4	5.670	-0.100	-0.710	-0.760
2020/01/31 21:05:52.5	5.670	-0.070	-0.690	-0.740
2020/01/31 21:05:52.6	5.670	-0.050	-0.680	-0.710
2020/01/31 21:05:52.7	5.670	-0.020	-0.660	-0.680
2020/01/31 21:05:52.8	5.670	0.010	-0.640	-0.640
2020/01/31 21:05:52.9	5.670	0.040	-0.610	-0.610
2020/01/31 21:05:53.0	5.670	0.060	-0.590	-0.570
2020/01/31 21:05:53.1	5.670	0.090	-0.570	-0.530
2020/01/31 21:05:53.2	5.670	0.110	-0.540	-0.490
2020/01/31 21:05:53.3	5.660	0.130	-0.510	-0.450
2020/01/31 21:05:53.4	5.660	0.150	-0.490	-0.410
2020/01/31 21:05:53.5	5.660	0.180	-0.460	-0.360
2020/01/31 21:05:53.6	5.660	0.190	-0.430	-0.320
2020/01/31 21:05:53.7	5.660	0.210	-0.400	-0.270
2020/01/31 21:05:53.8	5.660	0.230	-0.370	-0.230
2020/01/31 21:05:53.9	5.660	0.250	-0.350	-0.180
2020/01/31 21:05:54.0	5.670	0.260	-0.320	-0.140
2020/01/31 21:05:54.1	5.670	0.270	-0.290	-0.090
2020/01/31 21:05:54.2	5.680	0.280	-0.270	-0.050
2020/01/31 21:05:54.3	5.680	0.290	-0.240	-0.000
2020/01/31 21:05:54.4	5.680	0.300	-0.210	0.040
2020/01/31 21:05:54.5	5.680	0.310	-0.190	0.090
2020/01/31 21:05:54.6	5.680	0.310	-0.160	0.130
2020/01/31 21:05:54.7	5.680	0.320	-0.140	0.170
2020/01/31 21:05:54.8	5.680	0.320	-0.110	0.210
2020/01/31 21:05:54.9	5.680	0.320	-0.080	0.250
2020/01/31 21:05:55.0	5.690	0.310	-0.060	0.290
2020/01/31 21:05:55.1	5.690	0.310	-0.040	0.330
2020/01/31 21:05:55.2	5.690	0.310	-0.010	0.360
2020/01/31 21:05:55.3	5.690	0.300	0.010	0.390
2020/01/31 21:05:55.4	5.690	0.290	0.040	0.420
2020/01/31 21:05:55.5	5.680	0.280	0.060	0.450
2020/01/31 21:05:55.6	5.680	0.270	0.080	0.470
2020/01/31 21:05:55.7	5.690	0.260	0.100	0.490
2020/01/31 21:05:55.8	5.690	0.250	0.120	0.510
2020/01/31 21:05:55.9	5.690	0.230	0.130	0.520
2020/01/31 21:05:56.0	5.690	0.220	0.140	0.530
2020/01/31 21:05:56.1	5.690	0.200	0.150	0.530
2020/01/31 21:05:56.2	5.700	0.190	0.160	0.540
2020/01/31 21:05:56.3	5.700	0.170	0.170	0.530
2020/01/31 21:05:56.4	5.710	0.150	0.170	0.530
2020/01/31 21:05:56.5	5.720	0.140	0.160	0.520
2020/01/31 21:05:56.6	5.720	0.120	0.160	0.500
2020/01/31 21:05:56.7	5.730	0.100	0.150	0.490
2020/01/31 21:05:56.8	5.740	0.080	0.140	0.470
2020/01/31 21:05:56.9	5.750	0.060	0.130	0.440
2020/01/31 21:05:57.0	5.760	0.050	0.110	0.420
2020/01/31 21:05:57.1	5.760	0.030	0.090	0.390
2020/01/31 21:05:57.2	5.770	0.010	0.070	0.370
2020/01/31 21:05:57.3	5.770	-0.010	0.050	0.340
2020/01/31 21:05:57.4	5.770	-0.030	0.030	0.310
2020/01/31 21:05:57.5	5.770	-0.050	0.000	0.280
2020/01/31 21:05:57.6	5.770	-0.070	-0.020	0.250
2020/01/31 21:05:57.7	5.760	-0.090	-0.050	0.220
2020/01/31 21:05:57.8	5.750	-0.110	-0.070	0.190
2020/01/31 21:05:57.9	5.740	-0.130	-0.100	0.160
2020/01/31 21:05:58.0	5.720	-0.150	-0.120	0.120
2020/01/31 21:05:58.1	5.710	-0.160	-0.150	0.100
2020/01/31 21:05:58.2	5.690	-0.180	-0.180	0.070
2020/01/31 21:05:58.3	5.680	-0.200	-0.200	0.040
2020/01/31 21:05:58.4	5.660	-0.220	-0.220	0.010
2020/01/31 21:05:58.5	5.640	-0.240	-0.250	-0.020
2020/01/31 21:05:58.6	5.630	-0.250	-0.270	-0.040
2020/01/31 21:05:58.7	5.610	-0.270	-0.290	-0.070
2020/01/31 21:05:58.8	5.600	-0.280	-0.310	-0.090
2020/01/31 21:05:58.9	5.580	-0.290	-0.330	-0.120
2020/01/31 21:05:59.0	5.570	-0.300	-0.350	-0.150
2020/01/31 21:05:59.1	5.560	-0.310	-0.370	-0.170
2020/01/31 21:05:59.2	5.550	-0.320	-0.390	-0.190
2020/01/31 21:05:59.3	5.550	-0.320	-0.410	-0.220
2020/01/31 21:05:59.4	5.550	-0.320	-0.420	-0.240
2020/01/31 21:05:59.5	5.550	-0.320	-0.440	-0.260
2020/01/31 21:05:59.6	5.560	-0.320	-0.450	-0.280
2020/01/31 21:05:59.7	5.570	-0.310	-0.460	-0.300
2020/01/31 21:05:59.8	5.580	-0.300	-0.470	-0.310
2020/01/31 21:05:59.9	5.590	-0.280	-0.480	-0.330
2020/01/31 21:06:00.0	5.600	-0.270	-0.490	-0.340
2020/01/31 21:06:00.1	5.620	-0.250	-0.490	-0.350
2020/01/31 21:06:00.2	5.640	-0.220	-0.490	-0.360
2020/01/31 21:06:00.3	5.650	-0.200	-0.490	-0.360
2020/01/31 21:06:00.4	5.670	-0.170	-0.480	-0.350
2020/01/31 21:06:00.5	5.690	-0.140	-0.470	-0.340
2020/01/31 21:06:00.6	5.700	-0.110	-0.460	-0.330
2020/01/31 21:06:00.7	5.710	-0.080	-0.440	-0.310
2020/01/31 21:06:00.8	5.720	-0.050	-0.420	-0.290
2020/01/31 21:06:00.9	5.730	-0.020	-0.390	-0.260
2020/01/31 21:06:01.0	5.740	0.020	-0.360	-0.230
2020/01/31 21:06:01.1	5.740	0.050	-0.320	-0.190
2020/01/31 21:06:01.2	5.750	0.080	-0.290	-0.150
2020/01/31 21:06:01.3	5.750	0.120	-0.250	-0.110
2020/01/31 21:06:01.4	5.740	0.150	-0.200	-0.060
2020/01/31 21:06:01.5	5.740	0.180	-0.160	-0.020
2020/01/31 21:06:01.6	5.730	0.200	-0.110	0.030
2020/01/31 21:06:01.7	5.720	0.230	-0.060	0.080
2020/01/31 21:06:01.8	5.710	0.250	-0.010	0.130
2020/01/31 21:06:01.9	5.700	0.270	0.040	0.180
2020/01/31 21:06:02.0	5.690	0.290	0.090	0.230
2020/01/31 21:06:02.1	5.670	0.310	0.130	0.270
2020/01/31 21:06:02.2	5.650	0.320	0.180	0.320
2020/01/31 21:06:02.3	5.630	0.330	0.220	0.360
2020/01/31 21:06:02.4	5.610	0.340	0.250	0.400
2020/01/31 21:06:02.5	5.590	0.340	0.290	0.440
2020/01/31 21:06:02.6	5.560	0.350	0.310	0.470
2020/01/31 21:06:02.7	5.540	0.340	0.340	0.500
2020/01/31 21:06:02.8	5.520	0.340	0.350	0.530
2020/01/31 21:06:02.9	5.500	0.330	0.360	0.550
2020/01/31 21:06:03.0	5.500	0.330	0.360	0.580
2020/01/31 21:06:03.1	5.480	0.320	0.350	0.590
2020/01/31 21:06:03.2	5.470	0.310	0.340	0.600
2020/01/31 21:06:03.3	5.460	0.290	0.320	0.610
2020/01/31 21:06:03.4	5.450	0.280	0.290	0.610
2020/01/31 21:06:03.5	5.440	0.260	0.250	0.600
2020/01/31 21:06:03.6	5.440	0.250	0.200	0.590
2020/01/31 21:06:03.7	5.440	0.230	0.150	0.580
2020/01/31 21:06:03.8	5.440	0.220	0.090	0.560
2020/01/31 21:06:03.9	5.440	0.200	0.020	0.540
2020/01/31 21:06:04.0	5.430	0.180	-0.060	0.510
2020/01/31 21:06:04.1	5.430	0.170	-0.140	0.480
2020/01/31 21:06:04.2	5.440	0.150	-0.220	0.440
2020/01/31 21:06:04.3	5.460	0.140	-0.310	0.400
2020/01/31 21:06:04.4	5.470	0.120	-0.400	0.360
2020/01/31 21:06:04.5	5.480	0.110	-0.490	0.310
2020/01/31 21:06:04.6	5.500	0.100	-0.580	0.260
2020/01/31 21:06:04.7	5.520	0.080	-0.670	0.210
2020/01/31 21:06:04.8	5.540	0.070	-0.770	0.150
2020/01/31 21:06:04.9	5.560	0.060	-0.850	0.100
2020/01/31 21:06:05.0	5.590	0.050	-0.940	0.030
2020/01/31 21:06:05.1	5.620	0.050	-1.020	-0.030
2020/01/31 21:06:05.2	5.640	0.040	-1.090	-0.090
2020/01/31 21:06:05.3	5.670	0.030	-1.160	-0.150
2020/01/31 21:06:05.4	5.690	0.030	-1.220	-0.210
2020/01/31 21:06:05.5	5.720	0.020	-1.280	-0.270
2020/01/31 21:06:05.6	5.740	0.020	-1.320	-0.330
2020/01/31 21:06:05.7	5.770	0.020	-1.360	-0.390
2020/01/31 21:06:05.8	5.790	0.010	-1.390	-0.450
2020/01/31 21:06:05.9	5.820	0.010	-1.410	-0.500
2020/01/31 21:06:06.0	5.840	0.010	-1.410	-0.550
2020/01/31 21:06:06.1	5.870	0.010	-1.410	-0.600
2020/01/31 21:06:06.2	5.890	0.000	-1.400	-0.640
2020/01/31 21:06:06.3	5.910	0.000	-1.370	-0.680
2020/01/31 21:06:06.4	5.930	-0.000	-1.340	-0.710
2020/01/31 21:06:06.5	5.950	-0.010	-1.300	-0.740
2020/01/31 21:06:06.6	5.970	-0.010	-1.240	-0.770
2020/01/31 21:06:06.7	5.990	-0.020	-1.180	-0.790
2020/01/31 21:06:06.8	6.000	-0.030	-1.110	-0.810
2020/01/31 21:06:06.9	6.020	-0.040	-1.040	-0.820
2020/01/31 21:06:07.0	6.030	-0.050	-0.950	-0.830
2020/01/31 21:06:07.1	6.050	-0.060	-0.860	-0.830
2020/01/31 21:06:07.2	6.060	-0.070	-0.770	-0.830
2020/01/31 21:06:07.3	6.080	-0.090	-0.670	-0.830
2020/01/31 21:06:07.4	6.100	-0.100	-0.570	-0.830
2020/01/31 21:06:07.5	6.110	-0.120	-0.470	-0.820
2020/01/31 21:06:07.6	6.130	-0.140	-0.370	-0.810
2020/01/31 21:06:07.7	6.150	-0.150	-0.270	-0.800
2020/01/31 21:06:07.8	6.170	-0.170	-0.170	-0.780
2020/01/31 21:06:07.9	6.190	-0.190	-0.080	-0.770
2020/01/31 21:06:08.0	6.180	-0.210	0.010	-0.750
2020/01/31 21:06:08.1	6.200	-0.230	0.100	-0.740
2020/01/31 21:06:08.2	6.220	-0.250	0.180	-0.720
2020/01/31 21:06:08.3	6.250	-0.270	0.260	-0.700
2020/01/31 21:06:08.4	6.270	-0.290	0.340	-0.690
2020/01/31 21:06:08.5	6.290	-0.310	0.400	-0.670
2020/01/31 21:06:08.6	6.320	-0.330	0.460	-0.650
2020/01/31 21:06:08.7	6.340	-0.340	0.510	-0.630
2020/01/31 21:06:08.8	6.360	-0.360	0.560	-0.610
2020/01/31 21:06:08.9	6.380	-0.370	0.590	-0.590
2020/01/31 21:06:09.0	6.400	-0.380	0.620	-0.570
2020/01/31 21:06:09.1	6.420	-0.380	0.650	-0.540
2020/01/31 21:06:09.2	6.440	-0.390	0.660	-0.510
2020/01/31 21:06:09.3	6.450	-0.390	0.670	-0.480
2020/01/31 21:06:09.4	6.460	-0.390	0.670	-0.450
2020/01/31 21:06:09.5	6.470	-0.390	0.670	-0.410
2020/01/31 21:06:09.6	6.470	-0.380	0.660	-0.370
2020/01/31 21:06:09.7	6.470	-0.370	0.650	-0.320
2020/01/31 21:06:09.8	6.470	-0.360	0.630	-0.270
2020/01/31 21:06:09.9	6.460	-0.350	0.600	-0.220
2020/01/31 21:06:10.0	6.450	-0.330	0.570	-0.150
2020/01/31 21:06:10.1	6.430	-0.310	0.540	-0.090
2020/01/31 21:06:10.2	6.410	-0.290	0.510	-0.030
2020/01/31 21:06:10.3	6.380	-0.270	0.470	0.030
2020/01/31 21:06:10.4	6.340	-0.240	0.430	0.100
2020/01/31 21:06:10.5	6.310	-0.220	0.390	0.170
2020/01/31 21:06:10.6	6.270	-0.190	0.350	0.240
2020/01/31 21:06:10.7	6.230	-0.160	0.300	0.300
2020/01/31 21:06:10.8	6.180	-0.130	0.250	0.370
2020/01/31 21:06:10.9	6.140	-0.100	0.200	0.430
2020/01/31 21:06:11.0	6.080	-0.060	0.160	0.500
2020/01/31 21:06:11.1	6.040	-0.030	0.110	0.550
2020/01/31 21:06:11.2	5.990	0.000	0.050	0.610
2020/01/31 21:06:11.3	5.940	0.030	0.000	0.660
2020/01/31 21:06:11.4	5.900	0.070	-0.050	0.700
2020/01/31 21:06:11.5	5.860	0.100	-0.110	0.740
2020/01/31 21:06:11.6	5.820	0.130	-0.160	0.770
2020/01/31 21:06:11.7	5.780	0.160	-0.210	0.800
2020/01/31 21:06:11.8	5.750	0.190	-0.270	0.810
2020/01/31 21:06:11.9	5.720	0.220	-0.320	0.830
2020/01/31 21:06:12.0	5.710	0.250	-0.380	0.840
2020/01/31 21:06:12.1	5.690	0.280	-0.430	0.840
2020/01/31 21:06:12.2	5.670	0.300	-0.480	0.830
2020/01/31 21:06:12.3	5.650	0.330	-0.530	0.820
2020/01/31 21:06:12.4	5.640	0.350	-0.570	0.810
2020/01/31 21:06:12.5	5.620	0.370	-0.620	0.790
2020/01/31 21:06:12.6	5.620	0.390	-0.660	0.770
2020/01/31 21:06:12.7	5.610	0.410	-0.690	0.740
2020/01/31 21:06:12.8	5.600	0.420	-0.720	0.710
2020/01/31 21:06:12.9	5.600	0.430	-0.750	0.680
2020/01/31 21:06:13.0	5.600	0.440	-0.770	0.650
2020/01/31 21:06:13.1	5.600	0.450	-0.790	0.620
2020/01/31 21:06:13.2	5.600	0.450	-0.800	0.580
2020/01/31 21:06:13.3	5.610	0.450	-0.810	0.540
2020/01/31 21:06:13.4	5.610	0.450	-0.810	0.500
2020/01/31 21:06:13.5	5.620	0.440	-0.800	0.470
2020/01/31 21:06:13.6	5.630	0.440	-0.790	0.430
2020/01/31 21:06:13.7	5.640	0.430	-0.770	0.390
2020/01/31 21:06:13.8	5.650	0.420	-0.750	0.350
2020/01/31 21:06:13.9	5.670	0.400	-0.730	0.320
2020/01/31 21:06:14.0	5.670	0.390	-0.700	0.270
2020/01/31 21:06:14.1	5.690	0.370	-0.660	0.240
2020/01/31 21:06:14.2	5.700	0.350	-0.620	0.200
2020/01/31 21:06:14.3	5.720	0.320	-0.580	0.170
2020/01/31 21:06:14.4	5.740	0.300	-0.540	0.130
2020/01/31 21:06:14.5	5.760	0.280	-0.500	0.090
2020/01/31 21:06:14.6	5.790	0.250	-0.460	0.060
2020/01/31 21:06:14.7	5.810	0.220	-0.410	0.020
2020/01/31 21:06:14.8	5.830	0.200	-0.370	-0.010
2020/01/31 21:06:14.9	5.850	0.170	-0.320	-0.040
2020/01/31 21:06:15.0	5.890	0.140	-0.280	-0.070
2020/01/31 21:06:15.1	5.920	0.110	-0.240	-0.110
2020/01/31 21:06:15.2	5.940	0.080	-0.200	-0.140
2020/01/31 21:06:15.3	5.960	0.050	-0.160	-0.170
2020/01/31 21:06:15.4	5.980	0.020	-0.120	-0.200
2020/01/31 21:06:15.5	6.000	-0.010	-0.090	-0.230
2020/01/31 21:06:15.6	6.020	-0.040	-0.060	-0.260
2020/01/31 21:06:15.7	6.040	-0.060	-0.030	-0.290
2020/01/31 21:06:15.8	6.050	-0.090	-0.000	-0.320
2020/01/31 21:06:15.9	6.070	-0.120	0.020	-0.350
2020/01/31 21:06:16.0	6.080	-0.150	0.040	-0.380
2020/01/31 21:06:16.1	6.090	-0.170	0.060	-0.410
2020/01/31 21:06:16.2	6.110	-0.200	0.070	-0.440
2020/01/31 21:06:16.3	6.130	-0.230	0.080	-0.460
2020/01/31 21:06:16.4	6.140	-0.250	0.090	-0.490
2020/01/31 21:06:16.5	6.160	-0.270	0.090	-0.510
2020/01/31 21:06:16.6	6.170	-0.300	0.090	-0.540
2020/01/31 21:06:16.7	6.190	-0.320	0.090	-0.560
2020/01/31 21:06:16.8	6.200	-0.340	0.080	-0.580
2020/01/31 21:06:16.9	6.220	-0.360	0.080	-0.600
2020/01/31 21:06:17.0	6.230	-0.370	0.060	-0.620
2020/01/31 21:06:17.1	6.250	-0.390	0.050	-0.640
2020/01/31 21:06:17.2	6.260	-0.410	0.030	-0.660
2020/01/31 21:06:17.3	6.270	-0.420	0.010	-0.670
2020/01/31 21:06:17.4	6.280	-0.430	-0.010	-0.680
2020/01/31 21:06:17.5	6.290	-0.440	-0.040	-0.690
2020/01/31 21:06:17.6	6.300	-0.450	-0.070	-0.700
2020/01/31 21:06:17.7	6.310	-0.450	-0.100	-0.700
2020/01/31 21:06:17.8	6.320	-0.460	-0.130	-0.710
2020/01/31 21:06:17.9	6.320	-0.460	-0.160	-0.710
2020/01/31 21:06:18.0	6.340	-0.460	-0.190	-0.710
2020/01/31 21:06:18.1	6.340	-0.460	-0.230	-0.710
2020/01/31 21:06:18.2	6.350	-0.450	-0.260	-0.710
2020/01/31 21:06:18.3	6.350	-0.440	-0.300	-0.700
2020/01/31 21:06:18.4	6.360	-0.430	-0.330	-0.700
2020/01/31 21:06:18.5	6.360	-0.420	-0.370	-0.690
2020/01/31 21:06:18.6	6.370	-0.410	-0.400	-0.680
2020/01/31 21:06:18.7	6.370	-0.390	-0.440	-0.670
2020/01/31 21:06:18.8	6.370	-0.370	-0.470	-0.650
2020/01/31 21:06:18.9	6.380	-0.340	-0.510	-0.640
2020/01/31 21:06:19.0	6.370	-0.320	-0.540	-0.620
2020/01/31 21:06:19.1	6.370	-0.290	-0.570	-0.590
2020/01/31 21:06:19.2	6.370	-0.260	-0.590	-0.570
2020/01/31 21:06:19.3	6.370	-0.220	-0.620	-0.540
2020/01/31 21:06:19.4	6.370	-0.190	-0.640	-0.510
2020/01/31 21:06:19.5	6.370	-0.150	-0.660	-0.470
2020/01/31 21:06:19.6	6.370	-0.110	-0.670	-0.440
2020/01/31 21:06:19.7	6.360	-0.070	-0.680	-0.400
2020/01/31 21:06:19.8	6.350	-0.030	-0.690	-0.350
2020/01/31 21:06:19.9	6.340	0.020	-0.700	-0.310
2020/01/31 21:06:20.0	6.330	0.060	-0.700	-0.260
2020/01/31 21:06:20.1	6.320	0.100	-0.690	-0.210
2020/01/31 21:06:20.2	6.300	0.150	-0.680	-0.150
2020/01/31 21:06:20.3	6.290	0.190	-0.670	-0.100
2020/01/31 21:06:20.4	6.270	0.240	-0.660	-0.040
2020/01/31 21:06:20.5	6.250	0.280	-0.640	0.020
2020/01/31 21:06:20.6	6.230	0.320	-0.620	0.080
2020/01/31 21:06:20.7	6.200	0.360	-0.590	0.140
2020/01/31 21:06:20.8	6.180	0.390	-0.560	0.200
2020/01/31 21:06:20.9	6.150	0.420	-0.530	0.260
2020/01/31 21:06:21.0	6.140	0.450	-0.500	0.330
2020/01/31 21:06:21.1	6.110	0.480	-0.470	0.380
2020/01/31 21:06:21.2	6.080	0.500	-0.430	0.440
2020/01/31 21:06:21.3	6.050	0.520	-0.390	0.490
2020/01/31 21:06:21.4	6.020	0.540	-0.350	0.540
2020/01/31 21:06:21.5	5.990	0.550	-0.310	0.590
2020/01/31 21:06:21.6	5.960	0.550	-0.280	0.630
2020/01/31 21:06:21.7	5.940	0.560	-0.240	0.660
2020/01/31 21:06:21.8	5.910	0.560	-0.200	0.690
2020/01/31 21:06:21.9	5.890	0.550	-0.170	0.710
2020/01/31 21:06:22.0	5.860	0.540	-0.140	0.730
2020/01/31 21:06:22.1	5.850	0.530	-0.110	0.740
2020/01/31 21:06:22.2	5.830	0.510	-0.080	0.750
2020/01/31 21:06:22.3	5.810	0.490	-0.060	0.750
2020/01/31 21:06:22.4	5.800	0.470	-0.030	0.740
2020/01/31 21:06:22.5	5.790	0.440	-0.020	0.730
2020/01/31 21:06:22.6	5.780	0.420	-0.000	0.710
2020/01/31 21:06:22.7	5.780	0.380	0.010	0.680
2020/01/31 21:06:22.8	5.780	0.350	0.020	0.660
2020/01/31 21:06:22.9	5.780	0.320	0.020	0.620
2020/01/31 21:06:23.0	5.790	0.280	0.020	0.590
2020/01/31 21:06:23.1	5.790	0.250	0.020	0.550
2020/01/31 21:06:23.2	5.800	0.210	0.020	0.510
2020/01/31 21:06:23.3	5.810	0.170	0.010	0.470
2020/01/31 21:06:23.4	5.830	0.130	0.010	0.430
2020/01/31 21:06:23.5	5.840	0.100	-0.000	0.380
2020/01/31 21:06:23.6	5.860	0.060	-0.010	0.340
2020/01/31 21:06:23.7	5.880	0.020	-0.020	0.290
2020/01/31 21:06:23.8	5.900	-0.010	-0.030	0.250
2020/01/31 21:06:23.9	5.920	-0.050	-0.040	0.200
2020/01/31 21:06:24.0	5.940	-0.080	-0.050	0.150
2020/01/31 21:06:24.1	5.960	-0.110	-0.060	0.110
2020/01/31 21:06:24.2	5.990	-0.140	-0.070	0.060
2020/01/31 21:06:24.3	6.020	-0.170	-0.080	0.020
2020/01/31 21:06:24.4	6.050	-0.190	-0.080	-0.020
2020/01/31 21:06:24.5	6.070	-0.220	-0.090	-0.060
2020/01/31 21:06:24.6	6.100	-0.240	-0.100	-0.100
2020/01/31 21:06:24.7	6.130	-0.260	-0.110	-0.140
2020/01/31 21:06:24.8	6.160	-0.280	-0.110	-0.180
2020/01/31 21:06:24.9	6.190	-0.290	-0.120	-0.210
2020/01/31 21:06:25.0	6.220	-0.310	-0.130	-0.250
2020/01/31 21:06:25.1	6.240	-0.320	-0.130	-0.280
2020/01/31 21:06:25.2	6.260	-0.330	-0.140	-0.310
2020/01/31 21:06:25.3	6.280	-0.340	-0.140	-0.340
2020/01/31 21:06:25.4	6.300	-0.350	-0.140	-0.370
2020/01/31 21:06:25.5	6.320	-0.360	-0.140	-0.400
2020/01/31 21:06:25.6	6.330	-0.360	-0.150	-0.420
2020/01/31 21:06:25.7	6.350	-0.370	-0.150	-0.440
2020/01/31 21:06:25.8	6.360	-0.370	-0.150	-0.460
2020/01/31 21:06:25.9	6.360	-0.370	-0.140	-0.470
2020/01/31 21:06:26.0	6.370	-0.370	-0.140	-0.490
2020/01/31 21:06:26.1	6.370	-0.370	-0.140	-0.500
2020/01/31 21:06:26.2	6.370	-0.370	-0.140	-0.500
2020/01/31 21:06:26.3	6.380	-0.360	-0.130	-0.510
2020/01/31 21:06:26.4	6.370	-0.360	-0.130	-0.510
2020/01/31 21:06:26.5	6.370	-0.350	-0.130	-0.500
2020/01/31 21:06:26.6	6.370	-0.350	-0.130	-0.500
2020/01/31 21:06:26.7	6.360	-0.340	-0.120	-0.490
2020/01/31 21:06:26.8	6.360	-0.330	-0.120	-0.480
2020/01/31 21:06:26.9	6.360	-0.320	-0.120	-0.470
2020/01/31 21:06:27.0	6.360	-0.310	-0.130	-0.460
2020/01/31 21:06:27.1	6.350	-0.300	-0.130	-0.440
2020/01/31 21:06:27.2	6.350	-0.290	-0.130	-0.430
2020/01/31 21:06:27.3	6.340	-0.270	-0.140	-0.410
2020/01/31 21:06:27.4	6.340	-0.260	-0.140	-0.400
2020/01/31 21:06:27.5	6.340	-0.240	-0.150	-0.380
2020/01/31 21:06:27.6	6.340	-0.230	-0.160	-0.360
2020/01/31 21:06:27.7	6.340	-0.210	-0.160	-0.340
2020/01/31 21:06:27.8	6.330	-0.190	-0.170	-0.330
2020/01/31 21:06:27.9	6.330	-0.170	-0.180	-0.310
2020/01/31 21:06:28.0	6.340	-0.150	-0.190	-0.290
2020/01/31 21:06:28.1	6.330	-0.130	-0.200	-0.270
2020/01/31 21:06:28.2	6.330	-0.100	-0.220	-0.250
2020/01/31 21:06:28.3	6.330	-0.080	-0.230	-0.230
2020/01/31 21:06:28.4	6.320	-0.060	-0.240	-0.200
2020/01/31 21:06:28.5	6.320	-0.030	-0.250	-0.180
2020/01/31 21:06:28.6	6.310	-0.010	-0.260	-0.150
2020/01/31 21:06:28.7	6.310	0.020	-0.270	-0.130
2020/01/31 21:06:28.8	6.300	0.050	-0.280	-0.100
2020/01/31 21:06:28.9	6.290	0.080	-0.280	-0.070
2020/01/31 21:06:29.0	6.290	0.100	-0.290	-0.040
2020/01/31 21:06:29.1	6.280	0.130	-0.290	-0.000
2020/01/31 21:06:29.2	6.270	0.160	-0.300	0.030
2020/01/31 21:06:29.3	6.250	0.190	-0.300	0.060
2020/01/31 21:06:29.4	6.240	0.220	-0.300	0.100
2020/01/31 21:06:29.5	6.230	0.250	-0.300	0.130
2020/01/31 21:06:29.6	6.210	0.270	-0.290	0.170
2020/01/31 21:06:29.7	6.200	0.300	-0.290	0.200
2020/01/31 21:06:29.8	6.180	0.320	-0.290	0.230
2020/01/31 21:06:29.9	6.160	0.340	-0.290	0.260
2020/01/31 21:06:30.0	6.140	0.370	-0.290	0.300
2020/01/31 21:06:30.1	6.120	0.380	-0.290	0.320
2020/01/31 21:06:30.2	6.100	0.400	-0.290	0.340
2020/01/31 21:06:30.3	6.080	0.420	-0.290	0.360
2020/01/31 21:06:30.4	6.060	0.430	-0.290	0.370
2020/01/31 21:06:30.5	6.040	0.440	-0.300	0.380
2020/01/31 21:06:30.6	6.020	0.440	-0.310	0.390
2020/01/31 21:06:30.7	6.000	0.450	-0.310	0.390
2020/01/31 21:06:30.8	5.980	0.450	-0.320	0.380
2020/01/31 21:06:30.9	5.970	0.450	-0.340	0.380
2020/01/31 21:06:31.0	5.960	0.440	-0.360	0.360
2020/01/31 21:06:31.1	5.940	0.440	-0.370	0.350
2020/01/31 21:06:31.2	5.930	0.430	-0.390	0.330
2020/01/31 21:06:31.3	5.920	0.410	-0.410	0.310
2020/01/31 21:06:31.4	5.900	0.400	-0.430	0.280
2020/01/31 21:06:31.5	5.900	0.380	-0.450	0.250
2020/01/31 21:06:31.6	5.890	0.360	-0.470	0.220
2020/01/31 21:06:31.7	5.880	0.340	-0.490	0.190
2020/01/31 21:06:31.8	5.880	0.320	-0.520	0.150
2020/01/31 21:06:31.9	5.880	0.290	-0.540	0.110
2020/01/31 21:06:32.0	5.880	0.270	-0.560	0.070
2020/01/31 21:06:32.1	5.890	0.240	-0.580	0.030
2020/01/31 21:06:32.2	5.900	0.210	-0.600	-0.010
2020/01/31 21:06:32.3	5.910	0.180	-0.620	-0.060
2020/01/31 21:06:32.4	5.930	0.150	-0.640	-0.100
2020/01/31 21:06:32.5	5.940	0.120	-0.650	-0.150
2020/01/31 21:06:32.6	5.960	0.090	-0.670	-0.200
2020/01/31 21:06:32.7	5.990	0.060	-0.680	-0.250
2020/01/31 21:06:32.8	6.010	0.030	-0.690	-0.300
2020/01/31 21:06:32.9	6.040	-0.000	-0.700	-0.350
2020/01/31 21:06:33.0	6.060	-0.030	-0.710	-0.400
2020/01/31 21:06:33.1	6.090	-0.060	-0.710	-0.450
2020/01/31 21:06:33.2	6.130	-0.090	-0.710	-0.500
2020/01/31 21:06:33.3	6.160	-0.120	-0.700	-0.540
2020/01/31 21:06:33.4	6.190	-0.150	-0.690	-0.590
2020/01/31 21:06:33.5	6.230	-0.170	-0.680	-0.640
2020/01/31 21:06:33.6	6.260	-0.200	-0.660	-0.680
2020/01/31 21:06:33.7	6.300	-0.220	-0.640	-0.730
2020/01/31 21:06:33.8	6.340	-0.240	-0.620	-0.770
2020/01/31 21:06:33.9	6.370	-0.260	-0.590	-0.810
2020/01/31 21:06:34.0	6.410	-0.290	-0.550	-0.860
2020/01/31 21:06:34.1	6.450	-0.300	-0.520	-0.890
2020/01/31 21:06:34.2	6.480	-0.320	-0.480	-0.930
2020/01/31 21:06:34.3	6.520	-0.340	-0.440	-0.960
2020/01/31 21:06:34.4	6.550	-0.360	-0.400	-0.990
2020/01/31 21:06:34.5	6.580	-0.370	-0.360	-1.020
2020/01/31 21:06:34.6	6.610	-0.380	-0.320	-1.040
2020/01/31 21:06:34.7	6.640	-0.390	-0.270	-1.060
2020/01/31 21:06:34.8	6.670	-0.400	-0.230	-1.080
2020/01/31 21:06:34.9	6.690	-0.410	-0.180	-1.090
2020/01/31 21:06:35.0	6.720	-0.420	-0.140	-1.100
2020/01/31 21:06:35.1	6.740	-0.420	-0.100	-1.100
2020/01/31 21:06:35.2	6.760	-0.430	-0.050	-1.100
2020/01/31 21:06:35.3	6.780	-0.430	-0.010	-1.100
2020/01/31 21:06:35.4	6.800	-0.430	0.030	-1.090
2020/01/31 21:06:35.5	6.810	-0.430	0.070	-1.070
2020/01/31 21:06:35.6	6.830	-0.420	0.100	-1.060
2020/01/31 21:06:35.7	6.840	-0.420	0.140	-1.030
2020/01/31 21:06:35.8	6.850	-0.410	0.170	-1.010
2020/01/31 21:06:35.9	6.860	-0.400	0.190	-0.980
2020/01/31 21:06:36.0	6.880	-0.390	0.220	-0.950
2020/01/31 21:06:36.1	6.880	-0.380	0.240	-0.910
2020/01/31 21:06:36.2	6.890	-0.360	0.250	-0.870
2020/01/31 21:06:36.3	6.890	-0.350	0.260	-0.830
2020/01/31 21:06:36.4	6.890	-0.330	0.270	-0.790
2020/01/31 21:06:36.5	6.890	-0.310	0.280	-0.750
2020/01/31 21:06:36.6	6.890	-0.280	0.280	-0.700
2020/01/31 21:06:36.7	6.880	-0.260	0.270	-0.660
2020/01/31 21:06:36.8	6.880	-0.230	0.270	-0.610
2020/01/31 21:06:36.9	6.870	-0.210	0.260	-0.560
2020/01/31 21:06:37.0	6.850	-0.180	0.240	-0.510
2020/01/31 21:06:37.1	6.830	-0.140	0.230	-0.450
2020/01/31 21:06:37.2	6.810	-0.110	0.210	-0.400
2020/01/31 21:06:37.3	6.780	-0.080	0.190	-0.340
2020/01/31 21:06:37.4	6.760	-0.040	0.170	-0.290
2020/01/31 21:06:37.5	6.730	-0.010	0.150	-0.230
2020/01/31 21:06:37.6	6.690	0.030	0.130	-0.160
2020/01/31 21:06:37.7	6.660	0.070	0.110	-0.100
2020/01/31 21:06:37.8	6.610	0.110	0.100	-0.040
2020/01/31 21:06:37.9	6.570	0.150	0.080	0.030
2020/01/31 21:06:38.0	6.520	0.190	0.060	0.100
2020/01/31 21:06:38.1	6.470	0.230	0.040	0.170
2020/01/31 21:06:38.2	6.420	0.260	0.030	0.230
2020/01/31 21:06:38.3	6.370	0.300	0.010	0.300
2020/01/31 21:06:38.4	6.320	0.340	-0.000	0.370
2020/01/31 21:06:38.5	6.260	0.370	-0.020	0.430
2020/01/31 21:06:38.6	6.210	0.400	-0.030	0.490
2020/01/31 21:06:38.7	6.160	0.430	-0.050	0.550
2020/01/31 21:06:38.8	6.100	0.460	-0.060	0.600
2020/01/31 21:06:38.9	6.050	0.480	-0.070	0.650
2020/01/31 21:06:39.0	6.000	0.500	-0.090	0.690
2020/01/31 21:06:39.1	5.950	0.520	-0.110	0.730
2020/01/31 21:06:39.2	5.910	0.540	-0.120	0.760
2020/01/31 21:06:39.3	5.860	0.550	-0.140	0.780
2020/01/31 21:06:39.4	5.820	0.560	-0.160	0.800
2020/01/31 21:06:39.5	5.790	0.560	-0.180	0.810
2020/01/31 21:06:39.6	5.750	0.570	-0.200	0.810
2020/01/31 21:06:39.7	5.720	0.570	-0.230	0.800
2020/01/31 21:06:39.8	5.700	0.560	-0.250	0.790
2020/01/31 21:06:39.9	5.670	0.550	-0.280	0.770
2020/01/31 21:06:40.0	5.660	0.540	-0.310	0.740
2020/01/31 21:06:40.1	5.640	0.530	-0.340	0.710
2020/01/31 21:06:40.2	5.630	0.510	-0.380	0.670
2020/01/31 21:06:40.3	5.620	0.490	-0.410	0.620
2020/01/31 21:06:40.4	5.620	0.470	-0.440	0.570
2020/01/31 21:06:40.5	5.620	0.450	-0.480	0.510
2020/01/31 21:06:40.6	5.630	0.420	-0.510	0.450
2020/01/31 21:06:40.7	5.630	0.390	-0.550	0.380
2020/01/31 21:06:40.8	5.640	0.360	-0.580	0.320
2020/01/31 21:06:40.9	5.650	0.330	-0.610	0.250
2020/01/31 21:06:41.0	5.650	0.290	-0.640	0.170
2020/01/31 21:06:41.1	5.670	0.260	-0.670	0.090
2020/01/31 21:06:41.2	5.690	0.220	-0.690	0.020
2020/01/31 21:06:41.3	5.710	0.180	-0.710	-0.060
2020/01/31 21:06:41.4	5.730	0.140	-0.730	-0.130
2020/01/31 21:06:41.5	5.750	0.100	-0.740	-0.210
2020/01/31 21:06:41.6	5.770	0.060	-0.750	-0.290
2020/01/31 21:06:41.7	5.790	0.020	-0.750	-0.360
2020/01/31 21:06:41.8	5.820	-0.030	-0.750	-0.430
2020/01/31 21:06:41.9	5.840	-0.070	-0.740	-0.500
2020/01/31 21:06:42.0	5.870	-0.110	-0.730	-0.580
2020/01/31 21:06:42.1	5.900	-0.150	-0.720	-0.640
2020/01/31 21:06:42.2	5.920	-0.190	-0.700	-0.710
2020/01/31 21:06:42.3	5.950	-0.220	-0.690	-0.770
2020/01/31 21:06:42.4	5.980	-0.260	-0.660	-0.830
2020/01/31 21:06:42.5	6.000	-0.290	-0.640	-0.880
2020/01/31 21:06:42.6	6.030	-0.320	-0.610	-0.940
2020/01/31 21:06:42.7	6.060	-0.350	-0.590	-0.990
2020/01/31 21:06:42.8	6.090	-0.380	-0.560	-1.030
2020/01/31 21:06:42.9	6.120	-0.400	-0.530	-1.070
2020/01/31 21:06:43.0	6.150	-0.420	-0.510	-1.110
2020/01/31 21:06:43.1	6.180	-0.440	-0.480	-1.140
2020/01/31 21:06:43.2	6.210	-0.450	-0.460	-1.170
2020/01/31 21:06:43.3	6.250	-0.460	-0.430	-1.200
2020/01/31 21:06:43.4	6.280	-0.460	-0.410	-1.220
2020/01/31 21:06:43.5	6.320	-0.470	-0.390	-1.240
2020/01/31 21:06:43.6	6.360	-0.460	-0.380	-1.260
2020/01/31 21:06:43.7	6.390	-0.450	-0.360	-1.270
2020/01/31 21:06:43.8	6.430	-0.440	-0.350	-1.270
2020/01/31 21:06:43.9	6.470	-0.430	-0.340	-1.280
2020/01/31 21:06:44.0	6.520	-0.410	-0.340	-1.280
2020/01/31 21:06:44.1	6.560	-0.390	-0.330	-1.280
2020/01/31 21:06:44.2	6.600	-0.360	-0.330	-1.270
2020/01/31 21:06:44.3	6.640	-0.330	-0.330	-1.270
2020/01/31 21:06:44.4	6.680	-0.300	-0.330	-1.260
2020/01/31 21:06:44.5	6.720	-0.270	-0.330	-1.240
2020/01/31 21:06:44.6	6.750	-0.230	-0.330	-1.220
2020/01/31 21:06:44.7	6.780	-0.190	-0.330	-1.200
2020/01/31 21:06:44.8	6.810	-0.160	-0.330	-1.170
2020/01/31 21:06:44.9	6.830	-0.120	-0.330	-1.130
2020/01/31 21:06:45.0	6.850	-0.080	-0.330	-1.090
2020/01/31 21:06:45.1	6.860	-0.040	-0.320	-1.050
2020/01/31 21:06:45.2	6.870	-0.010	-0.310	-1.000
2020/01/31 21:06:45.3	6.870	0.030	-0.300	-0.950
2020/01/31 21:06:45.4	6.870	0.060	-0.280	-0.900
2020/01/31 21:06:45.5	6.860	0.090	-0.260	-0.840
2020/01/31 21:06:45.6	6.850	0.120	-0.240	-0.770
2020/01/31 21:06:45.7	6.830	0.150	-0.220	-0.710
2020/01/31 21:06:45.8	6.810	0.170	-0.190	-0.640
2020/01/31 21:06:45.9	6.780	0.190	-0.160	-0.570
2020/01/31 21:06:46.0	6.760	0.210	-0.120	-0.490
2020/01/31 21:06:46.1	6.720	0.220	-0.090	-0.420
2020/01/31 21:06:46.2	6.680	0.230	-0.050	-0.340
2020/01/31 21:06:46.3	6.640	0.230	-0.010	-0.270
2020/01/31 21:06:46.4	6.590	0.240	0.020	-0.190
2020/01/31 21:06:46.5	6.540	0.230	0.060	-0.120
2020/01/31 21:06:46.6	6.490	0.230	0.100	-0.050
2020/01/31 21:06:46.7	6.440	0.220	0.140	0.020
2020/01/31 21:06:46.8	6.390	0.200	0.170	0.080
2020/01/31 21:06:46.9	6.340	0.190	0.210	0.150
2020/01/31 21:06:47.0	6.280	0.170	0.230	0.210
2020/01/31 21:06:47.1	6.230	0.150	0.260	0.260
2020/01/31 21:06:47.2	6.190	0.120	0.280	0.310
2020/01/31 21:06:47.3	6.140	0.090	0.300	0.350
2020/01/31 21:06:47.4	6.100	0.070	0.310	0.390
2020/01/31 21:06:47.5	6.060	0.040	0.320	0.410
2020/01/31 21:06:47.6	6.020	0.010	0.320	0.440
2020/01/31 21:06:47.7	5.980	-0.020	0.320	0.450
2020/01/31 21:06:47.8	5.950	-0.050	0.310	0.460
2020/01/31 21:06:47.9	5.930	-0.080	0.290	0.460
2020/01/31 21:06:48.0	5.900	-0.110	0.270	0.450
2020/01/31 21:06:48.1	5.880	-0.130	0.240	0.440
2020/01/31 21:06:48.2	5.860	-0.160	0.210	0.430
2020/01/31 21:06:48.3	5.850	-0.180	0.170	0.410
2020/01/31 21:06:48.4	5.840	-0.200	0.130	0.380
2020/01/31 21:06:48.5	5.830	-0.210	0.090	0.350
2020/01/31 21:06:48.6	5.830	-0.220	0.040	0.320
2020/01/31 21:06:48.7	5.830	-0.230	-0.020	0.280
2020/01/31 21:06:48.8	5.830	-0.240	-0.070	0.240
2020/01/31 21:06:48.9	5.840	-0.240	-0.130	0.200
2020/01/31 21:06:49.0	5.850	-0.240	-0.180	0.160
2020/01/31 21:06:49.1	5.860	-0.230	-0.240	0.120
2020/01/31 21:06:49.2	5.870	-0.220	-0.300	0.080
2020/01/31 21:06:49.3	5.890	-0.210	-0.350	0.040
2020/01/31 21:06:49.4	5.900	-0.190	-0.410	0.000
2020/01/31 21:06:49.5	5.920	-0.170	-0.460	-0.030
2020/01/31 21:06:49.6	5.930	-0.150	-0.500	-0.060
2020/01/31 21:06:49.7	5.950	-0.120	-0.540	-0.090
2020/01/31 21:06:49.8	5.970	-0.100	-0.580	-0.120
2020/01/31 21:06:49.9	5.980	-0.070	-0.610	-0.140
2020/01/31 21:06:50.0	6.000	-0.040	-0.640	-0.160
2020/01/31 21:06:50.1	6.020	-0.010	-0.670	-0.180
2020/01/31 21:06:50.2	6.030	0.020	-0.680	-0.190
2020/01/31 21:06:50.3	6.050	0.050	-0.690	-0.200
2020/01/31 21:06:50.4	6.060	0.080	-0.700	-0.210
2020/01/31 21:06:50.5	6.070	0.110	-0.690	-0.210
2020/01/31 21:06:50.6	6.080	0.140	-0.690	-0.210
2020/01/31 21:06:50.7	6.090	0.160	-0.670	-0.210
2020/01/31 21:06:50.8	6.100	0.180	-0.660	-0.200
2020/01/31 21:06:50.9	6.110	0.210	-0.630	-0.190
2020/01/31 21:06:51.0	6.120	0.220	-0.610	-0.190
2020/01/31 21:06:51.1	6.130	0.240	-0.580	-0.180
2020/01/31 21:06:51.2	6.140	0.250	-0.540	-0.160
2020/01/31 21:06:51.3	6.150	0.260	-0.510	-0.150
2020/01/31 21:06:51.4	6.160	0.260	-0.470	-0.130
2020/01/31 21:06:51.5	6.160	0.260	-0.430	-0.120
2020/01/31 21:06:51.6	6.170	0.260	-0.390	-0.100
2020/01/31 21:06:51.7	6.180	0.260	-0.350	-0.080
2020/01/31 21:06:51.8	6.180	0.250	-0.310	-0.070
2020/01/31 21:06:51.9	6.190	0.240	-0.270	-0.050
2020/01/31 21:06:52.0	6.180	0.230	-0.230	-0.040
2020/01/31 21:06:52.1	6.180	0.210	-0.190	-0.020
2020/01/31 21:06:52.2	6.190	0.200	-0.150	-0.010
2020/01/31 21:06:52.3	6.190	0.180	-0.120	0.010
2020/01/31 21:06:52.4	6.190	0.160	-0.090	0.020
2020/01/31 21:06:52.5	6.190	0.130	-0.070	0.030
2020/01/31 21:06:52.6	6.190	0.110	-0.040	0.050
2020/01/31 21:06:52.7	6.180	0.080	-0.020	0.060
2020/01/31 21:06:52.8	6.180	0.060	-0.010	0.070
2020/01/31 21:06:52.9	6.180	0.030	0.000	0.080
2020/01/31 21:06:53.0	6.170	0.010	0.010	0.090
2020/01/31 21:06:53.1	6.160	-0.020	0.010	0.100
2020/01/31 21:06:53.2	6.160	-0.040	0.010	0.110
2020/01/31 21:06:53.3	6.150	-0.060	0.000	0.110
2020/01/31 21:06:53.4	6.150	-0.090	-0.010	0.120
2020/01/31 21:06:53.5	6.140	-0.110	-0.020	0.120
2020/01/31 21:06:53.6	6.130	-0.120	-0.040	0.120
2020/01/31 21:06:53.7	6.130	-0.140	-0.060	0.120
2020/01/31 21:06:53.8	6.120	-0.160	-0.080	0.120
2020/01/31 21:06:53.9	6.120	-0.170	-0.110	0.120
2020/01/31 21:06:54.0	6.120	-0.180	-0.130	0.120
2020/01/31 21:06:54.1	6.110	-0.190	-0.160	0.110
2020/01/31 21:06:54.2	6.110	-0.190	-0.190	0.110
2020/01/31 21:06:54.3	6.100	-0.190	-0.220	0.110
2020/01/31 21:06:54.4	6.090	-0.190	-0.250	0.100
2020/01/31 21:06:54.5	6.090	-0.190	-0.280	0.100
2020/01/31 21:06:54.6	6.090	-0.190	-0.310	0.090
2020/01/31 21:06:54.7	6.080	-0.180	-0.340	0.080
2020/01/31 21:06:54.8	6.080	-0.170	-0.370	0.080
2020/01/31 21:06:54.9	6.080	-0.160	-0.390	0.070
2020/01/31 21:06:55.0	6.080	-0.150	-0.420	0.060
2020/01/31 21:06:55.1	6.080	-0.130	-0.440	0.050
2020/01/31 21:06:55.2	6.080	-0.120	-0.460	0.040
2020/01/31 21:06:55.3	6.080	-0.100	-0.470	0.030
2020/01/31 21:06:55.4	6.090	-0.080	-0.490	0.020
2020/01/31 21:06:55.5	6.090	-0.060	-0.500	0.010
2020/01/31 21:06:55.6	6.100	-0.040	-0.500	-0.000
2020/01/31 21:06:55.7	6.110	-0.010	-0.510	-0.010
2020/01/31 21:06:55.8	6.120	0.010	-0.510	-0.020
2020/01/31 21:06:55.9	6.140	0.040	-0.510	-0.030
2020/01/31 21:06:56.0	6.160	0.060	-0.500	-0.050
2020/01/31 21:06:56.1	6.180	0.090	-0.500	-0.050
2020/01/31 21:06:56.2	6.190	0.110	-0.490	-0.060
2020/01/31 21:06:56.3	6.210	0.130	-0.490	-0.070
2020/01/31 21:06:56.4	6.240	0.160	-0.480	-0.080
2020/01/31 21:06:56.5	6.260	0.180	-0.460	-0.080
2020/01/31 21:06:56.6	6.280	0.200	-0.450	-0.080
2020/01/31 21:06:56.7	6.300	0.220	-0.440	-0.090
2020/01/31 21:06:56.8	6.330	0.240	-0.430	-0.090
2020/01/31 21:06:56.9	6.350	0.260	-0.410	-0.090
2020/01/31 21:06:57.0	6.390	0.280	-0.400	-0.090
2020/01/31 21:06:57.1	6.410	0.290	-0.380	-0.090
2020/01/31 21:06:57.2	6.430	0.300	-0.370	-0.090
2020/01/31 21:06:57.3	6.460	0.310	-0.350	-0.090
2020/01/31 21:06:57.4	6.480	0.320	-0.340	-0.100
2020/01/31 21:06:57.5	6.500	0.330	-0.320	-0.100
2020/01/31 21:06:57.6	6.520	0.330	-0.310	-0.100
2020/01/31 21:06:57.7	6.540	0.340	-0.300	-0.100
2020/01/31 21:06:57.8	6.560	0.340	-0.290	-0.110
2020/01/31 21:06:57.9	6.580	0.340	-0.270	-0.110
2020/01/31 21:06:58.0	6.610	0.330	-0.260	-0.120
2020/01/31 21:06:58.1	6.630	0.330	-0.250	-0.120
2020/01/31 21:06:58.2	6.640	0.320	-0.240	-0.130
2020/01/31 21:06:58.3	6.650	0.310	-0.240	-0.130
2020/01/31 21:06:58.4	6.660	0.300	-0.230	-0.140
2020/01/31 21:06:58.5	6.660	0.280	-0.220	-0.140
2020/01/31 21:06:58.6	6.660	0.270	-0.210	-0.150
2020/01/31 21:06:58.7	6.660	0.250	-0.210	-0.160
2020/01/31 21:06:58.8	6.660	0.230	-0.200	-0.160
2020/01/31 21:06:58.9	6.650	0.210	-0.190	-0.170
2020/01/31 21:06:59.0	6.640	0.190	-0.190	-0.180
2020/01/31 21:06:59.1	6.630	0.160	-0.190	-0.190
2020/01/31 21:06:59.2	6.620	0.140	-0.180	-0.200
2020/01/31 21:06:59.3	6.600	0.110	-0.180	-0.220
2020/01/31 21:06:59.4	6.590	0.090	-0.170	-0.230
2020/01/31 21:06:59.5	6.570	0.060	-0.170	-0.250
2020/01/31 21:06:59.6	6.550	0.030	-0.160	-0.260
2020/01/31 21:06:59.7	6.530	0.000	-0.160	-0.280
2020/01/31 21:06:59.8	6.520	-0.020	-0.160	-0.300
2020/01/31 21:06:59.9	6.500	-0.050	-0.160	-0.320
2020/01/31 21:07:00.0	6.480	-0.080	-0.150	-0.340
2020/01/31 21:07:00.1	6.460	-0.110	-0.150	-0.360
2020/01/31 21:07:00.2	6.440	-0.130	-0.150	-0.380
2020/01/31 21:07:00.3	6.420	-0.160	-0.150	-0.400
2020/01/31 21:07:00.4	6.400	-0.180	-0.150	-0.420
2020/01/31 21:07:00.5	6.380	-0.210	-0.150	-0.440
2020/01/31 21:07:00.6	6.360	-0.230	-0.150	-0.450
2020/01/31 21:07:00.7	6.350	-0.250	-0.150	-0.470
2020/01/31 21:07:00.8	6.340	-0.270	-0.150	-0.490
2020/01/31 21:07:00.9	6.320	-0.290	-0.150	-0.520
2020/01/31 21:07:01.0	6.310	-0.300	-0.150	-0.540
2020/01/31 21:07:01.1	6.300	-0.310	-0.150	-0.560
2020/01/31 21:07:01.2	6.290	-0.320	-0.150	-0.580
2020/01/31 21:07:01.3	6.290	-0.330	-0.150	-0.600
2020/01/31 21:07:01.4	6.280	-0.340	-0.150	-0.620
2020/01/31 21:07:01.5	6.280	-0.340	-0.150	-0.650
2020/01/31 21:07:01.6	6.280	-0.340	-0.150	-0.670
2020/01/31 21:07:01.7	6.280	-0.340	-0.150	-0.690
2020/01/31 21:07:01.8	6.280	-0.340	-0.150	-0.710
2020/01/31 21:07:01.9	6.280	-0.340	-0.150	-0.740
2020/01/31 21:07:02.0	6.280	-0.330	-0.150	-0.760
2020/01/31 21:07:02.1	6.290	-0.320	-0.150	-0.770
2020/01/31 21:07:02.2	6.290	-0.310	-0.150	-0.790
2020/01/31 21:07:02.3	6.300	-0.300	-0.150	-0.800
2020/01/31 21:07:02.4	6.300	-0.280	-0.140	-0.810
2020/01/31 21:07:02.5	6.300	-0.260	-0.140	-0.820
2020/01/31 21:07:02.6	6.300	-0.250	-0.130	-0.820
2020/01/31 21:07:02.7	6.300	-0.230	-0.120	-0.810
2020/01/31 21:07:02.8	6.300	-0.210	-0.120	-0.800
2020/01/31 21:07:02.9	6.300	-0.190	-0.110	-0.780
2020/01/31 21:07:03.0	6.300	-0.160	-0.090	-0.760
2020/01/31 21:07:03.1	6.290	-0.140	-0.080	-0.730
2020/01/31 21:07:03.2	6.280	-0.120	-0.070	-0.700
2020/01/31 21:07:03.3	6.270	-0.100	-0.050	-0.660
2020/01/31 21:07:03.4	6.250	-0.080	-0.040	-0.620
2020/01/31 21:07:03.5	6.240	-0.050	-0.030	-0.570
2020/01/31 21:07:03.6	6.220	-0.030	-0.010	-0.520
2020/01/31 21:07:03.7	6.210	-0.010	0.000	-0.470
2020/01/31 21:07:03.8	6.190	0.010	0.010	-0.420
2020/01/31 21:07:03.9	6.170	0.030	0.030	-0.360
2020/01/31 21:07:04.0	6.150	0.040	0.030	-0.300
2020/01/31 21:07:04.1	6.140	0.060	0.040	-0.250
2020/01/31 21:07:04.2	6.120	0.080	0.050	-0.200
2020/01/31 21:07:04.3	6.110	0.090	0.050	-0.150
2020/01/31 21:07:04.4	6.090	0.100	0.050	-0.100
2020/01/31 21:07:04.5	6.080	0.110	0.050	-0.050
2020/01/31 21:07:04.6	6.070	0.120	0.040	-0.010
2020/01/31 21:07:04.7	6.060	0.130	0.030	0.030
2020/01/31 21:07:04.8	6.060	0.140	0.020	0.070
2020/01/31 21:07:04.9	6.050	0.150	-0.000	0.100
2020/01/31 21:07:05.0	6.050	0.160	-0.020	0.130
2020/01/31 21:07:05.1	6.050	0.160	-0.040	0.150
2020/01/31 21:07:05.2	6.050	0.170	-0.070	0.180
2020/01/31 21:07:05.3	6.060	0.170	-0.100	0.200
2020/01/31 21:07:05.4	6.060	0.180	-0.130	0.220
2020/01/31 21:07:05.5	6.070	0.180	-0.170	0.230
2020/01/31 21:07:05.6	6.080	0.180	-0.200	0.240
2020/01/31 21:07:05.7	6.100	0.190	-0.240	0.250
2020/01/31 21:07:05.8	6.110	0.190	-0.280	0.260
2020/01/31 21:07:05.9	6.120	0.190	-0.320	0.270
2020/01/31 21:07:06.0	6.130	0.190	-0.360	0.280
2020/01/31 21:07:06.1	6.140	0.190	-0.400	0.280
2020/01/31 21:07:06.2	6.160	0.180	-0.430	0.280
2020/01/31 21:07:06.3	6.180	0.180	-0.470	0.280
2020/01/31 21:07:06.4	6.190	0.180	-0.500	0.270
2020/01/31 21:07:06.5	6.210	0.170	-0.540	0.270
2020/01/31 21:07:06.6	6.230	0.170	-0.570	0.260
2020/01/31 21:07:06.7	6.240	0.160	-0.600	0.250
2020/01/31 21:07:06.8	6.260	0.150	-0.630	0.240
2020/01/31 21:07:06.9	6.280	0.150	-0.650	0.220
2020/01/31 21:07:07.0	6.290	0.140	-0.670	0.210
2020/01/31 21:07:07.1	6.300	0.130	-0.690	0.190
2020/01/31 21:07:07.2	6.320	0.110	-0.710	0.170
2020/01/31 21:07:07.3	6.330	0.100	-0.720	0.150
2020/01/31 21:07:07.4	6.340	0.090	-0.730	0.130
2020/01/31 21:07:07.5	6.350	0.070	-0.740	0.110
2020/01/31 21:07:07.6	6.360	0.060	-0.740	0.080
2020/01/31 21:07:07.7	6.370	0.040	-0.740	0.060
2020/01/31 21:07:07.8	6.380	0.030	-0.740	0.040
2020/01/31 21:07:07.9	6.380	0.010	-0.740	0.020
2020/01/31 21:07:08.0	6.400	-0.010	-0.720	-0.010
2020/01/31 21:07:08.1	6.400	-0.020	-0.710	-0.030
2020/01/31 21:07:08.2	6.400	-0.040	-0.700	-0.050
2020/01/31 21:07:08.3	6.400	-0.060	-0.680	-0.070
2020/01/31 21:07:08.4	6.400	-0.080	-0.660	-0.080
2020/01/31 21:07:08.5	6.400	-0.100	-0.630	-0.100
2020/01/31 21:07:08.6	6.400	-0.110	-0.610	-0.110
2020/01/31 21:07:08.7	6.400	-0.130	-0.580	-0.120
2020/01/31 21:07:08.8	6.390	-0.150	-0.550	-0.130
2020/01/31 21:07:08.9	6.390	-0.170	-0.510	-0.140
2020/01/31 21:07:09.0	6.400	-0.180	-0.480	-0.150
2020/01/31 21:07:09.1	6.390	-0.200	-0.450	-0.150
2020/01/31 21:07:09.2	6.390	-0.210	-0.420	-0.160
2020/01/31 21:07:09.3	6.380	-0.230	-0.380	-0.160
2020/01/31 21:07:09.4	6.370	-0.240	-0.350	-0.170
2020/01/31 21:07:09.5	6.370	-0.250	-0.310	-0.170
2020/01/31 21:07:09.6	6.360	-0.260	-0.280	-0.170
2020/01/31 21:07:09.7	6.360	-0.260	-0.250	-0.160
2020/01/31 21:07:09.8	6.350	-0.270	-0.230	-0.160
2020/01/31 21:07:09.9	6.350	-0.270	-0.200	-0.160
2020/01/31 21:07:10.0	6.340	-0.270	-0.170	-0.160
2020/01/31 21:07:10.1	6.330	-0.270	-0.150	-0.150
2020/01/31 21:07:10.2	6.330	-0.270	-0.130	-0.140
2020/01/31 21:07:10.3	6.330	-0.260	-0.120	-0.140
2020/01/31 21:07:10.4	6.320	-0.260	-0.100	-0.130
2020/01/31 21:07:10.5	6.320	-0.250	-0.090	-0.120
2020/01/31 21:07:10.6	6.320	-0.240	-0.090	-0.110
2020/01/31 21:07:10.7	6.310	-0.220	-0.080	-0.100
2020/01/31 21:07:10.8	6.310	-0.210	-0.080	-0.090
2020/01/31 21:07:10.9	6.300	-0.190	-0.070	-0.080
2020/01/31 21:07:11.0	6.290	-0.170	-0.080	-0.070
2020/01/31 21:07:11.1	6.280	-0.150	-0.080	-0.060
2020/01/31 21:07:11.2	6.280	-0.120	-0.080	-0.050
2020/01/31 21:07:11.3	6.270	-0.100	-0.090	-0.030
2020/01/31 21:07:11.4	6.270	-0.070	-0.090	-0.020
2020/01/31 21:07:11.5	6.260	-0.040	-0.100	-0.010
2020/01/31 21:07:11.6	6.250	-0.010	-0.100	0.010
2020/01/31 21:07:11.7	6.240	0.020	-0.110	0.020
2020/01/31 21:07:11.8	6.240	0.050	-0.110	0.040
2020/01/31 21:07:11.9	6.230	0.080	-0.120	0.060
2020/01/31 21:07:12.0	6.230	0.110	-0.120	0.070
2020/01/31 21:07:12.1	6.220	0.140	-0.130	0.090
2020/01/31 21:07:12.2	6.210	0.170	-0.130	0.110
2020/01/31 21:07:12.3	6.200	0.200	-0.140	0.130
2020/01/31 21:07:12.4	6.190	0.230	-0.140	0.140
2020/01/31 21:07:12.5	6.180	0.260	-0.140	0.160
2020/01/31 21:07:12.6	6.160	0.290	-0.150	0.180
2020/01/31 21:07:12.7	6.150	0.310	-0.150	0.200
2020/01/31 21:07:12.8	6.140	0.330	-0.150	0.220
2020/01/31 21:07:12.9	6.120	0.360	-0.150	0.240
2020/01/31 21:07:13.0	6.110	0.370	-0.150	0.270
2020/01/31 21:07:13.1	6.100	0.390	-0.150	0.290
2020/01/31 21:07:13.2	6.080	0.400	-0.150	0.310
2020/01/31 21:07:13.3	6.060	0.420	-0.150	0.330
2020/01/31 21:07:13.4	6.050	0.420	-0.150	0.350
2020/01/31 21:07:13.5	6.030	0.430	-0.150	0.370
2020/01/31 21:07:13.6	6.020	0.430	-0.150	0.390
2020/01/31 21:07:13.7	6.000	0.430	-0.150	0.400
2020/01/31 21:07:13.8	5.990	0.430	-0.150	0.420
2020/01/31 21:07:13.9	5.970	0.420	-0.140	0.430
2020/01/31 21:07:14.0	5.940	0.410	-0.140	0.440
2020/01/31 21:07:14.1	5.930	0.400	-0.140	0.440
2020/01/31 21:07:14.2	5.920	0.380	-0.140	0.450
2020/01/31 21:07:14.3	5.900	0.370	-0.140	0.450
2020/01/31 21:07:14.4	5.890	0.340	-0.150	0.450
2020/01/31 21:07:14.5	5.880	0.320	-0.150	0.440
2020/01/31 21:07:14.6	5.870	0.290	-0.150	0.430
2020/01/31 21:07:14.7	5.870	0.270	-0.150	0.420
2020/01/31 21:07:14.8	5.860	0.240	-0.160	0.400
2020/01/31 21:07:14.9	5.850	0.210	-0.160	0.380
2020/01/31 21:07:15.0	5.850	0.180	-0.160	0.360
2020/01/31 21:07:15.1	5.850	0.140	-0.170	0.330
2020/01/31 21:07:15.2	5.850	0.110	-0.170	0.310
2020/01/31 21:07:15.3	5.840	0.080	-0.170	0.280
2020/01/31 21:07:15.4	5.840	0.040	-0.180	0.250
2020/01/31 21:07:15.5	5.850	0.010	-0.180	0.220
2020/01/31 21:07:15.6	5.850	-0.020	-0.180	0.190
2020/01/31 21:07:15.7	5.850	-0.050	-0.180	0.170
2020/01/31 21:07:15.8	5.860	-0.080	-0.180	0.140
2020/01/31 21:07:15.9	5.860	-0.110	-0.180	0.110
2020/01/31 21:07:16.0	5.860	-0.140	-0.180	0.080
2020/01/31 21:07:16.1	5.860	-0.160	-0.180	0.050
2020/01/31 21:07:16.2	5.870	-0.190	-0.170	0.020
2020/01/31 21:07:16.3	5.880	-0.210	-0.170	-0.000
2020/01/31 21:07:16.4	5.890	-0.230	-0.170	-0.030
2020/01/31 21:07:16.5	5.900	-0.240	-0.160	-0.060
2020/01/31 21:07:16.6	5.920	-0.260	-0.160	-0.080
2020/01/31 21:07:16.7	5.930	-0.270	-0.160	-0.110
2020/01/31 21:07:16.8	5.940	-0.280	-0.160	-0.130
2020/01/31 21:07:16.9	5.950	-0.290	-0.160	-0.160
2020/01/31 21:07:17.0	5.960	-0.290	-0.160	-0.170
2020/01/31 21:07:17.1	5.980	-0.300	-0.160	-0.200
2020/01/31 21:07:17.2	5.990	-0.300	-0.160	-0.210
2020/01/31 21:07:17.3	6.000	-0.300	-0.160	-0.230
2020/01/31 21:07:17.4	6.010	-0.300	-0.160	-0.250
2020/01/31 21:07:17.5	6.020	-0.300	-0.160	-0.260
2020/01/31 21:07:17.6	6.030	-0.290	-0.160	-0.280
2020/01/31 21:07:17.7	6.040	-0.290	-0.170	-0.290
2020/01/31 21:07:17.8	6.050	-0.280	-0.170	-0.300
2020/01/31 21:07:17.9	6.050	-0.270	-0.180	-0.310
2020/01/31 21:07:18.0	6.060	-0.270	-0.180	-0.310
2020/01/31 21:07:18.1	6.070	-0.260	-0.190	-0.310
2020/01/31 21:07:18.2	6.070	-0.250	-0.190	-0.310
2020/01/31 21:07:18.3	6.080	-0.240	-0.200	-0.310
2020/01/31 21:07:18.4	6.090	-0.230	-0.210	-0.310
2020/01/31 21:07:18.5	6.090	-0.220	-0.220	-0.300
2020/01/31 21:07:18.6	6.090	-0.200	-0.220	-0.290
2020/01/31 21:07:18.7	6.100	-0.190	-0.230	-0.280
2020/01/31 21:07:18.8	6.100	-0.180	-0.240	-0.260
2020/01/31 21:07:18.9	6.100	-0.170	-0.250	-0.240
2020/01/31 21:07:19.0	6.100	-0.160	-0.250	-0.220
2020/01/31 21:07:19.1	6.100	-0.150	-0.260	-0.200
2020/01/31 21:07:19.2	6.100	-0.140	-0.260	-0.170
2020/01/31 21:07:19.3	6.090	-0.130	-0.270	-0.150
2020/01/31 21:07:19.4	6.090	-0.120	-0.280	-0.120
2020/01/31 21:07:19.5	6.080	-0.110	-0.280	-0.090
2020/01/31 21:07:19.6	6.070	-0.100	-0.290	-0.060
2020/01/31 21:07:19.7	6.060	-0.090	-0.290	-0.040
2020/01/31 21:07:19.8	6.050	-0.080	-0.300	-0.010
2020/01/31 21:07:19.9	6.040	-0.070	-0.300	0.020
2020/01/31 21:07:20.0	6.020	-0.060	-0.310	0.050
2020/01/31 21:07:20.1	6.000	-0.050	-0.310	0.070
2020/01/31 21:07:20.2	5.980	-0.050	-0.320	0.100
2020/01/31 21:07:20.3	5.970	-0.040	-0.330	0.120
2020/01/31 21:07:20.4	5.950	-0.030	-0.330	0.140
2020/01/31 21:07:20.5	5.930	-0.020	-0.340	0.160
2020/01/31 21:07:20.6	5.910	-0.010	-0.350	0.180
2020/01/31 21:07:20.7	5.900	-0.000	-0.360	0.190
2020/01/31 21:07:20.8	5.880	0.000	-0.370	0.210
2020/01/31 21:07:20.9	5.860	0.010	-0.380	0.210
2020/01/31 21:07:21.0	5.850	0.020	-0.390	0.220
2020/01/31 21:07:21.1	5.840	0.030	-0.410	0.230
2020/01/31 21:07:21.2	5.820	0.040	-0.420	0.230
2020/01/31 21:07:21.3	5.810	0.050	-0.430	0.230
2020/01/31 21:07:21.4	5.800	0.070	-0.450	0.230
2020/01/31 21:07:21.5	5.790	0.080	-0.460	0.230
2020/01/31 21:07:21.6	5.790	0.090	-0.480	0.220
2020/01/31 21:07:21.7	5.780	0.100	-0.500	0.210
2020/01/31 21:07:21.8	5.780	0.110	-0.520	0.190
2020/01/31 21:07:21.9	5.790	0.120	-0.530	0.180
2020/01/31 21:07:22.0	5.790	0.140	-0.550	0.160
2020/01/31 21:07:22.1	5.800	0.150	-0.570	0.140
2020/01/31 21:07:22.2	5.800	0.160	-0.580	0.120
2020/01/31 21:07:22.3	5.800	0.170	-0.600	0.090
2020/01/31 21:07:22.4	5.810	0.180	-0.610	0.070
2020/01/31 21:07:22.5	5.810	0.190	-0.620	0.040
2020/01/31 21:07:22.6	5.810	0.200	-0.630	0.020
2020/01/31 21:07:22.7	5.820	0.210	-0.630	-0.010
2020/01/31 21:07:22.8	5.820	0.210	-0.640	-0.040
2020/01/31 21:07:22.9	5.830	0.220	-0.640	-0.060
2020/01/31 21:07:23.0	5.830	0.220	-0.630	-0.090
2020/01/31 21:07:23.1	5.840	0.220	-0.630	-0.110
2020/01/31 21:07:23.2	5.840	0.220	-0.620	-0.130
2020/01/31 21:07:23.3	5.840	0.220	-0.600	-0.150
2020/01/31 21:07:23.4	5.840	0.210	-0.580	-0.170
2020/01/31 21:07:23.5	5.840	0.210	-0.560	-0.190
2020/01/31 21:07:23.6	5.840	0.200	-0.530	-0.210
2020/01/31 21:07:23.7	5.840	0.180	-0.500	-0.230
2020/01/31 21:07:23.8	5.840	0.170	-0.460	-0.240
2020/01/31 21:07:23.9	5.830	0.150	-0.420	-0.250
2020/01/31 21:07:24.0	5.820	0.140	-0.380	-0.270
2020/01/31 21:07:24.1	5.810	0.120	-0.340	-0.270
2020/01/31 21:07:24.2	5.810	0.090	-0.290	-0.280
2020/01/31 21:07:24.3	5.800	0.070	-0.240	-0.280
2020/01/31 21:07:24.4	5.790	0.050	-0.190	-0.280
2020/01/31 21:07:24.5	5.790	0.020	-0.140	-0.280
2020/01/31 21:07:24.6	5.780	-0.000	-0.090	-0.270
2020/01/31 21:07:24.7	5.770	-0.030	-0.040	-0.260
2020/01/31 21:07:24.8	5.760	-0.060	0.010	-0.250
2020/01/31 21:07:24.9	5.750	-0.080	0.060	-0.230
2020/01/31 21:07:25.0	5.740	-0.110	0.100	-0.210
2020/01/31 21:07:25.1	5.740	-0.130	0.150	-0.190
2020/01/31 21:07:25.2	5.730	-0.160	0.190	-0.170
2020/01/31 21:07:25.3	5.720	-0.180	0.220	-0.140
2020/01/31 21:07:25.4	5.710	-0.200	0.260	-0.120
2020/01/31 21:07:25.5	5.710	-0.220	0.280	-0.090
2020/01/31 21:07:25.6	5.710	-0.230	0.300	-0.060
2020/01/31 21:07:25.7	5.700	-0.250	0.320	-0.040
2020/01/31 21:07:25.8	5.700	-0.260	0.330	-0.010
2020/01/31 21:07:25.9	5.700	-0.270	0.330	0.020
2020/01/31 21:07:26.0	5.700	-0.280	0.330	0.040
2020/01/31 21:07:26.1	5.700	-0.290	0.320	0.060
2020/01/31 21:07:26.2	5.700	-0.290	0.310	0.080
2020/01/31 21:07:26.3	5.710	-0.290	0.290	0.100
2020/01/31 21:07:26.4	5.710	-0.290	0.260	0.120
2020/01/31 21:07:26.5	5.720	-0.290	0.230	0.130
2020/01/31 21:07:26.6	5.720	-0.280	0.200	0.140
2020/01/31 21:07:26.7	5.730	-0.270	0.160	0.150
2020/01/31 21:07:26.8	5.730	-0.260	0.110	0.160
2020/01/31 21:07:26.9	5.740	-0.250	0.070	0.160
2020/01/31 21:07:27.0	5.740	-0.230	0.020	0.160
2020/01/31 21:07:27.1	5.750	-0.220	-0.040	0.170
2020/01/31 21:07:27.2	5.750	-0.200	-0.090	0.170
2020/01/31 21:07:27.3	5.760	-0.180	-0.140	0.170
2020/01/31 21:07:27.4	5.760	-0.150	-0.190	0.180
2020/01/31 21:07:27.5	5.760	-0.130	-0.250	0.180
2020/01/31 21:07:27.6	5.760	-0.110	-0.300	0.190
2020/01/31 21:07:27.7	5.760	-0.080	-0.340	0.190
2020/01/31 21:07:27.8	5.760	-0.050	-0.390	0.200
2020/01/31 21:07:27.9	5.760	-0.020	-0.430	0.210
2020/01/31 21:07:28.0	5.770	0.010	-0.470	0.230
2020/01/31 21:07:28.1	5.760	0.040	-0.510	0.250
2020/01/31 21:07:28.2	5.760	0.070	-0.540	0.260
2020/01/31 21:07:28.3	5.750	0.100	-0.560	0.280
2020/01/31 21:07:28.4	5.750	0.130	-0.590	0.310
2020/01/31 21:07:28.5	5.740	0.160	-0.600	0.330
2020/01/31 21:07:28.6	5.730	0.180	-0.610	0.360
2020/01/31 21:07:28.7	5.720	0.210	-0.620	0.380
2020/01/31 21:07:28.8	5.710	0.240	-0.620	0.410
2020/01/31 21:07:28.9	5.710	0.260	-0.620	0.440
2020/01/31 21:07:29.0	5.700	0.290	-0.620	0.470
2020/01/31 21:07:29.1	5.690	0.310	-0.610	0.490
2020/01/31 21:07:29.2	5.680	0.330	-0.590	0.520
2020/01/31 21:07:29.3	5.660	0.350	-0.580	0.540
2020/01/31 21:07:29.4	5.650	0.360	-0.560	0.560
2020/01/31 21:07:29.5	5.640	0.380	-0.530	0.580
2020/01/31 21:07:29.6	5.630	0.390	-0.510	0.600
2020/01/31 21:07:29.7	5.610	0.400	-0.490	0.610
2020/01/31 21:07:29.8	5.600	0.410	-0.460	0.620
2020/01/31 21:07:29.9	5.590	0.410	-0.430	0.630
2020/01/31 21:07:30.0	5.570	0.410	-0.400	0.630
2020/01/31 21:07:30.1	5.560	0.410	-0.370	0.630
2020/01/31 21:07:30.2	5.550	0.410	-0.350	0.620
2020/01/31 21:07:30.3	5.540	0.400	-0.320	0.610
2020/01/31 21:07:30.4	5.530	0.400	-0.290	0.590
2020/01/31 21:07:30.5	5.520	0.380	-0.260	0.570
2020/01/31 21:07:30.6	5.500	0.370	-0.230	0.550
2020/01/31 21:07:30.7	5.500	0.350	-0.200	0.520
2020/01/31 21:07:30.8	5.490	0.330	-0.180	0.490
2020/01/31 21:07:30.9	5.480	0.310	-0.150	0.450
2020/01/31 21:07:31.0	5.480	0.290	-0.130	0.410
2020/01/31 21:07:31.1	5.470	0.260	-0.100	0.370
2020/01/31 21:07:31.2	5.470	0.230	-0.080	0.330
2020/01/31 21:07:31.3	5.460	0.200	-0.060	0.290
2020/01/31 21:07:31.4	5.460	0.170	-0.050	0.250
2020/01/31 21:07:31.5	5.460	0.140	-0.030	0.200
2020/01/31 21:07:31.6	5.460	0.100	-0.020	0.150
2020/01/31 21:07:31.7	5.460	0.070	-0.010	0.110
2020/01/31 21:07:31.8	5.470	0.030	-0.000	0.060
2020/01/31 21:07:31.9	5.470	-0.010	0.000	0.010
2020/01/31 21:07:32.0	5.480	-0.050	0.000	-0.040
2020/01/31 21:07:32.1	5.490	-0.090	0.000	-0.100
2020/01/31 21:07:32.2	5.510	-0.120	-0.000	-0.150
2020/01/31 21:07:32.3	5.520	-0.160	-0.010	-0.200
2020/01/31 21:07:32.4	5.540	-0.200	-0.020	-0.260
2020/01/31 21:07:32.5	5.570	-0.230	-0.030	-0.310
2020/01/31 21:07:32.6	5.590	-0.260	-0.050	-0.370
2020/01/31 21:07:32.7	5.620	-0.300	-0.070	-0.430
2020/01/31 21:07:32.8	5.650	-0.330	-0.090	-0.480
2020/01/31 21:07:32.9	5.680	-0.350	-0.120	-0.540
2020/01/31 21:07:33.0	5.700	-0.380	-0.150	-0.600
2020/01/31 21:07:33.1	5.740	-0.400	-0.170	-0.660
2020/01/31 21:07:33.2	5.770	-0.430	-0.200	-0.710
2020/01/31 21:07:33.3	5.800	-0.440	-0.240	-0.770
2020/01/31 21:07:33.4	5.830	-0.460	-0.270	-0.820
2020/01/31 21:07:33.5	5.860	-0.470	-0.300	-0.860
2020/01/31 21:07:33.6	5.890	-0.490	-0.330	-0.900
2020/01/31 21:07:33.7	5.910	-0.490	-0.360	-0.940
2020/01/31 21:07:33.8	5.930	-0.500	-0.390	-0.970
2020/01/31 21:07:33.9	5.950	-0.500	-0.420	-1.000
2020/01/31 21:07:34.0	5.980	-0.500	-0.440	-1.020
2020/01/31 21:07:34.1	5.990	-0.500	-0.460	-1.030
2020/01/31 21:07:34.2	5.990	-0.500	-0.480	-1.030
2020/01/31 21:07:34.3	5.990	-0.490	-0.490	-1.030
2020/01/31 21:07:34.4	5.990	-0.480	-0.500	-1.020
2020/01/31 21:07:34.5	5.980	-0.470	-0.500	-1.000
2020/01/31 21:07:34.6	5.970	-0.460	-0.500	-0.970
2020/01/31 21:07:34.7	5.960	-0.450	-0.500	-0.940
2020/01/31 21:07:34.8	5.940	-0.430	-0.490	-0.910
2020/01/31 21:07:34.9	5.920	-0.410	-0.480	-0.860
2020/01/31 21:07:35.0	5.900	-0.400	-0.470	-0.820
2020/01/31 21:07:35.1	5.870	-0.380	-0.450	-0.770
2020/01/31 21:07:35.2	5.840	-0.350	-0.430	-0.710
2020/01/31 21:07:35.3	5.820	-0.330	-0.400	-0.660
2020/01/31 21:07:35.4	5.790	-0.310	-0.380	-0.600
2020/01/31 21:07:35.5	5.760	-0.280	-0.350	-0.530
2020/01/31 21:07:35.6	5.720	-0.260	-0.330	-0.470
2020/01/31 21:07:35.7	5.690	-0.230	-0.300	-0.410
2020/01/31 21:07:35.8	5.660	-0.200	-0.270	-0.340
2020/01/31 21:07:35.9	5.630	-0.180	-0.250	-0.270
2020/01/31 21:07:36.0	5.600	-0.150	-0.220	-0.210
2020/01/31 21:07:36.1	5.570	-0.120	-0.200	-0.140
2020/01/31 21:07:36.2	5.540	-0.080	-0.170	-0.080
2020/01/31 21:07:36.3	5.520	-0.050	-0.150	-0.020
2020/01/31 21:07:36.4	5.490	-0.020	-0.140	0.040
2020/01/31 21:07:36.5	5.470	0.010	-0.120	0.110
2020/01/31 21:07:36.6	5.450	0.050	-0.110	0.160
2020/01/31 21:07:36.7	5.430	0.080	-0.090	0.220
2020/01/31 21:07:36.8	5.410	0.120	-0.080	0.280
2020/01/31 21:07:36.9	5.390	0.150	-0.080	0.330
2020/01/31 21:07:37.0	5.380	0.180	-0.070	0.380
2020/01/31 21:07:37.1	5.360	0.220	-0.070	0.430
2020/01/31 21:07:37.2	5.350	0.250	-0.060	0.480
2020/01/31 21:07:37.3	5.330	0.280	-0.060	0.530
2020/01/31 21:07:37.4	5.320	0.310	-0.060	0.570
2020/01/31 21:07:37.5	5.310	0.340	-0.060	0.610
2020/01/31 21:07:37.6	5.290	0.370	-0.060	0.650
2020/01/31 21:07:37.7	5.280	0.390	-0.070	0.690
2020/01/31 21:07:37.8	5.270	0.420	-0.070	0.720
2020/01/31 21:07:37.9	5.250	0.440	-0.070	0.750
2020/01/31 21:07:38.0	5.240	0.460	-0.070	0.780
2020/01/31 21:07:38.1	5.230	0.470	-0.070	0.810
2020/01/31 21:07:38.2	5.220	0.490	-0.080	0.830
2020/01/31 21:07:38.3	5.210	0.500	-0.080	0.840
2020/01/31 21:07:38.4	5.200	0.500	-0.080	0.860
2020/01/31 21:07:38.5	5.190	0.510	-0.080	0.870
2020/01/31 21:07:38.6	5.180	0.510	-0.080	0.880
2020/01/31 21:07:38.7	5.170	0.500	-0.080	0.880
2020/01/31 21:07:38.8	5.170	0.500	-0.080	0.890
2020/01/31 21:07:38.9	5.160	0.490	-0.090	0.880
2020/01/31 21:07:39.0	5.150	0.480	-0.090	0.880
2020/01/31 21:07:39.1	5.140	0.460	-0.100	0.870
2020/01/31 21:07:39.2	5.140	0.450	-0.100	0.860
2020/01/31 21:07:39.3	5.140	0.430	-0.110	0.840
2020/01/31 21:07:39.4	5.140	0.400	-0.120	0.820
2020/01/31 21:07:39.5	5.140	0.380	-0.140	0.800
2020/01/31 21:07:39.6	5.140	0.350	-0.150	0.770
2020/01/31 21:07:39.7	5.140	0.320	-0.170	0.740
2020/01/31 21:07:39.8	5.150	0.290	-0.190	0.700
2020/01/31 21:07:39.9	5.150	0.260	-0.210	0.660
2020/01/31 21:07:40.0	5.170	0.230	-0.240	0.610
2020/01/31 21:07:40.1	5.180	0.190	-0.260	0.550
2020/01/31 21:07:40.2	5.190	0.160	-0.290	0.500
2020/01/31 21:07:40.3	5.210	0.120	-0.320	0.440
2020/01/31 21:07:40.4	5.230	0.090	-0.360	0.370
2020/01/31 21:07:40.5	5.260	0.050	-0.390	0.300
2020/01/31 21:07:40.6	5.280	0.020	-0.430	0.230
2020/01/31 21:07:40.7	5.310	-0.020	-0.470	0.160
2020/01/31 21:07:40.8	5.330	-0.050	-0.510	0.080
2020/01/31 21:07:40.9	5.360	-0.090	-0.540	0.010
2020/01/31 21:07:41.0	5.390	-0.120	-0.580	-0.070
2020/01/31 21:07:41.1	5.430	-0.150	-0.620	-0.150
2020/01/31 21:07:41.2	5.450	-0.180	-0.650	-0.220
2020/01/31 21:07:41.3	5.480	-0.200	-0.690	-0.290
2020/01/31 21:07:41.4	5.510	-0.230	-0.720	-0.360
2020/01/31 21:07:41.5	5.540	-0.250	-0.750	-0.430
2020/01/31 21:07:41.6	5.570	-0.270	-0.770	-0.490
2020/01/31 21:07:41.7	5.600	-0.290	-0.800	-0.560
2020/01/31 21:07:41.8	5.630	-0.300	-0.820	-0.610
2020/01/31 21:07:41.9	5.670	-0.310	-0.830	-0.670
2020/01/31 21:07:42.0	5.690	-0.320	-0.840	-0.720
2020/01/31 21:07:42.1	5.720	-0.330	-0.850	-0.760
2020/01/31 21:07:42.2	5.740	-0.330	-0.850	-0.800
2020/01/31 21:07:42.3	5.760	-0.330	-0.850	-0.830
2020/01/31 21:07:42.4	5.790	-0.330	-0.840	-0.860
2020/01/31 21:07:42.5	5.810	-0.330	-0.830	-0.880
2020/01/31 21:07:42.6	5.830	-0.320	-0.810	-0.900
2020/01/31 21:07:42.7	5.850	-0.310	-0.790	-0.910
2020/01/31 21:07:42.8	5.860	-0.300	-0.770	-0.920
2020/01/31 21:07:42.9	5.880	-0.280	-0.740	-0.920
2020/01/31 21:07:43.0	5.910	-0.270	-0.710	-0.920
2020/01/31 21:07:43.1	5.920	-0.250	-0.680	-0.910
2020/01/31 21:07:43.2	5.930	-0.230	-0.640	-0.900
2020/01/31 21:07:43.3	5.940	-0.200	-0.600	-0.880
2020/01/31 21:07:43.4	5.950	-0.180	-0.560	-0.860
2020/01/31 21:07:43.5	5.960	-0.160	-0.510	-0.840
2020/01/31 21:07:43.6	5.960	-0.130	-0.470	-0.810
2020/01/31 21:07:43.7	5.970	-0.100	-0.420	-0.780
2020/01/31 21:07:43.8	5.970	-0.080	-0.370	-0.750
2020/01/31 21:07:43.9	5.970	-0.050	-0.320	-0.710
2020/01/31 21:07:44.0	5.970	-0.030	-0.280	-0.660
2020/01/31 21:07:44.1	5.970	-0.000	-0.230	-0.620
2020/01/31 21:07:44.2	5.960	0.020	-0.180	-0.580
2020/01/31 21:07:44.3	5.950	0.050	-0.130	-0.530
2020/01/31 21:07:44.4	5.940	0.070	-0.080	-0.480
2020/01/31 21:07:44.5	5.920	0.090	-0.040	-0.430
2020/01/31 21:07:44.6	5.900	0.100	0.010	-0.370
2020/01/31 21:07:44.7	5.880	0.120	0.050	-0.320
2020/01/31 21:07:44.8	5.850	0.130	0.090	-0.260
2020/01/31 21:07:44.9	5.820	0.140	0.130	-0.210
2020/01/31 21:07:45.0	5.790	0.150	0.170	-0.160
2020/01/31 21:07:45.1	5.760	0.150	0.200	-0.100
2020/01/31 21:07:45.2	5.720	0.150	0.240	-0.050
2020/01/31 21:07:45.3	5.690	0.150	0.270	0.010
2020/01/31 21:07:45.4	5.650	0.140	0.300	0.060
2020/01/31 21:07:45.5	5.620	0.140	0.320	0.110
2020/01/31 21:07:45.6	5.580	0.120	0.350	0.160
2020/01/31 21:07:45.7	5.540	0.110	0.370	0.200
2020/01/31 21:07:45.8	5.500	0.090	0.390	0.250
2020/01/31 21:07:45.9	5.440	0.070	0.400	0.290
2020/01/31 21:07:46.0	5.400	0.050	0.410	0.330
2020/01/31 21:07:46.1	5.360	0.020	0.420	0.360
2020/01/31 21:07:46.2	5.320	-0.000	0.430	0.390
2020/01/31 21:07:46.3	5.290	-0.030	0.430	0.420
2020/01/31 21:07:46.4	5.250	-0.060	0.430	0.450
2020/01/31 21:07:46.5	5.220	-0.090	0.420	0.470
2020/01/31 21:07:46.6	5.190	-0.120	0.410	0.490
2020/01/31 21:07:46.7	5.160	-0.150	0.400	0.510
2020/01/31 21:07:46.8	5.130	-0.180	0.390	0.520
2020/01/31 21:07:46.9	5.100	-0.210	0.370	0.530
2020/01/31 21:07:47.0	5.090	-0.230	0.350	0.540
2020/01/31 21:07:47.1	5.070	-0.260	0.320	0.550
2020/01/31 21:07:47.2	5.050	-0.280	0.290	0.550
2020/01/31 21:07:47.3	5.030	-0.310	0.260	0.540
2020/01/31 21:07:47.4	5.020	-0.320	0.220	0.540
2020/01/31 21:07:47.5	5.010	-0.340	0.180	0.530
2020/01/31 21:07:47.6	5.000	-0.350	0.140	0.510
2020/01/31 21:07:47.7	5.000	-0.360	0.090	0.500
2020/01/31 21:07:47.8	5.000	-0.370	0.050	0.480
2020/01/31 21:07:47.9	5.000	-0.370	-0.000	0.450
2020/01/31 21:07:48.0	5.000	-0.370	-0.050	0.420
2020/01/31 21:07:48.1	5.010	-0.360	-0.100	0.400
2020/01/31 21:07:48.2	5.020	-0.350	-0.160	0.370
2020/01/31 21:07:48.3	5.040	-0.340	-0.210	0.330
2020/01/31 21:07:48.4	5.050	-0.330	-0.260	0.300
2020/01/31 21:07:48.5	5.070	-0.310	-0.310	0.270
2020/01/31 21:07:48.6	5.080	-0.280	-0.360	0.230
2020/01/31 21:07:48.7	5.100	-0.260	-0.410	0.200
2020/01/31 21:07:48.8	5.120	-0.230	-0.450	0.160
2020/01/31 21:07:48.9	5.140	-0.200	-0.500	0.130
2020/01/31 21:07:49.0	5.160	-0.170	-0.530	0.100
2020/01/31 21:07:49.1	5.180	-0.130	-0.570	0.070
2020/01/31 21:07:49.2	5.200	-0.090	-0.600	0.040
2020/01/31 21:07:49.3	5.220	-0.060	-0.630	0.020
2020/01/31 21:07:49.4	5.240	-0.020	-0.660	-0.010
2020/01/31 21:07:49.5	5.250	0.020	-0.680	-0.020
2020/01/31 21:07:49.6	5.270	0.050	-0.690	-0.040
2020/01/31 21:07:49.7	5.280	0.090	-0.700	-0.050
2020/01/31 21:07:49.8	5.300	0.120	-0.710	-0.050
2020/01/31 21:07:49.9	5.310	0.160	-0.710	-0.060
2020/01/31 21:07:50.0	5.300	0.190	-0.710	-0.050
2020/01/31 21:07:50.1	5.310	0.220	-0.700	-0.050
2020/01/31 21:07:50.2	5.310	0.240	-0.690	-0.040
2020/01/31 21:07:50.3	5.310	0.270	-0.680	-0.030
2020/01/31 21:07:50.4	5.310	0.290	-0.660	-0.010
2020/01/31 21:07:50.5	5.310	0.300	-0.640	0.010
2020/01/31 21:07:50.6	5.300	0.320	-0.610	0.030
2020/01/31 21:07:50.7	5.290	0.330	-0.590	0.050
2020/01/31 21:07:50.8	5.280	0.330	-0.560	0.080
2020/01/31 21:07:50.9	5.260	0.340	-0.530	0.100
2020/01/31 21:07:51.0	5.240	0.340	-0.500	0.130
2020/01/31 21:07:51.1	5.220	0.340	-0.470	0.150
2020/01/31 21:07:51.2	5.200	0.330	-0.450	0.170
2020/01/31 21:07:51.3	5.180	0.320	-0.420	0.200
2020/01/31 21:07:51.4	5.150	0.310	-0.390	0.220
2020/01/31 21:07:51.5	5.120	0.300	-0.360	0.240
2020/01/31 21:07:51.6	5.100	0.290	-0.340	0.250
2020/01/31 21:07:51.7	5.070	0.270	-0.320	0.270
2020/01/31 21:07:51.8	5.040	0.250	-0.300	0.280
2020/01/31 21:07:51.9	5.010	0.230	-0.280	0.290
2020/01/31 21:07:52.0	4.980	0.210	-0.270	0.300
2020/01/31 21:07:52.1	4.960	0.190	-0.260	0.300
2020/01/31 21:07:52.2	4.940	0.180	-0.260	0.300
2020/01/31 21:07:52.3	4.920	0.160	-0.270	0.290
2020/01/31 21:07:52.4	4.900	0.140	-0.270	0.280
2020/01/31 21:07:52.5	4.890	0.120	-0.290	0.270
2020/01/31 21:07:52.6	4.880	0.110	-0.300	0.250
2020/01/31 21:07:52.7	4.880	0.100	-0.320	0.220
2020/01/31 21:07:52.8	4.880	0.090	-0.350	0.190
2020/01/31 21:07:52.9	4.880	0.080	-0.380	0.160
2020/01/31 21:07:53.0	4.880	0.070	-0.410	0.120
2020/01/31 21:07:53.1	4.890	0.070	-0.450	0.080
2020/01/31 21:07:53.2	4.910	0.070	-0.490	0.040
2020/01/31 21:07:53.3	4.930	0.070	-0.530	-0.010
2020/01/31 21:07:53.4	4.950	0.070	-0.560	-0.050
2020/01/31 21:07:53.5	4.970	0.080	-0.600	-0.100
2020/01/31 21:07:53.6	5.000	0.080	-0.640	-0.150
2020/01/31 21:07:53.7	5.030	0.090	-0.670	-0.190
2020/01/31 21:07:53.8	5.050	0.100	-0.700	-0.240
2020/01/31 21:07:53.9	5.080	0.110	-0.730	-0.290
2020/01/31 21:07:54.0	5.110	0.120	-0.750	-0.330
2020/01/31 21:07:54.1	5.140	0.130	-0.760	-0.370
2020/01/31 21:07:54.2	5.170	0.140	-0.770	-0.410
2020/01/31 21:07:54.3	5.200	0.150	-0.770	-0.450
2020/01/31 21:07:54.4	5.230	0.160	-0.770	-0.490
2020/01/31 21:07:54.5	5.260	0.160	-0.760	-0.520
2020/01/31 21:07:54.6	5.280	0.170	-0.750	-0.540
2020/01/31 21:07:54.7	5.310	0.170	-0.720	-0.570
2020/01/31 21:07:54.8	5.340	0.180	-0.700	-0.580
2020/01/31 21:07:54.9	5.370	0.180	-0.660	-0.590
2020/01/31 21:07:55.0	5.390	0.170	-0.620	-0.600
2020/01/31 21:07:55.1	5.410	0.170	-0.580	-0.600
2020/01/31 21:07:55.2	5.430	0.160	-0.530	-0.600
2020/01/31 21:07:55.3	5.450	0.150	-0.480	-0.590
2020/01/31 21:07:55.4	5.470	0.140	-0.420	-0.580
2020/01/31 21:07:55.5	5.490	0.120	-0.370	-0.570
2020/01/31 21:07:55.6	5.500	0.110	-0.310	-0.550
2020/01/31 21:07:55.7	5.520	0.090	-0.250	-0.540
2020/01/31 21:07:55.8	5.530	0.060	-0.190	-0.520
2020/01/31 21:07:55.9	5.530	0.040	-0.130	-0.490
2020/01/31 21:07:56.0	5.540	0.010	-0.080	-0.470
2020/01/31 21:07:56.1	5.550	-0.020	-0.020	-0.450
2020/01/31 21:07:56.2	5.550	-0.050	0.040	-0.430
2020/01/31 21:07:56.3	5.560	-0.090	0.090	-0.400
2020/01/31 21:07:56.4	5.560	-0.120	0.140	-0.380
2020/01/31 21:07:56.5	5.560	-0.160	0.180	-0.360
2020/01/31 21:07:56.6	5.550	-0.190	0.230	-0.340
2020/01/31 21:07:56.7	5.550	-0.230	0.270	-0.320
2020/01/31 21:07:56.8	5.540	-0.270	0.300	-0.290
2020/01/31 21:07:56.9	5.530	-0.300	0.330	-0.270
2020/01/31 21:07:57.0	5.520	-0.340	0.360	-0.250
2020/01/31 21:07:57.1	5.510	-0.370	0.380	-0.230
2020/01/31 21:07:57.2	5.490	-0.410	0.400	-0.210
2020/01/31 21:07:57.3	5.460	-0.440	0.420	-0.190
2020/01/31 21:07:57.4	5.440	-0.460	0.430	-0.170
2020/01/31 21:07:57.5	5.410	-0.490	0.440	-0.150
2020/01/31 21:07:57.6	5.380	-0.510	0.440	-0.130
2020/01/31 21:07:57.7	5.350	-0.530	0.450	-0.110
2020/01/31 21:07:57.8	5.310	-0.550	0.440	-0.080
2020/01/31 21:07:57.9	5.280	-0.560	0.440	-0.060
2020/01/31 21:07:58.0	5.240	-0.570	0.430	-0.030
2020/01/31 21:07:58.1	5.200	-0.570	0.420	-0.010
2020/01/31 21:07:58.2	5.160	-0.570	0.400	0.020
2020/01/31 21:07:58.3	5.120	-0.560	0.380	0.050
2020/01/31 21:07:58.4	5.080	-0.550	0.360	0.080
2020/01/31 21:07:58.5	5.040	-0.530	0.330	0.110
2020/01/31 21:07:58.6	5.000	-0.510	0.300	0.140
2020/01/31 21:07:58.7	4.960	-0.480	0.270	0.170
2020/01/31 21:07:58.8	4.910	-0.450	0.240	0.210
2020/01/31 21:07:58.9	4.870	-0.410	0.200	0.240
2020/01/31 21:07:59.0	4.830	-0.370	0.170	0.270
2020/01/31 21:07:59.1	4.790	-0.320	0.130	0.300
2020/01/31 21:07:59.2	4.750	-0.270	0.090	0.330
2020/01/31 21:07:59.3	4.720	-0.220	0.050	0.370
2020/01/31 21:07:59.4	4.680	-0.160	0.010	0.400
2020/01/31 21:07:59.5	4.640	-0.100	-0.030	0.430
2020/01/31 21:07:59.6	4.610	-0.040	-0.080	0.460
2020/01/31 21:07:59.7	4.570	0.030	-0.120	0.490
2020/01/31 21:07:59.8	4.540	0.090	-0.160	0.520
2020/01/31 21:07:59.9	4.510	0.160	-0.200	0.550
2020/01/31 21:08:00.0	4.460	0.220	-0.240	0.580
2020/01/31 21:08:00.1	4.430	0.290	-0.270	0.610
2020/01/31 21:08:00.2	4.400	0.360	-0.310	0.630
2020/01/31 21:08:00.3	4.380	0.420	-0.340	0.640
2020/01/31 21:08:00.4	4.350	0.480	-0.380	0.660
2020/01/31 21:08:00.5	4.330	0.540	-0.410	0.670
2020/01/31 21:08:00.6	4.310	0.600	-0.440	0.680
2020/01/31 21:08:00.7	4.300	0.650	-0.470	0.680
2020/01/31 21:08:00.8	4.290	0.690	-0.500	0.680
2020/01/31 21:08:00.9	4.280	0.740	-0.530	0.670
2020/01/31 21:08:01.0	4.270	0.780	-0.550	0.660
2020/01/31 21:08:01.1	4.270	0.810	-0.570	0.650
2020/01/31 21:08:01.2	4.270	0.830	-0.600	0.630
2020/01/31 21:08:01.3	4.280	0.850	-0.620	0.600
2020/01/31 21:08:01.4	4.290	0.870	-0.640	0.570
2020/01/31 21:08:01.5	4.300	0.870	-0.650	0.540
2020/01/31 21:08:01.6	4.320	0.870	-0.670	0.500
2020/01/31 21:08:01.7	4.340	0.870	-0.680	0.460
2020/01/31 21:08:01.8	4.360	0.850	-0.690	0.410
2020/01/31 21:08:01.9	4.410	0.830	-0.700	0.360
2020/01/31 21:08:02.0	4.440	0.810	-0.710	0.310
2020/01/31 21:08:02.1	4.470	0.770	-0.710	0.250
2020/01/31 21:08:02.2	4.510	0.730	-0.710	0.190
2020/01/31 21:08:02.3	4.550	0.680	-0.710	0.120
2020/01/31 21:08:02.4	4.590	0.630	-0.710	0.060
2020/01/31 21:08:02.5	4.630	0.570	-0.700	-0.010
2020/01/31 21:08:02.6	4.670	0.510	-0.690	-0.080
2020/01/31 21:08:02.7	4.710	0.440	-0.680	-0.150
2020/01/31 21:08:02.8	4.750	0.370	-0.660	-0.220
2020/01/31 21:08:02.9	4.790	0.290	-0.640	-0.300
2020/01/31 21:08:03.0	4.830	0.210	-0.620	-0.360
2020/01/31 21:08:03.1	4.870	0.130	-0.590	-0.430
2020/01/31 21:08:03.2	4.910	0.050	-0.570	-0.490
2020/01/31 21:08:03.3	4.940	-0.040	-0.540	-0.550
2020/01/31 21:08:03.4	4.970	-0.120	-0.500	-0.610
2020/01/31 21:08:03.5	5.000	-0.210	-0.470	-0.660
2020/01/31 21:08:03.6	5.030	-0.300	-0.430	-0.700
2020/01/31 21:08:03.7	5.050	-0.380	-0.390	-0.750
2020/01/31 21:08:03.8	5.070	-0.460	-0.340	-0.780
2020/01/31 21:08:03.9	5.090	-0.540	-0.300	-0.810
2020/01/31 21:08:04.0	5.100	-0.620	-0.250	-0.840
2020/01/31 21:08:04.1	5.110	-0.700	-0.200	-0.860
2020/01/31 21:08:04.2	5.120	-0.770	-0.150	-0.880
2020/01/31 21:08:04.3	5.130	-0.830	-0.110	-0.900
2020/01/31 21:08:04.4	5.140	-0.890	-0.060	-0.910
2020/01/31 21:08:04.5	5.140	-0.950	-0.020	-0.910
2020/01/31 21:08:04.6	5.150	-0.990	0.020	-0.920
2020/01/31 21:08:04.7	5.150	-1.030	0.060	-0.920
2020/01/31 21:08:04.8	5.150	-1.070	0.100	-0.920
2020/01/31 21:08:04.9	5.150	-1.100	0.130	-0.910
2020/01/31 21:08:05.0	5.160	-1.110	0.150	-0.910
2020/01/31 21:08:05.1	5.160	-1.130	0.170	-0.910
2020/01/31 21:08:05.2	5.150	-1.130	0.180	-0.900
2020/01/31 21:08:05.3	5.150	-1.120	0.190	-0.890
2020/01/31 21:08:05.4	5.150	-1.110	0.190	-0.870
2020/01/31 21:08:05.5	5.150	-1.090	0.190	-0.860
2020/01/31 21:08:05.6	5.140	-1.060	0.180	-0.840
2020/01/31 21:08:05.7	5.140	-1.030	0.160	-0.820
2020/01/31 21:08:05.8	5.130	-0.990	0.140	-0.800
2020/01/31 21:08:05.9	5.120	-0.940	0.120	-0.770
2020/01/31 21:08:06.0	5.110	-0.880	0.090	-0.750
2020/01/31 21:08:06.1	5.100	-0.820	0.060	-0.720
2020/01/31 21:08:06.2	5.090	-0.760	0.020	-0.690
2020/01/31 21:08:06.3	5.080	-0.690	-0.020	-0.660
2020/01/31 21:08:06.4	5.070	-0.610	-0.070	-0.620
2020/01/31 21:08:06.5	5.060	-0.530	-0.110	-0.590
2020/01/31 21:08:06.6	5.050	-0.450	-0.160	-0.560
2020/01/31 21:08:06.7	5.040	-0.370	-0.210	-0.520
2020/01/31 21:08:06.8	5.030	-0.290	-0.260	-0.490
2020/01/31 21:08:06.9	5.020	-0.210	-0.300	-0.450
2020/01/31 21:08:07.0	5.020	-0.120	-0.350	-0.420
2020/01/31 21:08:07.1	5.010	-0.040	-0.400	-0.390
2020/01/31 21:08:07.2	5.000	0.040	-0.440	-0.350
2020/01/31 21:08:07.3	4.990	0.120	-0.490	-0.320
2020/01/31 21:08:07.4	4.980	0.200	-0.530	-0.290
2020/01/31 21:08:07.5	4.970	0.270	-0.560	-0.260
2020/01/31 21:08:07.6	4.960	0.340	-0.600	-0.230
2020/01/31 21:08:07.7	4.950	0.410	-0.620	-0.200
2020/01/31 21:08:07.8	4.940	0.470	-0.650	-0.170
2020/01/31 21:08:07.9	4.940	0.530	-0.670	-0.140
2020/01/31 21:08:08.0	4.920	0.580	-0.680	-0.110
2020/01/31 21:08:08.1	4.910	0.620	-0.700	-0.090
2020/01/31 21:08:08.2	4.910	0.660	-0.700	-0.070
2020/01/31 21:08:08.3	4.910	0.700	-0.710	-0.050
2020/01/31 21:08:08.4	4.900	0.720	-0.710	-0.030
2020/01/31 21:08:08.5	4.900	0.750	-0.700	-0.010
2020/01/31 21:08:08.6	4.900	0.760	-0.690	0.010
2020/01/31 21:08:08.7	4.910	0.770	-0.680	0.020
2020/01/31 21:08:08.8	4.910	0.780	-0.670	0.030
2020/01/31 21:08:08.9	4.920	0.780	-0.650	0.040
2020/01/31 21:08:09.0	4.930	0.770	-0.630	0.050
2020/01/31 21:08:09.1	4.940	0.760	-0.610	0.050
2020/01/31 21:08:09.2	4.940	0.750	-0.590	0.050
2020/01/31 21:08:09.3	4.950	0.730	-0.560	0.050
2020/01/31 21:08:09.4	4.960	0.710	-0.540	0.050
2020/01/31 21:08:09.5	4.970	0.680	-0.510	0.050
2020/01/31 21:08:09.6	4.980	0.650	-0.480	0.040
2020/01/31 21:08:09.7	4.990	0.620	-0.450	0.030
2020/01/31 21:08:09.8	4.990	0.580	-0.420	0.020
2020/01/31 21:08:09.9	5.000	0.540	-0.390	0.010
2020/01/31 21:08:10.0	5.010	0.500	-0.350	-0.010
2020/01/31 21:08:10.1	5.010	0.460	-0.320	-0.020
2020/01/31 21:08:10.2	5.020	0.420	-0.290	-0.030
2020/01/31 21:08:10.3	5.020	0.380	-0.260	-0.050
2020/01/31 21:08:10.4	5.020	0.340	-0.230	-0.070
2020/01/31 21:08:10.5	5.020	0.290	-0.200	-0.080
2020/01/31 21:08:10.6	5.020	0.250	-0.170	-0.100
2020/01/31 21:08:10.7	5.020	0.210	-0.140	-0.110
2020/01/31 21:08:10.8	5.020	0.170	-0.120	-0.130
2020/01/31 21:08:10.9	5.010	0.140	-0.090	-0.140
2020/01/31 21:08:11.0	5.010	0.100	-0.070	-0.150
2020/01/31 21:08:11.1	5.010	0.070	-0.050	-0.170
2020/01/31 21:08:11.2	5.010	0.040	-0.030	-0.180
2020/01/31 21:08:11.3	5.000	0.010	-0.010	-0.190
2020/01/31 21:08:11.4	5.000	-0.020	-0.000	-0.200
2020/01/31 21:08:11.5	5.000	-0.040	0.010	-0.210
2020/01/31 21:08:11.6	4.990	-0.060	0.020	-0.220
2020/01/31 21:08:11.7	4.990	-0.080	0.020	-0.230
2020/01/31 21:08:11.8	4.990	-0.090	0.020	-0.230
2020/01/31 21:08:11.9	4.990	-0.100	0.020	-0.240
2020/01/31 21:08:12.0	4.990	-0.110	0.020	-0.250
2020/01/31 21:08:12.1	4.980	-0.120	0.010	-0.250
2020/01/31 21:08:12.2	4.980	-0.120	0.000	-0.250
2020/01/31 21:08:12.3	4.980	-0.120	-0.010	-0.250
2020/01/31 21:08:12.4	4.970	-0.120	-0.020	-0.250
2020/01/31 21:08:12.5	4.970	-0.120	-0.030	-0.240
2020/01/31 21:08:12.6	4.960	-0.110	-0.040	-0.240
2020/01/31 21:08:12.7	4.950	-0.100	-0.050	-0.230
2020/01/31 21:08:12.8	4.940	-0.100	-0.060	-0.220
2020/01/31 21:08:12.9	4.940	-0.090	-0.070	-0.210
2020/01/31 21:08:13.0	4.930	-0.080	-0.080	-0.200
2020/01/31 21:08:13.1	4.910	-0.070	-0.090	-0.190
2020/01/31 21:08:13.2	4.900	-0.060	-0.100	-0.170
2020/01/31 21:08:13.3	4.890	-0.050	-0.100	-0.150
2020/01/31 21:08:13.4	4.870	-0.040	-0.110	-0.130
2020/01/31 21:08:13.5	4.860	-0.030	-0.110	-0.110
2020/01/31 21:08:13.6	4.850	-0.020	-0.110	-0.090
2020/01/31 21:08:13.7	4.830	-0.010	-0.110	-0.070
2020/01/31 21:08:13.8	4.820	0.000	-0.100	-0.040
2020/01/31 21:08:13.9	4.810	0.010	-0.090	-0.020
2020/01/31 21:08:14.0	4.800	0.010	-0.080	0.010
2020/01/31 21:08:14.1	4.790	0.020	-0.070	0.040
2020/01/31 21:08:14.2	4.780	0.020	-0.060	0.060
2020/01/31 21:08:14.3	4.770	0.020	-0.050	0.090
2020/01/31 21:08:14.4	4.760	0.020	-0.040	0.110
2020/01/31 21:08:14.5	4.750	0.020	-0.020	0.140
2020/01/31 21:08:14.6	4.750	0.020	-0.010	0.170
2020/01/31 21:08:14.7	4.750	0.020	0.010	0.190
2020/01/31 21:08:14.8	4.750	0.020	0.020	0.220
2020/01/31 21:08:14.9	4.750	0.010	0.030	0.240
2020/01/31 21:08:15.0	4.740	0.010	0.040	0.260
2020/01/31 21:08:15.1	4.750	-0.000	0.050	0.280
2020/01/31 21:08:15.2	4.750	-0.010	0.060	0.300
2020/01/31 21:08:15.3	4.760	-0.020	0.070	0.320
2020/01/31 21:08:15.4	4.760	-0.030	0.080	0.340
2020/01/31 21:08:15.5	4.770	-0.040	0.080	0.350
2020/01/31 21:08:15.6	4.780	-0.050	0.090	0.360
2020/01/31 21:08:15.7	4.790	-0.060	0.090	0.380
2020/01/31 21:08:15.8	4.800	-0.080	0.090	0.380
2020/01/31 21:08:15.9	4.810	-0.090	0.090	0.390
2020/01/31 21:08:16.0	4.830	-0.110	0.080	0.400
2020/01/31 21:08:16.1	4.840	-0.120	0.070	0.400
2020/01/31 21:08:16.2	4.860	-0.140	0.060	0.390
2020/01/31 21:08:16.3	4.880	-0.150	0.040	0.390
2020/01/31 21:08:16.4	4.900	-0.170	0.020	0.380
2020/01/31 21:08:16.5	4.920	-0.180	0.000	0.360
2020/01/31 21:08:16.6	4.940	-0.200	-0.020	0.340
2020/01/31 21:08:16.7	4.960	-0.210	-0.050	0.320
2020/01/31 21:08:16.8	4.990	-0.220	-0.090	0.300
2020/01/31 21:08:16.9	5.010	-0.240	-0.120	0.270
2020/01/31 21:08:17.0	5.040	-0.250	-0.160	0.240
2020/01/31 21:08:17.1	5.060	-0.260	-0.200	0.200
2020/01/31 21:08:17.2	5.090	-0.270	-0.240	0.170
2020/01/31 21:08:17.3	5.120	-0.280	-0.280	0.130
2020/01/31 21:08:17.4	5.140	-0.290	-0.330	0.100
2020/01/31 21:08:17.5	5.170	-0.300	-0.370	0.060
2020/01/31 21:08:17.6	5.190	-0.310	-0.420	0.020
2020/01/31 21:08:17.7	5.210	-0.320	-0.460	-0.010
2020/01/31 21:08:17.8	5.230	-0.320	-0.510	-0.050
2020/01/31 21:08:17.9	5.240	-0.330	-0.550	-0.080
2020/01/31 21:08:18.0	5.250	-0.330	-0.590	-0.110
2020/01/31 21:08:18.1	5.260	-0.330	-0.630	-0.140
2020/01/31 21:08:18.2	5.270	-0.330	-0.660	-0.170
2020/01/31 21:08:18.3	5.280	-0.330	-0.690	-0.200
2020/01/31 21:08:18.4	5.280	-0.330	-0.720	-0.220
2020/01/31 21:08:18.5	5.290	-0.320	-0.740	-0.240
2020/01/31 21:08:18.6	5.290	-0.320	-0.760	-0.260
2020/01/31 21:08:18.7	5.290	-0.310	-0.780	-0.270
2020/01/31 21:08:18.8	5.290	-0.310	-0.790	-0.280
2020/01/31 21:08:18.9	5.280	-0.300	-0.800	-0.290
2020/01/31 21:08:19.0	5.280	-0.280	-0.800	-0.300
2020/01/31 21:08:19.1	5.270	-0.270	-0.800	-0.300
2020/01/31 21:08:19.2	5.270	-0.260	-0.790	-0.300
2020/01/31 21:08:19.3	5.260	-0.240	-0.780	-0.300
2020/01/31 21:08:19.4	5.250	-0.230	-0.760	-0.290
2020/01/31 21:08:19.5	5.240	-0.210	-0.740	-0.280
2020/01/31 21:08:19.6	5.230	-0.190	-0.720	-0.270
2020/01/31 21:08:19.7	5.230	-0.170	-0.690	-0.260
2020/01/31 21:08:19.8	5.220	-0.150	-0.660	-0.240
2020/01/31 21:08:19.9	5.210	-0.130	-0.630	-0.230
2020/01/31 21:08:20.0	5.200	-0.100	-0.600	-0.210
2020/01/31 21:08:20.1	5.190	-0.080	-0.570	-0.190
2020/01/31 21:08:20.2	5.180	-0.050	-0.540	-0.180
2020/01/31 21:08:20.3	5.180	-0.030	-0.500	-0.160
2020/01/31 21:08:20.4	5.170	-0.010	-0.470	-0.140
2020/01/31 21:08:20.5	5.160	0.020	-0.440	-0.120
2020/01/31 21:08:20.6	5.150	0.040	-0.410	-0.110
2020/01/31 21:08:20.7	5.150	0.070	-0.380	-0.090
2020/01/31 21:08:20.8	5.140	0.090	-0.350	-0.080
2020/01/31 21:08:20.9	5.140	0.110	-0.320	-0.060
2020/01/31 21:08:21.0	5.130	0.130	-0.300	-0.050
2020/01/31 21:08:21.1	5.130	0.150	-0.280	-0.040
2020/01/31 21:08:21.2	5.120	0.170	-0.260	-0.030
2020/01/31 21:08:21.3	5.120	0.190	-0.240	-0.030
2020/01/31 21:08:21.4	5.110	0.200	-0.220	-0.020
2020/01/31 21:08:21.5	5.110	0.220	-0.210	-0.020
2020/01/31 21:08:21.6	5.100	0.230	-0.200	-0.020
2020/01/31 21:08:21.7	5.100	0.240	-0.190	-0.030
2020/01/31 21:08:21.8	5.100	0.260	-0.180	-0.030
2020/01/31 21:08:21.9	5.090	0.270	-0.180	-0.040
2020/01/31 21:08:22.0	5.100	0.280	-0.170	-0.050
2020/01/31 21:08:22.1	5.090	0.280	-0.170	-0.060
2020/01/31 21:08:22.2	5.090	0.290	-0.170	-0.060
2020/01/31 21:08:22.3	5.090	0.300	-0.170	-0.070
2020/01/31 21:08:22.4	5.090	0.300	-0.170	-0.090
2020/01/31 21:08:22.5	5.090	0.310	-0.170	-0.100
2020/01/31 21:08:22.6	5.090	0.310	-0.180	-0.110
2020/01/31 21:08:22.7	5.090	0.320	-0.180	-0.120
2020/01/31 21:08:22.8	5.100	0.320	-0.190	-0.130
2020/01/31 21:08:22.9	5.100	0.330	-0.190	-0.130
2020/01/31 21:08:23.0	5.100	0.330	-0.200	-0.140
2020/01/31 21:08:23.1	5.100	0.330	-0.200	-0.150
2020/01/31 21:08:23.2	5.110	0.340	-0.210	-0.150
2020/01/31 21:08:23.3	5.110	0.340	-0.210	-0.160
2020/01/31 21:08:23.4	5.120	0.340	-0.220	-0.160
2020/01/31 21:08:23.5	5.120	0.340	-0.220	-0.170
2020/01/31 21:08:23.6	5.130	0.350	-0.230	-0.170
2020/01/31 21:08:23.7	5.140	0.350	-0.230	-0.170
2020/01/31 21:08:23.8	5.140	0.360	-0.240	-0.180
2020/01/31 21:08:23.9	5.160	0.360	-0.240	-0.170
2020/01/31 21:08:24.0	5.170	0.360	-0.240	-0.180
2020/01/31 21:08:24.1	5.180	0.370	-0.250	-0.180
2020/01/31 21:08:24.2	5.180	0.370	-0.250	-0.180
2020/01/31 21:08:24.3	5.190	0.370	-0.260	-0.180
2020/01/31 21:08:24.4	5.190	0.380	-0.260	-0.180
2020/01/31 21:08:24.5	5.200	0.380	-0.260	-0.170
2020/01/31 21:08:24.6	5.200	0.380	-0.270	-0.170
2020/01/31 21:08:24.7	5.200	0.380	-0.270	-0.170
2020/01/31 21:08:24.8	5.210	0.380	-0.270	-0.160
2020/01/31 21:08:24.9	5.200	0.380	-0.270	-0.160
2020/01/31 21:08:25.0	5.190	0.380	-0.270	-0.150
2020/01/31 21:08:25.1	5.180	0.380	-0.260	-0.140
2020/01/31 21:08:25.2	5.170	0.380	-0.260	-0.130
2020/01/31 21:08:25.3	5.160	0.370	-0.250	-0.110
2020/01/31 21:08:25.4	5.150	0.360	-0.240	-0.100
2020/01/31 21:08:25.5	5.130	0.360	-0.230	-0.080
2020/01/31 21:08:25.6	5.110	0.350	-0.220	-0.070
2020/01/31 21:08:25.7	5.090	0.340	-0.200	-0.050
2020/01/31 21:08:25.8	5.070	0.330	-0.190	-0.030
2020/01/31 21:08:25.9	5.060	0.310	-0.170	-0.010
2020/01/31 21:08:26.0	5.040	0.300	-0.150	0.010
2020/01/31 21:08:26.1	5.010	0.280	-0.130	0.040
2020/01/31 21:08:26.2	4.980	0.260	-0.110	0.060
2020/01/31 21:08:26.3	4.950	0.240	-0.090	0.080
2020/01/31 21:08:26.4	4.920	0.220	-0.070	0.100
2020/01/31 21:08:26.5	4.890	0.200	-0.050	0.120
2020/01/31 21:08:26.6	4.860	0.180	-0.030	0.140
2020/01/31 21:08:26.7	4.830	0.150	-0.010	0.150
2020/01/31 21:08:26.8	4.800	0.130	0.010	0.170
2020/01/31 21:08:26.9	4.770	0.100	0.030	0.180
2020/01/31 21:08:27.0	4.740	0.080	0.040	0.190
2020/01/31 21:08:27.1	4.720	0.050	0.050	0.200
2020/01/31 21:08:27.2	4.690	0.030	0.060	0.200
2020/01/31 21:08:27.3	4.670	0.000	0.070	0.200
2020/01/31 21:08:27.4	4.650	-0.020	0.070	0.200
2020/01/31 21:08:27.5	4.630	-0.050	0.070	0.190
2020/01/31 21:08:27.6	4.620	-0.070	0.060	0.190
2020/01/31 21:08:27.7	4.610	-0.090	0.050	0.170
2020/01/31 21:08:27.8	4.600	-0.110	0.040	0.150
2020/01/31 21:08:27.9	4.600	-0.130	0.020	0.130
2020/01/31 21:08:28.0	4.590	-0.150	0.000	0.110
2020/01/31 21:08:28.1	4.590	-0.160	-0.020	0.080
2020/01/31 21:08:28.2	4.600	-0.180	-0.050	0.040
2020/01/31 21:08:28.3	4.610	-0.190	-0.080	0.010
2020/01/31 21:08:28.4	4.630	-0.200	-0.120	-0.030
2020/01/31 21:08:28.5	4.650	-0.210	-0.150	-0.070
2020/01/31 21:08:28.6	4.670	-0.220	-0.190	-0.120
2020/01/31 21:08:28.7	4.700	-0.220	-0.230	-0.160
2020/01/31 21:08:28.8	4.730	-0.230	-0.270	-0.210
2020/01/31 21:08:28.9	4.770	-0.230	-0.300	-0.260
2020/01/31 21:08:29.0	4.810	-0.230	-0.340	-0.310
2020/01/31 21:08:29.1	4.840	-0.230	-0.380	-0.360
2020/01/31 21:08:29.2	4.890	-0.230	-0.410	-0.410
2020/01/31 21:08:29.3	4.930	-0.240	-0.440	-0.460
2020/01/31 21:08:29.4	4.970	-0.240	-0.470	-0.500
2020/01/31 21:08:29.5	5.010	-0.240	-0.490	-0.550
2020/01/31 21:08:29.6	5.050	-0.240	-0.510	-0.600
2020/01/31 21:08:29.7	5.100	-0.240	-0.530	-0.640
2020/01/31 21:08:29.8	5.140	-0.250	-0.540	-0.680
2020/01/31 21:08:29.9	5.180	-0.250	-0.550	-0.720
2020/01/31 21:08:30.0	5.210	-0.260	-0.550	-0.750
2020/01/31 21:08:30.1	5.250	-0.270	-0.550	-0.790
2020/01/31 21:08:30.2	5.290	-0.270	-0.540	-0.820
2020/01/31 21:08:30.3	5.320	-0.280	-0.520	-0.840
2020/01/31 21:08:30.4	5.350	-0.300	-0.510	-0.860
2020/01/31 21:08:30.5	5.380	-0.310	-0.480	-0.880
2020/01/31 21:08:30.6	5.410	-0.320	-0.460	-0.890
2020/01/31 21:08:30.7	5.430	-0.340	-0.430	-0.900
2020/01/31 21:08:30.8	5.460	-0.350	-0.400	-0.910
2020/01/31 21:08:30.9	5.470	-0.370	-0.360	-0.910
2020/01/31 21:08:31.0	5.490	-0.380	-0.320	-0.900
2020/01/31 21:08:31.1	5.510	-0.400	-0.280	-0.890
2020/01/31 21:08:31.2	5.510	-0.420	-0.230	-0.870
2020/01/31 21:08:31.3	5.520	-0.430	-0.190	-0.850
2020/01/31 21:08:31.4	5.520	-0.450	-0.150	-0.820
2020/01/31 21:08:31.5	5.520	-0.470	-0.110	-0.790
2020/01/31 21:08:31.6	5.510	-0.480	-0.060	-0.750
2020/01/31 21:08:31.7	5.510	-0.500	-0.020	-0.710
2020/01/31 21:08:31.8	5.490	-0.510	0.020	-0.670
2020/01/31 21:08:31.9	5.480	-0.530	0.060	-0.620
2020/01/31 21:08:32.0	5.460	-0.540	0.090	-0.570
2020/01/31 21:08:32.1	5.440	-0.550	0.130	-0.520
2020/01/31 21:08:32.2	5.420	-0.550	0.160	-0.470
2020/01/31 21:08:32.3	5.390	-0.560	0.190	-0.420
2020/01/31 21:08:32.4	5.360	-0.560	0.210	-0.360
2020/01/31 21:08:32.5	5.330	-0.560	0.230	-0.310
2020/01/31 21:08:32.6	5.300	-0.560	0.250	-0.250
2020/01/31 21:08:32.7	5.260	-0.550	0.260	-0.190
2020/01/31 21:08:32.8	5.220	-0.540	0.270	-0.130
2020/01/31 21:08:32.9	5.180	-0.530	0.270	-0.070
2020/01/31 21:08:33.0	5.130	-0.520	0.270	-0.020
2020/01/31 21:08:33.1	5.090	-0.500	0.270	0.040
2020/01/31 21:08:33.2	5.040	-0.480	0.260	0.100
2020/01/31 21:08:33.3	5.000	-0.450	0.240	0.150
2020/01/31 21:08:33.4	4.950	-0.420	0.220	0.200
2020/01/31 21:08:33.5	4.900	-0.390	0.200	0.250
2020/01/31 21:08:33.6	4.860	-0.360	0.170	0.300
2020/01/31 21:08:33.7	4.810	-0.320	0.130	0.340
2020/01/31 21:08:33.8	4.770	-0.280	0.100	0.390
2020/01/31 21:08:33.9	4.730	-0.230	0.050	0.430
2020/01/31 21:08:34.0	4.690	-0.190	0.010	0.460
2020/01/31 21:08:34.1	4.650	-0.140	-0.040	0.500
2020/01/31 21:08:34.2	4.620	-0.080	-0.090	0.530
2020/01/31 21:08:34.3	4.580	-0.030	-0.150	0.560
2020/01/31 21:08:34.4	4.550	0.030	-0.200	0.590
2020/01/31 21:08:34.5	4.520	0.080	-0.260	0.610
2020/01/31 21:08:34.6	4.490	0.140	-0.320	0.630
2020/01/31 21:08:34.7	4.460	0.200	-0.390	0.650
2020/01/31 21:08:34.8	4.440	0.260	-0.450	0.670
2020/01/31 21:08:34.9	4.420	0.320	-0.510	0.680
2020/01/31 21:08:35.0	4.400	0.380	-0.570	0.690
2020/01/31 21:08:35.1	4.380	0.440	-0.640	0.700
2020/01/31 21:08:35.2	4.370	0.500	-0.690	0.710
2020/01/31 21:08:35.3	4.350	0.560	-0.750	0.710
2020/01/31 21:08:35.4	4.340	0.610	-0.810	0.720
2020/01/31 21:08:35.5	4.330	0.670	-0.860	0.720
2020/01/31 21:08:35.6	4.320	0.720	-0.900	0.710
2020/01/31 21:08:35.7	4.310	0.770	-0.950	0.710
2020/01/31 21:08:35.8	4.310	0.810	-0.980	0.710
2020/01/31 21:08:35.9	4.300	0.850	-1.020	0.700
2020/01/31 21:08:36.0	4.290	0.890	-1.040	0.690
2020/01/31 21:08:36.1	4.290	0.920	-1.070	0.680
2020/01/31 21:08:36.2	4.290	0.950	-1.080	0.670
2020/01/31 21:08:36.3	4.290	0.970	-1.090	0.650
2020/01/31 21:08:36.4	4.290	0.990	-1.100	0.640
2020/01/31 21:08:36.5	4.290	1.000	-1.100	0.630
2020/01/31 21:08:36.6	4.290	1.010	-1.090	0.610
2020/01/31 21:08:36.7	4.300	1.020	-1.090	0.590
2020/01/31 21:08:36.8	4.300	1.020	-1.070	0.580
2020/01/31 21:08:36.9	4.310	1.010	-1.050	0.560
2020/01/31 21:08:37.0	4.320	1.000	-1.030	0.530
2020/01/31 21:08:37.1	4.340	0.990	-1.010	0.510
2020/01/31 21:08:37.2	4.350	0.970	-0.980	0.480
2020/01/31 21:08:37.3	4.370	0.940	-0.950	0.450
2020/01/31 21:08:37.4	4.390	0.910	-0.920	0.420
2020/01/31 21:08:37.5	4.420	0.880	-0.880	0.390
2020/01/31 21:08:37.6	4.440	0.850	-0.850	0.350
2020/01/31 21:08:37.7	4.470	0.810	-0.820	0.310
2020/01/31 21:08:37.8	4.510	0.760	-0.780	0.260
2020/01/31 21:08:37.9	4.540	0.720	-0.750	0.220
2020/01/31 21:08:38.0	4.580	0.670	-0.710	0.160
2020/01/31 21:08:38.1	4.620	0.620	-0.680	0.110
2020/01/31 21:08:38.2	4.660	0.560	-0.650	0.050
2020/01/31 21:08:38.3	4.710	0.510	-0.610	-0.010
2020/01/31 21:08:38.4	4.760	0.450	-0.580	-0.080
2020/01/31 21:08:38.5	4.800	0.390	-0.550	-0.140
2020/01/31 21:08:38.6	4.850	0.340	-0.520	-0.210
2020/01/31 21:08:38.7	4.910	0.280	-0.490	-0.270
2020/01/31 21:08:38.8	4.960	0.220	-0.450	-0.340
2020/01/31 21:08:38.9	5.010	0.160	-0.420	-0.410
2020/01/31 21:08:39.0	5.050	0.100	-0.390	-0.480
2020/01/31 21:08:39.1	5.100	0.040	-0.350	-0.540
2020/01/31 21:08:39.2	5.150	-0.020	-0.310	-0.600
2020/01/31 21:08:39.3	5.190	-0.080	-0.270	-0.650
2020/01/31 21:08:39.4	5.230	-0.140	-0.230	-0.700
2020/01/31 21:08:39.5	5.260	-0.190	-0.190	-0.750
2020/01/31 21:08:39.6	5.300	-0.250	-0.140	-0.790
2020/01/31 21:08:39.7	5.330	-0.300	-0.090	-0.820
2020/01/31 21:08:39.8	5.350	-0.350	-0.040	-0.850
2020/01/31 21:08:39.9	5.390	-0.400	0.020	-0.880
2020/01/31 21:08:40.0	5.410	-0.450	0.080	-0.890
2020/01/31 21:08:40.1	5.420	-0.490	0.140	-0.910
2020/01/31 21:08:40.2	5.430	-0.540	0.200	-0.910
2020/01/31 21:08:40.3	5.440	-0.580	0.260	-0.910
2020/01/31 21:08:40.4	5.440	-0.620	0.330	-0.910
2020/01/31 21:08:40.5	5.440	-0.650	0.390	-0.890
2020/01/31 21:08:40.6	5.440	-0.690	0.460	-0.880
2020/01/31 21:08:40.7	5.430	-0.720	0.520	-0.860
2020/01/31 21:08:40.8	5.410	-0.750	0.590	-0.830
2020/01/31 21:08:40.9	5.390	-0.780	0.650	-0.800
2020/01/31 21:08:41.0	5.360	-0.800	0.710	-0.760
2020/01/31 21:08:41.1	5.340	-0.830	0.770	-0.720
2020/01/31 21:08:41.2	5.300	-0.850	0.830	-0.680
2020/01/31 21:08:41.3	5.270	-0.860	0.880	-0.640
2020/01/31 21:08:41.4	5.230	-0.880	0.930	-0.590
2020/01/31 21:08:41.5	5.200	-0.890	0.970	-0.540
2020/01/31 21:08:41.6	5.150	-0.900	1.010	-0.490
2020/01/31 21:08:41.7	5.110	-0.910	1.040	-0.430
2020/01/31 21:08:41.8	5.060	-0.910	1.070	-0.380
2020/01/31 21:08:41.9	5.020	-0.910	1.090	-0.330
2020/01/31 21:08:42.0	4.960	-0.910	1.100	-0.280
2020/01/31 21:08:42.1	4.910	-0.900	1.110	-0.220
2020/01/31 21:08:42.2	4.860	-0.890	1.110	-0.170
2020/01/31 21:08:42.3	4.810	-0.880	1.100	-0.110
2020/01/31 21:08:42.4	4.760	-0.860	1.080	-0.060
2020/01/31 21:08:42.5	4.710	-0.840	1.060	-0.010
2020/01/31 21:08:42.6	4.660	-0.820	1.030	0.040
2020/01/31 21:08:42.7	4.610	-0.790	0.990	0.090
2020/01/31 21:08:42.8	4.570	-0.760	0.940	0.140
2020/01/31 21:08:42.9	4.510	-0.730	0.890	0.190
2020/01/31 21:08:43.0	4.470	-0.690	0.830	0.240
2020/01/31 21:08:43.1	4.420	-0.650	0.760	0.280
2020/01/31 21:08:43.2	4.380	-0.610	0.690	0.320
2020/01/31 21:08:43.3	4.330	-0.560	0.620	0.360
2020/01/31 21:08:43.4	4.290	-0.510	0.530	0.400
2020/01/31 21:08:43.5	4.250	-0.460	0.450	0.440
2020/01/31 21:08:43.6	4.210	-0.410	0.360	0.470
2020/01/31 21:08:43.7	4.180	-0.360	0.260	0.500
2020/01/31 21:08:43.8	4.140	-0.300	0.170	0.530
2020/01/31 21:08:43.9	4.110	-0.250	0.070	0.560
2020/01/31 21:08:44.0	4.080	-0.190	-0.030	0.580
2020/01/31 21:08:44.1	4.050	-0.130	-0.130	0.600
2020/01/31 21:08:44.2	4.020	-0.070	-0.230	0.620
2020/01/31 21:08:44.3	4.000	-0.020	-0.330	0.630
2020/01/31 21:08:44.4	3.980	0.040	-0.430	0.640
2020/01/31 21:08:44.5	3.970	0.100	-0.530	0.650
2020/01/31 21:08:44.6	3.950	0.160	-0.630	0.650
2020/01/31 21:08:44.7	3.940	0.210	-0.720	0.650
2020/01/31 21:08:44.8	3.930	0.260	-0.810	0.650
2020/01/31 21:08:44.9	3.930	0.310	-0.900	0.650
2020/01/31 21:08:45.0	3.920	0.360	-0.990	0.640
2020/01/31 21:08:45.1	3.920	0.410	-1.070	0.630
2020/01/31 21:08:45.2	3.920	0.450	-1.140	0.620
2020/01/31 21:08:45.3	3.920	0.500	-1.210	0.610
2020/01/31 21:08:45.4	3.920	0.530	-1.280	0.600
2020/01/31 21:08:45.5	3.930	0.570	-1.330	0.590
2020/01/31 21:08:45.6	3.940	0.600	-1.390	0.570
2020/01/31 21:08:45.7	3.950	0.630	-1.430	0.550
2020/01/31 21:08:45.8	3.970	0.660	-1.470	0.530
2020/01/31 21:08:45.9	3.990	0.680	-1.500	0.520
2020/01/31 21:08:46.0	4.000	0.700	-1.530	0.500
2020/01/31 21:08:46.1	4.020	0.710	-1.560	0.480
2020/01/31 21:08:46.2	4.040	0.730	-1.570	0.460
2020/01/31 21:08:46.3	4.060	0.730	-1.580	0.440
2020/01/31 21:08:46.4	4.080	0.740	-1.590	0.420
2020/01/31 21:08:46.5	4.110	0.740	-1.590	0.390
2020/01/31 21:08:46.6	4.130	0.740	-1.580	0.370
2020/01/31 21:08:46.7	4.150	0.730	-1.570	0.350
2020/01/31 21:08:46.8	4.170	0.730	-1.560	0.330
2020/01/31 21:08:46.9	4.190	0.710	-1.530	0.300
2020/01/31 21:08:47.0	4.220	0.700	-1.510	0.280
2020/01/31 21:08:47.1	4.240	0.680	-1.480	0.250
2020/01/31 21:08:47.2	4.260	0.670	-1.440	0.230
2020/01/31 21:08:47.3	4.280	0.640	-1.400	0.200
2020/01/31 21:08:47.4	4.300	0.620	-1.360	0.170
2020/01/31 21:08:47.5	4.320	0.600	-1.320	0.140
2020/01/31 21:08:47.6	4.340	0.570	-1.270	0.110
2020/01/31 21:08:47.7	4.370	0.540	-1.220	0.080
2020/01/31 21:08:47.8	4.390	0.510	-1.160	0.050
2020/01/31 21:08:47.9	4.410	0.480	-1.110	0.010
2020/01/31 21:08:48.0	4.450	0.450	-1.050	-0.020
2020/01/31 21:08:48.1	4.470	0.420	-0.990	-0.060
2020/01/31 21:08:48.2	4.500	0.390	-0.930	-0.100
2020/01/31 21:08:48.3	4.530	0.350	-0.870	-0.150
2020/01/31 21:08:48.4	4.560	0.320	-0.810	-0.190
2020/01/31 21:08:48.5	4.590	0.290	-0.750	-0.240
2020/01/31 21:08:48.6	4.620	0.260	-0.690	-0.290
2020/01/31 21:08:48.7	4.660	0.220	-0.630	-0.340
2020/01/31 21:08:48.8	4.690	0.190	-0.560	-0.390
2020/01/31 21:08:48.9	4.730	0.160	-0.500	-0.450
2020/01/31 21:08:49.0	4.770	0.130	-0.440	-0.500
2020/01/31 21:08:49.1	4.810	0.100	-0.380	-0.550
2020/01/31 21:08:49.2	4.850	0.070	-0.320	-0.610
2020/01/31 21:08:49.3	4.890	0.040	-0.260	-0.660
2020/01/31 21:08:49.4	4.930	0.010	-0.200	-0.710
2020/01/31 21:08:49.5	4.970	-0.020	-0.140	-0.750
2020/01/31 21:08:49.6	5.010	-0.050	-0.080	-0.800
2020/01/31 21:08:49.7	5.050	-0.080	-0.020	-0.840
2020/01/31 21:08:49.8	5.080	-0.110	0.040	-0.870
2020/01/31 21:08:49.9	5.120	-0.140	0.100	-0.910
2020/01/31 21:08:50.0	5.150	-0.170	0.160	-0.930
2020/01/31 21:08:50.1	5.180	-0.200	0.230	-0.960
2020/01/31 21:08:50.2	5.200	-0.230	0.290	-0.970
2020/01/31 21:08:50.3	5.230	-0.260	0.350	-0.990
2020/01/31 21:08:50.4	5.240	-0.290	0.420	-0.990
2020/01/31 21:08:50.5	5.260	-0.320	0.480	-1.000
2020/01/31 21:08:50.6	5.270	-0.360	0.540	-0.990
2020/01/31 21:08:50.7	5.270	-0.390	0.600	-0.980
2020/01/31 21:08:50.8	5.280	-0.420	0.660	-0.970
2020/01/31 21:08:50.9	5.280	-0.450	0.710	-0.950
2020/01/31 21:08:51.0	5.260	-0.480	0.770	-0.930
2020/01/31 21:08:51.1	5.260	-0.510	0.820	-0.900
2020/01/31 21:08:51.2	5.250	-0.530	0.870	-0.870
2020/01/31 21:08:51.3	5.230	-0.560	0.910	-0.840
2020/01/31 21:08:51.4	5.210	-0.590	0.950	-0.800
2020/01/31 21:08:51.5	5.190	-0.610	0.980	-0.770
2020/01/31 21:08:51.6	5.170	-0.630	1.010	-0.730
2020/01/31 21:08:51.7	5.150	-0.650	1.030	-0.680
2020/01/31 21:08:51.8	5.120	-0.670	1.050	-0.640
2020/01/31 21:08:51.9	5.090	-0.680	1.060	-0.600
2020/01/31 21:08:52.0	5.050	-0.690	1.060	-0.550
2020/01/31 21:08:52.1	5.010	-0.700	1.060	-0.500
2020/01/31 21:08:52.2	4.980	-0.700	1.040	-0.450
2020/01/31 21:08:52.3	4.940	-0.700	1.020	-0.400
2020/01/31 21:08:52.4	4.910	-0.700	0.990	-0.350
2020/01/31 21:08:52.5	4.870	-0.690	0.960	-0.300
2020/01/31 21:08:52.6	4.830	-0.670	0.920	-0.250
2020/01/31 21:08:52.7	4.790	-0.660	0.870	-0.190
2020/01/31 21:08:52.8	4.750	-0.640	0.810	-0.140
2020/01/31 21:08:52.9	4.700	-0.610	0.750	-0.080
2020/01/31 21:08:53.0	4.660	-0.580	0.680	-0.020
2020/01/31 21:08:53.1	4.610	-0.550	0.600	0.030
2020/01/31 21:08:53.2	4.570	-0.510	0.520	0.090
2020/01/31 21:08:53.3	4.520	-0.470	0.440	0.140
2020/01/31 21:08:53.4	4.480	-0.430	0.350	0.190
2020/01/31 21:08:53.5	4.430	-0.380	0.270	0.240
2020/01/31 21:08:53.6	4.390	-0.330	0.170	0.290
2020/01/31 21:08:53.7	4.350	-0.280	0.080	0.340
2020/01/31 21:08:53.8	4.300	-0.220	-0.010	0.390
2020/01/31 21:08:53.9	4.270	-0.170	-0.110	0.430
2020/01/31 21:08:54.0	4.230	-0.110	-0.200	0.470
2020/01/31 21:08:54.1	4.190	-0.050	-0.290	0.510
2020/01/31 21:08:54.2	4.160	0.000	-0.380	0.550
2020/01/31 21:08:54.3	4.120	0.060	-0.460	0.580
2020/01/31 21:08:54.4	4.090	0.120	-0.550	0.600
2020/01/31 21:08:54.5	4.060	0.180	-0.620	0.630
2020/01/31 21:08:54.6	4.040	0.230	-0.700	0.650
2020/01/31 21:08:54.7	4.010	0.280	-0.770	0.670
2020/01/31 21:08:54.8	3.990	0.330	-0.830	0.680
2020/01/31 21:08:54.9	3.970	0.380	-0.890	0.690
2020/01/31 21:08:55.0	3.950	0.420	-0.930	0.700
2020/01/31 21:08:55.1	3.940	0.460	-0.980	0.710
2020/01/31 21:08:55.2	3.920	0.500	-1.010	0.710
2020/01/31 21:08:55.3	3.920	0.530	-1.050	0.710
2020/01/31 21:08:55.4	3.910	0.560	-1.070	0.700
2020/01/31 21:08:55.5	3.900	0.590	-1.090	0.690
2020/01/31 21:08:55.6	3.900	0.610	-1.100	0.680
2020/01/31 21:08:55.7	3.910	0.620	-1.100	0.670
2020/01/31 21:08:55.8	3.910	0.630	-1.100	0.650
2020/01/31 21:08:55.9	3.920	0.640	-1.100	0.630
2020/01/31 21:08:56.0	3.930	0.640	-1.080	0.610
2020/01/31 21:08:56.1	3.940	0.640	-1.070	0.590
2020/01/31 21:08:56.2	3.960	0.630	-1.040	0.560
2020/01/31 21:08:56.3	3.980	0.620	-1.020	0.530
2020/01/31 21:08:56.4	4.000	0.610	-0.990	0.500
2020/01/31 21:08:56.5	4.020	0.590	-0.950	0.470
2020/01/31 21:08:56.6	4.050	0.570	-0.920	0.430
2020/01/31 21:08:56.7	4.080	0.540	-0.880	0.400
2020/01/31 21:08:56.8	4.100	0.520	-0.840	0.360
2020/01/31 21:08:56.9	4.140	0.490	-0.790	0.320
2020/01/31 21:08:57.0	4.170	0.450	-0.750	0.280
2020/01/31 21:08:57.1	4.200	0.420	-0.710	0.240
2020/01/31 21:08:57.2	4.230	0.390	-0.660	0.200
2020/01/31 21:08:57.3	4.260	0.350	-0.620	0.160
2020/01/31 21:08:57.4	4.300	0.310	-0.580	0.120
2020/01/31 21:08:57.5	4.330	0.280	-0.530	0.090
2020/01/31 21:08:57.6	4.360	0.240	-0.490	0.050
2020/01/31 21:08:57.7	4.400	0.200	-0.450	0.010
2020/01/31 21:08:57.8	4.430	0.160	-0.410	-0.020
2020/01/31 21:08:57.9	4.470	0.130	-0.380	-0.060
2020/01/31 21:08:58.0	4.510	0.090	-0.340	-0.100
2020/01/31 21:08:58.1	4.550	0.060	-0.310	-0.130
2020/01/31 21:08:58.2	4.590	0.020	-0.280	-0.170
2020/01/31 21:08:58.3	4.620	-0.010	-0.250	-0.210
2020/01/31 21:08:58.4	4.660	-0.040	-0.230	-0.250
2020/01/31 21:08:58.5	4.700	-0.070	-0.210	-0.280
2020/01/31 21:08:58.6	4.740	-0.100	-0.190	-0.320
2020/01/31 21:08:58.7	4.780	-0.120	-0.180	-0.360
2020/01/31 21:08:58.8	4.810	-0.140	-0.170	-0.400
2020/01/31 21:08:58.9	4.850	-0.170	-0.160	-0.440
2020/01/31 21:08:59.0	4.890	-0.180	-0.150	-0.480
2020/01/31 21:08:59.1	4.930	-0.200	-0.150	-0.520
2020/01/31 21:08:59.2	4.960	-0.220	-0.140	-0.550
2020/01/31 21:08:59.3	5.000	-0.230	-0.140	-0.580
2020/01/31 21:08:59.4	5.030	-0.240	-0.150	-0.620
2020/01/31 21:08:59.5	5.060	-0.250	-0.150	-0.640
2020/01/31 21:08:59.6	5.090	-0.250	-0.160	-0.670
2020/01/31 21:08:59.7	5.110	-0.260	-0.160	-0.690
2020/01/31 21:08:59.8	5.140	-0.260	-0.170	-0.710
2020/01/31 21:08:59.9	5.160	-0.270	-0.180	-0.720
2020/01/31 21:09:00.0	5.180	-0.270	-0.180	-0.740
2020/01/31 21:09:00.1	5.190	-0.270	-0.190	-0.750
2020/01/31 21:09:00.2	5.210	-0.270	-0.190	-0.750
2020/01/31 21:09:00.3	5.220	-0.270	-0.200	-0.750
2020/01/31 21:09:00.4	5.220	-0.260	-0.200	-0.750
2020/01/31 21:09:00.5	5.230	-0.260	-0.210	-0.750
2020/01/31 21:09:00.6	5.230	-0.260	-0.210	-0.740
2020/01/31 21:09:00.7	5.220	-0.250	-0.210	-0.730
2020/01/31 21:09:00.8	5.220	-0.250	-0.210	-0.720
2020/01/31 21:09:00.9	5.210	-0.240	-0.210	-0.710
2020/01/31 21:09:01.0	5.200	-0.240	-0.210	-0.690
2020/01/31 21:09:01.1	5.190	-0.230	-0.210	-0.680
2020/01/31 21:09:01.2	5.180	-0.220	-0.220	-0.660
2020/01/31 21:09:01.3	5.170	-0.220	-0.220	-0.640
2020/01/31 21:09:01.4	5.160	-0.210	-0.220	-0.620
2020/01/31 21:09:01.5	5.140	-0.200	-0.220	-0.610
2020/01/31 21:09:01.6	5.130	-0.190	-0.220	-0.590
2020/01/31 21:09:01.7	5.120	-0.190	-0.230	-0.570
2020/01/31 21:09:01.8	5.110	-0.180	-0.230	-0.560
2020/01/31 21:09:01.9	5.100	-0.170	-0.240	-0.540
2020/01/31 21:09:02.0	5.090	-0.160	-0.240	-0.520
2020/01/31 21:09:02.1	5.080	-0.140	-0.250	-0.510
2020/01/31 21:09:02.2	5.070	-0.130	-0.260	-0.490
2020/01/31 21:09:02.3	5.070	-0.120	-0.260	-0.480
2020/01/31 21:09:02.4	5.060	-0.100	-0.270	-0.460
2020/01/31 21:09:02.5	5.060	-0.090	-0.270	-0.450
2020/01/31 21:09:02.6	5.050	-0.070	-0.280	-0.430
2020/01/31 21:09:02.7	5.050	-0.060	-0.280	-0.420
2020/01/31 21:09:02.8	5.050	-0.040	-0.290	-0.400
2020/01/31 21:09:02.9	5.050	-0.020	-0.280	-0.380
2020/01/31 21:09:03.0	5.050	-0.000	-0.280	-0.360
2020/01/31 21:09:03.1	5.040	0.020	-0.280	-0.340
2020/01/31 21:09:03.2	5.030	0.040	-0.280	-0.320
2020/01/31 21:09:03.3	5.020	0.060	-0.270	-0.290
2020/01/31 21:09:03.4	5.010	0.080	-0.260	-0.260
2020/01/31 21:09:03.5	5.000	0.100	-0.250	-0.240
2020/01/31 21:09:03.6	4.980	0.120	-0.240	-0.200
2020/01/31 21:09:03.7	4.960	0.140	-0.220	-0.170
2020/01/31 21:09:03.8	4.940	0.150	-0.210	-0.140
2020/01/31 21:09:03.9	4.930	0.170	-0.190	-0.100
2020/01/31 21:09:04.0	4.900	0.190	-0.170	-0.070
2020/01/31 21:09:04.1	4.880	0.200	-0.150	-0.030
2020/01/31 21:09:04.2	4.850	0.210	-0.120	-0.000
2020/01/31 21:09:04.3	4.830	0.220	-0.100	0.030
2020/01/31 21:09:04.4	4.800	0.230	-0.070	0.060
2020/01/31 21:09:04.5	4.770	0.240	-0.040	0.090
2020/01/31 21:09:04.6	4.750	0.250	-0.010	0.120
2020/01/31 21:09:04.7	4.720	0.250	0.010	0.150
2020/01/31 21:09:04.8	4.690	0.250	0.040	0.170
2020/01/31 21:09:04.9	4.670	0.250	0.070	0.200
2020/01/31 21:09:05.0	4.650	0.250	0.090	0.220
2020/01/31 21:09:05.1	4.620	0.240	0.120	0.240
2020/01/31 21:09:05.2	4.600	0.240	0.140	0.250
2020/01/31 21:09:05.3	4.580	0.230	0.170	0.270
2020/01/31 21:09:05.4	4.570	0.220	0.190	0.280
2020/01/31 21:09:05.5	4.550	0.210	0.210	0.280
2020/01/31 21:09:05.6	4.540	0.200	0.220	0.290
2020/01/31 21:09:05.7	4.530	0.180	0.240	0.290
2020/01/31 21:09:05.8	4.520	0.170	0.250	0.290
2020/01/31 21:09:05.9	4.520	0.150	0.260	0.290
2020/01/31 21:09:06.0	4.510	0.130	0.270	0.290
2020/01/31 21:09:06.1	4.510	0.110	0.270	0.280
2020/01/31 21:09:06.2	4.510	0.100	0.270	0.270
2020/01/31 21:09:06.3	4.510	0.080	0.270	0.260
2020/01/31 21:09:06.4	4.520	0.060	0.260	0.250
2020/01/31 21:09:06.5	4.530	0.040	0.250	0.230
2020/01/31 21:09:06.6	4.540	0.020	0.240	0.220
2020/01/31 21:09:06.7	4.550	0.000	0.220	0.200
2020/01/31 21:09:06.8	4.560	-0.020	0.200	0.190
2020/01/31 21:09:06.9	4.580	-0.030	0.180	0.170
2020/01/31 21:09:07.0	4.590	-0.050	0.160	0.150
2020/01/31 21:09:07.1	4.610	-0.060	0.130	0.140
2020/01/31 21:09:07.2	4.630	-0.080	0.100	0.120
2020/01/31 21:09:07.3	4.650	-0.090	0.060	0.100
2020/01/31 21:09:07.4	4.670	-0.100	0.020	0.080
2020/01/31 21:09:07.5	4.700	-0.110	-0.020	0.070
2020/01/31 21:09:07.6	4.720	-0.110	-0.070	0.050
2020/01/31 21:09:07.7	4.740	-0.120	-0.120	0.030
2020/01/31 21:09:07.8	4.770	-0.120	-0.170	0.010
2020/01/31 21:09:07.9	4.800	-0.120	-0.230	-0.010
2020/01/31 21:09:08.0	4.830	-0.120	-0.290	-0.030
2020/01/31 21:09:08.1	4.850	-0.120	-0.350	-0.050
2020/01/31 21:09:08.2	4.870	-0.110	-0.410	-0.070
2020/01/31 21:09:08.3	4.900	-0.110	-0.480	-0.090
2020/01/31 21:09:08.4	4.920	-0.100	-0.540	-0.110
2020/01/31 21:09:08.5	4.940	-0.090	-0.610	-0.140
2020/01/31 21:09:08.6	4.970	-0.080	-0.680	-0.160
2020/01/31 21:09:08.7	4.990	-0.070	-0.740	-0.180
2020/01/31 21:09:08.8	5.010	-0.050	-0.810	-0.210
2020/01/31 21:09:08.9	5.030	-0.040	-0.870	-0.230
2020/01/31 21:09:09.0	5.050	-0.020	-0.930	-0.250
2020/01/31 21:09:09.1	5.070	-0.010	-0.990	-0.280
2020/01/31 21:09:09.2	5.080	0.010	-1.050	-0.300
2020/01/31 21:09:09.3	5.100	0.020	-1.100	-0.320
2020/01/31 21:09:09.4	5.120	0.040	-1.150	-0.340
2020/01/31 21:09:09.5	5.130	0.050	-1.190	-0.360
2020/01/31 21:09:09.6	5.150	0.070	-1.220	-0.380
2020/01/31 21:09:09.7	5.170	0.080	-1.250	-0.400
2020/01/31 21:09:09.8	5.180	0.090	-1.270	-0.420
2020/01/31 21:09:09.9	5.190	0.110	-1.290	-0.430
2020/01/31 21:09:10.0	5.210	0.120	-1.290	-0.440
2020/01/31 21:09:10.1	5.220	0.130	-1.290	-0.460
2020/01/31 21:09:10.2	5.240	0.130	-1.290	-0.470
2020/01/31 21:09:10.3	5.250	0.140	-1.270	-0.480
2020/01/31 21:09:10.4	5.270	0.140	-1.250	-0.490
2020/01/31 21:09:10.5	5.280	0.140	-1.220	-0.500
2020/01/31 21:09:10.6	5.300	0.140	-1.180	-0.510
2020/01/31 21:09:10.7	5.310	0.140	-1.140	-0.520
2020/01/31 21:09:10.8	5.320	0.130	-1.080	-0.520
2020/01/31 21:09:10.9	5.340	0.120	-1.020	-0.530
2020/01/31 21:09:11.0	5.350	0.110	-0.960	-0.530
2020/01/31 21:09:11.1	5.360	0.100	-0.890	-0.540
2020/01/31 21:09:11.2	5.370	0.080	-0.810	-0.540
2020/01/31 21:09:11.3	5.380	0.070	-0.730	-0.540
2020/01/31 21:09:11.4	5.390	0.050	-0.650	-0.550
2020/01/31 21:09:11.5	5.400	0.020	-0.570	-0.550
2020/01/31 21:09:11.6	5.400	-0.000	-0.480	-0.550
2020/01/31 21:09:11.7	5.410	-0.030	-0.390	-0.550
2020/01/31 21:09:11.8	5.420	-0.060	-0.300	-0.550
2020/01/31 21:09:11.9	5.430	-0.090	-0.210	-0.550
2020/01/31 21:09:12.0	5.410	-0.120	-0.120	-0.540
2020/01/31 21:09:12.1	5.410	-0.150	-0.040	-0.540
2020/01/31 21:09:12.2	5.420	-0.180	0.050	-0.540
2020/01/31 21:09:12.3	5.420	-0.220	0.140	-0.530
2020/01/31 21:09:12.4	5.420	-0.250	0.220	-0.530
2020/01/31 21:09:12.5	5.420	-0.280	0.300	-0.520
2020/01/31 21:09:12.6	5.410	-0.320	0.370	-0.520
2020/01/31 21:09:12.7	5.410	-0.350	0.440	-0.510
2020/01/31 21:09:12.8	5.400	-0.380	0.510	-0.500
2020/01/31 21:09:12.9	5.400	-0.410	0.570	-0.490
2020/01/31 21:09:13.0	5.390	-0.440	0.630	-0.480
2020/01/31 21:09:13.1	5.380	-0.470	0.680	-0.470
2020/01/31 21:09:13.2	5.370	-0.500	0.730	-0.450
2020/01/31 21:09:13.3	5.360	-0.520	0.770	-0.440
2020/01/31 21:09:13.4	5.340	-0.540	0.800	-0.420
2020/01/31 21:09:13.5	5.320	-0.560	0.830	-0.410
2020/01/31 21:09:13.6	5.300	-0.570	0.860	-0.390
2020/01/31 21:09:13.7	5.280	-0.590	0.870	-0.360
2020/01/31 21:09:13.8	5.260	-0.590	0.880	-0.340
2020/01/31 21:09:13.9	5.230	-0.600	0.890	-0.310
2020/01/31 21:09:14.0	5.200	-0.600	0.890	-0.280
2020/01/31 21:09:14.1	5.180	-0.600	0.880	-0.250
2020/01/31 21:09:14.2	5.150	-0.590	0.860	-0.220
2020/01/31 21:09:14.3	5.120	-0.580	0.840	-0.190
2020/01/31 21:09:14.4	5.090	-0.560	0.810	-0.150
2020/01/31 21:09:14.5	5.060	-0.540	0.780	-0.110
2020/01/31 21:09:14.6	5.030	-0.520	0.740	-0.080
2020/01/31 21:09:14.7	5.000	-0.500	0.700	-0.040
2020/01/31 21:09:14.8	4.970	-0.470	0.650	0.000
2020/01/31 21:09:14.9	4.930	-0.430	0.590	0.040
2020/01/31 21:09:15.0	4.890	-0.400	0.540	0.080
2020/01/31 21:09:15.1	4.860	-0.360	0.480	0.120
2020/01/31 21:09:15.2	4.830	-0.320	0.410	0.160
2020/01/31 21:09:15.3	4.800	-0.270	0.340	0.200
2020/01/31 21:09:15.4	4.770	-0.220	0.270	0.230
2020/01/31 21:09:15.5	4.740	-0.170	0.200	0.270
2020/01/31 21:09:15.6	4.710	-0.120	0.120	0.310
2020/01/31 21:09:15.7	4.690	-0.060	0.050	0.350
2020/01/31 21:09:15.8	4.660	-0.010	-0.030	0.380
2020/01/31 21:09:15.9	4.640	0.050	-0.110	0.410
2020/01/31 21:09:16.0	4.620	0.110	-0.180	0.450
2020/01/31 21:09:16.1	4.610	0.170	-0.260	0.480
2020/01/31 21:09:16.2	4.590	0.230	-0.330	0.510
2020/01/31 21:09:16.3	4.580	0.290	-0.410	0.540
2020/01/31 21:09:16.4	4.560	0.350	-0.480	0.560
2020/01/31 21:09:16.5	4.560	0.400	-0.550	0.590
2020/01/31 21:09:16.6	4.550	0.460	-0.620	0.610
2020/01/31 21:09:16.7	4.540	0.520	-0.690	0.630
2020/01/31 21:09:16.8	4.540	0.570	-0.750	0.650
2020/01/31 21:09:16.9	4.540	0.630	-0.810	0.670
2020/01/31 21:09:17.0	4.540	0.680	-0.870	0.680
2020/01/31 21:09:17.1	4.550	0.720	-0.920	0.690
2020/01/31 21:09:17.2	4.550	0.770	-0.970	0.700
2020/01/31 21:09:17.3	4.560	0.810	-1.010	0.710
2020/01/31 21:09:17.4	4.570	0.850	-1.050	0.710
2020/01/31 21:09:17.5	4.580	0.880	-1.090	0.720
2020/01/31 21:09:17.6	4.590	0.910	-1.120	0.710
2020/01/31 21:09:17.7	4.600	0.930	-1.140	0.710
2020/01/31 21:09:17.8	4.620	0.960	-1.160	0.710
2020/01/31 21:09:17.9	4.650	0.970	-1.170	0.700
2020/01/31 21:09:18.0	4.670	0.980	-1.180	0.690
2020/01/31 21:09:18.1	4.680	0.990	-1.190	0.680
2020/01/31 21:09:18.2	4.700	0.990	-1.190	0.660
2020/01/31 21:09:18.3	4.720	0.990	-1.180	0.650
2020/01/31 21:09:18.4	4.740	0.980	-1.170	0.630
2020/01/31 21:09:18.5	4.750	0.970	-1.160	0.610
2020/01/31 21:09:18.6	4.770	0.960	-1.140	0.590
2020/01/31 21:09:18.7	4.790	0.930	-1.110	0.560
2020/01/31 21:09:18.8	4.810	0.910	-1.080	0.540
2020/01/31 21:09:18.9	4.830	0.880	-1.050	0.510
2020/01/31 21:09:19.0	4.840	0.840	-1.010	0.480
2020/01/31 21:09:19.1	4.870	0.800	-0.970	0.450
2020/01/31 21:09:19.2	4.890	0.760	-0.930	0.410
2020/01/31 21:09:19.3	4.910	0.720	-0.890	0.380
2020/01/31 21:09:19.4	4.930	0.670	-0.840	0.340
2020/01/31 21:09:19.5	4.950	0.620	-0.790	0.300
2020/01/31 21:09:19.6	4.980	0.560	-0.740	0.260
2020/01/31 21:09:19.7	5.000	0.510	-0.690	0.220
2020/01/31 21:09:19.8	5.020	0.450	-0.630	0.180
2020/01/31 21:09:19.9	5.050	0.390	-0.580	0.140
2020/01/31 21:09:20.0	5.070	0.330	-0.530	0.100
2020/01/31 21:09:20.1	5.100	0.270	-0.470	0.050
2020/01/31 21:09:20.2	5.120	0.200	-0.420	0.010
2020/01/31 21:09:20.3	5.140	0.140	-0.360	-0.030
2020/01/31 21:09:20.4	5.160	0.080	-0.310	-0.070
2020/01/31 21:09:20.5	5.180	0.020	-0.260	-0.120
2020/01/31 21:09:20.6	5.200	-0.040	-0.210	-0.160
2020/01/31 21:09:20.7	5.220	-0.100	-0.160	-0.200
2020/01/31 21:09:20.8	5.240	-0.160	-0.110	-0.240
2020/01/31 21:09:20.9	5.270	-0.220	-0.070	-0.280
2020/01/31 21:09:21.0	5.290	-0.280	-0.020	-0.320
2020/01/31 21:09:21.1	5.310	-0.330	0.020	-0.350
2020/01/31 21:09:21.2	5.330	-0.380	0.050	-0.390
2020/01/31 21:09:21.3	5.340	-0.430	0.090	-0.420
2020/01/31 21:09:21.4	5.360	-0.480	0.120	-0.460
2020/01/31 21:09:21.5	5.380	-0.520	0.150	-0.490
2020/01/31 21:09:21.6	5.390	-0.560	0.170	-0.520
2020/01/31 21:09:21.7	5.400	-0.590	0.190	-0.550
2020/01/31 21:09:21.8	5.420	-0.630	0.200	-0.570
2020/01/31 21:09:21.9	5.430	-0.660	0.220	-0.600
2020/01/31 21:09:22.0	5.430	-0.680	0.230	-0.620
2020/01/31 21:09:22.1	5.440	-0.710	0.230	-0.650
2020/01/31 21:09:22.2	5.440	-0.730	0.230	-0.670
2020/01/31 21:09:22.3	5.450	-0.750	0.230	-0.690
2020/01/31 21:09:22.4	5.450	-0.760	0.230	-0.710
2020/01/31 21:09:22.5	5.450	-0.770	0.220	-0.720
2020/01/31 21:09:22.6	5.450	-0.780	0.210	-0.740
2020/01/31 21:09:22.7	5.450	-0.790	0.200	-0.750
2020/01/31 21:09:22.8	5.440	-0.790	0.180	-0.760
2020/01/31 21:09:22.9	5.440	-0.790	0.170	-0.770
2020/01/31 21:09:23.0	5.440	-0.790	0.150	-0.780
2020/01/31 21:09:23.1	5.430	-0.790	0.130	-0.780
2020/01/31 21:09:23.2	5.420	-0.780	0.110	-0.790
2020/01/31 21:09:23.3	5.400	-0.780	0.090	-0.790
2020/01/31 21:09:23.4	5.390	-0.770	0.070	-0.790
2020/01/31 21:09:23.5	5.370	-0.760	0.060	-0.790
2020/01/31 21:09:23.6	5.360	-0.750	0.040	-0.790
2020/01/31 21:09:23.7	5.340	-0.740	0.020	-0.780
2020/01/31 21:09:23.8	5.320	-0.730	0.010	-0.780
2020/01/31 21:09:23.9	5.300	-0.710	-0.000	-0.770
2020/01/31 21:09:24.0	5.280	-0.700	-0.020	-0.750
2020/01/31 21:09:24.1	5.260	-0.680	-0.030	-0.740
2020/01/31 21:09:24.2	5.230	-0.660	-0.040	-0.720
2020/01/31 21:09:24.3	5.210	-0.650	-0.040	-0.700
2020/01/31 21:09:24.4	5.190	-0.630	-0.050	-0.680
2020/01/31 21:09:24.5	5.160	-0.610	-0.050	-0.650
2020/01/31 21:09:24.6	5.140	-0.590	-0.050	-0.620
2020/01/31 21:09:24.7	5.110	-0.560	-0.050	-0.590
2020/01/31 21:09:24.8	5.090	-0.540	-0.050	-0.560
2020/01/31 21:09:24.9	5.060	-0.520	-0.050	-0.520
2020/01/31 21:09:25.0	5.040	-0.490	-0.040	-0.480
2020/01/31 21:09:25.1	5.010	-0.470	-0.040	-0.440
2020/01/31 21:09:25.2	4.990	-0.440	-0.030	-0.400
2020/01/31 21:09:25.3	4.970	-0.410	-0.030	-0.360
2020/01/31 21:09:25.4	4.950	-0.380	-0.020	-0.310
2020/01/31 21:09:25.5	4.930	-0.350	-0.010	-0.270
2020/01/31 21:09:25.6	4.910	-0.320	-0.000	-0.220
2020/01/31 21:09:25.7	4.890	-0.290	0.000	-0.170
2020/01/31 21:09:25.8	4.870	-0.250	0.010	-0.120
2020/01/31 21:09:25.9	4.850	-0.220	0.010	-0.060
2020/01/31 21:09:26.0	4.820	-0.180	0.020	-0.010
2020/01/31 21:09:26.1	4.810	-0.140	0.020	0.040
2020/01/31 21:09:26.2	4.790	-0.100	0.020	0.100
2020/01/31 21:09:26.3	4.780	-0.060	0.020	0.150
2020/01/31 21:09:26.4	4.770	-0.020	0.020	0.200
2020/01/31 21:09:26.5	4.760	0.020	0.020	0.260
2020/01/31 21:09:26.6	4.750	0.070	0.010	0.310
2020/01/31 21:09:26.7	4.740	0.110	0.000	0.360
2020/01/31 21:09:26.8	4.730	0.160	-0.010	0.410
2020/01/31 21:09:26.9	4.720	0.200	-0.020	0.460
2020/01/31 21:09:27.0	4.720	0.250	-0.040	0.510
2020/01/31 21:09:27.1	4.710	0.300	-0.060	0.560
2020/01/31 21:09:27.2	4.700	0.340	-0.080	0.600
2020/01/31 21:09:27.3	4.700	0.380	-0.100	0.640
2020/01/31 21:09:27.4	4.690	0.430	-0.130	0.680
2020/01/31 21:09:27.5	4.690	0.470	-0.150	0.720
2020/01/31 21:09:27.6	4.680	0.510	-0.180	0.760
2020/01/31 21:09:27.7	4.680	0.550	-0.210	0.790
2020/01/31 21:09:27.8	4.670	0.590	-0.250	0.820
2020/01/31 21:09:27.9	4.650	0.620	-0.280	0.850
2020/01/31 21:09:28.0	4.650	0.660	-0.310	0.880
2020/01/31 21:09:28.1	4.650	0.690	-0.350	0.900
2020/01/31 21:09:28.2	4.640	0.720	-0.380	0.920
2020/01/31 21:09:28.3	4.640	0.740	-0.420	0.930
2020/01/31 21:09:28.4	4.640	0.770	-0.450	0.940
2020/01/31 21:09:28.5	4.640	0.790	-0.490	0.950
2020/01/31 21:09:28.6	4.640	0.800	-0.520	0.950
2020/01/31 21:09:28.7	4.640	0.820	-0.560	0.950
2020/01/31 21:09:28.8	4.640	0.830	-0.590	0.940
2020/01/31 21:09:28.9	4.650	0.840	-0.620	0.930
2020/01/31 21:09:29.0	4.650	0.840	-0.650	0.920
2020/01/31 21:09:29.1	4.660	0.840	-0.670	0.900
2020/01/31 21:09:29.2	4.670	0.840	-0.700	0.880
2020/01/31 21:09:29.3	4.680	0.830	-0.720	0.860
2020/01/31 21:09:29.4	4.690	0.820	-0.740	0.830
2020/01/31 21:09:29.5	4.700	0.810	-0.750	0.800
2020/01/31 21:09:29.6	4.720	0.790	-0.760	0.760
2020/01/31 21:09:29.7	4.730	0.780	-0.770	0.720
2020/01/31 21:09:29.8	4.750	0.750	-0.780	0.680
2020/01/31 21:09:29.9	4.770	0.730	-0.770	0.640
2020/01/31 21:09:30.0	4.790	0.700	-0.770	0.590
2020/01/31 21:09:30.1	4.810	0.670	-0.770	0.540
2020/01/31 21:09:30.2	4.830	0.640	-0.760	0.490
2020/01/31 21:09:30.3	4.850	0.610	-0.740	0.440
2020/01/31 21:09:30.4	4.880	0.570	-0.730	0.390
2020/01/31 21:09:30.5	4.900	0.530	-0.710	0.340
2020/01/31 21:09:30.6	4.920	0.490	-0.680	0.290
2020/01/31 21:09:30.7	4.940	0.450	-0.660	0.240
2020/01/31 21:09:30.8	4.960	0.410	-0.630	0.190
2020/01/31 21:09:30.9	5.000	0.360	-0.600	0.140
2020/01/31 21:09:31.0	5.020	0.320	-0.560	0.090
2020/01/31 21:09:31.1	5.040	0.270	-0.530	0.040
2020/01/31 21:09:31.2	5.050	0.220	-0.490	-0.010
2020/01/31 21:09:31.3	5.070	0.170	-0.450	-0.070
2020/01/31 21:09:31.4	5.080	0.120	-0.420	-0.120
2020/01/31 21:09:31.5	5.090	0.070	-0.380	-0.170
2020/01/31 21:09:31.6	5.100	0.020	-0.340	-0.220
2020/01/31 21:09:31.7	5.110	-0.030	-0.300	-0.270
2020/01/31 21:09:31.8	5.120	-0.080	-0.270	-0.320
2020/01/31 21:09:31.9	5.140	-0.130	-0.230	-0.370
2020/01/31 21:09:32.0	5.150	-0.180	-0.200	-0.410
2020/01/31 21:09:32.1	5.160	-0.230	-0.170	-0.460
2020/01/31 21:09:32.2	5.160	-0.270	-0.150	-0.500
2020/01/31 21:09:32.3	5.170	-0.320	-0.120	-0.540
2020/01/31 21:09:32.4	5.170	-0.360	-0.100	-0.580
2020/01/31 21:09:32.5	5.180	-0.400	-0.090	-0.620
2020/01/31 21:09:32.6	5.190	-0.430	-0.080	-0.650
2020/01/31 21:09:32.7	5.190	-0.470	-0.070	-0.680
2020/01/31 21:09:32.8	5.200	-0.500	-0.070	-0.710
2020/01/31 21:09:32.9	5.210	-0.520	-0.070	-0.740
2020/01/31 21:09:33.0	5.220	-0.550	-0.080	-0.760
2020/01/31 21:09:33.1	5.230	-0.570	-0.090	-0.780
2020/01/31 21:09:33.2	5.240	-0.580	-0.100	-0.800
2020/01/31 21:09:33.3	5.250	-0.600	-0.120	-0.820
2020/01/31 21:09:33.4	5.260	-0.600	-0.140	-0.830
2020/01/31 21:09:33.5	5.270	-0.610	-0.170	-0.840
2020/01/31 21:09:33.6	5.280	-0.610	-0.200	-0.850
2020/01/31 21:09:33.7	5.300	-0.610	-0.230	-0.850
2020/01/31 21:09:33.8	5.310	-0.610	-0.260	-0.860
2020/01/31 21:09:33.9	5.330	-0.600	-0.290	-0.860
2020/01/31 21:09:34.0	5.340	-0.590	-0.320	-0.860
2020/01/31 21:09:34.1	5.360	-0.570	-0.360	-0.850
2020/01/31 21:09:34.2	5.380	-0.560	-0.390	-0.850
2020/01/31 21:09:34.3	5.390	-0.540	-0.430	-0.840
2020/01/31 21:09:34.4	5.410	-0.520	-0.460	-0.830
2020/01/31 21:09:34.5	5.430	-0.490	-0.490	-0.820
2020/01/31 21:09:34.6	5.440	-0.470	-0.520	-0.800
2020/01/31 21:09:34.7	5.460	-0.440	-0.540	-0.780
2020/01/31 21:09:34.8	5.470	-0.410	-0.560	-0.760
2020/01/31 21:09:34.9	5.480	-0.390	-0.580	-0.740
2020/01/31 21:09:35.0	5.490	-0.360	-0.590	-0.710
2020/01/31 21:09:35.1	5.500	-0.330	-0.600	-0.680
2020/01/31 21:09:35.2	5.510	-0.300	-0.600	-0.650
2020/01/31 21:09:35.3	5.520	-0.270	-0.600	-0.620
2020/01/31 21:09:35.4	5.520	-0.240	-0.590	-0.580
2020/01/31 21:09:35.5	5.530	-0.210	-0.570	-0.540
2020/01/31 21:09:35.6	5.530	-0.180	-0.550	-0.500
2020/01/31 21:09:35.7	5.520	-0.150	-0.520	-0.450
2020/01/31 21:09:35.8	5.520	-0.120	-0.490	-0.400
2020/01/31 21:09:35.9	5.520	-0.100	-0.450	-0.350
2020/01/31 21:09:36.0	5.510	-0.070	-0.410	-0.290
2020/01/31 21:09:36.1	5.500	-0.050	-0.360	-0.230
2020/01/31 21:09:36.2	5.490	-0.030	-0.310	-0.180
2020/01/31 21:09:36.3	5.480	-0.010	-0.260	-0.120
2020/01/31 21:09:36.4	5.460	0.010	-0.200	-0.050
2020/01/31 21:09:36.5	5.440	0.020	-0.140	0.010
2020/01/31 21:09:36.6	5.420	0.040	-0.080	0.070
2020/01/31 21:09:36.7	5.400	0.050	-0.010	0.130
2020/01/31 21:09:36.8	5.380	0.060	0.050	0.190
2020/01/31 21:09:36.9	5.360	0.070	0.110	0.250
2020/01/31 21:09:37.0	5.330	0.080	0.170	0.310
2020/01/31 21:09:37.1	5.310	0.080	0.220	0.360
2020/01/31 21:09:37.2	5.290	0.090	0.280	0.410
2020/01/31 21:09:37.3	5.270	0.090	0.330	0.460
2020/01/31 21:09:37.4	5.250	0.100	0.370	0.510
2020/01/31 21:09:37.5	5.220	0.100	0.410	0.550
2020/01/31 21:09:37.6	5.210	0.100	0.440	0.590
2020/01/31 21:09:37.7	5.190	0.110	0.470	0.620
2020/01/31 21:09:37.8	5.170	0.110	0.500	0.660
2020/01/31 21:09:37.9	5.150	0.110	0.510	0.690
2020/01/31 21:09:38.0	5.140	0.110	0.530	0.710
2020/01/31 21:09:38.1	5.120	0.110	0.530	0.740
2020/01/31 21:09:38.2	5.100	0.120	0.540	0.760
2020/01/31 21:09:38.3	5.080	0.120	0.530	0.770
2020/01/31 21:09:38.4	5.060	0.120	0.520	0.790
2020/01/31 21:09:38.5	5.030	0.120	0.510	0.810
2020/01/31 21:09:38.6	5.010	0.130	0.500	0.820
2020/01/31 21:09:38.7	4.980	0.130	0.480	0.830
2020/01/31 21:09:38.8	4.960	0.130	0.450	0.840
2020/01/31 21:09:38.9	4.920	0.130	0.430	0.840
2020/01/31 21:09:39.0	4.890	0.130	0.400	0.850
2020/01/31 21:09:39.1	4.860	0.140	0.370	0.850
2020/01/31 21:09:39.2	4.830	0.140	0.340	0.850
2020/01/31 21:09:39.3	4.790	0.140	0.300	0.850
2020/01/31 21:09:39.4	4.760	0.140	0.270	0.840
2020/01/31 21:09:39.5	4.730	0.140	0.230	0.830
2020/01/31 21:09:39.6	4.700	0.140	0.190	0.830
2020/01/31 21:09:39.7	4.670	0.140	0.150	0.810
2020/01/31 21:09:39.8	4.640	0.140	0.110	0.800
2020/01/31 21:09:39.9	4.610	0.140	0.060	0.780
2020/01/31 21:09:40.0	4.590	0.140	0.020	0.760
2020/01/31 21:09:40.1	4.570	0.140	-0.030	0.730
2020/01/31 21:09:40.2	4.550	0.140	-0.070	0.700
2020/01/31 21:09:40.3	4.540	0.140	-0.120	0.670
2020/01/31 21:09:40.4	4.530	0.140	-0.170	0.630
2020/01/31 21:09:40.5	4.520	0.140	-0.220	0.590
2020/01/31 21:09:40.6	4.520	0.140	-0.280	0.540
2020/01/31 21:09:40.7	4.520	0.140	-0.330	0.490
2020/01/31 21:09:40.8	4.530	0.150	-0.390	0.440
2020/01/31 21:09:40.9	4.550	0.150	-0.440	0.380
2020/01/31 21:09:41.0	4.560	0.150	-0.500	0.320
2020/01/31 21:09:41.1	4.580	0.160	-0.560	0.260
2020/01/31 21:09:41.2	4.600	0.160	-0.610	0.200
2020/01/31 21:09:41.3	4.630	0.170	-0.670	0.140
2020/01/31 21:09:41.4	4.650	0.170	-0.720	0.070
2020/01/31 21:09:41.5	4.680	0.180	-0.780	0.010
2020/01/31 21:09:41.6	4.710	0.180	-0.830	-0.060
2020/01/31 21:09:41.7	4.740	0.190	-0.880	-0.120
2020/01/31 21:09:41.8	4.780	0.190	-0.920	-0.180
2020/01/31 21:09:41.9	4.810	0.190	-0.960	-0.240
2020/01/31 21:09:42.0	4.850	0.190	-0.990	-0.300
2020/01/31 21:09:42.1	4.880	0.190	-1.020	-0.360
2020/01/31 21:09:42.2	4.910	0.190	-1.050	-0.410
2020/01/31 21:09:42.3	4.940	0.190	-1.070	-0.460
2020/01/31 21:09:42.4	4.970	0.190	-1.080	-0.510
2020/01/31 21:09:42.5	5.000	0.180	-1.080	-0.550
2020/01/31 21:09:42.6	5.030	0.170	-1.080	-0.590
2020/01/31 21:09:42.7	5.060	0.160	-1.070	-0.620
2020/01/31 21:09:42.8	5.080	0.150	-1.050	-0.650
2020/01/31 21:09:42.9	5.100	0.140	-1.030	-0.670
2020/01/31 21:09:43.0	5.130	0.120	-1.000	-0.700
2020/01/31 21:09:43.1	5.150	0.100	-0.970	-0.710
2020/01/31 21:09:43.2	5.170	0.080	-0.930	-0.720
2020/01/31 21:09:43.3	5.180	0.060	-0.890	-0.730
2020/01/31 21:09:43.4	5.200	0.040	-0.840	-0.730
2020/01/31 21:09:43.5	5.210	0.020	-0.780	-0.730
2020/01/31 21:09:43.6	5.220	-0.010	-0.730	-0.730
2020/01/31 21:09:43.7	5.230	-0.030	-0.670	-0.720
2020/01/31 21:09:43.8	5.250	-0.060	-0.610	-0.710
2020/01/31 21:09:43.9	5.270	-0.090	-0.550	-0.690
2020/01/31 21:09:44.0	5.280	-0.120	-0.480	-0.680
2020/01/31 21:09:44.1	5.290	-0.140	-0.420	-0.660
2020/01/31 21:09:44.2	5.300	-0.170	-0.360	-0.640
2020/01/31 21:09:44.3	5.310	-0.190	-0.300	-0.620
2020/01/31 21:09:44.4	5.320	-0.220	-0.250	-0.600
2020/01/31 21:09:44.5	5.330	-0.240	-0.200	-0.570
2020/01/31 21:09:44.6	5.340	-0.260	-0.150	-0.550
2020/01/31 21:09:44.7	5.350	-0.280	-0.110	-0.530
2020/01/31 21:09:44.8	5.370	-0.300	-0.080	-0.500
2020/01/31 21:09:44.9	5.390	-0.310	-0.050	-0.480
2020/01/31 21:09:45.0	5.400	-0.330	-0.020	-0.460
2020/01/31 21:09:45.1	5.420	-0.330	-0.010	-0.430
2020/01/31 21:09:45.2	5.440	-0.340	0.000	-0.410
2020/01/31 21:09:45.3	5.460	-0.340	0.010	-0.390
2020/01/31 21:09:45.4	5.480	-0.340	0.000	-0.370
2020/01/31 21:09:45.5	5.490	-0.340	-0.010	-0.340
2020/01/31 21:09:45.6	5.510	-0.330	-0.020	-0.320
2020/01/31 21:09:45.7	5.530	-0.320	-0.040	-0.300
2020/01/31 21:09:45.8	5.560	-0.300	-0.070	-0.280
2020/01/31 21:09:45.9	5.580	-0.290	-0.100	-0.260
2020/01/31 21:09:46.0	5.600	-0.260	-0.140	-0.240
2020/01/31 21:09:46.1	5.620	-0.240	-0.180	-0.230
2020/01/31 21:09:46.2	5.640	-0.220	-0.220	-0.210
2020/01/31 21:09:46.3	5.660	-0.190	-0.260	-0.190
2020/01/31 21:09:46.4	5.670	-0.160	-0.300	-0.180
2020/01/31 21:09:46.5	5.680	-0.130	-0.340	-0.160
2020/01/31 21:09:46.6	5.690	-0.100	-0.380	-0.150
2020/01/31 21:09:46.7	5.700	-0.070	-0.420	-0.140
2020/01/31 21:09:46.8	5.710	-0.040	-0.450	-0.120
2020/01/31 21:09:46.9	5.710	-0.000	-0.480	-0.100
2020/01/31 21:09:47.0	5.720	0.030	-0.500	-0.090
2020/01/31 21:09:47.1	5.720	0.060	-0.520	-0.070
2020/01/31 21:09:47.2	5.710	0.090	-0.540	-0.050
2020/01/31 21:09:47.3	5.700	0.120	-0.550	-0.030
2020/01/31 21:09:47.4	5.690	0.150	-0.550	-0.000
2020/01/31 21:09:47.5	5.680	0.170	-0.550	0.030
2020/01/31 21:09:47.6	5.660	0.200	-0.540	0.050
2020/01/31 21:09:47.7	5.630	0.220	-0.520	0.080
2020/01/31 21:09:47.8	5.610	0.240	-0.490	0.110
2020/01/31 21:09:47.9	5.580	0.250	-0.460	0.150
2020/01/31 21:09:48.0	5.550	0.270	-0.430	0.180
2020/01/31 21:09:48.1	5.510	0.280	-0.390	0.220
2020/01/31 21:09:48.2	5.480	0.290	-0.340	0.260
2020/01/31 21:09:48.3	5.440	0.290	-0.290	0.290
2020/01/31 21:09:48.4	5.400	0.290	-0.240	0.330
2020/01/31 21:09:48.5	5.360	0.290	-0.180	0.370
2020/01/31 21:09:48.6	5.320	0.290	-0.120	0.400
2020/01/31 21:09:48.7	5.270	0.280	-0.060	0.440
2020/01/31 21:09:48.8	5.230	0.270	0.000	0.480
2020/01/31 21:09:48.9	5.180	0.260	0.060	0.510
2020/01/31 21:09:49.0	5.140	0.250	0.120	0.540
2020/01/31 21:09:49.1	5.100	0.240	0.180	0.570
2020/01/31 21:09:49.2	5.050	0.220	0.240	0.590
2020/01/31 21:09:49.3	5.010	0.200	0.290	0.620
2020/01/31 21:09:49.4	4.960	0.180	0.340	0.630
2020/01/31 21:09:49.5	4.920	0.160	0.390	0.650
2020/01/31 21:09:49.6	4.880	0.140	0.440	0.660
2020/01/31 21:09:49.7	4.840	0.120	0.480	0.660
2020/01/31 21:09:49.8	4.810	0.100	0.510	0.670
2020/01/31 21:09:49.9	4.770	0.080	0.540	0.660
2020/01/31 21:09:50.0	4.750	0.070	0.560	0.650
2020/01/31 21:09:50.1	4.720	0.050	0.580	0.640
2020/01/31 21:09:50.2	4.690	0.030	0.590	0.620
2020/01/31 21:09:50.3	4.670	0.010	0.590	0.600
2020/01/31 21:09:50.4	4.650	-0.000	0.590	0.570
2020/01/31 21:09:50.5	4.630	-0.020	0.580	0.540
2020/01/31 21:09:50.6	4.620	-0.030	0.560	0.500
2020/01/31 21:09:50.7	4.610	-0.040	0.540	0.460
2020/01/31 21:09:50.8	4.600	-0.050	0.510	0.420
2020/01/31 21:09:50.9	4.590	-0.060	0.470	0.370
2020/01/31 21:09:51.0	4.590	-0.060	0.430	0.320
2020/01/31 21:09:51.1	4.590	-0.070	0.380	0.270
2020/01/31 21:09:51.2	4.600	-0.070	0.330	0.220
2020/01/31 21:09:51.3	4.610	-0.070	0.270	0.160
2020/01/31 21:09:51.4	4.630	-0.070	0.200	0.110
2020/01/31 21:09:51.5	4.640	-0.070	0.130	0.050
2020/01/31 21:09:51.6	4.670	-0.060	0.060	-0.000
2020/01/31 21:09:51.7	4.690	-0.060	-0.020	-0.060
2020/01/31 21:09:51.8	4.720	-0.050	-0.100	-0.120
2020/01/31 21:09:51.9	4.740	-0.050	-0.180	-0.180
2020/01/31 21:09:52.0	4.780	-0.040	-0.270	-0.240
2020/01/31 21:09:52.1	4.810	-0.030	-0.350	-0.310
2020/01/31 21:09:52.2	4.850	-0.030	-0.430	-0.370
2020/01/31 21:09:52.3	4.890	-0.020	-0.520	-0.430
2020/01/31 21:09:52.4	4.940	-0.010	-0.600	-0.500
2020/01/31 21:09:52.5	4.980	-0.000	-0.680	-0.560
2020/01/31 21:09:52.6	5.030	0.010	-0.760	-0.620
2020/01/31 21:09:52.7	5.070	0.010	-0.830	-0.680
2020/01/31 21:09:52.8	5.120	0.020	-0.900	-0.740
2020/01/31 21:09:52.9	5.170	0.020	-0.970	-0.800
2020/01/31 21:09:53.0	5.220	0.030	-1.030	-0.850
2020/01/31 21:09:53.1	5.270	0.030	-1.080	-0.900
2020/01/31 21:09:53.2	5.310	0.030	-1.130	-0.940
2020/01/31 21:09:53.3	5.350	0.030	-1.160	-0.980
2020/01/31 21:09:53.4	5.390	0.030	-1.190	-1.020
2020/01/31 21:09:53.5	5.430	0.030	-1.220	-1.050
2020/01/31 21:09:53.6	5.460	0.020	-1.230	-1.070
2020/01/31 21:09:53.7	5.490	0.020	-1.230	-1.090
2020/01/31 21:09:53.8	5.520	0.010	-1.230	-1.100
2020/01/31 21:09:53.9	5.540	-0.000	-1.210	-1.100
2020/01/31 21:09:54.0	5.560	-0.010	-1.190	-1.100
2020/01/31 21:09:54.1	5.580	-0.030	-1.160	-1.090
2020/01/31 21:09:54.2	5.590	-0.040	-1.120	-1.080
2020/01/31 21:09:54.3	5.600	-0.060	-1.070	-1.060
2020/01/31 21:09:54.4	5.600	-0.080	-1.020	-1.040
2020/01/31 21:09:54.5	5.600	-0.100	-0.950	-1.020
2020/01/31 21:09:54.6	5.590	-0.120	-0.880	-0.990
2020/01/31 21:09:54.7	5.580	-0.140	-0.810	-0.950
2020/01/31 21:09:54.8	5.570	-0.160	-0.720	-0.910
2020/01/31 21:09:54.9	5.540	-0.180	-0.640	-0.870
2020/01/31 21:09:55.0	5.520	-0.210	-0.550	-0.820
2020/01/31 21:09:55.1	5.490	-0.230	-0.460	-0.770
2020/01/31 21:09:55.2	5.460	-0.250	-0.360	-0.720
2020/01/31 21:09:55.3	5.430	-0.270	-0.270	-0.660
2020/01/31 21:09:55.4	5.390	-0.290	-0.170	-0.600
2020/01/31 21:09:55.5	5.350	-0.310	-0.080	-0.540
2020/01/31 21:09:55.6	5.310	-0.330	0.010	-0.480
2020/01/31 21:09:55.7	5.270	-0.350	0.090	-0.420
2020/01/31 21:09:55.8	5.230	-0.370	0.180	-0.360
2020/01/31 21:09:55.9	5.200	-0.380	0.250	-0.300
2020/01/31 21:09:56.0	5.160	-0.390	0.330	-0.240
2020/01/31 21:09:56.1	5.120	-0.400	0.390	-0.190
2020/01/31 21:09:56.2	5.080	-0.400	0.450	-0.130
2020/01/31 21:09:56.3	5.040	-0.410	0.500	-0.080
2020/01/31 21:09:56.4	5.010	-0.410	0.540	-0.040
2020/01/31 21:09:56.5	4.980	-0.400	0.580	0.010
2020/01/31 21:09:56.6	4.950	-0.400	0.600	0.050
2020/01/31 21:09:56.7	4.920	-0.390	0.620	0.080
2020/01/31 21:09:56.8	4.900	-0.380	0.620	0.110
2020/01/31 21:09:56.9	4.880	-0.360	0.620	0.140
2020/01/31 21:09:57.0	4.860	-0.340	0.610	0.160
2020/01/31 21:09:57.1	4.840	-0.320	0.590	0.180
2020/01/31 21:09:57.2	4.830	-0.300	0.560	0.190
2020/01/31 21:09:57.3	4.820	-0.270	0.530	0.200
2020/01/31 21:09:57.4	4.820	-0.250	0.490	0.210
2020/01/31 21:09:57.5	4.810	-0.220	0.440	0.210
2020/01/31 21:09:57.6	4.810	-0.180	0.380	0.220
2020/01/31 21:09:57.7	4.810	-0.150	0.320	0.220
2020/01/31 21:09:57.8	4.810	-0.120	0.260	0.210
2020/01/31 21:09:57.9	4.790	-0.080	0.200	0.210
2020/01/31 21:09:58.0	4.790	-0.050	0.130	0.210
2020/01/31 21:09:58.1	4.800	-0.010	0.060	0.200
2020/01/31 21:09:58.2	4.800	0.020	-0.020	0.190
2020/01/31 21:09:58.3	4.810	0.060	-0.090	0.180
2020/01/31 21:09:58.4	4.810	0.090	-0.160	0.170
2020/01/31 21:09:58.5	4.820	0.120	-0.230	0.160
2020/01/31 21:09:58.6	4.830	0.150	-0.300	0.150
2020/01/31 21:09:58.7	4.840	0.180	-0.370	0.140
2020/01/31 21:09:58.8	4.840	0.210	-0.430	0.120
2020/01/31 21:09:58.9	4.850	0.230	-0.490	0.110
2020/01/31 21:09:59.0	4.860	0.260	-0.550	0.090
2020/01/31 21:09:59.1	4.870	0.280	-0.600	0.080
2020/01/31 21:09:59.2	4.880	0.290	-0.640	0.060
2020/01/31 21:09:59.3	4.890	0.310	-0.690	0.040
2020/01/31 21:09:59.4	4.900	0.320	-0.720	0.030
2020/01/31 21:09:59.5	4.910	0.330	-0.750	0.010
2020/01/31 21:09:59.6	4.920	0.340	-0.780	-0.000
2020/01/31 21:09:59.7	4.930	0.340	-0.800	-0.020
2020/01/31 21:09:59.8	4.940	0.350	-0.820	-0.030
2020/01/31 21:09:59.9	4.950	0.350	-0.830	-0.050
2020/01/31 21:10:00.0	4.960	0.340	-0.840	-0.060
2020/01/31 21:10:00.1	4.970	0.340	-0.840	-0.080
2020/01/31 21:10:00.2	4.980	0.330	-0.840	-0.090
2020/01/31 21:10:00.3	4.990	0.320	-0.830	-0.100
2020/01/31 21:10:00.4	5.000	0.310	-0.820	-0.110
2020/01/31 21:10:00.5	5.010	0.300	-0.810	-0.120
2020/01/31 21:10:00.6	5.020	0.280	-0.800	-0.130
2020/01/31 21:10:00.7	5.030	0.270	-0.780	-0.140
2020/01/31 21:10:00.8	5.040	0.250	-0.760	-0.140
2020/01/31 21:10:00.9	5.050	0.230	-0.740	-0.150
2020/01/31 21:10:01.0	5.060	0.220	-0.720	-0.150
2020/01/31 21:10:01.1	5.060	0.200	-0.690	-0.150
2020/01/31 21:10:01.2	5.070	0.180	-0.670	-0.150
2020/01/31 21:10:01.3	5.070	0.160	-0.640	-0.150
2020/01/31 21:10:01.4	5.070	0.140	-0.620	-0.150
2020/01/31 21:10:01.5	5.070	0.130	-0.590	-0.150
2020/01/31 21:10:01.6	5.080	0.110	-0.570	-0.150
2020/01/31 21:10:01.7	5.080	0.090	-0.540	-0.150
2020/01/31 21:10:01.8	5.080	0.080	-0.520	-0.150
2020/01/31 21:10:01.9	5.100	0.070	-0.500	-0.150
2020/01/31 21:10:02.0	5.100	0.050	-0.470	-0.150
2020/01/31 21:10:02.1	5.100	0.050	-0.460	-0.160
2020/01/31 21:10:02.2	5.110	0.040	-0.440	-0.160
2020/01/31 21:10:02.3	5.110	0.030	-0.420	-0.160
2020/01/31 21:10:02.4	5.120	0.030	-0.400	-0.160
2020/01/31 21:10:02.5	5.120	0.030	-0.390	-0.170
2020/01/31 21:10:02.6	5.130	0.030	-0.380	-0.170
2020/01/31 21:10:02.7	5.140	0.030	-0.360	-0.170
2020/01/31 21:10:02.8	5.150	0.040	-0.350	-0.180
2020/01/31 21:10:02.9	5.160	0.050	-0.340	-0.180
2020/01/31 21:10:03.0	5.170	0.060	-0.330	-0.180
2020/01/31 21:10:03.1	5.180	0.070	-0.320	-0.180
2020/01/31 21:10:03.2	5.190	0.080	-0.310	-0.180
2020/01/31 21:10:03.3	5.190	0.100	-0.300	-0.170
2020/01/31 21:10:03.4	5.200	0.110	-0.280	-0.160
2020/01/31 21:10:03.5	5.200	0.130	-0.270	-0.150
2020/01/31 21:10:03.6	5.200	0.140	-0.250	-0.140
2020/01/31 21:10:03.7	5.200	0.160	-0.230	-0.120
2020/01/31 21:10:03.8	5.200	0.180	-0.200	-0.100
2020/01/31 21:10:03.9	5.200	0.190	-0.180	-0.070
2020/01/31 21:10:04.0	5.190	0.200	-0.150	-0.050
2020/01/31 21:10:04.1	5.180	0.220	-0.120	-0.020
2020/01/31 21:10:04.2	5.170	0.230	-0.080	0.010
2020/01/31 21:10:04.3	5.160	0.230	-0.050	0.040
2020/01/31 21:10:04.4	5.150	0.240	-0.010	0.070
2020/01/31 21:10:04.5	5.130	0.250	0.030	0.100
2020/01/31 21:10:04.6	5.120	0.250	0.070	0.140
2020/01/31 21:10:04.7	5.100	0.250	0.120	0.170
2020/01/31 21:10:04.8	5.080	0.240	0.160	0.200
2020/01/31 21:10:04.9	5.060	0.240	0.200	0.230
2020/01/31 21:10:05.0	5.050	0.230	0.240	0.260
2020/01/31 21:10:05.1	5.030	0.210	0.280	0.300
2020/01/31 21:10:05.2	5.010	0.200	0.320	0.320
2020/01/31 21:10:05.3	4.990	0.180	0.360	0.350
2020/01/31 21:10:05.4	4.970	0.160	0.390	0.380
2020/01/31 21:10:05.5	4.950	0.140	0.420	0.400
2020/01/31 21:10:05.6	4.940	0.120	0.450	0.420
2020/01/31 21:10:05.7	4.920	0.090	0.470	0.440
2020/01/31 21:10:05.8	4.900	0.060	0.480	0.460
2020/01/31 21:10:05.9	4.870	0.030	0.500	0.480
2020/01/31 21:10:06.0	4.850	-0.000	0.500	0.490
2020/01/31 21:10:06.1	4.830	-0.040	0.510	0.490
2020/01/31 21:10:06.2	4.820	-0.070	0.500	0.500
2020/01/31 21:10:06.3	4.800	-0.110	0.490	0.500
2020/01/31 21:10:06.4	4.780	-0.140	0.480	0.490
2020/01/31 21:10:06.5	4.770	-0.180	0.460	0.490
2020/01/31 21:10:06.6	4.750	-0.220	0.440	0.470
2020/01/31 21:10:06.7	4.730	-0.260	0.410	0.460
2020/01/31 21:10:06.8	4.720	-0.290	0.370	0.440
2020/01/31 21:10:06.9	4.700	-0.330	0.330	0.420
2020/01/31 21:10:07.0	4.680	-0.360	0.290	0.390
2020/01/31 21:10:07.1	4.670	-0.400	0.250	0.370
2020/01/31 21:10:07.2	4.650	-0.430	0.190	0.340
2020/01/31 21:10:07.3	4.640	-0.460	0.140	0.310
2020/01/31 21:10:07.4	4.630	-0.490	0.080	0.270
2020/01/31 21:10:07.5	4.620	-0.510	0.020	0.240
2020/01/31 21:10:07.6	4.610	-0.540	-0.040	0.200
2020/01/31 21:10:07.7	4.600	-0.560	-0.110	0.160
2020/01/31 21:10:07.8	4.600	-0.570	-0.180	0.120
2020/01/31 21:10:07.9	4.590	-0.590	-0.250	0.080
2020/01/31 21:10:08.0	4.590	-0.600	-0.320	0.030
2020/01/31 21:10:08.1	4.590	-0.600	-0.390	-0.020
2020/01/31 21:10:08.2	4.600	-0.610	-0.460	-0.060
2020/01/31 21:10:08.3	4.610	-0.610	-0.530	-0.110
2020/01/31 21:10:08.4	4.630	-0.600	-0.600	-0.160
2020/01/31 21:10:08.5	4.650	-0.600	-0.670	-0.210
2020/01/31 21:10:08.6	4.670	-0.590	-0.740	-0.260
2020/01/31 21:10:08.7	4.690	-0.570	-0.810	-0.310
2020/01/31 21:10:08.8	4.720	-0.550	-0.870	-0.370
2020/01/31 21:10:08.9	4.750	-0.530	-0.930	-0.420
2020/01/31 21:10:09.0	4.780	-0.510	-0.980	-0.470
2020/01/31 21:10:09.1	4.820	-0.490	-1.030	-0.510
2020/01/31 21:10:09.2	4.850	-0.460	-1.080	-0.560
2020/01/31 21:10:09.3	4.890	-0.430	-1.120	-0.610
2020/01/31 21:10:09.4	4.930	-0.400	-1.150	-0.650
2020/01/31 21:10:09.5	4.970	-0.370	-1.180	-0.690
2020/01/31 21:10:09.6	5.010	-0.340	-1.200	-0.730
2020/01/31 21:10:09.7	5.040	-0.310	-1.220	-0.770
2020/01/31 21:10:09.8	5.080	-0.280	-1.220	-0.800
2020/01/31 21:10:09.9	5.120	-0.250	-1.220	-0.820
2020/01/31 21:10:10.0	5.150	-0.220	-1.210	-0.850
2020/01/31 21:10:10.1	5.180	-0.190	-1.190	-0.860
2020/01/31 21:10:10.2	5.210	-0.170	-1.160	-0.870
2020/01/31 21:10:10.3	5.230	-0.140	-1.130	-0.870
2020/01/31 21:10:10.4	5.250	-0.110	-1.080	-0.870
2020/01/31 21:10:10.5	5.270	-0.090	-1.040	-0.860
2020/01/31 21:10:10.6	5.280	-0.070	-0.980	-0.840
2020/01/31 21:10:10.7	5.290	-0.050	-0.920	-0.820
2020/01/31 21:10:10.8	5.290	-0.030	-0.850	-0.790
2020/01/31 21:10:10.9	5.290	-0.010	-0.780	-0.760
2020/01/31 21:10:11.0	5.290	0.000	-0.710	-0.720
2020/01/31 21:10:11.1	5.290	0.010	-0.630	-0.680
2020/01/31 21:10:11.2	5.280	0.020	-0.550	-0.630
2020/01/31 21:10:11.3	5.260	0.030	-0.460	-0.580
2020/01/31 21:10:11.4	5.250	0.040	-0.380	-0.530
2020/01/31 21:10:11.5	5.230	0.050	-0.290	-0.480
2020/01/31 21:10:11.6	5.210	0.060	-0.210	-0.420
2020/01/31 21:10:11.7	5.190	0.070	-0.130	-0.360
2020/01/31 21:10:11.8	5.170	0.070	-0.050	-0.300
2020/01/31 21:10:11.9	5.150	0.080	0.020	-0.240
2020/01/31 21:10:12.0	5.130	0.090	0.090	-0.180
2020/01/31 21:10:12.1	5.100	0.100	0.160	-0.120
2020/01/31 21:10:12.2	5.080	0.110	0.220	-0.070
2020/01/31 21:10:12.3	5.050	0.120	0.270	-0.010
2020/01/31 21:10:12.4	5.030	0.130	0.310	0.040
2020/01/31 21:10:12.5	5.010	0.140	0.350	0.090
2020/01/31 21:10:12.6	4.990	0.160	0.380	0.140
2020/01/31 21:10:12.7	4.970	0.170	0.400	0.190
2020/01/31 21:10:12.8	4.950	0.190	0.410	0.230
2020/01/31 21:10:12.9	4.930	0.210	0.420	0.270
2020/01/31 21:10:13.0	4.910	0.240	0.420	0.310
2020/01/31 21:10:13.1	4.900	0.260	0.410	0.350
2020/01/31 21:10:13.2	4.880	0.290	0.390	0.380
2020/01/31 21:10:13.3	4.870	0.320	0.370	0.410
2020/01/31 21:10:13.4	4.850	0.350	0.340	0.440
2020/01/31 21:10:13.5	4.840	0.380	0.310	0.470
2020/01/31 21:10:13.6	4.830	0.410	0.270	0.490
2020/01/31 21:10:13.7	4.820	0.440	0.220	0.510
2020/01/31 21:10:13.8	4.820	0.470	0.180	0.520
2020/01/31 21:10:13.9	4.810	0.500	0.130	0.530
2020/01/31 21:10:14.0	4.810	0.530	0.080	0.540
2020/01/31 21:10:14.1	4.800	0.560	0.030	0.550
2020/01/31 21:10:14.2	4.800	0.580	-0.020	0.550
2020/01/31 21:10:14.3	4.800	0.610	-0.070	0.550
2020/01/31 21:10:14.4	4.800	0.630	-0.120	0.540
2020/01/31 21:10:14.5	4.800	0.650	-0.170	0.530
2020/01/31 21:10:14.6	4.800	0.660	-0.210	0.520
2020/01/31 21:10:14.7	4.800	0.670	-0.250	0.500
2020/01/31 21:10:14.8	4.810	0.680	-0.290	0.480
2020/01/31 21:10:14.9	4.820	0.680	-0.320	0.460
2020/01/31 21:10:15.0	4.830	0.670	-0.360	0.430
2020/01/31 21:10:15.1	4.830	0.670	-0.380	0.400
2020/01/31 21:10:15.2	4.840	0.650	-0.400	0.370
2020/01/31 21:10:15.3	4.850	0.640	-0.420	0.330
2020/01/31 21:10:15.4	4.850	0.610	-0.440	0.300
2020/01/31 21:10:15.5	4.860	0.590	-0.450	0.260
2020/01/31 21:10:15.6	4.870	0.550	-0.450	0.220
2020/01/31 21:10:15.7	4.880	0.520	-0.450	0.180
2020/01/31 21:10:15.8	4.890	0.480	-0.450	0.140
2020/01/31 21:10:15.9	4.900	0.440	-0.450	0.100
2020/01/31 21:10:16.0	4.910	0.390	-0.440	0.070
2020/01/31 21:10:16.1	4.920	0.340	-0.420	0.030
2020/01/31 21:10:16.2	4.930	0.290	-0.410	-0.010
2020/01/31 21:10:16.3	4.940	0.230	-0.390	-0.040
2020/01/31 21:10:16.4	4.950	0.180	-0.370	-0.080
2020/01/31 21:10:16.5	4.960	0.120	-0.350	-0.110
2020/01/31 21:10:16.6	4.970	0.070	-0.320	-0.150
2020/01/31 21:10:16.7	4.980	0.010	-0.300	-0.180
2020/01/31 21:10:16.8	5.000	-0.040	-0.280	-0.210
2020/01/31 21:10:16.9	5.010	-0.090	-0.250	-0.240
2020/01/31 21:10:17.0	5.030	-0.140	-0.230	-0.270
2020/01/31 21:10:17.1	5.050	-0.190	-0.210	-0.300
2020/01/31 21:10:17.2	5.060	-0.240	-0.190	-0.330
2020/01/31 21:10:17.3	5.080	-0.280	-0.170	-0.360
2020/01/31 21:10:17.4	5.100	-0.320	-0.160	-0.390
2020/01/31 21:10:17.5	5.110	-0.350	-0.150	-0.410
2020/01/31 21:10:17.6	5.130	-0.380	-0.140	-0.440
2020/01/31 21:10:17.7	5.150	-0.410	-0.140	-0.460
2020/01/31 21:10:17.8	5.160	-0.430	-0.130	-0.490
2020/01/31 21:10:17.9	5.170	-0.440	-0.130	-0.510
2020/01/31 21:10:18.0	5.180	-0.460	-0.140	-0.520
2020/01/31 21:10:18.1	5.180	-0.460	-0.150	-0.540
2020/01/31 21:10:18.2	5.190	-0.460	-0.160	-0.550
2020/01/31 21:10:18.3	5.190	-0.460	-0.170	-0.560
2020/01/31 21:10:18.4	5.190	-0.450	-0.180	-0.560
2020/01/31 21:10:18.5	5.190	-0.440	-0.200	-0.570
2020/01/31 21:10:18.6	5.180	-0.430	-0.220	-0.570
2020/01/31 21:10:18.7	5.170	-0.410	-0.230	-0.560
2020/01/31 21:10:18.8	5.160	-0.390	-0.260	-0.560
2020/01/31 21:10:18.9	5.150	-0.370	-0.280	-0.550
2020/01/31 21:10:19.0	5.140	-0.340	-0.300	-0.550
2020/01/31 21:10:19.1	5.120	-0.320	-0.320	-0.540
2020/01/31 21:10:19.2	5.100	-0.290	-0.340	-0.530
2020/01/31 21:10:19.3	5.090	-0.270	-0.360	-0.520
2020/01/31 21:10:19.4	5.070	-0.240	-0.390	-0.500
2020/01/31 21:10:19.5	5.050	-0.210	-0.410	-0.490
2020/01/31 21:10:19.6	5.030	-0.190	-0.430	-0.480
2020/01/31 21:10:19.7	5.010	-0.170	-0.440	-0.460
2020/01/31 21:10:19.8	4.990	-0.140	-0.460	-0.450
2020/01/31 21:10:19.9	4.950	-0.120	-0.470	-0.430
2020/01/31 21:10:20.0	4.930	-0.110	-0.480	-0.420
2020/01/31 21:10:20.1	4.910	-0.090	-0.490	-0.400
2020/01/31 21:10:20.2	4.890	-0.080	-0.490	-0.390
2020/01/31 21:10:20.3	4.870	-0.070	-0.490	-0.370
2020/01/31 21:10:20.4	4.860	-0.060	-0.490	-0.350
2020/01/31 21:10:20.5	4.840	-0.050	-0.490	-0.340
2020/01/31 21:10:20.6	4.830	-0.050	-0.480	-0.320
2020/01/31 21:10:20.7	4.820	-0.050	-0.470	-0.310
2020/01/31 21:10:20.8	4.810	-0.060	-0.450	-0.290
2020/01/31 21:10:20.9	4.800	-0.060	-0.440	-0.280
2020/01/31 21:10:21.0	4.790	-0.070	-0.410	-0.260
2020/01/31 21:10:21.1	4.780	-0.080	-0.390	-0.250
2020/01/31 21:10:21.2	4.780	-0.090	-0.360	-0.230
2020/01/31 21:10:21.3	4.780	-0.100	-0.340	-0.220
2020/01/31 21:10:21.4	4.780	-0.120	-0.310	-0.210
2020/01/31 21:10:21.5	4.790	-0.130	-0.280	-0.190
2020/01/31 21:10:21.6	4.790	-0.150	-0.250	-0.180
2020/01/31 21:10:21.7	4.800	-0.160	-0.220	-0.160
2020/01/31 21:10:21.8	4.810	-0.180	-0.190	-0.150
2020/01/31 21:10:21.9	4.820	-0.190	-0.170	-0.140
2020/01/31 21:10:22.0	4.840	-0.210	-0.140	-0.130
2020/01/31 21:10:22.1	4.850	-0.220	-0.110	-0.110
2020/01/31 21:10:22.2	4.870	-0.230	-0.080	-0.100
2020/01/31 21:10:22.3	4.890	-0.240	-0.060	-0.090
2020/01/31 21:10:22.4	4.900	-0.250	-0.040	-0.080
2020/01/31 21:10:22.5	4.920	-0.250	-0.020	-0.060
2020/01/31 21:10:22.6	4.940	-0.260	0.000	-0.050
2020/01/31 21:10:22.7	4.950	-0.260	0.020	-0.040
2020/01/31 21:10:22.8	4.970	-0.260	0.030	-0.030
2020/01/31 21:10:22.9	4.990	-0.250	0.050	-0.020
2020/01/31 21:10:23.0	5.010	-0.250	0.060	-0.010
2020/01/31 21:10:23.1	5.020	-0.240	0.060	0.000
2020/01/31 21:10:23.2	5.030	-0.230	0.070	0.020
2020/01/31 21:10:23.3	5.040	-0.220	0.070	0.030
2020/01/31 21:10:23.4	5.040	-0.210	0.070	0.040
2020/01/31 21:10:23.5	5.040	-0.190	0.070	0.050
2020/01/31 21:10:23.6	5.040	-0.180	0.060	0.060
2020/01/31 21:10:23.7	5.040	-0.160	0.050	0.070
2020/01/31 21:10:23.8	5.040	-0.140	0.040	0.090
2020/01/31 21:10:23.9	5.030	-0.120	0.030	0.100
2020/01/31 21:10:24.0	5.010	-0.100	0.010	0.110
2020/01/31 21:10:24.1	5.000	-0.080	-0.010	0.120
2020/01/31 21:10:24.2	4.990	-0.070	-0.030	0.140
2020/01/31 21:10:24.3	4.970	-0.050	-0.050	0.150
2020/01/31 21:10:24.4	4.960	-0.030	-0.080	0.160
2020/01/31 21:10:24.5	4.940	-0.010	-0.100	0.170
2020/01/31 21:10:24.6	4.930	0.010	-0.130	0.180
2020/01/31 21:10:24.7	4.910	0.030	-0.170	0.180
2020/01/31 21:10:24.8	4.890	0.050	-0.200	0.190
2020/01/31 21:10:24.9	4.880	0.060	-0.240	0.190
2020/01/31 21:10:25.0	4.870	0.080	-0.270	0.200
2020/01/31 21:10:25.1	4.860	0.100	-0.310	0.200
2020/01/31 21:10:25.2	4.850	0.110	-0.350	0.200
2020/01/31 21:10:25.3	4.840	0.120	-0.390	0.200
2020/01/31 21:10:25.4	4.830	0.140	-0.420	0.200
2020/01/31 21:10:25.5	4.820	0.150	-0.460	0.200
2020/01/31 21:10:25.6	4.810	0.160	-0.500	0.190
2020/01/31 21:10:25.7	4.800	0.170	-0.530	0.180
2020/01/31 21:10:25.8	4.800	0.170	-0.560	0.170
2020/01/31 21:10:25.9	4.810	0.180	-0.590	0.160
2020/01/31 21:10:26.0	4.810	0.190	-0.610	0.150
2020/01/31 21:10:26.1	4.810	0.190	-0.630	0.130
2020/01/31 21:10:26.2	4.810	0.190	-0.650	0.120
2020/01/31 21:10:26.3	4.820	0.200	-0.660	0.100
2020/01/31 21:10:26.4	4.820	0.200	-0.670	0.080
2020/01/31 21:10:26.5	4.830	0.200	-0.670	0.060
2020/01/31 21:10:26.6	4.840	0.200	-0.670	0.030
2020/01/31 21:10:26.7	4.850	0.200	-0.660	0.010
2020/01/31 21:10:26.8	4.870	0.200	-0.650	-0.010
2020/01/31 21:10:26.9	4.880	0.190	-0.630	-0.040
2020/01/31 21:10:27.0	4.900	0.190	-0.610	-0.070
2020/01/31 21:10:27.1	4.910	0.190	-0.580	-0.090
2020/01/31 21:10:27.2	4.930	0.180	-0.540	-0.110
2020/01/31 21:10:27.3	4.940	0.180	-0.500	-0.140
2020/01/31 21:10:27.4	4.960	0.170	-0.460	-0.160
2020/01/31 21:10:27.5	4.980	0.170	-0.410	-0.180
2020/01/31 21:10:27.6	4.990	0.170	-0.360	-0.190
2020/01/31 21:10:27.7	5.000	0.160	-0.310	-0.210
2020/01/31 21:10:27.8	5.020	0.160	-0.260	-0.220
2020/01/31 21:10:27.9	5.030	0.150	-0.210	-0.230
2020/01/31 21:10:28.0	5.050	0.150	-0.150	-0.240
2020/01/31 21:10:28.1	5.060	0.150	-0.100	-0.250
2020/01/31 21:10:28.2	5.070	0.150	-0.050	-0.250
2020/01/31 21:10:28.3	5.080	0.140	0.000	-0.250
2020/01/31 21:10:28.4	5.090	0.140	0.050	-0.240
2020/01/31 21:10:28.5	5.100	0.140	0.090	-0.240
2020/01/31 21:10:28.6	5.110	0.140	0.130	-0.230
2020/01/31 21:10:28.7	5.110	0.140	0.170	-0.220
2020/01/31 21:10:28.8	5.120	0.150	0.200	-0.210
2020/01/31 21:10:28.9	5.130	0.150	0.220	-0.190
2020/01/31 21:10:29.0	5.140	0.150	0.230	-0.170
2020/01/31 21:10:29.1	5.140	0.160	0.240	-0.150
2020/01/31 21:10:29.2	5.140	0.160	0.250	-0.130
2020/01/31 21:10:29.3	5.140	0.170	0.240	-0.110
2020/01/31 21:10:29.4	5.150	0.180	0.230	-0.090
2020/01/31 21:10:29.5	5.140	0.180	0.210	-0.070
2020/01/31 21:10:29.6	5.140	0.190	0.180	-0.050
2020/01/31 21:10:29.7	5.140	0.200	0.150	-0.030
2020/01/31 21:10:29.8	5.140	0.210	0.110	-0.010
2020/01/31 21:10:29.9	5.140	0.210	0.060	0.010
2020/01/31 21:10:30.0	5.140	0.220	0.000	0.020
2020/01/31 21:10:30.1	5.140	0.230	-0.060	0.040
2020/01/31 21:10:30.2	5.140	0.230	-0.120	0.050
2020/01/31 21:10:30.3	5.140	0.240	-0.180	0.050
2020/01/31 21:10:30.4	5.140	0.240	-0.250	0.060
2020/01/31 21:10:30.5	5.140	0.250	-0.330	0.060
2020/01/31 21:10:30.6	5.140	0.250	-0.400	0.050
2020/01/31 21:10:30.7	5.150	0.250	-0.470	0.040
2020/01/31 21:10:30.8	5.150	0.250	-0.550	0.030
2020/01/31 21:10:30.9	5.160	0.250	-0.620	0.020
2020/01/31 21:10:31.0	5.160	0.240	-0.690	-0.000
2020/01/31 21:10:31.1	5.170	0.240	-0.750	-0.020
2020/01/31 21:10:31.2	5.180	0.230	-0.820	-0.050
2020/01/31 21:10:31.3	5.200	0.220	-0.870	-0.080
2020/01/31 21:10:31.4	5.210	0.210	-0.920	-0.110
2020/01/31 21:10:31.5	5.230	0.200	-0.970	-0.140
2020/01/31 21:10:31.6	5.250	0.180	-1.000	-0.180
2020/01/31 21:10:31.7	5.270	0.160	-1.030	-0.210
2020/01/31 21:10:31.8	5.290	0.140	-1.050	-0.250
2020/01/31 21:10:31.9	5.300	0.120	-1.060	-0.290
2020/01/31 21:10:32.0	5.320	0.100	-1.060	-0.330
2020/01/31 21:10:32.1	5.340	0.080	-1.050	-0.360
2020/01/31 21:10:32.2	5.360	0.050	-1.030	-0.400
2020/01/31 21:10:32.3	5.370	0.030	-1.000	-0.430
2020/01/31 21:10:32.4	5.390	-0.000	-0.960	-0.460
2020/01/31 21:10:32.5	5.400	-0.030	-0.910	-0.480
2020/01/31 21:10:32.6	5.420	-0.060	-0.860	-0.510
2020/01/31 21:10:32.7	5.430	-0.090	-0.790	-0.530
2020/01/31 21:10:32.8	5.440	-0.120	-0.720	-0.540
2020/01/31 21:10:32.9	5.460	-0.150	-0.640	-0.560
2020/01/31 21:10:33.0	5.470	-0.180	-0.550	-0.570
2020/01/31 21:10:33.1	5.480	-0.210	-0.460	-0.580
2020/01/31 21:10:33.2	5.480	-0.240	-0.370	-0.580
2020/01/31 21:10:33.3	5.490	-0.270	-0.270	-0.580
2020/01/31 21:10:33.4	5.490	-0.300	-0.170	-0.580
2020/01/31 21:10:33.5	5.490	-0.330	-0.070	-0.570
2020/01/31 21:10:33.6	5.500	-0.350	0.030	-0.560
2020/01/31 21:10:33.7	5.490	-0.380	0.130	-0.550
2020/01/31 21:10:33.8	5.490	-0.400	0.230	-0.530
2020/01/31 21:10:33.9	5.490	-0.420	0.320	-0.510
2020/01/31 21:10:34.0	5.470	-0.440	0.400	-0.490
2020/01/31 21:10:34.1	5.460	-0.450	0.490	-0.460
2020/01/31 21:10:34.2	5.460	-0.460	0.560	-0.430
2020/01/31 21:10:34.3	5.450	-0.470	0.630	-0.400
2020/01/31 21:10:34.4	5.440	-0.480	0.690	-0.370
2020/01/31 21:10:34.5	5.430	-0.480	0.740	-0.340
2020/01/31 21:10:34.6	5.420	-0.490	0.780	-0.300
2020/01/31 21:10:34.7	5.410	-0.480	0.810	-0.270
2020/01/31 21:10:34.8	5.400	-0.480	0.830	-0.230
2020/01/31 21:10:34.9	5.380	-0.470	0.840	-0.190
2020/01/31 21:10:35.0	5.370	-0.460	0.840	-0.160
2020/01/31 21:10:35.1	5.360	-0.440	0.830	-0.120
2020/01/31 21:10:35.2	5.340	-0.430	0.810	-0.080
2020/01/31 21:10:35.3	5.330	-0.410	0.780	-0.050
2020/01/31 21:10:35.4	5.310	-0.380	0.740	-0.010
2020/01/31 21:10:35.5	5.300	-0.360	0.690	0.020
2020/01/31 21:10:35.6	5.280	-0.330	0.640	0.050
2020/01/31 21:10:35.7	5.270	-0.300	0.570	0.080
2020/01/31 21:10:35.8	5.250	-0.270	0.500	0.120
2020/01/31 21:10:35.9	5.220	-0.240	0.430	0.150
2020/01/31 21:10:36.0	5.200	-0.210	0.350	0.180
2020/01/31 21:10:36.1	5.180	-0.170	0.270	0.200
2020/01/31 21:10:36.2	5.150	-0.140	0.180	0.230
2020/01/31 21:10:36.3	5.130	-0.110	0.090	0.260
2020/01/31 21:10:36.4	5.100	-0.070	-0.000	0.280
2020/01/31 21:10:36.5	5.080	-0.040	-0.090	0.300
2020/01/31 21:10:36.6	5.050	-0.000	-0.180	0.320
2020/01/31 21:10:36.7	5.020	0.030	-0.270	0.340
2020/01/31 21:10:36.8	5.000	0.060	-0.360	0.360
2020/01/31 21:10:36.9	4.980	0.100	-0.450	0.380
2020/01/31 21:10:37.0	4.960	0.130	-0.530	0.400
2020/01/31 21:10:37.1	4.930	0.160	-0.610	0.410
2020/01/31 21:10:37.2	4.910	0.180	-0.680	0.420
2020/01/31 21:10:37.3	4.890	0.210	-0.750	0.430
2020/01/31 21:10:37.4	4.870	0.230	-0.820	0.430
2020/01/31 21:10:37.5	4.860	0.250	-0.880	0.430
2020/01/31 21:10:37.6	4.840	0.270	-0.930	0.430
2020/01/31 21:10:37.7	4.840	0.290	-0.980	0.430
2020/01/31 21:10:37.8	4.830	0.300	-1.030	0.420
2020/01/31 21:10:37.9	4.830	0.310	-1.060	0.410
2020/01/31 21:10:38.0	4.830	0.320	-1.100	0.390
2020/01/31 21:10:38.1	4.840	0.330	-1.130	0.370
2020/01/31 21:10:38.2	4.850	0.340	-1.150	0.340
2020/01/31 21:10:38.3	4.870	0.340	-1.160	0.310
2020/01/31 21:10:38.4	4.890	0.340	-1.170	0.280
2020/01/31 21:10:38.5	4.920	0.340	-1.180	0.240
2020/01/31 21:10:38.6	4.950	0.330	-1.180	0.200
2020/01/31 21:10:38.7	4.980	0.330	-1.180	0.150
2020/01/31 21:10:38.8	5.020	0.320	-1.170	0.100
2020/01/31 21:10:38.9	5.060	0.310	-1.150	0.050
2020/01/31 21:10:39.0	5.110	0.300	-1.130	0.000
2020/01/31 21:10:39.1	5.150	0.290	-1.100	-0.050
2020/01/31 21:10:39.2	5.200	0.270	-1.070	-0.110
2020/01/31 21:10:39.3	5.240	0.250	-1.040	-0.170
2020/01/31 21:10:39.4	5.290	0.240	-1.000	-0.220
2020/01/31 21:10:39.5	5.340	0.220	-0.950	-0.280
2020/01/31 21:10:39.6	5.390	0.200	-0.900	-0.330
2020/01/31 21:10:39.7	5.440	0.180	-0.840	-0.380
2020/01/31 21:10:39.8	5.490	0.150	-0.780	-0.430
2020/01/31 21:10:39.9	5.540	0.130	-0.720	-0.470
2020/01/31 21:10:40.0	5.590	0.110	-0.650	-0.510
2020/01/31 21:10:40.1	5.630	0.090	-0.580	-0.540
2020/01/31 21:10:40.2	5.670	0.060	-0.510	-0.570
2020/01/31 21:10:40.3	5.710	0.040	-0.430	-0.590
2020/01/31 21:10:40.4	5.740	0.020	-0.350	-0.610
2020/01/31 21:10:40.5	5.770	-0.010	-0.270	-0.620
2020/01/31 21:10:40.6	5.790	-0.030	-0.190	-0.620
2020/01/31 21:10:40.7	5.810	-0.050	-0.110	-0.620
2020/01/31 21:10:40.8	5.820	-0.080	-0.030	-0.610
2020/01/31 21:10:40.9	5.830	-0.100	0.050	-0.590
2020/01/31 21:10:41.0	5.840	-0.130	0.130	-0.570
2020/01/31 21:10:41.1	5.840	-0.150	0.210	-0.540
2020/01/31 21:10:41.2	5.830	-0.170	0.290	-0.510
2020/01/31 21:10:41.3	5.820	-0.190	0.360	-0.470
2020/01/31 21:10:41.4	5.800	-0.210	0.430	-0.430
2020/01/31 21:10:41.5	5.780	-0.230	0.500	-0.380
2020/01/31 21:10:41.6	5.750	-0.250	0.560	-0.330
2020/01/31 21:10:41.7	5.720	-0.270	0.610	-0.290
2020/01/31 21:10:41.8	5.690	-0.290	0.660	-0.240
2020/01/31 21:10:41.9	5.650	-0.300	0.700	-0.190
2020/01/31 21:10:42.0	5.620	-0.310	0.730	-0.130
2020/01/31 21:10:42.1	5.580	-0.330	0.760	-0.080
2020/01/31 21:10:42.2	5.530	-0.330	0.770	-0.040
2020/01/31 21:10:42.3	5.490	-0.340	0.780	0.010
2020/01/31 21:10:42.4	5.450	-0.350	0.780	0.060
2020/01/31 21:10:42.5	5.410	-0.350	0.780	0.100
2020/01/31 21:10:42.6	5.360	-0.350	0.760	0.140
2020/01/31 21:10:42.7	5.320	-0.340	0.730	0.180
2020/01/31 21:10:42.8	5.290	-0.330	0.700	0.210
2020/01/31 21:10:42.9	5.250	-0.320	0.660	0.240
2020/01/31 21:10:43.0	5.220	-0.310	0.600	0.270
2020/01/31 21:10:43.1	5.180	-0.290	0.540	0.290
2020/01/31 21:10:43.2	5.160	-0.270	0.480	0.310
2020/01/31 21:10:43.3	5.130	-0.240	0.400	0.330
2020/01/31 21:10:43.4	5.100	-0.210	0.320	0.350
2020/01/31 21:10:43.5	5.080	-0.180	0.240	0.360
2020/01/31 21:10:43.6	5.060	-0.150	0.150	0.370
2020/01/31 21:10:43.7	5.050	-0.110	0.060	0.380
2020/01/31 21:10:43.8	5.030	-0.070	-0.040	0.390
2020/01/31 21:10:43.9	5.010	-0.030	-0.130	0.400
2020/01/31 21:10:44.0	5.000	0.020	-0.230	0.410
2020/01/31 21:10:44.1	4.990	0.060	-0.320	0.420
2020/01/31 21:10:44.2	4.980	0.110	-0.420	0.420
2020/01/31 21:10:44.3	4.970	0.160	-0.510	0.430
2020/01/31 21:10:44.4	4.970	0.200	-0.600	0.430
2020/01/31 21:10:44.5	4.960	0.250	-0.680	0.430
2020/01/31 21:10:44.6	4.960	0.290	-0.760	0.430
2020/01/31 21:10:44.7	4.960	0.330	-0.830	0.420
2020/01/31 21:10:44.8	4.960	0.370	-0.900	0.410
2020/01/31 21:10:44.9	4.960	0.400	-0.960	0.400
2020/01/31 21:10:45.0	4.960	0.440	-1.010	0.390
2020/01/31 21:10:45.1	4.970	0.470	-1.060	0.370
2020/01/31 21:10:45.2	4.970	0.490	-1.100	0.340
2020/01/31 21:10:45.3	4.980	0.510	-1.130	0.320
2020/01/31 21:10:45.4	4.990	0.530	-1.160	0.290
2020/01/31 21:10:45.5	5.000	0.540	-1.180	0.260
2020/01/31 21:10:45.6	5.010	0.540	-1.190	0.230
2020/01/31 21:10:45.7	5.020	0.540	-1.200	0.190
2020/01/31 21:10:45.8	5.040	0.540	-1.200	0.150
2020/01/31 21:10:45.9	5.060	0.530	-1.190	0.110
2020/01/31 21:10:46.0	5.080	0.520	-1.180	0.070
2020/01/31 21:10:46.1	5.100	0.500	-1.160	0.030
2020/01/31 21:10:46.2	5.120	0.470	-1.140	-0.010
2020/01/31 21:10:46.3	5.140	0.450	-1.110	-0.040
2020/01/31 21:10:46.4	5.150	0.420	-1.080	-0.080
2020/01/31 21:10:46.5	5.170	0.380	-1.040	-0.120
2020/01/31 21:10:46.6	5.190	0.340	-1.000	-0.150
2020/01/31 21:10:46.7	5.210	0.300	-0.960	-0.190
2020/01/31 21:10:46.8	5.230	0.260	-0.910	-0.220
2020/01/31 21:10:46.9	5.250	0.210	-0.860	-0.250
2020/01/31 21:10:47.0	5.270	0.170	-0.810	-0.280
2020/01/31 21:10:47.1	5.290	0.120	-0.760	-0.310
2020/01/31 21:10:47.2	5.310	0.070	-0.700	-0.340
2020/01/31 21:10:47.3	5.330	0.020	-0.640	-0.360
2020/01/31 21:10:47.4	5.340	-0.030	-0.580	-0.390
2020/01/31 21:10:47.5	5.360	-0.080	-0.530	-0.410
2020/01/31 21:10:47.6	5.380	-0.130	-0.470	-0.440
2020/01/31 21:10:47.7	5.400	-0.170	-0.410	-0.460
2020/01/31 21:10:47.8	5.420	-0.220	-0.350	-0.480
2020/01/31 21:10:47.9	5.430	-0.260	-0.290	-0.500
2020/01/31 21:10:48.0	5.450	-0.300	-0.230	-0.520
2020/01/31 21:10:48.1	5.470	-0.340	-0.170	-0.540
2020/01/31 21:10:48.2	5.480	-0.370	-0.120	-0.550
2020/01/31 21:10:48.3	5.500	-0.400	-0.060	-0.570
2020/01/31 21:10:48.4	5.510	-0.430	-0.010	-0.580
2020/01/31 21:10:48.5	5.530	-0.450	0.050	-0.580
2020/01/31 21:10:48.6	5.540	-0.470	0.100	-0.590
2020/01/31 21:10:48.7	5.560	-0.480	0.150	-0.590
2020/01/31 21:10:48.8	5.570	-0.490	0.200	-0.580
2020/01/31 21:10:48.9	5.560	-0.500	0.250	-0.570
2020/01/31 21:10:49.0	5.570	-0.500	0.300	-0.560
2020/01/31 21:10:49.1	5.580	-0.500	0.350	-0.540
2020/01/31 21:10:49.2	5.580	-0.490	0.390	-0.520
2020/01/31 21:10:49.3	5.580	-0.480	0.440	-0.490
2020/01/31 21:10:49.4	5.580	-0.460	0.480	-0.460
2020/01/31 21:10:49.5	5.580	-0.450	0.520	-0.420
2020/01/31 21:10:49.6	5.570	-0.430	0.560	-0.380
2020/01/31 21:10:49.7	5.560	-0.400	0.600	-0.340
2020/01/31 21:10:49.8	5.550	-0.380	0.640	-0.290
2020/01/31 21:10:49.9	5.520	-0.350	0.670	-0.240
2020/01/31 21:10:50.0	5.500	-0.320	0.700	-0.190
2020/01/31 21:10:50.1	5.480	-0.290	0.730	-0.130
2020/01/31 21:10:50.2	5.460	-0.260	0.750	-0.080
2020/01/31 21:10:50.3	5.430	-0.220	0.770	-0.020
2020/01/31 21:10:50.4	5.400	-0.190	0.790	0.040
2020/01/31 21:10:50.5	5.370	-0.160	0.800	0.100
2020/01/31 21:10:50.6	5.330	-0.130	0.800	0.160
2020/01/31 21:10:50.7	5.290	-0.090	0.800	0.210
2020/01/31 21:10:50.8	5.260	-0.060	0.800	0.270
2020/01/31 21:10:50.9	5.220	-0.030	0.780	0.330
2020/01/31 21:10:51.0	5.180	-0.000	0.770	0.380
2020/01/31 21:10:51.1	5.140	0.020	0.740	0.440
2020/01/31 21:10:51.2	5.110	0.050	0.710	0.490
2020/01/31 21:10:51.3	5.070	0.070	0.680	0.530
2020/01/31 21:10:51.4	5.030	0.100	0.630	0.580
2020/01/31 21:10:51.5	4.990	0.120	0.580	0.620
2020/01/31 21:10:51.6	4.950	0.140	0.530	0.660
2020/01/31 21:10:51.7	4.910	0.150	0.470	0.690
2020/01/31 21:10:51.8	4.870	0.170	0.400	0.720
2020/01/31 21:10:51.9	4.820	0.180	0.320	0.750
2020/01/31 21:10:52.0	4.790	0.190	0.250	0.770
2020/01/31 21:10:52.1	4.760	0.200	0.170	0.780
2020/01/31 21:10:52.2	4.730	0.210	0.080	0.790
2020/01/31 21:10:52.3	4.700	0.220	-0.010	0.790
2020/01/31 21:10:52.4	4.680	0.230	-0.100	0.790
2020/01/31 21:10:52.5	4.650	0.230	-0.200	0.780
2020/01/31 21:10:52.6	4.630	0.230	-0.290	0.760
2020/01/31 21:10:52.7	4.620	0.240	-0.390	0.740
2020/01/31 21:10:52.8	4.600	0.240	-0.490	0.720
2020/01/31 21:10:52.9	4.590	0.240	-0.580	0.680
2020/01/31 21:10:53.0	4.590	0.240	-0.680	0.650
2020/01/31 21:10:53.1	4.580	0.240	-0.770	0.600
2020/01/31 21:10:53.2	4.580	0.240	-0.860	0.560
2020/01/31 21:10:53.3	4.580	0.250	-0.950	0.510
2020/01/31 21:10:53.4	4.590	0.250	-1.030	0.460
2020/01/31 21:10:53.5	4.600	0.250	-1.100	0.400
2020/01/31 21:10:53.6	4.610	0.250	-1.180	0.340
2020/01/31 21:10:53.7	4.630	0.250	-1.240	0.270
2020/01/31 21:10:53.8	4.650	0.250	-1.300	0.210
2020/01/31 21:10:53.9	4.680	0.250	-1.350	0.140
2020/01/31 21:10:54.0	4.700	0.250	-1.400	0.070
2020/01/31 21:10:54.1	4.730	0.250	-1.440	0.000
2020/01/31 21:10:54.2	4.760	0.250	-1.470	-0.070
2020/01/31 21:10:54.3	4.800	0.250	-1.500	-0.140
2020/01/31 21:10:54.4	4.840	0.250	-1.510	-0.210
2020/01/31 21:10:54.5	4.880	0.250	-1.520	-0.290
2020/01/31 21:10:54.6	4.920	0.250	-1.530	-0.360
2020/01/31 21:10:54.7	4.960	0.240	-1.520	-0.430
2020/01/31 21:10:54.8	5.000	0.240	-1.510	-0.500
2020/01/31 21:10:54.9	5.050	0.230	-1.500	-0.560
2020/01/31 21:10:55.0	5.100	0.220	-1.470	-0.630
2020/01/31 21:10:55.1	5.140	0.220	-1.440	-0.690
2020/01/31 21:10:55.2	5.190	0.200	-1.410	-0.750
2020/01/31 21:10:55.3	5.230	0.190	-1.370	-0.800
2020/01/31 21:10:55.4	5.280	0.180	-1.320	-0.850
2020/01/31 21:10:55.5	5.320	0.160	-1.270	-0.900
2020/01/31 21:10:55.6	5.360	0.140	-1.220	-0.940
2020/01/31 21:10:55.7	5.400	0.120	-1.160	-0.980
2020/01/31 21:10:55.8	5.440	0.100	-1.100	-1.020
2020/01/31 21:10:55.9	5.470	0.080	-1.040	-1.040
2020/01/31 21:10:56.0	5.510	0.050	-0.970	-1.070
2020/01/31 21:10:56.1	5.550	0.030	-0.900	-1.090
2020/01/31 21:10:56.2	5.580	-0.000	-0.830	-1.110
2020/01/31 21:10:56.3	5.610	-0.030	-0.760	-1.120
2020/01/31 21:10:56.4	5.640	-0.060	-0.700	-1.120
2020/01/31 21:10:56.5	5.670	-0.080	-0.630	-1.130
2020/01/31 21:10:56.6	5.690	-0.110	-0.560	-1.130
2020/01/31 21:10:56.7	5.710	-0.140	-0.490	-1.130
2020/01/31 21:10:56.8	5.730	-0.170	-0.420	-1.120
2020/01/31 21:10:56.9	5.760	-0.200	-0.350	-1.110
2020/01/31 21:10:57.0	5.780	-0.220	-0.290	-1.100
2020/01/31 21:10:57.1	5.800	-0.250	-0.220	-1.090
2020/01/31 21:10:57.2	5.810	-0.270	-0.160	-1.070
2020/01/31 21:10:57.3	5.820	-0.290	-0.100	-1.050
2020/01/31 21:10:57.4	5.830	-0.310	-0.050	-1.030
2020/01/31 21:10:57.5	5.840	-0.330	0.010	-1.000
2020/01/31 21:10:57.6	5.840	-0.350	0.060	-0.970
2020/01/31 21:10:57.7	5.850	-0.360	0.110	-0.940
2020/01/31 21:10:57.8	5.850	-0.370	0.160	-0.900
2020/01/31 21:10:57.9	5.850	-0.380	0.210	-0.860
2020/01/31 21:10:58.0	5.830	-0.380	0.250	-0.810
2020/01/31 21:10:58.1	5.830	-0.380	0.290	-0.760
2020/01/31 21:10:58.2	5.820	-0.380	0.340	-0.710
2020/01/31 21:10:58.3	5.810	-0.380	0.370	-0.660
2020/01/31 21:10:58.4	5.790	-0.370	0.410	-0.600
2020/01/31 21:10:58.5	5.780	-0.360	0.440	-0.540
2020/01/31 21:10:58.6	5.760	-0.350	0.480	-0.480
2020/01/31 21:10:58.7	5.750	-0.330	0.500	-0.420
2020/01/31 21:10:58.8	5.730	-0.320	0.530	-0.360
2020/01/31 21:10:58.9	5.720	-0.300	0.560	-0.300
2020/01/31 21:10:59.0	5.700	-0.280	0.580	-0.230
2020/01/31 21:10:59.1	5.670	-0.250	0.600	-0.170
2020/01/31 21:10:59.2	5.650	-0.230	0.620	-0.100
2020/01/31 21:10:59.3	5.620	-0.210	0.630	-0.040
2020/01/31 21:10:59.4	5.600	-0.180	0.640	0.020
2020/01/31 21:10:59.5	5.570	-0.160	0.650	0.090
2020/01/31 21:10:59.6	5.540	-0.130	0.660	0.150
2020/01/31 21:10:59.7	5.510	-0.110	0.660	0.210
2020/01/31 21:10:59.8	5.480	-0.080	0.660	0.270
2020/01/31 21:10:59.9	5.450	-0.060	0.660	0.330
2020/01/31 21:11:00.0	5.420	-0.040	0.660	0.390
2020/01/31 21:11:00.1	5.380	-0.020	0.650	0.440
2020/01/31 21:11:00.2	5.350	0.000	0.640	0.490
2020/01/31 21:11:00.3	5.310	0.020	0.630	0.540
2020/01/31 21:11:00.4	5.280	0.030	0.610	0.590
2020/01/31 21:11:00.5	5.240	0.050	0.590	0.630
2020/01/31 21:11:00.6	5.200	0.060	0.580	0.670
2020/01/31 21:11:00.7	5.170	0.060	0.550	0.710
2020/01/31 21:11:00.8	5.130	0.070	0.530	0.740
2020/01/31 21:11:00.9	5.090	0.070	0.500	0.760
2020/01/31 21:11:01.0	5.050	0.070	0.480	0.780
2020/01/31 21:11:01.1	5.020	0.070	0.450	0.800
2020/01/31 21:11:01.2	4.990	0.060	0.410	0.810
2020/01/31 21:11:01.3	4.950	0.060	0.380	0.810
2020/01/31 21:11:01.4	4.920	0.050	0.350	0.810
2020/01/31 21:11:01.5	4.900	0.040	0.310	0.800
2020/01/31 21:11:01.6	4.870	0.030	0.270	0.780
2020/01/31 21:11:01.7	4.840	0.010	0.230	0.760
2020/01/31 21:11:01.8	4.820	0.000	0.180	0.740
2020/01/31 21:11:01.9	4.800	-0.010	0.140	0.710
2020/01/31 21:11:02.0	4.800	-0.020	0.090	0.670
2020/01/31 21:11:02.1	4.790	-0.040	0.040	0.640
2020/01/31 21:11:02.2	4.780	-0.050	-0.020	0.600
2020/01/31 21:11:02.3	4.770	-0.060	-0.070	0.550
2020/01/31 21:11:02.4	4.760	-0.070	-0.130	0.500
2020/01/31 21:11:02.5	4.760	-0.080	-0.180	0.450
2020/01/31 21:11:02.6	4.760	-0.090	-0.240	0.400
2020/01/31 21:11:02.7	4.760	-0.090	-0.300	0.350
2020/01/31 21:11:02.8	4.760	-0.090	-0.360	0.290
2020/01/31 21:11:02.9	4.770	-0.100	-0.420	0.240
2020/01/31 21:11:03.0	4.780	-0.090	-0.490	0.180
2020/01/31 21:11:03.1	4.790	-0.090	-0.550	0.120
2020/01/31 21:11:03.2	4.800	-0.080	-0.610	0.070
2020/01/31 21:11:03.3	4.820	-0.070	-0.670	0.010
2020/01/31 21:11:03.4	4.840	-0.060	-0.730	-0.050
2020/01/31 21:11:03.5	4.860	-0.050	-0.790	-0.100
2020/01/31 21:11:03.6	4.880	-0.030	-0.850	-0.160
2020/01/31 21:11:03.7	4.900	-0.010	-0.910	-0.220
2020/01/31 21:11:03.8	4.930	0.000	-0.960	-0.270
2020/01/31 21:11:03.9	4.950	0.020	-1.020	-0.330
2020/01/31 21:11:04.0	4.980	0.050	-1.070	-0.380
2020/01/31 21:11:04.1	5.000	0.070	-1.110	-0.440
2020/01/31 21:11:04.2	5.030	0.090	-1.160	-0.490
2020/01/31 21:11:04.3	5.060	0.110	-1.190	-0.540
2020/01/31 21:11:04.4	5.090	0.130	-1.230	-0.600
2020/01/31 21:11:04.5	5.120	0.160	-1.260	-0.650
2020/01/31 21:11:04.6	5.140	0.180	-1.280	-0.700
2020/01/31 21:11:04.7	5.170	0.200	-1.300	-0.740
2020/01/31 21:11:04.8	5.200	0.210	-1.320	-0.790
2020/01/31 21:11:04.9	5.230	0.230	-1.330	-0.830
2020/01/31 21:11:05.0	5.250	0.250	-1.330	-0.870
2020/01/31 21:11:05.1	5.280	0.260	-1.330	-0.910
2020/01/31 21:11:05.2	5.310	0.270	-1.320	-0.940
2020/01/31 21:11:05.3	5.340	0.280	-1.310	-0.970
2020/01/31 21:11:05.4	5.360	0.290	-1.290	-1.000
2020/01/31 21:11:05.5	5.390	0.300	-1.270	-1.020
2020/01/31 21:11:05.6	5.420	0.300	-1.240	-1.040
2020/01/31 21:11:05.7	5.450	0.300	-1.210	-1.060
2020/01/31 21:11:05.8	5.470	0.300	-1.170	-1.060
2020/01/31 21:11:05.9	5.490	0.300	-1.130	-1.070
2020/01/31 21:11:06.0	5.510	0.300	-1.080	-1.070
2020/01/31 21:11:06.1	5.530	0.290	-1.030	-1.060
2020/01/31 21:11:06.2	5.560	0.290	-0.970	-1.050
2020/01/31 21:11:06.3	5.580	0.280	-0.910	-1.030
2020/01/31 21:11:06.4	5.600	0.270	-0.850	-1.010
2020/01/31 21:11:06.5	5.620	0.250	-0.790	-0.980
2020/01/31 21:11:06.6	5.640	0.240	-0.720	-0.950
2020/01/31 21:11:06.7	5.650	0.230	-0.660	-0.920
2020/01/31 21:11:06.8	5.670	0.210	-0.590	-0.880
2020/01/31 21:11:06.9	5.680	0.200	-0.520	-0.840
2020/01/31 21:11:07.0	5.690	0.180	-0.450	-0.800
2020/01/31 21:11:07.1	5.710	0.170	-0.380	-0.760
2020/01/31 21:11:07.2	5.720	0.150	-0.310	-0.720
2020/01/31 21:11:07.3	5.730	0.140	-0.240	-0.670
2020/01/31 21:11:07.4	5.740	0.120	-0.170	-0.630
2020/01/31 21:11:07.5	5.750	0.110	-0.110	-0.580
2020/01/31 21:11:07.6	5.760	0.100	-0.040	-0.540
2020/01/31 21:11:07.7	5.770	0.080	0.020	-0.490
2020/01/31 21:11:07.8	5.780	0.070	0.070	-0.450
2020/01/31 21:11:07.9	5.790	0.060	0.130	-0.410
2020/01/31 21:11:08.0	5.790	0.060	0.180	-0.360
2020/01/31 21:11:08.1	5.800	0.050	0.230	-0.320
2020/01/31 21:11:08.2	5.810	0.040	0.270	-0.280
2020/01/31 21:11:08.3	5.810	0.040	0.310	-0.240
2020/01/31 21:11:08.4	5.810	0.040	0.350	-0.200
2020/01/31 21:11:08.5	5.810	0.030	0.380	-0.160
2020/01/31 21:11:08.6	5.810	0.030	0.410	-0.120
2020/01/31 21:11:08.7	5.810	0.030	0.440	-0.080
2020/01/31 21:11:08.8	5.800	0.030	0.460	-0.040
2020/01/31 21:11:08.9	5.810	0.030	0.470	0.010
2020/01/31 21:11:09.0	5.800	0.030	0.490	0.050
2020/01/31 21:11:09.1	5.790	0.030	0.500	0.090
2020/01/31 21:11:09.2	5.780	0.030	0.510	0.120
2020/01/31 21:11:09.3	5.760	0.030	0.510	0.160
2020/01/31 21:11:09.4	5.740	0.030	0.510	0.200
2020/01/31 21:11:09.5	5.720	0.030	0.510	0.230
2020/01/31 21:11:09.6	5.700	0.030	0.500	0.270
2020/01/31 21:11:09.7	5.680	0.020	0.490	0.300
2020/01/31 21:11:09.8	5.660	0.020	0.480	0.330
2020/01/31 21:11:09.9	5.640	0.010	0.460	0.360
2020/01/31 21:11:10.0	5.610	0.010	0.440	0.380
2020/01/31 21:11:10.1	5.590	-0.000	0.410	0.400
2020/01/31 21:11:10.2	5.560	-0.010	0.390	0.420
2020/01/31 21:11:10.3	5.540	-0.020	0.350	0.430
2020/01/31 21:11:10.4	5.520	-0.030	0.320	0.440
2020/01/31 21:11:10.5	5.500	-0.050	0.280	0.440
2020/01/31 21:11:10.6	5.480	-0.060	0.240	0.440
2020/01/31 21:11:10.7	5.460	-0.080	0.200	0.430
2020/01/31 21:11:10.8	5.440	-0.090	0.160	0.420
2020/01/31 21:11:10.9	5.420	-0.110	0.110	0.400
2020/01/31 21:11:11.0	5.420	-0.130	0.070	0.380
2020/01/31 21:11:11.1	5.410	-0.150	0.020	0.360
2020/01/31 21:11:11.2	5.400	-0.170	-0.030	0.330
2020/01/31 21:11:11.3	5.390	-0.180	-0.070	0.290
2020/01/31 21:11:11.4	5.380	-0.200	-0.120	0.260
2020/01/31 21:11:11.5	5.370	-0.220	-0.160	0.220
2020/01/31 21:11:11.6	5.370	-0.240	-0.210	0.180
2020/01/31 21:11:11.7	5.360	-0.260	-0.250	0.140
2020/01/31 21:11:11.8	5.360	-0.270	-0.290	0.100
2020/01/31 21:11:11.9	5.370	-0.290	-0.320	0.060
2020/01/31 21:11:12.0	5.370	-0.300	-0.350	0.010
2020/01/31 21:11:12.1	5.370	-0.320	-0.380	-0.030
2020/01/31 21:11:12.2	5.370	-0.330	-0.410	-0.070
2020/01/31 21:11:12.3	5.370	-0.340	-0.440	-0.110
2020/01/31 21:11:12.4	5.370	-0.350	-0.460	-0.150
2020/01/31 21:11:12.5	5.370	-0.350	-0.470	-0.190
2020/01/31 21:11:12.6	5.370	-0.360	-0.490	-0.230
2020/01/31 21:11:12.7	5.370	-0.360	-0.490	-0.260
2020/01/31 21:11:12.8	5.370	-0.360	-0.500	-0.290
2020/01/31 21:11:12.9	5.380	-0.360	-0.500	-0.330
2020/01/31 21:11:13.0	5.380	-0.360	-0.500	-0.350
2020/01/31 21:11:13.1	5.380	-0.350	-0.500	-0.380
2020/01/31 21:11:13.2	5.380	-0.340	-0.490	-0.400
2020/01/31 21:11:13.3	5.380	-0.330	-0.490	-0.420
2020/01/31 21:11:13.4	5.380	-0.320	-0.480	-0.430
2020/01/31 21:11:13.5	5.380	-0.300	-0.470	-0.440
2020/01/31 21:11:13.6	5.380	-0.280	-0.450	-0.450
2020/01/31 21:11:13.7	5.380	-0.260	-0.440	-0.460
2020/01/31 21:11:13.8	5.380	-0.240	-0.430	-0.460
2020/01/31 21:11:13.9	5.380	-0.210	-0.410	-0.450
2020/01/31 21:11:14.0	5.380	-0.190	-0.400	-0.450
2020/01/31 21:11:14.1	5.380	-0.160	-0.390	-0.440
2020/01/31 21:11:14.2	5.380	-0.130	-0.370	-0.430
2020/01/31 21:11:14.3	5.380	-0.100	-0.360	-0.410
2020/01/31 21:11:14.4	5.370	-0.060	-0.350	-0.400
2020/01/31 21:11:14.5	5.370	-0.030	-0.330	-0.380
2020/01/31 21:11:14.6	5.370	0.010	-0.320	-0.350
2020/01/31 21:11:14.7	5.370	0.040	-0.310	-0.330
2020/01/31 21:11:14.8	5.370	0.070	-0.300	-0.300
2020/01/31 21:11:14.9	5.360	0.110	-0.300	-0.280
2020/01/31 21:11:15.0	5.360	0.140	-0.290	-0.250
2020/01/31 21:11:15.1	5.350	0.170	-0.280	-0.220
2020/01/31 21:11:15.2	5.350	0.200	-0.280	-0.200
2020/01/31 21:11:15.3	5.350	0.230	-0.270	-0.170
2020/01/31 21:11:15.4	5.350	0.260	-0.270	-0.150
2020/01/31 21:11:15.5	5.350	0.290	-0.270	-0.130
2020/01/31 21:11:15.6	5.350	0.310	-0.270	-0.100
2020/01/31 21:11:15.7	5.350	0.330	-0.270	-0.080
2020/01/31 21:11:15.8	5.360	0.340	-0.270	-0.070
2020/01/31 21:11:15.9	5.360	0.360	-0.270	-0.050
2020/01/31 21:11:16.0	5.360	0.370	-0.270	-0.040
2020/01/31 21:11:16.1	5.370	0.380	-0.270	-0.020
2020/01/31 21:11:16.2	5.370	0.380	-0.270	-0.010
2020/01/31 21:11:16.3	5.380	0.380	-0.270	0.000
2020/01/31 21:11:16.4	5.390	0.380	-0.270	0.010
2020/01/31 21:11:16.5	5.400	0.370	-0.270	0.020
2020/01/31 21:11:16.6	5.410	0.360	-0.270	0.030
2020/01/31 21:11:16.7	5.420	0.350	-0.270	0.040
2020/01/31 21:11:16.8	5.440	0.340	-0.270	0.050
2020/01/31 21:11:16.9	5.450	0.320	-0.270	0.060
2020/01/31 21:11:17.0	5.460	0.300	-0.270	0.070
2020/01/31 21:11:17.1	5.470	0.280	-0.270	0.080
2020/01/31 21:11:17.2	5.490	0.250	-0.270	0.080
2020/01/31 21:11:17.3	5.500	0.220	-0.270	0.090
2020/01/31 21:11:17.4	5.510	0.200	-0.270	0.090
2020/01/31 21:11:17.5	5.520	0.170	-0.270	0.090
2020/01/31 21:11:17.6	5.540	0.130	-0.270	0.090
2020/01/31 21:11:17.7	5.550	0.100	-0.270	0.090
2020/01/31 21:11:17.8	5.560	0.070	-0.270	0.080
2020/01/31 21:11:17.9	5.570	0.040	-0.270	0.070
2020/01/31 21:11:18.0	5.570	0.000	-0.280	0.070
2020/01/31 21:11:18.1	5.580	-0.030	-0.280	0.060
2020/01/31 21:11:18.2	5.590	-0.060	-0.280	0.040
2020/01/31 21:11:18.3	5.600	-0.090	-0.290	0.030
2020/01/31 21:11:18.4	5.600	-0.120	-0.300	0.010
2020/01/31 21:11:18.5	5.610	-0.140	-0.300	-0.000
2020/01/31 21:11:18.6	5.610	-0.170	-0.310	-0.020
2020/01/31 21:11:18.7	5.620	-0.190	-0.320	-0.030
2020/01/31 21:11:18.8	5.620	-0.210	-0.320	-0.050
2020/01/31 21:11:18.9	5.620	-0.220	-0.330	-0.070
2020/01/31 21:11:19.0	5.630	-0.240	-0.340	-0.080
2020/01/31 21:11:19.1	5.620	-0.240	-0.340	-0.100
2020/01/31 21:11:19.2	5.620	-0.250	-0.350	-0.110
2020/01/31 21:11:19.3	5.620	-0.250	-0.360	-0.120
2020/01/31 21:11:19.4	5.610	-0.250	-0.370	-0.130
2020/01/31 21:11:19.5	5.600	-0.250	-0.380	-0.140
2020/01/31 21:11:19.6	5.590	-0.240	-0.390	-0.150
2020/01/31 21:11:19.7	5.580	-0.230	-0.400	-0.160
2020/01/31 21:11:19.8	5.570	-0.220	-0.410	-0.160
2020/01/31 21:11:19.9	5.550	-0.210	-0.420	-0.170
2020/01/31 21:11:20.0	5.540	-0.190	-0.430	-0.170
2020/01/31 21:11:20.1	5.530	-0.160	-0.440	-0.170
2020/01/31 21:11:20.2	5.510	-0.140	-0.450	-0.170
2020/01/31 21:11:20.3	5.500	-0.110	-0.460	-0.170
2020/01/31 21:11:20.4	5.490	-0.090	-0.470	-0.170
2020/01/31 21:11:20.5	5.480	-0.060	-0.480	-0.170
2020/01/31 21:11:20.6	5.470	-0.030	-0.490	-0.170
2020/01/31 21:11:20.7	5.460	0.010	-0.500	-0.170
2020/01/31 21:11:20.8	5.460	0.040	-0.510	-0.170
2020/01/31 21:11:20.9	5.440	0.070	-0.510	-0.170
2020/01/31 21:11:21.0	5.440	0.110	-0.520	-0.170
2020/01/31 21:11:21.1	5.440	0.140	-0.530	-0.170
2020/01/31 21:11:21.2	5.440	0.180	-0.540	-0.170
2020/01/31 21:11:21.3	5.440	0.210	-0.550	-0.170
2020/01/31 21:11:21.4	5.440	0.240	-0.550	-0.180
2020/01/31 21:11:21.5	5.450	0.280	-0.560	-0.180
2020/01/31 21:11:21.6	5.460	0.310	-0.560	-0.180
2020/01/31 21:11:21.7	5.460	0.330	-0.560	-0.180
2020/01/31 21:11:21.8	5.470	0.360	-0.560	-0.180
2020/01/31 21:11:21.9	5.480	0.380	-0.550	-0.170
2020/01/31 21:11:22.0	5.510	0.400	-0.550	-0.170
2020/01/31 21:11:22.1	5.520	0.420	-0.530	-0.170
2020/01/31 21:11:22.2	5.530	0.440	-0.520	-0.160
2020/01/31 21:11:22.3	5.540	0.450	-0.500	-0.160
2020/01/31 21:11:22.4	5.560	0.460	-0.480	-0.150
2020/01/31 21:11:22.5	5.570	0.470	-0.460	-0.140
2020/01/31 21:11:22.6	5.580	0.470	-0.430	-0.130
2020/01/31 21:11:22.7	5.600	0.460	-0.400	-0.120
2020/01/31 21:11:22.8	5.610	0.460	-0.360	-0.110
2020/01/31 21:11:22.9	5.620	0.450	-0.330	-0.090
2020/01/31 21:11:23.0	5.640	0.430	-0.290	-0.080
2020/01/31 21:11:23.1	5.650	0.410	-0.250	-0.070
2020/01/31 21:11:23.2	5.660	0.390	-0.200	-0.060
2020/01/31 21:11:23.3	5.670	0.360	-0.160	-0.050
2020/01/31 21:11:23.4	5.680	0.330	-0.110	-0.040
2020/01/31 21:11:23.5	5.680	0.300	-0.060	-0.030
2020/01/31 21:11:23.6	5.690	0.260	-0.010	-0.030
2020/01/31 21:11:23.7	5.700	0.220	0.040	-0.020
2020/01/31 21:11:23.8	5.700	0.170	0.090	-0.020
2020/01/31 21:11:23.9	5.700	0.130	0.140	-0.010
2020/01/31 21:11:24.0	5.700	0.080	0.190	-0.010
2020/01/31 21:11:24.1	5.700	0.020	0.230	-0.010
2020/01/31 21:11:24.2	5.700	-0.030	0.280	-0.010
2020/01/31 21:11:24.3	5.690	-0.080	0.320	-0.010
2020/01/31 21:11:24.4	5.680	-0.140	0.360	-0.010
2020/01/31 21:11:24.5	5.670	-0.190	0.400	-0.010
2020/01/31 21:11:24.6	5.660	-0.240	0.430	-0.010
2020/01/31 21:11:24.7	5.650	-0.300	0.460	-0.010
2020/01/31 21:11:24.8	5.630	-0.350	0.480	-0.010
2020/01/31 21:11:24.9	5.620	-0.400	0.500	-0.010
2020/01/31 21:11:25.0	5.610	-0.440	0.510	-0.010
2020/01/31 21:11:25.1	5.590	-0.490	0.520	-0.020
2020/01/31 21:11:25.2	5.580	-0.530	0.520	-0.020
2020/01/31 21:11:25.3	5.570	-0.560	0.520	-0.030
2020/01/31 21:11:25.4	5.560	-0.590	0.500	-0.030
2020/01/31 21:11:25.5	5.550	-0.620	0.490	-0.040
2020/01/31 21:11:25.6	5.540	-0.640	0.460	-0.060
2020/01/31 21:11:25.7	5.540	-0.660	0.430	-0.070
2020/01/31 21:11:25.8	5.540	-0.670	0.390	-0.090
2020/01/31 21:11:25.9	5.550	-0.670	0.340	-0.110
2020/01/31 21:11:26.0	5.550	-0.670	0.280	-0.130
2020/01/31 21:11:26.1	5.560	-0.660	0.230	-0.160
2020/01/31 21:11:26.2	5.570	-0.650	0.160	-0.190
2020/01/31 21:11:26.3	5.580	-0.630	0.090	-0.220
2020/01/31 21:11:26.4	5.590	-0.600	0.010	-0.250
2020/01/31 21:11:26.5	5.610	-0.570	-0.060	-0.280
2020/01/31 21:11:26.6	5.620	-0.530	-0.140	-0.310
2020/01/31 21:11:26.7	5.640	-0.480	-0.220	-0.340
2020/01/31 21:11:26.8	5.660	-0.430	-0.300	-0.370
2020/01/31 21:11:26.9	5.680	-0.380	-0.380	-0.400
2020/01/31 21:11:27.0	5.690	-0.320	-0.460	-0.420
2020/01/31 21:11:27.1	5.710	-0.260	-0.530	-0.430
2020/01/31 21:11:27.2	5.720	-0.200	-0.590	-0.450
2020/01/31 21:11:27.3	5.730	-0.140	-0.660	-0.460
2020/01/31 21:11:27.4	5.740	-0.070	-0.710	-0.460
2020/01/31 21:11:27.5	5.750	-0.010	-0.760	-0.470
2020/01/31 21:11:27.6	5.750	0.060	-0.800	-0.470
2020/01/31 21:11:27.7	5.750	0.120	-0.830	-0.460
2020/01/31 21:11:27.8	5.750	0.180	-0.860	-0.460
2020/01/31 21:11:27.9	5.750	0.240	-0.870	-0.450
2020/01/31 21:11:28.0	5.740	0.300	-0.880	-0.430
2020/01/31 21:11:28.1	5.730	0.350	-0.880	-0.420
2020/01/31 21:11:28.2	5.720	0.400	-0.880	-0.400
2020/01/31 21:11:28.3	5.700	0.440	-0.860	-0.380
2020/01/31 21:11:28.4	5.680	0.480	-0.840	-0.350
2020/01/31 21:11:28.5	5.660	0.510	-0.810	-0.330
2020/01/31 21:11:28.6	5.640	0.540	-0.770	-0.300
2020/01/31 21:11:28.7	5.610	0.560	-0.720	-0.280
2020/01/31 21:11:28.8	5.590	0.570	-0.670	-0.250
2020/01/31 21:11:28.9	5.560	0.580	-0.620	-0.220
2020/01/31 21:11:29.0	5.530	0.590	-0.560	-0.190
2020/01/31 21:11:29.1	5.490	0.590	-0.490	-0.160
2020/01/31 21:11:29.2	5.460	0.580	-0.420	-0.130
2020/01/31 21:11:29.3	5.430	0.560	-0.350	-0.100
2020/01/31 21:11:29.4	5.400	0.550	-0.280	-0.070
2020/01/31 21:11:29.5	5.370	0.520	-0.210	-0.040
2020/01/31 21:11:29.6	5.340	0.490	-0.140	-0.010
2020/01/31 21:11:29.7	5.300	0.460	-0.070	0.020
2020/01/31 21:11:29.8	5.280	0.430	0.000	0.040
2020/01/31 21:11:29.9	5.250	0.390	0.070	0.070
2020/01/31 21:11:30.0	5.220	0.350	0.130	0.090
2020/01/31 21:11:30.1	5.200	0.310	0.190	0.120
2020/01/31 21:11:30.2	5.180	0.260	0.240	0.140
2020/01/31 21:11:30.3	5.160	0.220	0.290	0.160
2020/01/31 21:11:30.4	5.150	0.170	0.330	0.180
2020/01/31 21:11:30.5	5.140	0.130	0.360	0.190
2020/01/31 21:11:30.6	5.130	0.080	0.390	0.200
2020/01/31 21:11:30.7	5.120	0.040	0.410	0.210
2020/01/31 21:11:30.8	5.120	-0.010	0.420	0.220
2020/01/31 21:11:30.9	5.120	-0.050	0.420	0.220
2020/01/31 21:11:31.0	5.120	-0.090	0.410	0.220
2020/01/31 21:11:31.1	5.130	-0.120	0.400	0.210
2020/01/31 21:11:31.2	5.140	-0.150	0.370	0.200
2020/01/31 21:11:31.3	5.150	-0.180	0.340	0.180
2020/01/31 21:11:31.4	5.170	-0.210	0.300	0.170
2020/01/31 21:11:31.5	5.190	-0.230	0.240	0.140
2020/01/31 21:11:31.6	5.210	-0.250	0.190	0.120
2020/01/31 21:11:31.7	5.230	-0.270	0.120	0.090
2020/01/31 21:11:31.8	5.250	-0.280	0.050	0.060
2020/01/31 21:11:31.9	5.270	-0.290	-0.020	0.030
2020/01/31 21:11:32.0	5.280	-0.290	-0.110	-0.010
2020/01/31 21:11:32.1	5.310	-0.290	-0.190	-0.040
2020/01/31 21:11:32.2	5.330	-0.280	-0.280	-0.070
2020/01/31 21:11:32.3	5.350	-0.280	-0.370	-0.110
2020/01/31 21:11:32.4	5.380	-0.260	-0.460	-0.140
2020/01/31 21:11:32.5	5.400	-0.250	-0.540	-0.170
2020/01/31 21:11:32.6	5.420	-0.230	-0.630	-0.190
2020/01/31 21:11:32.7	5.440	-0.210	-0.720	-0.220
2020/01/31 21:11:32.8	5.460	-0.190	-0.800	-0.250
2020/01/31 21:11:32.9	5.480	-0.170	-0.880	-0.270
2020/01/31 21:11:33.0	5.490	-0.140	-0.950	-0.290
2020/01/31 21:11:33.1	5.510	-0.120	-1.020	-0.310
2020/01/31 21:11:33.2	5.520	-0.090	-1.090	-0.330
2020/01/31 21:11:33.3	5.540	-0.070	-1.150	-0.350
2020/01/31 21:11:33.4	5.550	-0.040	-1.200	-0.370
2020/01/31 21:11:33.5	5.560	-0.010	-1.240	-0.390
2020/01/31 21:11:33.6	5.570	0.010	-1.280	-0.400
2020/01/31 21:11:33.7	5.580	0.030	-1.310	-0.420
2020/01/31 21:11:33.8	5.590	0.060	-1.340	-0.430
2020/01/31 21:11:33.9	5.610	0.080	-1.350	-0.450
2020/01/31 21:11:34.0	5.610	0.100	-1.360	-0.460
2020/01/31 21:11:34.1	5.620	0.120	-1.360	-0.470
2020/01/31 21:11:34.2	5.630	0.130	-1.350	-0.490
2020/01/31 21:11:34.3	5.630	0.150	-1.330	-0.500
2020/01/31 21:11:34.4	5.640	0.160	-1.310	-0.510
2020/01/31 21:11:34.5	5.650	0.170	-1.280	-0.520
2020/01/31 21:11:34.6	5.650	0.170	-1.240	-0.530
2020/01/31 21:11:34.7	5.650	0.180	-1.200	-0.530
2020/01/31 21:11:34.8	5.660	0.180	-1.150	-0.540
2020/01/31 21:11:34.9	5.660	0.180	-1.100	-0.540
2020/01/31 21:11:35.0	5.660	0.180	-1.040	-0.540
2020/01/31 21:11:35.1	5.670	0.170	-0.970	-0.540
2020/01/31 21:11:35.2	5.670	0.170	-0.900	-0.540
2020/01/31 21:11:35.3	5.670	0.160	-0.830	-0.540
2020/01/31 21:11:35.4	5.670	0.150	-0.750	-0.530
2020/01/31 21:11:35.5	5.680	0.130	-0.670	-0.520
2020/01/31 21:11:35.6	5.680	0.120	-0.590	-0.520
2020/01/31 21:11:35.7	5.680	0.100	-0.500	-0.510
2020/01/31 21:11:35.8	5.690	0.090	-0.420	-0.500
2020/01/31 21:11:35.9	5.690	0.070	-0.330	-0.490
2020/01/31 21:11:36.0	5.700	0.050	-0.240	-0.480
2020/01/31 21:11:36.1	5.700	0.030	-0.150	-0.470
2020/01/31 21:11:36.2	5.710	0.010	-0.070	-0.460
2020/01/31 21:11:36.3	5.720	-0.010	0.010	-0.450
2020/01/31 21:11:36.4	5.730	-0.030	0.100	-0.450
2020/01/31 21:11:36.5	5.740	-0.050	0.170	-0.440
2020/01/31 21:11:36.6	5.760	-0.070	0.250	-0.440
2020/01/31 21:11:36.7	5.770	-0.090	0.320	-0.430
2020/01/31 21:11:36.8	5.790	-0.110	0.380	-0.430
2020/01/31 21:11:36.9	5.790	-0.130	0.440	-0.420
2020/01/31 21:11:37.0	5.810	-0.150	0.500	-0.420
2020/01/31 21:11:37.1	5.820	-0.170	0.550	-0.410
2020/01/31 21:11:37.2	5.840	-0.190	0.600	-0.400
2020/01/31 21:11:37.3	5.850	-0.200	0.640	-0.390
2020/01/31 21:11:37.4	5.860	-0.220	0.680	-0.380
2020/01/31 21:11:37.5	5.860	-0.240	0.710	-0.370
2020/01/31 21:11:37.6	5.860	-0.250	0.740	-0.350
2020/01/31 21:11:37.7	5.870	-0.270	0.760	-0.330
2020/01/31 21:11:37.8	5.860	-0.280	0.780	-0.310
2020/01/31 21:11:37.9	5.860	-0.290	0.790	-0.290
2020/01/31 21:11:38.0	5.850	-0.300	0.810	-0.260
2020/01/31 21:11:38.1	5.840	-0.310	0.820	-0.230
2020/01/31 21:11:38.2	5.830	-0.320	0.820	-0.200
2020/01/31 21:11:38.3	5.810	-0.330	0.820	-0.160
2020/01/31 21:11:38.4	5.790	-0.340	0.820	-0.130
2020/01/31 21:11:38.5	5.770	-0.340	0.810	-0.090
2020/01/31 21:11:38.6	5.750	-0.350	0.800	-0.050
2020/01/31 21:11:38.7	5.720	-0.350	0.790	-0.010
2020/01/31 21:11:38.8	5.690	-0.350	0.770	0.040
2020/01/31 21:11:38.9	5.670	-0.340	0.750	0.080
2020/01/31 21:11:39.0	5.640	-0.340	0.730	0.130
2020/01/31 21:11:39.1	5.610	-0.330	0.700	0.180
2020/01/31 21:11:39.2	5.580	-0.320	0.670	0.220
2020/01/31 21:11:39.3	5.550	-0.310	0.630	0.270
2020/01/31 21:11:39.4	5.520	-0.300	0.590	0.320
2020/01/31 21:11:39.5	5.490	-0.280	0.540	0.360
2020/01/31 21:11:39.6	5.460	-0.260	0.490	0.410
2020/01/31 21:11:39.7	5.430	-0.240	0.430	0.450
2020/01/31 21:11:39.8	5.410	-0.220	0.380	0.490
2020/01/31 21:11:39.9	5.380	-0.190	0.310	0.530
2020/01/31 21:11:40.0	5.360	-0.160	0.240	0.570
2020/01/31 21:11:40.1	5.330	-0.130	0.170	0.610
2020/01/31 21:11:40.2	5.310	-0.100	0.100	0.640
2020/01/31 21:11:40.3	5.280	-0.060	0.030	0.670
2020/01/31 21:11:40.4	5.260	-0.030	-0.050	0.700
2020/01/31 21:11:40.5	5.240	0.010	-0.120	0.730
2020/01/31 21:11:40.6	5.210	0.050	-0.200	0.750
2020/01/31 21:11:40.7	5.190	0.090	-0.280	0.780
2020/01/31 21:11:40.8	5.170	0.130	-0.350	0.800
2020/01/31 21:11:40.9	5.140	0.180	-0.420	0.820
2020/01/31 21:11:41.0	5.120	0.220	-0.490	0.830
2020/01/31 21:11:41.1	5.090	0.260	-0.560	0.850
2020/01/31 21:11:41.2	5.070	0.300	-0.620	0.860
2020/01/31 21:11:41.3	5.050	0.340	-0.680	0.870
2020/01/31 21:11:41.4	5.030	0.380	-0.730	0.890
2020/01/31 21:11:41.5	5.010	0.420	-0.780	0.890
2020/01/31 21:11:41.6	4.990	0.460	-0.830	0.900
2020/01/31 21:11:41.7	4.980	0.490	-0.870	0.900
2020/01/31 21:11:41.8	4.960	0.530	-0.900	0.900
2020/01/31 21:11:41.9	4.940	0.560	-0.930	0.900
2020/01/31 21:11:42.0	4.940	0.580	-0.960	0.900
2020/01/31 21:11:42.1	4.930	0.610	-0.980	0.890
2020/01/31 21:11:42.2	4.920	0.630	-0.990	0.880
2020/01/31 21:11:42.3	4.910	0.650	-1.000	0.860
2020/01/31 21:11:42.4	4.900	0.660	-1.010	0.840
2020/01/31 21:11:42.5	4.900	0.670	-1.010	0.820
2020/01/31 21:11:42.6	4.890	0.680	-1.010	0.800
2020/01/31 21:11:42.7	4.890	0.680	-1.000	0.770
2020/01/31 21:11:42.8	4.890	0.680	-0.990	0.730
2020/01/31 21:11:42.9	4.900	0.680	-0.980	0.690
2020/01/31 21:11:43.0	4.900	0.670	-0.960	0.650
2020/01/31 21:11:43.1	4.910	0.660	-0.940	0.600
2020/01/31 21:11:43.2	4.920	0.640	-0.920	0.550
2020/01/31 21:11:43.3	4.930	0.620	-0.900	0.500
2020/01/31 21:11:43.4	4.940	0.600	-0.870	0.440
2020/01/31 21:11:43.5	4.950	0.570	-0.850	0.380
2020/01/31 21:11:43.6	4.960	0.540	-0.820	0.320
2020/01/31 21:11:43.7	4.970	0.500	-0.800	0.250
2020/01/31 21:11:43.8	4.990	0.470	-0.770	0.180
2020/01/31 21:11:43.9	5.020	0.430	-0.740	0.110
2020/01/31 21:11:44.0	5.030	0.390	-0.720	0.040
2020/01/31 21:11:44.1	5.060	0.340	-0.690	-0.030
2020/01/31 21:11:44.2	5.080	0.300	-0.660	-0.110
2020/01/31 21:11:44.3	5.110	0.250	-0.640	-0.180
2020/01/31 21:11:44.4	5.130	0.210	-0.610	-0.260
2020/01/31 21:11:44.5	5.160	0.160	-0.590	-0.330
2020/01/31 21:11:44.6	5.190	0.110	-0.570	-0.410
2020/01/31 21:11:44.7	5.230	0.060	-0.550	-0.490
2020/01/31 21:11:44.8	5.260	0.010	-0.530	-0.560
2020/01/31 21:11:44.9	5.300	-0.030	-0.510	-0.640
2020/01/31 21:11:45.0	5.340	-0.080	-0.490	-0.720
2020/01/31 21:11:45.1	5.380	-0.120	-0.480	-0.790
2020/01/31 21:11:45.2	5.430	-0.170	-0.470	-0.860
2020/01/31 21:11:45.3	5.470	-0.210	-0.460	-0.930
2020/01/31 21:11:45.4	5.520	-0.240	-0.450	-1.000
2020/01/31 21:11:45.5	5.570	-0.280	-0.440	-1.070
2020/01/31 21:11:45.6	5.620	-0.310	-0.440	-1.130
2020/01/31 21:11:45.7	5.670	-0.350	-0.440	-1.190
2020/01/31 21:11:45.8	5.720	-0.370	-0.440	-1.250
2020/01/31 21:11:45.9	5.780	-0.400	-0.440	-1.300
2020/01/31 21:11:46.0	5.810	-0.420	-0.440	-1.360
2020/01/31 21:11:46.1	5.860	-0.440	-0.440	-1.400
2020/01/31 21:11:46.2	5.910	-0.450	-0.440	-1.450
2020/01/31 21:11:46.3	5.960	-0.460	-0.440	-1.480
2020/01/31 21:11:46.4	6.010	-0.470	-0.450	-1.520
2020/01/31 21:11:46.5	6.050	-0.480	-0.440	-1.540
2020/01/31 21:11:46.6	6.090	-0.480	-0.440	-1.560
2020/01/31 21:11:46.7	6.140	-0.480	-0.440	-1.580
2020/01/31 21:11:46.8	6.170	-0.480	-0.430	-1.580
2020/01/31 21:11:46.9	6.180	-0.470	-0.420	-1.590
2020/01/31 21:11:47.0	6.210	-0.470	-0.410	-1.580
2020/01/31 21:11:47.1	6.240	-0.460	-0.390	-1.570
2020/01/31 21:11:47.2	6.270	-0.440	-0.370	-1.550
2020/01/31 21:11:47.3	6.290	-0.430	-0.350	-1.530
2020/01/31 21:11:47.4	6.300	-0.420	-0.320	-1.500
2020/01/31 21:11:47.5	6.320	-0.400	-0.290	-1.470
2020/01/31 21:11:47.6	6.320	-0.390	-0.260	-1.430
2020/01/31 21:11:47.7	6.330	-0.370	-0.220	-1.380
2020/01/31 21:11:47.8	6.330	-0.350	-0.180	-1.330
2020/01/31 21:11:47.9	6.310	-0.330	-0.140	-1.270
2020/01/31 21:11:48.0	6.300	-0.320	-0.090	-1.200
2020/01/31 21:11:48.1	6.290	-0.300	-0.040	-1.130
2020/01/31 21:11:48.2	6.270	-0.290	0.010	-1.060
2020/01/31 21:11:48.3	6.250	-0.270	0.060	-0.980
2020/01/31 21:11:48.4	6.230	-0.260	0.110	-0.900
2020/01/31 21:11:48.5	6.200	-0.250	0.160	-0.820
2020/01/31 21:11:48.6	6.170	-0.240	0.210	-0.730
2020/01/31 21:11:48.7	6.140	-0.230	0.260	-0.650
2020/01/31 21:11:48.8	6.110	-0.220	0.310	-0.560
2020/01/31 21:11:48.9	6.070	-0.210	0.360	-0.470
2020/01/31 21:11:49.0	6.040	-0.200	0.400	-0.380
2020/01/31 21:11:49.1	6.000	-0.200	0.440	-0.300
2020/01/31 21:11:49.2	5.960	-0.200	0.480	-0.220
2020/01/31 21:11:49.3	5.920	-0.190	0.510	-0.140
2020/01/31 21:11:49.4	5.870	-0.190	0.540	-0.060
2020/01/31 21:11:49.5	5.830	-0.190	0.570	0.010
2020/01/31 21:11:49.6	5.790	-0.190	0.590	0.070
2020/01/31 21:11:49.7	5.750	-0.190	0.610	0.130
2020/01/31 21:11:49.8	5.710	-0.200	0.620	0.190
2020/01/31 21:11:49.9	5.690	-0.200	0.630	0.240
2020/01/31 21:11:50.0	5.650	-0.200	0.630	0.280
2020/01/31 21:11:50.1	5.610	-0.200	0.630	0.320
2020/01/31 21:11:50.2	5.580	-0.200	0.620	0.360
2020/01/31 21:11:50.3	5.540	-0.200	0.610	0.390
2020/01/31 21:11:50.4	5.510	-0.200	0.590	0.420
2020/01/31 21:11:50.5	5.470	-0.190	0.570	0.440
2020/01/31 21:11:50.6	5.440	-0.190	0.550	0.460
2020/01/31 21:11:50.7	5.410	-0.180	0.520	0.470
2020/01/31 21:11:50.8	5.380	-0.180	0.490	0.480
2020/01/31 21:11:50.9	5.350	-0.170	0.450	0.490
2020/01/31 21:11:51.0	5.320	-0.160	0.410	0.500
2020/01/31 21:11:51.1	5.300	-0.150	0.370	0.500
2020/01/31 21:11:51.2	5.270	-0.140	0.330	0.500
2020/01/31 21:11:51.3	5.250	-0.120	0.290	0.500
2020/01/31 21:11:51.4	5.230	-0.110	0.240	0.500
2020/01/31 21:11:51.5	5.210	-0.090	0.200	0.500
2020/01/31 21:11:51.6	5.190	-0.070	0.150	0.490
2020/01/31 21:11:51.7	5.170	-0.050	0.100	0.490
2020/01/31 21:11:51.8	5.150	-0.030	0.050	0.480
2020/01/31 21:11:51.9	5.130	-0.000	0.010	0.470
2020/01/31 21:11:52.0	5.120	0.020	-0.040	0.460
2020/01/31 21:11:52.1	5.100	0.040	-0.090	0.460
2020/01/31 21:11:52.2	5.080	0.070	-0.140	0.450
2020/01/31 21:11:52.3	5.060	0.090	-0.190	0.440
2020/01/31 21:11:52.4	5.050	0.120	-0.240	0.430
2020/01/31 21:11:52.5	5.030	0.150	-0.290	0.410
2020/01/31 21:11:52.6	5.020	0.170	-0.340	0.400
2020/01/31 21:11:52.7	5.000	0.200	-0.390	0.390
2020/01/31 21:11:52.8	4.990	0.220	-0.430	0.370
2020/01/31 21:11:52.9	4.990	0.250	-0.480	0.360
2020/01/31 21:11:53.0	4.980	0.270	-0.530	0.340
2020/01/31 21:11:53.1	4.970	0.290	-0.580	0.320
2020/01/31 21:11:53.2	4.970	0.320	-0.620	0.300
2020/01/31 21:11:53.3	4.960	0.340	-0.670	0.270
2020/01/31 21:11:53.4	4.970	0.360	-0.710	0.250
2020/01/31 21:11:53.5	4.970	0.380	-0.760	0.220
2020/01/31 21:11:53.6	4.970	0.390	-0.800	0.190
2020/01/31 21:11:53.7	4.980	0.410	-0.850	0.160
2020/01/31 21:11:53.8	5.000	0.430	-0.890	0.130
2020/01/31 21:11:53.9	5.010	0.440	-0.930	0.090
2020/01/31 21:11:54.0	5.030	0.450	-0.970	0.050
2020/01/31 21:11:54.1	5.050	0.460	-1.010	0.010
2020/01/31 21:11:54.2	5.070	0.470	-1.050	-0.020
2020/01/31 21:11:54.3	5.100	0.480	-1.090	-0.070
2020/01/31 21:11:54.4	5.130	0.490	-1.120	-0.110
2020/01/31 21:11:54.5	5.160	0.490	-1.160	-0.150
2020/01/31 21:11:54.6	5.200	0.490	-1.180	-0.190
2020/01/31 21:11:54.7	5.230	0.490	-1.210	-0.240
2020/01/31 21:11:54.8	5.270	0.490	-1.230	-0.280
2020/01/31 21:11:54.9	5.310	0.490	-1.260	-0.330
2020/01/31 21:11:55.0	5.350	0.490	-1.270	-0.370
2020/01/31 21:11:55.1	5.400	0.480	-1.280	-0.420
2020/01/31 21:11:55.2	5.450	0.470	-1.290	-0.460
2020/01/31 21:11:55.3	5.490	0.470	-1.290	-0.510
2020/01/31 21:11:55.4	5.550	0.460	-1.290	-0.550
2020/01/31 21:11:55.5	5.600	0.450	-1.280	-0.590
2020/01/31 21:11:55.6	5.650	0.430	-1.270	-0.630
2020/01/31 21:11:55.7	5.700	0.420	-1.250	-0.670
2020/01/31 21:11:55.8	5.760	0.410	-1.220	-0.710
2020/01/31 21:11:55.9	5.810	0.390	-1.190	-0.740
2020/01/31 21:11:56.0	5.860	0.370	-1.160	-0.770
2020/01/31 21:11:56.1	5.910	0.360	-1.120	-0.800
2020/01/31 21:11:56.2	5.960	0.340	-1.070	-0.820
2020/01/31 21:11:56.3	6.010	0.320	-1.020	-0.840
2020/01/31 21:11:56.4	6.050	0.300	-0.970	-0.850
2020/01/31 21:11:56.5	6.090	0.280	-0.900	-0.860
2020/01/31 21:11:56.6	6.130	0.250	-0.840	-0.860
2020/01/31 21:11:56.7	6.170	0.230	-0.770	-0.860
2020/01/31 21:11:56.8	6.200	0.200	-0.690	-0.860
2020/01/31 21:11:56.9	6.220	0.180	-0.610	-0.840
2020/01/31 21:11:57.0	6.240	0.150	-0.530	-0.830
2020/01/31 21:11:57.1	6.260	0.120	-0.450	-0.810
2020/01/31 21:11:57.2	6.270	0.090	-0.360	-0.790
2020/01/31 21:11:57.3	6.280	0.060	-0.280	-0.770
2020/01/31 21:11:57.4	6.290	0.030	-0.190	-0.740
2020/01/31 21:11:57.5	6.300	-0.000	-0.100	-0.720
2020/01/31 21:11:57.6	6.300	-0.030	-0.020	-0.690
2020/01/31 21:11:57.7	6.300	-0.070	0.060	-0.660
2020/01/31 21:11:57.8	6.290	-0.100	0.140	-0.640
2020/01/31 21:11:57.9	6.290	-0.130	0.210	-0.610
2020/01/31 21:11:58.0	6.290	-0.160	0.280	-0.580
2020/01/31 21:11:58.1	6.280	-0.190	0.350	-0.550
2020/01/31 21:11:58.2	6.270	-0.220	0.410	-0.530
2020/01/31 21:11:58.3	6.260	-0.250	0.470	-0.500
2020/01/31 21:11:58.4	6.240	-0.280	0.520	-0.480
2020/01/31 21:11:58.5	6.230	-0.310	0.570	-0.450
2020/01/31 21:11:58.6	6.220	-0.330	0.600	-0.430
2020/01/31 21:11:58.7	6.200	-0.360	0.640	-0.400
2020/01/31 21:11:58.8	6.180	-0.380	0.660	-0.370
2020/01/31 21:11:58.9	6.160	-0.400	0.690	-0.340
2020/01/31 21:11:59.0	6.120	-0.420	0.700	-0.320
2020/01/31 21:11:59.1	6.100	-0.430	0.710	-0.280
2020/01/31 21:11:59.2	6.070	-0.450	0.720	-0.250
2020/01/31 21:11:59.3	6.040	-0.460	0.720	-0.210
2020/01/31 21:11:59.4	6.000	-0.470	0.720	-0.180
2020/01/31 21:11:59.5	5.960	-0.470	0.710	-0.140
2020/01/31 21:11:59.6	5.920	-0.480	0.700	-0.100
2020/01/31 21:11:59.7	5.880	-0.480	0.690	-0.060
2020/01/31 21:11:59.8	5.830	-0.480	0.670	-0.020
2020/01/31 21:11:59.9	5.790	-0.470	0.650	0.030
2020/01/31 21:12:00.0	5.740	-0.470	0.630	0.070
2020/01/31 21:12:00.1	5.680	-0.460	0.610	0.110
2020/01/31 21:12:00.2	5.630	-0.450	0.580	0.150
2020/01/31 21:12:00.3	5.570	-0.440	0.560	0.190
2020/01/31 21:12:00.4	5.510	-0.430	0.530	0.220
2020/01/31 21:12:00.5	5.450	-0.420	0.500	0.260
2020/01/31 21:12:00.6	5.380	-0.410	0.480	0.290
2020/01/31 21:12:00.7	5.320	-0.390	0.450	0.330
2020/01/31 21:12:00.8	5.250	-0.380	0.420	0.360
2020/01/31 21:12:00.9	5.200	-0.360	0.390	0.390
2020/01/31 21:12:01.0	5.130	-0.340	0.360	0.420
2020/01/31 21:12:01.1	5.060	-0.320	0.330	0.450
2020/01/31 21:12:01.2	4.990	-0.300	0.300	0.480
2020/01/31 21:12:01.3	4.930	-0.290	0.270	0.500
2020/01/31 21:12:01.4	4.860	-0.270	0.230	0.520
2020/01/31 21:12:01.5	4.800	-0.240	0.200	0.540
2020/01/31 21:12:01.6	4.740	-0.220	0.160	0.560
2020/01/31 21:12:01.7	4.680	-0.200	0.120	0.580
2020/01/31 21:12:01.8	4.620	-0.180	0.080	0.600
2020/01/31 21:12:01.9	4.580	-0.160	0.040	0.610
2020/01/31 21:12:02.0	4.530	-0.130	-0.000	0.620
2020/01/31 21:12:02.1	4.490	-0.110	-0.050	0.630
2020/01/31 21:12:02.2	4.450	-0.090	-0.090	0.630
2020/01/31 21:12:02.3	4.410	-0.060	-0.140	0.630
2020/01/31 21:12:02.4	4.380	-0.040	-0.190	0.630
2020/01/31 21:12:02.5	4.360	-0.010	-0.240	0.620
2020/01/31 21:12:02.6	4.340	0.010	-0.290	0.610
2020/01/31 21:12:02.7	4.330	0.040	-0.350	0.590
2020/01/31 21:12:02.8	4.330	0.060	-0.410	0.570
2020/01/31 21:12:02.9	4.320	0.090	-0.460	0.540
2020/01/31 21:12:03.0	4.330	0.120	-0.520	0.510
2020/01/31 21:12:03.1	4.340	0.140	-0.580	0.470
2020/01/31 21:12:03.2	4.350	0.170	-0.640	0.430
2020/01/31 21:12:03.3	4.370	0.200	-0.700	0.390
2020/01/31 21:12:03.4	4.400	0.220	-0.760	0.340
2020/01/31 21:12:03.5	4.430	0.250	-0.810	0.290
2020/01/31 21:12:03.6	4.460	0.270	-0.870	0.230
2020/01/31 21:12:03.7	4.500	0.300	-0.920	0.180
2020/01/31 21:12:03.8	4.530	0.320	-0.960	0.120
2020/01/31 21:12:03.9	4.590	0.350	-1.010	0.060
2020/01/31 21:12:04.0	4.630	0.370	-1.040	0.000
2020/01/31 21:12:04.1	4.670	0.390	-1.080	-0.060
2020/01/31 21:12:04.2	4.720	0.410	-1.100	-0.110
2020/01/31 21:12:04.3	4.760	0.420	-1.120	-0.160
2020/01/31 21:12:04.4	4.800	0.440	-1.130	-0.220
2020/01/31 21:12:04.5	4.840	0.450	-1.140	-0.260
2020/01/31 21:12:04.6	4.880	0.450	-1.140	-0.310
2020/01/31 21:12:04.7	4.920	0.460	-1.130	-0.350
2020/01/31 21:12:04.8	4.960	0.460	-1.120	-0.390
2020/01/31 21:12:04.9	4.990	0.460	-1.100	-0.430
2020/01/31 21:12:05.0	5.030	0.460	-1.070	-0.460
2020/01/31 21:12:05.1	5.070	0.450	-1.050	-0.490
2020/01/31 21:12:05.2	5.100	0.440	-1.010	-0.520
2020/01/31 21:12:05.3	5.140	0.420	-0.980	-0.550
2020/01/31 21:12:05.4	5.180	0.400	-0.940	-0.580
2020/01/31 21:12:05.5	5.230	0.380	-0.900	-0.600
2020/01/31 21:12:05.6	5.270	0.350	-0.860	-0.620
2020/01/31 21:12:05.7	5.310	0.330	-0.820	-0.650
2020/01/31 21:12:05.8	5.360	0.300	-0.780	-0.670
2020/01/31 21:12:05.9	5.400	0.260	-0.740	-0.690
2020/01/31 21:12:06.0	5.440	0.230	-0.700	-0.710
2020/01/31 21:12:06.1	5.490	0.190	-0.660	-0.730
2020/01/31 21:12:06.2	5.540	0.160	-0.620	-0.750
2020/01/31 21:12:06.3	5.580	0.120	-0.590	-0.760
2020/01/31 21:12:06.4	5.630	0.080	-0.550	-0.780
2020/01/31 21:12:06.5	5.670	0.040	-0.520	-0.790
2020/01/31 21:12:06.6	5.710	-0.010	-0.490	-0.800
2020/01/31 21:12:06.7	5.750	-0.050	-0.460	-0.810
2020/01/31 21:12:06.8	5.790	-0.090	-0.440	-0.820
2020/01/31 21:12:06.9	5.820	-0.130	-0.410	-0.820
2020/01/31 21:12:07.0	5.840	-0.170	-0.380	-0.820
2020/01/31 21:12:07.1	5.870	-0.210	-0.360	-0.820
2020/01/31 21:12:07.2	5.890	-0.250	-0.340	-0.820
2020/01/31 21:12:07.3	5.910	-0.280	-0.310	-0.810
2020/01/31 21:12:07.4	5.920	-0.320	-0.290	-0.790
2020/01/31 21:12:07.5	5.930	-0.350	-0.260	-0.780
2020/01/31 21:12:07.6	5.940	-0.380	-0.240	-0.760
2020/01/31 21:12:07.7	5.930	-0.410	-0.210	-0.730
2020/01/31 21:12:07.8	5.930	-0.430	-0.180	-0.710
2020/01/31 21:12:07.9	5.910	-0.450	-0.150	-0.670
2020/01/31 21:12:08.0	5.900	-0.470	-0.120	-0.640
2020/01/31 21:12:08.1	5.870	-0.490	-0.090	-0.600
2020/01/31 21:12:08.2	5.850	-0.500	-0.050	-0.560
2020/01/31 21:12:08.3	5.820	-0.510	-0.010	-0.510
2020/01/31 21:12:08.4	5.780	-0.520	0.030	-0.460
2020/01/31 21:12:08.5	5.740	-0.520	0.080	-0.410
2020/01/31 21:12:08.6	5.700	-0.520	0.120	-0.360
2020/01/31 21:12:08.7	5.650	-0.510	0.170	-0.300
2020/01/31 21:12:08.8	5.600	-0.510	0.220	-0.240
2020/01/31 21:12:08.9	5.570	-0.500	0.270	-0.180
2020/01/31 21:12:09.0	5.520	-0.480	0.320	-0.120
2020/01/31 21:12:09.1	5.460	-0.470	0.380	-0.050
2020/01/31 21:12:09.2	5.410	-0.450	0.430	0.010
2020/01/31 21:12:09.3	5.350	-0.430	0.480	0.070
2020/01/31 21:12:09.4	5.300	-0.400	0.520	0.130
2020/01/31 21:12:09.5	5.250	-0.380	0.570	0.200
2020/01/31 21:12:09.6	5.190	-0.350	0.610	0.260
2020/01/31 21:12:09.7	5.140	-0.320	0.640	0.320
2020/01/31 21:12:09.8	5.090	-0.290	0.680	0.380
2020/01/31 21:12:09.9	5.050	-0.260	0.700	0.430
2020/01/31 21:12:10.0	5.000	-0.220	0.720	0.490
2020/01/31 21:12:10.1	4.950	-0.190	0.740	0.540
2020/01/31 21:12:10.2	4.910	-0.150	0.750	0.590
2020/01/31 21:12:10.3	4.870	-0.120	0.760	0.630
2020/01/31 21:12:10.4	4.830	-0.080	0.750	0.680
2020/01/31 21:12:10.5	4.790	-0.050	0.740	0.720
2020/01/31 21:12:10.6	4.750	-0.010	0.730	0.750
2020/01/31 21:12:10.7	4.720	0.030	0.710	0.780
2020/01/31 21:12:10.8	4.680	0.060	0.680	0.810
2020/01/31 21:12:10.9	4.660	0.100	0.640	0.830
2020/01/31 21:12:11.0	4.630	0.130	0.600	0.850
2020/01/31 21:12:11.1	4.610	0.170	0.550	0.860
2020/01/31 21:12:11.2	4.590	0.210	0.490	0.870
2020/01/31 21:12:11.3	4.570	0.240	0.430	0.870
2020/01/31 21:12:11.4	4.550	0.280	0.370	0.870
2020/01/31 21:12:11.5	4.540	0.310	0.290	0.860
2020/01/31 21:12:11.6	4.530	0.350	0.220	0.850
2020/01/31 21:12:11.7	4.530	0.380	0.140	0.840
2020/01/31 21:12:11.8	4.530	0.420	0.050	0.820
2020/01/31 21:12:11.9	4.520	0.450	-0.040	0.790
2020/01/31 21:12:12.0	4.520	0.490	-0.130	0.770
2020/01/31 21:12:12.1	4.530	0.520	-0.220	0.740
2020/01/31 21:12:12.2	4.550	0.560	-0.320	0.710
2020/01/31 21:12:12.3	4.560	0.590	-0.410	0.680
2020/01/31 21:12:12.4	4.580	0.620	-0.510	0.640
2020/01/31 21:12:12.5	4.610	0.650	-0.600	0.600
2020/01/31 21:12:12.6	4.630	0.680	-0.690	0.560
2020/01/31 21:12:12.7	4.660	0.700	-0.780	0.520
2020/01/31 21:12:12.8	4.680	0.720	-0.870	0.480
2020/01/31 21:12:12.9	4.710	0.750	-0.950	0.430
2020/01/31 21:12:13.0	4.750	0.760	-1.030	0.390
2020/01/31 21:12:13.1	4.780	0.780	-1.100	0.340
2020/01/31 21:12:13.2	4.810	0.790	-1.170	0.290
2020/01/31 21:12:13.3	4.840	0.800	-1.230	0.240
2020/01/31 21:12:13.4	4.870	0.800	-1.280	0.190
2020/01/31 21:12:13.5	4.900	0.800	-1.330	0.140
2020/01/31 21:12:13.6	4.920	0.800	-1.370	0.090
2020/01/31 21:12:13.7	4.950	0.790	-1.400	0.040
2020/01/31 21:12:13.8	4.970	0.770	-1.420	-0.020
2020/01/31 21:12:13.9	5.010	0.760	-1.430	-0.070
2020/01/31 21:12:14.0	5.030	0.730	-1.430	-0.130
2020/01/31 21:12:14.1	5.050	0.700	-1.420	-0.180
2020/01/31 21:12:14.2	5.070	0.670	-1.410	-0.240
2020/01/31 21:12:14.3	5.080	0.630	-1.380	-0.300
2020/01/31 21:12:14.4	5.100	0.580	-1.350	-0.360
2020/01/31 21:12:14.5	5.110	0.530	-1.300	-0.410
2020/01/31 21:12:14.6	5.120	0.480	-1.250	-0.470
2020/01/31 21:12:14.7	5.130	0.420	-1.190	-0.530
2020/01/31 21:12:14.8	5.140	0.350	-1.130	-0.580
2020/01/31 21:12:14.9	5.150	0.280	-1.060	-0.640
2020/01/31 21:12:15.0	5.160	0.210	-0.980	-0.690
2020/01/31 21:12:15.1	5.170	0.140	-0.900	-0.740
2020/01/31 21:12:15.2	5.180	0.060	-0.810	-0.790
2020/01/31 21:12:15.3	5.190	-0.010	-0.720	-0.830
2020/01/31 21:12:15.4	5.190	-0.090	-0.630	-0.870
2020/01/31 21:12:15.5	5.200	-0.170	-0.530	-0.920
2020/01/31 21:12:15.6	5.210	-0.260	-0.440	-0.950
2020/01/31 21:12:15.7	5.220	-0.340	-0.350	-0.990
2020/01/31 21:12:15.8	5.230	-0.420	-0.250	-1.020
2020/01/31 21:12:15.9	5.240	-0.490	-0.160	-1.050
2020/01/31 21:12:16.0	5.250	-0.570	-0.070	-1.080
2020/01/31 21:12:16.1	5.260	-0.640	0.010	-1.100
2020/01/31 21:12:16.2	5.270	-0.710	0.090	-1.120
2020/01/31 21:12:16.3	5.270	-0.780	0.170	-1.130
2020/01/31 21:12:16.4	5.280	-0.840	0.250	-1.140
2020/01/31 21:12:16.5	5.280	-0.900	0.320	-1.140
2020/01/31 21:12:16.6	5.280	-0.950	0.380	-1.140
2020/01/31 21:12:16.7	5.280	-0.990	0.440	-1.130
2020/01/31 21:12:16.8	5.280	-1.030	0.490	-1.120
2020/01/31 21:12:16.9	5.280	-1.070	0.540	-1.100
2020/01/31 21:12:17.0	5.250	-1.090	0.580	-1.080
2020/01/31 21:12:17.1	5.240	-1.110	0.610	-1.060
2020/01/31 21:12:17.2	5.240	-1.120	0.640	-1.030
2020/01/31 21:12:17.3	5.230	-1.130	0.660	-1.000
2020/01/31 21:12:17.4	5.220	-1.120	0.670	-0.970
2020/01/31 21:12:17.5	5.200	-1.110	0.680	-0.940
2020/01/31 21:12:17.6	5.190	-1.090	0.670	-0.900
2020/01/31 21:12:17.7	5.180	-1.060	0.660	-0.860
2020/01/31 21:12:17.8	5.170	-1.030	0.650	-0.820
2020/01/31 21:12:17.9	5.160	-0.990	0.630	-0.780
2020/01/31 21:12:18.0	5.140	-0.940	0.590	-0.740
2020/01/31 21:12:18.1	5.130	-0.880	0.560	-0.700
2020/01/31 21:12:18.2	5.120	-0.820	0.510	-0.650
2020/01/31 21:12:18.3	5.110	-0.760	0.460	-0.610
2020/01/31 21:12:18.4	5.110	-0.680	0.400	-0.560
2020/01/31 21:12:18.5	5.100	-0.610	0.340	-0.510
2020/01/31 21:12:18.6	5.090	-0.530	0.270	-0.460
2020/01/31 21:12:18.7	5.090	-0.440	0.200	-0.410
2020/01/31 21:12:18.8	5.080	-0.350	0.130	-0.360
2020/01/31 21:12:18.9	5.070	-0.260	0.050	-0.300
2020/01/31 21:12:19.0	5.070	-0.170	-0.030	-0.250
2020/01/31 21:12:19.1	5.060	-0.080	-0.110	-0.190
2020/01/31 21:12:19.2	5.050	0.010	-0.190	-0.130
2020/01/31 21:12:19.3	5.050	0.100	-0.270	-0.080
2020/01/31 21:12:19.4	5.050	0.190	-0.350	-0.020
2020/01/31 21:12:19.5	5.040	0.280	-0.430	0.040
2020/01/31 21:12:19.6	5.040	0.370	-0.500	0.100
2020/01/31 21:12:19.7	5.030	0.450	-0.570	0.150
2020/01/31 21:12:19.8	5.030	0.530	-0.640	0.210
2020/01/31 21:12:19.9	5.030	0.600	-0.700	0.260
2020/01/31 21:12:20.0	5.030	0.670	-0.750	0.310
2020/01/31 21:12:20.1	5.030	0.730	-0.800	0.360
2020/01/31 21:12:20.2	5.030	0.780	-0.840	0.410
2020/01/31 21:12:20.3	5.030	0.830	-0.880	0.460
2020/01/31 21:12:20.4	5.030	0.880	-0.910	0.500
2020/01/31 21:12:20.5	5.030	0.910	-0.930	0.540
2020/01/31 21:12:20.6	5.020	0.940	-0.940	0.580
2020/01/31 21:12:20.7	5.020	0.960	-0.940	0.610
2020/01/31 21:12:20.8	5.020	0.980	-0.940	0.640
2020/01/31 21:12:20.9	5.030	0.980	-0.930	0.670
2020/01/31 21:12:21.0	5.030	0.980	-0.900	0.700
2020/01/31 21:12:21.1	5.020	0.970	-0.870	0.720
2020/01/31 21:12:21.2	5.010	0.960	-0.840	0.740
2020/01/31 21:12:21.3	5.010	0.930	-0.790	0.750
2020/01/31 21:12:21.4	5.000	0.900	-0.740	0.760
2020/01/31 21:12:21.5	4.990	0.860	-0.680	0.760
2020/01/31 21:12:21.6	4.990	0.820	-0.610	0.760
2020/01/31 21:12:21.7	4.980	0.760	-0.540	0.760
2020/01/31 21:12:21.8	4.970	0.710	-0.470	0.750
2020/01/31 21:12:21.9	4.980	0.640	-0.390	0.730
2020/01/31 21:12:22.0	4.970	0.570	-0.310	0.710
2020/01/31 21:12:22.1	4.960	0.500	-0.220	0.690
2020/01/31 21:12:22.2	4.960	0.430	-0.140	0.660
2020/01/31 21:12:22.3	4.950	0.340	-0.050	0.630
2020/01/31 21:12:22.4	4.950	0.260	0.030	0.600
2020/01/31 21:12:22.5	4.950	0.180	0.110	0.560
2020/01/31 21:12:22.6	4.950	0.090	0.190	0.520
2020/01/31 21:12:22.7	4.950	0.000	0.270	0.470
2020/01/31 21:12:22.8	4.950	-0.080	0.340	0.420
2020/01/31 21:12:22.9	4.960	-0.170	0.410	0.370
2020/01/31 21:12:23.0	4.950	-0.250	0.470	0.320
2020/01/31 21:12:23.1	4.950	-0.340	0.530	0.260
2020/01/31 21:12:23.2	4.960	-0.420	0.580	0.210
2020/01/31 21:12:23.3	4.960	-0.490	0.630	0.160
2020/01/31 21:12:23.4	4.970	-0.570	0.670	0.100
2020/01/31 21:12:23.5	4.970	-0.630	0.700	0.050
2020/01/31 21:12:23.6	4.980	-0.700	0.720	-0.010
2020/01/31 21:12:23.7	4.980	-0.750	0.740	-0.060
2020/01/31 21:12:23.8	4.980	-0.810	0.740	-0.110
2020/01/31 21:12:23.9	4.980	-0.850	0.740	-0.160
2020/01/31 21:12:24.0	4.980	-0.890	0.730	-0.210
2020/01/31 21:12:24.1	4.980	-0.920	0.710	-0.250
2020/01/31 21:12:24.2	4.980	-0.940	0.690	-0.290
2020/01/31 21:12:24.3	4.970	-0.960	0.650	-0.330
2020/01/31 21:12:24.4	4.970	-0.970	0.610	-0.360
2020/01/31 21:12:24.5	4.960	-0.970	0.560	-0.390
2020/01/31 21:12:24.6	4.960	-0.960	0.500	-0.420
2020/01/31 21:12:24.7	4.950	-0.940	0.440	-0.440
2020/01/31 21:12:24.8	4.940	-0.920	0.360	-0.470
2020/01/31 21:12:24.9	4.940	-0.890	0.290	-0.490
2020/01/31 21:12:25.0	4.930	-0.850	0.200	-0.500
2020/01/31 21:12:25.1	4.920	-0.810	0.110	-0.520
2020/01/31 21:12:25.2	4.910	-0.760	0.010	-0.530
2020/01/31 21:12:25.3	4.900	-0.700	-0.090	-0.550
2020/01/31 21:12:25.4	4.900	-0.640	-0.190	-0.560
2020/01/31 21:12:25.5	4.890	-0.570	-0.300	-0.570
2020/01/31 21:12:25.6	4.890	-0.500	-0.410	-0.580
2020/01/31 21:12:25.7	4.890	-0.420	-0.530	-0.590
2020/01/31 21:12:25.8	4.890	-0.340	-0.640	-0.610
2020/01/31 21:12:25.9	4.890	-0.260	-0.760	-0.610
2020/01/31 21:12:26.0	4.890	-0.180	-0.870	-0.630
2020/01/31 21:12:26.1	4.900	-0.090	-0.980	-0.640
2020/01/31 21:12:26.2	4.910	-0.010	-1.090	-0.650
2020/01/31 21:12:26.3	4.920	0.070	-1.190	-0.660
2020/01/31 21:12:26.4	4.930	0.160	-1.290	-0.660
2020/01/31 21:12:26.5	4.950	0.240	-1.380	-0.670
2020/01/31 21:12:26.6	4.960	0.320	-1.470	-0.680
2020/01/31 21:12:26.7	4.980	0.400	-1.540	-0.680
2020/01/31 21:12:26.8	5.000	0.470	-1.610	-0.690
2020/01/31 21:12:26.9	5.020	0.540	-1.670	-0.690
2020/01/31 21:12:27.0	5.020	0.600	-1.710	-0.680
2020/01/31 21:12:27.1	5.050	0.660	-1.740	-0.680
2020/01/31 21:12:27.2	5.070	0.720	-1.760	-0.670
2020/01/31 21:12:27.3	5.090	0.760	-1.770	-0.660
2020/01/31 21:12:27.4	5.110	0.800	-1.760	-0.650
2020/01/31 21:12:27.5	5.130	0.840	-1.740	-0.630
2020/01/31 21:12:27.6	5.150	0.870	-1.710	-0.610
2020/01/31 21:12:27.7	5.170	0.890	-1.660	-0.590
2020/01/31 21:12:27.8	5.190	0.900	-1.600	-0.560
2020/01/31 21:12:27.9	5.210	0.900	-1.530	-0.530
2020/01/31 21:12:28.0	5.220	0.900	-1.450	-0.490
2020/01/31 21:12:28.1	5.240	0.900	-1.350	-0.450
2020/01/31 21:12:28.2	5.250	0.880	-1.240	-0.410
2020/01/31 21:12:28.3	5.270	0.860	-1.130	-0.360
2020/01/31 21:12:28.4	5.280	0.840	-1.000	-0.320
2020/01/31 21:12:28.5	5.290	0.800	-0.870	-0.260
2020/01/31 21:12:28.6	5.290	0.770	-0.720	-0.210
2020/01/31 21:12:28.7	5.300	0.730	-0.580	-0.150
2020/01/31 21:12:28.8	5.300	0.680	-0.430	-0.090
2020/01/31 21:12:28.9	5.310	0.630	-0.280	-0.030
2020/01/31 21:12:29.0	5.310	0.580	-0.130	0.030
2020/01/31 21:12:29.1	5.310	0.520	0.020	0.100
2020/01/31 21:12:29.2	5.310	0.470	0.160	0.160
2020/01/31 21:12:29.3	5.300	0.410	0.310	0.220
2020/01/31 21:12:29.4	5.290	0.350	0.440	0.290
2020/01/31 21:12:29.5	5.290	0.290	0.580	0.350
2020/01/31 21:12:29.6	5.280	0.230	0.700	0.410
2020/01/31 21:12:29.7	5.260	0.170	0.810	0.470
2020/01/31 21:12:29.8	5.250	0.120	0.920	0.520
2020/01/31 21:12:29.9	5.230	0.060	1.010	0.580
2020/01/31 21:12:30.0	5.220	0.010	1.090	0.630
2020/01/31 21:12:30.1	5.200	-0.040	1.160	0.670
2020/01/31 21:12:30.2	5.180	-0.090	1.220	0.710
2020/01/31 21:12:30.3	5.170	-0.140	1.260	0.750
2020/01/31 21:12:30.4	5.150	-0.180	1.290	0.780
2020/01/31 21:12:30.5	5.130	-0.210	1.300	0.810
2020/01/31 21:12:30.6	5.110	-0.250	1.310	0.830
2020/01/31 21:12:30.7	5.080	-0.280	1.300	0.850
2020/01/31 21:12:30.8	5.060	-0.300	1.270	0.860
2020/01/31 21:12:30.9	5.040	-0.320	1.240	0.860
2020/01/31 21:12:31.0	5.010	-0.340	1.190	0.870
2020/01/31 21:12:31.1	4.990	-0.350	1.130	0.860
2020/01/31 21:12:31.2	4.970	-0.360	1.060	0.850
2020/01/31 21:12:31.3	4.950	-0.370	0.980	0.830
2020/01/31 21:12:31.4	4.920	-0.370	0.890	0.810
2020/01/31 21:12:31.5	4.910	-0.370	0.790	0.790
2020/01/31 21:12:31.6	4.890	-0.370	0.690	0.760
2020/01/31 21:12:31.7	4.870	-0.360	0.580	0.720
2020/01/31 21:12:31.8	4.860	-0.350	0.460	0.680
2020/01/31 21:12:31.9	4.860	-0.340	0.340	0.630
2020/01/31 21:12:32.0	4.850	-0.330	0.210	0.580
2020/01/31 21:12:32.1	4.850	-0.310	0.080	0.520
2020/01/31 21:12:32.2	4.840	-0.300	-0.040	0.460
2020/01/31 21:12:32.3	4.850	-0.280	-0.170	0.400
2020/01/31 21:12:32.4	4.850	-0.260	-0.300	0.330
2020/01/31 21:12:32.5	4.850	-0.240	-0.430	0.270
2020/01/31 21:12:32.6	4.860	-0.230	-0.550	0.190
2020/01/31 21:12:32.7	4.870	-0.210	-0.670	0.120
2020/01/31 21:12:32.8	4.890	-0.190	-0.780	0.040
2020/01/31 21:12:32.9	4.910	-0.170	-0.890	-0.030
2020/01/31 21:12:33.0	4.930	-0.150	-0.990	-0.110
2020/01/31 21:12:33.1	4.950	-0.140	-1.080	-0.190
2020/01/31 21:12:33.2	4.980	-0.120	-1.170	-0.270
2020/01/31 21:12:33.3	5.000	-0.110	-1.240	-0.340
2020/01/31 21:12:33.4	5.030	-0.090	-1.310	-0.420
2020/01/31 21:12:33.5	5.060	-0.080	-1.360	-0.490
2020/01/31 21:12:33.6	5.090	-0.070	-1.410	-0.570
2020/01/31 21:12:33.7	5.120	-0.060	-1.450	-0.640
2020/01/31 21:12:33.8	5.160	-0.060	-1.470	-0.710
2020/01/31 21:12:33.9	5.200	-0.050	-1.490	-0.780
2020/01/31 21:12:34.0	5.230	-0.050	-1.500	-0.840
2020/01/31 21:12:34.1	5.270	-0.040	-1.490	-0.910
2020/01/31 21:12:34.2	5.310	-0.040	-1.480	-0.960
2020/01/31 21:12:34.3	5.350	-0.040	-1.450	-1.020
2020/01/31 21:12:34.4	5.400	-0.040	-1.420	-1.070
2020/01/31 21:12:34.5	5.440	-0.040	-1.380	-1.110
2020/01/31 21:12:34.6	5.480	-0.040	-1.330	-1.150
2020/01/31 21:12:34.7	5.530	-0.050	-1.270	-1.180
2020/01/31 21:12:34.8	5.570	-0.050	-1.210	-1.210
2020/01/31 21:12:34.9	5.610	-0.050	-1.140	-1.240
2020/01/31 21:12:35.0	5.650	-0.060	-1.060	-1.250
2020/01/31 21:12:35.1	5.690	-0.060	-0.980	-1.260
2020/01/31 21:12:35.2	5.730	-0.060	-0.890	-1.270
2020/01/31 21:12:35.3	5.760	-0.070	-0.800	-1.260
2020/01/31 21:12:35.4	5.790	-0.070	-0.700	-1.250
2020/01/31 21:12:35.5	5.820	-0.070	-0.600	-1.230
2020/01/31 21:12:35.6	5.850	-0.080	-0.500	-1.210
2020/01/31 21:12:35.7	5.870	-0.080	-0.400	-1.180
2020/01/31 21:12:35.8	5.880	-0.080	-0.290	-1.140
2020/01/31 21:12:35.9	5.900	-0.080	-0.190	-1.090
2020/01/31 21:12:36.0	5.910	-0.080	-0.080	-1.040
2020/01/31 21:12:36.1	5.910	-0.080	0.020	-0.990
2020/01/31 21:12:36.2	5.910	-0.080	0.120	-0.930
2020/01/31 21:12:36.3	5.910	-0.080	0.220	-0.860
2020/01/31 21:12:36.4	5.900	-0.080	0.310	-0.790
2020/01/31 21:12:36.5	5.880	-0.070	0.400	-0.720
2020/01/31 21:12:36.6	5.860	-0.070	0.480	-0.640
2020/01/31 21:12:36.7	5.840	-0.070	0.560	-0.560
2020/01/31 21:12:36.8	5.820	-0.060	0.620	-0.480
2020/01/31 21:12:36.9	5.800	-0.050	0.690	-0.390
2020/01/31 21:12:37.0	5.770	-0.050	0.740	-0.300
2020/01/31 21:12:37.1	5.740	-0.040	0.790	-0.210
2020/01/31 21:12:37.2	5.710	-0.030	0.820	-0.130
2020/01/31 21:12:37.3	5.670	-0.020	0.850	-0.040
2020/01/31 21:12:37.4	5.640	-0.010	0.870	0.040
2020/01/31 21:12:37.5	5.610	0.000	0.880	0.120
2020/01/31 21:12:37.6	5.580	0.010	0.880	0.200
2020/01/31 21:12:37.7	5.540	0.020	0.880	0.280
2020/01/31 21:12:37.8	5.510	0.030	0.860	0.350
2020/01/31 21:12:37.9	5.480	0.040	0.830	0.420
2020/01/31 21:12:38.0	5.450	0.050	0.800	0.480
2020/01/31 21:12:38.1	5.410	0.060	0.760	0.540
2020/01/31 21:12:38.2	5.380	0.060	0.720	0.590
2020/01/31 21:12:38.3	5.350	0.070	0.670	0.630
2020/01/31 21:12:38.4	5.320	0.080	0.610	0.670
2020/01/31 21:12:38.5	5.290	0.080	0.540	0.700
2020/01/31 21:12:38.6	5.260	0.080	0.470	0.720
2020/01/31 21:12:38.7	5.240	0.080	0.400	0.740
2020/01/31 21:12:38.8	5.210	0.080	0.330	0.750
2020/01/31 21:12:38.9	5.190	0.080	0.240	0.750
2020/01/31 21:12:39.0	5.170	0.080	0.160	0.750
2020/01/31 21:12:39.1	5.150	0.080	0.080	0.740
2020/01/31 21:12:39.2	5.140	0.070	-0.010	0.720
2020/01/31 21:12:39.3	5.130	0.070	-0.090	0.700
2020/01/31 21:12:39.4	5.110	0.060	-0.180	0.670
2020/01/31 21:12:39.5	5.110	0.050	-0.260	0.640
2020/01/31 21:12:39.6	5.100	0.050	-0.350	0.610
2020/01/31 21:12:39.7	5.100	0.040	-0.430	0.570
2020/01/31 21:12:39.8	5.100	0.030	-0.510	0.520
2020/01/31 21:12:39.9	5.110	0.020	-0.580	0.480
2020/01/31 21:12:40.0	5.110	0.010	-0.660	0.430
2020/01/31 21:12:40.1	5.120	-0.000	-0.730	0.380
2020/01/31 21:12:40.2	5.140	-0.010	-0.790	0.320
2020/01/31 21:12:40.3	5.150	-0.020	-0.850	0.270
2020/01/31 21:12:40.4	5.170	-0.030	-0.910	0.210
2020/01/31 21:12:40.5	5.190	-0.040	-0.960	0.150
2020/01/31 21:12:40.6	5.210	-0.050	-1.000	0.100
2020/01/31 21:12:40.7	5.240	-0.060	-1.040	0.040
2020/01/31 21:12:40.8	5.260	-0.070	-1.080	-0.020
2020/01/31 21:12:40.9	5.280	-0.070	-1.110	-0.070
2020/01/31 21:12:41.0	5.300	-0.080	-1.130	-0.130
2020/01/31 21:12:41.1	5.330	-0.080	-1.150	-0.180
2020/01/31 21:12:41.2	5.350	-0.080	-1.160	-0.230
2020/01/31 21:12:41.3	5.380	-0.080	-1.170	-0.280
2020/01/31 21:12:41.4	5.400	-0.080	-1.180	-0.330
2020/01/31 21:12:41.5	5.430	-0.080	-1.180	-0.370
2020/01/31 21:12:41.6	5.450	-0.080	-1.170	-0.410
2020/01/31 21:12:41.7	5.480	-0.070	-1.170	-0.460
2020/01/31 21:12:41.8	5.500	-0.070	-1.160	-0.500
2020/01/31 21:12:41.9	5.520	-0.060	-1.150	-0.530
2020/01/31 21:12:42.0	5.550	-0.050	-1.130	-0.570
2020/01/31 21:12:42.1	5.570	-0.040	-1.110	-0.600
2020/01/31 21:12:42.2	5.590	-0.030	-1.090	-0.630
2020/01/31 21:12:42.3	5.620	-0.010	-1.070	-0.650
2020/01/31 21:12:42.4	5.640	0.000	-1.050	-0.680
2020/01/31 21:12:42.5	5.670	0.020	-1.020	-0.700
2020/01/31 21:12:42.6	5.690	0.040	-1.000	-0.710
2020/01/31 21:12:42.7	5.710	0.060	-0.970	-0.720
2020/01/31 21:12:42.8	5.730	0.070	-0.940	-0.730
2020/01/31 21:12:42.9	5.750	0.090	-0.910	-0.730
2020/01/31 21:12:43.0	5.770	0.120	-0.870	-0.730
2020/01/31 21:12:43.1	5.780	0.140	-0.840	-0.730
2020/01/31 21:12:43.2	5.790	0.160	-0.810	-0.720
2020/01/31 21:12:43.3	5.800	0.180	-0.770	-0.710
2020/01/31 21:12:43.4	5.810	0.200	-0.730	-0.690
2020/01/31 21:12:43.5	5.810	0.220	-0.690	-0.680
2020/01/31 21:12:43.6	5.820	0.240	-0.650	-0.650
2020/01/31 21:12:43.7	5.820	0.250	-0.600	-0.630
2020/01/31 21:12:43.8	5.820	0.270	-0.560	-0.600
2020/01/31 21:12:43.9	5.810	0.290	-0.510	-0.570
2020/01/31 21:12:44.0	5.800	0.300	-0.460	-0.540
2020/01/31 21:12:44.1	5.800	0.320	-0.410	-0.510
2020/01/31 21:12:44.2	5.790	0.330	-0.360	-0.470
2020/01/31 21:12:44.3	5.780	0.340	-0.310	-0.440
2020/01/31 21:12:44.4	5.770	0.350	-0.260	-0.400
2020/01/31 21:12:44.5	5.760	0.350	-0.200	-0.360
2020/01/31 21:12:44.6	5.750	0.360	-0.150	-0.320
2020/01/31 21:12:44.7	5.740	0.360	-0.090	-0.280
2020/01/31 21:12:44.8	5.730	0.370	-0.040	-0.240
2020/01/31 21:12:44.9	5.720	0.370	0.020	-0.200
2020/01/31 21:12:45.0	5.710	0.370	0.070	-0.160
2020/01/31 21:12:45.1	5.700	0.360	0.130	-0.120
2020/01/31 21:12:45.2	5.690	0.360	0.180	-0.070
2020/01/31 21:12:45.3	5.680	0.350	0.240	-0.030
2020/01/31 21:12:45.4	5.670	0.340	0.290	0.010
2020/01/31 21:12:45.5	5.660	0.330	0.340	0.050
2020/01/31 21:12:45.6	5.650	0.320	0.400	0.100
2020/01/31 21:12:45.7	5.640	0.310	0.450	0.140
2020/01/31 21:12:45.8	5.630	0.290	0.490	0.180
2020/01/31 21:12:45.9	5.640	0.280	0.540	0.220
2020/01/31 21:12:46.0	5.630	0.260	0.580	0.260
2020/01/31 21:12:46.1	5.630	0.240	0.620	0.300
2020/01/31 21:12:46.2	5.620	0.220	0.660	0.330
2020/01/31 21:12:46.3	5.620	0.200	0.690	0.370
2020/01/31 21:12:46.4	5.620	0.170	0.720	0.400
2020/01/31 21:12:46.5	5.620	0.150	0.750	0.430
2020/01/31 21:12:46.6	5.620	0.120	0.770	0.460
2020/01/31 21:12:46.7	5.620	0.100	0.780	0.480
2020/01/31 21:12:46.8	5.620	0.070	0.800	0.500
2020/01/31 21:12:46.9	5.620	0.040	0.800	0.520
2020/01/31 21:12:47.0	5.630	0.010	0.800	0.530
2020/01/31 21:12:47.1	5.630	-0.020	0.800	0.540
2020/01/31 21:12:47.2	5.630	-0.050	0.790	0.540
2020/01/31 21:12:47.3	5.630	-0.090	0.780	0.540
2020/01/31 21:12:47.4	5.640	-0.120	0.760	0.540
2020/01/31 21:12:47.5	5.640	-0.150	0.740	0.530
2020/01/31 21:12:47.6	5.640	-0.180	0.710	0.520
2020/01/31 21:12:47.7	5.640	-0.210	0.680	0.500
2020/01/31 21:12:47.8	5.640	-0.240	0.640	0.480
2020/01/31 21:12:47.9	5.640	-0.270	0.600	0.460
2020/01/31 21:12:48.0	5.650	-0.300	0.550	0.440
2020/01/31 21:12:48.1	5.640	-0.330	0.500	0.410
2020/01/31 21:12:48.2	5.640	-0.350	0.440	0.390
2020/01/31 21:12:48.3	5.630	-0.380	0.390	0.360
2020/01/31 21:12:48.4	5.630	-0.400	0.320	0.330
2020/01/31 21:12:48.5	5.620	-0.420	0.260	0.300
2020/01/31 21:12:48.6	5.610	-0.440	0.190	0.260
2020/01/31 21:12:48.7	5.600	-0.460	0.120	0.230
2020/01/31 21:12:48.8	5.590	-0.480	0.040	0.200
2020/01/31 21:12:48.9	5.590	-0.490	-0.030	0.160
2020/01/31 21:12:49.0	5.580	-0.500	-0.110	0.130
2020/01/31 21:12:49.1	5.570	-0.510	-0.200	0.090
2020/01/31 21:12:49.2	5.560	-0.510	-0.280	0.050
2020/01/31 21:12:49.3	5.550	-0.510	-0.370	0.020
2020/01/31 21:12:49.4	5.540	-0.510	-0.450	-0.020
2020/01/31 21:12:49.5	5.520	-0.510	-0.540	-0.060
2020/01/31 21:12:49.6	5.520	-0.500	-0.630	-0.100
2020/01/31 21:12:49.7	5.510	-0.490	-0.720	-0.140
2020/01/31 21:12:49.8	5.500	-0.480	-0.810	-0.180
2020/01/31 21:12:49.9	5.480	-0.460	-0.890	-0.230
2020/01/31 21:12:50.0	5.470	-0.440	-0.980	-0.270
2020/01/31 21:12:50.1	5.470	-0.420	-1.060	-0.310
2020/01/31 21:12:50.2	5.470	-0.400	-1.140	-0.340
2020/01/31 21:12:50.3	5.460	-0.370	-1.220	-0.380
2020/01/31 21:12:50.4	5.460	-0.340	-1.290	-0.420
2020/01/31 21:12:50.5	5.460	-0.310	-1.360	-0.450
2020/01/31 21:12:50.6	5.460	-0.280	-1.420	-0.490
2020/01/31 21:12:50.7	5.470	-0.240	-1.480	-0.520
2020/01/31 21:12:50.8	5.470	-0.210	-1.530	-0.540
2020/01/31 21:12:50.9	5.470	-0.170	-1.570	-0.570
2020/01/31 21:12:51.0	5.480	-0.130	-1.600	-0.590
2020/01/31 21:12:51.1	5.480	-0.090	-1.620	-0.610
2020/01/31 21:12:51.2	5.490	-0.060	-1.640	-0.630
2020/01/31 21:12:51.3	5.500	-0.020	-1.640	-0.640
2020/01/31 21:12:51.4	5.510	0.020	-1.640	-0.650
2020/01/31 21:12:51.5	5.520	0.060	-1.620	-0.660
2020/01/31 21:12:51.6	5.530	0.090	-1.600	-0.660
2020/01/31 21:12:51.7	5.550	0.130	-1.570	-0.660
2020/01/31 21:12:51.8	5.560	0.160	-1.520	-0.650
2020/01/31 21:12:51.9	5.580	0.190	-1.470	-0.640
2020/01/31 21:12:52.0	5.600	0.220	-1.410	-0.630
2020/01/31 21:12:52.1	5.620	0.250	-1.340	-0.620
2020/01/31 21:12:52.2	5.630	0.280	-1.260	-0.600
2020/01/31 21:12:52.3	5.650	0.300	-1.170	-0.570
2020/01/31 21:12:52.4	5.670	0.320	-1.080	-0.550
2020/01/31 21:12:52.5	5.680	0.340	-0.980	-0.510
2020/01/31 21:12:52.6	5.700	0.350	-0.870	-0.480
2020/01/31 21:12:52.7	5.710	0.360	-0.760	-0.440
2020/01/31 21:12:52.8	5.730	0.370	-0.650	-0.400
2020/01/31 21:12:52.9	5.730	0.380	-0.530	-0.350
2020/01/31 21:12:53.0	5.740	0.380	-0.410	-0.300
2020/01/31 21:12:53.1	5.750	0.380	-0.290	-0.250
2020/01/31 21:12:53.2	5.760	0.370	-0.170	-0.200
2020/01/31 21:12:53.3	5.760	0.370	-0.050	-0.150
2020/01/31 21:12:53.4	5.770	0.360	0.060	-0.090
2020/01/31 21:12:53.5	5.770	0.350	0.180	-0.030
2020/01/31 21:12:53.6	5.770	0.340	0.290	0.030
2020/01/31 21:12:53.7	5.760	0.320	0.400	0.090
2020/01/31 21:12:53.8	5.760	0.310	0.500	0.150
2020/01/31 21:12:53.9	5.750	0.290	0.590	0.210
2020/01/31 21:12:54.0	5.740	0.270	0.680	0.270
2020/01/31 21:12:54.1	5.730	0.250	0.760	0.320
2020/01/31 21:12:54.2	5.720	0.230	0.830	0.380
2020/01/31 21:12:54.3	5.710	0.220	0.890	0.430
2020/01/31 21:12:54.4	5.690	0.200	0.950	0.490
2020/01/31 21:12:54.5	5.680	0.180	0.990	0.540
2020/01/31 21:12:54.6	5.660	0.160	1.020	0.590
2020/01/31 21:12:54.7	5.650	0.140	1.050	0.630
2020/01/31 21:12:54.8	5.630	0.120	1.060	0.670
2020/01/31 21:12:54.9	5.620	0.110	1.060	0.710
2020/01/31 21:12:55.0	5.600	0.100	1.050	0.750
2020/01/31 21:12:55.1	5.580	0.080	1.030	0.780
2020/01/31 21:12:55.2	5.560	0.070	1.010	0.810
2020/01/31 21:12:55.3	5.540	0.060	0.970	0.830
2020/01/31 21:12:55.4	5.520	0.060	0.920	0.850
2020/01/31 21:12:55.5	5.500	0.050	0.870	0.870
2020/01/31 21:12:55.6	5.470	0.040	0.810	0.880
2020/01/31 21:12:55.7	5.450	0.040	0.740	0.890
2020/01/31 21:12:55.8	5.430	0.040	0.660	0.900
2020/01/31 21:12:55.9	5.400	0.040	0.580	0.900
2020/01/31 21:12:56.0	5.380	0.040	0.500	0.900
2020/01/31 21:12:56.1	5.360	0.040	0.400	0.890
2020/01/31 21:12:56.2	5.340	0.050	0.310	0.870
2020/01/31 21:12:56.3	5.330	0.050	0.200	0.850
2020/01/31 21:12:56.4	5.320	0.060	0.100	0.830
2020/01/31 21:12:56.5	5.310	0.060	-0.010	0.800
2020/01/31 21:12:56.6	5.300	0.070	-0.110	0.760
2020/01/31 21:12:56.7	5.290	0.070	-0.220	0.720
2020/01/31 21:12:56.8	5.290	0.080	-0.330	0.680
2020/01/31 21:12:56.9	5.310	0.090	-0.440	0.630
2020/01/31 21:12:57.0	5.310	0.090	-0.550	0.570
2020/01/31 21:12:57.1	5.320	0.100	-0.650	0.510
2020/01/31 21:12:57.2	5.330	0.100	-0.750	0.450
2020/01/31 21:12:57.3	5.340	0.110	-0.850	0.380
2020/01/31 21:12:57.4	5.360	0.110	-0.940	0.310
2020/01/31 21:12:57.5	5.380	0.120	-1.030	0.240
2020/01/31 21:12:57.6	5.400	0.120	-1.110	0.170
2020/01/31 21:12:57.7	5.420	0.120	-1.190	0.090
2020/01/31 21:12:57.8	5.450	0.120	-1.260	0.010
2020/01/31 21:12:57.9	5.470	0.110	-1.310	-0.070
2020/01/31 21:12:58.0	5.500	0.110	-1.360	-0.150
2020/01/31 21:12:58.1	5.530	0.100	-1.400	-0.230
2020/01/31 21:12:58.2	5.560	0.100	-1.440	-0.310
2020/01/31 21:12:58.3	5.590	0.090	-1.460	-0.380
2020/01/31 21:12:58.4	5.620	0.080	-1.470	-0.450
2020/01/31 21:12:58.5	5.650	0.060	-1.470	-0.530
2020/01/31 21:12:58.6	5.680	0.050	-1.460	-0.590
2020/01/31 21:12:58.7	5.710	0.030	-1.440	-0.660
2020/01/31 21:12:58.8	5.740	0.020	-1.410	-0.720
2020/01/31 21:12:58.9	5.760	-0.000	-1.370	-0.770
2020/01/31 21:12:59.0	5.780	-0.020	-1.320	-0.830
2020/01/31 21:12:59.1	5.810	-0.050	-1.270	-0.870
2020/01/31 21:12:59.2	5.840	-0.070	-1.200	-0.910
2020/01/31 21:12:59.3	5.860	-0.090	-1.130	-0.950
2020/01/31 21:12:59.4	5.880	-0.120	-1.050	-0.980
2020/01/31 21:12:59.5	5.900	-0.140	-0.960	-1.000
2020/01/31 21:12:59.6	5.920	-0.170	-0.870	-1.010
2020/01/31 21:12:59.7	5.930	-0.200	-0.770	-1.020
2020/01/31 21:12:59.8	5.940	-0.220	-0.670	-1.020
2020/01/31 21:12:59.9	5.940	-0.250	-0.560	-1.020
2020/01/31 21:13:00.0	5.940	-0.280	-0.460	-1.010
2020/01/31 21:13:00.1	5.950	-0.300	-0.350	-0.990
2020/01/31 21:13:00.2	5.940	-0.330	-0.240	-0.970
2020/01/31 21:13:00.3	5.940	-0.350	-0.140	-0.940
2020/01/31 21:13:00.4	5.930	-0.380	-0.030	-0.900
2020/01/31 21:13:00.5	5.920	-0.400	0.070	-0.860
2020/01/31 21:13:00.6	5.910	-0.420	0.160	-0.810
2020/01/31 21:13:00.7	5.890	-0.440	0.260	-0.760
2020/01/31 21:13:00.8	5.880	-0.460	0.340	-0.700
2020/01/31 21:13:00.9	5.860	-0.470	0.430	-0.640
2020/01/31 21:13:01.0	5.840	-0.480	0.500	-0.580
2020/01/31 21:13:01.1	5.820	-0.490	0.570	-0.510
2020/01/31 21:13:01.2	5.790	-0.500	0.620	-0.450
2020/01/31 21:13:01.3	5.770	-0.510	0.670	-0.380
2020/01/31 21:13:01.4	5.740	-0.510	0.710	-0.310
2020/01/31 21:13:01.5	5.710	-0.510	0.750	-0.240
2020/01/31 21:13:01.6	5.690	-0.500	0.770	-0.170
2020/01/31 21:13:01.7	5.660	-0.490	0.780	-0.110
2020/01/31 21:13:01.8	5.640	-0.480	0.780	-0.040
2020/01/31 21:13:01.9	5.610	-0.460	0.780	0.030
2020/01/31 21:13:02.0	5.580	-0.450	0.760	0.090
2020/01/31 21:13:02.1	5.560	-0.420	0.740	0.150
2020/01/31 21:13:02.2	5.530	-0.400	0.700	0.200
2020/01/31 21:13:02.3	5.510	-0.370	0.660	0.260
2020/01/31 21:13:02.4	5.490	-0.340	0.620	0.310
2020/01/31 21:13:02.5	5.470	-0.300	0.560	0.360
2020/01/31 21:13:02.6	5.450	-0.260	0.500	0.400
2020/01/31 21:13:02.7	5.440	-0.220	0.440	0.440
2020/01/31 21:13:02.8	5.420	-0.180	0.370	0.480
2020/01/31 21:13:02.9	5.420	-0.130	0.300	0.520
2020/01/31 21:13:03.0	5.400	-0.090	0.230	0.550
2020/01/31 21:13:03.1	5.390	-0.040	0.150	0.580
2020/01/31 21:13:03.2	5.380	0.010	0.080	0.600
2020/01/31 21:13:03.3	5.370	0.060	0.010	0.620
2020/01/31 21:13:03.4	5.360	0.110	-0.070	0.640
2020/01/31 21:13:03.5	5.350	0.160	-0.140	0.660
2020/01/31 21:13:03.6	5.340	0.210	-0.210	0.670
2020/01/31 21:13:03.7	5.330	0.250	-0.270	0.680
2020/01/31 21:13:03.8	5.320	0.300	-0.340	0.680
2020/01/31 21:13:03.9	5.300	0.350	-0.390	0.690
2020/01/31 21:13:04.0	5.290	0.390	-0.450	0.690
2020/01/31 21:13:04.1	5.280	0.430	-0.490	0.690
2020/01/31 21:13:04.2	5.270	0.460	-0.540	0.690
2020/01/31 21:13:04.3	5.260	0.500	-0.570	0.690
2020/01/31 21:13:04.4	5.240	0.530	-0.610	0.680
2020/01/31 21:13:04.5	5.230	0.550	-0.630	0.670
2020/01/31 21:13:04.6	5.210	0.570	-0.650	0.660
2020/01/31 21:13:04.7	5.200	0.590	-0.660	0.650
2020/01/31 21:13:04.8	5.180	0.600	-0.670	0.630
2020/01/31 21:13:04.9	5.170	0.610	-0.680	0.610
2020/01/31 21:13:05.0	5.160	0.610	-0.670	0.590
2020/01/31 21:13:05.1	5.150	0.610	-0.670	0.570
2020/01/31 21:13:05.2	5.130	0.610	-0.660	0.540
2020/01/31 21:13:05.3	5.120	0.600	-0.650	0.510
2020/01/31 21:13:05.4	5.100	0.580	-0.630	0.480
2020/01/31 21:13:05.5	5.090	0.560	-0.620	0.450
2020/01/31 21:13:05.6	5.080	0.540	-0.600	0.420
2020/01/31 21:13:05.7	5.070	0.510	-0.580	0.380
2020/01/31 21:13:05.8	5.060	0.480	-0.560	0.340
2020/01/31 21:13:05.9	5.060	0.450	-0.540	0.300
2020/01/31 21:13:06.0	5.050	0.420	-0.530	0.260
2020/01/31 21:13:06.1	5.050	0.380	-0.510	0.210
2020/01/31 21:13:06.2	5.050	0.350	-0.490	0.170
2020/01/31 21:13:06.3	5.050	0.310	-0.480	0.120
2020/01/31 21:13:06.4	5.060	0.270	-0.470	0.070
2020/01/31 21:13:06.5	5.060	0.230	-0.470	0.020
2020/01/31 21:13:06.6	5.070	0.190	-0.460	-0.030
2020/01/31 21:13:06.7	5.090	0.150	-0.460	-0.080
2020/01/31 21:13:06.8	5.100	0.110	-0.470	-0.140
2020/01/31 21:13:06.9	5.120	0.080	-0.470	-0.190
2020/01/31 21:13:07.0	5.140	0.040	-0.480	-0.250
2020/01/31 21:13:07.1	5.160	0.010	-0.490	-0.300
2020/01/31 21:13:07.2	5.190	-0.020	-0.510	-0.350
2020/01/31 21:13:07.3	5.210	-0.050	-0.520	-0.410
2020/01/31 21:13:07.4	5.240	-0.070	-0.540	-0.460
2020/01/31 21:13:07.5	5.270	-0.090	-0.560	-0.510
2020/01/31 21:13:07.6	5.300	-0.110	-0.580	-0.560
2020/01/31 21:13:07.7	5.330	-0.130	-0.590	-0.600
2020/01/31 21:13:07.8	5.360	-0.140	-0.610	-0.640
2020/01/31 21:13:07.9	5.390	-0.150	-0.630	-0.680
2020/01/31 21:13:08.0	5.410	-0.160	-0.640	-0.710
2020/01/31 21:13:08.1	5.440	-0.160	-0.650	-0.740
2020/01/31 21:13:08.2	5.470	-0.170	-0.650	-0.760
2020/01/31 21:13:08.3	5.500	-0.170	-0.650	-0.780
2020/01/31 21:13:08.4	5.520	-0.160	-0.650	-0.790
2020/01/31 21:13:08.5	5.550	-0.160	-0.630	-0.800
2020/01/31 21:13:08.6	5.570	-0.160	-0.620	-0.800
2020/01/31 21:13:08.7	5.580	-0.150	-0.600	-0.790
2020/01/31 21:13:08.8	5.600	-0.140	-0.570	-0.780
2020/01/31 21:13:08.9	5.620	-0.140	-0.540	-0.760
2020/01/31 21:13:09.0	5.630	-0.130	-0.500	-0.740
2020/01/31 21:13:09.1	5.640	-0.120	-0.450	-0.720
2020/01/31 21:13:09.2	5.650	-0.120	-0.410	-0.690
2020/01/31 21:13:09.3	5.650	-0.110	-0.350	-0.650
2020/01/31 21:13:09.4	5.650	-0.110	-0.300	-0.610
2020/01/31 21:13:09.5	5.650	-0.100	-0.240	-0.570
2020/01/31 21:13:09.6	5.640	-0.100	-0.180	-0.530
2020/01/31 21:13:09.7	5.640	-0.100	-0.120	-0.490
2020/01/31 21:13:09.8	5.630	-0.100	-0.060	-0.440
2020/01/31 21:13:09.9	5.610	-0.100	0.000	-0.390
2020/01/31 21:13:10.0	5.600	-0.110	0.060	-0.340
2020/01/31 21:13:10.1	5.590	-0.110	0.120	-0.290
2020/01/31 21:13:10.2	5.570	-0.120	0.170	-0.240
2020/01/31 21:13:10.3	5.560	-0.130	0.230	-0.190
2020/01/31 21:13:10.4	5.540	-0.150	0.280	-0.150
2020/01/31 21:13:10.5	5.520	-0.160	0.320	-0.100
2020/01/31 21:13:10.6	5.510	-0.180	0.360	-0.060
2020/01/31 21:13:10.7	5.490	-0.190	0.400	-0.020
2020/01/31 21:13:10.8	5.480	-0.210	0.420	0.020
2020/01/31 21:13:10.9	5.470	-0.230	0.450	0.050
2020/01/31 21:13:11.0	5.460	-0.250	0.460	0.080
2020/01/31 21:13:11.1	5.440	-0.270	0.480	0.110
2020/01/31 21:13:11.2	5.430	-0.290	0.480	0.140
2020/01/31 21:13:11.3	5.420	-0.310	0.480	0.160
2020/01/31 21:13:11.4	5.420	-0.330	0.470	0.170
2020/01/31 21:13:11.5	5.410	-0.350	0.460	0.190
2020/01/31 21:13:11.6	5.410	-0.370	0.440	0.200
2020/01/31 21:13:11.7	5.400	-0.380	0.420	0.200
2020/01/31 21:13:11.8	5.400	-0.400	0.390	0.210
2020/01/31 21:13:11.9	5.410	-0.410	0.360	0.210
2020/01/31 21:13:12.0	5.410	-0.420	0.320	0.210
2020/01/31 21:13:12.1	5.410	-0.430	0.280	0.200
2020/01/31 21:13:12.2	5.410	-0.430	0.240	0.200
2020/01/31 21:13:12.3	5.410	-0.440	0.190	0.190
2020/01/31 21:13:12.4	5.400	-0.440	0.150	0.180
2020/01/31 21:13:12.5	5.400	-0.440	0.110	0.170
2020/01/31 21:13:12.6	5.400	-0.430	0.060	0.170
2020/01/31 21:13:12.7	5.390	-0.430	0.020	0.160
2020/01/31 21:13:12.8	5.390	-0.420	-0.020	0.160
2020/01/31 21:13:12.9	5.380	-0.410	-0.060	0.150
2020/01/31 21:13:13.0	5.370	-0.390	-0.100	0.150
2020/01/31 21:13:13.1	5.360	-0.380	-0.140	0.150
2020/01/31 21:13:13.2	5.350	-0.360	-0.170	0.150
2020/01/31 21:13:13.3	5.330	-0.340	-0.200	0.150
2020/01/31 21:13:13.4	5.320	-0.320	-0.230	0.150
2020/01/31 21:13:13.5	5.300	-0.300	-0.250	0.150
2020/01/31 21:13:13.6	5.290	-0.270	-0.270	0.160
2020/01/31 21:13:13.7	5.270	-0.240	-0.300	0.170
2020/01/31 21:13:13.8	5.250	-0.220	-0.320	0.180
2020/01/31 21:13:13.9	5.230	-0.190	-0.340	0.190
2020/01/31 21:13:14.0	5.210	-0.150	-0.350	0.200
2020/01/31 21:13:14.1	5.200	-0.120	-0.370	0.210
2020/01/31 21:13:14.2	5.180	-0.090	-0.390	0.210
2020/01/31 21:13:14.3	5.170	-0.050	-0.400	0.220
2020/01/31 21:13:14.4	5.160	-0.020	-0.420	0.230
2020/01/31 21:13:14.5	5.150	0.020	-0.440	0.240
2020/01/31 21:13:14.6	5.140	0.050	-0.460	0.240
2020/01/31 21:13:14.7	5.140	0.090	-0.490	0.250
2020/01/31 21:13:14.8	5.140	0.130	-0.510	0.250
2020/01/31 21:13:14.9	5.130	0.160	-0.540	0.250
2020/01/31 21:13:15.0	5.130	0.200	-0.560	0.250
2020/01/31 21:13:15.1	5.140	0.240	-0.590	0.240
2020/01/31 21:13:15.2	5.140	0.270	-0.630	0.230
2020/01/31 21:13:15.3	5.150	0.310	-0.660	0.220
2020/01/31 21:13:15.4	5.160	0.340	-0.690	0.210
2020/01/31 21:13:15.5	5.170	0.370	-0.730	0.200
2020/01/31 21:13:15.6	5.180	0.410	-0.760	0.180
2020/01/31 21:13:15.7	5.190	0.440	-0.800	0.160
2020/01/31 21:13:15.8	5.210	0.460	-0.840	0.140
2020/01/31 21:13:15.9	5.220	0.490	-0.870	0.110
2020/01/31 21:13:16.0	5.240	0.520	-0.910	0.090
2020/01/31 21:13:16.1	5.250	0.540	-0.940	0.060
2020/01/31 21:13:16.2	5.270	0.560	-0.970	0.030
2020/01/31 21:13:16.3	5.290	0.580	-1.000	0.000
2020/01/31 21:13:16.4	5.310	0.590	-1.020	-0.030
2020/01/31 21:13:16.5	5.330	0.600	-1.040	-0.060
2020/01/31 21:13:16.6	5.360	0.610	-1.060	-0.090
2020/01/31 21:13:16.7	5.380	0.620	-1.070	-0.120
2020/01/31 21:13:16.8	5.400	0.630	-1.070	-0.150
2020/01/31 21:13:16.9	5.430	0.630	-1.070	-0.170
2020/01/31 21:13:17.0	5.450	0.620	-1.060	-0.200
2020/01/31 21:13:17.1	5.470	0.620	-1.050	-0.230
2020/01/31 21:13:17.2	5.490	0.610	-1.030	-0.250
2020/01/31 21:13:17.3	5.520	0.600	-1.000	-0.270
2020/01/31 21:13:17.4	5.540	0.590	-0.970	-0.290
2020/01/31 21:13:17.5	5.560	0.570	-0.930	-0.310
2020/01/31 21:13:17.6	5.580	0.550	-0.880	-0.320
2020/01/31 21:13:17.7	5.600	0.530	-0.830	-0.330
2020/01/31 21:13:17.8	5.620	0.510	-0.770	-0.350
2020/01/31 21:13:17.9	5.610	0.480	-0.710	-0.350
2020/01/31 21:13:18.0	5.630	0.450	-0.650	-0.360
2020/01/31 21:13:18.1	5.640	0.420	-0.580	-0.360
2020/01/31 21:13:18.2	5.650	0.390	-0.500	-0.360
2020/01/31 21:13:18.3	5.670	0.350	-0.430	-0.360
2020/01/31 21:13:18.4	5.680	0.310	-0.350	-0.350
2020/01/31 21:13:18.5	5.690	0.270	-0.270	-0.350
2020/01/31 21:13:18.6	5.690	0.230	-0.190	-0.340
2020/01/31 21:13:18.7	5.700	0.190	-0.110	-0.320
2020/01/31 21:13:18.8	5.700	0.150	-0.040	-0.310
2020/01/31 21:13:18.9	5.710	0.110	0.050	-0.290
2020/01/31 21:13:19.0	5.710	0.060	0.120	-0.270
2020/01/31 21:13:19.1	5.710	0.020	0.190	-0.260
2020/01/31 21:13:19.2	5.710	-0.030	0.260	-0.230
2020/01/31 21:13:19.3	5.700	-0.080	0.330	-0.210
2020/01/31 21:13:19.4	5.700	-0.120	0.390	-0.190
2020/01/31 21:13:19.5	5.690	-0.170	0.440	-0.170
2020/01/31 21:13:19.6	5.680	-0.210	0.490	-0.150
2020/01/31 21:13:19.7	5.670	-0.250	0.540	-0.120
2020/01/31 21:13:19.8	5.660	-0.300	0.580	-0.100
2020/01/31 21:13:19.9	5.660	-0.340	0.610	-0.080
2020/01/31 21:13:20.0	5.640	-0.380	0.640	-0.060
2020/01/31 21:13:20.1	5.630	-0.410	0.660	-0.040
2020/01/31 21:13:20.2	5.620	-0.450	0.670	-0.020
2020/01/31 21:13:20.3	5.600	-0.480	0.680	-0.000
2020/01/31 21:13:20.4	5.590	-0.510	0.680	0.010
2020/01/31 21:13:20.5	5.570	-0.540	0.680	0.020
2020/01/31 21:13:20.6	5.560	-0.560	0.670	0.030
2020/01/31 21:13:20.7	5.540	-0.590	0.650	0.030
2020/01/31 21:13:20.8	5.530	-0.600	0.630	0.040
2020/01/31 21:13:20.9	5.520	-0.620	0.600	0.040
2020/01/31 21:13:21.0	5.510	-0.630	0.570	0.040
2020/01/31 21:13:21.1	5.490	-0.630	0.530	0.040
2020/01/31 21:13:21.2	5.480	-0.630	0.490	0.040
2020/01/31 21:13:21.3	5.470	-0.630	0.440	0.030
2020/01/31 21:13:21.4	5.460	-0.620	0.390	0.030
2020/01/31 21:13:21.5	5.450	-0.610	0.340	0.020
2020/01/31 21:13:21.6	5.440	-0.600	0.290	0.010
2020/01/31 21:13:21.7	5.430	-0.580	0.230	0.010
2020/01/31 21:13:21.8	5.420	-0.550	0.170	0.000
2020/01/31 21:13:21.9	5.420	-0.530	0.120	-0.000
2020/01/31 21:13:22.0	5.410	-0.500	0.060	-0.010
2020/01/31 21:13:22.1	5.400	-0.460	-0.000	-0.010
2020/01/31 21:13:22.2	5.390	-0.430	-0.060	-0.010
2020/01/31 21:13:22.3	5.390	-0.390	-0.120	-0.010
2020/01/31 21:13:22.4	5.380	-0.350	-0.180	-0.010
2020/01/31 21:13:22.5	5.370	-0.300	-0.230	-0.010
2020/01/31 21:13:22.6	5.360	-0.260	-0.290	-0.010
2020/01/31 21:13:22.7	5.350	-0.210	-0.340	-0.010
2020/01/31 21:13:22.8	5.350	-0.170	-0.390	-0.010
2020/01/31 21:13:22.9	5.320	-0.120	-0.440	-0.000
2020/01/31 21:13:23.0	5.310	-0.080	-0.490	0.000
2020/01/31 21:13:23.1	5.310	-0.030	-0.530	0.010
2020/01/31 21:13:23.2	5.300	0.010	-0.570	0.010
2020/01/31 21:13:23.3	5.290	0.060	-0.600	0.010
2020/01/31 21:13:23.4	5.280	0.100	-0.630	0.020
2020/01/31 21:13:23.5	5.270	0.130	-0.660	0.020
2020/01/31 21:13:23.6	5.260	0.170	-0.680	0.030
2020/01/31 21:13:23.7	5.260	0.200	-0.700	0.030
2020/01/31 21:13:23.8	5.250	0.230	-0.720	0.040
2020/01/31 21:13:23.9	5.250	0.260	-0.730	0.040
2020/01/31 21:13:24.0	5.240	0.280	-0.730	0.050
2020/01/31 21:13:24.1	5.240	0.300	-0.740	0.050
2020/01/31 21:13:24.2	5.230	0.320	-0.730	0.060
2020/01/31 21:13:24.3	5.230	0.330	-0.730	0.060
2020/01/31 21:13:24.4	5.220	0.340	-0.720	0.070
2020/01/31 21:13:24.5	5.220	0.340	-0.700	0.070
2020/01/31 21:13:24.6	5.220	0.340	-0.680	0.070
2020/01/31 21:13:24.7	5.220	0.340	-0.660	0.070
2020/01/31 21:13:24.8	5.220	0.330	-0.640	0.070
2020/01/31 21:13:24.9	5.230	0.330	-0.610	0.070
2020/01/31 21:13:25.0	5.230	0.310	-0.580	0.080
2020/01/31 21:13:25.1	5.240	0.300	-0.550	0.070
2020/01/31 21:13:25.2	5.250	0.280	-0.510	0.070
2020/01/31 21:13:25.3	5.260	0.260	-0.480	0.060
2020/01/31 21:13:25.4	5.270	0.240	-0.440	0.050
2020/01/31 21:13:25.5	5.290	0.210	-0.410	0.040
2020/01/31 21:13:25.6	5.300	0.180	-0.370	0.020
2020/01/31 21:13:25.7	5.320	0.160	-0.330	0.010
2020/01/31 21:13:25.8	5.340	0.130	-0.300	-0.010
2020/01/31 21:13:25.9	5.350	0.100	-0.260	-0.030
2020/01/31 21:13:26.0	5.380	0.070	-0.230	-0.050
2020/01/31 21:13:26.1	5.400	0.040	-0.190	-0.070
2020/01/31 21:13:26.2	5.430	0.010	-0.160	-0.100
2020/01/31 21:13:26.3	5.450	-0.020	-0.140	-0.120
2020/01/31 21:13:26.4	5.470	-0.050	-0.110	-0.150
2020/01/31 21:13:26.5	5.500	-0.070	-0.090	-0.180
2020/01/31 21:13:26.6	5.520	-0.100	-0.070	-0.210
2020/01/31 21:13:26.7	5.550	-0.130	-0.050	-0.240
2020/01/31 21:13:26.8	5.570	-0.150	-0.040	-0.270
2020/01/31 21:13:26.9	5.590	-0.170	-0.030	-0.300
2020/01/31 21:13:27.0	5.620	-0.200	-0.020	-0.320
2020/01/31 21:13:27.1	5.640	-0.220	-0.020	-0.350
2020/01/31 21:13:27.2	5.660	-0.230	-0.020	-0.380
2020/01/31 21:13:27.3	5.680	-0.250	-0.030	-0.410
2020/01/31 21:13:27.4	5.700	-0.260	-0.040	-0.430
2020/01/31 21:13:27.5	5.710	-0.280	-0.050	-0.460
2020/01/31 21:13:27.6	5.730	-0.280	-0.070	-0.480
2020/01/31 21:13:27.7	5.740	-0.290	-0.090	-0.500
2020/01/31 21:13:27.8	5.760	-0.300	-0.110	-0.530
2020/01/31 21:13:27.9	5.770	-0.300	-0.140	-0.540
2020/01/31 21:13:28.0	5.780	-0.300	-0.170	-0.560
2020/01/31 21:13:28.1	5.790	-0.300	-0.200	-0.580
2020/01/31 21:13:28.2	5.800	-0.300	-0.240	-0.590
2020/01/31 21:13:28.3	5.810	-0.290	-0.270	-0.610
2020/01/31 21:13:28.4	5.810	-0.290	-0.310	-0.620
2020/01/31 21:13:28.5	5.820	-0.280	-0.350	-0.630
2020/01/31 21:13:28.6	5.820	-0.270	-0.390	-0.640
2020/01/31 21:13:28.7	5.830	-0.260	-0.420	-0.650
2020/01/31 21:13:28.8	5.830	-0.250	-0.460	-0.660
2020/01/31 21:13:28.9	5.820	-0.230	-0.500	-0.660
2020/01/31 21:13:29.0	5.820	-0.220	-0.530	-0.660
2020/01/31 21:13:29.1	5.820	-0.200	-0.570	-0.660
2020/01/31 21:13:29.2	5.820	-0.180	-0.600	-0.660
2020/01/31 21:13:29.3	5.820	-0.170	-0.630	-0.650
2020/01/31 21:13:29.4	5.810	-0.150	-0.660	-0.650
2020/01/31 21:13:29.5	5.800	-0.130	-0.680	-0.640
2020/01/31 21:13:29.6	5.790	-0.110	-0.700	-0.620
2020/01/31 21:13:29.7	5.780	-0.090	-0.710	-0.600
2020/01/31 21:13:29.8	5.760	-0.070	-0.720	-0.580
2020/01/31 21:13:29.9	5.740	-0.060	-0.720	-0.560
2020/01/31 21:13:30.0	5.720	-0.040	-0.720	-0.520
2020/01/31 21:13:30.1	5.700	-0.020	-0.710	-0.490
2020/01/31 21:13:30.2	5.680	-0.000	-0.690	-0.450
2020/01/31 21:13:30.3	5.650	0.020	-0.670	-0.410
2020/01/31 21:13:30.4	5.620	0.030	-0.650	-0.370
2020/01/31 21:13:30.5	5.590	0.050	-0.610	-0.320
2020/01/31 21:13:30.6	5.560	0.070	-0.570	-0.270
2020/01/31 21:13:30.7	5.530	0.080	-0.530	-0.220
2020/01/31 21:13:30.8	5.500	0.100	-0.480	-0.170
2020/01/31 21:13:30.9	5.470	0.110	-0.430	-0.110
2020/01/31 21:13:31.0	5.440	0.130	-0.370	-0.060
2020/01/31 21:13:31.1	5.410	0.140	-0.310	-0.000
2020/01/31 21:13:31.2	5.380	0.160	-0.250	0.050
2020/01/31 21:13:31.3	5.350	0.170	-0.190	0.110
2020/01/31 21:13:31.4	5.320	0.190	-0.120	0.160
2020/01/31 21:13:31.5	5.290	0.200	-0.060	0.220
2020/01/31 21:13:31.6	5.260	0.220	0.000	0.270
2020/01/31 21:13:31.7	5.230	0.230	0.070	0.320
2020/01/31 21:13:31.8	5.200	0.250	0.120	0.370
2020/01/31 21:13:31.9	5.180	0.260	0.180	0.420
2020/01/31 21:13:32.0	5.160	0.280	0.230	0.470
2020/01/31 21:13:32.1	5.140	0.290	0.280	0.510
2020/01/31 21:13:32.2	5.120	0.310	0.320	0.560
2020/01/31 21:13:32.3	5.100	0.320	0.360	0.600
2020/01/31 21:13:32.4	5.080	0.340	0.390	0.640
2020/01/31 21:13:32.5	5.060	0.350	0.410	0.680
2020/01/31 21:13:32.6	5.050	0.370	0.430	0.710
2020/01/31 21:13:32.7	5.030	0.380	0.450	0.750
2020/01/31 21:13:32.8	5.020	0.400	0.450	0.780
2020/01/31 21:13:32.9	5.010	0.410	0.450	0.800
2020/01/31 21:13:33.0	5.000	0.420	0.450	0.830
2020/01/31 21:13:33.1	4.990	0.430	0.430	0.850
2020/01/31 21:13:33.2	4.980	0.440	0.420	0.870
2020/01/31 21:13:33.3	4.970	0.450	0.390	0.880
2020/01/31 21:13:33.4	4.960	0.450	0.360	0.890
2020/01/31 21:13:33.5	4.950	0.450	0.330	0.890
2020/01/31 21:13:33.6	4.950	0.460	0.290	0.890
2020/01/31 21:13:33.7	4.950	0.450	0.240	0.890
2020/01/31 21:13:33.8	4.950	0.450	0.190	0.880
2020/01/31 21:13:33.9	4.950	0.440	0.140	0.860
2020/01/31 21:13:34.0	4.950	0.430	0.080	0.850
2020/01/31 21:13:34.1	4.960	0.420	0.020	0.820
2020/01/31 21:13:34.2	4.960	0.400	-0.040	0.790
2020/01/31 21:13:34.3	4.970	0.380	-0.100	0.760
2020/01/31 21:13:34.4	4.980	0.360	-0.170	0.730
2020/01/31 21:13:34.5	4.990	0.340	-0.230	0.690
2020/01/31 21:13:34.6	5.000	0.310	-0.300	0.640
2020/01/31 21:13:34.7	5.020	0.280	-0.360	0.600
2020/01/31 21:13:34.8	5.040	0.250	-0.430	0.540
2020/01/31 21:13:34.9	5.070	0.210	-0.490	0.490
2020/01/31 21:13:35.0	5.090	0.180	-0.550	0.430
2020/01/31 21:13:35.1	5.110	0.140	-0.610	0.370
2020/01/31 21:13:35.2	5.130	0.100	-0.670	0.310
2020/01/31 21:13:35.3	5.160	0.050	-0.720	0.240
2020/01/31 21:13:35.4	5.180	0.010	-0.770	0.170
2020/01/31 21:13:35.5	5.210	-0.040	-0.820	0.100
2020/01/31 21:13:35.6	5.240	-0.080	-0.860	0.030
2020/01/31 21:13:35.7	5.270	-0.130	-0.900	-0.050
2020/01/31 21:13:35.8	5.300	-0.180	-0.930	-0.130
2020/01/31 21:13:35.9	5.310	-0.220	-0.960	-0.210
2020/01/31 21:13:36.0	5.350	-0.270	-0.990	-0.290
2020/01/31 21:13:36.1	5.380	-0.320	-1.010	-0.370
2020/01/31 21:13:36.2	5.410	-0.360	-1.020	-0.440
2020/01/31 21:13:36.3	5.450	-0.410	-1.030	-0.520
2020/01/31 21:13:36.4	5.490	-0.450	-1.030	-0.600
2020/01/31 21:13:36.5	5.520	-0.490	-1.030	-0.670
2020/01/31 21:13:36.6	5.560	-0.530	-1.020	-0.750
2020/01/31 21:13:36.7	5.590	-0.570	-1.000	-0.820
2020/01/31 21:13:36.8	5.630	-0.600	-0.980	-0.880
2020/01/31 21:13:36.9	5.650	-0.630	-0.960	-0.950
2020/01/31 21:13:37.0	5.680	-0.660	-0.920	-1.000
2020/01/31 21:13:37.1	5.710	-0.690	-0.890	-1.050
2020/01/31 21:13:37.2	5.730	-0.710	-0.840	-1.100
2020/01/31 21:13:37.3	5.760	-0.730	-0.790	-1.140
2020/01/31 21:13:37.4	5.780	-0.750	-0.730	-1.170
2020/01/31 21:13:37.5	5.790	-0.770	-0.670	-1.190
2020/01/31 21:13:37.6	5.810	-0.780	-0.610	-1.210
2020/01/31 21:13:37.7	5.820	-0.780	-0.540	-1.230
2020/01/31 21:13:37.8	5.820	-0.790	-0.470	-1.230
2020/01/31 21:13:37.9	5.820	-0.790	-0.390	-1.230
2020/01/31 21:13:38.0	5.830	-0.790	-0.310	-1.230
2020/01/31 21:13:38.1	5.830	-0.780	-0.240	-1.220
2020/01/31 21:13:38.2	5.820	-0.770	-0.160	-1.200
2020/01/31 21:13:38.3	5.820	-0.760	-0.080	-1.180
2020/01/31 21:13:38.4	5.810	-0.740	0.000	-1.150
2020/01/31 21:13:38.5	5.800	-0.720	0.080	-1.120
2020/01/31 21:13:38.6	5.780	-0.700	0.150	-1.080
2020/01/31 21:13:38.7	5.770	-0.670	0.230	-1.040
2020/01/31 21:13:38.8	5.750	-0.640	0.290	-0.990
2020/01/31 21:13:38.9	5.730	-0.610	0.350	-0.940
2020/01/31 21:13:39.0	5.710	-0.570	0.410	-0.880
2020/01/31 21:13:39.1	5.690	-0.530	0.460	-0.820
2020/01/31 21:13:39.2	5.660	-0.490	0.500	-0.750
2020/01/31 21:13:39.3	5.640	-0.440	0.540	-0.680
2020/01/31 21:13:39.4	5.610	-0.390	0.560	-0.610
2020/01/31 21:13:39.5	5.580	-0.340	0.580	-0.530
2020/01/31 21:13:39.6	5.550	-0.290	0.600	-0.450
2020/01/31 21:13:39.7	5.520	-0.230	0.600	-0.360
2020/01/31 21:13:39.8	5.490	-0.170	0.600	-0.280
2020/01/31 21:13:39.9	5.460	-0.110	0.590	-0.180
2020/01/31 21:13:40.0	5.420	-0.050	0.570	-0.090
2020/01/31 21:13:40.1	5.380	0.010	0.540	0.000
2020/01/31 21:13:40.2	5.350	0.080	0.510	0.090
2020/01/31 21:13:40.3	5.310	0.140	0.470	0.180
2020/01/31 21:13:40.4	5.270	0.210	0.420	0.270
2020/01/31 21:13:40.5	5.230	0.270	0.370	0.350
2020/01/31 21:13:40.6	5.190	0.330	0.310	0.430
2020/01/31 21:13:40.7	5.150	0.400	0.250	0.510
2020/01/31 21:13:40.8	5.120	0.460	0.190	0.590
2020/01/31 21:13:40.9	5.080	0.520	0.120	0.660
2020/01/31 21:13:41.0	5.050	0.580	0.050	0.730
2020/01/31 21:13:41.1	5.010	0.630	-0.020	0.790
2020/01/31 21:13:41.2	4.970	0.690	-0.090	0.840
2020/01/31 21:13:41.3	4.940	0.740	-0.160	0.900
2020/01/31 21:13:41.4	4.900	0.790	-0.230	0.940
2020/01/31 21:13:41.5	4.870	0.830	-0.300	0.990
2020/01/31 21:13:41.6	4.840	0.870	-0.370	1.020
2020/01/31 21:13:41.7	4.810	0.900	-0.440	1.060
2020/01/31 21:13:41.8	4.790	0.930	-0.500	1.090
2020/01/31 21:13:41.9	4.760	0.960	-0.560	1.110
2020/01/31 21:13:42.0	4.740	0.980	-0.620	1.130
2020/01/31 21:13:42.1	4.720	1.000	-0.670	1.150
2020/01/31 21:13:42.2	4.690	1.010	-0.720	1.160
2020/01/31 21:13:42.3	4.670	1.010	-0.760	1.170
2020/01/31 21:13:42.4	4.660	1.010	-0.800	1.170
2020/01/31 21:13:42.5	4.640	1.000	-0.830	1.170
2020/01/31 21:13:42.6	4.620	0.990	-0.850	1.170
2020/01/31 21:13:42.7	4.610	0.970	-0.870	1.160
2020/01/31 21:13:42.8	4.600	0.940	-0.880	1.140
2020/01/31 21:13:42.9	4.600	0.910	-0.890	1.120
2020/01/31 21:13:43.0	4.590	0.880	-0.890	1.090
2020/01/31 21:13:43.1	4.580	0.840	-0.890	1.060
2020/01/31 21:13:43.2	4.580	0.790	-0.880	1.020
2020/01/31 21:13:43.3	4.580	0.740	-0.870	0.970
2020/01/31 21:13:43.4	4.580	0.680	-0.860	0.920
2020/01/31 21:13:43.5	4.580	0.620	-0.840	0.860
2020/01/31 21:13:43.6	4.590	0.560	-0.820	0.800
2020/01/31 21:13:43.7	4.600	0.490	-0.790	0.730
2020/01/31 21:13:43.8	4.610	0.430	-0.770	0.660
2020/01/31 21:13:43.9	4.630	0.360	-0.740	0.580
2020/01/31 21:13:44.0	4.650	0.280	-0.710	0.500
2020/01/31 21:13:44.1	4.670	0.210	-0.680	0.410
2020/01/31 21:13:44.2	4.690	0.140	-0.650	0.330
2020/01/31 21:13:44.3	4.720	0.070	-0.610	0.240
2020/01/31 21:13:44.4	4.740	-0.000	-0.580	0.140
2020/01/31 21:13:44.5	4.770	-0.070	-0.550	0.050
2020/01/31 21:13:44.6	4.800	-0.140	-0.510	-0.040
2020/01/31 21:13:44.7	4.840	-0.200	-0.480	-0.130
2020/01/31 21:13:44.8	4.870	-0.260	-0.450	-0.220
2020/01/31 21:13:44.9	4.900	-0.320	-0.410	-0.320
2020/01/31 21:13:45.0	4.940	-0.380	-0.370	-0.400
2020/01/31 21:13:45.1	4.970	-0.430	-0.340	-0.480
2020/01/31 21:13:45.2	5.010	-0.470	-0.310	-0.560
2020/01/31 21:13:45.3	5.040	-0.520	-0.270	-0.640
2020/01/31 21:13:45.4	5.070	-0.550	-0.240	-0.710
2020/01/31 21:13:45.5	5.100	-0.590	-0.200	-0.770
2020/01/31 21:13:45.6	5.130	-0.620	-0.170	-0.830
2020/01/31 21:13:45.7	5.160	-0.640	-0.130	-0.890
2020/01/31 21:13:45.8	5.190	-0.660	-0.100	-0.940
2020/01/31 21:13:45.9	5.210	-0.670	-0.070	-0.980
2020/01/31 21:13:46.0	5.230	-0.680	-0.030	-1.020
2020/01/31 21:13:46.1	5.250	-0.680	-0.000	-1.050
2020/01/31 21:13:46.2	5.270	-0.680	0.030	-1.070
2020/01/31 21:13:46.3	5.280	-0.680	0.060	-1.080
2020/01/31 21:13:46.4	5.290	-0.670	0.090	-1.090
2020/01/31 21:13:46.5	5.300	-0.660	0.120	-1.090
2020/01/31 21:13:46.6	5.300	-0.650	0.140	-1.090
2020/01/31 21:13:46.7	5.300	-0.630	0.160	-1.080
2020/01/31 21:13:46.8	5.300	-0.610	0.180	-1.060
2020/01/31 21:13:46.9	5.280	-0.590	0.190	-1.040
2020/01/31 21:13:47.0	5.280	-0.560	0.210	-1.010
2020/01/31 21:13:47.1	5.270	-0.540	0.220	-0.980
2020/01/31 21:13:47.2	5.260	-0.510	0.220	-0.950
2020/01/31 21:13:47.3	5.240	-0.490	0.230	-0.910
2020/01/31 21:13:47.4	5.230	-0.460	0.230	-0.870
2020/01/31 21:13:47.5	5.210	-0.430	0.220	-0.830
2020/01/31 21:13:47.6	5.200	-0.400	0.220	-0.780
2020/01/31 21:13:47.7	5.180	-0.380	0.210	-0.730
2020/01/31 21:13:47.8	5.160	-0.350	0.200	-0.680
2020/01/31 21:13:47.9	5.140	-0.330	0.180	-0.630
2020/01/31 21:13:48.0	5.110	-0.300	0.170	-0.570
2020/01/31 21:13:48.1	5.090	-0.280	0.150	-0.520
2020/01/31 21:13:48.2	5.070	-0.260	0.130	-0.470
2020/01/31 21:13:48.3	5.040	-0.240	0.110	-0.410
2020/01/31 21:13:48.4	5.020	-0.230	0.090	-0.360
2020/01/31 21:13:48.5	4.990	-0.210	0.060	-0.310
2020/01/31 21:13:48.6	4.970	-0.200	0.040	-0.260
2020/01/31 21:13:48.7	4.940	-0.190	0.010	-0.210
2020/01/31 21:13:48.8	4.920	-0.180	-0.010	-0.170
2020/01/31 21:13:48.9	4.890	-0.170	-0.040	-0.120
2020/01/31 21:13:49.0	4.870	-0.170	-0.060	-0.080
2020/01/31 21:13:49.1	4.850	-0.160	-0.080	-0.040
2020/01/31 21:13:49.2	4.830	-0.160	-0.110	0.000
2020/01/31 21:13:49.3	4.810	-0.150	-0.130	0.040
2020/01/31 21:13:49.4	4.790	-0.150	-0.160	0.070
2020/01/31 21:13:49.5	4.770	-0.150	-0.180	0.110
2020/01/31 21:13:49.6	4.750	-0.140	-0.200	0.140
2020/01/31 21:13:49.7	4.740	-0.140	-0.220	0.170
2020/01/31 21:13:49.8	4.720	-0.140	-0.240	0.200
2020/01/31 21:13:49.9	4.700	-0.130	-0.260	0.230
2020/01/31 21:13:50.0	4.690	-0.130	-0.280	0.260
2020/01/31 21:13:50.1	4.680	-0.120	-0.300	0.280
2020/01/31 21:13:50.2	4.660	-0.110	-0.310	0.310
2020/01/31 21:13:50.3	4.650	-0.100	-0.330	0.340
2020/01/31 21:13:50.4	4.640	-0.090	-0.340	0.360
2020/01/31 21:13:50.5	4.630	-0.080	-0.360	0.390
2020/01/31 21:13:50.6	4.630	-0.060	-0.370	0.410
2020/01/31 21:13:50.7	4.620	-0.050	-0.380	0.440
2020/01/31 21:13:50.8	4.610	-0.030	-0.400	0.460
2020/01/31 21:13:50.9	4.610	-0.010	-0.410	0.480
2020/01/31 21:13:51.0	4.610	0.020	-0.420	0.500
2020/01/31 21:13:51.1	4.600	0.040	-0.430	0.510
2020/01/31 21:13:51.2	4.600	0.070	-0.450	0.530
2020/01/31 21:13:51.3	4.600	0.100	-0.460	0.540
2020/01/31 21:13:51.4	4.600	0.130	-0.480	0.550
2020/01/31 21:13:51.5	4.600	0.160	-0.490	0.550
2020/01/31 21:13:51.6	4.600	0.190	-0.510	0.560
2020/01/31 21:13:51.7	4.600	0.220	-0.520	0.560
2020/01/31 21:13:51.8	4.610	0.250	-0.540	0.560
2020/01/31 21:13:51.9	4.600	0.280	-0.550	0.560
2020/01/31 21:13:52.0	4.600	0.310	-0.570	0.560
2020/01/31 21:13:52.1	4.610	0.340	-0.580	0.550
2020/01/31 21:13:52.2	4.610	0.370	-0.600	0.550
2020/01/31 21:13:52.3	4.600	0.400	-0.610	0.550
2020/01/31 21:13:52.4	4.600	0.430	-0.630	0.550
2020/01/31 21:13:52.5	4.600	0.450	-0.640	0.550
2020/01/31 21:13:52.6	4.600	0.470	-0.650	0.540
2020/01/31 21:13:52.7	4.590	0.490	-0.660	0.540
2020/01/31 21:13:52.8	4.590	0.500	-0.660	0.540
2020/01/31 21:13:52.9	4.580	0.520	-0.670	0.540
2020/01/31 21:13:53.0	4.570	0.530	-0.670	0.540
2020/01/31 21:13:53.1	4.570	0.530	-0.670	0.530
2020/01/31 21:13:53.2	4.560	0.530	-0.670	0.530
2020/01/31 21:13:53.3	4.550	0.530	-0.660	0.520
2020/01/31 21:13:53.4	4.540	0.530	-0.660	0.510
2020/01/31 21:13:53.5	4.540	0.520	-0.650	0.500
2020/01/31 21:13:53.6	4.530	0.510	-0.640	0.480
2020/01/31 21:13:53.7	4.530	0.500	-0.620	0.460
2020/01/31 21:13:53.8	4.520	0.480	-0.610	0.440
2020/01/31 21:13:53.9	4.520	0.460	-0.600	0.420
2020/01/31 21:13:54.0	4.520	0.430	-0.580	0.390
2020/01/31 21:13:54.1	4.520	0.410	-0.560	0.360
2020/01/31 21:13:54.2	4.520	0.380	-0.540	0.320
2020/01/31 21:13:54.3	4.520	0.360	-0.520	0.280
2020/01/31 21:13:54.4	4.530	0.330	-0.500	0.240
2020/01/31 21:13:54.5	4.530	0.300	-0.480	0.200
2020/01/31 21:13:54.6	4.540	0.270	-0.460	0.160
2020/01/31 21:13:54.7	4.540	0.240	-0.440	0.110
2020/01/31 21:13:54.8	4.550	0.210	-0.410	0.070
2020/01/31 21:13:54.9	4.550	0.180	-0.390	0.020
2020/01/31 21:13:55.0	4.560	0.150	-0.360	-0.030
2020/01/31 21:13:55.1	4.570	0.130	-0.340	-0.070
2020/01/31 21:13:55.2	4.580	0.100	-0.310	-0.110
2020/01/31 21:13:55.3	4.590	0.080	-0.280	-0.150
2020/01/31 21:13:55.4	4.610	0.060	-0.260	-0.190
2020/01/31 21:13:55.5	4.620	0.040	-0.230	-0.230
2020/01/31 21:13:55.6	4.630	0.020	-0.200	-0.260
2020/01/31 21:13:55.7	4.640	0.010	-0.180	-0.280
2020/01/31 21:13:55.8	4.650	-0.000	-0.150	-0.310
2020/01/31 21:13:55.9	4.660	-0.010	-0.120	-0.330
2020/01/31 21:13:56.0	4.670	-0.020	-0.090	-0.340
2020/01/31 21:13:56.1	4.680	-0.020	-0.070	-0.350
2020/01/31 21:13:56.2	4.690	-0.020	-0.040	-0.360
2020/01/31 21:13:56.3	4.690	-0.020	-0.020	-0.360
2020/01/31 21:13:56.4	4.700	-0.020	0.000	-0.360
2020/01/31 21:13:56.5	4.700	-0.010	0.020	-0.360
2020/01/31 21:13:56.6	4.710	-0.000	0.040	-0.350
2020/01/31 21:13:56.7	4.710	0.000	0.060	-0.340
2020/01/31 21:13:56.8	4.710	0.020	0.080	-0.320
2020/01/31 21:13:56.9	4.710	0.030	0.090	-0.310
2020/01/31 21:13:57.0	4.710	0.040	0.100	-0.290
2020/01/31 21:13:57.1	4.700	0.050	0.110	-0.280
2020/01/31 21:13:57.2	4.700	0.070	0.120	-0.260
2020/01/31 21:13:57.3	4.700	0.080	0.120	-0.240
2020/01/31 21:13:57.4	4.690	0.090	0.120	-0.220
2020/01/31 21:13:57.5	4.690	0.110	0.120	-0.190
2020/01/31 21:13:57.6	4.680	0.120	0.120	-0.170
2020/01/31 21:13:57.7	4.670	0.130	0.120	-0.150
2020/01/31 21:13:57.8	4.660	0.140	0.110	-0.120
2020/01/31 21:13:57.9	4.650	0.140	0.100	-0.090
2020/01/31 21:13:58.0	4.640	0.150	0.090	-0.070
2020/01/31 21:13:58.1	4.630	0.150	0.090	-0.040
2020/01/31 21:13:58.2	4.610	0.150	0.080	-0.020
2020/01/31 21:13:58.3	4.600	0.150	0.070	0.010
2020/01/31 21:13:58.4	4.580	0.140	0.060	0.040
2020/01/31 21:13:58.5	4.560	0.130	0.050	0.070
2020/01/31 21:13:58.6	4.550	0.120	0.040	0.100
2020/01/31 21:13:58.7	4.530	0.110	0.040	0.120
2020/01/31 21:13:58.8	4.510	0.090	0.030	0.150
2020/01/31 21:13:58.9	4.490	0.070	0.020	0.180
2020/01/31 21:13:59.0	4.460	0.040	0.020	0.200
2020/01/31 21:13:59.1	4.440	0.010	0.010	0.220
2020/01/31 21:13:59.2	4.420	-0.020	0.000	0.240
2020/01/31 21:13:59.3	4.400	-0.050	-0.000	0.260
2020/01/31 21:13:59.4	4.380	-0.090	-0.010	0.280
2020/01/31 21:13:59.5	4.370	-0.120	-0.010	0.290
2020/01/31 21:13:59.6	4.350	-0.160	-0.020	0.300
2020/01/31 21:13:59.7	4.340	-0.210	-0.020	0.310
2020/01/31 21:13:59.8	4.320	-0.250	-0.020	0.310
2020/01/31 21:13:59.9	4.310	-0.290	-0.030	0.310
2020/01/31 21:14:00.0	4.300	-0.330	-0.030	0.310
2020/01/31 21:14:00.1	4.290	-0.380	-0.040	0.310
2020/01/31 21:14:00.2	4.290	-0.420	-0.040	0.300
2020/01/31 21:14:00.3	4.280	-0.460	-0.050	0.290
2020/01/31 21:14:00.4	4.280	-0.500	-0.050	0.280
2020/01/31 21:14:00.5	4.280	-0.540	-0.060	0.260
2020/01/31 21:14:00.6	4.280	-0.570	-0.060	0.250
2020/01/31 21:14:00.7	4.290	-0.610	-0.070	0.230
2020/01/31 21:14:00.8	4.290	-0.640	-0.070	0.210
2020/01/31 21:14:00.9	4.300	-0.670	-0.080	0.190
2020/01/31 21:14:01.0	4.300	-0.690	-0.090	0.170
2020/01/31 21:14:01.1	4.310	-0.720	-0.100	0.150
2020/01/31 21:14:01.2	4.320	-0.730	-0.110	0.130
2020/01/31 21:14:01.3	4.330	-0.750	-0.120	0.100
2020/01/31 21:14:01.4	4.340	-0.760	-0.130	0.080
2020/01/31 21:14:01.5	4.350	-0.760	-0.140	0.060
2020/01/31 21:14:01.6	4.360	-0.760	-0.160	0.030
2020/01/31 21:14:01.7	4.370	-0.760	-0.170	0.010
2020/01/31 21:14:01.8	4.390	-0.750	-0.190	-0.010
2020/01/31 21:14:01.9	4.410	-0.740	-0.210	-0.040
2020/01/31 21:14:02.0	4.420	-0.720	-0.230	-0.060
2020/01/31 21:14:02.1	4.440	-0.690	-0.250	-0.080
2020/01/31 21:14:02.2	4.450	-0.670	-0.280	-0.090
2020/01/31 21:14:02.3	4.460	-0.640	-0.300	-0.110
2020/01/31 21:14:02.4	4.480	-0.600	-0.330	-0.130
2020/01/31 21:14:02.5	4.490	-0.560	-0.350	-0.140
2020/01/31 21:14:02.6	4.500	-0.520	-0.380	-0.150
2020/01/31 21:14:02.7	4.520	-0.480	-0.410	-0.160
2020/01/31 21:14:02.8	4.530	-0.430	-0.440	-0.170
2020/01/31 21:14:02.9	4.540	-0.380	-0.470	-0.180
2020/01/31 21:14:03.0	4.550	-0.320	-0.500	-0.190
2020/01/31 21:14:03.1	4.570	-0.270	-0.530	-0.190
2020/01/31 21:14:03.2	4.580	-0.210	-0.570	-0.190
2020/01/31 21:14:03.3	4.600	-0.150	-0.600	-0.190
2020/01/31 21:14:03.4	4.610	-0.090	-0.630	-0.190
2020/01/31 21:14:03.5	4.620	-0.030	-0.660	-0.190
2020/01/31 21:14:03.6	4.640	0.030	-0.690	-0.190
2020/01/31 21:14:03.7	4.650	0.090	-0.720	-0.180
2020/01/31 21:14:03.8	4.670	0.150	-0.750	-0.180
2020/01/31 21:14:03.9	4.670	0.210	-0.770	-0.170
2020/01/31 21:14:04.0	4.680	0.270	-0.790	-0.150
2020/01/31 21:14:04.1	4.690	0.330	-0.820	-0.140
2020/01/31 21:14:04.2	4.700	0.390	-0.830	-0.120
2020/01/31 21:14:04.3	4.710	0.440	-0.850	-0.100
2020/01/31 21:14:04.4	4.710	0.490	-0.860	-0.080
2020/01/31 21:14:04.5	4.720	0.540	-0.870	-0.060
2020/01/31 21:14:04.6	4.720	0.580	-0.870	-0.040
2020/01/31 21:14:04.7	4.720	0.620	-0.870	-0.010
2020/01/31 21:14:04.8	4.720	0.660	-0.870	0.020
2020/01/31 21:14:04.9	4.710	0.690	-0.870	0.040
2020/01/31 21:14:05.0	4.710	0.720	-0.860	0.080
2020/01/31 21:14:05.1	4.700	0.740	-0.840	0.110
2020/01/31 21:14:05.2	4.690	0.760	-0.820	0.140
2020/01/31 21:14:05.3	4.680	0.780	-0.800	0.170
2020/01/31 21:14:05.4	4.660	0.790	-0.770	0.210
2020/01/31 21:14:05.5	4.650	0.790	-0.740	0.240
2020/01/31 21:14:05.6	4.630	0.790	-0.710	0.270
2020/01/31 21:14:05.7	4.610	0.790	-0.670	0.300
2020/01/31 21:14:05.8	4.590	0.780	-0.630	0.330
2020/01/31 21:14:05.9	4.560	0.770	-0.580	0.370
2020/01/31 21:14:06.0	4.540	0.750	-0.540	0.390
2020/01/31 21:14:06.1	4.520	0.730	-0.490	0.420
2020/01/31 21:14:06.2	4.490	0.710	-0.440	0.440
2020/01/31 21:14:06.3	4.460	0.680	-0.390	0.460
2020/01/31 21:14:06.4	4.440	0.650	-0.340	0.480
2020/01/31 21:14:06.5	4.410	0.610	-0.290	0.500
2020/01/31 21:14:06.6	4.390	0.580	-0.240	0.510
2020/01/31 21:14:06.7	4.360	0.540	-0.190	0.520
2020/01/31 21:14:06.8	4.340	0.500	-0.140	0.520
2020/01/31 21:14:06.9	4.310	0.460	-0.100	0.530
2020/01/31 21:14:07.0	4.290	0.410	-0.050	0.520
2020/01/31 21:14:07.1	4.270	0.370	-0.010	0.520
2020/01/31 21:14:07.2	4.250	0.330	0.030	0.510
2020/01/31 21:14:07.3	4.230	0.280	0.070	0.500
2020/01/31 21:14:07.4	4.210	0.240	0.110	0.480
2020/01/31 21:14:07.5	4.200	0.190	0.140	0.470
2020/01/31 21:14:07.6	4.180	0.150	0.170	0.440
2020/01/31 21:14:07.7	4.170	0.110	0.200	0.420
2020/01/31 21:14:07.8	4.160	0.070	0.220	0.390
2020/01/31 21:14:07.9	4.150	0.040	0.240	0.360
2020/01/31 21:14:08.0	4.140	0.000	0.260	0.330
2020/01/31 21:14:08.1	4.140	-0.030	0.270	0.300
2020/01/31 21:14:08.2	4.140	-0.060	0.280	0.260
2020/01/31 21:14:08.3	4.140	-0.090	0.290	0.230
2020/01/31 21:14:08.4	4.140	-0.110	0.300	0.190
2020/01/31 21:14:08.5	4.140	-0.140	0.300	0.160
2020/01/31 21:14:08.6	4.150	-0.150	0.290	0.120
2020/01/31 21:14:08.7	4.160	-0.170	0.290	0.080
2020/01/31 21:14:08.8	4.160	-0.180	0.280	0.050
2020/01/31 21:14:08.9	4.180	-0.190	0.270	0.010
2020/01/31 21:14:09.0	4.190	-0.200	0.260	-0.020
2020/01/31 21:14:09.1	4.200	-0.210	0.240	-0.060
2020/01/31 21:14:09.2	4.210	-0.210	0.220	-0.090
2020/01/31 21:14:09.3	4.230	-0.210	0.200	-0.120
2020/01/31 21:14:09.4	4.240	-0.210	0.180	-0.150
2020/01/31 21:14:09.5	4.260	-0.210	0.150	-0.180
2020/01/31 21:14:09.6	4.270	-0.200	0.130	-0.210
2020/01/31 21:14:09.7	4.280	-0.200	0.100	-0.240
2020/01/31 21:14:09.8	4.300	-0.190	0.070	-0.260
2020/01/31 21:14:09.9	4.310	-0.180	0.040	-0.280
2020/01/31 21:14:10.0	4.330	-0.170	0.010	-0.300
2020/01/31 21:14:10.1	4.340	-0.160	-0.030	-0.320
2020/01/31 21:14:10.2	4.350	-0.150	-0.060	-0.330
2020/01/31 21:14:10.3	4.360	-0.140	-0.100	-0.340
2020/01/31 21:14:10.4	4.380	-0.130	-0.140	-0.360
2020/01/31 21:14:10.5	4.390	-0.120	-0.180	-0.360
2020/01/31 21:14:10.6	4.400	-0.110	-0.220	-0.370
2020/01/31 21:14:10.7	4.410	-0.100	-0.260	-0.380
2020/01/31 21:14:10.8	4.420	-0.090	-0.300	-0.390
2020/01/31 21:14:10.9	4.430	-0.080	-0.340	-0.390
2020/01/31 21:14:11.0	4.440	-0.070	-0.380	-0.400
2020/01/31 21:14:11.1	4.450	-0.060	-0.420	-0.410
2020/01/31 21:14:11.2	4.470	-0.060	-0.460	-0.410
2020/01/31 21:14:11.3	4.480	-0.050	-0.500	-0.420
2020/01/31 21:14:11.4	4.500	-0.050	-0.540	-0.430
2020/01/31 21:14:11.5	4.510	-0.040	-0.580	-0.440
2020/01/31 21:14:11.6	4.530	-0.040	-0.610	-0.450
2020/01/31 21:14:11.7	4.550	-0.040	-0.640	-0.450
2020/01/31 21:14:11.8	4.570	-0.040	-0.670	-0.460
2020/01/31 21:14:11.9	4.570	-0.040	-0.690	-0.470
2020/01/31 21:14:12.0	4.590	-0.040	-0.710	-0.470
2020/01/31 21:14:12.1	4.600	-0.040	-0.730	-0.470
2020/01/31 21:14:12.2	4.610	-0.050	-0.730	-0.480
2020/01/31 21:14:12.3	4.620	-0.050	-0.740	-0.470
2020/01/31 21:14:12.4	4.620	-0.060	-0.740	-0.470
2020/01/31 21:14:12.5	4.620	-0.060	-0.730	-0.460
2020/01/31 21:14:12.6	4.620	-0.070	-0.710	-0.450
2020/01/31 21:14:12.7	4.610	-0.080	-0.690	-0.440
2020/01/31 21:14:12.8	4.610	-0.090	-0.660	-0.420
2020/01/31 21:14:12.9	4.590	-0.100	-0.630	-0.400
2020/01/31 21:14:13.0	4.570	-0.110	-0.590	-0.380
2020/01/31 21:14:13.1	4.550	-0.120	-0.550	-0.350
2020/01/31 21:14:13.2	4.530	-0.140	-0.500	-0.330
2020/01/31 21:14:13.3	4.510	-0.150	-0.440	-0.300
2020/01/31 21:14:13.4	4.480	-0.170	-0.380	-0.270
2020/01/31 21:14:13.5	4.450	-0.180	-0.320	-0.240
2020/01/31 21:14:13.6	4.420	-0.190	-0.260	-0.210
2020/01/31 21:14:13.7	4.400	-0.210	-0.200	-0.180
2020/01/31 21:14:13.8	4.370	-0.220	-0.130	-0.150
2020/01/31 21:14:13.9	4.330	-0.240	-0.070	-0.120
2020/01/31 21:14:14.0	4.310	-0.250	-0.010	-0.090
2020/01/31 21:14:14.1	4.280	-0.260	0.050	-0.060
2020/01/31 21:14:14.2	4.260	-0.270	0.100	-0.030
2020/01/31 21:14:14.3	4.230	-0.280	0.150	-0.000
2020/01/31 21:14:14.4	4.220	-0.290	0.200	0.020
2020/01/31 21:14:14.5	4.200	-0.300	0.230	0.040
2020/01/31 21:14:14.6	4.190	-0.300	0.270	0.060
2020/01/31 21:14:14.7	4.180	-0.300	0.290	0.070
2020/01/31 21:14:14.8	4.180	-0.310	0.310	0.080
2020/01/31 21:14:14.9	4.190	-0.300	0.310	0.090
2020/01/31 21:14:15.0	4.190	-0.300	0.320	0.100
2020/01/31 21:14:15.1	4.200	-0.300	0.310	0.100
2020/01/31 21:14:15.2	4.200	-0.290	0.290	0.100
2020/01/31 21:14:15.3	4.220	-0.280	0.270	0.090
2020/01/31 21:14:15.4	4.230	-0.270	0.250	0.080
2020/01/31 21:14:15.5	4.240	-0.260	0.210	0.070
2020/01/31 21:14:15.6	4.260	-0.250	0.170	0.060
2020/01/31 21:14:15.7	4.270	-0.230	0.130	0.050
2020/01/31 21:14:15.8	4.290	-0.220	0.080	0.040
2020/01/31 21:14:15.9	4.290	-0.200	0.030	0.020
2020/01/31 21:14:16.0	4.310	-0.180	-0.020	0.010
2020/01/31 21:14:16.1	4.330	-0.160	-0.080	-0.010
2020/01/31 21:14:16.2	4.350	-0.140	-0.140	-0.030
2020/01/31 21:14:16.3	4.370	-0.120	-0.200	-0.050
2020/01/31 21:14:16.4	4.400	-0.090	-0.260	-0.080
2020/01/31 21:14:16.5	4.420	-0.070	-0.320	-0.100
2020/01/31 21:14:16.6	4.440	-0.050	-0.370	-0.120
2020/01/31 21:14:16.7	4.470	-0.020	-0.430	-0.130
2020/01/31 21:14:16.8	4.490	-0.000	-0.480	-0.150
2020/01/31 21:14:16.9	4.510	0.020	-0.530	-0.170
2020/01/31 21:14:17.0	4.530	0.050	-0.570	-0.180
2020/01/31 21:14:17.1	4.550	0.070	-0.610	-0.190
2020/01/31 21:14:17.2	4.570	0.090	-0.650	-0.200
2020/01/31 21:14:17.3	4.590	0.120	-0.680	-0.210
2020/01/31 21:14:17.4	4.600	0.140	-0.700	-0.210
2020/01/31 21:14:17.5	4.620	0.160	-0.720	-0.200
2020/01/31 21:14:17.6	4.630	0.180	-0.740	-0.200
2020/01/31 21:14:17.7	4.640	0.200	-0.750	-0.190
2020/01/31 21:14:17.8	4.650	0.210	-0.750	-0.180
2020/01/31 21:14:17.9	4.650	0.230	-0.750	-0.160
2020/01/31 21:14:18.0	4.660	0.240	-0.740	-0.150
2020/01/31 21:14:18.1	4.660	0.250	-0.730	-0.130
2020/01/31 21:14:18.2	4.660	0.260	-0.710	-0.110
2020/01/31 21:14:18.3	4.650	0.270	-0.690	-0.090
2020/01/31 21:14:18.4	4.650	0.270	-0.670	-0.060
2020/01/31 21:14:18.5	4.640	0.280	-0.640	-0.040
2020/01/31 21:14:18.6	4.630	0.280	-0.610	-0.020
2020/01/31 21:14:18.7	4.620	0.270	-0.580	0.010
2020/01/31 21:14:18.8	4.610	0.270	-0.550	0.030
2020/01/31 21:14:18.9	4.610	0.260	-0.520	0.050
2020/01/31 21:14:19.0	4.600	0.250	-0.490	0.070
2020/01/31 21:14:19.1	4.590	0.240	-0.450	0.080
2020/01/31 21:14:19.2	4.570	0.220	-0.420	0.100
2020/01/31 21:14:19.3	4.560	0.210	-0.390	0.110
2020/01/31 21:14:19.4	4.540	0.190	-0.350	0.120
2020/01/31 21:14:19.5	4.530	0.170	-0.320	0.130
2020/01/31 21:14:19.6	4.520	0.150	-0.290	0.130
2020/01/31 21:14:19.7	4.500	0.130	-0.260	0.140
2020/01/31 21:14:19.8	4.490	0.110	-0.240	0.130
2020/01/31 21:14:19.9	4.470	0.080	-0.210	0.130
2020/01/31 21:14:20.0	4.460	0.060	-0.180	0.130
2020/01/31 21:14:20.1	4.450	0.030	-0.160	0.130
2020/01/31 21:14:20.2	4.430	0.010	-0.140	0.120
2020/01/31 21:14:20.3	4.410	-0.010	-0.130	0.110
2020/01/31 21:14:20.4	4.400	-0.040	-0.110	0.100
2020/01/31 21:14:20.5	4.380	-0.060	-0.100	0.090
2020/01/31 21:14:20.6	4.370	-0.080	-0.080	0.070
2020/01/31 21:14:20.7	4.350	-0.100	-0.070	0.060
2020/01/31 21:14:20.8	4.340	-0.120	-0.070	0.050
2020/01/31 21:14:20.9	4.320	-0.140	-0.060	0.030
2020/01/31 21:14:21.0	4.310	-0.150	-0.060	0.010
2020/01/31 21:14:21.1	4.290	-0.160	-0.050	-0.000
2020/01/31 21:14:21.2	4.280	-0.170	-0.050	-0.020
2020/01/31 21:14:21.3	4.260	-0.180	-0.050	-0.030
2020/01/31 21:14:21.4	4.250	-0.180	-0.050	-0.050
2020/01/31 21:14:21.5	4.240	-0.180	-0.050	-0.070
2020/01/31 21:14:21.6	4.230	-0.180	-0.050	-0.080
2020/01/31 21:14:21.7	4.220	-0.180	-0.060	-0.100
2020/01/31 21:14:21.8	4.220	-0.170	-0.060	-0.110
2020/01/31 21:14:21.9	4.210	-0.160	-0.070	-0.130
2020/01/31 21:14:22.0	4.210	-0.150	-0.070	-0.150
2020/01/31 21:14:22.1	4.210	-0.140	-0.080	-0.170
2020/01/31 21:14:22.2	4.210	-0.120	-0.090	-0.180
2020/01/31 21:14:22.3	4.210	-0.100	-0.100	-0.200
2020/01/31 21:14:22.4	4.220	-0.080	-0.110	-0.210
2020/01/31 21:14:22.5	4.220	-0.060	-0.120	-0.230
2020/01/31 21:14:22.6	4.230	-0.030	-0.130	-0.250
2020/01/31 21:14:22.7	4.240	-0.010	-0.140	-0.260
2020/01/31 21:14:22.8	4.250	0.020	-0.160	-0.270
2020/01/31 21:14:22.9	4.260	0.050	-0.170	-0.280
2020/01/31 21:14:23.0	4.270	0.080	-0.180	-0.290
2020/01/31 21:14:23.1	4.280	0.100	-0.190	-0.300
2020/01/31 21:14:23.2	4.290	0.130	-0.200	-0.310
2020/01/31 21:14:23.3	4.300	0.160	-0.200	-0.310
2020/01/31 21:14:23.4	4.300	0.190	-0.210	-0.310
2020/01/31 21:14:23.5	4.310	0.210	-0.210	-0.310
2020/01/31 21:14:23.6	4.320	0.240	-0.220	-0.310
2020/01/31 21:14:23.7	4.320	0.260	-0.220	-0.310
2020/01/31 21:14:23.8	4.320	0.280	-0.220	-0.300
2020/01/31 21:14:23.9	4.320	0.300	-0.220	-0.290
2020/01/31 21:14:24.0	4.330	0.320	-0.220	-0.280
2020/01/31 21:14:24.1	4.330	0.330	-0.210	-0.270
2020/01/31 21:14:24.2	4.330	0.350	-0.210	-0.250
2020/01/31 21:14:24.3	4.330	0.360	-0.210	-0.240
2020/01/31 21:14:24.4	4.330	0.360	-0.200	-0.220
2020/01/31 21:14:24.5	4.330	0.370	-0.190	-0.200
2020/01/31 21:14:24.6	4.330	0.370	-0.190	-0.180
2020/01/31 21:14:24.7	4.330	0.370	-0.180	-0.150
2020/01/31 21:14:24.8	4.340	0.370	-0.180	-0.130
2020/01/31 21:14:24.9	4.340	0.370	-0.170	-0.100
2020/01/31 21:14:25.0	4.340	0.360	-0.170	-0.080
2020/01/31 21:14:25.1	4.340	0.350	-0.160	-0.050
2020/01/31 21:14:25.2	4.340	0.340	-0.160	-0.030
2020/01/31 21:14:25.3	4.340	0.330	-0.160	-0.010
2020/01/31 21:14:25.4	4.340	0.310	-0.160	0.020
2020/01/31 21:14:25.5	4.340	0.300	-0.160	0.040
2020/01/31 21:14:25.6	4.340	0.280	-0.170	0.060
2020/01/31 21:14:25.7	4.350	0.260	-0.170	0.080
2020/01/31 21:14:25.8	4.350	0.240	-0.180	0.090
2020/01/31 21:14:25.9	4.360	0.210	-0.190	0.110
2020/01/31 21:14:26.0	4.360	0.190	-0.200	0.120
2020/01/31 21:14:26.1	4.370	0.160	-0.220	0.130
2020/01/31 21:14:26.2	4.370	0.130	-0.230	0.130
2020/01/31 21:14:26.3	4.380	0.100	-0.240	0.140
2020/01/31 21:14:26.4	4.380	0.070	-0.260	0.140
2020/01/31 21:14:26.5	4.390	0.040	-0.270	0.140
2020/01/31 21:14:26.6	4.390	0.010	-0.290	0.130
2020/01/31 21:14:26.7	4.400	-0.020	-0.300	0.130
2020/01/31 21:14:26.8	4.400	-0.050	-0.320	0.120
2020/01/31 21:14:26.9	4.410	-0.090	-0.330	0.110
2020/01/31 21:14:27.0	4.410	-0.120	-0.340	0.100
2020/01/31 21:14:27.1	4.420	-0.150	-0.350	0.080
2020/01/31 21:14:27.2	4.430	-0.180	-0.370	0.060
2020/01/31 21:14:27.3	4.430	-0.220	-0.370	0.040
2020/01/31 21:14:27.4	4.440	-0.250	-0.380	0.020
2020/01/31 21:14:27.5	4.440	-0.280	-0.380	0.000
2020/01/31 21:14:27.6	4.450	-0.310	-0.390	-0.020
2020/01/31 21:14:27.7	4.450	-0.340	-0.390	-0.050
2020/01/31 21:14:27.8	4.450	-0.370	-0.380	-0.070
2020/01/31 21:14:27.9	4.450	-0.390	-0.380	-0.100
2020/01/31 21:14:28.0	4.450	-0.420	-0.380	-0.130
2020/01/31 21:14:28.1	4.450	-0.440	-0.370	-0.150
2020/01/31 21:14:28.2	4.460	-0.470	-0.360	-0.180
2020/01/31 21:14:28.3	4.460	-0.490	-0.350	-0.210
2020/01/31 21:14:28.4	4.460	-0.500	-0.340	-0.240
2020/01/31 21:14:28.5	4.460	-0.520	-0.330	-0.270
2020/01/31 21:14:28.6	4.470	-0.530	-0.310	-0.290
2020/01/31 21:14:28.7	4.470	-0.550	-0.300	-0.320
2020/01/31 21:14:28.8	4.480	-0.550	-0.290	-0.340
2020/01/31 21:14:28.9	4.480	-0.560	-0.270	-0.370
2020/01/31 21:14:29.0	4.490	-0.560	-0.260	-0.400
2020/01/31 21:14:29.1	4.490	-0.560	-0.250	-0.420
2020/01/31 21:14:29.2	4.500	-0.560	-0.240	-0.440
2020/01/31 21:14:29.3	4.510	-0.550	-0.230	-0.450
2020/01/31 21:14:29.4	4.520	-0.540	-0.220	-0.470
2020/01/31 21:14:29.5	4.520	-0.530	-0.220	-0.480
2020/01/31 21:14:29.6	4.530	-0.520	-0.210	-0.490
2020/01/31 21:14:29.7	4.540	-0.500	-0.210	-0.500
2020/01/31 21:14:29.8	4.540	-0.480	-0.210	-0.500
2020/01/31 21:14:29.9	4.560	-0.450	-0.210	-0.500
2020/01/31 21:14:30.0	4.560	-0.420	-0.210	-0.500
2020/01/31 21:14:30.1	4.570	-0.400	-0.210	-0.490
2020/01/31 21:14:30.2	4.570	-0.360	-0.210	-0.480
2020/01/31 21:14:30.3	4.570	-0.330	-0.220	-0.470
2020/01/31 21:14:30.4	4.570	-0.290	-0.220	-0.450
2020/01/31 21:14:30.5	4.570	-0.260	-0.230	-0.420
2020/01/31 21:14:30.6	4.570	-0.220	-0.240	-0.400
2020/01/31 21:14:30.7	4.560	-0.180	-0.250	-0.370
2020/01/31 21:14:30.8	4.560	-0.140	-0.250	-0.340
2020/01/31 21:14:30.9	4.540	-0.100	-0.260	-0.300
2020/01/31 21:14:31.0	4.530	-0.060	-0.270	-0.270
2020/01/31 21:14:31.1	4.520	-0.020	-0.280	-0.230
2020/01/31 21:14:31.2	4.510	0.020	-0.300	-0.190
2020/01/31 21:14:31.3	4.500	0.060	-0.310	-0.160
2020/01/31 21:14:31.4	4.490	0.100	-0.320	-0.120
2020/01/31 21:14:31.5	4.480	0.130	-0.330	-0.080
2020/01/31 21:14:31.6	4.470	0.170	-0.340	-0.040
2020/01/31 21:14:31.7	4.460	0.200	-0.360	-0.000
2020/01/31 21:14:31.8	4.450	0.240	-0.370	0.040
2020/01/31 21:14:31.9	4.440	0.270	-0.380	0.080
2020/01/31 21:14:32.0	4.430	0.300	-0.390	0.110
2020/01/31 21:14:32.1	4.420	0.320	-0.400	0.150
2020/01/31 21:14:32.2	4.400	0.350	-0.410	0.180
2020/01/31 21:14:32.3	4.390	0.370	-0.420	0.220
2020/01/31 21:14:32.4	4.380	0.390	-0.420	0.250
2020/01/31 21:14:32.5	4.370	0.410	-0.430	0.280
2020/01/31 21:14:32.6	4.360	0.420	-0.430	0.310
2020/01/31 21:14:32.7	4.340	0.430	-0.430	0.340
2020/01/31 21:14:32.8	4.330	0.440	-0.430	0.360
2020/01/31 21:14:32.9	4.330	0.450	-0.430	0.380
2020/01/31 21:14:33.0	4.320	0.450	-0.430	0.400
2020/01/31 21:14:33.1	4.310	0.450	-0.420	0.420
2020/01/31 21:14:33.2	4.300	0.450	-0.420	0.440
2020/01/31 21:14:33.3	4.290	0.450	-0.410	0.450
2020/01/31 21:14:33.4	4.280	0.440	-0.400	0.470
2020/01/31 21:14:33.5	4.260	0.430	-0.390	0.480
2020/01/31 21:14:33.6	4.250	0.420	-0.380	0.480
2020/01/31 21:14:33.7	4.240	0.410	-0.360	0.490
2020/01/31 21:14:33.8	4.240	0.400	-0.350	0.490
2020/01/31 21:14:33.9	4.230	0.380	-0.330	0.480
2020/01/31 21:14:34.0	4.220	0.360	-0.310	0.480
2020/01/31 21:14:34.1	4.210	0.340	-0.290	0.470
2020/01/31 21:14:34.2	4.210	0.320	-0.280	0.460
2020/01/31 21:14:34.3	4.200	0.290	-0.260	0.440
2020/01/31 21:14:34.4	4.200	0.270	-0.240	0.420
2020/01/31 21:14:34.5	4.200	0.250	-0.230	0.400
2020/01/31 21:14:34.6	4.210	0.220	-0.210	0.370
2020/01/31 21:14:34.7	4.210	0.200	-0.190	0.350
2020/01/31 21:14:34.8	4.220	0.170	-0.180	0.320
2020/01/31 21:14:34.9	4.230	0.140	-0.170	0.280
2020/01/31 21:14:35.0	4.240	0.120	-0.150	0.250
2020/01/31 21:14:35.1	4.250	0.090	-0.140	0.210
2020/01/31 21:14:35.2	4.270	0.070	-0.130	0.170
2020/01/31 21:14:35.3	4.280	0.050	-0.120	0.130
2020/01/31 21:14:35.4	4.300	0.030	-0.120	0.090
2020/01/31 21:14:35.5	4.320	0.000	-0.110	0.050
2020/01/31 21:14:35.6	4.340	-0.020	-0.100	0.000
2020/01/31 21:14:35.7	4.360	-0.030	-0.100	-0.040
2020/01/31 21:14:35.8	4.390	-0.050	-0.100	-0.080
2020/01/31 21:14:35.9	4.410	-0.070	-0.090	-0.130
2020/01/31 21:14:36.0	4.430	-0.080	-0.090	-0.170
2020/01/31 21:14:36.1	4.450	-0.090	-0.090	-0.210
2020/01/31 21:14:36.2	4.470	-0.100	-0.090	-0.240
2020/01/31 21:14:36.3	4.490	-0.110	-0.090	-0.280
2020/01/31 21:14:36.4	4.510	-0.120	-0.090	-0.310
2020/01/31 21:14:36.5	4.530	-0.130	-0.090	-0.340
2020/01/31 21:14:36.6	4.540	-0.130	-0.080	-0.360
2020/01/31 21:14:36.7	4.550	-0.140	-0.080	-0.380
2020/01/31 21:14:36.8	4.560	-0.140	-0.080	-0.390
2020/01/31 21:14:36.9	4.560	-0.140	-0.080	-0.400
2020/01/31 21:14:37.0	4.560	-0.150	-0.070	-0.410
2020/01/31 21:14:37.1	4.570	-0.150	-0.070	-0.410
2020/01/31 21:14:37.2	4.560	-0.150	-0.060	-0.400
2020/01/31 21:14:37.3	4.560	-0.140	-0.060	-0.400
2020/01/31 21:14:37.4	4.550	-0.140	-0.050	-0.380
2020/01/31 21:14:37.5	4.540	-0.140	-0.040	-0.360
2020/01/31 21:14:37.6	4.530	-0.140	-0.040	-0.340
2020/01/31 21:14:37.7	4.520	-0.140	-0.030	-0.320
2020/01/31 21:14:37.8	4.510	-0.130	-0.020	-0.300
2020/01/31 21:14:37.9	4.490	-0.130	-0.020	-0.260
2020/01/31 21:14:38.0	4.480	-0.130	-0.010	-0.230
2020/01/31 21:14:38.1	4.460	-0.130	-0.010	-0.200
2020/01/31 21:14:38.2	4.450	-0.130	-0.000	-0.180
2020/01/31 21:14:38.3	4.430	-0.120	0.000	-0.150
2020/01/31 21:14:38.4	4.420	-0.120	0.000	-0.120
2020/01/31 21:14:38.5	4.400	-0.120	0.000	-0.090
2020/01/31 21:14:38.6	4.390	-0.120	0.000	-0.060
2020/01/31 21:14:38.7	4.370	-0.120	0.000	-0.040
2020/01/31 21:14:38.8	4.360	-0.120	-0.000	-0.020
2020/01/31 21:14:38.9	4.350	-0.110	-0.010	0.000
2020/01/31 21:14:39.0	4.330	-0.110	-0.020	0.020
2020/01/31 21:14:39.1	4.320	-0.110	-0.030	0.040
2020/01/31 21:14:39.2	4.310	-0.110	-0.040	0.060
2020/01/31 21:14:39.3	4.300	-0.110	-0.050	0.070
2020/01/31 21:14:39.4	4.290	-0.110	-0.060	0.080
2020/01/31 21:14:39.5	4.280	-0.100	-0.080	0.090
2020/01/31 21:14:39.6	4.270	-0.100	-0.090	0.100
2020/01/31 21:14:39.7	4.270	-0.100	-0.110	0.110
2020/01/31 21:14:39.8	4.260	-0.090	-0.130	0.120
2020/01/31 21:14:39.9	4.250	-0.090	-0.150	0.120
2020/01/31 21:14:40.0	4.250	-0.080	-0.170	0.130
2020/01/31 21:14:40.1	4.240	-0.080	-0.190	0.140
2020/01/31 21:14:40.2	4.230	-0.070	-0.210	0.140
2020/01/31 21:14:40.3	4.230	-0.070	-0.240	0.140
2020/01/31 21:14:40.4	4.220	-0.060	-0.260	0.150
2020/01/31 21:14:40.5	4.220	-0.050	-0.280	0.150
2020/01/31 21:14:40.6	4.210	-0.050	-0.300	0.150
2020/01/31 21:14:40.7	4.210	-0.040	-0.320	0.150
2020/01/31 21:14:40.8	4.210	-0.030	-0.350	0.150
2020/01/31 21:14:40.9	4.190	-0.020	-0.370	0.140
2020/01/31 21:14:41.0	4.190	-0.010	-0.390	0.140
2020/01/31 21:14:41.1	4.200	-0.000	-0.420	0.130
2020/01/31 21:14:41.2	4.200	0.010	-0.440	0.120
2020/01/31 21:14:41.3	4.200	0.020	-0.470	0.110
2020/01/31 21:14:41.4	4.210	0.020	-0.490	0.090
2020/01/31 21:14:41.5	4.210	0.030	-0.510	0.070
2020/01/31 21:14:41.6	4.220	0.040	-0.540	0.050
2020/01/31 21:14:41.7	4.230	0.050	-0.560	0.030
2020/01/31 21:14:41.8	4.240	0.060	-0.580	0.010
2020/01/31 21:14:41.9	4.250	0.070	-0.600	-0.020
2020/01/31 21:14:42.0	4.260	0.070	-0.620	-0.050
2020/01/31 21:14:42.1	4.270	0.080	-0.640	-0.080
2020/01/31 21:14:42.2	4.290	0.090	-0.660	-0.100
2020/01/31 21:14:42.3	4.300	0.090	-0.680	-0.130
2020/01/31 21:14:42.4	4.310	0.100	-0.690	-0.160
2020/01/31 21:14:42.5	4.330	0.100	-0.700	-0.190
2020/01/31 21:14:42.6	4.340	0.110	-0.720	-0.220
2020/01/31 21:14:42.7	4.360	0.110	-0.720	-0.250
2020/01/31 21:14:42.8	4.370	0.110	-0.730	-0.280
2020/01/31 21:14:42.9	4.380	0.110	-0.740	-0.310
2020/01/31 21:14:43.0	4.390	0.110	-0.740	-0.330
2020/01/31 21:14:43.1	4.410	0.110	-0.740	-0.360
2020/01/31 21:14:43.2	4.420	0.110	-0.730	-0.380
2020/01/31 21:14:43.3	4.440	0.110	-0.720	-0.400
2020/01/31 21:14:43.4	4.460	0.100	-0.720	-0.420
2020/01/31 21:14:43.5	4.470	0.100	-0.700	-0.440
2020/01/31 21:14:43.6	4.490	0.100	-0.690	-0.460
2020/01/31 21:14:43.7	4.500	0.090	-0.670	-0.480
2020/01/31 21:14:43.8	4.520	0.090	-0.660	-0.490
2020/01/31 21:14:43.9	4.540	0.080	-0.630	-0.500
2020/01/31 21:14:44.0	4.550	0.070	-0.610	-0.520
2020/01/31 21:14:44.1	4.570	0.070	-0.590	-0.530
2020/01/31 21:14:44.2	4.590	0.060	-0.560	-0.530
2020/01/31 21:14:44.3	4.610	0.060	-0.540	-0.540
2020/01/31 21:14:44.4	4.620	0.050	-0.510	-0.540
2020/01/31 21:14:44.5	4.640	0.050	-0.490	-0.550
2020/01/31 21:14:44.6	4.660	0.040	-0.460	-0.550
2020/01/31 21:14:44.7	4.670	0.040	-0.430	-0.550
2020/01/31 21:14:44.8	4.680	0.040	-0.400	-0.540
2020/01/31 21:14:44.9	4.700	0.030	-0.380	-0.530
2020/01/31 21:14:45.0	4.710	0.030	-0.350	-0.520
2020/01/31 21:14:45.1	4.710	0.030	-0.320	-0.510
2020/01/31 21:14:45.2	4.720	0.030	-0.290	-0.490
2020/01/31 21:14:45.3	4.730	0.030	-0.260	-0.470
2020/01/31 21:14:45.4	4.730	0.040	-0.230	-0.450
2020/01/31 21:14:45.5	4.730	0.040	-0.200	-0.420
2020/01/31 21:14:45.6	4.730	0.040	-0.170	-0.390
2020/01/31 21:14:45.7	4.720	0.050	-0.140	-0.360
2020/01/31 21:14:45.8	4.720	0.050	-0.110	-0.320
2020/01/31 21:14:45.9	4.720	0.060	-0.080	-0.280
2020/01/31 21:14:46.0	4.710	0.070	-0.050	-0.240
2020/01/31 21:14:46.1	4.700	0.080	-0.030	-0.200
2020/01/31 21:14:46.2	4.690	0.080	-0.000	-0.160
2020/01/31 21:14:46.3	4.670	0.090	0.020	-0.110
2020/01/31 21:14:46.4	4.660	0.100	0.040	-0.070
2020/01/31 21:14:46.5	4.640	0.110	0.060	-0.020
2020/01/31 21:14:46.6	4.630	0.110	0.070	0.020
2020/01/31 21:14:46.7	4.610	0.120	0.090	0.060
2020/01/31 21:14:46.8	4.590	0.120	0.100	0.100
2020/01/31 21:14:46.9	4.570	0.120	0.110	0.140
2020/01/31 21:14:47.0	4.560	0.120	0.120	0.180
2020/01/31 21:14:47.1	4.540	0.120	0.120	0.220
2020/01/31 21:14:47.2	4.520	0.120	0.120	0.250
2020/01/31 21:14:47.3	4.500	0.110	0.130	0.270
2020/01/31 21:14:47.4	4.490	0.110	0.120	0.300
2020/01/31 21:14:47.5	4.470	0.100	0.120	0.320
2020/01/31 21:14:47.6	4.450	0.080	0.120	0.340
2020/01/31 21:14:47.7	4.430	0.070	0.110	0.350
2020/01/31 21:14:47.8	4.420	0.050	0.110	0.360
2020/01/31 21:14:47.9	4.400	0.030	0.100	0.370
2020/01/31 21:14:48.0	4.380	0.010	0.090	0.370
2020/01/31 21:14:48.1	4.360	-0.010	0.080	0.370
2020/01/31 21:14:48.2	4.350	-0.040	0.070	0.360
2020/01/31 21:14:48.3	4.330	-0.070	0.070	0.350
2020/01/31 21:14:48.4	4.320	-0.100	0.060	0.340
2020/01/31 21:14:48.5	4.300	-0.120	0.050	0.330
2020/01/31 21:14:48.6	4.290	-0.160	0.050	0.310
2020/01/31 21:14:48.7	4.270	-0.190	0.050	0.300
2020/01/31 21:14:48.8	4.260	-0.220	0.040	0.280
2020/01/31 21:14:48.9	4.250	-0.250	0.050	0.260
2020/01/31 21:14:49.0	4.240	-0.280	0.050	0.240
2020/01/31 21:14:49.1	4.220	-0.310	0.050	0.220
2020/01/31 21:14:49.2	4.210	-0.340	0.060	0.200
2020/01/31 21:14:49.3	4.200	-0.360	0.070	0.190
2020/01/31 21:14:49.4	4.190	-0.390	0.080	0.170
2020/01/31 21:14:49.5	4.180	-0.410	0.090	0.160
2020/01/31 21:14:49.6	4.170	-0.430	0.100	0.150
2020/01/31 21:14:49.7	4.160	-0.450	0.120	0.140
2020/01/31 21:14:49.8	4.150	-0.470	0.130	0.130
2020/01/31 21:14:49.9	4.150	-0.480	0.150	0.120
2020/01/31 21:14:50.0	4.150	-0.490	0.160	0.110
2020/01/31 21:14:50.1	4.140	-0.500	0.170	0.100
2020/01/31 21:14:50.2	4.140	-0.500	0.180	0.100
2020/01/31 21:14:50.3	4.140	-0.500	0.190	0.090
2020/01/31 21:14:50.4	4.150	-0.490	0.190	0.080
2020/01/31 21:14:50.5	4.150	-0.490	0.190	0.080
2020/01/31 21:14:50.6	4.160	-0.470	0.190	0.070
2020/01/31 21:14:50.7	4.170	-0.460	0.180	0.060
2020/01/31 21:14:50.8	4.180	-0.430	0.160	0.050
2020/01/31 21:14:50.9	4.190	-0.410	0.140	0.050
2020/01/31 21:14:51.0	4.200	-0.380	0.120	0.040
2020/01/31 21:14:51.1	4.220	-0.350	0.090	0.030
2020/01/31 21:14:51.2	4.230	-0.310	0.060	0.020
2020/01/31 21:14:51.3	4.250	-0.280	0.020	0.010
2020/01/31 21:14:51.4	4.270	-0.240	-0.020	-0.010
2020/01/31 21:14:51.5	4.290	-0.190	-0.070	-0.020
2020/01/31 21:14:51.6	4.320	-0.140	-0.130	-0.030
2020/01/31 21:14:51.7	4.340	-0.100	-0.180	-0.050
2020/01/31 21:14:51.8	4.370	-0.050	-0.240	-0.070
2020/01/31 21:14:51.9	4.400	0.010	-0.310	-0.080
2020/01/31 21:14:52.0	4.430	0.060	-0.370	-0.100
2020/01/31 21:14:52.1	4.450	0.110	-0.440	-0.110
2020/01/31 21:14:52.2	4.480	0.170	-0.510	-0.130
2020/01/31 21:14:52.3	4.500	0.220	-0.580	-0.140
2020/01/31 21:14:52.4	4.530	0.270	-0.640	-0.160
2020/01/31 21:14:52.5	4.550	0.320	-0.710	-0.170
2020/01/31 21:14:52.6	4.570	0.370	-0.770	-0.170
2020/01/31 21:14:52.7	4.590	0.420	-0.840	-0.180
2020/01/31 21:14:52.8	4.600	0.470	-0.890	-0.180
2020/01/31 21:14:52.9	4.600	0.510	-0.950	-0.190
2020/01/31 21:14:53.0	4.610	0.550	-1.000	-0.190
2020/01/31 21:14:53.1	4.610	0.580	-1.050	-0.190
2020/01/31 21:14:53.2	4.620	0.620	-1.080	-0.190
2020/01/31 21:14:53.3	4.620	0.640	-1.120	-0.180
2020/01/31 21:14:53.4	4.620	0.670	-1.150	-0.180
2020/01/31 21:14:53.5	4.620	0.690	-1.170	-0.170
2020/01/31 21:14:53.6	4.620	0.700	-1.180	-0.170
2020/01/31 21:14:53.7	4.620	0.710	-1.190	-0.160
2020/01/31 21:14:53.8	4.610	0.710	-1.200	-0.160
2020/01/31 21:14:53.9	4.600	0.710	-1.200	-0.150
2020/01/31 21:14:54.0	4.610	0.710	-1.190	-0.140
2020/01/31 21:14:54.1	4.600	0.700	-1.180	-0.140
2020/01/31 21:14:54.2	4.590	0.680	-1.160	-0.130
2020/01/31 21:14:54.3	4.580	0.660	-1.140	-0.130
2020/01/31 21:14:54.4	4.570	0.640	-1.110	-0.130
2020/01/31 21:14:54.5	4.560	0.610	-1.080	-0.130
2020/01/31 21:14:54.6	4.550	0.580	-1.050	-0.130
2020/01/31 21:14:54.7	4.540	0.540	-1.010	-0.140
2020/01/31 21:14:54.8	4.530	0.500	-0.970	-0.140
2020/01/31 21:14:54.9	4.510	0.460	-0.930	-0.150
2020/01/31 21:14:55.0	4.500	0.410	-0.880	-0.160
2020/01/31 21:14:55.1	4.500	0.360	-0.830	-0.170
2020/01/31 21:14:55.2	4.490	0.310	-0.780	-0.190
2020/01/31 21:14:55.3	4.480	0.260	-0.730	-0.200
2020/01/31 21:14:55.4	4.480	0.200	-0.670	-0.220
2020/01/31 21:14:55.5	4.470	0.150	-0.620	-0.240
2020/01/31 21:14:55.6	4.470	0.090	-0.560	-0.260
2020/01/31 21:14:55.7	4.460	0.030	-0.500	-0.280
2020/01/31 21:14:55.8	4.460	-0.020	-0.440	-0.310
2020/01/31 21:14:55.9	4.450	-0.080	-0.380	-0.330
2020/01/31 21:14:56.0	4.450	-0.140	-0.320	-0.360
2020/01/31 21:14:56.1	4.450	-0.190	-0.260	-0.380
2020/01/31 21:14:56.2	4.450	-0.250	-0.200	-0.410
2020/01/31 21:14:56.3	4.460	-0.300	-0.140	-0.430
2020/01/31 21:14:56.4	4.470	-0.350	-0.080	-0.460
2020/01/31 21:14:56.5	4.470	-0.400	-0.020	-0.480
2020/01/31 21:14:56.6	4.480	-0.440	0.040	-0.500
2020/01/31 21:14:56.7	4.490	-0.480	0.100	-0.530
2020/01/31 21:14:56.8	4.500	-0.520	0.160	-0.550
2020/01/31 21:14:56.9	4.530	-0.560	0.220	-0.570
2020/01/31 21:14:57.0	4.540	-0.590	0.270	-0.580
2020/01/31 21:14:57.1	4.550	-0.620	0.330	-0.590
2020/01/31 21:14:57.2	4.560	-0.640	0.390	-0.600
2020/01/31 21:14:57.3	4.570	-0.670	0.440	-0.600
2020/01/31 21:14:57.4	4.570	-0.680	0.490	-0.600
2020/01/31 21:14:57.5	4.580	-0.700	0.540	-0.600
2020/01/31 21:14:57.6	4.590	-0.710	0.590	-0.590
2020/01/31 21:14:57.7	4.600	-0.710	0.630	-0.580
2020/01/31 21:14:57.8	4.600	-0.710	0.680	-0.560
2020/01/31 21:14:57.9	4.610	-0.710	0.720	-0.540
2020/01/31 21:14:58.0	4.620	-0.700	0.750	-0.510
2020/01/31 21:14:58.1	4.620	-0.690	0.780	-0.480
2020/01/31 21:14:58.2	4.630	-0.680	0.810	-0.440
2020/01/31 21:14:58.3	4.630	-0.660	0.830	-0.400
2020/01/31 21:14:58.4	4.630	-0.630	0.850	-0.360
2020/01/31 21:14:58.5	4.630	-0.610	0.860	-0.310
2020/01/31 21:14:58.6	4.630	-0.580	0.860	-0.270
2020/01/31 21:14:58.7	4.630	-0.550	0.860	-0.210
2020/01/31 21:14:58.8	4.620	-0.510	0.850	-0.160
2020/01/31 21:14:58.9	4.600	-0.480	0.840	-0.100
2020/01/31 21:14:59.0	4.600	-0.440	0.820	-0.050
2020/01/31 21:14:59.1	4.590	-0.400	0.790	0.010
2020/01/31 21:14:59.2	4.580	-0.350	0.760	0.070
2020/01/31 21:14:59.3	4.560	-0.310	0.720	0.130
2020/01/31 21:14:59.4	4.550	-0.260	0.670	0.180
2020/01/31 21:14:59.5	4.540	-0.220	0.610	0.240
2020/01/31 21:14:59.6	4.520	-0.170	0.550	0.300
2020/01/31 21:14:59.7	4.500	-0.120	0.490	0.350
2020/01/31 21:14:59.8	4.490	-0.070	0.420	0.400
2020/01/31 21:14:59.9	4.480	-0.030	0.340	0.460
2020/01/31 21:15:00.0	4.460	0.020	0.260	0.500
2020/01/31 21:15:00.1	4.440	0.070	0.170	0.550
2020/01/31 21:15:00.2	4.430	0.120	0.080	0.590
2020/01/31 21:15:00.3	4.410	0.170	-0.010	0.630
2020/01/31 21:15:00.4	4.390	0.210	-0.110	0.670
2020/01/31 21:15:00.5	4.370	0.260	-0.210	0.700
2020/01/31 21:15:00.6	4.360	0.300	-0.310	0.730
2020/01/31 21:15:00.7	4.340	0.340	-0.410	0.750
2020/01/31 21:15:00.8	4.330	0.380	-0.510	0.770
2020/01/31 21:15:00.9	4.320	0.420	-0.610	0.790
2020/01/31 21:15:01.0	4.310	0.460	-0.700	0.800
2020/01/31 21:15:01.1	4.300	0.490	-0.800	0.800
2020/01/31 21:15:01.2	4.290	0.520	-0.890	0.800
2020/01/31 21:15:01.3	4.280	0.550	-0.980	0.800
2020/01/31 21:15:01.4	4.280	0.580	-1.060	0.790
2020/01/31 21:15:01.5	4.270	0.600	-1.140	0.780
2020/01/31 21:15:01.6	4.270	0.620	-1.220	0.770
2020/01/31 21:15:01.7	4.260	0.630	-1.280	0.750
2020/01/31 21:15:01.8	4.260	0.640	-1.340	0.730
2020/01/31 21:15:01.9	4.270	0.650	-1.390	0.710
2020/01/31 21:15:02.0	4.270	0.650	-1.430	0.680
2020/01/31 21:15:02.1	4.270	0.650	-1.460	0.650
2020/01/31 21:15:02.2	4.260	0.650	-1.480	0.610
2020/01/31 21:15:02.3	4.270	0.640	-1.490	0.570
2020/01/31 21:15:02.4	4.270	0.620	-1.490	0.530
2020/01/31 21:15:02.5	4.270	0.600	-1.480	0.490
2020/01/31 21:15:02.6	4.270	0.580	-1.470	0.440
2020/01/31 21:15:02.7	4.270	0.550	-1.440	0.390
2020/01/31 21:15:02.8	4.280	0.520	-1.400	0.340
2020/01/31 21:15:02.9	4.290	0.490	-1.350	0.290
2020/01/31 21:15:03.0	4.300	0.450	-1.300	0.230
2020/01/31 21:15:03.1	4.310	0.410	-1.240	0.180
2020/01/31 21:15:03.2	4.320	0.370	-1.170	0.120
2020/01/31 21:15:03.3	4.330	0.320	-1.100	0.060
2020/01/31 21:15:03.4	4.340	0.280	-1.020	0.000
2020/01/31 21:15:03.5	4.360	0.230	-0.930	-0.060
2020/01/31 21:15:03.6	4.370	0.180	-0.840	-0.120
2020/01/31 21:15:03.7	4.390	0.130	-0.750	-0.180
2020/01/31 21:15:03.8	4.410	0.070	-0.660	-0.240
2020/01/31 21:15:03.9	4.440	0.020	-0.570	-0.310
2020/01/31 21:15:04.0	4.460	-0.030	-0.470	-0.370
2020/01/31 21:15:04.1	4.480	-0.090	-0.380	-0.430
2020/01/31 21:15:04.2	4.510	-0.140	-0.280	-0.490
2020/01/31 21:15:04.3	4.530	-0.190	-0.190	-0.540
2020/01/31 21:15:04.4	4.560	-0.230	-0.100	-0.600
2020/01/31 21:15:04.5	4.590	-0.280	-0.020	-0.660
2020/01/31 21:15:04.6	4.620	-0.330	0.060	-0.710
2020/01/31 21:15:04.7	4.650	-0.370	0.140	-0.760
2020/01/31 21:15:04.8	4.680	-0.410	0.220	-0.810
2020/01/31 21:15:04.9	4.710	-0.440	0.280	-0.860
2020/01/31 21:15:05.0	4.740	-0.480	0.350	-0.900
2020/01/31 21:15:05.1	4.770	-0.510	0.400	-0.940
2020/01/31 21:15:05.2	4.800	-0.530	0.450	-0.980
2020/01/31 21:15:05.3	4.830	-0.560	0.500	-1.010
2020/01/31 21:15:05.4	4.860	-0.580	0.530	-1.040
2020/01/31 21:15:05.5	4.880	-0.590	0.560	-1.070
2020/01/31 21:15:05.6	4.900	-0.610	0.590	-1.090
2020/01/31 21:15:05.7	4.930	-0.620	0.610	-1.100
2020/01/31 21:15:05.8	4.950	-0.620	0.620	-1.110
2020/01/31 21:15:05.9	4.960	-0.620	0.620	-1.120
2020/01/31 21:15:06.0	4.970	-0.620	0.620	-1.120
2020/01/31 21:15:06.1	4.990	-0.620	0.610	-1.120
2020/01/31 21:15:06.2	5.000	-0.610	0.590	-1.110
2020/01/31 21:15:06.3	5.000	-0.600	0.570	-1.090
2020/01/31 21:15:06.4	5.010	-0.590	0.550	-1.070
2020/01/31 21:15:06.5	5.010	-0.580	0.520	-1.050
2020/01/31 21:15:06.6	5.010	-0.560	0.480	-1.020
2020/01/31 21:15:06.7	5.010	-0.540	0.440	-0.990
2020/01/31 21:15:06.8	5.010	-0.520	0.400	-0.950
2020/01/31 21:15:06.9	5.000	-0.500	0.350	-0.910
2020/01/31 21:15:07.0	4.990	-0.470	0.300	-0.870
2020/01/31 21:15:07.1	4.980	-0.440	0.250	-0.830
2020/01/31 21:15:07.2	4.970	-0.420	0.190	-0.790
2020/01/31 21:15:07.3	4.960	-0.390	0.130	-0.740
2020/01/31 21:15:07.4	4.940	-0.360	0.070	-0.690
2020/01/31 21:15:07.5	4.920	-0.330	0.010	-0.640
2020/01/31 21:15:07.6	4.910	-0.300	-0.040	-0.590
2020/01/31 21:15:07.7	4.890	-0.270	-0.100	-0.540
2020/01/31 21:15:07.8	4.870	-0.240	-0.160	-0.480
2020/01/31 21:15:07.9	4.840	-0.210	-0.210	-0.420
2020/01/31 21:15:08.0	4.820	-0.170	-0.270	-0.370
2020/01/31 21:15:08.1	4.790	-0.140	-0.320	-0.310
2020/01/31 21:15:08.2	4.770	-0.110	-0.360	-0.250
2020/01/31 21:15:08.3	4.740	-0.080	-0.410	-0.190
2020/01/31 21:15:08.4	4.710	-0.050	-0.450	-0.130
2020/01/31 21:15:08.5	4.670	-0.020	-0.480	-0.070
2020/01/31 21:15:08.6	4.640	0.010	-0.510	-0.010
2020/01/31 21:15:08.7	4.610	0.040	-0.540	0.040
2020/01/31 21:15:08.8	4.580	0.070	-0.560	0.100
2020/01/31 21:15:08.9	4.550	0.090	-0.580	0.160
2020/01/31 21:15:09.0	4.520	0.120	-0.590	0.220
2020/01/31 21:15:09.1	4.480	0.150	-0.600	0.280
2020/01/31 21:15:09.2	4.450	0.180	-0.600	0.330
2020/01/31 21:15:09.3	4.420	0.200	-0.600	0.390
2020/01/31 21:15:09.4	4.390	0.230	-0.600	0.440
2020/01/31 21:15:09.5	4.360	0.260	-0.590	0.490
2020/01/31 21:15:09.6	4.330	0.290	-0.580	0.540
2020/01/31 21:15:09.7	4.300	0.310	-0.570	0.590
2020/01/31 21:15:09.8	4.280	0.340	-0.560	0.630
2020/01/31 21:15:09.9	4.270	0.360	-0.540	0.670
2020/01/31 21:15:10.0	4.250	0.390	-0.530	0.710
2020/01/31 21:15:10.1	4.230	0.420	-0.510	0.740
2020/01/31 21:15:10.2	4.210	0.440	-0.500	0.770
2020/01/31 21:15:10.3	4.200	0.460	-0.490	0.790
2020/01/31 21:15:10.4	4.180	0.490	-0.480	0.810
2020/01/31 21:15:10.5	4.170	0.510	-0.470	0.830
2020/01/31 21:15:10.6	4.160	0.530	-0.460	0.830
2020/01/31 21:15:10.7	4.160	0.550	-0.450	0.830
2020/01/31 21:15:10.8	4.150	0.570	-0.450	0.830
2020/01/31 21:15:10.9	4.160	0.580	-0.450	0.820
2020/01/31 21:15:11.0	4.160	0.590	-0.440	0.800
2020/01/31 21:15:11.1	4.160	0.610	-0.440	0.780
2020/01/31 21:15:11.2	4.170	0.610	-0.450	0.750
2020/01/31 21:15:11.3	4.170	0.620	-0.450	0.720
2020/01/31 21:15:11.4	4.180	0.620	-0.450	0.680
2020/01/31 21:15:11.5	4.190	0.620	-0.460	0.640
2020/01/31 21:15:11.6	4.200	0.610	-0.460	0.590
2020/01/31 21:15:11.7	4.210	0.610	-0.470	0.540
2020/01/31 21:15:11.8	4.230	0.600	-0.480	0.480
2020/01/31 21:15:11.9	4.240	0.580	-0.480	0.420
2020/01/31 21:15:12.0	4.260	0.560	-0.490	0.360
2020/01/31 21:15:12.1	4.280	0.540	-0.490	0.300
2020/01/31 21:15:12.2	4.300	0.520	-0.500	0.240
2020/01/31 21:15:12.3	4.320	0.490	-0.510	0.170
2020/01/31 21:15:12.4	4.350	0.460	-0.510	0.100
2020/01/31 21:15:12.5	4.370	0.420	-0.510	0.030
2020/01/31 21:15:12.6	4.400	0.390	-0.510	-0.030
2020/01/31 21:15:12.7	4.430	0.350	-0.510	-0.100
2020/01/31 21:15:12.8	4.470	0.310	-0.510	-0.170
2020/01/31 21:15:12.9	4.490	0.270	-0.510	-0.240
2020/01/31 21:15:13.0	4.530	0.230	-0.500	-0.300
2020/01/31 21:15:13.1	4.570	0.180	-0.490	-0.370
2020/01/31 21:15:13.2	4.610	0.140	-0.480	-0.430
2020/01/31 21:15:13.3	4.650	0.090	-0.470	-0.490
2020/01/31 21:15:13.4	4.690	0.050	-0.460	-0.550
2020/01/31 21:15:13.5	4.730	0.000	-0.440	-0.610
2020/01/31 21:15:13.6	4.780	-0.040	-0.420	-0.670
2020/01/31 21:15:13.7	4.830	-0.080	-0.400	-0.720
2020/01/31 21:15:13.8	4.870	-0.130	-0.380	-0.770
2020/01/31 21:15:13.9	4.910	-0.170	-0.350	-0.820
2020/01/31 21:15:14.0	4.960	-0.200	-0.320	-0.860
2020/01/31 21:15:14.1	5.000	-0.240	-0.290	-0.900
2020/01/31 21:15:14.2	5.050	-0.280	-0.260	-0.940
2020/01/31 21:15:14.3	5.090	-0.310	-0.230	-0.970
2020/01/31 21:15:14.4	5.140	-0.340	-0.190	-1.000
2020/01/31 21:15:14.5	5.180	-0.370	-0.150	-1.030
2020/01/31 21:15:14.6	5.220	-0.390	-0.110	-1.050
2020/01/31 21:15:14.7	5.250	-0.410	-0.070	-1.060
2020/01/31 21:15:14.8	5.290	-0.430	-0.030	-1.070
2020/01/31 21:15:14.9	5.320	-0.450	0.010	-1.070
2020/01/31 21:15:15.0	5.350	-0.470	0.050	-1.060
2020/01/31 21:15:15.1	5.370	-0.480	0.100	-1.050
2020/01/31 21:15:15.2	5.390	-0.490	0.140	-1.040
2020/01/31 21:15:15.3	5.400	-0.500	0.180	-1.020
2020/01/31 21:15:15.4	5.410	-0.500	0.220	-0.990
2020/01/31 21:15:15.5	5.410	-0.510	0.260	-0.960
2020/01/31 21:15:15.6	5.410	-0.510	0.300	-0.920
2020/01/31 21:15:15.7	5.400	-0.510	0.340	-0.880
2020/01/31 21:15:15.8	5.390	-0.510	0.370	-0.840
2020/01/31 21:15:15.9	5.380	-0.510	0.400	-0.790
2020/01/31 21:15:16.0	5.360	-0.510	0.430	-0.730
2020/01/31 21:15:16.1	5.330	-0.500	0.450	-0.680
2020/01/31 21:15:16.2	5.300	-0.500	0.470	-0.620
2020/01/31 21:15:16.3	5.270	-0.490	0.490	-0.560
2020/01/31 21:15:16.4	5.240	-0.480	0.500	-0.500
2020/01/31 21:15:16.5	5.200	-0.470	0.510	-0.440
2020/01/31 21:15:16.6	5.160	-0.460	0.510	-0.380
2020/01/31 21:15:16.7	5.120	-0.450	0.510	-0.310
2020/01/31 21:15:16.8	5.080	-0.440	0.500	-0.250
2020/01/31 21:15:16.9	5.040	-0.430	0.490	-0.190
2020/01/31 21:15:17.0	5.000	-0.410	0.470	-0.130
2020/01/31 21:15:17.1	4.960	-0.400	0.450	-0.070
2020/01/31 21:15:17.2	4.910	-0.380	0.420	-0.020
2020/01/31 21:15:17.3	4.870	-0.370	0.390	0.040
2020/01/31 21:15:17.4	4.820	-0.350	0.350	0.080
2020/01/31 21:15:17.5	4.780	-0.330	0.300	0.130
2020/01/31 21:15:17.6	4.740	-0.310	0.250	0.160
2020/01/31 21:15:17.7	4.700	-0.290	0.190	0.200
2020/01/31 21:15:17.8	4.670	-0.260	0.130	0.230
2020/01/31 21:15:17.9	4.630	-0.240	0.070	0.250
2020/01/31 21:15:18.0	4.600	-0.210	0.000	0.270
2020/01/31 21:15:18.1	4.580	-0.190	-0.070	0.280
2020/01/31 21:15:18.2	4.550	-0.160	-0.140	0.290
2020/01/31 21:15:18.3	4.530	-0.130	-0.220	0.290
2020/01/31 21:15:18.4	4.510	-0.100	-0.300	0.280
2020/01/31 21:15:18.5	4.500	-0.070	-0.370	0.270
2020/01/31 21:15:18.6	4.490	-0.030	-0.450	0.260
2020/01/31 21:15:18.7	4.480	0.000	-0.530	0.240
2020/01/31 21:15:18.8	4.470	0.040	-0.610	0.210
2020/01/31 21:15:18.9	4.470	0.070	-0.690	0.190
2020/01/31 21:15:19.0	4.480	0.110	-0.770	0.160
2020/01/31 21:15:19.1	4.480	0.140	-0.840	0.130
2020/01/31 21:15:19.2	4.490	0.180	-0.910	0.090
2020/01/31 21:15:19.3	4.500	0.220	-0.980	0.060
2020/01/31 21:15:19.4	4.520	0.250	-1.040	0.020
2020/01/31 21:15:19.5	4.530	0.290	-1.090	-0.020
2020/01/31 21:15:19.6	4.550	0.320	-1.140	-0.060
2020/01/31 21:15:19.7	4.580	0.350	-1.190	-0.100
2020/01/31 21:15:19.8	4.600	0.380	-1.230	-0.150
2020/01/31 21:15:19.9	4.620	0.410	-1.260	-0.190
2020/01/31 21:15:20.0	4.650	0.430	-1.290	-0.230
2020/01/31 21:15:20.1	4.680	0.460	-1.300	-0.270
2020/01/31 21:15:20.2	4.720	0.480	-1.320	-0.320
2020/01/31 21:15:20.3	4.750	0.490	-1.320	-0.360
2020/01/31 21:15:20.4	4.780	0.510	-1.320	-0.400
2020/01/31 21:15:20.5	4.820	0.520	-1.310	-0.440
2020/01/31 21:15:20.6	4.850	0.530	-1.290	-0.480
2020/01/31 21:15:20.7	4.890	0.530	-1.270	-0.520
2020/01/31 21:15:20.8	4.920	0.530	-1.240	-0.550
2020/01/31 21:15:20.9	4.960	0.530	-1.200	-0.590
2020/01/31 21:15:21.0	5.000	0.520	-1.160	-0.620
2020/01/31 21:15:21.1	5.030	0.510	-1.110	-0.650
2020/01/31 21:15:21.2	5.070	0.500	-1.060	-0.680
2020/01/31 21:15:21.3	5.100	0.480	-1.000	-0.710
2020/01/31 21:15:21.4	5.130	0.460	-0.930	-0.730
2020/01/31 21:15:21.5	5.170	0.440	-0.860	-0.750
2020/01/31 21:15:21.6	5.200	0.410	-0.790	-0.770
2020/01/31 21:15:21.7	5.230	0.390	-0.710	-0.790
2020/01/31 21:15:21.8	5.260	0.360	-0.640	-0.800
2020/01/31 21:15:21.9	5.300	0.320	-0.560	-0.810
2020/01/31 21:15:22.0	5.340	0.290	-0.470	-0.820
2020/01/31 21:15:22.1	5.370	0.250	-0.390	-0.820
2020/01/31 21:15:22.2	5.390	0.210	-0.300	-0.830
2020/01/31 21:15:22.3	5.420	0.170	-0.220	-0.830
2020/01/31 21:15:22.4	5.450	0.130	-0.130	-0.830
2020/01/31 21:15:22.5	5.480	0.100	-0.050	-0.820
2020/01/31 21:15:22.6	5.500	0.060	0.030	-0.820
2020/01/31 21:15:22.7	5.530	0.020	0.110	-0.800
2020/01/31 21:15:22.8	5.550	-0.020	0.190	-0.790
2020/01/31 21:15:22.9	5.570	-0.060	0.270	-0.780
2020/01/31 21:15:23.0	5.590	-0.100	0.340	-0.760
2020/01/31 21:15:23.1	5.600	-0.130	0.410	-0.730
2020/01/31 21:15:23.2	5.620	-0.170	0.480	-0.710
2020/01/31 21:15:23.3	5.620	-0.200	0.540	-0.680
2020/01/31 21:15:23.4	5.630	-0.230	0.600	-0.640
2020/01/31 21:15:23.5	5.630	-0.260	0.660	-0.610
2020/01/31 21:15:23.6	5.630	-0.290	0.710	-0.570
2020/01/31 21:15:23.7	5.620	-0.310	0.760	-0.520
2020/01/31 21:15:23.8	5.610	-0.340	0.810	-0.480
2020/01/31 21:15:23.9	5.600	-0.360	0.840	-0.430
2020/01/31 21:15:24.0	5.580	-0.380	0.880	-0.380
2020/01/31 21:15:24.1	5.560	-0.400	0.910	-0.320
2020/01/31 21:15:24.2	5.530	-0.410	0.930	-0.270
2020/01/31 21:15:24.3	5.500	-0.430	0.950	-0.210
2020/01/31 21:15:24.4	5.460	-0.440	0.960	-0.160
2020/01/31 21:15:24.5	5.420	-0.440	0.970	-0.100
2020/01/31 21:15:24.6	5.380	-0.450	0.970	-0.050
2020/01/31 21:15:24.7	5.340	-0.450	0.960	0.010
2020/01/31 21:15:24.8	5.290	-0.450	0.940	0.060
2020/01/31 21:15:24.9	5.240	-0.450	0.920	0.120
2020/01/31 21:15:25.0	5.190	-0.450	0.890	0.170
2020/01/31 21:15:25.1	5.140	-0.440	0.850	0.220
2020/01/31 21:15:25.2	5.090	-0.430	0.810	0.260
2020/01/31 21:15:25.3	5.040	-0.420	0.750	0.310
2020/01/31 21:15:25.4	4.990	-0.410	0.690	0.340
2020/01/31 21:15:25.5	4.940	-0.390	0.620	0.380
2020/01/31 21:15:25.6	4.890	-0.380	0.540	0.410
2020/01/31 21:15:25.7	4.850	-0.360	0.460	0.430
2020/01/31 21:15:25.8	4.800	-0.330	0.370	0.440
2020/01/31 21:15:25.9	4.770	-0.310	0.270	0.450
2020/01/31 21:15:26.0	4.740	-0.280	0.160	0.450
2020/01/31 21:15:26.1	4.700	-0.250	0.060	0.450
2020/01/31 21:15:26.2	4.670	-0.220	-0.060	0.440
2020/01/31 21:15:26.3	4.650	-0.190	-0.170	0.420
2020/01/31 21:15:26.4	4.630	-0.150	-0.290	0.390
2020/01/31 21:15:26.5	4.620	-0.110	-0.410	0.360
2020/01/31 21:15:26.6	4.610	-0.070	-0.530	0.330
2020/01/31 21:15:26.7	4.610	-0.030	-0.660	0.290
2020/01/31 21:15:26.8	4.610	0.010	-0.780	0.250
2020/01/31 21:15:26.9	4.610	0.050	-0.890	0.190
2020/01/31 21:15:27.0	4.620	0.100	-1.010	0.140
2020/01/31 21:15:27.1	4.630	0.140	-1.120	0.090
2020/01/31 21:15:27.2	4.650	0.190	-1.230	0.040
2020/01/31 21:15:27.3	4.670	0.230	-1.320	-0.020
2020/01/31 21:15:27.4	4.690	0.270	-1.420	-0.070
2020/01/31 21:15:27.5	4.720	0.320	-1.500	-0.130
2020/01/31 21:15:27.6	4.750	0.360	-1.570	-0.180
2020/01/31 21:15:27.7	4.780	0.400	-1.630	-0.240
2020/01/31 21:15:27.8	4.810	0.430	-1.680	-0.290
2020/01/31 21:15:27.9	4.850	0.470	-1.720	-0.340
2020/01/31 21:15:28.0	4.890	0.500	-1.750	-0.390
2020/01/31 21:15:28.1	4.930	0.530	-1.770	-0.440
2020/01/31 21:15:28.2	4.970	0.550	-1.770	-0.490
2020/01/31 21:15:28.3	5.010	0.570	-1.760	-0.540
2020/01/31 21:15:28.4	5.050	0.580	-1.740	-0.590
2020/01/31 21:15:28.5	5.090	0.590	-1.710	-0.630
2020/01/31 21:15:28.6	5.140	0.600	-1.660	-0.670
2020/01/31 21:15:28.7	5.180	0.600	-1.610	-0.710
2020/01/31 21:15:28.8	5.220	0.600	-1.550	-0.740
2020/01/31 21:15:28.9	5.250	0.590	-1.470	-0.780
2020/01/31 21:15:29.0	5.300	0.570	-1.390	-0.810
2020/01/31 21:15:29.1	5.340	0.560	-1.300	-0.830
2020/01/31 21:15:29.2	5.380	0.530	-1.200	-0.850
2020/01/31 21:15:29.3	5.420	0.510	-1.100	-0.870
2020/01/31 21:15:29.4	5.460	0.470	-0.990	-0.880
2020/01/31 21:15:29.5	5.500	0.440	-0.880	-0.890
2020/01/31 21:15:29.6	5.530	0.400	-0.760	-0.890
2020/01/31 21:15:29.7	5.570	0.360	-0.640	-0.890
2020/01/31 21:15:29.8	5.600	0.320	-0.530	-0.890
2020/01/31 21:15:29.9	5.620	0.270	-0.410	-0.880
2020/01/31 21:15:30.0	5.650	0.220	-0.290	-0.870
2020/01/31 21:15:30.1	5.680	0.170	-0.180	-0.860
2020/01/31 21:15:30.2	5.710	0.120	-0.070	-0.850
2020/01/31 21:15:30.3	5.740	0.060	0.040	-0.830
2020/01/31 21:15:30.4	5.760	0.010	0.140	-0.820
2020/01/31 21:15:30.5	5.780	-0.040	0.240	-0.800
2020/01/31 21:15:30.6	5.800	-0.100	0.330	-0.770
2020/01/31 21:15:30.7	5.820	-0.150	0.420	-0.750
2020/01/31 21:15:30.8	5.830	-0.200	0.500	-0.730
2020/01/31 21:15:30.9	5.850	-0.250	0.570	-0.700
2020/01/31 21:15:31.0	5.860	-0.300	0.630	-0.680
2020/01/31 21:15:31.1	5.870	-0.350	0.680	-0.650
2020/01/31 21:15:31.2	5.870	-0.390	0.730	-0.630
2020/01/31 21:15:31.3	5.870	-0.440	0.770	-0.600
2020/01/31 21:15:31.4	5.870	-0.470	0.800	-0.580
2020/01/31 21:15:31.5	5.870	-0.510	0.820	-0.560
2020/01/31 21:15:31.6	5.870	-0.540	0.830	-0.530
2020/01/31 21:15:31.7	5.860	-0.570	0.830	-0.510
2020/01/31 21:15:31.8	5.850	-0.590	0.830	-0.490
2020/01/31 21:15:31.9	5.850	-0.610	0.820	-0.470
2020/01/31 21:15:32.0	5.840	-0.620	0.800	-0.440
2020/01/31 21:15:32.1	5.820	-0.630	0.770	-0.420
2020/01/31 21:15:32.2	5.810	-0.630	0.740	-0.400
2020/01/31 21:15:32.3	5.790	-0.630	0.700	-0.380
2020/01/31 21:15:32.4	5.770	-0.630	0.660	-0.350
2020/01/31 21:15:32.5	5.750	-0.620	0.610	-0.330
2020/01/31 21:15:32.6	5.730	-0.610	0.560	-0.300
2020/01/31 21:15:32.7	5.710	-0.590	0.510	-0.280
2020/01/31 21:15:32.8	5.680	-0.570	0.450	-0.250
2020/01/31 21:15:32.9	5.650	-0.540	0.400	-0.220
2020/01/31 21:15:33.0	5.630	-0.510	0.350	-0.190
2020/01/31 21:15:33.1	5.600	-0.480	0.290	-0.160
2020/01/31 21:15:33.2	5.570	-0.440	0.240	-0.120
2020/01/31 21:15:33.3	5.540	-0.400	0.180	-0.090
2020/01/31 21:15:33.4	5.510	-0.360	0.130	-0.060
2020/01/31 21:15:33.5	5.480	-0.320	0.080	-0.030
2020/01/31 21:15:33.6	5.440	-0.270	0.030	0.000
2020/01/31 21:15:33.7	5.410	-0.220	-0.020	0.040
2020/01/31 21:15:33.8	5.380	-0.180	-0.060	0.060
2020/01/31 21:15:33.9	5.360	-0.130	-0.100	0.100
2020/01/31 21:15:34.0	5.330	-0.070	-0.140	0.120
2020/01/31 21:15:34.1	5.300	-0.020	-0.170	0.150
2020/01/31 21:15:34.2	5.260	0.030	-0.200	0.170
2020/01/31 21:15:34.3	5.230	0.080	-0.230	0.190
2020/01/31 21:15:34.4	5.200	0.130	-0.260	0.210
2020/01/31 21:15:34.5	5.170	0.180	-0.280	0.230
2020/01/31 21:15:34.6	5.140	0.230	-0.300	0.250
2020/01/31 21:15:34.7	5.110	0.270	-0.310	0.260
2020/01/31 21:15:34.8	5.090	0.320	-0.330	0.280
2020/01/31 21:15:34.9	5.060	0.360	-0.340	0.290
2020/01/31 21:15:35.0	5.030	0.400	-0.350	0.310
2020/01/31 21:15:35.1	5.010	0.440	-0.350	0.320
2020/01/31 21:15:35.2	4.980	0.470	-0.360	0.320
2020/01/31 21:15:35.3	4.950	0.500	-0.360	0.330
2020/01/31 21:15:35.4	4.930	0.530	-0.360	0.340
2020/01/31 21:15:35.5	4.900	0.560	-0.370	0.340
2020/01/31 21:15:35.6	4.880	0.580	-0.370	0.340
2020/01/31 21:15:35.7	4.860	0.600	-0.370	0.340
2020/01/31 21:15:35.8	4.840	0.620	-0.370	0.340
2020/01/31 21:15:35.9	4.820	0.630	-0.370	0.330
2020/01/31 21:15:36.0	4.800	0.640	-0.370	0.330
2020/01/31 21:15:36.1	4.790	0.650	-0.380	0.320
2020/01/31 21:15:36.2	4.780	0.650	-0.380	0.310
2020/01/31 21:15:36.3	4.770	0.650	-0.390	0.290
2020/01/31 21:15:36.4	4.760	0.650	-0.390	0.270
2020/01/31 21:15:36.5	4.750	0.640	-0.400	0.250
2020/01/31 21:15:36.6	4.750	0.640	-0.410	0.220
2020/01/31 21:15:36.7	4.750	0.630	-0.420	0.190
2020/01/31 21:15:36.8	4.760	0.610	-0.440	0.160
2020/01/31 21:15:36.9	4.760	0.600	-0.450	0.130
2020/01/31 21:15:37.0	4.770	0.580	-0.470	0.090
2020/01/31 21:15:37.1	4.780	0.560	-0.490	0.050
2020/01/31 21:15:37.2	4.800	0.540	-0.510	0.010
2020/01/31 21:15:37.3	4.810	0.510	-0.530	-0.040
2020/01/31 21:15:37.4	4.830	0.490	-0.560	-0.080
2020/01/31 21:15:37.5	4.860	0.460	-0.580	-0.130
2020/01/31 21:15:37.6	4.880	0.430	-0.610	-0.180
2020/01/31 21:15:37.7	4.910	0.400	-0.630	-0.230
2020/01/31 21:15:37.8	4.940	0.370	-0.660	-0.280
2020/01/31 21:15:37.9	4.960	0.330	-0.680	-0.340
2020/01/31 21:15:38.0	4.990	0.300	-0.710	-0.390
2020/01/31 21:15:38.1	5.030	0.260	-0.740	-0.450
2020/01/31 21:15:38.2	5.070	0.230	-0.760	-0.510
2020/01/31 21:15:38.3	5.110	0.190	-0.780	-0.560
2020/01/31 21:15:38.4	5.150	0.150	-0.800	-0.620
2020/01/31 21:15:38.5	5.200	0.120	-0.820	-0.670
2020/01/31 21:15:38.6	5.240	0.080	-0.840	-0.730
2020/01/31 21:15:38.7	5.290	0.040	-0.850	-0.780
2020/01/31 21:15:38.8	5.340	0.000	-0.870	-0.840
2020/01/31 21:15:38.9	5.390	-0.040	-0.880	-0.890
2020/01/31 21:15:39.0	5.440	-0.080	-0.880	-0.940
2020/01/31 21:15:39.1	5.490	-0.110	-0.880	-0.990
2020/01/31 21:15:39.2	5.540	-0.150	-0.880	-1.040
2020/01/31 21:15:39.3	5.590	-0.190	-0.880	-1.080
2020/01/31 21:15:39.4	5.650	-0.220	-0.870	-1.120
2020/01/31 21:15:39.5	5.700	-0.260	-0.860	-1.160
2020/01/31 21:15:39.6	5.750	-0.290	-0.840	-1.200
2020/01/31 21:15:39.7	5.800	-0.330	-0.820	-1.230
2020/01/31 21:15:39.8	5.850	-0.360	-0.800	-1.250
2020/01/31 21:15:39.9	5.910	-0.390	-0.760	-1.270
2020/01/31 21:15:40.0	5.960	-0.420	-0.730	-1.290
2020/01/31 21:15:40.1	6.000	-0.450	-0.690	-1.300
2020/01/31 21:15:40.2	6.040	-0.470	-0.650	-1.310
2020/01/31 21:15:40.3	6.080	-0.500	-0.610	-1.320
2020/01/31 21:15:40.4	6.120	-0.520	-0.570	-1.320
2020/01/31 21:15:40.5	6.150	-0.540	-0.520	-1.310
2020/01/31 21:15:40.6	6.180	-0.560	-0.470	-1.300
2020/01/31 21:15:40.7	6.210	-0.570	-0.410	-1.290
2020/01/31 21:15:40.8	6.240	-0.590	-0.360	-1.270
2020/01/31 21:15:40.9	6.250	-0.600	-0.310	-1.260
2020/01/31 21:15:41.0	6.270	-0.610	-0.250	-1.230
2020/01/31 21:15:41.1	6.290	-0.610	-0.190	-1.200
2020/01/31 21:15:41.2	6.300	-0.620	-0.140	-1.170
2020/01/31 21:15:41.3	6.310	-0.620	-0.080	-1.130
2020/01/31 21:15:41.4	6.310	-0.610	-0.030	-1.090
2020/01/31 21:15:41.5	6.310	-0.610	0.020	-1.040
2020/01/31 21:15:41.6	6.310	-0.600	0.070	-1.000
2020/01/31 21:15:41.7	6.310	-0.590	0.120	-0.940
2020/01/31 21:15:41.8	6.300	-0.580	0.160	-0.890
2020/01/31 21:15:41.9	6.290	-0.560	0.200	-0.830
2020/01/31 21:15:42.0	6.270	-0.540	0.240	-0.770
2020/01/31 21:15:42.1	6.260	-0.520	0.270	-0.710
2020/01/31 21:15:42.2	6.240	-0.490	0.300	-0.650
2020/01/31 21:15:42.3	6.220	-0.460	0.330	-0.580
2020/01/31 21:15:42.4	6.200	-0.430	0.350	-0.510
2020/01/31 21:15:42.5	6.180	-0.400	0.370	-0.450
2020/01/31 21:15:42.6	6.150	-0.360	0.390	-0.380
2020/01/31 21:15:42.7	6.120	-0.320	0.400	-0.320
2020/01/31 21:15:42.8	6.100	-0.280	0.410	-0.250
2020/01/31 21:15:42.9	6.080	-0.240	0.410	-0.180
2020/01/31 21:15:43.0	6.050	-0.200	0.410	-0.120
2020/01/31 21:15:43.1	6.020	-0.150	0.400	-0.060
2020/01/31 21:15:43.2	5.990	-0.100	0.400	0.000
2020/01/31 21:15:43.3	5.950	-0.060	0.390	0.070
2020/01/31 21:15:43.4	5.920	-0.010	0.370	0.120
2020/01/31 21:15:43.5	5.890	0.040	0.360	0.180
2020/01/31 21:15:43.6	5.850	0.090	0.340	0.240
2020/01/31 21:15:43.7	5.810	0.140	0.320	0.290
2020/01/31 21:15:43.8	5.780	0.190	0.300	0.340
2020/01/31 21:15:43.9	5.740	0.230	0.280	0.390
2020/01/31 21:15:44.0	5.700	0.280	0.260	0.440
2020/01/31 21:15:44.1	5.660	0.320	0.230	0.480
2020/01/31 21:15:44.2	5.610	0.370	0.210	0.520
2020/01/31 21:15:44.3	5.570	0.410	0.190	0.570
2020/01/31 21:15:44.4	5.530	0.440	0.180	0.600
2020/01/31 21:15:44.5	5.480	0.480	0.160	0.640
2020/01/31 21:15:44.6	5.430	0.510	0.140	0.670
2020/01/31 21:15:44.7	5.390	0.530	0.130	0.700
2020/01/31 21:15:44.8	5.340	0.560	0.120	0.720
2020/01/31 21:15:44.9	5.290	0.580	0.110	0.740
2020/01/31 21:15:45.0	5.240	0.590	0.100	0.750
2020/01/31 21:15:45.1	5.190	0.610	0.090	0.760
2020/01/31 21:15:45.2	5.140	0.610	0.080	0.770
2020/01/31 21:15:45.3	5.090	0.620	0.080	0.770
2020/01/31 21:15:45.4	5.040	0.610	0.070	0.770
2020/01/31 21:15:45.5	4.990	0.610	0.070	0.760
2020/01/31 21:15:45.6	4.940	0.600	0.060	0.740
2020/01/31 21:15:45.7	4.900	0.590	0.060	0.720
2020/01/31 21:15:45.8	4.850	0.570	0.050	0.700
2020/01/31 21:15:45.9	4.810	0.550	0.050	0.670
2020/01/31 21:15:46.0	4.770	0.530	0.040	0.640
2020/01/31 21:15:46.1	4.730	0.500	0.030	0.610
2020/01/31 21:15:46.2	4.700	0.470	0.010	0.560
2020/01/31 21:15:46.3	4.670	0.440	-0.000	0.520
2020/01/31 21:15:46.4	4.640	0.400	-0.020	0.470
2020/01/31 21:15:46.5	4.610	0.370	-0.050	0.410
2020/01/31 21:15:46.6	4.590	0.330	-0.070	0.350
2020/01/31 21:15:46.7	4.580	0.290	-0.100	0.280
2020/01/31 21:15:46.8	4.570	0.260	-0.140	0.210
2020/01/31 21:15:46.9	4.560	0.220	-0.180	0.130
2020/01/31 21:15:47.0	4.560	0.180	-0.220	0.050
2020/01/31 21:15:47.1	4.560	0.140	-0.270	-0.040
2020/01/31 21:15:47.2	4.570	0.110	-0.320	-0.130
2020/01/31 21:15:47.3	4.580	0.080	-0.380	-0.230
2020/01/31 21:15:47.4	4.600	0.040	-0.440	-0.330
2020/01/31 21:15:47.5	4.630	0.010	-0.510	-0.430
2020/01/31 21:15:47.6	4.650	-0.010	-0.570	-0.540
2020/01/31 21:15:47.7	4.690	-0.040	-0.640	-0.640
2020/01/31 21:15:47.8	4.730	-0.060	-0.720	-0.750
2020/01/31 21:15:47.9	4.770	-0.080	-0.790	-0.860
2020/01/31 21:15:48.0	4.820	-0.090	-0.860	-0.970
2020/01/31 21:15:48.1	4.870	-0.100	-0.940	-1.080
2020/01/31 21:15:48.2	4.920	-0.110	-1.010	-1.180
2020/01/31 21:15:48.3	4.970	-0.110	-1.090	-1.280
2020/01/31 21:15:48.4	5.030	-0.120	-1.160	-1.380
2020/01/31 21:15:48.5	5.090	-0.120	-1.230	-1.470
2020/01/31 21:15:48.6	5.150	-0.110	-1.290	-1.560
2020/01/31 21:15:48.7	5.210	-0.100	-1.350	-1.640
2020/01/31 21:15:48.8	5.270	-0.100	-1.400	-1.720
2020/01/31 21:15:48.9	5.320	-0.080	-1.460	-1.790
2020/01/31 21:15:49.0	5.380	-0.070	-1.500	-1.860
2020/01/31 21:15:49.1	5.440	-0.060	-1.540	-1.910
2020/01/31 21:15:49.2	5.500	-0.040	-1.560	-1.960
2020/01/31 21:15:49.3	5.560	-0.020	-1.580	-2.000
2020/01/31 21:15:49.4	5.610	-0.010	-1.600	-2.040
2020/01/31 21:15:49.5	5.660	0.010	-1.600	-2.070
2020/01/31 21:15:49.6	5.710	0.030	-1.600	-2.080
2020/01/31 21:15:49.7	5.760	0.050	-1.580	-2.100
2020/01/31 21:15:49.8	5.810	0.070	-1.560	-2.100
2020/01/31 21:15:49.9	5.840	0.080	-1.530	-2.100
2020/01/31 21:15:50.0	5.880	0.100	-1.490	-2.080
2020/01/31 21:15:50.1	5.920	0.110	-1.440	-2.070
2020/01/31 21:15:50.2	5.950	0.130	-1.380	-2.040
2020/01/31 21:15:50.3	5.980	0.140	-1.310	-2.010
2020/01/31 21:15:50.4	6.010	0.150	-1.240	-1.970
2020/01/31 21:15:50.5	6.040	0.160	-1.160	-1.920
2020/01/31 21:15:50.6	6.060	0.160	-1.070	-1.870
2020/01/31 21:15:50.7	6.080	0.170	-0.970	-1.810
2020/01/31 21:15:50.8	6.090	0.170	-0.870	-1.750
2020/01/31 21:15:50.9	6.110	0.170	-0.770	-1.670
2020/01/31 21:15:51.0	6.120	0.170	-0.660	-1.600
2020/01/31 21:15:51.1	6.130	0.160	-0.550	-1.520
2020/01/31 21:15:51.2	6.130	0.160	-0.430	-1.430
2020/01/31 21:15:51.3	6.140	0.150	-0.320	-1.340
2020/01/31 21:15:51.4	6.130	0.130	-0.200	-1.250
2020/01/31 21:15:51.5	6.130	0.120	-0.080	-1.150
2020/01/31 21:15:51.6	6.120	0.100	0.040	-1.050
2020/01/31 21:15:51.7	6.110	0.080	0.160	-0.950
2020/01/31 21:15:51.8	6.090	0.060	0.270	-0.850
2020/01/31 21:15:51.9	6.070	0.030	0.380	-0.750
2020/01/31 21:15:52.0	6.050	0.000	0.490	-0.650
2020/01/31 21:15:52.1	6.030	-0.030	0.590	-0.560
2020/01/31 21:15:52.2	6.010	-0.060	0.690	-0.460
2020/01/31 21:15:52.3	5.990	-0.090	0.780	-0.370
2020/01/31 21:15:52.4	5.960	-0.120	0.870	-0.280
2020/01/31 21:15:52.5	5.930	-0.160	0.950	-0.200
2020/01/31 21:15:52.6	5.900	-0.190	1.020	-0.120
2020/01/31 21:15:52.7	5.870	-0.230	1.080	-0.040
2020/01/31 21:15:52.8	5.840	-0.260	1.140	0.030
2020/01/31 21:15:52.9	5.830	-0.300	1.190	0.100
2020/01/31 21:15:53.0	5.800	-0.340	1.230	0.160
2020/01/31 21:15:53.1	5.770	-0.370	1.260	0.210
2020/01/31 21:15:53.2	5.740	-0.400	1.270	0.250
2020/01/31 21:15:53.3	5.710	-0.440	1.280	0.290
2020/01/31 21:15:53.4	5.680	-0.470	1.280	0.330
2020/01/31 21:15:53.5	5.660	-0.490	1.280	0.350
2020/01/31 21:15:53.6	5.630	-0.520	1.260	0.370
2020/01/31 21:15:53.7	5.610	-0.540	1.230	0.380
2020/01/31 21:15:53.8	5.580	-0.560	1.190	0.390
2020/01/31 21:15:53.9	5.570	-0.580	1.150	0.390
2020/01/31 21:15:54.0	5.550	-0.590	1.090	0.390
2020/01/31 21:15:54.1	5.540	-0.600	1.030	0.380
2020/01/31 21:15:54.2	5.520	-0.610	0.960	0.370
2020/01/31 21:15:54.3	5.510	-0.610	0.890	0.350
2020/01/31 21:15:54.4	5.500	-0.610	0.800	0.330
2020/01/31 21:15:54.5	5.490	-0.600	0.710	0.300
2020/01/31 21:15:54.6	5.490	-0.590	0.610	0.270
2020/01/31 21:15:54.7	5.490	-0.570	0.510	0.240
2020/01/31 21:15:54.8	5.490	-0.560	0.410	0.200
2020/01/31 21:15:54.9	5.500	-0.530	0.310	0.160
2020/01/31 21:15:55.0	5.500	-0.510	0.190	0.120
2020/01/31 21:15:55.1	5.510	-0.480	0.080	0.070
2020/01/31 21:15:55.2	5.510	-0.440	-0.040	0.030
2020/01/31 21:15:55.3	5.520	-0.410	-0.160	-0.020
2020/01/31 21:15:55.4	5.530	-0.370	-0.270	-0.070
2020/01/31 21:15:55.5	5.540	-0.320	-0.390	-0.110
2020/01/31 21:15:55.6	5.540	-0.280	-0.500	-0.160
2020/01/31 21:15:55.7	5.550	-0.230	-0.610	-0.200
2020/01/31 21:15:55.8	5.550	-0.180	-0.720	-0.250
2020/01/31 21:15:55.9	5.560	-0.130	-0.830	-0.290
2020/01/31 21:15:56.0	5.570	-0.080	-0.920	-0.320
2020/01/31 21:15:56.1	5.570	-0.030	-1.010	-0.350
2020/01/31 21:15:56.2	5.560	0.020	-1.090	-0.380
2020/01/31 21:15:56.3	5.560	0.070	-1.170	-0.400
2020/01/31 21:15:56.4	5.550	0.120	-1.230	-0.420
2020/01/31 21:15:56.5	5.540	0.170	-1.290	-0.430
2020/01/31 21:15:56.6	5.530	0.210	-1.340	-0.440
2020/01/31 21:15:56.7	5.510	0.260	-1.370	-0.440
2020/01/31 21:15:56.8	5.490	0.300	-1.400	-0.440
2020/01/31 21:15:56.9	5.470	0.340	-1.420	-0.430
2020/01/31 21:15:57.0	5.450	0.380	-1.420	-0.420
2020/01/31 21:15:57.1	5.420	0.410	-1.420	-0.400
2020/01/31 21:15:57.2	5.390	0.450	-1.400	-0.380
2020/01/31 21:15:57.3	5.360	0.470	-1.380	-0.360
2020/01/31 21:15:57.4	5.330	0.500	-1.350	-0.340
2020/01/31 21:15:57.5	5.290	0.520	-1.300	-0.310
2020/01/31 21:15:57.6	5.260	0.540	-1.250	-0.280
2020/01/31 21:15:57.7	5.220	0.550	-1.190	-0.250
2020/01/31 21:15:57.8	5.180	0.560	-1.130	-0.210
2020/01/31 21:15:57.9	5.140	0.560	-1.060	-0.180
2020/01/31 21:15:58.0	5.100	0.570	-0.990	-0.140
2020/01/31 21:15:58.1	5.070	0.570	-0.910	-0.110
2020/01/31 21:15:58.2	5.040	0.570	-0.830	-0.070
2020/01/31 21:15:58.3	5.010	0.560	-0.750	-0.040
2020/01/31 21:15:58.4	4.980	0.550	-0.660	-0.010
2020/01/31 21:15:58.5	4.950	0.540	-0.580	0.020
2020/01/31 21:15:58.6	4.930	0.530	-0.500	0.050
2020/01/31 21:15:58.7	4.910	0.520	-0.420	0.080
2020/01/31 21:15:58.8	4.890	0.510	-0.340	0.100
2020/01/31 21:15:58.9	4.870	0.490	-0.260	0.120
2020/01/31 21:15:59.0	4.860	0.480	-0.190	0.140
2020/01/31 21:15:59.1	4.850	0.460	-0.130	0.150
2020/01/31 21:15:59.2	4.850	0.450	-0.060	0.160
2020/01/31 21:15:59.3	4.850	0.430	-0.010	0.170
2020/01/31 21:15:59.4	4.850	0.420	0.050	0.170
2020/01/31 21:15:59.5	4.860	0.400	0.090	0.170
2020/01/31 21:15:59.6	4.860	0.390	0.140	0.170
2020/01/31 21:15:59.7	4.870	0.370	0.170	0.160
2020/01/31 21:15:59.8	4.880	0.360	0.200	0.150
2020/01/31 21:15:59.9	4.890	0.350	0.230	0.140
2020/01/31 21:16:00.0	4.900	0.330	0.250	0.130
2020/01/31 21:16:00.1	4.920	0.320	0.260	0.110
2020/01/31 21:16:00.2	4.930	0.300	0.270	0.090
2020/01/31 21:16:00.3	4.950	0.290	0.270	0.070
2020/01/31 21:16:00.4	4.970	0.280	0.270	0.050
2020/01/31 21:16:00.5	4.980	0.270	0.260	0.020
2020/01/31 21:16:00.6	5.000	0.250	0.250	-0.000
2020/01/31 21:16:00.7	5.020	0.240	0.240	-0.030
2020/01/31 21:16:00.8	5.030	0.230	0.220	-0.050
2020/01/31 21:16:00.9	5.060	0.210	0.200	-0.080
2020/01/31 21:16:01.0	5.080	0.200	0.170	-0.110
2020/01/31 21:16:01.1	5.090	0.190	0.140	-0.140
2020/01/31 21:16:01.2	5.110	0.170	0.110	-0.170
2020/01/31 21:16:01.3	5.130	0.160	0.080	-0.200
2020/01/31 21:16:01.4	5.150	0.140	0.040	-0.230
2020/01/31 21:16:01.5	5.160	0.130	0.000	-0.260
2020/01/31 21:16:01.6	5.180	0.110	-0.040	-0.290
2020/01/31 21:16:01.7	5.200	0.100	-0.080	-0.320
2020/01/31 21:16:01.8	5.220	0.080	-0.120	-0.360
2020/01/31 21:16:01.9	5.230	0.060	-0.170	-0.390
2020/01/31 21:16:02.0	5.260	0.040	-0.210	-0.420
2020/01/31 21:16:02.1	5.280	0.030	-0.260	-0.460
2020/01/31 21:16:02.2	5.300	0.010	-0.300	-0.500
2020/01/31 21:16:02.3	5.320	-0.010	-0.350	-0.530
2020/01/31 21:16:02.4	5.350	-0.030	-0.400	-0.570
2020/01/31 21:16:02.5	5.370	-0.050	-0.440	-0.600
2020/01/31 21:16:02.6	5.400	-0.070	-0.490	-0.640
2020/01/31 21:16:02.7	5.430	-0.100	-0.530	-0.680
2020/01/31 21:16:02.8	5.460	-0.120	-0.570	-0.710
2020/01/31 21:16:02.9	5.490	-0.140	-0.610	-0.750
2020/01/31 21:16:03.0	5.520	-0.160	-0.640	-0.790
2020/01/31 21:16:03.1	5.550	-0.180	-0.670	-0.820
2020/01/31 21:16:03.2	5.580	-0.200	-0.700	-0.850
2020/01/31 21:16:03.3	5.600	-0.230	-0.730	-0.890
2020/01/31 21:16:03.4	5.630	-0.250	-0.750	-0.920
2020/01/31 21:16:03.5	5.660	-0.270	-0.770	-0.940
2020/01/31 21:16:03.6	5.690	-0.290	-0.780	-0.970
2020/01/31 21:16:03.7	5.720	-0.310	-0.790	-0.990
2020/01/31 21:16:03.8	5.740	-0.330	-0.790	-1.020
2020/01/31 21:16:03.9	5.760	-0.350	-0.790	-1.030
2020/01/31 21:16:04.0	5.780	-0.370	-0.780	-1.050
2020/01/31 21:16:04.1	5.800	-0.380	-0.770	-1.060
2020/01/31 21:16:04.2	5.810	-0.400	-0.750	-1.070
2020/01/31 21:16:04.3	5.820	-0.410	-0.720	-1.070
2020/01/31 21:16:04.4	5.830	-0.430	-0.690	-1.070
2020/01/31 21:16:04.5	5.840	-0.440	-0.650	-1.060
2020/01/31 21:16:04.6	5.840	-0.450	-0.610	-1.050
2020/01/31 21:16:04.7	5.840	-0.470	-0.560	-1.040
2020/01/31 21:16:04.8	5.840	-0.480	-0.510	-1.020
2020/01/31 21:16:04.9	5.830	-0.480	-0.460	-1.000
2020/01/31 21:16:05.0	5.820	-0.490	-0.400	-0.970
2020/01/31 21:16:05.1	5.800	-0.500	-0.340	-0.940
2020/01/31 21:16:05.2	5.790	-0.500	-0.270	-0.910
2020/01/31 21:16:05.3	5.770	-0.510	-0.210	-0.870
2020/01/31 21:16:05.4	5.740	-0.510	-0.140	-0.830
2020/01/31 21:16:05.5	5.720	-0.510	-0.070	-0.790
2020/01/31 21:16:05.6	5.690	-0.510	-0.010	-0.740
2020/01/31 21:16:05.7	5.660	-0.500	0.050	-0.700
2020/01/31 21:16:05.8	5.630	-0.500	0.110	-0.650
2020/01/31 21:16:05.9	5.590	-0.490	0.160	-0.600
2020/01/31 21:16:06.0	5.560	-0.480	0.210	-0.560
2020/01/31 21:16:06.1	5.530	-0.470	0.260	-0.510
2020/01/31 21:16:06.2	5.490	-0.460	0.300	-0.460
2020/01/31 21:16:06.3	5.460	-0.440	0.330	-0.410
2020/01/31 21:16:06.4	5.430	-0.420	0.360	-0.360
2020/01/31 21:16:06.5	5.390	-0.400	0.380	-0.310
2020/01/31 21:16:06.6	5.360	-0.380	0.400	-0.260
2020/01/31 21:16:06.7	5.320	-0.350	0.410	-0.210
2020/01/31 21:16:06.8	5.290	-0.330	0.410	-0.160
2020/01/31 21:16:06.9	5.250	-0.300	0.400	-0.110
2020/01/31 21:16:07.0	5.210	-0.270	0.390	-0.060
2020/01/31 21:16:07.1	5.170	-0.240	0.380	-0.010
2020/01/31 21:16:07.2	5.140	-0.210	0.360	0.040
2020/01/31 21:16:07.3	5.100	-0.170	0.330	0.080
2020/01/31 21:16:07.4	5.070	-0.140	0.300	0.130
2020/01/31 21:16:07.5	5.030	-0.100	0.270	0.170
2020/01/31 21:16:07.6	5.000	-0.070	0.230	0.210
2020/01/31 21:16:07.7	4.960	-0.030	0.190	0.240
2020/01/31 21:16:07.8	4.930	0.010	0.140	0.280
2020/01/31 21:16:07.9	4.890	0.050	0.100	0.310
2020/01/31 21:16:08.0	4.860	0.090	0.050	0.330
2020/01/31 21:16:08.1	4.840	0.120	0.010	0.360
2020/01/31 21:16:08.2	4.810	0.160	-0.040	0.380
2020/01/31 21:16:08.3	4.790	0.200	-0.090	0.390
2020/01/31 21:16:08.4	4.770	0.230	-0.130	0.410
2020/01/31 21:16:08.5	4.750	0.270	-0.170	0.420
2020/01/31 21:16:08.6	4.740	0.300	-0.210	0.420
2020/01/31 21:16:08.7	4.730	0.340	-0.250	0.430
2020/01/31 21:16:08.8	4.720	0.370	-0.290	0.430
2020/01/31 21:16:08.9	4.730	0.400	-0.320	0.430
2020/01/31 21:16:09.0	4.720	0.430	-0.340	0.420
2020/01/31 21:16:09.1	4.720	0.450	-0.370	0.420
2020/01/31 21:16:09.2	4.730	0.480	-0.390	0.420
2020/01/31 21:16:09.3	4.730	0.500	-0.400	0.410
2020/01/31 21:16:09.4	4.740	0.520	-0.410	0.410
2020/01/31 21:16:09.5	4.750	0.540	-0.410	0.400
2020/01/31 21:16:09.6	4.760	0.560	-0.400	0.400
2020/01/31 21:16:09.7	4.770	0.570	-0.400	0.400
2020/01/31 21:16:09.8	4.790	0.580	-0.380	0.390
2020/01/31 21:16:09.9	4.810	0.590	-0.370	0.390
2020/01/31 21:16:10.0	4.830	0.590	-0.340	0.390
2020/01/31 21:16:10.1	4.850	0.600	-0.320	0.390
2020/01/31 21:16:10.2	4.870	0.600	-0.290	0.390
2020/01/31 21:16:10.3	4.890	0.590	-0.260	0.380
2020/01/31 21:16:10.4	4.920	0.590	-0.230	0.380
2020/01/31 21:16:10.5	4.940	0.580	-0.200	0.380
2020/01/31 21:16:10.6	4.970	0.570	-0.170	0.380
2020/01/31 21:16:10.7	5.000	0.550	-0.140	0.380
2020/01/31 21:16:10.8	5.020	0.540	-0.110	0.370
2020/01/31 21:16:10.9	5.050	0.520	-0.090	0.370
2020/01/31 21:16:11.0	5.080	0.500	-0.060	0.370
2020/01/31 21:16:11.1	5.100	0.470	-0.040	0.360
2020/01/31 21:16:11.2	5.130	0.450	-0.030	0.350
2020/01/31 21:16:11.3	5.150	0.420	-0.010	0.340
2020/01/31 21:16:11.4	5.170	0.390	-0.000	0.330
2020/01/31 21:16:11.5	5.190	0.360	0.000	0.320
2020/01/31 21:16:11.6	5.210	0.320	0.000	0.310
2020/01/31 21:16:11.7	5.220	0.290	-0.000	0.290
2020/01/31 21:16:11.8	5.230	0.250	-0.010	0.280
2020/01/31 21:16:11.9	5.260	0.220	-0.030	0.250
2020/01/31 21:16:12.0	5.270	0.180	-0.050	0.230
2020/01/31 21:16:12.1	5.280	0.140	-0.070	0.210
2020/01/31 21:16:12.2	5.280	0.110	-0.100	0.180
2020/01/31 21:16:12.3	5.290	0.070	-0.130	0.140
2020/01/31 21:16:12.4	5.290	0.030	-0.160	0.110
2020/01/31 21:16:12.5	5.290	-0.000	-0.200	0.070
2020/01/31 21:16:12.6	5.290	-0.040	-0.240	0.030
2020/01/31 21:16:12.7	5.290	-0.070	-0.280	-0.010
2020/01/31 21:16:12.8	5.290	-0.100	-0.330	-0.050
2020/01/31 21:16:12.9	5.290	-0.130	-0.370	-0.100
2020/01/31 21:16:13.0	5.280	-0.160	-0.410	-0.140
2020/01/31 21:16:13.1	5.280	-0.190	-0.460	-0.190
2020/01/31 21:16:13.2	5.280	-0.210	-0.500	-0.240
2020/01/31 21:16:13.3	5.280	-0.230	-0.550	-0.290
2020/01/31 21:16:13.4	5.280	-0.250	-0.590	-0.330
2020/01/31 21:16:13.5	5.280	-0.270	-0.640	-0.380
2020/01/31 21:16:13.6	5.280	-0.290	-0.680	-0.430
2020/01/31 21:16:13.7	5.280	-0.300	-0.720	-0.480
2020/01/31 21:16:13.8	5.280	-0.310	-0.750	-0.530
2020/01/31 21:16:13.9	5.280	-0.320	-0.790	-0.580
2020/01/31 21:16:14.0	5.280	-0.330	-0.820	-0.620
2020/01/31 21:16:14.1	5.280	-0.330	-0.850	-0.670
2020/01/31 21:16:14.2	5.290	-0.330	-0.870	-0.710
2020/01/31 21:16:14.3	5.290	-0.330	-0.900	-0.760
2020/01/31 21:16:14.4	5.300	-0.330	-0.910	-0.800
2020/01/31 21:16:14.5	5.300	-0.330	-0.930	-0.840
2020/01/31 21:16:14.6	5.310	-0.320	-0.940	-0.880
2020/01/31 21:16:14.7	5.320	-0.310	-0.940	-0.920
2020/01/31 21:16:14.8	5.330	-0.300	-0.950	-0.950
2020/01/31 21:16:14.9	5.330	-0.300	-0.950	-0.990
2020/01/31 21:16:15.0	5.340	-0.280	-0.940	-1.020
2020/01/31 21:16:15.1	5.350	-0.270	-0.930	-1.050
2020/01/31 21:16:15.2	5.370	-0.260	-0.920	-1.080
2020/01/31 21:16:15.3	5.380	-0.250	-0.900	-1.110
2020/01/31 21:16:15.4	5.390	-0.240	-0.880	-1.140
2020/01/31 21:16:15.5	5.410	-0.230	-0.860	-1.160
2020/01/31 21:16:15.6	5.430	-0.210	-0.830	-1.180
2020/01/31 21:16:15.7	5.440	-0.200	-0.800	-1.200
2020/01/31 21:16:15.8	5.460	-0.190	-0.770	-1.210
2020/01/31 21:16:15.9	5.490	-0.180	-0.730	-1.220
2020/01/31 21:16:16.0	5.510	-0.170	-0.700	-1.230
2020/01/31 21:16:16.1	5.530	-0.160	-0.660	-1.230
2020/01/31 21:16:16.2	5.550	-0.150	-0.620	-1.240
2020/01/31 21:16:16.3	5.570	-0.140	-0.570	-1.230
2020/01/31 21:16:16.4	5.590	-0.140	-0.530	-1.230
2020/01/31 21:16:16.5	5.610	-0.130	-0.480	-1.210
2020/01/31 21:16:16.6	5.630	-0.130	-0.440	-1.200
2020/01/31 21:16:16.7	5.650	-0.120	-0.390	-1.180
2020/01/31 21:16:16.8	5.670	-0.120	-0.340	-1.160
2020/01/31 21:16:16.9	5.680	-0.120	-0.300	-1.130
2020/01/31 21:16:17.0	5.700	-0.120	-0.250	-1.100
2020/01/31 21:16:17.1	5.710	-0.120	-0.200	-1.070
2020/01/31 21:16:17.2	5.720	-0.120	-0.150	-1.030
2020/01/31 21:16:17.3	5.730	-0.120	-0.100	-1.000
2020/01/31 21:16:17.4	5.740	-0.120	-0.060	-0.950
2020/01/31 21:16:17.5	5.740	-0.120	-0.010	-0.910
2020/01/31 21:16:17.6	5.750	-0.130	0.040	-0.860
2020/01/31 21:16:17.7	5.750	-0.130	0.080	-0.810
2020/01/31 21:16:17.8	5.740	-0.130	0.130	-0.760
2020/01/31 21:16:17.9	5.740	-0.130	0.170	-0.710
2020/01/31 21:16:18.0	5.730	-0.140	0.210	-0.650
2020/01/31 21:16:18.1	5.720	-0.140	0.250	-0.600
2020/01/31 21:16:18.2	5.710	-0.140	0.290	-0.540
2020/01/31 21:16:18.3	5.700	-0.140	0.330	-0.480
2020/01/31 21:16:18.4	5.690	-0.130	0.360	-0.420
2020/01/31 21:16:18.5	5.670	-0.130	0.390	-0.360
2020/01/31 21:16:18.6	5.660	-0.130	0.420	-0.300
2020/01/31 21:16:18.7	5.640	-0.120	0.450	-0.250
2020/01/31 21:16:18.8	5.630	-0.110	0.470	-0.190
2020/01/31 21:16:18.9	5.630	-0.100	0.490	-0.130
2020/01/31 21:16:19.0	5.610	-0.090	0.510	-0.070
2020/01/31 21:16:19.1	5.600	-0.080	0.520	-0.020
2020/01/31 21:16:19.2	5.590	-0.070	0.530	0.040
2020/01/31 21:16:19.3	5.570	-0.050	0.530	0.090
2020/01/31 21:16:19.4	5.560	-0.030	0.530	0.140
2020/01/31 21:16:19.5	5.550	-0.010	0.520	0.180
2020/01/31 21:16:19.6	5.540	0.010	0.520	0.230
2020/01/31 21:16:19.7	5.530	0.030	0.500	0.280
2020/01/31 21:16:19.8	5.520	0.050	0.490	0.320
2020/01/31 21:16:19.9	5.530	0.070	0.470	0.360
2020/01/31 21:16:20.0	5.520	0.100	0.440	0.390
2020/01/31 21:16:20.1	5.510	0.120	0.420	0.430
2020/01/31 21:16:20.2	5.500	0.140	0.390	0.460
2020/01/31 21:16:20.3	5.490	0.170	0.360	0.480
2020/01/31 21:16:20.4	5.490	0.190	0.320	0.510
2020/01/31 21:16:20.5	5.480	0.210	0.290	0.530
2020/01/31 21:16:20.6	5.470	0.230	0.250	0.540
2020/01/31 21:16:20.7	5.470	0.250	0.210	0.560
2020/01/31 21:16:20.8	5.460	0.270	0.170	0.570
2020/01/31 21:16:20.9	5.440	0.290	0.130	0.570
2020/01/31 21:16:21.0	5.430	0.310	0.090	0.570
2020/01/31 21:16:21.1	5.430	0.320	0.050	0.570
2020/01/31 21:16:21.2	5.420	0.340	0.010	0.570
2020/01/31 21:16:21.3	5.410	0.350	-0.030	0.560
2020/01/31 21:16:21.4	5.400	0.360	-0.070	0.550
2020/01/31 21:16:21.5	5.390	0.370	-0.110	0.540
2020/01/31 21:16:21.6	5.380	0.370	-0.150	0.520
2020/01/31 21:16:21.7	5.370	0.380	-0.190	0.510
2020/01/31 21:16:21.8	5.370	0.380	-0.230	0.490
2020/01/31 21:16:21.9	5.360	0.380	-0.270	0.470
2020/01/31 21:16:22.0	5.360	0.380	-0.300	0.460
2020/01/31 21:16:22.1	5.350	0.380	-0.340	0.440
2020/01/31 21:16:22.2	5.340	0.370	-0.370	0.410
2020/01/31 21:16:22.3	5.340	0.370	-0.400	0.390
2020/01/31 21:16:22.4	5.340	0.360	-0.430	0.370
2020/01/31 21:16:22.5	5.330	0.350	-0.460	0.340
2020/01/31 21:16:22.6	5.330	0.340	-0.490	0.310
2020/01/31 21:16:22.7	5.330	0.320	-0.520	0.280
2020/01/31 21:16:22.8	5.330	0.310	-0.550	0.250
2020/01/31 21:16:22.9	5.330	0.290	-0.580	0.210
2020/01/31 21:16:23.0	5.340	0.280	-0.600	0.170
2020/01/31 21:16:23.1	5.350	0.260	-0.630	0.140
2020/01/31 21:16:23.2	5.350	0.240	-0.650	0.090
2020/01/31 21:16:23.3	5.360	0.220	-0.680	0.050
2020/01/31 21:16:23.4	5.380	0.200	-0.700	0.000
2020/01/31 21:16:23.5	5.390	0.170	-0.720	-0.050
2020/01/31 21:16:23.6	5.400	0.150	-0.740	-0.100
2020/01/31 21:16:23.7	5.420	0.130	-0.760	-0.150
2020/01/31 21:16:23.8	5.430	0.100	-0.770	-0.200
2020/01/31 21:16:23.9	5.460	0.080	-0.790	-0.250
2020/01/31 21:16:24.0	5.470	0.060	-0.800	-0.310
2020/01/31 21:16:24.1	5.490	0.030	-0.810	-0.360
2020/01/31 21:16:24.2	5.500	0.010	-0.820	-0.420
2020/01/31 21:16:24.3	5.520	-0.010	-0.820	-0.470
2020/01/31 21:16:24.4	5.530	-0.040	-0.830	-0.530
2020/01/31 21:16:24.5	5.550	-0.060	-0.830	-0.580
2020/01/31 21:16:24.6	5.560	-0.080	-0.820	-0.630
2020/01/31 21:16:24.7	5.570	-0.100	-0.820	-0.680
2020/01/31 21:16:24.8	5.590	-0.120	-0.810	-0.730
2020/01/31 21:16:24.9	5.590	-0.140	-0.800	-0.780
2020/01/31 21:16:25.0	5.600	-0.160	-0.790	-0.820
2020/01/31 21:16:25.1	5.610	-0.180	-0.770	-0.860
2020/01/31 21:16:25.2	5.630	-0.200	-0.750	-0.900
2020/01/31 21:16:25.3	5.640	-0.210	-0.740	-0.940
2020/01/31 21:16:25.4	5.650	-0.230	-0.720	-0.980
2020/01/31 21:16:25.5	5.660	-0.240	-0.700	-1.010
2020/01/31 21:16:25.6	5.680	-0.250	-0.680	-1.040
2020/01/31 21:16:25.7	5.690	-0.260	-0.650	-1.070
2020/01/31 21:16:25.8	5.710	-0.270	-0.630	-1.090
2020/01/31 21:16:25.9	5.730	-0.270	-0.610	-1.120
2020/01/31 21:16:26.0	5.740	-0.280	-0.590	-1.130
2020/01/31 21:16:26.1	5.760	-0.280	-0.570	-1.150
2020/01/31 21:16:26.2	5.770	-0.290	-0.550	-1.160
2020/01/31 21:16:26.3	5.790	-0.290	-0.520	-1.160
2020/01/31 21:16:26.4	5.800	-0.290	-0.500	-1.170
2020/01/31 21:16:26.5	5.810	-0.280	-0.480	-1.160
2020/01/31 21:16:26.6	5.820	-0.280	-0.460	-1.160
2020/01/31 21:16:26.7	5.830	-0.280	-0.440	-1.150
2020/01/31 21:16:26.8	5.840	-0.270	-0.420	-1.140
2020/01/31 21:16:26.9	5.850	-0.260	-0.410	-1.120
2020/01/31 21:16:27.0	5.860	-0.260	-0.390	-1.100
2020/01/31 21:16:27.1	5.860	-0.250	-0.370	-1.080
2020/01/31 21:16:27.2	5.870	-0.240	-0.350	-1.050
2020/01/31 21:16:27.3	5.870	-0.230	-0.320	-1.030
2020/01/31 21:16:27.4	5.880	-0.220	-0.300	-1.000
2020/01/31 21:16:27.5	5.880	-0.210	-0.280	-0.970
2020/01/31 21:16:27.6	5.890	-0.200	-0.260	-0.940
2020/01/31 21:16:27.7	5.890	-0.190	-0.230	-0.900
2020/01/31 21:16:27.8	5.890	-0.190	-0.210	-0.870
2020/01/31 21:16:27.9	5.880	-0.180	-0.180	-0.840
2020/01/31 21:16:28.0	5.890	-0.170	-0.150	-0.800
2020/01/31 21:16:28.1	5.890	-0.160	-0.130	-0.770
2020/01/31 21:16:28.2	5.900	-0.150	-0.100	-0.730
2020/01/31 21:16:28.3	5.900	-0.140	-0.080	-0.690
2020/01/31 21:16:28.4	5.910	-0.130	-0.050	-0.650
2020/01/31 21:16:28.5	5.910	-0.120	-0.030	-0.620
2020/01/31 21:16:28.6	5.920	-0.110	-0.010	-0.580
2020/01/31 21:16:28.7	5.930	-0.100	0.020	-0.540
2020/01/31 21:16:28.8	5.930	-0.090	0.040	-0.510
2020/01/31 21:16:28.9	5.950	-0.090	0.060	-0.460
2020/01/31 21:16:29.0	5.960	-0.080	0.080	-0.430
2020/01/31 21:16:29.1	5.970	-0.070	0.090	-0.390
2020/01/31 21:16:29.2	5.980	-0.060	0.110	-0.350
2020/01/31 21:16:29.3	5.990	-0.050	0.120	-0.320
2020/01/31 21:16:29.4	6.000	-0.040	0.140	-0.280
2020/01/31 21:16:29.5	6.010	-0.030	0.150	-0.240
2020/01/31 21:16:29.6	6.020	-0.020	0.160	-0.210
2020/01/31 21:16:29.7	6.030	-0.020	0.170	-0.170
2020/01/31 21:16:29.8	6.040	-0.010	0.180	-0.130
2020/01/31 21:16:29.9	6.060	0.000	0.190	-0.100
2020/01/31 21:16:30.0	6.060	0.010	0.200	-0.070
2020/01/31 21:16:30.1	6.070	0.020	0.210	-0.030
2020/01/31 21:16:30.2	6.080	0.030	0.220	0.000
2020/01/31 21:16:30.3	6.090	0.040	0.230	0.030
2020/01/31 21:16:30.4	6.090	0.050	0.230	0.070
2020/01/31 21:16:30.5	6.100	0.050	0.240	0.100
2020/01/31 21:16:30.6	6.100	0.060	0.250	0.140
2020/01/31 21:16:30.7	6.100	0.070	0.260	0.170
2020/01/31 21:16:30.8	6.100	0.080	0.260	0.210
2020/01/31 21:16:30.9	6.100	0.090	0.270	0.240
2020/01/31 21:16:31.0	6.090	0.090	0.270	0.280
2020/01/31 21:16:31.1	6.080	0.100	0.280	0.310
2020/01/31 21:16:31.2	6.070	0.110	0.280	0.350
2020/01/31 21:16:31.3	6.060	0.110	0.280	0.390
2020/01/31 21:16:31.4	6.040	0.120	0.290	0.420
2020/01/31 21:16:31.5	6.020	0.120	0.290	0.460
2020/01/31 21:16:31.6	6.000	0.130	0.280	0.500
2020/01/31 21:16:31.7	5.980	0.130	0.280	0.530
2020/01/31 21:16:31.8	5.950	0.140	0.270	0.560
2020/01/31 21:16:31.9	5.920	0.140	0.260	0.600
2020/01/31 21:16:32.0	5.890	0.140	0.250	0.620
2020/01/31 21:16:32.1	5.860	0.150	0.230	0.650
2020/01/31 21:16:32.2	5.830	0.150	0.210	0.670
2020/01/31 21:16:32.3	5.800	0.150	0.190	0.690
2020/01/31 21:16:32.4	5.770	0.150	0.160	0.700
2020/01/31 21:16:32.5	5.730	0.150	0.130	0.710
2020/01/31 21:16:32.6	5.700	0.160	0.100	0.710
2020/01/31 21:16:32.7	5.670	0.160	0.060	0.710
2020/01/31 21:16:32.8	5.630	0.160	0.030	0.710
2020/01/31 21:16:32.9	5.600	0.160	-0.020	0.690
2020/01/31 21:16:33.0	5.570	0.160	-0.060	0.680
2020/01/31 21:16:33.1	5.540	0.160	-0.110	0.650
2020/01/31 21:16:33.2	5.510	0.170	-0.160	0.630
2020/01/31 21:16:33.3	5.490	0.170	-0.210	0.590
2020/01/31 21:16:33.4	5.460	0.170	-0.260	0.550
2020/01/31 21:16:33.5	5.440	0.170	-0.320	0.510
2020/01/31 21:16:33.6	5.420	0.180	-0.380	0.470
2020/01/31 21:16:33.7	5.400	0.180	-0.430	0.420
2020/01/31 21:16:33.8	5.390	0.180	-0.490	0.360
2020/01/31 21:16:33.9	5.370	0.180	-0.550	0.300
2020/01/31 21:16:34.0	5.360	0.180	-0.600	0.240
2020/01/31 21:16:34.1	5.350	0.190	-0.660	0.180
2020/01/31 21:16:34.2	5.350	0.190	-0.710	0.110
2020/01/31 21:16:34.3	5.340	0.190	-0.760	0.050
2020/01/31 21:16:34.4	5.340	0.180	-0.810	-0.020
2020/01/31 21:16:34.5	5.330	0.180	-0.850	-0.090
2020/01/31 21:16:34.6	5.330	0.180	-0.890	-0.160
2020/01/31 21:16:34.7	5.330	0.170	-0.930	-0.230
2020/01/31 21:16:34.8	5.330	0.160	-0.970	-0.310
2020/01/31 21:16:34.9	5.330	0.160	-1.000	-0.380
2020/01/31 21:16:35.0	5.340	0.150	-1.020	-0.450
2020/01/31 21:16:35.1	5.340	0.140	-1.040	-0.520
2020/01/31 21:16:35.2	5.350	0.120	-1.060	-0.590
2020/01/31 21:16:35.3	5.360	0.110	-1.070	-0.670
2020/01/31 21:16:35.4	5.370	0.090	-1.070	-0.730
2020/01/31 21:16:35.5	5.380	0.080	-1.070	-0.800
2020/01/31 21:16:35.6	5.400	0.060	-1.070	-0.870
2020/01/31 21:16:35.7	5.410	0.040	-1.060	-0.930
2020/01/31 21:16:35.8	5.430	0.020	-1.040	-0.990
2020/01/31 21:16:35.9	5.460	0.000	-1.020	-1.050
2020/01/31 21:16:36.0	5.480	-0.020	-1.000	-1.110
2020/01/31 21:16:36.1	5.500	-0.040	-0.970	-1.160
2020/01/31 21:16:36.2	5.520	-0.060	-0.940	-1.210
2020/01/31 21:16:36.3	5.550	-0.080	-0.910	-1.260
2020/01/31 21:16:36.4	5.570	-0.100	-0.870	-1.310
2020/01/31 21:16:36.5	5.600	-0.120	-0.830	-1.350
2020/01/31 21:16:36.6	5.630	-0.140	-0.780	-1.380
2020/01/31 21:16:36.7	5.650	-0.160	-0.740	-1.420
2020/01/31 21:16:36.8	5.680	-0.180	-0.690	-1.450
2020/01/31 21:16:36.9	5.710	-0.200	-0.650	-1.480
2020/01/31 21:16:37.0	5.740	-0.220	-0.600	-1.500
2020/01/31 21:16:37.1	5.770	-0.230	-0.550	-1.510
2020/01/31 21:16:37.2	5.800	-0.250	-0.500	-1.530
2020/01/31 21:16:37.3	5.830	-0.260	-0.450	-1.530
2020/01/31 21:16:37.4	5.860	-0.270	-0.400	-1.530
2020/01/31 21:16:37.5	5.890	-0.280	-0.350	-1.530
2020/01/31 21:16:37.6	5.920	-0.290	-0.310	-1.520
2020/01/31 21:16:37.7	5.940	-0.290	-0.260	-1.510
2020/01/31 21:16:37.8	5.970	-0.300	-0.220	-1.490
2020/01/31 21:16:37.9	5.990	-0.300	-0.180	-1.470
2020/01/31 21:16:38.0	6.020	-0.300	-0.140	-1.440
2020/01/31 21:16:38.1	6.040	-0.290	-0.110	-1.410
2020/01/31 21:16:38.2	6.060	-0.290	-0.080	-1.380
2020/01/31 21:16:38.3	6.090	-0.280	-0.050	-1.340
2020/01/31 21:16:38.4	6.110	-0.270	-0.020	-1.300
2020/01/31 21:16:38.5	6.130	-0.260	0.000	-1.260
2020/01/31 21:16:38.6	6.150	-0.250	0.020	-1.210
2020/01/31 21:16:38.7	6.170	-0.240	0.040	-1.160
2020/01/31 21:16:38.8	6.180	-0.220	0.050	-1.110
2020/01/31 21:16:38.9	6.190	-0.210	0.060	-1.060
2020/01/31 21:16:39.0	6.210	-0.190	0.070	-1.010
2020/01/31 21:16:39.1	6.230	-0.170	0.080	-0.960
2020/01/31 21:16:39.2	6.240	-0.150	0.080	-0.910
2020/01/31 21:16:39.3	6.250	-0.130	0.080	-0.850
2020/01/31 21:16:39.4	6.260	-0.110	0.080	-0.800
2020/01/31 21:16:39.5	6.280	-0.090	0.080	-0.750
2020/01/31 21:16:39.6	6.290	-0.070	0.080	-0.700
2020/01/31 21:16:39.7	6.290	-0.050	0.080	-0.650
2020/01/31 21:16:39.8	6.300	-0.030	0.070	-0.600
2020/01/31 21:16:39.9	6.320	-0.010	0.070	-0.540
2020/01/31 21:16:40.0	6.320	0.000	0.070	-0.490
2020/01/31 21:16:40.1	6.330	0.020	0.060	-0.440
2020/01/31 21:16:40.2	6.320	0.040	0.060	-0.390
2020/01/31 21:16:40.3	6.320	0.050	0.060	-0.330
2020/01/31 21:16:40.4	6.320	0.070	0.060	-0.280
2020/01/31 21:16:40.5	6.310	0.080	0.060	-0.230
2020/01/31 21:16:40.6	6.300	0.090	0.060	-0.170
2020/01/31 21:16:40.7	6.280	0.100	0.060	-0.120
2020/01/31 21:16:40.8	6.270	0.100	0.070	-0.060
2020/01/31 21:16:40.9	6.260	0.110	0.070	-0.010
2020/01/31 21:16:41.0	6.240	0.110	0.080	0.050
2020/01/31 21:16:41.1	6.220	0.110	0.090	0.100
2020/01/31 21:16:41.2	6.190	0.110	0.090	0.150
2020/01/31 21:16:41.3	6.160	0.110	0.100	0.200
2020/01/31 21:16:41.4	6.130	0.100	0.110	0.250
2020/01/31 21:16:41.5	6.100	0.090	0.130	0.290
2020/01/31 21:16:41.6	6.070	0.090	0.140	0.340
2020/01/31 21:16:41.7	6.030	0.080	0.150	0.380
2020/01/31 21:16:41.8	5.990	0.070	0.160	0.410
2020/01/31 21:16:41.9	5.970	0.050	0.170	0.450
2020/01/31 21:16:42.0	5.930	0.040	0.180	0.480
2020/01/31 21:16:42.1	5.890	0.030	0.190	0.510
2020/01/31 21:16:42.2	5.860	0.020	0.190	0.530
2020/01/31 21:16:42.3	5.820	0.000	0.200	0.550
2020/01/31 21:16:42.4	5.780	-0.010	0.200	0.560
2020/01/31 21:16:42.5	5.740	-0.020	0.190	0.570
2020/01/31 21:16:42.6	5.710	-0.030	0.190	0.580
2020/01/31 21:16:42.7	5.670	-0.040	0.180	0.580
2020/01/31 21:16:42.8	5.640	-0.050	0.160	0.580
2020/01/31 21:16:42.9	5.610	-0.050	0.150	0.570
2020/01/31 21:16:43.0	5.580	-0.060	0.120	0.560
2020/01/31 21:16:43.1	5.560	-0.060	0.100	0.540
2020/01/31 21:16:43.2	5.530	-0.060	0.070	0.520
2020/01/31 21:16:43.3	5.510	-0.060	0.030	0.500
2020/01/31 21:16:43.4	5.500	-0.050	-0.010	0.480
2020/01/31 21:16:43.5	5.480	-0.040	-0.050	0.450
2020/01/31 21:16:43.6	5.470	-0.030	-0.100	0.420
2020/01/31 21:16:43.7	5.460	-0.020	-0.150	0.380
2020/01/31 21:16:43.8	5.450	-0.010	-0.200	0.350
2020/01/31 21:16:43.9	5.450	0.010	-0.260	0.310
2020/01/31 21:16:44.0	5.440	0.020	-0.310	0.270
2020/01/31 21:16:44.1	5.440	0.040	-0.370	0.230
2020/01/31 21:16:44.2	5.440	0.060	-0.420	0.190
2020/01/31 21:16:44.3	5.430	0.080	-0.480	0.150
2020/01/31 21:16:44.4	5.430	0.100	-0.530	0.100
2020/01/31 21:16:44.5	5.430	0.120	-0.580	0.060
2020/01/31 21:16:44.6	5.430	0.130	-0.630	0.010
2020/01/31 21:16:44.7	5.430	0.150	-0.670	-0.030
2020/01/31 21:16:44.8	5.430	0.170	-0.710	-0.080
2020/01/31 21:16:44.9	5.420	0.190	-0.750	-0.130
2020/01/31 21:16:45.0	5.420	0.200	-0.780	-0.180
2020/01/31 21:16:45.1	5.420	0.210	-0.800	-0.220
2020/01/31 21:16:45.2	5.410	0.220	-0.830	-0.270
2020/01/31 21:16:45.3	5.410	0.230	-0.840	-0.320
2020/01/31 21:16:45.4	5.410	0.240	-0.850	-0.360
2020/01/31 21:16:45.5	5.410	0.250	-0.850	-0.410
2020/01/31 21:16:45.6	5.400	0.250	-0.850	-0.450
2020/01/31 21:16:45.7	5.400	0.250	-0.840	-0.490
2020/01/31 21:16:45.8	5.390	0.250	-0.830	-0.520
2020/01/31 21:16:45.9	5.390	0.250	-0.820	-0.560
2020/01/31 21:16:46.0	5.380	0.240	-0.790	-0.590
2020/01/31 21:16:46.1	5.380	0.230	-0.770	-0.610
2020/01/31 21:16:46.2	5.370	0.220	-0.730	-0.640
2020/01/31 21:16:46.3	5.370	0.210	-0.700	-0.650
2020/01/31 21:16:46.4	5.360	0.200	-0.660	-0.670
2020/01/31 21:16:46.5	5.360	0.180	-0.610	-0.680
2020/01/31 21:16:46.6	5.350	0.170	-0.570	-0.690
2020/01/31 21:16:46.7	5.350	0.150	-0.520	-0.690
2020/01/31 21:16:46.8	5.350	0.130	-0.470	-0.690
2020/01/31 21:16:46.9	5.360	0.120	-0.430	-0.680
2020/01/31 21:16:47.0	5.360	0.100	-0.380	-0.680
2020/01/31 21:16:47.1	5.370	0.080	-0.330	-0.670
2020/01/31 21:16:47.2	5.370	0.060	-0.280	-0.660
2020/01/31 21:16:47.3	5.370	0.040	-0.230	-0.650
2020/01/31 21:16:47.4	5.380	0.020	-0.190	-0.630
2020/01/31 21:16:47.5	5.380	0.000	-0.150	-0.620
2020/01/31 21:16:47.6	5.390	-0.010	-0.110	-0.610
2020/01/31 21:16:47.7	5.400	-0.030	-0.070	-0.590
2020/01/31 21:16:47.8	5.400	-0.050	-0.040	-0.580
2020/01/31 21:16:47.9	5.400	-0.070	-0.010	-0.560
2020/01/31 21:16:48.0	5.400	-0.080	0.020	-0.550
2020/01/31 21:16:48.1	5.410	-0.100	0.040	-0.540
2020/01/31 21:16:48.2	5.420	-0.110	0.060	-0.530
2020/01/31 21:16:48.3	5.430	-0.120	0.080	-0.530
2020/01/31 21:16:48.4	5.440	-0.130	0.090	-0.520
2020/01/31 21:16:48.5	5.450	-0.150	0.100	-0.510
2020/01/31 21:16:48.6	5.460	-0.160	0.100	-0.510
2020/01/31 21:16:48.7	5.470	-0.170	0.100	-0.510
2020/01/31 21:16:48.8	5.480	-0.180	0.100	-0.500
2020/01/31 21:16:48.9	5.480	-0.180	0.080	-0.500
2020/01/31 21:16:49.0	5.490	-0.190	0.070	-0.500
2020/01/31 21:16:49.1	5.490	-0.200	0.050	-0.510
2020/01/31 21:16:49.2	5.500	-0.210	0.030	-0.510
2020/01/31 21:16:49.3	5.510	-0.220	0.000	-0.510
2020/01/31 21:16:49.4	5.520	-0.220	-0.030	-0.510
2020/01/31 21:16:49.5	5.520	-0.230	-0.060	-0.510
2020/01/31 21:16:49.6	5.530	-0.240	-0.100	-0.520
2020/01/31 21:16:49.7	5.540	-0.240	-0.140	-0.520
2020/01/31 21:16:49.8	5.550	-0.250	-0.180	-0.520
2020/01/31 21:16:49.9	5.560	-0.250	-0.220	-0.530
2020/01/31 21:16:50.0	5.580	-0.260	-0.270	-0.530
2020/01/31 21:16:50.1	5.590	-0.260	-0.320	-0.540
2020/01/31 21:16:50.2	5.600	-0.270	-0.360	-0.550
2020/01/31 21:16:50.3	5.620	-0.270	-0.410	-0.560
2020/01/31 21:16:50.4	5.630	-0.280	-0.460	-0.570
2020/01/31 21:16:50.5	5.650	-0.280	-0.510	-0.580
2020/01/31 21:16:50.6	5.670	-0.280	-0.560	-0.590
2020/01/31 21:16:50.7	5.690	-0.290	-0.600	-0.610
2020/01/31 21:16:50.8	5.710	-0.290	-0.640	-0.620
2020/01/31 21:16:50.9	5.730	-0.290	-0.680	-0.630
2020/01/31 21:16:51.0	5.760	-0.290	-0.720	-0.640
2020/01/31 21:16:51.1	5.780	-0.290	-0.750	-0.660
2020/01/31 21:16:51.2	5.800	-0.290	-0.770	-0.670
2020/01/31 21:16:51.3	5.830	-0.290	-0.790	-0.680
2020/01/31 21:16:51.4	5.850	-0.290	-0.810	-0.700
2020/01/31 21:16:51.5	5.870	-0.290	-0.820	-0.710
2020/01/31 21:16:51.6	5.890	-0.290	-0.820	-0.710
2020/01/31 21:16:51.7	5.910	-0.290	-0.810	-0.720
2020/01/31 21:16:51.8	5.930	-0.290	-0.800	-0.720
2020/01/31 21:16:51.9	5.940	-0.280	-0.780	-0.720
2020/01/31 21:16:52.0	5.960	-0.280	-0.750	-0.720
2020/01/31 21:16:52.1	5.970	-0.270	-0.720	-0.700
2020/01/31 21:16:52.2	5.980	-0.260	-0.680	-0.690
2020/01/31 21:16:52.3	5.990	-0.260	-0.640	-0.670
2020/01/31 21:16:52.4	6.000	-0.250	-0.580	-0.640
2020/01/31 21:16:52.5	6.000	-0.240	-0.530	-0.610
2020/01/31 21:16:52.6	5.990	-0.230	-0.460	-0.570
2020/01/31 21:16:52.7	5.990	-0.220	-0.390	-0.530
2020/01/31 21:16:52.8	5.980	-0.210	-0.320	-0.480
2020/01/31 21:16:52.9	5.980	-0.190	-0.250	-0.420
2020/01/31 21:16:53.0	5.960	-0.180	-0.170	-0.370
2020/01/31 21:16:53.1	5.930	-0.170	-0.090	-0.300
2020/01/31 21:16:53.2	5.900	-0.160	-0.010	-0.240
2020/01/31 21:16:53.3	5.870	-0.140	0.070	-0.180
2020/01/31 21:16:53.4	5.840	-0.130	0.150	-0.110
2020/01/31 21:16:53.5	5.800	-0.120	0.220	-0.040
2020/01/31 21:16:53.6	5.760	-0.100	0.300	0.030
2020/01/31 21:16:53.7	5.720	-0.090	0.370	0.100
2020/01/31 21:16:53.8	5.670	-0.080	0.440	0.160
2020/01/31 21:16:53.9	5.620	-0.060	0.500	0.230
2020/01/31 21:16:54.0	5.570	-0.050	0.550	0.290
2020/01/31 21:16:54.1	5.520	-0.040	0.600	0.350
2020/01/31 21:16:54.2	5.470	-0.020	0.650	0.410
2020/01/31 21:16:54.3	5.420	-0.010	0.680	0.470
2020/01/31 21:16:54.4	5.370	0.010	0.710	0.520
2020/01/31 21:16:54.5	5.320	0.020	0.730	0.560
2020/01/31 21:16:54.6	5.270	0.040	0.740	0.610
2020/01/31 21:16:54.7	5.220	0.060	0.740	0.640
2020/01/31 21:16:54.8	5.180	0.080	0.730	0.680
2020/01/31 21:16:54.9	5.140	0.090	0.710	0.700
2020/01/31 21:16:55.0	5.100	0.110	0.680	0.730
2020/01/31 21:16:55.1	5.060	0.130	0.640	0.740
2020/01/31 21:16:55.2	5.030	0.150	0.590	0.750
2020/01/31 21:16:55.3	5.000	0.180	0.540	0.760
2020/01/31 21:16:55.4	4.970	0.200	0.470	0.760
2020/01/31 21:16:55.5	4.950	0.220	0.400	0.750
2020/01/31 21:16:55.6	4.940	0.240	0.320	0.740
2020/01/31 21:16:55.7	4.920	0.270	0.240	0.720
2020/01/31 21:16:55.8	4.910	0.290	0.150	0.700
2020/01/31 21:16:55.9	4.900	0.320	0.060	0.680
2020/01/31 21:16:56.0	4.900	0.340	-0.040	0.640
2020/01/31 21:16:56.1	4.900	0.360	-0.140	0.610
2020/01/31 21:16:56.2	4.900	0.380	-0.240	0.570
2020/01/31 21:16:56.3	4.910	0.410	-0.330	0.530
2020/01/31 21:16:56.4	4.920	0.430	-0.430	0.490
2020/01/31 21:16:56.5	4.930	0.440	-0.520	0.450
2020/01/31 21:16:56.6	4.940	0.460	-0.610	0.400
2020/01/31 21:16:56.7	4.950	0.470	-0.690	0.350
2020/01/31 21:16:56.8	4.970	0.490	-0.770	0.310
2020/01/31 21:16:56.9	4.990	0.490	-0.840	0.260
2020/01/31 21:16:57.0	5.010	0.500	-0.900	0.210
2020/01/31 21:16:57.1	5.020	0.510	-0.960	0.160
2020/01/31 21:16:57.2	5.040	0.510	-1.000	0.110
2020/01/31 21:16:57.3	5.050	0.500	-1.040	0.070
2020/01/31 21:16:57.4	5.070	0.500	-1.070	0.020
2020/01/31 21:16:57.5	5.090	0.490	-1.100	-0.020
2020/01/31 21:16:57.6	5.100	0.480	-1.110	-0.070
2020/01/31 21:16:57.7	5.120	0.470	-1.120	-0.110
2020/01/31 21:16:57.8	5.130	0.460	-1.120	-0.150
2020/01/31 21:16:57.9	5.150	0.440	-1.110	-0.190
2020/01/31 21:16:58.0	5.170	0.420	-1.090	-0.230
2020/01/31 21:16:58.1	5.180	0.390	-1.070	-0.270
2020/01/31 21:16:58.2	5.200	0.370	-1.040	-0.310
2020/01/31 21:16:58.3	5.220	0.340	-1.010	-0.340
2020/01/31 21:16:58.4	5.240	0.320	-0.970	-0.370
2020/01/31 21:16:58.5	5.250	0.290	-0.930	-0.410
2020/01/31 21:16:58.6	5.270	0.260	-0.890	-0.440
2020/01/31 21:16:58.7	5.290	0.220	-0.840	-0.470
2020/01/31 21:16:58.8	5.310	0.190	-0.800	-0.500
2020/01/31 21:16:58.9	5.330	0.160	-0.750	-0.520
2020/01/31 21:16:59.0	5.350	0.130	-0.710	-0.550
2020/01/31 21:16:59.1	5.370	0.100	-0.660	-0.570
2020/01/31 21:16:59.2	5.390	0.060	-0.610	-0.600
2020/01/31 21:16:59.3	5.410	0.030	-0.570	-0.620
2020/01/31 21:16:59.4	5.440	0.000	-0.530	-0.650
2020/01/31 21:16:59.5	5.460	-0.030	-0.490	-0.670
2020/01/31 21:16:59.6	5.480	-0.060	-0.450	-0.700
2020/01/31 21:16:59.7	5.500	-0.090	-0.410	-0.720
2020/01/31 21:16:59.8	5.520	-0.120	-0.380	-0.750
2020/01/31 21:16:59.9	5.530	-0.150	-0.350	-0.780
2020/01/31 21:17:00.0	5.540	-0.180	-0.320	-0.800
2020/01/31 21:17:00.1	5.560	-0.200	-0.290	-0.820
2020/01/31 21:17:00.2	5.580	-0.230	-0.270	-0.840
2020/01/31 21:17:00.3	5.590	-0.250	-0.240	-0.870
2020/01/31 21:17:00.4	5.600	-0.280	-0.220	-0.890
2020/01/31 21:17:00.5	5.610	-0.300	-0.210	-0.900
2020/01/31 21:17:00.6	5.620	-0.320	-0.190	-0.920
2020/01/31 21:17:00.7	5.630	-0.340	-0.180	-0.940
2020/01/31 21:17:00.8	5.640	-0.350	-0.170	-0.950
2020/01/31 21:17:00.9	5.640	-0.370	-0.160	-0.960
2020/01/31 21:17:01.0	5.640	-0.380	-0.150	-0.970
2020/01/31 21:17:01.1	5.650	-0.400	-0.140	-0.970
2020/01/31 21:17:01.2	5.660	-0.410	-0.140	-0.980
2020/01/31 21:17:01.3	5.660	-0.420	-0.140	-0.980
2020/01/31 21:17:01.4	5.670	-0.420	-0.130	-0.980
2020/01/31 21:17:01.5	5.670	-0.430	-0.130	-0.970
2020/01/31 21:17:01.6	5.680	-0.430	-0.130	-0.970
2020/01/31 21:17:01.7	5.680	-0.440	-0.130	-0.960
2020/01/31 21:17:01.8	5.680	-0.440	-0.120	-0.940
2020/01/31 21:17:01.9	5.670	-0.440	-0.120	-0.930
2020/01/31 21:17:02.0	5.670	-0.440	-0.110	-0.910
2020/01/31 21:17:02.1	5.670	-0.440	-0.100	-0.880
2020/01/31 21:17:02.2	5.670	-0.430	-0.090	-0.860
2020/01/31 21:17:02.3	5.670	-0.430	-0.080	-0.830
2020/01/31 21:17:02.4	5.670	-0.420	-0.070	-0.800
2020/01/31 21:17:02.5	5.670	-0.420	-0.060	-0.770
2020/01/31 21:17:02.6	5.660	-0.410	-0.040	-0.730
2020/01/31 21:17:02.7	5.650	-0.400	-0.020	-0.690
2020/01/31 21:17:02.8	5.640	-0.390	0.010	-0.650
2020/01/31 21:17:02.9	5.630	-0.390	0.030	-0.610
2020/01/31 21:17:03.0	5.620	-0.380	0.060	-0.570
2020/01/31 21:17:03.1	5.600	-0.370	0.090	-0.520
2020/01/31 21:17:03.2	5.590	-0.360	0.120	-0.470
2020/01/31 21:17:03.3	5.570	-0.350	0.150	-0.420
2020/01/31 21:17:03.4	5.550	-0.340	0.190	-0.370
2020/01/31 21:17:03.5	5.530	-0.330	0.230	-0.310
2020/01/31 21:17:03.6	5.500	-0.320	0.260	-0.260
2020/01/31 21:17:03.7	5.480	-0.310	0.300	-0.200
2020/01/31 21:17:03.8	5.450	-0.300	0.330	-0.140
2020/01/31 21:17:03.9	5.420	-0.290	0.370	-0.080
2020/01/31 21:17:04.0	5.390	-0.280	0.400	-0.020
2020/01/31 21:17:04.1	5.360	-0.280	0.430	0.030
2020/01/31 21:17:04.2	5.330	-0.270	0.450	0.090
2020/01/31 21:17:04.3	5.290	-0.260	0.470	0.150
2020/01/31 21:17:04.4	5.260	-0.250	0.490	0.200
2020/01/31 21:17:04.5	5.220	-0.240	0.500	0.250
2020/01/31 21:17:04.6	5.190	-0.230	0.510	0.300
2020/01/31 21:17:04.7	5.150	-0.220	0.520	0.350
2020/01/31 21:17:04.8	5.120	-0.210	0.510	0.400
2020/01/31 21:17:04.9	5.080	-0.200	0.500	0.440
2020/01/31 21:17:05.0	5.050	-0.190	0.490	0.480
2020/01/31 21:17:05.1	5.020	-0.180	0.460	0.510
2020/01/31 21:17:05.2	4.990	-0.160	0.440	0.540
2020/01/31 21:17:05.3	4.960	-0.150	0.400	0.570
2020/01/31 21:17:05.4	4.930	-0.130	0.360	0.590
2020/01/31 21:17:05.5	4.910	-0.120	0.310	0.600
2020/01/31 21:17:05.6	4.890	-0.100	0.260	0.610
2020/01/31 21:17:05.7	4.880	-0.080	0.200	0.620
2020/01/31 21:17:05.8	4.860	-0.060	0.140	0.620
2020/01/31 21:17:05.9	4.860	-0.040	0.070	0.610
2020/01/31 21:17:06.0	4.850	-0.010	-0.000	0.600
2020/01/31 21:17:06.1	4.840	0.020	-0.080	0.590
2020/01/31 21:17:06.2	4.840	0.040	-0.160	0.570
2020/01/31 21:17:06.3	4.840	0.070	-0.240	0.550
2020/01/31 21:17:06.4	4.850	0.100	-0.320	0.530
2020/01/31 21:17:06.5	4.850	0.140	-0.400	0.510
2020/01/31 21:17:06.6	4.860	0.170	-0.490	0.480
2020/01/31 21:17:06.7	4.870	0.200	-0.570	0.450
2020/01/31 21:17:06.8	4.880	0.240	-0.650	0.420
2020/01/31 21:17:06.9	4.900	0.270	-0.730	0.390
2020/01/31 21:17:07.0	4.910	0.310	-0.800	0.360
2020/01/31 21:17:07.1	4.930	0.340	-0.870	0.320
2020/01/31 21:17:07.2	4.950	0.380	-0.940	0.290
2020/01/31 21:17:07.3	4.960	0.410	-1.000	0.250
2020/01/31 21:17:07.4	4.990	0.440	-1.060	0.210
2020/01/31 21:17:07.5	5.010	0.470	-1.110	0.180
2020/01/31 21:17:07.6	5.030	0.500	-1.150	0.140
2020/01/31 21:17:07.7	5.060	0.530	-1.190	0.100
2020/01/31 21:17:07.8	5.080	0.550	-1.220	0.060
2020/01/31 21:17:07.9	5.120	0.570	-1.240	0.020
2020/01/31 21:17:08.0	5.140	0.590	-1.260	-0.020
2020/01/31 21:17:08.1	5.170	0.600	-1.270	-0.060
2020/01/31 21:17:08.2	5.200	0.610	-1.270	-0.090
2020/01/31 21:17:08.3	5.230	0.610	-1.270	-0.130
2020/01/31 21:17:08.4	5.250	0.620	-1.250	-0.160
2020/01/31 21:17:08.5	5.280	0.610	-1.230	-0.200
2020/01/31 21:17:08.6	5.310	0.610	-1.210	-0.230
2020/01/31 21:17:08.7	5.330	0.590	-1.180	-0.250
2020/01/31 21:17:08.8	5.350	0.580	-1.140	-0.280
2020/01/31 21:17:08.9	5.370	0.560	-1.090	-0.300
2020/01/31 21:17:09.0	5.390	0.530	-1.040	-0.320
2020/01/31 21:17:09.1	5.400	0.500	-0.990	-0.340
2020/01/31 21:17:09.2	5.410	0.460	-0.930	-0.350
2020/01/31 21:17:09.3	5.410	0.430	-0.870	-0.370
2020/01/31 21:17:09.4	5.420	0.380	-0.810	-0.380
2020/01/31 21:17:09.5	5.420	0.340	-0.740	-0.390
2020/01/31 21:17:09.6	5.420	0.290	-0.670	-0.400
2020/01/31 21:17:09.7	5.420	0.230	-0.600	-0.410
2020/01/31 21:17:09.8	5.410	0.180	-0.530	-0.420
2020/01/31 21:17:09.9	5.390	0.120	-0.470	-0.440
2020/01/31 21:17:10.0	5.380	0.070	-0.400	-0.450
2020/01/31 21:17:10.1	5.370	0.010	-0.330	-0.460
2020/01/31 21:17:10.2	5.360	-0.050	-0.270	-0.460
2020/01/31 21:17:10.3	5.350	-0.110	-0.200	-0.470
2020/01/31 21:17:10.4	5.330	-0.170	-0.140	-0.480
2020/01/31 21:17:10.5	5.320	-0.230	-0.080	-0.490
2020/01/31 21:17:10.6	5.300	-0.280	-0.020	-0.500
2020/01/31 21:17:10.7	5.290	-0.330	0.030	-0.510
2020/01/31 21:17:10.8	5.270	-0.380	0.090	-0.510
2020/01/31 21:17:10.9	5.260	-0.430	0.140	-0.520
2020/01/31 21:17:11.0	5.240	-0.470	0.180	-0.530
2020/01/31 21:17:11.1	5.220	-0.510	0.220	-0.540
2020/01/31 21:17:11.2	5.210	-0.550	0.260	-0.540
2020/01/31 21:17:11.3	5.190	-0.580	0.290	-0.540
2020/01/31 21:17:11.4	5.170	-0.600	0.320	-0.550
2020/01/31 21:17:11.5	5.160	-0.620	0.340	-0.550
2020/01/31 21:17:11.6	5.140	-0.630	0.360	-0.550
2020/01/31 21:17:11.7	5.130	-0.640	0.380	-0.550
2020/01/31 21:17:11.8	5.120	-0.640	0.390	-0.540
2020/01/31 21:17:11.9	5.100	-0.630	0.390	-0.540
2020/01/31 21:17:12.0	5.090	-0.620	0.400	-0.530
2020/01/31 21:17:12.1	5.080	-0.610	0.400	-0.520
2020/01/31 21:17:12.2	5.070	-0.590	0.390	-0.510
2020/01/31 21:17:12.3	5.050	-0.560	0.380	-0.500
2020/01/31 21:17:12.4	5.040	-0.530	0.370	-0.480
2020/01/31 21:17:12.5	5.030	-0.500	0.360	-0.470
2020/01/31 21:17:12.6	5.020	-0.460	0.340	-0.450
2020/01/31 21:17:12.7	5.010	-0.420	0.320	-0.430
2020/01/31 21:17:12.8	5.000	-0.370	0.290	-0.410
2020/01/31 21:17:12.9	4.980	-0.330	0.270	-0.390
2020/01/31 21:17:13.0	4.970	-0.280	0.240	-0.370
2020/01/31 21:17:13.1	4.960	-0.230	0.210	-0.350
2020/01/31 21:17:13.2	4.950	-0.180	0.180	-0.320
2020/01/31 21:17:13.3	4.940	-0.120	0.150	-0.290
2020/01/31 21:17:13.4	4.930	-0.070	0.110	-0.260
2020/01/31 21:17:13.5	4.920	-0.020	0.080	-0.230
2020/01/31 21:17:13.6	4.910	0.030	0.040	-0.200
2020/01/31 21:17:13.7	4.900	0.080	0.000	-0.170
2020/01/31 21:17:13.8	4.890	0.130	-0.030	-0.130
2020/01/31 21:17:13.9	4.880	0.170	-0.070	-0.100
2020/01/31 21:17:14.0	4.870	0.220	-0.110	-0.060
2020/01/31 21:17:14.1	4.870	0.260	-0.150	-0.030
2020/01/31 21:17:14.2	4.860	0.300	-0.180	0.010
2020/01/31 21:17:14.3	4.850	0.330	-0.220	0.040
2020/01/31 21:17:14.4	4.840	0.370	-0.250	0.080
2020/01/31 21:17:14.5	4.830	0.390	-0.290	0.110
2020/01/31 21:17:14.6	4.830	0.420	-0.320	0.140
2020/01/31 21:17:14.7	4.820	0.440	-0.350	0.170
2020/01/31 21:17:14.8	4.820	0.460	-0.380	0.200
2020/01/31 21:17:14.9	4.810	0.470	-0.410	0.230
2020/01/31 21:17:15.0	4.810	0.480	-0.430	0.260
2020/01/31 21:17:15.1	4.810	0.490	-0.460	0.280
2020/01/31 21:17:15.2	4.810	0.490	-0.480	0.300
2020/01/31 21:17:15.3	4.810	0.490	-0.500	0.330
2020/01/31 21:17:15.4	4.820	0.490	-0.520	0.340
2020/01/31 21:17:15.5	4.820	0.480	-0.530	0.360
2020/01/31 21:17:15.6	4.820	0.470	-0.540	0.380
2020/01/31 21:17:15.7	4.830	0.460	-0.550	0.390
2020/01/31 21:17:15.8	4.830	0.440	-0.550	0.400
2020/01/31 21:17:15.9	4.840	0.430	-0.550	0.410
2020/01/31 21:17:16.0	4.840	0.400	-0.550	0.420
2020/01/31 21:17:16.1	4.850	0.380	-0.550	0.420
2020/01/31 21:17:16.2	4.850	0.360	-0.540	0.430
2020/01/31 21:17:16.3	4.860	0.330	-0.530	0.430
2020/01/31 21:17:16.4	4.860	0.300	-0.510	0.430
2020/01/31 21:17:16.5	4.860	0.280	-0.490	0.430
2020/01/31 21:17:16.6	4.860	0.250	-0.470	0.420
2020/01/31 21:17:16.7	4.870	0.220	-0.450	0.410
2020/01/31 21:17:16.8	4.870	0.190	-0.420	0.410
2020/01/31 21:17:16.9	4.860	0.150	-0.390	0.390
2020/01/31 21:17:17.0	4.870	0.120	-0.360	0.380
2020/01/31 21:17:17.1	4.870	0.090	-0.330	0.370
2020/01/31 21:17:17.2	4.870	0.060	-0.300	0.350
2020/01/31 21:17:17.3	4.870	0.030	-0.270	0.330
2020/01/31 21:17:17.4	4.870	-0.000	-0.240	0.310
2020/01/31 21:17:17.5	4.870	-0.030	-0.210	0.290
2020/01/31 21:17:17.6	4.870	-0.060	-0.180	0.270
2020/01/31 21:17:17.7	4.870	-0.090	-0.160	0.240
2020/01/31 21:17:17.8	4.870	-0.120	-0.130	0.220
2020/01/31 21:17:17.9	4.870	-0.150	-0.100	0.190
2020/01/31 21:17:18.0	4.880	-0.170	-0.080	0.160
2020/01/31 21:17:18.1	4.880	-0.200	-0.060	0.120
2020/01/31 21:17:18.2	4.880	-0.220	-0.050	0.090
2020/01/31 21:17:18.3	4.890	-0.240	-0.040	0.050
2020/01/31 21:17:18.4	4.900	-0.270	-0.030	0.000
2020/01/31 21:17:18.5	4.900	-0.290	-0.020	-0.040
2020/01/31 21:17:18.6	4.910	-0.310	-0.020	-0.090
2020/01/31 21:17:18.7	4.920	-0.330	-0.020	-0.140
2020/01/31 21:17:18.8	4.940	-0.340	-0.030	-0.190
2020/01/31 21:17:18.9	4.950	-0.360	-0.040	-0.240
2020/01/31 21:17:19.0	4.960	-0.370	-0.050	-0.300
2020/01/31 21:17:19.1	4.980	-0.380	-0.070	-0.350
2020/01/31 21:17:19.2	4.990	-0.400	-0.080	-0.400
2020/01/31 21:17:19.3	5.010	-0.410	-0.100	-0.450
2020/01/31 21:17:19.4	5.030	-0.410	-0.120	-0.500
2020/01/31 21:17:19.5	5.040	-0.420	-0.140	-0.550
2020/01/31 21:17:19.6	5.060	-0.430	-0.170	-0.600
2020/01/31 21:17:19.7	5.070	-0.430	-0.190	-0.640
2020/01/31 21:17:19.8	5.090	-0.430	-0.210	-0.690
2020/01/31 21:17:19.9	5.100	-0.430	-0.230	-0.730
2020/01/31 21:17:20.0	5.110	-0.430	-0.260	-0.760
2020/01/31 21:17:20.1	5.120	-0.430	-0.280	-0.790
2020/01/31 21:17:20.2	5.130	-0.430	-0.300	-0.820
2020/01/31 21:17:20.3	5.140	-0.420	-0.320	-0.840
2020/01/31 21:17:20.4	5.140	-0.410	-0.340	-0.860
2020/01/31 21:17:20.5	5.140	-0.400	-0.360	-0.880
2020/01/31 21:17:20.6	5.140	-0.390	-0.370	-0.890
2020/01/31 21:17:20.7	5.140	-0.380	-0.390	-0.900
2020/01/31 21:17:20.8	5.140	-0.370	-0.400	-0.900
2020/01/31 21:17:20.9	5.130	-0.350	-0.410	-0.910
2020/01/31 21:17:21.0	5.130	-0.340	-0.420	-0.910
2020/01/31 21:17:21.1	5.120	-0.320	-0.430	-0.900
2020/01/31 21:17:21.2	5.120	-0.300	-0.430	-0.900
2020/01/31 21:17:21.3	5.110	-0.280	-0.440	-0.890
2020/01/31 21:17:21.4	5.100	-0.260	-0.450	-0.880
2020/01/31 21:17:21.5	5.090	-0.240	-0.450	-0.870
2020/01/31 21:17:21.6	5.080	-0.210	-0.450	-0.850
2020/01/31 21:17:21.7	5.080	-0.190	-0.460	-0.840
2020/01/31 21:17:21.8	5.070	-0.160	-0.460	-0.820
2020/01/31 21:17:21.9	5.060	-0.130	-0.460	-0.800
2020/01/31 21:17:22.0	5.050	-0.100	-0.470	-0.780
2020/01/31 21:17:22.1	5.050	-0.070	-0.470	-0.760
2020/01/31 21:17:22.2	5.040	-0.040	-0.470	-0.730
2020/01/31 21:17:22.3	5.040	-0.010	-0.470	-0.710
2020/01/31 21:17:22.4	5.040	0.030	-0.480	-0.690
2020/01/31 21:17:22.5	5.040	0.060	-0.480	-0.660
2020/01/31 21:17:22.6	5.040	0.090	-0.490	-0.630
2020/01/31 21:17:22.7	5.050	0.130	-0.490	-0.610
2020/01/31 21:17:22.8	5.050	0.160	-0.490	-0.580
2020/01/31 21:17:22.9	5.050	0.190	-0.500	-0.550
2020/01/31 21:17:23.0	5.060	0.230	-0.500	-0.520
2020/01/31 21:17:23.1	5.070	0.260	-0.510	-0.490
2020/01/31 21:17:23.2	5.080	0.290	-0.510	-0.460
2020/01/31 21:17:23.3	5.090	0.320	-0.520	-0.440
2020/01/31 21:17:23.4	5.100	0.350	-0.520	-0.410
2020/01/31 21:17:23.5	5.110	0.370	-0.520	-0.380
2020/01/31 21:17:23.6	5.120	0.400	-0.520	-0.350
2020/01/31 21:17:23.7	5.130	0.420	-0.510	-0.320
2020/01/31 21:17:23.8	5.140	0.440	-0.510	-0.290
2020/01/31 21:17:23.9	5.150	0.450	-0.510	-0.260
2020/01/31 21:17:24.0	5.160	0.470	-0.500	-0.230
2020/01/31 21:17:24.1	5.170	0.470	-0.480	-0.210
2020/01/31 21:17:24.2	5.170	0.480	-0.470	-0.180
2020/01/31 21:17:24.3	5.170	0.480	-0.450	-0.150
2020/01/31 21:17:24.4	5.170	0.470	-0.430	-0.120
2020/01/31 21:17:24.5	5.170	0.470	-0.400	-0.100
2020/01/31 21:17:24.6	5.170	0.460	-0.380	-0.070
2020/01/31 21:17:24.7	5.160	0.440	-0.350	-0.040
2020/01/31 21:17:24.8	5.150	0.420	-0.310	-0.020
2020/01/31 21:17:24.9	5.150	0.400	-0.270	0.010
2020/01/31 21:17:25.0	5.140	0.370	-0.230	0.040
2020/01/31 21:17:25.1	5.120	0.340	-0.190	0.060
2020/01/31 21:17:25.2	5.100	0.300	-0.150	0.090
2020/01/31 21:17:25.3	5.080	0.260	-0.100	0.110
2020/01/31 21:17:25.4	5.060	0.220	-0.050	0.130
2020/01/31 21:17:25.5	5.030	0.180	-0.000	0.160
2020/01/31 21:17:25.6	5.010	0.140	0.050	0.180
2020/01/31 21:17:25.7	4.980	0.090	0.100	0.200
2020/01/31 21:17:25.8	4.950	0.040	0.150	0.220
2020/01/31 21:17:25.9	4.930	-0.010	0.200	0.240
2020/01/31 21:17:26.0	4.900	-0.060	0.250	0.250
2020/01/31 21:17:26.1	4.870	-0.100	0.300	0.270
2020/01/31 21:17:26.2	4.840	-0.150	0.350	0.280
2020/01/31 21:17:26.3	4.810	-0.200	0.390	0.290
2020/01/31 21:17:26.4	4.780	-0.240	0.430	0.300
2020/01/31 21:17:26.5	4.750	-0.280	0.460	0.310
2020/01/31 21:17:26.6	4.720	-0.320	0.490	0.320
2020/01/31 21:17:26.7	4.700	-0.360	0.520	0.320
2020/01/31 21:17:26.8	4.680	-0.390	0.540	0.320
2020/01/31 21:17:26.9	4.650	-0.420	0.550	0.320
2020/01/31 21:17:27.0	4.630	-0.440	0.550	0.310
2020/01/31 21:17:27.1	4.620	-0.460	0.550	0.310
2020/01/31 21:17:27.2	4.600	-0.470	0.540	0.300
2020/01/31 21:17:27.3	4.590	-0.480	0.530	0.290
2020/01/31 21:17:27.4	4.580	-0.480	0.510	0.280
2020/01/31 21:17:27.5	4.570	-0.470	0.480	0.270
2020/01/31 21:17:27.6	4.560	-0.460	0.440	0.250
2020/01/31 21:17:27.7	4.560	-0.440	0.400	0.230
2020/01/31 21:17:27.8	4.560	-0.410	0.350	0.210
2020/01/31 21:17:27.9	4.570	-0.380	0.290	0.200
2020/01/31 21:17:28.0	4.570	-0.350	0.230	0.180
2020/01/31 21:17:28.1	4.570	-0.310	0.170	0.160
2020/01/31 21:17:28.2	4.580	-0.260	0.100	0.140
2020/01/31 21:17:28.3	4.580	-0.210	0.030	0.120
2020/01/31 21:17:28.4	4.590	-0.160	-0.040	0.100
2020/01/31 21:17:28.5	4.600	-0.100	-0.120	0.070
2020/01/31 21:17:28.6	4.600	-0.040	-0.190	0.050
2020/01/31 21:17:28.7	4.610	0.020	-0.270	0.030
2020/01/31 21:17:28.8	4.620	0.080	-0.340	0.010
2020/01/31 21:17:28.9	4.620	0.140	-0.410	-0.010
2020/01/31 21:17:29.0	4.630	0.200	-0.480	-0.030
2020/01/31 21:17:29.1	4.640	0.260	-0.550	-0.040
2020/01/31 21:17:29.2	4.650	0.320	-0.620	-0.060
2020/01/31 21:17:29.3	4.660	0.380	-0.680	-0.080
2020/01/31 21:17:29.4	4.660	0.430	-0.730	-0.090
2020/01/31 21:17:29.5	4.670	0.480	-0.790	-0.110
2020/01/31 21:17:29.6	4.680	0.520	-0.840	-0.130
2020/01/31 21:17:29.7	4.690	0.560	-0.880	-0.140
2020/01/31 21:17:29.8	4.700	0.590	-0.920	-0.160
2020/01/31 21:17:29.9	4.710	0.620	-0.950	-0.170
2020/01/31 21:17:30.0	4.720	0.640	-0.980	-0.190
2020/01/31 21:17:30.1	4.730	0.660	-1.000	-0.200
2020/01/31 21:17:30.2	4.740	0.670	-1.020	-0.220
2020/01/31 21:17:30.3	4.760	0.670	-1.030	-0.240
2020/01/31 21:17:30.4	4.770	0.670	-1.040	-0.260
2020/01/31 21:17:30.5	4.790	0.660	-1.040	-0.280
2020/01/31 21:17:30.6	4.810	0.640	-1.040	-0.300
2020/01/31 21:17:30.7	4.830	0.620	-1.030	-0.320
2020/01/31 21:17:30.8	4.850	0.590	-1.010	-0.340
2020/01/31 21:17:30.9	4.870	0.560	-0.990	-0.370
2020/01/31 21:17:31.0	4.890	0.520	-0.970	-0.390
2020/01/31 21:17:31.1	4.920	0.480	-0.940	-0.410
2020/01/31 21:17:31.2	4.940	0.430	-0.910	-0.440
2020/01/31 21:17:31.3	4.970	0.380	-0.880	-0.460
2020/01/31 21:17:31.4	4.990	0.320	-0.840	-0.490
2020/01/31 21:17:31.5	5.020	0.260	-0.800	-0.510
2020/01/31 21:17:31.6	5.040	0.200	-0.750	-0.530
2020/01/31 21:17:31.7	5.060	0.140	-0.700	-0.550
2020/01/31 21:17:31.8	5.080	0.080	-0.640	-0.570
2020/01/31 21:17:31.9	5.100	0.010	-0.590	-0.590
2020/01/31 21:17:32.0	5.110	-0.060	-0.530	-0.600
2020/01/31 21:17:32.1	5.120	-0.120	-0.470	-0.620
2020/01/31 21:17:32.2	5.130	-0.190	-0.400	-0.630
2020/01/31 21:17:32.3	5.130	-0.260	-0.330	-0.640
2020/01/31 21:17:32.4	5.130	-0.320	-0.260	-0.660
2020/01/31 21:17:32.5	5.120	-0.390	-0.200	-0.670
2020/01/31 21:17:32.6	5.110	-0.450	-0.130	-0.680
2020/01/31 21:17:32.7	5.100	-0.510	-0.060	-0.690
2020/01/31 21:17:32.8	5.090	-0.560	0.010	-0.700
2020/01/31 21:17:32.9	5.080	-0.610	0.070	-0.700
2020/01/31 21:17:33.0	5.060	-0.660	0.130	-0.710
2020/01/31 21:17:33.1	5.040	-0.700	0.190	-0.720
2020/01/31 21:17:33.2	5.030	-0.740	0.240	-0.720
2020/01/31 21:17:33.3	5.010	-0.770	0.290	-0.730
2020/01/31 21:17:33.4	4.980	-0.800	0.330	-0.730
2020/01/31 21:17:33.5	4.960	-0.820	0.370	-0.730
2020/01/31 21:17:33.6	4.940	-0.830	0.400	-0.730
2020/01/31 21:17:33.7	4.920	-0.840	0.430	-0.720
2020/01/31 21:17:33.8	4.900	-0.840	0.450	-0.720
2020/01/31 21:17:33.9	4.880	-0.840	0.450	-0.710
2020/01/31 21:17:34.0	4.860	-0.830	0.460	-0.700
2020/01/31 21:17:34.1	4.840	-0.810	0.450	-0.690
2020/01/31 21:17:34.2	4.820	-0.780	0.440	-0.680
2020/01/31 21:17:34.3	4.800	-0.750	0.430	-0.660
2020/01/31 21:17:34.4	4.780	-0.720	0.400	-0.640
2020/01/31 21:17:34.5	4.770	-0.670	0.370	-0.620
2020/01/31 21:17:34.6	4.750	-0.630	0.330	-0.600
2020/01/31 21:17:34.7	4.740	-0.580	0.290	-0.570
2020/01/31 21:17:34.8	4.720	-0.520	0.240	-0.550
2020/01/31 21:17:34.9	4.710	-0.460	0.190	-0.520
2020/01/31 21:17:35.0	4.690	-0.400	0.140	-0.480
2020/01/31 21:17:35.1	4.680	-0.330	0.080	-0.450
2020/01/31 21:17:35.2	4.660	-0.270	0.010	-0.410
2020/01/31 21:17:35.3	4.650	-0.200	-0.050	-0.380
2020/01/31 21:17:35.4	4.630	-0.130	-0.110	-0.340
2020/01/31 21:17:35.5	4.620	-0.060	-0.180	-0.300
2020/01/31 21:17:35.6	4.600	0.000	-0.240	-0.260
2020/01/31 21:17:35.7	4.590	0.070	-0.300	-0.220
2020/01/31 21:17:35.8	4.570	0.140	-0.360	-0.190
2020/01/31 21:17:35.9	4.550	0.200	-0.420	-0.150
2020/01/31 21:17:36.0	4.540	0.260	-0.470	-0.110
2020/01/31 21:17:36.1	4.530	0.320	-0.530	-0.080
2020/01/31 21:17:36.2	4.520	0.370	-0.570	-0.040
2020/01/31 21:17:36.3	4.500	0.420	-0.620	-0.010
2020/01/31 21:17:36.4	4.500	0.460	-0.650	0.020
2020/01/31 21:17:36.5	4.490	0.510	-0.690	0.050
2020/01/31 21:17:36.6	4.480	0.540	-0.720	0.080
2020/01/31 21:17:36.7	4.480	0.580	-0.740	0.100
2020/01/31 21:17:36.8	4.480	0.600	-0.760	0.120
2020/01/31 21:17:36.9	4.470	0.630	-0.780	0.140
2020/01/31 21:17:37.0	4.480	0.650	-0.790	0.160
2020/01/31 21:17:37.1	4.480	0.660	-0.790	0.170
2020/01/31 21:17:37.2	4.490	0.670	-0.790	0.190
2020/01/31 21:17:37.3	4.500	0.680	-0.790	0.200
2020/01/31 21:17:37.4	4.510	0.680	-0.780	0.200
2020/01/31 21:17:37.5	4.520	0.670	-0.770	0.210
2020/01/31 21:17:37.6	4.530	0.670	-0.750	0.210
2020/01/31 21:17:37.7	4.540	0.650	-0.730	0.220
2020/01/31 21:17:37.8	4.560	0.640	-0.700	0.220
2020/01/31 21:17:37.9	4.580	0.620	-0.680	0.220
2020/01/31 21:17:38.0	4.600	0.600	-0.650	0.210
2020/01/31 21:17:38.1	4.610	0.580	-0.610	0.210
2020/01/31 21:17:38.2	4.630	0.550	-0.570	0.200
2020/01/31 21:17:38.3	4.640	0.520	-0.540	0.200
2020/01/31 21:17:38.4	4.660	0.490	-0.490	0.190
2020/01/31 21:17:38.5	4.670	0.460	-0.450	0.180
2020/01/31 21:17:38.6	4.680	0.430	-0.410	0.170
2020/01/31 21:17:38.7	4.690	0.390	-0.360	0.170
2020/01/31 21:17:38.8	4.710	0.360	-0.310	0.160
2020/01/31 21:17:38.9	4.720	0.320	-0.270	0.160
2020/01/31 21:17:39.0	4.720	0.290	-0.220	0.150
2020/01/31 21:17:39.1	4.730	0.260	-0.170	0.150
2020/01/31 21:17:39.2	4.730	0.220	-0.120	0.150
2020/01/31 21:17:39.3	4.740	0.190	-0.070	0.140
2020/01/31 21:17:39.4	4.740	0.150	-0.020	0.140
2020/01/31 21:17:39.5	4.740	0.120	0.020	0.140
2020/01/31 21:17:39.6	4.740	0.090	0.070	0.150
2020/01/31 21:17:39.7	4.730	0.060	0.120	0.150
2020/01/31 21:17:39.8	4.730	0.030	0.160	0.150
2020/01/31 21:17:39.9	4.730	-0.000	0.200	0.150
2020/01/31 21:17:40.0	4.720	-0.030	0.240	0.150
2020/01/31 21:17:40.1	4.710	-0.060	0.280	0.160
2020/01/31 21:17:40.2	4.700	-0.080	0.320	0.160
2020/01/31 21:17:40.3	4.690	-0.110	0.350	0.160
2020/01/31 21:17:40.4	4.680	-0.130	0.380	0.160
2020/01/31 21:17:40.5	4.670	-0.160	0.410	0.160
2020/01/31 21:17:40.6	4.660	-0.180	0.430	0.160
2020/01/31 21:17:40.7	4.650	-0.200	0.450	0.160
2020/01/31 21:17:40.8	4.640	-0.210	0.460	0.160
2020/01/31 21:17:40.9	4.630	-0.230	0.470	0.160
2020/01/31 21:17:41.0	4.620	-0.250	0.480	0.160
2020/01/31 21:17:41.1	4.610	-0.260	0.480	0.150
2020/01/31 21:17:41.2	4.600	-0.280	0.470	0.150
2020/01/31 21:17:41.3	4.590	-0.290	0.470	0.150
2020/01/31 21:17:41.4	4.580	-0.300	0.450	0.140
2020/01/31 21:17:41.5	4.570	-0.310	0.430	0.140
2020/01/31 21:17:41.6	4.560	-0.320	0.410	0.130
2020/01/31 21:17:41.7	4.550	-0.330	0.390	0.120
2020/01/31 21:17:41.8	4.540	-0.330	0.350	0.110
2020/01/31 21:17:41.9	4.540	-0.340	0.320	0.110
2020/01/31 21:17:42.0	4.530	-0.340	0.280	0.100
2020/01/31 21:17:42.1	4.520	-0.350	0.240	0.090
2020/01/31 21:17:42.2	4.520	-0.350	0.190	0.070
2020/01/31 21:17:42.3	4.510	-0.350	0.140	0.060
2020/01/31 21:17:42.4	4.510	-0.350	0.090	0.040
2020/01/31 21:17:42.5	4.500	-0.350	0.030	0.020
2020/01/31 21:17:42.6	4.500	-0.350	-0.020	0.000
2020/01/31 21:17:42.7	4.500	-0.350	-0.080	-0.020
2020/01/31 21:17:42.8	4.500	-0.340	-0.150	-0.050
2020/01/31 21:17:42.9	4.490	-0.340	-0.210	-0.080
2020/01/31 21:17:43.0	4.490	-0.330	-0.270	-0.110
2020/01/31 21:17:43.1	4.490	-0.320	-0.340	-0.150
2020/01/31 21:17:43.2	4.500	-0.320	-0.410	-0.180
2020/01/31 21:17:43.3	4.500	-0.300	-0.470	-0.220
2020/01/31 21:17:43.4	4.510	-0.290	-0.540	-0.260
2020/01/31 21:17:43.5	4.520	-0.280	-0.600	-0.300
2020/01/31 21:17:43.6	4.530	-0.270	-0.660	-0.340
2020/01/31 21:17:43.7	4.540	-0.250	-0.720	-0.380
2020/01/31 21:17:43.8	4.550	-0.230	-0.780	-0.420
2020/01/31 21:17:43.9	4.570	-0.210	-0.840	-0.450
2020/01/31 21:17:44.0	4.580	-0.200	-0.890	-0.490
2020/01/31 21:17:44.1	4.590	-0.180	-0.930	-0.530
2020/01/31 21:17:44.2	4.610	-0.160	-0.980	-0.560
2020/01/31 21:17:44.3	4.620	-0.140	-1.010	-0.590
2020/01/31 21:17:44.4	4.630	-0.110	-1.040	-0.620
2020/01/31 21:17:44.5	4.650	-0.090	-1.070	-0.650
2020/01/31 21:17:44.6	4.660	-0.070	-1.090	-0.670
2020/01/31 21:17:44.7	4.670	-0.050	-1.100	-0.690
2020/01/31 21:17:44.8	4.680	-0.030	-1.110	-0.710
2020/01/31 21:17:44.9	4.710	-0.010	-1.110	-0.720
2020/01/31 21:17:45.0	4.720	0.000	-1.110	-0.740
2020/01/31 21:17:45.1	4.730	0.020	-1.100	-0.740
2020/01/31 21:17:45.2	4.740	0.040	-1.080	-0.750
2020/01/31 21:17:45.3	4.760	0.050	-1.060	-0.750
2020/01/31 21:17:45.4	4.770	0.060	-1.030	-0.750
2020/01/31 21:17:45.5	4.780	0.080	-1.000	-0.750
2020/01/31 21:17:45.6	4.790	0.090	-0.960	-0.750
2020/01/31 21:17:45.7	4.810	0.090	-0.920	-0.740
2020/01/31 21:17:45.8	4.820	0.100	-0.870	-0.730
2020/01/31 21:17:45.9	4.830	0.110	-0.820	-0.720
2020/01/31 21:17:46.0	4.840	0.110	-0.770	-0.700
2020/01/31 21:17:46.1	4.850	0.110	-0.720	-0.680
2020/01/31 21:17:46.2	4.860	0.120	-0.660	-0.660
2020/01/31 21:17:46.3	4.870	0.120	-0.600	-0.640
2020/01/31 21:17:46.4	4.880	0.110	-0.530	-0.620
2020/01/31 21:17:46.5	4.890	0.110	-0.470	-0.600
2020/01/31 21:17:46.6	4.900	0.110	-0.410	-0.570
2020/01/31 21:17:46.7	4.900	0.100	-0.340	-0.540
2020/01/31 21:17:46.8	4.900	0.100	-0.280	-0.510
2020/01/31 21:17:46.9	4.910	0.090	-0.210	-0.480
2020/01/31 21:17:47.0	4.910	0.090	-0.150	-0.440
2020/01/31 21:17:47.1	4.900	0.080	-0.090	-0.410
2020/01/31 21:17:47.2	4.900	0.080	-0.030	-0.370
2020/01/31 21:17:47.3	4.890	0.070	0.030	-0.330
2020/01/31 21:17:47.4	4.880	0.070	0.080	-0.290
2020/01/31 21:17:47.5	4.870	0.060	0.130	-0.250
2020/01/31 21:17:47.6	4.860	0.060	0.180	-0.200
2020/01/31 21:17:47.7	4.850	0.050	0.220	-0.160
2020/01/31 21:17:47.8	4.840	0.050	0.260	-0.110
2020/01/31 21:17:47.9	4.830	0.050	0.290	-0.070
2020/01/31 21:17:48.0	4.810	0.050	0.310	-0.020
2020/01/31 21:17:48.1	4.790	0.050	0.330	0.020
2020/01/31 21:17:48.2	4.770	0.050	0.350	0.070
2020/01/31 21:17:48.3	4.750	0.060	0.350	0.110
2020/01/31 21:17:48.4	4.730	0.060	0.350	0.150
2020/01/31 21:17:48.5	4.710	0.070	0.350	0.190
2020/01/31 21:17:48.6	4.690	0.080	0.340	0.230
2020/01/31 21:17:48.7	4.670	0.090	0.320	0.270
2020/01/31 21:17:48.8	4.650	0.100	0.300	0.300
2020/01/31 21:17:48.9	4.620	0.110	0.280	0.330
2020/01/31 21:17:49.0	4.600	0.130	0.250	0.360
2020/01/31 21:17:49.1	4.580	0.140	0.210	0.380
2020/01/31 21:17:49.2	4.560	0.160	0.180	0.400
2020/01/31 21:17:49.3	4.530	0.180	0.130	0.420
2020/01/31 21:17:49.4	4.510	0.200	0.090	0.430
2020/01/31 21:17:49.5	4.500	0.220	0.040	0.430
2020/01/31 21:17:49.6	4.480	0.240	-0.010	0.440
2020/01/31 21:17:49.7	4.460	0.260	-0.050	0.440
2020/01/31 21:17:49.8	4.440	0.280	-0.100	0.430
2020/01/31 21:17:49.9	4.410	0.300	-0.150	0.420
2020/01/31 21:17:50.0	4.400	0.320	-0.200	0.410
2020/01/31 21:17:50.1	4.380	0.340	-0.250	0.390
2020/01/31 21:17:50.2	4.370	0.360	-0.300	0.370
2020/01/31 21:17:50.3	4.360	0.380	-0.340	0.350
2020/01/31 21:17:50.4	4.350	0.400	-0.380	0.330
2020/01/31 21:17:50.5	4.340	0.410	-0.420	0.310
2020/01/31 21:17:50.6	4.330	0.420	-0.460	0.280
2020/01/31 21:17:50.7	4.330	0.430	-0.490	0.260
2020/01/31 21:17:50.8	4.320	0.440	-0.520	0.230
2020/01/31 21:17:50.9	4.330	0.450	-0.540	0.210
2020/01/31 21:17:51.0	4.320	0.450	-0.560	0.180
2020/01/31 21:17:51.1	4.320	0.450	-0.580	0.150
2020/01/31 21:17:51.2	4.330	0.450	-0.590	0.130
2020/01/31 21:17:51.3	4.330	0.440	-0.600	0.100
2020/01/31 21:17:51.4	4.330	0.440	-0.600	0.070
2020/01/31 21:17:51.5	4.340	0.420	-0.600	0.050
2020/01/31 21:17:51.6	4.350	0.410	-0.590	0.020
2020/01/31 21:17:51.7	4.360	0.390	-0.580	-0.010
2020/01/31 21:17:51.8	4.370	0.370	-0.560	-0.030
2020/01/31 21:17:51.9	4.360	0.340	-0.550	-0.060
2020/01/31 21:17:52.0	4.370	0.320	-0.530	-0.090
2020/01/31 21:17:52.1	4.380	0.290	-0.500	-0.120
2020/01/31 21:17:52.2	4.400	0.250	-0.470	-0.150
2020/01/31 21:17:52.3	4.410	0.220	-0.440	-0.180
2020/01/31 21:17:52.4	4.420	0.180	-0.410	-0.210
2020/01/31 21:17:52.5	4.430	0.140	-0.380	-0.250
2020/01/31 21:17:52.6	4.440	0.100	-0.340	-0.280
2020/01/31 21:17:52.7	4.450	0.060	-0.310	-0.310
2020/01/31 21:17:52.8	4.460	0.020	-0.280	-0.350
2020/01/31 21:17:52.9	4.470	-0.020	-0.240	-0.380
2020/01/31 21:17:53.0	4.480	-0.070	-0.210	-0.410
2020/01/31 21:17:53.1	4.490	-0.110	-0.170	-0.440
2020/01/31 21:17:53.2	4.500	-0.150	-0.140	-0.460
2020/01/31 21:17:53.3	4.510	-0.190	-0.110	-0.490
2020/01/31 21:17:53.4	4.520	-0.230	-0.090	-0.510
2020/01/31 21:17:53.5	4.520	-0.270	-0.060	-0.530
2020/01/31 21:17:53.6	4.530	-0.300	-0.040	-0.550
2020/01/31 21:17:53.7	4.540	-0.340	-0.020	-0.560
2020/01/31 21:17:53.8	4.540	-0.370	-0.000	-0.570
2020/01/31 21:17:53.9	4.560	-0.390	0.010	-0.580
2020/01/31 21:17:54.0	4.560	-0.420	0.020	-0.590
2020/01/31 21:17:54.1	4.570	-0.440	0.030	-0.590
2020/01/31 21:17:54.2	4.570	-0.450	0.030	-0.590
2020/01/31 21:17:54.3	4.570	-0.470	0.030	-0.590
2020/01/31 21:17:54.4	4.570	-0.480	0.030	-0.590
2020/01/31 21:17:54.5	4.580	-0.490	0.030	-0.580
2020/01/31 21:17:54.6	4.580	-0.490	0.020	-0.570
2020/01/31 21:17:54.7	4.580	-0.490	0.010	-0.560
2020/01/31 21:17:54.8	4.570	-0.490	0.000	-0.550
2020/01/31 21:17:54.9	4.560	-0.480	-0.010	-0.540
2020/01/31 21:17:55.0	4.560	-0.470	-0.020	-0.530
2020/01/31 21:17:55.1	4.550	-0.460	-0.030	-0.510
2020/01/31 21:17:55.2	4.550	-0.440	-0.050	-0.500
2020/01/31 21:17:55.3	4.550	-0.420	-0.060	-0.480
2020/01/31 21:17:55.4	4.540	-0.400	-0.080	-0.460
2020/01/31 21:17:55.5	4.530	-0.380	-0.090	-0.440
2020/01/31 21:17:55.6	4.530	-0.350	-0.100	-0.420
2020/01/31 21:17:55.7	4.520	-0.320	-0.120	-0.400
2020/01/31 21:17:55.8	4.510	-0.290	-0.130	-0.380
2020/01/31 21:17:55.9	4.510	-0.260	-0.140	-0.350
2020/01/31 21:17:56.0	4.500	-0.230	-0.150	-0.330
2020/01/31 21:17:56.1	4.490	-0.200	-0.160	-0.300
2020/01/31 21:17:56.2	4.480	-0.170	-0.170	-0.270
2020/01/31 21:17:56.3	4.470	-0.140	-0.170	-0.240
2020/01/31 21:17:56.4	4.460	-0.110	-0.170	-0.220
2020/01/31 21:17:56.5	4.450	-0.080	-0.180	-0.190
2020/01/31 21:17:56.6	4.440	-0.050	-0.180	-0.160
2020/01/31 21:17:56.7	4.430	-0.030	-0.170	-0.130
2020/01/31 21:17:56.8	4.420	-0.000	-0.170	-0.100
2020/01/31 21:17:56.9	4.410	0.020	-0.160	-0.070
2020/01/31 21:17:57.0	4.400	0.040	-0.160	-0.050
2020/01/31 21:17:57.1	4.390	0.060	-0.150	-0.020
2020/01/31 21:17:57.2	4.390	0.080	-0.140	0.010
2020/01/31 21:17:57.3	4.380	0.090	-0.130	0.030
2020/01/31 21:17:57.4	4.380	0.100	-0.120	0.060
2020/01/31 21:17:57.5	4.370	0.110	-0.120	0.080
2020/01/31 21:17:57.6	4.370	0.120	-0.110	0.100
2020/01/31 21:17:57.7	4.370	0.120	-0.100	0.120
2020/01/31 21:17:57.8	4.370	0.130	-0.100	0.130
2020/01/31 21:17:57.9	4.390	0.130	-0.100	0.150
2020/01/31 21:17:58.0	4.390	0.130	-0.090	0.160
2020/01/31 21:17:58.1	4.400	0.120	-0.100	0.170
2020/01/31 21:17:58.2	4.410	0.120	-0.100	0.180
2020/01/31 21:17:58.3	4.410	0.110	-0.110	0.180
2020/01/31 21:17:58.4	4.420	0.110	-0.110	0.190
2020/01/31 21:17:58.5	4.430	0.100	-0.130	0.190
2020/01/31 21:17:58.6	4.450	0.090	-0.140	0.180
2020/01/31 21:17:58.7	4.460	0.080	-0.160	0.180
2020/01/31 21:17:58.8	4.470	0.070	-0.180	0.170
2020/01/31 21:17:58.9	4.480	0.050	-0.210	0.160
2020/01/31 21:17:59.0	4.490	0.040	-0.230	0.150
2020/01/31 21:17:59.1	4.510	0.030	-0.260	0.130
2020/01/31 21:17:59.2	4.520	0.020	-0.300	0.120
2020/01/31 21:17:59.3	4.530	0.010	-0.330	0.100
2020/01/31 21:17:59.4	4.540	-0.000	-0.370	0.080
2020/01/31 21:17:59.5	4.550	-0.010	-0.410	0.060
2020/01/31 21:17:59.6	4.550	-0.020	-0.450	0.030
2020/01/31 21:17:59.7	4.560	-0.030	-0.490	0.010
2020/01/31 21:17:59.8	4.570	-0.040	-0.530	-0.010
2020/01/31 21:17:59.9	4.570	-0.050	-0.570	-0.040
2020/01/31 21:18:00.0	4.570	-0.060	-0.600	-0.060
2020/01/31 21:18:00.1	4.570	-0.060	-0.640	-0.080
2020/01/31 21:18:00.2	4.570	-0.070	-0.680	-0.100
2020/01/31 21:18:00.3	4.570	-0.070	-0.710	-0.130
2020/01/31 21:18:00.4	4.560	-0.070	-0.750	-0.150
2020/01/31 21:18:00.5	4.560	-0.070	-0.780	-0.170
2020/01/31 21:18:00.6	4.550	-0.070	-0.800	-0.190
2020/01/31 21:18:00.7	4.540	-0.070	-0.820	-0.210
2020/01/31 21:18:00.8	4.530	-0.070	-0.840	-0.220
2020/01/31 21:18:00.9	4.520	-0.070	-0.860	-0.240
2020/01/31 21:18:01.0	4.510	-0.060	-0.870	-0.260
2020/01/31 21:18:01.1	4.500	-0.060	-0.880	-0.270
2020/01/31 21:18:01.2	4.480	-0.050	-0.880	-0.290
2020/01/31 21:18:01.3	4.470	-0.050	-0.880	-0.300
2020/01/31 21:18:01.4	4.450	-0.040	-0.870	-0.310
2020/01/31 21:18:01.5	4.430	-0.030	-0.860	-0.330
2020/01/31 21:18:01.6	4.420	-0.020	-0.840	-0.340
2020/01/31 21:18:01.7	4.400	-0.020	-0.820	-0.350
2020/01/31 21:18:01.8	4.380	-0.010	-0.790	-0.360
2020/01/31 21:18:01.9	4.360	-0.000	-0.760	-0.370
2020/01/31 21:18:02.0	4.340	0.010	-0.730	-0.370
2020/01/31 21:18:02.1	4.320	0.020	-0.690	-0.380
2020/01/31 21:18:02.2	4.310	0.020	-0.650	-0.380
2020/01/31 21:18:02.3	4.290	0.030	-0.600	-0.390
2020/01/31 21:18:02.4	4.280	0.040	-0.550	-0.390
2020/01/31 21:18:02.5	4.260	0.050	-0.500	-0.390
2020/01/31 21:18:02.6	4.250	0.060	-0.450	-0.400
2020/01/31 21:18:02.7	4.240	0.060	-0.400	-0.400
2020/01/31 21:18:02.8	4.230	0.070	-0.350	-0.400
2020/01/31 21:18:02.9	4.210	0.070	-0.300	-0.400
2020/01/31 21:18:03.0	4.210	0.080	-0.240	-0.410
2020/01/31 21:18:03.1	4.210	0.080	-0.190	-0.410
2020/01/31 21:18:03.2	4.210	0.090	-0.140	-0.410
2020/01/31 21:18:03.3	4.210	0.090	-0.090	-0.420
2020/01/31 21:18:03.4	4.220	0.090	-0.050	-0.430
2020/01/31 21:18:03.5	4.230	0.100	-0.000	-0.430
2020/01/31 21:18:03.6	4.240	0.100	0.040	-0.440
2020/01/31 21:18:03.7	4.260	0.100	0.070	-0.450
2020/01/31 21:18:03.8	4.280	0.100	0.110	-0.460
2020/01/31 21:18:03.9	4.300	0.100	0.140	-0.470
2020/01/31 21:18:04.0	4.320	0.100	0.160	-0.490
2020/01/31 21:18:04.1	4.350	0.100	0.180	-0.500
2020/01/31 21:18:04.2	4.370	0.100	0.200	-0.510
2020/01/31 21:18:04.3	4.400	0.090	0.210	-0.520
2020/01/31 21:18:04.4	4.430	0.090	0.220	-0.530
2020/01/31 21:18:04.5	4.460	0.090	0.220	-0.540
2020/01/31 21:18:04.6	4.490	0.090	0.220	-0.550
2020/01/31 21:18:04.7	4.520	0.080	0.220	-0.560
2020/01/31 21:18:04.8	4.550	0.080	0.210	-0.560
2020/01/31 21:18:04.9	4.580	0.080	0.200	-0.570
2020/01/31 21:18:05.0	4.610	0.070	0.190	-0.570
2020/01/31 21:18:05.1	4.640	0.070	0.170	-0.570
2020/01/31 21:18:05.2	4.670	0.070	0.150	-0.580
2020/01/31 21:18:05.3	4.690	0.070	0.130	-0.580
2020/01/31 21:18:05.4	4.720	0.070	0.110	-0.580
2020/01/31 21:18:05.5	4.740	0.070	0.090	-0.580
2020/01/31 21:18:05.6	4.770	0.070	0.060	-0.570
2020/01/31 21:18:05.7	4.790	0.070	0.040	-0.570
2020/01/31 21:18:05.8	4.810	0.080	0.020	-0.560
2020/01/31 21:18:05.9	4.840	0.080	-0.010	-0.550
2020/01/31 21:18:06.0	4.850	0.090	-0.030	-0.530
2020/01/31 21:18:06.1	4.870	0.100	-0.050	-0.510
2020/01/31 21:18:06.2	4.880	0.110	-0.070	-0.490
2020/01/31 21:18:06.3	4.890	0.120	-0.080	-0.460
2020/01/31 21:18:06.4	4.890	0.130	-0.100	-0.420
2020/01/31 21:18:06.5	4.890	0.140	-0.110	-0.380
2020/01/31 21:18:06.6	4.890	0.160	-0.110	-0.340
2020/01/31 21:18:06.7	4.890	0.170	-0.120	-0.280
2020/01/31 21:18:06.8	4.880	0.190	-0.120	-0.230
2020/01/31 21:18:06.9	4.870	0.200	-0.120	-0.160
2020/01/31 21:18:07.0	4.850	0.220	-0.110	-0.100
2020/01/31 21:18:07.1	4.830	0.230	-0.110	-0.030
2020/01/31 21:18:07.2	4.810	0.250	-0.100	0.050
2020/01/31 21:18:07.3	4.780	0.260	-0.090	0.120
2020/01/31 21:18:07.4	4.740	0.280	-0.070	0.190
2020/01/31 21:18:07.5	4.710	0.290	-0.060	0.270
2020/01/31 21:18:07.6	4.670	0.300	-0.050	0.350
2020/01/31 21:18:07.7	4.630	0.310	-0.030	0.420
2020/01/31 21:18:07.8	4.590	0.320	-0.020	0.490
2020/01/31 21:18:07.9	4.530	0.320	-0.010	0.560
2020/01/31 21:18:08.0	4.490	0.330	0.000	0.630
2020/01/31 21:18:08.1	4.440	0.330	0.010	0.680
2020/01/31 21:18:08.2	4.390	0.320	0.020	0.730
2020/01/31 21:18:08.3	4.340	0.320	0.020	0.780
2020/01/31 21:18:08.4	4.300	0.310	0.030	0.820
2020/01/31 21:18:08.5	4.250	0.310	0.020	0.850
2020/01/31 21:18:08.6	4.200	0.290	0.020	0.870
2020/01/31 21:18:08.7	4.160	0.280	0.010	0.880
2020/01/31 21:18:08.8	4.120	0.270	-0.010	0.880
2020/01/31 21:18:08.9	4.090	0.250	-0.030	0.870
2020/01/31 21:18:09.0	4.050	0.230	-0.050	0.860
2020/01/31 21:18:09.1	4.020	0.210	-0.080	0.830
2020/01/31 21:18:09.2	3.990	0.190	-0.110	0.800
2020/01/31 21:18:09.3	3.970	0.160	-0.150	0.760
2020/01/31 21:18:09.4	3.950	0.140	-0.190	0.720
2020/01/31 21:18:09.5	3.940	0.110	-0.230	0.660
2020/01/31 21:18:09.6	3.930	0.090	-0.280	0.600
2020/01/31 21:18:09.7	3.930	0.060	-0.330	0.540
2020/01/31 21:18:09.8	3.930	0.030	-0.390	0.470
2020/01/31 21:18:09.9	3.940	0.010	-0.440	0.390
2020/01/31 21:18:10.0	3.950	-0.020	-0.500	0.300
2020/01/31 21:18:10.1	3.960	-0.040	-0.560	0.220
2020/01/31 21:18:10.2	3.980	-0.070	-0.620	0.130
2020/01/31 21:18:10.3	4.010	-0.090	-0.680	0.040
2020/01/31 21:18:10.4	4.030	-0.120	-0.740	-0.060
2020/01/31 21:18:10.5	4.060	-0.140	-0.800	-0.150
2020/01/31 21:18:10.6	4.100	-0.160	-0.850	-0.250
2020/01/31 21:18:10.7	4.130	-0.180	-0.900	-0.350
2020/01/31 21:18:10.8	4.170	-0.200	-0.950	-0.450
2020/01/31 21:18:10.9	4.210	-0.220	-0.990	-0.560
2020/01/31 21:18:11.0	4.250	-0.230	-1.030	-0.650
2020/01/31 21:18:11.1	4.290	-0.250	-1.070	-0.750
2020/01/31 21:18:11.2	4.330	-0.260	-1.100	-0.840
2020/01/31 21:18:11.3	4.370	-0.280	-1.120	-0.940
2020/01/31 21:18:11.4	4.410	-0.290	-1.140	-1.030
2020/01/31 21:18:11.5	4.460	-0.300	-1.150	-1.110
2020/01/31 21:18:11.6	4.490	-0.310	-1.150	-1.190
2020/01/31 21:18:11.7	4.530	-0.320	-1.140	-1.270
2020/01/31 21:18:11.8	4.570	-0.320	-1.130	-1.340
2020/01/31 21:18:11.9	4.600	-0.330	-1.110	-1.410
2020/01/31 21:18:12.0	4.640	-0.340	-1.090	-1.470
2020/01/31 21:18:12.1	4.670	-0.340	-1.050	-1.520
2020/01/31 21:18:12.2	4.700	-0.340	-1.010	-1.570
2020/01/31 21:18:12.3	4.730	-0.350	-0.960	-1.610
2020/01/31 21:18:12.4	4.760	-0.350	-0.910	-1.640
2020/01/31 21:18:12.5	4.780	-0.350	-0.850	-1.660
2020/01/31 21:18:12.6	4.810	-0.350	-0.790	-1.680
2020/01/31 21:18:12.7	4.830	-0.350	-0.720	-1.700
2020/01/31 21:18:12.8	4.860	-0.350	-0.650	-1.700
2020/01/31 21:18:12.9	4.880	-0.350	-0.570	-1.700
2020/01/31 21:18:13.0	4.910	-0.350	-0.500	-1.700
2020/01/31 21:18:13.1	4.930	-0.340	-0.420	-1.680
2020/01/31 21:18:13.2	4.950	-0.340	-0.350	-1.670
2020/01/31 21:18:13.3	4.980	-0.340	-0.270	-1.650
2020/01/31 21:18:13.4	5.000	-0.330	-0.200	-1.620
2020/01/31 21:18:13.5	5.020	-0.330	-0.130	-1.590
2020/01/31 21:18:13.6	5.050	-0.330	-0.060	-1.560
2020/01/31 21:18:13.7	5.070	-0.320	0.000	-1.520
2020/01/31 21:18:13.8	5.090	-0.320	0.070	-1.480
2020/01/31 21:18:13.9	5.120	-0.310	0.120	-1.430
2020/01/31 21:18:14.0	5.150	-0.300	0.170	-1.390
2020/01/31 21:18:14.1	5.170	-0.300	0.220	-1.350
2020/01/31 21:18:14.2	5.190	-0.290	0.270	-1.300
2020/01/31 21:18:14.3	5.210	-0.280	0.310	-1.250
2020/01/31 21:18:14.4	5.230	-0.280	0.340	-1.210
2020/01/31 21:18:14.5	5.250	-0.270	0.370	-1.160
2020/01/31 21:18:14.6	5.270	-0.260	0.390	-1.110
2020/01/31 21:18:14.7	5.290	-0.250	0.420	-1.060
2020/01/31 21:18:14.8	5.300	-0.240	0.430	-1.010
2020/01/31 21:18:14.9	5.300	-0.230	0.450	-0.970
2020/01/31 21:18:15.0	5.310	-0.220	0.460	-0.910
2020/01/31 21:18:15.1	5.320	-0.210	0.460	-0.860
2020/01/31 21:18:15.2	5.330	-0.200	0.470	-0.810
2020/01/31 21:18:15.3	5.330	-0.190	0.470	-0.760
2020/01/31 21:18:15.4	5.330	-0.170	0.470	-0.700
2020/01/31 21:18:15.5	5.330	-0.160	0.470	-0.650
2020/01/31 21:18:15.6	5.320	-0.150	0.460	-0.590
2020/01/31 21:18:15.7	5.310	-0.130	0.460	-0.530
2020/01/31 21:18:15.8	5.300	-0.120	0.450	-0.470
2020/01/31 21:18:15.9	5.280	-0.100	0.440	-0.400
2020/01/31 21:18:16.0	5.270	-0.090	0.430	-0.330
2020/01/31 21:18:16.1	5.250	-0.080	0.420	-0.260
2020/01/31 21:18:16.2	5.220	-0.060	0.410	-0.200
2020/01/31 21:18:16.3	5.200	-0.050	0.400	-0.130
2020/01/31 21:18:16.4	5.170	-0.030	0.390	-0.060
2020/01/31 21:18:16.5	5.140	-0.020	0.370	0.020
2020/01/31 21:18:16.6	5.100	-0.010	0.360	0.090
2020/01/31 21:18:16.7	5.070	0.010	0.340	0.150
2020/01/31 21:18:16.8	5.030	0.020	0.320	0.220
2020/01/31 21:18:16.9	4.990	0.040	0.290	0.290
2020/01/31 21:18:17.0	4.950	0.050	0.260	0.350
2020/01/31 21:18:17.1	4.920	0.060	0.230	0.410
2020/01/31 21:18:17.2	4.880	0.070	0.200	0.460
2020/01/31 21:18:17.3	4.840	0.090	0.160	0.510
2020/01/31 21:18:17.4	4.810	0.100	0.120	0.550
2020/01/31 21:18:17.5	4.770	0.110	0.080	0.590
2020/01/31 21:18:17.6	4.730	0.130	0.030	0.630
2020/01/31 21:18:17.7	4.700	0.140	-0.020	0.650
2020/01/31 21:18:17.8	4.670	0.150	-0.080	0.670
2020/01/31 21:18:17.9	4.650	0.170	-0.130	0.690
2020/01/31 21:18:18.0	4.620	0.180	-0.190	0.690
2020/01/31 21:18:18.1	4.590	0.190	-0.250	0.690
2020/01/31 21:18:18.2	4.570	0.210	-0.320	0.680
2020/01/31 21:18:18.3	4.540	0.220	-0.380	0.670
2020/01/31 21:18:18.4	4.520	0.240	-0.440	0.660
2020/01/31 21:18:18.5	4.510	0.260	-0.510	0.630
2020/01/31 21:18:18.6	4.490	0.280	-0.570	0.610
2020/01/31 21:18:18.7	4.470	0.290	-0.640	0.580
2020/01/31 21:18:18.8	4.460	0.310	-0.700	0.550
2020/01/31 21:18:18.9	4.460	0.330	-0.750	0.510
2020/01/31 21:18:19.0	4.450	0.350	-0.810	0.470
2020/01/31 21:18:19.1	4.440	0.370	-0.860	0.430
2020/01/31 21:18:19.2	4.440	0.390	-0.910	0.390
2020/01/31 21:18:19.3	4.430	0.410	-0.950	0.350
2020/01/31 21:18:19.4	4.430	0.430	-0.990	0.310
2020/01/31 21:18:19.5	4.430	0.450	-1.020	0.270
2020/01/31 21:18:19.6	4.430	0.470	-1.050	0.230
2020/01/31 21:18:19.7	4.440	0.490	-1.070	0.180
2020/01/31 21:18:19.8	4.450	0.500	-1.090	0.140
2020/01/31 21:18:19.9	4.450	0.520	-1.100	0.100
2020/01/31 21:18:20.0	4.460	0.530	-1.110	0.060
2020/01/31 21:18:20.1	4.470	0.540	-1.110	0.010
2020/01/31 21:18:20.2	4.480	0.550	-1.110	-0.030
2020/01/31 21:18:20.3	4.500	0.560	-1.100	-0.070
2020/01/31 21:18:20.4	4.510	0.560	-1.090	-0.110
2020/01/31 21:18:20.5	4.530	0.570	-1.070	-0.150
2020/01/31 21:18:20.6	4.550	0.570	-1.050	-0.190
2020/01/31 21:18:20.7	4.560	0.560	-1.020	-0.240
2020/01/31 21:18:20.8	4.590	0.550	-0.990	-0.280
2020/01/31 21:18:20.9	4.610	0.540	-0.960	-0.320
2020/01/31 21:18:21.0	4.630	0.530	-0.920	-0.360
2020/01/31 21:18:21.1	4.660	0.510	-0.880	-0.400
2020/01/31 21:18:21.2	4.680	0.490	-0.840	-0.440
2020/01/31 21:18:21.3	4.700	0.460	-0.800	-0.480
2020/01/31 21:18:21.4	4.730	0.440	-0.750	-0.520
2020/01/31 21:18:21.5	4.750	0.410	-0.700	-0.560
2020/01/31 21:18:21.6	4.780	0.370	-0.650	-0.600
2020/01/31 21:18:21.7	4.810	0.340	-0.600	-0.640
2020/01/31 21:18:21.8	4.830	0.300	-0.550	-0.680
2020/01/31 21:18:21.9	4.870	0.250	-0.510	-0.720
2020/01/31 21:18:22.0	4.900	0.210	-0.460	-0.760
2020/01/31 21:18:22.1	4.920	0.170	-0.410	-0.790
2020/01/31 21:18:22.2	4.950	0.120	-0.360	-0.830
2020/01/31 21:18:22.3	4.980	0.070	-0.310	-0.860
2020/01/31 21:18:22.4	5.000	0.020	-0.260	-0.890
2020/01/31 21:18:22.5	5.020	-0.030	-0.210	-0.920
2020/01/31 21:18:22.6	5.050	-0.080	-0.160	-0.950
2020/01/31 21:18:22.7	5.070	-0.130	-0.120	-0.970
2020/01/31 21:18:22.8	5.090	-0.180	-0.070	-0.990
2020/01/31 21:18:22.9	5.120	-0.230	-0.030	-1.010
2020/01/31 21:18:23.0	5.140	-0.270	0.020	-1.030
2020/01/31 21:18:23.1	5.150	-0.320	0.060	-1.040
2020/01/31 21:18:23.2	5.160	-0.370	0.100	-1.050
2020/01/31 21:18:23.3	5.170	-0.410	0.140	-1.050
2020/01/31 21:18:23.4	5.190	-0.450	0.170	-1.050
2020/01/31 21:18:23.5	5.190	-0.490	0.210	-1.050
2020/01/31 21:18:23.6	5.200	-0.530	0.240	-1.040
2020/01/31 21:18:23.7	5.210	-0.560	0.270	-1.030
2020/01/31 21:18:23.8	5.210	-0.600	0.300	-1.020
2020/01/31 21:18:23.9	5.220	-0.620	0.320	-1.000
2020/01/31 21:18:24.0	5.220	-0.650	0.340	-0.980
2020/01/31 21:18:24.1	5.220	-0.670	0.360	-0.960
2020/01/31 21:18:24.2	5.220	-0.690	0.370	-0.930
2020/01/31 21:18:24.3	5.220	-0.700	0.380	-0.910
2020/01/31 21:18:24.4	5.220	-0.720	0.380	-0.880
2020/01/31 21:18:24.5	5.210	-0.720	0.380	-0.850
2020/01/31 21:18:24.6	5.210	-0.730	0.380	-0.810
2020/01/31 21:18:24.7	5.210	-0.730	0.370	-0.780
2020/01/31 21:18:24.8	5.200	-0.720	0.360	-0.740
2020/01/31 21:18:24.9	5.190	-0.720	0.330	-0.710
2020/01/31 21:18:25.0	5.180	-0.710	0.310	-0.670
2020/01/31 21:18:25.1	5.180	-0.690	0.280	-0.640
2020/01/31 21:18:25.2	5.170	-0.670	0.250	-0.600
2020/01/31 21:18:25.3	5.170	-0.650	0.220	-0.560
2020/01/31 21:18:25.4	5.160	-0.630	0.180	-0.530
2020/01/31 21:18:25.5	5.150	-0.600	0.140	-0.490
2020/01/31 21:18:25.6	5.150	-0.580	0.100	-0.460
2020/01/31 21:18:25.7	5.140	-0.540	0.050	-0.420
2020/01/31 21:18:25.8	5.130	-0.510	0.010	-0.390
2020/01/31 21:18:25.9	5.130	-0.480	-0.040	-0.360
2020/01/31 21:18:26.0	5.100	-0.440	-0.090	-0.330
2020/01/31 21:18:26.1	5.100	-0.400	-0.130	-0.300
2020/01/31 21:18:26.2	5.090	-0.370	-0.180	-0.270
2020/01/31 21:18:26.3	5.090	-0.330	-0.220	-0.240
2020/01/31 21:18:26.4	5.080	-0.290	-0.270	-0.210
2020/01/31 21:18:26.5	5.070	-0.250	-0.310	-0.180
2020/01/31 21:18:26.6	5.070	-0.210	-0.350	-0.150
2020/01/31 21:18:26.7	5.060	-0.170	-0.380	-0.120
2020/01/31 21:18:26.8	5.050	-0.130	-0.410	-0.100
2020/01/31 21:18:26.9	5.040	-0.090	-0.440	-0.060
2020/01/31 21:18:27.0	5.030	-0.060	-0.460	-0.030
2020/01/31 21:18:27.1	5.020	-0.030	-0.470	-0.000
2020/01/31 21:18:27.2	5.010	0.010	-0.480	0.030
2020/01/31 21:18:27.3	5.000	0.040	-0.490	0.060
2020/01/31 21:18:27.4	4.980	0.060	-0.490	0.090
2020/01/31 21:18:27.5	4.970	0.090	-0.480	0.120
2020/01/31 21:18:27.6	4.950	0.110	-0.470	0.150
2020/01/31 21:18:27.7	4.930	0.130	-0.450	0.190
2020/01/31 21:18:27.8	4.910	0.150	-0.430	0.220
2020/01/31 21:18:27.9	4.890	0.170	-0.410	0.250
2020/01/31 21:18:28.0	4.870	0.180	-0.370	0.290
2020/01/31 21:18:28.1	4.840	0.190	-0.340	0.320
2020/01/31 21:18:28.2	4.820	0.200	-0.300	0.350
2020/01/31 21:18:28.3	4.790	0.210	-0.260	0.380
2020/01/31 21:18:28.4	4.760	0.210	-0.210	0.410
2020/01/31 21:18:28.5	4.730	0.220	-0.170	0.450
2020/01/31 21:18:28.6	4.700	0.220	-0.120	0.470
2020/01/31 21:18:28.7	4.670	0.220	-0.070	0.500
2020/01/31 21:18:28.8	4.640	0.220	-0.030	0.530
2020/01/31 21:18:28.9	4.610	0.220	0.010	0.550
2020/01/31 21:18:29.0	4.580	0.220	0.060	0.570
2020/01/31 21:18:29.1	4.560	0.220	0.090	0.590
2020/01/31 21:18:29.2	4.530	0.220	0.130	0.610
2020/01/31 21:18:29.3	4.510	0.230	0.160	0.620
2020/01/31 21:18:29.4	4.480	0.230	0.180	0.630
2020/01/31 21:18:29.5	4.460	0.230	0.200	0.640
2020/01/31 21:18:29.6	4.440	0.240	0.210	0.640
2020/01/31 21:18:29.7	4.420	0.250	0.220	0.640
2020/01/31 21:18:29.8	4.400	0.250	0.220	0.640
2020/01/31 21:18:29.9	4.400	0.270	0.210	0.640
2020/01/31 21:18:30.0	4.380	0.280	0.200	0.630
2020/01/31 21:18:30.1	4.370	0.290	0.180	0.620
2020/01/31 21:18:30.2	4.360	0.310	0.150	0.610
2020/01/31 21:18:30.3	4.350	0.330	0.110	0.590
2020/01/31 21:18:30.4	4.340	0.350	0.070	0.580
2020/01/31 21:18:30.5	4.330	0.370	0.030	0.560
2020/01/31 21:18:30.6	4.320	0.390	-0.020	0.530
2020/01/31 21:18:30.7	4.320	0.410	-0.080	0.510
2020/01/31 21:18:30.8	4.310	0.430	-0.140	0.480
2020/01/31 21:18:30.9	4.310	0.450	-0.200	0.450
2020/01/31 21:18:31.0	4.310	0.470	-0.260	0.420
2020/01/31 21:18:31.1	4.310	0.480	-0.330	0.380
2020/01/31 21:18:31.2	4.310	0.500	-0.400	0.340
2020/01/31 21:18:31.3	4.320	0.510	-0.470	0.290
2020/01/31 21:18:31.4	4.320	0.530	-0.530	0.240
2020/01/31 21:18:31.5	4.330	0.540	-0.600	0.190
2020/01/31 21:18:31.6	4.340	0.540	-0.670	0.130
2020/01/31 21:18:31.7	4.360	0.550	-0.730	0.070
2020/01/31 21:18:31.8	4.370	0.550	-0.790	0.000
2020/01/31 21:18:31.9	4.400	0.540	-0.850	-0.060
2020/01/31 21:18:32.0	4.420	0.540	-0.900	-0.130
2020/01/31 21:18:32.1	4.440	0.530	-0.950	-0.200
2020/01/31 21:18:32.2	4.470	0.510	-1.000	-0.280
2020/01/31 21:18:32.3	4.490	0.490	-1.040	-0.350
2020/01/31 21:18:32.4	4.520	0.470	-1.080	-0.430
2020/01/31 21:18:32.5	4.560	0.450	-1.110	-0.500
2020/01/31 21:18:32.6	4.590	0.420	-1.130	-0.580
2020/01/31 21:18:32.7	4.620	0.380	-1.150	-0.650
2020/01/31 21:18:32.8	4.660	0.350	-1.170	-0.720
2020/01/31 21:18:32.9	4.690	0.310	-1.170	-0.800
2020/01/31 21:18:33.0	4.730	0.260	-1.170	-0.860
2020/01/31 21:18:33.1	4.770	0.220	-1.160	-0.930
2020/01/31 21:18:33.2	4.810	0.170	-1.150	-0.990
2020/01/31 21:18:33.3	4.840	0.120	-1.130	-1.040
2020/01/31 21:18:33.4	4.880	0.060	-1.100	-1.100
2020/01/31 21:18:33.5	4.920	0.010	-1.060	-1.140
2020/01/31 21:18:33.6	4.950	-0.050	-1.020	-1.190
2020/01/31 21:18:33.7	4.990	-0.100	-0.970	-1.220
2020/01/31 21:18:33.8	5.020	-0.160	-0.910	-1.260
2020/01/31 21:18:33.9	5.040	-0.220	-0.850	-1.280
2020/01/31 21:18:34.0	5.070	-0.270	-0.790	-1.300
2020/01/31 21:18:34.1	5.090	-0.330	-0.720	-1.320
2020/01/31 21:18:34.2	5.120	-0.380	-0.650	-1.330
2020/01/31 21:18:34.3	5.140	-0.440	-0.570	-1.340
2020/01/31 21:18:34.4	5.150	-0.490	-0.490	-1.340
2020/01/31 21:18:34.5	5.170	-0.540	-0.400	-1.330
2020/01/31 21:18:34.6	5.180	-0.590	-0.320	-1.320
2020/01/31 21:18:34.7	5.190	-0.630	-0.230	-1.310
2020/01/31 21:18:34.8	5.200	-0.670	-0.150	-1.290
2020/01/31 21:18:34.9	5.210	-0.710	-0.060	-1.260
2020/01/31 21:18:35.0	5.210	-0.740	0.020	-1.240
2020/01/31 21:18:35.1	5.210	-0.770	0.110	-1.200
2020/01/31 21:18:35.2	5.210	-0.790	0.190	-1.170
2020/01/31 21:18:35.3	5.200	-0.810	0.270	-1.130
2020/01/31 21:18:35.4	5.200	-0.820	0.350	-1.080
2020/01/31 21:18:35.5	5.190	-0.830	0.420	-1.040
2020/01/31 21:18:35.6	5.170	-0.830	0.480	-0.990
2020/01/31 21:18:35.7	5.160	-0.830	0.540	-0.930
2020/01/31 21:18:35.8	5.140	-0.830	0.600	-0.880
2020/01/31 21:18:35.9	5.120	-0.820	0.640	-0.820
2020/01/31 21:18:36.0	5.100	-0.800	0.680	-0.760
2020/01/31 21:18:36.1	5.080	-0.780	0.710	-0.700
2020/01/31 21:18:36.2	5.060	-0.760	0.730	-0.630
2020/01/31 21:18:36.3	5.040	-0.730	0.750	-0.570
2020/01/31 21:18:36.4	5.010	-0.690	0.760	-0.510
2020/01/31 21:18:36.5	4.990	-0.660	0.750	-0.440
2020/01/31 21:18:36.6	4.960	-0.620	0.740	-0.380
2020/01/31 21:18:36.7	4.930	-0.570	0.720	-0.310
2020/01/31 21:18:36.8	4.900	-0.530	0.700	-0.250
2020/01/31 21:18:36.9	4.880	-0.480	0.660	-0.180
2020/01/31 21:18:37.0	4.840	-0.430	0.620	-0.120
2020/01/31 21:18:37.1	4.810	-0.380	0.570	-0.060
2020/01/31 21:18:37.2	4.780	-0.320	0.510	0.000
2020/01/31 21:18:37.3	4.740	-0.270	0.450	0.060
2020/01/31 21:18:37.4	4.710	-0.220	0.390	0.120
2020/01/31 21:18:37.5	4.670	-0.160	0.320	0.170
2020/01/31 21:18:37.6	4.630	-0.110	0.240	0.220
2020/01/31 21:18:37.7	4.600	-0.060	0.170	0.260
2020/01/31 21:18:37.8	4.560	-0.010	0.090	0.300
2020/01/31 21:18:37.9	4.520	0.040	0.020	0.340
2020/01/31 21:18:38.0	4.480	0.090	-0.060	0.370
2020/01/31 21:18:38.1	4.450	0.140	-0.140	0.400
2020/01/31 21:18:38.2	4.420	0.180	-0.220	0.420
2020/01/31 21:18:38.3	4.390	0.230	-0.300	0.440
2020/01/31 21:18:38.4	4.360	0.270	-0.370	0.450
2020/01/31 21:18:38.5	4.340	0.310	-0.440	0.460
2020/01/31 21:18:38.6	4.310	0.340	-0.510	0.470
2020/01/31 21:18:38.7	4.290	0.380	-0.570	0.470
2020/01/31 21:18:38.8	4.270	0.410	-0.630	0.470
2020/01/31 21:18:38.9	4.240	0.440	-0.680	0.470
2020/01/31 21:18:39.0	4.230	0.460	-0.720	0.460
2020/01/31 21:18:39.1	4.210	0.480	-0.760	0.460
2020/01/31 21:18:39.2	4.200	0.500	-0.800	0.450
2020/01/31 21:18:39.3	4.190	0.520	-0.820	0.450
2020/01/31 21:18:39.4	4.180	0.540	-0.840	0.440
2020/01/31 21:18:39.5	4.180	0.550	-0.860	0.430
2020/01/31 21:18:39.6	4.170	0.560	-0.860	0.420
2020/01/31 21:18:39.7	4.170	0.570	-0.860	0.420
2020/01/31 21:18:39.8	4.170	0.580	-0.860	0.410
2020/01/31 21:18:39.9	4.170	0.580	-0.850	0.400
2020/01/31 21:18:40.0	4.180	0.580	-0.830	0.390
2020/01/31 21:18:40.1	4.180	0.580	-0.810	0.380
2020/01/31 21:18:40.2	4.190	0.580	-0.780	0.370
2020/01/31 21:18:40.3	4.190	0.570	-0.750	0.360
2020/01/31 21:18:40.4	4.200	0.560	-0.710	0.340
2020/01/31 21:18:40.5	4.210	0.560	-0.670	0.330
2020/01/31 21:18:40.6	4.220	0.550	-0.630	0.320
2020/01/31 21:18:40.7	4.230	0.530	-0.590	0.300
2020/01/31 21:18:40.8	4.250	0.520	-0.540	0.290
2020/01/31 21:18:40.9	4.270	0.500	-0.500	0.270
2020/01/31 21:18:41.0	4.290	0.490	-0.450	0.260
2020/01/31 21:18:41.1	4.300	0.470	-0.400	0.240
2020/01/31 21:18:41.2	4.320	0.450	-0.360	0.220
2020/01/31 21:18:41.3	4.330	0.430	-0.310	0.200
2020/01/31 21:18:41.4	4.350	0.410	-0.260	0.180
2020/01/31 21:18:41.5	4.360	0.390	-0.220	0.150
2020/01/31 21:18:41.6	4.380	0.370	-0.180	0.130
2020/01/31 21:18:41.7	4.400	0.340	-0.140	0.100
2020/01/31 21:18:41.8	4.420	0.320	-0.110	0.080
2020/01/31 21:18:41.9	4.420	0.290	-0.080	0.050
2020/01/31 21:18:42.0	4.440	0.270	-0.060	0.020
2020/01/31 21:18:42.1	4.460	0.240	-0.030	-0.010
2020/01/31 21:18:42.2	4.470	0.220	-0.010	-0.040
2020/01/31 21:18:42.3	4.490	0.190	0.000	-0.070
2020/01/31 21:18:42.4	4.500	0.170	0.010	-0.100
2020/01/31 21:18:42.5	4.520	0.140	0.020	-0.130
2020/01/31 21:18:42.6	4.530	0.110	0.020	-0.150
2020/01/31 21:18:42.7	4.540	0.090	0.020	-0.180
2020/01/31 21:18:42.8	4.550	0.060	0.010	-0.210
2020/01/31 21:18:42.9	4.570	0.030	0.000	-0.240
2020/01/31 21:18:43.0	4.570	0.010	-0.010	-0.270
2020/01/31 21:18:43.1	4.580	-0.020	-0.030	-0.290
2020/01/31 21:18:43.2	4.580	-0.040	-0.050	-0.320
2020/01/31 21:18:43.3	4.580	-0.070	-0.070	-0.340
2020/01/31 21:18:43.4	4.580	-0.090	-0.100	-0.370
2020/01/31 21:18:43.5	4.580	-0.110	-0.120	-0.390
2020/01/31 21:18:43.6	4.580	-0.140	-0.150	-0.420
2020/01/31 21:18:43.7	4.580	-0.160	-0.180	-0.440
2020/01/31 21:18:43.8	4.580	-0.180	-0.220	-0.470
2020/01/31 21:18:43.9	4.580	-0.200	-0.250	-0.490
2020/01/31 21:18:44.0	4.580	-0.210	-0.280	-0.520
2020/01/31 21:18:44.1	4.580	-0.230	-0.310	-0.540
2020/01/31 21:18:44.2	4.580	-0.250	-0.350	-0.560
2020/01/31 21:18:44.3	4.580	-0.260	-0.380	-0.590
2020/01/31 21:18:44.4	4.580	-0.270	-0.410	-0.610
2020/01/31 21:18:44.5	4.580	-0.280	-0.440	-0.630
2020/01/31 21:18:44.6	4.580	-0.290	-0.470	-0.650
2020/01/31 21:18:44.7	4.580	-0.300	-0.490	-0.670
2020/01/31 21:18:44.8	4.580	-0.310	-0.510	-0.690
2020/01/31 21:18:44.9	4.580	-0.310	-0.530	-0.710
2020/01/31 21:18:45.0	4.580	-0.310	-0.550	-0.720
2020/01/31 21:18:45.1	4.580	-0.320	-0.560	-0.740
2020/01/31 21:18:45.2	4.580	-0.320	-0.560	-0.740
2020/01/31 21:18:45.3	4.580	-0.320	-0.560	-0.750
2020/01/31 21:18:45.4	4.570	-0.320	-0.560	-0.750
2020/01/31 21:18:45.5	4.570	-0.320	-0.550	-0.750
2020/01/31 21:18:45.6	4.570	-0.310	-0.530	-0.750
2020/01/31 21:18:45.7	4.560	-0.310	-0.510	-0.740
2020/01/31 21:18:45.8	4.560	-0.310	-0.490	-0.730
2020/01/31 21:18:45.9	4.550	-0.310	-0.460	-0.710
2020/01/31 21:18:46.0	4.540	-0.300	-0.430	-0.690
2020/01/31 21:18:46.1	4.530	-0.300	-0.400	-0.670
2020/01/31 21:18:46.2	4.510	-0.290	-0.360	-0.640
2020/01/31 21:18:46.3	4.500	-0.290	-0.320	-0.610
2020/01/31 21:18:46.4	4.480	-0.280	-0.280	-0.580
2020/01/31 21:18:46.5	4.470	-0.280	-0.230	-0.540
2020/01/31 21:18:46.6	4.450	-0.270	-0.190	-0.500
2020/01/31 21:18:46.7	4.430	-0.260	-0.140	-0.450
2020/01/31 21:18:46.8	4.410	-0.260	-0.100	-0.410
2020/01/31 21:18:46.9	4.400	-0.250	-0.060	-0.370
2020/01/31 21:18:47.0	4.380	-0.240	-0.010	-0.320
2020/01/31 21:18:47.1	4.360	-0.230	0.030	-0.280
2020/01/31 21:18:47.2	4.340	-0.230	0.070	-0.230
2020/01/31 21:18:47.3	4.320	-0.220	0.110	-0.190
2020/01/31 21:18:47.4	4.300	-0.210	0.140	-0.150
2020/01/31 21:18:47.5	4.280	-0.200	0.170	-0.110
2020/01/31 21:18:47.6	4.270	-0.190	0.190	-0.070
2020/01/31 21:18:47.7	4.250	-0.170	0.210	-0.030
2020/01/31 21:18:47.8	4.230	-0.160	0.230	-0.000
2020/01/31 21:18:47.9	4.220	-0.150	0.240	0.030
2020/01/31 21:18:48.0	4.210	-0.130	0.250	0.060
2020/01/31 21:18:48.1	4.190	-0.120	0.250	0.090
2020/01/31 21:18:48.2	4.180	-0.100	0.250	0.110
2020/01/31 21:18:48.3	4.170	-0.090	0.240	0.140
2020/01/31 21:18:48.4	4.160	-0.070	0.230	0.160
2020/01/31 21:18:48.5	4.140	-0.050	0.220	0.180
2020/01/31 21:18:48.6	4.130	-0.030	0.200	0.200
2020/01/31 21:18:48.7	4.120	-0.010	0.180	0.220
2020/01/31 21:18:48.8	4.110	0.010	0.160	0.240
2020/01/31 21:18:48.9	4.090	0.030	0.130	0.260
2020/01/31 21:18:49.0	4.080	0.050	0.100	0.280
2020/01/31 21:18:49.1	4.070	0.070	0.070	0.300
2020/01/31 21:18:49.2	4.060	0.090	0.040	0.310
2020/01/31 21:18:49.3	4.050	0.110	0.010	0.330
2020/01/31 21:18:49.4	4.040	0.120	-0.020	0.350
2020/01/31 21:18:49.5	4.020	0.140	-0.060	0.360
2020/01/31 21:18:49.6	4.010	0.150	-0.090	0.380
2020/01/31 21:18:49.7	4.000	0.170	-0.120	0.390
2020/01/31 21:18:49.8	3.990	0.180	-0.160	0.400
2020/01/31 21:18:49.9	3.990	0.190	-0.190	0.410
2020/01/31 21:18:50.0	3.980	0.200	-0.220	0.410
2020/01/31 21:18:50.1	3.970	0.200	-0.250	0.410
2020/01/31 21:18:50.2	3.960	0.210	-0.290	0.410
2020/01/31 21:18:50.3	3.960	0.210	-0.320	0.400
2020/01/31 21:18:50.4	3.950	0.210	-0.350	0.390
2020/01/31 21:18:50.5	3.950	0.210	-0.380	0.370
2020/01/31 21:18:50.6	3.950	0.210	-0.410	0.350
2020/01/31 21:18:50.7	3.950	0.200	-0.440	0.330
2020/01/31 21:18:50.8	3.960	0.200	-0.460	0.300
2020/01/31 21:18:50.9	3.970	0.190	-0.490	0.270
2020/01/31 21:18:51.0	3.970	0.180	-0.510	0.240
2020/01/31 21:18:51.1	3.980	0.170	-0.540	0.200
2020/01/31 21:18:51.2	3.990	0.150	-0.560	0.170
2020/01/31 21:18:51.3	4.000	0.140	-0.580	0.130
2020/01/31 21:18:51.4	4.010	0.120	-0.590	0.090
2020/01/31 21:18:51.5	4.020	0.110	-0.610	0.050
2020/01/31 21:18:51.6	4.030	0.090	-0.620	0.020
2020/01/31 21:18:51.7	4.040	0.080	-0.630	-0.020
2020/01/31 21:18:51.8	4.050	0.060	-0.640	-0.060
2020/01/31 21:18:51.9	4.060	0.050	-0.650	-0.090
2020/01/31 21:18:52.0	4.070	0.030	-0.650	-0.130
2020/01/31 21:18:52.1	4.070	0.020	-0.650	-0.160
2020/01/31 21:18:52.2	4.080	0.010	-0.650	-0.190
2020/01/31 21:18:52.3	4.090	-0.010	-0.650	-0.220
2020/01/31 21:18:52.4	4.100	-0.020	-0.650	-0.240
2020/01/31 21:18:52.5	4.110	-0.020	-0.640	-0.270
2020/01/31 21:18:52.6	4.110	-0.030	-0.630	-0.290
2020/01/31 21:18:52.7	4.120	-0.030	-0.630	-0.310
2020/01/31 21:18:52.8	4.130	-0.030	-0.620	-0.330
2020/01/31 21:18:52.9	4.140	-0.030	-0.610	-0.350
2020/01/31 21:18:53.0	4.160	-0.030	-0.600	-0.360
2020/01/31 21:18:53.1	4.170	-0.020	-0.590	-0.380
2020/01/31 21:18:53.2	4.190	-0.010	-0.590	-0.400
2020/01/31 21:18:53.3	4.200	0.000	-0.580	-0.410
2020/01/31 21:18:53.4	4.220	0.010	-0.570	-0.430
2020/01/31 21:18:53.5	4.240	0.030	-0.570	-0.440
2020/01/31 21:18:53.6	4.260	0.050	-0.560	-0.460
2020/01/31 21:18:53.7	4.280	0.070	-0.560	-0.470
2020/01/31 21:18:53.8	4.300	0.090	-0.560	-0.480
2020/01/31 21:18:53.9	4.330	0.120	-0.560	-0.500
2020/01/31 21:18:54.0	4.350	0.150	-0.550	-0.510
2020/01/31 21:18:54.1	4.370	0.170	-0.550	-0.510
2020/01/31 21:18:54.2	4.390	0.200	-0.540	-0.520
2020/01/31 21:18:54.3	4.410	0.230	-0.540	-0.520
2020/01/31 21:18:54.4	4.430	0.260	-0.530	-0.520
2020/01/31 21:18:54.5	4.450	0.280	-0.530	-0.520
2020/01/31 21:18:54.6	4.460	0.310	-0.520	-0.510
2020/01/31 21:18:54.7	4.480	0.340	-0.510	-0.510
2020/01/31 21:18:54.8	4.500	0.360	-0.500	-0.490
2020/01/31 21:18:54.9	4.500	0.380	-0.480	-0.480
2020/01/31 21:18:55.0	4.510	0.400	-0.470	-0.460
2020/01/31 21:18:55.1	4.520	0.420	-0.450	-0.440
2020/01/31 21:18:55.2	4.530	0.440	-0.430	-0.420
2020/01/31 21:18:55.3	4.540	0.450	-0.400	-0.400
2020/01/31 21:18:55.4	4.540	0.450	-0.380	-0.370
2020/01/31 21:18:55.5	4.540	0.460	-0.350	-0.340
2020/01/31 21:18:55.6	4.540	0.460	-0.320	-0.320
2020/01/31 21:18:55.7	4.540	0.460	-0.280	-0.290
2020/01/31 21:18:55.8	4.530	0.450	-0.250	-0.260
2020/01/31 21:18:55.9	4.530	0.430	-0.210	-0.230
2020/01/31 21:18:56.0	4.520	0.420	-0.170	-0.200
2020/01/31 21:18:56.1	4.500	0.400	-0.120	-0.170
2020/01/31 21:18:56.2	4.480	0.370	-0.080	-0.150
2020/01/31 21:18:56.3	4.460	0.340	-0.030	-0.130
2020/01/31 21:18:56.4	4.440	0.310	0.020	-0.100
2020/01/31 21:18:56.5	4.410	0.270	0.070	-0.090
2020/01/31 21:18:56.6	4.380	0.230	0.120	-0.070
2020/01/31 21:18:56.7	4.350	0.190	0.170	-0.050
2020/01/31 21:18:56.8	4.310	0.140	0.220	-0.040
2020/01/31 21:18:56.9	4.280	0.090	0.270	-0.030
2020/01/31 21:18:57.0	4.240	0.040	0.320	-0.020
2020/01/31 21:18:57.1	4.200	-0.010	0.370	-0.020
2020/01/31 21:18:57.2	4.150	-0.060	0.420	-0.010
2020/01/31 21:18:57.3	4.110	-0.110	0.460	-0.000
2020/01/31 21:18:57.4	4.060	-0.170	0.510	-0.000
2020/01/31 21:18:57.5	4.010	-0.220	0.550	0.000
2020/01/31 21:18:57.6	3.960	-0.280	0.580	0.000
2020/01/31 21:18:57.7	3.910	-0.330	0.610	0.000
2020/01/31 21:18:57.8	3.860	-0.380	0.640	0.000
2020/01/31 21:18:57.9	3.810	-0.430	0.660	0.010
2020/01/31 21:18:58.0	3.770	-0.470	0.680	0.000
2020/01/31 21:18:58.1	3.720	-0.510	0.690	0.000
2020/01/31 21:18:58.2	3.670	-0.550	0.700	-0.000
2020/01/31 21:18:58.3	3.630	-0.590	0.700	-0.010
2020/01/31 21:18:58.4	3.590	-0.620	0.690	-0.020
2020/01/31 21:18:58.5	3.550	-0.650	0.670	-0.030
2020/01/31 21:18:58.6	3.510	-0.670	0.650	-0.040
2020/01/31 21:18:58.7	3.470	-0.690	0.620	-0.050
2020/01/31 21:18:58.8	3.440	-0.710	0.580	-0.060
2020/01/31 21:18:58.9	3.420	-0.710	0.540	-0.090
2020/01/31 21:18:59.0	3.390	-0.720	0.490	-0.110
2020/01/31 21:18:59.1	3.370	-0.710	0.430	-0.130
2020/01/31 21:18:59.2	3.350	-0.710	0.360	-0.150
2020/01/31 21:18:59.3	3.340	-0.690	0.290	-0.180
2020/01/31 21:18:59.4	3.330	-0.670	0.210	-0.210
2020/01/31 21:18:59.5	3.330	-0.650	0.120	-0.240
2020/01/31 21:18:59.6	3.330	-0.620	0.030	-0.280
2020/01/31 21:18:59.7	3.330	-0.590	-0.070	-0.320
2020/01/31 21:18:59.8	3.340	-0.550	-0.170	-0.360
2020/01/31 21:18:59.9	3.360	-0.510	-0.260	-0.400
2020/01/31 21:19:00.0	3.380	-0.460	-0.370	-0.440
2020/01/31 21:19:00.1	3.400	-0.410	-0.480	-0.480
2020/01/31 21:19:00.2	3.420	-0.360	-0.580	-0.530
2020/01/31 21:19:00.3	3.440	-0.310	-0.690	-0.570
2020/01/31 21:19:00.4	3.470	-0.250	-0.790	-0.610
2020/01/31 21:19:00.5	3.490	-0.200	-0.890	-0.660
2020/01/31 21:19:00.6	3.520	-0.140	-0.990	-0.700
2020/01/31 21:19:00.7	3.550	-0.080	-1.080	-0.730
2020/01/31 21:19:00.8	3.580	-0.020	-1.160	-0.770
2020/01/31 21:19:00.9	3.610	0.030	-1.240	-0.810
2020/01/31 21:19:01.0	3.640	0.090	-1.310	-0.840
2020/01/31 21:19:01.1	3.670	0.140	-1.370	-0.880
2020/01/31 21:19:01.2	3.710	0.190	-1.420	-0.900
2020/01/31 21:19:01.3	3.740	0.240	-1.470	-0.930
2020/01/31 21:19:01.4	3.770	0.280	-1.500	-0.950
2020/01/31 21:19:01.5	3.800	0.320	-1.520	-0.970
2020/01/31 21:19:01.6	3.840	0.360	-1.530	-0.990
2020/01/31 21:19:01.7	3.870	0.390	-1.530	-1.010
2020/01/31 21:19:01.8	3.900	0.420	-1.520	-1.020
2020/01/31 21:19:01.9	3.920	0.440	-1.490	-1.020
2020/01/31 21:19:02.0	3.950	0.450	-1.460	-1.020
2020/01/31 21:19:02.1	3.980	0.470	-1.420	-1.020
2020/01/31 21:19:02.2	4.000	0.470	-1.370	-1.020
2020/01/31 21:19:02.3	4.030	0.470	-1.310	-1.010
2020/01/31 21:19:02.4	4.050	0.470	-1.240	-1.000
2020/01/31 21:19:02.5	4.070	0.460	-1.170	-0.980
2020/01/31 21:19:02.6	4.090	0.450	-1.090	-0.970
2020/01/31 21:19:02.7	4.110	0.430	-1.000	-0.950
2020/01/31 21:19:02.8	4.120	0.410	-0.910	-0.930
2020/01/31 21:19:02.9	4.120	0.380	-0.830	-0.900
2020/01/31 21:19:03.0	4.130	0.350	-0.730	-0.880
2020/01/31 21:19:03.1	4.140	0.310	-0.620	-0.850
2020/01/31 21:19:03.2	4.140	0.280	-0.520	-0.820
2020/01/31 21:19:03.3	4.140	0.230	-0.420	-0.790
2020/01/31 21:19:03.4	4.140	0.190	-0.310	-0.760
2020/01/31 21:19:03.5	4.140	0.140	-0.210	-0.730
2020/01/31 21:19:03.6	4.130	0.100	-0.110	-0.700
2020/01/31 21:19:03.7	4.120	0.050	-0.010	-0.670
2020/01/31 21:19:03.8	4.110	-0.000	0.090	-0.630
2020/01/31 21:19:03.9	4.090	-0.050	0.180	-0.600
2020/01/31 21:19:04.0	4.080	-0.100	0.270	-0.570
2020/01/31 21:19:04.1	4.060	-0.140	0.350	-0.530
2020/01/31 21:19:04.2	4.040	-0.190	0.430	-0.500
2020/01/31 21:19:04.3	4.020	-0.230	0.500	-0.460
2020/01/31 21:19:04.4	4.000	-0.270	0.560	-0.420
2020/01/31 21:19:04.5	3.980	-0.300	0.620	-0.390
2020/01/31 21:19:04.6	3.960	-0.340	0.670	-0.350
2020/01/31 21:19:04.7	3.940	-0.360	0.710	-0.310
2020/01/31 21:19:04.8	3.920	-0.390	0.740	-0.280
2020/01/31 21:19:04.9	3.900	-0.400	0.760	-0.240
2020/01/31 21:19:05.0	3.880	-0.410	0.770	-0.200
2020/01/31 21:19:05.1	3.860	-0.420	0.780	-0.160
2020/01/31 21:19:05.2	3.840	-0.420	0.770	-0.130
2020/01/31 21:19:05.3	3.820	-0.420	0.760	-0.090
2020/01/31 21:19:05.4	3.800	-0.410	0.740	-0.060
2020/01/31 21:19:05.5	3.780	-0.390	0.710	-0.020
2020/01/31 21:19:05.6	3.770	-0.370	0.680	0.010
2020/01/31 21:19:05.7	3.740	-0.340	0.640	0.050
2020/01/31 21:19:05.8	3.720	-0.310	0.590	0.080
2020/01/31 21:19:05.9	3.690	-0.270	0.540	0.110
2020/01/31 21:19:06.0	3.670	-0.230	0.480	0.140
2020/01/31 21:19:06.1	3.650	-0.190	0.420	0.170
2020/01/31 21:19:06.2	3.630	-0.150	0.350	0.200
2020/01/31 21:19:06.3	3.600	-0.100	0.280	0.230
2020/01/31 21:19:06.4	3.580	-0.050	0.210	0.250
2020/01/31 21:19:06.5	3.550	0.000	0.140	0.270
2020/01/31 21:19:06.6	3.530	0.050	0.070	0.290
2020/01/31 21:19:06.7	3.500	0.100	-0.010	0.310
2020/01/31 21:19:06.8	3.470	0.150	-0.080	0.330
2020/01/31 21:19:06.9	3.460	0.200	-0.150	0.340
2020/01/31 21:19:07.0	3.440	0.250	-0.210	0.350
2020/01/31 21:19:07.1	3.410	0.300	-0.270	0.360
2020/01/31 21:19:07.2	3.390	0.340	-0.330	0.370
2020/01/31 21:19:07.3	3.360	0.380	-0.390	0.370
2020/01/31 21:19:07.4	3.340	0.420	-0.440	0.370
2020/01/31 21:19:07.5	3.320	0.450	-0.490	0.380
2020/01/31 21:19:07.6	3.300	0.480	-0.530	0.380
2020/01/31 21:19:07.7	3.280	0.500	-0.570	0.370
2020/01/31 21:19:07.8	3.260	0.520	-0.600	0.370
2020/01/31 21:19:07.9	3.250	0.530	-0.630	0.370
2020/01/31 21:19:08.0	3.240	0.540	-0.650	0.360
2020/01/31 21:19:08.1	3.230	0.550	-0.670	0.350
2020/01/31 21:19:08.2	3.220	0.550	-0.680	0.330
2020/01/31 21:19:08.3	3.210	0.540	-0.690	0.320
2020/01/31 21:19:08.4	3.210	0.530	-0.700	0.300
2020/01/31 21:19:08.5	3.210	0.520	-0.700	0.280
2020/01/31 21:19:08.6	3.210	0.500	-0.700	0.260
2020/01/31 21:19:08.7	3.220	0.480	-0.690	0.240
2020/01/31 21:19:08.8	3.230	0.450	-0.680	0.210
2020/01/31 21:19:08.9	3.230	0.420	-0.670	0.180
2020/01/31 21:19:09.0	3.240	0.390	-0.650	0.150
2020/01/31 21:19:09.1	3.260	0.360	-0.630	0.110
2020/01/31 21:19:09.2	3.280	0.320	-0.610	0.080
2020/01/31 21:19:09.3	3.300	0.280	-0.580	0.040
2020/01/31 21:19:09.4	3.320	0.240	-0.560	-0.000
2020/01/31 21:19:09.5	3.340	0.200	-0.530	-0.040
2020/01/31 21:19:09.6	3.360	0.160	-0.510	-0.090
2020/01/31 21:19:09.7	3.390	0.120	-0.480	-0.130
2020/01/31 21:19:09.8	3.410	0.070	-0.450	-0.170
2020/01/31 21:19:09.9	3.450	0.030	-0.430	-0.220
2020/01/31 21:19:10.0	3.470	-0.000	-0.400	-0.260
2020/01/31 21:19:10.1	3.500	-0.040	-0.370	-0.310
2020/01/31 21:19:10.2	3.530	-0.080	-0.350	-0.350
2020/01/31 21:19:10.3	3.560	-0.110	-0.320	-0.390
2020/01/31 21:19:10.4	3.580	-0.140	-0.290	-0.430
2020/01/31 21:19:10.5	3.610	-0.170	-0.270	-0.460
2020/01/31 21:19:10.6	3.640	-0.190	-0.250	-0.490
2020/01/31 21:19:10.7	3.660	-0.210	-0.220	-0.520
2020/01/31 21:19:10.8	3.680	-0.230	-0.200	-0.550
2020/01/31 21:19:10.9	3.700	-0.250	-0.180	-0.570
2020/01/31 21:19:11.0	3.720	-0.260	-0.160	-0.590
2020/01/31 21:19:11.1	3.740	-0.270	-0.150	-0.610
2020/01/31 21:19:11.2	3.750	-0.280	-0.130	-0.630
2020/01/31 21:19:11.3	3.760	-0.290	-0.120	-0.640
2020/01/31 21:19:11.4	3.770	-0.290	-0.100	-0.650
2020/01/31 21:19:11.5	3.780	-0.290	-0.090	-0.650
2020/01/31 21:19:11.6	3.780	-0.290	-0.090	-0.660
2020/01/31 21:19:11.7	3.780	-0.290	-0.080	-0.660
2020/01/31 21:19:11.8	3.780	-0.290	-0.080	-0.650
2020/01/31 21:19:11.9	3.760	-0.290	-0.080	-0.650
2020/01/31 21:19:12.0	3.750	-0.280	-0.090	-0.640
2020/01/31 21:19:12.1	3.740	-0.270	-0.090	-0.640
2020/01/31 21:19:12.2	3.740	-0.270	-0.100	-0.630
2020/01/31 21:19:12.3	3.730	-0.260	-0.110	-0.620
2020/01/31 21:19:12.4	3.720	-0.250	-0.120	-0.610
2020/01/31 21:19:12.5	3.710	-0.240	-0.140	-0.600
2020/01/31 21:19:12.6	3.700	-0.240	-0.160	-0.590
2020/01/31 21:19:12.7	3.680	-0.230	-0.180	-0.580
2020/01/31 21:19:12.8	3.670	-0.220	-0.200	-0.570
2020/01/31 21:19:12.9	3.660	-0.210	-0.220	-0.560
2020/01/31 21:19:13.0	3.650	-0.200	-0.250	-0.550
2020/01/31 21:19:13.1	3.640	-0.190	-0.280	-0.540
2020/01/31 21:19:13.2	3.640	-0.180	-0.310	-0.540
2020/01/31 21:19:13.3	3.630	-0.180	-0.340	-0.530
2020/01/31 21:19:13.4	3.630	-0.170	-0.370	-0.530
2020/01/31 21:19:13.5	3.630	-0.160	-0.400	-0.520
2020/01/31 21:19:13.6	3.630	-0.150	-0.430	-0.520
2020/01/31 21:19:13.7	3.640	-0.140	-0.450	-0.520
2020/01/31 21:19:13.8	3.640	-0.140	-0.480	-0.520
2020/01/31 21:19:13.9	3.650	-0.130	-0.510	-0.520
2020/01/31 21:19:14.0	3.660	-0.120	-0.530	-0.520
2020/01/31 21:19:14.1	3.670	-0.110	-0.550	-0.530
2020/01/31 21:19:14.2	3.690	-0.110	-0.570	-0.530
2020/01/31 21:19:14.3	3.700	-0.100	-0.580	-0.540
2020/01/31 21:19:14.4	3.720	-0.090	-0.590	-0.540
2020/01/31 21:19:14.5	3.740	-0.080	-0.600	-0.540
2020/01/31 21:19:14.6	3.760	-0.070	-0.600	-0.540
2020/01/31 21:19:14.7	3.780	-0.060	-0.600	-0.540
2020/01/31 21:19:14.8	3.790	-0.050	-0.590	-0.540
2020/01/31 21:19:14.9	3.810	-0.040	-0.570	-0.540
2020/01/31 21:19:15.0	3.830	-0.030	-0.550	-0.530
2020/01/31 21:19:15.1	3.850	-0.020	-0.530	-0.520
2020/01/31 21:19:15.2	3.870	-0.010	-0.500	-0.510
2020/01/31 21:19:15.3	3.880	0.010	-0.470	-0.500
2020/01/31 21:19:15.4	3.900	0.020	-0.430	-0.480
2020/01/31 21:19:15.5	3.910	0.030	-0.390	-0.450
2020/01/31 21:19:15.6	3.920	0.040	-0.340	-0.430
2020/01/31 21:19:15.7	3.940	0.060	-0.290	-0.400
2020/01/31 21:19:15.8	3.950	0.070	-0.240	-0.370
2020/01/31 21:19:15.9	3.950	0.080	-0.190	-0.330
2020/01/31 21:19:16.0	3.960	0.090	-0.140	-0.290
2020/01/31 21:19:16.1	3.970	0.100	-0.090	-0.250
2020/01/31 21:19:16.2	3.970	0.110	-0.040	-0.210
2020/01/31 21:19:16.3	3.970	0.120	0.010	-0.170
2020/01/31 21:19:16.4	3.970	0.130	0.060	-0.120
2020/01/31 21:19:16.5	3.970	0.140	0.110	-0.080
2020/01/31 21:19:16.6	3.960	0.150	0.150	-0.030
2020/01/31 21:19:16.7	3.960	0.150	0.180	0.020
2020/01/31 21:19:16.8	3.950	0.160	0.220	0.060
2020/01/31 21:19:16.9	3.940	0.160	0.240	0.100
2020/01/31 21:19:17.0	3.940	0.170	0.260	0.140
2020/01/31 21:19:17.1	3.930	0.170	0.280	0.180
2020/01/31 21:19:17.2	3.920	0.170	0.280	0.210
2020/01/31 21:19:17.3	3.910	0.170	0.280	0.240
2020/01/31 21:19:17.4	3.910	0.170	0.280	0.270
2020/01/31 21:19:17.5	3.900	0.170	0.260	0.290
2020/01/31 21:19:17.6	3.890	0.170	0.240	0.310
2020/01/31 21:19:17.7	3.880	0.170	0.220	0.320
2020/01/31 21:19:17.8	3.880	0.170	0.190	0.330
2020/01/31 21:19:17.9	3.870	0.160	0.150	0.330
2020/01/31 21:19:18.0	3.860	0.160	0.100	0.330
2020/01/31 21:19:18.1	3.850	0.160	0.060	0.320
2020/01/31 21:19:18.2	3.850	0.150	0.010	0.310
2020/01/31 21:19:18.3	3.840	0.150	-0.040	0.300
2020/01/31 21:19:18.4	3.840	0.140	-0.090	0.280
2020/01/31 21:19:18.5	3.830	0.140	-0.140	0.260
2020/01/31 21:19:18.6	3.830	0.130	-0.200	0.240
2020/01/31 21:19:18.7	3.820	0.130	-0.250	0.210
2020/01/31 21:19:18.8	3.820	0.120	-0.300	0.190
2020/01/31 21:19:18.9	3.820	0.110	-0.340	0.160
2020/01/31 21:19:19.0	3.820	0.110	-0.380	0.130
2020/01/31 21:19:19.1	3.810	0.100	-0.420	0.110
2020/01/31 21:19:19.2	3.810	0.090	-0.450	0.080
2020/01/31 21:19:19.3	3.810	0.090	-0.480	0.050
2020/01/31 21:19:19.4	3.810	0.080	-0.500	0.020
2020/01/31 21:19:19.5	3.810	0.070	-0.520	-0.010
2020/01/31 21:19:19.6	3.810	0.060	-0.530	-0.040
2020/01/31 21:19:19.7	3.810	0.050	-0.540	-0.070
2020/01/31 21:19:19.8	3.810	0.040	-0.540	-0.100
2020/01/31 21:19:19.9	3.810	0.030	-0.540	-0.130
2020/01/31 21:19:20.0	3.820	0.020	-0.540	-0.160
2020/01/31 21:19:20.1	3.820	0.010	-0.520	-0.190
2020/01/31 21:19:20.2	3.830	-0.010	-0.510	-0.220
2020/01/31 21:19:20.3	3.840	-0.020	-0.490	-0.250
2020/01/31 21:19:20.4	3.850	-0.030	-0.470	-0.280
2020/01/31 21:19:20.5	3.860	-0.050	-0.440	-0.310
2020/01/31 21:19:20.6	3.880	-0.060	-0.410	-0.350
2020/01/31 21:19:20.7	3.900	-0.080	-0.390	-0.380
2020/01/31 21:19:20.8	3.910	-0.090	-0.360	-0.410
2020/01/31 21:19:20.9	3.930	-0.100	-0.330	-0.440
2020/01/31 21:19:21.0	3.950	-0.120	-0.300	-0.470
2020/01/31 21:19:21.1	3.970	-0.130	-0.270	-0.500
2020/01/31 21:19:21.2	3.990	-0.150	-0.240	-0.530
2020/01/31 21:19:21.3	4.010	-0.160	-0.210	-0.560
2020/01/31 21:19:21.4	4.030	-0.170	-0.180	-0.590
2020/01/31 21:19:21.5	4.060	-0.190	-0.160	-0.610
2020/01/31 21:19:21.6	4.080	-0.200	-0.140	-0.630
2020/01/31 21:19:21.7	4.100	-0.210	-0.110	-0.660
2020/01/31 21:19:21.8	4.120	-0.220	-0.100	-0.670
2020/01/31 21:19:21.9	4.140	-0.220	-0.080	-0.690
2020/01/31 21:19:22.0	4.150	-0.230	-0.070	-0.710
2020/01/31 21:19:22.1	4.170	-0.240	-0.060	-0.720
2020/01/31 21:19:22.2	4.180	-0.240	-0.050	-0.730
2020/01/31 21:19:22.3	4.200	-0.240	-0.040	-0.730
2020/01/31 21:19:22.4	4.210	-0.240	-0.040	-0.740
2020/01/31 21:19:22.5	4.210	-0.240	-0.040	-0.740
2020/01/31 21:19:22.6	4.220	-0.230	-0.040	-0.730
2020/01/31 21:19:22.7	4.230	-0.230	-0.050	-0.730
2020/01/31 21:19:22.8	4.230	-0.220	-0.060	-0.720
2020/01/31 21:19:22.9	4.240	-0.210	-0.070	-0.710
2020/01/31 21:19:23.0	4.240	-0.190	-0.080	-0.690
2020/01/31 21:19:23.1	4.240	-0.180	-0.100	-0.670
2020/01/31 21:19:23.2	4.240	-0.160	-0.120	-0.650
2020/01/31 21:19:23.3	4.240	-0.140	-0.140	-0.630
2020/01/31 21:19:23.4	4.230	-0.120	-0.160	-0.610
2020/01/31 21:19:23.5	4.230	-0.100	-0.180	-0.580
2020/01/31 21:19:23.6	4.230	-0.070	-0.200	-0.560
2020/01/31 21:19:23.7	4.220	-0.050	-0.230	-0.530
2020/01/31 21:19:23.8	4.220	-0.020	-0.260	-0.510
2020/01/31 21:19:23.9	4.220	0.010	-0.280	-0.480
2020/01/31 21:19:24.0	4.220	0.040	-0.310	-0.450
2020/01/31 21:19:24.1	4.210	0.060	-0.340	-0.430
2020/01/31 21:19:24.2	4.210	0.090	-0.360	-0.410
2020/01/31 21:19:24.3	4.210	0.120	-0.390	-0.380
2020/01/31 21:19:24.4	4.200	0.150	-0.410	-0.360
2020/01/31 21:19:24.5	4.200	0.180	-0.440	-0.340
2020/01/31 21:19:24.6	4.200	0.210	-0.460	-0.320
2020/01/31 21:19:24.7	4.200	0.240	-0.490	-0.300
2020/01/31 21:19:24.8	4.200	0.260	-0.510	-0.290
2020/01/31 21:19:24.9	4.200	0.290	-0.530	-0.270
2020/01/31 21:19:25.0	4.200	0.310	-0.550	-0.260
2020/01/31 21:19:25.1	4.200	0.330	-0.560	-0.250
2020/01/31 21:19:25.2	4.200	0.350	-0.580	-0.230
2020/01/31 21:19:25.3	4.200	0.370	-0.590	-0.220
2020/01/31 21:19:25.4	4.210	0.380	-0.590	-0.210
2020/01/31 21:19:25.5	4.210	0.400	-0.600	-0.210
2020/01/31 21:19:25.6	4.210	0.410	-0.600	-0.200
2020/01/31 21:19:25.7	4.210	0.410	-0.600	-0.200
2020/01/31 21:19:25.8	4.220	0.410	-0.590	-0.200
2020/01/31 21:19:25.9	4.210	0.410	-0.590	-0.200
2020/01/31 21:19:26.0	4.210	0.410	-0.570	-0.200
2020/01/31 21:19:26.1	4.220	0.400	-0.560	-0.210
2020/01/31 21:19:26.2	4.220	0.390	-0.540	-0.210
2020/01/31 21:19:26.3	4.220	0.380	-0.520	-0.230
2020/01/31 21:19:26.4	4.230	0.360	-0.500	-0.240
2020/01/31 21:19:26.5	4.230	0.340	-0.480	-0.260
2020/01/31 21:19:26.6	4.240	0.310	-0.460	-0.280
2020/01/31 21:19:26.7	4.250	0.290	-0.430	-0.300
2020/01/31 21:19:26.8	4.260	0.260	-0.410	-0.320
2020/01/31 21:19:26.9	4.270	0.230	-0.380	-0.350
2020/01/31 21:19:27.0	4.280	0.190	-0.360	-0.370
2020/01/31 21:19:27.1	4.300	0.160	-0.330	-0.400
2020/01/31 21:19:27.2	4.310	0.120	-0.310	-0.430
2020/01/31 21:19:27.3	4.330	0.080	-0.290	-0.460
2020/01/31 21:19:27.4	4.340	0.050	-0.270	-0.490
2020/01/31 21:19:27.5	4.360	0.010	-0.250	-0.520
2020/01/31 21:19:27.6	4.380	-0.030	-0.230	-0.550
2020/01/31 21:19:27.7	4.400	-0.070	-0.210	-0.580
2020/01/31 21:19:27.8	4.430	-0.110	-0.200	-0.610
2020/01/31 21:19:27.9	4.450	-0.150	-0.190	-0.640
2020/01/31 21:19:28.0	4.470	-0.180	-0.180	-0.670
2020/01/31 21:19:28.1	4.490	-0.220	-0.170	-0.700
2020/01/31 21:19:28.2	4.510	-0.250	-0.160	-0.730
2020/01/31 21:19:28.3	4.530	-0.280	-0.150	-0.750
2020/01/31 21:19:28.4	4.550	-0.310	-0.140	-0.770
2020/01/31 21:19:28.5	4.570	-0.340	-0.130	-0.800
2020/01/31 21:19:28.6	4.580	-0.360	-0.130	-0.820
2020/01/31 21:19:28.7	4.600	-0.380	-0.120	-0.830
2020/01/31 21:19:28.8	4.610	-0.400	-0.110	-0.850
2020/01/31 21:19:28.9	4.630	-0.410	-0.100	-0.860
2020/01/31 21:19:29.0	4.640	-0.420	-0.100	-0.870
2020/01/31 21:19:29.1	4.650	-0.430	-0.090	-0.880
2020/01/31 21:19:29.2	4.660	-0.430	-0.080	-0.880
2020/01/31 21:19:29.3	4.660	-0.430	-0.070	-0.880
2020/01/31 21:19:29.4	4.660	-0.430	-0.070	-0.880
2020/01/31 21:19:29.5	4.660	-0.420	-0.060	-0.870
2020/01/31 21:19:29.6	4.660	-0.410	-0.050	-0.860
2020/01/31 21:19:29.7	4.660	-0.400	-0.040	-0.850
2020/01/31 21:19:29.8	4.650	-0.380	-0.040	-0.830
2020/01/31 21:19:29.9	4.640	-0.360	-0.030	-0.800
2020/01/31 21:19:30.0	4.630	-0.340	-0.030	-0.780
2020/01/31 21:19:30.1	4.620	-0.320	-0.020	-0.750
2020/01/31 21:19:30.2	4.610	-0.290	-0.010	-0.720
2020/01/31 21:19:30.3	4.600	-0.260	-0.010	-0.680
2020/01/31 21:19:30.4	4.590	-0.230	0.000	-0.640
2020/01/31 21:19:30.5	4.570	-0.200	0.010	-0.600
2020/01/31 21:19:30.6	4.550	-0.170	0.010	-0.560
2020/01/31 21:19:30.7	4.540	-0.140	0.010	-0.520
2020/01/31 21:19:30.8	4.520	-0.100	0.020	-0.470
2020/01/31 21:19:30.9	4.500	-0.070	0.020	-0.420
2020/01/31 21:19:31.0	4.480	-0.040	0.020	-0.380
2020/01/31 21:19:31.1	4.450	-0.010	0.020	-0.330
2020/01/31 21:19:31.2	4.430	0.020	0.020	-0.280
2020/01/31 21:19:31.3	4.400	0.050	0.010	-0.230
2020/01/31 21:19:31.4	4.370	0.080	0.010	-0.180
2020/01/31 21:19:31.5	4.340	0.100	0.000	-0.140
2020/01/31 21:19:31.6	4.310	0.120	-0.000	-0.090
2020/01/31 21:19:31.7	4.270	0.150	-0.010	-0.050
2020/01/31 21:19:31.8	4.240	0.160	-0.020	-0.010
2020/01/31 21:19:31.9	4.200	0.180	-0.040	0.030
2020/01/31 21:19:32.0	4.170	0.200	-0.050	0.070
2020/01/31 21:19:32.1	4.130	0.210	-0.060	0.100
2020/01/31 21:19:32.2	4.100	0.220	-0.080	0.130
2020/01/31 21:19:32.3	4.070	0.230	-0.100	0.160
2020/01/31 21:19:32.4	4.040	0.230	-0.120	0.180
2020/01/31 21:19:32.5	4.020	0.240	-0.130	0.200
2020/01/31 21:19:32.6	3.990	0.240	-0.150	0.210
2020/01/31 21:19:32.7	3.970	0.240	-0.170	0.220
2020/01/31 21:19:32.8	3.950	0.240	-0.200	0.230
2020/01/31 21:19:32.9	3.930	0.240	-0.210	0.230
2020/01/31 21:19:33.0	3.920	0.240	-0.240	0.230
2020/01/31 21:19:33.1	3.900	0.230	-0.260	0.220
2020/01/31 21:19:33.2	3.890	0.230	-0.280	0.210
2020/01/31 21:19:33.3	3.880	0.220	-0.310	0.200
2020/01/31 21:19:33.4	3.880	0.220	-0.330	0.180
2020/01/31 21:19:33.5	3.880	0.210	-0.360	0.150
2020/01/31 21:19:33.6	3.880	0.200	-0.380	0.130
2020/01/31 21:19:33.7	3.880	0.200	-0.400	0.100
2020/01/31 21:19:33.8	3.890	0.190	-0.420	0.070
2020/01/31 21:19:33.9	3.910	0.190	-0.450	0.030
2020/01/31 21:19:34.0	3.920	0.180	-0.460	-0.000
2020/01/31 21:19:34.1	3.930	0.170	-0.480	-0.040
2020/01/31 21:19:34.2	3.940	0.170	-0.500	-0.070
2020/01/31 21:19:34.3	3.960	0.160	-0.510	-0.110
2020/01/31 21:19:34.4	3.980	0.160	-0.520	-0.140
2020/01/31 21:19:34.5	4.000	0.160	-0.530	-0.180
2020/01/31 21:19:34.6	4.020	0.150	-0.540	-0.210
2020/01/31 21:19:34.7	4.040	0.150	-0.540	-0.240
2020/01/31 21:19:34.8	4.060	0.150	-0.540	-0.280
2020/01/31 21:19:34.9	4.070	0.140	-0.540	-0.310
2020/01/31 21:19:35.0	4.100	0.140	-0.540	-0.340
2020/01/31 21:19:35.1	4.120	0.140	-0.540	-0.370
2020/01/31 21:19:35.2	4.150	0.130	-0.540	-0.400
2020/01/31 21:19:35.3	4.180	0.130	-0.530	-0.430
2020/01/31 21:19:35.4	4.210	0.130	-0.530	-0.460
2020/01/31 21:19:35.5	4.240	0.120	-0.520	-0.490
2020/01/31 21:19:35.6	4.270	0.120	-0.510	-0.520
2020/01/31 21:19:35.7	4.300	0.110	-0.510	-0.550
2020/01/31 21:19:35.8	4.330	0.110	-0.500	-0.580
2020/01/31 21:19:35.9	4.360	0.100	-0.490	-0.610
2020/01/31 21:19:36.0	4.390	0.090	-0.480	-0.640
2020/01/31 21:19:36.1	4.420	0.090	-0.470	-0.660
2020/01/31 21:19:36.2	4.460	0.080	-0.470	-0.690
2020/01/31 21:19:36.3	4.490	0.070	-0.460	-0.720
2020/01/31 21:19:36.4	4.520	0.060	-0.450	-0.740
2020/01/31 21:19:36.5	4.550	0.050	-0.430	-0.760
2020/01/31 21:19:36.6	4.570	0.030	-0.420	-0.780
2020/01/31 21:19:36.7	4.600	0.020	-0.410	-0.790
2020/01/31 21:19:36.8	4.620	0.000	-0.390	-0.810
2020/01/31 21:19:36.9	4.630	-0.010	-0.380	-0.810
2020/01/31 21:19:37.0	4.650	-0.030	-0.360	-0.820
2020/01/31 21:19:37.1	4.670	-0.050	-0.350	-0.830
2020/01/31 21:19:37.2	4.680	-0.060	-0.330	-0.830
2020/01/31 21:19:37.3	4.680	-0.080	-0.310	-0.830
2020/01/31 21:19:37.4	4.690	-0.100	-0.290	-0.830
2020/01/31 21:19:37.5	4.690	-0.120	-0.270	-0.820
2020/01/31 21:19:37.6	4.690	-0.140	-0.240	-0.810
2020/01/31 21:19:37.7	4.680	-0.160	-0.220	-0.790
2020/01/31 21:19:37.8	4.680	-0.180	-0.200	-0.780
2020/01/31 21:19:37.9	4.680	-0.200	-0.170	-0.760
2020/01/31 21:19:38.0	4.670	-0.210	-0.140	-0.730
2020/01/31 21:19:38.1	4.660	-0.230	-0.120	-0.710
2020/01/31 21:19:38.2	4.640	-0.240	-0.090	-0.680
2020/01/31 21:19:38.3	4.630	-0.250	-0.070	-0.650
2020/01/31 21:19:38.4	4.610	-0.260	-0.050	-0.610
2020/01/31 21:19:38.5	4.590	-0.270	-0.020	-0.580
2020/01/31 21:19:38.6	4.570	-0.280	-0.000	-0.540
2020/01/31 21:19:38.7	4.550	-0.280	0.020	-0.500
2020/01/31 21:19:38.8	4.530	-0.290	0.030	-0.470
2020/01/31 21:19:38.9	4.510	-0.290	0.040	-0.420
2020/01/31 21:19:39.0	4.490	-0.280	0.050	-0.390
2020/01/31 21:19:39.1	4.460	-0.280	0.060	-0.350
2020/01/31 21:19:39.2	4.440	-0.270	0.060	-0.310
2020/01/31 21:19:39.3	4.420	-0.260	0.060	-0.270
2020/01/31 21:19:39.4	4.390	-0.250	0.060	-0.230
2020/01/31 21:19:39.5	4.370	-0.240	0.050	-0.190
2020/01/31 21:19:39.6	4.350	-0.220	0.040	-0.160
2020/01/31 21:19:39.7	4.330	-0.200	0.030	-0.120
2020/01/31 21:19:39.8	4.310	-0.180	0.010	-0.090
2020/01/31 21:19:39.9	4.280	-0.160	-0.020	-0.060
2020/01/31 21:19:40.0	4.270	-0.130	-0.040	-0.030
2020/01/31 21:19:40.1	4.250	-0.100	-0.070	-0.010
2020/01/31 21:19:40.2	4.230	-0.080	-0.100	0.020
2020/01/31 21:19:40.3	4.220	-0.050	-0.130	0.040
2020/01/31 21:19:40.4	4.210	-0.020	-0.160	0.060
2020/01/31 21:19:40.5	4.200	0.010	-0.200	0.070
2020/01/31 21:19:40.6	4.190	0.040	-0.230	0.080
2020/01/31 21:19:40.7	4.180	0.070	-0.270	0.090
2020/01/31 21:19:40.8	4.180	0.100	-0.310	0.090
2020/01/31 21:19:40.9	4.190	0.130	-0.340	0.090
2020/01/31 21:19:41.0	4.190	0.160	-0.370	0.080
2020/01/31 21:19:41.1	4.190	0.180	-0.400	0.080
2020/01/31 21:19:41.2	4.200	0.210	-0.430	0.070
2020/01/31 21:19:41.3	4.200	0.230	-0.460	0.050
2020/01/31 21:19:41.4	4.200	0.250	-0.490	0.040
2020/01/31 21:19:41.5	4.210	0.270	-0.510	0.020
2020/01/31 21:19:41.6	4.220	0.280	-0.520	-0.000
2020/01/31 21:19:41.7	4.220	0.300	-0.530	-0.020
2020/01/31 21:19:41.8	4.230	0.310	-0.540	-0.040
2020/01/31 21:19:41.9	4.240	0.310	-0.550	-0.060
2020/01/31 21:19:42.0	4.240	0.320	-0.550	-0.080
2020/01/31 21:19:42.1	4.250	0.320	-0.540	-0.100
2020/01/31 21:19:42.2	4.260	0.320	-0.530	-0.120
2020/01/31 21:19:42.3	4.260	0.310	-0.520	-0.140
2020/01/31 21:19:42.4	4.270	0.300	-0.500	-0.160
2020/01/31 21:19:42.5	4.270	0.290	-0.480	-0.180
2020/01/31 21:19:42.6	4.280	0.280	-0.460	-0.190
2020/01/31 21:19:42.7	4.280	0.260	-0.440	-0.200
2020/01/31 21:19:42.8	4.280	0.240	-0.410	-0.210
2020/01/31 21:19:42.9	4.280	0.220	-0.370	-0.220
2020/01/31 21:19:43.0	4.280	0.190	-0.340	-0.230
2020/01/31 21:19:43.1	4.280	0.170	-0.310	-0.240
2020/01/31 21:19:43.2	4.280	0.140	-0.270	-0.250
2020/01/31 21:19:43.3	4.280	0.110	-0.240	-0.250
2020/01/31 21:19:43.4	4.280	0.080	-0.200	-0.260
2020/01/31 21:19:43.5	4.280	0.040	-0.160	-0.260
2020/01/31 21:19:43.6	4.280	0.010	-0.130	-0.270
2020/01/31 21:19:43.7	4.280	-0.020	-0.090	-0.270
2020/01/31 21:19:43.8	4.280	-0.060	-0.060	-0.280
2020/01/31 21:19:43.9	4.280	-0.090	-0.030	-0.290
2020/01/31 21:19:44.0	4.270	-0.120	0.000	-0.290
2020/01/31 21:19:44.1	4.280	-0.160	0.030	-0.300
2020/01/31 21:19:44.2	4.280	-0.190	0.060	-0.310
2020/01/31 21:19:44.3	4.270	-0.220	0.080	-0.310
2020/01/31 21:19:44.4	4.270	-0.250	0.100	-0.320
2020/01/31 21:19:44.5	4.270	-0.270	0.120	-0.330
2020/01/31 21:19:44.6	4.270	-0.300	0.130	-0.340
2020/01/31 21:19:44.7	4.270	-0.320	0.140	-0.350
2020/01/31 21:19:44.8	4.270	-0.340	0.150	-0.360
2020/01/31 21:19:44.9	4.280	-0.350	0.160	-0.360
2020/01/31 21:19:45.0	4.280	-0.370	0.160	-0.370
2020/01/31 21:19:45.1	4.270	-0.380	0.160	-0.370
2020/01/31 21:19:45.2	4.260	-0.390	0.160	-0.370
2020/01/31 21:19:45.3	4.260	-0.400	0.150	-0.370
2020/01/31 21:19:45.4	4.250	-0.400	0.150	-0.370
2020/01/31 21:19:45.5	4.240	-0.400	0.130	-0.360
2020/01/31 21:19:45.6	4.220	-0.400	0.120	-0.360
2020/01/31 21:19:45.7	4.210	-0.400	0.100	-0.350
2020/01/31 21:19:45.8	4.200	-0.400	0.090	-0.340
2020/01/31 21:19:45.9	4.180	-0.390	0.060	-0.330
2020/01/31 21:19:46.0	4.160	-0.380	0.040	-0.310
2020/01/31 21:19:46.1	4.140	-0.370	0.010	-0.300
2020/01/31 21:19:46.2	4.130	-0.350	-0.020	-0.280
2020/01/31 21:19:46.3	4.110	-0.340	-0.050	-0.270
2020/01/31 21:19:46.4	4.090	-0.320	-0.080	-0.260
2020/01/31 21:19:46.5	4.070	-0.310	-0.110	-0.240
2020/01/31 21:19:46.6	4.060	-0.290	-0.150	-0.230
2020/01/31 21:19:46.7	4.040	-0.270	-0.190	-0.220
2020/01/31 21:19:46.8	4.030	-0.240	-0.230	-0.210
2020/01/31 21:19:46.9	4.010	-0.220	-0.260	-0.200
2020/01/31 21:19:47.0	4.000	-0.200	-0.310	-0.200
2020/01/31 21:19:47.1	3.990	-0.170	-0.350	-0.190
2020/01/31 21:19:47.2	3.990	-0.150	-0.390	-0.190
2020/01/31 21:19:47.3	3.980	-0.120	-0.430	-0.190
2020/01/31 21:19:47.4	3.980	-0.100	-0.470	-0.190
2020/01/31 21:19:47.5	3.990	-0.070	-0.510	-0.190
2020/01/31 21:19:47.6	3.990	-0.040	-0.550	-0.190
2020/01/31 21:19:47.7	4.000	-0.010	-0.590	-0.200
2020/01/31 21:19:47.8	4.020	0.020	-0.630	-0.210
2020/01/31 21:19:47.9	4.040	0.050	-0.670	-0.210
2020/01/31 21:19:48.0	4.060	0.080	-0.700	-0.220
2020/01/31 21:19:48.1	4.080	0.110	-0.730	-0.230
2020/01/31 21:19:48.2	4.110	0.140	-0.770	-0.240
2020/01/31 21:19:48.3	4.140	0.170	-0.800	-0.260
2020/01/31 21:19:48.4	4.180	0.200	-0.820	-0.270
2020/01/31 21:19:48.5	4.220	0.240	-0.850	-0.290
2020/01/31 21:19:48.6	4.260	0.270	-0.870	-0.300
2020/01/31 21:19:48.7	4.300	0.300	-0.890	-0.310
2020/01/31 21:19:48.8	4.340	0.340	-0.900	-0.330
2020/01/31 21:19:48.9	4.380	0.370	-0.910	-0.340
2020/01/31 21:19:49.0	4.420	0.400	-0.920	-0.350
2020/01/31 21:19:49.1	4.460	0.430	-0.920	-0.350
2020/01/31 21:19:49.2	4.500	0.460	-0.910	-0.350
2020/01/31 21:19:49.3	4.530	0.480	-0.900	-0.340
2020/01/31 21:19:49.4	4.560	0.510	-0.880	-0.340
2020/01/31 21:19:49.5	4.590	0.530	-0.860	-0.320
2020/01/31 21:19:49.6	4.600	0.550	-0.830	-0.310
2020/01/31 21:19:49.7	4.620	0.560	-0.790	-0.290
2020/01/31 21:19:49.8	4.630	0.570	-0.750	-0.260
2020/01/31 21:19:49.9	4.620	0.580	-0.710	-0.230
2020/01/31 21:19:50.0	4.620	0.590	-0.650	-0.200
2020/01/31 21:19:50.1	4.610	0.580	-0.590	-0.170
2020/01/31 21:19:50.2	4.600	0.580	-0.530	-0.130
2020/01/31 21:19:50.3	4.580	0.570	-0.470	-0.100
2020/01/31 21:19:50.4	4.560	0.560	-0.400	-0.060
2020/01/31 21:19:50.5	4.540	0.540	-0.330	-0.030
2020/01/31 21:19:50.6	4.510	0.520	-0.260	0.000
2020/01/31 21:19:50.7	4.480	0.490	-0.190	0.030
2020/01/31 21:19:50.8	4.450	0.460	-0.120	0.060
2020/01/31 21:19:50.9	4.410	0.430	-0.050	0.090
2020/01/31 21:19:51.0	4.380	0.390	0.020	0.110
2020/01/31 21:19:51.1	4.340	0.350	0.090	0.130
2020/01/31 21:19:51.2	4.310	0.310	0.150	0.150
2020/01/31 21:19:51.3	4.270	0.260	0.200	0.160
2020/01/31 21:19:51.4	4.240	0.220	0.260	0.170
2020/01/31 21:19:51.5	4.200	0.170	0.300	0.170
2020/01/31 21:19:51.6	4.170	0.120	0.340	0.170
2020/01/31 21:19:51.7	4.140	0.070	0.380	0.170
2020/01/31 21:19:51.8	4.110	0.030	0.410	0.160
2020/01/31 21:19:51.9	4.090	-0.020	0.430	0.140
2020/01/31 21:19:52.0	4.070	-0.070	0.450	0.120
2020/01/31 21:19:52.1	4.050	-0.110	0.460	0.100
2020/01/31 21:19:52.2	4.030	-0.150	0.460	0.080
2020/01/31 21:19:52.3	4.010	-0.190	0.460	0.050
2020/01/31 21:19:52.4	3.990	-0.230	0.450	0.020
2020/01/31 21:19:52.5	3.970	-0.270	0.440	-0.010
2020/01/31 21:19:52.6	3.960	-0.300	0.420	-0.040
2020/01/31 21:19:52.7	3.940	-0.320	0.400	-0.070
2020/01/31 21:19:52.8	3.930	-0.350	0.370	-0.090
2020/01/31 21:19:52.9	3.900	-0.370	0.350	-0.120
2020/01/31 21:19:53.0	3.890	-0.390	0.320	-0.150
2020/01/31 21:19:53.1	3.880	-0.400	0.280	-0.180
2020/01/31 21:19:53.2	3.860	-0.410	0.250	-0.200
2020/01/31 21:19:53.3	3.850	-0.420	0.210	-0.230
2020/01/31 21:19:53.4	3.840	-0.420	0.180	-0.260
2020/01/31 21:19:53.5	3.830	-0.420	0.140	-0.280
2020/01/31 21:19:53.6	3.820	-0.420	0.100	-0.310
2020/01/31 21:19:53.7	3.810	-0.410	0.060	-0.330
2020/01/31 21:19:53.8	3.810	-0.400	0.020	-0.360
2020/01/31 21:19:53.9	3.820	-0.390	-0.020	-0.390
2020/01/31 21:19:54.0	3.820	-0.380	-0.070	-0.420
2020/01/31 21:19:54.1	3.820	-0.370	-0.110	-0.450
2020/01/31 21:19:54.2	3.830	-0.350	-0.160	-0.480
2020/01/31 21:19:54.3	3.830	-0.330	-0.200	-0.510
2020/01/31 21:19:54.4	3.840	-0.310	-0.250	-0.540
2020/01/31 21:19:54.5	3.850	-0.290	-0.300	-0.570
2020/01/31 21:19:54.6	3.870	-0.270	-0.350	-0.600
2020/01/31 21:19:54.7	3.880	-0.240	-0.400	-0.640
2020/01/31 21:19:54.8	3.900	-0.220	-0.450	-0.670
2020/01/31 21:19:54.9	3.910	-0.190	-0.500	-0.700
2020/01/31 21:19:55.0	3.930	-0.170	-0.550	-0.730
2020/01/31 21:19:55.1	3.950	-0.150	-0.600	-0.750
2020/01/31 21:19:55.2	3.980	-0.130	-0.640	-0.780
2020/01/31 21:19:55.3	4.000	-0.100	-0.690	-0.800
2020/01/31 21:19:55.4	4.030	-0.080	-0.730	-0.820
2020/01/31 21:19:55.5	4.050	-0.060	-0.760	-0.830
2020/01/31 21:19:55.6	4.080	-0.050	-0.800	-0.850
2020/01/31 21:19:55.7	4.100	-0.030	-0.820	-0.860
2020/01/31 21:19:55.8	4.120	-0.020	-0.850	-0.870
2020/01/31 21:19:55.9	4.150	-0.010	-0.870	-0.860
2020/01/31 21:19:56.0	4.170	0.000	-0.880	-0.870
2020/01/31 21:19:56.1	4.180	0.010	-0.890	-0.870
2020/01/31 21:19:56.2	4.200	0.020	-0.900	-0.860
2020/01/31 21:19:56.3	4.220	0.020	-0.900	-0.860
2020/01/31 21:19:56.4	4.230	0.020	-0.890	-0.850
2020/01/31 21:19:56.5	4.250	0.020	-0.880	-0.840
2020/01/31 21:19:56.6	4.260	0.020	-0.860	-0.820
2020/01/31 21:19:56.7	4.270	0.010	-0.840	-0.800
2020/01/31 21:19:56.8	4.280	0.010	-0.810	-0.780
2020/01/31 21:19:56.9	4.280	-0.000	-0.780	-0.760
2020/01/31 21:19:57.0	4.290	-0.010	-0.740	-0.740
2020/01/31 21:19:57.1	4.290	-0.020	-0.710	-0.710
2020/01/31 21:19:57.2	4.300	-0.030	-0.660	-0.690
2020/01/31 21:19:57.3	4.310	-0.040	-0.620	-0.660
2020/01/31 21:19:57.4	4.310	-0.050	-0.570	-0.630
2020/01/31 21:19:57.5	4.310	-0.060	-0.520	-0.600
2020/01/31 21:19:57.6	4.320	-0.070	-0.470	-0.560
2020/01/31 21:19:57.7	4.320	-0.080	-0.420	-0.530
2020/01/31 21:19:57.8	4.320	-0.090	-0.360	-0.500
2020/01/31 21:19:57.9	4.320	-0.090	-0.320	-0.470
2020/01/31 21:19:58.0	4.320	-0.100	-0.270	-0.430
2020/01/31 21:19:58.1	4.320	-0.100	-0.210	-0.400
2020/01/31 21:19:58.2	4.320	-0.110	-0.170	-0.370
2020/01/31 21:19:58.3	4.320	-0.110	-0.120	-0.340
2020/01/31 21:19:58.4	4.320	-0.110	-0.070	-0.310
2020/01/31 21:19:58.5	4.310	-0.100	-0.030	-0.280
2020/01/31 21:19:58.6	4.310	-0.100	0.010	-0.250
2020/01/31 21:19:58.7	4.310	-0.090	0.050	-0.220
2020/01/31 21:19:58.8	4.300	-0.080	0.080	-0.190
2020/01/31 21:19:58.9	4.290	-0.070	0.110	-0.160
2020/01/31 21:19:59.0	4.280	-0.060	0.140	-0.130
2020/01/31 21:19:59.1	4.270	-0.040	0.170	-0.110
2020/01/31 21:19:59.2	4.260	-0.030	0.190	-0.080
2020/01/31 21:19:59.3	4.250	-0.010	0.200	-0.060
2020/01/31 21:19:59.4	4.230	0.010	0.220	-0.030
2020/01/31 21:19:59.5	4.220	0.020	0.230	-0.010
2020/01/31 21:19:59.6	4.200	0.040	0.240	0.020
2020/01/31 21:19:59.7	4.180	0.060	0.240	0.040
2020/01/31 21:19:59.8	4.150	0.080	0.250	0.070
2020/01/31 21:19:59.9	4.130	0.100	0.240	0.090
2020/01/31 21:20:00.0	4.100	0.120	0.240	0.110
2020/01/31 21:20:00.1	4.070	0.140	0.230	0.140
2020/01/31 21:20:00.2	4.040	0.160	0.220	0.160
2020/01/31 21:20:00.3	4.010	0.170	0.210	0.180
2020/01/31 21:20:00.4	3.980	0.190	0.200	0.200
2020/01/31 21:20:00.5	3.950	0.200	0.180	0.220
2020/01/31 21:20:00.6	3.910	0.220	0.170	0.240
2020/01/31 21:20:00.7	3.880	0.230	0.140	0.260
2020/01/31 21:20:00.8	3.850	0.240	0.120	0.270
2020/01/31 21:20:00.9	3.810	0.240	0.100	0.280
2020/01/31 21:20:01.0	3.790	0.250	0.070	0.290
2020/01/31 21:20:01.1	3.760	0.250	0.040	0.300
2020/01/31 21:20:01.2	3.730	0.260	0.010	0.300
2020/01/31 21:20:01.3	3.710	0.260	-0.030	0.300
2020/01/31 21:20:01.4	3.690	0.260	-0.060	0.300
2020/01/31 21:20:01.5	3.680	0.250	-0.100	0.300
2020/01/31 21:20:01.6	3.660	0.250	-0.130	0.290
2020/01/31 21:20:01.7	3.650	0.240	-0.170	0.280
2020/01/31 21:20:01.8	3.650	0.240	-0.210	0.270
2020/01/31 21:20:01.9	3.650	0.230	-0.250	0.250
2020/01/31 21:20:02.0	3.650	0.220	-0.290	0.230
2020/01/31 21:20:02.1	3.650	0.210	-0.330	0.210
2020/01/31 21:20:02.2	3.660	0.200	-0.360	0.180
2020/01/31 21:20:02.3	3.670	0.190	-0.400	0.150
2020/01/31 21:20:02.4	3.680	0.180	-0.430	0.120
2020/01/31 21:20:02.5	3.700	0.160	-0.470	0.090
2020/01/31 21:20:02.6	3.720	0.150	-0.500	0.060
2020/01/31 21:20:02.7	3.740	0.140	-0.520	0.020
2020/01/31 21:20:02.8	3.760	0.120	-0.550	-0.020
2020/01/31 21:20:02.9	3.800	0.100	-0.570	-0.060
2020/01/31 21:20:03.0	3.830	0.090	-0.590	-0.100
2020/01/31 21:20:03.1	3.860	0.070	-0.600	-0.140
2020/01/31 21:20:03.2	3.890	0.050	-0.610	-0.190
2020/01/31 21:20:03.3	3.920	0.030	-0.620	-0.230
2020/01/31 21:20:03.4	3.960	0.010	-0.620	-0.280
2020/01/31 21:20:03.5	3.990	-0.010	-0.620	-0.320
2020/01/31 21:20:03.6	4.030	-0.030	-0.610	-0.370
2020/01/31 21:20:03.7	4.060	-0.050	-0.600	-0.410
2020/01/31 21:20:03.8	4.090	-0.070	-0.590	-0.450
2020/01/31 21:20:03.9	4.120	-0.090	-0.580	-0.500
2020/01/31 21:20:04.0	4.150	-0.110	-0.560	-0.530
2020/01/31 21:20:04.1	4.170	-0.130	-0.530	-0.560
2020/01/31 21:20:04.2	4.190	-0.150	-0.510	-0.590
2020/01/31 21:20:04.3	4.210	-0.170	-0.480	-0.610
2020/01/31 21:20:04.4	4.220	-0.190	-0.450	-0.630
2020/01/31 21:20:04.5	4.230	-0.210	-0.420	-0.650
2020/01/31 21:20:04.6	4.240	-0.230	-0.380	-0.660
2020/01/31 21:20:04.7	4.250	-0.250	-0.350	-0.670
2020/01/31 21:20:04.8	4.250	-0.270	-0.310	-0.680
2020/01/31 21:20:04.9	4.260	-0.280	-0.280	-0.680
2020/01/31 21:20:05.0	4.260	-0.290	-0.250	-0.680
2020/01/31 21:20:05.1	4.250	-0.310	-0.220	-0.670
2020/01/31 21:20:05.2	4.250	-0.320	-0.190	-0.670
2020/01/31 21:20:05.3	4.250	-0.320	-0.160	-0.670
2020/01/31 21:20:05.4	4.250	-0.330	-0.140	-0.660
2020/01/31 21:20:05.5	4.240	-0.330	-0.120	-0.660
2020/01/31 21:20:05.6	4.240	-0.330	-0.110	-0.650
2020/01/31 21:20:05.7	4.240	-0.330	-0.100	-0.650
2020/01/31 21:20:05.8	4.240	-0.330	-0.100	-0.650
2020/01/31 21:20:05.9	4.240	-0.320	-0.100	-0.650
2020/01/31 21:20:06.0	4.250	-0.310	-0.110	-0.650
2020/01/31 21:20:06.1	4.250	-0.300	-0.120	-0.650
2020/01/31 21:20:06.2	4.250	-0.280	-0.140	-0.660
2020/01/31 21:20:06.3	4.260	-0.260	-0.160	-0.660
2020/01/31 21:20:06.4	4.270	-0.230	-0.180	-0.670
2020/01/31 21:20:06.5	4.280	-0.210	-0.210	-0.680
2020/01/31 21:20:06.6	4.290	-0.180	-0.240	-0.680
2020/01/31 21:20:06.7	4.300	-0.150	-0.280	-0.690
2020/01/31 21:20:06.8	4.310	-0.110	-0.310	-0.690
2020/01/31 21:20:06.9	4.320	-0.080	-0.350	-0.700
2020/01/31 21:20:07.0	4.330	-0.040	-0.390	-0.700
2020/01/31 21:20:07.1	4.350	-0.000	-0.420	-0.700
2020/01/31 21:20:07.2	4.360	0.040	-0.460	-0.700
2020/01/31 21:20:07.3	4.370	0.070	-0.490	-0.700
2020/01/31 21:20:07.4	4.380	0.110	-0.510	-0.690
2020/01/31 21:20:07.5	4.390	0.150	-0.530	-0.690
2020/01/31 21:20:07.6	4.390	0.190	-0.550	-0.680
2020/01/31 21:20:07.7	4.400	0.230	-0.560	-0.670
2020/01/31 21:20:07.8	4.400	0.260	-0.570	-0.660
2020/01/31 21:20:07.9	4.400	0.290	-0.570	-0.640
2020/01/31 21:20:08.0	4.400	0.320	-0.570	-0.630
2020/01/31 21:20:08.1	4.390	0.350	-0.560	-0.610
2020/01/31 21:20:08.2	4.380	0.380	-0.540	-0.590
2020/01/31 21:20:08.3	4.380	0.400	-0.520	-0.570
2020/01/31 21:20:08.4	4.360	0.420	-0.490	-0.550
2020/01/31 21:20:08.5	4.350	0.430	-0.460	-0.520
2020/01/31 21:20:08.6	4.340	0.440	-0.430	-0.500
2020/01/31 21:20:08.7	4.320	0.450	-0.390	-0.480
2020/01/31 21:20:08.8	4.300	0.450	-0.350	-0.450
2020/01/31 21:20:08.9	4.280	0.450	-0.310	-0.430
2020/01/31 21:20:09.0	4.260	0.450	-0.260	-0.400
2020/01/31 21:20:09.1	4.240	0.440	-0.220	-0.380
2020/01/31 21:20:09.2	4.210	0.430	-0.170	-0.350
2020/01/31 21:20:09.3	4.190	0.420	-0.130	-0.330
2020/01/31 21:20:09.4	4.170	0.400	-0.080	-0.300
2020/01/31 21:20:09.5	4.140	0.380	-0.040	-0.280
2020/01/31 21:20:09.6	4.120	0.360	0.000	-0.260
2020/01/31 21:20:09.7	4.100	0.330	0.040	-0.230
2020/01/31 21:20:09.8	4.070	0.310	0.080	-0.210
2020/01/31 21:20:09.9	4.060	0.280	0.110	-0.200
2020/01/31 21:20:10.0	4.040	0.250	0.140	-0.180
2020/01/31 21:20:10.1	4.020	0.220	0.160	-0.160
2020/01/31 21:20:10.2	4.000	0.190	0.180	-0.150
2020/01/31 21:20:10.3	3.980	0.160	0.200	-0.140
2020/01/31 21:20:10.4	3.960	0.120	0.210	-0.130
2020/01/31 21:20:10.5	3.940	0.090	0.220	-0.120
2020/01/31 21:20:10.6	3.930	0.060	0.220	-0.120
2020/01/31 21:20:10.7	3.910	0.030	0.220	-0.110
2020/01/31 21:20:10.8	3.900	-0.000	0.220	-0.110
2020/01/31 21:20:10.9	3.890	-0.030	0.210	-0.110
2020/01/31 21:20:11.0	3.870	-0.060	0.200	-0.110
2020/01/31 21:20:11.1	3.860	-0.080	0.180	-0.120
2020/01/31 21:20:11.2	3.850	-0.110	0.160	-0.130
2020/01/31 21:20:11.3	3.840	-0.130	0.140	-0.130
2020/01/31 21:20:11.4	3.830	-0.150	0.120	-0.140
2020/01/31 21:20:11.5	3.820	-0.170	0.100	-0.150
2020/01/31 21:20:11.6	3.810	-0.190	0.080	-0.160
2020/01/31 21:20:11.7	3.800	-0.210	0.050	-0.170
2020/01/31 21:20:11.8	3.790	-0.220	0.030	-0.180
2020/01/31 21:20:11.9	3.790	-0.230	-0.000	-0.190
2020/01/31 21:20:12.0	3.780	-0.230	-0.030	-0.190
2020/01/31 21:20:12.1	3.770	-0.240	-0.060	-0.200
2020/01/31 21:20:12.2	3.770	-0.240	-0.080	-0.210
2020/01/31 21:20:12.3	3.760	-0.240	-0.110	-0.210
2020/01/31 21:20:12.4	3.760	-0.240	-0.140	-0.220
2020/01/31 21:20:12.5	3.760	-0.230	-0.170	-0.230
2020/01/31 21:20:12.6	3.760	-0.230	-0.200	-0.230
2020/01/31 21:20:12.7	3.760	-0.220	-0.230	-0.240
2020/01/31 21:20:12.8	3.770	-0.210	-0.260	-0.240
2020/01/31 21:20:12.9	3.780	-0.190	-0.290	-0.250
2020/01/31 21:20:13.0	3.790	-0.180	-0.320	-0.260
2020/01/31 21:20:13.1	3.800	-0.160	-0.350	-0.260
2020/01/31 21:20:13.2	3.810	-0.150	-0.380	-0.270
2020/01/31 21:20:13.3	3.830	-0.130	-0.410	-0.280
2020/01/31 21:20:13.4	3.840	-0.110	-0.440	-0.300
2020/01/31 21:20:13.5	3.860	-0.090	-0.470	-0.310
2020/01/31 21:20:13.6	3.880	-0.070	-0.500	-0.320
2020/01/31 21:20:13.7	3.900	-0.050	-0.530	-0.340
2020/01/31 21:20:13.8	3.920	-0.030	-0.560	-0.360
2020/01/31 21:20:13.9	3.930	-0.010	-0.590	-0.380
2020/01/31 21:20:14.0	3.960	0.000	-0.620	-0.400
2020/01/31 21:20:14.1	3.980	0.020	-0.650	-0.420
2020/01/31 21:20:14.2	4.000	0.040	-0.670	-0.450
2020/01/31 21:20:14.3	4.020	0.050	-0.700	-0.470
2020/01/31 21:20:14.4	4.040	0.060	-0.720	-0.500
2020/01/31 21:20:14.5	4.060	0.070	-0.740	-0.540
2020/01/31 21:20:14.6	4.090	0.080	-0.760	-0.570
2020/01/31 21:20:14.7	4.110	0.090	-0.770	-0.600
2020/01/31 21:20:14.8	4.130	0.090	-0.790	-0.640
2020/01/31 21:20:14.9	4.150	0.090	-0.800	-0.670
2020/01/31 21:20:15.0	4.180	0.090	-0.800	-0.710
2020/01/31 21:20:15.1	4.200	0.080	-0.810	-0.740
2020/01/31 21:20:15.2	4.220	0.080	-0.810	-0.780
2020/01/31 21:20:15.3	4.240	0.070	-0.810	-0.810
2020/01/31 21:20:15.4	4.270	0.060	-0.810	-0.840
2020/01/31 21:20:15.5	4.290	0.050	-0.800	-0.870
2020/01/31 21:20:15.6	4.310	0.030	-0.790	-0.900
2020/01/31 21:20:15.7	4.330	0.010	-0.780	-0.920
2020/01/31 21:20:15.8	4.350	-0.000	-0.760	-0.950
2020/01/31 21:20:15.9	4.370	-0.030	-0.740	-0.970
2020/01/31 21:20:16.0	4.390	-0.050	-0.720	-0.990
2020/01/31 21:20:16.1	4.410	-0.070	-0.690	-1.000
2020/01/31 21:20:16.2	4.430	-0.100	-0.660	-1.020
2020/01/31 21:20:16.3	4.450	-0.120	-0.630	-1.030
2020/01/31 21:20:16.4	4.470	-0.150	-0.590	-1.040
2020/01/31 21:20:16.5	4.490	-0.180	-0.550	-1.050
2020/01/31 21:20:16.6	4.510	-0.200	-0.510	-1.060
2020/01/31 21:20:16.7	4.530	-0.230	-0.470	-1.070
2020/01/31 21:20:16.8	4.550	-0.260	-0.430	-1.070
2020/01/31 21:20:16.9	4.570	-0.280	-0.380	-1.080
2020/01/31 21:20:17.0	4.590	-0.310	-0.330	-1.080
2020/01/31 21:20:17.1	4.610	-0.330	-0.280	-1.080
2020/01/31 21:20:17.2	4.630	-0.350	-0.230	-1.080
2020/01/31 21:20:17.3	4.650	-0.370	-0.180	-1.070
2020/01/31 21:20:17.4	4.660	-0.390	-0.130	-1.060
2020/01/31 21:20:17.5	4.680	-0.410	-0.080	-1.050
2020/01/31 21:20:17.6	4.690	-0.420	-0.030	-1.040
2020/01/31 21:20:17.7	4.700	-0.430	0.020	-1.020
2020/01/31 21:20:17.8	4.710	-0.440	0.070	-0.990
2020/01/31 21:20:17.9	4.720	-0.440	0.120	-0.960
2020/01/31 21:20:18.0	4.720	-0.440	0.160	-0.920
2020/01/31 21:20:18.1	4.720	-0.440	0.210	-0.870
2020/01/31 21:20:18.2	4.710	-0.430	0.260	-0.820
2020/01/31 21:20:18.3	4.710	-0.430	0.310	-0.770
2020/01/31 21:20:18.4	4.690	-0.410	0.360	-0.700
2020/01/31 21:20:18.5	4.670	-0.400	0.400	-0.640
2020/01/31 21:20:18.6	4.650	-0.380	0.440	-0.560
2020/01/31 21:20:18.7	4.620	-0.360	0.490	-0.490
2020/01/31 21:20:18.8	4.580	-0.340	0.530	-0.410
2020/01/31 21:20:18.9	4.530	-0.310	0.560	-0.320
2020/01/31 21:20:19.0	4.490	-0.290	0.600	-0.230
2020/01/31 21:20:19.1	4.440	-0.260	0.630	-0.140
2020/01/31 21:20:19.2	4.380	-0.220	0.660	-0.050
2020/01/31 21:20:19.3	4.320	-0.190	0.680	0.040
2020/01/31 21:20:19.4	4.260	-0.160	0.700	0.140
2020/01/31 21:20:19.5	4.190	-0.120	0.720	0.230
2020/01/31 21:20:19.6	4.120	-0.080	0.730	0.330
2020/01/31 21:20:19.7	4.050	-0.040	0.740	0.420
2020/01/31 21:20:19.8	3.970	-0.000	0.740	0.520
2020/01/31 21:20:19.9	3.900	0.040	0.730	0.610
2020/01/31 21:20:20.0	3.820	0.080	0.720	0.700
2020/01/31 21:20:20.1	3.740	0.120	0.710	0.780
2020/01/31 21:20:20.2	3.660	0.160	0.680	0.860
2020/01/31 21:20:20.3	3.590	0.200	0.650	0.930
2020/01/31 21:20:20.4	3.510	0.240	0.620	1.000
2020/01/31 21:20:20.5	3.440	0.290	0.570	1.060
2020/01/31 21:20:20.6	3.370	0.330	0.520	1.120
2020/01/31 21:20:20.7	3.310	0.370	0.460	1.160
2020/01/31 21:20:20.8	3.250	0.410	0.400	1.210
2020/01/31 21:20:20.9	3.200	0.450	0.320	1.230
2020/01/31 21:20:21.0	3.150	0.490	0.250	1.260
2020/01/31 21:20:21.1	3.100	0.530	0.160	1.280
2020/01/31 21:20:21.2	3.060	0.570	0.070	1.290
2020/01/31 21:20:21.3	3.030	0.610	-0.020	1.290
2020/01/31 21:20:21.4	3.010	0.650	-0.120	1.280
2020/01/31 21:20:21.5	2.990	0.680	-0.230	1.270
2020/01/31 21:20:21.6	2.980	0.720	-0.330	1.250
2020/01/31 21:20:21.7	2.980	0.750	-0.440	1.220
2020/01/31 21:20:21.8	2.980	0.780	-0.550	1.170
2020/01/31 21:20:21.9	2.990	0.810	-0.660	1.130
2020/01/31 21:20:22.0	3.000	0.830	-0.780	1.070
2020/01/31 21:20:22.1	3.020	0.850	-0.880	1.010
2020/01/31 21:20:22.2	3.050	0.870	-0.990	0.930
2020/01/31 21:20:22.3	3.080	0.890	-1.090	0.850
2020/01/31 21:20:22.4	3.120	0.900	-1.190	0.770
2020/01/31 21:20:22.5	3.160	0.910	-1.280	0.670
2020/01/31 21:20:22.6	3.210	0.910	-1.370	0.570
2020/01/31 21:20:22.7	3.260	0.910	-1.450	0.470
2020/01/31 21:20:22.8	3.310	0.900	-1.520	0.360
2020/01/31 21:20:22.9	3.370	0.890	-1.580	0.250
2020/01/31 21:20:23.0	3.420	0.870	-1.630	0.140
2020/01/31 21:20:23.1	3.480	0.850	-1.670	0.030
2020/01/31 21:20:23.2	3.530	0.820	-1.700	-0.080
2020/01/31 21:20:23.3	3.590	0.790	-1.720	-0.190
2020/01/31 21:20:23.4	3.640	0.750	-1.730	-0.300
2020/01/31 21:20:23.5	3.690	0.700	-1.730	-0.400
2020/01/31 21:20:23.6	3.740	0.650	-1.710	-0.500
2020/01/31 21:20:23.7	3.790	0.600	-1.690	-0.600
2020/01/31 21:20:23.8	3.830	0.540	-1.650	-0.690
2020/01/31 21:20:23.9	3.870	0.470	-1.620	-0.780
2020/01/31 21:20:24.0	3.910	0.410	-1.560	-0.870
2020/01/31 21:20:24.1	3.940	0.330	-1.500	-0.940
2020/01/31 21:20:24.2	3.980	0.260	-1.430	-1.020
2020/01/31 21:20:24.3	4.010	0.180	-1.350	-1.080
2020/01/31 21:20:24.4	4.030	0.100	-1.260	-1.140
2020/01/31 21:20:24.5	4.060	0.010	-1.170	-1.200
2020/01/31 21:20:24.6	4.080	-0.070	-1.070	-1.250
2020/01/31 21:20:24.7	4.100	-0.160	-0.970	-1.290
2020/01/31 21:20:24.8	4.120	-0.240	-0.870	-1.330
2020/01/31 21:20:24.9	4.130	-0.330	-0.760	-1.360
2020/01/31 21:20:25.0	4.140	-0.410	-0.650	-1.390
2020/01/31 21:20:25.1	4.150	-0.490	-0.540	-1.410
2020/01/31 21:20:25.2	4.160	-0.570	-0.440	-1.430
2020/01/31 21:20:25.3	4.170	-0.650	-0.340	-1.450
2020/01/31 21:20:25.4	4.180	-0.730	-0.230	-1.460
2020/01/31 21:20:25.5	4.190	-0.800	-0.130	-1.470
2020/01/31 21:20:25.6	4.190	-0.860	-0.040	-1.480
2020/01/31 21:20:25.7	4.200	-0.930	0.050	-1.480
2020/01/31 21:20:25.8	4.200	-0.980	0.140	-1.490
2020/01/31 21:20:25.9	4.220	-1.030	0.220	-1.480
2020/01/31 21:20:26.0	4.220	-1.070	0.290	-1.480
2020/01/31 21:20:26.1	4.230	-1.110	0.360	-1.470
2020/01/31 21:20:26.2	4.230	-1.140	0.430	-1.460
2020/01/31 21:20:26.3	4.230	-1.160	0.490	-1.440
2020/01/31 21:20:26.4	4.230	-1.180	0.550	-1.420
2020/01/31 21:20:26.5	4.230	-1.180	0.600	-1.400
2020/01/31 21:20:26.6	4.230	-1.180	0.640	-1.370
2020/01/31 21:20:26.7	4.220	-1.170	0.680	-1.330
2020/01/31 21:20:26.8	4.220	-1.160	0.710	-1.300
2020/01/31 21:20:26.9	4.220	-1.140	0.730	-1.260
2020/01/31 21:20:27.0	4.220	-1.110	0.750	-1.210
2020/01/31 21:20:27.1	4.210	-1.080	0.770	-1.170
2020/01/31 21:20:27.2	4.200	-1.040	0.780	-1.120
2020/01/31 21:20:27.3	4.190	-0.990	0.780	-1.070
2020/01/31 21:20:27.4	4.180	-0.940	0.770	-1.020
2020/01/31 21:20:27.5	4.170	-0.890	0.770	-0.970
2020/01/31 21:20:27.6	4.150	-0.830	0.750	-0.920
2020/01/31 21:20:27.7	4.140	-0.770	0.730	-0.880
2020/01/31 21:20:27.8	4.130	-0.710	0.710	-0.830
2020/01/31 21:20:27.9	4.110	-0.640	0.680	-0.780
2020/01/31 21:20:28.0	4.100	-0.580	0.650	-0.740
2020/01/31 21:20:28.1	4.080	-0.510	0.610	-0.700
2020/01/31 21:20:28.2	4.070	-0.440	0.570	-0.660
2020/01/31 21:20:28.3	4.060	-0.370	0.530	-0.620
2020/01/31 21:20:28.4	4.050	-0.300	0.480	-0.580
2020/01/31 21:20:28.5	4.040	-0.230	0.430	-0.550
2020/01/31 21:20:28.6	4.020	-0.170	0.380	-0.520
2020/01/31 21:20:28.7	4.010	-0.100	0.320	-0.480
2020/01/31 21:20:28.8	4.000	-0.030	0.270	-0.450
2020/01/31 21:20:28.9	4.000	0.030	0.210	-0.420
2020/01/31 21:20:29.0	3.980	0.090	0.160	-0.390
2020/01/31 21:20:29.1	3.970	0.150	0.100	-0.360
2020/01/31 21:20:29.2	3.960	0.200	0.040	-0.330
2020/01/31 21:20:29.3	3.950	0.250	-0.020	-0.300
2020/01/31 21:20:29.4	3.940	0.300	-0.070	-0.260
2020/01/31 21:20:29.5	3.930	0.350	-0.120	-0.230
2020/01/31 21:20:29.6	3.920	0.390	-0.170	-0.200
2020/01/31 21:20:29.7	3.900	0.430	-0.220	-0.160
2020/01/31 21:20:29.8	3.890	0.470	-0.270	-0.120
2020/01/31 21:20:29.9	3.870	0.510	-0.310	-0.080
2020/01/31 21:20:30.0	3.860	0.540	-0.340	-0.040
2020/01/31 21:20:30.1	3.830	0.560	-0.370	0.000
2020/01/31 21:20:30.2	3.810	0.590	-0.400	0.050
2020/01/31 21:20:30.3	3.780	0.610	-0.420	0.090
2020/01/31 21:20:30.4	3.760	0.620	-0.440	0.140
2020/01/31 21:20:30.5	3.720	0.640	-0.450	0.180
2020/01/31 21:20:30.6	3.690	0.650	-0.460	0.230
2020/01/31 21:20:30.7	3.660	0.650	-0.460	0.270
2020/01/31 21:20:30.8	3.630	0.660	-0.460	0.320
2020/01/31 21:20:30.9	3.590	0.660	-0.450	0.360
2020/01/31 21:20:31.0	3.560	0.660	-0.440	0.400
2020/01/31 21:20:31.1	3.520	0.660	-0.430	0.440
2020/01/31 21:20:31.2	3.480	0.660	-0.420	0.470
2020/01/31 21:20:31.3	3.440	0.660	-0.400	0.510
2020/01/31 21:20:31.4	3.410	0.650	-0.380	0.540
2020/01/31 21:20:31.5	3.370	0.640	-0.370	0.570
2020/01/31 21:20:31.6	3.340	0.640	-0.350	0.600
2020/01/31 21:20:31.7	3.300	0.630	-0.330	0.630
2020/01/31 21:20:31.8	3.270	0.620	-0.310	0.650
2020/01/31 21:20:31.9	3.250	0.610	-0.300	0.660
2020/01/31 21:20:32.0	3.230	0.600	-0.290	0.680
2020/01/31 21:20:32.1	3.200	0.590	-0.280	0.680
2020/01/31 21:20:32.2	3.180	0.580	-0.270	0.690
2020/01/31 21:20:32.3	3.170	0.570	-0.270	0.680
2020/01/31 21:20:32.4	3.160	0.560	-0.270	0.680
2020/01/31 21:20:32.5	3.160	0.550	-0.270	0.660
2020/01/31 21:20:32.6	3.160	0.540	-0.280	0.640
2020/01/31 21:20:32.7	3.160	0.530	-0.300	0.610
2020/01/31 21:20:32.8	3.170	0.520	-0.310	0.580
2020/01/31 21:20:32.9	3.190	0.510	-0.340	0.540
2020/01/31 21:20:33.0	3.210	0.500	-0.360	0.490
2020/01/31 21:20:33.1	3.230	0.490	-0.390	0.440
2020/01/31 21:20:33.2	3.260	0.480	-0.420	0.380
2020/01/31 21:20:33.3	3.290	0.460	-0.450	0.320
2020/01/31 21:20:33.4	3.320	0.450	-0.480	0.250
2020/01/31 21:20:33.5	3.360	0.430	-0.520	0.180
2020/01/31 21:20:33.6	3.400	0.410	-0.550	0.110
2020/01/31 21:20:33.7	3.440	0.390	-0.590	0.030
2020/01/31 21:20:33.8	3.480	0.370	-0.620	-0.050
2020/01/31 21:20:33.9	3.510	0.350	-0.660	-0.140
2020/01/31 21:20:34.0	3.560	0.320	-0.690	-0.230
2020/01/31 21:20:34.1	3.600	0.290	-0.720	-0.320
2020/01/31 21:20:34.2	3.640	0.260	-0.750	-0.400
2020/01/31 21:20:34.3	3.690	0.230	-0.770	-0.490
2020/01/31 21:20:34.4	3.730	0.190	-0.790	-0.580
2020/01/31 21:20:34.5	3.770	0.150	-0.810	-0.660
2020/01/31 21:20:34.6	3.810	0.110	-0.820	-0.740
2020/01/31 21:20:34.7	3.850	0.070	-0.830	-0.820
2020/01/31 21:20:34.8	3.890	0.030	-0.840	-0.900
2020/01/31 21:20:34.9	3.930	-0.020	-0.840	-0.980
2020/01/31 21:20:35.0	3.970	-0.060	-0.840	-1.050
2020/01/31 21:20:35.1	4.000	-0.110	-0.840	-1.120
2020/01/31 21:20:35.2	4.030	-0.160	-0.820	-1.180
2020/01/31 21:20:35.3	4.060	-0.210	-0.810	-1.240
2020/01/31 21:20:35.4	4.090	-0.250	-0.790	-1.290
2020/01/31 21:20:35.5	4.120	-0.300	-0.770	-1.340
2020/01/31 21:20:35.6	4.140	-0.350	-0.740	-1.380
2020/01/31 21:20:35.7	4.170	-0.400	-0.720	-1.410
2020/01/31 21:20:35.8	4.190	-0.440	-0.690	-1.440
2020/01/31 21:20:35.9	4.200	-0.480	-0.650	-1.460
2020/01/31 21:20:36.0	4.210	-0.530	-0.620	-1.480
2020/01/31 21:20:36.1	4.230	-0.560	-0.580	-1.490
2020/01/31 21:20:36.2	4.240	-0.600	-0.540	-1.490
2020/01/31 21:20:36.3	4.250	-0.630	-0.500	-1.490
2020/01/31 21:20:36.4	4.260	-0.660	-0.460	-1.490
2020/01/31 21:20:36.5	4.270	-0.690	-0.410	-1.480
2020/01/31 21:20:36.6	4.270	-0.710	-0.370	-1.460
2020/01/31 21:20:36.7	4.270	-0.730	-0.330	-1.450
2020/01/31 21:20:36.8	4.280	-0.750	-0.290	-1.420
2020/01/31 21:20:36.9	4.270	-0.760	-0.250	-1.400
2020/01/31 21:20:37.0	4.270	-0.770	-0.200	-1.370
2020/01/31 21:20:37.1	4.260	-0.770	-0.160	-1.340
2020/01/31 21:20:37.2	4.260	-0.770	-0.120	-1.310
2020/01/31 21:20:37.3	4.260	-0.770	-0.080	-1.280
2020/01/31 21:20:37.4	4.250	-0.760	-0.050	-1.240
2020/01/31 21:20:37.5	4.240	-0.740	-0.010	-1.200
2020/01/31 21:20:37.6	4.240	-0.720	0.020	-1.160
2020/01/31 21:20:37.7	4.230	-0.700	0.050	-1.120
2020/01/31 21:20:37.8	4.230	-0.680	0.080	-1.080
2020/01/31 21:20:37.9	4.220	-0.650	0.100	-1.040
2020/01/31 21:20:38.0	4.210	-0.620	0.120	-0.990
2020/01/31 21:20:38.1	4.200	-0.580	0.140	-0.950
2020/01/31 21:20:38.2	4.200	-0.540	0.160	-0.910
2020/01/31 21:20:38.3	4.190	-0.500	0.180	-0.860
2020/01/31 21:20:38.4	4.190	-0.460	0.190	-0.820
2020/01/31 21:20:38.5	4.180	-0.410	0.200	-0.770
2020/01/31 21:20:38.6	4.180	-0.370	0.210	-0.720
2020/01/31 21:20:38.7	4.170	-0.320	0.220	-0.670
2020/01/31 21:20:38.8	4.170	-0.270	0.220	-0.620
2020/01/31 21:20:38.9	4.160	-0.220	0.230	-0.570
2020/01/31 21:20:39.0	4.150	-0.170	0.230	-0.520
2020/01/31 21:20:39.1	4.140	-0.120	0.240	-0.470
2020/01/31 21:20:39.2	4.140	-0.070	0.240	-0.410
2020/01/31 21:20:39.3	4.130	-0.020	0.240	-0.360
2020/01/31 21:20:39.4	4.120	0.030	0.250	-0.300
2020/01/31 21:20:39.5	4.120	0.080	0.250	-0.240
2020/01/31 21:20:39.6	4.110	0.120	0.250	-0.180
2020/01/31 21:20:39.7	4.100	0.170	0.250	-0.120
2020/01/31 21:20:39.8	4.080	0.210	0.260	-0.060
2020/01/31 21:20:39.9	4.060	0.250	0.260	0.010
2020/01/31 21:20:40.0	4.050	0.280	0.260	0.070
2020/01/31 21:20:40.1	4.030	0.320	0.270	0.130
2020/01/31 21:20:40.2	4.010	0.350	0.270	0.180
2020/01/31 21:20:40.3	4.000	0.380	0.270	0.240
2020/01/31 21:20:40.4	3.980	0.400	0.280	0.300
2020/01/31 21:20:40.5	3.960	0.420	0.280	0.350
2020/01/31 21:20:40.6	3.930	0.440	0.280	0.390
2020/01/31 21:20:40.7	3.910	0.460	0.270	0.440
2020/01/31 21:20:40.8	3.890	0.470	0.270	0.480
2020/01/31 21:20:40.9	3.870	0.480	0.260	0.510
2020/01/31 21:20:41.0	3.850	0.490	0.250	0.550
2020/01/31 21:20:41.1	3.830	0.490	0.230	0.570
2020/01/31 21:20:41.2	3.810	0.500	0.210	0.590
2020/01/31 21:20:41.3	3.790	0.500	0.190	0.610
2020/01/31 21:20:41.4	3.770	0.490	0.160	0.610
2020/01/31 21:20:41.5	3.750	0.490	0.120	0.620
2020/01/31 21:20:41.6	3.740	0.480	0.080	0.620
2020/01/31 21:20:41.7	3.730	0.470	0.040	0.610
2020/01/31 21:20:41.8	3.720	0.460	-0.010	0.590
2020/01/31 21:20:41.9	3.720	0.450	-0.070	0.580
2020/01/31 21:20:42.0	3.710	0.440	-0.130	0.560
2020/01/31 21:20:42.1	3.710	0.430	-0.190	0.530
2020/01/31 21:20:42.2	3.710	0.410	-0.260	0.490
2020/01/31 21:20:42.3	3.710	0.400	-0.330	0.450
2020/01/31 21:20:42.4	3.720	0.380	-0.410	0.410
2020/01/31 21:20:42.5	3.720	0.360	-0.490	0.360
2020/01/31 21:20:42.6	3.730	0.340	-0.570	0.300
2020/01/31 21:20:42.7	3.750	0.330	-0.650	0.240
2020/01/31 21:20:42.8	3.760	0.310	-0.730	0.180
2020/01/31 21:20:42.9	3.800	0.290	-0.810	0.110
2020/01/31 21:20:43.0	3.820	0.270	-0.890	0.040
2020/01/31 21:20:43.1	3.840	0.260	-0.970	-0.030
2020/01/31 21:20:43.2	3.860	0.240	-1.040	-0.110
2020/01/31 21:20:43.3	3.890	0.220	-1.110	-0.180
2020/01/31 21:20:43.4	3.910	0.210	-1.180	-0.260
2020/01/31 21:20:43.5	3.940	0.190	-1.240	-0.340
2020/01/31 21:20:43.6	3.970	0.180	-1.300	-0.410
2020/01/31 21:20:43.7	4.000	0.170	-1.350	-0.490
2020/01/31 21:20:43.8	4.030	0.150	-1.390	-0.560
2020/01/31 21:20:43.9	4.060	0.140	-1.430	-0.640
2020/01/31 21:20:44.0	4.090	0.130	-1.460	-0.710
2020/01/31 21:20:44.1	4.130	0.120	-1.470	-0.770
2020/01/31 21:20:44.2	4.160	0.110	-1.480	-0.840
2020/01/31 21:20:44.3	4.190	0.100	-1.480	-0.890
2020/01/31 21:20:44.4	4.220	0.090	-1.470	-0.950
2020/01/31 21:20:44.5	4.250	0.080	-1.450	-0.990
2020/01/31 21:20:44.6	4.270	0.070	-1.420	-1.040
2020/01/31 21:20:44.7	4.300	0.060	-1.380	-1.080
2020/01/31 21:20:44.8	4.330	0.060	-1.320	-1.110
2020/01/31 21:20:44.9	4.330	0.050	-1.260	-1.140
2020/01/31 21:20:45.0	4.350	0.040	-1.200	-1.160
2020/01/31 21:20:45.1	4.370	0.040	-1.120	-1.170
2020/01/31 21:20:45.2	4.390	0.030	-1.030	-1.180
2020/01/31 21:20:45.3	4.410	0.020	-0.940	-1.190
2020/01/31 21:20:45.4	4.420	0.010	-0.840	-1.190
2020/01/31 21:20:45.5	4.430	0.000	-0.740	-1.180
2020/01/31 21:20:45.6	4.440	-0.010	-0.630	-1.170
2020/01/31 21:20:45.7	4.450	-0.010	-0.520	-1.150
2020/01/31 21:20:45.8	4.450	-0.030	-0.400	-1.140
2020/01/31 21:20:45.9	4.460	-0.040	-0.290	-1.110
2020/01/31 21:20:46.0	4.460	-0.050	-0.180	-1.080
2020/01/31 21:20:46.1	4.460	-0.060	-0.060	-1.050
2020/01/31 21:20:46.2	4.460	-0.080	0.060	-1.020
2020/01/31 21:20:46.3	4.460	-0.090	0.170	-0.980
2020/01/31 21:20:46.4	4.460	-0.110	0.290	-0.940
2020/01/31 21:20:46.5	4.460	-0.130	0.390	-0.900
2020/01/31 21:20:46.6	4.460	-0.140	0.490	-0.860
2020/01/31 21:20:46.7	4.460	-0.160	0.590	-0.820
2020/01/31 21:20:46.8	4.460	-0.180	0.680	-0.770
2020/01/31 21:20:46.9	4.460	-0.200	0.760	-0.720
2020/01/31 21:20:47.0	4.460	-0.220	0.840	-0.680
2020/01/31 21:20:47.1	4.460	-0.240	0.910	-0.630
2020/01/31 21:20:47.2	4.460	-0.260	0.960	-0.580
2020/01/31 21:20:47.3	4.460	-0.280	1.010	-0.530
2020/01/31 21:20:47.4	4.460	-0.290	1.050	-0.490
2020/01/31 21:20:47.5	4.470	-0.310	1.080	-0.440
2020/01/31 21:20:47.6	4.470	-0.330	1.100	-0.400
2020/01/31 21:20:47.7	4.470	-0.350	1.110	-0.360
2020/01/31 21:20:47.8	4.470	-0.360	1.110	-0.310
2020/01/31 21:20:47.9	4.470	-0.380	1.090	-0.270
2020/01/31 21:20:48.0	4.470	-0.390	1.080	-0.240
2020/01/31 21:20:48.1	4.470	-0.400	1.050	-0.200
2020/01/31 21:20:48.2	4.470	-0.420	1.010	-0.170
2020/01/31 21:20:48.3	4.460	-0.420	0.970	-0.140
2020/01/31 21:20:48.4	4.460	-0.430	0.910	-0.110
2020/01/31 21:20:48.5	4.450	-0.440	0.850	-0.090
2020/01/31 21:20:48.6	4.440	-0.440	0.790	-0.060
2020/01/31 21:20:48.7	4.430	-0.440	0.720	-0.040
2020/01/31 21:20:48.8	4.420	-0.440	0.640	-0.010
2020/01/31 21:20:48.9	4.420	-0.430	0.560	0.010
2020/01/31 21:20:49.0	4.410	-0.430	0.470	0.030
2020/01/31 21:20:49.1	4.390	-0.420	0.380	0.040
2020/01/31 21:20:49.2	4.380	-0.400	0.290	0.060
2020/01/31 21:20:49.3	4.360	-0.390	0.190	0.070
2020/01/31 21:20:49.4	4.350	-0.370	0.090	0.080
2020/01/31 21:20:49.5	4.330	-0.350	-0.010	0.090
2020/01/31 21:20:49.6	4.320	-0.330	-0.110	0.100
2020/01/31 21:20:49.7	4.310	-0.300	-0.210	0.100
2020/01/31 21:20:49.8	4.300	-0.270	-0.310	0.100
2020/01/31 21:20:49.9	4.270	-0.240	-0.410	0.100
2020/01/31 21:20:50.0	4.270	-0.210	-0.500	0.100
2020/01/31 21:20:50.1	4.260	-0.170	-0.600	0.090
2020/01/31 21:20:50.2	4.260	-0.130	-0.690	0.080
2020/01/31 21:20:50.3	4.260	-0.090	-0.780	0.070
2020/01/31 21:20:50.4	4.260	-0.050	-0.870	0.050
2020/01/31 21:20:50.5	4.260	-0.010	-0.950	0.030
2020/01/31 21:20:50.6	4.270	0.040	-1.030	0.020
2020/01/31 21:20:50.7	4.270	0.080	-1.100	-0.000
2020/01/31 21:20:50.8	4.280	0.130	-1.170	-0.020
2020/01/31 21:20:50.9	4.280	0.170	-1.220	-0.050
2020/01/31 21:20:51.0	4.290	0.210	-1.270	-0.070
2020/01/31 21:20:51.1	4.300	0.260	-1.320	-0.090
2020/01/31 21:20:51.2	4.310	0.300	-1.350	-0.110
2020/01/31 21:20:51.3	4.320	0.340	-1.380	-0.130
2020/01/31 21:20:51.4	4.330	0.370	-1.400	-0.160
2020/01/31 21:20:51.5	4.340	0.410	-1.410	-0.180
2020/01/31 21:20:51.6	4.350	0.440	-1.410	-0.200
2020/01/31 21:20:51.7	4.350	0.470	-1.400	-0.220
2020/01/31 21:20:51.8	4.360	0.490	-1.390	-0.240
2020/01/31 21:20:51.9	4.370	0.510	-1.370	-0.270
2020/01/31 21:20:52.0	4.380	0.530	-1.340	-0.290
2020/01/31 21:20:52.1	4.390	0.540	-1.290	-0.310
2020/01/31 21:20:52.2	4.400	0.540	-1.250	-0.330
2020/01/31 21:20:52.3	4.400	0.550	-1.190	-0.350
2020/01/31 21:20:52.4	4.410	0.540	-1.130	-0.370
2020/01/31 21:20:52.5	4.420	0.540	-1.060	-0.380
2020/01/31 21:20:52.6	4.430	0.530	-0.990	-0.400
2020/01/31 21:20:52.7	4.430	0.510	-0.910	-0.410
2020/01/31 21:20:52.8	4.440	0.490	-0.830	-0.430
2020/01/31 21:20:52.9	4.450	0.470	-0.750	-0.440
2020/01/31 21:20:53.0	4.450	0.440	-0.660	-0.450
2020/01/31 21:20:53.1	4.460	0.400	-0.580	-0.460
2020/01/31 21:20:53.2	4.470	0.370	-0.490	-0.470
2020/01/31 21:20:53.3	4.480	0.330	-0.400	-0.480
2020/01/31 21:20:53.4	4.490	0.290	-0.320	-0.480
2020/01/31 21:20:53.5	4.500	0.250	-0.230	-0.490
2020/01/31 21:20:53.6	4.500	0.200	-0.150	-0.490
2020/01/31 21:20:53.7	4.510	0.160	-0.070	-0.490
2020/01/31 21:20:53.8	4.520	0.110	0.000	-0.490
2020/01/31 21:20:53.9	4.520	0.060	0.070	-0.490
2020/01/31 21:20:54.0	4.530	0.010	0.140	-0.490
2020/01/31 21:20:54.1	4.530	-0.030	0.210	-0.490
2020/01/31 21:20:54.2	4.530	-0.080	0.270	-0.480
2020/01/31 21:20:54.3	4.530	-0.130	0.320	-0.470
2020/01/31 21:20:54.4	4.530	-0.170	0.370	-0.460
2020/01/31 21:20:54.5	4.520	-0.210	0.420	-0.450
2020/01/31 21:20:54.6	4.520	-0.250	0.450	-0.440
2020/01/31 21:20:54.7	4.510	-0.280	0.490	-0.430
2020/01/31 21:20:54.8	4.500	-0.320	0.520	-0.410
2020/01/31 21:20:54.9	4.490	-0.340	0.540	-0.400
2020/01/31 21:20:55.0	4.480	-0.370	0.560	-0.370
2020/01/31 21:20:55.1	4.460	-0.390	0.570	-0.350
2020/01/31 21:20:55.2	4.450	-0.400	0.580	-0.320
2020/01/31 21:20:55.3	4.430	-0.410	0.580	-0.290
2020/01/31 21:20:55.4	4.410	-0.410	0.570	-0.260
2020/01/31 21:20:55.5	4.390	-0.410	0.560	-0.230
2020/01/31 21:20:55.6	4.360	-0.400	0.550	-0.190
2020/01/31 21:20:55.7	4.340	-0.390	0.530	-0.150
2020/01/31 21:20:55.8	4.310	-0.370	0.510	-0.110
2020/01/31 21:20:55.9	4.300	-0.350	0.480	-0.070
2020/01/31 21:20:56.0	4.280	-0.320	0.440	-0.020
2020/01/31 21:20:56.1	4.250	-0.290	0.400	0.020
2020/01/31 21:20:56.2	4.220	-0.260	0.360	0.060
2020/01/31 21:20:56.3	4.200	-0.220	0.320	0.100
2020/01/31 21:20:56.4	4.170	-0.170	0.270	0.140
2020/01/31 21:20:56.5	4.140	-0.130	0.210	0.180
2020/01/31 21:20:56.6	4.120	-0.080	0.150	0.220
2020/01/31 21:20:56.7	4.090	-0.030	0.090	0.250
2020/01/31 21:20:56.8	4.070	0.020	0.030	0.280
2020/01/31 21:20:56.9	4.050	0.070	-0.040	0.310
2020/01/31 21:20:57.0	4.030	0.130	-0.110	0.340
2020/01/31 21:20:57.1	4.020	0.180	-0.180	0.360
2020/01/31 21:20:57.2	4.010	0.230	-0.260	0.380
2020/01/31 21:20:57.3	4.000	0.290	-0.330	0.390
2020/01/31 21:20:57.4	4.000	0.340	-0.410	0.400
2020/01/31 21:20:57.5	3.990	0.390	-0.490	0.400
2020/01/31 21:20:57.6	4.000	0.430	-0.560	0.400
2020/01/31 21:20:57.7	4.000	0.480	-0.640	0.390
2020/01/31 21:20:57.8	4.010	0.520	-0.710	0.380
2020/01/31 21:20:57.9	4.030	0.560	-0.780	0.360
2020/01/31 21:20:58.0	4.040	0.590	-0.850	0.340
2020/01/31 21:20:58.1	4.060	0.620	-0.910	0.310
2020/01/31 21:20:58.2	4.080	0.650	-0.970	0.280
2020/01/31 21:20:58.3	4.100	0.670	-1.030	0.250
2020/01/31 21:20:58.4	4.130	0.690	-1.080	0.210
2020/01/31 21:20:58.5	4.160	0.700	-1.120	0.180
2020/01/31 21:20:58.6	4.180	0.700	-1.150	0.140
2020/01/31 21:20:58.7	4.210	0.700	-1.180	0.100
2020/01/31 21:20:58.8	4.240	0.690	-1.200	0.050
2020/01/31 21:20:58.9	4.280	0.680	-1.210	0.010
2020/01/31 21:20:59.0	4.320	0.660	-1.210	-0.030
2020/01/31 21:20:59.1	4.350	0.640	-1.210	-0.080
2020/01/31 21:20:59.2	4.380	0.610	-1.190	-0.120
2020/01/31 21:20:59.3	4.410	0.580	-1.160	-0.160
2020/01/31 21:20:59.4	4.440	0.540	-1.130	-0.200
2020/01/31 21:20:59.5	4.470	0.490	-1.090	-0.250
2020/01/31 21:20:59.6	4.490	0.450	-1.040	-0.280
2020/01/31 21:20:59.7	4.520	0.390	-0.980	-0.320
2020/01/31 21:20:59.8	4.540	0.330	-0.910	-0.360
2020/01/31 21:20:59.9	4.560	0.270	-0.840	-0.390
2020/01/31 21:21:00.0	4.590	0.210	-0.770	-0.420
2020/01/31 21:21:00.1	4.610	0.140	-0.680	-0.450
2020/01/31 21:21:00.2	4.620	0.080	-0.600	-0.480
2020/01/31 21:21:00.3	4.640	0.010	-0.510	-0.500
2020/01/31 21:21:00.4	4.660	-0.060	-0.420	-0.520
2020/01/31 21:21:00.5	4.670	-0.130	-0.320	-0.540
2020/01/31 21:21:00.6	4.690	-0.200	-0.220	-0.560
2020/01/31 21:21:00.7	4.700	-0.270	-0.130	-0.570
2020/01/31 21:21:00.8	4.710	-0.340	-0.030	-0.590
2020/01/31 21:21:00.9	4.710	-0.410	0.060	-0.600
2020/01/31 21:21:01.0	4.720	-0.470	0.150	-0.610
2020/01/31 21:21:01.1	4.730	-0.530	0.240	-0.620
2020/01/31 21:21:01.2	4.740	-0.590	0.330	-0.620
2020/01/31 21:21:01.3	4.750	-0.640	0.410	-0.620
2020/01/31 21:21:01.4	4.750	-0.690	0.490	-0.620
2020/01/31 21:21:01.5	4.760	-0.730	0.560	-0.610
2020/01/31 21:21:01.6	4.760	-0.770	0.630	-0.600
2020/01/31 21:21:01.7	4.760	-0.800	0.690	-0.590
2020/01/31 21:21:01.8	4.750	-0.830	0.750	-0.580
2020/01/31 21:21:01.9	4.750	-0.850	0.790	-0.560
2020/01/31 21:21:02.0	4.750	-0.860	0.830	-0.530
2020/01/31 21:21:02.1	4.740	-0.870	0.870	-0.510
2020/01/31 21:21:02.2	4.730	-0.870	0.890	-0.480
2020/01/31 21:21:02.3	4.710	-0.870	0.910	-0.450
2020/01/31 21:21:02.4	4.700	-0.860	0.920	-0.420
2020/01/31 21:21:02.5	4.680	-0.840	0.920	-0.380
2020/01/31 21:21:02.6	4.660	-0.820	0.910	-0.350
2020/01/31 21:21:02.7	4.640	-0.790	0.900	-0.310
2020/01/31 21:21:02.8	4.620	-0.760	0.870	-0.280
2020/01/31 21:21:02.9	4.610	-0.730	0.840	-0.250
2020/01/31 21:21:03.0	4.590	-0.690	0.800	-0.220
2020/01/31 21:21:03.1	4.570	-0.640	0.750	-0.180
2020/01/31 21:21:03.2	4.550	-0.590	0.690	-0.160
2020/01/31 21:21:03.3	4.530	-0.540	0.630	-0.130
2020/01/31 21:21:03.4	4.510	-0.490	0.560	-0.100
2020/01/31 21:21:03.5	4.490	-0.430	0.490	-0.080
2020/01/31 21:21:03.6	4.470	-0.380	0.410	-0.060
2020/01/31 21:21:03.7	4.450	-0.320	0.320	-0.040
2020/01/31 21:21:03.8	4.430	-0.260	0.230	-0.020
2020/01/31 21:21:03.9	4.410	-0.200	0.140	-0.000
2020/01/31 21:21:04.0	4.390	-0.140	0.050	0.010
2020/01/31 21:21:04.1	4.370	-0.080	-0.050	0.020
2020/01/31 21:21:04.2	4.340	-0.020	-0.140	0.030
2020/01/31 21:21:04.3	4.320	0.030	-0.230	0.040
2020/01/31 21:21:04.4	4.300	0.080	-0.330	0.050
2020/01/31 21:21:04.5	4.270	0.130	-0.410	0.060
2020/01/31 21:21:04.6	4.240	0.180	-0.500	0.060
2020/01/31 21:21:04.7	4.220	0.230	-0.580	0.060
2020/01/31 21:21:04.8	4.190	0.270	-0.660	0.060
2020/01/31 21:21:04.9	4.170	0.300	-0.740	0.060
2020/01/31 21:21:05.0	4.150	0.340	-0.800	0.060
2020/01/31 21:21:05.1	4.120	0.360	-0.860	0.050
2020/01/31 21:21:05.2	4.100	0.390	-0.920	0.040
2020/01/31 21:21:05.3	4.070	0.410	-0.960	0.020
2020/01/31 21:21:05.4	4.050	0.420	-1.000	0.010
2020/01/31 21:21:05.5	4.030	0.440	-1.040	-0.010
2020/01/31 21:21:05.6	4.010	0.440	-1.060	-0.030
2020/01/31 21:21:05.7	4.000	0.450	-1.080	-0.050
2020/01/31 21:21:05.8	3.980	0.450	-1.090	-0.070
2020/01/31 21:21:05.9	3.970	0.440	-1.100	-0.100
2020/01/31 21:21:06.0	3.960	0.440	-1.100	-0.120
2020/01/31 21:21:06.1	3.950	0.430	-1.090	-0.150
2020/01/31 21:21:06.2	3.950	0.410	-1.070	-0.170
2020/01/31 21:21:06.3	3.950	0.400	-1.050	-0.200
2020/01/31 21:21:06.4	3.950	0.380	-1.020	-0.230
2020/01/31 21:21:06.5	3.950	0.370	-0.990	-0.260
2020/01/31 21:21:06.6	3.960	0.350	-0.960	-0.280
2020/01/31 21:21:06.7	3.970	0.330	-0.920	-0.310
2020/01/31 21:21:06.8	3.980	0.300	-0.880	-0.330
2020/01/31 21:21:06.9	4.000	0.280	-0.830	-0.360
2020/01/31 21:21:07.0	4.020	0.260	-0.780	-0.380
2020/01/31 21:21:07.1	4.030	0.240	-0.730	-0.410
2020/01/31 21:21:07.2	4.050	0.220	-0.680	-0.430
2020/01/31 21:21:07.3	4.070	0.200	-0.620	-0.450
2020/01/31 21:21:07.4	4.090	0.180	-0.570	-0.470
2020/01/31 21:21:07.5	4.120	0.160	-0.520	-0.490
2020/01/31 21:21:07.6	4.140	0.150	-0.460	-0.500
2020/01/31 21:21:07.7	4.170	0.130	-0.410	-0.520
2020/01/31 21:21:07.8	4.190	0.120	-0.360	-0.530
2020/01/31 21:21:07.9	4.210	0.110	-0.310	-0.550
2020/01/31 21:21:08.0	4.240	0.100	-0.260	-0.560
2020/01/31 21:21:08.1	4.270	0.090	-0.210	-0.570
2020/01/31 21:21:08.2	4.300	0.080	-0.170	-0.580
2020/01/31 21:21:08.3	4.320	0.070	-0.120	-0.590
2020/01/31 21:21:08.4	4.350	0.070	-0.080	-0.590
2020/01/31 21:21:08.5	4.380	0.070	-0.050	-0.590
2020/01/31 21:21:08.6	4.410	0.060	-0.010	-0.590
2020/01/31 21:21:08.7	4.430	0.060	0.020	-0.590
2020/01/31 21:21:08.8	4.450	0.060	0.040	-0.580
2020/01/31 21:21:08.9	4.470	0.060	0.060	-0.570
2020/01/31 21:21:09.0	4.490	0.060	0.080	-0.560
2020/01/31 21:21:09.1	4.510	0.070	0.090	-0.550
2020/01/31 21:21:09.2	4.530	0.070	0.100	-0.530
2020/01/31 21:21:09.3	4.550	0.070	0.100	-0.520
2020/01/31 21:21:09.4	4.570	0.080	0.100	-0.500
2020/01/31 21:21:09.5	4.590	0.080	0.090	-0.480
2020/01/31 21:21:09.6	4.600	0.080	0.080	-0.460
2020/01/31 21:21:09.7	4.620	0.090	0.060	-0.440
2020/01/31 21:21:09.8	4.640	0.090	0.040	-0.420
2020/01/31 21:21:09.9	4.660	0.090	0.010	-0.400
2020/01/31 21:21:10.0	4.670	0.090	-0.020	-0.390
2020/01/31 21:21:10.1	4.690	0.090	-0.050	-0.370
2020/01/31 21:21:10.2	4.710	0.090	-0.090	-0.360
2020/01/31 21:21:10.3	4.720	0.090	-0.130	-0.350
2020/01/31 21:21:10.4	4.740	0.090	-0.170	-0.340
2020/01/31 21:21:10.5	4.760	0.090	-0.210	-0.340
2020/01/31 21:21:10.6	4.780	0.080	-0.260	-0.340
2020/01/31 21:21:10.7	4.790	0.080	-0.300	-0.340
2020/01/31 21:21:10.8	4.810	0.070	-0.350	-0.340
2020/01/31 21:21:10.9	4.810	0.060	-0.400	-0.350
2020/01/31 21:21:11.0	4.830	0.060	-0.440	-0.350
2020/01/31 21:21:11.1	4.850	0.050	-0.490	-0.360
2020/01/31 21:21:11.2	4.860	0.040	-0.530	-0.380
2020/01/31 21:21:11.3	4.880	0.020	-0.570	-0.390
2020/01/31 21:21:11.4	4.890	0.010	-0.600	-0.400
2020/01/31 21:21:11.5	4.910	-0.000	-0.630	-0.420
2020/01/31 21:21:11.6	4.920	-0.020	-0.660	-0.430
2020/01/31 21:21:11.7	4.930	-0.030	-0.690	-0.450
2020/01/31 21:21:11.8	4.950	-0.050	-0.700	-0.470
2020/01/31 21:21:11.9	4.950	-0.060	-0.710	-0.490
2020/01/31 21:21:12.0	4.960	-0.080	-0.720	-0.500
2020/01/31 21:21:12.1	4.970	-0.100	-0.720	-0.520
2020/01/31 21:21:12.2	4.980	-0.110	-0.720	-0.530
2020/01/31 21:21:12.3	4.990	-0.130	-0.700	-0.550
2020/01/31 21:21:12.4	5.000	-0.150	-0.690	-0.560
2020/01/31 21:21:12.5	5.000	-0.160	-0.660	-0.570
2020/01/31 21:21:12.6	5.010	-0.180	-0.640	-0.580
2020/01/31 21:21:12.7	5.010	-0.200	-0.600	-0.590
2020/01/31 21:21:12.8	5.020	-0.210	-0.560	-0.600
2020/01/31 21:21:12.9	5.010	-0.230	-0.520	-0.610
2020/01/31 21:21:13.0	5.010	-0.250	-0.470	-0.620
2020/01/31 21:21:13.1	5.010	-0.260	-0.420	-0.620
2020/01/31 21:21:13.2	5.010	-0.270	-0.360	-0.620
2020/01/31 21:21:13.3	5.000	-0.290	-0.300	-0.620
2020/01/31 21:21:13.4	4.990	-0.300	-0.240	-0.620
2020/01/31 21:21:13.5	4.980	-0.310	-0.170	-0.620
2020/01/31 21:21:13.6	4.970	-0.320	-0.110	-0.620
2020/01/31 21:21:13.7	4.950	-0.330	-0.040	-0.610
2020/01/31 21:21:13.8	4.930	-0.340	0.030	-0.600
2020/01/31 21:21:13.9	4.910	-0.340	0.090	-0.590
2020/01/31 21:21:14.0	4.890	-0.350	0.160	-0.580
2020/01/31 21:21:14.1	4.870	-0.350	0.220	-0.570
2020/01/31 21:21:14.2	4.840	-0.350	0.280	-0.550
2020/01/31 21:21:14.3	4.810	-0.350	0.340	-0.540
2020/01/31 21:21:14.4	4.780	-0.350	0.390	-0.520
2020/01/31 21:21:14.5	4.750	-0.350	0.440	-0.500
2020/01/31 21:21:14.6	4.720	-0.340	0.490	-0.490
2020/01/31 21:21:14.7	4.690	-0.330	0.530	-0.470
2020/01/31 21:21:14.8	4.660	-0.320	0.570	-0.450
2020/01/31 21:21:14.9	4.630	-0.310	0.590	-0.430
2020/01/31 21:21:15.0	4.600	-0.290	0.620	-0.410
2020/01/31 21:21:15.1	4.570	-0.280	0.630	-0.390
2020/01/31 21:21:15.2	4.530	-0.260	0.650	-0.370
2020/01/31 21:21:15.3	4.500	-0.240	0.650	-0.340
2020/01/31 21:21:15.4	4.470	-0.210	0.650	-0.320
2020/01/31 21:21:15.5	4.440	-0.190	0.640	-0.300
2020/01/31 21:21:15.6	4.410	-0.160	0.620	-0.280
2020/01/31 21:21:15.7	4.380	-0.130	0.600	-0.260
2020/01/31 21:21:15.8	4.350	-0.100	0.570	-0.240
2020/01/31 21:21:15.9	4.320	-0.070	0.530	-0.220
2020/01/31 21:21:16.0	4.290	-0.040	0.490	-0.200
2020/01/31 21:21:16.1	4.260	-0.010	0.440	-0.180
2020/01/31 21:21:16.2	4.230	0.020	0.390	-0.160
2020/01/31 21:21:16.3	4.200	0.050	0.330	-0.140
2020/01/31 21:21:16.4	4.170	0.090	0.260	-0.120
2020/01/31 21:21:16.5	4.140	0.120	0.200	-0.110
2020/01/31 21:21:16.6	4.120	0.150	0.130	-0.090
2020/01/31 21:21:16.7	4.090	0.180	0.060	-0.080
2020/01/31 21:21:16.8	4.060	0.200	-0.020	-0.070
2020/01/31 21:21:16.9	4.040	0.230	-0.100	-0.070
2020/01/31 21:21:17.0	4.010	0.260	-0.170	-0.060
2020/01/31 21:21:17.1	3.990	0.280	-0.250	-0.060
2020/01/31 21:21:17.2	3.970	0.300	-0.330	-0.060
2020/01/31 21:21:17.3	3.950	0.320	-0.400	-0.070
2020/01/31 21:21:17.4	3.940	0.340	-0.480	-0.070
2020/01/31 21:21:17.5	3.920	0.350	-0.550	-0.080
2020/01/31 21:21:17.6	3.910	0.370	-0.610	-0.090
2020/01/31 21:21:17.7	3.910	0.380	-0.680	-0.100
2020/01/31 21:21:17.8	3.900	0.380	-0.740	-0.120
2020/01/31 21:21:17.9	3.900	0.390	-0.790	-0.140
2020/01/31 21:21:18.0	3.900	0.390	-0.840	-0.160
2020/01/31 21:21:18.1	3.910	0.390	-0.880	-0.170
2020/01/31 21:21:18.2	3.910	0.390	-0.920	-0.190
2020/01/31 21:21:18.3	3.920	0.390	-0.950	-0.210
2020/01/31 21:21:18.4	3.930	0.380	-0.970	-0.230
2020/01/31 21:21:18.5	3.940	0.370	-0.990	-0.250
2020/01/31 21:21:18.6	3.960	0.360	-1.000	-0.270
2020/01/31 21:21:18.7	3.980	0.350	-1.010	-0.290
2020/01/31 21:21:18.8	3.990	0.330	-1.000	-0.310
2020/01/31 21:21:18.9	4.010	0.310	-1.000	-0.330
2020/01/31 21:21:19.0	4.030	0.290	-0.980	-0.340
2020/01/31 21:21:19.1	4.060	0.270	-0.970	-0.360
2020/01/31 21:21:19.2	4.080	0.250	-0.940	-0.370
2020/01/31 21:21:19.3	4.110	0.230	-0.920	-0.390
2020/01/31 21:21:19.4	4.130	0.200	-0.890	-0.400
2020/01/31 21:21:19.5	4.160	0.180	-0.850	-0.410
2020/01/31 21:21:19.6	4.190	0.150	-0.820	-0.430
2020/01/31 21:21:19.7	4.220	0.120	-0.780	-0.440
2020/01/31 21:21:19.8	4.250	0.090	-0.740	-0.450
2020/01/31 21:21:19.9	4.280	0.070	-0.700	-0.460
2020/01/31 21:21:20.0	4.310	0.040	-0.650	-0.470
2020/01/31 21:21:20.1	4.340	0.010	-0.610	-0.480
2020/01/31 21:21:20.2	4.360	-0.020	-0.560	-0.490
2020/01/31 21:21:20.3	4.390	-0.050	-0.520	-0.500
2020/01/31 21:21:20.4	4.420	-0.070	-0.480	-0.510
2020/01/31 21:21:20.5	4.450	-0.100	-0.440	-0.520
2020/01/31 21:21:20.6	4.480	-0.120	-0.390	-0.530
2020/01/31 21:21:20.7	4.510	-0.150	-0.350	-0.540
2020/01/31 21:21:20.8	4.530	-0.170	-0.320	-0.550
2020/01/31 21:21:20.9	4.560	-0.190	-0.280	-0.560
2020/01/31 21:21:21.0	4.590	-0.210	-0.250	-0.570
2020/01/31 21:21:21.1	4.620	-0.230	-0.220	-0.570
2020/01/31 21:21:21.2	4.640	-0.240	-0.190	-0.580
2020/01/31 21:21:21.3	4.670	-0.250	-0.160	-0.590
2020/01/31 21:21:21.4	4.700	-0.270	-0.140	-0.590
2020/01/31 21:21:21.5	4.720	-0.280	-0.120	-0.600
2020/01/31 21:21:21.6	4.750	-0.290	-0.100	-0.610
2020/01/31 21:21:21.7	4.780	-0.290	-0.080	-0.610
2020/01/31 21:21:21.8	4.810	-0.300	-0.070	-0.620
2020/01/31 21:21:21.9	4.830	-0.300	-0.060	-0.620
2020/01/31 21:21:22.0	4.860	-0.300	-0.060	-0.620
2020/01/31 21:21:22.1	4.880	-0.300	-0.050	-0.630
2020/01/31 21:21:22.2	4.900	-0.300	-0.050	-0.630
2020/01/31 21:21:22.3	4.930	-0.300	-0.060	-0.630
2020/01/31 21:21:22.4	4.950	-0.300	-0.060	-0.630
2020/01/31 21:21:22.5	4.970	-0.300	-0.060	-0.630
2020/01/31 21:21:22.6	4.980	-0.300	-0.070	-0.620
2020/01/31 21:21:22.7	5.000	-0.290	-0.080	-0.620
2020/01/31 21:21:22.8	5.010	-0.290	-0.090	-0.610
2020/01/31 21:21:22.9	5.010	-0.280	-0.100	-0.600
2020/01/31 21:21:23.0	5.020	-0.280	-0.110	-0.590
2020/01/31 21:21:23.1	5.020	-0.280	-0.120	-0.580
2020/01/31 21:21:23.2	5.030	-0.270	-0.140	-0.560
2020/01/31 21:21:23.3	5.020	-0.270	-0.150	-0.550
2020/01/31 21:21:23.4	5.020	-0.260	-0.160	-0.530
2020/01/31 21:21:23.5	5.020	-0.250	-0.170	-0.510
2020/01/31 21:21:23.6	5.010	-0.250	-0.180	-0.500
2020/01/31 21:21:23.7	5.000	-0.240	-0.190	-0.480
2020/01/31 21:21:23.8	4.990	-0.240	-0.200	-0.460
2020/01/31 21:21:23.9	4.980	-0.230	-0.220	-0.440
2020/01/31 21:21:24.0	4.960	-0.220	-0.230	-0.420
2020/01/31 21:21:24.1	4.950	-0.220	-0.230	-0.400
2020/01/31 21:21:24.2	4.930	-0.210	-0.240	-0.380
2020/01/31 21:21:24.3	4.910	-0.200	-0.240	-0.360
2020/01/31 21:21:24.4	4.890	-0.190	-0.250	-0.340
2020/01/31 21:21:24.5	4.860	-0.180	-0.250	-0.320
2020/01/31 21:21:24.6	4.840	-0.170	-0.250	-0.300
2020/01/31 21:21:24.7	4.820	-0.160	-0.250	-0.280
2020/01/31 21:21:24.8	4.800	-0.140	-0.250	-0.260
2020/01/31 21:21:24.9	4.780	-0.130	-0.250	-0.240
2020/01/31 21:21:25.0	4.750	-0.120	-0.250	-0.220
2020/01/31 21:21:25.1	4.730	-0.100	-0.250	-0.200
2020/01/31 21:21:25.2	4.710	-0.080	-0.250	-0.180
2020/01/31 21:21:25.3	4.690	-0.060	-0.250	-0.160
2020/01/31 21:21:25.4	4.670	-0.040	-0.240	-0.140
2020/01/31 21:21:25.5	4.650	-0.020	-0.240	-0.120
2020/01/31 21:21:25.6	4.630	-0.000	-0.240	-0.090
2020/01/31 21:21:25.7	4.610	0.020	-0.230	-0.070
2020/01/31 21:21:25.8	4.580	0.040	-0.220	-0.050
2020/01/31 21:21:25.9	4.550	0.060	-0.220	-0.020
2020/01/31 21:21:26.0	4.520	0.080	-0.210	0.010
2020/01/31 21:21:26.1	4.500	0.110	-0.200	0.030
2020/01/31 21:21:26.2	4.470	0.130	-0.190	0.060
2020/01/31 21:21:26.3	4.440	0.150	-0.180	0.090
2020/01/31 21:21:26.4	4.410	0.170	-0.170	0.120
2020/01/31 21:21:26.5	4.380	0.190	-0.160	0.150
2020/01/31 21:21:26.6	4.350	0.200	-0.140	0.180
2020/01/31 21:21:26.7	4.310	0.220	-0.130	0.210
2020/01/31 21:21:26.8	4.280	0.230	-0.110	0.240
2020/01/31 21:21:26.9	4.260	0.250	-0.100	0.270
2020/01/31 21:21:27.0	4.220	0.260	-0.080	0.300
2020/01/31 21:21:27.1	4.180	0.270	-0.060	0.330
2020/01/31 21:21:27.2	4.140	0.280	-0.040	0.360
2020/01/31 21:21:27.3	4.100	0.280	-0.020	0.390
2020/01/31 21:21:27.4	4.060	0.290	-0.000	0.410
2020/01/31 21:21:27.5	4.020	0.290	0.020	0.430
2020/01/31 21:21:27.6	3.980	0.300	0.030	0.450
2020/01/31 21:21:27.7	3.940	0.300	0.050	0.460
2020/01/31 21:21:27.8	3.900	0.300	0.070	0.480
2020/01/31 21:21:27.9	3.880	0.300	0.080	0.480
2020/01/31 21:21:28.0	3.840	0.290	0.090	0.490
2020/01/31 21:21:28.1	3.810	0.290	0.100	0.490
2020/01/31 21:21:28.2	3.790	0.290	0.110	0.480
2020/01/31 21:21:28.3	3.760	0.280	0.110	0.470
2020/01/31 21:21:28.4	3.740	0.280	0.110	0.460
2020/01/31 21:21:28.5	3.730	0.280	0.110	0.440
2020/01/31 21:21:28.6	3.710	0.270	0.100	0.420
2020/01/31 21:21:28.7	3.710	0.270	0.090	0.390
2020/01/31 21:21:28.8	3.700	0.270	0.070	0.360
2020/01/31 21:21:28.9	3.710	0.260	0.060	0.330
2020/01/31 21:21:29.0	3.710	0.260	0.030	0.290
2020/01/31 21:21:29.1	3.720	0.260	0.010	0.250
2020/01/31 21:21:29.2	3.730	0.260	-0.020	0.200
2020/01/31 21:21:29.3	3.750	0.260	-0.050	0.160
2020/01/31 21:21:29.4	3.770	0.260	-0.090	0.100
2020/01/31 21:21:29.5	3.790	0.250	-0.130	0.050
2020/01/31 21:21:29.6	3.820	0.250	-0.170	-0.000
2020/01/31 21:21:29.7	3.850	0.250	-0.210	-0.060
2020/01/31 21:21:29.8	3.880	0.250	-0.250	-0.120
2020/01/31 21:21:29.9	3.920	0.250	-0.300	-0.170
2020/01/31 21:21:30.0	3.960	0.250	-0.340	-0.230
2020/01/31 21:21:30.1	3.990	0.240	-0.380	-0.280
2020/01/31 21:21:30.2	4.020	0.230	-0.420	-0.340
2020/01/31 21:21:30.3	4.050	0.230	-0.460	-0.390
2020/01/31 21:21:30.4	4.080	0.220	-0.500	-0.440
2020/01/31 21:21:30.5	4.120	0.200	-0.540	-0.490
2020/01/31 21:21:30.6	4.150	0.190	-0.570	-0.540
2020/01/31 21:21:30.7	4.180	0.170	-0.600	-0.590
2020/01/31 21:21:30.8	4.210	0.160	-0.620	-0.640
2020/01/31 21:21:30.9	4.230	0.140	-0.640	-0.680
2020/01/31 21:21:31.0	4.260	0.110	-0.660	-0.720
2020/01/31 21:21:31.1	4.290	0.090	-0.670	-0.770
2020/01/31 21:21:31.2	4.320	0.060	-0.680	-0.810
2020/01/31 21:21:31.3	4.350	0.030	-0.690	-0.850
2020/01/31 21:21:31.4	4.380	0.000	-0.690	-0.890
2020/01/31 21:21:31.5	4.410	-0.030	-0.690	-0.920
2020/01/31 21:21:31.6	4.430	-0.060	-0.680	-0.960
2020/01/31 21:21:31.7	4.460	-0.100	-0.670	-0.990
2020/01/31 21:21:31.8	4.490	-0.140	-0.660	-1.020
2020/01/31 21:21:31.9	4.530	-0.170	-0.650	-1.050
2020/01/31 21:21:32.0	4.550	-0.210	-0.630	-1.070
2020/01/31 21:21:32.1	4.580	-0.250	-0.610	-1.090
2020/01/31 21:21:32.2	4.610	-0.290	-0.590	-1.100
2020/01/31 21:21:32.3	4.630	-0.320	-0.570	-1.110
2020/01/31 21:21:32.4	4.650	-0.360	-0.540	-1.120
2020/01/31 21:21:32.5	4.670	-0.400	-0.510	-1.120
2020/01/31 21:21:32.6	4.690	-0.430	-0.480	-1.120
2020/01/31 21:21:32.7	4.710	-0.460	-0.440	-1.110
2020/01/31 21:21:32.8	4.720	-0.490	-0.410	-1.090
2020/01/31 21:21:32.9	4.720	-0.520	-0.370	-1.070
2020/01/31 21:21:33.0	4.720	-0.550	-0.330	-1.040
2020/01/31 21:21:33.1	4.720	-0.570	-0.290	-1.010
2020/01/31 21:21:33.2	4.720	-0.600	-0.250	-0.980
2020/01/31 21:21:33.3	4.710	-0.610	-0.200	-0.940
2020/01/31 21:21:33.4	4.700	-0.630	-0.160	-0.900
2020/01/31 21:21:33.5	4.690	-0.640	-0.120	-0.860
2020/01/31 21:21:33.6	4.670	-0.650	-0.080	-0.810
2020/01/31 21:21:33.7	4.650	-0.660	-0.030	-0.760
2020/01/31 21:21:33.8	4.620	-0.660	0.010	-0.710
2020/01/31 21:21:33.9	4.600	-0.660	0.040	-0.660
2020/01/31 21:21:34.0	4.570	-0.660	0.080	-0.600
2020/01/31 21:21:34.1	4.530	-0.650	0.120	-0.540
2020/01/31 21:21:34.2	4.490	-0.630	0.150	-0.470
2020/01/31 21:21:34.3	4.450	-0.620	0.180	-0.410
2020/01/31 21:21:34.4	4.400	-0.600	0.210	-0.340
2020/01/31 21:21:34.5	4.360	-0.570	0.230	-0.270
2020/01/31 21:21:34.6	4.310	-0.540	0.250	-0.210
2020/01/31 21:21:34.7	4.260	-0.510	0.260	-0.140
2020/01/31 21:21:34.8	4.210	-0.480	0.270	-0.070
2020/01/31 21:21:34.9	4.160	-0.440	0.270	0.000
2020/01/31 21:21:35.0	4.110	-0.400	0.270	0.070
2020/01/31 21:21:35.1	4.060	-0.350	0.260	0.130
2020/01/31 21:21:35.2	4.010	-0.310	0.240	0.190
2020/01/31 21:21:35.3	3.970	-0.260	0.220	0.240
2020/01/31 21:21:35.4	3.930	-0.200	0.190	0.290
2020/01/31 21:21:35.5	3.890	-0.150	0.150	0.340
2020/01/31 21:21:35.6	3.860	-0.090	0.110	0.380
2020/01/31 21:21:35.7	3.830	-0.040	0.060	0.410
2020/01/31 21:21:35.8	3.800	0.020	0.010	0.440
2020/01/31 21:21:35.9	3.770	0.080	-0.050	0.470
2020/01/31 21:21:36.0	3.750	0.150	-0.120	0.490
2020/01/31 21:21:36.1	3.740	0.210	-0.180	0.500
2020/01/31 21:21:36.2	3.730	0.270	-0.250	0.500
2020/01/31 21:21:36.3	3.730	0.330	-0.320	0.500
2020/01/31 21:21:36.4	3.730	0.390	-0.400	0.500
2020/01/31 21:21:36.5	3.740	0.450	-0.470	0.480
2020/01/31 21:21:36.6	3.750	0.510	-0.550	0.460
2020/01/31 21:21:36.7	3.770	0.560	-0.620	0.440
2020/01/31 21:21:36.8	3.790	0.610	-0.700	0.410
2020/01/31 21:21:36.9	3.810	0.660	-0.760	0.380
2020/01/31 21:21:37.0	3.840	0.710	-0.830	0.340
2020/01/31 21:21:37.1	3.880	0.750	-0.890	0.300
2020/01/31 21:21:37.2	3.910	0.790	-0.950	0.260
2020/01/31 21:21:37.3	3.950	0.820	-1.000	0.210
2020/01/31 21:21:37.4	4.000	0.850	-1.040	0.160
2020/01/31 21:21:37.5	4.040	0.870	-1.080	0.110
2020/01/31 21:21:37.6	4.090	0.880	-1.110	0.060
2020/01/31 21:21:37.7	4.140	0.890	-1.130	0.010
2020/01/31 21:21:37.8	4.180	0.900	-1.140	-0.050
2020/01/31 21:21:37.9	4.240	0.900	-1.150	-0.090
2020/01/31 21:21:38.0	4.280	0.890	-1.150	-0.140
2020/01/31 21:21:38.1	4.330	0.870	-1.130	-0.190
2020/01/31 21:21:38.2	4.370	0.850	-1.110	-0.230
2020/01/31 21:21:38.3	4.410	0.820	-1.070	-0.270
2020/01/31 21:21:38.4	4.450	0.790	-1.030	-0.310
2020/01/31 21:21:38.5	4.490	0.740	-0.980	-0.340
2020/01/31 21:21:38.6	4.520	0.700	-0.920	-0.380
2020/01/31 21:21:38.7	4.540	0.640	-0.850	-0.410
2020/01/31 21:21:38.8	4.560	0.580	-0.770	-0.430
2020/01/31 21:21:38.9	4.580	0.520	-0.680	-0.450
2020/01/31 21:21:39.0	4.590	0.450	-0.590	-0.470
2020/01/31 21:21:39.1	4.600	0.380	-0.500	-0.490
2020/01/31 21:21:39.2	4.600	0.300	-0.400	-0.510
2020/01/31 21:21:39.3	4.610	0.220	-0.300	-0.520
2020/01/31 21:21:39.4	4.600	0.140	-0.200	-0.530
2020/01/31 21:21:39.5	4.600	0.060	-0.100	-0.540
2020/01/31 21:21:39.6	4.590	-0.020	0.010	-0.550
2020/01/31 21:21:39.7	4.570	-0.110	0.110	-0.560
2020/01/31 21:21:39.8	4.560	-0.190	0.210	-0.560
2020/01/31 21:21:39.9	4.530	-0.270	0.300	-0.560
2020/01/31 21:21:40.0	4.510	-0.350	0.400	-0.560
2020/01/31 21:21:40.1	4.480	-0.430	0.480	-0.560
2020/01/31 21:21:40.2	4.460	-0.510	0.560	-0.560
2020/01/31 21:21:40.3	4.430	-0.580	0.640	-0.560
2020/01/31 21:21:40.4	4.400	-0.640	0.710	-0.550
2020/01/31 21:21:40.5	4.370	-0.700	0.770	-0.550
2020/01/31 21:21:40.6	4.340	-0.760	0.820	-0.550
2020/01/31 21:21:40.7	4.300	-0.810	0.860	-0.540
2020/01/31 21:21:40.8	4.270	-0.850	0.890	-0.540
2020/01/31 21:21:40.9	4.230	-0.890	0.920	-0.530
2020/01/31 21:21:41.0	4.190	-0.920	0.930	-0.530
2020/01/31 21:21:41.1	4.160	-0.950	0.940	-0.520
2020/01/31 21:21:41.2	4.130	-0.960	0.940	-0.510
2020/01/31 21:21:41.3	4.090	-0.970	0.920	-0.500
2020/01/31 21:21:41.4	4.060	-0.970	0.900	-0.490
2020/01/31 21:21:41.5	4.020	-0.970	0.870	-0.480
2020/01/31 21:21:41.6	3.990	-0.960	0.840	-0.470
2020/01/31 21:21:41.7	3.960	-0.940	0.790	-0.460
2020/01/31 21:21:41.8	3.930	-0.910	0.740	-0.450
2020/01/31 21:21:41.9	3.890	-0.880	0.690	-0.440
2020/01/31 21:21:42.0	3.860	-0.840	0.620	-0.420
2020/01/31 21:21:42.1	3.840	-0.800	0.560	-0.410
2020/01/31 21:21:42.2	3.810	-0.750	0.490	-0.400
2020/01/31 21:21:42.3	3.790	-0.690	0.410	-0.380
2020/01/31 21:21:42.4	3.770	-0.640	0.340	-0.370
2020/01/31 21:21:42.5	3.760	-0.570	0.260	-0.360
2020/01/31 21:21:42.6	3.740	-0.510	0.180	-0.350
2020/01/31 21:21:42.7	3.730	-0.440	0.090	-0.330
2020/01/31 21:21:42.8	3.720	-0.370	0.010	-0.320
2020/01/31 21:21:42.9	3.730	-0.290	-0.070	-0.310
2020/01/31 21:21:43.0	3.730	-0.220	-0.150	-0.300
2020/01/31 21:21:43.1	3.730	-0.140	-0.240	-0.290
2020/01/31 21:21:43.2	3.730	-0.070	-0.320	-0.270
2020/01/31 21:21:43.3	3.740	0.010	-0.400	-0.260
2020/01/31 21:21:43.4	3.740	0.080	-0.480	-0.250
2020/01/31 21:21:43.5	3.750	0.160	-0.560	-0.240
2020/01/31 21:21:43.6	3.770	0.230	-0.640	-0.230
2020/01/31 21:21:43.7	3.780	0.300	-0.710	-0.220
2020/01/31 21:21:43.8	3.800	0.360	-0.780	-0.210
2020/01/31 21:21:43.9	3.800	0.430	-0.850	-0.200
2020/01/31 21:21:44.0	3.830	0.490	-0.910	-0.190
2020/01/31 21:21:44.1	3.850	0.540	-0.970	-0.180
2020/01/31 21:21:44.2	3.870	0.590	-1.020	-0.180
2020/01/31 21:21:44.3	3.900	0.640	-1.070	-0.170
2020/01/31 21:21:44.4	3.920	0.680	-1.120	-0.170
2020/01/31 21:21:44.5	3.950	0.710	-1.160	-0.170
2020/01/31 21:21:44.6	3.980	0.740	-1.190	-0.170
2020/01/31 21:21:44.7	4.010	0.760	-1.210	-0.180
2020/01/31 21:21:44.8	4.040	0.780	-1.240	-0.180
2020/01/31 21:21:44.9	4.080	0.790	-1.250	-0.190
2020/01/31 21:21:45.0	4.110	0.790	-1.250	-0.200
2020/01/31 21:21:45.1	4.140	0.780	-1.250	-0.210
2020/01/31 21:21:45.2	4.160	0.770	-1.240	-0.220
2020/01/31 21:21:45.3	4.190	0.760	-1.230	-0.230
2020/01/31 21:21:45.4	4.210	0.730	-1.210	-0.250
2020/01/31 21:21:45.5	4.230	0.710	-1.180	-0.260
2020/01/31 21:21:45.6	4.240	0.670	-1.140	-0.280
2020/01/31 21:21:45.7	4.260	0.630	-1.100	-0.300
2020/01/31 21:21:45.8	4.270	0.580	-1.050	-0.320
2020/01/31 21:21:45.9	4.280	0.530	-1.000	-0.330
2020/01/31 21:21:46.0	4.280	0.470	-0.940	-0.350
2020/01/31 21:21:46.1	4.290	0.410	-0.870	-0.370
2020/01/31 21:21:46.2	4.290	0.350	-0.800	-0.390
2020/01/31 21:21:46.3	4.290	0.280	-0.730	-0.410
2020/01/31 21:21:46.4	4.290	0.210	-0.650	-0.430
2020/01/31 21:21:46.5	4.290	0.140	-0.570	-0.450
2020/01/31 21:21:46.6	4.280	0.070	-0.490	-0.470
2020/01/31 21:21:46.7	4.280	-0.000	-0.410	-0.490
2020/01/31 21:21:46.8	4.280	-0.080	-0.330	-0.510
2020/01/31 21:21:46.9	4.260	-0.150	-0.250	-0.540
2020/01/31 21:21:47.0	4.260	-0.220	-0.170	-0.560
2020/01/31 21:21:47.1	4.250	-0.290	-0.090	-0.590
2020/01/31 21:21:47.2	4.250	-0.350	-0.010	-0.620
2020/01/31 21:21:47.3	4.250	-0.420	0.060	-0.640
2020/01/31 21:21:47.4	4.250	-0.480	0.130	-0.670
2020/01/31 21:21:47.5	4.250	-0.530	0.190	-0.700
2020/01/31 21:21:47.6	4.250	-0.580	0.250	-0.730
2020/01/31 21:21:47.7	4.250	-0.620	0.300	-0.760
2020/01/31 21:21:47.8	4.260	-0.660	0.340	-0.790
2020/01/31 21:21:47.9	4.270	-0.690	0.380	-0.820
2020/01/31 21:21:48.0	4.270	-0.720	0.410	-0.840
2020/01/31 21:21:48.1	4.270	-0.740	0.440	-0.870
2020/01/31 21:21:48.2	4.280	-0.750	0.460	-0.890
2020/01/31 21:21:48.3	4.280	-0.760	0.470	-0.910
2020/01/31 21:21:48.4	4.290	-0.750	0.480	-0.920
2020/01/31 21:21:48.5	4.290	-0.740	0.480	-0.940
2020/01/31 21:21:48.6	4.290	-0.730	0.470	-0.950
2020/01/31 21:21:48.7	4.300	-0.710	0.450	-0.950
2020/01/31 21:21:48.8	4.300	-0.680	0.430	-0.950
2020/01/31 21:21:48.9	4.310	-0.640	0.410	-0.950
2020/01/31 21:21:49.0	4.310	-0.600	0.380	-0.940
2020/01/31 21:21:49.1	4.310	-0.550	0.340	-0.930
2020/01/31 21:21:49.2	4.310	-0.490	0.300	-0.910
2020/01/31 21:21:49.3	4.310	-0.440	0.260	-0.890
2020/01/31 21:21:49.4	4.300	-0.370	0.220	-0.860
2020/01/31 21:21:49.5	4.300	-0.310	0.170	-0.830
2020/01/31 21:21:49.6	4.290	-0.240	0.120	-0.790
2020/01/31 21:21:49.7	4.280	-0.170	0.070	-0.750
2020/01/31 21:21:49.8	4.270	-0.100	0.020	-0.710
2020/01/31 21:21:49.9	4.250	-0.020	-0.030	-0.660
2020/01/31 21:21:50.0	4.240	0.050	-0.080	-0.610
2020/01/31 21:21:50.1	4.230	0.120	-0.130	-0.560
2020/01/31 21:21:50.2	4.210	0.190	-0.180	-0.520
2020/01/31 21:21:50.3	4.200	0.260	-0.230	-0.470
2020/01/31 21:21:50.4	4.180	0.330	-0.280	-0.420
2020/01/31 21:21:50.5	4.170	0.390	-0.330	-0.370
2020/01/31 21:21:50.6	4.150	0.450	-0.370	-0.320
2020/01/31 21:21:50.7	4.140	0.510	-0.410	-0.280
2020/01/31 21:21:50.8	4.120	0.560	-0.450	-0.230
2020/01/31 21:21:50.9	4.100	0.610	-0.490	-0.190
2020/01/31 21:21:51.0	4.090	0.650	-0.520	-0.150
2020/01/31 21:21:51.1	4.080	0.690	-0.560	-0.110
2020/01/31 21:21:51.2	4.070	0.720	-0.580	-0.080
2020/01/31 21:21:51.3	4.050	0.740	-0.610	-0.040
2020/01/31 21:21:51.4	4.050	0.760	-0.630	-0.010
2020/01/31 21:21:51.5	4.040	0.780	-0.650	0.010
2020/01/31 21:21:51.6	4.030	0.780	-0.660	0.040
2020/01/31 21:21:51.7	4.030	0.790	-0.670	0.060
2020/01/31 21:21:51.8	4.030	0.780	-0.680	0.080
2020/01/31 21:21:51.9	4.040	0.770	-0.690	0.090
2020/01/31 21:21:52.0	4.040	0.760	-0.690	0.100
2020/01/31 21:21:52.1	4.050	0.740	-0.690	0.110
2020/01/31 21:21:52.2	4.050	0.710	-0.680	0.110
2020/01/31 21:21:52.3	4.060	0.680	-0.670	0.110
2020/01/31 21:21:52.4	4.070	0.650	-0.660	0.110
2020/01/31 21:21:52.5	4.080	0.610	-0.650	0.100
2020/01/31 21:21:52.6	4.100	0.570	-0.630	0.080
2020/01/31 21:21:52.7	4.110	0.530	-0.610	0.070
2020/01/31 21:21:52.8	4.120	0.480	-0.580	0.050
2020/01/31 21:21:52.9	4.130	0.430	-0.550	0.030
2020/01/31 21:21:53.0	4.150	0.370	-0.520	0.000
2020/01/31 21:21:53.1	4.160	0.320	-0.480	-0.020
2020/01/31 21:21:53.2	4.180	0.260	-0.450	-0.050
2020/01/31 21:21:53.3	4.200	0.200	-0.410	-0.080
2020/01/31 21:21:53.4	4.210	0.140	-0.370	-0.120
2020/01/31 21:21:53.5	4.230	0.080	-0.330	-0.150
2020/01/31 21:21:53.6	4.250	0.020	-0.290	-0.180
2020/01/31 21:21:53.7	4.260	-0.030	-0.250	-0.220
2020/01/31 21:21:53.8	4.280	-0.090	-0.210	-0.260
2020/01/31 21:21:53.9	4.300	-0.150	-0.170	-0.300
2020/01/31 21:21:54.0	4.320	-0.200	-0.140	-0.330
2020/01/31 21:21:54.1	4.330	-0.260	-0.100	-0.370
2020/01/31 21:21:54.2	4.350	-0.310	-0.060	-0.410
2020/01/31 21:21:54.3	4.360	-0.350	-0.030	-0.440
2020/01/31 21:21:54.4	4.380	-0.400	0.010	-0.480
2020/01/31 21:21:54.5	4.390	-0.440	0.040	-0.510
2020/01/31 21:21:54.6	4.400	-0.480	0.070	-0.540
2020/01/31 21:21:54.7	4.410	-0.510	0.100	-0.570
2020/01/31 21:21:54.8	4.410	-0.540	0.120	-0.600
2020/01/31 21:21:54.9	4.430	-0.570	0.150	-0.620
2020/01/31 21:21:55.0	4.430	-0.590	0.170	-0.640
2020/01/31 21:21:55.1	4.430	-0.610	0.190	-0.660
2020/01/31 21:21:55.2	4.430	-0.630	0.210	-0.670
2020/01/31 21:21:55.3	4.420	-0.640	0.220	-0.670
2020/01/31 21:21:55.4	4.410	-0.650	0.240	-0.670
2020/01/31 21:21:55.5	4.400	-0.650	0.250	-0.670
2020/01/31 21:21:55.6	4.390	-0.650	0.260	-0.670
2020/01/31 21:21:55.7	4.380	-0.650	0.270	-0.660
2020/01/31 21:21:55.8	4.360	-0.640	0.280	-0.650
2020/01/31 21:21:55.9	4.340	-0.630	0.280	-0.630
2020/01/31 21:21:56.0	4.320	-0.620	0.280	-0.620
2020/01/31 21:21:56.1	4.310	-0.600	0.270	-0.600
2020/01/31 21:21:56.2	4.290	-0.580	0.270	-0.580
2020/01/31 21:21:56.3	4.270	-0.560	0.260	-0.560
2020/01/31 21:21:56.4	4.250	-0.540	0.240	-0.540
2020/01/31 21:21:56.5	4.230	-0.510	0.230	-0.510
2020/01/31 21:21:56.6	4.220	-0.490	0.210	-0.490
2020/01/31 21:21:56.7	4.200	-0.450	0.180	-0.470
2020/01/31 21:21:56.8	4.190	-0.420	0.160	-0.450
2020/01/31 21:21:56.9	4.180	-0.390	0.130	-0.420
2020/01/31 21:21:57.0	4.160	-0.350	0.090	-0.400
2020/01/31 21:21:57.1	4.150	-0.320	0.060	-0.380
2020/01/31 21:21:57.2	4.140	-0.280	0.020	-0.360
2020/01/31 21:21:57.3	4.140	-0.240	-0.020	-0.330
2020/01/31 21:21:57.4	4.130	-0.200	-0.070	-0.310
2020/01/31 21:21:57.5	4.120	-0.160	-0.110	-0.290
2020/01/31 21:21:57.6	4.110	-0.120	-0.160	-0.270
2020/01/31 21:21:57.7	4.110	-0.080	-0.210	-0.240
2020/01/31 21:21:57.8	4.100	-0.040	-0.250	-0.220
2020/01/31 21:21:57.9	4.100	0.000	-0.300	-0.200
2020/01/31 21:21:58.0	4.100	0.040	-0.350	-0.170
2020/01/31 21:21:58.1	4.090	0.080	-0.390	-0.150
2020/01/31 21:21:58.2	4.080	0.120	-0.440	-0.130
2020/01/31 21:21:58.3	4.080	0.150	-0.480	-0.100
2020/01/31 21:21:58.4	4.070	0.190	-0.520	-0.080
2020/01/31 21:21:58.5	4.060	0.220	-0.550	-0.060
2020/01/31 21:21:58.6	4.050	0.250	-0.590	-0.030
2020/01/31 21:21:58.7	4.040	0.280	-0.620	-0.010
2020/01/31 21:21:58.8	4.040	0.310	-0.650	0.010
2020/01/31 21:21:58.9	4.030	0.340	-0.670	0.030
2020/01/31 21:21:59.0	4.020	0.360	-0.690	0.040
2020/01/31 21:21:59.1	4.010	0.380	-0.710	0.060
2020/01/31 21:21:59.2	4.000	0.400	-0.730	0.070
2020/01/31 21:21:59.3	4.000	0.420	-0.740	0.090
2020/01/31 21:21:59.4	3.990	0.440	-0.750	0.100
2020/01/31 21:21:59.5	3.990	0.450	-0.760	0.110
2020/01/31 21:21:59.6	3.980	0.460	-0.770	0.110
2020/01/31 21:21:59.7	3.980	0.470	-0.770	0.120
2020/01/31 21:21:59.8	3.970	0.470	-0.770	0.120
2020/01/31 21:21:59.9	3.980	0.470	-0.760	0.120
2020/01/31 21:22:00.0	3.970	0.470	-0.760	0.120
2020/01/31 21:22:00.1	3.970	0.470	-0.750	0.120
2020/01/31 21:22:00.2	3.970	0.470	-0.750	0.120
2020/01/31 21:22:00.3	3.970	0.460	-0.740	0.110
2020/01/31 21:22:00.4	3.970	0.450	-0.730	0.100
2020/01/31 21:22:00.5	3.960	0.440	-0.710	0.090
2020/01/31 21:22:00.6	3.970	0.420	-0.700	0.070
2020/01/31 21:22:00.7	3.970	0.410	-0.680	0.050
2020/01/31 21:22:00.8	3.970	0.390	-0.670	0.030
2020/01/31 21:22:00.9	3.970	0.370	-0.650	0.000
2020/01/31 21:22:01.0	3.980	0.350	-0.630	-0.020
2020/01/31 21:22:01.1	3.990	0.320	-0.620	-0.060
2020/01/31 21:22:01.2	4.000	0.300	-0.600	-0.090
2020/01/31 21:22:01.3	4.010	0.280	-0.580	-0.130
2020/01/31 21:22:01.4	4.030	0.250	-0.560	-0.170
2020/01/31 21:22:01.5	4.050	0.220	-0.540	-0.220
2020/01/31 21:22:01.6	4.060	0.200	-0.520	-0.260
2020/01/31 21:22:01.7	4.090	0.170	-0.500	-0.310
2020/01/31 21:22:01.8	4.110	0.150	-0.480	-0.360
2020/01/31 21:22:01.9	4.140	0.120	-0.460	-0.410
2020/01/31 21:22:02.0	4.160	0.100	-0.440	-0.450
2020/01/31 21:22:02.1	4.180	0.070	-0.420	-0.500
2020/01/31 21:22:02.2	4.210	0.050	-0.400	-0.540
2020/01/31 21:22:02.3	4.230	0.030	-0.390	-0.580
2020/01/31 21:22:02.4	4.260	0.010	-0.370	-0.610
2020/01/31 21:22:02.5	4.280	-0.000	-0.350	-0.640
2020/01/31 21:22:02.6	4.300	-0.020	-0.330	-0.670
2020/01/31 21:22:02.7	4.330	-0.030	-0.310	-0.700
2020/01/31 21:22:02.8	4.350	-0.040	-0.290	-0.720
2020/01/31 21:22:02.9	4.360	-0.050	-0.270	-0.740
2020/01/31 21:22:03.0	4.380	-0.060	-0.250	-0.750
2020/01/31 21:22:03.1	4.400	-0.060	-0.230	-0.760
2020/01/31 21:22:03.2	4.410	-0.070	-0.210	-0.770
2020/01/31 21:22:03.3	4.430	-0.070	-0.190	-0.770
2020/01/31 21:22:03.4	4.440	-0.070	-0.170	-0.770
2020/01/31 21:22:03.5	4.460	-0.060	-0.150	-0.770
2020/01/31 21:22:03.6	4.470	-0.060	-0.130	-0.760
2020/01/31 21:22:03.7	4.480	-0.060	-0.110	-0.760
2020/01/31 21:22:03.8	4.490	-0.050	-0.100	-0.750
2020/01/31 21:22:03.9	4.490	-0.040	-0.080	-0.740
2020/01/31 21:22:04.0	4.500	-0.030	-0.060	-0.720
2020/01/31 21:22:04.1	4.500	-0.030	-0.050	-0.710
2020/01/31 21:22:04.2	4.500	-0.020	-0.030	-0.690
2020/01/31 21:22:04.3	4.500	-0.010	-0.020	-0.670
2020/01/31 21:22:04.4	4.490	0.000	-0.000	-0.650
2020/01/31 21:22:04.5	4.490	0.010	0.010	-0.630
2020/01/31 21:22:04.6	4.480	0.020	0.030	-0.610
2020/01/31 21:22:04.7	4.470	0.030	0.040	-0.590
2020/01/31 21:22:04.8	4.460	0.040	0.050	-0.560
2020/01/31 21:22:04.9	4.440	0.040	0.070	-0.530
2020/01/31 21:22:05.0	4.420	0.050	0.080	-0.500
2020/01/31 21:22:05.1	4.410	0.050	0.090	-0.470
2020/01/31 21:22:05.2	4.390	0.050	0.110	-0.440
2020/01/31 21:22:05.3	4.370	0.050	0.120	-0.410
2020/01/31 21:22:05.4	4.350	0.050	0.140	-0.380
2020/01/31 21:22:05.5	4.330	0.050	0.150	-0.340
2020/01/31 21:22:05.6	4.320	0.050	0.160	-0.310
2020/01/31 21:22:05.7	4.300	0.040	0.180	-0.280
2020/01/31 21:22:05.8	4.280	0.030	0.190	-0.250
2020/01/31 21:22:05.9	4.270	0.020	0.200	-0.220
2020/01/31 21:22:06.0	4.250	0.010	0.210	-0.190
2020/01/31 21:22:06.1	4.230	0.000	0.230	-0.160
2020/01/31 21:22:06.2	4.220	-0.010	0.240	-0.130
2020/01/31 21:22:06.3	4.210	-0.030	0.240	-0.100
2020/01/31 21:22:06.4	4.200	-0.040	0.250	-0.080
2020/01/31 21:22:06.5	4.190	-0.060	0.260	-0.060
2020/01/31 21:22:06.6	4.180	-0.080	0.260	-0.040
2020/01/31 21:22:06.7	4.170	-0.100	0.270	-0.020
2020/01/31 21:22:06.8	4.150	-0.120	0.270	0.000
2020/01/31 21:22:06.9	4.150	-0.140	0.270	0.020
2020/01/31 21:22:07.0	4.140	-0.160	0.280	0.040
2020/01/31 21:22:07.1	4.120	-0.180	0.280	0.050
2020/01/31 21:22:07.2	4.110	-0.200	0.280	0.070
2020/01/31 21:22:07.3	4.090	-0.220	0.280	0.080
2020/01/31 21:22:07.4	4.070	-0.250	0.280	0.090
2020/01/31 21:22:07.5	4.050	-0.270	0.280	0.100
2020/01/31 21:22:07.6	4.030	-0.290	0.280	0.120
2020/01/31 21:22:07.7	4.000	-0.310	0.280	0.130
2020/01/31 21:22:07.8	3.970	-0.330	0.270	0.140
2020/01/31 21:22:07.9	3.950	-0.340	0.270	0.150
2020/01/31 21:22:08.0	3.920	-0.360	0.270	0.150
2020/01/31 21:22:08.1	3.890	-0.380	0.260	0.160
2020/01/31 21:22:08.2	3.850	-0.390	0.250	0.160
2020/01/31 21:22:08.3	3.820	-0.400	0.240	0.170
2020/01/31 21:22:08.4	3.790	-0.410	0.230	0.170
2020/01/31 21:22:08.5	3.750	-0.420	0.210	0.170
2020/01/31 21:22:08.6	3.720	-0.430	0.190	0.160
2020/01/31 21:22:08.7	3.690	-0.430	0.160	0.160
2020/01/31 21:22:08.8	3.660	-0.430	0.130	0.150
2020/01/31 21:22:08.9	3.630	-0.430	0.100	0.130
2020/01/31 21:22:09.0	3.610	-0.430	0.060	0.110
2020/01/31 21:22:09.1	3.590	-0.420	0.010	0.090
2020/01/31 21:22:09.2	3.570	-0.410	-0.040	0.070
2020/01/31 21:22:09.3	3.550	-0.400	-0.100	0.040
2020/01/31 21:22:09.4	3.540	-0.380	-0.160	0.010
2020/01/31 21:22:09.5	3.540	-0.360	-0.230	-0.020
2020/01/31 21:22:09.6	3.530	-0.340	-0.300	-0.060
2020/01/31 21:22:09.7	3.540	-0.310	-0.380	-0.090
2020/01/31 21:22:09.8	3.540	-0.280	-0.460	-0.130
2020/01/31 21:22:09.9	3.560	-0.240	-0.550	-0.180
2020/01/31 21:22:10.0	3.570	-0.200	-0.640	-0.220
2020/01/31 21:22:10.1	3.590	-0.150	-0.730	-0.260
2020/01/31 21:22:10.2	3.620	-0.110	-0.830	-0.310
2020/01/31 21:22:10.3	3.650	-0.060	-0.930	-0.350
2020/01/31 21:22:10.4	3.680	-0.000	-1.030	-0.400
2020/01/31 21:22:10.5	3.710	0.050	-1.130	-0.440
2020/01/31 21:22:10.6	3.750	0.110	-1.220	-0.490
2020/01/31 21:22:10.7	3.790	0.170	-1.320	-0.530
2020/01/31 21:22:10.8	3.830	0.230	-1.400	-0.570
2020/01/31 21:22:10.9	3.860	0.290	-1.490	-0.610
2020/01/31 21:22:11.0	3.910	0.350	-1.560	-0.650
2020/01/31 21:22:11.1	3.950	0.420	-1.630	-0.680
2020/01/31 21:22:11.2	4.000	0.470	-1.680	-0.710
2020/01/31 21:22:11.3	4.040	0.530	-1.730	-0.740
2020/01/31 21:22:11.4	4.080	0.580	-1.760	-0.760
2020/01/31 21:22:11.5	4.130	0.630	-1.780	-0.780
2020/01/31 21:22:11.6	4.170	0.680	-1.790	-0.800
2020/01/31 21:22:11.7	4.200	0.720	-1.790	-0.810
2020/01/31 21:22:11.8	4.240	0.760	-1.770	-0.810
2020/01/31 21:22:11.9	4.280	0.790	-1.750	-0.810
2020/01/31 21:22:12.0	4.310	0.810	-1.700	-0.810
2020/01/31 21:22:12.1	4.340	0.830	-1.640	-0.800
2020/01/31 21:22:12.2	4.360	0.840	-1.570	-0.780
2020/01/31 21:22:12.3	4.380	0.840	-1.490	-0.760
2020/01/31 21:22:12.4	4.400	0.840	-1.400	-0.740
2020/01/31 21:22:12.5	4.410	0.820	-1.300	-0.720
2020/01/31 21:22:12.6	4.420	0.810	-1.180	-0.690
2020/01/31 21:22:12.7	4.430	0.780	-1.060	-0.650
2020/01/31 21:22:12.8	4.430	0.750	-0.930	-0.620
2020/01/31 21:22:12.9	4.420	0.710	-0.800	-0.570
2020/01/31 21:22:13.0	4.420	0.660	-0.660	-0.530
2020/01/31 21:22:13.1	4.410	0.610	-0.520	-0.490
2020/01/31 21:22:13.2	4.410	0.550	-0.370	-0.450
2020/01/31 21:22:13.3	4.400	0.490	-0.230	-0.410
2020/01/31 21:22:13.4	4.400	0.420	-0.090	-0.370
2020/01/31 21:22:13.5	4.390	0.350	0.050	-0.330
2020/01/31 21:22:13.6	4.380	0.280	0.190	-0.290
2020/01/31 21:22:13.7	4.370	0.210	0.320	-0.250
2020/01/31 21:22:13.8	4.360	0.130	0.440	-0.220
2020/01/31 21:22:13.9	4.340	0.050	0.560	-0.190
2020/01/31 21:22:14.0	4.330	-0.020	0.660	-0.150
2020/01/31 21:22:14.1	4.310	-0.100	0.760	-0.130
2020/01/31 21:22:14.2	4.300	-0.170	0.840	-0.100
2020/01/31 21:22:14.3	4.280	-0.250	0.920	-0.080
2020/01/31 21:22:14.4	4.270	-0.320	0.980	-0.060
2020/01/31 21:22:14.5	4.260	-0.380	1.030	-0.050
2020/01/31 21:22:14.6	4.240	-0.450	1.070	-0.030
2020/01/31 21:22:14.7	4.230	-0.500	1.100	-0.030
2020/01/31 21:22:14.8	4.210	-0.560	1.110	-0.020
2020/01/31 21:22:14.9	4.200	-0.600	1.110	-0.020
2020/01/31 21:22:15.0	4.190	-0.650	1.100	-0.020
2020/01/31 21:22:15.1	4.180	-0.680	1.080	-0.030
2020/01/31 21:22:15.2	4.160	-0.710	1.050	-0.030
2020/01/31 21:22:15.3	4.150	-0.730	1.010	-0.040
2020/01/31 21:22:15.4	4.130	-0.750	0.950	-0.050
2020/01/31 21:22:15.5	4.120	-0.760	0.900	-0.070
2020/01/31 21:22:15.6	4.100	-0.760	0.830	-0.080
2020/01/31 21:22:15.7	4.090	-0.760	0.760	-0.100
2020/01/31 21:22:15.8	4.070	-0.750	0.680	-0.110
2020/01/31 21:22:15.9	4.060	-0.740	0.600	-0.120
2020/01/31 21:22:16.0	4.030	-0.720	0.510	-0.130
2020/01/31 21:22:16.1	4.010	-0.700	0.420	-0.150
2020/01/31 21:22:16.2	3.990	-0.670	0.340	-0.160
2020/01/31 21:22:16.3	3.960	-0.630	0.250	-0.160
2020/01/31 21:22:16.4	3.930	-0.600	0.160	-0.170
2020/01/31 21:22:16.5	3.900	-0.550	0.070	-0.180
2020/01/31 21:22:16.6	3.870	-0.510	-0.010	-0.180
2020/01/31 21:22:16.7	3.840	-0.460	-0.100	-0.180
2020/01/31 21:22:16.8	3.810	-0.410	-0.180	-0.180
2020/01/31 21:22:16.9	3.770	-0.360	-0.250	-0.180
2020/01/31 21:22:17.0	3.740	-0.310	-0.320	-0.180
2020/01/31 21:22:17.1	3.710	-0.250	-0.390	-0.180
2020/01/31 21:22:17.2	3.680	-0.200	-0.450	-0.170
2020/01/31 21:22:17.3	3.650	-0.140	-0.510	-0.170
2020/01/31 21:22:17.4	3.620	-0.090	-0.560	-0.170
2020/01/31 21:22:17.5	3.600	-0.040	-0.610	-0.160
2020/01/31 21:22:17.6	3.580	0.020	-0.650	-0.160
2020/01/31 21:22:17.7	3.560	0.070	-0.680	-0.150
2020/01/31 21:22:17.8	3.540	0.120	-0.710	-0.150
2020/01/31 21:22:17.9	3.530	0.170	-0.740	-0.150
2020/01/31 21:22:18.0	3.520	0.210	-0.770	-0.140
2020/01/31 21:22:18.1	3.520	0.260	-0.780	-0.140
2020/01/31 21:22:18.2	3.520	0.300	-0.790	-0.140
2020/01/31 21:22:18.3	3.520	0.340	-0.800	-0.140
2020/01/31 21:22:18.4	3.530	0.380	-0.800	-0.130
2020/01/31 21:22:18.5	3.550	0.410	-0.800	-0.130
2020/01/31 21:22:18.6	3.560	0.440	-0.800	-0.130
2020/01/31 21:22:18.7	3.580	0.470	-0.790	-0.130
2020/01/31 21:22:18.8	3.600	0.490	-0.770	-0.120
2020/01/31 21:22:18.9	3.610	0.510	-0.750	-0.120
2020/01/31 21:22:19.0	3.640	0.530	-0.730	-0.110
2020/01/31 21:22:19.1	3.660	0.550	-0.700	-0.100
2020/01/31 21:22:19.2	3.680	0.560	-0.670	-0.080
2020/01/31 21:22:19.3	3.710	0.560	-0.630	-0.070
2020/01/31 21:22:19.4	3.730	0.570	-0.590	-0.050
2020/01/31 21:22:19.5	3.750	0.560	-0.550	-0.030
2020/01/31 21:22:19.6	3.770	0.560	-0.500	-0.010
2020/01/31 21:22:19.7	3.780	0.550	-0.450	0.020
2020/01/31 21:22:19.8	3.800	0.540	-0.400	0.040
2020/01/31 21:22:19.9	3.830	0.520	-0.350	0.080
2020/01/31 21:22:20.0	3.840	0.500	-0.290	0.100
2020/01/31 21:22:20.1	3.850	0.470	-0.240	0.130
2020/01/31 21:22:20.2	3.860	0.450	-0.180	0.160
2020/01/31 21:22:20.3	3.870	0.410	-0.120	0.190
2020/01/31 21:22:20.4	3.880	0.380	-0.070	0.210
2020/01/31 21:22:20.5	3.890	0.340	-0.010	0.240
2020/01/31 21:22:20.6	3.900	0.310	0.040	0.260
2020/01/31 21:22:20.7	3.910	0.260	0.090	0.280
2020/01/31 21:22:20.8	3.920	0.220	0.130	0.300
2020/01/31 21:22:20.9	3.930	0.180	0.170	0.310
2020/01/31 21:22:21.0	3.940	0.130	0.210	0.320
2020/01/31 21:22:21.1	3.950	0.090	0.240	0.320
2020/01/31 21:22:21.2	3.970	0.040	0.260	0.320
2020/01/31 21:22:21.3	3.980	-0.010	0.280	0.320
2020/01/31 21:22:21.4	3.990	-0.050	0.300	0.310
2020/01/31 21:22:21.5	4.000	-0.100	0.310	0.300
2020/01/31 21:22:21.6	4.010	-0.140	0.310	0.290
2020/01/31 21:22:21.7	4.020	-0.190	0.310	0.270
2020/01/31 21:22:21.8	4.040	-0.230	0.310	0.250
2020/01/31 21:22:21.9	4.040	-0.270	0.290	0.230
2020/01/31 21:22:22.0	4.050	-0.310	0.280	0.210
2020/01/31 21:22:22.1	4.060	-0.350	0.250	0.180
2020/01/31 21:22:22.2	4.070	-0.380	0.230	0.160
2020/01/31 21:22:22.3	4.080	-0.420	0.200	0.130
2020/01/31 21:22:22.4	4.080	-0.450	0.160	0.100
2020/01/31 21:22:22.5	4.090	-0.470	0.120	0.080
2020/01/31 21:22:22.6	4.090	-0.490	0.080	0.050
2020/01/31 21:22:22.7	4.090	-0.520	0.030	0.030
2020/01/31 21:22:22.8	4.090	-0.530	-0.020	0.000
2020/01/31 21:22:22.9	4.090	-0.540	-0.070	-0.020
2020/01/31 21:22:23.0	4.090	-0.550	-0.120	-0.050
2020/01/31 21:22:23.1	4.090	-0.560	-0.170	-0.070
2020/01/31 21:22:23.2	4.080	-0.560	-0.230	-0.090
2020/01/31 21:22:23.3	4.070	-0.560	-0.290	-0.110
2020/01/31 21:22:23.4	4.070	-0.550	-0.350	-0.130
2020/01/31 21:22:23.5	4.060	-0.540	-0.410	-0.150
2020/01/31 21:22:23.6	4.050	-0.530	-0.470	-0.170
2020/01/31 21:22:23.7	4.040	-0.510	-0.530	-0.190
2020/01/31 21:22:23.8	4.030	-0.490	-0.590	-0.200
2020/01/31 21:22:23.9	4.010	-0.470	-0.650	-0.220
2020/01/31 21:22:24.0	4.000	-0.440	-0.710	-0.240
2020/01/31 21:22:24.1	3.990	-0.410	-0.770	-0.250
2020/01/31 21:22:24.2	3.980	-0.370	-0.820	-0.270
2020/01/31 21:22:24.3	3.980	-0.340	-0.880	-0.280
2020/01/31 21:22:24.4	3.970	-0.300	-0.930	-0.300
2020/01/31 21:22:24.5	3.960	-0.250	-0.970	-0.310
2020/01/31 21:22:24.6	3.960	-0.210	-1.010	-0.330
2020/01/31 21:22:24.7	3.960	-0.160	-1.050	-0.340
2020/01/31 21:22:24.8	3.960	-0.110	-1.090	-0.360
2020/01/31 21:22:24.9	3.970	-0.060	-1.110	-0.370
2020/01/31 21:22:25.0	3.970	-0.010	-1.130	-0.380
2020/01/31 21:22:25.1	3.970	0.050	-1.150	-0.390
2020/01/31 21:22:25.2	3.980	0.100	-1.160	-0.390
2020/01/31 21:22:25.3	3.990	0.150	-1.170	-0.400
2020/01/31 21:22:25.4	4.000	0.210	-1.160	-0.400
2020/01/31 21:22:25.5	4.010	0.260	-1.160	-0.400
2020/01/31 21:22:25.6	4.020	0.310	-1.140	-0.400
2020/01/31 21:22:25.7	4.030	0.360	-1.120	-0.400
2020/01/31 21:22:25.8	4.050	0.400	-1.090	-0.400
2020/01/31 21:22:25.9	4.050	0.440	-1.060	-0.390
2020/01/31 21:22:26.0	4.060	0.480	-1.010	-0.380
2020/01/31 21:22:26.1	4.080	0.510	-0.960	-0.370
2020/01/31 21:22:26.2	4.090	0.540	-0.900	-0.360
2020/01/31 21:22:26.3	4.100	0.570	-0.840	-0.340
2020/01/31 21:22:26.4	4.110	0.580	-0.760	-0.330
2020/01/31 21:22:26.5	4.120	0.600	-0.690	-0.320
2020/01/31 21:22:26.6	4.130	0.600	-0.600	-0.300
2020/01/31 21:22:26.7	4.140	0.600	-0.510	-0.280
2020/01/31 21:22:26.8	4.150	0.600	-0.420	-0.270
2020/01/31 21:22:26.9	4.150	0.590	-0.330	-0.250
2020/01/31 21:22:27.0	4.160	0.570	-0.230	-0.230
2020/01/31 21:22:27.1	4.160	0.550	-0.120	-0.210
2020/01/31 21:22:27.2	4.160	0.520	-0.020	-0.190
2020/01/31 21:22:27.3	4.170	0.490	0.080	-0.170
2020/01/31 21:22:27.4	4.170	0.450	0.180	-0.150
2020/01/31 21:22:27.5	4.170	0.410	0.280	-0.130
2020/01/31 21:22:27.6	4.170	0.360	0.380	-0.100
2020/01/31 21:22:27.7	4.170	0.310	0.470	-0.080
2020/01/31 21:22:27.8	4.170	0.260	0.560	-0.060
2020/01/31 21:22:27.9	4.160	0.210	0.650	-0.040
2020/01/31 21:22:28.0	4.160	0.150	0.720	-0.020
2020/01/31 21:22:28.1	4.170	0.090	0.790	-0.000
2020/01/31 21:22:28.2	4.170	0.040	0.850	0.010
2020/01/31 21:22:28.3	4.170	-0.020	0.910	0.030
2020/01/31 21:22:28.4	4.180	-0.070	0.950	0.040
2020/01/31 21:22:28.5	4.180	-0.130	0.990	0.060
2020/01/31 21:22:28.6	4.190	-0.180	1.010	0.070
2020/01/31 21:22:28.7	4.190	-0.220	1.030	0.080
2020/01/31 21:22:28.8	4.200	-0.270	1.030	0.080
2020/01/31 21:22:28.9	4.210	-0.310	1.020	0.090
2020/01/31 21:22:29.0	4.220	-0.340	1.000	0.090
2020/01/31 21:22:29.1	4.230	-0.370	0.970	0.090
2020/01/31 21:22:29.2	4.240	-0.400	0.930	0.090
2020/01/31 21:22:29.3	4.240	-0.420	0.880	0.080
2020/01/31 21:22:29.4	4.250	-0.430	0.820	0.070
2020/01/31 21:22:29.5	4.260	-0.440	0.750	0.070
2020/01/31 21:22:29.6	4.260	-0.440	0.670	0.060
2020/01/31 21:22:29.7	4.270	-0.430	0.580	0.050
2020/01/31 21:22:29.8	4.270	-0.420	0.490	0.040
2020/01/31 21:22:29.9	4.270	-0.410	0.390	0.030
2020/01/31 21:22:30.0	4.270	-0.390	0.290	0.010
2020/01/31 21:22:30.1	4.270	-0.360	0.180	0.000
2020/01/31 21:22:30.2	4.270	-0.330	0.070	-0.010
2020/01/31 21:22:30.3	4.260	-0.300	-0.050	-0.020
2020/01/31 21:22:30.4	4.260	-0.260	-0.160	-0.030
2020/01/31 21:22:30.5	4.260	-0.220	-0.270	-0.040
2020/01/31 21:22:30.6	4.250	-0.180	-0.380	-0.050
2020/01/31 21:22:30.7	4.250	-0.130	-0.490	-0.070
2020/01/31 21:22:30.8	4.240	-0.090	-0.600	-0.080
2020/01/31 21:22:30.9	4.250	-0.040	-0.700	-0.080
2020/01/31 21:22:31.0	4.240	0.010	-0.790	-0.090
2020/01/31 21:22:31.1	4.230	0.060	-0.880	-0.100
2020/01/31 21:22:31.2	4.220	0.100	-0.970	-0.110
2020/01/31 21:22:31.3	4.220	0.150	-1.050	-0.120
2020/01/31 21:22:31.4	4.210	0.190	-1.110	-0.130
2020/01/31 21:22:31.5	4.200	0.230	-1.170	-0.140
2020/01/31 21:22:31.6	4.190	0.270	-1.230	-0.150
2020/01/31 21:22:31.7	4.170	0.300	-1.270	-0.160
2020/01/31 21:22:31.8	4.160	0.330	-1.300	-0.170
2020/01/31 21:22:31.9	4.160	0.360	-1.330	-0.180
2020/01/31 21:22:32.0	4.150	0.390	-1.350	-0.190
2020/01/31 21:22:32.1	4.140	0.410	-1.350	-0.200
2020/01/31 21:22:32.2	4.130	0.420	-1.350	-0.210
2020/01/31 21:22:32.3	4.120	0.430	-1.340	-0.230
2020/01/31 21:22:32.4	4.120	0.440	-1.320	-0.250
2020/01/31 21:22:32.5	4.110	0.440	-1.290	-0.260
2020/01/31 21:22:32.6	4.110	0.440	-1.260	-0.280
2020/01/31 21:22:32.7	4.110	0.430	-1.220	-0.300
2020/01/31 21:22:32.8	4.110	0.420	-1.170	-0.320
2020/01/31 21:22:32.9	4.100	0.410	-1.120	-0.350
2020/01/31 21:22:33.0	4.100	0.390	-1.060	-0.370
2020/01/31 21:22:33.1	4.110	0.370	-1.000	-0.390
2020/01/31 21:22:33.2	4.110	0.350	-0.930	-0.410
2020/01/31 21:22:33.3	4.120	0.320	-0.860	-0.440
2020/01/31 21:22:33.4	4.130	0.300	-0.790	-0.460
2020/01/31 21:22:33.5	4.140	0.270	-0.710	-0.480
2020/01/31 21:22:33.6	4.160	0.240	-0.640	-0.500
2020/01/31 21:22:33.7	4.170	0.210	-0.560	-0.520
2020/01/31 21:22:33.8	4.180	0.170	-0.470	-0.530
2020/01/31 21:22:33.9	4.210	0.140	-0.390	-0.550
2020/01/31 21:22:34.0	4.220	0.100	-0.310	-0.560
2020/01/31 21:22:34.1	4.240	0.070	-0.230	-0.570
2020/01/31 21:22:34.2	4.250	0.030	-0.150	-0.580
2020/01/31 21:22:34.3	4.260	-0.000	-0.070	-0.590
2020/01/31 21:22:34.4	4.280	-0.040	0.010	-0.590
2020/01/31 21:22:34.5	4.290	-0.070	0.080	-0.600
2020/01/31 21:22:34.6	4.300	-0.110	0.150	-0.600
2020/01/31 21:22:34.7	4.310	-0.140	0.220	-0.600
2020/01/31 21:22:34.8	4.320	-0.170	0.280	-0.600
2020/01/31 21:22:34.9	4.320	-0.200	0.330	-0.600
2020/01/31 21:22:35.0	4.330	-0.230	0.390	-0.600
2020/01/31 21:22:35.1	4.340	-0.260	0.440	-0.590
2020/01/31 21:22:35.2	4.340	-0.280	0.480	-0.590
2020/01/31 21:22:35.3	4.340	-0.310	0.520	-0.580
2020/01/31 21:22:35.4	4.350	-0.330	0.550	-0.570
2020/01/31 21:22:35.5	4.350	-0.350	0.580	-0.560
2020/01/31 21:22:35.6	4.350	-0.370	0.600	-0.550
2020/01/31 21:22:35.7	4.350	-0.390	0.610	-0.530
2020/01/31 21:22:35.8	4.350	-0.400	0.620	-0.520
2020/01/31 21:22:35.9	4.340	-0.410	0.630	-0.510
2020/01/31 21:22:36.0	4.340	-0.420	0.620	-0.490
2020/01/31 21:22:36.1	4.340	-0.420	0.610	-0.470
2020/01/31 21:22:36.2	4.340	-0.430	0.600	-0.460
2020/01/31 21:22:36.3	4.340	-0.430	0.580	-0.440
2020/01/31 21:22:36.4	4.330	-0.430	0.550	-0.420
2020/01/31 21:22:36.5	4.330	-0.430	0.520	-0.400
2020/01/31 21:22:36.6	4.330	-0.420	0.480	-0.380
2020/01/31 21:22:36.7	4.330	-0.410	0.440	-0.370
2020/01/31 21:22:36.8	4.330	-0.400	0.390	-0.350
2020/01/31 21:22:36.9	4.330	-0.390	0.340	-0.330
2020/01/31 21:22:37.0	4.330	-0.380	0.290	-0.320
2020/01/31 21:22:37.1	4.330	-0.360	0.230	-0.300
2020/01/31 21:22:37.2	4.340	-0.340	0.170	-0.300
2020/01/31 21:22:37.3	4.340	-0.320	0.110	-0.290
2020/01/31 21:22:37.4	4.350	-0.300	0.040	-0.280
2020/01/31 21:22:37.5	4.350	-0.280	-0.020	-0.280
2020/01/31 21:22:37.6	4.360	-0.260	-0.090	-0.270
2020/01/31 21:22:37.7	4.370	-0.240	-0.150	-0.270
2020/01/31 21:22:37.8	4.370	-0.210	-0.220	-0.270
2020/01/31 21:22:37.9	4.370	-0.190	-0.280	-0.280
2020/01/31 21:22:38.0	4.370	-0.160	-0.340	-0.280
2020/01/31 21:22:38.1	4.380	-0.140	-0.410	-0.290
2020/01/31 21:22:38.2	4.390	-0.110	-0.470	-0.290
2020/01/31 21:22:38.3	4.390	-0.090	-0.520	-0.300
2020/01/31 21:22:38.4	4.400	-0.060	-0.580	-0.310
2020/01/31 21:22:38.5	4.410	-0.030	-0.630	-0.310
2020/01/31 21:22:38.6	4.410	-0.010	-0.680	-0.320
2020/01/31 21:22:38.7	4.420	0.010	-0.720	-0.320
2020/01/31 21:22:38.8	4.420	0.040	-0.760	-0.330
2020/01/31 21:22:38.9	4.420	0.060	-0.800	-0.330
2020/01/31 21:22:39.0	4.420	0.080	-0.840	-0.340
2020/01/31 21:22:39.1	4.420	0.100	-0.870	-0.340
2020/01/31 21:22:39.2	4.430	0.120	-0.890	-0.340
2020/01/31 21:22:39.3	4.430	0.140	-0.910	-0.340
2020/01/31 21:22:39.4	4.430	0.160	-0.920	-0.340
2020/01/31 21:22:39.5	4.440	0.170	-0.930	-0.340
2020/01/31 21:22:39.6	4.440	0.190	-0.940	-0.340
2020/01/31 21:22:39.7	4.440	0.200	-0.940	-0.340
2020/01/31 21:22:39.8	4.450	0.220	-0.940	-0.340
2020/01/31 21:22:39.9	4.460	0.230	-0.930	-0.330
2020/01/31 21:22:40.0	4.460	0.240	-0.910	-0.330
2020/01/31 21:22:40.1	4.470	0.250	-0.900	-0.330
2020/01/31 21:22:40.2	4.480	0.260	-0.880	-0.330
2020/01/31 21:22:40.3	4.480	0.260	-0.850	-0.330
2020/01/31 21:22:40.4	4.490	0.270	-0.830	-0.330
2020/01/31 21:22:40.5	4.500	0.280	-0.790	-0.330
2020/01/31 21:22:40.6	4.510	0.280	-0.760	-0.330
2020/01/31 21:22:40.7	4.520	0.290	-0.720	-0.320
2020/01/31 21:22:40.8	4.520	0.290	-0.680	-0.320
2020/01/31 21:22:40.9	4.540	0.290	-0.640	-0.320
2020/01/31 21:22:41.0	4.550	0.300	-0.590	-0.320
2020/01/31 21:22:41.1	4.560	0.300	-0.540	-0.310
2020/01/31 21:22:41.2	4.560	0.300	-0.480	-0.300
2020/01/31 21:22:41.3	4.570	0.300	-0.430	-0.300
2020/01/31 21:22:41.4	4.570	0.290	-0.370	-0.280
2020/01/31 21:22:41.5	4.570	0.290	-0.310	-0.270
2020/01/31 21:22:41.6	4.570	0.290	-0.240	-0.260
2020/01/31 21:22:41.7	4.560	0.290	-0.180	-0.240
2020/01/31 21:22:41.8	4.550	0.280	-0.120	-0.220
2020/01/31 21:22:41.9	4.540	0.270	-0.060	-0.200
2020/01/31 21:22:42.0	4.520	0.270	0.010	-0.170
2020/01/31 21:22:42.1	4.510	0.260	0.070	-0.150
2020/01/31 21:22:42.2	4.490	0.250	0.130	-0.120
2020/01/31 21:22:42.3	4.470	0.240	0.190	-0.090
2020/01/31 21:22:42.4	4.450	0.230	0.240	-0.070
2020/01/31 21:22:42.5	4.430	0.210	0.290	-0.040
2020/01/31 21:22:42.6	4.400	0.200	0.330	-0.020
2020/01/31 21:22:42.7	4.380	0.180	0.370	0.000
2020/01/31 21:22:42.8	4.350	0.170	0.410	0.020
2020/01/31 21:22:42.9	4.330	0.150	0.440	0.040
2020/01/31 21:22:43.0	4.310	0.130	0.460	0.050
2020/01/31 21:22:43.1	4.280	0.120	0.470	0.060
2020/01/31 21:22:43.2	4.260	0.100	0.480	0.070
2020/01/31 21:22:43.3	4.230	0.080	0.480	0.070
2020/01/31 21:22:43.4	4.210	0.060	0.470	0.060
2020/01/31 21:22:43.5	4.190	0.040	0.450	0.060
2020/01/31 21:22:43.6	4.170	0.020	0.430	0.040
2020/01/31 21:22:43.7	4.150	0.000	0.400	0.030
2020/01/31 21:22:43.8	4.130	-0.020	0.360	0.010
2020/01/31 21:22:43.9	4.110	-0.040	0.320	-0.010
2020/01/31 21:22:44.0	4.090	-0.050	0.270	-0.040
2020/01/31 21:22:44.1	4.080	-0.070	0.210	-0.070
2020/01/31 21:22:44.2	4.070	-0.090	0.150	-0.110
2020/01/31 21:22:44.3	4.060	-0.110	0.090	-0.140
2020/01/31 21:22:44.4	4.060	-0.120	0.020	-0.180
2020/01/31 21:22:44.5	4.050	-0.140	-0.050	-0.230
2020/01/31 21:22:44.6	4.050	-0.150	-0.120	-0.270
2020/01/31 21:22:44.7	4.050	-0.160	-0.190	-0.310
2020/01/31 21:22:44.8	4.060	-0.170	-0.260	-0.360
2020/01/31 21:22:44.9	4.070	-0.180	-0.330	-0.400
2020/01/31 21:22:45.0	4.080	-0.190	-0.400	-0.450
2020/01/31 21:22:45.1	4.090	-0.200	-0.470	-0.490
2020/01/31 21:22:45.2	4.100	-0.210	-0.530	-0.540
2020/01/31 21:22:45.3	4.120	-0.210	-0.590	-0.580
2020/01/31 21:22:45.4	4.140	-0.210	-0.650	-0.630
2020/01/31 21:22:45.5	4.160	-0.220	-0.710	-0.670
2020/01/31 21:22:45.6	4.180	-0.220	-0.760	-0.710
2020/01/31 21:22:45.7	4.200	-0.220	-0.800	-0.750
2020/01/31 21:22:45.8	4.230	-0.210	-0.840	-0.780
2020/01/31 21:22:45.9	4.250	-0.210	-0.870	-0.810
2020/01/31 21:22:46.0	4.280	-0.200	-0.900	-0.850
2020/01/31 21:22:46.1	4.310	-0.200	-0.920	-0.870
2020/01/31 21:22:46.2	4.340	-0.190	-0.940	-0.900
2020/01/31 21:22:46.3	4.370	-0.180	-0.940	-0.920
2020/01/31 21:22:46.4	4.400	-0.160	-0.950	-0.930
2020/01/31 21:22:46.5	4.430	-0.150	-0.940	-0.940
2020/01/31 21:22:46.6	4.460	-0.140	-0.930	-0.950
2020/01/31 21:22:46.7	4.490	-0.120	-0.910	-0.950
2020/01/31 21:22:46.8	4.520	-0.110	-0.890	-0.950
2020/01/31 21:22:46.9	4.570	-0.090	-0.860	-0.940
2020/01/31 21:22:47.0	4.590	-0.070	-0.830	-0.930
2020/01/31 21:22:47.1	4.610	-0.050	-0.790	-0.910
2020/01/31 21:22:47.2	4.640	-0.040	-0.740	-0.890
2020/01/31 21:22:47.3	4.660	-0.020	-0.700	-0.870
2020/01/31 21:22:47.4	4.670	0.000	-0.650	-0.840
2020/01/31 21:22:47.5	4.690	0.020	-0.590	-0.810
2020/01/31 21:22:47.6	4.710	0.040	-0.540	-0.770
2020/01/31 21:22:47.7	4.720	0.060	-0.490	-0.740
2020/01/31 21:22:47.8	4.730	0.070	-0.430	-0.700
2020/01/31 21:22:47.9	4.740	0.090	-0.380	-0.660
2020/01/31 21:22:48.0	4.750	0.100	-0.330	-0.620
2020/01/31 21:22:48.1	4.760	0.120	-0.270	-0.580
2020/01/31 21:22:48.2	4.760	0.130	-0.220	-0.540
2020/01/31 21:22:48.3	4.770	0.140	-0.170	-0.500
2020/01/31 21:22:48.4	4.770	0.150	-0.130	-0.450
2020/01/31 21:22:48.5	4.780	0.160	-0.090	-0.410
2020/01/31 21:22:48.6	4.780	0.170	-0.050	-0.370
2020/01/31 21:22:48.7	4.780	0.180	-0.010	-0.340
2020/01/31 21:22:48.8	4.780	0.180	0.020	-0.300
2020/01/31 21:22:48.9	4.780	0.190	0.050	-0.260
2020/01/31 21:22:49.0	4.780	0.190	0.070	-0.220
2020/01/31 21:22:49.1	4.770	0.190	0.090	-0.190
2020/01/31 21:22:49.2	4.770	0.190	0.110	-0.150
2020/01/31 21:22:49.3	4.760	0.180	0.120	-0.120
2020/01/31 21:22:49.4	4.750	0.170	0.130	-0.080
2020/01/31 21:22:49.5	4.740	0.160	0.140	-0.050
2020/01/31 21:22:49.6	4.730	0.150	0.150	-0.020
2020/01/31 21:22:49.7	4.710	0.140	0.150	0.010
2020/01/31 21:22:49.8	4.690	0.120	0.150	0.040
2020/01/31 21:22:49.9	4.670	0.110	0.150	0.070
2020/01/31 21:22:50.0	4.650	0.090	0.150	0.090
2020/01/31 21:22:50.1	4.630	0.060	0.150	0.120
2020/01/31 21:22:50.2	4.600	0.040	0.140	0.140
2020/01/31 21:22:50.3	4.570	0.010	0.140	0.160
2020/01/31 21:22:50.4	4.550	-0.010	0.130	0.170
2020/01/31 21:22:50.5	4.510	-0.040	0.130	0.180
2020/01/31 21:22:50.6	4.480	-0.070	0.120	0.190
2020/01/31 21:22:50.7	4.450	-0.100	0.120	0.200
2020/01/31 21:22:50.8	4.410	-0.140	0.110	0.200
2020/01/31 21:22:50.9	4.370	-0.170	0.110	0.200
2020/01/31 21:22:51.0	4.330	-0.200	0.100	0.200
2020/01/31 21:22:51.1	4.290	-0.240	0.100	0.190
2020/01/31 21:22:51.2	4.250	-0.270	0.090	0.180
2020/01/31 21:22:51.3	4.210	-0.300	0.090	0.160
2020/01/31 21:22:51.4	4.180	-0.330	0.080	0.140
2020/01/31 21:22:51.5	4.140	-0.360	0.070	0.120
2020/01/31 21:22:51.6	4.100	-0.390	0.070	0.090
2020/01/31 21:22:51.7	4.070	-0.420	0.060	0.060
2020/01/31 21:22:51.8	4.040	-0.440	0.050	0.030
2020/01/31 21:22:51.9	4.020	-0.460	0.040	-0.010
2020/01/31 21:22:52.0	3.990	-0.480	0.030	-0.050
2020/01/31 21:22:52.1	3.970	-0.500	0.020	-0.090
2020/01/31 21:22:52.2	3.950	-0.510	0.000	-0.140
2020/01/31 21:22:52.3	3.930	-0.520	-0.020	-0.180
2020/01/31 21:22:52.4	3.920	-0.530	-0.030	-0.230
2020/01/31 21:22:52.5	3.910	-0.530	-0.050	-0.280
2020/01/31 21:22:52.6	3.900	-0.530	-0.080	-0.330
2020/01/31 21:22:52.7	3.910	-0.520	-0.100	-0.380
2020/01/31 21:22:52.8	3.910	-0.520	-0.130	-0.430
2020/01/31 21:22:52.9	3.920	-0.500	-0.160	-0.480
2020/01/31 21:22:53.0	3.930	-0.480	-0.200	-0.540
2020/01/31 21:22:53.1	3.950	-0.460	-0.230	-0.590
2020/01/31 21:22:53.2	3.980	-0.440	-0.270	-0.650
2020/01/31 21:22:53.3	4.010	-0.410	-0.310	-0.700
2020/01/31 21:22:53.4	4.040	-0.370	-0.350	-0.750
2020/01/31 21:22:53.5	4.080	-0.340	-0.400	-0.810
2020/01/31 21:22:53.6	4.120	-0.300	-0.440	-0.860
2020/01/31 21:22:53.7	4.160	-0.260	-0.490	-0.910
2020/01/31 21:22:53.8	4.210	-0.210	-0.540	-0.950
2020/01/31 21:22:53.9	4.260	-0.160	-0.580	-1.000
2020/01/31 21:22:54.0	4.310	-0.110	-0.630	-1.030
2020/01/31 21:22:54.1	4.360	-0.060	-0.680	-1.070
2020/01/31 21:22:54.2	4.410	-0.010	-0.720	-1.100
2020/01/31 21:22:54.3	4.460	0.040	-0.760	-1.130
2020/01/31 21:22:54.4	4.510	0.090	-0.800	-1.150
2020/01/31 21:22:54.5	4.560	0.140	-0.840	-1.160
2020/01/31 21:22:54.6	4.610	0.190	-0.870	-1.170
2020/01/31 21:22:54.7	4.650	0.240	-0.900	-1.180
2020/01/31 21:22:54.8	4.690	0.280	-0.920	-1.170
2020/01/31 21:22:54.9	4.740	0.330	-0.940	-1.160
2020/01/31 21:22:55.0	4.770	0.370	-0.950	-1.150
2020/01/31 21:22:55.1	4.800	0.410	-0.950	-1.130
2020/01/31 21:22:55.2	4.820	0.450	-0.950	-1.100
2020/01/31 21:22:55.3	4.840	0.480	-0.940	-1.070
2020/01/31 21:22:55.4	4.850	0.510	-0.920	-1.030
2020/01/31 21:22:55.5	4.860	0.540	-0.900	-0.990
2020/01/31 21:22:55.6	4.860	0.560	-0.870	-0.940
2020/01/31 21:22:55.7	4.860	0.580	-0.840	-0.890
2020/01/31 21:22:55.8	4.850	0.600	-0.800	-0.830
2020/01/31 21:22:55.9	4.860	0.610	-0.760	-0.770
2020/01/31 21:22:56.0	4.840	0.620	-0.710	-0.700
2020/01/31 21:22:56.1	4.820	0.630	-0.660	-0.630
2020/01/31 21:22:56.2	4.800	0.630	-0.600	-0.560
2020/01/31 21:22:56.3	4.770	0.630	-0.540	-0.490
2020/01/31 21:22:56.4	4.740	0.620	-0.480	-0.410
2020/01/31 21:22:56.5	4.700	0.610	-0.420	-0.340
2020/01/31 21:22:56.6	4.670	0.600	-0.360	-0.270
2020/01/31 21:22:56.7	4.630	0.590	-0.300	-0.200
2020/01/31 21:22:56.8	4.590	0.570	-0.240	-0.130
2020/01/31 21:22:56.9	4.560	0.550	-0.190	-0.060
2020/01/31 21:22:57.0	4.520	0.530	-0.130	0.000
2020/01/31 21:22:57.1	4.480	0.510	-0.080	0.060
2020/01/31 21:22:57.2	4.440	0.480	-0.040	0.110
2020/01/31 21:22:57.3	4.400	0.460	0.000	0.160
2020/01/31 21:22:57.4	4.360	0.430	0.040	0.190
2020/01/31 21:22:57.5	4.330	0.400	0.070	0.230
2020/01/31 21:22:57.6	4.290	0.370	0.100	0.250
2020/01/31 21:22:57.7	4.260	0.340	0.120	0.270
2020/01/31 21:22:57.8	4.220	0.310	0.130	0.290
2020/01/31 21:22:57.9	4.190	0.280	0.140	0.290
2020/01/31 21:22:58.0	4.150	0.240	0.150	0.290
2020/01/31 21:22:58.1	4.120	0.210	0.150	0.290
2020/01/31 21:22:58.2	4.090	0.180	0.140	0.280
2020/01/31 21:22:58.3	4.060	0.150	0.140	0.260
2020/01/31 21:22:58.4	4.030	0.120	0.130	0.240
2020/01/31 21:22:58.5	4.010	0.090	0.110	0.210
2020/01/31 21:22:58.6	3.990	0.060	0.100	0.180
2020/01/31 21:22:58.7	3.960	0.030	0.080	0.140
2020/01/31 21:22:58.8	3.940	0.000	0.060	0.110
2020/01/31 21:22:58.9	3.900	-0.030	0.040	0.060
2020/01/31 21:22:59.0	3.890	-0.050	0.020	0.020
2020/01/31 21:22:59.1	3.870	-0.080	-0.000	-0.030
2020/01/31 21:22:59.2	3.860	-0.110	-0.020	-0.080
2020/01/31 21:22:59.3	3.850	-0.140	-0.040	-0.140
2020/01/31 21:22:59.4	3.840	-0.160	-0.060	-0.190
2020/01/31 21:22:59.5	3.840	-0.190	-0.080	-0.240
2020/01/31 21:22:59.6	3.830	-0.210	-0.100	-0.300
2020/01/31 21:22:59.7	3.830	-0.240	-0.110	-0.350
2020/01/31 21:22:59.8	3.830	-0.260	-0.130	-0.410
2020/01/31 21:22:59.9	3.830	-0.290	-0.140	-0.470
2020/01/31 21:23:00.0	3.830	-0.310	-0.150	-0.520
2020/01/31 21:23:00.1	3.840	-0.340	-0.150	-0.570
2020/01/31 21:23:00.2	3.840	-0.360	-0.160	-0.620
2020/01/31 21:23:00.3	3.850	-0.390	-0.160	-0.660
2020/01/31 21:23:00.4	3.850	-0.410	-0.160	-0.710
2020/01/31 21:23:00.5	3.860	-0.430	-0.150	-0.750
2020/01/31 21:23:00.6	3.870	-0.450	-0.150	-0.790
2020/01/31 21:23:00.7	3.870	-0.470	-0.140	-0.820
2020/01/31 21:23:00.8	3.880	-0.490	-0.130	-0.850
2020/01/31 21:23:00.9	3.890	-0.510	-0.110	-0.880
2020/01/31 21:23:01.0	3.900	-0.530	-0.100	-0.900
2020/01/31 21:23:01.1	3.910	-0.550	-0.080	-0.920
2020/01/31 21:23:01.2	3.920	-0.560	-0.070	-0.930
2020/01/31 21:23:01.3	3.930	-0.570	-0.050	-0.940
2020/01/31 21:23:01.4	3.930	-0.580	-0.030	-0.950
2020/01/31 21:23:01.5	3.940	-0.590	-0.010	-0.950
2020/01/31 21:23:01.6	3.950	-0.600	0.010	-0.940
2020/01/31 21:23:01.7	3.960	-0.600	0.030	-0.940
2020/01/31 21:23:01.8	3.960	-0.610	0.050	-0.930
2020/01/31 21:23:01.9	3.960	-0.610	0.060	-0.910
2020/01/31 21:23:02.0	3.960	-0.600	0.080	-0.890
2020/01/31 21:23:02.1	3.970	-0.600	0.090	-0.870
2020/01/31 21:23:02.2	3.980	-0.590	0.100	-0.850
2020/01/31 21:23:02.3	3.990	-0.570	0.100	-0.820
2020/01/31 21:23:02.4	4.000	-0.560	0.100	-0.790
2020/01/31 21:23:02.5	4.010	-0.540	0.100	-0.760
2020/01/31 21:23:02.6	4.020	-0.510	0.090	-0.730
2020/01/31 21:23:02.7	4.030	-0.490	0.080	-0.700
2020/01/31 21:23:02.8	4.040	-0.460	0.070	-0.660
2020/01/31 21:23:02.9	4.060	-0.430	0.040	-0.630
2020/01/31 21:23:03.0	4.080	-0.390	0.020	-0.590
2020/01/31 21:23:03.1	4.100	-0.350	-0.020	-0.560
2020/01/31 21:23:03.2	4.110	-0.310	-0.050	-0.520
2020/01/31 21:23:03.3	4.130	-0.270	-0.100	-0.490
2020/01/31 21:23:03.4	4.150	-0.220	-0.140	-0.450
2020/01/31 21:23:03.5	4.170	-0.180	-0.190	-0.420
2020/01/31 21:23:03.6	4.200	-0.130	-0.250	-0.390
2020/01/31 21:23:03.7	4.220	-0.080	-0.300	-0.360
2020/01/31 21:23:03.8	4.240	-0.030	-0.360	-0.330
2020/01/31 21:23:03.9	4.280	0.020	-0.420	-0.300
2020/01/31 21:23:04.0	4.300	0.070	-0.480	-0.270
2020/01/31 21:23:04.1	4.320	0.120	-0.530	-0.250
2020/01/31 21:23:04.2	4.340	0.170	-0.590	-0.220
2020/01/31 21:23:04.3	4.360	0.210	-0.650	-0.200
2020/01/31 21:23:04.4	4.380	0.260	-0.700	-0.180
2020/01/31 21:23:04.5	4.390	0.300	-0.750	-0.150
2020/01/31 21:23:04.6	4.400	0.330	-0.790	-0.130
2020/01/31 21:23:04.7	4.410	0.370	-0.830	-0.110
2020/01/31 21:23:04.8	4.420	0.400	-0.870	-0.090
2020/01/31 21:23:04.9	4.420	0.430	-0.900	-0.070
2020/01/31 21:23:05.0	4.420	0.450	-0.920	-0.060
2020/01/31 21:23:05.1	4.420	0.470	-0.940	-0.040
2020/01/31 21:23:05.2	4.410	0.480	-0.950	-0.020
2020/01/31 21:23:05.3	4.400	0.490	-0.960	-0.000
2020/01/31 21:23:05.4	4.390	0.500	-0.960	0.020
2020/01/31 21:23:05.5	4.380	0.500	-0.950	0.030
2020/01/31 21:23:05.6	4.370	0.490	-0.940	0.050
2020/01/31 21:23:05.7	4.350	0.480	-0.920	0.070
2020/01/31 21:23:05.8	4.330	0.470	-0.900	0.080
2020/01/31 21:23:05.9	4.320	0.460	-0.870	0.090
2020/01/31 21:23:06.0	4.300	0.440	-0.840	0.110
2020/01/31 21:23:06.1	4.280	0.410	-0.810	0.120
2020/01/31 21:23:06.2	4.270	0.390	-0.770	0.130
2020/01/31 21:23:06.3	4.250	0.360	-0.730	0.130
2020/01/31 21:23:06.4	4.230	0.320	-0.680	0.140
2020/01/31 21:23:06.5	4.210	0.290	-0.640	0.140
2020/01/31 21:23:06.6	4.190	0.260	-0.590	0.140
2020/01/31 21:23:06.7	4.170	0.220	-0.550	0.130
2020/01/31 21:23:06.8	4.150	0.180	-0.500	0.130
2020/01/31 21:23:06.9	4.130	0.150	-0.450	0.110
2020/01/31 21:23:07.0	4.110	0.110	-0.410	0.100
2020/01/31 21:23:07.1	4.100	0.070	-0.360	0.080
2020/01/31 21:23:07.2	4.080	0.040	-0.310	0.060
2020/01/31 21:23:07.3	4.060	0.000	-0.270	0.040
2020/01/31 21:23:07.4	4.040	-0.030	-0.230	0.010
2020/01/31 21:23:07.5	4.030	-0.060	-0.180	-0.010
2020/01/31 21:23:07.6	4.010	-0.090	-0.140	-0.040
2020/01/31 21:23:07.7	3.990	-0.110	-0.100	-0.070
2020/01/31 21:23:07.8	3.970	-0.130	-0.060	-0.110
2020/01/31 21:23:07.9	3.960	-0.150	-0.030	-0.140
2020/01/31 21:23:08.0	3.940	-0.170	0.010	-0.170
2020/01/31 21:23:08.1	3.920	-0.180	0.040	-0.210
2020/01/31 21:23:08.2	3.910	-0.190	0.070	-0.240
2020/01/31 21:23:08.3	3.880	-0.200	0.100	-0.270
2020/01/31 21:23:08.4	3.860	-0.200	0.130	-0.300
2020/01/31 21:23:08.5	3.840	-0.200	0.160	-0.330
2020/01/31 21:23:08.6	3.820	-0.200	0.190	-0.360
2020/01/31 21:23:08.7	3.800	-0.190	0.210	-0.380
2020/01/31 21:23:08.8	3.780	-0.180	0.230	-0.410
2020/01/31 21:23:08.9	3.770	-0.170	0.250	-0.440
2020/01/31 21:23:09.0	3.750	-0.160	0.270	-0.460
2020/01/31 21:23:09.1	3.730	-0.140	0.280	-0.480
2020/01/31 21:23:09.2	3.720	-0.120	0.290	-0.500
2020/01/31 21:23:09.3	3.700	-0.100	0.300	-0.520
2020/01/31 21:23:09.4	3.690	-0.080	0.300	-0.540
2020/01/31 21:23:09.5	3.680	-0.060	0.300	-0.560
2020/01/31 21:23:09.6	3.670	-0.030	0.300	-0.570
2020/01/31 21:23:09.7	3.670	-0.010	0.290	-0.580
2020/01/31 21:23:09.8	3.670	0.020	0.280	-0.590
2020/01/31 21:23:09.9	3.660	0.040	0.260	-0.600
2020/01/31 21:23:10.0	3.660	0.070	0.240	-0.610
2020/01/31 21:23:10.1	3.670	0.090	0.220	-0.620
2020/01/31 21:23:10.2	3.670	0.120	0.190	-0.620
2020/01/31 21:23:10.3	3.680	0.150	0.160	-0.630
2020/01/31 21:23:10.4	3.690	0.170	0.120	-0.630
2020/01/31 21:23:10.5	3.710	0.190	0.090	-0.640
2020/01/31 21:23:10.6	3.730	0.220	0.040	-0.640
2020/01/31 21:23:10.7	3.750	0.240	-0.000	-0.650
2020/01/31 21:23:10.8	3.760	0.260	-0.050	-0.650
2020/01/31 21:23:10.9	3.790	0.270	-0.100	-0.650
2020/01/31 21:23:11.0	3.810	0.290	-0.150	-0.650
2020/01/31 21:23:11.1	3.840	0.300	-0.210	-0.640
2020/01/31 21:23:11.2	3.860	0.310	-0.260	-0.640
2020/01/31 21:23:11.3	3.880	0.320	-0.310	-0.630
2020/01/31 21:23:11.4	3.900	0.320	-0.360	-0.630
2020/01/31 21:23:11.5	3.920	0.320	-0.410	-0.620
2020/01/31 21:23:11.6	3.950	0.320	-0.460	-0.610
2020/01/31 21:23:11.7	3.970	0.320	-0.510	-0.600
2020/01/31 21:23:11.8	3.990	0.320	-0.550	-0.590
2020/01/31 21:23:11.9	4.020	0.310	-0.590	-0.580
2020/01/31 21:23:12.0	4.040	0.300	-0.630	-0.570
2020/01/31 21:23:12.1	4.060	0.290	-0.660	-0.550
2020/01/31 21:23:12.2	4.080	0.270	-0.680	-0.540
2020/01/31 21:23:12.3	4.100	0.260	-0.700	-0.530
2020/01/31 21:23:12.4	4.120	0.240	-0.720	-0.510
2020/01/31 21:23:12.5	4.140	0.220	-0.730	-0.500
2020/01/31 21:23:12.6	4.150	0.200	-0.730	-0.480
2020/01/31 21:23:12.7	4.170	0.170	-0.730	-0.460
2020/01/31 21:23:12.8	4.190	0.150	-0.720	-0.440
2020/01/31 21:23:12.9	4.200	0.130	-0.710	-0.420
2020/01/31 21:23:13.0	4.210	0.100	-0.690	-0.400
2020/01/31 21:23:13.1	4.220	0.080	-0.670	-0.380
2020/01/31 21:23:13.2	4.230	0.060	-0.640	-0.350
2020/01/31 21:23:13.3	4.240	0.030	-0.600	-0.320
2020/01/31 21:23:13.4	4.250	0.010	-0.570	-0.290
2020/01/31 21:23:13.5	4.260	-0.020	-0.520	-0.260
2020/01/31 21:23:13.6	4.260	-0.040	-0.480	-0.230
2020/01/31 21:23:13.7	4.260	-0.060	-0.430	-0.200
2020/01/31 21:23:13.8	4.260	-0.090	-0.380	-0.160
2020/01/31 21:23:13.9	4.260	-0.110	-0.330	-0.120
2020/01/31 21:23:14.0	4.250	-0.130	-0.280	-0.090
2020/01/31 21:23:14.1	4.240	-0.150	-0.230	-0.050
2020/01/31 21:23:14.2	4.230	-0.170	-0.180	-0.020
2020/01/31 21:23:14.3	4.220	-0.190	-0.130	0.020
2020/01/31 21:23:14.4	4.210	-0.210	-0.080	0.050
2020/01/31 21:23:14.5	4.190	-0.220	-0.040	0.080
2020/01/31 21:23:14.6	4.180	-0.240	0.010	0.100
2020/01/31 21:23:14.7	4.160	-0.250	0.040	0.130
2020/01/31 21:23:14.8	4.150	-0.270	0.080	0.150
2020/01/31 21:23:14.9	4.130	-0.280	0.110	0.160
2020/01/31 21:23:15.0	4.110	-0.290	0.140	0.180
2020/01/31 21:23:15.1	4.090	-0.300	0.160	0.190
2020/01/31 21:23:15.2	4.070	-0.310	0.180	0.190
2020/01/31 21:23:15.3	4.060	-0.310	0.190	0.190
2020/01/31 21:23:15.4	4.040	-0.320	0.200	0.190
2020/01/31 21:23:15.5	4.020	-0.320	0.200	0.190
2020/01/31 21:23:15.6	4.010	-0.320	0.200	0.180
2020/01/31 21:23:15.7	3.990	-0.320	0.200	0.170
2020/01/31 21:23:15.8	3.980	-0.320	0.190	0.150
2020/01/31 21:23:15.9	3.960	-0.320	0.180	0.130
2020/01/31 21:23:16.0	3.950	-0.310	0.160	0.110
2020/01/31 21:23:16.1	3.940	-0.310	0.140	0.090
2020/01/31 21:23:16.2	3.930	-0.300	0.120	0.060
2020/01/31 21:23:16.3	3.920	-0.290	0.100	0.040
2020/01/31 21:23:16.4	3.910	-0.280	0.070	0.010
2020/01/31 21:23:16.5	3.910	-0.270	0.050	-0.020
2020/01/31 21:23:16.6	3.900	-0.260	0.020	-0.040
2020/01/31 21:23:16.7	3.900	-0.250	-0.010	-0.070
2020/01/31 21:23:16.8	3.900	-0.240	-0.040	-0.100
2020/01/31 21:23:16.9	3.890	-0.230	-0.070	-0.130
2020/01/31 21:23:17.0	3.900	-0.220	-0.100	-0.150
2020/01/31 21:23:17.1	3.900	-0.200	-0.120	-0.170
2020/01/31 21:23:17.2	3.900	-0.190	-0.150	-0.190
2020/01/31 21:23:17.3	3.900	-0.180	-0.180	-0.210
2020/01/31 21:23:17.4	3.910	-0.170	-0.210	-0.230
2020/01/31 21:23:17.5	3.910	-0.160	-0.230	-0.250
2020/01/31 21:23:17.6	3.910	-0.140	-0.260	-0.260
2020/01/31 21:23:17.7	3.920	-0.130	-0.280	-0.280
2020/01/31 21:23:17.8	3.920	-0.120	-0.300	-0.300
2020/01/31 21:23:17.9	3.920	-0.110	-0.320	-0.310
2020/01/31 21:23:18.0	3.930	-0.110	-0.340	-0.320
2020/01/31 21:23:18.1	3.930	-0.100	-0.360	-0.340
2020/01/31 21:23:18.2	3.940	-0.090	-0.380	-0.360
2020/01/31 21:23:18.3	3.950	-0.090	-0.400	-0.370
2020/01/31 21:23:18.4	3.950	-0.080	-0.420	-0.390
2020/01/31 21:23:18.5	3.960	-0.080	-0.430	-0.410
2020/01/31 21:23:18.6	3.970	-0.070	-0.450	-0.430
2020/01/31 21:23:18.7	3.980	-0.070	-0.470	-0.450
2020/01/31 21:23:18.8	3.990	-0.060	-0.480	-0.470
2020/01/31 21:23:18.9	3.990	-0.060	-0.490	-0.490
2020/01/31 21:23:19.0	4.000	-0.050	-0.510	-0.510
2020/01/31 21:23:19.1	4.020	-0.050	-0.530	-0.530
2020/01/31 21:23:19.2	4.030	-0.040	-0.540	-0.560
2020/01/31 21:23:19.3	4.050	-0.030	-0.560	-0.580
2020/01/31 21:23:19.4	4.070	-0.030	-0.570	-0.600
2020/01/31 21:23:19.5	4.100	-0.020	-0.590	-0.620
2020/01/31 21:23:19.6	4.120	-0.010	-0.610	-0.640
2020/01/31 21:23:19.7	4.150	0.010	-0.620	-0.660
2020/01/31 21:23:19.8	4.170	0.020	-0.640	-0.680
2020/01/31 21:23:19.9	4.210	0.030	-0.660	-0.700
2020/01/31 21:23:20.0	4.240	0.050	-0.680	-0.720
2020/01/31 21:23:20.1	4.270	0.070	-0.690	-0.730
2020/01/31 21:23:20.2	4.300	0.090	-0.710	-0.750
2020/01/31 21:23:20.3	4.330	0.110	-0.720	-0.760
2020/01/31 21:23:20.4	4.360	0.130	-0.730	-0.770
2020/01/31 21:23:20.5	4.390	0.150	-0.740	-0.780
2020/01/31 21:23:20.6	4.410	0.170	-0.750	-0.780
2020/01/31 21:23:20.7	4.440	0.190	-0.760	-0.780
2020/01/31 21:23:20.8	4.460	0.220	-0.760	-0.780
2020/01/31 21:23:20.9	4.490	0.240	-0.770	-0.780
2020/01/31 21:23:21.0	4.510	0.260	-0.770	-0.780
2020/01/31 21:23:21.1	4.530	0.280	-0.760	-0.770
2020/01/31 21:23:21.2	4.540	0.300	-0.760	-0.750
2020/01/31 21:23:21.3	4.550	0.320	-0.750	-0.740
2020/01/31 21:23:21.4	4.560	0.340	-0.730	-0.720
2020/01/31 21:23:21.5	4.570	0.360	-0.720	-0.700
2020/01/31 21:23:21.6	4.570	0.380	-0.690	-0.670
2020/01/31 21:23:21.7	4.570	0.390	-0.670	-0.640
2020/01/31 21:23:21.8	4.570	0.400	-0.640	-0.610
2020/01/31 21:23:21.9	4.580	0.410	-0.610	-0.570
2020/01/31 21:23:22.0	4.560	0.410	-0.570	-0.530
2020/01/31 21:23:22.1	4.550	0.420	-0.520	-0.490
2020/01/31 21:23:22.2	4.530	0.420	-0.470	-0.450
2020/01/31 21:23:22.3	4.510	0.410	-0.420	-0.410
2020/01/31 21:23:22.4	4.490	0.410	-0.370	-0.360
2020/01/31 21:23:22.5	4.460	0.400	-0.310	-0.310
2020/01/31 21:23:22.6	4.430	0.390	-0.250	-0.270
2020/01/31 21:23:22.7	4.400	0.380	-0.190	-0.220
2020/01/31 21:23:22.8	4.370	0.360	-0.120	-0.170
2020/01/31 21:23:22.9	4.350	0.340	-0.060	-0.120
2020/01/31 21:23:23.0	4.310	0.320	0.000	-0.080
2020/01/31 21:23:23.1	4.280	0.300	0.060	-0.030
2020/01/31 21:23:23.2	4.240	0.270	0.130	0.010
2020/01/31 21:23:23.3	4.210	0.250	0.190	0.050
2020/01/31 21:23:23.4	4.170	0.220	0.240	0.080
2020/01/31 21:23:23.5	4.140	0.200	0.290	0.120
2020/01/31 21:23:23.6	4.100	0.170	0.340	0.150
2020/01/31 21:23:23.7	4.070	0.140	0.390	0.170
2020/01/31 21:23:23.8	4.040	0.110	0.420	0.190
2020/01/31 21:23:23.9	4.020	0.090	0.460	0.210
2020/01/31 21:23:24.0	4.000	0.060	0.480	0.220
2020/01/31 21:23:24.1	3.980	0.040	0.500	0.230
2020/01/31 21:23:24.2	3.970	0.010	0.510	0.230
2020/01/31 21:23:24.3	3.960	-0.010	0.510	0.220
2020/01/31 21:23:24.4	3.950	-0.030	0.510	0.210
2020/01/31 21:23:24.5	3.950	-0.040	0.490	0.200
2020/01/31 21:23:24.6	3.950	-0.060	0.470	0.180
2020/01/31 21:23:24.7	3.950	-0.070	0.450	0.150
2020/01/31 21:23:24.8	3.960	-0.080	0.410	0.120
2020/01/31 21:23:24.9	3.970	-0.080	0.370	0.080
2020/01/31 21:23:25.0	3.980	-0.090	0.330	0.040
2020/01/31 21:23:25.1	4.000	-0.090	0.280	-0.010
2020/01/31 21:23:25.2	4.020	-0.100	0.230	-0.050
2020/01/31 21:23:25.3	4.040	-0.100	0.170	-0.100
2020/01/31 21:23:25.4	4.060	-0.090	0.120	-0.160
2020/01/31 21:23:25.5	4.090	-0.090	0.060	-0.210
2020/01/31 21:23:25.6	4.120	-0.090	-0.000	-0.270
2020/01/31 21:23:25.7	4.140	-0.090	-0.060	-0.330
2020/01/31 21:23:25.8	4.170	-0.080	-0.120	-0.390
2020/01/31 21:23:25.9	4.180	-0.080	-0.180	-0.450
2020/01/31 21:23:26.0	4.210	-0.080	-0.230	-0.500
2020/01/31 21:23:26.1	4.240	-0.070	-0.280	-0.550
2020/01/31 21:23:26.2	4.260	-0.070	-0.320	-0.600
2020/01/31 21:23:26.3	4.280	-0.070	-0.360	-0.650
2020/01/31 21:23:26.4	4.300	-0.070	-0.400	-0.690
2020/01/31 21:23:26.5	4.320	-0.070	-0.430	-0.730
2020/01/31 21:23:26.6	4.340	-0.070	-0.450	-0.760
2020/01/31 21:23:26.7	4.360	-0.070	-0.470	-0.780
2020/01/31 21:23:26.8	4.370	-0.080	-0.480	-0.800
2020/01/31 21:23:26.9	4.380	-0.090	-0.480	-0.820
2020/01/31 21:23:27.0	4.390	-0.100	-0.480	-0.830
2020/01/31 21:23:27.1	4.390	-0.110	-0.480	-0.840
2020/01/31 21:23:27.2	4.390	-0.120	-0.470	-0.840
2020/01/31 21:23:27.3	4.400	-0.130	-0.460	-0.840
2020/01/31 21:23:27.4	4.390	-0.150	-0.450	-0.830
2020/01/31 21:23:27.5	4.390	-0.170	-0.430	-0.820
2020/01/31 21:23:27.6	4.390	-0.190	-0.410	-0.810
2020/01/31 21:23:27.7	4.380	-0.210	-0.390	-0.800
2020/01/31 21:23:27.8	4.380	-0.230	-0.360	-0.790
2020/01/31 21:23:27.9	4.380	-0.250	-0.350	-0.770
2020/01/31 21:23:28.0	4.370	-0.270	-0.330	-0.760
2020/01/31 21:23:28.1	4.360	-0.300	-0.310	-0.750
2020/01/31 21:23:28.2	4.360	-0.320	-0.290	-0.740
2020/01/31 21:23:28.3	4.360	-0.340	-0.280	-0.730
2020/01/31 21:23:28.4	4.350	-0.360	-0.260	-0.730
2020/01/31 21:23:28.5	4.350	-0.380	-0.250	-0.730
2020/01/31 21:23:28.6	4.350	-0.400	-0.250	-0.720
2020/01/31 21:23:28.7	4.350	-0.410	-0.240	-0.730
2020/01/31 21:23:28.8	4.350	-0.430	-0.240	-0.730
2020/01/31 21:23:28.9	4.360	-0.440	-0.250	-0.740
2020/01/31 21:23:29.0	4.370	-0.450	-0.250	-0.750
2020/01/31 21:23:29.1	4.380	-0.450	-0.270	-0.760
2020/01/31 21:23:29.2	4.390	-0.450	-0.280	-0.770
2020/01/31 21:23:29.3	4.400	-0.450	-0.300	-0.780
2020/01/31 21:23:29.4	4.410	-0.450	-0.320	-0.800
2020/01/31 21:23:29.5	4.420	-0.440	-0.350	-0.810
2020/01/31 21:23:29.6	4.440	-0.420	-0.370	-0.820
2020/01/31 21:23:29.7	4.450	-0.410	-0.400	-0.840
2020/01/31 21:23:29.8	4.470	-0.390	-0.430	-0.850
2020/01/31 21:23:29.9	4.480	-0.360	-0.460	-0.850
2020/01/31 21:23:30.0	4.500	-0.340	-0.490	-0.860
2020/01/31 21:23:30.1	4.510	-0.310	-0.510	-0.870
2020/01/31 21:23:30.2	4.530	-0.280	-0.540	-0.870
2020/01/31 21:23:30.3	4.540	-0.240	-0.560	-0.870
2020/01/31 21:23:30.4	4.550	-0.210	-0.580	-0.870
2020/01/31 21:23:30.5	4.560	-0.170	-0.590	-0.870
2020/01/31 21:23:30.6	4.570	-0.140	-0.610	-0.870
2020/01/31 21:23:30.7	4.580	-0.100	-0.610	-0.860
2020/01/31 21:23:30.8	4.580	-0.060	-0.620	-0.850
2020/01/31 21:23:30.9	4.600	-0.030	-0.610	-0.840
2020/01/31 21:23:31.0	4.600	0.010	-0.610	-0.820
2020/01/31 21:23:31.1	4.600	0.040	-0.590	-0.810
2020/01/31 21:23:31.2	4.590	0.080	-0.580	-0.790
2020/01/31 21:23:31.3	4.590	0.110	-0.550	-0.770
2020/01/31 21:23:31.4	4.580	0.140	-0.530	-0.740
2020/01/31 21:23:31.5	4.560	0.160	-0.500	-0.710
2020/01/31 21:23:31.6	4.550	0.190	-0.460	-0.680
2020/01/31 21:23:31.7	4.530	0.210	-0.420	-0.650
2020/01/31 21:23:31.8	4.510	0.230	-0.380	-0.620
2020/01/31 21:23:31.9	4.490	0.240	-0.340	-0.570
2020/01/31 21:23:32.0	4.470	0.260	-0.290	-0.530
2020/01/31 21:23:32.1	4.440	0.270	-0.240	-0.490
2020/01/31 21:23:32.2	4.420	0.270	-0.190	-0.440
2020/01/31 21:23:32.3	4.390	0.280	-0.140	-0.400
2020/01/31 21:23:32.4	4.360	0.280	-0.090	-0.350
2020/01/31 21:23:32.5	4.330	0.280	-0.050	-0.300
2020/01/31 21:23:32.6	4.300	0.280	-0.000	-0.250
2020/01/31 21:23:32.7	4.260	0.270	0.040	-0.200
2020/01/31 21:23:32.8	4.230	0.260	0.080	-0.150
2020/01/31 21:23:32.9	4.200	0.260	0.120	-0.110
2020/01/31 21:23:33.0	4.160	0.250	0.150	-0.060
2020/01/31 21:23:33.1	4.130	0.240	0.180	-0.020
2020/01/31 21:23:33.2	4.110	0.220	0.200	0.020
2020/01/31 21:23:33.3	4.080	0.210	0.210	0.060
2020/01/31 21:23:33.4	4.050	0.200	0.220	0.090
2020/01/31 21:23:33.5	4.030	0.180	0.230	0.120
2020/01/31 21:23:33.6	4.000	0.170	0.220	0.150
2020/01/31 21:23:33.7	3.980	0.160	0.220	0.170
2020/01/31 21:23:33.8	3.960	0.150	0.200	0.180
2020/01/31 21:23:33.9	3.930	0.140	0.180	0.190
2020/01/31 21:23:34.0	3.920	0.130	0.160	0.190
2020/01/31 21:23:34.1	3.900	0.120	0.130	0.190
2020/01/31 21:23:34.2	3.890	0.110	0.090	0.190
2020/01/31 21:23:34.3	3.880	0.100	0.050	0.170
2020/01/31 21:23:34.4	3.870	0.100	0.010	0.160
2020/01/31 21:23:34.5	3.870	0.090	-0.040	0.140
2020/01/31 21:23:34.6	3.870	0.090	-0.090	0.110
2020/01/31 21:23:34.7	3.870	0.090	-0.140	0.080
2020/01/31 21:23:34.8	3.870	0.090	-0.200	0.050
2020/01/31 21:23:34.9	3.870	0.100	-0.250	0.020
2020/01/31 21:23:35.0	3.870	0.100	-0.310	-0.020
2020/01/31 21:23:35.1	3.880	0.100	-0.360	-0.060
2020/01/31 21:23:35.2	3.890	0.110	-0.420	-0.100
2020/01/31 21:23:35.3	3.900	0.120	-0.470	-0.140
2020/01/31 21:23:35.4	3.920	0.130	-0.530	-0.180
2020/01/31 21:23:35.5	3.930	0.140	-0.580	-0.230
2020/01/31 21:23:35.6	3.950	0.150	-0.620	-0.270
2020/01/31 21:23:35.7	3.970	0.160	-0.670	-0.320
2020/01/31 21:23:35.8	4.000	0.170	-0.710	-0.360
2020/01/31 21:23:35.9	4.020	0.180	-0.750	-0.410
2020/01/31 21:23:36.0	4.050	0.200	-0.780	-0.460
2020/01/31 21:23:36.1	4.080	0.210	-0.810	-0.500
2020/01/31 21:23:36.2	4.120	0.220	-0.830	-0.550
2020/01/31 21:23:36.3	4.150	0.230	-0.850	-0.590
2020/01/31 21:23:36.4	4.190	0.240	-0.860	-0.640
2020/01/31 21:23:36.5	4.230	0.250	-0.870	-0.680
2020/01/31 21:23:36.6	4.270	0.260	-0.880	-0.730
2020/01/31 21:23:36.7	4.320	0.270	-0.880	-0.770
2020/01/31 21:23:36.8	4.360	0.270	-0.870	-0.810
2020/01/31 21:23:36.9	4.410	0.280	-0.860	-0.850
2020/01/31 21:23:37.0	4.460	0.280	-0.850	-0.880
2020/01/31 21:23:37.1	4.510	0.280	-0.830	-0.920
2020/01/31 21:23:37.2	4.560	0.280	-0.800	-0.950
2020/01/31 21:23:37.3	4.600	0.270	-0.780	-0.980
2020/01/31 21:23:37.4	4.650	0.270	-0.740	-1.000
2020/01/31 21:23:37.5	4.690	0.260	-0.700	-1.020
2020/01/31 21:23:37.6	4.730	0.250	-0.660	-1.030
2020/01/31 21:23:37.7	4.770	0.230	-0.610	-1.040
2020/01/31 21:23:37.8	4.800	0.210	-0.560	-1.040
2020/01/31 21:23:37.9	4.830	0.190	-0.510	-1.040
2020/01/31 21:23:38.0	4.860	0.170	-0.450	-1.030
2020/01/31 21:23:38.1	4.870	0.140	-0.380	-1.020
2020/01/31 21:23:38.2	4.890	0.110	-0.320	-1.000
2020/01/31 21:23:38.3	4.890	0.080	-0.250	-0.980
2020/01/31 21:23:38.4	4.900	0.040	-0.170	-0.960
2020/01/31 21:23:38.5	4.890	0.000	-0.100	-0.930
2020/01/31 21:23:38.6	4.890	-0.040	-0.030	-0.900
2020/01/31 21:23:38.7	4.880	-0.080	0.050	-0.860
2020/01/31 21:23:38.8	4.860	-0.120	0.120	-0.830
2020/01/31 21:23:38.9	4.840	-0.160	0.190	-0.780
2020/01/31 21:23:39.0	4.820	-0.210	0.260	-0.740
2020/01/31 21:23:39.1	4.790	-0.250	0.330	-0.700
2020/01/31 21:23:39.2	4.760	-0.300	0.400	-0.660
2020/01/31 21:23:39.3	4.730	-0.340	0.460	-0.620
2020/01/31 21:23:39.4	4.700	-0.390	0.510	-0.570
2020/01/31 21:23:39.5	4.660	-0.430	0.560	-0.530
2020/01/31 21:23:39.6	4.630	-0.470	0.610	-0.490
2020/01/31 21:23:39.7	4.590	-0.510	0.640	-0.450
2020/01/31 21:23:39.8	4.550	-0.540	0.670	-0.410
2020/01/31 21:23:39.9	4.510	-0.570	0.700	-0.370
2020/01/31 21:23:40.0	4.470	-0.600	0.710	-0.340
2020/01/31 21:23:40.1	4.430	-0.630	0.720	-0.310
2020/01/31 21:23:40.2	4.400	-0.650	0.720	-0.270
2020/01/31 21:23:40.3	4.360	-0.660	0.710	-0.250
2020/01/31 21:23:40.4	4.320	-0.670	0.690	-0.220
2020/01/31 21:23:40.5	4.290	-0.680	0.660	-0.200
2020/01/31 21:23:40.6	4.260	-0.680	0.630	-0.180
2020/01/31 21:23:40.7	4.220	-0.670	0.580	-0.160
2020/01/31 21:23:40.8	4.190	-0.660	0.530	-0.150
2020/01/31 21:23:40.9	4.160	-0.650	0.470	-0.130
2020/01/31 21:23:41.0	4.130	-0.620	0.410	-0.120
2020/01/31 21:23:41.1	4.100	-0.600	0.340	-0.120
2020/01/31 21:23:41.2	4.080	-0.570	0.260	-0.110
2020/01/31 21:23:41.3	4.050	-0.530	0.180	-0.110
2020/01/31 21:23:41.4	4.020	-0.490	0.100	-0.110
2020/01/31 21:23:41.5	4.000	-0.450	0.010	-0.110
2020/01/31 21:23:41.6	3.980	-0.400	-0.080	-0.120
2020/01/31 21:23:41.7	3.960	-0.350	-0.170	-0.130
2020/01/31 21:23:41.8	3.940	-0.300	-0.260	-0.140
2020/01/31 21:23:41.9	3.910	-0.250	-0.350	-0.150
2020/01/31 21:23:42.0	3.890	-0.190	-0.440	-0.160
2020/01/31 21:23:42.1	3.880	-0.130	-0.520	-0.180
2020/01/31 21:23:42.2	3.860	-0.080	-0.610	-0.190
2020/01/31 21:23:42.3	3.850	-0.020	-0.680	-0.210
2020/01/31 21:23:42.4	3.840	0.040	-0.760	-0.230
2020/01/31 21:23:42.5	3.830	0.090	-0.820	-0.240
2020/01/31 21:23:42.6	3.830	0.140	-0.890	-0.260
2020/01/31 21:23:42.7	3.820	0.200	-0.940	-0.270
2020/01/31 21:23:42.8	3.820	0.250	-0.990	-0.290
2020/01/31 21:23:42.9	3.810	0.290	-1.030	-0.300
2020/01/31 21:23:43.0	3.810	0.330	-1.060	-0.310
2020/01/31 21:23:43.1	3.810	0.370	-1.090	-0.320
2020/01/31 21:23:43.2	3.820	0.410	-1.100	-0.330
2020/01/31 21:23:43.3	3.820	0.440	-1.110	-0.330
2020/01/31 21:23:43.4	3.820	0.460	-1.110	-0.340
2020/01/31 21:23:43.5	3.830	0.490	-1.100	-0.340
2020/01/31 21:23:43.6	3.840	0.500	-1.080	-0.340
2020/01/31 21:23:43.7	3.850	0.520	-1.060	-0.340
2020/01/31 21:23:43.8	3.860	0.520	-1.030	-0.340
2020/01/31 21:23:43.9	3.880	0.530	-0.990	-0.330
2020/01/31 21:23:44.0	3.890	0.520	-0.950	-0.330
2020/01/31 21:23:44.1	3.900	0.520	-0.900	-0.320
2020/01/31 21:23:44.2	3.910	0.510	-0.840	-0.310
2020/01/31 21:23:44.3	3.920	0.490	-0.790	-0.300
2020/01/31 21:23:44.4	3.940	0.470	-0.720	-0.290
2020/01/31 21:23:44.5	3.950	0.450	-0.660	-0.280
2020/01/31 21:23:44.6	3.960	0.430	-0.600	-0.270
2020/01/31 21:23:44.7	3.970	0.400	-0.530	-0.260
2020/01/31 21:23:44.8	3.980	0.370	-0.460	-0.250
2020/01/31 21:23:44.9	4.000	0.340	-0.390	-0.230
2020/01/31 21:23:45.0	4.010	0.310	-0.330	-0.210
2020/01/31 21:23:45.1	4.020	0.270	-0.260	-0.200
2020/01/31 21:23:45.2	4.020	0.240	-0.190	-0.170
2020/01/31 21:23:45.3	4.030	0.200	-0.130	-0.150
2020/01/31 21:23:45.4	4.030	0.170	-0.070	-0.130
2020/01/31 21:23:45.5	4.040	0.140	-0.010	-0.100
2020/01/31 21:23:45.6	4.040	0.100	0.040	-0.070
2020/01/31 21:23:45.7	4.040	0.070	0.090	-0.050
2020/01/31 21:23:45.8	4.040	0.040	0.140	-0.020
2020/01/31 21:23:45.9	4.030	0.010	0.180	0.010
2020/01/31 21:23:46.0	4.030	-0.010	0.210	0.040
2020/01/31 21:23:46.1	4.030	-0.040	0.240	0.070
2020/01/31 21:23:46.2	4.030	-0.060	0.260	0.100
2020/01/31 21:23:46.3	4.030	-0.080	0.280	0.120
2020/01/31 21:23:46.4	4.030	-0.090	0.290	0.150
2020/01/31 21:23:46.5	4.030	-0.110	0.290	0.170
2020/01/31 21:23:46.6	4.030	-0.120	0.290	0.190
2020/01/31 21:23:46.7	4.030	-0.130	0.280	0.200
2020/01/31 21:23:46.8	4.040	-0.130	0.260	0.210
2020/01/31 21:23:46.9	4.050	-0.130	0.230	0.220
2020/01/31 21:23:47.0	4.050	-0.130	0.200	0.220
2020/01/31 21:23:47.1	4.060	-0.130	0.160	0.230
2020/01/31 21:23:47.2	4.070	-0.120	0.110	0.220
2020/01/31 21:23:47.3	4.080	-0.110	0.060	0.220
2020/01/31 21:23:47.4	4.090	-0.090	0.010	0.210
2020/01/31 21:23:47.5	4.110	-0.080	-0.050	0.190
2020/01/31 21:23:47.6	4.120	-0.060	-0.110	0.180
2020/01/31 21:23:47.7	4.140	-0.040	-0.180	0.160
2020/01/31 21:23:47.8	4.150	-0.020	-0.250	0.130
2020/01/31 21:23:47.9	4.180	0.010	-0.310	0.110
2020/01/31 21:23:48.0	4.190	0.030	-0.380	0.080
2020/01/31 21:23:48.1	4.210	0.060	-0.440	0.050
2020/01/31 21:23:48.2	4.230	0.080	-0.510	0.030
2020/01/31 21:23:48.3	4.250	0.110	-0.560	-0.000
2020/01/31 21:23:48.4	4.260	0.130	-0.620	-0.030
2020/01/31 21:23:48.5	4.280	0.160	-0.660	-0.060
2020/01/31 21:23:48.6	4.300	0.180	-0.710	-0.090
2020/01/31 21:23:48.7	4.310	0.200	-0.740	-0.120
2020/01/31 21:23:48.8	4.320	0.220	-0.770	-0.150
2020/01/31 21:23:48.9	4.340	0.240	-0.790	-0.180
2020/01/31 21:23:49.0	4.340	0.250	-0.800	-0.200
2020/01/31 21:23:49.1	4.350	0.260	-0.800	-0.230
2020/01/31 21:23:49.2	4.360	0.270	-0.800	-0.250
2020/01/31 21:23:49.3	4.360	0.280	-0.790	-0.270
2020/01/31 21:23:49.4	4.360	0.280	-0.760	-0.290
2020/01/31 21:23:49.5	4.360	0.280	-0.730	-0.310
2020/01/31 21:23:49.6	4.350	0.270	-0.700	-0.330
2020/01/31 21:23:49.7	4.340	0.260	-0.650	-0.340
2020/01/31 21:23:49.8	4.330	0.250	-0.600	-0.350
2020/01/31 21:23:49.9	4.320	0.230	-0.550	-0.370
2020/01/31 21:23:50.0	4.300	0.210	-0.490	-0.370
2020/01/31 21:23:50.1	4.290	0.180	-0.430	-0.380
2020/01/31 21:23:50.2	4.270	0.160	-0.360	-0.390
2020/01/31 21:23:50.3	4.250	0.120	-0.290	-0.390
2020/01/31 21:23:50.4	4.230	0.090	-0.220	-0.390
2020/01/31 21:23:50.5	4.210	0.050	-0.150	-0.400
2020/01/31 21:23:50.6	4.190	0.010	-0.090	-0.400
2020/01/31 21:23:50.7	4.170	-0.030	-0.020	-0.400
2020/01/31 21:23:50.8	4.150	-0.070	0.040	-0.400
2020/01/31 21:23:50.9	4.110	-0.110	0.110	-0.400
2020/01/31 21:23:51.0	4.090	-0.160	0.160	-0.410
2020/01/31 21:23:51.1	4.070	-0.200	0.210	-0.410
2020/01/31 21:23:51.2	4.060	-0.240	0.250	-0.410
2020/01/31 21:23:51.3	4.040	-0.280	0.290	-0.420
2020/01/31 21:23:51.4	4.020	-0.320	0.320	-0.430
2020/01/31 21:23:51.5	4.010	-0.360	0.350	-0.440
2020/01/31 21:23:51.6	4.000	-0.390	0.360	-0.440
2020/01/31 21:23:51.7	3.990	-0.420	0.370	-0.450
2020/01/31 21:23:51.8	3.980	-0.450	0.370	-0.460
2020/01/31 21:23:51.9	3.960	-0.470	0.360	-0.470
2020/01/31 21:23:52.0	3.960	-0.490	0.350	-0.480
2020/01/31 21:23:52.1	3.950	-0.510	0.330	-0.490
2020/01/31 21:23:52.2	3.950	-0.520	0.310	-0.500
2020/01/31 21:23:52.3	3.950	-0.520	0.280	-0.500
2020/01/31 21:23:52.4	3.950	-0.520	0.250	-0.510
2020/01/31 21:23:52.5	3.950	-0.520	0.210	-0.510
2020/01/31 21:23:52.6	3.950	-0.510	0.170	-0.520
2020/01/31 21:23:52.7	3.950	-0.490	0.120	-0.520
2020/01/31 21:23:52.8	3.950	-0.470	0.080	-0.520
2020/01/31 21:23:52.9	3.950	-0.450	0.030	-0.520
2020/01/31 21:23:53.0	3.960	-0.420	-0.010	-0.520
2020/01/31 21:23:53.1	3.960	-0.390	-0.060	-0.520
2020/01/31 21:23:53.2	3.970	-0.360	-0.100	-0.510
2020/01/31 21:23:53.3	3.970	-0.320	-0.150	-0.510
2020/01/31 21:23:53.4	3.980	-0.280	-0.190	-0.510
2020/01/31 21:23:53.5	3.990	-0.240	-0.230	-0.500
2020/01/31 21:23:53.6	4.000	-0.200	-0.270	-0.500
2020/01/31 21:23:53.7	4.000	-0.160	-0.300	-0.490
2020/01/31 21:23:53.8	4.010	-0.120	-0.330	-0.490
2020/01/31 21:23:53.9	4.020	-0.070	-0.360	-0.480
2020/01/31 21:23:54.0	4.030	-0.030	-0.380	-0.480
2020/01/31 21:23:54.1	4.040	0.010	-0.400	-0.470
2020/01/31 21:23:54.2	4.050	0.050	-0.420	-0.450
2020/01/31 21:23:54.3	4.060	0.090	-0.430	-0.440
2020/01/31 21:23:54.4	4.070	0.120	-0.440	-0.420
2020/01/31 21:23:54.5	4.080	0.160	-0.450	-0.400
2020/01/31 21:23:54.6	4.090	0.190	-0.450	-0.380
2020/01/31 21:23:54.7	4.100	0.220	-0.440	-0.360
2020/01/31 21:23:54.8	4.100	0.240	-0.430	-0.330
2020/01/31 21:23:54.9	4.110	0.260	-0.420	-0.290
2020/01/31 21:23:55.0	4.110	0.280	-0.410	-0.260
2020/01/31 21:23:55.1	4.110	0.290	-0.390	-0.220
2020/01/31 21:23:55.2	4.120	0.300	-0.370	-0.190
2020/01/31 21:23:55.3	4.120	0.310	-0.340	-0.150
2020/01/31 21:23:55.4	4.120	0.310	-0.320	-0.110
2020/01/31 21:23:55.5	4.110	0.310	-0.290	-0.070
2020/01/31 21:23:55.6	4.110	0.310	-0.260	-0.030
2020/01/31 21:23:55.7	4.110	0.300	-0.230	0.010
2020/01/31 21:23:55.8	4.100	0.290	-0.210	0.050
2020/01/31 21:23:55.9	4.120	0.270	-0.190	0.090
2020/01/31 21:23:56.0	4.110	0.260	-0.160	0.130
2020/01/31 21:23:56.1	4.110	0.240	-0.140	0.160
2020/01/31 21:23:56.2	4.100	0.210	-0.120	0.180
2020/01/31 21:23:56.3	4.100	0.190	-0.110	0.210
2020/01/31 21:23:56.4	4.100	0.170	-0.100	0.230
2020/01/31 21:23:56.5	4.090	0.140	-0.090	0.240
2020/01/31 21:23:56.6	4.090	0.120	-0.090	0.250
2020/01/31 21:23:56.7	4.080	0.100	-0.090	0.260
2020/01/31 21:23:56.8	4.080	0.070	-0.100	0.260
2020/01/31 21:23:56.9	4.070	0.050	-0.110	0.260
2020/01/31 21:23:57.0	4.060	0.030	-0.130	0.250
2020/01/31 21:23:57.1	4.060	0.010	-0.140	0.240
2020/01/31 21:23:57.2	4.050	-0.010	-0.170	0.230
2020/01/31 21:23:57.3	4.050	-0.020	-0.190	0.220
2020/01/31 21:23:57.4	4.040	-0.030	-0.220	0.200
2020/01/31 21:23:57.5	4.040	-0.040	-0.250	0.180
2020/01/31 21:23:57.6	4.040	-0.050	-0.280	0.160
2020/01/31 21:23:57.7	4.040	-0.050	-0.320	0.140
2020/01/31 21:23:57.8	4.030	-0.050	-0.350	0.120
2020/01/31 21:23:57.9	4.040	-0.050	-0.400	0.090
2020/01/31 21:23:58.0	4.040	-0.040	-0.440	0.070
2020/01/31 21:23:58.1	4.040	-0.030	-0.480	0.040
2020/01/31 21:23:58.2	4.040	-0.010	-0.520	0.010
2020/01/31 21:23:58.3	4.050	0.000	-0.560	-0.020
2020/01/31 21:23:58.4	4.050	0.030	-0.600	-0.060
2020/01/31 21:23:58.5	4.060	0.050	-0.640	-0.090
2020/01/31 21:23:58.6	4.060	0.080	-0.680	-0.130
2020/01/31 21:23:58.7	4.070	0.100	-0.720	-0.160
2020/01/31 21:23:58.8	4.080	0.140	-0.760	-0.200
2020/01/31 21:23:58.9	4.080	0.170	-0.800	-0.230
2020/01/31 21:23:59.0	4.090	0.200	-0.830	-0.270
2020/01/31 21:23:59.1	4.100	0.240	-0.860	-0.300
2020/01/31 21:23:59.2	4.110	0.270	-0.880	-0.340
2020/01/31 21:23:59.3	4.110	0.310	-0.900	-0.370
2020/01/31 21:23:59.4	4.120	0.340	-0.920	-0.400
2020/01/31 21:23:59.5	4.130	0.380	-0.930	-0.430
2020/01/31 21:23:59.6	4.130	0.410	-0.940	-0.460
2020/01/31 21:23:59.7	4.140	0.450	-0.940	-0.480
2020/01/31 21:23:59.8	4.140	0.470	-0.940	-0.500
2020/01/31 21:23:59.9	4.130	0.500	-0.930	-0.520
2020/01/31 21:24:00.0	4.120	0.530	-0.910	-0.530
2020/01/31 21:24:00.1	4.120	0.550	-0.890	-0.550
2020/01/31 21:24:00.2	4.110	0.560	-0.860	-0.550
2020/01/31 21:24:00.3	4.100	0.570	-0.830	-0.560
2020/01/31 21:24:00.4	4.090	0.580	-0.790	-0.570
2020/01/31 21:24:00.5	4.080	0.590	-0.740	-0.570
2020/01/31 21:24:00.6	4.070	0.580	-0.690	-0.570
2020/01/31 21:24:00.7	4.060	0.580	-0.640	-0.570
2020/01/31 21:24:00.8	4.050	0.570	-0.580	-0.570
2020/01/31 21:24:00.9	4.040	0.550	-0.520	-0.560
2020/01/31 21:24:01.0	4.030	0.530	-0.450	-0.560
2020/01/31 21:24:01.1	4.020	0.500	-0.380	-0.560
2020/01/31 21:24:01.2	4.010	0.470	-0.310	-0.550
2020/01/31 21:24:01.3	3.990	0.430	-0.230	-0.550
2020/01/31 21:24:01.4	3.980	0.390	-0.160	-0.550
2020/01/31 21:24:01.5	3.980	0.340	-0.080	-0.550
2020/01/31 21:24:01.6	3.970	0.290	-0.010	-0.550
2020/01/31 21:24:01.7	3.960	0.240	0.060	-0.560
2020/01/31 21:24:01.8	3.960	0.180	0.130	-0.560
2020/01/31 21:24:01.9	3.960	0.120	0.200	-0.560
2020/01/31 21:24:02.0	3.960	0.060	0.260	-0.570
2020/01/31 21:24:02.1	3.960	-0.000	0.320	-0.570
2020/01/31 21:24:02.2	3.960	-0.070	0.370	-0.580
2020/01/31 21:24:02.3	3.970	-0.130	0.420	-0.590
2020/01/31 21:24:02.4	3.970	-0.200	0.460	-0.600
2020/01/31 21:24:02.5	3.980	-0.260	0.490	-0.620
2020/01/31 21:24:02.6	4.000	-0.330	0.520	-0.630
2020/01/31 21:24:02.7	4.010	-0.390	0.540	-0.640
2020/01/31 21:24:02.8	4.030	-0.450	0.560	-0.660
2020/01/31 21:24:02.9	4.040	-0.500	0.570	-0.680
2020/01/31 21:24:03.0	4.060	-0.560	0.570	-0.700
2020/01/31 21:24:03.1	4.080	-0.610	0.560	-0.720
2020/01/31 21:24:03.2	4.110	-0.660	0.550	-0.740
2020/01/31 21:24:03.3	4.130	-0.700	0.530	-0.770
2020/01/31 21:24:03.4	4.160	-0.740	0.500	-0.790
2020/01/31 21:24:03.5	4.190	-0.780	0.470	-0.820
2020/01/31 21:24:03.6	4.220	-0.810	0.430	-0.850
2020/01/31 21:24:03.7	4.240	-0.830	0.390	-0.870
2020/01/31 21:24:03.8	4.270	-0.850	0.350	-0.900
2020/01/31 21:24:03.9	4.300	-0.870	0.300	-0.930
2020/01/31 21:24:04.0	4.330	-0.880	0.250	-0.960
2020/01/31 21:24:04.1	4.350	-0.880	0.200	-0.980
2020/01/31 21:24:04.2	4.380	-0.880	0.140	-1.000
2020/01/31 21:24:04.3	4.390	-0.880	0.090	-1.020
2020/01/31 21:24:04.4	4.410	-0.870	0.040	-1.040
2020/01/31 21:24:04.5	4.420	-0.850	-0.010	-1.050
2020/01/31 21:24:04.6	4.430	-0.830	-0.050	-1.050
2020/01/31 21:24:04.7	4.430	-0.810	-0.100	-1.050
2020/01/31 21:24:04.8	4.430	-0.780	-0.140	-1.050
2020/01/31 21:24:04.9	4.440	-0.750	-0.180	-1.030
2020/01/31 21:24:05.0	4.430	-0.710	-0.210	-1.020
2020/01/31 21:24:05.1	4.420	-0.670	-0.250	-1.000
2020/01/31 21:24:05.2	4.400	-0.630	-0.270	-0.980
2020/01/31 21:24:05.3	4.390	-0.580	-0.300	-0.950
2020/01/31 21:24:05.4	4.360	-0.540	-0.320	-0.910
2020/01/31 21:24:05.5	4.340	-0.490	-0.330	-0.880
2020/01/31 21:24:05.6	4.310	-0.430	-0.350	-0.840
2020/01/31 21:24:05.7	4.290	-0.380	-0.360	-0.790
2020/01/31 21:24:05.8	4.260	-0.330	-0.360	-0.750
2020/01/31 21:24:05.9	4.220	-0.270	-0.370	-0.700
2020/01/31 21:24:06.0	4.190	-0.220	-0.370	-0.650
2020/01/31 21:24:06.1	4.160	-0.160	-0.370	-0.600
2020/01/31 21:24:06.2	4.130	-0.100	-0.370	-0.550
2020/01/31 21:24:06.3	4.100	-0.050	-0.370	-0.490
2020/01/31 21:24:06.4	4.070	0.010	-0.360	-0.440
2020/01/31 21:24:06.5	4.040	0.060	-0.360	-0.380
2020/01/31 21:24:06.6	4.010	0.120	-0.350	-0.330
2020/01/31 21:24:06.7	3.990	0.170	-0.350	-0.270
2020/01/31 21:24:06.8	3.970	0.230	-0.340	-0.220
2020/01/31 21:24:06.9	3.950	0.280	-0.340	-0.160
2020/01/31 21:24:07.0	3.930	0.330	-0.330	-0.110
2020/01/31 21:24:07.1	3.910	0.380	-0.330	-0.060
2020/01/31 21:24:07.2	3.900	0.420	-0.330	-0.010
2020/01/31 21:24:07.3	3.890	0.470	-0.330	0.040
2020/01/31 21:24:07.4	3.880	0.510	-0.320	0.080
2020/01/31 21:24:07.5	3.870	0.550	-0.320	0.120
2020/01/31 21:24:07.6	3.870	0.590	-0.330	0.160
2020/01/31 21:24:07.7	3.860	0.620	-0.330	0.200
2020/01/31 21:24:07.8	3.860	0.660	-0.330	0.230
2020/01/31 21:24:07.9	3.860	0.690	-0.330	0.260
2020/01/31 21:24:08.0	3.860	0.710	-0.340	0.280
2020/01/31 21:24:08.1	3.860	0.730	-0.340	0.300
2020/01/31 21:24:08.2	3.860	0.750	-0.340	0.310
2020/01/31 21:24:08.3	3.860	0.760	-0.340	0.320
2020/01/31 21:24:08.4	3.860	0.770	-0.340	0.320
2020/01/31 21:24:08.5	3.860	0.780	-0.340	0.320
2020/01/31 21:24:08.6	3.870	0.780	-0.340	0.310
2020/01/31 21:24:08.7	3.870	0.770	-0.340	0.300
2020/01/31 21:24:08.8	3.870	0.760	-0.340	0.280
2020/01/31 21:24:08.9	3.860	0.740	-0.330	0.270
2020/01/31 21:24:09.0	3.860	0.720	-0.330	0.240
2020/01/31 21:24:09.1	3.860	0.700	-0.320	0.220
2020/01/31 21:24:09.2	3.860	0.670	-0.320	0.190
2020/01/31 21:24:09.3	3.860	0.640	-0.310	0.160
2020/01/31 21:24:09.4	3.850	0.600	-0.310	0.130
2020/01/31 21:24:09.5	3.850	0.560	-0.300	0.090
2020/01/31 21:24:09.6	3.850	0.510	-0.300	0.060
2020/01/31 21:24:09.7	3.850	0.470	-0.290	0.020
2020/01/31 21:24:09.8	3.840	0.420	-0.290	-0.020
2020/01/31 21:24:09.9	3.840	0.360	-0.290	-0.050
2020/01/31 21:24:10.0	3.840	0.310	-0.290	-0.090
2020/01/31 21:24:10.1	3.830	0.250	-0.290	-0.130
2020/01/31 21:24:10.2	3.830	0.200	-0.300	-0.170
2020/01/31 21:24:10.3	3.830	0.140	-0.310	-0.210
2020/01/31 21:24:10.4	3.820	0.080	-0.320	-0.250
2020/01/31 21:24:10.5	3.820	0.030	-0.330	-0.290
2020/01/31 21:24:10.6	3.820	-0.030	-0.350	-0.330
2020/01/31 21:24:10.7	3.820	-0.080	-0.370	-0.370
2020/01/31 21:24:10.8	3.830	-0.130	-0.390	-0.420
2020/01/31 21:24:10.9	3.830	-0.180	-0.420	-0.470
2020/01/31 21:24:11.0	3.830	-0.220	-0.440	-0.510
2020/01/31 21:24:11.1	3.840	-0.270	-0.480	-0.560
2020/01/31 21:24:11.2	3.850	-0.310	-0.510	-0.620
2020/01/31 21:24:11.3	3.860	-0.340	-0.540	-0.670
2020/01/31 21:24:11.4	3.880	-0.370	-0.580	-0.720
2020/01/31 21:24:11.5	3.890	-0.400	-0.610	-0.770
2020/01/31 21:24:11.6	3.910	-0.420	-0.650	-0.830
2020/01/31 21:24:11.7	3.930	-0.440	-0.680	-0.880
2020/01/31 21:24:11.8	3.950	-0.450	-0.720	-0.930
2020/01/31 21:24:11.9	3.980	-0.460	-0.750	-0.980
2020/01/31 21:24:12.0	4.000	-0.460	-0.780	-1.030
2020/01/31 21:24:12.1	4.020	-0.460	-0.800	-1.080
2020/01/31 21:24:12.2	4.040	-0.450	-0.820	-1.120
2020/01/31 21:24:12.3	4.060	-0.440	-0.840	-1.160
2020/01/31 21:24:12.4	4.090	-0.430	-0.850	-1.200
2020/01/31 21:24:12.5	4.110	-0.410	-0.860	-1.230
2020/01/31 21:24:12.6	4.130	-0.380	-0.860	-1.260
2020/01/31 21:24:12.7	4.150	-0.360	-0.860	-1.290
2020/01/31 21:24:12.8	4.180	-0.330	-0.860	-1.310
2020/01/31 21:24:12.9	4.190	-0.300	-0.850	-1.320
2020/01/31 21:24:13.0	4.210	-0.260	-0.830	-1.330
2020/01/31 21:24:13.1	4.240	-0.230	-0.810	-1.340
2020/01/31 21:24:13.2	4.260	-0.190	-0.780	-1.340
2020/01/31 21:24:13.3	4.280	-0.150	-0.750	-1.340
2020/01/31 21:24:13.4	4.300	-0.100	-0.720	-1.330
2020/01/31 21:24:13.5	4.330	-0.060	-0.680	-1.320
2020/01/31 21:24:13.6	4.350	-0.020	-0.640	-1.310
2020/01/31 21:24:13.7	4.380	0.020	-0.600	-1.290
2020/01/31 21:24:13.8	4.400	0.070	-0.550	-1.260
2020/01/31 21:24:13.9	4.440	0.110	-0.500	-1.230
2020/01/31 21:24:14.0	4.460	0.150	-0.450	-1.200
2020/01/31 21:24:14.1	4.490	0.190	-0.400	-1.170
2020/01/31 21:24:14.2	4.520	0.220	-0.350	-1.130
2020/01/31 21:24:14.3	4.540	0.260	-0.290	-1.090
2020/01/31 21:24:14.4	4.570	0.290	-0.240	-1.050
2020/01/31 21:24:14.5	4.600	0.320	-0.190	-1.000
2020/01/31 21:24:14.6	4.620	0.340	-0.130	-0.950
2020/01/31 21:24:14.7	4.650	0.360	-0.080	-0.910
2020/01/31 21:24:14.8	4.670	0.380	-0.030	-0.860
2020/01/31 21:24:14.9	4.710	0.400	0.020	-0.800
2020/01/31 21:24:15.0	4.730	0.410	0.080	-0.750
2020/01/31 21:24:15.1	4.750	0.410	0.130	-0.700
2020/01/31 21:24:15.2	4.770	0.410	0.180	-0.650
2020/01/31 21:24:15.3	4.790	0.410	0.220	-0.600
2020/01/31 21:24:15.4	4.800	0.400	0.270	-0.540
2020/01/31 21:24:15.5	4.810	0.390	0.310	-0.490
2020/01/31 21:24:15.6	4.820	0.370	0.350	-0.450
2020/01/31 21:24:15.7	4.830	0.350	0.390	-0.400
2020/01/31 21:24:15.8	4.840	0.320	0.430	-0.350
2020/01/31 21:24:15.9	4.840	0.290	0.460	-0.310
2020/01/31 21:24:16.0	4.840	0.260	0.490	-0.270
2020/01/31 21:24:16.1	4.840	0.230	0.520	-0.230
2020/01/31 21:24:16.2	4.830	0.190	0.540	-0.190
2020/01/31 21:24:16.3	4.820	0.140	0.560	-0.160
2020/01/31 21:24:16.4	4.810	0.100	0.580	-0.130
2020/01/31 21:24:16.5	4.790	0.050	0.590	-0.100
2020/01/31 21:24:16.6	4.770	0.010	0.600	-0.070
2020/01/31 21:24:16.7	4.750	-0.040	0.610	-0.050
2020/01/31 21:24:16.8	4.720	-0.090	0.610	-0.030
2020/01/31 21:24:16.9	4.710	-0.140	0.610	-0.010
2020/01/31 21:24:17.0	4.680	-0.190	0.600	-0.000
2020/01/31 21:24:17.1	4.650	-0.240	0.600	0.010
2020/01/31 21:24:17.2	4.620	-0.290	0.580	0.020
2020/01/31 21:24:17.3	4.590	-0.330	0.570	0.020
2020/01/31 21:24:17.4	4.560	-0.380	0.550	0.020
2020/01/31 21:24:17.5	4.520	-0.420	0.530	0.020
2020/01/31 21:24:17.6	4.490	-0.450	0.500	0.020
2020/01/31 21:24:17.7	4.460	-0.490	0.470	0.010
2020/01/31 21:24:17.8	4.430	-0.520	0.440	-0.000
2020/01/31 21:24:17.9	4.400	-0.550	0.410	-0.010
2020/01/31 21:24:18.0	4.370	-0.570	0.370	-0.030
2020/01/31 21:24:18.1	4.330	-0.590	0.320	-0.050
2020/01/31 21:24:18.2	4.300	-0.600	0.280	-0.070
2020/01/31 21:24:18.3	4.270	-0.610	0.230	-0.090
2020/01/31 21:24:18.4	4.240	-0.610	0.180	-0.110
2020/01/31 21:24:18.5	4.210	-0.610	0.120	-0.140
2020/01/31 21:24:18.6	4.180	-0.610	0.070	-0.170
2020/01/31 21:24:18.7	4.160	-0.600	0.010	-0.200
2020/01/31 21:24:18.8	4.130	-0.580	-0.050	-0.240
2020/01/31 21:24:18.9	4.110	-0.560	-0.120	-0.270
2020/01/31 21:24:19.0	4.090	-0.540	-0.180	-0.310
2020/01/31 21:24:19.1	4.070	-0.510	-0.250	-0.350
2020/01/31 21:24:19.2	4.050	-0.480	-0.310	-0.380
2020/01/31 21:24:19.3	4.040	-0.440	-0.380	-0.420
2020/01/31 21:24:19.4	4.030	-0.410	-0.440	-0.460
2020/01/31 21:24:19.5	4.020	-0.360	-0.510	-0.500
2020/01/31 21:24:19.6	4.020	-0.320	-0.570	-0.540
2020/01/31 21:24:19.7	4.010	-0.270	-0.630	-0.580
2020/01/31 21:24:19.8	4.010	-0.230	-0.690	-0.620
2020/01/31 21:24:19.9	4.000	-0.180	-0.740	-0.660
2020/01/31 21:24:20.0	4.010	-0.130	-0.800	-0.700
2020/01/31 21:24:20.1	4.010	-0.080	-0.850	-0.730
2020/01/31 21:24:20.2	4.030	-0.030	-0.890	-0.770
2020/01/31 21:24:20.3	4.040	0.020	-0.940	-0.800
2020/01/31 21:24:20.4	4.060	0.070	-0.970	-0.830
2020/01/31 21:24:20.5	4.080	0.120	-1.010	-0.860
2020/01/31 21:24:20.6	4.100	0.160	-1.040	-0.880
2020/01/31 21:24:20.7	4.120	0.200	-1.060	-0.910
2020/01/31 21:24:20.8	4.150	0.250	-1.080	-0.930
2020/01/31 21:24:20.9	4.180	0.280	-1.090	-0.950
2020/01/31 21:24:21.0	4.210	0.320	-1.100	-0.970
2020/01/31 21:24:21.1	4.240	0.350	-1.100	-0.980
2020/01/31 21:24:21.2	4.270	0.370	-1.100	-1.000
2020/01/31 21:24:21.3	4.310	0.400	-1.090	-1.010
2020/01/31 21:24:21.4	4.340	0.410	-1.070	-1.020
2020/01/31 21:24:21.5	4.380	0.430	-1.050	-1.020
2020/01/31 21:24:21.6	4.410	0.440	-1.030	-1.020
2020/01/31 21:24:21.7	4.440	0.440	-1.000	-1.020
2020/01/31 21:24:21.8	4.470	0.440	-0.960	-1.020
2020/01/31 21:24:21.9	4.500	0.440	-0.920	-1.010
2020/01/31 21:24:22.0	4.530	0.430	-0.880	-1.000
2020/01/31 21:24:22.1	4.550	0.420	-0.830	-0.990
2020/01/31 21:24:22.2	4.580	0.400	-0.780	-0.970
2020/01/31 21:24:22.3	4.600	0.380	-0.720	-0.950
2020/01/31 21:24:22.4	4.620	0.360	-0.660	-0.930
2020/01/31 21:24:22.5	4.640	0.340	-0.600	-0.910
2020/01/31 21:24:22.6	4.650	0.310	-0.540	-0.880
2020/01/31 21:24:22.7	4.660	0.280	-0.480	-0.850
2020/01/31 21:24:22.8	4.670	0.250	-0.420	-0.820
2020/01/31 21:24:22.9	4.680	0.210	-0.360	-0.780
2020/01/31 21:24:23.0	4.680	0.180	-0.290	-0.750
2020/01/31 21:24:23.1	4.680	0.150	-0.230	-0.710
2020/01/31 21:24:23.2	4.680	0.110	-0.180	-0.670
2020/01/31 21:24:23.3	4.680	0.080	-0.120	-0.620
2020/01/31 21:24:23.4	4.670	0.050	-0.070	-0.580
2020/01/31 21:24:23.5	4.660	0.020	-0.030	-0.530
2020/01/31 21:24:23.6	4.650	-0.010	0.020	-0.480
2020/01/31 21:24:23.7	4.640	-0.030	0.050	-0.430
2020/01/31 21:24:23.8	4.630	-0.060	0.080	-0.390
2020/01/31 21:24:23.9	4.640	-0.070	0.110	-0.330
2020/01/31 21:24:24.0	4.620	-0.090	0.120	-0.290
2020/01/31 21:24:24.1	4.610	-0.100	0.130	-0.240
2020/01/31 21:24:24.2	4.600	-0.110	0.130	-0.190
2020/01/31 21:24:24.3	4.590	-0.110	0.130	-0.150
2020/01/31 21:24:24.4	4.580	-0.110	0.110	-0.110
2020/01/31 21:24:24.5	4.570	-0.100	0.090	-0.080
2020/01/31 21:24:24.6	4.560	-0.090	0.070	-0.040
2020/01/31 21:24:24.7	4.550	-0.080	0.030	-0.020
2020/01/31 21:24:24.8	4.550	-0.060	-0.010	0.010
2020/01/31 21:24:24.9	4.560	-0.040	-0.050	0.030
2020/01/31 21:24:25.0	4.550	-0.010	-0.100	0.050
2020/01/31 21:24:25.1	4.560	0.020	-0.150	0.060
2020/01/31 21:24:25.2	4.560	0.050	-0.210	0.070
2020/01/31 21:24:25.3	4.560	0.080	-0.270	0.070
2020/01/31 21:24:25.4	4.560	0.120	-0.330	0.070
2020/01/31 21:24:25.5	4.570	0.160	-0.390	0.060
2020/01/31 21:24:25.6	4.580	0.200	-0.440	0.060
2020/01/31 21:24:25.7	4.580	0.240	-0.500	0.050
2020/01/31 21:24:25.8	4.590	0.280	-0.550	0.040
2020/01/31 21:24:25.9	4.610	0.320	-0.600	0.030
2020/01/31 21:24:26.0	4.620	0.360	-0.640	0.020
2020/01/31 21:24:26.1	4.620	0.400	-0.670	0.010
2020/01/31 21:24:26.2	4.630	0.430	-0.700	-0.000
2020/01/31 21:24:26.3	4.640	0.470	-0.720	-0.010
2020/01/31 21:24:26.4	4.640	0.500	-0.730	-0.020
2020/01/31 21:24:26.5	4.650	0.520	-0.740	-0.030
2020/01/31 21:24:26.6	4.650	0.540	-0.730	-0.040
2020/01/31 21:24:26.7	4.660	0.560	-0.720	-0.050
2020/01/31 21:24:26.8	4.660	0.580	-0.690	-0.050
2020/01/31 21:24:26.9	4.660	0.580	-0.660	-0.060
2020/01/31 21:24:27.0	4.660	0.590	-0.620	-0.070
2020/01/31 21:24:27.1	4.660	0.580	-0.570	-0.080
2020/01/31 21:24:27.2	4.660	0.570	-0.520	-0.090
2020/01/31 21:24:27.3	4.660	0.560	-0.460	-0.100
2020/01/31 21:24:27.4	4.660	0.540	-0.390	-0.110
2020/01/31 21:24:27.5	4.660	0.510	-0.320	-0.130
2020/01/31 21:24:27.6	4.660	0.480	-0.250	-0.140
2020/01/31 21:24:27.7	4.660	0.440	-0.170	-0.160
2020/01/31 21:24:27.8	4.670	0.400	-0.090	-0.180
2020/01/31 21:24:27.9	4.670	0.350	-0.010	-0.210
2020/01/31 21:24:28.0	4.670	0.300	0.070	-0.230
2020/01/31 21:24:28.1	4.680	0.240	0.140	-0.260
2020/01/31 21:24:28.2	4.680	0.180	0.220	-0.290
2020/01/31 21:24:28.3	4.690	0.120	0.290	-0.320
2020/01/31 21:24:28.4	4.700	0.050	0.360	-0.360
2020/01/31 21:24:28.5	4.710	-0.020	0.430	-0.390
2020/01/31 21:24:28.6	4.720	-0.090	0.490	-0.430
2020/01/31 21:24:28.7	4.730	-0.160	0.550	-0.470
2020/01/31 21:24:28.8	4.750	-0.230	0.590	-0.510
2020/01/31 21:24:28.9	4.760	-0.290	0.630	-0.550
2020/01/31 21:24:29.0	4.770	-0.360	0.670	-0.600
2020/01/31 21:24:29.1	4.790	-0.430	0.700	-0.640
2020/01/31 21:24:29.2	4.800	-0.500	0.720	-0.690
2020/01/31 21:24:29.3	4.810	-0.560	0.730	-0.730
2020/01/31 21:24:29.4	4.830	-0.620	0.730	-0.770
2020/01/31 21:24:29.5	4.840	-0.670	0.730	-0.820
2020/01/31 21:24:29.6	4.850	-0.730	0.720	-0.860
2020/01/31 21:24:29.7	4.860	-0.770	0.700	-0.900
2020/01/31 21:24:29.8	4.870	-0.820	0.670	-0.940
2020/01/31 21:24:29.9	4.870	-0.850	0.640	-0.980
2020/01/31 21:24:30.0	4.870	-0.890	0.600	-1.010
2020/01/31 21:24:30.1	4.870	-0.910	0.550	-1.050
2020/01/31 21:24:30.2	4.880	-0.930	0.500	-1.080
2020/01/31 21:24:30.3	4.880	-0.940	0.440	-1.100
2020/01/31 21:24:30.4	4.880	-0.950	0.380	-1.120
2020/01/31 21:24:30.5	4.870	-0.950	0.320	-1.140
2020/01/31 21:24:30.6	4.870	-0.950	0.250	-1.160
2020/01/31 21:24:30.7	4.870	-0.930	0.180	-1.170
2020/01/31 21:24:30.8	4.860	-0.910	0.110	-1.180
2020/01/31 21:24:30.9	4.860	-0.890	0.030	-1.180
2020/01/31 21:24:31.0	4.850	-0.860	-0.040	-1.180
2020/01/31 21:24:31.1	4.850	-0.820	-0.110	-1.180
2020/01/31 21:24:31.2	4.840	-0.780	-0.180	-1.170
2020/01/31 21:24:31.3	4.830	-0.730	-0.250	-1.160
2020/01/31 21:24:31.4	4.820	-0.680	-0.320	-1.140
2020/01/31 21:24:31.5	4.820	-0.620	-0.380	-1.120
2020/01/31 21:24:31.6	4.810	-0.560	-0.440	-1.100
2020/01/31 21:24:31.7	4.800	-0.500	-0.500	-1.070
2020/01/31 21:24:31.8	4.790	-0.440	-0.550	-1.040
2020/01/31 21:24:31.9	4.780	-0.370	-0.600	-1.000
2020/01/31 21:24:32.0	4.760	-0.300	-0.640	-0.960
2020/01/31 21:24:32.1	4.750	-0.230	-0.670	-0.920
2020/01/31 21:24:32.2	4.730	-0.160	-0.700	-0.870
2020/01/31 21:24:32.3	4.720	-0.090	-0.720	-0.820
2020/01/31 21:24:32.4	4.700	-0.020	-0.740	-0.770
2020/01/31 21:24:32.5	4.680	0.050	-0.750	-0.710
2020/01/31 21:24:32.6	4.670	0.120	-0.760	-0.650
2020/01/31 21:24:32.7	4.650	0.180	-0.760	-0.590
2020/01/31 21:24:32.8	4.630	0.240	-0.760	-0.530
2020/01/31 21:24:32.9	4.610	0.300	-0.750	-0.460
2020/01/31 21:24:33.0	4.590	0.360	-0.740	-0.390
2020/01/31 21:24:33.1	4.570	0.410	-0.720	-0.330
2020/01/31 21:24:33.2	4.550	0.460	-0.700	-0.260
2020/01/31 21:24:33.3	4.530	0.500	-0.670	-0.190
2020/01/31 21:24:33.4	4.520	0.540	-0.640	-0.130
2020/01/31 21:24:33.5	4.500	0.570	-0.610	-0.060
2020/01/31 21:24:33.6	4.480	0.600	-0.580	-0.000
2020/01/31 21:24:33.7	4.460	0.620	-0.550	0.060
2020/01/31 21:24:33.8	4.450	0.640	-0.520	0.120
2020/01/31 21:24:33.9	4.440	0.660	-0.480	0.170
2020/01/31 21:24:34.0	4.430	0.670	-0.450	0.220
2020/01/31 21:24:34.1	4.420	0.670	-0.420	0.270
2020/01/31 21:24:34.2	4.410	0.670	-0.390	0.310
2020/01/31 21:24:34.3	4.400	0.670	-0.370	0.350
2020/01/31 21:24:34.4	4.400	0.670	-0.340	0.380
2020/01/31 21:24:34.5	4.400	0.660	-0.320	0.410
2020/01/31 21:24:34.6	4.400	0.640	-0.300	0.430
2020/01/31 21:24:34.7	4.400	0.630	-0.290	0.440
2020/01/31 21:24:34.8	4.410	0.610	-0.280	0.450
2020/01/31 21:24:34.9	4.410	0.590	-0.280	0.450
2020/01/31 21:24:35.0	4.420	0.570	-0.280	0.440
2020/01/31 21:24:35.1	4.430	0.540	-0.280	0.430
2020/01/31 21:24:35.2	4.450	0.520	-0.290	0.410
2020/01/31 21:24:35.3	4.460	0.490	-0.310	0.390
2020/01/31 21:24:35.4	4.480	0.470	-0.330	0.360
2020/01/31 21:24:35.5	4.510	0.440	-0.350	0.320
2020/01/31 21:24:35.6	4.530	0.420	-0.380	0.290
2020/01/31 21:24:35.7	4.560	0.400	-0.410	0.240
2020/01/31 21:24:35.8	4.590	0.370	-0.450	0.200
2020/01/31 21:24:35.9	4.610	0.350	-0.480	0.140
2020/01/31 21:24:36.0	4.650	0.330	-0.530	0.090
2020/01/31 21:24:36.1	4.680	0.310	-0.570	0.040
2020/01/31 21:24:36.2	4.720	0.300	-0.620	-0.020
2020/01/31 21:24:36.3	4.750	0.280	-0.670	-0.080
2020/01/31 21:24:36.4	4.790	0.270	-0.720	-0.140
2020/01/31 21:24:36.5	4.830	0.250	-0.770	-0.200
2020/01/31 21:24:36.6	4.880	0.240	-0.820	-0.260
2020/01/31 21:24:36.7	4.920	0.230	-0.880	-0.330
2020/01/31 21:24:36.8	4.960	0.220	-0.930	-0.390
2020/01/31 21:24:36.9	5.010	0.210	-0.980	-0.460
2020/01/31 21:24:37.0	5.060	0.200	-1.020	-0.530
2020/01/31 21:24:37.1	5.100	0.200	-1.060	-0.590
2020/01/31 21:24:37.2	5.140	0.190	-1.100	-0.660
2020/01/31 21:24:37.3	5.180	0.180	-1.130	-0.720
2020/01/31 21:24:37.4	5.230	0.170	-1.160	-0.790
2020/01/31 21:24:37.5	5.270	0.160	-1.180	-0.850
2020/01/31 21:24:37.6	5.300	0.150	-1.200	-0.910
2020/01/31 21:24:37.7	5.340	0.140	-1.200	-0.970
2020/01/31 21:24:37.8	5.380	0.120	-1.200	-1.030
2020/01/31 21:24:37.9	5.400	0.110	-1.190	-1.090
2020/01/31 21:24:38.0	5.440	0.090	-1.180	-1.140
2020/01/31 21:24:38.1	5.470	0.070	-1.150	-1.190
2020/01/31 21:24:38.2	5.490	0.050	-1.120	-1.240
2020/01/31 21:24:38.3	5.520	0.020	-1.080	-1.280
2020/01/31 21:24:38.4	5.550	-0.000	-1.030	-1.320
2020/01/31 21:24:38.5	5.570	-0.030	-0.980	-1.350
2020/01/31 21:24:38.6	5.590	-0.060	-0.910	-1.380
2020/01/31 21:24:38.7	5.610	-0.100	-0.840	-1.410
2020/01/31 21:24:38.8	5.620	-0.130	-0.760	-1.420
2020/01/31 21:24:38.9	5.650	-0.170	-0.670	-1.440
2020/01/31 21:24:39.0	5.660	-0.210	-0.580	-1.440
2020/01/31 21:24:39.1	5.660	-0.250	-0.480	-1.450
2020/01/31 21:24:39.2	5.670	-0.290	-0.380	-1.450
2020/01/31 21:24:39.3	5.670	-0.330	-0.270	-1.440
2020/01/31 21:24:39.4	5.680	-0.370	-0.150	-1.430
2020/01/31 21:24:39.5	5.670	-0.420	-0.040	-1.410
2020/01/31 21:24:39.6	5.670	-0.460	0.080	-1.390
2020/01/31 21:24:39.7	5.670	-0.500	0.200	-1.370
2020/01/31 21:24:39.8	5.660	-0.540	0.310	-1.340
2020/01/31 21:24:39.9	5.660	-0.580	0.430	-1.310
2020/01/31 21:24:40.0	5.650	-0.620	0.550	-1.270
2020/01/31 21:24:40.1	5.640	-0.660	0.660	-1.240
2020/01/31 21:24:40.2	5.620	-0.690	0.770	-1.190
2020/01/31 21:24:40.3	5.610	-0.720	0.870	-1.150
2020/01/31 21:24:40.4	5.590	-0.750	0.970	-1.100
2020/01/31 21:24:40.5	5.570	-0.780	1.060	-1.060
2020/01/31 21:24:40.6	5.550	-0.800	1.140	-1.010
2020/01/31 21:24:40.7	5.530	-0.810	1.220	-0.950
2020/01/31 21:24:40.8	5.500	-0.820	1.290	-0.900
2020/01/31 21:24:40.9	5.480	-0.830	1.350	-0.840
2020/01/31 21:24:41.0	5.450	-0.830	1.410	-0.780
2020/01/31 21:24:41.1	5.420	-0.830	1.450	-0.730
2020/01/31 21:24:41.2	5.400	-0.820	1.480	-0.670
2020/01/31 21:24:41.3	5.370	-0.810	1.510	-0.610
2020/01/31 21:24:41.4	5.340	-0.790	1.530	-0.540
2020/01/31 21:24:41.5	5.300	-0.770	1.530	-0.480
2020/01/31 21:24:41.6	5.270	-0.740	1.530	-0.420
2020/01/31 21:24:41.7	5.230	-0.710	1.520	-0.350
2020/01/31 21:24:41.8	5.200	-0.670	1.490	-0.290
2020/01/31 21:24:41.9	5.150	-0.630	1.460	-0.220
2020/01/31 21:24:42.0	5.110	-0.590	1.420	-0.160
2020/01/31 21:24:42.1	5.070	-0.540	1.370	-0.090
2020/01/31 21:24:42.2	5.030	-0.490	1.300	-0.020
2020/01/31 21:24:42.3	4.980	-0.430	1.240	0.050
2020/01/31 21:24:42.4	4.940	-0.370	1.160	0.120
2020/01/31 21:24:42.5	4.890	-0.310	1.070	0.180
2020/01/31 21:24:42.6	4.840	-0.240	0.980	0.250
2020/01/31 21:24:42.7	4.790	-0.170	0.880	0.320
2020/01/31 21:24:42.8	4.740	-0.100	0.780	0.380
2020/01/31 21:24:42.9	4.700	-0.030	0.660	0.450
2020/01/31 21:24:43.0	4.640	0.040	0.550	0.510
2020/01/31 21:24:43.1	4.600	0.110	0.430	0.570
2020/01/31 21:24:43.2	4.550	0.190	0.300	0.620
2020/01/31 21:24:43.3	4.500	0.260	0.170	0.670
2020/01/31 21:24:43.4	4.460	0.330	0.040	0.710
2020/01/31 21:24:43.5	4.410	0.400	-0.090	0.750
2020/01/31 21:24:43.6	4.370	0.480	-0.220	0.790
2020/01/31 21:24:43.7	4.340	0.550	-0.350	0.820
2020/01/31 21:24:43.8	4.300	0.610	-0.490	0.840
2020/01/31 21:24:43.9	4.280	0.680	-0.610	0.860
2020/01/31 21:24:44.0	4.250	0.740	-0.740	0.870
2020/01/31 21:24:44.1	4.230	0.800	-0.860	0.880
2020/01/31 21:24:44.2	4.210	0.860	-0.980	0.880
2020/01/31 21:24:44.3	4.190	0.910	-1.100	0.870
2020/01/31 21:24:44.4	4.180	0.960	-1.210	0.860
2020/01/31 21:24:44.5	4.170	1.000	-1.310	0.840
2020/01/31 21:24:44.6	4.170	1.040	-1.410	0.820
2020/01/31 21:24:44.7	4.170	1.080	-1.500	0.790
2020/01/31 21:24:44.8	4.170	1.100	-1.580	0.760
2020/01/31 21:24:44.9	4.180	1.120	-1.650	0.720
2020/01/31 21:24:45.0	4.190	1.140	-1.710	0.680
2020/01/31 21:24:45.1	4.210	1.150	-1.760	0.630
2020/01/31 21:24:45.2	4.220	1.150	-1.800	0.580
2020/01/31 21:24:45.3	4.240	1.140	-1.840	0.530
2020/01/31 21:24:45.4	4.260	1.130	-1.860	0.470
2020/01/31 21:24:45.5	4.290	1.110	-1.870	0.410
2020/01/31 21:24:45.6	4.310	1.080	-1.870	0.350
2020/01/31 21:24:45.7	4.340	1.040	-1.860	0.280
2020/01/31 21:24:45.8	4.370	1.000	-1.840	0.210
2020/01/31 21:24:45.9	4.400	0.960	-1.810	0.140
2020/01/31 21:24:46.0	4.430	0.900	-1.770	0.070
2020/01/31 21:24:46.1	4.460	0.840	-1.720	-0.000
2020/01/31 21:24:46.2	4.490	0.780	-1.670	-0.080
2020/01/31 21:24:46.3	4.530	0.710	-1.610	-0.150
2020/01/31 21:24:46.4	4.560	0.640	-1.540	-0.230
2020/01/31 21:24:46.5	4.590	0.560	-1.460	-0.300
2020/01/31 21:24:46.6	4.630	0.480	-1.390	-0.370
2020/01/31 21:24:46.7	4.660	0.400	-1.300	-0.450
2020/01/31 21:24:46.8	4.690	0.320	-1.220	-0.520
2020/01/31 21:24:46.9	4.720	0.230	-1.130	-0.590
2020/01/31 21:24:47.0	4.750	0.140	-1.040	-0.660
2020/01/31 21:24:47.1	4.790	0.060	-0.950	-0.730
2020/01/31 21:24:47.2	4.820	-0.030	-0.850	-0.800
2020/01/31 21:24:47.3	4.850	-0.110	-0.760	-0.870
2020/01/31 21:24:47.4	4.880	-0.200	-0.670	-0.930
2020/01/31 21:24:47.5	4.920	-0.280	-0.590	-0.990
2020/01/31 21:24:47.6	4.950	-0.350	-0.500	-1.060
2020/01/31 21:24:47.7	4.980	-0.430	-0.420	-1.120
2020/01/31 21:24:47.8	5.010	-0.500	-0.340	-1.170
2020/01/31 21:24:47.9	5.040	-0.570	-0.270	-1.230
2020/01/31 21:24:48.0	5.070	-0.630	-0.200	-1.280
2020/01/31 21:24:48.1	5.100	-0.690	-0.130	-1.330
2020/01/31 21:24:48.2	5.120	-0.740	-0.070	-1.380
2020/01/31 21:24:48.3	5.150	-0.790	-0.010	-1.420
2020/01/31 21:24:48.4	5.180	-0.830	0.040	-1.460
2020/01/31 21:24:48.5	5.200	-0.860	0.080	-1.500
2020/01/31 21:24:48.6	5.230	-0.890	0.120	-1.530
2020/01/31 21:24:48.7	5.250	-0.920	0.150	-1.550
2020/01/31 21:24:48.8	5.270	-0.940	0.180	-1.570
2020/01/31 21:24:48.9	5.290	-0.950	0.210	-1.590
2020/01/31 21:24:49.0	5.310	-0.960	0.230	-1.600
2020/01/31 21:24:49.1	5.330	-0.960	0.240	-1.600
2020/01/31 21:24:49.2	5.350	-0.960	0.250	-1.600
2020/01/31 21:24:49.3	5.360	-0.950	0.260	-1.590
2020/01/31 21:24:49.4	5.370	-0.940	0.260	-1.570
2020/01/31 21:24:49.5	5.380	-0.930	0.260	-1.550
2020/01/31 21:24:49.6	5.380	-0.910	0.260	-1.530
2020/01/31 21:24:49.7	5.380	-0.890	0.260	-1.500
2020/01/31 21:24:49.8	5.380	-0.860	0.250	-1.470
2020/01/31 21:24:49.9	5.380	-0.830	0.250	-1.420
2020/01/31 21:24:50.0	5.370	-0.800	0.240	-1.380
2020/01/31 21:24:50.1	5.360	-0.770	0.230	-1.330
2020/01/31 21:24:50.2	5.350	-0.730	0.230	-1.280
2020/01/31 21:24:50.3	5.330	-0.700	0.220	-1.230
2020/01/31 21:24:50.4	5.320	-0.660	0.210	-1.170
2020/01/31 21:24:50.5	5.300	-0.620	0.210	-1.110
2020/01/31 21:24:50.6	5.270	-0.580	0.200	-1.050
2020/01/31 21:24:50.7	5.250	-0.540	0.200	-0.980
2020/01/31 21:24:50.8	5.220	-0.500	0.190	-0.910
2020/01/31 21:24:50.9	5.200	-0.450	0.190	-0.840
2020/01/31 21:24:51.0	5.170	-0.410	0.190	-0.770
2020/01/31 21:24:51.1	5.140	-0.370	0.190	-0.690
2020/01/31 21:24:51.2	5.110	-0.320	0.190	-0.610
2020/01/31 21:24:51.3	5.080	-0.280	0.190	-0.530
2020/01/31 21:24:51.4	5.040	-0.240	0.190	-0.450
2020/01/31 21:24:51.5	5.010	-0.200	0.190	-0.370
2020/01/31 21:24:51.6	4.970	-0.160	0.190	-0.290
2020/01/31 21:24:51.7	4.930	-0.110	0.190	-0.210
2020/01/31 21:24:51.8	4.900	-0.070	0.190	-0.130
2020/01/31 21:24:51.9	4.860	-0.030	0.190	-0.040
2020/01/31 21:24:52.0	4.820	0.010	0.190	0.040
2020/01/31 21:24:52.1	4.780	0.050	0.190	0.120
2020/01/31 21:24:52.2	4.750	0.090	0.190	0.200
2020/01/31 21:24:52.3	4.710	0.130	0.190	0.270
2020/01/31 21:24:52.4	4.670	0.160	0.190	0.350
2020/01/31 21:24:52.5	4.640	0.200	0.190	0.420
2020/01/31 21:24:52.6	4.600	0.240	0.190	0.500
2020/01/31 21:24:52.7	4.560	0.270	0.190	0.570
2020/01/31 21:24:52.8	4.530	0.300	0.190	0.630
2020/01/31 21:24:52.9	4.490	0.340	0.180	0.690
2020/01/31 21:24:53.0	4.460	0.370	0.180	0.750
2020/01/31 21:24:53.1	4.420	0.400	0.180	0.810
2020/01/31 21:24:53.2	4.390	0.430	0.170	0.860
2020/01/31 21:24:53.3	4.350	0.450	0.160	0.910
2020/01/31 21:24:53.4	4.310	0.480	0.160	0.950
2020/01/31 21:24:53.5	4.280	0.500	0.150	0.990
2020/01/31 21:24:53.6	4.240	0.520	0.140	1.020
2020/01/31 21:24:53.7	4.210	0.540	0.130	1.040
2020/01/31 21:24:53.8	4.180	0.550	0.110	1.060
2020/01/31 21:24:53.9	4.160	0.570	0.090	1.080
2020/01/31 21:24:54.0	4.130	0.580	0.070	1.090
2020/01/31 21:24:54.1	4.110	0.590	0.050	1.090
2020/01/31 21:24:54.2	4.080	0.600	0.030	1.090
2020/01/31 21:24:54.3	4.060	0.600	0.000	1.080
2020/01/31 21:24:54.4	4.040	0.610	-0.030	1.060
2020/01/31 21:24:54.5	4.020	0.610	-0.060	1.040
2020/01/31 21:24:54.6	4.000	0.610	-0.090	1.020
2020/01/31 21:24:54.7	3.990	0.600	-0.120	0.990
2020/01/31 21:24:54.8	3.980	0.600	-0.160	0.950
2020/01/31 21:24:54.9	3.970	0.590	-0.200	0.910
2020/01/31 21:24:55.0	3.960	0.580	-0.240	0.860
2020/01/31 21:24:55.1	3.960	0.570	-0.280	0.810
2020/01/31 21:24:55.2	3.960	0.560	-0.320	0.760
2020/01/31 21:24:55.3	3.970	0.550	-0.370	0.700
2020/01/31 21:24:55.4	3.980	0.530	-0.410	0.640
2020/01/31 21:24:55.5	3.990	0.520	-0.460	0.570
2020/01/31 21:24:55.6	4.000	0.500	-0.500	0.500
2020/01/31 21:24:55.7	4.020	0.480	-0.550	0.420
2020/01/31 21:24:55.8	4.040	0.470	-0.590	0.340
2020/01/31 21:24:55.9	4.050	0.450	-0.630	0.260
2020/01/31 21:24:56.0	4.080	0.430	-0.670	0.170
2020/01/31 21:24:56.1	4.100	0.410	-0.710	0.090
2020/01/31 21:24:56.2	4.130	0.390	-0.750	0.000
2020/01/31 21:24:56.3	4.170	0.370	-0.790	-0.080
2020/01/31 21:24:56.4	4.200	0.350	-0.820	-0.170
2020/01/31 21:24:56.5	4.230	0.330	-0.850	-0.250
2020/01/31 21:24:56.6	4.270	0.310	-0.870	-0.340
2020/01/31 21:24:56.7	4.300	0.290	-0.890	-0.420
2020/01/31 21:24:56.8	4.340	0.270	-0.910	-0.500
2020/01/31 21:24:56.9	4.360	0.250	-0.920	-0.580
2020/01/31 21:24:57.0	4.400	0.230	-0.930	-0.660
2020/01/31 21:24:57.1	4.430	0.210	-0.930	-0.730
2020/01/31 21:24:57.2	4.470	0.190	-0.930	-0.800
2020/01/31 21:24:57.3	4.500	0.160	-0.930	-0.870
2020/01/31 21:24:57.4	4.530	0.140	-0.920	-0.930
2020/01/31 21:24:57.5	4.560	0.120	-0.910	-0.980
2020/01/31 21:24:57.6	4.590	0.090	-0.890	-1.030
2020/01/31 21:24:57.7	4.620	0.070	-0.870	-1.080
2020/01/31 21:24:57.8	4.640	0.040	-0.850	-1.120
2020/01/31 21:24:57.9	4.660	0.020	-0.820	-1.160
2020/01/31 21:24:58.0	4.680	-0.010	-0.790	-1.190
2020/01/31 21:24:58.1	4.700	-0.040	-0.750	-1.220
2020/01/31 21:24:58.2	4.710	-0.060	-0.720	-1.250
2020/01/31 21:24:58.3	4.730	-0.090	-0.680	-1.270
2020/01/31 21:24:58.4	4.740	-0.120	-0.640	-1.290
2020/01/31 21:24:58.5	4.750	-0.150	-0.600	-1.310
2020/01/31 21:24:58.6	4.760	-0.170	-0.560	-1.320
2020/01/31 21:24:58.7	4.770	-0.200	-0.520	-1.330
2020/01/31 21:24:58.8	4.770	-0.230	-0.470	-1.330
2020/01/31 21:24:58.9	4.770	-0.250	-0.430	-1.330
2020/01/31 21:24:59.0	4.780	-0.280	-0.390	-1.330
2020/01/31 21:24:59.1	4.780	-0.300	-0.360	-1.330
2020/01/31 21:24:59.2	4.780	-0.330	-0.320	-1.330
2020/01/31 21:24:59.3	4.780	-0.350	-0.280	-1.320
2020/01/31 21:24:59.4	4.780	-0.360	-0.250	-1.310
2020/01/31 21:24:59.5	4.780	-0.380	-0.220	-1.300
2020/01/31 21:24:59.6	4.770	-0.390	-0.190	-1.280
2020/01/31 21:24:59.7	4.770	-0.410	-0.160	-1.260
2020/01/31 21:24:59.8	4.770	-0.420	-0.140	-1.240
2020/01/31 21:24:59.9	4.760	-0.420	-0.110	-1.210
2020/01/31 21:25:00.0	4.760	-0.420	-0.100	-1.180
2020/01/31 21:25:00.1	4.760	-0.420	-0.080	-1.150
2020/01/31 21:25:00.2	4.750	-0.420	-0.070	-1.110
2020/01/31 21:25:00.3	4.750	-0.410	-0.050	-1.080
2020/01/31 21:25:00.4	4.740	-0.400	-0.050	-1.030
2020/01/31 21:25:00.5	4.740	-0.390	-0.040	-0.990
2020/01/31 21:25:00.6	4.730	-0.380	-0.040	-0.950
2020/01/31 21:25:00.7	4.730	-0.360	-0.040	-0.900
2020/01/31 21:25:00.8	4.730	-0.340	-0.040	-0.860
2020/01/31 21:25:00.9	4.730	-0.310	-0.050	-0.800
2020/01/31 21:25:01.0	4.730	-0.290	-0.050	-0.760
2020/01/31 21:25:01.1	4.730	-0.260	-0.060	-0.710
2020/01/31 21:25:01.2	4.730	-0.240	-0.070	-0.670
2020/01/31 21:25:01.3	4.730	-0.210	-0.070	-0.630
2020/01/31 21:25:01.4	4.730	-0.190	-0.080	-0.590
2020/01/31 21:25:01.5	4.730	-0.160	-0.090	-0.550
2020/01/31 21:25:01.6	4.730	-0.130	-0.090	-0.510
2020/01/31 21:25:01.7	4.730	-0.110	-0.100	-0.480
2020/01/31 21:25:01.8	4.730	-0.090	-0.100	-0.450
2020/01/31 21:25:01.9	4.730	-0.070	-0.100	-0.410
2020/01/31 21:25:02.0	4.730	-0.050	-0.100	-0.380
2020/01/31 21:25:02.1	4.730	-0.030	-0.100	-0.350
2020/01/31 21:25:02.2	4.730	-0.020	-0.100	-0.320
2020/01/31 21:25:02.3	4.730	-0.010	-0.090	-0.290
2020/01/31 21:25:02.4	4.720	-0.000	-0.080	-0.260
2020/01/31 21:25:02.5	4.710	0.000	-0.070	-0.230
2020/01/31 21:25:02.6	4.710	0.000	-0.050	-0.200
2020/01/31 21:25:02.7	4.700	-0.000	-0.040	-0.170
2020/01/31 21:25:02.8	4.680	-0.010	-0.020	-0.140
2020/01/31 21:25:02.9	4.670	-0.020	0.000	-0.110
2020/01/31 21:25:03.0	4.650	-0.030	0.030	-0.080
2020/01/31 21:25:03.1	4.630	-0.050	0.050	-0.040
2020/01/31 21:25:03.2	4.620	-0.060	0.080	-0.010
2020/01/31 21:25:03.3	4.600	-0.090	0.100	0.020
2020/01/31 21:25:03.4	4.570	-0.110	0.130	0.040
2020/01/31 21:25:03.5	4.550	-0.130	0.150	0.070
2020/01/31 21:25:03.6	4.530	-0.160	0.180	0.100
2020/01/31 21:25:03.7	4.510	-0.190	0.200	0.120
2020/01/31 21:25:03.8	4.480	-0.220	0.220	0.140
2020/01/31 21:25:03.9	4.470	-0.250	0.240	0.160
2020/01/31 21:25:04.0	4.450	-0.280	0.260	0.180
2020/01/31 21:25:04.1	4.420	-0.300	0.270	0.200
2020/01/31 21:25:04.2	4.400	-0.330	0.280	0.210
2020/01/31 21:25:04.3	4.380	-0.360	0.290	0.220
2020/01/31 21:25:04.4	4.350	-0.380	0.290	0.220
2020/01/31 21:25:04.5	4.330	-0.400	0.290	0.230
2020/01/31 21:25:04.6	4.310	-0.420	0.280	0.230
2020/01/31 21:25:04.7	4.280	-0.430	0.270	0.230
2020/01/31 21:25:04.8	4.260	-0.440	0.250	0.230
2020/01/31 21:25:04.9	4.250	-0.450	0.230	0.230
2020/01/31 21:25:05.0	4.220	-0.450	0.210	0.220
2020/01/31 21:25:05.1	4.200	-0.450	0.180	0.210
2020/01/31 21:25:05.2	4.180	-0.450	0.140	0.210
2020/01/31 21:25:05.3	4.170	-0.430	0.110	0.200
2020/01/31 21:25:05.4	4.150	-0.420	0.070	0.180
2020/01/31 21:25:05.5	4.130	-0.400	0.020	0.170
2020/01/31 21:25:05.6	4.120	-0.370	-0.020	0.160
2020/01/31 21:25:05.7	4.100	-0.340	-0.070	0.140
2020/01/31 21:25:05.8	4.090	-0.300	-0.120	0.130
2020/01/31 21:25:05.9	4.060	-0.260	-0.180	0.110
2020/01/31 21:25:06.0	4.050	-0.210	-0.230	0.090
2020/01/31 21:25:06.1	4.040	-0.160	-0.280	0.080
2020/01/31 21:25:06.2	4.030	-0.100	-0.340	0.070
2020/01/31 21:25:06.3	4.020	-0.040	-0.390	0.060
2020/01/31 21:25:06.4	4.010	0.020	-0.440	0.050
2020/01/31 21:25:06.5	4.000	0.080	-0.490	0.040
2020/01/31 21:25:06.6	3.990	0.150	-0.540	0.030
2020/01/31 21:25:06.7	3.980	0.220	-0.590	0.020
2020/01/31 21:25:06.8	3.980	0.280	-0.640	0.020
2020/01/31 21:25:06.9	3.980	0.350	-0.680	0.020
2020/01/31 21:25:07.0	3.970	0.420	-0.720	0.020
2020/01/31 21:25:07.1	3.970	0.490	-0.760	0.020
2020/01/31 21:25:07.2	3.960	0.550	-0.790	0.020
2020/01/31 21:25:07.3	3.960	0.620	-0.820	0.030
2020/01/31 21:25:07.4	3.950	0.680	-0.850	0.040
2020/01/31 21:25:07.5	3.950	0.730	-0.880	0.040
2020/01/31 21:25:07.6	3.950	0.790	-0.900	0.050
2020/01/31 21:25:07.7	3.950	0.830	-0.910	0.060
2020/01/31 21:25:07.8	3.950	0.880	-0.930	0.060
2020/01/31 21:25:07.9	3.960	0.920	-0.940	0.070
2020/01/31 21:25:08.0	3.960	0.950	-0.940	0.080
2020/01/31 21:25:08.1	3.970	0.970	-0.950	0.080
2020/01/31 21:25:08.2	3.970	0.990	-0.940	0.080
2020/01/31 21:25:08.3	3.980	1.010	-0.940	0.080
2020/01/31 21:25:08.4	3.990	1.010	-0.930	0.080
2020/01/31 21:25:08.5	4.000	1.010	-0.920	0.070
2020/01/31 21:25:08.6	4.020	1.000	-0.910	0.060
2020/01/31 21:25:08.7	4.040	0.990	-0.900	0.050
2020/01/31 21:25:08.8	4.050	0.970	-0.880	0.030
2020/01/31 21:25:08.9	4.070	0.940	-0.870	0.010
2020/01/31 21:25:09.0	4.090	0.910	-0.850	-0.010
2020/01/31 21:25:09.1	4.110	0.870	-0.820	-0.030
2020/01/31 21:25:09.2	4.140	0.820	-0.800	-0.060
2020/01/31 21:25:09.3	4.170	0.770	-0.770	-0.090
2020/01/31 21:25:09.4	4.190	0.710	-0.740	-0.130
2020/01/31 21:25:09.5	4.220	0.650	-0.710	-0.160
2020/01/31 21:25:09.6	4.250	0.580	-0.680	-0.200
2020/01/31 21:25:09.7	4.280	0.510	-0.650	-0.240
2020/01/31 21:25:09.8	4.310	0.430	-0.610	-0.280
2020/01/31 21:25:09.9	4.340	0.350	-0.570	-0.320
2020/01/31 21:25:10.0	4.370	0.270	-0.540	-0.370
2020/01/31 21:25:10.1	4.400	0.180	-0.500	-0.410
2020/01/31 21:25:10.2	4.430	0.090	-0.460	-0.460
2020/01/31 21:25:10.3	4.450	0.010	-0.420	-0.510
2020/01/31 21:25:10.4	4.480	-0.080	-0.380	-0.560
2020/01/31 21:25:10.5	4.510	-0.170	-0.340	-0.600
2020/01/31 21:25:10.6	4.530	-0.270	-0.290	-0.650
2020/01/31 21:25:10.7	4.550	-0.360	-0.250	-0.700
2020/01/31 21:25:10.8	4.570	-0.440	-0.200	-0.750
2020/01/31 21:25:10.9	4.590	-0.530	-0.160	-0.790
2020/01/31 21:25:11.0	4.600	-0.620	-0.110	-0.840
2020/01/31 21:25:11.1	4.610	-0.700	-0.060	-0.880
2020/01/31 21:25:11.2	4.620	-0.770	-0.010	-0.920
2020/01/31 21:25:11.3	4.620	-0.850	0.040	-0.960
2020/01/31 21:25:11.4	4.630	-0.920	0.090	-1.000
2020/01/31 21:25:11.5	4.620	-0.980	0.140	-1.030
2020/01/31 21:25:11.6	4.620	-1.040	0.190	-1.050
2020/01/31 21:25:11.7	4.610	-1.090	0.240	-1.070
2020/01/31 21:25:11.8	4.600	-1.140	0.280	-1.090
2020/01/31 21:25:11.9	4.570	-1.180	0.330	-1.100
2020/01/31 21:25:12.0	4.550	-1.210	0.380	-1.110
2020/01/31 21:25:12.1	4.530	-1.230	0.430	-1.110
2020/01/31 21:25:12.2	4.500	-1.250	0.470	-1.100
2020/01/31 21:25:12.3	4.470	-1.260	0.520	-1.080
2020/01/31 21:25:12.4	4.440	-1.260	0.560	-1.060
2020/01/31 21:25:12.5	4.400	-1.250	0.590	-1.030
2020/01/31 21:25:12.6	4.370	-1.230	0.630	-0.990
2020/01/31 21:25:12.7	4.330	-1.210	0.660	-0.950
2020/01/31 21:25:12.8	4.280	-1.170	0.690	-0.900
2020/01/31 21:25:12.9	4.240	-1.130	0.710	-0.850
2020/01/31 21:25:13.0	4.190	-1.090	0.730	-0.790
2020/01/31 21:25:13.1	4.140	-1.030	0.740	-0.720
2020/01/31 21:25:13.2	4.100	-0.970	0.750	-0.660
2020/01/31 21:25:13.3	4.050	-0.900	0.750	-0.580
2020/01/31 21:25:13.4	4.000	-0.820	0.750	-0.510
2020/01/31 21:25:13.5	3.940	-0.740	0.740	-0.430
2020/01/31 21:25:13.6	3.890	-0.660	0.720	-0.350
2020/01/31 21:25:13.7	3.850	-0.560	0.700	-0.270
2020/01/31 21:25:13.8	3.800	-0.470	0.670	-0.200
2020/01/31 21:25:13.9	3.740	-0.370	0.630	-0.110
2020/01/31 21:25:14.0	3.700	-0.270	0.580	-0.040
2020/01/31 21:25:14.1	3.650	-0.170	0.530	0.030
2020/01/31 21:25:14.2	3.620	-0.070	0.470	0.100
2020/01/31 21:25:14.3	3.580	0.040	0.400	0.160
2020/01/31 21:25:14.4	3.550	0.140	0.330	0.220
2020/01/31 21:25:14.5	3.520	0.240	0.250	0.270
2020/01/31 21:25:14.6	3.500	0.340	0.170	0.310
2020/01/31 21:25:14.7	3.480	0.440	0.080	0.350
2020/01/31 21:25:14.8	3.460	0.530	-0.020	0.380
2020/01/31 21:25:14.9	3.450	0.620	-0.110	0.410
2020/01/31 21:25:15.0	3.440	0.710	-0.210	0.430
2020/01/31 21:25:15.1	3.440	0.790	-0.310	0.440
2020/01/31 21:25:15.2	3.450	0.870	-0.410	0.440
2020/01/31 21:25:15.3	3.460	0.940	-0.510	0.440
2020/01/31 21:25:15.4	3.470	1.000	-0.610	0.440
2020/01/31 21:25:15.5	3.490	1.050	-0.710	0.420
2020/01/31 21:25:15.6	3.520	1.100	-0.800	0.410
2020/01/31 21:25:15.7	3.550	1.140	-0.890	0.380
2020/01/31 21:25:15.8	3.580	1.170	-0.970	0.360
2020/01/31 21:25:15.9	3.630	1.200	-1.050	0.330
2020/01/31 21:25:16.0	3.670	1.210	-1.120	0.300
2020/01/31 21:25:16.1	3.710	1.210	-1.190	0.260
2020/01/31 21:25:16.2	3.750	1.210	-1.240	0.220
2020/01/31 21:25:16.3	3.790	1.190	-1.280	0.190
2020/01/31 21:25:16.4	3.840	1.170	-1.320	0.150
2020/01/31 21:25:16.5	3.880	1.140	-1.340	0.100
2020/01/31 21:25:16.6	3.920	1.100	-1.350	0.060
2020/01/31 21:25:16.7	3.970	1.050	-1.350	0.020
2020/01/31 21:25:16.8	4.010	0.990	-1.340	-0.020
2020/01/31 21:25:16.9	4.040	0.930	-1.310	-0.060
2020/01/31 21:25:17.0	4.080	0.860	-1.280	-0.100
2020/01/31 21:25:17.1	4.120	0.780	-1.240	-0.140
2020/01/31 21:25:17.2	4.150	0.690	-1.190	-0.180
2020/01/31 21:25:17.3	4.180	0.600	-1.120	-0.210
2020/01/31 21:25:17.4	4.200	0.510	-1.050	-0.250
2020/01/31 21:25:17.5	4.220	0.410	-0.970	-0.280
2020/01/31 21:25:17.6	4.240	0.310	-0.890	-0.320
2020/01/31 21:25:17.7	4.260	0.200	-0.800	-0.350
2020/01/31 21:25:17.8	4.270	0.100	-0.700	-0.380
2020/01/31 21:25:17.9	4.280	-0.010	-0.610	-0.410
2020/01/31 21:25:18.0	4.280	-0.120	-0.520	-0.430
2020/01/31 21:25:18.1	4.290	-0.220	-0.420	-0.460
2020/01/31 21:25:18.2	4.290	-0.330	-0.320	-0.490
2020/01/31 21:25:18.3	4.300	-0.430	-0.230	-0.510
2020/01/31 21:25:18.4	4.300	-0.530	-0.140	-0.530
2020/01/31 21:25:18.5	4.300	-0.620	-0.060	-0.560
2020/01/31 21:25:18.6	4.290	-0.710	0.020	-0.580
2020/01/31 21:25:18.7	4.290	-0.790	0.100	-0.590
2020/01/31 21:25:18.8	4.280	-0.860	0.170	-0.610
2020/01/31 21:25:18.9	4.280	-0.930	0.230	-0.630
2020/01/31 21:25:19.0	4.270	-0.990	0.280	-0.640
2020/01/31 21:25:19.1	4.260	-1.040	0.330	-0.650
2020/01/31 21:25:19.2	4.240	-1.090	0.360	-0.660
2020/01/31 21:25:19.3	4.230	-1.120	0.390	-0.660
2020/01/31 21:25:19.4	4.210	-1.150	0.410	-0.660
2020/01/31 21:25:19.5	4.180	-1.160	0.420	-0.660
2020/01/31 21:25:19.6	4.160	-1.170	0.430	-0.650
2020/01/31 21:25:19.7	4.130	-1.170	0.430	-0.640
2020/01/31 21:25:19.8	4.100	-1.160	0.420	-0.620
2020/01/31 21:25:19.9	4.060	-1.140	0.400	-0.600
2020/01/31 21:25:20.0	4.020	-1.110	0.390	-0.580
2020/01/31 21:25:20.1	3.980	-1.080	0.360	-0.550
2020/01/31 21:25:20.2	3.940	-1.030	0.330	-0.520
2020/01/31 21:25:20.3	3.900	-0.980	0.300	-0.480
2020/01/31 21:25:20.4	3.850	-0.920	0.260	-0.450
2020/01/31 21:25:20.5	3.810	-0.860	0.220	-0.410
2020/01/31 21:25:20.6	3.760	-0.790	0.180	-0.370
2020/01/31 21:25:20.7	3.720	-0.720	0.130	-0.330
2020/01/31 21:25:20.8	3.670	-0.640	0.090	-0.300
2020/01/31 21:25:20.9	3.630	-0.550	0.040	-0.250
2020/01/31 21:25:21.0	3.590	-0.470	-0.010	-0.220
2020/01/31 21:25:21.1	3.550	-0.380	-0.060	-0.180
2020/01/31 21:25:21.2	3.510	-0.290	-0.110	-0.150
2020/01/31 21:25:21.3	3.480	-0.200	-0.160	-0.110
2020/01/31 21:25:21.4	3.440	-0.110	-0.210	-0.090
2020/01/31 21:25:21.5	3.420	-0.020	-0.260	-0.060
2020/01/31 21:25:21.6	3.390	0.060	-0.310	-0.030
2020/01/31 21:25:21.7	3.370	0.150	-0.360	-0.010
2020/01/31 21:25:21.8	3.360	0.230	-0.400	0.010
2020/01/31 21:25:21.9	3.350	0.310	-0.450	0.030
2020/01/31 21:25:22.0	3.350	0.390	-0.490	0.050
2020/01/31 21:25:22.1	3.340	0.470	-0.530	0.060
2020/01/31 21:25:22.2	3.340	0.530	-0.560	0.070
2020/01/31 21:25:22.3	3.340	0.600	-0.590	0.090
2020/01/31 21:25:22.4	3.350	0.660	-0.620	0.100
2020/01/31 21:25:22.5	3.350	0.710	-0.640	0.110
2020/01/31 21:25:22.6	3.360	0.750	-0.660	0.120
2020/01/31 21:25:22.7	3.370	0.790	-0.680	0.120
2020/01/31 21:25:22.8	3.380	0.820	-0.690	0.130
2020/01/31 21:25:22.9	3.410	0.850	-0.690	0.130
2020/01/31 21:25:23.0	3.420	0.870	-0.690	0.130
2020/01/31 21:25:23.1	3.440	0.880	-0.690	0.130
2020/01/31 21:25:23.2	3.460	0.880	-0.680	0.120
2020/01/31 21:25:23.3	3.480	0.880	-0.660	0.120
2020/01/31 21:25:23.4	3.500	0.870	-0.640	0.110
2020/01/31 21:25:23.5	3.530	0.860	-0.620	0.100
2020/01/31 21:25:23.6	3.550	0.830	-0.590	0.090
2020/01/31 21:25:23.7	3.580	0.810	-0.560	0.070
2020/01/31 21:25:23.8	3.610	0.770	-0.520	0.060
2020/01/31 21:25:23.9	3.640	0.740	-0.490	0.040
2020/01/31 21:25:24.0	3.660	0.690	-0.450	0.030
2020/01/31 21:25:24.1	3.690	0.650	-0.410	0.010
2020/01/31 21:25:24.2	3.720	0.600	-0.360	-0.010
2020/01/31 21:25:24.3	3.750	0.540	-0.320	-0.040
2020/01/31 21:25:24.4	3.780	0.490	-0.270	-0.060
2020/01/31 21:25:24.5	3.810	0.430	-0.220	-0.080
2020/01/31 21:25:24.6	3.840	0.370	-0.170	-0.100
2020/01/31 21:25:24.7	3.860	0.310	-0.120	-0.110
2020/01/31 21:25:24.8	3.880	0.250	-0.070	-0.130
2020/01/31 21:25:24.9	3.900	0.180	-0.020	-0.150
2020/01/31 21:25:25.0	3.920	0.120	0.020	-0.170
2020/01/31 21:25:25.1	3.940	0.060	0.070	-0.180
2020/01/31 21:25:25.2	3.950	-0.000	0.110	-0.200
2020/01/31 21:25:25.3	3.960	-0.070	0.160	-0.210
2020/01/31 21:25:25.4	3.970	-0.130	0.190	-0.230
2020/01/31 21:25:25.5	3.980	-0.180	0.230	-0.240
2020/01/31 21:25:25.6	3.990	-0.240	0.260	-0.260
2020/01/31 21:25:25.7	4.000	-0.290	0.280	-0.270
2020/01/31 21:25:25.8	4.010	-0.340	0.300	-0.290
2020/01/31 21:25:25.9	4.010	-0.390	0.310	-0.310
2020/01/31 21:25:26.0	4.020	-0.430	0.320	-0.340
2020/01/31 21:25:26.1	4.030	-0.470	0.320	-0.360
2020/01/31 21:25:26.2	4.040	-0.500	0.310	-0.390
2020/01/31 21:25:26.3	4.050	-0.530	0.300	-0.430
2020/01/31 21:25:26.4	4.060	-0.560	0.280	-0.460
2020/01/31 21:25:26.5	4.070	-0.580	0.260	-0.500
2020/01/31 21:25:26.6	4.080	-0.600	0.220	-0.540
2020/01/31 21:25:26.7	4.100	-0.610	0.190	-0.580
2020/01/31 21:25:26.8	4.110	-0.620	0.150	-0.620
2020/01/31 21:25:26.9	4.120	-0.620	0.100	-0.670
2020/01/31 21:25:27.0	4.140	-0.620	0.050	-0.710
2020/01/31 21:25:27.1	4.150	-0.610	0.000	-0.760
2020/01/31 21:25:27.2	4.160	-0.600	-0.050	-0.800
2020/01/31 21:25:27.3	4.170	-0.590	-0.110	-0.840
2020/01/31 21:25:27.4	4.190	-0.570	-0.170	-0.880
2020/01/31 21:25:27.5	4.200	-0.550	-0.220	-0.920
2020/01/31 21:25:27.6	4.200	-0.520	-0.280	-0.950
2020/01/31 21:25:27.7	4.210	-0.490	-0.330	-0.980
2020/01/31 21:25:27.8	4.220	-0.460	-0.380	-1.010
2020/01/31 21:25:27.9	4.220	-0.420	-0.430	-1.030
2020/01/31 21:25:28.0	4.220	-0.390	-0.470	-1.040
2020/01/31 21:25:28.1	4.220	-0.350	-0.510	-1.060
2020/01/31 21:25:28.2	4.220	-0.310	-0.540	-1.060
2020/01/31 21:25:28.3	4.220	-0.260	-0.570	-1.060
2020/01/31 21:25:28.4	4.220	-0.220	-0.590	-1.060
2020/01/31 21:25:28.5	4.210	-0.180	-0.600	-1.050
2020/01/31 21:25:28.6	4.200	-0.130	-0.610	-1.040
2020/01/31 21:25:28.7	4.190	-0.090	-0.610	-1.020
2020/01/31 21:25:28.8	4.180	-0.050	-0.600	-0.990
2020/01/31 21:25:28.9	4.180	-0.010	-0.590	-0.970
2020/01/31 21:25:29.0	4.170	0.030	-0.580	-0.940
2020/01/31 21:25:29.1	4.150	0.070	-0.550	-0.900
2020/01/31 21:25:29.2	4.140	0.110	-0.530	-0.870
2020/01/31 21:25:29.3	4.120	0.140	-0.500	-0.830
2020/01/31 21:25:29.4	4.100	0.170	-0.460	-0.790
2020/01/31 21:25:29.5	4.090	0.200	-0.430	-0.740
2020/01/31 21:25:29.6	4.070	0.230	-0.390	-0.700
2020/01/31 21:25:29.7	4.050	0.250	-0.350	-0.650
2020/01/31 21:25:29.8	4.030	0.280	-0.310	-0.600
2020/01/31 21:25:29.9	4.010	0.290	-0.270	-0.540
2020/01/31 21:25:30.0	3.990	0.310	-0.230	-0.490
2020/01/31 21:25:30.1	3.970	0.320	-0.190	-0.440
2020/01/31 21:25:30.2	3.950	0.330	-0.160	-0.390
2020/01/31 21:25:30.3	3.940	0.340	-0.130	-0.340
2020/01/31 21:25:30.4	3.920	0.340	-0.100	-0.280
2020/01/31 21:25:30.5	3.900	0.340	-0.070	-0.230
2020/01/31 21:25:30.6	3.880	0.340	-0.050	-0.180
2020/01/31 21:25:30.7	3.860	0.340	-0.030	-0.140
2020/01/31 21:25:30.8	3.840	0.330	-0.020	-0.090
2020/01/31 21:25:30.9	3.830	0.330	-0.000	-0.040
2020/01/31 21:25:31.0	3.810	0.320	0.000	-0.000
2020/01/31 21:25:31.1	3.800	0.310	0.000	0.030
2020/01/31 21:25:31.2	3.780	0.290	-0.000	0.070
2020/01/31 21:25:31.3	3.760	0.280	-0.010	0.100
2020/01/31 21:25:31.4	3.750	0.260	-0.020	0.130
2020/01/31 21:25:31.5	3.730	0.250	-0.040	0.150
2020/01/31 21:25:31.6	3.720	0.230	-0.060	0.180
2020/01/31 21:25:31.7	3.710	0.220	-0.080	0.190
2020/01/31 21:25:31.8	3.700	0.200	-0.110	0.210
2020/01/31 21:25:31.9	3.700	0.190	-0.140	0.220
2020/01/31 21:25:32.0	3.690	0.170	-0.170	0.230
2020/01/31 21:25:32.1	3.680	0.160	-0.210	0.230
2020/01/31 21:25:32.2	3.680	0.140	-0.240	0.230
2020/01/31 21:25:32.3	3.680	0.130	-0.280	0.230
2020/01/31 21:25:32.4	3.680	0.120	-0.320	0.220
2020/01/31 21:25:32.5	3.680	0.100	-0.350	0.210
2020/01/31 21:25:32.6	3.680	0.090	-0.390	0.200
2020/01/31 21:25:32.7	3.690	0.080	-0.430	0.190
2020/01/31 21:25:32.8	3.690	0.070	-0.460	0.170
2020/01/31 21:25:32.9	3.700	0.060	-0.500	0.150
2020/01/31 21:25:33.0	3.710	0.050	-0.530	0.130
2020/01/31 21:25:33.1	3.720	0.050	-0.560	0.100
2020/01/31 21:25:33.2	3.740	0.040	-0.590	0.070
2020/01/31 21:25:33.3	3.760	0.030	-0.620	0.040
2020/01/31 21:25:33.4	3.780	0.030	-0.640	0.010
2020/01/31 21:25:33.5	3.800	0.020	-0.660	-0.030
2020/01/31 21:25:33.6	3.830	0.010	-0.680	-0.070
2020/01/31 21:25:33.7	3.850	0.010	-0.700	-0.110
2020/01/31 21:25:33.8	3.880	0.000	-0.710	-0.160
2020/01/31 21:25:33.9	3.910	-0.010	-0.730	-0.200
2020/01/31 21:25:34.0	3.950	-0.010	-0.740	-0.250
2020/01/31 21:25:34.1	3.980	-0.020	-0.740	-0.300
2020/01/31 21:25:34.2	4.020	-0.030	-0.740	-0.350
2020/01/31 21:25:34.3	4.050	-0.030	-0.750	-0.410
2020/01/31 21:25:34.4	4.090	-0.040	-0.740	-0.460
2020/01/31 21:25:34.5	4.140	-0.050	-0.740	-0.520
2020/01/31 21:25:34.6	4.180	-0.060	-0.730	-0.570
2020/01/31 21:25:34.7	4.220	-0.060	-0.720	-0.630
2020/01/31 21:25:34.8	4.270	-0.070	-0.710	-0.690
2020/01/31 21:25:34.9	4.330	-0.080	-0.700	-0.740
2020/01/31 21:25:35.0	4.370	-0.090	-0.690	-0.800
2020/01/31 21:25:35.1	4.420	-0.090	-0.670	-0.850
2020/01/31 21:25:35.2	4.470	-0.100	-0.650	-0.890
2020/01/31 21:25:35.3	4.510	-0.110	-0.630	-0.940
2020/01/31 21:25:35.4	4.560	-0.110	-0.610	-0.980
2020/01/31 21:25:35.5	4.600	-0.120	-0.590	-1.020
2020/01/31 21:25:35.6	4.650	-0.120	-0.560	-1.050
2020/01/31 21:25:35.7	4.690	-0.130	-0.530	-1.080
2020/01/31 21:25:35.8	4.730	-0.130	-0.510	-1.110
2020/01/31 21:25:35.9	4.770	-0.130	-0.480	-1.130
2020/01/31 21:25:36.0	4.810	-0.130	-0.450	-1.140
2020/01/31 21:25:36.1	4.840	-0.130	-0.410	-1.160
2020/01/31 21:25:36.2	4.870	-0.130	-0.380	-1.160
2020/01/31 21:25:36.3	4.900	-0.130	-0.350	-1.170
2020/01/31 21:25:36.4	4.930	-0.130	-0.310	-1.170
2020/01/31 21:25:36.5	4.950	-0.130	-0.280	-1.160
2020/01/31 21:25:36.6	4.970	-0.120	-0.240	-1.150
2020/01/31 21:25:36.7	4.980	-0.120	-0.200	-1.140
2020/01/31 21:25:36.8	4.990	-0.110	-0.160	-1.120
2020/01/31 21:25:36.9	5.000	-0.100	-0.120	-1.090
2020/01/31 21:25:37.0	5.000	-0.100	-0.080	-1.070
2020/01/31 21:25:37.1	5.000	-0.090	-0.040	-1.030
2020/01/31 21:25:37.2	4.990	-0.080	0.000	-1.000
2020/01/31 21:25:37.3	4.980	-0.070	0.050	-0.960
2020/01/31 21:25:37.4	4.960	-0.060	0.090	-0.910
2020/01/31 21:25:37.5	4.940	-0.050	0.140	-0.870
2020/01/31 21:25:37.6	4.920	-0.040	0.180	-0.820
2020/01/31 21:25:37.7	4.890	-0.030	0.230	-0.760
2020/01/31 21:25:37.8	4.860	-0.020	0.270	-0.710
2020/01/31 21:25:37.9	4.810	-0.010	0.310	-0.640
2020/01/31 21:25:38.0	4.770	0.000	0.350	-0.580
2020/01/31 21:25:38.1	4.720	0.010	0.400	-0.520
2020/01/31 21:25:38.2	4.670	0.010	0.440	-0.450
2020/01/31 21:25:38.3	4.620	0.020	0.480	-0.390
2020/01/31 21:25:38.4	4.560	0.020	0.520	-0.330
2020/01/31 21:25:38.5	4.510	0.020	0.560	-0.260
2020/01/31 21:25:38.6	4.450	0.020	0.600	-0.210
2020/01/31 21:25:38.7	4.390	0.020	0.630	-0.150
2020/01/31 21:25:38.8	4.330	0.020	0.660	-0.090
2020/01/31 21:25:38.9	4.260	0.010	0.680	-0.040
2020/01/31 21:25:39.0	4.200	0.010	0.700	0.000
2020/01/31 21:25:39.1	4.140	-0.000	0.720	0.050
2020/01/31 21:25:39.2	4.080	-0.010	0.730	0.090
2020/01/31 21:25:39.3	4.030	-0.020	0.740	0.120
2020/01/31 21:25:39.4	3.970	-0.030	0.740	0.160
2020/01/31 21:25:39.5	3.920	-0.040	0.730	0.180
2020/01/31 21:25:39.6	3.870	-0.060	0.720	0.210
2020/01/31 21:25:39.7	3.820	-0.070	0.710	0.230
2020/01/31 21:25:39.8	3.780	-0.080	0.690	0.240
2020/01/31 21:25:39.9	3.730	-0.100	0.660	0.250
2020/01/31 21:25:40.0	3.700	-0.110	0.630	0.260
2020/01/31 21:25:40.1	3.660	-0.120	0.590	0.260
2020/01/31 21:25:40.2	3.630	-0.130	0.550	0.260
2020/01/31 21:25:40.3	3.610	-0.140	0.500	0.250
2020/01/31 21:25:40.4	3.590	-0.150	0.440	0.240
2020/01/31 21:25:40.5	3.570	-0.160	0.380	0.230
2020/01/31 21:25:40.6	3.560	-0.160	0.320	0.210
2020/01/31 21:25:40.7	3.560	-0.170	0.250	0.190
2020/01/31 21:25:40.8	3.560	-0.170	0.180	0.170
2020/01/31 21:25:40.9	3.560	-0.160	0.110	0.140
2020/01/31 21:25:41.0	3.570	-0.160	0.030	0.110
2020/01/31 21:25:41.1	3.580	-0.150	-0.050	0.080
2020/01/31 21:25:41.2	3.600	-0.140	-0.140	0.050
2020/01/31 21:25:41.3	3.620	-0.130	-0.220	0.010
2020/01/31 21:25:41.4	3.650	-0.110	-0.310	-0.030
2020/01/31 21:25:41.5	3.680	-0.100	-0.390	-0.080
2020/01/31 21:25:41.6	3.710	-0.080	-0.480	-0.120
2020/01/31 21:25:41.7	3.750	-0.050	-0.570	-0.170
2020/01/31 21:25:41.8	3.790	-0.030	-0.650	-0.220
2020/01/31 21:25:41.9	3.820	-0.010	-0.740	-0.280
2020/01/31 21:25:42.0	3.870	0.020	-0.820	-0.330
2020/01/31 21:25:42.1	3.910	0.050	-0.900	-0.390
2020/01/31 21:25:42.2	3.950	0.070	-0.980	-0.440
2020/01/31 21:25:42.3	4.000	0.100	-1.050	-0.500
2020/01/31 21:25:42.4	4.040	0.130	-1.120	-0.550
2020/01/31 21:25:42.5	4.090	0.150	-1.190	-0.600
2020/01/31 21:25:42.6	4.130	0.180	-1.250	-0.650
2020/01/31 21:25:42.7	4.170	0.200	-1.300	-0.700
2020/01/31 21:25:42.8	4.210	0.220	-1.350	-0.740
2020/01/31 21:25:42.9	4.250	0.240	-1.400	-0.780
2020/01/31 21:25:43.0	4.290	0.260	-1.440	-0.830
2020/01/31 21:25:43.1	4.320	0.280	-1.470	-0.860
2020/01/31 21:25:43.2	4.360	0.300	-1.500	-0.900
2020/01/31 21:25:43.3	4.390	0.310	-1.520	-0.930
2020/01/31 21:25:43.4	4.430	0.320	-1.530	-0.960
2020/01/31 21:25:43.5	4.460	0.330	-1.540	-0.980
2020/01/31 21:25:43.6	4.490	0.340	-1.540	-1.010
2020/01/31 21:25:43.7	4.520	0.340	-1.540	-1.030
2020/01/31 21:25:43.8	4.550	0.350	-1.530	-1.040
2020/01/31 21:25:43.9	4.580	0.350	-1.510	-1.060
2020/01/31 21:25:44.0	4.610	0.340	-1.490	-1.070
2020/01/31 21:25:44.1	4.630	0.340	-1.470	-1.080
2020/01/31 21:25:44.2	4.660	0.330	-1.440	-1.090
2020/01/31 21:25:44.3	4.680	0.330	-1.400	-1.090
2020/01/31 21:25:44.4	4.700	0.310	-1.360	-1.090
2020/01/31 21:25:44.5	4.730	0.300	-1.310	-1.100
2020/01/31 21:25:44.6	4.740	0.290	-1.260	-1.090
2020/01/31 21:25:44.7	4.760	0.270	-1.200	-1.090
2020/01/31 21:25:44.8	4.780	0.260	-1.140	-1.090
2020/01/31 21:25:44.9	4.800	0.240	-1.080	-1.080
2020/01/31 21:25:45.0	4.810	0.220	-1.010	-1.070
2020/01/31 21:25:45.1	4.820	0.190	-0.930	-1.050
2020/01/31 21:25:45.2	4.820	0.170	-0.860	-1.040
2020/01/31 21:25:45.3	4.820	0.150	-0.770	-1.020
2020/01/31 21:25:45.4	4.830	0.120	-0.690	-1.000
2020/01/31 21:25:45.5	4.830	0.100	-0.600	-0.980
2020/01/31 21:25:45.6	4.830	0.070	-0.510	-0.950
2020/01/31 21:25:45.7	4.820	0.040	-0.420	-0.920
2020/01/31 21:25:45.8	4.820	0.020	-0.320	-0.890
2020/01/31 21:25:45.9	4.810	-0.010	-0.230	-0.860
2020/01/31 21:25:46.0	4.800	-0.040	-0.130	-0.820
2020/01/31 21:25:46.1	4.790	-0.070	-0.030	-0.780
2020/01/31 21:25:46.2	4.780	-0.100	0.070	-0.740
2020/01/31 21:25:46.3	4.770	-0.120	0.170	-0.700
2020/01/31 21:25:46.4	4.760	-0.150	0.260	-0.660
2020/01/31 21:25:46.5	4.750	-0.180	0.350	-0.610
2020/01/31 21:25:46.6	4.740	-0.200	0.440	-0.570
2020/01/31 21:25:46.7	4.720	-0.230	0.530	-0.520
2020/01/31 21:25:46.8	4.710	-0.250	0.610	-0.480
2020/01/31 21:25:46.9	4.700	-0.270	0.690	-0.440
2020/01/31 21:25:47.0	4.690	-0.290	0.760	-0.400
2020/01/31 21:25:47.1	4.680	-0.310	0.830	-0.350
2020/01/31 21:25:47.2	4.670	-0.330	0.890	-0.320
2020/01/31 21:25:47.3	4.650	-0.340	0.950	-0.280
2020/01/31 21:25:47.4	4.640	-0.360	0.990	-0.240
2020/01/31 21:25:47.5	4.630	-0.370	1.030	-0.210
2020/01/31 21:25:47.6	4.620	-0.370	1.060	-0.180
2020/01/31 21:25:47.7	4.610	-0.380	1.080	-0.150
2020/01/31 21:25:47.8	4.600	-0.380	1.090	-0.120
2020/01/31 21:25:47.9	4.600	-0.380	1.100	-0.090
2020/01/31 21:25:48.0	4.590	-0.370	1.090	-0.070
2020/01/31 21:25:48.1	4.580	-0.370	1.080	-0.050
2020/01/31 21:25:48.2	4.580	-0.360	1.060	-0.030
2020/01/31 21:25:48.3	4.570	-0.350	1.020	-0.010
2020/01/31 21:25:48.4	4.570	-0.330	0.980	0.010
2020/01/31 21:25:48.5	4.560	-0.310	0.930	0.020
2020/01/31 21:25:48.6	4.560	-0.290	0.880	0.030
2020/01/31 21:25:48.7	4.560	-0.270	0.810	0.040
2020/01/31 21:25:48.8	4.550	-0.240	0.740	0.050
2020/01/31 21:25:48.9	4.560	-0.220	0.660	0.070
2020/01/31 21:25:49.0	4.550	-0.190	0.570	0.070
2020/01/31 21:25:49.1	4.550	-0.160	0.480	0.080
2020/01/31 21:25:49.2	4.550	-0.130	0.390	0.080
2020/01/31 21:25:49.3	4.540	-0.090	0.290	0.080
2020/01/31 21:25:49.4	4.540	-0.060	0.190	0.080
2020/01/31 21:25:49.5	4.540	-0.030	0.080	0.070
2020/01/31 21:25:49.6	4.540	0.010	-0.020	0.070
2020/01/31 21:25:49.7	4.530	0.040	-0.130	0.060
2020/01/31 21:25:49.8	4.530	0.070	-0.240	0.050
2020/01/31 21:25:49.9	4.520	0.100	-0.340	0.040
2020/01/31 21:25:50.0	4.520	0.130	-0.450	0.020
2020/01/31 21:25:50.1	4.510	0.160	-0.550	0.000
2020/01/31 21:25:50.2	4.510	0.190	-0.650	-0.020
2020/01/31 21:25:50.3	4.510	0.220	-0.740	-0.040
2020/01/31 21:25:50.4	4.510	0.240	-0.830	-0.070
2020/01/31 21:25:50.5	4.510	0.260	-0.910	-0.100
2020/01/31 21:25:50.6	4.510	0.280	-0.990	-0.130
2020/01/31 21:25:50.7	4.510	0.300	-1.060	-0.170
2020/01/31 21:25:50.8	4.510	0.320	-1.120	-0.200
2020/01/31 21:25:50.9	4.490	0.330	-1.170	-0.240
2020/01/31 21:25:51.0	4.490	0.340	-1.220	-0.280
2020/01/31 21:25:51.1	4.490	0.350	-1.250	-0.310
2020/01/31 21:25:51.2	4.490	0.350	-1.270	-0.350
2020/01/31 21:25:51.3	4.480	0.350	-1.290	-0.390
2020/01/31 21:25:51.4	4.480	0.350	-1.290	-0.420
2020/01/31 21:25:51.5	4.480	0.350	-1.280	-0.450
2020/01/31 21:25:51.6	4.480	0.340	-1.260	-0.490
2020/01/31 21:25:51.7	4.480	0.330	-1.230	-0.520
2020/01/31 21:25:51.8	4.480	0.320	-1.190	-0.540
2020/01/31 21:25:51.9	4.480	0.310	-1.140	-0.570
2020/01/31 21:25:52.0	4.480	0.290	-1.080	-0.590
2020/01/31 21:25:52.1	4.470	0.270	-1.010	-0.610
2020/01/31 21:25:52.2	4.470	0.250	-0.930	-0.630
2020/01/31 21:25:52.3	4.460	0.230	-0.850	-0.650
2020/01/31 21:25:52.4	4.450	0.200	-0.760	-0.660
2020/01/31 21:25:52.5	4.440	0.180	-0.670	-0.680
2020/01/31 21:25:52.6	4.440	0.150	-0.570	-0.690
2020/01/31 21:25:52.7	4.430	0.130	-0.470	-0.700
2020/01/31 21:25:52.8	4.420	0.100	-0.360	-0.700
2020/01/31 21:25:52.9	4.420	0.070	-0.260	-0.710
2020/01/31 21:25:53.0	4.410	0.040	-0.160	-0.710
2020/01/31 21:25:53.1	4.410	0.020	-0.060	-0.720
2020/01/31 21:25:53.2	4.400	-0.010	0.040	-0.720
2020/01/31 21:25:53.3	4.400	-0.040	0.140	-0.720
2020/01/31 21:25:53.4	4.390	-0.060	0.230	-0.720
2020/01/31 21:25:53.5	4.390	-0.090	0.310	-0.720
2020/01/31 21:25:53.6	4.390	-0.110	0.390	-0.720
2020/01/31 21:25:53.7	4.390	-0.130	0.460	-0.720
2020/01/31 21:25:53.8	4.390	-0.160	0.520	-0.720
2020/01/31 21:25:53.9	4.390	-0.180	0.580	-0.710
2020/01/31 21:25:54.0	4.400	-0.190	0.620	-0.710
2020/01/31 21:25:54.1	4.400	-0.210	0.660	-0.710
2020/01/31 21:25:54.2	4.410	-0.220	0.680	-0.700
2020/01/31 21:25:54.3	4.410	-0.230	0.690	-0.700
2020/01/31 21:25:54.4	4.420	-0.240	0.700	-0.700
2020/01/31 21:25:54.5	4.430	-0.250	0.700	-0.700
2020/01/31 21:25:54.6	4.430	-0.260	0.680	-0.690
2020/01/31 21:25:54.7	4.440	-0.260	0.660	-0.690
2020/01/31 21:25:54.8	4.450	-0.260	0.620	-0.690
2020/01/31 21:25:54.9	4.450	-0.260	0.580	-0.690
2020/01/31 21:25:55.0	4.460	-0.260	0.530	-0.680
2020/01/31 21:25:55.1	4.480	-0.260	0.480	-0.680
2020/01/31 21:25:55.2	4.490	-0.250	0.410	-0.680
2020/01/31 21:25:55.3	4.500	-0.240	0.340	-0.680
2020/01/31 21:25:55.4	4.510	-0.240	0.270	-0.670
2020/01/31 21:25:55.5	4.520	-0.230	0.190	-0.670
2020/01/31 21:25:55.6	4.540	-0.220	0.110	-0.660
2020/01/31 21:25:55.7	4.550	-0.200	0.030	-0.660
2020/01/31 21:25:55.8	4.560	-0.190	-0.050	-0.650
2020/01/31 21:25:55.9	4.560	-0.180	-0.140	-0.650
2020/01/31 21:25:56.0	4.570	-0.160	-0.220	-0.640
2020/01/31 21:25:56.1	4.580	-0.150	-0.300	-0.630
2020/01/31 21:25:56.2	4.590	-0.130	-0.390	-0.620
2020/01/31 21:25:56.3	4.600	-0.120	-0.460	-0.610
2020/01/31 21:25:56.4	4.610	-0.100	-0.540	-0.600
2020/01/31 21:25:56.5	4.620	-0.090	-0.610	-0.580
2020/01/31 21:25:56.6	4.620	-0.070	-0.680	-0.570
2020/01/31 21:25:56.7	4.630	-0.060	-0.750	-0.560
2020/01/31 21:25:56.8	4.640	-0.040	-0.810	-0.540
2020/01/31 21:25:56.9	4.650	-0.030	-0.860	-0.530
2020/01/31 21:25:57.0	4.660	-0.010	-0.920	-0.510
2020/01/31 21:25:57.1	4.670	0.000	-0.960	-0.490
2020/01/31 21:25:57.2	4.680	0.010	-1.000	-0.480
2020/01/31 21:25:57.3	4.690	0.030	-1.040	-0.460
2020/01/31 21:25:57.4	4.700	0.040	-1.070	-0.440
2020/01/31 21:25:57.5	4.710	0.050	-1.090	-0.420
2020/01/31 21:25:57.6	4.730	0.060	-1.110	-0.400
2020/01/31 21:25:57.7	4.740	0.070	-1.120	-0.390
2020/01/31 21:25:57.8	4.750	0.080	-1.130	-0.370
2020/01/31 21:25:57.9	4.750	0.090	-1.130	-0.350
2020/01/31 21:25:58.0	4.770	0.100	-1.130	-0.330
2020/01/31 21:25:58.1	4.780	0.100	-1.130	-0.310
2020/01/31 21:25:58.2	4.790	0.110	-1.120	-0.300
2020/01/31 21:25:58.3	4.800	0.120	-1.100	-0.280
2020/01/31 21:25:58.4	4.810	0.120	-1.090	-0.270
2020/01/31 21:25:58.5	4.820	0.130	-1.070	-0.260
2020/01/31 21:25:58.6	4.840	0.130	-1.040	-0.240
2020/01/31 21:25:58.7	4.850	0.140	-1.020	-0.240
2020/01/31 21:25:58.8	4.860	0.140	-0.990	-0.230
2020/01/31 21:25:58.9	4.880	0.150	-0.960	-0.220
2020/01/31 21:25:59.0	4.890	0.150	-0.930	-0.220
2020/01/31 21:25:59.1	4.910	0.160	-0.890	-0.210
2020/01/31 21:25:59.2	4.920	0.160	-0.850	-0.210
2020/01/31 21:25:59.3	4.930	0.160	-0.820	-0.210
2020/01/31 21:25:59.4	4.940	0.170	-0.780	-0.220
2020/01/31 21:25:59.5	4.950	0.170	-0.730	-0.220
2020/01/31 21:25:59.6	4.960	0.170	-0.690	-0.230
2020/01/31 21:25:59.7	4.960	0.170	-0.650	-0.240
2020/01/31 21:25:59.8	4.970	0.170	-0.610	-0.250
2020/01/31 21:25:59.9	4.990	0.170	-0.560	-0.260
2020/01/31 21:26:00.0	5.000	0.170	-0.520	-0.270
2020/01/31 21:26:00.1	5.000	0.170	-0.470	-0.290
2020/01/31 21:26:00.2	5.010	0.170	-0.430	-0.300
2020/01/31 21:26:00.3	5.020	0.160	-0.380	-0.320
2020/01/31 21:26:00.4	5.020	0.160	-0.340	-0.340
2020/01/31 21:26:00.5	5.030	0.160	-0.290	-0.360
2020/01/31 21:26:00.6	5.040	0.150	-0.250	-0.380
2020/01/31 21:26:00.7	5.040	0.150	-0.210	-0.400
2020/01/31 21:26:00.8	5.050	0.140	-0.170	-0.420
2020/01/31 21:26:00.9	5.050	0.130	-0.130	-0.440
2020/01/31 21:26:01.0	5.060	0.130	-0.090	-0.460
2020/01/31 21:26:01.1	5.070	0.120	-0.050	-0.480
2020/01/31 21:26:01.2	5.070	0.110	-0.020	-0.510
2020/01/31 21:26:01.3	5.070	0.100	0.020	-0.530
2020/01/31 21:26:01.4	5.080	0.090	0.050	-0.550
2020/01/31 21:26:01.5	5.080	0.080	0.090	-0.560
2020/01/31 21:26:01.6	5.080	0.060	0.120	-0.580
2020/01/31 21:26:01.7	5.080	0.050	0.160	-0.600
2020/01/31 21:26:01.8	5.070	0.040	0.190	-0.610
2020/01/31 21:26:01.9	5.080	0.020	0.230	-0.620
2020/01/31 21:26:02.0	5.070	0.010	0.260	-0.630
2020/01/31 21:26:02.1	5.060	-0.010	0.300	-0.630
2020/01/31 21:26:02.2	5.050	-0.030	0.340	-0.640
2020/01/31 21:26:02.3	5.030	-0.040	0.370	-0.640
2020/01/31 21:26:02.4	5.020	-0.060	0.410	-0.630
2020/01/31 21:26:02.5	5.000	-0.080	0.450	-0.630
2020/01/31 21:26:02.6	4.980	-0.100	0.480	-0.620
2020/01/31 21:26:02.7	4.950	-0.120	0.520	-0.610
2020/01/31 21:26:02.8	4.930	-0.140	0.560	-0.590
2020/01/31 21:26:02.9	4.890	-0.160	0.590	-0.580
2020/01/31 21:26:03.0	4.860	-0.180	0.620	-0.560
2020/01/31 21:26:03.1	4.820	-0.200	0.660	-0.540
2020/01/31 21:26:03.2	4.790	-0.220	0.690	-0.510
2020/01/31 21:26:03.3	4.750	-0.240	0.710	-0.480
2020/01/31 21:26:03.4	4.700	-0.260	0.740	-0.460
2020/01/31 21:26:03.5	4.660	-0.280	0.760	-0.420
2020/01/31 21:26:03.6	4.610	-0.300	0.770	-0.390
2020/01/31 21:26:03.7	4.570	-0.310	0.790	-0.350
2020/01/31 21:26:03.8	4.520	-0.330	0.790	-0.320
2020/01/31 21:26:03.9	4.460	-0.340	0.800	-0.280
2020/01/31 21:26:04.0	4.410	-0.350	0.790	-0.240
2020/01/31 21:26:04.1	4.350	-0.360	0.790	-0.200
2020/01/31 21:26:04.2	4.300	-0.370	0.770	-0.160
2020/01/31 21:26:04.3	4.240	-0.380	0.750	-0.120
2020/01/31 21:26:04.4	4.190	-0.380	0.720	-0.080
2020/01/31 21:26:04.5	4.130	-0.380	0.690	-0.040
2020/01/31 21:26:04.6	4.080	-0.370	0.650	-0.000
2020/01/31 21:26:04.7	4.030	-0.360	0.600	0.040
2020/01/31 21:26:04.8	3.990	-0.350	0.550	0.070
2020/01/31 21:26:04.9	3.950	-0.330	0.490	0.100
2020/01/31 21:26:05.0	3.910	-0.310	0.420	0.130
2020/01/31 21:26:05.1	3.870	-0.290	0.350	0.150
2020/01/31 21:26:05.2	3.840	-0.260	0.280	0.170
2020/01/31 21:26:05.3	3.810	-0.230	0.200	0.190
2020/01/31 21:26:05.4	3.790	-0.190	0.120	0.200
2020/01/31 21:26:05.5	3.780	-0.150	0.030	0.210
2020/01/31 21:26:05.6	3.770	-0.100	-0.060	0.210
2020/01/31 21:26:05.7	3.760	-0.050	-0.160	0.210
2020/01/31 21:26:05.8	3.760	-0.000	-0.250	0.210
2020/01/31 21:26:05.9	3.780	0.060	-0.350	0.190
2020/01/31 21:26:06.0	3.790	0.110	-0.440	0.180
2020/01/31 21:26:06.1	3.810	0.170	-0.540	0.160
2020/01/31 21:26:06.2	3.830	0.240	-0.640	0.140
2020/01/31 21:26:06.3	3.860	0.300	-0.730	0.110
2020/01/31 21:26:06.4	3.900	0.360	-0.830	0.080
2020/01/31 21:26:06.5	3.940	0.430	-0.920	0.050
2020/01/31 21:26:06.6	3.980	0.490	-1.000	0.010
2020/01/31 21:26:06.7	4.030	0.550	-1.080	-0.020
2020/01/31 21:26:06.8	4.080	0.610	-1.160	-0.060
2020/01/31 21:26:06.9	4.140	0.660	-1.230	-0.090
2020/01/31 21:26:07.0	4.190	0.710	-1.300	-0.130
2020/01/31 21:26:07.1	4.240	0.760	-1.360	-0.170
2020/01/31 21:26:07.2	4.290	0.800	-1.400	-0.210
2020/01/31 21:26:07.3	4.340	0.830	-1.450	-0.240
2020/01/31 21:26:07.4	4.390	0.860	-1.480	-0.280
2020/01/31 21:26:07.5	4.440	0.880	-1.500	-0.310
2020/01/31 21:26:07.6	4.490	0.890	-1.520	-0.350
2020/01/31 21:26:07.7	4.530	0.890	-1.520	-0.380
2020/01/31 21:26:07.8	4.570	0.890	-1.520	-0.420
2020/01/31 21:26:07.9	4.620	0.880	-1.510	-0.450
2020/01/31 21:26:08.0	4.650	0.860	-1.490	-0.490
2020/01/31 21:26:08.1	4.680	0.830	-1.470	-0.520
2020/01/31 21:26:08.2	4.720	0.790	-1.430	-0.560
2020/01/31 21:26:08.3	4.740	0.750	-1.390	-0.600
2020/01/31 21:26:08.4	4.770	0.700	-1.350	-0.640
2020/01/31 21:26:08.5	4.790	0.640	-1.300	-0.680
2020/01/31 21:26:08.6	4.820	0.570	-1.240	-0.720
2020/01/31 21:26:08.7	4.840	0.500	-1.180	-0.770
2020/01/31 21:26:08.8	4.860	0.430	-1.120	-0.810
2020/01/31 21:26:08.9	4.850	0.350	-1.050	-0.860
2020/01/31 21:26:09.0	4.870	0.260	-0.980	-0.900
2020/01/31 21:26:09.1	4.880	0.180	-0.910	-0.940
2020/01/31 21:26:09.2	4.890	0.090	-0.840	-0.990
2020/01/31 21:26:09.3	4.910	-0.000	-0.760	-1.030
2020/01/31 21:26:09.4	4.920	-0.090	-0.690	-1.080
2020/01/31 21:26:09.5	4.930	-0.180	-0.610	-1.120
2020/01/31 21:26:09.6	4.940	-0.270	-0.540	-1.160
2020/01/31 21:26:09.7	4.950	-0.360	-0.460	-1.200
2020/01/31 21:26:09.8	4.960	-0.440	-0.390	-1.240
2020/01/31 21:26:09.9	4.970	-0.520	-0.310	-1.280
2020/01/31 21:26:10.0	4.970	-0.600	-0.240	-1.310
2020/01/31 21:26:10.1	4.970	-0.670	-0.170	-1.340
2020/01/31 21:26:10.2	4.980	-0.740	-0.100	-1.370
2020/01/31 21:26:10.3	4.980	-0.800	-0.030	-1.400
2020/01/31 21:26:10.4	4.980	-0.860	0.040	-1.420
2020/01/31 21:26:10.5	4.980	-0.910	0.110	-1.430
2020/01/31 21:26:10.6	4.970	-0.950	0.170	-1.450
2020/01/31 21:26:10.7	4.970	-0.990	0.230	-1.460
2020/01/31 21:26:10.8	4.960	-1.010	0.290	-1.460
2020/01/31 21:26:10.9	4.950	-1.040	0.350	-1.460
2020/01/31 21:26:11.0	4.940	-1.050	0.400	-1.450
2020/01/31 21:26:11.1	4.930	-1.060	0.450	-1.440
2020/01/31 21:26:11.2	4.910	-1.060	0.490	-1.420
2020/01/31 21:26:11.3	4.900	-1.050	0.540	-1.400
2020/01/31 21:26:11.4	4.880	-1.040	0.570	-1.380
2020/01/31 21:26:11.5	4.860	-1.020	0.610	-1.350
2020/01/31 21:26:11.6	4.840	-1.000	0.640	-1.310
2020/01/31 21:26:11.7	4.820	-0.970	0.670	-1.280
2020/01/31 21:26:11.8	4.790	-0.930	0.690	-1.240
2020/01/31 21:26:11.9	4.770	-0.890	0.710	-1.190
2020/01/31 21:26:12.0	4.740	-0.850	0.720	-1.140
2020/01/31 21:26:12.1	4.710	-0.800	0.730	-1.090
2020/01/31 21:26:12.2	4.680	-0.760	0.740	-1.040
2020/01/31 21:26:12.3	4.650	-0.700	0.740	-0.990
2020/01/31 21:26:12.4	4.610	-0.650	0.730	-0.930
2020/01/31 21:26:12.5	4.570	-0.590	0.720	-0.870
2020/01/31 21:26:12.6	4.540	-0.540	0.710	-0.820
2020/01/31 21:26:12.7	4.490	-0.480	0.690	-0.760
2020/01/31 21:26:12.8	4.450	-0.420	0.670	-0.700
2020/01/31 21:26:12.9	4.410	-0.370	0.650	-0.630
2020/01/31 21:26:13.0	4.370	-0.310	0.620	-0.570
2020/01/31 21:26:13.1	4.320	-0.250	0.590	-0.510
2020/01/31 21:26:13.2	4.270	-0.200	0.550	-0.450
2020/01/31 21:26:13.3	4.220	-0.150	0.510	-0.390
2020/01/31 21:26:13.4	4.170	-0.090	0.470	-0.330
2020/01/31 21:26:13.5	4.120	-0.050	0.420	-0.270
2020/01/31 21:26:13.6	4.070	0.000	0.370	-0.220
2020/01/31 21:26:13.7	4.030	0.050	0.320	-0.160
2020/01/31 21:26:13.8	3.980	0.090	0.260	-0.110
2020/01/31 21:26:13.9	3.930	0.130	0.200	-0.050
2020/01/31 21:26:14.0	3.880	0.170	0.140	-0.000
2020/01/31 21:26:14.1	3.840	0.210	0.080	0.050
2020/01/31 21:26:14.2	3.800	0.240	0.020	0.090
2020/01/31 21:26:14.3	3.770	0.270	-0.050	0.140
2020/01/31 21:26:14.4	3.740	0.310	-0.110	0.180
2020/01/31 21:26:14.5	3.710	0.330	-0.180	0.210
2020/01/31 21:26:14.6	3.690	0.360	-0.250	0.250
2020/01/31 21:26:14.7	3.670	0.390	-0.320	0.280
2020/01/31 21:26:14.8	3.650	0.410	-0.380	0.300
2020/01/31 21:26:14.9	3.650	0.440	-0.450	0.320
2020/01/31 21:26:15.0	3.650	0.460	-0.520	0.340
2020/01/31 21:26:15.1	3.650	0.480	-0.590	0.350
2020/01/31 21:26:15.2	3.650	0.500	-0.660	0.360
2020/01/31 21:26:15.3	3.660	0.520	-0.720	0.360
2020/01/31 21:26:15.4	3.680	0.540	-0.790	0.360
2020/01/31 21:26:15.5	3.700	0.560	-0.850	0.350
2020/01/31 21:26:15.6	3.720	0.580	-0.910	0.340
2020/01/31 21:26:15.7	3.750	0.600	-0.970	0.330
2020/01/31 21:26:15.8	3.780	0.610	-1.020	0.300
2020/01/31 21:26:15.9	3.840	0.630	-1.080	0.280
2020/01/31 21:26:16.0	3.880	0.640	-1.130	0.250
2020/01/31 21:26:16.1	3.920	0.660	-1.170	0.220
2020/01/31 21:26:16.2	3.960	0.670	-1.210	0.180
2020/01/31 21:26:16.3	4.010	0.680	-1.240	0.140
2020/01/31 21:26:16.4	4.060	0.690	-1.270	0.090
2020/01/31 21:26:16.5	4.110	0.690	-1.300	0.040
2020/01/31 21:26:16.6	4.160	0.700	-1.310	-0.010
2020/01/31 21:26:16.7	4.210	0.700	-1.320	-0.060
2020/01/31 21:26:16.8	4.270	0.700	-1.330	-0.120
2020/01/31 21:26:16.9	4.310	0.700	-1.320	-0.180
2020/01/31 21:26:17.0	4.360	0.690	-1.310	-0.230
2020/01/31 21:26:17.1	4.420	0.680	-1.290	-0.290
2020/01/31 21:26:17.2	4.470	0.670	-1.270	-0.340
2020/01/31 21:26:17.3	4.520	0.660	-1.240	-0.400
2020/01/31 21:26:17.4	4.570	0.640	-1.190	-0.450
2020/01/31 21:26:17.5	4.620	0.620	-1.150	-0.490
2020/01/31 21:26:17.6	4.670	0.590	-1.090	-0.540
2020/01/31 21:26:17.7	4.710	0.560	-1.030	-0.580
2020/01/31 21:26:17.8	4.750	0.530	-0.960	-0.610
2020/01/31 21:26:17.9	4.780	0.500	-0.890	-0.640
2020/01/31 21:26:18.0	4.820	0.460	-0.810	-0.660
2020/01/31 21:26:18.1	4.840	0.420	-0.720	-0.680
2020/01/31 21:26:18.2	4.860	0.370	-0.630	-0.690
2020/01/31 21:26:18.3	4.880	0.330	-0.540	-0.700
2020/01/31 21:26:18.4	4.890	0.280	-0.450	-0.710
2020/01/31 21:26:18.5	4.900	0.220	-0.360	-0.710
2020/01/31 21:26:18.6	4.910	0.170	-0.260	-0.710
2020/01/31 21:26:18.7	4.910	0.110	-0.170	-0.700
2020/01/31 21:26:18.8	4.900	0.050	-0.080	-0.700
2020/01/31 21:26:18.9	4.910	-0.010	0.010	-0.680
2020/01/31 21:26:19.0	4.900	-0.070	0.100	-0.670
2020/01/31 21:26:19.1	4.880	-0.130	0.180	-0.660
2020/01/31 21:26:19.2	4.870	-0.190	0.260	-0.650
2020/01/31 21:26:19.3	4.850	-0.240	0.330	-0.640
2020/01/31 21:26:19.4	4.820	-0.300	0.400	-0.630
2020/01/31 21:26:19.5	4.800	-0.360	0.460	-0.620
2020/01/31 21:26:19.6	4.780	-0.410	0.510	-0.610
2020/01/31 21:26:19.7	4.750	-0.460	0.550	-0.600
2020/01/31 21:26:19.8	4.720	-0.510	0.590	-0.590
2020/01/31 21:26:19.9	4.700	-0.550	0.630	-0.580
2020/01/31 21:26:20.0	4.670	-0.590	0.660	-0.570
2020/01/31 21:26:20.1	4.630	-0.630	0.680	-0.550
2020/01/31 21:26:20.2	4.600	-0.660	0.690	-0.540
2020/01/31 21:26:20.3	4.560	-0.680	0.700	-0.530
2020/01/31 21:26:20.4	4.530	-0.700	0.700	-0.510
2020/01/31 21:26:20.5	4.490	-0.720	0.700	-0.500
2020/01/31 21:26:20.6	4.460	-0.720	0.690	-0.480
2020/01/31 21:26:20.7	4.420	-0.720	0.670	-0.470
2020/01/31 21:26:20.8	4.390	-0.720	0.650	-0.450
2020/01/31 21:26:20.9	4.350	-0.710	0.630	-0.440
2020/01/31 21:26:21.0	4.310	-0.690	0.600	-0.420
2020/01/31 21:26:21.1	4.290	-0.670	0.570	-0.400
2020/01/31 21:26:21.2	4.260	-0.650	0.540	-0.380
2020/01/31 21:26:21.3	4.230	-0.610	0.500	-0.370
2020/01/31 21:26:21.4	4.210	-0.580	0.460	-0.350
2020/01/31 21:26:21.5	4.180	-0.540	0.420	-0.340
2020/01/31 21:26:21.6	4.160	-0.490	0.370	-0.320
2020/01/31 21:26:21.7	4.150	-0.450	0.330	-0.310
2020/01/31 21:26:21.8	4.130	-0.400	0.280	-0.300
2020/01/31 21:26:21.9	4.120	-0.350	0.230	-0.290
2020/01/31 21:26:22.0	4.100	-0.300	0.180	-0.290
2020/01/31 21:26:22.1	4.100	-0.240	0.130	-0.280
2020/01/31 21:26:22.2	4.090	-0.190	0.070	-0.280
2020/01/31 21:26:22.3	4.090	-0.140	0.020	-0.270
2020/01/31 21:26:22.4	4.080	-0.090	-0.030	-0.270
2020/01/31 21:26:22.5	4.080	-0.040	-0.080	-0.270
2020/01/31 21:26:22.6	4.080	0.010	-0.120	-0.270
2020/01/31 21:26:22.7	4.080	0.060	-0.170	-0.260
2020/01/31 21:26:22.8	4.080	0.100	-0.210	-0.260
2020/01/31 21:26:22.9	4.070	0.140	-0.260	-0.260
2020/01/31 21:26:23.0	4.080	0.170	-0.300	-0.260
2020/01/31 21:26:23.1	4.080	0.210	-0.330	-0.260
2020/01/31 21:26:23.2	4.090	0.240	-0.370	-0.260
2020/01/31 21:26:23.3	4.090	0.260	-0.400	-0.260
2020/01/31 21:26:23.4	4.100	0.280	-0.420	-0.260
2020/01/31 21:26:23.5	4.100	0.290	-0.450	-0.260
2020/01/31 21:26:23.6	4.110	0.300	-0.470	-0.260
2020/01/31 21:26:23.7	4.120	0.310	-0.490	-0.270
2020/01/31 21:26:23.8	4.130	0.310	-0.500	-0.270
2020/01/31 21:26:23.9	4.150	0.310	-0.520	-0.280
2020/01/31 21:26:24.0	4.160	0.300	-0.530	-0.290
2020/01/31 21:26:24.1	4.170	0.290	-0.530	-0.290
2020/01/31 21:26:24.2	4.180	0.280	-0.540	-0.310
2020/01/31 21:26:24.3	4.200	0.260	-0.540	-0.320
2020/01/31 21:26:24.4	4.210	0.240	-0.540	-0.330
2020/01/31 21:26:24.5	4.220	0.220	-0.540	-0.350
2020/01/31 21:26:24.6	4.240	0.190	-0.540	-0.360
2020/01/31 21:26:24.7	4.260	0.170	-0.540	-0.380
2020/01/31 21:26:24.8	4.270	0.140	-0.540	-0.400
2020/01/31 21:26:24.9	4.290	0.110	-0.540	-0.410
2020/01/31 21:26:25.0	4.310	0.090	-0.540	-0.430
2020/01/31 21:26:25.1	4.330	0.060	-0.540	-0.440
2020/01/31 21:26:25.2	4.350	0.030	-0.540	-0.460
2020/01/31 21:26:25.3	4.370	0.000	-0.540	-0.480
2020/01/31 21:26:25.4	4.380	-0.020	-0.540	-0.490
2020/01/31 21:26:25.5	4.400	-0.040	-0.540	-0.510
2020/01/31 21:26:25.6	4.420	-0.070	-0.540	-0.520
2020/01/31 21:26:25.7	4.430	-0.090	-0.540	-0.540
2020/01/31 21:26:25.8	4.450	-0.100	-0.540	-0.550
2020/01/31 21:26:25.9	4.450	-0.120	-0.550	-0.570
2020/01/31 21:26:26.0	4.460	-0.130	-0.560	-0.580
2020/01/31 21:26:26.1	4.470	-0.140	-0.560	-0.590
2020/01/31 21:26:26.2	4.480	-0.140	-0.570	-0.600
2020/01/31 21:26:26.3	4.490	-0.150	-0.580	-0.610
2020/01/31 21:26:26.4	4.500	-0.150	-0.590	-0.620
2020/01/31 21:26:26.5	4.500	-0.150	-0.610	-0.630
2020/01/31 21:26:26.6	4.510	-0.140	-0.620	-0.640
2020/01/31 21:26:26.7	4.510	-0.130	-0.630	-0.650
2020/01/31 21:26:26.8	4.520	-0.120	-0.640	-0.670
2020/01/31 21:26:26.9	4.510	-0.110	-0.660	-0.670
2020/01/31 21:26:27.0	4.510	-0.100	-0.670	-0.680
2020/01/31 21:26:27.1	4.510	-0.080	-0.680	-0.700
2020/01/31 21:26:27.2	4.510	-0.060	-0.690	-0.710
2020/01/31 21:26:27.3	4.510	-0.040	-0.700	-0.720
2020/01/31 21:26:27.4	4.510	-0.030	-0.710	-0.740
2020/01/31 21:26:27.5	4.510	-0.000	-0.720	-0.750
2020/01/31 21:26:27.6	4.510	0.020	-0.730	-0.770
2020/01/31 21:26:27.7	4.510	0.040	-0.730	-0.780
2020/01/31 21:26:27.8	4.520	0.060	-0.730	-0.800
2020/01/31 21:26:27.9	4.520	0.080	-0.730	-0.820
2020/01/31 21:26:28.0	4.520	0.100	-0.720	-0.830
2020/01/31 21:26:28.1	4.530	0.120	-0.720	-0.850
2020/01/31 21:26:28.2	4.530	0.140	-0.700	-0.860
2020/01/31 21:26:28.3	4.540	0.150	-0.690	-0.870
2020/01/31 21:26:28.4	4.540	0.170	-0.670	-0.880
2020/01/31 21:26:28.5	4.550	0.180	-0.650	-0.890
2020/01/31 21:26:28.6	4.560	0.200	-0.620	-0.900
2020/01/31 21:26:28.7	4.560	0.210	-0.590	-0.900
2020/01/31 21:26:28.8	4.570	0.210	-0.560	-0.900
2020/01/31 21:26:28.9	4.590	0.220	-0.530	-0.900
2020/01/31 21:26:29.0	4.600	0.220	-0.490	-0.900
2020/01/31 21:26:29.1	4.610	0.220	-0.450	-0.890
2020/01/31 21:26:29.2	4.620	0.220	-0.400	-0.880
2020/01/31 21:26:29.3	4.630	0.220	-0.350	-0.870
2020/01/31 21:26:29.4	4.640	0.210	-0.300	-0.860
2020/01/31 21:26:29.5	4.650	0.210	-0.250	-0.840
2020/01/31 21:26:29.6	4.660	0.200	-0.200	-0.830
2020/01/31 21:26:29.7	4.680	0.180	-0.150	-0.810
2020/01/31 21:26:29.8	4.690	0.170	-0.090	-0.790
2020/01/31 21:26:29.9	4.720	0.150	-0.040	-0.760
2020/01/31 21:26:30.0	4.740	0.140	0.010	-0.740
2020/01/31 21:26:30.1	4.760	0.120	0.070	-0.720
2020/01/31 21:26:30.2	4.770	0.100	0.110	-0.690
2020/01/31 21:26:30.3	4.790	0.080	0.160	-0.670
2020/01/31 21:26:30.4	4.810	0.060	0.210	-0.640
2020/01/31 21:26:30.5	4.830	0.040	0.250	-0.610
2020/01/31 21:26:30.6	4.850	0.020	0.290	-0.580
2020/01/31 21:26:30.7	4.880	-0.000	0.330	-0.550
2020/01/31 21:26:30.8	4.890	-0.030	0.360	-0.520
2020/01/31 21:26:30.9	4.910	-0.050	0.390	-0.490
2020/01/31 21:26:31.0	4.930	-0.070	0.420	-0.450
2020/01/31 21:26:31.1	4.950	-0.090	0.440	-0.420
2020/01/31 21:26:31.2	4.970	-0.100	0.460	-0.380
2020/01/31 21:26:31.3	4.980	-0.120	0.480	-0.350
2020/01/31 21:26:31.4	5.000	-0.140	0.490	-0.310
2020/01/31 21:26:31.5	5.010	-0.150	0.490	-0.270
2020/01/31 21:26:31.6	5.020	-0.160	0.500	-0.230
2020/01/31 21:26:31.7	5.030	-0.180	0.500	-0.190
2020/01/31 21:26:31.8	5.030	-0.190	0.490	-0.150
2020/01/31 21:26:31.9	5.050	-0.190	0.480	-0.110
2020/01/31 21:26:32.0	5.050	-0.200	0.470	-0.070
2020/01/31 21:26:32.1	5.050	-0.210	0.460	-0.020
2020/01/31 21:26:32.2	5.040	-0.210	0.440	0.020
2020/01/31 21:26:32.3	5.040	-0.210	0.420	0.060
2020/01/31 21:26:32.4	5.030	-0.210	0.400	0.100
2020/01/31 21:26:32.5	5.010	-0.210	0.380	0.140
2020/01/31 21:26:32.6	5.000	-0.210	0.350	0.170
2020/01/31 21:26:32.7	4.980	-0.210	0.320	0.210
2020/01/31 21:26:32.8	4.960	-0.210	0.280	0.250
2020/01/31 21:26:32.9	4.950	-0.200	0.250	0.280
2020/01/31 21:26:33.0	4.930	-0.200	0.210	0.320
2020/01/31 21:26:33.1	4.900	-0.190	0.170	0.350
2020/01/31 21:26:33.2	4.870	-0.180	0.130	0.380
2020/01/31 21:26:33.3	4.840	-0.170	0.090	0.410
2020/01/31 21:26:33.4	4.810	-0.170	0.050	0.430
2020/01/31 21:26:33.5	4.770	-0.160	0.000	0.450
2020/01/31 21:26:33.6	4.740	-0.150	-0.040	0.470
2020/01/31 21:26:33.7	4.700	-0.140	-0.090	0.490
2020/01/31 21:26:33.8	4.660	-0.130	-0.130	0.500
2020/01/31 21:26:33.9	4.630	-0.120	-0.180	0.510
2020/01/31 21:26:34.0	4.590	-0.110	-0.220	0.510
2020/01/31 21:26:34.1	4.560	-0.100	-0.270	0.510
2020/01/31 21:26:34.2	4.520	-0.090	-0.310	0.500
2020/01/31 21:26:34.3	4.490	-0.080	-0.360	0.490
2020/01/31 21:26:34.4	4.460	-0.070	-0.410	0.470
2020/01/31 21:26:34.5	4.430	-0.060	-0.450	0.450
2020/01/31 21:26:34.6	4.410	-0.050	-0.490	0.420
2020/01/31 21:26:34.7	4.390	-0.040	-0.540	0.390
2020/01/31 21:26:34.8	4.370	-0.020	-0.580	0.350
2020/01/31 21:26:34.9	4.340	-0.010	-0.620	0.300
2020/01/31 21:26:35.0	4.320	0.000	-0.660	0.260
2020/01/31 21:26:35.1	4.320	0.010	-0.700	0.210
2020/01/31 21:26:35.2	4.320	0.030	-0.740	0.150
2020/01/31 21:26:35.3	4.320	0.040	-0.770	0.100
2020/01/31 21:26:35.4	4.320	0.060	-0.810	0.040
2020/01/31 21:26:35.5	4.330	0.070	-0.840	-0.020
2020/01/31 21:26:35.6	4.340	0.090	-0.860	-0.090
2020/01/31 21:26:35.7	4.360	0.100	-0.890	-0.150
2020/01/31 21:26:35.8	4.380	0.120	-0.910	-0.210
2020/01/31 21:26:35.9	4.410	0.140	-0.930	-0.280
2020/01/31 21:26:36.0	4.430	0.150	-0.940	-0.340
2020/01/31 21:26:36.1	4.450	0.170	-0.950	-0.410
2020/01/31 21:26:36.2	4.480	0.180	-0.950	-0.470
2020/01/31 21:26:36.3	4.500	0.200	-0.950	-0.530
2020/01/31 21:26:36.4	4.530	0.210	-0.940	-0.590
2020/01/31 21:26:36.5	4.560	0.220	-0.920	-0.640
2020/01/31 21:26:36.6	4.590	0.240	-0.910	-0.700
2020/01/31 21:26:36.7	4.610	0.250	-0.880	-0.740
2020/01/31 21:26:36.8	4.640	0.250	-0.850	-0.790
2020/01/31 21:26:36.9	4.660	0.260	-0.820	-0.840
2020/01/31 21:26:37.0	4.690	0.270	-0.780	-0.880
2020/01/31 21:26:37.1	4.710	0.270	-0.740	-0.910
2020/01/31 21:26:37.2	4.740	0.270	-0.700	-0.950
2020/01/31 21:26:37.3	4.770	0.270	-0.650	-0.980
2020/01/31 21:26:37.4	4.800	0.270	-0.600	-1.010
2020/01/31 21:26:37.5	4.820	0.270	-0.550	-1.030
2020/01/31 21:26:37.6	4.850	0.260	-0.500	-1.060
2020/01/31 21:26:37.7	4.870	0.250	-0.440	-1.070
2020/01/31 21:26:37.8	4.900	0.240	-0.390	-1.090
2020/01/31 21:26:37.9	4.910	0.230	-0.340	-1.110
2020/01/31 21:26:38.0	4.930	0.220	-0.290	-1.120
2020/01/31 21:26:38.1	4.960	0.210	-0.230	-1.130
2020/01/31 21:26:38.2	4.980	0.190	-0.180	-1.130
2020/01/31 21:26:38.3	5.000	0.180	-0.140	-1.140
2020/01/31 21:26:38.4	5.020	0.160	-0.090	-1.140
2020/01/31 21:26:38.5	5.040	0.150	-0.050	-1.130
2020/01/31 21:26:38.6	5.050	0.130	-0.010	-1.130
2020/01/31 21:26:38.7	5.070	0.110	0.030	-1.120
2020/01/31 21:26:38.8	5.080	0.100	0.060	-1.100
2020/01/31 21:26:38.9	5.080	0.080	0.090	-1.080
2020/01/31 21:26:39.0	5.090	0.070	0.120	-1.060
2020/01/31 21:26:39.1	5.100	0.050	0.140	-1.040
2020/01/31 21:26:39.2	5.100	0.040	0.160	-1.010
2020/01/31 21:26:39.3	5.100	0.030	0.170	-0.980
2020/01/31 21:26:39.4	5.100	0.010	0.180	-0.950
2020/01/31 21:26:39.5	5.100	0.000	0.190	-0.910
2020/01/31 21:26:39.6	5.100	-0.010	0.190	-0.880
2020/01/31 21:26:39.7	5.090	-0.020	0.190	-0.840
2020/01/31 21:26:39.8	5.080	-0.020	0.190	-0.800
2020/01/31 21:26:39.9	5.070	-0.030	0.170	-0.750
2020/01/31 21:26:40.0	5.060	-0.040	0.160	-0.710
2020/01/31 21:26:40.1	5.040	-0.040	0.150	-0.660
2020/01/31 21:26:40.2	5.030	-0.040	0.130	-0.620
2020/01/31 21:26:40.3	5.020	-0.050	0.100	-0.570
2020/01/31 21:26:40.4	5.000	-0.050	0.080	-0.530
2020/01/31 21:26:40.5	4.980	-0.050	0.050	-0.490
2020/01/31 21:26:40.6	4.970	-0.050	0.020	-0.450
2020/01/31 21:26:40.7	4.950	-0.050	-0.010	-0.410
2020/01/31 21:26:40.8	4.930	-0.050	-0.040	-0.370
2020/01/31 21:26:40.9	4.930	-0.040	-0.080	-0.330
2020/01/31 21:26:41.0	4.920	-0.040	-0.110	-0.300
2020/01/31 21:26:41.1	4.900	-0.030	-0.150	-0.260
2020/01/31 21:26:41.2	4.890	-0.030	-0.190	-0.230
2020/01/31 21:26:41.3	4.880	-0.020	-0.230	-0.200
2020/01/31 21:26:41.4	4.860	-0.020	-0.260	-0.180
2020/01/31 21:26:41.5	4.860	-0.010	-0.300	-0.150
2020/01/31 21:26:41.6	4.850	-0.000	-0.330	-0.130
2020/01/31 21:26:41.7	4.840	0.010	-0.370	-0.110
2020/01/31 21:26:41.8	4.830	0.010	-0.400	-0.090
2020/01/31 21:26:41.9	4.820	0.020	-0.430	-0.070
2020/01/31 21:26:42.0	4.810	0.030	-0.460	-0.050
2020/01/31 21:26:42.1	4.810	0.040	-0.480	-0.040
2020/01/31 21:26:42.2	4.810	0.040	-0.510	-0.030
2020/01/31 21:26:42.3	4.810	0.050	-0.530	-0.020
2020/01/31 21:26:42.4	4.800	0.050	-0.540	-0.020
2020/01/31 21:26:42.5	4.800	0.060	-0.560	-0.020
2020/01/31 21:26:42.6	4.810	0.060	-0.570	-0.020
2020/01/31 21:26:42.7	4.810	0.060	-0.580	-0.020
2020/01/31 21:26:42.8	4.810	0.070	-0.580	-0.030
2020/01/31 21:26:42.9	4.810	0.060	-0.580	-0.040
2020/01/31 21:26:43.0	4.810	0.060	-0.580	-0.050
2020/01/31 21:26:43.1	4.820	0.060	-0.580	-0.060
2020/01/31 21:26:43.2	4.820	0.060	-0.570	-0.070
2020/01/31 21:26:43.3	4.820	0.050	-0.560	-0.080
2020/01/31 21:26:43.4	4.820	0.040	-0.540	-0.100
2020/01/31 21:26:43.5	4.820	0.030	-0.530	-0.110
2020/01/31 21:26:43.6	4.820	0.020	-0.510	-0.130
2020/01/31 21:26:43.7	4.820	0.010	-0.480	-0.150
2020/01/31 21:26:43.8	4.820	-0.010	-0.460	-0.170
2020/01/31 21:26:43.9	4.820	-0.020	-0.430	-0.190
2020/01/31 21:26:44.0	4.810	-0.040	-0.400	-0.200
2020/01/31 21:26:44.1	4.810	-0.060	-0.370	-0.220
2020/01/31 21:26:44.2	4.800	-0.080	-0.340	-0.240
2020/01/31 21:26:44.3	4.790	-0.100	-0.310	-0.260
2020/01/31 21:26:44.4	4.790	-0.120	-0.270	-0.280
2020/01/31 21:26:44.5	4.780	-0.140	-0.240	-0.290
2020/01/31 21:26:44.6	4.770	-0.160	-0.200	-0.310
2020/01/31 21:26:44.7	4.760	-0.190	-0.170	-0.330
2020/01/31 21:26:44.8	4.750	-0.210	-0.130	-0.350
2020/01/31 21:26:44.9	4.730	-0.240	-0.100	-0.360
2020/01/31 21:26:45.0	4.720	-0.260	-0.060	-0.380
2020/01/31 21:26:45.1	4.710	-0.290	-0.030	-0.400
2020/01/31 21:26:45.2	4.700	-0.310	0.010	-0.420
2020/01/31 21:26:45.3	4.690	-0.330	0.040	-0.440
2020/01/31 21:26:45.4	4.670	-0.350	0.070	-0.460
2020/01/31 21:26:45.5	4.660	-0.370	0.090	-0.470
2020/01/31 21:26:45.6	4.650	-0.390	0.120	-0.490
2020/01/31 21:26:45.7	4.640	-0.410	0.140	-0.510
2020/01/31 21:26:45.8	4.630	-0.420	0.160	-0.530
2020/01/31 21:26:45.9	4.630	-0.430	0.180	-0.540
2020/01/31 21:26:46.0	4.620	-0.440	0.190	-0.560
2020/01/31 21:26:46.1	4.620	-0.450	0.210	-0.580
2020/01/31 21:26:46.2	4.610	-0.460	0.210	-0.590
2020/01/31 21:26:46.3	4.610	-0.460	0.220	-0.600
2020/01/31 21:26:46.4	4.610	-0.450	0.220	-0.610
2020/01/31 21:26:46.5	4.610	-0.450	0.220	-0.620
2020/01/31 21:26:46.6	4.610	-0.440	0.220	-0.630
2020/01/31 21:26:46.7	4.610	-0.430	0.210	-0.640
2020/01/31 21:26:46.8	4.620	-0.410	0.200	-0.640
2020/01/31 21:26:46.9	4.630	-0.400	0.190	-0.640
2020/01/31 21:26:47.0	4.640	-0.370	0.170	-0.650
2020/01/31 21:26:47.1	4.650	-0.350	0.160	-0.650
2020/01/31 21:26:47.2	4.660	-0.320	0.130	-0.640
2020/01/31 21:26:47.3	4.670	-0.290	0.110	-0.640
2020/01/31 21:26:47.4	4.690	-0.260	0.090	-0.640
2020/01/31 21:26:47.5	4.710	-0.220	0.060	-0.630
2020/01/31 21:26:47.6	4.730	-0.180	0.030	-0.630
2020/01/31 21:26:47.7	4.750	-0.140	-0.000	-0.620
2020/01/31 21:26:47.8	4.770	-0.100	-0.030	-0.620
2020/01/31 21:26:47.9	4.800	-0.050	-0.070	-0.610
2020/01/31 21:26:48.0	4.820	-0.010	-0.100	-0.600
2020/01/31 21:26:48.1	4.840	0.040	-0.140	-0.590
2020/01/31 21:26:48.2	4.870	0.090	-0.170	-0.580
2020/01/31 21:26:48.3	4.890	0.130	-0.200	-0.570
2020/01/31 21:26:48.4	4.910	0.180	-0.230	-0.550
2020/01/31 21:26:48.5	4.930	0.230	-0.260	-0.540
2020/01/31 21:26:48.6	4.950	0.270	-0.290	-0.520
2020/01/31 21:26:48.7	4.960	0.310	-0.320	-0.490
2020/01/31 21:26:48.8	4.980	0.360	-0.340	-0.470
2020/01/31 21:26:48.9	4.980	0.400	-0.370	-0.440
2020/01/31 21:26:49.0	4.990	0.430	-0.390	-0.410
2020/01/31 21:26:49.1	5.000	0.470	-0.410	-0.380
2020/01/31 21:26:49.2	5.000	0.500	-0.430	-0.340
2020/01/31 21:26:49.3	5.000	0.530	-0.440	-0.310
2020/01/31 21:26:49.4	5.000	0.550	-0.460	-0.270
2020/01/31 21:26:49.5	4.990	0.570	-0.470	-0.230
2020/01/31 21:26:49.6	4.980	0.590	-0.480	-0.190
2020/01/31 21:26:49.7	4.970	0.610	-0.490	-0.150
2020/01/31 21:26:49.8	4.960	0.620	-0.510	-0.110
2020/01/31 21:26:49.9	4.960	0.620	-0.520	-0.070
2020/01/31 21:26:50.0	4.950	0.630	-0.530	-0.040
2020/01/31 21:26:50.1	4.930	0.630	-0.540	-0.000
2020/01/31 21:26:50.2	4.910	0.620	-0.550	0.030
2020/01/31 21:26:50.3	4.890	0.620	-0.560	0.060
2020/01/31 21:26:50.4	4.870	0.610	-0.580	0.090
2020/01/31 21:26:50.5	4.850	0.600	-0.590	0.110
2020/01/31 21:26:50.6	4.830	0.580	-0.610	0.130
2020/01/31 21:26:50.7	4.810	0.560	-0.630	0.140
2020/01/31 21:26:50.8	4.790	0.540	-0.650	0.150
2020/01/31 21:26:50.9	4.770	0.520	-0.670	0.150
2020/01/31 21:26:51.0	4.750	0.500	-0.690	0.150
2020/01/31 21:26:51.1	4.730	0.480	-0.710	0.150
2020/01/31 21:26:51.2	4.710	0.450	-0.730	0.130
2020/01/31 21:26:51.3	4.700	0.430	-0.750	0.120
2020/01/31 21:26:51.4	4.680	0.400	-0.770	0.100
2020/01/31 21:26:51.5	4.670	0.370	-0.780	0.070
2020/01/31 21:26:51.6	4.650	0.350	-0.800	0.040
2020/01/31 21:26:51.7	4.640	0.320	-0.810	0.010
2020/01/31 21:26:51.8	4.620	0.290	-0.820	-0.020
2020/01/31 21:26:51.9	4.610	0.260	-0.830	-0.060
2020/01/31 21:26:52.0	4.600	0.240	-0.830	-0.100
2020/01/31 21:26:52.1	4.590	0.210	-0.820	-0.130
2020/01/31 21:26:52.2	4.570	0.180	-0.820	-0.170
2020/01/31 21:26:52.3	4.560	0.160	-0.810	-0.210
2020/01/31 21:26:52.4	4.550	0.130	-0.790	-0.250
2020/01/31 21:26:52.5	4.540	0.100	-0.770	-0.300
2020/01/31 21:26:52.6	4.530	0.080	-0.750	-0.340
2020/01/31 21:26:52.7	4.520	0.050	-0.720	-0.380
2020/01/31 21:26:52.8	4.510	0.020	-0.690	-0.420
2020/01/31 21:26:52.9	4.500	-0.000	-0.660	-0.470
2020/01/31 21:26:53.0	4.500	-0.030	-0.620	-0.510
2020/01/31 21:26:53.1	4.500	-0.060	-0.580	-0.550
2020/01/31 21:26:53.2	4.500	-0.080	-0.530	-0.600
2020/01/31 21:26:53.3	4.500	-0.110	-0.490	-0.640
2020/01/31 21:26:53.4	4.510	-0.130	-0.440	-0.680
2020/01/31 21:26:53.5	4.510	-0.160	-0.390	-0.720
2020/01/31 21:26:53.6	4.520	-0.190	-0.340	-0.760
2020/01/31 21:26:53.7	4.530	-0.210	-0.280	-0.800
2020/01/31 21:26:53.8	4.550	-0.240	-0.230	-0.830
2020/01/31 21:26:53.9	4.560	-0.270	-0.180	-0.870
2020/01/31 21:26:54.0	4.580	-0.290	-0.120	-0.900
2020/01/31 21:26:54.1	4.600	-0.320	-0.070	-0.930
2020/01/31 21:26:54.2	4.610	-0.350	-0.010	-0.960
2020/01/31 21:26:54.3	4.630	-0.370	0.040	-0.980
2020/01/31 21:26:54.4	4.650	-0.400	0.090	-1.010
2020/01/31 21:26:54.5	4.670	-0.420	0.140	-1.030
2020/01/31 21:26:54.6	4.700	-0.440	0.190	-1.050
2020/01/31 21:26:54.7	4.720	-0.470	0.240	-1.060
2020/01/31 21:26:54.8	4.740	-0.490	0.280	-1.080
2020/01/31 21:26:54.9	4.760	-0.510	0.320	-1.090
2020/01/31 21:26:55.0	4.780	-0.530	0.360	-1.090
2020/01/31 21:26:55.1	4.810	-0.540	0.390	-1.100
2020/01/31 21:26:55.2	4.830	-0.560	0.420	-1.100
2020/01/31 21:26:55.3	4.850	-0.570	0.440	-1.100
2020/01/31 21:26:55.4	4.870	-0.580	0.460	-1.100
2020/01/31 21:26:55.5	4.890	-0.590	0.480	-1.090
2020/01/31 21:26:55.6	4.920	-0.590	0.490	-1.080
2020/01/31 21:26:55.7	4.940	-0.590	0.500	-1.070
2020/01/31 21:26:55.8	4.950	-0.590	0.500	-1.060
2020/01/31 21:26:55.9	4.970	-0.590	0.490	-1.040
2020/01/31 21:26:56.0	4.990	-0.580	0.480	-1.020
2020/01/31 21:26:56.1	5.010	-0.570	0.470	-0.990
2020/01/31 21:26:56.2	5.020	-0.550	0.450	-0.960
2020/01/31 21:26:56.3	5.030	-0.530	0.430	-0.930
2020/01/31 21:26:56.4	5.050	-0.510	0.400	-0.890
2020/01/31 21:26:56.5	5.060	-0.490	0.370	-0.860
2020/01/31 21:26:56.6	5.070	-0.460	0.340	-0.820
2020/01/31 21:26:56.7	5.080	-0.430	0.300	-0.780
2020/01/31 21:26:56.8	5.080	-0.390	0.260	-0.740
2020/01/31 21:26:56.9	5.080	-0.360	0.220	-0.690
2020/01/31 21:26:57.0	5.080	-0.320	0.170	-0.650
2020/01/31 21:26:57.1	5.090	-0.280	0.130	-0.600
2020/01/31 21:26:57.2	5.090	-0.240	0.080	-0.550
2020/01/31 21:26:57.3	5.090	-0.190	0.030	-0.500
2020/01/31 21:26:57.4	5.090	-0.150	-0.020	-0.460
2020/01/31 21:26:57.5	5.080	-0.110	-0.080	-0.410
2020/01/31 21:26:57.6	5.080	-0.060	-0.130	-0.360
2020/01/31 21:26:57.7	5.070	-0.020	-0.170	-0.310
2020/01/31 21:26:57.8	5.060	0.020	-0.220	-0.260
2020/01/31 21:26:57.9	5.050	0.060	-0.260	-0.200
2020/01/31 21:26:58.0	5.040	0.100	-0.310	-0.150
2020/01/31 21:26:58.1	5.020	0.140	-0.340	-0.100
2020/01/31 21:26:58.2	5.000	0.170	-0.380	-0.050
2020/01/31 21:26:58.3	4.970	0.200	-0.410	-0.010
2020/01/31 21:26:58.4	4.950	0.230	-0.430	0.040
2020/01/31 21:26:58.5	4.920	0.260	-0.450	0.080
2020/01/31 21:26:58.6	4.880	0.280	-0.470	0.120
2020/01/31 21:26:58.7	4.850	0.300	-0.480	0.160
2020/01/31 21:26:58.8	4.810	0.310	-0.490	0.200
2020/01/31 21:26:58.9	4.790	0.330	-0.500	0.230
2020/01/31 21:26:59.0	4.750	0.330	-0.500	0.260
2020/01/31 21:26:59.1	4.710	0.340	-0.490	0.280
2020/01/31 21:26:59.2	4.670	0.340	-0.480	0.300
2020/01/31 21:26:59.3	4.620	0.330	-0.470	0.320
2020/01/31 21:26:59.4	4.580	0.330	-0.460	0.330
2020/01/31 21:26:59.5	4.540	0.320	-0.440	0.330
2020/01/31 21:26:59.6	4.500	0.300	-0.420	0.330
2020/01/31 21:26:59.7	4.450	0.290	-0.400	0.330
2020/01/31 21:26:59.8	4.410	0.270	-0.380	0.320
2020/01/31 21:26:59.9	4.380	0.250	-0.360	0.310
2020/01/31 21:27:00.0	4.340	0.230	-0.340	0.290
2020/01/31 21:27:00.1	4.300	0.210	-0.320	0.270
2020/01/31 21:27:00.2	4.270	0.190	-0.300	0.250
2020/01/31 21:27:00.3	4.240	0.160	-0.280	0.220
2020/01/31 21:27:00.4	4.210	0.140	-0.270	0.190
2020/01/31 21:27:00.5	4.180	0.120	-0.260	0.150
2020/01/31 21:27:00.6	4.160	0.100	-0.250	0.110
2020/01/31 21:27:00.7	4.140	0.080	-0.240	0.070
2020/01/31 21:27:00.8	4.120	0.060	-0.240	0.020
2020/01/31 21:27:00.9	4.110	0.050	-0.240	-0.020
2020/01/31 21:27:01.0	4.100	0.030	-0.250	-0.070
2020/01/31 21:27:01.1	4.090	0.020	-0.260	-0.120
2020/01/31 21:27:01.2	4.080	0.010	-0.270	-0.170
2020/01/31 21:27:01.3	4.080	0.000	-0.290	-0.220
2020/01/31 21:27:01.4	4.070	-0.000	-0.300	-0.270
2020/01/31 21:27:01.5	4.070	-0.000	-0.320	-0.320
2020/01/31 21:27:01.6	4.070	-0.000	-0.340	-0.360
2020/01/31 21:27:01.7	4.080	0.000	-0.370	-0.410
2020/01/31 21:27:01.8	4.080	0.010	-0.390	-0.460
2020/01/31 21:27:01.9	4.100	0.020	-0.420	-0.500
2020/01/31 21:27:02.0	4.110	0.030	-0.450	-0.550
2020/01/31 21:27:02.1	4.120	0.040	-0.480	-0.590
2020/01/31 21:27:02.2	4.130	0.060	-0.500	-0.630
2020/01/31 21:27:02.3	4.150	0.070	-0.530	-0.670
2020/01/31 21:27:02.4	4.160	0.090	-0.560	-0.710
2020/01/31 21:27:02.5	4.180	0.110	-0.590	-0.740
2020/01/31 21:27:02.6	4.200	0.140	-0.620	-0.780
2020/01/31 21:27:02.7	4.230	0.160	-0.650	-0.810
2020/01/31 21:27:02.8	4.250	0.180	-0.680	-0.840
2020/01/31 21:27:02.9	4.270	0.210	-0.700	-0.870
2020/01/31 21:27:03.0	4.300	0.230	-0.730	-0.890
2020/01/31 21:27:03.1	4.330	0.260	-0.750	-0.920
2020/01/31 21:27:03.2	4.360	0.280	-0.770	-0.940
2020/01/31 21:27:03.3	4.390	0.310	-0.780	-0.960
2020/01/31 21:27:03.4	4.420	0.330	-0.800	-0.970
2020/01/31 21:27:03.5	4.450	0.350	-0.810	-0.980
2020/01/31 21:27:03.6	4.480	0.370	-0.820	-0.990
2020/01/31 21:27:03.7	4.510	0.390	-0.820	-1.000
2020/01/31 21:27:03.8	4.550	0.400	-0.820	-1.000
2020/01/31 21:27:03.9	4.580	0.420	-0.820	-1.000
2020/01/31 21:27:04.0	4.610	0.430	-0.810	-0.990
2020/01/31 21:27:04.1	4.640	0.440	-0.800	-0.980
2020/01/31 21:27:04.2	4.670	0.440	-0.780	-0.970
2020/01/31 21:27:04.3	4.700	0.440	-0.750	-0.950
2020/01/31 21:27:04.4	4.720	0.440	-0.730	-0.930
2020/01/31 21:27:04.5	4.740	0.440	-0.690	-0.910
2020/01/31 21:27:04.6	4.760	0.430	-0.660	-0.880
2020/01/31 21:27:04.7	4.780	0.410	-0.610	-0.850
2020/01/31 21:27:04.8	4.790	0.400	-0.570	-0.820
2020/01/31 21:27:04.9	4.800	0.370	-0.520	-0.790
2020/01/31 21:27:05.0	4.810	0.350	-0.460	-0.750
2020/01/31 21:27:05.1	4.810	0.320	-0.400	-0.710
2020/01/31 21:27:05.2	4.820	0.290	-0.340	-0.680
2020/01/31 21:27:05.3	4.820	0.250	-0.280	-0.640
2020/01/31 21:27:05.4	4.820	0.210	-0.210	-0.600
2020/01/31 21:27:05.5	4.810	0.170	-0.150	-0.560
2020/01/31 21:27:05.6	4.810	0.130	-0.080	-0.520
2020/01/31 21:27:05.7	4.800	0.080	-0.020	-0.490
2020/01/31 21:27:05.8	4.790	0.030	0.040	-0.450
2020/01/31 21:27:05.9	4.780	-0.020	0.110	-0.420
2020/01/31 21:27:06.0	4.770	-0.070	0.160	-0.390
2020/01/31 21:27:06.1	4.750	-0.120	0.220	-0.360
2020/01/31 21:27:06.2	4.740	-0.170	0.270	-0.330
2020/01/31 21:27:06.3	4.730	-0.230	0.320	-0.310
2020/01/31 21:27:06.4	4.720	-0.280	0.360	-0.290
2020/01/31 21:27:06.5	4.710	-0.330	0.400	-0.280
2020/01/31 21:27:06.6	4.700	-0.380	0.430	-0.260
2020/01/31 21:27:06.7	4.690	-0.430	0.460	-0.250
2020/01/31 21:27:06.8	4.680	-0.470	0.480	-0.250
2020/01/31 21:27:06.9	4.670	-0.520	0.490	-0.240
2020/01/31 21:27:07.0	4.660	-0.560	0.500	-0.240
2020/01/31 21:27:07.1	4.650	-0.600	0.510	-0.250
2020/01/31 21:27:07.2	4.640	-0.630	0.500	-0.250
2020/01/31 21:27:07.3	4.630	-0.660	0.490	-0.270
2020/01/31 21:27:07.4	4.630	-0.690	0.480	-0.280
2020/01/31 21:27:07.5	4.620	-0.710	0.460	-0.300
2020/01/31 21:27:07.6	4.610	-0.730	0.430	-0.320
2020/01/31 21:27:07.7	4.600	-0.740	0.400	-0.340
2020/01/31 21:27:07.8	4.590	-0.750	0.360	-0.360
2020/01/31 21:27:07.9	4.580	-0.760	0.320	-0.390
2020/01/31 21:27:08.0	4.570	-0.760	0.280	-0.410
2020/01/31 21:27:08.1	4.560	-0.750	0.230	-0.440
2020/01/31 21:27:08.2	4.550	-0.740	0.180	-0.460
2020/01/31 21:27:08.3	4.540	-0.730	0.130	-0.480
2020/01/31 21:27:08.4	4.520	-0.710	0.080	-0.500
2020/01/31 21:27:08.5	4.510	-0.690	0.030	-0.520
2020/01/31 21:27:08.6	4.500	-0.670	-0.030	-0.540
2020/01/31 21:27:08.7	4.480	-0.640	-0.080	-0.550
2020/01/31 21:27:08.8	4.470	-0.610	-0.130	-0.560
2020/01/31 21:27:08.9	4.440	-0.570	-0.180	-0.570
2020/01/31 21:27:09.0	4.420	-0.530	-0.230	-0.570
2020/01/31 21:27:09.1	4.400	-0.490	-0.270	-0.570
2020/01/31 21:27:09.2	4.390	-0.450	-0.320	-0.570
2020/01/31 21:27:09.3	4.370	-0.400	-0.360	-0.570
2020/01/31 21:27:09.4	4.350	-0.360	-0.400	-0.560
2020/01/31 21:27:09.5	4.340	-0.310	-0.430	-0.550
2020/01/31 21:27:09.6	4.320	-0.260	-0.470	-0.540
2020/01/31 21:27:09.7	4.310	-0.210	-0.490	-0.530
2020/01/31 21:27:09.8	4.290	-0.160	-0.520	-0.510
2020/01/31 21:27:09.9	4.280	-0.120	-0.550	-0.490
2020/01/31 21:27:10.0	4.270	-0.070	-0.570	-0.470
2020/01/31 21:27:10.1	4.260	-0.020	-0.580	-0.460
2020/01/31 21:27:10.2	4.250	0.030	-0.600	-0.440
2020/01/31 21:27:10.3	4.250	0.070	-0.610	-0.420
2020/01/31 21:27:10.4	4.240	0.120	-0.620	-0.390
2020/01/31 21:27:10.5	4.230	0.160	-0.620	-0.370
2020/01/31 21:27:10.6	4.230	0.200	-0.630	-0.350
2020/01/31 21:27:10.7	4.230	0.230	-0.630	-0.330
2020/01/31 21:27:10.8	4.230	0.270	-0.620	-0.300
2020/01/31 21:27:10.9	4.230	0.300	-0.620	-0.270
2020/01/31 21:27:11.0	4.230	0.330	-0.610	-0.250
2020/01/31 21:27:11.1	4.230	0.360	-0.590	-0.220
2020/01/31 21:27:11.2	4.240	0.390	-0.580	-0.190
2020/01/31 21:27:11.3	4.240	0.410	-0.560	-0.160
2020/01/31 21:27:11.4	4.240	0.430	-0.540	-0.130
2020/01/31 21:27:11.5	4.240	0.440	-0.510	-0.100
2020/01/31 21:27:11.6	4.240	0.460	-0.480	-0.070
2020/01/31 21:27:11.7	4.250	0.470	-0.450	-0.040
2020/01/31 21:27:11.8	4.250	0.480	-0.420	-0.000
2020/01/31 21:27:11.9	4.260	0.480	-0.390	0.030
2020/01/31 21:27:12.0	4.260	0.490	-0.350	0.070
2020/01/31 21:27:12.1	4.260	0.490	-0.320	0.100
2020/01/31 21:27:12.2	4.260	0.490	-0.280	0.140
2020/01/31 21:27:12.3	4.260	0.490	-0.240	0.180
2020/01/31 21:27:12.4	4.260	0.480	-0.190	0.210
2020/01/31 21:27:12.5	4.260	0.470	-0.150	0.250
2020/01/31 21:27:12.6	4.260	0.470	-0.110	0.290
2020/01/31 21:27:12.7	4.250	0.460	-0.060	0.320
2020/01/31 21:27:12.8	4.250	0.450	-0.020	0.360
2020/01/31 21:27:12.9	4.250	0.430	0.030	0.390
2020/01/31 21:27:13.0	4.240	0.420	0.070	0.430
2020/01/31 21:27:13.1	4.230	0.410	0.110	0.460
2020/01/31 21:27:13.2	4.230	0.390	0.150	0.490
2020/01/31 21:27:13.3	4.220	0.380	0.180	0.520
2020/01/31 21:27:13.4	4.210	0.360	0.220	0.540
2020/01/31 21:27:13.5	4.210	0.350	0.250	0.560
2020/01/31 21:27:13.6	4.200	0.330	0.270	0.580
2020/01/31 21:27:13.7	4.190	0.320	0.290	0.600
2020/01/31 21:27:13.8	4.180	0.300	0.310	0.610
2020/01/31 21:27:13.9	4.190	0.290	0.320	0.620
2020/01/31 21:27:14.0	4.180	0.270	0.330	0.630
2020/01/31 21:27:14.1	4.180	0.250	0.330	0.630
2020/01/31 21:27:14.2	4.170	0.240	0.320	0.620
2020/01/31 21:27:14.3	4.170	0.220	0.310	0.610
2020/01/31 21:27:14.4	4.170	0.210	0.290	0.590
2020/01/31 21:27:14.5	4.170	0.190	0.260	0.570
2020/01/31 21:27:14.6	4.170	0.180	0.230	0.550
2020/01/31 21:27:14.7	4.180	0.160	0.190	0.520
2020/01/31 21:27:14.8	4.190	0.150	0.150	0.480
2020/01/31 21:27:14.9	4.210	0.130	0.100	0.440
2020/01/31 21:27:15.0	4.220	0.120	0.040	0.400
2020/01/31 21:27:15.1	4.240	0.100	-0.020	0.340
2020/01/31 21:27:15.2	4.260	0.090	-0.090	0.290
2020/01/31 21:27:15.3	4.290	0.080	-0.160	0.230
2020/01/31 21:27:15.4	4.320	0.060	-0.240	0.160
2020/01/31 21:27:15.5	4.350	0.050	-0.330	0.090
2020/01/31 21:27:15.6	4.390	0.040	-0.410	0.020
2020/01/31 21:27:15.7	4.430	0.030	-0.500	-0.060
2020/01/31 21:27:15.8	4.470	0.010	-0.590	-0.140
2020/01/31 21:27:15.9	4.520	0.000	-0.680	-0.230
2020/01/31 21:27:16.0	4.570	-0.010	-0.770	-0.320
2020/01/31 21:27:16.1	4.620	-0.020	-0.860	-0.410
2020/01/31 21:27:16.2	4.670	-0.030	-0.950	-0.500
2020/01/31 21:27:16.3	4.720	-0.040	-1.040	-0.590
2020/01/31 21:27:16.4	4.780	-0.050	-1.120	-0.680
2020/01/31 21:27:16.5	4.830	-0.060	-1.200	-0.770
2020/01/31 21:27:16.6	4.880	-0.080	-1.270	-0.860
2020/01/31 21:27:16.7	4.940	-0.090	-1.340	-0.950
2020/01/31 21:27:16.8	4.990	-0.100	-1.400	-1.040
2020/01/31 21:27:16.9	5.040	-0.110	-1.450	-1.120
2020/01/31 21:27:17.0	5.090	-0.110	-1.490	-1.200
2020/01/31 21:27:17.1	5.140	-0.120	-1.530	-1.270
2020/01/31 21:27:17.2	5.190	-0.130	-1.550	-1.340
2020/01/31 21:27:17.3	5.230	-0.140	-1.560	-1.400
2020/01/31 21:27:17.4	5.270	-0.150	-1.560	-1.460
2020/01/31 21:27:17.5	5.300	-0.150	-1.550	-1.500
2020/01/31 21:27:17.6	5.330	-0.160	-1.520	-1.540
2020/01/31 21:27:17.7	5.350	-0.160	-1.490	-1.560
2020/01/31 21:27:17.8	5.370	-0.170	-1.440	-1.580
2020/01/31 21:27:17.9	5.390	-0.170	-1.380	-1.590
2020/01/31 21:27:18.0	5.400	-0.170	-1.310	-1.590
2020/01/31 21:27:18.1	5.410	-0.180	-1.230	-1.580
2020/01/31 21:27:18.2	5.410	-0.180	-1.150	-1.570
2020/01/31 21:27:18.3	5.400	-0.180	-1.050	-1.540
2020/01/31 21:27:18.4	5.390	-0.180	-0.950	-1.510
2020/01/31 21:27:18.5	5.380	-0.180	-0.840	-1.480
2020/01/31 21:27:18.6	5.360	-0.180	-0.730	-1.430
2020/01/31 21:27:18.7	5.340	-0.180	-0.610	-1.390
2020/01/31 21:27:18.8	5.320	-0.180	-0.490	-1.330
2020/01/31 21:27:18.9	5.290	-0.180	-0.380	-1.270
2020/01/31 21:27:19.0	5.260	-0.180	-0.260	-1.210
2020/01/31 21:27:19.1	5.220	-0.180	-0.140	-1.150
2020/01/31 21:27:19.2	5.190	-0.170	-0.020	-1.080
2020/01/31 21:27:19.3	5.150	-0.170	0.090	-1.020
2020/01/31 21:27:19.4	5.110	-0.170	0.200	-0.950
2020/01/31 21:27:19.5	5.070	-0.170	0.300	-0.880
2020/01/31 21:27:19.6	5.030	-0.170	0.400	-0.810
2020/01/31 21:27:19.7	4.990	-0.170	0.490	-0.740
2020/01/31 21:27:19.8	4.950	-0.170	0.570	-0.680
2020/01/31 21:27:19.9	4.900	-0.170	0.640	-0.610
2020/01/31 21:27:20.0	4.860	-0.170	0.710	-0.550
2020/01/31 21:27:20.1	4.810	-0.170	0.780	-0.490
2020/01/31 21:27:20.2	4.770	-0.170	0.830	-0.430
2020/01/31 21:27:20.3	4.730	-0.170	0.880	-0.370
2020/01/31 21:27:20.4	4.690	-0.170	0.910	-0.320
2020/01/31 21:27:20.5	4.650	-0.180	0.950	-0.270
2020/01/31 21:27:20.6	4.610	-0.180	0.970	-0.230
2020/01/31 21:27:20.7	4.570	-0.180	0.980	-0.180
2020/01/31 21:27:20.8	4.530	-0.180	0.990	-0.140
2020/01/31 21:27:20.9	4.500	-0.190	0.990	-0.100
2020/01/31 21:27:21.0	4.470	-0.190	0.990	-0.070
2020/01/31 21:27:21.1	4.430	-0.190	0.970	-0.040
2020/01/31 21:27:21.2	4.400	-0.200	0.950	-0.010
2020/01/31 21:27:21.3	4.380	-0.200	0.930	0.010
2020/01/31 21:27:21.4	4.350	-0.200	0.890	0.030
2020/01/31 21:27:21.5	4.330	-0.200	0.850	0.040
2020/01/31 21:27:21.6	4.310	-0.210	0.810	0.050
2020/01/31 21:27:21.7	4.300	-0.210	0.760	0.060
2020/01/31 21:27:21.8	4.290	-0.200	0.710	0.060
2020/01/31 21:27:21.9	4.270	-0.200	0.650	0.060
2020/01/31 21:27:22.0	4.270	-0.200	0.590	0.060
2020/01/31 21:27:22.1	4.270	-0.200	0.520	0.050
2020/01/31 21:27:22.2	4.280	-0.190	0.450	0.030
2020/01/31 21:27:22.3	4.290	-0.180	0.370	0.020
2020/01/31 21:27:22.4	4.300	-0.170	0.300	-0.000
2020/01/31 21:27:22.5	4.320	-0.160	0.220	-0.030
2020/01/31 21:27:22.6	4.340	-0.150	0.140	-0.050
2020/01/31 21:27:22.7	4.360	-0.130	0.060	-0.080
2020/01/31 21:27:22.8	4.390	-0.120	-0.020	-0.100
2020/01/31 21:27:22.9	4.400	-0.100	-0.110	-0.130
2020/01/31 21:27:23.0	4.430	-0.080	-0.190	-0.160
2020/01/31 21:27:23.1	4.450	-0.060	-0.270	-0.190
2020/01/31 21:27:23.2	4.480	-0.040	-0.350	-0.220
2020/01/31 21:27:23.3	4.510	-0.020	-0.420	-0.240
2020/01/31 21:27:23.4	4.540	0.010	-0.500	-0.270
2020/01/31 21:27:23.5	4.560	0.030	-0.570	-0.290
2020/01/31 21:27:23.6	4.590	0.060	-0.630	-0.310
2020/01/31 21:27:23.7	4.620	0.080	-0.700	-0.330
2020/01/31 21:27:23.8	4.640	0.110	-0.760	-0.350
2020/01/31 21:27:23.9	4.670	0.140	-0.810	-0.370
2020/01/31 21:27:24.0	4.690	0.160	-0.860	-0.390
2020/01/31 21:27:24.1	4.720	0.190	-0.900	-0.400
2020/01/31 21:27:24.2	4.740	0.220	-0.940	-0.410
2020/01/31 21:27:24.3	4.750	0.240	-0.980	-0.420
2020/01/31 21:27:24.4	4.770	0.270	-1.010	-0.430
2020/01/31 21:27:24.5	4.790	0.290	-1.030	-0.440
2020/01/31 21:27:24.6	4.800	0.310	-1.050	-0.440
2020/01/31 21:27:24.7	4.820	0.340	-1.060	-0.440
2020/01/31 21:27:24.8	4.830	0.360	-1.070	-0.440
2020/01/31 21:27:24.9	4.840	0.380	-1.080	-0.440
2020/01/31 21:27:25.0	4.860	0.400	-1.080	-0.430
2020/01/31 21:27:25.1	4.870	0.410	-1.070	-0.430
2020/01/31 21:27:25.2	4.880	0.430	-1.060	-0.420
2020/01/31 21:27:25.3	4.890	0.440	-1.050	-0.410
2020/01/31 21:27:25.4	4.900	0.450	-1.030	-0.400
2020/01/31 21:27:25.5	4.900	0.460	-1.010	-0.380
2020/01/31 21:27:25.6	4.910	0.460	-0.980	-0.370
2020/01/31 21:27:25.7	4.920	0.460	-0.950	-0.350
2020/01/31 21:27:25.8	4.920	0.460	-0.910	-0.330
2020/01/31 21:27:25.9	4.910	0.460	-0.870	-0.310
2020/01/31 21:27:26.0	4.910	0.450	-0.830	-0.290
2020/01/31 21:27:26.1	4.920	0.440	-0.790	-0.270
2020/01/31 21:27:26.2	4.910	0.430	-0.740	-0.250
2020/01/31 21:27:26.3	4.910	0.420	-0.690	-0.240
2020/01/31 21:27:26.4	4.910	0.400	-0.640	-0.220
2020/01/31 21:27:26.5	4.910	0.370	-0.590	-0.210
2020/01/31 21:27:26.6	4.910	0.350	-0.540	-0.200
2020/01/31 21:27:26.7	4.900	0.320	-0.480	-0.190
2020/01/31 21:27:26.8	4.900	0.290	-0.430	-0.180
2020/01/31 21:27:26.9	4.900	0.260	-0.380	-0.170
2020/01/31 21:27:27.0	4.890	0.220	-0.330	-0.180
2020/01/31 21:27:27.1	4.890	0.180	-0.270	-0.180
2020/01/31 21:27:27.2	4.880	0.140	-0.220	-0.190
2020/01/31 21:27:27.3	4.880	0.100	-0.170	-0.210
2020/01/31 21:27:27.4	4.870	0.060	-0.120	-0.220
2020/01/31 21:27:27.5	4.860	0.010	-0.070	-0.240
2020/01/31 21:27:27.6	4.860	-0.030	-0.020	-0.260
2020/01/31 21:27:27.7	4.850	-0.080	0.030	-0.290
2020/01/31 21:27:27.8	4.840	-0.130	0.070	-0.310
2020/01/31 21:27:27.9	4.830	-0.170	0.120	-0.340
2020/01/31 21:27:28.0	4.820	-0.220	0.160	-0.370
2020/01/31 21:27:28.1	4.810	-0.270	0.200	-0.390
2020/01/31 21:27:28.2	4.800	-0.310	0.240	-0.420
2020/01/31 21:27:28.3	4.790	-0.350	0.270	-0.450
2020/01/31 21:27:28.4	4.780	-0.390	0.300	-0.470
2020/01/31 21:27:28.5	4.770	-0.430	0.330	-0.500
2020/01/31 21:27:28.6	4.750	-0.470	0.360	-0.520
2020/01/31 21:27:28.7	4.740	-0.500	0.380	-0.540
2020/01/31 21:27:28.8	4.720	-0.540	0.400	-0.560
2020/01/31 21:27:28.9	4.700	-0.560	0.410	-0.570
2020/01/31 21:27:29.0	4.680	-0.590	0.420	-0.590
2020/01/31 21:27:29.1	4.660	-0.610	0.430	-0.600
2020/01/31 21:27:29.2	4.640	-0.630	0.430	-0.610
2020/01/31 21:27:29.3	4.620	-0.640	0.420	-0.620
2020/01/31 21:27:29.4	4.600	-0.650	0.410	-0.630
2020/01/31 21:27:29.5	4.580	-0.660	0.400	-0.640
2020/01/31 21:27:29.6	4.560	-0.660	0.380	-0.640
2020/01/31 21:27:29.7	4.540	-0.650	0.360	-0.650
2020/01/31 21:27:29.8	4.520	-0.650	0.330	-0.650
2020/01/31 21:27:29.9	4.510	-0.630	0.290	-0.650
2020/01/31 21:27:30.0	4.490	-0.610	0.250	-0.660
2020/01/31 21:27:30.1	4.470	-0.590	0.210	-0.660
2020/01/31 21:27:30.2	4.450	-0.560	0.160	-0.660
2020/01/31 21:27:30.3	4.440	-0.530	0.100	-0.660
2020/01/31 21:27:30.4	4.420	-0.500	0.040	-0.660
2020/01/31 21:27:30.5	4.410	-0.460	-0.020	-0.660
2020/01/31 21:27:30.6	4.400	-0.410	-0.080	-0.650
2020/01/31 21:27:30.7	4.390	-0.360	-0.150	-0.650
2020/01/31 21:27:30.8	4.380	-0.310	-0.220	-0.640
2020/01/31 21:27:30.9	4.380	-0.260	-0.290	-0.630
2020/01/31 21:27:31.0	4.370	-0.200	-0.360	-0.610
2020/01/31 21:27:31.1	4.360	-0.140	-0.430	-0.600
2020/01/31 21:27:31.2	4.350	-0.080	-0.490	-0.580
2020/01/31 21:27:31.3	4.340	-0.020	-0.560	-0.560
2020/01/31 21:27:31.4	4.340	0.040	-0.620	-0.530
2020/01/31 21:27:31.5	4.330	0.100	-0.680	-0.510
2020/01/31 21:27:31.6	4.330	0.160	-0.740	-0.480
2020/01/31 21:27:31.7	4.330	0.220	-0.790	-0.450
2020/01/31 21:27:31.8	4.320	0.280	-0.840	-0.420
2020/01/31 21:27:31.9	4.320	0.340	-0.890	-0.390
2020/01/31 21:27:32.0	4.320	0.400	-0.930	-0.360
2020/01/31 21:27:32.1	4.320	0.450	-0.960	-0.320
2020/01/31 21:27:32.2	4.330	0.500	-0.990	-0.290
2020/01/31 21:27:32.3	4.330	0.550	-1.010	-0.260
2020/01/31 21:27:32.4	4.330	0.590	-1.030	-0.230
2020/01/31 21:27:32.5	4.340	0.630	-1.050	-0.190
2020/01/31 21:27:32.6	4.350	0.660	-1.060	-0.160
2020/01/31 21:27:32.7	4.360	0.690	-1.060	-0.130
2020/01/31 21:27:32.8	4.370	0.710	-1.060	-0.100
2020/01/31 21:27:32.9	4.370	0.730	-1.050	-0.080
2020/01/31 21:27:33.0	4.390	0.750	-1.040	-0.050
2020/01/31 21:27:33.1	4.400	0.750	-1.030	-0.030
2020/01/31 21:27:33.2	4.420	0.760	-1.010	-0.010
2020/01/31 21:27:33.3	4.440	0.750	-0.980	0.010
2020/01/31 21:27:33.4	4.460	0.740	-0.960	0.030
2020/01/31 21:27:33.5	4.480	0.730	-0.920	0.040
2020/01/31 21:27:33.6	4.500	0.710	-0.890	0.050
2020/01/31 21:27:33.7	4.530	0.680	-0.850	0.060
2020/01/31 21:27:33.8	4.550	0.650	-0.810	0.070
2020/01/31 21:27:33.9	4.580	0.620	-0.770	0.070
2020/01/31 21:27:34.0	4.610	0.580	-0.720	0.080
2020/01/31 21:27:34.1	4.630	0.530	-0.670	0.070
2020/01/31 21:27:34.2	4.650	0.490	-0.610	0.070
2020/01/31 21:27:34.3	4.660	0.430	-0.560	0.060
2020/01/31 21:27:34.4	4.680	0.380	-0.500	0.050
2020/01/31 21:27:34.5	4.690	0.320	-0.440	0.040
2020/01/31 21:27:34.6	4.710	0.270	-0.380	0.030
2020/01/31 21:27:34.7	4.710	0.210	-0.320	0.020
2020/01/31 21:27:34.8	4.720	0.140	-0.250	0.010
2020/01/31 21:27:34.9	4.730	0.080	-0.190	-0.010
2020/01/31 21:27:35.0	4.730	0.020	-0.120	-0.020
2020/01/31 21:27:35.1	4.730	-0.040	-0.060	-0.040
2020/01/31 21:27:35.2	4.730	-0.100	0.010	-0.050
2020/01/31 21:27:35.3	4.720	-0.160	0.070	-0.070
2020/01/31 21:27:35.4	4.720	-0.210	0.130	-0.090
2020/01/31 21:27:35.5	4.710	-0.270	0.190	-0.100
2020/01/31 21:27:35.6	4.700	-0.320	0.240	-0.120
2020/01/31 21:27:35.7	4.690	-0.370	0.300	-0.130
2020/01/31 21:27:35.8	4.680	-0.410	0.350	-0.150
2020/01/31 21:27:35.9	4.660	-0.450	0.390	-0.160
2020/01/31 21:27:36.0	4.640	-0.490	0.430	-0.170
2020/01/31 21:27:36.1	4.620	-0.520	0.470	-0.190
2020/01/31 21:27:36.2	4.610	-0.540	0.510	-0.200
2020/01/31 21:27:36.3	4.590	-0.560	0.530	-0.210
2020/01/31 21:27:36.4	4.570	-0.580	0.560	-0.230
2020/01/31 21:27:36.5	4.550	-0.590	0.580	-0.240
2020/01/31 21:27:36.6	4.530	-0.600	0.590	-0.250
2020/01/31 21:27:36.7	4.510	-0.600	0.600	-0.260
2020/01/31 21:27:36.8	4.480	-0.600	0.610	-0.260
2020/01/31 21:27:36.9	4.460	-0.600	0.610	-0.270
2020/01/31 21:27:37.0	4.430	-0.590	0.610	-0.280
2020/01/31 21:27:37.1	4.410	-0.570	0.600	-0.280
2020/01/31 21:27:37.2	4.380	-0.550	0.580	-0.290
2020/01/31 21:27:37.3	4.350	-0.530	0.570	-0.290
2020/01/31 21:27:37.4	4.320	-0.510	0.550	-0.300
2020/01/31 21:27:37.5	4.290	-0.480	0.520	-0.300
2020/01/31 21:27:37.6	4.260	-0.460	0.500	-0.300
2020/01/31 21:27:37.7	4.230	-0.430	0.470	-0.300
2020/01/31 21:27:37.8	4.200	-0.400	0.440	-0.300
2020/01/31 21:27:37.9	4.170	-0.360	0.410	-0.300
2020/01/31 21:27:38.0	4.140	-0.330	0.370	-0.290
2020/01/31 21:27:38.1	4.110	-0.300	0.340	-0.290
2020/01/31 21:27:38.2	4.080	-0.270	0.310	-0.280
2020/01/31 21:27:38.3	4.050	-0.230	0.270	-0.270
2020/01/31 21:27:38.4	4.020	-0.200	0.240	-0.260
2020/01/31 21:27:38.5	3.990	-0.170	0.210	-0.250
2020/01/31 21:27:38.6	3.960	-0.140	0.170	-0.240
2020/01/31 21:27:38.7	3.930	-0.120	0.140	-0.220
2020/01/31 21:27:38.8	3.900	-0.090	0.110	-0.210
2020/01/31 21:27:38.9	3.890	-0.070	0.080	-0.180
2020/01/31 21:27:39.0	3.860	-0.040	0.050	-0.170
2020/01/31 21:27:39.1	3.840	-0.020	0.020	-0.150
2020/01/31 21:27:39.2	3.810	-0.010	-0.010	-0.130
2020/01/31 21:27:39.3	3.790	0.010	-0.040	-0.120
2020/01/31 21:27:39.4	3.770	0.020	-0.070	-0.110
2020/01/31 21:27:39.5	3.750	0.040	-0.100	-0.090
2020/01/31 21:27:39.6	3.740	0.050	-0.130	-0.080
2020/01/31 21:27:39.7	3.720	0.050	-0.160	-0.070
2020/01/31 21:27:39.8	3.710	0.060	-0.190	-0.070
2020/01/31 21:27:39.9	3.700	0.070	-0.220	-0.070
2020/01/31 21:27:40.0	3.690	0.070	-0.250	-0.060
2020/01/31 21:27:40.1	3.690	0.070	-0.290	-0.070
2020/01/31 21:27:40.2	3.690	0.080	-0.320	-0.070
2020/01/31 21:27:40.3	3.690	0.080	-0.350	-0.080
2020/01/31 21:27:40.4	3.700	0.080	-0.390	-0.090
2020/01/31 21:27:40.5	3.700	0.080	-0.430	-0.100
2020/01/31 21:27:40.6	3.720	0.090	-0.470	-0.120
2020/01/31 21:27:40.7	3.730	0.090	-0.510	-0.140
2020/01/31 21:27:40.8	3.750	0.090	-0.560	-0.160
2020/01/31 21:27:40.9	3.770	0.100	-0.600	-0.180
2020/01/31 21:27:41.0	3.790	0.100	-0.650	-0.200
2020/01/31 21:27:41.1	3.810	0.110	-0.690	-0.230
2020/01/31 21:27:41.2	3.840	0.110	-0.740	-0.260
2020/01/31 21:27:41.3	3.870	0.120	-0.790	-0.280
2020/01/31 21:27:41.4	3.900	0.130	-0.830	-0.310
2020/01/31 21:27:41.5	3.930	0.140	-0.880	-0.340
2020/01/31 21:27:41.6	3.960	0.160	-0.920	-0.360
2020/01/31 21:27:41.7	3.990	0.170	-0.970	-0.390
2020/01/31 21:27:41.8	4.020	0.180	-1.000	-0.410
2020/01/31 21:27:41.9	4.050	0.200	-1.040	-0.430
2020/01/31 21:27:42.0	4.080	0.210	-1.080	-0.450
2020/01/31 21:27:42.1	4.120	0.230	-1.110	-0.460
2020/01/31 21:27:42.2	4.150	0.250	-1.130	-0.480
2020/01/31 21:27:42.3	4.180	0.260	-1.150	-0.490
2020/01/31 21:27:42.4	4.220	0.280	-1.170	-0.500
2020/01/31 21:27:42.5	4.250	0.300	-1.180	-0.510
2020/01/31 21:27:42.6	4.280	0.320	-1.190	-0.520
2020/01/31 21:27:42.7	4.310	0.330	-1.190	-0.520
2020/01/31 21:27:42.8	4.350	0.350	-1.190	-0.530
2020/01/31 21:27:42.9	4.380	0.360	-1.180	-0.530
2020/01/31 21:27:43.0	4.410	0.380	-1.170	-0.520
2020/01/31 21:27:43.1	4.430	0.390	-1.150	-0.520
2020/01/31 21:27:43.2	4.460	0.400	-1.130	-0.520
2020/01/31 21:27:43.3	4.480	0.410	-1.100	-0.510
2020/01/31 21:27:43.4	4.500	0.420	-1.070	-0.500
2020/01/31 21:27:43.5	4.520	0.420	-1.030	-0.490
2020/01/31 21:27:43.6	4.540	0.430	-0.990	-0.470
2020/01/31 21:27:43.7	4.550	0.430	-0.940	-0.460
2020/01/31 21:27:43.8	4.570	0.430	-0.890	-0.440
2020/01/31 21:27:43.9	4.570	0.420	-0.840	-0.410
2020/01/31 21:27:44.0	4.580	0.420	-0.780	-0.390
2020/01/31 21:27:44.1	4.580	0.410	-0.720	-0.360
2020/01/31 21:27:44.2	4.580	0.400	-0.650	-0.330
2020/01/31 21:27:44.3	4.580	0.380	-0.580	-0.300
2020/01/31 21:27:44.4	4.580	0.370	-0.510	-0.270
2020/01/31 21:27:44.5	4.580	0.350	-0.440	-0.230
2020/01/31 21:27:44.6	4.570	0.330	-0.370	-0.200
2020/01/31 21:27:44.7	4.560	0.300	-0.300	-0.160
2020/01/31 21:27:44.8	4.550	0.280	-0.230	-0.120
2020/01/31 21:27:44.9	4.540	0.250	-0.160	-0.080
2020/01/31 21:27:45.0	4.530	0.230	-0.090	-0.050
2020/01/31 21:27:45.1	4.520	0.200	-0.020	-0.010
2020/01/31 21:27:45.2	4.500	0.170	0.040	0.020
2020/01/31 21:27:45.3	4.480	0.130	0.100	0.050
2020/01/31 21:27:45.4	4.470	0.100	0.160	0.080
2020/01/31 21:27:45.5	4.450	0.070	0.220	0.110
2020/01/31 21:27:45.6	4.430	0.030	0.270	0.140
2020/01/31 21:27:45.7	4.410	0.000	0.310	0.160
2020/01/31 21:27:45.8	4.390	-0.030	0.350	0.180
2020/01/31 21:27:45.9	4.380	-0.070	0.380	0.200
2020/01/31 21:27:46.0	4.360	-0.100	0.410	0.220
2020/01/31 21:27:46.1	4.340	-0.130	0.440	0.230
2020/01/31 21:27:46.2	4.310	-0.160	0.460	0.230
2020/01/31 21:27:46.3	4.290	-0.190	0.470	0.230
2020/01/31 21:27:46.4	4.270	-0.220	0.480	0.230
2020/01/31 21:27:46.5	4.250	-0.250	0.490	0.230
2020/01/31 21:27:46.6	4.230	-0.280	0.480	0.230
2020/01/31 21:27:46.7	4.210	-0.300	0.480	0.220
2020/01/31 21:27:46.8	4.190	-0.320	0.470	0.200
2020/01/31 21:27:46.9	4.160	-0.340	0.470	0.190
2020/01/31 21:27:47.0	4.140	-0.360	0.450	0.180
2020/01/31 21:27:47.1	4.120	-0.380	0.430	0.160
2020/01/31 21:27:47.2	4.090	-0.400	0.420	0.140
2020/01/31 21:27:47.3	4.070	-0.410	0.400	0.120
2020/01/31 21:27:47.4	4.040	-0.420	0.380	0.110
2020/01/31 21:27:47.5	4.020	-0.430	0.350	0.090
2020/01/31 21:27:47.6	4.000	-0.440	0.330	0.070
2020/01/31 21:27:47.7	3.970	-0.450	0.310	0.050
2020/01/31 21:27:47.8	3.950	-0.450	0.280	0.030
2020/01/31 21:27:47.9	3.930	-0.450	0.260	0.010
2020/01/31 21:27:48.0	3.910	-0.450	0.240	-0.010
2020/01/31 21:27:48.1	3.880	-0.450	0.220	-0.030
2020/01/31 21:27:48.2	3.860	-0.450	0.190	-0.050
2020/01/31 21:27:48.3	3.840	-0.440	0.170	-0.060
2020/01/31 21:27:48.4	3.820	-0.440	0.150	-0.080
2020/01/31 21:27:48.5	3.800	-0.430	0.120	-0.100
2020/01/31 21:27:48.6	3.780	-0.420	0.100	-0.120
2020/01/31 21:27:48.7	3.760	-0.410	0.080	-0.130
2020/01/31 21:27:48.8	3.750	-0.390	0.050	-0.150
2020/01/31 21:27:48.9	3.750	-0.380	0.030	-0.170
2020/01/31 21:27:49.0	3.740	-0.360	0.000	-0.190
2020/01/31 21:27:49.1	3.730	-0.340	-0.030	-0.210
2020/01/31 21:27:49.2	3.720	-0.320	-0.060	-0.230
2020/01/31 21:27:49.3	3.710	-0.300	-0.080	-0.250
2020/01/31 21:27:49.4	3.710	-0.280	-0.110	-0.270
2020/01/31 21:27:49.5	3.710	-0.260	-0.150	-0.290
2020/01/31 21:27:49.6	3.710	-0.230	-0.180	-0.310
2020/01/31 21:27:49.7	3.710	-0.210	-0.210	-0.330
2020/01/31 21:27:49.8	3.710	-0.180	-0.250	-0.350
2020/01/31 21:27:49.9	3.710	-0.150	-0.280	-0.370
2020/01/31 21:27:50.0	3.720	-0.120	-0.320	-0.390
2020/01/31 21:27:50.1	3.720	-0.090	-0.350	-0.410
2020/01/31 21:27:50.2	3.730	-0.060	-0.390	-0.420
2020/01/31 21:27:50.3	3.730	-0.030	-0.420	-0.440
2020/01/31 21:27:50.4	3.740	0.000	-0.450	-0.450
2020/01/31 21:27:50.5	3.740	0.030	-0.490	-0.460
2020/01/31 21:27:50.6	3.750	0.060	-0.520	-0.470
2020/01/31 21:27:50.7	3.760	0.090	-0.550	-0.480
2020/01/31 21:27:50.8	3.760	0.120	-0.580	-0.490
2020/01/31 21:27:50.9	3.770	0.150	-0.610	-0.490
2020/01/31 21:27:51.0	3.780	0.180	-0.640	-0.500
2020/01/31 21:27:51.1	3.780	0.210	-0.670	-0.500
2020/01/31 21:27:51.2	3.790	0.230	-0.690	-0.500
2020/01/31 21:27:51.3	3.790	0.260	-0.720	-0.500
2020/01/31 21:27:51.4	3.800	0.280	-0.740	-0.500
2020/01/31 21:27:51.5	3.810	0.310	-0.750	-0.500
2020/01/31 21:27:51.6	3.820	0.330	-0.770	-0.490
2020/01/31 21:27:51.7	3.830	0.350	-0.790	-0.490
2020/01/31 21:27:51.8	3.840	0.370	-0.800	-0.480
2020/01/31 21:27:51.9	3.840	0.380	-0.810	-0.480
2020/01/31 21:27:52.0	3.860	0.400	-0.810	-0.470
2020/01/31 21:27:52.1	3.870	0.410	-0.820	-0.460
2020/01/31 21:27:52.2	3.880	0.420	-0.820	-0.450
2020/01/31 21:27:52.3	3.900	0.430	-0.820	-0.440
2020/01/31 21:27:52.4	3.910	0.440	-0.820	-0.430
2020/01/31 21:27:52.5	3.930	0.440	-0.810	-0.420
2020/01/31 21:27:52.6	3.940	0.440	-0.800	-0.410
2020/01/31 21:27:52.7	3.960	0.440	-0.790	-0.400
2020/01/31 21:27:52.8	3.980	0.440	-0.770	-0.390
2020/01/31 21:27:52.9	3.990	0.430	-0.750	-0.370
2020/01/31 21:27:53.0	4.000	0.420	-0.730	-0.360
2020/01/31 21:27:53.1	4.020	0.410	-0.710	-0.340
2020/01/31 21:27:53.2	4.030	0.400	-0.680	-0.330
2020/01/31 21:27:53.3	4.040	0.380	-0.640	-0.310
2020/01/31 21:27:53.4	4.050	0.360	-0.610	-0.290
2020/01/31 21:27:53.5	4.060	0.340	-0.570	-0.260
2020/01/31 21:27:53.6	4.060	0.320	-0.530	-0.240
2020/01/31 21:27:53.7	4.070	0.290	-0.480	-0.210
2020/01/31 21:27:53.8	4.070	0.260	-0.430	-0.180
2020/01/31 21:27:53.9	4.080	0.230	-0.380	-0.150
2020/01/31 21:27:54.0	4.080	0.200	-0.330	-0.120
2020/01/31 21:27:54.1	4.080	0.160	-0.280	-0.090
2020/01/31 21:27:54.2	4.070	0.130	-0.220	-0.060
2020/01/31 21:27:54.3	4.070	0.090	-0.170	-0.030
2020/01/31 21:27:54.4	4.060	0.050	-0.110	0.000
2020/01/31 21:27:54.5	4.050	0.010	-0.060	0.030
2020/01/31 21:27:54.6	4.050	-0.030	-0.000	0.060
2020/01/31 21:27:54.7	4.040	-0.070	0.050	0.090
2020/01/31 21:27:54.8	4.030	-0.110	0.110	0.120
2020/01/31 21:27:54.9	4.020	-0.160	0.160	0.140
2020/01/31 21:27:55.0	4.010	-0.200	0.210	0.160
2020/01/31 21:27:55.1	3.990	-0.240	0.260	0.180
2020/01/31 21:27:55.2	3.980	-0.280	0.300	0.200
2020/01/31 21:27:55.3	3.960	-0.320	0.350	0.220
2020/01/31 21:27:55.4	3.940	-0.350	0.390	0.230
2020/01/31 21:27:55.5	3.930	-0.390	0.420	0.240
2020/01/31 21:27:55.6	3.910	-0.420	0.450	0.260
2020/01/31 21:27:55.7	3.890	-0.450	0.480	0.260
2020/01/31 21:27:55.8	3.870	-0.480	0.510	0.270
2020/01/31 21:27:55.9	3.860	-0.500	0.530	0.280
2020/01/31 21:27:56.0	3.840	-0.520	0.550	0.280
2020/01/31 21:27:56.1	3.820	-0.540	0.560	0.280
2020/01/31 21:27:56.2	3.800	-0.550	0.560	0.280
2020/01/31 21:27:56.3	3.790	-0.560	0.560	0.280
2020/01/31 21:27:56.4	3.770	-0.570	0.560	0.280
2020/01/31 21:27:56.5	3.750	-0.570	0.550	0.280
2020/01/31 21:27:56.6	3.740	-0.570	0.530	0.270
2020/01/31 21:27:56.7	3.720	-0.560	0.510	0.260
2020/01/31 21:27:56.8	3.710	-0.550	0.480	0.250
2020/01/31 21:27:56.9	3.710	-0.540	0.440	0.240
2020/01/31 21:27:57.0	3.700	-0.520	0.400	0.230
2020/01/31 21:27:57.1	3.690	-0.500	0.350	0.210
2020/01/31 21:27:57.2	3.680	-0.470	0.300	0.190
2020/01/31 21:27:57.3	3.670	-0.450	0.240	0.170
2020/01/31 21:27:57.4	3.670	-0.410	0.170	0.150
2020/01/31 21:27:57.5	3.670	-0.380	0.110	0.120
2020/01/31 21:27:57.6	3.670	-0.340	0.030	0.090
2020/01/31 21:27:57.7	3.670	-0.290	-0.040	0.060
2020/01/31 21:27:57.8	3.670	-0.250	-0.120	0.030
2020/01/31 21:27:57.9	3.680	-0.200	-0.200	-0.000
2020/01/31 21:27:58.0	3.680	-0.150	-0.280	-0.040
2020/01/31 21:27:58.1	3.690	-0.100	-0.370	-0.070
2020/01/31 21:27:58.2	3.690	-0.050	-0.450	-0.100
2020/01/31 21:27:58.3	3.700	0.000	-0.530	-0.130
2020/01/31 21:27:58.4	3.710	0.050	-0.610	-0.170
2020/01/31 21:27:58.5	3.710	0.110	-0.690	-0.200
2020/01/31 21:27:58.6	3.720	0.160	-0.770	-0.230
2020/01/31 21:27:58.7	3.720	0.210	-0.840	-0.260
2020/01/31 21:27:58.8	3.730	0.260	-0.910	-0.280
2020/01/31 21:27:58.9	3.720	0.310	-0.980	-0.310
2020/01/31 21:27:59.0	3.730	0.360	-1.040	-0.340
2020/01/31 21:27:59.1	3.740	0.410	-1.090	-0.360
2020/01/31 21:27:59.2	3.740	0.450	-1.140	-0.380
2020/01/31 21:27:59.3	3.750	0.490	-1.180	-0.400
2020/01/31 21:27:59.4	3.760	0.530	-1.210	-0.420
2020/01/31 21:27:59.5	3.760	0.560	-1.240	-0.440
2020/01/31 21:27:59.6	3.770	0.590	-1.260	-0.460
2020/01/31 21:27:59.7	3.780	0.620	-1.280	-0.470
2020/01/31 21:27:59.8	3.790	0.640	-1.290	-0.490
2020/01/31 21:27:59.9	3.780	0.660	-1.290	-0.500
2020/01/31 21:28:00.0	3.790	0.680	-1.290	-0.510
2020/01/31 21:28:00.1	3.800	0.690	-1.280	-0.520
2020/01/31 21:28:00.2	3.810	0.690	-1.260	-0.520
2020/01/31 21:28:00.3	3.820	0.700	-1.240	-0.530
2020/01/31 21:28:00.4	3.830	0.700	-1.210	-0.530
2020/01/31 21:28:00.5	3.830	0.690	-1.180	-0.530
2020/01/31 21:28:00.6	3.840	0.680	-1.140	-0.530
2020/01/31 21:28:00.7	3.840	0.660	-1.090	-0.520
2020/01/31 21:28:00.8	3.840	0.650	-1.040	-0.510
2020/01/31 21:28:00.9	3.830	0.620	-0.990	-0.500
2020/01/31 21:28:01.0	3.830	0.590	-0.920	-0.490
2020/01/31 21:28:01.1	3.820	0.560	-0.860	-0.480
2020/01/31 21:28:01.2	3.810	0.530	-0.780	-0.470
2020/01/31 21:28:01.3	3.800	0.490	-0.710	-0.460
2020/01/31 21:28:01.4	3.780	0.450	-0.630	-0.440
2020/01/31 21:28:01.5	3.770	0.400	-0.540	-0.430
2020/01/31 21:28:01.6	3.750	0.350	-0.460	-0.410
2020/01/31 21:28:01.7	3.730	0.300	-0.370	-0.400
2020/01/31 21:28:01.8	3.710	0.250	-0.280	-0.380
2020/01/31 21:28:01.9	3.680	0.190	-0.190	-0.370
2020/01/31 21:28:02.0	3.660	0.140	-0.100	-0.350
2020/01/31 21:28:02.1	3.640	0.080	-0.010	-0.340
2020/01/31 21:28:02.2	3.610	0.020	0.080	-0.330
2020/01/31 21:28:02.3	3.590	-0.030	0.170	-0.310
2020/01/31 21:28:02.4	3.570	-0.090	0.250	-0.300
2020/01/31 21:28:02.5	3.550	-0.150	0.330	-0.290
2020/01/31 21:28:02.6	3.530	-0.200	0.400	-0.280
2020/01/31 21:28:02.7	3.520	-0.250	0.470	-0.280
2020/01/31 21:28:02.8	3.500	-0.300	0.530	-0.270
2020/01/31 21:28:02.9	3.500	-0.350	0.590	-0.260
2020/01/31 21:28:03.0	3.490	-0.390	0.640	-0.250
2020/01/31 21:28:03.1	3.480	-0.440	0.690	-0.250
2020/01/31 21:28:03.2	3.470	-0.470	0.720	-0.250
2020/01/31 21:28:03.3	3.470	-0.500	0.760	-0.240
2020/01/31 21:28:03.4	3.460	-0.530	0.780	-0.240
2020/01/31 21:28:03.5	3.460	-0.560	0.790	-0.240
2020/01/31 21:28:03.6	3.460	-0.570	0.800	-0.240
2020/01/31 21:28:03.7	3.460	-0.590	0.810	-0.240
2020/01/31 21:28:03.8	3.470	-0.600	0.800	-0.230
2020/01/31 21:28:03.9	3.470	-0.600	0.790	-0.230
2020/01/31 21:28:04.0	3.480	-0.600	0.770	-0.230
2020/01/31 21:28:04.1	3.480	-0.590	0.750	-0.230
2020/01/31 21:28:04.2	3.490	-0.580	0.720	-0.220
2020/01/31 21:28:04.3	3.490	-0.560	0.680	-0.220
2020/01/31 21:28:04.4	3.500	-0.540	0.640	-0.210
2020/01/31 21:28:04.5	3.500	-0.510	0.600	-0.200
2020/01/31 21:28:04.6	3.500	-0.490	0.550	-0.200
2020/01/31 21:28:04.7	3.510	-0.450	0.500	-0.190
2020/01/31 21:28:04.8	3.510	-0.420	0.440	-0.180
2020/01/31 21:28:04.9	3.520	-0.380	0.390	-0.170
2020/01/31 21:28:05.0	3.520	-0.340	0.330	-0.160
2020/01/31 21:28:05.1	3.510	-0.300	0.270	-0.150
2020/01/31 21:28:05.2	3.510	-0.260	0.210	-0.140
2020/01/31 21:28:05.3	3.510	-0.220	0.150	-0.130
2020/01/31 21:28:05.4	3.500	-0.180	0.080	-0.130
2020/01/31 21:28:05.5	3.500	-0.140	0.020	-0.120
2020/01/31 21:28:05.6	3.490	-0.100	-0.050	-0.120
2020/01/31 21:28:05.7	3.490	-0.060	-0.110	-0.120
2020/01/31 21:28:05.8	3.480	-0.030	-0.180	-0.120
2020/01/31 21:28:05.9	3.460	0.010	-0.240	-0.120
2020/01/31 21:28:06.0	3.460	0.040	-0.310	-0.120
2020/01/31 21:28:06.1	3.460	0.070	-0.370	-0.130
2020/01/31 21:28:06.2	3.450	0.090	-0.430	-0.140
2020/01/31 21:28:06.3	3.450	0.110	-0.500	-0.160
2020/01/31 21:28:06.4	3.450	0.130	-0.560	-0.180
2020/01/31 21:28:06.5	3.460	0.150	-0.610	-0.200
2020/01/31 21:28:06.6	3.460	0.160	-0.670	-0.220
2020/01/31 21:28:06.7	3.470	0.170	-0.720	-0.250
2020/01/31 21:28:06.8	3.480	0.180	-0.770	-0.280
2020/01/31 21:28:06.9	3.500	0.180	-0.820	-0.310
2020/01/31 21:28:07.0	3.510	0.180	-0.870	-0.350
2020/01/31 21:28:07.1	3.520	0.180	-0.900	-0.380
2020/01/31 21:28:07.2	3.540	0.180	-0.940	-0.420
2020/01/31 21:28:07.3	3.550	0.170	-0.970	-0.450
2020/01/31 21:28:07.4	3.560	0.160	-1.000	-0.490
2020/01/31 21:28:07.5	3.580	0.150	-1.020	-0.520
2020/01/31 21:28:07.6	3.590	0.140	-1.030	-0.560
2020/01/31 21:28:07.7	3.600	0.130	-1.040	-0.590
2020/01/31 21:28:07.8	3.610	0.110	-1.040	-0.620
2020/01/31 21:28:07.9	3.620	0.100	-1.040	-0.640
2020/01/31 21:28:08.0	3.630	0.080	-1.030	-0.660
2020/01/31 21:28:08.1	3.640	0.070	-1.010	-0.680
2020/01/31 21:28:08.2	3.640	0.050	-0.990	-0.700
2020/01/31 21:28:08.3	3.650	0.040	-0.960	-0.710
2020/01/31 21:28:08.4	3.650	0.020	-0.920	-0.710
2020/01/31 21:28:08.5	3.650	0.010	-0.880	-0.720
2020/01/31 21:28:08.6	3.640	-0.010	-0.830	-0.710
2020/01/31 21:28:08.7	3.640	-0.020	-0.780	-0.710
2020/01/31 21:28:08.8	3.630	-0.030	-0.720	-0.690
2020/01/31 21:28:08.9	3.620	-0.040	-0.660	-0.680
2020/01/31 21:28:09.0	3.610	-0.050	-0.590	-0.660
2020/01/31 21:28:09.1	3.600	-0.060	-0.520	-0.640
2020/01/31 21:28:09.2	3.580	-0.060	-0.440	-0.610
2020/01/31 21:28:09.3	3.570	-0.070	-0.370	-0.580
2020/01/31 21:28:09.4	3.550	-0.070	-0.290	-0.550
2020/01/31 21:28:09.5	3.530	-0.070	-0.220	-0.510
2020/01/31 21:28:09.6	3.510	-0.070	-0.140	-0.470
2020/01/31 21:28:09.7	3.480	-0.070	-0.070	-0.430
2020/01/31 21:28:09.8	3.460	-0.070	-0.000	-0.380
2020/01/31 21:28:09.9	3.440	-0.070	0.060	-0.340
2020/01/31 21:28:10.0	3.410	-0.070	0.120	-0.290
2020/01/31 21:28:10.1	3.380	-0.060	0.180	-0.240
2020/01/31 21:28:10.2	3.350	-0.060	0.230	-0.190
2020/01/31 21:28:10.3	3.320	-0.050	0.270	-0.140
2020/01/31 21:28:10.4	3.280	-0.050	0.300	-0.100
2020/01/31 21:28:10.5	3.250	-0.040	0.330	-0.050
2020/01/31 21:28:10.6	3.220	-0.030	0.350	-0.010
2020/01/31 21:28:10.7	3.200	-0.020	0.350	0.030
2020/01/31 21:28:10.8	3.170	-0.010	0.360	0.070
2020/01/31 21:28:10.9	3.150	0.000	0.350	0.110
2020/01/31 21:28:11.0	3.130	0.010	0.330	0.130
2020/01/31 21:28:11.1	3.110	0.020	0.310	0.150
2020/01/31 21:28:11.2	3.090	0.040	0.270	0.170
2020/01/31 21:28:11.3	3.080	0.050	0.230	0.180
2020/01/31 21:28:11.4	3.070	0.060	0.190	0.180
2020/01/31 21:28:11.5	3.060	0.080	0.130	0.180
2020/01/31 21:28:11.6	3.060	0.090	0.070	0.170
2020/01/31 21:28:11.7	3.060	0.110	0.010	0.160
2020/01/31 21:28:11.8	3.070	0.120	-0.060	0.130
2020/01/31 21:28:11.9	3.090	0.140	-0.130	0.100
2020/01/31 21:28:12.0	3.100	0.160	-0.210	0.070
2020/01/31 21:28:12.1	3.120	0.170	-0.280	0.040
2020/01/31 21:28:12.2	3.150	0.190	-0.350	0.000
2020/01/31 21:28:12.3	3.170	0.200	-0.430	-0.040
2020/01/31 21:28:12.4	3.200	0.220	-0.500	-0.080
2020/01/31 21:28:12.5	3.240	0.230	-0.570	-0.120
2020/01/31 21:28:12.6	3.270	0.240	-0.630	-0.170
2020/01/31 21:28:12.7	3.310	0.250	-0.690	-0.210
2020/01/31 21:28:12.8	3.350	0.260	-0.750	-0.260
2020/01/31 21:28:12.9	3.400	0.270	-0.800	-0.310
2020/01/31 21:28:13.0	3.450	0.280	-0.840	-0.350
2020/01/31 21:28:13.1	3.490	0.280	-0.870	-0.400
2020/01/31 21:28:13.2	3.540	0.280	-0.900	-0.440
2020/01/31 21:28:13.3	3.580	0.280	-0.920	-0.480
2020/01/31 21:28:13.4	3.630	0.280	-0.930	-0.520
2020/01/31 21:28:13.5	3.670	0.270	-0.930	-0.560
2020/01/31 21:28:13.6	3.710	0.260	-0.920	-0.600
2020/01/31 21:28:13.7	3.760	0.250	-0.910	-0.640
2020/01/31 21:28:13.8	3.800	0.230	-0.890	-0.670
2020/01/31 21:28:13.9	3.830	0.220	-0.860	-0.710
2020/01/31 21:28:14.0	3.870	0.200	-0.820	-0.740
2020/01/31 21:28:14.1	3.900	0.170	-0.780	-0.760
2020/01/31 21:28:14.2	3.940	0.150	-0.740	-0.790
2020/01/31 21:28:14.3	3.970	0.120	-0.690	-0.810
2020/01/31 21:28:14.4	3.990	0.090	-0.640	-0.830
2020/01/31 21:28:14.5	4.020	0.060	-0.580	-0.850
2020/01/31 21:28:14.6	4.030	0.030	-0.530	-0.870
2020/01/31 21:28:14.7	4.050	-0.010	-0.470	-0.880
2020/01/31 21:28:14.8	4.070	-0.040	-0.410	-0.890
2020/01/31 21:28:14.9	4.070	-0.080	-0.360	-0.890
2020/01/31 21:28:15.0	4.070	-0.110	-0.300	-0.890
2020/01/31 21:28:15.1	4.080	-0.150	-0.240	-0.900
2020/01/31 21:28:15.2	4.080	-0.180	-0.190	-0.890
2020/01/31 21:28:15.3	4.070	-0.220	-0.140	-0.890
2020/01/31 21:28:15.4	4.070	-0.250	-0.090	-0.880
2020/01/31 21:28:15.5	4.060	-0.280	-0.040	-0.870
2020/01/31 21:28:15.6	4.050	-0.310	0.000	-0.860
2020/01/31 21:28:15.7	4.030	-0.340	0.040	-0.850
2020/01/31 21:28:15.8	4.010	-0.370	0.080	-0.830
2020/01/31 21:28:15.9	4.000	-0.390	0.120	-0.820
2020/01/31 21:28:16.0	3.970	-0.410	0.150	-0.800
2020/01/31 21:28:16.1	3.950	-0.430	0.170	-0.780
2020/01/31 21:28:16.2	3.920	-0.440	0.200	-0.750
2020/01/31 21:28:16.3	3.900	-0.450	0.220	-0.730
2020/01/31 21:28:16.4	3.870	-0.460	0.240	-0.700
2020/01/31 21:28:16.5	3.840	-0.460	0.250	-0.680
2020/01/31 21:28:16.6	3.810	-0.460	0.260	-0.650
2020/01/31 21:28:16.7	3.780	-0.450	0.270	-0.620
2020/01/31 21:28:16.8	3.750	-0.440	0.280	-0.590
2020/01/31 21:28:16.9	3.710	-0.430	0.290	-0.550
2020/01/31 21:28:17.0	3.680	-0.410	0.290	-0.520
2020/01/31 21:28:17.1	3.650	-0.390	0.290	-0.480
2020/01/31 21:28:17.2	3.620	-0.360	0.290	-0.440
2020/01/31 21:28:17.3	3.590	-0.340	0.290	-0.400
2020/01/31 21:28:17.4	3.560	-0.300	0.280	-0.360
2020/01/31 21:28:17.5	3.530	-0.270	0.280	-0.320
2020/01/31 21:28:17.6	3.500	-0.230	0.270	-0.280
2020/01/31 21:28:17.7	3.470	-0.190	0.270	-0.230
2020/01/31 21:28:17.8	3.440	-0.150	0.260	-0.190
2020/01/31 21:28:17.9	3.410	-0.110	0.250	-0.150
2020/01/31 21:28:18.0	3.380	-0.070	0.240	-0.110
2020/01/31 21:28:18.1	3.350	-0.030	0.230	-0.070
2020/01/31 21:28:18.2	3.320	0.010	0.220	-0.030
2020/01/31 21:28:18.3	3.290	0.050	0.210	0.010
2020/01/31 21:28:18.4	3.260	0.090	0.190	0.040
2020/01/31 21:28:18.5	3.230	0.120	0.180	0.080
2020/01/31 21:28:18.6	3.200	0.160	0.170	0.100
2020/01/31 21:28:18.7	3.170	0.190	0.150	0.130
2020/01/31 21:28:18.8	3.150	0.220	0.140	0.150
2020/01/31 21:28:18.9	3.130	0.250	0.120	0.170
2020/01/31 21:28:19.0	3.100	0.270	0.100	0.180
2020/01/31 21:28:19.1	3.080	0.290	0.080	0.200
2020/01/31 21:28:19.2	3.060	0.310	0.060	0.210
2020/01/31 21:28:19.3	3.040	0.320	0.040	0.210
2020/01/31 21:28:19.4	3.030	0.330	0.010	0.220
2020/01/31 21:28:19.5	3.020	0.340	-0.020	0.220
2020/01/31 21:28:19.6	3.010	0.350	-0.050	0.220
2020/01/31 21:28:19.7	3.000	0.350	-0.080	0.210
2020/01/31 21:28:19.8	3.000	0.350	-0.110	0.200
2020/01/31 21:28:19.9	2.990	0.350	-0.150	0.190
2020/01/31 21:28:20.0	2.990	0.340	-0.190	0.180
2020/01/31 21:28:20.1	3.000	0.330	-0.230	0.160
2020/01/31 21:28:20.2	3.010	0.320	-0.270	0.140
2020/01/31 21:28:20.3	3.020	0.310	-0.310	0.120
2020/01/31 21:28:20.4	3.040	0.290	-0.360	0.090
2020/01/31 21:28:20.5	3.050	0.280	-0.410	0.060
2020/01/31 21:28:20.6	3.070	0.260	-0.450	0.030
2020/01/31 21:28:20.7	3.100	0.240	-0.500	-0.000
2020/01/31 21:28:20.8	3.120	0.220	-0.550	-0.040
2020/01/31 21:28:20.9	3.150	0.200	-0.600	-0.080
2020/01/31 21:28:21.0	3.180	0.180	-0.650	-0.120
2020/01/31 21:28:21.1	3.210	0.150	-0.690	-0.160
2020/01/31 21:28:21.2	3.240	0.130	-0.730	-0.200
2020/01/31 21:28:21.3	3.270	0.110	-0.780	-0.250
2020/01/31 21:28:21.4	3.300	0.080	-0.820	-0.300
2020/01/31 21:28:21.5	3.330	0.060	-0.850	-0.350
2020/01/31 21:28:21.6	3.370	0.030	-0.890	-0.400
2020/01/31 21:28:21.7	3.400	0.010	-0.920	-0.450
2020/01/31 21:28:21.8	3.440	-0.010	-0.950	-0.500
2020/01/31 21:28:21.9	3.460	-0.030	-0.970	-0.550
2020/01/31 21:28:22.0	3.500	-0.050	-1.000	-0.600
2020/01/31 21:28:22.1	3.530	-0.070	-1.010	-0.640
2020/01/31 21:28:22.2	3.570	-0.090	-1.030	-0.680
2020/01/31 21:28:22.3	3.600	-0.110	-1.040	-0.720
2020/01/31 21:28:22.4	3.640	-0.130	-1.040	-0.760
2020/01/31 21:28:22.5	3.670	-0.140	-1.040	-0.800
2020/01/31 21:28:22.6	3.700	-0.160	-1.040	-0.830
2020/01/31 21:28:22.7	3.730	-0.170	-1.030	-0.850
2020/01/31 21:28:22.8	3.760	-0.180	-1.020	-0.880
2020/01/31 21:28:22.9	3.770	-0.190	-1.000	-0.890
2020/01/31 21:28:23.0	3.800	-0.200	-0.980	-0.910
2020/01/31 21:28:23.1	3.820	-0.200	-0.950	-0.920
2020/01/31 21:28:23.2	3.840	-0.210	-0.920	-0.930
2020/01/31 21:28:23.3	3.860	-0.210	-0.880	-0.940
2020/01/31 21:28:23.4	3.880	-0.210	-0.850	-0.950
2020/01/31 21:28:23.5	3.900	-0.220	-0.810	-0.950
2020/01/31 21:28:23.6	3.920	-0.220	-0.760	-0.950
2020/01/31 21:28:23.7	3.930	-0.210	-0.720	-0.940
2020/01/31 21:28:23.8	3.940	-0.210	-0.670	-0.930
2020/01/31 21:28:23.9	3.930	-0.210	-0.620	-0.930
2020/01/31 21:28:24.0	3.940	-0.200	-0.560	-0.910
2020/01/31 21:28:24.1	3.950	-0.200	-0.510	-0.900
2020/01/31 21:28:24.2	3.950	-0.190	-0.450	-0.880
2020/01/31 21:28:24.3	3.960	-0.180	-0.400	-0.860
2020/01/31 21:28:24.4	3.960	-0.180	-0.340	-0.840
2020/01/31 21:28:24.5	3.970	-0.170	-0.280	-0.820
2020/01/31 21:28:24.6	3.970	-0.160	-0.220	-0.790
2020/01/31 21:28:24.7	3.970	-0.150	-0.160	-0.760
2020/01/31 21:28:24.8	3.970	-0.140	-0.110	-0.730
2020/01/31 21:28:24.9	3.970	-0.130	-0.050	-0.700
2020/01/31 21:28:25.0	3.960	-0.120	0.010	-0.660
2020/01/31 21:28:25.1	3.960	-0.110	0.060	-0.620
2020/01/31 21:28:25.2	3.950	-0.100	0.110	-0.590
2020/01/31 21:28:25.3	3.940	-0.090	0.170	-0.550
2020/01/31 21:28:25.4	3.930	-0.080	0.210	-0.510
2020/01/31 21:28:25.5	3.910	-0.070	0.260	-0.470
2020/01/31 21:28:25.6	3.900	-0.060	0.300	-0.430
2020/01/31 21:28:25.7	3.880	-0.060	0.350	-0.390
2020/01/31 21:28:25.8	3.860	-0.050	0.380	-0.350
2020/01/31 21:28:25.9	3.860	-0.050	0.420	-0.310
2020/01/31 21:28:26.0	3.830	-0.050	0.450	-0.270
2020/01/31 21:28:26.1	3.810	-0.040	0.470	-0.240
2020/01/31 21:28:26.2	3.790	-0.040	0.490	-0.210
2020/01/31 21:28:26.3	3.770	-0.040	0.510	-0.180
2020/01/31 21:28:26.4	3.740	-0.040	0.520	-0.160
2020/01/31 21:28:26.5	3.720	-0.040	0.530	-0.140
2020/01/31 21:28:26.6	3.690	-0.040	0.530	-0.120
2020/01/31 21:28:26.7	3.670	-0.030	0.530	-0.100
2020/01/31 21:28:26.8	3.650	-0.030	0.520	-0.090
2020/01/31 21:28:26.9	3.640	-0.030	0.510	-0.080
2020/01/31 21:28:27.0	3.620	-0.030	0.490	-0.070
2020/01/31 21:28:27.1	3.590	-0.030	0.460	-0.060
2020/01/31 21:28:27.2	3.570	-0.020	0.430	-0.050
2020/01/31 21:28:27.3	3.560	-0.020	0.400	-0.050
2020/01/31 21:28:27.4	3.540	-0.010	0.360	-0.050
2020/01/31 21:28:27.5	3.520	-0.000	0.320	-0.050
2020/01/31 21:28:27.6	3.500	0.010	0.280	-0.050
2020/01/31 21:28:27.7	3.490	0.020	0.230	-0.050
2020/01/31 21:28:27.8	3.470	0.030	0.180	-0.060
2020/01/31 21:28:27.9	3.460	0.040	0.130	-0.060
2020/01/31 21:28:28.0	3.440	0.060	0.070	-0.060
2020/01/31 21:28:28.1	3.430	0.070	0.020	-0.070
2020/01/31 21:28:28.2	3.420	0.090	-0.040	-0.080
2020/01/31 21:28:28.3	3.410	0.110	-0.090	-0.080
2020/01/31 21:28:28.4	3.400	0.130	-0.150	-0.090
2020/01/31 21:28:28.5	3.390	0.150	-0.200	-0.100
2020/01/31 21:28:28.6	3.390	0.170	-0.260	-0.110
2020/01/31 21:28:28.7	3.380	0.190	-0.310	-0.120
2020/01/31 21:28:28.8	3.370	0.210	-0.360	-0.130
2020/01/31 21:28:28.9	3.370	0.240	-0.410	-0.140
2020/01/31 21:28:29.0	3.370	0.260	-0.450	-0.150
2020/01/31 21:28:29.1	3.360	0.280	-0.490	-0.160
2020/01/31 21:28:29.2	3.350	0.300	-0.530	-0.160
2020/01/31 21:28:29.3	3.350	0.320	-0.560	-0.170
2020/01/31 21:28:29.4	3.340	0.330	-0.590	-0.180
2020/01/31 21:28:29.5	3.340	0.350	-0.610	-0.190
2020/01/31 21:28:29.6	3.330	0.360	-0.630	-0.190
2020/01/31 21:28:29.7	3.320	0.370	-0.650	-0.200
2020/01/31 21:28:29.8	3.310	0.380	-0.660	-0.200
2020/01/31 21:28:29.9	3.330	0.390	-0.670	-0.210
2020/01/31 21:28:30.0	3.320	0.390	-0.670	-0.210
2020/01/31 21:28:30.1	3.310	0.390	-0.670	-0.210
2020/01/31 21:28:30.2	3.300	0.390	-0.660	-0.220
2020/01/31 21:28:30.3	3.290	0.390	-0.650	-0.220
2020/01/31 21:28:30.4	3.280	0.380	-0.630	-0.220
2020/01/31 21:28:30.5	3.270	0.370	-0.610	-0.220
2020/01/31 21:28:30.6	3.260	0.360	-0.590	-0.210
2020/01/31 21:28:30.7	3.250	0.340	-0.570	-0.210
2020/01/31 21:28:30.8	3.250	0.320	-0.540	-0.210
2020/01/31 21:28:30.9	3.230	0.300	-0.510	-0.210
2020/01/31 21:28:31.0	3.220	0.280	-0.480	-0.210
2020/01/31 21:28:31.1	3.220	0.250	-0.450	-0.210
2020/01/31 21:28:31.2	3.210	0.220	-0.420	-0.210
2020/01/31 21:28:31.3	3.200	0.190	-0.390	-0.210
2020/01/31 21:28:31.4	3.200	0.160	-0.370	-0.210
2020/01/31 21:28:31.5	3.190	0.130	-0.340	-0.210
2020/01/31 21:28:31.6	3.190	0.100	-0.310	-0.220
2020/01/31 21:28:31.7	3.180	0.060	-0.290	-0.220
2020/01/31 21:28:31.8	3.180	0.030	-0.270	-0.230
2020/01/31 21:28:31.9	3.170	-0.010	-0.260	-0.240
2020/01/31 21:28:32.0	3.170	-0.040	-0.240	-0.250
2020/01/31 21:28:32.1	3.170	-0.080	-0.230	-0.260
2020/01/31 21:28:32.2	3.170	-0.110	-0.220	-0.280
2020/01/31 21:28:32.3	3.170	-0.150	-0.210	-0.290
2020/01/31 21:28:32.4	3.180	-0.180	-0.210	-0.310
2020/01/31 21:28:32.5	3.180	-0.210	-0.210	-0.340
2020/01/31 21:28:32.6	3.180	-0.240	-0.220	-0.360
2020/01/31 21:28:32.7	3.190	-0.270	-0.230	-0.390
2020/01/31 21:28:32.8	3.200	-0.300	-0.240	-0.410
2020/01/31 21:28:32.9	3.200	-0.320	-0.250	-0.450
2020/01/31 21:28:33.0	3.210	-0.340	-0.270	-0.480
2020/01/31 21:28:33.1	3.230	-0.350	-0.290	-0.510
2020/01/31 21:28:33.2	3.240	-0.370	-0.320	-0.550
2020/01/31 21:28:33.3	3.260	-0.380	-0.340	-0.580
2020/01/31 21:28:33.4	3.280	-0.380	-0.370	-0.620
2020/01/31 21:28:33.5	3.290	-0.390	-0.400	-0.660
2020/01/31 21:28:33.6	3.320	-0.380	-0.430	-0.690
2020/01/31 21:28:33.7	3.340	-0.380	-0.460	-0.730
2020/01/31 21:28:33.8	3.360	-0.370	-0.500	-0.770
2020/01/31 21:28:33.9	3.390	-0.360	-0.530	-0.810
2020/01/31 21:28:34.0	3.420	-0.340	-0.560	-0.850
2020/01/31 21:28:34.1	3.450	-0.320	-0.590	-0.880
2020/01/31 21:28:34.2	3.490	-0.300	-0.630	-0.920
2020/01/31 21:28:34.3	3.520	-0.270	-0.660	-0.950
2020/01/31 21:28:34.4	3.560	-0.240	-0.680	-0.990
2020/01/31 21:28:34.5	3.600	-0.210	-0.710	-1.020
2020/01/31 21:28:34.6	3.640	-0.180	-0.730	-1.050
2020/01/31 21:28:34.7	3.680	-0.140	-0.750	-1.080
2020/01/31 21:28:34.8	3.720	-0.110	-0.770	-1.110
2020/01/31 21:28:34.9	3.780	-0.070	-0.780	-1.130
2020/01/31 21:28:35.0	3.820	-0.030	-0.780	-1.150
2020/01/31 21:28:35.1	3.860	0.010	-0.790	-1.170
2020/01/31 21:28:35.2	3.900	0.040	-0.780	-1.180
2020/01/31 21:28:35.3	3.940	0.080	-0.770	-1.190
2020/01/31 21:28:35.4	3.970	0.110	-0.750	-1.200
2020/01/31 21:28:35.5	4.010	0.140	-0.730	-1.190
2020/01/31 21:28:35.6	4.030	0.170	-0.690	-1.190
2020/01/31 21:28:35.7	4.060	0.190	-0.660	-1.180
2020/01/31 21:28:35.8	4.080	0.220	-0.610	-1.160
2020/01/31 21:28:35.9	4.090	0.230	-0.560	-1.140
2020/01/31 21:28:36.0	4.100	0.250	-0.510	-1.110
2020/01/31 21:28:36.1	4.110	0.260	-0.450	-1.080
2020/01/31 21:28:36.2	4.110	0.260	-0.380	-1.050
2020/01/31 21:28:36.3	4.110	0.260	-0.310	-1.010
2020/01/31 21:28:36.4	4.110	0.260	-0.230	-0.970
2020/01/31 21:28:36.5	4.100	0.260	-0.160	-0.930
2020/01/31 21:28:36.6	4.090	0.240	-0.080	-0.880
2020/01/31 21:28:36.7	4.070	0.230	0.000	-0.840
2020/01/31 21:28:36.8	4.050	0.210	0.080	-0.790
2020/01/31 21:28:36.9	4.020	0.190	0.160	-0.730
2020/01/31 21:28:37.0	4.000	0.170	0.240	-0.680
2020/01/31 21:28:37.1	3.970	0.140	0.320	-0.630
2020/01/31 21:28:37.2	3.940	0.110	0.400	-0.570
2020/01/31 21:28:37.3	3.910	0.080	0.470	-0.520
2020/01/31 21:28:37.4	3.870	0.040	0.540	-0.470
2020/01/31 21:28:37.5	3.840	0.010	0.600	-0.410
2020/01/31 21:28:37.6	3.800	-0.030	0.660	-0.360
2020/01/31 21:28:37.7	3.770	-0.070	0.710	-0.310
2020/01/31 21:28:37.8	3.730	-0.100	0.750	-0.260
2020/01/31 21:28:37.9	3.700	-0.140	0.790	-0.210
2020/01/31 21:28:38.0	3.670	-0.170	0.820	-0.170
2020/01/31 21:28:38.1	3.630	-0.210	0.840	-0.130
2020/01/31 21:28:38.2	3.590	-0.240	0.850	-0.090
2020/01/31 21:28:38.3	3.550	-0.270	0.850	-0.050
2020/01/31 21:28:38.4	3.520	-0.290	0.850	-0.020
2020/01/31 21:28:38.5	3.480	-0.320	0.830	0.000
2020/01/31 21:28:38.6	3.450	-0.340	0.810	0.030
2020/01/31 21:28:38.7	3.420	-0.350	0.780	0.050
2020/01/31 21:28:38.8	3.380	-0.370	0.740	0.060
2020/01/31 21:28:38.9	3.360	-0.380	0.700	0.080
2020/01/31 21:28:39.0	3.330	-0.380	0.640	0.090
2020/01/31 21:28:39.1	3.300	-0.390	0.580	0.090
2020/01/31 21:28:39.2	3.280	-0.380	0.520	0.090
2020/01/31 21:28:39.3	3.250	-0.380	0.450	0.090
2020/01/31 21:28:39.4	3.230	-0.370	0.370	0.090
2020/01/31 21:28:39.5	3.210	-0.360	0.290	0.080
2020/01/31 21:28:39.6	3.190	-0.350	0.210	0.070
2020/01/31 21:28:39.7	3.170	-0.330	0.130	0.060
2020/01/31 21:28:39.8	3.160	-0.310	0.040	0.040
2020/01/31 21:28:39.9	3.130	-0.290	-0.040	0.020
2020/01/31 21:28:40.0	3.120	-0.260	-0.130	0.000
2020/01/31 21:28:40.1	3.100	-0.240	-0.210	-0.020
2020/01/31 21:28:40.2	3.090	-0.210	-0.290	-0.030
2020/01/31 21:28:40.3	3.080	-0.180	-0.380	-0.050
2020/01/31 21:28:40.4	3.060	-0.160	-0.450	-0.070
2020/01/31 21:28:40.5	3.050	-0.130	-0.530	-0.090
2020/01/31 21:28:40.6	3.040	-0.100	-0.600	-0.110
2020/01/31 21:28:40.7	3.040	-0.070	-0.670	-0.140
2020/01/31 21:28:40.8	3.030	-0.040	-0.730	-0.160
2020/01/31 21:28:40.9	3.020	-0.020	-0.780	-0.180
2020/01/31 21:28:41.0	3.010	0.010	-0.840	-0.200
2020/01/31 21:28:41.1	3.010	0.030	-0.880	-0.220
2020/01/31 21:28:41.2	3.000	0.050	-0.920	-0.240
2020/01/31 21:28:41.3	3.000	0.080	-0.960	-0.260
2020/01/31 21:28:41.4	3.000	0.100	-0.990	-0.280
2020/01/31 21:28:41.5	3.000	0.110	-1.010	-0.290
2020/01/31 21:28:41.6	3.000	0.130	-1.030	-0.310
2020/01/31 21:28:41.7	2.990	0.140	-1.040	-0.330
2020/01/31 21:28:41.8	2.990	0.150	-1.050	-0.340
2020/01/31 21:28:41.9	3.010	0.160	-1.050	-0.360
2020/01/31 21:28:42.0	3.010	0.170	-1.040	-0.370
2020/01/31 21:28:42.1	3.010	0.180	-1.040	-0.390
2020/01/31 21:28:42.2	3.010	0.180	-1.020	-0.400
2020/01/31 21:28:42.3	3.010	0.190	-1.010	-0.410
2020/01/31 21:28:42.4	3.010	0.190	-0.990	-0.420
2020/01/31 21:28:42.5	3.010	0.190	-0.970	-0.430
2020/01/31 21:28:42.6	3.010	0.190	-0.940	-0.440
2020/01/31 21:28:42.7	3.010	0.190	-0.920	-0.450
2020/01/31 21:28:42.8	3.020	0.190	-0.890	-0.450
2020/01/31 21:28:42.9	3.020	0.190	-0.860	-0.460
2020/01/31 21:28:43.0	3.020	0.190	-0.830	-0.460
2020/01/31 21:28:43.1	3.030	0.200	-0.800	-0.460
2020/01/31 21:28:43.2	3.040	0.200	-0.770	-0.470
2020/01/31 21:28:43.3	3.040	0.200	-0.740	-0.470
2020/01/31 21:28:43.4	3.050	0.210	-0.720	-0.470
2020/01/31 21:28:43.5	3.060	0.210	-0.690	-0.460
2020/01/31 21:28:43.6	3.070	0.220	-0.670	-0.460
2020/01/31 21:28:43.7	3.090	0.230	-0.650	-0.460
2020/01/31 21:28:43.8	3.100	0.240	-0.630	-0.460
2020/01/31 21:28:43.9	3.120	0.250	-0.610	-0.450
2020/01/31 21:28:44.0	3.140	0.270	-0.600	-0.450
2020/01/31 21:28:44.1	3.160	0.280	-0.580	-0.450
2020/01/31 21:28:44.2	3.190	0.300	-0.570	-0.450
2020/01/31 21:28:44.3	3.220	0.320	-0.560	-0.450
2020/01/31 21:28:44.4	3.250	0.340	-0.560	-0.450
2020/01/31 21:28:44.5	3.280	0.360	-0.550	-0.450
2020/01/31 21:28:44.6	3.310	0.390	-0.540	-0.450
2020/01/31 21:28:44.7	3.350	0.410	-0.540	-0.450
2020/01/31 21:28:44.8	3.390	0.430	-0.530	-0.450
2020/01/31 21:28:44.9	3.420	0.460	-0.530	-0.450
2020/01/31 21:28:45.0	3.460	0.480	-0.530	-0.460
2020/01/31 21:28:45.1	3.500	0.500	-0.520	-0.460
2020/01/31 21:28:45.2	3.540	0.520	-0.510	-0.460
2020/01/31 21:28:45.3	3.580	0.540	-0.500	-0.460
2020/01/31 21:28:45.4	3.620	0.560	-0.490	-0.470
2020/01/31 21:28:45.5	3.660	0.580	-0.480	-0.470
2020/01/31 21:28:45.6	3.690	0.590	-0.460	-0.470
2020/01/31 21:28:45.7	3.730	0.600	-0.440	-0.470
2020/01/31 21:28:45.8	3.760	0.600	-0.420	-0.470
2020/01/31 21:28:45.9	3.780	0.600	-0.400	-0.460
2020/01/31 21:28:46.0	3.810	0.600	-0.370	-0.460
2020/01/31 21:28:46.1	3.840	0.590	-0.340	-0.450
2020/01/31 21:28:46.2	3.860	0.580	-0.300	-0.440
2020/01/31 21:28:46.3	3.880	0.560	-0.270	-0.440
2020/01/31 21:28:46.4	3.900	0.540	-0.230	-0.430
2020/01/31 21:28:46.5	3.910	0.510	-0.190	-0.410
2020/01/31 21:28:46.6	3.920	0.470	-0.140	-0.400
2020/01/31 21:28:46.7	3.930	0.440	-0.100	-0.390
2020/01/31 21:28:46.8	3.940	0.390	-0.050	-0.370
2020/01/31 21:28:46.9	3.940	0.350	-0.000	-0.350
2020/01/31 21:28:47.0	3.940	0.300	0.050	-0.330
2020/01/31 21:28:47.1	3.940	0.240	0.100	-0.320
2020/01/31 21:28:47.2	3.930	0.180	0.150	-0.300
2020/01/31 21:28:47.3	3.920	0.120	0.190	-0.280
2020/01/31 21:28:47.4	3.910	0.060	0.240	-0.270
2020/01/31 21:28:47.5	3.890	-0.010	0.290	-0.250
2020/01/31 21:28:47.6	3.870	-0.080	0.340	-0.230
2020/01/31 21:28:47.7	3.860	-0.150	0.380	-0.220
2020/01/31 21:28:47.8	3.830	-0.220	0.420	-0.210
2020/01/31 21:28:47.9	3.820	-0.290	0.460	-0.200
2020/01/31 21:28:48.0	3.790	-0.370	0.490	-0.190
2020/01/31 21:28:48.1	3.760	-0.440	0.520	-0.180
2020/01/31 21:28:48.2	3.730	-0.500	0.550	-0.180
2020/01/31 21:28:48.3	3.700	-0.570	0.570	-0.180
2020/01/31 21:28:48.4	3.670	-0.640	0.590	-0.180
2020/01/31 21:28:48.5	3.640	-0.700	0.600	-0.180
2020/01/31 21:28:48.6	3.610	-0.750	0.610	-0.180
2020/01/31 21:28:48.7	3.570	-0.810	0.610	-0.190
2020/01/31 21:28:48.8	3.540	-0.850	0.610	-0.190
2020/01/31 21:28:48.9	3.520	-0.900	0.610	-0.210
2020/01/31 21:28:49.0	3.480	-0.930	0.600	-0.210
2020/01/31 21:28:49.1	3.440	-0.970	0.590	-0.220
2020/01/31 21:28:49.2	3.410	-0.990	0.580	-0.230
2020/01/31 21:28:49.3	3.370	-1.010	0.560	-0.250
2020/01/31 21:28:49.4	3.340	-1.030	0.540	-0.260
2020/01/31 21:28:49.5	3.310	-1.030	0.510	-0.270
2020/01/31 21:28:49.6	3.270	-1.030	0.480	-0.290
2020/01/31 21:28:49.7	3.240	-1.030	0.450	-0.310
2020/01/31 21:28:49.8	3.220	-1.020	0.420	-0.320
2020/01/31 21:28:49.9	3.200	-1.000	0.380	-0.340
2020/01/31 21:28:50.0	3.180	-0.970	0.340	-0.360
2020/01/31 21:28:50.1	3.160	-0.950	0.300	-0.380
2020/01/31 21:28:50.2	3.140	-0.910	0.260	-0.400
2020/01/31 21:28:50.3	3.120	-0.870	0.220	-0.420
2020/01/31 21:28:50.4	3.110	-0.830	0.170	-0.440
2020/01/31 21:28:50.5	3.090	-0.780	0.130	-0.450
2020/01/31 21:28:50.6	3.080	-0.730	0.090	-0.470
2020/01/31 21:28:50.7	3.070	-0.680	0.040	-0.480
2020/01/31 21:28:50.8	3.060	-0.620	-0.000	-0.490
2020/01/31 21:28:50.9	3.050	-0.570	-0.050	-0.500
2020/01/31 21:28:51.0	3.040	-0.510	-0.090	-0.510
2020/01/31 21:28:51.1	3.030	-0.450	-0.130	-0.510
2020/01/31 21:28:51.2	3.030	-0.390	-0.160	-0.520
2020/01/31 21:28:51.3	3.020	-0.330	-0.200	-0.520
2020/01/31 21:28:51.4	3.020	-0.270	-0.230	-0.520
2020/01/31 21:28:51.5	3.020	-0.210	-0.270	-0.510
2020/01/31 21:28:51.6	3.020	-0.150	-0.300	-0.510
2020/01/31 21:28:51.7	3.020	-0.090	-0.320	-0.500
2020/01/31 21:28:51.8	3.020	-0.040	-0.350	-0.490
2020/01/31 21:28:51.9	3.010	0.020	-0.370	-0.490
2020/01/31 21:28:52.0	3.010	0.070	-0.390	-0.470
2020/01/31 21:28:52.1	3.020	0.120	-0.410	-0.460
2020/01/31 21:28:52.2	3.020	0.160	-0.420	-0.440
2020/01/31 21:28:52.3	3.030	0.210	-0.440	-0.410
2020/01/31 21:28:52.4	3.040	0.250	-0.450	-0.390
2020/01/31 21:28:52.5	3.040	0.290	-0.460	-0.360
2020/01/31 21:28:52.6	3.050	0.330	-0.470	-0.330
2020/01/31 21:28:52.7	3.060	0.360	-0.480	-0.300
2020/01/31 21:28:52.8	3.060	0.390	-0.490	-0.260
2020/01/31 21:28:52.9	3.070	0.420	-0.500	-0.210
2020/01/31 21:28:53.0	3.080	0.450	-0.510	-0.170
2020/01/31 21:28:53.1	3.080	0.480	-0.510	-0.130
2020/01/31 21:28:53.2	3.090	0.500	-0.520	-0.080
2020/01/31 21:28:53.3	3.090	0.530	-0.530	-0.030
2020/01/31 21:28:53.4	3.090	0.550	-0.530	0.010
2020/01/31 21:28:53.5	3.090	0.570	-0.540	0.060
2020/01/31 21:28:53.6	3.100	0.580	-0.550	0.110
2020/01/31 21:28:53.7	3.100	0.600	-0.570	0.160
2020/01/31 21:28:53.8	3.100	0.620	-0.580	0.210
2020/01/31 21:28:53.9	3.100	0.630	-0.590	0.260
2020/01/31 21:28:54.0	3.100	0.650	-0.610	0.300
2020/01/31 21:28:54.1	3.100	0.660	-0.630	0.350
2020/01/31 21:28:54.2	3.100	0.680	-0.650	0.390
2020/01/31 21:28:54.3	3.100	0.690	-0.670	0.430
2020/01/31 21:28:54.4	3.100	0.700	-0.700	0.460
2020/01/31 21:28:54.5	3.100	0.710	-0.720	0.500
2020/01/31 21:28:54.6	3.110	0.730	-0.750	0.520
2020/01/31 21:28:54.7	3.110	0.740	-0.780	0.550
2020/01/31 21:28:54.8	3.120	0.750	-0.820	0.570
2020/01/31 21:28:54.9	3.140	0.760	-0.860	0.590
2020/01/31 21:28:55.0	3.150	0.770	-0.890	0.600
2020/01/31 21:28:55.1	3.160	0.780	-0.930	0.600
2020/01/31 21:28:55.2	3.170	0.790	-0.960	0.600
2020/01/31 21:28:55.3	3.180	0.790	-1.000	0.600
2020/01/31 21:28:55.4	3.200	0.800	-1.040	0.590
2020/01/31 21:28:55.5	3.220	0.800	-1.070	0.570
2020/01/31 21:28:55.6	3.240	0.800	-1.100	0.550
2020/01/31 21:28:55.7	3.260	0.800	-1.130	0.520
2020/01/31 21:28:55.8	3.280	0.790	-1.160	0.480
2020/01/31 21:28:55.9	3.300	0.780	-1.180	0.450
2020/01/31 21:28:56.0	3.330	0.770	-1.200	0.410
2020/01/31 21:28:56.1	3.350	0.750	-1.220	0.360
2020/01/31 21:28:56.2	3.380	0.730	-1.230	0.300
2020/01/31 21:28:56.3	3.400	0.700	-1.240	0.240
2020/01/31 21:28:56.4	3.430	0.670	-1.240	0.170
2020/01/31 21:28:56.5	3.460	0.640	-1.230	0.100
2020/01/31 21:28:56.6	3.490	0.600	-1.230	0.030
2020/01/31 21:28:56.7	3.530	0.560	-1.210	-0.050
2020/01/31 21:28:56.8	3.560	0.510	-1.190	-0.130
2020/01/31 21:28:56.9	3.600	0.460	-1.160	-0.220
2020/01/31 21:28:57.0	3.640	0.410	-1.130	-0.310
2020/01/31 21:28:57.1	3.680	0.350	-1.090	-0.390
2020/01/31 21:28:57.2	3.720	0.290	-1.050	-0.480
2020/01/31 21:28:57.3	3.760	0.220	-0.990	-0.570
2020/01/31 21:28:57.4	3.810	0.150	-0.940	-0.660
2020/01/31 21:28:57.5	3.850	0.080	-0.880	-0.750
2020/01/31 21:28:57.6	3.900	0.010	-0.810	-0.840
2020/01/31 21:28:57.7	3.940	-0.070	-0.730	-0.930
2020/01/31 21:28:57.8	3.990	-0.150	-0.660	-1.010
2020/01/31 21:28:57.9	4.020	-0.220	-0.570	-1.090
2020/01/31 21:28:58.0	4.070	-0.300	-0.480	-1.160
2020/01/31 21:28:58.1	4.110	-0.380	-0.390	-1.240
2020/01/31 21:28:58.2	4.140	-0.460	-0.290	-1.310
2020/01/31 21:28:58.3	4.180	-0.540	-0.190	-1.370
2020/01/31 21:28:58.4	4.210	-0.610	-0.090	-1.430
2020/01/31 21:28:58.5	4.240	-0.690	0.010	-1.480
2020/01/31 21:28:58.6	4.270	-0.760	0.120	-1.530
2020/01/31 21:28:58.7	4.300	-0.830	0.230	-1.570
2020/01/31 21:28:58.8	4.320	-0.890	0.340	-1.600
2020/01/31 21:28:58.9	4.340	-0.950	0.440	-1.630
2020/01/31 21:28:59.0	4.350	-1.000	0.540	-1.640
2020/01/31 21:28:59.1	4.360	-1.050	0.650	-1.650
2020/01/31 21:28:59.2	4.370	-1.100	0.750	-1.660
2020/01/31 21:28:59.3	4.380	-1.130	0.850	-1.650
2020/01/31 21:28:59.4	4.380	-1.170	0.940	-1.640
2020/01/31 21:28:59.5	4.380	-1.190	1.030	-1.620
2020/01/31 21:28:59.6	4.370	-1.210	1.120	-1.590
2020/01/31 21:28:59.7	4.370	-1.220	1.190	-1.560
2020/01/31 21:28:59.8	4.360	-1.220	1.260	-1.510
2020/01/31 21:28:59.9	4.330	-1.210	1.320	-1.460
2020/01/31 21:29:00.0	4.310	-1.200	1.370	-1.410
2020/01/31 21:29:00.1	4.290	-1.180	1.410	-1.350
2020/01/31 21:29:00.2	4.270	-1.160	1.450	-1.290
2020/01/31 21:29:00.3	4.240	-1.120	1.470	-1.220
2020/01/31 21:29:00.4	4.210	-1.080	1.480	-1.150
2020/01/31 21:29:00.5	4.180	-1.040	1.480	-1.070
2020/01/31 21:29:00.6	4.140	-0.990	1.460	-0.990
2020/01/31 21:29:00.7	4.110	-0.930	1.440	-0.910
2020/01/31 21:29:00.8	4.070	-0.870	1.410	-0.830
2020/01/31 21:29:00.9	4.020	-0.800	1.360	-0.740
2020/01/31 21:29:01.0	3.980	-0.730	1.310	-0.650
2020/01/31 21:29:01.1	3.940	-0.660	1.240	-0.560
2020/01/31 21:29:01.2	3.890	-0.590	1.170	-0.480
2020/01/31 21:29:01.3	3.840	-0.510	1.090	-0.390
2020/01/31 21:29:01.4	3.800	-0.430	1.000	-0.300
2020/01/31 21:29:01.5	3.750	-0.350	0.910	-0.220
2020/01/31 21:29:01.6	3.700	-0.270	0.810	-0.140
2020/01/31 21:29:01.7	3.660	-0.190	0.700	-0.060
2020/01/31 21:29:01.8	3.610	-0.110	0.590	0.020
2020/01/31 21:29:01.9	3.580	-0.030	0.470	0.100
2020/01/31 21:29:02.0	3.530	0.050	0.350	0.170
2020/01/31 21:29:02.1	3.490	0.130	0.230	0.230
2020/01/31 21:29:02.2	3.450	0.200	0.100	0.290
2020/01/31 21:29:02.3	3.410	0.270	-0.020	0.350
2020/01/31 21:29:02.4	3.380	0.340	-0.150	0.400
2020/01/31 21:29:02.5	3.350	0.410	-0.270	0.450
2020/01/31 21:29:02.6	3.320	0.470	-0.390	0.490
2020/01/31 21:29:02.7	3.290	0.530	-0.510	0.520
2020/01/31 21:29:02.8	3.270	0.580	-0.620	0.550
2020/01/31 21:29:02.9	3.250	0.640	-0.730	0.580
2020/01/31 21:29:03.0	3.230	0.680	-0.840	0.600
2020/01/31 21:29:03.1	3.220	0.720	-0.940	0.610
2020/01/31 21:29:03.2	3.200	0.760	-1.030	0.620
2020/01/31 21:29:03.3	3.190	0.800	-1.110	0.630
2020/01/31 21:29:03.4	3.190	0.820	-1.190	0.640
2020/01/31 21:29:03.5	3.180	0.850	-1.260	0.630
2020/01/31 21:29:03.6	3.180	0.870	-1.310	0.630
2020/01/31 21:29:03.7	3.170	0.880	-1.360	0.620
2020/01/31 21:29:03.8	3.170	0.890	-1.400	0.610
2020/01/31 21:29:03.9	3.170	0.900	-1.430	0.590
2020/01/31 21:29:04.0	3.180	0.900	-1.450	0.570
2020/01/31 21:29:04.1	3.180	0.890	-1.470	0.550
2020/01/31 21:29:04.2	3.190	0.890	-1.470	0.520
2020/01/31 21:29:04.3	3.200	0.870	-1.460	0.490
2020/01/31 21:29:04.4	3.210	0.860	-1.450	0.450
2020/01/31 21:29:04.5	3.230	0.840	-1.430	0.410
2020/01/31 21:29:04.6	3.240	0.810	-1.400	0.370
2020/01/31 21:29:04.7	3.260	0.790	-1.360	0.320
2020/01/31 21:29:04.8	3.280	0.760	-1.320	0.270
2020/01/31 21:29:04.9	3.310	0.720	-1.270	0.220
2020/01/31 21:29:05.0	3.330	0.690	-1.220	0.160
2020/01/31 21:29:05.1	3.360	0.650	-1.160	0.100
2020/01/31 21:29:05.2	3.380	0.610	-1.100	0.040
2020/01/31 21:29:05.3	3.410	0.560	-1.040	-0.020
2020/01/31 21:29:05.4	3.440	0.520	-0.970	-0.080
2020/01/31 21:29:05.5	3.460	0.470	-0.910	-0.140
2020/01/31 21:29:05.6	3.490	0.420	-0.840	-0.200
2020/01/31 21:29:05.7	3.520	0.380	-0.770	-0.260
2020/01/31 21:29:05.8	3.550	0.330	-0.700	-0.320
2020/01/31 21:29:05.9	3.590	0.280	-0.630	-0.380
2020/01/31 21:29:06.0	3.620	0.230	-0.560	-0.440
2020/01/31 21:29:06.1	3.640	0.180	-0.500	-0.490
2020/01/31 21:29:06.2	3.670	0.130	-0.440	-0.550
2020/01/31 21:29:06.3	3.700	0.080	-0.380	-0.600
2020/01/31 21:29:06.4	3.720	0.030	-0.330	-0.650
2020/01/31 21:29:06.5	3.750	-0.020	-0.280	-0.700
2020/01/31 21:29:06.6	3.770	-0.060	-0.230	-0.740
2020/01/31 21:29:06.7	3.790	-0.110	-0.190	-0.790
2020/01/31 21:29:06.8	3.820	-0.150	-0.160	-0.830
2020/01/31 21:29:06.9	3.830	-0.190	-0.130	-0.880
2020/01/31 21:29:07.0	3.850	-0.230	-0.110	-0.920
2020/01/31 21:29:07.1	3.880	-0.260	-0.090	-0.960
2020/01/31 21:29:07.2	3.900	-0.300	-0.070	-1.010
2020/01/31 21:29:07.3	3.930	-0.330	-0.070	-1.050
2020/01/31 21:29:07.4	3.960	-0.350	-0.070	-1.090
2020/01/31 21:29:07.5	3.980	-0.380	-0.070	-1.130
2020/01/31 21:29:07.6	4.010	-0.400	-0.080	-1.160
2020/01/31 21:29:07.7	4.040	-0.410	-0.090	-1.200
2020/01/31 21:29:07.8	4.070	-0.430	-0.110	-1.240
2020/01/31 21:29:07.9	4.090	-0.440	-0.120	-1.270
2020/01/31 21:29:08.0	4.120	-0.440	-0.150	-1.300
2020/01/31 21:29:08.1	4.150	-0.450	-0.170	-1.330
2020/01/31 21:29:08.2	4.180	-0.450	-0.200	-1.350
2020/01/31 21:29:08.3	4.210	-0.450	-0.220	-1.370
2020/01/31 21:29:08.4	4.240	-0.440	-0.250	-1.380
2020/01/31 21:29:08.5	4.260	-0.430	-0.270	-1.390
2020/01/31 21:29:08.6	4.290	-0.420	-0.290	-1.400
2020/01/31 21:29:08.7	4.310	-0.410	-0.310	-1.400
2020/01/31 21:29:08.8	4.340	-0.390	-0.330	-1.390
2020/01/31 21:29:08.9	4.370	-0.380	-0.340	-1.380
2020/01/31 21:29:09.0	4.390	-0.360	-0.350	-1.360
2020/01/31 21:29:09.1	4.400	-0.340	-0.350	-1.340
2020/01/31 21:29:09.2	4.420	-0.320	-0.350	-1.310
2020/01/31 21:29:09.3	4.430	-0.300	-0.350	-1.280
2020/01/31 21:29:09.4	4.440	-0.290	-0.340	-1.240
2020/01/31 21:29:09.5	4.450	-0.270	-0.330	-1.200
2020/01/31 21:29:09.6	4.450	-0.250	-0.310	-1.150
2020/01/31 21:29:09.7	4.450	-0.230	-0.290	-1.100
2020/01/31 21:29:09.8	4.450	-0.220	-0.260	-1.050
2020/01/31 21:29:09.9	4.420	-0.200	-0.230	-0.990
2020/01/31 21:29:10.0	4.410	-0.190	-0.200	-0.930
2020/01/31 21:29:10.1	4.400	-0.180	-0.160	-0.860
2020/01/31 21:29:10.2	4.380	-0.170	-0.120	-0.800
2020/01/31 21:29:10.3	4.360	-0.170	-0.080	-0.730
2020/01/31 21:29:10.4	4.340	-0.160	-0.040	-0.670
2020/01/31 21:29:10.5	4.320	-0.160	0.000	-0.600
2020/01/31 21:29:10.6	4.290	-0.150	0.050	-0.530
2020/01/31 21:29:10.7	4.260	-0.150	0.090	-0.470
2020/01/31 21:29:10.8	4.230	-0.150	0.130	-0.400
2020/01/31 21:29:10.9	4.210	-0.160	0.180	-0.330
2020/01/31 21:29:11.0	4.180	-0.160	0.220	-0.270
2020/01/31 21:29:11.1	4.150	-0.160	0.260	-0.210
2020/01/31 21:29:11.2	4.110	-0.170	0.290	-0.150
2020/01/31 21:29:11.3	4.080	-0.170	0.320	-0.090
2020/01/31 21:29:11.4	4.040	-0.180	0.350	-0.040
2020/01/31 21:29:11.5	4.010	-0.180	0.380	0.020
2020/01/31 21:29:11.6	3.980	-0.180	0.400	0.070
2020/01/31 21:29:11.7	3.950	-0.190	0.410	0.110
2020/01/31 21:29:11.8	3.920	-0.190	0.420	0.150
2020/01/31 21:29:11.9	3.890	-0.190	0.420	0.190
2020/01/31 21:29:12.0	3.860	-0.190	0.420	0.230
2020/01/31 21:29:12.1	3.840	-0.180	0.410	0.260
2020/01/31 21:29:12.2	3.810	-0.180	0.400	0.290
2020/01/31 21:29:12.3	3.790	-0.170	0.380	0.310
2020/01/31 21:29:12.4	3.760	-0.160	0.360	0.330
2020/01/31 21:29:12.5	3.740	-0.150	0.330	0.350
2020/01/31 21:29:12.6	3.720	-0.140	0.290	0.360
2020/01/31 21:29:12.7	3.710	-0.120	0.250	0.360
2020/01/31 21:29:12.8	3.690	-0.110	0.200	0.370
2020/01/31 21:29:12.9	3.680	-0.090	0.150	0.370
2020/01/31 21:29:13.0	3.660	-0.060	0.100	0.360
2020/01/31 21:29:13.1	3.650	-0.040	0.040	0.350
2020/01/31 21:29:13.2	3.650	-0.020	-0.020	0.340
2020/01/31 21:29:13.3	3.640	0.010	-0.080	0.320
2020/01/31 21:29:13.4	3.640	0.040	-0.150	0.300
2020/01/31 21:29:13.5	3.640	0.070	-0.210	0.280
2020/01/31 21:29:13.6	3.640	0.100	-0.280	0.260
2020/01/31 21:29:13.7	3.640	0.130	-0.340	0.230
2020/01/31 21:29:13.8	3.650	0.170	-0.410	0.200
2020/01/31 21:29:13.9	3.660	0.200	-0.470	0.170
2020/01/31 21:29:14.0	3.670	0.240	-0.530	0.130
2020/01/31 21:29:14.1	3.680	0.270	-0.590	0.100
2020/01/31 21:29:14.2	3.700	0.300	-0.640	0.060
2020/01/31 21:29:14.3	3.710	0.340	-0.690	0.030
2020/01/31 21:29:14.4	3.730	0.370	-0.730	-0.010
2020/01/31 21:29:14.5	3.740	0.400	-0.770	-0.040
2020/01/31 21:29:14.6	3.760	0.430	-0.800	-0.070
2020/01/31 21:29:14.7	3.770	0.460	-0.820	-0.100
2020/01/31 21:29:14.8	3.790	0.490	-0.840	-0.130
2020/01/31 21:29:14.9	3.800	0.510	-0.850	-0.160
2020/01/31 21:29:15.0	3.810	0.530	-0.850	-0.180
2020/01/31 21:29:15.1	3.820	0.550	-0.840	-0.200
2020/01/31 21:29:15.2	3.840	0.570	-0.830	-0.220
2020/01/31 21:29:15.3	3.850	0.580	-0.810	-0.230
2020/01/31 21:29:15.4	3.850	0.590	-0.780	-0.240
2020/01/31 21:29:15.5	3.860	0.590	-0.750	-0.250
2020/01/31 21:29:15.6	3.860	0.590	-0.700	-0.260
2020/01/31 21:29:15.7	3.860	0.590	-0.660	-0.260
2020/01/31 21:29:15.8	3.860	0.580	-0.600	-0.260
2020/01/31 21:29:15.9	3.850	0.570	-0.540	-0.260
2020/01/31 21:29:16.0	3.840	0.550	-0.480	-0.260
2020/01/31 21:29:16.1	3.840	0.530	-0.420	-0.250
2020/01/31 21:29:16.2	3.830	0.500	-0.350	-0.250
2020/01/31 21:29:16.3	3.820	0.470	-0.280	-0.240
2020/01/31 21:29:16.4	3.810	0.440	-0.210	-0.240
2020/01/31 21:29:16.5	3.790	0.400	-0.150	-0.230
2020/01/31 21:29:16.6	3.780	0.360	-0.080	-0.220
2020/01/31 21:29:16.7	3.770	0.320	-0.020	-0.220
2020/01/31 21:29:16.8	3.760	0.270	0.040	-0.220
2020/01/31 21:29:16.9	3.760	0.220	0.100	-0.220
2020/01/31 21:29:17.0	3.750	0.170	0.150	-0.220
2020/01/31 21:29:17.1	3.740	0.120	0.190	-0.220
2020/01/31 21:29:17.2	3.740	0.070	0.230	-0.230
2020/01/31 21:29:17.3	3.730	0.020	0.270	-0.230
2020/01/31 21:29:17.4	3.730	-0.030	0.290	-0.250
2020/01/31 21:29:17.5	3.740	-0.080	0.310	-0.260
2020/01/31 21:29:17.6	3.740	-0.130	0.320	-0.280
2020/01/31 21:29:17.7	3.750	-0.180	0.320	-0.300
2020/01/31 21:29:17.8	3.750	-0.220	0.310	-0.320
2020/01/31 21:29:17.9	3.760	-0.260	0.300	-0.350
2020/01/31 21:29:18.0	3.780	-0.300	0.270	-0.370
2020/01/31 21:29:18.1	3.790	-0.340	0.240	-0.400
2020/01/31 21:29:18.2	3.810	-0.370	0.200	-0.430
2020/01/31 21:29:18.3	3.820	-0.400	0.160	-0.460
2020/01/31 21:29:18.4	3.840	-0.420	0.110	-0.490
2020/01/31 21:29:18.5	3.860	-0.440	0.050	-0.530
2020/01/31 21:29:18.6	3.880	-0.460	-0.010	-0.560
2020/01/31 21:29:18.7	3.900	-0.470	-0.080	-0.590
2020/01/31 21:29:18.8	3.920	-0.480	-0.150	-0.620
2020/01/31 21:29:18.9	3.930	-0.480	-0.230	-0.660
2020/01/31 21:29:19.0	3.950	-0.480	-0.300	-0.690
2020/01/31 21:29:19.1	3.970	-0.480	-0.380	-0.720
2020/01/31 21:29:19.2	3.990	-0.470	-0.450	-0.750
2020/01/31 21:29:19.3	4.010	-0.460	-0.530	-0.780
2020/01/31 21:29:19.4	4.020	-0.450	-0.610	-0.810
2020/01/31 21:29:19.5	4.040	-0.430	-0.680	-0.840
2020/01/31 21:29:19.6	4.060	-0.410	-0.750	-0.870
2020/01/31 21:29:19.7	4.080	-0.380	-0.820	-0.900
2020/01/31 21:29:19.8	4.090	-0.360	-0.880	-0.920
2020/01/31 21:29:19.9	4.090	-0.330	-0.940	-0.950
2020/01/31 21:29:20.0	4.110	-0.300	-1.000	-0.970
2020/01/31 21:29:20.1	4.130	-0.270	-1.050	-0.990
2020/01/31 21:29:20.2	4.140	-0.240	-1.090	-1.020
2020/01/31 21:29:20.3	4.160	-0.200	-1.130	-1.040
2020/01/31 21:29:20.4	4.180	-0.170	-1.160	-1.060
2020/01/31 21:29:20.5	4.210	-0.130	-1.190	-1.080
2020/01/31 21:29:20.6	4.230	-0.100	-1.210	-1.090
2020/01/31 21:29:20.7	4.250	-0.060	-1.220	-1.110
2020/01/31 21:29:20.8	4.280	-0.030	-1.230	-1.130
2020/01/31 21:29:20.9	4.310	0.010	-1.230	-1.130
2020/01/31 21:29:21.0	4.340	0.050	-1.220	-1.140
2020/01/31 21:29:21.1	4.370	0.080	-1.210	-1.150
2020/01/31 21:29:21.2	4.390	0.110	-1.190	-1.150
2020/01/31 21:29:21.3	4.420	0.140	-1.160	-1.150
2020/01/31 21:29:21.4	4.440	0.170	-1.130	-1.150
2020/01/31 21:29:21.5	4.470	0.200	-1.080	-1.140
2020/01/31 21:29:21.6	4.490	0.230	-1.040	-1.130
2020/01/31 21:29:21.7	4.510	0.250	-0.980	-1.110
2020/01/31 21:29:21.8	4.530	0.270	-0.920	-1.080
2020/01/31 21:29:21.9	4.540	0.290	-0.850	-1.050
2020/01/31 21:29:22.0	4.560	0.310	-0.780	-1.020
2020/01/31 21:29:22.1	4.570	0.330	-0.700	-0.980
2020/01/31 21:29:22.2	4.580	0.340	-0.610	-0.950
2020/01/31 21:29:22.3	4.580	0.350	-0.520	-0.900
2020/01/31 21:29:22.4	4.590	0.350	-0.430	-0.860
2020/01/31 21:29:22.5	4.590	0.360	-0.330	-0.810
2020/01/31 21:29:22.6	4.580	0.360	-0.230	-0.750
2020/01/31 21:29:22.7	4.580	0.360	-0.130	-0.700
2020/01/31 21:29:22.8	4.570	0.350	-0.030	-0.640
2020/01/31 21:29:22.9	4.550	0.350	0.080	-0.580
2020/01/31 21:29:23.0	4.540	0.340	0.180	-0.520
2020/01/31 21:29:23.1	4.520	0.330	0.290	-0.460
2020/01/31 21:29:23.2	4.500	0.310	0.390	-0.390
2020/01/31 21:29:23.3	4.480	0.300	0.490	-0.330
2020/01/31 21:29:23.4	4.460	0.280	0.590	-0.270
2020/01/31 21:29:23.5	4.440	0.260	0.680	-0.210
2020/01/31 21:29:23.6	4.410	0.240	0.770	-0.150
2020/01/31 21:29:23.7	4.380	0.220	0.860	-0.090
2020/01/31 21:29:23.8	4.360	0.200	0.940	-0.030
2020/01/31 21:29:23.9	4.320	0.180	1.000	0.020
2020/01/31 21:29:24.0	4.300	0.150	1.070	0.080
2020/01/31 21:29:24.1	4.270	0.130	1.120	0.130
2020/01/31 21:29:24.2	4.240	0.110	1.170	0.170
2020/01/31 21:29:24.3	4.210	0.080	1.210	0.210
2020/01/31 21:29:24.4	4.190	0.060	1.240	0.250
2020/01/31 21:29:24.5	4.160	0.030	1.250	0.290
2020/01/31 21:29:24.6	4.140	0.010	1.260	0.320
2020/01/31 21:29:24.7	4.110	-0.020	1.260	0.350
2020/01/31 21:29:24.8	4.090	-0.040	1.250	0.370
2020/01/31 21:29:24.9	4.050	-0.060	1.230	0.390
2020/01/31 21:29:25.0	4.030	-0.090	1.200	0.400
2020/01/31 21:29:25.1	4.010	-0.110	1.160	0.410
2020/01/31 21:29:25.2	3.990	-0.130	1.110	0.410
2020/01/31 21:29:25.3	3.970	-0.150	1.040	0.410
2020/01/31 21:29:25.4	3.950	-0.160	0.970	0.400
2020/01/31 21:29:25.5	3.940	-0.180	0.890	0.390
2020/01/31 21:29:25.6	3.920	-0.190	0.800	0.370
2020/01/31 21:29:25.7	3.910	-0.210	0.700	0.340
2020/01/31 21:29:25.8	3.900	-0.220	0.600	0.310
2020/01/31 21:29:25.9	3.900	-0.230	0.480	0.280
2020/01/31 21:29:26.0	3.900	-0.230	0.360	0.240
2020/01/31 21:29:26.1	3.890	-0.240	0.240	0.200
2020/01/31 21:29:26.2	3.890	-0.240	0.110	0.150
2020/01/31 21:29:26.3	3.900	-0.240	-0.020	0.090
2020/01/31 21:29:26.4	3.900	-0.240	-0.160	0.040
2020/01/31 21:29:26.5	3.910	-0.240	-0.290	-0.020
2020/01/31 21:29:26.6	3.920	-0.240	-0.430	-0.090
2020/01/31 21:29:26.7	3.930	-0.230	-0.570	-0.150
2020/01/31 21:29:26.8	3.950	-0.230	-0.700	-0.220
2020/01/31 21:29:26.9	3.980	-0.220	-0.830	-0.290
2020/01/31 21:29:27.0	4.000	-0.210	-0.960	-0.360
2020/01/31 21:29:27.1	4.020	-0.200	-1.080	-0.430
2020/01/31 21:29:27.2	4.050	-0.190	-1.200	-0.510
2020/01/31 21:29:27.3	4.070	-0.180	-1.310	-0.580
2020/01/31 21:29:27.4	4.100	-0.160	-1.410	-0.650
2020/01/31 21:29:27.5	4.130	-0.150	-1.510	-0.720
2020/01/31 21:29:27.6	4.160	-0.140	-1.600	-0.780
2020/01/31 21:29:27.7	4.190	-0.130	-1.680	-0.850
2020/01/31 21:29:27.8	4.230	-0.110	-1.750	-0.910
2020/01/31 21:29:27.9	4.270	-0.100	-1.810	-0.970
2020/01/31 21:29:28.0	4.300	-0.090	-1.860	-1.030
2020/01/31 21:29:28.1	4.340	-0.080	-1.890	-1.090
2020/01/31 21:29:28.2	4.370	-0.070	-1.920	-1.140
2020/01/31 21:29:28.3	4.400	-0.060	-1.940	-1.190
2020/01/31 21:29:28.4	4.440	-0.050	-1.940	-1.240
2020/01/31 21:29:28.5	4.470	-0.050	-1.940	-1.280
2020/01/31 21:29:28.6	4.510	-0.040	-1.920	-1.330
2020/01/31 21:29:28.7	4.540	-0.040	-1.890	-1.360
2020/01/31 21:29:28.8	4.570	-0.040	-1.860	-1.400
2020/01/31 21:29:28.9	4.610	-0.040	-1.820	-1.430
2020/01/31 21:29:29.0	4.640	-0.040	-1.760	-1.460
2020/01/31 21:29:29.1	4.670	-0.040	-1.700	-1.490
2020/01/31 21:29:29.2	4.710	-0.040	-1.630	-1.510
2020/01/31 21:29:29.3	4.740	-0.040	-1.550	-1.530
2020/01/31 21:29:29.4	4.780	-0.050	-1.470	-1.550
2020/01/31 21:29:29.5	4.810	-0.050	-1.380	-1.560
2020/01/31 21:29:29.6	4.840	-0.060	-1.290	-1.570
2020/01/31 21:29:29.7	4.880	-0.060	-1.190	-1.570
2020/01/31 21:29:29.8	4.910	-0.070	-1.090	-1.580
2020/01/31 21:29:29.9	4.950	-0.070	-0.990	-1.570
2020/01/31 21:29:30.0	4.980	-0.080	-0.890	-1.560
2020/01/31 21:29:30.1	5.020	-0.080	-0.780	-1.550
2020/01/31 21:29:30.2	5.050	-0.080	-0.670	-1.540
2020/01/31 21:29:30.3	5.080	-0.090	-0.560	-1.520
2020/01/31 21:29:30.4	5.110	-0.090	-0.450	-1.500
2020/01/31 21:29:30.5	5.140	-0.100	-0.340	-1.470
2020/01/31 21:29:30.6	5.160	-0.100	-0.230	-1.430
2020/01/31 21:29:30.7	5.180	-0.100	-0.120	-1.400
2020/01/31 21:29:30.8	5.200	-0.100	-0.020	-1.350
2020/01/31 21:29:30.9	5.210	-0.100	0.080	-1.310
2020/01/31 21:29:31.0	5.230	-0.100	0.190	-1.250
2020/01/31 21:29:31.1	5.240	-0.100	0.290	-1.200
2020/01/31 21:29:31.2	5.250	-0.100	0.380	-1.140
2020/01/31 21:29:31.3	5.250	-0.090	0.480	-1.070
2020/01/31 21:29:31.4	5.250	-0.090	0.570	-1.000
2020/01/31 21:29:31.5	5.250	-0.090	0.650	-0.920
2020/01/31 21:29:31.6	5.240	-0.080	0.730	-0.840
2020/01/31 21:29:31.7	5.230	-0.080	0.810	-0.760
2020/01/31 21:29:31.8	5.210	-0.070	0.880	-0.670
2020/01/31 21:29:31.9	5.190	-0.060	0.940	-0.570
2020/01/31 21:29:32.0	5.160	-0.050	0.990	-0.480
2020/01/31 21:29:32.1	5.130	-0.040	1.050	-0.380
2020/01/31 21:29:32.2	5.100	-0.040	1.090	-0.280
2020/01/31 21:29:32.3	5.060	-0.030	1.130	-0.190
2020/01/31 21:29:32.4	5.010	-0.010	1.160	-0.090
2020/01/31 21:29:32.5	4.970	-0.000	1.180	0.010
2020/01/31 21:29:32.6	4.920	0.010	1.200	0.110
2020/01/31 21:29:32.7	4.870	0.020	1.210	0.200
2020/01/31 21:29:32.8	4.810	0.030	1.210	0.290
2020/01/31 21:29:32.9	4.770	0.050	1.200	0.390
2020/01/31 21:29:33.0	4.710	0.060	1.180	0.470
2020/01/31 21:29:33.1	4.650	0.080	1.160	0.540
2020/01/31 21:29:33.2	4.600	0.090	1.120	0.610
2020/01/31 21:29:33.3	4.540	0.110	1.080	0.680
2020/01/31 21:29:33.4	4.480	0.130	1.030	0.730
2020/01/31 21:29:33.5	4.430	0.150	0.970	0.780
2020/01/31 21:29:33.6	4.370	0.160	0.910	0.820
2020/01/31 21:29:33.7	4.320	0.180	0.830	0.850
2020/01/31 21:29:33.8	4.280	0.200	0.750	0.880
2020/01/31 21:29:33.9	4.240	0.220	0.660	0.900
2020/01/31 21:29:34.0	4.200	0.240	0.560	0.900
2020/01/31 21:29:34.1	4.160	0.270	0.460	0.910
2020/01/31 21:29:34.2	4.120	0.290	0.350	0.900
2020/01/31 21:29:34.3	4.090	0.310	0.240	0.880
2020/01/31 21:29:34.4	4.060	0.330	0.120	0.860
2020/01/31 21:29:34.5	4.040	0.350	-0.010	0.830
2020/01/31 21:29:34.6	4.020	0.380	-0.130	0.800
2020/01/31 21:29:34.7	4.000	0.400	-0.260	0.760
2020/01/31 21:29:34.8	3.990	0.420	-0.390	0.710
2020/01/31 21:29:34.9	3.990	0.440	-0.520	0.650
2020/01/31 21:29:35.0	3.980	0.450	-0.650	0.590
2020/01/31 21:29:35.1	3.980	0.470	-0.770	0.530
2020/01/31 21:29:35.2	3.980	0.480	-0.900	0.450
2020/01/31 21:29:35.3	3.990	0.500	-1.020	0.380
2020/01/31 21:29:35.4	4.000	0.500	-1.140	0.300
2020/01/31 21:29:35.5	4.010	0.510	-1.250	0.210
2020/01/31 21:29:35.6	4.020	0.520	-1.350	0.120
2020/01/31 21:29:35.7	4.040	0.520	-1.450	0.030
2020/01/31 21:29:35.8	4.060	0.520	-1.540	-0.060
2020/01/31 21:29:35.9	4.080	0.510	-1.610	-0.160
2020/01/31 21:29:36.0	4.110	0.500	-1.680	-0.250
2020/01/31 21:29:36.1	4.140	0.490	-1.740	-0.350
2020/01/31 21:29:36.2	4.170	0.480	-1.790	-0.450
2020/01/31 21:29:36.3	4.200	0.460	-1.820	-0.540
2020/01/31 21:29:36.4	4.240	0.440	-1.850	-0.640
2020/01/31 21:29:36.5	4.280	0.410	-1.860	-0.740
2020/01/31 21:29:36.6	4.320	0.380	-1.860	-0.830
2020/01/31 21:29:36.7	4.360	0.350	-1.850	-0.920
2020/01/31 21:29:36.8	4.410	0.320	-1.830	-1.010
2020/01/31 21:29:36.9	4.460	0.280	-1.790	-1.100
2020/01/31 21:29:37.0	4.510	0.240	-1.750	-1.190
2020/01/31 21:29:37.1	4.560	0.200	-1.690	-1.270
2020/01/31 21:29:37.2	4.610	0.150	-1.620	-1.340
2020/01/31 21:29:37.3	4.660	0.110	-1.540	-1.410
2020/01/31 21:29:37.4	4.710	0.060	-1.450	-1.480
2020/01/31 21:29:37.5	4.760	0.010	-1.360	-1.540
2020/01/31 21:29:37.6	4.810	-0.040	-1.250	-1.600
2020/01/31 21:29:37.7	4.860	-0.090	-1.140	-1.650
2020/01/31 21:29:37.8	4.900	-0.140	-1.030	-1.690
2020/01/31 21:29:37.9	4.950	-0.190	-0.910	-1.720
2020/01/31 21:29:38.0	5.000	-0.240	-0.780	-1.750
2020/01/31 21:29:38.1	5.040	-0.290	-0.650	-1.780
2020/01/31 21:29:38.2	5.080	-0.340	-0.520	-1.790
2020/01/31 21:29:38.3	5.120	-0.390	-0.390	-1.800
2020/01/31 21:29:38.4	5.160	-0.440	-0.250	-1.800
2020/01/31 21:29:38.5	5.190	-0.480	-0.120	-1.790
2020/01/31 21:29:38.6	5.220	-0.520	0.010	-1.780
2020/01/31 21:29:38.7	5.250	-0.560	0.140	-1.750
2020/01/31 21:29:38.8	5.270	-0.600	0.270	-1.730
2020/01/31 21:29:38.9	5.290	-0.640	0.390	-1.690
2020/01/31 21:29:39.0	5.300	-0.670	0.510	-1.650
2020/01/31 21:29:39.1	5.310	-0.700	0.620	-1.600
2020/01/31 21:29:39.2	5.310	-0.730	0.720	-1.550
2020/01/31 21:29:39.3	5.310	-0.750	0.820	-1.490
2020/01/31 21:29:39.4	5.310	-0.770	0.910	-1.420
2020/01/31 21:29:39.5	5.300	-0.790	0.990	-1.350
2020/01/31 21:29:39.6	5.280	-0.800	1.060	-1.270
2020/01/31 21:29:39.7	5.260	-0.810	1.130	-1.190
2020/01/31 21:29:39.8	5.240	-0.810	1.180	-1.110
2020/01/31 21:29:39.9	5.210	-0.810	1.220	-1.020
2020/01/31 21:29:40.0	5.170	-0.810	1.260	-0.930
2020/01/31 21:29:40.1	5.140	-0.800	1.280	-0.840
2020/01/31 21:29:40.2	5.100	-0.790	1.300	-0.740
2020/01/31 21:29:40.3	5.050	-0.780	1.300	-0.650
2020/01/31 21:29:40.4	5.010	-0.760	1.290	-0.560
2020/01/31 21:29:40.5	4.960	-0.730	1.270	-0.470
2020/01/31 21:29:40.6	4.910	-0.710	1.250	-0.380
2020/01/31 21:29:40.7	4.860	-0.680	1.210	-0.290
2020/01/31 21:29:40.8	4.810	-0.640	1.160	-0.200
2020/01/31 21:29:40.9	4.760	-0.610	1.100	-0.110
2020/01/31 21:29:41.0	4.710	-0.570	1.030	-0.030
2020/01/31 21:29:41.1	4.660	-0.520	0.950	0.050
2020/01/31 21:29:41.2	4.610	-0.480	0.870	0.120
2020/01/31 21:29:41.3	4.560	-0.430	0.780	0.200
2020/01/31 21:29:41.4	4.510	-0.370	0.680	0.260
2020/01/31 21:29:41.5	4.460	-0.320	0.570	0.330
2020/01/31 21:29:41.6	4.410	-0.260	0.460	0.390
2020/01/31 21:29:41.7	4.360	-0.210	0.340	0.440
2020/01/31 21:29:41.8	4.310	-0.150	0.220	0.490
2020/01/31 21:29:41.9	4.270	-0.080	0.100	0.540
2020/01/31 21:29:42.0	4.230	-0.020	-0.020	0.580
2020/01/31 21:29:42.1	4.190	0.040	-0.150	0.610
2020/01/31 21:29:42.2	4.150	0.100	-0.280	0.640
2020/01/31 21:29:42.3	4.120	0.170	-0.400	0.660
2020/01/31 21:29:42.4	4.090	0.230	-0.530	0.670
2020/01/31 21:29:42.5	4.070	0.290	-0.650	0.680
2020/01/31 21:29:42.6	4.050	0.350	-0.770	0.690
2020/01/31 21:29:42.7	4.030	0.410	-0.890	0.680
2020/01/31 21:29:42.8	4.020	0.470	-1.000	0.670
2020/01/31 21:29:42.9	4.010	0.520	-1.100	0.660
2020/01/31 21:29:43.0	4.000	0.570	-1.200	0.640
2020/01/31 21:29:43.1	4.000	0.620	-1.300	0.610
2020/01/31 21:29:43.2	4.010	0.670	-1.380	0.580
2020/01/31 21:29:43.3	4.010	0.710	-1.460	0.540
2020/01/31 21:29:43.4	4.020	0.750	-1.520	0.500
2020/01/31 21:29:43.5	4.030	0.780	-1.580	0.450
2020/01/31 21:29:43.6	4.050	0.810	-1.630	0.400
2020/01/31 21:29:43.7	4.060	0.830	-1.660	0.350
2020/01/31 21:29:43.8	4.090	0.850	-1.690	0.290
2020/01/31 21:29:43.9	4.110	0.860	-1.700	0.230
2020/01/31 21:29:44.0	4.140	0.870	-1.710	0.160
2020/01/31 21:29:44.1	4.160	0.870	-1.700	0.100
2020/01/31 21:29:44.2	4.190	0.870	-1.680	0.030
2020/01/31 21:29:44.3	4.220	0.860	-1.660	-0.030
2020/01/31 21:29:44.4	4.250	0.840	-1.620	-0.100
2020/01/31 21:29:44.5	4.290	0.820	-1.570	-0.160
2020/01/31 21:29:44.6	4.320	0.790	-1.510	-0.230
2020/01/31 21:29:44.7	4.350	0.760	-1.440	-0.290
2020/01/31 21:29:44.8	4.380	0.720	-1.360	-0.350
2020/01/31 21:29:44.9	4.420	0.680	-1.280	-0.410
2020/01/31 21:29:45.0	4.450	0.630	-1.190	-0.460
2020/01/31 21:29:45.1	4.490	0.580	-1.090	-0.520
2020/01/31 21:29:45.2	4.520	0.530	-0.990	-0.570
2020/01/31 21:29:45.3	4.550	0.470	-0.880	-0.620
2020/01/31 21:29:45.4	4.580	0.410	-0.760	-0.670
2020/01/31 21:29:45.5	4.610	0.350	-0.650	-0.710
2020/01/31 21:29:45.6	4.640	0.280	-0.530	-0.750
2020/01/31 21:29:45.7	4.670	0.220	-0.420	-0.790
2020/01/31 21:29:45.8	4.690	0.150	-0.300	-0.820
2020/01/31 21:29:45.9	4.720	0.090	-0.180	-0.850
2020/01/31 21:29:46.0	4.740	0.020	-0.070	-0.870
2020/01/31 21:29:46.1	4.760	-0.050	0.040	-0.890
2020/01/31 21:29:46.2	4.780	-0.110	0.150	-0.900
2020/01/31 21:29:46.3	4.790	-0.170	0.250	-0.910
2020/01/31 21:29:46.4	4.800	-0.230	0.350	-0.920
2020/01/31 21:29:46.5	4.810	-0.290	0.440	-0.910
2020/01/31 21:29:46.6	4.820	-0.340	0.520	-0.910
2020/01/31 21:29:46.7	4.820	-0.390	0.600	-0.900
2020/01/31 21:29:46.8	4.830	-0.430	0.670	-0.890
2020/01/31 21:29:46.9	4.830	-0.470	0.720	-0.870
2020/01/31 21:29:47.0	4.830	-0.510	0.780	-0.850
2020/01/31 21:29:47.1	4.820	-0.540	0.820	-0.830
2020/01/31 21:29:47.2	4.810	-0.560	0.850	-0.810
2020/01/31 21:29:47.3	4.800	-0.580	0.880	-0.790
2020/01/31 21:29:47.4	4.790	-0.600	0.900	-0.760
2020/01/31 21:29:47.5	4.780	-0.610	0.900	-0.730
2020/01/31 21:29:47.6	4.760	-0.610	0.900	-0.700
2020/01/31 21:29:47.7	4.750	-0.610	0.890	-0.670
2020/01/31 21:29:47.8	4.730	-0.610	0.870	-0.640
2020/01/31 21:29:47.9	4.700	-0.590	0.840	-0.610
2020/01/31 21:29:48.0	4.680	-0.580	0.810	-0.580
2020/01/31 21:29:48.1	4.660	-0.560	0.760	-0.550
2020/01/31 21:29:48.2	4.640	-0.530	0.710	-0.510
2020/01/31 21:29:48.3	4.620	-0.500	0.660	-0.480
2020/01/31 21:29:48.4	4.600	-0.470	0.590	-0.450
2020/01/31 21:29:48.5	4.580	-0.430	0.530	-0.420
2020/01/31 21:29:48.6	4.560	-0.390	0.450	-0.380
2020/01/31 21:29:48.7	4.540	-0.350	0.380	-0.350
2020/01/31 21:29:48.8	4.520	-0.310	0.300	-0.320
2020/01/31 21:29:48.9	4.500	-0.260	0.220	-0.290
2020/01/31 21:29:49.0	4.480	-0.220	0.140	-0.260
2020/01/31 21:29:49.1	4.460	-0.170	0.060	-0.230
2020/01/31 21:29:49.2	4.440	-0.130	-0.030	-0.210
2020/01/31 21:29:49.3	4.430	-0.080	-0.110	-0.180
2020/01/31 21:29:49.4	4.420	-0.040	-0.190	-0.160
2020/01/31 21:29:49.5	4.400	0.000	-0.270	-0.130
2020/01/31 21:29:49.6	4.390	0.040	-0.350	-0.120
2020/01/31 21:29:49.7	4.380	0.080	-0.420	-0.100
2020/01/31 21:29:49.8	4.370	0.110	-0.490	-0.080
2020/01/31 21:29:49.9	4.360	0.140	-0.560	-0.070
2020/01/31 21:29:50.0	4.360	0.170	-0.620	-0.060
2020/01/31 21:29:50.1	4.350	0.190	-0.670	-0.060
2020/01/31 21:29:50.2	4.350	0.210	-0.720	-0.050
2020/01/31 21:29:50.3	4.350	0.230	-0.760	-0.050
2020/01/31 21:29:50.4	4.350	0.240	-0.800	-0.060
2020/01/31 21:29:50.5	4.350	0.250	-0.830	-0.070
2020/01/31 21:29:50.6	4.350	0.250	-0.850	-0.070
2020/01/31 21:29:50.7	4.360	0.250	-0.870	-0.090
2020/01/31 21:29:50.8	4.360	0.250	-0.880	-0.100
2020/01/31 21:29:50.9	4.370	0.240	-0.880	-0.120
2020/01/31 21:29:51.0	4.380	0.230	-0.880	-0.130
2020/01/31 21:29:51.1	4.390	0.220	-0.870	-0.150
2020/01/31 21:29:51.2	4.400	0.200	-0.860	-0.180
2020/01/31 21:29:51.3	4.410	0.180	-0.840	-0.200
2020/01/31 21:29:51.4	4.430	0.160	-0.810	-0.220
2020/01/31 21:29:51.5	4.440	0.140	-0.780	-0.250
2020/01/31 21:29:51.6	4.450	0.110	-0.750	-0.270
2020/01/31 21:29:51.7	4.470	0.090	-0.710	-0.300
2020/01/31 21:29:51.8	4.480	0.060	-0.680	-0.320
2020/01/31 21:29:51.9	4.480	0.040	-0.640	-0.350
2020/01/31 21:29:52.0	4.500	0.010	-0.590	-0.370
2020/01/31 21:29:52.1	4.510	-0.010	-0.550	-0.400
2020/01/31 21:29:52.2	4.530	-0.040	-0.500	-0.420
2020/01/31 21:29:52.3	4.540	-0.060	-0.460	-0.450
2020/01/31 21:29:52.4	4.560	-0.080	-0.410	-0.470
2020/01/31 21:29:52.5	4.570	-0.100	-0.370	-0.490
2020/01/31 21:29:52.6	4.590	-0.120	-0.320	-0.500
2020/01/31 21:29:52.7	4.600	-0.130	-0.280	-0.520
2020/01/31 21:29:52.8	4.610	-0.140	-0.240	-0.530
2020/01/31 21:29:52.9	4.620	-0.150	-0.200	-0.540
2020/01/31 21:29:53.0	4.630	-0.150	-0.160	-0.550
2020/01/31 21:29:53.1	4.640	-0.150	-0.130	-0.550
2020/01/31 21:29:53.2	4.640	-0.150	-0.100	-0.550
2020/01/31 21:29:53.3	4.650	-0.140	-0.070	-0.550
2020/01/31 21:29:53.4	4.650	-0.140	-0.050	-0.540
2020/01/31 21:29:53.5	4.650	-0.120	-0.020	-0.530
2020/01/31 21:29:53.6	4.650	-0.110	-0.010	-0.520
2020/01/31 21:29:53.7	4.640	-0.090	0.010	-0.510
2020/01/31 21:29:53.8	4.640	-0.070	0.020	-0.490
2020/01/31 21:29:53.9	4.630	-0.050	0.020	-0.470
2020/01/31 21:29:54.0	4.630	-0.030	0.030	-0.450
2020/01/31 21:29:54.1	4.620	-0.000	0.020	-0.430
2020/01/31 21:29:54.2	4.620	0.030	0.020	-0.420
2020/01/31 21:29:54.3	4.620	0.050	0.010	-0.400
2020/01/31 21:29:54.4	4.610	0.080	-0.010	-0.380
2020/01/31 21:29:54.5	4.610	0.110	-0.030	-0.360
2020/01/31 21:29:54.6	4.610	0.140	-0.050	-0.350
2020/01/31 21:29:54.7	4.610	0.170	-0.080	-0.340
2020/01/31 21:29:54.8	4.610	0.200	-0.110	-0.330
2020/01/31 21:29:54.9	4.610	0.230	-0.140	-0.310
2020/01/31 21:29:55.0	4.620	0.250	-0.170	-0.310
2020/01/31 21:29:55.1	4.620	0.280	-0.210	-0.300
2020/01/31 21:29:55.2	4.630	0.300	-0.240	-0.300
2020/01/31 21:29:55.3	4.640	0.320	-0.280	-0.300
2020/01/31 21:29:55.4	4.650	0.340	-0.320	-0.300
2020/01/31 21:29:55.5	4.660	0.350	-0.360	-0.300
2020/01/31 21:29:55.6	4.670	0.370	-0.400	-0.310
2020/01/31 21:29:55.7	4.680	0.380	-0.430	-0.310
2020/01/31 21:29:55.8	4.700	0.390	-0.470	-0.320
2020/01/31 21:29:55.9	4.710	0.390	-0.500	-0.330
2020/01/31 21:29:56.0	4.730	0.390	-0.530	-0.330
2020/01/31 21:29:56.1	4.750	0.390	-0.560	-0.340
2020/01/31 21:29:56.2	4.770	0.380	-0.580	-0.350
2020/01/31 21:29:56.3	4.790	0.370	-0.600	-0.360
2020/01/31 21:29:56.4	4.810	0.360	-0.610	-0.370
2020/01/31 21:29:56.5	4.830	0.340	-0.620	-0.380
2020/01/31 21:29:56.6	4.850	0.330	-0.630	-0.390
2020/01/31 21:29:56.7	4.870	0.300	-0.630	-0.410
2020/01/31 21:29:56.8	4.900	0.280	-0.620	-0.420
2020/01/31 21:29:56.9	4.920	0.250	-0.610	-0.430
2020/01/31 21:29:57.0	4.940	0.220	-0.590	-0.440
2020/01/31 21:29:57.1	4.970	0.190	-0.570	-0.460
2020/01/31 21:29:57.2	4.990	0.160	-0.550	-0.470
2020/01/31 21:29:57.3	5.010	0.120	-0.520	-0.480
2020/01/31 21:29:57.4	5.040	0.090	-0.480	-0.490
2020/01/31 21:29:57.5	5.060	0.050	-0.450	-0.500
2020/01/31 21:29:57.6	5.080	0.010	-0.410	-0.510
2020/01/31 21:29:57.7	5.090	-0.020	-0.360	-0.520
2020/01/31 21:29:57.8	5.110	-0.060	-0.310	-0.530
2020/01/31 21:29:57.9	5.120	-0.100	-0.270	-0.530
2020/01/31 21:29:58.0	5.130	-0.130	-0.220	-0.530
2020/01/31 21:29:58.1	5.140	-0.170	-0.160	-0.530
2020/01/31 21:29:58.2	5.150	-0.200	-0.110	-0.520
2020/01/31 21:29:58.3	5.150	-0.230	-0.060	-0.520
2020/01/31 21:29:58.4	5.150	-0.260	-0.010	-0.510
2020/01/31 21:29:58.5	5.150	-0.290	0.040	-0.490
2020/01/31 21:29:58.6	5.140	-0.310	0.090	-0.480
2020/01/31 21:29:58.7	5.140	-0.330	0.140	-0.460
2020/01/31 21:29:58.8	5.120	-0.350	0.180	-0.440
2020/01/31 21:29:58.9	5.120	-0.370	0.220	-0.420
2020/01/31 21:29:59.0	5.100	-0.380	0.250	-0.400
2020/01/31 21:29:59.1	5.080	-0.400	0.280	-0.380
2020/01/31 21:29:59.2	5.060	-0.400	0.310	-0.360
2020/01/31 21:29:59.3	5.040	-0.410	0.330	-0.340
2020/01/31 21:29:59.4	5.020	-0.410	0.350	-0.320
2020/01/31 21:29:59.5	5.000	-0.410	0.360	-0.300
2020/01/31 21:29:59.6	4.970	-0.410	0.370	-0.290
2020/01/31 21:29:59.7	4.940	-0.400	0.370	-0.270
2020/01/31 21:29:59.8	4.920	-0.390	0.370	-0.250
2020/01/31 21:29:59.9	4.900	-0.380	0.360	-0.240
2020/01/31 21:30:00.0	4.880	-0.370	0.340	-0.230
2020/01/31 21:30:00.1	4.850	-0.350	0.330	-0.220
2020/01/31 21:30:00.2	4.820	-0.330	0.300	-0.210
2020/01/31 21:30:00.3	4.800	-0.310	0.280	-0.200
2020/01/31 21:30:00.4	4.770	-0.290	0.250	-0.200
2020/01/31 21:30:00.5	4.750	-0.270	0.210	-0.190
2020/01/31 21:30:00.6	4.730	-0.250	0.180	-0.190
2020/01/31 21:30:00.7	4.710	-0.220	0.140	-0.190
2020/01/31 21:30:00.8	4.690	-0.190	0.090	-0.190
2020/01/31 21:30:00.9	4.660	-0.170	0.050	-0.200
2020/01/31 21:30:01.0	4.650	-0.140	0.000	-0.200
2020/01/31 21:30:01.1	4.640	-0.110	-0.040	-0.210
2020/01/31 21:30:01.2	4.630	-0.090	-0.090	-0.220
2020/01/31 21:30:01.3	4.630	-0.060	-0.140	-0.230
2020/01/31 21:30:01.4	4.630	-0.040	-0.190	-0.250
2020/01/31 21:30:01.5	4.630	-0.010	-0.240	-0.270
2020/01/31 21:30:01.6	4.630	0.020	-0.290	-0.280
2020/01/31 21:30:01.7	4.640	0.040	-0.340	-0.310
2020/01/31 21:30:01.8	4.650	0.060	-0.380	-0.330
2020/01/31 21:30:01.9	4.670	0.080	-0.430	-0.360
2020/01/31 21:30:02.0	4.680	0.100	-0.470	-0.380
2020/01/31 21:30:02.1	4.700	0.120	-0.510	-0.410
2020/01/31 21:30:02.2	4.720	0.140	-0.550	-0.440
2020/01/31 21:30:02.3	4.740	0.150	-0.590	-0.470
2020/01/31 21:30:02.4	4.760	0.170	-0.620	-0.500
2020/01/31 21:30:02.5	4.770	0.180	-0.650	-0.520
2020/01/31 21:30:02.6	4.790	0.190	-0.670	-0.550
2020/01/31 21:30:02.7	4.810	0.190	-0.690	-0.570
2020/01/31 21:30:02.8	4.830	0.200	-0.710	-0.600
2020/01/31 21:30:02.9	4.840	0.200	-0.720	-0.620
2020/01/31 21:30:03.0	4.860	0.210	-0.720	-0.630
2020/01/31 21:30:03.1	4.870	0.210	-0.730	-0.650
2020/01/31 21:30:03.2	4.880	0.200	-0.730	-0.660
2020/01/31 21:30:03.3	4.890	0.200	-0.720	-0.660
2020/01/31 21:30:03.4	4.890	0.200	-0.710	-0.670
2020/01/31 21:30:03.5	4.900	0.190	-0.700	-0.670
2020/01/31 21:30:03.6	4.900	0.190	-0.680	-0.660
2020/01/31 21:30:03.7	4.900	0.180	-0.660	-0.660
2020/01/31 21:30:03.8	4.900	0.170	-0.640	-0.650
2020/01/31 21:30:03.9	4.890	0.160	-0.620	-0.630
2020/01/31 21:30:04.0	4.890	0.160	-0.590	-0.620
2020/01/31 21:30:04.1	4.880	0.150	-0.560	-0.600
2020/01/31 21:30:04.2	4.880	0.140	-0.530	-0.580
2020/01/31 21:30:04.3	4.870	0.130	-0.500	-0.560
2020/01/31 21:30:04.4	4.860	0.120	-0.470	-0.540
2020/01/31 21:30:04.5	4.850	0.110	-0.450	-0.520
2020/01/31 21:30:04.6	4.850	0.100	-0.420	-0.500
2020/01/31 21:30:04.7	4.840	0.100	-0.390	-0.480
2020/01/31 21:30:04.8	4.840	0.090	-0.370	-0.470
2020/01/31 21:30:04.9	4.820	0.080	-0.340	-0.450
2020/01/31 21:30:05.0	4.810	0.080	-0.320	-0.430
2020/01/31 21:30:05.1	4.810	0.070	-0.300	-0.420
2020/01/31 21:30:05.2	4.810	0.070	-0.280	-0.410
2020/01/31 21:30:05.3	4.820	0.060	-0.270	-0.400
2020/01/31 21:30:05.4	4.820	0.060	-0.260	-0.400
2020/01/31 21:30:05.5	4.830	0.060	-0.250	-0.390
2020/01/31 21:30:05.6	4.830	0.060	-0.240	-0.390
2020/01/31 21:30:05.7	4.840	0.050	-0.240	-0.390
2020/01/31 21:30:05.8	4.860	0.050	-0.240	-0.400
2020/01/31 21:30:05.9	4.870	0.050	-0.240	-0.400
2020/01/31 21:30:06.0	4.880	0.050	-0.240	-0.410
2020/01/31 21:30:06.1	4.900	0.050	-0.240	-0.410
2020/01/31 21:30:06.2	4.910	0.050	-0.250	-0.420
2020/01/31 21:30:06.3	4.930	0.050	-0.250	-0.430
2020/01/31 21:30:06.4	4.950	0.050	-0.260	-0.440
2020/01/31 21:30:06.5	4.970	0.050	-0.270	-0.450
2020/01/31 21:30:06.6	4.980	0.050	-0.270	-0.460
2020/01/31 21:30:06.7	5.000	0.050	-0.280	-0.470
2020/01/31 21:30:06.8	5.020	0.050	-0.290	-0.490
2020/01/31 21:30:06.9	5.050	0.040	-0.290	-0.500
2020/01/31 21:30:07.0	5.070	0.040	-0.290	-0.510
2020/01/31 21:30:07.1	5.090	0.030	-0.300	-0.530
2020/01/31 21:30:07.2	5.110	0.030	-0.300	-0.540
2020/01/31 21:30:07.3	5.130	0.020	-0.300	-0.560
2020/01/31 21:30:07.4	5.150	0.010	-0.300	-0.570
2020/01/31 21:30:07.5	5.170	-0.000	-0.290	-0.590
2020/01/31 21:30:07.6	5.190	-0.020	-0.290	-0.600
2020/01/31 21:30:07.7	5.200	-0.030	-0.280	-0.620
2020/01/31 21:30:07.8	5.220	-0.050	-0.270	-0.630
2020/01/31 21:30:07.9	5.220	-0.060	-0.260	-0.650
2020/01/31 21:30:08.0	5.230	-0.080	-0.240	-0.660
2020/01/31 21:30:08.1	5.240	-0.100	-0.230	-0.670
2020/01/31 21:30:08.2	5.250	-0.120	-0.210	-0.680
2020/01/31 21:30:08.3	5.260	-0.140	-0.200	-0.690
2020/01/31 21:30:08.4	5.260	-0.160	-0.180	-0.700
2020/01/31 21:30:08.5	5.260	-0.180	-0.160	-0.710
2020/01/31 21:30:08.6	5.260	-0.200	-0.140	-0.720
2020/01/31 21:30:08.7	5.260	-0.220	-0.130	-0.720
2020/01/31 21:30:08.8	5.260	-0.240	-0.110	-0.720
2020/01/31 21:30:08.9	5.250	-0.250	-0.090	-0.720
2020/01/31 21:30:09.0	5.240	-0.270	-0.080	-0.720
2020/01/31 21:30:09.1	5.230	-0.280	-0.060	-0.720
2020/01/31 21:30:09.2	5.220	-0.300	-0.050	-0.720
2020/01/31 21:30:09.3	5.210	-0.310	-0.040	-0.710
2020/01/31 21:30:09.4	5.200	-0.320	-0.030	-0.710
2020/01/31 21:30:09.5	5.180	-0.320	-0.020	-0.700
2020/01/31 21:30:09.6	5.170	-0.330	-0.020	-0.690
2020/01/31 21:30:09.7	5.150	-0.320	-0.020	-0.680
2020/01/31 21:30:09.8	5.140	-0.320	-0.020	-0.660
2020/01/31 21:30:09.9	5.120	-0.310	-0.020	-0.650
2020/01/31 21:30:10.0	5.100	-0.300	-0.030	-0.630
2020/01/31 21:30:10.1	5.090	-0.290	-0.030	-0.610
2020/01/31 21:30:10.2	5.070	-0.270	-0.040	-0.590
2020/01/31 21:30:10.3	5.050	-0.250	-0.050	-0.570
2020/01/31 21:30:10.4	5.040	-0.220	-0.060	-0.540
2020/01/31 21:30:10.5	5.020	-0.200	-0.070	-0.520
2020/01/31 21:30:10.6	5.010	-0.160	-0.090	-0.490
2020/01/31 21:30:10.7	4.990	-0.130	-0.100	-0.470
2020/01/31 21:30:10.8	4.980	-0.090	-0.120	-0.440
2020/01/31 21:30:10.9	4.980	-0.050	-0.130	-0.420
2020/01/31 21:30:11.0	4.970	-0.010	-0.140	-0.390
2020/01/31 21:30:11.1	4.960	0.040	-0.160	-0.370
2020/01/31 21:30:11.2	4.950	0.080	-0.170	-0.340
2020/01/31 21:30:11.3	4.940	0.130	-0.180	-0.320
2020/01/31 21:30:11.4	4.930	0.170	-0.200	-0.290
2020/01/31 21:30:11.5	4.920	0.220	-0.210	-0.270
2020/01/31 21:30:11.6	4.910	0.260	-0.220	-0.250
2020/01/31 21:30:11.7	4.900	0.310	-0.230	-0.220
2020/01/31 21:30:11.8	4.890	0.350	-0.240	-0.200
2020/01/31 21:30:11.9	4.890	0.390	-0.240	-0.180
2020/01/31 21:30:12.0	4.880	0.430	-0.250	-0.160
2020/01/31 21:30:12.1	4.870	0.460	-0.250	-0.140
2020/01/31 21:30:12.2	4.860	0.490	-0.250	-0.120
2020/01/31 21:30:12.3	4.850	0.510	-0.250	-0.100
2020/01/31 21:30:12.4	4.840	0.530	-0.250	-0.080
2020/01/31 21:30:12.5	4.840	0.550	-0.250	-0.060
2020/01/31 21:30:12.6	4.830	0.560	-0.240	-0.050
2020/01/31 21:30:12.7	4.810	0.560	-0.240	-0.040
2020/01/31 21:30:12.8	4.800	0.560	-0.230	-0.020
2020/01/31 21:30:12.9	4.790	0.560	-0.220	-0.010
2020/01/31 21:30:13.0	4.780	0.550	-0.220	-0.000
2020/01/31 21:30:13.1	4.770	0.530	-0.210	0.000
2020/01/31 21:30:13.2	4.750	0.500	-0.200	0.010
2020/01/31 21:30:13.3	4.740	0.480	-0.190	0.010
2020/01/31 21:30:13.4	4.730	0.440	-0.180	0.000
2020/01/31 21:30:13.5	4.710	0.410	-0.170	-0.000
2020/01/31 21:30:13.6	4.700	0.360	-0.160	-0.010
2020/01/31 21:30:13.7	4.690	0.320	-0.150	-0.020
2020/01/31 21:30:13.8	4.680	0.270	-0.140	-0.040
2020/01/31 21:30:13.9	4.660	0.210	-0.130	-0.060
2020/01/31 21:30:14.0	4.650	0.160	-0.120	-0.080
2020/01/31 21:30:14.1	4.640	0.100	-0.120	-0.100
2020/01/31 21:30:14.2	4.630	0.040	-0.110	-0.130
2020/01/31 21:30:14.3	4.620	-0.020	-0.110	-0.160
2020/01/31 21:30:14.4	4.620	-0.080	-0.110	-0.190
2020/01/31 21:30:14.5	4.610	-0.130	-0.110	-0.230
2020/01/31 21:30:14.6	4.610	-0.190	-0.110	-0.260
2020/01/31 21:30:14.7	4.610	-0.250	-0.110	-0.300
2020/01/31 21:30:14.8	4.600	-0.300	-0.120	-0.350
2020/01/31 21:30:14.9	4.610	-0.350	-0.130	-0.390
2020/01/31 21:30:15.0	4.610	-0.400	-0.140	-0.440
2020/01/31 21:30:15.1	4.620	-0.440	-0.150	-0.480
2020/01/31 21:30:15.2	4.620	-0.470	-0.170	-0.520
2020/01/31 21:30:15.3	4.630	-0.510	-0.190	-0.560
2020/01/31 21:30:15.4	4.640	-0.530	-0.210	-0.610
2020/01/31 21:30:15.5	4.650	-0.550	-0.230	-0.650
2020/01/31 21:30:15.6	4.660	-0.570	-0.250	-0.680
2020/01/31 21:30:15.7	4.670	-0.580	-0.280	-0.720
2020/01/31 21:30:15.8	4.690	-0.580	-0.310	-0.750
2020/01/31 21:30:15.9	4.710	-0.580	-0.340	-0.780
2020/01/31 21:30:16.0	4.720	-0.570	-0.370	-0.810
2020/01/31 21:30:16.1	4.740	-0.560	-0.400	-0.830
2020/01/31 21:30:16.2	4.750	-0.540	-0.430	-0.860
2020/01/31 21:30:16.3	4.760	-0.520	-0.460	-0.870
2020/01/31 21:30:16.4	4.770	-0.490	-0.490	-0.890
2020/01/31 21:30:16.5	4.770	-0.460	-0.520	-0.900
2020/01/31 21:30:16.6	4.780	-0.430	-0.550	-0.910
2020/01/31 21:30:16.7	4.790	-0.390	-0.580	-0.910
2020/01/31 21:30:16.8	4.790	-0.350	-0.600	-0.910
2020/01/31 21:30:16.9	4.810	-0.310	-0.630	-0.910
2020/01/31 21:30:17.0	4.810	-0.270	-0.650	-0.910
2020/01/31 21:30:17.1	4.820	-0.220	-0.660	-0.900
2020/01/31 21:30:17.2	4.820	-0.180	-0.680	-0.890
2020/01/31 21:30:17.3	4.820	-0.130	-0.690	-0.880
2020/01/31 21:30:17.4	4.830	-0.090	-0.700	-0.860
2020/01/31 21:30:17.5	4.830	-0.040	-0.700	-0.840
2020/01/31 21:30:17.6	4.830	-0.000	-0.700	-0.820
2020/01/31 21:30:17.7	4.830	0.040	-0.690	-0.790
2020/01/31 21:30:17.8	4.830	0.080	-0.680	-0.760
2020/01/31 21:30:17.9	4.820	0.120	-0.670	-0.730
2020/01/31 21:30:18.0	4.820	0.150	-0.660	-0.690
2020/01/31 21:30:18.1	4.820	0.180	-0.640	-0.660
2020/01/31 21:30:18.2	4.820	0.210	-0.610	-0.620
2020/01/31 21:30:18.3	4.810	0.230	-0.580	-0.580
2020/01/31 21:30:18.4	4.810	0.260	-0.550	-0.530
2020/01/31 21:30:18.5	4.810	0.280	-0.520	-0.480
2020/01/31 21:30:18.6	4.810	0.290	-0.480	-0.440
2020/01/31 21:30:18.7	4.810	0.300	-0.440	-0.390
2020/01/31 21:30:18.8	4.810	0.310	-0.400	-0.340
2020/01/31 21:30:18.9	4.820	0.320	-0.360	-0.280
2020/01/31 21:30:19.0	4.820	0.320	-0.310	-0.230
2020/01/31 21:30:19.1	4.820	0.320	-0.270	-0.180
2020/01/31 21:30:19.2	4.820	0.320	-0.230	-0.140
2020/01/31 21:30:19.3	4.830	0.310	-0.190	-0.100
2020/01/31 21:30:19.4	4.830	0.300	-0.150	-0.060
2020/01/31 21:30:19.5	4.840	0.290	-0.120	-0.020
2020/01/31 21:30:19.6	4.850	0.280	-0.090	0.010
2020/01/31 21:30:19.7	4.860	0.260	-0.060	0.040
2020/01/31 21:30:19.8	4.870	0.240	-0.040	0.060
2020/01/31 21:30:19.9	4.880	0.230	-0.020	0.080
2020/01/31 21:30:20.0	4.890	0.210	-0.000	0.100
2020/01/31 21:30:20.1	4.900	0.190	0.010	0.110
2020/01/31 21:30:20.2	4.920	0.170	0.020	0.120
2020/01/31 21:30:20.3	4.930	0.140	0.030	0.120
2020/01/31 21:30:20.4	4.940	0.120	0.030	0.120
2020/01/31 21:30:20.5	4.950	0.100	0.030	0.120
2020/01/31 21:30:20.6	4.960	0.080	0.030	0.120
2020/01/31 21:30:20.7	4.970	0.050	0.020	0.120
2020/01/31 21:30:20.8	4.980	0.030	0.020	0.110
2020/01/31 21:30:20.9	4.980	0.010	0.010	0.100
2020/01/31 21:30:21.0	4.980	-0.020	-0.000	0.090
2020/01/31 21:30:21.1	4.980	-0.040	-0.010	0.090
2020/01/31 21:30:21.2	4.980	-0.060	-0.020	0.080
2020/01/31 21:30:21.3	4.970	-0.080	-0.030	0.060
2020/01/31 21:30:21.4	4.970	-0.100	-0.050	0.050
2020/01/31 21:30:21.5	4.960	-0.120	-0.060	0.040
2020/01/31 21:30:21.6	4.960	-0.140	-0.070	0.030
2020/01/31 21:30:21.7	4.950	-0.160	-0.090	0.010
2020/01/31 21:30:21.8	4.940	-0.180	-0.100	-0.000
2020/01/31 21:30:21.9	4.920	-0.190	-0.110	-0.020
2020/01/31 21:30:22.0	4.910	-0.200	-0.120	-0.030
2020/01/31 21:30:22.1	4.900	-0.220	-0.130	-0.050
2020/01/31 21:30:22.2	4.880	-0.230	-0.140	-0.060
2020/01/31 21:30:22.3	4.860	-0.240	-0.150	-0.080
2020/01/31 21:30:22.4	4.850	-0.240	-0.160	-0.090
2020/01/31 21:30:22.5	4.830	-0.250	-0.170	-0.110
2020/01/31 21:30:22.6	4.820	-0.250	-0.180	-0.120
2020/01/31 21:30:22.7	4.800	-0.250	-0.190	-0.140
2020/01/31 21:30:22.8	4.780	-0.250	-0.190	-0.150
2020/01/31 21:30:22.9	4.780	-0.250	-0.210	-0.170
2020/01/31 21:30:23.0	4.770	-0.250	-0.210	-0.180
2020/01/31 21:30:23.1	4.750	-0.240	-0.220	-0.200
2020/01/31 21:30:23.2	4.740	-0.230	-0.220	-0.210
2020/01/31 21:30:23.3	4.730	-0.220	-0.220	-0.230
2020/01/31 21:30:23.4	4.720	-0.210	-0.220	-0.240
2020/01/31 21:30:23.5	4.710	-0.200	-0.220	-0.260
2020/01/31 21:30:23.6	4.700	-0.190	-0.220	-0.270
2020/01/31 21:30:23.7	4.700	-0.170	-0.220	-0.280
2020/01/31 21:30:23.8	4.690	-0.160	-0.210	-0.290
2020/01/31 21:30:23.9	4.690	-0.140	-0.210	-0.300
2020/01/31 21:30:24.0	4.680	-0.120	-0.200	-0.310
2020/01/31 21:30:24.1	4.680	-0.100	-0.190	-0.320
2020/01/31 21:30:24.2	4.680	-0.080	-0.180	-0.320
2020/01/31 21:30:24.3	4.680	-0.060	-0.170	-0.320
2020/01/31 21:30:24.4	4.680	-0.040	-0.150	-0.320
2020/01/31 21:30:24.5	4.680	-0.020	-0.140	-0.320
2020/01/31 21:30:24.6	4.670	-0.010	-0.120	-0.320
2020/01/31 21:30:24.7	4.670	0.010	-0.100	-0.310
2020/01/31 21:30:24.8	4.670	0.030	-0.080	-0.310
2020/01/31 21:30:24.9	4.650	0.040	-0.060	-0.300
2020/01/31 21:30:25.0	4.650	0.060	-0.040	-0.290
2020/01/31 21:30:25.1	4.640	0.070	-0.020	-0.280
2020/01/31 21:30:25.2	4.640	0.080	-0.000	-0.270
2020/01/31 21:30:25.3	4.630	0.090	0.020	-0.260
2020/01/31 21:30:25.4	4.620	0.100	0.030	-0.250
2020/01/31 21:30:25.5	4.610	0.100	0.050	-0.240
2020/01/31 21:30:25.6	4.600	0.100	0.060	-0.230
2020/01/31 21:30:25.7	4.580	0.110	0.070	-0.210
2020/01/31 21:30:25.8	4.570	0.110	0.080	-0.200
2020/01/31 21:30:25.9	4.550	0.110	0.080	-0.190
2020/01/31 21:30:26.0	4.540	0.110	0.080	-0.180
2020/01/31 21:30:26.1	4.520	0.100	0.070	-0.170
2020/01/31 21:30:26.2	4.510	0.100	0.060	-0.160
2020/01/31 21:30:26.3	4.500	0.100	0.040	-0.150
2020/01/31 21:30:26.4	4.480	0.090	0.020	-0.140
2020/01/31 21:30:26.5	4.470	0.090	-0.010	-0.140
2020/01/31 21:30:26.6	4.460	0.080	-0.040	-0.140
2020/01/31 21:30:26.7	4.450	0.080	-0.080	-0.140
2020/01/31 21:30:26.8	4.440	0.080	-0.120	-0.140
2020/01/31 21:30:26.9	4.440	0.070	-0.170	-0.140
2020/01/31 21:30:27.0	4.430	0.070	-0.230	-0.140
2020/01/31 21:30:27.1	4.420	0.070	-0.280	-0.140
2020/01/31 21:30:27.2	4.420	0.070	-0.340	-0.150
2020/01/31 21:30:27.3	4.410	0.070	-0.400	-0.150
2020/01/31 21:30:27.4	4.400	0.080	-0.470	-0.160
2020/01/31 21:30:27.5	4.400	0.080	-0.530	-0.160
2020/01/31 21:30:27.6	4.390	0.090	-0.600	-0.170
2020/01/31 21:30:27.7	4.390	0.100	-0.670	-0.180
2020/01/31 21:30:27.8	4.390	0.110	-0.730	-0.180
2020/01/31 21:30:27.9	4.390	0.130	-0.790	-0.190
2020/01/31 21:30:28.0	4.380	0.140	-0.860	-0.190
2020/01/31 21:30:28.1	4.380	0.160	-0.910	-0.190
2020/01/31 21:30:28.2	4.380	0.180	-0.970	-0.200
2020/01/31 21:30:28.3	4.380	0.200	-1.020	-0.200
2020/01/31 21:30:28.4	4.380	0.220	-1.060	-0.200
2020/01/31 21:30:28.5	4.380	0.240	-1.100	-0.210
2020/01/31 21:30:28.6	4.380	0.270	-1.130	-0.210
2020/01/31 21:30:28.7	4.390	0.290	-1.160	-0.210
2020/01/31 21:30:28.8	4.390	0.310	-1.180	-0.200
2020/01/31 21:30:28.9	4.390	0.340	-1.190	-0.200
2020/01/31 21:30:29.0	4.400	0.360	-1.200	-0.200
2020/01/31 21:30:29.1	4.410	0.380	-1.200	-0.200
2020/01/31 21:30:29.2	4.410	0.400	-1.190	-0.200
2020/01/31 21:30:29.3	4.420	0.420	-1.170	-0.190
2020/01/31 21:30:29.4	4.430	0.440	-1.140	-0.190
2020/01/31 21:30:29.5	4.430	0.450	-1.110	-0.180
2020/01/31 21:30:29.6	4.440	0.460	-1.070	-0.170
2020/01/31 21:30:29.7	4.450	0.470	-1.020	-0.160
2020/01/31 21:30:29.8	4.460	0.480	-0.960	-0.150
2020/01/31 21:30:29.9	4.460	0.480	-0.900	-0.140
2020/01/31 21:30:30.0	4.470	0.480	-0.830	-0.130
2020/01/31 21:30:30.1	4.480	0.470	-0.760	-0.110
2020/01/31 21:30:30.2	4.480	0.460	-0.680	-0.100
2020/01/31 21:30:30.3	4.490	0.440	-0.600	-0.080
2020/01/31 21:30:30.4	4.500	0.430	-0.510	-0.070
2020/01/31 21:30:30.5	4.510	0.400	-0.420	-0.050
2020/01/31 21:30:30.6	4.520	0.370	-0.320	-0.040
2020/01/31 21:30:30.7	4.530	0.340	-0.230	-0.020
2020/01/31 21:30:30.8	4.540	0.310	-0.130	-0.010
2020/01/31 21:30:30.9	4.540	0.270	-0.040	0.010
2020/01/31 21:30:31.0	4.550	0.220	0.060	0.020
2020/01/31 21:30:31.1	4.560	0.180	0.150	0.030
2020/01/31 21:30:31.2	4.570	0.130	0.240	0.040
2020/01/31 21:30:31.3	4.580	0.080	0.330	0.050
2020/01/31 21:30:31.4	4.590	0.020	0.410	0.060
2020/01/31 21:30:31.5	4.600	-0.030	0.490	0.070
2020/01/31 21:30:31.6	4.610	-0.090	0.570	0.070
2020/01/31 21:30:31.7	4.620	-0.150	0.630	0.070
2020/01/31 21:30:31.8	4.640	-0.210	0.690	0.070
2020/01/31 21:30:31.9	4.650	-0.260	0.750	0.070
2020/01/31 21:30:32.0	4.660	-0.320	0.790	0.070
2020/01/31 21:30:32.1	4.680	-0.380	0.830	0.060
2020/01/31 21:30:32.2	4.690	-0.430	0.860	0.060
2020/01/31 21:30:32.3	4.700	-0.480	0.880	0.050
2020/01/31 21:30:32.4	4.710	-0.530	0.900	0.040
2020/01/31 21:30:32.5	4.720	-0.580	0.900	0.030
2020/01/31 21:30:32.6	4.740	-0.620	0.900	0.020
2020/01/31 21:30:32.7	4.750	-0.660	0.890	0.010
2020/01/31 21:30:32.8	4.760	-0.700	0.880	-0.000
2020/01/31 21:30:32.9	4.770	-0.730	0.850	-0.020
2020/01/31 21:30:33.0	4.790	-0.760	0.820	-0.030
2020/01/31 21:30:33.1	4.800	-0.780	0.780	-0.040
2020/01/31 21:30:33.2	4.810	-0.800	0.740	-0.060
2020/01/31 21:30:33.3	4.820	-0.810	0.690	-0.070
2020/01/31 21:30:33.4	4.830	-0.820	0.630	-0.080
2020/01/31 21:30:33.5	4.840	-0.820	0.570	-0.090
2020/01/31 21:30:33.6	4.840	-0.820	0.510	-0.100
2020/01/31 21:30:33.7	4.850	-0.810	0.440	-0.110
2020/01/31 21:30:33.8	4.860	-0.800	0.370	-0.120
2020/01/31 21:30:33.9	4.860	-0.790	0.290	-0.120
2020/01/31 21:30:34.0	4.860	-0.770	0.210	-0.130
2020/01/31 21:30:34.1	4.860	-0.740	0.140	-0.130
2020/01/31 21:30:34.2	4.860	-0.710	0.060	-0.130
2020/01/31 21:30:34.3	4.860	-0.680	-0.020	-0.130
2020/01/31 21:30:34.4	4.860	-0.640	-0.100	-0.130
2020/01/31 21:30:34.5	4.860	-0.600	-0.180	-0.130
2020/01/31 21:30:34.6	4.850	-0.550	-0.260	-0.120
2020/01/31 21:30:34.7	4.840	-0.510	-0.330	-0.110
2020/01/31 21:30:34.8	4.840	-0.460	-0.400	-0.100
2020/01/31 21:30:34.9	4.830	-0.400	-0.480	-0.090
2020/01/31 21:30:35.0	4.820	-0.350	-0.540	-0.080
2020/01/31 21:30:35.1	4.800	-0.300	-0.610	-0.060
2020/01/31 21:30:35.2	4.790	-0.240	-0.670	-0.050
2020/01/31 21:30:35.3	4.770	-0.180	-0.720	-0.030
2020/01/31 21:30:35.4	4.750	-0.130	-0.770	-0.010
2020/01/31 21:30:35.5	4.730	-0.070	-0.820	0.010
2020/01/31 21:30:35.6	4.710	-0.010	-0.860	0.040
2020/01/31 21:30:35.7	4.690	0.050	-0.900	0.060
2020/01/31 21:30:35.8	4.660	0.100	-0.930	0.090
2020/01/31 21:30:35.9	4.640	0.150	-0.960	0.110
2020/01/31 21:30:36.0	4.610	0.210	-0.980	0.140
2020/01/31 21:30:36.1	4.590	0.260	-0.990	0.170
2020/01/31 21:30:36.2	4.560	0.300	-1.000	0.190
2020/01/31 21:30:36.3	4.530	0.350	-1.000	0.220
2020/01/31 21:30:36.4	4.500	0.390	-1.000	0.240
2020/01/31 21:30:36.5	4.470	0.430	-1.000	0.270
2020/01/31 21:30:36.6	4.440	0.460	-0.990	0.290
2020/01/31 21:30:36.7	4.400	0.490	-0.970	0.320
2020/01/31 21:30:36.8	4.370	0.520	-0.950	0.340
2020/01/31 21:30:36.9	4.340	0.540	-0.930	0.360
2020/01/31 21:30:37.0	4.300	0.560	-0.900	0.380
2020/01/31 21:30:37.1	4.270	0.570	-0.870	0.400
2020/01/31 21:30:37.2	4.230	0.580	-0.830	0.410
2020/01/31 21:30:37.3	4.190	0.580	-0.790	0.420
2020/01/31 21:30:37.4	4.160	0.580	-0.750	0.430
2020/01/31 21:30:37.5	4.120	0.580	-0.710	0.440
2020/01/31 21:30:37.6	4.080	0.570	-0.670	0.440
2020/01/31 21:30:37.7	4.050	0.560	-0.620	0.440
2020/01/31 21:30:37.8	4.010	0.540	-0.580	0.430
2020/01/31 21:30:37.9	3.960	0.520	-0.530	0.430
2020/01/31 21:30:38.0	3.930	0.500	-0.490	0.420
2020/01/31 21:30:38.1	3.900	0.480	-0.450	0.400
2020/01/31 21:30:38.2	3.870	0.450	-0.410	0.380
2020/01/31 21:30:38.3	3.850	0.420	-0.380	0.360
2020/01/31 21:30:38.4	3.820	0.390	-0.340	0.330
2020/01/31 21:30:38.5	3.810	0.360	-0.320	0.300
2020/01/31 21:30:38.6	3.790	0.330	-0.290	0.260
2020/01/31 21:30:38.7	3.780	0.300	-0.280	0.220
2020/01/31 21:30:38.8	3.770	0.270	-0.260	0.170
2020/01/31 21:30:38.9	3.770	0.240	-0.260	0.120
2020/01/31 21:30:39.0	3.780	0.210	-0.250	0.060
2020/01/31 21:30:39.1	3.780	0.190	-0.250	0.010
2020/01/31 21:30:39.2	3.790	0.160	-0.260	-0.060
2020/01/31 21:30:39.3	3.810	0.140	-0.270	-0.120
2020/01/31 21:30:39.4	3.820	0.120	-0.280	-0.190
2020/01/31 21:30:39.5	3.850	0.110	-0.290	-0.260
2020/01/31 21:30:39.6	3.870	0.090	-0.310	-0.330
2020/01/31 21:30:39.7	3.900	0.080	-0.330	-0.400
2020/01/31 21:30:39.8	3.940	0.070	-0.350	-0.470
2020/01/31 21:30:39.9	3.990	0.070	-0.360	-0.540
2020/01/31 21:30:40.0	4.030	0.060	-0.380	-0.610
2020/01/31 21:30:40.1	4.070	0.060	-0.400	-0.680
2020/01/31 21:30:40.2	4.110	0.070	-0.420	-0.740
2020/01/31 21:30:40.3	4.160	0.070	-0.430	-0.800
2020/01/31 21:30:40.4	4.210	0.080	-0.440	-0.860
2020/01/31 21:30:40.5	4.250	0.090	-0.440	-0.910
2020/01/31 21:30:40.6	4.300	0.090	-0.450	-0.960
2020/01/31 21:30:40.7	4.350	0.100	-0.440	-1.000
2020/01/31 21:30:40.8	4.390	0.110	-0.430	-1.040
2020/01/31 21:30:40.9	4.450	0.120	-0.430	-1.070
2020/01/31 21:30:41.0	4.490	0.130	-0.410	-1.100
2020/01/31 21:30:41.1	4.540	0.140	-0.390	-1.120
2020/01/31 21:30:41.2	4.580	0.150	-0.360	-1.140
2020/01/31 21:30:41.3	4.630	0.150	-0.330	-1.160
2020/01/31 21:30:41.4	4.670	0.160	-0.300	-1.170
2020/01/31 21:30:41.5	4.720	0.160	-0.270	-1.170
2020/01/31 21:30:41.6	4.760	0.160	-0.230	-1.180
2020/01/31 21:30:41.7	4.800	0.150	-0.190	-1.180
2020/01/31 21:30:41.8	4.840	0.140	-0.150	-1.170
2020/01/31 21:30:41.9	4.860	0.130	-0.110	-1.160
2020/01/31 21:30:42.0	4.900	0.120	-0.060	-1.150
2020/01/31 21:30:42.1	4.930	0.100	-0.020	-1.140
2020/01/31 21:30:42.2	4.960	0.080	0.020	-1.120
2020/01/31 21:30:42.3	4.990	0.050	0.070	-1.100
2020/01/31 21:30:42.4	5.010	0.030	0.110	-1.070
2020/01/31 21:30:42.5	5.030	-0.000	0.150	-1.040
2020/01/31 21:30:42.6	5.050	-0.040	0.190	-1.010
2020/01/31 21:30:42.7	5.060	-0.070	0.220	-0.970
2020/01/31 21:30:42.8	5.070	-0.110	0.250	-0.930
2020/01/31 21:30:42.9	5.070	-0.150	0.280	-0.890
2020/01/31 21:30:43.0	5.070	-0.190	0.310	-0.840
2020/01/31 21:30:43.1	5.070	-0.240	0.330	-0.790
2020/01/31 21:30:43.2	5.060	-0.280	0.350	-0.740
2020/01/31 21:30:43.3	5.050	-0.330	0.370	-0.690
2020/01/31 21:30:43.4	5.030	-0.370	0.380	-0.640
2020/01/31 21:30:43.5	5.010	-0.420	0.390	-0.590
2020/01/31 21:30:43.6	4.980	-0.460	0.400	-0.540
2020/01/31 21:30:43.7	4.950	-0.510	0.400	-0.490
2020/01/31 21:30:43.8	4.920	-0.550	0.400	-0.440
2020/01/31 21:30:43.9	4.890	-0.590	0.390	-0.390
2020/01/31 21:30:44.0	4.850	-0.640	0.380	-0.350
2020/01/31 21:30:44.1	4.810	-0.670	0.370	-0.300
2020/01/31 21:30:44.2	4.770	-0.710	0.350	-0.260
2020/01/31 21:30:44.3	4.730	-0.740	0.330	-0.220
2020/01/31 21:30:44.4	4.690	-0.770	0.310	-0.190
2020/01/31 21:30:44.5	4.650	-0.790	0.280	-0.150
2020/01/31 21:30:44.6	4.600	-0.810	0.250	-0.120
2020/01/31 21:30:44.7	4.560	-0.820	0.220	-0.090
2020/01/31 21:30:44.8	4.520	-0.830	0.190	-0.070
2020/01/31 21:30:44.9	4.470	-0.840	0.160	-0.050
2020/01/31 21:30:45.0	4.430	-0.830	0.120	-0.030
2020/01/31 21:30:45.1	4.400	-0.830	0.080	-0.020
2020/01/31 21:30:45.2	4.360	-0.810	0.040	-0.010
2020/01/31 21:30:45.3	4.330	-0.790	-0.000	0.000
2020/01/31 21:30:45.4	4.300	-0.770	-0.050	0.010
2020/01/31 21:30:45.5	4.280	-0.730	-0.090	0.020
2020/01/31 21:30:45.6	4.250	-0.700	-0.140	0.020
2020/01/31 21:30:45.7	4.230	-0.650	-0.190	0.020
2020/01/31 21:30:45.8	4.220	-0.610	-0.230	0.020
2020/01/31 21:30:45.9	4.200	-0.550	-0.290	0.020
2020/01/31 21:30:46.0	4.190	-0.500	-0.330	0.020
2020/01/31 21:30:46.1	4.180	-0.430	-0.380	0.020
2020/01/31 21:30:46.2	4.170	-0.370	-0.420	0.020
2020/01/31 21:30:46.3	4.170	-0.300	-0.460	0.020
2020/01/31 21:30:46.4	4.160	-0.230	-0.490	0.010
2020/01/31 21:30:46.5	4.160	-0.160	-0.530	0.020
2020/01/31 21:30:46.6	4.160	-0.080	-0.560	0.020
2020/01/31 21:30:46.7	4.160	-0.010	-0.580	0.020
2020/01/31 21:30:46.8	4.150	0.070	-0.600	0.020
2020/01/31 21:30:46.9	4.160	0.140	-0.610	0.030
2020/01/31 21:30:47.0	4.160	0.210	-0.620	0.030
2020/01/31 21:30:47.1	4.150	0.280	-0.630	0.040
2020/01/31 21:30:47.2	4.150	0.350	-0.630	0.060
2020/01/31 21:30:47.3	4.140	0.420	-0.620	0.070
2020/01/31 21:30:47.4	4.130	0.480	-0.610	0.090
2020/01/31 21:30:47.5	4.110	0.540	-0.600	0.110
2020/01/31 21:30:47.6	4.100	0.590	-0.580	0.140
2020/01/31 21:30:47.7	4.080	0.640	-0.550	0.160
2020/01/31 21:30:47.8	4.060	0.680	-0.520	0.190
2020/01/31 21:30:47.9	4.040	0.720	-0.500	0.230
2020/01/31 21:30:48.0	4.010	0.750	-0.460	0.260
2020/01/31 21:30:48.1	3.980	0.770	-0.430	0.300
2020/01/31 21:30:48.2	3.950	0.790	-0.390	0.330
2020/01/31 21:30:48.3	3.920	0.810	-0.350	0.370
2020/01/31 21:30:48.4	3.880	0.820	-0.310	0.410
2020/01/31 21:30:48.5	3.850	0.820	-0.280	0.440
2020/01/31 21:30:48.6	3.810	0.820	-0.240	0.480
2020/01/31 21:30:48.7	3.780	0.820	-0.210	0.510
2020/01/31 21:30:48.8	3.740	0.810	-0.180	0.540
2020/01/31 21:30:48.9	3.710	0.790	-0.150	0.570
2020/01/31 21:30:49.0	3.680	0.780	-0.130	0.600
2020/01/31 21:30:49.1	3.660	0.760	-0.120	0.610
2020/01/31 21:30:49.2	3.630	0.730	-0.110	0.620
2020/01/31 21:30:49.3	3.610	0.710	-0.110	0.630
2020/01/31 21:30:49.4	3.600	0.680	-0.110	0.630
2020/01/31 21:30:49.5	3.590	0.650	-0.130	0.620
2020/01/31 21:30:49.6	3.580	0.620	-0.150	0.600
2020/01/31 21:30:49.7	3.580	0.590	-0.180	0.570
2020/01/31 21:30:49.8	3.580	0.560	-0.210	0.540
2020/01/31 21:30:49.9	3.600	0.530	-0.250	0.500
2020/01/31 21:30:50.0	3.620	0.500	-0.300	0.450
2020/01/31 21:30:50.1	3.630	0.470	-0.350	0.390
2020/01/31 21:30:50.2	3.660	0.440	-0.410	0.330
2020/01/31 21:30:50.3	3.690	0.410	-0.470	0.260
2020/01/31 21:30:50.4	3.720	0.380	-0.540	0.190
2020/01/31 21:30:50.5	3.750	0.350	-0.600	0.120
2020/01/31 21:30:50.6	3.790	0.330	-0.670	0.040
2020/01/31 21:30:50.7	3.820	0.300	-0.730	-0.040
2020/01/31 21:30:50.8	3.860	0.270	-0.800	-0.130
2020/01/31 21:30:50.9	3.910	0.250	-0.860	-0.210
2020/01/31 21:30:51.0	3.950	0.220	-0.910	-0.290
2020/01/31 21:30:51.1	3.990	0.190	-0.960	-0.370
2020/01/31 21:30:51.2	4.030	0.170	-1.010	-0.450
2020/01/31 21:30:51.3	4.070	0.140	-1.040	-0.530
2020/01/31 21:30:51.4	4.100	0.110	-1.070	-0.610
2020/01/31 21:30:51.5	4.140	0.090	-1.090	-0.680
2020/01/31 21:30:51.6	4.180	0.060	-1.110	-0.750
2020/01/31 21:30:51.7	4.220	0.030	-1.110	-0.820
2020/01/31 21:30:51.8	4.250	0.000	-1.100	-0.880
2020/01/31 21:30:51.9	4.290	-0.030	-1.090	-0.940
2020/01/31 21:30:52.0	4.320	-0.060	-1.060	-1.000
2020/01/31 21:30:52.1	4.350	-0.090	-1.030	-1.040
2020/01/31 21:30:52.2	4.380	-0.120	-0.990	-1.090
2020/01/31 21:30:52.3	4.410	-0.150	-0.940	-1.120
2020/01/31 21:30:52.4	4.430	-0.180	-0.880	-1.150
2020/01/31 21:30:52.5	4.460	-0.210	-0.820	-1.180
2020/01/31 21:30:52.6	4.480	-0.250	-0.750	-1.200
2020/01/31 21:30:52.7	4.500	-0.280	-0.670	-1.210
2020/01/31 21:30:52.8	4.510	-0.320	-0.590	-1.220
2020/01/31 21:30:52.9	4.530	-0.350	-0.510	-1.220
2020/01/31 21:30:53.0	4.540	-0.380	-0.420	-1.220
2020/01/31 21:30:53.1	4.560	-0.420	-0.330	-1.210
2020/01/31 21:30:53.2	4.560	-0.450	-0.240	-1.200
2020/01/31 21:30:53.3	4.570	-0.490	-0.150	-1.180
2020/01/31 21:30:53.4	4.570	-0.520	-0.060	-1.160
2020/01/31 21:30:53.5	4.580	-0.550	0.020	-1.140
2020/01/31 21:30:53.6	4.580	-0.580	0.110	-1.110
2020/01/31 21:30:53.7	4.570	-0.610	0.180	-1.090
2020/01/31 21:30:53.8	4.570	-0.640	0.260	-1.060
2020/01/31 21:30:53.9	4.550	-0.660	0.320	-1.030
2020/01/31 21:30:54.0	4.550	-0.680	0.380	-1.000
2020/01/31 21:30:54.1	4.540	-0.700	0.440	-0.970
2020/01/31 21:30:54.2	4.530	-0.710	0.480	-0.940
2020/01/31 21:30:54.3	4.520	-0.730	0.520	-0.910
2020/01/31 21:30:54.4	4.520	-0.740	0.550	-0.880
2020/01/31 21:30:54.5	4.510	-0.740	0.570	-0.850
2020/01/31 21:30:54.6	4.500	-0.740	0.590	-0.820
2020/01/31 21:30:54.7	4.490	-0.740	0.590	-0.790
2020/01/31 21:30:54.8	4.480	-0.730	0.590	-0.760
2020/01/31 21:30:54.9	4.470	-0.720	0.570	-0.730
2020/01/31 21:30:55.0	4.460	-0.710	0.550	-0.710
2020/01/31 21:30:55.1	4.450	-0.690	0.520	-0.680
2020/01/31 21:30:55.2	4.440	-0.670	0.490	-0.650
2020/01/31 21:30:55.3	4.430	-0.640	0.450	-0.620
2020/01/31 21:30:55.4	4.420	-0.620	0.410	-0.590
2020/01/31 21:30:55.5	4.400	-0.580	0.360	-0.560
2020/01/31 21:30:55.6	4.390	-0.550	0.300	-0.530
2020/01/31 21:30:55.7	4.380	-0.510	0.250	-0.500
2020/01/31 21:30:55.8	4.360	-0.470	0.190	-0.470
2020/01/31 21:30:55.9	4.350	-0.430	0.130	-0.440
2020/01/31 21:30:56.0	4.330	-0.390	0.070	-0.410
2020/01/31 21:30:56.1	4.310	-0.340	0.010	-0.380
2020/01/31 21:30:56.2	4.290	-0.300	-0.040	-0.350
2020/01/31 21:30:56.3	4.270	-0.250	-0.100	-0.310
2020/01/31 21:30:56.4	4.240	-0.200	-0.150	-0.280
2020/01/31 21:30:56.5	4.220	-0.150	-0.200	-0.250
2020/01/31 21:30:56.6	4.190	-0.110	-0.240	-0.210
2020/01/31 21:30:56.7	4.170	-0.060	-0.280	-0.180
2020/01/31 21:30:56.8	4.140	-0.020	-0.310	-0.140
2020/01/31 21:30:56.9	4.110	0.030	-0.340	-0.110
2020/01/31 21:30:57.0	4.080	0.070	-0.360	-0.070
2020/01/31 21:30:57.1	4.050	0.110	-0.370	-0.030
2020/01/31 21:30:57.2	4.010	0.150	-0.380	0.010
2020/01/31 21:30:57.3	3.980	0.190	-0.380	0.050
2020/01/31 21:30:57.4	3.950	0.220	-0.370	0.080
2020/01/31 21:30:57.5	3.910	0.250	-0.360	0.120
2020/01/31 21:30:57.6	3.880	0.280	-0.330	0.160
2020/01/31 21:30:57.7	3.840	0.300	-0.310	0.210
2020/01/31 21:30:57.8	3.810	0.330	-0.270	0.250
2020/01/31 21:30:57.9	3.770	0.350	-0.240	0.290
2020/01/31 21:30:58.0	3.730	0.360	-0.200	0.320
2020/01/31 21:30:58.1	3.700	0.380	-0.150	0.360
2020/01/31 21:30:58.2	3.660	0.390	-0.100	0.400
2020/01/31 21:30:58.3	3.630	0.390	-0.050	0.440
2020/01/31 21:30:58.4	3.600	0.400	-0.000	0.470
2020/01/31 21:30:58.5	3.570	0.400	0.050	0.500
2020/01/31 21:30:58.6	3.540	0.400	0.100	0.530
2020/01/31 21:30:58.7	3.510	0.400	0.150	0.560
2020/01/31 21:30:58.8	3.490	0.390	0.200	0.590
2020/01/31 21:30:58.9	3.470	0.380	0.240	0.610
2020/01/31 21:30:59.0	3.440	0.370	0.280	0.630
2020/01/31 21:30:59.1	3.420	0.360	0.320	0.640
2020/01/31 21:30:59.2	3.410	0.350	0.350	0.650
2020/01/31 21:30:59.3	3.390	0.330	0.380	0.660
2020/01/31 21:30:59.4	3.380	0.310	0.400	0.660
2020/01/31 21:30:59.5	3.360	0.300	0.410	0.660
2020/01/31 21:30:59.6	3.350	0.280	0.420	0.660
2020/01/31 21:30:59.7	3.340	0.260	0.420	0.660
2020/01/31 21:30:59.8	3.340	0.240	0.410	0.650
2020/01/31 21:30:59.9	3.330	0.230	0.400	0.640
2020/01/31 21:31:00.0	3.320	0.210	0.380	0.620
2020/01/31 21:31:00.1	3.320	0.190	0.350	0.600
2020/01/31 21:31:00.2	3.320	0.180	0.310	0.580
2020/01/31 21:31:00.3	3.320	0.160	0.260	0.550
2020/01/31 21:31:00.4	3.320	0.150	0.210	0.520
2020/01/31 21:31:00.5	3.320	0.140	0.150	0.490
2020/01/31 21:31:00.6	3.330	0.130	0.080	0.460
2020/01/31 21:31:00.7	3.330	0.120	0.000	0.420
2020/01/31 21:31:00.8	3.340	0.110	-0.080	0.380
2020/01/31 21:31:00.9	3.350	0.110	-0.170	0.340
2020/01/31 21:31:01.0	3.360	0.110	-0.260	0.290
2020/01/31 21:31:01.1	3.370	0.110	-0.360	0.250
2020/01/31 21:31:01.2	3.380	0.110	-0.460	0.200
2020/01/31 21:31:01.3	3.400	0.120	-0.560	0.150
2020/01/31 21:31:01.4	3.410	0.130	-0.670	0.100
2020/01/31 21:31:01.5	3.430	0.140	-0.780	0.050
2020/01/31 21:31:01.6	3.440	0.150	-0.880	0.000
2020/01/31 21:31:01.7	3.460	0.170	-0.990	-0.050
2020/01/31 21:31:01.8	3.480	0.180	-1.100	-0.100
2020/01/31 21:31:01.9	3.500	0.200	-1.200	-0.150
2020/01/31 21:31:02.0	3.520	0.220	-1.290	-0.200
2020/01/31 21:31:02.1	3.540	0.240	-1.390	-0.250
2020/01/31 21:31:02.2	3.560	0.260	-1.470	-0.290
2020/01/31 21:31:02.3	3.590	0.280	-1.550	-0.340
2020/01/31 21:31:02.4	3.610	0.300	-1.620	-0.390
2020/01/31 21:31:02.5	3.630	0.320	-1.680	-0.430
2020/01/31 21:31:02.6	3.660	0.340	-1.730	-0.480
2020/01/31 21:31:02.7	3.680	0.360	-1.780	-0.520
2020/01/31 21:31:02.8	3.710	0.370	-1.810	-0.560
2020/01/31 21:31:02.9	3.740	0.390	-1.830	-0.610
2020/01/31 21:31:03.0	3.760	0.400	-1.840	-0.650
2020/01/31 21:31:03.1	3.790	0.400	-1.830	-0.680
2020/01/31 21:31:03.2	3.810	0.410	-1.820	-0.720
2020/01/31 21:31:03.3	3.840	0.410	-1.790	-0.760
2020/01/31 21:31:03.4	3.860	0.400	-1.750	-0.790
2020/01/31 21:31:03.5	3.890	0.390	-1.700	-0.830
2020/01/31 21:31:03.6	3.910	0.380	-1.650	-0.860
2020/01/31 21:31:03.7	3.940	0.360	-1.580	-0.890
2020/01/31 21:31:03.8	3.960	0.340	-1.500	-0.910
2020/01/31 21:31:03.9	3.990	0.320	-1.410	-0.930
2020/01/31 21:31:04.0	4.010	0.290	-1.310	-0.960
2020/01/31 21:31:04.1	4.030	0.250	-1.210	-0.980
2020/01/31 21:31:04.2	4.050	0.210	-1.100	-1.000
2020/01/31 21:31:04.3	4.070	0.170	-0.980	-1.010
2020/01/31 21:31:04.4	4.090	0.120	-0.860	-1.030
2020/01/31 21:31:04.5	4.100	0.070	-0.740	-1.040
2020/01/31 21:31:04.6	4.120	0.020	-0.610	-1.050
2020/01/31 21:31:04.7	4.140	-0.030	-0.480	-1.050
2020/01/31 21:31:04.8	4.150	-0.090	-0.350	-1.060
2020/01/31 21:31:04.9	4.170	-0.150	-0.220	-1.050
2020/01/31 21:31:05.0	4.180	-0.210	-0.090	-1.050
2020/01/31 21:31:05.1	4.200	-0.270	0.040	-1.050
2020/01/31 21:31:05.2	4.210	-0.330	0.160	-1.050
2020/01/31 21:31:05.3	4.230	-0.390	0.280	-1.040
2020/01/31 21:31:05.4	4.240	-0.450	0.390	-1.030
2020/01/31 21:31:05.5	4.260	-0.510	0.490	-1.020
2020/01/31 21:31:05.6	4.270	-0.560	0.590	-1.010
2020/01/31 21:31:05.7	4.280	-0.620	0.690	-0.990
2020/01/31 21:31:05.8	4.290	-0.670	0.770	-0.980
2020/01/31 21:31:05.9	4.300	-0.710	0.840	-0.960
2020/01/31 21:31:06.0	4.310	-0.760	0.910	-0.940
2020/01/31 21:31:06.1	4.310	-0.800	0.970	-0.920
2020/01/31 21:31:06.2	4.320	-0.830	1.020	-0.890
2020/01/31 21:31:06.3	4.320	-0.860	1.060	-0.860
2020/01/31 21:31:06.4	4.320	-0.880	1.090	-0.830
2020/01/31 21:31:06.5	4.310	-0.900	1.110	-0.800
2020/01/31 21:31:06.6	4.310	-0.910	1.120	-0.770
2020/01/31 21:31:06.7	4.300	-0.910	1.130	-0.730
2020/01/31 21:31:06.8	4.280	-0.910	1.130	-0.690
2020/01/31 21:31:06.9	4.270	-0.900	1.120	-0.640
2020/01/31 21:31:07.0	4.250	-0.890	1.100	-0.590
2020/01/31 21:31:07.1	4.230	-0.870	1.080	-0.540
2020/01/31 21:31:07.2	4.200	-0.840	1.050	-0.490
2020/01/31 21:31:07.3	4.180	-0.810	1.010	-0.440
2020/01/31 21:31:07.4	4.150	-0.770	0.970	-0.380
2020/01/31 21:31:07.5	4.110	-0.730	0.920	-0.320
2020/01/31 21:31:07.6	4.080	-0.680	0.870	-0.250
2020/01/31 21:31:07.7	4.040	-0.630	0.820	-0.190
2020/01/31 21:31:07.8	4.000	-0.570	0.760	-0.120
2020/01/31 21:31:07.9	3.960	-0.510	0.700	-0.050
2020/01/31 21:31:08.0	3.910	-0.450	0.640	0.020
2020/01/31 21:31:08.1	3.870	-0.380	0.580	0.090
2020/01/31 21:31:08.2	3.820	-0.310	0.510	0.150
2020/01/31 21:31:08.3	3.780	-0.240	0.450	0.220
2020/01/31 21:31:08.4	3.730	-0.170	0.380	0.290
2020/01/31 21:31:08.5	3.690	-0.100	0.310	0.350
2020/01/31 21:31:08.6	3.640	-0.030	0.250	0.410
2020/01/31 21:31:08.7	3.600	0.040	0.180	0.470
2020/01/31 21:31:08.8	3.550	0.110	0.120	0.520
2020/01/31 21:31:08.9	3.520	0.180	0.060	0.580
2020/01/31 21:31:09.0	3.480	0.240	-0.000	0.620
2020/01/31 21:31:09.1	3.440	0.310	-0.060	0.670
2020/01/31 21:31:09.2	3.400	0.370	-0.120	0.710
2020/01/31 21:31:09.3	3.370	0.420	-0.170	0.740
2020/01/31 21:31:09.4	3.330	0.470	-0.230	0.770
2020/01/31 21:31:09.5	3.300	0.520	-0.280	0.790
2020/01/31 21:31:09.6	3.260	0.570	-0.320	0.810
2020/01/31 21:31:09.7	3.230	0.610	-0.370	0.830
2020/01/31 21:31:09.8	3.200	0.640	-0.410	0.840
2020/01/31 21:31:09.9	3.180	0.670	-0.450	0.860
2020/01/31 21:31:10.0	3.150	0.690	-0.480	0.860
2020/01/31 21:31:10.1	3.120	0.710	-0.520	0.860
2020/01/31 21:31:10.2	3.100	0.730	-0.540	0.860
2020/01/31 21:31:10.3	3.070	0.730	-0.570	0.860
2020/01/31 21:31:10.4	3.050	0.740	-0.590	0.850
2020/01/31 21:31:10.5	3.040	0.730	-0.620	0.840
2020/01/31 21:31:10.6	3.020	0.730	-0.630	0.820
2020/01/31 21:31:10.7	3.010	0.720	-0.650	0.800
2020/01/31 21:31:10.8	3.000	0.700	-0.670	0.780
2020/01/31 21:31:10.9	2.980	0.680	-0.680	0.750
2020/01/31 21:31:11.0	2.980	0.660	-0.690	0.720
2020/01/31 21:31:11.1	2.980	0.630	-0.700	0.690
2020/01/31 21:31:11.2	2.980	0.600	-0.710	0.650
2020/01/31 21:31:11.3	2.980	0.570	-0.720	0.600
2020/01/31 21:31:11.4	2.990	0.540	-0.730	0.560
2020/01/31 21:31:11.5	3.000	0.510	-0.740	0.500
2020/01/31 21:31:11.6	3.020	0.470	-0.750	0.450
2020/01/31 21:31:11.7	3.030	0.430	-0.770	0.390
2020/01/31 21:31:11.8	3.060	0.400	-0.780	0.320
2020/01/31 21:31:11.9	3.070	0.360	-0.800	0.260
2020/01/31 21:31:12.0	3.100	0.320	-0.810	0.190
2020/01/31 21:31:12.1	3.130	0.290	-0.820	0.120
2020/01/31 21:31:12.2	3.160	0.250	-0.840	0.040
2020/01/31 21:31:12.3	3.190	0.220	-0.850	-0.030
2020/01/31 21:31:12.4	3.220	0.190	-0.870	-0.110
2020/01/31 21:31:12.5	3.250	0.160	-0.890	-0.180
2020/01/31 21:31:12.6	3.290	0.130	-0.900	-0.260
2020/01/31 21:31:12.7	3.330	0.100	-0.910	-0.330
2020/01/31 21:31:12.8	3.360	0.070	-0.930	-0.410
2020/01/31 21:31:12.9	3.410	0.050	-0.940	-0.480
2020/01/31 21:31:13.0	3.450	0.030	-0.950	-0.560
2020/01/31 21:31:13.1	3.490	0.010	-0.950	-0.620
2020/01/31 21:31:13.2	3.530	-0.000	-0.960	-0.690
2020/01/31 21:31:13.3	3.570	-0.020	-0.970	-0.760
2020/01/31 21:31:13.4	3.610	-0.030	-0.970	-0.820
2020/01/31 21:31:13.5	3.650	-0.040	-0.970	-0.870
2020/01/31 21:31:13.6	3.690	-0.050	-0.960	-0.930
2020/01/31 21:31:13.7	3.730	-0.060	-0.960	-0.980
2020/01/31 21:31:13.8	3.770	-0.060	-0.950	-1.020
2020/01/31 21:31:13.9	3.810	-0.060	-0.940	-1.060
2020/01/31 21:31:14.0	3.850	-0.060	-0.920	-1.090
2020/01/31 21:31:14.1	3.880	-0.060	-0.900	-1.120
2020/01/31 21:31:14.2	3.910	-0.060	-0.880	-1.150
2020/01/31 21:31:14.3	3.940	-0.060	-0.850	-1.160
2020/01/31 21:31:14.4	3.970	-0.060	-0.820	-1.180
2020/01/31 21:31:14.5	4.000	-0.060	-0.790	-1.180
2020/01/31 21:31:14.6	4.020	-0.060	-0.750	-1.180
2020/01/31 21:31:14.7	4.040	-0.060	-0.710	-1.180
2020/01/31 21:31:14.8	4.050	-0.050	-0.670	-1.170
2020/01/31 21:31:14.9	4.070	-0.050	-0.630	-1.160
2020/01/31 21:31:15.0	4.080	-0.050	-0.580	-1.150
2020/01/31 21:31:15.1	4.090	-0.050	-0.530	-1.130
2020/01/31 21:31:15.2	4.100	-0.050	-0.480	-1.110
2020/01/31 21:31:15.3	4.100	-0.060	-0.430	-1.100
2020/01/31 21:31:15.4	4.110	-0.060	-0.380	-1.080
2020/01/31 21:31:15.5	4.110	-0.060	-0.320	-1.060
2020/01/31 21:31:15.6	4.120	-0.070	-0.270	-1.040
2020/01/31 21:31:15.7	4.120	-0.080	-0.220	-1.020
2020/01/31 21:31:15.8	4.130	-0.080	-0.170	-1.000
2020/01/31 21:31:15.9	4.130	-0.090	-0.120	-0.970
2020/01/31 21:31:16.0	4.140	-0.100	-0.070	-0.960
2020/01/31 21:31:16.1	4.140	-0.110	-0.020	-0.940
2020/01/31 21:31:16.2	4.140	-0.120	0.030	-0.920
2020/01/31 21:31:16.3	4.150	-0.130	0.070	-0.900
2020/01/31 21:31:16.4	4.150	-0.150	0.120	-0.880
2020/01/31 21:31:16.5	4.150	-0.160	0.160	-0.860
2020/01/31 21:31:16.6	4.160	-0.170	0.200	-0.840
2020/01/31 21:31:16.7	4.160	-0.190	0.240	-0.810
2020/01/31 21:31:16.8	4.160	-0.200	0.280	-0.790
2020/01/31 21:31:16.9	4.150	-0.210	0.310	-0.760
2020/01/31 21:31:17.0	4.140	-0.230	0.340	-0.730
2020/01/31 21:31:17.1	4.140	-0.240	0.380	-0.690
2020/01/31 21:31:17.2	4.130	-0.250	0.410	-0.660
2020/01/31 21:31:17.3	4.120	-0.260	0.450	-0.620
2020/01/31 21:31:17.4	4.100	-0.280	0.480	-0.580
2020/01/31 21:31:17.5	4.080	-0.290	0.510	-0.530
2020/01/31 21:31:17.6	4.060	-0.300	0.550	-0.480
2020/01/31 21:31:17.7	4.040	-0.310	0.580	-0.430
2020/01/31 21:31:17.8	4.010	-0.310	0.610	-0.380
2020/01/31 21:31:17.9	3.980	-0.320	0.640	-0.320
2020/01/31 21:31:18.0	3.950	-0.330	0.670	-0.260
2020/01/31 21:31:18.1	3.910	-0.330	0.700	-0.210
2020/01/31 21:31:18.2	3.880	-0.340	0.730	-0.150
2020/01/31 21:31:18.3	3.840	-0.340	0.750	-0.090
2020/01/31 21:31:18.4	3.790	-0.340	0.770	-0.030
2020/01/31 21:31:18.5	3.750	-0.340	0.790	0.030
2020/01/31 21:31:18.6	3.700	-0.340	0.800	0.090
2020/01/31 21:31:18.7	3.650	-0.330	0.810	0.140
2020/01/31 21:31:18.8	3.600	-0.330	0.810	0.190
2020/01/31 21:31:18.9	3.550	-0.320	0.810	0.250
2020/01/31 21:31:19.0	3.510	-0.310	0.800	0.290
2020/01/31 21:31:19.1	3.460	-0.300	0.790	0.330
2020/01/31 21:31:19.2	3.410	-0.280	0.770	0.370
2020/01/31 21:31:19.3	3.360	-0.270	0.740	0.400
2020/01/31 21:31:19.4	3.320	-0.250	0.700	0.430
2020/01/31 21:31:19.5	3.280	-0.230	0.660	0.450
2020/01/31 21:31:19.6	3.240	-0.210	0.610	0.470
2020/01/31 21:31:19.7	3.200	-0.190	0.560	0.480
2020/01/31 21:31:19.8	3.170	-0.160	0.490	0.490
2020/01/31 21:31:19.9	3.150	-0.140	0.420	0.490
2020/01/31 21:31:20.0	3.120	-0.110	0.350	0.490
2020/01/31 21:31:20.1	3.090	-0.080	0.270	0.490
2020/01/31 21:31:20.2	3.070	-0.060	0.190	0.480
2020/01/31 21:31:20.3	3.050	-0.030	0.100	0.470
2020/01/31 21:31:20.4	3.030	0.000	0.010	0.450
2020/01/31 21:31:20.5	3.010	0.030	-0.090	0.430
2020/01/31 21:31:20.6	3.000	0.060	-0.180	0.410
2020/01/31 21:31:20.7	2.980	0.080	-0.270	0.380
2020/01/31 21:31:20.8	2.970	0.110	-0.370	0.350
2020/01/31 21:31:20.9	2.960	0.130	-0.470	0.320
2020/01/31 21:31:21.0	2.960	0.150	-0.560	0.280
2020/01/31 21:31:21.1	2.960	0.180	-0.650	0.240
2020/01/31 21:31:21.2	2.960	0.200	-0.750	0.190
2020/01/31 21:31:21.3	2.970	0.220	-0.830	0.150
2020/01/31 21:31:21.4	2.980	0.230	-0.920	0.090
2020/01/31 21:31:21.5	2.990	0.250	-1.000	0.040
2020/01/31 21:31:21.6	3.010	0.260	-1.080	-0.020
2020/01/31 21:31:21.7	3.030	0.280	-1.150	-0.080
2020/01/31 21:31:21.8	3.050	0.290	-1.210	-0.140
2020/01/31 21:31:21.9	3.070	0.300	-1.270	-0.200
2020/01/31 21:31:22.0	3.100	0.310	-1.330	-0.260
2020/01/31 21:31:22.1	3.140	0.310	-1.380	-0.320
2020/01/31 21:31:22.2	3.170	0.320	-1.420	-0.380
2020/01/31 21:31:22.3	3.210	0.320	-1.450	-0.440
2020/01/31 21:31:22.4	3.240	0.330	-1.480	-0.490
2020/01/31 21:31:22.5	3.280	0.330	-1.490	-0.540
2020/01/31 21:31:22.6	3.320	0.340	-1.500	-0.590
2020/01/31 21:31:22.7	3.360	0.340	-1.500	-0.630
2020/01/31 21:31:22.8	3.400	0.340	-1.500	-0.670
2020/01/31 21:31:22.9	3.450	0.340	-1.480	-0.700
2020/01/31 21:31:23.0	3.490	0.340	-1.460	-0.730
2020/01/31 21:31:23.1	3.520	0.340	-1.430	-0.750
2020/01/31 21:31:23.2	3.560	0.340	-1.390	-0.770
2020/01/31 21:31:23.3	3.600	0.330	-1.350	-0.780
2020/01/31 21:31:23.4	3.630	0.330	-1.300	-0.790
2020/01/31 21:31:23.5	3.670	0.330	-1.240	-0.800
2020/01/31 21:31:23.6	3.700	0.320	-1.180	-0.800
2020/01/31 21:31:23.7	3.730	0.310	-1.120	-0.790
2020/01/31 21:31:23.8	3.760	0.300	-1.050	-0.790
2020/01/31 21:31:23.9	3.790	0.300	-0.980	-0.770
2020/01/31 21:31:24.0	3.820	0.290	-0.910	-0.760
2020/01/31 21:31:24.1	3.840	0.280	-0.840	-0.750
2020/01/31 21:31:24.2	3.870	0.260	-0.780	-0.740
2020/01/31 21:31:24.3	3.900	0.250	-0.710	-0.720
2020/01/31 21:31:24.4	3.920	0.240	-0.640	-0.710
2020/01/31 21:31:24.5	3.940	0.230	-0.570	-0.700
2020/01/31 21:31:24.6	3.970	0.210	-0.510	-0.680
2020/01/31 21:31:24.7	3.990	0.200	-0.450	-0.670
2020/01/31 21:31:24.8	4.010	0.180	-0.390	-0.660
2020/01/31 21:31:24.9	4.030	0.170	-0.340	-0.640
2020/01/31 21:31:25.0	4.050	0.150	-0.290	-0.630
2020/01/31 21:31:25.1	4.060	0.130	-0.240	-0.610
2020/01/31 21:31:25.2	4.070	0.110	-0.190	-0.600
2020/01/31 21:31:25.3	4.080	0.100	-0.150	-0.590
2020/01/31 21:31:25.4	4.090	0.080	-0.110	-0.570
2020/01/31 21:31:25.5	4.100	0.060	-0.070	-0.560
2020/01/31 21:31:25.6	4.100	0.040	-0.040	-0.540
2020/01/31 21:31:25.7	4.110	0.020	-0.000	-0.530
2020/01/31 21:31:25.8	4.110	-0.000	0.030	-0.520
2020/01/31 21:31:25.9	4.100	-0.020	0.060	-0.500
2020/01/31 21:31:26.0	4.100	-0.040	0.080	-0.490
2020/01/31 21:31:26.1	4.090	-0.060	0.110	-0.480
2020/01/31 21:31:26.2	4.080	-0.080	0.140	-0.470
2020/01/31 21:31:26.3	4.080	-0.100	0.160	-0.460
2020/01/31 21:31:26.4	4.070	-0.120	0.180	-0.450
2020/01/31 21:31:26.5	4.050	-0.150	0.200	-0.440
2020/01/31 21:31:26.6	4.040	-0.170	0.230	-0.440
2020/01/31 21:31:26.7	4.030	-0.190	0.250	-0.430
2020/01/31 21:31:26.8	4.010	-0.210	0.260	-0.430
2020/01/31 21:31:26.9	4.000	-0.230	0.280	-0.420
2020/01/31 21:31:27.0	3.980	-0.250	0.300	-0.420
2020/01/31 21:31:27.1	3.970	-0.270	0.320	-0.420
2020/01/31 21:31:27.2	3.950	-0.290	0.330	-0.410
2020/01/31 21:31:27.3	3.930	-0.310	0.350	-0.410
2020/01/31 21:31:27.4	3.900	-0.320	0.370	-0.410
2020/01/31 21:31:27.5	3.880	-0.340	0.380	-0.400
2020/01/31 21:31:27.6	3.850	-0.360	0.400	-0.390
2020/01/31 21:31:27.7	3.820	-0.370	0.410	-0.390
2020/01/31 21:31:27.8	3.790	-0.390	0.430	-0.380
2020/01/31 21:31:27.9	3.760	-0.400	0.440	-0.370
2020/01/31 21:31:28.0	3.730	-0.410	0.450	-0.360
2020/01/31 21:31:28.1	3.700	-0.420	0.460	-0.350
2020/01/31 21:31:28.2	3.660	-0.430	0.470	-0.330
2020/01/31 21:31:28.3	3.630	-0.440	0.480	-0.320
2020/01/31 21:31:28.4	3.590	-0.450	0.490	-0.310
2020/01/31 21:31:28.5	3.560	-0.450	0.490	-0.290
2020/01/31 21:31:28.6	3.530	-0.450	0.490	-0.280
2020/01/31 21:31:28.7	3.490	-0.450	0.490	-0.270
2020/01/31 21:31:28.8	3.460	-0.440	0.490	-0.260
2020/01/31 21:31:28.9	3.430	-0.440	0.480	-0.240
2020/01/31 21:31:29.0	3.400	-0.430	0.460	-0.230
2020/01/31 21:31:29.1	3.370	-0.420	0.450	-0.220
2020/01/31 21:31:29.2	3.340	-0.400	0.430	-0.210
2020/01/31 21:31:29.3	3.310	-0.380	0.410	-0.200
2020/01/31 21:31:29.4	3.280	-0.360	0.380	-0.190
2020/01/31 21:31:29.5	3.250	-0.340	0.350	-0.180
2020/01/31 21:31:29.6	3.220	-0.310	0.320	-0.160
2020/01/31 21:31:29.7	3.200	-0.290	0.280	-0.150
2020/01/31 21:31:29.8	3.170	-0.250	0.240	-0.140
2020/01/31 21:31:29.9	3.140	-0.220	0.200	-0.130
2020/01/31 21:31:30.0	3.120	-0.180	0.160	-0.120
2020/01/31 21:31:30.1	3.100	-0.150	0.120	-0.110
2020/01/31 21:31:30.2	3.070	-0.110	0.070	-0.100
2020/01/31 21:31:30.3	3.050	-0.060	0.030	-0.080
2020/01/31 21:31:30.4	3.030	-0.020	-0.020	-0.070
2020/01/31 21:31:30.5	3.020	0.020	-0.070	-0.050
2020/01/31 21:31:30.6	3.000	0.070	-0.110	-0.040
2020/01/31 21:31:30.7	2.990	0.120	-0.160	-0.020
2020/01/31 21:31:30.8	2.970	0.160	-0.200	-0.010
2020/01/31 21:31:30.9	2.970	0.210	-0.250	0.010
2020/01/31 21:31:31.0	2.950	0.250	-0.290	0.030
2020/01/31 21:31:31.1	2.950	0.300	-0.340	0.040
2020/01/31 21:31:31.2	2.940	0.340	-0.370	0.060
2020/01/31 21:31:31.3	2.930	0.380	-0.410	0.080
2020/01/31 21:31:31.4	2.930	0.420	-0.450	0.090
2020/01/31 21:31:31.5	2.920	0.460	-0.480	0.110
2020/01/31 21:31:31.6	2.920	0.500	-0.510	0.120
2020/01/31 21:31:31.7	2.920	0.530	-0.540	0.140
2020/01/31 21:31:31.8	2.920	0.560	-0.570	0.150
2020/01/31 21:31:31.9	2.930	0.580	-0.600	0.160
2020/01/31 21:31:32.0	2.930	0.610	-0.620	0.170
2020/01/31 21:31:32.1	2.930	0.630	-0.640	0.180
2020/01/31 21:31:32.2	2.940	0.640	-0.660	0.190
2020/01/31 21:31:32.3	2.950	0.650	-0.680	0.190
2020/01/31 21:31:32.4	2.960	0.660	-0.700	0.190
2020/01/31 21:31:32.5	2.970	0.660	-0.710	0.190
2020/01/31 21:31:32.6	2.980	0.660	-0.730	0.180
2020/01/31 21:31:32.7	3.000	0.650	-0.740	0.170
2020/01/31 21:31:32.8	3.010	0.640	-0.750	0.160
2020/01/31 21:31:32.9	3.020	0.630	-0.760	0.140
2020/01/31 21:31:33.0	3.040	0.610	-0.770	0.130
2020/01/31 21:31:33.1	3.060	0.590	-0.780	0.110
2020/01/31 21:31:33.2	3.090	0.570	-0.790	0.080
2020/01/31 21:31:33.3	3.110	0.540	-0.790	0.060
2020/01/31 21:31:33.4	3.140	0.510	-0.790	0.030
2020/01/31 21:31:33.5	3.160	0.480	-0.790	0.000
2020/01/31 21:31:33.6	3.190	0.440	-0.790	-0.030
2020/01/31 21:31:33.7	3.220	0.400	-0.790	-0.060
2020/01/31 21:31:33.8	3.250	0.360	-0.790	-0.100
2020/01/31 21:31:33.9	3.280	0.320	-0.780	-0.130
2020/01/31 21:31:34.0	3.310	0.270	-0.780	-0.170
2020/01/31 21:31:34.1	3.350	0.230	-0.770	-0.210
2020/01/31 21:31:34.2	3.380	0.180	-0.760	-0.250
2020/01/31 21:31:34.3	3.420	0.140	-0.750	-0.290
2020/01/31 21:31:34.4	3.450	0.090	-0.740	-0.330
2020/01/31 21:31:34.5	3.490	0.040	-0.730	-0.380
2020/01/31 21:31:34.6	3.530	-0.000	-0.720	-0.420
2020/01/31 21:31:34.7	3.570	-0.050	-0.710	-0.470
2020/01/31 21:31:34.8	3.610	-0.090	-0.700	-0.510
2020/01/31 21:31:34.9	3.660	-0.140	-0.680	-0.560
2020/01/31 21:31:35.0	3.710	-0.180	-0.670	-0.610
2020/01/31 21:31:35.1	3.750	-0.220	-0.660	-0.660
2020/01/31 21:31:35.2	3.790	-0.260	-0.650	-0.700
2020/01/31 21:31:35.3	3.830	-0.290	-0.640	-0.740
2020/01/31 21:31:35.4	3.870	-0.330	-0.630	-0.780
2020/01/31 21:31:35.5	3.910	-0.360	-0.620	-0.820
2020/01/31 21:31:35.6	3.950	-0.390	-0.610	-0.850
2020/01/31 21:31:35.7	3.980	-0.420	-0.600	-0.880
2020/01/31 21:31:35.8	4.020	-0.440	-0.580	-0.910
2020/01/31 21:31:35.9	4.050	-0.460	-0.570	-0.940
2020/01/31 21:31:36.0	4.080	-0.480	-0.560	-0.960
2020/01/31 21:31:36.1	4.100	-0.490	-0.540	-0.980
2020/01/31 21:31:36.2	4.130	-0.500	-0.520	-0.990
2020/01/31 21:31:36.3	4.150	-0.510	-0.500	-1.000
2020/01/31 21:31:36.4	4.160	-0.520	-0.480	-1.010
2020/01/31 21:31:36.5	4.180	-0.520	-0.460	-1.010
2020/01/31 21:31:36.6	4.180	-0.530	-0.430	-1.010
2020/01/31 21:31:36.7	4.190	-0.520	-0.410	-1.000
2020/01/31 21:31:36.8	4.190	-0.520	-0.370	-0.990
2020/01/31 21:31:36.9	4.200	-0.510	-0.340	-0.970
2020/01/31 21:31:37.0	4.190	-0.500	-0.300	-0.950
2020/01/31 21:31:37.1	4.180	-0.490	-0.260	-0.930
2020/01/31 21:31:37.2	4.160	-0.480	-0.220	-0.900
2020/01/31 21:31:37.3	4.140	-0.460	-0.170	-0.860
2020/01/31 21:31:37.4	4.120	-0.450	-0.130	-0.820
2020/01/31 21:31:37.5	4.090	-0.430	-0.080	-0.780
2020/01/31 21:31:37.6	4.060	-0.410	-0.030	-0.740
2020/01/31 21:31:37.7	4.020	-0.390	0.020	-0.690
2020/01/31 21:31:37.8	3.980	-0.370	0.070	-0.630
2020/01/31 21:31:37.9	3.930	-0.350	0.120	-0.570
2020/01/31 21:31:38.0	3.890	-0.320	0.170	-0.520
2020/01/31 21:31:38.1	3.840	-0.300	0.220	-0.460
2020/01/31 21:31:38.2	3.790	-0.280	0.270	-0.400
2020/01/31 21:31:38.3	3.730	-0.260	0.320	-0.340
2020/01/31 21:31:38.4	3.680	-0.230	0.360	-0.280
2020/01/31 21:31:38.5	3.620	-0.210	0.400	-0.230
2020/01/31 21:31:38.6	3.570	-0.190	0.430	-0.170
2020/01/31 21:31:38.7	3.510	-0.170	0.460	-0.120
2020/01/31 21:31:38.8	3.460	-0.140	0.490	-0.060
2020/01/31 21:31:38.9	3.400	-0.120	0.510	-0.010
2020/01/31 21:31:39.0	3.350	-0.100	0.520	0.030
2020/01/31 21:31:39.1	3.300	-0.080	0.530	0.080
2020/01/31 21:31:39.2	3.250	-0.060	0.530	0.120
2020/01/31 21:31:39.3	3.210	-0.040	0.530	0.150
2020/01/31 21:31:39.4	3.160	-0.010	0.520	0.180
2020/01/31 21:31:39.5	3.120	0.010	0.500	0.210
2020/01/31 21:31:39.6	3.080	0.030	0.480	0.230
2020/01/31 21:31:39.7	3.040	0.050	0.460	0.250
2020/01/31 21:31:39.8	3.010	0.070	0.430	0.260
2020/01/31 21:31:39.9	2.970	0.090	0.390	0.270
2020/01/31 21:31:40.0	2.940	0.110	0.360	0.270
2020/01/31 21:31:40.1	2.910	0.120	0.320	0.270
2020/01/31 21:31:40.2	2.890	0.140	0.270	0.270
2020/01/31 21:31:40.3	2.870	0.160	0.230	0.270
2020/01/31 21:31:40.4	2.850	0.180	0.190	0.270
2020/01/31 21:31:40.5	2.830	0.190	0.140	0.260
2020/01/31 21:31:40.6	2.810	0.210	0.100	0.260
2020/01/31 21:31:40.7	2.800	0.230	0.060	0.250
2020/01/31 21:31:40.8	2.790	0.240	0.010	0.240
2020/01/31 21:31:40.9	2.790	0.260	-0.030	0.230
2020/01/31 21:31:41.0	2.790	0.270	-0.070	0.230
2020/01/31 21:31:41.1	2.780	0.280	-0.100	0.220
2020/01/31 21:31:41.2	2.780	0.290	-0.140	0.210
2020/01/31 21:31:41.3	2.780	0.300	-0.170	0.200
2020/01/31 21:31:41.4	2.780	0.310	-0.210	0.200
2020/01/31 21:31:41.5	2.780	0.320	-0.240	0.190
2020/01/31 21:31:41.6	2.790	0.330	-0.270	0.180
2020/01/31 21:31:41.7	2.800	0.340	-0.300	0.160
2020/01/31 21:31:41.8	2.810	0.340	-0.320	0.150
2020/01/31 21:31:41.9	2.820	0.340	-0.350	0.130
2020/01/31 21:31:42.0	2.830	0.350	-0.380	0.120
2020/01/31 21:31:42.1	2.850	0.350	-0.410	0.100
2020/01/31 21:31:42.2	2.870	0.350	-0.430	0.080
2020/01/31 21:31:42.3	2.890	0.350	-0.460	0.060
2020/01/31 21:31:42.4	2.920	0.350	-0.480	0.030
2020/01/31 21:31:42.5	2.940	0.340	-0.510	0.000
2020/01/31 21:31:42.6	2.970	0.340	-0.530	-0.020
2020/01/31 21:31:42.7	3.000	0.330	-0.550	-0.050
2020/01/31 21:31:42.8	3.030	0.330	-0.580	-0.090
2020/01/31 21:31:42.9	3.070	0.320	-0.600	-0.120
2020/01/31 21:31:43.0	3.100	0.310	-0.620	-0.150
2020/01/31 21:31:43.1	3.140	0.300	-0.640	-0.190
2020/01/31 21:31:43.2	3.170	0.290	-0.660	-0.230
2020/01/31 21:31:43.3	3.210	0.280	-0.680	-0.270
2020/01/31 21:31:43.4	3.250	0.270	-0.700	-0.310
2020/01/31 21:31:43.5	3.290	0.260	-0.720	-0.350
2020/01/31 21:31:43.6	3.330	0.240	-0.730	-0.390
2020/01/31 21:31:43.7	3.370	0.230	-0.750	-0.430
2020/01/31 21:31:43.8	3.420	0.220	-0.760	-0.470
2020/01/31 21:31:43.9	3.460	0.200	-0.770	-0.520
2020/01/31 21:31:44.0	3.500	0.180	-0.770	-0.560
2020/01/31 21:31:44.1	3.540	0.170	-0.780	-0.600
2020/01/31 21:31:44.2	3.590	0.150	-0.780	-0.640
2020/01/31 21:31:44.3	3.630	0.130	-0.780	-0.690
2020/01/31 21:31:44.4	3.680	0.120	-0.770	-0.730
2020/01/31 21:31:44.5	3.720	0.100	-0.760	-0.760
2020/01/31 21:31:44.6	3.760	0.080	-0.750	-0.800
2020/01/31 21:31:44.7	3.800	0.060	-0.740	-0.830
2020/01/31 21:31:44.8	3.840	0.040	-0.720	-0.860
2020/01/31 21:31:44.9	3.890	0.020	-0.700	-0.890
2020/01/31 21:31:45.0	3.920	0.000	-0.670	-0.920
2020/01/31 21:31:45.1	3.960	-0.020	-0.640	-0.940
2020/01/31 21:31:45.2	3.980	-0.040	-0.610	-0.960
2020/01/31 21:31:45.3	4.010	-0.060	-0.580	-0.970
2020/01/31 21:31:45.4	4.030	-0.080	-0.540	-0.990
2020/01/31 21:31:45.5	4.040	-0.110	-0.500	-0.990
2020/01/31 21:31:45.6	4.060	-0.130	-0.460	-1.000
2020/01/31 21:31:45.7	4.060	-0.150	-0.420	-0.990
2020/01/31 21:31:45.8	4.070	-0.170	-0.370	-0.990
2020/01/31 21:31:45.9	4.080	-0.190	-0.330	-0.970
2020/01/31 21:31:46.0	4.070	-0.210	-0.280	-0.960
2020/01/31 21:31:46.1	4.060	-0.230	-0.230	-0.940
2020/01/31 21:31:46.2	4.050	-0.250	-0.180	-0.910
2020/01/31 21:31:46.3	4.030	-0.270	-0.140	-0.880
2020/01/31 21:31:46.4	4.010	-0.280	-0.090	-0.850
2020/01/31 21:31:46.5	3.990	-0.300	-0.050	-0.810
2020/01/31 21:31:46.6	3.960	-0.310	-0.000	-0.770
2020/01/31 21:31:46.7	3.920	-0.320	0.040	-0.730
2020/01/31 21:31:46.8	3.890	-0.340	0.070	-0.680
2020/01/31 21:31:46.9	3.850	-0.340	0.110	-0.640
2020/01/31 21:31:47.0	3.810	-0.350	0.140	-0.590
2020/01/31 21:31:47.1	3.770	-0.350	0.160	-0.540
2020/01/31 21:31:47.2	3.720	-0.360	0.190	-0.500
2020/01/31 21:31:47.3	3.680	-0.350	0.200	-0.450
2020/01/31 21:31:47.4	3.640	-0.350	0.220	-0.400
2020/01/31 21:31:47.5	3.590	-0.340	0.230	-0.350
2020/01/31 21:31:47.6	3.540	-0.330	0.230	-0.300
2020/01/31 21:31:47.7	3.500	-0.320	0.230	-0.250
2020/01/31 21:31:47.8	3.450	-0.310	0.230	-0.210
2020/01/31 21:31:47.9	3.390	-0.290	0.220	-0.160
2020/01/31 21:31:48.0	3.350	-0.270	0.200	-0.120
2020/01/31 21:31:48.1	3.300	-0.240	0.190	-0.070
2020/01/31 21:31:48.2	3.260	-0.210	0.170	-0.030
2020/01/31 21:31:48.3	3.210	-0.190	0.140	0.020
2020/01/31 21:31:48.4	3.170	-0.150	0.120	0.060
2020/01/31 21:31:48.5	3.120	-0.120	0.090	0.100
2020/01/31 21:31:48.6	3.080	-0.090	0.060	0.140
2020/01/31 21:31:48.7	3.040	-0.050	0.030	0.170
2020/01/31 21:31:48.8	3.010	-0.020	0.000	0.200
2020/01/31 21:31:48.9	2.980	0.020	-0.030	0.230
2020/01/31 21:31:49.0	2.940	0.060	-0.060	0.260
2020/01/31 21:31:49.1	2.910	0.090	-0.090	0.280
2020/01/31 21:31:49.2	2.880	0.130	-0.120	0.300
2020/01/31 21:31:49.3	2.860	0.160	-0.150	0.310
2020/01/31 21:31:49.4	2.830	0.190	-0.180	0.320
2020/01/31 21:31:49.5	2.810	0.220	-0.210	0.330
2020/01/31 21:31:49.6	2.790	0.250	-0.230	0.330
2020/01/31 21:31:49.7	2.780	0.280	-0.260	0.330
2020/01/31 21:31:49.8	2.770	0.300	-0.280	0.330
2020/01/31 21:31:49.9	2.770	0.320	-0.300	0.330
2020/01/31 21:31:50.0	2.770	0.340	-0.320	0.320
2020/01/31 21:31:50.1	2.760	0.350	-0.330	0.310
2020/01/31 21:31:50.2	2.760	0.360	-0.350	0.300
2020/01/31 21:31:50.3	2.760	0.360	-0.350	0.290
2020/01/31 21:31:50.4	2.770	0.370	-0.360	0.280
2020/01/31 21:31:50.5	2.770	0.360	-0.360	0.260
2020/01/31 21:31:50.6	2.770	0.350	-0.360	0.240
2020/01/31 21:31:50.7	2.780	0.340	-0.360	0.220
2020/01/31 21:31:50.8	2.790	0.330	-0.360	0.200
2020/01/31 21:31:50.9	2.790	0.310	-0.350	0.180
2020/01/31 21:31:51.0	2.810	0.290	-0.340	0.150
2020/01/31 21:31:51.1	2.820	0.260	-0.330	0.120
2020/01/31 21:31:51.2	2.840	0.230	-0.320	0.090
2020/01/31 21:31:51.3	2.850	0.200	-0.310	0.050
2020/01/31 21:31:51.4	2.870	0.170	-0.300	0.020
2020/01/31 21:31:51.5	2.900	0.130	-0.290	-0.020
2020/01/31 21:31:51.6	2.920	0.100	-0.280	-0.060
2020/01/31 21:31:51.7	2.950	0.060	-0.270	-0.100
2020/01/31 21:31:51.8	2.980	0.020	-0.260	-0.150
2020/01/31 21:31:51.9	3.000	-0.020	-0.250	-0.190
2020/01/31 21:31:52.0	3.040	-0.050	-0.250	-0.230
2020/01/31 21:31:52.1	3.070	-0.090	-0.240	-0.280
2020/01/31 21:31:52.2	3.110	-0.130	-0.240	-0.330
2020/01/31 21:31:52.3	3.140	-0.160	-0.240	-0.370
2020/01/31 21:31:52.4	3.180	-0.190	-0.240	-0.420
2020/01/31 21:31:52.5	3.230	-0.220	-0.240	-0.460
2020/01/31 21:31:52.6	3.270	-0.250	-0.250	-0.510
2020/01/31 21:31:52.7	3.310	-0.280	-0.260	-0.550
2020/01/31 21:31:52.8	3.350	-0.300	-0.270	-0.590
2020/01/31 21:31:52.9	3.390	-0.320	-0.280	-0.630
2020/01/31 21:31:53.0	3.430	-0.330	-0.300	-0.670
2020/01/31 21:31:53.1	3.470	-0.340	-0.310	-0.710
2020/01/31 21:31:53.2	3.510	-0.350	-0.330	-0.740
2020/01/31 21:31:53.3	3.560	-0.350	-0.350	-0.770
2020/01/31 21:31:53.4	3.600	-0.350	-0.380	-0.800
2020/01/31 21:31:53.5	3.630	-0.350	-0.400	-0.830
2020/01/31 21:31:53.6	3.670	-0.340	-0.420	-0.850
2020/01/31 21:31:53.7	3.710	-0.330	-0.450	-0.870
2020/01/31 21:31:53.8	3.740	-0.320	-0.470	-0.880
2020/01/31 21:31:53.9	3.770	-0.300	-0.500	-0.890
2020/01/31 21:31:54.0	3.800	-0.280	-0.520	-0.900
2020/01/31 21:31:54.1	3.830	-0.260	-0.540	-0.900
2020/01/31 21:31:54.2	3.850	-0.230	-0.560	-0.900
2020/01/31 21:31:54.3	3.870	-0.210	-0.570	-0.890
2020/01/31 21:31:54.4	3.890	-0.180	-0.590	-0.870
2020/01/31 21:31:54.5	3.900	-0.150	-0.600	-0.850
2020/01/31 21:31:54.6	3.910	-0.120	-0.610	-0.830
2020/01/31 21:31:54.7	3.910	-0.080	-0.610	-0.800
2020/01/31 21:31:54.8	3.920	-0.050	-0.620	-0.760
2020/01/31 21:31:54.9	3.920	-0.020	-0.620	-0.720
2020/01/31 21:31:55.0	3.920	0.020	-0.610	-0.680
2020/01/31 21:31:55.1	3.910	0.050	-0.600	-0.640
2020/01/31 21:31:55.2	3.900	0.080	-0.590	-0.600
2020/01/31 21:31:55.3	3.890	0.110	-0.580	-0.550
2020/01/31 21:31:55.4	3.880	0.140	-0.560	-0.500
2020/01/31 21:31:55.5	3.860	0.160	-0.540	-0.450
2020/01/31 21:31:55.6	3.840	0.190	-0.520	-0.400
2020/01/31 21:31:55.7	3.820	0.210	-0.500	-0.350
2020/01/31 21:31:55.8	3.800	0.230	-0.470	-0.300
2020/01/31 21:31:55.9	3.770	0.250	-0.450	-0.250
2020/01/31 21:31:56.0	3.750	0.260	-0.420	-0.200
2020/01/31 21:31:56.1	3.730	0.280	-0.390	-0.160
2020/01/31 21:31:56.2	3.710	0.280	-0.360	-0.120
2020/01/31 21:31:56.3	3.690	0.290	-0.330	-0.080
2020/01/31 21:31:56.4	3.670	0.290	-0.300	-0.040
2020/01/31 21:31:56.5	3.650	0.300	-0.270	-0.010
2020/01/31 21:31:56.6	3.630	0.290	-0.240	0.020
2020/01/31 21:31:56.7	3.620	0.290	-0.210	0.040
2020/01/31 21:31:56.8	3.600	0.280	-0.180	0.060
2020/01/31 21:31:56.9	3.580	0.270	-0.150	0.070
2020/01/31 21:31:57.0	3.560	0.260	-0.120	0.080
2020/01/31 21:31:57.1	3.550	0.240	-0.090	0.090
2020/01/31 21:31:57.2	3.540	0.220	-0.070	0.090
2020/01/31 21:31:57.3	3.520	0.200	-0.040	0.080
2020/01/31 21:31:57.4	3.510	0.180	-0.020	0.070
2020/01/31 21:31:57.5	3.500	0.160	0.000	0.060
2020/01/31 21:31:57.6	3.490	0.130	0.020	0.040
2020/01/31 21:31:57.7	3.480	0.100	0.040	0.020
2020/01/31 21:31:57.8	3.460	0.070	0.060	-0.000
2020/01/31 21:31:57.9	3.450	0.040	0.080	-0.030
2020/01/31 21:31:58.0	3.440	0.010	0.090	-0.050
2020/01/31 21:31:58.1	3.430	-0.020	0.110	-0.080
2020/01/31 21:31:58.2	3.420	-0.050	0.130	-0.110
2020/01/31 21:31:58.3	3.410	-0.080	0.140	-0.150
2020/01/31 21:31:58.4	3.390	-0.110	0.160	-0.180
2020/01/31 21:31:58.5	3.380	-0.140	0.170	-0.210
2020/01/31 21:31:58.6	3.370	-0.170	0.180	-0.250
2020/01/31 21:31:58.7	3.360	-0.190	0.200	-0.280
2020/01/31 21:31:58.8	3.350	-0.220	0.210	-0.320
2020/01/31 21:31:58.9	3.330	-0.250	0.220	-0.350
2020/01/31 21:31:59.0	3.320	-0.270	0.230	-0.380
2020/01/31 21:31:59.1	3.310	-0.290	0.230	-0.420
2020/01/31 21:31:59.2	3.300	-0.310	0.240	-0.450
2020/01/31 21:31:59.3	3.290	-0.320	0.250	-0.480
2020/01/31 21:31:59.4	3.290	-0.330	0.250	-0.510
2020/01/31 21:31:59.5	3.280	-0.340	0.250	-0.530
2020/01/31 21:31:59.6	3.280	-0.350	0.250	-0.560
2020/01/31 21:31:59.7	3.280	-0.350	0.240	-0.590
2020/01/31 21:31:59.8	3.280	-0.340	0.230	-0.610
2020/01/31 21:31:59.9	3.280	-0.340	0.220	-0.630
2020/01/31 21:32:00.0	3.290	-0.330	0.210	-0.650
2020/01/31 21:32:00.1	3.290	-0.310	0.190	-0.670
2020/01/31 21:32:00.2	3.300	-0.290	0.170	-0.680
2020/01/31 21:32:00.3	3.320	-0.270	0.150	-0.700
2020/01/31 21:32:00.4	3.330	-0.240	0.120	-0.710
2020/01/31 21:32:00.5	3.350	-0.210	0.090	-0.720
2020/01/31 21:32:00.6	3.370	-0.170	0.060	-0.730
2020/01/31 21:32:00.7	3.390	-0.130	0.020	-0.740
2020/01/31 21:32:00.8	3.410	-0.090	-0.020	-0.740
2020/01/31 21:32:00.9	3.430	-0.040	-0.060	-0.740
2020/01/31 21:32:01.0	3.450	0.010	-0.100	-0.730
2020/01/31 21:32:01.1	3.480	0.060	-0.140	-0.720
2020/01/31 21:32:01.2	3.500	0.110	-0.190	-0.710
2020/01/31 21:32:01.3	3.520	0.170	-0.230	-0.700
2020/01/31 21:32:01.4	3.550	0.220	-0.280	-0.680
2020/01/31 21:32:01.5	3.570	0.280	-0.320	-0.650
2020/01/31 21:32:01.6	3.590	0.330	-0.360	-0.630
2020/01/31 21:32:01.7	3.610	0.390	-0.410	-0.590
2020/01/31 21:32:01.8	3.630	0.440	-0.440	-0.560
2020/01/31 21:32:01.9	3.650	0.490	-0.480	-0.520
2020/01/31 21:32:02.0	3.660	0.530	-0.510	-0.480
2020/01/31 21:32:02.1	3.670	0.580	-0.540	-0.440
2020/01/31 21:32:02.2	3.680	0.610	-0.570	-0.390
2020/01/31 21:32:02.3	3.680	0.650	-0.590	-0.350
2020/01/31 21:32:02.4	3.680	0.680	-0.610	-0.300
2020/01/31 21:32:02.5	3.680	0.700	-0.620	-0.260
2020/01/31 21:32:02.6	3.680	0.720	-0.630	-0.210
2020/01/31 21:32:02.7	3.670	0.730	-0.640	-0.170
2020/01/31 21:32:02.8	3.660	0.730	-0.640	-0.130
2020/01/31 21:32:02.9	3.650	0.730	-0.640	-0.090
2020/01/31 21:32:03.0	3.630	0.720	-0.640	-0.060
2020/01/31 21:32:03.1	3.620	0.700	-0.630	-0.020
2020/01/31 21:32:03.2	3.600	0.680	-0.620	0.000
2020/01/31 21:32:03.3	3.580	0.650	-0.600	0.030
2020/01/31 21:32:03.4	3.570	0.620	-0.590	0.050
2020/01/31 21:32:03.5	3.550	0.580	-0.570	0.060
2020/01/31 21:32:03.6	3.530	0.530	-0.550	0.070
2020/01/31 21:32:03.7	3.520	0.480	-0.530	0.070
2020/01/31 21:32:03.8	3.500	0.420	-0.510	0.070
2020/01/31 21:32:03.9	3.480	0.360	-0.500	0.070
2020/01/31 21:32:04.0	3.470	0.300	-0.480	0.050
2020/01/31 21:32:04.1	3.460	0.230	-0.460	0.040
2020/01/31 21:32:04.2	3.450	0.160	-0.450	0.010
2020/01/31 21:32:04.3	3.440	0.090	-0.430	-0.020
2020/01/31 21:32:04.4	3.440	0.010	-0.420	-0.060
2020/01/31 21:32:04.5	3.440	-0.060	-0.410	-0.100
2020/01/31 21:32:04.6	3.440	-0.140	-0.400	-0.140
2020/01/31 21:32:04.7	3.440	-0.210	-0.390	-0.200
2020/01/31 21:32:04.8	3.450	-0.290	-0.390	-0.250
2020/01/31 21:32:04.9	3.470	-0.360	-0.380	-0.320
2020/01/31 21:32:05.0	3.480	-0.430	-0.380	-0.390
2020/01/31 21:32:05.1	3.500	-0.500	-0.380	-0.460
2020/01/31 21:32:05.2	3.530	-0.560	-0.390	-0.540
2020/01/31 21:32:05.3	3.550	-0.630	-0.400	-0.620
2020/01/31 21:32:05.4	3.580	-0.680	-0.410	-0.700
2020/01/31 21:32:05.5	3.620	-0.740	-0.420	-0.790
2020/01/31 21:32:05.6	3.650	-0.780	-0.440	-0.880
2020/01/31 21:32:05.7	3.690	-0.830	-0.460	-0.970
2020/01/31 21:32:05.8	3.730	-0.860	-0.470	-1.060
2020/01/31 21:32:05.9	3.780	-0.900	-0.490	-1.150
2020/01/31 21:32:06.0	3.820	-0.920	-0.510	-1.230
2020/01/31 21:32:06.1	3.870	-0.940	-0.530	-1.320
2020/01/31 21:32:06.2	3.910	-0.960	-0.540	-1.400
2020/01/31 21:32:06.3	3.960	-0.970	-0.560	-1.470
2020/01/31 21:32:06.4	4.010	-0.970	-0.580	-1.540
2020/01/31 21:32:06.5	4.050	-0.970	-0.590	-1.610
2020/01/31 21:32:06.6	4.100	-0.970	-0.600	-1.670
2020/01/31 21:32:06.7	4.140	-0.960	-0.600	-1.720
2020/01/31 21:32:06.8	4.180	-0.940	-0.610	-1.770
2020/01/31 21:32:06.9	4.240	-0.920	-0.620	-1.810
2020/01/31 21:32:07.0	4.280	-0.900	-0.610	-1.840
2020/01/31 21:32:07.1	4.310	-0.880	-0.610	-1.870
2020/01/31 21:32:07.2	4.350	-0.850	-0.600	-1.890
2020/01/31 21:32:07.3	4.380	-0.820	-0.590	-1.900
2020/01/31 21:32:07.4	4.410	-0.790	-0.570	-1.910
2020/01/31 21:32:07.5	4.440	-0.750	-0.550	-1.920
2020/01/31 21:32:07.6	4.470	-0.720	-0.530	-1.910
2020/01/31 21:32:07.7	4.490	-0.680	-0.510	-1.900
2020/01/31 21:32:07.8	4.520	-0.640	-0.480	-1.890
2020/01/31 21:32:07.9	4.530	-0.600	-0.450	-1.870
2020/01/31 21:32:08.0	4.550	-0.560	-0.410	-1.840
2020/01/31 21:32:08.1	4.570	-0.520	-0.380	-1.810
2020/01/31 21:32:08.2	4.580	-0.470	-0.350	-1.780
2020/01/31 21:32:08.3	4.590	-0.430	-0.310	-1.730
2020/01/31 21:32:08.4	4.600	-0.390	-0.270	-1.690
2020/01/31 21:32:08.5	4.610	-0.340	-0.240	-1.630
2020/01/31 21:32:08.6	4.610	-0.300	-0.200	-1.580
2020/01/31 21:32:08.7	4.610	-0.250	-0.160	-1.520
2020/01/31 21:32:08.8	4.610	-0.210	-0.120	-1.450
2020/01/31 21:32:08.9	4.610	-0.170	-0.090	-1.380
2020/01/31 21:32:09.0	4.600	-0.120	-0.050	-1.300
2020/01/31 21:32:09.1	4.590	-0.080	-0.010	-1.230
2020/01/31 21:32:09.2	4.580	-0.030	0.030	-1.140
2020/01/31 21:32:09.3	4.570	0.010	0.070	-1.060
2020/01/31 21:32:09.4	4.550	0.050	0.110	-0.970
2020/01/31 21:32:09.5	4.530	0.100	0.140	-0.880
2020/01/31 21:32:09.6	4.510	0.140	0.180	-0.780
2020/01/31 21:32:09.7	4.490	0.180	0.220	-0.680
2020/01/31 21:32:09.8	4.470	0.230	0.250	-0.590
2020/01/31 21:32:09.9	4.440	0.270	0.290	-0.480
2020/01/31 21:32:10.0	4.410	0.310	0.320	-0.380
2020/01/31 21:32:10.1	4.380	0.350	0.350	-0.280
2020/01/31 21:32:10.2	4.350	0.400	0.380	-0.170
2020/01/31 21:32:10.3	4.310	0.440	0.410	-0.070
2020/01/31 21:32:10.4	4.280	0.480	0.430	0.030
2020/01/31 21:32:10.5	4.240	0.520	0.450	0.130
2020/01/31 21:32:10.6	4.210	0.560	0.460	0.230
2020/01/31 21:32:10.7	4.170	0.600	0.480	0.330
2020/01/31 21:32:10.8	4.130	0.640	0.480	0.420
2020/01/31 21:32:10.9	4.090	0.680	0.480	0.510
2020/01/31 21:32:11.0	4.050	0.720	0.480	0.590
2020/01/31 21:32:11.1	4.020	0.760	0.470	0.670
2020/01/31 21:32:11.2	3.980	0.790	0.460	0.750
2020/01/31 21:32:11.3	3.950	0.830	0.440	0.820
2020/01/31 21:32:11.4	3.920	0.860	0.420	0.880
2020/01/31 21:32:11.5	3.880	0.890	0.390	0.930
2020/01/31 21:32:11.6	3.850	0.920	0.350	0.980
2020/01/31 21:32:11.7	3.830	0.950	0.320	1.020
2020/01/31 21:32:11.8	3.800	0.970	0.270	1.060
2020/01/31 21:32:11.9	3.780	0.990	0.230	1.080
2020/01/31 21:32:12.0	3.760	1.010	0.180	1.100
2020/01/31 21:32:12.1	3.740	1.030	0.130	1.110
2020/01/31 21:32:12.2	3.720	1.040	0.070	1.110
2020/01/31 21:32:12.3	3.710	1.050	0.010	1.100
2020/01/31 21:32:12.4	3.700	1.060	-0.050	1.090
2020/01/31 21:32:12.5	3.690	1.060	-0.110	1.070
2020/01/31 21:32:12.6	3.680	1.050	-0.180	1.040
2020/01/31 21:32:12.7	3.680	1.050	-0.240	1.000
2020/01/31 21:32:12.8	3.680	1.040	-0.310	0.960
2020/01/31 21:32:12.9	3.680	1.020	-0.370	0.910
2020/01/31 21:32:13.0	3.680	1.000	-0.430	0.850
2020/01/31 21:32:13.1	3.690	0.980	-0.500	0.780
2020/01/31 21:32:13.2	3.700	0.950	-0.560	0.710
2020/01/31 21:32:13.3	3.720	0.910	-0.620	0.630
2020/01/31 21:32:13.4	3.740	0.870	-0.680	0.550
2020/01/31 21:32:13.5	3.760	0.830	-0.730	0.460
2020/01/31 21:32:13.6	3.780	0.790	-0.790	0.360
2020/01/31 21:32:13.7	3.810	0.740	-0.840	0.260
2020/01/31 21:32:13.8	3.840	0.680	-0.890	0.160
2020/01/31 21:32:13.9	3.860	0.630	-0.930	0.040
2020/01/31 21:32:14.0	3.900	0.570	-0.970	-0.070
2020/01/31 21:32:14.1	3.940	0.510	-1.000	-0.190
2020/01/31 21:32:14.2	3.980	0.440	-1.030	-0.300
2020/01/31 21:32:14.3	4.030	0.380	-1.060	-0.420
2020/01/31 21:32:14.4	4.070	0.310	-1.090	-0.550
2020/01/31 21:32:14.5	4.120	0.240	-1.100	-0.670
2020/01/31 21:32:14.6	4.180	0.170	-1.120	-0.790
2020/01/31 21:32:14.7	4.230	0.090	-1.130	-0.910
2020/01/31 21:32:14.8	4.290	0.020	-1.130	-1.030
2020/01/31 21:32:14.9	4.340	-0.050	-1.130	-1.150
2020/01/31 21:32:15.0	4.400	-0.120	-1.120	-1.270
2020/01/31 21:32:15.1	4.460	-0.200	-1.100	-1.380
2020/01/31 21:32:15.2	4.520	-0.270	-1.080	-1.490
2020/01/31 21:32:15.3	4.570	-0.340	-1.060	-1.600
2020/01/31 21:32:15.4	4.630	-0.410	-1.030	-1.700
2020/01/31 21:32:15.5	4.690	-0.480	-0.990	-1.790
2020/01/31 21:32:15.6	4.740	-0.540	-0.950	-1.880
2020/01/31 21:32:15.7	4.800	-0.600	-0.910	-1.970
2020/01/31 21:32:15.8	4.850	-0.660	-0.860	-2.050
2020/01/31 21:32:15.9	4.890	-0.720	-0.810	-2.120
2020/01/31 21:32:16.0	4.940	-0.780	-0.750	-2.190
2020/01/31 21:32:16.1	4.980	-0.830	-0.690	-2.250
2020/01/31 21:32:16.2	5.020	-0.880	-0.620	-2.300
2020/01/31 21:32:16.3	5.060	-0.920	-0.560	-2.340
2020/01/31 21:32:16.4	5.100	-0.970	-0.490	-2.380
2020/01/31 21:32:16.5	5.130	-1.000	-0.420	-2.400
2020/01/31 21:32:16.6	5.160	-1.040	-0.350	-2.420
2020/01/31 21:32:16.7	5.180	-1.070	-0.270	-2.430
2020/01/31 21:32:16.8	5.200	-1.090	-0.200	-2.430
2020/01/31 21:32:16.9	5.210	-1.110	-0.130	-2.420
2020/01/31 21:32:17.0	5.220	-1.130	-0.060	-2.410
2020/01/31 21:32:17.1	5.230	-1.140	0.010	-2.390
2020/01/31 21:32:17.2	5.230	-1.150	0.080	-2.360
2020/01/31 21:32:17.3	5.230	-1.150	0.140	-2.320
2020/01/31 21:32:17.4	5.230	-1.150	0.210	-2.280
2020/01/31 21:32:17.5	5.220	-1.140	0.270	-2.230
2020/01/31 21:32:17.6	5.210	-1.130	0.320	-2.180
2020/01/31 21:32:17.7	5.200	-1.110	0.370	-2.120
2020/01/31 21:32:17.8	5.190	-1.100	0.420	-2.050
2020/01/31 21:32:17.9	5.180	-1.070	0.460	-1.970
2020/01/31 21:32:18.0	5.150	-1.050	0.500	-1.900
2020/01/31 21:32:18.1	5.130	-1.020	0.530	-1.820
2020/01/31 21:32:18.2	5.110	-0.980	0.560	-1.740
2020/01/31 21:32:18.3	5.080	-0.950	0.580	-1.660
2020/01/31 21:32:18.4	5.050	-0.910	0.590	-1.570
2020/01/31 21:32:18.5	5.030	-0.860	0.600	-1.490
2020/01/31 21:32:18.6	5.000	-0.820	0.600	-1.400
2020/01/31 21:32:18.7	4.970	-0.770	0.590	-1.320
2020/01/31 21:32:18.8	4.950	-0.720	0.580	-1.230
2020/01/31 21:32:18.9	4.920	-0.660	0.550	-1.140
2020/01/31 21:32:19.0	4.890	-0.610	0.520	-1.060
2020/01/31 21:32:19.1	4.870	-0.550	0.490	-0.980
2020/01/31 21:32:19.2	4.850	-0.490	0.450	-0.910
2020/01/31 21:32:19.3	4.830	-0.430	0.400	-0.830
2020/01/31 21:32:19.4	4.810	-0.370	0.340	-0.760
2020/01/31 21:32:19.5	4.790	-0.310	0.280	-0.690
2020/01/31 21:32:19.6	4.770	-0.250	0.220	-0.620
2020/01/31 21:32:19.7	4.750	-0.190	0.150	-0.550
2020/01/31 21:32:19.8	4.740	-0.120	0.080	-0.490
2020/01/31 21:32:19.9	4.720	-0.060	0.000	-0.420
2020/01/31 21:32:20.0	4.710	-0.000	-0.080	-0.360
2020/01/31 21:32:20.1	4.690	0.060	-0.150	-0.310
2020/01/31 21:32:20.2	4.680	0.120	-0.230	-0.250
2020/01/31 21:32:20.3	4.670	0.170	-0.310	-0.200
2020/01/31 21:32:20.4	4.660	0.230	-0.390	-0.160
2020/01/31 21:32:20.5	4.650	0.280	-0.470	-0.110
2020/01/31 21:32:20.6	4.640	0.330	-0.540	-0.070
2020/01/31 21:32:20.7	4.640	0.380	-0.610	-0.040
2020/01/31 21:32:20.8	4.630	0.430	-0.680	-0.000
2020/01/31 21:32:20.9	4.620	0.470	-0.750	0.020
2020/01/31 21:32:21.0	4.620	0.510	-0.810	0.050
2020/01/31 21:32:21.1	4.610	0.550	-0.870	0.070
2020/01/31 21:32:21.2	4.610	0.580	-0.920	0.090
2020/01/31 21:32:21.3	4.610	0.610	-0.960	0.100
2020/01/31 21:32:21.4	4.620	0.640	-1.000	0.110
2020/01/31 21:32:21.5	4.620	0.660	-1.030	0.120
2020/01/31 21:32:21.6	4.620	0.680	-1.060	0.130
2020/01/31 21:32:21.7	4.630	0.690	-1.080	0.130
2020/01/31 21:32:21.8	4.630	0.700	-1.090	0.140
2020/01/31 21:32:21.9	4.640	0.710	-1.100	0.140
2020/01/31 21:32:22.0	4.640	0.720	-1.100	0.140
2020/01/31 21:32:22.1	4.650	0.720	-1.090	0.130
2020/01/31 21:32:22.2	4.660	0.710	-1.080	0.130
2020/01/31 21:32:22.3	4.670	0.710	-1.060	0.120
2020/01/31 21:32:22.4	4.680	0.700	-1.030	0.110
2020/01/31 21:32:22.5	4.690	0.690	-1.000	0.110
2020/01/31 21:32:22.6	4.710	0.680	-0.960	0.100
2020/01/31 21:32:22.7	4.720	0.660	-0.920	0.090
2020/01/31 21:32:22.8	4.730	0.650	-0.870	0.080
2020/01/31 21:32:22.9	4.730	0.630	-0.820	0.070
2020/01/31 21:32:23.0	4.740	0.610	-0.760	0.070
2020/01/31 21:32:23.1	4.750	0.590	-0.700	0.060
2020/01/31 21:32:23.2	4.750	0.570	-0.640	0.060
2020/01/31 21:32:23.3	4.760	0.540	-0.570	0.060
2020/01/31 21:32:23.4	4.760	0.520	-0.510	0.060
2020/01/31 21:32:23.5	4.760	0.500	-0.440	0.060
2020/01/31 21:32:23.6	4.760	0.470	-0.370	0.060
2020/01/31 21:32:23.7	4.750	0.450	-0.300	0.060
2020/01/31 21:32:23.8	4.750	0.420	-0.230	0.060
2020/01/31 21:32:23.9	4.740	0.400	-0.160	0.070
2020/01/31 21:32:24.0	4.730	0.370	-0.100	0.070
2020/01/31 21:32:24.1	4.720	0.350	-0.030	0.070
2020/01/31 21:32:24.2	4.710	0.330	0.030	0.080
2020/01/31 21:32:24.3	4.700	0.300	0.090	0.080
2020/01/31 21:32:24.4	4.680	0.280	0.150	0.080
2020/01/31 21:32:24.5	4.670	0.260	0.200	0.080
2020/01/31 21:32:24.6	4.650	0.240	0.250	0.080
2020/01/31 21:32:24.7	4.630	0.220	0.300	0.080
2020/01/31 21:32:24.8	4.610	0.200	0.340	0.080
2020/01/31 21:32:24.9	4.590	0.190	0.380	0.080
2020/01/31 21:32:25.0	4.570	0.170	0.410	0.080
2020/01/31 21:32:25.1	4.550	0.160	0.450	0.070
2020/01/31 21:32:25.2	4.530	0.150	0.470	0.070
2020/01/31 21:32:25.3	4.500	0.140	0.500	0.060
2020/01/31 21:32:25.4	4.480	0.130	0.520	0.060
2020/01/31 21:32:25.5	4.460	0.120	0.530	0.050
2020/01/31 21:32:25.6	4.430	0.110	0.550	0.050
2020/01/31 21:32:25.7	4.400	0.100	0.560	0.040
2020/01/31 21:32:25.8	4.380	0.100	0.560	0.040
2020/01/31 21:32:25.9	4.350	0.090	0.560	0.030
2020/01/31 21:32:26.0	4.330	0.090	0.560	0.030
2020/01/31 21:32:26.1	4.300	0.090	0.550	0.020
2020/01/31 21:32:26.2	4.280	0.090	0.550	0.020
2020/01/31 21:32:26.3	4.250	0.090	0.530	0.010
2020/01/31 21:32:26.4	4.230	0.090	0.520	0.010
2020/01/31 21:32:26.5	4.210	0.090	0.500	0.010
2020/01/31 21:32:26.6	4.190	0.090	0.480	0.010
2020/01/31 21:32:26.7	4.170	0.090	0.450	0.010
2020/01/31 21:32:26.8	4.150	0.090	0.420	0.010
2020/01/31 21:32:26.9	4.140	0.090	0.390	0.010
2020/01/31 21:32:27.0	4.120	0.090	0.360	0.010
2020/01/31 21:32:27.1	4.100	0.090	0.320	0.010
2020/01/31 21:32:27.2	4.090	0.090	0.280	0.010
2020/01/31 21:32:27.3	4.080	0.090	0.230	0.000
2020/01/31 21:32:27.4	4.060	0.080	0.190	-0.000
2020/01/31 21:32:27.5	4.050	0.080	0.140	-0.010
2020/01/31 21:32:27.6	4.050	0.070	0.090	-0.020
2020/01/31 21:32:27.7	4.040	0.070	0.040	-0.030
2020/01/31 21:32:27.8	4.030	0.060	-0.020	-0.050
2020/01/31 21:32:27.9	4.020	0.050	-0.080	-0.060
2020/01/31 21:32:28.0	4.020	0.040	-0.140	-0.080
2020/01/31 21:32:28.1	4.020	0.020	-0.200	-0.100
2020/01/31 21:32:28.2	4.010	0.010	-0.260	-0.130
2020/01/31 21:32:28.3	4.020	-0.010	-0.320	-0.150
2020/01/31 21:32:28.4	4.020	-0.030	-0.380	-0.180
2020/01/31 21:32:28.5	4.020	-0.040	-0.440	-0.210
2020/01/31 21:32:28.6	4.020	-0.060	-0.500	-0.240
2020/01/31 21:32:28.7	4.030	-0.080	-0.560	-0.270
2020/01/31 21:32:28.8	4.030	-0.100	-0.620	-0.300
2020/01/31 21:32:28.9	4.040	-0.120	-0.680	-0.330
2020/01/31 21:32:29.0	4.050	-0.140	-0.740	-0.370
2020/01/31 21:32:29.1	4.060	-0.160	-0.790	-0.400
2020/01/31 21:32:29.2	4.080	-0.180	-0.850	-0.440
2020/01/31 21:32:29.3	4.090	-0.200	-0.900	-0.470
2020/01/31 21:32:29.4	4.110	-0.220	-0.950	-0.510
2020/01/31 21:32:29.5	4.130	-0.240	-1.000	-0.550
2020/01/31 21:32:29.6	4.160	-0.250	-1.050	-0.590
2020/01/31 21:32:29.7	4.190	-0.270	-1.090	-0.630
2020/01/31 21:32:29.8	4.210	-0.280	-1.130	-0.680
2020/01/31 21:32:29.9	4.240	-0.290	-1.170	-0.720
2020/01/31 21:32:30.0	4.270	-0.300	-1.210	-0.760
2020/01/31 21:32:30.1	4.310	-0.310	-1.240	-0.810
2020/01/31 21:32:30.2	4.350	-0.310	-1.260	-0.850
2020/01/31 21:32:30.3	4.390	-0.310	-1.280	-0.900
2020/01/31 21:32:30.4	4.440	-0.310	-1.300	-0.940
2020/01/31 21:32:30.5	4.490	-0.310	-1.320	-0.980
2020/01/31 21:32:30.6	4.540	-0.310	-1.320	-1.030
2020/01/31 21:32:30.7	4.590	-0.300	-1.330	-1.070
2020/01/31 21:32:30.8	4.650	-0.290	-1.320	-1.110
2020/01/31 21:32:30.9	4.710	-0.280	-1.320	-1.150
2020/01/31 21:32:31.0	4.770	-0.270	-1.300	-1.190
2020/01/31 21:32:31.1	4.830	-0.250	-1.290	-1.220
2020/01/31 21:32:31.2	4.900	-0.240	-1.260	-1.260
2020/01/31 21:32:31.3	4.960	-0.220	-1.230	-1.290
2020/01/31 21:32:31.4	5.020	-0.200	-1.200	-1.320
2020/01/31 21:32:31.5	5.080	-0.180	-1.160	-1.340
2020/01/31 21:32:31.6	5.140	-0.170	-1.110	-1.360
2020/01/31 21:32:31.7	5.200	-0.150	-1.060	-1.380
2020/01/31 21:32:31.8	5.250	-0.130	-1.000	-1.390
2020/01/31 21:32:31.9	5.300	-0.120	-0.940	-1.390
2020/01/31 21:32:32.0	5.350	-0.100	-0.870	-1.380
2020/01/31 21:32:32.1	5.390	-0.090	-0.790	-1.370
2020/01/31 21:32:32.2	5.430	-0.080	-0.710	-1.360
2020/01/31 21:32:32.3	5.470	-0.080	-0.620	-1.330
2020/01/31 21:32:32.4	5.490	-0.070	-0.530	-1.310
2020/01/31 21:32:32.5	5.520	-0.070	-0.440	-1.270
2020/01/31 21:32:32.6	5.530	-0.070	-0.340	-1.230
2020/01/31 21:32:32.7	5.540	-0.080	-0.240	-1.180
2020/01/31 21:32:32.8	5.540	-0.090	-0.130	-1.130
2020/01/31 21:32:32.9	5.520	-0.100	-0.030	-1.070
2020/01/31 21:32:33.0	5.510	-0.120	0.080	-1.020
2020/01/31 21:32:33.1	5.500	-0.140	0.190	-0.950
2020/01/31 21:32:33.2	5.470	-0.160	0.290	-0.890
2020/01/31 21:32:33.3	5.450	-0.180	0.400	-0.830
2020/01/31 21:32:33.4	5.410	-0.210	0.500	-0.760
2020/01/31 21:32:33.5	5.370	-0.240	0.610	-0.690
2020/01/31 21:32:33.6	5.320	-0.270	0.710	-0.620
2020/01/31 21:32:33.7	5.270	-0.300	0.800	-0.550
2020/01/31 21:32:33.8	5.220	-0.340	0.890	-0.470
2020/01/31 21:32:33.9	5.160	-0.370	0.970	-0.400
2020/01/31 21:32:34.0	5.100	-0.400	1.050	-0.330
2020/01/31 21:32:34.1	5.030	-0.430	1.120	-0.260
2020/01/31 21:32:34.2	4.960	-0.460	1.180	-0.180
2020/01/31 21:32:34.3	4.890	-0.490	1.240	-0.110
2020/01/31 21:32:34.4	4.820	-0.520	1.280	-0.040
2020/01/31 21:32:34.5	4.740	-0.540	1.320	0.020
2020/01/31 21:32:34.6	4.670	-0.560	1.340	0.090
2020/01/31 21:32:34.7	4.600	-0.580	1.350	0.150
2020/01/31 21:32:34.8	4.530	-0.590	1.350	0.210
2020/01/31 21:32:34.9	4.460	-0.590	1.330	0.270
2020/01/31 21:32:35.0	4.390	-0.590	1.310	0.320
2020/01/31 21:32:35.1	4.330	-0.580	1.270	0.370
2020/01/31 21:32:35.2	4.260	-0.570	1.210	0.410
2020/01/31 21:32:35.3	4.200	-0.550	1.150	0.450
2020/01/31 21:32:35.4	4.140	-0.520	1.070	0.480
2020/01/31 21:32:35.5	4.090	-0.480	0.980	0.510
2020/01/31 21:32:35.6	4.040	-0.440	0.880	0.530
2020/01/31 21:32:35.7	3.990	-0.390	0.770	0.550
2020/01/31 21:32:35.8	3.940	-0.340	0.650	0.560
2020/01/31 21:32:35.9	3.900	-0.280	0.520	0.560
2020/01/31 21:32:36.0	3.860	-0.210	0.380	0.560
2020/01/31 21:32:36.1	3.820	-0.140	0.240	0.550
2020/01/31 21:32:36.2	3.790	-0.060	0.090	0.550
2020/01/31 21:32:36.3	3.760	0.020	-0.050	0.530
2020/01/31 21:32:36.4	3.730	0.100	-0.200	0.520
2020/01/31 21:32:36.5	3.710	0.190	-0.340	0.500
2020/01/31 21:32:36.6	3.680	0.270	-0.490	0.480
2020/01/31 21:32:36.7	3.660	0.360	-0.630	0.470
2020/01/31 21:32:36.8	3.640	0.450	-0.760	0.440
2020/01/31 21:32:36.9	3.630	0.530	-0.880	0.420
2020/01/31 21:32:37.0	3.620	0.620	-1.000	0.400
2020/01/31 21:32:37.1	3.600	0.700	-1.110	0.380
2020/01/31 21:32:37.2	3.600	0.780	-1.210	0.360
2020/01/31 21:32:37.3	3.590	0.850	-1.290	0.340
2020/01/31 21:32:37.4	3.580	0.920	-1.370	0.310
2020/01/31 21:32:37.5	3.580	0.980	-1.440	0.290
2020/01/31 21:32:37.6	3.580	1.040	-1.490	0.270
2020/01/31 21:32:37.7	3.580	1.090	-1.530	0.250
2020/01/31 21:32:37.8	3.580	1.130	-1.560	0.220
2020/01/31 21:32:37.9	3.580	1.160	-1.580	0.200
2020/01/31 21:32:38.0	3.590	1.190	-1.580	0.180
2020/01/31 21:32:38.1	3.600	1.210	-1.580	0.150
2020/01/31 21:32:38.2	3.620	1.220	-1.560	0.130
2020/01/31 21:32:38.3	3.630	1.220	-1.540	0.100
2020/01/31 21:32:38.4	3.650	1.210	-1.510	0.070
2020/01/31 21:32:38.5	3.670	1.200	-1.460	0.040
2020/01/31 21:32:38.6	3.700	1.180	-1.410	0.010
2020/01/31 21:32:38.7	3.720	1.150	-1.360	-0.020
2020/01/31 21:32:38.8	3.750	1.110	-1.300	-0.050
2020/01/31 21:32:38.9	3.780	1.070	-1.230	-0.080
2020/01/31 21:32:39.0	3.810	1.020	-1.160	-0.120
2020/01/31 21:32:39.1	3.850	0.970	-1.090	-0.150
2020/01/31 21:32:39.2	3.880	0.910	-1.010	-0.190
2020/01/31 21:32:39.3	3.920	0.850	-0.930	-0.240
2020/01/31 21:32:39.4	3.960	0.790	-0.860	-0.280
2020/01/31 21:32:39.5	4.000	0.720	-0.780	-0.320
2020/01/31 21:32:39.6	4.050	0.650	-0.700	-0.370
2020/01/31 21:32:39.7	4.090	0.580	-0.630	-0.410
2020/01/31 21:32:39.8	4.140	0.510	-0.560	-0.460
2020/01/31 21:32:39.9	4.190	0.430	-0.490	-0.510
2020/01/31 21:32:40.0	4.240	0.360	-0.430	-0.570
2020/01/31 21:32:40.1	4.290	0.290	-0.370	-0.620
2020/01/31 21:32:40.2	4.350	0.220	-0.310	-0.670
2020/01/31 21:32:40.3	4.400	0.160	-0.260	-0.730
2020/01/31 21:32:40.4	4.460	0.090	-0.210	-0.780
2020/01/31 21:32:40.5	4.520	0.030	-0.170	-0.840
2020/01/31 21:32:40.6	4.570	-0.030	-0.130	-0.890
2020/01/31 21:32:40.7	4.630	-0.090	-0.090	-0.950
2020/01/31 21:32:40.8	4.690	-0.140	-0.060	-1.000
2020/01/31 21:32:40.9	4.760	-0.190	-0.040	-1.050
2020/01/31 21:32:41.0	4.810	-0.240	-0.010	-1.100
2020/01/31 21:32:41.1	4.860	-0.280	0.000	-1.150
2020/01/31 21:32:41.2	4.910	-0.320	0.020	-1.190
2020/01/31 21:32:41.3	4.960	-0.350	0.030	-1.240
2020/01/31 21:32:41.4	5.010	-0.380	0.040	-1.280
2020/01/31 21:32:41.5	5.050	-0.410	0.050	-1.310
2020/01/31 21:32:41.6	5.090	-0.430	0.050	-1.340
2020/01/31 21:32:41.7	5.130	-0.460	0.050	-1.370
2020/01/31 21:32:41.8	5.160	-0.470	0.050	-1.390
2020/01/31 21:32:41.9	5.180	-0.490	0.050	-1.410
2020/01/31 21:32:42.0	5.210	-0.500	0.050	-1.420
2020/01/31 21:32:42.1	5.230	-0.510	0.050	-1.430
2020/01/31 21:32:42.2	5.250	-0.520	0.050	-1.430
2020/01/31 21:32:42.3	5.260	-0.520	0.050	-1.420
2020/01/31 21:32:42.4	5.270	-0.530	0.050	-1.410
2020/01/31 21:32:42.5	5.270	-0.530	0.050	-1.400
2020/01/31 21:32:42.6	5.270	-0.530	0.060	-1.380
2020/01/31 21:32:42.7	5.260	-0.540	0.060	-1.360
2020/01/31 21:32:42.8	5.250	-0.540	0.070	-1.330
2020/01/31 21:32:42.9	5.230	-0.540	0.080	-1.300
2020/01/31 21:32:43.0	5.210	-0.540	0.090	-1.270
2020/01/31 21:32:43.1	5.180	-0.540	0.100	-1.230
2020/01/31 21:32:43.2	5.150	-0.540	0.110	-1.190
2020/01/31 21:32:43.3	5.120	-0.540	0.130	-1.150
2020/01/31 21:32:43.4	5.080	-0.540	0.140	-1.110
2020/01/31 21:32:43.5	5.040	-0.540	0.160	-1.060
2020/01/31 21:32:43.6	5.000	-0.550	0.180	-1.020
2020/01/31 21:32:43.7	4.950	-0.550	0.200	-0.970
2020/01/31 21:32:43.8	4.900	-0.550	0.220	-0.920
2020/01/31 21:32:43.9	4.870	-0.560	0.240	-0.870
2020/01/31 21:32:44.0	4.820	-0.560	0.260	-0.820
2020/01/31 21:32:44.1	4.760	-0.570	0.290	-0.770
2020/01/31 21:32:44.2	4.710	-0.570	0.310	-0.720
2020/01/31 21:32:44.3	4.660	-0.580	0.330	-0.670
2020/01/31 21:32:44.4	4.600	-0.580	0.350	-0.620
2020/01/31 21:32:44.5	4.550	-0.590	0.370	-0.570
2020/01/31 21:32:44.6	4.490	-0.590	0.390	-0.530
2020/01/31 21:32:44.7	4.440	-0.590	0.400	-0.480
2020/01/31 21:32:44.8	4.390	-0.600	0.420	-0.440
2020/01/31 21:32:44.9	4.350	-0.600	0.420	-0.400
2020/01/31 21:32:45.0	4.300	-0.600	0.430	-0.360
2020/01/31 21:32:45.1	4.260	-0.600	0.440	-0.320
2020/01/31 21:32:45.2	4.210	-0.590	0.440	-0.290
2020/01/31 21:32:45.3	4.170	-0.590	0.440	-0.250
2020/01/31 21:32:45.4	4.140	-0.580	0.430	-0.230
2020/01/31 21:32:45.5	4.100	-0.570	0.420	-0.200
2020/01/31 21:32:45.6	4.070	-0.560	0.410	-0.180
2020/01/31 21:32:45.7	4.040	-0.550	0.390	-0.160
2020/01/31 21:32:45.8	4.010	-0.540	0.370	-0.140
2020/01/31 21:32:45.9	3.980	-0.520	0.340	-0.130
2020/01/31 21:32:46.0	3.960	-0.510	0.320	-0.120
2020/01/31 21:32:46.1	3.940	-0.490	0.290	-0.110
2020/01/31 21:32:46.2	3.930	-0.460	0.250	-0.110
2020/01/31 21:32:46.3	3.910	-0.440	0.220	-0.100
2020/01/31 21:32:46.4	3.900	-0.410	0.180	-0.100
2020/01/31 21:32:46.5	3.890	-0.390	0.140	-0.100
2020/01/31 21:32:46.6	3.880	-0.360	0.100	-0.100
2020/01/31 21:32:46.7	3.870	-0.330	0.060	-0.100
2020/01/31 21:32:46.8	3.860	-0.290	0.010	-0.100
2020/01/31 21:32:46.9	3.850	-0.260	-0.030	-0.100
2020/01/31 21:32:47.0	3.850	-0.230	-0.070	-0.100
2020/01/31 21:32:47.1	3.840	-0.190	-0.120	-0.110
2020/01/31 21:32:47.2	3.840	-0.150	-0.170	-0.110
2020/01/31 21:32:47.3	3.840	-0.110	-0.210	-0.110
2020/01/31 21:32:47.4	3.840	-0.070	-0.260	-0.100
2020/01/31 21:32:47.5	3.840	-0.030	-0.310	-0.100
2020/01/31 21:32:47.6	3.850	0.010	-0.360	-0.100
2020/01/31 21:32:47.7	3.850	0.050	-0.410	-0.100
2020/01/31 21:32:47.8	3.850	0.090	-0.450	-0.090
2020/01/31 21:32:47.9	3.860	0.130	-0.510	-0.080
2020/01/31 21:32:48.0	3.870	0.170	-0.550	-0.080
2020/01/31 21:32:48.1	3.880	0.220	-0.600	-0.070
2020/01/31 21:32:48.2	3.890	0.260	-0.650	-0.070
2020/01/31 21:32:48.3	3.900	0.300	-0.690	-0.060
2020/01/31 21:32:48.4	3.910	0.340	-0.740	-0.050
2020/01/31 21:32:48.5	3.920	0.380	-0.780	-0.050
2020/01/31 21:32:48.6	3.930	0.420	-0.830	-0.040
2020/01/31 21:32:48.7	3.950	0.460	-0.870	-0.040
2020/01/31 21:32:48.8	3.960	0.490	-0.910	-0.030
2020/01/31 21:32:48.9	3.970	0.530	-0.950	-0.030
2020/01/31 21:32:49.0	3.990	0.560	-1.000	-0.030
2020/01/31 21:32:49.1	4.010	0.600	-1.040	-0.030
2020/01/31 21:32:49.2	4.030	0.630	-1.080	-0.040
2020/01/31 21:32:49.3	4.060	0.660	-1.120	-0.050
2020/01/31 21:32:49.4	4.080	0.680	-1.160	-0.060
2020/01/31 21:32:49.5	4.110	0.710	-1.190	-0.070
2020/01/31 21:32:49.6	4.140	0.730	-1.230	-0.090
2020/01/31 21:32:49.7	4.170	0.750	-1.260	-0.110
2020/01/31 21:32:49.8	4.200	0.770	-1.290	-0.130
2020/01/31 21:32:49.9	4.230	0.780	-1.320	-0.150
2020/01/31 21:32:50.0	4.270	0.790	-1.340	-0.170
2020/01/31 21:32:50.1	4.300	0.800	-1.350	-0.200
2020/01/31 21:32:50.2	4.340	0.810	-1.360	-0.220
2020/01/31 21:32:50.3	4.370	0.810	-1.370	-0.250
2020/01/31 21:32:50.4	4.410	0.810	-1.370	-0.270
2020/01/31 21:32:50.5	4.440	0.800	-1.360	-0.290
2020/01/31 21:32:50.6	4.480	0.790	-1.350	-0.320
2020/01/31 21:32:50.7	4.510	0.780	-1.330	-0.340
2020/01/31 21:32:50.8	4.550	0.770	-1.300	-0.360
2020/01/31 21:32:50.9	4.580	0.750	-1.260	-0.380
2020/01/31 21:32:51.0	4.610	0.730	-1.210	-0.400
2020/01/31 21:32:51.1	4.640	0.710	-1.160	-0.410
2020/01/31 21:32:51.2	4.670	0.680	-1.100	-0.430
2020/01/31 21:32:51.3	4.700	0.650	-1.030	-0.440
2020/01/31 21:32:51.4	4.730	0.620	-0.950	-0.460
2020/01/31 21:32:51.5	4.750	0.590	-0.870	-0.470
2020/01/31 21:32:51.6	4.780	0.550	-0.780	-0.480
2020/01/31 21:32:51.7	4.800	0.510	-0.690	-0.480
2020/01/31 21:32:51.8	4.820	0.470	-0.590	-0.490
2020/01/31 21:32:51.9	4.850	0.430	-0.490	-0.490
2020/01/31 21:32:52.0	4.870	0.380	-0.380	-0.490
2020/01/31 21:32:52.1	4.890	0.340	-0.280	-0.500
2020/01/31 21:32:52.2	4.900	0.290	-0.170	-0.500
2020/01/31 21:32:52.3	4.920	0.250	-0.060	-0.500
2020/01/31 21:32:52.4	4.930	0.200	0.040	-0.500
2020/01/31 21:32:52.5	4.940	0.150	0.150	-0.490
2020/01/31 21:32:52.6	4.940	0.100	0.250	-0.490
2020/01/31 21:32:52.7	4.950	0.050	0.350	-0.480
2020/01/31 21:32:52.8	4.950	0.010	0.440	-0.470
2020/01/31 21:32:52.9	4.950	-0.040	0.520	-0.460
2020/01/31 21:32:53.0	4.950	-0.080	0.610	-0.450
2020/01/31 21:32:53.1	4.940	-0.130	0.680	-0.430
2020/01/31 21:32:53.2	4.940	-0.170	0.750	-0.420
2020/01/31 21:32:53.3	4.940	-0.210	0.810	-0.400
2020/01/31 21:32:53.4	4.930	-0.240	0.860	-0.380
2020/01/31 21:32:53.5	4.920	-0.280	0.900	-0.360
2020/01/31 21:32:53.6	4.910	-0.310	0.930	-0.340
2020/01/31 21:32:53.7	4.900	-0.340	0.960	-0.320
2020/01/31 21:32:53.8	4.890	-0.370	0.970	-0.300
2020/01/31 21:32:53.9	4.880	-0.400	0.980	-0.270
2020/01/31 21:32:54.0	4.870	-0.420	0.970	-0.250
2020/01/31 21:32:54.1	4.850	-0.440	0.960	-0.230
2020/01/31 21:32:54.2	4.840	-0.460	0.940	-0.210
2020/01/31 21:32:54.3	4.820	-0.470	0.910	-0.190
2020/01/31 21:32:54.4	4.810	-0.480	0.870	-0.170
2020/01/31 21:32:54.5	4.790	-0.490	0.830	-0.150
2020/01/31 21:32:54.6	4.780	-0.490	0.770	-0.140
2020/01/31 21:32:54.7	4.760	-0.500	0.710	-0.130
2020/01/31 21:32:54.8	4.750	-0.500	0.650	-0.120
2020/01/31 21:32:54.9	4.740	-0.490	0.580	-0.110
2020/01/31 21:32:55.0	4.730	-0.490	0.500	-0.110
2020/01/31 21:32:55.1	4.710	-0.480	0.420	-0.110
2020/01/31 21:32:55.2	4.700	-0.470	0.340	-0.110
2020/01/31 21:32:55.3	4.690	-0.460	0.260	-0.110
2020/01/31 21:32:55.4	4.670	-0.440	0.170	-0.110
2020/01/31 21:32:55.5	4.660	-0.430	0.080	-0.120
2020/01/31 21:32:55.6	4.650	-0.410	-0.000	-0.120
2020/01/31 21:32:55.7	4.640	-0.390	-0.090	-0.130
2020/01/31 21:32:55.8	4.630	-0.370	-0.170	-0.140
2020/01/31 21:32:55.9	4.620	-0.350	-0.250	-0.150
2020/01/31 21:32:56.0	4.610	-0.330	-0.330	-0.160
2020/01/31 21:32:56.1	4.610	-0.310	-0.400	-0.170
2020/01/31 21:32:56.2	4.600	-0.290	-0.470	-0.180
2020/01/31 21:32:56.3	4.590	-0.270	-0.530	-0.190
2020/01/31 21:32:56.4	4.590	-0.250	-0.580	-0.200
2020/01/31 21:32:56.5	4.580	-0.230	-0.630	-0.210
2020/01/31 21:32:56.6	4.580	-0.210	-0.670	-0.220
2020/01/31 21:32:56.7	4.570	-0.190	-0.700	-0.230
2020/01/31 21:32:56.8	4.560	-0.180	-0.730	-0.240
2020/01/31 21:32:56.9	4.560	-0.160	-0.750	-0.260
2020/01/31 21:32:57.0	4.550	-0.150	-0.760	-0.270
2020/01/31 21:32:57.1	4.540	-0.140	-0.770	-0.280
2020/01/31 21:32:57.2	4.540	-0.130	-0.760	-0.300
2020/01/31 21:32:57.3	4.530	-0.120	-0.760	-0.310
2020/01/31 21:32:57.4	4.520	-0.110	-0.740	-0.320
2020/01/31 21:32:57.5	4.510	-0.110	-0.720	-0.330
2020/01/31 21:32:57.6	4.500	-0.110	-0.690	-0.340
2020/01/31 21:32:57.7	4.490	-0.110	-0.660	-0.350
2020/01/31 21:32:57.8	4.480	-0.110	-0.620	-0.360
2020/01/31 21:32:57.9	4.480	-0.110	-0.580	-0.370
2020/01/31 21:32:58.0	4.470	-0.120	-0.540	-0.380
2020/01/31 21:32:58.1	4.450	-0.120	-0.490	-0.380
2020/01/31 21:32:58.2	4.440	-0.130	-0.450	-0.390
2020/01/31 21:32:58.3	4.430	-0.130	-0.400	-0.390
2020/01/31 21:32:58.4	4.420	-0.140	-0.350	-0.400
2020/01/31 21:32:58.5	4.400	-0.150	-0.300	-0.400
2020/01/31 21:32:58.6	4.390	-0.160	-0.250	-0.400
2020/01/31 21:32:58.7	4.380	-0.170	-0.200	-0.410
2020/01/31 21:32:58.8	4.370	-0.180	-0.160	-0.410
2020/01/31 21:32:58.9	4.360	-0.180	-0.120	-0.410
2020/01/31 21:32:59.0	4.350	-0.190	-0.080	-0.410
2020/01/31 21:32:59.1	4.340	-0.200	-0.050	-0.410
2020/01/31 21:32:59.2	4.330	-0.210	-0.020	-0.410
2020/01/31 21:32:59.3	4.320	-0.210	0.010	-0.410
2020/01/31 21:32:59.4	4.310	-0.210	0.030	-0.410
2020/01/31 21:32:59.5	4.300	-0.210	0.040	-0.410
2020/01/31 21:32:59.6	4.290	-0.210	0.050	-0.420
2020/01/31 21:32:59.7	4.280	-0.210	0.060	-0.420
2020/01/31 21:32:59.8	4.280	-0.200	0.050	-0.420
2020/01/31 21:32:59.9	4.280	-0.190	0.040	-0.420
2020/01/31 21:33:00.0	4.270	-0.180	0.030	-0.420
2020/01/31 21:33:00.1	4.270	-0.170	0.010	-0.420
2020/01/31 21:33:00.2	4.270	-0.150	-0.010	-0.420
2020/01/31 21:33:00.3	4.270	-0.130	-0.040	-0.420
2020/01/31 21:33:00.4	4.280	-0.110	-0.080	-0.420
2020/01/31 21:33:00.5	4.280	-0.080	-0.110	-0.420
2020/01/31 21:33:00.6	4.290	-0.050	-0.160	-0.420
2020/01/31 21:33:00.7	4.300	-0.020	-0.200	-0.420
2020/01/31 21:33:00.8	4.320	0.010	-0.250	-0.410
2020/01/31 21:33:00.9	4.330	0.050	-0.290	-0.410
2020/01/31 21:33:01.0	4.350	0.090	-0.340	-0.410
2020/01/31 21:33:01.1	4.370	0.130	-0.390	-0.400
2020/01/31 21:33:01.2	4.390	0.180	-0.440	-0.400
2020/01/31 21:33:01.3	4.420	0.220	-0.490	-0.400
2020/01/31 21:33:01.4	4.450	0.270	-0.540	-0.390
2020/01/31 21:33:01.5	4.470	0.310	-0.590	-0.390
2020/01/31 21:33:01.6	4.500	0.360	-0.630	-0.380
2020/01/31 21:33:01.7	4.530	0.410	-0.670	-0.370
2020/01/31 21:33:01.8	4.560	0.450	-0.710	-0.360
2020/01/31 21:33:01.9	4.600	0.500	-0.750	-0.350
2020/01/31 21:33:02.0	4.630	0.540	-0.780	-0.330
2020/01/31 21:33:02.1	4.650	0.580	-0.800	-0.320
2020/01/31 21:33:02.2	4.680	0.610	-0.820	-0.300
2020/01/31 21:33:02.3	4.700	0.650	-0.830	-0.280
2020/01/31 21:33:02.4	4.720	0.680	-0.840	-0.250
2020/01/31 21:33:02.5	4.740	0.700	-0.840	-0.230
2020/01/31 21:33:02.6	4.760	0.720	-0.840	-0.200
2020/01/31 21:33:02.7	4.770	0.740	-0.820	-0.180
2020/01/31 21:33:02.8	4.780	0.750	-0.810	-0.150
2020/01/31 21:33:02.9	4.790	0.750	-0.780	-0.130
2020/01/31 21:33:03.0	4.800	0.750	-0.760	-0.100
2020/01/31 21:33:03.1	4.800	0.750	-0.720	-0.080
2020/01/31 21:33:03.2	4.800	0.730	-0.690	-0.060
2020/01/31 21:33:03.3	4.800	0.720	-0.640	-0.030
2020/01/31 21:33:03.4	4.800	0.690	-0.600	-0.010
2020/01/31 21:33:03.5	4.790	0.660	-0.550	0.000
2020/01/31 21:33:03.6	4.780	0.630	-0.500	0.020
2020/01/31 21:33:03.7	4.770	0.590	-0.440	0.040
2020/01/31 21:33:03.8	4.760	0.550	-0.390	0.050
2020/01/31 21:33:03.9	4.740	0.500	-0.340	0.060
2020/01/31 21:33:04.0	4.720	0.450	-0.280	0.070
2020/01/31 21:33:04.1	4.710	0.390	-0.230	0.080
2020/01/31 21:33:04.2	4.690	0.330	-0.180	0.080
2020/01/31 21:33:04.3	4.670	0.270	-0.120	0.080
2020/01/31 21:33:04.4	4.660	0.200	-0.080	0.070
2020/01/31 21:33:04.5	4.640	0.130	-0.030	0.060
2020/01/31 21:33:04.6	4.630	0.060	0.010	0.050
2020/01/31 21:33:04.7	4.610	-0.010	0.050	0.030
2020/01/31 21:33:04.8	4.600	-0.080	0.080	0.000
2020/01/31 21:33:04.9	4.590	-0.150	0.110	-0.030
2020/01/31 21:33:05.0	4.580	-0.210	0.130	-0.070
2020/01/31 21:33:05.1	4.580	-0.280	0.140	-0.110
2020/01/31 21:33:05.2	4.570	-0.350	0.150	-0.150
2020/01/31 21:33:05.3	4.570	-0.410	0.160	-0.200
2020/01/31 21:33:05.4	4.580	-0.470	0.150	-0.260
2020/01/31 21:33:05.5	4.580	-0.520	0.140	-0.320
2020/01/31 21:33:05.6	4.590	-0.570	0.130	-0.380
2020/01/31 21:33:05.7	4.600	-0.620	0.110	-0.440
2020/01/31 21:33:05.8	4.610	-0.660	0.080	-0.510
2020/01/31 21:33:05.9	4.630	-0.690	0.050	-0.580
2020/01/31 21:33:06.0	4.650	-0.720	0.020	-0.640
2020/01/31 21:33:06.1	4.660	-0.750	-0.020	-0.710
2020/01/31 21:33:06.2	4.680	-0.760	-0.060	-0.780
2020/01/31 21:33:06.3	4.710	-0.770	-0.100	-0.850
2020/01/31 21:33:06.4	4.730	-0.780	-0.150	-0.910
2020/01/31 21:33:06.5	4.750	-0.780	-0.190	-0.970
2020/01/31 21:33:06.6	4.780	-0.770	-0.230	-1.030
2020/01/31 21:33:06.7	4.800	-0.760	-0.280	-1.080
2020/01/31 21:33:06.8	4.830	-0.740	-0.320	-1.130
2020/01/31 21:33:06.9	4.850	-0.710	-0.350	-1.180
2020/01/31 21:33:07.0	4.880	-0.680	-0.380	-1.220
2020/01/31 21:33:07.1	4.900	-0.650	-0.410	-1.260
2020/01/31 21:33:07.2	4.920	-0.610	-0.430	-1.290
2020/01/31 21:33:07.3	4.940	-0.570	-0.450	-1.310
2020/01/31 21:33:07.4	4.970	-0.520	-0.470	-1.320
2020/01/31 21:33:07.5	4.990	-0.480	-0.470	-1.330
2020/01/31 21:33:07.6	5.000	-0.420	-0.470	-1.340
2020/01/31 21:33:07.7	5.020	-0.370	-0.470	-1.330
2020/01/31 21:33:07.8	5.030	-0.320	-0.460	-1.320
2020/01/31 21:33:07.9	5.040	-0.270	-0.450	-1.300
2020/01/31 21:33:08.0	5.050	-0.210	-0.430	-1.280
2020/01/31 21:33:08.1	5.050	-0.160	-0.410	-1.250
2020/01/31 21:33:08.2	5.060	-0.110	-0.380	-1.210
2020/01/31 21:33:08.3	5.060	-0.060	-0.350	-1.180
2020/01/31 21:33:08.4	5.050	-0.010	-0.310	-1.130
2020/01/31 21:33:08.5	5.050	0.040	-0.270	-1.080
2020/01/31 21:33:08.6	5.040	0.080	-0.220	-1.030
2020/01/31 21:33:08.7	5.030	0.120	-0.180	-0.970
2020/01/31 21:33:08.8	5.010	0.160	-0.130	-0.910
2020/01/31 21:33:08.9	4.990	0.190	-0.080	-0.840
2020/01/31 21:33:09.0	4.970	0.220	-0.040	-0.780
2020/01/31 21:33:09.1	4.940	0.250	0.010	-0.710
2020/01/31 21:33:09.2	4.920	0.270	0.060	-0.640
2020/01/31 21:33:09.3	4.890	0.290	0.100	-0.570
2020/01/31 21:33:09.4	4.860	0.310	0.140	-0.500
2020/01/31 21:33:09.5	4.830	0.320	0.180	-0.430
2020/01/31 21:33:09.6	4.790	0.330	0.220	-0.350
2020/01/31 21:33:09.7	4.760	0.330	0.250	-0.280
2020/01/31 21:33:09.8	4.720	0.340	0.280	-0.220
2020/01/31 21:33:09.9	4.690	0.340	0.290	-0.150
2020/01/31 21:33:10.0	4.650	0.330	0.310	-0.080
2020/01/31 21:33:10.1	4.620	0.330	0.320	-0.020
2020/01/31 21:33:10.2	4.580	0.320	0.330	0.040
2020/01/31 21:33:10.3	4.540	0.310	0.330	0.100
2020/01/31 21:33:10.4	4.510	0.310	0.330	0.150
2020/01/31 21:33:10.5	4.480	0.300	0.320	0.200
2020/01/31 21:33:10.6	4.440	0.290	0.310	0.250
2020/01/31 21:33:10.7	4.410	0.280	0.300	0.290
2020/01/31 21:33:10.8	4.380	0.270	0.270	0.330
2020/01/31 21:33:10.9	4.350	0.260	0.250	0.370
2020/01/31 21:33:11.0	4.320	0.250	0.220	0.400
2020/01/31 21:33:11.1	4.300	0.240	0.190	0.430
2020/01/31 21:33:11.2	4.270	0.240	0.150	0.460
2020/01/31 21:33:11.3	4.240	0.230	0.120	0.480
2020/01/31 21:33:11.4	4.220	0.230	0.080	0.490
2020/01/31 21:33:11.5	4.200	0.220	0.030	0.510
2020/01/31 21:33:11.6	4.180	0.220	-0.010	0.520
2020/01/31 21:33:11.7	4.160	0.220	-0.060	0.520
2020/01/31 21:33:11.8	4.140	0.220	-0.100	0.520
2020/01/31 21:33:11.9	4.120	0.210	-0.160	0.520
2020/01/31 21:33:12.0	4.100	0.210	-0.210	0.520
2020/01/31 21:33:12.1	4.090	0.210	-0.260	0.500
2020/01/31 21:33:12.2	4.080	0.210	-0.310	0.490
2020/01/31 21:33:12.3	4.080	0.210	-0.360	0.470
2020/01/31 21:33:12.4	4.080	0.200	-0.410	0.450
2020/01/31 21:33:12.5	4.070	0.200	-0.460	0.420
2020/01/31 21:33:12.6	4.080	0.190	-0.510	0.380
2020/01/31 21:33:12.7	4.080	0.190	-0.560	0.350
2020/01/31 21:33:12.8	4.090	0.180	-0.610	0.300
2020/01/31 21:33:12.9	4.110	0.170	-0.650	0.260
2020/01/31 21:33:13.0	4.120	0.150	-0.690	0.210
2020/01/31 21:33:13.1	4.140	0.140	-0.730	0.150
2020/01/31 21:33:13.2	4.160	0.130	-0.770	0.090
2020/01/31 21:33:13.3	4.190	0.110	-0.810	0.030
2020/01/31 21:33:13.4	4.210	0.090	-0.840	-0.030
2020/01/31 21:33:13.5	4.240	0.070	-0.870	-0.100
2020/01/31 21:33:13.6	4.280	0.050	-0.890	-0.170
2020/01/31 21:33:13.7	4.310	0.020	-0.920	-0.240
2020/01/31 21:33:13.8	4.350	-0.000	-0.930	-0.320
2020/01/31 21:33:13.9	4.390	-0.030	-0.950	-0.390
2020/01/31 21:33:14.0	4.430	-0.060	-0.960	-0.470
2020/01/31 21:33:14.1	4.480	-0.080	-0.960	-0.540
2020/01/31 21:33:14.2	4.520	-0.110	-0.970	-0.620
2020/01/31 21:33:14.3	4.570	-0.140	-0.960	-0.690
2020/01/31 21:33:14.4	4.620	-0.170	-0.960	-0.760
2020/01/31 21:33:14.5	4.660	-0.200	-0.950	-0.830
2020/01/31 21:33:14.6	4.710	-0.230	-0.940	-0.900
2020/01/31 21:33:14.7	4.760	-0.260	-0.920	-0.960
2020/01/31 21:33:14.8	4.810	-0.280	-0.900	-1.030
2020/01/31 21:33:14.9	4.860	-0.310	-0.880	-1.090
2020/01/31 21:33:15.0	4.910	-0.330	-0.860	-1.140
2020/01/31 21:33:15.1	4.960	-0.350	-0.830	-1.190
2020/01/31 21:33:15.2	5.000	-0.370	-0.810	-1.230
2020/01/31 21:33:15.3	5.050	-0.390	-0.780	-1.270
2020/01/31 21:33:15.4	5.090	-0.400	-0.750	-1.300
2020/01/31 21:33:15.5	5.130	-0.410	-0.720	-1.320
2020/01/31 21:33:15.6	5.160	-0.420	-0.690	-1.340
2020/01/31 21:33:15.7	5.200	-0.420	-0.660	-1.350
2020/01/31 21:33:15.8	5.230	-0.420	-0.630	-1.360
2020/01/31 21:33:15.9	5.270	-0.420	-0.600	-1.350
2020/01/31 21:33:16.0	5.300	-0.410	-0.570	-1.340
2020/01/31 21:33:16.1	5.320	-0.410	-0.540	-1.330
2020/01/31 21:33:16.2	5.340	-0.390	-0.510	-1.310
2020/01/31 21:33:16.3	5.360	-0.380	-0.480	-1.290
2020/01/31 21:33:16.4	5.380	-0.360	-0.450	-1.260
2020/01/31 21:33:16.5	5.390	-0.330	-0.420	-1.230
2020/01/31 21:33:16.6	5.400	-0.310	-0.390	-1.200
2020/01/31 21:33:16.7	5.410	-0.280	-0.360	-1.160
2020/01/31 21:33:16.8	5.420	-0.250	-0.340	-1.120
2020/01/31 21:33:16.9	5.410	-0.220	-0.310	-1.070
2020/01/31 21:33:17.0	5.410	-0.180	-0.280	-1.030
2020/01/31 21:33:17.1	5.410	-0.150	-0.260	-0.980
2020/01/31 21:33:17.2	5.410	-0.110	-0.230	-0.930
2020/01/31 21:33:17.3	5.400	-0.070	-0.210	-0.880
2020/01/31 21:33:17.4	5.400	-0.030	-0.180	-0.820
2020/01/31 21:33:17.5	5.390	0.010	-0.160	-0.770
2020/01/31 21:33:17.6	5.370	0.060	-0.130	-0.710
2020/01/31 21:33:17.7	5.360	0.100	-0.110	-0.660
2020/01/31 21:33:17.8	5.340	0.140	-0.080	-0.600
2020/01/31 21:33:17.9	5.330	0.180	-0.060	-0.540
2020/01/31 21:33:18.0	5.310	0.220	-0.030	-0.480
2020/01/31 21:33:18.1	5.290	0.250	-0.010	-0.420
2020/01/31 21:33:18.2	5.260	0.290	0.020	-0.360
2020/01/31 21:33:18.3	5.240	0.320	0.040	-0.300
2020/01/31 21:33:18.4	5.220	0.350	0.070	-0.240
2020/01/31 21:33:18.5	5.190	0.380	0.090	-0.180
2020/01/31 21:33:18.6	5.160	0.410	0.120	-0.130
2020/01/31 21:33:18.7	5.140	0.430	0.140	-0.080
2020/01/31 21:33:18.8	5.110	0.440	0.170	-0.030
2020/01/31 21:33:18.9	5.090	0.460	0.190	0.020
2020/01/31 21:33:19.0	5.060	0.470	0.210	0.070
2020/01/31 21:33:19.1	5.030	0.470	0.230	0.110
2020/01/31 21:33:19.2	5.000	0.470	0.250	0.140
2020/01/31 21:33:19.3	4.970	0.470	0.270	0.170
2020/01/31 21:33:19.4	4.940	0.460	0.290	0.190
2020/01/31 21:33:19.5	4.910	0.450	0.310	0.210
2020/01/31 21:33:19.6	4.890	0.440	0.320	0.220
2020/01/31 21:33:19.7	4.860	0.420	0.330	0.230
2020/01/31 21:33:19.8	4.830	0.390	0.340	0.230
2020/01/31 21:33:19.9	4.810	0.370	0.350	0.220
2020/01/31 21:33:20.0	4.790	0.340	0.360	0.210
2020/01/31 21:33:20.1	4.770	0.300	0.360	0.190
2020/01/31 21:33:20.2	4.750	0.270	0.360	0.170
2020/01/31 21:33:20.3	4.730	0.230	0.360	0.140
2020/01/31 21:33:20.4	4.710	0.190	0.350	0.110
2020/01/31 21:33:20.5	4.690	0.150	0.340	0.070
2020/01/31 21:33:20.6	4.670	0.110	0.330	0.040
2020/01/31 21:33:20.7	4.660	0.060	0.320	-0.010
2020/01/31 21:33:20.8	4.650	0.020	0.300	-0.050
2020/01/31 21:33:20.9	4.640	-0.020	0.280	-0.100
2020/01/31 21:33:21.0	4.630	-0.070	0.260	-0.150
2020/01/31 21:33:21.1	4.620	-0.110	0.240	-0.200
2020/01/31 21:33:21.2	4.610	-0.150	0.210	-0.260
2020/01/31 21:33:21.3	4.610	-0.190	0.180	-0.310
2020/01/31 21:33:21.4	4.600	-0.220	0.150	-0.360
2020/01/31 21:33:21.5	4.590	-0.260	0.120	-0.410
2020/01/31 21:33:21.6	4.590	-0.290	0.090	-0.460
2020/01/31 21:33:21.7	4.580	-0.320	0.060	-0.510
2020/01/31 21:33:21.8	4.580	-0.340	0.020	-0.560
2020/01/31 21:33:21.9	4.570	-0.370	-0.020	-0.610
2020/01/31 21:33:22.0	4.570	-0.380	-0.050	-0.660
2020/01/31 21:33:22.1	4.560	-0.400	-0.090	-0.700
2020/01/31 21:33:22.2	4.570	-0.410	-0.130	-0.740
2020/01/31 21:33:22.3	4.570	-0.410	-0.160	-0.770
2020/01/31 21:33:22.4	4.570	-0.410	-0.200	-0.800
2020/01/31 21:33:22.5	4.570	-0.400	-0.240	-0.830
2020/01/31 21:33:22.6	4.580	-0.400	-0.280	-0.860
2020/01/31 21:33:22.7	4.580	-0.380	-0.310	-0.880
2020/01/31 21:33:22.8	4.590	-0.360	-0.350	-0.900
2020/01/31 21:33:22.9	4.580	-0.340	-0.380	-0.910
2020/01/31 21:33:23.0	4.590	-0.320	-0.420	-0.920
2020/01/31 21:33:23.1	4.600	-0.290	-0.450	-0.930
2020/01/31 21:33:23.2	4.620	-0.250	-0.480	-0.940
2020/01/31 21:33:23.3	4.630	-0.220	-0.510	-0.940
2020/01/31 21:33:23.4	4.640	-0.180	-0.540	-0.940
2020/01/31 21:33:23.5	4.660	-0.140	-0.560	-0.930
2020/01/31 21:33:23.6	4.670	-0.100	-0.590	-0.930
2020/01/31 21:33:23.7	4.690	-0.060	-0.610	-0.920
2020/01/31 21:33:23.8	4.700	-0.020	-0.630	-0.910
2020/01/31 21:33:23.9	4.710	0.020	-0.640	-0.890
2020/01/31 21:33:24.0	4.730	0.060	-0.650	-0.870
2020/01/31 21:33:24.1	4.740	0.100	-0.660	-0.850
2020/01/31 21:33:24.2	4.760	0.140	-0.670	-0.840
2020/01/31 21:33:24.3	4.770	0.170	-0.670	-0.820
2020/01/31 21:33:24.4	4.780	0.200	-0.660	-0.800
2020/01/31 21:33:24.5	4.800	0.230	-0.660	-0.770
2020/01/31 21:33:24.6	4.810	0.250	-0.650	-0.750
2020/01/31 21:33:24.7	4.820	0.270	-0.640	-0.730
2020/01/31 21:33:24.8	4.830	0.280	-0.620	-0.700
2020/01/31 21:33:24.9	4.840	0.290	-0.610	-0.670
2020/01/31 21:33:25.0	4.850	0.290	-0.590	-0.640
2020/01/31 21:33:25.1	4.860	0.290	-0.570	-0.610
2020/01/31 21:33:25.2	4.880	0.290	-0.550	-0.590
2020/01/31 21:33:25.3	4.890	0.280	-0.530	-0.560
2020/01/31 21:33:25.4	4.900	0.270	-0.510	-0.530
2020/01/31 21:33:25.5	4.910	0.250	-0.490	-0.500
2020/01/31 21:33:25.6	4.920	0.230	-0.470	-0.480
2020/01/31 21:33:25.7	4.930	0.210	-0.450	-0.450
2020/01/31 21:33:25.8	4.950	0.180	-0.430	-0.430
2020/01/31 21:33:25.9	4.960	0.150	-0.410	-0.400
2020/01/31 21:33:26.0	4.970	0.120	-0.400	-0.380
2020/01/31 21:33:26.1	4.990	0.080	-0.380	-0.360
2020/01/31 21:33:26.2	5.000	0.050	-0.370	-0.340
2020/01/31 21:33:26.3	5.010	0.010	-0.370	-0.320
2020/01/31 21:33:26.4	5.020	-0.030	-0.360	-0.310
2020/01/31 21:33:26.5	5.030	-0.060	-0.360	-0.300
2020/01/31 21:33:26.6	5.050	-0.100	-0.360	-0.290
2020/01/31 21:33:26.7	5.060	-0.140	-0.360	-0.290
2020/01/31 21:33:26.8	5.070	-0.170	-0.360	-0.280
2020/01/31 21:33:26.9	5.080	-0.200	-0.370	-0.280
2020/01/31 21:33:27.0	5.090	-0.230	-0.380	-0.290
2020/01/31 21:33:27.1	5.100	-0.260	-0.390	-0.290
2020/01/31 21:33:27.2	5.110	-0.280	-0.410	-0.300
2020/01/31 21:33:27.3	5.110	-0.300	-0.420	-0.310
2020/01/31 21:33:27.4	5.120	-0.310	-0.430	-0.320
2020/01/31 21:33:27.5	5.130	-0.320	-0.450	-0.320
2020/01/31 21:33:27.6	5.130	-0.330	-0.460	-0.330
2020/01/31 21:33:27.7	5.140	-0.330	-0.480	-0.340
2020/01/31 21:33:27.8	5.140	-0.320	-0.490	-0.340
2020/01/31 21:33:27.9	5.140	-0.310	-0.490	-0.340
2020/01/31 21:33:28.0	5.140	-0.290	-0.510	-0.340
2020/01/31 21:33:28.1	5.140	-0.270	-0.510	-0.340
2020/01/31 21:33:28.2	5.140	-0.240	-0.520	-0.330
2020/01/31 21:33:28.3	5.130	-0.210	-0.530	-0.320
2020/01/31 21:33:28.4	5.120	-0.180	-0.530	-0.310
2020/01/31 21:33:28.5	5.110	-0.140	-0.530	-0.290
2020/01/31 21:33:28.6	5.090	-0.100	-0.530	-0.280
2020/01/31 21:33:28.7	5.080	-0.060	-0.520	-0.260
2020/01/31 21:33:28.8	5.060	-0.010	-0.520	-0.230
2020/01/31 21:33:28.9	5.040	0.040	-0.520	-0.210
2020/01/31 21:33:29.0	5.020	0.080	-0.510	-0.180
2020/01/31 21:33:29.1	4.990	0.130	-0.500	-0.160
2020/01/31 21:33:29.2	4.970	0.180	-0.490	-0.130
2020/01/31 21:33:29.3	4.940	0.230	-0.470	-0.100
2020/01/31 21:33:29.4	4.920	0.270	-0.460	-0.070
2020/01/31 21:33:29.5	4.890	0.320	-0.450	-0.040
2020/01/31 21:33:29.6	4.860	0.360	-0.430	-0.020
2020/01/31 21:33:29.7	4.840	0.400	-0.420	0.010
2020/01/31 21:33:29.8	4.810	0.440	-0.400	0.030
2020/01/31 21:33:29.9	4.780	0.480	-0.390	0.060
2020/01/31 21:33:30.0	4.760	0.510	-0.370	0.080
2020/01/31 21:33:30.1	4.740	0.530	-0.350	0.100
2020/01/31 21:33:30.2	4.720	0.560	-0.340	0.120
2020/01/31 21:33:30.3	4.700	0.580	-0.320	0.140
2020/01/31 21:33:30.4	4.680	0.590	-0.300	0.150
2020/01/31 21:33:30.5	4.660	0.600	-0.290	0.160
2020/01/31 21:33:30.6	4.650	0.610	-0.270	0.170
2020/01/31 21:33:30.7	4.640	0.610	-0.250	0.170
2020/01/31 21:33:30.8	4.630	0.610	-0.240	0.170
2020/01/31 21:33:30.9	4.630	0.600	-0.220	0.170
2020/01/31 21:33:31.0	4.620	0.580	-0.200	0.160
2020/01/31 21:33:31.1	4.610	0.570	-0.180	0.150
2020/01/31 21:33:31.2	4.600	0.550	-0.160	0.140
2020/01/31 21:33:31.3	4.600	0.520	-0.140	0.120
2020/01/31 21:33:31.4	4.590	0.490	-0.120	0.100
2020/01/31 21:33:31.5	4.590	0.460	-0.100	0.080
2020/01/31 21:33:31.6	4.590	0.420	-0.070	0.050
2020/01/31 21:33:31.7	4.580	0.380	-0.050	0.030
2020/01/31 21:33:31.8	4.580	0.340	-0.020	-0.000
2020/01/31 21:33:31.9	4.580	0.290	0.000	-0.030
2020/01/31 21:33:32.0	4.570	0.240	0.030	-0.060
2020/01/31 21:33:32.1	4.570	0.190	0.060	-0.090
2020/01/31 21:33:32.2	4.570	0.140	0.090	-0.130
2020/01/31 21:33:32.3	4.570	0.090	0.130	-0.160
2020/01/31 21:33:32.4	4.570	0.030	0.160	-0.190
2020/01/31 21:33:32.5	4.560	-0.020	0.190	-0.230
2020/01/31 21:33:32.6	4.560	-0.080	0.230	-0.260
2020/01/31 21:33:32.7	4.560	-0.140	0.260	-0.290
2020/01/31 21:33:32.8	4.560	-0.190	0.290	-0.330
2020/01/31 21:33:32.9	4.550	-0.250	0.320	-0.360
2020/01/31 21:33:33.0	4.550	-0.300	0.360	-0.400
2020/01/31 21:33:33.1	4.550	-0.360	0.390	-0.430
2020/01/31 21:33:33.2	4.550	-0.410	0.420	-0.460
2020/01/31 21:33:33.3	4.550	-0.460	0.440	-0.500
2020/01/31 21:33:33.4	4.550	-0.510	0.470	-0.530
2020/01/31 21:33:33.5	4.550	-0.550	0.490	-0.560
2020/01/31 21:33:33.6	4.550	-0.590	0.520	-0.590
2020/01/31 21:33:33.7	4.550	-0.630	0.530	-0.620
2020/01/31 21:33:33.8	4.550	-0.670	0.550	-0.640
2020/01/31 21:33:33.9	4.550	-0.700	0.560	-0.670
2020/01/31 21:33:34.0	4.550	-0.730	0.570	-0.690
2020/01/31 21:33:34.1	4.550	-0.760	0.580	-0.710
2020/01/31 21:33:34.2	4.550	-0.780	0.580	-0.730
2020/01/31 21:33:34.3	4.560	-0.800	0.580	-0.750
2020/01/31 21:33:34.4	4.560	-0.810	0.570	-0.760
2020/01/31 21:33:34.5	4.560	-0.820	0.560	-0.770
2020/01/31 21:33:34.6	4.550	-0.820	0.550	-0.780
2020/01/31 21:33:34.7	4.550	-0.820	0.530	-0.780
2020/01/31 21:33:34.8	4.550	-0.820	0.510	-0.780
2020/01/31 21:33:34.9	4.550	-0.810	0.480	-0.780
2020/01/31 21:33:35.0	4.550	-0.800	0.450	-0.770
2020/01/31 21:33:35.1	4.550	-0.780	0.410	-0.760
2020/01/31 21:33:35.2	4.540	-0.760	0.370	-0.750
2020/01/31 21:33:35.3	4.540	-0.740	0.330	-0.730
2020/01/31 21:33:35.4	4.540	-0.710	0.280	-0.710
2020/01/31 21:33:35.5	4.530	-0.680	0.220	-0.690
2020/01/31 21:33:35.6	4.530	-0.640	0.160	-0.660
2020/01/31 21:33:35.7	4.520	-0.600	0.100	-0.640
2020/01/31 21:33:35.8	4.520	-0.560	0.030	-0.610
2020/01/31 21:33:35.9	4.520	-0.520	-0.040	-0.580
2020/01/31 21:33:36.0	4.510	-0.470	-0.110	-0.550
2020/01/31 21:33:36.1	4.510	-0.430	-0.190	-0.520
2020/01/31 21:33:36.2	4.510	-0.380	-0.270	-0.490
2020/01/31 21:33:36.3	4.500	-0.330	-0.350	-0.470
2020/01/31 21:33:36.4	4.500	-0.270	-0.440	-0.440
2020/01/31 21:33:36.5	4.500	-0.220	-0.520	-0.410
2020/01/31 21:33:36.6	4.500	-0.170	-0.610	-0.380
2020/01/31 21:33:36.7	4.490	-0.110	-0.690	-0.360
2020/01/31 21:33:36.8	4.490	-0.060	-0.780	-0.330
2020/01/31 21:33:36.9	4.480	-0.010	-0.860	-0.310
2020/01/31 21:33:37.0	4.480	0.050	-0.950	-0.280
2020/01/31 21:33:37.1	4.470	0.100	-1.030	-0.260
2020/01/31 21:33:37.2	4.470	0.150	-1.110	-0.240
2020/01/31 21:33:37.3	4.470	0.210	-1.180	-0.230
2020/01/31 21:33:37.4	4.470	0.260	-1.250	-0.210
2020/01/31 21:33:37.5	4.480	0.310	-1.320	-0.200
2020/01/31 21:33:37.6	4.480	0.350	-1.380	-0.190
2020/01/31 21:33:37.7	4.490	0.400	-1.440	-0.190
2020/01/31 21:33:37.8	4.490	0.440	-1.490	-0.180
2020/01/31 21:33:37.9	4.500	0.490	-1.540	-0.180
2020/01/31 21:33:38.0	4.510	0.530	-1.580	-0.180
2020/01/31 21:33:38.1	4.520	0.560	-1.610	-0.180
2020/01/31 21:33:38.2	4.540	0.600	-1.640	-0.190
2020/01/31 21:33:38.3	4.550	0.630	-1.660	-0.190
2020/01/31 21:33:38.4	4.570	0.660	-1.670	-0.200
2020/01/31 21:33:38.5	4.590	0.690	-1.680	-0.210
2020/01/31 21:33:38.6	4.620	0.720	-1.670	-0.220
2020/01/31 21:33:38.7	4.640	0.740	-1.660	-0.230
2020/01/31 21:33:38.8	4.660	0.760	-1.640	-0.240
2020/01/31 21:33:38.9	4.690	0.770	-1.610	-0.250
2020/01/31 21:33:39.0	4.720	0.780	-1.580	-0.260
2020/01/31 21:33:39.1	4.750	0.790	-1.530	-0.270
2020/01/31 21:33:39.2	4.770	0.800	-1.480	-0.280
2020/01/31 21:33:39.3	4.800	0.800	-1.420	-0.280
2020/01/31 21:33:39.4	4.830	0.790	-1.350	-0.290
2020/01/31 21:33:39.5	4.850	0.790	-1.270	-0.300
2020/01/31 21:33:39.6	4.870	0.780	-1.180	-0.300
2020/01/31 21:33:39.7	4.890	0.760	-1.090	-0.300
2020/01/31 21:33:39.8	4.910	0.740	-0.990	-0.300
2020/01/31 21:33:39.9	4.930	0.720	-0.880	-0.300
2020/01/31 21:33:40.0	4.950	0.690	-0.770	-0.300
2020/01/31 21:33:40.1	4.960	0.660	-0.660	-0.290
2020/01/31 21:33:40.2	4.970	0.620	-0.540	-0.290
2020/01/31 21:33:40.3	4.990	0.580	-0.420	-0.280
2020/01/31 21:33:40.4	4.990	0.540	-0.300	-0.280
2020/01/31 21:33:40.5	5.000	0.500	-0.180	-0.270
2020/01/31 21:33:40.6	5.000	0.450	-0.050	-0.260
2020/01/31 21:33:40.7	5.000	0.400	0.070	-0.260
2020/01/31 21:33:40.8	5.000	0.350	0.190	-0.250
2020/01/31 21:33:40.9	4.990	0.290	0.300	-0.240
2020/01/31 21:33:41.0	4.990	0.240	0.420	-0.230
2020/01/31 21:33:41.1	4.980	0.180	0.530	-0.220
2020/01/31 21:33:41.2	4.970	0.130	0.630	-0.210
2020/01/31 21:33:41.3	4.960	0.070	0.730	-0.200
2020/01/31 21:33:41.4	4.950	0.010	0.820	-0.190
2020/01/31 21:33:41.5	4.940	-0.040	0.900	-0.180
2020/01/31 21:33:41.6	4.920	-0.090	0.980	-0.160
2020/01/31 21:33:41.7	4.910	-0.150	1.050	-0.150
2020/01/31 21:33:41.8	4.890	-0.200	1.110	-0.130
2020/01/31 21:33:41.9	4.870	-0.240	1.160	-0.120
2020/01/31 21:33:42.0	4.850	-0.290	1.200	-0.100
2020/01/31 21:33:42.1	4.820	-0.330	1.240	-0.080
2020/01/31 21:33:42.2	4.800	-0.360	1.260	-0.060
2020/01/31 21:33:42.3	4.770	-0.400	1.280	-0.040
2020/01/31 21:33:42.4	4.750	-0.420	1.290	-0.020
2020/01/31 21:33:42.5	4.720	-0.450	1.290	0.010
2020/01/31 21:33:42.6	4.690	-0.470	1.280	0.030
2020/01/31 21:33:42.7	4.660	-0.490	1.260	0.050
2020/01/31 21:33:42.8	4.640	-0.500	1.240	0.080
2020/01/31 21:33:42.9	4.610	-0.510	1.200	0.100
2020/01/31 21:33:43.0	4.580	-0.510	1.160	0.120
2020/01/31 21:33:43.1	4.550	-0.510	1.120	0.140
2020/01/31 21:33:43.2	4.520	-0.500	1.060	0.170
2020/01/31 21:33:43.3	4.490	-0.500	1.000	0.190
2020/01/31 21:33:43.4	4.460	-0.480	0.930	0.200
2020/01/31 21:33:43.5	4.430	-0.470	0.860	0.220
2020/01/31 21:33:43.6	4.410	-0.450	0.780	0.230
2020/01/31 21:33:43.7	4.380	-0.430	0.690	0.240
2020/01/31 21:33:43.8	4.350	-0.410	0.600	0.250
2020/01/31 21:33:43.9	4.330	-0.380	0.510	0.260
2020/01/31 21:33:44.0	4.300	-0.360	0.410	0.260
2020/01/31 21:33:44.1	4.280	-0.330	0.310	0.270
2020/01/31 21:33:44.2	4.260	-0.300	0.210	0.270
2020/01/31 21:33:44.3	4.240	-0.270	0.110	0.260
2020/01/31 21:33:44.4	4.220	-0.240	0.010	0.260
2020/01/31 21:33:44.5	4.200	-0.210	-0.100	0.250
2020/01/31 21:33:44.6	4.190	-0.180	-0.200	0.230
2020/01/31 21:33:44.7	4.170	-0.160	-0.300	0.220
2020/01/31 21:33:44.8	4.160	-0.130	-0.400	0.200
2020/01/31 21:33:44.9	4.150	-0.100	-0.500	0.180
2020/01/31 21:33:45.0	4.150	-0.080	-0.600	0.150
2020/01/31 21:33:45.1	4.150	-0.060	-0.690	0.120
2020/01/31 21:33:45.2	4.150	-0.030	-0.780	0.080
2020/01/31 21:33:45.3	4.160	-0.020	-0.870	0.050
2020/01/31 21:33:45.4	4.170	0.000	-0.950	0.000
2020/01/31 21:33:45.5	4.180	0.020	-1.030	-0.040
2020/01/31 21:33:45.6	4.200	0.030	-1.110	-0.090
2020/01/31 21:33:45.7	4.230	0.040	-1.180	-0.150
2020/01/31 21:33:45.8	4.250	0.050	-1.240	-0.200
2020/01/31 21:33:45.9	4.290	0.060	-1.300	-0.260
2020/01/31 21:33:46.0	4.320	0.070	-1.360	-0.310
2020/01/31 21:33:46.1	4.360	0.070	-1.400	-0.370
2020/01/31 21:33:46.2	4.390	0.070	-1.450	-0.430
2020/01/31 21:33:46.3	4.440	0.080	-1.480	-0.480
2020/01/31 21:33:46.4	4.480	0.080	-1.510	-0.540
2020/01/31 21:33:46.5	4.520	0.070	-1.530	-0.590
2020/01/31 21:33:46.6	4.570	0.070	-1.540	-0.640
2020/01/31 21:33:46.7	4.610	0.070	-1.550	-0.690
2020/01/31 21:33:46.8	4.660	0.060	-1.550	-0.730
2020/01/31 21:33:46.9	4.700	0.060	-1.540	-0.770
2020/01/31 21:33:47.0	4.740	0.050	-1.530	-0.800
2020/01/31 21:33:47.1	4.790	0.050	-1.500	-0.830
2020/01/31 21:33:47.2	4.830	0.040	-1.470	-0.860
2020/01/31 21:33:47.3	4.860	0.030	-1.430	-0.880
2020/01/31 21:33:47.4	4.900	0.020	-1.390	-0.890
2020/01/31 21:33:47.5	4.930	0.010	-1.340	-0.900
2020/01/31 21:33:47.6	4.960	0.000	-1.280	-0.910
2020/01/31 21:33:47.7	4.980	-0.000	-1.210	-0.910
2020/01/31 21:33:47.8	5.000	-0.010	-1.140	-0.900
2020/01/31 21:33:47.9	5.010	-0.020	-1.070	-0.890
2020/01/31 21:33:48.0	5.020	-0.030	-0.990	-0.870
2020/01/31 21:33:48.1	5.030	-0.040	-0.900	-0.850
2020/01/31 21:33:48.2	5.030	-0.050	-0.810	-0.820
2020/01/31 21:33:48.3	5.030	-0.060	-0.720	-0.790
2020/01/31 21:33:48.4	5.020	-0.060	-0.620	-0.750
2020/01/31 21:33:48.5	5.010	-0.070	-0.530	-0.710
2020/01/31 21:33:48.6	4.990	-0.080	-0.430	-0.670
2020/01/31 21:33:48.7	4.980	-0.080	-0.330	-0.620
2020/01/31 21:33:48.8	4.960	-0.090	-0.240	-0.580
2020/01/31 21:33:48.9	4.930	-0.090	-0.150	-0.520
2020/01/31 21:33:49.0	4.910	-0.090	-0.050	-0.470
2020/01/31 21:33:49.1	4.890	-0.100	0.030	-0.420
2020/01/31 21:33:49.2	4.860	-0.100	0.120	-0.370
2020/01/31 21:33:49.3	4.830	-0.100	0.190	-0.310
2020/01/31 21:33:49.4	4.810	-0.100	0.260	-0.260
2020/01/31 21:33:49.5	4.780	-0.090	0.330	-0.210
2020/01/31 21:33:49.6	4.760	-0.090	0.390	-0.160
2020/01/31 21:33:49.7	4.730	-0.080	0.440	-0.120
2020/01/31 21:33:49.8	4.710	-0.080	0.480	-0.070
2020/01/31 21:33:49.9	4.690	-0.070	0.510	-0.030
2020/01/31 21:33:50.0	4.680	-0.060	0.540	0.020
2020/01/31 21:33:50.1	4.660	-0.050	0.560	0.050
2020/01/31 21:33:50.2	4.640	-0.040	0.570	0.090
2020/01/31 21:33:50.3	4.630	-0.020	0.570	0.130
2020/01/31 21:33:50.4	4.620	-0.010	0.570	0.160
2020/01/31 21:33:50.5	4.600	0.010	0.550	0.180
2020/01/31 21:33:50.6	4.590	0.020	0.540	0.210
2020/01/31 21:33:50.7	4.580	0.040	0.510	0.230
2020/01/31 21:33:50.8	4.570	0.060	0.490	0.250
2020/01/31 21:33:50.9	4.550	0.080	0.450	0.270
2020/01/31 21:33:51.0	4.540	0.100	0.410	0.280
2020/01/31 21:33:51.1	4.540	0.120	0.370	0.290
2020/01/31 21:33:51.2	4.530	0.140	0.330	0.290
2020/01/31 21:33:51.3	4.520	0.160	0.290	0.290
2020/01/31 21:33:51.4	4.520	0.170	0.240	0.280
2020/01/31 21:33:51.5	4.510	0.190	0.190	0.280
2020/01/31 21:33:51.6	4.500	0.210	0.150	0.260
2020/01/31 21:33:51.7	4.500	0.230	0.100	0.250
2020/01/31 21:33:51.8	4.490	0.240	0.060	0.230
2020/01/31 21:33:51.9	4.500	0.260	0.020	0.210
2020/01/31 21:33:52.0	4.490	0.270	-0.020	0.190
2020/01/31 21:33:52.1	4.480	0.290	-0.050	0.170
2020/01/31 21:33:52.2	4.480	0.300	-0.090	0.150
2020/01/31 21:33:52.3	4.470	0.310	-0.120	0.120
2020/01/31 21:33:52.4	4.470	0.310	-0.140	0.100
2020/01/31 21:33:52.5	4.460	0.320	-0.170	0.070
2020/01/31 21:33:52.6	4.450	0.320	-0.180	0.050
2020/01/31 21:33:52.7	4.450	0.320	-0.200	0.030
2020/01/31 21:33:52.8	4.440	0.320	-0.210	0.010
2020/01/31 21:33:52.9	4.440	0.320	-0.220	-0.010
2020/01/31 21:33:53.0	4.430	0.320	-0.230	-0.030
2020/01/31 21:33:53.1	4.420	0.310	-0.230	-0.050
2020/01/31 21:33:53.2	4.420	0.300	-0.230	-0.060
2020/01/31 21:33:53.3	4.410	0.290	-0.220	-0.080
2020/01/31 21:33:53.4	4.410	0.270	-0.220	-0.100
2020/01/31 21:33:53.5	4.410	0.260	-0.210	-0.110
2020/01/31 21:33:53.6	4.400	0.240	-0.200	-0.120
2020/01/31 21:33:53.7	4.400	0.220	-0.200	-0.140
2020/01/31 21:33:53.8	4.400	0.200	-0.190	-0.150
2020/01/31 21:33:53.9	4.390	0.180	-0.170	-0.160
2020/01/31 21:33:54.0	4.380	0.150	-0.160	-0.180
2020/01/31 21:33:54.1	4.380	0.130	-0.150	-0.190
2020/01/31 21:33:54.2	4.380	0.100	-0.150	-0.200
2020/01/31 21:33:54.3	4.380	0.070	-0.140	-0.220
2020/01/31 21:33:54.4	4.380	0.040	-0.140	-0.230
2020/01/31 21:33:54.5	4.370	0.020	-0.130	-0.250
2020/01/31 21:33:54.6	4.370	-0.010	-0.130	-0.260
2020/01/31 21:33:54.7	4.370	-0.040	-0.130	-0.280
2020/01/31 21:33:54.8	4.370	-0.070	-0.130	-0.290
2020/01/31 21:33:54.9	4.370	-0.100	-0.140	-0.310
2020/01/31 21:33:55.0	4.370	-0.130	-0.150	-0.330
2020/01/31 21:33:55.1	4.370	-0.160	-0.160	-0.350
2020/01/31 21:33:55.2	4.370	-0.180	-0.170	-0.360
2020/01/31 21:33:55.3	4.370	-0.210	-0.180	-0.380
2020/01/31 21:33:55.4	4.370	-0.230	-0.190	-0.400
2020/01/31 21:33:55.5	4.370	-0.250	-0.210	-0.420
2020/01/31 21:33:55.6	4.370	-0.270	-0.220	-0.440
2020/01/31 21:33:55.7	4.370	-0.290	-0.240	-0.460
2020/01/31 21:33:55.8	4.370	-0.310	-0.260	-0.470
2020/01/31 21:33:55.9	4.370	-0.320	-0.280	-0.490
2020/01/31 21:33:56.0	4.380	-0.330	-0.300	-0.510
2020/01/31 21:33:56.1	4.380	-0.340	-0.330	-0.530
2020/01/31 21:33:56.2	4.390	-0.350	-0.350	-0.550
2020/01/31 21:33:56.3	4.400	-0.350	-0.380	-0.570
2020/01/31 21:33:56.4	4.410	-0.360	-0.410	-0.590
2020/01/31 21:33:56.5	4.420	-0.360	-0.440	-0.610
2020/01/31 21:33:56.6	4.430	-0.350	-0.470	-0.630
2020/01/31 21:33:56.7	4.450	-0.350	-0.500	-0.660
2020/01/31 21:33:56.8	4.470	-0.340	-0.540	-0.680
2020/01/31 21:33:56.9	4.490	-0.330	-0.570	-0.700
2020/01/31 21:33:57.0	4.510	-0.320	-0.600	-0.720
2020/01/31 21:33:57.1	4.530	-0.300	-0.640	-0.740
2020/01/31 21:33:57.2	4.550	-0.290	-0.670	-0.760
2020/01/31 21:33:57.3	4.570	-0.270	-0.700	-0.780
2020/01/31 21:33:57.4	4.590	-0.250	-0.730	-0.800
2020/01/31 21:33:57.5	4.610	-0.230	-0.760	-0.810
2020/01/31 21:33:57.6	4.630	-0.210	-0.790	-0.820
2020/01/31 21:33:57.7	4.650	-0.180	-0.810	-0.830
2020/01/31 21:33:57.8	4.670	-0.160	-0.830	-0.840
2020/01/31 21:33:57.9	4.700	-0.140	-0.840	-0.840
2020/01/31 21:33:58.0	4.710	-0.110	-0.850	-0.840
2020/01/31 21:33:58.1	4.730	-0.090	-0.860	-0.830
2020/01/31 21:33:58.2	4.740	-0.060	-0.860	-0.830
2020/01/31 21:33:58.3	4.760	-0.040	-0.860	-0.820
2020/01/31 21:33:58.4	4.770	-0.020	-0.850	-0.800
2020/01/31 21:33:58.5	4.780	0.000	-0.830	-0.780
2020/01/31 21:33:58.6	4.790	0.020	-0.810	-0.760
2020/01/31 21:33:58.7	4.800	0.040	-0.780	-0.730
2020/01/31 21:33:58.8	4.800	0.060	-0.740	-0.700
2020/01/31 21:33:58.9	4.800	0.080	-0.700	-0.670
2020/01/31 21:33:59.0	4.800	0.090	-0.660	-0.620
2020/01/31 21:33:59.1	4.800	0.100	-0.610	-0.580
2020/01/31 21:33:59.2	4.790	0.110	-0.560	-0.530
2020/01/31 21:33:59.3	4.780	0.120	-0.500	-0.480
2020/01/31 21:33:59.4	4.770	0.120	-0.440	-0.420
2020/01/31 21:33:59.5	4.750	0.130	-0.380	-0.360
2020/01/31 21:33:59.6	4.730	0.130	-0.310	-0.300
2020/01/31 21:33:59.7	4.700	0.120	-0.240	-0.240
2020/01/31 21:33:59.8	4.680	0.120	-0.170	-0.180
2020/01/31 21:33:59.9	4.640	0.110	-0.110	-0.110
2020/01/31 21:34:00.0	4.610	0.110	-0.040	-0.050
2020/01/31 21:34:00.1	4.580	0.100	0.020	0.010
2020/01/31 21:34:00.2	4.550	0.090	0.080	0.070
2020/01/31 21:34:00.3	4.510	0.070	0.140	0.120
2020/01/31 21:34:00.4	4.470	0.060	0.200	0.170
2020/01/31 21:34:00.5	4.440	0.050	0.250	0.220
2020/01/31 21:34:00.6	4.400	0.040	0.290	0.260
2020/01/31 21:34:00.7	4.360	0.020	0.330	0.300
2020/01/31 21:34:00.8	4.330	0.010	0.360	0.340
2020/01/31 21:34:00.9	4.290	0.000	0.380	0.370
2020/01/31 21:34:01.0	4.250	-0.010	0.400	0.400
2020/01/31 21:34:01.1	4.220	-0.020	0.410	0.420
2020/01/31 21:34:01.2	4.190	-0.020	0.410	0.440
2020/01/31 21:34:01.3	4.160	-0.030	0.400	0.450
2020/01/31 21:34:01.4	4.140	-0.030	0.390	0.450
2020/01/31 21:34:01.5	4.120	-0.030	0.360	0.450
2020/01/31 21:34:01.6	4.110	-0.020	0.330	0.440
2020/01/31 21:34:01.7	4.100	-0.010	0.290	0.430
2020/01/31 21:34:01.8	4.090	-0.000	0.250	0.420
2020/01/31 21:34:01.9	4.090	0.010	0.200	0.390
2020/01/31 21:34:02.0	4.090	0.030	0.140	0.370
2020/01/31 21:34:02.1	4.100	0.040	0.080	0.340
2020/01/31 21:34:02.2	4.110	0.070	0.010	0.310
2020/01/31 21:34:02.3	4.120	0.090	-0.060	0.280
2020/01/31 21:34:02.4	4.140	0.110	-0.130	0.240
2020/01/31 21:34:02.5	4.160	0.140	-0.200	0.210
2020/01/31 21:34:02.6	4.180	0.170	-0.270	0.170
2020/01/31 21:34:02.7	4.200	0.200	-0.340	0.130
2020/01/31 21:34:02.8	4.220	0.220	-0.410	0.090
2020/01/31 21:34:02.9	4.240	0.250	-0.470	0.060
2020/01/31 21:34:03.0	4.260	0.270	-0.530	0.020
2020/01/31 21:34:03.1	4.280	0.290	-0.590	-0.010
2020/01/31 21:34:03.2	4.300	0.310	-0.630	-0.050
2020/01/31 21:34:03.3	4.310	0.330	-0.670	-0.080
2020/01/31 21:34:03.4	4.320	0.350	-0.700	-0.110
2020/01/31 21:34:03.5	4.340	0.360	-0.730	-0.150
2020/01/31 21:34:03.6	4.350	0.370	-0.750	-0.180
2020/01/31 21:34:03.7	4.360	0.370	-0.760	-0.210
2020/01/31 21:34:03.8	4.370	0.370	-0.760	-0.240
2020/01/31 21:34:03.9	4.370	0.370	-0.750	-0.270
2020/01/31 21:34:04.0	4.380	0.360	-0.730	-0.290
2020/01/31 21:34:04.1	4.380	0.350	-0.710	-0.320
2020/01/31 21:34:04.2	4.380	0.330	-0.690	-0.350
2020/01/31 21:34:04.3	4.390	0.310	-0.660	-0.370
2020/01/31 21:34:04.4	4.390	0.290	-0.620	-0.390
2020/01/31 21:34:04.5	4.390	0.270	-0.570	-0.410
2020/01/31 21:34:04.6	4.390	0.240	-0.530	-0.430
2020/01/31 21:34:04.7	4.390	0.210	-0.480	-0.450
2020/01/31 21:34:04.8	4.390	0.180	-0.420	-0.460
2020/01/31 21:34:04.9	4.400	0.140	-0.370	-0.480
2020/01/31 21:34:05.0	4.400	0.100	-0.310	-0.490
2020/01/31 21:34:05.1	4.400	0.070	-0.250	-0.500
2020/01/31 21:34:05.2	4.390	0.030	-0.190	-0.510
2020/01/31 21:34:05.3	4.390	-0.010	-0.130	-0.510
2020/01/31 21:34:05.4	4.390	-0.050	-0.080	-0.520
2020/01/31 21:34:05.5	4.390	-0.080	-0.020	-0.520
2020/01/31 21:34:05.6	4.380	-0.120	0.030	-0.520
2020/01/31 21:34:05.7	4.380	-0.150	0.080	-0.520
2020/01/31 21:34:05.8	4.370	-0.190	0.120	-0.520
2020/01/31 21:34:05.9	4.370	-0.220	0.170	-0.510
2020/01/31 21:34:06.0	4.360	-0.250	0.210	-0.510
2020/01/31 21:34:06.1	4.350	-0.270	0.240	-0.500
2020/01/31 21:34:06.2	4.340	-0.300	0.270	-0.500
2020/01/31 21:34:06.3	4.330	-0.320	0.290	-0.490
2020/01/31 21:34:06.4	4.320	-0.340	0.310	-0.480
2020/01/31 21:34:06.5	4.300	-0.350	0.320	-0.480
2020/01/31 21:34:06.6	4.290	-0.360	0.330	-0.470
2020/01/31 21:34:06.7	4.280	-0.370	0.330	-0.460
2020/01/31 21:34:06.8	4.260	-0.370	0.320	-0.460
2020/01/31 21:34:06.9	4.260	-0.370	0.310	-0.450
2020/01/31 21:34:07.0	4.250	-0.360	0.290	-0.450
2020/01/31 21:34:07.1	4.230	-0.350	0.270	-0.440
2020/01/31 21:34:07.2	4.220	-0.340	0.250	-0.430
2020/01/31 21:34:07.3	4.210	-0.330	0.210	-0.430
2020/01/31 21:34:07.4	4.200	-0.310	0.180	-0.420
2020/01/31 21:34:07.5	4.190	-0.290	0.140	-0.410
2020/01/31 21:34:07.6	4.180	-0.270	0.090	-0.400
2020/01/31 21:34:07.7	4.180	-0.250	0.040	-0.390
2020/01/31 21:34:07.8	4.170	-0.220	-0.010	-0.380
2020/01/31 21:34:07.9	4.180	-0.190	-0.060	-0.370
2020/01/31 21:34:08.0	4.170	-0.170	-0.120	-0.360
2020/01/31 21:34:08.1	4.170	-0.140	-0.170	-0.350
2020/01/31 21:34:08.2	4.160	-0.110	-0.230	-0.340
2020/01/31 21:34:08.3	4.160	-0.080	-0.290	-0.330
2020/01/31 21:34:08.4	4.160	-0.060	-0.350	-0.320
2020/01/31 21:34:08.5	4.160	-0.030	-0.400	-0.310
2020/01/31 21:34:08.6	4.150	-0.010	-0.460	-0.300
2020/01/31 21:34:08.7	4.150	0.020	-0.510	-0.290
2020/01/31 21:34:08.8	4.150	0.040	-0.560	-0.280
2020/01/31 21:34:08.9	4.150	0.050	-0.610	-0.270
2020/01/31 21:34:09.0	4.140	0.070	-0.650	-0.260
2020/01/31 21:34:09.1	4.140	0.080	-0.690	-0.260
2020/01/31 21:34:09.2	4.130	0.090	-0.720	-0.260
2020/01/31 21:34:09.3	4.130	0.100	-0.750	-0.260
2020/01/31 21:34:09.4	4.120	0.100	-0.770	-0.250
2020/01/31 21:34:09.5	4.110	0.100	-0.780	-0.250
2020/01/31 21:34:09.6	4.100	0.100	-0.790	-0.250
2020/01/31 21:34:09.7	4.080	0.090	-0.800	-0.250
2020/01/31 21:34:09.8	4.070	0.080	-0.790	-0.250
2020/01/31 21:34:09.9	4.060	0.070	-0.780	-0.250
2020/01/31 21:34:10.0	4.040	0.050	-0.770	-0.240
2020/01/31 21:34:10.1	4.020	0.040	-0.750	-0.240
2020/01/31 21:34:10.2	4.010	0.020	-0.720	-0.230
2020/01/31 21:34:10.3	3.990	-0.000	-0.690	-0.230
2020/01/31 21:34:10.4	3.980	-0.030	-0.660	-0.230
2020/01/31 21:34:10.5	3.960	-0.050	-0.630	-0.220
2020/01/31 21:34:10.6	3.940	-0.070	-0.590	-0.220
2020/01/31 21:34:10.7	3.930	-0.100	-0.550	-0.210
2020/01/31 21:34:10.8	3.920	-0.120	-0.510	-0.210
2020/01/31 21:34:10.9	3.910	-0.150	-0.470	-0.200
2020/01/31 21:34:11.0	3.900	-0.170	-0.430	-0.200
2020/01/31 21:34:11.1	3.890	-0.190	-0.400	-0.200
2020/01/31 21:34:11.2	3.880	-0.210	-0.360	-0.200
2020/01/31 21:34:11.3	3.880	-0.230	-0.330	-0.210
2020/01/31 21:34:11.4	3.880	-0.250	-0.300	-0.210
2020/01/31 21:34:11.5	3.870	-0.260	-0.270	-0.220
2020/01/31 21:34:11.6	3.870	-0.270	-0.250	-0.220
2020/01/31 21:34:11.7	3.880	-0.280	-0.230	-0.230
2020/01/31 21:34:11.8	3.880	-0.290	-0.210	-0.240
2020/01/31 21:34:11.9	3.890	-0.290	-0.200	-0.260
2020/01/31 21:34:12.0	3.890	-0.290	-0.190	-0.270
2020/01/31 21:34:12.1	3.900	-0.290	-0.190	-0.280
2020/01/31 21:34:12.2	3.910	-0.280	-0.190	-0.290
2020/01/31 21:34:12.3	3.910	-0.270	-0.190	-0.310
2020/01/31 21:34:12.4	3.920	-0.250	-0.190	-0.320
2020/01/31 21:34:12.5	3.930	-0.240	-0.190	-0.340
2020/01/31 21:34:12.6	3.940	-0.220	-0.200	-0.350
2020/01/31 21:34:12.7	3.940	-0.200	-0.210	-0.360
2020/01/31 21:34:12.8	3.950	-0.180	-0.220	-0.380
2020/01/31 21:34:12.9	3.960	-0.150	-0.230	-0.390
2020/01/31 21:34:13.0	3.970	-0.130	-0.240	-0.410
2020/01/31 21:34:13.1	3.980	-0.100	-0.250	-0.420
2020/01/31 21:34:13.2	3.990	-0.080	-0.260	-0.440
2020/01/31 21:34:13.3	4.000	-0.050	-0.270	-0.450
2020/01/31 21:34:13.4	4.010	-0.020	-0.280	-0.470
2020/01/31 21:34:13.5	4.020	0.010	-0.290	-0.480
2020/01/31 21:34:13.6	4.030	0.030	-0.290	-0.500
2020/01/31 21:34:13.7	4.050	0.060	-0.290	-0.510
2020/01/31 21:34:13.8	4.060	0.090	-0.290	-0.520
2020/01/31 21:34:13.9	4.080	0.110	-0.290	-0.530
2020/01/31 21:34:14.0	4.100	0.140	-0.290	-0.540
2020/01/31 21:34:14.1	4.120	0.160	-0.280	-0.550
2020/01/31 21:34:14.2	4.140	0.180	-0.280	-0.560
2020/01/31 21:34:14.3	4.160	0.200	-0.270	-0.570
2020/01/31 21:34:14.4	4.180	0.220	-0.260	-0.580
2020/01/31 21:34:14.5	4.200	0.230	-0.250	-0.590
2020/01/31 21:34:14.6	4.220	0.250	-0.230	-0.600
2020/01/31 21:34:14.7	4.240	0.260	-0.220	-0.600
2020/01/31 21:34:14.8	4.260	0.270	-0.200	-0.600
2020/01/31 21:34:14.9	4.280	0.280	-0.190	-0.610
2020/01/31 21:34:15.0	4.300	0.290	-0.170	-0.610
2020/01/31 21:34:15.1	4.320	0.290	-0.150	-0.600
2020/01/31 21:34:15.2	4.330	0.300	-0.130	-0.600
2020/01/31 21:34:15.3	4.350	0.300	-0.110	-0.590
2020/01/31 21:34:15.4	4.360	0.300	-0.090	-0.580
2020/01/31 21:34:15.5	4.370	0.290	-0.070	-0.570
2020/01/31 21:34:15.6	4.380	0.290	-0.050	-0.560
2020/01/31 21:34:15.7	4.390	0.280	-0.030	-0.540
2020/01/31 21:34:15.8	4.390	0.280	-0.010	-0.520
2020/01/31 21:34:15.9	4.390	0.270	0.010	-0.500
2020/01/31 21:34:16.0	4.390	0.260	0.020	-0.480
2020/01/31 21:34:16.1	4.390	0.250	0.030	-0.460
2020/01/31 21:34:16.2	4.390	0.240	0.050	-0.440
2020/01/31 21:34:16.3	4.390	0.230	0.060	-0.420
2020/01/31 21:34:16.4	4.380	0.220	0.060	-0.400
2020/01/31 21:34:16.5	4.370	0.210	0.070	-0.370
2020/01/31 21:34:16.6	4.360	0.200	0.070	-0.350
2020/01/31 21:34:16.7	4.350	0.190	0.080	-0.320
2020/01/31 21:34:16.8	4.340	0.190	0.080	-0.290
2020/01/31 21:34:16.9	4.330	0.180	0.070	-0.270
2020/01/31 21:34:17.0	4.320	0.170	0.070	-0.240
2020/01/31 21:34:17.1	4.300	0.170	0.060	-0.210
2020/01/31 21:34:17.2	4.290	0.170	0.060	-0.180
2020/01/31 21:34:17.3	4.270	0.160	0.050	-0.150
2020/01/31 21:34:17.4	4.250	0.160	0.040	-0.120
2020/01/31 21:34:17.5	4.230	0.160	0.030	-0.090
2020/01/31 21:34:17.6	4.210	0.160	0.020	-0.060
2020/01/31 21:34:17.7	4.190	0.170	0.000	-0.030
2020/01/31 21:34:17.8	4.170	0.170	-0.010	-0.000
2020/01/31 21:34:17.9	4.150	0.170	-0.020	0.030
2020/01/31 21:34:18.0	4.130	0.180	-0.030	0.060
2020/01/31 21:34:18.1	4.100	0.180	-0.040	0.090
2020/01/31 21:34:18.2	4.080	0.190	-0.050	0.110
2020/01/31 21:34:18.3	4.050	0.190	-0.060	0.140
2020/01/31 21:34:18.4	4.020	0.200	-0.070	0.170
2020/01/31 21:34:18.5	3.990	0.200	-0.080	0.190
2020/01/31 21:34:18.6	3.960	0.200	-0.090	0.210
2020/01/31 21:34:18.7	3.930	0.200	-0.100	0.230
2020/01/31 21:34:18.8	3.900	0.200	-0.110	0.250
2020/01/31 21:34:18.9	3.860	0.200	-0.130	0.260
2020/01/31 21:34:19.0	3.830	0.190	-0.130	0.270
2020/01/31 21:34:19.1	3.800	0.180	-0.140	0.280
2020/01/31 21:34:19.2	3.760	0.170	-0.150	0.290
2020/01/31 21:34:19.3	3.730	0.160	-0.160	0.290
2020/01/31 21:34:19.4	3.690	0.150	-0.170	0.280
2020/01/31 21:34:19.5	3.660	0.130	-0.180	0.270
2020/01/31 21:34:19.6	3.630	0.120	-0.190	0.260
2020/01/31 21:34:19.7	3.600	0.100	-0.210	0.240
2020/01/31 21:34:19.8	3.570	0.070	-0.220	0.210
2020/01/31 21:34:19.9	3.540	0.050	-0.240	0.180
2020/01/31 21:34:20.0	3.510	0.030	-0.260	0.150
2020/01/31 21:34:20.1	3.490	0.000	-0.280	0.110
2020/01/31 21:34:20.2	3.470	-0.030	-0.300	0.070
2020/01/31 21:34:20.3	3.460	-0.050	-0.320	0.020
2020/01/31 21:34:20.4	3.450	-0.080	-0.350	-0.030
2020/01/31 21:34:20.5	3.440	-0.110	-0.380	-0.090
2020/01/31 21:34:20.6	3.440	-0.140	-0.410	-0.150
2020/01/31 21:34:20.7	3.440	-0.160	-0.440	-0.210
2020/01/31 21:34:20.8	3.450	-0.190	-0.470	-0.280
2020/01/31 21:34:20.9	3.450	-0.220	-0.510	-0.340
2020/01/31 21:34:21.0	3.460	-0.240	-0.540	-0.410
2020/01/31 21:34:21.1	3.480	-0.260	-0.580	-0.480
2020/01/31 21:34:21.2	3.490	-0.290	-0.610	-0.550
2020/01/31 21:34:21.3	3.520	-0.310	-0.650	-0.620
2020/01/31 21:34:21.4	3.540	-0.320	-0.680	-0.690
2020/01/31 21:34:21.5	3.570	-0.340	-0.720	-0.760
2020/01/31 21:34:21.6	3.590	-0.350	-0.750	-0.820
2020/01/31 21:34:21.7	3.620	-0.370	-0.780	-0.880
2020/01/31 21:34:21.8	3.650	-0.380	-0.800	-0.930
2020/01/31 21:34:21.9	3.680	-0.380	-0.820	-0.990
2020/01/31 21:34:22.0	3.710	-0.390	-0.840	-1.030
2020/01/31 21:34:22.1	3.750	-0.390	-0.850	-1.070
2020/01/31 21:34:22.2	3.780	-0.390	-0.860	-1.110
2020/01/31 21:34:22.3	3.810	-0.390	-0.870	-1.140
2020/01/31 21:34:22.4	3.840	-0.380	-0.870	-1.170
2020/01/31 21:34:22.5	3.880	-0.380	-0.860	-1.190
2020/01/31 21:34:22.6	3.910	-0.370	-0.850	-1.200
2020/01/31 21:34:22.7	3.950	-0.360	-0.840	-1.220
2020/01/31 21:34:22.8	3.980	-0.350	-0.820	-1.230
2020/01/31 21:34:22.9	4.020	-0.340	-0.800	-1.230
2020/01/31 21:34:23.0	4.050	-0.330	-0.780	-1.230
2020/01/31 21:34:23.1	4.080	-0.310	-0.750	-1.230
2020/01/31 21:34:23.2	4.120	-0.300	-0.720	-1.230
2020/01/31 21:34:23.3	4.150	-0.280	-0.690	-1.220
2020/01/31 21:34:23.4	4.190	-0.270	-0.660	-1.210
2020/01/31 21:34:23.5	4.220	-0.250	-0.620	-1.210
2020/01/31 21:34:23.6	4.260	-0.240	-0.590	-1.200
2020/01/31 21:34:23.7	4.290	-0.220	-0.550	-1.190
2020/01/31 21:34:23.8	4.320	-0.200	-0.510	-1.180
2020/01/31 21:34:23.9	4.350	-0.190	-0.480	-1.160
2020/01/31 21:34:24.0	4.380	-0.170	-0.440	-1.150
2020/01/31 21:34:24.1	4.410	-0.150	-0.410	-1.140
2020/01/31 21:34:24.2	4.440	-0.140	-0.370	-1.120
2020/01/31 21:34:24.3	4.470	-0.120	-0.340	-1.100
2020/01/31 21:34:24.4	4.500	-0.100	-0.310	-1.090
2020/01/31 21:34:24.5	4.530	-0.090	-0.280	-1.070
2020/01/31 21:34:24.6	4.560	-0.070	-0.250	-1.050
2020/01/31 21:34:24.7	4.590	-0.060	-0.220	-1.030
2020/01/31 21:34:24.8	4.610	-0.050	-0.190	-1.000
2020/01/31 21:34:24.9	4.640	-0.030	-0.160	-0.970
2020/01/31 21:34:25.0	4.660	-0.020	-0.130	-0.940
2020/01/31 21:34:25.1	4.680	-0.010	-0.100	-0.910
2020/01/31 21:34:25.2	4.690	-0.000	-0.080	-0.880
2020/01/31 21:34:25.3	4.700	0.000	-0.050	-0.840
2020/01/31 21:34:25.4	4.710	0.010	-0.020	-0.800
2020/01/31 21:34:25.5	4.710	0.010	0.010	-0.760
2020/01/31 21:34:25.6	4.710	0.020	0.030	-0.720
2020/01/31 21:34:25.7	4.700	0.020	0.060	-0.680
2020/01/31 21:34:25.8	4.700	0.020	0.090	-0.640
2020/01/31 21:34:25.9	4.690	0.020	0.110	-0.590
2020/01/31 21:34:26.0	4.670	0.010	0.140	-0.560
2020/01/31 21:34:26.1	4.650	0.010	0.160	-0.520
2020/01/31 21:34:26.2	4.640	0.010	0.180	-0.480
2020/01/31 21:34:26.3	4.610	0.000	0.210	-0.450
2020/01/31 21:34:26.4	4.590	-0.000	0.230	-0.410
2020/01/31 21:34:26.5	4.560	-0.010	0.250	-0.380
2020/01/31 21:34:26.6	4.540	-0.020	0.270	-0.360
2020/01/31 21:34:26.7	4.510	-0.020	0.280	-0.330
2020/01/31 21:34:26.8	4.480	-0.030	0.300	-0.310
2020/01/31 21:34:26.9	4.440	-0.040	0.310	-0.290
2020/01/31 21:34:27.0	4.400	-0.040	0.320	-0.270
2020/01/31 21:34:27.1	4.370	-0.040	0.330	-0.250
2020/01/31 21:34:27.2	4.330	-0.050	0.340	-0.230
2020/01/31 21:34:27.3	4.300	-0.050	0.350	-0.220
2020/01/31 21:34:27.4	4.260	-0.050	0.350	-0.200
2020/01/31 21:34:27.5	4.230	-0.050	0.350	-0.190
2020/01/31 21:34:27.6	4.190	-0.040	0.340	-0.180
2020/01/31 21:34:27.7	4.150	-0.040	0.340	-0.170
2020/01/31 21:34:27.8	4.110	-0.030	0.330	-0.160
2020/01/31 21:34:27.9	4.070	-0.020	0.320	-0.150
2020/01/31 21:34:28.0	4.030	-0.010	0.300	-0.140
2020/01/31 21:34:28.1	3.990	-0.000	0.280	-0.140
2020/01/31 21:34:28.2	3.960	0.010	0.260	-0.130
2020/01/31 21:34:28.3	3.920	0.030	0.240	-0.130
2020/01/31 21:34:28.4	3.890	0.040	0.210	-0.120
2020/01/31 21:34:28.5	3.860	0.060	0.180	-0.120
2020/01/31 21:34:28.6	3.830	0.080	0.150	-0.120
2020/01/31 21:34:28.7	3.800	0.100	0.110	-0.120
2020/01/31 21:34:28.8	3.770	0.130	0.070	-0.130
2020/01/31 21:34:28.9	3.750	0.150	0.030	-0.130
2020/01/31 21:34:29.0	3.720	0.170	-0.010	-0.140
2020/01/31 21:34:29.1	3.710	0.190	-0.060	-0.150
2020/01/31 21:34:29.2	3.690	0.220	-0.110	-0.150
2020/01/31 21:34:29.3	3.670	0.240	-0.160	-0.160
2020/01/31 21:34:29.4	3.660	0.260	-0.210	-0.180
2020/01/31 21:34:29.5	3.650	0.280	-0.260	-0.190
2020/01/31 21:34:29.6	3.640	0.300	-0.310	-0.200
2020/01/31 21:34:29.7	3.630	0.320	-0.360	-0.220
2020/01/31 21:34:29.8	3.630	0.340	-0.410	-0.240
2020/01/31 21:34:29.9	3.620	0.350	-0.460	-0.260
2020/01/31 21:34:30.0	3.610	0.360	-0.510	-0.280
2020/01/31 21:34:30.1	3.620	0.370	-0.550	-0.300
2020/01/31 21:34:30.2	3.620	0.380	-0.600	-0.320
2020/01/31 21:34:30.3	3.620	0.390	-0.640	-0.350
2020/01/31 21:34:30.4	3.630	0.390	-0.680	-0.380
2020/01/31 21:34:30.5	3.640	0.390	-0.720	-0.410
2020/01/31 21:34:30.6	3.650	0.390	-0.750	-0.440
2020/01/31 21:34:30.7	3.660	0.380	-0.780	-0.470
2020/01/31 21:34:30.8	3.670	0.380	-0.810	-0.500
2020/01/31 21:34:30.9	3.680	0.370	-0.830	-0.540
2020/01/31 21:34:31.0	3.700	0.350	-0.850	-0.570
2020/01/31 21:34:31.1	3.720	0.340	-0.860	-0.610
2020/01/31 21:34:31.2	3.730	0.320	-0.870	-0.640
2020/01/31 21:34:31.3	3.750	0.300	-0.870	-0.680
2020/01/31 21:34:31.4	3.770	0.270	-0.870	-0.710
2020/01/31 21:34:31.5	3.790	0.250	-0.860	-0.750
2020/01/31 21:34:31.6	3.810	0.220	-0.850	-0.780
2020/01/31 21:34:31.7	3.830	0.190	-0.830	-0.810
2020/01/31 21:34:31.8	3.850	0.160	-0.810	-0.850
2020/01/31 21:34:31.9	3.870	0.120	-0.780	-0.880
2020/01/31 21:34:32.0	3.880	0.090	-0.750	-0.910
2020/01/31 21:34:32.1	3.900	0.050	-0.710	-0.940
2020/01/31 21:34:32.2	3.910	0.020	-0.680	-0.960
2020/01/31 21:34:32.3	3.920	-0.020	-0.640	-0.990
2020/01/31 21:34:32.4	3.940	-0.060	-0.600	-1.010
2020/01/31 21:34:32.5	3.950	-0.090	-0.550	-1.040
2020/01/31 21:34:32.6	3.960	-0.130	-0.510	-1.060
2020/01/31 21:34:32.7	3.960	-0.160	-0.460	-1.070
2020/01/31 21:34:32.8	3.970	-0.200	-0.410	-1.090
2020/01/31 21:34:32.9	3.970	-0.230	-0.370	-1.100
2020/01/31 21:34:33.0	3.980	-0.270	-0.330	-1.110
2020/01/31 21:34:33.1	3.980	-0.300	-0.280	-1.120
2020/01/31 21:34:33.2	3.990	-0.330	-0.240	-1.130
2020/01/31 21:34:33.3	3.990	-0.360	-0.200	-1.140
2020/01/31 21:34:33.4	3.990	-0.380	-0.170	-1.150
2020/01/31 21:34:33.5	4.000	-0.410	-0.140	-1.150
2020/01/31 21:34:33.6	4.000	-0.430	-0.110	-1.160
2020/01/31 21:34:33.7	4.010	-0.450	-0.090	-1.160
2020/01/31 21:34:33.8	4.010	-0.470	-0.060	-1.160
2020/01/31 21:34:33.9	4.030	-0.480	-0.050	-1.170
2020/01/31 21:34:34.0	4.040	-0.490	-0.030	-1.170
2020/01/31 21:34:34.1	4.040	-0.500	-0.030	-1.170
2020/01/31 21:34:34.2	4.050	-0.510	-0.020	-1.170
2020/01/31 21:34:34.3	4.060	-0.510	-0.020	-1.170
2020/01/31 21:34:34.4	4.070	-0.510	-0.030	-1.160
2020/01/31 21:34:34.5	4.080	-0.510	-0.030	-1.160
2020/01/31 21:34:34.6	4.090	-0.500	-0.040	-1.150
2020/01/31 21:34:34.7	4.100	-0.490	-0.050	-1.140
2020/01/31 21:34:34.8	4.110	-0.480	-0.070	-1.130
2020/01/31 21:34:34.9	4.130	-0.470	-0.080	-1.110
2020/01/31 21:34:35.0	4.140	-0.450	-0.100	-1.100
2020/01/31 21:34:35.1	4.150	-0.430	-0.120	-1.080
2020/01/31 21:34:35.2	4.160	-0.410	-0.130	-1.050
2020/01/31 21:34:35.3	4.170	-0.380	-0.150	-1.030
2020/01/31 21:34:35.4	4.180	-0.360	-0.160	-1.000
2020/01/31 21:34:35.5	4.190	-0.330	-0.180	-0.970
2020/01/31 21:34:35.6	4.200	-0.300	-0.190	-0.930
2020/01/31 21:34:35.7	4.210	-0.260	-0.200	-0.900
2020/01/31 21:34:35.8	4.220	-0.230	-0.210	-0.860
2020/01/31 21:34:35.9	4.220	-0.190	-0.210	-0.820
2020/01/31 21:34:36.0	4.230	-0.160	-0.220	-0.770
2020/01/31 21:34:36.1	4.240	-0.120	-0.220	-0.730
2020/01/31 21:34:36.2	4.250	-0.080	-0.220	-0.680
2020/01/31 21:34:36.3	4.260	-0.040	-0.210	-0.630
2020/01/31 21:34:36.4	4.260	-0.000	-0.210	-0.570
2020/01/31 21:34:36.5	4.270	0.040	-0.200	-0.520
2020/01/31 21:34:36.6	4.270	0.070	-0.200	-0.470
2020/01/31 21:34:36.7	4.280	0.110	-0.190	-0.410
2020/01/31 21:34:36.8	4.280	0.150	-0.180	-0.350
2020/01/31 21:34:36.9	4.280	0.180	-0.170	-0.290
2020/01/31 21:34:37.0	4.280	0.210	-0.160	-0.230
2020/01/31 21:34:37.1	4.280	0.240	-0.150	-0.170
2020/01/31 21:34:37.2	4.280	0.270	-0.140	-0.110
2020/01/31 21:34:37.3	4.270	0.300	-0.120	-0.060
2020/01/31 21:34:37.4	4.270	0.320	-0.120	0.000
2020/01/31 21:34:37.5	4.260	0.340	-0.110	0.060
2020/01/31 21:34:37.6	4.250	0.360	-0.100	0.120
2020/01/31 21:34:37.7	4.230	0.380	-0.090	0.170
2020/01/31 21:34:37.8	4.220	0.390	-0.080	0.220
2020/01/31 21:34:37.9	4.210	0.400	-0.080	0.280
2020/01/31 21:34:38.0	4.190	0.410	-0.080	0.320
2020/01/31 21:34:38.1	4.170	0.410	-0.080	0.360
2020/01/31 21:34:38.2	4.140	0.410	-0.080	0.400
2020/01/31 21:34:38.3	4.120	0.410	-0.080	0.440
2020/01/31 21:34:38.4	4.090	0.400	-0.080	0.470
2020/01/31 21:34:38.5	4.070	0.390	-0.090	0.490
2020/01/31 21:34:38.6	4.040	0.380	-0.100	0.520
2020/01/31 21:34:38.7	4.020	0.370	-0.110	0.530
2020/01/31 21:34:38.8	3.990	0.350	-0.120	0.550
2020/01/31 21:34:38.9	3.970	0.340	-0.140	0.550
2020/01/31 21:34:39.0	3.950	0.320	-0.150	0.560
2020/01/31 21:34:39.1	3.930	0.300	-0.170	0.560
2020/01/31 21:34:39.2	3.910	0.280	-0.190	0.550
2020/01/31 21:34:39.3	3.890	0.260	-0.210	0.540
2020/01/31 21:34:39.4	3.870	0.240	-0.230	0.530
2020/01/31 21:34:39.5	3.850	0.220	-0.250	0.510
2020/01/31 21:34:39.6	3.840	0.200	-0.280	0.480
2020/01/31 21:34:39.7	3.820	0.180	-0.300	0.450
2020/01/31 21:34:39.8	3.810	0.160	-0.330	0.420
2020/01/31 21:34:39.9	3.820	0.140	-0.350	0.380
2020/01/31 21:34:40.0	3.810	0.130	-0.380	0.340
2020/01/31 21:34:40.1	3.800	0.110	-0.400	0.300
2020/01/31 21:34:40.2	3.800	0.090	-0.420	0.250
2020/01/31 21:34:40.3	3.800	0.070	-0.440	0.200
2020/01/31 21:34:40.4	3.800	0.060	-0.460	0.150
2020/01/31 21:34:40.5	3.800	0.040	-0.480	0.100
2020/01/31 21:34:40.6	3.800	0.030	-0.500	0.040
2020/01/31 21:34:40.7	3.810	0.010	-0.510	-0.010
2020/01/31 21:34:40.8	3.820	0.000	-0.520	-0.070
2020/01/31 21:34:40.9	3.830	-0.010	-0.530	-0.130
2020/01/31 21:34:41.0	3.840	-0.020	-0.530	-0.190
2020/01/31 21:34:41.1	3.850	-0.030	-0.530	-0.250
2020/01/31 21:34:41.2	3.860	-0.040	-0.530	-0.310
2020/01/31 21:34:41.3	3.880	-0.050	-0.530	-0.360
2020/01/31 21:34:41.4	3.890	-0.060	-0.520	-0.420
2020/01/31 21:34:41.5	3.910	-0.070	-0.510	-0.470
2020/01/31 21:34:41.6	3.930	-0.080	-0.490	-0.530
2020/01/31 21:34:41.7	3.940	-0.090	-0.480	-0.580
2020/01/31 21:34:41.8	3.970	-0.090	-0.460	-0.630
2020/01/31 21:34:41.9	3.980	-0.100	-0.440	-0.680
2020/01/31 21:34:42.0	4.000	-0.110	-0.420	-0.730
2020/01/31 21:34:42.1	4.030	-0.110	-0.400	-0.770
2020/01/31 21:34:42.2	4.060	-0.120	-0.370	-0.820
2020/01/31 21:34:42.3	4.090	-0.130	-0.350	-0.860
2020/01/31 21:34:42.4	4.110	-0.140	-0.330	-0.910
2020/01/31 21:34:42.5	4.140	-0.140	-0.300	-0.950
2020/01/31 21:34:42.6	4.180	-0.150	-0.270	-0.990
2020/01/31 21:34:42.7	4.210	-0.160	-0.250	-1.030
2020/01/31 21:34:42.8	4.240	-0.170	-0.220	-1.060
2020/01/31 21:34:42.9	4.260	-0.180	-0.190	-1.100
2020/01/31 21:34:43.0	4.290	-0.190	-0.170	-1.130
2020/01/31 21:34:43.1	4.310	-0.200	-0.140	-1.160
2020/01/31 21:34:43.2	4.340	-0.210	-0.110	-1.180
2020/01/31 21:34:43.3	4.370	-0.230	-0.080	-1.210
2020/01/31 21:34:43.4	4.390	-0.240	-0.050	-1.230
2020/01/31 21:34:43.5	4.410	-0.250	-0.030	-1.250
2020/01/31 21:34:43.6	4.440	-0.260	-0.000	-1.260
2020/01/31 21:34:43.7	4.460	-0.270	0.020	-1.270
2020/01/31 21:34:43.8	4.480	-0.280	0.050	-1.280
2020/01/31 21:34:43.9	4.500	-0.290	0.070	-1.270
2020/01/31 21:34:44.0	4.520	-0.300	0.090	-1.270
2020/01/31 21:34:44.1	4.530	-0.310	0.110	-1.260
2020/01/31 21:34:44.2	4.540	-0.320	0.130	-1.250
2020/01/31 21:34:44.3	4.550	-0.320	0.140	-1.230
2020/01/31 21:34:44.4	4.560	-0.330	0.150	-1.210
2020/01/31 21:34:44.5	4.560	-0.330	0.160	-1.180
2020/01/31 21:34:44.6	4.560	-0.330	0.170	-1.150
2020/01/31 21:34:44.7	4.550	-0.320	0.180	-1.110
2020/01/31 21:34:44.8	4.550	-0.320	0.180	-1.060
2020/01/31 21:34:44.9	4.540	-0.310	0.170	-1.020
2020/01/31 21:34:45.0	4.530	-0.300	0.170	-0.960
2020/01/31 21:34:45.1	4.510	-0.290	0.160	-0.910
2020/01/31 21:34:45.2	4.500	-0.270	0.150	-0.850
2020/01/31 21:34:45.3	4.480	-0.260	0.130	-0.790
2020/01/31 21:34:45.4	4.460	-0.240	0.110	-0.730
2020/01/31 21:34:45.5	4.430	-0.210	0.080	-0.670
2020/01/31 21:34:45.6	4.410	-0.190	0.050	-0.600
2020/01/31 21:34:45.7	4.380	-0.160	0.020	-0.540
2020/01/31 21:34:45.8	4.360	-0.130	-0.010	-0.470
2020/01/31 21:34:45.9	4.330	-0.100	-0.050	-0.410
2020/01/31 21:34:46.0	4.300	-0.060	-0.090	-0.350
2020/01/31 21:34:46.1	4.280	-0.030	-0.140	-0.290
2020/01/31 21:34:46.2	4.250	0.010	-0.190	-0.240
2020/01/31 21:34:46.3	4.230	0.040	-0.240	-0.190
2020/01/31 21:34:46.4	4.200	0.080	-0.300	-0.150
2020/01/31 21:34:46.5	4.180	0.120	-0.350	-0.110
2020/01/31 21:34:46.6	4.160	0.150	-0.410	-0.080
2020/01/31 21:34:46.7	4.140	0.190	-0.460	-0.050
2020/01/31 21:34:46.8	4.130	0.220	-0.520	-0.030
2020/01/31 21:34:46.9	4.120	0.250	-0.580	-0.020
2020/01/31 21:34:47.0	4.110	0.290	-0.640	-0.010
2020/01/31 21:34:47.1	4.100	0.310	-0.690	-0.010
2020/01/31 21:34:47.2	4.090	0.340	-0.740	-0.010
2020/01/31 21:34:47.3	4.090	0.360	-0.790	-0.020
2020/01/31 21:34:47.4	4.080	0.380	-0.840	-0.030
2020/01/31 21:34:47.5	4.080	0.400	-0.880	-0.050
2020/01/31 21:34:47.6	4.080	0.410	-0.910	-0.070
2020/01/31 21:34:47.7	4.080	0.420	-0.950	-0.090
2020/01/31 21:34:47.8	4.080	0.430	-0.970	-0.110
2020/01/31 21:34:47.9	4.100	0.430	-0.990	-0.140
2020/01/31 21:34:48.0	4.100	0.430	-1.010	-0.170
2020/01/31 21:34:48.1	4.110	0.420	-1.010	-0.200
2020/01/31 21:34:48.2	4.120	0.410	-1.010	-0.220
2020/01/31 21:34:48.3	4.130	0.400	-1.010	-0.250
2020/01/31 21:34:48.4	4.140	0.380	-1.000	-0.280
2020/01/31 21:34:48.5	4.150	0.360	-0.970	-0.310
2020/01/31 21:34:48.6	4.170	0.340	-0.950	-0.340
2020/01/31 21:34:48.7	4.180	0.310	-0.910	-0.370
2020/01/31 21:34:48.8	4.190	0.270	-0.870	-0.400
2020/01/31 21:34:48.9	4.200	0.240	-0.820	-0.430
2020/01/31 21:34:49.0	4.220	0.200	-0.760	-0.450
2020/01/31 21:34:49.1	4.230	0.160	-0.700	-0.480
2020/01/31 21:34:49.2	4.250	0.120	-0.630	-0.500
2020/01/31 21:34:49.3	4.260	0.080	-0.560	-0.520
2020/01/31 21:34:49.4	4.270	0.040	-0.490	-0.540
2020/01/31 21:34:49.5	4.290	-0.010	-0.410	-0.560
2020/01/31 21:34:49.6	4.300	-0.050	-0.330	-0.580
2020/01/31 21:34:49.7	4.310	-0.100	-0.250	-0.600
2020/01/31 21:34:49.8	4.330	-0.140	-0.170	-0.610
2020/01/31 21:34:49.9	4.320	-0.180	-0.100	-0.630
2020/01/31 21:34:50.0	4.330	-0.220	-0.020	-0.640
2020/01/31 21:34:50.1	4.350	-0.260	0.050	-0.650
2020/01/31 21:34:50.2	4.360	-0.290	0.120	-0.660
2020/01/31 21:34:50.3	4.370	-0.320	0.190	-0.670
2020/01/31 21:34:50.4	4.380	-0.350	0.260	-0.680
2020/01/31 21:34:50.5	4.400	-0.370	0.310	-0.680
2020/01/31 21:34:50.6	4.410	-0.390	0.370	-0.690
2020/01/31 21:34:50.7	4.430	-0.400	0.410	-0.690
2020/01/31 21:34:50.8	4.440	-0.410	0.450	-0.690
2020/01/31 21:34:50.9	4.460	-0.410	0.480	-0.690
2020/01/31 21:34:51.0	4.480	-0.410	0.510	-0.690
2020/01/31 21:34:51.1	4.500	-0.400	0.520	-0.690
2020/01/31 21:34:51.2	4.510	-0.390	0.530	-0.680
2020/01/31 21:34:51.3	4.530	-0.380	0.530	-0.680
2020/01/31 21:34:51.4	4.540	-0.350	0.520	-0.670
2020/01/31 21:34:51.5	4.560	-0.330	0.510	-0.650
2020/01/31 21:34:51.6	4.570	-0.300	0.490	-0.640
2020/01/31 21:34:51.7	4.580	-0.260	0.460	-0.620
2020/01/31 21:34:51.8	4.590	-0.230	0.430	-0.600
2020/01/31 21:34:51.9	4.600	-0.190	0.390	-0.570
2020/01/31 21:34:52.0	4.600	-0.150	0.350	-0.540
2020/01/31 21:34:52.1	4.600	-0.110	0.300	-0.510
2020/01/31 21:34:52.2	4.600	-0.060	0.250	-0.480
2020/01/31 21:34:52.3	4.590	-0.020	0.200	-0.440
2020/01/31 21:34:52.4	4.580	0.020	0.140	-0.410
2020/01/31 21:34:52.5	4.570	0.070	0.090	-0.370
2020/01/31 21:34:52.6	4.560	0.110	0.030	-0.340
2020/01/31 21:34:52.7	4.540	0.150	-0.020	-0.300
2020/01/31 21:34:52.8	4.520	0.190	-0.080	-0.270
2020/01/31 21:34:52.9	4.490	0.220	-0.130	-0.230
2020/01/31 21:34:53.0	4.470	0.260	-0.190	-0.200
2020/01/31 21:34:53.1	4.450	0.290	-0.240	-0.170
2020/01/31 21:34:53.2	4.420	0.320	-0.290	-0.140
2020/01/31 21:34:53.3	4.400	0.340	-0.330	-0.120
2020/01/31 21:34:53.4	4.370	0.360	-0.370	-0.090
2020/01/31 21:34:53.5	4.340	0.380	-0.410	-0.070
2020/01/31 21:34:53.6	4.310	0.400	-0.440	-0.050
2020/01/31 21:34:53.7	4.280	0.410	-0.470	-0.030
2020/01/31 21:34:53.8	4.260	0.410	-0.500	-0.020
2020/01/31 21:34:53.9	4.240	0.420	-0.520	-0.010
2020/01/31 21:34:54.0	4.220	0.420	-0.530	0.000
2020/01/31 21:34:54.1	4.190	0.410	-0.550	0.010
2020/01/31 21:34:54.2	4.170	0.410	-0.550	0.010
2020/01/31 21:34:54.3	4.150	0.400	-0.560	0.010
2020/01/31 21:34:54.4	4.130	0.380	-0.560	0.000
2020/01/31 21:34:54.5	4.110	0.370	-0.560	-0.000
2020/01/31 21:34:54.6	4.090	0.350	-0.560	-0.020
2020/01/31 21:34:54.7	4.080	0.330	-0.550	-0.030
2020/01/31 21:34:54.8	4.070	0.310	-0.540	-0.050
2020/01/31 21:34:54.9	4.060	0.290	-0.530	-0.070
2020/01/31 21:34:55.0	4.050	0.260	-0.520	-0.090
2020/01/31 21:34:55.1	4.050	0.230	-0.510	-0.120
2020/01/31 21:34:55.2	4.040	0.210	-0.490	-0.150
2020/01/31 21:34:55.3	4.040	0.180	-0.480	-0.180
2020/01/31 21:34:55.4	4.030	0.150	-0.460	-0.210
2020/01/31 21:34:55.5	4.030	0.120	-0.450	-0.250
2020/01/31 21:34:55.6	4.030	0.090	-0.430	-0.290
2020/01/31 21:34:55.7	4.030	0.060	-0.420	-0.330
2020/01/31 21:34:55.8	4.030	0.030	-0.400	-0.370
2020/01/31 21:34:55.9	4.030	0.000	-0.390	-0.410
2020/01/31 21:34:56.0	4.030	-0.030	-0.380	-0.460
2020/01/31 21:34:56.1	4.040	-0.060	-0.370	-0.500
2020/01/31 21:34:56.2	4.040	-0.080	-0.360	-0.550
2020/01/31 21:34:56.3	4.050	-0.110	-0.360	-0.600
2020/01/31 21:34:56.4	4.060	-0.130	-0.350	-0.650
2020/01/31 21:34:56.5	4.070	-0.160	-0.350	-0.700
2020/01/31 21:34:56.6	4.090	-0.180	-0.350	-0.750
2020/01/31 21:34:56.7	4.100	-0.200	-0.360	-0.800
2020/01/31 21:34:56.8	4.120	-0.220	-0.360	-0.860
2020/01/31 21:34:56.9	4.140	-0.240	-0.370	-0.910
2020/01/31 21:34:57.0	4.160	-0.250	-0.380	-0.970
2020/01/31 21:34:57.1	4.180	-0.270	-0.390	-1.020
2020/01/31 21:34:57.2	4.210	-0.280	-0.410	-1.070
2020/01/31 21:34:57.3	4.230	-0.290	-0.420	-1.120
2020/01/31 21:34:57.4	4.260	-0.290	-0.440	-1.170
2020/01/31 21:34:57.5	4.280	-0.300	-0.450	-1.220
2020/01/31 21:34:57.6	4.310	-0.300	-0.470	-1.260
2020/01/31 21:34:57.7	4.340	-0.310	-0.480	-1.300
2020/01/31 21:34:57.8	4.370	-0.310	-0.490	-1.340
2020/01/31 21:34:57.9	4.400	-0.310	-0.510	-1.380
2020/01/31 21:34:58.0	4.430	-0.310	-0.510	-1.410
2020/01/31 21:34:58.1	4.450	-0.310	-0.520	-1.430
2020/01/31 21:34:58.2	4.480	-0.310	-0.520	-1.450
2020/01/31 21:34:58.3	4.500	-0.300	-0.520	-1.470
2020/01/31 21:34:58.4	4.520	-0.300	-0.520	-1.480
2020/01/31 21:34:58.5	4.540	-0.300	-0.510	-1.490
2020/01/31 21:34:58.6	4.560	-0.290	-0.490	-1.490
2020/01/31 21:34:58.7	4.570	-0.290	-0.470	-1.480
2020/01/31 21:34:58.8	4.590	-0.280	-0.450	-1.470
2020/01/31 21:34:58.9	4.600	-0.280	-0.430	-1.450
2020/01/31 21:34:59.0	4.610	-0.280	-0.390	-1.430
2020/01/31 21:34:59.1	4.610	-0.270	-0.350	-1.400
2020/01/31 21:34:59.2	4.610	-0.270	-0.310	-1.360
2020/01/31 21:34:59.3	4.610	-0.270	-0.260	-1.320
2020/01/31 21:34:59.4	4.600	-0.270	-0.210	-1.270
2020/01/31 21:34:59.5	4.590	-0.270	-0.160	-1.210
2020/01/31 21:34:59.6	4.570	-0.270	-0.100	-1.150
2020/01/31 21:34:59.7	4.550	-0.270	-0.040	-1.090
2020/01/31 21:34:59.8	4.530	-0.270	0.020	-1.020
2020/01/31 21:34:59.9	4.500	-0.270	0.090	-0.930
2020/01/31 21:35:00.0	4.470	-0.270	0.160	-0.860
2020/01/31 21:35:00.1	4.430	-0.270	0.220	-0.770
2020/01/31 21:35:00.2	4.390	-0.270	0.280	-0.690
2020/01/31 21:35:00.3	4.340	-0.280	0.340	-0.610
2020/01/31 21:35:00.4	4.300	-0.280	0.400	-0.520
2020/01/31 21:35:00.5	4.250	-0.280	0.450	-0.440
2020/01/31 21:35:00.6	4.200	-0.280	0.500	-0.350
2020/01/31 21:35:00.7	4.140	-0.280	0.540	-0.270
2020/01/31 21:35:00.8	4.090	-0.280	0.580	-0.190
2020/01/31 21:35:00.9	4.040	-0.270	0.610	-0.120
2020/01/31 21:35:01.0	3.990	-0.270	0.620	-0.050
2020/01/31 21:35:01.1	3.930	-0.260	0.640	0.020
2020/01/31 21:35:01.2	3.880	-0.250	0.640	0.080
2020/01/31 21:35:01.3	3.830	-0.240	0.630	0.140
2020/01/31 21:35:01.4	3.790	-0.220	0.610	0.180
2020/01/31 21:35:01.5	3.750	-0.200	0.580	0.230
2020/01/31 21:35:01.6	3.710	-0.180	0.550	0.260
2020/01/31 21:35:01.7	3.670	-0.150	0.500	0.290
2020/01/31 21:35:01.8	3.640	-0.130	0.440	0.320
2020/01/31 21:35:01.9	3.620	-0.090	0.370	0.330
2020/01/31 21:35:02.0	3.590	-0.060	0.290	0.340
2020/01/31 21:35:02.1	3.570	-0.020	0.210	0.350
2020/01/31 21:35:02.2	3.560	0.020	0.120	0.350
2020/01/31 21:35:02.3	3.550	0.070	0.020	0.350
2020/01/31 21:35:02.4	3.540	0.120	-0.090	0.340
2020/01/31 21:35:02.5	3.530	0.170	-0.200	0.330
2020/01/31 21:35:02.6	3.530	0.220	-0.310	0.320
2020/01/31 21:35:02.7	3.530	0.270	-0.420	0.300
2020/01/31 21:35:02.8	3.540	0.320	-0.530	0.280
2020/01/31 21:35:02.9	3.540	0.370	-0.650	0.250
2020/01/31 21:35:03.0	3.540	0.420	-0.760	0.220
2020/01/31 21:35:03.1	3.560	0.470	-0.860	0.190
2020/01/31 21:35:03.2	3.570	0.510	-0.960	0.160
2020/01/31 21:35:03.3	3.580	0.560	-1.060	0.130
2020/01/31 21:35:03.4	3.600	0.600	-1.140	0.090
2020/01/31 21:35:03.5	3.610	0.640	-1.220	0.050
2020/01/31 21:35:03.6	3.630	0.670	-1.290	0.010
2020/01/31 21:35:03.7	3.650	0.700	-1.350	-0.030
2020/01/31 21:35:03.8	3.670	0.720	-1.400	-0.070
2020/01/31 21:35:03.9	3.690	0.740	-1.440	-0.110
2020/01/31 21:35:04.0	3.710	0.760	-1.470	-0.150
2020/01/31 21:35:04.1	3.730	0.760	-1.490	-0.180
2020/01/31 21:35:04.2	3.750	0.770	-1.500	-0.220
2020/01/31 21:35:04.3	3.770	0.770	-1.490	-0.260
2020/01/31 21:35:04.4	3.790	0.760	-1.470	-0.290
2020/01/31 21:35:04.5	3.800	0.740	-1.450	-0.330
2020/01/31 21:35:04.6	3.820	0.720	-1.410	-0.360
2020/01/31 21:35:04.7	3.840	0.700	-1.360	-0.390
2020/01/31 21:35:04.8	3.860	0.670	-1.310	-0.420
2020/01/31 21:35:04.9	3.870	0.630	-1.240	-0.450
2020/01/31 21:35:05.0	3.890	0.590	-1.170	-0.480
2020/01/31 21:35:05.1	3.900	0.550	-1.080	-0.500
2020/01/31 21:35:05.2	3.910	0.500	-0.990	-0.520
2020/01/31 21:35:05.3	3.920	0.440	-0.900	-0.540
2020/01/31 21:35:05.4	3.930	0.390	-0.800	-0.550
2020/01/31 21:35:05.5	3.930	0.330	-0.690	-0.570
2020/01/31 21:35:05.6	3.930	0.260	-0.580	-0.580
2020/01/31 21:35:05.7	3.930	0.200	-0.470	-0.590
2020/01/31 21:35:05.8	3.930	0.130	-0.360	-0.600
2020/01/31 21:35:05.9	3.910	0.070	-0.240	-0.600
2020/01/31 21:35:06.0	3.900	-0.000	-0.130	-0.600
2020/01/31 21:35:06.1	3.890	-0.070	-0.020	-0.610
2020/01/31 21:35:06.2	3.870	-0.140	0.090	-0.610
2020/01/31 21:35:06.3	3.850	-0.200	0.200	-0.610
2020/01/31 21:35:06.4	3.830	-0.270	0.300	-0.610
2020/01/31 21:35:06.5	3.800	-0.330	0.400	-0.610
2020/01/31 21:35:06.6	3.770	-0.390	0.500	-0.600
2020/01/31 21:35:06.7	3.730	-0.450	0.590	-0.600
2020/01/31 21:35:06.8	3.700	-0.510	0.670	-0.590
2020/01/31 21:35:06.9	3.660	-0.560	0.740	-0.590
2020/01/31 21:35:07.0	3.610	-0.600	0.810	-0.580
2020/01/31 21:35:07.1	3.570	-0.650	0.870	-0.570
2020/01/31 21:35:07.2	3.520	-0.690	0.920	-0.550
2020/01/31 21:35:07.3	3.470	-0.720	0.960	-0.540
2020/01/31 21:35:07.4	3.410	-0.750	1.000	-0.520
2020/01/31 21:35:07.5	3.360	-0.770	1.020	-0.500
2020/01/31 21:35:07.6	3.300	-0.790	1.040	-0.480
2020/01/31 21:35:07.7	3.250	-0.800	1.050	-0.460
2020/01/31 21:35:07.8	3.190	-0.810	1.050	-0.430
2020/01/31 21:35:07.9	3.130	-0.820	1.040	-0.410
2020/01/31 21:35:08.0	3.070	-0.810	1.020	-0.380
2020/01/31 21:35:08.1	3.020	-0.810	0.990	-0.360
2020/01/31 21:35:08.2	2.960	-0.790	0.960	-0.330
2020/01/31 21:35:08.3	2.900	-0.780	0.910	-0.310
2020/01/31 21:35:08.4	2.850	-0.750	0.860	-0.290
2020/01/31 21:35:08.5	2.800	-0.730	0.800	-0.270
2020/01/31 21:35:08.6	2.740	-0.690	0.740	-0.250
2020/01/31 21:35:08.7	2.700	-0.660	0.660	-0.240
2020/01/31 21:35:08.8	2.650	-0.620	0.580	-0.220
2020/01/31 21:35:08.9	2.610	-0.570	0.500	-0.210
2020/01/31 21:35:09.0	2.570	-0.530	0.410	-0.200
2020/01/31 21:35:09.1	2.540	-0.480	0.310	-0.200
2020/01/31 21:35:09.2	2.500	-0.420	0.210	-0.200
2020/01/31 21:35:09.3	2.480	-0.360	0.110	-0.200
2020/01/31 21:35:09.4	2.450	-0.310	0.000	-0.200
2020/01/31 21:35:09.5	2.430	-0.240	-0.100	-0.210
2020/01/31 21:35:09.6	2.420	-0.180	-0.210	-0.220
2020/01/31 21:35:09.7	2.400	-0.120	-0.320	-0.230
2020/01/31 21:35:09.8	2.390	-0.050	-0.420	-0.240
2020/01/31 21:35:09.9	2.380	0.020	-0.530	-0.250
2020/01/31 21:35:10.0	2.380	0.080	-0.630	-0.260
2020/01/31 21:35:10.1	2.380	0.150	-0.720	-0.270
2020/01/31 21:35:10.2	2.390	0.220	-0.820	-0.280
2020/01/31 21:35:10.3	2.390	0.280	-0.900	-0.290
2020/01/31 21:35:10.4	2.400	0.350	-0.980	-0.300
2020/01/31 21:35:10.5	2.420	0.410	-1.050	-0.300
2020/01/31 21:35:10.6	2.430	0.470	-1.120	-0.310
2020/01/31 21:35:10.7	2.450	0.520	-1.180	-0.310
2020/01/31 21:35:10.8	2.470	0.580	-1.230	-0.310
2020/01/31 21:35:10.9	2.490	0.630	-1.270	-0.310
2020/01/31 21:35:11.0	2.510	0.670	-1.310	-0.300
2020/01/31 21:35:11.1	2.540	0.710	-1.330	-0.300
2020/01/31 21:35:11.2	2.560	0.740	-1.350	-0.300
2020/01/31 21:35:11.3	2.580	0.770	-1.360	-0.290
2020/01/31 21:35:11.4	2.610	0.790	-1.360	-0.280
2020/01/31 21:35:11.5	2.630	0.810	-1.360	-0.280
2020/01/31 21:35:11.6	2.650	0.820	-1.350	-0.270
2020/01/31 21:35:11.7	2.670	0.830	-1.330	-0.260
2020/01/31 21:35:11.8	2.690	0.820	-1.300	-0.250
2020/01/31 21:35:11.9	2.720	0.820	-1.270	-0.240
2020/01/31 21:35:12.0	2.740	0.800	-1.240	-0.230
2020/01/31 21:35:12.1	2.760	0.790	-1.200	-0.230
2020/01/31 21:35:12.2	2.770	0.760	-1.150	-0.220
2020/01/31 21:35:12.3	2.780	0.730	-1.100	-0.210
2020/01/31 21:35:12.4	2.790	0.700	-1.040	-0.200
2020/01/31 21:35:12.5	2.800	0.660	-0.980	-0.200
2020/01/31 21:35:12.6	2.800	0.620	-0.920	-0.190
2020/01/31 21:35:12.7	2.810	0.570	-0.860	-0.180
2020/01/31 21:35:12.8	2.810	0.520	-0.790	-0.180
2020/01/31 21:35:12.9	2.800	0.470	-0.720	-0.170
2020/01/31 21:35:13.0	2.800	0.420	-0.650	-0.160
2020/01/31 21:35:13.1	2.800	0.360	-0.590	-0.160
2020/01/31 21:35:13.2	2.790	0.300	-0.520	-0.150
2020/01/31 21:35:13.3	2.790	0.240	-0.450	-0.150
2020/01/31 21:35:13.4	2.780	0.180	-0.380	-0.150
2020/01/31 21:35:13.5	2.770	0.130	-0.310	-0.140
2020/01/31 21:35:13.6	2.760	0.070	-0.250	-0.140
2020/01/31 21:35:13.7	2.760	0.010	-0.180	-0.140
2020/01/31 21:35:13.8	2.750	-0.050	-0.120	-0.140
2020/01/31 21:35:13.9	2.730	-0.100	-0.070	-0.150
2020/01/31 21:35:14.0	2.720	-0.150	-0.020	-0.150
2020/01/31 21:35:14.1	2.700	-0.200	0.040	-0.150
2020/01/31 21:35:14.2	2.690	-0.250	0.090	-0.150
2020/01/31 21:35:14.3	2.680	-0.290	0.130	-0.160
2020/01/31 21:35:14.4	2.660	-0.340	0.170	-0.160
2020/01/31 21:35:14.5	2.640	-0.370	0.210	-0.170
2020/01/31 21:35:14.6	2.620	-0.410	0.250	-0.170
2020/01/31 21:35:14.7	2.600	-0.440	0.280	-0.180
2020/01/31 21:35:14.8	2.580	-0.470	0.310	-0.180
2020/01/31 21:35:14.9	2.560	-0.500	0.350	-0.180
2020/01/31 21:35:15.0	2.530	-0.520	0.370	-0.190
2020/01/31 21:35:15.1	2.500	-0.540	0.390	-0.190
2020/01/31 21:35:15.2	2.470	-0.550	0.410	-0.190
2020/01/31 21:35:15.3	2.440	-0.560	0.430	-0.190
2020/01/31 21:35:15.4	2.410	-0.570	0.450	-0.190
2020/01/31 21:35:15.5	2.370	-0.580	0.460	-0.180
2020/01/31 21:35:15.6	2.340	-0.580	0.470	-0.180
2020/01/31 21:35:15.7	2.300	-0.580	0.480	-0.170
2020/01/31 21:35:15.8	2.260	-0.570	0.490	-0.170
2020/01/31 21:35:15.9	2.230	-0.570	0.490	-0.160
2020/01/31 21:35:16.0	2.190	-0.560	0.490	-0.150
2020/01/31 21:35:16.1	2.150	-0.550	0.490	-0.150
2020/01/31 21:35:16.2	2.110	-0.540	0.490	-0.140
2020/01/31 21:35:16.3	2.070	-0.520	0.490	-0.130
2020/01/31 21:35:16.4	2.030	-0.500	0.480	-0.130
2020/01/31 21:35:16.5	1.990	-0.490	0.470	-0.120
2020/01/31 21:35:16.6	1.960	-0.460	0.460	-0.110
2020/01/31 21:35:16.7	1.920	-0.440	0.450	-0.110
2020/01/31 21:35:16.8	1.890	-0.420	0.430	-0.110
2020/01/31 21:35:16.9	1.860	-0.390	0.420	-0.100
2020/01/31 21:35:17.0	1.830	-0.370	0.390	-0.100
2020/01/31 21:35:17.1	1.800	-0.340	0.370	-0.100
2020/01/31 21:35:17.2	1.770	-0.310	0.340	-0.100
2020/01/31 21:35:17.3	1.750	-0.280	0.300	-0.100
2020/01/31 21:35:17.4	1.720	-0.250	0.260	-0.100
2020/01/31 21:35:17.5	1.700	-0.220	0.230	-0.110
2020/01/31 21:35:17.6	1.680	-0.190	0.180	-0.110
2020/01/31 21:35:17.7	1.650	-0.160	0.140	-0.110
2020/01/31 21:35:17.8	1.630	-0.120	0.090	-0.100
2020/01/31 21:35:17.9	1.610	-0.090	0.040	-0.100
2020/01/31 21:35:18.0	1.590	-0.060	-0.010	-0.100
2020/01/31 21:35:18.1	1.570	-0.020	-0.060	-0.100
2020/01/31 21:35:18.2	1.560	0.010	-0.110	-0.100
2020/01/31 21:35:18.3	1.540	0.040	-0.160	-0.100
2020/01/31 21:35:18.4	1.520	0.070	-0.220	-0.090
2020/01/31 21:35:18.5	1.500	0.100	-0.270	-0.090
2020/01/31 21:35:18.6	1.480	0.130	-0.320	-0.090
2020/01/31 21:35:18.7	1.460	0.160	-0.370	-0.080
2020/01/31 21:35:18.8	1.440	0.190	-0.410	-0.080
2020/01/31 21:35:18.9	1.440	0.220	-0.460	-0.070
2020/01/31 21:35:19.0	1.410	0.250	-0.500	-0.060
2020/01/31 21:35:19.1	1.390	0.270	-0.540	-0.060
2020/01/31 21:35:19.2	1.370	0.290	-0.570	-0.050
2020/01/31 21:35:19.3	1.350	0.320	-0.610	-0.050
2020/01/31 21:35:19.4	1.330	0.340	-0.640	-0.040
2020/01/31 21:35:19.5	1.310	0.360	-0.670	-0.030
2020/01/31 21:35:19.6	1.290	0.370	-0.690	-0.030
2020/01/31 21:35:19.7	1.270	0.390	-0.710	-0.020
2020/01/31 21:35:19.8	1.250	0.400	-0.730	-0.010
2020/01/31 21:35:19.9	1.240	0.420	-0.750	-0.010
2020/01/31 21:35:20.0	1.230	0.430	-0.760	-0.000
2020/01/31 21:35:20.1	1.210	0.440	-0.770	0.000
2020/01/31 21:35:20.2	1.190	0.450	-0.780	0.010
2020/01/31 21:35:20.3	1.180	0.450	-0.780	0.020
2020/01/31 21:35:20.4	1.170	0.460	-0.780	0.020
2020/01/31 21:35:20.5	1.150	0.460	-0.780	0.030
2020/01/31 21:35:20.6	1.140	0.460	-0.780	0.040
2020/01/31 21:35:20.7	1.130	0.460	-0.780	0.040
2020/01/31 21:35:20.8	1.120	0.460	-0.770	0.050
2020/01/31 21:35:20.9	1.110	0.460	-0.760	0.060
2020/01/31 21:35:21.0	1.100	0.460	-0.750	0.070
2020/01/31 21:35:21.1	1.090	0.450	-0.740	0.080
2020/01/31 21:35:21.2	1.080	0.440	-0.720	0.090
2020/01/31 21:35:21.3	1.080	0.430	-0.700	0.090
2020/01/31 21:35:21.4	1.070	0.420	-0.680	0.100
2020/01/31 21:35:21.5	1.060	0.410	-0.660	0.110
2020/01/31 21:35:21.6	1.060	0.400	-0.640	0.120
2020/01/31 21:35:21.7	1.050	0.380	-0.610	0.130
2020/01/31 21:35:21.8	1.050	0.370	-0.590	0.130
2020/01/31 21:35:21.9	1.050	0.350	-0.560	0.140
2020/01/31 21:35:22.0	1.040	0.330	-0.530	0.150
2020/01/31 21:35:22.1	1.040	0.310	-0.500	0.150
2020/01/31 21:35:22.2	1.040	0.290	-0.470	0.150
2020/01/31 21:35:22.3	1.040	0.270	-0.440	0.150
2020/01/31 21:35:22.4	1.040	0.240	-0.420	0.150
2020/01/31 21:35:22.5	1.040	0.220	-0.390	0.140
2020/01/31 21:35:22.6	1.040	0.200	-0.360	0.140
2020/01/31 21:35:22.7	1.050	0.170	-0.330	0.130
2020/01/31 21:35:22.8	1.060	0.140	-0.310	0.120
2020/01/31 21:35:22.9	1.060	0.120	-0.290	0.100
2020/01/31 21:35:23.0	1.060	0.090	-0.270	0.080
2020/01/31 21:35:23.1	1.070	0.070	-0.250	0.060
2020/01/31 21:35:23.2	1.090	0.040	-0.240	0.040
2020/01/31 21:35:23.3	1.100	0.020	-0.220	0.020
2020/01/31 21:35:23.4	1.110	-0.010	-0.210	-0.010
2020/01/31 21:35:23.5	1.120	-0.040	-0.210	-0.030
2020/01/31 21:35:23.6	1.140	-0.060	-0.200	-0.060
2020/01/31 21:35:23.7	1.150	-0.080	-0.200	-0.090
2020/01/31 21:35:23.8	1.160	-0.110	-0.200	-0.120
2020/01/31 21:35:23.9	1.170	-0.130	-0.200	-0.160
2020/01/31 21:35:24.0	1.180	-0.150	-0.210	-0.190
2020/01/31 21:35:24.1	1.190	-0.170	-0.210	-0.220
2020/01/31 21:35:24.2	1.200	-0.190	-0.220	-0.250
2020/01/31 21:35:24.3	1.210	-0.210	-0.230	-0.280
2020/01/31 21:35:24.4	1.220	-0.230	-0.240	-0.310
2020/01/31 21:35:24.5	1.220	-0.240	-0.250	-0.330
2020/01/31 21:35:24.6	1.220	-0.260	-0.260	-0.360
2020/01/31 21:35:24.7	1.220	-0.270	-0.270	-0.380
2020/01/31 21:35:24.8	1.220	-0.280	-0.290	-0.410
2020/01/31 21:35:24.9	1.220	-0.290	-0.300	-0.430
2020/01/31 21:35:25.0	1.210	-0.300	-0.310	-0.440
2020/01/31 21:35:25.1	1.200	-0.310	-0.320	-0.460
2020/01/31 21:35:25.2	1.190	-0.320	-0.320	-0.470
2020/01/31 21:35:25.3	1.170	-0.320	-0.330	-0.480
2020/01/31 21:35:25.4	1.150	-0.320	-0.330	-0.490
2020/01/31 21:35:25.5	1.130	-0.320	-0.330	-0.490
2020/01/31 21:35:25.6	1.110	-0.320	-0.330	-0.500
2020/01/31 21:35:25.7	1.080	-0.310	-0.330	-0.490
2020/01/31 21:35:25.8	1.050	-0.310	-0.330	-0.490
2020/01/31 21:35:25.9	1.020	-0.300	-0.310	-0.480
2020/01/31 21:35:26.0	0.990	-0.290	-0.300	-0.460
2020/01/31 21:35:26.1	0.950	-0.290	-0.290	-0.450
2020/01/31 21:35:26.2	0.910	-0.270	-0.280	-0.430
2020/01/31 21:35:26.3	0.870	-0.260	-0.260	-0.410
2020/01/31 21:35:26.4	0.830	-0.250	-0.240	-0.380
2020/01/31 21:35:26.5	0.790	-0.240	-0.220	-0.350
2020/01/31 21:35:26.6	0.740	-0.220	-0.200	-0.320
2020/01/31 21:35:26.7	0.700	-0.210	-0.170	-0.290
2020/01/31 21:35:26.8	0.650	-0.190	-0.150	-0.260
2020/01/31 21:35:26.9	0.610	-0.170	-0.130	-0.220
2020/01/31 21:35:27.0	0.560	-0.160	-0.100	-0.180
2020/01/31 21:35:27.1	0.520	-0.140	-0.070	-0.140
2020/01/31 21:35:27.2	0.470	-0.130	-0.040	-0.110
2020/01/31 21:35:27.3	0.420	-0.110	-0.010	-0.070
2020/01/31 21:35:27.4	0.380	-0.100	0.020	-0.030
2020/01/31 21:35:27.5	0.330	-0.080	0.040	0.000
2020/01/31 21:35:27.6	0.290	-0.070	0.070	0.040
2020/01/31 21:35:27.7	0.240	-0.050	0.100	0.070
2020/01/31 21:35:27.8	0.200	-0.040	0.120	0.100
2020/01/31 21:35:27.9	0.160	-0.030	0.140	0.140
2020/01/31 21:35:28.0	0.120	-0.020	0.160	0.170
2020/01/31 21:35:28.1	0.070	-0.010	0.180	0.200
2020/01/31 21:35:28.2	0.030	-0.000	0.200	0.220
2020/01/31 21:35:28.3	359.980	0.000	0.220	0.250
2020/01/31 21:35:28.4	359.940	0.010	0.230	0.270
2020/01/31 21:35:28.5	359.900	0.010	0.240	0.300
2020/01/31 21:35:28.6	359.860	0.020	0.250	0.320
2020/01/31 21:35:28.7	359.820	0.020	0.260	0.340
2020/01/31 21:35:28.8	359.770	0.020	0.270	0.360
2020/01/31 21:35:28.9	359.730	0.020	0.270	0.380
2020/01/31 21:35:29.0	359.690	0.030	0.270	0.390
2020/01/31 21:35:29.1	359.660	0.020	0.270	0.400
2020/01/31 21:35:29.2	359.620	0.020	0.260	0.410
2020/01/31 21:35:29.3	359.580	0.020	0.260	0.420
2020/01/31 21:35:29.4	359.550	0.020	0.250	0.420
2020/01/31 21:35:29.5	359.510	0.020	0.240	0.430
2020/01/31 21:35:29.6	359.480	0.020	0.220	0.430
2020/01/31 21:35:29.7	359.450	0.010	0.210	0.420
2020/01/31 21:35:29.8	359.420	0.010	0.190	0.420
2020/01/31 21:35:29.9	359.390	0.010	0.160	0.410
2020/01/31 21:35:30.0	359.360	0.000	0.140	0.400
2020/01/31 21:35:30.1	359.340	0.000	0.110	0.390
2020/01/31 21:35:30.2	359.310	-0.000	0.090	0.380
2020/01/31 21:35:30.3	359.290	-0.000	0.060	0.370
2020/01/31 21:35:30.4	359.270	-0.010	0.030	0.350
2020/01/31 21:35:30.5	359.250	-0.010	-0.010	0.340
2020/01/31 21:35:30.6	359.230	-0.010	-0.040	0.320
2020/01/31 21:35:30.7	359.210	-0.010	-0.070	0.310
2020/01/31 21:35:30.8	359.190	-0.010	-0.110	0.290
2020/01/31 21:35:30.9	359.180	-0.020	-0.150	0.280
2020/01/31 21:35:31.0	359.160	-0.020	-0.180	0.260
2020/01/31 21:35:31.1	359.150	-0.020	-0.220	0.240
2020/01/31 21:35:31.2	359.130	-0.020	-0.250	0.220
2020/01/31 21:35:31.3	359.120	-0.010	-0.290	0.210
2020/01/31 21:35:31.4	359.110	-0.010	-0.330	0.190
2020/01/31 21:35:31.5	359.100	-0.010	-0.360	0.170
2020/01/31 21:35:31.6	359.090	-0.010	-0.400	0.150
2020/01/31 21:35:31.7	359.090	-0.000	-0.430	0.130
2020/01/31 21:35:31.8	359.080	0.000	-0.460	0.110
2020/01/31 21:35:31.9	359.080	0.010	-0.500	0.090
2020/01/31 21:35:32.0	359.070	0.010	-0.530	0.070
2020/01/31 21:35:32.1	359.070	0.020	-0.560	0.050
2020/01/31 21:35:32.2	359.070	0.030	-0.590	0.020
2020/01/31 21:35:32.3	359.070	0.040	-0.620	0.000
2020/01/31 21:35:32.4	359.080	0.050	-0.650	-0.020
2020/01/31 21:35:32.5	359.080	0.070	-0.680	-0.040
2020/01/31 21:35:32.6	359.080	0.080	-0.700	-0.060
2020/01/31 21:35:32.7	359.090	0.100	-0.730	-0.080
2020/01/31 21:35:32.8	359.090	0.110	-0.750	-0.100
2020/01/31 21:35:32.9	359.100	0.130	-0.770	-0.120
2020/01/31 21:35:33.0	359.100	0.150	-0.790	-0.130
2020/01/31 21:35:33.1	359.110	0.170	-0.810	-0.140
2020/01/31 21:35:33.2	359.110	0.190	-0.830	-0.150
2020/01/31 21:35:33.3	359.120	0.210	-0.840	-0.160
2020/01/31 21:35:33.4	359.120	0.240	-0.850	-0.170
2020/01/31 21:35:33.5	359.120	0.260	-0.860	-0.180
2020/01/31 21:35:33.6	359.130	0.280	-0.870	-0.180
2020/01/31 21:35:33.7	359.130	0.310	-0.870	-0.180
2020/01/31 21:35:33.8	359.130	0.330	-0.870	-0.180
2020/01/31 21:35:33.9	359.130	0.350	-0.870	-0.170
2020/01/31 21:35:34.0	359.130	0.380	-0.870	-0.170
2020/01/31 21:35:34.1	359.120	0.400	-0.860	-0.160
2020/01/31 21:35:34.2	359.120	0.420	-0.850	-0.150
2020/01/31 21:35:34.3	359.110	0.440	-0.840	-0.140
2020/01/31 21:35:34.4	359.110	0.460	-0.830	-0.120
2020/01/31 21:35:34.5	359.100	0.480	-0.810	-0.110
2020/01/31 21:35:34.6	359.090	0.500	-0.800	-0.090
2020/01/31 21:35:34.7	359.070	0.510	-0.770	-0.070
2020/01/31 21:35:34.8	359.060	0.520	-0.750	-0.050
2020/01/31 21:35:34.9	359.040	0.530	-0.730	-0.030
2020/01/31 21:35:35.0	359.020	0.540	-0.700	-0.000
2020/01/31 21:35:35.1	359.000	0.540	-0.670	0.020
2020/01/31 21:35:35.2	358.970	0.540	-0.640	0.040
2020/01/31 21:35:35.3	358.940	0.540	-0.610	0.060
2020/01/31 21:35:35.4	358.910	0.530	-0.570	0.090
2020/01/31 21:35:35.5	358.880	0.510	-0.540	0.110
2020/01/31 21:35:35.6	358.850	0.500	-0.500	0.130
2020/01/31 21:35:35.7	358.820	0.480	-0.460	0.140
2020/01/31 21:35:35.8	358.780	0.450	-0.420	0.160
2020/01/31 21:35:35.9	358.740	0.430	-0.380	0.180
2020/01/31 21:35:36.0	358.700	0.390	-0.330	0.190
2020/01/31 21:35:36.1	358.660	0.360	-0.290	0.200
2020/01/31 21:35:36.2	358.630	0.320	-0.250	0.210
2020/01/31 21:35:36.3	358.590	0.270	-0.200	0.210
2020/01/31 21:35:36.4	358.550	0.230	-0.160	0.210
2020/01/31 21:35:36.5	358.510	0.180	-0.110	0.210
2020/01/31 21:35:36.6	358.480	0.130	-0.070	0.210
2020/01/31 21:35:36.7	358.440	0.070	-0.020	0.200
2020/01/31 21:35:36.8	358.400	0.020	0.020	0.190
2020/01/31 21:35:36.9	358.360	-0.040	0.060	0.180
2020/01/31 21:35:37.0	358.320	-0.100	0.100	0.160
2020/01/31 21:35:37.1	358.290	-0.160	0.140	0.140
2020/01/31 21:35:37.2	358.260	-0.220	0.180	0.120
2020/01/31 21:35:37.3	358.230	-0.280	0.210	0.100
2020/01/31 21:35:37.4	358.200	-0.330	0.250	0.080
2020/01/31 21:35:37.5	358.170	-0.390	0.280	0.050
2020/01/31 21:35:37.6	358.140	-0.440	0.310	0.020
2020/01/31 21:35:37.7	358.110	-0.490	0.340	-0.000
2020/01/31 21:35:37.8	358.080	-0.540	0.370	-0.030
2020/01/31 21:35:37.9	358.060	-0.590	0.390	-0.060
2020/01/31 21:35:38.0	358.030	-0.630	0.410	-0.090
2020/01/31 21:35:38.1	358.010	-0.670	0.430	-0.120
2020/01/31 21:35:38.2	357.990	-0.710	0.450	-0.150
2020/01/31 21:35:38.3	357.970	-0.740	0.460	-0.170
2020/01/31 21:35:38.4	357.950	-0.760	0.470	-0.200
2020/01/31 21:35:38.5	357.920	-0.780	0.470	-0.220
2020/01/31 21:35:38.6	357.910	-0.800	0.470	-0.250
2020/01/31 21:35:38.7	357.890	-0.810	0.470	-0.270
2020/01/31 21:35:38.8	357.870	-0.810	0.470	-0.290
2020/01/31 21:35:38.9	357.860	-0.810	0.460	-0.310
2020/01/31 21:35:39.0	357.840	-0.800	0.440	-0.320
2020/01/31 21:35:39.1	357.820	-0.790	0.420	-0.330
2020/01/31 21:35:39.2	357.800	-0.770	0.400	-0.340
2020/01/31 21:35:39.3	357.790	-0.740	0.370	-0.350
2020/01/31 21:35:39.4	357.770	-0.710	0.340	-0.350
2020/01/31 21:35:39.5	357.750	-0.680	0.300	-0.350
2020/01/31 21:35:39.6	357.730	-0.640	0.260	-0.350
2020/01/31 21:35:39.7	357.700	-0.600	0.210	-0.340
2020/01/31 21:35:39.8	357.680	-0.550	0.160	-0.330
2020/01/31 21:35:39.9	357.660	-0.500	0.110	-0.310
2020/01/31 21:35:40.0	357.630	-0.440	0.060	-0.290
2020/01/31 21:35:40.1	357.600	-0.380	-0.000	-0.280
2020/01/31 21:35:40.2	357.580	-0.330	-0.060	-0.250
2020/01/31 21:35:40.3	357.550	-0.260	-0.120	-0.230
2020/01/31 21:35:40.4	357.520	-0.200	-0.190	-0.200
2020/01/31 21:35:40.5	357.490	-0.140	-0.250	-0.180
2020/01/31 21:35:40.6	357.460	-0.080	-0.320	-0.150
2020/01/31 21:35:40.7	357.430	-0.020	-0.380	-0.130
2020/01/31 21:35:40.8	357.400	0.040	-0.450	-0.100
2020/01/31 21:35:40.9	357.380	0.100	-0.510	-0.070
2020/01/31 21:35:41.0	357.350	0.150	-0.580	-0.050
2020/01/31 21:35:41.1	357.330	0.200	-0.640	-0.030
2020/01/31 21:35:41.2	357.300	0.250	-0.700	-0.000
2020/01/31 21:35:41.3	357.280	0.300	-0.760	0.020
2020/01/31 21:35:41.4	357.260	0.340	-0.810	0.030
2020/01/31 21:35:41.5	357.240	0.370	-0.860	0.050
2020/01/31 21:35:41.6	357.230	0.410	-0.910	0.070
2020/01/31 21:35:41.7	357.210	0.430	-0.950	0.080
2020/01/31 21:35:41.8	357.200	0.460	-0.990	0.100
2020/01/31 21:35:41.9	357.180	0.470	-1.020	0.110
2020/01/31 21:35:42.0	357.170	0.480	-1.050	0.120
2020/01/31 21:35:42.1	357.160	0.490	-1.070	0.130
2020/01/31 21:35:42.2	357.160	0.490	-1.080	0.140
2020/01/31 21:35:42.3	357.150	0.490	-1.080	0.150
2020/01/31 21:35:42.4	357.140	0.480	-1.080	0.160
2020/01/31 21:35:42.5	357.140	0.460	-1.070	0.160
2020/01/31 21:35:42.6	357.130	0.440	-1.050	0.170
2020/01/31 21:35:42.7	357.120	0.420	-1.020	0.170
2020/01/31 21:35:42.8	357.120	0.390	-0.990	0.180
2020/01/31 21:35:42.9	357.110	0.360	-0.940	0.180
2020/01/31 21:35:43.0	357.110	0.320	-0.890	0.190
2020/01/31 21:35:43.1	357.100	0.280	-0.830	0.190
2020/01/31 21:35:43.2	357.090	0.240	-0.760	0.200
2020/01/31 21:35:43.3	357.080	0.200	-0.690	0.210
2020/01/31 21:35:43.4	357.070	0.150	-0.610	0.220
2020/01/31 21:35:43.5	357.060	0.110	-0.520	0.230
2020/01/31 21:35:43.6	357.050	0.060	-0.440	0.250
2020/01/31 21:35:43.7	357.040	0.010	-0.340	0.260
2020/01/31 21:35:43.8	357.030	-0.030	-0.250	0.280
2020/01/31 21:35:43.9	357.010	-0.080	-0.160	0.300
2020/01/31 21:35:44.0	357.000	-0.120	-0.070	0.310
2020/01/31 21:35:44.1	356.990	-0.160	0.030	0.330
2020/01/31 21:35:44.2	356.980	-0.200	0.120	0.350
2020/01/31 21:35:44.3	356.970	-0.230	0.200	0.370
2020/01/31 21:35:44.4	356.960	-0.260	0.290	0.390
2020/01/31 21:35:44.5	356.950	-0.290	0.360	0.410
2020/01/31 21:35:44.6	356.940	-0.310	0.430	0.420
2020/01/31 21:35:44.7	356.930	-0.330	0.500	0.440
2020/01/31 21:35:44.8	356.920	-0.350	0.550	0.450
2020/01/31 21:35:44.9	356.920	-0.360	0.600	0.460
2020/01/31 21:35:45.0	356.910	-0.360	0.640	0.470
2020/01/31 21:35:45.1	356.900	-0.370	0.670	0.480
2020/01/31 21:35:45.2	356.890	-0.360	0.690	0.490
2020/01/31 21:35:45.3	356.880	-0.360	0.700	0.490
2020/01/31 21:35:45.4	356.870	-0.350	0.700	0.500
2020/01/31 21:35:45.5	356.860	-0.330	0.700	0.500
2020/01/31 21:35:45.6	356.840	-0.310	0.680	0.510
2020/01/31 21:35:45.7	356.830	-0.290	0.650	0.510
2020/01/31 21:35:45.8	356.810	-0.260	0.620	0.510
2020/01/31 21:35:45.9	356.790	-0.230	0.580	0.510
2020/01/31 21:35:46.0	356.770	-0.200	0.530	0.510
2020/01/31 21:35:46.1	356.750	-0.170	0.480	0.510
2020/01/31 21:35:46.2	356.730	-0.130	0.420	0.500
2020/01/31 21:35:46.3	356.710	-0.090	0.350	0.500
2020/01/31 21:35:46.4	356.680	-0.050	0.280	0.500
2020/01/31 21:35:46.5	356.660	-0.010	0.210	0.490
2020/01/31 21:35:46.6	356.630	0.030	0.130	0.490
2020/01/31 21:35:46.7	356.600	0.070	0.050	0.480
2020/01/31 21:35:46.8	356.570	0.110	-0.030	0.470
2020/01/31 21:35:46.9	356.540	0.150	-0.110	0.470
2020/01/31 21:35:47.0	356.510	0.190	-0.190	0.460
2020/01/31 21:35:47.1	356.470	0.230	-0.270	0.450
2020/01/31 21:35:47.2	356.440	0.260	-0.350	0.440
2020/01/31 21:35:47.3	356.410	0.300	-0.420	0.430
2020/01/31 21:35:47.4	356.380	0.330	-0.490	0.420
2020/01/31 21:35:47.5	356.350	0.360	-0.560	0.410
2020/01/31 21:35:47.6	356.320	0.380	-0.620	0.390
2020/01/31 21:35:47.7	356.290	0.410	-0.680	0.380
2020/01/31 21:35:47.8	356.260	0.420	-0.740	0.360
2020/01/31 21:35:47.9	356.240	0.440	-0.780	0.340
2020/01/31 21:35:48.0	356.220	0.450	-0.830	0.320
2020/01/31 21:35:48.1	356.190	0.460	-0.860	0.300
2020/01/31 21:35:48.2	356.170	0.470	-0.890	0.270
2020/01/31 21:35:48.3	356.160	0.470	-0.920	0.240
2020/01/31 21:35:48.4	356.140	0.470	-0.940	0.220
2020/01/31 21:35:48.5	356.130	0.470	-0.960	0.190
2020/01/31 21:35:48.6	356.120	0.460	-0.970	0.160
2020/01/31 21:35:48.7	356.110	0.450	-0.970	0.130
2020/01/31 21:35:48.8	356.110	0.440	-0.980	0.090
2020/01/31 21:35:48.9	356.110	0.430	-0.980	0.060
2020/01/31 21:35:49.0	356.110	0.410	-0.970	0.030
2020/01/31 21:35:49.1	356.110	0.390	-0.960	-0.010
2020/01/31 21:35:49.2	356.120	0.370	-0.950	-0.040
2020/01/31 21:35:49.3	356.130	0.350	-0.930	-0.080
2020/01/31 21:35:49.4	356.150	0.320	-0.910	-0.110
2020/01/31 21:35:49.5	356.160	0.300	-0.890	-0.150
2020/01/31 21:35:49.6	356.180	0.270	-0.860	-0.180
2020/01/31 21:35:49.7	356.190	0.240	-0.830	-0.220
2020/01/31 21:35:49.8	356.210	0.210	-0.800	-0.250
2020/01/31 21:35:49.9	356.230	0.180	-0.770	-0.290
2020/01/31 21:35:50.0	356.250	0.150	-0.740	-0.320
2020/01/31 21:35:50.1	356.270	0.110	-0.710	-0.350
2020/01/31 21:35:50.2	356.290	0.080	-0.670	-0.380
2020/01/31 21:35:50.3	356.310	0.050	-0.630	-0.420
2020/01/31 21:35:50.4	356.330	0.010	-0.590	-0.440
2020/01/31 21:35:50.5	356.350	-0.020	-0.560	-0.470
2020/01/31 21:35:50.6	356.360	-0.060	-0.520	-0.500
2020/01/31 21:35:50.7	356.380	-0.090	-0.480	-0.520
2020/01/31 21:35:50.8	356.390	-0.120	-0.440	-0.550
2020/01/31 21:35:50.9	356.420	-0.150	-0.400	-0.570
2020/01/31 21:35:51.0	356.430	-0.180	-0.370	-0.580
2020/01/31 21:35:51.1	356.440	-0.210	-0.330	-0.600
2020/01/31 21:35:51.2	356.440	-0.230	-0.300	-0.610
2020/01/31 21:35:51.3	356.450	-0.260	-0.260	-0.620
2020/01/31 21:35:51.4	356.450	-0.280	-0.230	-0.620
2020/01/31 21:35:51.5	356.450	-0.300	-0.200	-0.620
2020/01/31 21:35:51.6	356.450	-0.320	-0.170	-0.620
2020/01/31 21:35:51.7	356.450	-0.340	-0.140	-0.620
2020/01/31 21:35:51.8	356.450	-0.350	-0.110	-0.610
2020/01/31 21:35:51.9	356.440	-0.360	-0.090	-0.590
2020/01/31 21:35:52.0	356.430	-0.370	-0.070	-0.580
2020/01/31 21:35:52.1	356.430	-0.380	-0.050	-0.560
2020/01/31 21:35:52.2	356.410	-0.380	-0.030	-0.530
2020/01/31 21:35:52.3	356.400	-0.380	-0.010	-0.510
2020/01/31 21:35:52.4	356.390	-0.380	0.000	-0.480
2020/01/31 21:35:52.5	356.380	-0.380	0.020	-0.460
2020/01/31 21:35:52.6	356.370	-0.370	0.030	-0.430
2020/01/31 21:35:52.7	356.350	-0.370	0.040	-0.400
2020/01/31 21:35:52.8	356.340	-0.360	0.050	-0.370
2020/01/31 21:35:52.9	356.320	-0.350	0.050	-0.340
2020/01/31 21:35:53.0	356.300	-0.340	0.060	-0.310
2020/01/31 21:35:53.1	356.290	-0.320	0.060	-0.270
2020/01/31 21:35:53.2	356.270	-0.310	0.070	-0.240
2020/01/31 21:35:53.3	356.250	-0.290	0.070	-0.210
2020/01/31 21:35:53.4	356.240	-0.280	0.080	-0.180
2020/01/31 21:35:53.5	356.220	-0.260	0.080	-0.140
2020/01/31 21:35:53.6	356.210	-0.240	0.090	-0.110
2020/01/31 21:35:53.7	356.190	-0.220	0.090	-0.080
2020/01/31 21:35:53.8	356.170	-0.200	0.100	-0.040
2020/01/31 21:35:53.9	356.150	-0.180	0.110	-0.000
2020/01/31 21:35:54.0	356.140	-0.160	0.120	0.030
2020/01/31 21:35:54.1	356.120	-0.140	0.130	0.070
2020/01/31 21:35:54.2	356.100	-0.130	0.140	0.110
2020/01/31 21:35:54.3	356.090	-0.110	0.150	0.150
2020/01/31 21:35:54.4	356.070	-0.090	0.160	0.190
2020/01/31 21:35:54.5	356.060	-0.080	0.180	0.220
2020/01/31 21:35:54.6	356.040	-0.060	0.190	0.260
2020/01/31 21:35:54.7	356.030	-0.050	0.200	0.300
2020/01/31 21:35:54.8	356.010	-0.040	0.210	0.330
2020/01/31 21:35:54.9	356.000	-0.030	0.230	0.370
2020/01/31 21:35:55.0	355.990	-0.020	0.240	0.400
2020/01/31 21:35:55.1	355.980	-0.010	0.250	0.430
2020/01/31 21:35:55.2	355.960	-0.000	0.260	0.460
2020/01/31 21:35:55.3	355.960	-0.000	0.260	0.480
2020/01/31 21:35:55.4	355.950	0.000	0.270	0.500
2020/01/31 21:35:55.5	355.940	0.000	0.270	0.520
2020/01/31 21:35:55.6	355.930	0.000	0.270	0.530
2020/01/31 21:35:55.7	355.920	0.000	0.260	0.540
2020/01/31 21:35:55.8	355.910	0.000	0.250	0.550
2020/01/31 21:35:55.9	355.900	-0.000	0.240	0.560
2020/01/31 21:35:56.0	355.890	-0.010	0.230	0.560
2020/01/31 21:35:56.1	355.880	-0.010	0.210	0.550
2020/01/31 21:35:56.2	355.880	-0.020	0.190	0.550
2020/01/31 21:35:56.3	355.870	-0.020	0.170	0.540
2020/01/31 21:35:56.4	355.860	-0.030	0.140	0.520
2020/01/31 21:35:56.5	355.850	-0.040	0.120	0.510
2020/01/31 21:35:56.6	355.840	-0.040	0.080	0.490
2020/01/31 21:35:56.7	355.830	-0.050	0.050	0.470
2020/01/31 21:35:56.8	355.810	-0.050	0.020	0.450
2020/01/31 21:35:56.9	355.800	-0.060	-0.020	0.430
2020/01/31 21:35:57.0	355.790	-0.060	-0.060	0.410
2020/01/31 21:35:57.1	355.770	-0.070	-0.100	0.390
2020/01/31 21:35:57.2	355.750	-0.070	-0.130	0.360
2020/01/31 21:35:57.3	355.730	-0.070	-0.170	0.340
2020/01/31 21:35:57.4	355.710	-0.080	-0.210	0.320
2020/01/31 21:35:57.5	355.690	-0.080	-0.250	0.300
2020/01/31 21:35:57.6	355.660	-0.070	-0.290	0.280
2020/01/31 21:35:57.7	355.640	-0.070	-0.330	0.260
2020/01/31 21:35:57.8	355.610	-0.070	-0.370	0.240
2020/01/31 21:35:57.9	355.570	-0.070	-0.410	0.230
2020/01/31 21:35:58.0	355.540	-0.060	-0.440	0.210
2020/01/31 21:35:58.1	355.520	-0.050	-0.480	0.190
2020/01/31 21:35:58.2	355.490	-0.050	-0.520	0.180
2020/01/31 21:35:58.3	355.460	-0.040	-0.550	0.160
2020/01/31 21:35:58.4	355.430	-0.030	-0.590	0.140
2020/01/31 21:35:58.5	355.410	-0.020	-0.620	0.120
2020/01/31 21:35:58.6	355.380	-0.010	-0.660	0.100
2020/01/31 21:35:58.7	355.360	0.000	-0.690	0.080
2020/01/31 21:35:58.8	355.330	0.010	-0.720	0.060
2020/01/31 21:35:58.9	355.310	0.030	-0.750	0.040
2020/01/31 21:35:59.0	355.290	0.040	-0.780	0.020
2020/01/31 21:35:59.1	355.270	0.050	-0.810	-0.000
2020/01/31 21:35:59.2	355.250	0.070	-0.830	-0.030
2020/01/31 21:35:59.3	355.240	0.080	-0.850	-0.050
2020/01/31 21:35:59.4	355.220	0.090	-0.870	-0.070
2020/01/31 21:35:59.5	355.210	0.110	-0.890	-0.100
2020/01/31 21:35:59.6	355.200	0.120	-0.900	-0.120
2020/01/31 21:35:59.7	355.180	0.130	-0.920	-0.150
2020/01/31 21:35:59.8	355.180	0.150	-0.930	-0.170
2020/01/31 21:35:59.9	355.170	0.160	-0.930	-0.200
2020/01/31 21:36:00.0	355.160	0.170	-0.930	-0.220
2020/01/31 21:36:00.1	355.160	0.190	-0.930	-0.240
2020/01/31 21:36:00.2	355.160	0.200	-0.930	-0.260
2020/01/31 21:36:00.3	355.160	0.210	-0.920	-0.280
2020/01/31 21:36:00.4	355.160	0.220	-0.910	-0.300
2020/01/31 21:36:00.5	355.170	0.230	-0.900	-0.320
2020/01/31 21:36:00.6	355.170	0.240	-0.890	-0.330
2020/01/31 21:36:00.7	355.180	0.250	-0.870	-0.350
2020/01/31 21:36:00.8	355.190	0.260	-0.850	-0.360
2020/01/31 21:36:00.9	355.200	0.270	-0.830	-0.360
2020/01/31 21:36:01.0	355.210	0.280	-0.810	-0.370
2020/01/31 21:36:01.1	355.230	0.290	-0.780	-0.370
2020/01/31 21:36:01.2	355.240	0.300	-0.750	-0.370
2020/01/31 21:36:01.3	355.260	0.300	-0.720	-0.370
2020/01/31 21:36:01.4	355.270	0.310	-0.690	-0.370
2020/01/31 21:36:01.5	355.290	0.310	-0.660	-0.370
2020/01/31 21:36:01.6	355.310	0.320	-0.630	-0.360
2020/01/31 21:36:01.7	355.330	0.320	-0.600	-0.350
2020/01/31 21:36:01.8	355.350	0.320	-0.560	-0.340
2020/01/31 21:36:01.9	355.360	0.320	-0.530	-0.330
2020/01/31 21:36:02.0	355.380	0.320	-0.490	-0.310
2020/01/31 21:36:02.1	355.400	0.320	-0.460	-0.290
2020/01/31 21:36:02.2	355.410	0.310	-0.420	-0.270
2020/01/31 21:36:02.3	355.430	0.310	-0.380	-0.250
2020/01/31 21:36:02.4	355.440	0.300	-0.340	-0.220
2020/01/31 21:36:02.5	355.450	0.290	-0.300	-0.190
2020/01/31 21:36:02.6	355.460	0.280	-0.260	-0.170
2020/01/31 21:36:02.7	355.470	0.260	-0.220	-0.140
2020/01/31 21:36:02.8	355.480	0.250	-0.180	-0.100
2020/01/31 21:36:02.9	355.490	0.230	-0.130	-0.070
2020/01/31 21:36:03.0	355.490	0.210	-0.090	-0.030
2020/01/31 21:36:03.1	355.500	0.190	-0.050	-0.000
2020/01/31 21:36:03.2	355.500	0.170	-0.000	0.030
2020/01/31 21:36:03.3	355.490	0.150	0.040	0.070
2020/01/31 21:36:03.4	355.490	0.120	0.090	0.100
2020/01/31 21:36:03.5	355.490	0.100	0.130	0.140
2020/01/31 21:36:03.6	355.480	0.070	0.170	0.170
2020/01/31 21:36:03.7	355.480	0.040	0.210	0.200
2020/01/31 21:36:03.8	355.470	0.010	0.250	0.230
2020/01/31 21:36:03.9	355.470	-0.020	0.290	0.270
2020/01/31 21:36:04.0	355.460	-0.040	0.320	0.300
2020/01/31 21:36:04.1	355.440	-0.070	0.350	0.330
2020/01/31 21:36:04.2	355.430	-0.100	0.380	0.360
2020/01/31 21:36:04.3	355.410	-0.130	0.400	0.390
2020/01/31 21:36:04.4	355.400	-0.160	0.420	0.420
2020/01/31 21:36:04.5	355.380	-0.180	0.440	0.450
2020/01/31 21:36:04.6	355.360	-0.210	0.450	0.470
2020/01/31 21:36:04.7	355.340	-0.230	0.460	0.500
2020/01/31 21:36:04.8	355.320	-0.260	0.460	0.510
2020/01/31 21:36:04.9	355.290	-0.280	0.460	0.530
2020/01/31 21:36:05.0	355.270	-0.300	0.450	0.540
2020/01/31 21:36:05.1	355.250	-0.310	0.440	0.550
2020/01/31 21:36:05.2	355.230	-0.330	0.420	0.560
2020/01/31 21:36:05.3	355.210	-0.340	0.400	0.550
2020/01/31 21:36:05.4	355.190	-0.360	0.370	0.550
2020/01/31 21:36:05.5	355.180	-0.370	0.340	0.540
2020/01/31 21:36:05.6	355.160	-0.370	0.300	0.520
2020/01/31 21:36:05.7	355.140	-0.380	0.260	0.500
2020/01/31 21:36:05.8	355.130	-0.380	0.210	0.480
2020/01/31 21:36:05.9	355.120	-0.380	0.160	0.450
2020/01/31 21:36:06.0	355.110	-0.380	0.110	0.410
2020/01/31 21:36:06.1	355.090	-0.370	0.060	0.380
2020/01/31 21:36:06.2	355.080	-0.370	-0.000	0.340
2020/01/31 21:36:06.3	355.070	-0.360	-0.060	0.310
2020/01/31 21:36:06.4	355.060	-0.350	-0.110	0.270
2020/01/31 21:36:06.5	355.050	-0.340	-0.170	0.220
2020/01/31 21:36:06.6	355.030	-0.330	-0.230	0.180
2020/01/31 21:36:06.7	355.020	-0.310	-0.280	0.140
2020/01/31 21:36:06.8	355.010	-0.300	-0.330	0.100
2020/01/31 21:36:06.9	355.000	-0.280	-0.380	0.050
2020/01/31 21:36:07.0	354.990	-0.260	-0.420	0.010
2020/01/31 21:36:07.1	354.980	-0.250	-0.460	-0.040
2020/01/31 21:36:07.2	354.970	-0.230	-0.500	-0.080
2020/01/31 21:36:07.3	354.960	-0.210	-0.530	-0.120
2020/01/31 21:36:07.4	354.960	-0.190	-0.560	-0.170
2020/01/31 21:36:07.5	354.950	-0.180	-0.590	-0.210
2020/01/31 21:36:07.6	354.940	-0.160	-0.610	-0.250
2020/01/31 21:36:07.7	354.940	-0.140	-0.620	-0.290
2020/01/31 21:36:07.8	354.930	-0.130	-0.630	-0.330
2020/01/31 21:36:07.9	354.910	-0.110	-0.640	-0.370
2020/01/31 21:36:08.0	354.910	-0.090	-0.640	-0.400
2020/01/31 21:36:08.1	354.900	-0.080	-0.640	-0.430
2020/01/31 21:36:08.2	354.890	-0.070	-0.630	-0.460
2020/01/31 21:36:08.3	354.890	-0.060	-0.610	-0.490
2020/01/31 21:36:08.4	354.880	-0.050	-0.600	-0.510
2020/01/31 21:36:08.5	354.870	-0.040	-0.580	-0.540
2020/01/31 21:36:08.6	354.870	-0.030	-0.550	-0.550
2020/01/31 21:36:08.7	354.860	-0.020	-0.530	-0.570
2020/01/31 21:36:08.8	354.850	-0.010	-0.500	-0.580
2020/01/31 21:36:08.9	354.830	-0.010	-0.470	-0.580
2020/01/31 21:36:09.0	354.820	-0.010	-0.430	-0.590
2020/01/31 21:36:09.1	354.810	-0.000	-0.400	-0.580
2020/01/31 21:36:09.2	354.800	-0.000	-0.360	-0.580
2020/01/31 21:36:09.3	354.780	-0.000	-0.320	-0.570
2020/01/31 21:36:09.4	354.770	-0.000	-0.290	-0.560
2020/01/31 21:36:09.5	354.760	-0.000	-0.250	-0.540
2020/01/31 21:36:09.6	354.740	-0.000	-0.220	-0.520
2020/01/31 21:36:09.7	354.720	-0.010	-0.180	-0.490
2020/01/31 21:36:09.8	354.710	-0.010	-0.150	-0.460
2020/01/31 21:36:09.9	354.700	-0.010	-0.120	-0.430
2020/01/31 21:36:10.0	354.680	-0.010	-0.090	-0.400
2020/01/31 21:36:10.1	354.660	-0.010	-0.070	-0.360
2020/01/31 21:36:10.2	354.640	-0.010	-0.050	-0.330
2020/01/31 21:36:10.3	354.620	-0.010	-0.030	-0.290
2020/01/31 21:36:10.4	354.610	-0.000	-0.020	-0.250
2020/01/31 21:36:10.5	354.590	0.000	-0.010	-0.210
2020/01/31 21:36:10.6	354.570	0.010	-0.010	-0.170
2020/01/31 21:36:10.7	354.550	0.010	-0.010	-0.140
2020/01/31 21:36:10.8	354.540	0.020	-0.020	-0.100
2020/01/31 21:36:10.9	354.510	0.030	-0.040	-0.060
2020/01/31 21:36:11.0	354.500	0.050	-0.050	-0.020
2020/01/31 21:36:11.1	354.480	0.060	-0.070	0.020
2020/01/31 21:36:11.2	354.470	0.080	-0.090	0.060
2020/01/31 21:36:11.3	354.460	0.100	-0.120	0.090
2020/01/31 21:36:11.4	354.450	0.120	-0.150	0.130
2020/01/31 21:36:11.5	354.440	0.140	-0.180	0.160
2020/01/31 21:36:11.6	354.430	0.160	-0.220	0.190
2020/01/31 21:36:11.7	354.420	0.190	-0.260	0.230
2020/01/31 21:36:11.8	354.410	0.220	-0.290	0.260
2020/01/31 21:36:11.9	354.410	0.240	-0.320	0.290
2020/01/31 21:36:12.0	354.400	0.270	-0.360	0.320
2020/01/31 21:36:12.1	354.400	0.300	-0.390	0.340
2020/01/31 21:36:12.2	354.390	0.320	-0.420	0.370
2020/01/31 21:36:12.3	354.380	0.350	-0.450	0.390
2020/01/31 21:36:12.4	354.380	0.370	-0.480	0.420
2020/01/31 21:36:12.5	354.370	0.400	-0.500	0.440
2020/01/31 21:36:12.6	354.370	0.420	-0.520	0.460
2020/01/31 21:36:12.7	354.370	0.440	-0.540	0.480
2020/01/31 21:36:12.8	354.360	0.460	-0.550	0.490
2020/01/31 21:36:12.9	354.360	0.470	-0.560	0.510
2020/01/31 21:36:13.0	354.350	0.480	-0.560	0.530
2020/01/31 21:36:13.1	354.350	0.490	-0.560	0.540
2020/01/31 21:36:13.2	354.350	0.500	-0.560	0.550
2020/01/31 21:36:13.3	354.350	0.500	-0.550	0.560
2020/01/31 21:36:13.4	354.350	0.500	-0.540	0.560
2020/01/31 21:36:13.5	354.350	0.490	-0.530	0.560
2020/01/31 21:36:13.6	354.350	0.480	-0.510	0.560
2020/01/31 21:36:13.7	354.350	0.470	-0.490	0.560
2020/01/31 21:36:13.8	354.360	0.450	-0.470	0.560
2020/01/31 21:36:13.9	354.360	0.430	-0.450	0.550
2020/01/31 21:36:14.0	354.360	0.400	-0.420	0.540
2020/01/31 21:36:14.1	354.370	0.370	-0.400	0.520
2020/01/31 21:36:14.2	354.370	0.340	-0.370	0.510
2020/01/31 21:36:14.3	354.380	0.310	-0.340	0.490
2020/01/31 21:36:14.4	354.380	0.270	-0.310	0.470
2020/01/31 21:36:14.5	354.390	0.230	-0.280	0.440
2020/01/31 21:36:14.6	354.390	0.180	-0.250	0.420
2020/01/31 21:36:14.7	354.400	0.140	-0.220	0.390
2020/01/31 21:36:14.8	354.400	0.090	-0.190	0.360
2020/01/31 21:36:14.9	354.400	0.040	-0.170	0.340
2020/01/31 21:36:15.0	354.410	-0.010	-0.140	0.310
2020/01/31 21:36:15.1	354.410	-0.070	-0.110	0.280
2020/01/31 21:36:15.2	354.420	-0.120	-0.080	0.240
2020/01/31 21:36:15.3	354.420	-0.170	-0.060	0.210
2020/01/31 21:36:15.4	354.430	-0.220	-0.030	0.180
2020/01/31 21:36:15.5	354.430	-0.270	-0.010	0.150
2020/01/31 21:36:15.6	354.440	-0.320	0.010	0.110
2020/01/31 21:36:15.7	354.440	-0.370	0.030	0.080
2020/01/31 21:36:15.8	354.440	-0.420	0.050	0.050
2020/01/31 21:36:15.9	354.450	-0.460	0.060	0.010
2020/01/31 21:36:16.0	354.450	-0.500	0.080	-0.020
2020/01/31 21:36:16.1	354.450	-0.540	0.090	-0.050
2020/01/31 21:36:16.2	354.440	-0.570	0.090	-0.080
2020/01/31 21:36:16.3	354.440	-0.600	0.100	-0.110
2020/01/31 21:36:16.4	354.440	-0.630	0.100	-0.130
2020/01/31 21:36:16.5	354.430	-0.650	0.100	-0.160
2020/01/31 21:36:16.6	354.420	-0.670	0.100	-0.180
2020/01/31 21:36:16.7	354.410	-0.680	0.090	-0.210
2020/01/31 21:36:16.8	354.410	-0.690	0.080	-0.230
2020/01/31 21:36:16.9	354.400	-0.690	0.070	-0.240
2020/01/31 21:36:17.0	354.390	-0.690	0.050	-0.260
2020/01/31 21:36:17.1	354.380	-0.680	0.030	-0.270
2020/01/31 21:36:17.2	354.370	-0.670	0.010	-0.280
2020/01/31 21:36:17.3	354.360	-0.650	-0.020	-0.290
2020/01/31 21:36:17.4	354.360	-0.630	-0.050	-0.300
2020/01/31 21:36:17.5	354.350	-0.600	-0.080	-0.310
2020/01/31 21:36:17.6	354.340	-0.570	-0.120	-0.310
2020/01/31 21:36:17.7	354.340	-0.530	-0.160	-0.310
2020/01/31 21:36:17.8	354.340	-0.490	-0.200	-0.320
2020/01/31 21:36:17.9	354.330	-0.440	-0.250	-0.320
2020/01/31 21:36:18.0	354.330	-0.400	-0.290	-0.320
2020/01/31 21:36:18.1	354.330	-0.350	-0.340	-0.320
2020/01/31 21:36:18.2	354.330	-0.290	-0.380	-0.320
2020/01/31 21:36:18.3	354.330	-0.240	-0.430	-0.310
2020/01/31 21:36:18.4	354.330	-0.180	-0.480	-0.310
2020/01/31 21:36:18.5	354.340	-0.120	-0.520	-0.310
2020/01/31 21:36:18.6	354.340	-0.060	-0.570	-0.300
2020/01/31 21:36:18.7	354.340	-0.010	-0.610	-0.300
2020/01/31 21:36:18.8	354.350	0.050	-0.650	-0.290
2020/01/31 21:36:18.9	354.350	0.110	-0.690	-0.290
2020/01/31 21:36:19.0	354.350	0.160	-0.720	-0.280
2020/01/31 21:36:19.1	354.360	0.220	-0.750	-0.280
2020/01/31 21:36:19.2	354.360	0.270	-0.780	-0.270
2020/01/31 21:36:19.3	354.370	0.320	-0.800	-0.270
2020/01/31 21:36:19.4	354.380	0.360	-0.820	-0.260
2020/01/31 21:36:19.5	354.390	0.400	-0.840	-0.260
2020/01/31 21:36:19.6	354.400	0.440	-0.850	-0.250
2020/01/31 21:36:19.7	354.410	0.470	-0.850	-0.250
2020/01/31 21:36:19.8	354.430	0.500	-0.850	-0.240
2020/01/31 21:36:19.9	354.440	0.520	-0.850	-0.230
2020/01/31 21:36:20.0	354.450	0.540	-0.840	-0.220
2020/01/31 21:36:20.1	354.460	0.550	-0.820	-0.210
2020/01/31 21:36:20.2	354.480	0.560	-0.800	-0.200
2020/01/31 21:36:20.3	354.490	0.560	-0.770	-0.190
2020/01/31 21:36:20.4	354.510	0.560	-0.740	-0.180
2020/01/31 21:36:20.5	354.520	0.550	-0.710	-0.170
2020/01/31 21:36:20.6	354.530	0.540	-0.670	-0.150
2020/01/31 21:36:20.7	354.540	0.520	-0.620	-0.130
2020/01/31 21:36:20.8	354.550	0.500	-0.570	-0.110
2020/01/31 21:36:20.9	354.560	0.470	-0.520	-0.090
2020/01/31 21:36:21.0	354.560	0.440	-0.460	-0.070
2020/01/31 21:36:21.1	354.570	0.400	-0.400	-0.050
2020/01/31 21:36:21.2	354.580	0.360	-0.330	-0.020
2020/01/31 21:36:21.3	354.580	0.320	-0.270	0.000
2020/01/31 21:36:21.4	354.580	0.280	-0.200	0.030
2020/01/31 21:36:21.5	354.580	0.230	-0.130	0.060
2020/01/31 21:36:21.6	354.580	0.180	-0.050	0.080
2020/01/31 21:36:21.7	354.580	0.130	0.020	0.110
2020/01/31 21:36:21.8	354.580	0.080	0.090	0.140
2020/01/31 21:36:21.9	354.570	0.030	0.160	0.170
2020/01/31 21:36:22.0	354.570	-0.030	0.230	0.190
2020/01/31 21:36:22.1	354.560	-0.080	0.300	0.220
2020/01/31 21:36:22.2	354.550	-0.130	0.360	0.240
2020/01/31 21:36:22.3	354.540	-0.180	0.420	0.270
2020/01/31 21:36:22.4	354.530	-0.220	0.480	0.290
2020/01/31 21:36:22.5	354.520	-0.270	0.530	0.310
2020/01/31 21:36:22.6	354.510	-0.310	0.580	0.340
2020/01/31 21:36:22.7	354.500	-0.350	0.620	0.360
2020/01/31 21:36:22.8	354.490	-0.380	0.660	0.380
2020/01/31 21:36:22.9	354.470	-0.410	0.690	0.400
2020/01/31 21:36:23.0	354.460	-0.440	0.720	0.420
2020/01/31 21:36:23.1	354.440	-0.460	0.740	0.440
2020/01/31 21:36:23.2	354.420	-0.480	0.760	0.460
2020/01/31 21:36:23.3	354.400	-0.500	0.760	0.480
2020/01/31 21:36:23.4	354.390	-0.510	0.770	0.500
2020/01/31 21:36:23.5	354.370	-0.510	0.760	0.520
2020/01/31 21:36:23.6	354.350	-0.510	0.750	0.530
2020/01/31 21:36:23.7	354.330	-0.510	0.730	0.550
2020/01/31 21:36:23.8	354.310	-0.500	0.700	0.560
2020/01/31 21:36:23.9	354.290	-0.490	0.670	0.570
2020/01/31 21:36:24.0	354.270	-0.470	0.630	0.580
2020/01/31 21:36:24.1	354.250	-0.450	0.580	0.590
2020/01/31 21:36:24.2	354.230	-0.430	0.530	0.590
2020/01/31 21:36:24.3	354.210	-0.400	0.460	0.590
2020/01/31 21:36:24.4	354.200	-0.370	0.390	0.590
2020/01/31 21:36:24.5	354.180	-0.340	0.320	0.580
2020/01/31 21:36:24.6	354.170	-0.300	0.240	0.580
2020/01/31 21:36:24.7	354.150	-0.260	0.160	0.560
2020/01/31 21:36:24.8	354.140	-0.220	0.070	0.550
2020/01/31 21:36:24.9	354.140	-0.170	-0.030	0.530
2020/01/31 21:36:25.0	354.130	-0.120	-0.120	0.510
2020/01/31 21:36:25.1	354.120	-0.080	-0.220	0.490
2020/01/31 21:36:25.2	354.110	-0.030	-0.320	0.460
2020/01/31 21:36:25.3	354.100	0.020	-0.410	0.430
2020/01/31 21:36:25.4	354.100	0.070	-0.510	0.410
2020/01/31 21:36:25.5	354.100	0.130	-0.610	0.380
2020/01/31 21:36:25.6	354.100	0.180	-0.700	0.350
2020/01/31 21:36:25.7	354.100	0.230	-0.790	0.320
2020/01/31 21:36:25.8	354.100	0.270	-0.880	0.280
2020/01/31 21:36:25.9	354.080	0.320	-0.960	0.250
2020/01/31 21:36:26.0	354.090	0.370	-1.030	0.220
2020/01/31 21:36:26.1	354.090	0.410	-1.100	0.180
2020/01/31 21:36:26.2	354.100	0.450	-1.160	0.150
2020/01/31 21:36:26.3	354.110	0.490	-1.220	0.110
2020/01/31 21:36:26.4	354.120	0.520	-1.260	0.070
2020/01/31 21:36:26.5	354.140	0.560	-1.300	0.030
2020/01/31 21:36:26.6	354.150	0.580	-1.340	-0.010
2020/01/31 21:36:26.7	354.170	0.610	-1.360	-0.060
2020/01/31 21:36:26.8	354.180	0.620	-1.380	-0.100
2020/01/31 21:36:26.9	354.200	0.640	-1.380	-0.150
2020/01/31 21:36:27.0	354.220	0.640	-1.380	-0.200
2020/01/31 21:36:27.1	354.230	0.650	-1.380	-0.250
2020/01/31 21:36:27.2	354.260	0.650	-1.360	-0.300
2020/01/31 21:36:27.3	354.280	0.640	-1.340	-0.360
2020/01/31 21:36:27.4	354.300	0.630	-1.310	-0.410
2020/01/31 21:36:27.5	354.320	0.610	-1.280	-0.470
2020/01/31 21:36:27.6	354.350	0.590	-1.240	-0.530
2020/01/31 21:36:27.7	354.370	0.560	-1.200	-0.580
2020/01/31 21:36:27.8	354.400	0.530	-1.150	-0.640
2020/01/31 21:36:27.9	354.440	0.490	-1.090	-0.690
2020/01/31 21:36:28.0	354.460	0.450	-1.030	-0.750
2020/01/31 21:36:28.1	354.490	0.410	-0.970	-0.810
2020/01/31 21:36:28.2	354.510	0.360	-0.900	-0.860
2020/01/31 21:36:28.3	354.540	0.310	-0.830	-0.920
2020/01/31 21:36:28.4	354.560	0.260	-0.760	-0.970
2020/01/31 21:36:28.5	354.590	0.200	-0.690	-1.020
2020/01/31 21:36:28.6	354.610	0.150	-0.610	-1.060
2020/01/31 21:36:28.7	354.630	0.090	-0.530	-1.100
2020/01/31 21:36:28.8	354.650	0.030	-0.450	-1.140
2020/01/31 21:36:28.9	354.680	-0.020	-0.370	-1.180
2020/01/31 21:36:29.0	354.700	-0.080	-0.290	-1.210
2020/01/31 21:36:29.1	354.710	-0.140	-0.210	-1.240
2020/01/31 21:36:29.2	354.730	-0.190	-0.130	-1.260
2020/01/31 21:36:29.3	354.740	-0.240	-0.060	-1.290
2020/01/31 21:36:29.4	354.760	-0.290	0.020	-1.300
2020/01/31 21:36:29.5	354.770	-0.340	0.090	-1.320
2020/01/31 21:36:29.6	354.780	-0.390	0.160	-1.320
2020/01/31 21:36:29.7	354.790	-0.430	0.230	-1.330
2020/01/31 21:36:29.8	354.790	-0.470	0.290	-1.330
2020/01/31 21:36:29.9	354.800	-0.500	0.350	-1.330
2020/01/31 21:36:30.0	354.810	-0.530	0.400	-1.320
2020/01/31 21:36:30.1	354.810	-0.560	0.440	-1.320
2020/01/31 21:36:30.2	354.810	-0.580	0.480	-1.300
2020/01/31 21:36:30.3	354.820	-0.600	0.520	-1.290
2020/01/31 21:36:30.4	354.820	-0.610	0.550	-1.270
2020/01/31 21:36:30.5	354.820	-0.620	0.570	-1.250
2020/01/31 21:36:30.6	354.810	-0.620	0.590	-1.220
2020/01/31 21:36:30.7	354.810	-0.620	0.600	-1.190
2020/01/31 21:36:30.8	354.810	-0.610	0.600	-1.160
2020/01/31 21:36:30.9	354.810	-0.600	0.600	-1.120
2020/01/31 21:36:31.0	354.800	-0.590	0.590	-1.080
2020/01/31 21:36:31.1	354.790	-0.570	0.580	-1.030
2020/01/31 21:36:31.2	354.780	-0.550	0.560	-0.980
2020/01/31 21:36:31.3	354.770	-0.520	0.540	-0.930
2020/01/31 21:36:31.4	354.760	-0.490	0.510	-0.870
2020/01/31 21:36:31.5	354.750	-0.460	0.480	-0.810
2020/01/31 21:36:31.6	354.730	-0.420	0.450	-0.750
2020/01/31 21:36:31.7	354.720	-0.380	0.410	-0.680
2020/01/31 21:36:31.8	354.700	-0.340	0.370	-0.610
2020/01/31 21:36:31.9	354.680	-0.300	0.340	-0.540
2020/01/31 21:36:32.0	354.660	-0.260	0.300	-0.470
2020/01/31 21:36:32.1	354.640	-0.220	0.250	-0.390
2020/01/31 21:36:32.2	354.620	-0.170	0.210	-0.310
2020/01/31 21:36:32.3	354.600	-0.130	0.170	-0.240
2020/01/31 21:36:32.4	354.570	-0.080	0.130	-0.160
2020/01/31 21:36:32.5	354.540	-0.040	0.090	-0.080
2020/01/31 21:36:32.6	354.520	-0.000	0.060	-0.010
2020/01/31 21:36:32.7	354.490	0.040	0.020	0.070
2020/01/31 21:36:32.8	354.460	0.080	-0.010	0.150
2020/01/31 21:36:32.9	354.410	0.120	-0.040	0.220
2020/01/31 21:36:33.0	354.370	0.150	-0.070	0.290
2020/01/31 21:36:33.1	354.340	0.180	-0.100	0.360
2020/01/31 21:36:33.2	354.310	0.210	-0.120	0.420
2020/01/31 21:36:33.3	354.270	0.240	-0.150	0.480
2020/01/31 21:36:33.4	354.240	0.260	-0.170	0.540
2020/01/31 21:36:33.5	354.210	0.290	-0.190	0.600
2020/01/31 21:36:33.6	354.180	0.300	-0.210	0.650
2020/01/31 21:36:33.7	354.150	0.320	-0.230	0.690
2020/01/31 21:36:33.8	354.120	0.330	-0.240	0.730
2020/01/31 21:36:33.9	354.080	0.340	-0.260	0.760
2020/01/31 21:36:34.0	354.060	0.350	-0.280	0.790
2020/01/31 21:36:34.1	354.030	0.350	-0.290	0.810
2020/01/31 21:36:34.2	354.010	0.350	-0.310	0.830
2020/01/31 21:36:34.3	353.990	0.340	-0.330	0.840
2020/01/31 21:36:34.4	353.970	0.340	-0.350	0.840
2020/01/31 21:36:34.5	353.950	0.330	-0.360	0.840
2020/01/31 21:36:34.6	353.940	0.320	-0.380	0.840
2020/01/31 21:36:34.7	353.930	0.300	-0.400	0.830
2020/01/31 21:36:34.8	353.920	0.290	-0.420	0.810
2020/01/31 21:36:34.9	353.900	0.270	-0.440	0.790
2020/01/31 21:36:35.0	353.890	0.250	-0.470	0.770
2020/01/31 21:36:35.1	353.880	0.230	-0.490	0.740
2020/01/31 21:36:35.2	353.880	0.200	-0.510	0.710
2020/01/31 21:36:35.3	353.880	0.180	-0.540	0.670
2020/01/31 21:36:35.4	353.880	0.160	-0.560	0.630
2020/01/31 21:36:35.5	353.880	0.130	-0.590	0.580
2020/01/31 21:36:35.6	353.880	0.100	-0.620	0.540
2020/01/31 21:36:35.7	353.880	0.080	-0.640	0.480
2020/01/31 21:36:35.8	353.880	0.050	-0.670	0.430
2020/01/31 21:36:35.9	353.890	0.030	-0.690	0.370
2020/01/31 21:36:36.0	353.890	0.000	-0.720	0.310
2020/01/31 21:36:36.1	353.900	-0.020	-0.740	0.250
2020/01/31 21:36:36.2	353.910	-0.040	-0.760	0.190
2020/01/31 21:36:36.3	353.910	-0.070	-0.780	0.120
2020/01/31 21:36:36.4	353.920	-0.090	-0.790	0.060
2020/01/31 21:36:36.5	353.930	-0.110	-0.810	-0.010
2020/01/31 21:36:36.6	353.940	-0.130	-0.820	-0.070
2020/01/31 21:36:36.7	353.960	-0.150	-0.830	-0.140
2020/01/31 21:36:36.8	353.970	-0.160	-0.830	-0.200
2020/01/31 21:36:36.9	353.990	-0.180	-0.840	-0.270
2020/01/31 21:36:37.0	354.010	-0.190	-0.840	-0.330
2020/01/31 21:36:37.1	354.020	-0.200	-0.840	-0.390
2020/01/31 21:36:37.2	354.040	-0.210	-0.830	-0.460
2020/01/31 21:36:37.3	354.060	-0.220	-0.820	-0.520
2020/01/31 21:36:37.4	354.080	-0.230	-0.810	-0.580
2020/01/31 21:36:37.5	354.110	-0.240	-0.800	-0.630
2020/01/31 21:36:37.6	354.130	-0.240	-0.790	-0.690
2020/01/31 21:36:37.7	354.150	-0.250	-0.770	-0.740
2020/01/31 21:36:37.8	354.170	-0.250	-0.750	-0.790
2020/01/31 21:36:37.9	354.210	-0.260	-0.720	-0.840
2020/01/31 21:36:38.0	354.230	-0.260	-0.700	-0.880
2020/01/31 21:36:38.1	354.250	-0.260	-0.670	-0.920
2020/01/31 21:36:38.2	354.270	-0.260	-0.640	-0.950
2020/01/31 21:36:38.3	354.290	-0.260	-0.610	-0.980
2020/01/31 21:36:38.4	354.310	-0.260	-0.580	-1.010
2020/01/31 21:36:38.5	354.330	-0.260	-0.540	-1.030
2020/01/31 21:36:38.6	354.350	-0.250	-0.510	-1.050
2020/01/31 21:36:38.7	354.370	-0.250	-0.480	-1.060
2020/01/31 21:36:38.8	354.390	-0.240	-0.440	-1.070
2020/01/31 21:36:38.9	354.400	-0.230	-0.400	-1.080
2020/01/31 21:36:39.0	354.410	-0.220	-0.370	-1.070
2020/01/31 21:36:39.1	354.430	-0.210	-0.330	-1.070
2020/01/31 21:36:39.2	354.440	-0.200	-0.300	-1.060
2020/01/31 21:36:39.3	354.460	-0.180	-0.260	-1.040
2020/01/31 21:36:39.4	354.470	-0.170	-0.230	-1.020
2020/01/31 21:36:39.5	354.480	-0.150	-0.190	-0.990
2020/01/31 21:36:39.6	354.490	-0.130	-0.160	-0.960
2020/01/31 21:36:39.7	354.500	-0.110	-0.120	-0.920
2020/01/31 21:36:39.8	354.500	-0.080	-0.090	-0.880
2020/01/31 21:36:39.9	354.520	-0.060	-0.060	-0.820
2020/01/31 21:36:40.0	354.520	-0.030	-0.030	-0.770
2020/01/31 21:36:40.1	354.520	-0.000	0.010	-0.710
2020/01/31 21:36:40.2	354.510	0.020	0.040	-0.650
2020/01/31 21:36:40.3	354.500	0.050	0.070	-0.580
2020/01/31 21:36:40.4	354.490	0.080	0.090	-0.510
2020/01/31 21:36:40.5	354.480	0.110	0.120	-0.430
2020/01/31 21:36:40.6	354.460	0.150	0.150	-0.350
2020/01/31 21:36:40.7	354.440	0.180	0.170	-0.270
2020/01/31 21:36:40.8	354.420	0.210	0.200	-0.190
2020/01/31 21:36:40.9	354.390	0.240	0.220	-0.100
2020/01/31 21:36:41.0	354.360	0.270	0.240	-0.020
2020/01/31 21:36:41.1	354.330	0.300	0.260	0.070
2020/01/31 21:36:41.2	354.300	0.330	0.270	0.150
2020/01/31 21:36:41.3	354.270	0.360	0.280	0.230
2020/01/31 21:36:41.4	354.240	0.380	0.300	0.310
2020/01/31 21:36:41.5	354.200	0.410	0.300	0.390
2020/01/31 21:36:41.6	354.170	0.430	0.310	0.470
2020/01/31 21:36:41.7	354.130	0.450	0.310	0.540
2020/01/31 21:36:41.8	354.100	0.470	0.310	0.610
2020/01/31 21:36:41.9	354.040	0.480	0.310	0.670
2020/01/31 21:36:42.0	354.010	0.490	0.300	0.730
2020/01/31 21:36:42.1	353.970	0.500	0.290	0.790
2020/01/31 21:36:42.2	353.940	0.510	0.280	0.840
2020/01/31 21:36:42.3	353.900	0.520	0.270	0.880
2020/01/31 21:36:42.4	353.870	0.520	0.250	0.920
2020/01/31 21:36:42.5	353.840	0.510	0.240	0.960
2020/01/31 21:36:42.6	353.800	0.510	0.220	0.980
2020/01/31 21:36:42.7	353.770	0.500	0.200	1.000
2020/01/31 21:36:42.8	353.740	0.490	0.180	1.010
2020/01/31 21:36:42.9	353.710	0.470	0.150	1.020
2020/01/31 21:36:43.0	353.680	0.450	0.130	1.010
2020/01/31 21:36:43.1	353.660	0.430	0.100	1.000
2020/01/31 21:36:43.2	353.630	0.400	0.080	0.990
2020/01/31 21:36:43.3	353.610	0.380	0.050	0.960
2020/01/31 21:36:43.4	353.590	0.350	0.020	0.930
2020/01/31 21:36:43.5	353.570	0.320	-0.010	0.890
2020/01/31 21:36:43.6	353.560	0.280	-0.040	0.850
2020/01/31 21:36:43.7	353.550	0.250	-0.070	0.800
2020/01/31 21:36:43.8	353.540	0.210	-0.100	0.750
2020/01/31 21:36:43.9	353.530	0.170	-0.130	0.680
2020/01/31 21:36:44.0	353.530	0.130	-0.160	0.620
2020/01/31 21:36:44.1	353.530	0.090	-0.190	0.550
2020/01/31 21:36:44.2	353.530	0.050	-0.220	0.480
2020/01/31 21:36:44.3	353.540	0.010	-0.250	0.410
2020/01/31 21:36:44.4	353.540	-0.030	-0.280	0.330
2020/01/31 21:36:44.5	353.550	-0.070	-0.310	0.250
2020/01/31 21:36:44.6	353.570	-0.110	-0.340	0.170
2020/01/31 21:36:44.7	353.590	-0.150	-0.370	0.090
2020/01/31 21:36:44.8	353.600	-0.180	-0.400	0.000
2020/01/31 21:36:44.9	353.630	-0.220	-0.420	-0.080
2020/01/31 21:36:45.0	353.650	-0.250	-0.450	-0.170
2020/01/31 21:36:45.1	353.680	-0.280	-0.470	-0.250
2020/01/31 21:36:45.2	353.700	-0.310	-0.500	-0.340
2020/01/31 21:36:45.3	353.730	-0.330	-0.520	-0.420
2020/01/31 21:36:45.4	353.750	-0.350	-0.540	-0.490
2020/01/31 21:36:45.5	353.780	-0.370	-0.570	-0.570
2020/01/31 21:36:45.6	353.800	-0.390	-0.580	-0.640
2020/01/31 21:36:45.7	353.830	-0.400	-0.600	-0.710
2020/01/31 21:36:45.8	353.850	-0.410	-0.620	-0.770
2020/01/31 21:36:45.9	353.880	-0.420	-0.630	-0.830
2020/01/31 21:36:46.0	353.900	-0.420	-0.650	-0.880
2020/01/31 21:36:46.1	353.920	-0.420	-0.660	-0.920
2020/01/31 21:36:46.2	353.940	-0.410	-0.670	-0.960
2020/01/31 21:36:46.3	353.960	-0.400	-0.680	-1.000
2020/01/31 21:36:46.4	353.980	-0.390	-0.680	-1.030
2020/01/31 21:36:46.5	353.990	-0.380	-0.690	-1.050
2020/01/31 21:36:46.6	354.010	-0.360	-0.690	-1.060
2020/01/31 21:36:46.7	354.030	-0.340	-0.690	-1.080
2020/01/31 21:36:46.8	354.040	-0.320	-0.690	-1.080
2020/01/31 21:36:46.9	354.060	-0.290	-0.690	-1.080
2020/01/31 21:36:47.0	354.070	-0.260	-0.690	-1.080
2020/01/31 21:36:47.1	354.090	-0.230	-0.690	-1.070
2020/01/31 21:36:47.2	354.100	-0.200	-0.690	-1.060
2020/01/31 21:36:47.3	354.120	-0.170	-0.680	-1.040
2020/01/31 21:36:47.4	354.130	-0.130	-0.670	-1.020
2020/01/31 21:36:47.5	354.140	-0.100	-0.670	-1.000
2020/01/31 21:36:47.6	354.160	-0.060	-0.660	-0.970
2020/01/31 21:36:47.7	354.170	-0.020	-0.650	-0.940
2020/01/31 21:36:47.8	354.180	0.010	-0.640	-0.900
2020/01/31 21:36:47.9	354.210	0.050	-0.620	-0.860
2020/01/31 21:36:48.0	354.220	0.090	-0.610	-0.820
2020/01/31 21:36:48.1	354.230	0.120	-0.590	-0.780
2020/01/31 21:36:48.2	354.240	0.150	-0.580	-0.730
2020/01/31 21:36:48.3	354.240	0.190	-0.560	-0.690
2020/01/31 21:36:48.4	354.250	0.220	-0.540	-0.630
2020/01/31 21:36:48.5	354.260	0.240	-0.510	-0.580
2020/01/31 21:36:48.6	354.260	0.270	-0.490	-0.520
2020/01/31 21:36:48.7	354.260	0.290	-0.460	-0.470
2020/01/31 21:36:48.8	354.260	0.310	-0.430	-0.410
2020/01/31 21:36:48.9	354.260	0.320	-0.400	-0.340
2020/01/31 21:36:49.0	354.260	0.330	-0.370	-0.280
2020/01/31 21:36:49.1	354.250	0.340	-0.330	-0.220
2020/01/31 21:36:49.2	354.240	0.340	-0.290	-0.160
2020/01/31 21:36:49.3	354.230	0.340	-0.250	-0.100
2020/01/31 21:36:49.4	354.220	0.330	-0.210	-0.040
2020/01/31 21:36:49.5	354.200	0.320	-0.170	0.020
2020/01/31 21:36:49.6	354.190	0.310	-0.130	0.080
2020/01/31 21:36:49.7	354.170	0.290	-0.090	0.140
2020/01/31 21:36:49.8	354.150	0.270	-0.050	0.190
2020/01/31 21:36:49.9	354.100	0.250	-0.010	0.240
2020/01/31 21:36:50.0	354.080	0.220	0.030	0.290
2020/01/31 21:36:50.1	354.060	0.190	0.070	0.330
2020/01/31 21:36:50.2	354.030	0.150	0.110	0.370
2020/01/31 21:36:50.3	354.010	0.120	0.150	0.410
2020/01/31 21:36:50.4	353.980	0.080	0.180	0.440
2020/01/31 21:36:50.5	353.950	0.040	0.210	0.470
2020/01/31 21:36:50.6	353.930	0.000	0.240	0.490
2020/01/31 21:36:50.7	353.900	-0.040	0.260	0.500
2020/01/31 21:36:50.8	353.880	-0.080	0.290	0.510
2020/01/31 21:36:50.9	353.860	-0.120	0.310	0.510
2020/01/31 21:36:51.0	353.840	-0.160	0.320	0.510
2020/01/31 21:36:51.1	353.810	-0.200	0.330	0.510
2020/01/31 21:36:51.2	353.790	-0.230	0.330	0.500
2020/01/31 21:36:51.3	353.770	-0.270	0.340	0.490
2020/01/31 21:36:51.4	353.750	-0.300	0.330	0.470
2020/01/31 21:36:51.5	353.730	-0.330	0.320	0.450
2020/01/31 21:36:51.6	353.720	-0.350	0.310	0.430
2020/01/31 21:36:51.7	353.700	-0.380	0.290	0.400
2020/01/31 21:36:51.8	353.690	-0.390	0.260	0.370
2020/01/31 21:36:51.9	353.670	-0.410	0.230	0.340
2020/01/31 21:36:52.0	353.660	-0.410	0.200	0.310
2020/01/31 21:36:52.1	353.650	-0.420	0.150	0.280
2020/01/31 21:36:52.2	353.640	-0.420	0.110	0.240
2020/01/31 21:36:52.3	353.640	-0.410	0.060	0.210
2020/01/31 21:36:52.4	353.630	-0.400	0.010	0.170
2020/01/31 21:36:52.5	353.620	-0.390	-0.050	0.130
2020/01/31 21:36:52.6	353.620	-0.370	-0.110	0.090
2020/01/31 21:36:52.7	353.620	-0.350	-0.170	0.050
2020/01/31 21:36:52.8	353.620	-0.320	-0.240	0.010
2020/01/31 21:36:52.9	353.620	-0.290	-0.310	-0.030
2020/01/31 21:36:53.0	353.630	-0.260	-0.370	-0.070
2020/01/31 21:36:53.1	353.630	-0.220	-0.440	-0.120
2020/01/31 21:36:53.2	353.640	-0.180	-0.510	-0.160
2020/01/31 21:36:53.3	353.650	-0.130	-0.580	-0.200
2020/01/31 21:36:53.4	353.660	-0.090	-0.650	-0.250
2020/01/31 21:36:53.5	353.670	-0.040	-0.710	-0.290
2020/01/31 21:36:53.6	353.680	0.010	-0.770	-0.330
2020/01/31 21:36:53.7	353.700	0.060	-0.830	-0.370
2020/01/31 21:36:53.8	353.720	0.110	-0.880	-0.410
2020/01/31 21:36:53.9	353.740	0.160	-0.930	-0.450
2020/01/31 21:36:54.0	353.760	0.210	-0.980	-0.490
2020/01/31 21:36:54.1	353.790	0.260	-1.010	-0.530
2020/01/31 21:36:54.2	353.820	0.310	-1.040	-0.560
2020/01/31 21:36:54.3	353.840	0.350	-1.070	-0.590
2020/01/31 21:36:54.4	353.870	0.400	-1.080	-0.620
2020/01/31 21:36:54.5	353.900	0.440	-1.090	-0.650
2020/01/31 21:36:54.6	353.930	0.480	-1.090	-0.670
2020/01/31 21:36:54.7	353.960	0.510	-1.080	-0.690
2020/01/31 21:36:54.8	353.990	0.540	-1.070	-0.700
2020/01/31 21:36:54.9	354.020	0.560	-1.040	-0.710
2020/01/31 21:36:55.0	354.050	0.580	-1.010	-0.720
2020/01/31 21:36:55.1	354.080	0.600	-0.960	-0.720
2020/01/31 21:36:55.2	354.100	0.610	-0.910	-0.710
2020/01/31 21:36:55.3	354.120	0.610	-0.850	-0.700
2020/01/31 21:36:55.4	354.140	0.610	-0.790	-0.690
2020/01/31 21:36:55.5	354.150	0.600	-0.710	-0.670
2020/01/31 21:36:55.6	354.170	0.590	-0.630	-0.640
2020/01/31 21:36:55.7	354.180	0.570	-0.550	-0.620
2020/01/31 21:36:55.8	354.190	0.550	-0.460	-0.590
2020/01/31 21:36:55.9	354.190	0.520	-0.370	-0.550
2020/01/31 21:36:56.0	354.190	0.480	-0.270	-0.510
2020/01/31 21:36:56.1	354.190	0.440	-0.180	-0.470
2020/01/31 21:36:56.2	354.190	0.400	-0.080	-0.430
2020/01/31 21:36:56.3	354.190	0.350	0.020	-0.390
2020/01/31 21:36:56.4	354.180	0.300	0.110	-0.350
2020/01/31 21:36:56.5	354.180	0.240	0.200	-0.300
2020/01/31 21:36:56.6	354.170	0.180	0.290	-0.260
2020/01/31 21:36:56.7	354.160	0.120	0.380	-0.210
2020/01/31 21:36:56.8	354.150	0.060	0.460	-0.170
2020/01/31 21:36:56.9	354.150	-0.000	0.530	-0.120
2020/01/31 21:36:57.0	354.130	-0.070	0.600	-0.080
2020/01/31 21:36:57.1	354.120	-0.130	0.660	-0.040
2020/01/31 21:36:57.2	354.100	-0.190	0.720	-0.000
2020/01/31 21:36:57.3	354.090	-0.260	0.770	0.030
2020/01/31 21:36:57.4	354.070	-0.320	0.810	0.070
2020/01/31 21:36:57.5	354.060	-0.370	0.840	0.100
2020/01/31 21:36:57.6	354.040	-0.430	0.860	0.130
2020/01/31 21:36:57.7	354.020	-0.480	0.880	0.160
2020/01/31 21:36:57.8	354.000	-0.530	0.880	0.180
2020/01/31 21:36:57.9	353.970	-0.570	0.880	0.200
2020/01/31 21:36:58.0	353.950	-0.610	0.870	0.230
2020/01/31 21:36:58.1	353.930	-0.640	0.850	0.250
2020/01/31 21:36:58.2	353.910	-0.670	0.830	0.270
2020/01/31 21:36:58.3	353.890	-0.690	0.800	0.280
2020/01/31 21:36:58.4	353.870	-0.710	0.760	0.300
2020/01/31 21:36:58.5	353.850	-0.720	0.710	0.310
2020/01/31 21:36:58.6	353.830	-0.720	0.660	0.330
2020/01/31 21:36:58.7	353.810	-0.720	0.600	0.340
2020/01/31 21:36:58.8	353.790	-0.720	0.540	0.350
2020/01/31 21:36:58.9	353.770	-0.710	0.470	0.370
2020/01/31 21:36:59.0	353.750	-0.690	0.400	0.380
2020/01/31 21:36:59.1	353.730	-0.670	0.320	0.380
2020/01/31 21:36:59.2	353.710	-0.640	0.240	0.390
2020/01/31 21:36:59.3	353.690	-0.610	0.150	0.390
2020/01/31 21:36:59.4	353.670	-0.570	0.060	0.390
2020/01/31 21:36:59.5	353.650	-0.530	-0.030	0.390
2020/01/31 21:36:59.6	353.630	-0.480	-0.120	0.380
2020/01/31 21:36:59.7	353.610	-0.430	-0.220	0.380
2020/01/31 21:36:59.8	353.590	-0.380	-0.310	0.370
2020/01/31 21:36:59.9	353.570	-0.320	-0.410	0.360
2020/01/31 21:37:00.0	353.560	-0.270	-0.510	0.350
2020/01/31 21:37:00.1	353.540	-0.210	-0.600	0.330
2020/01/31 21:37:00.2	353.530	-0.140	-0.690	0.320
2020/01/31 21:37:00.3	353.510	-0.080	-0.790	0.300
2020/01/31 21:37:00.4	353.500	-0.020	-0.870	0.280
2020/01/31 21:37:00.5	353.490	0.050	-0.960	0.260
2020/01/31 21:37:00.6	353.480	0.110	-1.040	0.240
2020/01/31 21:37:00.7	353.480	0.170	-1.110	0.220
2020/01/31 21:37:00.8	353.470	0.240	-1.180	0.200
2020/01/31 21:37:00.9	353.460	0.300	-1.250	0.170
2020/01/31 21:37:01.0	353.460	0.360	-1.310	0.150
2020/01/31 21:37:01.1	353.470	0.410	-1.360	0.120
2020/01/31 21:37:01.2	353.470	0.470	-1.410	0.100
2020/01/31 21:37:01.3	353.480	0.520	-1.450	0.070
2020/01/31 21:37:01.4	353.490	0.570	-1.480	0.040
2020/01/31 21:37:01.5	353.500	0.620	-1.500	0.020
2020/01/31 21:37:01.6	353.510	0.660	-1.520	-0.010
2020/01/31 21:37:01.7	353.530	0.700	-1.530	-0.040
2020/01/31 21:37:01.8	353.550	0.730	-1.530	-0.070
2020/01/31 21:37:01.9	353.570	0.760	-1.530	-0.100
2020/01/31 21:37:02.0	353.600	0.780	-1.520	-0.120
2020/01/31 21:37:02.1	353.630	0.800	-1.500	-0.150
2020/01/31 21:37:02.2	353.660	0.820	-1.470	-0.180
2020/01/31 21:37:02.3	353.690	0.830	-1.440	-0.210
2020/01/31 21:37:02.4	353.720	0.830	-1.400	-0.240
2020/01/31 21:37:02.5	353.760	0.830	-1.360	-0.270
2020/01/31 21:37:02.6	353.790	0.830	-1.300	-0.300
2020/01/31 21:37:02.7	353.830	0.820	-1.250	-0.330
2020/01/31 21:37:02.8	353.870	0.800	-1.180	-0.360
2020/01/31 21:37:02.9	353.910	0.780	-1.120	-0.390
2020/01/31 21:37:03.0	353.950	0.750	-1.050	-0.410
2020/01/31 21:37:03.1	353.990	0.720	-0.970	-0.440
2020/01/31 21:37:03.2	354.030	0.690	-0.890	-0.460
2020/01/31 21:37:03.3	354.070	0.650	-0.800	-0.490
2020/01/31 21:37:03.4	354.110	0.600	-0.710	-0.510
2020/01/31 21:37:03.5	354.150	0.560	-0.620	-0.530
2020/01/31 21:37:03.6	354.190	0.500	-0.520	-0.550
2020/01/31 21:37:03.7	354.230	0.450	-0.420	-0.560
2020/01/31 21:37:03.8	354.260	0.390	-0.320	-0.570
2020/01/31 21:37:03.9	354.280	0.330	-0.220	-0.580
2020/01/31 21:37:04.0	354.310	0.270	-0.120	-0.590
2020/01/31 21:37:04.1	354.340	0.210	-0.010	-0.590
2020/01/31 21:37:04.2	354.370	0.150	0.090	-0.590
2020/01/31 21:37:04.3	354.390	0.080	0.190	-0.580
2020/01/31 21:37:04.4	354.410	0.010	0.300	-0.580
2020/01/31 21:37:04.5	354.420	-0.050	0.400	-0.570
2020/01/31 21:37:04.6	354.430	-0.120	0.500	-0.550
2020/01/31 21:37:04.7	354.440	-0.180	0.590	-0.530
2020/01/31 21:37:04.8	354.440	-0.250	0.680	-0.510
2020/01/31 21:37:04.9	354.440	-0.310	0.770	-0.490
2020/01/31 21:37:05.0	354.430	-0.370	0.860	-0.460
2020/01/31 21:37:05.1	354.420	-0.430	0.940	-0.430
2020/01/31 21:37:05.2	354.400	-0.490	1.010	-0.400
2020/01/31 21:37:05.3	354.380	-0.550	1.070	-0.370
2020/01/31 21:37:05.4	354.350	-0.600	1.130	-0.330
2020/01/31 21:37:05.5	354.320	-0.650	1.180	-0.300
2020/01/31 21:37:05.6	354.290	-0.700	1.220	-0.260
2020/01/31 21:37:05.7	354.250	-0.740	1.250	-0.230
2020/01/31 21:37:05.8	354.210	-0.780	1.270	-0.190
2020/01/31 21:37:05.9	354.160	-0.810	1.290	-0.150
2020/01/31 21:37:06.0	354.120	-0.840	1.290	-0.120
2020/01/31 21:37:06.1	354.070	-0.870	1.280	-0.090
2020/01/31 21:37:06.2	354.020	-0.890	1.270	-0.060
2020/01/31 21:37:06.3	353.970	-0.900	1.240	-0.030
2020/01/31 21:37:06.4	353.920	-0.910	1.200	0.000
2020/01/31 21:37:06.5	353.870	-0.910	1.150	0.030
2020/01/31 21:37:06.6	353.820	-0.910	1.100	0.050
2020/01/31 21:37:06.7	353.770	-0.900	1.030	0.080
2020/01/31 21:37:06.8	353.720	-0.890	0.960	0.100
2020/01/31 21:37:06.9	353.660	-0.870	0.880	0.120
2020/01/31 21:37:07.0	353.620	-0.850	0.790	0.130
2020/01/31 21:37:07.1	353.580	-0.820	0.690	0.150
2020/01/31 21:37:07.2	353.540	-0.780	0.590	0.160
2020/01/31 21:37:07.3	353.500	-0.740	0.480	0.170
2020/01/31 21:37:07.4	353.460	-0.700	0.370	0.180
2020/01/31 21:37:07.5	353.430	-0.650	0.250	0.190
2020/01/31 21:37:07.6	353.400	-0.600	0.130	0.200
2020/01/31 21:37:07.7	353.380	-0.540	0.010	0.210
2020/01/31 21:37:07.8	353.360	-0.480	-0.110	0.210
2020/01/31 21:37:07.9	353.350	-0.410	-0.220	0.220
2020/01/31 21:37:08.0	353.340	-0.350	-0.340	0.220
2020/01/31 21:37:08.1	353.330	-0.280	-0.450	0.220
2020/01/31 21:37:08.2	353.320	-0.210	-0.560	0.220
2020/01/31 21:37:08.3	353.310	-0.130	-0.670	0.220
2020/01/31 21:37:08.4	353.310	-0.060	-0.760	0.220
2020/01/31 21:37:08.5	353.300	0.010	-0.860	0.220
2020/01/31 21:37:08.6	353.310	0.080	-0.940	0.220
2020/01/31 21:37:08.7	353.310	0.160	-1.020	0.220
2020/01/31 21:37:08.8	353.320	0.230	-1.090	0.210
2020/01/31 21:37:08.9	353.350	0.290	-1.160	0.210
2020/01/31 21:37:09.0	353.360	0.360	-1.210	0.210
2020/01/31 21:37:09.1	353.380	0.420	-1.260	0.210
2020/01/31 21:37:09.2	353.390	0.480	-1.300	0.200
2020/01/31 21:37:09.3	353.410	0.540	-1.320	0.200
2020/01/31 21:37:09.4	353.440	0.590	-1.340	0.200
2020/01/31 21:37:09.5	353.460	0.640	-1.360	0.190
2020/01/31 21:37:09.6	353.490	0.680	-1.360	0.190
2020/01/31 21:37:09.7	353.520	0.720	-1.360	0.190
2020/01/31 21:37:09.8	353.550	0.750	-1.340	0.190
2020/01/31 21:37:09.9	353.560	0.780	-1.330	0.190
2020/01/31 21:37:10.0	353.590	0.810	-1.300	0.190
2020/01/31 21:37:10.1	353.630	0.820	-1.270	0.190
2020/01/31 21:37:10.2	353.660	0.840	-1.230	0.190
2020/01/31 21:37:10.3	353.700	0.840	-1.180	0.190
2020/01/31 21:37:10.4	353.730	0.840	-1.130	0.190
2020/01/31 21:37:10.5	353.760	0.840	-1.080	0.190
2020/01/31 21:37:10.6	353.800	0.830	-1.020	0.190
2020/01/31 21:37:10.7	353.830	0.810	-0.960	0.190
2020/01/31 21:37:10.8	353.860	0.790	-0.900	0.190
2020/01/31 21:37:10.9	353.900	0.760	-0.840	0.190
2020/01/31 21:37:11.0	353.930	0.730	-0.770	0.190
2020/01/31 21:37:11.1	353.950	0.700	-0.700	0.180
2020/01/31 21:37:11.2	353.980	0.660	-0.640	0.180
2020/01/31 21:37:11.3	354.000	0.610	-0.570	0.180
2020/01/31 21:37:11.4	354.010	0.560	-0.500	0.170
2020/01/31 21:37:11.5	354.020	0.510	-0.440	0.170
2020/01/31 21:37:11.6	354.030	0.460	-0.370	0.160
2020/01/31 21:37:11.7	354.040	0.400	-0.310	0.160
2020/01/31 21:37:11.8	354.040	0.350	-0.250	0.160
2020/01/31 21:37:11.9	354.040	0.290	-0.190	0.160
2020/01/31 21:37:12.0	354.030	0.230	-0.140	0.150
2020/01/31 21:37:12.1	354.020	0.170	-0.090	0.150
2020/01/31 21:37:12.2	354.010	0.110	-0.040	0.150
2020/01/31 21:37:12.3	354.000	0.050	0.010	0.140
2020/01/31 21:37:12.4	353.980	-0.010	0.040	0.130
2020/01/31 21:37:12.5	353.960	-0.070	0.080	0.120
2020/01/31 21:37:12.6	353.940	-0.120	0.110	0.110
2020/01/31 21:37:12.7	353.920	-0.180	0.130	0.100
2020/01/31 21:37:12.8	353.900	-0.230	0.150	0.080
2020/01/31 21:37:12.9	353.860	-0.270	0.160	0.060
2020/01/31 21:37:13.0	353.840	-0.320	0.170	0.040
2020/01/31 21:37:13.1	353.820	-0.360	0.170	0.010
2020/01/31 21:37:13.2	353.810	-0.390	0.170	-0.010
2020/01/31 21:37:13.3	353.790	-0.420	0.160	-0.040
2020/01/31 21:37:13.4	353.770	-0.450	0.150	-0.080
2020/01/31 21:37:13.5	353.760	-0.470	0.130	-0.110
2020/01/31 21:37:13.6	353.740	-0.490	0.110	-0.150
2020/01/31 21:37:13.7	353.730	-0.500	0.080	-0.190
2020/01/31 21:37:13.8	353.720	-0.500	0.050	-0.230
2020/01/31 21:37:13.9	353.720	-0.500	0.020	-0.270
2020/01/31 21:37:14.0	353.710	-0.490	-0.020	-0.310
2020/01/31 21:37:14.1	353.710	-0.480	-0.050	-0.350
2020/01/31 21:37:14.2	353.710	-0.460	-0.090	-0.390
2020/01/31 21:37:14.3	353.710	-0.440	-0.130	-0.430
2020/01/31 21:37:14.4	353.720	-0.410	-0.180	-0.470
2020/01/31 21:37:14.5	353.720	-0.380	-0.220	-0.510
2020/01/31 21:37:14.6	353.730	-0.340	-0.260	-0.540
2020/01/31 21:37:14.7	353.740	-0.300	-0.300	-0.570
2020/01/31 21:37:14.8	353.750	-0.260	-0.340	-0.600
2020/01/31 21:37:14.9	353.760	-0.210	-0.380	-0.630
2020/01/31 21:37:15.0	353.770	-0.160	-0.410	-0.650
2020/01/31 21:37:15.1	353.780	-0.110	-0.440	-0.670
2020/01/31 21:37:15.2	353.790	-0.060	-0.470	-0.690
2020/01/31 21:37:15.3	353.810	-0.010	-0.500	-0.700
2020/01/31 21:37:15.4	353.820	0.040	-0.520	-0.710
2020/01/31 21:37:15.5	353.820	0.100	-0.530	-0.710
2020/01/31 21:37:15.6	353.830	0.140	-0.550	-0.710
2020/01/31 21:37:15.7	353.840	0.190	-0.550	-0.710
2020/01/31 21:37:15.8	353.850	0.240	-0.560	-0.700
2020/01/31 21:37:15.9	353.870	0.280	-0.560	-0.690
2020/01/31 21:37:16.0	353.870	0.310	-0.550	-0.680
2020/01/31 21:37:16.1	353.880	0.350	-0.540	-0.660
2020/01/31 21:37:16.2	353.880	0.380	-0.530	-0.650
2020/01/31 21:37:16.3	353.880	0.400	-0.510	-0.630
2020/01/31 21:37:16.4	353.880	0.420	-0.490	-0.600
2020/01/31 21:37:16.5	353.880	0.440	-0.460	-0.580
2020/01/31 21:37:16.6	353.890	0.450	-0.430	-0.560
2020/01/31 21:37:16.7	353.890	0.450	-0.400	-0.530
2020/01/31 21:37:16.8	353.890	0.450	-0.370	-0.510
2020/01/31 21:37:16.9	353.890	0.450	-0.340	-0.470
2020/01/31 21:37:17.0	353.890	0.440	-0.300	-0.450
2020/01/31 21:37:17.1	353.900	0.420	-0.260	-0.420
2020/01/31 21:37:17.2	353.900	0.410	-0.220	-0.390
2020/01/31 21:37:17.3	353.900	0.380	-0.180	-0.360
2020/01/31 21:37:17.4	353.900	0.360	-0.140	-0.330
2020/01/31 21:37:17.5	353.900	0.320	-0.100	-0.310
2020/01/31 21:37:17.6	353.900	0.290	-0.060	-0.280
2020/01/31 21:37:17.7	353.900	0.250	-0.020	-0.250
2020/01/31 21:37:17.8	353.900	0.210	0.010	-0.220
2020/01/31 21:37:17.9	353.890	0.170	0.050	-0.190
2020/01/31 21:37:18.0	353.890	0.130	0.090	-0.170
2020/01/31 21:37:18.1	353.880	0.080	0.120	-0.140
2020/01/31 21:37:18.2	353.880	0.040	0.160	-0.110
2020/01/31 21:37:18.3	353.880	-0.010	0.200	-0.090
2020/01/31 21:37:18.4	353.870	-0.060	0.230	-0.060
2020/01/31 21:37:18.5	353.860	-0.110	0.260	-0.040
2020/01/31 21:37:18.6	353.850	-0.150	0.290	-0.010
2020/01/31 21:37:18.7	353.840	-0.200	0.330	0.010
2020/01/31 21:37:18.8	353.830	-0.240	0.350	0.040
2020/01/31 21:37:18.9	353.820	-0.290	0.380	0.070
2020/01/31 21:37:19.0	353.800	-0.330	0.410	0.090
2020/01/31 21:37:19.1	353.780	-0.360	0.440	0.110
2020/01/31 21:37:19.2	353.760	-0.400	0.460	0.130
2020/01/31 21:37:19.3	353.740	-0.430	0.480	0.150
2020/01/31 21:37:19.4	353.720	-0.460	0.500	0.170
2020/01/31 21:37:19.5	353.700	-0.490	0.510	0.190
2020/01/31 21:37:19.6	353.670	-0.510	0.530	0.210
2020/01/31 21:37:19.7	353.650	-0.530	0.540	0.230
2020/01/31 21:37:19.8	353.620	-0.540	0.540	0.250
2020/01/31 21:37:19.9	353.600	-0.550	0.550	0.260
2020/01/31 21:37:20.0	353.570	-0.560	0.550	0.280
2020/01/31 21:37:20.1	353.540	-0.560	0.540	0.290
2020/01/31 21:37:20.2	353.510	-0.560	0.540	0.300
2020/01/31 21:37:20.3	353.480	-0.550	0.520	0.320
2020/01/31 21:37:20.4	353.440	-0.540	0.510	0.320
2020/01/31 21:37:20.5	353.410	-0.530	0.490	0.330
2020/01/31 21:37:20.6	353.380	-0.510	0.460	0.340
2020/01/31 21:37:20.7	353.340	-0.490	0.430	0.340
2020/01/31 21:37:20.8	353.310	-0.470	0.390	0.350
2020/01/31 21:37:20.9	353.260	-0.450	0.350	0.350
2020/01/31 21:37:21.0	353.220	-0.420	0.300	0.340
2020/01/31 21:37:21.1	353.190	-0.390	0.250	0.340
2020/01/31 21:37:21.2	353.160	-0.350	0.190	0.330
2020/01/31 21:37:21.3	353.130	-0.310	0.130	0.320
2020/01/31 21:37:21.4	353.110	-0.280	0.060	0.300
2020/01/31 21:37:21.5	353.080	-0.230	-0.010	0.290
2020/01/31 21:37:21.6	353.060	-0.190	-0.090	0.270
2020/01/31 21:37:21.7	353.050	-0.150	-0.170	0.240
2020/01/31 21:37:21.8	353.030	-0.100	-0.260	0.220
2020/01/31 21:37:21.9	353.020	-0.060	-0.350	0.180
2020/01/31 21:37:22.0	353.020	-0.010	-0.440	0.150
2020/01/31 21:37:22.1	353.020	0.040	-0.540	0.110
2020/01/31 21:37:22.2	353.020	0.090	-0.630	0.080
2020/01/31 21:37:22.3	353.030	0.140	-0.730	0.030
2020/01/31 21:37:22.4	353.040	0.180	-0.820	-0.010
2020/01/31 21:37:22.5	353.050	0.230	-0.910	-0.050
2020/01/31 21:37:22.6	353.070	0.280	-1.010	-0.100
2020/01/31 21:37:22.7	353.090	0.320	-1.100	-0.150
2020/01/31 21:37:22.8	353.120	0.370	-1.180	-0.200
2020/01/31 21:37:22.9	353.170	0.410	-1.260	-0.250
2020/01/31 21:37:23.0	353.200	0.450	-1.330	-0.300
2020/01/31 21:37:23.1	353.240	0.480	-1.400	-0.350
2020/01/31 21:37:23.2	353.280	0.520	-1.460	-0.390
2020/01/31 21:37:23.3	353.310	0.550	-1.510	-0.440
2020/01/31 21:37:23.4	353.350	0.580	-1.550	-0.480
2020/01/31 21:37:23.5	353.390	0.610	-1.580	-0.520
2020/01/31 21:37:23.6	353.430	0.630	-1.610	-0.560
2020/01/31 21:37:23.7	353.460	0.640	-1.620	-0.590
2020/01/31 21:37:23.8	353.500	0.660	-1.620	-0.620
2020/01/31 21:37:23.9	353.540	0.670	-1.610	-0.650
2020/01/31 21:37:24.0	353.570	0.670	-1.590	-0.670
2020/01/31 21:37:24.1	353.600	0.670	-1.560	-0.690
2020/01/31 21:37:24.2	353.630	0.670	-1.520	-0.700
2020/01/31 21:37:24.3	353.650	0.660	-1.470	-0.720
2020/01/31 21:37:24.4	353.670	0.640	-1.410	-0.730
2020/01/31 21:37:24.5	353.690	0.630	-1.350	-0.730
2020/01/31 21:37:24.6	353.710	0.600	-1.280	-0.730
2020/01/31 21:37:24.7	353.730	0.580	-1.200	-0.730
2020/01/31 21:37:24.8	353.740	0.550	-1.110	-0.730
2020/01/31 21:37:24.9	353.760	0.520	-1.030	-0.720
2020/01/31 21:37:25.0	353.770	0.480	-0.940	-0.720
2020/01/31 21:37:25.1	353.780	0.450	-0.840	-0.710
2020/01/31 21:37:25.2	353.790	0.410	-0.750	-0.700
2020/01/31 21:37:25.3	353.800	0.370	-0.650	-0.690
2020/01/31 21:37:25.4	353.810	0.320	-0.560	-0.670
2020/01/31 21:37:25.5	353.810	0.280	-0.460	-0.660
2020/01/31 21:37:25.6	353.810	0.240	-0.370	-0.650
2020/01/31 21:37:25.7	353.820	0.190	-0.280	-0.630
2020/01/31 21:37:25.8	353.820	0.150	-0.190	-0.620
2020/01/31 21:37:25.9	353.830	0.100	-0.110	-0.600
2020/01/31 21:37:26.0	353.830	0.060	-0.040	-0.590
2020/01/31 21:37:26.1	353.830	0.020	0.040	-0.570
2020/01/31 21:37:26.2	353.830	-0.030	0.110	-0.550
2020/01/31 21:37:26.3	353.830	-0.070	0.180	-0.540
2020/01/31 21:37:26.4	353.820	-0.100	0.240	-0.520
2020/01/31 21:37:26.5	353.820	-0.140	0.290	-0.500
2020/01/31 21:37:26.6	353.810	-0.170	0.340	-0.480
2020/01/31 21:37:26.7	353.810	-0.200	0.390	-0.450
2020/01/31 21:37:26.8	353.800	-0.230	0.430	-0.430
2020/01/31 21:37:26.9	353.780	-0.260	0.470	-0.410
2020/01/31 21:37:27.0	353.770	-0.290	0.510	-0.380
2020/01/31 21:37:27.1	353.760	-0.310	0.530	-0.360
2020/01/31 21:37:27.2	353.740	-0.330	0.560	-0.330
2020/01/31 21:37:27.3	353.720	-0.340	0.580	-0.300
2020/01/31 21:37:27.4	353.700	-0.360	0.590	-0.270
2020/01/31 21:37:27.5	353.680	-0.370	0.600	-0.250
2020/01/31 21:37:27.6	353.660	-0.380	0.610	-0.220
2020/01/31 21:37:27.7	353.640	-0.390	0.610	-0.190
2020/01/31 21:37:27.8	353.610	-0.390	0.610	-0.160
2020/01/31 21:37:27.9	353.600	-0.400	0.610	-0.130
2020/01/31 21:37:28.0	353.570	-0.400	0.600	-0.110
2020/01/31 21:37:28.1	353.550	-0.390	0.580	-0.080
2020/01/31 21:37:28.2	353.520	-0.390	0.570	-0.060
2020/01/31 21:37:28.3	353.490	-0.380	0.540	-0.040
2020/01/31 21:37:28.4	353.470	-0.380	0.520	-0.010
2020/01/31 21:37:28.5	353.440	-0.370	0.490	0.010
2020/01/31 21:37:28.6	353.420	-0.350	0.460	0.030
2020/01/31 21:37:28.7	353.390	-0.340	0.430	0.050
2020/01/31 21:37:28.8	353.370	-0.330	0.390	0.070
2020/01/31 21:37:28.9	353.350	-0.310	0.350	0.080
2020/01/31 21:37:29.0	353.320	-0.290	0.310	0.100
2020/01/31 21:37:29.1	353.300	-0.270	0.270	0.120
2020/01/31 21:37:29.2	353.280	-0.250	0.230	0.130
2020/01/31 21:37:29.3	353.260	-0.230	0.180	0.150
2020/01/31 21:37:29.4	353.240	-0.200	0.130	0.160
2020/01/31 21:37:29.5	353.220	-0.180	0.090	0.180
2020/01/31 21:37:29.6	353.200	-0.160	0.040	0.190
2020/01/31 21:37:29.7	353.180	-0.130	-0.000	0.200
2020/01/31 21:37:29.8	353.160	-0.110	-0.050	0.220
2020/01/31 21:37:29.9	353.140	-0.090	-0.090	0.230
2020/01/31 21:37:30.0	353.120	-0.060	-0.140	0.240
2020/01/31 21:37:30.1	353.100	-0.040	-0.180	0.250
2020/01/31 21:37:30.2	353.080	-0.020	-0.220	0.260
2020/01/31 21:37:30.3	353.060	0.010	-0.260	0.270
2020/01/31 21:37:30.4	353.040	0.030	-0.300	0.280
2020/01/31 21:37:30.5	353.020	0.050	-0.340	0.280
2020/01/31 21:37:30.6	353.010	0.070	-0.370	0.290
2020/01/31 21:37:30.7	352.990	0.090	-0.400	0.290
2020/01/31 21:37:30.8	352.970	0.110	-0.430	0.300
2020/01/31 21:37:30.9	352.950	0.130	-0.450	0.300
2020/01/31 21:37:31.0	352.930	0.140	-0.470	0.310
2020/01/31 21:37:31.1	352.910	0.160	-0.490	0.310
2020/01/31 21:37:31.2	352.900	0.180	-0.500	0.320
2020/01/31 21:37:31.3	352.880	0.190	-0.510	0.320
2020/01/31 21:37:31.4	352.860	0.200	-0.520	0.320
2020/01/31 21:37:31.5	352.850	0.210	-0.520	0.320
2020/01/31 21:37:31.6	352.830	0.220	-0.520	0.320
2020/01/31 21:37:31.7	352.810	0.230	-0.520	0.320
2020/01/31 21:37:31.8	352.800	0.230	-0.510	0.310
2020/01/31 21:37:31.9	352.800	0.230	-0.500	0.310
2020/01/31 21:37:32.0	352.780	0.230	-0.490	0.300
2020/01/31 21:37:32.1	352.770	0.230	-0.470	0.280
2020/01/31 21:37:32.2	352.750	0.220	-0.460	0.270
2020/01/31 21:37:32.3	352.740	0.220	-0.440	0.250
2020/01/31 21:37:32.4	352.730	0.210	-0.420	0.230
2020/01/31 21:37:32.5	352.720	0.190	-0.400	0.200
2020/01/31 21:37:32.6	352.710	0.180	-0.380	0.180
2020/01/31 21:37:32.7	352.700	0.160	-0.360	0.150
2020/01/31 21:37:32.8	352.690	0.140	-0.340	0.120
2020/01/31 21:37:32.9	352.680	0.120	-0.320	0.090
2020/01/31 21:37:33.0	352.680	0.090	-0.310	0.050
2020/01/31 21:37:33.1	352.670	0.070	-0.290	0.010
2020/01/31 21:37:33.2	352.670	0.040	-0.280	-0.030
2020/01/31 21:37:33.3	352.660	0.010	-0.270	-0.070
2020/01/31 21:37:33.4	352.660	-0.020	-0.260	-0.110
2020/01/31 21:37:33.5	352.660	-0.050	-0.250	-0.160
2020/01/31 21:37:33.6	352.660	-0.090	-0.250	-0.210
2020/01/31 21:37:33.7	352.670	-0.120	-0.250	-0.250
2020/01/31 21:37:33.8	352.670	-0.150	-0.250	-0.300
2020/01/31 21:37:33.9	352.650	-0.180	-0.260	-0.360
2020/01/31 21:37:34.0	352.660	-0.210	-0.270	-0.420
2020/01/31 21:37:34.1	352.660	-0.250	-0.280	-0.470
2020/01/31 21:37:34.2	352.670	-0.270	-0.300	-0.520
2020/01/31 21:37:34.3	352.690	-0.300	-0.320	-0.580
2020/01/31 21:37:34.4	352.700	-0.330	-0.340	-0.630
2020/01/31 21:37:34.5	352.710	-0.350	-0.370	-0.690
2020/01/31 21:37:34.6	352.730	-0.370	-0.390	-0.740
2020/01/31 21:37:34.7	352.750	-0.390	-0.420	-0.800
2020/01/31 21:37:34.8	352.770	-0.400	-0.450	-0.850
2020/01/31 21:37:34.9	352.790	-0.410	-0.490	-0.900
2020/01/31 21:37:35.0	352.810	-0.420	-0.520	-0.940
2020/01/31 21:37:35.1	352.830	-0.430	-0.550	-0.990
2020/01/31 21:37:35.2	352.850	-0.430	-0.590	-1.030
2020/01/31 21:37:35.3	352.870	-0.420	-0.620	-1.070
2020/01/31 21:37:35.4	352.900	-0.420	-0.660	-1.110
2020/01/31 21:37:35.5	352.920	-0.410	-0.690	-1.140
2020/01/31 21:37:35.6	352.940	-0.390	-0.720	-1.170
2020/01/31 21:37:35.7	352.960	-0.370	-0.750	-1.190
2020/01/31 21:37:35.8	352.980	-0.350	-0.770	-1.210
2020/01/31 21:37:35.9	353.010	-0.330	-0.800	-1.220
2020/01/31 21:37:36.0	353.030	-0.300	-0.810	-1.230
2020/01/31 21:37:36.1	353.040	-0.280	-0.830	-1.230
2020/01/31 21:37:36.2	353.060	-0.240	-0.840	-1.230
2020/01/31 21:37:36.3	353.080	-0.210	-0.840	-1.230
2020/01/31 21:37:36.4	353.090	-0.180	-0.840	-1.220
2020/01/31 21:37:36.5	353.100	-0.140	-0.830	-1.200
2020/01/31 21:37:36.6	353.120	-0.100	-0.820	-1.190
2020/01/31 21:37:36.7	353.130	-0.070	-0.800	-1.160
2020/01/31 21:37:36.8	353.130	-0.030	-0.780	-1.140
2020/01/31 21:37:36.9	353.150	0.010	-0.760	-1.100
2020/01/31 21:37:37.0	353.150	0.050	-0.730	-1.070
2020/01/31 21:37:37.1	353.160	0.090	-0.690	-1.030
2020/01/31 21:37:37.2	353.160	0.120	-0.650	-0.990
2020/01/31 21:37:37.3	353.160	0.160	-0.600	-0.940
2020/01/31 21:37:37.4	353.160	0.190	-0.550	-0.890
2020/01/31 21:37:37.5	353.160	0.230	-0.500	-0.830
2020/01/31 21:37:37.6	353.150	0.260	-0.440	-0.770
2020/01/31 21:37:37.7	353.150	0.280	-0.380	-0.710
2020/01/31 21:37:37.8	353.140	0.310	-0.320	-0.640
2020/01/31 21:37:37.9	353.120	0.330	-0.260	-0.570
2020/01/31 21:37:38.0	353.110	0.360	-0.200	-0.500
2020/01/31 21:37:38.1	353.100	0.370	-0.140	-0.420
2020/01/31 21:37:38.2	353.090	0.390	-0.080	-0.350
2020/01/31 21:37:38.3	353.080	0.400	-0.010	-0.270
2020/01/31 21:37:38.4	353.060	0.410	0.050	-0.200
2020/01/31 21:37:38.5	353.050	0.420	0.110	-0.120
2020/01/31 21:37:38.6	353.040	0.420	0.160	-0.050
2020/01/31 21:37:38.7	353.020	0.430	0.220	0.030
2020/01/31 21:37:38.8	353.000	0.430	0.270	0.100
2020/01/31 21:37:38.9	352.990	0.430	0.310	0.180
2020/01/31 21:37:39.0	352.970	0.420	0.360	0.250
2020/01/31 21:37:39.1	352.950	0.420	0.400	0.320
2020/01/31 21:37:39.2	352.930	0.410	0.430	0.380
2020/01/31 21:37:39.3	352.900	0.400	0.460	0.450
2020/01/31 21:37:39.4	352.880	0.390	0.490	0.510
2020/01/31 21:37:39.5	352.860	0.380	0.510	0.570
2020/01/31 21:37:39.6	352.830	0.370	0.530	0.630
2020/01/31 21:37:39.7	352.800	0.360	0.550	0.680
2020/01/31 21:37:39.8	352.770	0.350	0.560	0.740
2020/01/31 21:37:39.9	352.750	0.340	0.560	0.790
2020/01/31 21:37:40.0	352.720	0.330	0.570	0.830
2020/01/31 21:37:40.1	352.680	0.320	0.560	0.880
2020/01/31 21:37:40.2	352.650	0.310	0.550	0.920
2020/01/31 21:37:40.3	352.610	0.300	0.540	0.950
2020/01/31 21:37:40.4	352.580	0.290	0.520	0.990
2020/01/31 21:37:40.5	352.540	0.280	0.500	1.020
2020/01/31 21:37:40.6	352.500	0.280	0.480	1.040
2020/01/31 21:37:40.7	352.460	0.270	0.450	1.060
2020/01/31 21:37:40.8	352.430	0.260	0.410	1.080
2020/01/31 21:37:40.9	352.400	0.260	0.380	1.100
2020/01/31 21:37:41.0	352.360	0.250	0.340	1.110
2020/01/31 21:37:41.1	352.320	0.250	0.290	1.110
2020/01/31 21:37:41.2	352.280	0.240	0.240	1.110
2020/01/31 21:37:41.3	352.250	0.240	0.190	1.110
2020/01/31 21:37:41.4	352.210	0.240	0.140	1.100
2020/01/31 21:37:41.5	352.180	0.230	0.080	1.090
2020/01/31 21:37:41.6	352.150	0.230	0.020	1.070
2020/01/31 21:37:41.7	352.110	0.230	-0.050	1.050
2020/01/31 21:37:41.8	352.080	0.230	-0.110	1.030
2020/01/31 21:37:41.9	352.050	0.220	-0.180	1.000
2020/01/31 21:37:42.0	352.020	0.220	-0.250	0.970
2020/01/31 21:37:42.1	351.990	0.220	-0.320	0.930
2020/01/31 21:37:42.2	351.950	0.220	-0.390	0.900
2020/01/31 21:37:42.3	351.920	0.210	-0.450	0.850
2020/01/31 21:37:42.4	351.900	0.210	-0.520	0.810
2020/01/31 21:37:42.5	351.870	0.210	-0.580	0.760
2020/01/31 21:37:42.6	351.850	0.200	-0.640	0.710
2020/01/31 21:37:42.7	351.820	0.190	-0.700	0.650
2020/01/31 21:37:42.8	351.800	0.190	-0.750	0.590
2020/01/31 21:37:42.9	351.780	0.180	-0.790	0.530
2020/01/31 21:37:43.0	351.770	0.170	-0.840	0.460
2020/01/31 21:37:43.1	351.760	0.160	-0.880	0.390
2020/01/31 21:37:43.2	351.750	0.150	-0.920	0.320
2020/01/31 21:37:43.3	351.740	0.140	-0.950	0.250
2020/01/31 21:37:43.4	351.740	0.130	-0.970	0.170
2020/01/31 21:37:43.5	351.740	0.120	-0.990	0.100
2020/01/31 21:37:43.6	351.740	0.100	-1.010	0.020
2020/01/31 21:37:43.7	351.750	0.090	-1.020	-0.060
2020/01/31 21:37:43.8	351.760	0.070	-1.030	-0.140
2020/01/31 21:37:43.9	351.760	0.050	-1.030	-0.220
2020/01/31 21:37:44.0	351.770	0.040	-1.020	-0.300
2020/01/31 21:37:44.1	351.790	0.010	-1.010	-0.380
2020/01/31 21:37:44.2	351.820	-0.010	-1.000	-0.460
2020/01/31 21:37:44.3	351.840	-0.030	-0.980	-0.530
2020/01/31 21:37:44.4	351.870	-0.060	-0.960	-0.610
2020/01/31 21:37:44.5	351.890	-0.080	-0.930	-0.680
2020/01/31 21:37:44.6	351.920	-0.110	-0.900	-0.750
2020/01/31 21:37:44.7	351.950	-0.140	-0.870	-0.820
2020/01/31 21:37:44.8	351.980	-0.170	-0.830	-0.880
2020/01/31 21:37:44.9	352.010	-0.210	-0.780	-0.940
2020/01/31 21:37:45.0	352.040	-0.240	-0.740	-1.000
2020/01/31 21:37:45.1	352.070	-0.280	-0.690	-1.050
2020/01/31 21:37:45.2	352.090	-0.310	-0.640	-1.090
2020/01/31 21:37:45.3	352.120	-0.350	-0.590	-1.130
2020/01/31 21:37:45.4	352.140	-0.390	-0.530	-1.170
2020/01/31 21:37:45.5	352.160	-0.430	-0.480	-1.200
2020/01/31 21:37:45.6	352.180	-0.470	-0.420	-1.220
2020/01/31 21:37:45.7	352.200	-0.500	-0.360	-1.230
2020/01/31 21:37:45.8	352.210	-0.540	-0.310	-1.240
2020/01/31 21:37:45.9	352.230	-0.580	-0.250	-1.240
2020/01/31 21:37:46.0	352.250	-0.610	-0.200	-1.240
2020/01/31 21:37:46.1	352.260	-0.650	-0.150	-1.240
2020/01/31 21:37:46.2	352.260	-0.680	-0.100	-1.230
2020/01/31 21:37:46.3	352.270	-0.710	-0.060	-1.210
2020/01/31 21:37:46.4	352.270	-0.740	-0.010	-1.190
2020/01/31 21:37:46.5	352.280	-0.760	0.020	-1.170
2020/01/31 21:37:46.6	352.280	-0.780	0.060	-1.140
2020/01/31 21:37:46.7	352.280	-0.800	0.090	-1.120
2020/01/31 21:37:46.8	352.280	-0.810	0.120	-1.080
2020/01/31 21:37:46.9	352.280	-0.830	0.130	-1.050
2020/01/31 21:37:47.0	352.280	-0.830	0.150	-1.010
2020/01/31 21:37:47.1	352.270	-0.840	0.160	-0.970
2020/01/31 21:37:47.2	352.270	-0.830	0.170	-0.930
2020/01/31 21:37:47.3	352.260	-0.830	0.170	-0.890
2020/01/31 21:37:47.4	352.250	-0.820	0.170	-0.840
2020/01/31 21:37:47.5	352.240	-0.810	0.170	-0.800
2020/01/31 21:37:47.6	352.230	-0.790	0.160	-0.750
2020/01/31 21:37:47.7	352.220	-0.770	0.150	-0.700
2020/01/31 21:37:47.8	352.210	-0.740	0.130	-0.650
2020/01/31 21:37:47.9	352.200	-0.710	0.120	-0.600
2020/01/31 21:37:48.0	352.180	-0.680	0.100	-0.540
2020/01/31 21:37:48.1	352.160	-0.640	0.080	-0.490
2020/01/31 21:37:48.2	352.140	-0.600	0.060	-0.430
2020/01/31 21:37:48.3	352.120	-0.560	0.030	-0.370
2020/01/31 21:37:48.4	352.100	-0.520	0.010	-0.310
2020/01/31 21:37:48.5	352.070	-0.470	-0.010	-0.250
2020/01/31 21:37:48.6	352.040	-0.420	-0.040	-0.190
2020/01/31 21:37:48.7	352.010	-0.370	-0.060	-0.130
2020/01/31 21:37:48.8	351.980	-0.320	-0.080	-0.060
2020/01/31 21:37:48.9	351.940	-0.270	-0.100	0.010
2020/01/31 21:37:49.0	351.900	-0.220	-0.120	0.070
2020/01/31 21:37:49.1	351.870	-0.170	-0.140	0.140
2020/01/31 21:37:49.2	351.830	-0.110	-0.160	0.200
2020/01/31 21:37:49.3	351.790	-0.060	-0.180	0.270
2020/01/31 21:37:49.4	351.740	-0.000	-0.190	0.330
2020/01/31 21:37:49.5	351.700	0.050	-0.200	0.400
2020/01/31 21:37:49.6	351.660	0.100	-0.210	0.460
2020/01/31 21:37:49.7	351.610	0.150	-0.220	0.520
2020/01/31 21:37:49.8	351.570	0.200	-0.230	0.580
2020/01/31 21:37:49.9	351.530	0.250	-0.230	0.650
2020/01/31 21:37:50.0	351.480	0.300	-0.240	0.710
2020/01/31 21:37:50.1	351.440	0.350	-0.240	0.760
2020/01/31 21:37:50.2	351.390	0.390	-0.240	0.810
2020/01/31 21:37:50.3	351.350	0.440	-0.240	0.860
2020/01/31 21:37:50.4	351.310	0.480	-0.240	0.910
2020/01/31 21:37:50.5	351.270	0.520	-0.240	0.950
2020/01/31 21:37:50.6	351.230	0.560	-0.240	0.990
2020/01/31 21:37:50.7	351.200	0.590	-0.240	1.020
2020/01/31 21:37:50.8	351.160	0.630	-0.240	1.040
2020/01/31 21:37:50.9	351.140	0.660	-0.240	1.070
2020/01/31 21:37:51.0	351.110	0.690	-0.240	1.080
2020/01/31 21:37:51.1	351.090	0.720	-0.240	1.090
2020/01/31 21:37:51.2	351.070	0.740	-0.240	1.100
2020/01/31 21:37:51.3	351.050	0.760	-0.250	1.100
2020/01/31 21:37:51.4	351.030	0.780	-0.250	1.090
2020/01/31 21:37:51.5	351.010	0.800	-0.260	1.080
2020/01/31 21:37:51.6	351.000	0.810	-0.260	1.070
2020/01/31 21:37:51.7	350.990	0.820	-0.270	1.050
2020/01/31 21:37:51.8	350.980	0.830	-0.270	1.020
2020/01/31 21:37:51.9	350.960	0.830	-0.280	1.000
2020/01/31 21:37:52.0	350.950	0.830	-0.290	0.960
2020/01/31 21:37:52.1	350.940	0.830	-0.300	0.930
2020/01/31 21:37:52.2	350.940	0.820	-0.310	0.890
2020/01/31 21:37:52.3	350.930	0.810	-0.310	0.840
2020/01/31 21:37:52.4	350.930	0.790	-0.320	0.800
2020/01/31 21:37:52.5	350.930	0.780	-0.330	0.750
2020/01/31 21:37:52.6	350.930	0.760	-0.340	0.690
2020/01/31 21:37:52.7	350.930	0.730	-0.350	0.640
2020/01/31 21:37:52.8	350.930	0.710	-0.360	0.580
2020/01/31 21:37:52.9	350.930	0.680	-0.370	0.520
2020/01/31 21:37:53.0	350.940	0.650	-0.380	0.460
2020/01/31 21:37:53.1	350.940	0.610	-0.390	0.390
2020/01/31 21:37:53.2	350.940	0.580	-0.400	0.330
2020/01/31 21:37:53.3	350.950	0.540	-0.400	0.270
2020/01/31 21:37:53.4	350.950	0.500	-0.410	0.200
2020/01/31 21:37:53.5	350.960	0.460	-0.410	0.140
2020/01/31 21:37:53.6	350.960	0.420	-0.420	0.080
2020/01/31 21:37:53.7	350.970	0.380	-0.420	0.010
2020/01/31 21:37:53.8	350.980	0.340	-0.420	-0.050
2020/01/31 21:37:53.9	350.990	0.290	-0.420	-0.110
2020/01/31 21:37:54.0	351.000	0.250	-0.420	-0.170
2020/01/31 21:37:54.1	351.000	0.210	-0.420	-0.220
2020/01/31 21:37:54.2	351.000	0.170	-0.410	-0.270
2020/01/31 21:37:54.3	351.000	0.130	-0.410	-0.320
2020/01/31 21:37:54.4	351.000	0.080	-0.400	-0.370
2020/01/31 21:37:54.5	351.000	0.040	-0.390	-0.410
2020/01/31 21:37:54.6	351.000	0.010	-0.380	-0.450
2020/01/31 21:37:54.7	350.990	-0.030	-0.370	-0.480
2020/01/31 21:37:54.8	350.980	-0.070	-0.360	-0.520
2020/01/31 21:37:54.9	350.980	-0.100	-0.350	-0.540
2020/01/31 21:37:55.0	350.970	-0.130	-0.340	-0.570
2020/01/31 21:37:55.1	350.960	-0.160	-0.320	-0.590
2020/01/31 21:37:55.2	350.950	-0.190	-0.310	-0.610
2020/01/31 21:37:55.3	350.930	-0.220	-0.290	-0.620
2020/01/31 21:37:55.4	350.920	-0.240	-0.280	-0.630
2020/01/31 21:37:55.5	350.900	-0.270	-0.260	-0.640
2020/01/31 21:37:55.6	350.880	-0.290	-0.250	-0.650
2020/01/31 21:37:55.7	350.870	-0.310	-0.230	-0.660
2020/01/31 21:37:55.8	350.850	-0.330	-0.220	-0.660
2020/01/31 21:37:55.9	350.820	-0.340	-0.200	-0.670
2020/01/31 21:37:56.0	350.800	-0.350	-0.190	-0.670
2020/01/31 21:37:56.1	350.780	-0.370	-0.180	-0.670
2020/01/31 21:37:56.2	350.760	-0.370	-0.180	-0.670
2020/01/31 21:37:56.3	350.740	-0.380	-0.170	-0.670
2020/01/31 21:37:56.4	350.720	-0.390	-0.160	-0.660
2020/01/31 21:37:56.5	350.700	-0.390	-0.160	-0.660
2020/01/31 21:37:56.6	350.680	-0.400	-0.160	-0.650
2020/01/31 21:37:56.7	350.660	-0.400	-0.160	-0.640
2020/01/31 21:37:56.8	350.650	-0.400	-0.160	-0.640
2020/01/31 21:37:56.9	350.620	-0.400	-0.160	-0.620
2020/01/31 21:37:57.0	350.610	-0.400	-0.170	-0.610
2020/01/31 21:37:57.1	350.590	-0.390	-0.170	-0.590
2020/01/31 21:37:57.2	350.570	-0.390	-0.180	-0.580
2020/01/31 21:37:57.3	350.560	-0.380	-0.180	-0.560
2020/01/31 21:37:57.4	350.550	-0.380	-0.190	-0.540
2020/01/31 21:37:57.5	350.530	-0.370	-0.190	-0.520
2020/01/31 21:37:57.6	350.520	-0.370	-0.200	-0.500
2020/01/31 21:37:57.7	350.510	-0.360	-0.210	-0.480
2020/01/31 21:37:57.8	350.500	-0.350	-0.210	-0.460
2020/01/31 21:37:57.9	350.490	-0.340	-0.220	-0.440
2020/01/31 21:37:58.0	350.480	-0.340	-0.220	-0.410
2020/01/31 21:37:58.1	350.470	-0.330	-0.230	-0.390
2020/01/31 21:37:58.2	350.470	-0.320	-0.230	-0.360
2020/01/31 21:37:58.3	350.460	-0.310	-0.240	-0.340
2020/01/31 21:37:58.4	350.460	-0.310	-0.240	-0.310
2020/01/31 21:37:58.5	350.460	-0.300	-0.250	-0.280
2020/01/31 21:37:58.6	350.450	-0.290	-0.250	-0.250
2020/01/31 21:37:58.7	350.450	-0.290	-0.250	-0.230
2020/01/31 21:37:58.8	350.450	-0.280	-0.250	-0.200
2020/01/31 21:37:58.9	350.440	-0.280	-0.240	-0.160
2020/01/31 21:37:59.0	350.440	-0.270	-0.240	-0.130
2020/01/31 21:37:59.1	350.440	-0.270	-0.240	-0.100
2020/01/31 21:37:59.2	350.440	-0.270	-0.230	-0.070
2020/01/31 21:37:59.3	350.440	-0.270	-0.230	-0.040
2020/01/31 21:37:59.4	350.440	-0.260	-0.220	-0.000
2020/01/31 21:37:59.5	350.440	-0.260	-0.210	0.030
2020/01/31 21:37:59.6	350.440	-0.260	-0.210	0.060
2020/01/31 21:37:59.7	350.440	-0.260	-0.200	0.090
2020/01/31 21:37:59.8	350.440	-0.260	-0.190	0.120
2020/01/31 21:37:59.9	350.440	-0.260	-0.180	0.150
2020/01/31 21:38:00.0	350.440	-0.260	-0.170	0.180
2020/01/31 21:38:00.1	350.440	-0.270	-0.160	0.210
2020/01/31 21:38:00.2	350.440	-0.270	-0.150	0.240
2020/01/31 21:38:00.3	350.430	-0.270	-0.140	0.260
2020/01/31 21:38:00.4	350.430	-0.270	-0.130	0.280
2020/01/31 21:38:00.5	350.430	-0.270	-0.120	0.310
2020/01/31 21:38:00.6	350.430	-0.270	-0.120	0.330
2020/01/31 21:38:00.7	350.430	-0.270	-0.110	0.350
2020/01/31 21:38:00.8	350.430	-0.270	-0.110	0.370
2020/01/31 21:38:00.9	350.430	-0.260	-0.100	0.390
2020/01/31 21:38:01.0	350.430	-0.260	-0.100	0.410
2020/01/31 21:38:01.1	350.430	-0.250	-0.100	0.420
2020/01/31 21:38:01.2	350.430	-0.250	-0.100	0.440
2020/01/31 21:38:01.3	350.430	-0.240	-0.100	0.450
2020/01/31 21:38:01.4	350.420	-0.230	-0.100	0.470
2020/01/31 21:38:01.5	350.420	-0.210	-0.110	0.480
2020/01/31 21:38:01.6	350.410	-0.200	-0.110	0.500
2020/01/31 21:38:01.7	350.410	-0.190	-0.120	0.520
2020/01/31 21:38:01.8	350.400	-0.170	-0.120	0.530
2020/01/31 21:38:01.9	350.400	-0.150	-0.130	0.550
2020/01/31 21:38:02.0	350.390	-0.130	-0.140	0.570
2020/01/31 21:38:02.1	350.380	-0.110	-0.150	0.590
2020/01/31 21:38:02.2	350.370	-0.080	-0.150	0.610
2020/01/31 21:38:02.3	350.350	-0.060	-0.160	0.630
2020/01/31 21:38:02.4	350.330	-0.030	-0.170	0.650
2020/01/31 21:38:02.5	350.310	-0.010	-0.180	0.670
2020/01/31 21:38:02.6	350.290	0.020	-0.180	0.690
2020/01/31 21:38:02.7	350.260	0.050	-0.190	0.720
2020/01/31 21:38:02.8	350.240	0.080	-0.200	0.740
2020/01/31 21:38:02.9	350.200	0.100	-0.210	0.760
2020/01/31 21:38:03.0	350.170	0.130	-0.220	0.780
2020/01/31 21:38:03.1	350.140	0.160	-0.230	0.790
2020/01/31 21:38:03.2	350.110	0.180	-0.230	0.810
2020/01/31 21:38:03.3	350.070	0.210	-0.240	0.820
2020/01/31 21:38:03.4	350.040	0.230	-0.250	0.830
2020/01/31 21:38:03.5	350.010	0.250	-0.260	0.840
2020/01/31 21:38:03.6	349.980	0.270	-0.270	0.840
2020/01/31 21:38:03.7	349.940	0.290	-0.290	0.840
2020/01/31 21:38:03.8	349.910	0.310	-0.300	0.840
2020/01/31 21:38:03.9	349.870	0.330	-0.310	0.830
2020/01/31 21:38:04.0	349.840	0.340	-0.320	0.820
2020/01/31 21:38:04.1	349.820	0.350	-0.330	0.810
2020/01/31 21:38:04.2	349.790	0.360	-0.350	0.790
2020/01/31 21:38:04.3	349.760	0.370	-0.360	0.770
2020/01/31 21:38:04.4	349.740	0.380	-0.370	0.750
2020/01/31 21:38:04.5	349.710	0.390	-0.380	0.720
2020/01/31 21:38:04.6	349.690	0.390	-0.390	0.700
2020/01/31 21:38:04.7	349.670	0.390	-0.400	0.670
2020/01/31 21:38:04.8	349.650	0.390	-0.410	0.640
2020/01/31 21:38:04.9	349.610	0.390	-0.410	0.600
2020/01/31 21:38:05.0	349.590	0.380	-0.420	0.560
2020/01/31 21:38:05.1	349.570	0.380	-0.430	0.530
2020/01/31 21:38:05.2	349.560	0.370	-0.430	0.500
2020/01/31 21:38:05.3	349.540	0.360	-0.430	0.460
2020/01/31 21:38:05.4	349.520	0.350	-0.440	0.420
2020/01/31 21:38:05.5	349.510	0.340	-0.440	0.380
2020/01/31 21:38:05.6	349.490	0.330	-0.440	0.340
2020/01/31 21:38:05.7	349.480	0.320	-0.440	0.310
2020/01/31 21:38:05.8	349.470	0.300	-0.440	0.270
2020/01/31 21:38:05.9	349.460	0.290	-0.440	0.230
2020/01/31 21:38:06.0	349.450	0.270	-0.430	0.190
2020/01/31 21:38:06.1	349.440	0.260	-0.430	0.150
2020/01/31 21:38:06.2	349.440	0.240	-0.430	0.110
2020/01/31 21:38:06.3	349.430	0.230	-0.430	0.070
2020/01/31 21:38:06.4	349.430	0.210	-0.420	0.030
2020/01/31 21:38:06.5	349.430	0.200	-0.420	-0.000
2020/01/31 21:38:06.6	349.430	0.180	-0.420	-0.040
2020/01/31 21:38:06.7	349.430	0.170	-0.420	-0.080
2020/01/31 21:38:06.8	349.430	0.160	-0.420	-0.110
2020/01/31 21:38:06.9	349.440	0.150	-0.420	-0.150
2020/01/31 21:38:07.0	349.440	0.140	-0.420	-0.180
2020/01/31 21:38:07.1	349.450	0.130	-0.420	-0.210
2020/01/31 21:38:07.2	349.460	0.120	-0.420	-0.240
2020/01/31 21:38:07.3	349.470	0.120	-0.430	-0.270
2020/01/31 21:38:07.4	349.490	0.110	-0.430	-0.300
2020/01/31 21:38:07.5	349.500	0.110	-0.440	-0.330
2020/01/31 21:38:07.6	349.520	0.100	-0.440	-0.360
2020/01/31 21:38:07.7	349.540	0.100	-0.450	-0.390
2020/01/31 21:38:07.8	349.570	0.100	-0.460	-0.410
2020/01/31 21:38:07.9	349.590	0.100	-0.470	-0.440
2020/01/31 21:38:08.0	349.610	0.100	-0.480	-0.460
2020/01/31 21:38:08.1	349.640	0.100	-0.490	-0.480
2020/01/31 21:38:08.2	349.670	0.100	-0.500	-0.510
2020/01/31 21:38:08.3	349.700	0.100	-0.510	-0.530
2020/01/31 21:38:08.4	349.730	0.110	-0.520	-0.550
2020/01/31 21:38:08.5	349.770	0.110	-0.530	-0.570
2020/01/31 21:38:08.6	349.800	0.110	-0.530	-0.580
2020/01/31 21:38:08.7	349.840	0.110	-0.540	-0.600
2020/01/31 21:38:08.8	349.870	0.110	-0.540	-0.610
2020/01/31 21:38:08.9	349.910	0.110	-0.540	-0.620
2020/01/31 21:38:09.0	349.950	0.110	-0.540	-0.630
2020/01/31 21:38:09.1	349.990	0.110	-0.540	-0.630
2020/01/31 21:38:09.2	350.020	0.100	-0.530	-0.630
2020/01/31 21:38:09.3	350.050	0.090	-0.520	-0.630
2020/01/31 21:38:09.4	350.080	0.090	-0.500	-0.630
2020/01/31 21:38:09.5	350.110	0.080	-0.480	-0.620
2020/01/31 21:38:09.6	350.140	0.060	-0.460	-0.610
2020/01/31 21:38:09.7	350.170	0.050	-0.430	-0.590
2020/01/31 21:38:09.8	350.190	0.030	-0.400	-0.570
2020/01/31 21:38:09.9	350.220	0.010	-0.360	-0.550
2020/01/31 21:38:10.0	350.230	-0.010	-0.310	-0.520
2020/01/31 21:38:10.1	350.240	-0.040	-0.270	-0.490
2020/01/31 21:38:10.2	350.250	-0.060	-0.210	-0.460
2020/01/31 21:38:10.3	350.250	-0.090	-0.150	-0.420
2020/01/31 21:38:10.4	350.250	-0.120	-0.090	-0.380
2020/01/31 21:38:10.5	350.240	-0.160	-0.030	-0.340
2020/01/31 21:38:10.6	350.230	-0.190	0.040	-0.290
2020/01/31 21:38:10.7	350.220	-0.230	0.110	-0.250
2020/01/31 21:38:10.8	350.200	-0.270	0.180	-0.200
2020/01/31 21:38:10.9	350.170	-0.310	0.240	-0.140
2020/01/31 21:38:11.0	350.140	-0.350	0.320	-0.090
2020/01/31 21:38:11.1	350.110	-0.390	0.390	-0.040
2020/01/31 21:38:11.2	350.070	-0.430	0.450	0.010
2020/01/31 21:38:11.3	350.030	-0.480	0.520	0.060
2020/01/31 21:38:11.4	349.990	-0.520	0.580	0.110
2020/01/31 21:38:11.5	349.950	-0.550	0.650	0.160
2020/01/31 21:38:11.6	349.900	-0.590	0.700	0.210
2020/01/31 21:38:11.7	349.850	-0.630	0.750	0.260
2020/01/31 21:38:11.8	349.790	-0.660	0.800	0.310
2020/01/31 21:38:11.9	349.740	-0.690	0.840	0.360
2020/01/31 21:38:12.0	349.690	-0.710	0.870	0.410
2020/01/31 21:38:12.1	349.630	-0.740	0.900	0.450
2020/01/31 21:38:12.2	349.570	-0.760	0.910	0.500
2020/01/31 21:38:12.3	349.510	-0.770	0.920	0.540
2020/01/31 21:38:12.4	349.450	-0.780	0.920	0.570
2020/01/31 21:38:12.5	349.390	-0.780	0.920	0.610
2020/01/31 21:38:12.6	349.340	-0.780	0.900	0.640
2020/01/31 21:38:12.7	349.280	-0.780	0.870	0.670
2020/01/31 21:38:12.8	349.220	-0.760	0.830	0.700
2020/01/31 21:38:12.9	349.180	-0.750	0.790	0.720
2020/01/31 21:38:13.0	349.120	-0.720	0.730	0.740
2020/01/31 21:38:13.1	349.070	-0.700	0.670	0.750
2020/01/31 21:38:13.2	349.020	-0.660	0.590	0.770
2020/01/31 21:38:13.3	348.970	-0.620	0.510	0.770
2020/01/31 21:38:13.4	348.930	-0.580	0.420	0.770
2020/01/31 21:38:13.5	348.890	-0.530	0.320	0.770
2020/01/31 21:38:13.6	348.850	-0.470	0.210	0.760
2020/01/31 21:38:13.7	348.810	-0.420	0.100	0.750
2020/01/31 21:38:13.8	348.780	-0.350	-0.020	0.730
2020/01/31 21:38:13.9	348.720	-0.290	-0.140	0.700
2020/01/31 21:38:14.0	348.700	-0.220	-0.270	0.670
2020/01/31 21:38:14.1	348.680	-0.150	-0.400	0.640
2020/01/31 21:38:14.2	348.660	-0.070	-0.530	0.600
2020/01/31 21:38:14.3	348.650	0.000	-0.660	0.560
2020/01/31 21:38:14.4	348.640	0.080	-0.800	0.520
2020/01/31 21:38:14.5	348.640	0.160	-0.930	0.480
2020/01/31 21:38:14.6	348.640	0.240	-1.060	0.430
2020/01/31 21:38:14.7	348.640	0.310	-1.180	0.380
2020/01/31 21:38:14.8	348.650	0.390	-1.300	0.340
2020/01/31 21:38:14.9	348.660	0.470	-1.420	0.280
2020/01/31 21:38:15.0	348.670	0.540	-1.520	0.230
2020/01/31 21:38:15.1	348.690	0.610	-1.620	0.180
2020/01/31 21:38:15.2	348.710	0.670	-1.710	0.140
2020/01/31 21:38:15.3	348.740	0.730	-1.790	0.100
2020/01/31 21:38:15.4	348.760	0.790	-1.860	0.050
2020/01/31 21:38:15.5	348.790	0.840	-1.920	0.010
2020/01/31 21:38:15.6	348.820	0.880	-1.960	-0.020
2020/01/31 21:38:15.7	348.850	0.920	-1.990	-0.060
2020/01/31 21:38:15.8	348.880	0.960	-2.010	-0.090
2020/01/31 21:38:15.9	348.930	0.980	-2.020	-0.110
2020/01/31 21:38:16.0	348.960	1.000	-2.010	-0.140
2020/01/31 21:38:16.1	348.980	1.010	-1.990	-0.160
2020/01/31 21:38:16.2	349.010	1.010	-1.950	-0.190
2020/01/31 21:38:16.3	349.040	1.000	-1.900	-0.210
2020/01/31 21:38:16.4	349.060	0.990	-1.840	-0.230
2020/01/31 21:38:16.5	349.080	0.960	-1.770	-0.240
2020/01/31 21:38:16.6	349.100	0.930	-1.690	-0.260
2020/01/31 21:38:16.7	349.120	0.900	-1.590	-0.270
2020/01/31 21:38:16.8	349.140	0.850	-1.490	-0.290
2020/01/31 21:38:16.9	349.170	0.800	-1.380	-0.290
2020/01/31 21:38:17.0	349.180	0.740	-1.260	-0.300
2020/01/31 21:38:17.1	349.190	0.680	-1.130	-0.310
2020/01/31 21:38:17.2	349.200	0.610	-1.000	-0.310
2020/01/31 21:38:17.3	349.220	0.540	-0.860	-0.320
2020/01/31 21:38:17.4	349.220	0.460	-0.720	-0.320
2020/01/31 21:38:17.5	349.230	0.380	-0.580	-0.320
2020/01/31 21:38:17.6	349.240	0.290	-0.430	-0.310
2020/01/31 21:38:17.7	349.250	0.210	-0.290	-0.310
2020/01/31 21:38:17.8	349.250	0.120	-0.140	-0.300
2020/01/31 21:38:17.9	349.250	0.030	-0.000	-0.300
2020/01/31 21:38:18.0	349.260	-0.060	0.140	-0.290
2020/01/31 21:38:18.1	349.260	-0.150	0.270	-0.280
2020/01/31 21:38:18.2	349.260	-0.230	0.400	-0.270
2020/01/31 21:38:18.3	349.260	-0.320	0.530	-0.260
2020/01/31 21:38:18.4	349.270	-0.400	0.650	-0.250
2020/01/31 21:38:18.5	349.270	-0.480	0.760	-0.230
2020/01/31 21:38:18.6	349.260	-0.550	0.870	-0.220
2020/01/31 21:38:18.7	349.260	-0.630	0.970	-0.210
2020/01/31 21:38:18.8	349.260	-0.690	1.060	-0.200
2020/01/31 21:38:18.9	349.250	-0.750	1.140	-0.180
2020/01/31 21:38:19.0	349.240	-0.810	1.210	-0.170
2020/01/31 21:38:19.1	349.240	-0.860	1.270	-0.160
2020/01/31 21:38:19.2	349.230	-0.900	1.330	-0.150
2020/01/31 21:38:19.3	349.220	-0.940	1.370	-0.130
2020/01/31 21:38:19.4	349.200	-0.970	1.400	-0.120
2020/01/31 21:38:19.5	349.190	-0.990	1.430	-0.110
2020/01/31 21:38:19.6	349.170	-1.000	1.440	-0.090
2020/01/31 21:38:19.7	349.160	-1.010	1.440	-0.080
2020/01/31 21:38:19.8	349.140	-1.010	1.440	-0.060
2020/01/31 21:38:19.9	349.120	-1.010	1.420	-0.040
2020/01/31 21:38:20.0	349.100	-0.990	1.400	-0.020
2020/01/31 21:38:20.1	349.080	-0.980	1.370	-0.000
2020/01/31 21:38:20.2	349.050	-0.950	1.320	0.020
2020/01/31 21:38:20.3	349.030	-0.920	1.270	0.040
2020/01/31 21:38:20.4	349.000	-0.880	1.210	0.070
2020/01/31 21:38:20.5	348.980	-0.830	1.150	0.090
2020/01/31 21:38:20.6	348.950	-0.780	1.070	0.120
2020/01/31 21:38:20.7	348.930	-0.730	0.990	0.150
2020/01/31 21:38:20.8	348.900	-0.670	0.910	0.180
2020/01/31 21:38:20.9	348.870	-0.610	0.810	0.210
2020/01/31 21:38:21.0	348.850	-0.540	0.710	0.240
2020/01/31 21:38:21.1	348.830	-0.470	0.610	0.270
2020/01/31 21:38:21.2	348.800	-0.400	0.500	0.300
2020/01/31 21:38:21.3	348.780	-0.320	0.400	0.330
2020/01/31 21:38:21.4	348.760	-0.250	0.280	0.360
2020/01/31 21:38:21.5	348.740	-0.170	0.170	0.380
2020/01/31 21:38:21.6	348.720	-0.100	0.060	0.410
2020/01/31 21:38:21.7	348.700	-0.030	-0.050	0.440
2020/01/31 21:38:21.8	348.690	0.050	-0.170	0.460
2020/01/31 21:38:21.9	348.680	0.120	-0.280	0.490
2020/01/31 21:38:22.0	348.660	0.190	-0.380	0.510
2020/01/31 21:38:22.1	348.650	0.250	-0.490	0.540
2020/01/31 21:38:22.2	348.640	0.320	-0.590	0.560
2020/01/31 21:38:22.3	348.630	0.380	-0.690	0.570
2020/01/31 21:38:22.4	348.620	0.430	-0.780	0.590
2020/01/31 21:38:22.5	348.610	0.480	-0.870	0.600
2020/01/31 21:38:22.6	348.600	0.530	-0.950	0.620
2020/01/31 21:38:22.7	348.590	0.570	-1.030	0.620
2020/01/31 21:38:22.8	348.590	0.610	-1.100	0.630
2020/01/31 21:38:22.9	348.580	0.640	-1.160	0.630
2020/01/31 21:38:23.0	348.580	0.660	-1.210	0.630
2020/01/31 21:38:23.1	348.580	0.680	-1.260	0.630
2020/01/31 21:38:23.2	348.580	0.690	-1.300	0.620
2020/01/31 21:38:23.3	348.580	0.700	-1.340	0.600
2020/01/31 21:38:23.4	348.590	0.700	-1.360	0.590
2020/01/31 21:38:23.5	348.600	0.690	-1.380	0.560
2020/01/31 21:38:23.6	348.610	0.680	-1.390	0.540
2020/01/31 21:38:23.7	348.620	0.670	-1.400	0.510
2020/01/31 21:38:23.8	348.630	0.650	-1.390	0.480
2020/01/31 21:38:23.9	348.650	0.620	-1.380	0.450
2020/01/31 21:38:24.0	348.670	0.590	-1.370	0.420
2020/01/31 21:38:24.1	348.690	0.560	-1.350	0.380
2020/01/31 21:38:24.2	348.710	0.520	-1.320	0.340
2020/01/31 21:38:24.3	348.730	0.480	-1.290	0.290
2020/01/31 21:38:24.4	348.750	0.430	-1.260	0.250
2020/01/31 21:38:24.5	348.770	0.390	-1.220	0.200
2020/01/31 21:38:24.6	348.790	0.340	-1.170	0.150
2020/01/31 21:38:24.7	348.810	0.290	-1.130	0.100
2020/01/31 21:38:24.8	348.840	0.240	-1.080	0.050
2020/01/31 21:38:24.9	348.860	0.190	-1.030	0.000
2020/01/31 21:38:25.0	348.890	0.140	-0.970	-0.050
2020/01/31 21:38:25.1	348.910	0.090	-0.920	-0.100
2020/01/31 21:38:25.2	348.940	0.040	-0.860	-0.150
2020/01/31 21:38:25.3	348.960	-0.010	-0.810	-0.210
2020/01/31 21:38:25.4	348.980	-0.060	-0.750	-0.260
2020/01/31 21:38:25.5	349.000	-0.100	-0.690	-0.310
2020/01/31 21:38:25.6	349.030	-0.150	-0.640	-0.360
2020/01/31 21:38:25.7	349.050	-0.190	-0.580	-0.410
2020/01/31 21:38:25.8	349.060	-0.220	-0.530	-0.460
2020/01/31 21:38:25.9	349.070	-0.260	-0.480	-0.510
2020/01/31 21:38:26.0	349.090	-0.290	-0.420	-0.550
2020/01/31 21:38:26.1	349.100	-0.320	-0.370	-0.590
2020/01/31 21:38:26.2	349.110	-0.350	-0.330	-0.630
2020/01/31 21:38:26.3	349.120	-0.370	-0.280	-0.660
2020/01/31 21:38:26.4	349.130	-0.390	-0.230	-0.700
2020/01/31 21:38:26.5	349.140	-0.400	-0.190	-0.720
2020/01/31 21:38:26.6	349.140	-0.410	-0.150	-0.750
2020/01/31 21:38:26.7	349.150	-0.420	-0.110	-0.770
2020/01/31 21:38:26.8	349.150	-0.430	-0.070	-0.790
2020/01/31 21:38:26.9	349.140	-0.430	-0.040	-0.800
2020/01/31 21:38:27.0	349.140	-0.430	-0.010	-0.810
2020/01/31 21:38:27.1	349.140	-0.430	0.020	-0.820
2020/01/31 21:38:27.2	349.140	-0.420	0.050	-0.820
2020/01/31 21:38:27.3	349.140	-0.410	0.080	-0.820
2020/01/31 21:38:27.4	349.140	-0.400	0.100	-0.820
2020/01/31 21:38:27.5	349.130	-0.390	0.120	-0.810
2020/01/31 21:38:27.6	349.130	-0.370	0.140	-0.800
2020/01/31 21:38:27.7	349.130	-0.350	0.160	-0.790
2020/01/31 21:38:27.8	349.120	-0.330	0.180	-0.770
2020/01/31 21:38:27.9	349.120	-0.310	0.190	-0.750
2020/01/31 21:38:28.0	349.110	-0.290	0.200	-0.720
2020/01/31 21:38:28.1	349.100	-0.270	0.210	-0.700
2020/01/31 21:38:28.2	349.100	-0.250	0.220	-0.670
2020/01/31 21:38:28.3	349.090	-0.220	0.230	-0.640
2020/01/31 21:38:28.4	349.080	-0.200	0.230	-0.610
2020/01/31 21:38:28.5	349.070	-0.180	0.240	-0.570
2020/01/31 21:38:28.6	349.060	-0.150	0.240	-0.530
2020/01/31 21:38:28.7	349.050	-0.130	0.240	-0.490
2020/01/31 21:38:28.8	349.040	-0.110	0.240	-0.450
2020/01/31 21:38:28.9	349.030	-0.080	0.240	-0.400
2020/01/31 21:38:29.0	349.020	-0.060	0.240	-0.360
2020/01/31 21:38:29.1	349.010	-0.040	0.230	-0.310
2020/01/31 21:38:29.2	349.000	-0.020	0.220	-0.260
2020/01/31 21:38:29.3	348.980	-0.000	0.220	-0.210
2020/01/31 21:38:29.4	348.970	0.010	0.210	-0.170
2020/01/31 21:38:29.5	348.960	0.030	0.190	-0.120
2020/01/31 21:38:29.6	348.950	0.040	0.180	-0.070
2020/01/31 21:38:29.7	348.940	0.060	0.170	-0.020
2020/01/31 21:38:29.8	348.930	0.070	0.150	0.030
2020/01/31 21:38:29.9	348.920	0.080	0.130	0.080
2020/01/31 21:38:30.0	348.920	0.090	0.110	0.120
2020/01/31 21:38:30.1	348.910	0.100	0.090	0.160
2020/01/31 21:38:30.2	348.910	0.100	0.070	0.210
2020/01/31 21:38:30.3	348.900	0.110	0.040	0.240
2020/01/31 21:38:30.4	348.900	0.110	0.020	0.280
2020/01/31 21:38:30.5	348.900	0.120	-0.010	0.310
2020/01/31 21:38:30.6	348.900	0.120	-0.040	0.350
2020/01/31 21:38:30.7	348.910	0.120	-0.070	0.370
2020/01/31 21:38:30.8	348.910	0.120	-0.110	0.400
2020/01/31 21:38:30.9	348.920	0.130	-0.140	0.430
2020/01/31 21:38:31.0	348.920	0.130	-0.180	0.450
2020/01/31 21:38:31.1	348.930	0.130	-0.210	0.470
2020/01/31 21:38:31.2	348.940	0.120	-0.240	0.480
2020/01/31 21:38:31.3	348.950	0.120	-0.280	0.500
2020/01/31 21:38:31.4	348.960	0.120	-0.310	0.510
2020/01/31 21:38:31.5	348.970	0.120	-0.340	0.520
2020/01/31 21:38:31.6	348.970	0.120	-0.370	0.530
2020/01/31 21:38:31.7	348.980	0.120	-0.400	0.540
2020/01/31 21:38:31.8	348.990	0.120	-0.420	0.540
2020/01/31 21:38:31.9	349.000	0.120	-0.440	0.540
2020/01/31 21:38:32.0	349.010	0.110	-0.460	0.550
2020/01/31 21:38:32.1	349.020	0.110	-0.480	0.550
2020/01/31 21:38:32.2	349.030	0.110	-0.490	0.540
2020/01/31 21:38:32.3	349.030	0.110	-0.510	0.540
2020/01/31 21:38:32.4	349.040	0.110	-0.510	0.530
2020/01/31 21:38:32.5	349.050	0.110	-0.520	0.520
2020/01/31 21:38:32.6	349.060	0.110	-0.530	0.510
2020/01/31 21:38:32.7	349.060	0.110	-0.530	0.500
2020/01/31 21:38:32.8	349.070	0.110	-0.530	0.480
2020/01/31 21:38:32.9	349.090	0.110	-0.520	0.460
2020/01/31 21:38:33.0	349.100	0.110	-0.520	0.440
2020/01/31 21:38:33.1	349.110	0.110	-0.510	0.410
2020/01/31 21:38:33.2	349.120	0.110	-0.500	0.390
2020/01/31 21:38:33.3	349.130	0.110	-0.490	0.360
2020/01/31 21:38:33.4	349.140	0.110	-0.480	0.330
2020/01/31 21:38:33.5	349.150	0.110	-0.470	0.290
2020/01/31 21:38:33.6	349.170	0.120	-0.460	0.260
2020/01/31 21:38:33.7	349.180	0.120	-0.440	0.230
2020/01/31 21:38:33.8	349.190	0.120	-0.420	0.200
2020/01/31 21:38:33.9	349.200	0.120	-0.410	0.160
2020/01/31 21:38:34.0	349.210	0.120	-0.390	0.130
2020/01/31 21:38:34.1	349.220	0.120	-0.370	0.110
2020/01/31 21:38:34.2	349.230	0.120	-0.340	0.080
2020/01/31 21:38:34.3	349.240	0.110	-0.320	0.060
2020/01/31 21:38:34.4	349.240	0.110	-0.300	0.030
2020/01/31 21:38:34.5	349.250	0.110	-0.280	0.010
2020/01/31 21:38:34.6	349.250	0.100	-0.260	-0.010
2020/01/31 21:38:34.7	349.260	0.100	-0.230	-0.030
2020/01/31 21:38:34.8	349.260	0.090	-0.210	-0.060
2020/01/31 21:38:34.9	349.270	0.080	-0.190	-0.070
2020/01/31 21:38:35.0	349.270	0.070	-0.170	-0.100
2020/01/31 21:38:35.1	349.270	0.060	-0.150	-0.120
2020/01/31 21:38:35.2	349.270	0.050	-0.130	-0.150
2020/01/31 21:38:35.3	349.260	0.040	-0.120	-0.170
2020/01/31 21:38:35.4	349.260	0.030	-0.100	-0.200
2020/01/31 21:38:35.5	349.260	0.010	-0.090	-0.220
2020/01/31 21:38:35.6	349.250	0.000	-0.070	-0.250
2020/01/31 21:38:35.7	349.250	-0.010	-0.060	-0.270
2020/01/31 21:38:35.8	349.240	-0.030	-0.050	-0.290
2020/01/31 21:38:35.9	349.230	-0.050	-0.040	-0.320
2020/01/31 21:38:36.0	349.220	-0.060	-0.030	-0.340
2020/01/31 21:38:36.1	349.210	-0.080	-0.020	-0.360
2020/01/31 21:38:36.2	349.200	-0.100	-0.010	-0.380
2020/01/31 21:38:36.3	349.190	-0.120	-0.010	-0.400
2020/01/31 21:38:36.4	349.180	-0.130	-0.010	-0.410
2020/01/31 21:38:36.5	349.170	-0.150	-0.000	-0.430
2020/01/31 21:38:36.6	349.160	-0.170	-0.000	-0.440
2020/01/31 21:38:36.7	349.140	-0.180	-0.000	-0.450
2020/01/31 21:38:36.8	349.130	-0.200	-0.010	-0.460
2020/01/31 21:38:36.9	349.120	-0.210	-0.010	-0.470
2020/01/31 21:38:37.0	349.110	-0.230	-0.020	-0.480
2020/01/31 21:38:37.1	349.090	-0.240	-0.020	-0.480
2020/01/31 21:38:37.2	349.080	-0.250	-0.030	-0.490
2020/01/31 21:38:37.3	349.060	-0.260	-0.040	-0.490
2020/01/31 21:38:37.4	349.050	-0.270	-0.050	-0.490
2020/01/31 21:38:37.5	349.030	-0.280	-0.070	-0.490
2020/01/31 21:38:37.6	349.020	-0.280	-0.080	-0.490
2020/01/31 21:38:37.7	349.010	-0.290	-0.100	-0.490
2020/01/31 21:38:37.8	349.000	-0.290	-0.120	-0.480
2020/01/31 21:38:37.9	348.990	-0.290	-0.150	-0.470
2020/01/31 21:38:38.0	348.980	-0.290	-0.170	-0.460
2020/01/31 21:38:38.1	348.970	-0.280	-0.200	-0.460
2020/01/31 21:38:38.2	348.960	-0.270	-0.230	-0.450
2020/01/31 21:38:38.3	348.960	-0.260	-0.260	-0.440
2020/01/31 21:38:38.4	348.950	-0.250	-0.290	-0.420
2020/01/31 21:38:38.5	348.950	-0.230	-0.320	-0.410
2020/01/31 21:38:38.6	348.950	-0.220	-0.360	-0.400
2020/01/31 21:38:38.7	348.950	-0.200	-0.390	-0.380
2020/01/31 21:38:38.8	348.950	-0.170	-0.430	-0.370
2020/01/31 21:38:38.9	348.950	-0.150	-0.460	-0.350
2020/01/31 21:38:39.0	348.960	-0.130	-0.500	-0.340
2020/01/31 21:38:39.1	348.960	-0.100	-0.530	-0.320
2020/01/31 21:38:39.2	348.970	-0.070	-0.560	-0.310
2020/01/31 21:38:39.3	348.980	-0.040	-0.600	-0.300
2020/01/31 21:38:39.4	348.990	-0.010	-0.630	-0.280
2020/01/31 21:38:39.5	349.000	0.020	-0.650	-0.270
2020/01/31 21:38:39.6	349.010	0.050	-0.680	-0.260
2020/01/31 21:38:39.7	349.030	0.080	-0.710	-0.240
2020/01/31 21:38:39.8	349.040	0.110	-0.730	-0.230
2020/01/31 21:38:39.9	349.050	0.150	-0.750	-0.220
2020/01/31 21:38:40.0	349.070	0.180	-0.760	-0.210
2020/01/31 21:38:40.1	349.090	0.200	-0.770	-0.200
2020/01/31 21:38:40.2	349.110	0.230	-0.780	-0.190
2020/01/31 21:38:40.3	349.130	0.260	-0.780	-0.170
2020/01/31 21:38:40.4	349.140	0.280	-0.780	-0.160
2020/01/31 21:38:40.5	349.160	0.300	-0.780	-0.150
2020/01/31 21:38:40.6	349.180	0.320	-0.780	-0.140
2020/01/31 21:38:40.7	349.200	0.340	-0.760	-0.120
2020/01/31 21:38:40.8	349.210	0.350	-0.750	-0.110
2020/01/31 21:38:40.9	349.240	0.360	-0.730	-0.090
2020/01/31 21:38:41.0	349.250	0.370	-0.710	-0.080
2020/01/31 21:38:41.1	349.270	0.380	-0.690	-0.060
2020/01/31 21:38:41.2	349.280	0.380	-0.660	-0.050
2020/01/31 21:38:41.3	349.300	0.370	-0.630	-0.030
2020/01/31 21:38:41.4	349.310	0.360	-0.600	-0.020
2020/01/31 21:38:41.5	349.330	0.350	-0.570	-0.010
2020/01/31 21:38:41.6	349.340	0.340	-0.530	0.010
2020/01/31 21:38:41.7	349.350	0.320	-0.490	0.020
2020/01/31 21:38:41.8	349.360	0.300	-0.450	0.030
2020/01/31 21:38:41.9	349.380	0.280	-0.410	0.040
2020/01/31 21:38:42.0	349.390	0.250	-0.360	0.050
2020/01/31 21:38:42.1	349.400	0.220	-0.320	0.060
2020/01/31 21:38:42.2	349.410	0.190	-0.270	0.060
2020/01/31 21:38:42.3	349.410	0.160	-0.220	0.060
2020/01/31 21:38:42.4	349.420	0.120	-0.170	0.060
2020/01/31 21:38:42.5	349.420	0.080	-0.130	0.060
2020/01/31 21:38:42.6	349.420	0.050	-0.080	0.060
2020/01/31 21:38:42.7	349.420	0.010	-0.030	0.060
2020/01/31 21:38:42.8	349.420	-0.030	0.020	0.050
2020/01/31 21:38:42.9	349.410	-0.070	0.070	0.040
2020/01/31 21:38:43.0	349.410	-0.110	0.120	0.040
2020/01/31 21:38:43.1	349.400	-0.140	0.160	0.030
2020/01/31 21:38:43.2	349.390	-0.180	0.210	0.020
2020/01/31 21:38:43.3	349.390	-0.210	0.250	0.020
2020/01/31 21:38:43.4	349.380	-0.240	0.290	0.010
2020/01/31 21:38:43.5	349.360	-0.270	0.330	0.010
2020/01/31 21:38:43.6	349.350	-0.300	0.370	0.000
2020/01/31 21:38:43.7	349.340	-0.320	0.410	-0.000
2020/01/31 21:38:43.8	349.320	-0.340	0.440	-0.000
2020/01/31 21:38:43.9	349.310	-0.360	0.460	-0.000
2020/01/31 21:38:44.0	349.290	-0.370	0.490	-0.010
2020/01/31 21:38:44.1	349.270	-0.380	0.510	-0.010
2020/01/31 21:38:44.2	349.250	-0.390	0.520	-0.010
2020/01/31 21:38:44.3	349.230	-0.400	0.530	-0.020
2020/01/31 21:38:44.4	349.210	-0.400	0.530	-0.020
2020/01/31 21:38:44.5	349.190	-0.400	0.530	-0.020
2020/01/31 21:38:44.6	349.160	-0.390	0.520	-0.030
2020/01/31 21:38:44.7	349.140	-0.380	0.510	-0.030
2020/01/31 21:38:44.8	349.120	-0.370	0.480	-0.040
2020/01/31 21:38:44.9	349.100	-0.360	0.460	-0.050
2020/01/31 21:38:45.0	349.080	-0.340	0.420	-0.060
2020/01/31 21:38:45.1	349.070	-0.320	0.380	-0.070
2020/01/31 21:38:45.2	349.050	-0.300	0.330	-0.080
2020/01/31 21:38:45.3	349.040	-0.270	0.270	-0.100
2020/01/31 21:38:45.4	349.020	-0.240	0.210	-0.120
2020/01/31 21:38:45.5	349.010	-0.210	0.140	-0.140
2020/01/31 21:38:45.6	349.000	-0.180	0.070	-0.160
2020/01/31 21:38:45.7	349.000	-0.150	-0.010	-0.180
2020/01/31 21:38:45.8	348.990	-0.110	-0.090	-0.210
2020/01/31 21:38:45.9	349.000	-0.080	-0.180	-0.240
2020/01/31 21:38:46.0	349.000	-0.040	-0.270	-0.270
2020/01/31 21:38:46.1	349.000	-0.000	-0.360	-0.300
2020/01/31 21:38:46.2	349.000	0.040	-0.450	-0.330
2020/01/31 21:38:46.3	349.000	0.070	-0.540	-0.360
2020/01/31 21:38:46.4	349.010	0.110	-0.630	-0.390
2020/01/31 21:38:46.5	349.010	0.150	-0.720	-0.420
2020/01/31 21:38:46.6	349.020	0.180	-0.810	-0.450
2020/01/31 21:38:46.7	349.020	0.220	-0.890	-0.470
2020/01/31 21:38:46.8	349.030	0.250	-0.970	-0.500
2020/01/31 21:38:46.9	349.040	0.280	-1.040	-0.530
2020/01/31 21:38:47.0	349.050	0.310	-1.110	-0.550
2020/01/31 21:38:47.1	349.060	0.340	-1.170	-0.570
2020/01/31 21:38:47.2	349.070	0.370	-1.220	-0.590
2020/01/31 21:38:47.3	349.070	0.390	-1.260	-0.610
2020/01/31 21:38:47.4	349.080	0.410	-1.300	-0.630
2020/01/31 21:38:47.5	349.090	0.430	-1.320	-0.650
2020/01/31 21:38:47.6	349.110	0.440	-1.340	-0.660
2020/01/31 21:38:47.7	349.120	0.450	-1.350	-0.670
2020/01/31 21:38:47.8	349.130	0.460	-1.340	-0.680
2020/01/31 21:38:47.9	349.140	0.460	-1.330	-0.690
2020/01/31 21:38:48.0	349.160	0.460	-1.310	-0.690
2020/01/31 21:38:48.1	349.170	0.460	-1.280	-0.700
2020/01/31 21:38:48.2	349.180	0.460	-1.230	-0.700
2020/01/31 21:38:48.3	349.200	0.450	-1.180	-0.700
2020/01/31 21:38:48.4	349.210	0.440	-1.130	-0.700
2020/01/31 21:38:48.5	349.220	0.420	-1.060	-0.700
2020/01/31 21:38:48.6	349.240	0.400	-0.990	-0.690
2020/01/31 21:38:48.7	349.250	0.380	-0.910	-0.680
2020/01/31 21:38:48.8	349.260	0.360	-0.820	-0.670
2020/01/31 21:38:48.9	349.260	0.330	-0.730	-0.650
2020/01/31 21:38:49.0	349.270	0.300	-0.630	-0.640
2020/01/31 21:38:49.1	349.280	0.270	-0.530	-0.620
2020/01/31 21:38:49.2	349.280	0.230	-0.430	-0.590
2020/01/31 21:38:49.3	349.290	0.200	-0.330	-0.570
2020/01/31 21:38:49.4	349.290	0.160	-0.220	-0.540
2020/01/31 21:38:49.5	349.300	0.120	-0.120	-0.510
2020/01/31 21:38:49.6	349.300	0.080	-0.010	-0.480
2020/01/31 21:38:49.7	349.300	0.050	0.090	-0.440
2020/01/31 21:38:49.8	349.300	0.010	0.190	-0.410
2020/01/31 21:38:49.9	349.310	-0.030	0.280	-0.370
2020/01/31 21:38:50.0	349.310	-0.070	0.370	-0.330
2020/01/31 21:38:50.1	349.310	-0.110	0.450	-0.300
2020/01/31 21:38:50.2	349.310	-0.150	0.520	-0.260
2020/01/31 21:38:50.3	349.310	-0.190	0.590	-0.220
2020/01/31 21:38:50.4	349.320	-0.220	0.650	-0.190
2020/01/31 21:38:50.5	349.320	-0.250	0.700	-0.160
2020/01/31 21:38:50.6	349.320	-0.290	0.750	-0.130
2020/01/31 21:38:50.7	349.330	-0.320	0.780	-0.100
2020/01/31 21:38:50.8	349.330	-0.340	0.810	-0.070
2020/01/31 21:38:50.9	349.320	-0.370	0.820	-0.050
2020/01/31 21:38:51.0	349.330	-0.390	0.830	-0.020
2020/01/31 21:38:51.1	349.330	-0.400	0.830	-0.000
2020/01/31 21:38:51.2	349.340	-0.420	0.820	0.010
2020/01/31 21:38:51.3	349.340	-0.430	0.800	0.030
2020/01/31 21:38:51.4	349.340	-0.440	0.780	0.040
2020/01/31 21:38:51.5	349.340	-0.450	0.750	0.060
2020/01/31 21:38:51.6	349.350	-0.450	0.710	0.070
2020/01/31 21:38:51.7	349.350	-0.450	0.670	0.080
2020/01/31 21:38:51.8	349.340	-0.440	0.620	0.090
2020/01/31 21:38:51.9	349.350	-0.440	0.570	0.090
2020/01/31 21:38:52.0	349.340	-0.430	0.510	0.100
2020/01/31 21:38:52.1	349.340	-0.410	0.450	0.100
2020/01/31 21:38:52.2	349.330	-0.400	0.390	0.110
2020/01/31 21:38:52.3	349.320	-0.380	0.330	0.120
2020/01/31 21:38:52.4	349.310	-0.360	0.270	0.120
2020/01/31 21:38:52.5	349.300	-0.330	0.210	0.130
2020/01/31 21:38:52.6	349.290	-0.310	0.150	0.130
2020/01/31 21:38:52.7	349.280	-0.280	0.080	0.140
2020/01/31 21:38:52.8	349.260	-0.250	0.020	0.150
2020/01/31 21:38:52.9	349.240	-0.220	-0.040	0.150
2020/01/31 21:38:53.0	349.230	-0.190	-0.100	0.150
2020/01/31 21:38:53.1	349.210	-0.160	-0.150	0.160
2020/01/31 21:38:53.2	349.200	-0.130	-0.210	0.160
2020/01/31 21:38:53.3	349.190	-0.100	-0.270	0.160
2020/01/31 21:38:53.4	349.170	-0.060	-0.330	0.160
2020/01/31 21:38:53.5	349.160	-0.030	-0.380	0.150
2020/01/31 21:38:53.6	349.150	0.000	-0.430	0.150
2020/01/31 21:38:53.7	349.140	0.030	-0.480	0.140
2020/01/31 21:38:53.8	349.130	0.060	-0.530	0.130
2020/01/31 21:38:53.9	349.130	0.090	-0.580	0.110
2020/01/31 21:38:54.0	349.130	0.120	-0.630	0.100
2020/01/31 21:38:54.1	349.130	0.150	-0.670	0.070
2020/01/31 21:38:54.2	349.130	0.180	-0.720	0.050
2020/01/31 21:38:54.3	349.130	0.200	-0.760	0.020
2020/01/31 21:38:54.4	349.140	0.230	-0.800	-0.010
2020/01/31 21:38:54.5	349.140	0.250	-0.840	-0.040
2020/01/31 21:38:54.6	349.160	0.270	-0.870	-0.070
2020/01/31 21:38:54.7	349.170	0.290	-0.900	-0.110
2020/01/31 21:38:54.8	349.190	0.300	-0.930	-0.150
2020/01/31 21:38:54.9	349.210	0.320	-0.960	-0.190
2020/01/31 21:38:55.0	349.230	0.330	-0.980	-0.240
2020/01/31 21:38:55.1	349.250	0.340	-1.000	-0.280
2020/01/31 21:38:55.2	349.280	0.350	-1.010	-0.320
2020/01/31 21:38:55.3	349.300	0.360	-1.030	-0.360
2020/01/31 21:38:55.4	349.330	0.370	-1.030	-0.400
2020/01/31 21:38:55.5	349.350	0.370	-1.040	-0.440
2020/01/31 21:38:55.6	349.380	0.370	-1.040	-0.480
2020/01/31 21:38:55.7	349.410	0.370	-1.030	-0.510
2020/01/31 21:38:55.8	349.430	0.370	-1.020	-0.540
2020/01/31 21:38:55.9	349.460	0.370	-1.010	-0.570
2020/01/31 21:38:56.0	349.490	0.360	-0.990	-0.600
2020/01/31 21:38:56.1	349.510	0.350	-0.960	-0.620
2020/01/31 21:38:56.2	349.530	0.340	-0.930	-0.640
2020/01/31 21:38:56.3	349.560	0.330	-0.890	-0.650
2020/01/31 21:38:56.4	349.580	0.320	-0.850	-0.660
2020/01/31 21:38:56.5	349.590	0.300	-0.800	-0.670
2020/01/31 21:38:56.6	349.610	0.290	-0.750	-0.670
2020/01/31 21:38:56.7	349.620	0.270	-0.700	-0.660
2020/01/31 21:38:56.8	349.630	0.250	-0.640	-0.650
2020/01/31 21:38:56.9	349.650	0.230	-0.570	-0.640
2020/01/31 21:38:57.0	349.650	0.210	-0.510	-0.620
2020/01/31 21:38:57.1	349.650	0.190	-0.440	-0.590
2020/01/31 21:38:57.2	349.650	0.160	-0.370	-0.560
2020/01/31 21:38:57.3	349.640	0.140	-0.300	-0.530
2020/01/31 21:38:57.4	349.630	0.110	-0.230	-0.490
2020/01/31 21:38:57.5	349.620	0.090	-0.160	-0.450
2020/01/31 21:38:57.6	349.600	0.060	-0.090	-0.410
2020/01/31 21:38:57.7	349.590	0.040	-0.020	-0.370
2020/01/31 21:38:57.8	349.560	0.010	0.040	-0.320
2020/01/31 21:38:57.9	349.550	-0.020	0.100	-0.270
2020/01/31 21:38:58.0	349.520	-0.040	0.160	-0.230
2020/01/31 21:38:58.1	349.500	-0.070	0.210	-0.190
2020/01/31 21:38:58.2	349.470	-0.090	0.260	-0.150
2020/01/31 21:38:58.3	349.440	-0.120	0.300	-0.110
2020/01/31 21:38:58.4	349.420	-0.140	0.330	-0.070
2020/01/31 21:38:58.5	349.390	-0.170	0.360	-0.040
2020/01/31 21:38:58.6	349.370	-0.190	0.380	-0.010
2020/01/31 21:38:58.7	349.340	-0.210	0.390	0.010
2020/01/31 21:38:58.8	349.320	-0.230	0.400	0.030
2020/01/31 21:38:58.9	349.310	-0.250	0.400	0.050
2020/01/31 21:38:59.0	349.290	-0.260	0.390	0.060
2020/01/31 21:38:59.1	349.270	-0.280	0.370	0.060
2020/01/31 21:38:59.2	349.260	-0.290	0.350	0.060
2020/01/31 21:38:59.3	349.250	-0.300	0.320	0.060
2020/01/31 21:38:59.4	349.240	-0.310	0.280	0.040
2020/01/31 21:38:59.5	349.240	-0.310	0.240	0.030
2020/01/31 21:38:59.6	349.240	-0.310	0.190	0.010
2020/01/31 21:38:59.7	349.250	-0.310	0.140	-0.010
2020/01/31 21:38:59.8	349.250	-0.310	0.090	-0.040
2020/01/31 21:38:59.9	349.260	-0.310	0.030	-0.070
2020/01/31 21:39:00.0	349.270	-0.300	-0.030	-0.110
2020/01/31 21:39:00.1	349.290	-0.300	-0.090	-0.140
2020/01/31 21:39:00.2	349.310	-0.290	-0.160	-0.180
2020/01/31 21:39:00.3	349.330	-0.280	-0.220	-0.220
2020/01/31 21:39:00.4	349.350	-0.260	-0.280	-0.260
2020/01/31 21:39:00.5	349.380	-0.250	-0.340	-0.300
2020/01/31 21:39:00.6	349.410	-0.240	-0.390	-0.340
2020/01/31 21:39:00.7	349.440	-0.220	-0.450	-0.380
2020/01/31 21:39:00.8	349.470	-0.210	-0.500	-0.410
2020/01/31 21:39:00.9	349.500	-0.190	-0.540	-0.450
2020/01/31 21:39:01.0	349.530	-0.180	-0.580	-0.490
2020/01/31 21:39:01.1	349.560	-0.160	-0.620	-0.530
2020/01/31 21:39:01.2	349.600	-0.150	-0.640	-0.560
2020/01/31 21:39:01.3	349.630	-0.130	-0.670	-0.590
2020/01/31 21:39:01.4	349.660	-0.120	-0.680	-0.610
2020/01/31 21:39:01.5	349.690	-0.110	-0.700	-0.640
2020/01/31 21:39:01.6	349.720	-0.100	-0.700	-0.660
2020/01/31 21:39:01.7	349.740	-0.090	-0.700	-0.680
2020/01/31 21:39:01.8	349.770	-0.090	-0.700	-0.700
2020/01/31 21:39:01.9	349.790	-0.080	-0.690	-0.700
2020/01/31 21:39:02.0	349.820	-0.080	-0.680	-0.720
2020/01/31 21:39:02.1	349.840	-0.080	-0.660	-0.730
2020/01/31 21:39:02.2	349.860	-0.080	-0.640	-0.730
2020/01/31 21:39:02.3	349.880	-0.080	-0.610	-0.740
2020/01/31 21:39:02.4	349.900	-0.080	-0.580	-0.740
2020/01/31 21:39:02.5	349.920	-0.080	-0.550	-0.740
2020/01/31 21:39:02.6	349.940	-0.090	-0.520	-0.740
2020/01/31 21:39:02.7	349.960	-0.090	-0.480	-0.740
2020/01/31 21:39:02.8	349.980	-0.100	-0.450	-0.740
2020/01/31 21:39:02.9	349.990	-0.110	-0.410	-0.730
2020/01/31 21:39:03.0	350.000	-0.120	-0.370	-0.720
2020/01/31 21:39:03.1	350.020	-0.120	-0.340	-0.710
2020/01/31 21:39:03.2	350.030	-0.130	-0.300	-0.700
2020/01/31 21:39:03.3	350.040	-0.140	-0.260	-0.690
2020/01/31 21:39:03.4	350.050	-0.150	-0.220	-0.680
2020/01/31 21:39:03.5	350.070	-0.150	-0.190	-0.660
2020/01/31 21:39:03.6	350.080	-0.160	-0.150	-0.650
2020/01/31 21:39:03.7	350.090	-0.170	-0.120	-0.630
2020/01/31 21:39:03.8	350.090	-0.170	-0.090	-0.610
2020/01/31 21:39:03.9	350.100	-0.170	-0.060	-0.590
2020/01/31 21:39:04.0	350.100	-0.170	-0.030	-0.570
2020/01/31 21:39:04.1	350.110	-0.170	-0.000	-0.550
2020/01/31 21:39:04.2	350.110	-0.170	0.020	-0.530
2020/01/31 21:39:04.3	350.110	-0.170	0.050	-0.510
2020/01/31 21:39:04.4	350.100	-0.160	0.070	-0.480
2020/01/31 21:39:04.5	350.100	-0.160	0.090	-0.460
2020/01/31 21:39:04.6	350.090	-0.150	0.110	-0.430
2020/01/31 21:39:04.7	350.080	-0.140	0.130	-0.400
2020/01/31 21:39:04.8	350.060	-0.120	0.140	-0.370
2020/01/31 21:39:04.9	350.040	-0.110	0.160	-0.330
2020/01/31 21:39:05.0	350.020	-0.100	0.170	-0.300
2020/01/31 21:39:05.1	350.010	-0.080	0.180	-0.260
2020/01/31 21:39:05.2	349.990	-0.060	0.180	-0.220
2020/01/31 21:39:05.3	349.970	-0.040	0.190	-0.190
2020/01/31 21:39:05.4	349.940	-0.020	0.190	-0.150
2020/01/31 21:39:05.5	349.920	0.000	0.190	-0.110
2020/01/31 21:39:05.6	349.890	0.030	0.180	-0.070
2020/01/31 21:39:05.7	349.870	0.050	0.170	-0.030
2020/01/31 21:39:05.8	349.850	0.080	0.160	0.000
2020/01/31 21:39:05.9	349.820	0.110	0.150	0.040
2020/01/31 21:39:06.0	349.800	0.130	0.130	0.070
2020/01/31 21:39:06.1	349.770	0.160	0.120	0.110
2020/01/31 21:39:06.2	349.750	0.190	0.090	0.140
2020/01/31 21:39:06.3	349.720	0.220	0.070	0.170
2020/01/31 21:39:06.4	349.700	0.250	0.040	0.200
2020/01/31 21:39:06.5	349.670	0.270	0.020	0.220
2020/01/31 21:39:06.6	349.650	0.300	-0.010	0.240
2020/01/31 21:39:06.7	349.630	0.330	-0.040	0.260
2020/01/31 21:39:06.8	349.600	0.360	-0.070	0.280
2020/01/31 21:39:06.9	349.570	0.380	-0.110	0.300
2020/01/31 21:39:07.0	349.550	0.410	-0.140	0.320
2020/01/31 21:39:07.1	349.530	0.430	-0.170	0.330
2020/01/31 21:39:07.2	349.500	0.450	-0.210	0.340
2020/01/31 21:39:07.3	349.480	0.470	-0.240	0.350
2020/01/31 21:39:07.4	349.460	0.490	-0.270	0.360
2020/01/31 21:39:07.5	349.440	0.510	-0.300	0.360
2020/01/31 21:39:07.6	349.420	0.530	-0.330	0.360
2020/01/31 21:39:07.7	349.400	0.540	-0.350	0.370
2020/01/31 21:39:07.8	349.390	0.550	-0.380	0.370
2020/01/31 21:39:07.9	349.370	0.560	-0.400	0.360
2020/01/31 21:39:08.0	349.360	0.570	-0.430	0.360
2020/01/31 21:39:08.1	349.350	0.570	-0.450	0.350
2020/01/31 21:39:08.2	349.340	0.580	-0.460	0.340
2020/01/31 21:39:08.3	349.330	0.580	-0.480	0.330
2020/01/31 21:39:08.4	349.320	0.570	-0.500	0.320
2020/01/31 21:39:08.5	349.310	0.570	-0.510	0.310
2020/01/31 21:39:08.6	349.310	0.560	-0.520	0.300
2020/01/31 21:39:08.7	349.310	0.550	-0.530	0.280
2020/01/31 21:39:08.8	349.300	0.540	-0.540	0.270
2020/01/31 21:39:08.9	349.290	0.520	-0.540	0.250
2020/01/31 21:39:09.0	349.290	0.510	-0.540	0.240
2020/01/31 21:39:09.1	349.290	0.490	-0.540	0.220
2020/01/31 21:39:09.2	349.290	0.460	-0.540	0.210
2020/01/31 21:39:09.3	349.280	0.440	-0.530	0.190
2020/01/31 21:39:09.4	349.280	0.410	-0.520	0.170
2020/01/31 21:39:09.5	349.280	0.390	-0.510	0.160
2020/01/31 21:39:09.6	349.270	0.360	-0.500	0.140
2020/01/31 21:39:09.7	349.270	0.330	-0.490	0.120
2020/01/31 21:39:09.8	349.270	0.290	-0.470	0.110
2020/01/31 21:39:09.9	349.270	0.260	-0.450	0.090
2020/01/31 21:39:10.0	349.270	0.220	-0.440	0.070
2020/01/31 21:39:10.1	349.270	0.190	-0.420	0.050
2020/01/31 21:39:10.2	349.270	0.150	-0.400	0.030
2020/01/31 21:39:10.3	349.270	0.110	-0.380	0.010
2020/01/31 21:39:10.4	349.270	0.080	-0.360	-0.010
2020/01/31 21:39:10.5	349.270	0.040	-0.340	-0.030
2020/01/31 21:39:10.6	349.280	0.000	-0.330	-0.060
2020/01/31 21:39:10.7	349.280	-0.040	-0.310	-0.080
2020/01/31 21:39:10.8	349.290	-0.070	-0.300	-0.110
2020/01/31 21:39:10.9	349.320	-0.110	-0.290	-0.140
2020/01/31 21:39:11.0	349.330	-0.150	-0.280	-0.180
2020/01/31 21:39:11.1	349.340	-0.180	-0.270	-0.210
2020/01/31 21:39:11.2	349.360	-0.220	-0.270	-0.250
2020/01/31 21:39:11.3	349.370	-0.250	-0.260	-0.280
2020/01/31 21:39:11.4	349.390	-0.280	-0.270	-0.320
2020/01/31 21:39:11.5	349.400	-0.310	-0.270	-0.370
2020/01/31 21:39:11.6	349.420	-0.340	-0.270	-0.410
2020/01/31 21:39:11.7	349.440	-0.370	-0.280	-0.450
2020/01/31 21:39:11.8	349.450	-0.400	-0.290	-0.500
2020/01/31 21:39:11.9	349.480	-0.420	-0.300	-0.550
2020/01/31 21:39:12.0	349.500	-0.450	-0.320	-0.590
2020/01/31 21:39:12.1	349.520	-0.470	-0.330	-0.640
2020/01/31 21:39:12.2	349.550	-0.490	-0.350	-0.690
2020/01/31 21:39:12.3	349.570	-0.510	-0.370	-0.740
2020/01/31 21:39:12.4	349.590	-0.520	-0.390	-0.790
2020/01/31 21:39:12.5	349.620	-0.540	-0.410	-0.840
2020/01/31 21:39:12.6	349.640	-0.550	-0.430	-0.890
2020/01/31 21:39:12.7	349.660	-0.560	-0.450	-0.940
2020/01/31 21:39:12.8	349.690	-0.570	-0.470	-0.990
2020/01/31 21:39:12.9	349.710	-0.580	-0.490	-1.040
2020/01/31 21:39:13.0	349.740	-0.590	-0.510	-1.080
2020/01/31 21:39:13.1	349.760	-0.590	-0.530	-1.130
2020/01/31 21:39:13.2	349.780	-0.590	-0.550	-1.170
2020/01/31 21:39:13.3	349.810	-0.590	-0.560	-1.210
2020/01/31 21:39:13.4	349.830	-0.590	-0.580	-1.250
2020/01/31 21:39:13.5	349.850	-0.590	-0.590	-1.280
2020/01/31 21:39:13.6	349.870	-0.580	-0.600	-1.310
2020/01/31 21:39:13.7	349.890	-0.580	-0.610	-1.340
2020/01/31 21:39:13.8	349.910	-0.570	-0.610	-1.370
2020/01/31 21:39:13.9	349.920	-0.560	-0.620	-1.390
2020/01/31 21:39:14.0	349.940	-0.550	-0.620	-1.410
2020/01/31 21:39:14.1	349.950	-0.530	-0.620	-1.420
2020/01/31 21:39:14.2	349.970	-0.520	-0.610	-1.430
2020/01/31 21:39:14.3	349.980	-0.500	-0.610	-1.430
2020/01/31 21:39:14.4	349.990	-0.480	-0.600	-1.420
2020/01/31 21:39:14.5	349.990	-0.460	-0.580	-1.420
2020/01/31 21:39:14.6	350.000	-0.440	-0.570	-1.400
2020/01/31 21:39:14.7	350.000	-0.410	-0.550	-1.380
2020/01/31 21:39:14.8	350.000	-0.390	-0.530	-1.360
2020/01/31 21:39:14.9	350.010	-0.360	-0.510	-1.320
2020/01/31 21:39:15.0	350.000	-0.330	-0.480	-1.290
2020/01/31 21:39:15.1	350.000	-0.300	-0.450	-1.250
2020/01/31 21:39:15.2	349.990	-0.270	-0.410	-1.200
2020/01/31 21:39:15.3	349.980	-0.240	-0.380	-1.150
2020/01/31 21:39:15.4	349.970	-0.210	-0.340	-1.100
2020/01/31 21:39:15.5	349.950	-0.180	-0.290	-1.040
2020/01/31 21:39:15.6	349.930	-0.150	-0.250	-0.970
2020/01/31 21:39:15.7	349.910	-0.120	-0.200	-0.900
2020/01/31 21:39:15.8	349.890	-0.080	-0.140	-0.830
2020/01/31 21:39:15.9	349.860	-0.050	-0.090	-0.750
2020/01/31 21:39:16.0	349.830	-0.020	-0.030	-0.670
2020/01/31 21:39:16.1	349.800	0.010	0.020	-0.590
2020/01/31 21:39:16.2	349.760	0.040	0.080	-0.510
2020/01/31 21:39:16.3	349.720	0.070	0.140	-0.420
2020/01/31 21:39:16.4	349.680	0.100	0.200	-0.330
2020/01/31 21:39:16.5	349.640	0.120	0.260	-0.240
2020/01/31 21:39:16.6	349.600	0.140	0.320	-0.150
2020/01/31 21:39:16.7	349.550	0.170	0.380	-0.060
2020/01/31 21:39:16.8	349.500	0.190	0.440	0.030
2020/01/31 21:39:16.9	349.450	0.210	0.490	0.120
2020/01/31 21:39:17.0	349.400	0.220	0.540	0.210
2020/01/31 21:39:17.1	349.350	0.240	0.590	0.290
2020/01/31 21:39:17.2	349.300	0.250	0.630	0.370
2020/01/31 21:39:17.3	349.250	0.260	0.670	0.460
2020/01/31 21:39:17.4	349.200	0.270	0.710	0.530
2020/01/31 21:39:17.5	349.150	0.270	0.740	0.610
2020/01/31 21:39:17.6	349.100	0.280	0.760	0.680
2020/01/31 21:39:17.7	349.050	0.280	0.780	0.740
2020/01/31 21:39:17.8	349.000	0.280	0.790	0.800
2020/01/31 21:39:17.9	348.950	0.280	0.800	0.860
2020/01/31 21:39:18.0	348.910	0.280	0.800	0.910
2020/01/31 21:39:18.1	348.870	0.280	0.790	0.960
2020/01/31 21:39:18.2	348.820	0.280	0.780	1.000
2020/01/31 21:39:18.3	348.790	0.280	0.760	1.030
2020/01/31 21:39:18.4	348.750	0.270	0.740	1.050
2020/01/31 21:39:18.5	348.710	0.270	0.700	1.070
2020/01/31 21:39:18.6	348.680	0.270	0.670	1.090
2020/01/31 21:39:18.7	348.650	0.260	0.620	1.090
2020/01/31 21:39:18.8	348.620	0.260	0.580	1.100
2020/01/31 21:39:18.9	348.590	0.260	0.520	1.090
2020/01/31 21:39:19.0	348.570	0.260	0.460	1.080
2020/01/31 21:39:19.1	348.540	0.260	0.400	1.070
2020/01/31 21:39:19.2	348.520	0.260	0.330	1.060
2020/01/31 21:39:19.3	348.510	0.260	0.250	1.040
2020/01/31 21:39:19.4	348.490	0.270	0.180	1.020
2020/01/31 21:39:19.5	348.470	0.280	0.100	1.000
2020/01/31 21:39:19.6	348.460	0.280	0.020	0.970
2020/01/31 21:39:19.7	348.450	0.290	-0.060	0.940
2020/01/31 21:39:19.8	348.440	0.310	-0.150	0.910
2020/01/31 21:39:19.9	348.420	0.320	-0.240	0.880
2020/01/31 21:39:20.0	348.420	0.330	-0.320	0.850
2020/01/31 21:39:20.1	348.410	0.350	-0.410	0.810
2020/01/31 21:39:20.2	348.410	0.360	-0.490	0.770
2020/01/31 21:39:20.3	348.410	0.380	-0.580	0.730
2020/01/31 21:39:20.4	348.410	0.400	-0.660	0.690
2020/01/31 21:39:20.5	348.410	0.410	-0.740	0.650
2020/01/31 21:39:20.6	348.420	0.430	-0.820	0.600
2020/01/31 21:39:20.7	348.430	0.450	-0.890	0.560
2020/01/31 21:39:20.8	348.440	0.460	-0.960	0.510
2020/01/31 21:39:20.9	348.450	0.480	-1.030	0.450
2020/01/31 21:39:21.0	348.470	0.490	-1.100	0.400
2020/01/31 21:39:21.1	348.480	0.500	-1.160	0.350
2020/01/31 21:39:21.2	348.500	0.510	-1.210	0.290
2020/01/31 21:39:21.3	348.510	0.520	-1.260	0.240
2020/01/31 21:39:21.4	348.530	0.520	-1.310	0.180
2020/01/31 21:39:21.5	348.550	0.530	-1.350	0.120
2020/01/31 21:39:21.6	348.560	0.520	-1.390	0.060
2020/01/31 21:39:21.7	348.580	0.520	-1.420	0.000
2020/01/31 21:39:21.8	348.600	0.510	-1.440	-0.060
2020/01/31 21:39:21.9	348.630	0.500	-1.460	-0.110
2020/01/31 21:39:22.0	348.640	0.490	-1.480	-0.170
2020/01/31 21:39:22.1	348.660	0.470	-1.480	-0.230
2020/01/31 21:39:22.2	348.680	0.450	-1.480	-0.290
2020/01/31 21:39:22.3	348.700	0.420	-1.480	-0.350
2020/01/31 21:39:22.4	348.720	0.400	-1.470	-0.410
2020/01/31 21:39:22.5	348.740	0.370	-1.450	-0.460
2020/01/31 21:39:22.6	348.760	0.330	-1.430	-0.520
2020/01/31 21:39:22.7	348.780	0.300	-1.410	-0.570
2020/01/31 21:39:22.8	348.800	0.260	-1.380	-0.620
2020/01/31 21:39:22.9	348.820	0.220	-1.340	-0.670
2020/01/31 21:39:23.0	348.850	0.180	-1.300	-0.720
2020/01/31 21:39:23.1	348.870	0.140	-1.260	-0.760
2020/01/31 21:39:23.2	348.890	0.090	-1.210	-0.800
2020/01/31 21:39:23.3	348.920	0.050	-1.160	-0.840
2020/01/31 21:39:23.4	348.940	0.010	-1.110	-0.880
2020/01/31 21:39:23.5	348.970	-0.030	-1.050	-0.910
2020/01/31 21:39:23.6	349.000	-0.080	-1.000	-0.940
2020/01/31 21:39:23.7	349.020	-0.120	-0.940	-0.970
2020/01/31 21:39:23.8	349.050	-0.160	-0.870	-0.990
2020/01/31 21:39:23.9	349.090	-0.190	-0.810	-1.010
2020/01/31 21:39:24.0	349.110	-0.230	-0.750	-1.020
2020/01/31 21:39:24.1	349.140	-0.270	-0.680	-1.030
2020/01/31 21:39:24.2	349.160	-0.300	-0.620	-1.040
2020/01/31 21:39:24.3	349.180	-0.330	-0.550	-1.040
2020/01/31 21:39:24.4	349.200	-0.350	-0.480	-1.040
2020/01/31 21:39:24.5	349.210	-0.380	-0.420	-1.040
2020/01/31 21:39:24.6	349.220	-0.400	-0.360	-1.030
2020/01/31 21:39:24.7	349.230	-0.420	-0.290	-1.010
2020/01/31 21:39:24.8	349.240	-0.430	-0.230	-0.990
2020/01/31 21:39:24.9	349.250	-0.450	-0.170	-0.970
2020/01/31 21:39:25.0	349.260	-0.460	-0.110	-0.950
2020/01/31 21:39:25.1	349.260	-0.470	-0.060	-0.920
2020/01/31 21:39:25.2	349.250	-0.470	-0.010	-0.900
2020/01/31 21:39:25.3	349.250	-0.480	0.040	-0.870
2020/01/31 21:39:25.4	349.240	-0.480	0.090	-0.840
2020/01/31 21:39:25.5	349.230	-0.470	0.130	-0.800
2020/01/31 21:39:25.6	349.220	-0.470	0.180	-0.770
2020/01/31 21:39:25.7	349.200	-0.470	0.210	-0.730
2020/01/31 21:39:25.8	349.190	-0.460	0.250	-0.700
2020/01/31 21:39:25.9	349.180	-0.450	0.280	-0.660
2020/01/31 21:39:26.0	349.160	-0.440	0.310	-0.620
2020/01/31 21:39:26.1	349.140	-0.430	0.330	-0.580
2020/01/31 21:39:26.2	349.120	-0.420	0.360	-0.540
2020/01/31 21:39:26.3	349.100	-0.410	0.380	-0.500
2020/01/31 21:39:26.4	349.080	-0.390	0.390	-0.450
2020/01/31 21:39:26.5	349.050	-0.380	0.410	-0.410
2020/01/31 21:39:26.6	349.030	-0.370	0.420	-0.370
2020/01/31 21:39:26.7	349.000	-0.350	0.440	-0.330
2020/01/31 21:39:26.8	348.980	-0.340	0.450	-0.280
2020/01/31 21:39:26.9	348.950	-0.330	0.450	-0.240
2020/01/31 21:39:27.0	348.920	-0.320	0.460	-0.190
2020/01/31 21:39:27.1	348.890	-0.300	0.470	-0.150
2020/01/31 21:39:27.2	348.860	-0.290	0.480	-0.100
2020/01/31 21:39:27.3	348.830	-0.280	0.490	-0.060
2020/01/31 21:39:27.4	348.800	-0.280	0.500	-0.010
2020/01/31 21:39:27.5	348.760	-0.270	0.510	0.030
2020/01/31 21:39:27.6	348.730	-0.260	0.520	0.070
2020/01/31 21:39:27.7	348.700	-0.260	0.530	0.110
2020/01/31 21:39:27.8	348.660	-0.250	0.540	0.150
2020/01/31 21:39:27.9	348.620	-0.250	0.550	0.190
2020/01/31 21:39:28.0	348.580	-0.240	0.560	0.230
2020/01/31 21:39:28.1	348.550	-0.240	0.580	0.270
2020/01/31 21:39:28.2	348.510	-0.240	0.590	0.310
2020/01/31 21:39:28.3	348.470	-0.230	0.600	0.340
2020/01/31 21:39:28.4	348.430	-0.230	0.620	0.380
2020/01/31 21:39:28.5	348.390	-0.230	0.630	0.420
2020/01/31 21:39:28.6	348.340	-0.230	0.640	0.450
2020/01/31 21:39:28.7	348.300	-0.230	0.650	0.490
2020/01/31 21:39:28.8	348.260	-0.220	0.650	0.520
2020/01/31 21:39:28.9	348.200	-0.220	0.660	0.550
2020/01/31 21:39:29.0	348.160	-0.210	0.660	0.580
2020/01/31 21:39:29.1	348.120	-0.210	0.660	0.610
2020/01/31 21:39:29.2	348.070	-0.200	0.650	0.630
2020/01/31 21:39:29.3	348.030	-0.200	0.640	0.650
2020/01/31 21:39:29.4	347.990	-0.190	0.630	0.670
2020/01/31 21:39:29.5	347.950	-0.180	0.610	0.680
2020/01/31 21:39:29.6	347.910	-0.160	0.580	0.690
2020/01/31 21:39:29.7	347.870	-0.150	0.560	0.700
2020/01/31 21:39:29.8	347.840	-0.140	0.520	0.700
2020/01/31 21:39:29.9	347.800	-0.120	0.480	0.700
2020/01/31 21:39:30.0	347.770	-0.100	0.440	0.700
2020/01/31 21:39:30.1	347.740	-0.080	0.390	0.690
2020/01/31 21:39:30.2	347.710	-0.060	0.340	0.680
2020/01/31 21:39:30.3	347.680	-0.030	0.280	0.670
2020/01/31 21:39:30.4	347.650	-0.010	0.220	0.650
2020/01/31 21:39:30.5	347.620	0.020	0.160	0.630
2020/01/31 21:39:30.6	347.600	0.050	0.090	0.620
2020/01/31 21:39:30.7	347.570	0.080	0.020	0.600
2020/01/31 21:39:30.8	347.540	0.110	-0.050	0.580
2020/01/31 21:39:30.9	347.530	0.140	-0.130	0.550
2020/01/31 21:39:31.0	347.500	0.170	-0.210	0.530
2020/01/31 21:39:31.1	347.480	0.210	-0.280	0.500
2020/01/31 21:39:31.2	347.460	0.240	-0.360	0.480
2020/01/31 21:39:31.3	347.440	0.270	-0.440	0.460
2020/01/31 21:39:31.4	347.410	0.300	-0.510	0.430
2020/01/31 21:39:31.5	347.390	0.330	-0.580	0.410
2020/01/31 21:39:31.6	347.370	0.370	-0.660	0.390
2020/01/31 21:39:31.7	347.350	0.400	-0.730	0.360
2020/01/31 21:39:31.8	347.340	0.420	-0.790	0.340
2020/01/31 21:39:31.9	347.320	0.450	-0.860	0.320
2020/01/31 21:39:32.0	347.300	0.480	-0.920	0.290
2020/01/31 21:39:32.1	347.290	0.500	-0.980	0.270
2020/01/31 21:39:32.2	347.280	0.520	-1.030	0.250
2020/01/31 21:39:32.3	347.270	0.540	-1.080	0.220
2020/01/31 21:39:32.4	347.260	0.550	-1.130	0.200
2020/01/31 21:39:32.5	347.250	0.570	-1.170	0.170
2020/01/31 21:39:32.6	347.250	0.580	-1.210	0.150
2020/01/31 21:39:32.7	347.250	0.590	-1.250	0.120
2020/01/31 21:39:32.8	347.250	0.590	-1.280	0.100
2020/01/31 21:39:32.9	347.260	0.600	-1.300	0.070
2020/01/31 21:39:33.0	347.270	0.600	-1.330	0.040
2020/01/31 21:39:33.1	347.280	0.600	-1.350	0.010
2020/01/31 21:39:33.2	347.300	0.590	-1.360	-0.020
2020/01/31 21:39:33.3	347.320	0.580	-1.370	-0.050
2020/01/31 21:39:33.4	347.340	0.580	-1.380	-0.080
2020/01/31 21:39:33.5	347.360	0.560	-1.380	-0.110
2020/01/31 21:39:33.6	347.380	0.550	-1.380	-0.150
2020/01/31 21:39:33.7	347.410	0.540	-1.370	-0.180
2020/01/31 21:39:33.8	347.440	0.520	-1.360	-0.210
2020/01/31 21:39:33.9	347.480	0.500	-1.350	-0.240
2020/01/31 21:39:34.0	347.510	0.480	-1.330	-0.270
2020/01/31 21:39:34.1	347.540	0.460	-1.300	-0.300
2020/01/31 21:39:34.2	347.580	0.440	-1.270	-0.330
2020/01/31 21:39:34.3	347.610	0.420	-1.240	-0.350
2020/01/31 21:39:34.4	347.650	0.400	-1.200	-0.380
2020/01/31 21:39:34.5	347.680	0.370	-1.160	-0.400
2020/01/31 21:39:34.6	347.720	0.350	-1.120	-0.420
2020/01/31 21:39:34.7	347.750	0.320	-1.070	-0.440
2020/01/31 21:39:34.8	347.790	0.300	-1.030	-0.460
2020/01/31 21:39:34.9	347.820	0.270	-0.970	-0.470
2020/01/31 21:39:35.0	347.860	0.240	-0.920	-0.490
2020/01/31 21:39:35.1	347.890	0.210	-0.860	-0.500
2020/01/31 21:39:35.2	347.920	0.190	-0.800	-0.510
2020/01/31 21:39:35.3	347.950	0.160	-0.750	-0.510
2020/01/31 21:39:35.4	347.980	0.130	-0.690	-0.520
2020/01/31 21:39:35.5	348.010	0.100	-0.630	-0.520
2020/01/31 21:39:35.6	348.030	0.070	-0.560	-0.520
2020/01/31 21:39:35.7	348.050	0.040	-0.500	-0.510
2020/01/31 21:39:35.8	348.070	0.010	-0.440	-0.510
2020/01/31 21:39:35.9	348.100	-0.020	-0.380	-0.500
2020/01/31 21:39:36.0	348.110	-0.050	-0.320	-0.490
2020/01/31 21:39:36.1	348.130	-0.080	-0.270	-0.480
2020/01/31 21:39:36.2	348.140	-0.110	-0.210	-0.470
2020/01/31 21:39:36.3	348.140	-0.150	-0.150	-0.460
2020/01/31 21:39:36.4	348.150	-0.180	-0.100	-0.440
2020/01/31 21:39:36.5	348.150	-0.210	-0.050	-0.420
2020/01/31 21:39:36.6	348.150	-0.240	-0.000	-0.400
2020/01/31 21:39:36.7	348.140	-0.270	0.050	-0.380
2020/01/31 21:39:36.8	348.130	-0.300	0.090	-0.350
2020/01/31 21:39:36.9	348.120	-0.330	0.130	-0.320
2020/01/31 21:39:37.0	348.100	-0.360	0.170	-0.290
2020/01/31 21:39:37.1	348.080	-0.390	0.210	-0.260
2020/01/31 21:39:37.2	348.050	-0.420	0.250	-0.230
2020/01/31 21:39:37.3	348.030	-0.450	0.280	-0.190
2020/01/31 21:39:37.4	347.990	-0.470	0.310	-0.160
2020/01/31 21:39:37.5	347.960	-0.500	0.340	-0.120
2020/01/31 21:39:37.6	347.920	-0.520	0.370	-0.090
2020/01/31 21:39:37.7	347.880	-0.540	0.400	-0.050
2020/01/31 21:39:37.8	347.840	-0.560	0.420	-0.020
2020/01/31 21:39:37.9	347.790	-0.580	0.440	0.020
2020/01/31 21:39:38.0	347.740	-0.590	0.460	0.050
2020/01/31 21:39:38.1	347.690	-0.600	0.480	0.090
2020/01/31 21:39:38.2	347.640	-0.610	0.500	0.120
2020/01/31 21:39:38.3	347.590	-0.620	0.510	0.150
2020/01/31 21:39:38.4	347.540	-0.620	0.520	0.180
2020/01/31 21:39:38.5	347.480	-0.620	0.530	0.210
2020/01/31 21:39:38.6	347.420	-0.620	0.540	0.240
2020/01/31 21:39:38.7	347.370	-0.610	0.540	0.270
2020/01/31 21:39:38.8	347.310	-0.600	0.540	0.300
2020/01/31 21:39:38.9	347.250	-0.590	0.540	0.320
2020/01/31 21:39:39.0	347.190	-0.570	0.530	0.350
2020/01/31 21:39:39.1	347.130	-0.550	0.530	0.370
2020/01/31 21:39:39.2	347.070	-0.520	0.520	0.390
2020/01/31 21:39:39.3	347.010	-0.490	0.510	0.410
2020/01/31 21:39:39.4	346.950	-0.460	0.490	0.430
2020/01/31 21:39:39.5	346.890	-0.430	0.480	0.450
2020/01/31 21:39:39.6	346.820	-0.390	0.460	0.470
2020/01/31 21:39:39.7	346.760	-0.350	0.440	0.480
2020/01/31 21:39:39.8	346.700	-0.310	0.420	0.500
2020/01/31 21:39:39.9	346.640	-0.260	0.390	0.510
2020/01/31 21:39:40.0	346.580	-0.220	0.360	0.520
2020/01/31 21:39:40.1	346.520	-0.170	0.330	0.530
2020/01/31 21:39:40.2	346.470	-0.120	0.290	0.540
2020/01/31 21:39:40.3	346.410	-0.070	0.260	0.540
2020/01/31 21:39:40.4	346.360	-0.020	0.220	0.540
2020/01/31 21:39:40.5	346.320	0.030	0.180	0.540
2020/01/31 21:39:40.6	346.270	0.090	0.130	0.540
2020/01/31 21:39:40.7	346.230	0.140	0.080	0.540
2020/01/31 21:39:40.8	346.200	0.190	0.030	0.530
2020/01/31 21:39:40.9	346.170	0.240	-0.030	0.520
2020/01/31 21:39:41.0	346.150	0.290	-0.090	0.500
2020/01/31 21:39:41.1	346.130	0.340	-0.150	0.490
2020/01/31 21:39:41.2	346.110	0.390	-0.210	0.470
2020/01/31 21:39:41.3	346.100	0.430	-0.280	0.440
2020/01/31 21:39:41.4	346.090	0.470	-0.340	0.420
2020/01/31 21:39:41.5	346.090	0.510	-0.410	0.390
2020/01/31 21:39:41.6	346.090	0.550	-0.470	0.360
2020/01/31 21:39:41.7	346.100	0.580	-0.540	0.320
2020/01/31 21:39:41.8	346.110	0.610	-0.600	0.280
2020/01/31 21:39:41.9	346.130	0.640	-0.660	0.250
2020/01/31 21:39:42.0	346.150	0.660	-0.720	0.210
2020/01/31 21:39:42.1	346.160	0.680	-0.770	0.170
2020/01/31 21:39:42.2	346.180	0.690	-0.820	0.130
2020/01/31 21:39:42.3	346.210	0.700	-0.870	0.090
2020/01/31 21:39:42.4	346.230	0.710	-0.900	0.050
2020/01/31 21:39:42.5	346.250	0.700	-0.940	0.010
2020/01/31 21:39:42.6	346.280	0.700	-0.960	-0.030
2020/01/31 21:39:42.7	346.310	0.690	-0.980	-0.070
2020/01/31 21:39:42.8	346.330	0.670	-0.980	-0.100
2020/01/31 21:39:42.9	346.370	0.650	-0.990	-0.130
2020/01/31 21:39:43.0	346.390	0.630	-0.980	-0.160
2020/01/31 21:39:43.1	346.420	0.600	-0.960	-0.190
2020/01/31 21:39:43.2	346.440	0.560	-0.940	-0.220
2020/01/31 21:39:43.3	346.460	0.520	-0.910	-0.240
2020/01/31 21:39:43.4	346.480	0.480	-0.870	-0.260
2020/01/31 21:39:43.5	346.500	0.430	-0.830	-0.280
2020/01/31 21:39:43.6	346.520	0.380	-0.770	-0.300
2020/01/31 21:39:43.7	346.540	0.330	-0.720	-0.310
2020/01/31 21:39:43.8	346.550	0.270	-0.660	-0.330
2020/01/31 21:39:43.9	346.560	0.220	-0.590	-0.330
2020/01/31 21:39:44.0	346.570	0.150	-0.520	-0.340
2020/01/31 21:39:44.1	346.580	0.090	-0.440	-0.340
2020/01/31 21:39:44.2	346.580	0.030	-0.370	-0.340
2020/01/31 21:39:44.3	346.570	-0.030	-0.290	-0.340
2020/01/31 21:39:44.4	346.570	-0.100	-0.210	-0.330
2020/01/31 21:39:44.5	346.560	-0.160	-0.130	-0.320
2020/01/31 21:39:44.6	346.550	-0.230	-0.050	-0.310
2020/01/31 21:39:44.7	346.530	-0.290	0.020	-0.290
2020/01/31 21:39:44.8	346.520	-0.350	0.100	-0.280
2020/01/31 21:39:44.9	346.500	-0.400	0.170	-0.250
2020/01/31 21:39:45.0	346.480	-0.460	0.240	-0.230
2020/01/31 21:39:45.1	346.450	-0.510	0.300	-0.210
2020/01/31 21:39:45.2	346.430	-0.560	0.350	-0.180
2020/01/31 21:39:45.3	346.400	-0.600	0.400	-0.160
2020/01/31 21:39:45.4	346.380	-0.640	0.440	-0.130
2020/01/31 21:39:45.5	346.350	-0.670	0.470	-0.110
2020/01/31 21:39:45.6	346.330	-0.700	0.500	-0.090
2020/01/31 21:39:45.7	346.300	-0.730	0.510	-0.070
2020/01/31 21:39:45.8	346.280	-0.750	0.520	-0.050
2020/01/31 21:39:45.9	346.290	-0.760	0.500	-0.030
2020/01/31 21:39:46.0	346.270	-0.760	0.490	-0.010
2020/01/31 21:39:46.1	346.250	-0.760	0.470	0.000
2020/01/31 21:39:46.2	346.230	-0.760	0.430	0.020
2020/01/31 21:39:46.3	346.210	-0.740	0.390	0.030
2020/01/31 21:39:46.4	346.190	-0.720	0.340	0.040
2020/01/31 21:39:46.5	346.180	-0.700	0.280	0.050
2020/01/31 21:39:46.6	346.160	-0.670	0.220	0.050
2020/01/31 21:39:46.7	346.150	-0.630	0.150	0.060
2020/01/31 21:39:46.8	346.140	-0.590	0.070	0.070
2020/01/31 21:39:46.9	346.130	-0.540	-0.010	0.070
2020/01/31 21:39:47.0	346.120	-0.490	-0.100	0.080
2020/01/31 21:39:47.1	346.110	-0.440	-0.190	0.080
2020/01/31 21:39:47.2	346.100	-0.380	-0.280	0.080
2020/01/31 21:39:47.3	346.090	-0.320	-0.370	0.080
2020/01/31 21:39:47.4	346.080	-0.260	-0.470	0.090
2020/01/31 21:39:47.5	346.080	-0.190	-0.560	0.090
2020/01/31 21:39:47.6	346.070	-0.120	-0.650	0.090
2020/01/31 21:39:47.7	346.070	-0.050	-0.730	0.090
2020/01/31 21:39:47.8	346.060	0.010	-0.810	0.100
2020/01/31 21:39:47.9	346.050	0.080	-0.890	0.100
2020/01/31 21:39:48.0	346.040	0.150	-0.960	0.110
2020/01/31 21:39:48.1	346.040	0.220	-1.020	0.120
2020/01/31 21:39:48.2	346.030	0.280	-1.070	0.130
2020/01/31 21:39:48.3	346.020	0.340	-1.120	0.140
2020/01/31 21:39:48.4	346.010	0.400	-1.160	0.150
2020/01/31 21:39:48.5	345.990	0.460	-1.190	0.170
2020/01/31 21:39:48.6	345.980	0.510	-1.210	0.190
2020/01/31 21:39:48.7	345.970	0.560	-1.210	0.210
2020/01/31 21:39:48.8	345.950	0.600	-1.210	0.230
2020/01/31 21:39:48.9	345.930	0.640	-1.200	0.250
2020/01/31 21:39:49.0	345.910	0.670	-1.180	0.280
2020/01/31 21:39:49.1	345.890	0.700	-1.150	0.300
2020/01/31 21:39:49.2	345.870	0.730	-1.110	0.330
2020/01/31 21:39:49.3	345.840	0.750	-1.060	0.360
2020/01/31 21:39:49.4	345.820	0.760	-1.000	0.390
2020/01/31 21:39:49.5	345.790	0.770	-0.930	0.420
2020/01/31 21:39:49.6	345.770	0.770	-0.860	0.450
2020/01/31 21:39:49.7	345.740	0.770	-0.790	0.480
2020/01/31 21:39:49.8	345.710	0.760	-0.700	0.510
2020/01/31 21:39:49.9	345.700	0.750	-0.620	0.540
2020/01/31 21:39:50.0	345.670	0.730	-0.530	0.560
2020/01/31 21:39:50.1	345.640	0.710	-0.440	0.590
2020/01/31 21:39:50.2	345.620	0.680	-0.340	0.610
2020/01/31 21:39:50.3	345.590	0.650	-0.250	0.630
2020/01/31 21:39:50.4	345.570	0.620	-0.160	0.650
2020/01/31 21:39:50.5	345.540	0.580	-0.070	0.670
2020/01/31 21:39:50.6	345.520	0.540	0.020	0.680
2020/01/31 21:39:50.7	345.500	0.500	0.110	0.700
2020/01/31 21:39:50.8	345.480	0.450	0.190	0.710
2020/01/31 21:39:50.9	345.460	0.400	0.270	0.720
2020/01/31 21:39:51.0	345.450	0.350	0.340	0.720
2020/01/31 21:39:51.1	345.430	0.300	0.410	0.720
2020/01/31 21:39:51.2	345.420	0.250	0.470	0.720
2020/01/31 21:39:51.3	345.400	0.200	0.520	0.710
2020/01/31 21:39:51.4	345.390	0.150	0.570	0.690
2020/01/31 21:39:51.5	345.390	0.090	0.610	0.680
2020/01/31 21:39:51.6	345.380	0.040	0.650	0.660
2020/01/31 21:39:51.7	345.380	-0.010	0.670	0.630
2020/01/31 21:39:51.8	345.380	-0.060	0.690	0.600
2020/01/31 21:39:51.9	345.370	-0.110	0.700	0.560
2020/01/31 21:39:52.0	345.380	-0.160	0.700	0.520
2020/01/31 21:39:52.1	345.380	-0.200	0.690	0.480
2020/01/31 21:39:52.2	345.390	-0.250	0.670	0.430
2020/01/31 21:39:52.3	345.400	-0.290	0.640	0.380
2020/01/31 21:39:52.4	345.420	-0.330	0.610	0.320
2020/01/31 21:39:52.5	345.430	-0.360	0.560	0.260
2020/01/31 21:39:52.6	345.450	-0.400	0.510	0.200
2020/01/31 21:39:52.7	345.470	-0.430	0.450	0.140
2020/01/31 21:39:52.8	345.490	-0.460	0.390	0.080
2020/01/31 21:39:52.9	345.510	-0.480	0.320	0.010
2020/01/31 21:39:53.0	345.530	-0.500	0.250	-0.060
2020/01/31 21:39:53.1	345.550	-0.520	0.170	-0.120
2020/01/31 21:39:53.2	345.580	-0.540	0.090	-0.190
2020/01/31 21:39:53.3	345.600	-0.550	0.000	-0.260
2020/01/31 21:39:53.4	345.630	-0.570	-0.090	-0.320
2020/01/31 21:39:53.5	345.650	-0.570	-0.170	-0.390
2020/01/31 21:39:53.6	345.680	-0.580	-0.260	-0.450
2020/01/31 21:39:53.7	345.700	-0.580	-0.350	-0.510
2020/01/31 21:39:53.8	345.730	-0.580	-0.440	-0.580
2020/01/31 21:39:53.9	345.750	-0.580	-0.520	-0.640
2020/01/31 21:39:54.0	345.780	-0.580	-0.610	-0.700
2020/01/31 21:39:54.1	345.810	-0.570	-0.690	-0.760
2020/01/31 21:39:54.2	345.830	-0.570	-0.770	-0.810
2020/01/31 21:39:54.3	345.860	-0.560	-0.840	-0.870
2020/01/31 21:39:54.4	345.880	-0.550	-0.910	-0.920
2020/01/31 21:39:54.5	345.910	-0.530	-0.980	-0.970
2020/01/31 21:39:54.6	345.930	-0.520	-1.040	-1.020
2020/01/31 21:39:54.7	345.960	-0.500	-1.090	-1.060
2020/01/31 21:39:54.8	345.980	-0.480	-1.140	-1.100
2020/01/31 21:39:54.9	346.010	-0.470	-1.180	-1.130
2020/01/31 21:39:55.0	346.030	-0.450	-1.210	-1.160
2020/01/31 21:39:55.1	346.050	-0.430	-1.240	-1.180
2020/01/31 21:39:55.2	346.070	-0.400	-1.250	-1.200
2020/01/31 21:39:55.3	346.090	-0.380	-1.260	-1.220
2020/01/31 21:39:55.4	346.110	-0.360	-1.260	-1.230
2020/01/31 21:39:55.5	346.120	-0.330	-1.250	-1.230
2020/01/31 21:39:55.6	346.130	-0.310	-1.240	-1.230
2020/01/31 21:39:55.7	346.140	-0.290	-1.210	-1.220
2020/01/31 21:39:55.8	346.150	-0.260	-1.180	-1.200
2020/01/31 21:39:55.9	346.150	-0.240	-1.140	-1.180
2020/01/31 21:39:56.0	346.150	-0.210	-1.090	-1.150
2020/01/31 21:39:56.1	346.160	-0.190	-1.030	-1.120
2020/01/31 21:39:56.2	346.160	-0.170	-0.960	-1.080
2020/01/31 21:39:56.3	346.150	-0.140	-0.890	-1.040
2020/01/31 21:39:56.4	346.150	-0.120	-0.810	-0.990
2020/01/31 21:39:56.5	346.140	-0.100	-0.730	-0.940
2020/01/31 21:39:56.6	346.120	-0.080	-0.640	-0.880
2020/01/31 21:39:56.7	346.110	-0.060	-0.540	-0.810
2020/01/31 21:39:56.8	346.090	-0.040	-0.440	-0.740
2020/01/31 21:39:56.9	346.070	-0.020	-0.340	-0.660
2020/01/31 21:39:57.0	346.040	-0.000	-0.240	-0.580
2020/01/31 21:39:57.1	346.010	0.020	-0.130	-0.490
2020/01/31 21:39:57.2	345.980	0.030	-0.010	-0.400
2020/01/31 21:39:57.3	345.940	0.050	0.100	-0.310
2020/01/31 21:39:57.4	345.900	0.070	0.210	-0.220
2020/01/31 21:39:57.5	345.860	0.080	0.320	-0.120
2020/01/31 21:39:57.6	345.820	0.100	0.420	-0.020
2020/01/31 21:39:57.7	345.770	0.110	0.530	0.090
2020/01/31 21:39:57.8	345.730	0.130	0.630	0.190
2020/01/31 21:39:57.9	345.690	0.140	0.720	0.300
2020/01/31 21:39:58.0	345.640	0.150	0.810	0.400
2020/01/31 21:39:58.1	345.590	0.170	0.890	0.500
2020/01/31 21:39:58.2	345.530	0.180	0.960	0.600
2020/01/31 21:39:58.3	345.480	0.190	1.030	0.700
2020/01/31 21:39:58.4	345.430	0.210	1.080	0.790
2020/01/31 21:39:58.5	345.370	0.220	1.130	0.880
2020/01/31 21:39:58.6	345.320	0.230	1.160	0.970
2020/01/31 21:39:58.7	345.270	0.240	1.190	1.050
2020/01/31 21:39:58.8	345.220	0.260	1.200	1.120
2020/01/31 21:39:58.9	345.160	0.270	1.210	1.190
2020/01/31 21:39:59.0	345.110	0.280	1.200	1.260
2020/01/31 21:39:59.1	345.060	0.300	1.180	1.310
2020/01/31 21:39:59.2	345.020	0.310	1.150	1.360
2020/01/31 21:39:59.3	344.980	0.320	1.110	1.390
2020/01/31 21:39:59.4	344.940	0.340	1.060	1.430
2020/01/31 21:39:59.5	344.900	0.350	0.990	1.450
2020/01/31 21:39:59.6	344.870	0.370	0.920	1.470
2020/01/31 21:39:59.7	344.840	0.380	0.840	1.480
2020/01/31 21:39:59.8	344.810	0.400	0.750	1.480
2020/01/31 21:39:59.9	344.820	0.410	0.650	1.470
2020/01/31 21:40:00.0	344.800	0.430	0.540	1.460
2020/01/31 21:40:00.1	344.780	0.450	0.430	1.450
2020/01/31 21:40:00.2	344.770	0.460	0.310	1.430
2020/01/31 21:40:00.3	344.760	0.480	0.180	1.400
2020/01/31 21:40:00.4	344.750	0.490	0.050	1.370
2020/01/31 21:40:00.5	344.740	0.510	-0.080	1.340
2020/01/31 21:40:00.6	344.740	0.520	-0.210	1.300
2020/01/31 21:40:00.7	344.740	0.530	-0.350	1.250
2020/01/31 21:40:00.8	344.750	0.540	-0.480	1.200
2020/01/31 21:40:00.9	344.760	0.550	-0.620	1.150
2020/01/31 21:40:01.0	344.770	0.560	-0.750	1.090
2020/01/31 21:40:01.1	344.790	0.570	-0.880	1.020
2020/01/31 21:40:01.2	344.800	0.570	-1.010	0.950
2020/01/31 21:40:01.3	344.820	0.570	-1.130	0.880
2020/01/31 21:40:01.4	344.840	0.570	-1.250	0.800
2020/01/31 21:40:01.5	344.870	0.570	-1.370	0.720
2020/01/31 21:40:01.6	344.900	0.570	-1.480	0.640
2020/01/31 21:40:01.7	344.930	0.560	-1.580	0.550
2020/01/31 21:40:01.8	344.960	0.560	-1.670	0.460
2020/01/31 21:40:01.9	345.000	0.550	-1.760	0.370
2020/01/31 21:40:02.0	345.030	0.540	-1.840	0.280
2020/01/31 21:40:02.1	345.080	0.520	-1.910	0.190
2020/01/31 21:40:02.2	345.120	0.510	-1.970	0.090
2020/01/31 21:40:02.3	345.160	0.490	-2.020	0.000
2020/01/31 21:40:02.4	345.210	0.470	-2.060	-0.090
2020/01/31 21:40:02.5	345.260	0.450	-2.090	-0.180
2020/01/31 21:40:02.6	345.300	0.420	-2.110	-0.270
2020/01/31 21:40:02.7	345.350	0.390	-2.120	-0.350
2020/01/31 21:40:02.8	345.400	0.360	-2.110	-0.440
2020/01/31 21:40:02.9	345.450	0.330	-2.100	-0.520
2020/01/31 21:40:03.0	345.490	0.300	-2.070	-0.590
2020/01/31 21:40:03.1	345.540	0.270	-2.030	-0.660
2020/01/31 21:40:03.2	345.590	0.230	-1.990	-0.730
2020/01/31 21:40:03.3	345.630	0.190	-1.920	-0.790
2020/01/31 21:40:03.4	345.670	0.150	-1.850	-0.850
2020/01/31 21:40:03.5	345.710	0.110	-1.770	-0.900
2020/01/31 21:40:03.6	345.750	0.060	-1.680	-0.940
2020/01/31 21:40:03.7	345.780	0.020	-1.580	-0.980
2020/01/31 21:40:03.8	345.810	-0.030	-1.470	-1.010
2020/01/31 21:40:03.9	345.840	-0.070	-1.350	-1.030
2020/01/31 21:40:04.0	345.860	-0.120	-1.230	-1.050
2020/01/31 21:40:04.1	345.880	-0.170	-1.100	-1.060
2020/01/31 21:40:04.2	345.900	-0.220	-0.960	-1.060
2020/01/31 21:40:04.3	345.910	-0.270	-0.820	-1.060
2020/01/31 21:40:04.4	345.910	-0.320	-0.680	-1.050
2020/01/31 21:40:04.5	345.920	-0.370	-0.530	-1.030
2020/01/31 21:40:04.6	345.910	-0.420	-0.380	-1.010
2020/01/31 21:40:04.7	345.910	-0.470	-0.230	-0.980
2020/01/31 21:40:04.8	345.900	-0.520	-0.080	-0.950
2020/01/31 21:40:04.9	345.890	-0.570	0.070	-0.910
2020/01/31 21:40:05.0	345.870	-0.610	0.220	-0.870
2020/01/31 21:40:05.1	345.850	-0.660	0.360	-0.820
2020/01/31 21:40:05.2	345.830	-0.700	0.500	-0.770
2020/01/31 21:40:05.3	345.800	-0.740	0.630	-0.720
2020/01/31 21:40:05.4	345.760	-0.780	0.760	-0.660
2020/01/31 21:40:05.5	345.730	-0.810	0.880	-0.600
2020/01/31 21:40:05.6	345.690	-0.840	0.990	-0.540
2020/01/31 21:40:05.7	345.650	-0.870	1.100	-0.480
2020/01/31 21:40:05.8	345.610	-0.900	1.200	-0.410
2020/01/31 21:40:05.9	345.540	-0.920	1.280	-0.350
2020/01/31 21:40:06.0	345.500	-0.940	1.360	-0.280
2020/01/31 21:40:06.1	345.460	-0.960	1.420	-0.220
2020/01/31 21:40:06.2	345.410	-0.970	1.480	-0.150
2020/01/31 21:40:06.3	345.370	-0.980	1.530	-0.090
2020/01/31 21:40:06.4	345.320	-0.980	1.560	-0.030
2020/01/31 21:40:06.5	345.280	-0.980	1.580	0.030
2020/01/31 21:40:06.6	345.230	-0.980	1.590	0.080
2020/01/31 21:40:06.7	345.190	-0.970	1.590	0.130
2020/01/31 21:40:06.8	345.140	-0.960	1.580	0.180
2020/01/31 21:40:06.9	345.100	-0.940	1.560	0.230
2020/01/31 21:40:07.0	345.060	-0.920	1.530	0.270
2020/01/31 21:40:07.1	345.020	-0.900	1.480	0.310
2020/01/31 21:40:07.2	344.980	-0.870	1.430	0.350
2020/01/31 21:40:07.3	344.950	-0.840	1.370	0.380
2020/01/31 21:40:07.4	344.920	-0.800	1.290	0.400
2020/01/31 21:40:07.5	344.880	-0.760	1.210	0.430
2020/01/31 21:40:07.6	344.850	-0.720	1.120	0.450
2020/01/31 21:40:07.7	344.830	-0.680	1.030	0.460
2020/01/31 21:40:07.8	344.800	-0.630	0.930	0.470
2020/01/31 21:40:07.9	344.780	-0.580	0.820	0.480
2020/01/31 21:40:08.0	344.760	-0.520	0.710	0.480
2020/01/31 21:40:08.1	344.740	-0.470	0.590	0.490
2020/01/31 21:40:08.2	344.730	-0.410	0.470	0.490
2020/01/31 21:40:08.3	344.720	-0.350	0.350	0.490
2020/01/31 21:40:08.4	344.710	-0.290	0.230	0.480
2020/01/31 21:40:08.5	344.700	-0.220	0.110	0.480
2020/01/31 21:40:08.6	344.700	-0.160	-0.020	0.480
2020/01/31 21:40:08.7	344.700	-0.090	-0.140	0.470
2020/01/31 21:40:08.8	344.700	-0.030	-0.260	0.460
2020/01/31 21:40:08.9	344.700	0.040	-0.380	0.460
2020/01/31 21:40:09.0	344.710	0.110	-0.490	0.450
2020/01/31 21:40:09.1	344.720	0.170	-0.600	0.450
2020/01/31 21:40:09.2	344.730	0.230	-0.700	0.440
2020/01/31 21:40:09.3	344.740	0.300	-0.800	0.440
2020/01/31 21:40:09.4	344.750	0.360	-0.900	0.430
2020/01/31 21:40:09.5	344.760	0.420	-0.980	0.430
2020/01/31 21:40:09.6	344.770	0.470	-1.060	0.430
2020/01/31 21:40:09.7	344.780	0.530	-1.130	0.430
2020/01/31 21:40:09.8	344.790	0.580	-1.190	0.430
2020/01/31 21:40:09.9	344.810	0.630	-1.250	0.430
2020/01/31 21:40:10.0	344.820	0.670	-1.290	0.430
2020/01/31 21:40:10.1	344.830	0.710	-1.330	0.440
2020/01/31 21:40:10.2	344.840	0.750	-1.360	0.440
2020/01/31 21:40:10.3	344.840	0.780	-1.380	0.450
2020/01/31 21:40:10.4	344.840	0.810	-1.400	0.460
2020/01/31 21:40:10.5	344.840	0.830	-1.400	0.470
2020/01/31 21:40:10.6	344.850	0.850	-1.400	0.480
2020/01/31 21:40:10.7	344.840	0.870	-1.390	0.490
2020/01/31 21:40:10.8	344.840	0.880	-1.370	0.500
2020/01/31 21:40:10.9	344.840	0.890	-1.350	0.520
2020/01/31 21:40:11.0	344.830	0.890	-1.320	0.530
2020/01/31 21:40:11.1	344.820	0.890	-1.280	0.540
2020/01/31 21:40:11.2	344.820	0.890	-1.240	0.550
2020/01/31 21:40:11.3	344.810	0.880	-1.190	0.560
2020/01/31 21:40:11.4	344.800	0.870	-1.140	0.570
2020/01/31 21:40:11.5	344.790	0.850	-1.090	0.570
2020/01/31 21:40:11.6	344.780	0.830	-1.030	0.580
2020/01/31 21:40:11.7	344.770	0.810	-0.970	0.590
2020/01/31 21:40:11.8	344.760	0.780	-0.900	0.590
2020/01/31 21:40:11.9	344.750	0.760	-0.830	0.590
2020/01/31 21:40:12.0	344.740	0.730	-0.770	0.590
2020/01/31 21:40:12.1	344.730	0.690	-0.700	0.590
2020/01/31 21:40:12.2	344.720	0.660	-0.630	0.590
2020/01/31 21:40:12.3	344.710	0.620	-0.560	0.580
2020/01/31 21:40:12.4	344.700	0.580	-0.490	0.580
2020/01/31 21:40:12.5	344.690	0.540	-0.420	0.570
2020/01/31 21:40:12.6	344.680	0.500	-0.350	0.560
2020/01/31 21:40:12.7	344.670	0.460	-0.290	0.550
2020/01/31 21:40:12.8	344.660	0.420	-0.220	0.530
2020/01/31 21:40:12.9	344.650	0.380	-0.160	0.520
2020/01/31 21:40:13.0	344.640	0.340	-0.100	0.510
2020/01/31 21:40:13.1	344.630	0.290	-0.050	0.490
2020/01/31 21:40:13.2	344.630	0.250	0.010	0.470
2020/01/31 21:40:13.3	344.620	0.210	0.060	0.450
2020/01/31 21:40:13.4	344.610	0.170	0.110	0.420
2020/01/31 21:40:13.5	344.610	0.130	0.150	0.400
2020/01/31 21:40:13.6	344.600	0.090	0.190	0.380
2020/01/31 21:40:13.7	344.600	0.060	0.220	0.350
2020/01/31 21:40:13.8	344.600	0.020	0.250	0.330
2020/01/31 21:40:13.9	344.600	-0.010	0.280	0.300
2020/01/31 21:40:14.0	344.590	-0.040	0.300	0.270
2020/01/31 21:40:14.1	344.590	-0.070	0.310	0.250
2020/01/31 21:40:14.2	344.590	-0.100	0.320	0.220
2020/01/31 21:40:14.3	344.590	-0.120	0.320	0.200
2020/01/31 21:40:14.4	344.580	-0.150	0.320	0.170
2020/01/31 21:40:14.5	344.580	-0.170	0.320	0.150
2020/01/31 21:40:14.6	344.580	-0.190	0.300	0.120
2020/01/31 21:40:14.7	344.580	-0.210	0.290	0.100
2020/01/31 21:40:14.8	344.580	-0.220	0.270	0.070
2020/01/31 21:40:14.9	344.580	-0.230	0.240	0.050
2020/01/31 21:40:15.0	344.580	-0.240	0.210	0.030
2020/01/31 21:40:15.1	344.580	-0.250	0.180	0.000
2020/01/31 21:40:15.2	344.590	-0.260	0.140	-0.020
2020/01/31 21:40:15.3	344.590	-0.260	0.100	-0.040
2020/01/31 21:40:15.4	344.600	-0.260	0.050	-0.060
2020/01/31 21:40:15.5	344.610	-0.260	0.000	-0.080
2020/01/31 21:40:15.6	344.610	-0.260	-0.050	-0.110
2020/01/31 21:40:15.7	344.620	-0.250	-0.110	-0.130
2020/01/31 21:40:15.8	344.630	-0.250	-0.170	-0.150
2020/01/31 21:40:15.9	344.650	-0.240	-0.230	-0.170
2020/01/31 21:40:16.0	344.670	-0.230	-0.290	-0.190
2020/01/31 21:40:16.1	344.680	-0.220	-0.360	-0.220
2020/01/31 21:40:16.2	344.700	-0.210	-0.420	-0.240
2020/01/31 21:40:16.3	344.710	-0.200	-0.490	-0.260
2020/01/31 21:40:16.4	344.730	-0.190	-0.560	-0.280
2020/01/31 21:40:16.5	344.750	-0.170	-0.620	-0.300
2020/01/31 21:40:16.6	344.770	-0.160	-0.690	-0.330
2020/01/31 21:40:16.7	344.790	-0.150	-0.750	-0.350
2020/01/31 21:40:16.8	344.810	-0.140	-0.820	-0.370
2020/01/31 21:40:16.9	344.830	-0.130	-0.880	-0.390
2020/01/31 21:40:17.0	344.850	-0.120	-0.930	-0.410
2020/01/31 21:40:17.1	344.870	-0.110	-0.980	-0.430
2020/01/31 21:40:17.2	344.890	-0.110	-1.020	-0.460
2020/01/31 21:40:17.3	344.910	-0.100	-1.060	-0.480
2020/01/31 21:40:17.4	344.930	-0.100	-1.090	-0.500
2020/01/31 21:40:17.5	344.950	-0.100	-1.120	-0.520
2020/01/31 21:40:17.6	344.960	-0.110	-1.140	-0.540
2020/01/31 21:40:17.7	344.980	-0.110	-1.140	-0.560
2020/01/31 21:40:17.8	344.990	-0.120	-1.150	-0.590
2020/01/31 21:40:17.9	344.990	-0.130	-1.140	-0.600
2020/01/31 21:40:18.0	345.010	-0.140	-1.120	-0.620
2020/01/31 21:40:18.1	345.020	-0.160	-1.100	-0.640
2020/01/31 21:40:18.2	345.030	-0.180	-1.060	-0.660
2020/01/31 21:40:18.3	345.040	-0.200	-1.020	-0.680
2020/01/31 21:40:18.4	345.050	-0.220	-0.970	-0.700
2020/01/31 21:40:18.5	345.060	-0.240	-0.910	-0.710
2020/01/31 21:40:18.6	345.070	-0.270	-0.850	-0.720
2020/01/31 21:40:18.7	345.070	-0.300	-0.770	-0.730
2020/01/31 21:40:18.8	345.080	-0.330	-0.690	-0.730
2020/01/31 21:40:18.9	345.080	-0.360	-0.610	-0.730
2020/01/31 21:40:19.0	345.080	-0.390	-0.520	-0.730
2020/01/31 21:40:19.1	345.080	-0.420	-0.420	-0.720
2020/01/31 21:40:19.2	345.080	-0.450	-0.320	-0.710
2020/01/31 21:40:19.3	345.070	-0.480	-0.210	-0.700
2020/01/31 21:40:19.4	345.070	-0.510	-0.110	-0.680
2020/01/31 21:40:19.5	345.060	-0.540	0.000	-0.660
2020/01/31 21:40:19.6	345.050	-0.560	0.110	-0.630
2020/01/31 21:40:19.7	345.040	-0.590	0.220	-0.600
2020/01/31 21:40:19.8	345.020	-0.610	0.330	-0.570
2020/01/31 21:40:19.9	345.000	-0.630	0.440	-0.520
2020/01/31 21:40:20.0	344.980	-0.650	0.550	-0.480
2020/01/31 21:40:20.1	344.960	-0.670	0.650	-0.440
2020/01/31 21:40:20.2	344.940	-0.680	0.740	-0.390
2020/01/31 21:40:20.3	344.910	-0.690	0.840	-0.330
2020/01/31 21:40:20.4	344.890	-0.700	0.920	-0.280
2020/01/31 21:40:20.5	344.860	-0.700	1.000	-0.220
2020/01/31 21:40:20.6	344.830	-0.700	1.070	-0.170
2020/01/31 21:40:20.7	344.800	-0.690	1.140	-0.110
2020/01/31 21:40:20.8	344.770	-0.680	1.190	-0.050
2020/01/31 21:40:20.9	344.730	-0.660	1.240	0.010
2020/01/31 21:40:21.0	344.700	-0.650	1.270	0.080
2020/01/31 21:40:21.1	344.670	-0.620	1.300	0.140
2020/01/31 21:40:21.2	344.630	-0.590	1.320	0.200
2020/01/31 21:40:21.3	344.600	-0.560	1.330	0.260
2020/01/31 21:40:21.4	344.560	-0.520	1.320	0.320
2020/01/31 21:40:21.5	344.530	-0.480	1.310	0.370
2020/01/31 21:40:21.6	344.490	-0.440	1.280	0.430
2020/01/31 21:40:21.7	344.460	-0.390	1.250	0.490
2020/01/31 21:40:21.8	344.430	-0.340	1.210	0.540
2020/01/31 21:40:21.9	344.400	-0.280	1.160	0.600
2020/01/31 21:40:22.0	344.370	-0.230	1.100	0.650
2020/01/31 21:40:22.1	344.330	-0.170	1.030	0.700
2020/01/31 21:40:22.2	344.300	-0.100	0.950	0.750
2020/01/31 21:40:22.3	344.270	-0.040	0.860	0.800
2020/01/31 21:40:22.4	344.240	0.030	0.770	0.850
2020/01/31 21:40:22.5	344.210	0.090	0.680	0.900
2020/01/31 21:40:22.6	344.180	0.160	0.570	0.940
2020/01/31 21:40:22.7	344.150	0.230	0.470	0.980
2020/01/31 21:40:22.8	344.120	0.290	0.360	1.020
2020/01/31 21:40:22.9	344.100	0.360	0.240	1.060
2020/01/31 21:40:23.0	344.070	0.420	0.130	1.090
2020/01/31 21:40:23.1	344.040	0.480	0.010	1.120
2020/01/31 21:40:23.2	344.010	0.540	-0.110	1.150
2020/01/31 21:40:23.3	343.990	0.600	-0.220	1.180
2020/01/31 21:40:23.4	343.960	0.650	-0.340	1.200
2020/01/31 21:40:23.5	343.940	0.700	-0.450	1.220
2020/01/31 21:40:23.6	343.920	0.750	-0.560	1.230
2020/01/31 21:40:23.7	343.900	0.790	-0.670	1.240
2020/01/31 21:40:23.8	343.880	0.830	-0.780	1.240
2020/01/31 21:40:23.9	343.840	0.870	-0.880	1.250
2020/01/31 21:40:24.0	343.830	0.900	-0.980	1.240
2020/01/31 21:40:24.1	343.820	0.920	-1.070	1.230
2020/01/31 21:40:24.2	343.810	0.950	-1.160	1.220
2020/01/31 21:40:24.3	343.810	0.960	-1.240	1.200
2020/01/31 21:40:24.4	343.810	0.970	-1.320	1.180
2020/01/31 21:40:24.5	343.810	0.980	-1.390	1.150
2020/01/31 21:40:24.6	343.820	0.980	-1.460	1.120
2020/01/31 21:40:24.7	343.830	0.980	-1.520	1.080
2020/01/31 21:40:24.8	343.840	0.980	-1.570	1.030
2020/01/31 21:40:24.9	343.850	0.970	-1.620	0.980
2020/01/31 21:40:25.0	343.870	0.950	-1.660	0.930
2020/01/31 21:40:25.1	343.890	0.940	-1.690	0.870
2020/01/31 21:40:25.2	343.920	0.910	-1.720	0.810
2020/01/31 21:40:25.3	343.950	0.890	-1.750	0.740
2020/01/31 21:40:25.4	343.980	0.860	-1.760	0.670
2020/01/31 21:40:25.5	344.010	0.830	-1.770	0.600
2020/01/31 21:40:25.6	344.050	0.790	-1.770	0.520
2020/01/31 21:40:25.7	344.090	0.750	-1.770	0.440
2020/01/31 21:40:25.8	344.130	0.710	-1.760	0.370
2020/01/31 21:40:25.9	344.170	0.670	-1.750	0.290
2020/01/31 21:40:26.0	344.220	0.630	-1.720	0.210
2020/01/31 21:40:26.1	344.260	0.580	-1.700	0.120
2020/01/31 21:40:26.2	344.310	0.530	-1.660	0.040
2020/01/31 21:40:26.3	344.360	0.490	-1.630	-0.040
2020/01/31 21:40:26.4	344.410	0.440	-1.580	-0.130
2020/01/31 21:40:26.5	344.450	0.390	-1.540	-0.210
2020/01/31 21:40:26.6	344.500	0.340	-1.490	-0.290
2020/01/31 21:40:26.7	344.550	0.290	-1.430	-0.370
2020/01/31 21:40:26.8	344.600	0.240	-1.380	-0.450
2020/01/31 21:40:26.9	344.660	0.190	-1.320	-0.530
2020/01/31 21:40:27.0	344.710	0.140	-1.250	-0.610
2020/01/31 21:40:27.1	344.750	0.090	-1.190	-0.680
2020/01/31 21:40:27.2	344.800	0.040	-1.120	-0.750
2020/01/31 21:40:27.3	344.840	-0.000	-1.040	-0.820
2020/01/31 21:40:27.4	344.880	-0.050	-0.970	-0.880
2020/01/31 21:40:27.5	344.920	-0.090	-0.900	-0.940
2020/01/31 21:40:27.6	344.950	-0.140	-0.820	-0.990
2020/01/31 21:40:27.7	344.990	-0.180	-0.740	-1.040
2020/01/31 21:40:27.8	345.020	-0.220	-0.660	-1.080
2020/01/31 21:40:27.9	345.050	-0.250	-0.580	-1.110
2020/01/31 21:40:28.0	345.080	-0.290	-0.500	-1.140
2020/01/31 21:40:28.1	345.100	-0.320	-0.420	-1.170
2020/01/31 21:40:28.2	345.120	-0.360	-0.330	-1.190
2020/01/31 21:40:28.3	345.130	-0.390	-0.250	-1.200
2020/01/31 21:40:28.4	345.150	-0.420	-0.170	-1.210
2020/01/31 21:40:28.5	345.160	-0.440	-0.080	-1.210
2020/01/31 21:40:28.6	345.160	-0.470	0.000	-1.210
2020/01/31 21:40:28.7	345.170	-0.490	0.080	-1.200
2020/01/31 21:40:28.8	345.170	-0.510	0.170	-1.180
2020/01/31 21:40:28.9	345.160	-0.530	0.250	-1.160
2020/01/31 21:40:29.0	345.160	-0.550	0.330	-1.130
2020/01/31 21:40:29.1	345.160	-0.570	0.400	-1.100
2020/01/31 21:40:29.2	345.150	-0.580	0.480	-1.070
2020/01/31 21:40:29.3	345.140	-0.600	0.550	-1.030
2020/01/31 21:40:29.4	345.130	-0.610	0.620	-0.990
2020/01/31 21:40:29.5	345.120	-0.620	0.680	-0.940
2020/01/31 21:40:29.6	345.110	-0.630	0.740	-0.890
2020/01/31 21:40:29.7	345.090	-0.640	0.800	-0.830
2020/01/31 21:40:29.8	345.070	-0.640	0.850	-0.770
2020/01/31 21:40:29.9	345.040	-0.650	0.890	-0.710
2020/01/31 21:40:30.0	345.020	-0.650	0.940	-0.640
2020/01/31 21:40:30.1	345.000	-0.650	0.980	-0.570
2020/01/31 21:40:30.2	344.980	-0.650	1.010	-0.500
2020/01/31 21:40:30.3	344.960	-0.650	1.040	-0.420
2020/01/31 21:40:30.4	344.940	-0.640	1.060	-0.340
2020/01/31 21:40:30.5	344.910	-0.640	1.080	-0.260
2020/01/31 21:40:30.6	344.890	-0.630	1.100	-0.180
2020/01/31 21:40:30.7	344.860	-0.620	1.110	-0.090
2020/01/31 21:40:30.8	344.840	-0.610	1.120	-0.010
2020/01/31 21:40:30.9	344.810	-0.590	1.120	0.080
2020/01/31 21:40:31.0	344.780	-0.580	1.120	0.170
2020/01/31 21:40:31.1	344.760	-0.560	1.110	0.260
2020/01/31 21:40:31.2	344.740	-0.540	1.100	0.340
2020/01/31 21:40:31.3	344.720	-0.520	1.080	0.430
2020/01/31 21:40:31.4	344.700	-0.500	1.060	0.510
2020/01/31 21:40:31.5	344.690	-0.480	1.030	0.600
2020/01/31 21:40:31.6	344.670	-0.450	1.000	0.680
2020/01/31 21:40:31.7	344.660	-0.420	0.960	0.750
2020/01/31 21:40:31.8	344.650	-0.400	0.920	0.830
2020/01/31 21:40:31.9	344.650	-0.370	0.870	0.910
2020/01/31 21:40:32.0	344.640	-0.340	0.820	0.980
2020/01/31 21:40:32.1	344.630	-0.310	0.770	1.040
2020/01/31 21:40:32.2	344.630	-0.270	0.710	1.100
2020/01/31 21:40:32.3	344.620	-0.240	0.640	1.160
2020/01/31 21:40:32.4	344.620	-0.210	0.570	1.220
2020/01/31 21:40:32.5	344.620	-0.180	0.500	1.270
2020/01/31 21:40:32.6	344.620	-0.150	0.430	1.310
2020/01/31 21:40:32.7	344.630	-0.110	0.350	1.360
2020/01/31 21:40:32.8	344.630	-0.080	0.270	1.390
2020/01/31 21:40:32.9	344.640	-0.050	0.180	1.420
2020/01/31 21:40:33.0	344.650	-0.020	0.090	1.450
2020/01/31 21:40:33.1	344.670	0.010	0.010	1.470
2020/01/31 21:40:33.2	344.680	0.040	-0.080	1.490
2020/01/31 21:40:33.3	344.690	0.060	-0.170	1.500
2020/01/31 21:40:33.4	344.710	0.090	-0.260	1.500
2020/01/31 21:40:33.5	344.730	0.120	-0.350	1.500
2020/01/31 21:40:33.6	344.750	0.140	-0.440	1.490
2020/01/31 21:40:33.7	344.780	0.160	-0.530	1.480
2020/01/31 21:40:33.8	344.810	0.180	-0.610	1.470
2020/01/31 21:40:33.9	344.820	0.200	-0.690	1.450
2020/01/31 21:40:34.0	344.850	0.220	-0.780	1.420
2020/01/31 21:40:34.1	344.880	0.240	-0.850	1.390
2020/01/31 21:40:34.2	344.920	0.250	-0.930	1.360
2020/01/31 21:40:34.3	344.960	0.270	-1.000	1.320
2020/01/31 21:40:34.4	345.000	0.280	-1.060	1.270
2020/01/31 21:40:34.5	345.050	0.290	-1.130	1.230
2020/01/31 21:40:34.6	345.090	0.300	-1.180	1.180
2020/01/31 21:40:34.7	345.140	0.310	-1.240	1.120
2020/01/31 21:40:34.8	345.200	0.320	-1.280	1.070
2020/01/31 21:40:34.9	345.240	0.320	-1.330	1.000
2020/01/31 21:40:35.0	345.300	0.330	-1.360	0.940
2020/01/31 21:40:35.1	345.360	0.330	-1.390	0.870
2020/01/31 21:40:35.2	345.430	0.330	-1.410	0.810
2020/01/31 21:40:35.3	345.490	0.340	-1.430	0.740
2020/01/31 21:40:35.4	345.560	0.340	-1.440	0.670
2020/01/31 21:40:35.5	345.640	0.340	-1.440	0.600
2020/01/31 21:40:35.6	345.710	0.340	-1.440	0.530
2020/01/31 21:40:35.7	345.790	0.340	-1.430	0.460
2020/01/31 21:40:35.8	345.870	0.340	-1.420	0.390
2020/01/31 21:40:35.9	345.940	0.340	-1.400	0.330
2020/01/31 21:40:36.0	346.020	0.340	-1.370	0.260
2020/01/31 21:40:36.1	346.100	0.330	-1.340	0.190
2020/01/31 21:40:36.2	346.190	0.330	-1.310	0.130
2020/01/31 21:40:36.3	346.270	0.330	-1.270	0.060
2020/01/31 21:40:36.4	346.350	0.320	-1.230	0.000
2020/01/31 21:40:36.5	346.440	0.320	-1.180	-0.060
2020/01/31 21:40:36.6	346.520	0.310	-1.130	-0.110
2020/01/31 21:40:36.7	346.610	0.300	-1.070	-0.170
2020/01/31 21:40:36.8	346.690	0.300	-1.020	-0.210
2020/01/31 21:40:36.9	346.770	0.290	-0.960	-0.260
2020/01/31 21:40:37.0	346.850	0.280	-0.900	-0.300
2020/01/31 21:40:37.1	346.930	0.280	-0.840	-0.340
2020/01/31 21:40:37.2	347.010	0.270	-0.770	-0.370
2020/01/31 21:40:37.3	347.090	0.260	-0.710	-0.400
2020/01/31 21:40:37.4	347.160	0.250	-0.640	-0.420
2020/01/31 21:40:37.5	347.240	0.240	-0.570	-0.440
2020/01/31 21:40:37.6	347.320	0.230	-0.510	-0.450
2020/01/31 21:40:37.7	347.390	0.230	-0.440	-0.460
2020/01/31 21:40:37.8	347.470	0.220	-0.380	-0.470
2020/01/31 21:40:37.9	347.540	0.210	-0.320	-0.470
2020/01/31 21:40:38.0	347.610	0.200	-0.260	-0.470
2020/01/31 21:40:38.1	347.690	0.190	-0.200	-0.470
2020/01/31 21:40:38.2	347.760	0.180	-0.140	-0.460
2020/01/31 21:40:38.3	347.830	0.160	-0.080	-0.450
2020/01/31 21:40:38.4	347.900	0.150	-0.030	-0.440
2020/01/31 21:40:38.5	347.970	0.140	0.020	-0.420
2020/01/31 21:40:38.6	348.040	0.130	0.060	-0.410
2020/01/31 21:40:38.7	348.110	0.120	0.100	-0.390
2020/01/31 21:40:38.8	348.180	0.110	0.140	-0.370
2020/01/31 21:40:38.9	348.250	0.100	0.180	-0.340
2020/01/31 21:40:39.0	348.320	0.090	0.210	-0.320
2020/01/31 21:40:39.1	348.400	0.080	0.240	-0.290
2020/01/31 21:40:39.2	348.470	0.070	0.270	-0.270
2020/01/31 21:40:39.3	348.540	0.060	0.290	-0.240
2020/01/31 21:40:39.4	348.620	0.050	0.310	-0.210
2020/01/31 21:40:39.5	348.690	0.040	0.330	-0.170
2020/01/31 21:40:39.6	348.770	0.030	0.340	-0.140
2020/01/31 21:40:39.7	348.840	0.020	0.350	-0.110
2020/01/31 21:40:39.8	348.920	0.010	0.360	-0.070
2020/01/31 21:40:39.9	348.980	-0.000	0.370	-0.040
2020/01/31 21:40:40.0	349.060	-0.010	0.370	-0.000
2020/01/31 21:40:40.1	349.140	-0.020	0.370	0.030
2020/01/31 21:40:40.2	349.220	-0.030	0.370	0.070
2020/01/31 21:40:40.3	349.290	-0.040	0.370	0.100
2020/01/31 21:40:40.4	349.370	-0.050	0.370	0.140
2020/01/31 21:40:40.5	349.450	-0.060	0.360	0.170
2020/01/31 21:40:40.6	349.540	-0.060	0.350	0.200
2020/01/31 21:40:40.7	349.620	-0.070	0.340	0.230
2020/01/31 21:40:40.8	349.700	-0.080	0.320	0.260
2020/01/31 21:40:40.9	349.780	-0.090	0.310	0.290
2020/01/31 21:40:41.0	349.870	-0.090	0.290	0.320
2020/01/31 21:40:41.1	349.950	-0.100	0.270	0.340
2020/01/31 21:40:41.2	350.040	-0.100	0.240	0.360
2020/01/31 21:40:41.3	350.130	-0.100	0.220	0.380
2020/01/31 21:40:41.4	350.220	-0.110	0.190	0.400
2020/01/31 21:40:41.5	350.310	-0.110	0.160	0.410
2020/01/31 21:40:41.6	350.400	-0.110	0.120	0.420
2020/01/31 21:40:41.7	350.490	-0.110	0.090	0.430
2020/01/31 21:40:41.8	350.580	-0.110	0.050	0.440
2020/01/31 21:40:41.9	350.650	-0.110	0.010	0.440
2020/01/31 21:40:42.0	350.740	-0.110	-0.030	0.440
2020/01/31 21:40:42.1	350.830	-0.100	-0.070	0.440
2020/01/31 21:40:42.2	350.920	-0.100	-0.120	0.430
2020/01/31 21:40:42.3	351.010	-0.090	-0.160	0.420
2020/01/31 21:40:42.4	351.100	-0.090	-0.200	0.410
2020/01/31 21:40:42.5	351.180	-0.080	-0.240	0.400
2020/01/31 21:40:42.6	351.270	-0.080	-0.290	0.380
2020/01/31 21:40:42.7	351.350	-0.070	-0.330	0.370
2020/01/31 21:40:42.8	351.430	-0.060	-0.360	0.350
2020/01/31 21:40:42.9	351.530	-0.050	-0.400	0.330
2020/01/31 21:40:43.0	351.610	-0.050	-0.440	0.310
2020/01/31 21:40:43.1	351.680	-0.040	-0.470	0.290
2020/01/31 21:40:43.2	351.760	-0.030	-0.500	0.260
2020/01/31 21:40:43.3	351.840	-0.020	-0.530	0.240
2020/01/31 21:40:43.4	351.920	-0.020	-0.550	0.210
2020/01/31 21:40:43.5	351.990	-0.010	-0.580	0.180
2020/01/31 21:40:43.6	352.070	-0.000	-0.590	0.140
2020/01/31 21:40:43.7	352.150	0.000	-0.610	0.110
2020/01/31 21:40:43.8	352.230	0.010	-0.620	0.070
2020/01/31 21:40:43.9	352.330	0.010	-0.630	0.040
2020/01/31 21:40:44.0	352.410	0.010	-0.640	-0.010
2020/01/31 21:40:44.1	352.490	0.020	-0.640	-0.050
2020/01/31 21:40:44.2	352.580	0.020	-0.650	-0.090
2020/01/31 21:40:44.3	352.660	0.020	-0.640	-0.140
2020/01/31 21:40:44.4	352.750	0.020	-0.640	-0.190
2020/01/31 21:40:44.5	352.840	0.020	-0.630	-0.240
2020/01/31 21:40:44.6	352.940	0.020	-0.620	-0.290
2020/01/31 21:40:44.7	353.030	0.020	-0.610	-0.350
2020/01/31 21:40:44.8	353.130	0.020	-0.590	-0.400
2020/01/31 21:40:44.9	353.230	0.010	-0.570	-0.460
2020/01/31 21:40:45.0	353.330	0.010	-0.550	-0.510
2020/01/31 21:40:45.1	353.430	0.000	-0.530	-0.570
2020/01/31 21:40:45.2	353.540	-0.000	-0.500	-0.620
2020/01/31 21:40:45.3	353.650	-0.010	-0.470	-0.680
2020/01/31 21:40:45.4	353.750	-0.010	-0.440	-0.730
2020/01/31 21:40:45.5	353.870	-0.020	-0.410	-0.790
2020/01/31 21:40:45.6	353.980	-0.030	-0.370	-0.840
2020/01/31 21:40:45.7	354.090	-0.040	-0.340	-0.890
2020/01/31 21:40:45.8	354.200	-0.050	-0.300	-0.940
2020/01/31 21:40:45.9	354.290	-0.060	-0.260	-0.990
2020/01/31 21:40:46.0	354.410	-0.070	-0.210	-1.030
2020/01/31 21:40:46.1	354.520	-0.080	-0.170	-1.070
2020/01/31 21:40:46.2	354.640	-0.090	-0.120	-1.110
2020/01/31 21:40:46.3	354.750	-0.100	-0.070	-1.150
2020/01/31 21:40:46.4	354.870	-0.110	-0.020	-1.180
2020/01/31 21:40:46.5	354.980	-0.120	0.030	-1.210
2020/01/31 21:40:46.6	355.100	-0.130	0.080	-1.240
2020/01/31 21:40:46.7	355.220	-0.140	0.130	-1.260
2020/01/31 21:40:46.8	355.340	-0.150	0.180	-1.280
2020/01/31 21:40:46.9	355.450	-0.150	0.220	-1.290
2020/01/31 21:40:47.0	355.570	-0.160	0.270	-1.300
2020/01/31 21:40:47.1	355.690	-0.170	0.320	-1.310
2020/01/31 21:40:47.2	355.810	-0.180	0.360	-1.310
2020/01/31 21:40:47.3	355.930	-0.180	0.400	-1.310
2020/01/31 21:40:47.4	356.050	-0.190	0.430	-1.300
2020/01/31 21:40:47.5	356.170	-0.200	0.470	-1.300
2020/01/31 21:40:47.6	356.280	-0.200	0.490	-1.280
2020/01/31 21:40:47.7	356.400	-0.200	0.520	-1.270
2020/01/31 21:40:47.8	356.520	-0.210	0.540	-1.250
2020/01/31 21:40:47.9	356.630	-0.210	0.550	-1.220
2020/01/31 21:40:48.0	356.740	-0.210	0.560	-1.190
2020/01/31 21:40:48.1	356.860	-0.220	0.570	-1.170
2020/01/31 21:40:48.2	356.970	-0.220	0.570	-1.140
2020/01/31 21:40:48.3	357.090	-0.220	0.560	-1.110
2020/01/31 21:40:48.4	357.200	-0.220	0.550	-1.070
2020/01/31 21:40:48.5	357.310	-0.220	0.540	-1.040
2020/01/31 21:40:48.6	357.430	-0.220	0.510	-1.010
2020/01/31 21:40:48.7	357.540	-0.220	0.490	-0.980
2020/01/31 21:40:48.8	357.660	-0.220	0.460	-0.950
2020/01/31 21:40:48.9	357.770	-0.210	0.420	-0.910
2020/01/31 21:40:49.0	357.890	-0.210	0.380	-0.880
2020/01/31 21:40:49.1	358.010	-0.210	0.330	-0.850
2020/01/31 21:40:49.2	358.130	-0.210	0.280	-0.820
2020/01/31 21:40:49.3	358.250	-0.200	0.220	-0.800
2020/01/31 21:40:49.4	358.370	-0.200	0.160	-0.770
2020/01/31 21:40:49.5	358.490	-0.190	0.090	-0.750
2020/01/31 21:40:49.6	358.610	-0.190	0.030	-0.730
2020/01/31 21:40:49.7	358.730	-0.180	-0.050	-0.710
2020/01/31 21:40:49.8	358.850	-0.170	-0.120	-0.690
2020/01/31 21:40:49.9	358.980	-0.160	-0.200	-0.670
2020/01/31 21:40:50.0	359.110	-0.150	-0.280	-0.650
2020/01/31 21:40:50.1	359.230	-0.140	-0.360	-0.640
2020/01/31 21:40:50.2	359.360	-0.130	-0.440	-0.630
2020/01/31 21:40:50.3	359.480	-0.120	-0.520	-0.620
2020/01/31 21:40:50.4	359.610	-0.110	-0.600	-0.610
2020/01/31 21:40:50.5	359.740	-0.090	-0.680	-0.610
2020/01/31 21:40:50.6	359.870	-0.080	-0.760	-0.610
2020/01/31 21:40:50.7	0.000	-0.060	-0.840	-0.610
2020/01/31 21:40:50.8	0.140	-0.050	-0.910	-0.620
2020/01/31 21:40:50.9	0.270	-0.030	-0.980	-0.620
2020/01/31 21:40:51.0	0.410	-0.020	-1.050	-0.640
2020/01/31 21:40:51.1	0.550	0.000	-1.120	-0.660
2020/01/31 21:40:51.2	0.690	0.020	-1.180	-0.680
2020/01/31 21:40:51.3	0.830	0.030	-1.240	-0.710
2020/01/31 21:40:51.4	0.970	0.050	-1.290	-0.750
2020/01/31 21:40:51.5	1.120	0.070	-1.330	-0.790
2020/01/31 21:40:51.6	1.270	0.080	-1.370	-0.830
2020/01/31 21:40:51.7	1.410	0.100	-1.410	-0.870
2020/01/31 21:40:51.8	1.560	0.110	-1.440	-0.920
2020/01/31 21:40:51.9	1.710	0.130	-1.450	-0.980
2020/01/31 21:40:52.0	1.860	0.140	-1.470	-1.030
2020/01/31 21:40:52.1	2.010	0.150	-1.470	-1.090
2020/01/31 21:40:52.2	2.160	0.160	-1.470	-1.140
2020/01/31 21:40:52.3	2.310	0.170	-1.460	-1.200
2020/01/31 21:40:52.4	2.460	0.180	-1.450	-1.260
2020/01/31 21:40:52.5	2.610	0.190	-1.420	-1.320
2020/01/31 21:40:52.6	2.760	0.200	-1.390	-1.380
2020/01/31 21:40:52.7	2.900	0.200	-1.350	-1.440
2020/01/31 21:40:52.8	3.050	0.200	-1.310	-1.490
2020/01/31 21:40:52.9	3.180	0.210	-1.250	-1.540
2020/01/31 21:40:53.0	3.330	0.210	-1.190	-1.600
2020/01/31 21:40:53.1	3.470	0.210	-1.130	-1.640
2020/01/31 21:40:53.2	3.600	0.200	-1.050	-1.690
2020/01/31 21:40:53.3	3.740	0.200	-0.980	-1.730
2020/01/31 21:40:53.4	3.870	0.190	-0.890	-1.770
2020/01/31 21:40:53.5	4.000	0.180	-0.800	-1.800
2020/01/31 21:40:53.6	4.130	0.170	-0.710	-1.830
2020/01/31 21:40:53.7	4.260	0.160	-0.610	-1.860
2020/01/31 21:40:53.8	4.380	0.150	-0.510	-1.880
2020/01/31 21:40:53.9	4.490	0.140	-0.410	-1.890
2020/01/31 21:40:54.0	4.610	0.120	-0.300	-1.900
2020/01/31 21:40:54.1	4.730	0.110	-0.190	-1.910
2020/01/31 21:40:54.2	4.840	0.090	-0.090	-1.910
2020/01/31 21:40:54.3	4.950	0.070	0.020	-1.910
2020/01/31 21:40:54.4	5.060	0.060	0.130	-1.900
2020/01/31 21:40:54.5	5.170	0.040	0.230	-1.880
2020/01/31 21:40:54.6	5.280	0.020	0.340	-1.870
2020/01/31 21:40:54.7	5.380	0.000	0.440	-1.850
2020/01/31 21:40:54.8	5.490	-0.020	0.530	-1.820
2020/01/31 21:40:54.9	5.570	-0.030	0.620	-1.780
2020/01/31 21:40:55.0	5.670	-0.050	0.700	-1.750
2020/01/31 21:40:55.1	5.770	-0.060	0.780	-1.710
2020/01/31 21:40:55.2	5.870	-0.080	0.860	-1.670
2020/01/31 21:40:55.3	5.970	-0.090	0.920	-1.630
2020/01/31 21:40:55.4	6.070	-0.100	0.980	-1.590
2020/01/31 21:40:55.5	6.170	-0.110	1.030	-1.540
2020/01/31 21:40:55.6	6.270	-0.120	1.080	-1.490
2020/01/31 21:40:55.7	6.360	-0.130	1.110	-1.430
2020/01/31 21:40:55.8	6.460	-0.140	1.140	-1.380
2020/01/31 21:40:55.9	6.580	-0.140	1.160	-1.320
2020/01/31 21:40:56.0	6.680	-0.140	1.170	-1.260
2020/01/31 21:40:56.1	6.780	-0.140	1.170	-1.200
2020/01/31 21:40:56.2	6.870	-0.140	1.160	-1.140
2020/01/31 21:40:56.3	6.970	-0.130	1.150	-1.080
2020/01/31 21:40:56.4	7.070	-0.130	1.130	-1.020
2020/01/31 21:40:56.5	7.170	-0.120	1.100	-0.950
2020/01/31 21:40:56.6	7.270	-0.110	1.060	-0.890
2020/01/31 21:40:56.7	7.370	-0.100	1.020	-0.830
2020/01/31 21:40:56.8	7.470	-0.090	0.970	-0.760
2020/01/31 21:40:56.9	7.580	-0.070	0.920	-0.690
2020/01/31 21:40:57.0	7.680	-0.060	0.860	-0.630
2020/01/31 21:40:57.1	7.780	-0.040	0.790	-0.580
2020/01/31 21:40:57.2	7.890	-0.020	0.720	-0.520
2020/01/31 21:40:57.3	8.000	-0.000	0.640	-0.470
2020/01/31 21:40:57.4	8.100	0.020	0.570	-0.420
2020/01/31 21:40:57.5	8.210	0.040	0.480	-0.380
2020/01/31 21:40:57.6	8.330	0.060	0.400	-0.340
2020/01/31 21:40:57.7	8.440	0.070	0.310	-0.300
2020/01/31 21:40:57.8	8.560	0.090	0.220	-0.270
2020/01/31 21:40:57.9	8.680	0.110	0.130	-0.240
2020/01/31 21:40:58.0	8.800	0.130	0.040	-0.220
2020/01/31 21:40:58.1	8.920	0.150	-0.050	-0.200
2020/01/31 21:40:58.2	9.050	0.170	-0.150	-0.180
2020/01/31 21:40:58.3	9.180	0.180	-0.240	-0.180
2020/01/31 21:40:58.4	9.310	0.200	-0.330	-0.170
2020/01/31 21:40:58.5	9.440	0.210	-0.420	-0.170
2020/01/31 21:40:58.6	9.580	0.220	-0.510	-0.170
2020/01/31 21:40:58.7	9.710	0.230	-0.590	-0.180
2020/01/31 21:40:58.8	9.850	0.230	-0.670	-0.190
2020/01/31 21:40:58.9	9.990	0.240	-0.750	-0.210
2020/01/31 21:40:59.0	10.130	0.240	-0.820	-0.230
2020/01/31 21:40:59.1	10.270	0.240	-0.880	-0.250
2020/01/31 21:40:59.2	10.410	0.230	-0.940	-0.280
2020/01/31 21:40:59.3	10.550	0.220	-1.000	-0.310
2020/01/31 21:40:59.4	10.690	0.210	-1.040	-0.350
2020/01/31 21:40:59.5	10.830	0.200	-1.090	-0.390
2020/01/31 21:40:59.6	10.970	0.180	-1.120	-0.430
2020/01/31 21:40:59.7	11.120	0.170	-1.150	-0.480
2020/01/31 21:40:59.8	11.260	0.150	-1.170	-0.530
2020/01/31 21:40:59.9	11.410	0.120	-1.190	-0.590
2020/01/31 21:41:00.0	11.550	0.100	-1.200	-0.650
2020/01/31 21:41:00.1	11.700	0.070	-1.200	-0.720
2020/01/31 21:41:00.2	11.850	0.040	-1.200	-0.790
2020/01/31 21:41:00.3	11.990	0.010	-1.190	-0.860
2020/01/31 21:41:00.4	12.140	-0.020	-1.180	-0.940
2020/01/31 21:41:00.5	12.290	-0.060	-1.160	-1.020
2020/01/31 21:41:00.6	12.440	-0.090	-1.130	-1.110
2020/01/31 21:41:00.7	12.600	-0.120	-1.100	-1.190
2020/01/31 21:41:00.8	12.750	-0.160	-1.070	-1.280
2020/01/31 21:41:00.9	12.890	-0.190	-1.030	-1.380
2020/01/31 21:41:01.0	13.040	-0.230	-0.990	-1.470
2020/01/31 21:41:01.1	13.200	-0.260	-0.940	-1.570
2020/01/31 21:41:01.2	13.350	-0.290	-0.890	-1.660
2020/01/31 21:41:01.3	13.500	-0.320	-0.830	-1.750
2020/01/31 21:41:01.4	13.650	-0.350	-0.770	-1.850
2020/01/31 21:41:01.5	13.790	-0.380	-0.710	-1.930
2020/01/31 21:41:01.6	13.940	-0.410	-0.650	-2.020
2020/01/31 21:41:01.7	14.080	-0.430	-0.580	-2.100
2020/01/31 21:41:01.8	14.220	-0.460	-0.520	-2.180
2020/01/31 21:41:01.9	14.340	-0.480	-0.450	-2.260
2020/01/31 21:41:02.0	14.480	-0.500	-0.380	-2.330
2020/01/31 21:41:02.1	14.610	-0.510	-0.310	-2.400
2020/01/31 21:41:02.2	14.740	-0.530	-0.240	-2.460
2020/01/31 21:41:02.3	14.870	-0.540	-0.170	-2.510
2020/01/31 21:41:02.4	14.990	-0.550	-0.100	-2.560
2020/01/31 21:41:02.5	15.120	-0.560	-0.030	-2.610
2020/01/31 21:41:02.6	15.240	-0.560	0.030	-2.650
2020/01/31 21:41:02.7	15.360	-0.560	0.090	-2.680
2020/01/31 21:41:02.8	15.470	-0.560	0.160	-2.710
2020/01/31 21:41:02.9	15.610	-0.560	0.220	-2.730
2020/01/31 21:41:03.0	15.720	-0.550	0.270	-2.740
2020/01/31 21:41:03.1	15.830	-0.540	0.320	-2.750
2020/01/31 21:41:03.2	15.940	-0.530	0.370	-2.750
2020/01/31 21:41:03.3	16.050	-0.510	0.410	-2.750
2020/01/31 21:41:03.4	16.160	-0.500	0.450	-2.740
2020/01/31 21:41:03.5	16.270	-0.480	0.490	-2.720
2020/01/31 21:41:03.6	16.380	-0.460	0.510	-2.700
2020/01/31 21:41:03.7	16.490	-0.430	0.540	-2.680
2020/01/31 21:41:03.8	16.600	-0.410	0.560	-2.650
2020/01/31 21:41:03.9	16.720	-0.380	0.570	-2.610
2020/01/31 21:41:04.0	16.830	-0.350	0.580	-2.570
2020/01/31 21:41:04.1	16.940	-0.320	0.580	-2.530
2020/01/31 21:41:04.2	17.050	-0.280	0.580	-2.480
2020/01/31 21:41:04.3	17.170	-0.250	0.570	-2.430
2020/01/31 21:41:04.4	17.280	-0.210	0.560	-2.370
2020/01/31 21:41:04.5	17.400	-0.180	0.540	-2.310
2020/01/31 21:41:04.6	17.520	-0.140	0.520	-2.250
2020/01/31 21:41:04.7	17.630	-0.100	0.490	-2.180
2020/01/31 21:41:04.8	17.750	-0.060	0.460	-2.110
2020/01/31 21:41:04.9	17.860	-0.020	0.430	-2.040
2020/01/31 21:41:05.0	17.980	0.020	0.390	-1.960
2020/01/31 21:41:05.1	18.100	0.060	0.350	-1.890
2020/01/31 21:41:05.2	18.220	0.090	0.310	-1.810
2020/01/31 21:41:05.3	18.340	0.130	0.270	-1.720
2020/01/31 21:41:05.4	18.470	0.170	0.220	-1.640
2020/01/31 21:41:05.5	18.590	0.200	0.170	-1.550
2020/01/31 21:41:05.6	18.710	0.240	0.130	-1.470
2020/01/31 21:41:05.7	18.830	0.270	0.080	-1.380
2020/01/31 21:41:05.8	18.950	0.300	0.030	-1.290
2020/01/31 21:41:05.9	19.060	0.330	-0.030	-1.200
2020/01/31 21:41:06.0	19.180	0.360	-0.080	-1.110
2020/01/31 21:41:06.1	19.290	0.390	-0.130	-1.020
2020/01/31 21:41:06.2	19.410	0.410	-0.180	-0.930
2020/01/31 21:41:06.3	19.530	0.440	-0.230	-0.840
2020/01/31 21:41:06.4	19.640	0.460	-0.280	-0.760
2020/01/31 21:41:06.5	19.760	0.480	-0.330	-0.670
2020/01/31 21:41:06.6	19.870	0.490	-0.380	-0.590
2020/01/31 21:41:06.7	19.980	0.510	-0.430	-0.510
2020/01/31 21:41:06.8	20.090	0.520	-0.480	-0.440
2020/01/31 21:41:06.9	20.160	0.530	-0.520	-0.360
2020/01/31 21:41:07.0	20.270	0.540	-0.560	-0.290
2020/01/31 21:41:07.1	20.380	0.540	-0.600	-0.230
2020/01/31 21:41:07.2	20.490	0.550	-0.640	-0.170
2020/01/31 21:41:07.3	20.600	0.550	-0.680	-0.110
2020/01/31 21:41:07.4	20.710	0.550	-0.710	-0.060
2020/01/31 21:41:07.5	20.820	0.550	-0.740	-0.020
2020/01/31 21:41:07.6	20.930	0.550	-0.770	0.020
2020/01/31 21:41:07.7	21.050	0.540	-0.790	0.050
2020/01/31 21:41:07.8	21.160	0.540	-0.820	0.080
2020/01/31 21:41:07.9	21.260	0.530	-0.840	0.110
2020/01/31 21:41:08.0	21.370	0.520	-0.850	0.130
2020/01/31 21:41:08.1	21.480	0.510	-0.860	0.140
2020/01/31 21:41:08.2	21.590	0.500	-0.870	0.150
2020/01/31 21:41:08.3	21.710	0.480	-0.870	0.150
2020/01/31 21:41:08.4	21.820	0.470	-0.870	0.150
2020/01/31 21:41:08.5	21.930	0.450	-0.860	0.150
2020/01/31 21:41:08.6	22.050	0.430	-0.850	0.140
2020/01/31 21:41:08.7	22.170	0.410	-0.830	0.120
2020/01/31 21:41:08.8	22.280	0.390	-0.810	0.100
2020/01/31 21:41:08.9	22.420	0.370	-0.780	0.090
2020/01/31 21:41:09.0	22.540	0.350	-0.750	0.060
2020/01/31 21:41:09.1	22.660	0.320	-0.710	0.040
2020/01/31 21:41:09.2	22.780	0.300	-0.670	0.000
2020/01/31 21:41:09.3	22.900	0.270	-0.630	-0.030
2020/01/31 21:41:09.4	23.020	0.250	-0.580	-0.070
2020/01/31 21:41:09.5	23.150	0.220	-0.530	-0.110
2020/01/31 21:41:09.6	23.270	0.190	-0.480	-0.150
2020/01/31 21:41:09.7	23.400	0.160	-0.430	-0.190
2020/01/31 21:41:09.8	23.530	0.130	-0.370	-0.240
2020/01/31 21:41:09.9	23.660	0.100	-0.310	-0.290
2020/01/31 21:41:10.0	23.790	0.070	-0.260	-0.340
2020/01/31 21:41:10.1	23.930	0.030	-0.200	-0.390
2020/01/31 21:41:10.2	24.060	0.000	-0.140	-0.450
2020/01/31 21:41:10.3	24.200	-0.030	-0.080	-0.500
2020/01/31 21:41:10.4	24.340	-0.070	-0.020	-0.560
2020/01/31 21:41:10.5	24.480	-0.100	0.040	-0.620
2020/01/31 21:41:10.6	24.620	-0.130	0.100	-0.690
2020/01/31 21:41:10.7	24.760	-0.160	0.150	-0.750
2020/01/31 21:41:10.8	24.900	-0.200	0.200	-0.810
2020/01/31 21:41:10.9	25.050	-0.230	0.250	-0.890
2020/01/31 21:41:11.0	25.200	-0.260	0.300	-0.950
2020/01/31 21:41:11.1	25.350	-0.290	0.340	-1.020
2020/01/31 21:41:11.2	25.500	-0.320	0.380	-1.090
2020/01/31 21:41:11.3	25.650	-0.350	0.410	-1.170
2020/01/31 21:41:11.4	25.800	-0.380	0.440	-1.240
2020/01/31 21:41:11.5	25.950	-0.410	0.470	-1.310
2020/01/31 21:41:11.6	26.100	-0.430	0.490	-1.380
2020/01/31 21:41:11.7	26.250	-0.460	0.500	-1.450
2020/01/31 21:41:11.8	26.400	-0.480	0.520	-1.520
2020/01/31 21:41:11.9	26.550	-0.500	0.520	-1.600
2020/01/31 21:41:12.0	26.700	-0.520	0.530	-1.660
2020/01/31 21:41:12.1	26.840	-0.540	0.530	-1.730
2020/01/31 21:41:12.2	26.990	-0.550	0.520	-1.790
2020/01/31 21:41:12.3	27.130	-0.570	0.510	-1.840
2020/01/31 21:41:12.4	27.270	-0.580	0.500	-1.900
2020/01/31 21:41:12.5	27.410	-0.590	0.480	-1.950
2020/01/31 21:41:12.6	27.540	-0.600	0.460	-1.990
2020/01/31 21:41:12.7	27.670	-0.610	0.440	-2.040
2020/01/31 21:41:12.8	27.800	-0.610	0.410	-2.080
2020/01/31 21:41:12.9	27.930	-0.610	0.380	-2.110
2020/01/31 21:41:13.0	28.050	-0.620	0.350	-2.140
2020/01/31 21:41:13.1	28.170	-0.610	0.320	-2.170
2020/01/31 21:41:13.2	28.290	-0.610	0.280	-2.190
2020/01/31 21:41:13.3	28.400	-0.610	0.240	-2.210
2020/01/31 21:41:13.4	28.510	-0.600	0.200	-2.220
2020/01/31 21:41:13.5	28.620	-0.590	0.160	-2.240
2020/01/31 21:41:13.6	28.720	-0.580	0.120	-2.240
2020/01/31 21:41:13.7	28.820	-0.570	0.080	-2.250
2020/01/31 21:41:13.8	28.920	-0.550	0.030	-2.250
2020/01/31 21:41:13.9	29.020	-0.540	-0.010	-2.240
2020/01/31 21:41:14.0	29.110	-0.520	-0.060	-2.240
2020/01/31 21:41:14.1	29.200	-0.500	-0.100	-2.230
2020/01/31 21:41:14.2	29.290	-0.480	-0.140	-2.210
2020/01/31 21:41:14.3	29.370	-0.460	-0.180	-2.190
2020/01/31 21:41:14.4	29.450	-0.430	-0.220	-2.170
2020/01/31 21:41:14.5	29.530	-0.410	-0.260	-2.150
2020/01/31 21:41:14.6	29.610	-0.380	-0.290	-2.120
2020/01/31 21:41:14.7	29.690	-0.350	-0.330	-2.090
2020/01/31 21:41:14.8	29.770	-0.320	-0.360	-2.060
2020/01/31 21:41:14.9	29.850	-0.290	-0.390	-2.020
2020/01/31 21:41:15.0	29.930	-0.250	-0.420	-1.990
2020/01/31 21:41:15.1	30.010	-0.220	-0.440	-1.950
2020/01/31 21:41:15.2	30.090	-0.180	-0.470	-1.900
2020/01/31 21:41:15.3	30.160	-0.150	-0.490	-1.860
2020/01/31 21:41:15.4	30.240	-0.110	-0.510	-1.820
2020/01/31 21:41:15.5	30.330	-0.070	-0.520	-1.770
2020/01/31 21:41:15.6	30.410	-0.030	-0.540	-1.720
2020/01/31 21:41:15.7	30.500	0.010	-0.550	-1.680
2020/01/31 21:41:15.8	30.590	0.050	-0.560	-1.630
2020/01/31 21:41:15.9	30.690	0.100	-0.570	-1.580
2020/01/31 21:41:16.0	30.790	0.140	-0.580	-1.530
2020/01/31 21:41:16.1	30.890	0.180	-0.580	-1.490
2020/01/31 21:41:16.2	30.990	0.230	-0.590	-1.440
2020/01/31 21:41:16.3	31.100	0.270	-0.590	-1.400
2020/01/31 21:41:16.4	31.210	0.310	-0.590	-1.350
2020/01/31 21:41:16.5	31.330	0.360	-0.580	-1.310
2020/01/31 21:41:16.6	31.450	0.400	-0.580	-1.270
2020/01/31 21:41:16.7	31.570	0.440	-0.570	-1.220
2020/01/31 21:41:16.8	31.700	0.480	-0.570	-1.180
2020/01/31 21:41:16.9	31.840	0.520	-0.560	-1.140
2020/01/31 21:41:17.0	31.970	0.560	-0.550	-1.100
2020/01/31 21:41:17.1	32.110	0.600	-0.540	-1.060
2020/01/31 21:41:17.2	32.250	0.630	-0.520	-1.020
2020/01/31 21:41:17.3	32.390	0.660	-0.510	-0.990
2020/01/31 21:41:17.4	32.540	0.690	-0.490	-0.950
2020/01/31 21:41:17.5	32.680	0.720	-0.470	-0.910
2020/01/31 21:41:17.6	32.830	0.750	-0.450	-0.860
2020/01/31 21:41:17.7	32.970	0.770	-0.430	-0.820
2020/01/31 21:41:17.8	33.120	0.780	-0.410	-0.780
2020/01/31 21:41:17.9	33.270	0.800	-0.380	-0.730
2020/01/31 21:41:18.0	33.410	0.810	-0.350	-0.690
2020/01/31 21:41:18.1	33.550	0.810	-0.320	-0.640
2020/01/31 21:41:18.2	33.690	0.810	-0.290	-0.600
2020/01/31 21:41:18.3	33.830	0.810	-0.260	-0.550
2020/01/31 21:41:18.4	33.960	0.800	-0.220	-0.500
2020/01/31 21:41:18.5	34.090	0.780	-0.190	-0.460
2020/01/31 21:41:18.6	34.220	0.760	-0.150	-0.410
2020/01/31 21:41:18.7	34.340	0.740	-0.120	-0.360
2020/01/31 21:41:18.8	34.460	0.720	-0.080	-0.320
2020/01/31 21:41:18.9	34.570	0.680	-0.040	-0.270
2020/01/31 21:41:19.0	34.690	0.650	-0.010	-0.230
2020/01/31 21:41:19.1	34.800	0.610	0.030	-0.200
2020/01/31 21:41:19.2	34.910	0.570	0.060	-0.160
2020/01/31 21:41:19.3	35.020	0.520	0.090	-0.130
2020/01/31 21:41:19.4	35.120	0.470	0.120	-0.100
2020/01/31 21:41:19.5	35.230	0.420	0.140	-0.070
2020/01/31 21:41:19.6	35.330	0.370	0.160	-0.050
2020/01/31 21:41:19.7	35.430	0.320	0.180	-0.040
2020/01/31 21:41:19.8	35.540	0.260	0.190	-0.030
2020/01/31 21:41:19.9	35.660	0.210	0.210	-0.020
2020/01/31 21:41:20.0	35.760	0.150	0.210	-0.020
2020/01/31 21:41:20.1	35.860	0.100	0.210	-0.020
2020/01/31 21:41:20.2	35.970	0.040	0.210	-0.030
2020/01/31 21:41:20.3	36.070	-0.010	0.200	-0.050
2020/01/31 21:41:20.4	36.180	-0.060	0.180	-0.070
2020/01/31 21:41:20.5	36.280	-0.110	0.160	-0.090
2020/01/31 21:41:20.6	36.390	-0.150	0.140	-0.120
2020/01/31 21:41:20.7	36.500	-0.200	0.110	-0.160
2020/01/31 21:41:20.8	36.610	-0.240	0.080	-0.200
2020/01/31 21:41:20.9	36.740	-0.270	0.050	-0.240
2020/01/31 21:41:21.0	36.850	-0.310	0.010	-0.290
2020/01/31 21:41:21.1	36.960	-0.330	-0.030	-0.340
2020/01/31 21:41:21.2	37.080	-0.360	-0.080	-0.390
2020/01/31 21:41:21.3	37.200	-0.380	-0.120	-0.450
2020/01/31 21:41:21.4	37.320	-0.400	-0.170	-0.510
2020/01/31 21:41:21.5	37.440	-0.410	-0.220	-0.580
2020/01/31 21:41:21.6	37.560	-0.420	-0.260	-0.640
2020/01/31 21:41:21.7	37.680	-0.430	-0.310	-0.710
2020/01/31 21:41:21.8	37.800	-0.430	-0.360	-0.780
2020/01/31 21:41:21.9	37.920	-0.430	-0.390	-0.850
2020/01/31 21:41:22.0	38.050	-0.430	-0.430	-0.920
2020/01/31 21:41:22.1	38.170	-0.420	-0.470	-0.990
2020/01/31 21:41:22.2	38.290	-0.410	-0.510	-1.050
2020/01/31 21:41:22.3	38.420	-0.400	-0.540	-1.120
2020/01/31 21:41:22.4	38.540	-0.390	-0.560	-1.190
2020/01/31 21:41:22.5	38.670	-0.370	-0.580	-1.250
2020/01/31 21:41:22.6	38.790	-0.360	-0.600	-1.310
2020/01/31 21:41:22.7	38.910	-0.340	-0.610	-1.370
2020/01/31 21:41:22.8	39.030	-0.320	-0.620	-1.430
2020/01/31 21:41:22.9	39.140	-0.300	-0.620	-1.490
2020/01/31 21:41:23.0	39.260	-0.290	-0.610	-1.540
2020/01/31 21:41:23.1	39.380	-0.270	-0.600	-1.590
2020/01/31 21:41:23.2	39.500	-0.250	-0.590	-1.640
2020/01/31 21:41:23.3	39.620	-0.230	-0.570	-1.680
2020/01/31 21:41:23.4	39.730	-0.210	-0.540	-1.720
2020/01/31 21:41:23.5	39.850	-0.190	-0.510	-1.760
2020/01/31 21:41:23.6	39.970	-0.170	-0.480	-1.790
2020/01/31 21:41:23.7	40.080	-0.160	-0.440	-1.820
2020/01/31 21:41:23.8	40.190	-0.140	-0.390	-1.840
2020/01/31 21:41:23.9	40.300	-0.130	-0.350	-1.870
2020/01/31 21:41:24.0	40.420	-0.110	-0.300	-1.890
2020/01/31 21:41:24.1	40.530	-0.100	-0.250	-1.900
2020/01/31 21:41:24.2	40.630	-0.090	-0.200	-1.900
2020/01/31 21:41:24.3	40.740	-0.080	-0.140	-1.910
2020/01/31 21:41:24.4	40.850	-0.070	-0.090	-1.900
2020/01/31 21:41:24.5	40.950	-0.060	-0.040	-1.900
2020/01/31 21:41:24.6	41.060	-0.060	0.020	-1.880
2020/01/31 21:41:24.7	41.160	-0.050	0.070	-1.870
2020/01/31 21:41:24.8	41.270	-0.040	0.120	-1.840
2020/01/31 21:41:24.9	41.370	-0.040	0.180	-1.810
2020/01/31 21:41:25.0	41.470	-0.030	0.220	-1.770
2020/01/31 21:41:25.1	41.570	-0.030	0.270	-1.730
2020/01/31 21:41:25.2	41.660	-0.020	0.310	-1.690
2020/01/31 21:41:25.3	41.760	-0.020	0.350	-1.640
2020/01/31 21:41:25.4	41.850	-0.010	0.380	-1.580
2020/01/31 21:41:25.5	41.940	-0.010	0.420	-1.520
2020/01/31 21:41:25.6	42.030	-0.000	0.440	-1.450
2020/01/31 21:41:25.7	42.120	-0.000	0.470	-1.380
2020/01/31 21:41:25.8	42.200	0.000	0.490	-1.310
2020/01/31 21:41:25.9	42.300	0.000	0.500	-1.230
2020/01/31 21:41:26.0	42.380	0.010	0.510	-1.140
2020/01/31 21:41:26.1	42.460	0.010	0.520	-1.060
2020/01/31 21:41:26.2	42.540	0.010	0.530	-0.970
2020/01/31 21:41:26.3	42.620	0.010	0.530	-0.880
2020/01/31 21:41:26.4	42.690	0.010	0.530	-0.790
2020/01/31 21:41:26.5	42.760	0.010	0.530	-0.690
2020/01/31 21:41:26.6	42.840	0.010	0.520	-0.600
2020/01/31 21:41:26.7	42.910	0.010	0.510	-0.510
2020/01/31 21:41:26.8	42.980	0.010	0.490	-0.410
2020/01/31 21:41:26.9	43.020	0.010	0.480	-0.320
2020/01/31 21:41:27.0	43.090	0.010	0.460	-0.230
2020/01/31 21:41:27.1	43.160	0.010	0.430	-0.140
2020/01/31 21:41:27.2	43.240	0.000	0.410	-0.050
2020/01/31 21:41:27.3	43.310	0.000	0.380	0.030
2020/01/31 21:41:27.4	43.380	-0.000	0.350	0.110
2020/01/31 21:41:27.5	43.450	-0.010	0.320	0.190
2020/01/31 21:41:27.6	43.530	-0.010	0.280	0.260
2020/01/31 21:41:27.7	43.610	-0.010	0.240	0.330
2020/01/31 21:41:27.8	43.690	-0.010	0.200	0.390
2020/01/31 21:41:27.9	43.750	-0.020	0.150	0.450
2020/01/31 21:41:28.0	43.830	-0.020	0.110	0.500
2020/01/31 21:41:28.1	43.920	-0.020	0.060	0.550
2020/01/31 21:41:28.2	44.010	-0.020	0.010	0.580
2020/01/31 21:41:28.3	44.100	-0.020	-0.040	0.620
2020/01/31 21:41:28.4	44.200	-0.020	-0.100	0.640
2020/01/31 21:41:28.5	44.290	-0.020	-0.160	0.660
2020/01/31 21:41:28.6	44.390	-0.020	-0.210	0.670
2020/01/31 21:41:28.7	44.500	-0.020	-0.270	0.680
2020/01/31 21:41:28.8	44.600	-0.010	-0.330	0.680
2020/01/31 21:41:28.9	44.710	-0.010	-0.400	0.670
2020/01/31 21:41:29.0	44.820	-0.010	-0.460	0.660
2020/01/31 21:41:29.1	44.940	-0.000	-0.520	0.640
2020/01/31 21:41:29.2	45.050	0.000	-0.580	0.610
2020/01/31 21:41:29.3	45.170	0.010	-0.640	0.570
2020/01/31 21:41:29.4	45.290	0.020	-0.700	0.530
2020/01/31 21:41:29.5	45.410	0.020	-0.750	0.480
2020/01/31 21:41:29.6	45.540	0.030	-0.810	0.430
2020/01/31 21:41:29.7	45.660	0.030	-0.860	0.370
2020/01/31 21:41:29.8	45.790	0.040	-0.910	0.310
2020/01/31 21:41:29.9	45.900	0.050	-0.960	0.230
2020/01/31 21:41:30.0	46.030	0.050	-1.000	0.160
2020/01/31 21:41:30.1	46.150	0.060	-1.040	0.080
2020/01/31 21:41:30.2	46.280	0.060	-1.080	0.000
2020/01/31 21:41:30.3	46.410	0.070	-1.110	-0.080
2020/01/31 21:41:30.4	46.530	0.070	-1.140	-0.170
2020/01/31 21:41:30.5	46.660	0.080	-1.160	-0.260
2020/01/31 21:41:30.6	46.780	0.080	-1.180	-0.350
2020/01/31 21:41:30.7	46.910	0.080	-1.190	-0.440
2020/01/31 21:41:30.8	47.030	0.090	-1.190	-0.530
2020/01/31 21:41:30.9	47.150	0.090	-1.190	-0.620
2020/01/31 21:41:31.0	47.260	0.090	-1.180	-0.710
2020/01/31 21:41:31.1	47.380	0.100	-1.170	-0.800
2020/01/31 21:41:31.2	47.490	0.100	-1.160	-0.880
2020/01/31 21:41:31.3	47.600	0.100	-1.130	-0.960
2020/01/31 21:41:31.4	47.710	0.100	-1.100	-1.040
2020/01/31 21:41:31.5	47.810	0.110	-1.070	-1.110
2020/01/31 21:41:31.6	47.910	0.110	-1.030	-1.180
2020/01/31 21:41:31.7	48.010	0.110	-0.980	-1.250
2020/01/31 21:41:31.8	48.100	0.110	-0.930	-1.310
2020/01/31 21:41:31.9	48.160	0.110	-0.880	-1.360
2020/01/31 21:41:32.0	48.250	0.120	-0.820	-1.410
2020/01/31 21:41:32.1	48.330	0.120	-0.760	-1.450
2020/01/31 21:41:32.2	48.410	0.120	-0.690	-1.490
2020/01/31 21:41:32.3	48.490	0.120	-0.610	-1.530
2020/01/31 21:41:32.4	48.570	0.130	-0.540	-1.550
2020/01/31 21:41:32.5	48.640	0.130	-0.460	-1.570
2020/01/31 21:41:32.6	48.710	0.130	-0.380	-1.590
2020/01/31 21:41:32.7	48.770	0.130	-0.300	-1.600
2020/01/31 21:41:32.8	48.840	0.140	-0.220	-1.600
2020/01/31 21:41:32.9	48.890	0.140	-0.130	-1.610
2020/01/31 21:41:33.0	48.950	0.150	-0.050	-1.600
2020/01/31 21:41:33.1	49.010	0.150	0.030	-1.590
2020/01/31 21:41:33.2	49.070	0.160	0.110	-1.570
2020/01/31 21:41:33.3	49.130	0.160	0.180	-1.540
2020/01/31 21:41:33.4	49.180	0.170	0.250	-1.520
2020/01/31 21:41:33.5	49.240	0.180	0.320	-1.480
2020/01/31 21:41:33.6	49.300	0.190	0.390	-1.450
2020/01/31 21:41:33.7	49.370	0.200	0.440	-1.410
2020/01/31 21:41:33.8	49.430	0.210	0.490	-1.370
2020/01/31 21:41:33.9	49.500	0.220	0.540	-1.320
2020/01/31 21:41:34.0	49.560	0.230	0.580	-1.270
2020/01/31 21:41:34.1	49.630	0.250	0.610	-1.220
2020/01/31 21:41:34.2	49.700	0.260	0.630	-1.170
2020/01/31 21:41:34.3	49.770	0.280	0.650	-1.110
2020/01/31 21:41:34.4	49.840	0.290	0.660	-1.060
2020/01/31 21:41:34.5	49.920	0.310	0.670	-1.000
2020/01/31 21:41:34.6	50.000	0.320	0.670	-0.940
2020/01/31 21:41:34.7	50.070	0.340	0.660	-0.880
2020/01/31 21:41:34.8	50.150	0.350	0.650	-0.820
2020/01/31 21:41:34.9	50.230	0.370	0.630	-0.750
2020/01/31 21:41:35.0	50.310	0.380	0.610	-0.690
2020/01/31 21:41:35.1	50.390	0.390	0.580	-0.630
2020/01/31 21:41:35.2	50.470	0.400	0.560	-0.570
2020/01/31 21:41:35.3	50.560	0.410	0.530	-0.510
2020/01/31 21:41:35.4	50.640	0.420	0.500	-0.450
2020/01/31 21:41:35.5	50.720	0.420	0.460	-0.390
2020/01/31 21:41:35.6	50.810	0.420	0.430	-0.340
2020/01/31 21:41:35.7	50.890	0.420	0.390	-0.290
2020/01/31 21:41:35.8	50.970	0.410	0.360	-0.240
2020/01/31 21:41:35.9	51.070	0.410	0.320	-0.190
2020/01/31 21:41:36.0	51.150	0.390	0.280	-0.140
2020/01/31 21:41:36.1	51.240	0.380	0.250	-0.100
2020/01/31 21:41:36.2	51.320	0.360	0.210	-0.070
2020/01/31 21:41:36.3	51.410	0.340	0.180	-0.030
2020/01/31 21:41:36.4	51.490	0.320	0.140	0.000
2020/01/31 21:41:36.5	51.580	0.290	0.110	0.030
2020/01/31 21:41:36.6	51.660	0.260	0.080	0.050
2020/01/31 21:41:36.7	51.750	0.230	0.050	0.070
2020/01/31 21:41:36.8	51.840	0.200	0.020	0.090
2020/01/31 21:41:36.9	51.930	0.160	-0.020	0.110
2020/01/31 21:41:37.0	52.020	0.120	-0.040	0.120
2020/01/31 21:41:37.1	52.110	0.080	-0.070	0.120
2020/01/31 21:41:37.2	52.200	0.040	-0.100	0.120
2020/01/31 21:41:37.3	52.300	-0.010	-0.130	0.120
2020/01/31 21:41:37.4	52.390	-0.050	-0.150	0.110
2020/01/31 21:41:37.5	52.490	-0.100	-0.180	0.100
2020/01/31 21:41:37.6	52.590	-0.140	-0.210	0.090
2020/01/31 21:41:37.7	52.690	-0.190	-0.230	0.080
2020/01/31 21:41:37.8	52.790	-0.230	-0.250	0.060
2020/01/31 21:41:37.9	52.890	-0.280	-0.280	0.030
2020/01/31 21:41:38.0	52.990	-0.320	-0.300	0.000
2020/01/31 21:41:38.1	53.090	-0.360	-0.320	-0.020
2020/01/31 21:41:38.2	53.200	-0.400	-0.340	-0.050
2020/01/31 21:41:38.3	53.300	-0.440	-0.360	-0.090
2020/01/31 21:41:38.4	53.400	-0.470	-0.380	-0.120
2020/01/31 21:41:38.5	53.510	-0.500	-0.400	-0.150
2020/01/31 21:41:38.6	53.610	-0.530	-0.420	-0.190
2020/01/31 21:41:38.7	53.710	-0.560	-0.430	-0.230
2020/01/31 21:41:38.8	53.820	-0.580	-0.450	-0.270
2020/01/31 21:41:38.9	53.930	-0.600	-0.460	-0.300
2020/01/31 21:41:39.0	54.030	-0.620	-0.470	-0.340
2020/01/31 21:41:39.1	54.130	-0.630	-0.480	-0.380
2020/01/31 21:41:39.2	54.230	-0.640	-0.490	-0.420
2020/01/31 21:41:39.3	54.330	-0.640	-0.500	-0.460
2020/01/31 21:41:39.4	54.420	-0.650	-0.500	-0.500
2020/01/31 21:41:39.5	54.520	-0.640	-0.510	-0.540
2020/01/31 21:41:39.6	54.610	-0.640	-0.510	-0.580
2020/01/31 21:41:39.7	54.700	-0.630	-0.510	-0.620
2020/01/31 21:41:39.8	54.790	-0.620	-0.510	-0.650
2020/01/31 21:41:39.9	54.890	-0.600	-0.500	-0.690
2020/01/31 21:41:40.0	54.970	-0.580	-0.500	-0.720
2020/01/31 21:41:40.1	55.060	-0.560	-0.490	-0.750
2020/01/31 21:41:40.2	55.150	-0.530	-0.480	-0.780
2020/01/31 21:41:40.3	55.230	-0.500	-0.460	-0.800
2020/01/31 21:41:40.4	55.310	-0.470	-0.450	-0.830
2020/01/31 21:41:40.5	55.390	-0.440	-0.430	-0.850
2020/01/31 21:41:40.6	55.470	-0.410	-0.410	-0.860
2020/01/31 21:41:40.7	55.550	-0.370	-0.390	-0.870
2020/01/31 21:41:40.8	55.630	-0.330	-0.370	-0.880
2020/01/31 21:41:40.9	55.710	-0.290	-0.340	-0.890
2020/01/31 21:41:41.0	55.790	-0.260	-0.320	-0.890
2020/01/31 21:41:41.1	55.870	-0.220	-0.290	-0.880
2020/01/31 21:41:41.2	55.940	-0.180	-0.260	-0.870
2020/01/31 21:41:41.3	56.020	-0.140	-0.230	-0.860
2020/01/31 21:41:41.4	56.090	-0.100	-0.200	-0.850
2020/01/31 21:41:41.5	56.160	-0.070	-0.170	-0.830
2020/01/31 21:41:41.6	56.230	-0.030	-0.140	-0.800
2020/01/31 21:41:41.7	56.300	-0.000	-0.110	-0.780
2020/01/31 21:41:41.8	56.370	0.030	-0.080	-0.740
2020/01/31 21:41:41.9	56.440	0.060	-0.060	-0.710
2020/01/31 21:41:42.0	56.510	0.080	-0.030	-0.670
2020/01/31 21:41:42.1	56.570	0.100	0.000	-0.620
2020/01/31 21:41:42.2	56.640	0.120	0.030	-0.580
2020/01/31 21:41:42.3	56.700	0.140	0.060	-0.520
2020/01/31 21:41:42.4	56.750	0.150	0.090	-0.470
2020/01/31 21:41:42.5	56.810	0.160	0.120	-0.420
2020/01/31 21:41:42.6	56.870	0.160	0.150	-0.360
2020/01/31 21:41:42.7	56.920	0.160	0.170	-0.300
2020/01/31 21:41:42.8	56.970	0.160	0.200	-0.250
2020/01/31 21:41:42.9	57.050	0.160	0.220	-0.190
2020/01/31 21:41:43.0	57.100	0.150	0.230	-0.140
2020/01/31 21:41:43.1	57.160	0.140	0.250	-0.080
2020/01/31 21:41:43.2	57.210	0.130	0.260	-0.030
2020/01/31 21:41:43.3	57.260	0.110	0.270	0.010
2020/01/31 21:41:43.4	57.310	0.090	0.270	0.050
2020/01/31 21:41:43.5	57.370	0.080	0.270	0.090
2020/01/31 21:41:43.6	57.420	0.060	0.270	0.120
2020/01/31 21:41:43.7	57.480	0.040	0.260	0.150
2020/01/31 21:41:43.8	57.540	0.020	0.250	0.170
2020/01/31 21:41:43.9	57.620	0.000	0.230	0.180
2020/01/31 21:41:44.0	57.690	-0.020	0.200	0.190
2020/01/31 21:41:44.1	57.750	-0.030	0.170	0.190
2020/01/31 21:41:44.2	57.820	-0.050	0.140	0.190
2020/01/31 21:41:44.3	57.890	-0.060	0.100	0.180
2020/01/31 21:41:44.4	57.970	-0.070	0.060	0.160
2020/01/31 21:41:44.5	58.040	-0.080	0.010	0.140
2020/01/31 21:41:44.6	58.120	-0.080	-0.040	0.110
2020/01/31 21:41:44.7	58.200	-0.080	-0.090	0.070
2020/01/31 21:41:44.8	58.290	-0.080	-0.150	0.030
2020/01/31 21:41:44.9	58.380	-0.070	-0.210	-0.010
2020/01/31 21:41:45.0	58.470	-0.060	-0.280	-0.060
2020/01/31 21:41:45.1	58.560	-0.040	-0.340	-0.110
2020/01/31 21:41:45.2	58.650	-0.020	-0.410	-0.160
2020/01/31 21:41:45.3	58.740	0.000	-0.470	-0.210
2020/01/31 21:41:45.4	58.830	0.030	-0.540	-0.270
2020/01/31 21:41:45.5	58.930	0.060	-0.610	-0.330
2020/01/31 21:41:45.6	59.030	0.100	-0.670	-0.380
2020/01/31 21:41:45.7	59.120	0.130	-0.740	-0.440
2020/01/31 21:41:45.8	59.220	0.170	-0.800	-0.490
2020/01/31 21:41:45.9	59.310	0.220	-0.860	-0.540
2020/01/31 21:41:46.0	59.400	0.260	-0.920	-0.590
2020/01/31 21:41:46.1	59.490	0.310	-0.970	-0.640
2020/01/31 21:41:46.2	59.580	0.360	-1.020	-0.680
2020/01/31 21:41:46.3	59.670	0.410	-1.060	-0.710
2020/01/31 21:41:46.4	59.760	0.460	-1.100	-0.750
2020/01/31 21:41:46.5	59.850	0.500	-1.130	-0.780
2020/01/31 21:41:46.6	59.930	0.550	-1.150	-0.800
2020/01/31 21:41:46.7	60.010	0.600	-1.170	-0.830
2020/01/31 21:41:46.8	60.090	0.640	-1.190	-0.850
2020/01/31 21:41:46.9	60.190	0.680	-1.190	-0.860
2020/01/31 21:41:47.0	60.270	0.720	-1.190	-0.880
2020/01/31 21:41:47.1	60.340	0.760	-1.180	-0.890
2020/01/31 21:41:47.2	60.420	0.790	-1.170	-0.900
2020/01/31 21:41:47.3	60.490	0.810	-1.150	-0.910
2020/01/31 21:41:47.4	60.570	0.840	-1.120	-0.910
2020/01/31 21:41:47.5	60.640	0.860	-1.080	-0.910
2020/01/31 21:41:47.6	60.720	0.870	-1.040	-0.920
2020/01/31 21:41:47.7	60.790	0.880	-0.990	-0.920
2020/01/31 21:41:47.8	60.860	0.880	-0.940	-0.920
2020/01/31 21:41:47.9	60.920	0.870	-0.880	-0.910
2020/01/31 21:41:48.0	61.000	0.870	-0.810	-0.910
2020/01/31 21:41:48.1	61.070	0.850	-0.740	-0.910
2020/01/31 21:41:48.2	61.150	0.830	-0.660	-0.900
2020/01/31 21:41:48.3	61.230	0.800	-0.580	-0.890
2020/01/31 21:41:48.4	61.300	0.770	-0.490	-0.880
2020/01/31 21:41:48.5	61.380	0.730	-0.400	-0.870
2020/01/31 21:41:48.6	61.460	0.690	-0.300	-0.860
2020/01/31 21:41:48.7	61.550	0.640	-0.200	-0.850
2020/01/31 21:41:48.8	61.630	0.590	-0.100	-0.830
2020/01/31 21:41:48.9	61.690	0.530	-0.000	-0.810
2020/01/31 21:41:49.0	61.770	0.470	0.100	-0.800
2020/01/31 21:41:49.1	61.860	0.410	0.200	-0.780
2020/01/31 21:41:49.2	61.950	0.340	0.310	-0.760
2020/01/31 21:41:49.3	62.030	0.270	0.410	-0.740
2020/01/31 21:41:49.4	62.120	0.190	0.510	-0.710
2020/01/31 21:41:49.5	62.210	0.120	0.610	-0.690
2020/01/31 21:41:49.6	62.290	0.040	0.710	-0.660
2020/01/31 21:41:49.7	62.380	-0.040	0.810	-0.630
2020/01/31 21:41:49.8	62.460	-0.130	0.900	-0.610
2020/01/31 21:41:49.9	62.560	-0.210	0.990	-0.580
2020/01/31 21:41:50.0	62.640	-0.290	1.070	-0.550
2020/01/31 21:41:50.1	62.720	-0.370	1.150	-0.520
2020/01/31 21:41:50.2	62.800	-0.450	1.230	-0.480
2020/01/31 21:41:50.3	62.880	-0.530	1.300	-0.450
2020/01/31 21:41:50.4	62.950	-0.610	1.360	-0.420
2020/01/31 21:41:50.5	63.030	-0.680	1.410	-0.380
2020/01/31 21:41:50.6	63.100	-0.760	1.460	-0.340
2020/01/31 21:41:50.7	63.170	-0.820	1.490	-0.310
2020/01/31 21:41:50.8	63.230	-0.890	1.520	-0.270
2020/01/31 21:41:50.9	63.300	-0.950	1.540	-0.230
2020/01/31 21:41:51.0	63.360	-1.000	1.550	-0.190
2020/01/31 21:41:51.1	63.420	-1.050	1.550	-0.160
2020/01/31 21:41:51.2	63.480	-1.090	1.540	-0.120
2020/01/31 21:41:51.3	63.540	-1.130	1.510	-0.090
2020/01/31 21:41:51.4	63.600	-1.160	1.480	-0.060
2020/01/31 21:41:51.5	63.660	-1.180	1.430	-0.020
2020/01/31 21:41:51.6	63.720	-1.200	1.380	0.010
2020/01/31 21:41:51.7	63.770	-1.210	1.310	0.040
2020/01/31 21:41:51.8	63.830	-1.220	1.230	0.060
2020/01/31 21:41:51.9	63.880	-1.210	1.140	0.090
2020/01/31 21:41:52.0	63.940	-1.200	1.040	0.110
2020/01/31 21:41:52.1	63.990	-1.180	0.930	0.130
2020/01/31 21:41:52.2	64.050	-1.160	0.820	0.150
2020/01/31 21:41:52.3	64.110	-1.130	0.690	0.170
2020/01/31 21:41:52.4	64.170	-1.090	0.560	0.180
2020/01/31 21:41:52.5	64.220	-1.050	0.430	0.190
2020/01/31 21:41:52.6	64.280	-1.000	0.290	0.200
2020/01/31 21:41:52.7	64.350	-0.940	0.140	0.210
2020/01/31 21:41:52.8	64.410	-0.880	-0.010	0.210
2020/01/31 21:41:52.9	64.470	-0.820	-0.160	0.210
2020/01/31 21:41:53.0	64.530	-0.750	-0.310	0.210
2020/01/31 21:41:53.1	64.600	-0.680	-0.460	0.210
2020/01/31 21:41:53.2	64.670	-0.610	-0.610	0.200
2020/01/31 21:41:53.3	64.740	-0.530	-0.760	0.190
2020/01/31 21:41:53.4	64.810	-0.450	-0.910	0.170
2020/01/31 21:41:53.5	64.880	-0.370	-1.050	0.160
2020/01/31 21:41:53.6	64.950	-0.290	-1.180	0.140
2020/01/31 21:41:53.7	65.030	-0.210	-1.310	0.120
2020/01/31 21:41:53.8	65.110	-0.130	-1.430	0.100
2020/01/31 21:41:53.9	65.160	-0.050	-1.550	0.080
2020/01/31 21:41:54.0	65.240	0.030	-1.650	0.060
2020/01/31 21:41:54.1	65.320	0.100	-1.740	0.030
2020/01/31 21:41:54.2	65.400	0.180	-1.820	0.010
2020/01/31 21:41:54.3	65.480	0.250	-1.890	-0.010
2020/01/31 21:41:54.4	65.560	0.320	-1.950	-0.030
2020/01/31 21:41:54.5	65.650	0.380	-2.000	-0.040
2020/01/31 21:41:54.6	65.730	0.440	-2.030	-0.060
2020/01/31 21:41:54.7	65.810	0.500	-2.050	-0.080
2020/01/31 21:41:54.8	65.900	0.550	-2.060	-0.090
2020/01/31 21:41:54.9	65.980	0.600	-2.050	-0.100
2020/01/31 21:41:55.0	66.060	0.640	-2.030	-0.110
2020/01/31 21:41:55.1	66.150	0.680	-2.000	-0.120
2020/01/31 21:41:55.2	66.230	0.710	-1.960	-0.130
2020/01/31 21:41:55.3	66.320	0.740	-1.910	-0.130
2020/01/31 21:41:55.4	66.400	0.760	-1.840	-0.140
2020/01/31 21:41:55.5	66.490	0.780	-1.770	-0.140
2020/01/31 21:41:55.6	66.570	0.790	-1.680	-0.140
2020/01/31 21:41:55.7	66.660	0.800	-1.590	-0.140
2020/01/31 21:41:55.8	66.750	0.800	-1.490	-0.140
2020/01/31 21:41:55.9	66.830	0.800	-1.380	-0.140
2020/01/31 21:41:56.0	66.920	0.790	-1.260	-0.140
2020/01/31 21:41:56.1	67.010	0.780	-1.140	-0.140
2020/01/31 21:41:56.2	67.100	0.760	-1.020	-0.140
2020/01/31 21:41:56.3	67.200	0.740	-0.890	-0.130
2020/01/31 21:41:56.4	67.290	0.720	-0.760	-0.130
2020/01/31 21:41:56.5	67.380	0.700	-0.620	-0.130
2020/01/31 21:41:56.6	67.470	0.670	-0.490	-0.130
2020/01/31 21:41:56.7	67.570	0.640	-0.350	-0.120
2020/01/31 21:41:56.8	67.660	0.600	-0.220	-0.120
2020/01/31 21:41:56.9	67.770	0.570	-0.090	-0.120
2020/01/31 21:41:57.0	67.860	0.530	0.040	-0.120
2020/01/31 21:41:57.1	67.950	0.490	0.160	-0.110
2020/01/31 21:41:57.2	68.040	0.450	0.280	-0.110
2020/01/31 21:41:57.3	68.130	0.410	0.400	-0.100
2020/01/31 21:41:57.4	68.210	0.370	0.510	-0.090
2020/01/31 21:41:57.5	68.300	0.330	0.620	-0.080
2020/01/31 21:41:57.6	68.380	0.280	0.720	-0.070
2020/01/31 21:41:57.7	68.460	0.240	0.810	-0.060
2020/01/31 21:41:57.8	68.540	0.200	0.900	-0.050
2020/01/31 21:41:57.9	68.610	0.150	0.970	-0.040
2020/01/31 21:41:58.0	68.680	0.110	1.040	-0.020
2020/01/31 21:41:58.1	68.750	0.060	1.100	-0.010
2020/01/31 21:41:58.2	68.810	0.020	1.160	0.010
2020/01/31 21:41:58.3	68.870	-0.020	1.200	0.020
2020/01/31 21:41:58.4	68.930	-0.060	1.240	0.040
2020/01/31 21:41:58.5	68.990	-0.110	1.270	0.060
2020/01/31 21:41:58.6	69.040	-0.150	1.290	0.070
2020/01/31 21:41:58.7	69.090	-0.180	1.300	0.090
2020/01/31 21:41:58.8	69.140	-0.220	1.300	0.110
2020/01/31 21:41:58.9	69.180	-0.260	1.290	0.120
2020/01/31 21:41:59.0	69.230	-0.290	1.280	0.130
2020/01/31 21:41:59.1	69.270	-0.330	1.260	0.140
2020/01/31 21:41:59.2	69.310	-0.360	1.230	0.150
2020/01/31 21:41:59.3	69.360	-0.390	1.200	0.160
2020/01/31 21:41:59.4	69.400	-0.420	1.150	0.160
2020/01/31 21:41:59.5	69.440	-0.440	1.100	0.160
2020/01/31 21:41:59.6	69.480	-0.460	1.050	0.150
2020/01/31 21:41:59.7	69.520	-0.480	0.980	0.140
2020/01/31 21:41:59.8	69.560	-0.500	0.910	0.130
2020/01/31 21:41:59.9	69.600	-0.510	0.840	0.110
2020/01/31 21:42:00.0	69.640	-0.520	0.760	0.090
2020/01/31 21:42:00.1	69.680	-0.530	0.670	0.060
2020/01/31 21:42:00.2	69.730	-0.540	0.580	0.030
2020/01/31 21:42:00.3	69.780	-0.540	0.490	-0.000
2020/01/31 21:42:00.4	69.830	-0.530	0.400	-0.040
2020/01/31 21:42:00.5	69.880	-0.530	0.300	-0.090
2020/01/31 21:42:00.6	69.930	-0.520	0.200	-0.130
2020/01/31 21:42:00.7	69.990	-0.510	0.100	-0.190
2020/01/31 21:42:00.8	70.050	-0.490	-0.000	-0.240
2020/01/31 21:42:00.9	70.080	-0.480	-0.110	-0.300
2020/01/31 21:42:01.0	70.150	-0.460	-0.210	-0.360
2020/01/31 21:42:01.1	70.210	-0.430	-0.310	-0.420
2020/01/31 21:42:01.2	70.280	-0.400	-0.410	-0.480
2020/01/31 21:42:01.3	70.340	-0.370	-0.500	-0.550
2020/01/31 21:42:01.4	70.410	-0.340	-0.600	-0.610
2020/01/31 21:42:01.5	70.480	-0.310	-0.680	-0.680
2020/01/31 21:42:01.6	70.560	-0.270	-0.770	-0.750
2020/01/31 21:42:01.7	70.630	-0.230	-0.850	-0.810
2020/01/31 21:42:01.8	70.710	-0.190	-0.930	-0.870
2020/01/31 21:42:01.9	70.790	-0.140	-1.000	-0.940
2020/01/31 21:42:02.0	70.870	-0.100	-1.070	-1.000
2020/01/31 21:42:02.1	70.950	-0.060	-1.130	-1.060
2020/01/31 21:42:02.2	71.040	-0.010	-1.180	-1.120
2020/01/31 21:42:02.3	71.120	0.040	-1.230	-1.170
2020/01/31 21:42:02.4	71.210	0.080	-1.260	-1.220
2020/01/31 21:42:02.5	71.300	0.130	-1.290	-1.270
2020/01/31 21:42:02.6	71.400	0.170	-1.320	-1.320
2020/01/31 21:42:02.7	71.490	0.220	-1.330	-1.360
2020/01/31 21:42:02.8	71.590	0.260	-1.340	-1.390
2020/01/31 21:42:02.9	71.700	0.300	-1.340	-1.430
2020/01/31 21:42:03.0	71.800	0.340	-1.330	-1.450
2020/01/31 21:42:03.1	71.910	0.380	-1.310	-1.470
2020/01/31 21:42:03.2	72.010	0.410	-1.290	-1.490
2020/01/31 21:42:03.3	72.120	0.450	-1.260	-1.500
2020/01/31 21:42:03.4	72.230	0.480	-1.220	-1.500
2020/01/31 21:42:03.5	72.340	0.500	-1.180	-1.500
2020/01/31 21:42:03.6	72.450	0.530	-1.130	-1.490
2020/01/31 21:42:03.7	72.560	0.550	-1.070	-1.480
2020/01/31 21:42:03.8	72.670	0.560	-1.010	-1.460
2020/01/31 21:42:03.9	72.780	0.570	-0.940	-1.430
2020/01/31 21:42:04.0	72.890	0.580	-0.880	-1.390
2020/01/31 21:42:04.1	73.000	0.590	-0.800	-1.350
2020/01/31 21:42:04.2	73.110	0.590	-0.730	-1.300
2020/01/31 21:42:04.3	73.210	0.590	-0.650	-1.250
2020/01/31 21:42:04.4	73.320	0.580	-0.570	-1.190
2020/01/31 21:42:04.5	73.420	0.570	-0.490	-1.120
2020/01/31 21:42:04.6	73.520	0.550	-0.410	-1.050
2020/01/31 21:42:04.7	73.610	0.530	-0.320	-0.970
2020/01/31 21:42:04.8	73.710	0.510	-0.240	-0.890
2020/01/31 21:42:04.9	73.790	0.490	-0.160	-0.790
2020/01/31 21:42:05.0	73.880	0.460	-0.080	-0.700
2020/01/31 21:42:05.1	73.960	0.420	-0.000	-0.610
2020/01/31 21:42:05.2	74.040	0.390	0.070	-0.510
2020/01/31 21:42:05.3	74.110	0.350	0.150	-0.410
2020/01/31 21:42:05.4	74.180	0.310	0.220	-0.300
2020/01/31 21:42:05.5	74.250	0.270	0.290	-0.190
2020/01/31 21:42:05.6	74.320	0.220	0.350	-0.080
2020/01/31 21:42:05.7	74.380	0.180	0.410	0.030
2020/01/31 21:42:05.8	74.430	0.130	0.470	0.140
2020/01/31 21:42:05.9	74.510	0.080	0.520	0.250
2020/01/31 21:42:06.0	74.560	0.030	0.570	0.360
2020/01/31 21:42:06.1	74.610	-0.010	0.610	0.470
2020/01/31 21:42:06.2	74.650	-0.060	0.650	0.580
2020/01/31 21:42:06.3	74.700	-0.110	0.680	0.680
2020/01/31 21:42:06.4	74.750	-0.160	0.710	0.780
2020/01/31 21:42:06.5	74.790	-0.200	0.730	0.880
2020/01/31 21:42:06.6	74.830	-0.250	0.740	0.980
2020/01/31 21:42:06.7	74.870	-0.290	0.750	1.070
2020/01/31 21:42:06.8	74.920	-0.330	0.750	1.150
2020/01/31 21:42:06.9	74.970	-0.370	0.750	1.240
2020/01/31 21:42:07.0	75.010	-0.400	0.740	1.310
2020/01/31 21:42:07.1	75.060	-0.440	0.730	1.380
2020/01/31 21:42:07.2	75.100	-0.460	0.710	1.440
2020/01/31 21:42:07.3	75.150	-0.490	0.680	1.490
2020/01/31 21:42:07.4	75.200	-0.510	0.650	1.540
2020/01/31 21:42:07.5	75.250	-0.530	0.620	1.580
2020/01/31 21:42:07.6	75.300	-0.550	0.580	1.610
2020/01/31 21:42:07.7	75.350	-0.560	0.530	1.640
2020/01/31 21:42:07.8	75.400	-0.560	0.490	1.660
2020/01/31 21:42:07.9	75.470	-0.570	0.430	1.670
2020/01/31 21:42:08.0	75.530	-0.570	0.380	1.670
2020/01/31 21:42:08.1	75.580	-0.560	0.320	1.670
2020/01/31 21:42:08.2	75.640	-0.550	0.270	1.670
2020/01/31 21:42:08.3	75.700	-0.540	0.210	1.650
2020/01/31 21:42:08.4	75.760	-0.530	0.140	1.640
2020/01/31 21:42:08.5	75.820	-0.510	0.080	1.610
2020/01/31 21:42:08.6	75.880	-0.490	0.020	1.590
2020/01/31 21:42:08.7	75.940	-0.460	-0.040	1.560
2020/01/31 21:42:08.8	76.010	-0.430	-0.110	1.520
2020/01/31 21:42:08.9	76.080	-0.400	-0.170	1.480
2020/01/31 21:42:09.0	76.140	-0.370	-0.230	1.440
2020/01/31 21:42:09.1	76.210	-0.330	-0.290	1.400
2020/01/31 21:42:09.2	76.270	-0.300	-0.350	1.350
2020/01/31 21:42:09.3	76.340	-0.260	-0.410	1.310
2020/01/31 21:42:09.4	76.400	-0.220	-0.460	1.260
2020/01/31 21:42:09.5	76.460	-0.180	-0.510	1.210
2020/01/31 21:42:09.6	76.530	-0.140	-0.560	1.160
2020/01/31 21:42:09.7	76.590	-0.100	-0.610	1.100
2020/01/31 21:42:09.8	76.660	-0.050	-0.650	1.050
2020/01/31 21:42:09.9	76.720	-0.010	-0.690	1.000
2020/01/31 21:42:10.0	76.780	0.030	-0.720	0.940
2020/01/31 21:42:10.1	76.850	0.070	-0.750	0.880
2020/01/31 21:42:10.2	76.910	0.110	-0.780	0.820
2020/01/31 21:42:10.3	76.980	0.150	-0.810	0.760
2020/01/31 21:42:10.4	77.050	0.180	-0.830	0.690
2020/01/31 21:42:10.5	77.110	0.220	-0.850	0.630
2020/01/31 21:42:10.6	77.180	0.250	-0.860	0.560
2020/01/31 21:42:10.7	77.250	0.280	-0.870	0.490
2020/01/31 21:42:10.8	77.330	0.310	-0.880	0.410
2020/01/31 21:42:10.9	77.410	0.340	-0.880	0.340
2020/01/31 21:42:11.0	77.490	0.360	-0.880	0.260
2020/01/31 21:42:11.1	77.570	0.380	-0.880	0.180
2020/01/31 21:42:11.2	77.650	0.400	-0.880	0.090
2020/01/31 21:42:11.3	77.730	0.420	-0.870	0.010
2020/01/31 21:42:11.4	77.820	0.430	-0.850	-0.080
2020/01/31 21:42:11.5	77.900	0.450	-0.830	-0.170
2020/01/31 21:42:11.6	77.990	0.450	-0.810	-0.250
2020/01/31 21:42:11.7	78.080	0.460	-0.790	-0.340
2020/01/31 21:42:11.8	78.170	0.460	-0.760	-0.430
2020/01/31 21:42:11.9	78.280	0.460	-0.730	-0.520
2020/01/31 21:42:12.0	78.370	0.460	-0.700	-0.610
2020/01/31 21:42:12.1	78.460	0.460	-0.660	-0.690
2020/01/31 21:42:12.2	78.550	0.450	-0.620	-0.770
2020/01/31 21:42:12.3	78.640	0.440	-0.580	-0.860
2020/01/31 21:42:12.4	78.730	0.430	-0.530	-0.930
2020/01/31 21:42:12.5	78.820	0.420	-0.480	-1.010
2020/01/31 21:42:12.6	78.910	0.400	-0.440	-1.080
2020/01/31 21:42:12.7	78.990	0.390	-0.380	-1.140
2020/01/31 21:42:12.8	79.080	0.370	-0.330	-1.200
2020/01/31 21:42:12.9	79.180	0.350	-0.280	-1.260
2020/01/31 21:42:13.0	79.260	0.330	-0.220	-1.310
2020/01/31 21:42:13.1	79.340	0.310	-0.170	-1.350
2020/01/31 21:42:13.2	79.420	0.280	-0.120	-1.390
2020/01/31 21:42:13.3	79.500	0.260	-0.070	-1.430
2020/01/31 21:42:13.4	79.570	0.240	-0.010	-1.450
2020/01/31 21:42:13.5	79.650	0.210	0.040	-1.480
2020/01/31 21:42:13.6	79.720	0.190	0.090	-1.490
2020/01/31 21:42:13.7	79.800	0.160	0.130	-1.510
2020/01/31 21:42:13.8	79.870	0.140	0.180	-1.510
2020/01/31 21:42:13.9	79.930	0.110	0.220	-1.520
2020/01/31 21:42:14.0	80.000	0.090	0.260	-1.510
2020/01/31 21:42:14.1	80.070	0.070	0.290	-1.500
2020/01/31 21:42:14.2	80.140	0.040	0.330	-1.490
2020/01/31 21:42:14.3	80.210	0.020	0.360	-1.470
2020/01/31 21:42:14.4	80.280	-0.000	0.380	-1.450
2020/01/31 21:42:14.5	80.350	-0.020	0.410	-1.420
2020/01/31 21:42:14.6	80.420	-0.040	0.430	-1.390
2020/01/31 21:42:14.7	80.490	-0.060	0.440	-1.350
2020/01/31 21:42:14.8	80.550	-0.070	0.450	-1.310
2020/01/31 21:42:14.9	80.620	-0.090	0.460	-1.270
2020/01/31 21:42:15.0	80.690	-0.110	0.460	-1.220
2020/01/31 21:42:15.1	80.750	-0.120	0.460	-1.170
2020/01/31 21:42:15.2	80.820	-0.130	0.460	-1.120
2020/01/31 21:42:15.3	80.890	-0.140	0.450	-1.070
2020/01/31 21:42:15.4	80.950	-0.160	0.440	-1.010
2020/01/31 21:42:15.5	81.020	-0.170	0.430	-0.950
2020/01/31 21:42:15.6	81.080	-0.170	0.410	-0.890
2020/01/31 21:42:15.7	81.150	-0.180	0.400	-0.820
2020/01/31 21:42:15.8	81.210	-0.190	0.380	-0.760
2020/01/31 21:42:15.9	81.260	-0.200	0.350	-0.690
2020/01/31 21:42:16.0	81.330	-0.200	0.330	-0.620
2020/01/31 21:42:16.1	81.390	-0.210	0.300	-0.560
2020/01/31 21:42:16.2	81.450	-0.210	0.270	-0.490
2020/01/31 21:42:16.3	81.500	-0.220	0.240	-0.420
2020/01/31 21:42:16.4	81.560	-0.220	0.210	-0.350
2020/01/31 21:42:16.5	81.620	-0.230	0.180	-0.280
2020/01/31 21:42:16.6	81.680	-0.230	0.150	-0.220
2020/01/31 21:42:16.7	81.730	-0.230	0.120	-0.150
2020/01/31 21:42:16.8	81.790	-0.240	0.090	-0.090
2020/01/31 21:42:16.9	81.840	-0.240	0.060	-0.020
2020/01/31 21:42:17.0	81.900	-0.240	0.020	0.040
2020/01/31 21:42:17.1	81.950	-0.250	-0.010	0.100
2020/01/31 21:42:17.2	82.010	-0.250	-0.040	0.150
2020/01/31 21:42:17.3	82.060	-0.250	-0.070	0.210
2020/01/31 21:42:17.4	82.120	-0.250	-0.100	0.260
2020/01/31 21:42:17.5	82.170	-0.250	-0.140	0.310
2020/01/31 21:42:17.6	82.220	-0.250	-0.170	0.360
2020/01/31 21:42:17.7	82.280	-0.250	-0.200	0.400
2020/01/31 21:42:17.8	82.330	-0.250	-0.220	0.440
2020/01/31 21:42:17.9	82.380	-0.250	-0.250	0.480
2020/01/31 21:42:18.0	82.430	-0.250	-0.280	0.510
2020/01/31 21:42:18.1	82.490	-0.250	-0.310	0.540
2020/01/31 21:42:18.2	82.540	-0.250	-0.330	0.570
2020/01/31 21:42:18.3	82.600	-0.240	-0.350	0.600
2020/01/31 21:42:18.4	82.660	-0.240	-0.370	0.620
2020/01/31 21:42:18.5	82.720	-0.230	-0.390	0.640
2020/01/31 21:42:18.6	82.780	-0.230	-0.410	0.650
2020/01/31 21:42:18.7	82.840	-0.220	-0.430	0.660
2020/01/31 21:42:18.8	82.900	-0.210	-0.440	0.670
2020/01/31 21:42:18.9	82.980	-0.200	-0.450	0.680
2020/01/31 21:42:19.0	83.050	-0.190	-0.460	0.680
2020/01/31 21:42:19.1	83.120	-0.180	-0.470	0.680
2020/01/31 21:42:19.2	83.190	-0.170	-0.480	0.680
2020/01/31 21:42:19.3	83.260	-0.150	-0.490	0.670
2020/01/31 21:42:19.4	83.330	-0.130	-0.500	0.660
2020/01/31 21:42:19.5	83.410	-0.120	-0.500	0.650
2020/01/31 21:42:19.6	83.490	-0.100	-0.510	0.640
2020/01/31 21:42:19.7	83.570	-0.080	-0.510	0.620
2020/01/31 21:42:19.8	83.650	-0.060	-0.510	0.600
2020/01/31 21:42:19.9	83.700	-0.040	-0.510	0.570
2020/01/31 21:42:20.0	83.790	-0.010	-0.520	0.550
2020/01/31 21:42:20.1	83.880	0.010	-0.520	0.520
2020/01/31 21:42:20.2	83.970	0.040	-0.520	0.490
2020/01/31 21:42:20.3	84.060	0.060	-0.520	0.460
2020/01/31 21:42:20.4	84.150	0.090	-0.520	0.430
2020/01/31 21:42:20.5	84.250	0.120	-0.520	0.400
2020/01/31 21:42:20.6	84.340	0.150	-0.510	0.360
2020/01/31 21:42:20.7	84.440	0.180	-0.510	0.330
2020/01/31 21:42:20.8	84.530	0.210	-0.510	0.290
2020/01/31 21:42:20.9	84.600	0.240	-0.500	0.260
2020/01/31 21:42:21.0	84.690	0.270	-0.500	0.220
2020/01/31 21:42:21.1	84.790	0.300	-0.490	0.190
2020/01/31 21:42:21.2	84.880	0.330	-0.480	0.160
2020/01/31 21:42:21.3	84.980	0.360	-0.480	0.130
2020/01/31 21:42:21.4	85.070	0.380	-0.470	0.100
2020/01/31 21:42:21.5	85.160	0.410	-0.460	0.070
2020/01/31 21:42:21.6	85.250	0.440	-0.450	0.050
2020/01/31 21:42:21.7	85.340	0.460	-0.440	0.030
2020/01/31 21:42:21.8	85.420	0.480	-0.430	0.010
2020/01/31 21:42:21.9	85.490	0.500	-0.420	-0.000
2020/01/31 21:42:22.0	85.570	0.520	-0.410	-0.010
2020/01/31 21:42:22.1	85.650	0.540	-0.400	-0.020
2020/01/31 21:42:22.2	85.730	0.550	-0.380	-0.030
2020/01/31 21:42:22.3	85.800	0.560	-0.370	-0.030
2020/01/31 21:42:22.4	85.870	0.570	-0.350	-0.030
2020/01/31 21:42:22.5	85.940	0.570	-0.340	-0.020
2020/01/31 21:42:22.6	86.000	0.580	-0.320	-0.020
2020/01/31 21:42:22.7	86.070	0.580	-0.300	-0.010
2020/01/31 21:42:22.8	86.130	0.570	-0.280	0.010
2020/01/31 21:42:22.9	86.190	0.560	-0.260	0.020
2020/01/31 21:42:23.0	86.240	0.550	-0.240	0.040
2020/01/31 21:42:23.1	86.290	0.540	-0.220	0.060
2020/01/31 21:42:23.2	86.340	0.520	-0.200	0.080
2020/01/31 21:42:23.3	86.390	0.500	-0.180	0.100
2020/01/31 21:42:23.4	86.430	0.470	-0.150	0.130
2020/01/31 21:42:23.5	86.480	0.440	-0.130	0.150
2020/01/31 21:42:23.6	86.520	0.410	-0.110	0.180
2020/01/31 21:42:23.7	86.560	0.380	-0.080	0.200
2020/01/31 21:42:23.8	86.600	0.340	-0.060	0.230
2020/01/31 21:42:23.9	86.630	0.300	-0.040	0.260
2020/01/31 21:42:24.0	86.660	0.250	-0.020	0.280
2020/01/31 21:42:24.1	86.700	0.210	0.010	0.310
2020/01/31 21:42:24.2	86.740	0.160	0.030	0.330
2020/01/31 21:42:24.3	86.770	0.110	0.050	0.350
2020/01/31 21:42:24.4	86.810	0.060	0.070	0.380
2020/01/31 21:42:24.5	86.850	0.010	0.090	0.400
2020/01/31 21:42:24.6	86.880	-0.040	0.110	0.410
2020/01/31 21:42:24.7	86.920	-0.090	0.130	0.430
2020/01/31 21:42:24.8	86.960	-0.140	0.140	0.440
2020/01/31 21:42:24.9	87.000	-0.200	0.160	0.450
2020/01/31 21:42:25.0	87.040	-0.250	0.170	0.460
2020/01/31 21:42:25.1	87.090	-0.300	0.190	0.470
2020/01/31 21:42:25.2	87.130	-0.350	0.200	0.470
2020/01/31 21:42:25.3	87.180	-0.400	0.210	0.470
2020/01/31 21:42:25.4	87.230	-0.450	0.220	0.470
2020/01/31 21:42:25.5	87.280	-0.490	0.230	0.460
2020/01/31 21:42:25.6	87.330	-0.530	0.230	0.450
2020/01/31 21:42:25.7	87.390	-0.570	0.240	0.430
2020/01/31 21:42:25.8	87.450	-0.610	0.240	0.410
2020/01/31 21:42:25.9	87.510	-0.640	0.240	0.390
2020/01/31 21:42:26.0	87.570	-0.670	0.240	0.360
2020/01/31 21:42:26.1	87.640	-0.700	0.240	0.330
2020/01/31 21:42:26.2	87.700	-0.720	0.240	0.300
2020/01/31 21:42:26.3	87.770	-0.740	0.230	0.260
2020/01/31 21:42:26.4	87.850	-0.760	0.230	0.220
2020/01/31 21:42:26.5	87.920	-0.770	0.220	0.170
2020/01/31 21:42:26.6	88.000	-0.770	0.210	0.130
2020/01/31 21:42:26.7	88.080	-0.780	0.200	0.080
2020/01/31 21:42:26.8	88.160	-0.780	0.190	0.020
2020/01/31 21:42:26.9	88.230	-0.770	0.170	-0.040
2020/01/31 21:42:27.0	88.310	-0.760	0.160	-0.090
2020/01/31 21:42:27.1	88.400	-0.750	0.140	-0.150
2020/01/31 21:42:27.2	88.480	-0.730	0.130	-0.210
2020/01/31 21:42:27.3	88.570	-0.710	0.110	-0.270
2020/01/31 21:42:27.4	88.660	-0.690	0.090	-0.330
2020/01/31 21:42:27.5	88.740	-0.660	0.070	-0.390
2020/01/31 21:42:27.6	88.830	-0.630	0.060	-0.450
2020/01/31 21:42:27.7	88.920	-0.590	0.040	-0.510
2020/01/31 21:42:27.8	89.000	-0.560	0.020	-0.570
2020/01/31 21:42:27.9	89.080	-0.520	-0.010	-0.620
2020/01/31 21:42:28.0	89.160	-0.480	-0.030	-0.670
2020/01/31 21:42:28.1	89.240	-0.430	-0.050	-0.720
2020/01/31 21:42:28.2	89.320	-0.390	-0.070	-0.770
2020/01/31 21:42:28.3	89.400	-0.340	-0.090	-0.810
2020/01/31 21:42:28.4	89.480	-0.290	-0.110	-0.850
2020/01/31 21:42:28.5	89.550	-0.240	-0.130	-0.890
2020/01/31 21:42:28.6	89.630	-0.190	-0.160	-0.920
2020/01/31 21:42:28.7	89.700	-0.140	-0.180	-0.950
2020/01/31 21:42:28.8	89.770	-0.090	-0.200	-0.970
2020/01/31 21:42:28.9	89.840	-0.040	-0.220	-0.990
2020/01/31 21:42:29.0	89.910	0.010	-0.240	-1.010
2020/01/31 21:42:29.1	89.970	0.060	-0.260	-1.020
2020/01/31 21:42:29.2	90.030	0.110	-0.280	-1.030
2020/01/31 21:42:29.3	90.090	0.160	-0.300	-1.030
2020/01/31 21:42:29.4	90.140	0.200	-0.320	-1.040
2020/01/31 21:42:29.5	90.200	0.250	-0.340	-1.030
2020/01/31 21:42:29.6	90.250	0.290	-0.360	-1.030
2020/01/31 21:42:29.7	90.300	0.330	-0.380	-1.020
2020/01/31 21:42:29.8	90.350	0.370	-0.400	-1.010
2020/01/31 21:42:29.9	90.410	0.410	-0.420	-0.990
2020/01/31 21:42:30.0	90.450	0.450	-0.430	-0.980
2020/01/31 21:42:30.1	90.500	0.480	-0.450	-0.960
2020/01/31 21:42:30.2	90.550	0.520	-0.460	-0.940
2020/01/31 21:42:30.3	90.590	0.550	-0.480	-0.920
2020/01/31 21:42:30.4	90.630	0.570	-0.490	-0.900
2020/01/31 21:42:30.5	90.680	0.600	-0.510	-0.870
2020/01/31 21:42:30.6	90.720	0.620	-0.520	-0.850
2020/01/31 21:42:30.7	90.760	0.640	-0.530	-0.820
2020/01/31 21:42:30.8	90.800	0.650	-0.540	-0.800
2020/01/31 21:42:30.9	90.850	0.660	-0.540	-0.770
2020/01/31 21:42:31.0	90.890	0.670	-0.550	-0.740
2020/01/31 21:42:31.1	90.930	0.680	-0.550	-0.710
2020/01/31 21:42:31.2	90.970	0.680	-0.550	-0.690
2020/01/31 21:42:31.3	91.010	0.680	-0.550	-0.660
2020/01/31 21:42:31.4	91.050	0.680	-0.550	-0.630
2020/01/31 21:42:31.5	91.090	0.680	-0.550	-0.600
2020/01/31 21:42:31.6	91.130	0.670	-0.540	-0.580
2020/01/31 21:42:31.7	91.170	0.660	-0.530	-0.550
2020/01/31 21:42:31.8	91.210	0.640	-0.520	-0.520
2020/01/31 21:42:31.9	91.260	0.630	-0.510	-0.490
2020/01/31 21:42:32.0	91.300	0.610	-0.490	-0.460
2020/01/31 21:42:32.1	91.330	0.580	-0.470	-0.440
2020/01/31 21:42:32.2	91.370	0.560	-0.450	-0.410
2020/01/31 21:42:32.3	91.410	0.530	-0.430	-0.380
2020/01/31 21:42:32.4	91.440	0.500	-0.400	-0.350
2020/01/31 21:42:32.5	91.480	0.470	-0.380	-0.320
2020/01/31 21:42:32.6	91.510	0.440	-0.350	-0.290
2020/01/31 21:42:32.7	91.550	0.400	-0.320	-0.260
2020/01/31 21:42:32.8	91.580	0.360	-0.290	-0.230
2020/01/31 21:42:32.9	91.630	0.330	-0.260	-0.200
2020/01/31 21:42:33.0	91.670	0.290	-0.230	-0.170
2020/01/31 21:42:33.1	91.700	0.240	-0.190	-0.140
2020/01/31 21:42:33.2	91.730	0.200	-0.160	-0.110
2020/01/31 21:42:33.3	91.760	0.160	-0.120	-0.080
2020/01/31 21:42:33.4	91.790	0.120	-0.090	-0.050
2020/01/31 21:42:33.5				
2020/01/31 21:42:33.6	91.820	0.070	-0.060	-0.020
2020/01/31 21:42:33.7	91.880	-0.020	0.010	0.040
2020/01/31 21:42:33.8	91.910	-0.060	0.040	0.060
2020/01/31 21:42:33.9	91.950	-0.100	0.070	0.090
2020/01/31 21:42:34.0	91.980	-0.150	0.100	0.120
2020/01/31 21:42:34.1	92.000	-0.190	0.130	0.140
2020/01/31 21:42:34.2	92.030	-0.230	0.160	0.160
2020/01/31 21:42:34.3	92.060	-0.270	0.180	0.180
2020/01/31 21:42:34.4	92.090	-0.300	0.210	0.200
2020/01/31 21:42:34.5	92.110	-0.340	0.230	0.220
2020/01/31 21:42:34.6	92.140	-0.370	0.250	0.240
2020/01/31 21:42:34.7	92.170	-0.400	0.270	0.260
2020/01/31 21:42:34.8	92.200	-0.430	0.290	0.270
2020/01/31 21:42:34.9	92.240	-0.450	0.300	0.290
2020/01/31 21:42:35.0	92.270	-0.480	0.310	0.300
2020/01/31 21:42:35.1	92.300	-0.490	0.320	0.310
2020/01/31 21:42:35.2	92.330	-0.510	0.320	0.320
2020/01/31 21:42:35.3	92.360	-0.520	0.320	0.330
2020/01/31 21:42:35.4	92.400	-0.530	0.320	0.330
2020/01/31 21:42:35.5	92.430	-0.540	0.310	0.340
2020/01/31 21:42:35.6	92.460	-0.540	0.300	0.340
2020/01/31 21:42:35.7	92.500	-0.530	0.280	0.340
2020/01/31 21:42:35.8	92.530	-0.530	0.260	0.340
2020/01/31 21:42:35.9	92.560	-0.520	0.240	0.340
2020/01/31 21:42:36.0	92.600	-0.500	0.220	0.330
2020/01/31 21:42:36.1	92.630	-0.490	0.190	0.330
2020/01/31 21:42:36.2	92.670	-0.460	0.150	0.320
2020/01/31 21:42:36.3	92.700	-0.440	0.120	0.320
2020/01/31 21:42:36.4	92.740	-0.410	0.080	0.310
2020/01/31 21:42:36.5	92.770	-0.380	0.030	0.300
2020/01/31 21:42:36.6	92.810	-0.350	-0.010	0.290
2020/01/31 21:42:36.7	92.840	-0.310	-0.060	0.280
2020/01/31 21:42:36.8	92.880	-0.280	-0.110	0.270
2020/01/31 21:42:36.9	92.920	-0.240	-0.170	0.260
2020/01/31 21:42:37.0	92.950	-0.200	-0.220	0.240
2020/01/31 21:42:37.1	92.980	-0.150	-0.270	0.230
2020/01/31 21:42:37.2	93.020	-0.110	-0.330	0.210
2020/01/31 21:42:37.3	93.050	-0.060	-0.380	0.190
2020/01/31 21:42:37.4	93.080	-0.020	-0.440	0.170
2020/01/31 21:42:37.5	93.120	0.030	-0.490	0.150
2020/01/31 21:42:37.6	93.150	0.070	-0.540	0.130
2020/01/31 21:42:37.7	93.180	0.110	-0.590	0.110
2020/01/31 21:42:37.8	93.220	0.160	-0.640	0.090
2020/01/31 21:42:37.9	93.250	0.200	-0.690	0.060
2020/01/31 21:42:38.0	93.280	0.240	-0.730	0.040
2020/01/31 21:42:38.1	93.320	0.280	-0.770	0.010
2020/01/31 21:42:38.2	93.350	0.320	-0.810	-0.020
2020/01/31 21:42:38.3	93.380	0.350	-0.840	-0.040
2020/01/31 21:42:38.4	93.420	0.380	-0.860	-0.070
2020/01/31 21:42:38.5	93.450	0.410	-0.890	-0.090
2020/01/31 21:42:38.6	93.480	0.440	-0.900	-0.120
2020/01/31 21:42:38.7	93.510	0.460	-0.910	-0.140
2020/01/31 21:42:38.8	93.540	0.480	-0.920	-0.160
2020/01/31 21:42:38.9	93.570	0.500	-0.920	-0.180
2020/01/31 21:42:39.0	93.600	0.510	-0.910	-0.200
2020/01/31 21:42:39.1	93.620	0.510	-0.900	-0.220
2020/01/31 21:42:39.2	93.650	0.520	-0.880	-0.230
2020/01/31 21:42:39.3	93.670	0.520	-0.850	-0.250
2020/01/31 21:42:39.4	93.680	0.510	-0.820	-0.260
2020/01/31 21:42:39.5	93.700	0.500	-0.780	-0.270
2020/01/31 21:42:39.6	93.710	0.480	-0.740	-0.270
2020/01/31 21:42:39.7	93.730	0.470	-0.690	-0.280
2020/01/31 21:42:39.8	93.740	0.440	-0.640	-0.280
2020/01/31 21:42:39.9	93.760	0.410	-0.570	-0.280
2020/01/31 21:42:40.0	93.760	0.380	-0.510	-0.280
2020/01/31 21:42:40.1	93.770	0.340	-0.440	-0.290
2020/01/31 21:42:40.2	93.780	0.300	-0.370	-0.290
2020/01/31 21:42:40.3	93.780	0.260	-0.300	-0.290
2020/01/31 21:42:40.4	93.780	0.210	-0.220	-0.290
2020/01/31 21:42:40.5	93.790	0.160	-0.140	-0.290
2020/01/31 21:42:40.6	93.790	0.100	-0.060	-0.290
2020/01/31 21:42:40.7	93.790	0.050	0.020	-0.290
2020/01/31 21:42:40.8	93.790	-0.010	0.100	-0.300
2020/01/31 21:42:40.9	93.800	-0.070	0.180	-0.300
2020/01/31 21:42:41.0	93.800	-0.130	0.260	-0.310
2020/01/31 21:42:41.1	93.800	-0.190	0.340	-0.320
2020/01/31 21:42:41.2	93.800	-0.250	0.410	-0.340
2020/01/31 21:42:41.3	93.800	-0.310	0.480	-0.350
2020/01/31 21:42:41.4	93.800	-0.370	0.550	-0.370
2020/01/31 21:42:41.5	93.800	-0.420	0.610	-0.390
2020/01/31 21:42:41.6	93.800	-0.480	0.670	-0.410
2020/01/31 21:42:41.7	93.810	-0.530	0.730	-0.440
2020/01/31 21:42:41.8	93.810	-0.580	0.780	-0.460
2020/01/31 21:42:41.9	93.820	-0.630	0.820	-0.490
2020/01/31 21:42:42.0	93.820	-0.670	0.860	-0.520
2020/01/31 21:42:42.1	93.830	-0.710	0.890	-0.550
2020/01/31 21:42:42.2	93.830	-0.740	0.910	-0.580
2020/01/31 21:42:42.3	93.840	-0.770	0.930	-0.610
2020/01/31 21:42:42.4	93.850	-0.790	0.940	-0.640
2020/01/31 21:42:42.5	93.860	-0.810	0.940	-0.670
2020/01/31 21:42:42.6	93.870	-0.820	0.940	-0.700
2020/01/31 21:42:42.7	93.880	-0.820	0.920	-0.730
2020/01/31 21:42:42.8	93.890	-0.820	0.900	-0.760
2020/01/31 21:42:42.9	93.900	-0.820	0.880	-0.800
2020/01/31 21:42:43.0	93.920	-0.810	0.840	-0.820
2020/01/31 21:42:43.1	93.930	-0.790	0.800	-0.850
2020/01/31 21:42:43.2	93.940	-0.770	0.750	-0.880
2020/01/31 21:42:43.3	93.960	-0.740	0.700	-0.900
2020/01/31 21:42:43.4	93.970	-0.710	0.630	-0.920
2020/01/31 21:42:43.5	93.990	-0.670	0.570	-0.940
2020/01/31 21:42:43.6	94.000	-0.630	0.490	-0.960
2020/01/31 21:42:43.7	94.020	-0.580	0.410	-0.980
2020/01/31 21:42:43.8	94.040	-0.530	0.330	-0.990
2020/01/31 21:42:43.9	94.060	-0.480	0.240	-1.000
2020/01/31 21:42:44.0				
2020/01/31 21:42:44.1	94.080	-0.420	0.160	-1.020
2020/01/31 21:42:44.2	94.110	-0.300	-0.030	-1.040
2020/01/31 21:42:44.3	94.130	-0.240	-0.120	-1.040
2020/01/31 21:42:44.4	94.150	-0.170	-0.210	-1.050
2020/01/31 21:42:44.5	94.170	-0.110	-0.300	-1.050
2020/01/31 21:42:44.6	94.190	-0.040	-0.390	-1.050
2020/01/31 21:42:44.7	94.210	0.020	-0.480	-1.050
2020/01/31 21:42:44.8	94.220	0.090	-0.560	-1.050
2020/01/31 21:42:44.9	94.240	0.150	-0.640	-1.050
2020/01/31 21:42:45.0	94.260	0.210	-0.720	-1.040
2020/01/31 21:42:45.1	94.270	0.270	-0.790	-1.030
2020/01/31 21:42:45.2	94.280	0.330	-0.860	-1.020
2020/01/31 21:42:45.3	94.290	0.390	-0.920	-1.000
2020/01/31 21:42:45.4	94.300	0.440	-0.980	-0.980
2020/01/31 21:42:45.5	94.310	0.490	-1.030	-0.960
2020/01/31 21:42:45.6	94.310	0.540	-1.080	-0.940
2020/01/31 21:42:45.7	94.310	0.580	-1.120	-0.910
2020/01/31 21:42:45.8	94.310	0.620	-1.150	-0.880
2020/01/31 21:42:45.9	94.310	0.650	-1.180	-0.850
2020/01/31 21:42:46.0	94.310	0.680	-1.200	-0.820
2020/01/31 21:42:46.1				
2020/01/31 21:42:46.2	94.300	0.710	-1.220	-0.780
2020/01/31 21:42:46.3	94.270	0.750	-1.230	-0.700
2020/01/31 21:42:46.4	94.260	0.770	-1.230	-0.650
2020/01/31 21:42:46.5	94.240	0.770	-1.220	-0.600
2020/01/31 21:42:46.6	94.220	0.780	-1.200	-0.550
2020/01/31 21:42:46.7	94.200	0.780	-1.180	-0.500
2020/01/31 21:42:46.8	94.180	0.780	-1.160	-0.450
2020/01/31 21:42:46.9	94.160	0.770	-1.130	-0.390
2020/01/31 21:42:47.0	94.140	0.750	-1.090	-0.330
2020/01/31 21:42:47.1	94.100	0.740	-1.050	-0.270
2020/01/31 21:42:47.2	94.070	0.720	-1.010	-0.210
2020/01/31 21:42:47.3	94.040	0.690	-0.960	-0.150
2020/01/31 21:42:47.4	94.000	0.670	-0.910	-0.080
2020/01/31 21:42:47.5	93.960	0.630	-0.860	-0.020
2020/01/31 21:42:47.6	93.920	0.600	-0.800	0.050
2020/01/31 21:42:47.7	93.880	0.560	-0.740	0.110
2020/01/31 21:42:47.8	93.840	0.520	-0.670	0.180
2020/01/31 21:42:47.9	93.800	0.480	-0.610	0.250
2020/01/31 21:42:48.0	93.760	0.440	-0.540	0.310
2020/01/31 21:42:48.1	93.710	0.390	-0.470	0.370
2020/01/31 21:42:48.2				
2020/01/31 21:42:48.3	93.670	0.340	-0.400	0.430
2020/01/31 21:42:48.4	93.590	0.250	-0.260	0.550
2020/01/31 21:42:48.5	93.550	0.200	-0.200	0.600
2020/01/31 21:42:48.6	93.510	0.150	-0.130	0.650
2020/01/31 21:42:48.7	93.480	0.100	-0.070	0.690
2020/01/31 21:42:48.8	93.450	0.050	-0.000	0.730
2020/01/31 21:42:48.9	93.410	0.000	0.060	0.770
2020/01/31 21:42:49.0	93.390	-0.040	0.110	0.800
2020/01/31 21:42:49.1	93.370	-0.080	0.170	0.830
2020/01/31 21:42:49.2	93.350	-0.120	0.220	0.850
2020/01/31 21:42:49.3	93.340	-0.160	0.260	0.860
2020/01/31 21:42:49.4	93.320	-0.200	0.300	0.870
2020/01/31 21:42:49.5	93.320	-0.230	0.340	0.880
2020/01/31 21:42:49.6	93.310	-0.260	0.370	0.880
2020/01/31 21:42:49.7	93.310	-0.280	0.390	0.870
2020/01/31 21:42:49.8	93.320	-0.300	0.410	0.870
2020/01/31 21:42:49.9	93.310	-0.320	0.430	0.850
2020/01/31 21:42:50.0	93.320	-0.330	0.440	0.830
2020/01/31 21:42:50.1	93.330	-0.350	0.450	0.810
2020/01/31 21:42:50.2	93.340	-0.350	0.450	0.790
2020/01/31 21:42:50.3				
2020/01/31 21:42:50.4	93.350	-0.360	0.450	0.760
2020/01/31 21:42:50.5	93.380	-0.360	0.430	0.690
2020/01/31 21:42:50.6	93.400	-0.350	0.420	0.660
2020/01/31 21:42:50.7	93.420	-0.340	0.400	0.620
2020/01/31 21:42:50.8	93.440	-0.330	0.380	0.580
2020/01/31 21:42:50.9	93.470	-0.320	0.360	0.530
2020/01/31 21:42:51.0	93.490	-0.310	0.340	0.490
2020/01/31 21:42:51.1	93.510	-0.290	0.310	0.440
2020/01/31 21:42:51.2	93.530	-0.280	0.290	0.390
2020/01/31 21:42:51.3	93.550	-0.260	0.260	0.350
2020/01/31 21:42:51.4	93.570	-0.240	0.240	0.300
2020/01/31 21:42:51.5	93.590	-0.220	0.210	0.250
2020/01/31 21:42:51.6	93.610	-0.210	0.190	0.200
2020/01/31 21:42:51.7	93.630	-0.190	0.160	0.150
2020/01/31 21:42:51.8	93.640	-0.170	0.140	0.100
2020/01/31 21:42:51.9	93.650	-0.160	0.110	0.060
2020/01/31 21:42:52.0	93.670	-0.140	0.100	0.020
2020/01/31 21:42:52.1	93.680	-0.130	0.080	-0.030
2020/01/31 21:42:52.2	93.700	-0.110	0.060	-0.070
2020/01/31 21:42:52.3	93.710	-0.100	0.050	-0.110
2020/01/31 21:42:52.4				
2020/01/31 21:42:52.5	93.720	-0.090	0.040	-0.140
2020/01/31 21:42:52.6	93.740	-0.070	0.020	-0.210
2020/01/31 21:42:52.7	93.750	-0.070	0.010	-0.240
2020/01/31 21:42:52.8	93.760	-0.060	0.010	-0.270
2020/01/31 21:42:52.9	93.760	-0.060	0.010	-0.300
2020/01/31 21:42:53.0	93.760	-0.050	0.000	-0.320
2020/01/31 21:42:53.1	93.760	-0.050	0.000	-0.340
2020/01/31 21:42:53.2	93.760	-0.050	-0.000	-0.350
2020/01/31 21:42:53.3	93.760	-0.050	-0.000	-0.360
2020/01/31 21:42:53.4	93.750	-0.050	-0.010	-0.370
2020/01/31 21:42:53.5	93.740	-0.050	-0.010	-0.380
2020/01/31 21:42:53.6	93.740	-0.050	-0.010	-0.380
2020/01/31 21:42:53.7	93.730	-0.050	-0.020	-0.380
2020/01/31 21:42:53.8	93.710	-0.050	-0.030	-0.380
2020/01/31 21:42:53.9	93.700	-0.060	-0.040	-0.370
2020/01/31 21:42:54.0	93.690	-0.060	-0.050	-0.360
2020/01/31 21:42:54.1	93.670	-0.060	-0.070	-0.350
2020/01/31 21:42:54.2	93.660	-0.060	-0.080	-0.340
2020/01/31 21:42:54.3	93.640	-0.060	-0.100	-0.320
2020/01/31 21:42:54.4	93.620	-0.060	-0.120	-0.310
2020/01/31 21:42:54.5				
2020/01/31 21:42:54.6	93.600	-0.060	-0.140	-0.290
2020/01/31 21:42:54.7	93.560	-0.050	-0.200	-0.250
2020/01/31 21:42:54.8	93.540	-0.050	-0.230	-0.230
2020/01/31 21:42:54.9	93.540	-0.040	-0.260	-0.200
2020/01/31 21:42:55.0	93.520	-0.040	-0.290	-0.180
2020/01/31 21:42:55.1	93.500	-0.030	-0.330	-0.150
2020/01/31 21:42:55.2	93.470	-0.030	-0.360	-0.130
2020/01/31 21:42:55.3	93.450	-0.020	-0.390	-0.100
2020/01/31 21:42:55.4	93.430	-0.010	-0.430	-0.070
2020/01/31 21:42:55.5	93.410	-0.010	-0.460	-0.050
2020/01/31 21:42:55.6	93.380	0.000	-0.490	-0.020
2020/01/31 21:42:55.7	93.360	0.010	-0.520	0.010
2020/01/31 21:42:55.8	93.340	0.020	-0.550	0.040
2020/01/31 21:42:55.9	93.320	0.030	-0.580	0.070
2020/01/31 21:42:56.0	93.300	0.040	-0.600	0.100
2020/01/31 21:42:56.1	93.280	0.050	-0.630	0.130
2020/01/31 21:42:56.2	93.260	0.050	-0.650	0.160
2020/01/31 21:42:56.3	93.240	0.060	-0.660	0.190
2020/01/31 21:42:56.4	93.220	0.070	-0.680	0.220
2020/01/31 21:42:56.5	93.200	0.080	-0.690	0.250
2020/01/31 21:42:56.6				
2020/01/31 21:42:56.7	93.190	0.090	-0.700	0.280
2020/01/31 21:42:56.8	93.160	0.110	-0.710	0.340
2020/01/31 21:42:56.9	93.130	0.110	-0.710	0.370
2020/01/31 21:42:57.0	93.120	0.120	-0.700	0.400
2020/01/31 21:42:57.1	93.110	0.130	-0.700	0.420
2020/01/31 21:42:57.2	93.100	0.130	-0.690	0.450
2020/01/31 21:42:57.3	93.090	0.140	-0.680	0.470
2020/01/31 21:42:57.4	93.080	0.140	-0.670	0.500
2020/01/31 21:42:57.5	93.070	0.150	-0.650	0.520
2020/01/31 21:42:57.6	93.060	0.150	-0.630	0.540
2020/01/31 21:42:57.7	93.060	0.150	-0.610	0.560
2020/01/31 21:42:57.8	93.050	0.150	-0.590	0.580
2020/01/31 21:42:57.9	93.050	0.150	-0.560	0.600
2020/01/31 21:42:58.0	93.040	0.150	-0.540	0.610
2020/01/31 21:42:58.1	93.040	0.150	-0.510	0.630
2020/01/31 21:42:58.2	93.030	0.150	-0.480	0.640
2020/01/31 21:42:58.3	93.030	0.150	-0.450	0.650
2020/01/31 21:42:58.4	93.020	0.150	-0.420	0.660
2020/01/31 21:42:58.5	93.020	0.140	-0.390	0.670
2020/01/31 21:42:58.6	93.010	0.140	-0.360	0.680
2020/01/31 21:42:58.7				
2020/01/31 21:42:58.8	93.010	0.130	-0.330	0.680
2020/01/31 21:42:58.9	92.990	0.120	-0.270	0.690
2020/01/31 21:42:59.0	92.990	0.120	-0.240	0.690
2020/01/31 21:42:59.1	92.980	0.110	-0.210	0.690
2020/01/31 21:42:59.2	92.980	0.100	-0.180	0.690
2020/01/31 21:42:59.3	92.970	0.100	-0.150	0.690
2020/01/31 21:42:59.4	92.970	0.090	-0.120	0.690
2020/01/31 21:42:59.5	92.960	0.080	-0.090	0.690
2020/01/31 21:42:59.6	92.960	0.080	-0.070	0.680
2020/01/31 21:42:59.7	92.950	0.070	-0.040	0.680
2020/01/31 21:42:59.8	92.950	0.060	-0.020	0.670
2020/01/31 21:42:59.9	92.950	0.060	0.010	0.670
2020/01/31 21:43:00.0	92.940	0.050	0.030	0.660
2020/01/31 21:43:00.1	92.940	0.050	0.050	0.660
2020/01/31 21:43:00.2	92.940	0.040	0.080	0.650
2020/01/31 21:43:00.3	92.940	0.040	0.090	0.640
2020/01/31 21:43:00.4	92.930	0.030	0.110	0.630
2020/01/31 21:43:00.5	92.930	0.030	0.130	0.610
2020/01/31 21:43:00.6	92.930	0.020	0.150	0.600
2020/01/31 21:43:00.7	92.920	0.020	0.160	0.590
2020/01/31 21:43:00.8				
2020/01/31 21:43:00.9	92.920	0.020	0.180	0.580
2020/01/31 21:43:01.0	92.920	0.010	0.200	0.550
2020/01/31 21:43:01.1	92.920	0.010	0.210	0.530
2020/01/31 21:43:01.2	92.920	0.010	0.220	0.520
2020/01/31 21:43:01.3	92.920	0.000	0.230	0.500
2020/01/31 21:43:01.4	92.920	0.000	0.230	0.480
2020/01/31 21:43:01.5	92.920	-0.000	0.240	0.460
2020/01/31 21:43:01.6	92.920	-0.000	0.240	0.440
2020/01/31 21:43:01.7	92.920	-0.010	0.250	0.420
2020/01/31 21:43:01.8	92.920	-0.010	0.250	0.400
2020/01/31 21:43:01.9	92.930	-0.010	0.240	0.370
2020/01/31 21:43:02.0	92.930	-0.010	0.240	0.350
2020/01/31 21:43:02.1	92.940	-0.010	0.240	0.320
2020/01/31 21:43:02.2	92.940	-0.020	0.230	0.300
2020/01/31 21:43:02.3	92.950	-0.020	0.220	0.270
2020/01/31 21:43:02.4	92.950	-0.020	0.210	0.240
2020/01/31 21:43:02.5	92.960	-0.030	0.200	0.210
2020/01/31 21:43:02.6	92.960	-0.030	0.190	0.190
2020/01/31 21:43:02.7	92.970	-0.030	0.170	0.160
2020/01/31 21:43:02.8	92.980	-0.040	0.160	0.130
2020/01/31 21:43:02.9				
2020/01/31 21:43:03.0	92.980	-0.040	0.140	0.110
2020/01/31 21:43:03.1	92.990	-0.050	0.110	0.050
2020/01/31 21:43:03.2	93.000	-0.060	0.090	0.030
2020/01/31 21:43:03.3	93.000	-0.060	0.070	0.000
2020/01/31 21:43:03.4	93.000	-0.070	0.050	-0.020
2020/01/31 21:43:03.5	93.000	-0.070	0.030	-0.040
2020/01/31 21:43:03.6	93.010	-0.080	0.010	-0.060
2020/01/31 21:43:03.7	93.010	-0.080	-0.010	-0.080
2020/01/31 21:43:03.8	93.010	-0.090	-0.040	-0.100
2020/01/31 21:43:03.9	93.010	-0.090	-0.060	-0.120
2020/01/31 21:43:04.0	93.010	-0.100	-0.090	-0.130
2020/01/31 21:43:04.1	93.010	-0.100	-0.110	-0.150
2020/01/31 21:43:04.2	93.020	-0.100	-0.140	-0.160
2020/01/31 21:43:04.3	93.020	-0.100	-0.160	-0.180
2020/01/31 21:43:04.4	93.020	-0.110	-0.190	-0.190
2020/01/31 21:43:04.5	93.030	-0.110	-0.220	-0.200
2020/01/31 21:43:04.6	93.030	-0.110	-0.250	-0.210
2020/01/31 21:43:04.7	93.040	-0.100	-0.280	-0.230
2020/01/31 21:43:04.8	93.050	-0.100	-0.310	-0.240
2020/01/31 21:43:04.9	93.060	-0.100	-0.340	-0.250
2020/01/31 21:43:05.0				
2020/01/31 21:43:05.1	93.080	-0.090	-0.370	-0.260
2020/01/31 21:43:05.2	93.100	-0.070	-0.450	-0.270
2020/01/31 21:43:05.3	93.120	-0.060	-0.480	-0.280
2020/01/31 21:43:05.4	93.130	-0.050	-0.520	-0.290
2020/01/31 21:43:05.5	93.140	-0.040	-0.560	-0.290
2020/01/31 21:43:05.6	93.160	-0.020	-0.600	-0.300
2020/01/31 21:43:05.7	93.170	-0.010	-0.640	-0.300
2020/01/31 21:43:05.8	93.190	0.010	-0.670	-0.300
2020/01/31 21:43:05.9	93.210	0.030	-0.710	-0.300
2020/01/31 21:43:06.0	93.230	0.050	-0.750	-0.300
2020/01/31 21:43:06.1	93.240	0.060	-0.780	-0.290
2020/01/31 21:43:06.2	93.240	0.080	-0.810	-0.280
2020/01/31 21:43:06.3	93.250	0.100	-0.830	-0.270
2020/01/31 21:43:06.4	93.260	0.110	-0.850	-0.260
2020/01/31 21:43:06.5	93.260	0.130	-0.870	-0.250
2020/01/31 21:43:06.6	93.260	0.140	-0.880	-0.230
2020/01/31 21:43:06.7	93.260	0.160	-0.880	-0.210
2020/01/31 21:43:06.8	93.250	0.160	-0.880	-0.190
2020/01/31 21:43:06.9	93.250	0.170	-0.870	-0.160
2020/01/31 21:43:07.0	93.240	0.180	-0.850	-0.140
2020/01/31 21:43:07.1				
2020/01/31 21:43:07.2	93.230	0.180	-0.830	-0.110
2020/01/31 21:43:07.3	93.200	0.170	-0.760	-0.040
2020/01/31 21:43:07.4	93.180	0.160	-0.710	-0.010
2020/01/31 21:43:07.5	93.160	0.150	-0.660	0.030
2020/01/31 21:43:07.6	93.140	0.140	-0.600	0.070
2020/01/31 21:43:07.7	93.120	0.120	-0.540	0.110
2020/01/31 21:43:07.8	93.090	0.100	-0.470	0.150
2020/01/31 21:43:07.9	93.070	0.080	-0.400	0.200
2020/01/31 21:43:08.0	93.040	0.050	-0.320	0.240
2020/01/31 21:43:08.1	93.020	0.020	-0.240	0.280
2020/01/31 21:43:08.2	92.990	-0.010	-0.160	0.330
2020/01/31 21:43:08.3	92.960	-0.040	-0.070	0.370
2020/01/31 21:43:08.4	92.930	-0.070	0.010	0.420
2020/01/31 21:43:08.5	92.900	-0.110	0.100	0.460
2020/01/31 21:43:08.6	92.880	-0.140	0.180	0.500
2020/01/31 21:43:08.7	92.850	-0.180	0.270	0.540
2020/01/31 21:43:08.8	92.820	-0.220	0.340	0.580
2020/01/31 21:43:08.9	92.810	-0.250	0.420	0.620
2020/01/31 21:43:09.0	92.790	-0.290	0.490	0.660
2020/01/31 21:43:09.1	92.770	-0.320	0.560	0.690
2020/01/31 21:43:09.2				
2020/01/31 21:43:09.3	92.750	-0.350	0.610	0.710
2020/01/31 21:43:09.4	92.720	-0.400	0.710	0.760
2020/01/31 21:43:09.5	92.710	-0.420	0.740	0.770
2020/01/31 21:43:09.6	92.700	-0.440	0.770	0.780
2020/01/31 21:43:09.7	92.700	-0.450	0.780	0.780
2020/01/31 21:43:09.8	92.700	-0.460	0.780	0.780
2020/01/31 21:43:09.9	92.690	-0.470	0.780	0.780
2020/01/31 21:43:10.0	92.700	-0.470	0.770	0.770
2020/01/31 21:43:10.1	92.710	-0.460	0.740	0.760
2020/01/31 21:43:10.2	92.720	-0.450	0.710	0.730
2020/01/31 21:43:10.3	92.740	-0.430	0.660	0.710
2020/01/31 21:43:10.4	92.760	-0.410	0.610	0.680
2020/01/31 21:43:10.5	92.780	-0.380	0.540	0.650
2020/01/31 21:43:10.6	92.810	-0.350	0.470	0.610
2020/01/31 21:43:10.7	92.840	-0.310	0.390	0.580
2020/01/31 21:43:10.8	92.870	-0.270	0.310	0.530
2020/01/31 21:43:10.9	92.890	-0.220	0.220	0.490
2020/01/31 21:43:11.0	92.920	-0.170	0.120	0.440
2020/01/31 21:43:11.1	92.960	-0.120	0.030	0.400
2020/01/31 21:43:11.2	92.990	-0.070	-0.070	0.350
2020/01/31 21:43:11.3				
2020/01/31 21:43:11.4	93.030	-0.010	-0.170	0.310
2020/01/31 21:43:11.5	93.090	0.110	-0.380	0.220
2020/01/31 21:43:11.6	93.130	0.170	-0.470	0.180
2020/01/31 21:43:11.7	93.160	0.230	-0.570	0.140
2020/01/31 21:43:11.8	93.180	0.290	-0.660	0.100
2020/01/31 21:43:11.9	93.210	0.350	-0.750	0.070
2020/01/31 21:43:12.0	93.230	0.410	-0.830	0.050
2020/01/31 21:43:12.1	93.250	0.460	-0.900	0.020
2020/01/31 21:43:12.2	93.270	0.510	-0.970	-0.000
2020/01/31 21:43:12.3	93.280	0.560	-1.030	-0.020
2020/01/31 21:43:12.4	93.290	0.610	-1.080	-0.030
2020/01/31 21:43:12.5	93.290	0.650	-1.130	-0.050
2020/01/31 21:43:12.6	93.300	0.680	-1.160	-0.050
2020/01/31 21:43:12.7	93.300	0.710	-1.190	-0.060
2020/01/31 21:43:12.8	93.290	0.740	-1.210	-0.060
2020/01/31 21:43:12.9	93.280	0.760	-1.220	-0.050
2020/01/31 21:43:13.0	93.270	0.770	-1.220	-0.040
2020/01/31 21:43:13.1	93.260	0.780	-1.210	-0.030
2020/01/31 21:43:13.2	93.240	0.780	-1.190	-0.020
2020/01/31 21:43:13.3	93.220	0.780	-1.160	-0.010
2020/01/31 21:43:13.4				
2020/01/31 21:43:13.5	93.200	0.770	-1.120	0.010
2020/01/31 21:43:13.6	93.160	0.730	-1.020	0.050
2020/01/31 21:43:13.7	93.140	0.710	-0.960	0.070
2020/01/31 21:43:13.8	93.110	0.670	-0.900	0.090
2020/01/31 21:43:13.9	93.090	0.630	-0.820	0.120
2020/01/31 21:43:14.0	93.070	0.590	-0.740	0.140
2020/01/31 21:43:14.1	93.040	0.540	-0.660	0.170
2020/01/31 21:43:14.2	93.020	0.490	-0.570	0.200
2020/01/31 21:43:14.3	92.990	0.430	-0.480	0.230
2020/01/31 21:43:14.4	92.970	0.370	-0.380	0.250
2020/01/31 21:43:14.5	92.940	0.310	-0.280	0.280
2020/01/31 21:43:14.6	92.920	0.250	-0.190	0.310
2020/01/31 21:43:14.7	92.900	0.180	-0.090	0.330
2020/01/31 21:43:14.8	92.880	0.110	0.010	0.360
2020/01/31 21:43:14.9	92.850	0.040	0.110	0.380
2020/01/31 21:43:15.0	92.830	-0.030	0.200	0.400
2020/01/31 21:43:15.1	92.810	-0.100	0.290	0.420
2020/01/31 21:43:15.2	92.800	-0.170	0.380	0.440
2020/01/31 21:43:15.3				
2020/01/31 21:43:15.4	92.780	-0.240	0.460	0.460
2020/01/31 21:43:15.5				
2020/01/31 21:43:15.6	92.750	-0.360	0.610	0.490
2020/01/31 21:43:15.7	92.730	-0.480	0.740	0.520
2020/01/31 21:43:15.8	92.720	-0.530	0.790	0.530
2020/01/31 21:43:15.9	92.710	-0.580	0.830	0.540
2020/01/31 21:43:16.0	92.700	-0.620	0.860	0.540
2020/01/31 21:43:16.1	92.700	-0.660	0.890	0.540
2020/01/31 21:43:16.2	92.700	-0.690	0.900	0.540
2020/01/31 21:43:16.3	92.700	-0.720	0.910	0.540
2020/01/31 21:43:16.4	92.700	-0.740	0.900	0.530
2020/01/31 21:43:16.5	92.710	-0.750	0.890	0.520
2020/01/31 21:43:16.6	92.710	-0.760	0.860	0.510
2020/01/31 21:43:16.7	92.720	-0.760	0.830	0.500
2020/01/31 21:43:16.8	92.740	-0.760	0.790	0.480
2020/01/31 21:43:16.9	92.750	-0.750	0.730	0.460
2020/01/31 21:43:17.0	92.770	-0.740	0.680	0.440
2020/01/31 21:43:17.1	92.790	-0.720	0.610	0.410
2020/01/31 21:43:17.2	92.810	-0.700	0.540	0.390
2020/01/31 21:43:17.3	92.840	-0.670	0.470	0.360
2020/01/31 21:43:17.4	92.860	-0.640	0.390	0.330
2020/01/31 21:43:17.5	92.890	-0.600	0.300	0.300
2020/01/31 21:43:17.6				
2020/01/31 21:43:17.7	92.920	-0.560	0.220	0.270
2020/01/31 21:43:17.8	92.980	-0.480	0.040	0.200
2020/01/31 21:43:17.9	93.000	-0.440	-0.050	0.170
2020/01/31 21:43:18.0	93.030	-0.390	-0.130	0.140
2020/01/31 21:43:18.1	93.060	-0.340	-0.220	0.110
2020/01/31 21:43:18.2	93.090	-0.300	-0.300	0.070
2020/01/31 21:43:18.3	93.120	-0.250	-0.380	0.040
2020/01/31 21:43:18.4	93.150	-0.210	-0.460	0.020
2020/01/31 21:43:18.5	93.170	-0.160	-0.530	-0.010
2020/01/31 21:43:18.6	93.200	-0.120	-0.590	-0.040
2020/01/31 21:43:18.7	93.220	-0.080	-0.650	-0.060
2020/01/31 21:43:18.8	93.240	-0.040	-0.700	-0.080
2020/01/31 21:43:18.9	93.270	-0.000	-0.760	-0.100
2020/01/31 21:43:19.0	93.290	0.030	-0.800	-0.120
2020/01/31 21:43:19.1	93.310	0.060	-0.830	-0.140
2020/01/31 21:43:19.2	93.320	0.090	-0.860	-0.150
2020/01/31 21:43:19.3	93.340	0.120	-0.880	-0.160
2020/01/31 21:43:19.4	93.350	0.140	-0.890	-0.170
2020/01/31 21:43:19.5	93.360	0.160	-0.900	-0.180
2020/01/31 21:43:19.6	93.370	0.170	-0.900	-0.190
2020/01/31 21:43:19.7				
2020/01/31 21:43:19.8	93.370	0.180	-0.890	-0.190
2020/01/31 21:43:19.9	93.390	0.190	-0.870	-0.190
2020/01/31 21:43:20.0	93.390	0.200	-0.840	-0.190
2020/01/31 21:43:20.1	93.390	0.200	-0.820	-0.180
2020/01/31 21:43:20.2	93.390	0.190	-0.790	-0.170
2020/01/31 21:43:20.3	93.390	0.190	-0.750	-0.160
2020/01/31 21:43:20.4	93.390	0.180	-0.720	-0.150
2020/01/31 21:43:20.5	93.380	0.170	-0.680	-0.140
2020/01/31 21:43:20.6				
2020/01/31 21:43:20.7	93.370	0.160	-0.630	-0.120
2020/01/31 21:43:20.8	93.370	0.150	-0.590	-0.100
2020/01/31 21:43:20.9	93.360	0.130	-0.540	-0.080
2020/01/31 21:43:21.0	93.340	0.100	-0.450	-0.030
2020/01/31 21:43:21.1	93.330	0.090	-0.400	-0.000
2020/01/31 21:43:21.2	93.320	0.070	-0.350	0.030
2020/01/31 21:43:21.3	93.300	0.060	-0.300	0.060
2020/01/31 21:43:21.4	93.290	0.040	-0.250	0.090
2020/01/31 21:43:21.5	93.270	0.030	-0.200	0.120
2020/01/31 21:43:21.6				
2020/01/31 21:43:21.7	93.260	0.010	-0.160	0.150
2020/01/31 21:43:21.8				
2020/01/31 21:43:21.9	93.220	-0.010	-0.070	0.220
2020/01/31 21:43:22.0	93.190	-0.030	0.010	0.290
2020/01/31 21:43:22.1	93.170	-0.040	0.050	0.320
2020/01/31 21:43:22.2	93.160	-0.050	0.080	0.350
2020/01/31 21:43:22.3	93.140	-0.050	0.110	0.370
2020/01/31 21:43:22.4	93.120	-0.060	0.140	0.400
2020/01/31 21:43:22.5	93.100	-0.060	0.160	0.420
2020/01/31 21:43:22.6	93.090	-0.060	0.180	0.450
2020/01/31 21:43:22.7	93.070	-0.060	0.200	0.470
2020/01/31 21:43:22.8	93.060	-0.060	0.210	0.490
2020/01/31 21:43:22.9	93.050	-0.050	0.220	0.500
2020/01/31 21:43:23.0	93.040	-0.050	0.220	0.510
2020/01/31 21:43:23.1	93.020	-0.040	0.220	0.530
2020/01/31 21:43:23.2	93.010	-0.040	0.220	0.540
2020/01/31 21:43:23.3	93.010	-0.030	0.210	0.540
2020/01/31 21:43:23.4	93.000	-0.020	0.200	0.550
2020/01/31 21:43:23.5	92.990	-0.010	0.180	0.560
2020/01/31 21:43:23.6	92.990	0.000	0.170	0.560
2020/01/31 21:43:23.7	92.980	0.010	0.140	0.560
2020/01/31 21:43:23.8	92.980	0.030	0.120	0.560
2020/01/31 21:43:23.9				
2020/01/31 21:43:24.0	92.980	0.040	0.080	0.560
2020/01/31 21:43:24.1	92.980	0.070	0.010	0.560
2020/01/31 21:43:24.2	92.990	0.090	-0.030	0.550
2020/01/31 21:43:24.3	93.000	0.100	-0.070	0.550
2020/01/31 21:43:24.4	93.000	0.120	-0.110	0.540
2020/01/31 21:43:24.5	93.010	0.130	-0.160	0.530
2020/01/31 21:43:24.6				
2020/01/31 21:43:24.7	93.030	0.150	-0.200	0.530
2020/01/31 21:43:24.8	93.040	0.160	-0.250	0.520
2020/01/31 21:43:24.9				
2020/01/31 21:43:25.0	93.070	0.190	-0.340	0.500
2020/01/31 21:43:25.1	93.100	0.220	-0.430	0.490
2020/01/31 21:43:25.2	93.110	0.230	-0.470	0.490
2020/01/31 21:43:25.3	93.130	0.240	-0.510	0.480
2020/01/31 21:43:25.4	93.140	0.250	-0.550	0.470
2020/01/31 21:43:25.5	93.150	0.250	-0.580	0.470
2020/01/31 21:43:25.6	93.170	0.260	-0.600	0.460
2020/01/31 21:43:25.7	93.180	0.260	-0.620	0.460
2020/01/31 21:43:25.8	93.190	0.260	-0.640	0.450
2020/01/31 21:43:25.9				
2020/01/31 21:43:26.0	93.200	0.250	-0.650	0.440
2020/01/31 21:43:26.1	93.210	0.250	-0.650	0.440
2020/01/31 21:43:26.2	93.230	0.230	-0.640	0.420
2020/01/31 21:43:26.3	93.240	0.220	-0.620	0.410
2020/01/31 21:43:26.4	93.240	0.200	-0.600	0.390
2020/01/31 21:43:26.5	93.240	0.180	-0.570	0.380
2020/01/31 21:43:26.6	93.250	0.170	-0.530	0.370
2020/01/31 21:43:26.7	93.250	0.140	-0.490	0.350
2020/01/31 21:43:26.8	93.250	0.120	-0.450	0.340
2020/01/31 21:43:26.9				
2020/01/31 21:43:27.0	93.250	0.100	-0.400	0.320
2020/01/31 21:43:27.1				
2020/01/31 21:43:27.2	93.250	0.050	-0.290	0.290
2020/01/31 21:43:27.3	93.240	-0.000	-0.170	0.260
2020/01/31 21:43:27.4	93.240	-0.030	-0.110	0.250
2020/01/31 21:43:27.5	93.230	-0.050	-0.050	0.230
2020/01/31 21:43:27.6				
2020/01/31 21:43:27.7	93.220	-0.080	0.010	0.220
2020/01/31 21:43:27.8	93.220	-0.100	0.070	0.210
2020/01/31 21:43:27.9	93.210	-0.120	0.120	0.200
2020/01/31 21:43:28.0	93.210	-0.140	0.180	0.190
2020/01/31 21:43:28.1				
2020/01/31 21:43:28.2	93.200	-0.180	0.280	0.170
2020/01/31 21:43:28.3				
2020/01/31 21:43:28.4	93.200	-0.200	0.350	0.150
2020/01/31 21:43:28.5	93.200	-0.210	0.380	0.150
2020/01/31 21:43:28.6	93.200	-0.220	0.430	0.130
2020/01/31 21:43:28.7	93.210	-0.220	0.440	0.120
2020/01/31 21:43:28.8	93.210	-0.220	0.450	0.120
2020/01/31 21:43:28.9	93.210	-0.210	0.440	0.110
2020/01/31 21:43:29.0	93.220	-0.210	0.440	0.110
2020/01/31 21:43:29.1	93.220	-0.200	0.420	0.100
2020/01/31 21:43:29.2	93.230	-0.180	0.400	0.100
2020/01/31 21:43:29.3	93.240	-0.170	0.380	0.100
2020/01/31 21:43:29.4	93.260	-0.150	0.340	0.100
2020/01/31 21:43:29.5	93.270	-0.140	0.310	0.100
2020/01/31 21:43:29.6	93.280	-0.120	0.260	0.100
2020/01/31 21:43:29.7	93.290	-0.090	0.220	0.100
2020/01/31 21:43:29.8	93.300	-0.070	0.170	0.100
2020/01/31 21:43:29.9	93.310	-0.050	0.110	0.110
2020/01/31 21:43:30.0	93.320	-0.020	0.050	0.110
2020/01/31 21:43:30.1				
2020/01/31 21:43:30.2	93.330	0.000	-0.010	0.110
2020/01/31 21:43:30.3	93.340	0.030	-0.070	0.120
2020/01/31 21:43:30.4	93.360	0.080	-0.200	0.120
2020/01/31 21:43:30.5	93.360	0.110	-0.270	0.130
2020/01/31 21:43:30.6				
2020/01/31 21:43:30.7	93.370	0.130	-0.330	0.130
2020/01/31 21:43:30.8	93.370	0.150	-0.400	0.130
2020/01/31 21:43:30.9	93.370	0.180	-0.460	0.140
2020/01/31 21:43:31.0	93.380	0.200	-0.520	0.140
2020/01/31 21:43:31.1	93.380	0.220	-0.580	0.140
2020/01/31 21:43:31.2	93.380	0.240	-0.630	0.150
2020/01/31 21:43:31.3	93.370	0.270	-0.730	0.150
2020/01/31 21:43:31.4	93.370	0.290	-0.770	0.150
2020/01/31 21:43:31.5	93.360	0.300	-0.800	0.150
2020/01/31 21:43:31.6	93.360	0.310	-0.830	0.160
2020/01/31 21:43:31.7	93.350	0.310	-0.850	0.160
2020/01/31 21:43:31.8	93.340	0.320	-0.870	0.160
2020/01/31 21:43:31.9	93.350	0.320	-0.880	0.160
2020/01/31 21:43:32.0	93.340	0.310	-0.890	0.160
2020/01/31 21:43:32.1	93.330	0.310	-0.880	0.160
2020/01/31 21:43:32.2	93.330	0.300	-0.870	0.170
2020/01/31 21:43:32.3				
2020/01/31 21:43:32.4	93.320	0.290	-0.860	0.170
2020/01/31 21:43:32.5	93.320	0.260	-0.800	0.180
2020/01/31 21:43:32.6	93.320	0.240	-0.770	0.180
2020/01/31 21:43:32.7	93.330	0.220	-0.730	0.190
2020/01/31 21:43:32.8				
2020/01/31 21:43:32.9	93.330	0.200	-0.680	0.200
2020/01/31 21:43:33.0	93.330	0.170	-0.630	0.210
2020/01/31 21:43:33.1	93.350	0.110	-0.520	0.230
2020/01/31 21:43:33.2	93.360	0.080	-0.450	0.240
2020/01/31 21:43:33.3				
2020/01/31 21:43:33.4	93.380	0.040	-0.390	0.250
2020/01/31 21:43:33.5	93.400	0.010	-0.330	0.260
2020/01/31 21:43:33.6	93.430	-0.070	-0.190	0.300
2020/01/31 21:43:33.7	93.450	-0.110	-0.120	0.310
2020/01/31 21:43:33.8	93.470	-0.150	-0.050	0.330
2020/01/31 21:43:33.9	93.490	-0.190	0.020	0.350
2020/01/31 21:43:34.0	93.510	-0.230	0.080	0.380
2020/01/31 21:43:34.1	93.530	-0.270	0.150	0.400
2020/01/31 21:43:34.2	93.550	-0.310	0.210	0.420
2020/01/31 21:43:34.3	93.570	-0.350	0.270	0.450
2020/01/31 21:43:34.4				
2020/01/31 21:43:34.5	93.580	-0.390	0.330	0.480
2020/01/31 21:43:34.6	93.620	-0.460	0.430	0.530
2020/01/31 21:43:34.7	93.630	-0.500	0.480	0.560
2020/01/31 21:43:34.8	93.640	-0.530	0.520	0.580
2020/01/31 21:43:34.9				
2020/01/31 21:43:35.0	93.660	-0.560	0.550	0.610
2020/01/31 21:43:35.1	93.680	-0.620	0.610	0.660
2020/01/31 21:43:35.2	93.690	-0.640	0.640	0.690
2020/01/31 21:43:35.3	93.690	-0.660	0.650	0.710
2020/01/31 21:43:35.4	93.700	-0.680	0.670	0.730
2020/01/31 21:43:35.5				
2020/01/31 21:43:35.6	93.700	-0.700	0.670	0.750
2020/01/31 21:43:35.7	93.700	-0.710	0.680	0.760
2020/01/31 21:43:35.8	93.700	-0.720	0.670	0.780
2020/01/31 21:43:35.9	93.700	-0.720	0.670	0.790
2020/01/31 21:43:36.0	93.680	-0.720	0.640	0.810
2020/01/31 21:43:36.1	93.680	-0.720	0.610	0.810
2020/01/31 21:43:36.2	93.670	-0.710	0.580	0.820
2020/01/31 21:43:36.3	93.670	-0.700	0.550	0.820
2020/01/31 21:43:36.4	93.670	-0.680	0.510	0.810
2020/01/31 21:43:36.5				
2020/01/31 21:43:36.6	93.670	-0.660	0.460	0.810
2020/01/31 21:43:36.7	93.670	-0.640	0.420	0.800
2020/01/31 21:43:36.8	93.660	-0.610	0.360	0.790
2020/01/31 21:43:36.9	93.660	-0.580	0.300	0.780
2020/01/31 21:43:37.0	93.670	-0.550	0.240	0.770
2020/01/31 21:43:37.1	93.670	-0.470	0.110	0.740
2020/01/31 21:43:37.2	93.670	-0.430	0.030	0.720
2020/01/31 21:43:37.3				
2020/01/31 21:43:37.4	93.670	-0.390	-0.040	0.700
2020/01/31 21:43:37.5	93.670	-0.340	-0.120	0.680
2020/01/31 21:43:37.6	93.670	-0.230	-0.280	0.640
2020/01/31 21:43:37.7	93.670	-0.180	-0.360	0.620
2020/01/31 21:43:37.8	93.670	-0.120	-0.440	0.600
2020/01/31 21:43:37.9	93.670	-0.070	-0.530	0.590
2020/01/31 21:43:38.0	93.670	-0.010	-0.610	0.570
2020/01/31 21:43:38.1	93.670	0.050	-0.690	0.560
2020/01/31 21:43:38.2				
2020/01/31 21:43:38.3	93.670	0.110	-0.770	0.550
2020/01/31 21:43:38.4	93.670	0.170	-0.850	0.540
2020/01/31 21:43:38.5	93.660	0.290	-1.000	0.520
2020/01/31 21:43:38.6				
2020/01/31 21:43:38.7	93.650	0.350	-1.070	0.520
2020/01/31 21:43:38.8	93.640	0.470	-1.190	0.520
2020/01/31 21:43:38.9	93.640	0.520	-1.250	0.520
2020/01/31 21:43:39.0	93.630	0.570	-1.300	0.520
2020/01/31 21:43:39.1	93.620	0.620	-1.350	0.520
2020/01/31 21:43:39.2	93.610	0.670	-1.380	0.520
2020/01/31 21:43:39.3	93.600	0.710	-1.410	0.530
2020/01/31 21:43:39.4	93.590	0.750	-1.430	0.530
2020/01/31 21:43:39.5				
2020/01/31 21:43:39.6	93.580	0.790	-1.450	0.530
2020/01/31 21:43:39.7	93.570	0.820	-1.450	0.530
2020/01/31 21:43:39.8	93.560	0.850	-1.450	0.520
2020/01/31 21:43:39.9	93.550	0.870	-1.440	0.520
2020/01/31 21:43:40.0	93.550	0.910	-1.390	0.500
2020/01/31 21:43:40.1	93.540	0.910	-1.350	0.490
2020/01/31 21:43:40.2	93.530	0.920	-1.300	0.470
2020/01/31 21:43:40.3	93.530	0.920	-1.240	0.460
2020/01/31 21:43:40.4	93.530	0.910	-1.170	0.430
2020/01/31 21:43:40.5	93.530	0.900	-1.100	0.410
2020/01/31 21:43:40.6	93.530	0.880	-1.020	0.380
2020/01/31 21:43:40.7				
2020/01/31 21:43:40.8	93.540	0.860	-0.930	0.350
2020/01/31 21:43:40.9	93.550	0.800	-0.730	0.280
2020/01/31 21:43:41.0	93.560	0.760	-0.620	0.240
2020/01/31 21:43:41.1	93.570	0.720	-0.500	0.200
2020/01/31 21:43:41.2	93.580	0.670	-0.390	0.160
2020/01/31 21:43:41.3	93.600	0.620	-0.270	0.110
2020/01/31 21:43:41.4	93.620	0.570	-0.150	0.070
2020/01/31 21:43:41.5				
2020/01/31 21:43:41.6	93.640	0.510	-0.030	0.020
2020/01/31 21:43:41.7	93.660	0.450	0.090	-0.020
2020/01/31 21:43:41.8	93.680	0.390	0.210	-0.060
2020/01/31 21:43:41.9	93.710	0.330	0.330	-0.110
2020/01/31 21:43:42.0	93.740	0.270	0.440	-0.150
2020/01/31 21:43:42.1				
2020/01/31 21:43:42.2	93.790	0.140	0.660	-0.220
2020/01/31 21:43:42.3	93.850	0.010	0.850	-0.280
2020/01/31 21:43:42.4	93.880	-0.060	0.940	-0.310
2020/01/31 21:43:42.5				
2020/01/31 21:43:42.6	93.910	-0.120	1.020	-0.330
2020/01/31 21:43:42.7	93.940	-0.180	1.090	-0.350
2020/01/31 21:43:42.8	93.960	-0.240	1.150	-0.360
2020/01/31 21:43:42.9	93.990	-0.290	1.200	-0.370
2020/01/31 21:43:43.0				
2020/01/31 21:43:43.1	94.040	-0.390	1.270	-0.380
2020/01/31 21:43:43.2	94.070	-0.440	1.290	-0.380
2020/01/31 21:43:43.3	94.120	-0.520	1.300	-0.370
2020/01/31 21:43:43.4	94.150	-0.550	1.280	-0.370
2020/01/31 21:43:43.5	94.170	-0.570	1.260	-0.350
2020/01/31 21:43:43.6	94.200	-0.600	1.230	-0.340
2020/01/31 21:43:43.7	94.220	-0.610	1.180	-0.330
2020/01/31 21:43:43.8	94.240	-0.630	1.120	-0.310
2020/01/31 21:43:43.9	94.260	-0.630	1.060	-0.290
2020/01/31 21:43:44.0	94.280	-0.630	0.980	-0.270
2020/01/31 21:43:44.1	94.300	-0.630	0.900	-0.250
2020/01/31 21:43:44.2	94.320	-0.620	0.810	-0.230
2020/01/31 21:43:44.3	94.340	-0.610	0.720	-0.210
2020/01/31 21:43:44.4	94.350	-0.590	0.610	-0.180
2020/01/31 21:43:44.5	94.360	-0.570	0.510	-0.160
2020/01/31 21:43:44.6	94.370	-0.540	0.400	-0.130
2020/01/31 21:43:44.7				
2020/01/31 21:43:44.8	94.380	-0.510	0.290	-0.100
2020/01/31 21:43:44.9	94.390	-0.480	0.170	-0.070
2020/01/31 21:43:45.0	94.400	-0.450	0.060	-0.030
2020/01/31 21:43:45.1	94.400	-0.370	-0.170	0.030
2020/01/31 21:43:45.2	94.400	-0.330	-0.280	0.070
2020/01/31 21:43:45.3	94.400	-0.290	-0.390	0.110
2020/01/31 21:43:45.4	94.390	-0.250	-0.490	0.150
2020/01/31 21:43:45.5	94.390	-0.200	-0.590	0.190
2020/01/31 21:43:45.6	94.380	-0.160	-0.690	0.230
2020/01/31 21:43:45.7	94.380	-0.120	-0.770	0.270
2020/01/31 21:43:45.8	94.370	-0.080	-0.860	0.320
2020/01/31 21:43:45.9				
2020/01/31 21:43:46.0	94.370	-0.040	-0.930	0.360
2020/01/31 21:43:46.1	94.360	0.030	-1.060	0.450
2020/01/31 21:43:46.2	94.350	0.070	-1.110	0.500
2020/01/31 21:43:46.3	94.350	0.100	-1.160	0.540
2020/01/31 21:43:46.4	94.340	0.120	-1.200	0.590
2020/01/31 21:43:46.5				
2020/01/31 21:43:46.6	94.340	0.150	-1.230	0.630
2020/01/31 21:43:46.7	94.340	0.190	-1.260	0.720
2020/01/31 21:43:46.8				
2020/01/31 21:43:46.9	94.340	0.210	-1.260	0.760
2020/01/31 21:43:47.0	94.360	0.220	-1.270	0.800
2020/01/31 21:43:47.1	94.360	0.230	-1.260	0.850
2020/01/31 21:43:47.2	94.370	0.240	-1.210	0.930
2020/01/31 21:43:47.3	94.380	0.240	-1.180	0.970
2020/01/31 21:43:47.4	94.390	0.240	-1.140	1.000
2020/01/31 21:43:47.5				
2020/01/31 21:43:47.6	94.400	0.230	-1.100	1.040
2020/01/31 21:43:47.7	94.410	0.230	-1.050	1.070
2020/01/31 21:43:47.8	94.420	0.220	-1.000	1.100
2020/01/31 21:43:47.9	94.440	0.200	-0.870	1.160
2020/01/31 21:43:48.0	94.460	0.190	-0.810	1.190
2020/01/31 21:43:48.1				
2020/01/31 21:43:48.2	94.470	0.170	-0.740	1.210
2020/01/31 21:43:48.3				
2020/01/31 21:43:48.4	94.500	0.140	-0.590	1.240
2020/01/31 21:43:48.5	94.520	0.130	-0.520	1.260
2020/01/31 21:43:48.6	94.550	0.090	-0.370	1.270
2020/01/31 21:43:48.7	94.570	0.080	-0.300	1.280
2020/01/31 21:43:48.8	94.590	0.060	-0.230	1.280
2020/01/31 21:43:48.9	94.580	0.050	-0.160	1.280
2020/01/31 21:43:49.0	94.600	0.040	-0.090	1.270
2020/01/31 21:43:49.1				
2020/01/31 21:43:49.2	94.620	0.020	-0.020	1.260
2020/01/31 21:43:49.3				
2020/01/31 21:43:49.4	94.660	0.000	0.100	1.230
2020/01/31 21:43:49.5	94.690	-0.010	0.210	1.190
2020/01/31 21:43:49.6				
2020/01/31 21:43:49.7	94.710	-0.020	0.260	1.170
2020/01/31 21:43:49.8	94.730	-0.020	0.300	1.140
2020/01/31 21:43:49.9	94.750	-0.020	0.340	1.110
2020/01/31 21:43:50.0	94.770	-0.030	0.410	1.030
2020/01/31 21:43:50.1				
2020/01/31 21:43:50.2	94.790	-0.030	0.430	0.990
2020/01/31 21:43:50.3				
2020/01/31 21:43:50.4	94.820	-0.020	0.470	0.910
2020/01/31 21:43:50.5	94.840	-0.020	0.490	0.820
2020/01/31 21:43:50.6	94.850	-0.010	0.490	0.770
2020/01/31 21:43:50.7	94.860	-0.010	0.490	0.720
2020/01/31 21:43:50.8	94.860	-0.010	0.480	0.670
2020/01/31 21:43:50.9				
2020/01/31 21:43:51.0	94.860	-0.000	0.470	0.630
2020/01/31 21:43:51.1	94.870	-0.000	0.460	0.580
2020/01/31 21:43:51.2	94.870	-0.000	0.440	0.530
2020/01/31 21:43:51.3	94.870	0.000	0.420	0.470
2020/01/31 21:43:51.4				
2020/01/31 21:43:51.5	94.870	-0.000	0.380	0.370
2020/01/31 21:43:51.6				
2020/01/31 21:43:51.7	94.860	-0.010	0.320	0.270
2020/01/31 21:43:51.8	94.850	-0.010	0.290	0.220
2020/01/31 21:43:51.9	94.850	-0.020	0.250	0.170
2020/01/31 21:43:52.0	94.830	-0.030	0.180	0.070
2020/01/31 21:43:52.1				
2020/01/31 21:43:52.2	94.830	-0.040	0.140	0.020
2020/01/31 21:43:52.3				
2020/01/31 21:43:52.4	94.820	-0.060	0.070	-0.060
2020/01/31 21:43:52.5	94.810	-0.090	-0.010	-0.150
2020/01/31 21:43:52.6				
2020/01/31 21:43:52.7	94.800	-0.100	-0.040	-0.180
2020/01/31 21:43:52.8	94.800	-0.110	-0.080	-0.220
2020/01/31 21:43:52.9	94.790	-0.130	-0.120	-0.250
2020/01/31 21:43:53.0				
2020/01/31 21:43:53.1	94.800	-0.150	-0.200	-0.310
2020/01/31 21:43:53.2	94.800	-0.160	-0.230	-0.330
2020/01/31 21:43:53.3	94.800	-0.180	-0.270	-0.360
2020/01/31 21:43:53.4	94.800	-0.190	-0.300	-0.380
2020/01/31 21:43:53.5				
2020/01/31 21:43:53.6	94.800	-0.200	-0.380	-0.410
2020/01/31 21:43:53.7	94.800	-0.210	-0.410	-0.430
2020/01/31 21:43:53.8	94.810	-0.210	-0.450	-0.440
2020/01/31 21:43:53.9	94.810	-0.210	-0.480	-0.450
2020/01/31 21:43:54.0				
2020/01/31 21:43:54.1	94.820	-0.210	-0.540	-0.470
2020/01/31 21:43:54.2	94.830	-0.210	-0.580	-0.470
2020/01/31 21:43:54.3				
2020/01/31 21:43:54.4	94.860	-0.190	-0.640	-0.490
2020/01/31 21:43:54.5	94.870	-0.180	-0.680	-0.490
2020/01/31 21:43:54.6	94.890	-0.170	-0.710	-0.490
2020/01/31 21:43:54.7				
2020/01/31 21:43:54.8	94.930	-0.130	-0.770	-0.500
2020/01/31 21:43:54.9	94.960	-0.120	-0.790	-0.490
2020/01/31 21:43:55.0	94.990	-0.090	-0.820	-0.500
2020/01/31 21:43:55.1	95.020	-0.070	-0.840	-0.490
2020/01/31 21:43:55.2	95.040	-0.050	-0.860	-0.490
2020/01/31 21:43:55.3	95.070	-0.030	-0.870	-0.480
2020/01/31 21:43:55.4				
2020/01/31 21:43:55.5	95.120	0.020	-0.890	-0.460
2020/01/31 21:43:55.6	95.140	0.050	-0.900	-0.450
2020/01/31 21:43:55.7				
2020/01/31 21:43:55.8	95.200	0.090	-0.890	-0.430
2020/01/31 21:43:55.9	95.220	0.120	-0.890	-0.410
2020/01/31 21:43:56.0	95.260	0.140	-0.880	-0.380
2020/01/31 21:43:56.1	95.280	0.160	-0.860	-0.360
2020/01/31 21:43:56.2	95.310	0.180	-0.830	-0.340
2020/01/31 21:43:56.3				
2020/01/31 21:43:56.4	95.350	0.210	-0.770	-0.300
2020/01/31 21:43:56.5				
2020/01/31 21:43:56.6	95.390	0.230	-0.690	-0.250
2020/01/31 21:43:56.7				
2020/01/31 21:43:56.8	95.430	0.250	-0.580	-0.190
2020/01/31 21:43:56.9	95.450	0.250	-0.530	-0.160
2020/01/31 21:43:57.0	95.470	0.260	-0.470	-0.130
2020/01/31 21:43:57.1	95.500	0.250	-0.340	-0.070
2020/01/31 21:43:57.2				
2020/01/31 21:43:57.3	95.520	0.250	-0.270	-0.040
2020/01/31 21:43:57.4	95.530	0.240	-0.200	-0.010
2020/01/31 21:43:57.5	95.540	0.230	-0.130	0.030
2020/01/31 21:43:57.6	95.550	0.220	-0.050	0.060
2020/01/31 21:43:57.7	95.570	0.210	0.020	0.090
2020/01/31 21:43:57.8	95.570	0.200	0.090	0.120
2020/01/31 21:43:57.9	95.580	0.180	0.160	0.160
2020/01/31 21:43:58.0	95.590	0.160	0.230	0.190
2020/01/31 21:43:58.1	95.600	0.140	0.300	0.220
2020/01/31 21:43:58.2	95.610	0.120	0.370	0.250
2020/01/31 21:43:58.3	95.610	0.100	0.440	0.280
2020/01/31 21:43:58.4	95.620	0.080	0.500	0.310
2020/01/31 21:43:58.5	95.630	0.060	0.560	0.340
2020/01/31 21:43:58.6	95.630	0.040	0.610	0.370
2020/01/31 21:43:58.7	95.640	0.020	0.660	0.400
2020/01/31 21:43:58.8	95.640	-0.000	0.710	0.430
2020/01/31 21:43:58.9				
2020/01/31 21:43:59.0	95.660	-0.040	0.790	0.480
2020/01/31 21:43:59.1	95.670	-0.060	0.820	0.510
2020/01/31 21:43:59.2	95.680	-0.080	0.850	0.530
2020/01/31 21:43:59.3	95.680	-0.090	0.870	0.550
2020/01/31 21:43:59.4	95.690	-0.110	0.880	0.570
2020/01/31 21:43:59.5	95.700	-0.120	0.890	0.590
2020/01/31 21:43:59.6	95.700	-0.140	0.890	0.600
2020/01/31 21:43:59.7	95.710	-0.150	0.880	0.620
2020/01/31 21:43:59.8	95.720	-0.150	0.870	0.630
2020/01/31 21:43:59.9	95.730	-0.160	0.850	0.640
2020/01/31 21:44:00.0	95.740	-0.170	0.820	0.650
2020/01/31 21:44:00.1	95.750	-0.170	0.790	0.660
2020/01/31 21:44:00.2	95.760	-0.170	0.750	0.660
2020/01/31 21:44:00.3	95.760	-0.160	0.700	0.670
2020/01/31 21:44:00.4	95.770	-0.160	0.650	0.670
2020/01/31 21:44:00.5	95.790	-0.150	0.590	0.670
2020/01/31 21:44:00.6	95.800	-0.140	0.520	0.670
2020/01/31 21:44:00.7	95.810	-0.130	0.450	0.670
2020/01/31 21:44:00.8	95.820	-0.110	0.380	0.670
2020/01/31 21:44:00.9	95.830	-0.100	0.300	0.670
2020/01/31 21:44:01.0	95.840	-0.080	0.210	0.660
2020/01/31 21:44:01.1	95.850	-0.060	0.120	0.660
2020/01/31 21:44:01.2	95.860	-0.040	0.030	0.650
2020/01/31 21:44:01.3	95.880	-0.020	-0.060	0.640
2020/01/31 21:44:01.4	95.890	0.000	-0.150	0.630
2020/01/31 21:44:01.5	95.900	0.030	-0.250	0.630
2020/01/31 21:44:01.6	95.910	0.050	-0.340	0.620
2020/01/31 21:44:01.7	95.920	0.080	-0.430	0.610
2020/01/31 21:44:01.8	95.930	0.100	-0.520	0.600
2020/01/31 21:44:01.9	95.940	0.120	-0.610	0.590
2020/01/31 21:44:02.0	95.960	0.140	-0.700	0.570
2020/01/31 21:44:02.1	95.960	0.170	-0.770	0.570
2020/01/31 21:44:02.2	95.970	0.190	-0.850	0.560
2020/01/31 21:44:02.3	95.980	0.200	-0.920	0.550
2020/01/31 21:44:02.4	95.990	0.220	-0.980	0.550
2020/01/31 21:44:02.5	96.000	0.230	-1.030	0.540
2020/01/31 21:44:02.6	96.000	0.240	-1.080	0.540
2020/01/31 21:44:02.7	96.010	0.250	-1.120	0.540
2020/01/31 21:44:02.8	96.010	0.260	-1.150	0.540
2020/01/31 21:44:02.9	96.020	0.260	-1.170	0.550
2020/01/31 21:44:03.0	96.010	0.260	-1.190	0.560
2020/01/31 21:44:03.1	96.010	0.260	-1.200	0.560
2020/01/31 21:44:03.2	96.020	0.250	-1.200	0.580
2020/01/31 21:44:03.3	96.020	0.250	-1.190	0.590
2020/01/31 21:44:03.4	96.010	0.230	-1.170	0.600
2020/01/31 21:44:03.5	96.010	0.220	-1.140	0.620
2020/01/31 21:44:03.6	96.010	0.200	-1.110	0.640
2020/01/31 21:44:03.7	96.010	0.180	-1.070	0.660
2020/01/31 21:44:03.8	96.000	0.160	-1.020	0.680
2020/01/31 21:44:03.9	95.990	0.140	-0.970	0.710
2020/01/31 21:44:04.0	95.980	0.110	-0.900	0.730
2020/01/31 21:44:04.1	95.970	0.090	-0.840	0.750
2020/01/31 21:44:04.2	95.960	0.060	-0.770	0.780
2020/01/31 21:44:04.3	95.950	0.030	-0.700	0.800
2020/01/31 21:44:04.4	95.940	0.000	-0.630	0.820
2020/01/31 21:44:04.5	95.930	-0.030	-0.560	0.850
2020/01/31 21:44:04.6	95.920	-0.050	-0.490	0.870
2020/01/31 21:44:04.7	95.910	-0.080	-0.410	0.890
2020/01/31 21:44:04.8	95.890	-0.110	-0.340	0.910
2020/01/31 21:44:04.9	95.880	-0.130	-0.270	0.930
2020/01/31 21:44:05.0	95.880	-0.160	-0.200	0.940
2020/01/31 21:44:05.1	95.870	-0.180	-0.130	0.960
2020/01/31 21:44:05.2	95.850	-0.200	-0.070	0.970
2020/01/31 21:44:05.3	95.840	-0.220	-0.010	0.970
2020/01/31 21:44:05.4	95.840	-0.230	0.050	0.980
2020/01/31 21:44:05.5	95.830	-0.250	0.090	0.980
2020/01/31 21:44:05.6	95.820	-0.250	0.140	0.980
2020/01/31 21:44:05.7	95.820	-0.260	0.180	0.970
2020/01/31 21:44:05.8	95.810	-0.260	0.210	0.960
2020/01/31 21:44:05.9	95.810	-0.260	0.240	0.950
2020/01/31 21:44:06.0	95.800	-0.260	0.260	0.930
2020/01/31 21:44:06.1	95.810	-0.250	0.270	0.910
2020/01/31 21:44:06.2	95.810	-0.240	0.280	0.890
2020/01/31 21:44:06.3	95.820	-0.230	0.280	0.860
2020/01/31 21:44:06.4	95.830	-0.210	0.270	0.830
2020/01/31 21:44:06.5	95.840	-0.190	0.260	0.790
2020/01/31 21:44:06.6	95.850	-0.170	0.240	0.750
2020/01/31 21:44:06.7	95.860	-0.140	0.220	0.710
2020/01/31 21:44:06.8	95.880	-0.120	0.190	0.670
2020/01/31 21:44:06.9	95.890	-0.090	0.160	0.630
2020/01/31 21:44:07.0	95.910	-0.060	0.120	0.580
2020/01/31 21:44:07.1	95.920	-0.030	0.080	0.540
2020/01/31 21:44:07.2	95.940	-0.000	0.040	0.490
2020/01/31 21:44:07.3	95.950	0.030	-0.010	0.440
2020/01/31 21:44:07.4	95.970	0.060	-0.050	0.390
2020/01/31 21:44:07.5	95.980	0.090	-0.100	0.340
2020/01/31 21:44:07.6	95.990	0.120	-0.140	0.290
2020/01/31 21:44:07.7	96.000	0.150	-0.190	0.250
2020/01/31 21:44:07.8	96.010	0.170	-0.230	0.200
2020/01/31 21:44:07.9	96.020	0.200	-0.270	0.150
2020/01/31 21:44:08.0	96.030	0.220	-0.310	0.110
2020/01/31 21:44:08.1	96.030	0.240	-0.340	0.060
2020/01/31 21:44:08.2	96.040	0.260	-0.380	0.020
2020/01/31 21:44:08.3	96.040	0.270	-0.410	-0.020
2020/01/31 21:44:08.4	96.040	0.280	-0.430	-0.060
2020/01/31 21:44:08.5	96.030	0.290	-0.450	-0.100
2020/01/31 21:44:08.6	96.030	0.300	-0.470	-0.140
2020/01/31 21:44:08.7	96.030	0.300	-0.480	-0.170
2020/01/31 21:44:08.8	96.020	0.300	-0.480	-0.210
2020/01/31 21:44:08.9	96.010	0.290	-0.490	-0.240
2020/01/31 21:44:09.0	96.000	0.290	-0.490	-0.270
2020/01/31 21:44:09.1	95.990	0.270	-0.480	-0.290
2020/01/31 21:44:09.2	95.980	0.260	-0.470	-0.320
2020/01/31 21:44:09.3	95.960	0.240	-0.450	-0.340
2020/01/31 21:44:09.4	95.950	0.220	-0.430	-0.360
2020/01/31 21:44:09.5	95.930	0.200	-0.400	-0.380
2020/01/31 21:44:09.6	95.910	0.170	-0.370	-0.390
2020/01/31 21:44:09.7	95.900	0.150	-0.340	-0.400
2020/01/31 21:44:09.8	95.880	0.120	-0.310	-0.420
2020/01/31 21:44:09.9	95.860	0.090	-0.270	-0.420
2020/01/31 21:44:10.0	95.830	0.050	-0.230	-0.430
2020/01/31 21:44:10.1	95.810	0.020	-0.190	-0.430
2020/01/31 21:44:10.2	95.790	-0.010	-0.140	-0.440
2020/01/31 21:44:10.3	95.760	-0.050	-0.100	-0.440
2020/01/31 21:44:10.4	95.730	-0.080	-0.050	-0.430
2020/01/31 21:44:10.5	95.710	-0.120	-0.010	-0.430
2020/01/31 21:44:10.6	95.680	-0.150	0.040	-0.420
2020/01/31 21:44:10.7	95.650	-0.180	0.090	-0.410
2020/01/31 21:44:10.8	95.620	-0.220	0.130	-0.400
2020/01/31 21:44:10.9	95.590	-0.250	0.170	-0.390
2020/01/31 21:44:11.0	95.570	-0.280	0.210	-0.370
2020/01/31 21:44:11.1	95.540	-0.310	0.250	-0.350
2020/01/31 21:44:11.2	95.510	-0.330	0.290	-0.330
2020/01/31 21:44:11.3	95.480	-0.360	0.330	-0.310
2020/01/31 21:44:11.4	95.450	-0.380	0.360	-0.290
2020/01/31 21:44:11.5	95.420	-0.400	0.390	-0.270
2020/01/31 21:44:11.6	95.390	-0.420	0.410	-0.240
2020/01/31 21:44:11.7	95.360	-0.440	0.440	-0.220
2020/01/31 21:44:11.8	95.340	-0.450	0.450	-0.200
2020/01/31 21:44:11.9	95.310	-0.460	0.470	-0.170
2020/01/31 21:44:12.0	95.300	-0.470	0.480	-0.150
2020/01/31 21:44:12.1	95.270	-0.470	0.480	-0.120
2020/01/31 21:44:12.2	95.260	-0.480	0.480	-0.100
2020/01/31 21:44:12.3	95.240	-0.480	0.480	-0.080
2020/01/31 21:44:12.4	95.220	-0.470	0.480	-0.050
2020/01/31 21:44:12.5	95.210	-0.470	0.460	-0.030
2020/01/31 21:44:12.6	95.200	-0.460	0.450	-0.010
2020/01/31 21:44:12.7	95.190	-0.450	0.430	0.010
2020/01/31 21:44:12.8	95.190	-0.440	0.410	0.020
2020/01/31 21:44:12.9	95.180	-0.420	0.380	0.040
2020/01/31 21:44:13.0	95.170	-0.410	0.350	0.060
2020/01/31 21:44:13.1	95.170	-0.390	0.310	0.070
2020/01/31 21:44:13.2	95.170	-0.370	0.280	0.080
2020/01/31 21:44:13.3	95.180	-0.340	0.240	0.090
2020/01/31 21:44:13.4	95.180	-0.320	0.200	0.090
2020/01/31 21:44:13.5	95.190	-0.290	0.150	0.100
2020/01/31 21:44:13.6	95.190	-0.260	0.110	0.100
2020/01/31 21:44:13.7	95.200	-0.230	0.060	0.100
2020/01/31 21:44:13.8	95.210	-0.200	0.010	0.100
2020/01/31 21:44:13.9	95.210	-0.160	-0.040	0.100
2020/01/31 21:44:14.0	95.210	-0.130	-0.090	0.100
2020/01/31 21:44:14.1	95.210	-0.090	-0.140	0.090
2020/01/31 21:44:14.2	95.220	-0.060	-0.190	0.090
2020/01/31 21:44:14.3	95.220	-0.020	-0.250	0.090
2020/01/31 21:44:14.4	95.230	0.020	-0.300	0.080
2020/01/31 21:44:14.5	95.230	0.060	-0.350	0.080
2020/01/31 21:44:14.6	95.230	0.100	-0.410	0.080
2020/01/31 21:44:14.7	95.230	0.140	-0.460	0.070
2020/01/31 21:44:14.8	95.230	0.170	-0.510	0.070
2020/01/31 21:44:14.9	95.230	0.210	-0.560	0.070
2020/01/31 21:44:15.0	95.220	0.250	-0.620	0.070
2020/01/31 21:44:15.1	95.220	0.290	-0.670	0.070
2020/01/31 21:44:15.2	95.210	0.330	-0.710	0.070
2020/01/31 21:44:15.3	95.210	0.370	-0.760	0.070
2020/01/31 21:44:15.4	95.200	0.400	-0.810	0.070
2020/01/31 21:44:15.5	95.190	0.440	-0.850	0.070
2020/01/31 21:44:15.6	95.190	0.470	-0.890	0.070
2020/01/31 21:44:15.7	95.180	0.500	-0.930	0.070
2020/01/31 21:44:15.8	95.170	0.530	-0.960	0.070
2020/01/31 21:44:15.9	95.170	0.560	-0.990	0.080
2020/01/31 21:44:16.0	95.150	0.590	-1.020	0.080
2020/01/31 21:44:16.1	95.140	0.610	-1.050	0.090
2020/01/31 21:44:16.2	95.140	0.640	-1.070	0.090
2020/01/31 21:44:16.3	95.130	0.660	-1.090	0.100
2020/01/31 21:44:16.4	95.120	0.670	-1.100	0.110
2020/01/31 21:44:16.5	95.110	0.690	-1.110	0.120
2020/01/31 21:44:16.6	95.100	0.700	-1.110	0.140
2020/01/31 21:44:16.7	95.080	0.710	-1.110	0.150
2020/01/31 21:44:16.8	95.070	0.710	-1.110	0.170
2020/01/31 21:44:16.9	95.060	0.710	-1.100	0.180
2020/01/31 21:44:17.0	95.040	0.710	-1.080	0.210
2020/01/31 21:44:17.1	95.020	0.700	-1.060	0.230
2020/01/31 21:44:17.2	95.000	0.690	-1.030	0.250
2020/01/31 21:44:17.3	94.980	0.680	-1.000	0.270
2020/01/31 21:44:17.4	94.950	0.660	-0.960	0.300
2020/01/31 21:44:17.5	94.930	0.640	-0.910	0.330
2020/01/31 21:44:17.6	94.900	0.620	-0.860	0.360
2020/01/31 21:44:17.7	94.870	0.590	-0.810	0.390
2020/01/31 21:44:17.8	94.840	0.560	-0.750	0.420
2020/01/31 21:44:17.9	94.800	0.520	-0.680	0.450
2020/01/31 21:44:18.0	94.770	0.480	-0.610	0.480
2020/01/31 21:44:18.1	94.730	0.440	-0.540	0.520
2020/01/31 21:44:18.2	94.690	0.400	-0.460	0.550
2020/01/31 21:44:18.3	94.650	0.350	-0.380	0.590
2020/01/31 21:44:18.4	94.610	0.300	-0.300	0.620
2020/01/31 21:44:18.5	94.570	0.250	-0.220	0.660
2020/01/31 21:44:18.6	94.520	0.190	-0.130	0.690
2020/01/31 21:44:18.7	94.480	0.140	-0.050	0.730
2020/01/31 21:44:18.8	94.440	0.080	0.040	0.760
2020/01/31 21:44:18.9	94.390	0.030	0.130	0.800
2020/01/31 21:44:19.0	94.330	-0.030	0.210	0.830
2020/01/31 21:44:19.1	94.290	-0.090	0.290	0.860
2020/01/31 21:44:19.2	94.250	-0.150	0.370	0.890
2020/01/31 21:44:19.3	94.210	-0.200	0.450	0.920
2020/01/31 21:44:19.4	94.170	-0.260	0.530	0.940
2020/01/31 21:44:19.5	94.130	-0.310	0.600	0.970
2020/01/31 21:44:19.6	94.100	-0.360	0.660	0.980
2020/01/31 21:44:19.7	94.070	-0.410	0.720	1.000
2020/01/31 21:44:19.8	94.040	-0.460	0.770	1.010
2020/01/31 21:44:19.9	94.010	-0.510	0.820	1.020
2020/01/31 21:44:20.0	93.990	-0.550	0.860	1.020
2020/01/31 21:44:20.1	93.970	-0.590	0.890	1.010
2020/01/31 21:44:20.2	93.960	-0.620	0.910	1.010
2020/01/31 21:44:20.3	93.940	-0.660	0.930	0.990
2020/01/31 21:44:20.4	93.930	-0.680	0.940	0.980
2020/01/31 21:44:20.5	93.930	-0.710	0.930	0.950
2020/01/31 21:44:20.6	93.920	-0.730	0.920	0.930
2020/01/31 21:44:20.7	93.920	-0.740	0.910	0.900
2020/01/31 21:44:20.8	93.920	-0.750	0.880	0.870
2020/01/31 21:44:20.9	93.920	-0.760	0.850	0.830
2020/01/31 21:44:21.0	93.940	-0.760	0.810	0.790
2020/01/31 21:44:21.1	93.940	-0.750	0.760	0.750
2020/01/31 21:44:21.2	93.950	-0.750	0.710	0.700
2020/01/31 21:44:21.3	93.960	-0.740	0.650	0.650
2020/01/31 21:44:21.4	93.970	-0.720	0.580	0.600
2020/01/31 21:44:21.5	93.990	-0.700	0.520	0.550
2020/01/31 21:44:21.6	94.000	-0.680	0.440	0.490
2020/01/31 21:44:21.7	94.020	-0.650	0.370	0.430
2020/01/31 21:44:21.8	94.030	-0.620	0.290	0.370
2020/01/31 21:44:21.9	94.050	-0.590	0.210	0.310
2020/01/31 21:44:22.0	94.080	-0.550	0.130	0.250
2020/01/31 21:44:22.1	94.100	-0.520	0.050	0.190
2020/01/31 21:44:22.2	94.120	-0.480	-0.030	0.130
2020/01/31 21:44:22.3	94.140	-0.430	-0.110	0.070
2020/01/31 21:44:22.4	94.160	-0.390	-0.180	0.000
2020/01/31 21:44:22.5	94.170	-0.350	-0.260	-0.060
2020/01/31 21:44:22.6	94.190	-0.300	-0.340	-0.120
2020/01/31 21:44:22.7	94.210	-0.260	-0.410	-0.170
2020/01/31 21:44:22.8	94.230	-0.210	-0.480	-0.230
2020/01/31 21:44:22.9	94.240	-0.170	-0.540	-0.280
2020/01/31 21:44:23.0	94.260	-0.120	-0.610	-0.330
2020/01/31 21:44:23.1	94.280	-0.080	-0.660	-0.380
2020/01/31 21:44:23.2	94.290	-0.030	-0.710	-0.430
2020/01/31 21:44:23.3	94.300	0.010	-0.760	-0.470
2020/01/31 21:44:23.4	94.300	0.050	-0.800	-0.510
2020/01/31 21:44:23.5	94.310	0.090	-0.840	-0.540
2020/01/31 21:44:23.6	94.310	0.130	-0.870	-0.570
2020/01/31 21:44:23.7	94.300	0.160	-0.890	-0.600
2020/01/31 21:44:23.8	94.300	0.190	-0.910	-0.620
2020/01/31 21:44:23.9	94.290	0.230	-0.930	-0.640
2020/01/31 21:44:24.0	94.270	0.250	-0.940	-0.650
2020/01/31 21:44:24.1	94.250	0.280	-0.940	-0.660
2020/01/31 21:44:24.2	94.230	0.300	-0.940	-0.670
2020/01/31 21:44:24.3	94.210	0.330	-0.930	-0.670
2020/01/31 21:44:24.4	94.190	0.340	-0.920	-0.670
2020/01/31 21:44:24.5	94.160	0.360	-0.910	-0.670
2020/01/31 21:44:24.6	94.120	0.370	-0.890	-0.670
2020/01/31 21:44:24.7	94.090	0.390	-0.870	-0.660
2020/01/31 21:44:24.8	94.050	0.400	-0.840	-0.650
2020/01/31 21:44:24.9	94.010	0.400	-0.810	-0.640
2020/01/31 21:44:25.0	93.970	0.410	-0.780	-0.630
2020/01/31 21:44:25.1	93.930	0.410	-0.740	-0.620
2020/01/31 21:44:25.2	93.890	0.410	-0.710	-0.610
2020/01/31 21:44:25.3	93.840	0.410	-0.670	-0.590
2020/01/31 21:44:25.4	93.800	0.410	-0.630	-0.580
2020/01/31 21:44:25.5	93.760	0.400	-0.590	-0.570
2020/01/31 21:44:25.6	93.710	0.400	-0.550	-0.550
2020/01/31 21:44:25.7	93.670	0.390	-0.510	-0.540
2020/01/31 21:44:25.8	93.630	0.380	-0.470	-0.530
2020/01/31 21:44:25.9	93.590	0.370	-0.430	-0.510
2020/01/31 21:44:26.0	93.550	0.360	-0.390	-0.500
2020/01/31 21:44:26.1	93.520	0.340	-0.350	-0.490
2020/01/31 21:44:26.2	93.480	0.330	-0.310	-0.480
2020/01/31 21:44:26.3	93.450	0.320	-0.270	-0.470
2020/01/31 21:44:26.4	93.420	0.300	-0.240	-0.460
2020/01/31 21:44:26.5	93.390	0.280	-0.200	-0.440
2020/01/31 21:44:26.6	93.360	0.270	-0.160	-0.430
2020/01/31 21:44:26.7	93.340	0.250	-0.130	-0.420
2020/01/31 21:44:26.8	93.320	0.230	-0.090	-0.400
2020/01/31 21:44:26.9	93.300	0.210	-0.060	-0.390
2020/01/31 21:44:27.0	93.270	0.190	-0.030	-0.370
2020/01/31 21:44:27.1	93.260	0.180	0.000	-0.360
2020/01/31 21:44:27.2	93.240	0.160	0.030	-0.340
2020/01/31 21:44:27.3	93.230	0.140	0.050	-0.320
2020/01/31 21:44:27.4	93.230	0.120	0.080	-0.300
2020/01/31 21:44:27.5	93.220	0.100	0.100	-0.270
2020/01/31 21:44:27.6	93.220	0.090	0.120	-0.250
2020/01/31 21:44:27.7	93.220	0.070	0.130	-0.230
2020/01/31 21:44:27.8	93.220	0.050	0.140	-0.200
2020/01/31 21:44:27.9	93.230	0.040	0.150	-0.170
2020/01/31 21:44:28.0	93.220	0.020	0.160	-0.140
2020/01/31 21:44:28.1	93.230	0.010	0.170	-0.110
2020/01/31 21:44:28.2	93.240	-0.010	0.170	-0.080
2020/01/31 21:44:28.3	93.250	-0.020	0.170	-0.050
2020/01/31 21:44:28.4	93.260	-0.040	0.160	-0.010
2020/01/31 21:44:28.5	93.270	-0.050	0.160	0.020
2020/01/31 21:44:28.6	93.280	-0.060	0.150	0.060
2020/01/31 21:44:28.7	93.290	-0.080	0.150	0.100
2020/01/31 21:44:28.8	93.310	-0.090	0.140	0.140
2020/01/31 21:44:28.9	93.320	-0.100	0.130	0.180
2020/01/31 21:44:29.0	93.330	-0.120	0.120	0.230
2020/01/31 21:44:29.1	93.340	-0.140	0.110	0.280
2020/01/31 21:44:29.2	93.340	-0.150	0.110	0.330
2020/01/31 21:44:29.3	93.350	-0.170	0.100	0.380
2020/01/31 21:44:29.4	93.350	-0.190	0.100	0.430
2020/01/31 21:44:29.5	93.350	-0.210	0.100	0.480
2020/01/31 21:44:29.6	93.350	-0.230	0.100	0.540
2020/01/31 21:44:29.7	93.350	-0.250	0.110	0.590
2020/01/31 21:44:29.8	93.340	-0.270	0.110	0.650
2020/01/31 21:44:29.9	93.330	-0.290	0.120	0.700
2020/01/31 21:44:30.0	93.330	-0.320	0.130	0.760
2020/01/31 21:44:30.1	93.310	-0.340	0.140	0.820
2020/01/31 21:44:30.2	93.300	-0.370	0.150	0.870
2020/01/31 21:44:30.3	93.280	-0.390	0.170	0.930
2020/01/31 21:44:30.4	93.250	-0.420	0.190	0.980
2020/01/31 21:44:30.5	93.230	-0.450	0.210	1.040
2020/01/31 21:44:30.6	93.200	-0.470	0.220	1.090
2020/01/31 21:44:30.7	93.180	-0.490	0.240	1.140
2020/01/31 21:44:30.8	93.150	-0.520	0.260	1.190
2020/01/31 21:44:30.9	93.120	-0.540	0.280	1.230
2020/01/31 21:44:31.0	93.090	-0.560	0.290	1.280
2020/01/31 21:44:31.1	93.060	-0.580	0.310	1.320
2020/01/31 21:44:31.2	93.020	-0.590	0.320	1.350
2020/01/31 21:44:31.3	92.990	-0.610	0.320	1.380
2020/01/31 21:44:31.4	92.960	-0.620	0.320	1.410
2020/01/31 21:44:31.5	92.930	-0.620	0.320	1.430
2020/01/31 21:44:31.6	92.890	-0.620	0.320	1.450
2020/01/31 21:44:31.7	92.860	-0.620	0.310	1.460
2020/01/31 21:44:31.8	92.830	-0.610	0.290	1.470
2020/01/31 21:44:31.9	92.800	-0.600	0.270	1.470
2020/01/31 21:44:32.0	92.770	-0.590	0.240	1.470
2020/01/31 21:44:32.1	92.740	-0.570	0.210	1.460
2020/01/31 21:44:32.2	92.710	-0.540	0.170	1.450
2020/01/31 21:44:32.3	92.690	-0.510	0.130	1.430
2020/01/31 21:44:32.4	92.660	-0.470	0.080	1.400
2020/01/31 21:44:32.5	92.640	-0.430	0.020	1.380
2020/01/31 21:44:32.6	92.620	-0.390	-0.030	1.340
2020/01/31 21:44:32.7	92.610	-0.340	-0.100	1.300
2020/01/31 21:44:32.8	92.590	-0.290	-0.160	1.260
2020/01/31 21:44:32.9	92.580	-0.230	-0.230	1.210
2020/01/31 21:44:33.0	92.570	-0.170	-0.310	1.160
2020/01/31 21:44:33.1	92.570	-0.100	-0.380	1.110
2020/01/31 21:44:33.2	92.560	-0.040	-0.460	1.050
2020/01/31 21:44:33.3	92.560	0.030	-0.530	0.980
2020/01/31 21:44:33.4	92.550	0.100	-0.610	0.920
2020/01/31 21:44:33.5	92.550	0.170	-0.690	0.850
2020/01/31 21:44:33.6	92.550	0.240	-0.760	0.780
2020/01/31 21:44:33.7	92.560	0.320	-0.830	0.710
2020/01/31 21:44:33.8	92.560	0.390	-0.890	0.630
2020/01/31 21:44:33.9	92.560	0.460	-0.960	0.560
2020/01/31 21:44:34.0	92.570	0.520	-1.020	0.490
2020/01/31 21:44:34.1	92.570	0.590	-1.070	0.410
2020/01/31 21:44:34.2	92.580	0.650	-1.110	0.330
2020/01/31 21:44:34.3	92.580	0.710	-1.150	0.260
2020/01/31 21:44:34.4	92.590	0.770	-1.180	0.190
2020/01/31 21:44:34.5	92.590	0.820	-1.200	0.110
2020/01/31 21:44:34.6	92.590	0.860	-1.220	0.040
2020/01/31 21:44:34.7	92.590	0.900	-1.220	-0.030
2020/01/31 21:44:34.8	92.590	0.940	-1.220	-0.100
2020/01/31 21:44:34.9	92.590	0.970	-1.210	-0.170
2020/01/31 21:44:35.0	92.580	0.990	-1.190	-0.230
2020/01/31 21:44:35.1	92.580	1.010	-1.170	-0.290
2020/01/31 21:44:35.2	92.570	1.020	-1.130	-0.350
2020/01/31 21:44:35.3	92.560	1.020	-1.090	-0.410
2020/01/31 21:44:35.4	92.550	1.020	-1.040	-0.460
2020/01/31 21:44:35.5	92.540	1.010	-0.990	-0.510
2020/01/31 21:44:35.6	92.520	1.000	-0.930	-0.560
2020/01/31 21:44:35.7	92.500	0.980	-0.860	-0.600
2020/01/31 21:44:35.8	92.480	0.960	-0.790	-0.640
2020/01/31 21:44:35.9	92.460	0.930	-0.720	-0.680
2020/01/31 21:44:36.0	92.440	0.890	-0.640	-0.710
2020/01/31 21:44:36.1	92.410	0.850	-0.560	-0.730
2020/01/31 21:44:36.2	92.390	0.810	-0.480	-0.760
2020/01/31 21:44:36.3	92.360	0.760	-0.400	-0.780
2020/01/31 21:44:36.4	92.330	0.710	-0.320	-0.800
2020/01/31 21:44:36.5	92.300	0.660	-0.240	-0.810
2020/01/31 21:44:36.6	92.270	0.610	-0.160	-0.820
2020/01/31 21:44:36.7	92.230	0.550	-0.090	-0.830
2020/01/31 21:44:36.8	92.200	0.490	-0.020	-0.830
2020/01/31 21:44:36.9	92.170	0.440	0.040	-0.840
2020/01/31 21:44:37.0	92.130	0.380	0.100	-0.840
2020/01/31 21:44:37.1	92.100	0.320	0.160	-0.830
2020/01/31 21:44:37.2	92.070	0.260	0.200	-0.830
2020/01/31 21:44:37.3	92.040	0.200	0.250	-0.820
2020/01/31 21:44:37.4	92.010	0.140	0.290	-0.810
2020/01/31 21:44:37.5	91.990	0.090	0.320	-0.790
2020/01/31 21:44:37.6	91.960	0.030	0.340	-0.780
2020/01/31 21:44:37.7	91.930	-0.020	0.370	-0.760
2020/01/31 21:44:37.8	91.900	-0.070	0.380	-0.740
2020/01/31 21:44:37.9	91.880	-0.120	0.390	-0.720
2020/01/31 21:44:38.0	91.840	-0.170	0.400	-0.700
2020/01/31 21:44:38.1	91.820	-0.210	0.400	-0.670
2020/01/31 21:44:38.2	91.800	-0.260	0.400	-0.650
2020/01/31 21:44:38.3	91.770	-0.300	0.390	-0.620
2020/01/31 21:44:38.4	91.750	-0.340	0.390	-0.590
2020/01/31 21:44:38.5	91.730	-0.370	0.380	-0.570
2020/01/31 21:44:38.6	91.710	-0.410	0.360	-0.540
2020/01/31 21:44:38.7	91.690	-0.440	0.350	-0.510
2020/01/31 21:44:38.8	91.670	-0.470	0.330	-0.480
2020/01/31 21:44:38.9	91.650	-0.500	0.310	-0.450
2020/01/31 21:44:39.0	91.650	-0.520	0.300	-0.420
2020/01/31 21:44:39.1	91.630	-0.550	0.280	-0.390
2020/01/31 21:44:39.2	91.620	-0.570	0.260	-0.360
2020/01/31 21:44:39.3	91.610	-0.590	0.240	-0.330
2020/01/31 21:44:39.4	91.600	-0.610	0.230	-0.300
2020/01/31 21:44:39.5	91.600	-0.620	0.210	-0.270
2020/01/31 21:44:39.6	91.590	-0.640	0.200	-0.250
2020/01/31 21:44:39.7	91.590	-0.650	0.190	-0.220
2020/01/31 21:44:39.8	91.590	-0.660	0.170	-0.190
2020/01/31 21:44:39.9	91.590	-0.670	0.160	-0.160
2020/01/31 21:44:40.0	91.590	-0.680	0.150	-0.140
2020/01/31 21:44:40.1	91.600	-0.680	0.150	-0.110
2020/01/31 21:44:40.2	91.600	-0.690	0.140	-0.080
2020/01/31 21:44:40.3	91.610	-0.690	0.130	-0.060
2020/01/31 21:44:40.4	91.620	-0.690	0.130	-0.040
2020/01/31 21:44:40.5	91.630	-0.690	0.120	-0.020
2020/01/31 21:44:40.6	91.640	-0.690	0.120	0.010
2020/01/31 21:44:40.7	91.650	-0.690	0.110	0.030
2020/01/31 21:44:40.8	91.660	-0.690	0.110	0.050
2020/01/31 21:44:40.9	91.680	-0.680	0.100	0.070
2020/01/31 21:44:41.0	91.700	-0.670	0.100	0.090
2020/01/31 21:44:41.1	91.710	-0.670	0.090	0.110
2020/01/31 21:44:41.2	91.730	-0.660	0.090	0.120
2020/01/31 21:44:41.3	91.750	-0.650	0.080	0.140
2020/01/31 21:44:41.4	91.760	-0.640	0.080	0.160
2020/01/31 21:44:41.5	91.780	-0.630	0.070	0.180
2020/01/31 21:44:41.6	91.790	-0.620	0.060	0.200
2020/01/31 21:44:41.7	91.810	-0.600	0.050	0.220
2020/01/31 21:44:41.8	91.820	-0.590	0.040	0.230
2020/01/31 21:44:41.9	91.840	-0.570	0.030	0.250
2020/01/31 21:44:42.0	91.850	-0.560	0.020	0.280
2020/01/31 21:44:42.1	91.860	-0.540	0.010	0.300
2020/01/31 21:44:42.2	91.870	-0.520	0.000	0.320
2020/01/31 21:44:42.3	91.870	-0.500	-0.010	0.340
2020/01/31 21:44:42.4	91.880	-0.480	-0.030	0.360
2020/01/31 21:44:42.5	91.880	-0.460	-0.040	0.380
2020/01/31 21:44:42.6	91.880	-0.440	-0.050	0.410
2020/01/31 21:44:42.7	91.870	-0.420	-0.070	0.430
2020/01/31 21:44:42.8	91.870	-0.400	-0.080	0.460
2020/01/31 21:44:42.9	91.860	-0.370	-0.100	0.480
2020/01/31 21:44:43.0	91.850	-0.350	-0.120	0.510
2020/01/31 21:44:43.1	91.840	-0.320	-0.140	0.540
2020/01/31 21:44:43.2	91.820	-0.300	-0.160	0.570
2020/01/31 21:44:43.3	91.800	-0.270	-0.170	0.600
2020/01/31 21:44:43.4	91.780	-0.250	-0.190	0.630
2020/01/31 21:44:43.5	91.750	-0.220	-0.210	0.660
2020/01/31 21:44:43.6	91.730	-0.190	-0.230	0.690
2020/01/31 21:44:43.7	91.700	-0.160	-0.260	0.720
2020/01/31 21:44:43.8	91.660	-0.130	-0.280	0.750
2020/01/31 21:44:43.9	91.630	-0.100	-0.300	0.780
2020/01/31 21:44:44.0	91.600	-0.070	-0.330	0.810
2020/01/31 21:44:44.1	91.570	-0.040	-0.350	0.840
2020/01/31 21:44:44.2	91.530	-0.010	-0.380	0.880
2020/01/31 21:44:44.3	91.490	0.020	-0.410	0.910
2020/01/31 21:44:44.4	91.450	0.060	-0.430	0.940
2020/01/31 21:44:44.5	91.410	0.090	-0.460	0.970
2020/01/31 21:44:44.6	91.370	0.120	-0.490	1.000
2020/01/31 21:44:44.7	91.330	0.160	-0.520	1.030
2020/01/31 21:44:44.8	91.300	0.190	-0.550	1.060
2020/01/31 21:44:44.9	91.260	0.230	-0.580	1.090
2020/01/31 21:44:45.0	91.210	0.260	-0.610	1.120
2020/01/31 21:44:45.1	91.170	0.290	-0.640	1.140
2020/01/31 21:44:45.2	91.130	0.330	-0.670	1.170
2020/01/31 21:44:45.3	91.100	0.360	-0.700	1.190
2020/01/31 21:44:45.4	91.060	0.390	-0.730	1.220
2020/01/31 21:44:45.5	91.020	0.420	-0.760	1.240
2020/01/31 21:44:45.6	90.990	0.450	-0.780	1.260
2020/01/31 21:44:45.7	90.960	0.480	-0.800	1.270
2020/01/31 21:44:45.8	90.930	0.510	-0.820	1.290
2020/01/31 21:44:45.9	90.900	0.530	-0.840	1.300
2020/01/31 21:44:46.0	90.870	0.560	-0.860	1.310
2020/01/31 21:44:46.1	90.850	0.580	-0.860	1.310
2020/01/31 21:44:46.2	90.820	0.600	-0.870	1.310
2020/01/31 21:44:46.3	90.800	0.620	-0.880	1.310
2020/01/31 21:44:46.4	90.780	0.640	-0.870	1.300
2020/01/31 21:44:46.5	90.760	0.650	-0.870	1.290
2020/01/31 21:44:46.6	90.750	0.660	-0.860	1.270
2020/01/31 21:44:46.7	90.730	0.670	-0.850	1.250
2020/01/31 21:44:46.8	90.720	0.680	-0.830	1.230
2020/01/31 21:44:46.9	90.720	0.690	-0.810	1.200
2020/01/31 21:44:47.0	90.690	0.690	-0.780	1.160
2020/01/31 21:44:47.1	90.690	0.690	-0.750	1.130
2020/01/31 21:44:47.2	90.690	0.690	-0.710	1.090
2020/01/31 21:44:47.3	90.690	0.680	-0.670	1.050
2020/01/31 21:44:47.4	90.690	0.670	-0.630	1.000
2020/01/31 21:44:47.5	90.700	0.660	-0.580	0.950
2020/01/31 21:44:47.6	90.700	0.650	-0.530	0.900
2020/01/31 21:44:47.7	90.710	0.640	-0.480	0.850
2020/01/31 21:44:47.8	90.720	0.620	-0.420	0.790
2020/01/31 21:44:47.9	90.730	0.610	-0.360	0.740
2020/01/31 21:44:48.0	90.750	0.590	-0.290	0.680
2020/01/31 21:44:48.1	90.760	0.560	-0.230	0.620
2020/01/31 21:44:48.2	90.770	0.540	-0.160	0.570
2020/01/31 21:44:48.3	90.780	0.520	-0.090	0.510
2020/01/31 21:44:48.4	90.790	0.490	-0.020	0.450
2020/01/31 21:44:48.5	90.800	0.470	0.050	0.390
2020/01/31 21:44:48.6	90.810	0.440	0.120	0.330
2020/01/31 21:44:48.7	90.830	0.410	0.180	0.270
2020/01/31 21:44:48.8	90.830	0.380	0.250	0.210
2020/01/31 21:44:48.9	90.840	0.350	0.320	0.160
2020/01/31 21:44:49.0	90.860	0.320	0.380	0.100
2020/01/31 21:44:49.1	90.870	0.290	0.440	0.040
2020/01/31 21:44:49.2	90.870	0.260	0.490	-0.020
2020/01/31 21:44:49.3	90.880	0.230	0.540	-0.070
2020/01/31 21:44:49.4	90.890	0.200	0.580	-0.130
2020/01/31 21:44:49.5	90.890	0.180	0.620	-0.180
2020/01/31 21:44:49.6	90.900	0.150	0.650	-0.230
2020/01/31 21:44:49.7	90.910	0.120	0.680	-0.280
2020/01/31 21:44:49.8	90.910	0.100	0.700	-0.330
2020/01/31 21:44:49.9	90.920	0.070	0.710	-0.380
2020/01/31 21:44:50.0	90.920	0.050	0.720	-0.430
2020/01/31 21:44:50.1	90.930	0.030	0.720	-0.470
2020/01/31 21:44:50.2	90.940	0.010	0.710	-0.520
2020/01/31 21:44:50.3	90.940	-0.000	0.690	-0.560
2020/01/31 21:44:50.4	90.950	-0.020	0.670	-0.600
2020/01/31 21:44:50.5	90.960	-0.030	0.640	-0.630
2020/01/31 21:44:50.6	90.970	-0.040	0.610	-0.670
2020/01/31 21:44:50.7	90.980	-0.050	0.560	-0.700
2020/01/31 21:44:50.8	90.980	-0.060	0.520	-0.730
2020/01/31 21:44:50.9	90.990	-0.060	0.460	-0.750
2020/01/31 21:44:51.0	91.000	-0.070	0.410	-0.770
2020/01/31 21:44:51.1	91.010	-0.070	0.340	-0.790
2020/01/31 21:44:51.2	91.020	-0.070	0.280	-0.800
2020/01/31 21:44:51.3	91.030	-0.070	0.210	-0.810
2020/01/31 21:44:51.4	91.040	-0.070	0.130	-0.820
2020/01/31 21:44:51.5	91.060	-0.070	0.060	-0.830
2020/01/31 21:44:51.6	91.070	-0.060	-0.020	-0.830
2020/01/31 21:44:51.7	91.080	-0.060	-0.090	-0.830
2020/01/31 21:44:51.8	91.090	-0.060	-0.170	-0.820
2020/01/31 21:44:51.9	91.100	-0.060	-0.240	-0.810
2020/01/31 21:44:52.0	91.110	-0.050	-0.320	-0.800
2020/01/31 21:44:52.1	91.120	-0.050	-0.390	-0.780
2020/01/31 21:44:52.2	91.130	-0.050	-0.460	-0.750
2020/01/31 21:44:52.3	91.140	-0.050	-0.520	-0.730
2020/01/31 21:44:52.4	91.140	-0.050	-0.580	-0.700
2020/01/31 21:44:52.5	91.150	-0.060	-0.630	-0.660
2020/01/31 21:44:52.6	91.150	-0.060	-0.680	-0.620
2020/01/31 21:44:52.7	91.150	-0.070	-0.720	-0.580
2020/01/31 21:44:52.8	91.150	-0.070	-0.750	-0.540
2020/01/31 21:44:52.9	91.150	-0.080	-0.780	-0.490
2020/01/31 21:44:53.0	91.160	-0.090	-0.800	-0.430
2020/01/31 21:44:53.1	91.160	-0.110	-0.810	-0.370
2020/01/31 21:44:53.2	91.160	-0.120	-0.820	-0.310
2020/01/31 21:44:53.3	91.150	-0.140	-0.820	-0.250
2020/01/31 21:44:53.4	91.140	-0.160	-0.810	-0.180
2020/01/31 21:44:53.5	91.130	-0.180	-0.790	-0.120
2020/01/31 21:44:53.6	91.120	-0.200	-0.770	-0.040
2020/01/31 21:44:53.7	91.110	-0.220	-0.730	0.030
2020/01/31 21:44:53.8	91.100	-0.250	-0.700	0.110
2020/01/31 21:44:53.9	91.090	-0.270	-0.650	0.180
2020/01/31 21:44:54.0	91.080	-0.300	-0.610	0.270
2020/01/31 21:44:54.1	91.070	-0.330	-0.550	0.350
2020/01/31 21:44:54.2	91.050	-0.350	-0.500	0.430
2020/01/31 21:44:54.3	91.040	-0.380	-0.440	0.510
2020/01/31 21:44:54.4	91.030	-0.410	-0.370	0.590
2020/01/31 21:44:54.5	91.020	-0.430	-0.310	0.680
2020/01/31 21:44:54.6	91.010	-0.460	-0.250	0.760
2020/01/31 21:44:54.7	91.000	-0.480	-0.180	0.840
2020/01/31 21:44:54.8	91.000	-0.500	-0.120	0.920
2020/01/31 21:44:54.9	90.990	-0.520	-0.060	1.000
2020/01/31 21:44:55.0	90.990	-0.540	-0.000	1.070
2020/01/31 21:44:55.1	90.980	-0.550	0.050	1.150
2020/01/31 21:44:55.2	90.980	-0.560	0.100	1.220
2020/01/31 21:44:55.3	90.980	-0.570	0.140	1.280
2020/01/31 21:44:55.4	90.990	-0.580	0.170	1.350
2020/01/31 21:44:55.5	90.990	-0.580	0.200	1.410
2020/01/31 21:44:55.6	91.000	-0.580	0.220	1.470
2020/01/31 21:44:55.7	91.000	-0.570	0.230	1.520
2020/01/31 21:44:55.8	91.010	-0.560	0.240	1.570
2020/01/31 21:44:55.9	91.030	-0.550	0.240	1.620
2020/01/31 21:44:56.0	91.040	-0.540	0.240	1.670
2020/01/31 21:44:56.1	91.050	-0.520	0.220	1.710
2020/01/31 21:44:56.2	91.070	-0.490	0.200	1.740
2020/01/31 21:44:56.3	91.090	-0.470	0.180	1.780
2020/01/31 21:44:56.4	91.110	-0.440	0.140	1.810
2020/01/31 21:44:56.5	91.130	-0.410	0.110	1.830
2020/01/31 21:44:56.6	91.150	-0.380	0.070	1.860
2020/01/31 21:44:56.7	91.170	-0.350	0.030	1.880
2020/01/31 21:44:56.8	91.190	-0.310	-0.020	1.900
2020/01/31 21:44:56.9	91.210	-0.280	-0.070	1.910
2020/01/31 21:44:57.0	91.220	-0.240	-0.120	1.920
2020/01/31 21:44:57.1	91.240	-0.200	-0.170	1.930
2020/01/31 21:44:57.2	91.260	-0.160	-0.220	1.930
2020/01/31 21:44:57.3	91.280	-0.130	-0.270	1.940
2020/01/31 21:44:57.4	91.300	-0.090	-0.320	1.940
2020/01/31 21:44:57.5	91.320	-0.050	-0.360	1.930
2020/01/31 21:44:57.6	91.340	-0.020	-0.400	1.920
2020/01/31 21:44:57.7	91.360	0.020	-0.440	1.910
2020/01/31 21:44:57.8	91.380	0.050	-0.470	1.900
2020/01/31 21:44:57.9	91.400	0.080	-0.500	1.880
2020/01/31 21:44:58.0	91.410	0.110	-0.520	1.860
2020/01/31 21:44:58.1	91.430	0.140	-0.540	1.840
2020/01/31 21:44:58.2	91.440	0.160	-0.560	1.810
2020/01/31 21:44:58.3	91.460	0.180	-0.570	1.770
2020/01/31 21:44:58.4	91.480	0.200	-0.580	1.730
2020/01/31 21:44:58.5	91.490	0.220	-0.580	1.690
2020/01/31 21:44:58.6	91.510	0.240	-0.570	1.650
2020/01/31 21:44:58.7	91.530	0.250	-0.570	1.600
2020/01/31 21:44:58.8	91.540	0.260	-0.550	1.540
2020/01/31 21:44:58.9	91.560	0.270	-0.530	1.490
2020/01/31 21:44:59.0	91.600	0.280	-0.510	1.420
2020/01/31 21:44:59.1	91.610	0.290	-0.490	1.360
2020/01/31 21:44:59.2	91.630	0.290	-0.450	1.290
2020/01/31 21:44:59.3	91.650	0.290	-0.420	1.220
2020/01/31 21:44:59.4	91.670	0.290	-0.380	1.150
2020/01/31 21:44:59.5	91.690	0.290	-0.340	1.070
2020/01/31 21:44:59.6	91.700	0.280	-0.300	1.000
2020/01/31 21:44:59.7	91.720	0.280	-0.260	0.920
2020/01/31 21:44:59.8	91.740	0.270	-0.210	0.840
2020/01/31 21:44:59.9	91.760	0.270	-0.170	0.760
2020/01/31 21:45:00.0	91.780	0.260	-0.120	0.680
2020/01/31 21:45:00.1	91.800	0.250	-0.080	0.600
2020/01/31 21:45:00.2	91.820	0.240	-0.030	0.510
2020/01/31 21:45:00.3	91.840	0.230	0.010	0.430
2020/01/31 21:45:00.4	91.850	0.220	0.060	0.350
2020/01/31 21:45:00.5	91.870	0.210	0.100	0.270
2020/01/31 21:45:00.6	91.880	0.210	0.140	0.200
2020/01/31 21:45:00.7	91.900	0.200	0.180	0.120
2020/01/31 21:45:00.8	91.910	0.190	0.210	0.050
2020/01/31 21:45:00.9	91.930	0.180	0.240	-0.020
2020/01/31 21:45:01.0	91.930	0.170	0.270	-0.100
2020/01/31 21:45:01.1	91.950	0.170	0.290	-0.160
2020/01/31 21:45:01.2	91.950	0.160	0.310	-0.220
2020/01/31 21:45:01.3	91.960	0.150	0.320	-0.280
2020/01/31 21:45:01.4	91.970	0.150	0.330	-0.330
2020/01/31 21:45:01.5	91.980	0.150	0.340	-0.390
2020/01/31 21:45:01.6	91.980	0.150	0.340	-0.430
2020/01/31 21:45:01.7	91.990	0.140	0.330	-0.480
2020/01/31 21:45:01.8	91.990	0.150	0.320	-0.510
2020/01/31 21:45:01.9	91.990	0.150	0.300	-0.550
2020/01/31 21:45:02.0	91.970	0.150	0.280	-0.580
2020/01/31 21:45:02.1	91.970	0.150	0.250	-0.610
2020/01/31 21:45:02.2	91.970	0.160	0.220	-0.640
2020/01/31 21:45:02.3	91.970	0.160	0.190	-0.660
2020/01/31 21:45:02.4	91.960	0.170	0.140	-0.680
2020/01/31 21:45:02.5	91.960	0.180	0.100	-0.700
2020/01/31 21:45:02.6	91.960	0.190	0.050	-0.720
2020/01/31 21:45:02.7	91.950	0.200	-0.010	-0.730
2020/01/31 21:45:02.8	91.950	0.210	-0.060	-0.740
2020/01/31 21:45:02.9	91.940	0.220	-0.120	-0.750
2020/01/31 21:45:03.0	91.930	0.230	-0.190	-0.760
2020/01/31 21:45:03.1	91.930	0.240	-0.250	-0.770
2020/01/31 21:45:03.2	91.920	0.250	-0.320	-0.770
2020/01/31 21:45:03.3	91.920	0.260	-0.380	-0.780
2020/01/31 21:45:03.4	91.920	0.270	-0.450	-0.780
2020/01/31 21:45:03.5	91.910	0.280	-0.510	-0.770
2020/01/31 21:45:03.6	91.910	0.290	-0.580	-0.770
2020/01/31 21:45:03.7	91.910	0.300	-0.640	-0.760
2020/01/31 21:45:03.8	91.900	0.300	-0.700	-0.760
2020/01/31 21:45:03.9	91.900	0.310	-0.750	-0.750
2020/01/31 21:45:04.0	91.900	0.310	-0.800	-0.730
2020/01/31 21:45:04.1	91.900	0.320	-0.850	-0.720
2020/01/31 21:45:04.2	91.910	0.320	-0.890	-0.700
2020/01/31 21:45:04.3	91.910	0.320	-0.930	-0.680
2020/01/31 21:45:04.4	91.910	0.310	-0.960	-0.660
2020/01/31 21:45:04.5	91.920	0.310	-0.990	-0.640
2020/01/31 21:45:04.6	91.930	0.300	-1.000	-0.620
2020/01/31 21:45:04.7	91.930	0.290	-1.010	-0.590
2020/01/31 21:45:04.8	91.940	0.280	-1.020	-0.560
2020/01/31 21:45:04.9	91.960	0.270	-1.010	-0.530
2020/01/31 21:45:05.0	91.970	0.250	-1.000	-0.500
2020/01/31 21:45:05.1	91.990	0.230	-0.980	-0.460
2020/01/31 21:45:05.2	92.000	0.210	-0.950	-0.430
2020/01/31 21:45:05.3	92.020	0.190	-0.910	-0.390
2020/01/31 21:45:05.4	92.040	0.160	-0.870	-0.340
2020/01/31 21:45:05.5	92.060	0.130	-0.820	-0.300
2020/01/31 21:45:05.6	92.080	0.110	-0.770	-0.260
2020/01/31 21:45:05.7	92.100	0.070	-0.710	-0.210
2020/01/31 21:45:05.8	92.130	0.040	-0.640	-0.160
2020/01/31 21:45:05.9	92.150	0.010	-0.570	-0.110
2020/01/31 21:45:06.0	92.190	-0.020	-0.490	-0.060
2020/01/31 21:45:06.1	92.220	-0.060	-0.410	-0.000
2020/01/31 21:45:06.2	92.240	-0.090	-0.330	0.050
2020/01/31 21:45:06.3	92.270	-0.120	-0.240	0.100
2020/01/31 21:45:06.4	92.300	-0.160	-0.150	0.160
2020/01/31 21:45:06.5	92.330	-0.190	-0.060	0.210
2020/01/31 21:45:06.6	92.360	-0.220	0.020	0.270
2020/01/31 21:45:06.7	92.390	-0.260	0.110	0.320
2020/01/31 21:45:06.8	92.420	-0.290	0.200	0.380
2020/01/31 21:45:06.9	92.450	-0.310	0.280	0.430
2020/01/31 21:45:07.0	92.470	-0.340	0.370	0.490
2020/01/31 21:45:07.1	92.500	-0.370	0.450	0.550
2020/01/31 21:45:07.2	92.530	-0.390	0.520	0.600
2020/01/31 21:45:07.3	92.560	-0.410	0.600	0.650
2020/01/31 21:45:07.4	92.590	-0.430	0.670	0.700
2020/01/31 21:45:07.5	92.620	-0.450	0.730	0.750
2020/01/31 21:45:07.6	92.650	-0.460	0.790	0.800
2020/01/31 21:45:07.7	92.680	-0.480	0.840	0.850
2020/01/31 21:45:07.8	92.700	-0.490	0.880	0.890
2020/01/31 21:45:07.9	92.730	-0.490	0.920	0.930
2020/01/31 21:45:08.0	92.740	-0.500	0.950	0.970
2020/01/31 21:45:08.1	92.770	-0.500	0.970	1.010
2020/01/31 21:45:08.2	92.790	-0.490	0.980	1.040
2020/01/31 21:45:08.3	92.810	-0.490	0.990	1.080
2020/01/31 21:45:08.4	92.830	-0.480	0.990	1.110
2020/01/31 21:45:08.5	92.850	-0.470	0.970	1.140
2020/01/31 21:45:08.6	92.870	-0.460	0.950	1.160
2020/01/31 21:45:08.7	92.890	-0.440	0.930	1.180
2020/01/31 21:45:08.8	92.910	-0.420	0.890	1.210
2020/01/31 21:45:08.9	92.920	-0.400	0.840	1.220
2020/01/31 21:45:09.0	92.940	-0.380	0.790	1.240
2020/01/31 21:45:09.1	92.960	-0.350	0.730	1.250
2020/01/31 21:45:09.2	92.980	-0.320	0.660	1.260
2020/01/31 21:45:09.3	92.990	-0.290	0.580	1.270
2020/01/31 21:45:09.4	93.000	-0.260	0.490	1.270
2020/01/31 21:45:09.5	93.020	-0.220	0.400	1.280
2020/01/31 21:45:09.6	93.030	-0.190	0.300	1.280
2020/01/31 21:45:09.7	93.050	-0.150	0.200	1.270
2020/01/31 21:45:09.8	93.060	-0.110	0.100	1.270
2020/01/31 21:45:09.9	93.070	-0.070	-0.010	1.270
2020/01/31 21:45:10.0	93.080	-0.040	-0.130	1.260
2020/01/31 21:45:10.1	93.090	0.000	-0.250	1.250
2020/01/31 21:45:10.2	93.100	0.040	-0.360	1.240
2020/01/31 21:45:10.3	93.110	0.080	-0.470	1.230
2020/01/31 21:45:10.4	93.120	0.120	-0.590	1.220
2020/01/31 21:45:10.5	93.130	0.150	-0.700	1.210
2020/01/31 21:45:10.6	93.130	0.190	-0.800	1.200
2020/01/31 21:45:10.7	93.140	0.220	-0.910	1.190
2020/01/31 21:45:10.8	93.150	0.260	-1.010	1.170
2020/01/31 21:45:10.9	93.150	0.280	-1.100	1.160
2020/01/31 21:45:11.0	93.160	0.310	-1.180	1.150
2020/01/31 21:45:11.1	93.170	0.340	-1.260	1.130
2020/01/31 21:45:11.2	93.170	0.360	-1.320	1.120
2020/01/31 21:45:11.3	93.170	0.380	-1.380	1.100
2020/01/31 21:45:11.4	93.180	0.390	-1.430	1.090
2020/01/31 21:45:11.5	93.180	0.400	-1.470	1.080
2020/01/31 21:45:11.6	93.180	0.410	-1.500	1.060
2020/01/31 21:45:11.7	93.180	0.410	-1.520	1.050
2020/01/31 21:45:11.8	93.180	0.420	-1.530	1.040
2020/01/31 21:45:11.9	93.180	0.410	-1.530	1.030
2020/01/31 21:45:12.0	93.180	0.410	-1.520	1.010
2020/01/31 21:45:12.1	93.180	0.400	-1.500	1.000
2020/01/31 21:45:12.2	93.180	0.390	-1.460	0.990
2020/01/31 21:45:12.3	93.180	0.370	-1.420	0.980
2020/01/31 21:45:12.4	93.180	0.350	-1.370	0.970
2020/01/31 21:45:12.5	93.180	0.330	-1.310	0.960
2020/01/31 21:45:12.6	93.180	0.310	-1.250	0.950
2020/01/31 21:45:12.7	93.180	0.280	-1.170	0.940
2020/01/31 21:45:12.8	93.190	0.250	-1.090	0.930
2020/01/31 21:45:12.9	93.190	0.220	-1.010	0.920
2020/01/31 21:45:13.0	93.190	0.190	-0.910	0.920
2020/01/31 21:45:13.1	93.190	0.160	-0.820	0.910
2020/01/31 21:45:13.2	93.200	0.120	-0.730	0.900
2020/01/31 21:45:13.3	93.200	0.090	-0.630	0.890
2020/01/31 21:45:13.4	93.210	0.050	-0.530	0.880
2020/01/31 21:45:13.5	93.210	0.020	-0.430	0.870
2020/01/31 21:45:13.6	93.220	-0.020	-0.330	0.860
2020/01/31 21:45:13.7	93.230	-0.060	-0.230	0.840
2020/01/31 21:45:13.8	93.230	-0.090	-0.130	0.830
2020/01/31 21:45:13.9	93.240	-0.130	-0.040	0.810
2020/01/31 21:45:14.0	93.250	-0.160	0.050	0.800
2020/01/31 21:45:14.1	93.260	-0.190	0.140	0.780
2020/01/31 21:45:14.2	93.270	-0.220	0.220	0.750
2020/01/31 21:45:14.3	93.280	-0.250	0.300	0.730
2020/01/31 21:45:14.4	93.290	-0.280	0.380	0.700
2020/01/31 21:45:14.5	93.310	-0.300	0.450	0.670
2020/01/31 21:45:14.6	93.320	-0.330	0.510	0.630
2020/01/31 21:45:14.7	93.340	-0.350	0.570	0.600
2020/01/31 21:45:14.8	93.360	-0.370	0.620	0.560
2020/01/31 21:45:14.9	93.380	-0.380	0.660	0.510
2020/01/31 21:45:15.0	93.400	-0.400	0.710	0.460
2020/01/31 21:45:15.1	93.430	-0.410	0.740	0.420
2020/01/31 21:45:15.2	93.460	-0.410	0.760	0.360
2020/01/31 21:45:15.3	93.480	-0.420	0.790	0.310
2020/01/31 21:45:15.4	93.520	-0.420	0.800	0.250
2020/01/31 21:45:15.5	93.550	-0.420	0.810	0.190
2020/01/31 21:45:15.6	93.580	-0.420	0.810	0.130
2020/01/31 21:45:15.7	93.620	-0.420	0.810	0.070
2020/01/31 21:45:15.8	93.650	-0.410	0.810	0.010
2020/01/31 21:45:15.9	93.690	-0.400	0.800	-0.050
2020/01/31 21:45:16.0	93.730	-0.390	0.780	-0.120
2020/01/31 21:45:16.1	93.770	-0.370	0.770	-0.180
2020/01/31 21:45:16.2	93.810	-0.360	0.750	-0.240
2020/01/31 21:45:16.3	93.840	-0.340	0.720	-0.300
2020/01/31 21:45:16.4	93.880	-0.320	0.700	-0.360
2020/01/31 21:45:16.5	93.910	-0.300	0.670	-0.420
2020/01/31 21:45:16.6	93.940	-0.280	0.640	-0.470
2020/01/31 21:45:16.7	93.970	-0.260	0.600	-0.530
2020/01/31 21:45:16.8	94.000	-0.230	0.570	-0.580
2020/01/31 21:45:16.9	94.030	-0.210	0.530	-0.630
2020/01/31 21:45:17.0	94.060	-0.180	0.500	-0.670
2020/01/31 21:45:17.1	94.080	-0.160	0.460	-0.720
2020/01/31 21:45:17.2	94.100	-0.130	0.420	-0.760
2020/01/31 21:45:17.3	94.120	-0.110	0.380	-0.800
2020/01/31 21:45:17.4	94.140	-0.080	0.340	-0.840
2020/01/31 21:45:17.5	94.160	-0.060	0.300	-0.870
2020/01/31 21:45:17.6	94.180	-0.040	0.260	-0.900
2020/01/31 21:45:17.7	94.190	-0.010	0.220	-0.930
2020/01/31 21:45:17.8	94.200	0.010	0.180	-0.960
2020/01/31 21:45:17.9	94.210	0.030	0.130	-0.980
2020/01/31 21:45:18.0	94.200	0.050	0.090	-1.010
2020/01/31 21:45:18.1	94.210	0.080	0.040	-1.030
2020/01/31 21:45:18.2	94.220	0.100	-0.000	-1.050
2020/01/31 21:45:18.3	94.230	0.110	-0.050	-1.060
2020/01/31 21:45:18.4	94.230	0.130	-0.090	-1.070
2020/01/31 21:45:18.5	94.240	0.150	-0.140	-1.080
2020/01/31 21:45:18.6	94.240	0.170	-0.190	-1.090
2020/01/31 21:45:18.7	94.250	0.180	-0.240	-1.090
2020/01/31 21:45:18.8	94.250	0.200	-0.290	-1.090
2020/01/31 21:45:18.9	94.260	0.210	-0.340	-1.090
2020/01/31 21:45:19.0	94.260	0.220	-0.390	-1.090
2020/01/31 21:45:19.1	94.270	0.230	-0.440	-1.080
2020/01/31 21:45:19.2	94.270	0.240	-0.490	-1.070
2020/01/31 21:45:19.3	94.280	0.250	-0.540	-1.060
2020/01/31 21:45:19.4	94.280	0.260	-0.600	-1.040
2020/01/31 21:45:19.5	94.290	0.270	-0.650	-1.020
2020/01/31 21:45:19.6	94.290	0.280	-0.700	-0.990
2020/01/31 21:45:19.7	94.300	0.290	-0.750	-0.970
2020/01/31 21:45:19.8	94.310	0.290	-0.800	-0.930
2020/01/31 21:45:19.9	94.310	0.300	-0.850	-0.900
2020/01/31 21:45:20.0	94.320	0.300	-0.900	-0.860
2020/01/31 21:45:20.1	94.320	0.310	-0.950	-0.820
2020/01/31 21:45:20.2	94.330	0.310	-0.990	-0.770
2020/01/31 21:45:20.3	94.340	0.310	-1.040	-0.720
2020/01/31 21:45:20.4	94.340	0.310	-1.070	-0.660
2020/01/31 21:45:20.5	94.350	0.310	-1.110	-0.610
2020/01/31 21:45:20.6	94.350	0.310	-1.140	-0.540
2020/01/31 21:45:20.7	94.360	0.310	-1.170	-0.480
2020/01/31 21:45:20.8	94.360	0.310	-1.190	-0.410
2020/01/31 21:45:20.9	94.370	0.300	-1.200	-0.340
2020/01/31 21:45:21.0	94.370	0.300	-1.210	-0.270
2020/01/31 21:45:21.1	94.370	0.290	-1.220	-0.190
2020/01/31 21:45:21.2	94.380	0.280	-1.220	-0.110
2020/01/31 21:45:21.3	94.380	0.270	-1.210	-0.030
2020/01/31 21:45:21.4	94.390	0.260	-1.200	0.050
2020/01/31 21:45:21.5	94.390	0.250	-1.180	0.130
2020/01/31 21:45:21.6	94.400	0.230	-1.150	0.210
2020/01/31 21:45:21.7	94.400	0.220	-1.120	0.300
2020/01/31 21:45:21.8	94.410	0.200	-1.080	0.380
2020/01/31 21:45:21.9	94.410	0.180	-1.040	0.470
2020/01/31 21:45:22.0	94.430	0.160	-0.990	0.560
2020/01/31 21:45:22.1	94.430	0.140	-0.940	0.650
2020/01/31 21:45:22.2	94.440	0.120	-0.880	0.730
2020/01/31 21:45:22.3	94.440	0.100	-0.820	0.820
2020/01/31 21:45:22.4	94.440	0.070	-0.750	0.900
2020/01/31 21:45:22.5	94.440	0.050	-0.680	0.980
2020/01/31 21:45:22.6	94.440	0.020	-0.610	1.060
2020/01/31 21:45:22.7	94.440	-0.000	-0.540	1.140
2020/01/31 21:45:22.8	94.440	-0.030	-0.460	1.210
2020/01/31 21:45:22.9	94.450	-0.060	-0.380	1.290
2020/01/31 21:45:23.0	94.440	-0.080	-0.300	1.360
2020/01/31 21:45:23.1	94.440	-0.110	-0.220	1.420
2020/01/31 21:45:23.2	94.440	-0.130	-0.150	1.490
2020/01/31 21:45:23.3	94.440	-0.160	-0.070	1.550
2020/01/31 21:45:23.4	94.440	-0.180	0.000	1.600
2020/01/31 21:45:23.5	94.440	-0.210	0.080	1.660
2020/01/31 21:45:23.6	94.440	-0.230	0.150	1.710
2020/01/31 21:45:23.7	94.440	-0.250	0.220	1.750
2020/01/31 21:45:23.8	94.440	-0.270	0.290	1.790
2020/01/31 21:45:23.9	94.440	-0.290	0.350	1.830
2020/01/31 21:45:24.0	94.450	-0.310	0.410	1.860
2020/01/31 21:45:24.1	94.450	-0.320	0.460	1.880
2020/01/31 21:45:24.2	94.450	-0.340	0.510	1.900
2020/01/31 21:45:24.3	94.450	-0.350	0.560	1.920
2020/01/31 21:45:24.4	94.460	-0.360	0.600	1.930
2020/01/31 21:45:24.5	94.460	-0.370	0.630	1.930
2020/01/31 21:45:24.6	94.470	-0.380	0.660	1.920
2020/01/31 21:45:24.7	94.480	-0.380	0.690	1.920
2020/01/31 21:45:24.8	94.490	-0.380	0.710	1.900
2020/01/31 21:45:24.9	94.500	-0.380	0.730	1.880
2020/01/31 21:45:25.0	94.500	-0.380	0.730	1.850
2020/01/31 21:45:25.1	94.520	-0.370	0.740	1.820
2020/01/31 21:45:25.2	94.530	-0.370	0.740	1.780
2020/01/31 21:45:25.3	94.550	-0.360	0.730	1.730
2020/01/31 21:45:25.4	94.570	-0.350	0.720	1.680
2020/01/31 21:45:25.5	94.590	-0.330	0.700	1.630
2020/01/31 21:45:25.6	94.620	-0.320	0.680	1.560
2020/01/31 21:45:25.7	94.640	-0.300	0.650	1.500
2020/01/31 21:45:25.8	94.670	-0.280	0.620	1.430
2020/01/31 21:45:25.9	94.690	-0.260	0.590	1.360
2020/01/31 21:45:26.0	94.740	-0.240	0.550	1.280
2020/01/31 21:45:26.1	94.770	-0.220	0.510	1.200
2020/01/31 21:45:26.2	94.800	-0.190	0.460	1.110
2020/01/31 21:45:26.3	94.830	-0.170	0.410	1.030
2020/01/31 21:45:26.4	94.860	-0.140	0.360	0.940
2020/01/31 21:45:26.5	94.890	-0.120	0.310	0.850
2020/01/31 21:45:26.6	94.920	-0.090	0.260	0.750
2020/01/31 21:45:26.7	94.950	-0.060	0.200	0.660
2020/01/31 21:45:26.8	94.990	-0.030	0.140	0.560
2020/01/31 21:45:26.9	95.020	-0.000	0.090	0.460
2020/01/31 21:45:27.0	95.050	0.020	0.030	0.370
2020/01/31 21:45:27.1	95.080	0.050	-0.030	0.270
2020/01/31 21:45:27.2	95.110	0.080	-0.090	0.170
2020/01/31 21:45:27.3	95.140	0.110	-0.150	0.070
2020/01/31 21:45:27.4	95.170	0.130	-0.200	-0.020
2020/01/31 21:45:27.5	95.200	0.160	-0.260	-0.120
2020/01/31 21:45:27.6	95.230	0.180	-0.310	-0.210
2020/01/31 21:45:27.7	95.250	0.210	-0.360	-0.300
2020/01/31 21:45:27.8	95.280	0.230	-0.410	-0.390
2020/01/31 21:45:27.9	95.300	0.250	-0.450	-0.470
2020/01/31 21:45:28.0	95.330	0.270	-0.500	-0.560
2020/01/31 21:45:28.1	95.350	0.290	-0.540	-0.630
2020/01/31 21:45:28.2	95.370	0.300	-0.580	-0.710
2020/01/31 21:45:28.3	95.390	0.320	-0.610	-0.780
2020/01/31 21:45:28.4	95.400	0.330	-0.640	-0.840
2020/01/31 21:45:28.5	95.410	0.340	-0.660	-0.900
2020/01/31 21:45:28.6	95.420	0.340	-0.690	-0.960
2020/01/31 21:45:28.7	95.430	0.350	-0.710	-1.010
2020/01/31 21:45:28.8	95.430	0.350	-0.720	-1.050
2020/01/31 21:45:28.9	95.430	0.350	-0.730	-1.090
2020/01/31 21:45:29.0	95.440	0.350	-0.730	-1.130
2020/01/31 21:45:29.1	95.430	0.340	-0.740	-1.150
2020/01/31 21:45:29.2	95.420	0.340	-0.730	-1.180
2020/01/31 21:45:29.3	95.410	0.330	-0.730	-1.190
2020/01/31 21:45:29.4	95.400	0.310	-0.710	-1.200
2020/01/31 21:45:29.5	95.380	0.300	-0.700	-1.210
2020/01/31 21:45:29.6	95.360	0.280	-0.680	-1.210
2020/01/31 21:45:29.7	95.340	0.260	-0.650	-1.210
2020/01/31 21:45:29.8	95.320	0.240	-0.630	-1.200
2020/01/31 21:45:29.9	95.290	0.220	-0.590	-1.190
2020/01/31 21:45:30.0	95.250	0.190	-0.560	-1.170
2020/01/31 21:45:30.1	95.220	0.160	-0.520	-1.150
2020/01/31 21:45:30.2	95.190	0.130	-0.480	-1.130
2020/01/31 21:45:30.3	95.160	0.100	-0.440	-1.100
2020/01/31 21:45:30.4	95.120	0.070	-0.390	-1.070
2020/01/31 21:45:30.5	95.090	0.030	-0.340	-1.040
2020/01/31 21:45:30.6	95.050	-0.000	-0.300	-1.000
2020/01/31 21:45:30.7	95.010	-0.040	-0.250	-0.960
2020/01/31 21:45:30.8	94.980	-0.070	-0.200	-0.920
2020/01/31 21:45:30.9	94.940	-0.110	-0.150	-0.880
2020/01/31 21:45:31.0	94.900	-0.140	-0.100	-0.830
2020/01/31 21:45:31.1	94.870	-0.180	-0.060	-0.790
2020/01/31 21:45:31.2	94.830	-0.210	-0.010	-0.740
2020/01/31 21:45:31.3	94.800	-0.250	0.030	-0.690
2020/01/31 21:45:31.4	94.760	-0.280	0.070	-0.640
2020/01/31 21:45:31.5	94.730	-0.310	0.110	-0.600
2020/01/31 21:45:31.6	94.700	-0.340	0.140	-0.550
2020/01/31 21:45:31.7	94.680	-0.370	0.170	-0.510
2020/01/31 21:45:31.8	94.650	-0.400	0.190	-0.460
2020/01/31 21:45:31.9	94.630	-0.420	0.210	-0.420
2020/01/31 21:45:32.0	94.600	-0.440	0.230	-0.380
2020/01/31 21:45:32.1	94.580	-0.460	0.240	-0.340
2020/01/31 21:45:32.2	94.570	-0.470	0.240	-0.310
2020/01/31 21:45:32.3	94.560	-0.480	0.240	-0.270
2020/01/31 21:45:32.4	94.560	-0.490	0.230	-0.240
2020/01/31 21:45:32.5	94.560	-0.490	0.220	-0.220
2020/01/31 21:45:32.6	94.570	-0.490	0.210	-0.200
2020/01/31 21:45:32.7	94.570	-0.490	0.180	-0.170
2020/01/31 21:45:32.8	94.590	-0.480	0.160	-0.160
2020/01/31 21:45:32.9	94.600	-0.470	0.120	-0.140
2020/01/31 21:45:33.0	94.610	-0.450	0.090	-0.130
2020/01/31 21:45:33.1	94.630	-0.430	0.050	-0.120
2020/01/31 21:45:33.2	94.660	-0.410	0.010	-0.120
2020/01/31 21:45:33.3	94.690	-0.390	-0.040	-0.110
2020/01/31 21:45:33.4	94.720	-0.360	-0.080	-0.110
2020/01/31 21:45:33.5	94.760	-0.330	-0.130	-0.100
2020/01/31 21:45:33.6	94.790	-0.290	-0.180	-0.100
2020/01/31 21:45:33.7	94.830	-0.260	-0.230	-0.100
2020/01/31 21:45:33.8	94.870	-0.220	-0.280	-0.100
2020/01/31 21:45:33.9	94.910	-0.180	-0.330	-0.100
2020/01/31 21:45:34.0	94.960	-0.140	-0.380	-0.100
2020/01/31 21:45:34.1	95.000	-0.090	-0.430	-0.100
2020/01/31 21:45:34.2	95.050	-0.050	-0.470	-0.090
2020/01/31 21:45:34.3	95.090	-0.010	-0.510	-0.090
2020/01/31 21:45:34.4	95.130	0.040	-0.550	-0.080
2020/01/31 21:45:34.5	95.170	0.080	-0.580	-0.070
2020/01/31 21:45:34.6	95.210	0.130	-0.620	-0.060
2020/01/31 21:45:34.7	95.250	0.170	-0.640	-0.040
2020/01/31 21:45:34.8	95.290	0.210	-0.670	-0.030
2020/01/31 21:45:34.9	95.320	0.250	-0.680	-0.010
2020/01/31 21:45:35.0	95.340	0.290	-0.690	0.020
2020/01/31 21:45:35.1	95.370	0.320	-0.700	0.050
2020/01/31 21:45:35.2	95.400	0.360	-0.710	0.080
2020/01/31 21:45:35.3	95.420	0.390	-0.710	0.110
2020/01/31 21:45:35.4	95.440	0.410	-0.700	0.150
2020/01/31 21:45:35.5	95.460	0.440	-0.690	0.190
2020/01/31 21:45:35.6	95.470	0.460	-0.670	0.240
2020/01/31 21:45:35.7	95.480	0.480	-0.650	0.290
2020/01/31 21:45:35.8	95.490	0.500	-0.630	0.340
2020/01/31 21:45:35.9	95.490	0.510	-0.600	0.390
2020/01/31 21:45:36.0	95.500	0.520	-0.570	0.440
2020/01/31 21:45:36.1	95.490	0.520	-0.540	0.500
2020/01/31 21:45:36.2	95.490	0.520	-0.510	0.560
2020/01/31 21:45:36.3	95.480	0.520	-0.470	0.620
2020/01/31 21:45:36.4	95.460	0.520	-0.430	0.680
2020/01/31 21:45:36.5	95.450	0.510	-0.390	0.740
2020/01/31 21:45:36.6	95.430	0.500	-0.340	0.800
2020/01/31 21:45:36.7	95.400	0.480	-0.300	0.870
2020/01/31 21:45:36.8	95.380	0.460	-0.260	0.930
2020/01/31 21:45:36.9	95.350	0.440	-0.220	0.990
2020/01/31 21:45:37.0	95.320	0.420	-0.170	1.060
2020/01/31 21:45:37.1	95.280	0.390	-0.130	1.120
2020/01/31 21:45:37.2	95.250	0.360	-0.090	1.180
2020/01/31 21:45:37.3	95.210	0.330	-0.050	1.240
2020/01/31 21:45:37.4	95.160	0.300	-0.010	1.290
2020/01/31 21:45:37.5	95.120	0.270	0.020	1.350
2020/01/31 21:45:37.6	95.070	0.230	0.060	1.400
2020/01/31 21:45:37.7	95.030	0.190	0.090	1.450
2020/01/31 21:45:37.8	94.980	0.150	0.120	1.500
2020/01/31 21:45:37.9	94.930	0.120	0.150	1.550
2020/01/31 21:45:38.0	94.880	0.080	0.170	1.590
2020/01/31 21:45:38.1	94.830	0.040	0.200	1.630
2020/01/31 21:45:38.2	94.780	-0.000	0.210	1.660
2020/01/31 21:45:38.3	94.730	-0.040	0.230	1.690
2020/01/31 21:45:38.4	94.680	-0.080	0.240	1.720
2020/01/31 21:45:38.5	94.640	-0.120	0.250	1.740
2020/01/31 21:45:38.6	94.590	-0.160	0.260	1.760
2020/01/31 21:45:38.7	94.550	-0.190	0.260	1.770
2020/01/31 21:45:38.8	94.510	-0.230	0.260	1.770
2020/01/31 21:45:38.9	94.470	-0.260	0.260	1.780
2020/01/31 21:45:39.0	94.430	-0.290	0.250	1.770
2020/01/31 21:45:39.1	94.400	-0.320	0.250	1.760
2020/01/31 21:45:39.2	94.370	-0.350	0.240	1.740
2020/01/31 21:45:39.3	94.350	-0.380	0.220	1.720
2020/01/31 21:45:39.4	94.330	-0.400	0.210	1.700
2020/01/31 21:45:39.5	94.310	-0.420	0.200	1.660
2020/01/31 21:45:39.6	94.290	-0.440	0.180	1.630
2020/01/31 21:45:39.7	94.280	-0.460	0.160	1.580
2020/01/31 21:45:39.8	94.270	-0.470	0.140	1.530
2020/01/31 21:45:39.9	94.270	-0.480	0.120	1.480
2020/01/31 21:45:40.0	94.270	-0.490	0.100	1.420
2020/01/31 21:45:40.1	94.270	-0.500	0.080	1.350
2020/01/31 21:45:40.2	94.280	-0.500	0.060	1.280
2020/01/31 21:45:40.3	94.290	-0.500	0.030	1.200
2020/01/31 21:45:40.4	94.300	-0.500	0.010	1.120
2020/01/31 21:45:40.5	94.320	-0.490	-0.010	1.040
2020/01/31 21:45:40.6	94.340	-0.480	-0.040	0.950
2020/01/31 21:45:40.7	94.360	-0.470	-0.060	0.850
2020/01/31 21:45:40.8	94.380	-0.450	-0.090	0.750
2020/01/31 21:45:40.9	94.410	-0.430	-0.120	0.650
2020/01/31 21:45:41.0	94.440	-0.410	-0.140	0.550
2020/01/31 21:45:41.1	94.470	-0.390	-0.170	0.440
2020/01/31 21:45:41.2	94.510	-0.360	-0.200	0.330
2020/01/31 21:45:41.3	94.540	-0.330	-0.220	0.230
2020/01/31 21:45:41.4	94.580	-0.300	-0.250	0.120
2020/01/31 21:45:41.5	94.610	-0.270	-0.280	0.010
2020/01/31 21:45:41.6	94.650	-0.240	-0.310	-0.100
2020/01/31 21:45:41.7	94.690	-0.200	-0.330	-0.210
2020/01/31 21:45:41.8	94.730	-0.160	-0.360	-0.320
2020/01/31 21:45:41.9	94.770	-0.120	-0.390	-0.420
2020/01/31 21:45:42.0	94.790	-0.080	-0.410	-0.520
2020/01/31 21:45:42.1	94.830	-0.040	-0.440	-0.620
2020/01/31 21:45:42.2	94.870	-0.000	-0.460	-0.710
2020/01/31 21:45:42.3	94.900	0.040	-0.480	-0.810
2020/01/31 21:45:42.4	94.930	0.080	-0.500	-0.890
2020/01/31 21:45:42.5	94.960	0.110	-0.510	-0.970
2020/01/31 21:45:42.6	94.990	0.150	-0.520	-1.050
2020/01/31 21:45:42.7	95.020	0.190	-0.530	-1.120
2020/01/31 21:45:42.8	95.040	0.220	-0.540	-1.180
2020/01/31 21:45:42.9	95.070	0.250	-0.540	-1.240
2020/01/31 21:45:43.0	95.080	0.280	-0.540	-1.300
2020/01/31 21:45:43.1	95.100	0.310	-0.530	-1.350
2020/01/31 21:45:43.2	95.110	0.330	-0.530	-1.390
2020/01/31 21:45:43.3	95.120	0.350	-0.520	-1.420
2020/01/31 21:45:43.4	95.120	0.370	-0.500	-1.450
2020/01/31 21:45:43.5	95.130	0.390	-0.490	-1.470
2020/01/31 21:45:43.6	95.120	0.400	-0.460	-1.480
2020/01/31 21:45:43.7	95.120	0.410	-0.440	-1.480
2020/01/31 21:45:43.8	95.110	0.410	-0.410	-1.480
2020/01/31 21:45:43.9	95.100	0.410	-0.380	-1.470
2020/01/31 21:45:44.0	95.080	0.410	-0.350	-1.460
2020/01/31 21:45:44.1	95.060	0.400	-0.320	-1.440
2020/01/31 21:45:44.2	95.040	0.400	-0.280	-1.410
2020/01/31 21:45:44.3	95.020	0.380	-0.240	-1.370
2020/01/31 21:45:44.4	94.990	0.370	-0.200	-1.340
2020/01/31 21:45:44.5	94.970	0.350	-0.160	-1.290
2020/01/31 21:45:44.6	94.930	0.330	-0.120	-1.240
2020/01/31 21:45:44.7	94.900	0.310	-0.090	-1.190
2020/01/31 21:45:44.8	94.870	0.290	-0.050	-1.130
2020/01/31 21:45:44.9	94.830	0.260	-0.010	-1.070
2020/01/31 21:45:45.0	94.800	0.240	0.020	-1.000
2020/01/31 21:45:45.1	94.760	0.210	0.050	-0.940
2020/01/31 21:45:45.2	94.720	0.180	0.080	-0.870
2020/01/31 21:45:45.3	94.680	0.160	0.100	-0.790
2020/01/31 21:45:45.4	94.640	0.130	0.120	-0.720
2020/01/31 21:45:45.5	94.600	0.100	0.130	-0.650
2020/01/31 21:45:45.6	94.560	0.070	0.140	-0.570
2020/01/31 21:45:45.7	94.520	0.050	0.150	-0.490
2020/01/31 21:45:45.8	94.480	0.020	0.150	-0.420
2020/01/31 21:45:45.9	94.440	0.000	0.150	-0.340
2020/01/31 21:45:46.0	94.410	-0.020	0.140	-0.270
2020/01/31 21:45:46.1	94.370	-0.040	0.130	-0.190
2020/01/31 21:45:46.2	94.340	-0.050	0.110	-0.120
2020/01/31 21:45:46.3	94.310	-0.070	0.090	-0.050
2020/01/31 21:45:46.4	94.280	-0.080	0.060	0.020
2020/01/31 21:45:46.5	94.260	-0.090	0.030	0.090
2020/01/31 21:45:46.6	94.240	-0.100	-0.000	0.160
2020/01/31 21:45:46.7	94.220	-0.100	-0.040	0.220
2020/01/31 21:45:46.8	94.200	-0.100	-0.080	0.280
2020/01/31 21:45:46.9	94.190	-0.100	-0.120	0.340
2020/01/31 21:45:47.0	94.170	-0.100	-0.160	0.390
2020/01/31 21:45:47.1	94.160	-0.100	-0.200	0.440
2020/01/31 21:45:47.2	94.160	-0.090	-0.240	0.490
2020/01/31 21:45:47.3	94.150	-0.080	-0.280	0.530
2020/01/31 21:45:47.4	94.150	-0.070	-0.320	0.570
2020/01/31 21:45:47.5	94.150	-0.060	-0.360	0.610
2020/01/31 21:45:47.6	94.150	-0.050	-0.400	0.650
2020/01/31 21:45:47.7	94.160	-0.040	-0.430	0.680
2020/01/31 21:45:47.8	94.160	-0.020	-0.460	0.720
2020/01/31 21:45:47.9	94.170	-0.010	-0.490	0.740
2020/01/31 21:45:48.0	94.190	0.010	-0.510	0.770
2020/01/31 21:45:48.1	94.190	0.020	-0.530	0.800
2020/01/31 21:45:48.2	94.200	0.030	-0.540	0.820
2020/01/31 21:45:48.3	94.210	0.040	-0.550	0.850
2020/01/31 21:45:48.4	94.220	0.050	-0.560	0.870
2020/01/31 21:45:48.5	94.230	0.060	-0.560	0.890
2020/01/31 21:45:48.6	94.240	0.070	-0.560	0.910
2020/01/31 21:45:48.7	94.250	0.080	-0.550	0.920
2020/01/31 21:45:48.8	94.260	0.090	-0.540	0.940
2020/01/31 21:45:48.9	94.270	0.090	-0.530	0.960
2020/01/31 21:45:49.0	94.280	0.090	-0.510	0.970
2020/01/31 21:45:49.1	94.290	0.090	-0.480	0.980
2020/01/31 21:45:49.2	94.300	0.090	-0.460	1.000
2020/01/31 21:45:49.3	94.310	0.090	-0.430	1.010
2020/01/31 21:45:49.4	94.320	0.080	-0.410	1.020
2020/01/31 21:45:49.5	94.330	0.070	-0.380	1.030
2020/01/31 21:45:49.6	94.330	0.060	-0.340	1.040
2020/01/31 21:45:49.7	94.340	0.050	-0.310	1.050
2020/01/31 21:45:49.8	94.350	0.040	-0.280	1.060
2020/01/31 21:45:49.9	94.350	0.030	-0.240	1.080
2020/01/31 21:45:50.0	94.360	0.010	-0.200	1.080
2020/01/31 21:45:50.1	94.360	-0.000	-0.170	1.100
2020/01/31 21:45:50.2	94.360	-0.020	-0.130	1.110
2020/01/31 21:45:50.3	94.360	-0.040	-0.100	1.130
2020/01/31 21:45:50.4	94.360	-0.050	-0.060	1.140
2020/01/31 21:45:50.5	94.360	-0.070	-0.030	1.160
2020/01/31 21:45:50.6	94.350	-0.090	0.010	1.170
2020/01/31 21:45:50.7	94.340	-0.110	0.040	1.190
2020/01/31 21:45:50.8	94.340	-0.130	0.070	1.200
2020/01/31 21:45:50.9	94.330	-0.140	0.100	1.220
2020/01/31 21:45:51.0	94.330	-0.160	0.130	1.230
2020/01/31 21:45:51.1	94.320	-0.170	0.150	1.250
2020/01/31 21:45:51.2	94.310	-0.190	0.180	1.260
2020/01/31 21:45:51.3	94.290	-0.200	0.200	1.270
2020/01/31 21:45:51.4	94.280	-0.220	0.220	1.280
2020/01/31 21:45:51.5	94.270	-0.230	0.240	1.280
2020/01/31 21:45:51.6	94.250	-0.240	0.250	1.290
2020/01/31 21:45:51.7	94.240	-0.240	0.260	1.290
2020/01/31 21:45:51.8	94.220	-0.250	0.270	1.290
2020/01/31 21:45:51.9	94.210	-0.250	0.280	1.290
2020/01/31 21:45:52.0	94.180	-0.260	0.280	1.280
2020/01/31 21:45:52.1	94.160	-0.260	0.280	1.270
2020/01/31 21:45:52.2	94.150	-0.260	0.280	1.270
2020/01/31 21:45:52.3	94.130	-0.250	0.270	1.250
2020/01/31 21:45:52.4	94.110	-0.250	0.260	1.240
2020/01/31 21:45:52.5	94.100	-0.240	0.250	1.230
2020/01/31 21:45:52.6	94.080	-0.230	0.240	1.210
2020/01/31 21:45:52.7	94.060	-0.220	0.220	1.190
2020/01/31 21:45:52.8	94.050	-0.210	0.200	1.160
2020/01/31 21:45:52.9	94.030	-0.200	0.180	1.140
2020/01/31 21:45:53.0	94.010	-0.190	0.150	1.110
2020/01/31 21:45:53.1	94.000	-0.170	0.130	1.080
2020/01/31 21:45:53.2	93.980	-0.160	0.100	1.050
2020/01/31 21:45:53.3	93.970	-0.140	0.070	1.010
2020/01/31 21:45:53.4	93.960	-0.120	0.040	0.970
2020/01/31 21:45:53.5	93.940	-0.100	0.010	0.930
2020/01/31 21:45:53.6	93.930	-0.080	-0.030	0.890
2020/01/31 21:45:53.7	93.920	-0.060	-0.060	0.850
2020/01/31 21:45:53.8	93.910	-0.040	-0.100	0.800
2020/01/31 21:45:53.9	93.900	-0.020	-0.140	0.760
2020/01/31 21:45:54.0	93.900	-0.000	-0.180	0.710
2020/01/31 21:45:54.1	93.890	0.020	-0.220	0.660
2020/01/31 21:45:54.2	93.880	0.040	-0.250	0.610
2020/01/31 21:45:54.3	93.870	0.060	-0.290	0.560
2020/01/31 21:45:54.4	93.860	0.080	-0.330	0.510
2020/01/31 21:45:54.5	93.850	0.100	-0.370	0.460
2020/01/31 21:45:54.6	93.840	0.120	-0.410	0.420
2020/01/31 21:45:54.7	93.830	0.140	-0.450	0.370
2020/01/31 21:45:54.8	93.820	0.150	-0.490	0.320
2020/01/31 21:45:54.9	93.810	0.170	-0.520	0.280
2020/01/31 21:45:55.0	93.800	0.180	-0.560	0.230
2020/01/31 21:45:55.1	93.790	0.200	-0.590	0.190
2020/01/31 21:45:55.2	93.770	0.210	-0.620	0.140
2020/01/31 21:45:55.3	93.760	0.220	-0.650	0.100
2020/01/31 21:45:55.4	93.750	0.230	-0.680	0.060
2020/01/31 21:45:55.5	93.730	0.240	-0.700	0.020
2020/01/31 21:45:55.6	93.720	0.250	-0.730	-0.020
2020/01/31 21:45:55.7	93.700	0.260	-0.750	-0.060
2020/01/31 21:45:55.8	93.690	0.260	-0.760	-0.090
2020/01/31 21:45:55.9	93.680	0.270	-0.780	-0.130
2020/01/31 21:45:56.0	93.670	0.270	-0.790	-0.160
2020/01/31 21:45:56.1	93.660	0.270	-0.790	-0.200
2020/01/31 21:45:56.2	93.650	0.270	-0.800	-0.230
2020/01/31 21:45:56.3	93.640	0.270	-0.800	-0.270
2020/01/31 21:45:56.4	93.630	0.270	-0.810	-0.300
2020/01/31 21:45:56.5	93.630	0.270	-0.800	-0.330
2020/01/31 21:45:56.6	93.620	0.260	-0.800	-0.360
2020/01/31 21:45:56.7	93.620	0.250	-0.790	-0.400
2020/01/31 21:45:56.8	93.620	0.250	-0.780	-0.430
2020/01/31 21:45:56.9	93.620	0.240	-0.760	-0.460
2020/01/31 21:45:57.0	93.630	0.230	-0.750	-0.480
2020/01/31 21:45:57.1	93.630	0.220	-0.720	-0.510
2020/01/31 21:45:57.2	93.640	0.210	-0.700	-0.540
2020/01/31 21:45:57.3	93.650	0.200	-0.670	-0.560
2020/01/31 21:45:57.4	93.670	0.190	-0.640	-0.590
2020/01/31 21:45:57.5	93.680	0.170	-0.610	-0.610
2020/01/31 21:45:57.6	93.690	0.160	-0.570	-0.620
2020/01/31 21:45:57.7	93.710	0.140	-0.540	-0.640
2020/01/31 21:45:57.8	93.720	0.130	-0.490	-0.650
2020/01/31 21:45:57.9	93.740	0.110	-0.450	-0.660
2020/01/31 21:45:58.0	93.750	0.090	-0.400	-0.670
2020/01/31 21:45:58.1	93.760	0.080	-0.350	-0.670
2020/01/31 21:45:58.2	93.770	0.060	-0.290	-0.670
2020/01/31 21:45:58.3	93.790	0.040	-0.240	-0.660
2020/01/31 21:45:58.4	93.790	0.020	-0.180	-0.650
2020/01/31 21:45:58.5	93.800	-0.000	-0.120	-0.640
2020/01/31 21:45:58.6	93.800	-0.020	-0.060	-0.630
2020/01/31 21:45:58.7	93.800	-0.040	-0.000	-0.610
2020/01/31 21:45:58.8	93.800	-0.060	0.060	-0.590
2020/01/31 21:45:58.9	93.800	-0.080	0.120	-0.570
2020/01/31 21:45:59.0	93.810	-0.110	0.180	-0.540
2020/01/31 21:45:59.1	93.800	-0.130	0.240	-0.510
2020/01/31 21:45:59.2	93.790	-0.150	0.300	-0.480
2020/01/31 21:45:59.3	93.770	-0.170	0.360	-0.450
2020/01/31 21:45:59.4	93.760	-0.190	0.420	-0.420
2020/01/31 21:45:59.5	93.740	-0.210	0.470	-0.390
2020/01/31 21:45:59.6	93.720	-0.230	0.520	-0.350
2020/01/31 21:45:59.7	93.690	-0.250	0.570	-0.320
2020/01/31 21:45:59.8	93.670	-0.270	0.620	-0.290
2020/01/31 21:45:59.9	93.640	-0.290	0.660	-0.250
2020/01/31 21:46:00.0	93.610	-0.300	0.700	-0.220
2020/01/31 21:46:00.1	93.590	-0.320	0.740	-0.180
2020/01/31 21:46:00.2	93.560	-0.330	0.770	-0.150
2020/01/31 21:46:00.3	93.530	-0.340	0.800	-0.120
2020/01/31 21:46:00.4	93.500	-0.350	0.810	-0.090
2020/01/31 21:46:00.5	93.470	-0.360	0.830	-0.060
2020/01/31 21:46:00.6	93.440	-0.370	0.840	-0.030
2020/01/31 21:46:00.7	93.420	-0.370	0.840	0.000
2020/01/31 21:46:00.8	93.390	-0.370	0.830	0.030
2020/01/31 21:46:00.9	93.370	-0.370	0.820	0.060
2020/01/31 21:46:01.0	93.340	-0.370	0.800	0.090
2020/01/31 21:46:01.1	93.320	-0.370	0.780	0.110
2020/01/31 21:46:01.2	93.300	-0.360	0.740	0.140
2020/01/31 21:46:01.3	93.280	-0.350	0.710	0.160
2020/01/31 21:46:01.4	93.270	-0.340	0.660	0.180
2020/01/31 21:46:01.5	93.260	-0.330	0.610	0.200
2020/01/31 21:46:01.6	93.250	-0.310	0.560	0.220
2020/01/31 21:46:01.7	93.240	-0.290	0.500	0.240
2020/01/31 21:46:01.8	93.230	-0.280	0.430	0.260
2020/01/31 21:46:01.9	93.230	-0.250	0.360	0.280
2020/01/31 21:46:02.0	93.220	-0.230	0.280	0.290
2020/01/31 21:46:02.1	93.220	-0.210	0.210	0.310
2020/01/31 21:46:02.2	93.220	-0.180	0.130	0.320
2020/01/31 21:46:02.3	93.230	-0.150	0.040	0.340
2020/01/31 21:46:02.4	93.230	-0.120	-0.040	0.350
2020/01/31 21:46:02.5	93.240	-0.090	-0.130	0.370
2020/01/31 21:46:02.6	93.240	-0.060	-0.210	0.380
2020/01/31 21:46:02.7	93.250	-0.030	-0.300	0.390
2020/01/31 21:46:02.8	93.260	-0.000	-0.380	0.400
2020/01/31 21:46:02.9	93.270	0.030	-0.470	0.420
2020/01/31 21:46:03.0	93.270	0.060	-0.550	0.420
2020/01/31 21:46:03.1	93.280	0.090	-0.620	0.430
2020/01/31 21:46:03.2	93.290	0.120	-0.700	0.450
2020/01/31 21:46:03.3	93.300	0.150	-0.770	0.460
2020/01/31 21:46:03.4	93.310	0.180	-0.840	0.470
2020/01/31 21:46:03.5	93.330	0.200	-0.900	0.480
2020/01/31 21:46:03.6	93.340	0.230	-0.950	0.490
2020/01/31 21:46:03.7	93.350	0.250	-1.010	0.500
2020/01/31 21:46:03.8	93.360	0.280	-1.050	0.510
2020/01/31 21:46:03.9	93.370	0.300	-1.090	0.530
2020/01/31 21:46:04.0	93.380	0.320	-1.120	0.540
2020/01/31 21:46:04.1	93.390	0.330	-1.150	0.560
2020/01/31 21:46:04.2	93.400	0.350	-1.170	0.570
2020/01/31 21:46:04.3	93.410	0.360	-1.180	0.590
2020/01/31 21:46:04.4	93.410	0.370	-1.190	0.610
2020/01/31 21:46:04.5	93.410	0.380	-1.190	0.630
2020/01/31 21:46:04.6	93.410	0.380	-1.180	0.650
2020/01/31 21:46:04.7	93.410	0.380	-1.170	0.670
2020/01/31 21:46:04.8	93.410	0.390	-1.150	0.700
2020/01/31 21:46:04.9	93.410	0.380	-1.120	0.720
2020/01/31 21:46:05.0	93.410	0.380	-1.090	0.750
2020/01/31 21:46:05.1	93.400	0.380	-1.060	0.780
2020/01/31 21:46:05.2	93.390	0.370	-1.020	0.820
2020/01/31 21:46:05.3	93.380	0.360	-0.970	0.850
2020/01/31 21:46:05.4	93.370	0.350	-0.920	0.890
2020/01/31 21:46:05.5	93.350	0.340	-0.870	0.930
2020/01/31 21:46:05.6	93.340	0.320	-0.810	0.970
2020/01/31 21:46:05.7	93.320	0.310	-0.750	1.010
2020/01/31 21:46:05.8	93.310	0.290	-0.690	1.050
2020/01/31 21:46:05.9	93.290	0.280	-0.630	1.090
2020/01/31 21:46:06.0	93.270	0.260	-0.570	1.140
2020/01/31 21:46:06.1	93.250	0.240	-0.500	1.190
2020/01/31 21:46:06.2	93.230	0.220	-0.440	1.230
2020/01/31 21:46:06.3	93.210	0.210	-0.380	1.270
2020/01/31 21:46:06.4	93.190	0.190	-0.320	1.320
2020/01/31 21:46:06.5	93.170	0.170	-0.260	1.360
2020/01/31 21:46:06.6	93.150	0.150	-0.210	1.400
2020/01/31 21:46:06.7	93.130	0.140	-0.160	1.440
2020/01/31 21:46:06.8	93.120	0.120	-0.110	1.480
2020/01/31 21:46:06.9	93.100	0.110	-0.070	1.510
2020/01/31 21:46:07.0	93.080	0.090	-0.030	1.540
2020/01/31 21:46:07.1	93.070	0.080	0.000	1.570
2020/01/31 21:46:07.2	93.050	0.070	0.030	1.600
2020/01/31 21:46:07.3	93.040	0.060	0.050	1.620
2020/01/31 21:46:07.4	93.030	0.050	0.070	1.640
2020/01/31 21:46:07.5	93.020	0.040	0.090	1.660
2020/01/31 21:46:07.6	93.010	0.030	0.100	1.670
2020/01/31 21:46:07.7	93.000	0.020	0.100	1.680
2020/01/31 21:46:07.8	93.000	0.020	0.100	1.690
2020/01/31 21:46:07.9	92.990	0.010	0.100	1.690
2020/01/31 21:46:08.0	92.980	0.010	0.100	1.700
2020/01/31 21:46:08.1	92.980	0.000	0.090	1.690
2020/01/31 21:46:08.2	92.970	0.000	0.080	1.690
2020/01/31 21:46:08.3	92.970	-0.000	0.080	1.680
2020/01/31 21:46:08.4	92.960	-0.010	0.070	1.670
2020/01/31 21:46:08.5	92.960	-0.010	0.060	1.650
2020/01/31 21:46:08.6	92.950	-0.010	0.050	1.630
2020/01/31 21:46:08.7	92.950	-0.020	0.050	1.610
2020/01/31 21:46:08.8	92.950	-0.020	0.040	1.590
2020/01/31 21:46:08.9	92.940	-0.030	0.050	1.560
2020/01/31 21:46:09.0	92.940	-0.030	0.050	1.520
2020/01/31 21:46:09.1	92.940	-0.040	0.050	1.490
2020/01/31 21:46:09.2	92.930	-0.050	0.060	1.450
2020/01/31 21:46:09.3	92.930	-0.060	0.080	1.410
2020/01/31 21:46:09.4	92.930	-0.070	0.100	1.370
2020/01/31 21:46:09.5	92.920	-0.080	0.120	1.320
2020/01/31 21:46:09.6	92.910	-0.090	0.140	1.270
2020/01/31 21:46:09.7	92.910	-0.110	0.170	1.220
2020/01/31 21:46:09.8	92.900	-0.120	0.210	1.160
2020/01/31 21:46:09.9	92.900	-0.140	0.240	1.100
2020/01/31 21:46:10.0	92.900	-0.150	0.280	1.040
2020/01/31 21:46:10.1	92.900	-0.170	0.320	0.970
2020/01/31 21:46:10.2	92.890	-0.190	0.370	0.900
2020/01/31 21:46:10.3	92.880	-0.200	0.410	0.830
2020/01/31 21:46:10.4	92.880	-0.220	0.450	0.760
2020/01/31 21:46:10.5	92.870	-0.240	0.500	0.690
2020/01/31 21:46:10.6	92.860	-0.250	0.540	0.610
2020/01/31 21:46:10.7	92.850	-0.270	0.580	0.530
2020/01/31 21:46:10.8	92.850	-0.280	0.620	0.460
2020/01/31 21:46:10.9	92.840	-0.300	0.650	0.380
2020/01/31 21:46:11.0	92.830	-0.310	0.680	0.290
2020/01/31 21:46:11.1	92.820	-0.320	0.700	0.210
2020/01/31 21:46:11.2	92.810	-0.330	0.720	0.130
2020/01/31 21:46:11.3	92.810	-0.330	0.730	0.050
2020/01/31 21:46:11.4	92.800	-0.340	0.740	-0.040
2020/01/31 21:46:11.5	92.790	-0.340	0.740	-0.120
2020/01/31 21:46:11.6	92.780	-0.330	0.730	-0.200
2020/01/31 21:46:11.7	92.770	-0.330	0.710	-0.280
2020/01/31 21:46:11.8	92.760	-0.320	0.680	-0.360
2020/01/31 21:46:11.9	92.750	-0.310	0.650	-0.440
2020/01/31 21:46:12.0	92.730	-0.300	0.610	-0.510
2020/01/31 21:46:12.1	92.720	-0.280	0.560	-0.590
2020/01/31 21:46:12.2	92.710	-0.260	0.500	-0.660
2020/01/31 21:46:12.3	92.700	-0.240	0.430	-0.730
2020/01/31 21:46:12.4	92.690	-0.210	0.360	-0.800
2020/01/31 21:46:12.5	92.680	-0.190	0.280	-0.870
2020/01/31 21:46:12.6	92.670	-0.160	0.190	-0.940
2020/01/31 21:46:12.7	92.660	-0.120	0.100	-1.000
2020/01/31 21:46:12.8	92.660	-0.090	-0.000	-1.060
2020/01/31 21:46:12.9	92.650	-0.050	-0.110	-1.120
2020/01/31 21:46:13.0	92.660	-0.020	-0.220	-1.180
2020/01/31 21:46:13.1	92.650	0.020	-0.330	-1.230
2020/01/31 21:46:13.2	92.650	0.060	-0.440	-1.280
2020/01/31 21:46:13.3	92.650	0.100	-0.560	-1.320
2020/01/31 21:46:13.4	92.660	0.140	-0.670	-1.370
2020/01/31 21:46:13.5	92.660	0.180	-0.780	-1.400
2020/01/31 21:46:13.6	92.670	0.210	-0.880	-1.440
2020/01/31 21:46:13.7	92.680	0.250	-0.990	-1.470
2020/01/31 21:46:13.8	92.680	0.290	-1.080	-1.500
2020/01/31 21:46:13.9	92.700	0.320	-1.180	-1.520
2020/01/31 21:46:14.0	92.690	0.350	-1.260	-1.540
2020/01/31 21:46:14.1	92.710	0.380	-1.340	-1.550
2020/01/31 21:46:14.2	92.720	0.410	-1.410	-1.560
2020/01/31 21:46:14.3	92.740	0.430	-1.470	-1.560
2020/01/31 21:46:14.4	92.750	0.450	-1.520	-1.560
2020/01/31 21:46:14.5	92.770	0.460	-1.570	-1.550
2020/01/31 21:46:14.6	92.790	0.480	-1.600	-1.540
2020/01/31 21:46:14.7	92.800	0.480	-1.620	-1.520
2020/01/31 21:46:14.8	92.820	0.480	-1.630	-1.490
2020/01/31 21:46:14.9	92.840	0.480	-1.630	-1.460
2020/01/31 21:46:15.0	92.850	0.480	-1.620	-1.420
2020/01/31 21:46:15.1	92.860	0.460	-1.600	-1.380
2020/01/31 21:46:15.2	92.880	0.450	-1.560	-1.340
2020/01/31 21:46:15.3	92.890	0.430	-1.510	-1.280
2020/01/31 21:46:15.4	92.900	0.400	-1.460	-1.230
2020/01/31 21:46:15.5	92.910	0.370	-1.390	-1.160
2020/01/31 21:46:15.6	92.920	0.340	-1.310	-1.100
2020/01/31 21:46:15.7	92.920	0.300	-1.230	-1.030
2020/01/31 21:46:15.8	92.930	0.260	-1.130	-0.960
2020/01/31 21:46:15.9	92.930	0.210	-1.030	-0.880
2020/01/31 21:46:16.0	92.930	0.170	-0.920	-0.790
2020/01/31 21:46:16.1	92.930	0.110	-0.810	-0.710
2020/01/31 21:46:16.2	92.920	0.060	-0.690	-0.620
2020/01/31 21:46:16.3	92.920	0.010	-0.570	-0.530
2020/01/31 21:46:16.4	92.920	-0.050	-0.450	-0.440
2020/01/31 21:46:16.5	92.910	-0.110	-0.320	-0.350
2020/01/31 21:46:16.6	92.910	-0.170	-0.200	-0.250
2020/01/31 21:46:16.7	92.900	-0.230	-0.070	-0.160
2020/01/31 21:46:16.8	92.890	-0.290	0.050	-0.060
2020/01/31 21:46:16.9	92.880	-0.340	0.170	0.040
2020/01/31 21:46:17.0	92.860	-0.400	0.290	0.140
2020/01/31 21:46:17.1	92.850	-0.450	0.400	0.240
2020/01/31 21:46:17.2	92.830	-0.500	0.510	0.340
2020/01/31 21:46:17.3	92.820	-0.550	0.620	0.440
2020/01/31 21:46:17.4	92.810	-0.600	0.710	0.530
2020/01/31 21:46:17.5	92.800	-0.640	0.800	0.630
2020/01/31 21:46:17.6	92.780	-0.680	0.880	0.730
2020/01/31 21:46:17.7	92.770	-0.710	0.960	0.830
2020/01/31 21:46:17.8	92.760	-0.740	1.020	0.920
2020/01/31 21:46:17.9	92.740	-0.770	1.080	1.010
2020/01/31 21:46:18.0	92.730	-0.780	1.120	1.100
2020/01/31 21:46:18.1	92.710	-0.800	1.160	1.190
2020/01/31 21:46:18.2	92.700	-0.810	1.180	1.270
2020/01/31 21:46:18.3	92.690	-0.810	1.200	1.350
2020/01/31 21:46:18.4	92.680	-0.810	1.200	1.430
2020/01/31 21:46:18.5	92.670	-0.800	1.190	1.500
2020/01/31 21:46:18.6	92.660	-0.790	1.180	1.570
2020/01/31 21:46:18.7	92.660	-0.770	1.150	1.640
2020/01/31 21:46:18.8	92.650	-0.750	1.120	1.700
2020/01/31 21:46:18.9	92.640	-0.720	1.070	1.760
2020/01/31 21:46:19.0	92.650	-0.690	1.020	1.810
2020/01/31 21:46:19.1	92.650	-0.650	0.960	1.860
2020/01/31 21:46:19.2	92.650	-0.610	0.890	1.900
2020/01/31 21:46:19.3	92.640	-0.570	0.820	1.940
2020/01/31 21:46:19.4	92.640	-0.520	0.740	1.980
2020/01/31 21:46:19.5	92.640	-0.470	0.660	2.010
2020/01/31 21:46:19.6	92.630	-0.420	0.570	2.040
2020/01/31 21:46:19.7	92.630	-0.370	0.480	2.070
2020/01/31 21:46:19.8	92.630	-0.320	0.390	2.090
2020/01/31 21:46:19.9	92.630	-0.260	0.290	2.100
2020/01/31 21:46:20.0	92.620	-0.210	0.200	2.120
2020/01/31 21:46:20.1	92.620	-0.150	0.100	2.130
2020/01/31 21:46:20.2	92.620	-0.100	0.010	2.130
2020/01/31 21:46:20.3	92.620	-0.040	-0.090	2.130
2020/01/31 21:46:20.4	92.620	0.010	-0.180	2.130
2020/01/31 21:46:20.5	92.620	0.060	-0.280	2.120
2020/01/31 21:46:20.6	92.620	0.110	-0.370	2.110
2020/01/31 21:46:20.7	92.620	0.160	-0.450	2.100
2020/01/31 21:46:20.8	92.620	0.210	-0.540	2.080
2020/01/31 21:46:20.9	92.630	0.260	-0.620	2.050
2020/01/31 21:46:21.0	92.640	0.300	-0.700	2.020
2020/01/31 21:46:21.1	92.640	0.340	-0.770	1.980
2020/01/31 21:46:21.2	92.650	0.380	-0.840	1.950
2020/01/31 21:46:21.3	92.660	0.420	-0.900	1.900
2020/01/31 21:46:21.4	92.670	0.450	-0.960	1.860
2020/01/31 21:46:21.5	92.680	0.480	-1.010	1.810
2020/01/31 21:46:21.6	92.690	0.510	-1.060	1.760
2020/01/31 21:46:21.7	92.700	0.530	-1.100	1.700
2020/01/31 21:46:21.8	92.710	0.550	-1.130	1.640
2020/01/31 21:46:21.9	92.730	0.570	-1.160	1.580
2020/01/31 21:46:22.0	92.750	0.590	-1.180	1.520
2020/01/31 21:46:22.1	92.760	0.600	-1.190	1.460
2020/01/31 21:46:22.2	92.780	0.620	-1.200	1.390
2020/01/31 21:46:22.3	92.800	0.630	-1.200	1.320
2020/01/31 21:46:22.4	92.820	0.630	-1.200	1.250
2020/01/31 21:46:22.5	92.830	0.640	-1.190	1.190
2020/01/31 21:46:22.6	92.850	0.640	-1.170	1.110
2020/01/31 21:46:22.7	92.870	0.640	-1.150	1.040
2020/01/31 21:46:22.8	92.900	0.640	-1.130	0.970
2020/01/31 21:46:22.9	92.920	0.640	-1.090	0.900
2020/01/31 21:46:23.0	92.940	0.630	-1.060	0.830
2020/01/31 21:46:23.1	92.960	0.620	-1.010	0.760
2020/01/31 21:46:23.2	92.980	0.610	-0.970	0.690
2020/01/31 21:46:23.3	93.000	0.600	-0.920	0.630
2020/01/31 21:46:23.4	93.020	0.590	-0.870	0.560
2020/01/31 21:46:23.5	93.040	0.580	-0.810	0.500
2020/01/31 21:46:23.6	93.060	0.560	-0.750	0.430
2020/01/31 21:46:23.7	93.080	0.540	-0.690	0.370
2020/01/31 21:46:23.8	93.090	0.520	-0.620	0.310
2020/01/31 21:46:23.9	93.110	0.510	-0.560	0.260
2020/01/31 21:46:24.0	93.130	0.490	-0.490	0.200
2020/01/31 21:46:24.1	93.140	0.460	-0.430	0.150
2020/01/31 21:46:24.2	93.150	0.440	-0.360	0.100
2020/01/31 21:46:24.3	93.160	0.420	-0.290	0.060
2020/01/31 21:46:24.4	93.170	0.400	-0.230	0.020
2020/01/31 21:46:24.5	93.180	0.380	-0.160	-0.020
2020/01/31 21:46:24.6	93.180	0.350	-0.100	-0.050
2020/01/31 21:46:24.7	93.190	0.330	-0.040	-0.080
2020/01/31 21:46:24.8	93.190	0.310	0.020	-0.100
2020/01/31 21:46:24.9	93.190	0.280	0.080	-0.120
2020/01/31 21:46:25.0	93.190	0.260	0.140	-0.140
2020/01/31 21:46:25.1	93.190	0.240	0.190	-0.160
2020/01/31 21:46:25.2	93.180	0.210	0.240	-0.170
2020/01/31 21:46:25.3	93.180	0.190	0.280	-0.180
2020/01/31 21:46:25.4	93.170	0.170	0.330	-0.190
2020/01/31 21:46:25.5	93.160	0.150	0.360	-0.190
2020/01/31 21:46:25.6	93.150	0.130	0.400	-0.190
2020/01/31 21:46:25.7	93.140	0.110	0.420	-0.190
2020/01/31 21:46:25.8	93.130	0.090	0.450	-0.190
2020/01/31 21:46:25.9	93.120	0.070	0.470	-0.180
2020/01/31 21:46:26.0	93.110	0.050	0.480	-0.170
2020/01/31 21:46:26.1	93.100	0.030	0.500	-0.170
2020/01/31 21:46:26.2	93.090	0.020	0.510	-0.160
2020/01/31 21:46:26.3	93.070	0.000	0.510	-0.150
2020/01/31 21:46:26.4	93.060	-0.010	0.510	-0.140
2020/01/31 21:46:26.5	93.050	-0.030	0.510	-0.130
2020/01/31 21:46:26.6	93.030	-0.040	0.510	-0.120
2020/01/31 21:46:26.7	93.020	-0.060	0.500	-0.110
2020/01/31 21:46:26.8	93.010	-0.070	0.490	-0.110
2020/01/31 21:46:26.9	93.000	-0.080	0.470	-0.100
2020/01/31 21:46:27.0	92.980	-0.100	0.460	-0.090
2020/01/31 21:46:27.1	92.970	-0.110	0.440	-0.080
2020/01/31 21:46:27.2	92.960	-0.120	0.420	-0.080
2020/01/31 21:46:27.3	92.950	-0.130	0.400	-0.070
2020/01/31 21:46:27.4	92.940	-0.150	0.370	-0.060
2020/01/31 21:46:27.5	92.940	-0.160	0.350	-0.060
2020/01/31 21:46:27.6	92.930	-0.170	0.320	-0.050
2020/01/31 21:46:27.7	92.930	-0.180	0.290	-0.050
2020/01/31 21:46:27.8	92.930	-0.190	0.260	-0.040
2020/01/31 21:46:27.9	92.920	-0.200	0.230	-0.040
2020/01/31 21:46:28.0	92.920	-0.210	0.190	-0.040
2020/01/31 21:46:28.1	92.920	-0.220	0.160	-0.040
2020/01/31 21:46:28.2	92.920	-0.230	0.130	-0.040
2020/01/31 21:46:28.3	92.930	-0.240	0.090	-0.040
2020/01/31 21:46:28.4	92.930	-0.250	0.060	-0.050
2020/01/31 21:46:28.5	92.940	-0.250	0.020	-0.050
2020/01/31 21:46:28.6	92.950	-0.260	-0.020	-0.050
2020/01/31 21:46:28.7	92.960	-0.270	-0.050	-0.060
2020/01/31 21:46:28.8	92.980	-0.270	-0.090	-0.060
2020/01/31 21:46:28.9	92.990	-0.280	-0.130	-0.070
2020/01/31 21:46:29.0	93.010	-0.280	-0.170	-0.070
2020/01/31 21:46:29.1	93.030	-0.280	-0.210	-0.080
2020/01/31 21:46:29.2	93.050	-0.290	-0.250	-0.080
2020/01/31 21:46:29.3	93.070	-0.290	-0.280	-0.090
2020/01/31 21:46:29.4	93.100	-0.290	-0.320	-0.100
2020/01/31 21:46:29.5	93.120	-0.290	-0.350	-0.100
2020/01/31 21:46:29.6	93.150	-0.290	-0.390	-0.100
2020/01/31 21:46:29.7	93.180	-0.290	-0.420	-0.110
2020/01/31 21:46:29.8	93.210	-0.290	-0.450	-0.110
2020/01/31 21:46:29.9	93.250	-0.290	-0.480	-0.110
2020/01/31 21:46:30.0	93.270	-0.280	-0.500	-0.110
2020/01/31 21:46:30.1	93.300	-0.280	-0.530	-0.110
2020/01/31 21:46:30.2	93.340	-0.280	-0.560	-0.110
2020/01/31 21:46:30.3	93.370	-0.270	-0.580	-0.100
2020/01/31 21:46:30.4	93.400	-0.270	-0.600	-0.090
2020/01/31 21:46:30.5	93.440	-0.260	-0.620	-0.080
2020/01/31 21:46:30.6	93.470	-0.260	-0.640	-0.070
2020/01/31 21:46:30.7	93.500	-0.260	-0.650	-0.060
2020/01/31 21:46:30.8	93.530	-0.250	-0.660	-0.040
2020/01/31 21:46:30.9	93.560	-0.250	-0.670	-0.020
2020/01/31 21:46:31.0	93.590	-0.240	-0.680	0.010
2020/01/31 21:46:31.1	93.620	-0.240	-0.680	0.030
2020/01/31 21:46:31.2	93.640	-0.240	-0.680	0.060
2020/01/31 21:46:31.3	93.660	-0.230	-0.670	0.090
2020/01/31 21:46:31.4	93.680	-0.230	-0.660	0.130
2020/01/31 21:46:31.5	93.700	-0.230	-0.650	0.170
2020/01/31 21:46:31.6	93.710	-0.230	-0.630	0.220
2020/01/31 21:46:31.7	93.720	-0.230	-0.610	0.260
2020/01/31 21:46:31.8	93.730	-0.230	-0.590	0.310
2020/01/31 21:46:31.9	93.740	-0.230	-0.560	0.370
2020/01/31 21:46:32.0	93.750	-0.230	-0.530	0.420
2020/01/31 21:46:32.1	93.750	-0.230	-0.500	0.480
2020/01/31 21:46:32.2	93.750	-0.230	-0.460	0.540
2020/01/31 21:46:32.3	93.750	-0.240	-0.420	0.610
2020/01/31 21:46:32.4	93.740	-0.240	-0.380	0.670
2020/01/31 21:46:32.5	93.740	-0.240	-0.340	0.740
2020/01/31 21:46:32.6	93.730	-0.240	-0.290	0.810
2020/01/31 21:46:32.7	93.720	-0.250	-0.250	0.880
2020/01/31 21:46:32.8	93.710	-0.250	-0.200	0.950
2020/01/31 21:46:32.9	93.700	-0.250	-0.160	1.020
2020/01/31 21:46:33.0	93.690	-0.260	-0.110	1.090
2020/01/31 21:46:33.1	93.680	-0.260	-0.070	1.160
2020/01/31 21:46:33.2	93.660	-0.260	-0.030	1.230
2020/01/31 21:46:33.3	93.650	-0.260	0.010	1.290
2020/01/31 21:46:33.4	93.630	-0.260	0.050	1.350
2020/01/31 21:46:33.5	93.620	-0.260	0.090	1.420
2020/01/31 21:46:33.6	93.600	-0.260	0.120	1.470
2020/01/31 21:46:33.7	93.590	-0.260	0.160	1.530
2020/01/31 21:46:33.8	93.570	-0.260	0.180	1.580
2020/01/31 21:46:33.9	93.560	-0.260	0.210	1.630
2020/01/31 21:46:34.0	93.530	-0.250	0.230	1.680
2020/01/31 21:46:34.1	93.520	-0.250	0.250	1.710
2020/01/31 21:46:34.2	93.500	-0.240	0.260	1.750
2020/01/31 21:46:34.3	93.490	-0.230	0.270	1.780
2020/01/31 21:46:34.4	93.470	-0.220	0.280	1.810
2020/01/31 21:46:34.5	93.450	-0.210	0.280	1.830
2020/01/31 21:46:34.6	93.440	-0.200	0.280	1.850
2020/01/31 21:46:34.7	93.420	-0.190	0.280	1.860
2020/01/31 21:46:34.8	93.410	-0.180	0.270	1.870
2020/01/31 21:46:34.9	93.400	-0.160	0.260	1.880
2020/01/31 21:46:35.0	93.380	-0.150	0.250	1.870
2020/01/31 21:46:35.1	93.360	-0.130	0.230	1.870
2020/01/31 21:46:35.2	93.350	-0.110	0.210	1.860
2020/01/31 21:46:35.3	93.340	-0.090	0.190	1.840
2020/01/31 21:46:35.4	93.320	-0.070	0.170	1.820
2020/01/31 21:46:35.5	93.310	-0.050	0.140	1.800
2020/01/31 21:46:35.6	93.300	-0.030	0.110	1.770
2020/01/31 21:46:35.7	93.290	-0.000	0.080	1.740
2020/01/31 21:46:35.8	93.280	0.020	0.040	1.710
2020/01/31 21:46:35.9	93.270	0.050	0.010	1.660
2020/01/31 21:46:36.0	93.260	0.070	-0.030	1.620
2020/01/31 21:46:36.1	93.260	0.100	-0.070	1.570
2020/01/31 21:46:36.2	93.250	0.130	-0.110	1.520
2020/01/31 21:46:36.3	93.250	0.160	-0.150	1.460
2020/01/31 21:46:36.4	93.250	0.190	-0.190	1.400
2020/01/31 21:46:36.5	93.250	0.210	-0.230	1.340
2020/01/31 21:46:36.6	93.250	0.240	-0.280	1.280
2020/01/31 21:46:36.7	93.260	0.270	-0.320	1.210
2020/01/31 21:46:36.8	93.270	0.300	-0.370	1.140
2020/01/31 21:46:36.9	93.280	0.330	-0.410	1.060
2020/01/31 21:46:37.0	93.300	0.360	-0.460	0.980
2020/01/31 21:46:37.1	93.310	0.390	-0.510	0.900
2020/01/31 21:46:37.2	93.330	0.410	-0.550	0.820
2020/01/31 21:46:37.3	93.350	0.440	-0.590	0.740
2020/01/31 21:46:37.4	93.360	0.470	-0.630	0.660
2020/01/31 21:46:37.5	93.380	0.490	-0.670	0.570
2020/01/31 21:46:37.6	93.410	0.510	-0.700	0.490
2020/01/31 21:46:37.7	93.430	0.540	-0.730	0.400
2020/01/31 21:46:37.8	93.450	0.560	-0.760	0.310
2020/01/31 21:46:37.9	93.480	0.570	-0.780	0.230
2020/01/31 21:46:38.0	93.490	0.590	-0.790	0.150
2020/01/31 21:46:38.1	93.520	0.610	-0.810	0.060
2020/01/31 21:46:38.2	93.540	0.620	-0.820	-0.020
2020/01/31 21:46:38.3	93.570	0.630	-0.820	-0.100
2020/01/31 21:46:38.4	93.600	0.640	-0.820	-0.170
2020/01/31 21:46:38.5	93.620	0.640	-0.820	-0.250
2020/01/31 21:46:38.6	93.640	0.640	-0.810	-0.320
2020/01/31 21:46:38.7	93.670	0.640	-0.790	-0.390
2020/01/31 21:46:38.8	93.690	0.640	-0.770	-0.450
2020/01/31 21:46:38.9	93.710	0.630	-0.750	-0.510
2020/01/31 21:46:39.0	93.740	0.630	-0.720	-0.570
2020/01/31 21:46:39.1	93.760	0.610	-0.680	-0.620
2020/01/31 21:46:39.2	93.780	0.600	-0.640	-0.670
2020/01/31 21:46:39.3	93.790	0.580	-0.600	-0.710
2020/01/31 21:46:39.4	93.800	0.570	-0.550	-0.750
2020/01/31 21:46:39.5	93.810	0.540	-0.500	-0.780
2020/01/31 21:46:39.6	93.820	0.520	-0.450	-0.810
2020/01/31 21:46:39.7	93.820	0.490	-0.400	-0.830
2020/01/31 21:46:39.8	93.820	0.470	-0.340	-0.850
2020/01/31 21:46:39.9	93.830	0.440	-0.280	-0.860
2020/01/31 21:46:40.0	93.830	0.400	-0.220	-0.870
2020/01/31 21:46:40.1	93.830	0.370	-0.160	-0.870
2020/01/31 21:46:40.2	93.820	0.340	-0.100	-0.870
2020/01/31 21:46:40.3	93.810	0.300	-0.040	-0.870
2020/01/31 21:46:40.4	93.810	0.260	0.020	-0.860
2020/01/31 21:46:40.5	93.800	0.220	0.080	-0.850
2020/01/31 21:46:40.6	93.780	0.180	0.130	-0.840
2020/01/31 21:46:40.7	93.770	0.140	0.190	-0.820
2020/01/31 21:46:40.8	93.760	0.100	0.240	-0.800
2020/01/31 21:46:40.9	93.740	0.060	0.290	-0.770
2020/01/31 21:46:41.0	93.740	0.020	0.330	-0.750
2020/01/31 21:46:41.1	93.720	-0.020	0.370	-0.720
2020/01/31 21:46:41.2	93.710	-0.050	0.410	-0.690
2020/01/31 21:46:41.3	93.690	-0.090	0.440	-0.650
2020/01/31 21:46:41.4	93.670	-0.130	0.470	-0.620
2020/01/31 21:46:41.5	93.660	-0.160	0.500	-0.580
2020/01/31 21:46:41.6	93.640	-0.200	0.510	-0.540
2020/01/31 21:46:41.7	93.630	-0.230	0.530	-0.490
2020/01/31 21:46:41.8	93.610	-0.260	0.540	-0.450
2020/01/31 21:46:41.9	93.600	-0.280	0.540	-0.400
2020/01/31 21:46:42.0	93.590	-0.310	0.550	-0.360
2020/01/31 21:46:42.1	93.570	-0.330	0.540	-0.310
2020/01/31 21:46:42.2	93.560	-0.350	0.530	-0.250
2020/01/31 21:46:42.3	93.550	-0.370	0.520	-0.200
2020/01/31 21:46:42.4	93.540	-0.390	0.500	-0.150
2020/01/31 21:46:42.5	93.530	-0.400	0.470	-0.090
2020/01/31 21:46:42.6	93.530	-0.410	0.450	-0.030
2020/01/31 21:46:42.7	93.520	-0.420	0.410	0.030
2020/01/31 21:46:42.8	93.510	-0.430	0.380	0.090
2020/01/31 21:46:42.9	93.510	-0.430	0.340	0.150
2020/01/31 21:46:43.0	93.510	-0.440	0.300	0.210
2020/01/31 21:46:43.1	93.500	-0.440	0.250	0.280
2020/01/31 21:46:43.2	93.500	-0.440	0.210	0.340
2020/01/31 21:46:43.3	93.500	-0.440	0.160	0.410
2020/01/31 21:46:43.4	93.500	-0.430	0.110	0.470
2020/01/31 21:46:43.5	93.500	-0.430	0.060	0.540
2020/01/31 21:46:43.6	93.500	-0.420	0.010	0.600
2020/01/31 21:46:43.7	93.500	-0.410	-0.050	0.660
2020/01/31 21:46:43.8	93.500	-0.400	-0.100	0.720
2020/01/31 21:46:43.9	93.510	-0.390	-0.150	0.780
2020/01/31 21:46:44.0	93.510	-0.380	-0.200	0.830
2020/01/31 21:46:44.1	93.510	-0.360	-0.250	0.890
2020/01/31 21:46:44.2	93.520	-0.350	-0.300	0.940
2020/01/31 21:46:44.3	93.530	-0.340	-0.350	0.980
2020/01/31 21:46:44.4	93.540	-0.320	-0.400	1.030
2020/01/31 21:46:44.5	93.560	-0.300	-0.450	1.070
2020/01/31 21:46:44.6	93.570	-0.290	-0.490	1.100
2020/01/31 21:46:44.7	93.590	-0.270	-0.530	1.130
2020/01/31 21:46:44.8	93.610	-0.250	-0.570	1.160
2020/01/31 21:46:44.9	93.630	-0.230	-0.610	1.190
2020/01/31 21:46:45.0	93.630	-0.210	-0.650	1.200
2020/01/31 21:46:45.1	93.650	-0.190	-0.680	1.220
2020/01/31 21:46:45.2	93.680	-0.170	-0.710	1.230
2020/01/31 21:46:45.3	93.700	-0.150	-0.740	1.240
2020/01/31 21:46:45.4	93.730	-0.120	-0.770	1.250
2020/01/31 21:46:45.5	93.750	-0.100	-0.790	1.250
2020/01/31 21:46:45.6	93.780	-0.080	-0.810	1.260
2020/01/31 21:46:45.7	93.810	-0.060	-0.820	1.260
2020/01/31 21:46:45.8	93.830	-0.030	-0.840	1.260
2020/01/31 21:46:45.9	93.860	-0.010	-0.840	1.250
2020/01/31 21:46:46.0	93.890	0.010	-0.850	1.250
2020/01/31 21:46:46.1	93.910	0.030	-0.850	1.240
2020/01/31 21:46:46.2	93.930	0.060	-0.840	1.240
2020/01/31 21:46:46.3	93.950	0.080	-0.830	1.230
2020/01/31 21:46:46.4	93.970	0.100	-0.820	1.220
2020/01/31 21:46:46.5	93.990	0.120	-0.810	1.210
2020/01/31 21:46:46.6	94.010	0.140	-0.790	1.210
2020/01/31 21:46:46.7	94.020	0.160	-0.760	1.200
2020/01/31 21:46:46.8	94.040	0.170	-0.730	1.190
2020/01/31 21:46:46.9	94.050	0.190	-0.700	1.180
2020/01/31 21:46:47.0	94.060	0.200	-0.660	1.170
2020/01/31 21:46:47.1	94.070	0.220	-0.620	1.160
2020/01/31 21:46:47.2	94.080	0.230	-0.570	1.140
2020/01/31 21:46:47.3	94.080	0.240	-0.520	1.130
2020/01/31 21:46:47.4	94.090	0.240	-0.470	1.120
2020/01/31 21:46:47.5	94.090	0.250	-0.410	1.110
2020/01/31 21:46:47.6	94.090	0.250	-0.350	1.100
2020/01/31 21:46:47.7	94.090	0.250	-0.290	1.090
2020/01/31 21:46:47.8	94.090	0.240	-0.220	1.080
2020/01/31 21:46:47.9	94.090	0.240	-0.160	1.070
2020/01/31 21:46:48.0	94.070	0.230	-0.080	1.060
2020/01/31 21:46:48.1	94.070	0.210	-0.010	1.050
2020/01/31 21:46:48.2	94.060	0.200	0.060	1.040
2020/01/31 21:46:48.3	94.050	0.180	0.140	1.030
2020/01/31 21:46:48.4	94.040	0.160	0.210	1.020
2020/01/31 21:46:48.5	94.030	0.140	0.290	1.020
2020/01/31 21:46:48.6	94.020	0.110	0.360	1.010
2020/01/31 21:46:48.7	94.010	0.090	0.430	1.000
2020/01/31 21:46:48.8	94.000	0.060	0.500	0.990
2020/01/31 21:46:48.9	93.990	0.020	0.570	0.980
2020/01/31 21:46:49.0	93.970	-0.010	0.630	0.970
2020/01/31 21:46:49.1	93.960	-0.040	0.680	0.960
2020/01/31 21:46:49.2	93.950	-0.080	0.740	0.950
2020/01/31 21:46:49.3	93.940	-0.120	0.780	0.930
2020/01/31 21:46:49.4	93.930	-0.150	0.820	0.920
2020/01/31 21:46:49.5	93.920	-0.190	0.850	0.900
2020/01/31 21:46:49.6	93.910	-0.220	0.880	0.880
2020/01/31 21:46:49.7	93.900	-0.260	0.900	0.850
2020/01/31 21:46:49.8	93.900	-0.290	0.910	0.830
2020/01/31 21:46:49.9	93.890	-0.330	0.910	0.800
2020/01/31 21:46:50.0	93.900	-0.360	0.900	0.760
2020/01/31 21:46:50.1	93.900	-0.390	0.880	0.720
2020/01/31 21:46:50.2	93.900	-0.410	0.850	0.680
2020/01/31 21:46:50.3	93.910	-0.440	0.820	0.640
2020/01/31 21:46:50.4	93.910	-0.460	0.770	0.590
2020/01/31 21:46:50.5	93.920	-0.470	0.710	0.540
2020/01/31 21:46:50.6	93.940	-0.490	0.650	0.480
2020/01/31 21:46:50.7	93.950	-0.500	0.570	0.430
2020/01/31 21:46:50.8	93.960	-0.500	0.490	0.370
2020/01/31 21:46:50.9	93.980	-0.500	0.400	0.310
2020/01/31 21:46:51.0	94.000	-0.500	0.300	0.240
2020/01/31 21:46:51.1	94.020	-0.490	0.200	0.180
2020/01/31 21:46:51.2	94.030	-0.480	0.090	0.120
2020/01/31 21:46:51.3	94.050	-0.470	-0.020	0.060
2020/01/31 21:46:51.4	94.070	-0.450	-0.140	0.000
2020/01/31 21:46:51.5	94.090	-0.420	-0.260	-0.060
2020/01/31 21:46:51.6	94.110	-0.400	-0.380	-0.110
2020/01/31 21:46:51.7	94.130	-0.370	-0.500	-0.160
2020/01/31 21:46:51.8	94.150	-0.330	-0.620	-0.210
2020/01/31 21:46:51.9	94.170	-0.290	-0.730	-0.260
2020/01/31 21:46:52.0	94.200	-0.250	-0.850	-0.300
2020/01/31 21:46:52.1	94.210	-0.210	-0.960	-0.340
2020/01/31 21:46:52.2	94.230	-0.170	-1.070	-0.380
2020/01/31 21:46:52.3	94.250	-0.120	-1.170	-0.410
2020/01/31 21:46:52.4	94.270	-0.080	-1.260	-0.440
2020/01/31 21:46:52.5	94.280	-0.030	-1.340	-0.460
2020/01/31 21:46:52.6	94.290	0.020	-1.410	-0.480
2020/01/31 21:46:52.7	94.310	0.070	-1.480	-0.500
2020/01/31 21:46:52.8	94.320	0.120	-1.530	-0.510
2020/01/31 21:46:52.9	94.330	0.160	-1.580	-0.510
2020/01/31 21:46:53.0	94.330	0.210	-1.610	-0.520
2020/01/31 21:46:53.1	94.340	0.250	-1.640	-0.510
2020/01/31 21:46:53.2	94.350	0.290	-1.650	-0.500
2020/01/31 21:46:53.3	94.350	0.330	-1.650	-0.490
2020/01/31 21:46:53.4	94.350	0.370	-1.630	-0.480
2020/01/31 21:46:53.5	94.350	0.400	-1.610	-0.460
2020/01/31 21:46:53.6	94.350	0.430	-1.580	-0.430
2020/01/31 21:46:53.7	94.350	0.460	-1.530	-0.400
2020/01/31 21:46:53.8	94.350	0.480	-1.480	-0.370
2020/01/31 21:46:53.9	94.340	0.500	-1.410	-0.340
2020/01/31 21:46:54.0	94.330	0.510	-1.330	-0.300
2020/01/31 21:46:54.1	94.320	0.520	-1.250	-0.260
2020/01/31 21:46:54.2	94.310	0.530	-1.160	-0.210
2020/01/31 21:46:54.3	94.300	0.540	-1.060	-0.170
2020/01/31 21:46:54.4	94.290	0.540	-0.960	-0.120
2020/01/31 21:46:54.5	94.280	0.530	-0.860	-0.070
2020/01/31 21:46:54.6	94.270	0.520	-0.750	-0.020
2020/01/31 21:46:54.7	94.260	0.510	-0.640	0.020
2020/01/31 21:46:54.8	94.250	0.500	-0.520	0.070
2020/01/31 21:46:54.9	94.240	0.480	-0.410	0.120
2020/01/31 21:46:55.0	94.240	0.460	-0.300	0.170
2020/01/31 21:46:55.1	94.230	0.440	-0.180	0.220
2020/01/31 21:46:55.2	94.230	0.420	-0.070	0.260
2020/01/31 21:46:55.3	94.230	0.390	0.040	0.300
2020/01/31 21:46:55.4	94.220	0.360	0.150	0.350
2020/01/31 21:46:55.5	94.220	0.330	0.250	0.380
2020/01/31 21:46:55.6	94.220	0.300	0.340	0.420
2020/01/31 21:46:55.7	94.230	0.260	0.440	0.450
2020/01/31 21:46:55.8	94.230	0.230	0.520	0.490
2020/01/31 21:46:55.9	94.240	0.200	0.600	0.510
2020/01/31 21:46:56.0	94.250	0.160	0.680	0.540
2020/01/31 21:46:56.1	94.260	0.130	0.750	0.570
2020/01/31 21:46:56.2	94.270	0.100	0.810	0.590
2020/01/31 21:46:56.3	94.290	0.060	0.860	0.600
2020/01/31 21:46:56.4	94.300	0.030	0.910	0.620
2020/01/31 21:46:56.5	94.320	0.000	0.940	0.630
2020/01/31 21:46:56.6	94.340	-0.030	0.970	0.640
2020/01/31 21:46:56.7	94.360	-0.060	1.000	0.640
2020/01/31 21:46:56.8	94.380	-0.080	1.020	0.650
2020/01/31 21:46:56.9	94.400	-0.110	1.020	0.650
2020/01/31 21:46:57.0	94.430	-0.130	1.030	0.650
2020/01/31 21:46:57.1	94.460	-0.150	1.020	0.640
2020/01/31 21:46:57.2	94.480	-0.170	1.010	0.640
2020/01/31 21:46:57.3	94.510	-0.190	1.000	0.640
2020/01/31 21:46:57.4	94.530	-0.210	0.980	0.630
2020/01/31 21:46:57.5	94.560	-0.220	0.950	0.630
2020/01/31 21:46:57.6	94.580	-0.230	0.920	0.620
2020/01/31 21:46:57.7	94.610	-0.240	0.880	0.610
2020/01/31 21:46:57.8	94.630	-0.240	0.840	0.610
2020/01/31 21:46:57.9	94.660	-0.250	0.790	0.600
2020/01/31 21:46:58.0	94.690	-0.250	0.740	0.590
2020/01/31 21:46:58.1	94.710	-0.250	0.690	0.590
2020/01/31 21:46:58.2	94.730	-0.240	0.630	0.580
2020/01/31 21:46:58.3	94.740	-0.240	0.570	0.580
2020/01/31 21:46:58.4	94.760	-0.230	0.510	0.580
2020/01/31 21:46:58.5	94.780	-0.220	0.450	0.580
2020/01/31 21:46:58.6	94.790	-0.210	0.380	0.580
2020/01/31 21:46:58.7	94.800	-0.200	0.310	0.590
2020/01/31 21:46:58.8	94.810	-0.190	0.240	0.590
2020/01/31 21:46:58.9	94.820	-0.170	0.170	0.600
2020/01/31 21:46:59.0	94.820	-0.160	0.100	0.610
2020/01/31 21:46:59.1	94.830	-0.140	0.030	0.620
2020/01/31 21:46:59.2	94.830	-0.130	-0.040	0.630
2020/01/31 21:46:59.3	94.830	-0.110	-0.110	0.640
2020/01/31 21:46:59.4	94.830	-0.100	-0.180	0.660
2020/01/31 21:46:59.5	94.830	-0.080	-0.250	0.680
2020/01/31 21:46:59.6	94.830	-0.060	-0.320	0.690
2020/01/31 21:46:59.7	94.830	-0.050	-0.380	0.720
2020/01/31 21:46:59.8	94.820	-0.030	-0.440	0.740
2020/01/31 21:46:59.9	94.820	-0.010	-0.510	0.760
2020/01/31 21:47:00.0	94.810	-0.000	-0.560	0.790
2020/01/31 21:47:00.1	94.800	0.010	-0.610	0.810
2020/01/31 21:47:00.2	94.790	0.030	-0.660	0.840
2020/01/31 21:47:00.3	94.780	0.040	-0.710	0.870
2020/01/31 21:47:00.4	94.770	0.050	-0.760	0.900
2020/01/31 21:47:00.5	94.760	0.050	-0.800	0.940
2020/01/31 21:47:00.6	94.740	0.060	-0.830	0.970
2020/01/31 21:47:00.7	94.730	0.070	-0.860	1.010
2020/01/31 21:47:00.8	94.710	0.070	-0.890	1.050
2020/01/31 21:47:00.9	94.690	0.070	-0.910	1.090
2020/01/31 21:47:01.0	94.690	0.070	-0.930	1.130
2020/01/31 21:47:01.1	94.670	0.070	-0.940	1.170
2020/01/31 21:47:01.2	94.650	0.070	-0.950	1.210
2020/01/31 21:47:01.3	94.630	0.060	-0.950	1.260
2020/01/31 21:47:01.4	94.610	0.060	-0.950	1.300
2020/01/31 21:47:01.5	94.590	0.050	-0.940	1.350
2020/01/31 21:47:01.6	94.570	0.040	-0.930	1.390
2020/01/31 21:47:01.7	94.540	0.030	-0.910	1.440
2020/01/31 21:47:01.8	94.520	0.020	-0.890	1.480
2020/01/31 21:47:01.9	94.500	0.010	-0.860	1.520
2020/01/31 21:47:02.0	94.480	-0.010	-0.840	1.570
2020/01/31 21:47:02.1	94.470	-0.020	-0.810	1.610
2020/01/31 21:47:02.2	94.450	-0.040	-0.770	1.650
2020/01/31 21:47:02.3	94.440	-0.050	-0.740	1.690
2020/01/31 21:47:02.4	94.430	-0.070	-0.700	1.720
2020/01/31 21:47:02.5	94.420	-0.080	-0.660	1.750
2020/01/31 21:47:02.6	94.410	-0.100	-0.620	1.780
2020/01/31 21:47:02.7	94.400	-0.110	-0.580	1.800
2020/01/31 21:47:02.8	94.400	-0.130	-0.540	1.820
2020/01/31 21:47:02.9	94.400	-0.140	-0.500	1.830
2020/01/31 21:47:03.0	94.390	-0.160	-0.460	1.840
2020/01/31 21:47:03.1	94.390	-0.170	-0.420	1.840
2020/01/31 21:47:03.2	94.400	-0.180	-0.380	1.840
2020/01/31 21:47:03.3	94.410	-0.190	-0.340	1.830
2020/01/31 21:47:03.4	94.420	-0.200	-0.300	1.820
2020/01/31 21:47:03.5	94.430	-0.210	-0.260	1.800
2020/01/31 21:47:03.6	94.450	-0.210	-0.230	1.780
2020/01/31 21:47:03.7	94.460	-0.220	-0.190	1.750
2020/01/31 21:47:03.8	94.480	-0.220	-0.160	1.720
2020/01/31 21:47:03.9	94.500	-0.220	-0.130	1.680
2020/01/31 21:47:04.0	94.500	-0.220	-0.100	1.630
2020/01/31 21:47:04.1	94.520	-0.220	-0.070	1.580
2020/01/31 21:47:04.2	94.540	-0.220	-0.050	1.530
2020/01/31 21:47:04.3	94.560	-0.220	-0.020	1.470
2020/01/31 21:47:04.4	94.580	-0.210	0.000	1.410
2020/01/31 21:47:04.5	94.600	-0.200	0.030	1.350
2020/01/31 21:47:04.6	94.610	-0.190	0.050	1.280
2020/01/31 21:47:04.7	94.630	-0.180	0.060	1.210
2020/01/31 21:47:04.8	94.640	-0.170	0.080	1.140
2020/01/31 21:47:04.9	94.660	-0.160	0.100	1.070
2020/01/31 21:47:05.0	94.680	-0.150	0.120	1.000
2020/01/31 21:47:05.1	94.690	-0.130	0.130	0.920
2020/01/31 21:47:05.2	94.700	-0.120	0.140	0.850
2020/01/31 21:47:05.3	94.700	-0.100	0.150	0.780
2020/01/31 21:47:05.4	94.710	-0.080	0.160	0.710
2020/01/31 21:47:05.5	94.710	-0.060	0.160	0.640
2020/01/31 21:47:05.6	94.710	-0.050	0.170	0.570
2020/01/31 21:47:05.7	94.700	-0.030	0.170	0.500
2020/01/31 21:47:05.8	94.700	-0.010	0.170	0.430
2020/01/31 21:47:05.9	94.690	0.010	0.170	0.360
2020/01/31 21:47:06.0	94.690	0.030	0.160	0.300
2020/01/31 21:47:06.1	94.680	0.050	0.160	0.240
2020/01/31 21:47:06.2	94.670	0.070	0.150	0.180
2020/01/31 21:47:06.3	94.650	0.090	0.150	0.120
2020/01/31 21:47:06.4	94.640	0.110	0.130	0.060
2020/01/31 21:47:06.5	94.620	0.130	0.120	0.010
2020/01/31 21:47:06.6	94.600	0.150	0.110	-0.050
2020/01/31 21:47:06.7	94.580	0.160	0.090	-0.100
2020/01/31 21:47:06.8	94.560	0.180	0.070	-0.150
2020/01/31 21:47:06.9	94.530	0.190	0.050	-0.200
2020/01/31 21:47:07.0	94.510	0.210	0.030	-0.250
2020/01/31 21:47:07.1	94.490	0.220	0.000	-0.300
2020/01/31 21:47:07.2	94.460	0.230	-0.020	-0.350
2020/01/31 21:47:07.3	94.430	0.250	-0.050	-0.390
2020/01/31 21:47:07.4	94.410	0.250	-0.080	-0.430
2020/01/31 21:47:07.5	94.380	0.260	-0.110	-0.470
2020/01/31 21:47:07.6	94.360	0.270	-0.140	-0.520
2020/01/31 21:47:07.7	94.330	0.280	-0.170	-0.550
2020/01/31 21:47:07.8	94.300	0.280	-0.200	-0.590
2020/01/31 21:47:07.9	94.280	0.280	-0.230	-0.630
2020/01/31 21:47:08.0	94.260	0.280	-0.270	-0.660
2020/01/31 21:47:08.1	94.240	0.280	-0.300	-0.690
2020/01/31 21:47:08.2	94.210	0.280	-0.330	-0.720
2020/01/31 21:47:08.3	94.190	0.280	-0.360	-0.750
2020/01/31 21:47:08.4	94.170	0.280	-0.390	-0.770
2020/01/31 21:47:08.5	94.150	0.270	-0.420	-0.800
2020/01/31 21:47:08.6	94.130	0.260	-0.440	-0.820
2020/01/31 21:47:08.7	94.110	0.260	-0.470	-0.830
2020/01/31 21:47:08.8	94.090	0.250	-0.490	-0.850
2020/01/31 21:47:08.9	94.080	0.240	-0.510	-0.860
2020/01/31 21:47:09.0	94.050	0.230	-0.530	-0.870
2020/01/31 21:47:09.1	94.040	0.220	-0.540	-0.870
2020/01/31 21:47:09.2	94.020	0.210	-0.550	-0.880
2020/01/31 21:47:09.3	94.010	0.200	-0.560	-0.870
2020/01/31 21:47:09.4	94.000	0.190	-0.570	-0.870
2020/01/31 21:47:09.5	93.990	0.180	-0.570	-0.860
2020/01/31 21:47:09.6	93.980	0.170	-0.570	-0.850
2020/01/31 21:47:09.7	93.970	0.150	-0.560	-0.840
2020/01/31 21:47:09.8	93.970	0.140	-0.550	-0.830
2020/01/31 21:47:09.9	93.960	0.130	-0.540	-0.810
2020/01/31 21:47:10.0	93.980	0.110	-0.530	-0.790
2020/01/31 21:47:10.1	93.980	0.100	-0.510	-0.770
2020/01/31 21:47:10.2	93.980	0.080	-0.490	-0.750
2020/01/31 21:47:10.3	93.990	0.070	-0.470	-0.730
2020/01/31 21:47:10.4	94.000	0.050	-0.440	-0.710
2020/01/31 21:47:10.5	94.010	0.040	-0.410	-0.690
2020/01/31 21:47:10.6	94.020	0.020	-0.390	-0.660
2020/01/31 21:47:10.7	94.030	0.010	-0.350	-0.640
2020/01/31 21:47:10.8	94.050	-0.010	-0.320	-0.610
2020/01/31 21:47:10.9	94.070	-0.020	-0.290	-0.580
2020/01/31 21:47:11.0	94.080	-0.040	-0.250	-0.560
2020/01/31 21:47:11.1	94.100	-0.060	-0.220	-0.530
2020/01/31 21:47:11.2	94.130	-0.070	-0.180	-0.500
2020/01/31 21:47:11.3	94.150	-0.090	-0.150	-0.470
2020/01/31 21:47:11.4	94.170	-0.100	-0.110	-0.430
2020/01/31 21:47:11.5	94.200	-0.120	-0.070	-0.400
2020/01/31 21:47:11.6	94.220	-0.130	-0.040	-0.360
2020/01/31 21:47:11.7	94.250	-0.150	-0.000	-0.320
2020/01/31 21:47:11.8	94.270	-0.160	0.030	-0.280
2020/01/31 21:47:11.9	94.300	-0.170	0.070	-0.240
2020/01/31 21:47:12.0	94.310	-0.190	0.100	-0.190
2020/01/31 21:47:12.1	94.330	-0.200	0.130	-0.140
2020/01/31 21:47:12.2	94.360	-0.210	0.160	-0.090
2020/01/31 21:47:12.3	94.380	-0.220	0.180	-0.040
2020/01/31 21:47:12.4	94.390	-0.230	0.210	0.020
2020/01/31 21:47:12.5	94.410	-0.240	0.230	0.070
2020/01/31 21:47:12.6	94.430	-0.250	0.250	0.140
2020/01/31 21:47:12.7	94.440	-0.260	0.270	0.200
2020/01/31 21:47:12.8	94.450	-0.260	0.280	0.260
2020/01/31 21:47:12.9	94.460	-0.270	0.290	0.330
2020/01/31 21:47:13.0	94.470	-0.270	0.310	0.400
2020/01/31 21:47:13.1	94.480	-0.280	0.310	0.470
2020/01/31 21:47:13.2	94.480	-0.280	0.310	0.540
2020/01/31 21:47:13.3	94.490	-0.280	0.310	0.610
2020/01/31 21:47:13.4	94.500	-0.280	0.310	0.690
2020/01/31 21:47:13.5	94.500	-0.270	0.310	0.760
2020/01/31 21:47:13.6	94.500	-0.270	0.300	0.830
2020/01/31 21:47:13.7	94.500	-0.270	0.280	0.900
2020/01/31 21:47:13.8	94.510	-0.260	0.270	0.970
2020/01/31 21:47:13.9	94.510	-0.250	0.250	1.040
2020/01/31 21:47:14.0	94.500	-0.240	0.230	1.110
2020/01/31 21:47:14.1	94.500	-0.240	0.210	1.180
2020/01/31 21:47:14.2	94.500	-0.220	0.180	1.240
2020/01/31 21:47:14.3	94.500	-0.210	0.160	1.300
2020/01/31 21:47:14.4	94.490	-0.200	0.130	1.360
2020/01/31 21:47:14.5	94.490	-0.190	0.100	1.410
2020/01/31 21:47:14.6	94.480	-0.170	0.070	1.460
2020/01/31 21:47:14.7	94.480	-0.160	0.030	1.500
2020/01/31 21:47:14.8	94.470	-0.140	-0.000	1.550
2020/01/31 21:47:14.9	94.470	-0.130	-0.040	1.580
2020/01/31 21:47:15.0	94.460	-0.110	-0.070	1.620
2020/01/31 21:47:15.1	94.450	-0.090	-0.110	1.640
2020/01/31 21:47:15.2	94.440	-0.070	-0.140	1.670
2020/01/31 21:47:15.3	94.430	-0.060	-0.180	1.690
2020/01/31 21:47:15.4	94.430	-0.040	-0.210	1.700
2020/01/31 21:47:15.5	94.420	-0.020	-0.250	1.720
2020/01/31 21:47:15.6	94.410	0.000	-0.280	1.720
2020/01/31 21:47:15.7	94.410	0.020	-0.310	1.730
2020/01/31 21:47:15.8	94.400	0.040	-0.340	1.730
2020/01/31 21:47:15.9	94.390	0.050	-0.370	1.720
2020/01/31 21:47:16.0	94.390	0.070	-0.400	1.710
2020/01/31 21:47:16.1	94.380	0.090	-0.420	1.700
2020/01/31 21:47:16.2	94.380	0.100	-0.440	1.680
2020/01/31 21:47:16.3	94.380	0.120	-0.450	1.660
2020/01/31 21:47:16.4	94.380	0.130	-0.470	1.640
2020/01/31 21:47:16.5	94.370	0.150	-0.470	1.620
2020/01/31 21:47:16.6	94.370	0.160	-0.480	1.590
2020/01/31 21:47:16.7	94.370	0.170	-0.480	1.560
2020/01/31 21:47:16.8	94.370	0.180	-0.480	1.530
2020/01/31 21:47:16.9	94.370	0.180	-0.470	1.490
2020/01/31 21:47:17.0	94.380	0.190	-0.460	1.450
2020/01/31 21:47:17.1	94.380	0.200	-0.450	1.410
2020/01/31 21:47:17.2	94.380	0.200	-0.430	1.380
2020/01/31 21:47:17.3	94.380	0.200	-0.410	1.340
2020/01/31 21:47:17.4	94.380	0.200	-0.390	1.300
2020/01/31 21:47:17.5	94.370	0.200	-0.370	1.260
2020/01/31 21:47:17.6	94.370	0.190	-0.350	1.220
2020/01/31 21:47:17.7	94.370	0.190	-0.320	1.180
2020/01/31 21:47:17.8	94.360	0.180	-0.290	1.140
2020/01/31 21:47:17.9	94.360	0.180	-0.270	1.100
2020/01/31 21:47:18.0	94.360	0.170	-0.240	1.060
2020/01/31 21:47:18.1	94.360	0.160	-0.210	1.020
2020/01/31 21:47:18.2	94.350	0.150	-0.190	0.980
2020/01/31 21:47:18.3	94.350	0.130	-0.160	0.940
2020/01/31 21:47:18.4	94.340	0.120	-0.140	0.900
2020/01/31 21:47:18.5	94.340	0.110	-0.110	0.870
2020/01/31 21:47:18.6	94.340	0.090	-0.090	0.830
2020/01/31 21:47:18.7	94.340	0.070	-0.080	0.790
2020/01/31 21:47:18.8	94.340	0.060	-0.060	0.750
2020/01/31 21:47:18.9	94.340	0.040	-0.050	0.710
2020/01/31 21:47:19.0	94.330	0.030	-0.040	0.670
2020/01/31 21:47:19.1	94.340	0.010	-0.040	0.630
2020/01/31 21:47:19.2	94.340	-0.010	-0.040	0.590
2020/01/31 21:47:19.3	94.350	-0.020	-0.040	0.540
2020/01/31 21:47:19.4	94.360	-0.040	-0.050	0.500
2020/01/31 21:47:19.5	94.370	-0.060	-0.060	0.460
2020/01/31 21:47:19.6	94.380	-0.070	-0.070	0.410
2020/01/31 21:47:19.7	94.390	-0.090	-0.090	0.360
2020/01/31 21:47:19.8	94.400	-0.100	-0.110	0.320
2020/01/31 21:47:19.9	94.410	-0.120	-0.130	0.270
2020/01/31 21:47:20.0	94.430	-0.130	-0.160	0.220
2020/01/31 21:47:20.1	94.450	-0.140	-0.190	0.170
2020/01/31 21:47:20.2	94.460	-0.160	-0.220	0.130
2020/01/31 21:47:20.3	94.470	-0.170	-0.240	0.080
2020/01/31 21:47:20.4	94.490	-0.180	-0.270	0.040
2020/01/31 21:47:20.5	94.500	-0.190	-0.300	-0.010
2020/01/31 21:47:20.6	94.510	-0.200	-0.330	-0.050
2020/01/31 21:47:20.7	94.520	-0.210	-0.360	-0.100
2020/01/31 21:47:20.8	94.530	-0.220	-0.390	-0.140
2020/01/31 21:47:20.9	94.540	-0.220	-0.420	-0.180
2020/01/31 21:47:21.0	94.550	-0.230	-0.440	-0.220
2020/01/31 21:47:21.1	94.550	-0.230	-0.460	-0.260
2020/01/31 21:47:21.2	94.550	-0.240	-0.480	-0.290
2020/01/31 21:47:21.3	94.560	-0.240	-0.500	-0.320
2020/01/31 21:47:21.4	94.560	-0.240	-0.510	-0.360
2020/01/31 21:47:21.5	94.560	-0.240	-0.520	-0.380
2020/01/31 21:47:21.6	94.550	-0.240	-0.530	-0.410
2020/01/31 21:47:21.7	94.550	-0.240	-0.540	-0.430
2020/01/31 21:47:21.8	94.550	-0.240	-0.540	-0.450
2020/01/31 21:47:21.9	94.540	-0.230	-0.540	-0.470
2020/01/31 21:47:22.0	94.510	-0.230	-0.540	-0.490
2020/01/31 21:47:22.1	94.510	-0.220	-0.540	-0.500
2020/01/31 21:47:22.2	94.500	-0.210	-0.530	-0.510
2020/01/31 21:47:22.3	94.490	-0.200	-0.520	-0.520
2020/01/31 21:47:22.4	94.480	-0.190	-0.510	-0.530
2020/01/31 21:47:22.5	94.470	-0.180	-0.490	-0.530
2020/01/31 21:47:22.6	94.470	-0.160	-0.480	-0.530
2020/01/31 21:47:22.7	94.460	-0.150	-0.460	-0.530
2020/01/31 21:47:22.8	94.450	-0.130	-0.440	-0.520
2020/01/31 21:47:22.9	94.440	-0.110	-0.420	-0.520
2020/01/31 21:47:23.0	94.430	-0.090	-0.400	-0.510
2020/01/31 21:47:23.1	94.420	-0.070	-0.380	-0.500
2020/01/31 21:47:23.2	94.410	-0.050	-0.360	-0.490
2020/01/31 21:47:23.3	94.400	-0.020	-0.340	-0.480
2020/01/31 21:47:23.4	94.390	-0.000	-0.320	-0.470
2020/01/31 21:47:23.5	94.390	0.020	-0.300	-0.460
2020/01/31 21:47:23.6	94.380	0.050	-0.280	-0.440
2020/01/31 21:47:23.7	94.380	0.080	-0.260	-0.430
2020/01/31 21:47:23.8	94.380	0.100	-0.240	-0.410
2020/01/31 21:47:23.9	94.380	0.130	-0.220	-0.400
2020/01/31 21:47:24.0	94.400	0.160	-0.200	-0.380
2020/01/31 21:47:24.1	94.400	0.180	-0.180	-0.370
2020/01/31 21:47:24.2	94.410	0.210	-0.160	-0.360
2020/01/31 21:47:24.3	94.420	0.240	-0.150	-0.350
2020/01/31 21:47:24.4	94.430	0.260	-0.130	-0.340
2020/01/31 21:47:24.5	94.440	0.280	-0.120	-0.330
2020/01/31 21:47:24.6	94.460	0.310	-0.100	-0.320
2020/01/31 21:47:24.7	94.470	0.330	-0.090	-0.310
2020/01/31 21:47:24.8	94.490	0.350	-0.080	-0.300
2020/01/31 21:47:24.9	94.510	0.370	-0.070	-0.290
2020/01/31 21:47:25.0	94.550	0.390	-0.060	-0.290
2020/01/31 21:47:25.1	94.570	0.400	-0.040	-0.280
2020/01/31 21:47:25.2	94.590	0.420	-0.030	-0.280
2020/01/31 21:47:25.3	94.620	0.430	-0.020	-0.270
2020/01/31 21:47:25.4	94.640	0.440	-0.010	-0.260
2020/01/31 21:47:25.5	94.660	0.450	0.000	-0.260
2020/01/31 21:47:25.6	94.690	0.450	0.020	-0.250
2020/01/31 21:47:25.7	94.710	0.450	0.030	-0.240
2020/01/31 21:47:25.8	94.730	0.450	0.050	-0.240
2020/01/31 21:47:25.9	94.750	0.450	0.070	-0.230
2020/01/31 21:47:26.0	94.780	0.450	0.090	-0.210
2020/01/31 21:47:26.1	94.790	0.440	0.110	-0.200
2020/01/31 21:47:26.2	94.810	0.430	0.130	-0.180
2020/01/31 21:47:26.3	94.830	0.410	0.150	-0.160
2020/01/31 21:47:26.4	94.840	0.400	0.170	-0.140
2020/01/31 21:47:26.5	94.850	0.380	0.200	-0.120
2020/01/31 21:47:26.6	94.870	0.360	0.220	-0.090
2020/01/31 21:47:26.7	94.880	0.340	0.250	-0.060
2020/01/31 21:47:26.8	94.880	0.310	0.280	-0.030
2020/01/31 21:47:26.9	94.890	0.290	0.300	0.010
2020/01/31 21:47:27.0	94.890	0.260	0.330	0.050
2020/01/31 21:47:27.1	94.900	0.230	0.350	0.090
2020/01/31 21:47:27.2	94.900	0.200	0.380	0.140
2020/01/31 21:47:27.3	94.900	0.160	0.400	0.190
2020/01/31 21:47:27.4	94.900	0.130	0.420	0.240
2020/01/31 21:47:27.5	94.900	0.090	0.440	0.290
2020/01/31 21:47:27.6	94.900	0.060	0.450	0.350
2020/01/31 21:47:27.7	94.900	0.020	0.470	0.410
2020/01/31 21:47:27.8	94.900	-0.010	0.480	0.470
2020/01/31 21:47:27.9	94.890	-0.050	0.480	0.530
2020/01/31 21:47:28.0	94.880	-0.080	0.490	0.590
2020/01/31 21:47:28.1	94.880	-0.120	0.480	0.660
2020/01/31 21:47:28.2	94.870	-0.150	0.480	0.720
2020/01/31 21:47:28.3	94.860	-0.190	0.460	0.790
2020/01/31 21:47:28.4	94.850	-0.220	0.450	0.860
2020/01/31 21:47:28.5	94.840	-0.250	0.430	0.930
2020/01/31 21:47:28.6	94.830	-0.280	0.400	0.990
2020/01/31 21:47:28.7	94.820	-0.310	0.370	1.060
2020/01/31 21:47:28.8	94.810	-0.330	0.330	1.130
2020/01/31 21:47:28.9	94.800	-0.360	0.290	1.200
2020/01/31 21:47:29.0	94.790	-0.380	0.250	1.260
2020/01/31 21:47:29.1	94.780	-0.400	0.200	1.320
2020/01/31 21:47:29.2	94.770	-0.420	0.140	1.380
2020/01/31 21:47:29.3	94.770	-0.430	0.090	1.440
2020/01/31 21:47:29.4	94.760	-0.440	0.020	1.500
2020/01/31 21:47:29.5	94.760	-0.450	-0.040	1.550
2020/01/31 21:47:29.6	94.750	-0.460	-0.110	1.600
2020/01/31 21:47:29.7	94.750	-0.460	-0.180	1.650
2020/01/31 21:47:29.8	94.750	-0.460	-0.260	1.690
2020/01/31 21:47:29.9	94.750	-0.460	-0.330	1.740
2020/01/31 21:47:30.0	94.750	-0.460	-0.410	1.780
2020/01/31 21:47:30.1	94.750	-0.450	-0.490	1.810
2020/01/31 21:47:30.2	94.760	-0.440	-0.560	1.850
2020/01/31 21:47:30.3	94.760	-0.430	-0.630	1.880
2020/01/31 21:47:30.4	94.770	-0.410	-0.710	1.910
2020/01/31 21:47:30.5	94.780	-0.400	-0.780	1.930
2020/01/31 21:47:30.6	94.780	-0.380	-0.840	1.960
2020/01/31 21:47:30.7	94.790	-0.360	-0.910	1.980
2020/01/31 21:47:30.8	94.800	-0.330	-0.970	2.000
2020/01/31 21:47:30.9	94.810	-0.310	-1.020	2.010
2020/01/31 21:47:31.0	94.820	-0.290	-1.070	2.030
2020/01/31 21:47:31.1	94.830	-0.260	-1.120	2.040
2020/01/31 21:47:31.2	94.830	-0.230	-1.150	2.050
2020/01/31 21:47:31.3	94.840	-0.200	-1.190	2.060
2020/01/31 21:47:31.4	94.850	-0.180	-1.210	2.070
2020/01/31 21:47:31.5	94.850	-0.150	-1.230	2.070
2020/01/31 21:47:31.6	94.860	-0.120	-1.240	2.070
2020/01/31 21:47:31.7	94.860	-0.090	-1.240	2.070
2020/01/31 21:47:31.8	94.870	-0.060	-1.240	2.070
2020/01/31 21:47:31.9	94.870	-0.040	-1.230	2.070
2020/01/31 21:47:32.0	94.870	-0.010	-1.210	2.060
2020/01/31 21:47:32.1	94.870	0.010	-1.180	2.050
2020/01/31 21:47:32.2	94.870	0.040	-1.150	2.040
2020/01/31 21:47:32.3	94.870	0.060	-1.110	2.030
2020/01/31 21:47:32.4	94.860	0.080	-1.060	2.020
2020/01/31 21:47:32.5	94.860	0.100	-1.000	2.000
2020/01/31 21:47:32.6	94.850	0.120	-0.940	1.980
2020/01/31 21:47:32.7	94.850	0.130	-0.880	1.960
2020/01/31 21:47:32.8	94.840	0.150	-0.800	1.930
2020/01/31 21:47:32.9	94.830	0.160	-0.720	1.900
2020/01/31 21:47:33.0	94.830	0.170	-0.640	1.870
2020/01/31 21:47:33.1	94.820	0.170	-0.550	1.840
2020/01/31 21:47:33.2	94.810	0.180	-0.460	1.810
2020/01/31 21:47:33.3	94.800	0.180	-0.370	1.770
2020/01/31 21:47:33.4	94.780	0.180	-0.270	1.730
2020/01/31 21:47:33.5	94.770	0.170	-0.180	1.690
2020/01/31 21:47:33.6	94.760	0.170	-0.080	1.650
2020/01/31 21:47:33.7	94.740	0.160	0.010	1.600
2020/01/31 21:47:33.8	94.730	0.150	0.110	1.550
2020/01/31 21:47:33.9	94.710	0.140	0.200	1.500
2020/01/31 21:47:34.0	94.700	0.130	0.290	1.450
2020/01/31 21:47:34.1	94.680	0.120	0.370	1.400
2020/01/31 21:47:34.2	94.660	0.100	0.450	1.340
2020/01/31 21:47:34.3	94.650	0.080	0.530	1.280
2020/01/31 21:47:34.4	94.630	0.070	0.600	1.220
2020/01/31 21:47:34.5	94.610	0.050	0.670	1.160
2020/01/31 21:47:34.6	94.590	0.030	0.720	1.100
2020/01/31 21:47:34.7	94.570	0.010	0.780	1.030
2020/01/31 21:47:34.8	94.550	-0.000	0.820	0.960
2020/01/31 21:47:34.9	94.540	-0.020	0.860	0.890
2020/01/31 21:47:35.0	94.520	-0.040	0.890	0.820
2020/01/31 21:47:35.1	94.500	-0.060	0.900	0.750
2020/01/31 21:47:35.2	94.490	-0.070	0.910	0.680
2020/01/31 21:47:35.3	94.470	-0.090	0.920	0.600
2020/01/31 21:47:35.4	94.460	-0.100	0.910	0.520
2020/01/31 21:47:35.5	94.450	-0.110	0.890	0.440
2020/01/31 21:47:35.6	94.440	-0.120	0.870	0.370
2020/01/31 21:47:35.7	94.430	-0.130	0.830	0.290
2020/01/31 21:47:35.8	94.420	-0.140	0.790	0.210
2020/01/31 21:47:35.9	94.410	-0.140	0.740	0.130
2020/01/31 21:47:36.0	94.400	-0.140	0.680	0.040
2020/01/31 21:47:36.1	94.400	-0.140	0.610	-0.040
2020/01/31 21:47:36.2	94.400	-0.140	0.540	-0.120
2020/01/31 21:47:36.3	94.400	-0.140	0.460	-0.200
2020/01/31 21:47:36.4	94.410	-0.130	0.370	-0.270
2020/01/31 21:47:36.5	94.410	-0.120	0.280	-0.350
2020/01/31 21:47:36.6	94.420	-0.110	0.180	-0.430
2020/01/31 21:47:36.7	94.430	-0.100	0.080	-0.500
2020/01/31 21:47:36.8	94.440	-0.080	-0.020	-0.580
2020/01/31 21:47:36.9	94.450	-0.060	-0.120	-0.650
2020/01/31 21:47:37.0	94.470	-0.050	-0.220	-0.720
2020/01/31 21:47:37.1	94.480	-0.030	-0.320	-0.790
2020/01/31 21:47:37.2	94.500	-0.010	-0.430	-0.850
2020/01/31 21:47:37.3	94.510	0.020	-0.530	-0.910
2020/01/31 21:47:37.4	94.530	0.040	-0.620	-0.970
2020/01/31 21:47:37.5	94.550	0.060	-0.710	-1.030
2020/01/31 21:47:37.6	94.570	0.080	-0.800	-1.080
2020/01/31 21:47:37.7	94.590	0.110	-0.880	-1.130
2020/01/31 21:47:37.8	94.600	0.130	-0.960	-1.180
2020/01/31 21:47:37.9	94.620	0.150	-1.030	-1.220
2020/01/31 21:47:38.0	94.640	0.170	-1.090	-1.250
2020/01/31 21:47:38.1	94.650	0.190	-1.140	-1.280
2020/01/31 21:47:38.2	94.660	0.210	-1.180	-1.310
2020/01/31 21:47:38.3	94.680	0.230	-1.220	-1.340
2020/01/31 21:47:38.4	94.690	0.250	-1.240	-1.360
2020/01/31 21:47:38.5	94.700	0.260	-1.250	-1.370
2020/01/31 21:47:38.6	94.710	0.270	-1.250	-1.390
2020/01/31 21:47:38.7	94.720	0.280	-1.240	-1.390
2020/01/31 21:47:38.8	94.720	0.290	-1.230	-1.390
2020/01/31 21:47:38.9	94.730	0.290	-1.200	-1.390
2020/01/31 21:47:39.0	94.730	0.300	-1.160	-1.370
2020/01/31 21:47:39.1	94.740	0.300	-1.110	-1.360
2020/01/31 21:47:39.2	94.740	0.290	-1.060	-1.340
2020/01/31 21:47:39.3	94.740	0.290	-1.000	-1.310
2020/01/31 21:47:39.4	94.730	0.280	-0.930	-1.280
2020/01/31 21:47:39.5	94.730	0.270	-0.860	-1.240
2020/01/31 21:47:39.6	94.720	0.260	-0.780	-1.200
2020/01/31 21:47:39.7	94.720	0.250	-0.690	-1.160
2020/01/31 21:47:39.8	94.710	0.230	-0.610	-1.110
2020/01/31 21:47:39.9	94.700	0.210	-0.520	-1.050
2020/01/31 21:47:40.0	94.680	0.200	-0.420	-0.990
2020/01/31 21:47:40.1	94.670	0.170	-0.330	-0.930
2020/01/31 21:47:40.2	94.660	0.150	-0.240	-0.860
2020/01/31 21:47:40.3	94.640	0.130	-0.140	-0.790
2020/01/31 21:47:40.4	94.620	0.110	-0.050	-0.720
2020/01/31 21:47:40.5	94.600	0.080	0.040	-0.640
2020/01/31 21:47:40.6	94.570	0.060	0.120	-0.560
2020/01/31 21:47:40.7	94.550	0.030	0.200	-0.470
2020/01/31 21:47:40.8	94.520	0.010	0.280	-0.390
2020/01/31 21:47:40.9	94.490	-0.010	0.350	-0.300
2020/01/31 21:47:41.0	94.440	-0.040	0.420	-0.200
2020/01/31 21:47:41.1	94.410	-0.060	0.480	-0.110
2020/01/31 21:47:41.2	94.380	-0.080	0.540	-0.010
2020/01/31 21:47:41.3	94.350	-0.100	0.590	0.080
2020/01/31 21:47:41.4	94.320	-0.110	0.630	0.180
2020/01/31 21:47:41.5	94.290	-0.130	0.670	0.280
2020/01/31 21:47:41.6	94.250	-0.140	0.690	0.380
2020/01/31 21:47:41.7	94.220	-0.150	0.710	0.470
2020/01/31 21:47:41.8	94.190	-0.160	0.720	0.570
2020/01/31 21:47:41.9	94.160	-0.160	0.730	0.660
2020/01/31 21:47:42.0	94.140	-0.170	0.730	0.750
2020/01/31 21:47:42.1	94.120	-0.170	0.720	0.840
2020/01/31 21:47:42.2	94.090	-0.170	0.700	0.920
2020/01/31 21:47:42.3	94.070	-0.170	0.670	1.000
2020/01/31 21:47:42.4	94.060	-0.160	0.640	1.070
2020/01/31 21:47:42.5	94.040	-0.150	0.600	1.140
2020/01/31 21:47:42.6	94.030	-0.140	0.560	1.210
2020/01/31 21:47:42.7	94.020	-0.130	0.510	1.270
2020/01/31 21:47:42.8	94.010	-0.120	0.450	1.330
2020/01/31 21:47:42.9	94.010	-0.100	0.390	1.380
2020/01/31 21:47:43.0	94.020	-0.090	0.320	1.430
2020/01/31 21:47:43.1	94.020	-0.070	0.250	1.470
2020/01/31 21:47:43.2	94.020	-0.050	0.180	1.510
2020/01/31 21:47:43.3	94.030	-0.030	0.100	1.540
2020/01/31 21:47:43.4	94.040	-0.010	0.030	1.570
2020/01/31 21:47:43.5	94.050	0.010	-0.050	1.600
2020/01/31 21:47:43.6	94.070	0.030	-0.130	1.620
2020/01/31 21:47:43.7	94.080	0.050	-0.210	1.640
2020/01/31 21:47:43.8	94.100	0.070	-0.280	1.650
2020/01/31 21:47:43.9	94.120	0.090	-0.360	1.660
2020/01/31 21:47:44.0	94.140	0.110	-0.430	1.670
2020/01/31 21:47:44.1	94.160	0.130	-0.500	1.670
2020/01/31 21:47:44.2	94.180	0.150	-0.570	1.680
2020/01/31 21:47:44.3	94.200	0.160	-0.630	1.680
2020/01/31 21:47:44.4	94.220	0.180	-0.690	1.680
2020/01/31 21:47:44.5	94.240	0.190	-0.740	1.670
2020/01/31 21:47:44.6	94.270	0.200	-0.790	1.670
2020/01/31 21:47:44.7	94.290	0.210	-0.840	1.660
2020/01/31 21:47:44.8	94.310	0.220	-0.880	1.660
2020/01/31 21:47:44.9	94.330	0.230	-0.910	1.650
2020/01/31 21:47:45.0	94.360	0.230	-0.930	1.640
2020/01/31 21:47:45.1	94.380	0.230	-0.950	1.640
2020/01/31 21:47:45.2	94.390	0.230	-0.960	1.630
2020/01/31 21:47:45.3	94.410	0.230	-0.970	1.620
2020/01/31 21:47:45.4	94.430	0.220	-0.970	1.620
2020/01/31 21:47:45.5	94.440	0.220	-0.960	1.610
2020/01/31 21:47:45.6	94.450	0.210	-0.940	1.610
2020/01/31 21:47:45.7	94.470	0.200	-0.920	1.600
2020/01/31 21:47:45.8	94.480	0.180	-0.890	1.600
2020/01/31 21:47:45.9	94.490	0.170	-0.860	1.590
2020/01/31 21:47:46.0	94.500	0.150	-0.810	1.590
2020/01/31 21:47:46.1	94.510	0.130	-0.770	1.590
2020/01/31 21:47:46.2	94.510	0.110	-0.710	1.580
2020/01/31 21:47:46.3	94.520	0.090	-0.660	1.580
2020/01/31 21:47:46.4	94.520	0.070	-0.590	1.570
2020/01/31 21:47:46.5	94.530	0.050	-0.530	1.570
2020/01/31 21:47:46.6	94.530	0.020	-0.460	1.560
2020/01/31 21:47:46.7	94.530	-0.000	-0.390	1.550
2020/01/31 21:47:46.8	94.530	-0.030	-0.320	1.540
2020/01/31 21:47:46.9	94.530	-0.060	-0.240	1.530
2020/01/31 21:47:47.0	94.530	-0.080	-0.170	1.520
2020/01/31 21:47:47.1	94.530	-0.110	-0.090	1.510
2020/01/31 21:47:47.2	94.530	-0.140	-0.020	1.490
2020/01/31 21:47:47.3	94.520	-0.160	0.060	1.480
2020/01/31 21:47:47.4	94.520	-0.190	0.130	1.460
2020/01/31 21:47:47.5	94.510	-0.220	0.200	1.440
2020/01/31 21:47:47.6	94.510	-0.240	0.270	1.420
2020/01/31 21:47:47.7	94.500	-0.270	0.330	1.400
2020/01/31 21:47:47.8	94.500	-0.290	0.400	1.370
2020/01/31 21:47:47.9	94.490	-0.310	0.450	1.350
2020/01/31 21:47:48.0	94.480	-0.340	0.510	1.320
2020/01/31 21:47:48.1	94.470	-0.360	0.560	1.290
2020/01/31 21:47:48.2	94.460	-0.380	0.600	1.250
2020/01/31 21:47:48.3	94.450	-0.390	0.630	1.220
2020/01/31 21:47:48.4	94.440	-0.410	0.660	1.180
2020/01/31 21:47:48.5	94.430	-0.420	0.680	1.140
2020/01/31 21:47:48.6	94.420	-0.440	0.700	1.100
2020/01/31 21:47:48.7	94.400	-0.450	0.710	1.060
2020/01/31 21:47:48.8	94.390	-0.460	0.710	1.020
2020/01/31 21:47:48.9	94.370	-0.460	0.710	0.980
2020/01/31 21:47:49.0	94.350	-0.470	0.690	0.930
2020/01/31 21:47:49.1	94.330	-0.470	0.670	0.880
2020/01/31 21:47:49.2	94.320	-0.470	0.650	0.830
2020/01/31 21:47:49.3	94.300	-0.470	0.620	0.790
2020/01/31 21:47:49.4	94.280	-0.460	0.580	0.740
2020/01/31 21:47:49.5	94.270	-0.450	0.540	0.690
2020/01/31 21:47:49.6	94.250	-0.440	0.490	0.640
2020/01/31 21:47:49.7	94.240	-0.430	0.430	0.580
2020/01/31 21:47:49.8	94.220	-0.420	0.370	0.530
2020/01/31 21:47:49.9	94.210	-0.400	0.310	0.480
2020/01/31 21:47:50.0	94.210	-0.380	0.250	0.420
2020/01/31 21:47:50.1	94.200	-0.360	0.180	0.370
2020/01/31 21:47:50.2	94.190	-0.340	0.100	0.320
2020/01/31 21:47:50.3	94.180	-0.320	0.030	0.270
2020/01/31 21:47:50.4	94.170	-0.290	-0.050	0.210
2020/01/31 21:47:50.5	94.160	-0.260	-0.120	0.160
2020/01/31 21:47:50.6	94.150	-0.230	-0.200	0.110
2020/01/31 21:47:50.7	94.140	-0.210	-0.270	0.060
2020/01/31 21:47:50.8	94.140	-0.170	-0.350	0.010
2020/01/31 21:47:50.9	94.130	-0.140	-0.420	-0.040
2020/01/31 21:47:51.0	94.130	-0.110	-0.500	-0.080
2020/01/31 21:47:51.1	94.120	-0.080	-0.570	-0.130
2020/01/31 21:47:51.2	94.120	-0.050	-0.640	-0.170
2020/01/31 21:47:51.3	94.120	-0.010	-0.700	-0.220
2020/01/31 21:47:51.4	94.120	0.020	-0.760	-0.260
2020/01/31 21:47:51.5	94.120	0.050	-0.820	-0.300
2020/01/31 21:47:51.6	94.120	0.080	-0.870	-0.350
2020/01/31 21:47:51.7	94.130	0.110	-0.920	-0.390
2020/01/31 21:47:51.8	94.130	0.140	-0.960	-0.430
2020/01/31 21:47:51.9	94.140	0.170	-1.000	-0.470
2020/01/31 21:47:52.0	94.150	0.200	-1.030	-0.510
2020/01/31 21:47:52.1	94.150	0.230	-1.060	-0.550
2020/01/31 21:47:52.2	94.160	0.260	-1.080	-0.580
2020/01/31 21:47:52.3	94.170	0.280	-1.100	-0.620
2020/01/31 21:47:52.4	94.180	0.310	-1.110	-0.660
2020/01/31 21:47:52.5	94.190	0.330	-1.120	-0.690
2020/01/31 21:47:52.6	94.210	0.350	-1.120	-0.720
2020/01/31 21:47:52.7	94.220	0.370	-1.120	-0.760
2020/01/31 21:47:52.8	94.230	0.390	-1.110	-0.790
2020/01/31 21:47:52.9	94.240	0.410	-1.090	-0.810
2020/01/31 21:47:53.0	94.270	0.420	-1.080	-0.830
2020/01/31 21:47:53.1	94.280	0.440	-1.050	-0.860
2020/01/31 21:47:53.2	94.290	0.450	-1.020	-0.880
2020/01/31 21:47:53.3	94.300	0.460	-0.990	-0.890
2020/01/31 21:47:53.4	94.320	0.470	-0.950	-0.910
2020/01/31 21:47:53.5	94.330	0.470	-0.910	-0.920
2020/01/31 21:47:53.6	94.340	0.480	-0.860	-0.930
2020/01/31 21:47:53.7	94.360	0.480	-0.810	-0.930
2020/01/31 21:47:53.8	94.370	0.480	-0.750	-0.930
2020/01/31 21:47:53.9	94.380	0.480	-0.690	-0.920
2020/01/31 21:47:54.0	94.390	0.480	-0.630	-0.920
2020/01/31 21:47:54.1	94.400	0.480	-0.570	-0.900
2020/01/31 21:47:54.2	94.410	0.470	-0.500	-0.880
2020/01/31 21:47:54.3	94.430	0.460	-0.430	-0.860
2020/01/31 21:47:54.4	94.440	0.450	-0.360	-0.830
2020/01/31 21:47:54.5	94.450	0.440	-0.290	-0.800
2020/01/31 21:47:54.6	94.470	0.430	-0.220	-0.770
2020/01/31 21:47:54.7	94.480	0.420	-0.140	-0.720
2020/01/31 21:47:54.8	94.500	0.400	-0.070	-0.680
2020/01/31 21:47:54.9	94.510	0.390	0.000	-0.630
2020/01/31 21:47:55.0	94.520	0.370	0.070	-0.570
2020/01/31 21:47:55.1	94.530	0.350	0.140	-0.520
2020/01/31 21:47:55.2	94.550	0.330	0.210	-0.460
2020/01/31 21:47:55.3	94.560	0.310	0.280	-0.390
2020/01/31 21:47:55.4	94.580	0.290	0.340	-0.330
2020/01/31 21:47:55.5	94.590	0.270	0.400	-0.260
2020/01/31 21:47:55.6	94.610	0.250	0.460	-0.190
2020/01/31 21:47:55.7	94.630	0.220	0.510	-0.110
2020/01/31 21:47:55.8	94.650	0.200	0.560	-0.040
2020/01/31 21:47:55.9	94.670	0.170	0.600	0.040
2020/01/31 21:47:56.0	94.680	0.150	0.640	0.120
2020/01/31 21:47:56.1	94.700	0.120	0.670	0.190
2020/01/31 21:47:56.2	94.720	0.100	0.700	0.270
2020/01/31 21:47:56.3	94.740	0.080	0.720	0.350
2020/01/31 21:47:56.4	94.760	0.050	0.730	0.430
2020/01/31 21:47:56.5	94.780	0.030	0.750	0.510
2020/01/31 21:47:56.6	94.800	0.000	0.750	0.590
2020/01/31 21:47:56.7	94.820	-0.020	0.750	0.670
2020/01/31 21:47:56.8	94.840	-0.040	0.740	0.750
2020/01/31 21:47:56.9	94.860	-0.070	0.730	0.830
2020/01/31 21:47:57.0	94.890	-0.090	0.710	0.910
2020/01/31 21:47:57.1	94.910	-0.110	0.690	0.980
2020/01/31 21:47:57.2	94.920	-0.130	0.670	1.060
2020/01/31 21:47:57.3	94.940	-0.150	0.640	1.140
2020/01/31 21:47:57.4	94.950	-0.170	0.610	1.210
2020/01/31 21:47:57.5	94.960	-0.180	0.570	1.290
2020/01/31 21:47:57.6	94.980	-0.200	0.530	1.360
2020/01/31 21:47:57.7	94.990	-0.220	0.490	1.440
2020/01/31 21:47:57.8	95.000	-0.230	0.450	1.510
2020/01/31 21:47:57.9	95.000	-0.250	0.400	1.580
2020/01/31 21:47:58.0	95.010	-0.260	0.360	1.650
2020/01/31 21:47:58.1	95.020	-0.270	0.310	1.720
2020/01/31 21:47:58.2	95.020	-0.290	0.260	1.780
2020/01/31 21:47:58.3	95.020	-0.300	0.210	1.850
2020/01/31 21:47:58.4	95.020	-0.310	0.170	1.910
2020/01/31 21:47:58.5	95.020	-0.320	0.120	1.970
2020/01/31 21:47:58.6	95.010	-0.330	0.070	2.030
2020/01/31 21:47:58.7	95.000	-0.340	0.020	2.080
2020/01/31 21:47:58.8	95.000	-0.350	-0.030	2.140
2020/01/31 21:47:58.9	94.990	-0.360	-0.080	2.190
2020/01/31 21:47:59.0	94.960	-0.370	-0.130	2.240
2020/01/31 21:47:59.1	94.950	-0.370	-0.170	2.290
2020/01/31 21:47:59.2	94.930	-0.380	-0.210	2.340
2020/01/31 21:47:59.3	94.910	-0.390	-0.260	2.380
2020/01/31 21:47:59.4	94.900	-0.390	-0.300	2.430
2020/01/31 21:47:59.5	94.880	-0.390	-0.340	2.470
2020/01/31 21:47:59.6	94.860	-0.400	-0.370	2.520
2020/01/31 21:47:59.7	94.830	-0.400	-0.410	2.560
2020/01/31 21:47:59.8	94.810	-0.400	-0.440	2.600
2020/01/31 21:47:59.9	94.790	-0.400	-0.470	2.630
2020/01/31 21:48:00.0	94.770	-0.400	-0.500	2.670
2020/01/31 21:48:00.1	94.740	-0.400	-0.530	2.700
2020/01/31 21:48:00.2	94.720	-0.390	-0.550	2.730
2020/01/31 21:48:00.3	94.700	-0.390	-0.580	2.760
2020/01/31 21:48:00.4	94.670	-0.380	-0.600	2.780
2020/01/31 21:48:00.5	94.650	-0.370	-0.620	2.790
2020/01/31 21:48:00.6	94.630	-0.360	-0.640	2.800
2020/01/31 21:48:00.7	94.610	-0.350	-0.660	2.810
2020/01/31 21:48:00.8	94.590	-0.330	-0.670	2.810
2020/01/31 21:48:00.9	94.570	-0.320	-0.690	2.810
2020/01/31 21:48:01.0	94.550	-0.300	-0.700	2.800
2020/01/31 21:48:01.1	94.530	-0.280	-0.710	2.790
2020/01/31 21:48:01.2	94.520	-0.260	-0.720	2.770
2020/01/31 21:48:01.3	94.520	-0.240	-0.730	2.740
2020/01/31 21:48:01.4	94.510	-0.220	-0.740	2.710
2020/01/31 21:48:01.5	94.510	-0.190	-0.740	2.670
2020/01/31 21:48:01.6	94.520	-0.170	-0.740	2.630
2020/01/31 21:48:01.7	94.520	-0.140	-0.750	2.580
2020/01/31 21:48:01.8	94.530	-0.110	-0.750	2.520
2020/01/31 21:48:01.9	94.550	-0.080	-0.740	2.460
2020/01/31 21:48:02.0	94.570	-0.050	-0.740	2.390
2020/01/31 21:48:02.1	94.590	-0.020	-0.740	2.320
2020/01/31 21:48:02.2	94.610	0.010	-0.730	2.250
2020/01/31 21:48:02.3	94.640	0.040	-0.720	2.170
2020/01/31 21:48:02.4	94.660	0.080	-0.720	2.080
2020/01/31 21:48:02.5	94.700	0.110	-0.710	1.990
2020/01/31 21:48:02.6	94.730	0.140	-0.690	1.900
2020/01/31 21:48:02.7	94.760	0.170	-0.680	1.810
2020/01/31 21:48:02.8	94.800	0.200	-0.670	1.710
2020/01/31 21:48:02.9	94.840	0.240	-0.650	1.610
2020/01/31 21:48:03.0	94.870	0.260	-0.640	1.510
2020/01/31 21:48:03.1	94.910	0.290	-0.620	1.410
2020/01/31 21:48:03.2	94.950	0.320	-0.600	1.310
2020/01/31 21:48:03.3	94.980	0.340	-0.580	1.210
2020/01/31 21:48:03.4	95.020	0.370	-0.550	1.110
2020/01/31 21:48:03.5	95.050	0.390	-0.530	1.010
2020/01/31 21:48:03.6	95.080	0.410	-0.500	0.910
2020/01/31 21:48:03.7	95.110	0.420	-0.470	0.810
2020/01/31 21:48:03.8	95.130	0.440	-0.440	0.710
2020/01/31 21:48:03.9	95.150	0.450	-0.420	0.620
2020/01/31 21:48:04.0	95.180	0.460	-0.380	0.530
2020/01/31 21:48:04.1	95.200	0.470	-0.350	0.440
2020/01/31 21:48:04.2	95.210	0.470	-0.320	0.350
2020/01/31 21:48:04.3	95.210	0.470	-0.290	0.260
2020/01/31 21:48:04.4	95.210	0.470	-0.260	0.180
2020/01/31 21:48:04.5	95.210	0.470	-0.220	0.100
2020/01/31 21:48:04.6	95.210	0.460	-0.190	0.020
2020/01/31 21:48:04.7	95.200	0.460	-0.160	-0.060
2020/01/31 21:48:04.8	95.190	0.450	-0.130	-0.140
2020/01/31 21:48:04.9	95.180	0.430	-0.090	-0.210
2020/01/31 21:48:05.0	95.150	0.420	-0.060	-0.290
2020/01/31 21:48:05.1	95.140	0.400	-0.030	-0.360
2020/01/31 21:48:05.2	95.120	0.390	0.000	-0.430
2020/01/31 21:48:05.3	95.100	0.370	0.030	-0.500
2020/01/31 21:48:05.4	95.080	0.350	0.070	-0.570
2020/01/31 21:48:05.5	95.060	0.330	0.100	-0.640
2020/01/31 21:48:05.6	95.050	0.300	0.120	-0.710
2020/01/31 21:48:05.7	95.030	0.280	0.150	-0.770
2020/01/31 21:48:05.8	95.010	0.260	0.180	-0.840
2020/01/31 21:48:05.9	94.990	0.230	0.200	-0.900
2020/01/31 21:48:06.0	94.970	0.210	0.220	-0.970
2020/01/31 21:48:06.1	94.950	0.190	0.240	-1.030
2020/01/31 21:48:06.2	94.940	0.160	0.260	-1.090
2020/01/31 21:48:06.3	94.930	0.140	0.280	-1.150
2020/01/31 21:48:06.4	94.920	0.120	0.290	-1.200
2020/01/31 21:48:06.5	94.910	0.100	0.310	-1.250
2020/01/31 21:48:06.6	94.900	0.080	0.310	-1.300
2020/01/31 21:48:06.7	94.900	0.060	0.320	-1.350
2020/01/31 21:48:06.8	94.900	0.040	0.330	-1.390
2020/01/31 21:48:06.9	94.900	0.020	0.330	-1.430
2020/01/31 21:48:07.0	94.910	0.010	0.320	-1.460
2020/01/31 21:48:07.1	94.910	-0.000	0.320	-1.500
2020/01/31 21:48:07.2	94.920	-0.020	0.310	-1.530
2020/01/31 21:48:07.3	94.930	-0.030	0.300	-1.550
2020/01/31 21:48:07.4	94.930	-0.040	0.290	-1.570
2020/01/31 21:48:07.5	94.940	-0.050	0.270	-1.580
2020/01/31 21:48:07.6	94.960	-0.050	0.260	-1.600
2020/01/31 21:48:07.7	94.970	-0.060	0.240	-1.600
2020/01/31 21:48:07.8	94.980	-0.060	0.220	-1.600
2020/01/31 21:48:07.9	95.000	-0.070	0.190	-1.600
2020/01/31 21:48:08.0	95.010	-0.070	0.170	-1.590
2020/01/31 21:48:08.1	95.020	-0.070	0.140	-1.580
2020/01/31 21:48:08.2	95.040	-0.070	0.120	-1.560
2020/01/31 21:48:08.3	95.060	-0.080	0.090	-1.530
2020/01/31 21:48:08.4	95.080	-0.080	0.060	-1.500
2020/01/31 21:48:08.5	95.100	-0.080	0.040	-1.460
2020/01/31 21:48:08.6	95.120	-0.080	0.010	-1.420
2020/01/31 21:48:08.7	95.140	-0.080	-0.020	-1.370
2020/01/31 21:48:08.8	95.160	-0.080	-0.040	-1.320
2020/01/31 21:48:08.9	95.180	-0.090	-0.070	-1.260
2020/01/31 21:48:09.0	95.200	-0.090	-0.090	-1.190
2020/01/31 21:48:09.1	95.210	-0.090	-0.110	-1.120
2020/01/31 21:48:09.2	95.230	-0.100	-0.130	-1.050
2020/01/31 21:48:09.3	95.240	-0.100	-0.150	-0.970
2020/01/31 21:48:09.4	95.250	-0.110	-0.170	-0.890
2020/01/31 21:48:09.5	95.260	-0.120	-0.190	-0.800
2020/01/31 21:48:09.6	95.270	-0.120	-0.200	-0.720
2020/01/31 21:48:09.7	95.280	-0.130	-0.220	-0.620
2020/01/31 21:48:09.8	95.280	-0.140	-0.230	-0.530
2020/01/31 21:48:09.9	95.290	-0.160	-0.240	-0.440
2020/01/31 21:48:10.0	95.280	-0.170	-0.250	-0.340
2020/01/31 21:48:10.1	95.280	-0.180	-0.250	-0.240
2020/01/31 21:48:10.2	95.280	-0.200	-0.260	-0.140
2020/01/31 21:48:10.3	95.280	-0.210	-0.260	-0.040
2020/01/31 21:48:10.4	95.280	-0.230	-0.260	0.060
2020/01/31 21:48:10.5	95.280	-0.240	-0.260	0.160
2020/01/31 21:48:10.6	95.280	-0.260	-0.260	0.270
2020/01/31 21:48:10.7	95.280	-0.270	-0.260	0.370
2020/01/31 21:48:10.8	95.270	-0.290	-0.250	0.470
2020/01/31 21:48:10.9	95.270	-0.310	-0.250	0.580
2020/01/31 21:48:11.0	95.280	-0.320	-0.240	0.680
2020/01/31 21:48:11.1	95.280	-0.340	-0.230	0.790
2020/01/31 21:48:11.2	95.280	-0.360	-0.220	0.890
2020/01/31 21:48:11.3	95.270	-0.370	-0.220	0.990
2020/01/31 21:48:11.4	95.270	-0.380	-0.210	1.100
2020/01/31 21:48:11.5	95.270	-0.400	-0.210	1.200
2020/01/31 21:48:11.6	95.270	-0.410	-0.200	1.300
2020/01/31 21:48:11.7	95.270	-0.420	-0.200	1.400
2020/01/31 21:48:11.8	95.270	-0.420	-0.190	1.490
2020/01/31 21:48:11.9	95.270	-0.430	-0.190	1.590
2020/01/31 21:48:12.0	95.270	-0.430	-0.190	1.690
2020/01/31 21:48:12.1	95.280	-0.430	-0.190	1.780
2020/01/31 21:48:12.2	95.280	-0.430	-0.200	1.880
2020/01/31 21:48:12.3	95.280	-0.430	-0.200	1.970
2020/01/31 21:48:12.4	95.290	-0.420	-0.210	2.050
2020/01/31 21:48:12.5	95.290	-0.420	-0.220	2.140
2020/01/31 21:48:12.6	95.300	-0.400	-0.230	2.220
2020/01/31 21:48:12.7	95.310	-0.390	-0.240	2.300
2020/01/31 21:48:12.8	95.320	-0.370	-0.260	2.380
2020/01/31 21:48:12.9	95.320	-0.360	-0.280	2.450
2020/01/31 21:48:13.0	95.340	-0.340	-0.300	2.520
2020/01/31 21:48:13.1	95.350	-0.310	-0.320	2.590
2020/01/31 21:48:13.2	95.360	-0.290	-0.340	2.650
2020/01/31 21:48:13.3	95.370	-0.260	-0.360	2.700
2020/01/31 21:48:13.4	95.380	-0.230	-0.380	2.750
2020/01/31 21:48:13.5	95.390	-0.200	-0.400	2.800
2020/01/31 21:48:13.6	95.400	-0.170	-0.430	2.840
2020/01/31 21:48:13.7	95.420	-0.130	-0.450	2.870
2020/01/31 21:48:13.8	95.430	-0.090	-0.470	2.900
2020/01/31 21:48:13.9	95.440	-0.060	-0.490	2.930
2020/01/31 21:48:14.0	95.460	-0.020	-0.510	2.950
2020/01/31 21:48:14.1	95.470	0.020	-0.530	2.960
2020/01/31 21:48:14.2	95.480	0.060	-0.550	2.970
2020/01/31 21:48:14.3	95.490	0.100	-0.570	2.970
2020/01/31 21:48:14.4	95.500	0.140	-0.580	2.970
2020/01/31 21:48:14.5	95.510	0.180	-0.590	2.960
2020/01/31 21:48:14.6	95.520	0.210	-0.600	2.940
2020/01/31 21:48:14.7	95.530	0.250	-0.610	2.920
2020/01/31 21:48:14.8	95.540	0.290	-0.610	2.890
2020/01/31 21:48:14.9	95.540	0.320	-0.610	2.850
2020/01/31 21:48:15.0	95.550	0.360	-0.610	2.810
2020/01/31 21:48:15.1	95.560	0.390	-0.610	2.760
2020/01/31 21:48:15.2	95.570	0.420	-0.600	2.710
2020/01/31 21:48:15.3	95.580	0.450	-0.590	2.650
2020/01/31 21:48:15.4	95.590	0.480	-0.580	2.580
2020/01/31 21:48:15.5	95.600	0.510	-0.560	2.510
2020/01/31 21:48:15.6	95.610	0.530	-0.550	2.430
2020/01/31 21:48:15.7	95.620	0.550	-0.530	2.350
2020/01/31 21:48:15.8	95.630	0.570	-0.500	2.260
2020/01/31 21:48:15.9	95.640	0.580	-0.480	2.170
2020/01/31 21:48:16.0	95.650	0.590	-0.450	2.070
2020/01/31 21:48:16.1	95.660	0.600	-0.420	1.970
2020/01/31 21:48:16.2	95.670	0.610	-0.390	1.870
2020/01/31 21:48:16.3	95.690	0.620	-0.360	1.760
2020/01/31 21:48:16.4	95.700	0.620	-0.330	1.660
2020/01/31 21:48:16.5	95.710	0.610	-0.290	1.550
2020/01/31 21:48:16.6	95.720	0.610	-0.260	1.440
2020/01/31 21:48:16.7	95.730	0.600	-0.220	1.320
2020/01/31 21:48:16.8	95.740	0.590	-0.180	1.210
2020/01/31 21:48:16.9	95.750	0.580	-0.140	1.100
2020/01/31 21:48:17.0	95.750	0.560	-0.110	0.980
2020/01/31 21:48:17.1	95.760	0.540	-0.070	0.870
2020/01/31 21:48:17.2	95.770	0.520	-0.030	0.760
2020/01/31 21:48:17.3	95.780	0.490	0.010	0.650
2020/01/31 21:48:17.4	95.790	0.470	0.040	0.540
2020/01/31 21:48:17.5	95.800	0.440	0.080	0.430
2020/01/31 21:48:17.6	95.800	0.400	0.110	0.320
2020/01/31 21:48:17.7	95.810	0.370	0.150	0.220
2020/01/31 21:48:17.8	95.820	0.330	0.180	0.120
2020/01/31 21:48:17.9	95.830	0.300	0.210	0.020
2020/01/31 21:48:18.0	95.830	0.260	0.230	-0.080
2020/01/31 21:48:18.1	95.830	0.220	0.260	-0.180
2020/01/31 21:48:18.2	95.840	0.180	0.280	-0.270
2020/01/31 21:48:18.3	95.840	0.140	0.300	-0.360
2020/01/31 21:48:18.4	95.850	0.090	0.320	-0.440
2020/01/31 21:48:18.5	95.850	0.050	0.330	-0.530
2020/01/31 21:48:18.6	95.850	0.010	0.350	-0.600
2020/01/31 21:48:18.7	95.850	-0.030	0.350	-0.680
2020/01/31 21:48:18.8	95.860	-0.070	0.360	-0.750
2020/01/31 21:48:18.9	95.860	-0.110	0.360	-0.820
2020/01/31 21:48:19.0	95.860	-0.150	0.370	-0.890
2020/01/31 21:48:19.1	95.860	-0.190	0.370	-0.960
2020/01/31 21:48:19.2	95.860	-0.230	0.360	-1.020
2020/01/31 21:48:19.3	95.870	-0.260	0.350	-1.070
2020/01/31 21:48:19.4	95.870	-0.290	0.340	-1.130
2020/01/31 21:48:19.5	95.870	-0.320	0.330	-1.180
2020/01/31 21:48:19.6	95.870	-0.350	0.320	-1.220
2020/01/31 21:48:19.7	95.880	-0.370	0.300	-1.270
2020/01/31 21:48:19.8	95.880	-0.400	0.280	-1.310
2020/01/31 21:48:19.9	95.890	-0.420	0.260	-1.350
2020/01/31 21:48:20.0	95.900	-0.430	0.230	-1.380
2020/01/31 21:48:20.1	95.910	-0.450	0.210	-1.420
2020/01/31 21:48:20.2	95.930	-0.460	0.180	-1.450
2020/01/31 21:48:20.3	95.940	-0.470	0.150	-1.470
2020/01/31 21:48:20.4	95.950	-0.470	0.120	-1.490
2020/01/31 21:48:20.5	95.960	-0.480	0.090	-1.510
2020/01/31 21:48:20.6	95.980	-0.480	0.060	-1.530
2020/01/31 21:48:20.7	96.000	-0.480	0.020	-1.540
2020/01/31 21:48:20.8	96.010	-0.470	-0.010	-1.550
2020/01/31 21:48:20.9	96.030	-0.470	-0.050	-1.550
2020/01/31 21:48:21.0	96.060	-0.460	-0.080	-1.550
2020/01/31 21:48:21.1	96.080	-0.450	-0.120	-1.540
2020/01/31 21:48:21.2	96.100	-0.430	-0.150	-1.530
2020/01/31 21:48:21.3	96.110	-0.420	-0.180	-1.520
2020/01/31 21:48:21.4	96.130	-0.400	-0.220	-1.510
2020/01/31 21:48:21.5	96.150	-0.380	-0.250	-1.490
2020/01/31 21:48:21.6	96.170	-0.360	-0.280	-1.460
2020/01/31 21:48:21.7	96.190	-0.340	-0.310	-1.430
2020/01/31 21:48:21.8	96.210	-0.320	-0.340	-1.400
2020/01/31 21:48:21.9	96.220	-0.300	-0.370	-1.360
2020/01/31 21:48:22.0	96.240	-0.270	-0.400	-1.320
2020/01/31 21:48:22.1	96.250	-0.250	-0.420	-1.280
2020/01/31 21:48:22.2	96.270	-0.220	-0.440	-1.230
2020/01/31 21:48:22.3	96.290	-0.200	-0.460	-1.170
2020/01/31 21:48:22.4	96.300	-0.180	-0.480	-1.110
2020/01/31 21:48:22.5	96.320	-0.150	-0.500	-1.050
2020/01/31 21:48:22.6	96.330	-0.130	-0.510	-0.990
2020/01/31 21:48:22.7	96.350	-0.110	-0.520	-0.920
2020/01/31 21:48:22.8	96.360	-0.090	-0.530	-0.840
2020/01/31 21:48:22.9	96.370	-0.070	-0.530	-0.770
2020/01/31 21:48:23.0	96.380	-0.050	-0.530	-0.690
2020/01/31 21:48:23.1	96.400	-0.030	-0.530	-0.610
2020/01/31 21:48:23.2	96.410	-0.010	-0.530	-0.530
2020/01/31 21:48:23.3	96.430	0.000	-0.530	-0.440
2020/01/31 21:48:23.4	96.440	0.020	-0.520	-0.360
2020/01/31 21:48:23.5	96.460	0.030	-0.510	-0.280
2020/01/31 21:48:23.6	96.480	0.050	-0.500	-0.190
2020/01/31 21:48:23.7	96.490	0.060	-0.490	-0.110
2020/01/31 21:48:23.8	96.510	0.070	-0.480	-0.020
2020/01/31 21:48:23.9	96.530	0.080	-0.460	0.060
2020/01/31 21:48:24.0	96.540	0.090	-0.450	0.140
2020/01/31 21:48:24.1	96.550	0.100	-0.440	0.230
2020/01/31 21:48:24.2	96.570	0.100	-0.420	0.310
2020/01/31 21:48:24.3	96.590	0.110	-0.400	0.390
2020/01/31 21:48:24.4	96.620	0.110	-0.390	0.460
2020/01/31 21:48:24.5	96.640	0.120	-0.370	0.540
2020/01/31 21:48:24.6	96.660	0.120	-0.360	0.610
2020/01/31 21:48:24.7	96.680	0.130	-0.340	0.690
2020/01/31 21:48:24.8	96.710	0.130	-0.330	0.760
2020/01/31 21:48:24.9	96.730	0.140	-0.310	0.820
2020/01/31 21:48:25.0	96.750	0.140	-0.300	0.890
2020/01/31 21:48:25.1	96.780	0.140	-0.290	0.960
2020/01/31 21:48:25.2	96.800	0.140	-0.280	1.020
2020/01/31 21:48:25.3	96.830	0.150	-0.270	1.080
2020/01/31 21:48:25.4	96.860	0.150	-0.260	1.140
2020/01/31 21:48:25.5	96.880	0.150	-0.250	1.190
2020/01/31 21:48:25.6	96.900	0.150	-0.240	1.250
2020/01/31 21:48:25.7	96.930	0.150	-0.240	1.310
2020/01/31 21:48:25.8	96.950	0.150	-0.230	1.360
2020/01/31 21:48:25.9	96.970	0.150	-0.230	1.410
2020/01/31 21:48:26.0	96.990	0.150	-0.220	1.460
2020/01/31 21:48:26.1	97.010	0.150	-0.220	1.520
2020/01/31 21:48:26.2	97.030	0.150	-0.210	1.570
2020/01/31 21:48:26.3	97.050	0.150	-0.210	1.620
2020/01/31 21:48:26.4	97.070	0.150	-0.200	1.680
2020/01/31 21:48:26.5	97.080	0.150	-0.200	1.730
2020/01/31 21:48:26.6	97.100	0.140	-0.190	1.780
2020/01/31 21:48:26.7	97.110	0.140	-0.190	1.840
2020/01/31 21:48:26.8	97.130	0.130	-0.180	1.890
2020/01/31 21:48:26.9	97.140	0.130	-0.170	1.940
2020/01/31 21:48:27.0	97.170	0.120	-0.160	2.000
2020/01/31 21:48:27.1	97.180	0.110	-0.150	2.050
2020/01/31 21:48:27.2	97.190	0.100	-0.140	2.110
2020/01/31 21:48:27.3	97.200	0.090	-0.130	2.160
2020/01/31 21:48:27.4	97.210	0.080	-0.120	2.220
2020/01/31 21:48:27.5	97.210	0.060	-0.100	2.270
2020/01/31 21:48:27.6	97.220	0.050	-0.090	2.320
2020/01/31 21:48:27.7	97.220	0.030	-0.070	2.370
2020/01/31 21:48:27.8	97.230	0.010	-0.050	2.420
2020/01/31 21:48:27.9	97.230	-0.000	-0.030	2.470
2020/01/31 21:48:28.0	97.220	-0.020	-0.010	2.520
2020/01/31 21:48:28.1	97.220	-0.040	0.010	2.570
2020/01/31 21:48:28.2	97.220	-0.060	0.030	2.610
2020/01/31 21:48:28.3	97.210	-0.090	0.050	2.660
2020/01/31 21:48:28.4	97.210	-0.110	0.070	2.700
2020/01/31 21:48:28.5	97.200	-0.130	0.090	2.730
2020/01/31 21:48:28.6	97.190	-0.150	0.110	2.770
2020/01/31 21:48:28.7	97.180	-0.170	0.120	2.800
2020/01/31 21:48:28.8	97.170	-0.200	0.140	2.830
2020/01/31 21:48:28.9	97.160	-0.220	0.160	2.850
2020/01/31 21:48:29.0	97.150	-0.240	0.170	2.860
2020/01/31 21:48:29.1	97.140	-0.260	0.180	2.880
2020/01/31 21:48:29.2	97.120	-0.280	0.190	2.890
2020/01/31 21:48:29.3	97.110	-0.300	0.200	2.890
2020/01/31 21:48:29.4	97.090	-0.320	0.210	2.890
2020/01/31 21:48:29.5	97.070	-0.330	0.210	2.880
2020/01/31 21:48:29.6	97.060	-0.340	0.210	2.870
2020/01/31 21:48:29.7	97.040	-0.360	0.210	2.850
2020/01/31 21:48:29.8	97.020	-0.370	0.210	2.820
2020/01/31 21:48:29.9	97.000	-0.370	0.200	2.790
2020/01/31 21:48:30.0	97.000	-0.380	0.190	2.750
2020/01/31 21:48:30.1	96.980	-0.380	0.180	2.710
2020/01/31 21:48:30.2	96.970	-0.380	0.170	2.660
2020/01/31 21:48:30.3	96.950	-0.380	0.150	2.600
2020/01/31 21:48:30.4	96.940	-0.370	0.130	2.530
2020/01/31 21:48:30.5	96.930	-0.370	0.110	2.460
2020/01/31 21:48:30.6	96.910	-0.350	0.080	2.380
2020/01/31 21:48:30.7	96.900	-0.340	0.060	2.300
2020/01/31 21:48:30.8	96.890	-0.320	0.030	2.210
2020/01/31 21:48:30.9	96.890	-0.300	-0.000	2.120
2020/01/31 21:48:31.0	96.890	-0.280	-0.030	2.010
2020/01/31 21:48:31.1	96.890	-0.250	-0.070	1.900
2020/01/31 21:48:31.2	96.880	-0.230	-0.100	1.790
2020/01/31 21:48:31.3	96.890	-0.200	-0.140	1.670
2020/01/31 21:48:31.4	96.890	-0.160	-0.180	1.550
2020/01/31 21:48:31.5	96.890	-0.130	-0.210	1.420
2020/01/31 21:48:31.6	96.900	-0.090	-0.250	1.290
2020/01/31 21:48:31.7	96.910	-0.050	-0.290	1.160
2020/01/31 21:48:31.8	96.920	-0.010	-0.330	1.020
2020/01/31 21:48:31.9	96.930	0.030	-0.360	0.880
2020/01/31 21:48:32.0	96.920	0.080	-0.400	0.730
2020/01/31 21:48:32.1	96.940	0.120	-0.430	0.590
2020/01/31 21:48:32.2	96.950	0.160	-0.470	0.440
2020/01/31 21:48:32.3	96.980	0.210	-0.500	0.290
2020/01/31 21:48:32.4	97.000	0.250	-0.540	0.150
2020/01/31 21:48:32.5	97.020	0.300	-0.570	-0.000
2020/01/31 21:48:32.6	97.040	0.340	-0.600	-0.150
2020/01/31 21:48:32.7	97.070	0.380	-0.620	-0.300
2020/01/31 21:48:32.8	97.100	0.420	-0.650	-0.440
2020/01/31 21:48:32.9	97.120	0.460	-0.670	-0.590
2020/01/31 21:48:33.0	97.140	0.500	-0.690	-0.730
2020/01/31 21:48:33.1	97.170	0.540	-0.710	-0.870
2020/01/31 21:48:33.2	97.200	0.570	-0.730	-1.010
2020/01/31 21:48:33.3	97.230	0.600	-0.740	-1.140
2020/01/31 21:48:33.4	97.260	0.630	-0.750	-1.280
2020/01/31 21:48:33.5	97.290	0.650	-0.760	-1.400
2020/01/31 21:48:33.6	97.320	0.670	-0.760	-1.530
2020/01/31 21:48:33.7	97.350	0.690	-0.770	-1.640
2020/01/31 21:48:33.8	97.380	0.700	-0.760	-1.760
2020/01/31 21:48:33.9	97.420	0.710	-0.760	-1.860
2020/01/31 21:48:34.0	97.440	0.720	-0.750	-1.970
2020/01/31 21:48:34.1	97.460	0.720	-0.740	-2.060
2020/01/31 21:48:34.2	97.490	0.720	-0.730	-2.150
2020/01/31 21:48:34.3	97.520	0.710	-0.710	-2.220
2020/01/31 21:48:34.4	97.540	0.700	-0.680	-2.290
2020/01/31 21:48:34.5	97.560	0.690	-0.660	-2.350
2020/01/31 21:48:34.6	97.580	0.670	-0.630	-2.410
2020/01/31 21:48:34.7	97.600	0.640	-0.590	-2.450
2020/01/31 21:48:34.8	97.610	0.620	-0.560	-2.480
2020/01/31 21:48:34.9	97.620	0.590	-0.520	-2.500
2020/01/31 21:48:35.0	97.630	0.550	-0.470	-2.510
2020/01/31 21:48:35.1	97.640	0.510	-0.420	-2.520
2020/01/31 21:48:35.2	97.640	0.470	-0.380	-2.510
2020/01/31 21:48:35.3	97.640	0.430	-0.320	-2.490
2020/01/31 21:48:35.4	97.630	0.380	-0.270	-2.470
2020/01/31 21:48:35.5	97.630	0.330	-0.220	-2.430
2020/01/31 21:48:35.6	97.620	0.270	-0.160	-2.390
2020/01/31 21:48:35.7	97.600	0.220	-0.110	-2.330
2020/01/31 21:48:35.8	97.590	0.160	-0.050	-2.270
2020/01/31 21:48:35.9	97.570	0.100	0.010	-2.190
2020/01/31 21:48:36.0	97.540	0.040	0.070	-2.110
2020/01/31 21:48:36.1	97.520	-0.020	0.120	-2.020
2020/01/31 21:48:36.2	97.490	-0.080	0.180	-1.930
2020/01/31 21:48:36.3	97.460	-0.140	0.230	-1.820
2020/01/31 21:48:36.4	97.430	-0.200	0.280	-1.710
2020/01/31 21:48:36.5	97.400	-0.270	0.330	-1.590
2020/01/31 21:48:36.6	97.360	-0.330	0.380	-1.470
2020/01/31 21:48:36.7	97.330	-0.390	0.420	-1.340
2020/01/31 21:48:36.8	97.290	-0.440	0.460	-1.200
2020/01/31 21:48:36.9	97.250	-0.500	0.500	-1.060
2020/01/31 21:48:37.0	97.210	-0.550	0.540	-0.920
2020/01/31 21:48:37.1	97.170	-0.600	0.570	-0.770
2020/01/31 21:48:37.2	97.120	-0.650	0.590	-0.620
2020/01/31 21:48:37.3	97.080	-0.700	0.610	-0.470
2020/01/31 21:48:37.4	97.040	-0.740	0.630	-0.320
2020/01/31 21:48:37.5	96.990	-0.780	0.640	-0.170
2020/01/31 21:48:37.6	96.950	-0.810	0.650	-0.010
2020/01/31 21:48:37.7	96.910	-0.840	0.660	0.140
2020/01/31 21:48:37.8	96.870	-0.870	0.650	0.290
2020/01/31 21:48:37.9	96.830	-0.890	0.640	0.440
2020/01/31 21:48:38.0	96.800	-0.910	0.630	0.580
2020/01/31 21:48:38.1	96.770	-0.920	0.610	0.720
2020/01/31 21:48:38.2	96.740	-0.920	0.580	0.860
2020/01/31 21:48:38.3	96.710	-0.930	0.550	0.990
2020/01/31 21:48:38.4	96.690	-0.920	0.520	1.110
2020/01/31 21:48:38.5	96.680	-0.910	0.470	1.230
2020/01/31 21:48:38.6	96.670	-0.900	0.430	1.340
2020/01/31 21:48:38.7	96.660	-0.880	0.380	1.450
2020/01/31 21:48:38.8	96.660	-0.850	0.320	1.550
2020/01/31 21:48:38.9	96.660	-0.820	0.260	1.640
2020/01/31 21:48:39.0	96.690	-0.790	0.200	1.730
2020/01/31 21:48:39.1	96.700	-0.750	0.140	1.810
2020/01/31 21:48:39.2	96.710	-0.710	0.070	1.880
2020/01/31 21:48:39.3	96.730	-0.660	-0.000	1.950
2020/01/31 21:48:39.4	96.750	-0.610	-0.070	2.010
2020/01/31 21:48:39.5	96.770	-0.560	-0.140	2.060
2020/01/31 21:48:39.6	96.800	-0.500	-0.210	2.110
2020/01/31 21:48:39.7	96.830	-0.450	-0.280	2.150
2020/01/31 21:48:39.8	96.860	-0.390	-0.350	2.190
2020/01/31 21:48:39.9	96.900	-0.320	-0.410	2.220
2020/01/31 21:48:40.0	96.940	-0.260	-0.480	2.260
2020/01/31 21:48:40.1	96.970	-0.200	-0.540	2.280
2020/01/31 21:48:40.2	97.010	-0.130	-0.600	2.300
2020/01/31 21:48:40.3	97.050	-0.070	-0.650	2.310
2020/01/31 21:48:40.4	97.090	-0.010	-0.700	2.310
2020/01/31 21:48:40.5	97.120	0.060	-0.740	2.320
2020/01/31 21:48:40.6	97.160	0.120	-0.780	2.310
2020/01/31 21:48:40.7	97.200	0.180	-0.810	2.310
2020/01/31 21:48:40.8	97.230	0.230	-0.840	2.300
2020/01/31 21:48:40.9	97.260	0.290	-0.860	2.280
2020/01/31 21:48:41.0	97.300	0.340	-0.880	2.260
2020/01/31 21:48:41.1	97.330	0.390	-0.890	2.230
2020/01/31 21:48:41.2	97.360	0.430	-0.900	2.200
2020/01/31 21:48:41.3	97.380	0.480	-0.910	2.170
2020/01/31 21:48:41.4	97.400	0.510	-0.900	2.130
2020/01/31 21:48:41.5	97.420	0.550	-0.900	2.080
2020/01/31 21:48:41.6	97.440	0.580	-0.890	2.040
2020/01/31 21:48:41.7	97.450	0.610	-0.870	1.980
2020/01/31 21:48:41.8	97.460	0.630	-0.860	1.930
2020/01/31 21:48:41.9	97.470	0.650	-0.830	1.870
2020/01/31 21:48:42.0	97.470	0.660	-0.810	1.800
2020/01/31 21:48:42.1	97.470	0.670	-0.780	1.740
2020/01/31 21:48:42.2	97.470	0.680	-0.750	1.670
2020/01/31 21:48:42.3	97.470	0.680	-0.720	1.600
2020/01/31 21:48:42.4	97.470	0.680	-0.680	1.530
2020/01/31 21:48:42.5	97.460	0.670	-0.640	1.460
2020/01/31 21:48:42.6	97.460	0.660	-0.610	1.380
2020/01/31 21:48:42.7	97.450	0.650	-0.570	1.310
2020/01/31 21:48:42.8	97.440	0.640	-0.530	1.230
2020/01/31 21:48:42.9	97.430	0.620	-0.490	1.150
2020/01/31 21:48:43.0	97.410	0.600	-0.440	1.070
2020/01/31 21:48:43.1	97.400	0.580	-0.400	0.990
2020/01/31 21:48:43.2	97.380	0.550	-0.360	0.910
2020/01/31 21:48:43.3	97.370	0.530	-0.320	0.830
2020/01/31 21:48:43.4	97.350	0.500	-0.290	0.760
2020/01/31 21:48:43.5	97.330	0.470	-0.250	0.680
2020/01/31 21:48:43.6	97.310	0.440	-0.210	0.610
2020/01/31 21:48:43.7	97.300	0.400	-0.180	0.540
2020/01/31 21:48:43.8	97.280	0.370	-0.140	0.480
2020/01/31 21:48:43.9	97.250	0.330	-0.110	0.410
2020/01/31 21:48:44.0	97.220	0.300	-0.080	0.350
2020/01/31 21:48:44.1	97.190	0.260	-0.050	0.290
2020/01/31 21:48:44.2	97.170	0.220	-0.020	0.240
2020/01/31 21:48:44.3	97.140	0.190	0.000	0.200
2020/01/31 21:48:44.4	97.120	0.150	0.030	0.160
2020/01/31 21:48:44.5	97.090	0.110	0.050	0.120
2020/01/31 21:48:44.6	97.060	0.080	0.080	0.090
2020/01/31 21:48:44.7	97.030	0.040	0.100	0.060
2020/01/31 21:48:44.8	97.000	0.000	0.120	0.040
2020/01/31 21:48:44.9	96.970	-0.040	0.130	0.020
2020/01/31 21:48:45.0	96.920	-0.070	0.150	0.000
2020/01/31 21:48:45.1	96.880	-0.110	0.170	-0.010
2020/01/31 21:48:45.2	96.850	-0.150	0.180	-0.020
2020/01/31 21:48:45.3	96.820	-0.180	0.200	-0.020
2020/01/31 21:48:45.4	96.790	-0.220	0.210	-0.030
2020/01/31 21:48:45.5	96.760	-0.250	0.220	-0.030
2020/01/31 21:48:45.6	96.730	-0.280	0.230	-0.030
2020/01/31 21:48:45.7	96.710	-0.310	0.240	-0.030
2020/01/31 21:48:45.8	96.680	-0.340	0.240	-0.030
2020/01/31 21:48:45.9	96.650	-0.370	0.250	-0.030
2020/01/31 21:48:46.0	96.610	-0.400	0.260	-0.030
2020/01/31 21:48:46.1	96.590	-0.420	0.260	-0.030
2020/01/31 21:48:46.2	96.570	-0.440	0.260	-0.030
2020/01/31 21:48:46.3	96.550	-0.460	0.260	-0.040
2020/01/31 21:48:46.4	96.530	-0.480	0.250	-0.040
2020/01/31 21:48:46.5	96.520	-0.500	0.250	-0.050
2020/01/31 21:48:46.6	96.500	-0.510	0.240	-0.060
2020/01/31 21:48:46.7	96.490	-0.520	0.230	-0.070
2020/01/31 21:48:46.8	96.480	-0.530	0.220	-0.090
2020/01/31 21:48:46.9	96.470	-0.530	0.200	-0.110
2020/01/31 21:48:47.0	96.470	-0.530	0.180	-0.130
2020/01/31 21:48:47.1	96.460	-0.530	0.160	-0.150
2020/01/31 21:48:47.2	96.460	-0.530	0.140	-0.180
2020/01/31 21:48:47.3	96.460	-0.520	0.110	-0.210
2020/01/31 21:48:47.4	96.470	-0.510	0.090	-0.250
2020/01/31 21:48:47.5	96.470	-0.490	0.060	-0.280
2020/01/31 21:48:47.6	96.480	-0.470	0.020	-0.320
2020/01/31 21:48:47.7	96.490	-0.450	-0.010	-0.370
2020/01/31 21:48:47.8	96.500	-0.430	-0.050	-0.410
2020/01/31 21:48:47.9	96.510	-0.400	-0.090	-0.460
2020/01/31 21:48:48.0	96.520	-0.370	-0.130	-0.500
2020/01/31 21:48:48.1	96.540	-0.340	-0.170	-0.550
2020/01/31 21:48:48.2	96.550	-0.300	-0.220	-0.600
2020/01/31 21:48:48.3	96.570	-0.260	-0.260	-0.640
2020/01/31 21:48:48.4	96.590	-0.220	-0.300	-0.690
2020/01/31 21:48:48.5	96.610	-0.180	-0.350	-0.740
2020/01/31 21:48:48.6	96.640	-0.140	-0.390	-0.780
2020/01/31 21:48:48.7	96.660	-0.100	-0.430	-0.820
2020/01/31 21:48:48.8	96.680	-0.050	-0.480	-0.860
2020/01/31 21:48:48.9	96.700	-0.010	-0.520	-0.900
2020/01/31 21:48:49.0	96.730	0.040	-0.550	-0.930
2020/01/31 21:48:49.1	96.750	0.090	-0.590	-0.960
2020/01/31 21:48:49.2	96.770	0.130	-0.620	-0.980
2020/01/31 21:48:49.3	96.790	0.180	-0.650	-1.000
2020/01/31 21:48:49.4	96.810	0.220	-0.670	-1.010
2020/01/31 21:48:49.5	96.830	0.260	-0.700	-1.020
2020/01/31 21:48:49.6	96.850	0.300	-0.710	-1.020
2020/01/31 21:48:49.7	96.870	0.340	-0.730	-1.020
2020/01/31 21:48:49.8	96.890	0.380	-0.740	-1.010
2020/01/31 21:48:49.9	96.900	0.410	-0.740	-0.990
2020/01/31 21:48:50.0	96.920	0.440	-0.740	-0.960
2020/01/31 21:48:50.1	96.930	0.460	-0.740	-0.940
2020/01/31 21:48:50.2	96.940	0.490	-0.730	-0.900
2020/01/31 21:48:50.3	96.950	0.510	-0.710	-0.870
2020/01/31 21:48:50.4	96.960	0.520	-0.690	-0.820
2020/01/31 21:48:50.5	96.960	0.540	-0.670	-0.770
2020/01/31 21:48:50.6	96.960	0.550	-0.640	-0.720
2020/01/31 21:48:50.7	96.960	0.550	-0.610	-0.660
2020/01/31 21:48:50.8	96.960	0.550	-0.570	-0.600
2020/01/31 21:48:50.9	96.960	0.550	-0.530	-0.540
2020/01/31 21:48:51.0	96.990	0.540	-0.490	-0.470
2020/01/31 21:48:51.1	96.980	0.530	-0.440	-0.400
2020/01/31 21:48:51.2	96.970	0.510	-0.390	-0.330
2020/01/31 21:48:51.3	96.970	0.500	-0.340	-0.250
2020/01/31 21:48:51.4	96.960	0.480	-0.290	-0.180
2020/01/31 21:48:51.5	96.940	0.450	-0.240	-0.100
2020/01/31 21:48:51.6	96.930	0.420	-0.180	-0.020
2020/01/31 21:48:51.7	96.920	0.390	-0.120	0.060
2020/01/31 21:48:51.8	96.900	0.360	-0.070	0.140
2020/01/31 21:48:51.9	96.880	0.320	-0.010	0.220
2020/01/31 21:48:52.0	96.860	0.290	0.040	0.310
2020/01/31 21:48:52.1	96.840	0.250	0.100	0.390
2020/01/31 21:48:52.2	96.810	0.210	0.150	0.460
2020/01/31 21:48:52.3	96.790	0.170	0.200	0.540
2020/01/31 21:48:52.4	96.760	0.130	0.250	0.620
2020/01/31 21:48:52.5	96.740	0.080	0.290	0.700
2020/01/31 21:48:52.6	96.710	0.040	0.340	0.770
2020/01/31 21:48:52.7	96.680	0.000	0.380	0.850
2020/01/31 21:48:52.8	96.650	-0.040	0.410	0.920
2020/01/31 21:48:52.9	96.620	-0.080	0.450	0.990
2020/01/31 21:48:53.0	96.590	-0.120	0.470	1.060
2020/01/31 21:48:53.1	96.560	-0.160	0.500	1.130
2020/01/31 21:48:53.2	96.530	-0.190	0.520	1.190
2020/01/31 21:48:53.3	96.500	-0.230	0.530	1.260
2020/01/31 21:48:53.4	96.470	-0.260	0.550	1.320
2020/01/31 21:48:53.5	96.440	-0.280	0.550	1.380
2020/01/31 21:48:53.6	96.410	-0.310	0.560	1.440
2020/01/31 21:48:53.7	96.390	-0.330	0.560	1.490
2020/01/31 21:48:53.8	96.360	-0.350	0.550	1.550
2020/01/31 21:48:53.9	96.340	-0.370	0.540	1.600
2020/01/31 21:48:54.0	96.320	-0.390	0.530	1.650
2020/01/31 21:48:54.1	96.300	-0.400	0.510	1.700
2020/01/31 21:48:54.2	96.280	-0.400	0.480	1.740
2020/01/31 21:48:54.3	96.260	-0.410	0.460	1.790
2020/01/31 21:48:54.4	96.240	-0.410	0.420	1.830
2020/01/31 21:48:54.5	96.220	-0.410	0.390	1.870
2020/01/31 21:48:54.6	96.200	-0.400	0.350	1.900
2020/01/31 21:48:54.7	96.190	-0.400	0.310	1.940
2020/01/31 21:48:54.8	96.180	-0.390	0.260	1.970
2020/01/31 21:48:54.9	96.160	-0.370	0.210	2.000
2020/01/31 21:48:55.0	96.170	-0.360	0.160	2.020
2020/01/31 21:48:55.1	96.160	-0.340	0.100	2.050
2020/01/31 21:48:55.2	96.150	-0.320	0.050	2.070
2020/01/31 21:48:55.3	96.150	-0.300	-0.010	2.090
2020/01/31 21:48:55.4	96.150	-0.280	-0.070	2.100
2020/01/31 21:48:55.5	96.150	-0.260	-0.130	2.120
2020/01/31 21:48:55.6	96.150	-0.230	-0.190	2.130
2020/01/31 21:48:55.7	96.150	-0.200	-0.250	2.140
2020/01/31 21:48:55.8	96.160	-0.180	-0.320	2.140
2020/01/31 21:48:55.9	96.160	-0.150	-0.380	2.140
2020/01/31 21:48:56.0	96.180	-0.120	-0.440	2.140
2020/01/31 21:48:56.1	96.190	-0.090	-0.500	2.140
2020/01/31 21:48:56.2	96.190	-0.060	-0.560	2.140
2020/01/31 21:48:56.3	96.200	-0.040	-0.610	2.130
2020/01/31 21:48:56.4	96.210	-0.010	-0.670	2.120
2020/01/31 21:48:56.5	96.220	0.020	-0.720	2.110
2020/01/31 21:48:56.6	96.230	0.050	-0.770	2.100
2020/01/31 21:48:56.7	96.240	0.080	-0.820	2.080
2020/01/31 21:48:56.8	96.250	0.100	-0.860	2.060
2020/01/31 21:48:56.9	96.260	0.130	-0.900	2.040
2020/01/31 21:48:57.0	96.280	0.160	-0.940	2.020
2020/01/31 21:48:57.1	96.290	0.180	-0.980	1.990
2020/01/31 21:48:57.2	96.290	0.200	-1.000	1.960
2020/01/31 21:48:57.3	96.300	0.230	-1.030	1.930
2020/01/31 21:48:57.4	96.300	0.250	-1.050	1.900
2020/01/31 21:48:57.5	96.310	0.270	-1.060	1.860
2020/01/31 21:48:57.6	96.310	0.290	-1.070	1.820
2020/01/31 21:48:57.7	96.320	0.310	-1.080	1.770
2020/01/31 21:48:57.8	96.320	0.330	-1.080	1.720
2020/01/31 21:48:57.9	96.320	0.350	-1.070	1.670
2020/01/31 21:48:58.0	96.340	0.360	-1.070	1.620
2020/01/31 21:48:58.1	96.350	0.380	-1.050	1.560
2020/01/31 21:48:58.2	96.350	0.390	-1.030	1.500
2020/01/31 21:48:58.3	96.350	0.400	-1.010	1.440
2020/01/31 21:48:58.4	96.350	0.420	-0.980	1.370
2020/01/31 21:48:58.5	96.350	0.430	-0.940	1.300
2020/01/31 21:48:58.6	96.350	0.430	-0.910	1.230
2020/01/31 21:48:58.7	96.350	0.440	-0.860	1.160
2020/01/31 21:48:58.8	96.340	0.440	-0.810	1.090
2020/01/31 21:48:58.9	96.340	0.450	-0.760	1.020
2020/01/31 21:48:59.0	96.330	0.450	-0.700	0.950
2020/01/31 21:48:59.1	96.320	0.450	-0.640	0.880
2020/01/31 21:48:59.2	96.310	0.440	-0.580	0.810
2020/01/31 21:48:59.3	96.290	0.440	-0.510	0.740
2020/01/31 21:48:59.4	96.270	0.430	-0.440	0.670
2020/01/31 21:48:59.5	96.250	0.420	-0.370	0.600
2020/01/31 21:48:59.6	96.230	0.410	-0.290	0.530
2020/01/31 21:48:59.7	96.210	0.400	-0.210	0.470
2020/01/31 21:48:59.8	96.180	0.380	-0.130	0.410
2020/01/31 21:48:59.9	96.150	0.360	-0.050	0.340
2020/01/31 21:49:00.0	96.120	0.340	0.030	0.280
2020/01/31 21:49:00.1	96.090	0.320	0.110	0.220
2020/01/31 21:49:00.2	96.050	0.290	0.190	0.170
2020/01/31 21:49:00.3	96.020	0.270	0.270	0.110
2020/01/31 21:49:00.4	95.990	0.240	0.340	0.060
2020/01/31 21:49:00.5	95.950	0.210	0.410	0.010
2020/01/31 21:49:00.6	95.920	0.180	0.480	-0.040
2020/01/31 21:49:00.7	95.890	0.140	0.550	-0.090
2020/01/31 21:49:00.8	95.850	0.110	0.610	-0.140
2020/01/31 21:49:00.9	95.820	0.070	0.670	-0.180
2020/01/31 21:49:01.0	95.780	0.030	0.720	-0.230
2020/01/31 21:49:01.1	95.750	-0.000	0.760	-0.270
2020/01/31 21:49:01.2	95.720	-0.040	0.800	-0.310
2020/01/31 21:49:01.3	95.690	-0.080	0.840	-0.350
2020/01/31 21:49:01.4	95.660	-0.120	0.860	-0.390
2020/01/31 21:49:01.5	95.630	-0.160	0.880	-0.430
2020/01/31 21:49:01.6	95.610	-0.190	0.890	-0.470
2020/01/31 21:49:01.7	95.580	-0.230	0.890	-0.500
2020/01/31 21:49:01.8	95.560	-0.270	0.890	-0.530
2020/01/31 21:49:01.9	95.530	-0.300	0.880	-0.570
2020/01/31 21:49:02.0	95.500	-0.330	0.860	-0.600
2020/01/31 21:49:02.1	95.480	-0.360	0.840	-0.630
2020/01/31 21:49:02.2	95.460	-0.390	0.800	-0.650
2020/01/31 21:49:02.3	95.440	-0.420	0.770	-0.680
2020/01/31 21:49:02.4	95.420	-0.450	0.720	-0.700
2020/01/31 21:49:02.5	95.400	-0.470	0.670	-0.720
2020/01/31 21:49:02.6	95.380	-0.490	0.610	-0.730
2020/01/31 21:49:02.7	95.370	-0.510	0.550	-0.750
2020/01/31 21:49:02.8	95.350	-0.530	0.490	-0.760
2020/01/31 21:49:02.9	95.340	-0.540	0.420	-0.770
2020/01/31 21:49:03.0	95.320	-0.550	0.340	-0.780
2020/01/31 21:49:03.1	95.300	-0.560	0.270	-0.790
2020/01/31 21:49:03.2	95.290	-0.570	0.190	-0.790
2020/01/31 21:49:03.3	95.290	-0.570	0.110	-0.800
2020/01/31 21:49:03.4	95.280	-0.570	0.030	-0.800
2020/01/31 21:49:03.5	95.270	-0.570	-0.050	-0.800
2020/01/31 21:49:03.6	95.270	-0.570	-0.130	-0.790
2020/01/31 21:49:03.7	95.270	-0.560	-0.210	-0.790
2020/01/31 21:49:03.8	95.260	-0.550	-0.290	-0.790
2020/01/31 21:49:03.9	95.260	-0.540	-0.370	-0.780
2020/01/31 21:49:04.0	95.260	-0.530	-0.450	-0.760
2020/01/31 21:49:04.1	95.260	-0.520	-0.520	-0.750
2020/01/31 21:49:04.2	95.270	-0.500	-0.590	-0.740
2020/01/31 21:49:04.3	95.270	-0.490	-0.660	-0.720
2020/01/31 21:49:04.4	95.270	-0.470	-0.730	-0.700
2020/01/31 21:49:04.5	95.280	-0.450	-0.790	-0.680
2020/01/31 21:49:04.6	95.290	-0.430	-0.840	-0.660
2020/01/31 21:49:04.7	95.290	-0.400	-0.890	-0.630
2020/01/31 21:49:04.8	95.300	-0.380	-0.940	-0.600
2020/01/31 21:49:04.9	95.310	-0.360	-0.980	-0.570
2020/01/31 21:49:05.0	95.320	-0.330	-1.020	-0.540
2020/01/31 21:49:05.1	95.330	-0.300	-1.050	-0.500
2020/01/31 21:49:05.2	95.330	-0.280	-1.080	-0.460
2020/01/31 21:49:05.3	95.340	-0.250	-1.100	-0.410
2020/01/31 21:49:05.4	95.350	-0.220	-1.120	-0.370
2020/01/31 21:49:05.5	95.350	-0.190	-1.130	-0.320
2020/01/31 21:49:05.6	95.360	-0.160	-1.140	-0.260
2020/01/31 21:49:05.7	95.360	-0.130	-1.140	-0.210
2020/01/31 21:49:05.8	95.360	-0.100	-1.140	-0.150
2020/01/31 21:49:05.9	95.370	-0.070	-1.130	-0.100
2020/01/31 21:49:06.0	95.360	-0.040	-1.120	-0.030
2020/01/31 21:49:06.1	95.360	-0.010	-1.100	0.030
2020/01/31 21:49:06.2	95.360	0.020	-1.080	0.090
2020/01/31 21:49:06.3	95.370	0.050	-1.050	0.150
2020/01/31 21:49:06.4	95.370	0.070	-1.020	0.210
2020/01/31 21:49:06.5	95.370	0.100	-0.990	0.280
2020/01/31 21:49:06.6	95.370	0.130	-0.950	0.340
2020/01/31 21:49:06.7	95.370	0.150	-0.900	0.400
2020/01/31 21:49:06.8	95.370	0.180	-0.850	0.460
2020/01/31 21:49:06.9	95.370	0.200	-0.800	0.520
2020/01/31 21:49:07.0	95.350	0.230	-0.750	0.580
2020/01/31 21:49:07.1	95.340	0.250	-0.690	0.640
2020/01/31 21:49:07.2	95.340	0.270	-0.630	0.700
2020/01/31 21:49:07.3	95.330	0.290	-0.570	0.760
2020/01/31 21:49:07.4	95.320	0.310	-0.500	0.810
2020/01/31 21:49:07.5	95.310	0.320	-0.440	0.860
2020/01/31 21:49:07.6	95.300	0.340	-0.370	0.910
2020/01/31 21:49:07.7	95.280	0.350	-0.300	0.960
2020/01/31 21:49:07.8	95.270	0.370	-0.230	1.000
2020/01/31 21:49:07.9	95.250	0.380	-0.160	1.040
2020/01/31 21:49:08.0	95.240	0.390	-0.090	1.080
2020/01/31 21:49:08.1	95.220	0.400	-0.030	1.120
2020/01/31 21:49:08.2	95.200	0.410	0.040	1.150
2020/01/31 21:49:08.3	95.170	0.420	0.100	1.170
2020/01/31 21:49:08.4	95.150	0.420	0.170	1.200
2020/01/31 21:49:08.5	95.130	0.430	0.230	1.220
2020/01/31 21:49:08.6	95.100	0.430	0.280	1.230
2020/01/31 21:49:08.7	95.080	0.430	0.340	1.240
2020/01/31 21:49:08.8	95.060	0.430	0.390	1.250
2020/01/31 21:49:08.9	95.030	0.430	0.440	1.250
2020/01/31 21:49:09.0	95.010	0.430	0.480	1.260
2020/01/31 21:49:09.1	94.990	0.430	0.520	1.250
2020/01/31 21:49:09.2	94.970	0.430	0.560	1.240
2020/01/31 21:49:09.3	94.950	0.430	0.590	1.230
2020/01/31 21:49:09.4	94.930	0.420	0.620	1.210
2020/01/31 21:49:09.5	94.910	0.420	0.640	1.190
2020/01/31 21:49:09.6	94.890	0.410	0.660	1.170
2020/01/31 21:49:09.7	94.870	0.410	0.670	1.150
2020/01/31 21:49:09.8	94.850	0.400	0.680	1.120
2020/01/31 21:49:09.9	94.830	0.390	0.680	1.090
2020/01/31 21:49:10.0	94.810	0.390	0.680	1.050
2020/01/31 21:49:10.1	94.790	0.380	0.670	1.020
2020/01/31 21:49:10.2	94.770	0.370	0.650	0.990
2020/01/31 21:49:10.3	94.750	0.360	0.640	0.950
2020/01/31 21:49:10.4	94.740	0.350	0.610	0.920
2020/01/31 21:49:10.5	94.720	0.350	0.580	0.890
2020/01/31 21:49:10.6	94.710	0.340	0.550	0.850
2020/01/31 21:49:10.7	94.700	0.330	0.510	0.810
2020/01/31 21:49:10.8	94.680	0.320	0.470	0.780
2020/01/31 21:49:10.9	94.670	0.310	0.420	0.740
2020/01/31 21:49:11.0	94.660	0.290	0.370	0.700
2020/01/31 21:49:11.1	94.650	0.280	0.310	0.670
2020/01/31 21:49:11.2	94.650	0.270	0.260	0.630
2020/01/31 21:49:11.3	94.650	0.260	0.200	0.590
2020/01/31 21:49:11.4	94.640	0.240	0.130	0.560
2020/01/31 21:49:11.5	94.640	0.230	0.070	0.520
2020/01/31 21:49:11.6	94.650	0.210	0.000	0.490
2020/01/31 21:49:11.7	94.650	0.200	-0.060	0.450
2020/01/31 21:49:11.8	94.660	0.180	-0.130	0.410
2020/01/31 21:49:11.9	94.660	0.160	-0.190	0.380
2020/01/31 21:49:12.0	94.660	0.140	-0.260	0.350
2020/01/31 21:49:12.1	94.670	0.120	-0.320	0.310
2020/01/31 21:49:12.2	94.680	0.100	-0.380	0.280
2020/01/31 21:49:12.3	94.690	0.080	-0.440	0.260
2020/01/31 21:49:12.4	94.710	0.060	-0.490	0.230
2020/01/31 21:49:12.5	94.720	0.030	-0.540	0.200
2020/01/31 21:49:12.6	94.740	0.010	-0.580	0.180
2020/01/31 21:49:12.7	94.750	-0.020	-0.620	0.160
2020/01/31 21:49:12.8	94.770	-0.050	-0.650	0.140
2020/01/31 21:49:12.9	94.780	-0.080	-0.680	0.130
2020/01/31 21:49:13.0	94.800	-0.110	-0.710	0.110
2020/01/31 21:49:13.1	94.820	-0.140	-0.720	0.110
2020/01/31 21:49:13.2	94.830	-0.170	-0.740	0.100
2020/01/31 21:49:13.3	94.840	-0.200	-0.740	0.090
2020/01/31 21:49:13.4	94.850	-0.230	-0.740	0.090
2020/01/31 21:49:13.5	94.850	-0.260	-0.740	0.100
2020/01/31 21:49:13.6	94.860	-0.290	-0.730	0.100
2020/01/31 21:49:13.7	94.860	-0.330	-0.710	0.110
2020/01/31 21:49:13.8	94.870	-0.360	-0.690	0.130
2020/01/31 21:49:13.9	94.870	-0.390	-0.670	0.140
2020/01/31 21:49:14.0	94.870	-0.420	-0.640	0.170
2020/01/31 21:49:14.1	94.870	-0.450	-0.610	0.190
2020/01/31 21:49:14.2	94.860	-0.470	-0.570	0.220
2020/01/31 21:49:14.3	94.860	-0.500	-0.530	0.240
2020/01/31 21:49:14.4	94.850	-0.530	-0.490	0.280
2020/01/31 21:49:14.5	94.840	-0.550	-0.440	0.310
2020/01/31 21:49:14.6	94.830	-0.570	-0.390	0.350
2020/01/31 21:49:14.7	94.820	-0.590	-0.340	0.390
2020/01/31 21:49:14.8	94.810	-0.610	-0.290	0.430
2020/01/31 21:49:14.9	94.800	-0.620	-0.240	0.470
2020/01/31 21:49:15.0	94.790	-0.640	-0.190	0.510
2020/01/31 21:49:15.1	94.770	-0.650	-0.140	0.550
2020/01/31 21:49:15.2	94.760	-0.650	-0.100	0.590
2020/01/31 21:49:15.3	94.750	-0.660	-0.050	0.640
2020/01/31 21:49:15.4	94.740	-0.660	-0.010	0.680
2020/01/31 21:49:15.5	94.720	-0.660	0.030	0.720
2020/01/31 21:49:15.6	94.710	-0.650	0.060	0.760
2020/01/31 21:49:15.7	94.700	-0.650	0.090	0.800
2020/01/31 21:49:15.8	94.690	-0.640	0.110	0.840
2020/01/31 21:49:15.9	94.680	-0.620	0.130	0.870
2020/01/31 21:49:16.0	94.680	-0.600	0.140	0.910
2020/01/31 21:49:16.1	94.670	-0.580	0.150	0.940
2020/01/31 21:49:16.2	94.660	-0.560	0.150	0.970
2020/01/31 21:49:16.3	94.660	-0.530	0.150	0.990
2020/01/31 21:49:16.4	94.650	-0.500	0.140	1.020
2020/01/31 21:49:16.5	94.650	-0.470	0.130	1.040
2020/01/31 21:49:16.6	94.640	-0.440	0.110	1.050
2020/01/31 21:49:16.7	94.640	-0.400	0.080	1.070
2020/01/31 21:49:16.8	94.640	-0.360	0.050	1.080
2020/01/31 21:49:16.9	94.640	-0.320	0.020	1.090
2020/01/31 21:49:17.0	94.640	-0.270	-0.010	1.100
2020/01/31 21:49:17.1	94.640	-0.230	-0.050	1.110
2020/01/31 21:49:17.2	94.640	-0.180	-0.090	1.110
2020/01/31 21:49:17.3	94.640	-0.140	-0.130	1.110
2020/01/31 21:49:17.4	94.650	-0.090	-0.170	1.110
2020/01/31 21:49:17.5	94.650	-0.040	-0.220	1.100
2020/01/31 21:49:17.6	94.650	0.010	-0.260	1.090
2020/01/31 21:49:17.7	94.660	0.060	-0.300	1.090
2020/01/31 21:49:17.8	94.660	0.110	-0.340	1.070
2020/01/31 21:49:17.9	94.660	0.150	-0.380	1.060
2020/01/31 21:49:18.0	94.690	0.200	-0.420	1.050
2020/01/31 21:49:18.1	94.690	0.250	-0.450	1.030
2020/01/31 21:49:18.2	94.700	0.290	-0.480	1.010
2020/01/31 21:49:18.3	94.700	0.340	-0.510	0.990
2020/01/31 21:49:18.4	94.710	0.380	-0.530	0.970
2020/01/31 21:49:18.5	94.720	0.420	-0.550	0.940
2020/01/31 21:49:18.6	94.730	0.460	-0.570	0.920
2020/01/31 21:49:18.7	94.730	0.490	-0.580	0.890
2020/01/31 21:49:18.8	94.740	0.530	-0.590	0.860
2020/01/31 21:49:18.9	94.750	0.560	-0.600	0.840
2020/01/31 21:49:19.0	94.760	0.590	-0.600	0.810
2020/01/31 21:49:19.1	94.770	0.610	-0.600	0.780
2020/01/31 21:49:19.2	94.780	0.630	-0.590	0.750
2020/01/31 21:49:19.3	94.790	0.650	-0.580	0.720
2020/01/31 21:49:19.4	94.800	0.670	-0.570	0.690
2020/01/31 21:49:19.5	94.810	0.680	-0.560	0.660
2020/01/31 21:49:19.6	94.820	0.690	-0.540	0.630
2020/01/31 21:49:19.7	94.830	0.690	-0.520	0.600
2020/01/31 21:49:19.8	94.840	0.690	-0.490	0.570
2020/01/31 21:49:19.9	94.850	0.690	-0.460	0.540
2020/01/31 21:49:20.0	94.860	0.680	-0.430	0.520
2020/01/31 21:49:20.1	94.870	0.670	-0.400	0.490
2020/01/31 21:49:20.2	94.880	0.660	-0.370	0.470
2020/01/31 21:49:20.3	94.890	0.640	-0.330	0.440
2020/01/31 21:49:20.4	94.890	0.620	-0.290	0.420
2020/01/31 21:49:20.5	94.900	0.600	-0.260	0.410
2020/01/31 21:49:20.6	94.900	0.580	-0.220	0.390
2020/01/31 21:49:20.7	94.900	0.550	-0.180	0.380
2020/01/31 21:49:20.8	94.900	0.520	-0.140	0.370
2020/01/31 21:49:20.9	94.900	0.480	-0.100	0.360
2020/01/31 21:49:21.0	94.900	0.440	-0.060	0.350
2020/01/31 21:49:21.1	94.900	0.410	-0.020	0.350
2020/01/31 21:49:21.2	94.890	0.370	0.020	0.360
2020/01/31 21:49:21.3	94.890	0.320	0.060	0.360
2020/01/31 21:49:21.4	94.880	0.280	0.100	0.370
2020/01/31 21:49:21.5	94.870	0.240	0.140	0.380
2020/01/31 21:49:21.6	94.860	0.190	0.170	0.390
2020/01/31 21:49:21.7	94.840	0.150	0.210	0.410
2020/01/31 21:49:21.8	94.830	0.100	0.240	0.420
2020/01/31 21:49:21.9	94.810	0.050	0.270	0.440
2020/01/31 21:49:22.0	94.810	0.010	0.300	0.470
2020/01/31 21:49:22.1	94.790	-0.040	0.330	0.490
2020/01/31 21:49:22.2	94.780	-0.080	0.350	0.510
2020/01/31 21:49:22.3	94.760	-0.130	0.370	0.530
2020/01/31 21:49:22.4	94.740	-0.170	0.390	0.560
2020/01/31 21:49:22.5	94.730	-0.210	0.410	0.580
2020/01/31 21:49:22.6	94.710	-0.250	0.420	0.610
2020/01/31 21:49:22.7	94.690	-0.280	0.430	0.630
2020/01/31 21:49:22.8	94.680	-0.320	0.430	0.660
2020/01/31 21:49:22.9	94.660	-0.350	0.440	0.680
2020/01/31 21:49:23.0	94.650	-0.380	0.430	0.710
2020/01/31 21:49:23.1	94.640	-0.410	0.430	0.730
2020/01/31 21:49:23.2	94.620	-0.430	0.420	0.750
2020/01/31 21:49:23.3	94.610	-0.450	0.410	0.770
2020/01/31 21:49:23.4	94.600	-0.470	0.390	0.790
2020/01/31 21:49:23.5	94.580	-0.480	0.370	0.810
2020/01/31 21:49:23.6	94.570	-0.500	0.350	0.820
2020/01/31 21:49:23.7	94.560	-0.500	0.320	0.840
2020/01/31 21:49:23.8	94.550	-0.510	0.290	0.850
2020/01/31 21:49:23.9	94.540	-0.510	0.260	0.870
2020/01/31 21:49:24.0	94.530	-0.510	0.220	0.880
2020/01/31 21:49:24.1	94.520	-0.500	0.180	0.890
2020/01/31 21:49:24.2	94.520	-0.490	0.140	0.900
2020/01/31 21:49:24.3	94.510	-0.480	0.090	0.900
2020/01/31 21:49:24.4	94.510	-0.460	0.040	0.910
2020/01/31 21:49:24.5	94.510	-0.440	-0.010	0.910
2020/01/31 21:49:24.6	94.510	-0.420	-0.070	0.910
2020/01/31 21:49:24.7	94.510	-0.390	-0.130	0.910
2020/01/31 21:49:24.8	94.520	-0.360	-0.190	0.910
2020/01/31 21:49:24.9	94.530	-0.330	-0.250	0.910
2020/01/31 21:49:25.0	94.540	-0.290	-0.320	0.900
2020/01/31 21:49:25.1	94.550	-0.260	-0.390	0.890
2020/01/31 21:49:25.2	94.570	-0.220	-0.450	0.880
2020/01/31 21:49:25.3	94.580	-0.180	-0.520	0.870
2020/01/31 21:49:25.4	94.590	-0.140	-0.580	0.850
2020/01/31 21:49:25.5	94.610	-0.090	-0.640	0.840
2020/01/31 21:49:25.6	94.630	-0.050	-0.710	0.820
2020/01/31 21:49:25.7	94.650	-0.010	-0.770	0.810
2020/01/31 21:49:25.8	94.660	0.040	-0.820	0.790
2020/01/31 21:49:25.9	94.680	0.080	-0.870	0.770
2020/01/31 21:49:26.0	94.690	0.130	-0.920	0.750
2020/01/31 21:49:26.1	94.710	0.170	-0.970	0.730
2020/01/31 21:49:26.2	94.730	0.210	-1.010	0.710
2020/01/31 21:49:26.3	94.750	0.250	-1.040	0.690
2020/01/31 21:49:26.4	94.770	0.290	-1.070	0.670
2020/01/31 21:49:26.5	94.800	0.330	-1.090	0.650
2020/01/31 21:49:26.6	94.820	0.360	-1.100	0.630
2020/01/31 21:49:26.7	94.840	0.390	-1.110	0.610
2020/01/31 21:49:26.8	94.860	0.420	-1.110	0.590
2020/01/31 21:49:26.9	94.880	0.450	-1.100	0.580
2020/01/31 21:49:27.0	94.890	0.470	-1.080	0.550
2020/01/31 21:49:27.1	94.910	0.490	-1.060	0.540
2020/01/31 21:49:27.2	94.930	0.500	-1.030	0.520
2020/01/31 21:49:27.3	94.950	0.520	-0.990	0.510
2020/01/31 21:49:27.4	94.970	0.520	-0.950	0.500
2020/01/31 21:49:27.5	94.990	0.530	-0.890	0.490
2020/01/31 21:49:27.6	95.010	0.530	-0.840	0.480
2020/01/31 21:49:27.7	95.030	0.520	-0.770	0.470
2020/01/31 21:49:27.8	95.050	0.520	-0.700	0.460
2020/01/31 21:49:27.9	95.060	0.500	-0.620	0.460
2020/01/31 21:49:28.0	95.080	0.490	-0.550	0.460
2020/01/31 21:49:28.1	95.100	0.470	-0.460	0.470
2020/01/31 21:49:28.2	95.110	0.440	-0.370	0.470
2020/01/31 21:49:28.3	95.120	0.420	-0.280	0.470
2020/01/31 21:49:28.4	95.120	0.390	-0.180	0.480
2020/01/31 21:49:28.5	95.130	0.350	-0.090	0.490
2020/01/31 21:49:28.6	95.130	0.310	0.010	0.500
2020/01/31 21:49:28.7	95.130	0.270	0.110	0.510
2020/01/31 21:49:28.8	95.130	0.230	0.210	0.520
2020/01/31 21:49:28.9	95.120	0.180	0.300	0.540
2020/01/31 21:49:29.0	95.100	0.140	0.400	0.550
2020/01/31 21:49:29.1	95.090	0.090	0.490	0.570
2020/01/31 21:49:29.2	95.070	0.030	0.580	0.580
2020/01/31 21:49:29.3	95.060	-0.020	0.660	0.600
2020/01/31 21:49:29.4	95.040	-0.070	0.740	0.620
2020/01/31 21:49:29.5	95.030	-0.120	0.810	0.630
2020/01/31 21:49:29.6	95.010	-0.170	0.880	0.650
2020/01/31 21:49:29.7	94.980	-0.230	0.930	0.660
2020/01/31 21:49:29.8	94.960	-0.280	0.990	0.670
2020/01/31 21:49:29.9	94.940	-0.330	1.030	0.690
2020/01/31 21:49:30.0	94.890	-0.370	1.060	0.700
2020/01/31 21:49:30.1	94.870	-0.420	1.090	0.710
2020/01/31 21:49:30.2	94.840	-0.460	1.100	0.720
2020/01/31 21:49:30.3	94.810	-0.500	1.110	0.720
2020/01/31 21:49:30.4	94.790	-0.540	1.110	0.730
2020/01/31 21:49:30.5	94.760	-0.570	1.100	0.730
2020/01/31 21:49:30.6	94.730	-0.600	1.080	0.730
2020/01/31 21:49:30.7	94.710	-0.620	1.050	0.730
2020/01/31 21:49:30.8	94.680	-0.640	1.010	0.720
2020/01/31 21:49:30.9	94.660	-0.660	0.960	0.720
2020/01/31 21:49:31.0	94.640	-0.670	0.900	0.710
2020/01/31 21:49:31.1	94.620	-0.670	0.830	0.710
2020/01/31 21:49:31.2	94.590	-0.670	0.760	0.700
2020/01/31 21:49:31.3	94.570	-0.670	0.680	0.690
2020/01/31 21:49:31.4	94.540	-0.660	0.590	0.680
2020/01/31 21:49:31.5	94.520	-0.640	0.490	0.670
2020/01/31 21:49:31.6	94.500	-0.620	0.390	0.660
2020/01/31 21:49:31.7	94.480	-0.590	0.280	0.650
2020/01/31 21:49:31.8	94.460	-0.560	0.170	0.640
2020/01/31 21:49:31.9	94.450	-0.530	0.050	0.620
2020/01/31 21:49:32.0	94.430	-0.490	-0.070	0.610
2020/01/31 21:49:32.1	94.420	-0.450	-0.190	0.600
2020/01/31 21:49:32.2	94.410	-0.400	-0.320	0.580
2020/01/31 21:49:32.3	94.400	-0.350	-0.440	0.560
2020/01/31 21:49:32.4	94.400	-0.300	-0.560	0.550
2020/01/31 21:49:32.5	94.390	-0.250	-0.680	0.530
2020/01/31 21:49:32.6	94.390	-0.190	-0.800	0.510
2020/01/31 21:49:32.7	94.400	-0.140	-0.920	0.490
2020/01/31 21:49:32.8	94.400	-0.080	-1.030	0.470
2020/01/31 21:49:32.9	94.410	-0.020	-1.140	0.450
2020/01/31 21:49:33.0	94.420	0.040	-1.240	0.420
2020/01/31 21:49:33.1	94.430	0.100	-1.330	0.400
2020/01/31 21:49:33.2	94.440	0.150	-1.420	0.380
2020/01/31 21:49:33.3	94.460	0.210	-1.500	0.350
2020/01/31 21:49:33.4	94.470	0.260	-1.570	0.330
2020/01/31 21:49:33.5	94.490	0.310	-1.630	0.310
2020/01/31 21:49:33.6	94.510	0.360	-1.680	0.280
2020/01/31 21:49:33.7	94.530	0.410	-1.720	0.250
2020/01/31 21:49:33.8	94.550	0.450	-1.750	0.230
2020/01/31 21:49:33.9	94.580	0.480	-1.770	0.200
2020/01/31 21:49:34.0	94.600	0.520	-1.780	0.180
2020/01/31 21:49:34.1	94.620	0.550	-1.780	0.150
2020/01/31 21:49:34.2	94.650	0.570	-1.760	0.120
2020/01/31 21:49:34.3	94.670	0.590	-1.730	0.100
2020/01/31 21:49:34.4	94.700	0.610	-1.690	0.070
2020/01/31 21:49:34.5	94.720	0.620	-1.640	0.050
2020/01/31 21:49:34.6	94.750	0.630	-1.580	0.020
2020/01/31 21:49:34.7	94.770	0.630	-1.510	0.000
2020/01/31 21:49:34.8	94.790	0.630	-1.440	-0.020
2020/01/31 21:49:34.9	94.810	0.620	-1.350	-0.040
2020/01/31 21:49:35.0	94.830	0.610	-1.250	-0.050
2020/01/31 21:49:35.1	94.850	0.590	-1.150	-0.070
2020/01/31 21:49:35.2	94.870	0.570	-1.040	-0.080
2020/01/31 21:49:35.3	94.890	0.550	-0.920	-0.090
2020/01/31 21:49:35.4	94.900	0.520	-0.800	-0.100
2020/01/31 21:49:35.5	94.920	0.490	-0.680	-0.100
2020/01/31 21:49:35.6	94.930	0.460	-0.550	-0.100
2020/01/31 21:49:35.7	94.940	0.420	-0.430	-0.100
2020/01/31 21:49:35.8	94.950	0.390	-0.300	-0.090
2020/01/31 21:49:35.9	94.950	0.350	-0.170	-0.080
2020/01/31 21:49:36.0	94.970	0.310	-0.040	-0.070
2020/01/31 21:49:36.1	94.970	0.260	0.080	-0.060
2020/01/31 21:49:36.2	94.980	0.220	0.210	-0.040
2020/01/31 21:49:36.3	94.980	0.180	0.330	-0.020
2020/01/31 21:49:36.4	94.980	0.130	0.440	0.000
2020/01/31 21:49:36.5	94.990	0.090	0.550	0.020
2020/01/31 21:49:36.6	94.990	0.050	0.650	0.050
2020/01/31 21:49:36.7	94.990	0.010	0.750	0.080
2020/01/31 21:49:36.8	94.990	-0.030	0.840	0.110
2020/01/31 21:49:36.9	95.000	-0.070	0.930	0.140
2020/01/31 21:49:37.0	95.000	-0.110	1.010	0.170
2020/01/31 21:49:37.1	95.000	-0.150	1.070	0.200
2020/01/31 21:49:37.2	95.000	-0.190	1.130	0.240
2020/01/31 21:49:37.3	95.000	-0.220	1.190	0.270
2020/01/31 21:49:37.4	95.010	-0.250	1.230	0.300
2020/01/31 21:49:37.5	95.010	-0.280	1.260	0.330
2020/01/31 21:49:37.6	95.010	-0.310	1.290	0.360
2020/01/31 21:49:37.7	95.010	-0.330	1.300	0.390
2020/01/31 21:49:37.8	95.020	-0.350	1.310	0.410
2020/01/31 21:49:37.9	95.020	-0.370	1.310	0.440
2020/01/31 21:49:38.0	95.030	-0.390	1.300	0.460
2020/01/31 21:49:38.1	95.030	-0.400	1.280	0.490
2020/01/31 21:49:38.2	95.030	-0.420	1.250	0.510
2020/01/31 21:49:38.3	95.030	-0.430	1.220	0.530
2020/01/31 21:49:38.4	95.040	-0.430	1.180	0.550
2020/01/31 21:49:38.5	95.040	-0.440	1.130	0.570
2020/01/31 21:49:38.6	95.040	-0.440	1.070	0.590
2020/01/31 21:49:38.7	95.040	-0.440	1.010	0.610
2020/01/31 21:49:38.8	95.040	-0.440	0.950	0.630
2020/01/31 21:49:38.9	95.040	-0.430	0.870	0.640
2020/01/31 21:49:39.0	95.030	-0.420	0.800	0.660
2020/01/31 21:49:39.1	95.030	-0.410	0.720	0.670
2020/01/31 21:49:39.2	95.030	-0.400	0.640	0.690
2020/01/31 21:49:39.3	95.030	-0.390	0.550	0.700
2020/01/31 21:49:39.4	95.030	-0.380	0.460	0.710
2020/01/31 21:49:39.5	95.030	-0.360	0.370	0.720
2020/01/31 21:49:39.6	95.030	-0.340	0.270	0.730
2020/01/31 21:49:39.7	95.040	-0.320	0.180	0.740
2020/01/31 21:49:39.8	95.040	-0.300	0.090	0.750
2020/01/31 21:49:39.9	95.050	-0.280	-0.000	0.750
2020/01/31 21:49:40.0	95.070	-0.260	-0.100	0.760
2020/01/31 21:49:40.1	95.080	-0.240	-0.190	0.760
2020/01/31 21:49:40.2	95.090	-0.220	-0.280	0.770
2020/01/31 21:49:40.3	95.100	-0.190	-0.360	0.770
2020/01/31 21:49:40.4	95.110	-0.170	-0.440	0.770
2020/01/31 21:49:40.5	95.120	-0.150	-0.520	0.780
2020/01/31 21:49:40.6	95.140	-0.120	-0.600	0.780
2020/01/31 21:49:40.7	95.150	-0.100	-0.670	0.780
2020/01/31 21:49:40.8	95.170	-0.070	-0.730	0.780
2020/01/31 21:49:40.9	95.180	-0.050	-0.800	0.780
2020/01/31 21:49:41.0	95.190	-0.020	-0.850	0.780
2020/01/31 21:49:41.1	95.210	0.000	-0.910	0.790
2020/01/31 21:49:41.2	95.230	0.030	-0.960	0.790
2020/01/31 21:49:41.3	95.250	0.050	-1.000	0.790
2020/01/31 21:49:41.4	95.270	0.070	-1.040	0.790
2020/01/31 21:49:41.5	95.300	0.100	-1.080	0.800
2020/01/31 21:49:41.6	95.320	0.120	-1.110	0.800
2020/01/31 21:49:41.7	95.340	0.140	-1.130	0.810
2020/01/31 21:49:41.8	95.360	0.160	-1.150	0.810
2020/01/31 21:49:41.9	95.380	0.180	-1.170	0.820
2020/01/31 21:49:42.0	95.420	0.200	-1.180	0.830
2020/01/31 21:49:42.1	95.450	0.220	-1.190	0.840
2020/01/31 21:49:42.2	95.470	0.230	-1.190	0.860
2020/01/31 21:49:42.3	95.480	0.250	-1.190	0.870
2020/01/31 21:49:42.4	95.500	0.260	-1.190	0.880
2020/01/31 21:49:42.5	95.520	0.270	-1.170	0.900
2020/01/31 21:49:42.6	95.540	0.280	-1.160	0.920
2020/01/31 21:49:42.7	95.560	0.290	-1.140	0.940
2020/01/31 21:49:42.8	95.570	0.300	-1.120	0.960
2020/01/31 21:49:42.9	95.580	0.300	-1.090	0.980
2020/01/31 21:49:43.0	95.580	0.310	-1.060	1.010
2020/01/31 21:49:43.1	95.590	0.310	-1.030	1.030
2020/01/31 21:49:43.2	95.600	0.310	-0.990	1.060
2020/01/31 21:49:43.3	95.610	0.310	-0.950	1.080
2020/01/31 21:49:43.4	95.620	0.300	-0.910	1.110
2020/01/31 21:49:43.5	95.630	0.300	-0.860	1.140
2020/01/31 21:49:43.6	95.630	0.290	-0.810	1.170
2020/01/31 21:49:43.7	95.640	0.280	-0.760	1.200
2020/01/31 21:49:43.8	95.640	0.270	-0.710	1.220
2020/01/31 21:49:43.9	95.640	0.250	-0.660	1.250
2020/01/31 21:49:44.0	95.640	0.240	-0.600	1.280
2020/01/31 21:49:44.1	95.640	0.220	-0.550	1.310
2020/01/31 21:49:44.2	95.640	0.200	-0.490	1.340
2020/01/31 21:49:44.3	95.630	0.180	-0.430	1.370
2020/01/31 21:49:44.4	95.630	0.160	-0.370	1.400
2020/01/31 21:49:44.5	95.620	0.140	-0.320	1.430
2020/01/31 21:49:44.6	95.610	0.120	-0.260	1.450
2020/01/31 21:49:44.7	95.600	0.100	-0.200	1.480
2020/01/31 21:49:44.8	95.590	0.080	-0.150	1.500
2020/01/31 21:49:44.9	95.570	0.050	-0.090	1.530
2020/01/31 21:49:45.0	95.560	0.030	-0.040	1.550
2020/01/31 21:49:45.1	95.550	0.010	0.010	1.570
2020/01/31 21:49:45.2	95.540	-0.010	0.070	1.590
2020/01/31 21:49:45.3	95.520	-0.040	0.110	1.600
2020/01/31 21:49:45.4	95.510	-0.060	0.160	1.610
2020/01/31 21:49:45.5	95.490	-0.080	0.210	1.610
2020/01/31 21:49:45.6	95.480	-0.100	0.250	1.620
2020/01/31 21:49:45.7	95.460	-0.120	0.290	1.620
2020/01/31 21:49:45.8	95.450	-0.130	0.330	1.610
2020/01/31 21:49:45.9	95.430	-0.150	0.360	1.600
2020/01/31 21:49:46.0	95.420	-0.170	0.400	1.590
2020/01/31 21:49:46.1	95.410	-0.180	0.430	1.570
2020/01/31 21:49:46.2	95.400	-0.190	0.460	1.550
2020/01/31 21:49:46.3	95.390	-0.200	0.480	1.530
2020/01/31 21:49:46.4	95.380	-0.210	0.510	1.500
2020/01/31 21:49:46.5	95.370	-0.220	0.530	1.470
2020/01/31 21:49:46.6	95.370	-0.220	0.540	1.440
2020/01/31 21:49:46.7	95.360	-0.230	0.560	1.400
2020/01/31 21:49:46.8	95.360	-0.230	0.570	1.350
2020/01/31 21:49:46.9	95.360	-0.230	0.580	1.310
2020/01/31 21:49:47.0	95.350	-0.230	0.580	1.260
2020/01/31 21:49:47.1	95.350	-0.220	0.580	1.210
2020/01/31 21:49:47.2	95.360	-0.220	0.580	1.150
2020/01/31 21:49:47.3	95.360	-0.210	0.570	1.090
2020/01/31 21:49:47.4	95.370	-0.200	0.560	1.030
2020/01/31 21:49:47.5	95.380	-0.190	0.550	0.970
2020/01/31 21:49:47.6	95.390	-0.180	0.530	0.900
2020/01/31 21:49:47.7	95.400	-0.160	0.520	0.840
2020/01/31 21:49:47.8	95.410	-0.150	0.490	0.770
2020/01/31 21:49:47.9	95.420	-0.130	0.470	0.700
2020/01/31 21:49:48.0	95.430	-0.120	0.450	0.630
2020/01/31 21:49:48.1	95.440	-0.100	0.420	0.550
2020/01/31 21:49:48.2	95.450	-0.080	0.390	0.480
2020/01/31 21:49:48.3	95.470	-0.070	0.350	0.410
2020/01/31 21:49:48.4	95.480	-0.050	0.320	0.340
2020/01/31 21:49:48.5	95.490	-0.030	0.280	0.270
2020/01/31 21:49:48.6	95.510	-0.010	0.240	0.190
2020/01/31 21:49:48.7	95.520	0.010	0.200	0.120
2020/01/31 21:49:48.8	95.530	0.020	0.160	0.050
2020/01/31 21:49:48.9	95.540	0.040	0.110	-0.020
2020/01/31 21:49:49.0	95.550	0.060	0.070	-0.090
2020/01/31 21:49:49.1	95.560	0.080	0.020	-0.150
2020/01/31 21:49:49.2	95.580	0.090	-0.020	-0.220
2020/01/31 21:49:49.3	95.590	0.110	-0.070	-0.280
2020/01/31 21:49:49.4	95.600	0.120	-0.120	-0.340
2020/01/31 21:49:49.5	95.610	0.140	-0.170	-0.400
2020/01/31 21:49:49.6	95.610	0.150	-0.220	-0.450
2020/01/31 21:49:49.7	95.620	0.170	-0.270	-0.510
2020/01/31 21:49:49.8	95.630	0.180	-0.310	-0.560
2020/01/31 21:49:49.9	95.640	0.190	-0.360	-0.610
2020/01/31 21:49:50.0	95.640	0.200	-0.410	-0.650
2020/01/31 21:49:50.1	95.650	0.210	-0.460	-0.700
2020/01/31 21:49:50.2	95.660	0.230	-0.510	-0.740
2020/01/31 21:49:50.3	95.660	0.230	-0.560	-0.770
2020/01/31 21:49:50.4	95.670	0.240	-0.600	-0.810
2020/01/31 21:49:50.5	95.670	0.250	-0.650	-0.840
2020/01/31 21:49:50.6	95.680	0.260	-0.690	-0.870
2020/01/31 21:49:50.7	95.690	0.260	-0.730	-0.890
2020/01/31 21:49:50.8	95.690	0.270	-0.770	-0.910
2020/01/31 21:49:50.9	95.700	0.270	-0.800	-0.930
2020/01/31 21:49:51.0	95.710	0.280	-0.840	-0.950
2020/01/31 21:49:51.1	95.710	0.280	-0.870	-0.960
2020/01/31 21:49:51.2	95.710	0.280	-0.900	-0.960
2020/01/31 21:49:51.3	95.720	0.280	-0.920	-0.970
2020/01/31 21:49:51.4	95.720	0.280	-0.940	-0.970
2020/01/31 21:49:51.5	95.720	0.270	-0.950	-0.960
2020/01/31 21:49:51.6	95.720	0.270	-0.970	-0.950
2020/01/31 21:49:51.7	95.720	0.270	-0.970	-0.940
2020/01/31 21:49:51.8	95.710	0.260	-0.970	-0.930
2020/01/31 21:49:51.9	95.710	0.250	-0.970	-0.900
2020/01/31 21:49:52.0	95.690	0.240	-0.960	-0.880
2020/01/31 21:49:52.1	95.690	0.230	-0.940	-0.850
2020/01/31 21:49:52.2	95.680	0.220	-0.920	-0.820
2020/01/31 21:49:52.3	95.670	0.200	-0.900	-0.780
2020/01/31 21:49:52.4	95.670	0.190	-0.870	-0.740
2020/01/31 21:49:52.5	95.660	0.170	-0.830	-0.700
2020/01/31 21:49:52.6	95.650	0.150	-0.780	-0.650
2020/01/31 21:49:52.7	95.630	0.130	-0.730	-0.600
2020/01/31 21:49:52.8	95.620	0.110	-0.680	-0.550
2020/01/31 21:49:52.9	95.610	0.090	-0.620	-0.500
2020/01/31 21:49:53.0	95.590	0.060	-0.560	-0.440
2020/01/31 21:49:53.1	95.580	0.040	-0.490	-0.380
2020/01/31 21:49:53.2	95.560	0.010	-0.420	-0.320
2020/01/31 21:49:53.3	95.540	-0.020	-0.340	-0.250
2020/01/31 21:49:53.4	95.530	-0.040	-0.270	-0.180
2020/01/31 21:49:53.5	95.510	-0.070	-0.190	-0.110
2020/01/31 21:49:53.6	95.490	-0.100	-0.110	-0.040
2020/01/31 21:49:53.7	95.470	-0.130	-0.020	0.030
2020/01/31 21:49:53.8	95.450	-0.150	0.060	0.110
2020/01/31 21:49:53.9	95.430	-0.180	0.140	0.180
2020/01/31 21:49:54.0	95.420	-0.210	0.220	0.270
2020/01/31 21:49:54.1	95.400	-0.230	0.290	0.340
2020/01/31 21:49:54.2	95.380	-0.260	0.360	0.420
2020/01/31 21:49:54.3	95.360	-0.280	0.430	0.500
2020/01/31 21:49:54.4	95.350	-0.300	0.500	0.580
2020/01/31 21:49:54.5	95.330	-0.320	0.550	0.650
2020/01/31 21:49:54.6	95.310	-0.340	0.610	0.730
2020/01/31 21:49:54.7	95.300	-0.360	0.650	0.800
2020/01/31 21:49:54.8	95.280	-0.370	0.690	0.870
2020/01/31 21:49:54.9	95.270	-0.380	0.720	0.940
2020/01/31 21:49:55.0	95.260	-0.390	0.740	1.010
2020/01/31 21:49:55.1	95.250	-0.400	0.750	1.080
2020/01/31 21:49:55.2	95.240	-0.400	0.750	1.150
2020/01/31 21:49:55.3	95.230	-0.400	0.750	1.210
2020/01/31 21:49:55.4	95.230	-0.400	0.740	1.270
2020/01/31 21:49:55.5	95.220	-0.400	0.710	1.320
2020/01/31 21:49:55.6	95.220	-0.390	0.680	1.380
2020/01/31 21:49:55.7	95.220	-0.380	0.650	1.430
2020/01/31 21:49:55.8	95.220	-0.360	0.600	1.470
2020/01/31 21:49:55.9	95.220	-0.350	0.550	1.520
2020/01/31 21:49:56.0	95.230	-0.330	0.490	1.560
2020/01/31 21:49:56.1	95.230	-0.310	0.430	1.600
2020/01/31 21:49:56.2	95.230	-0.290	0.360	1.630
2020/01/31 21:49:56.3	95.240	-0.260	0.280	1.660
2020/01/31 21:49:56.4	95.250	-0.240	0.200	1.690
2020/01/31 21:49:56.5	95.250	-0.210	0.120	1.710
2020/01/31 21:49:56.6	95.260	-0.180	0.040	1.730
2020/01/31 21:49:56.7	95.270	-0.150	-0.050	1.750
2020/01/31 21:49:56.8	95.270	-0.120	-0.130	1.760
2020/01/31 21:49:56.9	95.280	-0.090	-0.220	1.760
2020/01/31 21:49:57.0	95.300	-0.060	-0.300	1.770
2020/01/31 21:49:57.1	95.300	-0.030	-0.380	1.770
2020/01/31 21:49:57.2	95.310	-0.000	-0.460	1.770
2020/01/31 21:49:57.3	95.310	0.020	-0.540	1.760
2020/01/31 21:49:57.4	95.320	0.050	-0.610	1.750
2020/01/31 21:49:57.5	95.320	0.080	-0.670	1.740
2020/01/31 21:49:57.6	95.320	0.100	-0.730	1.730
2020/01/31 21:49:57.7	95.320	0.130	-0.780	1.710
2020/01/31 21:49:57.8	95.310	0.150	-0.830	1.700
2020/01/31 21:49:57.9	95.310	0.170	-0.860	1.680
2020/01/31 21:49:58.0	95.300	0.190	-0.900	1.660
2020/01/31 21:49:58.1	95.290	0.200	-0.920	1.640
2020/01/31 21:49:58.2	95.280	0.220	-0.930	1.620
2020/01/31 21:49:58.3	95.270	0.230	-0.940	1.590
2020/01/31 21:49:58.4	95.260	0.240	-0.940	1.570
2020/01/31 21:49:58.5	95.250	0.240	-0.930	1.540
2020/01/31 21:49:58.6	95.240	0.250	-0.910	1.520
2020/01/31 21:49:58.7	95.230	0.250	-0.880	1.490
2020/01/31 21:49:58.8	95.220	0.250	-0.850	1.460
2020/01/31 21:49:58.9	95.200	0.250	-0.810	1.430
2020/01/31 21:49:59.0	95.200	0.250	-0.770	1.400
2020/01/31 21:49:59.1	95.190	0.240	-0.720	1.370
2020/01/31 21:49:59.2	95.170	0.240	-0.660	1.340
2020/01/31 21:49:59.3	95.160	0.230	-0.600	1.300
2020/01/31 21:49:59.4	95.140	0.220	-0.540	1.270
2020/01/31 21:49:59.5	95.120	0.200	-0.480	1.230
2020/01/31 21:49:59.6	95.110	0.190	-0.410	1.190
2020/01/31 21:49:59.7	95.090	0.180	-0.340	1.160
2020/01/31 21:49:59.8	95.070	0.160	-0.270	1.110
2020/01/31 21:49:59.9	95.050	0.140	-0.200	1.070
2020/01/31 21:50:00.0	95.020	0.130	-0.140	1.030
2020/01/31 21:50:00.1	95.000	0.110	-0.070	0.990
2020/01/31 21:50:00.2	94.980	0.090	-0.010	0.940
2020/01/31 21:50:00.3	94.950	0.070	0.050	0.890
2020/01/31 21:50:00.4	94.930	0.060	0.110	0.850
2020/01/31 21:50:00.5	94.910	0.040	0.160	0.800
2020/01/31 21:50:00.6	94.880	0.020	0.200	0.740
2020/01/31 21:50:00.7	94.860	0.010	0.250	0.690
2020/01/31 21:50:00.8	94.830	-0.010	0.280	0.640
2020/01/31 21:50:00.9	94.810	-0.020	0.310	0.580
2020/01/31 21:50:01.0	94.780	-0.030	0.340	0.530
2020/01/31 21:50:01.1	94.750	-0.040	0.360	0.470
2020/01/31 21:50:01.2	94.730	-0.050	0.370	0.410
2020/01/31 21:50:01.3	94.710	-0.060	0.380	0.350
2020/01/31 21:50:01.4	94.680	-0.070	0.380	0.290
2020/01/31 21:50:01.5	94.660	-0.070	0.370	0.230
2020/01/31 21:50:01.6	94.640	-0.080	0.350	0.170
2020/01/31 21:50:01.7	94.620	-0.080	0.330	0.110
2020/01/31 21:50:01.8	94.600	-0.080	0.300	0.060
2020/01/31 21:50:01.9	94.590	-0.080	0.270	-0.000
2020/01/31 21:50:02.0	94.540	-0.080	0.230	-0.060
2020/01/31 21:50:02.1	94.530	-0.070	0.190	-0.120
2020/01/31 21:50:02.2	94.510	-0.070	0.140	-0.180
2020/01/31 21:50:02.3	94.500	-0.060	0.090	-0.230
2020/01/31 21:50:02.4	94.490	-0.050	0.040	-0.290
2020/01/31 21:50:02.5	94.490	-0.050	-0.020	-0.340
2020/01/31 21:50:02.6	94.480	-0.040	-0.070	-0.390
2020/01/31 21:50:02.7	94.480	-0.030	-0.130	-0.440
2020/01/31 21:50:02.8	94.480	-0.020	-0.190	-0.490
2020/01/31 21:50:02.9	94.480	-0.010	-0.250	-0.530
2020/01/31 21:50:03.0	94.510	0.000	-0.310	-0.580
2020/01/31 21:50:03.1	94.520	0.010	-0.360	-0.620
2020/01/31 21:50:03.2	94.530	0.020	-0.420	-0.670
2020/01/31 21:50:03.3	94.540	0.030	-0.470	-0.710
2020/01/31 21:50:03.4	94.550	0.030	-0.520	-0.750
2020/01/31 21:50:03.5	94.560	0.040	-0.560	-0.790
2020/01/31 21:50:03.6	94.580	0.040	-0.600	-0.830
2020/01/31 21:50:03.7	94.600	0.050	-0.640	-0.870
2020/01/31 21:50:03.8	94.620	0.050	-0.670	-0.900
2020/01/31 21:50:03.9	94.640	0.050	-0.700	-0.940
2020/01/31 21:50:04.0	94.660	0.050	-0.720	-0.970
2020/01/31 21:50:04.1	94.680	0.050	-0.740	-1.000
2020/01/31 21:50:04.2	94.700	0.050	-0.740	-1.020
2020/01/31 21:50:04.3	94.720	0.040	-0.750	-1.050
2020/01/31 21:50:04.4	94.740	0.040	-0.740	-1.070
2020/01/31 21:50:04.5	94.760	0.030	-0.730	-1.080
2020/01/31 21:50:04.6	94.770	0.020	-0.720	-1.100
2020/01/31 21:50:04.7	94.790	0.010	-0.690	-1.110
2020/01/31 21:50:04.8	94.800	-0.000	-0.660	-1.110
2020/01/31 21:50:04.9	94.810	-0.020	-0.630	-1.110
2020/01/31 21:50:05.0	94.820	-0.030	-0.580	-1.100
2020/01/31 21:50:05.1	94.830	-0.050	-0.540	-1.090
2020/01/31 21:50:05.2	94.830	-0.070	-0.480	-1.070
2020/01/31 21:50:05.3	94.830	-0.090	-0.430	-1.050
2020/01/31 21:50:05.4	94.820	-0.110	-0.370	-1.030
2020/01/31 21:50:05.5	94.820	-0.130	-0.310	-1.000
2020/01/31 21:50:05.6	94.810	-0.150	-0.240	-0.960
2020/01/31 21:50:05.7	94.790	-0.170	-0.170	-0.930
2020/01/31 21:50:05.8	94.780	-0.190	-0.100	-0.880
2020/01/31 21:50:05.9	94.760	-0.210	-0.030	-0.840
2020/01/31 21:50:06.0	94.720	-0.230	0.040	-0.780
2020/01/31 21:50:06.1	94.700	-0.250	0.100	-0.730
2020/01/31 21:50:06.2	94.670	-0.270	0.170	-0.670
2020/01/31 21:50:06.3	94.650	-0.280	0.230	-0.610
2020/01/31 21:50:06.4	94.620	-0.300	0.300	-0.550
2020/01/31 21:50:06.5	94.590	-0.310	0.350	-0.480
2020/01/31 21:50:06.6	94.560	-0.320	0.400	-0.410
2020/01/31 21:50:06.7	94.530	-0.330	0.450	-0.340
2020/01/31 21:50:06.8	94.500	-0.340	0.490	-0.270
2020/01/31 21:50:06.9	94.470	-0.340	0.530	-0.200
2020/01/31 21:50:07.0	94.440	-0.340	0.550	-0.130
2020/01/31 21:50:07.1	94.410	-0.340	0.570	-0.060
2020/01/31 21:50:07.2	94.380	-0.330	0.590	0.010
2020/01/31 21:50:07.3	94.350	-0.320	0.590	0.080
2020/01/31 21:50:07.4	94.330	-0.310	0.590	0.150
2020/01/31 21:50:07.5	94.300	-0.290	0.580	0.220
2020/01/31 21:50:07.6	94.280	-0.270	0.560	0.280
2020/01/31 21:50:07.7	94.260	-0.250	0.540	0.340
2020/01/31 21:50:07.8	94.240	-0.220	0.500	0.400
2020/01/31 21:50:07.9	94.230	-0.190	0.460	0.450
2020/01/31 21:50:08.0	94.220	-0.160	0.410	0.500
2020/01/31 21:50:08.1	94.210	-0.130	0.360	0.550
2020/01/31 21:50:08.2	94.200	-0.090	0.300	0.600
2020/01/31 21:50:08.3	94.200	-0.050	0.230	0.640
2020/01/31 21:50:08.4	94.200	-0.020	0.160	0.680
2020/01/31 21:50:08.5	94.200	0.030	0.090	0.720
2020/01/31 21:50:08.6	94.200	0.070	0.020	0.760
2020/01/31 21:50:08.7	94.200	0.110	-0.060	0.790
2020/01/31 21:50:08.8	94.210	0.150	-0.140	0.820
2020/01/31 21:50:08.9	94.220	0.190	-0.220	0.850
2020/01/31 21:50:09.0	94.210	0.230	-0.300	0.880
2020/01/31 21:50:09.1	94.220	0.270	-0.380	0.900
2020/01/31 21:50:09.2	94.230	0.310	-0.460	0.920
2020/01/31 21:50:09.3	94.240	0.340	-0.540	0.940
2020/01/31 21:50:09.4	94.250	0.380	-0.610	0.950
2020/01/31 21:50:09.5	94.270	0.410	-0.670	0.970
2020/01/31 21:50:09.6	94.280	0.440	-0.740	0.980
2020/01/31 21:50:09.7	94.290	0.460	-0.800	0.990
2020/01/31 21:50:09.8	94.300	0.480	-0.850	1.000
2020/01/31 21:50:09.9	94.310	0.500	-0.890	1.010
2020/01/31 21:50:10.0	94.330	0.520	-0.930	1.010
2020/01/31 21:50:10.1	94.340	0.530	-0.960	1.010
2020/01/31 21:50:10.2	94.360	0.530	-0.990	1.010
2020/01/31 21:50:10.3	94.360	0.540	-1.010	1.010
2020/01/31 21:50:10.4	94.370	0.540	-1.020	1.010
2020/01/31 21:50:10.5	94.380	0.530	-1.020	1.010
2020/01/31 21:50:10.6	94.390	0.520	-1.010	1.000
2020/01/31 21:50:10.7	94.400	0.510	-1.000	1.000
2020/01/31 21:50:10.8	94.410	0.500	-0.980	0.990
2020/01/31 21:50:10.9	94.410	0.480	-0.950	0.980
2020/01/31 21:50:11.0	94.420	0.450	-0.920	0.970
2020/01/31 21:50:11.1	94.430	0.430	-0.880	0.960
2020/01/31 21:50:11.2	94.430	0.400	-0.830	0.950
2020/01/31 21:50:11.3	94.440	0.370	-0.780	0.940
2020/01/31 21:50:11.4	94.440	0.340	-0.730	0.930
2020/01/31 21:50:11.5	94.450	0.310	-0.670	0.920
2020/01/31 21:50:11.6	94.450	0.270	-0.610	0.910
2020/01/31 21:50:11.7	94.450	0.230	-0.540	0.890
2020/01/31 21:50:11.8	94.450	0.190	-0.480	0.880
2020/01/31 21:50:11.9	94.450	0.160	-0.410	0.870
2020/01/31 21:50:12.0	94.460	0.120	-0.340	0.860
2020/01/31 21:50:12.1	94.460	0.080	-0.270	0.850
2020/01/31 21:50:12.2	94.450	0.040	-0.200	0.850
2020/01/31 21:50:12.3	94.450	-0.000	-0.130	0.840
2020/01/31 21:50:12.4	94.440	-0.040	-0.060	0.840
2020/01/31 21:50:12.5	94.430	-0.070	0.000	0.830
2020/01/31 21:50:12.6	94.420	-0.110	0.060	0.830
2020/01/31 21:50:12.7	94.410	-0.150	0.120	0.830
2020/01/31 21:50:12.8	94.400	-0.180	0.180	0.830
2020/01/31 21:50:12.9	94.380	-0.210	0.230	0.840
2020/01/31 21:50:13.0	94.380	-0.240	0.280	0.850
2020/01/31 21:50:13.1	94.360	-0.270	0.330	0.850
2020/01/31 21:50:13.2	94.340	-0.290	0.370	0.860
2020/01/31 21:50:13.3	94.330	-0.310	0.400	0.860
2020/01/31 21:50:13.4	94.310	-0.330	0.430	0.870
2020/01/31 21:50:13.5	94.290	-0.350	0.460	0.880
2020/01/31 21:50:13.6	94.270	-0.370	0.480	0.890
2020/01/31 21:50:13.7	94.250	-0.380	0.500	0.900
2020/01/31 21:50:13.8	94.220	-0.390	0.510	0.910
2020/01/31 21:50:13.9	94.200	-0.400	0.520	0.920
2020/01/31 21:50:14.0	94.170	-0.410	0.520	0.920
2020/01/31 21:50:14.1	94.150	-0.410	0.520	0.930
2020/01/31 21:50:14.2	94.130	-0.410	0.520	0.940
2020/01/31 21:50:14.3	94.110	-0.410	0.510	0.940
2020/01/31 21:50:14.4	94.090	-0.410	0.500	0.940
2020/01/31 21:50:14.5	94.080	-0.410	0.480	0.940
2020/01/31 21:50:14.6	94.060	-0.400	0.460	0.940
2020/01/31 21:50:14.7	94.050	-0.390	0.440	0.930
2020/01/31 21:50:14.8	94.040	-0.380	0.410	0.930
2020/01/31 21:50:14.9	94.030	-0.370	0.380	0.920
2020/01/31 21:50:15.0	94.000	-0.360	0.350	0.900
2020/01/31 21:50:15.1	93.990	-0.350	0.320	0.880
2020/01/31 21:50:15.2	93.990	-0.330	0.280	0.860
2020/01/31 21:50:15.3	93.980	-0.310	0.240	0.840
2020/01/31 21:50:15.4	93.980	-0.300	0.200	0.810
2020/01/31 21:50:15.5	93.980	-0.280	0.150	0.780
2020/01/31 21:50:15.6	93.980	-0.260	0.110	0.750
2020/01/31 21:50:15.7	93.990	-0.240	0.060	0.710
2020/01/31 21:50:15.8	93.990	-0.210	0.010	0.680
2020/01/31 21:50:15.9	93.990	-0.190	-0.030	0.640
2020/01/31 21:50:16.0	93.990	-0.170	-0.080	0.590
2020/01/31 21:50:16.1	94.000	-0.150	-0.130	0.550
2020/01/31 21:50:16.2	94.000	-0.120	-0.180	0.510
2020/01/31 21:50:16.3	94.010	-0.100	-0.220	0.460
2020/01/31 21:50:16.4	94.020	-0.080	-0.270	0.410
2020/01/31 21:50:16.5	94.030	-0.060	-0.310	0.360
2020/01/31 21:50:16.6	94.030	-0.040	-0.350	0.310
2020/01/31 21:50:16.7	94.040	-0.010	-0.380	0.260
2020/01/31 21:50:16.8	94.050	0.010	-0.420	0.210
2020/01/31 21:50:16.9	94.060	0.030	-0.450	0.150
2020/01/31 21:50:17.0	94.070	0.040	-0.480	0.100
2020/01/31 21:50:17.1	94.080	0.060	-0.500	0.040
2020/01/31 21:50:17.2	94.090	0.080	-0.530	-0.010
2020/01/31 21:50:17.3	94.100	0.100	-0.540	-0.070
2020/01/31 21:50:17.4	94.110	0.110	-0.560	-0.120
2020/01/31 21:50:17.5	94.120	0.120	-0.570	-0.170
2020/01/31 21:50:17.6	94.140	0.140	-0.580	-0.220
2020/01/31 21:50:17.7	94.150	0.150	-0.590	-0.270
2020/01/31 21:50:17.8	94.160	0.160	-0.590	-0.320
2020/01/31 21:50:17.9	94.170	0.170	-0.590	-0.360
2020/01/31 21:50:18.0	94.200	0.180	-0.590	-0.400
2020/01/31 21:50:18.1	94.210	0.190	-0.590	-0.440
2020/01/31 21:50:18.2	94.220	0.190	-0.590	-0.480
2020/01/31 21:50:18.3	94.230	0.200	-0.580	-0.510
2020/01/31 21:50:18.4	94.250	0.200	-0.570	-0.530
2020/01/31 21:50:18.5	94.260	0.210	-0.560	-0.560
2020/01/31 21:50:18.6	94.270	0.210	-0.550	-0.580
2020/01/31 21:50:18.7	94.280	0.210	-0.540	-0.590
2020/01/31 21:50:18.8	94.290	0.220	-0.530	-0.610
2020/01/31 21:50:18.9	94.300	0.220	-0.510	-0.610
2020/01/31 21:50:19.0	94.310	0.220	-0.500	-0.610
2020/01/31 21:50:19.1	94.320	0.220	-0.490	-0.610
2020/01/31 21:50:19.2	94.330	0.220	-0.480	-0.610
2020/01/31 21:50:19.3	94.340	0.220	-0.470	-0.600
2020/01/31 21:50:19.4	94.350	0.220	-0.460	-0.580
2020/01/31 21:50:19.5	94.360	0.210	-0.450	-0.570
2020/01/31 21:50:19.6	94.370	0.210	-0.440	-0.550
2020/01/31 21:50:19.7	94.380	0.210	-0.430	-0.520
2020/01/31 21:50:19.8	94.390	0.200	-0.430	-0.490
2020/01/31 21:50:19.9	94.400	0.200	-0.420	-0.460
2020/01/31 21:50:20.0	94.410	0.190	-0.420	-0.430
2020/01/31 21:50:20.1	94.420	0.190	-0.410	-0.390
2020/01/31 21:50:20.2	94.430	0.180	-0.410	-0.350
2020/01/31 21:50:20.3	94.440	0.180	-0.400	-0.300
2020/01/31 21:50:20.4	94.450	0.170	-0.400	-0.260
2020/01/31 21:50:20.5	94.450	0.160	-0.390	-0.200
2020/01/31 21:50:20.6	94.460	0.150	-0.390	-0.150
2020/01/31 21:50:20.7	94.470	0.140	-0.380	-0.100
2020/01/31 21:50:20.8	94.470	0.130	-0.370	-0.040
2020/01/31 21:50:20.9	94.470	0.120	-0.360	0.020
2020/01/31 21:50:21.0	94.450	0.100	-0.350	0.080
2020/01/31 21:50:21.1	94.450	0.090	-0.340	0.150
2020/01/31 21:50:21.2	94.440	0.080	-0.320	0.220
2020/01/31 21:50:21.3	94.440	0.060	-0.300	0.280
2020/01/31 21:50:21.4	94.430	0.040	-0.280	0.350
2020/01/31 21:50:21.5	94.420	0.020	-0.260	0.430
2020/01/31 21:50:21.6	94.410	0.000	-0.240	0.500
2020/01/31 21:50:21.7	94.390	-0.020	-0.210	0.570
2020/01/31 21:50:21.8	94.380	-0.040	-0.180	0.640
2020/01/31 21:50:21.9	94.360	-0.060	-0.150	0.720
2020/01/31 21:50:22.0	94.340	-0.080	-0.120	0.790
2020/01/31 21:50:22.1	94.320	-0.100	-0.080	0.870
2020/01/31 21:50:22.2	94.300	-0.130	-0.040	0.940
2020/01/31 21:50:22.3	94.280	-0.150	-0.010	1.020
2020/01/31 21:50:22.4	94.250	-0.180	0.030	1.090
2020/01/31 21:50:22.5	94.230	-0.200	0.070	1.160
2020/01/31 21:50:22.6	94.200	-0.230	0.110	1.230
2020/01/31 21:50:22.7	94.170	-0.250	0.150	1.310
2020/01/31 21:50:22.8	94.150	-0.270	0.190	1.370
2020/01/31 21:50:22.9	94.120	-0.300	0.230	1.440
2020/01/31 21:50:23.0	94.090	-0.320	0.280	1.510
2020/01/31 21:50:23.1	94.070	-0.340	0.320	1.570
2020/01/31 21:50:23.2	94.040	-0.360	0.350	1.630
2020/01/31 21:50:23.3	94.010	-0.380	0.390	1.680
2020/01/31 21:50:23.4	93.990	-0.400	0.420	1.730
2020/01/31 21:50:23.5	93.960	-0.420	0.450	1.780
2020/01/31 21:50:23.6	93.940	-0.430	0.480	1.820
2020/01/31 21:50:23.7	93.920	-0.450	0.500	1.860
2020/01/31 21:50:23.8	93.900	-0.460	0.520	1.890
2020/01/31 21:50:23.9	93.880	-0.470	0.540	1.920
2020/01/31 21:50:24.0	93.870	-0.470	0.550	1.930
2020/01/31 21:50:24.1	93.850	-0.480	0.560	1.950
2020/01/31 21:50:24.2	93.840	-0.480	0.560	1.960
2020/01/31 21:50:24.3	93.830	-0.480	0.560	1.960
2020/01/31 21:50:24.4	93.830	-0.470	0.550	1.950
2020/01/31 21:50:24.5	93.820	-0.470	0.540	1.940
2020/01/31 21:50:24.6	93.820	-0.460	0.520	1.920
2020/01/31 21:50:24.7	93.820	-0.440	0.490	1.900
2020/01/31 21:50:24.8	93.830	-0.430	0.470	1.870
2020/01/31 21:50:24.9	93.830	-0.410	0.430	1.830
2020/01/31 21:50:25.0	93.850	-0.390	0.390	1.800
2020/01/31 21:50:25.1	93.860	-0.360	0.350	1.750
2020/01/31 21:50:25.2	93.880	-0.340	0.300	1.690
2020/01/31 21:50:25.3	93.890	-0.310	0.250	1.630
2020/01/31 21:50:25.4	93.910	-0.270	0.200	1.570
2020/01/31 21:50:25.5	93.930	-0.240	0.140	1.500
2020/01/31 21:50:25.6	93.950	-0.200	0.080	1.430
2020/01/31 21:50:25.7	93.970	-0.160	0.010	1.360
2020/01/31 21:50:25.8	94.000	-0.120	-0.060	1.280
2020/01/31 21:50:25.9	94.020	-0.080	-0.120	1.200
2020/01/31 21:50:26.0	94.040	-0.030	-0.200	1.110
2020/01/31 21:50:26.1	94.070	0.020	-0.270	1.030
2020/01/31 21:50:26.2	94.090	0.060	-0.340	0.940
2020/01/31 21:50:26.3	94.120	0.110	-0.410	0.860
2020/01/31 21:50:26.4	94.150	0.160	-0.480	0.770
2020/01/31 21:50:26.5	94.180	0.210	-0.550	0.680
2020/01/31 21:50:26.6	94.210	0.260	-0.620	0.590
2020/01/31 21:50:26.7	94.240	0.320	-0.690	0.500
2020/01/31 21:50:26.8	94.270	0.370	-0.750	0.420
2020/01/31 21:50:26.9	94.300	0.410	-0.810	0.330
2020/01/31 21:50:27.0	94.330	0.460	-0.870	0.250
2020/01/31 21:50:27.1	94.360	0.510	-0.920	0.160
2020/01/31 21:50:27.2	94.390	0.560	-0.970	0.080
2020/01/31 21:50:27.3	94.420	0.600	-1.020	0.000
2020/01/31 21:50:27.4	94.450	0.640	-1.060	-0.070
2020/01/31 21:50:27.5	94.480	0.680	-1.090	-0.140
2020/01/31 21:50:27.6	94.510	0.720	-1.120	-0.210
2020/01/31 21:50:27.7	94.540	0.750	-1.150	-0.270
2020/01/31 21:50:27.8	94.570	0.780	-1.160	-0.330
2020/01/31 21:50:27.9	94.590	0.810	-1.180	-0.380
2020/01/31 21:50:28.0	94.620	0.830	-1.190	-0.430
2020/01/31 21:50:28.1	94.640	0.850	-1.190	-0.470
2020/01/31 21:50:28.2	94.660	0.860	-1.180	-0.500
2020/01/31 21:50:28.3	94.680	0.870	-1.170	-0.530
2020/01/31 21:50:28.4	94.690	0.880	-1.150	-0.550
2020/01/31 21:50:28.5	94.700	0.880	-1.120	-0.560
2020/01/31 21:50:28.6	94.700	0.870	-1.090	-0.560
2020/01/31 21:50:28.7	94.710	0.860	-1.050	-0.560
2020/01/31 21:50:28.8	94.710	0.850	-1.010	-0.550
2020/01/31 21:50:28.9	94.700	0.830	-0.960	-0.540
2020/01/31 21:50:29.0	94.690	0.800	-0.900	-0.510
2020/01/31 21:50:29.1	94.680	0.770	-0.840	-0.480
2020/01/31 21:50:29.2	94.660	0.740	-0.770	-0.450
2020/01/31 21:50:29.3	94.640	0.700	-0.700	-0.410
2020/01/31 21:50:29.4	94.620	0.660	-0.620	-0.360
2020/01/31 21:50:29.5	94.590	0.610	-0.550	-0.310
2020/01/31 21:50:29.6	94.560	0.560	-0.470	-0.260
2020/01/31 21:50:29.7	94.530	0.500	-0.380	-0.200
2020/01/31 21:50:29.8	94.500	0.440	-0.300	-0.140
2020/01/31 21:50:29.9	94.460	0.380	-0.210	-0.080
2020/01/31 21:50:30.0	94.430	0.320	-0.120	-0.010
2020/01/31 21:50:30.1	94.390	0.250	-0.030	0.060
2020/01/31 21:50:30.2	94.350	0.180	0.050	0.130
2020/01/31 21:50:30.3	94.310	0.110	0.140	0.200
2020/01/31 21:50:30.4	94.270	0.040	0.220	0.280
2020/01/31 21:50:30.5	94.230	-0.030	0.300	0.350
2020/01/31 21:50:30.6	94.200	-0.100	0.380	0.430
2020/01/31 21:50:30.7	94.160	-0.170	0.450	0.500
2020/01/31 21:50:30.8	94.120	-0.240	0.520	0.580
2020/01/31 21:50:30.9	94.080	-0.310	0.590	0.650
2020/01/31 21:50:31.0	94.060	-0.380	0.650	0.720
2020/01/31 21:50:31.1	94.020	-0.440	0.700	0.790
2020/01/31 21:50:31.2	93.990	-0.510	0.750	0.850
2020/01/31 21:50:31.3	93.960	-0.560	0.800	0.920
2020/01/31 21:50:31.4	93.930	-0.620	0.830	0.980
2020/01/31 21:50:31.5	93.900	-0.670	0.860	1.040
2020/01/31 21:50:31.6	93.880	-0.720	0.880	1.090
2020/01/31 21:50:31.7	93.860	-0.760	0.900	1.140
2020/01/31 21:50:31.8	93.840	-0.800	0.910	1.180
2020/01/31 21:50:31.9	93.820	-0.840	0.910	1.220
2020/01/31 21:50:32.0	93.810	-0.870	0.900	1.260
2020/01/31 21:50:32.1	93.800	-0.890	0.890	1.280
2020/01/31 21:50:32.2	93.790	-0.910	0.870	1.310
2020/01/31 21:50:32.3	93.780	-0.920	0.840	1.320
2020/01/31 21:50:32.4	93.780	-0.930	0.800	1.330
2020/01/31 21:50:32.5	93.780	-0.930	0.760	1.340
2020/01/31 21:50:32.6	93.790	-0.930	0.710	1.340
2020/01/31 21:50:32.7	93.790	-0.920	0.650	1.330
2020/01/31 21:50:32.8	93.800	-0.900	0.590	1.320
2020/01/31 21:50:32.9	93.820	-0.880	0.520	1.310
2020/01/31 21:50:33.0	93.840	-0.850	0.450	1.290
2020/01/31 21:50:33.1	93.860	-0.820	0.370	1.260
2020/01/31 21:50:33.2	93.890	-0.790	0.290	1.230
2020/01/31 21:50:33.3	93.910	-0.750	0.210	1.200
2020/01/31 21:50:33.4	93.940	-0.700	0.120	1.160
2020/01/31 21:50:33.5	93.970	-0.660	0.030	1.120
2020/01/31 21:50:33.6	94.000	-0.610	-0.060	1.080
2020/01/31 21:50:33.7	94.040	-0.550	-0.150	1.040
2020/01/31 21:50:33.8	94.070	-0.500	-0.240	1.000
2020/01/31 21:50:33.9	94.110	-0.440	-0.320	0.950
2020/01/31 21:50:34.0	94.150	-0.380	-0.410	0.900
2020/01/31 21:50:34.1	94.190	-0.320	-0.490	0.850
2020/01/31 21:50:34.2	94.230	-0.250	-0.570	0.810
2020/01/31 21:50:34.3	94.280	-0.190	-0.650	0.760
2020/01/31 21:50:34.4	94.320	-0.130	-0.720	0.710
2020/01/31 21:50:34.5	94.370	-0.070	-0.790	0.670
2020/01/31 21:50:34.6	94.410	-0.010	-0.850	0.620
2020/01/31 21:50:34.7	94.460	0.050	-0.900	0.580
2020/01/31 21:50:34.8	94.510	0.110	-0.950	0.540
2020/01/31 21:50:34.9	94.550	0.160	-0.990	0.500
2020/01/31 21:50:35.0	94.590	0.210	-1.020	0.470
2020/01/31 21:50:35.1	94.630	0.260	-1.050	0.430
2020/01/31 21:50:35.2	94.680	0.300	-1.070	0.400
2020/01/31 21:50:35.3	94.720	0.340	-1.080	0.380
2020/01/31 21:50:35.4	94.760	0.380	-1.080	0.350
2020/01/31 21:50:35.5	94.790	0.410	-1.070	0.330
2020/01/31 21:50:35.6	94.830	0.440	-1.060	0.320
2020/01/31 21:50:35.7	94.860	0.460	-1.040	0.300
2020/01/31 21:50:35.8	94.880	0.480	-1.010	0.290
2020/01/31 21:50:35.9	94.910	0.490	-0.970	0.280
2020/01/31 21:50:36.0	94.930	0.500	-0.930	0.280
2020/01/31 21:50:36.1	94.940	0.500	-0.880	0.280
2020/01/31 21:50:36.2	94.960	0.500	-0.830	0.280
2020/01/31 21:50:36.3	94.960	0.490	-0.770	0.290
2020/01/31 21:50:36.4	94.970	0.480	-0.700	0.290
2020/01/31 21:50:36.5	94.970	0.470	-0.630	0.300
2020/01/31 21:50:36.6	94.970	0.450	-0.560	0.320
2020/01/31 21:50:36.7	94.960	0.420	-0.490	0.330
2020/01/31 21:50:36.8	94.950	0.400	-0.410	0.350
2020/01/31 21:50:36.9	94.930	0.370	-0.330	0.370
2020/01/31 21:50:37.0	94.900	0.340	-0.250	0.390
2020/01/31 21:50:37.1	94.870	0.300	-0.170	0.420
2020/01/31 21:50:37.2	94.850	0.270	-0.090	0.440
2020/01/31 21:50:37.3	94.820	0.230	-0.020	0.470
2020/01/31 21:50:37.4	94.790	0.190	0.060	0.500
2020/01/31 21:50:37.5	94.750	0.150	0.130	0.530
2020/01/31 21:50:37.6	94.720	0.110	0.200	0.570
2020/01/31 21:50:37.7	94.680	0.070	0.270	0.600
2020/01/31 21:50:37.8	94.640	0.030	0.330	0.640
2020/01/31 21:50:37.9	94.600	-0.010	0.390	0.670
2020/01/31 21:50:38.0	94.560	-0.050	0.440	0.710
2020/01/31 21:50:38.1	94.510	-0.080	0.480	0.740
2020/01/31 21:50:38.2	94.470	-0.120	0.520	0.770
2020/01/31 21:50:38.3	94.430	-0.150	0.550	0.810
2020/01/31 21:50:38.4	94.390	-0.180	0.580	0.840
2020/01/31 21:50:38.5	94.350	-0.200	0.600	0.870
2020/01/31 21:50:38.6	94.300	-0.220	0.610	0.890
2020/01/31 21:50:38.7	94.270	-0.240	0.620	0.920
2020/01/31 21:50:38.8	94.230	-0.260	0.620	0.940
2020/01/31 21:50:38.9	94.190	-0.270	0.610	0.960
2020/01/31 21:50:39.0	94.150	-0.280	0.590	0.980
2020/01/31 21:50:39.1	94.110	-0.290	0.570	0.990
2020/01/31 21:50:39.2	94.090	-0.290	0.540	0.990
2020/01/31 21:50:39.3	94.060	-0.290	0.510	1.000
2020/01/31 21:50:39.4	94.040	-0.280	0.460	1.000
2020/01/31 21:50:39.5	94.020	-0.280	0.410	0.990
2020/01/31 21:50:39.6	94.010	-0.260	0.360	0.980
2020/01/31 21:50:39.7	94.000	-0.250	0.300	0.970
2020/01/31 21:50:39.8	93.990	-0.230	0.240	0.950
2020/01/31 21:50:39.9	93.980	-0.210	0.170	0.920
2020/01/31 21:50:40.0	93.990	-0.190	0.100	0.900
2020/01/31 21:50:40.1	93.990	-0.160	0.030	0.870
2020/01/31 21:50:40.2	94.000	-0.140	-0.050	0.830
2020/01/31 21:50:40.3	94.010	-0.110	-0.120	0.800
2020/01/31 21:50:40.4	94.020	-0.080	-0.200	0.760
2020/01/31 21:50:40.5	94.030	-0.050	-0.280	0.720
2020/01/31 21:50:40.6	94.050	-0.020	-0.350	0.670
2020/01/31 21:50:40.7	94.080	0.010	-0.430	0.620
2020/01/31 21:50:40.8	94.100	0.040	-0.500	0.580
2020/01/31 21:50:40.9	94.130	0.070	-0.570	0.530
2020/01/31 21:50:41.0	94.160	0.100	-0.640	0.480
2020/01/31 21:50:41.1	94.200	0.130	-0.700	0.430
2020/01/31 21:50:41.2	94.230	0.160	-0.760	0.380
2020/01/31 21:50:41.3	94.260	0.190	-0.810	0.330
2020/01/31 21:50:41.4	94.300	0.210	-0.860	0.270
2020/01/31 21:50:41.5	94.340	0.230	-0.900	0.230
2020/01/31 21:50:41.6	94.370	0.250	-0.940	0.180
2020/01/31 21:50:41.7	94.410	0.270	-0.970	0.130
2020/01/31 21:50:41.8	94.450	0.290	-0.990	0.090
2020/01/31 21:50:41.9	94.490	0.300	-1.000	0.050
2020/01/31 21:50:42.0	94.520	0.310	-1.010	0.010
2020/01/31 21:50:42.1	94.550	0.310	-1.010	-0.030
2020/01/31 21:50:42.2	94.590	0.320	-1.010	-0.060
2020/01/31 21:50:42.3	94.620	0.320	-0.990	-0.090
2020/01/31 21:50:42.4	94.640	0.310	-0.970	-0.110
2020/01/31 21:50:42.5	94.670	0.310	-0.940	-0.130
2020/01/31 21:50:42.6	94.690	0.300	-0.910	-0.150
2020/01/31 21:50:42.7	94.710	0.290	-0.870	-0.160
2020/01/31 21:50:42.8	94.730	0.270	-0.820	-0.170
2020/01/31 21:50:42.9	94.740	0.260	-0.770	-0.170
2020/01/31 21:50:43.0	94.750	0.240	-0.710	-0.160
2020/01/31 21:50:43.1	94.750	0.220	-0.650	-0.160
2020/01/31 21:50:43.2	94.760	0.190	-0.580	-0.140
2020/01/31 21:50:43.3	94.760	0.170	-0.510	-0.120
2020/01/31 21:50:43.4	94.750	0.140	-0.440	-0.100
2020/01/31 21:50:43.5	94.750	0.120	-0.370	-0.070
2020/01/31 21:50:43.6	94.740	0.090	-0.290	-0.040
2020/01/31 21:50:43.7	94.720	0.060	-0.220	0.000
2020/01/31 21:50:43.8	94.710	0.040	-0.150	0.040
2020/01/31 21:50:43.9	94.690	0.010	-0.080	0.090
2020/01/31 21:50:44.0	94.680	-0.020	-0.010	0.130
2020/01/31 21:50:44.1	94.660	-0.040	0.060	0.190
2020/01/31 21:50:44.2	94.640	-0.070	0.120	0.240
2020/01/31 21:50:44.3	94.620	-0.090	0.180	0.290
2020/01/31 21:50:44.4	94.600	-0.110	0.230	0.350
2020/01/31 21:50:44.5	94.580	-0.130	0.280	0.410
2020/01/31 21:50:44.6	94.550	-0.150	0.320	0.460
2020/01/31 21:50:44.7	94.530	-0.160	0.360	0.520
2020/01/31 21:50:44.8	94.510	-0.180	0.390	0.570
2020/01/31 21:50:44.9	94.490	-0.190	0.410	0.620
2020/01/31 21:50:45.0	94.480	-0.200	0.420	0.680
2020/01/31 21:50:45.1	94.460	-0.200	0.430	0.720
2020/01/31 21:50:45.2	94.450	-0.200	0.440	0.770
2020/01/31 21:50:45.3	94.430	-0.200	0.430	0.810
2020/01/31 21:50:45.4	94.420	-0.200	0.420	0.840
2020/01/31 21:50:45.5	94.410	-0.190	0.400	0.870
2020/01/31 21:50:45.6	94.400	-0.190	0.380	0.900
2020/01/31 21:50:45.7	94.400	-0.180	0.350	0.920
2020/01/31 21:50:45.8	94.390	-0.160	0.320	0.940
2020/01/31 21:50:45.9	94.390	-0.150	0.280	0.950
2020/01/31 21:50:46.0	94.390	-0.130	0.240	0.960
2020/01/31 21:50:46.1	94.390	-0.120	0.200	0.960
2020/01/31 21:50:46.2	94.400	-0.100	0.150	0.970
2020/01/31 21:50:46.3	94.400	-0.070	0.100	0.960
2020/01/31 21:50:46.4	94.410	-0.050	0.050	0.960
2020/01/31 21:50:46.5	94.420	-0.030	0.000	0.950
2020/01/31 21:50:46.6	94.430	-0.010	-0.050	0.940
2020/01/31 21:50:46.7	94.450	0.020	-0.090	0.930
2020/01/31 21:50:46.8	94.460	0.040	-0.140	0.910
2020/01/31 21:50:46.9	94.480	0.070	-0.190	0.900
2020/01/31 21:50:47.0	94.490	0.090	-0.230	0.880
2020/01/31 21:50:47.1	94.500	0.110	-0.270	0.860
2020/01/31 21:50:47.2	94.520	0.140	-0.300	0.840
2020/01/31 21:50:47.3	94.540	0.160	-0.340	0.820
2020/01/31 21:50:47.4	94.560	0.180	-0.360	0.800
2020/01/31 21:50:47.5	94.580	0.190	-0.390	0.780
2020/01/31 21:50:47.6	94.600	0.210	-0.410	0.760
2020/01/31 21:50:47.7	94.620	0.220	-0.420	0.740
2020/01/31 21:50:47.8	94.640	0.240	-0.430	0.710
2020/01/31 21:50:47.9	94.660	0.250	-0.430	0.690
2020/01/31 21:50:48.0	94.670	0.250	-0.430	0.670
2020/01/31 21:50:48.1	94.690	0.260	-0.430	0.640
2020/01/31 21:50:48.2	94.720	0.260	-0.420	0.620
2020/01/31 21:50:48.3	94.740	0.260	-0.400	0.600
2020/01/31 21:50:48.4	94.760	0.260	-0.380	0.580
2020/01/31 21:50:48.5	94.770	0.250	-0.360	0.560
2020/01/31 21:50:48.6	94.790	0.240	-0.330	0.540
2020/01/31 21:50:48.7	94.810	0.230	-0.300	0.520
2020/01/31 21:50:48.8	94.830	0.220	-0.270	0.510
2020/01/31 21:50:48.9	94.840	0.210	-0.230	0.490
2020/01/31 21:50:49.0	94.860	0.190	-0.190	0.480
2020/01/31 21:50:49.1	94.870	0.170	-0.150	0.470
2020/01/31 21:50:49.2	94.880	0.150	-0.110	0.450
2020/01/31 21:50:49.3	94.890	0.130	-0.070	0.440
2020/01/31 21:50:49.4	94.900	0.100	-0.020	0.430
2020/01/31 21:50:49.5	94.900	0.080	0.020	0.430
2020/01/31 21:50:49.6	94.910	0.050	0.060	0.420
2020/01/31 21:50:49.7	94.910	0.030	0.100	0.420
2020/01/31 21:50:49.8	94.910	-0.000	0.130	0.420
2020/01/31 21:50:49.9	94.900	-0.030	0.170	0.420
2020/01/31 21:50:50.0	94.900	-0.060	0.200	0.420
2020/01/31 21:50:50.1	94.890	-0.090	0.220	0.420
2020/01/31 21:50:50.2	94.880	-0.110	0.250	0.430
2020/01/31 21:50:50.3	94.870	-0.140	0.270	0.440
2020/01/31 21:50:50.4	94.860	-0.170	0.290	0.440
2020/01/31 21:50:50.5	94.850	-0.190	0.300	0.450
2020/01/31 21:50:50.6	94.830	-0.210	0.310	0.470
2020/01/31 21:50:50.7	94.820	-0.240	0.310	0.480
2020/01/31 21:50:50.8	94.800	-0.260	0.300	0.490
2020/01/31 21:50:50.9	94.780	-0.280	0.290	0.510
2020/01/31 21:50:51.0	94.780	-0.290	0.280	0.520
2020/01/31 21:50:51.1	94.770	-0.310	0.260	0.540
2020/01/31 21:50:51.2	94.750	-0.320	0.230	0.550
2020/01/31 21:50:51.3	94.730	-0.330	0.190	0.570
2020/01/31 21:50:51.4	94.710	-0.340	0.160	0.590
2020/01/31 21:50:51.5	94.700	-0.340	0.110	0.600
2020/01/31 21:50:51.6	94.680	-0.350	0.060	0.620
2020/01/31 21:50:51.7	94.670	-0.350	0.010	0.640
2020/01/31 21:50:51.8	94.650	-0.340	-0.050	0.650
2020/01/31 21:50:51.9	94.640	-0.340	-0.110	0.670
2020/01/31 21:50:52.0	94.620	-0.330	-0.180	0.690
2020/01/31 21:50:52.1	94.610	-0.320	-0.240	0.700
2020/01/31 21:50:52.2	94.600	-0.310	-0.310	0.720
2020/01/31 21:50:52.3	94.600	-0.300	-0.380	0.730
2020/01/31 21:50:52.4	94.590	-0.280	-0.450	0.750
2020/01/31 21:50:52.5	94.590	-0.260	-0.520	0.760
2020/01/31 21:50:52.6	94.580	-0.240	-0.590	0.770
2020/01/31 21:50:52.7	94.580	-0.220	-0.660	0.790
2020/01/31 21:50:52.8	94.590	-0.200	-0.730	0.800
2020/01/31 21:50:52.9	94.590	-0.180	-0.790	0.810
2020/01/31 21:50:53.0	94.590	-0.150	-0.850	0.820
2020/01/31 21:50:53.1	94.590	-0.130	-0.910	0.820
2020/01/31 21:50:53.2	94.600	-0.100	-0.960	0.830
2020/01/31 21:50:53.3	94.610	-0.080	-1.010	0.830
2020/01/31 21:50:53.4	94.630	-0.050	-1.050	0.840
2020/01/31 21:50:53.5	94.640	-0.020	-1.080	0.840
2020/01/31 21:50:53.6	94.660	0.000	-1.100	0.840
2020/01/31 21:50:53.7	94.670	0.030	-1.120	0.840
2020/01/31 21:50:53.8	94.690	0.050	-1.130	0.840
2020/01/31 21:50:53.9	94.710	0.070	-1.140	0.840
2020/01/31 21:50:54.0	94.720	0.090	-1.130	0.840
2020/01/31 21:50:54.1	94.740	0.110	-1.120	0.830
2020/01/31 21:50:54.2	94.760	0.130	-1.100	0.830
2020/01/31 21:50:54.3	94.780	0.140	-1.070	0.830
2020/01/31 21:50:54.4	94.790	0.160	-1.030	0.820
2020/01/31 21:50:54.5	94.810	0.170	-0.990	0.820
2020/01/31 21:50:54.6	94.830	0.180	-0.930	0.810
2020/01/31 21:50:54.7	94.840	0.180	-0.870	0.810
2020/01/31 21:50:54.8	94.860	0.190	-0.810	0.800
2020/01/31 21:50:54.9	94.870	0.190	-0.730	0.790
2020/01/31 21:50:55.0	94.890	0.180	-0.650	0.790
2020/01/31 21:50:55.1	94.900	0.180	-0.570	0.780
2020/01/31 21:50:55.2	94.910	0.170	-0.480	0.770
2020/01/31 21:50:55.3	94.920	0.160	-0.380	0.770
2020/01/31 21:50:55.4	94.930	0.150	-0.290	0.760
2020/01/31 21:50:55.5	94.940	0.140	-0.190	0.750
2020/01/31 21:50:55.6	94.940	0.120	-0.090	0.740
2020/01/31 21:50:55.7	94.950	0.110	0.000	0.730
2020/01/31 21:50:55.8	94.960	0.090	0.100	0.720
2020/01/31 21:50:55.9	94.960	0.070	0.200	0.700
2020/01/31 21:50:56.0	94.960	0.050	0.290	0.690
2020/01/31 21:50:56.1	94.960	0.030	0.380	0.680
2020/01/31 21:50:56.2	94.960	0.010	0.470	0.670
2020/01/31 21:50:56.3	94.960	-0.010	0.550	0.660
2020/01/31 21:50:56.4	94.960	-0.030	0.630	0.640
2020/01/31 21:50:56.5	94.970	-0.050	0.700	0.630
2020/01/31 21:50:56.6	94.970	-0.070	0.760	0.610
2020/01/31 21:50:56.7	94.970	-0.090	0.820	0.600
2020/01/31 21:50:56.8	94.970	-0.110	0.870	0.580
2020/01/31 21:50:56.9	94.970	-0.130	0.910	0.560
2020/01/31 21:50:57.0	94.980	-0.140	0.950	0.550
2020/01/31 21:50:57.1	94.980	-0.160	0.980	0.530
2020/01/31 21:50:57.2	94.980	-0.170	1.000	0.510
2020/01/31 21:50:57.3	94.980	-0.180	1.010	0.490
2020/01/31 21:50:57.4	94.980	-0.190	1.010	0.470
2020/01/31 21:50:57.5	94.980	-0.190	1.000	0.450
2020/01/31 21:50:57.6	94.990	-0.190	0.980	0.430
2020/01/31 21:50:57.7	94.990	-0.190	0.960	0.410
2020/01/31 21:50:57.8	94.990	-0.190	0.930	0.390
2020/01/31 21:50:57.9	94.980	-0.190	0.890	0.370
2020/01/31 21:50:58.0	94.990	-0.190	0.840	0.350
2020/01/31 21:50:58.1	94.990	-0.180	0.790	0.330
2020/01/31 21:50:58.2	94.980	-0.170	0.730	0.310
2020/01/31 21:50:58.3	94.980	-0.160	0.660	0.290
2020/01/31 21:50:58.4	94.970	-0.140	0.590	0.270
2020/01/31 21:50:58.5	94.970	-0.130	0.510	0.250
2020/01/31 21:50:58.6	94.960	-0.110	0.440	0.240
2020/01/31 21:50:58.7	94.960	-0.100	0.350	0.220
2020/01/31 21:50:58.8	94.950	-0.080	0.270	0.210
2020/01/31 21:50:58.9	94.940	-0.060	0.180	0.190
2020/01/31 21:50:59.0	94.930	-0.040	0.090	0.180
2020/01/31 21:50:59.1	94.920	-0.020	-0.000	0.160
2020/01/31 21:50:59.2	94.910	0.000	-0.100	0.150
2020/01/31 21:50:59.3	94.910	0.020	-0.190	0.140
2020/01/31 21:50:59.4	94.900	0.040	-0.280	0.130
2020/01/31 21:50:59.5	94.890	0.060	-0.370	0.120
2020/01/31 21:50:59.6	94.880	0.090	-0.460	0.110
2020/01/31 21:50:59.7	94.870	0.110	-0.550	0.100
2020/01/31 21:50:59.8	94.870	0.120	-0.630	0.100
2020/01/31 21:50:59.9	94.860	0.140	-0.710	0.090
2020/01/31 21:51:00.0	94.850	0.160	-0.790	0.080
2020/01/31 21:51:00.1	94.850	0.180	-0.870	0.080
2020/01/31 21:51:00.2	94.840	0.190	-0.940	0.070
2020/01/31 21:51:00.3	94.830	0.210	-1.000	0.070
2020/01/31 21:51:00.4	94.830	0.220	-1.060	0.070
2020/01/31 21:51:00.5	94.830	0.230	-1.110	0.070
2020/01/31 21:51:00.6	94.820	0.250	-1.160	0.070
2020/01/31 21:51:00.7	94.820	0.260	-1.200	0.060
2020/01/31 21:51:00.8	94.820	0.270	-1.240	0.070
2020/01/31 21:51:00.9	94.820	0.270	-1.270	0.070
2020/01/31 21:51:01.0	94.810	0.280	-1.290	0.070
2020/01/31 21:51:01.1	94.810	0.290	-1.310	0.070
2020/01/31 21:51:01.2	94.820	0.290	-1.320	0.070
2020/01/31 21:51:01.3	94.830	0.300	-1.330	0.080
2020/01/31 21:51:01.4	94.830	0.300	-1.330	0.080
2020/01/31 21:51:01.5	94.840	0.300	-1.320	0.090
2020/01/31 21:51:01.6	94.860	0.310	-1.310	0.100
2020/01/31 21:51:01.7	94.870	0.310	-1.290	0.100
2020/01/31 21:51:01.8	94.880	0.310	-1.270	0.110
2020/01/31 21:51:01.9	94.900	0.310	-1.240	0.130
2020/01/31 21:51:02.0	94.910	0.310	-1.200	0.140
2020/01/31 21:51:02.1	94.920	0.300	-1.170	0.160
2020/01/31 21:51:02.2	94.940	0.300	-1.120	0.170
2020/01/31 21:51:02.3	94.950	0.300	-1.080	0.190
2020/01/31 21:51:02.4	94.970	0.290	-1.020	0.220
2020/01/31 21:51:02.5	94.990	0.290	-0.970	0.240
2020/01/31 21:51:02.6	95.000	0.280	-0.910	0.270
2020/01/31 21:51:02.7	95.020	0.280	-0.840	0.300
2020/01/31 21:51:02.8	95.030	0.270	-0.780	0.330
2020/01/31 21:51:02.9	95.040	0.260	-0.710	0.360
2020/01/31 21:51:03.0	95.050	0.250	-0.640	0.400
2020/01/31 21:51:03.1	95.060	0.240	-0.570	0.440
2020/01/31 21:51:03.2	95.070	0.230	-0.490	0.470
2020/01/31 21:51:03.3	95.070	0.220	-0.410	0.510
2020/01/31 21:51:03.4	95.080	0.200	-0.330	0.550
2020/01/31 21:51:03.5	95.090	0.190	-0.250	0.580
2020/01/31 21:51:03.6	95.090	0.170	-0.170	0.620
2020/01/31 21:51:03.7	95.090	0.150	-0.090	0.660
2020/01/31 21:51:03.8	95.100	0.140	-0.010	0.690
2020/01/31 21:51:03.9	95.100	0.120	0.070	0.720
2020/01/31 21:51:04.0	95.100	0.090	0.150	0.760
2020/01/31 21:51:04.1	95.100	0.070	0.230	0.790
2020/01/31 21:51:04.2	95.100	0.050	0.310	0.810
2020/01/31 21:51:04.3	95.100	0.030	0.380	0.840
2020/01/31 21:51:04.4	95.100	0.000	0.450	0.860
2020/01/31 21:51:04.5	95.100	-0.020	0.530	0.890
2020/01/31 21:51:04.6	95.100	-0.050	0.590	0.910
2020/01/31 21:51:04.7	95.100	-0.080	0.660	0.930
2020/01/31 21:51:04.8	95.090	-0.110	0.720	0.940
2020/01/31 21:51:04.9	95.090	-0.140	0.780	0.960
2020/01/31 21:51:05.0	95.080	-0.170	0.840	0.970
2020/01/31 21:51:05.1	95.080	-0.200	0.890	0.990
2020/01/31 21:51:05.2	95.070	-0.230	0.930	1.000
2020/01/31 21:51:05.3	95.070	-0.260	0.980	1.010
2020/01/31 21:51:05.4	95.070	-0.290	1.020	1.030
2020/01/31 21:51:05.5	95.060	-0.320	1.050	1.030
2020/01/31 21:51:05.6	95.060	-0.350	1.080	1.040
2020/01/31 21:51:05.7	95.050	-0.380	1.100	1.050
2020/01/31 21:51:05.8	95.050	-0.400	1.120	1.060
2020/01/31 21:51:05.9	95.040	-0.430	1.130	1.060
2020/01/31 21:51:06.0	95.040	-0.460	1.130	1.070
2020/01/31 21:51:06.1	95.030	-0.480	1.130	1.070
2020/01/31 21:51:06.2	95.030	-0.500	1.120	1.070
2020/01/31 21:51:06.3	95.020	-0.520	1.110	1.070
2020/01/31 21:51:06.4	95.020	-0.540	1.090	1.070
2020/01/31 21:51:06.5	95.010	-0.560	1.060	1.070
2020/01/31 21:51:06.6	95.010	-0.570	1.020	1.060
2020/01/31 21:51:06.7	95.000	-0.580	0.980	1.050
2020/01/31 21:51:06.8	95.000	-0.590	0.930	1.040
2020/01/31 21:51:06.9	95.000	-0.590	0.870	1.030
2020/01/31 21:51:07.0	95.000	-0.590	0.800	1.020
2020/01/31 21:51:07.1	95.000	-0.580	0.730	1.000
2020/01/31 21:51:07.2	95.000	-0.570	0.650	0.980
2020/01/31 21:51:07.3	95.010	-0.560	0.570	0.960
2020/01/31 21:51:07.4	95.010	-0.550	0.480	0.940
2020/01/31 21:51:07.5	95.020	-0.520	0.390	0.920
2020/01/31 21:51:07.6	95.020	-0.500	0.290	0.900
2020/01/31 21:51:07.7	95.030	-0.470	0.190	0.870
2020/01/31 21:51:07.8	95.040	-0.440	0.080	0.840
2020/01/31 21:51:07.9	95.050	-0.400	-0.030	0.810
2020/01/31 21:51:08.0	95.080	-0.360	-0.150	0.790
2020/01/31 21:51:08.1	95.090	-0.320	-0.270	0.760
2020/01/31 21:51:08.2	95.110	-0.270	-0.380	0.720
2020/01/31 21:51:08.3	95.120	-0.230	-0.500	0.690
2020/01/31 21:51:08.4	95.140	-0.180	-0.620	0.660
2020/01/31 21:51:08.5	95.160	-0.120	-0.730	0.620
2020/01/31 21:51:08.6	95.180	-0.070	-0.850	0.590
2020/01/31 21:51:08.7	95.210	-0.010	-0.960	0.560
2020/01/31 21:51:08.8	95.230	0.040	-1.070	0.520
2020/01/31 21:51:08.9	95.250	0.100	-1.170	0.490
2020/01/31 21:51:09.0	95.270	0.160	-1.270	0.460
2020/01/31 21:51:09.1	95.300	0.210	-1.370	0.430
2020/01/31 21:51:09.2	95.320	0.270	-1.450	0.400
2020/01/31 21:51:09.3	95.340	0.320	-1.530	0.370
2020/01/31 21:51:09.4	95.360	0.370	-1.600	0.350
2020/01/31 21:51:09.5	95.380	0.420	-1.660	0.320
2020/01/31 21:51:09.6	95.390	0.470	-1.710	0.300
2020/01/31 21:51:09.7	95.410	0.510	-1.750	0.280
2020/01/31 21:51:09.8	95.420	0.550	-1.790	0.260
2020/01/31 21:51:09.9	95.440	0.590	-1.810	0.250
2020/01/31 21:51:10.0	95.440	0.620	-1.810	0.240
2020/01/31 21:51:10.1	95.450	0.650	-1.810	0.230
2020/01/31 21:51:10.2	95.450	0.670	-1.790	0.230
2020/01/31 21:51:10.3	95.460	0.690	-1.770	0.230
2020/01/31 21:51:10.4	95.460	0.710	-1.740	0.220
2020/01/31 21:51:10.5	95.460	0.720	-1.690	0.230
2020/01/31 21:51:10.6	95.450	0.720	-1.640	0.230
2020/01/31 21:51:10.7	95.450	0.720	-1.580	0.240
2020/01/31 21:51:10.8	95.440	0.720	-1.500	0.250
2020/01/31 21:51:10.9	95.430	0.710	-1.420	0.260
2020/01/31 21:51:11.0	95.410	0.690	-1.340	0.280
2020/01/31 21:51:11.1	95.400	0.670	-1.240	0.290
2020/01/31 21:51:11.2	95.380	0.650	-1.140	0.310
2020/01/31 21:51:11.3	95.370	0.620	-1.030	0.330
2020/01/31 21:51:11.4	95.350	0.590	-0.920	0.360
2020/01/31 21:51:11.5	95.330	0.560	-0.810	0.380
2020/01/31 21:51:11.6	95.300	0.520	-0.690	0.400
2020/01/31 21:51:11.7	95.280	0.480	-0.570	0.430
2020/01/31 21:51:11.8	95.260	0.440	-0.450	0.460
2020/01/31 21:51:11.9	95.230	0.390	-0.320	0.480
2020/01/31 21:51:12.0	95.200	0.350	-0.200	0.520
2020/01/31 21:51:12.1	95.180	0.300	-0.070	0.540
2020/01/31 21:51:12.2	95.150	0.250	0.050	0.570
2020/01/31 21:51:12.3	95.120	0.200	0.170	0.590
2020/01/31 21:51:12.4	95.100	0.150	0.280	0.610
2020/01/31 21:51:12.5	95.070	0.090	0.400	0.630
2020/01/31 21:51:12.6	95.040	0.040	0.510	0.650
2020/01/31 21:51:12.7	95.020	-0.010	0.610	0.670
2020/01/31 21:51:12.8	95.000	-0.060	0.710	0.680
2020/01/31 21:51:12.9	94.970	-0.110	0.810	0.690
2020/01/31 21:51:13.0	94.960	-0.160	0.900	0.690
2020/01/31 21:51:13.1	94.940	-0.200	0.980	0.700
2020/01/31 21:51:13.2	94.920	-0.250	1.050	0.700
2020/01/31 21:51:13.3	94.900	-0.290	1.120	0.690
2020/01/31 21:51:13.4	94.890	-0.330	1.180	0.680
2020/01/31 21:51:13.5	94.880	-0.370	1.230	0.670
2020/01/31 21:51:13.6	94.860	-0.410	1.280	0.650
2020/01/31 21:51:13.7	94.850	-0.440	1.310	0.630
2020/01/31 21:51:13.8	94.850	-0.470	1.340	0.610
2020/01/31 21:51:13.9	94.840	-0.490	1.360	0.580
2020/01/31 21:51:14.0	94.840	-0.520	1.360	0.560
2020/01/31 21:51:14.1	94.840	-0.540	1.360	0.520
2020/01/31 21:51:14.2	94.840	-0.550	1.350	0.490
2020/01/31 21:51:14.3	94.840	-0.570	1.330	0.450
2020/01/31 21:51:14.4	94.850	-0.580	1.300	0.410
2020/01/31 21:51:14.5	94.850	-0.580	1.270	0.370
2020/01/31 21:51:14.6	94.860	-0.580	1.220	0.330
2020/01/31 21:51:14.7	94.870	-0.580	1.170	0.290
2020/01/31 21:51:14.8	94.880	-0.570	1.100	0.240
2020/01/31 21:51:14.9	94.890	-0.570	1.030	0.200
2020/01/31 21:51:15.0	94.900	-0.550	0.960	0.150
2020/01/31 21:51:15.1	94.920	-0.540	0.870	0.100
2020/01/31 21:51:15.2	94.940	-0.520	0.780	0.060
2020/01/31 21:51:15.3	94.950	-0.500	0.690	0.010
2020/01/31 21:51:15.4	94.970	-0.470	0.590	-0.030
2020/01/31 21:51:15.5	94.990	-0.440	0.480	-0.070
2020/01/31 21:51:15.6	95.010	-0.410	0.370	-0.110
2020/01/31 21:51:15.7	95.040	-0.380	0.260	-0.150
2020/01/31 21:51:15.8	95.060	-0.350	0.150	-0.190
2020/01/31 21:51:15.9	95.080	-0.310	0.030	-0.230
2020/01/31 21:51:16.0	95.110	-0.280	-0.080	-0.250
2020/01/31 21:51:16.1	95.140	-0.240	-0.200	-0.280
2020/01/31 21:51:16.2	95.160	-0.200	-0.310	-0.310
2020/01/31 21:51:16.3	95.190	-0.160	-0.430	-0.340
2020/01/31 21:51:16.4	95.210	-0.120	-0.540	-0.360
2020/01/31 21:51:16.5	95.240	-0.080	-0.650	-0.380
2020/01/31 21:51:16.6	95.260	-0.040	-0.750	-0.400
2020/01/31 21:51:16.7	95.290	-0.000	-0.850	-0.410
2020/01/31 21:51:16.8	95.310	0.030	-0.940	-0.420
2020/01/31 21:51:16.9	95.330	0.070	-1.030	-0.420
2020/01/31 21:51:17.0	95.360	0.110	-1.120	-0.430
2020/01/31 21:51:17.1	95.380	0.140	-1.200	-0.420
2020/01/31 21:51:17.2	95.400	0.180	-1.270	-0.420
2020/01/31 21:51:17.3	95.420	0.210	-1.330	-0.410
2020/01/31 21:51:17.4	95.430	0.240	-1.390	-0.390
2020/01/31 21:51:17.5	95.450	0.270	-1.440	-0.370
2020/01/31 21:51:17.6	95.460	0.290	-1.480	-0.350
2020/01/31 21:51:17.7	95.470	0.320	-1.510	-0.330
2020/01/31 21:51:17.8	95.480	0.340	-1.530	-0.300
2020/01/31 21:51:17.9	95.490	0.360	-1.550	-0.260
2020/01/31 21:51:18.0	95.490	0.380	-1.560	-0.230
2020/01/31 21:51:18.1	95.490	0.390	-1.560	-0.190
2020/01/31 21:51:18.2	95.490	0.400	-1.550	-0.140
2020/01/31 21:51:18.3	95.490	0.410	-1.530	-0.100
2020/01/31 21:51:18.4	95.490	0.420	-1.510	-0.050
2020/01/31 21:51:18.5	95.480	0.420	-1.480	0.000
2020/01/31 21:51:18.6	95.470	0.430	-1.440	0.060
2020/01/31 21:51:18.7	95.460	0.430	-1.400	0.110
2020/01/31 21:51:18.8	95.450	0.420	-1.350	0.170
2020/01/31 21:51:18.9	95.440	0.420	-1.290	0.240
2020/01/31 21:51:19.0	95.420	0.410	-1.230	0.300
2020/01/31 21:51:19.1	95.400	0.400	-1.160	0.370
2020/01/31 21:51:19.2	95.380	0.390	-1.090	0.440
2020/01/31 21:51:19.3	95.360	0.370	-1.010	0.510
2020/01/31 21:51:19.4	95.340	0.350	-0.930	0.580
2020/01/31 21:51:19.5	95.310	0.330	-0.850	0.650
2020/01/31 21:51:19.6	95.280	0.310	-0.760	0.720
2020/01/31 21:51:19.7	95.260	0.290	-0.670	0.790
2020/01/31 21:51:19.8	95.230	0.260	-0.580	0.870
2020/01/31 21:51:19.9	95.200	0.240	-0.490	0.940
2020/01/31 21:51:20.0	95.140	0.210	-0.390	1.010
2020/01/31 21:51:20.1	95.110	0.180	-0.300	1.080
2020/01/31 21:51:20.2	95.080	0.150	-0.200	1.150
2020/01/31 21:51:20.3	95.050	0.110	-0.110	1.210
2020/01/31 21:51:20.4	95.020	0.080	-0.020	1.270
2020/01/31 21:51:20.5	94.990	0.050	0.080	1.330
2020/01/31 21:51:20.6	94.960	0.010	0.160	1.390
2020/01/31 21:51:20.7	94.930	-0.020	0.250	1.440
2020/01/31 21:51:20.8	94.900	-0.060	0.330	1.490
2020/01/31 21:51:20.9	94.880	-0.090	0.410	1.540
2020/01/31 21:51:21.0	94.870	-0.130	0.490	1.570
2020/01/31 21:51:21.1	94.850	-0.160	0.560	1.610
2020/01/31 21:51:21.2	94.830	-0.190	0.630	1.640
2020/01/31 21:51:21.3	94.810	-0.230	0.690	1.660
2020/01/31 21:51:21.4	94.800	-0.260	0.750	1.680
2020/01/31 21:51:21.5	94.790	-0.290	0.800	1.690
2020/01/31 21:51:21.6	94.780	-0.320	0.850	1.700
2020/01/31 21:51:21.7	94.770	-0.340	0.890	1.710
2020/01/31 21:51:21.8	94.770	-0.370	0.930	1.700
2020/01/31 21:51:21.9	94.760	-0.390	0.960	1.700
2020/01/31 21:51:22.0	94.780	-0.420	0.990	1.690
2020/01/31 21:51:22.1	94.780	-0.440	1.010	1.680
2020/01/31 21:51:22.2	94.780	-0.450	1.020	1.660
2020/01/31 21:51:22.3	94.780	-0.470	1.030	1.630
2020/01/31 21:51:22.4	94.790	-0.480	1.030	1.600
2020/01/31 21:51:22.5	94.800	-0.490	1.030	1.570
2020/01/31 21:51:22.6	94.810	-0.500	1.020	1.540
2020/01/31 21:51:22.7	94.820	-0.510	1.010	1.490
2020/01/31 21:51:22.8	94.830	-0.510	0.990	1.450
2020/01/31 21:51:22.9	94.840	-0.510	0.960	1.400
2020/01/31 21:51:23.0	94.850	-0.510	0.930	1.360
2020/01/31 21:51:23.1	94.870	-0.500	0.900	1.300
2020/01/31 21:51:23.2	94.890	-0.490	0.860	1.240
2020/01/31 21:51:23.3	94.900	-0.480	0.810	1.180
2020/01/31 21:51:23.4	94.920	-0.470	0.760	1.120
2020/01/31 21:51:23.5	94.940	-0.450	0.710	1.060
2020/01/31 21:51:23.6	94.960	-0.440	0.650	0.990
2020/01/31 21:51:23.7	94.980	-0.420	0.590	0.920
2020/01/31 21:51:23.8	95.000	-0.390	0.520	0.850
2020/01/31 21:51:23.9	95.020	-0.370	0.450	0.780
2020/01/31 21:51:24.0	95.040	-0.340	0.370	0.700
2020/01/31 21:51:24.1	95.070	-0.310	0.290	0.620
2020/01/31 21:51:24.2	95.090	-0.270	0.210	0.550
2020/01/31 21:51:24.3	95.110	-0.240	0.120	0.470
2020/01/31 21:51:24.4	95.130	-0.200	0.040	0.400
2020/01/31 21:51:24.5	95.150	-0.160	-0.050	0.320
2020/01/31 21:51:24.6	95.170	-0.120	-0.140	0.250
2020/01/31 21:51:24.7	95.200	-0.080	-0.240	0.170
2020/01/31 21:51:24.8	95.220	-0.040	-0.330	0.100
2020/01/31 21:51:24.9	95.240	0.010	-0.430	0.020
2020/01/31 21:51:25.0	95.270	0.050	-0.520	-0.040
2020/01/31 21:51:25.1	95.290	0.100	-0.610	-0.110
2020/01/31 21:51:25.2	95.310	0.150	-0.700	-0.180
2020/01/31 21:51:25.3	95.330	0.190	-0.790	-0.240
2020/01/31 21:51:25.4	95.340	0.240	-0.880	-0.300
2020/01/31 21:51:25.5	95.360	0.290	-0.970	-0.360
2020/01/31 21:51:25.6	95.370	0.330	-1.050	-0.410
2020/01/31 21:51:25.7	95.380	0.380	-1.130	-0.460
2020/01/31 21:51:25.8	95.400	0.420	-1.200	-0.510
2020/01/31 21:51:25.9	95.400	0.470	-1.270	-0.550
2020/01/31 21:51:26.0	95.410	0.510	-1.330	-0.580
2020/01/31 21:51:26.1	95.420	0.550	-1.390	-0.610
2020/01/31 21:51:26.2	95.420	0.590	-1.440	-0.640
2020/01/31 21:51:26.3	95.420	0.620	-1.480	-0.660
2020/01/31 21:51:26.4	95.420	0.650	-1.510	-0.670
2020/01/31 21:51:26.5	95.410	0.680	-1.540	-0.680
2020/01/31 21:51:26.6	95.400	0.710	-1.550	-0.680
2020/01/31 21:51:26.7	95.390	0.730	-1.560	-0.680
2020/01/31 21:51:26.8	95.380	0.750	-1.560	-0.670
2020/01/31 21:51:26.9	95.370	0.760	-1.550	-0.660
2020/01/31 21:51:27.0	95.360	0.770	-1.530	-0.640
2020/01/31 21:51:27.1	95.340	0.780	-1.510	-0.620
2020/01/31 21:51:27.2	95.320	0.780	-1.470	-0.590
2020/01/31 21:51:27.3	95.300	0.780	-1.430	-0.560
2020/01/31 21:51:27.4	95.280	0.770	-1.380	-0.520
2020/01/31 21:51:27.5	95.260	0.760	-1.320	-0.480
2020/01/31 21:51:27.6	95.230	0.740	-1.250	-0.440
2020/01/31 21:51:27.7	95.200	0.730	-1.180	-0.390
2020/01/31 21:51:27.8	95.180	0.700	-1.110	-0.350
2020/01/31 21:51:27.9	95.150	0.680	-1.020	-0.290
2020/01/31 21:51:28.0	95.130	0.650	-0.940	-0.240
2020/01/31 21:51:28.1	95.100	0.620	-0.850	-0.190
2020/01/31 21:51:28.2	95.080	0.580	-0.750	-0.130
2020/01/31 21:51:28.3	95.050	0.540	-0.660	-0.080
2020/01/31 21:51:28.4	95.030	0.500	-0.560	-0.020
2020/01/31 21:51:28.5	95.010	0.460	-0.460	0.030
2020/01/31 21:51:28.6	94.990	0.410	-0.360	0.090
2020/01/31 21:51:28.7	94.970	0.370	-0.250	0.140
2020/01/31 21:51:28.8	94.950	0.320	-0.150	0.190
2020/01/31 21:51:28.9	94.940	0.270	-0.050	0.240
2020/01/31 21:51:29.0	94.930	0.220	0.050	0.290
2020/01/31 21:51:29.1	94.910	0.170	0.150	0.330
2020/01/31 21:51:29.2	94.900	0.120	0.240	0.380
2020/01/31 21:51:29.3	94.900	0.070	0.330	0.420
2020/01/31 21:51:29.4	94.890	0.030	0.420	0.450
2020/01/31 21:51:29.5	94.890	-0.020	0.500	0.490
2020/01/31 21:51:29.6	94.890	-0.070	0.580	0.520
2020/01/31 21:51:29.7	94.890	-0.110	0.650	0.550
2020/01/31 21:51:29.8	94.890	-0.160	0.730	0.580
2020/01/31 21:51:29.9	94.890	-0.200	0.790	0.610
2020/01/31 21:51:30.0	94.890	-0.240	0.850	0.630
2020/01/31 21:51:30.1	94.890	-0.270	0.900	0.660
2020/01/31 21:51:30.2	94.900	-0.310	0.950	0.680
2020/01/31 21:51:30.3	94.910	-0.340	1.000	0.700
2020/01/31 21:51:30.4	94.910	-0.370	1.030	0.710
2020/01/31 21:51:30.5	94.920	-0.400	1.070	0.730
2020/01/31 21:51:30.6	94.930	-0.420	1.090	0.750
2020/01/31 21:51:30.7	94.940	-0.450	1.110	0.760
2020/01/31 21:51:30.8	94.950	-0.470	1.130	0.770
2020/01/31 21:51:30.9	94.960	-0.480	1.130	0.780
2020/01/31 21:51:31.0	94.960	-0.500	1.130	0.790
2020/01/31 21:51:31.1	94.970	-0.510	1.130	0.800
2020/01/31 21:51:31.2	94.980	-0.520	1.120	0.810
2020/01/31 21:51:31.3	95.000	-0.520	1.100	0.820
2020/01/31 21:51:31.4	95.010	-0.530	1.080	0.820
2020/01/31 21:51:31.5	95.020	-0.530	1.050	0.830
2020/01/31 21:51:31.6	95.030	-0.530	1.010	0.830
2020/01/31 21:51:31.7	95.040	-0.520	0.970	0.830
2020/01/31 21:51:31.8	95.060	-0.520	0.920	0.830
2020/01/31 21:51:31.9	95.070	-0.510	0.870	0.830
2020/01/31 21:51:32.0	95.090	-0.500	0.810	0.830
2020/01/31 21:51:32.1	95.100	-0.480	0.740	0.830
2020/01/31 21:51:32.2	95.110	-0.470	0.670	0.830
2020/01/31 21:51:32.3	95.130	-0.450	0.600	0.830
2020/01/31 21:51:32.4	95.140	-0.430	0.520	0.830
2020/01/31 21:51:32.5	95.150	-0.410	0.440	0.830
2020/01/31 21:51:32.6	95.160	-0.390	0.350	0.830
2020/01/31 21:51:32.7	95.180	-0.370	0.260	0.830
2020/01/31 21:51:32.8	95.190	-0.340	0.170	0.820
2020/01/31 21:51:32.9	95.200	-0.310	0.070	0.820
2020/01/31 21:51:33.0	95.210	-0.290	-0.020	0.820
2020/01/31 21:51:33.1	95.220	-0.260	-0.120	0.820
2020/01/31 21:51:33.2	95.230	-0.230	-0.220	0.810
2020/01/31 21:51:33.3	95.250	-0.200	-0.310	0.810
2020/01/31 21:51:33.4	95.260	-0.170	-0.410	0.800
2020/01/31 21:51:33.5	95.280	-0.140	-0.510	0.800
2020/01/31 21:51:33.6	95.290	-0.110	-0.600	0.790
2020/01/31 21:51:33.7	95.310	-0.080	-0.690	0.790
2020/01/31 21:51:33.8	95.320	-0.040	-0.780	0.780
2020/01/31 21:51:33.9	95.340	-0.010	-0.870	0.770
2020/01/31 21:51:34.0	95.350	0.020	-0.950	0.760
2020/01/31 21:51:34.1	95.370	0.040	-1.030	0.750
2020/01/31 21:51:34.2	95.390	0.070	-1.100	0.750
2020/01/31 21:51:34.3	95.410	0.100	-1.170	0.740
2020/01/31 21:51:34.4	95.430	0.130	-1.230	0.740
2020/01/31 21:51:34.5	95.450	0.150	-1.280	0.730
2020/01/31 21:51:34.6	95.470	0.170	-1.330	0.730
2020/01/31 21:51:34.7	95.490	0.190	-1.370	0.730
2020/01/31 21:51:34.8	95.510	0.210	-1.400	0.730
2020/01/31 21:51:34.9	95.530	0.230	-1.420	0.730
2020/01/31 21:51:35.0	95.550	0.250	-1.440	0.740
2020/01/31 21:51:35.1	95.570	0.260	-1.450	0.740
2020/01/31 21:51:35.2	95.580	0.270	-1.450	0.750
2020/01/31 21:51:35.3	95.600	0.280	-1.450	0.760
2020/01/31 21:51:35.4	95.610	0.290	-1.440	0.780
2020/01/31 21:51:35.5	95.620	0.290	-1.410	0.790
2020/01/31 21:51:35.6	95.630	0.290	-1.390	0.810
2020/01/31 21:51:35.7	95.640	0.290	-1.350	0.830
2020/01/31 21:51:35.8	95.650	0.290	-1.310	0.860
2020/01/31 21:51:35.9	95.650	0.280	-1.260	0.880
2020/01/31 21:51:36.0	95.650	0.270	-1.200	0.900
2020/01/31 21:51:36.1	95.640	0.260	-1.140	0.930
2020/01/31 21:51:36.2	95.640	0.250	-1.070	0.960
2020/01/31 21:51:36.3	95.630	0.230	-1.000	0.990
2020/01/31 21:51:36.4	95.630	0.210	-0.930	1.010
2020/01/31 21:51:36.5	95.620	0.190	-0.840	1.040
2020/01/31 21:51:36.6	95.600	0.170	-0.760	1.070
2020/01/31 21:51:36.7	95.590	0.140	-0.670	1.090
2020/01/31 21:51:36.8	95.570	0.110	-0.580	1.120
2020/01/31 21:51:36.9	95.550	0.080	-0.480	1.140
2020/01/31 21:51:37.0	95.520	0.050	-0.380	1.170
2020/01/31 21:51:37.1	95.500	0.020	-0.290	1.190
2020/01/31 21:51:37.2	95.470	-0.010	-0.190	1.210
2020/01/31 21:51:37.3	95.450	-0.050	-0.090	1.230
2020/01/31 21:51:37.4	95.420	-0.080	0.010	1.250
2020/01/31 21:51:37.5	95.400	-0.120	0.110	1.260
2020/01/31 21:51:37.6	95.370	-0.150	0.200	1.270
2020/01/31 21:51:37.7	95.340	-0.190	0.290	1.280
2020/01/31 21:51:37.8	95.310	-0.220	0.380	1.290
2020/01/31 21:51:37.9	95.290	-0.250	0.470	1.290
2020/01/31 21:51:38.0	95.250	-0.280	0.540	1.280
2020/01/31 21:51:38.1	95.230	-0.310	0.620	1.280
2020/01/31 21:51:38.2	95.200	-0.340	0.680	1.270
2020/01/31 21:51:38.3	95.180	-0.370	0.750	1.260
2020/01/31 21:51:38.4	95.150	-0.390	0.800	1.250
2020/01/31 21:51:38.5	95.130	-0.410	0.850	1.230
2020/01/31 21:51:38.6	95.110	-0.430	0.890	1.210
2020/01/31 21:51:38.7	95.100	-0.450	0.920	1.190
2020/01/31 21:51:38.8	95.080	-0.460	0.940	1.160
2020/01/31 21:51:38.9	95.070	-0.470	0.950	1.120
2020/01/31 21:51:39.0	95.060	-0.470	0.960	1.090
2020/01/31 21:51:39.1	95.050	-0.470	0.960	1.050
2020/01/31 21:51:39.2	95.040	-0.470	0.950	1.010
2020/01/31 21:51:39.3	95.030	-0.470	0.930	0.960
2020/01/31 21:51:39.4	95.030	-0.460	0.900	0.910
2020/01/31 21:51:39.5	95.030	-0.440	0.860	0.860
2020/01/31 21:51:39.6	95.030	-0.430	0.820	0.800
2020/01/31 21:51:39.7	95.030	-0.410	0.770	0.750
2020/01/31 21:51:39.8	95.030	-0.380	0.710	0.690
2020/01/31 21:51:39.9	95.040	-0.360	0.650	0.620
2020/01/31 21:51:40.0	95.060	-0.330	0.580	0.560
2020/01/31 21:51:40.1	95.070	-0.290	0.500	0.490
2020/01/31 21:51:40.2	95.080	-0.260	0.420	0.430
2020/01/31 21:51:40.3	95.090	-0.220	0.340	0.360
2020/01/31 21:51:40.4	95.110	-0.180	0.250	0.280
2020/01/31 21:51:40.5	95.130	-0.130	0.160	0.210
2020/01/31 21:51:40.6	95.150	-0.090	0.070	0.140
2020/01/31 21:51:40.7	95.170	-0.040	-0.020	0.060
2020/01/31 21:51:40.8	95.190	0.010	-0.120	-0.010
2020/01/31 21:51:40.9	95.210	0.060	-0.210	-0.090
2020/01/31 21:51:41.0	95.240	0.110	-0.310	-0.160
2020/01/31 21:51:41.1	95.270	0.160	-0.400	-0.240
2020/01/31 21:51:41.2	95.300	0.220	-0.490	-0.310
2020/01/31 21:51:41.3	95.330	0.270	-0.580	-0.390
2020/01/31 21:51:41.4	95.360	0.320	-0.670	-0.460
2020/01/31 21:51:41.5	95.390	0.370	-0.750	-0.530
2020/01/31 21:51:41.6	95.420	0.420	-0.820	-0.600
2020/01/31 21:51:41.7	95.450	0.460	-0.890	-0.670
2020/01/31 21:51:41.8	95.490	0.510	-0.950	-0.740
2020/01/31 21:51:41.9	95.520	0.550	-1.010	-0.800
2020/01/31 21:51:42.0	95.570	0.590	-1.060	-0.860
2020/01/31 21:51:42.1	95.600	0.630	-1.100	-0.920
2020/01/31 21:51:42.2	95.630	0.660	-1.130	-0.970
2020/01/31 21:51:42.3	95.660	0.690	-1.160	-1.020
2020/01/31 21:51:42.4	95.690	0.720	-1.170	-1.060
2020/01/31 21:51:42.5	95.710	0.740	-1.180	-1.100
2020/01/31 21:51:42.6	95.740	0.760	-1.180	-1.130
2020/01/31 21:51:42.7	95.760	0.780	-1.170	-1.160
2020/01/31 21:51:42.8	95.780	0.790	-1.150	-1.180
2020/01/31 21:51:42.9	95.800	0.800	-1.130	-1.190
2020/01/31 21:51:43.0	95.840	0.800	-1.090	-1.200
2020/01/31 21:51:43.1	95.850	0.800	-1.050	-1.200
2020/01/31 21:51:43.2	95.860	0.790	-1.000	-1.190
2020/01/31 21:51:43.3	95.870	0.780	-0.940	-1.180
2020/01/31 21:51:43.4	95.880	0.770	-0.880	-1.160
2020/01/31 21:51:43.5	95.880	0.750	-0.800	-1.130
2020/01/31 21:51:43.6	95.890	0.730	-0.730	-1.100
2020/01/31 21:51:43.7	95.890	0.700	-0.650	-1.060
2020/01/31 21:51:43.8	95.890	0.670	-0.560	-1.010
2020/01/31 21:51:43.9	95.880	0.640	-0.480	-0.950
2020/01/31 21:51:44.0	95.880	0.600	-0.390	-0.900
2020/01/31 21:51:44.1	95.870	0.560	-0.290	-0.830
2020/01/31 21:51:44.2	95.870	0.520	-0.200	-0.760
2020/01/31 21:51:44.3	95.860	0.480	-0.110	-0.680
2020/01/31 21:51:44.4	95.840	0.430	-0.020	-0.600
2020/01/31 21:51:44.5	95.830	0.380	0.070	-0.510
2020/01/31 21:51:44.6	95.820	0.330	0.160	-0.420
2020/01/31 21:51:44.7	95.810	0.280	0.240	-0.320
2020/01/31 21:51:44.8	95.790	0.230	0.320	-0.220
2020/01/31 21:51:44.9	95.780	0.180	0.400	-0.120
2020/01/31 21:51:45.0	95.760	0.120	0.470	-0.020
2020/01/31 21:51:45.1	95.750	0.070	0.530	0.090
2020/01/31 21:51:45.2	95.740	0.020	0.590	0.200
2020/01/31 21:51:45.3	95.720	-0.030	0.640	0.300
2020/01/31 21:51:45.4	95.710	-0.080	0.680	0.410
2020/01/31 21:51:45.5	95.700	-0.130	0.720	0.520
2020/01/31 21:51:45.6	95.680	-0.170	0.750	0.630
2020/01/31 21:51:45.7	95.670	-0.220	0.770	0.730
2020/01/31 21:51:45.8	95.660	-0.260	0.780	0.830
2020/01/31 21:51:45.9	95.650	-0.300	0.790	0.940
2020/01/31 21:51:46.0	95.650	-0.340	0.780	1.040
2020/01/31 21:51:46.1	95.640	-0.370	0.770	1.130
2020/01/31 21:51:46.2	95.640	-0.400	0.750	1.230
2020/01/31 21:51:46.3	95.630	-0.430	0.720	1.320
2020/01/31 21:51:46.4	95.630	-0.450	0.680	1.400
2020/01/31 21:51:46.5	95.620	-0.470	0.640	1.490
2020/01/31 21:51:46.6	95.620	-0.490	0.580	1.570
2020/01/31 21:51:46.7	95.620	-0.500	0.530	1.650
2020/01/31 21:51:46.8	95.620	-0.510	0.460	1.720
2020/01/31 21:51:46.9	95.620	-0.520	0.390	1.790
2020/01/31 21:51:47.0	95.600	-0.520	0.320	1.860
2020/01/31 21:51:47.1	95.600	-0.520	0.240	1.920
2020/01/31 21:51:47.2	95.600	-0.520	0.160	1.980
2020/01/31 21:51:47.3	95.600	-0.510	0.070	2.040
2020/01/31 21:51:47.4	95.600	-0.500	-0.010	2.090
2020/01/31 21:51:47.5	95.600	-0.490	-0.100	2.140
2020/01/31 21:51:47.6	95.600	-0.470	-0.190	2.180
2020/01/31 21:51:47.7	95.600	-0.450	-0.270	2.220
2020/01/31 21:51:47.8	95.600	-0.430	-0.360	2.260
2020/01/31 21:51:47.9	95.610	-0.410	-0.440	2.290
2020/01/31 21:51:48.0	95.610	-0.380	-0.520	2.320
2020/01/31 21:51:48.1	95.610	-0.350	-0.600	2.350
2020/01/31 21:51:48.2	95.620	-0.330	-0.670	2.370
2020/01/31 21:51:48.3	95.620	-0.290	-0.740	2.390
2020/01/31 21:51:48.4	95.630	-0.260	-0.810	2.410
2020/01/31 21:51:48.5	95.640	-0.230	-0.860	2.420
2020/01/31 21:51:48.6	95.640	-0.200	-0.910	2.430
2020/01/31 21:51:48.7	95.650	-0.170	-0.960	2.440
2020/01/31 21:51:48.8	95.660	-0.140	-1.000	2.450
2020/01/31 21:51:48.9	95.670	-0.100	-1.030	2.450
2020/01/31 21:51:49.0	95.680	-0.070	-1.040	2.450
2020/01/31 21:51:49.1	95.690	-0.050	-1.060	2.440
2020/01/31 21:51:49.2	95.700	-0.020	-1.070	2.440
2020/01/31 21:51:49.3	95.720	0.010	-1.060	2.430
2020/01/31 21:51:49.4	95.730	0.030	-1.060	2.410
2020/01/31 21:51:49.5	95.740	0.050	-1.040	2.400
2020/01/31 21:51:49.6	95.750	0.070	-1.020	2.380
2020/01/31 21:51:49.7	95.760	0.090	-0.980	2.350
2020/01/31 21:51:49.8	95.770	0.100	-0.950	2.330
2020/01/31 21:51:49.9	95.780	0.110	-0.900	2.300
2020/01/31 21:51:50.0	95.790	0.120	-0.850	2.270
2020/01/31 21:51:50.1	95.800	0.120	-0.800	2.240
2020/01/31 21:51:50.2	95.810	0.130	-0.730	2.200
2020/01/31 21:51:50.3	95.820	0.120	-0.670	2.160
2020/01/31 21:51:50.4	95.830	0.120	-0.600	2.120
2020/01/31 21:51:50.5	95.830	0.110	-0.520	2.070
2020/01/31 21:51:50.6	95.840	0.100	-0.450	2.020
2020/01/31 21:51:50.7	95.850	0.090	-0.370	1.970
2020/01/31 21:51:50.8	95.860	0.080	-0.290	1.910
2020/01/31 21:51:50.9	95.860	0.060	-0.210	1.850
2020/01/31 21:51:51.0	95.860	0.040	-0.120	1.790
2020/01/31 21:51:51.1	95.860	0.020	-0.040	1.730
2020/01/31 21:51:51.2	95.860	0.000	0.040	1.660
2020/01/31 21:51:51.3	95.870	-0.020	0.110	1.590
2020/01/31 21:51:51.4	95.870	-0.040	0.180	1.520
2020/01/31 21:51:51.5	95.870	-0.060	0.250	1.440
2020/01/31 21:51:51.6	95.880	-0.080	0.320	1.360
2020/01/31 21:51:51.7	95.880	-0.110	0.380	1.280
2020/01/31 21:51:51.8	95.880	-0.130	0.440	1.200
2020/01/31 21:51:51.9	95.880	-0.150	0.490	1.120
2020/01/31 21:51:52.0	95.870	-0.170	0.530	1.030
2020/01/31 21:51:52.1	95.870	-0.180	0.570	0.950
2020/01/31 21:51:52.2	95.870	-0.200	0.600	0.860
2020/01/31 21:51:52.3	95.870	-0.210	0.630	0.770
2020/01/31 21:51:52.4	95.870	-0.230	0.650	0.680
2020/01/31 21:51:52.5	95.870	-0.230	0.660	0.600
2020/01/31 21:51:52.6	95.860	-0.240	0.670	0.510
2020/01/31 21:51:52.7	95.860	-0.250	0.670	0.420
2020/01/31 21:51:52.8	95.860	-0.250	0.660	0.340
2020/01/31 21:51:52.9	95.860	-0.250	0.650	0.250
2020/01/31 21:51:53.0	95.850	-0.240	0.620	0.170
2020/01/31 21:51:53.1	95.850	-0.230	0.600	0.080
2020/01/31 21:51:53.2	95.850	-0.220	0.560	-0.000
2020/01/31 21:51:53.3	95.850	-0.210	0.520	-0.090
2020/01/31 21:51:53.4	95.850	-0.190	0.480	-0.170
2020/01/31 21:51:53.5	95.860	-0.170	0.430	-0.250
2020/01/31 21:51:53.6	95.860	-0.150	0.370	-0.330
2020/01/31 21:51:53.7	95.860	-0.130	0.310	-0.400
2020/01/31 21:51:53.8	95.870	-0.100	0.250	-0.480
2020/01/31 21:51:53.9	95.870	-0.070	0.180	-0.550
2020/01/31 21:51:54.0	95.890	-0.040	0.110	-0.620
2020/01/31 21:51:54.1	95.890	-0.010	0.030	-0.690
2020/01/31 21:51:54.2	95.900	0.020	-0.040	-0.760
2020/01/31 21:51:54.3	95.910	0.050	-0.120	-0.820
2020/01/31 21:51:54.4	95.910	0.090	-0.200	-0.890
2020/01/31 21:51:54.5	95.920	0.120	-0.280	-0.950
2020/01/31 21:51:54.6	95.930	0.160	-0.360	-1.000
2020/01/31 21:51:54.7	95.930	0.190	-0.440	-1.050
2020/01/31 21:51:54.8	95.940	0.230	-0.510	-1.100
2020/01/31 21:51:54.9	95.940	0.260	-0.580	-1.150
2020/01/31 21:51:55.0	95.950	0.290	-0.650	-1.190
2020/01/31 21:51:55.1	95.960	0.320	-0.720	-1.230
2020/01/31 21:51:55.2	95.960	0.350	-0.790	-1.260
2020/01/31 21:51:55.3	95.960	0.380	-0.840	-1.290
2020/01/31 21:51:55.4	95.960	0.400	-0.900	-1.320
2020/01/31 21:51:55.5	95.960	0.420	-0.950	-1.340
2020/01/31 21:51:55.6	95.960	0.440	-0.990	-1.360
2020/01/31 21:51:55.7	95.960	0.450	-1.020	-1.370
2020/01/31 21:51:55.8	95.950	0.460	-1.050	-1.380
2020/01/31 21:51:55.9	95.950	0.470	-1.080	-1.390
2020/01/31 21:51:56.0	95.950	0.480	-1.090	-1.380
2020/01/31 21:51:56.1	95.940	0.480	-1.100	-1.380
2020/01/31 21:51:56.2	95.930	0.480	-1.110	-1.370
2020/01/31 21:51:56.3	95.920	0.470	-1.100	-1.360
2020/01/31 21:51:56.4	95.910	0.460	-1.090	-1.350
2020/01/31 21:51:56.5	95.900	0.450	-1.070	-1.330
2020/01/31 21:51:56.6	95.890	0.430	-1.040	-1.310
2020/01/31 21:51:56.7	95.870	0.420	-1.010	-1.280
2020/01/31 21:51:56.8	95.860	0.390	-0.970	-1.250
2020/01/31 21:51:56.9	95.850	0.370	-0.930	-1.210
2020/01/31 21:51:57.0	95.840	0.340	-0.870	-1.170
2020/01/31 21:51:57.1	95.820	0.310	-0.820	-1.130
2020/01/31 21:51:57.2	95.800	0.280	-0.760	-1.080
2020/01/31 21:51:57.3	95.790	0.240	-0.690	-1.030
2020/01/31 21:51:57.4	95.770	0.200	-0.620	-0.980
2020/01/31 21:51:57.5	95.750	0.170	-0.550	-0.920
2020/01/31 21:51:57.6	95.730	0.130	-0.480	-0.860
2020/01/31 21:51:57.7	95.710	0.080	-0.400	-0.790
2020/01/31 21:51:57.8	95.690	0.040	-0.320	-0.730
2020/01/31 21:51:57.9	95.670	-0.000	-0.240	-0.660
2020/01/31 21:51:58.0	95.660	-0.050	-0.160	-0.590
2020/01/31 21:51:58.1	95.640	-0.090	-0.080	-0.520
2020/01/31 21:51:58.2	95.620	-0.130	0.000	-0.440
2020/01/31 21:51:58.3	95.610	-0.180	0.080	-0.370
2020/01/31 21:51:58.4	95.590	-0.220	0.160	-0.290
2020/01/31 21:51:58.5	95.580	-0.260	0.240	-0.210
2020/01/31 21:51:58.6	95.570	-0.300	0.310	-0.130
2020/01/31 21:51:58.7	95.560	-0.340	0.380	-0.050
2020/01/31 21:51:58.8	95.550	-0.370	0.440	0.020
2020/01/31 21:51:58.9	95.540	-0.410	0.510	0.100
2020/01/31 21:51:59.0	95.550	-0.440	0.560	0.180
2020/01/31 21:51:59.1	95.550	-0.470	0.610	0.260
2020/01/31 21:51:59.2	95.540	-0.490	0.660	0.340
2020/01/31 21:51:59.3	95.540	-0.510	0.700	0.410
2020/01/31 21:51:59.4	95.550	-0.530	0.730	0.480
2020/01/31 21:51:59.5	95.550	-0.540	0.750	0.550
2020/01/31 21:51:59.6	95.560	-0.550	0.770	0.620
2020/01/31 21:51:59.7	95.570	-0.550	0.780	0.680
2020/01/31 21:51:59.8	95.580	-0.550	0.780	0.750
2020/01/31 21:51:59.9	95.590	-0.550	0.780	0.810
2020/01/31 21:52:00.0	95.600	-0.540	0.770	0.870
2020/01/31 21:52:00.1	95.610	-0.530	0.750	0.930
2020/01/31 21:52:00.2	95.630	-0.510	0.730	0.980
2020/01/31 21:52:00.3	95.650	-0.490	0.700	1.030
2020/01/31 21:52:00.4	95.670	-0.470	0.660	1.080
2020/01/31 21:52:00.5	95.700	-0.440	0.620	1.120
2020/01/31 21:52:00.6	95.720	-0.410	0.570	1.170
2020/01/31 21:52:00.7	95.750	-0.380	0.520	1.210
2020/01/31 21:52:00.8	95.780	-0.340	0.460	1.240
2020/01/31 21:52:00.9	95.810	-0.300	0.400	1.280
2020/01/31 21:52:01.0	95.840	-0.260	0.330	1.310
2020/01/31 21:52:01.1	95.880	-0.210	0.260	1.340
2020/01/31 21:52:01.2	95.910	-0.170	0.190	1.370
2020/01/31 21:52:01.3	95.940	-0.120	0.120	1.390
2020/01/31 21:52:01.4	95.980	-0.070	0.040	1.410
2020/01/31 21:52:01.5	96.010	-0.020	-0.040	1.430
2020/01/31 21:52:01.6	96.050	0.020	-0.110	1.450
2020/01/31 21:52:01.7	96.080	0.070	-0.190	1.460
2020/01/31 21:52:01.8	96.120	0.120	-0.270	1.480
2020/01/31 21:52:01.9	96.150	0.170	-0.340	1.490
2020/01/31 21:52:02.0	96.170	0.220	-0.410	1.500
2020/01/31 21:52:02.1	96.200	0.260	-0.490	1.510
2020/01/31 21:52:02.2	96.230	0.300	-0.550	1.520
2020/01/31 21:52:02.3	96.260	0.340	-0.620	1.530
2020/01/31 21:52:02.4	96.280	0.380	-0.680	1.550
2020/01/31 21:52:02.5	96.300	0.420	-0.730	1.560
2020/01/31 21:52:02.6	96.320	0.450	-0.790	1.570
2020/01/31 21:52:02.7	96.340	0.480	-0.830	1.580
2020/01/31 21:52:02.8	96.350	0.500	-0.870	1.590
2020/01/31 21:52:02.9	96.360	0.530	-0.900	1.610
2020/01/31 21:52:03.0	96.370	0.540	-0.930	1.630
2020/01/31 21:52:03.1	96.380	0.560	-0.950	1.640
2020/01/31 21:52:03.2	96.380	0.570	-0.970	1.650
2020/01/31 21:52:03.3	96.380	0.570	-0.970	1.670
2020/01/31 21:52:03.4	96.380	0.570	-0.970	1.690
2020/01/31 21:52:03.5	96.380	0.570	-0.970	1.700
2020/01/31 21:52:03.6	96.380	0.570	-0.950	1.720
2020/01/31 21:52:03.7	96.370	0.560	-0.930	1.740
2020/01/31 21:52:03.8	96.360	0.540	-0.900	1.760
2020/01/31 21:52:03.9	96.350	0.520	-0.870	1.770
2020/01/31 21:52:04.0	96.340	0.500	-0.820	1.780
2020/01/31 21:52:04.1	96.320	0.480	-0.780	1.800
2020/01/31 21:52:04.2	96.310	0.450	-0.730	1.810
2020/01/31 21:52:04.3	96.290	0.420	-0.680	1.830
2020/01/31 21:52:04.4	96.280	0.380	-0.620	1.840
2020/01/31 21:52:04.5	96.260	0.340	-0.560	1.860
2020/01/31 21:52:04.6	96.240	0.310	-0.490	1.870
2020/01/31 21:52:04.7	96.220	0.260	-0.430	1.870
2020/01/31 21:52:04.8	96.200	0.220	-0.360	1.880
2020/01/31 21:52:04.9	96.170	0.180	-0.290	1.880
2020/01/31 21:52:05.0	96.140	0.130	-0.230	1.890
2020/01/31 21:52:05.1	96.120	0.090	-0.160	1.890
2020/01/31 21:52:05.2	96.090	0.040	-0.090	1.880
2020/01/31 21:52:05.3	96.070	-0.000	-0.020	1.880
2020/01/31 21:52:05.4	96.040	-0.050	0.040	1.870
2020/01/31 21:52:05.5	96.010	-0.100	0.100	1.860
2020/01/31 21:52:05.6	95.980	-0.140	0.160	1.840
2020/01/31 21:52:05.7	95.950	-0.180	0.210	1.820
2020/01/31 21:52:05.8	95.920	-0.220	0.260	1.790
2020/01/31 21:52:05.9	95.890	-0.260	0.310	1.770
2020/01/31 21:52:06.0	95.860	-0.300	0.360	1.730
2020/01/31 21:52:06.1	95.830	-0.330	0.390	1.700
2020/01/31 21:52:06.2	95.800	-0.370	0.430	1.660
2020/01/31 21:52:06.3	95.770	-0.400	0.460	1.610
2020/01/31 21:52:06.4	95.750	-0.420	0.480	1.560
2020/01/31 21:52:06.5	95.720	-0.440	0.500	1.510
2020/01/31 21:52:06.6	95.700	-0.460	0.510	1.460
2020/01/31 21:52:06.7	95.670	-0.480	0.520	1.390
2020/01/31 21:52:06.8	95.650	-0.490	0.520	1.330
2020/01/31 21:52:06.9	95.630	-0.500	0.520	1.260
2020/01/31 21:52:07.0	95.640	-0.500	0.510	1.190
2020/01/31 21:52:07.1	95.630	-0.500	0.490	1.120
2020/01/31 21:52:07.2	95.610	-0.500	0.470	1.040
2020/01/31 21:52:07.3	95.600	-0.490	0.450	0.960
2020/01/31 21:52:07.4	95.600	-0.480	0.420	0.870
2020/01/31 21:52:07.5	95.600	-0.460	0.380	0.780
2020/01/31 21:52:07.6	95.590	-0.440	0.340	0.700
2020/01/31 21:52:07.7	95.600	-0.420	0.290	0.600
2020/01/31 21:52:07.8	95.600	-0.400	0.240	0.510
2020/01/31 21:52:07.9	95.600	-0.370	0.190	0.410
2020/01/31 21:52:08.0	95.610	-0.340	0.140	0.320
2020/01/31 21:52:08.1	95.620	-0.300	0.080	0.220
2020/01/31 21:52:08.2	95.640	-0.270	0.010	0.120
2020/01/31 21:52:08.3	95.650	-0.230	-0.050	0.020
2020/01/31 21:52:08.4	95.660	-0.190	-0.120	-0.080
2020/01/31 21:52:08.5	95.680	-0.150	-0.190	-0.180
2020/01/31 21:52:08.6	95.700	-0.110	-0.260	-0.280
2020/01/31 21:52:08.7	95.720	-0.060	-0.320	-0.380
2020/01/31 21:52:08.8	95.740	-0.020	-0.390	-0.480
2020/01/31 21:52:08.9	95.760	0.020	-0.460	-0.570
2020/01/31 21:52:09.0	95.790	0.070	-0.530	-0.670
2020/01/31 21:52:09.1	95.810	0.110	-0.600	-0.760
2020/01/31 21:52:09.2	95.840	0.150	-0.660	-0.850
2020/01/31 21:52:09.3	95.860	0.190	-0.720	-0.930
2020/01/31 21:52:09.4	95.880	0.230	-0.780	-1.020
2020/01/31 21:52:09.5	95.900	0.260	-0.830	-1.100
2020/01/31 21:52:09.6	95.920	0.300	-0.880	-1.170
2020/01/31 21:52:09.7	95.940	0.330	-0.920	-1.240
2020/01/31 21:52:09.8	95.960	0.360	-0.960	-1.310
2020/01/31 21:52:09.9	95.980	0.380	-1.000	-1.370
2020/01/31 21:52:10.0	96.000	0.410	-1.030	-1.430
2020/01/31 21:52:10.1	96.020	0.430	-1.050	-1.480
2020/01/31 21:52:10.2	96.040	0.440	-1.060	-1.530
2020/01/31 21:52:10.3	96.050	0.460	-1.070	-1.570
2020/01/31 21:52:10.4	96.060	0.470	-1.070	-1.600
2020/01/31 21:52:10.5	96.080	0.470	-1.070	-1.620
2020/01/31 21:52:10.6	96.090	0.470	-1.060	-1.650
2020/01/31 21:52:10.7	96.090	0.470	-1.040	-1.660
2020/01/31 21:52:10.8	96.100	0.470	-1.010	-1.670
2020/01/31 21:52:10.9	96.110	0.460	-0.980	-1.670
2020/01/31 21:52:11.0	96.110	0.450	-0.940	-1.660
2020/01/31 21:52:11.1	96.110	0.430	-0.900	-1.640
2020/01/31 21:52:11.2	96.110	0.410	-0.850	-1.630
2020/01/31 21:52:11.3	96.110	0.390	-0.790	-1.600
2020/01/31 21:52:11.4	96.100	0.360	-0.730	-1.570
2020/01/31 21:52:11.5	96.090	0.340	-0.660	-1.530
2020/01/31 21:52:11.6	96.090	0.310	-0.590	-1.490
2020/01/31 21:52:11.7	96.080	0.270	-0.520	-1.440
2020/01/31 21:52:11.8	96.060	0.240	-0.440	-1.390
2020/01/31 21:52:11.9	96.050	0.200	-0.360	-1.330
2020/01/31 21:52:12.0	96.040	0.160	-0.280	-1.260
2020/01/31 21:52:12.1	96.030	0.120	-0.190	-1.190
2020/01/31 21:52:12.2	96.010	0.090	-0.110	-1.120
2020/01/31 21:52:12.3	96.000	0.050	-0.030	-1.040
2020/01/31 21:52:12.4	95.980	0.010	0.050	-0.960
2020/01/31 21:52:12.5	95.960	-0.030	0.130	-0.880
2020/01/31 21:52:12.6	95.950	-0.070	0.210	-0.790
2020/01/31 21:52:12.7	95.930	-0.110	0.280	-0.700
2020/01/31 21:52:12.8	95.910	-0.150	0.360	-0.610
2020/01/31 21:52:12.9	95.900	-0.190	0.420	-0.510
2020/01/31 21:52:13.0	95.900	-0.220	0.490	-0.420
2020/01/31 21:52:13.1	95.890	-0.250	0.550	-0.320
2020/01/31 21:52:13.2	95.870	-0.280	0.600	-0.220
2020/01/31 21:52:13.3	95.860	-0.310	0.650	-0.110
2020/01/31 21:52:13.4	95.850	-0.340	0.690	-0.010
2020/01/31 21:52:13.5	95.830	-0.360	0.720	0.100
2020/01/31 21:52:13.6	95.820	-0.380	0.750	0.200
2020/01/31 21:52:13.7	95.820	-0.400	0.770	0.300
2020/01/31 21:52:13.8	95.810	-0.410	0.780	0.410
2020/01/31 21:52:13.9	95.800	-0.420	0.790	0.510
2020/01/31 21:52:14.0	95.780	-0.430	0.790	0.620
2020/01/31 21:52:14.1	95.780	-0.440	0.780	0.730
2020/01/31 21:52:14.2	95.780	-0.440	0.760	0.830
2020/01/31 21:52:14.3	95.780	-0.430	0.740	0.930
2020/01/31 21:52:14.4	95.790	-0.430	0.710	1.020
2020/01/31 21:52:14.5	95.790	-0.420	0.680	1.120
2020/01/31 21:52:14.6	95.800	-0.410	0.630	1.210
2020/01/31 21:52:14.7	95.810	-0.400	0.590	1.300
2020/01/31 21:52:14.8	95.830	-0.390	0.530	1.380
2020/01/31 21:52:14.9	95.840	-0.370	0.470	1.460
2020/01/31 21:52:15.0	95.840	-0.350	0.410	1.540
2020/01/31 21:52:15.1	95.860	-0.330	0.350	1.610
2020/01/31 21:52:15.2	95.870	-0.300	0.280	1.680
2020/01/31 21:52:15.3	95.890	-0.280	0.210	1.750
2020/01/31 21:52:15.4	95.910	-0.260	0.130	1.810
2020/01/31 21:52:15.5	95.930	-0.230	0.060	1.870
2020/01/31 21:52:15.6	95.950	-0.200	-0.010	1.930
2020/01/31 21:52:15.7	95.970	-0.180	-0.080	1.980
2020/01/31 21:52:15.8	95.980	-0.150	-0.160	2.040
2020/01/31 21:52:15.9	96.000	-0.130	-0.230	2.080
2020/01/31 21:52:16.0	96.010	-0.100	-0.290	2.130
2020/01/31 21:52:16.1	96.020	-0.070	-0.360	2.180
2020/01/31 21:52:16.2	96.030	-0.050	-0.420	2.220
2020/01/31 21:52:16.3	96.040	-0.030	-0.470	2.260
2020/01/31 21:52:16.4	96.050	-0.010	-0.520	2.290
2020/01/31 21:52:16.5	96.050	0.020	-0.570	2.330
2020/01/31 21:52:16.6	96.050	0.030	-0.610	2.360
2020/01/31 21:52:16.7	96.060	0.050	-0.650	2.390
2020/01/31 21:52:16.8	96.050	0.070	-0.680	2.410
2020/01/31 21:52:16.9	96.050	0.080	-0.700	2.440
2020/01/31 21:52:17.0	96.060	0.100	-0.720	2.450
2020/01/31 21:52:17.1	96.050	0.110	-0.730	2.470
2020/01/31 21:52:17.2	96.050	0.120	-0.730	2.490
2020/01/31 21:52:17.3	96.040	0.120	-0.730	2.500
2020/01/31 21:52:17.4	96.030	0.130	-0.730	2.510
2020/01/31 21:52:17.5	96.020	0.130	-0.720	2.510
2020/01/31 21:52:17.6	96.010	0.130	-0.700	2.510
2020/01/31 21:52:17.7	96.000	0.140	-0.680	2.510
2020/01/31 21:52:17.8	95.980	0.130	-0.650	2.500
2020/01/31 21:52:17.9	95.980	0.130	-0.620	2.490
2020/01/31 21:52:18.0	95.960	0.130	-0.590	2.470
2020/01/31 21:52:18.1	95.960	0.130	-0.550	2.450
2020/01/31 21:52:18.2	95.950	0.120	-0.510	2.430
2020/01/31 21:52:18.3	95.940	0.110	-0.470	2.400
2020/01/31 21:52:18.4	95.940	0.110	-0.420	2.370
2020/01/31 21:52:18.5	95.940	0.100	-0.380	2.330
2020/01/31 21:52:18.6	95.930	0.090	-0.340	2.290
2020/01/31 21:52:18.7	95.930	0.090	-0.290	2.240
2020/01/31 21:52:18.8	95.930	0.080	-0.250	2.190
2020/01/31 21:52:18.9	95.940	0.070	-0.200	2.140
2020/01/31 21:52:19.0	95.920	0.060	-0.160	2.080
2020/01/31 21:52:19.1	95.930	0.060	-0.120	2.020
2020/01/31 21:52:19.2	95.930	0.050	-0.080	1.960
2020/01/31 21:52:19.3	95.940	0.040	-0.040	1.890
2020/01/31 21:52:19.4	95.950	0.040	-0.010	1.820
2020/01/31 21:52:19.5	95.960	0.030	0.020	1.750
2020/01/31 21:52:19.6	95.970	0.020	0.050	1.680
2020/01/31 21:52:19.7	95.970	0.020	0.080	1.600
2020/01/31 21:52:19.8	95.980	0.020	0.100	1.520
2020/01/31 21:52:19.9	95.990	0.010	0.120	1.440
2020/01/31 21:52:20.0	95.990	0.010	0.130	1.360
2020/01/31 21:52:20.1	96.000	0.010	0.140	1.280
2020/01/31 21:52:20.2	96.000	0.010	0.140	1.200
2020/01/31 21:52:20.3	96.010	0.010	0.140	1.120
2020/01/31 21:52:20.4	96.020	0.010	0.140	1.030
2020/01/31 21:52:20.5	96.020	0.020	0.140	0.950
2020/01/31 21:52:20.6	96.020	0.020	0.120	0.870
2020/01/31 21:52:20.7	96.020	0.030	0.110	0.790
2020/01/31 21:52:20.8	96.020	0.030	0.090	0.710
2020/01/31 21:52:20.9	96.020	0.040	0.070	0.630
2020/01/31 21:52:21.0	96.010	0.050	0.040	0.550
2020/01/31 21:52:21.1	96.000	0.060	0.010	0.470
2020/01/31 21:52:21.2	96.000	0.070	-0.020	0.390
2020/01/31 21:52:21.3	95.990	0.080	-0.060	0.300
2020/01/31 21:52:21.4	95.980	0.090	-0.100	0.220
2020/01/31 21:52:21.5	95.970	0.100	-0.140	0.140
2020/01/31 21:52:21.6	95.960	0.110	-0.180	0.060
2020/01/31 21:52:21.7	95.950	0.120	-0.230	-0.010
2020/01/31 21:52:21.8	95.940	0.130	-0.270	-0.090
2020/01/31 21:52:21.9	95.930	0.140	-0.320	-0.170
2020/01/31 21:52:22.0	95.920	0.150	-0.370	-0.250
2020/01/31 21:52:22.1	95.910	0.160	-0.420	-0.320
2020/01/31 21:52:22.2	95.900	0.180	-0.460	-0.390
2020/01/31 21:52:22.3	95.890	0.190	-0.510	-0.460
2020/01/31 21:52:22.4	95.880	0.200	-0.550	-0.530
2020/01/31 21:52:22.5	95.870	0.210	-0.590	-0.590
2020/01/31 21:52:22.6	95.860	0.220	-0.630	-0.650
2020/01/31 21:52:22.7	95.860	0.230	-0.660	-0.710
2020/01/31 21:52:22.8	95.850	0.240	-0.700	-0.760
2020/01/31 21:52:22.9	95.840	0.240	-0.730	-0.810
2020/01/31 21:52:23.0	95.840	0.250	-0.760	-0.850
2020/01/31 21:52:23.1	95.830	0.260	-0.780	-0.890
2020/01/31 21:52:23.2	95.820	0.260	-0.790	-0.930
2020/01/31 21:52:23.3	95.820	0.270	-0.810	-0.960
2020/01/31 21:52:23.4	95.810	0.270	-0.820	-0.990
2020/01/31 21:52:23.5	95.800	0.270	-0.820	-1.010
2020/01/31 21:52:23.6	95.790	0.270	-0.820	-1.030
2020/01/31 21:52:23.7	95.790	0.270	-0.810	-1.040
2020/01/31 21:52:23.8	95.780	0.270	-0.800	-1.050
2020/01/31 21:52:23.9	95.780	0.270	-0.790	-1.060
2020/01/31 21:52:24.0	95.780	0.270	-0.770	-1.060
2020/01/31 21:52:24.1	95.780	0.260	-0.740	-1.070
2020/01/31 21:52:24.2	95.770	0.250	-0.710	-1.070
2020/01/31 21:52:24.3	95.770	0.240	-0.680	-1.070
2020/01/31 21:52:24.4	95.770	0.240	-0.640	-1.060
2020/01/31 21:52:24.5	95.780	0.220	-0.600	-1.060
2020/01/31 21:52:24.6	95.780	0.210	-0.560	-1.050
2020/01/31 21:52:24.7	95.790	0.200	-0.510	-1.050
2020/01/31 21:52:24.8	95.790	0.190	-0.460	-1.040
2020/01/31 21:52:24.9	95.800	0.170	-0.410	-1.030
2020/01/31 21:52:25.0	95.830	0.160	-0.360	-1.030
2020/01/31 21:52:25.1	95.840	0.140	-0.310	-1.020
2020/01/31 21:52:25.2	95.860	0.120	-0.250	-1.010
2020/01/31 21:52:25.3	95.880	0.100	-0.190	-1.000
2020/01/31 21:52:25.4	95.900	0.090	-0.140	-0.980
2020/01/31 21:52:25.5	95.920	0.070	-0.080	-0.970
2020/01/31 21:52:25.6	95.950	0.050	-0.030	-0.950
2020/01/31 21:52:25.7	95.970	0.030	0.020	-0.940
2020/01/31 21:52:25.8	96.000	0.010	0.080	-0.910
2020/01/31 21:52:25.9	96.020	-0.010	0.130	-0.890
2020/01/31 21:52:26.0	96.040	-0.030	0.180	-0.860
2020/01/31 21:52:26.1	96.060	-0.040	0.220	-0.830
2020/01/31 21:52:26.2	96.090	-0.060	0.260	-0.790
2020/01/31 21:52:26.3	96.120	-0.080	0.310	-0.750
2020/01/31 21:52:26.4	96.140	-0.090	0.340	-0.700
2020/01/31 21:52:26.5	96.160	-0.110	0.380	-0.650
2020/01/31 21:52:26.6	96.190	-0.120	0.410	-0.600
2020/01/31 21:52:26.7	96.210	-0.140	0.440	-0.540
2020/01/31 21:52:26.8	96.220	-0.150	0.460	-0.470
2020/01/31 21:52:26.9	96.240	-0.160	0.490	-0.400
2020/01/31 21:52:27.0	96.270	-0.170	0.500	-0.320
2020/01/31 21:52:27.1	96.280	-0.180	0.520	-0.240
2020/01/31 21:52:27.2	96.280	-0.190	0.530	-0.150
2020/01/31 21:52:27.3	96.290	-0.200	0.540	-0.060
2020/01/31 21:52:27.4	96.290	-0.210	0.550	0.030
2020/01/31 21:52:27.5	96.280	-0.210	0.550	0.130
2020/01/31 21:52:27.6	96.280	-0.220	0.550	0.240
2020/01/31 21:52:27.7	96.270	-0.230	0.550	0.340
2020/01/31 21:52:27.8	96.260	-0.230	0.540	0.450
2020/01/31 21:52:27.9	96.240	-0.230	0.530	0.570
2020/01/31 21:52:28.0	96.210	-0.240	0.520	0.690
2020/01/31 21:52:28.1	96.190	-0.240	0.500	0.800
2020/01/31 21:52:28.2	96.170	-0.240	0.480	0.920
2020/01/31 21:52:28.3	96.150	-0.240	0.460	1.040
2020/01/31 21:52:28.4	96.130	-0.240	0.430	1.150
2020/01/31 21:52:28.5	96.110	-0.240	0.400	1.270
2020/01/31 21:52:28.6	96.090	-0.240	0.360	1.380
2020/01/31 21:52:28.7	96.070	-0.240	0.320	1.490
2020/01/31 21:52:28.8	96.050	-0.240	0.280	1.600
2020/01/31 21:52:28.9	96.030	-0.240	0.240	1.700
2020/01/31 21:52:29.0	96.010	-0.230	0.190	1.800
2020/01/31 21:52:29.1	96.000	-0.230	0.140	1.900
2020/01/31 21:52:29.2	95.980	-0.230	0.090	1.990
2020/01/31 21:52:29.3	95.970	-0.220	0.030	2.070
2020/01/31 21:52:29.4	95.960	-0.220	-0.020	2.150
2020/01/31 21:52:29.5	95.960	-0.210	-0.080	2.220
2020/01/31 21:52:29.6	95.950	-0.200	-0.140	2.290
2020/01/31 21:52:29.7	95.950	-0.200	-0.200	2.350
2020/01/31 21:52:29.8	95.950	-0.190	-0.250	2.400
2020/01/31 21:52:29.9	95.960	-0.180	-0.310	2.450
2020/01/31 21:52:30.0	95.960	-0.170	-0.370	2.490
2020/01/31 21:52:30.1	95.970	-0.160	-0.430	2.520
2020/01/31 21:52:30.2	95.980	-0.150	-0.480	2.550
2020/01/31 21:52:30.3	95.990	-0.140	-0.540	2.570
2020/01/31 21:52:30.4	96.010	-0.130	-0.590	2.590
2020/01/31 21:52:30.5	96.020	-0.120	-0.640	2.600
2020/01/31 21:52:30.6	96.040	-0.100	-0.680	2.600
2020/01/31 21:52:30.7	96.060	-0.090	-0.730	2.600
2020/01/31 21:52:30.8	96.080	-0.080	-0.760	2.590
2020/01/31 21:52:30.9	96.110	-0.060	-0.800	2.580
2020/01/31 21:52:31.0	96.140	-0.050	-0.830	2.570
2020/01/31 21:52:31.1	96.160	-0.030	-0.850	2.550
2020/01/31 21:52:31.2	96.190	-0.010	-0.870	2.520
2020/01/31 21:52:31.3	96.210	0.000	-0.890	2.490
2020/01/31 21:52:31.4	96.240	0.020	-0.900	2.460
2020/01/31 21:52:31.5	96.270	0.040	-0.900	2.430
2020/01/31 21:52:31.6	96.290	0.050	-0.900	2.390
2020/01/31 21:52:31.7	96.320	0.070	-0.900	2.350
2020/01/31 21:52:31.8	96.340	0.080	-0.890	2.320
2020/01/31 21:52:31.9	96.370	0.100	-0.870	2.270
2020/01/31 21:52:32.0	96.390	0.110	-0.850	2.230
2020/01/31 21:52:32.1	96.410	0.120	-0.830	2.180
2020/01/31 21:52:32.2	96.430	0.140	-0.800	2.140
2020/01/31 21:52:32.3	96.450	0.150	-0.770	2.090
2020/01/31 21:52:32.4	96.470	0.160	-0.730	2.050
2020/01/31 21:52:32.5	96.480	0.160	-0.690	2.000
2020/01/31 21:52:32.6	96.500	0.170	-0.640	1.950
2020/01/31 21:52:32.7	96.510	0.180	-0.590	1.900
2020/01/31 21:52:32.8	96.520	0.180	-0.540	1.850
2020/01/31 21:52:32.9	96.540	0.180	-0.490	1.800
2020/01/31 21:52:33.0	96.560	0.180	-0.430	1.750
2020/01/31 21:52:33.1	96.560	0.170	-0.370	1.690
2020/01/31 21:52:33.2	96.570	0.170	-0.310	1.640
2020/01/31 21:52:33.3	96.570	0.160	-0.250	1.590
2020/01/31 21:52:33.4	96.580	0.150	-0.190	1.530
2020/01/31 21:52:33.5	96.570	0.140	-0.130	1.470
2020/01/31 21:52:33.6	96.570	0.130	-0.070	1.410
2020/01/31 21:52:33.7	96.570	0.110	-0.010	1.360
2020/01/31 21:52:33.8	96.560	0.100	0.050	1.300
2020/01/31 21:52:33.9	96.560	0.080	0.110	1.240
2020/01/31 21:52:34.0	96.560	0.060	0.160	1.170
2020/01/31 21:52:34.1	96.550	0.040	0.210	1.110
2020/01/31 21:52:34.2	96.540	0.010	0.260	1.040
2020/01/31 21:52:34.3	96.540	-0.010	0.300	0.980
2020/01/31 21:52:34.4	96.530	-0.030	0.350	0.910
2020/01/31 21:52:34.5	96.520	-0.060	0.380	0.850
2020/01/31 21:52:34.6	96.500	-0.080	0.420	0.780
2020/01/31 21:52:34.7	96.500	-0.110	0.450	0.710
2020/01/31 21:52:34.8	96.480	-0.130	0.470	0.640
2020/01/31 21:52:34.9	96.470	-0.160	0.490	0.570
2020/01/31 21:52:35.0	96.460	-0.180	0.500	0.500
2020/01/31 21:52:35.1	96.450	-0.200	0.510	0.430
2020/01/31 21:52:35.2	96.440	-0.230	0.510	0.360
2020/01/31 21:52:35.3	96.430	-0.250	0.500	0.290
2020/01/31 21:52:35.4	96.420	-0.270	0.490	0.220
2020/01/31 21:52:35.5	96.420	-0.280	0.470	0.150
2020/01/31 21:52:35.6	96.410	-0.300	0.450	0.080
2020/01/31 21:52:35.7	96.400	-0.310	0.420	0.020
2020/01/31 21:52:35.8	96.390	-0.320	0.380	-0.050
2020/01/31 21:52:35.9	96.390	-0.330	0.340	-0.110
2020/01/31 21:52:36.0	96.370	-0.340	0.300	-0.180
2020/01/31 21:52:36.1	96.360	-0.340	0.250	-0.240
2020/01/31 21:52:36.2	96.360	-0.340	0.190	-0.300
2020/01/31 21:52:36.3	96.360	-0.340	0.130	-0.360
2020/01/31 21:52:36.4	96.360	-0.330	0.070	-0.420
2020/01/31 21:52:36.5	96.360	-0.320	-0.000	-0.480
2020/01/31 21:52:36.6	96.360	-0.310	-0.070	-0.530
2020/01/31 21:52:36.7	96.360	-0.300	-0.140	-0.580
2020/01/31 21:52:36.8	96.360	-0.280	-0.210	-0.630
2020/01/31 21:52:36.9	96.360	-0.260	-0.290	-0.670
2020/01/31 21:52:37.0	96.370	-0.240	-0.360	-0.720
2020/01/31 21:52:37.1	96.370	-0.210	-0.430	-0.760
2020/01/31 21:52:37.2	96.370	-0.190	-0.500	-0.800
2020/01/31 21:52:37.3	96.380	-0.160	-0.570	-0.830
2020/01/31 21:52:37.4	96.380	-0.130	-0.630	-0.860
2020/01/31 21:52:37.5	96.390	-0.100	-0.690	-0.890
2020/01/31 21:52:37.6	96.390	-0.060	-0.740	-0.920
2020/01/31 21:52:37.7	96.400	-0.030	-0.790	-0.940
2020/01/31 21:52:37.8	96.400	0.000	-0.840	-0.960
2020/01/31 21:52:37.9	96.410	0.040	-0.870	-0.980
2020/01/31 21:52:38.0	96.430	0.070	-0.900	-1.000
2020/01/31 21:52:38.1	96.440	0.100	-0.920	-1.010
2020/01/31 21:52:38.2	96.440	0.140	-0.940	-1.020
2020/01/31 21:52:38.3	96.450	0.170	-0.940	-1.030
2020/01/31 21:52:38.4	96.450	0.200	-0.940	-1.040
2020/01/31 21:52:38.5	96.450	0.220	-0.930	-1.040
2020/01/31 21:52:38.6	96.450	0.250	-0.910	-1.040
2020/01/31 21:52:38.7	96.460	0.280	-0.890	-1.040
2020/01/31 21:52:38.8	96.460	0.300	-0.860	-1.040
2020/01/31 21:52:38.9	96.460	0.320	-0.820	-1.040
2020/01/31 21:52:39.0	96.470	0.330	-0.770	-1.030
2020/01/31 21:52:39.1	96.460	0.350	-0.720	-1.020
2020/01/31 21:52:39.2	96.460	0.360	-0.660	-1.010
2020/01/31 21:52:39.3	96.460	0.370	-0.600	-1.000
2020/01/31 21:52:39.4	96.460	0.370	-0.530	-0.990
2020/01/31 21:52:39.5	96.450	0.370	-0.460	-0.970
2020/01/31 21:52:39.6	96.450	0.370	-0.390	-0.960
2020/01/31 21:52:39.7	96.450	0.370	-0.310	-0.940
2020/01/31 21:52:39.8	96.440	0.360	-0.240	-0.920
2020/01/31 21:52:39.9	96.440	0.360	-0.160	-0.900
2020/01/31 21:52:40.0	96.420	0.350	-0.090	-0.870
2020/01/31 21:52:40.1	96.420	0.330	-0.010	-0.850
2020/01/31 21:52:40.2	96.420	0.320	0.060	-0.820
2020/01/31 21:52:40.3	96.410	0.300	0.120	-0.790
2020/01/31 21:52:40.4	96.410	0.280	0.190	-0.760
2020/01/31 21:52:40.5	96.410	0.270	0.250	-0.730
2020/01/31 21:52:40.6	96.410	0.250	0.300	-0.700
2020/01/31 21:52:40.7	96.410	0.230	0.350	-0.660
2020/01/31 21:52:40.8	96.410	0.200	0.390	-0.630
2020/01/31 21:52:40.9	96.410	0.180	0.420	-0.590
2020/01/31 21:52:41.0	96.410	0.160	0.460	-0.550
2020/01/31 21:52:41.1	96.420	0.140	0.480	-0.510
2020/01/31 21:52:41.2	96.430	0.120	0.490	-0.460
2020/01/31 21:52:41.3	96.430	0.110	0.490	-0.410
2020/01/31 21:52:41.4	96.440	0.090	0.490	-0.360
2020/01/31 21:52:41.5	96.460	0.070	0.480	-0.310
2020/01/31 21:52:41.6	96.470	0.060	0.460	-0.260
2020/01/31 21:52:41.7	96.480	0.050	0.430	-0.200
2020/01/31 21:52:41.8	96.500	0.030	0.400	-0.150
2020/01/31 21:52:41.9	96.510	0.020	0.360	-0.090
2020/01/31 21:52:42.0	96.530	0.020	0.310	-0.020
2020/01/31 21:52:42.1	96.550	0.010	0.260	0.040
2020/01/31 21:52:42.2	96.570	0.000	0.210	0.110
2020/01/31 21:52:42.3	96.580	-0.000	0.150	0.170
2020/01/31 21:52:42.4	96.600	-0.000	0.080	0.240
2020/01/31 21:52:42.5	96.620	-0.000	0.020	0.310
2020/01/31 21:52:42.6	96.640	-0.000	-0.050	0.390
2020/01/31 21:52:42.7	96.660	-0.000	-0.120	0.460
2020/01/31 21:52:42.8	96.670	0.000	-0.190	0.540
2020/01/31 21:52:42.9	96.690	0.000	-0.250	0.610
2020/01/31 21:52:43.0	96.710	0.010	-0.330	0.690
2020/01/31 21:52:43.1	96.720	0.010	-0.390	0.770
2020/01/31 21:52:43.2	96.740	0.010	-0.450	0.850
2020/01/31 21:52:43.3	96.750	0.020	-0.510	0.940
2020/01/31 21:52:43.4	96.760	0.020	-0.570	1.020
2020/01/31 21:52:43.5	96.770	0.020	-0.620	1.110
2020/01/31 21:52:43.6	96.780	0.020	-0.660	1.190
2020/01/31 21:52:43.7	96.790	0.020	-0.700	1.280
2020/01/31 21:52:43.8	96.800	0.020	-0.730	1.370
2020/01/31 21:52:43.9	96.810	0.020	-0.760	1.460
2020/01/31 21:52:44.0	96.800	0.020	-0.770	1.550
2020/01/31 21:52:44.1	96.800	0.010	-0.790	1.640
2020/01/31 21:52:44.2	96.800	0.010	-0.790	1.720
2020/01/31 21:52:44.3	96.800	-0.000	-0.790	1.810
2020/01/31 21:52:44.4	96.790	-0.010	-0.780	1.900
2020/01/31 21:52:44.5	96.790	-0.020	-0.770	1.980
2020/01/31 21:52:44.6	96.780	-0.040	-0.740	2.060
2020/01/31 21:52:44.7	96.770	-0.050	-0.710	2.140
2020/01/31 21:52:44.8	96.760	-0.070	-0.680	2.220
2020/01/31 21:52:44.9	96.740	-0.090	-0.640	2.290
2020/01/31 21:52:45.0	96.720	-0.110	-0.590	2.360
2020/01/31 21:52:45.1	96.700	-0.130	-0.540	2.420
2020/01/31 21:52:45.2	96.690	-0.150	-0.480	2.490
2020/01/31 21:52:45.3	96.670	-0.180	-0.420	2.540
2020/01/31 21:52:45.4	96.650	-0.200	-0.360	2.590
2020/01/31 21:52:45.5	96.620	-0.220	-0.290	2.640
2020/01/31 21:52:45.6	96.600	-0.250	-0.230	2.680
2020/01/31 21:52:45.7	96.580	-0.270	-0.160	2.720
2020/01/31 21:52:45.8	96.560	-0.300	-0.090	2.750
2020/01/31 21:52:45.9	96.530	-0.320	-0.030	2.770
2020/01/31 21:52:46.0	96.530	-0.340	0.040	2.790
2020/01/31 21:52:46.1	96.510	-0.360	0.100	2.800
2020/01/31 21:52:46.2	96.490	-0.380	0.160	2.810
2020/01/31 21:52:46.3	96.470	-0.390	0.210	2.810
2020/01/31 21:52:46.4	96.450	-0.400	0.260	2.800
2020/01/31 21:52:46.5	96.430	-0.410	0.310	2.780
2020/01/31 21:52:46.6	96.410	-0.420	0.350	2.760
2020/01/31 21:52:46.7	96.400	-0.420	0.380	2.740
2020/01/31 21:52:46.8	96.380	-0.430	0.410	2.700
2020/01/31 21:52:46.9	96.370	-0.420	0.430	2.660
2020/01/31 21:52:47.0	96.360	-0.420	0.450	2.620
2020/01/31 21:52:47.1	96.360	-0.410	0.450	2.570
2020/01/31 21:52:47.2	96.350	-0.390	0.450	2.510
2020/01/31 21:52:47.3	96.350	-0.380	0.450	2.450
2020/01/31 21:52:47.4	96.360	-0.360	0.430	2.380
2020/01/31 21:52:47.5	96.360	-0.340	0.410	2.310
2020/01/31 21:52:47.6	96.370	-0.310	0.390	2.230
2020/01/31 21:52:47.7	96.380	-0.290	0.350	2.150
2020/01/31 21:52:47.8	96.390	-0.260	0.320	2.070
2020/01/31 21:52:47.9	96.410	-0.220	0.280	1.980
2020/01/31 21:52:48.0	96.420	-0.190	0.230	1.880
2020/01/31 21:52:48.1	96.440	-0.160	0.180	1.780
2020/01/31 21:52:48.2	96.460	-0.120	0.130	1.680
2020/01/31 21:52:48.3	96.490	-0.090	0.080	1.580
2020/01/31 21:52:48.4	96.510	-0.050	0.020	1.480
2020/01/31 21:52:48.5	96.540	-0.020	-0.030	1.370
2020/01/31 21:52:48.6	96.560	0.010	-0.090	1.260
2020/01/31 21:52:48.7	96.590	0.050	-0.140	1.150
2020/01/31 21:52:48.8	96.620	0.080	-0.190	1.040
2020/01/31 21:52:48.9	96.650	0.110	-0.240	0.930
2020/01/31 21:52:49.0	96.660	0.130	-0.280	0.810
2020/01/31 21:52:49.1	96.690	0.160	-0.330	0.700
2020/01/31 21:52:49.2	96.710	0.180	-0.370	0.580
2020/01/31 21:52:49.3	96.730	0.200	-0.400	0.460
2020/01/31 21:52:49.4	96.750	0.210	-0.430	0.340
2020/01/31 21:52:49.5	96.770	0.230	-0.460	0.220
2020/01/31 21:52:49.6	96.790	0.240	-0.480	0.100
2020/01/31 21:52:49.7	96.810	0.240	-0.490	-0.010
2020/01/31 21:52:49.8	96.820	0.250	-0.500	-0.130
2020/01/31 21:52:49.9	96.830	0.240	-0.500	-0.250
2020/01/31 21:52:50.0	96.840	0.240	-0.510	-0.370
2020/01/31 21:52:50.1	96.850	0.230	-0.500	-0.480
2020/01/31 21:52:50.2	96.850	0.220	-0.490	-0.590
2020/01/31 21:52:50.3	96.860	0.210	-0.470	-0.700
2020/01/31 21:52:50.4	96.860	0.190	-0.450	-0.810
2020/01/31 21:52:50.5	96.870	0.170	-0.420	-0.910
2020/01/31 21:52:50.6	96.870	0.150	-0.400	-1.010
2020/01/31 21:52:50.7	96.870	0.130	-0.360	-1.110
2020/01/31 21:52:50.8	96.870	0.100	-0.330	-1.200
2020/01/31 21:52:50.9	96.870	0.080	-0.290	-1.280
2020/01/31 21:52:51.0	96.860	0.050	-0.250	-1.360
2020/01/31 21:52:51.1	96.850	0.020	-0.210	-1.440
2020/01/31 21:52:51.2	96.850	-0.010	-0.170	-1.520
2020/01/31 21:52:51.3	96.840	-0.040	-0.130	-1.590
2020/01/31 21:52:51.4	96.840	-0.070	-0.090	-1.650
2020/01/31 21:52:51.5	96.830	-0.100	-0.050	-1.710
2020/01/31 21:52:51.6	96.820	-0.120	-0.020	-1.760
2020/01/31 21:52:51.7	96.810	-0.150	0.020	-1.810
2020/01/31 21:52:51.8	96.810	-0.180	0.050	-1.850
2020/01/31 21:52:51.9	96.800	-0.200	0.070	-1.880
2020/01/31 21:52:52.0	96.770	-0.220	0.100	-1.910
2020/01/31 21:52:52.1	96.760	-0.240	0.120	-1.930
2020/01/31 21:52:52.2	96.750	-0.260	0.130	-1.950
2020/01/31 21:52:52.3	96.740	-0.280	0.140	-1.960
2020/01/31 21:52:52.4	96.720	-0.290	0.150	-1.960
2020/01/31 21:52:52.5	96.710	-0.300	0.150	-1.950
2020/01/31 21:52:52.6	96.690	-0.310	0.150	-1.940
2020/01/31 21:52:52.7	96.670	-0.310	0.140	-1.920
2020/01/31 21:52:52.8	96.650	-0.310	0.130	-1.890
2020/01/31 21:52:52.9	96.630	-0.310	0.110	-1.860
2020/01/31 21:52:53.0	96.610	-0.310	0.090	-1.820
2020/01/31 21:52:53.1	96.590	-0.300	0.070	-1.770
2020/01/31 21:52:53.2	96.560	-0.290	0.040	-1.720
2020/01/31 21:52:53.3	96.530	-0.280	0.010	-1.660
2020/01/31 21:52:53.4	96.510	-0.270	-0.030	-1.600
2020/01/31 21:52:53.5	96.480	-0.250	-0.070	-1.540
2020/01/31 21:52:53.6	96.450	-0.230	-0.110	-1.470
2020/01/31 21:52:53.7	96.420	-0.210	-0.150	-1.390
2020/01/31 21:52:53.8	96.390	-0.190	-0.200	-1.320
2020/01/31 21:52:53.9	96.360	-0.160	-0.240	-1.240
2020/01/31 21:52:54.0	96.330	-0.140	-0.290	-1.150
2020/01/31 21:52:54.1	96.300	-0.110	-0.340	-1.070
2020/01/31 21:52:54.2	96.270	-0.090	-0.390	-0.980
2020/01/31 21:52:54.3	96.240	-0.060	-0.440	-0.900
2020/01/31 21:52:54.4	96.220	-0.030	-0.490	-0.810
2020/01/31 21:52:54.5	96.190	-0.000	-0.530	-0.720
2020/01/31 21:52:54.6	96.160	0.030	-0.580	-0.640
2020/01/31 21:52:54.7	96.140	0.050	-0.620	-0.550
2020/01/31 21:52:54.8	96.120	0.080	-0.660	-0.460
2020/01/31 21:52:54.9	96.100	0.110	-0.700	-0.370
2020/01/31 21:52:55.0	96.080	0.130	-0.740	-0.280
2020/01/31 21:52:55.1	96.060	0.160	-0.770	-0.190
2020/01/31 21:52:55.2	96.050	0.180	-0.800	-0.110
2020/01/31 21:52:55.3	96.030	0.200	-0.820	-0.020
2020/01/31 21:52:55.4	96.020	0.220	-0.850	0.060
2020/01/31 21:52:55.5	96.010	0.240	-0.860	0.150
2020/01/31 21:52:55.6	96.000	0.260	-0.870	0.230
2020/01/31 21:52:55.7	95.990	0.270	-0.880	0.310
2020/01/31 21:52:55.8	95.980	0.280	-0.880	0.390
2020/01/31 21:52:55.9	95.980	0.290	-0.880	0.470
2020/01/31 21:52:56.0	95.980	0.300	-0.870	0.550
2020/01/31 21:52:56.1	95.990	0.310	-0.860	0.620
2020/01/31 21:52:56.2	95.990	0.310	-0.840	0.700
2020/01/31 21:52:56.3	96.000	0.310	-0.820	0.770
2020/01/31 21:52:56.4	96.010	0.310	-0.790	0.840
2020/01/31 21:52:56.5	96.020	0.310	-0.760	0.910
2020/01/31 21:52:56.6	96.030	0.310	-0.730	0.970
2020/01/31 21:52:56.7	96.050	0.300	-0.690	1.040
2020/01/31 21:52:56.8	96.070	0.290	-0.640	1.100
2020/01/31 21:52:56.9	96.100	0.280	-0.600	1.150
2020/01/31 21:52:57.0	96.140	0.270	-0.550	1.210
2020/01/31 21:52:57.1	96.170	0.260	-0.500	1.270
2020/01/31 21:52:57.2	96.200	0.240	-0.440	1.310
2020/01/31 21:52:57.3	96.240	0.230	-0.390	1.360
2020/01/31 21:52:57.4	96.280	0.210	-0.330	1.400
2020/01/31 21:52:57.5	96.320	0.190	-0.270	1.440
2020/01/31 21:52:57.6	96.360	0.180	-0.220	1.470
2020/01/31 21:52:57.7	96.400	0.160	-0.160	1.510
2020/01/31 21:52:57.8	96.440	0.140	-0.100	1.540
2020/01/31 21:52:57.9	96.490	0.120	-0.040	1.570
2020/01/31 21:52:58.0	96.530	0.100	0.010	1.590
2020/01/31 21:52:58.1	96.570	0.080	0.060	1.610
2020/01/31 21:52:58.2	96.620	0.060	0.120	1.630
2020/01/31 21:52:58.3	96.660	0.050	0.170	1.660
2020/01/31 21:52:58.4	96.710	0.030	0.210	1.670
2020/01/31 21:52:58.5	96.750	0.010	0.260	1.690
2020/01/31 21:52:58.6	96.790	-0.010	0.300	1.710
2020/01/31 21:52:58.7	96.820	-0.020	0.340	1.730
2020/01/31 21:52:58.8	96.860	-0.040	0.380	1.740
2020/01/31 21:52:58.9	96.890	-0.050	0.410	1.760
2020/01/31 21:52:59.0	96.910	-0.060	0.440	1.770
2020/01/31 21:52:59.1	96.940	-0.070	0.460	1.790
2020/01/31 21:52:59.2	96.960	-0.080	0.480	1.800
2020/01/31 21:52:59.3	96.980	-0.090	0.500	1.820
2020/01/31 21:52:59.4	96.990	-0.100	0.510	1.830
2020/01/31 21:52:59.5	97.000	-0.100	0.520	1.850
2020/01/31 21:52:59.6	97.010	-0.110	0.530	1.860
2020/01/31 21:52:59.7	97.010	-0.110	0.530	1.880
2020/01/31 21:52:59.8	97.010	-0.120	0.530	1.890
2020/01/31 21:52:59.9	97.000	-0.120	0.520	1.910
2020/01/31 21:53:00.0	96.990	-0.120	0.510	1.920
2020/01/31 21:53:00.1	96.980	-0.120	0.500	1.930
2020/01/31 21:53:00.2	96.970	-0.110	0.490	1.940
2020/01/31 21:53:00.3	96.950	-0.110	0.470	1.950
2020/01/31 21:53:00.4	96.930	-0.110	0.450	1.960
2020/01/31 21:53:00.5	96.910	-0.100	0.430	1.970
2020/01/31 21:53:00.6	96.880	-0.100	0.410	1.970
2020/01/31 21:53:00.7	96.850	-0.090	0.380	1.970
2020/01/31 21:53:00.8	96.820	-0.080	0.360	1.970
2020/01/31 21:53:00.9	96.790	-0.080	0.330	1.970
2020/01/31 21:53:01.0	96.760	-0.070	0.300	1.960
2020/01/31 21:53:01.1	96.720	-0.070	0.270	1.950
2020/01/31 21:53:01.2	96.690	-0.060	0.230	1.930
2020/01/31 21:53:01.3	96.660	-0.050	0.200	1.910
2020/01/31 21:53:01.4	96.630	-0.050	0.170	1.890
2020/01/31 21:53:01.5	96.600	-0.040	0.140	1.870
2020/01/31 21:53:01.6	96.560	-0.030	0.100	1.840
2020/01/31 21:53:01.7	96.530	-0.030	0.070	1.810
2020/01/31 21:53:01.8	96.500	-0.020	0.030	1.770
2020/01/31 21:53:01.9	96.470	-0.020	-0.000	1.730
2020/01/31 21:53:02.0	96.450	-0.010	-0.040	1.680
2020/01/31 21:53:02.1	96.430	-0.010	-0.070	1.640
2020/01/31 21:53:02.2	96.400	-0.010	-0.110	1.590
2020/01/31 21:53:02.3	96.370	-0.010	-0.140	1.540
2020/01/31 21:53:02.4	96.350	-0.000	-0.180	1.480
2020/01/31 21:53:02.5	96.330	-0.000	-0.210	1.420
2020/01/31 21:53:02.6	96.310	-0.000	-0.240	1.360
2020/01/31 21:53:02.7	96.290	-0.000	-0.270	1.300
2020/01/31 21:53:02.8	96.270	-0.000	-0.300	1.240
2020/01/31 21:53:02.9	96.250	-0.010	-0.330	1.170
2020/01/31 21:53:03.0	96.230	-0.010	-0.350	1.100
2020/01/31 21:53:03.1	96.220	-0.010	-0.380	1.030
2020/01/31 21:53:03.2	96.210	-0.010	-0.400	0.960
2020/01/31 21:53:03.3	96.200	-0.020	-0.430	0.890
2020/01/31 21:53:03.4	96.190	-0.020	-0.450	0.810
2020/01/31 21:53:03.5	96.190	-0.020	-0.470	0.740
2020/01/31 21:53:03.6	96.190	-0.030	-0.480	0.660
2020/01/31 21:53:03.7	96.190	-0.030	-0.500	0.580
2020/01/31 21:53:03.8	96.190	-0.040	-0.510	0.510
2020/01/31 21:53:03.9	96.190	-0.040	-0.530	0.430
2020/01/31 21:53:04.0	96.190	-0.040	-0.540	0.350
2020/01/31 21:53:04.1	96.200	-0.050	-0.550	0.270
2020/01/31 21:53:04.2	96.210	-0.050	-0.560	0.180
2020/01/31 21:53:04.3	96.230	-0.050	-0.560	0.100
2020/01/31 21:53:04.4	96.240	-0.050	-0.570	0.020
2020/01/31 21:53:04.5	96.260	-0.060	-0.570	-0.060
2020/01/31 21:53:04.6	96.280	-0.060	-0.570	-0.140
2020/01/31 21:53:04.7	96.300	-0.060	-0.580	-0.220
2020/01/31 21:53:04.8	96.330	-0.060	-0.580	-0.300
2020/01/31 21:53:04.9	96.350	-0.060	-0.580	-0.370
2020/01/31 21:53:05.0	96.390	-0.060	-0.570	-0.450
2020/01/31 21:53:05.1	96.420	-0.060	-0.570	-0.520
2020/01/31 21:53:05.2	96.440	-0.060	-0.560	-0.590
2020/01/31 21:53:05.3	96.470	-0.060	-0.560	-0.650
2020/01/31 21:53:05.4	96.500	-0.060	-0.550	-0.720
2020/01/31 21:53:05.5	96.520	-0.060	-0.540	-0.770
2020/01/31 21:53:05.6	96.550	-0.050	-0.530	-0.830
2020/01/31 21:53:05.7	96.570	-0.050	-0.520	-0.880
2020/01/31 21:53:05.8	96.590	-0.050	-0.510	-0.920
2020/01/31 21:53:05.9	96.610	-0.050	-0.490	-0.960
2020/01/31 21:53:06.0	96.640	-0.050	-0.470	-1.000
2020/01/31 21:53:06.1	96.660	-0.050	-0.460	-1.030
2020/01/31 21:53:06.2	96.680	-0.050	-0.440	-1.050
2020/01/31 21:53:06.3	96.690	-0.050	-0.420	-1.070
2020/01/31 21:53:06.4	96.700	-0.050	-0.400	-1.090
2020/01/31 21:53:06.5	96.710	-0.050	-0.370	-1.100
2020/01/31 21:53:06.6	96.710	-0.060	-0.350	-1.100
2020/01/31 21:53:06.7	96.720	-0.060	-0.330	-1.100
2020/01/31 21:53:06.8	96.720	-0.060	-0.300	-1.100
2020/01/31 21:53:06.9	96.720	-0.070	-0.270	-1.090
2020/01/31 21:53:07.0	96.700	-0.070	-0.250	-1.070
2020/01/31 21:53:07.1	96.700	-0.080	-0.220	-1.050
2020/01/31 21:53:07.2	96.690	-0.090	-0.200	-1.020
2020/01/31 21:53:07.3	96.690	-0.090	-0.170	-0.990
2020/01/31 21:53:07.4	96.680	-0.100	-0.140	-0.960
2020/01/31 21:53:07.5	96.670	-0.110	-0.120	-0.920
2020/01/31 21:53:07.6	96.660	-0.120	-0.090	-0.880
2020/01/31 21:53:07.7	96.650	-0.130	-0.070	-0.840
2020/01/31 21:53:07.8	96.640	-0.130	-0.050	-0.790
2020/01/31 21:53:07.9	96.630	-0.140	-0.030	-0.740
2020/01/31 21:53:08.0	96.630	-0.150	-0.000	-0.690
2020/01/31 21:53:08.1	96.610	-0.150	0.010	-0.630
2020/01/31 21:53:08.2	96.600	-0.160	0.030	-0.570
2020/01/31 21:53:08.3	96.590	-0.170	0.040	-0.510
2020/01/31 21:53:08.4	96.570	-0.170	0.050	-0.450
2020/01/31 21:53:08.5	96.560	-0.170	0.050	-0.390
2020/01/31 21:53:08.6	96.540	-0.170	0.060	-0.320
2020/01/31 21:53:08.7	96.530	-0.170	0.050	-0.260
2020/01/31 21:53:08.8	96.520	-0.170	0.050	-0.190
2020/01/31 21:53:08.9	96.500	-0.170	0.050	-0.130
2020/01/31 21:53:09.0	96.500	-0.170	0.030	-0.060
2020/01/31 21:53:09.1	96.490	-0.160	0.020	0.010
2020/01/31 21:53:09.2	96.480	-0.150	0.010	0.080
2020/01/31 21:53:09.3	96.470	-0.140	-0.010	0.140
2020/01/31 21:53:09.4	96.460	-0.130	-0.020	0.210
2020/01/31 21:53:09.5	96.460	-0.120	-0.040	0.270
2020/01/31 21:53:09.6	96.460	-0.110	-0.070	0.340
2020/01/31 21:53:09.7	96.450	-0.090	-0.090	0.400
2020/01/31 21:53:09.8	96.460	-0.080	-0.110	0.470
2020/01/31 21:53:09.9	96.460	-0.060	-0.140	0.530
2020/01/31 21:53:10.0	96.450	-0.040	-0.160	0.590
2020/01/31 21:53:10.1	96.460	-0.020	-0.190	0.650
2020/01/31 21:53:10.2	96.470	-0.000	-0.210	0.710
2020/01/31 21:53:10.3	96.480	0.020	-0.240	0.760
2020/01/31 21:53:10.4	96.490	0.040	-0.260	0.810
2020/01/31 21:53:10.5	96.510	0.060	-0.280	0.860
2020/01/31 21:53:10.6	96.520	0.080	-0.310	0.910
2020/01/31 21:53:10.7	96.540	0.100	-0.330	0.960
2020/01/31 21:53:10.8	96.560	0.130	-0.350	1.000
2020/01/31 21:53:10.9	96.580	0.150	-0.360	1.040
2020/01/31 21:53:11.0	96.600	0.170	-0.380	1.080
2020/01/31 21:53:11.1	96.630	0.190	-0.390	1.110
2020/01/31 21:53:11.2	96.650	0.210	-0.400	1.150
2020/01/31 21:53:11.3	96.670	0.230	-0.410	1.180
2020/01/31 21:53:11.4	96.700	0.240	-0.420	1.200
2020/01/31 21:53:11.5	96.720	0.260	-0.420	1.230
2020/01/31 21:53:11.6	96.740	0.270	-0.420	1.260
2020/01/31 21:53:11.7	96.760	0.280	-0.420	1.280
2020/01/31 21:53:11.8	96.780	0.300	-0.410	1.300
2020/01/31 21:53:11.9	96.800	0.300	-0.400	1.320
2020/01/31 21:53:12.0	96.780	0.310	-0.390	1.340
2020/01/31 21:53:12.1	96.790	0.320	-0.370	1.360
2020/01/31 21:53:12.2	96.800	0.320	-0.350	1.380
2020/01/31 21:53:12.3	96.800	0.320	-0.330	1.400
2020/01/31 21:53:12.4	96.810	0.320	-0.300	1.420
2020/01/31 21:53:12.5	96.800	0.320	-0.270	1.430
2020/01/31 21:53:12.6	96.800	0.310	-0.240	1.450
2020/01/31 21:53:12.7	96.790	0.300	-0.200	1.470
2020/01/31 21:53:12.8	96.780	0.290	-0.160	1.490
2020/01/31 21:53:12.9	96.770	0.280	-0.130	1.510
2020/01/31 21:53:13.0	96.770	0.270	-0.090	1.520
2020/01/31 21:53:13.1	96.750	0.260	-0.040	1.540
2020/01/31 21:53:13.2	96.720	0.240	-0.000	1.560
2020/01/31 21:53:13.3	96.700	0.220	0.040	1.580
2020/01/31 21:53:13.4	96.670	0.200	0.080	1.590
2020/01/31 21:53:13.5	96.640	0.180	0.120	1.610
2020/01/31 21:53:13.6	96.610	0.160	0.160	1.630
2020/01/31 21:53:13.7	96.580	0.140	0.200	1.640
2020/01/31 21:53:13.8	96.550	0.120	0.240	1.650
2020/01/31 21:53:13.9	96.520	0.100	0.270	1.670
2020/01/31 21:53:14.0	96.490	0.080	0.300	1.680
2020/01/31 21:53:14.1	96.460	0.050	0.330	1.680
2020/01/31 21:53:14.2	96.430	0.030	0.350	1.690
2020/01/31 21:53:14.3	96.400	0.010	0.370	1.690
2020/01/31 21:53:14.4	96.370	-0.010	0.380	1.690
2020/01/31 21:53:14.5	96.350	-0.030	0.390	1.690
2020/01/31 21:53:14.6	96.320	-0.050	0.390	1.680
2020/01/31 21:53:14.7	96.300	-0.070	0.380	1.670
2020/01/31 21:53:14.8	96.290	-0.090	0.380	1.660
2020/01/31 21:53:14.9	96.270	-0.100	0.360	1.640
2020/01/31 21:53:15.0	96.240	-0.120	0.340	1.620
2020/01/31 21:53:15.1	96.230	-0.130	0.320	1.590
2020/01/31 21:53:15.2	96.230	-0.140	0.290	1.570
2020/01/31 21:53:15.3	96.230	-0.150	0.250	1.540
2020/01/31 21:53:15.4	96.230	-0.160	0.210	1.500
2020/01/31 21:53:15.5	96.230	-0.170	0.170	1.460
2020/01/31 21:53:15.6	96.240	-0.170	0.120	1.420
2020/01/31 21:53:15.7	96.250	-0.180	0.070	1.380
2020/01/31 21:53:15.8	96.260	-0.180	0.020	1.330
2020/01/31 21:53:15.9	96.270	-0.180	-0.030	1.280
2020/01/31 21:53:16.0	96.290	-0.180	-0.080	1.230
2020/01/31 21:53:16.1	96.310	-0.180	-0.140	1.180
2020/01/31 21:53:16.2	96.330	-0.170	-0.200	1.120
2020/01/31 21:53:16.3	96.360	-0.170	-0.250	1.060
2020/01/31 21:53:16.4	96.380	-0.160	-0.310	1.000
2020/01/31 21:53:16.5	96.410	-0.160	-0.360	0.940
2020/01/31 21:53:16.6	96.430	-0.150	-0.420	0.880
2020/01/31 21:53:16.7	96.460	-0.140	-0.470	0.810
2020/01/31 21:53:16.8	96.490	-0.130	-0.520	0.750
2020/01/31 21:53:16.9	96.520	-0.120	-0.560	0.690
2020/01/31 21:53:17.0	96.530	-0.110	-0.610	0.620
2020/01/31 21:53:17.1	96.560	-0.100	-0.650	0.560
2020/01/31 21:53:17.2	96.590	-0.080	-0.680	0.490
2020/01/31 21:53:17.3	96.620	-0.070	-0.710	0.430
2020/01/31 21:53:17.4	96.650	-0.060	-0.740	0.370
2020/01/31 21:53:17.5	96.680	-0.050	-0.760	0.310
2020/01/31 21:53:17.6	96.710	-0.030	-0.770	0.260
2020/01/31 21:53:17.7	96.730	-0.020	-0.780	0.200
2020/01/31 21:53:17.8	96.760	-0.010	-0.790	0.150
2020/01/31 21:53:17.9	96.780	0.000	-0.790	0.100
2020/01/31 21:53:18.0	96.810	0.010	-0.780	0.050
2020/01/31 21:53:18.1	96.830	0.020	-0.770	0.000
2020/01/31 21:53:18.2	96.850	0.030	-0.750	-0.040
2020/01/31 21:53:18.3	96.860	0.040	-0.730	-0.080
2020/01/31 21:53:18.4	96.870	0.040	-0.710	-0.120
2020/01/31 21:53:18.5	96.880	0.050	-0.670	-0.160
2020/01/31 21:53:18.6	96.890	0.060	-0.640	-0.190
2020/01/31 21:53:18.7	96.890	0.060	-0.600	-0.220
2020/01/31 21:53:18.8	96.890	0.060	-0.550	-0.250
2020/01/31 21:53:18.9	96.890	0.060	-0.510	-0.270
2020/01/31 21:53:19.0	96.890	0.060	-0.460	-0.290
2020/01/31 21:53:19.1	96.880	0.060	-0.410	-0.310
2020/01/31 21:53:19.2	96.880	0.060	-0.350	-0.320
2020/01/31 21:53:19.3	96.870	0.060	-0.300	-0.330
2020/01/31 21:53:19.4	96.860	0.060	-0.240	-0.340
2020/01/31 21:53:19.5	96.850	0.050	-0.190	-0.350
2020/01/31 21:53:19.6	96.840	0.050	-0.130	-0.350
2020/01/31 21:53:19.7	96.820	0.040	-0.080	-0.350
2020/01/31 21:53:19.8	96.810	0.030	-0.020	-0.350
2020/01/31 21:53:19.9	96.790	0.030	0.030	-0.340
2020/01/31 21:53:20.0	96.780	0.020	0.080	-0.330
2020/01/31 21:53:20.1	96.770	0.010	0.120	-0.320
2020/01/31 21:53:20.2	96.750	0.010	0.160	-0.310
2020/01/31 21:53:20.3	96.730	-0.000	0.200	-0.290
2020/01/31 21:53:20.4	96.720	-0.010	0.230	-0.270
2020/01/31 21:53:20.5	96.700	-0.020	0.260	-0.250
2020/01/31 21:53:20.6	96.680	-0.020	0.280	-0.230
2020/01/31 21:53:20.7	96.670	-0.030	0.290	-0.200
2020/01/31 21:53:20.8	96.650	-0.040	0.300	-0.180
2020/01/31 21:53:20.9	96.630	-0.040	0.310	-0.150
2020/01/31 21:53:21.0	96.620	-0.050	0.310	-0.120
2020/01/31 21:53:21.1	96.600	-0.050	0.310	-0.090
2020/01/31 21:53:21.2	96.590	-0.060	0.300	-0.060
2020/01/31 21:53:21.3	96.570	-0.060	0.280	-0.030
2020/01/31 21:53:21.4	96.560	-0.060	0.260	0.000
2020/01/31 21:53:21.5	96.540	-0.060	0.240	0.040
2020/01/31 21:53:21.6	96.530	-0.060	0.210	0.070
2020/01/31 21:53:21.7	96.510	-0.060	0.180	0.100
2020/01/31 21:53:21.8	96.500	-0.060	0.150	0.130
2020/01/31 21:53:21.9	96.490	-0.060	0.110	0.160
2020/01/31 21:53:22.0	96.470	-0.060	0.070	0.190
2020/01/31 21:53:22.1	96.460	-0.060	0.020	0.220
2020/01/31 21:53:22.2	96.450	-0.050	-0.020	0.250
2020/01/31 21:53:22.3	96.440	-0.050	-0.070	0.280
2020/01/31 21:53:22.4	96.430	-0.040	-0.110	0.300
2020/01/31 21:53:22.5	96.420	-0.040	-0.160	0.330
2020/01/31 21:53:22.6	96.410	-0.030	-0.200	0.350
2020/01/31 21:53:22.7	96.400	-0.030	-0.250	0.380
2020/01/31 21:53:22.8	96.390	-0.020	-0.290	0.400
2020/01/31 21:53:22.9	96.380	-0.010	-0.330	0.420
2020/01/31 21:53:23.0	96.380	-0.010	-0.370	0.440
2020/01/31 21:53:23.1	96.370	-0.000	-0.410	0.460
2020/01/31 21:53:23.2	96.360	0.010	-0.440	0.480
2020/01/31 21:53:23.3	96.360	0.010	-0.470	0.500
2020/01/31 21:53:23.4	96.360	0.020	-0.500	0.520
2020/01/31 21:53:23.5	96.350	0.030	-0.520	0.540
2020/01/31 21:53:23.6	96.350	0.030	-0.540	0.560
2020/01/31 21:53:23.7	96.350	0.040	-0.560	0.580
2020/01/31 21:53:23.8	96.350	0.040	-0.570	0.590
2020/01/31 21:53:23.9	96.360	0.050	-0.580	0.610
2020/01/31 21:53:24.0	96.360	0.050	-0.580	0.620
2020/01/31 21:53:24.1	96.370	0.050	-0.580	0.630
2020/01/31 21:53:24.2	96.380	0.050	-0.580	0.650
2020/01/31 21:53:24.3	96.380	0.050	-0.570	0.660
2020/01/31 21:53:24.4	96.390	0.050	-0.560	0.670
2020/01/31 21:53:24.5	96.410	0.050	-0.540	0.680
2020/01/31 21:53:24.6	96.420	0.050	-0.520	0.690
2020/01/31 21:53:24.7	96.430	0.050	-0.490	0.710
2020/01/31 21:53:24.8	96.450	0.040	-0.470	0.720
2020/01/31 21:53:24.9	96.460	0.040	-0.440	0.730
2020/01/31 21:53:25.0	96.480	0.030	-0.410	0.740
2020/01/31 21:53:25.1	96.490	0.030	-0.370	0.750
2020/01/31 21:53:25.2	96.510	0.020	-0.330	0.770
2020/01/31 21:53:25.3	96.530	0.010	-0.290	0.780
2020/01/31 21:53:25.4	96.550	0.000	-0.250	0.800
2020/01/31 21:53:25.5	96.570	-0.010	-0.210	0.810
2020/01/31 21:53:25.6	96.590	-0.020	-0.170	0.830
2020/01/31 21:53:25.7	96.610	-0.030	-0.130	0.850
2020/01/31 21:53:25.8	96.620	-0.040	-0.090	0.870
2020/01/31 21:53:25.9	96.640	-0.050	-0.050	0.890
2020/01/31 21:53:26.0	96.660	-0.060	-0.010	0.910
2020/01/31 21:53:26.1	96.680	-0.070	0.020	0.930
2020/01/31 21:53:26.2	96.700	-0.090	0.060	0.960
2020/01/31 21:53:26.3	96.710	-0.100	0.090	0.980
2020/01/31 21:53:26.4	96.730	-0.110	0.120	1.000
2020/01/31 21:53:26.5	96.740	-0.120	0.140	1.020
2020/01/31 21:53:26.6	96.760	-0.130	0.170	1.050
2020/01/31 21:53:26.7	96.780	-0.140	0.180	1.070
2020/01/31 21:53:26.8	96.790	-0.150	0.200	1.090
2020/01/31 21:53:26.9	96.810	-0.150	0.210	1.110
2020/01/31 21:53:27.0	96.810	-0.160	0.210	1.120
2020/01/31 21:53:27.1	96.830	-0.170	0.220	1.140
2020/01/31 21:53:27.2	96.840	-0.170	0.210	1.150
2020/01/31 21:53:27.3	96.850	-0.170	0.210	1.170
2020/01/31 21:53:27.4	96.870	-0.170	0.200	1.180
2020/01/31 21:53:27.5	96.880	-0.170	0.180	1.190
2020/01/31 21:53:27.6	96.900	-0.170	0.160	1.190
2020/01/31 21:53:27.7	96.910	-0.170	0.140	1.200
2020/01/31 21:53:27.8	96.920	-0.170	0.120	1.200
2020/01/31 21:53:27.9	96.930	-0.160	0.090	1.200
2020/01/31 21:53:28.0	96.940	-0.150	0.050	1.200
2020/01/31 21:53:28.1	96.950	-0.150	0.020	1.200
2020/01/31 21:53:28.2	96.960	-0.140	-0.010	1.190
2020/01/31 21:53:28.3	96.960	-0.130	-0.050	1.180
2020/01/31 21:53:28.4	96.970	-0.110	-0.080	1.170
2020/01/31 21:53:28.5	96.980	-0.100	-0.120	1.160
2020/01/31 21:53:28.6	96.980	-0.090	-0.160	1.140
2020/01/31 21:53:28.7	96.980	-0.070	-0.190	1.130
2020/01/31 21:53:28.8	96.990	-0.060	-0.230	1.110
2020/01/31 21:53:28.9	96.990	-0.040	-0.260	1.090
2020/01/31 21:53:29.0	96.990	-0.020	-0.290	1.070
2020/01/31 21:53:29.1	96.980	-0.010	-0.320	1.050
2020/01/31 21:53:29.2	96.980	0.010	-0.350	1.030
2020/01/31 21:53:29.3	96.980	0.020	-0.370	1.010
2020/01/31 21:53:29.4	96.980	0.040	-0.400	0.990
2020/01/31 21:53:29.5	96.980	0.050	-0.410	0.970
2020/01/31 21:53:29.6	96.970	0.070	-0.430	0.950
2020/01/31 21:53:29.7	96.970	0.080	-0.440	0.930
2020/01/31 21:53:29.8	96.970	0.090	-0.450	0.900
2020/01/31 21:53:29.9	96.960	0.100	-0.460	0.880
2020/01/31 21:53:30.0	96.960	0.110	-0.460	0.860
2020/01/31 21:53:30.1	96.960	0.120	-0.460	0.840
2020/01/31 21:53:30.2	96.950	0.120	-0.450	0.820
2020/01/31 21:53:30.3	96.950	0.130	-0.440	0.800
2020/01/31 21:53:30.4	96.950	0.130	-0.430	0.780
2020/01/31 21:53:30.5	96.940	0.130	-0.420	0.760
2020/01/31 21:53:30.6	96.940	0.130	-0.400	0.750
2020/01/31 21:53:30.7	96.930	0.130	-0.380	0.730
2020/01/31 21:53:30.8	96.930	0.120	-0.350	0.720
2020/01/31 21:53:30.9	96.930	0.120	-0.330	0.700
2020/01/31 21:53:31.0	96.910	0.110	-0.300	0.690
2020/01/31 21:53:31.1	96.910	0.100	-0.270	0.680
2020/01/31 21:53:31.2	96.910	0.090	-0.250	0.670
2020/01/31 21:53:31.3	96.900	0.080	-0.220	0.660
2020/01/31 21:53:31.4	96.900	0.060	-0.180	0.640
2020/01/31 21:53:31.5	96.890	0.050	-0.150	0.630
2020/01/31 21:53:31.6	96.890	0.030	-0.120	0.620
2020/01/31 21:53:31.7	96.890	0.020	-0.090	0.610
2020/01/31 21:53:31.8	96.880	-0.000	-0.060	0.600
2020/01/31 21:53:31.9	96.880	-0.020	-0.030	0.580
2020/01/31 21:53:32.0	96.880	-0.040	-0.000	0.570
2020/01/31 21:53:32.1	96.880	-0.060	0.020	0.560
2020/01/31 21:53:32.2	96.870	-0.070	0.050	0.540
2020/01/31 21:53:32.3	96.870	-0.090	0.070	0.530
2020/01/31 21:53:32.4	96.860	-0.110	0.090	0.510
2020/01/31 21:53:32.5	96.860	-0.130	0.110	0.490
2020/01/31 21:53:32.6	96.860	-0.140	0.120	0.480
2020/01/31 21:53:32.7	96.850	-0.160	0.140	0.460
2020/01/31 21:53:32.8	96.850	-0.170	0.150	0.440
2020/01/31 21:53:32.9	96.840	-0.180	0.160	0.420
2020/01/31 21:53:33.0	96.850	-0.190	0.160	0.390
2020/01/31 21:53:33.1	96.840	-0.200	0.160	0.370
2020/01/31 21:53:33.2	96.840	-0.210	0.160	0.350
2020/01/31 21:53:33.3	96.840	-0.210	0.160	0.320
2020/01/31 21:53:33.4	96.830	-0.210	0.150	0.300
2020/01/31 21:53:33.5	96.830	-0.210	0.140	0.280
2020/01/31 21:53:33.6	96.830	-0.210	0.130	0.250
2020/01/31 21:53:33.7	96.830	-0.200	0.110	0.230
2020/01/31 21:53:33.8	96.830	-0.190	0.090	0.200
2020/01/31 21:53:33.9	96.830	-0.180	0.070	0.170
2020/01/31 21:53:34.0	96.830	-0.170	0.050	0.150
2020/01/31 21:53:34.1	96.830	-0.150	0.020	0.120
2020/01/31 21:53:34.2	96.830	-0.140	-0.010	0.100
2020/01/31 21:53:34.3	96.830	-0.120	-0.050	0.080
2020/01/31 21:53:34.4	96.830	-0.100	-0.080	0.050
2020/01/31 21:53:34.5	96.830	-0.070	-0.120	0.030
2020/01/31 21:53:34.6	96.830	-0.050	-0.160	0.010
2020/01/31 21:53:34.7	96.840	-0.020	-0.200	-0.000
2020/01/31 21:53:34.8	96.840	0.000	-0.240	-0.020
2020/01/31 21:53:34.9	96.840	0.030	-0.280	-0.040
2020/01/31 21:53:35.0	96.840	0.060	-0.330	-0.050
2020/01/31 21:53:35.1	96.850	0.090	-0.370	-0.060
2020/01/31 21:53:35.2	96.850	0.110	-0.410	-0.080
2020/01/31 21:53:35.3	96.860	0.140	-0.450	-0.090
2020/01/31 21:53:35.4	96.870	0.170	-0.490	-0.100
2020/01/31 21:53:35.5	96.870	0.190	-0.520	-0.110
2020/01/31 21:53:35.6	96.880	0.210	-0.560	-0.120
2020/01/31 21:53:35.7	96.890	0.240	-0.590	-0.120
2020/01/31 21:53:35.8	96.900	0.250	-0.610	-0.130
2020/01/31 21:53:35.9	96.910	0.270	-0.640	-0.130
2020/01/31 21:53:36.0	96.920	0.290	-0.660	-0.140
2020/01/31 21:53:36.1	96.930	0.300	-0.670	-0.140
2020/01/31 21:53:36.2	96.940	0.310	-0.680	-0.140
2020/01/31 21:53:36.3	96.950	0.310	-0.690	-0.140
2020/01/31 21:53:36.4	96.960	0.310	-0.690	-0.130
2020/01/31 21:53:36.5	96.970	0.310	-0.690	-0.130
2020/01/31 21:53:36.6	96.980	0.310	-0.690	-0.120
2020/01/31 21:53:36.7	96.980	0.300	-0.680	-0.110
2020/01/31 21:53:36.8	96.990	0.290	-0.660	-0.100
2020/01/31 21:53:36.9	97.000	0.280	-0.650	-0.090
2020/01/31 21:53:37.0	97.010	0.270	-0.620	-0.070
2020/01/31 21:53:37.1	97.010	0.250	-0.600	-0.060
2020/01/31 21:53:37.2	97.020	0.230	-0.570	-0.050
2020/01/31 21:53:37.3	97.030	0.210	-0.550	-0.030
2020/01/31 21:53:37.4	97.030	0.180	-0.510	-0.010
2020/01/31 21:53:37.5	97.040	0.160	-0.480	0.010
2020/01/31 21:53:37.6	97.040	0.130	-0.450	0.030
2020/01/31 21:53:37.7	97.050	0.100	-0.420	0.050
2020/01/31 21:53:37.8	97.050	0.080	-0.380	0.070
2020/01/31 21:53:37.9	97.050	0.050	-0.340	0.090
2020/01/31 21:53:38.0	97.060	0.020	-0.310	0.110
2020/01/31 21:53:38.1	97.060	-0.010	-0.270	0.130
2020/01/31 21:53:38.2	97.060	-0.040	-0.230	0.160
2020/01/31 21:53:38.3	97.070	-0.060	-0.200	0.180
2020/01/31 21:53:38.4	97.070	-0.090	-0.160	0.210
2020/01/31 21:53:38.5	97.070	-0.110	-0.120	0.230
2020/01/31 21:53:38.6	97.070	-0.140	-0.090	0.260
2020/01/31 21:53:38.7	97.080	-0.160	-0.050	0.280
2020/01/31 21:53:38.8	97.080	-0.180	-0.020	0.310
2020/01/31 21:53:38.9	97.080	-0.200	0.010	0.340
2020/01/31 21:53:39.0	97.100	-0.210	0.040	0.370
2020/01/31 21:53:39.1	97.100	-0.230	0.070	0.390
2020/01/31 21:53:39.2	97.100	-0.240	0.100	0.420
2020/01/31 21:53:39.3	97.100	-0.250	0.120	0.450
2020/01/31 21:53:39.4	97.110	-0.260	0.150	0.470
2020/01/31 21:53:39.5	97.110	-0.260	0.170	0.500
2020/01/31 21:53:39.6	97.110	-0.270	0.190	0.530
2020/01/31 21:53:39.7	97.110	-0.270	0.210	0.560
2020/01/31 21:53:39.8	97.120	-0.270	0.220	0.590
2020/01/31 21:53:39.9	97.120	-0.270	0.240	0.620
2020/01/31 21:53:40.0	97.120	-0.260	0.250	0.650
2020/01/31 21:53:40.1	97.120	-0.260	0.260	0.680
2020/01/31 21:53:40.2	97.120	-0.250	0.260	0.710
2020/01/31 21:53:40.3	97.120	-0.240	0.270	0.740
2020/01/31 21:53:40.4	97.120	-0.230	0.270	0.770
2020/01/31 21:53:40.5	97.130	-0.220	0.270	0.800
2020/01/31 21:53:40.6	97.120	-0.210	0.260	0.830
2020/01/31 21:53:40.7	97.120	-0.200	0.260	0.860
2020/01/31 21:53:40.8	97.120	-0.190	0.250	0.890
2020/01/31 21:53:40.9	97.120	-0.180	0.240	0.920
2020/01/31 21:53:41.0	97.110	-0.170	0.240	0.950
2020/01/31 21:53:41.1	97.110	-0.160	0.220	0.990
2020/01/31 21:53:41.2	97.100	-0.150	0.210	1.020
2020/01/31 21:53:41.3	97.090	-0.140	0.200	1.050
2020/01/31 21:53:41.4	97.080	-0.130	0.190	1.090
2020/01/31 21:53:41.5	97.070	-0.120	0.170	1.120
2020/01/31 21:53:41.6	97.060	-0.110	0.160	1.150
2020/01/31 21:53:41.7	97.050	-0.100	0.140	1.180
2020/01/31 21:53:41.8	97.040	-0.100	0.130	1.210
2020/01/31 21:53:41.9	97.030	-0.090	0.110	1.240
2020/01/31 21:53:42.0	97.020	-0.090	0.090	1.270
2020/01/31 21:53:42.1	97.010	-0.090	0.080	1.300
2020/01/31 21:53:42.2	97.000	-0.080	0.060	1.320
2020/01/31 21:53:42.3	96.990	-0.080	0.050	1.340
2020/01/31 21:53:42.4	96.980	-0.080	0.030	1.360
2020/01/31 21:53:42.5	96.970	-0.080	0.010	1.380
2020/01/31 21:53:42.6	96.970	-0.090	-0.000	1.400
2020/01/31 21:53:42.7	96.960	-0.090	-0.020	1.410
2020/01/31 21:53:42.8	96.950	-0.090	-0.030	1.420
2020/01/31 21:53:42.9	96.950	-0.090	-0.050	1.430
2020/01/31 21:53:43.0	96.950	-0.100	-0.070	1.430
2020/01/31 21:53:43.1	96.950	-0.100	-0.090	1.430
2020/01/31 21:53:43.2	96.950	-0.100	-0.110	1.420
2020/01/31 21:53:43.3	96.950	-0.100	-0.130	1.420
2020/01/31 21:53:43.4	96.950	-0.110	-0.140	1.400
2020/01/31 21:53:43.5	96.960	-0.110	-0.160	1.390
2020/01/31 21:53:43.6	96.960	-0.110	-0.180	1.370
2020/01/31 21:53:43.7	96.970	-0.110	-0.200	1.340
2020/01/31 21:53:43.8	96.980	-0.110	-0.220	1.320
2020/01/31 21:53:43.9	96.990	-0.100	-0.240	1.290
2020/01/31 21:53:44.0	97.000	-0.100	-0.260	1.250
2020/01/31 21:53:44.1	97.020	-0.100	-0.280	1.210
2020/01/31 21:53:44.2	97.030	-0.090	-0.300	1.170
2020/01/31 21:53:44.3	97.050	-0.080	-0.310	1.130
2020/01/31 21:53:44.4	97.070	-0.080	-0.330	1.080
2020/01/31 21:53:44.5	97.080	-0.070	-0.350	1.030
2020/01/31 21:53:44.6	97.100	-0.060	-0.360	0.980
2020/01/31 21:53:44.7	97.120	-0.050	-0.380	0.930
2020/01/31 21:53:44.8	97.140	-0.030	-0.390	0.880
2020/01/31 21:53:44.9	97.160	-0.020	-0.410	0.820
2020/01/31 21:53:45.0	97.160	-0.010	-0.420	0.770
2020/01/31 21:53:45.1	97.180	0.010	-0.430	0.710
2020/01/31 21:53:45.2	97.200	0.020	-0.440	0.660
2020/01/31 21:53:45.3	97.220	0.040	-0.450	0.610
2020/01/31 21:53:45.4	97.240	0.060	-0.460	0.560
2020/01/31 21:53:45.5	97.250	0.070	-0.470	0.510
2020/01/31 21:53:45.6	97.260	0.090	-0.480	0.460
2020/01/31 21:53:45.7	97.280	0.110	-0.490	0.410
2020/01/31 21:53:45.8	97.280	0.130	-0.500	0.360
2020/01/31 21:53:45.9	97.290	0.150	-0.510	0.320
2020/01/31 21:53:46.0	97.290	0.170	-0.520	0.280
2020/01/31 21:53:46.1	97.290	0.190	-0.530	0.240
2020/01/31 21:53:46.2	97.290	0.200	-0.550	0.200
2020/01/31 21:53:46.3	97.290	0.220	-0.560	0.170
2020/01/31 21:53:46.4	97.280	0.240	-0.570	0.140
2020/01/31 21:53:46.5	97.280	0.260	-0.580	0.120
2020/01/31 21:53:46.6	97.270	0.280	-0.590	0.100
2020/01/31 21:53:46.7	97.250	0.290	-0.600	0.080
2020/01/31 21:53:46.8	97.240	0.310	-0.610	0.060
2020/01/31 21:53:46.9	97.220	0.330	-0.630	0.050
2020/01/31 21:53:47.0	97.180	0.340	-0.640	0.040
2020/01/31 21:53:47.1	97.160	0.350	-0.650	0.030
2020/01/31 21:53:47.2	97.140	0.360	-0.650	0.030
2020/01/31 21:53:47.3	97.110	0.370	-0.660	0.020
2020/01/31 21:53:47.4	97.090	0.380	-0.660	0.020
2020/01/31 21:53:47.5	97.060	0.390	-0.670	0.030
2020/01/31 21:53:47.6	97.030	0.400	-0.670	0.030
2020/01/31 21:53:47.7	97.000	0.400	-0.660	0.040
2020/01/31 21:53:47.8	96.970	0.400	-0.660	0.050
2020/01/31 21:53:47.9	96.950	0.410	-0.650	0.050
2020/01/31 21:53:48.0	96.920	0.400	-0.640	0.060
2020/01/31 21:53:48.1	96.890	0.400	-0.630	0.070
2020/01/31 21:53:48.2	96.870	0.400	-0.610	0.080
2020/01/31 21:53:48.3	96.840	0.390	-0.590	0.090
2020/01/31 21:53:48.4	96.820	0.380	-0.570	0.110
2020/01/31 21:53:48.5	96.800	0.370	-0.540	0.120
2020/01/31 21:53:48.6	96.780	0.350	-0.510	0.130
2020/01/31 21:53:48.7	96.760	0.340	-0.480	0.140
2020/01/31 21:53:48.8	96.740	0.320	-0.450	0.150
2020/01/31 21:53:48.9	96.720	0.300	-0.410	0.150
2020/01/31 21:53:49.0	96.720	0.270	-0.370	0.170
2020/01/31 21:53:49.1	96.710	0.250	-0.330	0.170
2020/01/31 21:53:49.2	96.700	0.220	-0.280	0.180
2020/01/31 21:53:49.3	96.700	0.190	-0.230	0.180
2020/01/31 21:53:49.4	96.690	0.160	-0.180	0.190
2020/01/31 21:53:49.5	96.690	0.130	-0.130	0.190
2020/01/31 21:53:49.6	96.680	0.100	-0.080	0.190
2020/01/31 21:53:49.7	96.680	0.070	-0.030	0.200
2020/01/31 21:53:49.8	96.680	0.040	0.030	0.200
2020/01/31 21:53:49.9	96.690	0.000	0.080	0.200
2020/01/31 21:53:50.0	96.700	-0.030	0.140	0.200
2020/01/31 21:53:50.1	96.700	-0.070	0.190	0.200
2020/01/31 21:53:50.2	96.710	-0.100	0.250	0.200
2020/01/31 21:53:50.3	96.720	-0.140	0.300	0.200
2020/01/31 21:53:50.4	96.740	-0.170	0.350	0.200
2020/01/31 21:53:50.5	96.750	-0.200	0.400	0.200
2020/01/31 21:53:50.6	96.770	-0.240	0.440	0.190
2020/01/31 21:53:50.7	96.790	-0.270	0.480	0.190
2020/01/31 21:53:50.8	96.810	-0.300	0.520	0.190
2020/01/31 21:53:50.9	96.830	-0.330	0.560	0.180
2020/01/31 21:53:51.0	96.850	-0.350	0.590	0.180
2020/01/31 21:53:51.1	96.880	-0.380	0.620	0.180
2020/01/31 21:53:51.2	96.910	-0.400	0.640	0.170
2020/01/31 21:53:51.3	96.940	-0.420	0.660	0.170
2020/01/31 21:53:51.4	96.970	-0.440	0.680	0.170
2020/01/31 21:53:51.5	97.000	-0.460	0.690	0.170
2020/01/31 21:53:51.6	97.030	-0.470	0.690	0.170
2020/01/31 21:53:51.7	97.050	-0.480	0.690	0.170
2020/01/31 21:53:51.8	97.080	-0.490	0.690	0.170
2020/01/31 21:53:51.9	97.110	-0.500	0.680	0.180
2020/01/31 21:53:52.0	97.140	-0.500	0.660	0.190
2020/01/31 21:53:52.1	97.170	-0.500	0.640	0.200
2020/01/31 21:53:52.2	97.190	-0.500	0.620	0.210
2020/01/31 21:53:52.3	97.210	-0.500	0.600	0.230
2020/01/31 21:53:52.4	97.230	-0.490	0.570	0.250
2020/01/31 21:53:52.5	97.250	-0.480	0.530	0.270
2020/01/31 21:53:52.6	97.260	-0.470	0.500	0.300
2020/01/31 21:53:52.7	97.270	-0.460	0.460	0.330
2020/01/31 21:53:52.8	97.270	-0.450	0.410	0.360
2020/01/31 21:53:52.9	97.280	-0.430	0.370	0.400
2020/01/31 21:53:53.0	97.280	-0.420	0.320	0.440
2020/01/31 21:53:53.1	97.270	-0.400	0.270	0.480
2020/01/31 21:53:53.2	97.270	-0.380	0.220	0.530
2020/01/31 21:53:53.3	97.260	-0.360	0.160	0.570
2020/01/31 21:53:53.4	97.250	-0.340	0.110	0.620
2020/01/31 21:53:53.5	97.230	-0.320	0.050	0.660
2020/01/31 21:53:53.6	97.220	-0.300	-0.010	0.710
2020/01/31 21:53:53.7	97.200	-0.280	-0.070	0.760
2020/01/31 21:53:53.8	97.190	-0.260	-0.130	0.800
2020/01/31 21:53:53.9	97.170	-0.240	-0.190	0.850
2020/01/31 21:53:54.0	97.150	-0.220	-0.250	0.890
2020/01/31 21:53:54.1	97.130	-0.200	-0.310	0.940
2020/01/31 21:53:54.2	97.120	-0.180	-0.370	0.980
2020/01/31 21:53:54.3	97.100	-0.160	-0.420	1.020
2020/01/31 21:53:54.4	97.080	-0.150	-0.480	1.060
2020/01/31 21:53:54.5	97.060	-0.130	-0.540	1.100
2020/01/31 21:53:54.6	97.050	-0.120	-0.590	1.140
2020/01/31 21:53:54.7	97.030	-0.100	-0.650	1.170
2020/01/31 21:53:54.8	97.010	-0.090	-0.700	1.210
2020/01/31 21:53:54.9	97.000	-0.070	-0.750	1.240
2020/01/31 21:53:55.0	96.990	-0.060	-0.800	1.270
2020/01/31 21:53:55.1	96.970	-0.050	-0.840	1.300
2020/01/31 21:53:55.2	96.960	-0.040	-0.880	1.330
2020/01/31 21:53:55.3	96.950	-0.020	-0.920	1.350
2020/01/31 21:53:55.4	96.940	-0.010	-0.950	1.380
2020/01/31 21:53:55.5	96.920	-0.000	-0.980	1.410
2020/01/31 21:53:55.6	96.910	0.010	-1.000	1.430
2020/01/31 21:53:55.7	96.900	0.020	-1.020	1.450
2020/01/31 21:53:55.8	96.890	0.030	-1.040	1.470
2020/01/31 21:53:55.9	96.880	0.040	-1.050	1.490
2020/01/31 21:53:56.0	96.880	0.050	-1.050	1.510
2020/01/31 21:53:56.1	96.870	0.060	-1.060	1.530
2020/01/31 21:53:56.2	96.860	0.070	-1.050	1.540
2020/01/31 21:53:56.3	96.860	0.080	-1.050	1.550
2020/01/31 21:53:56.4	96.850	0.100	-1.030	1.560
2020/01/31 21:53:56.5	96.840	0.110	-1.020	1.560
2020/01/31 21:53:56.6	96.840	0.120	-1.000	1.560
2020/01/31 21:53:56.7	96.840	0.140	-0.970	1.560
2020/01/31 21:53:56.8	96.830	0.150	-0.940	1.560
2020/01/31 21:53:56.9	96.830	0.170	-0.910	1.550
2020/01/31 21:53:57.0	96.820	0.180	-0.870	1.530
2020/01/31 21:53:57.1	96.820	0.200	-0.830	1.510
2020/01/31 21:53:57.2	96.820	0.220	-0.780	1.490
2020/01/31 21:53:57.3	96.820	0.240	-0.740	1.470
2020/01/31 21:53:57.4	96.820	0.260	-0.690	1.440
2020/01/31 21:53:57.5	96.830	0.270	-0.630	1.410
2020/01/31 21:53:57.6	96.830	0.290	-0.580	1.370
2020/01/31 21:53:57.7	96.830	0.320	-0.530	1.340
2020/01/31 21:53:57.8	96.840	0.340	-0.470	1.300
2020/01/31 21:53:57.9	96.840	0.360	-0.410	1.260
2020/01/31 21:53:58.0	96.860	0.380	-0.350	1.220
2020/01/31 21:53:58.1	96.870	0.400	-0.300	1.170
2020/01/31 21:53:58.2	96.870	0.420	-0.240	1.130
2020/01/31 21:53:58.3	96.880	0.440	-0.190	1.080
2020/01/31 21:53:58.4	96.880	0.460	-0.140	1.030
2020/01/31 21:53:58.5	96.880	0.480	-0.090	0.980
2020/01/31 21:53:58.6	96.890	0.500	-0.040	0.920
2020/01/31 21:53:58.7	96.890	0.510	0.010	0.870
2020/01/31 21:53:58.8	96.900	0.530	0.050	0.810
2020/01/31 21:53:58.9	96.900	0.540	0.090	0.750
2020/01/31 21:53:59.0	96.910	0.550	0.130	0.690
2020/01/31 21:53:59.1	96.910	0.560	0.160	0.630
2020/01/31 21:53:59.2	96.920	0.570	0.190	0.580
2020/01/31 21:53:59.3	96.920	0.580	0.220	0.520
2020/01/31 21:53:59.4	96.920	0.580	0.240	0.460
2020/01/31 21:53:59.5	96.930	0.580	0.260	0.400
2020/01/31 21:53:59.6	96.930	0.580	0.280	0.340
2020/01/31 21:53:59.7	96.930	0.570	0.300	0.280
2020/01/31 21:53:59.8	96.940	0.560	0.310	0.220
2020/01/31 21:53:59.9	96.940	0.550	0.320	0.170
2020/01/31 21:54:00.0	96.930	0.540	0.320	0.110
2020/01/31 21:54:00.1	96.930	0.520	0.330	0.060
2020/01/31 21:54:00.2	96.930	0.500	0.330	0.010
2020/01/31 21:54:00.3	96.930	0.470	0.330	-0.040
2020/01/31 21:54:00.4	96.930	0.450	0.330	-0.080
2020/01/31 21:54:00.5	96.930	0.420	0.320	-0.130
2020/01/31 21:54:00.6	96.920	0.380	0.320	-0.160
2020/01/31 21:54:00.7	96.920	0.350	0.320	-0.200
2020/01/31 21:54:00.8	96.910	0.310	0.310	-0.230
2020/01/31 21:54:00.9	96.910	0.270	0.310	-0.260
2020/01/31 21:54:01.0	96.890	0.230	0.300	-0.290
2020/01/31 21:54:01.1	96.880	0.180	0.300	-0.310
2020/01/31 21:54:01.2	96.870	0.140	0.290	-0.330
2020/01/31 21:54:01.3	96.870	0.090	0.280	-0.350
2020/01/31 21:54:01.4	96.860	0.040	0.280	-0.350
2020/01/31 21:54:01.5	96.860	-0.000	0.270	-0.360
2020/01/31 21:54:01.6	96.850	-0.050	0.260	-0.360
2020/01/31 21:54:01.7	96.850	-0.100	0.260	-0.360
2020/01/31 21:54:01.8	96.840	-0.150	0.250	-0.350
2020/01/31 21:54:01.9	96.830	-0.190	0.240	-0.340
2020/01/31 21:54:02.0	96.820	-0.240	0.240	-0.330
2020/01/31 21:54:02.1	96.820	-0.290	0.230	-0.320
2020/01/31 21:54:02.2	96.810	-0.330	0.220	-0.290
2020/01/31 21:54:02.3	96.810	-0.370	0.210	-0.270
2020/01/31 21:54:02.4	96.810	-0.410	0.200	-0.250
2020/01/31 21:54:02.5	96.800	-0.450	0.190	-0.220
2020/01/31 21:54:02.6	96.800	-0.490	0.180	-0.180
2020/01/31 21:54:02.7	96.790	-0.520	0.170	-0.150
2020/01/31 21:54:02.8	96.780	-0.550	0.150	-0.120
2020/01/31 21:54:02.9	96.780	-0.580	0.140	-0.080
2020/01/31 21:54:03.0	96.770	-0.610	0.120	-0.040
2020/01/31 21:54:03.1	96.760	-0.630	0.100	0.000
2020/01/31 21:54:03.2	96.750	-0.650	0.080	0.050
2020/01/31 21:54:03.3	96.740	-0.670	0.050	0.090
2020/01/31 21:54:03.4	96.730	-0.680	0.030	0.130
2020/01/31 21:54:03.5	96.720	-0.690	0.000	0.180
2020/01/31 21:54:03.6	96.710	-0.700	-0.020	0.220
2020/01/31 21:54:03.7	96.700	-0.700	-0.050	0.270
2020/01/31 21:54:03.8	96.690	-0.700	-0.080	0.320
2020/01/31 21:54:03.9	96.680	-0.700	-0.110	0.360
2020/01/31 21:54:04.0	96.680	-0.690	-0.150	0.410
2020/01/31 21:54:04.1	96.670	-0.680	-0.180	0.460
2020/01/31 21:54:04.2	96.660	-0.670	-0.210	0.500
2020/01/31 21:54:04.3	96.640	-0.650	-0.250	0.550
2020/01/31 21:54:04.4	96.630	-0.630	-0.280	0.600
2020/01/31 21:54:04.5	96.620	-0.610	-0.320	0.640
2020/01/31 21:54:04.6	96.610	-0.590	-0.360	0.690
2020/01/31 21:54:04.7	96.600	-0.560	-0.390	0.730
2020/01/31 21:54:04.8	96.590	-0.530	-0.430	0.780
2020/01/31 21:54:04.9	96.580	-0.500	-0.470	0.820
2020/01/31 21:54:05.0	96.580	-0.470	-0.500	0.870
2020/01/31 21:54:05.1	96.580	-0.440	-0.540	0.910
2020/01/31 21:54:05.2	96.570	-0.400	-0.570	0.950
2020/01/31 21:54:05.3	96.570	-0.360	-0.600	0.990
2020/01/31 21:54:05.4	96.570	-0.330	-0.640	1.020
2020/01/31 21:54:05.5	96.570	-0.290	-0.670	1.060
2020/01/31 21:54:05.6	96.570	-0.250	-0.700	1.100
2020/01/31 21:54:05.7	96.580	-0.210	-0.730	1.130
2020/01/31 21:54:05.8	96.580	-0.170	-0.760	1.160
2020/01/31 21:54:05.9	96.590	-0.140	-0.780	1.190
2020/01/31 21:54:06.0	96.630	-0.100	-0.810	1.220
2020/01/31 21:54:06.1	96.640	-0.060	-0.830	1.250
2020/01/31 21:54:06.2	96.650	-0.020	-0.850	1.280
2020/01/31 21:54:06.3	96.660	0.010	-0.870	1.300
2020/01/31 21:54:06.4	96.670	0.040	-0.880	1.330
2020/01/31 21:54:06.5	96.680	0.080	-0.890	1.350
2020/01/31 21:54:06.6	96.690	0.110	-0.900	1.380
2020/01/31 21:54:06.7	96.700	0.140	-0.910	1.400
2020/01/31 21:54:06.8	96.720	0.160	-0.910	1.420
2020/01/31 21:54:06.9	96.730	0.190	-0.910	1.430
2020/01/31 21:54:07.0	96.740	0.210	-0.910	1.450
2020/01/31 21:54:07.1	96.760	0.230	-0.900	1.470
2020/01/31 21:54:07.2	96.770	0.250	-0.890	1.480
2020/01/31 21:54:07.3	96.780	0.270	-0.880	1.490
2020/01/31 21:54:07.4	96.790	0.280	-0.860	1.500
2020/01/31 21:54:07.5	96.790	0.290	-0.840	1.510
2020/01/31 21:54:07.6	96.800	0.300	-0.810	1.520
2020/01/31 21:54:07.7	96.810	0.310	-0.780	1.520
2020/01/31 21:54:07.8	96.820	0.320	-0.750	1.520
2020/01/31 21:54:07.9	96.820	0.320	-0.710	1.520
2020/01/31 21:54:08.0	96.820	0.320	-0.670	1.510
2020/01/31 21:54:08.1	96.820	0.320	-0.620	1.500
2020/01/31 21:54:08.2	96.820	0.320	-0.580	1.490
2020/01/31 21:54:08.3	96.820	0.310	-0.520	1.470
2020/01/31 21:54:08.4	96.820	0.310	-0.470	1.460
2020/01/31 21:54:08.5	96.820	0.300	-0.410	1.440
2020/01/31 21:54:08.6	96.820	0.290	-0.340	1.420
2020/01/31 21:54:08.7	96.820	0.270	-0.280	1.390
2020/01/31 21:54:08.8	96.810	0.260	-0.210	1.360
2020/01/31 21:54:08.9	96.810	0.250	-0.140	1.330
2020/01/31 21:54:09.0	96.780	0.230	-0.060	1.300
2020/01/31 21:54:09.1	96.770	0.220	0.010	1.270
2020/01/31 21:54:09.2	96.770	0.200	0.080	1.230
2020/01/31 21:54:09.3	96.760	0.180	0.160	1.190
2020/01/31 21:54:09.4	96.750	0.160	0.230	1.150
2020/01/31 21:54:09.5	96.740	0.140	0.310	1.100
2020/01/31 21:54:09.6	96.730	0.120	0.380	1.050
2020/01/31 21:54:09.7	96.710	0.100	0.460	1.010
2020/01/31 21:54:09.8	96.700	0.080	0.520	0.950
2020/01/31 21:54:09.9	96.690	0.060	0.590	0.900
2020/01/31 21:54:10.0	96.670	0.040	0.660	0.840
2020/01/31 21:54:10.1	96.660	0.020	0.710	0.790
2020/01/31 21:54:10.2	96.640	0.000	0.770	0.730
2020/01/31 21:54:10.3	96.630	-0.010	0.820	0.680
2020/01/31 21:54:10.4	96.610	-0.030	0.860	0.620
2020/01/31 21:54:10.5	96.600	-0.040	0.900	0.560
2020/01/31 21:54:10.6	96.580	-0.060	0.930	0.500
2020/01/31 21:54:10.7	96.560	-0.070	0.950	0.450
2020/01/31 21:54:10.8	96.550	-0.080	0.960	0.390
2020/01/31 21:54:10.9	96.530	-0.090	0.970	0.340
2020/01/31 21:54:11.0	96.500	-0.090	0.970	0.280
2020/01/31 21:54:11.1	96.490	-0.100	0.960	0.230
2020/01/31 21:54:11.2	96.470	-0.100	0.940	0.170
2020/01/31 21:54:11.3	96.460	-0.100	0.910	0.120
2020/01/31 21:54:11.4	96.440	-0.100	0.880	0.070
2020/01/31 21:54:11.5	96.430	-0.090	0.830	0.020
2020/01/31 21:54:11.6	96.420	-0.090	0.780	-0.030
2020/01/31 21:54:11.7	96.400	-0.080	0.720	-0.080
2020/01/31 21:54:11.8	96.390	-0.070	0.650	-0.130
2020/01/31 21:54:11.9	96.390	-0.050	0.580	-0.180
2020/01/31 21:54:12.0	96.390	-0.040	0.500	-0.220
2020/01/31 21:54:12.1	96.390	-0.020	0.420	-0.270
2020/01/31 21:54:12.2	96.380	-0.010	0.330	-0.310
2020/01/31 21:54:12.3	96.380	0.010	0.240	-0.350
2020/01/31 21:54:12.4	96.380	0.030	0.140	-0.390
2020/01/31 21:54:12.5	96.380	0.050	0.050	-0.430
2020/01/31 21:54:12.6	96.380	0.070	-0.050	-0.470
2020/01/31 21:54:12.7	96.390	0.090	-0.150	-0.500
2020/01/31 21:54:12.8	96.390	0.110	-0.250	-0.540
2020/01/31 21:54:12.9	96.400	0.130	-0.350	-0.570
2020/01/31 21:54:13.0	96.400	0.150	-0.440	-0.610
2020/01/31 21:54:13.1	96.420	0.160	-0.540	-0.640
2020/01/31 21:54:13.2	96.430	0.180	-0.630	-0.670
2020/01/31 21:54:13.3	96.440	0.200	-0.720	-0.700
2020/01/31 21:54:13.4	96.460	0.210	-0.800	-0.730
2020/01/31 21:54:13.5	96.470	0.230	-0.880	-0.750
2020/01/31 21:54:13.6	96.490	0.240	-0.960	-0.780
2020/01/31 21:54:13.7	96.510	0.250	-1.030	-0.800
2020/01/31 21:54:13.8	96.530	0.260	-1.090	-0.820
2020/01/31 21:54:13.9	96.540	0.270	-1.150	-0.840
2020/01/31 21:54:14.0	96.570	0.280	-1.210	-0.850
2020/01/31 21:54:14.1	96.590	0.290	-1.250	-0.870
2020/01/31 21:54:14.2	96.610	0.290	-1.290	-0.870
2020/01/31 21:54:14.3	96.620	0.300	-1.320	-0.880
2020/01/31 21:54:14.4	96.640	0.300	-1.350	-0.880
2020/01/31 21:54:14.5	96.660	0.300	-1.370	-0.880
2020/01/31 21:54:14.6	96.670	0.300	-1.380	-0.880
2020/01/31 21:54:14.7	96.690	0.300	-1.380	-0.870
2020/01/31 21:54:14.8	96.710	0.300	-1.380	-0.860
2020/01/31 21:54:14.9	96.720	0.290	-1.370	-0.840
2020/01/31 21:54:15.0	96.730	0.290	-1.350	-0.820
2020/01/31 21:54:15.1	96.740	0.280	-1.320	-0.790
2020/01/31 21:54:15.2	96.750	0.270	-1.290	-0.760
2020/01/31 21:54:15.3	96.760	0.270	-1.250	-0.730
2020/01/31 21:54:15.4	96.770	0.260	-1.210	-0.690
2020/01/31 21:54:15.5	96.770	0.250	-1.160	-0.650
2020/01/31 21:54:15.6	96.780	0.240	-1.100	-0.610
2020/01/31 21:54:15.7	96.780	0.220	-1.040	-0.560
2020/01/31 21:54:15.8	96.790	0.210	-0.970	-0.510
2020/01/31 21:54:15.9	96.790	0.200	-0.900	-0.450
2020/01/31 21:54:16.0	96.790	0.180	-0.830	-0.390
2020/01/31 21:54:16.1	96.800	0.170	-0.750	-0.330
2020/01/31 21:54:16.2	96.800	0.150	-0.660	-0.260
2020/01/31 21:54:16.3	96.800	0.140	-0.580	-0.190
2020/01/31 21:54:16.4	96.800	0.120	-0.490	-0.120
2020/01/31 21:54:16.5	96.800	0.100	-0.400	-0.050
2020/01/31 21:54:16.6	96.790	0.080	-0.310	0.020
2020/01/31 21:54:16.7	96.790	0.060	-0.220	0.100
2020/01/31 21:54:16.8	96.790	0.040	-0.130	0.180
2020/01/31 21:54:16.9	96.790	0.020	-0.050	0.260
2020/01/31 21:54:17.0	96.790	-0.010	0.040	0.340
2020/01/31 21:54:17.1	96.780	-0.030	0.130	0.420
2020/01/31 21:54:17.2	96.780	-0.050	0.210	0.500
2020/01/31 21:54:17.3	96.780	-0.080	0.290	0.580
2020/01/31 21:54:17.4	96.780	-0.100	0.370	0.660
2020/01/31 21:54:17.5	96.780	-0.120	0.440	0.740
2020/01/31 21:54:17.6	96.770	-0.150	0.510	0.830
2020/01/31 21:54:17.7	96.770	-0.170	0.580	0.910
2020/01/31 21:54:17.8	96.770	-0.200	0.640	0.990
2020/01/31 21:54:17.9	96.770	-0.220	0.690	1.070
2020/01/31 21:54:18.0	96.750	-0.240	0.740	1.140
2020/01/31 21:54:18.1	96.750	-0.270	0.790	1.220
2020/01/31 21:54:18.2	96.740	-0.290	0.830	1.300
2020/01/31 21:54:18.3	96.740	-0.310	0.860	1.370
2020/01/31 21:54:18.4	96.740	-0.330	0.880	1.450
2020/01/31 21:54:18.5	96.730	-0.350	0.900	1.520
2020/01/31 21:54:18.6	96.730	-0.370	0.920	1.590
2020/01/31 21:54:18.7	96.720	-0.390	0.920	1.650
2020/01/31 21:54:18.8	96.720	-0.410	0.930	1.720
2020/01/31 21:54:18.9	96.710	-0.420	0.920	1.780
2020/01/31 21:54:19.0	96.710	-0.430	0.910	1.840
2020/01/31 21:54:19.1	96.700	-0.440	0.900	1.890
2020/01/31 21:54:19.2	96.700	-0.450	0.880	1.940
2020/01/31 21:54:19.3	96.690	-0.460	0.850	1.990
2020/01/31 21:54:19.4	96.690	-0.470	0.820	2.040
2020/01/31 21:54:19.5	96.690	-0.470	0.780	2.080
2020/01/31 21:54:19.6	96.680	-0.470	0.740	2.120
2020/01/31 21:54:19.7	96.680	-0.470	0.700	2.150
2020/01/31 21:54:19.8	96.680	-0.470	0.650	2.180
2020/01/31 21:54:19.9	96.670	-0.470	0.600	2.210
2020/01/31 21:54:20.0	96.670	-0.460	0.550	2.230
2020/01/31 21:54:20.1	96.670	-0.460	0.490	2.250
2020/01/31 21:54:20.2	96.670	-0.450	0.430	2.270
2020/01/31 21:54:20.3	96.660	-0.430	0.360	2.280
2020/01/31 21:54:20.4	96.660	-0.420	0.300	2.290
2020/01/31 21:54:20.5	96.660	-0.400	0.230	2.300
2020/01/31 21:54:20.6	96.660	-0.390	0.170	2.300
2020/01/31 21:54:20.7	96.660	-0.370	0.100	2.300
2020/01/31 21:54:20.8	96.660	-0.350	0.030	2.290
2020/01/31 21:54:20.9	96.660	-0.330	-0.040	2.280
2020/01/31 21:54:21.0	96.650	-0.300	-0.110	2.270
2020/01/31 21:54:21.1	96.660	-0.280	-0.180	2.260
2020/01/31 21:54:21.2	96.660	-0.250	-0.250	2.240
2020/01/31 21:54:21.3	96.660	-0.220	-0.310	2.220
2020/01/31 21:54:21.4	96.670	-0.200	-0.380	2.190
2020/01/31 21:54:21.5	96.670	-0.170	-0.450	2.160
2020/01/31 21:54:21.6	96.680	-0.140	-0.510	2.130
2020/01/31 21:54:21.7	96.690	-0.110	-0.570	2.100
2020/01/31 21:54:21.8	96.700	-0.080	-0.630	2.070
2020/01/31 21:54:21.9	96.710	-0.050	-0.680	2.030
2020/01/31 21:54:22.0	96.710	-0.010	-0.740	1.980
2020/01/31 21:54:22.1	96.730	0.020	-0.790	1.940
2020/01/31 21:54:22.2	96.740	0.050	-0.840	1.900
2020/01/31 21:54:22.3	96.750	0.080	-0.880	1.850
2020/01/31 21:54:22.4	96.760	0.110	-0.920	1.800
2020/01/31 21:54:22.5	96.780	0.140	-0.960	1.750
2020/01/31 21:54:22.6	96.790	0.170	-1.000	1.700
2020/01/31 21:54:22.7	96.800	0.190	-1.030	1.650
2020/01/31 21:54:22.8	96.820	0.220	-1.050	1.590
2020/01/31 21:54:22.9	96.830	0.250	-1.070	1.540
2020/01/31 21:54:23.0	96.820	0.270	-1.090	1.490
2020/01/31 21:54:23.1	96.830	0.290	-1.110	1.430
2020/01/31 21:54:23.2	96.840	0.320	-1.110	1.380
2020/01/31 21:54:23.3	96.840	0.340	-1.120	1.320
2020/01/31 21:54:23.4	96.840	0.350	-1.120	1.260
2020/01/31 21:54:23.5	96.850	0.370	-1.120	1.210
2020/01/31 21:54:23.6	96.840	0.390	-1.110	1.150
2020/01/31 21:54:23.7	96.840	0.400	-1.090	1.090
2020/01/31 21:54:23.8	96.840	0.410	-1.080	1.040
2020/01/31 21:54:23.9	96.830	0.420	-1.060	0.980
2020/01/31 21:54:24.0	96.820	0.430	-1.030	0.920
2020/01/31 21:54:24.1	96.810	0.440	-1.000	0.860
2020/01/31 21:54:24.2	96.800	0.450	-0.970	0.810
2020/01/31 21:54:24.3	96.790	0.450	-0.930	0.750
2020/01/31 21:54:24.4	96.770	0.460	-0.900	0.700
2020/01/31 21:54:24.5	96.760	0.460	-0.850	0.640
2020/01/31 21:54:24.6	96.740	0.460	-0.810	0.590
2020/01/31 21:54:24.7	96.720	0.460	-0.760	0.530
2020/01/31 21:54:24.8	96.710	0.460	-0.710	0.480
2020/01/31 21:54:24.9	96.690	0.460	-0.660	0.420
2020/01/31 21:54:25.0	96.690	0.450	-0.610	0.370
2020/01/31 21:54:25.1	96.670	0.450	-0.550	0.320
2020/01/31 21:54:25.2	96.660	0.440	-0.500	0.260
2020/01/31 21:54:25.3	96.640	0.440	-0.440	0.210
2020/01/31 21:54:25.4	96.630	0.430	-0.380	0.160
2020/01/31 21:54:25.5	96.610	0.420	-0.330	0.120
2020/01/31 21:54:25.6	96.600	0.410	-0.270	0.070
2020/01/31 21:54:25.7	96.590	0.400	-0.210	0.020
2020/01/31 21:54:25.8	96.580	0.390	-0.160	-0.020
2020/01/31 21:54:25.9	96.570	0.380	-0.100	-0.060
2020/01/31 21:54:26.0	96.560	0.370	-0.040	-0.110
2020/01/31 21:54:26.1	96.550	0.360	0.010	-0.150
2020/01/31 21:54:26.2	96.550	0.350	0.060	-0.180
2020/01/31 21:54:26.3	96.550	0.330	0.110	-0.220
2020/01/31 21:54:26.4	96.550	0.320	0.160	-0.250
2020/01/31 21:54:26.5	96.550	0.300	0.210	-0.280
2020/01/31 21:54:26.6	96.550	0.290	0.250	-0.310
2020/01/31 21:54:26.7	96.560	0.270	0.290	-0.340
2020/01/31 21:54:26.8	96.560	0.260	0.330	-0.360
2020/01/31 21:54:26.9	96.560	0.240	0.360	-0.380
2020/01/31 21:54:27.0	96.570	0.230	0.390	-0.400
2020/01/31 21:54:27.1	96.570	0.210	0.420	-0.410
2020/01/31 21:54:27.2	96.580	0.190	0.440	-0.420
2020/01/31 21:54:27.3	96.590	0.170	0.460	-0.430
2020/01/31 21:54:27.4	96.590	0.150	0.480	-0.430
2020/01/31 21:54:27.5	96.600	0.130	0.500	-0.430
2020/01/31 21:54:27.6	96.610	0.110	0.510	-0.430
2020/01/31 21:54:27.7	96.610	0.090	0.520	-0.420
2020/01/31 21:54:27.8	96.620	0.070	0.520	-0.410
2020/01/31 21:54:27.9	96.620	0.050	0.520	-0.400
2020/01/31 21:54:28.0	96.620	0.030	0.520	-0.380
2020/01/31 21:54:28.1	96.620	0.000	0.520	-0.360
2020/01/31 21:54:28.2	96.630	-0.020	0.510	-0.340
2020/01/31 21:54:28.3	96.630	-0.040	0.500	-0.310
2020/01/31 21:54:28.4	96.630	-0.070	0.490	-0.290
2020/01/31 21:54:28.5	96.630	-0.090	0.480	-0.260
2020/01/31 21:54:28.6	96.630	-0.120	0.460	-0.220
2020/01/31 21:54:28.7	96.630	-0.150	0.450	-0.190
2020/01/31 21:54:28.8	96.620	-0.170	0.430	-0.160
2020/01/31 21:54:28.9	96.620	-0.200	0.410	-0.120
2020/01/31 21:54:29.0	96.620	-0.220	0.380	-0.080
2020/01/31 21:54:29.1	96.620	-0.250	0.360	-0.040
2020/01/31 21:54:29.2	96.620	-0.280	0.330	-0.010
2020/01/31 21:54:29.3	96.610	-0.300	0.300	0.030
2020/01/31 21:54:29.4	96.610	-0.330	0.270	0.070
2020/01/31 21:54:29.5	96.600	-0.350	0.250	0.110
2020/01/31 21:54:29.6	96.600	-0.370	0.210	0.150
2020/01/31 21:54:29.7	96.600	-0.400	0.180	0.180
2020/01/31 21:54:29.8	96.590	-0.420	0.150	0.220
2020/01/31 21:54:29.9	96.590	-0.440	0.120	0.260
2020/01/31 21:54:30.0	96.580	-0.460	0.090	0.290
2020/01/31 21:54:30.1	96.580	-0.470	0.050	0.330
2020/01/31 21:54:30.2	96.580	-0.490	0.020	0.360
2020/01/31 21:54:30.3	96.580	-0.510	-0.010	0.400
2020/01/31 21:54:30.4	96.580	-0.520	-0.050	0.430
2020/01/31 21:54:30.5	96.580	-0.530	-0.080	0.470
2020/01/31 21:54:30.6	96.580	-0.540	-0.110	0.500
2020/01/31 21:54:30.7	96.580	-0.540	-0.140	0.540
2020/01/31 21:54:30.8	96.580	-0.550	-0.180	0.580
2020/01/31 21:54:30.9	96.580	-0.550	-0.200	0.620
2020/01/31 21:54:31.0	96.580	-0.550	-0.240	0.650
2020/01/31 21:54:31.1	96.580	-0.550	-0.270	0.690
2020/01/31 21:54:31.2	96.580	-0.550	-0.290	0.740
2020/01/31 21:54:31.3	96.580	-0.540	-0.320	0.780
2020/01/31 21:54:31.4	96.580	-0.530	-0.340	0.830
2020/01/31 21:54:31.5	96.580	-0.520	-0.370	0.870
2020/01/31 21:54:31.6	96.580	-0.500	-0.390	0.920
2020/01/31 21:54:31.7	96.580	-0.490	-0.410	0.970
2020/01/31 21:54:31.8	96.570	-0.470	-0.430	1.020
2020/01/31 21:54:31.9	96.570	-0.450	-0.450	1.070
2020/01/31 21:54:32.0	96.580	-0.430	-0.460	1.120
2020/01/31 21:54:32.1	96.570	-0.400	-0.480	1.180
2020/01/31 21:54:32.2	96.570	-0.380	-0.500	1.220
2020/01/31 21:54:32.3	96.570	-0.350	-0.510	1.270
2020/01/31 21:54:32.4	96.560	-0.320	-0.530	1.320
2020/01/31 21:54:32.5	96.560	-0.290	-0.540	1.370
2020/01/31 21:54:32.6	96.560	-0.250	-0.560	1.410
2020/01/31 21:54:32.7	96.550	-0.220	-0.570	1.450
2020/01/31 21:54:32.8	96.550	-0.190	-0.580	1.490
2020/01/31 21:54:32.9	96.550	-0.150	-0.590	1.520
2020/01/31 21:54:33.0	96.550	-0.110	-0.610	1.550
2020/01/31 21:54:33.1	96.550	-0.080	-0.620	1.580
2020/01/31 21:54:33.2	96.550	-0.040	-0.630	1.610
2020/01/31 21:54:33.3	96.550	-0.000	-0.640	1.630
2020/01/31 21:54:33.4	96.550	0.040	-0.650	1.640
2020/01/31 21:54:33.5	96.560	0.070	-0.660	1.660
2020/01/31 21:54:33.6	96.560	0.110	-0.670	1.670
2020/01/31 21:54:33.7	96.560	0.150	-0.670	1.670
2020/01/31 21:54:33.8	96.560	0.180	-0.680	1.680
2020/01/31 21:54:33.9	96.570	0.220	-0.680	1.680
2020/01/31 21:54:34.0	96.560	0.250	-0.680	1.670
2020/01/31 21:54:34.1	96.570	0.290	-0.680	1.660
2020/01/31 21:54:34.2	96.570	0.320	-0.680	1.650
2020/01/31 21:54:34.3	96.570	0.350	-0.670	1.640
2020/01/31 21:54:34.4	96.570	0.380	-0.670	1.620
2020/01/31 21:54:34.5	96.570	0.400	-0.660	1.600
2020/01/31 21:54:34.6	96.570	0.430	-0.640	1.580
2020/01/31 21:54:34.7	96.570	0.450	-0.630	1.560
2020/01/31 21:54:34.8	96.570	0.470	-0.610	1.540
2020/01/31 21:54:34.9	96.570	0.490	-0.590	1.510
2020/01/31 21:54:35.0	96.570	0.500	-0.580	1.480
2020/01/31 21:54:35.1	96.570	0.510	-0.550	1.450
2020/01/31 21:54:35.2	96.560	0.520	-0.520	1.420
2020/01/31 21:54:35.3	96.560	0.530	-0.490	1.390
2020/01/31 21:54:35.4	96.550	0.530	-0.460	1.360
2020/01/31 21:54:35.5	96.540	0.540	-0.420	1.330
2020/01/31 21:54:35.6	96.540	0.540	-0.380	1.290
2020/01/31 21:54:35.7	96.530	0.530	-0.340	1.260
2020/01/31 21:54:35.8	96.510	0.530	-0.300	1.220
2020/01/31 21:54:35.9	96.500	0.520	-0.260	1.180
2020/01/31 21:54:36.0	96.490	0.510	-0.210	1.150
2020/01/31 21:54:36.1	96.470	0.490	-0.170	1.100
2020/01/31 21:54:36.2	96.460	0.480	-0.120	1.060
2020/01/31 21:54:36.3	96.440	0.460	-0.070	1.020
2020/01/31 21:54:36.4	96.430	0.440	-0.030	0.970
2020/01/31 21:54:36.5	96.410	0.420	0.020	0.930
2020/01/31 21:54:36.6	96.400	0.400	0.060	0.880
2020/01/31 21:54:36.7	96.380	0.370	0.100	0.830
2020/01/31 21:54:36.8	96.370	0.350	0.140	0.780
2020/01/31 21:54:36.9	96.350	0.320	0.180	0.720
2020/01/31 21:54:37.0	96.330	0.300	0.220	0.660
2020/01/31 21:54:37.1	96.320	0.270	0.250	0.600
2020/01/31 21:54:37.2	96.310	0.240	0.280	0.540
2020/01/31 21:54:37.3	96.300	0.220	0.310	0.480
2020/01/31 21:54:37.4	96.290	0.190	0.330	0.420
2020/01/31 21:54:37.5	96.280	0.170	0.350	0.350
2020/01/31 21:54:37.6	96.280	0.140	0.360	0.280
2020/01/31 21:54:37.7	96.270	0.120	0.370	0.210
2020/01/31 21:54:37.8	96.270	0.100	0.380	0.140
2020/01/31 21:54:37.9	96.270	0.080	0.380	0.070
2020/01/31 21:54:38.0	96.280	0.060	0.370	-0.000
2020/01/31 21:54:38.1	96.280	0.040	0.360	-0.070
2020/01/31 21:54:38.2	96.280	0.030	0.350	-0.150
2020/01/31 21:54:38.3	96.290	0.020	0.330	-0.220
2020/01/31 21:54:38.4	96.290	0.010	0.310	-0.280
2020/01/31 21:54:38.5	96.300	-0.000	0.280	-0.350
2020/01/31 21:54:38.6	96.310	-0.010	0.250	-0.420
2020/01/31 21:54:38.7	96.320	-0.010	0.220	-0.480
2020/01/31 21:54:38.8	96.330	-0.020	0.180	-0.540
2020/01/31 21:54:38.9	96.330	-0.020	0.150	-0.590
2020/01/31 21:54:39.0	96.340	-0.020	0.110	-0.640
2020/01/31 21:54:39.1	96.350	-0.020	0.070	-0.690
2020/01/31 21:54:39.2	96.360	-0.020	0.030	-0.730
2020/01/31 21:54:39.3	96.370	-0.010	-0.010	-0.770
2020/01/31 21:54:39.4	96.380	-0.010	-0.050	-0.810
2020/01/31 21:54:39.5	96.390	-0.000	-0.090	-0.840
2020/01/31 21:54:39.6	96.400	0.000	-0.130	-0.870
2020/01/31 21:54:39.7	96.410	0.010	-0.170	-0.890
2020/01/31 21:54:39.8	96.410	0.020	-0.200	-0.910
2020/01/31 21:54:39.9	96.420	0.020	-0.230	-0.920
2020/01/31 21:54:40.0	96.410	0.030	-0.260	-0.940
2020/01/31 21:54:40.1	96.420	0.030	-0.290	-0.940
2020/01/31 21:54:40.2	96.430	0.040	-0.320	-0.950
2020/01/31 21:54:40.3	96.440	0.040	-0.340	-0.950
2020/01/31 21:54:40.4	96.440	0.040	-0.360	-0.950
2020/01/31 21:54:40.5	96.450	0.040	-0.380	-0.940
2020/01/31 21:54:40.6	96.460	0.040	-0.390	-0.930
2020/01/31 21:54:40.7	96.470	0.040	-0.400	-0.920
2020/01/31 21:54:40.8	96.470	0.040	-0.400	-0.900
2020/01/31 21:54:40.9	96.480	0.040	-0.410	-0.880
2020/01/31 21:54:41.0	96.490	0.030	-0.410	-0.860
2020/01/31 21:54:41.1	96.500	0.020	-0.410	-0.840
2020/01/31 21:54:41.2	96.510	0.020	-0.400	-0.810
2020/01/31 21:54:41.3	96.520	0.010	-0.400	-0.790
2020/01/31 21:54:41.4	96.530	-0.000	-0.390	-0.760
2020/01/31 21:54:41.5	96.530	-0.010	-0.370	-0.720
2020/01/31 21:54:41.6	96.540	-0.030	-0.360	-0.690
2020/01/31 21:54:41.7	96.550	-0.040	-0.350	-0.650
2020/01/31 21:54:41.8	96.560	-0.050	-0.330	-0.610
2020/01/31 21:54:41.9	96.570	-0.070	-0.310	-0.570
2020/01/31 21:54:42.0	96.580	-0.080	-0.290	-0.530
2020/01/31 21:54:42.1	96.590	-0.100	-0.270	-0.480
2020/01/31 21:54:42.2	96.600	-0.120	-0.250	-0.430
2020/01/31 21:54:42.3	96.610	-0.140	-0.230	-0.390
2020/01/31 21:54:42.4	96.620	-0.150	-0.210	-0.330
2020/01/31 21:54:42.5	96.630	-0.170	-0.190	-0.280
2020/01/31 21:54:42.6	96.640	-0.190	-0.170	-0.230
2020/01/31 21:54:42.7	96.650	-0.210	-0.150	-0.170
2020/01/31 21:54:42.8	96.660	-0.220	-0.130	-0.110
2020/01/31 21:54:42.9	96.670	-0.240	-0.120	-0.050
2020/01/31 21:54:43.0	96.690	-0.260	-0.100	0.010
2020/01/31 21:54:43.1	96.690	-0.270	-0.090	0.070
2020/01/31 21:54:43.2	96.700	-0.290	-0.070	0.140
2020/01/31 21:54:43.3	96.710	-0.300	-0.060	0.210
2020/01/31 21:54:43.4	96.710	-0.320	-0.050	0.280
2020/01/31 21:54:43.5	96.710	-0.330	-0.040	0.350
2020/01/31 21:54:43.6	96.710	-0.340	-0.030	0.420
2020/01/31 21:54:43.7	96.710	-0.350	-0.020	0.500
2020/01/31 21:54:43.8	96.710	-0.360	-0.010	0.580
2020/01/31 21:54:43.9	96.710	-0.370	-0.010	0.660
2020/01/31 21:54:44.0	96.700	-0.380	-0.010	0.740
2020/01/31 21:54:44.1	96.690	-0.380	-0.000	0.820
2020/01/31 21:54:44.2	96.690	-0.390	-0.010	0.900
2020/01/31 21:54:44.3	96.680	-0.390	-0.010	0.990
2020/01/31 21:54:44.4	96.660	-0.390	-0.010	1.080
2020/01/31 21:54:44.5	96.650	-0.390	-0.020	1.170
2020/01/31 21:54:44.6	96.640	-0.390	-0.020	1.250
2020/01/31 21:54:44.7	96.620	-0.380	-0.030	1.340
2020/01/31 21:54:44.8	96.610	-0.380	-0.040	1.430
2020/01/31 21:54:44.9	96.590	-0.370	-0.060	1.510
2020/01/31 21:54:45.0	96.580	-0.360	-0.070	1.600
2020/01/31 21:54:45.1	96.560	-0.350	-0.090	1.680
2020/01/31 21:54:45.2	96.550	-0.340	-0.100	1.760
2020/01/31 21:54:45.3	96.530	-0.330	-0.120	1.840
2020/01/31 21:54:45.4	96.510	-0.310	-0.150	1.910
2020/01/31 21:54:45.5	96.500	-0.300	-0.170	1.990
2020/01/31 21:54:45.6	96.490	-0.280	-0.200	2.050
2020/01/31 21:54:45.7	96.470	-0.260	-0.220	2.110
2020/01/31 21:54:45.8	96.460	-0.240	-0.250	2.170
2020/01/31 21:54:45.9	96.450	-0.220	-0.280	2.230
2020/01/31 21:54:46.0	96.450	-0.200	-0.310	2.270
2020/01/31 21:54:46.1	96.440	-0.180	-0.340	2.320
2020/01/31 21:54:46.2	96.430	-0.150	-0.370	2.360
2020/01/31 21:54:46.3	96.420	-0.130	-0.400	2.390
2020/01/31 21:54:46.4	96.410	-0.100	-0.420	2.420
2020/01/31 21:54:46.5	96.400	-0.080	-0.450	2.450
2020/01/31 21:54:46.6	96.390	-0.060	-0.470	2.470
2020/01/31 21:54:46.7	96.380	-0.030	-0.500	2.480
2020/01/31 21:54:46.8	96.380	-0.010	-0.520	2.490
2020/01/31 21:54:46.9	96.370	0.010	-0.530	2.500
2020/01/31 21:54:47.0	96.370	0.040	-0.550	2.500
2020/01/31 21:54:47.1	96.360	0.060	-0.560	2.500
2020/01/31 21:54:47.2	96.350	0.080	-0.570	2.490
2020/01/31 21:54:47.3	96.350	0.100	-0.570	2.480
2020/01/31 21:54:47.4	96.340	0.120	-0.570	2.460
2020/01/31 21:54:47.5	96.330	0.140	-0.560	2.440
2020/01/31 21:54:47.6	96.330	0.150	-0.550	2.420
2020/01/31 21:54:47.7	96.320	0.170	-0.540	2.390
2020/01/31 21:54:47.8	96.310	0.180	-0.520	2.360
2020/01/31 21:54:47.9	96.310	0.190	-0.500	2.320
2020/01/31 21:54:48.0	96.300	0.200	-0.480	2.270
2020/01/31 21:54:48.1	96.290	0.210	-0.450	2.220
2020/01/31 21:54:48.2	96.280	0.220	-0.420	2.170
2020/01/31 21:54:48.3	96.280	0.220	-0.390	2.120
2020/01/31 21:54:48.4	96.270	0.230	-0.360	2.060
2020/01/31 21:54:48.5	96.260	0.230	-0.320	2.000
2020/01/31 21:54:48.6	96.260	0.240	-0.280	1.930
2020/01/31 21:54:48.7	96.250	0.240	-0.250	1.860
2020/01/31 21:54:48.8	96.240	0.240	-0.210	1.790
2020/01/31 21:54:48.9	96.240	0.250	-0.170	1.710
2020/01/31 21:54:49.0	96.230	0.250	-0.130	1.630
2020/01/31 21:54:49.1	96.230	0.250	-0.090	1.550
2020/01/31 21:54:49.2	96.220	0.250	-0.050	1.460
2020/01/31 21:54:49.3	96.210	0.250	-0.020	1.370
2020/01/31 21:54:49.4	96.210	0.250	0.010	1.280
2020/01/31 21:54:49.5	96.210	0.250	0.040	1.190
2020/01/31 21:54:49.6	96.200	0.260	0.070	1.090
2020/01/31 21:54:49.7	96.200	0.260	0.090	1.000
2020/01/31 21:54:49.8	96.190	0.260	0.110	0.900
2020/01/31 21:54:49.9	96.190	0.270	0.130	0.800
2020/01/31 21:54:50.0	96.180	0.270	0.140	0.700
2020/01/31 21:54:50.1	96.170	0.270	0.150	0.600
2020/01/31 21:54:50.2	96.170	0.280	0.150	0.500
2020/01/31 21:54:50.3	96.160	0.290	0.150	0.410
2020/01/31 21:54:50.4	96.160	0.290	0.150	0.310
2020/01/31 21:54:50.5	96.150	0.300	0.140	0.220
2020/01/31 21:54:50.6	96.150	0.310	0.130	0.130
2020/01/31 21:54:50.7	96.140	0.310	0.110	0.040
2020/01/31 21:54:50.8	96.130	0.320	0.100	-0.050
2020/01/31 21:54:50.9	96.120	0.330	0.080	-0.140
2020/01/31 21:54:51.0	96.100	0.330	0.060	-0.230
2020/01/31 21:54:51.1	96.090	0.340	0.030	-0.310
2020/01/31 21:54:51.2	96.080	0.350	0.010	-0.390
2020/01/31 21:54:51.3	96.070	0.350	-0.020	-0.470
2020/01/31 21:54:51.4	96.060	0.360	-0.050	-0.540
2020/01/31 21:54:51.5	96.050	0.360	-0.080	-0.610
2020/01/31 21:54:51.6	96.040	0.360	-0.110	-0.670
2020/01/31 21:54:51.7	96.030	0.360	-0.140	-0.740
2020/01/31 21:54:51.8	96.010	0.370	-0.160	-0.800
2020/01/31 21:54:51.9	96.000	0.370	-0.190	-0.850
2020/01/31 21:54:52.0	95.990	0.360	-0.220	-0.900
2020/01/31 21:54:52.1	95.980	0.360	-0.240	-0.950
2020/01/31 21:54:52.2	95.970	0.360	-0.270	-0.990
2020/01/31 21:54:52.3	95.960	0.350	-0.290	-1.030
2020/01/31 21:54:52.4	95.940	0.340	-0.310	-1.060
2020/01/31 21:54:52.5	95.930	0.330	-0.330	-1.090
2020/01/31 21:54:52.6	95.920	0.320	-0.340	-1.110
2020/01/31 21:54:52.7	95.910	0.310	-0.360	-1.130
2020/01/31 21:54:52.8	95.900	0.300	-0.370	-1.140
2020/01/31 21:54:52.9	95.890	0.280	-0.380	-1.150
2020/01/31 21:54:53.0	95.870	0.270	-0.390	-1.160
2020/01/31 21:54:53.1	95.860	0.250	-0.400	-1.160
2020/01/31 21:54:53.2	95.850	0.230	-0.400	-1.150
2020/01/31 21:54:53.3	95.840	0.210	-0.410	-1.150
2020/01/31 21:54:53.4	95.840	0.190	-0.410	-1.130
2020/01/31 21:54:53.5	95.830	0.170	-0.410	-1.120
2020/01/31 21:54:53.6	95.820	0.150	-0.410	-1.100
2020/01/31 21:54:53.7	95.820	0.130	-0.410	-1.080
2020/01/31 21:54:53.8	95.810	0.110	-0.400	-1.050
2020/01/31 21:54:53.9	95.810	0.080	-0.400	-1.020
2020/01/31 21:54:54.0	95.820	0.060	-0.390	-0.990
2020/01/31 21:54:54.1	95.820	0.040	-0.380	-0.960
2020/01/31 21:54:54.2	95.820	0.010	-0.380	-0.920
2020/01/31 21:54:54.3	95.820	-0.010	-0.370	-0.880
2020/01/31 21:54:54.4	95.820	-0.040	-0.350	-0.840
2020/01/31 21:54:54.5	95.820	-0.060	-0.340	-0.800
2020/01/31 21:54:54.6	95.820	-0.080	-0.320	-0.760
2020/01/31 21:54:54.7	95.820	-0.110	-0.310	-0.720
2020/01/31 21:54:54.8	95.820	-0.130	-0.290	-0.670
2020/01/31 21:54:54.9	95.820	-0.150	-0.270	-0.620
2020/01/31 21:54:55.0	95.830	-0.170	-0.250	-0.570
2020/01/31 21:54:55.1	95.830	-0.200	-0.230	-0.520
2020/01/31 21:54:55.2	95.830	-0.220	-0.210	-0.470
2020/01/31 21:54:55.3	95.830	-0.230	-0.180	-0.410
2020/01/31 21:54:55.4	95.830	-0.250	-0.150	-0.360
2020/01/31 21:54:55.5	95.830	-0.270	-0.130	-0.310
2020/01/31 21:54:55.6	95.830	-0.290	-0.100	-0.250
2020/01/31 21:54:55.7	95.830	-0.300	-0.070	-0.190
2020/01/31 21:54:55.8	95.820	-0.310	-0.040	-0.130
2020/01/31 21:54:55.9	95.820	-0.330	-0.010	-0.080
2020/01/31 21:54:56.0	95.820	-0.340	0.030	-0.010
2020/01/31 21:54:56.1	95.810	-0.350	0.060	0.050
2020/01/31 21:54:56.2	95.810	-0.360	0.090	0.110
2020/01/31 21:54:56.3	95.800	-0.360	0.120	0.170
2020/01/31 21:54:56.4	95.790	-0.370	0.150	0.230
2020/01/31 21:54:56.5	95.780	-0.380	0.180	0.300
2020/01/31 21:54:56.6	95.760	-0.380	0.200	0.360
2020/01/31 21:54:56.7	95.750	-0.380	0.230	0.430
2020/01/31 21:54:56.8	95.740	-0.390	0.250	0.500
2020/01/31 21:54:56.9	95.720	-0.390	0.280	0.560
2020/01/31 21:54:57.0	95.710	-0.390	0.300	0.630
2020/01/31 21:54:57.1	95.690	-0.390	0.310	0.700
2020/01/31 21:54:57.2	95.670	-0.390	0.330	0.770
2020/01/31 21:54:57.3	95.650	-0.380	0.340	0.840
2020/01/31 21:54:57.4	95.630	-0.380	0.350	0.910
2020/01/31 21:54:57.5	95.610	-0.380	0.350	0.980
2020/01/31 21:54:57.6	95.590	-0.370	0.360	1.050
2020/01/31 21:54:57.7	95.570	-0.360	0.350	1.120
2020/01/31 21:54:57.8	95.550	-0.360	0.350	1.190
2020/01/31 21:54:57.9	95.530	-0.350	0.340	1.260
2020/01/31 21:54:58.0	95.510	-0.340	0.320	1.320
2020/01/31 21:54:58.1	95.490	-0.330	0.310	1.390
2020/01/31 21:54:58.2	95.470	-0.320	0.280	1.450
2020/01/31 21:54:58.3	95.460	-0.310	0.260	1.510
2020/01/31 21:54:58.4	95.440	-0.300	0.220	1.560
2020/01/31 21:54:58.5	95.430	-0.290	0.190	1.610
2020/01/31 21:54:58.6	95.420	-0.280	0.150	1.660
2020/01/31 21:54:58.7	95.410	-0.270	0.110	1.700
2020/01/31 21:54:58.8	95.410	-0.250	0.060	1.740
2020/01/31 21:54:58.9	95.400	-0.240	0.020	1.780
2020/01/31 21:54:59.0	95.400	-0.230	-0.040	1.810
2020/01/31 21:54:59.1	95.400	-0.210	-0.090	1.840
2020/01/31 21:54:59.2	95.400	-0.200	-0.150	1.860
2020/01/31 21:54:59.3	95.400	-0.180	-0.210	1.880
2020/01/31 21:54:59.4	95.400	-0.160	-0.260	1.890
2020/01/31 21:54:59.5	95.410	-0.150	-0.320	1.900
2020/01/31 21:54:59.6	95.410	-0.130	-0.380	1.910
2020/01/31 21:54:59.7	95.420	-0.110	-0.440	1.910
2020/01/31 21:54:59.8	95.430	-0.090	-0.500	1.910
2020/01/31 21:54:59.9	95.440	-0.070	-0.550	1.910
2020/01/31 21:55:00.0	95.440	-0.060	-0.610	1.900
2020/01/31 21:55:00.1	95.450	-0.040	-0.660	1.890
2020/01/31 21:55:00.2	95.450	-0.020	-0.710	1.880
2020/01/31 21:55:00.3	95.460	0.000	-0.750	1.870
2020/01/31 21:55:00.4	95.470	0.020	-0.800	1.850
2020/01/31 21:55:00.5	95.470	0.040	-0.840	1.830
2020/01/31 21:55:00.6	95.480	0.060	-0.870	1.820
2020/01/31 21:55:00.7	95.490	0.080	-0.900	1.800
2020/01/31 21:55:00.8	95.490	0.090	-0.930	1.770
2020/01/31 21:55:00.9	95.490	0.110	-0.950	1.750
2020/01/31 21:55:01.0	95.500	0.130	-0.970	1.730
2020/01/31 21:55:01.1	95.500	0.150	-0.980	1.700
2020/01/31 21:55:01.2	95.500	0.160	-0.990	1.680
2020/01/31 21:55:01.3	95.500	0.180	-0.990	1.660
2020/01/31 21:55:01.4	95.490	0.200	-0.990	1.630
2020/01/31 21:55:01.5	95.490	0.210	-0.980	1.610
2020/01/31 21:55:01.6	95.490	0.220	-0.970	1.580
2020/01/31 21:55:01.7	95.480	0.240	-0.950	1.560
2020/01/31 21:55:01.8	95.480	0.250	-0.930	1.530
2020/01/31 21:55:01.9	95.480	0.260	-0.900	1.500
2020/01/31 21:55:02.0	95.480	0.270	-0.870	1.470
2020/01/31 21:55:02.1	95.480	0.280	-0.840	1.440
2020/01/31 21:55:02.2	95.470	0.290	-0.800	1.420
2020/01/31 21:55:02.3	95.470	0.290	-0.750	1.390
2020/01/31 21:55:02.4	95.460	0.300	-0.700	1.350
2020/01/31 21:55:02.5	95.460	0.300	-0.650	1.320
2020/01/31 21:55:02.6	95.450	0.300	-0.600	1.290
2020/01/31 21:55:02.7	95.450	0.300	-0.540	1.250
2020/01/31 21:55:02.8	95.440	0.300	-0.480	1.220
2020/01/31 21:55:02.9	95.430	0.300	-0.420	1.180
2020/01/31 21:55:03.0	95.430	0.300	-0.360	1.140
2020/01/31 21:55:03.1	95.420	0.290	-0.290	1.100
2020/01/31 21:55:03.2	95.410	0.280	-0.230	1.050
2020/01/31 21:55:03.3	95.400	0.270	-0.170	1.010
2020/01/31 21:55:03.4	95.390	0.260	-0.100	0.960
2020/01/31 21:55:03.5	95.380	0.250	-0.040	0.910
2020/01/31 21:55:03.6	95.370	0.240	0.020	0.860
2020/01/31 21:55:03.7	95.360	0.230	0.080	0.810
2020/01/31 21:55:03.8	95.340	0.210	0.130	0.760
2020/01/31 21:55:03.9	95.330	0.190	0.190	0.700
2020/01/31 21:55:04.0	95.300	0.180	0.240	0.640
2020/01/31 21:55:04.1	95.280	0.160	0.290	0.580
2020/01/31 21:55:04.2	95.270	0.140	0.330	0.520
2020/01/31 21:55:04.3	95.250	0.120	0.370	0.450
2020/01/31 21:55:04.4	95.230	0.100	0.400	0.390
2020/01/31 21:55:04.5	95.220	0.080	0.440	0.320
2020/01/31 21:55:04.6	95.200	0.050	0.460	0.250
2020/01/31 21:55:04.7	95.180	0.030	0.490	0.180
2020/01/31 21:55:04.8	95.170	0.010	0.510	0.110
2020/01/31 21:55:04.9	95.150	-0.010	0.520	0.040
2020/01/31 21:55:05.0	95.140	-0.030	0.530	-0.030
2020/01/31 21:55:05.1	95.130	-0.050	0.540	-0.110
2020/01/31 21:55:05.2	95.120	-0.070	0.540	-0.180
2020/01/31 21:55:05.3	95.100	-0.090	0.540	-0.250
2020/01/31 21:55:05.4	95.090	-0.110	0.530	-0.320
2020/01/31 21:55:05.5	95.090	-0.130	0.520	-0.390
2020/01/31 21:55:05.6	95.080	-0.140	0.510	-0.460
2020/01/31 21:55:05.7	95.080	-0.160	0.490	-0.540
2020/01/31 21:55:05.8	95.080	-0.170	0.470	-0.600
2020/01/31 21:55:05.9	95.080	-0.180	0.450	-0.670
2020/01/31 21:55:06.0	95.070	-0.190	0.420	-0.740
2020/01/31 21:55:06.1	95.080	-0.190	0.390	-0.800
2020/01/31 21:55:06.2	95.080	-0.200	0.360	-0.870
2020/01/31 21:55:06.3	95.090	-0.200	0.320	-0.920
2020/01/31 21:55:06.4	95.100	-0.200	0.280	-0.980
2020/01/31 21:55:06.5	95.110	-0.200	0.240	-1.030
2020/01/31 21:55:06.6	95.120	-0.190	0.200	-1.080
2020/01/31 21:55:06.7	95.130	-0.190	0.150	-1.130
2020/01/31 21:55:06.8	95.150	-0.180	0.110	-1.170
2020/01/31 21:55:06.9	95.160	-0.170	0.060	-1.200
2020/01/31 21:55:07.0	95.180	-0.160	0.010	-1.240
2020/01/31 21:55:07.1	95.190	-0.140	-0.040	-1.260
2020/01/31 21:55:07.2	95.210	-0.130	-0.080	-1.290
2020/01/31 21:55:07.3	95.220	-0.110	-0.130	-1.310
2020/01/31 21:55:07.4	95.240	-0.100	-0.170	-1.320
2020/01/31 21:55:07.5	95.250	-0.080	-0.220	-1.340
2020/01/31 21:55:07.6	95.270	-0.060	-0.260	-1.340
2020/01/31 21:55:07.7	95.290	-0.040	-0.300	-1.350
2020/01/31 21:55:07.8	95.310	-0.020	-0.340	-1.350
2020/01/31 21:55:07.9	95.320	-0.000	-0.380	-1.340
2020/01/31 21:55:08.0	95.340	0.020	-0.420	-1.330
2020/01/31 21:55:08.1	95.360	0.040	-0.450	-1.320
2020/01/31 21:55:08.2	95.370	0.060	-0.480	-1.310
2020/01/31 21:55:08.3	95.390	0.080	-0.510	-1.290
2020/01/31 21:55:08.4	95.410	0.090	-0.530	-1.270
2020/01/31 21:55:08.5	95.420	0.110	-0.560	-1.240
2020/01/31 21:55:08.6	95.440	0.120	-0.580	-1.210
2020/01/31 21:55:08.7	95.450	0.140	-0.590	-1.180
2020/01/31 21:55:08.8	95.470	0.150	-0.600	-1.150
2020/01/31 21:55:08.9	95.490	0.160	-0.610	-1.120
2020/01/31 21:55:09.0	95.510	0.170	-0.620	-1.070
2020/01/31 21:55:09.1	95.530	0.180	-0.620	-1.030
2020/01/31 21:55:09.2	95.540	0.180	-0.620	-0.990
2020/01/31 21:55:09.3	95.550	0.180	-0.620	-0.940
2020/01/31 21:55:09.4	95.570	0.190	-0.620	-0.890
2020/01/31 21:55:09.5	95.580	0.190	-0.610	-0.830
2020/01/31 21:55:09.6	95.590	0.190	-0.600	-0.780
2020/01/31 21:55:09.7	95.600	0.180	-0.590	-0.720
2020/01/31 21:55:09.8	95.610	0.180	-0.570	-0.660
2020/01/31 21:55:09.9	95.620	0.170	-0.560	-0.590
2020/01/31 21:55:10.0	95.620	0.170	-0.540	-0.520
2020/01/31 21:55:10.1	95.630	0.160	-0.520	-0.450
2020/01/31 21:55:10.2	95.630	0.150	-0.500	-0.370
2020/01/31 21:55:10.3	95.630	0.140	-0.480	-0.300
2020/01/31 21:55:10.4	95.640	0.130	-0.460	-0.220
2020/01/31 21:55:10.5	95.640	0.120	-0.440	-0.130
2020/01/31 21:55:10.6	95.630	0.100	-0.410	-0.050
2020/01/31 21:55:10.7	95.630	0.090	-0.390	0.040
2020/01/31 21:55:10.8	95.620	0.080	-0.370	0.140
2020/01/31 21:55:10.9	95.620	0.070	-0.340	0.230
2020/01/31 21:55:11.0	95.620	0.050	-0.320	0.330
2020/01/31 21:55:11.1	95.610	0.040	-0.300	0.430
2020/01/31 21:55:11.2	95.600	0.030	-0.280	0.530
2020/01/31 21:55:11.3	95.590	0.020	-0.250	0.640
2020/01/31 21:55:11.4	95.570	0.010	-0.230	0.740
2020/01/31 21:55:11.5	95.550	-0.000	-0.220	0.850
2020/01/31 21:55:11.6	95.540	-0.010	-0.200	0.960
2020/01/31 21:55:11.7	95.520	-0.020	-0.180	1.070
2020/01/31 21:55:11.8	95.500	-0.030	-0.170	1.180
2020/01/31 21:55:11.9	95.480	-0.040	-0.150	1.290
2020/01/31 21:55:12.0	95.440	-0.050	-0.140	1.410
2020/01/31 21:55:12.1	95.420	-0.050	-0.130	1.520
2020/01/31 21:55:12.2	95.410	-0.060	-0.130	1.620
2020/01/31 21:55:12.3	95.390	-0.060	-0.120	1.730
2020/01/31 21:55:12.4	95.370	-0.060	-0.110	1.830
2020/01/31 21:55:12.5	95.360	-0.070	-0.110	1.930
2020/01/31 21:55:12.6	95.340	-0.070	-0.110	2.020
2020/01/31 21:55:12.7	95.330	-0.070	-0.110	2.110
2020/01/31 21:55:12.8	95.320	-0.070	-0.110	2.200
2020/01/31 21:55:12.9	95.310	-0.070	-0.110	2.280
2020/01/31 21:55:13.0	95.300	-0.080	-0.110	2.350
2020/01/31 21:55:13.1	95.290	-0.080	-0.110	2.420
2020/01/31 21:55:13.2	95.290	-0.080	-0.110	2.490
2020/01/31 21:55:13.3	95.280	-0.080	-0.110	2.550
2020/01/31 21:55:13.4	95.280	-0.090	-0.100	2.610
2020/01/31 21:55:13.5	95.280	-0.090	-0.100	2.670
2020/01/31 21:55:13.6	95.280	-0.100	-0.100	2.720
2020/01/31 21:55:13.7	95.290	-0.100	-0.090	2.760
2020/01/31 21:55:13.8	95.290	-0.110	-0.080	2.800
2020/01/31 21:55:13.9	95.290	-0.120	-0.070	2.840
2020/01/31 21:55:14.0	95.300	-0.130	-0.060	2.870
2020/01/31 21:55:14.1	95.310	-0.140	-0.050	2.900
2020/01/31 21:55:14.2	95.310	-0.150	-0.030	2.930
2020/01/31 21:55:14.3	95.310	-0.170	-0.010	2.950
2020/01/31 21:55:14.4	95.320	-0.180	0.000	2.960
2020/01/31 21:55:14.5	95.320	-0.200	0.030	2.970
2020/01/31 21:55:14.6	95.320	-0.210	0.050	2.980
2020/01/31 21:55:14.7	95.330	-0.230	0.070	2.980
2020/01/31 21:55:14.8	95.330	-0.250	0.100	2.980
2020/01/31 21:55:14.9	95.330	-0.270	0.130	2.980
2020/01/31 21:55:15.0	95.320	-0.290	0.150	2.960
2020/01/31 21:55:15.1	95.320	-0.300	0.180	2.940
2020/01/31 21:55:15.2	95.330	-0.320	0.210	2.920
2020/01/31 21:55:15.3	95.330	-0.340	0.230	2.900
2020/01/31 21:55:15.4	95.330	-0.360	0.260	2.860
2020/01/31 21:55:15.5	95.330	-0.370	0.280	2.830
2020/01/31 21:55:15.6	95.330	-0.390	0.310	2.790
2020/01/31 21:55:15.7	95.330	-0.400	0.320	2.740
2020/01/31 21:55:15.8	95.340	-0.420	0.340	2.690
2020/01/31 21:55:15.9	95.340	-0.420	0.350	2.630
2020/01/31 21:55:16.0	95.340	-0.430	0.360	2.570
2020/01/31 21:55:16.1	95.350	-0.440	0.370	2.500
2020/01/31 21:55:16.2	95.350	-0.440	0.370	2.420
2020/01/31 21:55:16.3	95.360	-0.440	0.360	2.340
2020/01/31 21:55:16.4	95.370	-0.430	0.350	2.260
2020/01/31 21:55:16.5	95.380	-0.430	0.340	2.170
2020/01/31 21:55:16.6	95.380	-0.420	0.320	2.070
2020/01/31 21:55:16.7	95.390	-0.400	0.290	1.970
2020/01/31 21:55:16.8	95.400	-0.380	0.260	1.860
2020/01/31 21:55:16.9	95.410	-0.360	0.230	1.750
2020/01/31 21:55:17.0	95.420	-0.340	0.180	1.630
2020/01/31 21:55:17.1	95.430	-0.310	0.140	1.520
2020/01/31 21:55:17.2	95.440	-0.280	0.090	1.390
2020/01/31 21:55:17.3	95.450	-0.240	0.040	1.270
2020/01/31 21:55:17.4	95.460	-0.210	-0.010	1.150
2020/01/31 21:55:17.5	95.470	-0.170	-0.070	1.020
2020/01/31 21:55:17.6	95.480	-0.130	-0.130	0.890
2020/01/31 21:55:17.7	95.490	-0.080	-0.190	0.760
2020/01/31 21:55:17.8	95.490	-0.040	-0.260	0.630
2020/01/31 21:55:17.9	95.500	0.010	-0.320	0.500
2020/01/31 21:55:18.0	95.500	0.060	-0.380	0.370
2020/01/31 21:55:18.1	95.510	0.100	-0.440	0.240
2020/01/31 21:55:18.2	95.510	0.150	-0.500	0.120
2020/01/31 21:55:18.3	95.510	0.200	-0.560	-0.010
2020/01/31 21:55:18.4	95.510	0.250	-0.620	-0.130
2020/01/31 21:55:18.5	95.510	0.290	-0.680	-0.250
2020/01/31 21:55:18.6	95.500	0.340	-0.730	-0.370
2020/01/31 21:55:18.7	95.500	0.380	-0.770	-0.490
2020/01/31 21:55:18.8	95.500	0.420	-0.820	-0.600
2020/01/31 21:55:18.9	95.490	0.460	-0.860	-0.710
2020/01/31 21:55:19.0	95.480	0.500	-0.900	-0.820
2020/01/31 21:55:19.1	95.470	0.530	-0.930	-0.920
2020/01/31 21:55:19.2	95.470	0.560	-0.950	-1.010
2020/01/31 21:55:19.3	95.460	0.590	-0.970	-1.100
2020/01/31 21:55:19.4	95.450	0.610	-0.990	-1.190
2020/01/31 21:55:19.5	95.440	0.630	-1.000	-1.270
2020/01/31 21:55:19.6	95.430	0.650	-1.000	-1.350
2020/01/31 21:55:19.7	95.420	0.660	-1.000	-1.420
2020/01/31 21:55:19.8	95.410	0.670	-1.000	-1.480
2020/01/31 21:55:19.9	95.400	0.670	-0.990	-1.540
2020/01/31 21:55:20.0	95.390	0.680	-0.970	-1.600
2020/01/31 21:55:20.1	95.380	0.670	-0.950	-1.640
2020/01/31 21:55:20.2	95.370	0.670	-0.930	-1.690
2020/01/31 21:55:20.3	95.360	0.650	-0.900	-1.730
2020/01/31 21:55:20.4	95.350	0.640	-0.870	-1.760
2020/01/31 21:55:20.5	95.340	0.620	-0.830	-1.790
2020/01/31 21:55:20.6	95.330	0.600	-0.800	-1.810
2020/01/31 21:55:20.7	95.320	0.580	-0.760	-1.820
2020/01/31 21:55:20.8	95.320	0.550	-0.710	-1.830
2020/01/31 21:55:20.9	95.310	0.520	-0.670	-1.840
2020/01/31 21:55:21.0	95.300	0.490	-0.620	-1.840
2020/01/31 21:55:21.1	95.290	0.460	-0.570	-1.830
2020/01/31 21:55:21.2	95.290	0.420	-0.520	-1.820
2020/01/31 21:55:21.3	95.290	0.390	-0.470	-1.810
2020/01/31 21:55:21.4	95.290	0.350	-0.420	-1.790
2020/01/31 21:55:21.5	95.290	0.310	-0.360	-1.770
2020/01/31 21:55:21.6	95.290	0.270	-0.310	-1.740
2020/01/31 21:55:21.7	95.290	0.230	-0.260	-1.700
2020/01/31 21:55:21.8	95.290	0.200	-0.210	-1.670
2020/01/31 21:55:21.9	95.290	0.160	-0.160	-1.620
2020/01/31 21:55:22.0	95.290	0.120	-0.100	-1.570
2020/01/31 21:55:22.1	95.290	0.080	-0.060	-1.520
2020/01/31 21:55:22.2	95.300	0.050	-0.010	-1.470
2020/01/31 21:55:22.3	95.300	0.010	0.040	-1.410
2020/01/31 21:55:22.4	95.310	-0.020	0.080	-1.350
2020/01/31 21:55:22.5	95.310	-0.060	0.130	-1.280
2020/01/31 21:55:22.6	95.320	-0.090	0.170	-1.210
2020/01/31 21:55:22.7	95.330	-0.120	0.210	-1.140
2020/01/31 21:55:22.8	95.330	-0.150	0.250	-1.060
2020/01/31 21:55:22.9	95.340	-0.170	0.290	-0.980
2020/01/31 21:55:23.0	95.360	-0.200	0.320	-0.900
2020/01/31 21:55:23.1	95.360	-0.220	0.360	-0.820
2020/01/31 21:55:23.2	95.370	-0.240	0.390	-0.730
2020/01/31 21:55:23.3	95.380	-0.260	0.420	-0.650
2020/01/31 21:55:23.4	95.380	-0.280	0.450	-0.560
2020/01/31 21:55:23.5	95.390	-0.300	0.470	-0.460
2020/01/31 21:55:23.6	95.390	-0.310	0.500	-0.370
2020/01/31 21:55:23.7	95.400	-0.330	0.520	-0.280
2020/01/31 21:55:23.8	95.400	-0.340	0.540	-0.180
2020/01/31 21:55:23.9	95.400	-0.350	0.560	-0.080
2020/01/31 21:55:24.0	95.420	-0.370	0.580	0.020
2020/01/31 21:55:24.1	95.420	-0.380	0.590	0.120
2020/01/31 21:55:24.2	95.420	-0.390	0.600	0.220
2020/01/31 21:55:24.3	95.420	-0.390	0.610	0.330
2020/01/31 21:55:24.4	95.410	-0.400	0.620	0.430
2020/01/31 21:55:24.5	95.410	-0.410	0.620	0.530
2020/01/31 21:55:24.6	95.410	-0.410	0.620	0.630
2020/01/31 21:55:24.7	95.400	-0.420	0.610	0.740
2020/01/31 21:55:24.8	95.400	-0.430	0.600	0.840
2020/01/31 21:55:24.9	95.390	-0.430	0.590	0.940
2020/01/31 21:55:25.0	95.390	-0.430	0.570	1.040
2020/01/31 21:55:25.1	95.380	-0.440	0.550	1.140
2020/01/31 21:55:25.2	95.380	-0.440	0.530	1.230
2020/01/31 21:55:25.3	95.370	-0.440	0.510	1.330
2020/01/31 21:55:25.4	95.370	-0.440	0.480	1.420
2020/01/31 21:55:25.5	95.370	-0.440	0.450	1.510
2020/01/31 21:55:25.6	95.360	-0.440	0.410	1.590
2020/01/31 21:55:25.7	95.360	-0.440	0.380	1.680
2020/01/31 21:55:25.8	95.360	-0.430	0.330	1.760
2020/01/31 21:55:25.9	95.360	-0.430	0.290	1.840
2020/01/31 21:55:26.0	95.380	-0.420	0.240	1.910
2020/01/31 21:55:26.1	95.380	-0.420	0.190	1.980
2020/01/31 21:55:26.2	95.390	-0.410	0.140	2.050
2020/01/31 21:55:26.3	95.390	-0.400	0.080	2.110
2020/01/31 21:55:26.4	95.400	-0.380	0.030	2.170
2020/01/31 21:55:26.5	95.400	-0.370	-0.030	2.230
2020/01/31 21:55:26.6	95.410	-0.350	-0.090	2.290
2020/01/31 21:55:26.7	95.420	-0.340	-0.160	2.340
2020/01/31 21:55:26.8	95.430	-0.320	-0.220	2.380
2020/01/31 21:55:26.9	95.440	-0.300	-0.280	2.420
2020/01/31 21:55:27.0	95.430	-0.280	-0.350	2.460
2020/01/31 21:55:27.1	95.450	-0.250	-0.410	2.490
2020/01/31 21:55:27.2	95.460	-0.230	-0.480	2.520
2020/01/31 21:55:27.3	95.480	-0.200	-0.540	2.550
2020/01/31 21:55:27.4	95.500	-0.170	-0.600	2.570
2020/01/31 21:55:27.5	95.520	-0.140	-0.660	2.580
2020/01/31 21:55:27.6	95.540	-0.110	-0.720	2.590
2020/01/31 21:55:27.7	95.560	-0.080	-0.770	2.600
2020/01/31 21:55:27.8	95.580	-0.050	-0.830	2.600
2020/01/31 21:55:27.9	95.600	-0.020	-0.880	2.600
2020/01/31 21:55:28.0	95.610	0.020	-0.920	2.590
2020/01/31 21:55:28.1	95.630	0.050	-0.970	2.580
2020/01/31 21:55:28.2	95.650	0.080	-1.010	2.560
2020/01/31 21:55:28.3	95.680	0.110	-1.040	2.540
2020/01/31 21:55:28.4	95.700	0.150	-1.070	2.520
2020/01/31 21:55:28.5	95.720	0.180	-1.100	2.490
2020/01/31 21:55:28.6	95.750	0.210	-1.120	2.460
2020/01/31 21:55:28.7	95.770	0.240	-1.130	2.420
2020/01/31 21:55:28.8	95.790	0.270	-1.140	2.380
2020/01/31 21:55:28.9	95.810	0.300	-1.150	2.330
2020/01/31 21:55:29.0	95.830	0.320	-1.150	2.280
2020/01/31 21:55:29.1	95.850	0.350	-1.140	2.230
2020/01/31 21:55:29.2	95.870	0.370	-1.130	2.170
2020/01/31 21:55:29.3	95.890	0.390	-1.110	2.110
2020/01/31 21:55:29.4	95.900	0.410	-1.090	2.050
2020/01/31 21:55:29.5	95.920	0.430	-1.060	1.980
2020/01/31 21:55:29.6	95.930	0.440	-1.030	1.910
2020/01/31 21:55:29.7	95.940	0.450	-0.990	1.850
2020/01/31 21:55:29.8	95.950	0.460	-0.950	1.780
2020/01/31 21:55:29.9	95.950	0.470	-0.900	1.700
2020/01/31 21:55:30.0	95.970	0.480	-0.850	1.630
2020/01/31 21:55:30.1	95.970	0.480	-0.800	1.560
2020/01/31 21:55:30.2	95.970	0.480	-0.740	1.480
2020/01/31 21:55:30.3	95.970	0.470	-0.680	1.410
2020/01/31 21:55:30.4	95.970	0.470	-0.610	1.330
2020/01/31 21:55:30.5	95.970	0.460	-0.540	1.260
2020/01/31 21:55:30.6	95.970	0.450	-0.480	1.180
2020/01/31 21:55:30.7	95.960	0.430	-0.400	1.110
2020/01/31 21:55:30.8	95.960	0.420	-0.330	1.040
2020/01/31 21:55:30.9	95.950	0.400	-0.260	0.970
2020/01/31 21:55:31.0	95.920	0.380	-0.180	0.890
2020/01/31 21:55:31.1	95.910	0.350	-0.110	0.820
2020/01/31 21:55:31.2	95.900	0.330	-0.040	0.760
2020/01/31 21:55:31.3	95.890	0.300	0.030	0.690
2020/01/31 21:55:31.4	95.870	0.270	0.100	0.620
2020/01/31 21:55:31.5	95.860	0.240	0.170	0.560
2020/01/31 21:55:31.6	95.840	0.200	0.230	0.490
2020/01/31 21:55:31.7	95.830	0.170	0.290	0.430
2020/01/31 21:55:31.8	95.810	0.130	0.350	0.370
2020/01/31 21:55:31.9	95.800	0.090	0.410	0.310
2020/01/31 21:55:32.0	95.790	0.050	0.460	0.250
2020/01/31 21:55:32.1	95.780	0.010	0.510	0.190
2020/01/31 21:55:32.2	95.760	-0.030	0.550	0.130
2020/01/31 21:55:32.3	95.750	-0.070	0.590	0.070
2020/01/31 21:55:32.4	95.730	-0.110	0.630	0.010
2020/01/31 21:55:32.5	95.720	-0.150	0.660	-0.050
2020/01/31 21:55:32.6	95.700	-0.190	0.690	-0.110
2020/01/31 21:55:32.7	95.690	-0.230	0.710	-0.160
2020/01/31 21:55:32.8	95.680	-0.260	0.730	-0.220
2020/01/31 21:55:32.9	95.670	-0.300	0.740	-0.280
2020/01/31 21:55:33.0	95.660	-0.340	0.750	-0.330
2020/01/31 21:55:33.1	95.650	-0.370	0.760	-0.390
2020/01/31 21:55:33.2	95.640	-0.400	0.760	-0.440
2020/01/31 21:55:33.3	95.640	-0.430	0.750	-0.500
2020/01/31 21:55:33.4	95.630	-0.460	0.750	-0.560
2020/01/31 21:55:33.5	95.630	-0.480	0.730	-0.610
2020/01/31 21:55:33.6	95.620	-0.500	0.720	-0.660
2020/01/31 21:55:33.7	95.620	-0.520	0.700	-0.720
2020/01/31 21:55:33.8	95.620	-0.540	0.670	-0.770
2020/01/31 21:55:33.9	95.620	-0.550	0.640	-0.830
2020/01/31 21:55:34.0	95.630	-0.560	0.600	-0.890
2020/01/31 21:55:34.1	95.630	-0.560	0.570	-0.940
2020/01/31 21:55:34.2	95.640	-0.560	0.520	-1.000
2020/01/31 21:55:34.3	95.650	-0.560	0.480	-1.050
2020/01/31 21:55:34.4	95.660	-0.560	0.430	-1.100
2020/01/31 21:55:34.5	95.670	-0.550	0.380	-1.150
2020/01/31 21:55:34.6	95.680	-0.530	0.320	-1.200
2020/01/31 21:55:34.7	95.700	-0.520	0.270	-1.250
2020/01/31 21:55:34.8	95.720	-0.500	0.210	-1.300
2020/01/31 21:55:34.9	95.740	-0.470	0.140	-1.340
2020/01/31 21:55:35.0	95.750	-0.450	0.080	-1.380
2020/01/31 21:55:35.1	95.780	-0.420	0.020	-1.420
2020/01/31 21:55:35.2	95.800	-0.390	-0.050	-1.460
2020/01/31 21:55:35.3	95.830	-0.350	-0.110	-1.500
2020/01/31 21:55:35.4	95.850	-0.320	-0.180	-1.530
2020/01/31 21:55:35.5	95.880	-0.280	-0.240	-1.560
2020/01/31 21:55:35.6	95.910	-0.240	-0.300	-1.580
2020/01/31 21:55:35.7	95.940	-0.200	-0.360	-1.600
2020/01/31 21:55:35.8	95.970	-0.160	-0.420	-1.620
2020/01/31 21:55:35.9	96.000	-0.110	-0.480	-1.630
2020/01/31 21:55:36.0	96.030	-0.070	-0.540	-1.640
2020/01/31 21:55:36.1	96.060	-0.020	-0.590	-1.650
2020/01/31 21:55:36.2	96.090	0.020	-0.640	-1.640
2020/01/31 21:55:36.3	96.120	0.060	-0.690	-1.640
2020/01/31 21:55:36.4	96.140	0.110	-0.730	-1.620
2020/01/31 21:55:36.5	96.170	0.150	-0.770	-1.600
2020/01/31 21:55:36.6	96.190	0.190	-0.800	-1.580
2020/01/31 21:55:36.7	96.210	0.230	-0.830	-1.550
2020/01/31 21:55:36.8	96.230	0.270	-0.860	-1.510
2020/01/31 21:55:36.9	96.250	0.310	-0.880	-1.470
2020/01/31 21:55:37.0	96.270	0.350	-0.890	-1.420
2020/01/31 21:55:37.1	96.280	0.390	-0.900	-1.370
2020/01/31 21:55:37.2	96.290	0.420	-0.910	-1.310
2020/01/31 21:55:37.3	96.300	0.450	-0.920	-1.250
2020/01/31 21:55:37.4	96.300	0.480	-0.920	-1.180
2020/01/31 21:55:37.5	96.300	0.500	-0.920	-1.110
2020/01/31 21:55:37.6	96.300	0.530	-0.910	-1.030
2020/01/31 21:55:37.7	96.300	0.550	-0.900	-0.950
2020/01/31 21:55:37.8	96.290	0.570	-0.890	-0.870
2020/01/31 21:55:37.9	96.290	0.580	-0.880	-0.780
2020/01/31 21:55:38.0	96.290	0.600	-0.860	-0.690
2020/01/31 21:55:38.1	96.280	0.610	-0.840	-0.590
2020/01/31 21:55:38.2	96.270	0.620	-0.820	-0.490
2020/01/31 21:55:38.3	96.260	0.630	-0.800	-0.390
2020/01/31 21:55:38.4	96.250	0.630	-0.770	-0.290
2020/01/31 21:55:38.5	96.230	0.630	-0.750	-0.180
2020/01/31 21:55:38.6	96.220	0.630	-0.720	-0.070
2020/01/31 21:55:38.7	96.200	0.630	-0.690	0.040
2020/01/31 21:55:38.8	96.190	0.630	-0.660	0.160
2020/01/31 21:55:38.9	96.180	0.620	-0.630	0.270
2020/01/31 21:55:39.0	96.160	0.610	-0.600	0.390
2020/01/31 21:55:39.1	96.150	0.600	-0.570	0.510
2020/01/31 21:55:39.2	96.140	0.590	-0.530	0.630
2020/01/31 21:55:39.3	96.120	0.580	-0.500	0.740
2020/01/31 21:55:39.4	96.110	0.560	-0.470	0.860
2020/01/31 21:55:39.5	96.100	0.540	-0.440	0.980
2020/01/31 21:55:39.6	96.090	0.530	-0.410	1.100
2020/01/31 21:55:39.7	96.080	0.500	-0.380	1.220
2020/01/31 21:55:39.8	96.070	0.480	-0.350	1.340
2020/01/31 21:55:39.9	96.060	0.460	-0.320	1.460
2020/01/31 21:55:40.0	96.050	0.430	-0.290	1.580
2020/01/31 21:55:40.1	96.040	0.400	-0.260	1.690
2020/01/31 21:55:40.2	96.030	0.370	-0.230	1.810
2020/01/31 21:55:40.3	96.030	0.340	-0.200	1.920
2020/01/31 21:55:40.4	96.020	0.310	-0.170	2.030
2020/01/31 21:55:40.5	96.020	0.270	-0.140	2.130
2020/01/31 21:55:40.6	96.010	0.240	-0.110	2.230
2020/01/31 21:55:40.7	96.010	0.200	-0.070	2.330
2020/01/31 21:55:40.8	96.000	0.160	-0.040	2.430
2020/01/31 21:55:40.9	95.990	0.120	-0.010	2.520
2020/01/31 21:55:41.0	95.980	0.080	0.030	2.610
2020/01/31 21:55:41.1	95.970	0.030	0.060	2.690
2020/01/31 21:55:41.2	95.960	-0.010	0.100	2.770
2020/01/31 21:55:41.3	95.950	-0.050	0.140	2.840
2020/01/31 21:55:41.4	95.940	-0.100	0.180	2.910
2020/01/31 21:55:41.5	95.920	-0.150	0.210	2.970
2020/01/31 21:55:41.6	95.900	-0.190	0.250	3.020
2020/01/31 21:55:41.7	95.880	-0.240	0.290	3.070
2020/01/31 21:55:41.8	95.860	-0.290	0.330	3.120
2020/01/31 21:55:41.9	95.840	-0.330	0.370	3.150
2020/01/31 21:55:42.0	95.790	-0.380	0.400	3.180
2020/01/31 21:55:42.1	95.770	-0.420	0.440	3.200
2020/01/31 21:55:42.2	95.740	-0.470	0.480	3.220
2020/01/31 21:55:42.3	95.710	-0.510	0.510	3.230
2020/01/31 21:55:42.4	95.680	-0.550	0.540	3.230
2020/01/31 21:55:42.5	95.650	-0.590	0.570	3.230
2020/01/31 21:55:42.6	95.620	-0.630	0.590	3.220
2020/01/31 21:55:42.7	95.590	-0.660	0.620	3.210
2020/01/31 21:55:42.8	95.550	-0.690	0.630	3.180
2020/01/31 21:55:42.9	95.520	-0.720	0.650	3.150
2020/01/31 21:55:43.0	95.490	-0.750	0.660	3.110
2020/01/31 21:55:43.1	95.460	-0.770	0.660	3.070
2020/01/31 21:55:43.2	95.430	-0.790	0.660	3.010
2020/01/31 21:55:43.3	95.400	-0.810	0.660	2.960
2020/01/31 21:55:43.4	95.380	-0.820	0.650	2.890
2020/01/31 21:55:43.5	95.350	-0.830	0.630	2.810
2020/01/31 21:55:43.6	95.340	-0.830	0.600	2.730
2020/01/31 21:55:43.7	95.320	-0.830	0.570	2.650
2020/01/31 21:55:43.8	95.300	-0.820	0.540	2.550
2020/01/31 21:55:43.9	95.290	-0.810	0.500	2.460
2020/01/31 21:55:44.0	95.280	-0.800	0.450	2.350
2020/01/31 21:55:44.1	95.280	-0.780	0.390	2.240
2020/01/31 21:55:44.2	95.280	-0.760	0.330	2.120
2020/01/31 21:55:44.3	95.280	-0.730	0.270	2.010
2020/01/31 21:55:44.4	95.280	-0.700	0.200	1.880
2020/01/31 21:55:44.5	95.290	-0.670	0.130	1.760
2020/01/31 21:55:44.6	95.290	-0.630	0.060	1.630
2020/01/31 21:55:44.7	95.300	-0.590	-0.020	1.500
2020/01/31 21:55:44.8	95.320	-0.550	-0.100	1.370
2020/01/31 21:55:44.9	95.330	-0.510	-0.180	1.240
2020/01/31 21:55:45.0	95.350	-0.460	-0.260	1.110
2020/01/31 21:55:45.1	95.370	-0.410	-0.340	0.970
2020/01/31 21:55:45.2	95.390	-0.360	-0.420	0.840
2020/01/31 21:55:45.3	95.400	-0.310	-0.500	0.710
2020/01/31 21:55:45.4	95.420	-0.260	-0.570	0.580
2020/01/31 21:55:45.5	95.440	-0.210	-0.650	0.450
2020/01/31 21:55:45.6	95.460	-0.160	-0.720	0.320
2020/01/31 21:55:45.7	95.480	-0.100	-0.790	0.190
2020/01/31 21:55:45.8	95.500	-0.050	-0.850	0.070
2020/01/31 21:55:45.9	95.510	-0.000	-0.910	-0.060
2020/01/31 21:55:46.0	95.530	0.040	-0.960	-0.180
2020/01/31 21:55:46.1	95.550	0.090	-1.010	-0.300
2020/01/31 21:55:46.2	95.560	0.130	-1.050	-0.410
2020/01/31 21:55:46.3	95.570	0.180	-1.090	-0.520
2020/01/31 21:55:46.4	95.590	0.220	-1.110	-0.630
2020/01/31 21:55:46.5	95.600	0.250	-1.130	-0.740
2020/01/31 21:55:46.6	95.600	0.290	-1.150	-0.840
2020/01/31 21:55:46.7	95.610	0.320	-1.150	-0.940
2020/01/31 21:55:46.8	95.610	0.350	-1.150	-1.040
2020/01/31 21:55:46.9	95.620	0.370	-1.140	-1.130
2020/01/31 21:55:47.0	95.630	0.390	-1.120	-1.220
2020/01/31 21:55:47.1	95.620	0.410	-1.100	-1.300
2020/01/31 21:55:47.2	95.620	0.430	-1.070	-1.380
2020/01/31 21:55:47.3	95.610	0.440	-1.030	-1.450
2020/01/31 21:55:47.4	95.610	0.450	-0.980	-1.520
2020/01/31 21:55:47.5	95.600	0.450	-0.930	-1.580
2020/01/31 21:55:47.6	95.590	0.460	-0.880	-1.640
2020/01/31 21:55:47.7	95.570	0.460	-0.820	-1.690
2020/01/31 21:55:47.8	95.560	0.460	-0.750	-1.740
2020/01/31 21:55:47.9	95.540	0.450	-0.680	-1.780
2020/01/31 21:55:48.0	95.510	0.450	-0.600	-1.810
2020/01/31 21:55:48.1	95.490	0.440	-0.530	-1.840
2020/01/31 21:55:48.2	95.470	0.430	-0.450	-1.860
2020/01/31 21:55:48.3	95.450	0.420	-0.370	-1.880
2020/01/31 21:55:48.4	95.430	0.410	-0.300	-1.890
2020/01/31 21:55:48.5	95.400	0.400	-0.220	-1.890
2020/01/31 21:55:48.6	95.380	0.380	-0.140	-1.890
2020/01/31 21:55:48.7	95.350	0.370	-0.070	-1.880
2020/01/31 21:55:48.8	95.330	0.350	0.010	-1.870
2020/01/31 21:55:48.9	95.300	0.330	0.080	-1.850
2020/01/31 21:55:49.0	95.260	0.320	0.140	-1.830
2020/01/31 21:55:49.1	95.230	0.300	0.210	-1.800
2020/01/31 21:55:49.2	95.200	0.280	0.270	-1.760
2020/01/31 21:55:49.3	95.170	0.260	0.320	-1.720
2020/01/31 21:55:49.4	95.140	0.250	0.370	-1.680
2020/01/31 21:55:49.5	95.110	0.230	0.420	-1.630
2020/01/31 21:55:49.6	95.080	0.210	0.460	-1.580
2020/01/31 21:55:49.7	95.050	0.200	0.490	-1.520
2020/01/31 21:55:49.8	95.020	0.180	0.520	-1.450
2020/01/31 21:55:49.9	94.990	0.170	0.540	-1.390
2020/01/31 21:55:50.0	94.980	0.150	0.560	-1.310
2020/01/31 21:55:50.1	94.960	0.140	0.570	-1.240
2020/01/31 21:55:50.2	94.930	0.130	0.580	-1.160
2020/01/31 21:55:50.3	94.900	0.110	0.580	-1.080
2020/01/31 21:55:50.4	94.880	0.100	0.570	-1.000
2020/01/31 21:55:50.5	94.850	0.090	0.560	-0.920
2020/01/31 21:55:50.6	94.830	0.080	0.540	-0.830
2020/01/31 21:55:50.7	94.810	0.070	0.520	-0.750
2020/01/31 21:55:50.8	94.790	0.060	0.490	-0.660
2020/01/31 21:55:50.9	94.770	0.060	0.460	-0.570
2020/01/31 21:55:51.0	94.740	0.050	0.420	-0.480
2020/01/31 21:55:51.1	94.720	0.040	0.380	-0.390
2020/01/31 21:55:51.2	94.710	0.040	0.340	-0.300
2020/01/31 21:55:51.3	94.700	0.030	0.290	-0.210
2020/01/31 21:55:51.4	94.690	0.030	0.240	-0.120
2020/01/31 21:55:51.5	94.680	0.030	0.180	-0.040
2020/01/31 21:55:51.6	94.670	0.020	0.130	0.050
2020/01/31 21:55:51.7	94.670	0.020	0.070	0.130
2020/01/31 21:55:51.8	94.670	0.010	0.010	0.210
2020/01/31 21:55:51.9	94.660	0.010	-0.050	0.290
2020/01/31 21:55:52.0	94.660	0.000	-0.110	0.370
2020/01/31 21:55:52.1	94.660	0.000	-0.160	0.450
2020/01/31 21:55:52.2	94.670	-0.000	-0.220	0.530
2020/01/31 21:55:52.3	94.670	-0.010	-0.270	0.600
2020/01/31 21:55:52.4	94.670	-0.010	-0.330	0.680
2020/01/31 21:55:52.5	94.670	-0.020	-0.380	0.750
2020/01/31 21:55:52.6	94.670	-0.020	-0.430	0.820
2020/01/31 21:55:52.7	94.670	-0.030	-0.470	0.890
2020/01/31 21:55:52.8	94.670	-0.040	-0.510	0.960
2020/01/31 21:55:52.9	94.680	-0.040	-0.550	1.030
2020/01/31 21:55:53.0	94.680	-0.050	-0.590	1.100
2020/01/31 21:55:53.1	94.680	-0.050	-0.620	1.160
2020/01/31 21:55:53.2	94.680	-0.060	-0.640	1.230
2020/01/31 21:55:53.3	94.680	-0.060	-0.660	1.300
2020/01/31 21:55:53.4	94.680	-0.070	-0.680	1.360
2020/01/31 21:55:53.5	94.670	-0.080	-0.700	1.430
2020/01/31 21:55:53.6	94.670	-0.080	-0.710	1.490
2020/01/31 21:55:53.7	94.670	-0.090	-0.710	1.550
2020/01/31 21:55:53.8	94.660	-0.090	-0.710	1.610
2020/01/31 21:55:53.9	94.660	-0.100	-0.710	1.670
2020/01/31 21:55:54.0	94.640	-0.100	-0.700	1.730
2020/01/31 21:55:54.1	94.640	-0.100	-0.690	1.790
2020/01/31 21:55:54.2	94.640	-0.110	-0.680	1.840
2020/01/31 21:55:54.3	94.630	-0.110	-0.660	1.900
2020/01/31 21:55:54.4	94.630	-0.110	-0.640	1.950
2020/01/31 21:55:54.5	94.620	-0.110	-0.620	2.000
2020/01/31 21:55:54.6	94.620	-0.110	-0.600	2.050
2020/01/31 21:55:54.7	94.610	-0.110	-0.570	2.100
2020/01/31 21:55:54.8	94.610	-0.110	-0.540	2.150
2020/01/31 21:55:54.9	94.600	-0.110	-0.500	2.190
2020/01/31 21:55:55.0	94.600	-0.110	-0.470	2.240
2020/01/31 21:55:55.1	94.590	-0.110	-0.440	2.280
2020/01/31 21:55:55.2	94.590	-0.110	-0.400	2.320
2020/01/31 21:55:55.3	94.580	-0.110	-0.360	2.350
2020/01/31 21:55:55.4	94.570	-0.110	-0.320	2.390
2020/01/31 21:55:55.5	94.560	-0.110	-0.280	2.420
2020/01/31 21:55:55.6	94.550	-0.110	-0.240	2.450
2020/01/31 21:55:55.7	94.540	-0.100	-0.210	2.480
2020/01/31 21:55:55.8	94.520	-0.100	-0.170	2.500
2020/01/31 21:55:55.9	94.510	-0.100	-0.130	2.520
2020/01/31 21:55:56.0	94.500	-0.090	-0.100	2.540
2020/01/31 21:55:56.1	94.490	-0.090	-0.060	2.550
2020/01/31 21:55:56.2	94.470	-0.090	-0.030	2.560
2020/01/31 21:55:56.3	94.460	-0.080	-0.000	2.560
2020/01/31 21:55:56.4	94.440	-0.080	0.030	2.560
2020/01/31 21:55:56.5	94.430	-0.070	0.050	2.550
2020/01/31 21:55:56.6	94.410	-0.070	0.070	2.540
2020/01/31 21:55:56.7	94.400	-0.060	0.090	2.520
2020/01/31 21:55:56.8	94.380	-0.060	0.100	2.500
2020/01/31 21:55:56.9	94.370	-0.050	0.120	2.480
2020/01/31 21:55:57.0	94.350	-0.050	0.130	2.440
2020/01/31 21:55:57.1	94.340	-0.040	0.130	2.400
2020/01/31 21:55:57.2	94.330	-0.030	0.130	2.360
2020/01/31 21:55:57.3	94.320	-0.020	0.130	2.310
2020/01/31 21:55:57.4	94.310	-0.020	0.130	2.260
2020/01/31 21:55:57.5	94.300	-0.010	0.120	2.200
2020/01/31 21:55:57.6	94.290	-0.000	0.110	2.130
2020/01/31 21:55:57.7	94.280	0.010	0.100	2.070
2020/01/31 21:55:57.8	94.280	0.020	0.090	1.990
2020/01/31 21:55:57.9	94.270	0.030	0.070	1.910
2020/01/31 21:55:58.0	94.270	0.030	0.050	1.830
2020/01/31 21:55:58.1	94.270	0.040	0.030	1.740
2020/01/31 21:55:58.2	94.270	0.050	0.010	1.650
2020/01/31 21:55:58.3	94.270	0.060	-0.010	1.550
2020/01/31 21:55:58.4	94.270	0.070	-0.040	1.450
2020/01/31 21:55:58.5	94.270	0.080	-0.060	1.350
2020/01/31 21:55:58.6	94.270	0.090	-0.090	1.250
2020/01/31 21:55:58.7	94.270	0.100	-0.110	1.140
2020/01/31 21:55:58.8	94.280	0.110	-0.140	1.030
2020/01/31 21:55:58.9	94.280	0.110	-0.160	0.930
2020/01/31 21:55:59.0	94.280	0.120	-0.180	0.810
2020/01/31 21:55:59.1	94.280	0.130	-0.200	0.700
2020/01/31 21:55:59.2	94.290	0.140	-0.220	0.580
2020/01/31 21:55:59.3	94.290	0.140	-0.240	0.470
2020/01/31 21:55:59.4	94.290	0.150	-0.260	0.360
2020/01/31 21:55:59.5	94.290	0.150	-0.280	0.250
2020/01/31 21:55:59.6	94.290	0.150	-0.290	0.140
2020/01/31 21:55:59.7	94.290	0.150	-0.300	0.030
2020/01/31 21:55:59.8	94.290	0.160	-0.310	-0.080
2020/01/31 21:55:59.9	94.290	0.160	-0.320	-0.180
2020/01/31 21:56:00.0	94.290	0.150	-0.330	-0.290
2020/01/31 21:56:00.1	94.290	0.150	-0.330	-0.390
2020/01/31 21:56:00.2	94.290	0.150	-0.330	-0.490
2020/01/31 21:56:00.3	94.290	0.140	-0.330	-0.590
2020/01/31 21:56:00.4	94.280	0.140	-0.320	-0.680
2020/01/31 21:56:00.5	94.280	0.130	-0.320	-0.770
2020/01/31 21:56:00.6	94.270	0.120	-0.310	-0.850
2020/01/31 21:56:00.7	94.270	0.110	-0.300	-0.930
2020/01/31 21:56:00.8	94.260	0.100	-0.290	-1.010
2020/01/31 21:56:00.9	94.250	0.090	-0.270	-1.080
2020/01/31 21:56:01.0	94.240	0.080	-0.250	-1.150
2020/01/31 21:56:01.1	94.230	0.070	-0.240	-1.210
2020/01/31 21:56:01.2	94.220	0.050	-0.220	-1.270
2020/01/31 21:56:01.3	94.210	0.040	-0.200	-1.320
2020/01/31 21:56:01.4	94.200	0.020	-0.180	-1.370
2020/01/31 21:56:01.5	94.180	0.000	-0.160	-1.410
2020/01/31 21:56:01.6	94.170	-0.010	-0.140	-1.440
2020/01/31 21:56:01.7	94.160	-0.030	-0.120	-1.470
2020/01/31 21:56:01.8	94.140	-0.050	-0.090	-1.500
2020/01/31 21:56:01.9	94.120	-0.070	-0.070	-1.510
2020/01/31 21:56:02.0	94.110	-0.090	-0.050	-1.530
2020/01/31 21:56:02.1	94.090	-0.110	-0.030	-1.530
2020/01/31 21:56:02.2	94.060	-0.130	-0.010	-1.530
2020/01/31 21:56:02.3	94.040	-0.150	0.020	-1.530
2020/01/31 21:56:02.4	94.010	-0.170	0.040	-1.520
2020/01/31 21:56:02.5	93.980	-0.190	0.060	-1.510
2020/01/31 21:56:02.6	93.950	-0.210	0.070	-1.490
2020/01/31 21:56:02.7	93.920	-0.230	0.090	-1.460
2020/01/31 21:56:02.8	93.890	-0.250	0.110	-1.440
2020/01/31 21:56:02.9	93.860	-0.270	0.120	-1.400
2020/01/31 21:56:03.0	93.840	-0.290	0.140	-1.370
2020/01/31 21:56:03.1	93.810	-0.310	0.150	-1.330
2020/01/31 21:56:03.2	93.780	-0.330	0.160	-1.280
2020/01/31 21:56:03.3	93.750	-0.340	0.160	-1.240
2020/01/31 21:56:03.4	93.720	-0.360	0.170	-1.190
2020/01/31 21:56:03.5	93.690	-0.370	0.170	-1.140
2020/01/31 21:56:03.6	93.660	-0.390	0.170	-1.090
2020/01/31 21:56:03.7	93.630	-0.400	0.170	-1.030
2020/01/31 21:56:03.8	93.610	-0.410	0.160	-0.980
2020/01/31 21:56:03.9	93.580	-0.410	0.160	-0.920
2020/01/31 21:56:04.0	93.560	-0.420	0.140	-0.860
2020/01/31 21:56:04.1	93.540	-0.420	0.130	-0.800
2020/01/31 21:56:04.2	93.520	-0.420	0.110	-0.740
2020/01/31 21:56:04.3	93.510	-0.420	0.090	-0.680
2020/01/31 21:56:04.4	93.500	-0.420	0.060	-0.620
2020/01/31 21:56:04.5	93.490	-0.410	0.030	-0.560
2020/01/31 21:56:04.6	93.480	-0.400	-0.000	-0.500
2020/01/31 21:56:04.7	93.480	-0.390	-0.030	-0.440
2020/01/31 21:56:04.8	93.480	-0.370	-0.070	-0.380
2020/01/31 21:56:04.9	93.480	-0.350	-0.110	-0.320
2020/01/31 21:56:05.0	93.490	-0.330	-0.150	-0.260
2020/01/31 21:56:05.1	93.500	-0.310	-0.200	-0.200
2020/01/31 21:56:05.2	93.510	-0.280	-0.240	-0.150
2020/01/31 21:56:05.3	93.510	-0.250	-0.290	-0.090
2020/01/31 21:56:05.4	93.520	-0.220	-0.340	-0.030
2020/01/31 21:56:05.5	93.530	-0.190	-0.390	0.030
2020/01/31 21:56:05.6	93.550	-0.150	-0.440	0.080
2020/01/31 21:56:05.7	93.560	-0.120	-0.480	0.140
2020/01/31 21:56:05.8	93.570	-0.080	-0.530	0.200
2020/01/31 21:56:05.9	93.580	-0.040	-0.580	0.260
2020/01/31 21:56:06.0	93.590	0.010	-0.630	0.310
2020/01/31 21:56:06.1	93.600	0.050	-0.670	0.370
2020/01/31 21:56:06.2	93.620	0.090	-0.720	0.430
2020/01/31 21:56:06.3	93.630	0.140	-0.760	0.490
2020/01/31 21:56:06.4	93.640	0.180	-0.790	0.550
2020/01/31 21:56:06.5	93.660	0.230	-0.820	0.610
2020/01/31 21:56:06.6	93.670	0.270	-0.850	0.670
2020/01/31 21:56:06.7	93.680	0.320	-0.870	0.730
2020/01/31 21:56:06.8	93.690	0.360	-0.890	0.790
2020/01/31 21:56:06.9	93.700	0.400	-0.910	0.850
2020/01/31 21:56:07.0	93.720	0.440	-0.910	0.910
2020/01/31 21:56:07.1	93.720	0.480	-0.910	0.970
2020/01/31 21:56:07.2	93.730	0.520	-0.910	1.040
2020/01/31 21:56:07.3	93.730	0.550	-0.900	1.100
2020/01/31 21:56:07.4	93.740	0.580	-0.890	1.170
2020/01/31 21:56:07.5	93.740	0.610	-0.870	1.230
2020/01/31 21:56:07.6	93.740	0.630	-0.840	1.300
2020/01/31 21:56:07.7	93.740	0.660	-0.820	1.360
2020/01/31 21:56:07.8	93.740	0.680	-0.780	1.430
2020/01/31 21:56:07.9	93.730	0.690	-0.740	1.500
2020/01/31 21:56:08.0	93.740	0.700	-0.700	1.570
2020/01/31 21:56:08.1	93.730	0.710	-0.650	1.630
2020/01/31 21:56:08.2	93.720	0.720	-0.600	1.700
2020/01/31 21:56:08.3	93.710	0.720	-0.550	1.760
2020/01/31 21:56:08.4	93.700	0.720	-0.490	1.820
2020/01/31 21:56:08.5	93.690	0.710	-0.430	1.890
2020/01/31 21:56:08.6	93.670	0.700	-0.370	1.940
2020/01/31 21:56:08.7	93.660	0.690	-0.310	2.000
2020/01/31 21:56:08.8	93.640	0.670	-0.250	2.050
2020/01/31 21:56:08.9	93.620	0.650	-0.190	2.100
2020/01/31 21:56:09.0	93.600	0.630	-0.130	2.150
2020/01/31 21:56:09.1	93.580	0.600	-0.070	2.190
2020/01/31 21:56:09.2	93.570	0.570	-0.010	2.230
2020/01/31 21:56:09.3	93.550	0.540	0.050	2.270
2020/01/31 21:56:09.4	93.520	0.510	0.100	2.300
2020/01/31 21:56:09.5	93.500	0.470	0.160	2.320
2020/01/31 21:56:09.6	93.480	0.430	0.210	2.350
2020/01/31 21:56:09.7	93.460	0.390	0.260	2.360
2020/01/31 21:56:09.8	93.430	0.340	0.310	2.380
2020/01/31 21:56:09.9	93.410	0.300	0.350	2.390
2020/01/31 21:56:10.0	93.380	0.250	0.400	2.390
2020/01/31 21:56:10.1	93.350	0.210	0.440	2.390
2020/01/31 21:56:10.2	93.330	0.160	0.480	2.390
2020/01/31 21:56:10.3	93.300	0.110	0.510	2.380
2020/01/31 21:56:10.4	93.280	0.060	0.540	2.360
2020/01/31 21:56:10.5	93.260	0.010	0.570	2.340
2020/01/31 21:56:10.6	93.230	-0.030	0.590	2.320
2020/01/31 21:56:10.7	93.210	-0.080	0.610	2.290
2020/01/31 21:56:10.8	93.190	-0.130	0.630	2.260
2020/01/31 21:56:10.9	93.160	-0.180	0.650	2.220
2020/01/31 21:56:11.0	93.140	-0.220	0.660	2.180
2020/01/31 21:56:11.1	93.120	-0.260	0.670	2.130
2020/01/31 21:56:11.2	93.100	-0.310	0.670	2.080
2020/01/31 21:56:11.3	93.080	-0.350	0.670	2.030
2020/01/31 21:56:11.4	93.070	-0.380	0.670	1.970
2020/01/31 21:56:11.5	93.050	-0.420	0.660	1.910
2020/01/31 21:56:11.6	93.040	-0.450	0.650	1.840
2020/01/31 21:56:11.7	93.030	-0.480	0.630	1.770
2020/01/31 21:56:11.8	93.020	-0.510	0.610	1.700
2020/01/31 21:56:11.9	93.020	-0.540	0.590	1.630
2020/01/31 21:56:12.0	93.010	-0.560	0.560	1.550
2020/01/31 21:56:12.1	93.010	-0.580	0.530	1.470
2020/01/31 21:56:12.2	93.010	-0.590	0.500	1.390
2020/01/31 21:56:12.3	93.010	-0.610	0.460	1.300
2020/01/31 21:56:12.4	93.010	-0.620	0.410	1.220
2020/01/31 21:56:12.5	93.010	-0.620	0.370	1.130
2020/01/31 21:56:12.6	93.020	-0.630	0.310	1.040
2020/01/31 21:56:12.7	93.020	-0.630	0.260	0.950
2020/01/31 21:56:12.8	93.030	-0.620	0.200	0.860
2020/01/31 21:56:12.9	93.040	-0.610	0.140	0.770
2020/01/31 21:56:13.0	93.060	-0.600	0.080	0.670
2020/01/31 21:56:13.1	93.070	-0.590	0.010	0.570
2020/01/31 21:56:13.2	93.090	-0.570	-0.060	0.480
2020/01/31 21:56:13.3	93.110	-0.550	-0.130	0.380
2020/01/31 21:56:13.4	93.130	-0.530	-0.200	0.280
2020/01/31 21:56:13.5	93.150	-0.500	-0.280	0.190
2020/01/31 21:56:13.6	93.170	-0.470	-0.350	0.090
2020/01/31 21:56:13.7	93.200	-0.440	-0.420	-0.000
2020/01/31 21:56:13.8	93.230	-0.400	-0.500	-0.100
2020/01/31 21:56:13.9	93.250	-0.360	-0.570	-0.190
2020/01/31 21:56:14.0	93.280	-0.320	-0.650	-0.280
2020/01/31 21:56:14.1	93.310	-0.280	-0.720	-0.370
2020/01/31 21:56:14.2	93.350	-0.230	-0.780	-0.460
2020/01/31 21:56:14.3	93.380	-0.190	-0.850	-0.550
2020/01/31 21:56:14.4	93.410	-0.140	-0.910	-0.640
2020/01/31 21:56:14.5	93.450	-0.090	-0.970	-0.720
2020/01/31 21:56:14.6	93.480	-0.050	-1.030	-0.800
2020/01/31 21:56:14.7	93.520	0.000	-1.080	-0.880
2020/01/31 21:56:14.8	93.550	0.050	-1.120	-0.950
2020/01/31 21:56:14.9	93.580	0.100	-1.160	-1.010
2020/01/31 21:56:15.0	93.620	0.150	-1.200	-1.080
2020/01/31 21:56:15.1	93.650	0.200	-1.220	-1.140
2020/01/31 21:56:15.2	93.680	0.240	-1.250	-1.190
2020/01/31 21:56:15.3	93.710	0.290	-1.270	-1.240
2020/01/31 21:56:15.4	93.730	0.330	-1.280	-1.280
2020/01/31 21:56:15.5	93.760	0.370	-1.280	-1.320
2020/01/31 21:56:15.6	93.780	0.400	-1.280	-1.350
2020/01/31 21:56:15.7	93.800	0.440	-1.270	-1.380
2020/01/31 21:56:15.8	93.820	0.470	-1.260	-1.400
2020/01/31 21:56:15.9	93.840	0.500	-1.230	-1.410
2020/01/31 21:56:16.0	93.860	0.520	-1.210	-1.420
2020/01/31 21:56:16.1	93.870	0.540	-1.170	-1.420
2020/01/31 21:56:16.2	93.880	0.560	-1.130	-1.410
2020/01/31 21:56:16.3	93.890	0.570	-1.090	-1.400
2020/01/31 21:56:16.4	93.890	0.580	-1.030	-1.390
2020/01/31 21:56:16.5	93.900	0.580	-0.970	-1.360
2020/01/31 21:56:16.6	93.900	0.580	-0.910	-1.330
2020/01/31 21:56:16.7	93.900	0.570	-0.840	-1.300
2020/01/31 21:56:16.8	93.900	0.560	-0.770	-1.260
2020/01/31 21:56:16.9	93.890	0.540	-0.690	-1.220
2020/01/31 21:56:17.0	93.890	0.520	-0.600	-1.160
2020/01/31 21:56:17.1	93.880	0.490	-0.520	-1.110
2020/01/31 21:56:17.2	93.870	0.460	-0.430	-1.050
2020/01/31 21:56:17.3	93.860	0.430	-0.340	-0.980
2020/01/31 21:56:17.4	93.850	0.390	-0.250	-0.910
2020/01/31 21:56:17.5	93.840	0.350	-0.150	-0.840
2020/01/31 21:56:17.6	93.820	0.300	-0.060	-0.760
2020/01/31 21:56:17.7	93.800	0.250	0.040	-0.680
2020/01/31 21:56:17.8	93.790	0.200	0.140	-0.600
2020/01/31 21:56:17.9	93.770	0.150	0.230	-0.510
2020/01/31 21:56:18.0	93.740	0.090	0.330	-0.420
2020/01/31 21:56:18.1	93.720	0.030	0.420	-0.330
2020/01/31 21:56:18.2	93.700	-0.030	0.510	-0.230
2020/01/31 21:56:18.3	93.670	-0.090	0.600	-0.130
2020/01/31 21:56:18.4	93.650	-0.160	0.680	-0.030
2020/01/31 21:56:18.5	93.630	-0.220	0.760	0.070
2020/01/31 21:56:18.6	93.610	-0.280	0.840	0.170
2020/01/31 21:56:18.7	93.580	-0.340	0.910	0.270
2020/01/31 21:56:18.8	93.560	-0.410	0.980	0.370
2020/01/31 21:56:18.9	93.540	-0.460	1.040	0.470
2020/01/31 21:56:19.0	93.530	-0.520	1.090	0.570
2020/01/31 21:56:19.1	93.510	-0.570	1.130	0.670
2020/01/31 21:56:19.2	93.490	-0.630	1.170	0.770
2020/01/31 21:56:19.3	93.470	-0.670	1.200	0.860
2020/01/31 21:56:19.4	93.460	-0.720	1.220	0.950
2020/01/31 21:56:19.5	93.440	-0.760	1.230	1.040
2020/01/31 21:56:19.6	93.430	-0.790	1.230	1.120
2020/01/31 21:56:19.7	93.410	-0.820	1.230	1.200
2020/01/31 21:56:19.8	93.400	-0.850	1.210	1.280
2020/01/31 21:56:19.9	93.390	-0.870	1.190	1.350
2020/01/31 21:56:20.0	93.380	-0.880	1.160	1.410
2020/01/31 21:56:20.1	93.380	-0.890	1.120	1.480
2020/01/31 21:56:20.2	93.370	-0.890	1.070	1.540
2020/01/31 21:56:20.3	93.370	-0.890	1.010	1.600
2020/01/31 21:56:20.4	93.370	-0.880	0.940	1.650
2020/01/31 21:56:20.5	93.370	-0.860	0.870	1.700
2020/01/31 21:56:20.6	93.370	-0.840	0.790	1.740
2020/01/31 21:56:20.7	93.380	-0.810	0.700	1.780
2020/01/31 21:56:20.8	93.380	-0.780	0.610	1.820
2020/01/31 21:56:20.9	93.390	-0.740	0.510	1.850
2020/01/31 21:56:21.0	93.400	-0.700	0.400	1.880
2020/01/31 21:56:21.1	93.410	-0.650	0.290	1.900
2020/01/31 21:56:21.2	93.430	-0.590	0.180	1.920
2020/01/31 21:56:21.3	93.440	-0.530	0.060	1.940
2020/01/31 21:56:21.4	93.460	-0.470	-0.060	1.950
2020/01/31 21:56:21.5	93.480	-0.400	-0.180	1.970
2020/01/31 21:56:21.6	93.500	-0.330	-0.300	1.970
2020/01/31 21:56:21.7	93.520	-0.260	-0.420	1.980
2020/01/31 21:56:21.8	93.530	-0.180	-0.550	1.990
2020/01/31 21:56:21.9	93.560	-0.110	-0.670	1.990
2020/01/31 21:56:22.0	93.570	-0.030	-0.780	1.990
2020/01/31 21:56:22.1	93.590	0.050	-0.900	1.990
2020/01/31 21:56:22.2	93.610	0.130	-1.010	1.980
2020/01/31 21:56:22.3	93.630	0.220	-1.110	1.980
2020/01/31 21:56:22.4	93.660	0.300	-1.220	1.980
2020/01/31 21:56:22.5	93.680	0.370	-1.310	1.970
2020/01/31 21:56:22.6	93.700	0.450	-1.400	1.960
2020/01/31 21:56:22.7	93.710	0.530	-1.480	1.960
2020/01/31 21:56:22.8	93.730	0.600	-1.560	1.950
2020/01/31 21:56:22.9	93.750	0.670	-1.620	1.940
2020/01/31 21:56:23.0	93.780	0.730	-1.680	1.930
2020/01/31 21:56:23.1	93.790	0.800	-1.730	1.930
2020/01/31 21:56:23.2	93.810	0.850	-1.770	1.920
2020/01/31 21:56:23.3	93.820	0.910	-1.790	1.910
2020/01/31 21:56:23.4	93.840	0.960	-1.810	1.900
2020/01/31 21:56:23.5	93.850	1.000	-1.820	1.900
2020/01/31 21:56:23.6	93.860	1.040	-1.820	1.890
2020/01/31 21:56:23.7	93.860	1.070	-1.810	1.890
2020/01/31 21:56:23.8	93.870	1.100	-1.790	1.880
2020/01/31 21:56:23.9	93.880	1.120	-1.760	1.880
2020/01/31 21:56:24.0	93.880	1.140	-1.720	1.880
2020/01/31 21:56:24.1	93.880	1.150	-1.670	1.870
2020/01/31 21:56:24.2	93.880	1.150	-1.610	1.870
2020/01/31 21:56:24.3	93.880	1.150	-1.540	1.860
2020/01/31 21:56:24.4	93.880	1.140	-1.470	1.860
2020/01/31 21:56:24.5	93.880	1.130	-1.380	1.850
2020/01/31 21:56:24.6	93.880	1.110	-1.290	1.850
2020/01/31 21:56:24.7	93.870	1.090	-1.190	1.840
2020/01/31 21:56:24.8	93.870	1.060	-1.090	1.840
2020/01/31 21:56:24.9	93.860	1.020	-0.980	1.830
2020/01/31 21:56:25.0	93.860	0.980	-0.860	1.810
2020/01/31 21:56:25.1	93.850	0.940	-0.740	1.800
2020/01/31 21:56:25.2	93.850	0.890	-0.620	1.790
2020/01/31 21:56:25.3	93.840	0.840	-0.500	1.770
2020/01/31 21:56:25.4	93.830	0.790	-0.370	1.750
2020/01/31 21:56:25.5	93.830	0.730	-0.250	1.730
2020/01/31 21:56:25.6	93.820	0.670	-0.120	1.700
2020/01/31 21:56:25.7	93.820	0.600	0.000	1.680
2020/01/31 21:56:25.8	93.810	0.530	0.120	1.650
2020/01/31 21:56:25.9	93.810	0.470	0.240	1.610
2020/01/31 21:56:26.0	93.800	0.400	0.360	1.570
2020/01/31 21:56:26.1	93.800	0.320	0.470	1.530
2020/01/31 21:56:26.2	93.800	0.250	0.580	1.480
2020/01/31 21:56:26.3	93.800	0.180	0.680	1.430
2020/01/31 21:56:26.4	93.800	0.110	0.780	1.380
2020/01/31 21:56:26.5	93.810	0.040	0.860	1.320
2020/01/31 21:56:26.6	93.810	-0.040	0.950	1.260
2020/01/31 21:56:26.7	93.820	-0.110	1.020	1.190
2020/01/31 21:56:26.8	93.820	-0.180	1.090	1.130
2020/01/31 21:56:26.9	93.830	-0.240	1.150	1.050
2020/01/31 21:56:27.0	93.830	-0.310	1.210	0.980
2020/01/31 21:56:27.1	93.840	-0.370	1.260	0.900
2020/01/31 21:56:27.2	93.850	-0.440	1.290	0.820
2020/01/31 21:56:27.3	93.860	-0.500	1.320	0.750
2020/01/31 21:56:27.4	93.870	-0.550	1.350	0.670
2020/01/31 21:56:27.5	93.880	-0.600	1.360	0.590
2020/01/31 21:56:27.6	93.890	-0.650	1.370	0.510
2020/01/31 21:56:27.7	93.890	-0.700	1.370	0.430
2020/01/31 21:56:27.8	93.900	-0.740	1.360	0.350
2020/01/31 21:56:27.9	93.900	-0.780	1.340	0.280
2020/01/31 21:56:28.0	93.900	-0.820	1.320	0.200
2020/01/31 21:56:28.1	93.900	-0.850	1.290	0.130
2020/01/31 21:56:28.2	93.900	-0.870	1.250	0.060
2020/01/31 21:56:28.3	93.900	-0.900	1.210	-0.010
2020/01/31 21:56:28.4	93.900	-0.920	1.170	-0.070
2020/01/31 21:56:28.5	93.900	-0.930	1.110	-0.130
2020/01/31 21:56:28.6	93.890	-0.940	1.050	-0.190
2020/01/31 21:56:28.7	93.890	-0.950	0.990	-0.250
2020/01/31 21:56:28.8	93.880	-0.950	0.920	-0.300
2020/01/31 21:56:28.9	93.870	-0.950	0.850	-0.340
2020/01/31 21:56:29.0	93.870	-0.940	0.770	-0.390
2020/01/31 21:56:29.1	93.860	-0.930	0.680	-0.430
2020/01/31 21:56:29.2	93.840	-0.920	0.600	-0.470
2020/01/31 21:56:29.3	93.830	-0.900	0.510	-0.500
2020/01/31 21:56:29.4	93.820	-0.880	0.420	-0.540
2020/01/31 21:56:29.5	93.800	-0.860	0.320	-0.570
2020/01/31 21:56:29.6	93.790	-0.830	0.230	-0.590
2020/01/31 21:56:29.7	93.770	-0.800	0.130	-0.620
2020/01/31 21:56:29.8	93.750	-0.770	0.030	-0.640
2020/01/31 21:56:29.9	93.740	-0.740	-0.070	-0.660
2020/01/31 21:56:30.0	93.720	-0.700	-0.170	-0.680
2020/01/31 21:56:30.1	93.700	-0.660	-0.270	-0.700
2020/01/31 21:56:30.2	93.690	-0.620	-0.370	-0.710
2020/01/31 21:56:30.3	93.670	-0.570	-0.470	-0.720
2020/01/31 21:56:30.4	93.660	-0.530	-0.570	-0.730
2020/01/31 21:56:30.5	93.650	-0.480	-0.670	-0.740
2020/01/31 21:56:30.6	93.640	-0.430	-0.760	-0.750
2020/01/31 21:56:30.7	93.630	-0.380	-0.850	-0.760
2020/01/31 21:56:30.8	93.620	-0.330	-0.940	-0.770
2020/01/31 21:56:30.9	93.620	-0.280	-1.020	-0.780
2020/01/31 21:56:31.0	93.620	-0.230	-1.100	-0.780
2020/01/31 21:56:31.1	93.620	-0.180	-1.180	-0.790
2020/01/31 21:56:31.2	93.620	-0.130	-1.250	-0.790
2020/01/31 21:56:31.3	93.630	-0.080	-1.310	-0.800
2020/01/31 21:56:31.4	93.630	-0.030	-1.370	-0.800
2020/01/31 21:56:31.5	93.640	0.020	-1.420	-0.800
2020/01/31 21:56:31.6	93.650	0.070	-1.460	-0.800
2020/01/31 21:56:31.7	93.670	0.110	-1.500	-0.800
2020/01/31 21:56:31.8	93.680	0.160	-1.530	-0.800
2020/01/31 21:56:31.9	93.700	0.200	-1.550	-0.800
2020/01/31 21:56:32.0	93.710	0.240	-1.570	-0.800
2020/01/31 21:56:32.1	93.740	0.290	-1.570	-0.800
2020/01/31 21:56:32.2	93.760	0.320	-1.570	-0.800
2020/01/31 21:56:32.3	93.780	0.360	-1.570	-0.800
2020/01/31 21:56:32.4	93.810	0.400	-1.550	-0.790
2020/01/31 21:56:32.5	93.830	0.430	-1.530	-0.790
2020/01/31 21:56:32.6	93.860	0.460	-1.500	-0.780
2020/01/31 21:56:32.7	93.890	0.480	-1.460	-0.770
2020/01/31 21:56:32.8	93.920	0.510	-1.420	-0.770
2020/01/31 21:56:32.9	93.940	0.530	-1.370	-0.760
2020/01/31 21:56:33.0	93.970	0.550	-1.310	-0.750
2020/01/31 21:56:33.1	93.990	0.570	-1.250	-0.730
2020/01/31 21:56:33.2	94.020	0.580	-1.180	-0.720
2020/01/31 21:56:33.3	94.050	0.590	-1.110	-0.700
2020/01/31 21:56:33.4	94.080	0.600	-1.030	-0.680
2020/01/31 21:56:33.5	94.110	0.610	-0.950	-0.650
2020/01/31 21:56:33.6	94.130	0.610	-0.870	-0.630
2020/01/31 21:56:33.7	94.160	0.610	-0.780	-0.600
2020/01/31 21:56:33.8	94.180	0.610	-0.690	-0.560
2020/01/31 21:56:33.9	94.200	0.610	-0.600	-0.530
2020/01/31 21:56:34.0	94.230	0.600	-0.500	-0.490
2020/01/31 21:56:34.1	94.250	0.590	-0.400	-0.440
2020/01/31 21:56:34.2	94.260	0.570	-0.310	-0.400
2020/01/31 21:56:34.3	94.280	0.560	-0.210	-0.350
2020/01/31 21:56:34.4	94.280	0.540	-0.120	-0.300
2020/01/31 21:56:34.5	94.290	0.520	-0.020	-0.240
2020/01/31 21:56:34.6	94.300	0.500	0.070	-0.180
2020/01/31 21:56:34.7	94.300	0.470	0.160	-0.120
2020/01/31 21:56:34.8	94.300	0.450	0.250	-0.060
2020/01/31 21:56:34.9	94.290	0.420	0.330	0.010
2020/01/31 21:56:35.0	94.280	0.390	0.410	0.080
2020/01/31 21:56:35.1	94.270	0.360	0.490	0.150
2020/01/31 21:56:35.2	94.260	0.330	0.560	0.220
2020/01/31 21:56:35.3	94.240	0.300	0.630	0.300
2020/01/31 21:56:35.4	94.220	0.260	0.690	0.370
2020/01/31 21:56:35.5	94.210	0.230	0.750	0.450
2020/01/31 21:56:35.6	94.190	0.200	0.800	0.530
2020/01/31 21:56:35.7	94.170	0.160	0.850	0.610
2020/01/31 21:56:35.8	94.140	0.130	0.890	0.690
2020/01/31 21:56:35.9	94.120	0.100	0.920	0.770
2020/01/31 21:56:36.0	94.100	0.070	0.940	0.850
2020/01/31 21:56:36.1	94.070	0.040	0.960	0.930
2020/01/31 21:56:36.2	94.050	0.010	0.970	1.000
2020/01/31 21:56:36.3	94.030	-0.020	0.970	1.080
2020/01/31 21:56:36.4	94.010	-0.050	0.960	1.150
2020/01/31 21:56:36.5	93.990	-0.070	0.950	1.220
2020/01/31 21:56:36.6	93.970	-0.090	0.930	1.290
2020/01/31 21:56:36.7	93.950	-0.110	0.900	1.360
2020/01/31 21:56:36.8	93.940	-0.130	0.860	1.420
2020/01/31 21:56:36.9	93.920	-0.150	0.820	1.480
2020/01/31 21:56:37.0	93.930	-0.160	0.780	1.540
2020/01/31 21:56:37.1	93.920	-0.180	0.720	1.590
2020/01/31 21:56:37.2	93.910	-0.190	0.660	1.640
2020/01/31 21:56:37.3	93.910	-0.190	0.600	1.690
2020/01/31 21:56:37.4	93.900	-0.200	0.530	1.730
2020/01/31 21:56:37.5	93.900	-0.200	0.460	1.770
2020/01/31 21:56:37.6	93.910	-0.200	0.380	1.810
2020/01/31 21:56:37.7	93.910	-0.200	0.310	1.840
2020/01/31 21:56:37.8	93.920	-0.200	0.230	1.860
2020/01/31 21:56:37.9	93.930	-0.200	0.140	1.880
2020/01/31 21:56:38.0	93.950	-0.190	0.060	1.900
2020/01/31 21:56:38.1	93.960	-0.190	-0.020	1.910
2020/01/31 21:56:38.2	93.970	-0.180	-0.100	1.920
2020/01/31 21:56:38.3	93.990	-0.170	-0.190	1.920
2020/01/31 21:56:38.4	94.010	-0.160	-0.260	1.910
2020/01/31 21:56:38.5	94.030	-0.150	-0.340	1.910
2020/01/31 21:56:38.6	94.050	-0.140	-0.420	1.890
2020/01/31 21:56:38.7	94.070	-0.130	-0.490	1.880
2020/01/31 21:56:38.8	94.090	-0.120	-0.550	1.860
2020/01/31 21:56:38.9	94.120	-0.100	-0.620	1.830
2020/01/31 21:56:39.0	94.150	-0.090	-0.680	1.800
2020/01/31 21:56:39.1	94.170	-0.080	-0.740	1.770
2020/01/31 21:56:39.2	94.200	-0.070	-0.780	1.740
2020/01/31 21:56:39.3	94.220	-0.060	-0.830	1.710
2020/01/31 21:56:39.4	94.250	-0.040	-0.860	1.670
2020/01/31 21:56:39.5	94.270	-0.030	-0.900	1.630
2020/01/31 21:56:39.6	94.300	-0.020	-0.920	1.590
2020/01/31 21:56:39.7	94.320	-0.010	-0.940	1.550
2020/01/31 21:56:39.8	94.340	-0.000	-0.960	1.510
2020/01/31 21:56:39.9	94.370	0.010	-0.970	1.470
2020/01/31 21:56:40.0	94.390	0.010	-0.970	1.430
2020/01/31 21:56:40.1	94.410	0.020	-0.960	1.390
2020/01/31 21:56:40.2	94.430	0.030	-0.960	1.340
2020/01/31 21:56:40.3	94.450	0.030	-0.950	1.300
2020/01/31 21:56:40.4	94.470	0.040	-0.930	1.260
2020/01/31 21:56:40.5	94.490	0.040	-0.910	1.220
2020/01/31 21:56:40.6	94.510	0.040	-0.880	1.190
2020/01/31 21:56:40.7	94.530	0.040	-0.850	1.150
2020/01/31 21:56:40.8	94.540	0.040	-0.820	1.110
2020/01/31 21:56:40.9	94.560	0.040	-0.780	1.080
2020/01/31 21:56:41.0	94.570	0.040	-0.740	1.040
2020/01/31 21:56:41.1	94.590	0.030	-0.700	1.010
2020/01/31 21:56:41.2	94.600	0.030	-0.650	0.980
2020/01/31 21:56:41.3	94.610	0.020	-0.600	0.950
2020/01/31 21:56:41.4	94.620	0.020	-0.560	0.920
2020/01/31 21:56:41.5	94.630	0.010	-0.500	0.900
2020/01/31 21:56:41.6	94.640	0.000	-0.450	0.870
2020/01/31 21:56:41.7	94.640	-0.010	-0.400	0.850
2020/01/31 21:56:41.8	94.650	-0.020	-0.350	0.820
2020/01/31 21:56:41.9	94.650	-0.030	-0.300	0.800
2020/01/31 21:56:42.0	94.660	-0.040	-0.240	0.770
2020/01/31 21:56:42.1	94.660	-0.050	-0.190	0.750
2020/01/31 21:56:42.2	94.660	-0.060	-0.140	0.730
2020/01/31 21:56:42.3	94.660	-0.070	-0.090	0.700
2020/01/31 21:56:42.4	94.660	-0.080	-0.050	0.680
2020/01/31 21:56:42.5	94.650	-0.100	-0.010	0.660
2020/01/31 21:56:42.6	94.640	-0.110	0.040	0.630
2020/01/31 21:56:42.7	94.640	-0.120	0.070	0.610
2020/01/31 21:56:42.8	94.630	-0.130	0.110	0.580
2020/01/31 21:56:42.9	94.620	-0.140	0.140	0.560
2020/01/31 21:56:43.0	94.600	-0.150	0.170	0.530
2020/01/31 21:56:43.1	94.590	-0.160	0.190	0.500
2020/01/31 21:56:43.2	94.580	-0.160	0.210	0.470
2020/01/31 21:56:43.3	94.570	-0.170	0.230	0.440
2020/01/31 21:56:43.4	94.560	-0.170	0.240	0.410
2020/01/31 21:56:43.5	94.550	-0.170	0.250	0.370
2020/01/31 21:56:43.6	94.530	-0.170	0.260	0.340
2020/01/31 21:56:43.7	94.520	-0.170	0.260	0.310
2020/01/31 21:56:43.8	94.510	-0.170	0.260	0.270
2020/01/31 21:56:43.9	94.500	-0.160	0.250	0.240
2020/01/31 21:56:44.0	94.490	-0.160	0.240	0.200
2020/01/31 21:56:44.1	94.480	-0.150	0.230	0.160
2020/01/31 21:56:44.2	94.460	-0.140	0.220	0.120
2020/01/31 21:56:44.3	94.460	-0.130	0.200	0.090
2020/01/31 21:56:44.4	94.450	-0.110	0.180	0.050
2020/01/31 21:56:44.5	94.440	-0.100	0.160	0.010
2020/01/31 21:56:44.6	94.430	-0.080	0.130	-0.020
2020/01/31 21:56:44.7	94.420	-0.060	0.110	-0.060
2020/01/31 21:56:44.8	94.420	-0.040	0.080	-0.090
2020/01/31 21:56:44.9	94.410	-0.020	0.050	-0.130
2020/01/31 21:56:45.0	94.410	0.000	0.020	-0.160
2020/01/31 21:56:45.1	94.410	0.030	-0.000	-0.190
2020/01/31 21:56:45.2	94.410	0.050	-0.030	-0.230
2020/01/31 21:56:45.3	94.410	0.070	-0.060	-0.260
2020/01/31 21:56:45.4	94.400	0.090	-0.090	-0.290
2020/01/31 21:56:45.5	94.400	0.120	-0.120	-0.310
2020/01/31 21:56:45.6	94.400	0.140	-0.140	-0.340
2020/01/31 21:56:45.7	94.400	0.160	-0.170	-0.370
2020/01/31 21:56:45.8	94.400	0.180	-0.190	-0.390
2020/01/31 21:56:45.9	94.410	0.200	-0.210	-0.410
2020/01/31 21:56:46.0	94.400	0.220	-0.230	-0.430
2020/01/31 21:56:46.1	94.400	0.240	-0.250	-0.450
2020/01/31 21:56:46.2	94.400	0.250	-0.260	-0.470
2020/01/31 21:56:46.3	94.400	0.260	-0.270	-0.480
2020/01/31 21:56:46.4	94.400	0.280	-0.280	-0.500
2020/01/31 21:56:46.5	94.400	0.280	-0.280	-0.510
2020/01/31 21:56:46.6	94.400	0.290	-0.280	-0.520
2020/01/31 21:56:46.7	94.400	0.300	-0.280	-0.530
2020/01/31 21:56:46.8	94.400	0.300	-0.280	-0.540
2020/01/31 21:56:46.9	94.400	0.300	-0.270	-0.540
2020/01/31 21:56:47.0	94.410	0.300	-0.260	-0.550
2020/01/31 21:56:47.1	94.400	0.290	-0.250	-0.550
2020/01/31 21:56:47.2	94.400	0.280	-0.240	-0.550
2020/01/31 21:56:47.3	94.400	0.280	-0.230	-0.560
2020/01/31 21:56:47.4	94.400	0.270	-0.210	-0.550
2020/01/31 21:56:47.5	94.390	0.250	-0.190	-0.550
2020/01/31 21:56:47.6	94.390	0.240	-0.180	-0.550
2020/01/31 21:56:47.7	94.390	0.220	-0.160	-0.550
2020/01/31 21:56:47.8	94.390	0.200	-0.130	-0.540
2020/01/31 21:56:47.9	94.380	0.180	-0.110	-0.540
2020/01/31 21:56:48.0	94.390	0.160	-0.090	-0.530
2020/01/31 21:56:48.1	94.390	0.140	-0.070	-0.520
2020/01/31 21:56:48.2	94.390	0.120	-0.050	-0.510
2020/01/31 21:56:48.3	94.390	0.090	-0.030	-0.500
2020/01/31 21:56:48.4	94.380	0.070	-0.010	-0.490
2020/01/31 21:56:48.5	94.380	0.050	0.010	-0.470
2020/01/31 21:56:48.6	94.380	0.020	0.020	-0.460
2020/01/31 21:56:48.7	94.380	-0.000	0.040	-0.440
2020/01/31 21:56:48.8	94.370	-0.020	0.050	-0.420
2020/01/31 21:56:48.9	94.370	-0.050	0.060	-0.390
2020/01/31 21:56:49.0	94.370	-0.070	0.070	-0.370
2020/01/31 21:56:49.1	94.370	-0.090	0.070	-0.340
2020/01/31 21:56:49.2	94.370	-0.110	0.080	-0.310
2020/01/31 21:56:49.3	94.370	-0.130	0.080	-0.270
2020/01/31 21:56:49.4	94.370	-0.140	0.070	-0.240
2020/01/31 21:56:49.5	94.370	-0.160	0.070	-0.200
2020/01/31 21:56:49.6	94.370	-0.170	0.060	-0.160
2020/01/31 21:56:49.7	94.370	-0.180	0.040	-0.110
2020/01/31 21:56:49.8	94.380	-0.190	0.030	-0.060
2020/01/31 21:56:49.9	94.380	-0.190	0.010	-0.010
2020/01/31 21:56:50.0	94.390	-0.200	-0.020	0.040
2020/01/31 21:56:50.1	94.400	-0.200	-0.050	0.100
2020/01/31 21:56:50.2	94.400	-0.200	-0.080	0.160
2020/01/31 21:56:50.3	94.410	-0.190	-0.110	0.220
2020/01/31 21:56:50.4	94.410	-0.190	-0.150	0.290
2020/01/31 21:56:50.5	94.420	-0.180	-0.190	0.350
2020/01/31 21:56:50.6	94.420	-0.170	-0.230	0.420
2020/01/31 21:56:50.7	94.420	-0.160	-0.270	0.490
2020/01/31 21:56:50.8	94.430	-0.150	-0.310	0.570
2020/01/31 21:56:50.9	94.430	-0.140	-0.360	0.640
2020/01/31 21:56:51.0	94.430	-0.120	-0.400	0.720
2020/01/31 21:56:51.1	94.430	-0.110	-0.440	0.800
2020/01/31 21:56:51.2	94.430	-0.090	-0.490	0.880
2020/01/31 21:56:51.3	94.430	-0.070	-0.530	0.960
2020/01/31 21:56:51.4	94.420	-0.050	-0.570	1.040
2020/01/31 21:56:51.5	94.420	-0.030	-0.610	1.120
2020/01/31 21:56:51.6	94.410	-0.020	-0.650	1.200
2020/01/31 21:56:51.7	94.400	0.000	-0.680	1.280
2020/01/31 21:56:51.8	94.400	0.020	-0.720	1.360
2020/01/31 21:56:51.9	94.390	0.040	-0.740	1.430
2020/01/31 21:56:52.0	94.380	0.060	-0.770	1.510
2020/01/31 21:56:52.1	94.360	0.080	-0.790	1.580
2020/01/31 21:56:52.2	94.350	0.100	-0.810	1.650
2020/01/31 21:56:52.3	94.340	0.110	-0.820	1.720
2020/01/31 21:56:52.4	94.330	0.130	-0.830	1.780
2020/01/31 21:56:52.5	94.310	0.140	-0.830	1.850
2020/01/31 21:56:52.6	94.300	0.160	-0.830	1.900
2020/01/31 21:56:52.7	94.280	0.170	-0.830	1.960
2020/01/31 21:56:52.8	94.270	0.190	-0.820	2.010
2020/01/31 21:56:52.9	94.250	0.200	-0.800	2.060
2020/01/31 21:56:53.0	94.230	0.210	-0.780	2.100
2020/01/31 21:56:53.1	94.210	0.220	-0.760	2.140
2020/01/31 21:56:53.2	94.190	0.220	-0.730	2.180
2020/01/31 21:56:53.3	94.170	0.230	-0.690	2.210
2020/01/31 21:56:53.4	94.150	0.240	-0.650	2.240
2020/01/31 21:56:53.5	94.130	0.240	-0.610	2.270
2020/01/31 21:56:53.6	94.110	0.240	-0.560	2.290
2020/01/31 21:56:53.7	94.090	0.240	-0.510	2.310
2020/01/31 21:56:53.8	94.070	0.240	-0.460	2.320
2020/01/31 21:56:53.9	94.040	0.240	-0.410	2.330
2020/01/31 21:56:54.0	94.030	0.240	-0.340	2.340
2020/01/31 21:56:54.1	94.000	0.240	-0.280	2.340
2020/01/31 21:56:54.2	93.980	0.230	-0.220	2.340
2020/01/31 21:56:54.3	93.950	0.230	-0.170	2.330
2020/01/31 21:56:54.4	93.930	0.220	-0.110	2.320
2020/01/31 21:56:54.5	93.910	0.220	-0.050	2.300
2020/01/31 21:56:54.6	93.880	0.210	0.010	2.280
2020/01/31 21:56:54.7	93.860	0.200	0.070	2.260
2020/01/31 21:56:54.8	93.830	0.190	0.120	2.230
2020/01/31 21:56:54.9	93.810	0.180	0.170	2.190
2020/01/31 21:56:55.0	93.780	0.170	0.220	2.150
2020/01/31 21:56:55.1	93.750	0.160	0.270	2.110
2020/01/31 21:56:55.2	93.730	0.150	0.310	2.070
2020/01/31 21:56:55.3	93.710	0.140	0.350	2.020
2020/01/31 21:56:55.4	93.690	0.120	0.390	1.960
2020/01/31 21:56:55.5	93.670	0.110	0.420	1.910
2020/01/31 21:56:55.6	93.650	0.100	0.440	1.850
2020/01/31 21:56:55.7	93.630	0.090	0.460	1.780
2020/01/31 21:56:55.8	93.620	0.070	0.480	1.720
2020/01/31 21:56:55.9	93.610	0.060	0.490	1.640
2020/01/31 21:56:56.0	93.600	0.050	0.500	1.560
2020/01/31 21:56:56.1	93.590	0.040	0.500	1.480
2020/01/31 21:56:56.2	93.580	0.030	0.490	1.400
2020/01/31 21:56:56.3	93.570	0.020	0.490	1.320
2020/01/31 21:56:56.4	93.570	0.010	0.480	1.230
2020/01/31 21:56:56.5	93.570	-0.000	0.460	1.140
2020/01/31 21:56:56.6	93.570	-0.010	0.440	1.040
2020/01/31 21:56:56.7	93.570	-0.020	0.410	0.950
2020/01/31 21:56:56.8	93.570	-0.030	0.390	0.850
2020/01/31 21:56:56.9	93.580	-0.030	0.360	0.750
2020/01/31 21:56:57.0	93.580	-0.040	0.330	0.650
2020/01/31 21:56:57.1	93.580	-0.050	0.290	0.550
2020/01/31 21:56:57.2	93.590	-0.050	0.250	0.450
2020/01/31 21:56:57.3	93.600	-0.060	0.210	0.360
2020/01/31 21:56:57.4	93.600	-0.060	0.170	0.260
2020/01/31 21:56:57.5	93.610	-0.070	0.130	0.160
2020/01/31 21:56:57.6	93.620	-0.070	0.090	0.070
2020/01/31 21:56:57.7	93.620	-0.070	0.040	-0.020
2020/01/31 21:56:57.8	93.630	-0.080	-0.000	-0.110
2020/01/31 21:56:57.9	93.630	-0.080	-0.040	-0.200
2020/01/31 21:56:58.0	93.640	-0.090	-0.090	-0.280
2020/01/31 21:56:58.1	93.640	-0.090	-0.130	-0.360
2020/01/31 21:56:58.2	93.640	-0.090	-0.170	-0.440
2020/01/31 21:56:58.3	93.640	-0.100	-0.210	-0.510
2020/01/31 21:56:58.4	93.650	-0.100	-0.250	-0.580
2020/01/31 21:56:58.5	93.640	-0.100	-0.290	-0.640
2020/01/31 21:56:58.6	93.640	-0.110	-0.330	-0.700
2020/01/31 21:56:58.7	93.640	-0.110	-0.360	-0.750
2020/01/31 21:56:58.8	93.630	-0.120	-0.390	-0.800
2020/01/31 21:56:58.9	93.620	-0.130	-0.420	-0.840
2020/01/31 21:56:59.0	93.610	-0.130	-0.450	-0.880
2020/01/31 21:56:59.1	93.600	-0.140	-0.480	-0.920
2020/01/31 21:56:59.2	93.590	-0.150	-0.500	-0.940
2020/01/31 21:56:59.3	93.570	-0.160	-0.520	-0.970
2020/01/31 21:56:59.4	93.550	-0.170	-0.540	-0.980
2020/01/31 21:56:59.5	93.540	-0.180	-0.550	-0.990
2020/01/31 21:56:59.6	93.520	-0.190	-0.560	-1.000
2020/01/31 21:56:59.7	93.490	-0.200	-0.570	-1.000
2020/01/31 21:56:59.8	93.470	-0.210	-0.580	-1.000
2020/01/31 21:56:59.9	93.450	-0.220	-0.580	-0.990
2020/01/31 21:57:00.0	93.410	-0.230	-0.580	-0.980
2020/01/31 21:57:00.1	93.390	-0.250	-0.580	-0.960
2020/01/31 21:57:00.2	93.360	-0.260	-0.580	-0.950
2020/01/31 21:57:00.3	93.340	-0.270	-0.570	-0.920
2020/01/31 21:57:00.4	93.310	-0.290	-0.560	-0.900
2020/01/31 21:57:00.5	93.280	-0.300	-0.550	-0.870
2020/01/31 21:57:00.6	93.260	-0.310	-0.530	-0.840
2020/01/31 21:57:00.7	93.230	-0.320	-0.510	-0.800
2020/01/31 21:57:00.8	93.200	-0.340	-0.490	-0.770
2020/01/31 21:57:00.9	93.180	-0.350	-0.470	-0.730
2020/01/31 21:57:01.0	93.150	-0.360	-0.450	-0.690
2020/01/31 21:57:01.1	93.130	-0.360	-0.420	-0.650
2020/01/31 21:57:01.2	93.100	-0.370	-0.400	-0.610
2020/01/31 21:57:01.3	93.080	-0.380	-0.370	-0.570
2020/01/31 21:57:01.4	93.060	-0.380	-0.340	-0.530
2020/01/31 21:57:01.5	93.040	-0.380	-0.310	-0.480
2020/01/31 21:57:01.6	93.020	-0.380	-0.280	-0.440
2020/01/31 21:57:01.7	93.000	-0.380	-0.250	-0.400
2020/01/31 21:57:01.8	92.980	-0.380	-0.220	-0.360
2020/01/31 21:57:01.9	92.970	-0.370	-0.190	-0.320
2020/01/31 21:57:02.0	92.950	-0.360	-0.160	-0.280
2020/01/31 21:57:02.1	92.940	-0.350	-0.130	-0.240
2020/01/31 21:57:02.2	92.920	-0.340	-0.100	-0.200
2020/01/31 21:57:02.3	92.910	-0.320	-0.080	-0.160
2020/01/31 21:57:02.4	92.900	-0.300	-0.050	-0.130
2020/01/31 21:57:02.5	92.890	-0.280	-0.020	-0.090
2020/01/31 21:57:02.6	92.880	-0.260	0.000	-0.060
2020/01/31 21:57:02.7	92.870	-0.230	0.020	-0.020
2020/01/31 21:57:02.8	92.860	-0.210	0.050	0.010
2020/01/31 21:57:02.9	92.850	-0.180	0.060	0.040
2020/01/31 21:57:03.0	92.840	-0.150	0.080	0.070
2020/01/31 21:57:03.1	92.830	-0.110	0.090	0.100
2020/01/31 21:57:03.2	92.820	-0.080	0.100	0.120
2020/01/31 21:57:03.3	92.820	-0.040	0.110	0.150
2020/01/31 21:57:03.4	92.810	-0.010	0.120	0.170
2020/01/31 21:57:03.5	92.800	0.030	0.120	0.190
2020/01/31 21:57:03.6	92.800	0.070	0.120	0.220
2020/01/31 21:57:03.7	92.800	0.110	0.110	0.240
2020/01/31 21:57:03.8	92.790	0.150	0.100	0.260
2020/01/31 21:57:03.9	92.790	0.190	0.090	0.270
2020/01/31 21:57:04.0	92.790	0.230	0.080	0.290
2020/01/31 21:57:04.1	92.790	0.270	0.060	0.310
2020/01/31 21:57:04.2	92.790	0.310	0.040	0.320
2020/01/31 21:57:04.3	92.790	0.350	0.010	0.330
2020/01/31 21:57:04.4	92.800	0.390	-0.020	0.350
2020/01/31 21:57:04.5	92.800	0.430	-0.050	0.360
2020/01/31 21:57:04.6	92.810	0.460	-0.080	0.370
2020/01/31 21:57:04.7	92.820	0.500	-0.120	0.370
2020/01/31 21:57:04.8	92.830	0.530	-0.160	0.380
2020/01/31 21:57:04.9	92.840	0.560	-0.200	0.390
2020/01/31 21:57:05.0	92.850	0.590	-0.240	0.390
2020/01/31 21:57:05.1	92.860	0.610	-0.290	0.400
2020/01/31 21:57:05.2	92.880	0.640	-0.330	0.400
2020/01/31 21:57:05.3	92.900	0.660	-0.370	0.410
2020/01/31 21:57:05.4	92.920	0.670	-0.410	0.410
2020/01/31 21:57:05.5	92.930	0.690	-0.440	0.420
2020/01/31 21:57:05.6	92.950	0.700	-0.480	0.420
2020/01/31 21:57:05.7	92.970	0.710	-0.510	0.430
2020/01/31 21:57:05.8	92.990	0.710	-0.540	0.440
2020/01/31 21:57:05.9	93.010	0.710	-0.560	0.450
2020/01/31 21:57:06.0	93.040	0.710	-0.580	0.450
2020/01/31 21:57:06.1	93.060	0.700	-0.600	0.460
2020/01/31 21:57:06.2	93.070	0.690	-0.610	0.480
2020/01/31 21:57:06.3	93.090	0.680	-0.620	0.490
2020/01/31 21:57:06.4	93.100	0.660	-0.620	0.510
2020/01/31 21:57:06.5	93.120	0.640	-0.620	0.520
2020/01/31 21:57:06.6	93.130	0.610	-0.610	0.540
2020/01/31 21:57:06.7	93.130	0.590	-0.600	0.560
2020/01/31 21:57:06.8	93.140	0.550	-0.580	0.580
2020/01/31 21:57:06.9	93.140	0.520	-0.560	0.610
2020/01/31 21:57:07.0	93.150	0.480	-0.530	0.630
2020/01/31 21:57:07.1	93.150	0.440	-0.500	0.660
2020/01/31 21:57:07.2	93.150	0.400	-0.460	0.690
2020/01/31 21:57:07.3	93.140	0.350	-0.420	0.730
2020/01/31 21:57:07.4	93.130	0.300	-0.380	0.760
2020/01/31 21:57:07.5	93.110	0.250	-0.330	0.800
2020/01/31 21:57:07.6	93.100	0.200	-0.280	0.840
2020/01/31 21:57:07.7	93.080	0.150	-0.230	0.870
2020/01/31 21:57:07.8	93.060	0.090	-0.180	0.910
2020/01/31 21:57:07.9	93.040	0.040	-0.120	0.960
2020/01/31 21:57:08.0	93.000	-0.020	-0.070	0.990
2020/01/31 21:57:08.1	92.970	-0.070	-0.010	1.030
2020/01/31 21:57:08.2	92.950	-0.130	0.040	1.080
2020/01/31 21:57:08.3	92.920	-0.180	0.100	1.120
2020/01/31 21:57:08.4	92.900	-0.240	0.150	1.160
2020/01/31 21:57:08.5	92.870	-0.290	0.200	1.200
2020/01/31 21:57:08.6	92.840	-0.340	0.250	1.240
2020/01/31 21:57:08.7	92.820	-0.390	0.290	1.270
2020/01/31 21:57:08.8	92.800	-0.430	0.330	1.310
2020/01/31 21:57:08.9	92.770	-0.480	0.370	1.340
2020/01/31 21:57:09.0	92.760	-0.520	0.400	1.370
2020/01/31 21:57:09.1	92.740	-0.550	0.430	1.400
2020/01/31 21:57:09.2	92.730	-0.590	0.450	1.420
2020/01/31 21:57:09.3	92.710	-0.620	0.470	1.440
2020/01/31 21:57:09.4	92.700	-0.640	0.480	1.460
2020/01/31 21:57:09.5	92.700	-0.660	0.480	1.470
2020/01/31 21:57:09.6	92.690	-0.680	0.480	1.480
2020/01/31 21:57:09.7	92.690	-0.690	0.480	1.490
2020/01/31 21:57:09.8	92.690	-0.700	0.460	1.490
2020/01/31 21:57:09.9	92.690	-0.710	0.440	1.490
2020/01/31 21:57:10.0	92.700	-0.710	0.420	1.490
2020/01/31 21:57:10.1	92.710	-0.700	0.390	1.480
2020/01/31 21:57:10.2	92.720	-0.690	0.350	1.470
2020/01/31 21:57:10.3	92.740	-0.680	0.310	1.460
2020/01/31 21:57:10.4	92.750	-0.660	0.270	1.450
2020/01/31 21:57:10.5	92.770	-0.640	0.220	1.430
2020/01/31 21:57:10.6	92.790	-0.620	0.160	1.410
2020/01/31 21:57:10.7	92.820	-0.590	0.110	1.380
2020/01/31 21:57:10.8	92.840	-0.560	0.040	1.350
2020/01/31 21:57:10.9	92.870	-0.530	-0.020	1.330
2020/01/31 21:57:11.0	92.900	-0.500	-0.080	1.290
2020/01/31 21:57:11.1	92.920	-0.460	-0.150	1.260
2020/01/31 21:57:11.2	92.950	-0.420	-0.220	1.220
2020/01/31 21:57:11.3	92.980	-0.380	-0.290	1.180
2020/01/31 21:57:11.4	93.010	-0.340	-0.360	1.140
2020/01/31 21:57:11.5	93.040	-0.300	-0.430	1.100
2020/01/31 21:57:11.6	93.070	-0.260	-0.500	1.050
2020/01/31 21:57:11.7	93.100	-0.220	-0.560	1.000
2020/01/31 21:57:11.8	93.130	-0.180	-0.630	0.950
2020/01/31 21:57:11.9	93.150	-0.140	-0.690	0.900
2020/01/31 21:57:12.0	93.180	-0.100	-0.750	0.850
2020/01/31 21:57:12.1	93.200	-0.060	-0.800	0.800
2020/01/31 21:57:12.2	93.230	-0.020	-0.840	0.750
2020/01/31 21:57:12.3	93.250	0.010	-0.890	0.700
2020/01/31 21:57:12.4	93.260	0.050	-0.920	0.640
2020/01/31 21:57:12.5	93.280	0.080	-0.950	0.590
2020/01/31 21:57:12.6	93.300	0.110	-0.970	0.540
2020/01/31 21:57:12.7	93.310	0.140	-0.990	0.490
2020/01/31 21:57:12.8	93.320	0.160	-1.000	0.440
2020/01/31 21:57:12.9	93.330	0.180	-1.000	0.390
2020/01/31 21:57:13.0	93.340	0.200	-0.990	0.340
2020/01/31 21:57:13.1	93.350	0.220	-0.980	0.290
2020/01/31 21:57:13.2	93.360	0.240	-0.960	0.250
2020/01/31 21:57:13.3	93.360	0.250	-0.930	0.210
2020/01/31 21:57:13.4	93.360	0.260	-0.890	0.160
2020/01/31 21:57:13.5	93.360	0.270	-0.850	0.120
2020/01/31 21:57:13.6	93.360	0.280	-0.810	0.090
2020/01/31 21:57:13.7	93.360	0.280	-0.760	0.050
2020/01/31 21:57:13.8	93.360	0.280	-0.700	0.020
2020/01/31 21:57:13.9	93.350	0.280	-0.640	-0.010
2020/01/31 21:57:14.0	93.350	0.280	-0.570	-0.040
2020/01/31 21:57:14.1	93.340	0.270	-0.500	-0.070
2020/01/31 21:57:14.2	93.330	0.260	-0.430	-0.100
2020/01/31 21:57:14.3	93.320	0.260	-0.360	-0.120
2020/01/31 21:57:14.4	93.310	0.250	-0.280	-0.150
2020/01/31 21:57:14.5	93.300	0.240	-0.210	-0.170
2020/01/31 21:57:14.6	93.290	0.230	-0.130	-0.190
2020/01/31 21:57:14.7	93.280	0.210	-0.060	-0.210
2020/01/31 21:57:14.8	93.270	0.200	0.020	-0.220
2020/01/31 21:57:14.9	93.250	0.190	0.090	-0.240
2020/01/31 21:57:15.0	93.230	0.170	0.160	-0.260
2020/01/31 21:57:15.1	93.220	0.160	0.220	-0.270
2020/01/31 21:57:15.2	93.200	0.140	0.280	-0.280
2020/01/31 21:57:15.3	93.180	0.130	0.340	-0.290
2020/01/31 21:57:15.4	93.170	0.110	0.400	-0.300
2020/01/31 21:57:15.5	93.150	0.100	0.450	-0.300
2020/01/31 21:57:15.6	93.130	0.080	0.490	-0.310
2020/01/31 21:57:15.7	93.110	0.070	0.540	-0.310
2020/01/31 21:57:15.8	93.090	0.060	0.570	-0.320
2020/01/31 21:57:15.9	93.070	0.040	0.600	-0.320
2020/01/31 21:57:16.0	93.050	0.030	0.620	-0.320
2020/01/31 21:57:16.1	93.030	0.020	0.640	-0.320
2020/01/31 21:57:16.2	93.020	0.010	0.650	-0.320
2020/01/31 21:57:16.3	93.000	0.000	0.650	-0.320
2020/01/31 21:57:16.4	92.980	-0.010	0.650	-0.320
2020/01/31 21:57:16.5	92.970	-0.010	0.640	-0.320
2020/01/31 21:57:16.6	92.960	-0.020	0.630	-0.320
2020/01/31 21:57:16.7	92.940	-0.020	0.610	-0.320
2020/01/31 21:57:16.8	92.930	-0.030	0.580	-0.320
2020/01/31 21:57:16.9	92.930	-0.030	0.550	-0.320
2020/01/31 21:57:17.0	92.920	-0.030	0.510	-0.320
2020/01/31 21:57:17.1	92.910	-0.040	0.470	-0.320
2020/01/31 21:57:17.2	92.910	-0.040	0.420	-0.320
2020/01/31 21:57:17.3	92.910	-0.040	0.370	-0.310
2020/01/31 21:57:17.4	92.910	-0.040	0.310	-0.310
2020/01/31 21:57:17.5	92.920	-0.040	0.250	-0.310
2020/01/31 21:57:17.6	92.930	-0.040	0.180	-0.310
2020/01/31 21:57:17.7	92.940	-0.030	0.110	-0.310
2020/01/31 21:57:17.8	92.950	-0.030	0.040	-0.300
2020/01/31 21:57:17.9	92.970	-0.030	-0.030	-0.290
2020/01/31 21:57:18.0	92.970	-0.030	-0.110	-0.290
2020/01/31 21:57:18.1	92.990	-0.020	-0.180	-0.280
2020/01/31 21:57:18.2	93.010	-0.020	-0.250	-0.270
2020/01/31 21:57:18.3	93.030	-0.020	-0.330	-0.250
2020/01/31 21:57:18.4	93.050	-0.020	-0.400	-0.240
2020/01/31 21:57:18.5	93.070	-0.020	-0.470	-0.220
2020/01/31 21:57:18.6	93.100	-0.020	-0.540	-0.200
2020/01/31 21:57:18.7	93.120	-0.020	-0.600	-0.180
2020/01/31 21:57:18.8	93.140	-0.020	-0.660	-0.150
2020/01/31 21:57:18.9	93.170	-0.020	-0.720	-0.120
2020/01/31 21:57:19.0	93.200	-0.020	-0.770	-0.090
2020/01/31 21:57:19.1	93.220	-0.020	-0.820	-0.050
2020/01/31 21:57:19.2	93.250	-0.020	-0.860	-0.020
2020/01/31 21:57:19.3	93.270	-0.030	-0.890	0.020
2020/01/31 21:57:19.4	93.290	-0.030	-0.920	0.070
2020/01/31 21:57:19.5	93.310	-0.040	-0.940	0.110
2020/01/31 21:57:19.6	93.330	-0.040	-0.950	0.160
2020/01/31 21:57:19.7	93.350	-0.050	-0.960	0.220
2020/01/31 21:57:19.8	93.370	-0.060	-0.960	0.270
2020/01/31 21:57:19.9	93.390	-0.060	-0.950	0.330
2020/01/31 21:57:20.0	93.410	-0.070	-0.930	0.390
2020/01/31 21:57:20.1	93.420	-0.080	-0.910	0.450
2020/01/31 21:57:20.2	93.440	-0.090	-0.880	0.520
2020/01/31 21:57:20.3	93.450	-0.100	-0.850	0.590
2020/01/31 21:57:20.4	93.460	-0.110	-0.810	0.660
2020/01/31 21:57:20.5	93.470	-0.120	-0.770	0.730
2020/01/31 21:57:20.6	93.480	-0.130	-0.720	0.810
2020/01/31 21:57:20.7	93.490	-0.140	-0.660	0.880
2020/01/31 21:57:20.8	93.500	-0.150	-0.610	0.960
2020/01/31 21:57:20.9	93.510	-0.160	-0.550	1.040
2020/01/31 21:57:21.0	93.520	-0.170	-0.480	1.120
2020/01/31 21:57:21.1	93.530	-0.180	-0.420	1.200
2020/01/31 21:57:21.2	93.540	-0.190	-0.350	1.270
2020/01/31 21:57:21.3	93.540	-0.200	-0.290	1.340
2020/01/31 21:57:21.4	93.550	-0.200	-0.220	1.420
2020/01/31 21:57:21.5	93.550	-0.210	-0.150	1.490
2020/01/31 21:57:21.6	93.560	-0.220	-0.090	1.560
2020/01/31 21:57:21.7	93.560	-0.220	-0.030	1.620
2020/01/31 21:57:21.8	93.560	-0.230	0.040	1.680
2020/01/31 21:57:21.9	93.570	-0.230	0.100	1.740
2020/01/31 21:57:22.0	93.560	-0.230	0.150	1.800
2020/01/31 21:57:22.1	93.560	-0.230	0.210	1.850
2020/01/31 21:57:22.2	93.560	-0.230	0.250	1.890
2020/01/31 21:57:22.3	93.550	-0.220	0.300	1.940
2020/01/31 21:57:22.4	93.550	-0.220	0.340	1.970
2020/01/31 21:57:22.5	93.540	-0.210	0.370	2.010
2020/01/31 21:57:22.6	93.530	-0.200	0.400	2.040
2020/01/31 21:57:22.7	93.520	-0.190	0.420	2.060
2020/01/31 21:57:22.8	93.500	-0.180	0.440	2.080
2020/01/31 21:57:22.9	93.490	-0.160	0.450	2.100
2020/01/31 21:57:23.0	93.460	-0.150	0.460	2.110
2020/01/31 21:57:23.1	93.440	-0.130	0.460	2.120
2020/01/31 21:57:23.2	93.420	-0.110	0.450	2.120
2020/01/31 21:57:23.3	93.410	-0.090	0.440	2.120
2020/01/31 21:57:23.4	93.390	-0.060	0.430	2.110
2020/01/31 21:57:23.5	93.370	-0.040	0.410	2.100
2020/01/31 21:57:23.6	93.350	-0.010	0.380	2.080
2020/01/31 21:57:23.7	93.330	0.020	0.350	2.070
2020/01/31 21:57:23.8	93.310	0.050	0.320	2.040
2020/01/31 21:57:23.9	93.290	0.080	0.280	2.020
2020/01/31 21:57:24.0	93.260	0.110	0.240	1.980
2020/01/31 21:57:24.1	93.250	0.150	0.200	1.940
2020/01/31 21:57:24.2	93.230	0.180	0.150	1.910
2020/01/31 21:57:24.3	93.210	0.210	0.100	1.860
2020/01/31 21:57:24.4	93.200	0.250	0.050	1.820
2020/01/31 21:57:24.5	93.180	0.280	0.010	1.770
2020/01/31 21:57:24.6	93.170	0.310	-0.050	1.720
2020/01/31 21:57:24.7	93.160	0.340	-0.100	1.670
2020/01/31 21:57:24.8	93.150	0.370	-0.150	1.610
2020/01/31 21:57:24.9	93.140	0.400	-0.190	1.550
2020/01/31 21:57:25.0	93.120	0.420	-0.240	1.490
2020/01/31 21:57:25.1	93.110	0.450	-0.290	1.430
2020/01/31 21:57:25.2	93.110	0.470	-0.330	1.360
2020/01/31 21:57:25.3	93.100	0.490	-0.380	1.290
2020/01/31 21:57:25.4	93.100	0.500	-0.420	1.220
2020/01/31 21:57:25.5	93.090	0.520	-0.450	1.150
2020/01/31 21:57:25.6	93.090	0.520	-0.480	1.070
2020/01/31 21:57:25.7	93.090	0.530	-0.510	1.000
2020/01/31 21:57:25.8	93.090	0.530	-0.540	0.920
2020/01/31 21:57:25.9	93.090	0.530	-0.560	0.830
2020/01/31 21:57:26.0	93.090	0.530	-0.580	0.750
2020/01/31 21:57:26.1	93.090	0.520	-0.600	0.660
2020/01/31 21:57:26.2	93.100	0.510	-0.610	0.580
2020/01/31 21:57:26.3	93.110	0.500	-0.620	0.490
2020/01/31 21:57:26.4	93.110	0.480	-0.630	0.410
2020/01/31 21:57:26.5	93.120	0.460	-0.630	0.320
2020/01/31 21:57:26.6	93.130	0.440	-0.630	0.240
2020/01/31 21:57:26.7	93.140	0.410	-0.620	0.150
2020/01/31 21:57:26.8	93.160	0.380	-0.620	0.070
2020/01/31 21:57:26.9	93.170	0.340	-0.610	-0.010
2020/01/31 21:57:27.0	93.190	0.310	-0.590	-0.090
2020/01/31 21:57:27.1	93.200	0.270	-0.580	-0.160
2020/01/31 21:57:27.2	93.220	0.230	-0.560	-0.240
2020/01/31 21:57:27.3	93.230	0.190	-0.540	-0.310
2020/01/31 21:57:27.4	93.250	0.150	-0.520	-0.370
2020/01/31 21:57:27.5	93.260	0.100	-0.500	-0.430
2020/01/31 21:57:27.6	93.280	0.060	-0.480	-0.490
2020/01/31 21:57:27.7	93.300	0.010	-0.450	-0.540
2020/01/31 21:57:27.8	93.310	-0.030	-0.430	-0.580
2020/01/31 21:57:27.9	93.330	-0.080	-0.400	-0.620
2020/01/31 21:57:28.0	93.340	-0.130	-0.370	-0.660
2020/01/31 21:57:28.1	93.350	-0.170	-0.340	-0.690
2020/01/31 21:57:28.2	93.360	-0.220	-0.310	-0.710
2020/01/31 21:57:28.3	93.380	-0.260	-0.280	-0.730
2020/01/31 21:57:28.4	93.390	-0.300	-0.250	-0.740
2020/01/31 21:57:28.5	93.400	-0.350	-0.220	-0.750
2020/01/31 21:57:28.6	93.420	-0.390	-0.190	-0.750
2020/01/31 21:57:28.7	93.430	-0.420	-0.160	-0.740
2020/01/31 21:57:28.8	93.440	-0.460	-0.130	-0.730
2020/01/31 21:57:28.9	93.450	-0.500	-0.100	-0.710
2020/01/31 21:57:29.0	93.460	-0.530	-0.070	-0.690
2020/01/31 21:57:29.1	93.470	-0.560	-0.040	-0.670
2020/01/31 21:57:29.2	93.480	-0.590	-0.020	-0.630
2020/01/31 21:57:29.3	93.480	-0.610	0.010	-0.600
2020/01/31 21:57:29.4	93.490	-0.630	0.040	-0.560
2020/01/31 21:57:29.5	93.490	-0.650	0.060	-0.520
2020/01/31 21:57:29.6	93.490	-0.670	0.080	-0.470
2020/01/31 21:57:29.7	93.490	-0.680	0.110	-0.420
2020/01/31 21:57:29.8	93.490	-0.700	0.130	-0.370
2020/01/31 21:57:29.9	93.490	-0.700	0.140	-0.320
2020/01/31 21:57:30.0	93.490	-0.710	0.160	-0.270
2020/01/31 21:57:30.1	93.490	-0.710	0.170	-0.210
2020/01/31 21:57:30.2	93.490	-0.710	0.180	-0.160
2020/01/31 21:57:30.3	93.490	-0.710	0.190	-0.110
2020/01/31 21:57:30.4	93.480	-0.700	0.200	-0.050
2020/01/31 21:57:30.5	93.480	-0.690	0.200	-0.000
2020/01/31 21:57:30.6	93.480	-0.680	0.210	0.050
2020/01/31 21:57:30.7	93.480	-0.670	0.210	0.100
2020/01/31 21:57:30.8	93.470	-0.650	0.200	0.140
2020/01/31 21:57:30.9	93.470	-0.630	0.200	0.190
2020/01/31 21:57:31.0	93.470	-0.610	0.190	0.240
2020/01/31 21:57:31.1	93.470	-0.580	0.180	0.280
2020/01/31 21:57:31.2	93.470	-0.560	0.170	0.320
2020/01/31 21:57:31.3	93.480	-0.530	0.160	0.350
2020/01/31 21:57:31.4	93.480	-0.490	0.140	0.390
2020/01/31 21:57:31.5	93.480	-0.460	0.120	0.420
2020/01/31 21:57:31.6	93.490	-0.420	0.100	0.450
2020/01/31 21:57:31.7	93.490	-0.390	0.080	0.480
2020/01/31 21:57:31.8	93.500	-0.350	0.060	0.500
2020/01/31 21:57:31.9	93.510	-0.300	0.030	0.530
2020/01/31 21:57:32.0	93.520	-0.260	0.000	0.550
2020/01/31 21:57:32.1	93.530	-0.220	-0.030	0.570
2020/01/31 21:57:32.2	93.540	-0.170	-0.060	0.580
2020/01/31 21:57:32.3	93.550	-0.120	-0.090	0.600
2020/01/31 21:57:32.4	93.560	-0.080	-0.120	0.620
2020/01/31 21:57:32.5	93.570	-0.030	-0.160	0.630
2020/01/31 21:57:32.6	93.580	0.020	-0.190	0.650
2020/01/31 21:57:32.7	93.590	0.070	-0.220	0.660
2020/01/31 21:57:32.8	93.600	0.110	-0.260	0.680
2020/01/31 21:57:32.9	93.610	0.160	-0.290	0.690
2020/01/31 21:57:33.0	93.620	0.210	-0.330	0.710
2020/01/31 21:57:33.1	93.630	0.250	-0.360	0.730
2020/01/31 21:57:33.2	93.640	0.290	-0.390	0.740
2020/01/31 21:57:33.3	93.640	0.340	-0.420	0.760
2020/01/31 21:57:33.4	93.640	0.380	-0.440	0.770
2020/01/31 21:57:33.5	93.640	0.410	-0.470	0.790
2020/01/31 21:57:33.6	93.640	0.450	-0.490	0.810
2020/01/31 21:57:33.7	93.640	0.480	-0.500	0.830
2020/01/31 21:57:33.8	93.630	0.510	-0.520	0.850
2020/01/31 21:57:33.9	93.620	0.540	-0.530	0.870
2020/01/31 21:57:34.0	93.620	0.560	-0.540	0.890
2020/01/31 21:57:34.1	93.610	0.580	-0.540	0.910
2020/01/31 21:57:34.2	93.590	0.600	-0.540	0.940
2020/01/31 21:57:34.3	93.570	0.610	-0.540	0.960
2020/01/31 21:57:34.4	93.550	0.620	-0.540	0.980
2020/01/31 21:57:34.5	93.530	0.630	-0.530	1.010
2020/01/31 21:57:34.6	93.510	0.630	-0.520	1.030
2020/01/31 21:57:34.7	93.490	0.630	-0.500	1.050
2020/01/31 21:57:34.8	93.460	0.620	-0.480	1.070
2020/01/31 21:57:34.9	93.440	0.620	-0.460	1.090
2020/01/31 21:57:35.0	93.420	0.610	-0.440	1.110
2020/01/31 21:57:35.1	93.390	0.590	-0.420	1.130
2020/01/31 21:57:35.2	93.370	0.580	-0.390	1.140
2020/01/31 21:57:35.3	93.340	0.560	-0.370	1.160
2020/01/31 21:57:35.4	93.320	0.540	-0.340	1.170
2020/01/31 21:57:35.5	93.300	0.520	-0.320	1.180
2020/01/31 21:57:35.6	93.280	0.490	-0.290	1.190
2020/01/31 21:57:35.7	93.260	0.470	-0.270	1.190
2020/01/31 21:57:35.8	93.250	0.440	-0.240	1.190
2020/01/31 21:57:35.9	93.240	0.410	-0.220	1.190
2020/01/31 21:57:36.0	93.220	0.380	-0.200	1.180
2020/01/31 21:57:36.1	93.220	0.350	-0.180	1.170
2020/01/31 21:57:36.2	93.220	0.330	-0.160	1.160
2020/01/31 21:57:36.3	93.220	0.300	-0.140	1.140
2020/01/31 21:57:36.4	93.220	0.270	-0.120	1.120
2020/01/31 21:57:36.5	93.230	0.240	-0.110	1.090
2020/01/31 21:57:36.6	93.240	0.210	-0.100	1.070
2020/01/31 21:57:36.7	93.250	0.190	-0.090	1.040
2020/01/31 21:57:36.8	93.260	0.160	-0.080	1.000
2020/01/31 21:57:36.9	93.280	0.140	-0.070	0.970
2020/01/31 21:57:37.0	93.300	0.110	-0.070	0.930
2020/01/31 21:57:37.1	93.330	0.090	-0.060	0.890
2020/01/31 21:57:37.2	93.350	0.070	-0.060	0.850
2020/01/31 21:57:37.3	93.380	0.050	-0.060	0.800
2020/01/31 21:57:37.4	93.410	0.030	-0.060	0.760
2020/01/31 21:57:37.5	93.440	0.020	-0.060	0.720
2020/01/31 21:57:37.6	93.470	0.000	-0.070	0.680
2020/01/31 21:57:37.7	93.500	-0.010	-0.070	0.630
2020/01/31 21:57:37.8	93.540	-0.030	-0.070	0.590
2020/01/31 21:57:37.9	93.570	-0.040	-0.070	0.560
2020/01/31 21:57:38.0	93.600	-0.050	-0.080	0.520
2020/01/31 21:57:38.1	93.630	-0.060	-0.080	0.490
2020/01/31 21:57:38.2	93.660	-0.070	-0.080	0.460
2020/01/31 21:57:38.3	93.700	-0.080	-0.080	0.430
2020/01/31 21:57:38.4	93.730	-0.090	-0.080	0.400
2020/01/31 21:57:38.5	93.760	-0.090	-0.080	0.390
2020/01/31 21:57:38.6	93.780	-0.100	-0.080	0.370
2020/01/31 21:57:38.7	93.810	-0.110	-0.080	0.360
2020/01/31 21:57:38.8	93.840	-0.110	-0.070	0.350
2020/01/31 21:57:38.9	93.860	-0.120	-0.070	0.340
2020/01/31 21:57:39.0	93.870	-0.120	-0.060	0.340
2020/01/31 21:57:39.1	93.900	-0.130	-0.050	0.330
2020/01/31 21:57:39.2	93.920	-0.140	-0.040	0.340
2020/01/31 21:57:39.3	93.940	-0.140	-0.040	0.340
2020/01/31 21:57:39.4	93.950	-0.150	-0.030	0.350
2020/01/31 21:57:39.5	93.970	-0.150	-0.020	0.360
2020/01/31 21:57:39.6	93.980	-0.160	-0.010	0.370
2020/01/31 21:57:39.7	94.000	-0.160	-0.010	0.380
2020/01/31 21:57:39.8	94.010	-0.170	0.000	0.400
2020/01/31 21:57:39.9	94.020	-0.170	0.010	0.410
2020/01/31 21:57:40.0	94.020	-0.170	0.010	0.430
2020/01/31 21:57:40.1	94.020	-0.180	0.020	0.450
2020/01/31 21:57:40.2	94.030	-0.180	0.020	0.470
2020/01/31 21:57:40.3	94.030	-0.190	0.030	0.490
2020/01/31 21:57:40.4	94.020	-0.190	0.030	0.510
2020/01/31 21:57:40.5	94.020	-0.190	0.030	0.530
2020/01/31 21:57:40.6	94.010	-0.190	0.030	0.560
2020/01/31 21:57:40.7	94.000	-0.190	0.030	0.580
2020/01/31 21:57:40.8	93.990	-0.200	0.030	0.600
2020/01/31 21:57:40.9	93.980	-0.200	0.020	0.630
2020/01/31 21:57:41.0	93.970	-0.200	0.020	0.650
2020/01/31 21:57:41.1	93.950	-0.190	0.010	0.670
2020/01/31 21:57:41.2	93.930	-0.190	0.000	0.690
2020/01/31 21:57:41.3	93.910	-0.190	-0.010	0.710
2020/01/31 21:57:41.4	93.890	-0.190	-0.020	0.730
2020/01/31 21:57:41.5	93.870	-0.180	-0.040	0.750
2020/01/31 21:57:41.6	93.840	-0.180	-0.050	0.770
2020/01/31 21:57:41.7	93.820	-0.170	-0.070	0.780
2020/01/31 21:57:41.8	93.790	-0.160	-0.090	0.790
2020/01/31 21:57:41.9	93.770	-0.160	-0.120	0.800
2020/01/31 21:57:42.0	93.760	-0.150	-0.140	0.800
2020/01/31 21:57:42.1	93.740	-0.140	-0.160	0.810
2020/01/31 21:57:42.2	93.720	-0.130	-0.190	0.810
2020/01/31 21:57:42.3	93.700	-0.120	-0.210	0.820
2020/01/31 21:57:42.4	93.680	-0.100	-0.240	0.810
2020/01/31 21:57:42.5	93.670	-0.090	-0.270	0.810
2020/01/31 21:57:42.6	93.650	-0.080	-0.290	0.810
2020/01/31 21:57:42.7	93.640	-0.070	-0.320	0.800
2020/01/31 21:57:42.8	93.630	-0.050	-0.340	0.790
2020/01/31 21:57:42.9	93.630	-0.040	-0.370	0.780
2020/01/31 21:57:43.0	93.610	-0.030	-0.390	0.770
2020/01/31 21:57:43.1	93.610	-0.020	-0.420	0.760
2020/01/31 21:57:43.2	93.610	-0.010	-0.440	0.740
2020/01/31 21:57:43.3	93.610	0.000	-0.460	0.730
2020/01/31 21:57:43.4	93.620	0.010	-0.470	0.720
2020/01/31 21:57:43.5	93.620	0.020	-0.490	0.700
2020/01/31 21:57:43.6	93.630	0.030	-0.500	0.690
2020/01/31 21:57:43.7	93.640	0.040	-0.500	0.680
2020/01/31 21:57:43.8	93.650	0.040	-0.510	0.670
2020/01/31 21:57:43.9	93.660	0.050	-0.510	0.660
2020/01/31 21:57:44.0	93.660	0.050	-0.500	0.640
2020/01/31 21:57:44.1	93.670	0.050	-0.500	0.640
2020/01/31 21:57:44.2	93.690	0.050	-0.490	0.630
2020/01/31 21:57:44.3	93.700	0.050	-0.470	0.620
2020/01/31 21:57:44.4	93.720	0.050	-0.450	0.610
2020/01/31 21:57:44.5	93.730	0.040	-0.430	0.600
2020/01/31 21:57:44.6	93.750	0.030	-0.410	0.600
2020/01/31 21:57:44.7	93.770	0.030	-0.380	0.590
2020/01/31 21:57:44.8	93.780	0.020	-0.350	0.590
2020/01/31 21:57:44.9	93.800	0.010	-0.320	0.590
2020/01/31 21:57:45.0	93.820	-0.010	-0.280	0.580
2020/01/31 21:57:45.1	93.830	-0.020	-0.250	0.580
2020/01/31 21:57:45.2	93.850	-0.030	-0.210	0.580
2020/01/31 21:57:45.3	93.870	-0.050	-0.170	0.570
2020/01/31 21:57:45.4	93.890	-0.060	-0.130	0.570
2020/01/31 21:57:45.5	93.910	-0.080	-0.090	0.570
2020/01/31 21:57:45.6	93.930	-0.090	-0.050	0.570
2020/01/31 21:57:45.7	93.950	-0.110	-0.010	0.570
2020/01/31 21:57:45.8	93.970	-0.120	0.030	0.570
2020/01/31 21:57:45.9	93.980	-0.130	0.060	0.570
2020/01/31 21:57:46.0	94.010	-0.150	0.090	0.570
2020/01/31 21:57:46.1	94.020	-0.160	0.120	0.570
2020/01/31 21:57:46.2	94.040	-0.170	0.150	0.570
2020/01/31 21:57:46.3	94.050	-0.180	0.170	0.570
2020/01/31 21:57:46.4	94.060	-0.190	0.180	0.570
2020/01/31 21:57:46.5	94.070	-0.190	0.200	0.570
2020/01/31 21:57:46.6	94.080	-0.200	0.210	0.570
2020/01/31 21:57:46.7	94.090	-0.200	0.210	0.570
2020/01/31 21:57:46.8	94.100	-0.200	0.210	0.570
2020/01/31 21:57:46.9	94.100	-0.200	0.200	0.580
2020/01/31 21:57:47.0	94.110	-0.190	0.190	0.580
2020/01/31 21:57:47.1	94.110	-0.190	0.170	0.580
2020/01/31 21:57:47.2	94.110	-0.180	0.150	0.590
2020/01/31 21:57:47.3	94.110	-0.170	0.120	0.590
2020/01/31 21:57:47.4	94.110	-0.160	0.090	0.590
2020/01/31 21:57:47.5	94.110	-0.140	0.060	0.600
2020/01/31 21:57:47.6	94.100	-0.120	0.020	0.600
2020/01/31 21:57:47.7	94.100	-0.100	-0.020	0.610
2020/01/31 21:57:47.8	94.090	-0.080	-0.070	0.610
2020/01/31 21:57:47.9	94.090	-0.060	-0.110	0.620
2020/01/31 21:57:48.0	94.080	-0.040	-0.160	0.620
2020/01/31 21:57:48.1	94.070	-0.010	-0.210	0.630
2020/01/31 21:57:48.2	94.060	0.010	-0.270	0.640
2020/01/31 21:57:48.3	94.050	0.040	-0.320	0.650
2020/01/31 21:57:48.4	94.040	0.070	-0.370	0.660
2020/01/31 21:57:48.5	94.030	0.090	-0.420	0.670
2020/01/31 21:57:48.6	94.020	0.120	-0.470	0.680
2020/01/31 21:57:48.7	94.010	0.150	-0.520	0.690
2020/01/31 21:57:48.8	93.990	0.170	-0.560	0.710
2020/01/31 21:57:48.9	93.980	0.200	-0.600	0.720
2020/01/31 21:57:49.0	93.970	0.220	-0.640	0.730
2020/01/31 21:57:49.1	93.960	0.240	-0.680	0.750
2020/01/31 21:57:49.2	93.940	0.260	-0.710	0.760
2020/01/31 21:57:49.3	93.930	0.280	-0.730	0.770
2020/01/31 21:57:49.4	93.920	0.300	-0.760	0.780
2020/01/31 21:57:49.5	93.900	0.320	-0.770	0.790
2020/01/31 21:57:49.6	93.890	0.330	-0.780	0.800
2020/01/31 21:57:49.7	93.880	0.340	-0.790	0.810
2020/01/31 21:57:49.8	93.870	0.350	-0.780	0.820
2020/01/31 21:57:49.9	93.860	0.350	-0.780	0.830
2020/01/31 21:57:50.0	93.850	0.350	-0.760	0.830
2020/01/31 21:57:50.1	93.840	0.350	-0.740	0.840
2020/01/31 21:57:50.2	93.830	0.350	-0.720	0.840
2020/01/31 21:57:50.3	93.820	0.350	-0.690	0.840
2020/01/31 21:57:50.4	93.810	0.340	-0.650	0.840
2020/01/31 21:57:50.5	93.800	0.330	-0.610	0.840
2020/01/31 21:57:50.6	93.800	0.310	-0.560	0.830
2020/01/31 21:57:50.7	93.790	0.300	-0.510	0.830
2020/01/31 21:57:50.8	93.780	0.280	-0.460	0.820
2020/01/31 21:57:50.9	93.780	0.260	-0.400	0.810
2020/01/31 21:57:51.0	93.780	0.240	-0.340	0.800
2020/01/31 21:57:51.1	93.780	0.220	-0.280	0.790
2020/01/31 21:57:51.2	93.770	0.200	-0.220	0.780
2020/01/31 21:57:51.3	93.770	0.170	-0.150	0.770
2020/01/31 21:57:51.4	93.770	0.150	-0.090	0.750
2020/01/31 21:57:51.5	93.770	0.120	-0.020	0.730
2020/01/31 21:57:51.6	93.780	0.100	0.040	0.710
2020/01/31 21:57:51.7	93.780	0.070	0.110	0.690
2020/01/31 21:57:51.8	93.790	0.050	0.170	0.660
2020/01/31 21:57:51.9	93.790	0.020	0.230	0.640
2020/01/31 21:57:52.0	93.810	-0.000	0.290	0.610
2020/01/31 21:57:52.1	93.820	-0.020	0.340	0.580
2020/01/31 21:57:52.2	93.830	-0.050	0.390	0.550
2020/01/31 21:57:52.3	93.850	-0.060	0.440	0.520
2020/01/31 21:57:52.4	93.860	-0.080	0.480	0.490
2020/01/31 21:57:52.5	93.880	-0.100	0.510	0.450
2020/01/31 21:57:52.6	93.900	-0.110	0.540	0.410
2020/01/31 21:57:52.7	93.920	-0.120	0.570	0.380
2020/01/31 21:57:52.8	93.940	-0.130	0.580	0.340
2020/01/31 21:57:52.9	93.970	-0.130	0.600	0.300
2020/01/31 21:57:53.0	93.980	-0.140	0.600	0.250
2020/01/31 21:57:53.1	94.010	-0.140	0.600	0.210
2020/01/31 21:57:53.2	94.040	-0.140	0.600	0.170
2020/01/31 21:57:53.3	94.070	-0.140	0.590	0.120
2020/01/31 21:57:53.4	94.110	-0.130	0.570	0.080
2020/01/31 21:57:53.5	94.140	-0.120	0.550	0.030
2020/01/31 21:57:53.6	94.170	-0.120	0.520	-0.010
2020/01/31 21:57:53.7	94.210	-0.110	0.490	-0.050
2020/01/31 21:57:53.8	94.250	-0.090	0.450	-0.100
2020/01/31 21:57:53.9	94.290	-0.080	0.410	-0.140
2020/01/31 21:57:54.0	94.310	-0.070	0.370	-0.180
2020/01/31 21:57:54.1	94.350	-0.060	0.320	-0.220
2020/01/31 21:57:54.2	94.390	-0.040	0.270	-0.270
2020/01/31 21:57:54.3	94.430	-0.030	0.220	-0.300
2020/01/31 21:57:54.4	94.470	-0.010	0.160	-0.340
2020/01/31 21:57:54.5	94.510	-0.000	0.110	-0.380
2020/01/31 21:57:54.6	94.550	0.010	0.050	-0.410
2020/01/31 21:57:54.7	94.590	0.020	-0.010	-0.440
2020/01/31 21:57:54.8	94.630	0.030	-0.060	-0.470
2020/01/31 21:57:54.9	94.670	0.040	-0.120	-0.490
2020/01/31 21:57:55.0	94.710	0.050	-0.170	-0.510
2020/01/31 21:57:55.1	94.740	0.060	-0.230	-0.520
2020/01/31 21:57:55.2	94.770	0.060	-0.280	-0.530
2020/01/31 21:57:55.3	94.800	0.060	-0.330	-0.530
2020/01/31 21:57:55.4	94.820	0.060	-0.380	-0.530
2020/01/31 21:57:55.5	94.850	0.060	-0.420	-0.520
2020/01/31 21:57:55.6	94.870	0.060	-0.460	-0.510
2020/01/31 21:57:55.7	94.880	0.050	-0.500	-0.490
2020/01/31 21:57:55.8	94.900	0.050	-0.540	-0.460
2020/01/31 21:57:55.9	94.910	0.040	-0.570	-0.430
2020/01/31 21:57:56.0	94.920	0.030	-0.600	-0.390
2020/01/31 21:57:56.1	94.930	0.020	-0.620	-0.340
2020/01/31 21:57:56.2	94.930	0.010	-0.640	-0.290
2020/01/31 21:57:56.3	94.930	-0.010	-0.660	-0.230
2020/01/31 21:57:56.4	94.930	-0.020	-0.670	-0.160
2020/01/31 21:57:56.5	94.920	-0.040	-0.690	-0.100
2020/01/31 21:57:56.6	94.910	-0.060	-0.690	-0.020
2020/01/31 21:57:56.7	94.900	-0.070	-0.700	0.060
2020/01/31 21:57:56.8	94.880	-0.090	-0.700	0.140
2020/01/31 21:57:56.9	94.870	-0.110	-0.700	0.220
2020/01/31 21:57:57.0	94.840	-0.130	-0.690	0.310
2020/01/31 21:57:57.1	94.820	-0.150	-0.680	0.400
2020/01/31 21:57:57.2	94.800	-0.160	-0.670	0.490
2020/01/31 21:57:57.3	94.770	-0.180	-0.660	0.590
2020/01/31 21:57:57.4	94.750	-0.200	-0.650	0.680
2020/01/31 21:57:57.5	94.720	-0.210	-0.640	0.770
2020/01/31 21:57:57.6	94.700	-0.230	-0.620	0.860
2020/01/31 21:57:57.7	94.670	-0.240	-0.610	0.950
2020/01/31 21:57:57.8	94.640	-0.250	-0.590	1.040
2020/01/31 21:57:57.9	94.610	-0.260	-0.570	1.120
2020/01/31 21:57:58.0	94.580	-0.270	-0.560	1.200
2020/01/31 21:57:58.1	94.550	-0.280	-0.540	1.280
2020/01/31 21:57:58.2	94.520	-0.280	-0.520	1.350
2020/01/31 21:57:58.3	94.500	-0.290	-0.500	1.420
2020/01/31 21:57:58.4	94.470	-0.290	-0.480	1.480
2020/01/31 21:57:58.5	94.440	-0.290	-0.470	1.540
2020/01/31 21:57:58.6	94.420	-0.290	-0.450	1.600
2020/01/31 21:57:58.7	94.400	-0.280	-0.430	1.650
2020/01/31 21:57:58.8	94.380	-0.280	-0.410	1.690
2020/01/31 21:57:58.9	94.360	-0.270	-0.400	1.730
2020/01/31 21:57:59.0	94.330	-0.270	-0.380	1.760
2020/01/31 21:57:59.1	94.310	-0.260	-0.360	1.780
2020/01/31 21:57:59.2	94.300	-0.250	-0.340	1.800
2020/01/31 21:57:59.3	94.290	-0.240	-0.330	1.810
2020/01/31 21:57:59.4	94.270	-0.230	-0.320	1.820
2020/01/31 21:57:59.5	94.270	-0.210	-0.300	1.820
2020/01/31 21:57:59.6	94.260	-0.200	-0.290	1.820
2020/01/31 21:57:59.7	94.250	-0.180	-0.270	1.810
2020/01/31 21:57:59.8	94.250	-0.170	-0.260	1.800
2020/01/31 21:57:59.9	94.250	-0.150	-0.250	1.780
2020/01/31 21:58:00.0	94.250	-0.130	-0.240	1.760
2020/01/31 21:58:00.1	94.250	-0.110	-0.220	1.730
2020/01/31 21:58:00.2	94.260	-0.100	-0.210	1.710
2020/01/31 21:58:00.3	94.270	-0.080	-0.200	1.670
2020/01/31 21:58:00.4	94.280	-0.060	-0.180	1.640
2020/01/31 21:58:00.5	94.290	-0.040	-0.170	1.600
2020/01/31 21:58:00.6	94.310	-0.020	-0.160	1.560
2020/01/31 21:58:00.7	94.330	-0.010	-0.140	1.520
2020/01/31 21:58:00.8	94.350	0.010	-0.130	1.470
2020/01/31 21:58:00.9	94.370	0.030	-0.120	1.430
2020/01/31 21:58:01.0	94.390	0.050	-0.100	1.380
2020/01/31 21:58:01.1	94.420	0.060	-0.090	1.330
2020/01/31 21:58:01.2	94.450	0.080	-0.070	1.280
2020/01/31 21:58:01.3	94.480	0.090	-0.060	1.220
2020/01/31 21:58:01.4	94.510	0.110	-0.040	1.170
2020/01/31 21:58:01.5	94.540	0.120	-0.030	1.120
2020/01/31 21:58:01.6	94.570	0.130	-0.020	1.060
2020/01/31 21:58:01.7	94.610	0.150	-0.000	1.010
2020/01/31 21:58:01.8	94.640	0.160	0.010	0.950
2020/01/31 21:58:01.9	94.670	0.170	0.020	0.890
2020/01/31 21:58:02.0	94.710	0.180	0.030	0.830
2020/01/31 21:58:02.1	94.740	0.180	0.050	0.770
2020/01/31 21:58:02.2	94.770	0.190	0.060	0.720
2020/01/31 21:58:02.3	94.810	0.200	0.070	0.660
2020/01/31 21:58:02.4	94.840	0.200	0.080	0.600
2020/01/31 21:58:02.5	94.870	0.210	0.090	0.540
2020/01/31 21:58:02.6	94.900	0.210	0.100	0.490
2020/01/31 21:58:02.7	94.930	0.210	0.110	0.430
2020/01/31 21:58:02.8	94.960	0.210	0.120	0.370
2020/01/31 21:58:02.9	94.980	0.220	0.130	0.310
2020/01/31 21:58:03.0	95.010	0.220	0.140	0.250
2020/01/31 21:58:03.1	95.040	0.220	0.140	0.190
2020/01/31 21:58:03.2	95.070	0.220	0.150	0.140
2020/01/31 21:58:03.3	95.090	0.220	0.150	0.080
2020/01/31 21:58:03.4	95.120	0.220	0.150	0.020
2020/01/31 21:58:03.5	95.140	0.210	0.150	-0.040
2020/01/31 21:58:03.6	95.170	0.210	0.160	-0.090
2020/01/31 21:58:03.7	95.190	0.210	0.150	-0.150
2020/01/31 21:58:03.8	95.220	0.210	0.150	-0.200
2020/01/31 21:58:03.9	95.240	0.210	0.150	-0.260
2020/01/31 21:58:04.0	95.260	0.200	0.140	-0.310
2020/01/31 21:58:04.1	95.280	0.200	0.130	-0.360
2020/01/31 21:58:04.2	95.300	0.200	0.120	-0.400
2020/01/31 21:58:04.3	95.320	0.200	0.110	-0.450
2020/01/31 21:58:04.4	95.340	0.190	0.100	-0.490
2020/01/31 21:58:04.5	95.350	0.190	0.090	-0.520
2020/01/31 21:58:04.6	95.370	0.190	0.080	-0.550
2020/01/31 21:58:04.7	95.380	0.190	0.070	-0.580
2020/01/31 21:58:04.8	95.390	0.180	0.050	-0.600
2020/01/31 21:58:04.9	95.400	0.180	0.040	-0.620
2020/01/31 21:58:05.0	95.410	0.180	0.030	-0.630
2020/01/31 21:58:05.1	95.410	0.170	0.010	-0.630
2020/01/31 21:58:05.2	95.410	0.170	-0.010	-0.630
2020/01/31 21:58:05.3	95.420	0.160	-0.020	-0.630
2020/01/31 21:58:05.4	95.420	0.160	-0.040	-0.620
2020/01/31 21:58:05.5	95.410	0.150	-0.060	-0.610
2020/01/31 21:58:05.6	95.410	0.150	-0.080	-0.590
2020/01/31 21:58:05.7	95.410	0.140	-0.100	-0.570
2020/01/31 21:58:05.8	95.400	0.140	-0.120	-0.540
2020/01/31 21:58:05.9	95.390	0.130	-0.130	-0.500
2020/01/31 21:58:06.0	95.380	0.120	-0.150	-0.470
2020/01/31 21:58:06.1	95.370	0.110	-0.170	-0.430
2020/01/31 21:58:06.2	95.360	0.100	-0.190	-0.380
2020/01/31 21:58:06.3	95.350	0.090	-0.210	-0.340
2020/01/31 21:58:06.4	95.340	0.080	-0.230	-0.280
2020/01/31 21:58:06.5	95.330	0.070	-0.240	-0.230
2020/01/31 21:58:06.6	95.320	0.060	-0.260	-0.180
2020/01/31 21:58:06.7	95.310	0.050	-0.270	-0.120
2020/01/31 21:58:06.8	95.300	0.030	-0.290	-0.060
2020/01/31 21:58:06.9	95.280	0.020	-0.300	0.000
2020/01/31 21:58:07.0	95.270	0.000	-0.320	0.070
2020/01/31 21:58:07.1	95.260	-0.010	-0.330	0.130
2020/01/31 21:58:07.2	95.250	-0.030	-0.340	0.190
2020/01/31 21:58:07.3	95.240	-0.050	-0.350	0.260
2020/01/31 21:58:07.4	95.230	-0.060	-0.370	0.320
2020/01/31 21:58:07.5	95.220	-0.080	-0.380	0.380
2020/01/31 21:58:07.6	95.220	-0.100	-0.390	0.450
2020/01/31 21:58:07.7	95.210	-0.120	-0.390	0.510
2020/01/31 21:58:07.8	95.210	-0.140	-0.400	0.570
2020/01/31 21:58:07.9	95.200	-0.150	-0.410	0.630
2020/01/31 21:58:08.0	95.200	-0.170	-0.420	0.680
2020/01/31 21:58:08.1	95.200	-0.190	-0.430	0.740
2020/01/31 21:58:08.2	95.200	-0.200	-0.430	0.790
2020/01/31 21:58:08.3	95.200	-0.220	-0.440	0.840
2020/01/31 21:58:08.4	95.210	-0.240	-0.440	0.890
2020/01/31 21:58:08.5	95.210	-0.250	-0.450	0.930
2020/01/31 21:58:08.6	95.220	-0.270	-0.450	0.980
2020/01/31 21:58:08.7	95.240	-0.280	-0.450	1.020
2020/01/31 21:58:08.8	95.250	-0.290	-0.450	1.050
2020/01/31 21:58:08.9	95.260	-0.300	-0.460	1.090
2020/01/31 21:58:09.0	95.280	-0.310	-0.450	1.120
2020/01/31 21:58:09.1	95.300	-0.320	-0.450	1.150
2020/01/31 21:58:09.2	95.310	-0.330	-0.450	1.180
2020/01/31 21:58:09.3	95.330	-0.340	-0.440	1.200
2020/01/31 21:58:09.4	95.350	-0.340	-0.440	1.230
2020/01/31 21:58:09.5	95.370	-0.350	-0.430	1.250
2020/01/31 21:58:09.6	95.400	-0.350	-0.420	1.270
2020/01/31 21:58:09.7	95.420	-0.350	-0.410	1.290
2020/01/31 21:58:09.8	95.440	-0.350	-0.400	1.310
2020/01/31 21:58:09.9	95.460	-0.350	-0.390	1.330
2020/01/31 21:58:10.0	95.480	-0.350	-0.370	1.350
2020/01/31 21:58:10.1	95.490	-0.350	-0.360	1.370
2020/01/31 21:58:10.2	95.510	-0.350	-0.340	1.390
2020/01/31 21:58:10.3	95.530	-0.340	-0.330	1.400
2020/01/31 21:58:10.4	95.550	-0.340	-0.310	1.420
2020/01/31 21:58:10.5	95.560	-0.330	-0.290	1.430
2020/01/31 21:58:10.6	95.580	-0.330	-0.270	1.440
2020/01/31 21:58:10.7	95.590	-0.320	-0.240	1.450
2020/01/31 21:58:10.8	95.610	-0.310	-0.220	1.460
2020/01/31 21:58:10.9	95.620	-0.300	-0.200	1.470
2020/01/31 21:58:11.0	95.630	-0.290	-0.170	1.470
2020/01/31 21:58:11.1	95.640	-0.280	-0.140	1.470
2020/01/31 21:58:11.2	95.650	-0.270	-0.120	1.480
2020/01/31 21:58:11.3	95.660	-0.260	-0.090	1.480
2020/01/31 21:58:11.4	95.670	-0.250	-0.060	1.480
2020/01/31 21:58:11.5	95.680	-0.240	-0.030	1.480
2020/01/31 21:58:11.6	95.690	-0.230	-0.000	1.480
2020/01/31 21:58:11.7	95.700	-0.220	0.030	1.470
2020/01/31 21:58:11.8	95.700	-0.210	0.050	1.460
2020/01/31 21:58:11.9	95.710	-0.190	0.080	1.460
2020/01/31 21:58:12.0	95.710	-0.180	0.110	1.450
2020/01/31 21:58:12.1	95.710	-0.170	0.140	1.440
2020/01/31 21:58:12.2	95.720	-0.160	0.170	1.420
2020/01/31 21:58:12.3	95.720	-0.140	0.190	1.410
2020/01/31 21:58:12.4	95.720	-0.130	0.210	1.390
2020/01/31 21:58:12.5	95.720	-0.120	0.230	1.370
2020/01/31 21:58:12.6	95.720	-0.100	0.250	1.350
2020/01/31 21:58:12.7	95.720	-0.090	0.270	1.330
2020/01/31 21:58:12.8	95.720	-0.080	0.280	1.310
2020/01/31 21:58:12.9	95.720	-0.060	0.290	1.280
2020/01/31 21:58:13.0	95.720	-0.050	0.290	1.250
2020/01/31 21:58:13.1	95.720	-0.030	0.290	1.220
2020/01/31 21:58:13.2	95.720	-0.020	0.280	1.190
2020/01/31 21:58:13.3	95.710	-0.000	0.270	1.150
2020/01/31 21:58:13.4	95.710	0.020	0.260	1.120
2020/01/31 21:58:13.5	95.710	0.030	0.230	1.080
2020/01/31 21:58:13.6	95.700	0.050	0.210	1.050
2020/01/31 21:58:13.7	95.700	0.070	0.170	1.010
2020/01/31 21:58:13.8	95.700	0.090	0.140	0.970
2020/01/31 21:58:13.9	95.690	0.110	0.090	0.930
2020/01/31 21:58:14.0	95.690	0.130	0.040	0.890
2020/01/31 21:58:14.1	95.680	0.160	-0.010	0.850
2020/01/31 21:58:14.2	95.680	0.180	-0.070	0.810
2020/01/31 21:58:14.3	95.680	0.200	-0.130	0.770
2020/01/31 21:58:14.4	95.680	0.230	-0.190	0.720
2020/01/31 21:58:14.5	95.680	0.250	-0.260	0.680
2020/01/31 21:58:14.6	95.680	0.270	-0.330	0.630
2020/01/31 21:58:14.7	95.680	0.300	-0.400	0.580
2020/01/31 21:58:14.8	95.680	0.320	-0.470	0.540
2020/01/31 21:58:14.9	95.680	0.350	-0.540	0.490
2020/01/31 21:58:15.0	95.680	0.370	-0.600	0.440
2020/01/31 21:58:15.1	95.680	0.390	-0.670	0.390
2020/01/31 21:58:15.2	95.680	0.410	-0.730	0.340
2020/01/31 21:58:15.3	95.680	0.430	-0.790	0.300
2020/01/31 21:58:15.4	95.680	0.450	-0.850	0.250
2020/01/31 21:58:15.5	95.680	0.470	-0.900	0.200
2020/01/31 21:58:15.6	95.670	0.480	-0.940	0.150
2020/01/31 21:58:15.7	95.670	0.500	-0.980	0.110
2020/01/31 21:58:15.8	95.660	0.510	-1.010	0.060
2020/01/31 21:58:15.9	95.650	0.520	-1.040	0.020
2020/01/31 21:58:16.0	95.640	0.520	-1.050	-0.020
2020/01/31 21:58:16.1	95.630	0.520	-1.060	-0.060
2020/01/31 21:58:16.2	95.620	0.520	-1.060	-0.100
2020/01/31 21:58:16.3	95.600	0.520	-1.050	-0.130
2020/01/31 21:58:16.4	95.590	0.510	-1.030	-0.170
2020/01/31 21:58:16.5	95.580	0.510	-1.010	-0.200
2020/01/31 21:58:16.6	95.560	0.490	-0.970	-0.230
2020/01/31 21:58:16.7	95.550	0.480	-0.930	-0.260
2020/01/31 21:58:16.8	95.530	0.460	-0.880	-0.290
2020/01/31 21:58:16.9	95.520	0.440	-0.830	-0.320
2020/01/31 21:58:17.0	95.510	0.420	-0.760	-0.350
2020/01/31 21:58:17.1	95.500	0.390	-0.700	-0.370
2020/01/31 21:58:17.2	95.480	0.360	-0.620	-0.400
2020/01/31 21:58:17.3	95.470	0.330	-0.550	-0.420
2020/01/31 21:58:17.4	95.460	0.300	-0.470	-0.440
2020/01/31 21:58:17.5	95.440	0.260	-0.390	-0.460
2020/01/31 21:58:17.6	95.430	0.230	-0.300	-0.480
2020/01/31 21:58:17.7	95.430	0.190	-0.210	-0.500
2020/01/31 21:58:17.8	95.420	0.160	-0.130	-0.510
2020/01/31 21:58:17.9	95.420	0.120	-0.040	-0.530
2020/01/31 21:58:18.0	95.400	0.080	0.040	-0.550
2020/01/31 21:58:18.1	95.410	0.040	0.130	-0.560
2020/01/31 21:58:18.2	95.410	0.010	0.210	-0.580
2020/01/31 21:58:18.3	95.410	-0.030	0.290	-0.590
2020/01/31 21:58:18.4	95.420	-0.070	0.360	-0.600
2020/01/31 21:58:18.5	95.430	-0.100	0.430	-0.610
2020/01/31 21:58:18.6	95.450	-0.140	0.500	-0.620
2020/01/31 21:58:18.7	95.460	-0.170	0.560	-0.620
2020/01/31 21:58:18.8	95.480	-0.200	0.610	-0.630
2020/01/31 21:58:18.9	95.490	-0.230	0.670	-0.630
2020/01/31 21:58:19.0	95.510	-0.260	0.710	-0.620
2020/01/31 21:58:19.1	95.530	-0.280	0.750	-0.620
2020/01/31 21:58:19.2	95.560	-0.310	0.780	-0.610
2020/01/31 21:58:19.3	95.580	-0.330	0.810	-0.600
2020/01/31 21:58:19.4	95.610	-0.350	0.830	-0.590
2020/01/31 21:58:19.5	95.630	-0.370	0.850	-0.580
2020/01/31 21:58:19.6	95.660	-0.390	0.860	-0.560
2020/01/31 21:58:19.7	95.690	-0.400	0.860	-0.540
2020/01/31 21:58:19.8	95.720	-0.420	0.860	-0.520
2020/01/31 21:58:19.9	95.750	-0.430	0.860	-0.490
2020/01/31 21:58:20.0	95.760	-0.440	0.840	-0.460
2020/01/31 21:58:20.1	95.790	-0.450	0.830	-0.440
2020/01/31 21:58:20.2	95.820	-0.460	0.810	-0.400
2020/01/31 21:58:20.3	95.850	-0.460	0.780	-0.370
2020/01/31 21:58:20.4	95.880	-0.470	0.750	-0.340
2020/01/31 21:58:20.5	95.910	-0.470	0.710	-0.300
2020/01/31 21:58:20.6	95.940	-0.470	0.670	-0.260
2020/01/31 21:58:20.7	95.970	-0.470	0.630	-0.220
2020/01/31 21:58:20.8	96.000	-0.470	0.580	-0.180
2020/01/31 21:58:20.9	96.020	-0.460	0.530	-0.140
2020/01/31 21:58:21.0	96.060	-0.460	0.480	-0.090
2020/01/31 21:58:21.1	96.080	-0.450	0.420	-0.050
2020/01/31 21:58:21.2	96.100	-0.440	0.360	0.000
2020/01/31 21:58:21.3	96.120	-0.440	0.290	0.050
2020/01/31 21:58:21.4	96.140	-0.430	0.230	0.100
2020/01/31 21:58:21.5	96.160	-0.410	0.160	0.150
2020/01/31 21:58:21.6	96.170	-0.400	0.090	0.200
2020/01/31 21:58:21.7	96.190	-0.390	0.020	0.250
2020/01/31 21:58:21.8	96.200	-0.370	-0.050	0.310
2020/01/31 21:58:21.9	96.200	-0.350	-0.120	0.360
2020/01/31 21:58:22.0	96.220	-0.340	-0.190	0.410
2020/01/31 21:58:22.1	96.230	-0.320	-0.260	0.470
2020/01/31 21:58:22.2	96.230	-0.300	-0.330	0.530
2020/01/31 21:58:22.3	96.230	-0.280	-0.390	0.590
2020/01/31 21:58:22.4	96.230	-0.250	-0.460	0.650
2020/01/31 21:58:22.5	96.220	-0.230	-0.520	0.710
2020/01/31 21:58:22.6	96.220	-0.210	-0.580	0.770
2020/01/31 21:58:22.7	96.210	-0.180	-0.640	0.830
2020/01/31 21:58:22.8	96.200	-0.160	-0.690	0.900
2020/01/31 21:58:22.9	96.190	-0.130	-0.750	0.960
2020/01/31 21:58:23.0	96.180	-0.110	-0.800	1.030
2020/01/31 21:58:23.1	96.170	-0.080	-0.850	1.100
2020/01/31 21:58:23.2	96.150	-0.060	-0.890	1.170
2020/01/31 21:58:23.3	96.130	-0.030	-0.930	1.240
2020/01/31 21:58:23.4	96.110	-0.000	-0.970	1.310
2020/01/31 21:58:23.5	96.090	0.020	-1.000	1.390
2020/01/31 21:58:23.6	96.070	0.050	-1.030	1.460
2020/01/31 21:58:23.7	96.040	0.070	-1.060	1.540
2020/01/31 21:58:23.8	96.020	0.100	-1.080	1.610
2020/01/31 21:58:23.9	95.990	0.120	-1.100	1.680
2020/01/31 21:58:24.0	95.970	0.140	-1.120	1.760
2020/01/31 21:58:24.1	95.940	0.160	-1.130	1.830
2020/01/31 21:58:24.2	95.910	0.190	-1.140	1.900
2020/01/31 21:58:24.3	95.880	0.200	-1.140	1.970
2020/01/31 21:58:24.4	95.850	0.220	-1.140	2.040
2020/01/31 21:58:24.5	95.820	0.240	-1.140	2.110
2020/01/31 21:58:24.6	95.800	0.250	-1.130	2.170
2020/01/31 21:58:24.7	95.770	0.270	-1.120	2.230
2020/01/31 21:58:24.8	95.740	0.280	-1.110	2.280
2020/01/31 21:58:24.9	95.720	0.280	-1.090	2.330
2020/01/31 21:58:25.0	95.700	0.290	-1.060	2.380
2020/01/31 21:58:25.1	95.680	0.300	-1.030	2.420
2020/01/31 21:58:25.2	95.660	0.300	-1.000	2.460
2020/01/31 21:58:25.3	95.640	0.300	-0.970	2.480
2020/01/31 21:58:25.4	95.630	0.290	-0.930	2.510
2020/01/31 21:58:25.5	95.610	0.290	-0.890	2.520
2020/01/31 21:58:25.6	95.600	0.280	-0.850	2.530
2020/01/31 21:58:25.7	95.590	0.270	-0.800	2.540
2020/01/31 21:58:25.8	95.580	0.260	-0.750	2.530
2020/01/31 21:58:25.9	95.580	0.250	-0.690	2.520
2020/01/31 21:58:26.0	95.590	0.230	-0.640	2.500
2020/01/31 21:58:26.1	95.590	0.210	-0.570	2.470
2020/01/31 21:58:26.2	95.590	0.190	-0.510	2.440
2020/01/31 21:58:26.3	95.590	0.170	-0.440	2.390
2020/01/31 21:58:26.4	95.600	0.150	-0.370	2.350
2020/01/31 21:58:26.5	95.610	0.120	-0.300	2.290
2020/01/31 21:58:26.6	95.610	0.090	-0.230	2.230
2020/01/31 21:58:26.7	95.620	0.070	-0.150	2.170
2020/01/31 21:58:26.8	95.630	0.040	-0.080	2.100
2020/01/31 21:58:26.9	95.640	0.010	-0.000	2.020
2020/01/31 21:58:27.0	95.650	-0.020	0.080	1.940
2020/01/31 21:58:27.1	95.660	-0.050	0.160	1.860
2020/01/31 21:58:27.2	95.670	-0.080	0.240	1.770
2020/01/31 21:58:27.3	95.680	-0.110	0.310	1.680
2020/01/31 21:58:27.4	95.700	-0.130	0.390	1.590
2020/01/31 21:58:27.5	95.710	-0.160	0.460	1.500
2020/01/31 21:58:27.6	95.720	-0.190	0.530	1.400
2020/01/31 21:58:27.7	95.730	-0.210	0.590	1.310
2020/01/31 21:58:27.8	95.740	-0.230	0.660	1.210
2020/01/31 21:58:27.9	95.760	-0.260	0.720	1.120
2020/01/31 21:58:28.0	95.760	-0.270	0.770	1.010
2020/01/31 21:58:28.1	95.770	-0.290	0.820	0.910
2020/01/31 21:58:28.2	95.780	-0.300	0.860	0.810
2020/01/31 21:58:28.3	95.790	-0.320	0.900	0.710
2020/01/31 21:58:28.4	95.800	-0.320	0.930	0.620
2020/01/31 21:58:28.5	95.810	-0.330	0.950	0.520
2020/01/31 21:58:28.6	95.810	-0.330	0.970	0.420
2020/01/31 21:58:28.7	95.820	-0.330	0.980	0.320
2020/01/31 21:58:28.8	95.830	-0.330	0.980	0.230
2020/01/31 21:58:28.9	95.840	-0.320	0.980	0.130
2020/01/31 21:58:29.0	95.840	-0.310	0.960	0.040
2020/01/31 21:58:29.1	95.850	-0.300	0.940	-0.060
2020/01/31 21:58:29.2	95.850	-0.280	0.910	-0.150
2020/01/31 21:58:29.3	95.860	-0.270	0.870	-0.250
2020/01/31 21:58:29.4	95.860	-0.240	0.820	-0.340
2020/01/31 21:58:29.5	95.870	-0.220	0.770	-0.430
2020/01/31 21:58:29.6	95.870	-0.190	0.710	-0.520
2020/01/31 21:58:29.7	95.870	-0.160	0.640	-0.610
2020/01/31 21:58:29.8	95.870	-0.130	0.570	-0.690
2020/01/31 21:58:29.9	95.870	-0.090	0.490	-0.780
2020/01/31 21:58:30.0	95.870	-0.060	0.400	-0.860
2020/01/31 21:58:30.1	95.860	-0.020	0.310	-0.940
2020/01/31 21:58:30.2	95.860	0.020	0.220	-1.010
2020/01/31 21:58:30.3	95.860	0.060	0.130	-1.080
2020/01/31 21:58:30.4	95.850	0.100	0.030	-1.150
2020/01/31 21:58:30.5	95.850	0.140	-0.060	-1.210
2020/01/31 21:58:30.6	95.840	0.180	-0.160	-1.270
2020/01/31 21:58:30.7	95.830	0.220	-0.260	-1.330
2020/01/31 21:58:30.8	95.820	0.260	-0.360	-1.380
2020/01/31 21:58:30.9	95.810	0.300	-0.450	-1.430
2020/01/31 21:58:31.0	95.810	0.340	-0.540	-1.470
2020/01/31 21:58:31.1	95.800	0.380	-0.630	-1.510
2020/01/31 21:58:31.2	95.790	0.410	-0.720	-1.550
2020/01/31 21:58:31.3	95.780	0.450	-0.800	-1.580
2020/01/31 21:58:31.4	95.770	0.480	-0.880	-1.610
2020/01/31 21:58:31.5	95.760	0.500	-0.950	-1.640
2020/01/31 21:58:31.6	95.750	0.530	-1.020	-1.660
2020/01/31 21:58:31.7	95.740	0.550	-1.080	-1.680
2020/01/31 21:58:31.8	95.740	0.570	-1.130	-1.690
2020/01/31 21:58:31.9	95.730	0.590	-1.180	-1.710
2020/01/31 21:58:32.0	95.720	0.600	-1.220	-1.720
2020/01/31 21:58:32.1	95.710	0.610	-1.250	-1.720
2020/01/31 21:58:32.2	95.710	0.620	-1.270	-1.720
2020/01/31 21:58:32.3	95.700	0.620	-1.290	-1.720
2020/01/31 21:58:32.4	95.700	0.620	-1.300	-1.710
2020/01/31 21:58:32.5	95.700	0.620	-1.300	-1.700
2020/01/31 21:58:32.6	95.700	0.610	-1.290	-1.680
2020/01/31 21:58:32.7	95.700	0.600	-1.280	-1.660
2020/01/31 21:58:32.8	95.700	0.590	-1.250	-1.630
2020/01/31 21:58:32.9	95.700	0.570	-1.220	-1.600
2020/01/31 21:58:33.0	95.700	0.560	-1.190	-1.570
2020/01/31 21:58:33.1	95.710	0.540	-1.140	-1.530
2020/01/31 21:58:33.2	95.710	0.510	-1.090	-1.480
2020/01/31 21:58:33.3	95.710	0.490	-1.030	-1.440
2020/01/31 21:58:33.4	95.720	0.460	-0.970	-1.380
2020/01/31 21:58:33.5	95.730	0.430	-0.900	-1.330
2020/01/31 21:58:33.6	95.740	0.400	-0.830	-1.270
2020/01/31 21:58:33.7	95.750	0.360	-0.760	-1.200
2020/01/31 21:58:33.8	95.760	0.330	-0.680	-1.130
2020/01/31 21:58:33.9	95.770	0.290	-0.590	-1.060
2020/01/31 21:58:34.0	95.790	0.250	-0.510	-0.990
2020/01/31 21:58:34.1	95.800	0.210	-0.430	-0.910
2020/01/31 21:58:34.2	95.820	0.170	-0.340	-0.820
2020/01/31 21:58:34.3	95.830	0.130	-0.250	-0.740
2020/01/31 21:58:34.4	95.850	0.090	-0.170	-0.650
2020/01/31 21:58:34.5	95.860	0.050	-0.080	-0.560
2020/01/31 21:58:34.6	95.880	0.010	0.000	-0.460
2020/01/31 21:58:34.7	95.900	-0.030	0.090	-0.370
2020/01/31 21:58:34.8	95.910	-0.080	0.170	-0.270
2020/01/31 21:58:34.9	95.930	-0.120	0.240	-0.160
2020/01/31 21:58:35.0	95.940	-0.160	0.320	-0.060
2020/01/31 21:58:35.1	95.950	-0.200	0.390	0.050
2020/01/31 21:58:35.2	95.970	-0.240	0.450	0.160
2020/01/31 21:58:35.3	95.980	-0.280	0.510	0.270
2020/01/31 21:58:35.4	96.000	-0.320	0.570	0.380
2020/01/31 21:58:35.5	96.010	-0.350	0.620	0.490
2020/01/31 21:58:35.6	96.020	-0.390	0.660	0.600
2020/01/31 21:58:35.7	96.030	-0.420	0.700	0.720
2020/01/31 21:58:35.8	96.030	-0.460	0.730	0.830
2020/01/31 21:58:35.9	96.040	-0.490	0.760	0.950
2020/01/31 21:58:36.0	96.040	-0.520	0.780	1.060
2020/01/31 21:58:36.1	96.050	-0.550	0.790	1.180
2020/01/31 21:58:36.2	96.050	-0.570	0.800	1.290
2020/01/31 21:58:36.3	96.050	-0.600	0.800	1.410
2020/01/31 21:58:36.4	96.050	-0.620	0.800	1.520
2020/01/31 21:58:36.5	96.050	-0.640	0.790	1.630
2020/01/31 21:58:36.6	96.040	-0.660	0.780	1.740
2020/01/31 21:58:36.7	96.040	-0.680	0.760	1.850
2020/01/31 21:58:36.8	96.030	-0.690	0.740	1.960
2020/01/31 21:58:36.9	96.030	-0.700	0.710	2.060
2020/01/31 21:58:37.0	96.030	-0.710	0.680	2.170
2020/01/31 21:58:37.1	96.020	-0.720	0.640	2.270
2020/01/31 21:58:37.2	96.010	-0.730	0.600	2.370
2020/01/31 21:58:37.3	96.010	-0.730	0.550	2.460
2020/01/31 21:58:37.4	96.000	-0.730	0.500	2.550
2020/01/31 21:58:37.5	96.000	-0.730	0.450	2.640
2020/01/31 21:58:37.6	95.990	-0.730	0.400	2.710
2020/01/31 21:58:37.7	95.990	-0.720	0.340	2.790
2020/01/31 21:58:37.8	95.980	-0.710	0.280	2.860
2020/01/31 21:58:37.9	95.980	-0.700	0.220	2.920
2020/01/31 21:58:38.0	95.990	-0.680	0.150	2.980
2020/01/31 21:58:38.1	95.990	-0.670	0.090	3.030
2020/01/31 21:58:38.2	96.000	-0.650	0.020	3.080
2020/01/31 21:58:38.3	96.000	-0.630	-0.040	3.120
2020/01/31 21:58:38.4	96.010	-0.600	-0.110	3.160
2020/01/31 21:58:38.5	96.020	-0.580	-0.170	3.190
2020/01/31 21:58:38.6	96.030	-0.550	-0.240	3.210
2020/01/31 21:58:38.7	96.040	-0.520	-0.300	3.230
2020/01/31 21:58:38.8	96.060	-0.480	-0.360	3.240
2020/01/31 21:58:38.9	96.070	-0.450	-0.420	3.250
2020/01/31 21:58:39.0	96.100	-0.410	-0.480	3.260
2020/01/31 21:58:39.1	96.110	-0.370	-0.540	3.250
2020/01/31 21:58:39.2	96.130	-0.330	-0.590	3.250
2020/01/31 21:58:39.3	96.150	-0.290	-0.640	3.230
2020/01/31 21:58:39.4	96.160	-0.250	-0.690	3.210
2020/01/31 21:58:39.5	96.180	-0.200	-0.730	3.190
2020/01/31 21:58:39.6	96.190	-0.160	-0.770	3.170
2020/01/31 21:58:39.7	96.210	-0.110	-0.800	3.130
2020/01/31 21:58:39.8	96.220	-0.070	-0.830	3.100
2020/01/31 21:58:39.9	96.230	-0.020	-0.860	3.060
2020/01/31 21:58:40.0	96.240	0.030	-0.880	3.010
2020/01/31 21:58:40.1	96.250	0.070	-0.900	2.960
2020/01/31 21:58:40.2	96.250	0.120	-0.910	2.910
2020/01/31 21:58:40.3	96.250	0.170	-0.910	2.860
2020/01/31 21:58:40.4	96.250	0.210	-0.920	2.800
2020/01/31 21:58:40.5	96.240	0.260	-0.920	2.740
2020/01/31 21:58:40.6	96.230	0.300	-0.910	2.670
2020/01/31 21:58:40.7	96.220	0.340	-0.900	2.600
2020/01/31 21:58:40.8	96.210	0.390	-0.880	2.530
2020/01/31 21:58:40.9	96.190	0.430	-0.860	2.450
2020/01/31 21:58:41.0	96.170	0.460	-0.840	2.360
2020/01/31 21:58:41.1	96.150	0.500	-0.810	2.280
2020/01/31 21:58:41.2	96.130	0.530	-0.780	2.190
2020/01/31 21:58:41.3	96.110	0.570	-0.750	2.090
2020/01/31 21:58:41.4	96.090	0.600	-0.710	1.990
2020/01/31 21:58:41.5	96.060	0.620	-0.680	1.890
2020/01/31 21:58:41.6	96.040	0.650	-0.640	1.780
2020/01/31 21:58:41.7	96.020	0.670	-0.600	1.660
2020/01/31 21:58:41.8	95.990	0.690	-0.560	1.550
2020/01/31 21:58:41.9	95.970	0.710	-0.520	1.430
2020/01/31 21:58:42.0	95.950	0.730	-0.470	1.300
2020/01/31 21:58:42.1	95.920	0.740	-0.430	1.170
2020/01/31 21:58:42.2	95.900	0.750	-0.390	1.040
2020/01/31 21:58:42.3	95.880	0.750	-0.350	0.900
2020/01/31 21:58:42.4	95.860	0.760	-0.320	0.770
2020/01/31 21:58:42.5	95.840	0.760	-0.280	0.630
2020/01/31 21:58:42.6	95.830	0.760	-0.240	0.490
2020/01/31 21:58:42.7	95.810	0.760	-0.210	0.360
2020/01/31 21:58:42.8	95.800	0.750	-0.180	0.220
2020/01/31 21:58:42.9	95.780	0.740	-0.150	0.080
2020/01/31 21:58:43.0	95.760	0.730	-0.120	-0.060
2020/01/31 21:58:43.1	95.740	0.710	-0.090	-0.190
2020/01/31 21:58:43.2	95.730	0.700	-0.070	-0.320
2020/01/31 21:58:43.3	95.730	0.680	-0.050	-0.450
2020/01/31 21:58:43.4	95.720	0.660	-0.030	-0.570
2020/01/31 21:58:43.5	95.710	0.630	-0.010	-0.690
2020/01/31 21:58:43.6	95.710	0.610	0.000	-0.810
2020/01/31 21:58:43.7	95.700	0.580	0.010	-0.920
2020/01/31 21:58:43.8	95.700	0.550	0.020	-1.030
2020/01/31 21:58:43.9	95.700	0.510	0.030	-1.140
2020/01/31 21:58:44.0	95.690	0.480	0.030	-1.240
2020/01/31 21:58:44.1	95.690	0.450	0.040	-1.330
2020/01/31 21:58:44.2	95.700	0.410	0.040	-1.420
2020/01/31 21:58:44.3	95.710	0.370	0.040	-1.500
2020/01/31 21:58:44.4	95.720	0.330	0.040	-1.580
2020/01/31 21:58:44.5	95.730	0.290	0.040	-1.660
2020/01/31 21:58:44.6	95.740	0.250	0.040	-1.720
2020/01/31 21:58:44.7	95.760	0.210	0.040	-1.780
2020/01/31 21:58:44.8	95.770	0.170	0.030	-1.840
2020/01/31 21:58:44.9	95.790	0.120	0.030	-1.890
2020/01/31 21:58:45.0	95.800	0.080	0.030	-1.940
2020/01/31 21:58:45.1	95.820	0.040	0.020	-1.980
2020/01/31 21:58:45.2	95.850	-0.000	0.020	-2.010
2020/01/31 21:58:45.3	95.870	-0.040	0.010	-2.040
2020/01/31 21:58:45.4	95.900	-0.080	0.010	-2.060
2020/01/31 21:58:45.5	95.920	-0.120	0.000	-2.080
2020/01/31 21:58:45.6	95.950	-0.160	-0.000	-2.090
2020/01/31 21:58:45.7	95.980	-0.200	-0.010	-2.100
2020/01/31 21:58:45.8	96.010	-0.240	-0.010	-2.100
2020/01/31 21:58:45.9	96.040	-0.270	-0.010	-2.100
2020/01/31 21:58:46.0	96.070	-0.300	-0.020	-2.090
2020/01/31 21:58:46.1	96.100	-0.330	-0.020	-2.070
2020/01/31 21:58:46.2	96.130	-0.360	-0.030	-2.050
2020/01/31 21:58:46.3	96.160	-0.380	-0.040	-2.020
2020/01/31 21:58:46.4	96.180	-0.410	-0.040	-1.990
2020/01/31 21:58:46.5	96.210	-0.430	-0.050	-1.950
2020/01/31 21:58:46.6	96.240	-0.440	-0.060	-1.910
2020/01/31 21:58:46.7	96.260	-0.460	-0.060	-1.860
2020/01/31 21:58:46.8	96.290	-0.470	-0.070	-1.800
2020/01/31 21:58:46.9	96.310	-0.480	-0.080	-1.740
2020/01/31 21:58:47.0	96.330	-0.490	-0.090	-1.680
2020/01/31 21:58:47.1	96.360	-0.490	-0.110	-1.610
2020/01/31 21:58:47.2	96.380	-0.490	-0.120	-1.530
2020/01/31 21:58:47.3	96.400	-0.490	-0.130	-1.450
2020/01/31 21:58:47.4	96.410	-0.490	-0.150	-1.370
2020/01/31 21:58:47.5	96.430	-0.480	-0.160	-1.280
2020/01/31 21:58:47.6	96.450	-0.470	-0.180	-1.190
2020/01/31 21:58:47.7	96.460	-0.460	-0.200	-1.090
2020/01/31 21:58:47.8	96.480	-0.440	-0.210	-0.990
2020/01/31 21:58:47.9	96.490	-0.430	-0.230	-0.890
2020/01/31 21:58:48.0	96.500	-0.410	-0.240	-0.770
2020/01/31 21:58:48.1	96.510	-0.390	-0.260	-0.660
2020/01/31 21:58:48.2	96.520	-0.370	-0.270	-0.550
2020/01/31 21:58:48.3	96.530	-0.350	-0.280	-0.430
2020/01/31 21:58:48.4	96.530	-0.330	-0.300	-0.310
2020/01/31 21:58:48.5	96.540	-0.300	-0.310	-0.180
2020/01/31 21:58:48.6	96.540	-0.280	-0.310	-0.060
2020/01/31 21:58:48.7	96.550	-0.250	-0.320	0.070
2020/01/31 21:58:48.8	96.550	-0.230	-0.330	0.200
2020/01/31 21:58:48.9	96.550	-0.200	-0.330	0.340
2020/01/31 21:58:49.0	96.550	-0.180	-0.330	0.470
2020/01/31 21:58:49.1	96.540	-0.160	-0.320	0.610
2020/01/31 21:58:49.2	96.540	-0.130	-0.320	0.750
2020/01/31 21:58:49.3	96.530	-0.110	-0.310	0.880
2020/01/31 21:58:49.4	96.520	-0.090	-0.290	1.020
2020/01/31 21:58:49.5	96.520	-0.070	-0.280	1.160
2020/01/31 21:58:49.6	96.500	-0.050	-0.260	1.300
2020/01/31 21:58:49.7	96.490	-0.030	-0.240	1.430
2020/01/31 21:58:49.8	96.480	-0.020	-0.210	1.570
2020/01/31 21:58:49.9	96.470	-0.010	-0.190	1.700
2020/01/31 21:58:50.0	96.470	0.010	-0.160	1.830
2020/01/31 21:58:50.1	96.450	0.020	-0.130	1.950
2020/01/31 21:58:50.2	96.440	0.030	-0.100	2.070
2020/01/31 21:58:50.3	96.420	0.030	-0.070	2.180
2020/01/31 21:58:50.4	96.410	0.040	-0.030	2.290
2020/01/31 21:58:50.5	96.400	0.040	-0.000	2.390
2020/01/31 21:58:50.6	96.380	0.040	0.030	2.490
2020/01/31 21:58:50.7	96.370	0.040	0.060	2.580
2020/01/31 21:58:50.8	96.350	0.040	0.090	2.660
2020/01/31 21:58:50.9	96.340	0.040	0.120	2.730
2020/01/31 21:58:51.0	96.340	0.040	0.150	2.800
2020/01/31 21:58:51.1	96.330	0.030	0.180	2.860
2020/01/31 21:58:51.2	96.320	0.030	0.200	2.910
2020/01/31 21:58:51.3	96.310	0.020	0.220	2.940
2020/01/31 21:58:51.4	96.300	0.020	0.240	2.970
2020/01/31 21:58:51.5	96.300	0.010	0.250	2.990
2020/01/31 21:58:51.6	96.290	0.000	0.260	3.000
2020/01/31 21:58:51.7	96.280	-0.000	0.270	3.010
2020/01/31 21:58:51.8	96.280	-0.010	0.270	3.000
2020/01/31 21:58:51.9	96.270	-0.020	0.270	2.980
2020/01/31 21:58:52.0	96.270	-0.020	0.270	2.950
2020/01/31 21:58:52.1	96.260	-0.030	0.260	2.920
2020/01/31 21:58:52.2	96.260	-0.030	0.250	2.880
2020/01/31 21:58:52.3	96.260	-0.040	0.240	2.830
2020/01/31 21:58:52.4	96.260	-0.040	0.220	2.780
2020/01/31 21:58:52.5	96.260	-0.040	0.200	2.720
2020/01/31 21:58:52.6	96.260	-0.040	0.180	2.650
2020/01/31 21:58:52.7	96.260	-0.040	0.160	2.580
2020/01/31 21:58:52.8	96.260	-0.040	0.130	2.500
2020/01/31 21:58:52.9	96.260	-0.040	0.100	2.410
2020/01/31 21:58:53.0	96.260	-0.040	0.070	2.320
2020/01/31 21:58:53.1	96.270	-0.040	0.040	2.230
2020/01/31 21:58:53.2	96.270	-0.030	0.010	2.130
2020/01/31 21:58:53.3	96.280	-0.030	-0.030	2.040
2020/01/31 21:58:53.4	96.280	-0.020	-0.070	1.930
2020/01/31 21:58:53.5	96.290	-0.010	-0.100	1.830
2020/01/31 21:58:53.6	96.300	-0.010	-0.140	1.720
2020/01/31 21:58:53.7	96.300	0.000	-0.180	1.620
2020/01/31 21:58:53.8	96.310	0.010	-0.220	1.510
2020/01/31 21:58:53.9	96.320	0.020	-0.260	1.400
2020/01/31 21:58:54.0	96.330	0.030	-0.310	1.280
2020/01/31 21:58:54.1	96.340	0.040	-0.350	1.180
2020/01/31 21:58:54.2	96.350	0.050	-0.390	1.070
2020/01/31 21:58:54.3	96.360	0.070	-0.430	0.960
2020/01/31 21:58:54.4	96.370	0.080	-0.470	0.850
2020/01/31 21:58:54.5	96.380	0.090	-0.510	0.740
2020/01/31 21:58:54.6	96.400	0.100	-0.550	0.640
2020/01/31 21:58:54.7	96.410	0.110	-0.590	0.530
2020/01/31 21:58:54.8	96.430	0.130	-0.630	0.430
2020/01/31 21:58:54.9	96.450	0.140	-0.660	0.330
2020/01/31 21:58:55.0	96.460	0.150	-0.700	0.230
2020/01/31 21:58:55.1	96.480	0.160	-0.730	0.130
2020/01/31 21:58:55.2	96.500	0.170	-0.760	0.040
2020/01/31 21:58:55.3	96.520	0.180	-0.790	-0.060
2020/01/31 21:58:55.4	96.540	0.190	-0.820	-0.150
2020/01/31 21:58:55.5	96.560	0.190	-0.840	-0.230
2020/01/31 21:58:55.6	96.580	0.200	-0.860	-0.320
2020/01/31 21:58:55.7	96.600	0.200	-0.880	-0.400
2020/01/31 21:58:55.8	96.630	0.210	-0.900	-0.480
2020/01/31 21:58:55.9	96.650	0.210	-0.910	-0.550
2020/01/31 21:58:56.0	96.680	0.210	-0.920	-0.620
2020/01/31 21:58:56.1	96.700	0.210	-0.930	-0.690
2020/01/31 21:58:56.2	96.720	0.210	-0.930	-0.750
2020/01/31 21:58:56.3	96.740	0.210	-0.930	-0.810
2020/01/31 21:58:56.4	96.760	0.210	-0.920	-0.870
2020/01/31 21:58:56.5	96.770	0.200	-0.910	-0.920
2020/01/31 21:58:56.6	96.790	0.200	-0.900	-0.970
2020/01/31 21:58:56.7	96.800	0.190	-0.880	-1.010
2020/01/31 21:58:56.8	96.810	0.180	-0.860	-1.050
2020/01/31 21:58:56.9	96.820	0.170	-0.830	-1.080
2020/01/31 21:58:57.0	96.820	0.160	-0.800	-1.120
2020/01/31 21:58:57.1	96.820	0.150	-0.770	-1.140
2020/01/31 21:58:57.2	96.820	0.140	-0.730	-1.160
2020/01/31 21:58:57.3	96.820	0.130	-0.690	-1.180
2020/01/31 21:58:57.4	96.820	0.120	-0.640	-1.190
2020/01/31 21:58:57.5	96.820	0.110	-0.590	-1.200
2020/01/31 21:58:57.6	96.810	0.100	-0.540	-1.210
2020/01/31 21:58:57.7	96.810	0.080	-0.490	-1.210
2020/01/31 21:58:57.8	96.800	0.070	-0.430	-1.210
2020/01/31 21:58:57.9	96.790	0.060	-0.370	-1.200
2020/01/31 21:58:58.0	96.770	0.050	-0.300	-1.190
2020/01/31 21:58:58.1	96.760	0.040	-0.240	-1.180
2020/01/31 21:58:58.2	96.740	0.030	-0.180	-1.170
2020/01/31 21:58:58.3	96.730	0.020	-0.110	-1.150
2020/01/31 21:58:58.4	96.710	0.010	-0.040	-1.130
2020/01/31 21:58:58.5	96.690	0.000	0.020	-1.110
2020/01/31 21:58:58.6	96.670	-0.010	0.090	-1.090
2020/01/31 21:58:58.7	96.660	-0.010	0.160	-1.060
2020/01/31 21:58:58.8	96.640	-0.020	0.220	-1.040
2020/01/31 21:58:58.9	96.620	-0.020	0.280	-1.010
2020/01/31 21:58:59.0	96.600	-0.030	0.340	-0.980
2020/01/31 21:58:59.1	96.580	-0.030	0.400	-0.940
2020/01/31 21:58:59.2	96.560	-0.030	0.450	-0.910
2020/01/31 21:58:59.3	96.540	-0.030	0.500	-0.870
2020/01/31 21:58:59.4	96.520	-0.030	0.550	-0.830
2020/01/31 21:58:59.5	96.500	-0.030	0.590	-0.790
2020/01/31 21:58:59.6	96.480	-0.030	0.630	-0.740
2020/01/31 21:58:59.7	96.460	-0.030	0.660	-0.690
2020/01/31 21:58:59.8	96.450	-0.030	0.690	-0.650
2020/01/31 21:58:59.9	96.430	-0.030	0.710	-0.590
2020/01/31 21:59:00.0	96.420	-0.020	0.720	-0.540
2020/01/31 21:59:00.1	96.400	-0.020	0.730	-0.480
2020/01/31 21:59:00.2	96.390	-0.010	0.740	-0.430
2020/01/31 21:59:00.3	96.380	-0.010	0.730	-0.370
2020/01/31 21:59:00.4	96.370	-0.010	0.720	-0.310
2020/01/31 21:59:00.5	96.360	-0.000	0.700	-0.260
2020/01/31 21:59:00.6	96.350	0.000	0.680	-0.200
2020/01/31 21:59:00.7	96.350	0.010	0.650	-0.140
2020/01/31 21:59:00.8	96.350	0.010	0.620	-0.090
2020/01/31 21:59:00.9	96.350	0.020	0.580	-0.030
2020/01/31 21:59:01.0	96.340	0.020	0.530	0.020
2020/01/31 21:59:01.1	96.350	0.020	0.480	0.080
2020/01/31 21:59:01.2	96.350	0.030	0.430	0.130
2020/01/31 21:59:01.3	96.360	0.030	0.370	0.180
2020/01/31 21:59:01.4	96.370	0.030	0.300	0.230
2020/01/31 21:59:01.5	96.380	0.040	0.240	0.270
2020/01/31 21:59:01.6	96.390	0.040	0.170	0.320
2020/01/31 21:59:01.7	96.400	0.040	0.100	0.360
2020/01/31 21:59:01.8	96.410	0.040	0.030	0.400
2020/01/31 21:59:01.9	96.430	0.040	-0.050	0.450
2020/01/31 21:59:02.0	96.440	0.040	-0.120	0.490
2020/01/31 21:59:02.1	96.450	0.040	-0.190	0.530
2020/01/31 21:59:02.2	96.470	0.040	-0.260	0.570
2020/01/31 21:59:02.3	96.480	0.040	-0.330	0.600
2020/01/31 21:59:02.4	96.490	0.040	-0.390	0.640
2020/01/31 21:59:02.5	96.500	0.040	-0.460	0.680
2020/01/31 21:59:02.6	96.510	0.040	-0.520	0.720
2020/01/31 21:59:02.7	96.520	0.040	-0.570	0.760
2020/01/31 21:59:02.8	96.530	0.030	-0.620	0.800
2020/01/31 21:59:02.9	96.530	0.030	-0.670	0.850
2020/01/31 21:59:03.0	96.540	0.030	-0.710	0.890
2020/01/31 21:59:03.1	96.540	0.020	-0.740	0.930
2020/01/31 21:59:03.2	96.540	0.020	-0.770	0.980
2020/01/31 21:59:03.3	96.540	0.010	-0.800	1.030
2020/01/31 21:59:03.4	96.540	0.000	-0.810	1.080
2020/01/31 21:59:03.5	96.540	-0.000	-0.830	1.130
2020/01/31 21:59:03.6	96.530	-0.010	-0.840	1.190
2020/01/31 21:59:03.7	96.530	-0.020	-0.840	1.240
2020/01/31 21:59:03.8	96.520	-0.030	-0.840	1.300
2020/01/31 21:59:03.9	96.520	-0.040	-0.830	1.350
2020/01/31 21:59:04.0	96.510	-0.050	-0.810	1.410
2020/01/31 21:59:04.1	96.510	-0.060	-0.790	1.470
2020/01/31 21:59:04.2	96.500	-0.070	-0.770	1.530
2020/01/31 21:59:04.3	96.500	-0.080	-0.750	1.580
2020/01/31 21:59:04.4	96.490	-0.090	-0.720	1.640
2020/01/31 21:59:04.5	96.490	-0.110	-0.690	1.690
2020/01/31 21:59:04.6	96.490	-0.120	-0.660	1.750
2020/01/31 21:59:04.7	96.480	-0.130	-0.620	1.800
2020/01/31 21:59:04.8	96.480	-0.140	-0.580	1.850
2020/01/31 21:59:04.9	96.480	-0.160	-0.540	1.900
2020/01/31 21:59:05.0	96.480	-0.170	-0.500	1.950
2020/01/31 21:59:05.1	96.480	-0.180	-0.460	1.990
2020/01/31 21:59:05.2	96.480	-0.190	-0.410	2.040
2020/01/31 21:59:05.3	96.470	-0.200	-0.360	2.080
2020/01/31 21:59:05.4	96.470	-0.220	-0.320	2.120
2020/01/31 21:59:05.5	96.470	-0.230	-0.270	2.150
2020/01/31 21:59:05.6	96.470	-0.240	-0.230	2.190
2020/01/31 21:59:05.7	96.460	-0.240	-0.180	2.220
2020/01/31 21:59:05.8	96.460	-0.250	-0.140	2.240
2020/01/31 21:59:05.9	96.460	-0.260	-0.090	2.260
2020/01/31 21:59:06.0	96.450	-0.260	-0.050	2.290
2020/01/31 21:59:06.1	96.450	-0.270	-0.010	2.300
2020/01/31 21:59:06.2	96.440	-0.270	0.030	2.310
2020/01/31 21:59:06.3	96.440	-0.270	0.060	2.310
2020/01/31 21:59:06.4	96.430	-0.270	0.100	2.310
2020/01/31 21:59:06.5	96.430	-0.270	0.130	2.310
2020/01/31 21:59:06.6	96.430	-0.260	0.150	2.300
2020/01/31 21:59:06.7	96.420	-0.260	0.180	2.280
2020/01/31 21:59:06.8	96.420	-0.250	0.200	2.260
2020/01/31 21:59:06.9	96.420	-0.240	0.220	2.230
2020/01/31 21:59:07.0	96.420	-0.230	0.230	2.190
2020/01/31 21:59:07.1	96.420	-0.210	0.250	2.160
2020/01/31 21:59:07.2	96.420	-0.200	0.250	2.110
2020/01/31 21:59:07.3	96.420	-0.180	0.260	2.060
2020/01/31 21:59:07.4	96.430	-0.160	0.260	2.010
2020/01/31 21:59:07.5	96.430	-0.140	0.260	1.950
2020/01/31 21:59:07.6	96.430	-0.120	0.260	1.890
2020/01/31 21:59:07.7	96.440	-0.100	0.250	1.820
2020/01/31 21:59:07.8	96.440	-0.070	0.240	1.740
2020/01/31 21:59:07.9	96.450	-0.040	0.230	1.660
2020/01/31 21:59:08.0	96.460	-0.020	0.210	1.580
2020/01/31 21:59:08.1	96.470	0.010	0.190	1.490
2020/01/31 21:59:08.2	96.480	0.040	0.170	1.400
2020/01/31 21:59:08.3	96.490	0.070	0.150	1.300
2020/01/31 21:59:08.4	96.510	0.090	0.120	1.210
2020/01/31 21:59:08.5	96.520	0.120	0.100	1.110
2020/01/31 21:59:08.6	96.530	0.150	0.070	1.010
2020/01/31 21:59:08.7	96.550	0.180	0.040	0.900
2020/01/31 21:59:08.8	96.570	0.210	0.010	0.800
2020/01/31 21:59:08.9	96.580	0.230	-0.030	0.690
2020/01/31 21:59:09.0	96.590	0.260	-0.060	0.580
2020/01/31 21:59:09.1	96.610	0.280	-0.090	0.470
2020/01/31 21:59:09.2	96.620	0.310	-0.130	0.370
2020/01/31 21:59:09.3	96.640	0.330	-0.160	0.260
2020/01/31 21:59:09.4	96.660	0.350	-0.190	0.160
2020/01/31 21:59:09.5	96.670	0.370	-0.230	0.050
2020/01/31 21:59:09.6	96.690	0.380	-0.260	-0.050
2020/01/31 21:59:09.7	96.700	0.400	-0.300	-0.140
2020/01/31 21:59:09.8	96.710	0.410	-0.330	-0.240
2020/01/31 21:59:09.9	96.720	0.420	-0.360	-0.330
2020/01/31 21:59:10.0	96.730	0.430	-0.390	-0.430
2020/01/31 21:59:10.1	96.740	0.430	-0.410	-0.510
2020/01/31 21:59:10.2	96.750	0.440	-0.440	-0.600
2020/01/31 21:59:10.3	96.750	0.440	-0.460	-0.670
2020/01/31 21:59:10.4	96.760	0.430	-0.480	-0.750
2020/01/31 21:59:10.5	96.760	0.430	-0.490	-0.820
2020/01/31 21:59:10.6	96.760	0.420	-0.510	-0.890
2020/01/31 21:59:10.7	96.760	0.410	-0.520	-0.950
2020/01/31 21:59:10.8	96.760	0.400	-0.520	-1.010
2020/01/31 21:59:10.9	96.760	0.390	-0.530	-1.060
2020/01/31 21:59:11.0	96.740	0.370	-0.530	-1.110
2020/01/31 21:59:11.1	96.730	0.350	-0.530	-1.160
2020/01/31 21:59:11.2	96.720	0.330	-0.520	-1.200
2020/01/31 21:59:11.3	96.710	0.310	-0.520	-1.230
2020/01/31 21:59:11.4	96.710	0.290	-0.510	-1.260
2020/01/31 21:59:11.5	96.690	0.260	-0.500	-1.290
2020/01/31 21:59:11.6	96.680	0.240	-0.490	-1.310
2020/01/31 21:59:11.7	96.670	0.210	-0.480	-1.320
2020/01/31 21:59:11.8	96.660	0.180	-0.460	-1.330
2020/01/31 21:59:11.9	96.640	0.160	-0.450	-1.340
2020/01/31 21:59:12.0	96.620	0.130	-0.430	-1.340
2020/01/31 21:59:12.1	96.610	0.100	-0.420	-1.330
2020/01/31 21:59:12.2	96.590	0.070	-0.400	-1.320
2020/01/31 21:59:12.3	96.570	0.050	-0.380	-1.300
2020/01/31 21:59:12.4	96.560	0.020	-0.370	-1.280
2020/01/31 21:59:12.5	96.540	-0.000	-0.350	-1.260
2020/01/31 21:59:12.6	96.520	-0.020	-0.330	-1.220
2020/01/31 21:59:12.7	96.510	-0.040	-0.320	-1.190
2020/01/31 21:59:12.8	96.490	-0.060	-0.300	-1.150
2020/01/31 21:59:12.9	96.470	-0.080	-0.290	-1.100
2020/01/31 21:59:13.0	96.440	-0.100	-0.270	-1.050
2020/01/31 21:59:13.1	96.420	-0.120	-0.260	-0.990
2020/01/31 21:59:13.2	96.410	-0.130	-0.250	-0.930
2020/01/31 21:59:13.3	96.390	-0.140	-0.240	-0.870
2020/01/31 21:59:13.4	96.370	-0.150	-0.230	-0.810
2020/01/31 21:59:13.5	96.360	-0.160	-0.230	-0.740
2020/01/31 21:59:13.6	96.340	-0.170	-0.220	-0.670
2020/01/31 21:59:13.7	96.320	-0.180	-0.220	-0.590
2020/01/31 21:59:13.8	96.310	-0.180	-0.210	-0.520
2020/01/31 21:59:13.9	96.300	-0.190	-0.200	-0.440
2020/01/31 21:59:14.0	96.280	-0.190	-0.200	-0.370
2020/01/31 21:59:14.1	96.270	-0.190	-0.190	-0.290
2020/01/31 21:59:14.2	96.260	-0.200	-0.190	-0.210
2020/01/31 21:59:14.3	96.250	-0.200	-0.180	-0.130
2020/01/31 21:59:14.4	96.250	-0.200	-0.170	-0.050
2020/01/31 21:59:14.5	96.240	-0.200	-0.160	0.030
2020/01/31 21:59:14.6	96.240	-0.200	-0.150	0.110
2020/01/31 21:59:14.7	96.240	-0.200	-0.140	0.190
2020/01/31 21:59:14.8	96.240	-0.210	-0.130	0.260
2020/01/31 21:59:14.9	96.250	-0.210	-0.120	0.330
2020/01/31 21:59:15.0	96.260	-0.210	-0.100	0.410
2020/01/31 21:59:15.1	96.270	-0.210	-0.090	0.470
2020/01/31 21:59:15.2	96.280	-0.220	-0.070	0.540
2020/01/31 21:59:15.3	96.290	-0.220	-0.050	0.600
2020/01/31 21:59:15.4	96.310	-0.230	-0.040	0.660
2020/01/31 21:59:15.5	96.330	-0.230	-0.020	0.720
2020/01/31 21:59:15.6	96.350	-0.230	0.000	0.770
2020/01/31 21:59:15.7	96.370	-0.240	0.020	0.820
2020/01/31 21:59:15.8	96.400	-0.250	0.040	0.860
2020/01/31 21:59:15.9	96.420	-0.250	0.060	0.900
2020/01/31 21:59:16.0	96.440	-0.260	0.080	0.940
2020/01/31 21:59:16.1	96.470	-0.260	0.100	0.980
2020/01/31 21:59:16.2	96.490	-0.270	0.110	1.020
2020/01/31 21:59:16.3	96.520	-0.270	0.130	1.050
2020/01/31 21:59:16.4	96.550	-0.280	0.140	1.080
2020/01/31 21:59:16.5	96.570	-0.280	0.160	1.100
2020/01/31 21:59:16.6	96.600	-0.280	0.170	1.130
2020/01/31 21:59:16.7	96.620	-0.280	0.170	1.160
2020/01/31 21:59:16.8	96.640	-0.280	0.180	1.180
2020/01/31 21:59:16.9	96.660	-0.280	0.180	1.210
2020/01/31 21:59:17.0	96.690	-0.280	0.180	1.230
2020/01/31 21:59:17.1	96.700	-0.280	0.180	1.250
2020/01/31 21:59:17.2	96.720	-0.280	0.180	1.280
2020/01/31 21:59:17.3	96.730	-0.270	0.170	1.310
2020/01/31 21:59:17.4	96.740	-0.270	0.170	1.330
2020/01/31 21:59:17.5	96.740	-0.260	0.160	1.360
2020/01/31 21:59:17.6	96.750	-0.250	0.140	1.390
2020/01/31 21:59:17.7	96.750	-0.250	0.130	1.410
2020/01/31 21:59:17.8	96.750	-0.240	0.110	1.440
2020/01/31 21:59:17.9	96.750	-0.230	0.100	1.470
2020/01/31 21:59:18.0	96.740	-0.210	0.080	1.500
2020/01/31 21:59:18.1	96.730	-0.200	0.060	1.530
2020/01/31 21:59:18.2	96.720	-0.190	0.040	1.560
2020/01/31 21:59:18.3	96.710	-0.170	0.010	1.600
2020/01/31 21:59:18.4	96.700	-0.160	-0.010	1.630
2020/01/31 21:59:18.5	96.690	-0.150	-0.040	1.650
2020/01/31 21:59:18.6	96.680	-0.130	-0.070	1.680
2020/01/31 21:59:18.7	96.660	-0.110	-0.090	1.710
2020/01/31 21:59:18.8	96.650	-0.100	-0.120	1.740
2020/01/31 21:59:18.9	96.630	-0.080	-0.150	1.760
2020/01/31 21:59:19.0	96.620	-0.070	-0.180	1.780
2020/01/31 21:59:19.1	96.600	-0.050	-0.210	1.800
2020/01/31 21:59:19.2	96.580	-0.030	-0.240	1.820
2020/01/31 21:59:19.3	96.570	-0.020	-0.270	1.840
2020/01/31 21:59:19.4	96.550	-0.000	-0.300	1.850
2020/01/31 21:59:19.5	96.530	0.010	-0.330	1.860
2020/01/31 21:59:19.6	96.520	0.030	-0.350	1.870
2020/01/31 21:59:19.7	96.500	0.040	-0.380	1.870
2020/01/31 21:59:19.8	96.490	0.060	-0.410	1.870
2020/01/31 21:59:19.9	96.470	0.070	-0.430	1.870
2020/01/31 21:59:20.0	96.460	0.090	-0.460	1.860
2020/01/31 21:59:20.1	96.450	0.100	-0.480	1.850
2020/01/31 21:59:20.2	96.440	0.120	-0.500	1.840
2020/01/31 21:59:20.3	96.430	0.130	-0.530	1.820
2020/01/31 21:59:20.4	96.430	0.150	-0.550	1.800
2020/01/31 21:59:20.5	96.420	0.160	-0.560	1.780
2020/01/31 21:59:20.6	96.420	0.170	-0.580	1.750
2020/01/31 21:59:20.7	96.420	0.180	-0.590	1.720
2020/01/31 21:59:20.8	96.420	0.200	-0.610	1.690
2020/01/31 21:59:20.9	96.420	0.210	-0.620	1.650
2020/01/31 21:59:21.0	96.430	0.220	-0.620	1.610
2020/01/31 21:59:21.1	96.430	0.230	-0.630	1.570
2020/01/31 21:59:21.2	96.440	0.240	-0.630	1.520
2020/01/31 21:59:21.3	96.450	0.250	-0.640	1.470
2020/01/31 21:59:21.4	96.450	0.260	-0.630	1.430
2020/01/31 21:59:21.5	96.460	0.270	-0.630	1.370
2020/01/31 21:59:21.6	96.470	0.280	-0.620	1.320
2020/01/31 21:59:21.7	96.480	0.290	-0.620	1.270
2020/01/31 21:59:21.8	96.490	0.290	-0.600	1.220
2020/01/31 21:59:21.9	96.500	0.300	-0.590	1.160
2020/01/31 21:59:22.0	96.500	0.310	-0.570	1.100
2020/01/31 21:59:22.1	96.510	0.310	-0.550	1.050
2020/01/31 21:59:22.2	96.520	0.310	-0.530	0.990
2020/01/31 21:59:22.3	96.520	0.320	-0.500	0.940
2020/01/31 21:59:22.4	96.530	0.320	-0.480	0.880
2020/01/31 21:59:22.5	96.530	0.320	-0.440	0.820
2020/01/31 21:59:22.6	96.530	0.320	-0.410	0.760
2020/01/31 21:59:22.7	96.530	0.320	-0.380	0.710
2020/01/31 21:59:22.8	96.530	0.320	-0.340	0.650
2020/01/31 21:59:22.9	96.530	0.310	-0.300	0.590
2020/01/31 21:59:23.0	96.530	0.310	-0.260	0.530
2020/01/31 21:59:23.1	96.530	0.300	-0.220	0.480
2020/01/31 21:59:23.2	96.520	0.290	-0.180	0.420
2020/01/31 21:59:23.3	96.510	0.290	-0.140	0.370
2020/01/31 21:59:23.4	96.500	0.280	-0.100	0.310
2020/01/31 21:59:23.5	96.490	0.270	-0.060	0.260
2020/01/31 21:59:23.6	96.480	0.260	-0.020	0.200
2020/01/31 21:59:23.7	96.460	0.250	0.030	0.150
2020/01/31 21:59:23.8	96.450	0.230	0.070	0.100
2020/01/31 21:59:23.9	96.430	0.220	0.110	0.050
2020/01/31 21:59:24.0	96.420	0.210	0.150	-0.000
2020/01/31 21:59:24.1	96.400	0.190	0.180	-0.050
2020/01/31 21:59:24.2	96.390	0.180	0.220	-0.100
2020/01/31 21:59:24.3	96.370	0.160	0.250	-0.150
2020/01/31 21:59:24.4	96.350	0.150	0.280	-0.200
2020/01/31 21:59:24.5	96.340	0.130	0.300	-0.240
2020/01/31 21:59:24.6	96.320	0.120	0.330	-0.290
2020/01/31 21:59:24.7	96.310	0.100	0.350	-0.330
2020/01/31 21:59:24.8	96.290	0.090	0.360	-0.370
2020/01/31 21:59:24.9	96.280	0.070	0.380	-0.410
2020/01/31 21:59:25.0	96.280	0.060	0.390	-0.450
2020/01/31 21:59:25.1	96.270	0.050	0.390	-0.490
2020/01/31 21:59:25.2	96.260	0.040	0.400	-0.530
2020/01/31 21:59:25.3	96.250	0.030	0.390	-0.560
2020/01/31 21:59:25.4	96.240	0.020	0.380	-0.590
2020/01/31 21:59:25.5	96.240	0.010	0.370	-0.620
2020/01/31 21:59:25.6	96.230	-0.000	0.360	-0.650
2020/01/31 21:59:25.7	96.230	-0.010	0.340	-0.680
2020/01/31 21:59:25.8	96.230	-0.010	0.310	-0.710
2020/01/31 21:59:25.9	96.240	-0.020	0.290	-0.730
2020/01/31 21:59:26.0	96.230	-0.020	0.250	-0.760
2020/01/31 21:59:26.1	96.240	-0.020	0.220	-0.780
2020/01/31 21:59:26.2	96.240	-0.020	0.180	-0.800
2020/01/31 21:59:26.3	96.250	-0.020	0.140	-0.820
2020/01/31 21:59:26.4	96.260	-0.020	0.090	-0.830
2020/01/31 21:59:26.5	96.270	-0.020	0.050	-0.850
2020/01/31 21:59:26.6	96.280	-0.020	-0.000	-0.860
2020/01/31 21:59:26.7	96.290	-0.020	-0.050	-0.870
2020/01/31 21:59:26.8	96.300	-0.010	-0.100	-0.880
2020/01/31 21:59:26.9	96.310	-0.010	-0.160	-0.880
2020/01/31 21:59:27.0	96.320	-0.000	-0.210	-0.890
2020/01/31 21:59:27.1	96.330	0.000	-0.260	-0.890
2020/01/31 21:59:27.2	96.340	0.010	-0.310	-0.880
2020/01/31 21:59:27.3	96.350	0.010	-0.360	-0.870
2020/01/31 21:59:27.4	96.370	0.020	-0.410	-0.860
2020/01/31 21:59:27.5	96.380	0.020	-0.460	-0.850
2020/01/31 21:59:27.6	96.390	0.020	-0.500	-0.830
2020/01/31 21:59:27.7	96.400	0.030	-0.550	-0.810
2020/01/31 21:59:27.8	96.410	0.030	-0.580	-0.780
2020/01/31 21:59:27.9	96.420	0.030	-0.620	-0.750
2020/01/31 21:59:28.0	96.420	0.030	-0.650	-0.710
2020/01/31 21:59:28.1	96.430	0.030	-0.680	-0.680
2020/01/31 21:59:28.2	96.440	0.020	-0.700	-0.630
2020/01/31 21:59:28.3	96.450	0.020	-0.720	-0.590
2020/01/31 21:59:28.4	96.460	0.010	-0.730	-0.530
2020/01/31 21:59:28.5	96.460	0.000	-0.740	-0.480
2020/01/31 21:59:28.6	96.470	-0.010	-0.740	-0.420
2020/01/31 21:59:28.7	96.470	-0.020	-0.740	-0.350
2020/01/31 21:59:28.8	96.470	-0.030	-0.740	-0.280
2020/01/31 21:59:28.9	96.480	-0.050	-0.720	-0.210
2020/01/31 21:59:29.0	96.480	-0.070	-0.700	-0.140
2020/01/31 21:59:29.1	96.480	-0.090	-0.680	-0.050
2020/01/31 21:59:29.2	96.480	-0.110	-0.650	0.030
2020/01/31 21:59:29.3	96.480	-0.130	-0.620	0.120
2020/01/31 21:59:29.4	96.470	-0.160	-0.590	0.210
2020/01/31 21:59:29.5	96.470	-0.180	-0.550	0.310
2020/01/31 21:59:29.6	96.460	-0.210	-0.500	0.400
2020/01/31 21:59:29.7	96.450	-0.240	-0.450	0.500
2020/01/31 21:59:29.8	96.440	-0.270	-0.400	0.600
2020/01/31 21:59:29.9	96.420	-0.300	-0.350	0.710
2020/01/31 21:59:30.0	96.410	-0.330	-0.290	0.810
2020/01/31 21:59:30.1	96.390	-0.360	-0.240	0.920
2020/01/31 21:59:30.2	96.380	-0.390	-0.180	1.020
2020/01/31 21:59:30.3	96.360	-0.420	-0.120	1.120
2020/01/31 21:59:30.4	96.340	-0.440	-0.060	1.220
2020/01/31 21:59:30.5	96.320	-0.470	-0.010	1.320
2020/01/31 21:59:30.6	96.310	-0.500	0.050	1.420
2020/01/31 21:59:30.7	96.290	-0.520	0.100	1.520
2020/01/31 21:59:30.8	96.270	-0.550	0.150	1.610
2020/01/31 21:59:30.9	96.250	-0.570	0.200	1.700
2020/01/31 21:59:31.0	96.230	-0.590	0.240	1.780
2020/01/31 21:59:31.1	96.210	-0.600	0.280	1.860
2020/01/31 21:59:31.2	96.190	-0.620	0.310	1.940
2020/01/31 21:59:31.3	96.180	-0.630	0.340	2.010
2020/01/31 21:59:31.4	96.160	-0.640	0.360	2.080
2020/01/31 21:59:31.5	96.140	-0.640	0.380	2.140
2020/01/31 21:59:31.6	96.120	-0.640	0.390	2.200
2020/01/31 21:59:31.7	96.110	-0.640	0.400	2.250
2020/01/31 21:59:31.8	96.090	-0.640	0.400	2.290
2020/01/31 21:59:31.9	96.080	-0.630	0.400	2.330
2020/01/31 21:59:32.0	96.070	-0.620	0.390	2.370
2020/01/31 21:59:32.1	96.050	-0.600	0.370	2.390
2020/01/31 21:59:32.2	96.040	-0.590	0.350	2.420
2020/01/31 21:59:32.3	96.030	-0.560	0.330	2.430
2020/01/31 21:59:32.4	96.020	-0.540	0.290	2.440
2020/01/31 21:59:32.5	96.010	-0.510	0.260	2.450
2020/01/31 21:59:32.6	96.000	-0.480	0.220	2.450
2020/01/31 21:59:32.7	95.990	-0.450	0.170	2.440
2020/01/31 21:59:32.8	95.990	-0.410	0.120	2.430
2020/01/31 21:59:32.9	95.990	-0.370	0.070	2.410
2020/01/31 21:59:33.0	95.980	-0.330	0.010	2.380
2020/01/31 21:59:33.1	95.980	-0.280	-0.040	2.350
2020/01/31 21:59:33.2	95.980	-0.240	-0.100	2.320
2020/01/31 21:59:33.3	95.980	-0.190	-0.160	2.270
2020/01/31 21:59:33.4	95.980	-0.140	-0.230	2.230
2020/01/31 21:59:33.5	95.990	-0.090	-0.290	2.180
2020/01/31 21:59:33.6	95.990	-0.040	-0.350	2.120
2020/01/31 21:59:33.7	95.990	0.020	-0.410	2.060
2020/01/31 21:59:33.8	96.000	0.070	-0.470	2.000
2020/01/31 21:59:33.9	96.010	0.120	-0.530	1.930
2020/01/31 21:59:34.0	96.010	0.170	-0.590	1.860
2020/01/31 21:59:34.1	96.020	0.230	-0.640	1.790
2020/01/31 21:59:34.2	96.030	0.280	-0.690	1.710
2020/01/31 21:59:34.3	96.030	0.320	-0.730	1.630
2020/01/31 21:59:34.4	96.040	0.370	-0.780	1.550
2020/01/31 21:59:34.5	96.050	0.420	-0.810	1.470
2020/01/31 21:59:34.6	96.060	0.460	-0.840	1.380
2020/01/31 21:59:34.7	96.070	0.500	-0.870	1.300
2020/01/31 21:59:34.8	96.080	0.540	-0.890	1.210
2020/01/31 21:59:34.9	96.090	0.570	-0.900	1.120
2020/01/31 21:59:35.0	96.110	0.600	-0.910	1.030
2020/01/31 21:59:35.1	96.120	0.630	-0.910	0.930
2020/01/31 21:59:35.2	96.130	0.660	-0.900	0.840
2020/01/31 21:59:35.3	96.150	0.680	-0.890	0.750
2020/01/31 21:59:35.4	96.160	0.690	-0.870	0.650
2020/01/31 21:59:35.5	96.180	0.710	-0.850	0.560
2020/01/31 21:59:35.6	96.190	0.720	-0.820	0.460
2020/01/31 21:59:35.7	96.210	0.720	-0.780	0.370
2020/01/31 21:59:35.8	96.230	0.720	-0.740	0.270
2020/01/31 21:59:35.9	96.240	0.720	-0.690	0.180
2020/01/31 21:59:36.0	96.260	0.710	-0.640	0.080
2020/01/31 21:59:36.1	96.280	0.700	-0.590	-0.000
2020/01/31 21:59:36.2	96.290	0.690	-0.530	-0.090
2020/01/31 21:59:36.3	96.310	0.670	-0.470	-0.180
2020/01/31 21:59:36.4	96.320	0.650	-0.400	-0.260
2020/01/31 21:59:36.5	96.340	0.630	-0.340	-0.350
2020/01/31 21:59:36.6	96.350	0.600	-0.270	-0.430
2020/01/31 21:59:36.7	96.360	0.570	-0.200	-0.500
2020/01/31 21:59:36.8	96.370	0.540	-0.140	-0.580
2020/01/31 21:59:36.9	96.380	0.510	-0.070	-0.650
2020/01/31 21:59:37.0	96.380	0.480	-0.000	-0.720
2020/01/31 21:59:37.1	96.390	0.450	0.060	-0.780
2020/01/31 21:59:37.2	96.400	0.410	0.120	-0.840
2020/01/31 21:59:37.3	96.400	0.380	0.180	-0.900
2020/01/31 21:59:37.4	96.400	0.340	0.230	-0.950
2020/01/31 21:59:37.5	96.400	0.310	0.280	-1.000
2020/01/31 21:59:37.6	96.410	0.270	0.330	-1.050
2020/01/31 21:59:37.7	96.410	0.240	0.370	-1.090
2020/01/31 21:59:37.8	96.410	0.210	0.410	-1.130
2020/01/31 21:59:37.9	96.400	0.180	0.430	-1.160
2020/01/31 21:59:38.0	96.400	0.150	0.460	-1.190
2020/01/31 21:59:38.1	96.390	0.120	0.480	-1.220
2020/01/31 21:59:38.2	96.390	0.090	0.490	-1.240
2020/01/31 21:59:38.3	96.380	0.060	0.500	-1.250
2020/01/31 21:59:38.4	96.380	0.030	0.500	-1.260
2020/01/31 21:59:38.5	96.370	0.010	0.490	-1.270
2020/01/31 21:59:38.6	96.360	-0.010	0.480	-1.270
2020/01/31 21:59:38.7	96.350	-0.040	0.470	-1.260
2020/01/31 21:59:38.8	96.340	-0.060	0.450	-1.250
2020/01/31 21:59:38.9	96.330	-0.080	0.420	-1.230
2020/01/31 21:59:39.0	96.320	-0.100	0.400	-1.210
2020/01/31 21:59:39.1	96.300	-0.120	0.370	-1.180
2020/01/31 21:59:39.2	96.290	-0.130	0.340	-1.150
2020/01/31 21:59:39.3	96.270	-0.150	0.310	-1.110
2020/01/31 21:59:39.4	96.250	-0.170	0.270	-1.070
2020/01/31 21:59:39.5	96.230	-0.190	0.240	-1.020
2020/01/31 21:59:39.6	96.210	-0.210	0.200	-0.960
2020/01/31 21:59:39.7	96.190	-0.220	0.170	-0.910
2020/01/31 21:59:39.8	96.170	-0.240	0.130	-0.840
2020/01/31 21:59:39.9	96.140	-0.260	0.100	-0.780
2020/01/31 21:59:40.0	96.120	-0.280	0.070	-0.700
2020/01/31 21:59:40.1	96.090	-0.290	0.040	-0.620
2020/01/31 21:59:40.2	96.070	-0.310	0.010	-0.550
2020/01/31 21:59:40.3	96.040	-0.330	-0.020	-0.460
2020/01/31 21:59:40.4	96.020	-0.350	-0.050	-0.380
2020/01/31 21:59:40.5	95.990	-0.370	-0.070	-0.290
2020/01/31 21:59:40.6	95.970	-0.380	-0.100	-0.200
2020/01/31 21:59:40.7	95.950	-0.400	-0.120	-0.110
2020/01/31 21:59:40.8	95.920	-0.420	-0.140	-0.010
2020/01/31 21:59:40.9	95.900	-0.430	-0.160	0.080
2020/01/31 21:59:41.0	95.880	-0.450	-0.180	0.170
2020/01/31 21:59:41.1	95.860	-0.460	-0.200	0.270
2020/01/31 21:59:41.2	95.840	-0.480	-0.210	0.360
2020/01/31 21:59:41.3	95.830	-0.490	-0.230	0.460
2020/01/31 21:59:41.4	95.810	-0.500	-0.250	0.550
2020/01/31 21:59:41.5	95.800	-0.510	-0.260	0.640
2020/01/31 21:59:41.6	95.790	-0.510	-0.280	0.730
2020/01/31 21:59:41.7	95.780	-0.520	-0.290	0.810
2020/01/31 21:59:41.8	95.770	-0.520	-0.310	0.900
2020/01/31 21:59:41.9	95.770	-0.520	-0.320	0.980
2020/01/31 21:59:42.0	95.770	-0.520	-0.340	1.060
2020/01/31 21:59:42.1	95.770	-0.510	-0.350	1.130
2020/01/31 21:59:42.2	95.770	-0.500	-0.370	1.200
2020/01/31 21:59:42.3	95.770	-0.490	-0.390	1.270
2020/01/31 21:59:42.4	95.770	-0.480	-0.400	1.340
2020/01/31 21:59:42.5	95.770	-0.460	-0.420	1.400
2020/01/31 21:59:42.6	95.780	-0.440	-0.440	1.460
2020/01/31 21:59:42.7	95.790	-0.420	-0.460	1.510
2020/01/31 21:59:42.8	95.800	-0.390	-0.480	1.570
2020/01/31 21:59:42.9	95.810	-0.370	-0.500	1.620
2020/01/31 21:59:43.0	95.830	-0.340	-0.520	1.660
2020/01/31 21:59:43.1	95.840	-0.300	-0.540	1.710
2020/01/31 21:59:43.2	95.850	-0.270	-0.560	1.750
2020/01/31 21:59:43.3	95.870	-0.230	-0.580	1.780
2020/01/31 21:59:43.4	95.880	-0.190	-0.600	1.820
2020/01/31 21:59:43.5	95.900	-0.150	-0.610	1.850
2020/01/31 21:59:43.6	95.920	-0.110	-0.630	1.880
2020/01/31 21:59:43.7	95.940	-0.070	-0.650	1.900
2020/01/31 21:59:43.8	95.960	-0.020	-0.660	1.930
2020/01/31 21:59:43.9	95.980	0.020	-0.670	1.950
2020/01/31 21:59:44.0	96.010	0.060	-0.680	1.960
2020/01/31 21:59:44.1	96.040	0.100	-0.690	1.980
2020/01/31 21:59:44.2	96.060	0.150	-0.700	1.990
2020/01/31 21:59:44.3	96.090	0.190	-0.700	2.000
2020/01/31 21:59:44.4	96.110	0.230	-0.700	2.000
2020/01/31 21:59:44.5	96.140	0.260	-0.700	2.010
2020/01/31 21:59:44.6	96.170	0.300	-0.700	2.010
2020/01/31 21:59:44.7	96.190	0.330	-0.690	2.010
2020/01/31 21:59:44.8	96.220	0.360	-0.680	2.010
2020/01/31 21:59:44.9	96.250	0.390	-0.670	2.000
2020/01/31 21:59:45.0	96.270	0.410	-0.660	2.000
2020/01/31 21:59:45.1	96.300	0.430	-0.640	2.000
2020/01/31 21:59:45.2	96.320	0.450	-0.620	1.990
2020/01/31 21:59:45.3	96.340	0.460	-0.590	1.980
2020/01/31 21:59:45.4	96.360	0.470	-0.560	1.970
2020/01/31 21:59:45.5	96.380	0.480	-0.530	1.960
2020/01/31 21:59:45.6	96.390	0.480	-0.490	1.950
2020/01/31 21:59:45.7	96.400	0.480	-0.450	1.940
2020/01/31 21:59:45.8	96.410	0.470	-0.410	1.930
2020/01/31 21:59:45.9	96.410	0.460	-0.360	1.920
2020/01/31 21:59:46.0	96.410	0.440	-0.310	1.910
2020/01/31 21:59:46.1	96.410	0.420	-0.260	1.900
2020/01/31 21:59:46.2	96.400	0.400	-0.210	1.880
2020/01/31 21:59:46.3	96.380	0.370	-0.150	1.870
2020/01/31 21:59:46.4	96.370	0.340	-0.090	1.850
2020/01/31 21:59:46.5	96.350	0.300	-0.030	1.840
2020/01/31 21:59:46.6	96.330	0.270	0.040	1.820
2020/01/31 21:59:46.7	96.300	0.230	0.100	1.800
2020/01/31 21:59:46.8	96.270	0.180	0.160	1.780
2020/01/31 21:59:46.9	96.240	0.140	0.230	1.760
2020/01/31 21:59:47.0	96.200	0.090	0.290	1.730
2020/01/31 21:59:47.1	96.160	0.050	0.350	1.700
2020/01/31 21:59:47.2	96.130	-0.000	0.410	1.680
2020/01/31 21:59:47.3	96.090	-0.050	0.470	1.650
2020/01/31 21:59:47.4	96.050	-0.100	0.530	1.620
2020/01/31 21:59:47.5	96.010	-0.150	0.580	1.580
2020/01/31 21:59:47.6	95.970	-0.190	0.630	1.550
2020/01/31 21:59:47.7	95.920	-0.240	0.670	1.510
2020/01/31 21:59:47.8	95.880	-0.280	0.710	1.470
2020/01/31 21:59:47.9	95.840	-0.330	0.740	1.420
2020/01/31 21:59:48.0	95.800	-0.370	0.770	1.370
2020/01/31 21:59:48.1	95.760	-0.400	0.790	1.320
2020/01/31 21:59:48.2	95.730	-0.440	0.800	1.270
2020/01/31 21:59:48.3	95.690	-0.470	0.810	1.210
2020/01/31 21:59:48.4	95.660	-0.490	0.810	1.150
2020/01/31 21:59:48.5	95.630	-0.510	0.800	1.080
2020/01/31 21:59:48.6	95.600	-0.530	0.780	1.010
2020/01/31 21:59:48.7	95.580	-0.540	0.760	0.940
2020/01/31 21:59:48.8	95.550	-0.550	0.730	0.870
2020/01/31 21:59:48.9	95.540	-0.560	0.690	0.790
2020/01/31 21:59:49.0	95.520	-0.560	0.640	0.710
2020/01/31 21:59:49.1	95.500	-0.550	0.590	0.620
2020/01/31 21:59:49.2	95.490	-0.540	0.520	0.540
2020/01/31 21:59:49.3	95.490	-0.530	0.460	0.450
2020/01/31 21:59:49.4	95.480	-0.510	0.380	0.360
2020/01/31 21:59:49.5	95.480	-0.480	0.310	0.270
2020/01/31 21:59:49.6	95.480	-0.460	0.220	0.180
2020/01/31 21:59:49.7	95.490	-0.420	0.140	0.080
2020/01/31 21:59:49.8	95.490	-0.390	0.050	-0.010
2020/01/31 21:59:49.9	95.500	-0.350	-0.050	-0.100
2020/01/31 21:59:50.0	95.510	-0.310	-0.140	-0.200
2020/01/31 21:59:50.1	95.520	-0.270	-0.240	-0.290
2020/01/31 21:59:50.2	95.530	-0.220	-0.340	-0.380
2020/01/31 21:59:50.3	95.540	-0.180	-0.430	-0.480
2020/01/31 21:59:50.4	95.550	-0.130	-0.520	-0.570
2020/01/31 21:59:50.5	95.570	-0.080	-0.620	-0.660
2020/01/31 21:59:50.6	95.580	-0.030	-0.710	-0.740
2020/01/31 21:59:50.7	95.590	0.020	-0.790	-0.830
2020/01/31 21:59:50.8	95.610	0.070	-0.870	-0.910
2020/01/31 21:59:50.9	95.620	0.120	-0.950	-1.000
2020/01/31 21:59:51.0	95.640	0.170	-1.020	-1.080
2020/01/31 21:59:51.1	95.650	0.220	-1.090	-1.150
2020/01/31 21:59:51.2	95.670	0.270	-1.140	-1.230
2020/01/31 21:59:51.3	95.680	0.310	-1.190	-1.290
2020/01/31 21:59:51.4	95.690	0.350	-1.240	-1.360
2020/01/31 21:59:51.5	95.700	0.390	-1.270	-1.420
2020/01/31 21:59:51.6	95.720	0.430	-1.300	-1.480
2020/01/31 21:59:51.7	95.730	0.460	-1.320	-1.530
2020/01/31 21:59:51.8	95.740	0.490	-1.330	-1.580
2020/01/31 21:59:51.9	95.750	0.520	-1.330	-1.620
2020/01/31 21:59:52.0	95.760	0.540	-1.320	-1.660
2020/01/31 21:59:52.1	95.770	0.560	-1.300	-1.690
2020/01/31 21:59:52.2	95.780	0.580	-1.280	-1.710
2020/01/31 21:59:52.3	95.780	0.590	-1.250	-1.730
2020/01/31 21:59:52.4	95.790	0.600	-1.210	-1.750
2020/01/31 21:59:52.5	95.800	0.610	-1.170	-1.760
2020/01/31 21:59:52.6	95.800	0.610	-1.120	-1.760
2020/01/31 21:59:52.7	95.810	0.610	-1.060	-1.750
2020/01/31 21:59:52.8	95.810	0.610	-1.000	-1.740
2020/01/31 21:59:52.9	95.820	0.600	-0.930	-1.730
2020/01/31 21:59:53.0	95.820	0.590	-0.860	-1.700
2020/01/31 21:59:53.1	95.830	0.580	-0.790	-1.680
2020/01/31 21:59:53.2	95.830	0.560	-0.710	-1.640
2020/01/31 21:59:53.3	95.830	0.540	-0.630	-1.600
2020/01/31 21:59:53.4	95.830	0.520	-0.550	-1.560
2020/01/31 21:59:53.5	95.830	0.500	-0.470	-1.510
2020/01/31 21:59:53.6	95.820	0.470	-0.390	-1.450
2020/01/31 21:59:53.7	95.820	0.440	-0.300	-1.390
2020/01/31 21:59:53.8	95.820	0.410	-0.220	-1.320
2020/01/31 21:59:53.9	95.810	0.380	-0.140	-1.250
2020/01/31 21:59:54.0	95.810	0.350	-0.060	-1.170
2020/01/31 21:59:54.1	95.800	0.320	0.010	-1.090
2020/01/31 21:59:54.2	95.790	0.280	0.090	-1.000
2020/01/31 21:59:54.3	95.780	0.250	0.160	-0.910
2020/01/31 21:59:54.4	95.770	0.210	0.240	-0.810
2020/01/31 21:59:54.5	95.760	0.170	0.300	-0.710
2020/01/31 21:59:54.6	95.750	0.140	0.370	-0.610
2020/01/31 21:59:54.7	95.740	0.100	0.430	-0.500
2020/01/31 21:59:54.8	95.730	0.060	0.490	-0.390
2020/01/31 21:59:54.9	95.720	0.020	0.540	-0.280
2020/01/31 21:59:55.0	95.720	-0.010	0.600	-0.160
2020/01/31 21:59:55.1	95.700	-0.050	0.640	-0.040
2020/01/31 21:59:55.2	95.690	-0.090	0.690	0.080
2020/01/31 21:59:55.3	95.680	-0.120	0.720	0.200
2020/01/31 21:59:55.4	95.670	-0.160	0.760	0.330
2020/01/31 21:59:55.5	95.660	-0.190	0.780	0.450
2020/01/31 21:59:55.6	95.650	-0.230	0.810	0.580
2020/01/31 21:59:55.7	95.640	-0.260	0.830	0.710
2020/01/31 21:59:55.8	95.640	-0.290	0.840	0.840
2020/01/31 21:59:55.9	95.630	-0.320	0.850	0.970
2020/01/31 21:59:56.0	95.620	-0.350	0.850	1.090
2020/01/31 21:59:56.1	95.610	-0.380	0.850	1.220
2020/01/31 21:59:56.2	95.600	-0.410	0.840	1.340
2020/01/31 21:59:56.3	95.600	-0.430	0.830	1.470
2020/01/31 21:59:56.4	95.590	-0.450	0.810	1.590
2020/01/31 21:59:56.5	95.590	-0.480	0.790	1.700
2020/01/31 21:59:56.6	95.580	-0.500	0.760	1.820
2020/01/31 21:59:56.7	95.580	-0.510	0.730	1.930
2020/01/31 21:59:56.8	95.570	-0.530	0.690	2.030
2020/01/31 21:59:56.9	95.570	-0.540	0.650	2.140
2020/01/31 21:59:57.0	95.570	-0.560	0.600	2.230
2020/01/31 21:59:57.1	95.570	-0.560	0.550	2.320
2020/01/31 21:59:57.2	95.570	-0.570	0.500	2.410
2020/01/31 21:59:57.3	95.570	-0.580	0.440	2.490
2020/01/31 21:59:57.4	95.570	-0.580	0.370	2.570
2020/01/31 21:59:57.5	95.570	-0.580	0.310	2.630
2020/01/31 21:59:57.6	95.560	-0.570	0.240	2.700
2020/01/31 21:59:57.7	95.560	-0.570	0.160	2.750
2020/01/31 21:59:57.8	95.560	-0.560	0.090	2.810
2020/01/31 21:59:57.9	95.560	-0.540	0.010	2.850
2020/01/31 21:59:58.0	95.570	-0.530	-0.070	2.890
2020/01/31 21:59:58.1	95.570	-0.510	-0.150	2.930
2020/01/31 21:59:58.2	95.560	-0.490	-0.240	2.960
2020/01/31 21:59:58.3	95.560	-0.470	-0.320	2.980
2020/01/31 21:59:58.4	95.560	-0.440	-0.400	3.010
2020/01/31 21:59:58.5	95.560	-0.410	-0.490	3.020
2020/01/31 21:59:58.6	95.560	-0.380	-0.570	3.040
2020/01/31 21:59:58.7	95.560	-0.350	-0.650	3.040
2020/01/31 21:59:58.8	95.550	-0.310	-0.730	3.050
2020/01/31 21:59:58.9	95.550	-0.270	-0.800	3.050
2020/01/31 21:59:59.0	95.560	-0.230	-0.880	3.040
2020/01/31 21:59:59.1	95.560	-0.190	-0.950	3.040
2020/01/31 21:59:59.2	95.560	-0.150	-1.020	3.030
2020/01/31 21:59:59.3	95.570	-0.100	-1.080	3.020
2020/01/31 21:59:59.4	95.570	-0.060	-1.130	3.000
2020/01/31 21:59:59.5	95.570	-0.010	-1.180	2.980
2020/01/31 21:59:59.6	95.580	0.030	-1.230	2.960
2020/01/31 21:59:59.7	95.580	0.080	-1.270	2.930
2020/01/31 21:59:59.8	95.590	0.130	-1.300	2.910
2020/01/31 21:59:59.9	95.600	0.170	-1.320	2.880
2020/01/31 22:00:00.0	95.600	0.210	-1.340	2.840
2020/01/31 22:00:00.1	95.610	0.260	-1.350	2.800
2020/01/31 22:00:00.2	95.620	0.300	-1.350	2.770
2020/01/31 22:00:00.3	95.630	0.340	-1.340	2.730
2020/01/31 22:00:00.4	95.640	0.370	-1.330	2.690
2020/01/31 22:00:00.5	95.650	0.410	-1.300	2.640
2020/01/31 22:00:00.6	95.650	0.440	-1.280	2.600
2020/01/31 22:00:00.7	95.660	0.470	-1.240	2.550
2020/01/31 22:00:00.8	95.670	0.490	-1.190	2.500
2020/01/31 22:00:00.9	95.670	0.520	-1.140	2.450
2020/01/31 22:00:01.0	95.680	0.530	-1.080	2.390
2020/01/31 22:00:01.1	95.690	0.550	-1.020	2.340
2020/01/31 22:00:01.2	95.690	0.560	-0.950	2.280
2020/01/31 22:00:01.3	95.690	0.570	-0.880	2.220
2020/01/31 22:00:01.4	95.690	0.570	-0.800	2.160
2020/01/31 22:00:01.5	95.690	0.570	-0.720	2.100
2020/01/31 22:00:01.6	95.680	0.570	-0.640	2.030
2020/01/31 22:00:01.7	95.680	0.560	-0.550	1.960
2020/01/31 22:00:01.8	95.680	0.550	-0.460	1.890
2020/01/31 22:00:01.9	95.670	0.540	-0.370	1.820
2020/01/31 22:00:02.0	95.660	0.520	-0.290	1.740
2020/01/31 22:00:02.1	95.660	0.500	-0.200	1.670
2020/01/31 22:00:02.2	95.650	0.480	-0.110	1.590
2020/01/31 22:00:02.3	95.640	0.450	-0.020	1.510
2020/01/31 22:00:02.4	95.630	0.420	0.060	1.420
2020/01/31 22:00:02.5	95.630	0.390	0.140	1.330
2020/01/31 22:00:02.6	95.620	0.350	0.220	1.240
2020/01/31 22:00:02.7	95.610	0.320	0.300	1.150
2020/01/31 22:00:02.8	95.600	0.280	0.370	1.050
2020/01/31 22:00:02.9	95.590	0.240	0.440	0.950
2020/01/31 22:00:03.0	95.570	0.200	0.510	0.850
2020/01/31 22:00:03.1	95.560	0.160	0.570	0.750
2020/01/31 22:00:03.2	95.550	0.120	0.620	0.640
2020/01/31 22:00:03.3	95.540	0.080	0.670	0.540
2020/01/31 22:00:03.4	95.530	0.040	0.710	0.430
2020/01/31 22:00:03.5	95.520	0.000	0.750	0.330
2020/01/31 22:00:03.6	95.510	-0.040	0.780	0.220
2020/01/31 22:00:03.7	95.490	-0.070	0.810	0.110
2020/01/31 22:00:03.8	95.480	-0.110	0.830	0.000
2020/01/31 22:00:03.9	95.460	-0.140	0.840	-0.100
2020/01/31 22:00:04.0	95.440	-0.180	0.850	-0.210
2020/01/31 22:00:04.1	95.420	-0.210	0.850	-0.320
2020/01/31 22:00:04.2	95.410	-0.240	0.850	-0.420
2020/01/31 22:00:04.3	95.390	-0.260	0.840	-0.520
2020/01/31 22:00:04.4	95.370	-0.290	0.830	-0.620
2020/01/31 22:00:04.5	95.350	-0.310	0.810	-0.710
2020/01/31 22:00:04.6	95.330	-0.320	0.780	-0.810
2020/01/31 22:00:04.7	95.320	-0.340	0.750	-0.900
2020/01/31 22:00:04.8	95.300	-0.350	0.720	-0.980
2020/01/31 22:00:04.9	95.280	-0.360	0.670	-1.070
2020/01/31 22:00:05.0	95.250	-0.360	0.630	-1.150
2020/01/31 22:00:05.1	95.240	-0.360	0.580	-1.230
2020/01/31 22:00:05.2	95.220	-0.360	0.520	-1.300
2020/01/31 22:00:05.3	95.210	-0.350	0.460	-1.370
2020/01/31 22:00:05.4	95.190	-0.340	0.390	-1.440
2020/01/31 22:00:05.5	95.180	-0.330	0.320	-1.510
2020/01/31 22:00:05.6	95.170	-0.320	0.250	-1.570
2020/01/31 22:00:05.7	95.160	-0.300	0.180	-1.630
2020/01/31 22:00:05.8	95.150	-0.280	0.100	-1.680
2020/01/31 22:00:05.9	95.150	-0.260	0.020	-1.730
2020/01/31 22:00:06.0	95.140	-0.230	-0.070	-1.780
2020/01/31 22:00:06.1	95.140	-0.200	-0.160	-1.830
2020/01/31 22:00:06.2	95.140	-0.180	-0.240	-1.870
2020/01/31 22:00:06.3	95.140	-0.150	-0.330	-1.910
2020/01/31 22:00:06.4	95.140	-0.110	-0.410	-1.940
2020/01/31 22:00:06.5	95.140	-0.080	-0.490	-1.970
2020/01/31 22:00:06.6	95.140	-0.050	-0.570	-2.000
2020/01/31 22:00:06.7	95.150	-0.020	-0.650	-2.020
2020/01/31 22:00:06.8	95.150	0.010	-0.730	-2.040
2020/01/31 22:00:06.9	95.160	0.050	-0.800	-2.050
2020/01/31 22:00:07.0	95.170	0.080	-0.870	-2.060
2020/01/31 22:00:07.1	95.180	0.110	-0.930	-2.070
2020/01/31 22:00:07.2	95.190	0.130	-0.990	-2.070
2020/01/31 22:00:07.3	95.200	0.160	-1.040	-2.060
2020/01/31 22:00:07.4	95.210	0.180	-1.080	-2.050
2020/01/31 22:00:07.5	95.220	0.200	-1.120	-2.030
2020/01/31 22:00:07.6	95.230	0.220	-1.150	-2.010
2020/01/31 22:00:07.7	95.240	0.240	-1.170	-1.990
2020/01/31 22:00:07.8	95.250	0.250	-1.190	-1.950
2020/01/31 22:00:07.9	95.260	0.260	-1.200	-1.910
2020/01/31 22:00:08.0	95.270	0.270	-1.200	-1.860
2020/01/31 22:00:08.1	95.280	0.280	-1.190	-1.810
2020/01/31 22:00:08.2	95.290	0.280	-1.170	-1.760
2020/01/31 22:00:08.3	95.300	0.280	-1.150	-1.690
2020/01/31 22:00:08.4	95.310	0.270	-1.120	-1.630
2020/01/31 22:00:08.5	95.320	0.260	-1.080	-1.550
2020/01/31 22:00:08.6	95.330	0.250	-1.030	-1.470
2020/01/31 22:00:08.7	95.340	0.240	-0.980	-1.390
2020/01/31 22:00:08.8	95.350	0.220	-0.920	-1.300
2020/01/31 22:00:08.9	95.360	0.210	-0.850	-1.200
2020/01/31 22:00:09.0	95.370	0.190	-0.780	-1.100
2020/01/31 22:00:09.1	95.370	0.160	-0.710	-0.990
2020/01/31 22:00:09.2	95.380	0.140	-0.630	-0.880
2020/01/31 22:00:09.3	95.390	0.110	-0.550	-0.770
2020/01/31 22:00:09.4	95.390	0.080	-0.460	-0.660
2020/01/31 22:00:09.5	95.400	0.060	-0.380	-0.530
2020/01/31 22:00:09.6	95.410	0.030	-0.290	-0.410
2020/01/31 22:00:09.7	95.410	-0.000	-0.210	-0.290
2020/01/31 22:00:09.8	95.410	-0.030	-0.120	-0.160
2020/01/31 22:00:09.9	95.410	-0.060	-0.030	-0.030
2020/01/31 22:00:10.0	95.410	-0.090	0.050	0.110
2020/01/31 22:00:10.1	95.410	-0.120	0.130	0.240
2020/01/31 22:00:10.2	95.410	-0.150	0.210	0.370
2020/01/31 22:00:10.3	95.400	-0.180	0.280	0.500
2020/01/31 22:00:10.4	95.390	-0.200	0.350	0.640
2020/01/31 22:00:10.5	95.380	-0.230	0.420	0.770
2020/01/31 22:00:10.6	95.370	-0.250	0.480	0.900
2020/01/31 22:00:10.7	95.360	-0.270	0.540	1.020
2020/01/31 22:00:10.8	95.350	-0.290	0.590	1.150
2020/01/31 22:00:10.9	95.330	-0.310	0.630	1.270
2020/01/31 22:00:11.0	95.320	-0.320	0.670	1.390
2020/01/31 22:00:11.1	95.310	-0.330	0.700	1.500
2020/01/31 22:00:11.2	95.290	-0.340	0.720	1.610
2020/01/31 22:00:11.3	95.280	-0.350	0.740	1.710
2020/01/31 22:00:11.4	95.260	-0.350	0.750	1.810
2020/01/31 22:00:11.5	95.250	-0.360	0.750	1.910
2020/01/31 22:00:11.6	95.230	-0.350	0.750	1.990
2020/01/31 22:00:11.7	95.220	-0.350	0.730	2.070
2020/01/31 22:00:11.8	95.210	-0.350	0.710	2.150
2020/01/31 22:00:11.9	95.200	-0.340	0.690	2.210
2020/01/31 22:00:12.0	95.190	-0.320	0.650	2.280
2020/01/31 22:00:12.1	95.190	-0.310	0.610	2.330
2020/01/31 22:00:12.2	95.180	-0.290	0.560	2.380
2020/01/31 22:00:12.3	95.180	-0.280	0.500	2.420
2020/01/31 22:00:12.4	95.170	-0.260	0.440	2.460
2020/01/31 22:00:12.5	95.170	-0.230	0.380	2.500
2020/01/31 22:00:12.6	95.170	-0.210	0.310	2.530
2020/01/31 22:00:12.7	95.170	-0.180	0.230	2.550
2020/01/31 22:00:12.8	95.170	-0.150	0.160	2.570
2020/01/31 22:00:12.9	95.170	-0.120	0.080	2.590
2020/01/31 22:00:13.0	95.180	-0.090	-0.010	2.600
2020/01/31 22:00:13.1	95.180	-0.060	-0.090	2.620
2020/01/31 22:00:13.2	95.180	-0.030	-0.180	2.630
2020/01/31 22:00:13.3	95.180	-0.000	-0.260	2.640
2020/01/31 22:00:13.4	95.180	0.030	-0.350	2.650
2020/01/31 22:00:13.5	95.180	0.060	-0.430	2.670
2020/01/31 22:00:13.6	95.180	0.090	-0.510	2.670
2020/01/31 22:00:13.7	95.180	0.120	-0.580	2.680
2020/01/31 22:00:13.8	95.180	0.150	-0.650	2.690
2020/01/31 22:00:13.9	95.170	0.180	-0.720	2.690
2020/01/31 22:00:14.0	95.180	0.200	-0.780	2.700
2020/01/31 22:00:14.1	95.170	0.230	-0.840	2.700
2020/01/31 22:00:14.2	95.170	0.250	-0.880	2.700
2020/01/31 22:00:14.3	95.170	0.270	-0.930	2.690
2020/01/31 22:00:14.4	95.170	0.290	-0.960	2.690
2020/01/31 22:00:14.5	95.170	0.300	-0.990	2.680
2020/01/31 22:00:14.6	95.170	0.320	-1.010	2.660
2020/01/31 22:00:14.7	95.170	0.330	-1.020	2.640
2020/01/31 22:00:14.8	95.170	0.340	-1.030	2.610
2020/01/31 22:00:14.9	95.180	0.340	-1.020	2.580
2020/01/31 22:00:15.0	95.180	0.350	-1.020	2.540
2020/01/31 22:00:15.1	95.190	0.350	-1.000	2.500
2020/01/31 22:00:15.2	95.200	0.350	-0.980	2.450
2020/01/31 22:00:15.3	95.210	0.340	-0.950	2.400
2020/01/31 22:00:15.4	95.220	0.340	-0.910	2.340
2020/01/31 22:00:15.5	95.240	0.330	-0.870	2.270
2020/01/31 22:00:15.6	95.260	0.320	-0.830	2.200
2020/01/31 22:00:15.7	95.270	0.310	-0.780	2.120
2020/01/31 22:00:15.8	95.290	0.300	-0.730	2.040
2020/01/31 22:00:15.9	95.310	0.290	-0.670	1.940
2020/01/31 22:00:16.0	95.330	0.270	-0.610	1.850
2020/01/31 22:00:16.1	95.350	0.260	-0.550	1.740
2020/01/31 22:00:16.2	95.370	0.240	-0.490	1.640
2020/01/31 22:00:16.3	95.390	0.230	-0.420	1.530
2020/01/31 22:00:16.4	95.410	0.210	-0.360	1.410
2020/01/31 22:00:16.5	95.440	0.190	-0.300	1.300
2020/01/31 22:00:16.6	95.450	0.180	-0.230	1.180
2020/01/31 22:00:16.7	95.470	0.160	-0.170	1.060
2020/01/31 22:00:16.8	95.490	0.150	-0.110	0.940
2020/01/31 22:00:16.9	95.510	0.130	-0.050	0.810
2020/01/31 22:00:17.0	95.520	0.120	0.010	0.690
2020/01/31 22:00:17.1	95.540	0.100	0.070	0.560
2020/01/31 22:00:17.2	95.550	0.090	0.120	0.440
2020/01/31 22:00:17.3	95.560	0.080	0.170	0.320
2020/01/31 22:00:17.4	95.570	0.070	0.220	0.210
2020/01/31 22:00:17.5	95.570	0.060	0.260	0.090
2020/01/31 22:00:17.6	95.580	0.050	0.300	-0.020
2020/01/31 22:00:17.7	95.580	0.040	0.340	-0.130
2020/01/31 22:00:17.8	95.580	0.030	0.370	-0.230
2020/01/31 22:00:17.9	95.580	0.030	0.400	-0.340
2020/01/31 22:00:18.0	95.580	0.030	0.420	-0.430
2020/01/31 22:00:18.1	95.570	0.020	0.440	-0.530
2020/01/31 22:00:18.2	95.570	0.020	0.450	-0.620
2020/01/31 22:00:18.3	95.560	0.020	0.460	-0.710
2020/01/31 22:00:18.4	95.550	0.020	0.470	-0.790
2020/01/31 22:00:18.5	95.540	0.020	0.470	-0.870
2020/01/31 22:00:18.6	95.530	0.030	0.470	-0.940
2020/01/31 22:00:18.7	95.520	0.030	0.470	-1.010
2020/01/31 22:00:18.8	95.510	0.030	0.460	-1.080
2020/01/31 22:00:18.9	95.490	0.040	0.440	-1.140
2020/01/31 22:00:19.0	95.470	0.040	0.420	-1.210
2020/01/31 22:00:19.1	95.460	0.040	0.400	-1.260
2020/01/31 22:00:19.2	95.440	0.050	0.380	-1.320
2020/01/31 22:00:19.3	95.420	0.050	0.350	-1.370
2020/01/31 22:00:19.4	95.400	0.050	0.320	-1.420
2020/01/31 22:00:19.5	95.390	0.060	0.290	-1.460
2020/01/31 22:00:19.6	95.370	0.060	0.250	-1.500
2020/01/31 22:00:19.7	95.350	0.060	0.210	-1.540
2020/01/31 22:00:19.8	95.340	0.060	0.170	-1.570
2020/01/31 22:00:19.9	95.320	0.060	0.130	-1.600
2020/01/31 22:00:20.0	95.310	0.060	0.090	-1.630
2020/01/31 22:00:20.1	95.290	0.060	0.050	-1.660
2020/01/31 22:00:20.2	95.280	0.050	-0.000	-1.680
2020/01/31 22:00:20.3	95.270	0.050	-0.050	-1.700
2020/01/31 22:00:20.4	95.260	0.050	-0.090	-1.710
2020/01/31 22:00:20.5	95.250	0.040	-0.140	-1.720
2020/01/31 22:00:20.6	95.250	0.040	-0.190	-1.730
2020/01/31 22:00:20.7	95.240	0.030	-0.230	-1.730
2020/01/31 22:00:20.8	95.240	0.030	-0.280	-1.730
2020/01/31 22:00:20.9	95.240	0.020	-0.320	-1.720
2020/01/31 22:00:21.0	95.220	0.010	-0.370	-1.710
2020/01/31 22:00:21.1	95.220	0.000	-0.410	-1.690
2020/01/31 22:00:21.2	95.220	-0.000	-0.450	-1.670
2020/01/31 22:00:21.3	95.220	-0.010	-0.490	-1.640
2020/01/31 22:00:21.4	95.230	-0.020	-0.530	-1.600
2020/01/31 22:00:21.5	95.230	-0.030	-0.560	-1.570
2020/01/31 22:00:21.6	95.240	-0.040	-0.590	-1.520
2020/01/31 22:00:21.7	95.240	-0.050	-0.620	-1.470
2020/01/31 22:00:21.8	95.250	-0.060	-0.640	-1.420
2020/01/31 22:00:21.9	95.260	-0.070	-0.660	-1.360
2020/01/31 22:00:22.0	95.270	-0.080	-0.680	-1.300
2020/01/31 22:00:22.1	95.290	-0.090	-0.690	-1.230
2020/01/31 22:00:22.2	95.300	-0.090	-0.700	-1.170
2020/01/31 22:00:22.3	95.310	-0.100	-0.710	-1.090
2020/01/31 22:00:22.4	95.330	-0.110	-0.710	-1.020
2020/01/31 22:00:22.5	95.340	-0.120	-0.710	-0.940
2020/01/31 22:00:22.6	95.360	-0.130	-0.710	-0.860
2020/01/31 22:00:22.7	95.380	-0.140	-0.700	-0.780
2020/01/31 22:00:22.8	95.400	-0.140	-0.690	-0.690
2020/01/31 22:00:22.9	95.420	-0.150	-0.670	-0.600
2020/01/31 22:00:23.0	95.440	-0.160	-0.660	-0.510
2020/01/31 22:00:23.1	95.460	-0.160	-0.640	-0.420
2020/01/31 22:00:23.2	95.490	-0.170	-0.620	-0.330
2020/01/31 22:00:23.3	95.510	-0.170	-0.600	-0.240
2020/01/31 22:00:23.4	95.540	-0.180	-0.570	-0.150
2020/01/31 22:00:23.5	95.570	-0.180	-0.550	-0.060
2020/01/31 22:00:23.6	95.590	-0.180	-0.520	0.030
2020/01/31 22:00:23.7	95.620	-0.190	-0.490	0.130
2020/01/31 22:00:23.8	95.650	-0.190	-0.460	0.220
2020/01/31 22:00:23.9	95.680	-0.190	-0.420	0.310
2020/01/31 22:00:24.0	95.710	-0.190	-0.390	0.400
2020/01/31 22:00:24.1	95.740	-0.190	-0.350	0.480
2020/01/31 22:00:24.2	95.760	-0.190	-0.320	0.570
2020/01/31 22:00:24.3	95.790	-0.190	-0.280	0.660
2020/01/31 22:00:24.4	95.820	-0.190	-0.250	0.750
2020/01/31 22:00:24.5	95.840	-0.190	-0.210	0.830
2020/01/31 22:00:24.6	95.870	-0.180	-0.170	0.920
2020/01/31 22:00:24.7	95.890	-0.180	-0.130	1.000
2020/01/31 22:00:24.8	95.910	-0.180	-0.100	1.090
2020/01/31 22:00:24.9	95.930	-0.170	-0.060	1.170
2020/01/31 22:00:25.0	95.940	-0.170	-0.020	1.260
2020/01/31 22:00:25.1	95.950	-0.160	0.010	1.340
2020/01/31 22:00:25.2	95.960	-0.160	0.050	1.430
2020/01/31 22:00:25.3	95.970	-0.150	0.080	1.510
2020/01/31 22:00:25.4	95.980	-0.140	0.120	1.590
2020/01/31 22:00:25.5	95.990	-0.140	0.150	1.670
2020/01/31 22:00:25.6	95.990	-0.130	0.180	1.750
2020/01/31 22:00:25.7	95.990	-0.120	0.210	1.830
2020/01/31 22:00:25.8	95.990	-0.110	0.230	1.910
2020/01/31 22:00:25.9	95.990	-0.100	0.250	1.990
2020/01/31 22:00:26.0	95.980	-0.090	0.270	2.060
2020/01/31 22:00:26.1	95.980	-0.080	0.290	2.140
2020/01/31 22:00:26.2	95.970	-0.070	0.300	2.210
2020/01/31 22:00:26.3	95.960	-0.060	0.310	2.280
2020/01/31 22:00:26.4	95.950	-0.040	0.320	2.350
2020/01/31 22:00:26.5	95.940	-0.030	0.320	2.410
2020/01/31 22:00:26.6	95.920	-0.010	0.320	2.480
2020/01/31 22:00:26.7	95.910	0.000	0.320	2.540
2020/01/31 22:00:26.8	95.890	0.020	0.310	2.590
2020/01/31 22:00:26.9	95.880	0.030	0.300	2.640
2020/01/31 22:00:27.0	95.860	0.050	0.280	2.690
2020/01/31 22:00:27.1	95.840	0.060	0.260	2.730
2020/01/31 22:00:27.2	95.830	0.080	0.240	2.770
2020/01/31 22:00:27.3	95.810	0.090	0.210	2.800
2020/01/31 22:00:27.4	95.790	0.110	0.180	2.830
2020/01/31 22:00:27.5	95.780	0.130	0.150	2.850
2020/01/31 22:00:27.6	95.760	0.140	0.110	2.870
2020/01/31 22:00:27.7	95.750	0.160	0.080	2.880
2020/01/31 22:00:27.8	95.730	0.170	0.040	2.890
2020/01/31 22:00:27.9	95.720	0.190	-0.000	2.890
2020/01/31 22:00:28.0	95.700	0.200	-0.040	2.880
2020/01/31 22:00:28.1	95.690	0.210	-0.080	2.870
2020/01/31 22:00:28.2	95.680	0.220	-0.120	2.850
2020/01/31 22:00:28.3	95.660	0.230	-0.160	2.830
2020/01/31 22:00:28.4	95.650	0.240	-0.200	2.800
2020/01/31 22:00:28.5	95.640	0.250	-0.240	2.760
2020/01/31 22:00:28.6	95.620	0.260	-0.280	2.720
2020/01/31 22:00:28.7	95.610	0.260	-0.310	2.670
2020/01/31 22:00:28.8	95.600	0.270	-0.340	2.610
2020/01/31 22:00:28.9	95.590	0.270	-0.370	2.550
2020/01/31 22:00:29.0	95.590	0.270	-0.400	2.480
2020/01/31 22:00:29.1	95.580	0.270	-0.430	2.410
2020/01/31 22:00:29.2	95.570	0.270	-0.450	2.330
2020/01/31 22:00:29.3	95.560	0.270	-0.470	2.250
2020/01/31 22:00:29.4	95.560	0.260	-0.490	2.160
2020/01/31 22:00:29.5	95.560	0.260	-0.510	2.060
2020/01/31 22:00:29.6	95.550	0.250	-0.520	1.970
2020/01/31 22:00:29.7	95.550	0.250	-0.530	1.860
2020/01/31 22:00:29.8	95.550	0.240	-0.540	1.760
2020/01/31 22:00:29.9	95.550	0.230	-0.540	1.650
2020/01/31 22:00:30.0	95.560	0.220	-0.550	1.530
2020/01/31 22:00:30.1	95.560	0.210	-0.550	1.420
2020/01/31 22:00:30.2	95.560	0.200	-0.550	1.300
2020/01/31 22:00:30.3	95.570	0.190	-0.540	1.180
2020/01/31 22:00:30.4	95.570	0.170	-0.540	1.060
2020/01/31 22:00:30.5	95.580	0.160	-0.530	0.940
2020/01/31 22:00:30.6	95.590	0.150	-0.520	0.830
2020/01/31 22:00:30.7	95.600	0.130	-0.510	0.710
2020/01/31 22:00:30.8	95.600	0.120	-0.500	0.590
2020/01/31 22:00:30.9	95.610	0.110	-0.480	0.480
2020/01/31 22:00:31.0	95.620	0.090	-0.460	0.370
2020/01/31 22:00:31.1	95.630	0.080	-0.450	0.260
2020/01/31 22:00:31.2	95.640	0.070	-0.430	0.150
2020/01/31 22:00:31.3	95.650	0.050	-0.410	0.040
2020/01/31 22:00:31.4	95.650	0.040	-0.380	-0.060
2020/01/31 22:00:31.5	95.660	0.020	-0.360	-0.160
2020/01/31 22:00:31.6	95.670	0.010	-0.340	-0.250
2020/01/31 22:00:31.7	95.680	-0.000	-0.310	-0.340
2020/01/31 22:00:31.8	95.690	-0.020	-0.290	-0.430
2020/01/31 22:00:31.9	95.690	-0.030	-0.270	-0.510
2020/01/31 22:00:32.0	95.700	-0.040	-0.240	-0.590
2020/01/31 22:00:32.1	95.710	-0.050	-0.220	-0.660
2020/01/31 22:00:32.2	95.710	-0.060	-0.190	-0.730
2020/01/31 22:00:32.3	95.710	-0.070	-0.170	-0.800
2020/01/31 22:00:32.4	95.720	-0.090	-0.150	-0.850
2020/01/31 22:00:32.5	95.720	-0.100	-0.130	-0.910
2020/01/31 22:00:32.6	95.720	-0.110	-0.110	-0.960
2020/01/31 22:00:32.7	95.720	-0.110	-0.090	-1.010
2020/01/31 22:00:32.8	95.720	-0.120	-0.070	-1.060
2020/01/31 22:00:32.9	95.720	-0.130	-0.050	-1.100
2020/01/31 22:00:33.0	95.710	-0.140	-0.040	-1.140
2020/01/31 22:00:33.1	95.710	-0.150	-0.020	-1.170
2020/01/31 22:00:33.2	95.710	-0.150	-0.010	-1.210
2020/01/31 22:00:33.3	95.710	-0.160	0.000	-1.240
2020/01/31 22:00:33.4	95.710	-0.170	0.010	-1.270
2020/01/31 22:00:33.5	95.710	-0.170	0.020	-1.300
2020/01/31 22:00:33.6	95.710	-0.180	0.030	-1.320
2020/01/31 22:00:33.7	95.710	-0.180	0.030	-1.350
2020/01/31 22:00:33.8	95.720	-0.180	0.040	-1.370
2020/01/31 22:00:33.9	95.720	-0.190	0.040	-1.390
2020/01/31 22:00:34.0	95.730	-0.190	0.040	-1.410
2020/01/31 22:00:34.1	95.740	-0.190	0.040	-1.430
2020/01/31 22:00:34.2	95.740	-0.190	0.030	-1.450
2020/01/31 22:00:34.3	95.750	-0.190	0.030	-1.460
2020/01/31 22:00:34.4	95.760	-0.180	0.020	-1.470
2020/01/31 22:00:34.5	95.770	-0.180	0.020	-1.480
2020/01/31 22:00:34.6	95.780	-0.170	0.010	-1.490
2020/01/31 22:00:34.7	95.790	-0.170	-0.000	-1.490
2020/01/31 22:00:34.8	95.800	-0.160	-0.010	-1.490
2020/01/31 22:00:34.9	95.820	-0.150	-0.030	-1.490
2020/01/31 22:00:35.0	95.830	-0.140	-0.040	-1.480
2020/01/31 22:00:35.1	95.850	-0.130	-0.050	-1.470
2020/01/31 22:00:35.2	95.860	-0.120	-0.070	-1.450
2020/01/31 22:00:35.3	95.870	-0.110	-0.080	-1.430
2020/01/31 22:00:35.4	95.890	-0.090	-0.100	-1.400
2020/01/31 22:00:35.5	95.900	-0.080	-0.110	-1.370
2020/01/31 22:00:35.6	95.910	-0.060	-0.130	-1.330
2020/01/31 22:00:35.7	95.920	-0.050	-0.150	-1.280
2020/01/31 22:00:35.8	95.930	-0.030	-0.160	-1.230
2020/01/31 22:00:35.9	95.940	-0.020	-0.180	-1.170
2020/01/31 22:00:36.0	95.950	-0.000	-0.200	-1.100
2020/01/31 22:00:36.1	95.960	0.020	-0.210	-1.030
2020/01/31 22:00:36.2	95.960	0.030	-0.220	-0.960
2020/01/31 22:00:36.3	95.970	0.050	-0.240	-0.880
2020/01/31 22:00:36.4	95.970	0.060	-0.250	-0.800
2020/01/31 22:00:36.5	95.970	0.080	-0.260	-0.710
2020/01/31 22:00:36.6	95.980	0.090	-0.270	-0.620
2020/01/31 22:00:36.7	95.980	0.100	-0.270	-0.530
2020/01/31 22:00:36.8	95.980	0.110	-0.280	-0.430
2020/01/31 22:00:36.9	95.980	0.120	-0.280	-0.340
2020/01/31 22:00:37.0	95.980	0.130	-0.290	-0.230
2020/01/31 22:00:37.1	95.980	0.140	-0.290	-0.130
2020/01/31 22:00:37.2	95.980	0.150	-0.290	-0.040
2020/01/31 22:00:37.3	95.980	0.150	-0.290	0.070
2020/01/31 22:00:37.4	95.980	0.160	-0.280	0.170
2020/01/31 22:00:37.5	95.980	0.160	-0.280	0.270
2020/01/31 22:00:37.6	95.970	0.160	-0.270	0.370
2020/01/31 22:00:37.7	95.970	0.160	-0.260	0.460
2020/01/31 22:00:37.8	95.960	0.160	-0.240	0.560
2020/01/31 22:00:37.9	95.960	0.160	-0.230	0.660
2020/01/31 22:00:38.0	95.950	0.150	-0.210	0.750
2020/01/31 22:00:38.1	95.940	0.150	-0.190	0.850
2020/01/31 22:00:38.2	95.930	0.140	-0.170	0.940
2020/01/31 22:00:38.3	95.920	0.140	-0.160	1.030
2020/01/31 22:00:38.4	95.910	0.130	-0.140	1.120
2020/01/31 22:00:38.5	95.890	0.120	-0.120	1.200
2020/01/31 22:00:38.6	95.880	0.110	-0.100	1.280
2020/01/31 22:00:38.7	95.860	0.100	-0.080	1.360
2020/01/31 22:00:38.8	95.850	0.090	-0.060	1.440
2020/01/31 22:00:38.9	95.830	0.080	-0.050	1.520
2020/01/31 22:00:39.0	95.820	0.060	-0.030	1.580
2020/01/31 22:00:39.1	95.800	0.050	-0.020	1.650
2020/01/31 22:00:39.2	95.790	0.040	-0.010	1.710
2020/01/31 22:00:39.3	95.770	0.030	0.010	1.780
2020/01/31 22:00:39.4	95.750	0.020	0.020	1.830
2020/01/31 22:00:39.5	95.740	0.010	0.020	1.890
2020/01/31 22:00:39.6	95.720	-0.010	0.030	1.940
2020/01/31 22:00:39.7	95.700	-0.020	0.030	1.990
2020/01/31 22:00:39.8	95.690	-0.030	0.030	2.030
2020/01/31 22:00:39.9	95.670	-0.040	0.030	2.080
2020/01/31 22:00:40.0	95.660	-0.050	0.030	2.120
2020/01/31 22:00:40.1	95.650	-0.060	0.020	2.160
2020/01/31 22:00:40.2	95.630	-0.070	0.020	2.190
2020/01/31 22:00:40.3	95.620	-0.080	0.000	2.220
2020/01/31 22:00:40.4	95.600	-0.080	-0.010	2.250
2020/01/31 22:00:40.5	95.590	-0.090	-0.020	2.270
2020/01/31 22:00:40.6	95.580	-0.100	-0.040	2.290
2020/01/31 22:00:40.7	95.560	-0.110	-0.050	2.310
2020/01/31 22:00:40.8	95.550	-0.110	-0.070	2.320
2020/01/31 22:00:40.9	95.540	-0.120	-0.090	2.330
2020/01/31 22:00:41.0	95.530	-0.120	-0.110	2.330
2020/01/31 22:00:41.1	95.520	-0.120	-0.140	2.330
2020/01/31 22:00:41.2	95.510	-0.130	-0.160	2.330
2020/01/31 22:00:41.3	95.500	-0.130	-0.180	2.330
2020/01/31 22:00:41.4	95.490	-0.130	-0.210	2.320
2020/01/31 22:00:41.5	95.480	-0.130	-0.230	2.310
2020/01/31 22:00:41.6	95.480	-0.130	-0.260	2.300
2020/01/31 22:00:41.7	95.470	-0.120	-0.280	2.280
2020/01/31 22:00:41.8	95.470	-0.120	-0.310	2.260
2020/01/31 22:00:41.9	95.460	-0.120	-0.340	2.230
2020/01/31 22:00:42.0	95.460	-0.110	-0.370	2.210
2020/01/31 22:00:42.1	95.460	-0.110	-0.390	2.170
2020/01/31 22:00:42.2	95.460	-0.100	-0.420	2.140
2020/01/31 22:00:42.3	95.460	-0.090	-0.450	2.100
2020/01/31 22:00:42.4	95.470	-0.090	-0.470	2.060
2020/01/31 22:00:42.5	95.470	-0.080	-0.500	2.010
2020/01/31 22:00:42.6	95.480	-0.070	-0.520	1.960
2020/01/31 22:00:42.7	95.480	-0.060	-0.540	1.910
2020/01/31 22:00:42.8	95.490	-0.050	-0.560	1.860
2020/01/31 22:00:42.9	95.500	-0.040	-0.580	1.800
2020/01/31 22:00:43.0	95.520	-0.030	-0.590	1.740
2020/01/31 22:00:43.1	95.530	-0.020	-0.610	1.680
2020/01/31 22:00:43.2	95.540	-0.010	-0.620	1.620
2020/01/31 22:00:43.3	95.560	0.000	-0.630	1.550
2020/01/31 22:00:43.4	95.570	0.010	-0.630	1.490
2020/01/31 22:00:43.5	95.580	0.020	-0.630	1.420
2020/01/31 22:00:43.6	95.600	0.030	-0.630	1.350
2020/01/31 22:00:43.7	95.620	0.040	-0.620	1.280
2020/01/31 22:00:43.8	95.630	0.040	-0.610	1.210
2020/01/31 22:00:43.9	95.650	0.050	-0.590	1.140
2020/01/31 22:00:44.0	95.670	0.060	-0.570	1.070
2020/01/31 22:00:44.1	95.680	0.060	-0.550	0.990
2020/01/31 22:00:44.2	95.700	0.060	-0.520	0.920
2020/01/31 22:00:44.3	95.720	0.060	-0.490	0.850
2020/01/31 22:00:44.4	95.740	0.060	-0.460	0.780
2020/01/31 22:00:44.5	95.760	0.060	-0.420	0.700
2020/01/31 22:00:44.6	95.780	0.060	-0.380	0.630
2020/01/31 22:00:44.7	95.800	0.060	-0.340	0.560
2020/01/31 22:00:44.8	95.820	0.050	-0.290	0.490
2020/01/31 22:00:44.9	95.840	0.050	-0.240	0.410
2020/01/31 22:00:45.0	95.860	0.040	-0.190	0.340
2020/01/31 22:00:45.1	95.880	0.040	-0.140	0.270
2020/01/31 22:00:45.2	95.900	0.030	-0.090	0.200
2020/01/31 22:00:45.3	95.920	0.020	-0.040	0.130
2020/01/31 22:00:45.4	95.930	0.010	0.010	0.060
2020/01/31 22:00:45.5	95.950	0.000	0.060	-0.000
2020/01/31 22:00:45.6	95.970	-0.010	0.100	-0.070
2020/01/31 22:00:45.7	95.980	-0.020	0.150	-0.140
2020/01/31 22:00:45.8	96.000	-0.030	0.190	-0.200
2020/01/31 22:00:45.9	96.010	-0.030	0.240	-0.270
2020/01/31 22:00:46.0	96.010	-0.040	0.270	-0.330
2020/01/31 22:00:46.1	96.030	-0.050	0.310	-0.390
2020/01/31 22:00:46.2	96.040	-0.060	0.340	-0.450
2020/01/31 22:00:46.3	96.040	-0.070	0.370	-0.510
2020/01/31 22:00:46.4	96.050	-0.080	0.400	-0.570
2020/01/31 22:00:46.5	96.050	-0.080	0.420	-0.620
2020/01/31 22:00:46.6	96.060	-0.090	0.440	-0.670
2020/01/31 22:00:46.7	96.060	-0.090	0.460	-0.710
2020/01/31 22:00:46.8	96.050	-0.100	0.470	-0.750
2020/01/31 22:00:46.9	96.050	-0.100	0.480	-0.790
2020/01/31 22:00:47.0	96.040	-0.100	0.490	-0.830
2020/01/31 22:00:47.1	96.030	-0.100	0.490	-0.860
2020/01/31 22:00:47.2	96.010	-0.100	0.480	-0.890
2020/01/31 22:00:47.3	96.000	-0.100	0.470	-0.910
2020/01/31 22:00:47.4	95.980	-0.100	0.460	-0.930
2020/01/31 22:00:47.5	95.960	-0.100	0.440	-0.940
2020/01/31 22:00:47.6	95.940	-0.090	0.420	-0.950
2020/01/31 22:00:47.7	95.920	-0.080	0.400	-0.950
2020/01/31 22:00:47.8	95.900	-0.080	0.370	-0.950
2020/01/31 22:00:47.9	95.870	-0.070	0.340	-0.950
2020/01/31 22:00:48.0	95.840	-0.060	0.300	-0.940
2020/01/31 22:00:48.1	95.810	-0.050	0.260	-0.930
2020/01/31 22:00:48.2	95.780	-0.040	0.220	-0.910
2020/01/31 22:00:48.3	95.760	-0.030	0.180	-0.890
2020/01/31 22:00:48.4	95.730	-0.020	0.130	-0.870
2020/01/31 22:00:48.5	95.700	-0.000	0.080	-0.840
2020/01/31 22:00:48.6	95.670	0.010	0.030	-0.810
2020/01/31 22:00:48.7	95.640	0.020	-0.020	-0.770
2020/01/31 22:00:48.8	95.610	0.040	-0.070	-0.740
2020/01/31 22:00:48.9	95.580	0.050	-0.120	-0.700
2020/01/31 22:00:49.0	95.550	0.060	-0.170	-0.650
2020/01/31 22:00:49.1	95.530	0.080	-0.230	-0.600
2020/01/31 22:00:49.2	95.500	0.090	-0.290	-0.550
2020/01/31 22:00:49.3	95.470	0.100	-0.340	-0.500
2020/01/31 22:00:49.4	95.450	0.110	-0.400	-0.450
2020/01/31 22:00:49.5	95.420	0.120	-0.450	-0.390
2020/01/31 22:00:49.6	95.400	0.130	-0.500	-0.330
2020/01/31 22:00:49.7	95.380	0.140	-0.550	-0.270
2020/01/31 22:00:49.8	95.360	0.150	-0.600	-0.210
2020/01/31 22:00:49.9	95.340	0.160	-0.650	-0.150
2020/01/31 22:00:50.0	95.330	0.160	-0.700	-0.090
2020/01/31 22:00:50.1	95.310	0.170	-0.750	-0.030
2020/01/31 22:00:50.2	95.300	0.170	-0.790	0.030
2020/01/31 22:00:50.3	95.280	0.180	-0.830	0.090
2020/01/31 22:00:50.4	95.270	0.180	-0.860	0.150
2020/01/31 22:00:50.5	95.270	0.180	-0.890	0.210
2020/01/31 22:00:50.6	95.260	0.180	-0.920	0.270
2020/01/31 22:00:50.7	95.260	0.180	-0.940	0.320
2020/01/31 22:00:50.8	95.260	0.180	-0.960	0.370
2020/01/31 22:00:50.9	95.260	0.170	-0.980	0.420
2020/01/31 22:00:51.0	95.260	0.170	-0.990	0.470
2020/01/31 22:00:51.1	95.270	0.170	-1.000	0.520
2020/01/31 22:00:51.2	95.280	0.160	-1.000	0.560
2020/01/31 22:00:51.3	95.290	0.160	-1.000	0.600
2020/01/31 22:00:51.4	95.300	0.150	-0.990	0.630
2020/01/31 22:00:51.5	95.310	0.140	-0.980	0.670
2020/01/31 22:00:51.6	95.330	0.140	-0.970	0.700
2020/01/31 22:00:51.7	95.350	0.130	-0.950	0.720
2020/01/31 22:00:51.8	95.360	0.120	-0.920	0.750
2020/01/31 22:00:51.9	95.380	0.110	-0.890	0.770
2020/01/31 22:00:52.0	95.400	0.110	-0.850	0.790
2020/01/31 22:00:52.1	95.420	0.100	-0.810	0.810
2020/01/31 22:00:52.2	95.430	0.090	-0.770	0.830
2020/01/31 22:00:52.3	95.450	0.080	-0.720	0.850
2020/01/31 22:00:52.4	95.470	0.070	-0.670	0.870
2020/01/31 22:00:52.5	95.480	0.060	-0.610	0.890
2020/01/31 22:00:52.6	95.500	0.050	-0.550	0.910
2020/01/31 22:00:52.7	95.510	0.040	-0.490	0.930
2020/01/31 22:00:52.8	95.520	0.030	-0.420	0.950
2020/01/31 22:00:52.9	95.530	0.010	-0.360	0.970
2020/01/31 22:00:53.0	95.550	0.000	-0.290	0.990
2020/01/31 22:00:53.1	95.550	-0.010	-0.220	1.010
2020/01/31 22:00:53.2	95.560	-0.020	-0.150	1.040
2020/01/31 22:00:53.3	95.560	-0.040	-0.070	1.060
2020/01/31 22:00:53.4	95.560	-0.050	-0.000	1.090
2020/01/31 22:00:53.5	95.560	-0.060	0.070	1.120
2020/01/31 22:00:53.6	95.560	-0.080	0.140	1.150
2020/01/31 22:00:53.7	95.550	-0.090	0.210	1.180
2020/01/31 22:00:53.8	95.550	-0.110	0.270	1.210
2020/01/31 22:00:53.9	95.550	-0.120	0.330	1.240
2020/01/31 22:00:54.0	95.540	-0.140	0.400	1.280
2020/01/31 22:00:54.1	95.540	-0.150	0.450	1.310
2020/01/31 22:00:54.2	95.540	-0.160	0.500	1.340
2020/01/31 22:00:54.3	95.540	-0.180	0.550	1.370
2020/01/31 22:00:54.4	95.540	-0.190	0.590	1.410
2020/01/31 22:00:54.5	95.540	-0.200	0.620	1.440
2020/01/31 22:00:54.6	95.540	-0.210	0.650	1.460
2020/01/31 22:00:54.7	95.550	-0.230	0.670	1.490
2020/01/31 22:00:54.8	95.550	-0.240	0.690	1.520
2020/01/31 22:00:54.9	95.560	-0.250	0.700	1.540
2020/01/31 22:00:55.0	95.570	-0.250	0.700	1.560
2020/01/31 22:00:55.1	95.580	-0.260	0.700	1.580
2020/01/31 22:00:55.2	95.590	-0.270	0.690	1.600
2020/01/31 22:00:55.3	95.610	-0.270	0.680	1.610
2020/01/31 22:00:55.4	95.630	-0.280	0.660	1.630
2020/01/31 22:00:55.5	95.640	-0.280	0.630	1.640
2020/01/31 22:00:55.6	95.660	-0.290	0.600	1.650
2020/01/31 22:00:55.7	95.680	-0.290	0.570	1.650
2020/01/31 22:00:55.8	95.700	-0.290	0.530	1.660
2020/01/31 22:00:55.9	95.720	-0.290	0.490	1.660
2020/01/31 22:00:56.0	95.740	-0.290	0.450	1.650
2020/01/31 22:00:56.1	95.760	-0.280	0.400	1.650
2020/01/31 22:00:56.2	95.780	-0.280	0.350	1.640
2020/01/31 22:00:56.3	95.800	-0.280	0.290	1.630
2020/01/31 22:00:56.4	95.810	-0.270	0.240	1.620
2020/01/31 22:00:56.5	95.830	-0.270	0.180	1.600
2020/01/31 22:00:56.6	95.850	-0.260	0.130	1.590
2020/01/31 22:00:56.7	95.860	-0.250	0.070	1.570
2020/01/31 22:00:56.8	95.880	-0.250	0.020	1.540
2020/01/31 22:00:56.9	95.890	-0.240	-0.030	1.520
2020/01/31 22:00:57.0	95.900	-0.230	-0.090	1.490
2020/01/31 22:00:57.1	95.910	-0.220	-0.140	1.460
2020/01/31 22:00:57.2	95.920	-0.210	-0.180	1.430
2020/01/31 22:00:57.3	95.920	-0.200	-0.230	1.390
2020/01/31 22:00:57.4	95.920	-0.190	-0.270	1.360
2020/01/31 22:00:57.5	95.920	-0.180	-0.310	1.320
2020/01/31 22:00:57.6	95.920	-0.170	-0.350	1.280
2020/01/31 22:00:57.7	95.910	-0.160	-0.380	1.240
2020/01/31 22:00:57.8	95.910	-0.140	-0.410	1.190
2020/01/31 22:00:57.9	95.900	-0.130	-0.440	1.150
2020/01/31 22:00:58.0	95.890	-0.120	-0.470	1.100
2020/01/31 22:00:58.1	95.870	-0.100	-0.490	1.060
2020/01/31 22:00:58.2	95.860	-0.090	-0.510	1.010
2020/01/31 22:00:58.3	95.850	-0.080	-0.520	0.970
2020/01/31 22:00:58.4	95.830	-0.060	-0.540	0.930
2020/01/31 22:00:58.5	95.810	-0.040	-0.550	0.890
2020/01/31 22:00:58.6	95.790	-0.030	-0.560	0.850
2020/01/31 22:00:58.7	95.770	-0.010	-0.570	0.810
2020/01/31 22:00:58.8	95.760	0.010	-0.580	0.780
2020/01/31 22:00:58.9	95.740	0.020	-0.580	0.740
2020/01/31 22:00:59.0	95.710	0.040	-0.580	0.710
2020/01/31 22:00:59.1	95.690	0.060	-0.590	0.680
2020/01/31 22:00:59.2	95.680	0.080	-0.590	0.650
2020/01/31 22:00:59.3	95.660	0.100	-0.600	0.620
2020/01/31 22:00:59.4	95.640	0.120	-0.600	0.590
2020/01/31 22:00:59.5	95.620	0.150	-0.610	0.560
2020/01/31 22:00:59.6	95.600	0.170	-0.620	0.530
2020/01/31 22:00:59.7	95.590	0.190	-0.620	0.510
2020/01/31 22:00:59.8	95.570	0.210	-0.630	0.480
2020/01/31 22:00:59.9	95.560	0.240	-0.640	0.460
2020/01/31 22:01:00.0	95.550	0.260	-0.650	0.430
2020/01/31 22:01:00.1	95.540	0.280	-0.660	0.400
2020/01/31 22:01:00.2	95.530	0.300	-0.670	0.380
2020/01/31 22:01:00.3	95.520	0.330	-0.680	0.350
2020/01/31 22:01:00.4	95.520	0.350	-0.690	0.330
2020/01/31 22:01:00.5	95.510	0.370	-0.700	0.310
2020/01/31 22:01:00.6	95.510	0.390	-0.710	0.280
2020/01/31 22:01:00.7	95.510	0.400	-0.720	0.260
2020/01/31 22:01:00.8	95.510	0.420	-0.720	0.230
2020/01/31 22:01:00.9	95.510	0.430	-0.730	0.200
2020/01/31 22:01:01.0	95.500	0.440	-0.730	0.170
2020/01/31 22:01:01.1	95.510	0.450	-0.730	0.140
2020/01/31 22:01:01.2	95.520	0.460	-0.720	0.110
2020/01/31 22:01:01.3	95.530	0.460	-0.720	0.080
2020/01/31 22:01:01.4	95.540	0.470	-0.710	0.050
2020/01/31 22:01:01.5	95.550	0.460	-0.700	0.020
2020/01/31 22:01:01.6	95.560	0.460	-0.680	-0.020
2020/01/31 22:01:01.7	95.580	0.450	-0.660	-0.050
2020/01/31 22:01:01.8	95.590	0.440	-0.630	-0.090
2020/01/31 22:01:01.9	95.610	0.430	-0.600	-0.130
2020/01/31 22:01:02.0	95.630	0.410	-0.560	-0.160
2020/01/31 22:01:02.1	95.650	0.390	-0.520	-0.200
2020/01/31 22:01:02.2	95.670	0.360	-0.470	-0.240
2020/01/31 22:01:02.3	95.690	0.340	-0.420	-0.270
2020/01/31 22:01:02.4	95.710	0.310	-0.370	-0.310
2020/01/31 22:01:02.5	95.730	0.270	-0.310	-0.340
2020/01/31 22:01:02.6	95.750	0.240	-0.250	-0.370
2020/01/31 22:01:02.7	95.770	0.200	-0.180	-0.400
2020/01/31 22:01:02.8	95.790	0.160	-0.110	-0.430
2020/01/31 22:01:02.9	95.820	0.120	-0.040	-0.460
2020/01/31 22:01:03.0	95.830	0.070	0.030	-0.490
2020/01/31 22:01:03.1	95.850	0.030	0.110	-0.510
2020/01/31 22:01:03.2	95.870	-0.020	0.180	-0.530
2020/01/31 22:01:03.3	95.890	-0.070	0.260	-0.540
2020/01/31 22:01:03.4	95.910	-0.110	0.330	-0.560
2020/01/31 22:01:03.5	95.930	-0.160	0.410	-0.570
2020/01/31 22:01:03.6	95.940	-0.210	0.480	-0.570
2020/01/31 22:01:03.7	95.960	-0.250	0.540	-0.580
2020/01/31 22:01:03.8	95.970	-0.300	0.610	-0.570
2020/01/31 22:01:03.9	95.980	-0.340	0.670	-0.570
2020/01/31 22:01:04.0	96.000	-0.380	0.720	-0.550
2020/01/31 22:01:04.1	96.010	-0.420	0.770	-0.540
2020/01/31 22:01:04.2	96.010	-0.460	0.820	-0.520
2020/01/31 22:01:04.3	96.020	-0.490	0.850	-0.500
2020/01/31 22:01:04.4	96.020	-0.520	0.880	-0.480
2020/01/31 22:01:04.5	96.020	-0.550	0.900	-0.440
2020/01/31 22:01:04.6	96.020	-0.580	0.920	-0.410
2020/01/31 22:01:04.7	96.010	-0.600	0.930	-0.370
2020/01/31 22:01:04.8	96.010	-0.620	0.920	-0.330
2020/01/31 22:01:04.9	96.000	-0.630	0.910	-0.290
2020/01/31 22:01:05.0	95.990	-0.640	0.900	-0.240
2020/01/31 22:01:05.1	95.980	-0.640	0.870	-0.190
2020/01/31 22:01:05.2	95.970	-0.650	0.840	-0.140
2020/01/31 22:01:05.3	95.950	-0.640	0.790	-0.080
2020/01/31 22:01:05.4	95.940	-0.640	0.740	-0.020
2020/01/31 22:01:05.5	95.930	-0.630	0.690	0.040
2020/01/31 22:01:05.6	95.910	-0.610	0.630	0.100
2020/01/31 22:01:05.7	95.900	-0.590	0.560	0.160
2020/01/31 22:01:05.8	95.880	-0.570	0.480	0.230
2020/01/31 22:01:05.9	95.860	-0.550	0.400	0.290
2020/01/31 22:01:06.0	95.850	-0.520	0.320	0.360
2020/01/31 22:01:06.1	95.840	-0.490	0.230	0.420
2020/01/31 22:01:06.2	95.820	-0.460	0.140	0.480
2020/01/31 22:01:06.3	95.810	-0.430	0.050	0.550
2020/01/31 22:01:06.4	95.800	-0.390	-0.050	0.600
2020/01/31 22:01:06.5	95.790	-0.350	-0.140	0.660
2020/01/31 22:01:06.6	95.780	-0.310	-0.240	0.720
2020/01/31 22:01:06.7	95.780	-0.270	-0.330	0.770
2020/01/31 22:01:06.8	95.770	-0.230	-0.430	0.820
2020/01/31 22:01:06.9	95.770	-0.190	-0.520	0.870
2020/01/31 22:01:07.0	95.770	-0.150	-0.610	0.910
2020/01/31 22:01:07.1	95.770	-0.110	-0.690	0.950
2020/01/31 22:01:07.2	95.780	-0.070	-0.770	0.990
2020/01/31 22:01:07.3	95.780	-0.030	-0.850	1.020
2020/01/31 22:01:07.4	95.800	0.010	-0.920	1.050
2020/01/31 22:01:07.5	95.810	0.050	-0.990	1.080
2020/01/31 22:01:07.6	95.830	0.090	-1.050	1.100
2020/01/31 22:01:07.7	95.840	0.120	-1.100	1.120
2020/01/31 22:01:07.8	95.860	0.150	-1.150	1.140
2020/01/31 22:01:07.9	95.890	0.190	-1.190	1.150
2020/01/31 22:01:08.0	95.920	0.220	-1.210	1.160
2020/01/31 22:01:08.1	95.940	0.250	-1.240	1.170
2020/01/31 22:01:08.2	95.970	0.270	-1.260	1.170
2020/01/31 22:01:08.3	96.000	0.300	-1.270	1.170
2020/01/31 22:01:08.4	96.020	0.320	-1.270	1.170
2020/01/31 22:01:08.5	96.050	0.340	-1.270	1.170
2020/01/31 22:01:08.6	96.080	0.360	-1.260	1.160
2020/01/31 22:01:08.7	96.110	0.380	-1.240	1.160
2020/01/31 22:01:08.8	96.140	0.390	-1.220	1.150
2020/01/31 22:01:08.9	96.170	0.410	-1.190	1.140
2020/01/31 22:01:09.0	96.200	0.420	-1.150	1.130
2020/01/31 22:01:09.1	96.220	0.430	-1.110	1.120
2020/01/31 22:01:09.2	96.250	0.440	-1.060	1.120
2020/01/31 22:01:09.3	96.270	0.450	-1.010	1.110
2020/01/31 22:01:09.4	96.300	0.450	-0.950	1.100
2020/01/31 22:01:09.5	96.320	0.460	-0.900	1.090
2020/01/31 22:01:09.6	96.340	0.460	-0.830	1.090
2020/01/31 22:01:09.7	96.350	0.460	-0.770	1.080
2020/01/31 22:01:09.8	96.370	0.460	-0.700	1.080
2020/01/31 22:01:09.9	96.380	0.460	-0.640	1.080
2020/01/31 22:01:10.0	96.400	0.460	-0.570	1.080
2020/01/31 22:01:10.1	96.410	0.460	-0.500	1.080
2020/01/31 22:01:10.2	96.420	0.450	-0.430	1.080
2020/01/31 22:01:10.3	96.420	0.450	-0.360	1.090
2020/01/31 22:01:10.4	96.430	0.440	-0.290	1.090
2020/01/31 22:01:10.5	96.430	0.430	-0.220	1.100
2020/01/31 22:01:10.6	96.430	0.420	-0.150	1.100
2020/01/31 22:01:10.7	96.420	0.410	-0.090	1.110
2020/01/31 22:01:10.8	96.420	0.400	-0.020	1.120
2020/01/31 22:01:10.9	96.410	0.390	0.040	1.130
2020/01/31 22:01:11.0	96.400	0.370	0.100	1.140
2020/01/31 22:01:11.1	96.390	0.360	0.150	1.150
2020/01/31 22:01:11.2	96.380	0.340	0.200	1.160
2020/01/31 22:01:11.3	96.370	0.320	0.250	1.170
2020/01/31 22:01:11.4	96.350	0.300	0.300	1.190
2020/01/31 22:01:11.5	96.340	0.280	0.340	1.190
2020/01/31 22:01:11.6	96.320	0.260	0.380	1.200
2020/01/31 22:01:11.7	96.300	0.230	0.420	1.210
2020/01/31 22:01:11.8	96.290	0.210	0.450	1.220
2020/01/31 22:01:11.9	96.270	0.180	0.480	1.220
2020/01/31 22:01:12.0	96.240	0.150	0.500	1.220
2020/01/31 22:01:12.1	96.230	0.130	0.520	1.220
2020/01/31 22:01:12.2	96.210	0.100	0.540	1.220
2020/01/31 22:01:12.3	96.190	0.070	0.550	1.220
2020/01/31 22:01:12.4	96.170	0.040	0.560	1.210
2020/01/31 22:01:12.5	96.150	0.010	0.560	1.200
2020/01/31 22:01:12.6	96.140	-0.020	0.570	1.190
2020/01/31 22:01:12.7	96.120	-0.050	0.560	1.180
2020/01/31 22:01:12.8	96.100	-0.090	0.560	1.160
2020/01/31 22:01:12.9	96.080	-0.120	0.550	1.140
2020/01/31 22:01:13.0	96.060	-0.150	0.540	1.120
2020/01/31 22:01:13.1	96.040	-0.180	0.520	1.090
2020/01/31 22:01:13.2	96.030	-0.210	0.500	1.070
2020/01/31 22:01:13.3	96.010	-0.240	0.480	1.040
2020/01/31 22:01:13.4	96.000	-0.280	0.460	1.010
2020/01/31 22:01:13.5	95.980	-0.310	0.430	0.970
2020/01/31 22:01:13.6	95.970	-0.330	0.400	0.940
2020/01/31 22:01:13.7	95.950	-0.360	0.370	0.900
2020/01/31 22:01:13.8	95.940	-0.390	0.330	0.860
2020/01/31 22:01:13.9	95.930	-0.410	0.300	0.820
2020/01/31 22:01:14.0	95.920	-0.440	0.260	0.780
2020/01/31 22:01:14.1	95.910	-0.460	0.220	0.730
2020/01/31 22:01:14.2	95.910	-0.480	0.180	0.690
2020/01/31 22:01:14.3	95.900	-0.500	0.140	0.640
2020/01/31 22:01:14.4	95.900	-0.520	0.110	0.590
2020/01/31 22:01:14.5	95.900	-0.540	0.070	0.540
2020/01/31 22:01:14.6	95.900	-0.550	0.030	0.490
2020/01/31 22:01:14.7	95.900	-0.560	-0.000	0.440
2020/01/31 22:01:14.8	95.910	-0.570	-0.040	0.390
2020/01/31 22:01:14.9	95.920	-0.580	-0.070	0.330
2020/01/31 22:01:15.0	95.930	-0.590	-0.100	0.280
2020/01/31 22:01:15.1	95.940	-0.590	-0.130	0.230
2020/01/31 22:01:15.2	95.960	-0.590	-0.160	0.170
2020/01/31 22:01:15.3	95.970	-0.590	-0.190	0.110
2020/01/31 22:01:15.4	95.990	-0.590	-0.210	0.060
2020/01/31 22:01:15.5	96.010	-0.580	-0.230	0.000
2020/01/31 22:01:15.6	96.040	-0.570	-0.250	-0.050
2020/01/31 22:01:15.7	96.060	-0.560	-0.270	-0.100
2020/01/31 22:01:15.8	96.090	-0.550	-0.290	-0.160
2020/01/31 22:01:15.9	96.110	-0.540	-0.310	-0.210
2020/01/31 22:01:16.0	96.140	-0.520	-0.320	-0.260
2020/01/31 22:01:16.1	96.170	-0.500	-0.330	-0.310
2020/01/31 22:01:16.2	96.200	-0.480	-0.340	-0.350
2020/01/31 22:01:16.3	96.230	-0.460	-0.350	-0.400
2020/01/31 22:01:16.4	96.260	-0.440	-0.360	-0.440
2020/01/31 22:01:16.5	96.290	-0.410	-0.370	-0.480
2020/01/31 22:01:16.6	96.320	-0.390	-0.370	-0.520
2020/01/31 22:01:16.7	96.350	-0.360	-0.380	-0.550
2020/01/31 22:01:16.8	96.380	-0.330	-0.380	-0.580
2020/01/31 22:01:16.9	96.410	-0.300	-0.380	-0.610
2020/01/31 22:01:17.0	96.440	-0.260	-0.390	-0.640
2020/01/31 22:01:17.1	96.470	-0.230	-0.390	-0.660
2020/01/31 22:01:17.2	96.500	-0.200	-0.390	-0.680
2020/01/31 22:01:17.3	96.530	-0.160	-0.400	-0.690
2020/01/31 22:01:17.4	96.560	-0.130	-0.400	-0.710
2020/01/31 22:01:17.5	96.590	-0.090	-0.410	-0.710
2020/01/31 22:01:17.6	96.620	-0.060	-0.410	-0.720
2020/01/31 22:01:17.7	96.640	-0.020	-0.420	-0.720
2020/01/31 22:01:17.8	96.670	0.010	-0.430	-0.720
2020/01/31 22:01:17.9	96.700	0.050	-0.440	-0.720
2020/01/31 22:01:18.0	96.710	0.080	-0.440	-0.710
2020/01/31 22:01:18.1	96.730	0.120	-0.450	-0.700
2020/01/31 22:01:18.2	96.750	0.150	-0.470	-0.680
2020/01/31 22:01:18.3	96.770	0.180	-0.480	-0.660
2020/01/31 22:01:18.4	96.790	0.210	-0.490	-0.640
2020/01/31 22:01:18.5	96.800	0.240	-0.500	-0.610
2020/01/31 22:01:18.6	96.810	0.270	-0.510	-0.580
2020/01/31 22:01:18.7	96.820	0.300	-0.520	-0.550
2020/01/31 22:01:18.8	96.830	0.320	-0.530	-0.510
2020/01/31 22:01:18.9	96.830	0.350	-0.540	-0.470
2020/01/31 22:01:19.0	96.820	0.370	-0.560	-0.430
2020/01/31 22:01:19.1	96.820	0.390	-0.570	-0.380
2020/01/31 22:01:19.2	96.820	0.410	-0.570	-0.330
2020/01/31 22:01:19.3	96.810	0.420	-0.580	-0.270
2020/01/31 22:01:19.4	96.800	0.430	-0.580	-0.210
2020/01/31 22:01:19.5	96.790	0.440	-0.590	-0.150
2020/01/31 22:01:19.6	96.770	0.450	-0.590	-0.090
2020/01/31 22:01:19.7	96.760	0.460	-0.580	-0.020
2020/01/31 22:01:19.8	96.740	0.460	-0.580	0.050
2020/01/31 22:01:19.9	96.710	0.470	-0.570	0.130
2020/01/31 22:01:20.0	96.690	0.460	-0.570	0.200
2020/01/31 22:01:20.1	96.660	0.460	-0.550	0.280
2020/01/31 22:01:20.2	96.630	0.460	-0.540	0.360
2020/01/31 22:01:20.3	96.600	0.450	-0.520	0.440
2020/01/31 22:01:20.4	96.570	0.440	-0.500	0.520
2020/01/31 22:01:20.5	96.540	0.430	-0.480	0.600
2020/01/31 22:01:20.6	96.500	0.410	-0.460	0.690
2020/01/31 22:01:20.7	96.470	0.400	-0.430	0.770
2020/01/31 22:01:20.8	96.430	0.380	-0.400	0.850
2020/01/31 22:01:20.9	96.400	0.360	-0.380	0.930
2020/01/31 22:01:21.0	96.360	0.340	-0.340	1.020
2020/01/31 22:01:21.1	96.330	0.310	-0.310	1.090
2020/01/31 22:01:21.2	96.290	0.290	-0.280	1.170
2020/01/31 22:01:21.3	96.250	0.260	-0.240	1.240
2020/01/31 22:01:21.4	96.220	0.240	-0.210	1.310
2020/01/31 22:01:21.5	96.180	0.210	-0.180	1.380
2020/01/31 22:01:21.6	96.140	0.180	-0.150	1.450
2020/01/31 22:01:21.7	96.110	0.150	-0.120	1.510
2020/01/31 22:01:21.8	96.070	0.130	-0.090	1.560
2020/01/31 22:01:21.9	96.040	0.100	-0.060	1.620
2020/01/31 22:01:22.0	96.010	0.070	-0.040	1.660
2020/01/31 22:01:22.1	95.970	0.040	-0.010	1.710
2020/01/31 22:01:22.2	95.940	0.020	0.010	1.750
2020/01/31 22:01:22.3	95.910	-0.010	0.030	1.790
2020/01/31 22:01:22.4	95.880	-0.040	0.050	1.820
2020/01/31 22:01:22.5	95.850	-0.060	0.070	1.850
2020/01/31 22:01:22.6	95.830	-0.090	0.080	1.870
2020/01/31 22:01:22.7	95.800	-0.110	0.090	1.890
2020/01/31 22:01:22.8	95.780	-0.130	0.100	1.910
2020/01/31 22:01:22.9	95.760	-0.150	0.110	1.920
2020/01/31 22:01:23.0	95.750	-0.170	0.120	1.930
2020/01/31 22:01:23.1	95.730	-0.180	0.130	1.940
2020/01/31 22:01:23.2	95.710	-0.200	0.130	1.930
2020/01/31 22:01:23.3	95.700	-0.210	0.130	1.930
2020/01/31 22:01:23.4	95.690	-0.220	0.130	1.920
2020/01/31 22:01:23.5	95.680	-0.230	0.120	1.910
2020/01/31 22:01:23.6	95.670	-0.240	0.120	1.890
2020/01/31 22:01:23.7	95.670	-0.250	0.120	1.860
2020/01/31 22:01:23.8	95.670	-0.250	0.110	1.840
2020/01/31 22:01:23.9	95.670	-0.250	0.100	1.800
2020/01/31 22:01:24.0	95.680	-0.250	0.090	1.760
2020/01/31 22:01:24.1	95.680	-0.250	0.080	1.720
2020/01/31 22:01:24.2	95.700	-0.250	0.070	1.670
2020/01/31 22:01:24.3	95.710	-0.240	0.070	1.610
2020/01/31 22:01:24.4	95.730	-0.230	0.060	1.550
2020/01/31 22:01:24.5	95.750	-0.220	0.050	1.490
2020/01/31 22:01:24.6	95.780	-0.210	0.040	1.420
2020/01/31 22:01:24.7	95.800	-0.200	0.030	1.350
2020/01/31 22:01:24.8	95.830	-0.190	0.020	1.270
2020/01/31 22:01:24.9	95.870	-0.170	0.010	1.190
2020/01/31 22:01:25.0	95.890	-0.150	0.010	1.110
2020/01/31 22:01:25.1	95.930	-0.130	-0.000	1.020
2020/01/31 22:01:25.2	95.970	-0.110	-0.010	0.930
2020/01/31 22:01:25.3	96.010	-0.090	-0.020	0.830
2020/01/31 22:01:25.4	96.050	-0.070	-0.020	0.740
2020/01/31 22:01:25.5	96.090	-0.050	-0.030	0.640
2020/01/31 22:01:25.6	96.130	-0.020	-0.040	0.550
2020/01/31 22:01:25.7	96.170	0.000	-0.040	0.450
2020/01/31 22:01:25.8	96.210	0.030	-0.050	0.350
2020/01/31 22:01:25.9	96.250	0.050	-0.060	0.260
2020/01/31 22:01:26.0	96.280	0.080	-0.060	0.160
2020/01/31 22:01:26.1	96.320	0.110	-0.070	0.070
2020/01/31 22:01:26.2	96.350	0.130	-0.080	-0.020
2020/01/31 22:01:26.3	96.390	0.160	-0.080	-0.100
2020/01/31 22:01:26.4	96.420	0.180	-0.090	-0.180
2020/01/31 22:01:26.5	96.450	0.210	-0.100	-0.260
2020/01/31 22:01:26.6	96.470	0.230	-0.100	-0.330
2020/01/31 22:01:26.7	96.500	0.260	-0.110	-0.400
2020/01/31 22:01:26.8	96.520	0.280	-0.120	-0.460
2020/01/31 22:01:26.9	96.540	0.300	-0.120	-0.520
2020/01/31 22:01:27.0	96.560	0.320	-0.130	-0.570
2020/01/31 22:01:27.1	96.580	0.340	-0.140	-0.620
2020/01/31 22:01:27.2	96.590	0.350	-0.150	-0.660
2020/01/31 22:01:27.3	96.600	0.370	-0.160	-0.700
2020/01/31 22:01:27.4	96.610	0.380	-0.170	-0.730
2020/01/31 22:01:27.5	96.620	0.400	-0.180	-0.750
2020/01/31 22:01:27.6	96.620	0.410	-0.190	-0.770
2020/01/31 22:01:27.7	96.630	0.410	-0.210	-0.780
2020/01/31 22:01:27.8	96.620	0.420	-0.220	-0.790
2020/01/31 22:01:27.9	96.620	0.420	-0.230	-0.790
2020/01/31 22:01:28.0	96.610	0.430	-0.250	-0.790
2020/01/31 22:01:28.1	96.610	0.430	-0.260	-0.780
2020/01/31 22:01:28.2	96.600	0.420	-0.270	-0.770
2020/01/31 22:01:28.3	96.590	0.420	-0.290	-0.750
2020/01/31 22:01:28.4	96.580	0.410	-0.300	-0.730
2020/01/31 22:01:28.5	96.570	0.400	-0.310	-0.710
2020/01/31 22:01:28.6	96.550	0.390	-0.320	-0.680
2020/01/31 22:01:28.7	96.540	0.380	-0.330	-0.650
2020/01/31 22:01:28.8	96.530	0.360	-0.340	-0.620
2020/01/31 22:01:28.9	96.510	0.340	-0.350	-0.580
2020/01/31 22:01:29.0	96.500	0.320	-0.360	-0.540
2020/01/31 22:01:29.1	96.480	0.300	-0.360	-0.500
2020/01/31 22:01:29.2	96.470	0.270	-0.370	-0.460
2020/01/31 22:01:29.3	96.450	0.250	-0.370	-0.410
2020/01/31 22:01:29.4	96.430	0.220	-0.370	-0.360
2020/01/31 22:01:29.5	96.420	0.190	-0.370	-0.310
2020/01/31 22:01:29.6	96.400	0.160	-0.370	-0.260
2020/01/31 22:01:29.7	96.380	0.120	-0.370	-0.210
2020/01/31 22:01:29.8	96.370	0.090	-0.360	-0.150
2020/01/31 22:01:29.9	96.350	0.060	-0.360	-0.090
2020/01/31 22:01:30.0	96.330	0.020	-0.350	-0.030
2020/01/31 22:01:30.1	96.310	-0.020	-0.340	0.030
2020/01/31 22:01:30.2	96.300	-0.050	-0.330	0.100
2020/01/31 22:01:30.3	96.280	-0.090	-0.310	0.160
2020/01/31 22:01:30.4	96.260	-0.130	-0.300	0.230
2020/01/31 22:01:30.5	96.250	-0.170	-0.280	0.300
2020/01/31 22:01:30.6	96.230	-0.200	-0.270	0.370
2020/01/31 22:01:30.7	96.210	-0.240	-0.250	0.440
2020/01/31 22:01:30.8	96.200	-0.280	-0.230	0.520
2020/01/31 22:01:30.9	96.180	-0.310	-0.210	0.590
2020/01/31 22:01:31.0	96.160	-0.350	-0.200	0.670
2020/01/31 22:01:31.1	96.150	-0.380	-0.170	0.740
2020/01/31 22:01:31.2	96.130	-0.420	-0.150	0.810
2020/01/31 22:01:31.3	96.120	-0.450	-0.130	0.890
2020/01/31 22:01:31.4	96.110	-0.480	-0.110	0.960
2020/01/31 22:01:31.5	96.090	-0.510	-0.090	1.030
2020/01/31 22:01:31.6	96.080	-0.540	-0.070	1.100
2020/01/31 22:01:31.7	96.070	-0.560	-0.040	1.170
2020/01/31 22:01:31.8	96.050	-0.590	-0.020	1.240
2020/01/31 22:01:31.9	96.040	-0.610	0.000	1.310
2020/01/31 22:01:32.0	96.030	-0.630	0.020	1.370
2020/01/31 22:01:32.1	96.020	-0.650	0.040	1.430
2020/01/31 22:01:32.2	96.010	-0.670	0.060	1.490
2020/01/31 22:01:32.3	95.990	-0.680	0.080	1.540
2020/01/31 22:01:32.4	95.980	-0.690	0.100	1.600
2020/01/31 22:01:32.5	95.960	-0.700	0.110	1.650
2020/01/31 22:01:32.6	95.950	-0.710	0.130	1.690
2020/01/31 22:01:32.7	95.930	-0.720	0.140	1.740
2020/01/31 22:01:32.8	95.910	-0.720	0.150	1.770
2020/01/31 22:01:32.9	95.900	-0.720	0.150	1.810
2020/01/31 22:01:33.0	95.880	-0.710	0.160	1.850
2020/01/31 22:01:33.1	95.870	-0.710	0.160	1.870
2020/01/31 22:01:33.2	95.850	-0.700	0.160	1.900
2020/01/31 22:01:33.3	95.830	-0.690	0.150	1.910
2020/01/31 22:01:33.4	95.820	-0.670	0.140	1.930
2020/01/31 22:01:33.5	95.800	-0.650	0.130	1.940
2020/01/31 22:01:33.6	95.780	-0.630	0.110	1.940
2020/01/31 22:01:33.7	95.770	-0.610	0.090	1.940
2020/01/31 22:01:33.8	95.760	-0.580	0.060	1.930
2020/01/31 22:01:33.9	95.750	-0.550	0.030	1.920
2020/01/31 22:01:34.0	95.740	-0.510	-0.000	1.900
2020/01/31 22:01:34.1	95.730	-0.480	-0.040	1.880
2020/01/31 22:01:34.2	95.720	-0.440	-0.070	1.850
2020/01/31 22:01:34.3	95.720	-0.400	-0.120	1.820
2020/01/31 22:01:34.4	95.720	-0.350	-0.160	1.780
2020/01/31 22:01:34.5	95.720	-0.300	-0.200	1.750
2020/01/31 22:01:34.6	95.720	-0.250	-0.250	1.700
2020/01/31 22:01:34.7	95.730	-0.200	-0.300	1.660
2020/01/31 22:01:34.8	95.730	-0.150	-0.350	1.610
2020/01/31 22:01:34.9	95.740	-0.090	-0.400	1.560
2020/01/31 22:01:35.0	95.750	-0.040	-0.450	1.500
2020/01/31 22:01:35.1	95.760	0.020	-0.500	1.450
2020/01/31 22:01:35.2	95.780	0.080	-0.550	1.390
2020/01/31 22:01:35.3	95.790	0.130	-0.600	1.330
2020/01/31 22:01:35.4	95.810	0.190	-0.640	1.280
2020/01/31 22:01:35.5	95.820	0.250	-0.690	1.220
2020/01/31 22:01:35.6	95.840	0.300	-0.730	1.160
2020/01/31 22:01:35.7	95.860	0.360	-0.760	1.100
2020/01/31 22:01:35.8	95.880	0.410	-0.800	1.040
2020/01/31 22:01:35.9	95.890	0.460	-0.830	0.970
2020/01/31 22:01:36.0	95.910	0.510	-0.850	0.910
2020/01/31 22:01:36.1	95.930	0.550	-0.870	0.850
2020/01/31 22:01:36.2	95.950	0.600	-0.890	0.790
2020/01/31 22:01:36.3	95.970	0.640	-0.900	0.720
2020/01/31 22:01:36.4	95.990	0.670	-0.900	0.660
2020/01/31 22:01:36.5	96.010	0.710	-0.910	0.590
2020/01/31 22:01:36.6	96.030	0.740	-0.900	0.530
2020/01/31 22:01:36.7	96.050	0.760	-0.890	0.460
2020/01/31 22:01:36.8	96.070	0.780	-0.870	0.400
2020/01/31 22:01:36.9	96.090	0.800	-0.850	0.330
2020/01/31 22:01:37.0	96.110	0.810	-0.820	0.260
2020/01/31 22:01:37.1	96.120	0.820	-0.790	0.200
2020/01/31 22:01:37.2	96.140	0.820	-0.750	0.130
2020/01/31 22:01:37.3	96.150	0.820	-0.710	0.060
2020/01/31 22:01:37.4	96.170	0.820	-0.660	-0.000
2020/01/31 22:01:37.5	96.180	0.810	-0.610	-0.070
2020/01/31 22:01:37.6	96.200	0.790	-0.550	-0.130
2020/01/31 22:01:37.7	96.210	0.780	-0.490	-0.190
2020/01/31 22:01:37.8	96.220	0.750	-0.430	-0.250
2020/01/31 22:01:37.9	96.230	0.730	-0.360	-0.310
2020/01/31 22:01:38.0	96.220	0.700	-0.290	-0.370
2020/01/31 22:01:38.1	96.230	0.670	-0.220	-0.430
2020/01/31 22:01:38.2	96.230	0.630	-0.140	-0.480
2020/01/31 22:01:38.3	96.240	0.600	-0.070	-0.530
2020/01/31 22:01:38.4	96.240	0.560	0.010	-0.570
2020/01/31 22:01:38.5	96.240	0.520	0.080	-0.610
2020/01/31 22:01:38.6	96.240	0.470	0.160	-0.650
2020/01/31 22:01:38.7	96.240	0.430	0.230	-0.680
2020/01/31 22:01:38.8	96.230	0.380	0.300	-0.710
2020/01/31 22:01:38.9	96.230	0.330	0.370	-0.740
2020/01/31 22:01:39.0	96.220	0.290	0.430	-0.760
2020/01/31 22:01:39.1	96.220	0.240	0.490	-0.770
2020/01/31 22:01:39.2	96.210	0.190	0.550	-0.780
2020/01/31 22:01:39.3	96.200	0.150	0.610	-0.790
2020/01/31 22:01:39.4	96.180	0.100	0.660	-0.790
2020/01/31 22:01:39.5	96.170	0.060	0.700	-0.790
2020/01/31 22:01:39.6	96.150	0.020	0.740	-0.780
2020/01/31 22:01:39.7	96.140	-0.030	0.770	-0.770
2020/01/31 22:01:39.8	96.120	-0.060	0.800	-0.750
2020/01/31 22:01:39.9	96.100	-0.100	0.810	-0.720
2020/01/31 22:01:40.0	96.070	-0.130	0.830	-0.700
2020/01/31 22:01:40.1	96.050	-0.170	0.830	-0.670
2020/01/31 22:01:40.2	96.030	-0.200	0.830	-0.630
2020/01/31 22:01:40.3	96.010	-0.220	0.820	-0.590
2020/01/31 22:01:40.4	95.980	-0.240	0.800	-0.550
2020/01/31 22:01:40.5	95.960	-0.260	0.770	-0.500
2020/01/31 22:01:40.6	95.930	-0.280	0.740	-0.450
2020/01/31 22:01:40.7	95.910	-0.290	0.700	-0.400
2020/01/31 22:01:40.8	95.880	-0.300	0.650	-0.340
2020/01/31 22:01:40.9	95.860	-0.310	0.600	-0.290
2020/01/31 22:01:41.0	95.830	-0.310	0.530	-0.230
2020/01/31 22:01:41.1	95.810	-0.310	0.470	-0.180
2020/01/31 22:01:41.2	95.790	-0.310	0.390	-0.120
2020/01/31 22:01:41.3	95.770	-0.310	0.320	-0.060
2020/01/31 22:01:41.4	95.750	-0.300	0.230	-0.010
2020/01/31 22:01:41.5	95.730	-0.290	0.150	0.050
2020/01/31 22:01:41.6	95.710	-0.270	0.060	0.110
2020/01/31 22:01:41.7	95.690	-0.260	-0.030	0.160
2020/01/31 22:01:41.8	95.680	-0.240	-0.120	0.220
2020/01/31 22:01:41.9	95.660	-0.220	-0.220	0.270
2020/01/31 22:01:42.0	95.650	-0.200	-0.310	0.320
2020/01/31 22:01:42.1	95.630	-0.180	-0.400	0.380
2020/01/31 22:01:42.2	95.620	-0.160	-0.490	0.430
2020/01/31 22:01:42.3	95.610	-0.130	-0.580	0.480
2020/01/31 22:01:42.4	95.600	-0.110	-0.660	0.530
2020/01/31 22:01:42.5	95.590	-0.080	-0.740	0.580
2020/01/31 22:01:42.6	95.580	-0.060	-0.820	0.630
2020/01/31 22:01:42.7	95.570	-0.030	-0.880	0.680
2020/01/31 22:01:42.8	95.560	-0.010	-0.950	0.730
2020/01/31 22:01:42.9	95.560	0.010	-1.000	0.780
2020/01/31 22:01:43.0	95.560	0.040	-1.050	0.820
2020/01/31 22:01:43.1	95.550	0.060	-1.090	0.870
2020/01/31 22:01:43.2	95.550	0.080	-1.120	0.910
2020/01/31 22:01:43.3	95.540	0.100	-1.150	0.960
2020/01/31 22:01:43.4	95.540	0.110	-1.160	1.000
2020/01/31 22:01:43.5	95.540	0.130	-1.170	1.040
2020/01/31 22:01:43.6	95.530	0.140	-1.160	1.080
2020/01/31 22:01:43.7	95.530	0.150	-1.150	1.120
2020/01/31 22:01:43.8	95.530	0.160	-1.130	1.150
2020/01/31 22:01:43.9	95.530	0.170	-1.100	1.190
2020/01/31 22:01:44.0	95.530	0.170	-1.050	1.220
2020/01/31 22:01:44.1	95.540	0.170	-1.010	1.260
2020/01/31 22:01:44.2	95.540	0.170	-0.960	1.290
2020/01/31 22:01:44.3	95.550	0.160	-0.900	1.320
2020/01/31 22:01:44.4	95.550	0.150	-0.830	1.350
2020/01/31 22:01:44.5	95.560	0.140	-0.760	1.370
2020/01/31 22:01:44.6	95.570	0.130	-0.680	1.400
2020/01/31 22:01:44.7	95.580	0.120	-0.610	1.420
2020/01/31 22:01:44.8	95.590	0.100	-0.520	1.440
2020/01/31 22:01:44.9	95.600	0.080	-0.440	1.460
2020/01/31 22:01:45.0	95.620	0.060	-0.360	1.480
2020/01/31 22:01:45.1	95.630	0.040	-0.270	1.490
2020/01/31 22:01:45.2	95.650	0.020	-0.190	1.510
2020/01/31 22:01:45.3	95.670	-0.000	-0.110	1.520
2020/01/31 22:01:45.4	95.690	-0.030	-0.030	1.520
2020/01/31 22:01:45.5	95.710	-0.050	0.050	1.530
2020/01/31 22:01:45.6	95.730	-0.080	0.130	1.530
2020/01/31 22:01:45.7	95.750	-0.100	0.200	1.530
2020/01/31 22:01:45.8	95.770	-0.120	0.260	1.530
2020/01/31 22:01:45.9	95.800	-0.150	0.320	1.520
2020/01/31 22:01:46.0	95.820	-0.170	0.380	1.510
2020/01/31 22:01:46.1	95.850	-0.190	0.420	1.510
2020/01/31 22:01:46.2	95.880	-0.220	0.470	1.490
2020/01/31 22:01:46.3	95.910	-0.240	0.500	1.480
2020/01/31 22:01:46.4	95.940	-0.250	0.530	1.460
2020/01/31 22:01:46.5	95.970	-0.270	0.550	1.450
2020/01/31 22:01:46.6	95.990	-0.290	0.560	1.430
2020/01/31 22:01:46.7	96.020	-0.300	0.570	1.400
2020/01/31 22:01:46.8	96.050	-0.310	0.570	1.380
2020/01/31 22:01:46.9	96.080	-0.320	0.570	1.360
2020/01/31 22:01:47.0	96.110	-0.320	0.550	1.330
2020/01/31 22:01:47.1	96.140	-0.330	0.540	1.300
2020/01/31 22:01:47.2	96.160	-0.330	0.510	1.270
2020/01/31 22:01:47.3	96.180	-0.330	0.480	1.240
2020/01/31 22:01:47.4	96.200	-0.330	0.450	1.210
2020/01/31 22:01:47.5	96.220	-0.320	0.410	1.170
2020/01/31 22:01:47.6	96.240	-0.310	0.370	1.140
2020/01/31 22:01:47.7	96.260	-0.300	0.320	1.110
2020/01/31 22:01:47.8	96.270	-0.290	0.280	1.070
2020/01/31 22:01:47.9	96.280	-0.280	0.230	1.040
2020/01/31 22:01:48.0	96.290	-0.260	0.170	1.000
2020/01/31 22:01:48.1	96.290	-0.250	0.120	0.970
2020/01/31 22:01:48.2	96.300	-0.230	0.070	0.940
2020/01/31 22:01:48.3	96.300	-0.210	0.020	0.910
2020/01/31 22:01:48.4	96.300	-0.190	-0.040	0.880
2020/01/31 22:01:48.5	96.290	-0.170	-0.090	0.850
2020/01/31 22:01:48.6	96.290	-0.150	-0.140	0.820
2020/01/31 22:01:48.7	96.280	-0.120	-0.190	0.800
2020/01/31 22:01:48.8	96.270	-0.100	-0.230	0.770
2020/01/31 22:01:48.9	96.250	-0.080	-0.270	0.750
2020/01/31 22:01:49.0	96.240	-0.060	-0.320	0.730
2020/01/31 22:01:49.1	96.220	-0.030	-0.350	0.720
2020/01/31 22:01:49.2	96.200	-0.010	-0.390	0.700
2020/01/31 22:01:49.3	96.180	0.010	-0.420	0.680
2020/01/31 22:01:49.4	96.150	0.030	-0.450	0.670
2020/01/31 22:01:49.5	96.130	0.050	-0.480	0.660
2020/01/31 22:01:49.6	96.100	0.070	-0.500	0.650
2020/01/31 22:01:49.7	96.070	0.090	-0.520	0.640
2020/01/31 22:01:49.8	96.040	0.110	-0.530	0.640
2020/01/31 22:01:49.9	96.010	0.120	-0.550	0.630
2020/01/31 22:01:50.0	95.980	0.130	-0.550	0.620
2020/01/31 22:01:50.1	95.950	0.150	-0.560	0.620
2020/01/31 22:01:50.2	95.920	0.160	-0.570	0.620
2020/01/31 22:01:50.3	95.890	0.170	-0.570	0.610
2020/01/31 22:01:50.4	95.860	0.180	-0.570	0.610
2020/01/31 22:01:50.5	95.830	0.180	-0.580	0.610
2020/01/31 22:01:50.6	95.810	0.190	-0.580	0.610
2020/01/31 22:01:50.7	95.790	0.190	-0.570	0.600
2020/01/31 22:01:50.8	95.760	0.190	-0.570	0.600
2020/01/31 22:01:50.9	95.740	0.200	-0.570	0.590
2020/01/31 22:01:51.0	95.730	0.200	-0.570	0.580
2020/01/31 22:01:51.1	95.710	0.200	-0.560	0.570
2020/01/31 22:01:51.2	95.700	0.190	-0.560	0.560
2020/01/31 22:01:51.3	95.690	0.190	-0.550	0.550
2020/01/31 22:01:51.4	95.680	0.190	-0.550	0.530
2020/01/31 22:01:51.5	95.670	0.190	-0.540	0.520
2020/01/31 22:01:51.6	95.660	0.180	-0.540	0.500
2020/01/31 22:01:51.7	95.660	0.180	-0.530	0.470
2020/01/31 22:01:51.8	95.650	0.170	-0.530	0.450
2020/01/31 22:01:51.9	95.650	0.170	-0.520	0.420
2020/01/31 22:01:52.0	95.650	0.160	-0.510	0.390
2020/01/31 22:01:52.1	95.650	0.160	-0.500	0.360
2020/01/31 22:01:52.2	95.650	0.150	-0.490	0.330
2020/01/31 22:01:52.3	95.650	0.150	-0.480	0.300
2020/01/31 22:01:52.4	95.650	0.140	-0.470	0.270
2020/01/31 22:01:52.5	95.650	0.140	-0.460	0.240
2020/01/31 22:01:52.6	95.650	0.130	-0.450	0.200
2020/01/31 22:01:52.7	95.650	0.130	-0.430	0.170
2020/01/31 22:01:52.8	95.650	0.120	-0.420	0.130
2020/01/31 22:01:52.9	95.650	0.120	-0.400	0.100
2020/01/31 22:01:53.0	95.640	0.120	-0.390	0.070
2020/01/31 22:01:53.1	95.640	0.110	-0.370	0.030
2020/01/31 22:01:53.2	95.640	0.110	-0.350	0.000
2020/01/31 22:01:53.3	95.640	0.110	-0.330	-0.030
2020/01/31 22:01:53.4	95.640	0.110	-0.310	-0.060
2020/01/31 22:01:53.5	95.640	0.110	-0.290	-0.090
2020/01/31 22:01:53.6	95.640	0.100	-0.260	-0.120
2020/01/31 22:01:53.7	95.650	0.100	-0.230	-0.140
2020/01/31 22:01:53.8	95.650	0.100	-0.210	-0.170
2020/01/31 22:01:53.9	95.650	0.100	-0.180	-0.190
2020/01/31 22:01:54.0	95.650	0.100	-0.140	-0.220
2020/01/31 22:01:54.1	95.650	0.100	-0.110	-0.240
2020/01/31 22:01:54.2	95.660	0.100	-0.080	-0.260
2020/01/31 22:01:54.3	95.670	0.090	-0.050	-0.280
2020/01/31 22:01:54.4	95.680	0.090	-0.020	-0.300
2020/01/31 22:01:54.5	95.700	0.090	0.020	-0.310
2020/01/31 22:01:54.6	95.710	0.090	0.050	-0.330
2020/01/31 22:01:54.7	95.720	0.080	0.080	-0.340
2020/01/31 22:01:54.8	95.740	0.080	0.120	-0.350
2020/01/31 22:01:54.9	95.760	0.080	0.150	-0.360
2020/01/31 22:01:55.0	95.770	0.070	0.180	-0.370
2020/01/31 22:01:55.1	95.790	0.070	0.210	-0.370
2020/01/31 22:01:55.2	95.810	0.070	0.240	-0.370
2020/01/31 22:01:55.3	95.830	0.060	0.270	-0.370
2020/01/31 22:01:55.4	95.850	0.060	0.290	-0.370
2020/01/31 22:01:55.5	95.870	0.050	0.320	-0.360
2020/01/31 22:01:55.6	95.900	0.050	0.340	-0.360
2020/01/31 22:01:55.7	95.920	0.040	0.350	-0.350
2020/01/31 22:01:55.8	95.950	0.040	0.370	-0.330
2020/01/31 22:01:55.9	95.970	0.030	0.380	-0.320
2020/01/31 22:01:56.0	96.000	0.030	0.390	-0.310
2020/01/31 22:01:56.1	96.030	0.020	0.390	-0.290
2020/01/31 22:01:56.2	96.050	0.020	0.390	-0.270
2020/01/31 22:01:56.3	96.080	0.020	0.380	-0.250
2020/01/31 22:01:56.4	96.100	0.020	0.370	-0.230
2020/01/31 22:01:56.5	96.130	0.020	0.350	-0.200
2020/01/31 22:01:56.6	96.150	0.020	0.330	-0.180
2020/01/31 22:01:56.7	96.180	0.020	0.310	-0.150
2020/01/31 22:01:56.8	96.200	0.020	0.280	-0.120
2020/01/31 22:01:56.9	96.220	0.030	0.250	-0.090
2020/01/31 22:01:57.0	96.250	0.030	0.210	-0.060
2020/01/31 22:01:57.1	96.270	0.040	0.180	-0.020
2020/01/31 22:01:57.2	96.290	0.040	0.140	0.010
2020/01/31 22:01:57.3	96.310	0.050	0.090	0.050
2020/01/31 22:01:57.4	96.320	0.060	0.050	0.090
2020/01/31 22:01:57.5	96.340	0.070	0.010	0.140
2020/01/31 22:01:57.6	96.360	0.080	-0.030	0.180
2020/01/31 22:01:57.7	96.370	0.090	-0.080	0.230
2020/01/31 22:01:57.8	96.380	0.100	-0.120	0.280
2020/01/31 22:01:57.9	96.390	0.110	-0.160	0.330
2020/01/31 22:01:58.0	96.400	0.120	-0.200	0.390
2020/01/31 22:01:58.1	96.410	0.120	-0.240	0.440
2020/01/31 22:01:58.2	96.410	0.130	-0.270	0.500
2020/01/31 22:01:58.3	96.410	0.140	-0.310	0.560
2020/01/31 22:01:58.4	96.410	0.150	-0.340	0.620
2020/01/31 22:01:58.5	96.410	0.150	-0.360	0.690
2020/01/31 22:01:58.6	96.410	0.160	-0.390	0.750
2020/01/31 22:01:58.7	96.400	0.160	-0.400	0.820
2020/01/31 22:01:58.8	96.400	0.160	-0.420	0.880
2020/01/31 22:01:58.9	96.390	0.160	-0.430	0.950
2020/01/31 22:01:59.0	96.380	0.150	-0.440	1.020
2020/01/31 22:01:59.1	96.360	0.150	-0.450	1.090
2020/01/31 22:01:59.2	96.350	0.140	-0.450	1.150
2020/01/31 22:01:59.3	96.340	0.140	-0.450	1.220
2020/01/31 22:01:59.4	96.320	0.130	-0.450	1.290
2020/01/31 22:01:59.5	96.300	0.110	-0.450	1.360
2020/01/31 22:01:59.6	96.280	0.100	-0.440	1.430
2020/01/31 22:01:59.7	96.260	0.090	-0.430	1.500
2020/01/31 22:01:59.8	96.240	0.070	-0.420	1.560
2020/01/31 22:01:59.9	96.220	0.050	-0.400	1.630
2020/01/31 22:02:00.0	96.200	0.030	-0.390	1.690
2020/01/31 22:02:00.1	96.180	0.010	-0.380	1.750
2020/01/31 22:02:00.2	96.160	-0.020	-0.360	1.810
2020/01/31 22:02:00.3	96.140	-0.040	-0.340	1.860
2020/01/31 22:02:00.4	96.120	-0.060	-0.320	1.910
2020/01/31 22:02:00.5	96.100	-0.090	-0.310	1.960
2020/01/31 22:02:00.6	96.080	-0.120	-0.290	2.000
2020/01/31 22:02:00.7	96.060	-0.140	-0.270	2.050
2020/01/31 22:02:00.8	96.040	-0.170	-0.260	2.090
2020/01/31 22:02:00.9	96.030	-0.200	-0.240	2.120
2020/01/31 22:02:01.0	96.020	-0.220	-0.230	2.150
2020/01/31 22:02:01.1	96.000	-0.250	-0.220	2.180
2020/01/31 22:02:01.2	95.990	-0.270	-0.200	2.200
2020/01/31 22:02:01.3	95.970	-0.300	-0.200	2.230
2020/01/31 22:02:01.4	95.950	-0.320	-0.190	2.250
2020/01/31 22:02:01.5	95.940	-0.340	-0.180	2.260
2020/01/31 22:02:01.6	95.920	-0.360	-0.180	2.270
2020/01/31 22:02:01.7	95.910	-0.380	-0.180	2.280
2020/01/31 22:02:01.8	95.900	-0.390	-0.180	2.290
2020/01/31 22:02:01.9	95.890	-0.410	-0.180	2.290
2020/01/31 22:02:02.0	95.880	-0.420	-0.190	2.280
2020/01/31 22:02:02.1	95.870	-0.430	-0.200	2.280
2020/01/31 22:02:02.2	95.860	-0.440	-0.200	2.270
2020/01/31 22:02:02.3	95.860	-0.440	-0.210	2.250
2020/01/31 22:02:02.4	95.850	-0.440	-0.220	2.230
2020/01/31 22:02:02.5	95.850	-0.440	-0.230	2.200
2020/01/31 22:02:02.6	95.840	-0.430	-0.250	2.170
2020/01/31 22:02:02.7	95.840	-0.430	-0.260	2.140
2020/01/31 22:02:02.8	95.840	-0.420	-0.270	2.100
2020/01/31 22:02:02.9	95.850	-0.400	-0.290	2.050
2020/01/31 22:02:03.0	95.860	-0.390	-0.300	2.000
2020/01/31 22:02:03.1	95.870	-0.370	-0.320	1.950
2020/01/31 22:02:03.2	95.870	-0.350	-0.330	1.890
2020/01/31 22:02:03.3	95.880	-0.320	-0.340	1.830
2020/01/31 22:02:03.4	95.900	-0.300	-0.360	1.760
2020/01/31 22:02:03.5	95.910	-0.270	-0.370	1.690
2020/01/31 22:02:03.6	95.930	-0.240	-0.380	1.620
2020/01/31 22:02:03.7	95.940	-0.210	-0.390	1.540
2020/01/31 22:02:03.8	95.960	-0.180	-0.400	1.460
2020/01/31 22:02:03.9	95.980	-0.140	-0.400	1.380
2020/01/31 22:02:04.0	96.000	-0.110	-0.410	1.290
2020/01/31 22:02:04.1	96.020	-0.070	-0.410	1.210
2020/01/31 22:02:04.2	96.040	-0.040	-0.410	1.120
2020/01/31 22:02:04.3	96.060	-0.000	-0.410	1.030
2020/01/31 22:02:04.4	96.090	0.030	-0.410	0.940
2020/01/31 22:02:04.5	96.110	0.060	-0.400	0.850
2020/01/31 22:02:04.6	96.130	0.100	-0.400	0.760
2020/01/31 22:02:04.7	96.160	0.130	-0.390	0.670
2020/01/31 22:02:04.8	96.180	0.160	-0.370	0.580
2020/01/31 22:02:04.9	96.200	0.190	-0.360	0.490
2020/01/31 22:02:05.0	96.220	0.210	-0.340	0.400
2020/01/31 22:02:05.1	96.240	0.240	-0.320	0.310
2020/01/31 22:02:05.2	96.260	0.260	-0.300	0.220
2020/01/31 22:02:05.3	96.280	0.280	-0.280	0.140
2020/01/31 22:02:05.4	96.300	0.300	-0.260	0.050
2020/01/31 22:02:05.5	96.320	0.310	-0.240	-0.040
2020/01/31 22:02:05.6	96.330	0.320	-0.210	-0.120
2020/01/31 22:02:05.7	96.350	0.330	-0.190	-0.200
2020/01/31 22:02:05.8	96.360	0.340	-0.170	-0.280
2020/01/31 22:02:05.9	96.370	0.350	-0.140	-0.360
2020/01/31 22:02:06.0	96.380	0.350	-0.120	-0.440
2020/01/31 22:02:06.1	96.390	0.350	-0.090	-0.510
2020/01/31 22:02:06.2	96.390	0.350	-0.070	-0.580
2020/01/31 22:02:06.3	96.400	0.340	-0.040	-0.640
2020/01/31 22:02:06.4	96.400	0.330	-0.020	-0.710
2020/01/31 22:02:06.5	96.400	0.330	0.000	-0.760
2020/01/31 22:02:06.6	96.400	0.320	0.030	-0.820
2020/01/31 22:02:06.7	96.400	0.300	0.050	-0.870
2020/01/31 22:02:06.8	96.390	0.290	0.070	-0.910
2020/01/31 22:02:06.9	96.390	0.270	0.100	-0.950
2020/01/31 22:02:07.0	96.370	0.260	0.120	-0.990
2020/01/31 22:02:07.1	96.350	0.240	0.140	-1.010
2020/01/31 22:02:07.2	96.340	0.220	0.160	-1.040
2020/01/31 22:02:07.3	96.330	0.210	0.180	-1.050
2020/01/31 22:02:07.4	96.310	0.190	0.190	-1.070
2020/01/31 22:02:07.5	96.290	0.170	0.210	-1.070
2020/01/31 22:02:07.6	96.270	0.150	0.220	-1.070
2020/01/31 22:02:07.7	96.240	0.130	0.230	-1.070
2020/01/31 22:02:07.8	96.220	0.110	0.240	-1.060
2020/01/31 22:02:07.9	96.190	0.100	0.250	-1.050
2020/01/31 22:02:08.0	96.170	0.080	0.250	-1.030
2020/01/31 22:02:08.1	96.140	0.060	0.260	-1.010
2020/01/31 22:02:08.2	96.110	0.050	0.260	-0.980
2020/01/31 22:02:08.3	96.080	0.030	0.250	-0.950
2020/01/31 22:02:08.4	96.050	0.020	0.250	-0.920
2020/01/31 22:02:08.5	96.020	0.010	0.240	-0.880
2020/01/31 22:02:08.6	95.990	-0.000	0.230	-0.840
2020/01/31 22:02:08.7	95.960	-0.010	0.210	-0.800
2020/01/31 22:02:08.8	95.930	-0.020	0.190	-0.760
2020/01/31 22:02:08.9	95.910	-0.030	0.170	-0.720
2020/01/31 22:02:09.0	95.870	-0.030	0.150	-0.680
2020/01/31 22:02:09.1	95.840	-0.030	0.120	-0.640
2020/01/31 22:02:09.2	95.820	-0.040	0.090	-0.590
2020/01/31 22:02:09.3	95.790	-0.040	0.060	-0.550
2020/01/31 22:02:09.4	95.770	-0.040	0.020	-0.510
2020/01/31 22:02:09.5	95.750	-0.040	-0.020	-0.470
2020/01/31 22:02:09.6	95.740	-0.030	-0.060	-0.430
2020/01/31 22:02:09.7	95.720	-0.030	-0.100	-0.390
2020/01/31 22:02:09.8	95.710	-0.020	-0.150	-0.350
2020/01/31 22:02:09.9	95.700	-0.020	-0.190	-0.310
2020/01/31 22:02:10.0	95.690	-0.010	-0.240	-0.280
2020/01/31 22:02:10.1	95.690	-0.000	-0.290	-0.240
2020/01/31 22:02:10.2	95.690	0.010	-0.340	-0.210
2020/01/31 22:02:10.3	95.690	0.010	-0.390	-0.180
2020/01/31 22:02:10.4	95.690	0.020	-0.440	-0.140
2020/01/31 22:02:10.5	95.700	0.030	-0.490	-0.110
2020/01/31 22:02:10.6	95.710	0.050	-0.530	-0.070
2020/01/31 22:02:10.7	95.720	0.060	-0.580	-0.040
2020/01/31 22:02:10.8	95.740	0.070	-0.620	-0.010
2020/01/31 22:02:10.9	95.750	0.080	-0.670	0.030
2020/01/31 22:02:11.0	95.770	0.090	-0.710	0.070
2020/01/31 22:02:11.1	95.790	0.100	-0.750	0.110
2020/01/31 22:02:11.2	95.810	0.110	-0.780	0.140
2020/01/31 22:02:11.3	95.830	0.110	-0.810	0.180
2020/01/31 22:02:11.4	95.850	0.120	-0.830	0.230
2020/01/31 22:02:11.5	95.870	0.130	-0.850	0.270
2020/01/31 22:02:11.6	95.900	0.130	-0.870	0.320
2020/01/31 22:02:11.7	95.920	0.140	-0.880	0.360
2020/01/31 22:02:11.8	95.940	0.140	-0.890	0.410
2020/01/31 22:02:11.9	95.960	0.140	-0.890	0.460
2020/01/31 22:02:12.0	95.990	0.140	-0.880	0.510
2020/01/31 22:02:12.1	96.010	0.140	-0.870	0.560
2020/01/31 22:02:12.2	96.030	0.140	-0.860	0.620
2020/01/31 22:02:12.3	96.050	0.130	-0.840	0.670
2020/01/31 22:02:12.4	96.070	0.130	-0.810	0.730
2020/01/31 22:02:12.5	96.090	0.120	-0.780	0.780
2020/01/31 22:02:12.6	96.110	0.110	-0.750	0.840
2020/01/31 22:02:12.7	96.130	0.100	-0.710	0.900
2020/01/31 22:02:12.8	96.150	0.090	-0.660	0.960
2020/01/31 22:02:12.9	96.170	0.070	-0.610	1.020
2020/01/31 22:02:13.0	96.180	0.060	-0.570	1.080
2020/01/31 22:02:13.1	96.200	0.040	-0.510	1.150
2020/01/31 22:02:13.2	96.210	0.020	-0.450	1.210
2020/01/31 22:02:13.3	96.230	0.000	-0.390	1.270
2020/01/31 22:02:13.4	96.240	-0.020	-0.330	1.330
2020/01/31 22:02:13.5	96.250	-0.040	-0.260	1.400
2020/01/31 22:02:13.6	96.250	-0.060	-0.190	1.460
2020/01/31 22:02:13.7	96.260	-0.080	-0.130	1.520
2020/01/31 22:02:13.8	96.270	-0.100	-0.060	1.580
2020/01/31 22:02:13.9	96.270	-0.130	0.010	1.640
2020/01/31 22:02:14.0	96.280	-0.150	0.090	1.700
2020/01/31 22:02:14.1	96.280	-0.170	0.160	1.760
2020/01/31 22:02:14.2	96.280	-0.190	0.220	1.820
2020/01/31 22:02:14.3	96.280	-0.220	0.290	1.880
2020/01/31 22:02:14.4	96.270	-0.240	0.360	1.930
2020/01/31 22:02:14.5	96.270	-0.260	0.420	1.990
2020/01/31 22:02:14.6	96.260	-0.280	0.480	2.040
2020/01/31 22:02:14.7	96.250	-0.300	0.540	2.090
2020/01/31 22:02:14.8	96.230	-0.320	0.590	2.140
2020/01/31 22:02:14.9	96.220	-0.330	0.640	2.180
2020/01/31 22:02:15.0	96.220	-0.350	0.690	2.230
2020/01/31 22:02:15.1	96.200	-0.360	0.730	2.270
2020/01/31 22:02:15.2	96.180	-0.380	0.770	2.310
2020/01/31 22:02:15.3	96.160	-0.390	0.800	2.340
2020/01/31 22:02:15.4	96.130	-0.400	0.830	2.370
2020/01/31 22:02:15.5	96.110	-0.410	0.850	2.400
2020/01/31 22:02:15.6	96.080	-0.420	0.870	2.430
2020/01/31 22:02:15.7	96.050	-0.420	0.870	2.460
2020/01/31 22:02:15.8	96.020	-0.430	0.880	2.480
2020/01/31 22:02:15.9	95.990	-0.430	0.870	2.500
2020/01/31 22:02:16.0	95.970	-0.430	0.860	2.510
2020/01/31 22:02:16.1	95.930	-0.430	0.840	2.520
2020/01/31 22:02:16.2	95.900	-0.430	0.820	2.530
2020/01/31 22:02:16.3	95.860	-0.430	0.780	2.540
2020/01/31 22:02:16.4	95.820	-0.420	0.750	2.540
2020/01/31 22:02:16.5	95.780	-0.410	0.700	2.540
2020/01/31 22:02:16.6	95.730	-0.410	0.650	2.540
2020/01/31 22:02:16.7	95.690	-0.400	0.600	2.530
2020/01/31 22:02:16.8	95.650	-0.380	0.530	2.520
2020/01/31 22:02:16.9	95.610	-0.370	0.470	2.500
2020/01/31 22:02:17.0	95.570	-0.360	0.390	2.480
2020/01/31 22:02:17.1	95.520	-0.340	0.320	2.450
2020/01/31 22:02:17.2	95.480	-0.320	0.230	2.420
2020/01/31 22:02:17.3	95.450	-0.300	0.150	2.390
2020/01/31 22:02:17.4	95.410	-0.280	0.060	2.360
2020/01/31 22:02:17.5	95.370	-0.260	-0.030	2.310
2020/01/31 22:02:17.6	95.340	-0.240	-0.120	2.270
2020/01/31 22:02:17.7	95.310	-0.210	-0.220	2.220
2020/01/31 22:02:17.8	95.290	-0.190	-0.320	2.160
2020/01/31 22:02:17.9	95.260	-0.160	-0.410	2.100
2020/01/31 22:02:18.0	95.240	-0.140	-0.510	2.030
2020/01/31 22:02:18.1	95.230	-0.110	-0.610	1.960
2020/01/31 22:02:18.2	95.210	-0.080	-0.700	1.880
2020/01/31 22:02:18.3	95.210	-0.050	-0.800	1.800
2020/01/31 22:02:18.4	95.200	-0.020	-0.890	1.720
2020/01/31 22:02:18.5	95.200	0.010	-0.980	1.630
2020/01/31 22:02:18.6	95.210	0.040	-1.060	1.530
2020/01/31 22:02:18.7	95.220	0.070	-1.140	1.430
2020/01/31 22:02:18.8	95.230	0.100	-1.220	1.330
2020/01/31 22:02:18.9	95.240	0.130	-1.290	1.220
2020/01/31 22:02:19.0	95.250	0.160	-1.350	1.110
2020/01/31 22:02:19.1	95.270	0.200	-1.410	1.000
2020/01/31 22:02:19.2	95.300	0.230	-1.470	0.880
2020/01/31 22:02:19.3	95.320	0.260	-1.510	0.760
2020/01/31 22:02:19.4	95.350	0.290	-1.550	0.650
2020/01/31 22:02:19.5	95.380	0.320	-1.580	0.530
2020/01/31 22:02:19.6	95.410	0.340	-1.600	0.410
2020/01/31 22:02:19.7	95.440	0.370	-1.620	0.290
2020/01/31 22:02:19.8	95.470	0.400	-1.620	0.170
2020/01/31 22:02:19.9	95.500	0.420	-1.620	0.060
2020/01/31 22:02:20.0	95.520	0.450	-1.600	-0.060
2020/01/31 22:02:20.1	95.550	0.470	-1.580	-0.170
2020/01/31 22:02:20.2	95.580	0.490	-1.550	-0.270
2020/01/31 22:02:20.3	95.610	0.510	-1.510	-0.370
2020/01/31 22:02:20.4	95.630	0.520	-1.460	-0.470
2020/01/31 22:02:20.5	95.650	0.540	-1.400	-0.560
2020/01/31 22:02:20.6	95.680	0.550	-1.340	-0.650
2020/01/31 22:02:20.7	95.700	0.560	-1.260	-0.730
2020/01/31 22:02:20.8	95.710	0.560	-1.180	-0.800
2020/01/31 22:02:20.9	95.730	0.570	-1.090	-0.870
2020/01/31 22:02:21.0	95.740	0.570	-0.990	-0.930
2020/01/31 22:02:21.1	95.750	0.570	-0.890	-0.980
2020/01/31 22:02:21.2	95.760	0.560	-0.780	-1.030
2020/01/31 22:02:21.3	95.770	0.560	-0.670	-1.070
2020/01/31 22:02:21.4	95.780	0.550	-0.560	-1.110
2020/01/31 22:02:21.5	95.780	0.530	-0.440	-1.130
2020/01/31 22:02:21.6	95.790	0.520	-0.320	-1.150
2020/01/31 22:02:21.7	95.790	0.500	-0.200	-1.170
2020/01/31 22:02:21.8	95.790	0.480	-0.080	-1.170
2020/01/31 22:02:21.9	95.780	0.460	0.040	-1.170
2020/01/31 22:02:22.0	95.790	0.430	0.160	-1.160
2020/01/31 22:02:22.1	95.780	0.410	0.270	-1.150
2020/01/31 22:02:22.2	95.780	0.380	0.380	-1.120
2020/01/31 22:02:22.3	95.770	0.350	0.490	-1.100
2020/01/31 22:02:22.4	95.760	0.320	0.590	-1.070
2020/01/31 22:02:22.5	95.750	0.290	0.690	-1.030
2020/01/31 22:02:22.6	95.740	0.260	0.780	-0.980
2020/01/31 22:02:22.7	95.720	0.220	0.860	-0.930
2020/01/31 22:02:22.8	95.710	0.190	0.940	-0.880
2020/01/31 22:02:22.9	95.700	0.160	1.000	-0.820
2020/01/31 22:02:23.0	95.690	0.130	1.070	-0.770
2020/01/31 22:02:23.1	95.680	0.090	1.120	-0.700
2020/01/31 22:02:23.2	95.660	0.060	1.160	-0.640
2020/01/31 22:02:23.3	95.650	0.030	1.190	-0.570
2020/01/31 22:02:23.4	95.630	0.000	1.210	-0.500
2020/01/31 22:02:23.5	95.620	-0.030	1.220	-0.430
2020/01/31 22:02:23.6	95.600	-0.060	1.230	-0.360
2020/01/31 22:02:23.7	95.590	-0.080	1.220	-0.290
2020/01/31 22:02:23.8	95.580	-0.110	1.210	-0.220
2020/01/31 22:02:23.9	95.560	-0.130	1.180	-0.150
2020/01/31 22:02:24.0	95.560	-0.150	1.150	-0.080
2020/01/31 22:02:24.1	95.540	-0.170	1.110	-0.010
2020/01/31 22:02:24.2	95.530	-0.190	1.060	0.060
2020/01/31 22:02:24.3	95.520	-0.210	1.010	0.130
2020/01/31 22:02:24.4	95.510	-0.220	0.950	0.190
2020/01/31 22:02:24.5	95.500	-0.230	0.880	0.260
2020/01/31 22:02:24.6	95.490	-0.250	0.810	0.320
2020/01/31 22:02:24.7	95.480	-0.260	0.740	0.380
2020/01/31 22:02:24.8	95.480	-0.270	0.660	0.440
2020/01/31 22:02:24.9	95.470	-0.270	0.580	0.500
2020/01/31 22:02:25.0	95.470	-0.280	0.490	0.560
2020/01/31 22:02:25.1	95.460	-0.280	0.410	0.620
2020/01/31 22:02:25.2	95.450	-0.290	0.320	0.680
2020/01/31 22:02:25.3	95.450	-0.290	0.230	0.730
2020/01/31 22:02:25.4	95.440	-0.290	0.150	0.790
2020/01/31 22:02:25.5	95.440	-0.300	0.060	0.850
2020/01/31 22:02:25.6	95.430	-0.300	-0.020	0.900
2020/01/31 22:02:25.7	95.430	-0.300	-0.100	0.960
2020/01/31 22:02:25.8	95.420	-0.290	-0.180	1.020
2020/01/31 22:02:25.9	95.420	-0.290	-0.260	1.080
2020/01/31 22:02:26.0	95.400	-0.290	-0.330	1.130
2020/01/31 22:02:26.1	95.400	-0.290	-0.400	1.190
2020/01/31 22:02:26.2	95.390	-0.290	-0.470	1.250
2020/01/31 22:02:26.3	95.380	-0.280	-0.530	1.300
2020/01/31 22:02:26.4	95.380	-0.280	-0.580	1.360
2020/01/31 22:02:26.5	95.370	-0.270	-0.640	1.410
2020/01/31 22:02:26.6	95.360	-0.270	-0.690	1.470
2020/01/31 22:02:26.7	95.360	-0.270	-0.730	1.520
2020/01/31 22:02:26.8	95.350	-0.260	-0.770	1.570
2020/01/31 22:02:26.9	95.350	-0.260	-0.800	1.620
2020/01/31 22:02:27.0	95.340	-0.250	-0.830	1.670
2020/01/31 22:02:27.1	95.340	-0.240	-0.860	1.710
2020/01/31 22:02:27.2	95.340	-0.240	-0.880	1.760
2020/01/31 22:02:27.3	95.340	-0.230	-0.900	1.790
2020/01/31 22:02:27.4	95.330	-0.220	-0.920	1.830
2020/01/31 22:02:27.5	95.330	-0.210	-0.930	1.860
2020/01/31 22:02:27.6	95.340	-0.210	-0.940	1.890
2020/01/31 22:02:27.7	95.340	-0.200	-0.950	1.910
2020/01/31 22:02:27.8	95.350	-0.190	-0.960	1.930
2020/01/31 22:02:27.9	95.350	-0.180	-0.960	1.950
2020/01/31 22:02:28.0	95.360	-0.170	-0.970	1.960
2020/01/31 22:02:28.1	95.370	-0.150	-0.970	1.960
2020/01/31 22:02:28.2	95.390	-0.140	-0.970	1.960
2020/01/31 22:02:28.3	95.400	-0.130	-0.960	1.960
2020/01/31 22:02:28.4	95.420	-0.120	-0.960	1.950
2020/01/31 22:02:28.5	95.440	-0.100	-0.950	1.940
2020/01/31 22:02:28.6	95.460	-0.090	-0.940	1.920
2020/01/31 22:02:28.7	95.480	-0.070	-0.930	1.900
2020/01/31 22:02:28.8	95.500	-0.050	-0.920	1.880
2020/01/31 22:02:28.9	95.520	-0.040	-0.900	1.850
2020/01/31 22:02:29.0	95.540	-0.020	-0.890	1.820
2020/01/31 22:02:29.1	95.570	-0.000	-0.870	1.790
2020/01/31 22:02:29.2	95.600	0.010	-0.850	1.750
2020/01/31 22:02:29.3	95.620	0.030	-0.820	1.710
2020/01/31 22:02:29.4	95.650	0.050	-0.800	1.670
2020/01/31 22:02:29.5	95.670	0.070	-0.770	1.630
2020/01/31 22:02:29.6	95.700	0.080	-0.740	1.590
2020/01/31 22:02:29.7	95.720	0.100	-0.710	1.550
2020/01/31 22:02:29.8	95.740	0.120	-0.670	1.510
2020/01/31 22:02:29.9	95.760	0.130	-0.640	1.460
2020/01/31 22:02:30.0	95.780	0.150	-0.600	1.420
2020/01/31 22:02:30.1	95.800	0.160	-0.550	1.380
2020/01/31 22:02:30.2	95.820	0.180	-0.510	1.340
2020/01/31 22:02:30.3	95.830	0.190	-0.460	1.300
2020/01/31 22:02:30.4	95.840	0.200	-0.410	1.260
2020/01/31 22:02:30.5	95.850	0.210	-0.360	1.220
2020/01/31 22:02:30.6	95.860	0.220	-0.310	1.180
2020/01/31 22:02:30.7	95.870	0.220	-0.260	1.150
2020/01/31 22:02:30.8	95.870	0.230	-0.200	1.110
2020/01/31 22:02:30.9	95.870	0.230	-0.140	1.080
2020/01/31 22:02:31.0	95.870	0.230	-0.090	1.050
2020/01/31 22:02:31.1	95.860	0.230	-0.030	1.010
2020/01/31 22:02:31.2	95.860	0.230	0.030	0.980
2020/01/31 22:02:31.3	95.850	0.220	0.090	0.950
2020/01/31 22:02:31.4	95.840	0.220	0.150	0.920
2020/01/31 22:02:31.5	95.830	0.210	0.210	0.890
2020/01/31 22:02:31.6	95.820	0.200	0.270	0.860
2020/01/31 22:02:31.7	95.810	0.190	0.330	0.830
2020/01/31 22:02:31.8	95.790	0.170	0.380	0.790
2020/01/31 22:02:31.9	95.780	0.150	0.440	0.760
2020/01/31 22:02:32.0	95.770	0.140	0.490	0.720
2020/01/31 22:02:32.1	95.750	0.120	0.540	0.690
2020/01/31 22:02:32.2	95.740	0.100	0.590	0.650
2020/01/31 22:02:32.3	95.730	0.070	0.630	0.610
2020/01/31 22:02:32.4	95.710	0.050	0.680	0.570
2020/01/31 22:02:32.5	95.700	0.030	0.710	0.520
2020/01/31 22:02:32.6	95.690	0.000	0.740	0.480
2020/01/31 22:02:32.7	95.680	-0.020	0.770	0.430
2020/01/31 22:02:32.8	95.670	-0.050	0.790	0.380
2020/01/31 22:02:32.9	95.660	-0.070	0.800	0.320
2020/01/31 22:02:33.0	95.640	-0.090	0.810	0.270
2020/01/31 22:02:33.1	95.640	-0.120	0.820	0.210
2020/01/31 22:02:33.2	95.640	-0.140	0.810	0.150
2020/01/31 22:02:33.3	95.640	-0.160	0.800	0.080
2020/01/31 22:02:33.4	95.640	-0.180	0.780	0.020
2020/01/31 22:02:33.5	95.640	-0.200	0.760	-0.050
2020/01/31 22:02:33.6	95.640	-0.220	0.730	-0.110
2020/01/31 22:02:33.7	95.650	-0.240	0.690	-0.180
2020/01/31 22:02:33.8	95.660	-0.250	0.650	-0.250
2020/01/31 22:02:33.9	95.660	-0.260	0.600	-0.320
2020/01/31 22:02:34.0	95.670	-0.270	0.540	-0.400
2020/01/31 22:02:34.1	95.690	-0.280	0.480	-0.470
2020/01/31 22:02:34.2	95.700	-0.290	0.410	-0.530
2020/01/31 22:02:34.3	95.720	-0.290	0.340	-0.600
2020/01/31 22:02:34.4	95.730	-0.290	0.270	-0.660
2020/01/31 22:02:34.5	95.750	-0.280	0.190	-0.730
2020/01/31 22:02:34.6	95.770	-0.280	0.100	-0.780
2020/01/31 22:02:34.7	95.790	-0.270	0.020	-0.840
2020/01/31 22:02:34.8	95.810	-0.260	-0.070	-0.890
2020/01/31 22:02:34.9	95.830	-0.240	-0.160	-0.940
2020/01/31 22:02:35.0	95.840	-0.230	-0.250	-0.990
2020/01/31 22:02:35.1	95.860	-0.210	-0.340	-1.030
2020/01/31 22:02:35.2	95.880	-0.190	-0.430	-1.060
2020/01/31 22:02:35.3	95.900	-0.170	-0.520	-1.090
2020/01/31 22:02:35.4	95.910	-0.140	-0.600	-1.110
2020/01/31 22:02:35.5	95.930	-0.120	-0.690	-1.130
2020/01/31 22:02:35.6	95.940	-0.090	-0.770	-1.140
2020/01/31 22:02:35.7	95.960	-0.070	-0.840	-1.150
2020/01/31 22:02:35.8	95.970	-0.040	-0.920	-1.150
2020/01/31 22:02:35.9	95.980	-0.010	-0.980	-1.140
2020/01/31 22:02:36.0	95.990	0.010	-1.050	-1.140
2020/01/31 22:02:36.1	96.000	0.040	-1.110	-1.120
2020/01/31 22:02:36.2	96.000	0.070	-1.160	-1.100
2020/01/31 22:02:36.3	96.010	0.090	-1.200	-1.080
2020/01/31 22:02:36.4	96.010	0.120	-1.230	-1.050
2020/01/31 22:02:36.5	96.020	0.140	-1.260	-1.010
2020/01/31 22:02:36.6	96.020	0.160	-1.280	-0.970
2020/01/31 22:02:36.7	96.020	0.180	-1.300	-0.930
2020/01/31 22:02:36.8	96.020	0.200	-1.300	-0.890
2020/01/31 22:02:36.9	96.010	0.210	-1.300	-0.840
2020/01/31 22:02:37.0	96.000	0.230	-1.290	-0.780
2020/01/31 22:02:37.1	95.990	0.240	-1.270	-0.730
2020/01/31 22:02:37.2	95.980	0.250	-1.240	-0.670
2020/01/31 22:02:37.3	95.970	0.250	-1.210	-0.610
2020/01/31 22:02:37.4	95.960	0.260	-1.170	-0.550
2020/01/31 22:02:37.5	95.950	0.260	-1.120	-0.480
2020/01/31 22:02:37.6	95.930	0.260	-1.070	-0.420
2020/01/31 22:02:37.7	95.920	0.260	-1.010	-0.350
2020/01/31 22:02:37.8	95.900	0.250	-0.950	-0.290
2020/01/31 22:02:37.9	95.890	0.240	-0.880	-0.220
2020/01/31 22:02:38.0	95.870	0.230	-0.800	-0.150
2020/01/31 22:02:38.1	95.860	0.220	-0.720	-0.080
2020/01/31 22:02:38.2	95.840	0.210	-0.640	-0.010
2020/01/31 22:02:38.3	95.820	0.190	-0.560	0.060
2020/01/31 22:02:38.4	95.800	0.180	-0.470	0.130
2020/01/31 22:02:38.5	95.790	0.160	-0.390	0.200
2020/01/31 22:02:38.6	95.770	0.140	-0.300	0.270
2020/01/31 22:02:38.7	95.760	0.120	-0.210	0.340
2020/01/31 22:02:38.8	95.740	0.100	-0.120	0.410
2020/01/31 22:02:38.9	95.730	0.080	-0.040	0.480
2020/01/31 22:02:39.0	95.720	0.060	0.050	0.540
2020/01/31 22:02:39.1	95.710	0.040	0.130	0.610
2020/01/31 22:02:39.2	95.700	0.030	0.210	0.670
2020/01/31 22:02:39.3	95.690	0.010	0.280	0.740
2020/01/31 22:02:39.4	95.690	-0.010	0.350	0.800
2020/01/31 22:02:39.5	95.680	-0.030	0.420	0.850
2020/01/31 22:02:39.6	95.680	-0.040	0.480	0.910
2020/01/31 22:02:39.7	95.680	-0.060	0.540	0.970
2020/01/31 22:02:39.8	95.680	-0.070	0.590	1.020
2020/01/31 22:02:39.9	95.680	-0.080	0.640	1.070
2020/01/31 22:02:40.0	95.690	-0.090	0.680	1.120
2020/01/31 22:02:40.1	95.690	-0.100	0.720	1.160
2020/01/31 22:02:40.2	95.700	-0.110	0.750	1.210
2020/01/31 22:02:40.3	95.700	-0.110	0.770	1.250
2020/01/31 22:02:40.4	95.710	-0.120	0.790	1.290
2020/01/31 22:02:40.5	95.710	-0.120	0.800	1.320
2020/01/31 22:02:40.6	95.720	-0.120	0.800	1.360
2020/01/31 22:02:40.7	95.730	-0.120	0.800	1.390
2020/01/31 22:02:40.8	95.730	-0.120	0.790	1.420
2020/01/31 22:02:40.9	95.740	-0.120	0.780	1.440
2020/01/31 22:02:41.0	95.760	-0.110	0.760	1.460
2020/01/31 22:02:41.1	95.770	-0.100	0.730	1.480
2020/01/31 22:02:41.2	95.770	-0.100	0.700	1.490
2020/01/31 22:02:41.3	95.780	-0.090	0.660	1.510
2020/01/31 22:02:41.4	95.790	-0.080	0.620	1.520
2020/01/31 22:02:41.5	95.800	-0.060	0.570	1.520
2020/01/31 22:02:41.6	95.800	-0.050	0.520	1.530
2020/01/31 22:02:41.7	95.810	-0.040	0.470	1.530
2020/01/31 22:02:41.8	95.820	-0.020	0.410	1.530
2020/01/31 22:02:41.9	95.830	-0.010	0.350	1.530
2020/01/31 22:02:42.0	95.830	0.010	0.280	1.520
2020/01/31 22:02:42.1	95.840	0.020	0.210	1.510
2020/01/31 22:02:42.2	95.850	0.040	0.140	1.500
2020/01/31 22:02:42.3	95.850	0.050	0.070	1.490
2020/01/31 22:02:42.4	95.860	0.070	-0.000	1.480
2020/01/31 22:02:42.5	95.860	0.080	-0.070	1.460
2020/01/31 22:02:42.6	95.860	0.100	-0.150	1.440
2020/01/31 22:02:42.7	95.870	0.110	-0.220	1.430
2020/01/31 22:02:42.8	95.870	0.130	-0.290	1.410
2020/01/31 22:02:42.9	95.870	0.140	-0.360	1.390
2020/01/31 22:02:43.0	95.870	0.150	-0.430	1.360
2020/01/31 22:02:43.1	95.870	0.160	-0.490	1.340
2020/01/31 22:02:43.2	95.860	0.170	-0.560	1.320
2020/01/31 22:02:43.3	95.860	0.180	-0.620	1.300
2020/01/31 22:02:43.4	95.860	0.190	-0.670	1.280
2020/01/31 22:02:43.5	95.850	0.190	-0.730	1.260
2020/01/31 22:02:43.6	95.840	0.200	-0.780	1.240
2020/01/31 22:02:43.7	95.830	0.200	-0.820	1.220
2020/01/31 22:02:43.8	95.820	0.200	-0.860	1.200
2020/01/31 22:02:43.9	95.810	0.200	-0.890	1.180
2020/01/31 22:02:44.0	95.800	0.190	-0.920	1.160
2020/01/31 22:02:44.1	95.790	0.190	-0.940	1.140
2020/01/31 22:02:44.2	95.780	0.180	-0.960	1.120
2020/01/31 22:02:44.3	95.770	0.170	-0.970	1.100
2020/01/31 22:02:44.4	95.750	0.160	-0.980	1.090
2020/01/31 22:02:44.5	95.740	0.150	-0.970	1.070
2020/01/31 22:02:44.6	95.730	0.140	-0.970	1.060
2020/01/31 22:02:44.7	95.710	0.120	-0.960	1.050
2020/01/31 22:02:44.8	95.700	0.100	-0.940	1.030
2020/01/31 22:02:44.9	95.680	0.080	-0.910	1.020
2020/01/31 22:02:45.0	95.670	0.060	-0.880	1.010
2020/01/31 22:02:45.1	95.650	0.040	-0.850	1.000
2020/01/31 22:02:45.2	95.640	0.020	-0.810	0.990
2020/01/31 22:02:45.3	95.620	-0.010	-0.770	0.980
2020/01/31 22:02:45.4	95.610	-0.030	-0.720	0.970
2020/01/31 22:02:45.5	95.590	-0.060	-0.670	0.960
2020/01/31 22:02:45.6	95.580	-0.090	-0.620	0.960
2020/01/31 22:02:45.7	95.560	-0.110	-0.570	0.950
2020/01/31 22:02:45.8	95.550	-0.140	-0.510	0.940
2020/01/31 22:02:45.9	95.540	-0.170	-0.450	0.920
2020/01/31 22:02:46.0	95.530	-0.200	-0.390	0.910
2020/01/31 22:02:46.1	95.520	-0.220	-0.330	0.900
2020/01/31 22:02:46.2	95.510	-0.250	-0.270	0.880
2020/01/31 22:02:46.3	95.500	-0.280	-0.210	0.870
2020/01/31 22:02:46.4	95.490	-0.300	-0.150	0.850
2020/01/31 22:02:46.5	95.490	-0.320	-0.100	0.820
2020/01/31 22:02:46.6	95.480	-0.350	-0.040	0.800
2020/01/31 22:02:46.7	95.480	-0.360	0.010	0.770
2020/01/31 22:02:46.8	95.480	-0.380	0.060	0.740
2020/01/31 22:02:46.9	95.480	-0.400	0.110	0.710
2020/01/31 22:02:47.0	95.470	-0.410	0.160	0.660
2020/01/31 22:02:47.1	95.470	-0.420	0.200	0.620
2020/01/31 22:02:47.2	95.470	-0.430	0.240	0.580
2020/01/31 22:02:47.3	95.480	-0.440	0.270	0.530
2020/01/31 22:02:47.4	95.480	-0.440	0.290	0.480
2020/01/31 22:02:47.5	95.490	-0.440	0.320	0.430
2020/01/31 22:02:47.6	95.500	-0.430	0.330	0.370
2020/01/31 22:02:47.7	95.510	-0.430	0.350	0.310
2020/01/31 22:02:47.8	95.520	-0.420	0.350	0.250
2020/01/31 22:02:47.9	95.530	-0.410	0.360	0.180
2020/01/31 22:02:48.0	95.540	-0.390	0.350	0.120
2020/01/31 22:02:48.1	95.560	-0.370	0.350	0.050
2020/01/31 22:02:48.2	95.580	-0.350	0.340	-0.020
2020/01/31 22:02:48.3	95.590	-0.330	0.330	-0.090
2020/01/31 22:02:48.4	95.610	-0.300	0.310	-0.160
2020/01/31 22:02:48.5	95.630	-0.270	0.290	-0.230
2020/01/31 22:02:48.6	95.650	-0.240	0.270	-0.300
2020/01/31 22:02:48.7	95.670	-0.210	0.240	-0.370
2020/01/31 22:02:48.8	95.690	-0.180	0.220	-0.430
2020/01/31 22:02:48.9	95.710	-0.140	0.190	-0.500
2020/01/31 22:02:49.0	95.740	-0.110	0.160	-0.560
2020/01/31 22:02:49.1	95.760	-0.070	0.140	-0.620
2020/01/31 22:02:49.2	95.770	-0.040	0.110	-0.670
2020/01/31 22:02:49.3	95.790	-0.000	0.080	-0.720
2020/01/31 22:02:49.4	95.800	0.030	0.050	-0.770
2020/01/31 22:02:49.5	95.810	0.070	0.030	-0.810
2020/01/31 22:02:49.6	95.820	0.100	0.000	-0.850
2020/01/31 22:02:49.7	95.820	0.130	-0.020	-0.890
2020/01/31 22:02:49.8	95.830	0.160	-0.040	-0.920
2020/01/31 22:02:49.9	95.830	0.190	-0.060	-0.950
2020/01/31 22:02:50.0	95.830	0.220	-0.080	-0.980
2020/01/31 22:02:50.1	95.820	0.240	-0.090	-1.000
2020/01/31 22:02:50.2	95.820	0.260	-0.100	-1.010
2020/01/31 22:02:50.3	95.810	0.280	-0.110	-1.030
2020/01/31 22:02:50.4	95.800	0.300	-0.120	-1.030
2020/01/31 22:02:50.5	95.780	0.310	-0.120	-1.040
2020/01/31 22:02:50.6	95.760	0.320	-0.120	-1.040
2020/01/31 22:02:50.7	95.740	0.330	-0.130	-1.040
2020/01/31 22:02:50.8	95.720	0.340	-0.120	-1.030
2020/01/31 22:02:50.9	95.700	0.340	-0.120	-1.020
2020/01/31 22:02:51.0	95.670	0.340	-0.120	-1.010
2020/01/31 22:02:51.1	95.650	0.340	-0.120	-1.000
2020/01/31 22:02:51.2	95.620	0.330	-0.110	-0.980
2020/01/31 22:02:51.3	95.590	0.320	-0.110	-0.950
2020/01/31 22:02:51.4	95.560	0.310	-0.110	-0.930
2020/01/31 22:02:51.5	95.530	0.300	-0.110	-0.900
2020/01/31 22:02:51.6	95.500	0.290	-0.110	-0.870
2020/01/31 22:02:51.7	95.470	0.270	-0.120	-0.830
2020/01/31 22:02:51.8	95.440	0.250	-0.120	-0.790
2020/01/31 22:02:51.9	95.410	0.240	-0.130	-0.740
2020/01/31 22:02:52.0	95.370	0.220	-0.150	-0.690
2020/01/31 22:02:52.1	95.340	0.200	-0.160	-0.640
2020/01/31 22:02:52.2	95.310	0.180	-0.180	-0.580
2020/01/31 22:02:52.3	95.280	0.160	-0.200	-0.520
2020/01/31 22:02:52.4	95.250	0.140	-0.220	-0.460
2020/01/31 22:02:52.5	95.220	0.130	-0.250	-0.390
2020/01/31 22:02:52.6	95.200	0.110	-0.280	-0.320
2020/01/31 22:02:52.7	95.170	0.090	-0.320	-0.240
2020/01/31 22:02:52.8	95.150	0.080	-0.350	-0.170
2020/01/31 22:02:52.9	95.130	0.060	-0.390	-0.090
2020/01/31 22:02:53.0	95.110	0.050	-0.430	-0.010
2020/01/31 22:02:53.1	95.090	0.040	-0.480	0.070
2020/01/31 22:02:53.2	95.080	0.030	-0.520	0.160
2020/01/31 22:02:53.3	95.070	0.020	-0.570	0.240
2020/01/31 22:02:53.4	95.060	0.020	-0.620	0.320
2020/01/31 22:02:53.5	95.060	0.010	-0.670	0.400
2020/01/31 22:02:53.6	95.050	0.010	-0.710	0.480
2020/01/31 22:02:53.7	95.050	0.010	-0.760	0.560
2020/01/31 22:02:53.8	95.060	0.010	-0.810	0.640
2020/01/31 22:02:53.9	95.070	0.010	-0.850	0.710
2020/01/31 22:02:54.0	95.070	0.010	-0.900	0.780
2020/01/31 22:02:54.1	95.080	0.020	-0.940	0.850
2020/01/31 22:02:54.2	95.100	0.020	-0.970	0.920
2020/01/31 22:02:54.3	95.110	0.020	-1.010	0.990
2020/01/31 22:02:54.4	95.130	0.030	-1.030	1.060
2020/01/31 22:02:54.5	95.150	0.040	-1.060	1.130
2020/01/31 22:02:54.6	95.170	0.040	-1.070	1.190
2020/01/31 22:02:54.7	95.190	0.050	-1.090	1.250
2020/01/31 22:02:54.8	95.210	0.060	-1.090	1.310
2020/01/31 22:02:54.9	95.230	0.060	-1.090	1.370
2020/01/31 22:02:55.0	95.250	0.070	-1.080	1.430
2020/01/31 22:02:55.1	95.270	0.070	-1.060	1.490
2020/01/31 22:02:55.2	95.280	0.080	-1.030	1.550
2020/01/31 22:02:55.3	95.290	0.080	-1.000	1.600
2020/01/31 22:02:55.4	95.310	0.080	-0.960	1.650
2020/01/31 22:02:55.5	95.320	0.080	-0.910	1.710
2020/01/31 22:02:55.6	95.330	0.080	-0.860	1.760
2020/01/31 22:02:55.7	95.330	0.080	-0.790	1.810
2020/01/31 22:02:55.8	95.330	0.080	-0.720	1.850
2020/01/31 22:02:55.9	95.330	0.070	-0.650	1.900
2020/01/31 22:02:56.0	95.340	0.070	-0.560	1.950
2020/01/31 22:02:56.1	95.340	0.060	-0.480	1.990
2020/01/31 22:02:56.2	95.330	0.050	-0.380	2.030
2020/01/31 22:02:56.3	95.320	0.040	-0.280	2.060
2020/01/31 22:02:56.4	95.310	0.030	-0.180	2.100
2020/01/31 22:02:56.5	95.300	0.020	-0.080	2.130
2020/01/31 22:02:56.6	95.280	0.010	0.030	2.150
2020/01/31 22:02:56.7	95.260	-0.010	0.140	2.180
2020/01/31 22:02:56.8	95.250	-0.020	0.250	2.200
2020/01/31 22:02:56.9	95.230	-0.040	0.360	2.210
2020/01/31 22:02:57.0	95.200	-0.050	0.470	2.220
2020/01/31 22:02:57.1	95.180	-0.070	0.570	2.230
2020/01/31 22:02:57.2	95.160	-0.090	0.680	2.230
2020/01/31 22:02:57.3	95.130	-0.100	0.780	2.230
2020/01/31 22:02:57.4	95.110	-0.120	0.870	2.230
2020/01/31 22:02:57.5	95.090	-0.140	0.960	2.220
2020/01/31 22:02:57.6	95.060	-0.150	1.040	2.200
2020/01/31 22:02:57.7	95.040	-0.170	1.110	2.180
2020/01/31 22:02:57.8	95.020	-0.180	1.180	2.160
2020/01/31 22:02:57.9	95.000	-0.190	1.230	2.130
2020/01/31 22:02:58.0	94.980	-0.200	1.280	2.090
2020/01/31 22:02:58.1	94.960	-0.210	1.320	2.050
2020/01/31 22:02:58.2	94.940	-0.220	1.350	2.000
2020/01/31 22:02:58.3	94.920	-0.230	1.360	1.950
2020/01/31 22:02:58.4	94.910	-0.230	1.370	1.890
2020/01/31 22:02:58.5	94.890	-0.230	1.360	1.830
2020/01/31 22:02:58.6	94.880	-0.230	1.350	1.760
2020/01/31 22:02:58.7	94.880	-0.230	1.320	1.690
2020/01/31 22:02:58.8	94.870	-0.230	1.280	1.610
2020/01/31 22:02:58.9	94.860	-0.220	1.230	1.530
2020/01/31 22:02:59.0	94.870	-0.220	1.170	1.430
2020/01/31 22:02:59.1	94.870	-0.210	1.100	1.340
2020/01/31 22:02:59.2	94.870	-0.200	1.020	1.250
2020/01/31 22:02:59.3	94.880	-0.180	0.930	1.150
2020/01/31 22:02:59.4	94.880	-0.170	0.840	1.040
2020/01/31 22:02:59.5	94.890	-0.150	0.740	0.940
2020/01/31 22:02:59.6	94.900	-0.140	0.630	0.830
2020/01/31 22:02:59.7	94.910	-0.120	0.510	0.720
2020/01/31 22:02:59.8	94.920	-0.100	0.400	0.610
2020/01/31 22:02:59.9	94.930	-0.080	0.270	0.500
2020/01/31 22:03:00.0	94.930	-0.060	0.150	0.390
2020/01/31 22:03:00.1	94.940	-0.030	0.020	0.280
2020/01/31 22:03:00.2	94.960	-0.010	-0.110	0.180
2020/01/31 22:03:00.3	94.970	0.010	-0.230	0.070
2020/01/31 22:03:00.4	94.980	0.030	-0.360	-0.030
2020/01/31 22:03:00.5	94.990	0.060	-0.480	-0.130
2020/01/31 22:03:00.6	95.000	0.080	-0.600	-0.220
2020/01/31 22:03:00.7	95.020	0.100	-0.710	-0.320
2020/01/31 22:03:00.8	95.030	0.120	-0.830	-0.400
2020/01/31 22:03:00.9	95.040	0.140	-0.930	-0.490
2020/01/31 22:03:01.0	95.040	0.160	-1.030	-0.570
2020/01/31 22:03:01.1	95.050	0.180	-1.130	-0.640
2020/01/31 22:03:01.2	95.060	0.200	-1.210	-0.710
2020/01/31 22:03:01.3	95.070	0.210	-1.290	-0.770
2020/01/31 22:03:01.4	95.070	0.220	-1.360	-0.830
2020/01/31 22:03:01.5	95.080	0.240	-1.420	-0.880
2020/01/31 22:03:01.6	95.080	0.250	-1.480	-0.930
2020/01/31 22:03:01.7	95.090	0.250	-1.520	-0.970
2020/01/31 22:03:01.8	95.090	0.260	-1.550	-1.000
2020/01/31 22:03:01.9	95.090	0.260	-1.580	-1.030
2020/01/31 22:03:02.0	95.090	0.260	-1.590	-1.060
2020/01/31 22:03:02.1	95.090	0.260	-1.590	-1.070
2020/01/31 22:03:02.2	95.090	0.250	-1.590	-1.090
2020/01/31 22:03:02.3	95.090	0.240	-1.570	-1.090
2020/01/31 22:03:02.4	95.080	0.230	-1.550	-1.100
2020/01/31 22:03:02.5	95.080	0.220	-1.510	-1.100
2020/01/31 22:03:02.6	95.070	0.200	-1.470	-1.090
2020/01/31 22:03:02.7	95.060	0.190	-1.420	-1.080
2020/01/31 22:03:02.8	95.050	0.170	-1.360	-1.060
2020/01/31 22:03:02.9	95.040	0.140	-1.300	-1.040
2020/01/31 22:03:03.0	95.030	0.120	-1.230	-1.020
2020/01/31 22:03:03.1	95.020	0.100	-1.150	-0.990
2020/01/31 22:03:03.2	95.010	0.070	-1.070	-0.960
2020/01/31 22:03:03.3	94.990	0.040	-0.980	-0.920
2020/01/31 22:03:03.4	94.980	0.010	-0.890	-0.880
2020/01/31 22:03:03.5	94.970	-0.010	-0.800	-0.840
2020/01/31 22:03:03.6	94.950	-0.040	-0.700	-0.790
2020/01/31 22:03:03.7	94.940	-0.070	-0.610	-0.740
2020/01/31 22:03:03.8	94.920	-0.100	-0.520	-0.690
2020/01/31 22:03:03.9	94.900	-0.130	-0.420	-0.630
2020/01/31 22:03:04.0	94.880	-0.160	-0.330	-0.570
2020/01/31 22:03:04.1	94.860	-0.190	-0.240	-0.510
2020/01/31 22:03:04.2	94.850	-0.210	-0.150	-0.450
2020/01/31 22:03:04.3	94.830	-0.240	-0.070	-0.380
2020/01/31 22:03:04.4	94.820	-0.260	0.010	-0.310
2020/01/31 22:03:04.5	94.800	-0.280	0.090	-0.250
2020/01/31 22:03:04.6	94.790	-0.300	0.160	-0.170
2020/01/31 22:03:04.7	94.770	-0.310	0.220	-0.100
2020/01/31 22:03:04.8	94.760	-0.330	0.280	-0.030
2020/01/31 22:03:04.9	94.750	-0.340	0.330	0.050
2020/01/31 22:03:05.0	94.740	-0.350	0.380	0.130
2020/01/31 22:03:05.1	94.730	-0.350	0.420	0.210
2020/01/31 22:03:05.2	94.720	-0.350	0.460	0.280
2020/01/31 22:03:05.3	94.710	-0.350	0.490	0.360
2020/01/31 22:03:05.4	94.710	-0.350	0.510	0.430
2020/01/31 22:03:05.5	94.710	-0.340	0.530	0.500
2020/01/31 22:03:05.6	94.710	-0.340	0.540	0.570
2020/01/31 22:03:05.7	94.710	-0.320	0.540	0.640
2020/01/31 22:03:05.8	94.710	-0.310	0.540	0.710
2020/01/31 22:03:05.9	94.710	-0.290	0.530	0.770
2020/01/31 22:03:06.0	94.720	-0.270	0.520	0.820
2020/01/31 22:03:06.1	94.720	-0.250	0.500	0.880
2020/01/31 22:03:06.2	94.740	-0.230	0.480	0.930
2020/01/31 22:03:06.3	94.750	-0.200	0.450	0.980
2020/01/31 22:03:06.4	94.770	-0.170	0.420	1.020
2020/01/31 22:03:06.5	94.780	-0.140	0.380	1.060
2020/01/31 22:03:06.6	94.800	-0.110	0.340	1.090
2020/01/31 22:03:06.7	94.820	-0.070	0.300	1.120
2020/01/31 22:03:06.8	94.840	-0.040	0.260	1.150
2020/01/31 22:03:06.9	94.870	-0.000	0.210	1.170
2020/01/31 22:03:07.0	94.890	0.030	0.160	1.190
2020/01/31 22:03:07.1	94.920	0.070	0.120	1.200
2020/01/31 22:03:07.2	94.940	0.100	0.070	1.210
2020/01/31 22:03:07.3	94.970	0.140	0.020	1.210
2020/01/31 22:03:07.4	94.990	0.170	-0.030	1.220
2020/01/31 22:03:07.5	95.020	0.200	-0.070	1.210
2020/01/31 22:03:07.6	95.040	0.240	-0.110	1.210
2020/01/31 22:03:07.7	95.060	0.270	-0.150	1.200
2020/01/31 22:03:07.8	95.090	0.290	-0.190	1.190
2020/01/31 22:03:07.9	95.110	0.320	-0.220	1.180
2020/01/31 22:03:08.0	95.140	0.340	-0.240	1.160
2020/01/31 22:03:08.1	95.160	0.360	-0.270	1.150
2020/01/31 22:03:08.2	95.180	0.380	-0.280	1.130
2020/01/31 22:03:08.3	95.200	0.400	-0.290	1.110
2020/01/31 22:03:08.4	95.210	0.410	-0.300	1.080
2020/01/31 22:03:08.5	95.230	0.420	-0.300	1.060
2020/01/31 22:03:08.6	95.240	0.420	-0.300	1.040
2020/01/31 22:03:08.7	95.260	0.420	-0.290	1.020
2020/01/31 22:03:08.8	95.270	0.420	-0.280	1.000
2020/01/31 22:03:08.9	95.280	0.410	-0.260	0.980
2020/01/31 22:03:09.0	95.280	0.410	-0.240	0.950
2020/01/31 22:03:09.1	95.290	0.400	-0.210	0.930
2020/01/31 22:03:09.2	95.300	0.380	-0.180	0.920
2020/01/31 22:03:09.3	95.300	0.360	-0.150	0.900
2020/01/31 22:03:09.4	95.300	0.350	-0.120	0.890
2020/01/31 22:03:09.5	95.300	0.320	-0.090	0.880
2020/01/31 22:03:09.6	95.300	0.300	-0.060	0.870
2020/01/31 22:03:09.7	95.300	0.280	-0.030	0.860
2020/01/31 22:03:09.8	95.290	0.250	0.000	0.850
2020/01/31 22:03:09.9	95.290	0.220	0.030	0.850
2020/01/31 22:03:10.0	95.290	0.190	0.060	0.850
2020/01/31 22:03:10.1	95.280	0.160	0.080	0.850
2020/01/31 22:03:10.2	95.270	0.130	0.100	0.860
2020/01/31 22:03:10.3	95.260	0.100	0.120	0.860
2020/01/31 22:03:10.4	95.250	0.070	0.130	0.870
2020/01/31 22:03:10.5	95.240	0.040	0.140	0.880
2020/01/31 22:03:10.6	95.230	0.020	0.140	0.900
2020/01/31 22:03:10.7	95.220	-0.010	0.140	0.910
2020/01/31 22:03:10.8	95.200	-0.040	0.130	0.930
2020/01/31 22:03:10.9	95.190	-0.060	0.120	0.940
2020/01/31 22:03:11.0	95.180	-0.090	0.100	0.960
2020/01/31 22:03:11.1	95.170	-0.110	0.080	0.980
2020/01/31 22:03:11.2	95.160	-0.130	0.060	1.000
2020/01/31 22:03:11.3	95.150	-0.150	0.030	1.020
2020/01/31 22:03:11.4	95.140	-0.160	-0.000	1.040
2020/01/31 22:03:11.5	95.130	-0.180	-0.040	1.060
2020/01/31 22:03:11.6	95.120	-0.190	-0.080	1.080
2020/01/31 22:03:11.7	95.110	-0.200	-0.120	1.100
2020/01/31 22:03:11.8	95.100	-0.210	-0.160	1.120
2020/01/31 22:03:11.9	95.090	-0.220	-0.200	1.140
2020/01/31 22:03:12.0	95.090	-0.220	-0.250	1.160
2020/01/31 22:03:12.1	95.090	-0.220	-0.290	1.170
2020/01/31 22:03:12.2	95.080	-0.220	-0.340	1.190
2020/01/31 22:03:12.3	95.080	-0.220	-0.390	1.200
2020/01/31 22:03:12.4	95.080	-0.220	-0.430	1.210
2020/01/31 22:03:12.5	95.090	-0.220	-0.480	1.220
2020/01/31 22:03:12.6	95.090	-0.210	-0.520	1.230
2020/01/31 22:03:12.7	95.090	-0.200	-0.560	1.240
2020/01/31 22:03:12.8	95.100	-0.200	-0.600	1.240
2020/01/31 22:03:12.9	95.110	-0.190	-0.640	1.240
2020/01/31 22:03:13.0	95.120	-0.180	-0.670	1.240
2020/01/31 22:03:13.1	95.130	-0.160	-0.710	1.240
2020/01/31 22:03:13.2	95.150	-0.150	-0.740	1.240
2020/01/31 22:03:13.3	95.160	-0.140	-0.760	1.240
2020/01/31 22:03:13.4	95.180	-0.120	-0.790	1.240
2020/01/31 22:03:13.5	95.190	-0.110	-0.810	1.230
2020/01/31 22:03:13.6	95.210	-0.100	-0.820	1.230
2020/01/31 22:03:13.7	95.220	-0.080	-0.830	1.220
2020/01/31 22:03:13.8	95.240	-0.070	-0.840	1.220
2020/01/31 22:03:13.9	95.260	-0.050	-0.850	1.210
2020/01/31 22:03:14.0	95.260	-0.040	-0.840	1.200
2020/01/31 22:03:14.1	95.270	-0.020	-0.840	1.190
2020/01/31 22:03:14.2	95.280	-0.010	-0.830	1.180
2020/01/31 22:03:14.3	95.290	0.000	-0.810	1.180
2020/01/31 22:03:14.4	95.300	0.020	-0.790	1.170
2020/01/31 22:03:14.5	95.300	0.030	-0.760	1.160
2020/01/31 22:03:14.6	95.300	0.040	-0.730	1.150
2020/01/31 22:03:14.7	95.300	0.050	-0.700	1.140
2020/01/31 22:03:14.8	95.300	0.050	-0.650	1.130
2020/01/31 22:03:14.9	95.290	0.060	-0.610	1.120
2020/01/31 22:03:15.0	95.290	0.070	-0.550	1.110
2020/01/31 22:03:15.1	95.270	0.070	-0.500	1.100
2020/01/31 22:03:15.2	95.260	0.070	-0.440	1.090
2020/01/31 22:03:15.3	95.250	0.080	-0.380	1.070
2020/01/31 22:03:15.4	95.230	0.080	-0.320	1.060
2020/01/31 22:03:15.5	95.210	0.080	-0.250	1.040
2020/01/31 22:03:15.6	95.200	0.070	-0.180	1.030
2020/01/31 22:03:15.7	95.180	0.070	-0.110	1.010
2020/01/31 22:03:15.8	95.160	0.070	-0.040	0.990
2020/01/31 22:03:15.9	95.140	0.060	0.020	0.970
2020/01/31 22:03:16.0	95.120	0.060	0.090	0.950
2020/01/31 22:03:16.1	95.100	0.050	0.160	0.930
2020/01/31 22:03:16.2	95.080	0.050	0.220	0.900
2020/01/31 22:03:16.3	95.060	0.040	0.280	0.880
2020/01/31 22:03:16.4	95.040	0.030	0.340	0.850
2020/01/31 22:03:16.5	95.020	0.020	0.390	0.830
2020/01/31 22:03:16.6	95.000	0.020	0.440	0.800
2020/01/31 22:03:16.7	94.990	0.010	0.490	0.770
2020/01/31 22:03:16.8	94.970	0.000	0.530	0.740
2020/01/31 22:03:16.9	94.960	-0.000	0.560	0.710
2020/01/31 22:03:17.0	94.940	-0.010	0.590	0.680
2020/01/31 22:03:17.1	94.930	-0.010	0.610	0.650
2020/01/31 22:03:17.2	94.920	-0.020	0.620	0.610
2020/01/31 22:03:17.3	94.910	-0.020	0.630	0.570
2020/01/31 22:03:17.4	94.910	-0.030	0.630	0.530
2020/01/31 22:03:17.5	94.900	-0.030	0.620	0.500
2020/01/31 22:03:17.6	94.900	-0.030	0.600	0.450
2020/01/31 22:03:17.7	94.900	-0.030	0.580	0.410
2020/01/31 22:03:17.8	94.910	-0.030	0.550	0.360
2020/01/31 22:03:17.9	94.910	-0.020	0.520	0.320
2020/01/31 22:03:18.0	94.930	-0.020	0.480	0.260
2020/01/31 22:03:18.1	94.940	-0.020	0.430	0.210
2020/01/31 22:03:18.2	94.950	-0.010	0.380	0.160
2020/01/31 22:03:18.3	94.960	-0.000	0.330	0.110
2020/01/31 22:03:18.4	94.980	0.010	0.270	0.050
2020/01/31 22:03:18.5	95.000	0.020	0.200	-0.000
2020/01/31 22:03:18.6	95.020	0.030	0.140	-0.060
2020/01/31 22:03:18.7	95.040	0.040	0.070	-0.120
2020/01/31 22:03:18.8	95.070	0.050	-0.000	-0.170
2020/01/31 22:03:18.9	95.090	0.070	-0.070	-0.230
2020/01/31 22:03:19.0	95.110	0.080	-0.150	-0.280
2020/01/31 22:03:19.1	95.130	0.100	-0.220	-0.330
2020/01/31 22:03:19.2	95.160	0.110	-0.290	-0.380
2020/01/31 22:03:19.3	95.190	0.130	-0.360	-0.430
2020/01/31 22:03:19.4	95.220	0.150	-0.420	-0.470
2020/01/31 22:03:19.5	95.250	0.160	-0.490	-0.510
2020/01/31 22:03:19.6	95.280	0.180	-0.550	-0.550
2020/01/31 22:03:19.7	95.310	0.200	-0.600	-0.580
2020/01/31 22:03:19.8	95.340	0.220	-0.650	-0.610
2020/01/31 22:03:19.9	95.370	0.230	-0.700	-0.630
2020/01/31 22:03:20.0	95.390	0.250	-0.740	-0.650
2020/01/31 22:03:20.1	95.420	0.260	-0.780	-0.660
2020/01/31 22:03:20.2	95.440	0.270	-0.800	-0.670
2020/01/31 22:03:20.3	95.460	0.280	-0.830	-0.670
2020/01/31 22:03:20.4	95.480	0.290	-0.840	-0.670
2020/01/31 22:03:20.5	95.490	0.300	-0.850	-0.660
2020/01/31 22:03:20.6	95.510	0.310	-0.850	-0.650
2020/01/31 22:03:20.7	95.520	0.310	-0.850	-0.630
2020/01/31 22:03:20.8	95.530	0.310	-0.830	-0.600
2020/01/31 22:03:20.9	95.530	0.300	-0.810	-0.570
2020/01/31 22:03:21.0	95.520	0.300	-0.790	-0.540
2020/01/31 22:03:21.1	95.520	0.290	-0.760	-0.490
2020/01/31 22:03:21.2	95.520	0.280	-0.720	-0.450
2020/01/31 22:03:21.3	95.520	0.260	-0.670	-0.390
2020/01/31 22:03:21.4	95.510	0.240	-0.620	-0.340
2020/01/31 22:03:21.5	95.500	0.220	-0.560	-0.280
2020/01/31 22:03:21.6	95.500	0.190	-0.500	-0.210
2020/01/31 22:03:21.7	95.480	0.170	-0.430	-0.140
2020/01/31 22:03:21.8	95.470	0.140	-0.360	-0.060
2020/01/31 22:03:21.9	95.460	0.100	-0.290	0.020
2020/01/31 22:03:22.0	95.440	0.060	-0.210	0.110
2020/01/31 22:03:22.1	95.420	0.030	-0.130	0.190
2020/01/31 22:03:22.2	95.410	-0.020	-0.050	0.280
2020/01/31 22:03:22.3	95.380	-0.060	0.020	0.370
2020/01/31 22:03:22.4	95.360	-0.100	0.100	0.460
2020/01/31 22:03:22.5	95.340	-0.150	0.180	0.550
2020/01/31 22:03:22.6	95.320	-0.190	0.250	0.650
2020/01/31 22:03:22.7	95.290	-0.240	0.320	0.740
2020/01/31 22:03:22.8	95.270	-0.280	0.380	0.840
2020/01/31 22:03:22.9	95.240	-0.330	0.450	0.930
2020/01/31 22:03:23.0	95.230	-0.370	0.500	1.020
2020/01/31 22:03:23.1	95.200	-0.410	0.550	1.110
2020/01/31 22:03:23.2	95.180	-0.460	0.590	1.200
2020/01/31 22:03:23.3	95.160	-0.490	0.620	1.290
2020/01/31 22:03:23.4	95.130	-0.530	0.650	1.370
2020/01/31 22:03:23.5	95.110	-0.560	0.670	1.460
2020/01/31 22:03:23.6	95.090	-0.590	0.680	1.540
2020/01/31 22:03:23.7	95.080	-0.610	0.680	1.610
2020/01/31 22:03:23.8	95.060	-0.630	0.670	1.680
2020/01/31 22:03:23.9	95.050	-0.640	0.650	1.750
2020/01/31 22:03:24.0	95.030	-0.650	0.630	1.810
2020/01/31 22:03:24.1	95.020	-0.660	0.590	1.870
2020/01/31 22:03:24.2	95.020	-0.660	0.540	1.930
2020/01/31 22:03:24.3	95.010	-0.650	0.490	1.980
2020/01/31 22:03:24.4	95.010	-0.640	0.430	2.020
2020/01/31 22:03:24.5	95.000	-0.620	0.350	2.060
2020/01/31 22:03:24.6	95.000	-0.600	0.280	2.090
2020/01/31 22:03:24.7	95.010	-0.570	0.190	2.120
2020/01/31 22:03:24.8	95.010	-0.540	0.100	2.150
2020/01/31 22:03:24.9	95.020	-0.500	0.010	2.170
2020/01/31 22:03:25.0	95.020	-0.460	-0.090	2.180
2020/01/31 22:03:25.1	95.030	-0.410	-0.190	2.190
2020/01/31 22:03:25.2	95.040	-0.360	-0.300	2.200
2020/01/31 22:03:25.3	95.050	-0.310	-0.400	2.200
2020/01/31 22:03:25.4	95.060	-0.260	-0.500	2.200
2020/01/31 22:03:25.5	95.070	-0.200	-0.600	2.200
2020/01/31 22:03:25.6	95.080	-0.130	-0.700	2.190
2020/01/31 22:03:25.7	95.090	-0.070	-0.800	2.180
2020/01/31 22:03:25.8	95.100	-0.010	-0.890	2.170
2020/01/31 22:03:25.9	95.110	0.060	-0.980	2.150
2020/01/31 22:03:26.0	95.120	0.120	-1.060	2.130
2020/01/31 22:03:26.1	95.130	0.180	-1.130	2.100
2020/01/31 22:03:26.2	95.140	0.250	-1.200	2.070
2020/01/31 22:03:26.3	95.140	0.310	-1.250	2.040
2020/01/31 22:03:26.4	95.150	0.370	-1.300	2.010
2020/01/31 22:03:26.5	95.150	0.420	-1.340	1.970
2020/01/31 22:03:26.6	95.160	0.470	-1.370	1.930
2020/01/31 22:03:26.7	95.160	0.520	-1.390	1.890
2020/01/31 22:03:26.8	95.160	0.570	-1.390	1.840
2020/01/31 22:03:26.9	95.160	0.610	-1.390	1.790
2020/01/31 22:03:27.0	95.170	0.650	-1.380	1.730
2020/01/31 22:03:27.1	95.170	0.680	-1.350	1.680
2020/01/31 22:03:27.2	95.160	0.710	-1.320	1.620
2020/01/31 22:03:27.3	95.160	0.730	-1.280	1.560
2020/01/31 22:03:27.4	95.160	0.740	-1.230	1.500
2020/01/31 22:03:27.5	95.150	0.750	-1.170	1.440
2020/01/31 22:03:27.6	95.150	0.760	-1.100	1.380
2020/01/31 22:03:27.7	95.150	0.760	-1.020	1.310
2020/01/31 22:03:27.8	95.140	0.750	-0.940	1.240
2020/01/31 22:03:27.9	95.130	0.740	-0.850	1.180
2020/01/31 22:03:28.0	95.130	0.730	-0.750	1.100
2020/01/31 22:03:28.1	95.130	0.710	-0.650	1.030
2020/01/31 22:03:28.2	95.120	0.680	-0.550	0.960
2020/01/31 22:03:28.3	95.120	0.650	-0.450	0.890
2020/01/31 22:03:28.4	95.110	0.620	-0.340	0.820
2020/01/31 22:03:28.5	95.110	0.580	-0.240	0.750
2020/01/31 22:03:28.6	95.110	0.550	-0.130	0.680
2020/01/31 22:03:28.7	95.100	0.500	-0.020	0.610
2020/01/31 22:03:28.8	95.100	0.460	0.080	0.540
2020/01/31 22:03:28.9	95.100	0.410	0.180	0.470
2020/01/31 22:03:29.0	95.090	0.370	0.280	0.400
2020/01/31 22:03:29.1	95.090	0.320	0.370	0.330
2020/01/31 22:03:29.2	95.090	0.270	0.460	0.260
2020/01/31 22:03:29.3	95.090	0.220	0.540	0.190
2020/01/31 22:03:29.4	95.100	0.170	0.620	0.120
2020/01/31 22:03:29.5	95.100	0.120	0.700	0.060
2020/01/31 22:03:29.6	95.100	0.070	0.760	-0.010
2020/01/31 22:03:29.7	95.110	0.020	0.820	-0.070
2020/01/31 22:03:29.8	95.110	-0.020	0.870	-0.140
2020/01/31 22:03:29.9	95.120	-0.070	0.910	-0.200
2020/01/31 22:03:30.0	95.120	-0.110	0.950	-0.260
2020/01/31 22:03:30.1	95.130	-0.150	0.980	-0.320
2020/01/31 22:03:30.2	95.140	-0.190	0.990	-0.380
2020/01/31 22:03:30.3	95.150	-0.220	1.000	-0.440
2020/01/31 22:03:30.4	95.160	-0.260	1.010	-0.500
2020/01/31 22:03:30.5	95.170	-0.290	1.000	-0.550
2020/01/31 22:03:30.6	95.190	-0.320	0.980	-0.610
2020/01/31 22:03:30.7	95.200	-0.340	0.960	-0.660
2020/01/31 22:03:30.8	95.220	-0.370	0.930	-0.720
2020/01/31 22:03:30.9	95.240	-0.390	0.900	-0.770
2020/01/31 22:03:31.0	95.260	-0.410	0.860	-0.820
2020/01/31 22:03:31.1	95.280	-0.420	0.810	-0.870
2020/01/31 22:03:31.2	95.300	-0.430	0.750	-0.920
2020/01/31 22:03:31.3	95.320	-0.440	0.690	-0.960
2020/01/31 22:03:31.4	95.350	-0.450	0.630	-1.000
2020/01/31 22:03:31.5	95.370	-0.450	0.560	-1.040
2020/01/31 22:03:31.6	95.400	-0.460	0.490	-1.080
2020/01/31 22:03:31.7	95.420	-0.460	0.410	-1.120
2020/01/31 22:03:31.8	95.450	-0.450	0.340	-1.150
2020/01/31 22:03:31.9	95.480	-0.450	0.260	-1.180
2020/01/31 22:03:32.0	95.500	-0.450	0.170	-1.200
2020/01/31 22:03:32.1	95.530	-0.440	0.100	-1.220
2020/01/31 22:03:32.2	95.560	-0.430	0.020	-1.240
2020/01/31 22:03:32.3	95.580	-0.420	-0.060	-1.240
2020/01/31 22:03:32.4	95.600	-0.410	-0.140	-1.240
2020/01/31 22:03:32.5	95.620	-0.400	-0.220	-1.240
2020/01/31 22:03:32.6	95.640	-0.390	-0.290	-1.230
2020/01/31 22:03:32.7	95.660	-0.370	-0.360	-1.210
2020/01/31 22:03:32.8	95.670	-0.360	-0.420	-1.180
2020/01/31 22:03:32.9	95.680	-0.340	-0.490	-1.150
2020/01/31 22:03:33.0	95.680	-0.330	-0.540	-1.110
2020/01/31 22:03:33.1	95.680	-0.320	-0.600	-1.070
2020/01/31 22:03:33.2	95.690	-0.300	-0.650	-1.020
2020/01/31 22:03:33.3	95.690	-0.290	-0.690	-0.960
2020/01/31 22:03:33.4	95.680	-0.280	-0.730	-0.900
2020/01/31 22:03:33.5	95.680	-0.260	-0.760	-0.840
2020/01/31 22:03:33.6	95.670	-0.250	-0.790	-0.770
2020/01/31 22:03:33.7	95.660	-0.240	-0.810	-0.690
2020/01/31 22:03:33.8	95.650	-0.230	-0.830	-0.610
2020/01/31 22:03:33.9	95.640	-0.220	-0.840	-0.530
2020/01/31 22:03:34.0	95.620	-0.210	-0.840	-0.450
2020/01/31 22:03:34.1	95.600	-0.200	-0.840	-0.360
2020/01/31 22:03:34.2	95.580	-0.200	-0.840	-0.280
2020/01/31 22:03:34.3	95.570	-0.190	-0.830	-0.190
2020/01/31 22:03:34.4	95.550	-0.180	-0.810	-0.110
2020/01/31 22:03:34.5	95.530	-0.180	-0.790	-0.020
2020/01/31 22:03:34.6	95.510	-0.170	-0.770	0.070
2020/01/31 22:03:34.7	95.480	-0.170	-0.740	0.150
2020/01/31 22:03:34.8	95.460	-0.170	-0.710	0.240
2020/01/31 22:03:34.9	95.440	-0.160	-0.680	0.320
2020/01/31 22:03:35.0	95.420	-0.160	-0.640	0.400
2020/01/31 22:03:35.1	95.400	-0.160	-0.600	0.480
2020/01/31 22:03:35.2	95.370	-0.160	-0.560	0.560
2020/01/31 22:03:35.3	95.350	-0.150	-0.510	0.630
2020/01/31 22:03:35.4	95.330	-0.150	-0.470	0.710
2020/01/31 22:03:35.5	95.310	-0.150	-0.430	0.780
2020/01/31 22:03:35.6	95.280	-0.140	-0.380	0.840
2020/01/31 22:03:35.7	95.260	-0.140	-0.340	0.910
2020/01/31 22:03:35.8	95.240	-0.130	-0.300	0.970
2020/01/31 22:03:35.9	95.210	-0.120	-0.260	1.030
2020/01/31 22:03:36.0	95.190	-0.110	-0.220	1.090
2020/01/31 22:03:36.1	95.170	-0.110	-0.180	1.150
2020/01/31 22:03:36.2	95.150	-0.090	-0.150	1.200
2020/01/31 22:03:36.3	95.130	-0.080	-0.120	1.240
2020/01/31 22:03:36.4	95.110	-0.070	-0.090	1.280
2020/01/31 22:03:36.5	95.090	-0.050	-0.070	1.320
2020/01/31 22:03:36.6	95.070	-0.040	-0.050	1.350
2020/01/31 22:03:36.7	95.050	-0.020	-0.040	1.380
2020/01/31 22:03:36.8	95.030	-0.000	-0.030	1.400
2020/01/31 22:03:36.9	95.020	0.020	-0.020	1.420
2020/01/31 22:03:37.0	95.000	0.040	-0.020	1.440
2020/01/31 22:03:37.1	94.990	0.060	-0.030	1.440
2020/01/31 22:03:37.2	94.980	0.090	-0.040	1.450
2020/01/31 22:03:37.3	94.970	0.110	-0.050	1.450
2020/01/31 22:03:37.4	94.960	0.140	-0.070	1.440
2020/01/31 22:03:37.5	94.960	0.160	-0.090	1.430
2020/01/31 22:03:37.6	94.950	0.190	-0.110	1.410
2020/01/31 22:03:37.7	94.950	0.210	-0.140	1.390
2020/01/31 22:03:37.8	94.960	0.240	-0.170	1.360
2020/01/31 22:03:37.9	94.960	0.260	-0.200	1.330
2020/01/31 22:03:38.0	94.970	0.290	-0.230	1.300
2020/01/31 22:03:38.1	94.980	0.310	-0.270	1.260
2020/01/31 22:03:38.2	94.990	0.330	-0.300	1.220
2020/01/31 22:03:38.3	95.010	0.360	-0.340	1.170
2020/01/31 22:03:38.4	95.030	0.380	-0.370	1.120
2020/01/31 22:03:38.5	95.040	0.400	-0.410	1.070
2020/01/31 22:03:38.6	95.070	0.410	-0.440	1.010
2020/01/31 22:03:38.7	95.090	0.430	-0.470	0.960
2020/01/31 22:03:38.8	95.110	0.440	-0.500	0.900
2020/01/31 22:03:38.9	95.140	0.460	-0.520	0.840
2020/01/31 22:03:39.0	95.160	0.470	-0.550	0.780
2020/01/31 22:03:39.1	95.190	0.470	-0.570	0.720
2020/01/31 22:03:39.2	95.220	0.480	-0.580	0.660
2020/01/31 22:03:39.3	95.250	0.480	-0.590	0.600
2020/01/31 22:03:39.4	95.280	0.480	-0.600	0.550
2020/01/31 22:03:39.5	95.310	0.480	-0.600	0.500
2020/01/31 22:03:39.6	95.330	0.470	-0.600	0.440
2020/01/31 22:03:39.7	95.360	0.460	-0.600	0.390
2020/01/31 22:03:39.8	95.380	0.450	-0.590	0.350
2020/01/31 22:03:39.9	95.410	0.440	-0.570	0.300
2020/01/31 22:03:40.0	95.410	0.420	-0.550	0.270
2020/01/31 22:03:40.1	95.430	0.400	-0.520	0.230
2020/01/31 22:03:40.2	95.450	0.380	-0.490	0.200
2020/01/31 22:03:40.3	95.460	0.360	-0.460	0.170
2020/01/31 22:03:40.4	95.470	0.330	-0.420	0.140
2020/01/31 22:03:40.5	95.480	0.300	-0.380	0.120
2020/01/31 22:03:40.6	95.490	0.270	-0.330	0.100
2020/01/31 22:03:40.7	95.490	0.240	-0.280	0.080
2020/01/31 22:03:40.8	95.490	0.210	-0.230	0.070
2020/01/31 22:03:40.9	95.480	0.170	-0.180	0.060
2020/01/31 22:03:41.0	95.480	0.140	-0.120	0.060
2020/01/31 22:03:41.1	95.470	0.100	-0.070	0.050
2020/01/31 22:03:41.2	95.450	0.070	-0.010	0.050
2020/01/31 22:03:41.3	95.440	0.030	0.050	0.060
2020/01/31 22:03:41.4	95.420	-0.010	0.110	0.060
2020/01/31 22:03:41.5	95.410	-0.040	0.170	0.070
2020/01/31 22:03:41.6	95.390	-0.080	0.220	0.080
2020/01/31 22:03:41.7	95.360	-0.120	0.280	0.090
2020/01/31 22:03:41.8	95.340	-0.150	0.330	0.110
2020/01/31 22:03:41.9	95.310	-0.190	0.380	0.120
2020/01/31 22:03:42.0	95.290	-0.220	0.430	0.140
2020/01/31 22:03:42.1	95.260	-0.250	0.470	0.150
2020/01/31 22:03:42.2	95.230	-0.280	0.510	0.170
2020/01/31 22:03:42.3	95.200	-0.310	0.550	0.190
2020/01/31 22:03:42.4	95.170	-0.330	0.580	0.210
2020/01/31 22:03:42.5	95.140	-0.350	0.600	0.230
2020/01/31 22:03:42.6	95.110	-0.370	0.620	0.240
2020/01/31 22:03:42.7	95.080	-0.390	0.640	0.260
2020/01/31 22:03:42.8	95.050	-0.400	0.650	0.280
2020/01/31 22:03:42.9	95.020	-0.410	0.650	0.290
2020/01/31 22:03:43.0	94.990	-0.420	0.650	0.310
2020/01/31 22:03:43.1	94.960	-0.430	0.640	0.320
2020/01/31 22:03:43.2	94.940	-0.430	0.620	0.330
2020/01/31 22:03:43.3	94.910	-0.430	0.600	0.340
2020/01/31 22:03:43.4	94.880	-0.420	0.570	0.350
2020/01/31 22:03:43.5	94.860	-0.410	0.530	0.360
2020/01/31 22:03:43.6	94.840	-0.400	0.490	0.370
2020/01/31 22:03:43.7	94.820	-0.380	0.440	0.370
2020/01/31 22:03:43.8	94.800	-0.370	0.390	0.380
2020/01/31 22:03:43.9	94.780	-0.350	0.340	0.380
2020/01/31 22:03:44.0	94.780	-0.320	0.270	0.380
2020/01/31 22:03:44.1	94.760	-0.300	0.210	0.380
2020/01/31 22:03:44.2	94.750	-0.270	0.140	0.370
2020/01/31 22:03:44.3	94.740	-0.240	0.070	0.370
2020/01/31 22:03:44.4	94.730	-0.210	-0.000	0.360
2020/01/31 22:03:44.5	94.730	-0.170	-0.080	0.350
2020/01/31 22:03:44.6	94.720	-0.140	-0.150	0.340
2020/01/31 22:03:44.7	94.720	-0.100	-0.230	0.320
2020/01/31 22:03:44.8	94.720	-0.070	-0.300	0.300
2020/01/31 22:03:44.9	94.720	-0.030	-0.370	0.280
2020/01/31 22:03:45.0	94.730	0.010	-0.440	0.260
2020/01/31 22:03:45.1	94.740	0.040	-0.510	0.240
2020/01/31 22:03:45.2	94.750	0.080	-0.580	0.210
2020/01/31 22:03:45.3	94.760	0.110	-0.640	0.190
2020/01/31 22:03:45.4	94.770	0.150	-0.690	0.160
2020/01/31 22:03:45.5	94.780	0.180	-0.750	0.130
2020/01/31 22:03:45.6	94.800	0.210	-0.800	0.100
2020/01/31 22:03:45.7	94.810	0.240	-0.840	0.070
2020/01/31 22:03:45.8	94.830	0.260	-0.870	0.040
2020/01/31 22:03:45.9	94.850	0.280	-0.900	0.000
2020/01/31 22:03:46.0	94.860	0.300	-0.930	-0.030
2020/01/31 22:03:46.1	94.880	0.320	-0.940	-0.060
2020/01/31 22:03:46.2	94.890	0.340	-0.950	-0.090
2020/01/31 22:03:46.3	94.910	0.350	-0.950	-0.120
2020/01/31 22:03:46.4	94.920	0.360	-0.950	-0.150
2020/01/31 22:03:46.5	94.940	0.370	-0.930	-0.180
2020/01/31 22:03:46.6	94.950	0.370	-0.910	-0.200
2020/01/31 22:03:46.7	94.970	0.370	-0.890	-0.230
2020/01/31 22:03:46.8	94.980	0.370	-0.860	-0.250
2020/01/31 22:03:46.9	94.990	0.360	-0.820	-0.270
2020/01/31 22:03:47.0	95.000	0.360	-0.780	-0.290
2020/01/31 22:03:47.1	95.010	0.350	-0.730	-0.300
2020/01/31 22:03:47.2	95.030	0.340	-0.680	-0.310
2020/01/31 22:03:47.3	95.030	0.320	-0.630	-0.320
2020/01/31 22:03:47.4	95.040	0.310	-0.570	-0.330
2020/01/31 22:03:47.5	95.050	0.290	-0.510	-0.330
2020/01/31 22:03:47.6	95.060	0.270	-0.450	-0.330
2020/01/31 22:03:47.7	95.070	0.250	-0.380	-0.330
2020/01/31 22:03:47.8	95.070	0.230	-0.320	-0.320
2020/01/31 22:03:47.9	95.080	0.210	-0.250	-0.320
2020/01/31 22:03:48.0	95.090	0.190	-0.190	-0.310
2020/01/31 22:03:48.1	95.090	0.160	-0.130	-0.290
2020/01/31 22:03:48.2	95.090	0.140	-0.060	-0.270
2020/01/31 22:03:48.3	95.100	0.110	-0.010	-0.250
2020/01/31 22:03:48.4	95.100	0.090	0.050	-0.220
2020/01/31 22:03:48.5	95.100	0.070	0.100	-0.190
2020/01/31 22:03:48.6	95.100	0.040	0.150	-0.160
2020/01/31 22:03:48.7	95.100	0.020	0.190	-0.130
2020/01/31 22:03:48.8	95.090	-0.000	0.230	-0.090
2020/01/31 22:03:48.9	95.090	-0.030	0.270	-0.050
2020/01/31 22:03:49.0	95.070	-0.050	0.300	-0.010
2020/01/31 22:03:49.1	95.060	-0.070	0.320	0.040
2020/01/31 22:03:49.2	95.060	-0.090	0.340	0.080
2020/01/31 22:03:49.3	95.040	-0.110	0.350	0.130
2020/01/31 22:03:49.4	95.030	-0.130	0.360	0.180
2020/01/31 22:03:49.5	95.020	-0.140	0.360	0.240
2020/01/31 22:03:49.6	95.000	-0.160	0.360	0.290
2020/01/31 22:03:49.7	94.980	-0.170	0.350	0.350
2020/01/31 22:03:49.8	94.960	-0.190	0.340	0.400
2020/01/31 22:03:49.9	94.940	-0.200	0.320	0.460
2020/01/31 22:03:50.0	94.930	-0.210	0.300	0.520
2020/01/31 22:03:50.1	94.900	-0.220	0.270	0.590
2020/01/31 22:03:50.2	94.880	-0.230	0.240	0.650
2020/01/31 22:03:50.3	94.860	-0.240	0.200	0.710
2020/01/31 22:03:50.4	94.830	-0.240	0.160	0.780
2020/01/31 22:03:50.5	94.810	-0.250	0.120	0.840
2020/01/31 22:03:50.6	94.780	-0.250	0.080	0.910
2020/01/31 22:03:50.7	94.760	-0.260	0.030	0.970
2020/01/31 22:03:50.8	94.730	-0.260	-0.010	1.030
2020/01/31 22:03:50.9	94.710	-0.260	-0.060	1.100
2020/01/31 22:03:51.0	94.680	-0.260	-0.110	1.160
2020/01/31 22:03:51.1	94.660	-0.260	-0.160	1.220
2020/01/31 22:03:51.2	94.640	-0.260	-0.210	1.270
2020/01/31 22:03:51.3	94.620	-0.260	-0.250	1.330
2020/01/31 22:03:51.4	94.610	-0.260	-0.300	1.380
2020/01/31 22:03:51.5	94.590	-0.250	-0.340	1.430
2020/01/31 22:03:51.6	94.580	-0.250	-0.380	1.480
2020/01/31 22:03:51.7	94.570	-0.250	-0.420	1.520
2020/01/31 22:03:51.8	94.550	-0.240	-0.450	1.560
2020/01/31 22:03:51.9	94.550	-0.240	-0.480	1.590
2020/01/31 22:03:52.0	94.540	-0.230	-0.510	1.620
2020/01/31 22:03:52.1	94.540	-0.230	-0.530	1.650
2020/01/31 22:03:52.2	94.530	-0.220	-0.550	1.670
2020/01/31 22:03:52.3	94.530	-0.220	-0.570	1.690
2020/01/31 22:03:52.4	94.530	-0.210	-0.580	1.700
2020/01/31 22:03:52.5	94.530	-0.200	-0.590	1.710
2020/01/31 22:03:52.6	94.530	-0.190	-0.590	1.720
2020/01/31 22:03:52.7	94.530	-0.180	-0.590	1.720
2020/01/31 22:03:52.8	94.530	-0.180	-0.590	1.720
2020/01/31 22:03:52.9	94.530	-0.170	-0.580	1.720
2020/01/31 22:03:53.0	94.530	-0.160	-0.570	1.710
2020/01/31 22:03:53.1	94.530	-0.150	-0.550	1.700
2020/01/31 22:03:53.2	94.530	-0.140	-0.540	1.690
2020/01/31 22:03:53.3	94.530	-0.130	-0.510	1.680
2020/01/31 22:03:53.4	94.530	-0.120	-0.490	1.660
2020/01/31 22:03:53.5	94.530	-0.110	-0.460	1.650
2020/01/31 22:03:53.6	94.530	-0.100	-0.430	1.630
2020/01/31 22:03:53.7	94.530	-0.090	-0.400	1.600
2020/01/31 22:03:53.8	94.520	-0.080	-0.370	1.580
2020/01/31 22:03:53.9	94.520	-0.080	-0.330	1.550
2020/01/31 22:03:54.0	94.510	-0.070	-0.300	1.530
2020/01/31 22:03:54.1	94.510	-0.060	-0.260	1.500
2020/01/31 22:03:54.2	94.500	-0.050	-0.220	1.460
2020/01/31 22:03:54.3	94.500	-0.040	-0.190	1.430
2020/01/31 22:03:54.4	94.490	-0.040	-0.150	1.400
2020/01/31 22:03:54.5	94.480	-0.030	-0.110	1.360
2020/01/31 22:03:54.6	94.470	-0.020	-0.070	1.320
2020/01/31 22:03:54.7	94.460	-0.010	-0.040	1.280
2020/01/31 22:03:54.8	94.450	-0.010	-0.000	1.240
2020/01/31 22:03:54.9	94.440	-0.000	0.030	1.200
2020/01/31 22:03:55.0	94.440	0.010	0.070	1.150
2020/01/31 22:03:55.1	94.430	0.010	0.100	1.100
2020/01/31 22:03:55.2	94.420	0.020	0.120	1.050
2020/01/31 22:03:55.3	94.410	0.030	0.150	1.000
2020/01/31 22:03:55.4	94.400	0.030	0.170	0.940
2020/01/31 22:03:55.5	94.390	0.040	0.180	0.890
2020/01/31 22:03:55.6	94.380	0.050	0.200	0.830
2020/01/31 22:03:55.7	94.370	0.060	0.210	0.760
2020/01/31 22:03:55.8	94.360	0.060	0.210	0.700
2020/01/31 22:03:55.9	94.360	0.070	0.220	0.640
2020/01/31 22:03:56.0	94.360	0.080	0.210	0.570
2020/01/31 22:03:56.1	94.350	0.090	0.210	0.500
2020/01/31 22:03:56.2	94.340	0.100	0.200	0.430
2020/01/31 22:03:56.3	94.340	0.110	0.180	0.360
2020/01/31 22:03:56.4	94.330	0.120	0.170	0.290
2020/01/31 22:03:56.5	94.320	0.130	0.150	0.210
2020/01/31 22:03:56.6	94.320	0.140	0.120	0.140
2020/01/31 22:03:56.7	94.310	0.160	0.100	0.060
2020/01/31 22:03:56.8	94.310	0.170	0.070	-0.010
2020/01/31 22:03:56.9	94.300	0.180	0.030	-0.090
2020/01/31 22:03:57.0	94.290	0.200	-0.010	-0.170
2020/01/31 22:03:57.1	94.290	0.210	-0.040	-0.240
2020/01/31 22:03:57.2	94.280	0.230	-0.080	-0.310
2020/01/31 22:03:57.3	94.280	0.250	-0.120	-0.390
2020/01/31 22:03:57.4	94.280	0.260	-0.160	-0.460
2020/01/31 22:03:57.5	94.280	0.280	-0.210	-0.530
2020/01/31 22:03:57.6	94.270	0.300	-0.250	-0.600
2020/01/31 22:03:57.7	94.270	0.320	-0.290	-0.670
2020/01/31 22:03:57.8	94.280	0.330	-0.330	-0.740
2020/01/31 22:03:57.9	94.280	0.350	-0.370	-0.810
2020/01/31 22:03:58.0	94.270	0.370	-0.410	-0.870
2020/01/31 22:03:58.1	94.280	0.390	-0.450	-0.930
2020/01/31 22:03:58.2	94.280	0.400	-0.480	-0.990
2020/01/31 22:03:58.3	94.290	0.420	-0.510	-1.050
2020/01/31 22:03:58.4	94.300	0.440	-0.540	-1.100
2020/01/31 22:03:58.5	94.310	0.450	-0.570	-1.140
2020/01/31 22:03:58.6	94.320	0.470	-0.590	-1.190
2020/01/31 22:03:58.7	94.330	0.480	-0.610	-1.220
2020/01/31 22:03:58.8	94.340	0.490	-0.630	-1.260
2020/01/31 22:03:58.9	94.360	0.500	-0.640	-1.290
2020/01/31 22:03:59.0	94.380	0.510	-0.650	-1.310
2020/01/31 22:03:59.1	94.390	0.510	-0.650	-1.320
2020/01/31 22:03:59.2	94.400	0.520	-0.650	-1.340
2020/01/31 22:03:59.3	94.410	0.520	-0.640	-1.340
2020/01/31 22:03:59.4	94.420	0.520	-0.630	-1.340
2020/01/31 22:03:59.5	94.430	0.510	-0.610	-1.330
2020/01/31 22:03:59.6	94.440	0.500	-0.590	-1.310
2020/01/31 22:03:59.7	94.450	0.490	-0.560	-1.290
2020/01/31 22:03:59.8	94.460	0.480	-0.530	-1.260
2020/01/31 22:03:59.9	94.460	0.460	-0.500	-1.220
2020/01/31 22:04:00.0	94.470	0.440	-0.460	-1.180
2020/01/31 22:04:00.1	94.470	0.420	-0.420	-1.130
2020/01/31 22:04:00.2	94.470	0.400	-0.370	-1.070
2020/01/31 22:04:00.3	94.470	0.370	-0.320	-1.010
2020/01/31 22:04:00.4	94.460	0.340	-0.270	-0.950
2020/01/31 22:04:00.5	94.450	0.300	-0.220	-0.870
2020/01/31 22:04:00.6	94.440	0.260	-0.170	-0.800
2020/01/31 22:04:00.7	94.430	0.220	-0.110	-0.720
2020/01/31 22:04:00.8	94.420	0.180	-0.060	-0.630
2020/01/31 22:04:00.9	94.400	0.140	-0.000	-0.550
2020/01/31 22:04:01.0	94.390	0.090	0.060	-0.460
2020/01/31 22:04:01.1	94.370	0.040	0.120	-0.370
2020/01/31 22:04:01.2	94.350	-0.010	0.170	-0.280
2020/01/31 22:04:01.3	94.330	-0.060	0.220	-0.180
2020/01/31 22:04:01.4	94.310	-0.110	0.270	-0.090
2020/01/31 22:04:01.5	94.290	-0.160	0.310	0.000
2020/01/31 22:04:01.6	94.270	-0.210	0.360	0.090
2020/01/31 22:04:01.7	94.250	-0.260	0.390	0.180
2020/01/31 22:04:01.8	94.230	-0.300	0.430	0.270
2020/01/31 22:04:01.9	94.210	-0.350	0.460	0.360
2020/01/31 22:04:02.0	94.190	-0.400	0.480	0.450
2020/01/31 22:04:02.1	94.170	-0.440	0.490	0.530
2020/01/31 22:04:02.2	94.160	-0.480	0.510	0.610
2020/01/31 22:04:02.3	94.140	-0.520	0.520	0.690
2020/01/31 22:04:02.4	94.130	-0.550	0.520	0.770
2020/01/31 22:04:02.5	94.110	-0.580	0.510	0.850
2020/01/31 22:04:02.6	94.100	-0.610	0.500	0.920
2020/01/31 22:04:02.7	94.090	-0.640	0.490	1.000
2020/01/31 22:04:02.8	94.080	-0.660	0.460	1.070
2020/01/31 22:04:02.9	94.070	-0.670	0.440	1.130
2020/01/31 22:04:03.0	94.060	-0.680	0.410	1.200
2020/01/31 22:04:03.1	94.050	-0.690	0.370	1.260
2020/01/31 22:04:03.2	94.050	-0.690	0.320	1.330
2020/01/31 22:04:03.3	94.050	-0.690	0.280	1.380
2020/01/31 22:04:03.4	94.040	-0.690	0.220	1.440
2020/01/31 22:04:03.5	94.040	-0.680	0.170	1.500
2020/01/31 22:04:03.6	94.040	-0.660	0.110	1.550
2020/01/31 22:04:03.7	94.040	-0.640	0.040	1.610
2020/01/31 22:04:03.8	94.040	-0.620	-0.020	1.660
2020/01/31 22:04:03.9	94.040	-0.600	-0.090	1.710
2020/01/31 22:04:04.0	94.040	-0.570	-0.160	1.760
2020/01/31 22:04:04.1	94.040	-0.540	-0.220	1.810
2020/01/31 22:04:04.2	94.040	-0.510	-0.290	1.860
2020/01/31 22:04:04.3	94.050	-0.470	-0.360	1.900
2020/01/31 22:04:04.4	94.050	-0.440	-0.420	1.940
2020/01/31 22:04:04.5	94.050	-0.400	-0.480	1.980
2020/01/31 22:04:04.6	94.050	-0.360	-0.540	2.020
2020/01/31 22:04:04.7	94.050	-0.320	-0.600	2.050
2020/01/31 22:04:04.8	94.050	-0.280	-0.650	2.080
2020/01/31 22:04:04.9	94.050	-0.240	-0.700	2.110
2020/01/31 22:04:05.0	94.050	-0.200	-0.740	2.130
2020/01/31 22:04:05.1	94.050	-0.160	-0.780	2.150
2020/01/31 22:04:05.2	94.050	-0.120	-0.810	2.160
2020/01/31 22:04:05.3	94.060	-0.080	-0.840	2.170
2020/01/31 22:04:05.4	94.060	-0.050	-0.860	2.180
2020/01/31 22:04:05.5	94.070	-0.010	-0.880	2.170
2020/01/31 22:04:05.6	94.070	0.020	-0.890	2.170
2020/01/31 22:04:05.7	94.080	0.050	-0.890	2.160
2020/01/31 22:04:05.8	94.090	0.080	-0.890	2.140
2020/01/31 22:04:05.9	94.090	0.110	-0.880	2.120
2020/01/31 22:04:06.0	94.110	0.140	-0.870	2.090
2020/01/31 22:04:06.1	94.120	0.160	-0.850	2.050
2020/01/31 22:04:06.2	94.130	0.180	-0.830	2.010
2020/01/31 22:04:06.3	94.140	0.200	-0.810	1.970
2020/01/31 22:04:06.4	94.150	0.210	-0.770	1.920
2020/01/31 22:04:06.5	94.160	0.230	-0.740	1.860
2020/01/31 22:04:06.6	94.170	0.240	-0.700	1.800
2020/01/31 22:04:06.7	94.190	0.250	-0.660	1.740
2020/01/31 22:04:06.8	94.200	0.260	-0.610	1.670
2020/01/31 22:04:06.9	94.210	0.260	-0.570	1.600
2020/01/31 22:04:07.0	94.220	0.270	-0.520	1.520
2020/01/31 22:04:07.1	94.230	0.270	-0.470	1.440
2020/01/31 22:04:07.2	94.240	0.270	-0.420	1.360
2020/01/31 22:04:07.3	94.260	0.270	-0.360	1.280
2020/01/31 22:04:07.4	94.270	0.260	-0.310	1.200
2020/01/31 22:04:07.5	94.280	0.260	-0.260	1.110
2020/01/31 22:04:07.6	94.290	0.250	-0.210	1.030
2020/01/31 22:04:07.7	94.300	0.250	-0.150	0.940
2020/01/31 22:04:07.8	94.300	0.240	-0.100	0.860
2020/01/31 22:04:07.9	94.310	0.230	-0.050	0.770
2020/01/31 22:04:08.0	94.310	0.220	-0.000	0.690
2020/01/31 22:04:08.1	94.310	0.220	0.040	0.610
2020/01/31 22:04:08.2	94.310	0.210	0.090	0.540
2020/01/31 22:04:08.3	94.310	0.200	0.130	0.460
2020/01/31 22:04:08.4	94.310	0.190	0.170	0.390
2020/01/31 22:04:08.5	94.310	0.180	0.200	0.320
2020/01/31 22:04:08.6	94.300	0.170	0.230	0.260
2020/01/31 22:04:08.7	94.290	0.160	0.260	0.190
2020/01/31 22:04:08.8	94.290	0.150	0.290	0.130
2020/01/31 22:04:08.9	94.270	0.140	0.310	0.080
2020/01/31 22:04:09.0	94.260	0.130	0.330	0.020
2020/01/31 22:04:09.1	94.250	0.120	0.340	-0.030
2020/01/31 22:04:09.2	94.240	0.110	0.350	-0.070
2020/01/31 22:04:09.3	94.220	0.100	0.360	-0.120
2020/01/31 22:04:09.4	94.210	0.090	0.370	-0.160
2020/01/31 22:04:09.5	94.190	0.080	0.370	-0.200
2020/01/31 22:04:09.6	94.180	0.070	0.370	-0.240
2020/01/31 22:04:09.7	94.160	0.070	0.360	-0.270
2020/01/31 22:04:09.8	94.140	0.060	0.350	-0.310
2020/01/31 22:04:09.9	94.130	0.050	0.340	-0.340
2020/01/31 22:04:10.0	94.120	0.040	0.320	-0.370
2020/01/31 22:04:10.1	94.100	0.030	0.300	-0.400
2020/01/31 22:04:10.2	94.090	0.030	0.280	-0.430
2020/01/31 22:04:10.3	94.070	0.020	0.250	-0.460
2020/01/31 22:04:10.4	94.060	0.010	0.220	-0.490
2020/01/31 22:04:10.5	94.050	0.010	0.190	-0.520
2020/01/31 22:04:10.6	94.040	0.000	0.150	-0.550
2020/01/31 22:04:10.7	94.030	0.000	0.120	-0.580
2020/01/31 22:04:10.8	94.030	-0.000	0.070	-0.610
2020/01/31 22:04:10.9	94.020	-0.000	0.030	-0.640
2020/01/31 22:04:11.0	94.020	-0.000	-0.020	-0.670
2020/01/31 22:04:11.1	94.020	-0.000	-0.060	-0.700
2020/01/31 22:04:11.2	94.020	-0.000	-0.120	-0.730
2020/01/31 22:04:11.3	94.020	-0.000	-0.170	-0.760
2020/01/31 22:04:11.4	94.030	0.000	-0.220	-0.790
2020/01/31 22:04:11.5	94.030	0.010	-0.280	-0.820
2020/01/31 22:04:11.6	94.040	0.010	-0.330	-0.850
2020/01/31 22:04:11.7	94.050	0.020	-0.390	-0.880
2020/01/31 22:04:11.8	94.060	0.030	-0.440	-0.900
2020/01/31 22:04:11.9	94.080	0.040	-0.500	-0.930
2020/01/31 22:04:12.0	94.100	0.050	-0.550	-0.960
2020/01/31 22:04:12.1	94.120	0.060	-0.610	-0.980
2020/01/31 22:04:12.2	94.140	0.080	-0.660	-1.000
2020/01/31 22:04:12.3	94.160	0.090	-0.700	-1.020
2020/01/31 22:04:12.4	94.180	0.110	-0.750	-1.040
2020/01/31 22:04:12.5	94.200	0.120	-0.790	-1.050
2020/01/31 22:04:12.6	94.230	0.140	-0.820	-1.060
2020/01/31 22:04:12.7	94.250	0.150	-0.850	-1.070
2020/01/31 22:04:12.8	94.280	0.170	-0.880	-1.080
2020/01/31 22:04:12.9	94.310	0.180	-0.900	-1.080
2020/01/31 22:04:13.0	94.340	0.200	-0.910	-1.070
2020/01/31 22:04:13.1	94.370	0.210	-0.920	-1.070
2020/01/31 22:04:13.2	94.400	0.220	-0.920	-1.060
2020/01/31 22:04:13.3	94.430	0.230	-0.920	-1.050
2020/01/31 22:04:13.4	94.460	0.240	-0.900	-1.040
2020/01/31 22:04:13.5	94.490	0.250	-0.880	-1.020
2020/01/31 22:04:13.6	94.530	0.260	-0.860	-1.000
2020/01/31 22:04:13.7	94.560	0.260	-0.820	-0.980
2020/01/31 22:04:13.8	94.590	0.270	-0.780	-0.950
2020/01/31 22:04:13.9	94.620	0.270	-0.740	-0.920
2020/01/31 22:04:14.0	94.640	0.260	-0.680	-0.880
2020/01/31 22:04:14.1	94.670	0.260	-0.620	-0.840
2020/01/31 22:04:14.2	94.700	0.250	-0.560	-0.790
2020/01/31 22:04:14.3	94.720	0.240	-0.490	-0.740
2020/01/31 22:04:14.4	94.740	0.230	-0.410	-0.690
2020/01/31 22:04:14.5	94.760	0.210	-0.330	-0.630
2020/01/31 22:04:14.6	94.780	0.200	-0.240	-0.560
2020/01/31 22:04:14.7	94.800	0.180	-0.160	-0.490
2020/01/31 22:04:14.8	94.810	0.160	-0.070	-0.410
2020/01/31 22:04:14.9	94.820	0.130	0.030	-0.330
2020/01/31 22:04:15.0	94.830	0.100	0.120	-0.240
2020/01/31 22:04:15.1	94.830	0.080	0.210	-0.160
2020/01/31 22:04:15.2	94.830	0.050	0.310	-0.070
2020/01/31 22:04:15.3	94.840	0.020	0.400	0.030
2020/01/31 22:04:15.4	94.830	-0.020	0.490	0.120
2020/01/31 22:04:15.5	94.830	-0.050	0.570	0.220
2020/01/31 22:04:15.6	94.820	-0.080	0.650	0.320
2020/01/31 22:04:15.7	94.820	-0.120	0.730	0.430
2020/01/31 22:04:15.8	94.810	-0.150	0.800	0.530
2020/01/31 22:04:15.9	94.800	-0.190	0.870	0.630
2020/01/31 22:04:16.0	94.780	-0.220	0.920	0.730
2020/01/31 22:04:16.1	94.770	-0.260	0.970	0.830
2020/01/31 22:04:16.2	94.760	-0.290	1.010	0.930
2020/01/31 22:04:16.3	94.750	-0.320	1.050	1.030
2020/01/31 22:04:16.4	94.740	-0.350	1.070	1.130
2020/01/31 22:04:16.5	94.730	-0.380	1.080	1.220
2020/01/31 22:04:16.6	94.730	-0.410	1.080	1.310
2020/01/31 22:04:16.7	94.720	-0.430	1.070	1.400
2020/01/31 22:04:16.8	94.710	-0.450	1.050	1.480
2020/01/31 22:04:16.9	94.710	-0.470	1.020	1.560
2020/01/31 22:04:17.0	94.700	-0.490	0.980	1.640
2020/01/31 22:04:17.1	94.700	-0.500	0.930	1.710
2020/01/31 22:04:17.2	94.700	-0.510	0.870	1.780
2020/01/31 22:04:17.3	94.700	-0.520	0.800	1.840
2020/01/31 22:04:17.4	94.700	-0.520	0.720	1.900
2020/01/31 22:04:17.5	94.700	-0.520	0.640	1.950
2020/01/31 22:04:17.6	94.700	-0.520	0.540	2.000
2020/01/31 22:04:17.7	94.700	-0.510	0.440	2.050
2020/01/31 22:04:17.8	94.700	-0.500	0.330	2.090
2020/01/31 22:04:17.9	94.710	-0.490	0.220	2.130
2020/01/31 22:04:18.0	94.710	-0.480	0.100	2.160
2020/01/31 22:04:18.1	94.710	-0.460	-0.020	2.190
2020/01/31 22:04:18.2	94.720	-0.440	-0.140	2.220
2020/01/31 22:04:18.3	94.720	-0.420	-0.270	2.250
2020/01/31 22:04:18.4	94.730	-0.390	-0.390	2.270
2020/01/31 22:04:18.5	94.740	-0.360	-0.520	2.280
2020/01/31 22:04:18.6	94.740	-0.330	-0.640	2.300
2020/01/31 22:04:18.7	94.750	-0.300	-0.770	2.310
2020/01/31 22:04:18.8	94.760	-0.270	-0.880	2.320
2020/01/31 22:04:18.9	94.770	-0.230	-1.000	2.330
2020/01/31 22:04:19.0	94.780	-0.200	-1.110	2.330
2020/01/31 22:04:19.1	94.790	-0.160	-1.210	2.330
2020/01/31 22:04:19.2	94.810	-0.130	-1.310	2.340
2020/01/31 22:04:19.3	94.820	-0.090	-1.400	2.330
2020/01/31 22:04:19.4	94.840	-0.050	-1.480	2.330
2020/01/31 22:04:19.5	94.850	-0.020	-1.550	2.320
2020/01/31 22:04:19.6	94.870	0.020	-1.610	2.320
2020/01/31 22:04:19.7	94.890	0.050	-1.660	2.300
2020/01/31 22:04:19.8	94.910	0.080	-1.710	2.290
2020/01/31 22:04:19.9	94.920	0.110	-1.740	2.280
2020/01/31 22:04:20.0	94.930	0.140	-1.750	2.260
2020/01/31 22:04:20.1	94.950	0.170	-1.760	2.240
2020/01/31 22:04:20.2	94.970	0.200	-1.760	2.220
2020/01/31 22:04:20.3	94.990	0.220	-1.740	2.190
2020/01/31 22:04:20.4	95.010	0.240	-1.720	2.170
2020/01/31 22:04:20.5	95.030	0.260	-1.680	2.140
2020/01/31 22:04:20.6	95.050	0.270	-1.630	2.100
2020/01/31 22:04:20.7	95.060	0.280	-1.570	2.070
2020/01/31 22:04:20.8	95.080	0.290	-1.500	2.030
2020/01/31 22:04:20.9	95.090	0.290	-1.410	1.990
2020/01/31 22:04:21.0	95.100	0.290	-1.320	1.940
2020/01/31 22:04:21.1	95.110	0.290	-1.220	1.900
2020/01/31 22:04:21.2	95.120	0.290	-1.110	1.850
2020/01/31 22:04:21.3	95.130	0.280	-1.000	1.790
2020/01/31 22:04:21.4	95.130	0.260	-0.880	1.740
2020/01/31 22:04:21.5	95.140	0.250	-0.750	1.680
2020/01/31 22:04:21.6	95.140	0.230	-0.620	1.620
2020/01/31 22:04:21.7	95.140	0.210	-0.490	1.550
2020/01/31 22:04:21.8	95.140	0.190	-0.350	1.490
2020/01/31 22:04:21.9	95.140	0.160	-0.220	1.420
2020/01/31 22:04:22.0	95.140	0.140	-0.080	1.340
2020/01/31 22:04:22.1	95.140	0.110	0.050	1.270
2020/01/31 22:04:22.2	95.130	0.080	0.180	1.190
2020/01/31 22:04:22.3	95.130	0.050	0.310	1.120
2020/01/31 22:04:22.4	95.120	0.020	0.440	1.040
2020/01/31 22:04:22.5	95.110	-0.010	0.560	0.960
2020/01/31 22:04:22.6	95.100	-0.030	0.670	0.870
2020/01/31 22:04:22.7	95.090	-0.060	0.780	0.790
2020/01/31 22:04:22.8	95.080	-0.090	0.880	0.700
2020/01/31 22:04:22.9	95.070	-0.110	0.970	0.620
2020/01/31 22:04:23.0	95.070	-0.140	1.060	0.530
2020/01/31 22:04:23.1	95.070	-0.160	1.140	0.440
2020/01/31 22:04:23.2	95.060	-0.180	1.200	0.360
2020/01/31 22:04:23.3	95.050	-0.190	1.250	0.270
2020/01/31 22:04:23.4	95.040	-0.210	1.290	0.180
2020/01/31 22:04:23.5	95.030	-0.220	1.320	0.090
2020/01/31 22:04:23.6	95.030	-0.220	1.340	-0.000
2020/01/31 22:04:23.7	95.020	-0.230	1.340	-0.090
2020/01/31 22:04:23.8	95.020	-0.230	1.340	-0.180
2020/01/31 22:04:23.9	95.020	-0.220	1.320	-0.270
2020/01/31 22:04:24.0	95.020	-0.220	1.290	-0.370
2020/01/31 22:04:24.1	95.030	-0.210	1.240	-0.460
2020/01/31 22:04:24.2	95.030	-0.190	1.190	-0.550
2020/01/31 22:04:24.3	95.040	-0.180	1.130	-0.640
2020/01/31 22:04:24.4	95.040	-0.160	1.060	-0.740
2020/01/31 22:04:24.5	95.050	-0.130	0.980	-0.830
2020/01/31 22:04:24.6	95.070	-0.110	0.890	-0.920
2020/01/31 22:04:24.7	95.080	-0.080	0.800	-1.010
2020/01/31 22:04:24.8	95.100	-0.050	0.700	-1.110
2020/01/31 22:04:24.9	95.120	-0.020	0.590	-1.200
2020/01/31 22:04:25.0	95.130	0.010	0.480	-1.290
2020/01/31 22:04:25.1	95.150	0.050	0.370	-1.380
2020/01/31 22:04:25.2	95.170	0.080	0.250	-1.460
2020/01/31 22:04:25.3	95.190	0.120	0.130	-1.540
2020/01/31 22:04:25.4	95.220	0.150	0.020	-1.630
2020/01/31 22:04:25.5	95.240	0.190	-0.100	-1.700
2020/01/31 22:04:25.6	95.260	0.230	-0.220	-1.780
2020/01/31 22:04:25.7	95.290	0.260	-0.330	-1.850
2020/01/31 22:04:25.8	95.310	0.290	-0.440	-1.920
2020/01/31 22:04:25.9	95.340	0.330	-0.550	-1.980
2020/01/31 22:04:26.0	95.360	0.360	-0.660	-2.040
2020/01/31 22:04:26.1	95.380	0.390	-0.750	-2.090
2020/01/31 22:04:26.2	95.400	0.410	-0.840	-2.140
2020/01/31 22:04:26.3	95.430	0.440	-0.930	-2.180
2020/01/31 22:04:26.4	95.450	0.460	-1.000	-2.210
2020/01/31 22:04:26.5	95.470	0.480	-1.070	-2.240
2020/01/31 22:04:26.6	95.480	0.500	-1.130	-2.260
2020/01/31 22:04:26.7	95.500	0.510	-1.180	-2.270
2020/01/31 22:04:26.8	95.520	0.520	-1.230	-2.280
2020/01/31 22:04:26.9	95.530	0.530	-1.260	-2.280
2020/01/31 22:04:27.0	95.550	0.540	-1.280	-2.270
2020/01/31 22:04:27.1	95.560	0.540	-1.290	-2.250
2020/01/31 22:04:27.2	95.560	0.540	-1.300	-2.230
2020/01/31 22:04:27.3	95.570	0.530	-1.300	-2.190
2020/01/31 22:04:27.4	95.580	0.530	-1.300	-2.150
2020/01/31 22:04:27.5	95.580	0.510	-1.280	-2.110
2020/01/31 22:04:27.6	95.580	0.500	-1.260	-2.050
2020/01/31 22:04:27.7	95.580	0.480	-1.220	-1.990
2020/01/31 22:04:27.8	95.570	0.470	-1.180	-1.920
2020/01/31 22:04:27.9	95.570	0.440	-1.140	-1.840
2020/01/31 22:04:28.0	95.550	0.420	-1.090	-1.750
2020/01/31 22:04:28.1	95.540	0.390	-1.040	-1.660
2020/01/31 22:04:28.2	95.530	0.360	-0.970	-1.560
2020/01/31 22:04:28.3	95.520	0.330	-0.900	-1.460
2020/01/31 22:04:28.4	95.500	0.300	-0.830	-1.350
2020/01/31 22:04:28.5	95.490	0.260	-0.760	-1.230
2020/01/31 22:04:28.6	95.470	0.230	-0.680	-1.110
2020/01/31 22:04:28.7	95.460	0.190	-0.600	-0.980
2020/01/31 22:04:28.8	95.440	0.150	-0.520	-0.850
2020/01/31 22:04:28.9	95.430	0.110	-0.440	-0.710
2020/01/31 22:04:29.0	95.400	0.070	-0.350	-0.570
2020/01/31 22:04:29.1	95.380	0.030	-0.270	-0.430
2020/01/31 22:04:29.2	95.370	-0.020	-0.190	-0.280
2020/01/31 22:04:29.3	95.350	-0.060	-0.110	-0.140
2020/01/31 22:04:29.4	95.340	-0.100	-0.030	0.010
2020/01/31 22:04:29.5	95.330	-0.140	0.050	0.160
2020/01/31 22:04:29.6	95.310	-0.180	0.120	0.310
2020/01/31 22:04:29.7	95.300	-0.230	0.190	0.450
2020/01/31 22:04:29.8	95.290	-0.270	0.260	0.600
2020/01/31 22:04:29.9	95.280	-0.310	0.320	0.740
2020/01/31 22:04:30.0	95.270	-0.350	0.380	0.890
2020/01/31 22:04:30.1	95.270	-0.380	0.440	1.030
2020/01/31 22:04:30.2	95.260	-0.420	0.490	1.160
2020/01/31 22:04:30.3	95.260	-0.450	0.540	1.290
2020/01/31 22:04:30.4	95.260	-0.490	0.580	1.420
2020/01/31 22:04:30.5	95.260	-0.520	0.620	1.540
2020/01/31 22:04:30.6	95.260	-0.550	0.650	1.660
2020/01/31 22:04:30.7	95.260	-0.580	0.680	1.770
2020/01/31 22:04:30.8	95.260	-0.600	0.700	1.870
2020/01/31 22:04:30.9	95.270	-0.630	0.720	1.970
2020/01/31 22:04:31.0	95.270	-0.650	0.730	2.060
2020/01/31 22:04:31.1	95.280	-0.670	0.740	2.150
2020/01/31 22:04:31.2	95.290	-0.680	0.740	2.230
2020/01/31 22:04:31.3	95.300	-0.690	0.740	2.300
2020/01/31 22:04:31.4	95.310	-0.700	0.730	2.370
2020/01/31 22:04:31.5	95.330	-0.710	0.720	2.430
2020/01/31 22:04:31.6	95.340	-0.720	0.700	2.480
2020/01/31 22:04:31.7	95.350	-0.720	0.670	2.530
2020/01/31 22:04:31.8	95.370	-0.720	0.640	2.570
2020/01/31 22:04:31.9	95.390	-0.710	0.610	2.610
2020/01/31 22:04:32.0	95.410	-0.710	0.570	2.630
2020/01/31 22:04:32.1	95.420	-0.700	0.520	2.660
2020/01/31 22:04:32.2	95.440	-0.680	0.470	2.670
2020/01/31 22:04:32.3	95.460	-0.670	0.420	2.680
2020/01/31 22:04:32.4	95.480	-0.650	0.360	2.690
2020/01/31 22:04:32.5	95.500	-0.630	0.300	2.690
2020/01/31 22:04:32.6	95.520	-0.600	0.230	2.690
2020/01/31 22:04:32.7	95.540	-0.580	0.160	2.690
2020/01/31 22:04:32.8	95.560	-0.550	0.090	2.680
2020/01/31 22:04:32.9	95.580	-0.520	0.020	2.660
2020/01/31 22:04:33.0	95.600	-0.490	-0.050	2.650
2020/01/31 22:04:33.1	95.620	-0.460	-0.120	2.630
2020/01/31 22:04:33.2	95.640	-0.420	-0.200	2.610
2020/01/31 22:04:33.3	95.660	-0.390	-0.270	2.580
2020/01/31 22:04:33.4	95.680	-0.350	-0.340	2.560
2020/01/31 22:04:33.5	95.690	-0.310	-0.420	2.530
2020/01/31 22:04:33.6	95.710	-0.280	-0.490	2.500
2020/01/31 22:04:33.7	95.730	-0.240	-0.550	2.460
2020/01/31 22:04:33.8	95.740	-0.200	-0.620	2.430
2020/01/31 22:04:33.9	95.760	-0.160	-0.680	2.390
2020/01/31 22:04:34.0	95.770	-0.120	-0.740	2.350
2020/01/31 22:04:34.1	95.790	-0.080	-0.790	2.310
2020/01/31 22:04:34.2	95.800	-0.040	-0.840	2.270
2020/01/31 22:04:34.3	95.810	-0.000	-0.890	2.230
2020/01/31 22:04:34.4	95.820	0.030	-0.930	2.180
2020/01/31 22:04:34.5	95.830	0.070	-0.970	2.140
2020/01/31 22:04:34.6	95.840	0.100	-1.000	2.090
2020/01/31 22:04:34.7	95.840	0.140	-1.030	2.050
2020/01/31 22:04:34.8	95.850	0.170	-1.050	2.000
2020/01/31 22:04:34.9	95.850	0.200	-1.060	1.950
2020/01/31 22:04:35.0	95.860	0.240	-1.080	1.900
2020/01/31 22:04:35.1	95.860	0.260	-1.090	1.850
2020/01/31 22:04:35.2	95.860	0.290	-1.090	1.800
2020/01/31 22:04:35.3	95.850	0.320	-1.080	1.750
2020/01/31 22:04:35.4	95.840	0.340	-1.080	1.700
2020/01/31 22:04:35.5	95.830	0.370	-1.060	1.640
2020/01/31 22:04:35.6	95.820	0.390	-1.050	1.590
2020/01/31 22:04:35.7	95.810	0.400	-1.030	1.530
2020/01/31 22:04:35.8	95.790	0.420	-1.000	1.480
2020/01/31 22:04:35.9	95.780	0.440	-0.970	1.420
2020/01/31 22:04:36.0	95.750	0.450	-0.940	1.360
2020/01/31 22:04:36.1	95.730	0.460	-0.900	1.300
2020/01/31 22:04:36.2	95.710	0.470	-0.860	1.230
2020/01/31 22:04:36.3	95.690	0.480	-0.820	1.170
2020/01/31 22:04:36.4	95.670	0.480	-0.780	1.100
2020/01/31 22:04:36.5	95.650	0.490	-0.730	1.040
2020/01/31 22:04:36.6	95.620	0.490	-0.690	0.970
2020/01/31 22:04:36.7	95.600	0.490	-0.640	0.890
2020/01/31 22:04:36.8	95.580	0.480	-0.590	0.820
2020/01/31 22:04:36.9	95.560	0.480	-0.540	0.740
2020/01/31 22:04:37.0	95.530	0.470	-0.490	0.660
2020/01/31 22:04:37.1	95.510	0.470	-0.430	0.580
2020/01/31 22:04:37.2	95.490	0.460	-0.380	0.500
2020/01/31 22:04:37.3	95.470	0.450	-0.320	0.420
2020/01/31 22:04:37.4	95.450	0.430	-0.270	0.330
2020/01/31 22:04:37.5	95.440	0.420	-0.210	0.240
2020/01/31 22:04:37.6	95.420	0.400	-0.150	0.150
2020/01/31 22:04:37.7	95.400	0.390	-0.100	0.060
2020/01/31 22:04:37.8	95.390	0.370	-0.040	-0.030
2020/01/31 22:04:37.9	95.380	0.350	0.020	-0.120
2020/01/31 22:04:38.0	95.370	0.330	0.080	-0.210
2020/01/31 22:04:38.1	95.360	0.310	0.140	-0.310
2020/01/31 22:04:38.2	95.350	0.290	0.190	-0.400
2020/01/31 22:04:38.3	95.340	0.270	0.250	-0.490
2020/01/31 22:04:38.4	95.340	0.250	0.300	-0.590
2020/01/31 22:04:38.5	95.330	0.220	0.360	-0.680
2020/01/31 22:04:38.6	95.330	0.200	0.410	-0.770
2020/01/31 22:04:38.7	95.330	0.180	0.460	-0.850
2020/01/31 22:04:38.8	95.320	0.160	0.510	-0.940
2020/01/31 22:04:38.9	95.320	0.130	0.560	-1.020
2020/01/31 22:04:39.0	95.320	0.110	0.610	-1.110
2020/01/31 22:04:39.1	95.320	0.090	0.650	-1.190
2020/01/31 22:04:39.2	95.320	0.070	0.700	-1.270
2020/01/31 22:04:39.3	95.320	0.050	0.730	-1.340
2020/01/31 22:04:39.4	95.330	0.030	0.770	-1.410
2020/01/31 22:04:39.5	95.330	0.010	0.800	-1.480
2020/01/31 22:04:39.6	95.340	-0.010	0.830	-1.540
2020/01/31 22:04:39.7	95.350	-0.030	0.850	-1.600
2020/01/31 22:04:39.8	95.350	-0.050	0.870	-1.650
2020/01/31 22:04:39.9	95.360	-0.060	0.880	-1.700
2020/01/31 22:04:40.0	95.370	-0.080	0.890	-1.750
2020/01/31 22:04:40.1	95.380	-0.090	0.890	-1.790
2020/01/31 22:04:40.2	95.390	-0.100	0.890	-1.830
2020/01/31 22:04:40.3	95.400	-0.110	0.880	-1.860
2020/01/31 22:04:40.4	95.410	-0.120	0.870	-1.890
2020/01/31 22:04:40.5	95.420	-0.130	0.850	-1.910
2020/01/31 22:04:40.6	95.430	-0.140	0.820	-1.930
2020/01/31 22:04:40.7	95.440	-0.140	0.790	-1.950
2020/01/31 22:04:40.8	95.460	-0.150	0.750	-1.960
2020/01/31 22:04:40.9	95.470	-0.150	0.700	-1.960
2020/01/31 22:04:41.0	95.490	-0.150	0.650	-1.970
2020/01/31 22:04:41.1	95.500	-0.150	0.590	-1.970
2020/01/31 22:04:41.2	95.520	-0.150	0.520	-1.960
2020/01/31 22:04:41.3	95.530	-0.140	0.450	-1.950
2020/01/31 22:04:41.4	95.550	-0.130	0.380	-1.940
2020/01/31 22:04:41.5	95.560	-0.130	0.290	-1.920
2020/01/31 22:04:41.6	95.570	-0.120	0.210	-1.890
2020/01/31 22:04:41.7	95.590	-0.100	0.120	-1.870
2020/01/31 22:04:41.8	95.600	-0.090	0.020	-1.840
2020/01/31 22:04:41.9	95.620	-0.080	-0.080	-1.800
2020/01/31 22:04:42.0	95.620	-0.060	-0.180	-1.760
2020/01/31 22:04:42.1	95.640	-0.040	-0.280	-1.720
2020/01/31 22:04:42.2	95.650	-0.030	-0.390	-1.670
2020/01/31 22:04:42.3	95.660	-0.010	-0.490	-1.620
2020/01/31 22:04:42.4	95.680	0.010	-0.600	-1.560
2020/01/31 22:04:42.5	95.690	0.030	-0.700	-1.500
2020/01/31 22:04:42.6	95.700	0.050	-0.800	-1.430
2020/01/31 22:04:42.7	95.710	0.070	-0.900	-1.350
2020/01/31 22:04:42.8	95.710	0.090	-0.990	-1.280
2020/01/31 22:04:42.9	95.720	0.110	-1.080	-1.190
2020/01/31 22:04:43.0	95.720	0.130	-1.160	-1.110
2020/01/31 22:04:43.1	95.720	0.150	-1.240	-1.010
2020/01/31 22:04:43.2	95.730	0.170	-1.310	-0.910
2020/01/31 22:04:43.3	95.730	0.180	-1.370	-0.810
2020/01/31 22:04:43.4	95.730	0.190	-1.430	-0.700
2020/01/31 22:04:43.5	95.730	0.210	-1.470	-0.590
2020/01/31 22:04:43.6	95.730	0.220	-1.510	-0.470
2020/01/31 22:04:43.7	95.730	0.220	-1.530	-0.340
2020/01/31 22:04:43.8	95.730	0.230	-1.550	-0.210
2020/01/31 22:04:43.9	95.730	0.230	-1.560	-0.080
2020/01/31 22:04:44.0	95.720	0.230	-1.560	0.060
2020/01/31 22:04:44.1	95.710	0.230	-1.540	0.200
2020/01/31 22:04:44.2	95.710	0.230	-1.520	0.340
2020/01/31 22:04:44.3	95.710	0.220	-1.480	0.480
2020/01/31 22:04:44.4	95.700	0.210	-1.440	0.630
2020/01/31 22:04:44.5	95.690	0.200	-1.380	0.780
2020/01/31 22:04:44.6	95.690	0.190	-1.320	0.930
2020/01/31 22:04:44.7	95.680	0.180	-1.250	1.080
2020/01/31 22:04:44.8	95.670	0.160	-1.170	1.230
2020/01/31 22:04:44.9	95.670	0.140	-1.080	1.370
2020/01/31 22:04:45.0	95.660	0.120	-0.990	1.520
2020/01/31 22:04:45.1	95.650	0.100	-0.890	1.660
2020/01/31 22:04:45.2	95.640	0.070	-0.790	1.800
2020/01/31 22:04:45.3	95.640	0.050	-0.690	1.940
2020/01/31 22:04:45.4	95.630	0.020	-0.580	2.080
2020/01/31 22:04:45.5	95.620	-0.000	-0.470	2.200
2020/01/31 22:04:45.6	95.610	-0.030	-0.370	2.330
2020/01/31 22:04:45.7	95.610	-0.060	-0.260	2.450
2020/01/31 22:04:45.8	95.600	-0.090	-0.150	2.560
2020/01/31 22:04:45.9	95.600	-0.110	-0.050	2.670
2020/01/31 22:04:46.0	95.600	-0.140	0.060	2.770
2020/01/31 22:04:46.1	95.600	-0.170	0.160	2.860
2020/01/31 22:04:46.2	95.590	-0.200	0.250	2.940
2020/01/31 22:04:46.3	95.590	-0.220	0.340	3.020
2020/01/31 22:04:46.4	95.580	-0.250	0.430	3.090
2020/01/31 22:04:46.5	95.580	-0.270	0.510	3.150
2020/01/31 22:04:46.6	95.570	-0.290	0.580	3.210
2020/01/31 22:04:46.7	95.570	-0.310	0.650	3.250
2020/01/31 22:04:46.8	95.560	-0.330	0.700	3.290
2020/01/31 22:04:46.9	95.560	-0.350	0.760	3.320
2020/01/31 22:04:47.0	95.540	-0.370	0.810	3.350
2020/01/31 22:04:47.1	95.530	-0.380	0.840	3.370
2020/01/31 22:04:47.2	95.530	-0.400	0.870	3.380
2020/01/31 22:04:47.3	95.520	-0.410	0.900	3.380
2020/01/31 22:04:47.4	95.510	-0.410	0.910	3.380
2020/01/31 22:04:47.5	95.490	-0.420	0.920	3.370
2020/01/31 22:04:47.6	95.480	-0.420	0.920	3.350
2020/01/31 22:04:47.7	95.470	-0.420	0.910	3.330
2020/01/31 22:04:47.8	95.450	-0.420	0.890	3.300
2020/01/31 22:04:47.9	95.440	-0.410	0.870	3.270
2020/01/31 22:04:48.0	95.430	-0.410	0.850	3.220
2020/01/31 22:04:48.1	95.410	-0.400	0.810	3.170
2020/01/31 22:04:48.2	95.400	-0.390	0.770	3.120
2020/01/31 22:04:48.3	95.390	-0.370	0.730	3.060
2020/01/31 22:04:48.4	95.370	-0.350	0.670	3.000
2020/01/31 22:04:48.5	95.360	-0.330	0.620	2.930
2020/01/31 22:04:48.6	95.350	-0.310	0.550	2.850
2020/01/31 22:04:48.7	95.340	-0.290	0.490	2.770
2020/01/31 22:04:48.8	95.330	-0.260	0.420	2.680
2020/01/31 22:04:48.9	95.330	-0.240	0.350	2.590
2020/01/31 22:04:49.0	95.320	-0.210	0.270	2.490
2020/01/31 22:04:49.1	95.320	-0.180	0.190	2.380
2020/01/31 22:04:49.2	95.320	-0.150	0.110	2.270
2020/01/31 22:04:49.3	95.330	-0.110	0.030	2.160
2020/01/31 22:04:49.4	95.330	-0.080	-0.050	2.040
2020/01/31 22:04:49.5	95.340	-0.050	-0.130	1.920
2020/01/31 22:04:49.6	95.350	-0.010	-0.210	1.790
2020/01/31 22:04:49.7	95.360	0.020	-0.290	1.660
2020/01/31 22:04:49.8	95.380	0.050	-0.370	1.530
2020/01/31 22:04:49.9	95.400	0.080	-0.450	1.390
2020/01/31 22:04:50.0	95.400	0.120	-0.520	1.250
2020/01/31 22:04:50.1	95.430	0.150	-0.590	1.110
2020/01/31 22:04:50.2	95.450	0.170	-0.650	0.970
2020/01/31 22:04:50.3	95.470	0.200	-0.710	0.830
2020/01/31 22:04:50.4	95.500	0.230	-0.770	0.690
2020/01/31 22:04:50.5	95.520	0.250	-0.820	0.550
2020/01/31 22:04:50.6	95.550	0.270	-0.860	0.410
2020/01/31 22:04:50.7	95.580	0.290	-0.900	0.270
2020/01/31 22:04:50.8	95.600	0.300	-0.930	0.140
2020/01/31 22:04:50.9	95.630	0.310	-0.950	0.010
2020/01/31 22:04:51.0	95.650	0.320	-0.980	-0.120
2020/01/31 22:04:51.1	95.680	0.330	-0.990	-0.240
2020/01/31 22:04:51.2	95.700	0.330	-0.990	-0.370
2020/01/31 22:04:51.3	95.720	0.330	-0.990	-0.480
2020/01/31 22:04:51.4	95.740	0.330	-0.980	-0.600
2020/01/31 22:04:51.5	95.760	0.330	-0.960	-0.700
2020/01/31 22:04:51.6	95.770	0.320	-0.940	-0.810
2020/01/31 22:04:51.7	95.780	0.310	-0.910	-0.900
2020/01/31 22:04:51.8	95.790	0.290	-0.880	-0.990
2020/01/31 22:04:51.9	95.800	0.280	-0.840	-1.080
2020/01/31 22:04:52.0	95.810	0.260	-0.790	-1.160
2020/01/31 22:04:52.1	95.810	0.240	-0.740	-1.240
2020/01/31 22:04:52.2	95.810	0.210	-0.690	-1.300
2020/01/31 22:04:52.3	95.800	0.190	-0.630	-1.360
2020/01/31 22:04:52.4	95.800	0.170	-0.580	-1.420
2020/01/31 22:04:52.5	95.790	0.140	-0.520	-1.470
2020/01/31 22:04:52.6	95.780	0.110	-0.450	-1.510
2020/01/31 22:04:52.7	95.760	0.090	-0.390	-1.550
2020/01/31 22:04:52.8	95.740	0.060	-0.330	-1.580
2020/01/31 22:04:52.9	95.730	0.030	-0.270	-1.610
2020/01/31 22:04:53.0	95.710	0.010	-0.200	-1.630
2020/01/31 22:04:53.1	95.690	-0.020	-0.140	-1.650
2020/01/31 22:04:53.2	95.660	-0.040	-0.090	-1.660
2020/01/31 22:04:53.3	95.640	-0.060	-0.030	-1.670
2020/01/31 22:04:53.4	95.610	-0.080	0.020	-1.670
2020/01/31 22:04:53.5	95.580	-0.100	0.070	-1.660
2020/01/31 22:04:53.6	95.550	-0.120	0.120	-1.650
2020/01/31 22:04:53.7	95.520	-0.130	0.160	-1.640
2020/01/31 22:04:53.8	95.490	-0.140	0.190	-1.630
2020/01/31 22:04:53.9	95.460	-0.150	0.220	-1.610
2020/01/31 22:04:54.0	95.430	-0.160	0.250	-1.580
2020/01/31 22:04:54.1	95.400	-0.160	0.270	-1.550
2020/01/31 22:04:54.2	95.360	-0.160	0.290	-1.520
2020/01/31 22:04:54.3	95.330	-0.160	0.300	-1.490
2020/01/31 22:04:54.4	95.290	-0.150	0.300	-1.450
2020/01/31 22:04:54.5	95.260	-0.150	0.300	-1.420
2020/01/31 22:04:54.6	95.230	-0.140	0.300	-1.380
2020/01/31 22:04:54.7	95.200	-0.130	0.290	-1.330
2020/01/31 22:04:54.8	95.170	-0.120	0.280	-1.290
2020/01/31 22:04:54.9	95.140	-0.100	0.260	-1.250
2020/01/31 22:04:55.0	95.130	-0.090	0.230	-1.200
2020/01/31 22:04:55.1	95.110	-0.070	0.210	-1.150
2020/01/31 22:04:55.2	95.090	-0.050	0.180	-1.100
2020/01/31 22:04:55.3	95.070	-0.030	0.140	-1.050
2020/01/31 22:04:55.4	95.050	-0.010	0.110	-1.000
2020/01/31 22:04:55.5	95.040	0.010	0.070	-0.950
2020/01/31 22:04:55.6	95.030	0.030	0.030	-0.900
2020/01/31 22:04:55.7	95.030	0.050	-0.020	-0.840
2020/01/31 22:04:55.8	95.020	0.070	-0.060	-0.790
2020/01/31 22:04:55.9	95.020	0.090	-0.110	-0.730
2020/01/31 22:04:56.0	95.020	0.110	-0.150	-0.670
2020/01/31 22:04:56.1	95.020	0.130	-0.200	-0.610
2020/01/31 22:04:56.2	95.030	0.150	-0.240	-0.550
2020/01/31 22:04:56.3	95.040	0.170	-0.280	-0.490
2020/01/31 22:04:56.4	95.050	0.180	-0.330	-0.430
2020/01/31 22:04:56.5	95.060	0.190	-0.360	-0.370
2020/01/31 22:04:56.6	95.080	0.210	-0.400	-0.310
2020/01/31 22:04:56.7	95.090	0.220	-0.430	-0.240
2020/01/31 22:04:56.8	95.110	0.220	-0.460	-0.180
2020/01/31 22:04:56.9	95.130	0.230	-0.490	-0.110
2020/01/31 22:04:57.0	95.160	0.240	-0.520	-0.050
2020/01/31 22:04:57.1	95.180	0.240	-0.540	0.010
2020/01/31 22:04:57.2	95.210	0.240	-0.550	0.080
2020/01/31 22:04:57.3	95.230	0.240	-0.560	0.140
2020/01/31 22:04:57.4	95.260	0.240	-0.560	0.200
2020/01/31 22:04:57.5	95.290	0.230	-0.570	0.270
2020/01/31 22:04:57.6	95.310	0.230	-0.560	0.330
2020/01/31 22:04:57.7	95.340	0.220	-0.550	0.390
2020/01/31 22:04:57.8	95.370	0.220	-0.540	0.450
2020/01/31 22:04:57.9	95.400	0.210	-0.520	0.510
2020/01/31 22:04:58.0	95.430	0.200	-0.500	0.570
2020/01/31 22:04:58.1	95.450	0.190	-0.470	0.620
2020/01/31 22:04:58.2	95.480	0.180	-0.440	0.680
2020/01/31 22:04:58.3	95.500	0.170	-0.410	0.740
2020/01/31 22:04:58.4	95.530	0.150	-0.370	0.790
2020/01/31 22:04:58.5	95.550	0.140	-0.330	0.850
2020/01/31 22:04:58.6	95.570	0.130	-0.290	0.910
2020/01/31 22:04:58.7	95.590	0.120	-0.240	0.970
2020/01/31 22:04:58.8	95.600	0.110	-0.190	1.020
2020/01/31 22:04:58.9	95.610	0.090	-0.150	1.080
2020/01/31 22:04:59.0	95.620	0.080	-0.100	1.140
2020/01/31 22:04:59.1	95.630	0.070	-0.050	1.200
2020/01/31 22:04:59.2	95.640	0.060	-0.000	1.260
2020/01/31 22:04:59.3	95.640	0.050	0.040	1.320
2020/01/31 22:04:59.4	95.640	0.040	0.090	1.380
2020/01/31 22:04:59.5	95.640	0.030	0.140	1.440
2020/01/31 22:04:59.6	95.640	0.020	0.180	1.500
2020/01/31 22:04:59.7	95.640	0.020	0.220	1.560
2020/01/31 22:04:59.8	95.630	0.010	0.250	1.620
2020/01/31 22:04:59.9	95.620	0.000	0.290	1.690
2020/01/31 22:05:00.0	95.620	-0.000	0.320	1.740
2020/01/31 22:05:00.1	95.600	-0.010	0.340	1.800
2020/01/31 22:05:00.2	95.590	-0.010	0.360	1.860
2020/01/31 22:05:00.3	95.580	-0.020	0.380	1.920
2020/01/31 22:05:00.4	95.560	-0.020	0.390	1.980
2020/01/31 22:05:00.5	95.540	-0.020	0.400	2.030
2020/01/31 22:05:00.6	95.520	-0.030	0.400	2.080
2020/01/31 22:05:00.7	95.500	-0.030	0.400	2.130
2020/01/31 22:05:00.8	95.480	-0.030	0.390	2.180
2020/01/31 22:05:00.9	95.470	-0.030	0.380	2.220
2020/01/31 22:05:01.0	95.450	-0.030	0.360	2.270
2020/01/31 22:05:01.1	95.430	-0.030	0.330	2.300
2020/01/31 22:05:01.2	95.410	-0.040	0.310	2.340
2020/01/31 22:05:01.3	95.390	-0.040	0.280	2.370
2020/01/31 22:05:01.4	95.370	-0.040	0.240	2.400
2020/01/31 22:05:01.5	95.350	-0.040	0.200	2.420
2020/01/31 22:05:01.6	95.330	-0.040	0.160	2.450
2020/01/31 22:05:01.7	95.310	-0.030	0.110	2.460
2020/01/31 22:05:01.8	95.290	-0.030	0.060	2.480
2020/01/31 22:05:01.9	95.270	-0.030	0.010	2.490
2020/01/31 22:05:02.0	95.240	-0.030	-0.050	2.490
2020/01/31 22:05:02.1	95.230	-0.030	-0.100	2.490
2020/01/31 22:05:02.2	95.210	-0.030	-0.160	2.490
2020/01/31 22:05:02.3	95.190	-0.030	-0.220	2.490
2020/01/31 22:05:02.4	95.180	-0.030	-0.280	2.480
2020/01/31 22:05:02.5	95.160	-0.030	-0.340	2.470
2020/01/31 22:05:02.6	95.150	-0.030	-0.400	2.460
2020/01/31 22:05:02.7	95.140	-0.030	-0.450	2.440
2020/01/31 22:05:02.8	95.130	-0.030	-0.510	2.410
2020/01/31 22:05:02.9	95.120	-0.030	-0.570	2.390
2020/01/31 22:05:03.0	95.120	-0.030	-0.620	2.360
2020/01/31 22:05:03.1	95.110	-0.030	-0.670	2.330
2020/01/31 22:05:03.2	95.110	-0.030	-0.720	2.290
2020/01/31 22:05:03.3	95.110	-0.040	-0.760	2.250
2020/01/31 22:05:03.4	95.110	-0.040	-0.800	2.210
2020/01/31 22:05:03.5	95.110	-0.040	-0.840	2.160
2020/01/31 22:05:03.6	95.110	-0.050	-0.870	2.110
2020/01/31 22:05:03.7	95.110	-0.050	-0.900	2.060
2020/01/31 22:05:03.8	95.120	-0.060	-0.920	2.000
2020/01/31 22:05:03.9	95.120	-0.060	-0.930	1.940
2020/01/31 22:05:04.0	95.120	-0.070	-0.940	1.880
2020/01/31 22:05:04.1	95.130	-0.080	-0.950	1.820
2020/01/31 22:05:04.2	95.130	-0.080	-0.950	1.750
2020/01/31 22:05:04.3	95.140	-0.090	-0.940	1.690
2020/01/31 22:05:04.4	95.140	-0.100	-0.930	1.620
2020/01/31 22:05:04.5	95.150	-0.110	-0.910	1.550
2020/01/31 22:05:04.6	95.150	-0.120	-0.880	1.470
2020/01/31 22:05:04.7	95.160	-0.140	-0.850	1.400
2020/01/31 22:05:04.8	95.160	-0.150	-0.810	1.320
2020/01/31 22:05:04.9	95.170	-0.160	-0.770	1.250
2020/01/31 22:05:05.0	95.180	-0.180	-0.720	1.170
2020/01/31 22:05:05.1	95.180	-0.190	-0.660	1.090
2020/01/31 22:05:05.2	95.180	-0.210	-0.600	1.010
2020/01/31 22:05:05.3	95.180	-0.220	-0.540	0.920
2020/01/31 22:05:05.4	95.190	-0.240	-0.470	0.840
2020/01/31 22:05:05.5	95.190	-0.250	-0.400	0.750
2020/01/31 22:05:05.6	95.190	-0.270	-0.320	0.660
2020/01/31 22:05:05.7	95.190	-0.290	-0.240	0.570
2020/01/31 22:05:05.8	95.190	-0.300	-0.160	0.480
2020/01/31 22:05:05.9	95.190	-0.320	-0.080	0.390
2020/01/31 22:05:06.0	95.190	-0.330	0.000	0.300
2020/01/31 22:05:06.1	95.180	-0.350	0.080	0.210
2020/01/31 22:05:06.2	95.180	-0.360	0.170	0.110
2020/01/31 22:05:06.3	95.180	-0.370	0.250	0.020
2020/01/31 22:05:06.4	95.180	-0.390	0.320	-0.070
2020/01/31 22:05:06.5	95.180	-0.400	0.400	-0.160
2020/01/31 22:05:06.6	95.170	-0.410	0.470	-0.250
2020/01/31 22:05:06.7	95.170	-0.410	0.530	-0.340
2020/01/31 22:05:06.8	95.170	-0.420	0.600	-0.430
2020/01/31 22:05:06.9	95.170	-0.420	0.650	-0.520
2020/01/31 22:05:07.0	95.170	-0.430	0.700	-0.600
2020/01/31 22:05:07.1	95.170	-0.430	0.740	-0.690
2020/01/31 22:05:07.2	95.170	-0.420	0.770	-0.770
2020/01/31 22:05:07.3	95.170	-0.420	0.800	-0.850
2020/01/31 22:05:07.4	95.170	-0.410	0.820	-0.930
2020/01/31 22:05:07.5	95.170	-0.400	0.830	-1.000
2020/01/31 22:05:07.6	95.160	-0.380	0.830	-1.070
2020/01/31 22:05:07.7	95.160	-0.370	0.820	-1.140
2020/01/31 22:05:07.8	95.160	-0.350	0.800	-1.210
2020/01/31 22:05:07.9	95.160	-0.320	0.770	-1.270
2020/01/31 22:05:08.0	95.160	-0.300	0.740	-1.330
2020/01/31 22:05:08.1	95.160	-0.270	0.690	-1.380
2020/01/31 22:05:08.2	95.160	-0.240	0.640	-1.430
2020/01/31 22:05:08.3	95.160	-0.200	0.580	-1.470
2020/01/31 22:05:08.4	95.160	-0.170	0.510	-1.510
2020/01/31 22:05:08.5	95.160	-0.130	0.440	-1.550
2020/01/31 22:05:08.6	95.160	-0.090	0.360	-1.580
2020/01/31 22:05:08.7	95.160	-0.040	0.270	-1.600
2020/01/31 22:05:08.8	95.160	0.000	0.180	-1.630
2020/01/31 22:05:08.9	95.160	0.050	0.090	-1.650
2020/01/31 22:05:09.0	95.170	0.090	-0.010	-1.660
2020/01/31 22:05:09.1	95.180	0.140	-0.110	-1.670
2020/01/31 22:05:09.2	95.180	0.190	-0.210	-1.670
2020/01/31 22:05:09.3	95.190	0.240	-0.310	-1.670
2020/01/31 22:05:09.4	95.200	0.280	-0.410	-1.670
2020/01/31 22:05:09.5	95.210	0.330	-0.510	-1.660
2020/01/31 22:05:09.6	95.220	0.380	-0.600	-1.650
2020/01/31 22:05:09.7	95.230	0.420	-0.690	-1.640
2020/01/31 22:05:09.8	95.240	0.460	-0.780	-1.620
2020/01/31 22:05:09.9	95.250	0.500	-0.860	-1.600
2020/01/31 22:05:10.0	95.260	0.530	-0.930	-1.570
2020/01/31 22:05:10.1	95.270	0.570	-1.000	-1.540
2020/01/31 22:05:10.2	95.280	0.600	-1.070	-1.510
2020/01/31 22:05:10.3	95.300	0.620	-1.120	-1.470
2020/01/31 22:05:10.4	95.310	0.650	-1.170	-1.430
2020/01/31 22:05:10.5	95.320	0.660	-1.200	-1.390
2020/01/31 22:05:10.6	95.340	0.680	-1.230	-1.340
2020/01/31 22:05:10.7	95.350	0.690	-1.250	-1.290
2020/01/31 22:05:10.8	95.360	0.700	-1.260	-1.230
2020/01/31 22:05:10.9	95.380	0.700	-1.270	-1.170
2020/01/31 22:05:11.0	95.380	0.700	-1.260	-1.110
2020/01/31 22:05:11.1	95.390	0.690	-1.250	-1.040
2020/01/31 22:05:11.2	95.400	0.690	-1.230	-0.980
2020/01/31 22:05:11.3	95.410	0.670	-1.190	-0.910
2020/01/31 22:05:11.4	95.420	0.660	-1.160	-0.830
2020/01/31 22:05:11.5	95.430	0.640	-1.110	-0.760
2020/01/31 22:05:11.6	95.430	0.610	-1.060	-0.680
2020/01/31 22:05:11.7	95.440	0.590	-1.000	-0.600
2020/01/31 22:05:11.8	95.450	0.560	-0.930	-0.520
2020/01/31 22:05:11.9	95.450	0.520	-0.860	-0.430
2020/01/31 22:05:12.0	95.450	0.490	-0.780	-0.340
2020/01/31 22:05:12.1	95.450	0.450	-0.710	-0.250
2020/01/31 22:05:12.2	95.450	0.420	-0.620	-0.160
2020/01/31 22:05:12.3	95.450	0.380	-0.540	-0.070
2020/01/31 22:05:12.4	95.440	0.340	-0.450	0.030
2020/01/31 22:05:12.5	95.440	0.290	-0.370	0.120
2020/01/31 22:05:12.6	95.430	0.250	-0.280	0.220
2020/01/31 22:05:12.7	95.430	0.210	-0.190	0.320
2020/01/31 22:05:12.8	95.420	0.170	-0.100	0.420
2020/01/31 22:05:12.9	95.410	0.130	-0.020	0.530
2020/01/31 22:05:13.0	95.410	0.080	0.060	0.630
2020/01/31 22:05:13.1	95.400	0.040	0.140	0.730
2020/01/31 22:05:13.2	95.390	0.000	0.220	0.840
2020/01/31 22:05:13.3	95.390	-0.030	0.290	0.940
2020/01/31 22:05:13.4	95.380	-0.070	0.360	1.050
2020/01/31 22:05:13.5	95.370	-0.110	0.430	1.150
2020/01/31 22:05:13.6	95.360	-0.140	0.480	1.260
2020/01/31 22:05:13.7	95.360	-0.170	0.540	1.370
2020/01/31 22:05:13.8	95.350	-0.200	0.580	1.480
2020/01/31 22:05:13.9	95.340	-0.230	0.620	1.580
2020/01/31 22:05:14.0	95.340	-0.250	0.660	1.690
2020/01/31 22:05:14.1	95.330	-0.280	0.690	1.800
2020/01/31 22:05:14.2	95.330	-0.300	0.710	1.900
2020/01/31 22:05:14.3	95.320	-0.320	0.730	2.010
2020/01/31 22:05:14.4	95.320	-0.330	0.740	2.110
2020/01/31 22:05:14.5	95.310	-0.350	0.740	2.220
2020/01/31 22:05:14.6	95.310	-0.360	0.740	2.320
2020/01/31 22:05:14.7	95.310	-0.370	0.740	2.410
2020/01/31 22:05:14.8	95.300	-0.380	0.730	2.510
2020/01/31 22:05:14.9	95.300	-0.390	0.710	2.600
2020/01/31 22:05:15.0	95.300	-0.400	0.690	2.680
2020/01/31 22:05:15.1	95.300	-0.400	0.670	2.760
2020/01/31 22:05:15.2	95.300	-0.410	0.650	2.830
2020/01/31 22:05:15.3	95.300	-0.410	0.620	2.900
2020/01/31 22:05:15.4	95.300	-0.410	0.580	2.960
2020/01/31 22:05:15.5	95.300	-0.410	0.550	3.010
2020/01/31 22:05:15.6	95.310	-0.410	0.510	3.060
2020/01/31 22:05:15.7	95.310	-0.410	0.470	3.090
2020/01/31 22:05:15.8	95.320	-0.410	0.430	3.120
2020/01/31 22:05:15.9	95.330	-0.410	0.390	3.140
2020/01/31 22:05:16.0	95.330	-0.410	0.340	3.140
2020/01/31 22:05:16.1	95.340	-0.400	0.290	3.140
2020/01/31 22:05:16.2	95.350	-0.400	0.250	3.130
2020/01/31 22:05:16.3	95.370	-0.390	0.200	3.110
2020/01/31 22:05:16.4	95.380	-0.380	0.150	3.090
2020/01/31 22:05:16.5	95.390	-0.370	0.100	3.050
2020/01/31 22:05:16.6	95.400	-0.360	0.040	3.010
2020/01/31 22:05:16.7	95.420	-0.350	-0.010	2.960
2020/01/31 22:05:16.8	95.430	-0.340	-0.060	2.910
2020/01/31 22:05:16.9	95.450	-0.330	-0.110	2.840
2020/01/31 22:05:17.0	95.480	-0.320	-0.160	2.780
2020/01/31 22:05:17.1	95.490	-0.300	-0.210	2.710
2020/01/31 22:05:17.2	95.510	-0.280	-0.260	2.630
2020/01/31 22:05:17.3	95.520	-0.270	-0.310	2.550
2020/01/31 22:05:17.4	95.540	-0.250	-0.360	2.460
2020/01/31 22:05:17.5	95.550	-0.230	-0.410	2.370
2020/01/31 22:05:17.6	95.570	-0.200	-0.450	2.280
2020/01/31 22:05:17.7	95.580	-0.180	-0.490	2.190
2020/01/31 22:05:17.8	95.600	-0.160	-0.540	2.100
2020/01/31 22:05:17.9	95.610	-0.130	-0.580	2.000
2020/01/31 22:05:18.0	95.620	-0.110	-0.620	1.900
2020/01/31 22:05:18.1	95.630	-0.080	-0.660	1.800
2020/01/31 22:05:18.2	95.640	-0.050	-0.700	1.700
2020/01/31 22:05:18.3	95.650	-0.030	-0.730	1.610
2020/01/31 22:05:18.4	95.660	-0.000	-0.760	1.510
2020/01/31 22:05:18.5	95.670	0.030	-0.790	1.410
2020/01/31 22:05:18.6	95.680	0.060	-0.820	1.320
2020/01/31 22:05:18.7	95.690	0.080	-0.840	1.220
2020/01/31 22:05:18.8	95.700	0.110	-0.870	1.130
2020/01/31 22:05:18.9	95.700	0.140	-0.890	1.040
2020/01/31 22:05:19.0	95.700	0.160	-0.900	0.950
2020/01/31 22:05:19.1	95.700	0.190	-0.920	0.860
2020/01/31 22:05:19.2	95.710	0.210	-0.930	0.770
2020/01/31 22:05:19.3	95.720	0.240	-0.940	0.690
2020/01/31 22:05:19.4	95.730	0.260	-0.950	0.600
2020/01/31 22:05:19.5	95.730	0.280	-0.950	0.520
2020/01/31 22:05:19.6	95.740	0.300	-0.950	0.440
2020/01/31 22:05:19.7	95.750	0.320	-0.950	0.360
2020/01/31 22:05:19.8	95.760	0.340	-0.940	0.290
2020/01/31 22:05:19.9	95.760	0.350	-0.930	0.210
2020/01/31 22:05:20.0	95.770	0.370	-0.920	0.130
2020/01/31 22:05:20.1	95.770	0.380	-0.900	0.060
2020/01/31 22:05:20.2	95.780	0.390	-0.880	-0.010
2020/01/31 22:05:20.3	95.790	0.390	-0.860	-0.080
2020/01/31 22:05:20.4	95.790	0.400	-0.830	-0.150
2020/01/31 22:05:20.5	95.800	0.400	-0.800	-0.220
2020/01/31 22:05:20.6	95.810	0.400	-0.760	-0.280
2020/01/31 22:05:20.7	95.810	0.400	-0.730	-0.350
2020/01/31 22:05:20.8	95.820	0.390	-0.680	-0.410
2020/01/31 22:05:20.9	95.820	0.390	-0.640	-0.480
2020/01/31 22:05:21.0	95.820	0.380	-0.580	-0.540
2020/01/31 22:05:21.1	95.830	0.370	-0.530	-0.610
2020/01/31 22:05:21.2	95.830	0.350	-0.470	-0.670
2020/01/31 22:05:21.3	95.830	0.330	-0.410	-0.720
2020/01/31 22:05:21.4	95.840	0.320	-0.350	-0.780
2020/01/31 22:05:21.5	95.840	0.300	-0.290	-0.840
2020/01/31 22:05:21.6	95.840	0.270	-0.220	-0.890
2020/01/31 22:05:21.7	95.840	0.250	-0.160	-0.940
2020/01/31 22:05:21.8	95.840	0.220	-0.090	-0.990
2020/01/31 22:05:21.9	95.840	0.200	-0.020	-1.030
2020/01/31 22:05:22.0	95.840	0.170	0.050	-1.080
2020/01/31 22:05:22.1	95.830	0.140	0.120	-1.110
2020/01/31 22:05:22.2	95.830	0.110	0.190	-1.150
2020/01/31 22:05:22.3	95.820	0.080	0.260	-1.180
2020/01/31 22:05:22.4	95.820	0.050	0.320	-1.210
2020/01/31 22:05:22.5	95.810	0.010	0.380	-1.230
2020/01/31 22:05:22.6	95.800	-0.020	0.450	-1.260
2020/01/31 22:05:22.7	95.800	-0.050	0.500	-1.270
2020/01/31 22:05:22.8	95.790	-0.080	0.560	-1.280
2020/01/31 22:05:22.9	95.780	-0.110	0.610	-1.290
2020/01/31 22:05:23.0	95.790	-0.150	0.650	-1.290
2020/01/31 22:05:23.1	95.780	-0.180	0.690	-1.290
2020/01/31 22:05:23.2	95.770	-0.200	0.730	-1.290
2020/01/31 22:05:23.3	95.770	-0.230	0.750	-1.280
2020/01/31 22:05:23.4	95.760	-0.260	0.780	-1.270
2020/01/31 22:05:23.5	95.760	-0.280	0.790	-1.260
2020/01/31 22:05:23.6	95.750	-0.310	0.800	-1.240
2020/01/31 22:05:23.7	95.750	-0.330	0.800	-1.220
2020/01/31 22:05:23.8	95.750	-0.340	0.800	-1.190
2020/01/31 22:05:23.9	95.750	-0.360	0.790	-1.160
2020/01/31 22:05:24.0	95.750	-0.380	0.760	-1.130
2020/01/31 22:05:24.1	95.750	-0.390	0.740	-1.100
2020/01/31 22:05:24.2	95.760	-0.400	0.710	-1.060
2020/01/31 22:05:24.3	95.760	-0.400	0.670	-1.020
2020/01/31 22:05:24.4	95.770	-0.410	0.620	-0.980
2020/01/31 22:05:24.5	95.780	-0.410	0.570	-0.930
2020/01/31 22:05:24.6	95.790	-0.410	0.520	-0.880
2020/01/31 22:05:24.7	95.800	-0.410	0.460	-0.830
2020/01/31 22:05:24.8	95.810	-0.400	0.390	-0.780
2020/01/31 22:05:24.9	95.820	-0.400	0.320	-0.730
2020/01/31 22:05:25.0	95.850	-0.390	0.250	-0.670
2020/01/31 22:05:25.1	95.870	-0.380	0.170	-0.620
2020/01/31 22:05:25.2	95.880	-0.370	0.090	-0.560
2020/01/31 22:05:25.3	95.890	-0.350	0.010	-0.500
2020/01/31 22:05:25.4	95.910	-0.330	-0.070	-0.440
2020/01/31 22:05:25.5	95.930	-0.320	-0.150	-0.380
2020/01/31 22:05:25.6	95.940	-0.300	-0.240	-0.310
2020/01/31 22:05:25.7	95.960	-0.280	-0.320	-0.250
2020/01/31 22:05:25.8	95.970	-0.250	-0.400	-0.180
2020/01/31 22:05:25.9	95.980	-0.230	-0.480	-0.110
2020/01/31 22:05:26.0	95.990	-0.210	-0.560	-0.050
2020/01/31 22:05:26.1	96.010	-0.180	-0.630	0.030
2020/01/31 22:05:26.2	96.020	-0.160	-0.710	0.100
2020/01/31 22:05:26.3	96.030	-0.130	-0.780	0.170
2020/01/31 22:05:26.4	96.040	-0.100	-0.840	0.240
2020/01/31 22:05:26.5	96.050	-0.080	-0.900	0.320
2020/01/31 22:05:26.6	96.050	-0.050	-0.960	0.390
2020/01/31 22:05:26.7	96.060	-0.020	-1.010	0.470
2020/01/31 22:05:26.8	96.070	0.000	-1.050	0.550
2020/01/31 22:05:26.9	96.070	0.030	-1.090	0.620
2020/01/31 22:05:27.0	96.080	0.050	-1.130	0.700
2020/01/31 22:05:27.1	96.090	0.080	-1.150	0.770
2020/01/31 22:05:27.2	96.090	0.100	-1.170	0.850
2020/01/31 22:05:27.3	96.090	0.120	-1.180	0.930
2020/01/31 22:05:27.4	96.090	0.140	-1.180	1.000
2020/01/31 22:05:27.5	96.090	0.160	-1.170	1.080
2020/01/31 22:05:27.6	96.090	0.180	-1.160	1.150
2020/01/31 22:05:27.7	96.090	0.190	-1.140	1.220
2020/01/31 22:05:27.8	96.090	0.200	-1.110	1.290
2020/01/31 22:05:27.9	96.080	0.220	-1.080	1.350
2020/01/31 22:05:28.0	96.080	0.230	-1.030	1.420
2020/01/31 22:05:28.1	96.070	0.230	-0.990	1.490
2020/01/31 22:05:28.2	96.060	0.240	-0.930	1.540
2020/01/31 22:05:28.3	96.060	0.240	-0.870	1.600
2020/01/31 22:05:28.4	96.050	0.240	-0.810	1.660
2020/01/31 22:05:28.5	96.040	0.240	-0.740	1.710
2020/01/31 22:05:28.6	96.030	0.240	-0.670	1.760
2020/01/31 22:05:28.7	96.010	0.230	-0.590	1.800
2020/01/31 22:05:28.8	96.000	0.220	-0.510	1.840
2020/01/31 22:05:28.9	95.990	0.210	-0.430	1.880
2020/01/31 22:05:29.0	95.970	0.200	-0.340	1.910
2020/01/31 22:05:29.1	95.950	0.190	-0.250	1.940
2020/01/31 22:05:29.2	95.930	0.170	-0.170	1.970
2020/01/31 22:05:29.3	95.920	0.160	-0.080	2.000
2020/01/31 22:05:29.4	95.900	0.140	0.000	2.020
2020/01/31 22:05:29.5	95.880	0.120	0.090	2.030
2020/01/31 22:05:29.6	95.860	0.100	0.170	2.040
2020/01/31 22:05:29.7	95.850	0.080	0.250	2.050
2020/01/31 22:05:29.8	95.830	0.060	0.320	2.060
2020/01/31 22:05:29.9	95.810	0.040	0.390	2.050
2020/01/31 22:05:30.0	95.800	0.020	0.470	2.050
2020/01/31 22:05:30.1	95.790	-0.010	0.530	2.040
2020/01/31 22:05:30.2	95.780	-0.030	0.590	2.030
2020/01/31 22:05:30.3	95.760	-0.050	0.640	2.010
2020/01/31 22:05:30.4	95.750	-0.070	0.690	2.000
2020/01/31 22:05:30.5	95.740	-0.090	0.730	1.970
2020/01/31 22:05:30.6	95.730	-0.100	0.760	1.940
2020/01/31 22:05:30.7	95.730	-0.120	0.790	1.910
2020/01/31 22:05:30.8	95.720	-0.140	0.810	1.880
2020/01/31 22:05:30.9	95.720	-0.150	0.830	1.840
2020/01/31 22:05:31.0	95.720	-0.160	0.840	1.790
2020/01/31 22:05:31.1	95.720	-0.170	0.840	1.740
2020/01/31 22:05:31.2	95.720	-0.180	0.830	1.690
2020/01/31 22:05:31.3	95.730	-0.180	0.820	1.640
2020/01/31 22:05:31.4	95.730	-0.190	0.800	1.580
2020/01/31 22:05:31.5	95.740	-0.190	0.770	1.530
2020/01/31 22:05:31.6	95.750	-0.190	0.740	1.460
2020/01/31 22:05:31.7	95.770	-0.180	0.700	1.400
2020/01/31 22:05:31.8	95.780	-0.170	0.650	1.330
2020/01/31 22:05:31.9	95.800	-0.160	0.600	1.250
2020/01/31 22:05:32.0	95.820	-0.150	0.550	1.180
2020/01/31 22:05:32.1	95.840	-0.140	0.480	1.100
2020/01/31 22:05:32.2	95.860	-0.120	0.410	1.020
2020/01/31 22:05:32.3	95.890	-0.100	0.340	0.940
2020/01/31 22:05:32.4	95.910	-0.080	0.260	0.860
2020/01/31 22:05:32.5	95.940	-0.060	0.180	0.770
2020/01/31 22:05:32.6	95.970	-0.040	0.090	0.690
2020/01/31 22:05:32.7	96.000	-0.010	0.010	0.600
2020/01/31 22:05:32.8	96.020	0.020	-0.080	0.510
2020/01/31 22:05:32.9	96.050	0.040	-0.180	0.420
2020/01/31 22:05:33.0	96.080	0.070	-0.270	0.320
2020/01/31 22:05:33.1	96.110	0.100	-0.360	0.230
2020/01/31 22:05:33.2	96.140	0.130	-0.460	0.140
2020/01/31 22:05:33.3	96.170	0.160	-0.550	0.050
2020/01/31 22:05:33.4	96.200	0.190	-0.630	-0.030
2020/01/31 22:05:33.5	96.220	0.220	-0.720	-0.120
2020/01/31 22:05:33.6	96.250	0.240	-0.800	-0.200
2020/01/31 22:05:33.7	96.270	0.270	-0.880	-0.280
2020/01/31 22:05:33.8	96.290	0.290	-0.950	-0.360
2020/01/31 22:05:33.9	96.310	0.320	-1.020	-0.430
2020/01/31 22:05:34.0	96.310	0.340	-1.080	-0.490
2020/01/31 22:05:34.1	96.330	0.350	-1.130	-0.550
2020/01/31 22:05:34.2	96.340	0.370	-1.180	-0.600
2020/01/31 22:05:34.3	96.340	0.380	-1.210	-0.650
2020/01/31 22:05:34.4	96.340	0.390	-1.250	-0.700
2020/01/31 22:05:34.5	96.340	0.400	-1.270	-0.730
2020/01/31 22:05:34.6	96.340	0.400	-1.280	-0.760
2020/01/31 22:05:34.7	96.330	0.400	-1.290	-0.790
2020/01/31 22:05:34.8	96.310	0.400	-1.290	-0.800
2020/01/31 22:05:34.9	96.300	0.400	-1.280	-0.810
2020/01/31 22:05:35.0	96.270	0.390	-1.260	-0.820
2020/01/31 22:05:35.1	96.250	0.370	-1.240	-0.820
2020/01/31 22:05:35.2	96.220	0.360	-1.210	-0.810
2020/01/31 22:05:35.3	96.200	0.340	-1.170	-0.800
2020/01/31 22:05:35.4	96.170	0.310	-1.120	-0.780
2020/01/31 22:05:35.5	96.140	0.290	-1.070	-0.750
2020/01/31 22:05:35.6	96.100	0.260	-1.010	-0.720
2020/01/31 22:05:35.7	96.070	0.230	-0.940	-0.690
2020/01/31 22:05:35.8	96.040	0.190	-0.870	-0.640
2020/01/31 22:05:35.9	96.000	0.160	-0.800	-0.600
2020/01/31 22:05:36.0	95.960	0.120	-0.720	-0.550
2020/01/31 22:05:36.1	95.920	0.080	-0.640	-0.500
2020/01/31 22:05:36.2	95.890	0.040	-0.560	-0.440
2020/01/31 22:05:36.3	95.850	-0.000	-0.480	-0.380
2020/01/31 22:05:36.4	95.810	-0.040	-0.390	-0.320
2020/01/31 22:05:36.5	95.780	-0.090	-0.300	-0.260
2020/01/31 22:05:36.6	95.750	-0.130	-0.220	-0.200
2020/01/31 22:05:36.7	95.710	-0.170	-0.130	-0.140
2020/01/31 22:05:36.8	95.680	-0.210	-0.040	-0.070
2020/01/31 22:05:36.9	95.650	-0.250	0.040	-0.010
2020/01/31 22:05:37.0	95.620	-0.290	0.120	0.050
2020/01/31 22:05:37.1	95.590	-0.330	0.200	0.110
2020/01/31 22:05:37.2	95.560	-0.360	0.270	0.170
2020/01/31 22:05:37.3	95.540	-0.390	0.350	0.230
2020/01/31 22:05:37.4	95.520	-0.420	0.410	0.280
2020/01/31 22:05:37.5	95.500	-0.450	0.480	0.330
2020/01/31 22:05:37.6	95.480	-0.470	0.530	0.380
2020/01/31 22:05:37.7	95.470	-0.490	0.590	0.420
2020/01/31 22:05:37.8	95.460	-0.510	0.630	0.460
2020/01/31 22:05:37.9	95.450	-0.530	0.670	0.500
2020/01/31 22:05:38.0	95.460	-0.540	0.710	0.530
2020/01/31 22:05:38.1	95.450	-0.550	0.740	0.550
2020/01/31 22:05:38.2	95.450	-0.550	0.760	0.570
2020/01/31 22:05:38.3	95.450	-0.550	0.770	0.580
2020/01/31 22:05:38.4	95.460	-0.550	0.780	0.580
2020/01/31 22:05:38.5	95.470	-0.550	0.780	0.580
2020/01/31 22:05:38.6	95.480	-0.540	0.780	0.580
2020/01/31 22:05:38.7	95.490	-0.530	0.770	0.570
2020/01/31 22:05:38.8	95.510	-0.510	0.750	0.550
2020/01/31 22:05:38.9	95.530	-0.490	0.730	0.530
2020/01/31 22:05:39.0	95.550	-0.470	0.700	0.510
2020/01/31 22:05:39.1	95.580	-0.450	0.660	0.480
2020/01/31 22:05:39.2	95.600	-0.430	0.630	0.450
2020/01/31 22:05:39.3	95.630	-0.400	0.580	0.410
2020/01/31 22:05:39.4	95.660	-0.370	0.540	0.380
2020/01/31 22:05:39.5	95.700	-0.340	0.490	0.340
2020/01/31 22:05:39.6	95.730	-0.310	0.440	0.300
2020/01/31 22:05:39.7	95.760	-0.280	0.380	0.260
2020/01/31 22:05:39.8	95.800	-0.250	0.320	0.220
2020/01/31 22:05:39.9	95.830	-0.210	0.270	0.180
2020/01/31 22:05:40.0	95.870	-0.180	0.210	0.140
2020/01/31 22:05:40.1	95.900	-0.140	0.150	0.100
2020/01/31 22:05:40.2	95.940	-0.110	0.090	0.060
2020/01/31 22:05:40.3	95.980	-0.070	0.040	0.020
2020/01/31 22:05:40.4	96.010	-0.040	-0.020	-0.010
2020/01/31 22:05:40.5	96.050	-0.010	-0.080	-0.040
2020/01/31 22:05:40.6	96.090	0.030	-0.130	-0.070
2020/01/31 22:05:40.7	96.120	0.060	-0.180	-0.100
2020/01/31 22:05:40.8	96.160	0.090	-0.230	-0.130
2020/01/31 22:05:40.9	96.190	0.120	-0.280	-0.150
2020/01/31 22:05:41.0	96.230	0.150	-0.320	-0.170
2020/01/31 22:05:41.1	96.260	0.170	-0.360	-0.190
2020/01/31 22:05:41.2	96.290	0.200	-0.400	-0.200
2020/01/31 22:05:41.3	96.320	0.220	-0.440	-0.220
2020/01/31 22:05:41.4	96.340	0.250	-0.470	-0.230
2020/01/31 22:05:41.5	96.370	0.270	-0.500	-0.230
2020/01/31 22:05:41.6	96.390	0.290	-0.520	-0.230
2020/01/31 22:05:41.7	96.410	0.300	-0.540	-0.230
2020/01/31 22:05:41.8	96.420	0.320	-0.560	-0.230
2020/01/31 22:05:41.9	96.440	0.330	-0.580	-0.220
2020/01/31 22:05:42.0	96.450	0.350	-0.590	-0.200
2020/01/31 22:05:42.1	96.450	0.360	-0.600	-0.180
2020/01/31 22:05:42.2	96.460	0.370	-0.600	-0.160
2020/01/31 22:05:42.3	96.460	0.370	-0.600	-0.130
2020/01/31 22:05:42.4	96.450	0.380	-0.600	-0.100
2020/01/31 22:05:42.5	96.450	0.380	-0.600	-0.070
2020/01/31 22:05:42.6	96.440	0.380	-0.590	-0.030
2020/01/31 22:05:42.7	96.420	0.380	-0.590	0.020
2020/01/31 22:05:42.8	96.410	0.380	-0.580	0.070
2020/01/31 22:05:42.9	96.390	0.380	-0.570	0.120
2020/01/31 22:05:43.0	96.370	0.370	-0.550	0.170
2020/01/31 22:05:43.1	96.340	0.370	-0.540	0.220
2020/01/31 22:05:43.2	96.320	0.360	-0.530	0.280
2020/01/31 22:05:43.3	96.290	0.350	-0.510	0.340
2020/01/31 22:05:43.4	96.260	0.340	-0.500	0.410
2020/01/31 22:05:43.5	96.230	0.320	-0.480	0.480
2020/01/31 22:05:43.6	96.200	0.310	-0.470	0.540
2020/01/31 22:05:43.7	96.160	0.290	-0.450	0.610
2020/01/31 22:05:43.8	96.130	0.280	-0.440	0.680
2020/01/31 22:05:43.9	96.090	0.260	-0.430	0.760
2020/01/31 22:05:44.0	96.060	0.250	-0.420	0.830
2020/01/31 22:05:44.1	96.020	0.230	-0.410	0.900
2020/01/31 22:05:44.2	95.990	0.210	-0.400	0.970
2020/01/31 22:05:44.3	95.950	0.190	-0.390	1.040
2020/01/31 22:05:44.4	95.920	0.170	-0.390	1.110
2020/01/31 22:05:44.5	95.880	0.160	-0.390	1.170
2020/01/31 22:05:44.6	95.850	0.140	-0.380	1.240
2020/01/31 22:05:44.7	95.820	0.120	-0.380	1.300
2020/01/31 22:05:44.8	95.790	0.100	-0.390	1.350
2020/01/31 22:05:44.9	95.760	0.090	-0.390	1.410
2020/01/31 22:05:45.0	95.750	0.070	-0.400	1.460
2020/01/31 22:05:45.1	95.720	0.060	-0.400	1.500
2020/01/31 22:05:45.2	95.700	0.050	-0.410	1.550
2020/01/31 22:05:45.3	95.680	0.030	-0.420	1.590
2020/01/31 22:05:45.4	95.670	0.020	-0.430	1.620
2020/01/31 22:05:45.5	95.650	0.010	-0.440	1.650
2020/01/31 22:05:45.6	95.640	0.000	-0.450	1.680
2020/01/31 22:05:45.7	95.630	-0.010	-0.460	1.700
2020/01/31 22:05:45.8	95.620	-0.010	-0.470	1.720
2020/01/31 22:05:45.9	95.610	-0.020	-0.480	1.740
2020/01/31 22:05:46.0	95.610	-0.030	-0.490	1.740
2020/01/31 22:05:46.1	95.610	-0.030	-0.500	1.750
2020/01/31 22:05:46.2	95.610	-0.040	-0.500	1.750
2020/01/31 22:05:46.3	95.610	-0.040	-0.500	1.750
2020/01/31 22:05:46.4	95.610	-0.040	-0.490	1.740
2020/01/31 22:05:46.5	95.610	-0.050	-0.490	1.730
2020/01/31 22:05:46.6	95.620	-0.050	-0.480	1.720
2020/01/31 22:05:46.7	95.620	-0.060	-0.460	1.700
2020/01/31 22:05:46.8	95.630	-0.060	-0.440	1.680
2020/01/31 22:05:46.9	95.640	-0.070	-0.420	1.650
2020/01/31 22:05:47.0	95.650	-0.070	-0.390	1.630
2020/01/31 22:05:47.1	95.660	-0.080	-0.360	1.590
2020/01/31 22:05:47.2	95.680	-0.080	-0.330	1.560
2020/01/31 22:05:47.3	95.690	-0.090	-0.290	1.520
2020/01/31 22:05:47.4	95.710	-0.100	-0.250	1.470
2020/01/31 22:05:47.5	95.730	-0.110	-0.200	1.430
2020/01/31 22:05:47.6	95.740	-0.120	-0.150	1.370
2020/01/31 22:05:47.7	95.770	-0.130	-0.100	1.320
2020/01/31 22:05:47.8	95.790	-0.140	-0.050	1.260
2020/01/31 22:05:47.9	95.810	-0.150	0.000	1.200
2020/01/31 22:05:48.0	95.850	-0.170	0.060	1.140
2020/01/31 22:05:48.1	95.870	-0.180	0.110	1.070
2020/01/31 22:05:48.2	95.900	-0.190	0.170	1.010
2020/01/31 22:05:48.3	95.920	-0.210	0.220	0.930
2020/01/31 22:05:48.4	95.940	-0.220	0.280	0.860
2020/01/31 22:05:48.5	95.970	-0.240	0.330	0.790
2020/01/31 22:05:48.6	96.000	-0.250	0.380	0.710
2020/01/31 22:05:48.7	96.020	-0.270	0.430	0.630
2020/01/31 22:05:48.8	96.050	-0.280	0.470	0.550
2020/01/31 22:05:48.9	96.070	-0.300	0.520	0.480
2020/01/31 22:05:49.0	96.090	-0.310	0.550	0.390
2020/01/31 22:05:49.1	96.110	-0.320	0.590	0.320
2020/01/31 22:05:49.2	96.140	-0.330	0.620	0.240
2020/01/31 22:05:49.3	96.160	-0.350	0.640	0.160
2020/01/31 22:05:49.4	96.180	-0.350	0.660	0.090
2020/01/31 22:05:49.5	96.200	-0.360	0.670	0.020
2020/01/31 22:05:49.6	96.210	-0.370	0.680	-0.050
2020/01/31 22:05:49.7	96.230	-0.370	0.680	-0.120
2020/01/31 22:05:49.8	96.240	-0.380	0.680	-0.190
2020/01/31 22:05:49.9	96.250	-0.380	0.660	-0.250
2020/01/31 22:05:50.0	96.270	-0.380	0.650	-0.310
2020/01/31 22:05:50.1	96.270	-0.380	0.620	-0.370
2020/01/31 22:05:50.2	96.280	-0.370	0.590	-0.420
2020/01/31 22:05:50.3	96.290	-0.370	0.560	-0.470
2020/01/31 22:05:50.4	96.290	-0.360	0.520	-0.510
2020/01/31 22:05:50.5	96.300	-0.350	0.480	-0.560
2020/01/31 22:05:50.6	96.300	-0.340	0.420	-0.600
2020/01/31 22:05:50.7	96.300	-0.330	0.370	-0.630
2020/01/31 22:05:50.8	96.300	-0.310	0.310	-0.670
2020/01/31 22:05:50.9	96.300	-0.300	0.250	-0.700
2020/01/31 22:05:51.0	96.310	-0.280	0.190	-0.730
2020/01/31 22:05:51.1	96.310	-0.260	0.120	-0.750
2020/01/31 22:05:51.2	96.310	-0.240	0.050	-0.780
2020/01/31 22:05:51.3	96.310	-0.220	-0.020	-0.800
2020/01/31 22:05:51.4	96.310	-0.190	-0.100	-0.810
2020/01/31 22:05:51.5	96.310	-0.170	-0.170	-0.830
2020/01/31 22:05:51.6	96.310	-0.140	-0.240	-0.840
2020/01/31 22:05:51.7	96.310	-0.110	-0.320	-0.850
2020/01/31 22:05:51.8	96.310	-0.090	-0.390	-0.860
2020/01/31 22:05:51.9	96.320	-0.060	-0.460	-0.870
2020/01/31 22:05:52.0	96.310	-0.030	-0.530	-0.870
2020/01/31 22:05:52.1	96.310	0.000	-0.600	-0.870
2020/01/31 22:05:52.2	96.310	0.030	-0.670	-0.870
2020/01/31 22:05:52.3	96.320	0.060	-0.730	-0.870
2020/01/31 22:05:52.4	96.320	0.090	-0.790	-0.860
2020/01/31 22:05:52.5	96.320	0.120	-0.840	-0.850
2020/01/31 22:05:52.6	96.330	0.150	-0.890	-0.840
2020/01/31 22:05:52.7	96.330	0.180	-0.930	-0.830
2020/01/31 22:05:52.8	96.330	0.210	-0.970	-0.810
2020/01/31 22:05:52.9	96.330	0.230	-1.010	-0.790
2020/01/31 22:05:53.0	96.330	0.260	-1.030	-0.770
2020/01/31 22:05:53.1	96.330	0.290	-1.050	-0.750
2020/01/31 22:05:53.2	96.340	0.310	-1.070	-0.720
2020/01/31 22:05:53.3	96.340	0.330	-1.080	-0.700
2020/01/31 22:05:53.4	96.340	0.350	-1.090	-0.660
2020/01/31 22:05:53.5	96.340	0.370	-1.080	-0.630
2020/01/31 22:05:53.6	96.340	0.390	-1.070	-0.600
2020/01/31 22:05:53.7	96.340	0.400	-1.060	-0.560
2020/01/31 22:05:53.8	96.340	0.410	-1.040	-0.530
2020/01/31 22:05:53.9	96.340	0.420	-1.010	-0.490
2020/01/31 22:05:54.0	96.320	0.430	-0.980	-0.450
2020/01/31 22:05:54.1	96.320	0.430	-0.930	-0.400
2020/01/31 22:05:54.2	96.310	0.440	-0.890	-0.360
2020/01/31 22:05:54.3	96.310	0.430	-0.830	-0.320
2020/01/31 22:05:54.4	96.300	0.430	-0.780	-0.270
2020/01/31 22:05:54.5	96.300	0.420	-0.710	-0.230
2020/01/31 22:05:54.6	96.290	0.410	-0.650	-0.180
2020/01/31 22:05:54.7	96.280	0.390	-0.570	-0.130
2020/01/31 22:05:54.8	96.270	0.380	-0.500	-0.080
2020/01/31 22:05:54.9	96.270	0.360	-0.420	-0.030
2020/01/31 22:05:55.0	96.250	0.340	-0.340	0.020
2020/01/31 22:05:55.1	96.240	0.310	-0.260	0.080
2020/01/31 22:05:55.2	96.220	0.290	-0.180	0.130
2020/01/31 22:05:55.3	96.210	0.260	-0.100	0.190
2020/01/31 22:05:55.4	96.190	0.230	-0.020	0.240
2020/01/31 22:05:55.5	96.180	0.190	0.060	0.300
2020/01/31 22:05:55.6	96.160	0.160	0.130	0.360
2020/01/31 22:05:55.7	96.140	0.130	0.200	0.420
2020/01/31 22:05:55.8	96.120	0.090	0.270	0.480
2020/01/31 22:05:55.9	96.110	0.060	0.330	0.530
2020/01/31 22:05:56.0	96.090	0.020	0.390	0.590
2020/01/31 22:05:56.1	96.070	-0.010	0.450	0.640
2020/01/31 22:05:56.2	96.050	-0.040	0.490	0.700
2020/01/31 22:05:56.3	96.040	-0.070	0.540	0.750
2020/01/31 22:05:56.4	96.020	-0.100	0.570	0.810
2020/01/31 22:05:56.5	96.010	-0.130	0.600	0.860
2020/01/31 22:05:56.6	95.990	-0.160	0.620	0.910
2020/01/31 22:05:56.7	95.980	-0.180	0.640	0.960
2020/01/31 22:05:56.8	95.970	-0.200	0.650	1.000
2020/01/31 22:05:56.9	95.960	-0.220	0.650	1.040
2020/01/31 22:05:57.0	95.960	-0.240	0.640	1.080
2020/01/31 22:05:57.1	95.950	-0.250	0.630	1.120
2020/01/31 22:05:57.2	95.950	-0.260	0.610	1.160
2020/01/31 22:05:57.3	95.940	-0.260	0.580	1.190
2020/01/31 22:05:57.4	95.940	-0.260	0.550	1.220
2020/01/31 22:05:57.5	95.940	-0.260	0.510	1.250
2020/01/31 22:05:57.6	95.950	-0.260	0.460	1.270
2020/01/31 22:05:57.7	95.950	-0.250	0.410	1.290
2020/01/31 22:05:57.8	95.960	-0.240	0.360	1.310
2020/01/31 22:05:57.9	95.960	-0.220	0.300	1.330
2020/01/31 22:05:58.0	95.980	-0.200	0.230	1.340
2020/01/31 22:05:58.1	95.990	-0.180	0.160	1.350
2020/01/31 22:05:58.2	96.000	-0.160	0.090	1.360
2020/01/31 22:05:58.3	96.010	-0.130	0.010	1.370
2020/01/31 22:05:58.4	96.030	-0.110	-0.060	1.370
2020/01/31 22:05:58.5	96.040	-0.080	-0.140	1.370
2020/01/31 22:05:58.6	96.060	-0.050	-0.210	1.380
2020/01/31 22:05:58.7	96.070	-0.010	-0.290	1.380
2020/01/31 22:05:58.8	96.090	0.020	-0.370	1.380
2020/01/31 22:05:58.9	96.110	0.050	-0.440	1.370
2020/01/31 22:05:59.0	96.130	0.080	-0.510	1.370
2020/01/31 22:05:59.1	96.150	0.110	-0.570	1.370
2020/01/31 22:05:59.2	96.160	0.140	-0.640	1.360
2020/01/31 22:05:59.3	96.180	0.170	-0.700	1.360
2020/01/31 22:05:59.4	96.190	0.200	-0.750	1.350
2020/01/31 22:05:59.5	96.210	0.230	-0.800	1.340
2020/01/31 22:05:59.6	96.220	0.250	-0.840	1.340
2020/01/31 22:05:59.7	96.240	0.280	-0.870	1.330
2020/01/31 22:05:59.8	96.250	0.300	-0.900	1.320
2020/01/31 22:05:59.9	96.260	0.310	-0.920	1.310
2020/01/31 22:06:00.0	96.270	0.330	-0.940	1.300
2020/01/31 22:06:00.1	96.280	0.340	-0.950	1.280
2020/01/31 22:06:00.2	96.290	0.350	-0.950	1.270
2020/01/31 22:06:00.3	96.300	0.360	-0.940	1.260
2020/01/31 22:06:00.4	96.310	0.360	-0.920	1.240
2020/01/31 22:06:00.5	96.320	0.360	-0.900	1.230
2020/01/31 22:06:00.6	96.330	0.360	-0.870	1.210
2020/01/31 22:06:00.7	96.340	0.360	-0.840	1.190
2020/01/31 22:06:00.8	96.350	0.350	-0.800	1.180
2020/01/31 22:06:00.9	96.360	0.340	-0.750	1.160
2020/01/31 22:06:01.0	96.370	0.330	-0.700	1.130
2020/01/31 22:06:01.1	96.380	0.310	-0.650	1.110
2020/01/31 22:06:01.2	96.390	0.300	-0.590	1.090
2020/01/31 22:06:01.3	96.400	0.280	-0.530	1.060
2020/01/31 22:06:01.4	96.410	0.260	-0.470	1.040
2020/01/31 22:06:01.5	96.420	0.240	-0.410	1.010
2020/01/31 22:06:01.6	96.430	0.220	-0.350	0.990
2020/01/31 22:06:01.7	96.440	0.200	-0.280	0.960
2020/01/31 22:06:01.8	96.460	0.180	-0.220	0.930
2020/01/31 22:06:01.9	96.470	0.150	-0.160	0.900
2020/01/31 22:06:02.0	96.480	0.130	-0.100	0.870
2020/01/31 22:06:02.1	96.500	0.110	-0.050	0.840
2020/01/31 22:06:02.2	96.510	0.090	0.000	0.810
2020/01/31 22:06:02.3	96.520	0.070	0.050	0.770
2020/01/31 22:06:02.4	96.530	0.050	0.100	0.740
2020/01/31 22:06:02.5	96.540	0.030	0.140	0.710
2020/01/31 22:06:02.6	96.550	0.010	0.180	0.680
2020/01/31 22:06:02.7	96.550	-0.010	0.210	0.650
2020/01/31 22:06:02.8	96.560	-0.020	0.240	0.620
2020/01/31 22:06:02.9	96.570	-0.040	0.270	0.600
2020/01/31 22:06:03.0	96.570	-0.050	0.290	0.570
2020/01/31 22:06:03.1	96.570	-0.060	0.300	0.540
2020/01/31 22:06:03.2	96.570	-0.080	0.320	0.520
2020/01/31 22:06:03.3	96.570	-0.090	0.330	0.500
2020/01/31 22:06:03.4	96.570	-0.100	0.330	0.490
2020/01/31 22:06:03.5	96.560	-0.110	0.340	0.470
2020/01/31 22:06:03.6	96.560	-0.120	0.340	0.460
2020/01/31 22:06:03.7	96.550	-0.130	0.330	0.450
2020/01/31 22:06:03.8	96.530	-0.140	0.330	0.440
2020/01/31 22:06:03.9	96.520	-0.150	0.320	0.430
2020/01/31 22:06:04.0	96.500	-0.160	0.310	0.420
2020/01/31 22:06:04.1	96.490	-0.170	0.300	0.410
2020/01/31 22:06:04.2	96.470	-0.190	0.290	0.410
2020/01/31 22:06:04.3	96.450	-0.200	0.280	0.400
2020/01/31 22:06:04.4	96.430	-0.210	0.270	0.400
2020/01/31 22:06:04.5	96.410	-0.220	0.250	0.390
2020/01/31 22:06:04.6	96.390	-0.240	0.240	0.390
2020/01/31 22:06:04.7	96.360	-0.250	0.220	0.390
2020/01/31 22:06:04.8	96.340	-0.270	0.200	0.390
2020/01/31 22:06:04.9	96.320	-0.280	0.190	0.380
2020/01/31 22:06:05.0	96.300	-0.300	0.170	0.380
2020/01/31 22:06:05.1	96.270	-0.320	0.150	0.380
2020/01/31 22:06:05.2	96.250	-0.330	0.140	0.370
2020/01/31 22:06:05.3	96.230	-0.350	0.120	0.370
2020/01/31 22:06:05.4	96.200	-0.370	0.100	0.360
2020/01/31 22:06:05.5	96.180	-0.380	0.080	0.360
2020/01/31 22:06:05.6	96.160	-0.400	0.060	0.350
2020/01/31 22:06:05.7	96.140	-0.420	0.040	0.340
2020/01/31 22:06:05.8	96.120	-0.430	0.020	0.340
2020/01/31 22:06:05.9	96.100	-0.450	-0.000	0.330
2020/01/31 22:06:06.0	96.080	-0.460	-0.030	0.310
2020/01/31 22:06:06.1	96.070	-0.470	-0.050	0.310
2020/01/31 22:06:06.2	96.050	-0.480	-0.070	0.300
2020/01/31 22:06:06.3	96.040	-0.490	-0.100	0.290
2020/01/31 22:06:06.4	96.030	-0.500	-0.130	0.280
2020/01/31 22:06:06.5	96.020	-0.500	-0.150	0.260
2020/01/31 22:06:06.6	96.010	-0.510	-0.180	0.250
2020/01/31 22:06:06.7	96.000	-0.510	-0.210	0.240
2020/01/31 22:06:06.8	96.000	-0.500	-0.240	0.230
2020/01/31 22:06:06.9	96.000	-0.500	-0.270	0.220
2020/01/31 22:06:07.0	96.000	-0.490	-0.300	0.200
2020/01/31 22:06:07.1	96.000	-0.480	-0.320	0.190
2020/01/31 22:06:07.2	96.000	-0.470	-0.350	0.170
2020/01/31 22:06:07.3	96.000	-0.460	-0.380	0.160
2020/01/31 22:06:07.4	96.010	-0.440	-0.410	0.140
2020/01/31 22:06:07.5	96.010	-0.420	-0.440	0.130
2020/01/31 22:06:07.6	96.020	-0.400	-0.460	0.110
2020/01/31 22:06:07.7	96.030	-0.370	-0.480	0.100
2020/01/31 22:06:07.8	96.040	-0.350	-0.510	0.080
2020/01/31 22:06:07.9	96.050	-0.320	-0.520	0.070
2020/01/31 22:06:08.0	96.050	-0.290	-0.550	0.050
2020/01/31 22:06:08.1	96.060	-0.260	-0.560	0.030
2020/01/31 22:06:08.2	96.070	-0.220	-0.570	0.020
2020/01/31 22:06:08.3	96.090	-0.190	-0.580	0.000
2020/01/31 22:06:08.4	96.100	-0.150	-0.590	-0.020
2020/01/31 22:06:08.5	96.110	-0.120	-0.590	-0.030
2020/01/31 22:06:08.6	96.130	-0.080	-0.590	-0.050
2020/01/31 22:06:08.7	96.140	-0.040	-0.590	-0.060
2020/01/31 22:06:08.8	96.160	-0.000	-0.580	-0.070
2020/01/31 22:06:08.9	96.170	0.030	-0.570	-0.090
2020/01/31 22:06:09.0	96.200	0.070	-0.560	-0.100
2020/01/31 22:06:09.1	96.220	0.110	-0.550	-0.110
2020/01/31 22:06:09.2	96.240	0.140	-0.530	-0.120
2020/01/31 22:06:09.3	96.250	0.180	-0.520	-0.130
2020/01/31 22:06:09.4	96.270	0.210	-0.500	-0.140
2020/01/31 22:06:09.5	96.290	0.250	-0.480	-0.140
2020/01/31 22:06:09.6	96.310	0.280	-0.450	-0.150
2020/01/31 22:06:09.7	96.330	0.310	-0.430	-0.160
2020/01/31 22:06:09.8	96.350	0.340	-0.410	-0.160
2020/01/31 22:06:09.9	96.370	0.360	-0.380	-0.170
2020/01/31 22:06:10.0	96.390	0.390	-0.350	-0.170
2020/01/31 22:06:10.1	96.400	0.410	-0.330	-0.180
2020/01/31 22:06:10.2	96.420	0.430	-0.300	-0.180
2020/01/31 22:06:10.3	96.440	0.450	-0.280	-0.180
2020/01/31 22:06:10.4	96.460	0.470	-0.250	-0.180
2020/01/31 22:06:10.5	96.480	0.480	-0.230	-0.170
2020/01/31 22:06:10.6	96.490	0.500	-0.200	-0.170
2020/01/31 22:06:10.7	96.510	0.510	-0.180	-0.170
2020/01/31 22:06:10.8	96.520	0.520	-0.160	-0.160
2020/01/31 22:06:10.9	96.530	0.520	-0.140	-0.160
2020/01/31 22:06:11.0	96.540	0.530	-0.120	-0.140
2020/01/31 22:06:11.1	96.550	0.530	-0.110	-0.130
2020/01/31 22:06:11.2	96.560	0.530	-0.090	-0.120
2020/01/31 22:06:11.3	96.570	0.540	-0.080	-0.110
2020/01/31 22:06:11.4	96.570	0.530	-0.070	-0.090
2020/01/31 22:06:11.5	96.570	0.530	-0.060	-0.070
2020/01/31 22:06:11.6	96.570	0.530	-0.050	-0.040
2020/01/31 22:06:11.7	96.570	0.520	-0.040	-0.010
2020/01/31 22:06:11.8	96.560	0.520	-0.040	0.020
2020/01/31 22:06:11.9	96.550	0.510	-0.040	0.050
2020/01/31 22:06:12.0	96.530	0.500	-0.040	0.090
2020/01/31 22:06:12.1	96.520	0.500	-0.050	0.130
2020/01/31 22:06:12.2	96.510	0.490	-0.050	0.170
2020/01/31 22:06:12.3	96.490	0.480	-0.060	0.220
2020/01/31 22:06:12.4	96.470	0.460	-0.070	0.280
2020/01/31 22:06:12.5	96.450	0.450	-0.080	0.330
2020/01/31 22:06:12.6	96.420	0.440	-0.090	0.390
2020/01/31 22:06:12.7	96.390	0.430	-0.100	0.460
2020/01/31 22:06:12.8	96.370	0.410	-0.110	0.520
2020/01/31 22:06:12.9	96.340	0.400	-0.120	0.590
2020/01/31 22:06:13.0	96.320	0.380	-0.130	0.670
2020/01/31 22:06:13.1	96.280	0.360	-0.140	0.740
2020/01/31 22:06:13.2	96.250	0.350	-0.160	0.810
2020/01/31 22:06:13.3	96.220	0.330	-0.170	0.890
2020/01/31 22:06:13.4	96.180	0.310	-0.180	0.960
2020/01/31 22:06:13.5	96.150	0.290	-0.190	1.040
2020/01/31 22:06:13.6	96.120	0.270	-0.200	1.110
2020/01/31 22:06:13.7	96.090	0.240	-0.210	1.190
2020/01/31 22:06:13.8	96.050	0.220	-0.210	1.260
2020/01/31 22:06:13.9	96.020	0.190	-0.220	1.330
2020/01/31 22:06:14.0	96.000	0.170	-0.230	1.400
2020/01/31 22:06:14.1	95.970	0.140	-0.230	1.460
2020/01/31 22:06:14.2	95.950	0.120	-0.230	1.530
2020/01/31 22:06:14.3	95.920	0.090	-0.230	1.590
2020/01/31 22:06:14.4	95.900	0.060	-0.230	1.640
2020/01/31 22:06:14.5	95.880	0.030	-0.230	1.690
2020/01/31 22:06:14.6	95.870	0.000	-0.220	1.740
2020/01/31 22:06:14.7	95.860	-0.030	-0.220	1.780
2020/01/31 22:06:14.8	95.850	-0.060	-0.210	1.810
2020/01/31 22:06:14.9	95.840	-0.080	-0.200	1.840
2020/01/31 22:06:15.0	95.840	-0.110	-0.190	1.860
2020/01/31 22:06:15.1	95.840	-0.140	-0.190	1.880
2020/01/31 22:06:15.2	95.840	-0.170	-0.180	1.890
2020/01/31 22:06:15.3	95.850	-0.190	-0.170	1.890
2020/01/31 22:06:15.4	95.860	-0.220	-0.160	1.890
2020/01/31 22:06:15.5	95.870	-0.240	-0.150	1.880
2020/01/31 22:06:15.6	95.880	-0.260	-0.140	1.870
2020/01/31 22:06:15.7	95.900	-0.280	-0.130	1.850
2020/01/31 22:06:15.8	95.910	-0.300	-0.110	1.830
2020/01/31 22:06:15.9	95.930	-0.320	-0.100	1.800
2020/01/31 22:06:16.0	95.960	-0.340	-0.090	1.770
2020/01/31 22:06:16.1	95.980	-0.350	-0.080	1.730
2020/01/31 22:06:16.2	96.010	-0.360	-0.070	1.700
2020/01/31 22:06:16.3	96.030	-0.370	-0.050	1.660
2020/01/31 22:06:16.4	96.060	-0.380	-0.040	1.610
2020/01/31 22:06:16.5	96.080	-0.390	-0.030	1.570
2020/01/31 22:06:16.6	96.110	-0.390	-0.010	1.530
2020/01/31 22:06:16.7	96.140	-0.390	0.000	1.490
2020/01/31 22:06:16.8	96.160	-0.400	0.010	1.440
2020/01/31 22:06:16.9	96.190	-0.400	0.030	1.400
2020/01/31 22:06:17.0	96.220	-0.390	0.050	1.360
2020/01/31 22:06:17.1	96.240	-0.390	0.060	1.310
2020/01/31 22:06:17.2	96.260	-0.390	0.080	1.270
2020/01/31 22:06:17.3	96.280	-0.380	0.090	1.230
2020/01/31 22:06:17.4	96.300	-0.370	0.110	1.190
2020/01/31 22:06:17.5	96.320	-0.370	0.120	1.150
2020/01/31 22:06:17.6	96.340	-0.360	0.130	1.100
2020/01/31 22:06:17.7	96.350	-0.350	0.140	1.060
2020/01/31 22:06:17.8	96.370	-0.340	0.150	1.020
2020/01/31 22:06:17.9	96.380	-0.330	0.150	0.980
2020/01/31 22:06:18.0	96.400	-0.320	0.150	0.940
2020/01/31 22:06:18.1	96.410	-0.310	0.150	0.900
2020/01/31 22:06:18.2	96.420	-0.290	0.150	0.860
2020/01/31 22:06:18.3	96.430	-0.280	0.150	0.810
2020/01/31 22:06:18.4	96.440	-0.270	0.140	0.770
2020/01/31 22:06:18.5	96.440	-0.260	0.140	0.730
2020/01/31 22:06:18.6	96.450	-0.240	0.120	0.690
2020/01/31 22:06:18.7	96.450	-0.230	0.110	0.650
2020/01/31 22:06:18.8	96.450	-0.220	0.090	0.600
2020/01/31 22:06:18.9	96.460	-0.200	0.070	0.560
2020/01/31 22:06:19.0	96.460	-0.190	0.050	0.520
2020/01/31 22:06:19.1	96.460	-0.170	0.020	0.480
2020/01/31 22:06:19.2	96.460	-0.160	-0.010	0.440
2020/01/31 22:06:19.3	96.460	-0.140	-0.040	0.400
2020/01/31 22:06:19.4	96.460	-0.130	-0.080	0.360
2020/01/31 22:06:19.5	96.460	-0.110	-0.120	0.320
2020/01/31 22:06:19.6	96.450	-0.100	-0.160	0.280
2020/01/31 22:06:19.7	96.450	-0.080	-0.200	0.250
2020/01/31 22:06:19.8	96.450	-0.060	-0.240	0.210
2020/01/31 22:06:19.9	96.440	-0.050	-0.280	0.180
2020/01/31 22:06:20.0	96.430	-0.030	-0.330	0.140
2020/01/31 22:06:20.1	96.430	-0.010	-0.380	0.110
2020/01/31 22:06:20.2	96.420	0.010	-0.420	0.080
2020/01/31 22:06:20.3	96.420	0.020	-0.460	0.060
2020/01/31 22:06:20.4	96.410	0.040	-0.500	0.030
2020/01/31 22:06:20.5	96.410	0.060	-0.550	0.000
2020/01/31 22:06:20.6	96.400	0.070	-0.580	-0.020
2020/01/31 22:06:20.7	96.400	0.090	-0.620	-0.040
2020/01/31 22:06:20.8	96.390	0.110	-0.650	-0.070
2020/01/31 22:06:20.9	96.390	0.120	-0.680	-0.090
2020/01/31 22:06:21.0	96.380	0.140	-0.710	-0.110
2020/01/31 22:06:21.1	96.370	0.150	-0.730	-0.130
2020/01/31 22:06:21.2	96.370	0.170	-0.750	-0.140
2020/01/31 22:06:21.3	96.370	0.180	-0.760	-0.160
2020/01/31 22:06:21.4	96.360	0.190	-0.780	-0.180
2020/01/31 22:06:21.5	96.360	0.200	-0.780	-0.190
2020/01/31 22:06:21.6	96.350	0.210	-0.780	-0.200
2020/01/31 22:06:21.7	96.350	0.220	-0.780	-0.210
2020/01/31 22:06:21.8	96.340	0.230	-0.770	-0.220
2020/01/31 22:06:21.9	96.340	0.230	-0.760	-0.230
2020/01/31 22:06:22.0	96.320	0.240	-0.750	-0.240
2020/01/31 22:06:22.1	96.320	0.240	-0.730	-0.240
2020/01/31 22:06:22.2	96.310	0.240	-0.710	-0.240
2020/01/31 22:06:22.3	96.310	0.240	-0.680	-0.240
2020/01/31 22:06:22.4	96.300	0.240	-0.640	-0.240
2020/01/31 22:06:22.5	96.290	0.240	-0.610	-0.240
2020/01/31 22:06:22.6	96.290	0.240	-0.570	-0.240
2020/01/31 22:06:22.7	96.280	0.230	-0.530	-0.230
2020/01/31 22:06:22.8	96.280	0.230	-0.490	-0.230
2020/01/31 22:06:22.9	96.270	0.220	-0.440	-0.220
2020/01/31 22:06:23.0	96.260	0.210	-0.390	-0.210
2020/01/31 22:06:23.1	96.260	0.200	-0.340	-0.190
2020/01/31 22:06:23.2	96.250	0.190	-0.290	-0.180
2020/01/31 22:06:23.3	96.250	0.180	-0.240	-0.170
2020/01/31 22:06:23.4	96.250	0.170	-0.190	-0.150
2020/01/31 22:06:23.5	96.250	0.150	-0.130	-0.140
2020/01/31 22:06:23.6	96.250	0.140	-0.080	-0.120
2020/01/31 22:06:23.7	96.250	0.120	-0.030	-0.100
2020/01/31 22:06:23.8	96.250	0.110	0.020	-0.080
2020/01/31 22:06:23.9	96.250	0.090	0.080	-0.050
2020/01/31 22:06:24.0	96.260	0.080	0.120	-0.030
2020/01/31 22:06:24.1	96.260	0.060	0.170	-0.010
2020/01/31 22:06:24.2	96.260	0.040	0.220	0.020
2020/01/31 22:06:24.3	96.260	0.030	0.260	0.050
2020/01/31 22:06:24.4	96.260	0.010	0.300	0.080
2020/01/31 22:06:24.5	96.270	-0.000	0.350	0.110
2020/01/31 22:06:24.6	96.270	-0.020	0.380	0.140
2020/01/31 22:06:24.7	96.270	-0.030	0.420	0.170
2020/01/31 22:06:24.8	96.270	-0.040	0.450	0.200
2020/01/31 22:06:24.9	96.280	-0.060	0.480	0.230
2020/01/31 22:06:25.0	96.280	-0.070	0.510	0.270
2020/01/31 22:06:25.1	96.290	-0.080	0.530	0.300
2020/01/31 22:06:25.2	96.290	-0.090	0.540	0.330
2020/01/31 22:06:25.3	96.290	-0.100	0.550	0.370
2020/01/31 22:06:25.4	96.290	-0.110	0.560	0.400
2020/01/31 22:06:25.5	96.300	-0.110	0.560	0.430
2020/01/31 22:06:25.6	96.300	-0.120	0.550	0.460
2020/01/31 22:06:25.7	96.300	-0.120	0.540	0.490
2020/01/31 22:06:25.8	96.300	-0.130	0.530	0.520
2020/01/31 22:06:25.9	96.310	-0.130	0.510	0.550
2020/01/31 22:06:26.0	96.310	-0.130	0.470	0.580
2020/01/31 22:06:26.1	96.310	-0.130	0.440	0.610
2020/01/31 22:06:26.2	96.310	-0.130	0.410	0.630
2020/01/31 22:06:26.3	96.320	-0.130	0.370	0.660
2020/01/31 22:06:26.4	96.320	-0.120	0.330	0.680
2020/01/31 22:06:26.5	96.320	-0.120	0.280	0.700
2020/01/31 22:06:26.6	96.330	-0.110	0.230	0.720
2020/01/31 22:06:26.7	96.330	-0.110	0.180	0.740
2020/01/31 22:06:26.8	96.330	-0.100	0.120	0.760
2020/01/31 22:06:26.9	96.340	-0.100	0.060	0.770
2020/01/31 22:06:27.0	96.350	-0.090	0.010	0.790
2020/01/31 22:06:27.1	96.360	-0.080	-0.060	0.800
2020/01/31 22:06:27.2	96.360	-0.070	-0.120	0.810
2020/01/31 22:06:27.3	96.370	-0.060	-0.180	0.820
2020/01/31 22:06:27.4	96.380	-0.050	-0.250	0.830
2020/01/31 22:06:27.5	96.380	-0.040	-0.310	0.830
2020/01/31 22:06:27.6	96.390	-0.040	-0.370	0.840
2020/01/31 22:06:27.7	96.400	-0.030	-0.430	0.850
2020/01/31 22:06:27.8	96.410	-0.020	-0.480	0.850
2020/01/31 22:06:27.9	96.410	-0.010	-0.540	0.860
2020/01/31 22:06:28.0	96.420	-0.000	-0.590	0.860
2020/01/31 22:06:28.1	96.430	0.010	-0.640	0.870
2020/01/31 22:06:28.2	96.440	0.010	-0.680	0.880
2020/01/31 22:06:28.3	96.450	0.020	-0.710	0.880
2020/01/31 22:06:28.4	96.450	0.020	-0.750	0.900
2020/01/31 22:06:28.5	96.460	0.030	-0.770	0.910
2020/01/31 22:06:28.6	96.470	0.030	-0.790	0.920
2020/01/31 22:06:28.7	96.470	0.040	-0.810	0.940
2020/01/31 22:06:28.8	96.480	0.040	-0.820	0.950
2020/01/31 22:06:28.9	96.490	0.040	-0.820	0.970
2020/01/31 22:06:29.0	96.490	0.040	-0.810	0.990
2020/01/31 22:06:29.1	96.490	0.050	-0.810	1.010
2020/01/31 22:06:29.2	96.500	0.050	-0.800	1.030
2020/01/31 22:06:29.3	96.510	0.050	-0.780	1.060
2020/01/31 22:06:29.4	96.520	0.050	-0.760	1.080
2020/01/31 22:06:29.5	96.520	0.050	-0.730	1.110
2020/01/31 22:06:29.6	96.530	0.050	-0.700	1.140
2020/01/31 22:06:29.7	96.540	0.040	-0.670	1.160
2020/01/31 22:06:29.8	96.550	0.040	-0.640	1.190
2020/01/31 22:06:29.9	96.560	0.040	-0.600	1.210
2020/01/31 22:06:30.0	96.570	0.040	-0.560	1.240
2020/01/31 22:06:30.1	96.590	0.040	-0.520	1.260
2020/01/31 22:06:30.2	96.600	0.040	-0.480	1.290
2020/01/31 22:06:30.3	96.610	0.040	-0.440	1.310
2020/01/31 22:06:30.4	96.630	0.040	-0.400	1.330
2020/01/31 22:06:30.5	96.640	0.040	-0.360	1.350
2020/01/31 22:06:30.6	96.660	0.040	-0.320	1.370
2020/01/31 22:06:30.7	96.680	0.040	-0.290	1.380
2020/01/31 22:06:30.8	96.690	0.040	-0.250	1.400
2020/01/31 22:06:30.9	96.710	0.040	-0.220	1.410
2020/01/31 22:06:31.0	96.720	0.040	-0.190	1.430
2020/01/31 22:06:31.1	96.740	0.040	-0.160	1.440
2020/01/31 22:06:31.2	96.750	0.040	-0.130	1.450
2020/01/31 22:06:31.3	96.760	0.040	-0.100	1.460
2020/01/31 22:06:31.4	96.760	0.040	-0.080	1.460
2020/01/31 22:06:31.5	96.770	0.040	-0.060	1.470
2020/01/31 22:06:31.6	96.770	0.040	-0.040	1.480
2020/01/31 22:06:31.7	96.770	0.040	-0.020	1.480
2020/01/31 22:06:31.8	96.770	0.040	-0.000	1.490
2020/01/31 22:06:31.9	96.770	0.040	0.010	1.490
2020/01/31 22:06:32.0	96.760	0.040	0.030	1.490
2020/01/31 22:06:32.1	96.760	0.040	0.040	1.490
2020/01/31 22:06:32.2	96.750	0.040	0.050	1.480
2020/01/31 22:06:32.3	96.740	0.030	0.060	1.480
2020/01/31 22:06:32.4	96.730	0.030	0.060	1.470
2020/01/31 22:06:32.5	96.720	0.030	0.070	1.460
2020/01/31 22:06:32.6	96.710	0.020	0.080	1.440
2020/01/31 22:06:32.7	96.700	0.020	0.080	1.420
2020/01/31 22:06:32.8	96.680	0.010	0.080	1.400
2020/01/31 22:06:32.9	96.670	0.010	0.090	1.380
2020/01/31 22:06:33.0	96.660	-0.000	0.090	1.340
2020/01/31 22:06:33.1	96.640	-0.010	0.090	1.310
2020/01/31 22:06:33.2	96.630	-0.020	0.090	1.270
2020/01/31 22:06:33.3	96.620	-0.030	0.090	1.240
2020/01/31 22:06:33.4	96.610	-0.030	0.080	1.200
2020/01/31 22:06:33.5	96.590	-0.040	0.080	1.150
2020/01/31 22:06:33.6	96.580	-0.050	0.080	1.110
2020/01/31 22:06:33.7	96.570	-0.060	0.080	1.060
2020/01/31 22:06:33.8	96.560	-0.070	0.070	1.010
2020/01/31 22:06:33.9	96.550	-0.080	0.070	0.960
2020/01/31 22:06:34.0	96.550	-0.090	0.070	0.910
2020/01/31 22:06:34.1	96.540	-0.100	0.060	0.850
2020/01/31 22:06:34.2	96.530	-0.110	0.060	0.800
2020/01/31 22:06:34.3	96.530	-0.120	0.050	0.740
2020/01/31 22:06:34.4	96.520	-0.130	0.050	0.690
2020/01/31 22:06:34.5	96.510	-0.140	0.040	0.640
2020/01/31 22:06:34.6	96.510	-0.150	0.030	0.580
2020/01/31 22:06:34.7	96.500	-0.150	0.030	0.530
2020/01/31 22:06:34.8	96.500	-0.160	0.020	0.480
2020/01/31 22:06:34.9	96.500	-0.160	0.010	0.430
2020/01/31 22:06:35.0	96.490	-0.170	-0.000	0.370
2020/01/31 22:06:35.1	96.490	-0.170	-0.010	0.320
2020/01/31 22:06:35.2	96.480	-0.170	-0.030	0.280
2020/01/31 22:06:35.3	96.480	-0.180	-0.040	0.230
2020/01/31 22:06:35.4	96.490	-0.180	-0.050	0.190
2020/01/31 22:06:35.5	96.490	-0.170	-0.070	0.140
2020/01/31 22:06:35.6	96.490	-0.170	-0.090	0.100
2020/01/31 22:06:35.7	96.500	-0.170	-0.100	0.060
2020/01/31 22:06:35.8	96.500	-0.160	-0.120	0.030
2020/01/31 22:06:35.9	96.510	-0.160	-0.140	-0.010
2020/01/31 22:06:36.0	96.510	-0.150	-0.170	-0.040
2020/01/31 22:06:36.1	96.520	-0.140	-0.190	-0.080
2020/01/31 22:06:36.2	96.540	-0.130	-0.210	-0.110
2020/01/31 22:06:36.3	96.550	-0.120	-0.240	-0.140
2020/01/31 22:06:36.4	96.570	-0.100	-0.260	-0.170
2020/01/31 22:06:36.5	96.580	-0.090	-0.290	-0.190
2020/01/31 22:06:36.6	96.600	-0.070	-0.320	-0.220
2020/01/31 22:06:36.7	96.620	-0.060	-0.350	-0.250
2020/01/31 22:06:36.8	96.640	-0.040	-0.370	-0.270
2020/01/31 22:06:36.9	96.660	-0.020	-0.400	-0.290
2020/01/31 22:06:37.0	96.680	-0.000	-0.430	-0.320
2020/01/31 22:06:37.1	96.700	0.020	-0.460	-0.340
2020/01/31 22:06:37.2	96.730	0.040	-0.480	-0.360
2020/01/31 22:06:37.3	96.750	0.060	-0.510	-0.380
2020/01/31 22:06:37.4	96.770	0.080	-0.530	-0.390
2020/01/31 22:06:37.5	96.780	0.100	-0.550	-0.410
2020/01/31 22:06:37.6	96.800	0.120	-0.570	-0.420
2020/01/31 22:06:37.7	96.820	0.140	-0.590	-0.430
2020/01/31 22:06:37.8	96.830	0.160	-0.600	-0.440
2020/01/31 22:06:37.9	96.850	0.180	-0.620	-0.440
2020/01/31 22:06:38.0	96.860	0.200	-0.620	-0.450
2020/01/31 22:06:38.1	96.870	0.220	-0.630	-0.450
2020/01/31 22:06:38.2	96.880	0.240	-0.630	-0.450
2020/01/31 22:06:38.3	96.890	0.250	-0.630	-0.440
2020/01/31 22:06:38.4	96.890	0.270	-0.630	-0.440
2020/01/31 22:06:38.5	96.900	0.280	-0.620	-0.430
2020/01/31 22:06:38.6	96.900	0.290	-0.610	-0.420
2020/01/31 22:06:38.7	96.910	0.300	-0.590	-0.410
2020/01/31 22:06:38.8	96.910	0.310	-0.570	-0.390
2020/01/31 22:06:38.9	96.910	0.310	-0.550	-0.380
2020/01/31 22:06:39.0	96.910	0.320	-0.520	-0.360
2020/01/31 22:06:39.1	96.910	0.320	-0.490	-0.340
2020/01/31 22:06:39.2	96.910	0.320	-0.450	-0.320
2020/01/31 22:06:39.3	96.910	0.310	-0.410	-0.290
2020/01/31 22:06:39.4	96.910	0.310	-0.370	-0.260
2020/01/31 22:06:39.5	96.910	0.300	-0.320	-0.230
2020/01/31 22:06:39.6	96.910	0.280	-0.270	-0.200
2020/01/31 22:06:39.7	96.900	0.270	-0.220	-0.170
2020/01/31 22:06:39.8	96.900	0.250	-0.160	-0.130
2020/01/31 22:06:39.9	96.900	0.230	-0.100	-0.090
2020/01/31 22:06:40.0	96.900	0.210	-0.040	-0.040
2020/01/31 22:06:40.1	96.890	0.190	0.030	0.000
2020/01/31 22:06:40.2	96.890	0.160	0.090	0.050
2020/01/31 22:06:40.3	96.890	0.130	0.150	0.100
2020/01/31 22:06:40.4	96.890	0.100	0.210	0.150
2020/01/31 22:06:40.5	96.880	0.070	0.270	0.210
2020/01/31 22:06:40.6	96.880	0.040	0.330	0.270
2020/01/31 22:06:40.7	96.870	0.010	0.390	0.330
2020/01/31 22:06:40.8	96.870	-0.030	0.440	0.390
2020/01/31 22:06:40.9	96.860	-0.060	0.490	0.450
2020/01/31 22:06:41.0	96.860	-0.100	0.540	0.510
2020/01/31 22:06:41.1	96.850	-0.130	0.580	0.580
2020/01/31 22:06:41.2	96.850	-0.170	0.610	0.640
2020/01/31 22:06:41.3	96.840	-0.200	0.640	0.700
2020/01/31 22:06:41.4	96.840	-0.230	0.670	0.760
2020/01/31 22:06:41.5	96.830	-0.260	0.680	0.830
2020/01/31 22:06:41.6	96.830	-0.290	0.690	0.890
2020/01/31 22:06:41.7	96.820	-0.320	0.690	0.940
2020/01/31 22:06:41.8	96.820	-0.340	0.690	1.000
2020/01/31 22:06:41.9	96.810	-0.370	0.680	1.050
2020/01/31 22:06:42.0	96.810	-0.390	0.660	1.110
2020/01/31 22:06:42.1	96.810	-0.400	0.640	1.160
2020/01/31 22:06:42.2	96.800	-0.410	0.600	1.200
2020/01/31 22:06:42.3	96.800	-0.420	0.560	1.240
2020/01/31 22:06:42.4	96.800	-0.430	0.520	1.280
2020/01/31 22:06:42.5	96.800	-0.430	0.460	1.320
2020/01/31 22:06:42.6	96.800	-0.430	0.400	1.350
2020/01/31 22:06:42.7	96.800	-0.430	0.340	1.380
2020/01/31 22:06:42.8	96.800	-0.420	0.270	1.410
2020/01/31 22:06:42.9	96.800	-0.400	0.200	1.430
2020/01/31 22:06:43.0	96.810	-0.390	0.120	1.450
2020/01/31 22:06:43.1	96.810	-0.370	0.040	1.460
2020/01/31 22:06:43.2	96.820	-0.340	-0.050	1.480
2020/01/31 22:06:43.3	96.820	-0.320	-0.130	1.490
2020/01/31 22:06:43.4	96.830	-0.290	-0.220	1.500
2020/01/31 22:06:43.5	96.840	-0.250	-0.300	1.500
2020/01/31 22:06:43.6	96.850	-0.220	-0.390	1.510
2020/01/31 22:06:43.7	96.860	-0.180	-0.470	1.510
2020/01/31 22:06:43.8	96.880	-0.140	-0.560	1.510
2020/01/31 22:06:43.9	96.890	-0.100	-0.640	1.510
2020/01/31 22:06:44.0	96.900	-0.060	-0.710	1.500
2020/01/31 22:06:44.1	96.920	-0.020	-0.790	1.490
2020/01/31 22:06:44.2	96.930	0.020	-0.860	1.490
2020/01/31 22:06:44.3	96.950	0.060	-0.920	1.480
2020/01/31 22:06:44.4	96.970	0.100	-0.980	1.470
2020/01/31 22:06:44.5	96.990	0.140	-1.030	1.460
2020/01/31 22:06:44.6	97.000	0.180	-1.080	1.450
2020/01/31 22:06:44.7	97.020	0.210	-1.120	1.440
2020/01/31 22:06:44.8	97.040	0.250	-1.150	1.430
2020/01/31 22:06:44.9	97.050	0.280	-1.170	1.430
2020/01/31 22:06:45.0	97.060	0.300	-1.190	1.420
2020/01/31 22:06:45.1	97.080	0.330	-1.200	1.410
2020/01/31 22:06:45.2	97.090	0.350	-1.200	1.400
2020/01/31 22:06:45.3	97.100	0.360	-1.200	1.390
2020/01/31 22:06:45.4	97.100	0.370	-1.180	1.390
2020/01/31 22:06:45.5	97.110	0.380	-1.160	1.380
2020/01/31 22:06:45.6	97.110	0.380	-1.140	1.370
2020/01/31 22:06:45.7	97.110	0.380	-1.100	1.370
2020/01/31 22:06:45.8	97.110	0.380	-1.060	1.360
2020/01/31 22:06:45.9	97.110	0.370	-1.010	1.350
2020/01/31 22:06:46.0	97.110	0.360	-0.960	1.350
2020/01/31 22:06:46.1	97.110	0.340	-0.900	1.340
2020/01/31 22:06:46.2	97.100	0.320	-0.840	1.340
2020/01/31 22:06:46.3	97.090	0.290	-0.770	1.330
2020/01/31 22:06:46.4	97.090	0.270	-0.710	1.330
2020/01/31 22:06:46.5	97.080	0.240	-0.630	1.320
2020/01/31 22:06:46.6	97.060	0.200	-0.560	1.310
2020/01/31 22:06:46.7	97.050	0.170	-0.480	1.310
2020/01/31 22:06:46.8	97.040	0.130	-0.410	1.300
2020/01/31 22:06:46.9	97.030	0.090	-0.330	1.290
2020/01/31 22:06:47.0	97.010	0.050	-0.250	1.280
2020/01/31 22:06:47.1	97.000	0.010	-0.180	1.270
2020/01/31 22:06:47.2	96.980	-0.030	-0.100	1.260
2020/01/31 22:06:47.3	96.970	-0.080	-0.020	1.250
2020/01/31 22:06:47.4	96.950	-0.120	0.050	1.230
2020/01/31 22:06:47.5	96.940	-0.160	0.120	1.210
2020/01/31 22:06:47.6	96.920	-0.200	0.190	1.190
2020/01/31 22:06:47.7	96.910	-0.240	0.260	1.170
2020/01/31 22:06:47.8	96.890	-0.280	0.320	1.150
2020/01/31 22:06:47.9	96.880	-0.320	0.380	1.120
2020/01/31 22:06:48.0	96.860	-0.350	0.430	1.090
2020/01/31 22:06:48.1	96.850	-0.390	0.480	1.060
2020/01/31 22:06:48.2	96.830	-0.420	0.530	1.030
2020/01/31 22:06:48.3	96.820	-0.450	0.570	0.990
2020/01/31 22:06:48.4	96.810	-0.470	0.610	0.960
2020/01/31 22:06:48.5	96.800	-0.490	0.640	0.920
2020/01/31 22:06:48.6	96.790	-0.510	0.660	0.870
2020/01/31 22:06:48.7	96.780	-0.530	0.680	0.830
2020/01/31 22:06:48.8	96.770	-0.540	0.690	0.780
2020/01/31 22:06:48.9	96.770	-0.550	0.700	0.730
2020/01/31 22:06:49.0	96.760	-0.560	0.700	0.670
2020/01/31 22:06:49.1	96.760	-0.560	0.700	0.610
2020/01/31 22:06:49.2	96.750	-0.560	0.690	0.550
2020/01/31 22:06:49.3	96.750	-0.550	0.680	0.490
2020/01/31 22:06:49.4	96.760	-0.550	0.660	0.430
2020/01/31 22:06:49.5	96.760	-0.540	0.630	0.360
2020/01/31 22:06:49.6	96.760	-0.520	0.600	0.300
2020/01/31 22:06:49.7	96.770	-0.510	0.570	0.230
2020/01/31 22:06:49.8	96.780	-0.490	0.530	0.150
2020/01/31 22:06:49.9	96.790	-0.460	0.490	0.080
2020/01/31 22:06:50.0	96.810	-0.440	0.440	0.000
2020/01/31 22:06:50.1	96.820	-0.410	0.390	-0.070
2020/01/31 22:06:50.2	96.840	-0.380	0.340	-0.140
2020/01/31 22:06:50.3	96.860	-0.350	0.280	-0.220
2020/01/31 22:06:50.4	96.880	-0.320	0.220	-0.300
2020/01/31 22:06:50.5	96.900	-0.280	0.160	-0.370
2020/01/31 22:06:50.6	96.920	-0.250	0.100	-0.450
2020/01/31 22:06:50.7	96.940	-0.210	0.040	-0.520
2020/01/31 22:06:50.8	96.970	-0.170	-0.030	-0.600
2020/01/31 22:06:50.9	97.000	-0.130	-0.090	-0.670
2020/01/31 22:06:51.0	97.020	-0.090	-0.150	-0.740
2020/01/31 22:06:51.1	97.050	-0.050	-0.220	-0.810
2020/01/31 22:06:51.2	97.080	-0.010	-0.280	-0.880
2020/01/31 22:06:51.3	97.110	0.040	-0.340	-0.950
2020/01/31 22:06:51.4	97.140	0.080	-0.390	-1.010
2020/01/31 22:06:51.5	97.170	0.120	-0.450	-1.070
2020/01/31 22:06:51.6	97.200	0.160	-0.500	-1.120
2020/01/31 22:06:51.7	97.230	0.200	-0.550	-1.180
2020/01/31 22:06:51.8	97.260	0.240	-0.600	-1.230
2020/01/31 22:06:51.9	97.280	0.280	-0.640	-1.270
2020/01/31 22:06:52.0	97.300	0.310	-0.680	-1.310
2020/01/31 22:06:52.1	97.330	0.350	-0.720	-1.350
2020/01/31 22:06:52.2	97.350	0.380	-0.750	-1.380
2020/01/31 22:06:52.3	97.370	0.410	-0.770	-1.400
2020/01/31 22:06:52.4	97.390	0.440	-0.800	-1.420
2020/01/31 22:06:52.5	97.400	0.460	-0.810	-1.430
2020/01/31 22:06:52.6	97.420	0.490	-0.820	-1.430
2020/01/31 22:06:52.7	97.430	0.510	-0.830	-1.430
2020/01/31 22:06:52.8	97.440	0.530	-0.830	-1.420
2020/01/31 22:06:52.9	97.440	0.540	-0.830	-1.400
2020/01/31 22:06:53.0	97.440	0.550	-0.820	-1.380
2020/01/31 22:06:53.1	97.440	0.560	-0.810	-1.350
2020/01/31 22:06:53.2	97.440	0.570	-0.790	-1.320
2020/01/31 22:06:53.3	97.430	0.570	-0.760	-1.280
2020/01/31 22:06:53.4	97.430	0.570	-0.740	-1.230
2020/01/31 22:06:53.5	97.420	0.570	-0.700	-1.180
2020/01/31 22:06:53.6	97.410	0.560	-0.670	-1.120
2020/01/31 22:06:53.7	97.390	0.550	-0.630	-1.050
2020/01/31 22:06:53.8	97.380	0.540	-0.590	-0.980
2020/01/31 22:06:53.9	97.360	0.530	-0.540	-0.910
2020/01/31 22:06:54.0	97.330	0.510	-0.490	-0.830
2020/01/31 22:06:54.1	97.310	0.490	-0.450	-0.740
2020/01/31 22:06:54.2	97.290	0.470	-0.400	-0.660
2020/01/31 22:06:54.3	97.270	0.450	-0.350	-0.570
2020/01/31 22:06:54.4	97.250	0.430	-0.300	-0.470
2020/01/31 22:06:54.5	97.220	0.400	-0.250	-0.380
2020/01/31 22:06:54.6	97.200	0.370	-0.200	-0.280
2020/01/31 22:06:54.7	97.170	0.350	-0.150	-0.180
2020/01/31 22:06:54.8	97.150	0.320	-0.100	-0.080
2020/01/31 22:06:54.9	97.120	0.290	-0.060	0.020
2020/01/31 22:06:55.0	97.100	0.260	-0.020	0.120
2020/01/31 22:06:55.1	97.080	0.230	0.030	0.220
2020/01/31 22:06:55.2	97.050	0.200	0.070	0.320
2020/01/31 22:06:55.3	97.030	0.170	0.100	0.430
2020/01/31 22:06:55.4	97.000	0.140	0.140	0.530
2020/01/31 22:06:55.5	96.980	0.110	0.170	0.630
2020/01/31 22:06:55.6	96.960	0.080	0.200	0.730
2020/01/31 22:06:55.7	96.940	0.050	0.230	0.820
2020/01/31 22:06:55.8	96.920	0.020	0.250	0.920
2020/01/31 22:06:55.9	96.900	-0.010	0.270	1.020
2020/01/31 22:06:56.0	96.880	-0.040	0.290	1.110
2020/01/31 22:06:56.1	96.860	-0.070	0.300	1.200
2020/01/31 22:06:56.2	96.850	-0.090	0.310	1.290
2020/01/31 22:06:56.3	96.830	-0.120	0.310	1.380
2020/01/31 22:06:56.4	96.820	-0.140	0.320	1.470
2020/01/31 22:06:56.5	96.800	-0.160	0.310	1.550
2020/01/31 22:06:56.6	96.790	-0.180	0.310	1.630
2020/01/31 22:06:56.7	96.780	-0.200	0.300	1.710
2020/01/31 22:06:56.8	96.770	-0.220	0.280	1.790
2020/01/31 22:06:56.9	96.760	-0.230	0.260	1.860
2020/01/31 22:06:57.0	96.760	-0.250	0.240	1.940
2020/01/31 22:06:57.1	96.750	-0.260	0.220	2.000
2020/01/31 22:06:57.2	96.740	-0.270	0.190	2.070
2020/01/31 22:06:57.3	96.740	-0.280	0.150	2.130
2020/01/31 22:06:57.4	96.740	-0.280	0.120	2.190
2020/01/31 22:06:57.5	96.740	-0.290	0.080	2.240
2020/01/31 22:06:57.6	96.740	-0.290	0.030	2.290
2020/01/31 22:06:57.7	96.740	-0.290	-0.010	2.340
2020/01/31 22:06:57.8	96.750	-0.290	-0.060	2.380
2020/01/31 22:06:57.9	96.750	-0.290	-0.110	2.420
2020/01/31 22:06:58.0	96.770	-0.280	-0.160	2.460
2020/01/31 22:06:58.1	96.780	-0.280	-0.210	2.490
2020/01/31 22:06:58.2	96.790	-0.270	-0.270	2.510
2020/01/31 22:06:58.3	96.800	-0.260	-0.320	2.540
2020/01/31 22:06:58.4	96.820	-0.250	-0.370	2.550
2020/01/31 22:06:58.5	96.830	-0.240	-0.430	2.570
2020/01/31 22:06:58.6	96.850	-0.220	-0.480	2.580
2020/01/31 22:06:58.7	96.870	-0.210	-0.530	2.590
2020/01/31 22:06:58.8	96.890	-0.200	-0.580	2.590
2020/01/31 22:06:58.9	96.910	-0.180	-0.620	2.590
2020/01/31 22:06:59.0	96.940	-0.160	-0.670	2.580
2020/01/31 22:06:59.1	96.960	-0.150	-0.710	2.580
2020/01/31 22:06:59.2	96.980	-0.130	-0.750	2.570
2020/01/31 22:06:59.3	97.010	-0.110	-0.780	2.560
2020/01/31 22:06:59.4	97.030	-0.100	-0.810	2.550
2020/01/31 22:06:59.5	97.050	-0.080	-0.830	2.530
2020/01/31 22:06:59.6	97.070	-0.070	-0.850	2.520
2020/01/31 22:06:59.7	97.080	-0.050	-0.860	2.500
2020/01/31 22:06:59.8	97.100	-0.040	-0.870	2.480
2020/01/31 22:06:59.9	97.110	-0.020	-0.870	2.460
2020/01/31 22:07:00.0	97.120	-0.010	-0.860	2.430
2020/01/31 22:07:00.1	97.130	0.000	-0.840	2.410
2020/01/31 22:07:00.2	97.140	0.010	-0.820	2.380
2020/01/31 22:07:00.3	97.140	0.020	-0.800	2.350
2020/01/31 22:07:00.4	97.140	0.020	-0.760	2.320
2020/01/31 22:07:00.5	97.140	0.030	-0.720	2.290
2020/01/31 22:07:00.6	97.130	0.030	-0.680	2.260
2020/01/31 22:07:00.7	97.120	0.030	-0.630	2.220
2020/01/31 22:07:00.8	97.110	0.030	-0.570	2.180
2020/01/31 22:07:00.9	97.100	0.030	-0.510	2.140
2020/01/31 22:07:01.0	97.080	0.020	-0.440	2.090
2020/01/31 22:07:01.1	97.060	0.020	-0.370	2.040
2020/01/31 22:07:01.2	97.040	0.010	-0.290	1.990
2020/01/31 22:07:01.3	97.010	0.000	-0.220	1.940
2020/01/31 22:07:01.4	96.990	-0.010	-0.140	1.890
2020/01/31 22:07:01.5	96.960	-0.020	-0.050	1.830
2020/01/31 22:07:01.6	96.930	-0.030	0.030	1.770
2020/01/31 22:07:01.7	96.900	-0.040	0.110	1.710
2020/01/31 22:07:01.8	96.870	-0.050	0.190	1.640
2020/01/31 22:07:01.9	96.840	-0.060	0.270	1.580
2020/01/31 22:07:02.0	96.820	-0.080	0.350	1.510
2020/01/31 22:07:02.1	96.790	-0.090	0.420	1.440
2020/01/31 22:07:02.2	96.760	-0.100	0.500	1.360
2020/01/31 22:07:02.3	96.730	-0.120	0.560	1.290
2020/01/31 22:07:02.4	96.700	-0.130	0.620	1.210
2020/01/31 22:07:02.5	96.670	-0.140	0.680	1.130
2020/01/31 22:07:02.6	96.650	-0.150	0.730	1.040
2020/01/31 22:07:02.7	96.620	-0.160	0.770	0.960
2020/01/31 22:07:02.8	96.600	-0.170	0.800	0.870
2020/01/31 22:07:02.9	96.580	-0.180	0.830	0.780
2020/01/31 22:07:03.0	96.560	-0.180	0.850	0.690
2020/01/31 22:07:03.1	96.540	-0.190	0.860	0.600
2020/01/31 22:07:03.2	96.520	-0.190	0.870	0.510
2020/01/31 22:07:03.3	96.510	-0.190	0.860	0.410
2020/01/31 22:07:03.4	96.500	-0.190	0.850	0.320
2020/01/31 22:07:03.5	96.490	-0.190	0.830	0.230
2020/01/31 22:07:03.6	96.480	-0.180	0.800	0.130
2020/01/31 22:07:03.7	96.470	-0.180	0.760	0.040
2020/01/31 22:07:03.8	96.460	-0.170	0.720	-0.060
2020/01/31 22:07:03.9	96.460	-0.160	0.660	-0.150
2020/01/31 22:07:04.0	96.450	-0.150	0.600	-0.250
2020/01/31 22:07:04.1	96.450	-0.140	0.540	-0.340
2020/01/31 22:07:04.2	96.440	-0.130	0.470	-0.430
2020/01/31 22:07:04.3	96.440	-0.110	0.390	-0.520
2020/01/31 22:07:04.4	96.440	-0.100	0.310	-0.600
2020/01/31 22:07:04.5	96.440	-0.080	0.220	-0.690
2020/01/31 22:07:04.6	96.430	-0.060	0.130	-0.770
2020/01/31 22:07:04.7	96.430	-0.040	0.040	-0.840
2020/01/31 22:07:04.8	96.430	-0.020	-0.060	-0.920
2020/01/31 22:07:04.9	96.420	-0.010	-0.150	-0.980
2020/01/31 22:07:05.0	96.410	0.010	-0.250	-1.050
2020/01/31 22:07:05.1	96.400	0.030	-0.350	-1.110
2020/01/31 22:07:05.2	96.400	0.050	-0.440	-1.170
2020/01/31 22:07:05.3	96.390	0.070	-0.530	-1.230
2020/01/31 22:07:05.4	96.380	0.080	-0.620	-1.270
2020/01/31 22:07:05.5	96.370	0.100	-0.700	-1.320
2020/01/31 22:07:05.6	96.360	0.110	-0.780	-1.360
2020/01/31 22:07:05.7	96.340	0.130	-0.860	-1.400
2020/01/31 22:07:05.8	96.330	0.140	-0.930	-1.430
2020/01/31 22:07:05.9	96.320	0.150	-0.990	-1.450
2020/01/31 22:07:06.0	96.290	0.160	-1.050	-1.480
2020/01/31 22:07:06.1	96.280	0.170	-1.100	-1.500
2020/01/31 22:07:06.2	96.260	0.170	-1.140	-1.510
2020/01/31 22:07:06.3	96.240	0.180	-1.180	-1.520
2020/01/31 22:07:06.4	96.220	0.180	-1.210	-1.530
2020/01/31 22:07:06.5	96.210	0.180	-1.230	-1.520
2020/01/31 22:07:06.6	96.190	0.180	-1.240	-1.520
2020/01/31 22:07:06.7	96.170	0.180	-1.250	-1.510
2020/01/31 22:07:06.8	96.150	0.170	-1.250	-1.500
2020/01/31 22:07:06.9	96.130	0.170	-1.240	-1.480
2020/01/31 22:07:07.0	96.100	0.160	-1.220	-1.450
2020/01/31 22:07:07.1	96.080	0.150	-1.200	-1.430
2020/01/31 22:07:07.2	96.060	0.140	-1.170	-1.400
2020/01/31 22:07:07.3	96.040	0.130	-1.140	-1.360
2020/01/31 22:07:07.4	96.020	0.120	-1.100	-1.320
2020/01/31 22:07:07.5	96.000	0.110	-1.050	-1.280
2020/01/31 22:07:07.6	95.980	0.090	-1.000	-1.240
2020/01/31 22:07:07.7	95.950	0.080	-0.950	-1.190
2020/01/31 22:07:07.8	95.930	0.070	-0.890	-1.140
2020/01/31 22:07:07.9	95.910	0.050	-0.830	-1.090
2020/01/31 22:07:08.0	95.890	0.040	-0.760	-1.040
2020/01/31 22:07:08.1	95.870	0.020	-0.700	-0.980
2020/01/31 22:07:08.2	95.850	0.010	-0.630	-0.920
2020/01/31 22:07:08.3	95.830	-0.000	-0.560	-0.850
2020/01/31 22:07:08.4	95.810	-0.020	-0.490	-0.790
2020/01/31 22:07:08.5	95.790	-0.030	-0.420	-0.720
2020/01/31 22:07:08.6	95.770	-0.040	-0.350	-0.650
2020/01/31 22:07:08.7	95.750	-0.050	-0.280	-0.570
2020/01/31 22:07:08.8	95.730	-0.050	-0.200	-0.490
2020/01/31 22:07:08.9	95.710	-0.060	-0.140	-0.420
2020/01/31 22:07:09.0	95.710	-0.060	-0.070	-0.330
2020/01/31 22:07:09.1	95.690	-0.070	-0.000	-0.250
2020/01/31 22:07:09.2	95.670	-0.070	0.060	-0.170
2020/01/31 22:07:09.3	95.650	-0.070	0.120	-0.080
2020/01/31 22:07:09.4	95.630	-0.070	0.180	0.010
2020/01/31 22:07:09.5	95.620	-0.070	0.230	0.100
2020/01/31 22:07:09.6	95.600	-0.060	0.280	0.190
2020/01/31 22:07:09.7	95.590	-0.060	0.330	0.280
2020/01/31 22:07:09.8	95.570	-0.050	0.370	0.370
2020/01/31 22:07:09.9	95.560	-0.050	0.410	0.460
2020/01/31 22:07:10.0	95.540	-0.040	0.440	0.550
2020/01/31 22:07:10.1	95.520	-0.030	0.460	0.650
2020/01/31 22:07:10.2	95.510	-0.020	0.490	0.740
2020/01/31 22:07:10.3	95.490	-0.010	0.500	0.830
2020/01/31 22:07:10.4	95.480	0.000	0.520	0.920
2020/01/31 22:07:10.5	95.470	0.020	0.530	1.010
2020/01/31 22:07:10.6	95.460	0.030	0.530	1.100
2020/01/31 22:07:10.7	95.450	0.040	0.530	1.180
2020/01/31 22:07:10.8	95.440	0.060	0.520	1.270
2020/01/31 22:07:10.9	95.430	0.070	0.510	1.340
2020/01/31 22:07:11.0	95.430	0.080	0.490	1.420
2020/01/31 22:07:11.1	95.420	0.100	0.470	1.490
2020/01/31 22:07:11.2	95.420	0.110	0.440	1.560
2020/01/31 22:07:11.3	95.410	0.120	0.410	1.620
2020/01/31 22:07:11.4	95.410	0.140	0.380	1.680
2020/01/31 22:07:11.5	95.410	0.150	0.350	1.730
2020/01/31 22:07:11.6	95.410	0.160	0.310	1.780
2020/01/31 22:07:11.7	95.410	0.170	0.270	1.820
2020/01/31 22:07:11.8	95.410	0.180	0.230	1.860
2020/01/31 22:07:11.9	95.410	0.190	0.190	1.890
2020/01/31 22:07:12.0	95.410	0.200	0.150	1.920
2020/01/31 22:07:12.1	95.420	0.200	0.100	1.940
2020/01/31 22:07:12.2	95.420	0.210	0.060	1.950
2020/01/31 22:07:12.3	95.420	0.210	0.020	1.970
2020/01/31 22:07:12.4	95.430	0.210	-0.020	1.970
2020/01/31 22:07:12.5	95.430	0.210	-0.060	1.970
2020/01/31 22:07:12.6	95.430	0.210	-0.100	1.970
2020/01/31 22:07:12.7	95.430	0.210	-0.140	1.970
2020/01/31 22:07:12.8	95.430	0.210	-0.170	1.960
2020/01/31 22:07:12.9	95.430	0.200	-0.200	1.950
2020/01/31 22:07:13.0	95.430	0.190	-0.230	1.930
2020/01/31 22:07:13.1	95.420	0.180	-0.250	1.910
2020/01/31 22:07:13.2	95.410	0.170	-0.260	1.900
2020/01/31 22:07:13.3	95.400	0.160	-0.280	1.880
2020/01/31 22:07:13.4	95.380	0.150	-0.290	1.860
2020/01/31 22:07:13.5	95.360	0.130	-0.290	1.830
2020/01/31 22:07:13.6	95.340	0.120	-0.300	1.810
2020/01/31 22:07:13.7	95.310	0.100	-0.290	1.790
2020/01/31 22:07:13.8	95.280	0.080	-0.290	1.760
2020/01/31 22:07:13.9	95.250	0.070	-0.280	1.740
2020/01/31 22:07:14.0	95.210	0.050	-0.260	1.710
2020/01/31 22:07:14.1	95.170	0.030	-0.250	1.690
2020/01/31 22:07:14.2	95.140	0.010	-0.230	1.660
2020/01/31 22:07:14.3	95.100	-0.010	-0.210	1.630
2020/01/31 22:07:14.4	95.060	-0.030	-0.190	1.610
2020/01/31 22:07:14.5	95.020	-0.050	-0.170	1.580
2020/01/31 22:07:14.6	94.980	-0.060	-0.150	1.550
2020/01/31 22:07:14.7	94.940	-0.080	-0.130	1.520
2020/01/31 22:07:14.8	94.900	-0.090	-0.100	1.480
2020/01/31 22:07:14.9	94.860	-0.110	-0.090	1.450
2020/01/31 22:07:15.0	94.820	-0.120	-0.070	1.410
2020/01/31 22:07:15.1	94.790	-0.130	-0.060	1.360
2020/01/31 22:07:15.2	94.760	-0.140	-0.050	1.320
2020/01/31 22:07:15.3	94.740	-0.140	-0.040	1.270
2020/01/31 22:07:15.4	94.710	-0.140	-0.040	1.220
2020/01/31 22:07:15.5	94.700	-0.150	-0.040	1.170
2020/01/31 22:07:15.6	94.680	-0.140	-0.040	1.110
2020/01/31 22:07:15.7	94.670	-0.140	-0.050	1.050
2020/01/31 22:07:15.8	94.670	-0.130	-0.070	0.980
2020/01/31 22:07:15.9	94.670	-0.120	-0.090	0.910
2020/01/31 22:07:16.0	94.670	-0.110	-0.120	0.840
2020/01/31 22:07:16.1	94.670	-0.100	-0.150	0.760
2020/01/31 22:07:16.2	94.690	-0.080	-0.190	0.680
2020/01/31 22:07:16.3	94.700	-0.060	-0.230	0.600
2020/01/31 22:07:16.4	94.720	-0.040	-0.270	0.520
2020/01/31 22:07:16.5	94.740	-0.020	-0.310	0.440
2020/01/31 22:07:16.6	94.760	-0.000	-0.360	0.360
2020/01/31 22:07:16.7	94.780	0.020	-0.410	0.270
2020/01/31 22:07:16.8	94.810	0.040	-0.470	0.190
2020/01/31 22:07:16.9	94.830	0.070	-0.520	0.110
2020/01/31 22:07:17.0	94.860	0.090	-0.570	0.020
2020/01/31 22:07:17.1	94.890	0.110	-0.620	-0.060
2020/01/31 22:07:17.2	94.910	0.130	-0.670	-0.140
2020/01/31 22:07:17.3	94.940	0.160	-0.720	-0.210
2020/01/31 22:07:17.4	94.960	0.180	-0.760	-0.280
2020/01/31 22:07:17.5	94.980	0.190	-0.800	-0.350
2020/01/31 22:07:17.6	95.000	0.210	-0.830	-0.420
2020/01/31 22:07:17.7	95.020	0.220	-0.860	-0.490
2020/01/31 22:07:17.8	95.030	0.230	-0.890	-0.540
2020/01/31 22:07:17.9	95.050	0.240	-0.900	-0.600
2020/01/31 22:07:18.0	95.060	0.250	-0.910	-0.660
2020/01/31 22:07:18.1	95.060	0.250	-0.920	-0.700
2020/01/31 22:07:18.2	95.070	0.250	-0.910	-0.740
2020/01/31 22:07:18.3	95.070	0.250	-0.900	-0.780
2020/01/31 22:07:18.4	95.060	0.250	-0.880	-0.810
2020/01/31 22:07:18.5	95.060	0.240	-0.860	-0.840
2020/01/31 22:07:18.6	95.050	0.230	-0.820	-0.860
2020/01/31 22:07:18.7	95.040	0.210	-0.780	-0.880
2020/01/31 22:07:18.8	95.030	0.190	-0.740	-0.900
2020/01/31 22:07:18.9	95.010	0.170	-0.680	-0.910
2020/01/31 22:07:19.0	95.000	0.150	-0.620	-0.910
2020/01/31 22:07:19.1	94.980	0.130	-0.560	-0.920
2020/01/31 22:07:19.2	94.960	0.100	-0.490	-0.910
2020/01/31 22:07:19.3	94.940	0.070	-0.420	-0.910
2020/01/31 22:07:19.4	94.920	0.040	-0.350	-0.900
2020/01/31 22:07:19.5	94.900	0.010	-0.270	-0.890
2020/01/31 22:07:19.6	94.870	-0.020	-0.190	-0.870
2020/01/31 22:07:19.7	94.850	-0.060	-0.110	-0.850
2020/01/31 22:07:19.8	94.820	-0.090	-0.030	-0.830
2020/01/31 22:07:19.9	94.800	-0.130	0.040	-0.800
2020/01/31 22:07:20.0	94.780	-0.160	0.130	-0.770
2020/01/31 22:07:20.1	94.750	-0.200	0.200	-0.740
2020/01/31 22:07:20.2	94.720	-0.230	0.270	-0.700
2020/01/31 22:07:20.3	94.700	-0.260	0.340	-0.660
2020/01/31 22:07:20.4	94.670	-0.300	0.400	-0.610
2020/01/31 22:07:20.5	94.640	-0.330	0.460	-0.560
2020/01/31 22:07:20.6	94.610	-0.360	0.520	-0.510
2020/01/31 22:07:20.7	94.580	-0.390	0.570	-0.450
2020/01/31 22:07:20.8	94.550	-0.410	0.610	-0.390
2020/01/31 22:07:20.9	94.510	-0.440	0.650	-0.330
2020/01/31 22:07:21.0	94.490	-0.460	0.680	-0.260
2020/01/31 22:07:21.1	94.450	-0.480	0.700	-0.200
2020/01/31 22:07:21.2	94.420	-0.500	0.720	-0.130
2020/01/31 22:07:21.3	94.390	-0.510	0.730	-0.050
2020/01/31 22:07:21.4	94.360	-0.520	0.730	0.020
2020/01/31 22:07:21.5	94.330	-0.530	0.730	0.100
2020/01/31 22:07:21.6	94.300	-0.540	0.720	0.180
2020/01/31 22:07:21.7	94.270	-0.540	0.700	0.250
2020/01/31 22:07:21.8	94.240	-0.540	0.680	0.330
2020/01/31 22:07:21.9	94.210	-0.540	0.660	0.410
2020/01/31 22:07:22.0	94.190	-0.530	0.620	0.490
2020/01/31 22:07:22.1	94.160	-0.530	0.580	0.560
2020/01/31 22:07:22.2	94.140	-0.520	0.540	0.640
2020/01/31 22:07:22.3	94.120	-0.500	0.490	0.720
2020/01/31 22:07:22.4	94.100	-0.490	0.440	0.790
2020/01/31 22:07:22.5	94.090	-0.470	0.380	0.860
2020/01/31 22:07:22.6	94.070	-0.450	0.320	0.930
2020/01/31 22:07:22.7	94.060	-0.430	0.260	0.990
2020/01/31 22:07:22.8	94.050	-0.410	0.200	1.050
2020/01/31 22:07:22.9	94.050	-0.390	0.140	1.110
2020/01/31 22:07:23.0	94.040	-0.360	0.070	1.170
2020/01/31 22:07:23.1	94.040	-0.340	0.010	1.220
2020/01/31 22:07:23.2	94.040	-0.310	-0.050	1.260
2020/01/31 22:07:23.3	94.050	-0.280	-0.120	1.310
2020/01/31 22:07:23.4	94.050	-0.260	-0.180	1.350
2020/01/31 22:07:23.5	94.060	-0.230	-0.240	1.380
2020/01/31 22:07:23.6	94.070	-0.200	-0.300	1.410
2020/01/31 22:07:23.7	94.080	-0.170	-0.350	1.440
2020/01/31 22:07:23.8	94.090	-0.140	-0.410	1.460
2020/01/31 22:07:23.9	94.100	-0.110	-0.460	1.480
2020/01/31 22:07:24.0	94.110	-0.080	-0.500	1.500
2020/01/31 22:07:24.1	94.130	-0.060	-0.540	1.510
2020/01/31 22:07:24.2	94.140	-0.030	-0.580	1.520
2020/01/31 22:07:24.3	94.150	-0.000	-0.610	1.530
2020/01/31 22:07:24.4	94.170	0.020	-0.640	1.540
2020/01/31 22:07:24.5	94.180	0.050	-0.660	1.540
2020/01/31 22:07:24.6	94.190	0.070	-0.680	1.550
2020/01/31 22:07:24.7	94.210	0.090	-0.690	1.550
2020/01/31 22:07:24.8	94.220	0.120	-0.700	1.550
2020/01/31 22:07:24.9	94.230	0.140	-0.700	1.550
2020/01/31 22:07:25.0	94.240	0.160	-0.700	1.540
2020/01/31 22:07:25.1	94.240	0.170	-0.700	1.540
2020/01/31 22:07:25.2	94.250	0.190	-0.690	1.540
2020/01/31 22:07:25.3	94.260	0.210	-0.680	1.540
2020/01/31 22:07:25.4	94.260	0.220	-0.670	1.540
2020/01/31 22:07:25.5	94.270	0.240	-0.650	1.540
2020/01/31 22:07:25.6	94.270	0.250	-0.630	1.540
2020/01/31 22:07:25.7	94.270	0.260	-0.610	1.540
2020/01/31 22:07:25.8	94.270	0.270	-0.590	1.540
2020/01/31 22:07:25.9	94.260	0.280	-0.570	1.540
2020/01/31 22:07:26.0	94.260	0.290	-0.550	1.540
2020/01/31 22:07:26.1	94.250	0.300	-0.530	1.540
2020/01/31 22:07:26.2	94.250	0.310	-0.510	1.540
2020/01/31 22:07:26.3	94.240	0.320	-0.490	1.550
2020/01/31 22:07:26.4	94.230	0.330	-0.470	1.550
2020/01/31 22:07:26.5	94.230	0.340	-0.450	1.550
2020/01/31 22:07:26.6	94.220	0.350	-0.440	1.550
2020/01/31 22:07:26.7	94.210	0.360	-0.430	1.550
2020/01/31 22:07:26.8	94.200	0.370	-0.420	1.550
2020/01/31 22:07:26.9	94.190	0.380	-0.410	1.550
2020/01/31 22:07:27.0	94.180	0.390	-0.400	1.540
2020/01/31 22:07:27.1	94.180	0.400	-0.400	1.530
2020/01/31 22:07:27.2	94.170	0.410	-0.400	1.530
2020/01/31 22:07:27.3	94.160	0.430	-0.400	1.520
2020/01/31 22:07:27.4	94.160	0.440	-0.400	1.510
2020/01/31 22:07:27.5	94.150	0.450	-0.410	1.500
2020/01/31 22:07:27.6	94.150	0.460	-0.420	1.490
2020/01/31 22:07:27.7	94.140	0.480	-0.420	1.480
2020/01/31 22:07:27.8	94.140	0.490	-0.430	1.460
2020/01/31 22:07:27.9	94.130	0.510	-0.440	1.450
2020/01/31 22:07:28.0	94.120	0.520	-0.450	1.430
2020/01/31 22:07:28.1	94.120	0.530	-0.460	1.420
2020/01/31 22:07:28.2	94.110	0.550	-0.470	1.400
2020/01/31 22:07:28.3	94.110	0.560	-0.480	1.390
2020/01/31 22:07:28.4	94.100	0.570	-0.480	1.370
2020/01/31 22:07:28.5	94.090	0.580	-0.480	1.360
2020/01/31 22:07:28.6	94.090	0.590	-0.490	1.340
2020/01/31 22:07:28.7	94.080	0.600	-0.480	1.320
2020/01/31 22:07:28.8	94.070	0.600	-0.480	1.310
2020/01/31 22:07:28.9	94.060	0.610	-0.470	1.290
2020/01/31 22:07:29.0	94.050	0.610	-0.460	1.270
2020/01/31 22:07:29.1	94.050	0.610	-0.450	1.250
2020/01/31 22:07:29.2	94.040	0.610	-0.430	1.230
2020/01/31 22:07:29.3	94.030	0.610	-0.410	1.210
2020/01/31 22:07:29.4	94.020	0.600	-0.390	1.190
2020/01/31 22:07:29.5	94.010	0.590	-0.360	1.170
2020/01/31 22:07:29.6	94.000	0.580	-0.330	1.150
2020/01/31 22:07:29.7	93.990	0.570	-0.300	1.130
2020/01/31 22:07:29.8	93.990	0.550	-0.270	1.100
2020/01/31 22:07:29.9	93.980	0.530	-0.230	1.080
2020/01/31 22:07:30.0	93.970	0.510	-0.200	1.050
2020/01/31 22:07:30.1	93.960	0.490	-0.160	1.020
2020/01/31 22:07:30.2	93.960	0.460	-0.120	0.990
2020/01/31 22:07:30.3	93.950	0.430	-0.070	0.960
2020/01/31 22:07:30.4	93.950	0.400	-0.030	0.930
2020/01/31 22:07:30.5	93.950	0.370	0.020	0.890
2020/01/31 22:07:30.6	93.950	0.330	0.070	0.860
2020/01/31 22:07:30.7	93.940	0.290	0.110	0.820
2020/01/31 22:07:30.8	93.940	0.250	0.160	0.790
2020/01/31 22:07:30.9	93.940	0.200	0.210	0.750
2020/01/31 22:07:31.0	93.940	0.150	0.270	0.710
2020/01/31 22:07:31.1	93.930	0.110	0.320	0.670
2020/01/31 22:07:31.2	93.930	0.060	0.370	0.640
2020/01/31 22:07:31.3	93.930	0.000	0.420	0.600
2020/01/31 22:07:31.4	93.920	-0.050	0.470	0.570
2020/01/31 22:07:31.5	93.910	-0.100	0.510	0.540
2020/01/31 22:07:31.6	93.910	-0.160	0.560	0.510
2020/01/31 22:07:31.7	93.900	-0.210	0.600	0.480
2020/01/31 22:07:31.8	93.890	-0.270	0.650	0.460
2020/01/31 22:07:31.9	93.880	-0.320	0.690	0.430
2020/01/31 22:07:32.0	93.870	-0.380	0.720	0.410
2020/01/31 22:07:32.1	93.860	-0.430	0.760	0.390
2020/01/31 22:07:32.2	93.840	-0.490	0.790	0.370
2020/01/31 22:07:32.3	93.830	-0.540	0.820	0.350
2020/01/31 22:07:32.4	93.810	-0.590	0.840	0.340
2020/01/31 22:07:32.5	93.800	-0.640	0.860	0.320
2020/01/31 22:07:32.6	93.780	-0.680	0.880	0.310
2020/01/31 22:07:32.7	93.760	-0.730	0.880	0.300
2020/01/31 22:07:32.8	93.740	-0.760	0.890	0.300
2020/01/31 22:07:32.9	93.720	-0.800	0.880	0.290
2020/01/31 22:07:33.0	93.690	-0.830	0.880	0.280
2020/01/31 22:07:33.1	93.670	-0.860	0.860	0.280
2020/01/31 22:07:33.2	93.640	-0.880	0.830	0.280
2020/01/31 22:07:33.3	93.620	-0.900	0.800	0.280
2020/01/31 22:07:33.4	93.600	-0.910	0.760	0.280
2020/01/31 22:07:33.5	93.580	-0.920	0.710	0.280
2020/01/31 22:07:33.6	93.560	-0.920	0.650	0.290
2020/01/31 22:07:33.7	93.540	-0.920	0.580	0.290
2020/01/31 22:07:33.8	93.520	-0.910	0.510	0.290
2020/01/31 22:07:33.9	93.500	-0.890	0.430	0.290
2020/01/31 22:07:34.0	93.490	-0.870	0.330	0.290
2020/01/31 22:07:34.1	93.480	-0.850	0.240	0.290
2020/01/31 22:07:34.2	93.470	-0.820	0.140	0.290
2020/01/31 22:07:34.3	93.460	-0.780	0.030	0.290
2020/01/31 22:07:34.4	93.460	-0.740	-0.080	0.290
2020/01/31 22:07:34.5	93.460	-0.690	-0.190	0.280
2020/01/31 22:07:34.6	93.460	-0.640	-0.310	0.280
2020/01/31 22:07:34.7	93.470	-0.580	-0.430	0.270
2020/01/31 22:07:34.8	93.480	-0.520	-0.550	0.260
2020/01/31 22:07:34.9	93.490	-0.460	-0.670	0.240
2020/01/31 22:07:35.0	93.510	-0.400	-0.790	0.230
2020/01/31 22:07:35.1	93.530	-0.330	-0.910	0.210
2020/01/31 22:07:35.2	93.550	-0.260	-1.020	0.190
2020/01/31 22:07:35.3	93.580	-0.200	-1.130	0.170
2020/01/31 22:07:35.4	93.610	-0.130	-1.240	0.150
2020/01/31 22:07:35.5	93.630	-0.060	-1.330	0.130
2020/01/31 22:07:35.6	93.660	0.010	-1.420	0.110
2020/01/31 22:07:35.7	93.690	0.070	-1.500	0.080
2020/01/31 22:07:35.8	93.720	0.140	-1.580	0.060
2020/01/31 22:07:35.9	93.750	0.200	-1.640	0.040
2020/01/31 22:07:36.0	93.780	0.260	-1.690	0.030
2020/01/31 22:07:36.1	93.810	0.310	-1.730	0.010
2020/01/31 22:07:36.2	93.830	0.360	-1.760	-0.000
2020/01/31 22:07:36.3	93.850	0.410	-1.780	-0.010
2020/01/31 22:07:36.4	93.880	0.450	-1.790	-0.020
2020/01/31 22:07:36.5	93.900	0.480	-1.780	-0.030
2020/01/31 22:07:36.6	93.910	0.510	-1.760	-0.030
2020/01/31 22:07:36.7	93.930	0.540	-1.730	-0.030
2020/01/31 22:07:36.8	93.940	0.560	-1.680	-0.030
2020/01/31 22:07:36.9	93.940	0.570	-1.630	-0.030
2020/01/31 22:07:37.0	93.950	0.580	-1.560	-0.020
2020/01/31 22:07:37.1	93.950	0.580	-1.480	-0.010
2020/01/31 22:07:37.2	93.950	0.570	-1.390	0.000
2020/01/31 22:07:37.3	93.950	0.560	-1.290	0.020
2020/01/31 22:07:37.4	93.940	0.550	-1.180	0.040
2020/01/31 22:07:37.5	93.930	0.530	-1.070	0.060
2020/01/31 22:07:37.6	93.920	0.500	-0.940	0.080
2020/01/31 22:07:37.7	93.900	0.470	-0.810	0.110
2020/01/31 22:07:37.8	93.880	0.440	-0.680	0.130
2020/01/31 22:07:37.9	93.860	0.400	-0.540	0.160
2020/01/31 22:07:38.0	93.830	0.360	-0.390	0.200
2020/01/31 22:07:38.1	93.810	0.320	-0.250	0.230
2020/01/31 22:07:38.2	93.780	0.270	-0.110	0.260
2020/01/31 22:07:38.3	93.750	0.230	0.040	0.300
2020/01/31 22:07:38.4	93.720	0.180	0.180	0.340
2020/01/31 22:07:38.5	93.690	0.130	0.320	0.370
2020/01/31 22:07:38.6	93.660	0.080	0.460	0.410
2020/01/31 22:07:38.7	93.630	0.030	0.590	0.450
2020/01/31 22:07:38.8	93.600	-0.010	0.710	0.490
2020/01/31 22:07:38.9	93.570	-0.060	0.830	0.520
2020/01/31 22:07:39.0	93.540	-0.110	0.950	0.560
2020/01/31 22:07:39.1	93.520	-0.150	1.050	0.590
2020/01/31 22:07:39.2	93.490	-0.190	1.140	0.620
2020/01/31 22:07:39.3	93.460	-0.220	1.220	0.650
2020/01/31 22:07:39.4	93.440	-0.260	1.290	0.680
2020/01/31 22:07:39.5	93.410	-0.290	1.350	0.710
2020/01/31 22:07:39.6	93.390	-0.320	1.400	0.730
2020/01/31 22:07:39.7	93.370	-0.340	1.440	0.750
2020/01/31 22:07:39.8	93.350	-0.360	1.460	0.770
2020/01/31 22:07:39.9	93.330	-0.370	1.470	0.790
2020/01/31 22:07:40.0	93.310	-0.380	1.470	0.810
2020/01/31 22:07:40.1	93.290	-0.390	1.450	0.820
2020/01/31 22:07:40.2	93.280	-0.390	1.420	0.840
2020/01/31 22:07:40.3	93.260	-0.380	1.380	0.850
2020/01/31 22:07:40.4	93.250	-0.380	1.330	0.850
2020/01/31 22:07:40.5	93.240	-0.370	1.260	0.860
2020/01/31 22:07:40.6	93.230	-0.350	1.180	0.870
2020/01/31 22:07:40.7	93.220	-0.330	1.100	0.870
2020/01/31 22:07:40.8	93.210	-0.310	1.000	0.870
2020/01/31 22:07:40.9	93.200	-0.280	0.890	0.870
2020/01/31 22:07:41.0	93.200	-0.260	0.770	0.870
2020/01/31 22:07:41.1	93.190	-0.230	0.650	0.860
2020/01/31 22:07:41.2	93.190	-0.190	0.530	0.850
2020/01/31 22:07:41.3	93.180	-0.160	0.400	0.850
2020/01/31 22:07:41.4	93.180	-0.120	0.260	0.840
2020/01/31 22:07:41.5	93.170	-0.090	0.130	0.830
2020/01/31 22:07:41.6	93.170	-0.050	-0.010	0.820
2020/01/31 22:07:41.7	93.160	-0.010	-0.150	0.810
2020/01/31 22:07:41.8	93.150	0.030	-0.290	0.800
2020/01/31 22:07:41.9	93.150	0.060	-0.420	0.790
2020/01/31 22:07:42.0	93.140	0.100	-0.550	0.780
2020/01/31 22:07:42.1	93.140	0.130	-0.680	0.770
2020/01/31 22:07:42.2	93.130	0.170	-0.800	0.760
2020/01/31 22:07:42.3	93.120	0.200	-0.920	0.750
2020/01/31 22:07:42.4	93.120	0.230	-1.020	0.750
2020/01/31 22:07:42.5	93.110	0.260	-1.130	0.740
2020/01/31 22:07:42.6	93.100	0.290	-1.220	0.730
2020/01/31 22:07:42.7	93.100	0.320	-1.300	0.730
2020/01/31 22:07:42.8	93.090	0.340	-1.380	0.720
2020/01/31 22:07:42.9	93.090	0.360	-1.450	0.720
2020/01/31 22:07:43.0	93.080	0.380	-1.500	0.710
2020/01/31 22:07:43.1	93.080	0.390	-1.550	0.700
2020/01/31 22:07:43.2	93.080	0.410	-1.590	0.700
2020/01/31 22:07:43.3	93.080	0.420	-1.610	0.690
2020/01/31 22:07:43.4	93.080	0.430	-1.630	0.680
2020/01/31 22:07:43.5	93.080	0.440	-1.630	0.680
2020/01/31 22:07:43.6	93.090	0.440	-1.630	0.670
2020/01/31 22:07:43.7	93.090	0.440	-1.620	0.660
2020/01/31 22:07:43.8	93.100	0.440	-1.600	0.650
2020/01/31 22:07:43.9	93.100	0.440	-1.570	0.640
2020/01/31 22:07:44.0	93.110	0.440	-1.530	0.630
2020/01/31 22:07:44.1	93.120	0.430	-1.480	0.610
2020/01/31 22:07:44.2	93.130	0.430	-1.430	0.600
2020/01/31 22:07:44.3	93.140	0.420	-1.370	0.590
2020/01/31 22:07:44.4	93.150	0.410	-1.310	0.570
2020/01/31 22:07:44.5	93.160	0.400	-1.240	0.550
2020/01/31 22:07:44.6	93.180	0.380	-1.160	0.540
2020/01/31 22:07:44.7	93.190	0.370	-1.080	0.520
2020/01/31 22:07:44.8	93.200	0.360	-1.000	0.500
2020/01/31 22:07:44.9	93.220	0.340	-0.910	0.480
2020/01/31 22:07:45.0	93.240	0.320	-0.820	0.460
2020/01/31 22:07:45.1	93.250	0.300	-0.720	0.430
2020/01/31 22:07:45.2	93.270	0.280	-0.620	0.410
2020/01/31 22:07:45.3	93.280	0.260	-0.520	0.380
2020/01/31 22:07:45.4	93.300	0.240	-0.420	0.360
2020/01/31 22:07:45.5	93.310	0.220	-0.320	0.330
2020/01/31 22:07:45.6	93.330	0.200	-0.220	0.310
2020/01/31 22:07:45.7	93.340	0.170	-0.110	0.280
2020/01/31 22:07:45.8	93.360	0.150	-0.010	0.260
2020/01/31 22:07:45.9	93.370	0.120	0.090	0.240
2020/01/31 22:07:46.0	93.380	0.100	0.190	0.210
2020/01/31 22:07:46.1	93.400	0.080	0.290	0.190
2020/01/31 22:07:46.2	93.410	0.050	0.380	0.170
2020/01/31 22:07:46.3	93.430	0.030	0.480	0.150
2020/01/31 22:07:46.4	93.440	0.000	0.560	0.130
2020/01/31 22:07:46.5	93.450	-0.020	0.650	0.110
2020/01/31 22:07:46.6	93.470	-0.040	0.720	0.100
2020/01/31 22:07:46.7	93.480	-0.070	0.800	0.080
2020/01/31 22:07:46.8	93.490	-0.090	0.860	0.070
2020/01/31 22:07:46.9	93.500	-0.110	0.920	0.060
2020/01/31 22:07:47.0	93.510	-0.130	0.980	0.060
2020/01/31 22:07:47.1	93.520	-0.150	1.020	0.050
2020/01/31 22:07:47.2	93.530	-0.170	1.060	0.050
2020/01/31 22:07:47.3	93.540	-0.190	1.090	0.050
2020/01/31 22:07:47.4	93.550	-0.200	1.120	0.050
2020/01/31 22:07:47.5	93.550	-0.220	1.130	0.050
2020/01/31 22:07:47.6	93.560	-0.230	1.140	0.050
2020/01/31 22:07:47.7	93.570	-0.240	1.140	0.060
2020/01/31 22:07:47.8	93.580	-0.250	1.130	0.070
2020/01/31 22:07:47.9	93.590	-0.260	1.120	0.070
2020/01/31 22:07:48.0	93.590	-0.270	1.090	0.080
2020/01/31 22:07:48.1	93.600	-0.270	1.060	0.090
2020/01/31 22:07:48.2	93.600	-0.280	1.030	0.100
2020/01/31 22:07:48.3	93.610	-0.280	0.980	0.120
2020/01/31 22:07:48.4	93.620	-0.290	0.930	0.130
2020/01/31 22:07:48.5	93.620	-0.290	0.880	0.140
2020/01/31 22:07:48.6	93.630	-0.290	0.810	0.160
2020/01/31 22:07:48.7	93.630	-0.290	0.750	0.170
2020/01/31 22:07:48.8	93.640	-0.290	0.680	0.190
2020/01/31 22:07:48.9	93.640	-0.290	0.600	0.210
2020/01/31 22:07:49.0	93.640	-0.280	0.520	0.220
2020/01/31 22:07:49.1	93.640	-0.280	0.440	0.240
2020/01/31 22:07:49.2	93.640	-0.270	0.350	0.260
2020/01/31 22:07:49.3	93.640	-0.270	0.270	0.280
2020/01/31 22:07:49.4	93.640	-0.260	0.180	0.300
2020/01/31 22:07:49.5	93.640	-0.260	0.090	0.310
2020/01/31 22:07:49.6	93.630	-0.250	0.000	0.330
2020/01/31 22:07:49.7	93.630	-0.250	-0.090	0.350
2020/01/31 22:07:49.8	93.620	-0.240	-0.180	0.370
2020/01/31 22:07:49.9	93.610	-0.230	-0.260	0.390
2020/01/31 22:07:50.0	93.600	-0.230	-0.350	0.410
2020/01/31 22:07:50.1	93.590	-0.220	-0.430	0.430
2020/01/31 22:07:50.2	93.570	-0.210	-0.510	0.450
2020/01/31 22:07:50.3	93.560	-0.210	-0.580	0.470
2020/01/31 22:07:50.4	93.550	-0.200	-0.650	0.490
2020/01/31 22:07:50.5	93.530	-0.190	-0.720	0.510
2020/01/31 22:07:50.6	93.520	-0.190	-0.780	0.540
2020/01/31 22:07:50.7	93.500	-0.180	-0.840	0.560
2020/01/31 22:07:50.8	93.490	-0.170	-0.890	0.580
2020/01/31 22:07:50.9	93.480	-0.170	-0.940	0.600
2020/01/31 22:07:51.0	93.460	-0.160	-0.980	0.620
2020/01/31 22:07:51.1	93.450	-0.150	-1.020	0.640
2020/01/31 22:07:51.2	93.430	-0.150	-1.050	0.660
2020/01/31 22:07:51.3	93.420	-0.140	-1.080	0.690
2020/01/31 22:07:51.4	93.410	-0.130	-1.100	0.710
2020/01/31 22:07:51.5	93.400	-0.120	-1.120	0.730
2020/01/31 22:07:51.6	93.390	-0.120	-1.130	0.760
2020/01/31 22:07:51.7	93.380	-0.110	-1.140	0.780
2020/01/31 22:07:51.8	93.370	-0.100	-1.140	0.800
2020/01/31 22:07:51.9	93.360	-0.090	-1.140	0.820
2020/01/31 22:07:52.0	93.350	-0.090	-1.140	0.850
2020/01/31 22:07:52.1	93.340	-0.080	-1.130	0.870
2020/01/31 22:07:52.2	93.340	-0.070	-1.120	0.890
2020/01/31 22:07:52.3	93.330	-0.060	-1.100	0.910
2020/01/31 22:07:52.4	93.330	-0.050	-1.080	0.920
2020/01/31 22:07:52.5	93.330	-0.040	-1.060	0.940
2020/01/31 22:07:52.6	93.320	-0.030	-1.030	0.950
2020/01/31 22:07:52.7	93.320	-0.020	-1.000	0.960
2020/01/31 22:07:52.8	93.330	-0.010	-0.970	0.960
2020/01/31 22:07:52.9	93.330	0.010	-0.930	0.970
2020/01/31 22:07:53.0	93.320	0.020	-0.890	0.970
2020/01/31 22:07:53.1	93.330	0.030	-0.850	0.960
2020/01/31 22:07:53.2	93.340	0.040	-0.810	0.960
2020/01/31 22:07:53.3	93.340	0.060	-0.760	0.950
2020/01/31 22:07:53.4	93.350	0.070	-0.720	0.940
2020/01/31 22:07:53.5	93.370	0.090	-0.670	0.930
2020/01/31 22:07:53.6	93.380	0.100	-0.620	0.910
2020/01/31 22:07:53.7	93.390	0.110	-0.570	0.890
2020/01/31 22:07:53.8	93.410	0.130	-0.520	0.870
2020/01/31 22:07:53.9	93.420	0.140	-0.470	0.850
2020/01/31 22:07:54.0	93.430	0.160	-0.410	0.820
2020/01/31 22:07:54.1	93.450	0.170	-0.360	0.790
2020/01/31 22:07:54.2	93.470	0.190	-0.310	0.760
2020/01/31 22:07:54.3	93.490	0.200	-0.260	0.730
2020/01/31 22:07:54.4	93.510	0.220	-0.210	0.700
2020/01/31 22:07:54.5	93.520	0.230	-0.160	0.660
2020/01/31 22:07:54.6	93.540	0.250	-0.110	0.630
2020/01/31 22:07:54.7	93.560	0.260	-0.060	0.590
2020/01/31 22:07:54.8	93.580	0.270	-0.020	0.550
2020/01/31 22:07:54.9	93.590	0.280	0.030	0.520
2020/01/31 22:07:55.0	93.610	0.290	0.070	0.480
2020/01/31 22:07:55.1	93.620	0.300	0.110	0.440
2020/01/31 22:07:55.2	93.630	0.310	0.150	0.410
2020/01/31 22:07:55.3	93.650	0.320	0.180	0.370
2020/01/31 22:07:55.4	93.660	0.330	0.220	0.330
2020/01/31 22:07:55.5	93.660	0.330	0.250	0.300
2020/01/31 22:07:55.6	93.670	0.340	0.270	0.260
2020/01/31 22:07:55.7	93.680	0.340	0.300	0.230
2020/01/31 22:07:55.8	93.680	0.340	0.320	0.200
2020/01/31 22:07:55.9	93.690	0.340	0.340	0.170
2020/01/31 22:07:56.0	93.690	0.340	0.360	0.130
2020/01/31 22:07:56.1	93.690	0.340	0.370	0.100
2020/01/31 22:07:56.2	93.690	0.340	0.380	0.070
2020/01/31 22:07:56.3	93.700	0.330	0.380	0.040
2020/01/31 22:07:56.4	93.700	0.320	0.390	0.020
2020/01/31 22:07:56.5	93.700	0.320	0.390	-0.010
2020/01/31 22:07:56.6	93.700	0.310	0.380	-0.030
2020/01/31 22:07:56.7	93.700	0.290	0.380	-0.050
2020/01/31 22:07:56.8	93.700	0.280	0.370	-0.080
2020/01/31 22:07:56.9	93.700	0.270	0.350	-0.090
2020/01/31 22:07:57.0	93.700	0.250	0.330	-0.110
2020/01/31 22:07:57.1	93.700	0.230	0.320	-0.130
2020/01/31 22:07:57.2	93.700	0.210	0.300	-0.140
2020/01/31 22:07:57.3	93.700	0.190	0.280	-0.150
2020/01/31 22:07:57.4	93.700	0.170	0.260	-0.170
2020/01/31 22:07:57.5	93.700	0.150	0.240	-0.170
2020/01/31 22:07:57.6	93.700	0.120	0.210	-0.180
2020/01/31 22:07:57.7	93.710	0.100	0.190	-0.190
2020/01/31 22:07:57.8	93.710	0.070	0.170	-0.190
2020/01/31 22:07:57.9	93.710	0.050	0.140	-0.190
2020/01/31 22:07:58.0	93.710	0.020	0.130	-0.190
2020/01/31 22:07:58.1	93.710	-0.010	0.100	-0.190
2020/01/31 22:07:58.2	93.720	-0.030	0.080	-0.180
2020/01/31 22:07:58.3	93.720	-0.060	0.060	-0.170
2020/01/31 22:07:58.4	93.720	-0.090	0.040	-0.160
2020/01/31 22:07:58.5	93.720	-0.120	0.030	-0.140
2020/01/31 22:07:58.6	93.720	-0.140	0.010	-0.130
2020/01/31 22:07:58.7	93.720	-0.170	-0.000	-0.110
2020/01/31 22:07:58.8	93.720	-0.200	-0.010	-0.090
2020/01/31 22:07:58.9	93.720	-0.220	-0.030	-0.060
2020/01/31 22:07:59.0	93.720	-0.250	-0.040	-0.030
2020/01/31 22:07:59.1	93.720	-0.270	-0.050	-0.000
2020/01/31 22:07:59.2	93.710	-0.300	-0.050	0.030
2020/01/31 22:07:59.3	93.710	-0.320	-0.060	0.060
2020/01/31 22:07:59.4	93.700	-0.340	-0.060	0.090
2020/01/31 22:07:59.5	93.690	-0.360	-0.070	0.130
2020/01/31 22:07:59.6	93.690	-0.380	-0.070	0.160
2020/01/31 22:07:59.7	93.680	-0.400	-0.070	0.200
2020/01/31 22:07:59.8	93.670	-0.410	-0.070	0.240
2020/01/31 22:07:59.9	93.660	-0.420	-0.080	0.280
2020/01/31 22:08:00.0	93.650	-0.440	-0.080	0.310
2020/01/31 22:08:00.1	93.640	-0.450	-0.080	0.350
2020/01/31 22:08:00.2	93.630	-0.450	-0.080	0.390
2020/01/31 22:08:00.3	93.620	-0.460	-0.090	0.430
2020/01/31 22:08:00.4	93.600	-0.460	-0.090	0.470
2020/01/31 22:08:00.5	93.590	-0.460	-0.100	0.510
2020/01/31 22:08:00.6	93.580	-0.460	-0.100	0.540
2020/01/31 22:08:00.7	93.570	-0.450	-0.110	0.580
2020/01/31 22:08:00.8	93.560	-0.440	-0.120	0.620
2020/01/31 22:08:00.9	93.540	-0.430	-0.130	0.660
2020/01/31 22:08:01.0	93.530	-0.420	-0.150	0.700
2020/01/31 22:08:01.1	93.520	-0.410	-0.170	0.730
2020/01/31 22:08:01.2	93.510	-0.390	-0.190	0.760
2020/01/31 22:08:01.3	93.500	-0.370	-0.210	0.790
2020/01/31 22:08:01.4	93.490	-0.340	-0.230	0.820
2020/01/31 22:08:01.5	93.480	-0.320	-0.260	0.850
2020/01/31 22:08:01.6	93.470	-0.290	-0.290	0.880
2020/01/31 22:08:01.7	93.470	-0.260	-0.320	0.900
2020/01/31 22:08:01.8	93.460	-0.230	-0.350	0.920
2020/01/31 22:08:01.9	93.450	-0.190	-0.390	0.940
2020/01/31 22:08:02.0	93.450	-0.150	-0.420	0.950
2020/01/31 22:08:02.1	93.450	-0.120	-0.460	0.960
2020/01/31 22:08:02.2	93.450	-0.080	-0.500	0.970
2020/01/31 22:08:02.3	93.440	-0.040	-0.540	0.980
2020/01/31 22:08:02.4	93.440	0.010	-0.590	0.990
2020/01/31 22:08:02.5	93.440	0.050	-0.630	0.990
2020/01/31 22:08:02.6	93.440	0.090	-0.670	0.990
2020/01/31 22:08:02.7	93.450	0.130	-0.710	0.990
2020/01/31 22:08:02.8	93.450	0.180	-0.750	0.990
2020/01/31 22:08:02.9	93.460	0.220	-0.790	0.980
2020/01/31 22:08:03.0	93.460	0.260	-0.830	0.970
2020/01/31 22:08:03.1	93.470	0.300	-0.860	0.960
2020/01/31 22:08:03.2	93.480	0.340	-0.890	0.950
2020/01/31 22:08:03.3	93.490	0.380	-0.920	0.930
2020/01/31 22:08:03.4	93.500	0.410	-0.950	0.910
2020/01/31 22:08:03.5	93.510	0.440	-0.970	0.890
2020/01/31 22:08:03.6	93.530	0.470	-0.980	0.870
2020/01/31 22:08:03.7	93.540	0.500	-0.990	0.840
2020/01/31 22:08:03.8	93.560	0.520	-1.000	0.820
2020/01/31 22:08:03.9	93.570	0.550	-1.000	0.790
2020/01/31 22:08:04.0	93.590	0.560	-1.000	0.760
2020/01/31 22:08:04.1	93.610	0.580	-0.990	0.730
2020/01/31 22:08:04.2	93.630	0.590	-0.970	0.700
2020/01/31 22:08:04.3	93.650	0.600	-0.950	0.670
2020/01/31 22:08:04.4	93.670	0.600	-0.920	0.640
2020/01/31 22:08:04.5	93.690	0.600	-0.890	0.610
2020/01/31 22:08:04.6	93.710	0.600	-0.850	0.580
2020/01/31 22:08:04.7	93.730	0.590	-0.800	0.550
2020/01/31 22:08:04.8	93.740	0.580	-0.750	0.520
2020/01/31 22:08:04.9	93.760	0.570	-0.690	0.490
2020/01/31 22:08:05.0	93.780	0.550	-0.620	0.470
2020/01/31 22:08:05.1	93.790	0.530	-0.560	0.440
2020/01/31 22:08:05.2	93.800	0.500	-0.480	0.420
2020/01/31 22:08:05.3	93.820	0.480	-0.400	0.400
2020/01/31 22:08:05.4	93.830	0.450	-0.320	0.380
2020/01/31 22:08:05.5	93.830	0.410	-0.230	0.360
2020/01/31 22:08:05.6	93.840	0.380	-0.140	0.340
2020/01/31 22:08:05.7	93.840	0.340	-0.050	0.330
2020/01/31 22:08:05.8	93.840	0.300	0.040	0.310
2020/01/31 22:08:05.9	93.840	0.260	0.130	0.300
2020/01/31 22:08:06.0	93.840	0.220	0.230	0.290
2020/01/31 22:08:06.1	93.840	0.180	0.330	0.280
2020/01/31 22:08:06.2	93.830	0.130	0.420	0.270
2020/01/31 22:08:06.3	93.820	0.090	0.520	0.260
2020/01/31 22:08:06.4	93.820	0.040	0.610	0.250
2020/01/31 22:08:06.5	93.810	-0.000	0.690	0.250
2020/01/31 22:08:06.6	93.790	-0.050	0.770	0.240
2020/01/31 22:08:06.7	93.780	-0.100	0.850	0.230
2020/01/31 22:08:06.8	93.760	-0.140	0.930	0.230
2020/01/31 22:08:06.9	93.750	-0.190	0.990	0.230
2020/01/31 22:08:07.0	93.720	-0.230	1.050	0.220
2020/01/31 22:08:07.1	93.710	-0.270	1.100	0.220
2020/01/31 22:08:07.2	93.690	-0.310	1.150	0.210
2020/01/31 22:08:07.3	93.670	-0.350	1.190	0.200
2020/01/31 22:08:07.4	93.650	-0.390	1.210	0.200
2020/01/31 22:08:07.5	93.630	-0.420	1.240	0.190
2020/01/31 22:08:07.6	93.610	-0.450	1.250	0.180
2020/01/31 22:08:07.7	93.590	-0.480	1.250	0.180
2020/01/31 22:08:07.8	93.580	-0.510	1.240	0.170
2020/01/31 22:08:07.9	93.560	-0.530	1.220	0.160
2020/01/31 22:08:08.0	93.540	-0.560	1.200	0.140
2020/01/31 22:08:08.1	93.530	-0.570	1.160	0.130
2020/01/31 22:08:08.2	93.510	-0.590	1.120	0.110
2020/01/31 22:08:08.3	93.500	-0.600	1.060	0.100
2020/01/31 22:08:08.4	93.480	-0.600	1.000	0.090
2020/01/31 22:08:08.5	93.470	-0.610	0.920	0.070
2020/01/31 22:08:08.6	93.460	-0.610	0.840	0.060
2020/01/31 22:08:08.7	93.450	-0.600	0.750	0.040
2020/01/31 22:08:08.8	93.440	-0.590	0.650	0.030
2020/01/31 22:08:08.9	93.440	-0.580	0.550	0.010
2020/01/31 22:08:09.0	93.430	-0.570	0.430	0.000
2020/01/31 22:08:09.1	93.420	-0.550	0.320	-0.010
2020/01/31 22:08:09.2	93.420	-0.520	0.200	-0.030
2020/01/31 22:08:09.3	93.420	-0.500	0.070	-0.040
2020/01/31 22:08:09.4	93.420	-0.470	-0.050	-0.060
2020/01/31 22:08:09.5	93.430	-0.440	-0.180	-0.070
2020/01/31 22:08:09.6	93.430	-0.400	-0.310	-0.080
2020/01/31 22:08:09.7	93.440	-0.360	-0.440	-0.090
2020/01/31 22:08:09.8	93.450	-0.320	-0.570	-0.110
2020/01/31 22:08:09.9	93.460	-0.280	-0.700	-0.120
2020/01/31 22:08:10.0	93.460	-0.240	-0.820	-0.130
2020/01/31 22:08:10.1	93.470	-0.190	-0.940	-0.130
2020/01/31 22:08:10.2	93.480	-0.150	-1.060	-0.140
2020/01/31 22:08:10.3	93.500	-0.100	-1.170	-0.140
2020/01/31 22:08:10.4	93.510	-0.050	-1.280	-0.150
2020/01/31 22:08:10.5	93.520	-0.000	-1.380	-0.150
2020/01/31 22:08:10.6	93.540	0.050	-1.470	-0.150
2020/01/31 22:08:10.7	93.550	0.100	-1.560	-0.140
2020/01/31 22:08:10.8	93.570	0.140	-1.630	-0.140
2020/01/31 22:08:10.9	93.580	0.190	-1.700	-0.130
2020/01/31 22:08:11.0	93.600	0.240	-1.760	-0.120
2020/01/31 22:08:11.1	93.610	0.280	-1.800	-0.110
2020/01/31 22:08:11.2	93.620	0.320	-1.840	-0.100
2020/01/31 22:08:11.3	93.630	0.360	-1.860	-0.090
2020/01/31 22:08:11.4	93.640	0.400	-1.880	-0.080
2020/01/31 22:08:11.5	93.650	0.430	-1.880	-0.070
2020/01/31 22:08:11.6	93.660	0.470	-1.870	-0.050
2020/01/31 22:08:11.7	93.660	0.490	-1.850	-0.040
2020/01/31 22:08:11.8	93.670	0.520	-1.820	-0.020
2020/01/31 22:08:11.9	93.670	0.540	-1.780	-0.000
2020/01/31 22:08:12.0	93.670	0.560	-1.720	0.020
2020/01/31 22:08:12.1	93.670	0.570	-1.660	0.040
2020/01/31 22:08:12.2	93.670	0.580	-1.590	0.060
2020/01/31 22:08:12.3	93.670	0.590	-1.510	0.080
2020/01/31 22:08:12.4	93.660	0.590	-1.420	0.100
2020/01/31 22:08:12.5	93.660	0.590	-1.330	0.120
2020/01/31 22:08:12.6	93.650	0.580	-1.220	0.150
2020/01/31 22:08:12.7	93.650	0.570	-1.110	0.170
2020/01/31 22:08:12.8	93.640	0.560	-1.000	0.190
2020/01/31 22:08:12.9	93.630	0.540	-0.880	0.220
2020/01/31 22:08:13.0	93.620	0.520	-0.760	0.240
2020/01/31 22:08:13.1	93.610	0.500	-0.630	0.270
2020/01/31 22:08:13.2	93.600	0.480	-0.500	0.290
2020/01/31 22:08:13.3	93.590	0.450	-0.370	0.320
2020/01/31 22:08:13.4	93.580	0.420	-0.240	0.340
2020/01/31 22:08:13.5	93.570	0.390	-0.110	0.370
2020/01/31 22:08:13.6	93.560	0.350	0.010	0.390
2020/01/31 22:08:13.7	93.560	0.320	0.140	0.410
2020/01/31 22:08:13.8	93.550	0.280	0.260	0.430
2020/01/31 22:08:13.9	93.540	0.240	0.380	0.450
2020/01/31 22:08:14.0	93.540	0.210	0.490	0.480
2020/01/31 22:08:14.1	93.530	0.170	0.600	0.490
2020/01/31 22:08:14.2	93.530	0.130	0.700	0.510
2020/01/31 22:08:14.3	93.520	0.090	0.790	0.530
2020/01/31 22:08:14.4	93.520	0.050	0.880	0.540
2020/01/31 22:08:14.5	93.520	0.010	0.960	0.550
2020/01/31 22:08:14.6	93.520	-0.030	1.030	0.560
2020/01/31 22:08:14.7	93.520	-0.060	1.100	0.570
2020/01/31 22:08:14.8	93.530	-0.100	1.150	0.580
2020/01/31 22:08:14.9	93.530	-0.140	1.200	0.590
2020/01/31 22:08:15.0	93.540	-0.170	1.240	0.590
2020/01/31 22:08:15.1	93.540	-0.200	1.270	0.590
2020/01/31 22:08:15.2	93.550	-0.230	1.290	0.590
2020/01/31 22:08:15.3	93.560	-0.260	1.300	0.590
2020/01/31 22:08:15.4	93.570	-0.290	1.300	0.590
2020/01/31 22:08:15.5	93.580	-0.310	1.300	0.590
2020/01/31 22:08:15.6	93.590	-0.330	1.290	0.580
2020/01/31 22:08:15.7	93.600	-0.350	1.270	0.580
2020/01/31 22:08:15.8	93.610	-0.370	1.240	0.570
2020/01/31 22:08:15.9	93.620	-0.390	1.200	0.560
2020/01/31 22:08:16.0	93.630	-0.400	1.160	0.550
2020/01/31 22:08:16.1	93.640	-0.410	1.110	0.540
2020/01/31 22:08:16.2	93.650	-0.420	1.060	0.520
2020/01/31 22:08:16.3	93.670	-0.430	1.000	0.510
2020/01/31 22:08:16.4	93.680	-0.430	0.930	0.490
2020/01/31 22:08:16.5	93.700	-0.430	0.860	0.480
2020/01/31 22:08:16.6	93.710	-0.430	0.790	0.460
2020/01/31 22:08:16.7	93.720	-0.430	0.710	0.440
2020/01/31 22:08:16.8	93.730	-0.430	0.630	0.420
2020/01/31 22:08:16.9	93.740	-0.420	0.550	0.410
2020/01/31 22:08:17.0	93.760	-0.410	0.470	0.390
2020/01/31 22:08:17.1	93.770	-0.400	0.380	0.370
2020/01/31 22:08:17.2	93.780	-0.390	0.290	0.360
2020/01/31 22:08:17.3	93.780	-0.380	0.200	0.350
2020/01/31 22:08:17.4	93.790	-0.360	0.110	0.340
2020/01/31 22:08:17.5	93.790	-0.350	0.030	0.330
2020/01/31 22:08:17.6	93.790	-0.330	-0.060	0.320
2020/01/31 22:08:17.7	93.790	-0.310	-0.150	0.320
2020/01/31 22:08:17.8	93.790	-0.290	-0.240	0.320
2020/01/31 22:08:17.9	93.780	-0.270	-0.320	0.320
2020/01/31 22:08:18.0	93.780	-0.250	-0.410	0.320
2020/01/31 22:08:18.1	93.770	-0.230	-0.490	0.330
2020/01/31 22:08:18.2	93.760	-0.200	-0.570	0.340
2020/01/31 22:08:18.3	93.750	-0.180	-0.640	0.350
2020/01/31 22:08:18.4	93.740	-0.160	-0.720	0.360
2020/01/31 22:08:18.5	93.720	-0.140	-0.790	0.380
2020/01/31 22:08:18.6	93.710	-0.110	-0.850	0.390
2020/01/31 22:08:18.7	93.700	-0.090	-0.910	0.410
2020/01/31 22:08:18.8	93.690	-0.070	-0.970	0.430
2020/01/31 22:08:18.9	93.670	-0.050	-1.020	0.440
2020/01/31 22:08:19.0	93.660	-0.030	-1.070	0.460
2020/01/31 22:08:19.1	93.650	-0.010	-1.120	0.480
2020/01/31 22:08:19.2	93.640	0.010	-1.160	0.500
2020/01/31 22:08:19.3	93.630	0.030	-1.190	0.520
2020/01/31 22:08:19.4	93.620	0.040	-1.220	0.540
2020/01/31 22:08:19.5	93.620	0.060	-1.250	0.560
2020/01/31 22:08:19.6	93.610	0.070	-1.270	0.570
2020/01/31 22:08:19.7	93.610	0.090	-1.290	0.590
2020/01/31 22:08:19.8	93.610	0.100	-1.300	0.600
2020/01/31 22:08:19.9	93.610	0.110	-1.300	0.620
2020/01/31 22:08:20.0	93.600	0.120	-1.300	0.620
2020/01/31 22:08:20.1	93.610	0.130	-1.300	0.630
2020/01/31 22:08:20.2	93.620	0.140	-1.290	0.640
2020/01/31 22:08:20.3	93.620	0.150	-1.280	0.650
2020/01/31 22:08:20.4	93.640	0.160	-1.260	0.660
2020/01/31 22:08:20.5	93.650	0.160	-1.240	0.660
2020/01/31 22:08:20.6	93.660	0.170	-1.220	0.670
2020/01/31 22:08:20.7	93.680	0.180	-1.190	0.670
2020/01/31 22:08:20.8	93.700	0.180	-1.160	0.670
2020/01/31 22:08:20.9	93.720	0.190	-1.120	0.670
2020/01/31 22:08:21.0	93.730	0.190	-1.080	0.670
2020/01/31 22:08:21.1	93.750	0.200	-1.040	0.660
2020/01/31 22:08:21.2	93.780	0.210	-1.000	0.660
2020/01/31 22:08:21.3	93.800	0.210	-0.950	0.650
2020/01/31 22:08:21.4	93.830	0.220	-0.900	0.650
2020/01/31 22:08:21.5	93.850	0.230	-0.850	0.640
2020/01/31 22:08:21.6	93.880	0.230	-0.790	0.630
2020/01/31 22:08:21.7	93.910	0.240	-0.740	0.620
2020/01/31 22:08:21.8	93.930	0.250	-0.680	0.610
2020/01/31 22:08:21.9	93.960	0.250	-0.620	0.600
2020/01/31 22:08:22.0	93.980	0.260	-0.560	0.580
2020/01/31 22:08:22.1	94.010	0.270	-0.500	0.570
2020/01/31 22:08:22.2	94.030	0.270	-0.440	0.560
2020/01/31 22:08:22.3	94.060	0.280	-0.370	0.550
2020/01/31 22:08:22.4	94.080	0.290	-0.310	0.540
2020/01/31 22:08:22.5	94.110	0.290	-0.240	0.530
2020/01/31 22:08:22.6	94.130	0.300	-0.180	0.520
2020/01/31 22:08:22.7	94.150	0.300	-0.120	0.510
2020/01/31 22:08:22.8	94.180	0.310	-0.050	0.500
2020/01/31 22:08:22.9	94.200	0.310	0.010	0.500
2020/01/31 22:08:23.0	94.220	0.310	0.080	0.490
2020/01/31 22:08:23.1	94.240	0.320	0.140	0.480
2020/01/31 22:08:23.2	94.260	0.320	0.210	0.470
2020/01/31 22:08:23.3	94.280	0.310	0.270	0.470
2020/01/31 22:08:23.4	94.300	0.310	0.330	0.460
2020/01/31 22:08:23.5	94.310	0.310	0.380	0.450
2020/01/31 22:08:23.6	94.330	0.300	0.440	0.450
2020/01/31 22:08:23.7	94.350	0.290	0.490	0.440
2020/01/31 22:08:23.8	94.360	0.280	0.540	0.440
2020/01/31 22:08:23.9	94.380	0.270	0.590	0.430
2020/01/31 22:08:24.0	94.400	0.260	0.640	0.420
2020/01/31 22:08:24.1	94.410	0.250	0.680	0.420
2020/01/31 22:08:24.2	94.420	0.230	0.720	0.410
2020/01/31 22:08:24.3	94.430	0.210	0.750	0.400
2020/01/31 22:08:24.4	94.450	0.190	0.790	0.400
2020/01/31 22:08:24.5	94.460	0.170	0.810	0.390
2020/01/31 22:08:24.6	94.460	0.150	0.840	0.380
2020/01/31 22:08:24.7	94.470	0.120	0.860	0.380
2020/01/31 22:08:24.8	94.480	0.100	0.880	0.370
2020/01/31 22:08:24.9	94.480	0.070	0.890	0.360
2020/01/31 22:08:25.0	94.480	0.040	0.900	0.350
2020/01/31 22:08:25.1	94.480	0.010	0.900	0.350
2020/01/31 22:08:25.2	94.480	-0.010	0.900	0.340
2020/01/31 22:08:25.3	94.480	-0.040	0.900	0.330
2020/01/31 22:08:25.4	94.480	-0.080	0.890	0.320
2020/01/31 22:08:25.5	94.480	-0.110	0.880	0.310
2020/01/31 22:08:25.6	94.470	-0.140	0.870	0.300
2020/01/31 22:08:25.7	94.470	-0.170	0.850	0.290
2020/01/31 22:08:25.8	94.460	-0.200	0.820	0.270
2020/01/31 22:08:25.9	94.450	-0.220	0.800	0.260
2020/01/31 22:08:26.0	94.440	-0.250	0.770	0.240
2020/01/31 22:08:26.1	94.440	-0.280	0.740	0.230
2020/01/31 22:08:26.2	94.430	-0.300	0.700	0.220
2020/01/31 22:08:26.3	94.420	-0.330	0.660	0.210
2020/01/31 22:08:26.4	94.420	-0.350	0.610	0.190
2020/01/31 22:08:26.5	94.410	-0.370	0.560	0.180
2020/01/31 22:08:26.6	94.400	-0.380	0.510	0.170
2020/01/31 22:08:26.7	94.400	-0.400	0.460	0.160
2020/01/31 22:08:26.8	94.390	-0.410	0.400	0.150
2020/01/31 22:08:26.9	94.390	-0.420	0.340	0.140
2020/01/31 22:08:27.0	94.390	-0.430	0.280	0.140
2020/01/31 22:08:27.1	94.390	-0.430	0.220	0.130
2020/01/31 22:08:27.2	94.380	-0.430	0.150	0.120
2020/01/31 22:08:27.3	94.380	-0.430	0.090	0.120
2020/01/31 22:08:27.4	94.380	-0.430	0.020	0.120
2020/01/31 22:08:27.5	94.380	-0.420	-0.050	0.110
2020/01/31 22:08:27.6	94.380	-0.410	-0.120	0.110
2020/01/31 22:08:27.7	94.380	-0.400	-0.190	0.110
2020/01/31 22:08:27.8	94.380	-0.390	-0.260	0.120
2020/01/31 22:08:27.9	94.380	-0.370	-0.330	0.120
2020/01/31 22:08:28.0	94.380	-0.360	-0.400	0.130
2020/01/31 22:08:28.1	94.380	-0.340	-0.470	0.140
2020/01/31 22:08:28.2	94.380	-0.320	-0.540	0.140
2020/01/31 22:08:28.3	94.380	-0.290	-0.610	0.160
2020/01/31 22:08:28.4	94.380	-0.270	-0.670	0.170
2020/01/31 22:08:28.5	94.380	-0.240	-0.740	0.180
2020/01/31 22:08:28.6	94.370	-0.220	-0.800	0.200
2020/01/31 22:08:28.7	94.370	-0.190	-0.860	0.210
2020/01/31 22:08:28.8	94.370	-0.160	-0.920	0.230
2020/01/31 22:08:28.9	94.360	-0.130	-0.970	0.250
2020/01/31 22:08:29.0	94.360	-0.100	-1.030	0.270
2020/01/31 22:08:29.1	94.360	-0.070	-1.080	0.290
2020/01/31 22:08:29.2	94.360	-0.040	-1.130	0.300
2020/01/31 22:08:29.3	94.360	-0.010	-1.170	0.320
2020/01/31 22:08:29.4	94.360	0.020	-1.210	0.340
2020/01/31 22:08:29.5	94.360	0.050	-1.250	0.360
2020/01/31 22:08:29.6	94.370	0.080	-1.290	0.380
2020/01/31 22:08:29.7	94.370	0.110	-1.320	0.400
2020/01/31 22:08:29.8	94.380	0.140	-1.350	0.410
2020/01/31 22:08:29.9	94.390	0.170	-1.370	0.430
2020/01/31 22:08:30.0	94.390	0.200	-1.390	0.440
2020/01/31 22:08:30.1	94.400	0.230	-1.410	0.460
2020/01/31 22:08:30.2	94.420	0.250	-1.420	0.470
2020/01/31 22:08:30.3	94.440	0.280	-1.430	0.490
2020/01/31 22:08:30.4	94.450	0.300	-1.440	0.500
2020/01/31 22:08:30.5	94.470	0.330	-1.440	0.510
2020/01/31 22:08:30.6	94.490	0.350	-1.440	0.520
2020/01/31 22:08:30.7	94.520	0.370	-1.430	0.530
2020/01/31 22:08:30.8	94.540	0.390	-1.410	0.540
2020/01/31 22:08:30.9	94.570	0.410	-1.400	0.550
2020/01/31 22:08:31.0	94.600	0.420	-1.370	0.550
2020/01/31 22:08:31.1	94.630	0.440	-1.340	0.560
2020/01/31 22:08:31.2	94.660	0.450	-1.310	0.570
2020/01/31 22:08:31.3	94.690	0.460	-1.270	0.580
2020/01/31 22:08:31.4	94.720	0.470	-1.230	0.590
2020/01/31 22:08:31.5	94.750	0.470	-1.180	0.590
2020/01/31 22:08:31.6	94.780	0.470	-1.120	0.600
2020/01/31 22:08:31.7	94.810	0.470	-1.060	0.610
2020/01/31 22:08:31.8	94.840	0.470	-0.990	0.620
2020/01/31 22:08:31.9	94.870	0.460	-0.920	0.630
2020/01/31 22:08:32.0	94.900	0.460	-0.850	0.640
2020/01/31 22:08:32.1	94.930	0.450	-0.760	0.660
2020/01/31 22:08:32.2	94.950	0.430	-0.680	0.670
2020/01/31 22:08:32.3	94.980	0.410	-0.580	0.680
2020/01/31 22:08:32.4	95.000	0.390	-0.490	0.690
2020/01/31 22:08:32.5	95.020	0.370	-0.390	0.710
2020/01/31 22:08:32.6	95.030	0.350	-0.280	0.720
2020/01/31 22:08:32.7	95.050	0.320	-0.180	0.730
2020/01/31 22:08:32.8	95.060	0.290	-0.070	0.750
2020/01/31 22:08:32.9	95.070	0.260	0.050	0.760
2020/01/31 22:08:33.0	95.090	0.220	0.170	0.770
2020/01/31 22:08:33.1	95.090	0.190	0.280	0.790
2020/01/31 22:08:33.2	95.100	0.150	0.400	0.800
2020/01/31 22:08:33.3	95.100	0.110	0.510	0.810
2020/01/31 22:08:33.4	95.100	0.070	0.620	0.820
2020/01/31 22:08:33.5	95.100	0.020	0.740	0.830
2020/01/31 22:08:33.6	95.090	-0.020	0.850	0.830
2020/01/31 22:08:33.7	95.090	-0.060	0.950	0.840
2020/01/31 22:08:33.8	95.080	-0.110	1.060	0.840
2020/01/31 22:08:33.9	95.070	-0.150	1.150	0.850
2020/01/31 22:08:34.0	95.060	-0.200	1.240	0.850
2020/01/31 22:08:34.1	95.050	-0.240	1.330	0.850
2020/01/31 22:08:34.2	95.030	-0.280	1.410	0.840
2020/01/31 22:08:34.3	95.020	-0.320	1.480	0.840
2020/01/31 22:08:34.4	95.000	-0.360	1.540	0.830
2020/01/31 22:08:34.5	94.980	-0.400	1.590	0.830
2020/01/31 22:08:34.6	94.960	-0.430	1.630	0.820
2020/01/31 22:08:34.7	94.940	-0.460	1.660	0.810
2020/01/31 22:08:34.8	94.920	-0.490	1.680	0.790
2020/01/31 22:08:34.9	94.900	-0.510	1.690	0.780
2020/01/31 22:08:35.0	94.900	-0.530	1.690	0.760
2020/01/31 22:08:35.1	94.880	-0.550	1.670	0.740
2020/01/31 22:08:35.2	94.860	-0.560	1.640	0.720
2020/01/31 22:08:35.3	94.840	-0.560	1.600	0.690
2020/01/31 22:08:35.4	94.820	-0.570	1.550	0.670
2020/01/31 22:08:35.5	94.800	-0.570	1.480	0.640
2020/01/31 22:08:35.6	94.780	-0.560	1.410	0.610
2020/01/31 22:08:35.7	94.770	-0.550	1.320	0.580
2020/01/31 22:08:35.8	94.750	-0.530	1.220	0.540
2020/01/31 22:08:35.9	94.740	-0.510	1.120	0.510
2020/01/31 22:08:36.0	94.730	-0.490	1.000	0.480
2020/01/31 22:08:36.1	94.720	-0.460	0.870	0.440
2020/01/31 22:08:36.2	94.700	-0.430	0.740	0.410
2020/01/31 22:08:36.3	94.690	-0.390	0.600	0.370
2020/01/31 22:08:36.4	94.690	-0.350	0.460	0.340
2020/01/31 22:08:36.5	94.680	-0.310	0.310	0.300
2020/01/31 22:08:36.6	94.670	-0.270	0.160	0.270
2020/01/31 22:08:36.7	94.670	-0.220	0.000	0.240
2020/01/31 22:08:36.8	94.660	-0.180	-0.150	0.200
2020/01/31 22:08:36.9	94.660	-0.130	-0.310	0.170
2020/01/31 22:08:37.0	94.660	-0.080	-0.460	0.130
2020/01/31 22:08:37.1	94.660	-0.030	-0.610	0.100
2020/01/31 22:08:37.2	94.660	0.020	-0.760	0.070
2020/01/31 22:08:37.3	94.670	0.070	-0.910	0.040
2020/01/31 22:08:37.4	94.670	0.110	-1.040	0.010
2020/01/31 22:08:37.5	94.680	0.160	-1.180	-0.020
2020/01/31 22:08:37.6	94.690	0.200	-1.300	-0.050
2020/01/31 22:08:37.7	94.700	0.250	-1.420	-0.080
2020/01/31 22:08:37.8	94.710	0.290	-1.520	-0.110
2020/01/31 22:08:37.9	94.730	0.320	-1.620	-0.140
2020/01/31 22:08:38.0	94.730	0.350	-1.700	-0.160
2020/01/31 22:08:38.1	94.750	0.380	-1.780	-0.190
2020/01/31 22:08:38.2	94.760	0.410	-1.840	-0.210
2020/01/31 22:08:38.3	94.780	0.430	-1.890	-0.230
2020/01/31 22:08:38.4	94.800	0.450	-1.920	-0.250
2020/01/31 22:08:38.5	94.810	0.460	-1.950	-0.260
2020/01/31 22:08:38.6	94.830	0.470	-1.960	-0.270
2020/01/31 22:08:38.7	94.850	0.470	-1.950	-0.280
2020/01/31 22:08:38.8	94.860	0.470	-1.940	-0.290
2020/01/31 22:08:38.9	94.880	0.470	-1.910	-0.290
2020/01/31 22:08:39.0	94.890	0.460	-1.870	-0.290
2020/01/31 22:08:39.1	94.900	0.450	-1.810	-0.280
2020/01/31 22:08:39.2	94.910	0.430	-1.750	-0.280
2020/01/31 22:08:39.3	94.920	0.410	-1.670	-0.270
2020/01/31 22:08:39.4	94.930	0.390	-1.590	-0.250
2020/01/31 22:08:39.5	94.930	0.360	-1.490	-0.230
2020/01/31 22:08:39.6	94.930	0.330	-1.390	-0.210
2020/01/31 22:08:39.7	94.930	0.300	-1.280	-0.190
2020/01/31 22:08:39.8	94.930	0.260	-1.160	-0.160
2020/01/31 22:08:39.9	94.930	0.230	-1.040	-0.130
2020/01/31 22:08:40.0	94.920	0.190	-0.910	-0.090
2020/01/31 22:08:40.1	94.910	0.150	-0.780	-0.060
2020/01/31 22:08:40.2	94.900	0.100	-0.650	-0.020
2020/01/31 22:08:40.3	94.890	0.060	-0.510	0.030
2020/01/31 22:08:40.4	94.880	0.020	-0.380	0.070
2020/01/31 22:08:40.5	94.870	-0.020	-0.240	0.120
2020/01/31 22:08:40.6	94.850	-0.070	-0.110	0.170
2020/01/31 22:08:40.7	94.840	-0.110	0.020	0.220
2020/01/31 22:08:40.8	94.820	-0.150	0.140	0.260
2020/01/31 22:08:40.9	94.810	-0.190	0.260	0.310
2020/01/31 22:08:41.0	94.800	-0.230	0.370	0.370
2020/01/31 22:08:41.1	94.780	-0.260	0.480	0.410
2020/01/31 22:08:41.2	94.770	-0.290	0.580	0.460
2020/01/31 22:08:41.3	94.750	-0.330	0.680	0.500
2020/01/31 22:08:41.4	94.740	-0.350	0.760	0.550
2020/01/31 22:08:41.5	94.720	-0.380	0.830	0.590
2020/01/31 22:08:41.6	94.710	-0.400	0.900	0.630
2020/01/31 22:08:41.7	94.700	-0.420	0.960	0.660
2020/01/31 22:08:41.8	94.690	-0.440	1.000	0.690
2020/01/31 22:08:41.9	94.690	-0.450	1.040	0.720
2020/01/31 22:08:42.0	94.680	-0.460	1.070	0.750
2020/01/31 22:08:42.1	94.680	-0.460	1.090	0.770
2020/01/31 22:08:42.2	94.670	-0.460	1.090	0.790
2020/01/31 22:08:42.3	94.670	-0.460	1.090	0.810
2020/01/31 22:08:42.4	94.670	-0.460	1.080	0.830
2020/01/31 22:08:42.5	94.670	-0.450	1.050	0.850
2020/01/31 22:08:42.6	94.670	-0.440	1.020	0.860
2020/01/31 22:08:42.7	94.670	-0.420	0.980	0.870
2020/01/31 22:08:42.8	94.680	-0.410	0.940	0.880
2020/01/31 22:08:42.9	94.680	-0.390	0.880	0.890
2020/01/31 22:08:43.0	94.690	-0.360	0.820	0.900
2020/01/31 22:08:43.1	94.690	-0.340	0.750	0.910
2020/01/31 22:08:43.2	94.690	-0.310	0.680	0.920
2020/01/31 22:08:43.3	94.700	-0.280	0.600	0.920
2020/01/31 22:08:43.4	94.710	-0.250	0.520	0.930
2020/01/31 22:08:43.5	94.710	-0.220	0.440	0.930
2020/01/31 22:08:43.6	94.720	-0.180	0.350	0.940
2020/01/31 22:08:43.7	94.720	-0.150	0.270	0.940
2020/01/31 22:08:43.8	94.730	-0.110	0.180	0.950
2020/01/31 22:08:43.9	94.730	-0.070	0.090	0.950
2020/01/31 22:08:44.0	94.740	-0.030	-0.000	0.960
2020/01/31 22:08:44.1	94.740	0.000	-0.090	0.960
2020/01/31 22:08:44.2	94.750	0.040	-0.180	0.960
2020/01/31 22:08:44.3	94.760	0.080	-0.260	0.970
2020/01/31 22:08:44.4	94.760	0.120	-0.350	0.970
2020/01/31 22:08:44.5	94.770	0.160	-0.430	0.980
2020/01/31 22:08:44.6	94.780	0.190	-0.510	0.980
2020/01/31 22:08:44.7	94.780	0.230	-0.590	0.980
2020/01/31 22:08:44.8	94.790	0.260	-0.660	0.980
2020/01/31 22:08:44.9	94.790	0.300	-0.730	0.980
2020/01/31 22:08:45.0	94.790	0.330	-0.790	0.980
2020/01/31 22:08:45.1	94.800	0.360	-0.850	0.980
2020/01/31 22:08:45.2	94.800	0.390	-0.900	0.980
2020/01/31 22:08:45.3	94.800	0.410	-0.950	0.970
2020/01/31 22:08:45.4	94.810	0.440	-1.000	0.970
2020/01/31 22:08:45.5	94.810	0.460	-1.030	0.960
2020/01/31 22:08:45.6	94.810	0.480	-1.060	0.960
2020/01/31 22:08:45.7	94.810	0.500	-1.090	0.950
2020/01/31 22:08:45.8	94.800	0.510	-1.110	0.940
2020/01/31 22:08:45.9	94.800	0.530	-1.120	0.930
2020/01/31 22:08:46.0	94.790	0.540	-1.130	0.920
2020/01/31 22:08:46.1	94.780	0.550	-1.130	0.910
2020/01/31 22:08:46.2	94.780	0.560	-1.130	0.890
2020/01/31 22:08:46.3	94.770	0.560	-1.120	0.880
2020/01/31 22:08:46.4	94.760	0.560	-1.110	0.870
2020/01/31 22:08:46.5	94.750	0.560	-1.090	0.850
2020/01/31 22:08:46.6	94.740	0.560	-1.060	0.840
2020/01/31 22:08:46.7	94.730	0.550	-1.030	0.820
2020/01/31 22:08:46.8	94.720	0.550	-0.990	0.810
2020/01/31 22:08:46.9	94.710	0.540	-0.950	0.790
2020/01/31 22:08:47.0	94.690	0.530	-0.900	0.770
2020/01/31 22:08:47.1	94.680	0.510	-0.850	0.760
2020/01/31 22:08:47.2	94.670	0.500	-0.800	0.750
2020/01/31 22:08:47.3	94.650	0.480	-0.740	0.740
2020/01/31 22:08:47.4	94.640	0.460	-0.680	0.730
2020/01/31 22:08:47.5	94.630	0.440	-0.620	0.720
2020/01/31 22:08:47.6	94.610	0.420	-0.550	0.710
2020/01/31 22:08:47.7	94.600	0.400	-0.490	0.700
2020/01/31 22:08:47.8	94.590	0.370	-0.420	0.690
2020/01/31 22:08:47.9	94.570	0.350	-0.350	0.690
2020/01/31 22:08:48.0	94.560	0.320	-0.280	0.680
2020/01/31 22:08:48.1	94.550	0.290	-0.210	0.680
2020/01/31 22:08:48.2	94.540	0.260	-0.150	0.670
2020/01/31 22:08:48.3	94.520	0.230	-0.080	0.670
2020/01/31 22:08:48.4	94.510	0.200	-0.010	0.670
2020/01/31 22:08:48.5	94.500	0.170	0.050	0.670
2020/01/31 22:08:48.6	94.490	0.140	0.110	0.670
2020/01/31 22:08:48.7	94.480	0.100	0.170	0.660
2020/01/31 22:08:48.8	94.480	0.070	0.230	0.660
2020/01/31 22:08:48.9	94.470	0.040	0.280	0.660
2020/01/31 22:08:49.0	94.460	0.000	0.340	0.660
2020/01/31 22:08:49.1	94.450	-0.030	0.390	0.650
2020/01/31 22:08:49.2	94.450	-0.070	0.430	0.650
2020/01/31 22:08:49.3	94.440	-0.110	0.480	0.640
2020/01/31 22:08:49.4	94.440	-0.140	0.510	0.630
2020/01/31 22:08:49.5	94.440	-0.180	0.550	0.620
2020/01/31 22:08:49.6	94.430	-0.210	0.580	0.610
2020/01/31 22:08:49.7	94.430	-0.250	0.610	0.600
2020/01/31 22:08:49.8	94.430	-0.280	0.630	0.580
2020/01/31 22:08:49.9	94.440	-0.320	0.650	0.560
2020/01/31 22:08:50.0	94.430	-0.350	0.670	0.540
2020/01/31 22:08:50.1	94.430	-0.380	0.680	0.520
2020/01/31 22:08:50.2	94.440	-0.410	0.690	0.490
2020/01/31 22:08:50.3	94.450	-0.440	0.690	0.470
2020/01/31 22:08:50.4	94.460	-0.470	0.690	0.440
2020/01/31 22:08:50.5	94.470	-0.500	0.690	0.410
2020/01/31 22:08:50.6	94.480	-0.520	0.690	0.380
2020/01/31 22:08:50.7	94.500	-0.540	0.680	0.340
2020/01/31 22:08:50.8	94.510	-0.560	0.660	0.310
2020/01/31 22:08:50.9	94.530	-0.580	0.640	0.270
2020/01/31 22:08:51.0	94.560	-0.590	0.620	0.230
2020/01/31 22:08:51.1	94.580	-0.600	0.600	0.190
2020/01/31 22:08:51.2	94.600	-0.610	0.570	0.150
2020/01/31 22:08:51.3	94.620	-0.620	0.540	0.110
2020/01/31 22:08:51.4	94.650	-0.620	0.500	0.070
2020/01/31 22:08:51.5	94.670	-0.620	0.460	0.030
2020/01/31 22:08:51.6	94.690	-0.610	0.420	-0.010
2020/01/31 22:08:51.7	94.720	-0.600	0.380	-0.040
2020/01/31 22:08:51.8	94.740	-0.590	0.330	-0.080
2020/01/31 22:08:51.9	94.760	-0.580	0.280	-0.110
2020/01/31 22:08:52.0	94.790	-0.560	0.220	-0.140
2020/01/31 22:08:52.1	94.810	-0.540	0.170	-0.160
2020/01/31 22:08:52.2	94.830	-0.520	0.110	-0.180
2020/01/31 22:08:52.3	94.850	-0.490	0.060	-0.200
2020/01/31 22:08:52.4	94.860	-0.470	-0.000	-0.210
2020/01/31 22:08:52.5	94.880	-0.440	-0.060	-0.220
2020/01/31 22:08:52.6	94.900	-0.400	-0.120	-0.230
2020/01/31 22:08:52.7	94.910	-0.370	-0.180	-0.230
2020/01/31 22:08:52.8	94.930	-0.330	-0.240	-0.230
2020/01/31 22:08:52.9	94.940	-0.300	-0.300	-0.220
2020/01/31 22:08:53.0	94.950	-0.260	-0.360	-0.210
2020/01/31 22:08:53.1	94.960	-0.220	-0.410	-0.190
2020/01/31 22:08:53.2	94.960	-0.180	-0.470	-0.180
2020/01/31 22:08:53.3	94.970	-0.140	-0.520	-0.160
2020/01/31 22:08:53.4	94.970	-0.100	-0.570	-0.130
2020/01/31 22:08:53.5	94.980	-0.060	-0.620	-0.110
2020/01/31 22:08:53.6	94.980	-0.020	-0.670	-0.080
2020/01/31 22:08:53.7	94.980	0.020	-0.710	-0.040
2020/01/31 22:08:53.8	94.980	0.060	-0.750	-0.010
2020/01/31 22:08:53.9	94.980	0.090	-0.790	0.030
2020/01/31 22:08:54.0	94.980	0.130	-0.830	0.060
2020/01/31 22:08:54.1	94.970	0.160	-0.860	0.100
2020/01/31 22:08:54.2	94.970	0.190	-0.890	0.140
2020/01/31 22:08:54.3	94.970	0.220	-0.920	0.180
2020/01/31 22:08:54.4	94.960	0.250	-0.940	0.220
2020/01/31 22:08:54.5	94.960	0.280	-0.960	0.250
2020/01/31 22:08:54.6	94.950	0.300	-0.980	0.290
2020/01/31 22:08:54.7	94.940	0.320	-0.990	0.330
2020/01/31 22:08:54.8	94.940	0.340	-1.000	0.370
2020/01/31 22:08:54.9	94.930	0.360	-1.000	0.410
2020/01/31 22:08:55.0	94.920	0.370	-1.000	0.450
2020/01/31 22:08:55.1	94.910	0.390	-1.000	0.480
2020/01/31 22:08:55.2	94.900	0.400	-1.000	0.510
2020/01/31 22:08:55.3	94.890	0.400	-0.990	0.550
2020/01/31 22:08:55.4	94.880	0.410	-0.970	0.580
2020/01/31 22:08:55.5	94.860	0.410	-0.960	0.600
2020/01/31 22:08:55.6	94.850	0.410	-0.940	0.630
2020/01/31 22:08:55.7	94.840	0.410	-0.920	0.660
2020/01/31 22:08:55.8	94.820	0.410	-0.890	0.680
2020/01/31 22:08:55.9	94.810	0.410	-0.860	0.700
2020/01/31 22:08:56.0	94.800	0.400	-0.820	0.720
2020/01/31 22:08:56.1	94.780	0.390	-0.790	0.730
2020/01/31 22:08:56.2	94.770	0.380	-0.750	0.750
2020/01/31 22:08:56.3	94.750	0.370	-0.710	0.760
2020/01/31 22:08:56.4	94.740	0.360	-0.670	0.770
2020/01/31 22:08:56.5	94.720	0.350	-0.620	0.780
2020/01/31 22:08:56.6	94.710	0.340	-0.570	0.790
2020/01/31 22:08:56.7	94.700	0.330	-0.520	0.800
2020/01/31 22:08:56.8	94.690	0.310	-0.480	0.810
2020/01/31 22:08:56.9	94.670	0.300	-0.420	0.810
2020/01/31 22:08:57.0	94.650	0.280	-0.370	0.810
2020/01/31 22:08:57.1	94.650	0.270	-0.320	0.820
2020/01/31 22:08:57.2	94.640	0.250	-0.270	0.820
2020/01/31 22:08:57.3	94.630	0.240	-0.220	0.820
2020/01/31 22:08:57.4	94.630	0.220	-0.170	0.820
2020/01/31 22:08:57.5	94.630	0.210	-0.120	0.820
2020/01/31 22:08:57.6	94.630	0.190	-0.070	0.820
2020/01/31 22:08:57.7	94.630	0.180	-0.020	0.810
2020/01/31 22:08:57.8	94.630	0.170	0.020	0.810
2020/01/31 22:08:57.9	94.640	0.150	0.060	0.810
2020/01/31 22:08:58.0	94.650	0.140	0.110	0.800
2020/01/31 22:08:58.1	94.660	0.130	0.150	0.800
2020/01/31 22:08:58.2	94.670	0.120	0.180	0.790
2020/01/31 22:08:58.3	94.690	0.100	0.220	0.790
2020/01/31 22:08:58.4	94.700	0.090	0.250	0.780
2020/01/31 22:08:58.5	94.720	0.080	0.270	0.770
2020/01/31 22:08:58.6	94.740	0.070	0.300	0.770
2020/01/31 22:08:58.7	94.760	0.060	0.320	0.760
2020/01/31 22:08:58.8	94.780	0.050	0.340	0.750
2020/01/31 22:08:58.9	94.800	0.040	0.350	0.740
2020/01/31 22:08:59.0	94.830	0.030	0.360	0.730
2020/01/31 22:08:59.1	94.850	0.020	0.380	0.720
2020/01/31 22:08:59.2	94.880	0.010	0.380	0.710
2020/01/31 22:08:59.3	94.900	0.000	0.390	0.700
2020/01/31 22:08:59.4	94.930	-0.010	0.400	0.690
2020/01/31 22:08:59.5	94.960	-0.020	0.400	0.670
2020/01/31 22:08:59.6	94.980	-0.030	0.400	0.660
2020/01/31 22:08:59.7	95.010	-0.040	0.400	0.650
2020/01/31 22:08:59.8	95.030	-0.050	0.400	0.640
2020/01/31 22:08:59.9	95.060	-0.060	0.400	0.630
2020/01/31 22:09:00.0	95.080	-0.080	0.400	0.610
2020/01/31 22:09:00.1	95.100	-0.090	0.400	0.600
2020/01/31 22:09:00.2	95.130	-0.100	0.390	0.590
2020/01/31 22:09:00.3	95.150	-0.110	0.390	0.580
2020/01/31 22:09:00.4	95.170	-0.130	0.390	0.560
2020/01/31 22:09:00.5	95.180	-0.140	0.380	0.550
2020/01/31 22:09:00.6	95.200	-0.150	0.380	0.540
2020/01/31 22:09:00.7	95.220	-0.170	0.370	0.530
2020/01/31 22:09:00.8	95.230	-0.180	0.370	0.520
2020/01/31 22:09:00.9	95.240	-0.200	0.360	0.510
2020/01/31 22:09:01.0	95.250	-0.210	0.350	0.500
2020/01/31 22:09:01.1	95.260	-0.230	0.350	0.490
2020/01/31 22:09:01.2	95.270	-0.240	0.340	0.480
2020/01/31 22:09:01.3	95.280	-0.250	0.330	0.470
2020/01/31 22:09:01.4	95.290	-0.270	0.320	0.460
2020/01/31 22:09:01.5	95.290	-0.280	0.320	0.450
2020/01/31 22:09:01.6	95.290	-0.290	0.300	0.440
2020/01/31 22:09:01.7	95.300	-0.300	0.290	0.440
2020/01/31 22:09:01.8	95.300	-0.310	0.280	0.430
2020/01/31 22:09:01.9	95.290	-0.320	0.260	0.420
2020/01/31 22:09:02.0	95.290	-0.330	0.240	0.420
2020/01/31 22:09:02.1	95.290	-0.340	0.220	0.410
2020/01/31 22:09:02.2	95.290	-0.340	0.200	0.410
2020/01/31 22:09:02.3	95.280	-0.350	0.170	0.410
2020/01/31 22:09:02.4	95.270	-0.350	0.140	0.400
2020/01/31 22:09:02.5	95.260	-0.350	0.110	0.400
2020/01/31 22:09:02.6	95.260	-0.350	0.080	0.400
2020/01/31 22:09:02.7	95.250	-0.350	0.040	0.400
2020/01/31 22:09:02.8	95.240	-0.350	0.000	0.400
2020/01/31 22:09:02.9	95.230	-0.350	-0.040	0.400
2020/01/31 22:09:03.0	95.210	-0.340	-0.080	0.400
2020/01/31 22:09:03.1	95.200	-0.330	-0.130	0.400
2020/01/31 22:09:03.2	95.190	-0.320	-0.180	0.400
2020/01/31 22:09:03.3	95.180	-0.310	-0.230	0.400
2020/01/31 22:09:03.4	95.170	-0.300	-0.280	0.400
2020/01/31 22:09:03.5	95.160	-0.280	-0.330	0.390
2020/01/31 22:09:03.6	95.160	-0.260	-0.390	0.390
2020/01/31 22:09:03.7	95.150	-0.240	-0.440	0.390
2020/01/31 22:09:03.8	95.140	-0.220	-0.500	0.380
2020/01/31 22:09:03.9	95.140	-0.200	-0.560	0.380
2020/01/31 22:09:04.0	95.130	-0.180	-0.610	0.370
2020/01/31 22:09:04.1	95.130	-0.150	-0.670	0.370
2020/01/31 22:09:04.2	95.130	-0.120	-0.730	0.360
2020/01/31 22:09:04.3	95.130	-0.100	-0.780	0.350
2020/01/31 22:09:04.4	95.130	-0.070	-0.830	0.340
2020/01/31 22:09:04.5	95.140	-0.040	-0.880	0.330
2020/01/31 22:09:04.6	95.150	-0.010	-0.930	0.320
2020/01/31 22:09:04.7	95.150	0.020	-0.970	0.300
2020/01/31 22:09:04.8	95.160	0.050	-1.020	0.290
2020/01/31 22:09:04.9	95.180	0.090	-1.050	0.280
2020/01/31 22:09:05.0	95.190	0.120	-1.090	0.260
2020/01/31 22:09:05.1	95.200	0.150	-1.120	0.250
2020/01/31 22:09:05.2	95.220	0.180	-1.140	0.240
2020/01/31 22:09:05.3	95.240	0.210	-1.160	0.230
2020/01/31 22:09:05.4	95.260	0.240	-1.180	0.230
2020/01/31 22:09:05.5	95.280	0.260	-1.180	0.220
2020/01/31 22:09:05.6	95.300	0.290	-1.190	0.210
2020/01/31 22:09:05.7	95.320	0.310	-1.180	0.210
2020/01/31 22:09:05.8	95.350	0.340	-1.170	0.200
2020/01/31 22:09:05.9	95.370	0.360	-1.160	0.200
2020/01/31 22:09:06.0	95.390	0.380	-1.130	0.200
2020/01/31 22:09:06.1	95.420	0.390	-1.110	0.200
2020/01/31 22:09:06.2	95.440	0.410	-1.070	0.210
2020/01/31 22:09:06.3	95.470	0.420	-1.030	0.210
2020/01/31 22:09:06.4	95.500	0.430	-0.990	0.220
2020/01/31 22:09:06.5	95.530	0.440	-0.940	0.220
2020/01/31 22:09:06.6	95.550	0.440	-0.890	0.230
2020/01/31 22:09:06.7	95.580	0.440	-0.830	0.240
2020/01/31 22:09:06.8	95.610	0.440	-0.760	0.250
2020/01/31 22:09:06.9	95.640	0.440	-0.700	0.260
2020/01/31 22:09:07.0	95.660	0.430	-0.620	0.280
2020/01/31 22:09:07.1	95.690	0.420	-0.550	0.300
2020/01/31 22:09:07.2	95.710	0.410	-0.470	0.310
2020/01/31 22:09:07.3	95.730	0.400	-0.400	0.330
2020/01/31 22:09:07.4	95.760	0.380	-0.320	0.340
2020/01/31 22:09:07.5	95.780	0.360	-0.230	0.360
2020/01/31 22:09:07.6	95.800	0.340	-0.150	0.380
2020/01/31 22:09:07.7	95.820	0.310	-0.070	0.400
2020/01/31 22:09:07.8	95.830	0.290	0.010	0.420
2020/01/31 22:09:07.9	95.850	0.260	0.090	0.440
2020/01/31 22:09:08.0	95.860	0.230	0.170	0.460
2020/01/31 22:09:08.1	95.880	0.200	0.250	0.480
2020/01/31 22:09:08.2	95.890	0.170	0.320	0.500
2020/01/31 22:09:08.3	95.890	0.140	0.400	0.520
2020/01/31 22:09:08.4	95.900	0.100	0.470	0.540
2020/01/31 22:09:08.5	95.900	0.070	0.530	0.560
2020/01/31 22:09:08.6	95.900	0.040	0.590	0.580
2020/01/31 22:09:08.7	95.900	0.000	0.650	0.590
2020/01/31 22:09:08.8	95.900	-0.030	0.700	0.610
2020/01/31 22:09:08.9	95.900	-0.060	0.750	0.620
2020/01/31 22:09:09.0	95.900	-0.090	0.790	0.630
2020/01/31 22:09:09.1	95.890	-0.120	0.820	0.640
2020/01/31 22:09:09.2	95.880	-0.150	0.850	0.650
2020/01/31 22:09:09.3	95.870	-0.170	0.870	0.660
2020/01/31 22:09:09.4	95.850	-0.190	0.890	0.670
2020/01/31 22:09:09.5	95.840	-0.210	0.890	0.670
2020/01/31 22:09:09.6	95.820	-0.230	0.900	0.680
2020/01/31 22:09:09.7	95.810	-0.240	0.890	0.680
2020/01/31 22:09:09.8	95.790	-0.250	0.880	0.680
2020/01/31 22:09:09.9	95.770	-0.260	0.860	0.670
2020/01/31 22:09:10.0	95.750	-0.260	0.830	0.670
2020/01/31 22:09:10.1	95.730	-0.260	0.790	0.660
2020/01/31 22:09:10.2	95.710	-0.260	0.750	0.660
2020/01/31 22:09:10.3	95.690	-0.250	0.710	0.650
2020/01/31 22:09:10.4	95.680	-0.240	0.650	0.640
2020/01/31 22:09:10.5	95.660	-0.220	0.590	0.620
2020/01/31 22:09:10.6	95.640	-0.210	0.530	0.610
2020/01/31 22:09:10.7	95.630	-0.190	0.460	0.590
2020/01/31 22:09:10.8	95.610	-0.160	0.380	0.580
2020/01/31 22:09:10.9	95.600	-0.140	0.310	0.560
2020/01/31 22:09:11.0	95.590	-0.110	0.230	0.530
2020/01/31 22:09:11.1	95.580	-0.080	0.150	0.510
2020/01/31 22:09:11.2	95.570	-0.050	0.060	0.490
2020/01/31 22:09:11.3	95.570	-0.020	-0.020	0.470
2020/01/31 22:09:11.4	95.570	0.010	-0.110	0.450
2020/01/31 22:09:11.5	95.570	0.040	-0.190	0.430
2020/01/31 22:09:11.6	95.570	0.080	-0.280	0.400
2020/01/31 22:09:11.7	95.580	0.110	-0.360	0.380
2020/01/31 22:09:11.8	95.590	0.140	-0.430	0.360
2020/01/31 22:09:11.9	95.600	0.170	-0.510	0.340
2020/01/31 22:09:12.0	95.600	0.190	-0.580	0.320
2020/01/31 22:09:12.1	95.610	0.220	-0.650	0.300
2020/01/31 22:09:12.2	95.630	0.240	-0.710	0.280
2020/01/31 22:09:12.3	95.640	0.260	-0.770	0.270
2020/01/31 22:09:12.4	95.660	0.280	-0.810	0.250
2020/01/31 22:09:12.5	95.680	0.290	-0.860	0.230
2020/01/31 22:09:12.6	95.700	0.300	-0.890	0.220
2020/01/31 22:09:12.7	95.720	0.300	-0.920	0.200
2020/01/31 22:09:12.8	95.740	0.300	-0.940	0.190
2020/01/31 22:09:12.9	95.760	0.300	-0.950	0.170
2020/01/31 22:09:13.0	95.770	0.300	-0.950	0.160
2020/01/31 22:09:13.1	95.790	0.290	-0.950	0.150
2020/01/31 22:09:13.2	95.810	0.270	-0.940	0.130
2020/01/31 22:09:13.3	95.830	0.250	-0.920	0.120
2020/01/31 22:09:13.4	95.850	0.230	-0.890	0.100
2020/01/31 22:09:13.5	95.870	0.200	-0.860	0.080
2020/01/31 22:09:13.6	95.890	0.180	-0.820	0.070
2020/01/31 22:09:13.7	95.910	0.140	-0.780	0.050
2020/01/31 22:09:13.8	95.930	0.110	-0.730	0.040
2020/01/31 22:09:13.9	95.940	0.070	-0.680	0.030
2020/01/31 22:09:14.0	95.960	0.030	-0.620	0.010
2020/01/31 22:09:14.1	95.970	-0.010	-0.560	-0.000
2020/01/31 22:09:14.2	95.980	-0.060	-0.490	-0.010
2020/01/31 22:09:14.3	95.990	-0.100	-0.430	-0.020
2020/01/31 22:09:14.4	96.010	-0.150	-0.360	-0.030
2020/01/31 22:09:14.5	96.020	-0.200	-0.290	-0.040
2020/01/31 22:09:14.6	96.030	-0.240	-0.220	-0.040
2020/01/31 22:09:14.7	96.040	-0.290	-0.150	-0.040
2020/01/31 22:09:14.8	96.050	-0.340	-0.090	-0.050
2020/01/31 22:09:14.9	96.060	-0.380	-0.020	-0.050
2020/01/31 22:09:15.0	96.070	-0.420	0.050	-0.050
2020/01/31 22:09:15.1	96.080	-0.460	0.100	-0.050
2020/01/31 22:09:15.2	96.090	-0.500	0.160	-0.050
2020/01/31 22:09:15.3	96.100	-0.540	0.210	-0.040
2020/01/31 22:09:15.4	96.110	-0.570	0.250	-0.040
2020/01/31 22:09:15.5	96.120	-0.600	0.290	-0.030
2020/01/31 22:09:15.6	96.140	-0.630	0.320	-0.020
2020/01/31 22:09:15.7	96.150	-0.650	0.350	-0.010
2020/01/31 22:09:15.8	96.160	-0.670	0.360	0.000
2020/01/31 22:09:15.9	96.180	-0.680	0.380	0.020
2020/01/31 22:09:16.0	96.190	-0.690	0.380	0.030
2020/01/31 22:09:16.1	96.210	-0.690	0.380	0.050
2020/01/31 22:09:16.2	96.220	-0.690	0.370	0.080
2020/01/31 22:09:16.3	96.240	-0.690	0.360	0.100
2020/01/31 22:09:16.4	96.250	-0.680	0.340	0.130
2020/01/31 22:09:16.5	96.260	-0.660	0.310	0.170
2020/01/31 22:09:16.6	96.270	-0.640	0.280	0.200
2020/01/31 22:09:16.7	96.290	-0.620	0.250	0.240
2020/01/31 22:09:16.8	96.290	-0.590	0.210	0.280
2020/01/31 22:09:16.9	96.300	-0.560	0.160	0.330
2020/01/31 22:09:17.0	96.320	-0.530	0.110	0.380
2020/01/31 22:09:17.1	96.320	-0.490	0.060	0.430
2020/01/31 22:09:17.2	96.320	-0.450	0.010	0.480
2020/01/31 22:09:17.3	96.320	-0.400	-0.050	0.530
2020/01/31 22:09:17.4	96.320	-0.360	-0.100	0.590
2020/01/31 22:09:17.5	96.320	-0.310	-0.160	0.650
2020/01/31 22:09:17.6	96.310	-0.260	-0.220	0.700
2020/01/31 22:09:17.7	96.300	-0.210	-0.280	0.760
2020/01/31 22:09:17.8	96.290	-0.150	-0.330	0.820
2020/01/31 22:09:17.9	96.280	-0.100	-0.390	0.870
2020/01/31 22:09:18.0	96.250	-0.050	-0.440	0.920
2020/01/31 22:09:18.1	96.240	0.010	-0.490	0.970
2020/01/31 22:09:18.2	96.220	0.060	-0.540	1.020
2020/01/31 22:09:18.3	96.200	0.110	-0.580	1.070
2020/01/31 22:09:18.4	96.180	0.160	-0.620	1.120
2020/01/31 22:09:18.5	96.160	0.210	-0.660	1.160
2020/01/31 22:09:18.6	96.140	0.250	-0.690	1.200
2020/01/31 22:09:18.7	96.110	0.300	-0.710	1.230
2020/01/31 22:09:18.8	96.090	0.340	-0.730	1.260
2020/01/31 22:09:18.9	96.070	0.380	-0.750	1.290
2020/01/31 22:09:19.0	96.050	0.410	-0.760	1.320
2020/01/31 22:09:19.1	96.030	0.450	-0.770	1.340
2020/01/31 22:09:19.2	96.010	0.480	-0.770	1.360
2020/01/31 22:09:19.3	95.990	0.500	-0.760	1.370
2020/01/31 22:09:19.4	95.970	0.530	-0.750	1.370
2020/01/31 22:09:19.5	95.950	0.550	-0.740	1.380
2020/01/31 22:09:19.6	95.930	0.570	-0.720	1.380
2020/01/31 22:09:19.7	95.910	0.580	-0.690	1.380
2020/01/31 22:09:19.8	95.900	0.590	-0.670	1.370
2020/01/31 22:09:19.9	95.890	0.600	-0.640	1.360
2020/01/31 22:09:20.0	95.880	0.600	-0.600	1.340
2020/01/31 22:09:20.1	95.870	0.600	-0.560	1.330
2020/01/31 22:09:20.2	95.860	0.600	-0.520	1.310
2020/01/31 22:09:20.3	95.860	0.600	-0.480	1.280
2020/01/31 22:09:20.4	95.850	0.590	-0.440	1.260
2020/01/31 22:09:20.5	95.850	0.580	-0.400	1.230
2020/01/31 22:09:20.6	95.860	0.570	-0.360	1.200
2020/01/31 22:09:20.7	95.860	0.550	-0.310	1.160
2020/01/31 22:09:20.8	95.870	0.540	-0.270	1.130
2020/01/31 22:09:20.9	95.880	0.520	-0.230	1.090
2020/01/31 22:09:21.0	95.890	0.500	-0.190	1.050
2020/01/31 22:09:21.1	95.910	0.480	-0.150	1.010
2020/01/31 22:09:21.2	95.920	0.460	-0.110	0.970
2020/01/31 22:09:21.3	95.940	0.430	-0.080	0.930
2020/01/31 22:09:21.4	95.960	0.410	-0.050	0.880
2020/01/31 22:09:21.5	95.980	0.380	-0.020	0.840
2020/01/31 22:09:21.6	96.000	0.360	0.010	0.790
2020/01/31 22:09:21.7	96.030	0.330	0.040	0.750
2020/01/31 22:09:21.8	96.050	0.300	0.060	0.700
2020/01/31 22:09:21.9	96.080	0.270	0.090	0.660
2020/01/31 22:09:22.0	96.100	0.250	0.110	0.610
2020/01/31 22:09:22.1	96.130	0.220	0.130	0.570
2020/01/31 22:09:22.2	96.160	0.190	0.140	0.520
2020/01/31 22:09:22.3	96.190	0.160	0.150	0.480
2020/01/31 22:09:22.4	96.210	0.130	0.160	0.430
2020/01/31 22:09:22.5	96.240	0.100	0.170	0.390
2020/01/31 22:09:22.6	96.270	0.080	0.170	0.340
2020/01/31 22:09:22.7	96.300	0.050	0.170	0.300
2020/01/31 22:09:22.8	96.330	0.020	0.180	0.260
2020/01/31 22:09:22.9	96.350	-0.010	0.170	0.210
2020/01/31 22:09:23.0	96.380	-0.030	0.170	0.170
2020/01/31 22:09:23.1	96.400	-0.060	0.170	0.130
2020/01/31 22:09:23.2	96.420	-0.080	0.170	0.100
2020/01/31 22:09:23.3	96.440	-0.100	0.160	0.060
2020/01/31 22:09:23.4	96.460	-0.130	0.160	0.030
2020/01/31 22:09:23.5	96.480	-0.150	0.150	0.000
2020/01/31 22:09:23.6	96.490	-0.170	0.150	-0.020
2020/01/31 22:09:23.7	96.500	-0.190	0.150	-0.050
2020/01/31 22:09:23.8	96.510	-0.210	0.150	-0.070
2020/01/31 22:09:23.9	96.520	-0.230	0.150	-0.080
2020/01/31 22:09:24.0	96.500	-0.240	0.150	-0.100
2020/01/31 22:09:24.1	96.500	-0.260	0.150	-0.110
2020/01/31 22:09:24.2	96.500	-0.270	0.150	-0.120
2020/01/31 22:09:24.3	96.490	-0.280	0.160	-0.130
2020/01/31 22:09:24.4	96.480	-0.290	0.160	-0.130
2020/01/31 22:09:24.5	96.470	-0.300	0.170	-0.140
2020/01/31 22:09:24.6	96.460	-0.310	0.180	-0.140
2020/01/31 22:09:24.7	96.440	-0.320	0.180	-0.140
2020/01/31 22:09:24.8	96.420	-0.320	0.190	-0.130
2020/01/31 22:09:24.9	96.400	-0.330	0.200	-0.130
2020/01/31 22:09:25.0	96.390	-0.330	0.200	-0.130
2020/01/31 22:09:25.1	96.360	-0.330	0.210	-0.120
2020/01/31 22:09:25.2	96.340	-0.330	0.210	-0.110
2020/01/31 22:09:25.3	96.320	-0.330	0.210	-0.100
2020/01/31 22:09:25.4	96.290	-0.330	0.210	-0.090
2020/01/31 22:09:25.5	96.270	-0.320	0.210	-0.070
2020/01/31 22:09:25.6	96.240	-0.310	0.200	-0.060
2020/01/31 22:09:25.7	96.220	-0.310	0.200	-0.050
2020/01/31 22:09:25.8	96.190	-0.300	0.180	-0.030
2020/01/31 22:09:25.9	96.170	-0.290	0.170	-0.020
2020/01/31 22:09:26.0	96.150	-0.270	0.150	0.000
2020/01/31 22:09:26.1	96.120	-0.260	0.130	0.020
2020/01/31 22:09:26.2	96.100	-0.250	0.110	0.040
2020/01/31 22:09:26.3	96.090	-0.230	0.080	0.050
2020/01/31 22:09:26.4	96.070	-0.210	0.040	0.070
2020/01/31 22:09:26.5	96.060	-0.190	0.010	0.090
2020/01/31 22:09:26.6	96.050	-0.170	-0.030	0.100
2020/01/31 22:09:26.7	96.040	-0.150	-0.080	0.120
2020/01/31 22:09:26.8	96.030	-0.130	-0.120	0.140
2020/01/31 22:09:26.9	96.030	-0.110	-0.170	0.160
2020/01/31 22:09:27.0	96.020	-0.080	-0.220	0.170
2020/01/31 22:09:27.1	96.030	-0.060	-0.280	0.190
2020/01/31 22:09:27.2	96.030	-0.030	-0.330	0.200
2020/01/31 22:09:27.3	96.040	-0.010	-0.390	0.220
2020/01/31 22:09:27.4	96.050	0.020	-0.450	0.230
2020/01/31 22:09:27.5	96.070	0.050	-0.510	0.250
2020/01/31 22:09:27.6	96.080	0.080	-0.570	0.260
2020/01/31 22:09:27.7	96.100	0.100	-0.620	0.270
2020/01/31 22:09:27.8	96.130	0.130	-0.680	0.280
2020/01/31 22:09:27.9	96.150	0.160	-0.740	0.290
2020/01/31 22:09:28.0	96.170	0.190	-0.790	0.300
2020/01/31 22:09:28.1	96.200	0.220	-0.840	0.310
2020/01/31 22:09:28.2	96.230	0.240	-0.890	0.320
2020/01/31 22:09:28.3	96.260	0.270	-0.940	0.320
2020/01/31 22:09:28.4	96.290	0.290	-0.980	0.320
2020/01/31 22:09:28.5	96.320	0.320	-1.020	0.330
2020/01/31 22:09:28.6	96.350	0.340	-1.060	0.330
2020/01/31 22:09:28.7	96.380	0.360	-1.090	0.330
2020/01/31 22:09:28.8	96.410	0.380	-1.110	0.340
2020/01/31 22:09:28.9	96.440	0.400	-1.130	0.340
2020/01/31 22:09:29.0	96.460	0.420	-1.150	0.340
2020/01/31 22:09:29.1	96.490	0.430	-1.150	0.340
2020/01/31 22:09:29.2	96.510	0.440	-1.150	0.350
2020/01/31 22:09:29.3	96.530	0.450	-1.150	0.350
2020/01/31 22:09:29.4	96.550	0.460	-1.140	0.360
2020/01/31 22:09:29.5	96.560	0.460	-1.120	0.360
2020/01/31 22:09:29.6	96.580	0.460	-1.090	0.370
2020/01/31 22:09:29.7	96.590	0.460	-1.060	0.380
2020/01/31 22:09:29.8	96.600	0.450	-1.020	0.390
2020/01/31 22:09:29.9	96.610	0.440	-0.980	0.400
2020/01/31 22:09:30.0	96.610	0.430	-0.930	0.410
2020/01/31 22:09:30.1	96.620	0.410	-0.870	0.420
2020/01/31 22:09:30.2	96.620	0.400	-0.800	0.430
2020/01/31 22:09:30.3	96.620	0.370	-0.740	0.450
2020/01/31 22:09:30.4	96.620	0.350	-0.660	0.460
2020/01/31 22:09:30.5	96.620	0.320	-0.590	0.480
2020/01/31 22:09:30.6	96.610	0.290	-0.500	0.500
2020/01/31 22:09:30.7	96.610	0.250	-0.420	0.520
2020/01/31 22:09:30.8	96.600	0.220	-0.330	0.550
2020/01/31 22:09:30.9	96.590	0.180	-0.240	0.570
2020/01/31 22:09:31.0	96.580	0.140	-0.150	0.590
2020/01/31 22:09:31.1	96.570	0.090	-0.050	0.620
2020/01/31 22:09:31.2	96.560	0.050	0.040	0.650
2020/01/31 22:09:31.3	96.550	-0.000	0.130	0.680
2020/01/31 22:09:31.4	96.540	-0.050	0.220	0.710
2020/01/31 22:09:31.5	96.520	-0.100	0.310	0.740
2020/01/31 22:09:31.6	96.510	-0.150	0.400	0.780
2020/01/31 22:09:31.7	96.500	-0.200	0.480	0.810
2020/01/31 22:09:31.8	96.490	-0.250	0.560	0.850
2020/01/31 22:09:31.9	96.480	-0.300	0.630	0.880
2020/01/31 22:09:32.0	96.490	-0.350	0.700	0.920
2020/01/31 22:09:32.1	96.480	-0.400	0.760	0.960
2020/01/31 22:09:32.2	96.470	-0.450	0.820	0.990
2020/01/31 22:09:32.3	96.470	-0.490	0.860	1.030
2020/01/31 22:09:32.4	96.460	-0.540	0.910	1.060
2020/01/31 22:09:32.5	96.460	-0.580	0.940	1.100
2020/01/31 22:09:32.6	96.460	-0.620	0.970	1.130
2020/01/31 22:09:32.7	96.460	-0.660	0.980	1.170
2020/01/31 22:09:32.8	96.460	-0.690	1.000	1.200
2020/01/31 22:09:32.9	96.460	-0.720	1.000	1.230
2020/01/31 22:09:33.0	96.470	-0.750	1.000	1.250
2020/01/31 22:09:33.1	96.480	-0.770	0.980	1.280
2020/01/31 22:09:33.2	96.480	-0.790	0.960	1.300
2020/01/31 22:09:33.3	96.490	-0.810	0.940	1.320
2020/01/31 22:09:33.4	96.500	-0.820	0.900	1.340
2020/01/31 22:09:33.5	96.510	-0.820	0.860	1.350
2020/01/31 22:09:33.6	96.520	-0.830	0.820	1.360
2020/01/31 22:09:33.7	96.530	-0.820	0.760	1.370
2020/01/31 22:09:33.8	96.540	-0.820	0.710	1.370
2020/01/31 22:09:33.9	96.550	-0.810	0.640	1.380
2020/01/31 22:09:34.0	96.570	-0.790	0.580	1.370
2020/01/31 22:09:34.1	96.580	-0.770	0.510	1.360
2020/01/31 22:09:34.2	96.600	-0.750	0.440	1.360
2020/01/31 22:09:34.3	96.610	-0.720	0.360	1.340
2020/01/31 22:09:34.4	96.620	-0.690	0.290	1.330
2020/01/31 22:09:34.5	96.640	-0.660	0.210	1.310
2020/01/31 22:09:34.6	96.650	-0.620	0.130	1.290
2020/01/31 22:09:34.7	96.670	-0.580	0.050	1.260
2020/01/31 22:09:34.8	96.680	-0.540	-0.030	1.240
2020/01/31 22:09:34.9	96.690	-0.500	-0.110	1.210
2020/01/31 22:09:35.0	96.690	-0.450	-0.180	1.170
2020/01/31 22:09:35.1	96.710	-0.400	-0.260	1.140
2020/01/31 22:09:35.2	96.720	-0.350	-0.330	1.100
2020/01/31 22:09:35.3	96.730	-0.300	-0.400	1.060
2020/01/31 22:09:35.4	96.740	-0.250	-0.460	1.020
2020/01/31 22:09:35.5	96.750	-0.200	-0.530	0.980
2020/01/31 22:09:35.6	96.760	-0.150	-0.580	0.930
2020/01/31 22:09:35.7	96.770	-0.100	-0.630	0.890
2020/01/31 22:09:35.8	96.780	-0.050	-0.680	0.840
2020/01/31 22:09:35.9	96.780	-0.000	-0.730	0.790
2020/01/31 22:09:36.0	96.790	0.050	-0.760	0.730
2020/01/31 22:09:36.1	96.800	0.090	-0.800	0.680
2020/01/31 22:09:36.2	96.800	0.140	-0.830	0.630
2020/01/31 22:09:36.3	96.810	0.180	-0.850	0.570
2020/01/31 22:09:36.4	96.810	0.220	-0.870	0.520
2020/01/31 22:09:36.5	96.820	0.260	-0.880	0.470
2020/01/31 22:09:36.6	96.820	0.290	-0.890	0.420
2020/01/31 22:09:36.7	96.820	0.330	-0.890	0.360
2020/01/31 22:09:36.8	96.830	0.360	-0.890	0.310
2020/01/31 22:09:36.9	96.830	0.390	-0.890	0.270
2020/01/31 22:09:37.0	96.830	0.420	-0.880	0.220
2020/01/31 22:09:37.1	96.830	0.440	-0.870	0.180
2020/01/31 22:09:37.2	96.830	0.460	-0.850	0.130
2020/01/31 22:09:37.3	96.830	0.480	-0.840	0.090
2020/01/31 22:09:37.4	96.830	0.500	-0.820	0.060
2020/01/31 22:09:37.5	96.830	0.520	-0.800	0.020
2020/01/31 22:09:37.6	96.830	0.540	-0.780	-0.010
2020/01/31 22:09:37.7	96.820	0.550	-0.750	-0.040
2020/01/31 22:09:37.8	96.820	0.560	-0.730	-0.070
2020/01/31 22:09:37.9	96.820	0.570	-0.710	-0.100
2020/01/31 22:09:38.0	96.810	0.580	-0.680	-0.120
2020/01/31 22:09:38.1	96.810	0.590	-0.660	-0.140
2020/01/31 22:09:38.2	96.800	0.600	-0.640	-0.160
2020/01/31 22:09:38.3	96.800	0.610	-0.620	-0.180
2020/01/31 22:09:38.4	96.790	0.610	-0.600	-0.190
2020/01/31 22:09:38.5	96.780	0.620	-0.580	-0.200
2020/01/31 22:09:38.6	96.780	0.620	-0.560	-0.210
2020/01/31 22:09:38.7	96.770	0.630	-0.540	-0.210
2020/01/31 22:09:38.8	96.760	0.630	-0.520	-0.220
2020/01/31 22:09:38.9	96.760	0.630	-0.510	-0.220
2020/01/31 22:09:39.0	96.750	0.630	-0.490	-0.220
2020/01/31 22:09:39.1	96.740	0.630	-0.480	-0.220
2020/01/31 22:09:39.2	96.730	0.630	-0.460	-0.220
2020/01/31 22:09:39.3	96.720	0.620	-0.450	-0.210
2020/01/31 22:09:39.4	96.710	0.620	-0.430	-0.210
2020/01/31 22:09:39.5	96.700	0.620	-0.420	-0.200
2020/01/31 22:09:39.6	96.690	0.610	-0.400	-0.190
2020/01/31 22:09:39.7	96.680	0.600	-0.390	-0.180
2020/01/31 22:09:39.8	96.670	0.590	-0.370	-0.170
2020/01/31 22:09:39.9	96.670	0.580	-0.350	-0.170
2020/01/31 22:09:40.0	96.660	0.570	-0.330	-0.160
2020/01/31 22:09:40.1	96.660	0.550	-0.310	-0.150
2020/01/31 22:09:40.2	96.650	0.530	-0.290	-0.140
2020/01/31 22:09:40.3	96.650	0.510	-0.260	-0.130
2020/01/31 22:09:40.4	96.650	0.490	-0.230	-0.120
2020/01/31 22:09:40.5	96.650	0.470	-0.200	-0.110
2020/01/31 22:09:40.6	96.650	0.440	-0.170	-0.100
2020/01/31 22:09:40.7	96.660	0.420	-0.140	-0.100
2020/01/31 22:09:40.8	96.660	0.390	-0.100	-0.090
2020/01/31 22:09:40.9	96.670	0.360	-0.060	-0.090
2020/01/31 22:09:41.0	96.680	0.330	-0.030	-0.080
2020/01/31 22:09:41.1	96.690	0.290	0.010	-0.080
2020/01/31 22:09:41.2	96.710	0.260	0.050	-0.070
2020/01/31 22:09:41.3	96.720	0.220	0.090	-0.070
2020/01/31 22:09:41.4	96.740	0.190	0.130	-0.060
2020/01/31 22:09:41.5	96.750	0.150	0.170	-0.060
2020/01/31 22:09:41.6	96.770	0.110	0.210	-0.060
2020/01/31 22:09:41.7	96.790	0.080	0.240	-0.050
2020/01/31 22:09:41.8	96.810	0.040	0.280	-0.040
2020/01/31 22:09:41.9	96.830	0.000	0.310	-0.030
2020/01/31 22:09:42.0	96.850	-0.040	0.350	-0.020
2020/01/31 22:09:42.1	96.870	-0.070	0.380	-0.010
2020/01/31 22:09:42.2	96.890	-0.110	0.410	0.010
2020/01/31 22:09:42.3	96.910	-0.140	0.430	0.030
2020/01/31 22:09:42.4	96.930	-0.180	0.450	0.050
2020/01/31 22:09:42.5	96.940	-0.210	0.470	0.080
2020/01/31 22:09:42.6	96.960	-0.240	0.490	0.110
2020/01/31 22:09:42.7	96.980	-0.270	0.500	0.140
2020/01/31 22:09:42.8	96.990	-0.290	0.510	0.180
2020/01/31 22:09:42.9	97.010	-0.320	0.520	0.220
2020/01/31 22:09:43.0	97.020	-0.350	0.520	0.260
2020/01/31 22:09:43.1	97.030	-0.370	0.520	0.310
2020/01/31 22:09:43.2	97.040	-0.390	0.520	0.360
2020/01/31 22:09:43.3	97.050	-0.410	0.510	0.410
2020/01/31 22:09:43.4	97.060	-0.420	0.500	0.460
2020/01/31 22:09:43.5	97.070	-0.440	0.480	0.520
2020/01/31 22:09:43.6	97.070	-0.450	0.470	0.580
2020/01/31 22:09:43.7	97.080	-0.460	0.450	0.650
2020/01/31 22:09:43.8	97.080	-0.470	0.420	0.710
2020/01/31 22:09:43.9	97.090	-0.480	0.390	0.770
2020/01/31 22:09:44.0	97.100	-0.480	0.370	0.840
2020/01/31 22:09:44.1	97.100	-0.490	0.330	0.910
2020/01/31 22:09:44.2	97.100	-0.490	0.300	0.970
2020/01/31 22:09:44.3	97.100	-0.490	0.260	1.040
2020/01/31 22:09:44.4	97.100	-0.480	0.210	1.100
2020/01/31 22:09:44.5	97.100	-0.480	0.170	1.160
2020/01/31 22:09:44.6	97.100	-0.470	0.120	1.220
2020/01/31 22:09:44.7	97.100	-0.470	0.070	1.270
2020/01/31 22:09:44.8	97.100	-0.460	0.020	1.330
2020/01/31 22:09:44.9	97.100	-0.450	-0.030	1.370
2020/01/31 22:09:45.0	97.100	-0.440	-0.090	1.420
2020/01/31 22:09:45.1	97.100	-0.420	-0.140	1.460
2020/01/31 22:09:45.2	97.110	-0.410	-0.200	1.490
2020/01/31 22:09:45.3	97.110	-0.390	-0.260	1.530
2020/01/31 22:09:45.4	97.110	-0.380	-0.310	1.550
2020/01/31 22:09:45.5	97.110	-0.360	-0.370	1.580
2020/01/31 22:09:45.6	97.120	-0.340	-0.430	1.600
2020/01/31 22:09:45.7	97.120	-0.320	-0.480	1.610
2020/01/31 22:09:45.8	97.120	-0.300	-0.540	1.620
2020/01/31 22:09:45.9	97.130	-0.280	-0.590	1.630
2020/01/31 22:09:46.0	97.120	-0.260	-0.640	1.640
2020/01/31 22:09:46.1	97.130	-0.240	-0.690	1.640
2020/01/31 22:09:46.2	97.130	-0.220	-0.740	1.640
2020/01/31 22:09:46.3	97.130	-0.200	-0.780	1.630
2020/01/31 22:09:46.4	97.130	-0.180	-0.820	1.630
2020/01/31 22:09:46.5	97.130	-0.160	-0.860	1.620
2020/01/31 22:09:46.6	97.130	-0.140	-0.890	1.610
2020/01/31 22:09:46.7	97.130	-0.120	-0.920	1.600
2020/01/31 22:09:46.8	97.130	-0.100	-0.950	1.590
2020/01/31 22:09:46.9	97.120	-0.080	-0.970	1.580
2020/01/31 22:09:47.0	97.110	-0.060	-0.980	1.570
2020/01/31 22:09:47.1	97.110	-0.040	-0.990	1.550
2020/01/31 22:09:47.2	97.100	-0.020	-0.990	1.540
2020/01/31 22:09:47.3	97.100	-0.010	-0.990	1.530
2020/01/31 22:09:47.4	97.090	0.010	-0.980	1.510
2020/01/31 22:09:47.5	97.080	0.020	-0.970	1.500
2020/01/31 22:09:47.6	97.080	0.030	-0.950	1.490
2020/01/31 22:09:47.7	97.070	0.040	-0.930	1.470
2020/01/31 22:09:47.8	97.060	0.050	-0.900	1.460
2020/01/31 22:09:47.9	97.060	0.060	-0.870	1.440
2020/01/31 22:09:48.0	97.040	0.070	-0.830	1.430
2020/01/31 22:09:48.1	97.040	0.070	-0.780	1.410
2020/01/31 22:09:48.2	97.030	0.080	-0.730	1.390
2020/01/31 22:09:48.3	97.020	0.080	-0.680	1.380
2020/01/31 22:09:48.4	97.020	0.080	-0.620	1.360
2020/01/31 22:09:48.5	97.020	0.080	-0.560	1.340
2020/01/31 22:09:48.6	97.010	0.070	-0.500	1.310
2020/01/31 22:09:48.7	97.010	0.070	-0.430	1.290
2020/01/31 22:09:48.8	97.000	0.060	-0.360	1.260
2020/01/31 22:09:48.9	97.000	0.050	-0.290	1.240
2020/01/31 22:09:49.0	97.000	0.050	-0.220	1.210
2020/01/31 22:09:49.1	96.990	0.030	-0.150	1.180
2020/01/31 22:09:49.2	96.990	0.020	-0.070	1.150
2020/01/31 22:09:49.3	96.990	0.010	0.000	1.110
2020/01/31 22:09:49.4	96.990	-0.000	0.070	1.070
2020/01/31 22:09:49.5	96.980	-0.020	0.140	1.030
2020/01/31 22:09:49.6	96.980	-0.030	0.210	0.990
2020/01/31 22:09:49.7	96.980	-0.050	0.280	0.950
2020/01/31 22:09:49.8	96.980	-0.070	0.340	0.900
2020/01/31 22:09:49.9	96.980	-0.080	0.400	0.850
2020/01/31 22:09:50.0	96.970	-0.100	0.450	0.800
2020/01/31 22:09:50.1	96.970	-0.110	0.500	0.750
2020/01/31 22:09:50.2	96.970	-0.130	0.540	0.690
2020/01/31 22:09:50.3	96.970	-0.140	0.570	0.640
2020/01/31 22:09:50.4	96.960	-0.150	0.600	0.580
2020/01/31 22:09:50.5	96.960	-0.160	0.630	0.520
2020/01/31 22:09:50.6	96.960	-0.170	0.640	0.460
2020/01/31 22:09:50.7	96.960	-0.180	0.650	0.400
2020/01/31 22:09:50.8	96.950	-0.190	0.660	0.340
2020/01/31 22:09:50.9	96.950	-0.200	0.650	0.280
2020/01/31 22:09:51.0	96.960	-0.200	0.640	0.210
2020/01/31 22:09:51.1	96.960	-0.200	0.620	0.150
2020/01/31 22:09:51.2	96.960	-0.200	0.600	0.090
2020/01/31 22:09:51.3	96.960	-0.200	0.570	0.020
2020/01/31 22:09:51.4	96.960	-0.200	0.540	-0.040
2020/01/31 22:09:51.5	96.960	-0.200	0.500	-0.110
2020/01/31 22:09:51.6	96.960	-0.190	0.450	-0.170
2020/01/31 22:09:51.7	96.960	-0.180	0.400	-0.230
2020/01/31 22:09:51.8	96.960	-0.170	0.350	-0.290
2020/01/31 22:09:51.9	96.960	-0.160	0.300	-0.340
2020/01/31 22:09:52.0	96.970	-0.150	0.240	-0.400
2020/01/31 22:09:52.1	96.970	-0.130	0.180	-0.450
2020/01/31 22:09:52.2	96.970	-0.120	0.120	-0.500
2020/01/31 22:09:52.3	96.970	-0.100	0.060	-0.550
2020/01/31 22:09:52.4	96.970	-0.080	-0.010	-0.590
2020/01/31 22:09:52.5	96.970	-0.060	-0.070	-0.630
2020/01/31 22:09:52.6	96.970	-0.040	-0.130	-0.670
2020/01/31 22:09:52.7	96.960	-0.020	-0.190	-0.700
2020/01/31 22:09:52.8	96.960	-0.000	-0.250	-0.730
2020/01/31 22:09:52.9	96.960	0.020	-0.310	-0.750
2020/01/31 22:09:53.0	96.960	0.040	-0.360	-0.770
2020/01/31 22:09:53.1	96.960	0.060	-0.420	-0.800
2020/01/31 22:09:53.2	96.950	0.090	-0.470	-0.810
2020/01/31 22:09:53.3	96.950	0.110	-0.510	-0.830
2020/01/31 22:09:53.4	96.940	0.130	-0.550	-0.840
2020/01/31 22:09:53.5	96.940	0.150	-0.590	-0.850
2020/01/31 22:09:53.6	96.930	0.170	-0.620	-0.860
2020/01/31 22:09:53.7	96.920	0.190	-0.650	-0.860
2020/01/31 22:09:53.8	96.920	0.210	-0.680	-0.860
2020/01/31 22:09:53.9	96.910	0.220	-0.700	-0.860
2020/01/31 22:09:54.0	96.920	0.240	-0.710	-0.860
2020/01/31 22:09:54.1	96.910	0.250	-0.720	-0.860
2020/01/31 22:09:54.2	96.910	0.270	-0.730	-0.850
2020/01/31 22:09:54.3	96.900	0.280	-0.730	-0.840
2020/01/31 22:09:54.4	96.890	0.300	-0.730	-0.830
2020/01/31 22:09:54.5	96.890	0.310	-0.730	-0.820
2020/01/31 22:09:54.6	96.880	0.320	-0.720	-0.800
2020/01/31 22:09:54.7	96.880	0.330	-0.710	-0.780
2020/01/31 22:09:54.8	96.870	0.340	-0.700	-0.760
2020/01/31 22:09:54.9	96.870	0.350	-0.680	-0.740
2020/01/31 22:09:55.0	96.870	0.350	-0.660	-0.710
2020/01/31 22:09:55.1	96.860	0.360	-0.640	-0.690
2020/01/31 22:09:55.2	96.860	0.360	-0.610	-0.660
2020/01/31 22:09:55.3	96.850	0.370	-0.590	-0.620
2020/01/31 22:09:55.4	96.840	0.370	-0.560	-0.590
2020/01/31 22:09:55.5	96.830	0.380	-0.540	-0.550
2020/01/31 22:09:55.6	96.830	0.380	-0.510	-0.520
2020/01/31 22:09:55.7	96.820	0.380	-0.480	-0.480
2020/01/31 22:09:55.8	96.810	0.380	-0.460	-0.440
2020/01/31 22:09:55.9	96.800	0.380	-0.430	-0.390
2020/01/31 22:09:56.0	96.800	0.380	-0.410	-0.350
2020/01/31 22:09:56.1	96.790	0.380	-0.380	-0.310
2020/01/31 22:09:56.2	96.780	0.380	-0.360	-0.260
2020/01/31 22:09:56.3	96.780	0.380	-0.340	-0.210
2020/01/31 22:09:56.4	96.770	0.380	-0.320	-0.160
2020/01/31 22:09:56.5	96.770	0.380	-0.300	-0.120
2020/01/31 22:09:56.6	96.760	0.380	-0.280	-0.070
2020/01/31 22:09:56.7	96.760	0.370	-0.260	-0.010
2020/01/31 22:09:56.8	96.760	0.370	-0.250	0.040
2020/01/31 22:09:56.9	96.750	0.370	-0.230	0.090
2020/01/31 22:09:57.0	96.750	0.360	-0.210	0.140
2020/01/31 22:09:57.1	96.750	0.360	-0.200	0.200
2020/01/31 22:09:57.2	96.760	0.350	-0.200	0.250
2020/01/31 22:09:57.3	96.760	0.350	-0.190	0.300
2020/01/31 22:09:57.4	96.760	0.340	-0.180	0.360
2020/01/31 22:09:57.5	96.760	0.330	-0.170	0.410
2020/01/31 22:09:57.6	96.770	0.320	-0.170	0.470
2020/01/31 22:09:57.7	96.770	0.320	-0.160	0.530
2020/01/31 22:09:57.8	96.780	0.310	-0.160	0.590
2020/01/31 22:09:57.9	96.780	0.300	-0.150	0.650
2020/01/31 22:09:58.0	96.790	0.280	-0.150	0.710
2020/01/31 22:09:58.1	96.790	0.270	-0.140	0.770
2020/01/31 22:09:58.2	96.800	0.260	-0.140	0.830
2020/01/31 22:09:58.3	96.800	0.240	-0.130	0.900
2020/01/31 22:09:58.4	96.810	0.230	-0.120	0.960
2020/01/31 22:09:58.5	96.810	0.210	-0.110	1.030
2020/01/31 22:09:58.6	96.820	0.190	-0.100	1.090
2020/01/31 22:09:58.7	96.820	0.170	-0.080	1.160
2020/01/31 22:09:58.8	96.820	0.150	-0.070	1.220
2020/01/31 22:09:58.9	96.820	0.130	-0.050	1.280
2020/01/31 22:09:59.0	96.820	0.100	-0.030	1.350
2020/01/31 22:09:59.1	96.820	0.080	-0.020	1.410
2020/01/31 22:09:59.2	96.820	0.050	0.000	1.470
2020/01/31 22:09:59.3	96.820	0.020	0.020	1.530
2020/01/31 22:09:59.4	96.820	-0.010	0.040	1.580
2020/01/31 22:09:59.5	96.830	-0.030	0.060	1.630
2020/01/31 22:09:59.6	96.830	-0.060	0.080	1.680
2020/01/31 22:09:59.7	96.830	-0.100	0.100	1.720
2020/01/31 22:09:59.8	96.830	-0.130	0.120	1.760
2020/01/31 22:09:59.9	96.830	-0.160	0.140	1.800
2020/01/31 22:10:00.0	96.830	-0.190	0.160	1.830
2020/01/31 22:10:00.1	96.830	-0.220	0.180	1.860
2020/01/31 22:10:00.2	96.830	-0.250	0.200	1.880
2020/01/31 22:10:00.3	96.830	-0.280	0.210	1.900
2020/01/31 22:10:00.4	96.830	-0.310	0.220	1.920
2020/01/31 22:10:00.5	96.830	-0.340	0.240	1.930
2020/01/31 22:10:00.6	96.820	-0.360	0.250	1.940
2020/01/31 22:10:00.7	96.820	-0.390	0.260	1.940
2020/01/31 22:10:00.8	96.820	-0.410	0.260	1.940
2020/01/31 22:10:00.9	96.810	-0.430	0.270	1.940
2020/01/31 22:10:01.0	96.810	-0.450	0.270	1.930
2020/01/31 22:10:01.1	96.810	-0.470	0.270	1.920
2020/01/31 22:10:01.2	96.800	-0.490	0.260	1.910
2020/01/31 22:10:01.3	96.800	-0.500	0.260	1.890
2020/01/31 22:10:01.4	96.790	-0.510	0.250	1.880
2020/01/31 22:10:01.5	96.790	-0.520	0.240	1.860
2020/01/31 22:10:01.6	96.780	-0.530	0.230	1.830
2020/01/31 22:10:01.7	96.770	-0.530	0.210	1.810
2020/01/31 22:10:01.8	96.770	-0.530	0.200	1.790
2020/01/31 22:10:01.9	96.760	-0.530	0.180	1.760
2020/01/31 22:10:02.0	96.750	-0.520	0.160	1.730
2020/01/31 22:10:02.1	96.750	-0.520	0.140	1.700
2020/01/31 22:10:02.2	96.750	-0.510	0.110	1.670
2020/01/31 22:10:02.3	96.750	-0.490	0.090	1.630
2020/01/31 22:10:02.4	96.740	-0.480	0.060	1.600
2020/01/31 22:10:02.5	96.740	-0.460	0.030	1.560
2020/01/31 22:10:02.6	96.750	-0.440	-0.000	1.530
2020/01/31 22:10:02.7	96.750	-0.410	-0.040	1.490
2020/01/31 22:10:02.8	96.750	-0.390	-0.070	1.450
2020/01/31 22:10:02.9	96.750	-0.360	-0.110	1.410
2020/01/31 22:10:03.0	96.760	-0.330	-0.140	1.360
2020/01/31 22:10:03.1	96.770	-0.300	-0.180	1.320
2020/01/31 22:10:03.2	96.770	-0.270	-0.220	1.280
2020/01/31 22:10:03.3	96.780	-0.240	-0.260	1.240
2020/01/31 22:10:03.4	96.780	-0.210	-0.300	1.190
2020/01/31 22:10:03.5	96.790	-0.170	-0.340	1.150
2020/01/31 22:10:03.6	96.790	-0.140	-0.380	1.110
2020/01/31 22:10:03.7	96.800	-0.110	-0.410	1.060
2020/01/31 22:10:03.8	96.800	-0.080	-0.450	1.020
2020/01/31 22:10:03.9	96.800	-0.050	-0.480	0.970
2020/01/31 22:10:04.0	96.800	-0.020	-0.520	0.930
2020/01/31 22:10:04.1	96.800	0.010	-0.550	0.890
2020/01/31 22:10:04.2	96.790	0.030	-0.570	0.840
2020/01/31 22:10:04.3	96.790	0.050	-0.600	0.800
2020/01/31 22:10:04.4	96.780	0.070	-0.620	0.750
2020/01/31 22:10:04.5	96.770	0.090	-0.630	0.710
2020/01/31 22:10:04.6	96.760	0.110	-0.650	0.660
2020/01/31 22:10:04.7	96.750	0.120	-0.660	0.610
2020/01/31 22:10:04.8	96.740	0.120	-0.660	0.570
2020/01/31 22:10:04.9	96.720	0.130	-0.660	0.520
2020/01/31 22:10:05.0	96.700	0.130	-0.650	0.460
2020/01/31 22:10:05.1	96.680	0.130	-0.640	0.410
2020/01/31 22:10:05.2	96.670	0.120	-0.630	0.360
2020/01/31 22:10:05.3	96.650	0.120	-0.610	0.310
2020/01/31 22:10:05.4	96.620	0.100	-0.590	0.250
2020/01/31 22:10:05.5	96.600	0.090	-0.560	0.200
2020/01/31 22:10:05.6	96.580	0.080	-0.530	0.150
2020/01/31 22:10:05.7	96.560	0.060	-0.500	0.090
2020/01/31 22:10:05.8	96.530	0.040	-0.470	0.040
2020/01/31 22:10:05.9	96.510	0.020	-0.430	-0.010
2020/01/31 22:10:06.0	96.480	-0.010	-0.400	-0.070
2020/01/31 22:10:06.1	96.460	-0.030	-0.360	-0.120
2020/01/31 22:10:06.2	96.440	-0.050	-0.320	-0.170
2020/01/31 22:10:06.3	96.420	-0.080	-0.280	-0.220
2020/01/31 22:10:06.4	96.400	-0.100	-0.240	-0.260
2020/01/31 22:10:06.5	96.380	-0.120	-0.200	-0.310
2020/01/31 22:10:06.6	96.360	-0.140	-0.160	-0.360
2020/01/31 22:10:06.7	96.340	-0.160	-0.120	-0.400
2020/01/31 22:10:06.8	96.330	-0.180	-0.090	-0.440
2020/01/31 22:10:06.9	96.320	-0.200	-0.060	-0.480
2020/01/31 22:10:07.0	96.310	-0.210	-0.020	-0.520
2020/01/31 22:10:07.1	96.300	-0.220	0.000	-0.560
2020/01/31 22:10:07.2	96.290	-0.230	0.020	-0.600
2020/01/31 22:10:07.3	96.290	-0.240	0.040	-0.630
2020/01/31 22:10:07.4	96.290	-0.240	0.050	-0.660
2020/01/31 22:10:07.5	96.290	-0.240	0.060	-0.690
2020/01/31 22:10:07.6	96.290	-0.230	0.060	-0.720
2020/01/31 22:10:07.7	96.300	-0.220	0.060	-0.740
2020/01/31 22:10:07.8	96.310	-0.210	0.060	-0.760
2020/01/31 22:10:07.9	96.320	-0.190	0.040	-0.780
2020/01/31 22:10:08.0	96.330	-0.170	0.030	-0.800
2020/01/31 22:10:08.1	96.340	-0.150	0.010	-0.820
2020/01/31 22:10:08.2	96.360	-0.120	-0.020	-0.830
2020/01/31 22:10:08.3	96.380	-0.090	-0.050	-0.840
2020/01/31 22:10:08.4	96.390	-0.060	-0.080	-0.850
2020/01/31 22:10:08.5	96.410	-0.030	-0.110	-0.860
2020/01/31 22:10:08.6	96.430	0.010	-0.150	-0.870
2020/01/31 22:10:08.7	96.450	0.040	-0.190	-0.870
2020/01/31 22:10:08.8	96.470	0.080	-0.230	-0.870
2020/01/31 22:10:08.9	96.490	0.120	-0.270	-0.870
2020/01/31 22:10:09.0	96.510	0.160	-0.310	-0.870
2020/01/31 22:10:09.1	96.530	0.200	-0.350	-0.870
2020/01/31 22:10:09.2	96.550	0.240	-0.390	-0.860
2020/01/31 22:10:09.3	96.560	0.270	-0.420	-0.850
2020/01/31 22:10:09.4	96.580	0.310	-0.460	-0.840
2020/01/31 22:10:09.5	96.600	0.350	-0.490	-0.830
2020/01/31 22:10:09.6	96.610	0.380	-0.520	-0.810
2020/01/31 22:10:09.7	96.620	0.410	-0.540	-0.790
2020/01/31 22:10:09.8	96.630	0.440	-0.560	-0.770
2020/01/31 22:10:09.9	96.640	0.460	-0.580	-0.750
2020/01/31 22:10:10.0	96.650	0.480	-0.590	-0.720
2020/01/31 22:10:10.1	96.660	0.500	-0.590	-0.690
2020/01/31 22:10:10.2	96.660	0.520	-0.590	-0.660
2020/01/31 22:10:10.3	96.660	0.530	-0.590	-0.620
2020/01/31 22:10:10.4	96.660	0.540	-0.570	-0.590
2020/01/31 22:10:10.5	96.650	0.540	-0.560	-0.550
2020/01/31 22:10:10.6	96.650	0.540	-0.530	-0.500
2020/01/31 22:10:10.7	96.640	0.540	-0.500	-0.460
2020/01/31 22:10:10.8	96.630	0.530	-0.470	-0.420
2020/01/31 22:10:10.9	96.620	0.510	-0.430	-0.370
2020/01/31 22:10:11.0	96.610	0.500	-0.380	-0.320
2020/01/31 22:10:11.1	96.590	0.480	-0.330	-0.270
2020/01/31 22:10:11.2	96.570	0.450	-0.280	-0.210
2020/01/31 22:10:11.3	96.550	0.420	-0.220	-0.160
2020/01/31 22:10:11.4	96.530	0.390	-0.160	-0.100
2020/01/31 22:10:11.5	96.510	0.360	-0.100	-0.040
2020/01/31 22:10:11.6	96.490	0.320	-0.040	0.020
2020/01/31 22:10:11.7	96.470	0.290	0.030	0.090
2020/01/31 22:10:11.8	96.440	0.250	0.090	0.150
2020/01/31 22:10:11.9	96.420	0.200	0.150	0.220
2020/01/31 22:10:12.0	96.400	0.160	0.210	0.290
2020/01/31 22:10:12.1	96.370	0.120	0.270	0.350
2020/01/31 22:10:12.2	96.350	0.080	0.320	0.420
2020/01/31 22:10:12.3	96.320	0.030	0.380	0.490
2020/01/31 22:10:12.4	96.290	-0.010	0.430	0.570
2020/01/31 22:10:12.5	96.270	-0.050	0.470	0.640
2020/01/31 22:10:12.6	96.240	-0.090	0.510	0.710
2020/01/31 22:10:12.7	96.220	-0.130	0.550	0.780
2020/01/31 22:10:12.8	96.190	-0.170	0.580	0.850
2020/01/31 22:10:12.9	96.170	-0.210	0.600	0.920
2020/01/31 22:10:13.0	96.150	-0.240	0.620	0.990
2020/01/31 22:10:13.1	96.130	-0.270	0.640	1.050
2020/01/31 22:10:13.2	96.110	-0.300	0.640	1.120
2020/01/31 22:10:13.3	96.090	-0.320	0.640	1.180
2020/01/31 22:10:13.4	96.070	-0.340	0.630	1.240
2020/01/31 22:10:13.5	96.050	-0.360	0.620	1.300
2020/01/31 22:10:13.6	96.040	-0.370	0.590	1.360
2020/01/31 22:10:13.7	96.030	-0.380	0.570	1.410
2020/01/31 22:10:13.8	96.020	-0.390	0.530	1.460
2020/01/31 22:10:13.9	96.010	-0.390	0.490	1.500
2020/01/31 22:10:14.0	96.010	-0.390	0.440	1.550
2020/01/31 22:10:14.1	96.010	-0.390	0.390	1.590
2020/01/31 22:10:14.2	96.010	-0.380	0.330	1.620
2020/01/31 22:10:14.3	96.010	-0.370	0.270	1.650
2020/01/31 22:10:14.4	96.020	-0.360	0.210	1.680
2020/01/31 22:10:14.5	96.030	-0.340	0.140	1.700
2020/01/31 22:10:14.6	96.040	-0.320	0.060	1.720
2020/01/31 22:10:14.7	96.050	-0.300	-0.010	1.740
2020/01/31 22:10:14.8	96.070	-0.270	-0.090	1.750
2020/01/31 22:10:14.9	96.080	-0.250	-0.170	1.760
2020/01/31 22:10:15.0	96.100	-0.220	-0.240	1.770
2020/01/31 22:10:15.1	96.120	-0.190	-0.320	1.770
2020/01/31 22:10:15.2	96.140	-0.150	-0.400	1.760
2020/01/31 22:10:15.3	96.170	-0.120	-0.480	1.760
2020/01/31 22:10:15.4	96.190	-0.080	-0.550	1.750
2020/01/31 22:10:15.5	96.220	-0.050	-0.630	1.740
2020/01/31 22:10:15.6	96.240	-0.010	-0.700	1.720
2020/01/31 22:10:15.7	96.270	0.030	-0.760	1.710
2020/01/31 22:10:15.8	96.300	0.060	-0.830	1.690
2020/01/31 22:10:15.9	96.320	0.100	-0.890	1.670
2020/01/31 22:10:16.0	96.350	0.140	-0.940	1.640
2020/01/31 22:10:16.1	96.380	0.170	-0.990	1.610
2020/01/31 22:10:16.2	96.410	0.210	-1.030	1.590
2020/01/31 22:10:16.3	96.430	0.240	-1.070	1.560
2020/01/31 22:10:16.4	96.460	0.270	-1.100	1.530
2020/01/31 22:10:16.5	96.480	0.300	-1.130	1.500
2020/01/31 22:10:16.6	96.500	0.330	-1.150	1.470
2020/01/31 22:10:16.7	96.530	0.360	-1.160	1.440
2020/01/31 22:10:16.8	96.550	0.380	-1.160	1.410
2020/01/31 22:10:16.9	96.570	0.400	-1.160	1.380
2020/01/31 22:10:17.0	96.580	0.420	-1.140	1.350
2020/01/31 22:10:17.1	96.600	0.440	-1.120	1.320
2020/01/31 22:10:17.2	96.610	0.450	-1.100	1.290
2020/01/31 22:10:17.3	96.630	0.460	-1.070	1.250
2020/01/31 22:10:17.4	96.640	0.460	-1.030	1.230
2020/01/31 22:10:17.5	96.650	0.460	-0.980	1.200
2020/01/31 22:10:17.6	96.660	0.460	-0.930	1.170
2020/01/31 22:10:17.7	96.660	0.460	-0.870	1.140
2020/01/31 22:10:17.8	96.660	0.450	-0.800	1.110
2020/01/31 22:10:17.9	96.660	0.430	-0.730	1.090
2020/01/31 22:10:18.0	96.650	0.420	-0.660	1.060
2020/01/31 22:10:18.1	96.650	0.390	-0.580	1.040
2020/01/31 22:10:18.2	96.640	0.370	-0.490	1.020
2020/01/31 22:10:18.3	96.630	0.340	-0.400	1.000
2020/01/31 22:10:18.4	96.610	0.310	-0.310	0.980
2020/01/31 22:10:18.5	96.590	0.280	-0.220	0.960
2020/01/31 22:10:18.6	96.570	0.240	-0.130	0.940
2020/01/31 22:10:18.7	96.550	0.200	-0.030	0.920
2020/01/31 22:10:18.8	96.520	0.160	0.060	0.910
2020/01/31 22:10:18.9	96.490	0.110	0.160	0.890
2020/01/31 22:10:19.0	96.460	0.070	0.250	0.870
2020/01/31 22:10:19.1	96.430	0.020	0.340	0.850
2020/01/31 22:10:19.2	96.390	-0.030	0.430	0.840
2020/01/31 22:10:19.3	96.350	-0.080	0.510	0.820
2020/01/31 22:10:19.4	96.310	-0.130	0.590	0.800
2020/01/31 22:10:19.5	96.280	-0.180	0.670	0.780
2020/01/31 22:10:19.6	96.240	-0.230	0.730	0.760
2020/01/31 22:10:19.7	96.200	-0.280	0.790	0.740
2020/01/31 22:10:19.8	96.150	-0.330	0.850	0.720
2020/01/31 22:10:19.9	96.110	-0.380	0.900	0.700
2020/01/31 22:10:20.0	96.070	-0.430	0.930	0.670
2020/01/31 22:10:20.1	96.030	-0.480	0.960	0.640
2020/01/31 22:10:20.2	95.990	-0.520	0.990	0.610
2020/01/31 22:10:20.3	95.960	-0.560	1.000	0.580
2020/01/31 22:10:20.4	95.920	-0.600	1.000	0.550
2020/01/31 22:10:20.5	95.890	-0.630	0.990	0.510
2020/01/31 22:10:20.6	95.860	-0.670	0.980	0.480
2020/01/31 22:10:20.7	95.830	-0.700	0.960	0.440
2020/01/31 22:10:20.8	95.800	-0.720	0.920	0.400
2020/01/31 22:10:20.9	95.780	-0.740	0.880	0.360
2020/01/31 22:10:21.0	95.750	-0.760	0.830	0.320
2020/01/31 22:10:21.1	95.730	-0.770	0.770	0.280
2020/01/31 22:10:21.2	95.710	-0.780	0.710	0.230
2020/01/31 22:10:21.3	95.690	-0.790	0.640	0.190
2020/01/31 22:10:21.4	95.680	-0.790	0.560	0.150
2020/01/31 22:10:21.5	95.660	-0.780	0.480	0.110
2020/01/31 22:10:21.6	95.650	-0.770	0.390	0.060
2020/01/31 22:10:21.7	95.640	-0.760	0.300	0.020
2020/01/31 22:10:21.8	95.630	-0.740	0.200	-0.030
2020/01/31 22:10:21.9	95.620	-0.720	0.100	-0.070
2020/01/31 22:10:22.0	95.620	-0.700	0.010	-0.120
2020/01/31 22:10:22.1	95.610	-0.670	-0.090	-0.160
2020/01/31 22:10:22.2	95.610	-0.630	-0.190	-0.200
2020/01/31 22:10:22.3	95.610	-0.600	-0.290	-0.250
2020/01/31 22:10:22.4	95.610	-0.560	-0.390	-0.290
2020/01/31 22:10:22.5	95.620	-0.520	-0.490	-0.340
2020/01/31 22:10:22.6	95.620	-0.470	-0.580	-0.380
2020/01/31 22:10:22.7	95.630	-0.430	-0.670	-0.420
2020/01/31 22:10:22.8	95.630	-0.380	-0.760	-0.470
2020/01/31 22:10:22.9	95.640	-0.330	-0.840	-0.510
2020/01/31 22:10:23.0	95.650	-0.280	-0.920	-0.550
2020/01/31 22:10:23.1	95.660	-0.230	-0.990	-0.590
2020/01/31 22:10:23.2	95.670	-0.180	-1.060	-0.640
2020/01/31 22:10:23.3	95.680	-0.130	-1.120	-0.680
2020/01/31 22:10:23.4	95.690	-0.080	-1.170	-0.720
2020/01/31 22:10:23.5	95.710	-0.020	-1.210	-0.750
2020/01/31 22:10:23.6	95.720	0.030	-1.250	-0.790
2020/01/31 22:10:23.7	95.740	0.070	-1.280	-0.830
2020/01/31 22:10:23.8	95.760	0.120	-1.300	-0.860
2020/01/31 22:10:23.9	95.780	0.170	-1.320	-0.900
2020/01/31 22:10:24.0	95.790	0.210	-1.330	-0.930
2020/01/31 22:10:24.1	95.810	0.250	-1.330	-0.960
2020/01/31 22:10:24.2	95.830	0.290	-1.320	-0.990
2020/01/31 22:10:24.3	95.850	0.330	-1.310	-1.010
2020/01/31 22:10:24.4	95.880	0.370	-1.280	-1.030
2020/01/31 22:10:24.5	95.900	0.400	-1.260	-1.050
2020/01/31 22:10:24.6	95.920	0.430	-1.220	-1.070
2020/01/31 22:10:24.7	95.940	0.460	-1.180	-1.080
2020/01/31 22:10:24.8	95.960	0.480	-1.130	-1.090
2020/01/31 22:10:24.9	95.980	0.510	-1.080	-1.090
2020/01/31 22:10:25.0	96.000	0.520	-1.020	-1.090
2020/01/31 22:10:25.1	96.020	0.540	-0.960	-1.080
2020/01/31 22:10:25.2	96.030	0.560	-0.900	-1.070
2020/01/31 22:10:25.3	96.050	0.570	-0.830	-1.060
2020/01/31 22:10:25.4	96.060	0.580	-0.770	-1.040
2020/01/31 22:10:25.5	96.070	0.580	-0.690	-1.010
2020/01/31 22:10:25.6	96.080	0.590	-0.620	-0.980
2020/01/31 22:10:25.7	96.090	0.590	-0.550	-0.940
2020/01/31 22:10:25.8	96.100	0.590	-0.470	-0.900
2020/01/31 22:10:25.9	96.100	0.590	-0.400	-0.860
2020/01/31 22:10:26.0	96.100	0.580	-0.320	-0.800
2020/01/31 22:10:26.1	96.100	0.580	-0.250	-0.750
2020/01/31 22:10:26.2	96.100	0.570	-0.180	-0.690
2020/01/31 22:10:26.3	96.090	0.560	-0.100	-0.630
2020/01/31 22:10:26.4	96.090	0.550	-0.030	-0.560
2020/01/31 22:10:26.5	96.080	0.530	0.030	-0.490
2020/01/31 22:10:26.6	96.070	0.520	0.100	-0.410
2020/01/31 22:10:26.7	96.060	0.500	0.170	-0.340
2020/01/31 22:10:26.8	96.050	0.480	0.230	-0.260
2020/01/31 22:10:26.9	96.040	0.460	0.290	-0.180
2020/01/31 22:10:27.0	96.030	0.440	0.350	-0.090
2020/01/31 22:10:27.1	96.010	0.420	0.400	-0.010
2020/01/31 22:10:27.2	95.990	0.400	0.460	0.080
2020/01/31 22:10:27.3	95.980	0.370	0.500	0.170
2020/01/31 22:10:27.4	95.960	0.350	0.550	0.250
2020/01/31 22:10:27.5	95.940	0.320	0.600	0.340
2020/01/31 22:10:27.6	95.910	0.300	0.640	0.430
2020/01/31 22:10:27.7	95.890	0.270	0.670	0.520
2020/01/31 22:10:27.8	95.870	0.240	0.710	0.600
2020/01/31 22:10:27.9	95.850	0.210	0.740	0.690
2020/01/31 22:10:28.0	95.830	0.180	0.770	0.770
2020/01/31 22:10:28.1	95.800	0.150	0.790	0.860
2020/01/31 22:10:28.2	95.780	0.120	0.810	0.940
2020/01/31 22:10:28.3	95.760	0.090	0.820	1.020
2020/01/31 22:10:28.4	95.730	0.060	0.830	1.090
2020/01/31 22:10:28.5	95.710	0.030	0.840	1.170
2020/01/31 22:10:28.6	95.680	0.000	0.840	1.240
2020/01/31 22:10:28.7	95.660	-0.030	0.840	1.310
2020/01/31 22:10:28.8	95.640	-0.060	0.830	1.370
2020/01/31 22:10:28.9	95.620	-0.090	0.820	1.430
2020/01/31 22:10:29.0	95.600	-0.120	0.800	1.490
2020/01/31 22:10:29.1	95.580	-0.150	0.780	1.550
2020/01/31 22:10:29.2	95.560	-0.180	0.750	1.600
2020/01/31 22:10:29.3	95.550	-0.200	0.720	1.640
2020/01/31 22:10:29.4	95.530	-0.230	0.680	1.690
2020/01/31 22:10:29.5	95.510	-0.260	0.640	1.730
2020/01/31 22:10:29.6	95.490	-0.280	0.590	1.760
2020/01/31 22:10:29.7	95.480	-0.300	0.540	1.790
2020/01/31 22:10:29.8	95.470	-0.320	0.480	1.820
2020/01/31 22:10:29.9	95.460	-0.340	0.430	1.850
2020/01/31 22:10:30.0	95.450	-0.360	0.360	1.870
2020/01/31 22:10:30.1	95.440	-0.380	0.300	1.890
2020/01/31 22:10:30.2	95.430	-0.390	0.230	1.900
2020/01/31 22:10:30.3	95.420	-0.410	0.160	1.920
2020/01/31 22:10:30.4	95.420	-0.420	0.090	1.930
2020/01/31 22:10:30.5	95.420	-0.430	0.020	1.940
2020/01/31 22:10:30.6	95.410	-0.440	-0.050	1.950
2020/01/31 22:10:30.7	95.410	-0.440	-0.130	1.960
2020/01/31 22:10:30.8	95.420	-0.450	-0.200	1.970
2020/01/31 22:10:30.9	95.420	-0.450	-0.270	1.970
2020/01/31 22:10:31.0	95.420	-0.450	-0.340	1.980
2020/01/31 22:10:31.1	95.430	-0.440	-0.420	1.980
2020/01/31 22:10:31.2	95.430	-0.440	-0.490	1.980
2020/01/31 22:10:31.3	95.440	-0.430	-0.560	1.980
2020/01/31 22:10:31.4	95.450	-0.420	-0.630	1.970
2020/01/31 22:10:31.5	95.460	-0.400	-0.700	1.970
2020/01/31 22:10:31.6	95.470	-0.390	-0.760	1.960
2020/01/31 22:10:31.7	95.480	-0.370	-0.820	1.950
2020/01/31 22:10:31.8	95.500	-0.350	-0.890	1.940
2020/01/31 22:10:31.9	95.510	-0.330	-0.950	1.920
2020/01/31 22:10:32.0	95.530	-0.300	-1.000	1.900
2020/01/31 22:10:32.1	95.540	-0.270	-1.050	1.870
2020/01/31 22:10:32.2	95.560	-0.240	-1.100	1.850
2020/01/31 22:10:32.3	95.580	-0.210	-1.150	1.820
2020/01/31 22:10:32.4	95.600	-0.170	-1.190	1.780
2020/01/31 22:10:32.5	95.620	-0.140	-1.230	1.740
2020/01/31 22:10:32.6	95.640	-0.100	-1.270	1.700
2020/01/31 22:10:32.7	95.660	-0.060	-1.300	1.650
2020/01/31 22:10:32.8	95.690	-0.010	-1.330	1.600
2020/01/31 22:10:32.9	95.710	0.030	-1.350	1.550
2020/01/31 22:10:33.0	95.730	0.080	-1.360	1.490
2020/01/31 22:10:33.1	95.750	0.120	-1.370	1.430
2020/01/31 22:10:33.2	95.780	0.170	-1.380	1.370
2020/01/31 22:10:33.3	95.800	0.210	-1.380	1.310
2020/01/31 22:10:33.4	95.830	0.260	-1.370	1.250
2020/01/31 22:10:33.5	95.850	0.300	-1.360	1.180
2020/01/31 22:10:33.6	95.880	0.340	-1.340	1.110
2020/01/31 22:10:33.7	95.900	0.390	-1.320	1.050
2020/01/31 22:10:33.8	95.920	0.430	-1.290	0.980
2020/01/31 22:10:33.9	95.940	0.460	-1.250	0.920
2020/01/31 22:10:34.0	95.950	0.500	-1.200	0.850
2020/01/31 22:10:34.1	95.970	0.530	-1.150	0.790
2020/01/31 22:10:34.2	95.980	0.550	-1.090	0.730
2020/01/31 22:10:34.3	95.990	0.580	-1.030	0.680
2020/01/31 22:10:34.4	96.000	0.590	-0.950	0.620
2020/01/31 22:10:34.5	96.000	0.610	-0.880	0.570
2020/01/31 22:10:34.6	96.000	0.620	-0.790	0.520
2020/01/31 22:10:34.7	96.000	0.620	-0.710	0.470
2020/01/31 22:10:34.8	96.000	0.620	-0.610	0.430
2020/01/31 22:10:34.9	95.990	0.610	-0.510	0.390
2020/01/31 22:10:35.0	95.970	0.600	-0.410	0.360
2020/01/31 22:10:35.1	95.960	0.580	-0.310	0.320
2020/01/31 22:10:35.2	95.940	0.560	-0.200	0.300
2020/01/31 22:10:35.3	95.920	0.530	-0.090	0.270
2020/01/31 22:10:35.4	95.900	0.490	0.020	0.250
2020/01/31 22:10:35.5	95.870	0.460	0.130	0.230
2020/01/31 22:10:35.6	95.840	0.410	0.240	0.220
2020/01/31 22:10:35.7	95.810	0.370	0.350	0.200
2020/01/31 22:10:35.8	95.780	0.310	0.460	0.190
2020/01/31 22:10:35.9	95.740	0.260	0.560	0.180
2020/01/31 22:10:36.0	95.710	0.200	0.670	0.170
2020/01/31 22:10:36.1	95.670	0.140	0.770	0.170
2020/01/31 22:10:36.2	95.640	0.070	0.860	0.160
2020/01/31 22:10:36.3	95.600	0.010	0.940	0.160
2020/01/31 22:10:36.4	95.560	-0.060	1.020	0.160
2020/01/31 22:10:36.5	95.510	-0.120	1.090	0.150
2020/01/31 22:10:36.6	95.480	-0.190	1.160	0.150
2020/01/31 22:10:36.7	95.440	-0.260	1.210	0.150
2020/01/31 22:10:36.8	95.400	-0.330	1.260	0.140
2020/01/31 22:10:36.9	95.360	-0.390	1.290	0.130
2020/01/31 22:10:37.0	95.330	-0.450	1.320	0.120
2020/01/31 22:10:37.1	95.300	-0.510	1.340	0.100
2020/01/31 22:10:37.2	95.270	-0.570	1.350	0.090
2020/01/31 22:10:37.3	95.240	-0.630	1.340	0.070
2020/01/31 22:10:37.4	95.220	-0.680	1.330	0.050
2020/01/31 22:10:37.5	95.190	-0.720	1.310	0.020
2020/01/31 22:10:37.6	95.170	-0.760	1.280	-0.010
2020/01/31 22:10:37.7	95.160	-0.800	1.230	-0.040
2020/01/31 22:10:37.8	95.140	-0.830	1.180	-0.070
2020/01/31 22:10:37.9	95.130	-0.850	1.120	-0.110
2020/01/31 22:10:38.0	95.120	-0.870	1.050	-0.150
2020/01/31 22:10:38.1	95.110	-0.890	0.980	-0.190
2020/01/31 22:10:38.2	95.100	-0.890	0.890	-0.230
2020/01/31 22:10:38.3	95.100	-0.890	0.800	-0.280
2020/01/31 22:10:38.4	95.100	-0.890	0.700	-0.320
2020/01/31 22:10:38.5	95.100	-0.880	0.600	-0.370
2020/01/31 22:10:38.6	95.100	-0.860	0.490	-0.410
2020/01/31 22:10:38.7	95.110	-0.840	0.380	-0.460
2020/01/31 22:10:38.8	95.110	-0.810	0.270	-0.500
2020/01/31 22:10:38.9	95.120	-0.780	0.150	-0.550
2020/01/31 22:10:39.0	95.120	-0.740	0.030	-0.590
2020/01/31 22:10:39.1	95.130	-0.700	-0.090	-0.630
2020/01/31 22:10:39.2	95.140	-0.660	-0.200	-0.670
2020/01/31 22:10:39.3	95.150	-0.610	-0.320	-0.710
2020/01/31 22:10:39.4	95.160	-0.550	-0.430	-0.740
2020/01/31 22:10:39.5	95.170	-0.500	-0.540	-0.770
2020/01/31 22:10:39.6	95.180	-0.440	-0.650	-0.800
2020/01/31 22:10:39.7	95.190	-0.380	-0.750	-0.820
2020/01/31 22:10:39.8	95.210	-0.320	-0.850	-0.840
2020/01/31 22:10:39.9	95.220	-0.260	-0.940	-0.860
2020/01/31 22:10:40.0	95.230	-0.200	-1.020	-0.870
2020/01/31 22:10:40.1	95.240	-0.140	-1.100	-0.880
2020/01/31 22:10:40.2	95.250	-0.080	-1.170	-0.890
2020/01/31 22:10:40.3	95.260	-0.010	-1.230	-0.900
2020/01/31 22:10:40.4	95.280	0.040	-1.290	-0.900
2020/01/31 22:10:40.5	95.290	0.100	-1.330	-0.900
2020/01/31 22:10:40.6	95.300	0.160	-1.370	-0.890
2020/01/31 22:10:40.7	95.310	0.210	-1.400	-0.880
2020/01/31 22:10:40.8	95.320	0.270	-1.420	-0.870
2020/01/31 22:10:40.9	95.330	0.310	-1.430	-0.860
2020/01/31 22:10:41.0	95.340	0.360	-1.440	-0.850
2020/01/31 22:10:41.1	95.350	0.400	-1.430	-0.830
2020/01/31 22:10:41.2	95.360	0.440	-1.420	-0.810
2020/01/31 22:10:41.3	95.370	0.480	-1.400	-0.780
2020/01/31 22:10:41.4	95.380	0.520	-1.380	-0.760
2020/01/31 22:10:41.5	95.390	0.550	-1.340	-0.730
2020/01/31 22:10:41.6	95.400	0.570	-1.310	-0.700
2020/01/31 22:10:41.7	95.410	0.600	-1.260	-0.670
2020/01/31 22:10:41.8	95.430	0.620	-1.210	-0.640
2020/01/31 22:10:41.9	95.440	0.630	-1.160	-0.600
2020/01/31 22:10:42.0	95.450	0.650	-1.100	-0.560
2020/01/31 22:10:42.1	95.460	0.660	-1.040	-0.520
2020/01/31 22:10:42.2	95.470	0.670	-0.980	-0.480
2020/01/31 22:10:42.3	95.480	0.670	-0.910	-0.440
2020/01/31 22:10:42.4	95.490	0.680	-0.850	-0.400
2020/01/31 22:10:42.5	95.500	0.670	-0.780	-0.350
2020/01/31 22:10:42.6	95.510	0.670	-0.710	-0.300
2020/01/31 22:10:42.7	95.520	0.670	-0.640	-0.250
2020/01/31 22:10:42.8	95.530	0.660	-0.570	-0.200
2020/01/31 22:10:42.9	95.530	0.650	-0.500	-0.150
2020/01/31 22:10:43.0	95.540	0.640	-0.430	-0.100
2020/01/31 22:10:43.1	95.540	0.630	-0.360	-0.040
2020/01/31 22:10:43.2	95.540	0.610	-0.300	0.020
2020/01/31 22:10:43.3	95.540	0.600	-0.230	0.090
2020/01/31 22:10:43.4	95.530	0.580	-0.160	0.150
2020/01/31 22:10:43.5	95.530	0.560	-0.090	0.220
2020/01/31 22:10:43.6	95.520	0.540	-0.030	0.290
2020/01/31 22:10:43.7	95.510	0.510	0.030	0.370
2020/01/31 22:10:43.8	95.500	0.490	0.090	0.440
2020/01/31 22:10:43.9	95.490	0.460	0.150	0.520
2020/01/31 22:10:44.0	95.480	0.440	0.220	0.600
2020/01/31 22:10:44.1	95.460	0.410	0.270	0.670
2020/01/31 22:10:44.2	95.440	0.380	0.330	0.750
2020/01/31 22:10:44.3	95.420	0.350	0.380	0.830
2020/01/31 22:10:44.4	95.400	0.320	0.430	0.910
2020/01/31 22:10:44.5	95.370	0.280	0.480	0.990
2020/01/31 22:10:44.6	95.350	0.250	0.520	1.070
2020/01/31 22:10:44.7	95.320	0.210	0.570	1.150
2020/01/31 22:10:44.8	95.290	0.180	0.610	1.230
2020/01/31 22:10:44.9	95.270	0.140	0.640	1.310
2020/01/31 22:10:45.0	95.240	0.100	0.680	1.380
2020/01/31 22:10:45.1	95.210	0.060	0.710	1.450
2020/01/31 22:10:45.2	95.180	0.020	0.740	1.520
2020/01/31 22:10:45.3	95.150	-0.020	0.760	1.590
2020/01/31 22:10:45.4	95.120	-0.050	0.790	1.660
2020/01/31 22:10:45.5	95.090	-0.090	0.800	1.720
2020/01/31 22:10:45.6	95.060	-0.130	0.810	1.780
2020/01/31 22:10:45.7	95.040	-0.170	0.820	1.840
2020/01/31 22:10:45.8	95.010	-0.210	0.830	1.890
2020/01/31 22:10:45.9	94.980	-0.250	0.820	1.930
2020/01/31 22:10:46.0	94.960	-0.280	0.820	1.970
2020/01/31 22:10:46.1	94.940	-0.320	0.810	2.010
2020/01/31 22:10:46.2	94.910	-0.350	0.790	2.050
2020/01/31 22:10:46.3	94.890	-0.380	0.760	2.080
2020/01/31 22:10:46.4	94.880	-0.410	0.730	2.100
2020/01/31 22:10:46.5	94.860	-0.430	0.700	2.120
2020/01/31 22:10:46.6	94.850	-0.450	0.660	2.140
2020/01/31 22:10:46.7	94.830	-0.470	0.610	2.150
2020/01/31 22:10:46.8	94.820	-0.490	0.550	2.160
2020/01/31 22:10:46.9	94.810	-0.500	0.490	2.160
2020/01/31 22:10:47.0	94.800	-0.510	0.430	2.160
2020/01/31 22:10:47.1	94.800	-0.520	0.360	2.150
2020/01/31 22:10:47.2	94.790	-0.520	0.280	2.140
2020/01/31 22:10:47.3	94.790	-0.520	0.200	2.120
2020/01/31 22:10:47.4	94.790	-0.510	0.110	2.100
2020/01/31 22:10:47.5	94.790	-0.500	0.020	2.080
2020/01/31 22:10:47.6	94.800	-0.480	-0.070	2.050
2020/01/31 22:10:47.7	94.800	-0.470	-0.170	2.010
2020/01/31 22:10:47.8	94.810	-0.440	-0.270	1.970
2020/01/31 22:10:47.9	94.820	-0.420	-0.370	1.930
2020/01/31 22:10:48.0	94.830	-0.390	-0.480	1.880
2020/01/31 22:10:48.1	94.840	-0.360	-0.580	1.840
2020/01/31 22:10:48.2	94.850	-0.330	-0.680	1.780
2020/01/31 22:10:48.3	94.860	-0.290	-0.780	1.730
2020/01/31 22:10:48.4	94.880	-0.250	-0.880	1.670
2020/01/31 22:10:48.5	94.890	-0.210	-0.980	1.620
2020/01/31 22:10:48.6	94.910	-0.170	-1.070	1.560
2020/01/31 22:10:48.7	94.920	-0.120	-1.160	1.490
2020/01/31 22:10:48.8	94.940	-0.080	-1.240	1.430
2020/01/31 22:10:48.9	94.960	-0.030	-1.310	1.370
2020/01/31 22:10:49.0	94.980	0.010	-1.380	1.300
2020/01/31 22:10:49.1	95.000	0.060	-1.430	1.240
2020/01/31 22:10:49.2	95.020	0.100	-1.480	1.180
2020/01/31 22:10:49.3	95.040	0.140	-1.520	1.110
2020/01/31 22:10:49.4	95.060	0.190	-1.550	1.050
2020/01/31 22:10:49.5	95.080	0.230	-1.570	0.990
2020/01/31 22:10:49.6	95.100	0.260	-1.580	0.930
2020/01/31 22:10:49.7	95.120	0.300	-1.580	0.870
2020/01/31 22:10:49.8	95.140	0.330	-1.570	0.820
2020/01/31 22:10:49.9	95.160	0.360	-1.540	0.760
2020/01/31 22:10:50.0	95.180	0.380	-1.510	0.700
2020/01/31 22:10:50.1	95.200	0.410	-1.470	0.650
2020/01/31 22:10:50.2	95.220	0.420	-1.410	0.600
2020/01/31 22:10:50.3	95.230	0.440	-1.350	0.550
2020/01/31 22:10:50.4	95.250	0.450	-1.270	0.500
2020/01/31 22:10:50.5	95.270	0.460	-1.190	0.450
2020/01/31 22:10:50.6	95.280	0.460	-1.100	0.410
2020/01/31 22:10:50.7	95.290	0.460	-1.010	0.370
2020/01/31 22:10:50.8	95.310	0.450	-0.900	0.320
2020/01/31 22:10:50.9	95.320	0.440	-0.790	0.290
2020/01/31 22:10:51.0	95.330	0.430	-0.670	0.250
2020/01/31 22:10:51.1	95.330	0.410	-0.550	0.210
2020/01/31 22:10:51.2	95.340	0.390	-0.430	0.180
2020/01/31 22:10:51.3	95.340	0.360	-0.310	0.150
2020/01/31 22:10:51.4	95.340	0.330	-0.180	0.120
2020/01/31 22:10:51.5	95.340	0.300	-0.060	0.090
2020/01/31 22:10:51.6	95.340	0.270	0.070	0.060
2020/01/31 22:10:51.7	95.340	0.230	0.190	0.040
2020/01/31 22:10:51.8	95.340	0.200	0.310	0.010
2020/01/31 22:10:51.9	95.330	0.160	0.420	-0.010
2020/01/31 22:10:52.0	95.320	0.120	0.540	-0.040
2020/01/31 22:10:52.1	95.310	0.070	0.650	-0.060
2020/01/31 22:10:52.2	95.300	0.030	0.750	-0.080
2020/01/31 22:10:52.3	95.290	-0.010	0.840	-0.100
2020/01/31 22:10:52.4	95.270	-0.050	0.930	-0.110
2020/01/31 22:10:52.5	95.260	-0.100	1.010	-0.130
2020/01/31 22:10:52.6	95.240	-0.140	1.080	-0.140
2020/01/31 22:10:52.7	95.220	-0.180	1.150	-0.160
2020/01/31 22:10:52.8	95.200	-0.220	1.200	-0.170
2020/01/31 22:10:52.9	95.190	-0.260	1.250	-0.180
2020/01/31 22:10:53.0	95.160	-0.300	1.290	-0.190
2020/01/31 22:10:53.1	95.140	-0.330	1.310	-0.210
2020/01/31 22:10:53.2	95.120	-0.360	1.330	-0.220
2020/01/31 22:10:53.3	95.100	-0.390	1.340	-0.230
2020/01/31 22:10:53.4	95.080	-0.420	1.340	-0.240
2020/01/31 22:10:53.5	95.050	-0.440	1.320	-0.240
2020/01/31 22:10:53.6	95.030	-0.470	1.300	-0.250
2020/01/31 22:10:53.7	95.000	-0.480	1.270	-0.260
2020/01/31 22:10:53.8	94.980	-0.500	1.230	-0.270
2020/01/31 22:10:53.9	94.960	-0.510	1.180	-0.270
2020/01/31 22:10:54.0	94.930	-0.520	1.130	-0.280
2020/01/31 22:10:54.1	94.910	-0.530	1.060	-0.290
2020/01/31 22:10:54.2	94.880	-0.530	0.990	-0.290
2020/01/31 22:10:54.3	94.860	-0.530	0.910	-0.290
2020/01/31 22:10:54.4	94.830	-0.530	0.820	-0.300
2020/01/31 22:10:54.5	94.810	-0.520	0.730	-0.300
2020/01/31 22:10:54.6	94.790	-0.510	0.630	-0.300
2020/01/31 22:10:54.7	94.760	-0.500	0.520	-0.300
2020/01/31 22:10:54.8	94.740	-0.490	0.420	-0.300
2020/01/31 22:10:54.9	94.720	-0.470	0.310	-0.300
2020/01/31 22:10:55.0	94.710	-0.450	0.190	-0.300
2020/01/31 22:10:55.1	94.690	-0.430	0.080	-0.300
2020/01/31 22:10:55.2	94.670	-0.400	-0.040	-0.300
2020/01/31 22:10:55.3	94.660	-0.370	-0.160	-0.290
2020/01/31 22:10:55.4	94.650	-0.340	-0.280	-0.290
2020/01/31 22:10:55.5	94.640	-0.310	-0.390	-0.290
2020/01/31 22:10:55.6	94.630	-0.280	-0.510	-0.290
2020/01/31 22:10:55.7	94.630	-0.250	-0.620	-0.280
2020/01/31 22:10:55.8	94.620	-0.210	-0.730	-0.280
2020/01/31 22:10:55.9	94.630	-0.180	-0.840	-0.280
2020/01/31 22:10:56.0	94.640	-0.140	-0.950	-0.280
2020/01/31 22:10:56.1	94.650	-0.100	-1.040	-0.280
2020/01/31 22:10:56.2	94.660	-0.060	-1.140	-0.280
2020/01/31 22:10:56.3	94.670	-0.030	-1.230	-0.280
2020/01/31 22:10:56.4	94.680	0.010	-1.310	-0.280
2020/01/31 22:10:56.5	94.700	0.050	-1.380	-0.280
2020/01/31 22:10:56.6	94.720	0.090	-1.450	-0.280
2020/01/31 22:10:56.7	94.740	0.120	-1.510	-0.270
2020/01/31 22:10:56.8	94.770	0.160	-1.560	-0.270
2020/01/31 22:10:56.9	94.790	0.190	-1.600	-0.260
2020/01/31 22:10:57.0	94.820	0.220	-1.630	-0.250
2020/01/31 22:10:57.1	94.840	0.250	-1.650	-0.240
2020/01/31 22:10:57.2	94.870	0.280	-1.670	-0.230
2020/01/31 22:10:57.3	94.900	0.310	-1.670	-0.210
2020/01/31 22:10:57.4	94.930	0.330	-1.660	-0.190
2020/01/31 22:10:57.5	94.950	0.350	-1.650	-0.170
2020/01/31 22:10:57.6	94.980	0.370	-1.620	-0.150
2020/01/31 22:10:57.7	95.010	0.390	-1.590	-0.120
2020/01/31 22:10:57.8	95.030	0.400	-1.540	-0.100
2020/01/31 22:10:57.9	95.060	0.410	-1.490	-0.070
2020/01/31 22:10:58.0	95.080	0.420	-1.420	-0.030
2020/01/31 22:10:58.1	95.100	0.430	-1.360	0.000
2020/01/31 22:10:58.2	95.130	0.430	-1.280	0.040
2020/01/31 22:10:58.3	95.140	0.430	-1.200	0.080
2020/01/31 22:10:58.4	95.160	0.430	-1.110	0.120
2020/01/31 22:10:58.5	95.180	0.420	-1.020	0.160
2020/01/31 22:10:58.6	95.190	0.420	-0.920	0.210
2020/01/31 22:10:58.7	95.210	0.410	-0.820	0.250
2020/01/31 22:10:58.8	95.220	0.400	-0.720	0.290
2020/01/31 22:10:58.9	95.230	0.380	-0.610	0.340
2020/01/31 22:10:59.0	95.240	0.370	-0.500	0.390
2020/01/31 22:10:59.1	95.240	0.360	-0.400	0.430
2020/01/31 22:10:59.2	95.240	0.340	-0.290	0.480
2020/01/31 22:10:59.3	95.240	0.320	-0.180	0.520
2020/01/31 22:10:59.4	95.240	0.300	-0.080	0.570
2020/01/31 22:10:59.5	95.240	0.280	0.020	0.610
2020/01/31 22:10:59.6	95.240	0.260	0.120	0.650
2020/01/31 22:10:59.7	95.230	0.240	0.210	0.690
2020/01/31 22:10:59.8	95.230	0.220	0.310	0.730
2020/01/31 22:10:59.9	95.220	0.200	0.390	0.760
2020/01/31 22:11:00.0	95.210	0.190	0.480	0.790
2020/01/31 22:11:00.1	95.200	0.170	0.550	0.820
2020/01/31 22:11:00.2	95.190	0.150	0.620	0.850
2020/01/31 22:11:00.3	95.180	0.130	0.680	0.880
2020/01/31 22:11:00.4	95.170	0.120	0.740	0.900
2020/01/31 22:11:00.5	95.160	0.100	0.790	0.920
2020/01/31 22:11:00.6	95.150	0.090	0.830	0.940
2020/01/31 22:11:00.7	95.140	0.080	0.870	0.960
2020/01/31 22:11:00.8	95.120	0.070	0.900	0.980
2020/01/31 22:11:00.9	95.110	0.060	0.920	0.990
2020/01/31 22:11:01.0	95.110	0.050	0.930	1.000
2020/01/31 22:11:01.1	95.100	0.040	0.940	1.010
2020/01/31 22:11:01.2	95.080	0.040	0.940	1.020
2020/01/31 22:11:01.3	95.070	0.040	0.930	1.030
2020/01/31 22:11:01.4	95.060	0.040	0.920	1.040
2020/01/31 22:11:01.5	95.050	0.040	0.900	1.050
2020/01/31 22:11:01.6	95.040	0.040	0.870	1.050
2020/01/31 22:11:01.7	95.030	0.040	0.840	1.050
2020/01/31 22:11:01.8	95.020	0.040	0.800	1.060
2020/01/31 22:11:01.9	95.010	0.050	0.760	1.060
2020/01/31 22:11:02.0	95.000	0.050	0.710	1.060
2020/01/31 22:11:02.1	94.990	0.060	0.650	1.050
2020/01/31 22:11:02.2	94.980	0.060	0.600	1.050
2020/01/31 22:11:02.3	94.970	0.070	0.530	1.050
2020/01/31 22:11:02.4	94.970	0.080	0.470	1.050
2020/01/31 22:11:02.5	94.960	0.080	0.400	1.040
2020/01/31 22:11:02.6	94.950	0.090	0.330	1.040
2020/01/31 22:11:02.7	94.950	0.090	0.250	1.030
2020/01/31 22:11:02.8	94.940	0.100	0.180	1.020
2020/01/31 22:11:02.9	94.930	0.100	0.100	1.010
2020/01/31 22:11:03.0	94.930	0.110	0.030	1.000
2020/01/31 22:11:03.1	94.920	0.110	-0.050	0.990
2020/01/31 22:11:03.2	94.920	0.110	-0.120	0.980
2020/01/31 22:11:03.3	94.910	0.110	-0.200	0.970
2020/01/31 22:11:03.4	94.900	0.110	-0.270	0.960
2020/01/31 22:11:03.5	94.890	0.110	-0.340	0.950
2020/01/31 22:11:03.6	94.880	0.100	-0.410	0.940
2020/01/31 22:11:03.7	94.870	0.100	-0.470	0.920
2020/01/31 22:11:03.8	94.860	0.090	-0.530	0.910
2020/01/31 22:11:03.9	94.850	0.080	-0.590	0.900
2020/01/31 22:11:04.0	94.830	0.070	-0.640	0.880
2020/01/31 22:11:04.1	94.820	0.060	-0.690	0.870
2020/01/31 22:11:04.2	94.810	0.050	-0.740	0.850
2020/01/31 22:11:04.3	94.800	0.040	-0.780	0.840
2020/01/31 22:11:04.4	94.790	0.030	-0.810	0.820
2020/01/31 22:11:04.5	94.790	0.020	-0.840	0.800
2020/01/31 22:11:04.6	94.780	0.000	-0.860	0.790
2020/01/31 22:11:04.7	94.770	-0.010	-0.880	0.770
2020/01/31 22:11:04.8	94.770	-0.030	-0.900	0.750
2020/01/31 22:11:04.9	94.770	-0.040	-0.910	0.730
2020/01/31 22:11:05.0	94.770	-0.060	-0.910	0.700
2020/01/31 22:11:05.1	94.780	-0.070	-0.910	0.680
2020/01/31 22:11:05.2	94.780	-0.080	-0.910	0.660
2020/01/31 22:11:05.3	94.790	-0.100	-0.900	0.630
2020/01/31 22:11:05.4	94.800	-0.110	-0.880	0.610
2020/01/31 22:11:05.5	94.820	-0.120	-0.870	0.580
2020/01/31 22:11:05.6	94.830	-0.140	-0.840	0.550
2020/01/31 22:11:05.7	94.850	-0.150	-0.820	0.520
2020/01/31 22:11:05.8	94.870	-0.160	-0.790	0.500
2020/01/31 22:11:05.9	94.890	-0.170	-0.760	0.470
2020/01/31 22:11:06.0	94.910	-0.180	-0.730	0.440
2020/01/31 22:11:06.1	94.940	-0.180	-0.700	0.410
2020/01/31 22:11:06.2	94.960	-0.190	-0.660	0.390
2020/01/31 22:11:06.3	94.990	-0.200	-0.620	0.360
2020/01/31 22:11:06.4	95.010	-0.200	-0.580	0.340
2020/01/31 22:11:06.5	95.040	-0.200	-0.540	0.310
2020/01/31 22:11:06.6	95.060	-0.210	-0.500	0.290
2020/01/31 22:11:06.7	95.090	-0.210	-0.460	0.270
2020/01/31 22:11:06.8	95.120	-0.210	-0.420	0.250
2020/01/31 22:11:06.9	95.140	-0.210	-0.380	0.230
2020/01/31 22:11:07.0	95.170	-0.210	-0.340	0.210
2020/01/31 22:11:07.1	95.190	-0.220	-0.290	0.190
2020/01/31 22:11:07.2	95.210	-0.220	-0.250	0.180
2020/01/31 22:11:07.3	95.240	-0.220	-0.200	0.160
2020/01/31 22:11:07.4	95.260	-0.220	-0.160	0.150
2020/01/31 22:11:07.5	95.290	-0.220	-0.120	0.140
2020/01/31 22:11:07.6	95.310	-0.220	-0.070	0.130
2020/01/31 22:11:07.7	95.330	-0.220	-0.030	0.120
2020/01/31 22:11:07.8	95.350	-0.220	0.010	0.110
2020/01/31 22:11:07.9	95.370	-0.220	0.060	0.100
2020/01/31 22:11:08.0	95.390	-0.230	0.100	0.090
2020/01/31 22:11:08.1	95.410	-0.230	0.140	0.080
2020/01/31 22:11:08.2	95.430	-0.230	0.180	0.070
2020/01/31 22:11:08.3	95.440	-0.230	0.210	0.060
2020/01/31 22:11:08.4	95.460	-0.240	0.250	0.060
2020/01/31 22:11:08.5	95.470	-0.240	0.280	0.050
2020/01/31 22:11:08.6	95.490	-0.240	0.310	0.050
2020/01/31 22:11:08.7	95.500	-0.240	0.330	0.040
2020/01/31 22:11:08.8	95.510	-0.250	0.360	0.040
2020/01/31 22:11:08.9	95.520	-0.250	0.380	0.030
2020/01/31 22:11:09.0	95.520	-0.250	0.400	0.030
2020/01/31 22:11:09.1	95.530	-0.250	0.410	0.030
2020/01/31 22:11:09.2	95.540	-0.250	0.420	0.030
2020/01/31 22:11:09.3	95.540	-0.250	0.430	0.030
2020/01/31 22:11:09.4	95.540	-0.250	0.440	0.030
2020/01/31 22:11:09.5	95.540	-0.250	0.440	0.040
2020/01/31 22:11:09.6	95.540	-0.240	0.440	0.040
2020/01/31 22:11:09.7	95.540	-0.240	0.430	0.050
2020/01/31 22:11:09.8	95.530	-0.230	0.420	0.060
2020/01/31 22:11:09.9	95.530	-0.230	0.410	0.080
2020/01/31 22:11:10.0	95.510	-0.220	0.390	0.090
2020/01/31 22:11:10.1	95.500	-0.210	0.370	0.110
2020/01/31 22:11:10.2	95.490	-0.200	0.340	0.130
2020/01/31 22:11:10.3	95.480	-0.190	0.320	0.150
2020/01/31 22:11:10.4	95.470	-0.180	0.290	0.180
2020/01/31 22:11:10.5	95.450	-0.170	0.260	0.210
2020/01/31 22:11:10.6	95.430	-0.150	0.220	0.240
2020/01/31 22:11:10.7	95.410	-0.140	0.190	0.270
2020/01/31 22:11:10.8	95.390	-0.120	0.150	0.300
2020/01/31 22:11:10.9	95.370	-0.100	0.110	0.340
2020/01/31 22:11:11.0	95.350	-0.090	0.070	0.370
2020/01/31 22:11:11.1	95.330	-0.070	0.030	0.410
2020/01/31 22:11:11.2	95.300	-0.050	-0.010	0.450
2020/01/31 22:11:11.3	95.280	-0.030	-0.060	0.490
2020/01/31 22:11:11.4	95.260	-0.010	-0.110	0.530
2020/01/31 22:11:11.5	95.230	0.000	-0.150	0.560
2020/01/31 22:11:11.6	95.200	0.020	-0.200	0.600
2020/01/31 22:11:11.7	95.180	0.040	-0.240	0.640
2020/01/31 22:11:11.8	95.160	0.060	-0.290	0.670
2020/01/31 22:11:11.9	95.130	0.080	-0.330	0.700
2020/01/31 22:11:12.0	95.100	0.100	-0.380	0.730
2020/01/31 22:11:12.1	95.080	0.110	-0.420	0.760
2020/01/31 22:11:12.2	95.060	0.130	-0.460	0.790
2020/01/31 22:11:12.3	95.040	0.140	-0.500	0.810
2020/01/31 22:11:12.4	95.020	0.160	-0.540	0.830
2020/01/31 22:11:12.5	95.010	0.170	-0.580	0.840
2020/01/31 22:11:12.6	94.990	0.190	-0.610	0.850
2020/01/31 22:11:12.7	94.980	0.200	-0.650	0.860
2020/01/31 22:11:12.8	94.970	0.210	-0.680	0.860
2020/01/31 22:11:12.9	94.960	0.220	-0.710	0.870
2020/01/31 22:11:13.0	94.950	0.230	-0.730	0.860
2020/01/31 22:11:13.1	94.940	0.240	-0.750	0.850
2020/01/31 22:11:13.2	94.940	0.250	-0.770	0.850
2020/01/31 22:11:13.3	94.940	0.260	-0.790	0.840
2020/01/31 22:11:13.4	94.940	0.260	-0.800	0.820
2020/01/31 22:11:13.5	94.950	0.270	-0.810	0.810
2020/01/31 22:11:13.6	94.950	0.280	-0.820	0.800
2020/01/31 22:11:13.7	94.960	0.280	-0.830	0.780
2020/01/31 22:11:13.8	94.960	0.290	-0.830	0.770
2020/01/31 22:11:13.9	94.970	0.290	-0.830	0.750
2020/01/31 22:11:14.0	94.980	0.300	-0.820	0.740
2020/01/31 22:11:14.1	94.990	0.300	-0.810	0.720
2020/01/31 22:11:14.2	95.000	0.310	-0.800	0.710
2020/01/31 22:11:14.3	95.010	0.320	-0.790	0.690
2020/01/31 22:11:14.4	95.020	0.320	-0.770	0.680
2020/01/31 22:11:14.5	95.030	0.330	-0.750	0.670
2020/01/31 22:11:14.6	95.040	0.330	-0.730	0.650
2020/01/31 22:11:14.7	95.050	0.340	-0.710	0.640
2020/01/31 22:11:14.8	95.060	0.340	-0.680	0.630
2020/01/31 22:11:14.9	95.080	0.350	-0.660	0.610
2020/01/31 22:11:15.0	95.090	0.350	-0.630	0.600
2020/01/31 22:11:15.1	95.100	0.360	-0.590	0.580
2020/01/31 22:11:15.2	95.120	0.360	-0.560	0.570
2020/01/31 22:11:15.3	95.130	0.360	-0.530	0.550
2020/01/31 22:11:15.4	95.150	0.370	-0.490	0.540
2020/01/31 22:11:15.5	95.170	0.370	-0.450	0.520
2020/01/31 22:11:15.6	95.190	0.370	-0.410	0.500
2020/01/31 22:11:15.7	95.210	0.370	-0.370	0.480
2020/01/31 22:11:15.8	95.230	0.370	-0.330	0.460
2020/01/31 22:11:15.9	95.250	0.370	-0.290	0.440
2020/01/31 22:11:16.0	95.260	0.370	-0.250	0.420
2020/01/31 22:11:16.1	95.290	0.370	-0.200	0.400
2020/01/31 22:11:16.2	95.310	0.370	-0.160	0.380
2020/01/31 22:11:16.3	95.330	0.360	-0.120	0.360
2020/01/31 22:11:16.4	95.350	0.360	-0.080	0.340
2020/01/31 22:11:16.5	95.370	0.350	-0.030	0.320
2020/01/31 22:11:16.6	95.390	0.340	0.010	0.310
2020/01/31 22:11:16.7	95.410	0.330	0.050	0.290
2020/01/31 22:11:16.8	95.430	0.320	0.090	0.270
2020/01/31 22:11:16.9	95.450	0.310	0.130	0.260
2020/01/31 22:11:17.0	95.450	0.300	0.170	0.240
2020/01/31 22:11:17.1	95.470	0.290	0.200	0.230
2020/01/31 22:11:17.2	95.480	0.270	0.240	0.220
2020/01/31 22:11:17.3	95.490	0.250	0.270	0.220
2020/01/31 22:11:17.4	95.500	0.240	0.300	0.210
2020/01/31 22:11:17.5	95.510	0.220	0.330	0.210
2020/01/31 22:11:17.6	95.520	0.200	0.360	0.210
2020/01/31 22:11:17.7	95.520	0.180	0.380	0.210
2020/01/31 22:11:17.8	95.530	0.150	0.410	0.220
2020/01/31 22:11:17.9	95.530	0.130	0.430	0.230
2020/01/31 22:11:18.0	95.530	0.110	0.440	0.240
2020/01/31 22:11:18.1	95.530	0.080	0.460	0.250
2020/01/31 22:11:18.2	95.530	0.060	0.470	0.260
2020/01/31 22:11:18.3	95.530	0.030	0.480	0.280
2020/01/31 22:11:18.4	95.530	0.000	0.490	0.300
2020/01/31 22:11:18.5	95.520	-0.030	0.490	0.320
2020/01/31 22:11:18.6	95.510	-0.060	0.500	0.340
2020/01/31 22:11:18.7	95.510	-0.090	0.490	0.360
2020/01/31 22:11:18.8	95.500	-0.110	0.490	0.390
2020/01/31 22:11:18.9	95.490	-0.140	0.480	0.410
2020/01/31 22:11:19.0	95.480	-0.170	0.470	0.440
2020/01/31 22:11:19.1	95.470	-0.200	0.460	0.460
2020/01/31 22:11:19.2	95.460	-0.230	0.440	0.490
2020/01/31 22:11:19.3	95.450	-0.260	0.420	0.510
2020/01/31 22:11:19.4	95.440	-0.290	0.400	0.540
2020/01/31 22:11:19.5	95.430	-0.320	0.370	0.560
2020/01/31 22:11:19.6	95.420	-0.340	0.340	0.590
2020/01/31 22:11:19.7	95.410	-0.370	0.310	0.610
2020/01/31 22:11:19.8	95.400	-0.390	0.270	0.630
2020/01/31 22:11:19.9	95.390	-0.420	0.240	0.650
2020/01/31 22:11:20.0	95.400	-0.440	0.190	0.670
2020/01/31 22:11:20.1	95.390	-0.450	0.150	0.690
2020/01/31 22:11:20.2	95.380	-0.470	0.100	0.700
2020/01/31 22:11:20.3	95.380	-0.480	0.050	0.710
2020/01/31 22:11:20.4	95.370	-0.490	0.000	0.720
2020/01/31 22:11:20.5	95.370	-0.500	-0.050	0.730
2020/01/31 22:11:20.6	95.370	-0.510	-0.100	0.740
2020/01/31 22:11:20.7	95.370	-0.510	-0.150	0.740
2020/01/31 22:11:20.8	95.370	-0.510	-0.210	0.750
2020/01/31 22:11:20.9	95.370	-0.510	-0.260	0.750
2020/01/31 22:11:21.0	95.360	-0.500	-0.310	0.750
2020/01/31 22:11:21.1	95.360	-0.490	-0.360	0.750
2020/01/31 22:11:21.2	95.360	-0.480	-0.410	0.750
2020/01/31 22:11:21.3	95.370	-0.470	-0.450	0.750
2020/01/31 22:11:21.4	95.370	-0.450	-0.500	0.750
2020/01/31 22:11:21.5	95.370	-0.440	-0.540	0.750
2020/01/31 22:11:21.6	95.370	-0.410	-0.580	0.750
2020/01/31 22:11:21.7	95.380	-0.390	-0.610	0.750
2020/01/31 22:11:21.8	95.380	-0.370	-0.640	0.750
2020/01/31 22:11:21.9	95.380	-0.340	-0.670	0.750
2020/01/31 22:11:22.0	95.390	-0.320	-0.700	0.750
2020/01/31 22:11:22.1	95.390	-0.290	-0.720	0.750
2020/01/31 22:11:22.2	95.400	-0.260	-0.730	0.740
2020/01/31 22:11:22.3	95.400	-0.230	-0.740	0.740
2020/01/31 22:11:22.4	95.410	-0.200	-0.750	0.740
2020/01/31 22:11:22.5	95.410	-0.170	-0.750	0.740
2020/01/31 22:11:22.6	95.420	-0.140	-0.750	0.740
2020/01/31 22:11:22.7	95.420	-0.110	-0.750	0.740
2020/01/31 22:11:22.8	95.430	-0.090	-0.740	0.740
2020/01/31 22:11:22.9	95.430	-0.060	-0.720	0.740
2020/01/31 22:11:23.0	95.430	-0.030	-0.710	0.740
2020/01/31 22:11:23.1	95.440	-0.010	-0.680	0.740
2020/01/31 22:11:23.2	95.440	0.010	-0.660	0.730
2020/01/31 22:11:23.3	95.440	0.030	-0.630	0.730
2020/01/31 22:11:23.4	95.440	0.050	-0.610	0.730
2020/01/31 22:11:23.5	95.450	0.070	-0.570	0.730
2020/01/31 22:11:23.6	95.450	0.080	-0.540	0.730
2020/01/31 22:11:23.7	95.450	0.090	-0.500	0.720
2020/01/31 22:11:23.8	95.450	0.110	-0.470	0.720
2020/01/31 22:11:23.9	95.450	0.110	-0.430	0.710
2020/01/31 22:11:24.0	95.450	0.120	-0.390	0.710
2020/01/31 22:11:24.1	95.450	0.130	-0.350	0.700
2020/01/31 22:11:24.2	95.440	0.130	-0.310	0.700
2020/01/31 22:11:24.3	95.440	0.130	-0.270	0.690
2020/01/31 22:11:24.4	95.440	0.130	-0.230	0.680
2020/01/31 22:11:24.5	95.440	0.130	-0.190	0.670
2020/01/31 22:11:24.6	95.440	0.130	-0.160	0.660
2020/01/31 22:11:24.7	95.440	0.130	-0.120	0.650
2020/01/31 22:11:24.8	95.440	0.120	-0.090	0.640
2020/01/31 22:11:24.9	95.440	0.120	-0.060	0.630
2020/01/31 22:11:25.0	95.440	0.110	-0.020	0.620
2020/01/31 22:11:25.1	95.440	0.110	0.000	0.600
2020/01/31 22:11:25.2	95.440	0.100	0.030	0.590
2020/01/31 22:11:25.3	95.440	0.100	0.050	0.570
2020/01/31 22:11:25.4	95.440	0.090	0.070	0.550
2020/01/31 22:11:25.5	95.450	0.090	0.080	0.530
2020/01/31 22:11:25.6	95.450	0.090	0.090	0.510
2020/01/31 22:11:25.7	95.450	0.080	0.100	0.490
2020/01/31 22:11:25.8	95.460	0.080	0.100	0.460
2020/01/31 22:11:25.9	95.460	0.080	0.100	0.440
2020/01/31 22:11:26.0	95.470	0.070	0.100	0.410
2020/01/31 22:11:26.1	95.470	0.070	0.090	0.380
2020/01/31 22:11:26.2	95.480	0.070	0.090	0.350
2020/01/31 22:11:26.3	95.480	0.080	0.070	0.310
2020/01/31 22:11:26.4	95.490	0.080	0.060	0.280
2020/01/31 22:11:26.5	95.490	0.080	0.040	0.250
2020/01/31 22:11:26.6	95.500	0.080	0.020	0.210
2020/01/31 22:11:26.7	95.500	0.090	-0.000	0.180
2020/01/31 22:11:26.8	95.510	0.090	-0.020	0.150
2020/01/31 22:11:26.9	95.510	0.100	-0.050	0.110
2020/01/31 22:11:27.0	95.510	0.110	-0.080	0.080
2020/01/31 22:11:27.1	95.510	0.110	-0.100	0.050
2020/01/31 22:11:27.2	95.510	0.120	-0.130	0.020
2020/01/31 22:11:27.3	95.510	0.130	-0.160	-0.000
2020/01/31 22:11:27.4	95.500	0.140	-0.190	-0.030
2020/01/31 22:11:27.5	95.500	0.150	-0.220	-0.050
2020/01/31 22:11:27.6	95.490	0.150	-0.250	-0.060
2020/01/31 22:11:27.7	95.480	0.160	-0.270	-0.080
2020/01/31 22:11:27.8	95.470	0.170	-0.300	-0.090
2020/01/31 22:11:27.9	95.460	0.180	-0.320	-0.100
2020/01/31 22:11:28.0	95.450	0.180	-0.340	-0.100
2020/01/31 22:11:28.1	95.440	0.190	-0.360	-0.100
2020/01/31 22:11:28.2	95.430	0.190	-0.380	-0.100
2020/01/31 22:11:28.3	95.410	0.190	-0.390	-0.100
2020/01/31 22:11:28.4	95.400	0.190	-0.400	-0.090
2020/01/31 22:11:28.5	95.380	0.190	-0.420	-0.080
2020/01/31 22:11:28.6	95.370	0.190	-0.420	-0.070
2020/01/31 22:11:28.7	95.360	0.190	-0.430	-0.060
2020/01/31 22:11:28.8	95.340	0.180	-0.430	-0.050
2020/01/31 22:11:28.9	95.330	0.180	-0.430	-0.030
2020/01/31 22:11:29.0	95.320	0.170	-0.430	-0.010
2020/01/31 22:11:29.1	95.310	0.160	-0.430	0.000
2020/01/31 22:11:29.2	95.300	0.150	-0.420	0.020
2020/01/31 22:11:29.3	95.290	0.140	-0.410	0.040
2020/01/31 22:11:29.4	95.290	0.120	-0.400	0.050
2020/01/31 22:11:29.5	95.290	0.110	-0.390	0.070
2020/01/31 22:11:29.6	95.280	0.090	-0.380	0.080
2020/01/31 22:11:29.7	95.290	0.080	-0.360	0.100
2020/01/31 22:11:29.8	95.290	0.060	-0.350	0.110
2020/01/31 22:11:29.9	95.290	0.040	-0.330	0.120
2020/01/31 22:11:30.0	95.310	0.020	-0.310	0.140
2020/01/31 22:11:30.1	95.310	0.000	-0.300	0.150
2020/01/31 22:11:30.2	95.320	-0.020	-0.280	0.150
2020/01/31 22:11:30.3	95.330	-0.030	-0.260	0.160
2020/01/31 22:11:30.4	95.340	-0.050	-0.240	0.170
2020/01/31 22:11:30.5	95.360	-0.070	-0.220	0.170
2020/01/31 22:11:30.6	95.370	-0.090	-0.210	0.170
2020/01/31 22:11:30.7	95.380	-0.100	-0.190	0.180
2020/01/31 22:11:30.8	95.400	-0.120	-0.170	0.180
2020/01/31 22:11:30.9	95.420	-0.130	-0.160	0.180
2020/01/31 22:11:31.0	95.430	-0.150	-0.140	0.180
2020/01/31 22:11:31.1	95.450	-0.160	-0.130	0.180
2020/01/31 22:11:31.2	95.470	-0.170	-0.110	0.180
2020/01/31 22:11:31.3	95.490	-0.180	-0.100	0.180
2020/01/31 22:11:31.4	95.510	-0.180	-0.080	0.180
2020/01/31 22:11:31.5	95.530	-0.190	-0.070	0.190
2020/01/31 22:11:31.6	95.550	-0.200	-0.050	0.190
2020/01/31 22:11:31.7	95.570	-0.200	-0.040	0.200
2020/01/31 22:11:31.8	95.590	-0.200	-0.020	0.200
2020/01/31 22:11:31.9	95.610	-0.200	-0.010	0.210
2020/01/31 22:11:32.0	95.630	-0.200	0.000	0.220
2020/01/31 22:11:32.1	95.640	-0.200	0.020	0.240
2020/01/31 22:11:32.2	95.660	-0.200	0.030	0.250
2020/01/31 22:11:32.3	95.680	-0.190	0.050	0.270
2020/01/31 22:11:32.4	95.700	-0.190	0.060	0.290
2020/01/31 22:11:32.5	95.710	-0.180	0.080	0.310
2020/01/31 22:11:32.6	95.720	-0.180	0.090	0.340
2020/01/31 22:11:32.7	95.740	-0.170	0.110	0.360
2020/01/31 22:11:32.8	95.750	-0.170	0.130	0.390
2020/01/31 22:11:32.9	95.760	-0.160	0.140	0.410
2020/01/31 22:11:33.0	95.770	-0.150	0.160	0.450
2020/01/31 22:11:33.1	95.780	-0.140	0.170	0.480
2020/01/31 22:11:33.2	95.790	-0.140	0.190	0.510
2020/01/31 22:11:33.3	95.790	-0.130	0.200	0.540
2020/01/31 22:11:33.4	95.800	-0.120	0.220	0.570
2020/01/31 22:11:33.5	95.800	-0.110	0.230	0.600
2020/01/31 22:11:33.6	95.800	-0.110	0.240	0.640
2020/01/31 22:11:33.7	95.810	-0.100	0.250	0.670
2020/01/31 22:11:33.8	95.800	-0.090	0.250	0.700
2020/01/31 22:11:33.9	95.800	-0.090	0.260	0.730
2020/01/31 22:11:34.0	95.800	-0.080	0.260	0.760
2020/01/31 22:11:34.1	95.800	-0.080	0.260	0.790
2020/01/31 22:11:34.2	95.790	-0.070	0.260	0.820
2020/01/31 22:11:34.3	95.790	-0.070	0.250	0.850
2020/01/31 22:11:34.4	95.780	-0.070	0.240	0.880
2020/01/31 22:11:34.5	95.780	-0.060	0.230	0.900
2020/01/31 22:11:34.6	95.770	-0.060	0.210	0.920
2020/01/31 22:11:34.7	95.760	-0.050	0.190	0.940
2020/01/31 22:11:34.8	95.750	-0.050	0.170	0.960
2020/01/31 22:11:34.9	95.740	-0.050	0.140	0.980
2020/01/31 22:11:35.0	95.730	-0.040	0.110	0.990
2020/01/31 22:11:35.1	95.720	-0.040	0.070	1.000
2020/01/31 22:11:35.2	95.710	-0.030	0.040	1.010
2020/01/31 22:11:35.3	95.710	-0.030	-0.000	1.020
2020/01/31 22:11:35.4	95.700	-0.030	-0.050	1.020
2020/01/31 22:11:35.5	95.690	-0.020	-0.090	1.020
2020/01/31 22:11:35.6	95.690	-0.010	-0.140	1.020
2020/01/31 22:11:35.7	95.680	-0.010	-0.190	1.020
2020/01/31 22:11:35.8	95.680	-0.000	-0.240	1.010
2020/01/31 22:11:35.9	95.680	0.000	-0.290	1.010
2020/01/31 22:11:36.0	95.670	0.010	-0.340	1.000
2020/01/31 22:11:36.1	95.670	0.020	-0.390	0.990
2020/01/31 22:11:36.2	95.670	0.030	-0.450	0.980
2020/01/31 22:11:36.3	95.670	0.030	-0.500	0.970
2020/01/31 22:11:36.4	95.680	0.040	-0.540	0.960
2020/01/31 22:11:36.5	95.680	0.050	-0.590	0.940
2020/01/31 22:11:36.6	95.690	0.060	-0.630	0.930
2020/01/31 22:11:36.7	95.690	0.070	-0.670	0.920
2020/01/31 22:11:36.8	95.700	0.080	-0.710	0.910
2020/01/31 22:11:36.9	95.710	0.090	-0.740	0.900
2020/01/31 22:11:37.0	95.720	0.100	-0.770	0.880
2020/01/31 22:11:37.1	95.730	0.100	-0.800	0.870
2020/01/31 22:11:37.2	95.740	0.110	-0.820	0.860
2020/01/31 22:11:37.3	95.750	0.120	-0.830	0.850
2020/01/31 22:11:37.4	95.760	0.130	-0.840	0.840
2020/01/31 22:11:37.5	95.770	0.130	-0.840	0.830
2020/01/31 22:11:37.6	95.780	0.140	-0.830	0.830
2020/01/31 22:11:37.7	95.790	0.140	-0.820	0.820
2020/01/31 22:11:37.8	95.810	0.150	-0.810	0.810
2020/01/31 22:11:37.9	95.820	0.150	-0.790	0.810
2020/01/31 22:11:38.0	95.820	0.150	-0.760	0.800
2020/01/31 22:11:38.1	95.830	0.150	-0.730	0.790
2020/01/31 22:11:38.2	95.830	0.150	-0.690	0.790
2020/01/31 22:11:38.3	95.840	0.150	-0.650	0.780
2020/01/31 22:11:38.4	95.840	0.140	-0.600	0.770
2020/01/31 22:11:38.5	95.840	0.140	-0.550	0.770
2020/01/31 22:11:38.6	95.840	0.130	-0.500	0.760
2020/01/31 22:11:38.7	95.840	0.130	-0.450	0.750
2020/01/31 22:11:38.8	95.830	0.120	-0.390	0.740
2020/01/31 22:11:38.9	95.820	0.110	-0.330	0.730
2020/01/31 22:11:39.0	95.810	0.100	-0.270	0.710
2020/01/31 22:11:39.1	95.800	0.090	-0.210	0.700
2020/01/31 22:11:39.2	95.790	0.080	-0.150	0.680
2020/01/31 22:11:39.3	95.770	0.060	-0.090	0.660
2020/01/31 22:11:39.4	95.760	0.050	-0.030	0.640
2020/01/31 22:11:39.5	95.740	0.040	0.020	0.620
2020/01/31 22:11:39.6	95.730	0.030	0.080	0.590
2020/01/31 22:11:39.7	95.710	0.010	0.130	0.560
2020/01/31 22:11:39.8	95.690	-0.000	0.180	0.530
2020/01/31 22:11:39.9	95.670	-0.010	0.220	0.500
2020/01/31 22:11:40.0	95.660	-0.030	0.260	0.460
2020/01/31 22:11:40.1	95.650	-0.040	0.300	0.430
2020/01/31 22:11:40.2	95.630	-0.050	0.330	0.390
2020/01/31 22:11:40.3	95.610	-0.060	0.350	0.340
2020/01/31 22:11:40.4	95.600	-0.070	0.370	0.300
2020/01/31 22:11:40.5	95.590	-0.070	0.380	0.250
2020/01/31 22:11:40.6	95.580	-0.080	0.380	0.200
2020/01/31 22:11:40.7	95.570	-0.080	0.380	0.150
2020/01/31 22:11:40.8	95.560	-0.090	0.370	0.100
2020/01/31 22:11:40.9	95.560	-0.090	0.360	0.050
2020/01/31 22:11:41.0	95.550	-0.090	0.350	-0.000
2020/01/31 22:11:41.1	95.550	-0.080	0.320	-0.060
2020/01/31 22:11:41.2	95.550	-0.080	0.290	-0.110
2020/01/31 22:11:41.3	95.560	-0.070	0.260	-0.160
2020/01/31 22:11:41.4	95.570	-0.070	0.220	-0.210
2020/01/31 22:11:41.5	95.580	-0.060	0.170	-0.260
2020/01/31 22:11:41.6	95.600	-0.050	0.130	-0.310
2020/01/31 22:11:41.7	95.610	-0.040	0.080	-0.360
2020/01/31 22:11:41.8	95.630	-0.030	0.030	-0.400
2020/01/31 22:11:41.9	95.650	-0.010	-0.030	-0.440
2020/01/31 22:11:42.0	95.670	-0.000	-0.080	-0.480
2020/01/31 22:11:42.1	95.690	0.010	-0.140	-0.520
2020/01/31 22:11:42.2	95.720	0.030	-0.190	-0.550
2020/01/31 22:11:42.3	95.750	0.040	-0.240	-0.580
2020/01/31 22:11:42.4	95.770	0.050	-0.290	-0.600
2020/01/31 22:11:42.5	95.800	0.060	-0.340	-0.620
2020/01/31 22:11:42.6	95.830	0.070	-0.390	-0.640
2020/01/31 22:11:42.7	95.860	0.080	-0.430	-0.650
2020/01/31 22:11:42.8	95.890	0.080	-0.470	-0.650
2020/01/31 22:11:42.9	95.920	0.090	-0.510	-0.650
2020/01/31 22:11:43.0	95.960	0.090	-0.550	-0.650
2020/01/31 22:11:43.1	95.980	0.090	-0.580	-0.640
2020/01/31 22:11:43.2	96.010	0.090	-0.600	-0.620
2020/01/31 22:11:43.3	96.040	0.080	-0.620	-0.610
2020/01/31 22:11:43.4	96.060	0.080	-0.630	-0.580
2020/01/31 22:11:43.5	96.090	0.070	-0.640	-0.560
2020/01/31 22:11:43.6	96.110	0.050	-0.650	-0.530
2020/01/31 22:11:43.7	96.130	0.040	-0.650	-0.490
2020/01/31 22:11:43.8	96.150	0.020	-0.640	-0.460
2020/01/31 22:11:43.9	96.160	0.010	-0.630	-0.420
2020/01/31 22:11:44.0	96.170	-0.010	-0.620	-0.380
2020/01/31 22:11:44.1	96.180	-0.040	-0.600	-0.330
2020/01/31 22:11:44.2	96.190	-0.060	-0.580	-0.290
2020/01/31 22:11:44.3	96.190	-0.080	-0.560	-0.240
2020/01/31 22:11:44.4	96.190	-0.110	-0.530	-0.190
2020/01/31 22:11:44.5	96.190	-0.140	-0.500	-0.140
2020/01/31 22:11:44.6	96.190	-0.160	-0.460	-0.090
2020/01/31 22:11:44.7	96.180	-0.190	-0.420	-0.040
2020/01/31 22:11:44.8	96.170	-0.220	-0.390	0.010
2020/01/31 22:11:44.9	96.150	-0.250	-0.350	0.060
2020/01/31 22:11:45.0	96.130	-0.270	-0.300	0.110
2020/01/31 22:11:45.1	96.110	-0.300	-0.260	0.160
2020/01/31 22:11:45.2	96.080	-0.330	-0.220	0.210
2020/01/31 22:11:45.3	96.060	-0.350	-0.170	0.260
2020/01/31 22:11:45.4	96.030	-0.370	-0.130	0.310
2020/01/31 22:11:45.5	96.010	-0.390	-0.090	0.360
2020/01/31 22:11:45.6	95.980	-0.410	-0.050	0.400
2020/01/31 22:11:45.7	95.950	-0.430	-0.010	0.440
2020/01/31 22:11:45.8	95.920	-0.440	0.020	0.490
2020/01/31 22:11:45.9	95.880	-0.450	0.060	0.530
2020/01/31 22:11:46.0	95.840	-0.460	0.090	0.570
2020/01/31 22:11:46.1	95.810	-0.470	0.120	0.600
2020/01/31 22:11:46.2	95.780	-0.470	0.140	0.640
2020/01/31 22:11:46.3	95.740	-0.470	0.160	0.670
2020/01/31 22:11:46.4	95.710	-0.460	0.180	0.710
2020/01/31 22:11:46.5	95.680	-0.460	0.190	0.740
2020/01/31 22:11:46.6	95.650	-0.450	0.200	0.770
2020/01/31 22:11:46.7	95.620	-0.440	0.200	0.790
2020/01/31 22:11:46.8	95.590	-0.420	0.200	0.820
2020/01/31 22:11:46.9	95.560	-0.400	0.190	0.850
2020/01/31 22:11:47.0	95.540	-0.380	0.180	0.870
2020/01/31 22:11:47.1	95.520	-0.350	0.170	0.900
2020/01/31 22:11:47.2	95.500	-0.330	0.160	0.920
2020/01/31 22:11:47.3	95.480	-0.300	0.140	0.940
2020/01/31 22:11:47.4	95.470	-0.270	0.120	0.960
2020/01/31 22:11:47.5	95.460	-0.240	0.090	0.980
2020/01/31 22:11:47.6	95.450	-0.200	0.070	1.000
2020/01/31 22:11:47.7	95.440	-0.170	0.040	1.010
2020/01/31 22:11:47.8	95.440	-0.130	0.010	1.030
2020/01/31 22:11:47.9	95.440	-0.100	-0.020	1.040
2020/01/31 22:11:48.0	95.450	-0.060	-0.050	1.050
2020/01/31 22:11:48.1	95.450	-0.030	-0.080	1.060
2020/01/31 22:11:48.2	95.460	0.010	-0.110	1.070
2020/01/31 22:11:48.3	95.480	0.040	-0.130	1.070
2020/01/31 22:11:48.4	95.490	0.080	-0.160	1.080
2020/01/31 22:11:48.5	95.510	0.110	-0.180	1.080
2020/01/31 22:11:48.6	95.520	0.140	-0.200	1.080
2020/01/31 22:11:48.7	95.550	0.170	-0.220	1.070
2020/01/31 22:11:48.8	95.570	0.200	-0.230	1.070
2020/01/31 22:11:48.9	95.590	0.220	-0.250	1.060
2020/01/31 22:11:49.0	95.620	0.250	-0.250	1.050
2020/01/31 22:11:49.1	95.640	0.270	-0.260	1.030
2020/01/31 22:11:49.2	95.670	0.290	-0.260	1.010
2020/01/31 22:11:49.3	95.700	0.300	-0.260	0.990
2020/01/31 22:11:49.4	95.730	0.320	-0.250	0.960
2020/01/31 22:11:49.5	95.760	0.330	-0.240	0.940
2020/01/31 22:11:49.6	95.790	0.340	-0.230	0.900
2020/01/31 22:11:49.7	95.820	0.340	-0.220	0.870
2020/01/31 22:11:49.8	95.850	0.350	-0.210	0.830
2020/01/31 22:11:49.9	95.880	0.350	-0.190	0.790
2020/01/31 22:11:50.0	95.910	0.350	-0.180	0.740
2020/01/31 22:11:50.1	95.940	0.350	-0.160	0.690
2020/01/31 22:11:50.2	95.970	0.340	-0.140	0.650
2020/01/31 22:11:50.3	96.000	0.340	-0.130	0.600
2020/01/31 22:11:50.4	96.030	0.330	-0.110	0.550
2020/01/31 22:11:50.5	96.060	0.320	-0.090	0.490
2020/01/31 22:11:50.6	96.090	0.310	-0.080	0.440
2020/01/31 22:11:50.7	96.110	0.300	-0.070	0.390
2020/01/31 22:11:50.8	96.140	0.290	-0.060	0.340
2020/01/31 22:11:50.9	96.160	0.280	-0.050	0.290
2020/01/31 22:11:51.0	96.180	0.260	-0.040	0.240
2020/01/31 22:11:51.1	96.190	0.250	-0.040	0.190
2020/01/31 22:11:51.2	96.210	0.240	-0.040	0.150
2020/01/31 22:11:51.3	96.220	0.220	-0.040	0.110
2020/01/31 22:11:51.4	96.230	0.210	-0.040	0.070
2020/01/31 22:11:51.5	96.240	0.200	-0.050	0.030
2020/01/31 22:11:51.6	96.240	0.180	-0.050	0.000
2020/01/31 22:11:51.7	96.250	0.170	-0.060	-0.030
2020/01/31 22:11:51.8	96.240	0.160	-0.080	-0.050
2020/01/31 22:11:51.9	96.240	0.150	-0.090	-0.070
2020/01/31 22:11:52.0	96.240	0.140	-0.110	-0.090
2020/01/31 22:11:52.1	96.230	0.130	-0.130	-0.100
2020/01/31 22:11:52.2	96.220	0.120	-0.150	-0.110
2020/01/31 22:11:52.3	96.210	0.110	-0.170	-0.110
2020/01/31 22:11:52.4	96.190	0.110	-0.200	-0.110
2020/01/31 22:11:52.5	96.180	0.100	-0.230	-0.110
2020/01/31 22:11:52.6	96.160	0.100	-0.260	-0.100
2020/01/31 22:11:52.7	96.140	0.090	-0.290	-0.090
2020/01/31 22:11:52.8	96.120	0.090	-0.320	-0.070
2020/01/31 22:11:52.9	96.100	0.090	-0.350	-0.060
2020/01/31 22:11:53.0	96.090	0.090	-0.390	-0.040
2020/01/31 22:11:53.1	96.070	0.090	-0.420	-0.010
2020/01/31 22:11:53.2	96.050	0.100	-0.460	0.020
2020/01/31 22:11:53.3	96.030	0.100	-0.490	0.050
2020/01/31 22:11:53.4	96.010	0.100	-0.530	0.080
2020/01/31 22:11:53.5	95.990	0.110	-0.560	0.120
2020/01/31 22:11:53.6	95.970	0.110	-0.600	0.160
2020/01/31 22:11:53.7	95.950	0.120	-0.630	0.200
2020/01/31 22:11:53.8	95.930	0.120	-0.660	0.250
2020/01/31 22:11:53.9	95.910	0.130	-0.680	0.290
2020/01/31 22:11:54.0	95.890	0.140	-0.710	0.340
2020/01/31 22:11:54.1	95.880	0.140	-0.730	0.390
2020/01/31 22:11:54.2	95.860	0.140	-0.740	0.430
2020/01/31 22:11:54.3	95.850	0.150	-0.760	0.480
2020/01/31 22:11:54.4	95.840	0.150	-0.760	0.530
2020/01/31 22:11:54.5	95.830	0.150	-0.770	0.570
2020/01/31 22:11:54.6	95.820	0.150	-0.770	0.610
2020/01/31 22:11:54.7	95.810	0.150	-0.760	0.650
2020/01/31 22:11:54.8	95.810	0.150	-0.750	0.690
2020/01/31 22:11:54.9	95.800	0.140	-0.740	0.720
2020/01/31 22:11:55.0	95.800	0.140	-0.720	0.760
2020/01/31 22:11:55.1	95.800	0.130	-0.690	0.780
2020/01/31 22:11:55.2	95.800	0.120	-0.660	0.800
2020/01/31 22:11:55.3	95.810	0.110	-0.620	0.820
2020/01/31 22:11:55.4	95.810	0.100	-0.580	0.840
2020/01/31 22:11:55.5	95.820	0.090	-0.540	0.850
2020/01/31 22:11:55.6	95.830	0.070	-0.490	0.850
2020/01/31 22:11:55.7	95.840	0.060	-0.430	0.850
2020/01/31 22:11:55.8	95.850	0.040	-0.370	0.850
2020/01/31 22:11:55.9	95.860	0.020	-0.310	0.840
2020/01/31 22:11:56.0	95.870	0.000	-0.240	0.830
2020/01/31 22:11:56.1	95.890	-0.020	-0.170	0.820
2020/01/31 22:11:56.2	95.900	-0.040	-0.100	0.800
2020/01/31 22:11:56.3	95.910	-0.060	-0.030	0.780
2020/01/31 22:11:56.4	95.920	-0.080	0.040	0.750
2020/01/31 22:11:56.5	95.930	-0.100	0.110	0.730
2020/01/31 22:11:56.6	95.940	-0.120	0.190	0.700
2020/01/31 22:11:56.7	95.950	-0.150	0.260	0.670
2020/01/31 22:11:56.8	95.960	-0.170	0.330	0.640
2020/01/31 22:11:56.9	95.970	-0.190	0.400	0.610
2020/01/31 22:11:57.0	95.970	-0.220	0.470	0.580
2020/01/31 22:11:57.1	95.980	-0.240	0.530	0.550
2020/01/31 22:11:57.2	95.990	-0.260	0.590	0.520
2020/01/31 22:11:57.3	95.990	-0.290	0.650	0.490
2020/01/31 22:11:57.4	95.990	-0.310	0.700	0.460
2020/01/31 22:11:57.5	95.990	-0.330	0.750	0.440
2020/01/31 22:11:57.6	96.000	-0.350	0.790	0.410
2020/01/31 22:11:57.7	96.000	-0.370	0.830	0.390
2020/01/31 22:11:57.8	96.000	-0.390	0.860	0.370
2020/01/31 22:11:57.9	96.000	-0.400	0.880	0.360
2020/01/31 22:11:58.0	96.000	-0.420	0.900	0.340
2020/01/31 22:11:58.1	95.990	-0.430	0.910	0.330
2020/01/31 22:11:58.2	95.990	-0.450	0.920	0.320
2020/01/31 22:11:58.3	95.990	-0.460	0.910	0.310
2020/01/31 22:11:58.4	95.990	-0.470	0.900	0.310
2020/01/31 22:11:58.5	95.990	-0.480	0.870	0.310
2020/01/31 22:11:58.6	95.980	-0.490	0.850	0.310
2020/01/31 22:11:58.7	95.980	-0.500	0.810	0.310
2020/01/31 22:11:58.8	95.980	-0.500	0.770	0.310
2020/01/31 22:11:58.9	95.980	-0.510	0.710	0.310
2020/01/31 22:11:59.0	95.970	-0.510	0.660	0.320
2020/01/31 22:11:59.1	95.970	-0.510	0.590	0.320
2020/01/31 22:11:59.2	95.970	-0.510	0.520	0.320
2020/01/31 22:11:59.3	95.960	-0.510	0.450	0.330
2020/01/31 22:11:59.4	95.960	-0.500	0.360	0.330
2020/01/31 22:11:59.5	95.960	-0.500	0.280	0.340
2020/01/31 22:11:59.6	95.960	-0.490	0.190	0.340
2020/01/31 22:11:59.7	95.960	-0.480	0.090	0.340
2020/01/31 22:11:59.8	95.960	-0.470	-0.000	0.340
2020/01/31 22:11:59.9	95.960	-0.460	-0.100	0.340
2020/01/31 22:12:00.0	95.960	-0.450	-0.210	0.330
2020/01/31 22:12:00.1	95.970	-0.440	-0.310	0.330
2020/01/31 22:12:00.2	95.970	-0.420	-0.420	0.320
2020/01/31 22:12:00.3	95.980	-0.400	-0.520	0.320
2020/01/31 22:12:00.4	95.990	-0.380	-0.620	0.310
2020/01/31 22:12:00.5	96.000	-0.360	-0.720	0.300
2020/01/31 22:12:00.6	96.010	-0.340	-0.820	0.290
2020/01/31 22:12:00.7	96.020	-0.310	-0.910	0.280
2020/01/31 22:12:00.8	96.030	-0.290	-1.000	0.270
2020/01/31 22:12:00.9	96.050	-0.260	-1.090	0.250
2020/01/31 22:12:01.0	96.070	-0.230	-1.170	0.240
2020/01/31 22:12:01.1	96.090	-0.200	-1.240	0.230
2020/01/31 22:12:01.2	96.110	-0.170	-1.310	0.220
2020/01/31 22:12:01.3	96.130	-0.140	-1.370	0.210
2020/01/31 22:12:01.4	96.160	-0.100	-1.420	0.200
2020/01/31 22:12:01.5	96.180	-0.070	-1.470	0.190
2020/01/31 22:12:01.6	96.210	-0.030	-1.500	0.190
2020/01/31 22:12:01.7	96.240	0.000	-1.530	0.180
2020/01/31 22:12:01.8	96.270	0.040	-1.540	0.180
2020/01/31 22:12:01.9	96.290	0.070	-1.550	0.180
2020/01/31 22:12:02.0	96.320	0.110	-1.550	0.180
2020/01/31 22:12:02.1	96.350	0.140	-1.530	0.190
2020/01/31 22:12:02.2	96.380	0.170	-1.510	0.190
2020/01/31 22:12:02.3	96.400	0.210	-1.480	0.200
2020/01/31 22:12:02.4	96.420	0.240	-1.440	0.210
2020/01/31 22:12:02.5	96.440	0.270	-1.390	0.220
2020/01/31 22:12:02.6	96.460	0.300	-1.340	0.230
2020/01/31 22:12:02.7	96.480	0.320	-1.270	0.250
2020/01/31 22:12:02.8	96.490	0.350	-1.200	0.270
2020/01/31 22:12:02.9	96.510	0.370	-1.130	0.280
2020/01/31 22:12:03.0	96.520	0.390	-1.050	0.310
2020/01/31 22:12:03.1	96.520	0.410	-0.960	0.330
2020/01/31 22:12:03.2	96.530	0.430	-0.870	0.350
2020/01/31 22:12:03.3	96.530	0.440	-0.780	0.380
2020/01/31 22:12:03.4	96.530	0.450	-0.680	0.410
2020/01/31 22:12:03.5	96.530	0.460	-0.580	0.430
2020/01/31 22:12:03.6	96.520	0.470	-0.480	0.460
2020/01/31 22:12:03.7	96.510	0.480	-0.370	0.490
2020/01/31 22:12:03.8	96.510	0.480	-0.270	0.520
2020/01/31 22:12:03.9	96.500	0.480	-0.170	0.550
2020/01/31 22:12:04.0	96.480	0.470	-0.070	0.580
2020/01/31 22:12:04.1	96.470	0.470	0.030	0.610
2020/01/31 22:12:04.2	96.450	0.460	0.120	0.630
2020/01/31 22:12:04.3	96.440	0.450	0.210	0.660
2020/01/31 22:12:04.4	96.430	0.440	0.300	0.690
2020/01/31 22:12:04.5	96.410	0.420	0.390	0.710
2020/01/31 22:12:04.6	96.390	0.400	0.470	0.740
2020/01/31 22:12:04.7	96.380	0.390	0.540	0.760
2020/01/31 22:12:04.8	96.360	0.360	0.610	0.780
2020/01/31 22:12:04.9	96.350	0.340	0.670	0.790
2020/01/31 22:12:05.0	96.330	0.320	0.740	0.800
2020/01/31 22:12:05.1	96.320	0.290	0.790	0.810
2020/01/31 22:12:05.2	96.300	0.270	0.830	0.820
2020/01/31 22:12:05.3	96.290	0.240	0.870	0.830
2020/01/31 22:12:05.4	96.270	0.210	0.900	0.830
2020/01/31 22:12:05.5	96.260	0.180	0.920	0.830
2020/01/31 22:12:05.6	96.250	0.150	0.940	0.820
2020/01/31 22:12:05.7	96.230	0.120	0.950	0.810
2020/01/31 22:12:05.8	96.220	0.090	0.960	0.800
2020/01/31 22:12:05.9	96.210	0.060	0.960	0.790
2020/01/31 22:12:06.0	96.200	0.030	0.950	0.780
2020/01/31 22:12:06.1	96.190	0.000	0.930	0.760
2020/01/31 22:12:06.2	96.170	-0.030	0.910	0.740
2020/01/31 22:12:06.3	96.160	-0.050	0.890	0.720
2020/01/31 22:12:06.4	96.150	-0.080	0.860	0.690
2020/01/31 22:12:06.5	96.130	-0.110	0.820	0.670
2020/01/31 22:12:06.6	96.120	-0.130	0.780	0.640
2020/01/31 22:12:06.7	96.110	-0.150	0.740	0.620
2020/01/31 22:12:06.8	96.090	-0.170	0.690	0.590
2020/01/31 22:12:06.9	96.080	-0.190	0.640	0.560
2020/01/31 22:12:07.0	96.070	-0.210	0.590	0.530
2020/01/31 22:12:07.1	96.050	-0.230	0.540	0.510
2020/01/31 22:12:07.2	96.040	-0.240	0.480	0.480
2020/01/31 22:12:07.3	96.030	-0.250	0.420	0.460
2020/01/31 22:12:07.4	96.020	-0.260	0.360	0.430
2020/01/31 22:12:07.5	96.010	-0.270	0.290	0.410
2020/01/31 22:12:07.6	96.000	-0.280	0.230	0.390
2020/01/31 22:12:07.7	95.990	-0.280	0.160	0.370
2020/01/31 22:12:07.8	95.980	-0.280	0.090	0.350
2020/01/31 22:12:07.9	95.970	-0.280	0.030	0.330
2020/01/31 22:12:08.0	95.970	-0.280	-0.040	0.310
2020/01/31 22:12:08.1	95.960	-0.280	-0.110	0.290
2020/01/31 22:12:08.2	95.960	-0.280	-0.180	0.270
2020/01/31 22:12:08.3	95.950	-0.270	-0.240	0.260
2020/01/31 22:12:08.4	95.950	-0.260	-0.310	0.250
2020/01/31 22:12:08.5	95.950	-0.250	-0.370	0.240
2020/01/31 22:12:08.6	95.950	-0.240	-0.440	0.230
2020/01/31 22:12:08.7	95.960	-0.230	-0.500	0.220
2020/01/31 22:12:08.8	95.960	-0.210	-0.560	0.220
2020/01/31 22:12:08.9	95.970	-0.200	-0.610	0.210
2020/01/31 22:12:09.0	95.970	-0.180	-0.670	0.210
2020/01/31 22:12:09.1	95.980	-0.160	-0.730	0.210
2020/01/31 22:12:09.2	95.990	-0.150	-0.780	0.210
2020/01/31 22:12:09.3	96.010	-0.120	-0.830	0.210
2020/01/31 22:12:09.4	96.020	-0.100	-0.870	0.210
2020/01/31 22:12:09.5	96.040	-0.080	-0.920	0.210
2020/01/31 22:12:09.6	96.060	-0.060	-0.960	0.210
2020/01/31 22:12:09.7	96.080	-0.040	-1.000	0.210
2020/01/31 22:12:09.8	96.100	-0.010	-1.040	0.220
2020/01/31 22:12:09.9	96.130	0.010	-1.070	0.220
2020/01/31 22:12:10.0	96.140	0.040	-1.100	0.220
2020/01/31 22:12:10.1	96.170	0.060	-1.130	0.230
2020/01/31 22:12:10.2	96.200	0.080	-1.150	0.230
2020/01/31 22:12:10.3	96.230	0.110	-1.170	0.240
2020/01/31 22:12:10.4	96.260	0.130	-1.180	0.240
2020/01/31 22:12:10.5	96.300	0.160	-1.190	0.240
2020/01/31 22:12:10.6	96.330	0.180	-1.200	0.250
2020/01/31 22:12:10.7	96.370	0.200	-1.200	0.250
2020/01/31 22:12:10.8	96.400	0.220	-1.190	0.250
2020/01/31 22:12:10.9	96.440	0.240	-1.180	0.260
2020/01/31 22:12:11.0	96.470	0.250	-1.170	0.270
2020/01/31 22:12:11.1	96.500	0.270	-1.140	0.270
2020/01/31 22:12:11.2	96.530	0.280	-1.120	0.280
2020/01/31 22:12:11.3	96.560	0.290	-1.080	0.280
2020/01/31 22:12:11.4	96.590	0.300	-1.040	0.290
2020/01/31 22:12:11.5	96.620	0.310	-1.000	0.300
2020/01/31 22:12:11.6	96.640	0.320	-0.950	0.310
2020/01/31 22:12:11.7	96.670	0.320	-0.890	0.320
2020/01/31 22:12:11.8	96.690	0.320	-0.830	0.330
2020/01/31 22:12:11.9	96.700	0.320	-0.760	0.340
2020/01/31 22:12:12.0	96.720	0.320	-0.690	0.360
2020/01/31 22:12:12.1	96.730	0.310	-0.610	0.370
2020/01/31 22:12:12.2	96.740	0.300	-0.530	0.390
2020/01/31 22:12:12.3	96.750	0.290	-0.450	0.400
2020/01/31 22:12:12.4	96.750	0.280	-0.360	0.420
2020/01/31 22:12:12.5	96.750	0.270	-0.270	0.440
2020/01/31 22:12:12.6	96.750	0.250	-0.180	0.450
2020/01/31 22:12:12.7	96.750	0.230	-0.090	0.470
2020/01/31 22:12:12.8	96.740	0.210	0.010	0.490
2020/01/31 22:12:12.9	96.730	0.190	0.100	0.510
2020/01/31 22:12:13.0	96.720	0.170	0.190	0.530
2020/01/31 22:12:13.1	96.700	0.140	0.280	0.560
2020/01/31 22:12:13.2	96.690	0.120	0.370	0.580
2020/01/31 22:12:13.3	96.670	0.090	0.450	0.600
2020/01/31 22:12:13.4	96.650	0.070	0.540	0.630
2020/01/31 22:12:13.5	96.620	0.040	0.620	0.650
2020/01/31 22:12:13.6	96.600	0.010	0.690	0.670
2020/01/31 22:12:13.7	96.570	-0.020	0.760	0.700
2020/01/31 22:12:13.8	96.540	-0.050	0.820	0.720
2020/01/31 22:12:13.9	96.510	-0.070	0.880	0.740
2020/01/31 22:12:14.0	96.480	-0.100	0.930	0.770
2020/01/31 22:12:14.1	96.450	-0.130	0.970	0.790
2020/01/31 22:12:14.2	96.420	-0.160	1.010	0.810
2020/01/31 22:12:14.3	96.380	-0.180	1.040	0.830
2020/01/31 22:12:14.4	96.350	-0.210	1.060	0.850
2020/01/31 22:12:14.5	96.310	-0.240	1.080	0.870
2020/01/31 22:12:14.6	96.280	-0.260	1.080	0.890
2020/01/31 22:12:14.7	96.240	-0.280	1.080	0.900
2020/01/31 22:12:14.8	96.210	-0.300	1.080	0.920
2020/01/31 22:12:14.9	96.170	-0.320	1.060	0.930
2020/01/31 22:12:15.0	96.140	-0.340	1.040	0.950
2020/01/31 22:12:15.1	96.110	-0.360	1.010	0.960
2020/01/31 22:12:15.2	96.080	-0.380	0.970	0.970
2020/01/31 22:12:15.3	96.050	-0.390	0.930	0.970
2020/01/31 22:12:15.4	96.030	-0.400	0.880	0.980
2020/01/31 22:12:15.5	96.000	-0.410	0.820	0.980
2020/01/31 22:12:15.6	95.980	-0.420	0.760	0.980
2020/01/31 22:12:15.7	95.960	-0.420	0.690	0.980
2020/01/31 22:12:15.8	95.950	-0.430	0.620	0.970
2020/01/31 22:12:15.9	95.930	-0.430	0.540	0.960
2020/01/31 22:12:16.0	95.920	-0.430	0.460	0.950
2020/01/31 22:12:16.1	95.920	-0.420	0.370	0.940
2020/01/31 22:12:16.2	95.910	-0.420	0.280	0.920
2020/01/31 22:12:16.3	95.910	-0.410	0.180	0.900
2020/01/31 22:12:16.4	95.910	-0.400	0.090	0.880
2020/01/31 22:12:16.5	95.920	-0.390	-0.010	0.860
2020/01/31 22:12:16.6	95.930	-0.370	-0.120	0.830
2020/01/31 22:12:16.7	95.940	-0.350	-0.220	0.810
2020/01/31 22:12:16.8	95.950	-0.330	-0.330	0.780
2020/01/31 22:12:16.9	95.960	-0.310	-0.430	0.750
2020/01/31 22:12:17.0	95.980	-0.290	-0.540	0.720
2020/01/31 22:12:17.1	96.000	-0.260	-0.640	0.680
2020/01/31 22:12:17.2	96.010	-0.240	-0.750	0.650
2020/01/31 22:12:17.3	96.030	-0.210	-0.850	0.620
2020/01/31 22:12:17.4	96.050	-0.170	-0.950	0.580
2020/01/31 22:12:17.5	96.070	-0.140	-1.040	0.540
2020/01/31 22:12:17.6	96.090	-0.110	-1.130	0.510
2020/01/31 22:12:17.7	96.110	-0.070	-1.220	0.470
2020/01/31 22:12:17.8	96.140	-0.040	-1.300	0.440
2020/01/31 22:12:17.9	96.160	-0.000	-1.370	0.400
2020/01/31 22:12:18.0	96.180	0.040	-1.440	0.360
2020/01/31 22:12:18.1	96.200	0.070	-1.500	0.330
2020/01/31 22:12:18.2	96.230	0.110	-1.550	0.290
2020/01/31 22:12:18.3	96.250	0.150	-1.590	0.260
2020/01/31 22:12:18.4	96.280	0.180	-1.630	0.230
2020/01/31 22:12:18.5	96.300	0.220	-1.650	0.200
2020/01/31 22:12:18.6	96.330	0.250	-1.670	0.170
2020/01/31 22:12:18.7	96.360	0.280	-1.670	0.140
2020/01/31 22:12:18.8	96.380	0.310	-1.670	0.120
2020/01/31 22:12:18.9	96.410	0.340	-1.660	0.090
2020/01/31 22:12:19.0	96.430	0.370	-1.630	0.080
2020/01/31 22:12:19.1	96.450	0.390	-1.600	0.060
2020/01/31 22:12:19.2	96.480	0.410	-1.550	0.040
2020/01/31 22:12:19.3	96.500	0.420	-1.500	0.030
2020/01/31 22:12:19.4	96.520	0.440	-1.430	0.020
2020/01/31 22:12:19.5	96.540	0.450	-1.360	0.020
2020/01/31 22:12:19.6	96.560	0.450	-1.270	0.020
2020/01/31 22:12:19.7	96.570	0.450	-1.180	0.020
2020/01/31 22:12:19.8	96.590	0.450	-1.080	0.030
2020/01/31 22:12:19.9	96.600	0.450	-0.970	0.040
2020/01/31 22:12:20.0	96.600	0.440	-0.860	0.050
2020/01/31 22:12:20.1	96.610	0.430	-0.740	0.070
2020/01/31 22:12:20.2	96.610	0.410	-0.610	0.090
2020/01/31 22:12:20.3	96.610	0.390	-0.490	0.110
2020/01/31 22:12:20.4	96.610	0.370	-0.360	0.140
2020/01/31 22:12:20.5	96.600	0.340	-0.230	0.170
2020/01/31 22:12:20.6	96.600	0.320	-0.100	0.210
2020/01/31 22:12:20.7	96.580	0.290	0.030	0.240
2020/01/31 22:12:20.8	96.570	0.250	0.160	0.280
2020/01/31 22:12:20.9	96.550	0.220	0.290	0.330
2020/01/31 22:12:21.0	96.530	0.190	0.410	0.370
2020/01/31 22:12:21.1	96.510	0.150	0.530	0.420
2020/01/31 22:12:21.2	96.490	0.110	0.640	0.460
2020/01/31 22:12:21.3	96.460	0.080	0.740	0.510
2020/01/31 22:12:21.4	96.430	0.040	0.840	0.560
2020/01/31 22:12:21.5	96.400	0.000	0.930	0.610
2020/01/31 22:12:21.6	96.370	-0.030	1.010	0.660
2020/01/31 22:12:21.7	96.340	-0.070	1.080	0.710
2020/01/31 22:12:21.8	96.300	-0.100	1.140	0.750
2020/01/31 22:12:21.9	96.270	-0.130	1.180	0.800
2020/01/31 22:12:22.0	96.230	-0.160	1.230	0.850
2020/01/31 22:12:22.1	96.190	-0.190	1.250	0.890
2020/01/31 22:12:22.2	96.160	-0.210	1.270	0.930
2020/01/31 22:12:22.3	96.120	-0.230	1.270	0.970
2020/01/31 22:12:22.4	96.090	-0.250	1.270	1.000
2020/01/31 22:12:22.5	96.050	-0.270	1.250	1.030
2020/01/31 22:12:22.6	96.020	-0.280	1.220	1.060
2020/01/31 22:12:22.7	95.980	-0.290	1.180	1.090
2020/01/31 22:12:22.8	95.950	-0.300	1.130	1.110
2020/01/31 22:12:22.9	95.920	-0.300	1.070	1.130
2020/01/31 22:12:23.0	95.900	-0.300	1.000	1.150
2020/01/31 22:12:23.1	95.870	-0.290	0.930	1.160
2020/01/31 22:12:23.2	95.850	-0.290	0.840	1.170
2020/01/31 22:12:23.3	95.820	-0.280	0.750	1.180
2020/01/31 22:12:23.4	95.800	-0.260	0.660	1.180
2020/01/31 22:12:23.5	95.780	-0.250	0.560	1.180
2020/01/31 22:12:23.6	95.760	-0.230	0.450	1.180
2020/01/31 22:12:23.7	95.750	-0.210	0.340	1.170
2020/01/31 22:12:23.8	95.730	-0.190	0.240	1.160
2020/01/31 22:12:23.9	95.720	-0.160	0.130	1.150
2020/01/31 22:12:24.0	95.710	-0.140	0.020	1.140
2020/01/31 22:12:24.1	95.700	-0.110	-0.090	1.130
2020/01/31 22:12:24.2	95.690	-0.090	-0.200	1.110
2020/01/31 22:12:24.3	95.690	-0.060	-0.310	1.090
2020/01/31 22:12:24.4	95.680	-0.040	-0.410	1.070
2020/01/31 22:12:24.5	95.680	-0.010	-0.500	1.050
2020/01/31 22:12:24.6	95.680	0.020	-0.590	1.030
2020/01/31 22:12:24.7	95.680	0.040	-0.680	1.000
2020/01/31 22:12:24.8	95.680	0.070	-0.760	0.980
2020/01/31 22:12:24.9	95.690	0.090	-0.830	0.950
2020/01/31 22:12:25.0	95.690	0.110	-0.900	0.920
2020/01/31 22:12:25.1	95.690	0.130	-0.960	0.890
2020/01/31 22:12:25.2	95.700	0.150	-1.010	0.870
2020/01/31 22:12:25.3	95.710	0.160	-1.050	0.840
2020/01/31 22:12:25.4	95.720	0.180	-1.090	0.800
2020/01/31 22:12:25.5	95.720	0.190	-1.110	0.770
2020/01/31 22:12:25.6	95.730	0.200	-1.130	0.740
2020/01/31 22:12:25.7	95.740	0.210	-1.140	0.710
2020/01/31 22:12:25.8	95.750	0.210	-1.140	0.670
2020/01/31 22:12:25.9	95.760	0.220	-1.140	0.640
2020/01/31 22:12:26.0	95.780	0.220	-1.120	0.600
2020/01/31 22:12:26.1	95.790	0.220	-1.100	0.560
2020/01/31 22:12:26.2	95.800	0.220	-1.080	0.530
2020/01/31 22:12:26.3	95.820	0.220	-1.050	0.490
2020/01/31 22:12:26.4	95.830	0.210	-1.010	0.460
2020/01/31 22:12:26.5	95.840	0.210	-0.970	0.420
2020/01/31 22:12:26.6	95.850	0.210	-0.930	0.380
2020/01/31 22:12:26.7	95.870	0.200	-0.880	0.350
2020/01/31 22:12:26.8	95.880	0.200	-0.830	0.310
2020/01/31 22:12:26.9	95.890	0.190	-0.780	0.280
2020/01/31 22:12:27.0	95.910	0.180	-0.720	0.240
2020/01/31 22:12:27.1	95.920	0.180	-0.670	0.210
2020/01/31 22:12:27.2	95.940	0.170	-0.610	0.180
2020/01/31 22:12:27.3	95.950	0.170	-0.560	0.150
2020/01/31 22:12:27.4	95.960	0.170	-0.500	0.120
2020/01/31 22:12:27.5	95.980	0.160	-0.450	0.100
2020/01/31 22:12:27.6	95.990	0.160	-0.400	0.070
2020/01/31 22:12:27.7	96.000	0.160	-0.350	0.050
2020/01/31 22:12:27.8	96.010	0.160	-0.300	0.030
2020/01/31 22:12:27.9	96.020	0.160	-0.250	0.010
2020/01/31 22:12:28.0	96.030	0.160	-0.200	-0.000
2020/01/31 22:12:28.1	96.040	0.160	-0.160	-0.010
2020/01/31 22:12:28.2	96.050	0.160	-0.110	-0.020
2020/01/31 22:12:28.3	96.050	0.160	-0.070	-0.030
2020/01/31 22:12:28.4	96.060	0.160	-0.040	-0.030
2020/01/31 22:12:28.5	96.060	0.160	-0.000	-0.030
2020/01/31 22:12:28.6	96.070	0.160	0.030	-0.020
2020/01/31 22:12:28.7	96.070	0.160	0.060	-0.020
2020/01/31 22:12:28.8	96.070	0.160	0.090	-0.010
2020/01/31 22:12:28.9	96.070	0.160	0.110	0.000
2020/01/31 22:12:29.0	96.070	0.160	0.140	0.020
2020/01/31 22:12:29.1	96.070	0.150	0.160	0.030
2020/01/31 22:12:29.2	96.060	0.150	0.180	0.050
2020/01/31 22:12:29.3	96.060	0.140	0.200	0.070
2020/01/31 22:12:29.4	96.050	0.140	0.210	0.100
2020/01/31 22:12:29.5	96.040	0.130	0.230	0.120
2020/01/31 22:12:29.6	96.030	0.120	0.240	0.150
2020/01/31 22:12:29.7	96.020	0.110	0.250	0.180
2020/01/31 22:12:29.8	96.000	0.100	0.260	0.210
2020/01/31 22:12:29.9	95.980	0.080	0.270	0.250
2020/01/31 22:12:30.0	95.960	0.070	0.280	0.280
2020/01/31 22:12:30.1	95.940	0.050	0.280	0.310
2020/01/31 22:12:30.2	95.920	0.030	0.280	0.350
2020/01/31 22:12:30.3	95.890	0.010	0.290	0.390
2020/01/31 22:12:30.4	95.870	-0.010	0.290	0.420
2020/01/31 22:12:30.5	95.840	-0.030	0.290	0.460
2020/01/31 22:12:30.6	95.810	-0.060	0.290	0.500
2020/01/31 22:12:30.7	95.780	-0.080	0.280	0.540
2020/01/31 22:12:30.8	95.750	-0.110	0.280	0.570
2020/01/31 22:12:30.9	95.720	-0.130	0.270	0.610
2020/01/31 22:12:31.0	95.690	-0.160	0.270	0.640
2020/01/31 22:12:31.1	95.660	-0.190	0.260	0.680
2020/01/31 22:12:31.2	95.630	-0.210	0.250	0.710
2020/01/31 22:12:31.3	95.600	-0.240	0.240	0.740
2020/01/31 22:12:31.4	95.570	-0.270	0.220	0.770
2020/01/31 22:12:31.5	95.540	-0.290	0.210	0.800
2020/01/31 22:12:31.6	95.520	-0.320	0.190	0.830
2020/01/31 22:12:31.7	95.490	-0.340	0.170	0.850
2020/01/31 22:12:31.8	95.470	-0.360	0.150	0.880
2020/01/31 22:12:31.9	95.450	-0.380	0.130	0.900
2020/01/31 22:12:32.0	95.430	-0.400	0.100	0.920
2020/01/31 22:12:32.1	95.410	-0.420	0.080	0.940
2020/01/31 22:12:32.2	95.400	-0.430	0.050	0.960
2020/01/31 22:12:32.3	95.380	-0.450	0.030	0.970
2020/01/31 22:12:32.4	95.370	-0.460	0.000	0.990
2020/01/31 22:12:32.5	95.350	-0.470	-0.030	1.000
2020/01/31 22:12:32.6	95.340	-0.480	-0.050	1.010
2020/01/31 22:12:32.7	95.330	-0.480	-0.080	1.020
2020/01/31 22:12:32.8	95.320	-0.480	-0.110	1.030
2020/01/31 22:12:32.9	95.310	-0.480	-0.130	1.030
2020/01/31 22:12:33.0	95.320	-0.480	-0.160	1.040
2020/01/31 22:12:33.1	95.310	-0.480	-0.180	1.040
2020/01/31 22:12:33.2	95.300	-0.470	-0.210	1.040
2020/01/31 22:12:33.3	95.290	-0.460	-0.230	1.040
2020/01/31 22:12:33.4	95.290	-0.450	-0.250	1.040
2020/01/31 22:12:33.5	95.280	-0.440	-0.270	1.040
2020/01/31 22:12:33.6	95.280	-0.420	-0.290	1.030
2020/01/31 22:12:33.7	95.270	-0.400	-0.310	1.030
2020/01/31 22:12:33.8	95.270	-0.380	-0.320	1.020
2020/01/31 22:12:33.9	95.270	-0.360	-0.340	1.010
2020/01/31 22:12:34.0	95.270	-0.340	-0.350	0.990
2020/01/31 22:12:34.1	95.260	-0.310	-0.370	0.980
2020/01/31 22:12:34.2	95.260	-0.290	-0.380	0.960
2020/01/31 22:12:34.3	95.260	-0.260	-0.390	0.940
2020/01/31 22:12:34.4	95.260	-0.230	-0.400	0.920
2020/01/31 22:12:34.5	95.250	-0.200	-0.410	0.900
2020/01/31 22:12:34.6	95.250	-0.160	-0.420	0.870
2020/01/31 22:12:34.7	95.250	-0.130	-0.430	0.850
2020/01/31 22:12:34.8	95.250	-0.090	-0.440	0.820
2020/01/31 22:12:34.9	95.250	-0.060	-0.450	0.780
2020/01/31 22:12:35.0	95.260	-0.020	-0.460	0.750
2020/01/31 22:12:35.1	95.270	0.020	-0.470	0.720
2020/01/31 22:12:35.2	95.270	0.050	-0.480	0.680
2020/01/31 22:12:35.3	95.280	0.090	-0.490	0.640
2020/01/31 22:12:35.4	95.280	0.130	-0.510	0.600
2020/01/31 22:12:35.5	95.290	0.170	-0.520	0.550
2020/01/31 22:12:35.6	95.290	0.210	-0.540	0.510
2020/01/31 22:12:35.7	95.300	0.250	-0.560	0.460
2020/01/31 22:12:35.8	95.310	0.290	-0.570	0.410
2020/01/31 22:12:35.9	95.320	0.330	-0.590	0.370
2020/01/31 22:12:36.0	95.330	0.360	-0.610	0.310
2020/01/31 22:12:36.1	95.350	0.400	-0.630	0.270
2020/01/31 22:12:36.2	95.360	0.440	-0.650	0.220
2020/01/31 22:12:36.3	95.370	0.470	-0.670	0.170
2020/01/31 22:12:36.4	95.380	0.510	-0.690	0.130
2020/01/31 22:12:36.5	95.400	0.540	-0.700	0.080
2020/01/31 22:12:36.6	95.410	0.570	-0.720	0.040
2020/01/31 22:12:36.7	95.420	0.600	-0.740	0.000
2020/01/31 22:12:36.8	95.430	0.620	-0.750	-0.040
2020/01/31 22:12:36.9	95.450	0.650	-0.760	-0.070
2020/01/31 22:12:37.0	95.460	0.670	-0.770	-0.100
2020/01/31 22:12:37.1	95.470	0.690	-0.780	-0.130
2020/01/31 22:12:37.2	95.480	0.710	-0.780	-0.160
2020/01/31 22:12:37.3	95.500	0.720	-0.780	-0.180
2020/01/31 22:12:37.4	95.510	0.730	-0.770	-0.200
2020/01/31 22:12:37.5	95.520	0.740	-0.770	-0.220
2020/01/31 22:12:37.6	95.530	0.740	-0.760	-0.230
2020/01/31 22:12:37.7	95.530	0.740	-0.740	-0.240
2020/01/31 22:12:37.8	95.540	0.740	-0.720	-0.250
2020/01/31 22:12:37.9	95.550	0.730	-0.700	-0.250
2020/01/31 22:12:38.0	95.550	0.720	-0.670	-0.250
2020/01/31 22:12:38.1	95.550	0.700	-0.640	-0.250
2020/01/31 22:12:38.2	95.560	0.680	-0.600	-0.240
2020/01/31 22:12:38.3	95.560	0.660	-0.570	-0.230
2020/01/31 22:12:38.4	95.560	0.640	-0.520	-0.220
2020/01/31 22:12:38.5	95.570	0.610	-0.480	-0.200
2020/01/31 22:12:38.6	95.560	0.570	-0.430	-0.180
2020/01/31 22:12:38.7	95.560	0.540	-0.370	-0.160
2020/01/31 22:12:38.8	95.560	0.500	-0.320	-0.130
2020/01/31 22:12:38.9	95.550	0.460	-0.260	-0.100
2020/01/31 22:12:39.0	95.540	0.410	-0.200	-0.070
2020/01/31 22:12:39.1	95.530	0.370	-0.130	-0.040
2020/01/31 22:12:39.2	95.520	0.320	-0.060	-0.000
2020/01/31 22:12:39.3	95.500	0.260	0.010	0.040
2020/01/31 22:12:39.4	95.490	0.210	0.080	0.080
2020/01/31 22:12:39.5	95.470	0.160	0.150	0.120
2020/01/31 22:12:39.6	95.440	0.100	0.220	0.170
2020/01/31 22:12:39.7	95.420	0.040	0.300	0.210
2020/01/31 22:12:39.8	95.390	-0.020	0.370	0.260
2020/01/31 22:12:39.9	95.360	-0.080	0.440	0.300
2020/01/31 22:12:40.0	95.330	-0.130	0.520	0.350
2020/01/31 22:12:40.1	95.300	-0.190	0.590	0.400
2020/01/31 22:12:40.2	95.270	-0.250	0.660	0.440
2020/01/31 22:12:40.3	95.230	-0.310	0.730	0.490
2020/01/31 22:12:40.4	95.190	-0.360	0.790	0.530
2020/01/31 22:12:40.5	95.150	-0.410	0.850	0.570
2020/01/31 22:12:40.6	95.110	-0.470	0.910	0.610
2020/01/31 22:12:40.7	95.070	-0.520	0.960	0.650
2020/01/31 22:12:40.8	95.030	-0.560	1.010	0.690
2020/01/31 22:12:40.9	94.990	-0.610	1.060	0.720
2020/01/31 22:12:41.0	94.950	-0.650	1.090	0.750
2020/01/31 22:12:41.1	94.920	-0.680	1.120	0.770
2020/01/31 22:12:41.2	94.880	-0.720	1.150	0.800
2020/01/31 22:12:41.3	94.850	-0.750	1.170	0.810
2020/01/31 22:12:41.4	94.820	-0.770	1.180	0.830
2020/01/31 22:12:41.5	94.790	-0.790	1.180	0.840
2020/01/31 22:12:41.6	94.760	-0.810	1.170	0.840
2020/01/31 22:12:41.7	94.740	-0.820	1.160	0.840
2020/01/31 22:12:41.8	94.720	-0.830	1.130	0.840
2020/01/31 22:12:41.9	94.700	-0.830	1.100	0.830
2020/01/31 22:12:42.0	94.690	-0.820	1.060	0.820
2020/01/31 22:12:42.1	94.690	-0.820	1.010	0.800
2020/01/31 22:12:42.2	94.680	-0.800	0.950	0.780
2020/01/31 22:12:42.3	94.690	-0.780	0.880	0.750
2020/01/31 22:12:42.4	94.690	-0.760	0.800	0.720
2020/01/31 22:12:42.5	94.700	-0.730	0.720	0.690
2020/01/31 22:12:42.6	94.720	-0.700	0.630	0.660
2020/01/31 22:12:42.7	94.740	-0.660	0.530	0.620
2020/01/31 22:12:42.8	94.760	-0.620	0.420	0.570
2020/01/31 22:12:42.9	94.790	-0.580	0.310	0.530
2020/01/31 22:12:43.0	94.820	-0.530	0.200	0.480
2020/01/31 22:12:43.1	94.860	-0.480	0.080	0.430
2020/01/31 22:12:43.2	94.900	-0.420	-0.050	0.380
2020/01/31 22:12:43.3	94.940	-0.370	-0.170	0.330
2020/01/31 22:12:43.4	94.990	-0.310	-0.300	0.280
2020/01/31 22:12:43.5	95.030	-0.250	-0.430	0.230
2020/01/31 22:12:43.6	95.080	-0.180	-0.560	0.170
2020/01/31 22:12:43.7	95.130	-0.120	-0.690	0.120
2020/01/31 22:12:43.8	95.180	-0.060	-0.810	0.070
2020/01/31 22:12:43.9	95.230	0.010	-0.940	0.020
2020/01/31 22:12:44.0	95.280	0.070	-1.050	-0.030
2020/01/31 22:12:44.1	95.330	0.130	-1.170	-0.070
2020/01/31 22:12:44.2	95.380	0.190	-1.280	-0.120
2020/01/31 22:12:44.3	95.430	0.250	-1.380	-0.160
2020/01/31 22:12:44.4	95.470	0.310	-1.480	-0.200
2020/01/31 22:12:44.5	95.510	0.360	-1.560	-0.230
2020/01/31 22:12:44.6	95.550	0.420	-1.640	-0.260
2020/01/31 22:12:44.7	95.590	0.460	-1.710	-0.290
2020/01/31 22:12:44.8	95.620	0.510	-1.760	-0.310
2020/01/31 22:12:44.9	95.650	0.550	-1.810	-0.330
2020/01/31 22:12:45.0	95.670	0.580	-1.840	-0.340
2020/01/31 22:12:45.1	95.690	0.610	-1.870	-0.350
2020/01/31 22:12:45.2	95.710	0.640	-1.870	-0.360
2020/01/31 22:12:45.3	95.720	0.660	-1.870	-0.360
2020/01/31 22:12:45.4	95.730	0.670	-1.860	-0.350
2020/01/31 22:12:45.5	95.740	0.680	-1.830	-0.340
2020/01/31 22:12:45.6	95.740	0.690	-1.790	-0.330
2020/01/31 22:12:45.7	95.740	0.690	-1.740	-0.310
2020/01/31 22:12:45.8	95.730	0.680	-1.670	-0.280
2020/01/31 22:12:45.9	95.730	0.670	-1.600	-0.260
2020/01/31 22:12:46.0	95.700	0.650	-1.510	-0.220
2020/01/31 22:12:46.1	95.690	0.630	-1.420	-0.190
2020/01/31 22:12:46.2	95.670	0.610	-1.310	-0.150
2020/01/31 22:12:46.3	95.650	0.580	-1.200	-0.100
2020/01/31 22:12:46.4	95.630	0.540	-1.090	-0.050
2020/01/31 22:12:46.5	95.600	0.510	-0.960	-0.000
2020/01/31 22:12:46.6	95.580	0.470	-0.830	0.050
2020/01/31 22:12:46.7	95.550	0.420	-0.700	0.110
2020/01/31 22:12:46.8	95.520	0.380	-0.560	0.170
2020/01/31 22:12:46.9	95.480	0.330	-0.430	0.230
2020/01/31 22:12:47.0	95.450	0.280	-0.280	0.290
2020/01/31 22:12:47.1	95.410	0.230	-0.150	0.360
2020/01/31 22:12:47.2	95.380	0.180	-0.010	0.420
2020/01/31 22:12:47.3	95.340	0.120	0.130	0.490
2020/01/31 22:12:47.4	95.300	0.070	0.260	0.560
2020/01/31 22:12:47.5	95.250	0.020	0.380	0.630
2020/01/31 22:12:47.6	95.210	-0.030	0.510	0.690
2020/01/31 22:12:47.7	95.170	-0.090	0.620	0.760
2020/01/31 22:12:47.8	95.120	-0.140	0.730	0.830
2020/01/31 22:12:47.9	95.080	-0.180	0.840	0.890
2020/01/31 22:12:48.0	95.030	-0.230	0.930	0.960
2020/01/31 22:12:48.1	94.980	-0.270	1.010	1.020
2020/01/31 22:12:48.2	94.940	-0.320	1.090	1.080
2020/01/31 22:12:48.3	94.890	-0.350	1.160	1.140
2020/01/31 22:12:48.4	94.850	-0.390	1.210	1.190
2020/01/31 22:12:48.5	94.810	-0.420	1.260	1.250
2020/01/31 22:12:48.6	94.760	-0.450	1.290	1.290
2020/01/31 22:12:48.7	94.720	-0.470	1.320	1.340
2020/01/31 22:12:48.8	94.680	-0.490	1.330	1.380
2020/01/31 22:12:48.9	94.640	-0.510	1.330	1.420
2020/01/31 22:12:49.0	94.600	-0.520	1.330	1.450
2020/01/31 22:12:49.1	94.560	-0.530	1.310	1.470
2020/01/31 22:12:49.2	94.530	-0.530	1.280	1.500
2020/01/31 22:12:49.3	94.500	-0.530	1.230	1.510
2020/01/31 22:12:49.4	94.480	-0.520	1.180	1.520
2020/01/31 22:12:49.5	94.460	-0.510	1.120	1.520
2020/01/31 22:12:49.6	94.440	-0.490	1.050	1.520
2020/01/31 22:12:49.7	94.420	-0.470	0.970	1.510
2020/01/31 22:12:49.8	94.410	-0.450	0.880	1.490
2020/01/31 22:12:49.9	94.410	-0.420	0.790	1.470
2020/01/31 22:12:50.0	94.400	-0.390	0.680	1.430
2020/01/31 22:12:50.1	94.400	-0.350	0.570	1.390
2020/01/31 22:12:50.2	94.410	-0.310	0.450	1.350
2020/01/31 22:12:50.3	94.420	-0.270	0.330	1.300
2020/01/31 22:12:50.4	94.440	-0.220	0.200	1.240
2020/01/31 22:12:50.5	94.460	-0.180	0.070	1.170
2020/01/31 22:12:50.6	94.490	-0.120	-0.060	1.100
2020/01/31 22:12:50.7	94.520	-0.070	-0.190	1.030
2020/01/31 22:12:50.8	94.550	-0.020	-0.330	0.950
2020/01/31 22:12:50.9	94.590	0.040	-0.460	0.860
2020/01/31 22:12:51.0	94.630	0.090	-0.590	0.770
2020/01/31 22:12:51.1	94.670	0.150	-0.710	0.680
2020/01/31 22:12:51.2	94.720	0.200	-0.840	0.590
2020/01/31 22:12:51.3	94.760	0.260	-0.950	0.490
2020/01/31 22:12:51.4	94.810	0.310	-1.060	0.400
2020/01/31 22:12:51.5	94.860	0.360	-1.160	0.310
2020/01/31 22:12:51.6	94.910	0.410	-1.260	0.210
2020/01/31 22:12:51.7	94.950	0.460	-1.340	0.130
2020/01/31 22:12:51.8	94.990	0.500	-1.410	0.040
2020/01/31 22:12:51.9	95.040	0.540	-1.470	-0.050
2020/01/31 22:12:52.0	95.070	0.580	-1.520	-0.130
2020/01/31 22:12:52.1	95.110	0.610	-1.560	-0.210
2020/01/31 22:12:52.2	95.140	0.640	-1.580	-0.280
2020/01/31 22:12:52.3	95.180	0.660	-1.590	-0.350
2020/01/31 22:12:52.4	95.200	0.680	-1.590	-0.420
2020/01/31 22:12:52.5	95.230	0.700	-1.580	-0.480
2020/01/31 22:12:52.6	95.250	0.710	-1.550	-0.540
2020/01/31 22:12:52.7	95.270	0.710	-1.510	-0.590
2020/01/31 22:12:52.8	95.280	0.720	-1.460	-0.640
2020/01/31 22:12:52.9	95.290	0.710	-1.400	-0.680
2020/01/31 22:12:53.0	95.300	0.700	-1.330	-0.720
2020/01/31 22:12:53.1	95.310	0.690	-1.250	-0.750
2020/01/31 22:12:53.2	95.310	0.680	-1.160	-0.780
2020/01/31 22:12:53.3	95.310	0.660	-1.070	-0.810
2020/01/31 22:12:53.4	95.310	0.630	-0.970	-0.820
2020/01/31 22:12:53.5	95.300	0.600	-0.860	-0.840
2020/01/31 22:12:53.6	95.290	0.570	-0.750	-0.850
2020/01/31 22:12:53.7	95.280	0.540	-0.630	-0.850
2020/01/31 22:12:53.8	95.270	0.500	-0.520	-0.850
2020/01/31 22:12:53.9	95.260	0.470	-0.400	-0.840
2020/01/31 22:12:54.0	95.250	0.430	-0.290	-0.830
2020/01/31 22:12:54.1	95.240	0.380	-0.170	-0.810
2020/01/31 22:12:54.2	95.220	0.340	-0.050	-0.790
2020/01/31 22:12:54.3	95.210	0.300	0.060	-0.770
2020/01/31 22:12:54.4	95.190	0.250	0.170	-0.740
2020/01/31 22:12:54.5	95.170	0.210	0.270	-0.710
2020/01/31 22:12:54.6	95.160	0.160	0.370	-0.670
2020/01/31 22:12:54.7	95.140	0.120	0.460	-0.630
2020/01/31 22:12:54.8	95.120	0.070	0.550	-0.590
2020/01/31 22:12:54.9	95.110	0.030	0.630	-0.550
2020/01/31 22:12:55.0	95.090	-0.010	0.700	-0.500
2020/01/31 22:12:55.1	95.080	-0.050	0.770	-0.450
2020/01/31 22:12:55.2	95.060	-0.090	0.820	-0.400
2020/01/31 22:12:55.3	95.050	-0.130	0.870	-0.340
2020/01/31 22:12:55.4	95.030	-0.170	0.910	-0.280
2020/01/31 22:12:55.5	95.010	-0.200	0.940	-0.220
2020/01/31 22:12:55.6	95.000	-0.230	0.960	-0.160
2020/01/31 22:12:55.7	94.990	-0.260	0.980	-0.090
2020/01/31 22:12:55.8	94.970	-0.290	0.980	-0.020
2020/01/31 22:12:55.9	94.960	-0.320	0.980	0.050
2020/01/31 22:12:56.0	94.950	-0.340	0.960	0.120
2020/01/31 22:12:56.1	94.940	-0.360	0.950	0.190
2020/01/31 22:12:56.2	94.920	-0.380	0.920	0.260
2020/01/31 22:12:56.3	94.910	-0.400	0.890	0.340
2020/01/31 22:12:56.4	94.890	-0.410	0.850	0.410
2020/01/31 22:12:56.5	94.880	-0.420	0.800	0.490
2020/01/31 22:12:56.6	94.860	-0.430	0.750	0.560
2020/01/31 22:12:56.7	94.840	-0.440	0.700	0.640
2020/01/31 22:12:56.8	94.830	-0.440	0.640	0.710
2020/01/31 22:12:56.9	94.810	-0.450	0.580	0.790
2020/01/31 22:12:57.0	94.790	-0.450	0.510	0.870
2020/01/31 22:12:57.1	94.780	-0.450	0.450	0.940
2020/01/31 22:12:57.2	94.760	-0.450	0.380	1.020
2020/01/31 22:12:57.3	94.740	-0.450	0.300	1.090
2020/01/31 22:12:57.4	94.720	-0.440	0.230	1.160
2020/01/31 22:12:57.5	94.700	-0.440	0.160	1.230
2020/01/31 22:12:57.6	94.680	-0.440	0.090	1.290
2020/01/31 22:12:57.7	94.660	-0.430	0.020	1.360
2020/01/31 22:12:57.8	94.640	-0.420	-0.050	1.420
2020/01/31 22:12:57.9	94.620	-0.420	-0.120	1.480
2020/01/31 22:12:58.0	94.610	-0.410	-0.190	1.530
2020/01/31 22:12:58.1	94.590	-0.400	-0.250	1.580
2020/01/31 22:12:58.2	94.580	-0.400	-0.310	1.630
2020/01/31 22:12:58.3	94.560	-0.390	-0.370	1.670
2020/01/31 22:12:58.4	94.550	-0.380	-0.420	1.710
2020/01/31 22:12:58.5	94.540	-0.370	-0.470	1.740
2020/01/31 22:12:58.6	94.530	-0.360	-0.510	1.770
2020/01/31 22:12:58.7	94.520	-0.360	-0.550	1.800
2020/01/31 22:12:58.8	94.510	-0.350	-0.590	1.810
2020/01/31 22:12:58.9	94.510	-0.340	-0.620	1.830
2020/01/31 22:12:59.0	94.510	-0.330	-0.650	1.830
2020/01/31 22:12:59.1	94.510	-0.320	-0.670	1.840
2020/01/31 22:12:59.2	94.510	-0.310	-0.690	1.830
2020/01/31 22:12:59.3	94.520	-0.300	-0.710	1.830
2020/01/31 22:12:59.4	94.520	-0.280	-0.720	1.810
2020/01/31 22:12:59.5	94.530	-0.270	-0.720	1.790
2020/01/31 22:12:59.6	94.540	-0.260	-0.730	1.770
2020/01/31 22:12:59.7	94.540	-0.240	-0.730	1.740
2020/01/31 22:12:59.8	94.550	-0.230	-0.730	1.710
2020/01/31 22:12:59.9	94.560	-0.210	-0.730	1.680
2020/01/31 22:13:00.0	94.580	-0.190	-0.720	1.640
2020/01/31 22:13:00.1	94.590	-0.170	-0.720	1.600
2020/01/31 22:13:00.2	94.600	-0.150	-0.710	1.550
2020/01/31 22:13:00.3	94.610	-0.130	-0.700	1.510
2020/01/31 22:13:00.4	94.620	-0.110	-0.680	1.460
2020/01/31 22:13:00.5	94.630	-0.090	-0.670	1.410
2020/01/31 22:13:00.6	94.650	-0.060	-0.660	1.360
2020/01/31 22:13:00.7	94.660	-0.040	-0.640	1.300
2020/01/31 22:13:00.8	94.670	-0.010	-0.630	1.250
2020/01/31 22:13:00.9	94.670	0.010	-0.610	1.200
2020/01/31 22:13:01.0	94.690	0.040	-0.590	1.140
2020/01/31 22:13:01.1	94.700	0.070	-0.580	1.090
2020/01/31 22:13:01.2	94.700	0.100	-0.560	1.030
2020/01/31 22:13:01.3	94.710	0.120	-0.550	0.980
2020/01/31 22:13:01.4	94.710	0.150	-0.530	0.920
2020/01/31 22:13:01.5	94.720	0.180	-0.520	0.860
2020/01/31 22:13:01.6	94.720	0.210	-0.510	0.810
2020/01/31 22:13:01.7	94.730	0.240	-0.500	0.750
2020/01/31 22:13:01.8	94.730	0.260	-0.490	0.700
2020/01/31 22:13:01.9	94.730	0.290	-0.470	0.640
2020/01/31 22:13:02.0	94.740	0.320	-0.470	0.580
2020/01/31 22:13:02.1	94.740	0.340	-0.460	0.530
2020/01/31 22:13:02.2	94.740	0.370	-0.450	0.470
2020/01/31 22:13:02.3	94.750	0.390	-0.440	0.420
2020/01/31 22:13:02.4	94.750	0.410	-0.440	0.360
2020/01/31 22:13:02.5	94.750	0.430	-0.430	0.310
2020/01/31 22:13:02.6	94.750	0.450	-0.430	0.250
2020/01/31 22:13:02.7	94.750	0.470	-0.420	0.200
2020/01/31 22:13:02.8	94.750	0.480	-0.420	0.150
2020/01/31 22:13:02.9	94.760	0.500	-0.410	0.100
2020/01/31 22:13:03.0	94.760	0.510	-0.400	0.050
2020/01/31 22:13:03.1	94.760	0.520	-0.400	-0.000
2020/01/31 22:13:03.2	94.760	0.520	-0.390	-0.050
2020/01/31 22:13:03.3	94.760	0.530	-0.380	-0.090
2020/01/31 22:13:03.4	94.750	0.530	-0.370	-0.140
2020/01/31 22:13:03.5	94.750	0.530	-0.360	-0.180
2020/01/31 22:13:03.6	94.740	0.530	-0.350	-0.220
2020/01/31 22:13:03.7	94.740	0.520	-0.330	-0.250
2020/01/31 22:13:03.8	94.730	0.520	-0.320	-0.290
2020/01/31 22:13:03.9	94.720	0.510	-0.300	-0.320
2020/01/31 22:13:04.0	94.710	0.490	-0.280	-0.350
2020/01/31 22:13:04.1	94.690	0.480	-0.260	-0.370
2020/01/31 22:13:04.2	94.680	0.460	-0.230	-0.400
2020/01/31 22:13:04.3	94.660	0.440	-0.200	-0.420
2020/01/31 22:13:04.4	94.640	0.420	-0.180	-0.440
2020/01/31 22:13:04.5	94.620	0.400	-0.150	-0.450
2020/01/31 22:13:04.6	94.600	0.380	-0.110	-0.460
2020/01/31 22:13:04.7	94.580	0.350	-0.080	-0.470
2020/01/31 22:13:04.8	94.560	0.320	-0.040	-0.480
2020/01/31 22:13:04.9	94.530	0.290	-0.010	-0.490
2020/01/31 22:13:05.0	94.500	0.260	0.030	-0.490
2020/01/31 22:13:05.1	94.470	0.230	0.070	-0.490
2020/01/31 22:13:05.2	94.440	0.200	0.100	-0.480
2020/01/31 22:13:05.3	94.420	0.160	0.140	-0.480
2020/01/31 22:13:05.4	94.390	0.130	0.180	-0.470
2020/01/31 22:13:05.5	94.360	0.100	0.220	-0.460
2020/01/31 22:13:05.6	94.330	0.060	0.250	-0.450
2020/01/31 22:13:05.7	94.300	0.030	0.280	-0.430
2020/01/31 22:13:05.8	94.270	-0.010	0.320	-0.410
2020/01/31 22:13:05.9	94.240	-0.040	0.350	-0.390
2020/01/31 22:13:06.0	94.200	-0.070	0.380	-0.370
2020/01/31 22:13:06.1	94.170	-0.110	0.410	-0.350
2020/01/31 22:13:06.2	94.150	-0.140	0.430	-0.330
2020/01/31 22:13:06.3	94.120	-0.170	0.450	-0.300
2020/01/31 22:13:06.4	94.100	-0.200	0.470	-0.270
2020/01/31 22:13:06.5	94.070	-0.230	0.490	-0.250
2020/01/31 22:13:06.6	94.050	-0.250	0.500	-0.220
2020/01/31 22:13:06.7	94.030	-0.280	0.510	-0.190
2020/01/31 22:13:06.8	94.010	-0.300	0.520	-0.160
2020/01/31 22:13:06.9	93.990	-0.320	0.520	-0.130
2020/01/31 22:13:07.0	93.970	-0.340	0.520	-0.110
2020/01/31 22:13:07.1	93.950	-0.360	0.520	-0.080
2020/01/31 22:13:07.2	93.940	-0.370	0.520	-0.050
2020/01/31 22:13:07.3	93.930	-0.390	0.500	-0.030
2020/01/31 22:13:07.4	93.920	-0.400	0.490	-0.010
2020/01/31 22:13:07.5	93.910	-0.400	0.470	0.010
2020/01/31 22:13:07.6	93.910	-0.410	0.450	0.030
2020/01/31 22:13:07.7	93.910	-0.410	0.420	0.050
2020/01/31 22:13:07.8	93.910	-0.410	0.390	0.060
2020/01/31 22:13:07.9	93.910	-0.400	0.360	0.070
2020/01/31 22:13:08.0	93.910	-0.400	0.320	0.080
2020/01/31 22:13:08.1	93.920	-0.390	0.270	0.080
2020/01/31 22:13:08.2	93.930	-0.370	0.230	0.080
2020/01/31 22:13:08.3	93.940	-0.360	0.180	0.070
2020/01/31 22:13:08.4	93.960	-0.340	0.120	0.060
2020/01/31 22:13:08.5	93.980	-0.320	0.060	0.050
2020/01/31 22:13:08.6	94.010	-0.290	0.000	0.030
2020/01/31 22:13:08.7	94.030	-0.260	-0.060	0.020
2020/01/31 22:13:08.8	94.060	-0.230	-0.130	-0.010
2020/01/31 22:13:08.9	94.090	-0.200	-0.200	-0.030
2020/01/31 22:13:09.0	94.130	-0.170	-0.270	-0.060
2020/01/31 22:13:09.1	94.170	-0.130	-0.340	-0.090
2020/01/31 22:13:09.2	94.200	-0.090	-0.410	-0.120
2020/01/31 22:13:09.3	94.250	-0.050	-0.480	-0.160
2020/01/31 22:13:09.4	94.290	-0.010	-0.550	-0.190
2020/01/31 22:13:09.5	94.330	0.030	-0.620	-0.220
2020/01/31 22:13:09.6	94.370	0.080	-0.680	-0.250
2020/01/31 22:13:09.7	94.420	0.120	-0.750	-0.280
2020/01/31 22:13:09.8	94.460	0.160	-0.810	-0.310
2020/01/31 22:13:09.9	94.500	0.210	-0.870	-0.330
2020/01/31 22:13:10.0	94.550	0.250	-0.920	-0.340
2020/01/31 22:13:10.1	94.590	0.290	-0.970	-0.360
2020/01/31 22:13:10.2	94.620	0.330	-1.010	-0.370
2020/01/31 22:13:10.3	94.650	0.370	-1.050	-0.370
2020/01/31 22:13:10.4	94.680	0.400	-1.080	-0.370
2020/01/31 22:13:10.5	94.710	0.440	-1.110	-0.370
2020/01/31 22:13:10.6	94.740	0.470	-1.130	-0.350
2020/01/31 22:13:10.7	94.760	0.500	-1.140	-0.340
2020/01/31 22:13:10.8	94.770	0.520	-1.150	-0.310
2020/01/31 22:13:10.9	94.790	0.540	-1.150	-0.280
2020/01/31 22:13:11.0	94.800	0.560	-1.140	-0.250
2020/01/31 22:13:11.1	94.810	0.570	-1.120	-0.210
2020/01/31 22:13:11.2	94.810	0.580	-1.100	-0.160
2020/01/31 22:13:11.3	94.810	0.580	-1.070	-0.110
2020/01/31 22:13:11.4	94.810	0.580	-1.030	-0.060
2020/01/31 22:13:11.5	94.810	0.580	-0.990	-0.000
2020/01/31 22:13:11.6	94.800	0.570	-0.940	0.060
2020/01/31 22:13:11.7	94.790	0.560	-0.880	0.120
2020/01/31 22:13:11.8	94.770	0.540	-0.820	0.190
2020/01/31 22:13:11.9	94.760	0.520	-0.750	0.260
2020/01/31 22:13:12.0	94.750	0.490	-0.680	0.330
2020/01/31 22:13:12.1	94.730	0.460	-0.600	0.410
2020/01/31 22:13:12.2	94.710	0.430	-0.520	0.490
2020/01/31 22:13:12.3	94.690	0.390	-0.430	0.560
2020/01/31 22:13:12.4	94.670	0.350	-0.350	0.640
2020/01/31 22:13:12.5	94.640	0.310	-0.260	0.720
2020/01/31 22:13:12.6	94.620	0.260	-0.170	0.790
2020/01/31 22:13:12.7	94.600	0.220	-0.080	0.870
2020/01/31 22:13:12.8	94.580	0.170	0.000	0.950
2020/01/31 22:13:12.9	94.560	0.120	0.090	1.020
2020/01/31 22:13:13.0	94.540	0.070	0.170	1.090
2020/01/31 22:13:13.1	94.520	0.020	0.250	1.160
2020/01/31 22:13:13.2	94.500	-0.040	0.330	1.220
2020/01/31 22:13:13.3	94.480	-0.090	0.400	1.280
2020/01/31 22:13:13.4	94.470	-0.140	0.470	1.340
2020/01/31 22:13:13.5	94.450	-0.190	0.530	1.390
2020/01/31 22:13:13.6	94.440	-0.240	0.590	1.440
2020/01/31 22:13:13.7	94.420	-0.280	0.640	1.490
2020/01/31 22:13:13.8	94.410	-0.330	0.680	1.530
2020/01/31 22:13:13.9	94.400	-0.370	0.720	1.570
2020/01/31 22:13:14.0	94.390	-0.410	0.750	1.600
2020/01/31 22:13:14.1	94.390	-0.450	0.770	1.630
2020/01/31 22:13:14.2	94.380	-0.480	0.780	1.660
2020/01/31 22:13:14.3	94.380	-0.510	0.790	1.680
2020/01/31 22:13:14.4	94.370	-0.540	0.790	1.690
2020/01/31 22:13:14.5	94.370	-0.560	0.780	1.710
2020/01/31 22:13:14.6	94.370	-0.580	0.770	1.720
2020/01/31 22:13:14.7	94.360	-0.590	0.740	1.720
2020/01/31 22:13:14.8	94.360	-0.610	0.710	1.730
2020/01/31 22:13:14.9	94.360	-0.610	0.680	1.730
2020/01/31 22:13:15.0	94.360	-0.620	0.640	1.720
2020/01/31 22:13:15.1	94.360	-0.620	0.600	1.720
2020/01/31 22:13:15.2	94.360	-0.620	0.550	1.710
2020/01/31 22:13:15.3	94.360	-0.610	0.490	1.700
2020/01/31 22:13:15.4	94.360	-0.600	0.430	1.690
2020/01/31 22:13:15.5	94.370	-0.590	0.370	1.680
2020/01/31 22:13:15.6	94.370	-0.570	0.310	1.660
2020/01/31 22:13:15.7	94.380	-0.550	0.240	1.640
2020/01/31 22:13:15.8	94.380	-0.530	0.180	1.620
2020/01/31 22:13:15.9	94.390	-0.510	0.110	1.600
2020/01/31 22:13:16.0	94.400	-0.480	0.030	1.570
2020/01/31 22:13:16.1	94.400	-0.450	-0.040	1.550
2020/01/31 22:13:16.2	94.410	-0.420	-0.110	1.520
2020/01/31 22:13:16.3	94.420	-0.390	-0.170	1.490
2020/01/31 22:13:16.4	94.430	-0.360	-0.240	1.460
2020/01/31 22:13:16.5	94.440	-0.330	-0.310	1.430
2020/01/31 22:13:16.6	94.450	-0.300	-0.370	1.390
2020/01/31 22:13:16.7	94.470	-0.260	-0.430	1.360
2020/01/31 22:13:16.8	94.480	-0.230	-0.490	1.330
2020/01/31 22:13:16.9	94.490	-0.200	-0.540	1.290
2020/01/31 22:13:17.0	94.510	-0.160	-0.590	1.250
2020/01/31 22:13:17.1	94.520	-0.130	-0.640	1.210
2020/01/31 22:13:17.2	94.530	-0.100	-0.680	1.170
2020/01/31 22:13:17.3	94.550	-0.070	-0.720	1.130
2020/01/31 22:13:17.4	94.560	-0.040	-0.750	1.090
2020/01/31 22:13:17.5	94.570	-0.010	-0.780	1.050
2020/01/31 22:13:17.6	94.580	0.020	-0.810	1.000
2020/01/31 22:13:17.7	94.600	0.050	-0.820	0.960
2020/01/31 22:13:17.8	94.610	0.070	-0.840	0.910
2020/01/31 22:13:17.9	94.620	0.090	-0.840	0.860
2020/01/31 22:13:18.0	94.630	0.110	-0.850	0.810
2020/01/31 22:13:18.1	94.640	0.130	-0.840	0.760
2020/01/31 22:13:18.2	94.650	0.150	-0.830	0.710
2020/01/31 22:13:18.3	94.650	0.160	-0.820	0.650
2020/01/31 22:13:18.4	94.660	0.180	-0.800	0.590
2020/01/31 22:13:18.5	94.660	0.190	-0.780	0.540
2020/01/31 22:13:18.6	94.660	0.200	-0.750	0.480
2020/01/31 22:13:18.7	94.660	0.210	-0.720	0.410
2020/01/31 22:13:18.8	94.660	0.210	-0.680	0.350
2020/01/31 22:13:18.9	94.660	0.220	-0.640	0.290
2020/01/31 22:13:19.0	94.660	0.220	-0.600	0.220
2020/01/31 22:13:19.1	94.650	0.220	-0.560	0.150
2020/01/31 22:13:19.2	94.650	0.220	-0.510	0.080
2020/01/31 22:13:19.3	94.650	0.230	-0.460	0.020
2020/01/31 22:13:19.4	94.640	0.230	-0.410	-0.050
2020/01/31 22:13:19.5	94.640	0.230	-0.350	-0.120
2020/01/31 22:13:19.6	94.640	0.220	-0.300	-0.190
2020/01/31 22:13:19.7	94.630	0.220	-0.250	-0.260
2020/01/31 22:13:19.8	94.630	0.220	-0.200	-0.330
2020/01/31 22:13:19.9	94.630	0.220	-0.150	-0.400
2020/01/31 22:13:20.0	94.640	0.230	-0.100	-0.470
2020/01/31 22:13:20.1	94.640	0.230	-0.060	-0.530
2020/01/31 22:13:20.2	94.640	0.230	-0.020	-0.600
2020/01/31 22:13:20.3	94.650	0.230	0.020	-0.660
2020/01/31 22:13:20.4	94.660	0.240	0.050	-0.730
2020/01/31 22:13:20.5	94.660	0.240	0.080	-0.790
2020/01/31 22:13:20.6	94.670	0.250	0.110	-0.850
2020/01/31 22:13:20.7	94.680	0.260	0.130	-0.900
2020/01/31 22:13:20.8	94.690	0.270	0.140	-0.960
2020/01/31 22:13:20.9	94.700	0.280	0.150	-1.010
2020/01/31 22:13:21.0	94.710	0.290	0.160	-1.050
2020/01/31 22:13:21.1	94.720	0.300	0.160	-1.090
2020/01/31 22:13:21.2	94.740	0.320	0.160	-1.130
2020/01/31 22:13:21.3	94.750	0.330	0.150	-1.160
2020/01/31 22:13:21.4	94.760	0.350	0.140	-1.190
2020/01/31 22:13:21.5	94.770	0.360	0.120	-1.210
2020/01/31 22:13:21.6	94.780	0.380	0.100	-1.220
2020/01/31 22:13:21.7	94.790	0.390	0.080	-1.230
2020/01/31 22:13:21.8	94.790	0.410	0.060	-1.240
2020/01/31 22:13:21.9	94.800	0.420	0.030	-1.240
2020/01/31 22:13:22.0	94.800	0.440	-0.010	-1.230
2020/01/31 22:13:22.1	94.800	0.450	-0.040	-1.220
2020/01/31 22:13:22.2	94.800	0.460	-0.070	-1.200
2020/01/31 22:13:22.3	94.800	0.470	-0.100	-1.180
2020/01/31 22:13:22.4	94.800	0.480	-0.130	-1.160
2020/01/31 22:13:22.5	94.800	0.490	-0.170	-1.130
2020/01/31 22:13:22.6	94.800	0.490	-0.200	-1.090
2020/01/31 22:13:22.7	94.800	0.490	-0.230	-1.050
2020/01/31 22:13:22.8	94.790	0.490	-0.260	-1.010
2020/01/31 22:13:22.9	94.790	0.490	-0.280	-0.970
2020/01/31 22:13:23.0	94.790	0.490	-0.310	-0.920
2020/01/31 22:13:23.1	94.780	0.480	-0.330	-0.870
2020/01/31 22:13:23.2	94.780	0.470	-0.350	-0.820
2020/01/31 22:13:23.3	94.780	0.460	-0.370	-0.770
2020/01/31 22:13:23.4	94.780	0.440	-0.380	-0.710
2020/01/31 22:13:23.5	94.770	0.420	-0.400	-0.650
2020/01/31 22:13:23.6	94.770	0.400	-0.400	-0.600
2020/01/31 22:13:23.7	94.770	0.380	-0.410	-0.540
2020/01/31 22:13:23.8	94.770	0.350	-0.410	-0.480
2020/01/31 22:13:23.9	94.770	0.320	-0.410	-0.410
2020/01/31 22:13:24.0	94.770	0.290	-0.400	-0.350
2020/01/31 22:13:24.1	94.770	0.250	-0.400	-0.290
2020/01/31 22:13:24.2	94.770	0.220	-0.380	-0.220
2020/01/31 22:13:24.3	94.770	0.180	-0.370	-0.160
2020/01/31 22:13:24.4	94.770	0.140	-0.350	-0.090
2020/01/31 22:13:24.5	94.770	0.100	-0.330	-0.020
2020/01/31 22:13:24.6	94.770	0.060	-0.310	0.050
2020/01/31 22:13:24.7	94.770	0.010	-0.290	0.120
2020/01/31 22:13:24.8	94.770	-0.030	-0.260	0.190
2020/01/31 22:13:24.9	94.770	-0.070	-0.230	0.260
2020/01/31 22:13:25.0	94.770	-0.120	-0.200	0.330
2020/01/31 22:13:25.1	94.770	-0.160	-0.170	0.410
2020/01/31 22:13:25.2	94.770	-0.200	-0.150	0.480
2020/01/31 22:13:25.3	94.770	-0.250	-0.120	0.560
2020/01/31 22:13:25.4	94.770	-0.290	-0.090	0.630
2020/01/31 22:13:25.5	94.770	-0.330	-0.060	0.710
2020/01/31 22:13:25.6	94.770	-0.370	-0.030	0.790
2020/01/31 22:13:25.7	94.770	-0.410	-0.000	0.870
2020/01/31 22:13:25.8	94.770	-0.440	0.020	0.940
2020/01/31 22:13:25.9	94.770	-0.480	0.050	1.020
2020/01/31 22:13:26.0	94.770	-0.510	0.070	1.100
2020/01/31 22:13:26.1	94.770	-0.540	0.090	1.180
2020/01/31 22:13:26.2	94.770	-0.560	0.100	1.250
2020/01/31 22:13:26.3	94.770	-0.590	0.120	1.320
2020/01/31 22:13:26.4	94.770	-0.610	0.130	1.390
2020/01/31 22:13:26.5	94.770	-0.630	0.150	1.460
2020/01/31 22:13:26.6	94.780	-0.640	0.160	1.520
2020/01/31 22:13:26.7	94.780	-0.650	0.160	1.580
2020/01/31 22:13:26.8	94.790	-0.660	0.160	1.640
2020/01/31 22:13:26.9	94.790	-0.670	0.170	1.690
2020/01/31 22:13:27.0	94.800	-0.670	0.170	1.740
2020/01/31 22:13:27.1	94.810	-0.670	0.160	1.790
2020/01/31 22:13:27.2	94.830	-0.660	0.150	1.830
2020/01/31 22:13:27.3	94.840	-0.650	0.140	1.860
2020/01/31 22:13:27.4	94.860	-0.640	0.130	1.900
2020/01/31 22:13:27.5	94.870	-0.620	0.110	1.920
2020/01/31 22:13:27.6	94.890	-0.610	0.100	1.950
2020/01/31 22:13:27.7	94.910	-0.580	0.080	1.970
2020/01/31 22:13:27.8	94.930	-0.560	0.060	1.980
2020/01/31 22:13:27.9	94.950	-0.530	0.030	1.990
2020/01/31 22:13:28.0	94.970	-0.510	0.010	2.000
2020/01/31 22:13:28.1	94.990	-0.470	-0.020	2.010
2020/01/31 22:13:28.2	95.020	-0.440	-0.040	2.010
2020/01/31 22:13:28.3	95.040	-0.410	-0.070	2.000
2020/01/31 22:13:28.4	95.060	-0.370	-0.090	2.000
2020/01/31 22:13:28.5	95.080	-0.330	-0.120	1.990
2020/01/31 22:13:28.6	95.110	-0.300	-0.140	1.980
2020/01/31 22:13:28.7	95.130	-0.260	-0.170	1.970
2020/01/31 22:13:28.8	95.140	-0.220	-0.190	1.960
2020/01/31 22:13:28.9	95.160	-0.180	-0.210	1.940
2020/01/31 22:13:29.0	95.180	-0.150	-0.230	1.920
2020/01/31 22:13:29.1	95.200	-0.110	-0.250	1.900
2020/01/31 22:13:29.2	95.210	-0.070	-0.260	1.880
2020/01/31 22:13:29.3	95.220	-0.040	-0.280	1.860
2020/01/31 22:13:29.4	95.230	-0.000	-0.290	1.830
2020/01/31 22:13:29.5	95.230	0.030	-0.300	1.810
2020/01/31 22:13:29.6	95.240	0.060	-0.300	1.780
2020/01/31 22:13:29.7	95.240	0.090	-0.310	1.750
2020/01/31 22:13:29.8	95.240	0.110	-0.310	1.720
2020/01/31 22:13:29.9	95.230	0.140	-0.320	1.690
2020/01/31 22:13:30.0	95.230	0.160	-0.310	1.660
2020/01/31 22:13:30.1	95.220	0.180	-0.310	1.630
2020/01/31 22:13:30.2	95.210	0.200	-0.310	1.590
2020/01/31 22:13:30.3	95.200	0.210	-0.310	1.550
2020/01/31 22:13:30.4	95.190	0.220	-0.300	1.520
2020/01/31 22:13:30.5	95.170	0.240	-0.300	1.480
2020/01/31 22:13:30.6	95.150	0.240	-0.290	1.430
2020/01/31 22:13:30.7	95.140	0.250	-0.290	1.390
2020/01/31 22:13:30.8	95.120	0.260	-0.280	1.350
2020/01/31 22:13:30.9	95.100	0.260	-0.280	1.300
2020/01/31 22:13:31.0	95.080	0.260	-0.270	1.250
2020/01/31 22:13:31.1	95.060	0.270	-0.270	1.200
2020/01/31 22:13:31.2	95.040	0.270	-0.260	1.150
2020/01/31 22:13:31.3	95.020	0.270	-0.260	1.090
2020/01/31 22:13:31.4	95.000	0.270	-0.260	1.040
2020/01/31 22:13:31.5	94.980	0.270	-0.260	0.980
2020/01/31 22:13:31.6	94.970	0.270	-0.260	0.920
2020/01/31 22:13:31.7	94.950	0.270	-0.270	0.860
2020/01/31 22:13:31.8	94.940	0.260	-0.270	0.800
2020/01/31 22:13:31.9	94.920	0.260	-0.280	0.740
2020/01/31 22:13:32.0	94.910	0.260	-0.290	0.670
2020/01/31 22:13:32.1	94.910	0.260	-0.290	0.610
2020/01/31 22:13:32.2	94.900	0.270	-0.300	0.540
2020/01/31 22:13:32.3	94.890	0.270	-0.310	0.470
2020/01/31 22:13:32.4	94.890	0.270	-0.330	0.400
2020/01/31 22:13:32.5	94.890	0.270	-0.340	0.330
2020/01/31 22:13:32.6	94.890	0.270	-0.350	0.260
2020/01/31 22:13:32.7	94.890	0.280	-0.360	0.180
2020/01/31 22:13:32.8	94.900	0.280	-0.370	0.110
2020/01/31 22:13:32.9	94.900	0.280	-0.380	0.030
2020/01/31 22:13:33.0	94.910	0.280	-0.380	-0.050
2020/01/31 22:13:33.1	94.920	0.290	-0.390	-0.120
2020/01/31 22:13:33.2	94.920	0.290	-0.390	-0.190
2020/01/31 22:13:33.3	94.930	0.290	-0.400	-0.270
2020/01/31 22:13:33.4	94.940	0.290	-0.400	-0.340
2020/01/31 22:13:33.5	94.950	0.290	-0.390	-0.410
2020/01/31 22:13:33.6	94.950	0.290	-0.390	-0.480
2020/01/31 22:13:33.7	94.960	0.290	-0.380	-0.550
2020/01/31 22:13:33.8	94.960	0.290	-0.370	-0.610
2020/01/31 22:13:33.9	94.970	0.290	-0.360	-0.670
2020/01/31 22:13:34.0	94.970	0.280	-0.340	-0.730
2020/01/31 22:13:34.1	94.970	0.280	-0.320	-0.780
2020/01/31 22:13:34.2	94.970	0.270	-0.300	-0.830
2020/01/31 22:13:34.3	94.970	0.260	-0.280	-0.880
2020/01/31 22:13:34.4	94.970	0.250	-0.250	-0.930
2020/01/31 22:13:34.5	94.970	0.240	-0.230	-0.970
2020/01/31 22:13:34.6	94.970	0.230	-0.200	-1.000
2020/01/31 22:13:34.7	94.970	0.220	-0.170	-1.030
2020/01/31 22:13:34.8	94.960	0.200	-0.140	-1.060
2020/01/31 22:13:34.9	94.960	0.190	-0.120	-1.080
2020/01/31 22:13:35.0	94.950	0.170	-0.090	-1.100
2020/01/31 22:13:35.1	94.950	0.150	-0.060	-1.120
2020/01/31 22:13:35.2	94.940	0.130	-0.040	-1.130
2020/01/31 22:13:35.3	94.940	0.120	-0.020	-1.130
2020/01/31 22:13:35.4	94.930	0.100	0.010	-1.130
2020/01/31 22:13:35.5	94.930	0.080	0.030	-1.130
2020/01/31 22:13:35.6	94.920	0.060	0.040	-1.130
2020/01/31 22:13:35.7	94.920	0.040	0.060	-1.120
2020/01/31 22:13:35.8	94.910	0.020	0.070	-1.110
2020/01/31 22:13:35.9	94.910	-0.000	0.080	-1.100
2020/01/31 22:13:36.0	94.910	-0.020	0.080	-1.080
2020/01/31 22:13:36.1	94.910	-0.040	0.080	-1.060
2020/01/31 22:13:36.2	94.920	-0.060	0.080	-1.040
2020/01/31 22:13:36.3	94.920	-0.070	0.080	-1.020
2020/01/31 22:13:36.4	94.920	-0.090	0.070	-1.000
2020/01/31 22:13:36.5	94.930	-0.100	0.060	-0.970
2020/01/31 22:13:36.6	94.940	-0.120	0.040	-0.950
2020/01/31 22:13:36.7	94.950	-0.130	0.030	-0.920
2020/01/31 22:13:36.8	94.960	-0.140	0.010	-0.890
2020/01/31 22:13:36.9	94.970	-0.150	-0.020	-0.860
2020/01/31 22:13:37.0	94.970	-0.150	-0.040	-0.830
2020/01/31 22:13:37.1	94.990	-0.160	-0.070	-0.790
2020/01/31 22:13:37.2	95.000	-0.160	-0.100	-0.750
2020/01/31 22:13:37.3	95.020	-0.170	-0.120	-0.710
2020/01/31 22:13:37.4	95.030	-0.170	-0.150	-0.670
2020/01/31 22:13:37.5	95.050	-0.170	-0.180	-0.630
2020/01/31 22:13:37.6	95.060	-0.170	-0.210	-0.580
2020/01/31 22:13:37.7	95.080	-0.170	-0.240	-0.520
2020/01/31 22:13:37.8	95.100	-0.170	-0.260	-0.470
2020/01/31 22:13:37.9	95.110	-0.170	-0.280	-0.410
2020/01/31 22:13:38.0	95.130	-0.160	-0.310	-0.340
2020/01/31 22:13:38.1	95.140	-0.160	-0.330	-0.280
2020/01/31 22:13:38.2	95.150	-0.160	-0.340	-0.210
2020/01/31 22:13:38.3	95.170	-0.150	-0.350	-0.140
2020/01/31 22:13:38.4	95.180	-0.150	-0.360	-0.070
2020/01/31 22:13:38.5	95.190	-0.150	-0.370	0.010
2020/01/31 22:13:38.6	95.190	-0.150	-0.370	0.090
2020/01/31 22:13:38.7	95.200	-0.150	-0.370	0.170
2020/01/31 22:13:38.8	95.210	-0.150	-0.370	0.250
2020/01/31 22:13:38.9	95.210	-0.150	-0.360	0.330
2020/01/31 22:13:39.0	95.220	-0.150	-0.350	0.420
2020/01/31 22:13:39.1	95.230	-0.150	-0.330	0.510
2020/01/31 22:13:39.2	95.230	-0.150	-0.310	0.600
2020/01/31 22:13:39.3	95.230	-0.150	-0.290	0.690
2020/01/31 22:13:39.4	95.230	-0.160	-0.270	0.780
2020/01/31 22:13:39.5	95.230	-0.160	-0.250	0.870
2020/01/31 22:13:39.6	95.220	-0.170	-0.220	0.960
2020/01/31 22:13:39.7	95.220	-0.180	-0.190	1.050
2020/01/31 22:13:39.8	95.220	-0.180	-0.160	1.140
2020/01/31 22:13:39.9	95.220	-0.190	-0.130	1.220
2020/01/31 22:13:40.0	95.220	-0.200	-0.090	1.310
2020/01/31 22:13:40.1	95.220	-0.210	-0.060	1.400
2020/01/31 22:13:40.2	95.220	-0.220	-0.030	1.480
2020/01/31 22:13:40.3	95.220	-0.230	0.000	1.560
2020/01/31 22:13:40.4	95.220	-0.230	0.040	1.640
2020/01/31 22:13:40.5	95.220	-0.240	0.060	1.720
2020/01/31 22:13:40.6	95.230	-0.250	0.090	1.790
2020/01/31 22:13:40.7	95.230	-0.260	0.120	1.860
2020/01/31 22:13:40.8	95.240	-0.260	0.140	1.920
2020/01/31 22:13:40.9	95.240	-0.270	0.160	1.980
2020/01/31 22:13:41.0	95.250	-0.270	0.180	2.030
2020/01/31 22:13:41.1	95.260	-0.270	0.200	2.080
2020/01/31 22:13:41.2	95.270	-0.270	0.210	2.130
2020/01/31 22:13:41.3	95.280	-0.270	0.220	2.170
2020/01/31 22:13:41.4	95.290	-0.270	0.220	2.210
2020/01/31 22:13:41.5	95.300	-0.260	0.230	2.240
2020/01/31 22:13:41.6	95.310	-0.260	0.230	2.270
2020/01/31 22:13:41.7	95.330	-0.250	0.220	2.290
2020/01/31 22:13:41.8	95.340	-0.240	0.210	2.310
2020/01/31 22:13:41.9	95.350	-0.230	0.200	2.330
2020/01/31 22:13:42.0	95.360	-0.210	0.190	2.340
2020/01/31 22:13:42.1	95.370	-0.200	0.170	2.340
2020/01/31 22:13:42.2	95.380	-0.180	0.150	2.350
2020/01/31 22:13:42.3	95.380	-0.160	0.130	2.350
2020/01/31 22:13:42.4	95.390	-0.140	0.110	2.340
2020/01/31 22:13:42.5	95.390	-0.120	0.080	2.340
2020/01/31 22:13:42.6	95.390	-0.090	0.050	2.330
2020/01/31 22:13:42.7	95.390	-0.070	0.020	2.310
2020/01/31 22:13:42.8	95.390	-0.040	-0.010	2.300
2020/01/31 22:13:42.9	95.390	-0.020	-0.040	2.280
2020/01/31 22:13:43.0	95.390	0.010	-0.070	2.250
2020/01/31 22:13:43.1	95.380	0.040	-0.110	2.230
2020/01/31 22:13:43.2	95.380	0.060	-0.140	2.200
2020/01/31 22:13:43.3	95.370	0.090	-0.170	2.160
2020/01/31 22:13:43.4	95.360	0.120	-0.210	2.130
2020/01/31 22:13:43.5	95.350	0.150	-0.240	2.090
2020/01/31 22:13:43.6	95.330	0.170	-0.270	2.050
2020/01/31 22:13:43.7	95.320	0.200	-0.300	2.000
2020/01/31 22:13:43.8	95.300	0.220	-0.330	1.950
2020/01/31 22:13:43.9	95.290	0.240	-0.360	1.900
2020/01/31 22:13:44.0	95.270	0.260	-0.390	1.840
2020/01/31 22:13:44.1	95.250	0.280	-0.410	1.780
2020/01/31 22:13:44.2	95.240	0.300	-0.440	1.720
2020/01/31 22:13:44.3	95.220	0.310	-0.460	1.650
2020/01/31 22:13:44.4	95.200	0.320	-0.480	1.580
2020/01/31 22:13:44.5	95.190	0.330	-0.500	1.510
2020/01/31 22:13:44.6	95.170	0.340	-0.520	1.430
2020/01/31 22:13:44.7	95.150	0.350	-0.540	1.360
2020/01/31 22:13:44.8	95.140	0.350	-0.550	1.280
2020/01/31 22:13:44.9	95.120	0.350	-0.570	1.200
2020/01/31 22:13:45.0	95.110	0.350	-0.580	1.110
2020/01/31 22:13:45.1	95.100	0.350	-0.590	1.030
2020/01/31 22:13:45.2	95.080	0.350	-0.600	0.940
2020/01/31 22:13:45.3	95.070	0.340	-0.610	0.860
2020/01/31 22:13:45.4	95.060	0.330	-0.610	0.770
2020/01/31 22:13:45.5	95.060	0.320	-0.620	0.690
2020/01/31 22:13:45.6	95.050	0.310	-0.620	0.600
2020/01/31 22:13:45.7	95.040	0.300	-0.620	0.520
2020/01/31 22:13:45.8	95.040	0.290	-0.620	0.430
2020/01/31 22:13:45.9	95.040	0.270	-0.620	0.350
2020/01/31 22:13:46.0	95.040	0.260	-0.610	0.270
2020/01/31 22:13:46.1	95.040	0.240	-0.610	0.190
2020/01/31 22:13:46.2	95.050	0.220	-0.600	0.110
2020/01/31 22:13:46.3	95.050	0.210	-0.590	0.030
2020/01/31 22:13:46.4	95.060	0.190	-0.580	-0.050
2020/01/31 22:13:46.5	95.070	0.170	-0.570	-0.120
2020/01/31 22:13:46.6	95.080	0.150	-0.550	-0.200
2020/01/31 22:13:46.7	95.100	0.140	-0.540	-0.270
2020/01/31 22:13:46.8	95.110	0.120	-0.520	-0.340
2020/01/31 22:13:46.9	95.130	0.100	-0.500	-0.400
2020/01/31 22:13:47.0	95.140	0.090	-0.480	-0.470
2020/01/31 22:13:47.1	95.160	0.070	-0.460	-0.530
2020/01/31 22:13:47.2	95.180	0.050	-0.440	-0.590
2020/01/31 22:13:47.3	95.200	0.040	-0.420	-0.640
2020/01/31 22:13:47.4	95.220	0.030	-0.400	-0.700
2020/01/31 22:13:47.5	95.250	0.010	-0.370	-0.750
2020/01/31 22:13:47.6	95.270	-0.000	-0.350	-0.790
2020/01/31 22:13:47.7	95.290	-0.010	-0.330	-0.840
2020/01/31 22:13:47.8	95.310	-0.030	-0.300	-0.880
2020/01/31 22:13:47.9	95.330	-0.040	-0.280	-0.910
2020/01/31 22:13:48.0	95.360	-0.050	-0.260	-0.950
2020/01/31 22:13:48.1	95.380	-0.060	-0.230	-0.970
2020/01/31 22:13:48.2	95.400	-0.060	-0.210	-1.000
2020/01/31 22:13:48.3	95.420	-0.070	-0.180	-1.020
2020/01/31 22:13:48.4	95.440	-0.080	-0.160	-1.040
2020/01/31 22:13:48.5	95.460	-0.090	-0.130	-1.050
2020/01/31 22:13:48.6	95.480	-0.090	-0.110	-1.060
2020/01/31 22:13:48.7	95.500	-0.100	-0.080	-1.070
2020/01/31 22:13:48.8	95.510	-0.110	-0.060	-1.070
2020/01/31 22:13:48.9	95.530	-0.110	-0.030	-1.070
2020/01/31 22:13:49.0	95.530	-0.120	-0.010	-1.060
2020/01/31 22:13:49.1	95.540	-0.120	0.020	-1.050
2020/01/31 22:13:49.2	95.550	-0.120	0.040	-1.030
2020/01/31 22:13:49.3	95.560	-0.130	0.060	-1.020
2020/01/31 22:13:49.4	95.570	-0.130	0.090	-1.000
2020/01/31 22:13:49.5	95.580	-0.130	0.110	-0.970
2020/01/31 22:13:49.6	95.580	-0.140	0.140	-0.940
2020/01/31 22:13:49.7	95.590	-0.140	0.160	-0.910
2020/01/31 22:13:49.8	95.590	-0.140	0.180	-0.880
2020/01/31 22:13:49.9	95.590	-0.140	0.200	-0.840
2020/01/31 22:13:50.0	95.590	-0.140	0.220	-0.800
2020/01/31 22:13:50.1	95.590	-0.150	0.240	-0.760
2020/01/31 22:13:50.2	95.590	-0.150	0.260	-0.720
2020/01/31 22:13:50.3	95.580	-0.150	0.280	-0.670
2020/01/31 22:13:50.4	95.580	-0.150	0.300	-0.630
2020/01/31 22:13:50.5	95.570	-0.150	0.310	-0.580
2020/01/31 22:13:50.6	95.570	-0.150	0.330	-0.530
2020/01/31 22:13:50.7	95.560	-0.150	0.340	-0.470
2020/01/31 22:13:50.8	95.560	-0.160	0.350	-0.420
2020/01/31 22:13:50.9	95.550	-0.160	0.360	-0.370
2020/01/31 22:13:51.0	95.540	-0.160	0.370	-0.310
2020/01/31 22:13:51.1	95.530	-0.160	0.380	-0.250
2020/01/31 22:13:51.2	95.520	-0.160	0.380	-0.200
2020/01/31 22:13:51.3	95.510	-0.160	0.380	-0.140
2020/01/31 22:13:51.4	95.500	-0.160	0.370	-0.080
2020/01/31 22:13:51.5	95.480	-0.160	0.370	-0.020
2020/01/31 22:13:51.6	95.470	-0.160	0.360	0.040
2020/01/31 22:13:51.7	95.460	-0.160	0.350	0.110
2020/01/31 22:13:51.8	95.450	-0.160	0.330	0.170
2020/01/31 22:13:51.9	95.430	-0.160	0.310	0.230
2020/01/31 22:13:52.0	95.420	-0.160	0.290	0.300
2020/01/31 22:13:52.1	95.410	-0.150	0.270	0.360
2020/01/31 22:13:52.2	95.400	-0.150	0.240	0.430
2020/01/31 22:13:52.3	95.390	-0.150	0.210	0.500
2020/01/31 22:13:52.4	95.380	-0.140	0.180	0.560
2020/01/31 22:13:52.5	95.370	-0.140	0.140	0.630
2020/01/31 22:13:52.6	95.360	-0.130	0.110	0.700
2020/01/31 22:13:52.7	95.350	-0.120	0.070	0.760
2020/01/31 22:13:52.8	95.350	-0.120	0.030	0.830
2020/01/31 22:13:52.9	95.350	-0.110	-0.020	0.890
2020/01/31 22:13:53.0	95.350	-0.100	-0.060	0.960
2020/01/31 22:13:53.1	95.350	-0.090	-0.100	1.020
2020/01/31 22:13:53.2	95.350	-0.080	-0.150	1.080
2020/01/31 22:13:53.3	95.360	-0.070	-0.200	1.140
2020/01/31 22:13:53.4	95.370	-0.060	-0.240	1.200
2020/01/31 22:13:53.5	95.380	-0.050	-0.290	1.250
2020/01/31 22:13:53.6	95.390	-0.040	-0.340	1.300
2020/01/31 22:13:53.7	95.400	-0.030	-0.380	1.350
2020/01/31 22:13:53.8	95.420	-0.010	-0.430	1.400
2020/01/31 22:13:53.9	95.440	-0.000	-0.470	1.440
2020/01/31 22:13:54.0	95.460	0.010	-0.520	1.480
2020/01/31 22:13:54.1	95.480	0.020	-0.560	1.510
2020/01/31 22:13:54.2	95.500	0.030	-0.600	1.550
2020/01/31 22:13:54.3	95.520	0.040	-0.640	1.580
2020/01/31 22:13:54.4	95.550	0.050	-0.670	1.600
2020/01/31 22:13:54.5	95.570	0.060	-0.710	1.620
2020/01/31 22:13:54.6	95.600	0.060	-0.740	1.640
2020/01/31 22:13:54.7	95.620	0.070	-0.760	1.650
2020/01/31 22:13:54.8	95.650	0.080	-0.790	1.660
2020/01/31 22:13:54.9	95.670	0.090	-0.810	1.670
2020/01/31 22:13:55.0	95.710	0.090	-0.830	1.680
2020/01/31 22:13:55.1	95.730	0.100	-0.840	1.680
2020/01/31 22:13:55.2	95.750	0.100	-0.850	1.670
2020/01/31 22:13:55.3	95.780	0.100	-0.850	1.670
2020/01/31 22:13:55.4	95.800	0.100	-0.850	1.660
2020/01/31 22:13:55.5	95.820	0.100	-0.850	1.650
2020/01/31 22:13:55.6	95.840	0.100	-0.840	1.640
2020/01/31 22:13:55.7	95.850	0.100	-0.830	1.630
2020/01/31 22:13:55.8	95.870	0.100	-0.810	1.620
2020/01/31 22:13:55.9	95.880	0.090	-0.790	1.610
2020/01/31 22:13:56.0	95.890	0.090	-0.760	1.590
2020/01/31 22:13:56.1	95.900	0.080	-0.730	1.580
2020/01/31 22:13:56.2	95.900	0.070	-0.690	1.560
2020/01/31 22:13:56.3	95.910	0.060	-0.650	1.550
2020/01/31 22:13:56.4	95.910	0.050	-0.610	1.540
2020/01/31 22:13:56.5	95.910	0.040	-0.560	1.520
2020/01/31 22:13:56.6	95.910	0.030	-0.510	1.510
2020/01/31 22:13:56.7	95.910	0.010	-0.460	1.500
2020/01/31 22:13:56.8	95.900	0.000	-0.400	1.490
2020/01/31 22:13:56.9	95.900	-0.010	-0.350	1.490
2020/01/31 22:13:57.0	95.880	-0.030	-0.290	1.480
2020/01/31 22:13:57.1	95.880	-0.040	-0.230	1.470
2020/01/31 22:13:57.2	95.870	-0.060	-0.170	1.460
2020/01/31 22:13:57.3	95.860	-0.080	-0.110	1.460
2020/01/31 22:13:57.4	95.850	-0.090	-0.050	1.460
2020/01/31 22:13:57.5	95.840	-0.110	0.010	1.450
2020/01/31 22:13:57.6	95.830	-0.120	0.070	1.450
2020/01/31 22:13:57.7	95.820	-0.140	0.120	1.450
2020/01/31 22:13:57.8	95.810	-0.150	0.170	1.440
2020/01/31 22:13:57.9	95.800	-0.170	0.220	1.440
2020/01/31 22:13:58.0	95.790	-0.180	0.270	1.440
2020/01/31 22:13:58.1	95.780	-0.200	0.320	1.440
2020/01/31 22:13:58.2	95.760	-0.210	0.360	1.440
2020/01/31 22:13:58.3	95.750	-0.220	0.400	1.430
2020/01/31 22:13:58.4	95.740	-0.230	0.430	1.430
2020/01/31 22:13:58.5	95.720	-0.240	0.460	1.420
2020/01/31 22:13:58.6	95.710	-0.240	0.480	1.420
2020/01/31 22:13:58.7	95.690	-0.250	0.500	1.410
2020/01/31 22:13:58.8	95.680	-0.260	0.520	1.400
2020/01/31 22:13:58.9	95.670	-0.260	0.530	1.390
2020/01/31 22:13:59.0	95.650	-0.260	0.530	1.380
2020/01/31 22:13:59.1	95.630	-0.260	0.530	1.370
2020/01/31 22:13:59.2	95.620	-0.260	0.520	1.350
2020/01/31 22:13:59.3	95.610	-0.250	0.510	1.330
2020/01/31 22:13:59.4	95.600	-0.250	0.490	1.300
2020/01/31 22:13:59.5	95.590	-0.240	0.470	1.270
2020/01/31 22:13:59.6	95.580	-0.230	0.450	1.240
2020/01/31 22:13:59.7	95.570	-0.220	0.410	1.200
2020/01/31 22:13:59.8	95.570	-0.210	0.380	1.150
2020/01/31 22:13:59.9	95.560	-0.190	0.340	1.100
2020/01/31 22:14:00.0	95.550	-0.180	0.290	1.050
2020/01/31 22:14:00.1	95.550	-0.160	0.240	0.990
2020/01/31 22:14:00.2	95.550	-0.140	0.190	0.920
2020/01/31 22:14:00.3	95.560	-0.120	0.130	0.850
2020/01/31 22:14:00.4	95.560	-0.100	0.070	0.780
2020/01/31 22:14:00.5	95.570	-0.070	0.010	0.700
2020/01/31 22:14:00.6	95.580	-0.050	-0.050	0.610
2020/01/31 22:14:00.7	95.590	-0.020	-0.120	0.530
2020/01/31 22:14:00.8	95.600	0.000	-0.180	0.430
2020/01/31 22:14:00.9	95.610	0.030	-0.250	0.340
2020/01/31 22:14:01.0	95.630	0.060	-0.320	0.240
2020/01/31 22:14:01.1	95.640	0.090	-0.390	0.150
2020/01/31 22:14:01.2	95.660	0.120	-0.450	0.040
2020/01/31 22:14:01.3	95.680	0.150	-0.520	-0.060
2020/01/31 22:14:01.4	95.700	0.180	-0.580	-0.160
2020/01/31 22:14:01.5	95.720	0.210	-0.650	-0.260
2020/01/31 22:14:01.6	95.750	0.240	-0.700	-0.360
2020/01/31 22:14:01.7	95.770	0.270	-0.760	-0.460
2020/01/31 22:14:01.8	95.790	0.290	-0.810	-0.550
2020/01/31 22:14:01.9	95.820	0.320	-0.860	-0.650
2020/01/31 22:14:02.0	95.840	0.350	-0.910	-0.740
2020/01/31 22:14:02.1	95.870	0.370	-0.950	-0.830
2020/01/31 22:14:02.2	95.890	0.400	-0.980	-0.910
2020/01/31 22:14:02.3	95.920	0.420	-1.010	-0.980
2020/01/31 22:14:02.4	95.950	0.440	-1.040	-1.050
2020/01/31 22:14:02.5	95.970	0.450	-1.050	-1.120
2020/01/31 22:14:02.6	96.000	0.470	-1.070	-1.170
2020/01/31 22:14:02.7	96.030	0.480	-1.070	-1.220
2020/01/31 22:14:02.8	96.050	0.490	-1.070	-1.270
2020/01/31 22:14:02.9	96.080	0.500	-1.070	-1.310
2020/01/31 22:14:03.0	96.100	0.500	-1.050	-1.330
2020/01/31 22:14:03.1	96.130	0.500	-1.040	-1.360
2020/01/31 22:14:03.2	96.150	0.500	-1.010	-1.370
2020/01/31 22:14:03.3	96.170	0.500	-0.980	-1.380
2020/01/31 22:14:03.4	96.200	0.490	-0.950	-1.380
2020/01/31 22:14:03.5	96.220	0.470	-0.910	-1.370
2020/01/31 22:14:03.6	96.240	0.460	-0.860	-1.360
2020/01/31 22:14:03.7	96.260	0.440	-0.810	-1.340
2020/01/31 22:14:03.8	96.270	0.420	-0.750	-1.310
2020/01/31 22:14:03.9	96.290	0.390	-0.690	-1.270
2020/01/31 22:14:04.0	96.300	0.360	-0.620	-1.220
2020/01/31 22:14:04.1	96.310	0.330	-0.550	-1.170
2020/01/31 22:14:04.2	96.320	0.300	-0.480	-1.120
2020/01/31 22:14:04.3	96.330	0.260	-0.400	-1.050
2020/01/31 22:14:04.4	96.330	0.220	-0.320	-0.980
2020/01/31 22:14:04.5	96.340	0.180	-0.240	-0.910
2020/01/31 22:14:04.6	96.340	0.130	-0.160	-0.830
2020/01/31 22:14:04.7	96.340	0.080	-0.070	-0.750
2020/01/31 22:14:04.8	96.340	0.030	0.010	-0.660
2020/01/31 22:14:04.9	96.330	-0.020	0.100	-0.570
2020/01/31 22:14:05.0	96.330	-0.070	0.190	-0.470
2020/01/31 22:14:05.1	96.320	-0.120	0.270	-0.380
2020/01/31 22:14:05.2	96.310	-0.180	0.360	-0.280
2020/01/31 22:14:05.3	96.300	-0.230	0.450	-0.180
2020/01/31 22:14:05.4	96.290	-0.290	0.530	-0.080
2020/01/31 22:14:05.5	96.280	-0.340	0.610	0.020
2020/01/31 22:14:05.6	96.270	-0.400	0.690	0.120
2020/01/31 22:14:05.7	96.260	-0.450	0.760	0.230
2020/01/31 22:14:05.8	96.250	-0.510	0.830	0.330
2020/01/31 22:14:05.9	96.230	-0.560	0.900	0.430
2020/01/31 22:14:06.0	96.220	-0.610	0.960	0.530
2020/01/31 22:14:06.1	96.200	-0.650	1.010	0.630
2020/01/31 22:14:06.2	96.190	-0.700	1.060	0.730
2020/01/31 22:14:06.3	96.170	-0.740	1.100	0.830
2020/01/31 22:14:06.4	96.150	-0.780	1.140	0.920
2020/01/31 22:14:06.5	96.130	-0.820	1.160	1.020
2020/01/31 22:14:06.6	96.120	-0.850	1.180	1.110
2020/01/31 22:14:06.7	96.100	-0.880	1.190	1.200
2020/01/31 22:14:06.8	96.080	-0.900	1.200	1.290
2020/01/31 22:14:06.9	96.060	-0.920	1.190	1.370
2020/01/31 22:14:07.0	96.040	-0.930	1.180	1.460
2020/01/31 22:14:07.1	96.020	-0.940	1.160	1.540
2020/01/31 22:14:07.2	96.000	-0.940	1.120	1.610
2020/01/31 22:14:07.3	95.990	-0.940	1.090	1.680
2020/01/31 22:14:07.4	95.970	-0.930	1.040	1.750
2020/01/31 22:14:07.5	95.950	-0.920	0.980	1.810
2020/01/31 22:14:07.6	95.940	-0.900	0.920	1.870
2020/01/31 22:14:07.7	95.930	-0.880	0.850	1.930
2020/01/31 22:14:07.8	95.920	-0.850	0.770	1.980
2020/01/31 22:14:07.9	95.910	-0.820	0.680	2.030
2020/01/31 22:14:08.0	95.900	-0.780	0.590	2.060
2020/01/31 22:14:08.1	95.900	-0.740	0.490	2.100
2020/01/31 22:14:08.2	95.900	-0.690	0.390	2.130
2020/01/31 22:14:08.3	95.900	-0.640	0.280	2.160
2020/01/31 22:14:08.4	95.900	-0.580	0.160	2.180
2020/01/31 22:14:08.5	95.910	-0.530	0.050	2.190
2020/01/31 22:14:08.6	95.920	-0.460	-0.070	2.200
2020/01/31 22:14:08.7	95.930	-0.400	-0.190	2.210
2020/01/31 22:14:08.8	95.940	-0.330	-0.310	2.210
2020/01/31 22:14:08.9	95.950	-0.260	-0.430	2.200
2020/01/31 22:14:09.0	95.970	-0.190	-0.560	2.200
2020/01/31 22:14:09.1	95.990	-0.110	-0.670	2.180
2020/01/31 22:14:09.2	96.010	-0.040	-0.790	2.160
2020/01/31 22:14:09.3	96.040	0.040	-0.900	2.140
2020/01/31 22:14:09.4	96.060	0.110	-1.020	2.110
2020/01/31 22:14:09.5	96.090	0.180	-1.120	2.080
2020/01/31 22:14:09.6	96.110	0.260	-1.220	2.040
2020/01/31 22:14:09.7	96.140	0.330	-1.310	2.000
2020/01/31 22:14:09.8	96.170	0.400	-1.400	1.950
2020/01/31 22:14:09.9	96.190	0.470	-1.480	1.900
2020/01/31 22:14:10.0	96.220	0.530	-1.550	1.850
2020/01/31 22:14:10.1	96.250	0.590	-1.620	1.790
2020/01/31 22:14:10.2	96.280	0.650	-1.670	1.740
2020/01/31 22:14:10.3	96.310	0.700	-1.720	1.680
2020/01/31 22:14:10.4	96.330	0.750	-1.750	1.610
2020/01/31 22:14:10.5	96.360	0.800	-1.780	1.550
2020/01/31 22:14:10.6	96.380	0.840	-1.790	1.480
2020/01/31 22:14:10.7	96.410	0.870	-1.800	1.410
2020/01/31 22:14:10.8	96.430	0.900	-1.800	1.340
2020/01/31 22:14:10.9	96.450	0.930	-1.780	1.270
2020/01/31 22:14:11.0	96.470	0.940	-1.760	1.200
2020/01/31 22:14:11.1	96.490	0.960	-1.720	1.130
2020/01/31 22:14:11.2	96.510	0.960	-1.680	1.050
2020/01/31 22:14:11.3	96.520	0.960	-1.630	0.990
2020/01/31 22:14:11.4	96.540	0.960	-1.570	0.920
2020/01/31 22:14:11.5	96.550	0.950	-1.500	0.850
2020/01/31 22:14:11.6	96.560	0.940	-1.420	0.780
2020/01/31 22:14:11.7	96.560	0.910	-1.340	0.720
2020/01/31 22:14:11.8	96.570	0.890	-1.250	0.660
2020/01/31 22:14:11.9	96.570	0.860	-1.150	0.600
2020/01/31 22:14:12.0	96.570	0.830	-1.040	0.550
2020/01/31 22:14:12.1	96.570	0.790	-0.940	0.490
2020/01/31 22:14:12.2	96.570	0.740	-0.830	0.450
2020/01/31 22:14:12.3	96.560	0.700	-0.720	0.400
2020/01/31 22:14:12.4	96.550	0.650	-0.610	0.360
2020/01/31 22:14:12.5	96.540	0.600	-0.490	0.330
2020/01/31 22:14:12.6	96.530	0.550	-0.380	0.290
2020/01/31 22:14:12.7	96.510	0.490	-0.260	0.270
2020/01/31 22:14:12.8	96.500	0.430	-0.150	0.240
2020/01/31 22:14:12.9	96.480	0.380	-0.040	0.220
2020/01/31 22:14:13.0	96.460	0.320	0.070	0.200
2020/01/31 22:14:13.1	96.440	0.260	0.180	0.190
2020/01/31 22:14:13.2	96.420	0.200	0.280	0.180
2020/01/31 22:14:13.3	96.400	0.140	0.370	0.170
2020/01/31 22:14:13.4	96.370	0.090	0.460	0.170
2020/01/31 22:14:13.5	96.350	0.030	0.550	0.160
2020/01/31 22:14:13.6	96.330	-0.020	0.620	0.160
2020/01/31 22:14:13.7	96.300	-0.080	0.690	0.160
2020/01/31 22:14:13.8	96.280	-0.130	0.760	0.160
2020/01/31 22:14:13.9	96.260	-0.180	0.810	0.160
2020/01/31 22:14:14.0	96.250	-0.230	0.860	0.160
2020/01/31 22:14:14.1	96.230	-0.270	0.900	0.170
2020/01/31 22:14:14.2	96.210	-0.310	0.930	0.170
2020/01/31 22:14:14.3	96.200	-0.350	0.950	0.170
2020/01/31 22:14:14.4	96.190	-0.390	0.960	0.170
2020/01/31 22:14:14.5	96.180	-0.420	0.970	0.160
2020/01/31 22:14:14.6	96.180	-0.460	0.970	0.160
2020/01/31 22:14:14.7	96.170	-0.480	0.960	0.150
2020/01/31 22:14:14.8	96.170	-0.510	0.950	0.150
2020/01/31 22:14:14.9	96.170	-0.530	0.930	0.140
2020/01/31 22:14:15.0	96.170	-0.550	0.910	0.130
2020/01/31 22:14:15.1	96.180	-0.570	0.870	0.120
2020/01/31 22:14:15.2	96.190	-0.590	0.840	0.110
2020/01/31 22:14:15.3	96.200	-0.600	0.800	0.090
2020/01/31 22:14:15.4	96.210	-0.610	0.750	0.080
2020/01/31 22:14:15.5	96.220	-0.620	0.700	0.060
2020/01/31 22:14:15.6	96.230	-0.630	0.650	0.040
2020/01/31 22:14:15.7	96.250	-0.640	0.600	0.020
2020/01/31 22:14:15.8	96.270	-0.640	0.550	0.000
2020/01/31 22:14:15.9	96.280	-0.640	0.500	-0.020
2020/01/31 22:14:16.0	96.300	-0.640	0.440	-0.040
2020/01/31 22:14:16.1	96.320	-0.640	0.390	-0.070
2020/01/31 22:14:16.2	96.340	-0.640	0.330	-0.090
2020/01/31 22:14:16.3	96.350	-0.640	0.280	-0.120
2020/01/31 22:14:16.4	96.370	-0.630	0.230	-0.150
2020/01/31 22:14:16.5	96.390	-0.630	0.180	-0.170
2020/01/31 22:14:16.6	96.410	-0.620	0.130	-0.200
2020/01/31 22:14:16.7	96.430	-0.610	0.090	-0.230
2020/01/31 22:14:16.8	96.440	-0.600	0.050	-0.260
2020/01/31 22:14:16.9	96.460	-0.590	0.010	-0.290
2020/01/31 22:14:17.0	96.470	-0.580	-0.030	-0.320
2020/01/31 22:14:17.1	96.490	-0.560	-0.070	-0.350
2020/01/31 22:14:17.2	96.500	-0.550	-0.100	-0.380
2020/01/31 22:14:17.3	96.520	-0.530	-0.130	-0.400
2020/01/31 22:14:17.4	96.530	-0.510	-0.160	-0.430
2020/01/31 22:14:17.5	96.540	-0.490	-0.190	-0.450
2020/01/31 22:14:17.6	96.550	-0.470	-0.220	-0.470
2020/01/31 22:14:17.7	96.560	-0.450	-0.240	-0.490
2020/01/31 22:14:17.8	96.570	-0.430	-0.260	-0.510
2020/01/31 22:14:17.9	96.580	-0.400	-0.290	-0.530
2020/01/31 22:14:18.0	96.590	-0.370	-0.310	-0.540
2020/01/31 22:14:18.1	96.600	-0.350	-0.330	-0.550
2020/01/31 22:14:18.2	96.610	-0.320	-0.350	-0.560
2020/01/31 22:14:18.3	96.620	-0.290	-0.370	-0.560
2020/01/31 22:14:18.4	96.630	-0.250	-0.390	-0.560
2020/01/31 22:14:18.5	96.640	-0.220	-0.410	-0.560
2020/01/31 22:14:18.6	96.650	-0.180	-0.440	-0.560
2020/01/31 22:14:18.7	96.660	-0.150	-0.460	-0.550
2020/01/31 22:14:18.8	96.670	-0.110	-0.490	-0.540
2020/01/31 22:14:18.9	96.680	-0.080	-0.510	-0.520
2020/01/31 22:14:19.0	96.700	-0.040	-0.540	-0.510
2020/01/31 22:14:19.1	96.710	-0.000	-0.560	-0.480
2020/01/31 22:14:19.2	96.720	0.040	-0.590	-0.460
2020/01/31 22:14:19.3	96.740	0.070	-0.620	-0.430
2020/01/31 22:14:19.4	96.750	0.110	-0.640	-0.400
2020/01/31 22:14:19.5	96.760	0.150	-0.670	-0.370
2020/01/31 22:14:19.6	96.780	0.180	-0.700	-0.330
2020/01/31 22:14:19.7	96.790	0.220	-0.720	-0.290
2020/01/31 22:14:19.8	96.810	0.250	-0.740	-0.250
2020/01/31 22:14:19.9	96.820	0.280	-0.770	-0.210
2020/01/31 22:14:20.0	96.830	0.310	-0.790	-0.170
2020/01/31 22:14:20.1	96.840	0.340	-0.800	-0.120
2020/01/31 22:14:20.2	96.860	0.370	-0.820	-0.070
2020/01/31 22:14:20.3	96.870	0.400	-0.830	-0.030
2020/01/31 22:14:20.4	96.880	0.420	-0.840	0.020
2020/01/31 22:14:20.5	96.890	0.440	-0.850	0.070
2020/01/31 22:14:20.6	96.900	0.460	-0.850	0.110
2020/01/31 22:14:20.7	96.910	0.470	-0.840	0.160
2020/01/31 22:14:20.8	96.920	0.480	-0.840	0.210
2020/01/31 22:14:20.9	96.930	0.490	-0.830	0.260
2020/01/31 22:14:21.0	96.930	0.500	-0.810	0.300
2020/01/31 22:14:21.1	96.940	0.500	-0.790	0.350
2020/01/31 22:14:21.2	96.940	0.500	-0.770	0.390
2020/01/31 22:14:21.3	96.940	0.500	-0.740	0.430
2020/01/31 22:14:21.4	96.940	0.500	-0.710	0.480
2020/01/31 22:14:21.5	96.950	0.490	-0.670	0.520
2020/01/31 22:14:21.6	96.950	0.480	-0.630	0.560
2020/01/31 22:14:21.7	96.940	0.470	-0.580	0.600
2020/01/31 22:14:21.8	96.940	0.460	-0.530	0.640
2020/01/31 22:14:21.9	96.940	0.440	-0.470	0.680
2020/01/31 22:14:22.0	96.940	0.420	-0.410	0.730
2020/01/31 22:14:22.1	96.930	0.400	-0.350	0.770
2020/01/31 22:14:22.2	96.930	0.380	-0.290	0.810
2020/01/31 22:14:22.3	96.920	0.360	-0.220	0.850
2020/01/31 22:14:22.4	96.920	0.330	-0.150	0.890
2020/01/31 22:14:22.5	96.910	0.300	-0.080	0.930
2020/01/31 22:14:22.6	96.910	0.280	-0.000	0.970
2020/01/31 22:14:22.7	96.900	0.250	0.070	1.010
2020/01/31 22:14:22.8	96.890	0.220	0.140	1.040
2020/01/31 22:14:22.9	96.890	0.190	0.210	1.080
2020/01/31 22:14:23.0	96.880	0.160	0.280	1.120
2020/01/31 22:14:23.1	96.880	0.130	0.350	1.160
2020/01/31 22:14:23.2	96.870	0.100	0.410	1.200
2020/01/31 22:14:23.3	96.860	0.080	0.470	1.240
2020/01/31 22:14:23.4	96.850	0.050	0.530	1.280
2020/01/31 22:14:23.5	96.850	0.020	0.580	1.320
2020/01/31 22:14:23.6	96.840	-0.000	0.630	1.350
2020/01/31 22:14:23.7	96.840	-0.030	0.660	1.390
2020/01/31 22:14:23.8	96.830	-0.050	0.700	1.420
2020/01/31 22:14:23.9	96.820	-0.070	0.720	1.450
2020/01/31 22:14:24.0	96.810	-0.090	0.750	1.480
2020/01/31 22:14:24.1	96.810	-0.110	0.760	1.510
2020/01/31 22:14:24.2	96.800	-0.130	0.760	1.540
2020/01/31 22:14:24.3	96.800	-0.150	0.760	1.570
2020/01/31 22:14:24.4	96.790	-0.160	0.750	1.590
2020/01/31 22:14:24.5	96.780	-0.170	0.730	1.610
2020/01/31 22:14:24.6	96.780	-0.180	0.700	1.630
2020/01/31 22:14:24.7	96.770	-0.190	0.670	1.650
2020/01/31 22:14:24.8	96.770	-0.190	0.630	1.660
2020/01/31 22:14:24.9	96.760	-0.190	0.580	1.670
2020/01/31 22:14:25.0	96.750	-0.190	0.520	1.670
2020/01/31 22:14:25.1	96.750	-0.190	0.460	1.670
2020/01/31 22:14:25.2	96.740	-0.190	0.390	1.670
2020/01/31 22:14:25.3	96.730	-0.190	0.320	1.670
2020/01/31 22:14:25.4	96.730	-0.180	0.250	1.660
2020/01/31 22:14:25.5	96.720	-0.170	0.170	1.650
2020/01/31 22:14:25.6	96.720	-0.160	0.080	1.630
2020/01/31 22:14:25.7	96.710	-0.150	-0.000	1.610
2020/01/31 22:14:25.8	96.700	-0.140	-0.090	1.590
2020/01/31 22:14:25.9	96.700	-0.120	-0.180	1.560
2020/01/31 22:14:26.0	96.690	-0.110	-0.270	1.520
2020/01/31 22:14:26.1	96.690	-0.090	-0.360	1.490
2020/01/31 22:14:26.2	96.690	-0.070	-0.450	1.450
2020/01/31 22:14:26.3	96.680	-0.060	-0.540	1.400
2020/01/31 22:14:26.4	96.680	-0.040	-0.630	1.360
2020/01/31 22:14:26.5	96.680	-0.020	-0.710	1.310
2020/01/31 22:14:26.6	96.680	0.000	-0.790	1.260
2020/01/31 22:14:26.7	96.680	0.020	-0.870	1.200
2020/01/31 22:14:26.8	96.680	0.040	-0.940	1.150
2020/01/31 22:14:26.9	96.680	0.050	-1.010	1.090
2020/01/31 22:14:27.0	96.680	0.070	-1.070	1.030
2020/01/31 22:14:27.1	96.670	0.090	-1.120	0.980
2020/01/31 22:14:27.2	96.670	0.100	-1.170	0.920
2020/01/31 22:14:27.3	96.670	0.120	-1.210	0.870
2020/01/31 22:14:27.4	96.670	0.130	-1.240	0.810
2020/01/31 22:14:27.5	96.670	0.140	-1.260	0.760
2020/01/31 22:14:27.6	96.660	0.150	-1.280	0.710
2020/01/31 22:14:27.7	96.660	0.160	-1.290	0.670
2020/01/31 22:14:27.8	96.650	0.160	-1.290	0.620
2020/01/31 22:14:27.9	96.640	0.170	-1.280	0.580
2020/01/31 22:14:28.0	96.630	0.170	-1.250	0.540
2020/01/31 22:14:28.1	96.620	0.170	-1.230	0.500
2020/01/31 22:14:28.2	96.620	0.170	-1.190	0.470
2020/01/31 22:14:28.3	96.610	0.160	-1.150	0.430
2020/01/31 22:14:28.4	96.600	0.160	-1.100	0.400
2020/01/31 22:14:28.5	96.600	0.150	-1.050	0.370
2020/01/31 22:14:28.6	96.590	0.140	-0.990	0.340
2020/01/31 22:14:28.7	96.590	0.120	-0.920	0.320
2020/01/31 22:14:28.8	96.580	0.110	-0.850	0.290
2020/01/31 22:14:28.9	96.580	0.090	-0.770	0.260
2020/01/31 22:14:29.0	96.580	0.080	-0.690	0.240
2020/01/31 22:14:29.1	96.580	0.060	-0.610	0.220
2020/01/31 22:14:29.2	96.580	0.040	-0.530	0.190
2020/01/31 22:14:29.3	96.590	0.020	-0.440	0.160
2020/01/31 22:14:29.4	96.600	-0.000	-0.360	0.130
2020/01/31 22:14:29.5	96.600	-0.020	-0.270	0.110
2020/01/31 22:14:29.6	96.620	-0.040	-0.180	0.080
2020/01/31 22:14:29.7	96.630	-0.060	-0.100	0.050
2020/01/31 22:14:29.8	96.640	-0.080	-0.020	0.010
2020/01/31 22:14:29.9	96.660	-0.110	0.060	-0.020
2020/01/31 22:14:30.0	96.680	-0.120	0.140	-0.050
2020/01/31 22:14:30.1	96.700	-0.140	0.220	-0.080
2020/01/31 22:14:30.2	96.720	-0.160	0.290	-0.120
2020/01/31 22:14:30.3	96.750	-0.180	0.350	-0.150
2020/01/31 22:14:30.4	96.770	-0.190	0.410	-0.190
2020/01/31 22:14:30.5	96.790	-0.210	0.470	-0.220
2020/01/31 22:14:30.6	96.820	-0.220	0.520	-0.250
2020/01/31 22:14:30.7	96.840	-0.230	0.570	-0.290
2020/01/31 22:14:30.8	96.860	-0.240	0.610	-0.320
2020/01/31 22:14:30.9	96.890	-0.250	0.650	-0.350
2020/01/31 22:14:31.0	96.920	-0.250	0.680	-0.370
2020/01/31 22:14:31.1	96.940	-0.260	0.700	-0.400
2020/01/31 22:14:31.2	96.960	-0.260	0.730	-0.420
2020/01/31 22:14:31.3	96.980	-0.260	0.740	-0.440
2020/01/31 22:14:31.4	97.000	-0.260	0.750	-0.460
2020/01/31 22:14:31.5	97.020	-0.260	0.760	-0.470
2020/01/31 22:14:31.6	97.030	-0.250	0.760	-0.490
2020/01/31 22:14:31.7	97.040	-0.250	0.760	-0.490
2020/01/31 22:14:31.8	97.050	-0.240	0.750	-0.500
2020/01/31 22:14:31.9	97.060	-0.230	0.740	-0.500
2020/01/31 22:14:32.0	97.080	-0.230	0.720	-0.500
2020/01/31 22:14:32.1	97.080	-0.220	0.700	-0.490
2020/01/31 22:14:32.2	97.090	-0.210	0.680	-0.480
2020/01/31 22:14:32.3	97.090	-0.190	0.650	-0.470
2020/01/31 22:14:32.4	97.100	-0.180	0.620	-0.450
2020/01/31 22:14:32.5	97.100	-0.170	0.580	-0.430
2020/01/31 22:14:32.6	97.100	-0.160	0.540	-0.410
2020/01/31 22:14:32.7	97.090	-0.140	0.500	-0.380
2020/01/31 22:14:32.8	97.090	-0.130	0.460	-0.350
2020/01/31 22:14:32.9	97.080	-0.120	0.410	-0.320
2020/01/31 22:14:33.0	97.080	-0.110	0.370	-0.280
2020/01/31 22:14:33.1	97.070	-0.090	0.320	-0.240
2020/01/31 22:14:33.2	97.060	-0.080	0.270	-0.200
2020/01/31 22:14:33.3	97.040	-0.070	0.220	-0.160
2020/01/31 22:14:33.4	97.030	-0.060	0.170	-0.110
2020/01/31 22:14:33.5	97.010	-0.050	0.110	-0.060
2020/01/31 22:14:33.6	96.990	-0.050	0.060	-0.010
2020/01/31 22:14:33.7	96.970	-0.040	0.010	0.050
2020/01/31 22:14:33.8	96.950	-0.030	-0.040	0.100
2020/01/31 22:14:33.9	96.930	-0.030	-0.090	0.160
2020/01/31 22:14:34.0	96.900	-0.020	-0.140	0.220
2020/01/31 22:14:34.1	96.880	-0.020	-0.190	0.280
2020/01/31 22:14:34.2	96.850	-0.010	-0.240	0.340
2020/01/31 22:14:34.3	96.820	-0.010	-0.290	0.400
2020/01/31 22:14:34.4	96.800	-0.010	-0.340	0.460
2020/01/31 22:14:34.5	96.770	-0.010	-0.380	0.520
2020/01/31 22:14:34.6	96.740	-0.010	-0.430	0.580
2020/01/31 22:14:34.7	96.720	-0.010	-0.470	0.640
2020/01/31 22:14:34.8	96.690	-0.010	-0.510	0.700
2020/01/31 22:14:34.9	96.670	-0.010	-0.550	0.750
2020/01/31 22:14:35.0	96.640	-0.010	-0.580	0.800
2020/01/31 22:14:35.1	96.620	-0.020	-0.620	0.850
2020/01/31 22:14:35.2	96.600	-0.020	-0.650	0.900
2020/01/31 22:14:35.3	96.580	-0.020	-0.680	0.950
2020/01/31 22:14:35.4	96.570	-0.020	-0.710	0.990
2020/01/31 22:14:35.5	96.550	-0.010	-0.740	1.020
2020/01/31 22:14:35.6	96.540	-0.010	-0.770	1.060
2020/01/31 22:14:35.7	96.530	-0.010	-0.790	1.090
2020/01/31 22:14:35.8	96.520	-0.010	-0.810	1.120
2020/01/31 22:14:35.9	96.510	-0.000	-0.830	1.140
2020/01/31 22:14:36.0	96.500	0.000	-0.850	1.170
2020/01/31 22:14:36.1	96.500	0.010	-0.870	1.180
2020/01/31 22:14:36.2	96.490	0.020	-0.880	1.200
2020/01/31 22:14:36.3	96.490	0.030	-0.890	1.210
2020/01/31 22:14:36.4	96.490	0.040	-0.900	1.220
2020/01/31 22:14:36.5	96.490	0.050	-0.910	1.230
2020/01/31 22:14:36.6	96.490	0.060	-0.910	1.230
2020/01/31 22:14:36.7	96.490	0.080	-0.910	1.240
2020/01/31 22:14:36.8	96.490	0.090	-0.910	1.240
2020/01/31 22:14:36.9	96.500	0.100	-0.910	1.230
2020/01/31 22:14:37.0	96.500	0.120	-0.890	1.230
2020/01/31 22:14:37.1	96.500	0.130	-0.880	1.220
2020/01/31 22:14:37.2	96.510	0.150	-0.870	1.200
2020/01/31 22:14:37.3	96.520	0.160	-0.850	1.190
2020/01/31 22:14:37.4	96.530	0.180	-0.830	1.170
2020/01/31 22:14:37.5	96.540	0.190	-0.800	1.150
2020/01/31 22:14:37.6	96.550	0.200	-0.770	1.130
2020/01/31 22:14:37.7	96.570	0.220	-0.740	1.110
2020/01/31 22:14:37.8	96.580	0.230	-0.710	1.090
2020/01/31 22:14:37.9	96.590	0.240	-0.670	1.060
2020/01/31 22:14:38.0	96.610	0.250	-0.620	1.030
2020/01/31 22:14:38.1	96.630	0.250	-0.580	1.000
2020/01/31 22:14:38.2	96.640	0.260	-0.530	0.970
2020/01/31 22:14:38.3	96.660	0.270	-0.480	0.940
2020/01/31 22:14:38.4	96.670	0.270	-0.430	0.910
2020/01/31 22:14:38.5	96.690	0.270	-0.380	0.880
2020/01/31 22:14:38.6	96.700	0.270	-0.330	0.850
2020/01/31 22:14:38.7	96.710	0.270	-0.270	0.820
2020/01/31 22:14:38.8	96.730	0.260	-0.220	0.790
2020/01/31 22:14:38.9	96.740	0.260	-0.160	0.760
2020/01/31 22:14:39.0	96.750	0.250	-0.100	0.740
2020/01/31 22:14:39.1	96.760	0.240	-0.050	0.710
2020/01/31 22:14:39.2	96.770	0.230	0.010	0.680
2020/01/31 22:14:39.3	96.780	0.220	0.060	0.660
2020/01/31 22:14:39.4	96.780	0.210	0.110	0.630
2020/01/31 22:14:39.5	96.790	0.200	0.160	0.610
2020/01/31 22:14:39.6	96.790	0.190	0.210	0.590
2020/01/31 22:14:39.7	96.790	0.170	0.260	0.570
2020/01/31 22:14:39.8	96.790	0.160	0.300	0.550
2020/01/31 22:14:39.9	96.790	0.140	0.340	0.520
2020/01/31 22:14:40.0	96.790	0.130	0.380	0.510
2020/01/31 22:14:40.1	96.790	0.110	0.410	0.490
2020/01/31 22:14:40.2	96.790	0.090	0.440	0.470
2020/01/31 22:14:40.3	96.780	0.080	0.470	0.450
2020/01/31 22:14:40.4	96.780	0.060	0.490	0.430
2020/01/31 22:14:40.5	96.770	0.050	0.510	0.410
2020/01/31 22:14:40.6	96.760	0.040	0.520	0.390
2020/01/31 22:14:40.7	96.750	0.030	0.530	0.370
2020/01/31 22:14:40.8	96.740	0.020	0.540	0.350
2020/01/31 22:14:40.9	96.730	0.010	0.530	0.330
2020/01/31 22:14:41.0	96.720	-0.000	0.530	0.310
2020/01/31 22:14:41.1	96.710	-0.010	0.520	0.290
2020/01/31 22:14:41.2	96.700	-0.010	0.510	0.270
2020/01/31 22:14:41.3	96.700	-0.010	0.490	0.240
2020/01/31 22:14:41.4	96.690	-0.020	0.460	0.220
2020/01/31 22:14:41.5	96.680	-0.010	0.430	0.200
2020/01/31 22:14:41.6	96.670	-0.010	0.400	0.170
2020/01/31 22:14:41.7	96.660	-0.010	0.360	0.150
2020/01/31 22:14:41.8	96.660	-0.000	0.320	0.130
2020/01/31 22:14:41.9	96.650	0.010	0.270	0.100
2020/01/31 22:14:42.0	96.640	0.020	0.220	0.080
2020/01/31 22:14:42.1	96.640	0.030	0.170	0.060
2020/01/31 22:14:42.2	96.630	0.040	0.120	0.040
2020/01/31 22:14:42.3	96.630	0.050	0.060	0.010
2020/01/31 22:14:42.4	96.630	0.070	0.000	-0.010
2020/01/31 22:14:42.5	96.620	0.080	-0.060	-0.020
2020/01/31 22:14:42.6	96.620	0.100	-0.110	-0.040
2020/01/31 22:14:42.7	96.620	0.110	-0.170	-0.060
2020/01/31 22:14:42.8	96.620	0.130	-0.230	-0.070
2020/01/31 22:14:42.9	96.620	0.140	-0.290	-0.090
2020/01/31 22:14:43.0	96.620	0.150	-0.340	-0.100
2020/01/31 22:14:43.1	96.630	0.170	-0.390	-0.110
2020/01/31 22:14:43.2	96.630	0.180	-0.440	-0.120
2020/01/31 22:14:43.3	96.630	0.190	-0.490	-0.130
2020/01/31 22:14:43.4	96.630	0.200	-0.530	-0.140
2020/01/31 22:14:43.5	96.630	0.210	-0.570	-0.140
2020/01/31 22:14:43.6	96.630	0.210	-0.600	-0.150
2020/01/31 22:14:43.7	96.640	0.220	-0.630	-0.150
2020/01/31 22:14:43.8	96.640	0.220	-0.650	-0.150
2020/01/31 22:14:43.9	96.650	0.220	-0.670	-0.150
2020/01/31 22:14:44.0	96.650	0.210	-0.680	-0.150
2020/01/31 22:14:44.1	96.660	0.210	-0.690	-0.150
2020/01/31 22:14:44.2	96.670	0.200	-0.690	-0.150
2020/01/31 22:14:44.3	96.680	0.190	-0.690	-0.150
2020/01/31 22:14:44.4	96.690	0.180	-0.680	-0.150
2020/01/31 22:14:44.5	96.700	0.160	-0.670	-0.150
2020/01/31 22:14:44.6	96.720	0.150	-0.650	-0.140
2020/01/31 22:14:44.7	96.730	0.130	-0.630	-0.140
2020/01/31 22:14:44.8	96.750	0.110	-0.610	-0.140
2020/01/31 22:14:44.9	96.760	0.090	-0.580	-0.130
2020/01/31 22:14:45.0	96.780	0.070	-0.540	-0.130
2020/01/31 22:14:45.1	96.790	0.050	-0.510	-0.120
2020/01/31 22:14:45.2	96.810	0.020	-0.470	-0.120
2020/01/31 22:14:45.3	96.830	-0.000	-0.430	-0.110
2020/01/31 22:14:45.4	96.840	-0.030	-0.390	-0.100
2020/01/31 22:14:45.5	96.860	-0.050	-0.350	-0.090
2020/01/31 22:14:45.6	96.870	-0.080	-0.310	-0.070
2020/01/31 22:14:45.7	96.890	-0.100	-0.270	-0.060
2020/01/31 22:14:45.8	96.900	-0.130	-0.230	-0.040
2020/01/31 22:14:45.9	96.910	-0.150	-0.190	-0.020
2020/01/31 22:14:46.0	96.930	-0.170	-0.150	0.010
2020/01/31 22:14:46.1	96.930	-0.200	-0.110	0.030
2020/01/31 22:14:46.2	96.940	-0.220	-0.070	0.060
2020/01/31 22:14:46.3	96.940	-0.240	-0.030	0.090
2020/01/31 22:14:46.4	96.940	-0.260	0.010	0.120
2020/01/31 22:14:46.5	96.940	-0.270	0.040	0.160
2020/01/31 22:14:46.6	96.940	-0.290	0.070	0.190
2020/01/31 22:14:46.7	96.930	-0.310	0.100	0.230
2020/01/31 22:14:46.8	96.920	-0.320	0.130	0.270
2020/01/31 22:14:46.9	96.910	-0.330	0.150	0.320
2020/01/31 22:14:47.0	96.900	-0.340	0.180	0.360
2020/01/31 22:14:47.1	96.890	-0.350	0.200	0.400
2020/01/31 22:14:47.2	96.870	-0.360	0.210	0.450
2020/01/31 22:14:47.3	96.860	-0.370	0.230	0.490
2020/01/31 22:14:47.4	96.840	-0.370	0.240	0.540
2020/01/31 22:14:47.5	96.820	-0.380	0.250	0.590
2020/01/31 22:14:47.6	96.800	-0.380	0.250	0.630
2020/01/31 22:14:47.7	96.780	-0.380	0.250	0.680
2020/01/31 22:14:47.8	96.760	-0.380	0.250	0.720
2020/01/31 22:14:47.9	96.740	-0.380	0.250	0.770
2020/01/31 22:14:48.0	96.720	-0.370	0.240	0.810
2020/01/31 22:14:48.1	96.700	-0.370	0.230	0.850
2020/01/31 22:14:48.2	96.680	-0.360	0.220	0.890
2020/01/31 22:14:48.3	96.660	-0.350	0.200	0.930
2020/01/31 22:14:48.4	96.640	-0.340	0.180	0.970
2020/01/31 22:14:48.5	96.620	-0.330	0.160	1.000
2020/01/31 22:14:48.6	96.590	-0.320	0.130	1.040
2020/01/31 22:14:48.7	96.580	-0.310	0.100	1.070
2020/01/31 22:14:48.8	96.560	-0.290	0.070	1.100
2020/01/31 22:14:48.9	96.540	-0.280	0.040	1.120
2020/01/31 22:14:49.0	96.520	-0.260	-0.000	1.140
2020/01/31 22:14:49.1	96.500	-0.240	-0.040	1.170
2020/01/31 22:14:49.2	96.490	-0.220	-0.080	1.190
2020/01/31 22:14:49.3	96.470	-0.200	-0.120	1.200
2020/01/31 22:14:49.4	96.460	-0.180	-0.170	1.220
2020/01/31 22:14:49.5	96.450	-0.160	-0.210	1.230
2020/01/31 22:14:49.6	96.440	-0.130	-0.260	1.230
2020/01/31 22:14:49.7	96.440	-0.110	-0.300	1.240
2020/01/31 22:14:49.8	96.430	-0.090	-0.350	1.240
2020/01/31 22:14:49.9	96.430	-0.060	-0.400	1.240
2020/01/31 22:14:50.0	96.430	-0.040	-0.440	1.230
2020/01/31 22:14:50.1	96.430	-0.010	-0.480	1.230
2020/01/31 22:14:50.2	96.430	0.010	-0.530	1.210
2020/01/31 22:14:50.3	96.430	0.040	-0.570	1.200
2020/01/31 22:14:50.4	96.440	0.060	-0.610	1.180
2020/01/31 22:14:50.5	96.440	0.080	-0.650	1.160
2020/01/31 22:14:50.6	96.450	0.110	-0.690	1.130
2020/01/31 22:14:50.7	96.460	0.130	-0.720	1.110
2020/01/31 22:14:50.8	96.470	0.150	-0.750	1.080
2020/01/31 22:14:50.9	96.490	0.170	-0.770	1.040
2020/01/31 22:14:51.0	96.500	0.190	-0.800	1.010
2020/01/31 22:14:51.1	96.520	0.210	-0.810	0.970
2020/01/31 22:14:51.2	96.530	0.230	-0.830	0.930
2020/01/31 22:14:51.3	96.550	0.240	-0.840	0.890
2020/01/31 22:14:51.4	96.570	0.260	-0.840	0.850
2020/01/31 22:14:51.5	96.590	0.270	-0.840	0.810
2020/01/31 22:14:51.6	96.610	0.280	-0.840	0.760
2020/01/31 22:14:51.7	96.630	0.290	-0.830	0.720
2020/01/31 22:14:51.8	96.650	0.300	-0.820	0.680
2020/01/31 22:14:51.9	96.680	0.310	-0.800	0.630
2020/01/31 22:14:52.0	96.700	0.310	-0.770	0.590
2020/01/31 22:14:52.1	96.720	0.320	-0.740	0.550
2020/01/31 22:14:52.2	96.740	0.320	-0.710	0.500
2020/01/31 22:14:52.3	96.760	0.320	-0.680	0.460
2020/01/31 22:14:52.4	96.790	0.320	-0.640	0.420
2020/01/31 22:14:52.5	96.810	0.310	-0.590	0.380
2020/01/31 22:14:52.6	96.820	0.310	-0.540	0.340
2020/01/31 22:14:52.7	96.840	0.300	-0.490	0.300
2020/01/31 22:14:52.8	96.860	0.290	-0.440	0.260
2020/01/31 22:14:52.9	96.870	0.290	-0.380	0.230
2020/01/31 22:14:53.0	96.890	0.270	-0.320	0.200
2020/01/31 22:14:53.1	96.900	0.260	-0.260	0.170
2020/01/31 22:14:53.2	96.910	0.250	-0.200	0.140
2020/01/31 22:14:53.3	96.920	0.230	-0.130	0.110
2020/01/31 22:14:53.4	96.930	0.220	-0.070	0.080
2020/01/31 22:14:53.5	96.930	0.200	-0.000	0.060
2020/01/31 22:14:53.6	96.940	0.180	0.070	0.040
2020/01/31 22:14:53.7	96.940	0.160	0.130	0.020
2020/01/31 22:14:53.8	96.940	0.140	0.200	-0.000
2020/01/31 22:14:53.9	96.940	0.120	0.270	-0.020
2020/01/31 22:14:54.0	96.940	0.090	0.330	-0.030
2020/01/31 22:14:54.1	96.940	0.070	0.390	-0.050
2020/01/31 22:14:54.2	96.930	0.040	0.450	-0.060
2020/01/31 22:14:54.3	96.920	0.020	0.510	-0.080
2020/01/31 22:14:54.4	96.910	-0.010	0.570	-0.090
2020/01/31 22:14:54.5	96.900	-0.030	0.620	-0.100
2020/01/31 22:14:54.6	96.890	-0.060	0.670	-0.110
2020/01/31 22:14:54.7	96.870	-0.080	0.710	-0.120
2020/01/31 22:14:54.8	96.860	-0.110	0.750	-0.130
2020/01/31 22:14:54.9	96.840	-0.130	0.790	-0.140
2020/01/31 22:14:55.0	96.820	-0.150	0.820	-0.150
2020/01/31 22:14:55.1	96.800	-0.170	0.840	-0.150
2020/01/31 22:14:55.2	96.770	-0.190	0.860	-0.160
2020/01/31 22:14:55.3	96.750	-0.210	0.870	-0.170
2020/01/31 22:14:55.4	96.720	-0.230	0.870	-0.170
2020/01/31 22:14:55.5	96.700	-0.240	0.870	-0.180
2020/01/31 22:14:55.6	96.670	-0.250	0.860	-0.190
2020/01/31 22:14:55.7	96.640	-0.260	0.840	-0.190
2020/01/31 22:14:55.8	96.610	-0.270	0.810	-0.200
2020/01/31 22:14:55.9	96.580	-0.270	0.780	-0.200
2020/01/31 22:14:56.0	96.560	-0.270	0.740	-0.210
2020/01/31 22:14:56.1	96.530	-0.260	0.690	-0.210
2020/01/31 22:14:56.2	96.500	-0.250	0.630	-0.220
2020/01/31 22:14:56.3	96.470	-0.240	0.570	-0.220
2020/01/31 22:14:56.4	96.440	-0.230	0.500	-0.230
2020/01/31 22:14:56.5	96.410	-0.210	0.420	-0.230
2020/01/31 22:14:56.6	96.390	-0.190	0.340	-0.240
2020/01/31 22:14:56.7	96.360	-0.160	0.250	-0.240
2020/01/31 22:14:56.8	96.340	-0.140	0.150	-0.250
2020/01/31 22:14:56.9	96.320	-0.100	0.060	-0.260
2020/01/31 22:14:57.0	96.310	-0.070	-0.040	-0.260
2020/01/31 22:14:57.1	96.290	-0.040	-0.150	-0.270
2020/01/31 22:14:57.2	96.280	0.000	-0.260	-0.280
2020/01/31 22:14:57.3	96.260	0.040	-0.360	-0.290
2020/01/31 22:14:57.4	96.260	0.080	-0.470	-0.290
2020/01/31 22:14:57.5	96.250	0.120	-0.580	-0.300
2020/01/31 22:14:57.6	96.250	0.160	-0.690	-0.310
2020/01/31 22:14:57.7	96.250	0.200	-0.800	-0.320
2020/01/31 22:14:57.8	96.250	0.240	-0.900	-0.330
2020/01/31 22:14:57.9	96.260	0.280	-1.000	-0.340
2020/01/31 22:14:58.0	96.260	0.320	-1.100	-0.350
2020/01/31 22:14:58.1	96.270	0.350	-1.180	-0.360
2020/01/31 22:14:58.2	96.290	0.390	-1.260	-0.360
2020/01/31 22:14:58.3	96.310	0.410	-1.340	-0.370
2020/01/31 22:14:58.4	96.330	0.440	-1.400	-0.380
2020/01/31 22:14:58.5	96.350	0.460	-1.460	-0.380
2020/01/31 22:14:58.6	96.370	0.480	-1.510	-0.390
2020/01/31 22:14:58.7	96.400	0.500	-1.550	-0.390
2020/01/31 22:14:58.8	96.420	0.510	-1.570	-0.390
2020/01/31 22:14:58.9	96.450	0.510	-1.590	-0.390
2020/01/31 22:14:59.0	96.480	0.510	-1.590	-0.380
2020/01/31 22:14:59.1	96.510	0.510	-1.590	-0.380
2020/01/31 22:14:59.2	96.540	0.500	-1.570	-0.370
2020/01/31 22:14:59.3	96.560	0.490	-1.550	-0.360
2020/01/31 22:14:59.4	96.590	0.470	-1.510	-0.350
2020/01/31 22:14:59.5	96.620	0.450	-1.460	-0.340
2020/01/31 22:14:59.6	96.650	0.420	-1.400	-0.320
2020/01/31 22:14:59.7	96.670	0.390	-1.340	-0.300
2020/01/31 22:14:59.8	96.700	0.350	-1.260	-0.280
2020/01/31 22:14:59.9	96.720	0.310	-1.180	-0.250
2020/01/31 22:15:00.0	96.750	0.270	-1.080	-0.220
2020/01/31 22:15:00.1	96.760	0.220	-0.980	-0.190
2020/01/31 22:15:00.2	96.780	0.180	-0.880	-0.160
2020/01/31 22:15:00.3	96.790	0.130	-0.760	-0.130
2020/01/31 22:15:00.4	96.800	0.070	-0.650	-0.090
2020/01/31 22:15:00.5	96.810	0.020	-0.530	-0.050
2020/01/31 22:15:00.6	96.820	-0.030	-0.400	-0.010
2020/01/31 22:15:00.7	96.820	-0.090	-0.280	0.030
2020/01/31 22:15:00.8	96.820	-0.140	-0.150	0.080
2020/01/31 22:15:00.9	96.820	-0.200	-0.030	0.120
2020/01/31 22:15:01.0	96.820	-0.250	0.100	0.170
2020/01/31 22:15:01.1	96.820	-0.300	0.220	0.210
2020/01/31 22:15:01.2	96.810	-0.350	0.340	0.260
2020/01/31 22:15:01.3	96.800	-0.400	0.460	0.300
2020/01/31 22:15:01.4	96.790	-0.450	0.570	0.340
2020/01/31 22:15:01.5	96.770	-0.490	0.680	0.390
2020/01/31 22:15:01.6	96.760	-0.530	0.780	0.430
2020/01/31 22:15:01.7	96.740	-0.560	0.880	0.480
2020/01/31 22:15:01.8	96.720	-0.600	0.960	0.520
2020/01/31 22:15:01.9	96.700	-0.620	1.040	0.560
2020/01/31 22:15:02.0	96.680	-0.650	1.120	0.600
2020/01/31 22:15:02.1	96.660	-0.670	1.180	0.640
2020/01/31 22:15:02.2	96.630	-0.680	1.230	0.680
2020/01/31 22:15:02.3	96.610	-0.690	1.270	0.720
2020/01/31 22:15:02.4	96.580	-0.690	1.300	0.760
2020/01/31 22:15:02.5	96.550	-0.690	1.320	0.800
2020/01/31 22:15:02.6	96.530	-0.680	1.330	0.830
2020/01/31 22:15:02.7	96.500	-0.670	1.320	0.870
2020/01/31 22:15:02.8	96.480	-0.660	1.310	0.900
2020/01/31 22:15:02.9	96.450	-0.640	1.280	0.940
2020/01/31 22:15:03.0	96.430	-0.610	1.240	0.970
2020/01/31 22:15:03.1	96.410	-0.580	1.200	0.990
2020/01/31 22:15:03.2	96.390	-0.550	1.140	1.020
2020/01/31 22:15:03.3	96.370	-0.510	1.070	1.040
2020/01/31 22:15:03.4	96.350	-0.470	1.000	1.060
2020/01/31 22:15:03.5	96.340	-0.430	0.910	1.070
2020/01/31 22:15:03.6	96.320	-0.380	0.820	1.080
2020/01/31 22:15:03.7	96.320	-0.330	0.720	1.090
2020/01/31 22:15:03.8	96.310	-0.280	0.620	1.100
2020/01/31 22:15:03.9	96.300	-0.230	0.510	1.100
2020/01/31 22:15:04.0	96.300	-0.180	0.390	1.090
2020/01/31 22:15:04.1	96.300	-0.130	0.280	1.080
2020/01/31 22:15:04.2	96.300	-0.080	0.150	1.070
2020/01/31 22:15:04.3	96.310	-0.020	0.030	1.050
2020/01/31 22:15:04.4	96.320	0.030	-0.090	1.040
2020/01/31 22:15:04.5	96.330	0.080	-0.210	1.010
2020/01/31 22:15:04.6	96.340	0.130	-0.340	0.990
2020/01/31 22:15:04.7	96.350	0.170	-0.450	0.960
2020/01/31 22:15:04.8	96.370	0.220	-0.570	0.930
2020/01/31 22:15:04.9	96.390	0.260	-0.680	0.900
2020/01/31 22:15:05.0	96.400	0.290	-0.790	0.860
2020/01/31 22:15:05.1	96.420	0.330	-0.890	0.830
2020/01/31 22:15:05.2	96.440	0.360	-0.980	0.790
2020/01/31 22:15:05.3	96.460	0.390	-1.060	0.750
2020/01/31 22:15:05.4	96.480	0.410	-1.140	0.710
2020/01/31 22:15:05.5	96.490	0.430	-1.200	0.670
2020/01/31 22:15:05.6	96.510	0.450	-1.260	0.620
2020/01/31 22:15:05.7	96.530	0.460	-1.300	0.580
2020/01/31 22:15:05.8	96.550	0.460	-1.340	0.530
2020/01/31 22:15:05.9	96.560	0.470	-1.360	0.490
2020/01/31 22:15:06.0	96.580	0.460	-1.370	0.450
2020/01/31 22:15:06.1	96.590	0.460	-1.370	0.400
2020/01/31 22:15:06.2	96.600	0.450	-1.370	0.360
2020/01/31 22:15:06.3	96.610	0.430	-1.350	0.320
2020/01/31 22:15:06.4	96.620	0.420	-1.320	0.280
2020/01/31 22:15:06.5	96.630	0.400	-1.290	0.240
2020/01/31 22:15:06.6	96.630	0.370	-1.240	0.200
2020/01/31 22:15:06.7	96.630	0.340	-1.190	0.170
2020/01/31 22:15:06.8	96.630	0.310	-1.130	0.140
2020/01/31 22:15:06.9	96.630	0.280	-1.060	0.110
2020/01/31 22:15:07.0	96.620	0.250	-0.990	0.080
2020/01/31 22:15:07.1	96.610	0.210	-0.910	0.050
2020/01/31 22:15:07.2	96.600	0.180	-0.830	0.030
2020/01/31 22:15:07.3	96.590	0.140	-0.740	0.010
2020/01/31 22:15:07.4	96.580	0.100	-0.660	-0.000
2020/01/31 22:15:07.5	96.570	0.060	-0.560	-0.020
2020/01/31 22:15:07.6	96.550	0.020	-0.470	-0.030
2020/01/31 22:15:07.7	96.540	-0.010	-0.380	-0.040
2020/01/31 22:15:07.8	96.520	-0.050	-0.290	-0.050
2020/01/31 22:15:07.9	96.500	-0.090	-0.190	-0.050
2020/01/31 22:15:08.0	96.480	-0.120	-0.110	-0.060
2020/01/31 22:15:08.1	96.460	-0.150	-0.020	-0.060
2020/01/31 22:15:08.2	96.440	-0.190	0.060	-0.050
2020/01/31 22:15:08.3	96.420	-0.210	0.140	-0.050
2020/01/31 22:15:08.4	96.400	-0.240	0.220	-0.050
2020/01/31 22:15:08.5	96.380	-0.270	0.290	-0.040
2020/01/31 22:15:08.6	96.360	-0.290	0.350	-0.040
2020/01/31 22:15:08.7	96.340	-0.300	0.400	-0.030
2020/01/31 22:15:08.8	96.320	-0.320	0.450	-0.030
2020/01/31 22:15:08.9	96.300	-0.330	0.490	-0.020
2020/01/31 22:15:09.0	96.290	-0.340	0.530	-0.010
2020/01/31 22:15:09.1	96.270	-0.340	0.550	-0.010
2020/01/31 22:15:09.2	96.260	-0.340	0.570	-0.000
2020/01/31 22:15:09.3	96.250	-0.330	0.570	0.000
2020/01/31 22:15:09.4	96.240	-0.330	0.570	0.010
2020/01/31 22:15:09.5	96.240	-0.310	0.570	0.010
2020/01/31 22:15:09.6	96.230	-0.300	0.550	0.010
2020/01/31 22:15:09.7	96.230	-0.280	0.520	0.010
2020/01/31 22:15:09.8	96.230	-0.260	0.490	0.010
2020/01/31 22:15:09.9	96.230	-0.240	0.450	0.010
2020/01/31 22:15:10.0	96.230	-0.210	0.410	0.010
2020/01/31 22:15:10.1	96.240	-0.180	0.360	0.000
2020/01/31 22:15:10.2	96.250	-0.150	0.300	-0.000
2020/01/31 22:15:10.3	96.260	-0.110	0.240	-0.010
2020/01/31 22:15:10.4	96.270	-0.080	0.180	-0.010
2020/01/31 22:15:10.5	96.280	-0.040	0.110	-0.010
2020/01/31 22:15:10.6	96.290	-0.000	0.040	-0.020
2020/01/31 22:15:10.7	96.300	0.030	-0.030	-0.020
2020/01/31 22:15:10.8	96.310	0.070	-0.110	-0.030
2020/01/31 22:15:10.9	96.320	0.110	-0.180	-0.030
2020/01/31 22:15:11.0	96.330	0.150	-0.250	-0.030
2020/01/31 22:15:11.1	96.340	0.190	-0.320	-0.030
2020/01/31 22:15:11.2	96.350	0.220	-0.390	-0.030
2020/01/31 22:15:11.3	96.360	0.260	-0.450	-0.030
2020/01/31 22:15:11.4	96.370	0.290	-0.520	-0.030
2020/01/31 22:15:11.5	96.370	0.320	-0.580	-0.030
2020/01/31 22:15:11.6	96.380	0.350	-0.630	-0.020
2020/01/31 22:15:11.7	96.380	0.380	-0.680	-0.020
2020/01/31 22:15:11.8	96.390	0.400	-0.720	-0.010
2020/01/31 22:15:11.9	96.390	0.430	-0.760	-0.010
2020/01/31 22:15:12.0	96.390	0.450	-0.800	-0.000
2020/01/31 22:15:12.1	96.390	0.470	-0.820	0.000
2020/01/31 22:15:12.2	96.400	0.480	-0.840	0.010
2020/01/31 22:15:12.3	96.400	0.490	-0.850	0.010
2020/01/31 22:15:12.4	96.390	0.500	-0.860	0.020
2020/01/31 22:15:12.5	96.390	0.500	-0.860	0.020
2020/01/31 22:15:12.6	96.390	0.510	-0.850	0.030
2020/01/31 22:15:12.7	96.390	0.500	-0.830	0.040
2020/01/31 22:15:12.8	96.380	0.500	-0.800	0.040
2020/01/31 22:15:12.9	96.380	0.490	-0.770	0.050
2020/01/31 22:15:13.0	96.370	0.480	-0.730	0.050
2020/01/31 22:15:13.1	96.370	0.470	-0.690	0.060
2020/01/31 22:15:13.2	96.360	0.450	-0.640	0.060
2020/01/31 22:15:13.3	96.360	0.430	-0.580	0.070
2020/01/31 22:15:13.4	96.350	0.410	-0.530	0.070
2020/01/31 22:15:13.5	96.350	0.390	-0.460	0.080
2020/01/31 22:15:13.6	96.340	0.360	-0.390	0.080
2020/01/31 22:15:13.7	96.340	0.330	-0.320	0.090
2020/01/31 22:15:13.8	96.330	0.300	-0.250	0.090
2020/01/31 22:15:13.9	96.330	0.270	-0.180	0.100
2020/01/31 22:15:14.0	96.320	0.230	-0.100	0.100
2020/01/31 22:15:14.1	96.320	0.200	-0.030	0.110
2020/01/31 22:15:14.2	96.320	0.160	0.040	0.120
2020/01/31 22:15:14.3	96.310	0.120	0.110	0.120
2020/01/31 22:15:14.4	96.310	0.090	0.180	0.130
2020/01/31 22:15:14.5	96.310	0.050	0.250	0.140
2020/01/31 22:15:14.6	96.300	0.010	0.310	0.150
2020/01/31 22:15:14.7	96.300	-0.030	0.370	0.160
2020/01/31 22:15:14.8	96.300	-0.070	0.430	0.170
2020/01/31 22:15:14.9	96.300	-0.100	0.480	0.190
2020/01/31 22:15:15.0	96.300	-0.140	0.520	0.210
2020/01/31 22:15:15.1	96.300	-0.180	0.570	0.220
2020/01/31 22:15:15.2	96.300	-0.210	0.600	0.240
2020/01/31 22:15:15.3	96.300	-0.250	0.630	0.260
2020/01/31 22:15:15.4	96.300	-0.280	0.660	0.280
2020/01/31 22:15:15.5	96.300	-0.310	0.680	0.300
2020/01/31 22:15:15.6	96.300	-0.340	0.700	0.320
2020/01/31 22:15:15.7	96.300	-0.370	0.710	0.350
2020/01/31 22:15:15.8	96.300	-0.400	0.710	0.370
2020/01/31 22:15:15.9	96.300	-0.420	0.710	0.400
2020/01/31 22:15:16.0	96.300	-0.450	0.710	0.420
2020/01/31 22:15:16.1	96.300	-0.470	0.700	0.450
2020/01/31 22:15:16.2	96.300	-0.490	0.690	0.480
2020/01/31 22:15:16.3	96.300	-0.500	0.670	0.510
2020/01/31 22:15:16.4	96.300	-0.520	0.640	0.540
2020/01/31 22:15:16.5	96.300	-0.530	0.610	0.570
2020/01/31 22:15:16.6	96.300	-0.540	0.580	0.600
2020/01/31 22:15:16.7	96.310	-0.550	0.550	0.620
2020/01/31 22:15:16.8	96.310	-0.560	0.510	0.650
2020/01/31 22:15:16.9	96.310	-0.560	0.460	0.680
2020/01/31 22:15:17.0	96.310	-0.570	0.410	0.710
2020/01/31 22:15:17.1	96.320	-0.570	0.360	0.740
2020/01/31 22:15:17.2	96.320	-0.570	0.310	0.760
2020/01/31 22:15:17.3	96.330	-0.560	0.250	0.790
2020/01/31 22:15:17.4	96.330	-0.550	0.200	0.810
2020/01/31 22:15:17.5	96.340	-0.550	0.140	0.830
2020/01/31 22:15:17.6	96.340	-0.540	0.070	0.850
2020/01/31 22:15:17.7	96.350	-0.520	0.010	0.870
2020/01/31 22:15:17.8	96.350	-0.510	-0.050	0.890
2020/01/31 22:15:17.9	96.360	-0.490	-0.120	0.910
2020/01/31 22:15:18.0	96.350	-0.480	-0.190	0.930
2020/01/31 22:15:18.1	96.360	-0.460	-0.250	0.940
2020/01/31 22:15:18.2	96.360	-0.440	-0.320	0.950
2020/01/31 22:15:18.3	96.360	-0.410	-0.380	0.970
2020/01/31 22:15:18.4	96.360	-0.390	-0.450	0.980
2020/01/31 22:15:18.5	96.360	-0.360	-0.510	0.990
2020/01/31 22:15:18.6	96.360	-0.330	-0.580	1.000
2020/01/31 22:15:18.7	96.360	-0.310	-0.640	1.010
2020/01/31 22:15:18.8	96.360	-0.280	-0.700	1.020
2020/01/31 22:15:18.9	96.350	-0.240	-0.750	1.020
2020/01/31 22:15:19.0	96.350	-0.210	-0.810	1.030
2020/01/31 22:15:19.1	96.340	-0.180	-0.860	1.030
2020/01/31 22:15:19.2	96.330	-0.140	-0.910	1.040
2020/01/31 22:15:19.3	96.320	-0.110	-0.950	1.040
2020/01/31 22:15:19.4	96.310	-0.070	-0.990	1.040
2020/01/31 22:15:19.5	96.300	-0.030	-1.030	1.040
2020/01/31 22:15:19.6	96.280	0.000	-1.070	1.050
2020/01/31 22:15:19.7	96.260	0.040	-1.100	1.050
2020/01/31 22:15:19.8	96.250	0.080	-1.120	1.050
2020/01/31 22:15:19.9	96.230	0.120	-1.140	1.050
2020/01/31 22:15:20.0	96.210	0.160	-1.160	1.050
2020/01/31 22:15:20.1	96.190	0.200	-1.170	1.050
2020/01/31 22:15:20.2	96.170	0.240	-1.180	1.050
2020/01/31 22:15:20.3	96.150	0.270	-1.180	1.040
2020/01/31 22:15:20.4	96.130	0.310	-1.180	1.040
2020/01/31 22:15:20.5	96.110	0.350	-1.170	1.040
2020/01/31 22:15:20.6	96.090	0.380	-1.160	1.030
2020/01/31 22:15:20.7	96.070	0.420	-1.150	1.020
2020/01/31 22:15:20.8	96.050	0.450	-1.130	1.010
2020/01/31 22:15:20.9	96.030	0.490	-1.100	1.000
2020/01/31 22:15:21.0	96.010	0.520	-1.080	0.990
2020/01/31 22:15:21.1	96.000	0.550	-1.040	0.970
2020/01/31 22:15:21.2	95.980	0.570	-1.010	0.960
2020/01/31 22:15:21.3	95.970	0.600	-0.970	0.940
2020/01/31 22:15:21.4	95.960	0.620	-0.930	0.910
2020/01/31 22:15:21.5	95.950	0.640	-0.880	0.890
2020/01/31 22:15:21.6	95.940	0.660	-0.830	0.860
2020/01/31 22:15:21.7	95.930	0.680	-0.780	0.830
2020/01/31 22:15:21.8	95.920	0.690	-0.730	0.790
2020/01/31 22:15:21.9	95.920	0.700	-0.670	0.760
2020/01/31 22:15:22.0	95.910	0.700	-0.610	0.710
2020/01/31 22:15:22.1	95.910	0.710	-0.550	0.670
2020/01/31 22:15:22.2	95.910	0.710	-0.490	0.630
2020/01/31 22:15:22.3	95.910	0.700	-0.430	0.580
2020/01/31 22:15:22.4	95.910	0.700	-0.360	0.530
2020/01/31 22:15:22.5	95.920	0.690	-0.300	0.480
2020/01/31 22:15:22.6	95.920	0.670	-0.230	0.420
2020/01/31 22:15:22.7	95.920	0.660	-0.160	0.370
2020/01/31 22:15:22.8	95.930	0.640	-0.090	0.310
2020/01/31 22:15:22.9	95.930	0.610	-0.020	0.250
2020/01/31 22:15:23.0	95.940	0.580	0.050	0.190
2020/01/31 22:15:23.1	95.940	0.550	0.110	0.130
2020/01/31 22:15:23.2	95.950	0.520	0.180	0.060
2020/01/31 22:15:23.3	95.960	0.490	0.250	0.000
2020/01/31 22:15:23.4	95.960	0.450	0.320	-0.060
2020/01/31 22:15:23.5	95.970	0.410	0.380	-0.120
2020/01/31 22:15:23.6	95.980	0.370	0.450	-0.180
2020/01/31 22:15:23.7	95.980	0.320	0.510	-0.240
2020/01/31 22:15:23.8	95.990	0.280	0.570	-0.300
2020/01/31 22:15:23.9	96.000	0.230	0.620	-0.360
2020/01/31 22:15:24.0	96.010	0.180	0.670	-0.420
2020/01/31 22:15:24.1	96.020	0.140	0.720	-0.480
2020/01/31 22:15:24.2	96.020	0.090	0.770	-0.540
2020/01/31 22:15:24.3	96.030	0.040	0.800	-0.590
2020/01/31 22:15:24.4	96.040	-0.000	0.840	-0.650
2020/01/31 22:15:24.5	96.040	-0.050	0.870	-0.700
2020/01/31 22:15:24.6	96.050	-0.090	0.890	-0.750
2020/01/31 22:15:24.7	96.060	-0.130	0.910	-0.790
2020/01/31 22:15:24.8	96.060	-0.170	0.920	-0.840
2020/01/31 22:15:24.9	96.070	-0.210	0.930	-0.880
2020/01/31 22:15:25.0	96.070	-0.250	0.920	-0.920
2020/01/31 22:15:25.1	96.080	-0.280	0.920	-0.960
2020/01/31 22:15:25.2	96.080	-0.310	0.910	-0.990
2020/01/31 22:15:25.3	96.090	-0.340	0.890	-1.020
2020/01/31 22:15:25.4	96.090	-0.360	0.860	-1.040
2020/01/31 22:15:25.5	96.100	-0.380	0.830	-1.070
2020/01/31 22:15:25.6	96.100	-0.390	0.800	-1.090
2020/01/31 22:15:25.7	96.110	-0.410	0.750	-1.100
2020/01/31 22:15:25.8	96.110	-0.410	0.710	-1.110
2020/01/31 22:15:25.9	96.110	-0.420	0.650	-1.120
2020/01/31 22:15:26.0	96.120	-0.420	0.600	-1.120
2020/01/31 22:15:26.1	96.120	-0.420	0.530	-1.130
2020/01/31 22:15:26.2	96.130	-0.410	0.470	-1.120
2020/01/31 22:15:26.3	96.130	-0.400	0.390	-1.120
2020/01/31 22:15:26.4	96.140	-0.390	0.320	-1.110
2020/01/31 22:15:26.5	96.140	-0.380	0.240	-1.100
2020/01/31 22:15:26.6	96.150	-0.360	0.160	-1.080
2020/01/31 22:15:26.7	96.150	-0.340	0.070	-1.060
2020/01/31 22:15:26.8	96.160	-0.320	-0.010	-1.040
2020/01/31 22:15:26.9	96.160	-0.300	-0.100	-1.010
2020/01/31 22:15:27.0	96.170	-0.270	-0.190	-0.980
2020/01/31 22:15:27.1	96.180	-0.240	-0.280	-0.950
2020/01/31 22:15:27.2	96.180	-0.220	-0.360	-0.910
2020/01/31 22:15:27.3	96.190	-0.190	-0.450	-0.870
2020/01/31 22:15:27.4	96.190	-0.160	-0.530	-0.830
2020/01/31 22:15:27.5	96.190	-0.130	-0.610	-0.780
2020/01/31 22:15:27.6	96.200	-0.100	-0.690	-0.730
2020/01/31 22:15:27.7	96.200	-0.070	-0.760	-0.680
2020/01/31 22:15:27.8	96.210	-0.050	-0.830	-0.620
2020/01/31 22:15:27.9	96.210	-0.020	-0.890	-0.560
2020/01/31 22:15:28.0	96.210	0.000	-0.950	-0.490
2020/01/31 22:15:28.1	96.220	0.030	-1.000	-0.430
2020/01/31 22:15:28.2	96.220	0.050	-1.040	-0.360
2020/01/31 22:15:28.3	96.220	0.060	-1.080	-0.280
2020/01/31 22:15:28.4	96.210	0.080	-1.110	-0.210
2020/01/31 22:15:28.5	96.210	0.090	-1.130	-0.130
2020/01/31 22:15:28.6	96.210	0.110	-1.140	-0.050
2020/01/31 22:15:28.7	96.210	0.110	-1.150	0.030
2020/01/31 22:15:28.8	96.200	0.120	-1.150	0.110
2020/01/31 22:15:28.9	96.190	0.120	-1.140	0.190
2020/01/31 22:15:29.0	96.190	0.120	-1.120	0.270
2020/01/31 22:15:29.1	96.180	0.120	-1.100	0.360
2020/01/31 22:15:29.2	96.170	0.110	-1.070	0.440
2020/01/31 22:15:29.3	96.160	0.110	-1.030	0.520
2020/01/31 22:15:29.4	96.150	0.100	-0.990	0.610
2020/01/31 22:15:29.5	96.140	0.080	-0.940	0.690
2020/01/31 22:15:29.6	96.130	0.070	-0.890	0.770
2020/01/31 22:15:29.7	96.110	0.050	-0.830	0.850
2020/01/31 22:15:29.8	96.100	0.040	-0.770	0.920
2020/01/31 22:15:29.9	96.080	0.020	-0.700	1.000
2020/01/31 22:15:30.0	96.070	-0.000	-0.630	1.070
2020/01/31 22:15:30.1	96.050	-0.030	-0.560	1.140
2020/01/31 22:15:30.2	96.030	-0.050	-0.480	1.200
2020/01/31 22:15:30.3	96.010	-0.070	-0.410	1.260
2020/01/31 22:15:30.4	96.000	-0.090	-0.330	1.320
2020/01/31 22:15:30.5	95.980	-0.110	-0.260	1.370
2020/01/31 22:15:30.6	95.960	-0.140	-0.180	1.410
2020/01/31 22:15:30.7	95.940	-0.160	-0.110	1.450
2020/01/31 22:15:30.8	95.930	-0.180	-0.030	1.490
2020/01/31 22:15:30.9	95.910	-0.200	0.040	1.520
2020/01/31 22:15:31.0	95.890	-0.210	0.100	1.540
2020/01/31 22:15:31.1	95.880	-0.230	0.170	1.560
2020/01/31 22:15:31.2	95.860	-0.240	0.230	1.580
2020/01/31 22:15:31.3	95.850	-0.260	0.280	1.590
2020/01/31 22:15:31.4	95.840	-0.270	0.340	1.590
2020/01/31 22:15:31.5	95.830	-0.280	0.380	1.590
2020/01/31 22:15:31.6	95.820	-0.280	0.420	1.580
2020/01/31 22:15:31.7	95.810	-0.290	0.450	1.570
2020/01/31 22:15:31.8	95.800	-0.290	0.480	1.550
2020/01/31 22:15:31.9	95.800	-0.290	0.500	1.530
2020/01/31 22:15:32.0	95.790	-0.280	0.520	1.510
2020/01/31 22:15:32.1	95.780	-0.280	0.520	1.480
2020/01/31 22:15:32.2	95.780	-0.270	0.520	1.440
2020/01/31 22:15:32.3	95.780	-0.260	0.520	1.410
2020/01/31 22:15:32.4	95.780	-0.240	0.500	1.370
2020/01/31 22:15:32.5	95.780	-0.230	0.480	1.330
2020/01/31 22:15:32.6	95.790	-0.210	0.460	1.280
2020/01/31 22:15:32.7	95.790	-0.190	0.430	1.240
2020/01/31 22:15:32.8	95.800	-0.170	0.390	1.190
2020/01/31 22:15:32.9	95.810	-0.150	0.350	1.130
2020/01/31 22:15:33.0	95.810	-0.130	0.300	1.070
2020/01/31 22:15:33.1	95.820	-0.100	0.250	1.020
2020/01/31 22:15:33.2	95.840	-0.080	0.190	0.960
2020/01/31 22:15:33.3	95.850	-0.050	0.140	0.900
2020/01/31 22:15:33.4	95.870	-0.020	0.080	0.840
2020/01/31 22:15:33.5	95.880	0.010	0.010	0.770
2020/01/31 22:15:33.6	95.900	0.030	-0.050	0.710
2020/01/31 22:15:33.7	95.920	0.060	-0.110	0.640
2020/01/31 22:15:33.8	95.940	0.090	-0.180	0.580
2020/01/31 22:15:33.9	95.960	0.120	-0.240	0.510
2020/01/31 22:15:34.0	95.990	0.140	-0.300	0.450
2020/01/31 22:15:34.1	96.010	0.170	-0.360	0.380
2020/01/31 22:15:34.2	96.030	0.190	-0.420	0.310
2020/01/31 22:15:34.3	96.050	0.210	-0.480	0.250
2020/01/31 22:15:34.4	96.080	0.240	-0.530	0.190
2020/01/31 22:15:34.5	96.100	0.260	-0.580	0.120
2020/01/31 22:15:34.6	96.120	0.270	-0.630	0.060
2020/01/31 22:15:34.7	96.140	0.290	-0.680	0.000
2020/01/31 22:15:34.8	96.160	0.310	-0.710	-0.060
2020/01/31 22:15:34.9	96.170	0.320	-0.750	-0.110
2020/01/31 22:15:35.0	96.190	0.330	-0.780	-0.170
2020/01/31 22:15:35.1	96.200	0.340	-0.810	-0.220
2020/01/31 22:15:35.2	96.220	0.340	-0.830	-0.270
2020/01/31 22:15:35.3	96.230	0.350	-0.840	-0.310
2020/01/31 22:15:35.4	96.240	0.350	-0.850	-0.350
2020/01/31 22:15:35.5	96.240	0.350	-0.850	-0.390
2020/01/31 22:15:35.6	96.250	0.350	-0.850	-0.420
2020/01/31 22:15:35.7	96.250	0.350	-0.840	-0.450
2020/01/31 22:15:35.8	96.250	0.340	-0.830	-0.480
2020/01/31 22:15:35.9	96.250	0.330	-0.810	-0.500
2020/01/31 22:15:36.0	96.240	0.320	-0.790	-0.520
2020/01/31 22:15:36.1	96.240	0.310	-0.760	-0.530
2020/01/31 22:15:36.2	96.230	0.300	-0.720	-0.540
2020/01/31 22:15:36.3	96.210	0.280	-0.680	-0.550
2020/01/31 22:15:36.4	96.200	0.260	-0.640	-0.550
2020/01/31 22:15:36.5	96.190	0.250	-0.590	-0.550
2020/01/31 22:15:36.6	96.170	0.230	-0.540	-0.550
2020/01/31 22:15:36.7	96.150	0.210	-0.490	-0.540
2020/01/31 22:15:36.8	96.130	0.190	-0.430	-0.530
2020/01/31 22:15:36.9	96.110	0.160	-0.370	-0.520
2020/01/31 22:15:37.0	96.090	0.140	-0.310	-0.510
2020/01/31 22:15:37.1	96.070	0.120	-0.240	-0.490
2020/01/31 22:15:37.2	96.040	0.090	-0.180	-0.470
2020/01/31 22:15:37.3	96.020	0.070	-0.110	-0.450
2020/01/31 22:15:37.4	96.000	0.040	-0.040	-0.430
2020/01/31 22:15:37.5	95.980	0.020	0.020	-0.410
2020/01/31 22:15:37.6	95.960	-0.000	0.080	-0.380
2020/01/31 22:15:37.7	95.940	-0.030	0.150	-0.350
2020/01/31 22:15:37.8	95.920	-0.050	0.210	-0.330
2020/01/31 22:15:37.9	95.900	-0.070	0.260	-0.300
2020/01/31 22:15:38.0	95.880	-0.100	0.320	-0.270
2020/01/31 22:15:38.1	95.870	-0.120	0.370	-0.240
2020/01/31 22:15:38.2	95.850	-0.140	0.410	-0.210
2020/01/31 22:15:38.3	95.840	-0.160	0.460	-0.180
2020/01/31 22:15:38.4	95.820	-0.170	0.490	-0.150
2020/01/31 22:15:38.5	95.810	-0.190	0.530	-0.120
2020/01/31 22:15:38.6	95.790	-0.200	0.550	-0.090
2020/01/31 22:15:38.7	95.780	-0.220	0.580	-0.060
2020/01/31 22:15:38.8	95.770	-0.230	0.590	-0.040
2020/01/31 22:15:38.9	95.760	-0.240	0.600	-0.010
2020/01/31 22:15:39.0	95.750	-0.250	0.610	0.020
2020/01/31 22:15:39.1	95.740	-0.250	0.610	0.040
2020/01/31 22:15:39.2	95.730	-0.260	0.600	0.060
2020/01/31 22:15:39.3	95.720	-0.260	0.590	0.080
2020/01/31 22:15:39.4	95.720	-0.260	0.570	0.100
2020/01/31 22:15:39.5	95.720	-0.260	0.540	0.120
2020/01/31 22:15:39.6	95.710	-0.260	0.510	0.140
2020/01/31 22:15:39.7	95.710	-0.250	0.480	0.150
2020/01/31 22:15:39.8	95.710	-0.240	0.440	0.170
2020/01/31 22:15:39.9	95.710	-0.230	0.390	0.180
2020/01/31 22:15:40.0	95.700	-0.220	0.340	0.190
2020/01/31 22:15:40.1	95.710	-0.210	0.290	0.200
2020/01/31 22:15:40.2	95.710	-0.190	0.230	0.210
2020/01/31 22:15:40.3	95.710	-0.170	0.170	0.220
2020/01/31 22:15:40.4	95.720	-0.150	0.100	0.230
2020/01/31 22:15:40.5	95.730	-0.130	0.030	0.240
2020/01/31 22:15:40.6	95.730	-0.110	-0.040	0.240
2020/01/31 22:15:40.7	95.740	-0.090	-0.110	0.250
2020/01/31 22:15:40.8	95.750	-0.060	-0.180	0.250
2020/01/31 22:15:40.9	95.770	-0.040	-0.250	0.250
2020/01/31 22:15:41.0	95.780	-0.010	-0.320	0.260
2020/01/31 22:15:41.1	95.790	0.020	-0.390	0.260
2020/01/31 22:15:41.2	95.810	0.040	-0.460	0.260
2020/01/31 22:15:41.3	95.820	0.070	-0.530	0.260
2020/01/31 22:15:41.4	95.840	0.100	-0.590	0.260
2020/01/31 22:15:41.5	95.860	0.130	-0.660	0.260
2020/01/31 22:15:41.6	95.880	0.150	-0.710	0.250
2020/01/31 22:15:41.7	95.900	0.180	-0.770	0.250
2020/01/31 22:15:41.8	95.920	0.200	-0.820	0.250
2020/01/31 22:15:41.9	95.940	0.230	-0.860	0.240
2020/01/31 22:15:42.0	95.960	0.250	-0.900	0.240
2020/01/31 22:15:42.1	95.980	0.270	-0.940	0.240
2020/01/31 22:15:42.2	96.000	0.290	-0.960	0.240
2020/01/31 22:15:42.3	96.020	0.310	-0.990	0.240
2020/01/31 22:15:42.4	96.040	0.330	-1.000	0.240
2020/01/31 22:15:42.5	96.050	0.340	-1.010	0.250
2020/01/31 22:15:42.6	96.070	0.350	-1.010	0.250
2020/01/31 22:15:42.7	96.080	0.370	-1.000	0.260
2020/01/31 22:15:42.8	96.090	0.370	-0.990	0.270
2020/01/31 22:15:42.9	96.100	0.380	-0.970	0.280
2020/01/31 22:15:43.0	96.110	0.380	-0.940	0.300
2020/01/31 22:15:43.1	96.110	0.390	-0.910	0.320
2020/01/31 22:15:43.2	96.120	0.390	-0.870	0.340
2020/01/31 22:15:43.3	96.120	0.380	-0.820	0.360
2020/01/31 22:15:43.4	96.120	0.380	-0.770	0.380
2020/01/31 22:15:43.5	96.120	0.370	-0.720	0.410
2020/01/31 22:15:43.6	96.120	0.360	-0.660	0.440
2020/01/31 22:15:43.7	96.110	0.350	-0.590	0.470
2020/01/31 22:15:43.8	96.100	0.340	-0.530	0.510
2020/01/31 22:15:43.9	96.100	0.330	-0.460	0.540
2020/01/31 22:15:44.0	96.090	0.310	-0.380	0.570
2020/01/31 22:15:44.1	96.080	0.290	-0.310	0.610
2020/01/31 22:15:44.2	96.070	0.270	-0.230	0.640
2020/01/31 22:15:44.3	96.060	0.250	-0.160	0.680
2020/01/31 22:15:44.4	96.040	0.230	-0.080	0.710
2020/01/31 22:15:44.5	96.030	0.210	-0.010	0.750
2020/01/31 22:15:44.6	96.020	0.190	0.060	0.780
2020/01/31 22:15:44.7	96.010	0.170	0.130	0.810
2020/01/31 22:15:44.8	95.990	0.140	0.200	0.850
2020/01/31 22:15:44.9	95.980	0.120	0.260	0.870
2020/01/31 22:15:45.0	95.970	0.090	0.320	0.900
2020/01/31 22:15:45.1	95.960	0.070	0.370	0.920
2020/01/31 22:15:45.2	95.950	0.040	0.420	0.940
2020/01/31 22:15:45.3	95.940	0.020	0.470	0.960
2020/01/31 22:15:45.4	95.940	-0.000	0.500	0.970
2020/01/31 22:15:45.5	95.940	-0.030	0.540	0.980
2020/01/31 22:15:45.6	95.930	-0.050	0.560	0.990
2020/01/31 22:15:45.7	95.930	-0.070	0.590	0.990
2020/01/31 22:15:45.8	95.930	-0.090	0.600	0.990
2020/01/31 22:15:45.9	95.930	-0.110	0.610	0.980
2020/01/31 22:15:46.0	95.930	-0.130	0.610	0.970
2020/01/31 22:15:46.1	95.940	-0.140	0.610	0.960
2020/01/31 22:15:46.2	95.940	-0.160	0.590	0.950
2020/01/31 22:15:46.3	95.950	-0.170	0.580	0.940
2020/01/31 22:15:46.4	95.950	-0.190	0.550	0.920
2020/01/31 22:15:46.5	95.960	-0.200	0.530	0.910
2020/01/31 22:15:46.6	95.970	-0.210	0.490	0.890
2020/01/31 22:15:46.7	95.980	-0.210	0.450	0.870
2020/01/31 22:15:46.8	95.990	-0.220	0.410	0.850
2020/01/31 22:15:46.9	95.990	-0.230	0.360	0.830
2020/01/31 22:15:47.0	96.000	-0.230	0.310	0.820
2020/01/31 22:15:47.1	96.010	-0.240	0.260	0.800
2020/01/31 22:15:47.2	96.020	-0.240	0.200	0.780
2020/01/31 22:15:47.3	96.020	-0.240	0.140	0.760
2020/01/31 22:15:47.4	96.030	-0.240	0.080	0.740
2020/01/31 22:15:47.5	96.040	-0.240	0.020	0.720
2020/01/31 22:15:47.6	96.040	-0.240	-0.040	0.710
2020/01/31 22:15:47.7	96.050	-0.240	-0.100	0.690
2020/01/31 22:15:47.8	96.050	-0.240	-0.160	0.680
2020/01/31 22:15:47.9	96.050	-0.240	-0.220	0.670
2020/01/31 22:15:48.0	96.050	-0.240	-0.270	0.650
2020/01/31 22:15:48.1	96.040	-0.240	-0.330	0.650
2020/01/31 22:15:48.2	96.040	-0.240	-0.380	0.640
2020/01/31 22:15:48.3	96.030	-0.240	-0.430	0.640
2020/01/31 22:15:48.4	96.020	-0.250	-0.470	0.630
2020/01/31 22:15:48.5	96.010	-0.250	-0.510	0.630
2020/01/31 22:15:48.6	96.000	-0.250	-0.550	0.630
2020/01/31 22:15:48.7	95.990	-0.250	-0.580	0.640
2020/01/31 22:15:48.8	95.970	-0.260	-0.610	0.640
2020/01/31 22:15:48.9	95.950	-0.260	-0.630	0.650
2020/01/31 22:15:49.0	95.940	-0.270	-0.650	0.660
2020/01/31 22:15:49.1	95.920	-0.270	-0.670	0.660
2020/01/31 22:15:49.2	95.900	-0.280	-0.680	0.670
2020/01/31 22:15:49.3	95.880	-0.280	-0.690	0.680
2020/01/31 22:15:49.4	95.860	-0.290	-0.690	0.690
2020/01/31 22:15:49.5	95.840	-0.290	-0.690	0.700
2020/01/31 22:15:49.6	95.820	-0.300	-0.690	0.700
2020/01/31 22:15:49.7	95.800	-0.300	-0.680	0.710
2020/01/31 22:15:49.8	95.780	-0.310	-0.670	0.710
2020/01/31 22:15:49.9	95.760	-0.310	-0.660	0.710
2020/01/31 22:15:50.0	95.750	-0.320	-0.650	0.710
2020/01/31 22:15:50.1	95.730	-0.320	-0.640	0.700
2020/01/31 22:15:50.2	95.720	-0.320	-0.620	0.700
2020/01/31 22:15:50.3	95.710	-0.320	-0.600	0.690
2020/01/31 22:15:50.4	95.690	-0.310	-0.590	0.670
2020/01/31 22:15:50.5	95.690	-0.310	-0.570	0.660
2020/01/31 22:15:50.6	95.680	-0.300	-0.550	0.640
2020/01/31 22:15:50.7	95.670	-0.300	-0.530	0.610
2020/01/31 22:15:50.8	95.670	-0.290	-0.510	0.590
2020/01/31 22:15:50.9	95.660	-0.270	-0.490	0.550
2020/01/31 22:15:51.0	95.660	-0.260	-0.470	0.520
2020/01/31 22:15:51.1	95.660	-0.250	-0.450	0.480
2020/01/31 22:15:51.2	95.660	-0.230	-0.430	0.440
2020/01/31 22:15:51.3	95.660	-0.210	-0.410	0.400
2020/01/31 22:15:51.4	95.660	-0.190	-0.390	0.360
2020/01/31 22:15:51.5	95.670	-0.160	-0.370	0.310
2020/01/31 22:15:51.6	95.670	-0.140	-0.350	0.260
2020/01/31 22:15:51.7	95.680	-0.110	-0.340	0.210
2020/01/31 22:15:51.8	95.690	-0.080	-0.310	0.160
2020/01/31 22:15:51.9	95.690	-0.060	-0.290	0.110
2020/01/31 22:15:52.0	95.710	-0.030	-0.280	0.060
2020/01/31 22:15:52.1	95.720	0.010	-0.250	0.010
2020/01/31 22:15:52.2	95.730	0.040	-0.230	-0.050
2020/01/31 22:15:52.3	95.740	0.070	-0.210	-0.100
2020/01/31 22:15:52.4	95.750	0.100	-0.190	-0.150
2020/01/31 22:15:52.5	95.760	0.130	-0.160	-0.210
2020/01/31 22:15:52.6	95.770	0.160	-0.140	-0.260
2020/01/31 22:15:52.7	95.790	0.190	-0.110	-0.310
2020/01/31 22:15:52.8	95.800	0.220	-0.090	-0.350
2020/01/31 22:15:52.9	95.810	0.250	-0.060	-0.400
2020/01/31 22:15:53.0	95.820	0.280	-0.040	-0.440
2020/01/31 22:15:53.1	95.830	0.300	-0.010	-0.490
2020/01/31 22:15:53.2	95.830	0.330	0.020	-0.530
2020/01/31 22:15:53.3	95.840	0.350	0.050	-0.570
2020/01/31 22:15:53.4	95.850	0.370	0.070	-0.600
2020/01/31 22:15:53.5	95.850	0.390	0.100	-0.640
2020/01/31 22:15:53.6	95.860	0.410	0.130	-0.670
2020/01/31 22:15:53.7	95.860	0.420	0.150	-0.700
2020/01/31 22:15:53.8	95.860	0.430	0.170	-0.720
2020/01/31 22:15:53.9	95.870	0.440	0.190	-0.740
2020/01/31 22:15:54.0	95.870	0.450	0.220	-0.770
2020/01/31 22:15:54.1	95.870	0.460	0.230	-0.780
2020/01/31 22:15:54.2	95.870	0.460	0.250	-0.800
2020/01/31 22:15:54.3	95.860	0.460	0.260	-0.810
2020/01/31 22:15:54.4	95.860	0.460	0.260	-0.820
2020/01/31 22:15:54.5	95.860	0.460	0.270	-0.820
2020/01/31 22:15:54.6	95.860	0.460	0.270	-0.830
2020/01/31 22:15:54.7	95.850	0.450	0.260	-0.830
2020/01/31 22:15:54.8	95.850	0.450	0.260	-0.830
2020/01/31 22:15:54.9	95.850	0.440	0.240	-0.820
2020/01/31 22:15:55.0	95.850	0.430	0.220	-0.820
2020/01/31 22:15:55.1	95.850	0.430	0.200	-0.810
2020/01/31 22:15:55.2	95.850	0.420	0.180	-0.800
2020/01/31 22:15:55.3	95.850	0.410	0.150	-0.780
2020/01/31 22:15:55.4	95.840	0.400	0.120	-0.770
2020/01/31 22:15:55.5	95.840	0.390	0.090	-0.750
2020/01/31 22:15:55.6	95.840	0.380	0.060	-0.730
2020/01/31 22:15:55.7	95.840	0.370	0.020	-0.700
2020/01/31 22:15:55.8	95.840	0.360	-0.020	-0.670
2020/01/31 22:15:55.9	95.840	0.350	-0.060	-0.640
2020/01/31 22:15:56.0	95.840	0.340	-0.100	-0.610
2020/01/31 22:15:56.1	95.840	0.330	-0.140	-0.570
2020/01/31 22:15:56.2	95.840	0.310	-0.180	-0.530
2020/01/31 22:15:56.3	95.840	0.300	-0.210	-0.480
2020/01/31 22:15:56.4	95.830	0.290	-0.250	-0.430
2020/01/31 22:15:56.5	95.830	0.280	-0.280	-0.380
2020/01/31 22:15:56.6	95.830	0.260	-0.320	-0.320
2020/01/31 22:15:56.7	95.830	0.250	-0.350	-0.270
2020/01/31 22:15:56.8	95.820	0.230	-0.370	-0.200
2020/01/31 22:15:56.9	95.820	0.220	-0.400	-0.140
2020/01/31 22:15:57.0	95.810	0.200	-0.420	-0.070
2020/01/31 22:15:57.1	95.810	0.180	-0.440	0.000
2020/01/31 22:15:57.2	95.800	0.160	-0.450	0.080
2020/01/31 22:15:57.3	95.800	0.140	-0.460	0.150
2020/01/31 22:15:57.4	95.790	0.120	-0.460	0.230
2020/01/31 22:15:57.5	95.790	0.090	-0.460	0.310
2020/01/31 22:15:57.6	95.780	0.070	-0.460	0.400
2020/01/31 22:15:57.7	95.780	0.040	-0.460	0.480
2020/01/31 22:15:57.8	95.770	0.010	-0.450	0.560
2020/01/31 22:15:57.9	95.770	-0.010	-0.430	0.650
2020/01/31 22:15:58.0	95.770	-0.050	-0.420	0.740
2020/01/31 22:15:58.1	95.760	-0.080	-0.400	0.820
2020/01/31 22:15:58.2	95.760	-0.110	-0.380	0.910
2020/01/31 22:15:58.3	95.750	-0.140	-0.350	0.990
2020/01/31 22:15:58.4	95.750	-0.180	-0.330	1.070
2020/01/31 22:15:58.5	95.750	-0.210	-0.300	1.160
2020/01/31 22:15:58.6	95.750	-0.240	-0.280	1.230
2020/01/31 22:15:58.7	95.750	-0.280	-0.250	1.310
2020/01/31 22:15:58.8	95.750	-0.310	-0.220	1.390
2020/01/31 22:15:58.9	95.750	-0.340	-0.190	1.460
2020/01/31 22:15:59.0	95.750	-0.380	-0.160	1.520
2020/01/31 22:15:59.1	95.750	-0.410	-0.130	1.580
2020/01/31 22:15:59.2	95.750	-0.440	-0.100	1.640
2020/01/31 22:15:59.3	95.760	-0.460	-0.070	1.700
2020/01/31 22:15:59.4	95.760	-0.490	-0.050	1.750
2020/01/31 22:15:59.5	95.770	-0.510	-0.020	1.790
2020/01/31 22:15:59.6	95.770	-0.530	-0.000	1.830
2020/01/31 22:15:59.7	95.780	-0.550	0.020	1.870
2020/01/31 22:15:59.8	95.790	-0.560	0.030	1.890
2020/01/31 22:15:59.9	95.800	-0.570	0.050	1.920
2020/01/31 22:16:00.0	95.810	-0.580	0.060	1.940
2020/01/31 22:16:00.1	95.820	-0.580	0.070	1.950
2020/01/31 22:16:00.2	95.830	-0.580	0.070	1.960
2020/01/31 22:16:00.3	95.840	-0.580	0.080	1.960
2020/01/31 22:16:00.4	95.850	-0.570	0.070	1.960
2020/01/31 22:16:00.5	95.860	-0.560	0.070	1.960
2020/01/31 22:16:00.6	95.870	-0.540	0.060	1.950
2020/01/31 22:16:00.7	95.870	-0.520	0.050	1.940
2020/01/31 22:16:00.8	95.880	-0.500	0.030	1.930
2020/01/31 22:16:00.9	95.890	-0.470	0.020	1.910
2020/01/31 22:16:01.0	95.900	-0.440	-0.000	1.890
2020/01/31 22:16:01.1	95.910	-0.410	-0.030	1.860
2020/01/31 22:16:01.2	95.910	-0.370	-0.050	1.840
2020/01/31 22:16:01.3	95.910	-0.330	-0.080	1.810
2020/01/31 22:16:01.4	95.910	-0.290	-0.110	1.780
2020/01/31 22:16:01.5	95.920	-0.250	-0.140	1.750
2020/01/31 22:16:01.6	95.920	-0.210	-0.170	1.710
2020/01/31 22:16:01.7	95.910	-0.160	-0.200	1.680
2020/01/31 22:16:01.8	95.910	-0.120	-0.230	1.640
2020/01/31 22:16:01.9	95.910	-0.070	-0.260	1.600
2020/01/31 22:16:02.0	95.910	-0.030	-0.290	1.560
2020/01/31 22:16:02.1	95.900	0.020	-0.320	1.510
2020/01/31 22:16:02.2	95.900	0.060	-0.350	1.470
2020/01/31 22:16:02.3	95.890	0.100	-0.380	1.420
2020/01/31 22:16:02.4	95.880	0.140	-0.410	1.370
2020/01/31 22:16:02.5	95.880	0.180	-0.430	1.320
2020/01/31 22:16:02.6	95.870	0.220	-0.460	1.270
2020/01/31 22:16:02.7	95.870	0.250	-0.480	1.210
2020/01/31 22:16:02.8	95.860	0.280	-0.490	1.160
2020/01/31 22:16:02.9	95.860	0.310	-0.510	1.100
2020/01/31 22:16:03.0	95.860	0.340	-0.520	1.030
2020/01/31 22:16:03.1	95.850	0.360	-0.530	0.970
2020/01/31 22:16:03.2	95.850	0.370	-0.540	0.910
2020/01/31 22:16:03.3	95.840	0.390	-0.540	0.850
2020/01/31 22:16:03.4	95.840	0.400	-0.530	0.790
2020/01/31 22:16:03.5	95.830	0.400	-0.530	0.720
2020/01/31 22:16:03.6	95.820	0.400	-0.520	0.660
2020/01/31 22:16:03.7	95.820	0.400	-0.500	0.590
2020/01/31 22:16:03.8	95.810	0.390	-0.480	0.530
2020/01/31 22:16:03.9	95.800	0.380	-0.460	0.470
2020/01/31 22:16:04.0	95.800	0.370	-0.430	0.400
2020/01/31 22:16:04.1	95.790	0.350	-0.410	0.340
2020/01/31 22:16:04.2	95.780	0.330	-0.370	0.270
2020/01/31 22:16:04.3	95.780	0.300	-0.340	0.210
2020/01/31 22:16:04.4	95.770	0.270	-0.300	0.150
2020/01/31 22:16:04.5	95.760	0.240	-0.260	0.090
2020/01/31 22:16:04.6	95.750	0.210	-0.220	0.030
2020/01/31 22:16:04.7	95.750	0.180	-0.180	-0.020
2020/01/31 22:16:04.8	95.740	0.140	-0.140	-0.080
2020/01/31 22:16:04.9	95.730	0.100	-0.100	-0.130
2020/01/31 22:16:05.0	95.720	0.070	-0.060	-0.180
2020/01/31 22:16:05.1	95.710	0.030	-0.020	-0.230
2020/01/31 22:16:05.2	95.710	-0.010	0.020	-0.280
2020/01/31 22:16:05.3	95.700	-0.050	0.060	-0.330
2020/01/31 22:16:05.4	95.690	-0.080	0.100	-0.370
2020/01/31 22:16:05.5	95.690	-0.120	0.140	-0.410
2020/01/31 22:16:05.6	95.680	-0.150	0.170	-0.450
2020/01/31 22:16:05.7	95.670	-0.180	0.200	-0.490
2020/01/31 22:16:05.8	95.670	-0.220	0.230	-0.520
2020/01/31 22:16:05.9	95.660	-0.240	0.260	-0.560
2020/01/31 22:16:06.0	95.660	-0.270	0.280	-0.590
2020/01/31 22:16:06.1	95.650	-0.290	0.300	-0.620
2020/01/31 22:16:06.2	95.650	-0.310	0.310	-0.640
2020/01/31 22:16:06.3	95.640	-0.330	0.320	-0.670
2020/01/31 22:16:06.4	95.640	-0.340	0.330	-0.690
2020/01/31 22:16:06.5	95.640	-0.350	0.330	-0.720
2020/01/31 22:16:06.6	95.630	-0.360	0.330	-0.740
2020/01/31 22:16:06.7	95.630	-0.360	0.320	-0.760
2020/01/31 22:16:06.8	95.630	-0.360	0.310	-0.780
2020/01/31 22:16:06.9	95.630	-0.360	0.290	-0.790
2020/01/31 22:16:07.0	95.630	-0.350	0.260	-0.810
2020/01/31 22:16:07.1	95.630	-0.340	0.240	-0.820
2020/01/31 22:16:07.2	95.640	-0.330	0.210	-0.840
2020/01/31 22:16:07.3	95.640	-0.310	0.170	-0.850
2020/01/31 22:16:07.4	95.640	-0.290	0.140	-0.860
2020/01/31 22:16:07.5	95.650	-0.260	0.090	-0.870
2020/01/31 22:16:07.6	95.660	-0.240	0.050	-0.880
2020/01/31 22:16:07.7	95.670	-0.210	0.000	-0.880
2020/01/31 22:16:07.8	95.670	-0.180	-0.050	-0.890
2020/01/31 22:16:07.9	95.690	-0.140	-0.100	-0.890
2020/01/31 22:16:08.0	95.700	-0.100	-0.160	-0.890
2020/01/31 22:16:08.1	95.710	-0.070	-0.210	-0.900
2020/01/31 22:16:08.2	95.730	-0.030	-0.270	-0.900
2020/01/31 22:16:08.3	95.740	0.020	-0.330	-0.900
2020/01/31 22:16:08.4	95.760	0.060	-0.390	-0.890
2020/01/31 22:16:08.5	95.780	0.100	-0.450	-0.890
2020/01/31 22:16:08.6	95.790	0.140	-0.500	-0.890
2020/01/31 22:16:08.7	95.810	0.180	-0.560	-0.880
2020/01/31 22:16:08.8	95.830	0.230	-0.610	-0.870
2020/01/31 22:16:08.9	95.850	0.270	-0.660	-0.860
2020/01/31 22:16:09.0	95.880	0.310	-0.720	-0.850
2020/01/31 22:16:09.1	95.900	0.350	-0.760	-0.830
2020/01/31 22:16:09.2	95.920	0.380	-0.800	-0.820
2020/01/31 22:16:09.3	95.940	0.420	-0.840	-0.800
2020/01/31 22:16:09.4	95.960	0.450	-0.880	-0.780
2020/01/31 22:16:09.5	95.990	0.480	-0.900	-0.750
2020/01/31 22:16:09.6	96.010	0.500	-0.930	-0.730
2020/01/31 22:16:09.7	96.030	0.530	-0.950	-0.700
2020/01/31 22:16:09.8	96.050	0.540	-0.960	-0.670
2020/01/31 22:16:09.9	96.070	0.560	-0.960	-0.630
2020/01/31 22:16:10.0	96.100	0.570	-0.960	-0.590
2020/01/31 22:16:10.1	96.120	0.570	-0.950	-0.550
2020/01/31 22:16:10.2	96.140	0.580	-0.940	-0.500
2020/01/31 22:16:10.3	96.150	0.570	-0.920	-0.460
2020/01/31 22:16:10.4	96.170	0.570	-0.890	-0.410
2020/01/31 22:16:10.5	96.180	0.550	-0.860	-0.350
2020/01/31 22:16:10.6	96.200	0.540	-0.810	-0.300
2020/01/31 22:16:10.7	96.210	0.520	-0.770	-0.240
2020/01/31 22:16:10.8	96.220	0.490	-0.710	-0.170
2020/01/31 22:16:10.9	96.220	0.460	-0.650	-0.110
2020/01/31 22:16:11.0	96.230	0.430	-0.590	-0.040
2020/01/31 22:16:11.1	96.230	0.390	-0.520	0.030
2020/01/31 22:16:11.2	96.230	0.350	-0.450	0.100
2020/01/31 22:16:11.3	96.230	0.300	-0.370	0.180
2020/01/31 22:16:11.4	96.230	0.260	-0.290	0.250
2020/01/31 22:16:11.5	96.220	0.210	-0.200	0.330
2020/01/31 22:16:11.6	96.210	0.150	-0.110	0.410
2020/01/31 22:16:11.7	96.190	0.100	-0.020	0.500
2020/01/31 22:16:11.8	96.180	0.040	0.070	0.580
2020/01/31 22:16:11.9	96.160	-0.020	0.170	0.660
2020/01/31 22:16:12.0	96.140	-0.080	0.260	0.750
2020/01/31 22:16:12.1	96.120	-0.140	0.360	0.830
2020/01/31 22:16:12.2	96.100	-0.200	0.450	0.920
2020/01/31 22:16:12.3	96.070	-0.260	0.540	1.000
2020/01/31 22:16:12.4	96.040	-0.320	0.630	1.090
2020/01/31 22:16:12.5	96.010	-0.380	0.710	1.170
2020/01/31 22:16:12.6	95.980	-0.430	0.790	1.250
2020/01/31 22:16:12.7	95.950	-0.490	0.870	1.330
2020/01/31 22:16:12.8	95.920	-0.540	0.940	1.400
2020/01/31 22:16:12.9	95.890	-0.590	1.000	1.480
2020/01/31 22:16:13.0	95.860	-0.640	1.060	1.550
2020/01/31 22:16:13.1	95.820	-0.690	1.110	1.610
2020/01/31 22:16:13.2	95.790	-0.730	1.150	1.670
2020/01/31 22:16:13.3	95.760	-0.770	1.180	1.730
2020/01/31 22:16:13.4	95.730	-0.800	1.210	1.780
2020/01/31 22:16:13.5	95.710	-0.830	1.220	1.830
2020/01/31 22:16:13.6	95.680	-0.850	1.220	1.870
2020/01/31 22:16:13.7	95.650	-0.870	1.220	1.910
2020/01/31 22:16:13.8	95.630	-0.890	1.200	1.940
2020/01/31 22:16:13.9	95.610	-0.900	1.180	1.960
2020/01/31 22:16:14.0	95.580	-0.900	1.140	1.980
2020/01/31 22:16:14.1	95.570	-0.900	1.090	1.990
2020/01/31 22:16:14.2	95.550	-0.890	1.040	1.990
2020/01/31 22:16:14.3	95.540	-0.880	0.970	1.990
2020/01/31 22:16:14.4	95.530	-0.860	0.890	1.980
2020/01/31 22:16:14.5	95.520	-0.840	0.810	1.970
2020/01/31 22:16:14.6	95.520	-0.810	0.720	1.950
2020/01/31 22:16:14.7	95.510	-0.780	0.610	1.920
2020/01/31 22:16:14.8	95.510	-0.740	0.510	1.890
2020/01/31 22:16:14.9	95.520	-0.700	0.390	1.860
2020/01/31 22:16:15.0	95.510	-0.650	0.270	1.820
2020/01/31 22:16:15.1	95.520	-0.600	0.140	1.770
2020/01/31 22:16:15.2	95.530	-0.540	0.010	1.730
2020/01/31 22:16:15.3	95.540	-0.490	-0.120	1.680
2020/01/31 22:16:15.4	95.550	-0.420	-0.250	1.620
2020/01/31 22:16:15.5	95.570	-0.360	-0.380	1.570
2020/01/31 22:16:15.6	95.590	-0.290	-0.520	1.510
2020/01/31 22:16:15.7	95.600	-0.230	-0.650	1.450
2020/01/31 22:16:15.8	95.620	-0.160	-0.780	1.390
2020/01/31 22:16:15.9	95.650	-0.090	-0.910	1.330
2020/01/31 22:16:16.0	95.670	-0.020	-1.040	1.270
2020/01/31 22:16:16.1	95.690	0.050	-1.160	1.210
2020/01/31 22:16:16.2	95.710	0.120	-1.270	1.150
2020/01/31 22:16:16.3	95.740	0.190	-1.380	1.090
2020/01/31 22:16:16.4	95.760	0.260	-1.480	1.030
2020/01/31 22:16:16.5	95.790	0.320	-1.570	0.970
2020/01/31 22:16:16.6	95.810	0.390	-1.660	0.900
2020/01/31 22:16:16.7	95.840	0.450	-1.740	0.840
2020/01/31 22:16:16.8	95.870	0.500	-1.800	0.780
2020/01/31 22:16:16.9	95.890	0.560	-1.860	0.720
2020/01/31 22:16:17.0	95.920	0.610	-1.900	0.660
2020/01/31 22:16:17.1	95.950	0.660	-1.940	0.600
2020/01/31 22:16:17.2	95.980	0.700	-1.970	0.540
2020/01/31 22:16:17.3	96.000	0.740	-1.980	0.480
2020/01/31 22:16:17.4	96.030	0.770	-1.980	0.420
2020/01/31 22:16:17.5	96.050	0.800	-1.970	0.360
2020/01/31 22:16:17.6	96.080	0.820	-1.950	0.310
2020/01/31 22:16:17.7	96.100	0.840	-1.920	0.250
2020/01/31 22:16:17.8	96.120	0.850	-1.880	0.200
2020/01/31 22:16:17.9	96.130	0.860	-1.830	0.150
2020/01/31 22:16:18.0	96.150	0.860	-1.760	0.100
2020/01/31 22:16:18.1	96.170	0.860	-1.690	0.050
2020/01/31 22:16:18.2	96.180	0.850	-1.600	0.000
2020/01/31 22:16:18.3	96.180	0.840	-1.510	-0.040
2020/01/31 22:16:18.4	96.190	0.820	-1.410	-0.080
2020/01/31 22:16:18.5	96.190	0.800	-1.300	-0.120
2020/01/31 22:16:18.6	96.180	0.770	-1.180	-0.150
2020/01/31 22:16:18.7	96.180	0.740	-1.060	-0.190
2020/01/31 22:16:18.8	96.170	0.700	-0.930	-0.220
2020/01/31 22:16:18.9	96.150	0.670	-0.790	-0.240
2020/01/31 22:16:19.0	96.140	0.620	-0.650	-0.270
2020/01/31 22:16:19.1	96.120	0.580	-0.500	-0.290
2020/01/31 22:16:19.2	96.100	0.530	-0.350	-0.310
2020/01/31 22:16:19.3	96.070	0.480	-0.200	-0.320
2020/01/31 22:16:19.4	96.040	0.420	-0.050	-0.330
2020/01/31 22:16:19.5	96.010	0.370	0.100	-0.340
2020/01/31 22:16:19.6	95.970	0.310	0.250	-0.340
2020/01/31 22:16:19.7	95.940	0.250	0.400	-0.340
2020/01/31 22:16:19.8	95.900	0.190	0.550	-0.340
2020/01/31 22:16:19.9	95.860	0.130	0.690	-0.330
2020/01/31 22:16:20.0	95.820	0.070	0.830	-0.330
2020/01/31 22:16:20.1	95.780	0.010	0.960	-0.320
2020/01/31 22:16:20.2	95.730	-0.050	1.090	-0.300
2020/01/31 22:16:20.3	95.690	-0.110	1.200	-0.290
2020/01/31 22:16:20.4	95.650	-0.170	1.320	-0.270
2020/01/31 22:16:20.5	95.610	-0.220	1.420	-0.250
2020/01/31 22:16:20.6	95.570	-0.280	1.510	-0.230
2020/01/31 22:16:20.7	95.530	-0.330	1.590	-0.210
2020/01/31 22:16:20.8	95.500	-0.380	1.660	-0.190
2020/01/31 22:16:20.9	95.460	-0.420	1.720	-0.170
2020/01/31 22:16:21.0	95.420	-0.470	1.770	-0.160
2020/01/31 22:16:21.1	95.400	-0.500	1.800	-0.140
2020/01/31 22:16:21.2	95.370	-0.540	1.820	-0.120
2020/01/31 22:16:21.3	95.350	-0.570	1.830	-0.110
2020/01/31 22:16:21.4	95.320	-0.600	1.820	-0.090
2020/01/31 22:16:21.5	95.310	-0.620	1.800	-0.080
2020/01/31 22:16:21.6	95.290	-0.640	1.770	-0.070
2020/01/31 22:16:21.7	95.280	-0.650	1.720	-0.060
2020/01/31 22:16:21.8	95.270	-0.660	1.660	-0.050
2020/01/31 22:16:21.9	95.260	-0.660	1.590	-0.050
2020/01/31 22:16:22.0	95.250	-0.660	1.500	-0.040
2020/01/31 22:16:22.1	95.250	-0.660	1.400	-0.040
2020/01/31 22:16:22.2	95.250	-0.650	1.300	-0.040
2020/01/31 22:16:22.3	95.250	-0.640	1.180	-0.040
2020/01/31 22:16:22.4	95.260	-0.620	1.050	-0.040
2020/01/31 22:16:22.5	95.270	-0.600	0.920	-0.040
2020/01/31 22:16:22.6	95.280	-0.570	0.780	-0.050
2020/01/31 22:16:22.7	95.290	-0.540	0.630	-0.050
2020/01/31 22:16:22.8	95.300	-0.510	0.480	-0.060
2020/01/31 22:16:22.9	95.320	-0.480	0.330	-0.070
2020/01/31 22:16:23.0	95.330	-0.440	0.170	-0.070
2020/01/31 22:16:23.1	95.350	-0.400	0.010	-0.080
2020/01/31 22:16:23.2	95.380	-0.360	-0.140	-0.090
2020/01/31 22:16:23.3	95.400	-0.320	-0.300	-0.100
2020/01/31 22:16:23.4	95.420	-0.280	-0.450	-0.110
2020/01/31 22:16:23.5	95.440	-0.230	-0.610	-0.120
2020/01/31 22:16:23.6	95.470	-0.190	-0.750	-0.130
2020/01/31 22:16:23.7	95.490	-0.140	-0.890	-0.140
2020/01/31 22:16:23.8	95.520	-0.100	-1.030	-0.150
2020/01/31 22:16:23.9	95.540	-0.050	-1.150	-0.160
2020/01/31 22:16:24.0	95.570	-0.010	-1.270	-0.160
2020/01/31 22:16:24.1	95.590	0.030	-1.380	-0.160
2020/01/31 22:16:24.2	95.620	0.080	-1.480	-0.170
2020/01/31 22:16:24.3	95.640	0.120	-1.570	-0.170
2020/01/31 22:16:24.4	95.660	0.150	-1.650	-0.160
2020/01/31 22:16:24.5	95.680	0.190	-1.720	-0.160
2020/01/31 22:16:24.6	95.690	0.220	-1.780	-0.150
2020/01/31 22:16:24.7	95.710	0.250	-1.820	-0.140
2020/01/31 22:16:24.8	95.720	0.280	-1.860	-0.130
2020/01/31 22:16:24.9	95.730	0.310	-1.880	-0.110
2020/01/31 22:16:25.0	95.750	0.330	-1.890	-0.090
2020/01/31 22:16:25.1	95.750	0.350	-1.880	-0.070
2020/01/31 22:16:25.2	95.760	0.370	-1.870	-0.040
2020/01/31 22:16:25.3	95.760	0.380	-1.840	-0.020
2020/01/31 22:16:25.4	95.760	0.390	-1.810	0.020
2020/01/31 22:16:25.5	95.760	0.400	-1.760	0.050
2020/01/31 22:16:25.6	95.750	0.400	-1.700	0.090
2020/01/31 22:16:25.7	95.740	0.400	-1.630	0.140
2020/01/31 22:16:25.8	95.730	0.400	-1.550	0.180
2020/01/31 22:16:25.9	95.720	0.400	-1.470	0.230
2020/01/31 22:16:26.0	95.710	0.390	-1.380	0.280
2020/01/31 22:16:26.1	95.690	0.380	-1.280	0.340
2020/01/31 22:16:26.2	95.670	0.360	-1.170	0.400
2020/01/31 22:16:26.3	95.650	0.350	-1.060	0.460
2020/01/31 22:16:26.4	95.620	0.330	-0.950	0.520
2020/01/31 22:16:26.5	95.600	0.310	-0.830	0.580
2020/01/31 22:16:26.6	95.570	0.290	-0.710	0.650
2020/01/31 22:16:26.7	95.540	0.260	-0.580	0.720
2020/01/31 22:16:26.8	95.510	0.240	-0.460	0.790
2020/01/31 22:16:26.9	95.480	0.210	-0.330	0.860
2020/01/31 22:16:27.0	95.440	0.180	-0.210	0.920
2020/01/31 22:16:27.1	95.410	0.150	-0.090	0.990
2020/01/31 22:16:27.2	95.370	0.120	0.030	1.060
2020/01/31 22:16:27.3	95.340	0.090	0.140	1.130
2020/01/31 22:16:27.4	95.310	0.060	0.250	1.200
2020/01/31 22:16:27.5	95.270	0.030	0.360	1.260
2020/01/31 22:16:27.6	95.240	0.000	0.460	1.320
2020/01/31 22:16:27.7	95.210	-0.030	0.550	1.380
2020/01/31 22:16:27.8	95.190	-0.060	0.630	1.440
2020/01/31 22:16:27.9	95.160	-0.090	0.710	1.490
2020/01/31 22:16:28.0	95.130	-0.110	0.780	1.540
2020/01/31 22:16:28.1	95.110	-0.140	0.840	1.590
2020/01/31 22:16:28.2	95.090	-0.170	0.900	1.630
2020/01/31 22:16:28.3	95.080	-0.190	0.940	1.670
2020/01/31 22:16:28.4	95.060	-0.210	0.980	1.700
2020/01/31 22:16:28.5	95.050	-0.230	1.010	1.720
2020/01/31 22:16:28.6	95.040	-0.250	1.020	1.750
2020/01/31 22:16:28.7	95.040	-0.260	1.030	1.760
2020/01/31 22:16:28.8	95.030	-0.280	1.040	1.780
2020/01/31 22:16:28.9	95.030	-0.290	1.030	1.780
2020/01/31 22:16:29.0	95.040	-0.300	1.010	1.780
2020/01/31 22:16:29.1	95.040	-0.310	0.990	1.780
2020/01/31 22:16:29.2	95.040	-0.310	0.960	1.770
2020/01/31 22:16:29.3	95.050	-0.320	0.920	1.750
2020/01/31 22:16:29.4	95.060	-0.320	0.870	1.730
2020/01/31 22:16:29.5	95.070	-0.320	0.820	1.710
2020/01/31 22:16:29.6	95.090	-0.310	0.760	1.680
2020/01/31 22:16:29.7	95.100	-0.310	0.700	1.640
2020/01/31 22:16:29.8	95.120	-0.300	0.630	1.600
2020/01/31 22:16:29.9	95.140	-0.290	0.550	1.560
2020/01/31 22:16:30.0	95.150	-0.270	0.480	1.500
2020/01/31 22:16:30.1	95.170	-0.260	0.390	1.450
2020/01/31 22:16:30.2	95.190	-0.240	0.310	1.390
2020/01/31 22:16:30.3	95.220	-0.220	0.220	1.330
2020/01/31 22:16:30.4	95.240	-0.200	0.140	1.270
2020/01/31 22:16:30.5	95.270	-0.180	0.050	1.200
2020/01/31 22:16:30.6	95.290	-0.160	-0.040	1.130
2020/01/31 22:16:30.7	95.320	-0.140	-0.130	1.060
2020/01/31 22:16:30.8	95.350	-0.110	-0.220	0.980
2020/01/31 22:16:30.9	95.370	-0.080	-0.310	0.910
2020/01/31 22:16:31.0	95.400	-0.060	-0.390	0.830
2020/01/31 22:16:31.1	95.420	-0.030	-0.470	0.760
2020/01/31 22:16:31.2	95.450	-0.000	-0.550	0.680
2020/01/31 22:16:31.3	95.470	0.030	-0.620	0.610
2020/01/31 22:16:31.4	95.490	0.050	-0.690	0.540
2020/01/31 22:16:31.5	95.510	0.080	-0.750	0.470
2020/01/31 22:16:31.6	95.530	0.110	-0.810	0.400
2020/01/31 22:16:31.7	95.550	0.140	-0.860	0.340
2020/01/31 22:16:31.8	95.560	0.160	-0.910	0.280
2020/01/31 22:16:31.9	95.570	0.180	-0.950	0.220
2020/01/31 22:16:32.0	95.580	0.210	-0.980	0.170
2020/01/31 22:16:32.1	95.590	0.230	-1.010	0.120
2020/01/31 22:16:32.2	95.590	0.250	-1.020	0.080
2020/01/31 22:16:32.3	95.580	0.260	-1.030	0.050
2020/01/31 22:16:32.4	95.580	0.280	-1.030	0.020
2020/01/31 22:16:32.5	95.570	0.290	-1.030	-0.010
2020/01/31 22:16:32.6	95.560	0.300	-1.020	-0.020
2020/01/31 22:16:32.7	95.540	0.300	-1.000	-0.040
2020/01/31 22:16:32.8	95.520	0.310	-0.970	-0.050
2020/01/31 22:16:32.9	95.490	0.310	-0.940	-0.050
2020/01/31 22:16:33.0	95.470	0.300	-0.890	-0.050
2020/01/31 22:16:33.1	95.440	0.300	-0.850	-0.050
2020/01/31 22:16:33.2	95.410	0.290	-0.800	-0.040
2020/01/31 22:16:33.3	95.370	0.280	-0.740	-0.020
2020/01/31 22:16:33.4	95.330	0.270	-0.680	-0.010
2020/01/31 22:16:33.5	95.290	0.250	-0.620	0.010
2020/01/31 22:16:33.6	95.250	0.230	-0.550	0.040
2020/01/31 22:16:33.7	95.200	0.210	-0.490	0.060
2020/01/31 22:16:33.8	95.160	0.190	-0.420	0.090
2020/01/31 22:16:33.9	95.110	0.170	-0.350	0.110
2020/01/31 22:16:34.0	95.060	0.140	-0.280	0.140
2020/01/31 22:16:34.1	95.010	0.110	-0.210	0.170
2020/01/31 22:16:34.2	94.960	0.080	-0.140	0.200
2020/01/31 22:16:34.3	94.910	0.050	-0.080	0.230
2020/01/31 22:16:34.4	94.860	0.030	-0.010	0.260
2020/01/31 22:16:34.5	94.810	-0.000	0.050	0.280
2020/01/31 22:16:34.6	94.770	-0.030	0.110	0.300
2020/01/31 22:16:34.7	94.720	-0.060	0.160	0.330
2020/01/31 22:16:34.8	94.680	-0.090	0.210	0.350
2020/01/31 22:16:34.9	94.640	-0.120	0.250	0.360
2020/01/31 22:16:35.0	94.590	-0.140	0.290	0.370
2020/01/31 22:16:35.1	94.560	-0.170	0.320	0.380
2020/01/31 22:16:35.2	94.520	-0.190	0.350	0.390
2020/01/31 22:16:35.3	94.490	-0.210	0.370	0.390
2020/01/31 22:16:35.4	94.470	-0.220	0.390	0.390
2020/01/31 22:16:35.5	94.450	-0.240	0.400	0.380
2020/01/31 22:16:35.6	94.430	-0.250	0.400	0.370
2020/01/31 22:16:35.7	94.410	-0.260	0.400	0.360
2020/01/31 22:16:35.8	94.400	-0.260	0.390	0.340
2020/01/31 22:16:35.9	94.400	-0.260	0.380	0.320
2020/01/31 22:16:36.0	94.400	-0.260	0.360	0.300
2020/01/31 22:16:36.1	94.400	-0.260	0.330	0.270
2020/01/31 22:16:36.2	94.410	-0.250	0.300	0.230
2020/01/31 22:16:36.3	94.420	-0.240	0.270	0.200
2020/01/31 22:16:36.4	94.440	-0.220	0.230	0.150
2020/01/31 22:16:36.5	94.460	-0.200	0.190	0.110
2020/01/31 22:16:36.6	94.490	-0.180	0.140	0.060
2020/01/31 22:16:36.7	94.520	-0.160	0.100	0.010
2020/01/31 22:16:36.8	94.550	-0.130	0.050	-0.040
2020/01/31 22:16:36.9	94.590	-0.110	-0.000	-0.090
2020/01/31 22:16:37.0	94.620	-0.080	-0.050	-0.150
2020/01/31 22:16:37.1	94.660	-0.050	-0.110	-0.200
2020/01/31 22:16:37.2	94.710	-0.010	-0.160	-0.260
2020/01/31 22:16:37.3	94.760	0.020	-0.210	-0.310
2020/01/31 22:16:37.4	94.800	0.060	-0.260	-0.370
2020/01/31 22:16:37.5	94.850	0.090	-0.310	-0.420
2020/01/31 22:16:37.6	94.900	0.120	-0.350	-0.470
2020/01/31 22:16:37.7	94.950	0.160	-0.400	-0.520
2020/01/31 22:16:37.8	95.000	0.190	-0.440	-0.570
2020/01/31 22:16:37.9	95.050	0.230	-0.470	-0.610
2020/01/31 22:16:38.0	95.100	0.260	-0.510	-0.650
2020/01/31 22:16:38.1	95.140	0.290	-0.540	-0.690
2020/01/31 22:16:38.2	95.180	0.310	-0.570	-0.720
2020/01/31 22:16:38.3	95.220	0.340	-0.590	-0.750
2020/01/31 22:16:38.4	95.260	0.360	-0.610	-0.770
2020/01/31 22:16:38.5	95.300	0.380	-0.620	-0.790
2020/01/31 22:16:38.6	95.330	0.400	-0.630	-0.800
2020/01/31 22:16:38.7	95.350	0.420	-0.630	-0.810
2020/01/31 22:16:38.8	95.380	0.430	-0.630	-0.810
2020/01/31 22:16:38.9	95.400	0.440	-0.620	-0.800
2020/01/31 22:16:39.0	95.410	0.450	-0.610	-0.790
2020/01/31 22:16:39.1	95.420	0.450	-0.590	-0.770
2020/01/31 22:16:39.2	95.430	0.450	-0.570	-0.750
2020/01/31 22:16:39.3	95.430	0.440	-0.550	-0.720
2020/01/31 22:16:39.4	95.430	0.440	-0.520	-0.680
2020/01/31 22:16:39.5	95.430	0.430	-0.480	-0.640
2020/01/31 22:16:39.6	95.420	0.410	-0.450	-0.590
2020/01/31 22:16:39.7	95.400	0.400	-0.410	-0.540
2020/01/31 22:16:39.8	95.390	0.380	-0.360	-0.490
2020/01/31 22:16:39.9	95.370	0.360	-0.320	-0.430
2020/01/31 22:16:40.0	95.350	0.340	-0.260	-0.360
2020/01/31 22:16:40.1	95.330	0.310	-0.220	-0.300
2020/01/31 22:16:40.2	95.300	0.290	-0.160	-0.230
2020/01/31 22:16:40.3	95.270	0.260	-0.110	-0.150
2020/01/31 22:16:40.4	95.240	0.230	-0.060	-0.080
2020/01/31 22:16:40.5	95.200	0.200	-0.010	0.000
2020/01/31 22:16:40.6	95.170	0.170	0.040	0.080
2020/01/31 22:16:40.7	95.130	0.140	0.090	0.160
2020/01/31 22:16:40.8	95.100	0.110	0.140	0.240
2020/01/31 22:16:40.9	95.060	0.080	0.190	0.330
2020/01/31 22:16:41.0	95.020	0.050	0.230	0.410
2020/01/31 22:16:41.1	94.980	0.020	0.270	0.490
2020/01/31 22:16:41.2	94.940	-0.010	0.310	0.570
2020/01/31 22:16:41.3	94.900	-0.040	0.340	0.650
2020/01/31 22:16:41.4	94.860	-0.070	0.370	0.730
2020/01/31 22:16:41.5	94.830	-0.090	0.390	0.810
2020/01/31 22:16:41.6	94.790	-0.120	0.410	0.890
2020/01/31 22:16:41.7	94.760	-0.140	0.430	0.960
2020/01/31 22:16:41.8	94.720	-0.160	0.440	1.030
2020/01/31 22:16:41.9	94.690	-0.180	0.440	1.100
2020/01/31 22:16:42.0	94.660	-0.190	0.440	1.170
2020/01/31 22:16:42.1	94.630	-0.210	0.430	1.240
2020/01/31 22:16:42.2	94.600	-0.220	0.420	1.300
2020/01/31 22:16:42.3	94.570	-0.230	0.410	1.360
2020/01/31 22:16:42.4	94.540	-0.240	0.390	1.420
2020/01/31 22:16:42.5	94.520	-0.240	0.360	1.470
2020/01/31 22:16:42.6	94.490	-0.250	0.330	1.520
2020/01/31 22:16:42.7	94.470	-0.250	0.300	1.570
2020/01/31 22:16:42.8	94.450	-0.250	0.260	1.610
2020/01/31 22:16:42.9	94.440	-0.250	0.220	1.650
2020/01/31 22:16:43.0	94.420	-0.240	0.170	1.680
2020/01/31 22:16:43.1	94.410	-0.230	0.120	1.710
2020/01/31 22:16:43.2	94.400	-0.230	0.070	1.740
2020/01/31 22:16:43.3	94.400	-0.220	0.020	1.760
2020/01/31 22:16:43.4	94.390	-0.200	-0.040	1.780
2020/01/31 22:16:43.5	94.390	-0.190	-0.100	1.790
2020/01/31 22:16:43.6	94.400	-0.180	-0.160	1.810
2020/01/31 22:16:43.7	94.400	-0.160	-0.220	1.810
2020/01/31 22:16:43.8	94.410	-0.150	-0.290	1.820
2020/01/31 22:16:43.9	94.420	-0.130	-0.350	1.820
2020/01/31 22:16:44.0	94.430	-0.120	-0.410	1.810
2020/01/31 22:16:44.1	94.440	-0.100	-0.470	1.800
2020/01/31 22:16:44.2	94.460	-0.080	-0.530	1.790
2020/01/31 22:16:44.3	94.480	-0.070	-0.590	1.780
2020/01/31 22:16:44.4	94.490	-0.050	-0.640	1.770
2020/01/31 22:16:44.5	94.510	-0.040	-0.690	1.750
2020/01/31 22:16:44.6	94.530	-0.030	-0.740	1.730
2020/01/31 22:16:44.7	94.550	-0.010	-0.790	1.710
2020/01/31 22:16:44.8	94.570	-0.000	-0.820	1.690
2020/01/31 22:16:44.9	94.590	0.010	-0.860	1.660
2020/01/31 22:16:45.0	94.610	0.020	-0.890	1.640
2020/01/31 22:16:45.1	94.630	0.020	-0.910	1.610
2020/01/31 22:16:45.2	94.650	0.030	-0.930	1.590
2020/01/31 22:16:45.3	94.660	0.030	-0.940	1.560
2020/01/31 22:16:45.4	94.680	0.030	-0.950	1.530
2020/01/31 22:16:45.5	94.690	0.030	-0.950	1.490
2020/01/31 22:16:45.6	94.700	0.030	-0.940	1.460
2020/01/31 22:16:45.7	94.710	0.020	-0.930	1.430
2020/01/31 22:16:45.8	94.720	0.020	-0.910	1.390
2020/01/31 22:16:45.9	94.730	0.010	-0.880	1.350
2020/01/31 22:16:46.0	94.730	-0.000	-0.840	1.310
2020/01/31 22:16:46.1	94.740	-0.010	-0.800	1.270
2020/01/31 22:16:46.2	94.740	-0.030	-0.760	1.230
2020/01/31 22:16:46.3	94.740	-0.040	-0.710	1.180
2020/01/31 22:16:46.4	94.740	-0.060	-0.660	1.130
2020/01/31 22:16:46.5	94.730	-0.070	-0.600	1.080
2020/01/31 22:16:46.6	94.730	-0.090	-0.540	1.030
2020/01/31 22:16:46.7	94.720	-0.110	-0.480	0.980
2020/01/31 22:16:46.8	94.710	-0.130	-0.410	0.930
2020/01/31 22:16:46.9	94.700	-0.150	-0.340	0.880
2020/01/31 22:16:47.0	94.680	-0.160	-0.270	0.820
2020/01/31 22:16:47.1	94.670	-0.180	-0.200	0.760
2020/01/31 22:16:47.2	94.650	-0.200	-0.130	0.710
2020/01/31 22:16:47.3	94.640	-0.210	-0.060	0.650
2020/01/31 22:16:47.4	94.620	-0.230	0.000	0.590
2020/01/31 22:16:47.5	94.600	-0.240	0.070	0.540
2020/01/31 22:16:47.6	94.580	-0.250	0.130	0.480
2020/01/31 22:16:47.7	94.560	-0.260	0.190	0.420
2020/01/31 22:16:47.8	94.540	-0.260	0.240	0.360
2020/01/31 22:16:47.9	94.520	-0.260	0.290	0.300
2020/01/31 22:16:48.0	94.500	-0.260	0.330	0.240
2020/01/31 22:16:48.1	94.480	-0.260	0.370	0.180
2020/01/31 22:16:48.2	94.470	-0.250	0.400	0.120
2020/01/31 22:16:48.3	94.450	-0.240	0.430	0.060
2020/01/31 22:16:48.4	94.440	-0.230	0.450	0.000
2020/01/31 22:16:48.5	94.420	-0.220	0.460	-0.050
2020/01/31 22:16:48.6	94.410	-0.200	0.460	-0.110
2020/01/31 22:16:48.7	94.400	-0.170	0.460	-0.170
2020/01/31 22:16:48.8	94.400	-0.150	0.450	-0.230
2020/01/31 22:16:48.9	94.390	-0.120	0.430	-0.280
2020/01/31 22:16:49.0	94.390	-0.090	0.410	-0.340
2020/01/31 22:16:49.1	94.380	-0.060	0.390	-0.390
2020/01/31 22:16:49.2	94.380	-0.030	0.350	-0.450
2020/01/31 22:16:49.3	94.390	0.000	0.310	-0.500
2020/01/31 22:16:49.4	94.390	0.040	0.270	-0.550
2020/01/31 22:16:49.5	94.390	0.080	0.230	-0.600
2020/01/31 22:16:49.6	94.400	0.110	0.180	-0.650
2020/01/31 22:16:49.7	94.410	0.150	0.130	-0.700
2020/01/31 22:16:49.8	94.410	0.180	0.070	-0.740
2020/01/31 22:16:49.9	94.420	0.220	0.020	-0.790
2020/01/31 22:16:50.0	94.430	0.250	-0.030	-0.830
2020/01/31 22:16:50.1	94.440	0.280	-0.090	-0.880
2020/01/31 22:16:50.2	94.450	0.310	-0.130	-0.920
2020/01/31 22:16:50.3	94.470	0.340	-0.180	-0.950
2020/01/31 22:16:50.4	94.480	0.370	-0.230	-0.990
2020/01/31 22:16:50.5	94.490	0.390	-0.270	-1.030
2020/01/31 22:16:50.6	94.500	0.410	-0.300	-1.060
2020/01/31 22:16:50.7	94.510	0.430	-0.340	-1.090
2020/01/31 22:16:50.8	94.520	0.440	-0.360	-1.120
2020/01/31 22:16:50.9	94.530	0.450	-0.390	-1.150
2020/01/31 22:16:51.0	94.550	0.460	-0.400	-1.180
2020/01/31 22:16:51.1	94.550	0.460	-0.420	-1.200
2020/01/31 22:16:51.2	94.560	0.460	-0.430	-1.220
2020/01/31 22:16:51.3	94.570	0.450	-0.430	-1.240
2020/01/31 22:16:51.4	94.570	0.440	-0.430	-1.260
2020/01/31 22:16:51.5	94.570	0.430	-0.420	-1.280
2020/01/31 22:16:51.6	94.580	0.420	-0.410	-1.290
2020/01/31 22:16:51.7	94.580	0.400	-0.400	-1.300
2020/01/31 22:16:51.8	94.580	0.380	-0.380	-1.310
2020/01/31 22:16:51.9	94.570	0.360	-0.360	-1.310
2020/01/31 22:16:52.0	94.570	0.330	-0.340	-1.310
2020/01/31 22:16:52.1	94.570	0.300	-0.320	-1.300
2020/01/31 22:16:52.2	94.560	0.280	-0.290	-1.300
2020/01/31 22:16:52.3	94.550	0.250	-0.270	-1.280
2020/01/31 22:16:52.4	94.550	0.210	-0.240	-1.270
2020/01/31 22:16:52.5	94.540	0.180	-0.210	-1.250
2020/01/31 22:16:52.6	94.530	0.150	-0.190	-1.230
2020/01/31 22:16:52.7	94.520	0.120	-0.160	-1.200
2020/01/31 22:16:52.8	94.510	0.090	-0.140	-1.170
2020/01/31 22:16:52.9	94.500	0.060	-0.120	-1.140
2020/01/31 22:16:53.0	94.490	0.030	-0.100	-1.100
2020/01/31 22:16:53.1	94.480	-0.000	-0.080	-1.060
2020/01/31 22:16:53.2	94.470	-0.030	-0.070	-1.020
2020/01/31 22:16:53.3	94.460	-0.050	-0.060	-0.970
2020/01/31 22:16:53.4	94.450	-0.080	-0.060	-0.920
2020/01/31 22:16:53.5	94.440	-0.100	-0.060	-0.860
2020/01/31 22:16:53.6	94.430	-0.120	-0.060	-0.800
2020/01/31 22:16:53.7	94.420	-0.130	-0.060	-0.740
2020/01/31 22:16:53.8	94.410	-0.150	-0.070	-0.680
2020/01/31 22:16:53.9	94.410	-0.160	-0.080	-0.610
2020/01/31 22:16:54.0	94.400	-0.170	-0.090	-0.530
2020/01/31 22:16:54.1	94.400	-0.180	-0.110	-0.460
2020/01/31 22:16:54.2	94.390	-0.180	-0.130	-0.380
2020/01/31 22:16:54.3	94.390	-0.180	-0.140	-0.300
2020/01/31 22:16:54.4	94.380	-0.180	-0.170	-0.220
2020/01/31 22:16:54.5	94.380	-0.180	-0.190	-0.130
2020/01/31 22:16:54.6	94.380	-0.170	-0.210	-0.050
2020/01/31 22:16:54.7	94.380	-0.170	-0.230	0.040
2020/01/31 22:16:54.8	94.380	-0.160	-0.250	0.130
2020/01/31 22:16:54.9	94.380	-0.150	-0.270	0.220
2020/01/31 22:16:55.0	94.370	-0.140	-0.290	0.320
2020/01/31 22:16:55.1	94.370	-0.130	-0.310	0.410
2020/01/31 22:16:55.2	94.380	-0.120	-0.320	0.500
2020/01/31 22:16:55.3	94.380	-0.110	-0.330	0.590
2020/01/31 22:16:55.4	94.380	-0.090	-0.340	0.690
2020/01/31 22:16:55.5	94.380	-0.080	-0.350	0.780
2020/01/31 22:16:55.6	94.390	-0.070	-0.360	0.870
2020/01/31 22:16:55.7	94.390	-0.060	-0.360	0.950
2020/01/31 22:16:55.8	94.400	-0.050	-0.360	1.040
2020/01/31 22:16:55.9	94.400	-0.040	-0.360	1.120
2020/01/31 22:16:56.0	94.400	-0.030	-0.360	1.200
2020/01/31 22:16:56.1	94.410	-0.020	-0.350	1.270
2020/01/31 22:16:56.2	94.410	-0.010	-0.340	1.340
2020/01/31 22:16:56.3	94.420	-0.010	-0.330	1.410
2020/01/31 22:16:56.4	94.430	-0.000	-0.310	1.470
2020/01/31 22:16:56.5	94.430	-0.000	-0.290	1.530
2020/01/31 22:16:56.6	94.440	0.000	-0.270	1.580
2020/01/31 22:16:56.7	94.440	0.000	-0.250	1.630
2020/01/31 22:16:56.8	94.450	0.000	-0.230	1.680
2020/01/31 22:16:56.9	94.450	-0.000	-0.210	1.720
2020/01/31 22:16:57.0	94.450	-0.000	-0.180	1.750
2020/01/31 22:16:57.1	94.460	-0.010	-0.150	1.780
2020/01/31 22:16:57.2	94.460	-0.010	-0.130	1.810
2020/01/31 22:16:57.3	94.460	-0.020	-0.100	1.830
2020/01/31 22:16:57.4	94.470	-0.030	-0.070	1.850
2020/01/31 22:16:57.5	94.470	-0.030	-0.040	1.860
2020/01/31 22:16:57.6	94.480	-0.040	-0.010	1.870
2020/01/31 22:16:57.7	94.480	-0.050	0.020	1.880
2020/01/31 22:16:57.8	94.480	-0.060	0.040	1.890
2020/01/31 22:16:57.9	94.480	-0.060	0.070	1.890
2020/01/31 22:16:58.0	94.490	-0.070	0.100	1.880
2020/01/31 22:16:58.1	94.490	-0.080	0.120	1.870
2020/01/31 22:16:58.2	94.490	-0.080	0.150	1.870
2020/01/31 22:16:58.3	94.490	-0.090	0.170	1.860
2020/01/31 22:16:58.4	94.490	-0.100	0.190	1.840
2020/01/31 22:16:58.5	94.490	-0.100	0.200	1.820
2020/01/31 22:16:58.6	94.480	-0.100	0.220	1.800
2020/01/31 22:16:58.7	94.480	-0.110	0.230	1.780
2020/01/31 22:16:58.8	94.480	-0.110	0.240	1.750
2020/01/31 22:16:58.9	94.480	-0.110	0.250	1.720
2020/01/31 22:16:59.0	94.470	-0.110	0.250	1.690
2020/01/31 22:16:59.1	94.470	-0.110	0.250	1.660
2020/01/31 22:16:59.2	94.470	-0.110	0.250	1.610
2020/01/31 22:16:59.3	94.470	-0.110	0.240	1.570
2020/01/31 22:16:59.4	94.460	-0.110	0.230	1.520
2020/01/31 22:16:59.5	94.460	-0.100	0.220	1.470
2020/01/31 22:16:59.6	94.460	-0.100	0.200	1.410
2020/01/31 22:16:59.7	94.460	-0.090	0.180	1.350
2020/01/31 22:16:59.8	94.470	-0.080	0.160	1.290
2020/01/31 22:16:59.9	94.470	-0.080	0.130	1.220
2020/01/31 22:17:00.0	94.470	-0.070	0.090	1.140
2020/01/31 22:17:00.1	94.480	-0.060	0.060	1.060
2020/01/31 22:17:00.2	94.480	-0.050	0.020	0.990
2020/01/31 22:17:00.3	94.490	-0.040	-0.020	0.900
2020/01/31 22:17:00.4	94.500	-0.020	-0.070	0.820
2020/01/31 22:17:00.5	94.510	-0.010	-0.120	0.730
2020/01/31 22:17:00.6	94.520	0.000	-0.170	0.640
2020/01/31 22:17:00.7	94.530	0.020	-0.220	0.550
2020/01/31 22:17:00.8	94.540	0.030	-0.280	0.460
2020/01/31 22:17:00.9	94.550	0.050	-0.330	0.370
2020/01/31 22:17:01.0	94.560	0.070	-0.390	0.270
2020/01/31 22:17:01.1	94.570	0.080	-0.440	0.180
2020/01/31 22:17:01.2	94.580	0.100	-0.500	0.100
2020/01/31 22:17:01.3	94.590	0.110	-0.560	0.010
2020/01/31 22:17:01.4	94.600	0.130	-0.610	-0.080
2020/01/31 22:17:01.5	94.600	0.140	-0.670	-0.160
2020/01/31 22:17:01.6	94.610	0.160	-0.720	-0.230
2020/01/31 22:17:01.7	94.620	0.170	-0.770	-0.310
2020/01/31 22:17:01.8	94.620	0.180	-0.810	-0.370
2020/01/31 22:17:01.9	94.620	0.200	-0.860	-0.440
2020/01/31 22:17:02.0	94.630	0.210	-0.900	-0.500
2020/01/31 22:17:02.1	94.630	0.220	-0.930	-0.550
2020/01/31 22:17:02.2	94.630	0.220	-0.960	-0.600
2020/01/31 22:17:02.3	94.630	0.230	-0.980	-0.640
2020/01/31 22:17:02.4	94.630	0.230	-0.990	-0.680
2020/01/31 22:17:02.5	94.630	0.230	-1.000	-0.710
2020/01/31 22:17:02.6	94.630	0.230	-1.010	-0.740
2020/01/31 22:17:02.7	94.630	0.230	-1.000	-0.760
2020/01/31 22:17:02.8	94.630	0.230	-0.990	-0.770
2020/01/31 22:17:02.9	94.620	0.220	-0.980	-0.780
2020/01/31 22:17:03.0	94.620	0.210	-0.960	-0.790
2020/01/31 22:17:03.1	94.620	0.200	-0.930	-0.790
2020/01/31 22:17:03.2	94.620	0.180	-0.890	-0.790
2020/01/31 22:17:03.3	94.620	0.160	-0.850	-0.780
2020/01/31 22:17:03.4	94.620	0.140	-0.810	-0.770
2020/01/31 22:17:03.5	94.620	0.120	-0.750	-0.750
2020/01/31 22:17:03.6	94.610	0.100	-0.700	-0.740
2020/01/31 22:17:03.7	94.610	0.070	-0.640	-0.720
2020/01/31 22:17:03.8	94.610	0.040	-0.570	-0.700
2020/01/31 22:17:03.9	94.610	0.010	-0.510	-0.670
2020/01/31 22:17:04.0	94.620	-0.020	-0.440	-0.650
2020/01/31 22:17:04.1	94.620	-0.050	-0.370	-0.630
2020/01/31 22:17:04.2	94.630	-0.080	-0.290	-0.600
2020/01/31 22:17:04.3	94.630	-0.120	-0.220	-0.580
2020/01/31 22:17:04.4	94.630	-0.150	-0.140	-0.550
2020/01/31 22:17:04.5	94.640	-0.190	-0.070	-0.530
2020/01/31 22:17:04.6	94.640	-0.220	0.000	-0.500
2020/01/31 22:17:04.7	94.650	-0.250	0.080	-0.470
2020/01/31 22:17:04.8	94.660	-0.280	0.150	-0.450
2020/01/31 22:17:04.9	94.660	-0.310	0.220	-0.420
2020/01/31 22:17:05.0	94.670	-0.340	0.290	-0.390
2020/01/31 22:17:05.1	94.680	-0.370	0.350	-0.370
2020/01/31 22:17:05.2	94.690	-0.390	0.410	-0.340
2020/01/31 22:17:05.3	94.690	-0.410	0.470	-0.310
2020/01/31 22:17:05.4	94.700	-0.430	0.520	-0.280
2020/01/31 22:17:05.5	94.710	-0.450	0.570	-0.250
2020/01/31 22:17:05.6	94.720	-0.460	0.610	-0.220
2020/01/31 22:17:05.7	94.720	-0.470	0.650	-0.190
2020/01/31 22:17:05.8	94.730	-0.480	0.680	-0.160
2020/01/31 22:17:05.9	94.740	-0.480	0.710	-0.120
2020/01/31 22:17:06.0	94.740	-0.480	0.730	-0.090
2020/01/31 22:17:06.1	94.750	-0.470	0.740	-0.060
2020/01/31 22:17:06.2	94.760	-0.460	0.750	-0.030
2020/01/31 22:17:06.3	94.760	-0.450	0.750	0.000
2020/01/31 22:17:06.4	94.770	-0.430	0.750	0.030
2020/01/31 22:17:06.5	94.780	-0.410	0.740	0.060
2020/01/31 22:17:06.6	94.790	-0.380	0.720	0.080
2020/01/31 22:17:06.7	94.800	-0.350	0.700	0.100
2020/01/31 22:17:06.8	94.820	-0.320	0.670	0.120
2020/01/31 22:17:06.9	94.830	-0.290	0.640	0.140
2020/01/31 22:17:07.0	94.850	-0.250	0.600	0.150
2020/01/31 22:17:07.1	94.860	-0.210	0.560	0.160
2020/01/31 22:17:07.2	94.880	-0.170	0.520	0.170
2020/01/31 22:17:07.3	94.900	-0.130	0.460	0.180
2020/01/31 22:17:07.4	94.920	-0.090	0.410	0.180
2020/01/31 22:17:07.5	94.940	-0.040	0.350	0.180
2020/01/31 22:17:07.6	94.960	0.010	0.290	0.170
2020/01/31 22:17:07.7	94.980	0.050	0.230	0.170
2020/01/31 22:17:07.8	95.000	0.100	0.170	0.160
2020/01/31 22:17:07.9	95.020	0.140	0.110	0.150
2020/01/31 22:17:08.0	95.040	0.190	0.040	0.140
2020/01/31 22:17:08.1	95.060	0.230	-0.030	0.130
2020/01/31 22:17:08.2	95.080	0.270	-0.090	0.110
2020/01/31 22:17:08.3	95.100	0.310	-0.150	0.100
2020/01/31 22:17:08.4	95.120	0.350	-0.210	0.080
2020/01/31 22:17:08.5	95.140	0.390	-0.260	0.060
2020/01/31 22:17:08.6	95.160	0.420	-0.310	0.040
2020/01/31 22:17:08.7	95.170	0.450	-0.360	0.030
2020/01/31 22:17:08.8	95.190	0.480	-0.410	0.010
2020/01/31 22:17:08.9	95.200	0.500	-0.450	-0.000
2020/01/31 22:17:09.0	95.220	0.520	-0.490	-0.020
2020/01/31 22:17:09.1	95.240	0.540	-0.520	-0.030
2020/01/31 22:17:09.2	95.250	0.550	-0.550	-0.040
2020/01/31 22:17:09.3	95.260	0.560	-0.580	-0.050
2020/01/31 22:17:09.4	95.270	0.570	-0.600	-0.050
2020/01/31 22:17:09.5	95.270	0.580	-0.620	-0.060
2020/01/31 22:17:09.6	95.280	0.580	-0.630	-0.050
2020/01/31 22:17:09.7	95.290	0.570	-0.640	-0.050
2020/01/31 22:17:09.8	95.290	0.570	-0.650	-0.040
2020/01/31 22:17:09.9	95.300	0.560	-0.650	-0.030
2020/01/31 22:17:10.0	95.300	0.550	-0.650	-0.020
2020/01/31 22:17:10.1	95.310	0.530	-0.650	-0.000
2020/01/31 22:17:10.2	95.310	0.510	-0.640	0.010
2020/01/31 22:17:10.3	95.320	0.490	-0.640	0.040
2020/01/31 22:17:10.4	95.320	0.470	-0.630	0.060
2020/01/31 22:17:10.5	95.330	0.450	-0.610	0.090
2020/01/31 22:17:10.6	95.330	0.420	-0.600	0.120
2020/01/31 22:17:10.7	95.330	0.400	-0.590	0.160
2020/01/31 22:17:10.8	95.340	0.370	-0.570	0.190
2020/01/31 22:17:10.9	95.340	0.340	-0.560	0.230
2020/01/31 22:17:11.0	95.350	0.310	-0.540	0.280
2020/01/31 22:17:11.1	95.360	0.280	-0.520	0.320
2020/01/31 22:17:11.2	95.360	0.250	-0.500	0.370
2020/01/31 22:17:11.3	95.360	0.210	-0.490	0.410
2020/01/31 22:17:11.4	95.370	0.180	-0.470	0.460
2020/01/31 22:17:11.5	95.370	0.150	-0.450	0.520
2020/01/31 22:17:11.6	95.370	0.110	-0.430	0.570
2020/01/31 22:17:11.7	95.370	0.080	-0.420	0.620
2020/01/31 22:17:11.8	95.370	0.050	-0.400	0.680
2020/01/31 22:17:11.9	95.370	0.020	-0.380	0.730
2020/01/31 22:17:12.0	95.360	-0.010	-0.360	0.780
2020/01/31 22:17:12.1	95.360	-0.040	-0.350	0.840
2020/01/31 22:17:12.2	95.350	-0.070	-0.330	0.900
2020/01/31 22:17:12.3	95.350	-0.100	-0.320	0.950
2020/01/31 22:17:12.4	95.350	-0.120	-0.310	1.010
2020/01/31 22:17:12.5	95.340	-0.150	-0.290	1.060
2020/01/31 22:17:12.6	95.340	-0.170	-0.280	1.110
2020/01/31 22:17:12.7	95.330	-0.200	-0.270	1.160
2020/01/31 22:17:12.8	95.330	-0.220	-0.260	1.210
2020/01/31 22:17:12.9	95.320	-0.240	-0.260	1.260
2020/01/31 22:17:13.0	95.320	-0.250	-0.250	1.300
2020/01/31 22:17:13.1	95.310	-0.270	-0.240	1.340
2020/01/31 22:17:13.2	95.310	-0.280	-0.240	1.380
2020/01/31 22:17:13.3	95.310	-0.300	-0.230	1.420
2020/01/31 22:17:13.4	95.310	-0.310	-0.230	1.450
2020/01/31 22:17:13.5	95.310	-0.320	-0.220	1.480
2020/01/31 22:17:13.6	95.310	-0.330	-0.220	1.510
2020/01/31 22:17:13.7	95.320	-0.340	-0.220	1.530
2020/01/31 22:17:13.8	95.320	-0.340	-0.220	1.550
2020/01/31 22:17:13.9	95.330	-0.350	-0.210	1.560
2020/01/31 22:17:14.0	95.340	-0.350	-0.210	1.570
2020/01/31 22:17:14.1	95.350	-0.350	-0.210	1.580
2020/01/31 22:17:14.2	95.360	-0.350	-0.210	1.590
2020/01/31 22:17:14.3	95.370	-0.350	-0.200	1.590
2020/01/31 22:17:14.4	95.380	-0.350	-0.200	1.590
2020/01/31 22:17:14.5	95.390	-0.350	-0.200	1.580
2020/01/31 22:17:14.6	95.400	-0.350	-0.190	1.570
2020/01/31 22:17:14.7	95.420	-0.340	-0.180	1.560
2020/01/31 22:17:14.8	95.430	-0.340	-0.180	1.550
2020/01/31 22:17:14.9	95.450	-0.330	-0.170	1.540
2020/01/31 22:17:15.0	95.460	-0.320	-0.160	1.520
2020/01/31 22:17:15.1	95.470	-0.310	-0.150	1.500
2020/01/31 22:17:15.2	95.490	-0.300	-0.140	1.470
2020/01/31 22:17:15.3	95.500	-0.290	-0.130	1.450
2020/01/31 22:17:15.4	95.520	-0.280	-0.120	1.420
2020/01/31 22:17:15.5	95.530	-0.270	-0.100	1.390
2020/01/31 22:17:15.6	95.550	-0.260	-0.090	1.360
2020/01/31 22:17:15.7	95.560	-0.250	-0.080	1.320
2020/01/31 22:17:15.8	95.580	-0.230	-0.060	1.290
2020/01/31 22:17:15.9	95.600	-0.220	-0.050	1.250
2020/01/31 22:17:16.0	95.610	-0.210	-0.030	1.200
2020/01/31 22:17:16.1	95.630	-0.190	-0.020	1.160
2020/01/31 22:17:16.2	95.650	-0.180	-0.000	1.110
2020/01/31 22:17:16.3	95.660	-0.160	0.010	1.060
2020/01/31 22:17:16.4	95.680	-0.150	0.020	1.010
2020/01/31 22:17:16.5	95.690	-0.130	0.040	0.960
2020/01/31 22:17:16.6	95.700	-0.120	0.050	0.900
2020/01/31 22:17:16.7	95.720	-0.100	0.060	0.840
2020/01/31 22:17:16.8	95.730	-0.090	0.070	0.780
2020/01/31 22:17:16.9	95.740	-0.080	0.080	0.720
2020/01/31 22:17:17.0	95.760	-0.060	0.090	0.650
2020/01/31 22:17:17.1	95.770	-0.050	0.100	0.590
2020/01/31 22:17:17.2	95.780	-0.040	0.110	0.520
2020/01/31 22:17:17.3	95.790	-0.030	0.120	0.460
2020/01/31 22:17:17.4	95.790	-0.020	0.130	0.390
2020/01/31 22:17:17.5	95.800	-0.010	0.130	0.320
2020/01/31 22:17:17.6	95.810	0.000	0.140	0.260
2020/01/31 22:17:17.7	95.810	0.010	0.150	0.190
2020/01/31 22:17:17.8	95.810	0.010	0.150	0.120
2020/01/31 22:17:17.9	95.810	0.020	0.150	0.050
2020/01/31 22:17:18.0	95.820	0.030	0.160	-0.020
2020/01/31 22:17:18.1	95.820	0.030	0.160	-0.090
2020/01/31 22:17:18.2	95.810	0.030	0.160	-0.160
2020/01/31 22:17:18.3	95.810	0.030	0.160	-0.230
2020/01/31 22:17:18.4	95.810	0.040	0.150	-0.300
2020/01/31 22:17:18.5	95.800	0.040	0.150	-0.370
2020/01/31 22:17:18.6	95.800	0.030	0.140	-0.440
2020/01/31 22:17:18.7	95.790	0.030	0.130	-0.510
2020/01/31 22:17:18.8	95.790	0.030	0.120	-0.570
2020/01/31 22:17:18.9	95.780	0.030	0.110	-0.640
2020/01/31 22:17:19.0	95.780	0.030	0.090	-0.700
2020/01/31 22:17:19.1	95.770	0.020	0.080	-0.760
2020/01/31 22:17:19.2	95.770	0.020	0.060	-0.820
2020/01/31 22:17:19.3	95.760	0.020	0.040	-0.880
2020/01/31 22:17:19.4	95.760	0.020	0.020	-0.930
2020/01/31 22:17:19.5	95.750	0.010	-0.010	-0.980
2020/01/31 22:17:19.6	95.750	0.010	-0.040	-1.030
2020/01/31 22:17:19.7	95.750	0.010	-0.070	-1.070
2020/01/31 22:17:19.8	95.740	0.000	-0.100	-1.110
2020/01/31 22:17:19.9	95.740	0.000	-0.130	-1.140
2020/01/31 22:17:20.0	95.730	0.000	-0.160	-1.170
2020/01/31 22:17:20.1	95.730	0.000	-0.190	-1.190
2020/01/31 22:17:20.2	95.720	-0.000	-0.230	-1.210
2020/01/31 22:17:20.3	95.720	-0.000	-0.270	-1.220
2020/01/31 22:17:20.4	95.720	-0.000	-0.300	-1.230
2020/01/31 22:17:20.5	95.710	0.000	-0.340	-1.240
2020/01/31 22:17:20.6	95.710	0.000	-0.370	-1.240
2020/01/31 22:17:20.7	95.710	0.000	-0.410	-1.230
2020/01/31 22:17:20.8	95.710	0.010	-0.440	-1.220
2020/01/31 22:17:20.9	95.710	0.010	-0.470	-1.210
2020/01/31 22:17:21.0	95.710	0.010	-0.510	-1.190
2020/01/31 22:17:21.1	95.710	0.020	-0.540	-1.170
2020/01/31 22:17:21.2	95.710	0.020	-0.570	-1.150
2020/01/31 22:17:21.3	95.710	0.020	-0.590	-1.120
2020/01/31 22:17:21.4	95.720	0.030	-0.610	-1.090
2020/01/31 22:17:21.5	95.720	0.030	-0.640	-1.060
2020/01/31 22:17:21.6	95.730	0.040	-0.650	-1.020
2020/01/31 22:17:21.7	95.730	0.040	-0.670	-0.990
2020/01/31 22:17:21.8	95.740	0.050	-0.680	-0.950
2020/01/31 22:17:21.9	95.750	0.050	-0.690	-0.910
2020/01/31 22:17:22.0	95.760	0.060	-0.690	-0.860
2020/01/31 22:17:22.1	95.770	0.060	-0.700	-0.820
2020/01/31 22:17:22.2	95.780	0.070	-0.690	-0.780
2020/01/31 22:17:22.3	95.790	0.070	-0.690	-0.740
2020/01/31 22:17:22.4	95.800	0.080	-0.680	-0.700
2020/01/31 22:17:22.5	95.810	0.080	-0.670	-0.650
2020/01/31 22:17:22.6	95.820	0.090	-0.650	-0.610
2020/01/31 22:17:22.7	95.830	0.090	-0.630	-0.570
2020/01/31 22:17:22.8	95.840	0.100	-0.610	-0.530
2020/01/31 22:17:22.9	95.850	0.100	-0.590	-0.490
2020/01/31 22:17:23.0	95.860	0.100	-0.560	-0.460
2020/01/31 22:17:23.1	95.870	0.110	-0.530	-0.420
2020/01/31 22:17:23.2	95.880	0.110	-0.500	-0.390
2020/01/31 22:17:23.3	95.900	0.110	-0.470	-0.350
2020/01/31 22:17:23.4	95.910	0.110	-0.440	-0.320
2020/01/31 22:17:23.5	95.920	0.120	-0.400	-0.290
2020/01/31 22:17:23.6	95.930	0.120	-0.360	-0.250
2020/01/31 22:17:23.7	95.940	0.120	-0.330	-0.220
2020/01/31 22:17:23.8	95.950	0.130	-0.290	-0.190
2020/01/31 22:17:23.9	95.960	0.130	-0.250	-0.160
2020/01/31 22:17:24.0	95.970	0.130	-0.210	-0.130
2020/01/31 22:17:24.1	95.980	0.140	-0.170	-0.090
2020/01/31 22:17:24.2	95.990	0.140	-0.120	-0.060
2020/01/31 22:17:24.3	96.000	0.150	-0.080	-0.030
2020/01/31 22:17:24.4	96.010	0.150	-0.040	0.010
2020/01/31 22:17:24.5	96.020	0.160	-0.000	0.040
2020/01/31 22:17:24.6	96.030	0.170	0.030	0.080
2020/01/31 22:17:24.7	96.030	0.170	0.070	0.120
2020/01/31 22:17:24.8	96.040	0.180	0.110	0.160
2020/01/31 22:17:24.9	96.050	0.180	0.140	0.200
2020/01/31 22:17:25.0	96.060	0.190	0.170	0.250
2020/01/31 22:17:25.1	96.060	0.200	0.200	0.290
2020/01/31 22:17:25.2	96.070	0.210	0.230	0.340
2020/01/31 22:17:25.3	96.080	0.210	0.260	0.390
2020/01/31 22:17:25.4	96.080	0.220	0.280	0.440
2020/01/31 22:17:25.5	96.080	0.230	0.300	0.490
2020/01/31 22:17:25.6	96.090	0.230	0.320	0.540
2020/01/31 22:17:25.7	96.090	0.240	0.330	0.600
2020/01/31 22:17:25.8	96.090	0.240	0.340	0.650
2020/01/31 22:17:25.9	96.090	0.250	0.350	0.700
2020/01/31 22:17:26.0	96.090	0.250	0.350	0.760
2020/01/31 22:17:26.1	96.090	0.250	0.350	0.810
2020/01/31 22:17:26.2	96.090	0.250	0.350	0.870
2020/01/31 22:17:26.3	96.090	0.250	0.340	0.920
2020/01/31 22:17:26.4	96.090	0.250	0.330	0.970
2020/01/31 22:17:26.5	96.090	0.250	0.320	1.020
2020/01/31 22:17:26.6	96.080	0.250	0.300	1.070
2020/01/31 22:17:26.7	96.080	0.240	0.280	1.120
2020/01/31 22:17:26.8	96.080	0.240	0.260	1.160
2020/01/31 22:17:26.9	96.080	0.230	0.240	1.210
2020/01/31 22:17:27.0	96.070	0.220	0.210	1.250
2020/01/31 22:17:27.1	96.070	0.210	0.180	1.290
2020/01/31 22:17:27.2	96.060	0.200	0.150	1.320
2020/01/31 22:17:27.3	96.060	0.180	0.120	1.360
2020/01/31 22:17:27.4	96.050	0.170	0.080	1.390
2020/01/31 22:17:27.5	96.050	0.150	0.050	1.410
2020/01/31 22:17:27.6	96.050	0.130	0.010	1.440
2020/01/31 22:17:27.7	96.040	0.110	-0.020	1.460
2020/01/31 22:17:27.8	96.040	0.090	-0.060	1.470
2020/01/31 22:17:27.9	96.040	0.070	-0.100	1.490
2020/01/31 22:17:28.0	96.030	0.050	-0.130	1.490
2020/01/31 22:17:28.1	96.030	0.020	-0.170	1.500
2020/01/31 22:17:28.2	96.030	-0.000	-0.210	1.510
2020/01/31 22:17:28.3	96.030	-0.030	-0.240	1.510
2020/01/31 22:17:28.4	96.030	-0.050	-0.280	1.510
2020/01/31 22:17:28.5	96.030	-0.080	-0.310	1.510
2020/01/31 22:17:28.6	96.030	-0.100	-0.340	1.510
2020/01/31 22:17:28.7	96.030	-0.130	-0.370	1.510
2020/01/31 22:17:28.8	96.030	-0.150	-0.400	1.510
2020/01/31 22:17:28.9	96.030	-0.180	-0.430	1.500
2020/01/31 22:17:29.0	96.040	-0.200	-0.460	1.500
2020/01/31 22:17:29.1	96.040	-0.220	-0.480	1.490
2020/01/31 22:17:29.2	96.040	-0.250	-0.510	1.490
2020/01/31 22:17:29.3	96.040	-0.270	-0.530	1.480
2020/01/31 22:17:29.4	96.050	-0.290	-0.550	1.480
2020/01/31 22:17:29.5	96.050	-0.310	-0.570	1.470
2020/01/31 22:17:29.6	96.050	-0.320	-0.580	1.470
2020/01/31 22:17:29.7	96.060	-0.340	-0.600	1.470
2020/01/31 22:17:29.8	96.060	-0.350	-0.610	1.460
2020/01/31 22:17:29.9	96.070	-0.370	-0.610	1.460
2020/01/31 22:17:30.0	96.070	-0.380	-0.620	1.460
2020/01/31 22:17:30.1	96.080	-0.390	-0.620	1.460
2020/01/31 22:17:30.2	96.080	-0.400	-0.620	1.450
2020/01/31 22:17:30.3	96.090	-0.400	-0.620	1.450
2020/01/31 22:17:30.4	96.090	-0.410	-0.620	1.450
2020/01/31 22:17:30.5	96.100	-0.410	-0.610	1.440
2020/01/31 22:17:30.6	96.100	-0.410	-0.600	1.440
2020/01/31 22:17:30.7	96.110	-0.410	-0.590	1.430
2020/01/31 22:17:30.8	96.110	-0.410	-0.580	1.420
2020/01/31 22:17:30.9	96.120	-0.400	-0.560	1.410
2020/01/31 22:17:31.0	96.130	-0.400	-0.550	1.390
2020/01/31 22:17:31.1	96.140	-0.390	-0.530	1.380
2020/01/31 22:17:31.2	96.150	-0.380	-0.510	1.360
2020/01/31 22:17:31.3	96.160	-0.370	-0.480	1.330
2020/01/31 22:17:31.4	96.170	-0.360	-0.460	1.310
2020/01/31 22:17:31.5	96.190	-0.350	-0.440	1.280
2020/01/31 22:17:31.6	96.200	-0.340	-0.410	1.240
2020/01/31 22:17:31.7	96.210	-0.330	-0.380	1.210
2020/01/31 22:17:31.8	96.220	-0.310	-0.350	1.170
2020/01/31 22:17:31.9	96.230	-0.300	-0.320	1.120
2020/01/31 22:17:32.0	96.240	-0.280	-0.290	1.070
2020/01/31 22:17:32.1	96.250	-0.270	-0.250	1.020
2020/01/31 22:17:32.2	96.260	-0.250	-0.220	0.970
2020/01/31 22:17:32.3	96.270	-0.240	-0.180	0.910
2020/01/31 22:17:32.4	96.280	-0.220	-0.150	0.840
2020/01/31 22:17:32.5	96.290	-0.210	-0.120	0.780
2020/01/31 22:17:32.6	96.290	-0.190	-0.080	0.710
2020/01/31 22:17:32.7	96.300	-0.170	-0.050	0.640
2020/01/31 22:17:32.8	96.310	-0.160	-0.020	0.570
2020/01/31 22:17:32.9	96.310	-0.140	0.020	0.490
2020/01/31 22:17:33.0	96.320	-0.130	0.050	0.410
2020/01/31 22:17:33.1	96.320	-0.120	0.070	0.330
2020/01/31 22:17:33.2	96.330	-0.100	0.100	0.250
2020/01/31 22:17:33.3	96.330	-0.090	0.120	0.170
2020/01/31 22:17:33.4	96.340	-0.070	0.150	0.090
2020/01/31 22:17:33.5	96.340	-0.060	0.160	0.010
2020/01/31 22:17:33.6	96.350	-0.050	0.180	-0.070
2020/01/31 22:17:33.7	96.350	-0.040	0.190	-0.150
2020/01/31 22:17:33.8	96.360	-0.030	0.200	-0.220
2020/01/31 22:17:33.9	96.370	-0.020	0.210	-0.300
2020/01/31 22:17:34.0	96.370	-0.010	0.210	-0.370
2020/01/31 22:17:34.1	96.380	0.000	0.210	-0.440
2020/01/31 22:17:34.2	96.380	0.010	0.210	-0.510
2020/01/31 22:17:34.3	96.390	0.020	0.210	-0.580
2020/01/31 22:17:34.4	96.400	0.030	0.200	-0.640
2020/01/31 22:17:34.5	96.400	0.030	0.190	-0.700
2020/01/31 22:17:34.6	96.410	0.040	0.180	-0.750
2020/01/31 22:17:34.7	96.420	0.040	0.170	-0.800
2020/01/31 22:17:34.8	96.420	0.050	0.160	-0.850
2020/01/31 22:17:34.9	96.430	0.050	0.140	-0.890
2020/01/31 22:17:35.0	96.430	0.050	0.120	-0.930
2020/01/31 22:17:35.1	96.440	0.050	0.110	-0.960
2020/01/31 22:17:35.2	96.440	0.050	0.090	-0.990
2020/01/31 22:17:35.3	96.450	0.050	0.070	-1.020
2020/01/31 22:17:35.4	96.450	0.050	0.060	-1.040
2020/01/31 22:17:35.5	96.450	0.050	0.040	-1.060
2020/01/31 22:17:35.6	96.450	0.040	0.020	-1.070
2020/01/31 22:17:35.7	96.460	0.040	0.010	-1.090
2020/01/31 22:17:35.8	96.460	0.030	-0.000	-1.090
2020/01/31 22:17:35.9	96.450	0.030	-0.020	-1.100
2020/01/31 22:17:36.0	96.450	0.020	-0.030	-1.100
2020/01/31 22:17:36.1	96.450	0.010	-0.040	-1.100
2020/01/31 22:17:36.2	96.450	0.000	-0.050	-1.100
2020/01/31 22:17:36.3	96.440	-0.010	-0.060	-1.100
2020/01/31 22:17:36.4	96.430	-0.020	-0.060	-1.090
2020/01/31 22:17:36.5	96.420	-0.030	-0.070	-1.080
2020/01/31 22:17:36.6	96.410	-0.040	-0.070	-1.070
2020/01/31 22:17:36.7	96.410	-0.050	-0.070	-1.060
2020/01/31 22:17:36.8	96.400	-0.060	-0.080	-1.040
2020/01/31 22:17:36.9	96.380	-0.070	-0.080	-1.030
2020/01/31 22:17:37.0	96.380	-0.070	-0.080	-1.010
2020/01/31 22:17:37.1	96.360	-0.080	-0.080	-0.990
2020/01/31 22:17:37.2	96.350	-0.090	-0.080	-0.970
2020/01/31 22:17:37.3	96.340	-0.100	-0.080	-0.950
2020/01/31 22:17:37.4	96.330	-0.110	-0.080	-0.920
2020/01/31 22:17:37.5	96.320	-0.110	-0.090	-0.900
2020/01/31 22:17:37.6	96.310	-0.120	-0.090	-0.870
2020/01/31 22:17:37.7	96.300	-0.120	-0.100	-0.840
2020/01/31 22:17:37.8	96.290	-0.120	-0.110	-0.810
2020/01/31 22:17:37.9	96.280	-0.120	-0.120	-0.780
2020/01/31 22:17:38.0	96.270	-0.120	-0.130	-0.750
2020/01/31 22:17:38.1	96.260	-0.120	-0.150	-0.710
2020/01/31 22:17:38.2	96.250	-0.120	-0.170	-0.670
2020/01/31 22:17:38.3	96.240	-0.110	-0.190	-0.630
2020/01/31 22:17:38.4	96.240	-0.100	-0.210	-0.590
2020/01/31 22:17:38.5	96.230	-0.090	-0.240	-0.550
2020/01/31 22:17:38.6	96.220	-0.080	-0.270	-0.510
2020/01/31 22:17:38.7	96.220	-0.070	-0.300	-0.460
2020/01/31 22:17:38.8	96.210	-0.050	-0.340	-0.410
2020/01/31 22:17:38.9	96.210	-0.030	-0.380	-0.360
2020/01/31 22:17:39.0	96.210	-0.010	-0.410	-0.310
2020/01/31 22:17:39.1	96.210	0.010	-0.460	-0.260
2020/01/31 22:17:39.2	96.210	0.030	-0.500	-0.200
2020/01/31 22:17:39.3	96.220	0.050	-0.540	-0.150
2020/01/31 22:17:39.4	96.220	0.080	-0.580	-0.090
2020/01/31 22:17:39.5	96.220	0.110	-0.630	-0.030
2020/01/31 22:17:39.6	96.230	0.140	-0.670	0.020
2020/01/31 22:17:39.7	96.240	0.170	-0.710	0.080
2020/01/31 22:17:39.8	96.250	0.200	-0.760	0.140
2020/01/31 22:17:39.9	96.260	0.230	-0.790	0.200
2020/01/31 22:17:40.0	96.270	0.260	-0.830	0.260
2020/01/31 22:17:40.1	96.280	0.290	-0.870	0.320
2020/01/31 22:17:40.2	96.300	0.330	-0.900	0.380
2020/01/31 22:17:40.3	96.310	0.360	-0.930	0.440
2020/01/31 22:17:40.4	96.320	0.390	-0.950	0.500
2020/01/31 22:17:40.5	96.340	0.420	-0.970	0.560
2020/01/31 22:17:40.6	96.350	0.450	-0.980	0.620
2020/01/31 22:17:40.7	96.370	0.480	-0.990	0.670
2020/01/31 22:17:40.8	96.390	0.510	-0.990	0.730
2020/01/31 22:17:40.9	96.400	0.540	-0.990	0.780
2020/01/31 22:17:41.0	96.430	0.560	-0.980	0.830
2020/01/31 22:17:41.1	96.450	0.580	-0.960	0.880
2020/01/31 22:17:41.2	96.460	0.600	-0.940	0.930
2020/01/31 22:17:41.3	96.480	0.620	-0.910	0.980
2020/01/31 22:17:41.4	96.500	0.630	-0.870	1.020
2020/01/31 22:17:41.5	96.520	0.640	-0.830	1.060
2020/01/31 22:17:41.6	96.540	0.650	-0.780	1.100
2020/01/31 22:17:41.7	96.560	0.650	-0.730	1.130
2020/01/31 22:17:41.8	96.580	0.650	-0.670	1.170
2020/01/31 22:17:41.9	96.600	0.640	-0.600	1.200
2020/01/31 22:17:42.0	96.620	0.630	-0.540	1.230
2020/01/31 22:17:42.1	96.640	0.620	-0.460	1.260
2020/01/31 22:17:42.2	96.660	0.600	-0.380	1.280
2020/01/31 22:17:42.3	96.680	0.580	-0.300	1.300
2020/01/31 22:17:42.4	96.700	0.560	-0.210	1.320
2020/01/31 22:17:42.5	96.720	0.530	-0.120	1.340
2020/01/31 22:17:42.6	96.730	0.500	-0.020	1.350
2020/01/31 22:17:42.7	96.750	0.460	0.070	1.370
2020/01/31 22:17:42.8	96.760	0.430	0.170	1.380
2020/01/31 22:17:42.9	96.780	0.380	0.260	1.390
2020/01/31 22:17:43.0	96.790	0.340	0.360	1.400
2020/01/31 22:17:43.1	96.800	0.290	0.460	1.410
2020/01/31 22:17:43.2	96.810	0.240	0.550	1.410
2020/01/31 22:17:43.3	96.820	0.190	0.640	1.420
2020/01/31 22:17:43.4	96.830	0.130	0.730	1.420
2020/01/31 22:17:43.5	96.830	0.080	0.820	1.430
2020/01/31 22:17:43.6	96.840	0.020	0.900	1.430
2020/01/31 22:17:43.7	96.850	-0.030	0.970	1.430
2020/01/31 22:17:43.8	96.850	-0.090	1.040	1.430
2020/01/31 22:17:43.9	96.850	-0.150	1.100	1.430
2020/01/31 22:17:44.0	96.840	-0.200	1.160	1.430
2020/01/31 22:17:44.1	96.840	-0.260	1.210	1.420
2020/01/31 22:17:44.2	96.840	-0.310	1.250	1.420
2020/01/31 22:17:44.3	96.840	-0.360	1.280	1.410
2020/01/31 22:17:44.4	96.840	-0.410	1.300	1.410
2020/01/31 22:17:44.5	96.830	-0.460	1.320	1.400
2020/01/31 22:17:44.6	96.820	-0.510	1.320	1.390
2020/01/31 22:17:44.7	96.820	-0.550	1.310	1.380
2020/01/31 22:17:44.8	96.810	-0.590	1.300	1.370
2020/01/31 22:17:44.9	96.800	-0.620	1.270	1.360
2020/01/31 22:17:45.0	96.780	-0.650	1.230	1.340
2020/01/31 22:17:45.1	96.760	-0.680	1.190	1.330
2020/01/31 22:17:45.2	96.750	-0.710	1.130	1.310
2020/01/31 22:17:45.3	96.730	-0.720	1.070	1.290
2020/01/31 22:17:45.4	96.710	-0.740	1.000	1.270
2020/01/31 22:17:45.5	96.690	-0.750	0.910	1.250
2020/01/31 22:17:45.6	96.680	-0.760	0.820	1.230
2020/01/31 22:17:45.7	96.650	-0.760	0.730	1.200
2020/01/31 22:17:45.8	96.630	-0.760	0.620	1.180
2020/01/31 22:17:45.9	96.610	-0.750	0.510	1.150
2020/01/31 22:17:46.0	96.590	-0.740	0.390	1.120
2020/01/31 22:17:46.1	96.560	-0.720	0.270	1.090
2020/01/31 22:17:46.2	96.540	-0.710	0.140	1.050
2020/01/31 22:17:46.3	96.520	-0.690	0.010	1.020
2020/01/31 22:17:46.4	96.500	-0.660	-0.120	0.980
2020/01/31 22:17:46.5	96.470	-0.630	-0.250	0.940
2020/01/31 22:17:46.6	96.450	-0.600	-0.380	0.900
2020/01/31 22:17:46.7	96.430	-0.570	-0.520	0.860
2020/01/31 22:17:46.8	96.410	-0.530	-0.650	0.820
2020/01/31 22:17:46.9	96.390	-0.500	-0.780	0.770
2020/01/31 22:17:47.0	96.380	-0.460	-0.910	0.730
2020/01/31 22:17:47.1	96.370	-0.420	-1.040	0.680
2020/01/31 22:17:47.2	96.350	-0.380	-1.160	0.630
2020/01/31 22:17:47.3	96.340	-0.340	-1.270	0.580
2020/01/31 22:17:47.4	96.330	-0.300	-1.380	0.520
2020/01/31 22:17:47.5	96.320	-0.260	-1.490	0.470
2020/01/31 22:17:47.6	96.310	-0.210	-1.580	0.420
2020/01/31 22:17:47.7	96.310	-0.170	-1.670	0.360
2020/01/31 22:17:47.8	96.310	-0.130	-1.750	0.300
2020/01/31 22:17:47.9	96.310	-0.090	-1.820	0.250
2020/01/31 22:17:48.0	96.320	-0.060	-1.880	0.190
2020/01/31 22:17:48.1	96.320	-0.020	-1.940	0.130
2020/01/31 22:17:48.2	96.330	0.010	-1.980	0.080
2020/01/31 22:17:48.3	96.340	0.050	-2.010	0.020
2020/01/31 22:17:48.4	96.350	0.080	-2.030	-0.030
2020/01/31 22:17:48.5	96.370	0.110	-2.040	-0.080
2020/01/31 22:17:48.6	96.380	0.130	-2.040	-0.130
2020/01/31 22:17:48.7	96.400	0.160	-2.030	-0.180
2020/01/31 22:17:48.8	96.420	0.180	-2.000	-0.230
2020/01/31 22:17:48.9	96.440	0.200	-1.970	-0.280
2020/01/31 22:17:49.0	96.470	0.220	-1.920	-0.330
2020/01/31 22:17:49.1	96.490	0.230	-1.870	-0.370
2020/01/31 22:17:49.2	96.520	0.240	-1.800	-0.410
2020/01/31 22:17:49.3	96.540	0.250	-1.730	-0.450
2020/01/31 22:17:49.4	96.560	0.260	-1.640	-0.480
2020/01/31 22:17:49.5	96.590	0.260	-1.550	-0.510
2020/01/31 22:17:49.6	96.610	0.270	-1.450	-0.540
2020/01/31 22:17:49.7	96.640	0.270	-1.340	-0.570
2020/01/31 22:17:49.8	96.660	0.260	-1.220	-0.590
2020/01/31 22:17:49.9	96.680	0.260	-1.100	-0.620
2020/01/31 22:17:50.0	96.710	0.250	-0.970	-0.630
2020/01/31 22:17:50.1	96.730	0.240	-0.840	-0.650
2020/01/31 22:17:50.2	96.750	0.230	-0.700	-0.660
2020/01/31 22:17:50.3	96.770	0.220	-0.570	-0.680
2020/01/31 22:17:50.4	96.780	0.200	-0.430	-0.690
2020/01/31 22:17:50.5	96.800	0.190	-0.290	-0.690
2020/01/31 22:17:50.6	96.810	0.170	-0.150	-0.700
2020/01/31 22:17:50.7	96.820	0.150	-0.010	-0.700
2020/01/31 22:17:50.8	96.840	0.130	0.130	-0.700
2020/01/31 22:17:50.9	96.850	0.110	0.270	-0.700
2020/01/31 22:17:51.0	96.850	0.090	0.400	-0.700
2020/01/31 22:17:51.1	96.860	0.070	0.530	-0.700
2020/01/31 22:17:51.2	96.860	0.040	0.660	-0.700
2020/01/31 22:17:51.3	96.870	0.020	0.770	-0.690
2020/01/31 22:17:51.4	96.870	-0.000	0.890	-0.690
2020/01/31 22:17:51.5	96.870	-0.020	0.990	-0.680
2020/01/31 22:17:51.6	96.870	-0.040	1.090	-0.670
2020/01/31 22:17:51.7	96.870	-0.070	1.180	-0.670
2020/01/31 22:17:51.8	96.870	-0.090	1.270	-0.660
2020/01/31 22:17:51.9	96.870	-0.100	1.340	-0.650
2020/01/31 22:17:52.0	96.860	-0.120	1.410	-0.640
2020/01/31 22:17:52.1	96.860	-0.140	1.460	-0.620
2020/01/31 22:17:52.2	96.850	-0.150	1.510	-0.610
2020/01/31 22:17:52.3	96.850	-0.160	1.550	-0.600
2020/01/31 22:17:52.4	96.840	-0.180	1.570	-0.590
2020/01/31 22:17:52.5	96.830	-0.180	1.590	-0.570
2020/01/31 22:17:52.6	96.820	-0.190	1.600	-0.560
2020/01/31 22:17:52.7	96.810	-0.200	1.600	-0.540
2020/01/31 22:17:52.8	96.800	-0.200	1.590	-0.520
2020/01/31 22:17:52.9	96.790	-0.200	1.570	-0.500
2020/01/31 22:17:53.0	96.770	-0.190	1.540	-0.480
2020/01/31 22:17:53.1	96.760	-0.190	1.500	-0.460
2020/01/31 22:17:53.2	96.750	-0.180	1.460	-0.430
2020/01/31 22:17:53.3	96.730	-0.170	1.410	-0.410
2020/01/31 22:17:53.4	96.720	-0.160	1.340	-0.380
2020/01/31 22:17:53.5	96.710	-0.140	1.280	-0.350
2020/01/31 22:17:53.6	96.700	-0.130	1.200	-0.320
2020/01/31 22:17:53.7	96.690	-0.110	1.120	-0.290
2020/01/31 22:17:53.8	96.680	-0.080	1.030	-0.260
2020/01/31 22:17:53.9	96.670	-0.060	0.940	-0.230
2020/01/31 22:17:54.0	96.650	-0.040	0.840	-0.190
2020/01/31 22:17:54.1	96.650	-0.010	0.730	-0.150
2020/01/31 22:17:54.2	96.640	0.020	0.630	-0.120
2020/01/31 22:17:54.3	96.630	0.050	0.510	-0.080
2020/01/31 22:17:54.4	96.630	0.070	0.400	-0.040
2020/01/31 22:17:54.5	96.620	0.100	0.280	0.000
2020/01/31 22:17:54.6	96.620	0.130	0.160	0.040
2020/01/31 22:17:54.7	96.620	0.160	0.040	0.080
2020/01/31 22:17:54.8	96.610	0.200	-0.090	0.130
2020/01/31 22:17:54.9	96.610	0.230	-0.210	0.170
2020/01/31 22:17:55.0	96.610	0.250	-0.340	0.210
2020/01/31 22:17:55.1	96.610	0.280	-0.460	0.260
2020/01/31 22:17:55.2	96.620	0.310	-0.580	0.300
2020/01/31 22:17:55.3	96.620	0.340	-0.700	0.340
2020/01/31 22:17:55.4	96.620	0.360	-0.810	0.390
2020/01/31 22:17:55.5	96.620	0.380	-0.920	0.430
2020/01/31 22:17:55.6	96.630	0.410	-1.020	0.470
2020/01/31 22:17:55.7	96.630	0.420	-1.120	0.520
2020/01/31 22:17:55.8	96.640	0.440	-1.220	0.560
2020/01/31 22:17:55.9	96.640	0.460	-1.300	0.600
2020/01/31 22:17:56.0	96.650	0.470	-1.380	0.640
2020/01/31 22:17:56.1	96.650	0.480	-1.450	0.680
2020/01/31 22:17:56.2	96.660	0.480	-1.520	0.720
2020/01/31 22:17:56.3	96.670	0.490	-1.570	0.760
2020/01/31 22:17:56.4	96.670	0.490	-1.620	0.800
2020/01/31 22:17:56.5	96.680	0.490	-1.660	0.840
2020/01/31 22:17:56.6	96.690	0.480	-1.690	0.870
2020/01/31 22:17:56.7	96.690	0.470	-1.710	0.910
2020/01/31 22:17:56.8	96.700	0.460	-1.720	0.940
2020/01/31 22:17:56.9	96.710	0.450	-1.720	0.980
2020/01/31 22:17:57.0	96.720	0.430	-1.710	1.010
2020/01/31 22:17:57.1	96.730	0.410	-1.690	1.040
2020/01/31 22:17:57.2	96.730	0.390	-1.660	1.070
2020/01/31 22:17:57.3	96.740	0.370	-1.630	1.100
2020/01/31 22:17:57.4	96.750	0.340	-1.580	1.130
2020/01/31 22:17:57.5	96.750	0.310	-1.530	1.160
2020/01/31 22:17:57.6	96.760	0.280	-1.470	1.190
2020/01/31 22:17:57.7	96.760	0.240	-1.400	1.220
2020/01/31 22:17:57.8	96.770	0.210	-1.320	1.250
2020/01/31 22:17:57.9	96.770	0.170	-1.240	1.280
2020/01/31 22:17:58.0	96.790	0.130	-1.160	1.310
2020/01/31 22:17:58.1	96.790	0.090	-1.070	1.340
2020/01/31 22:17:58.2	96.790	0.050	-0.970	1.360
2020/01/31 22:17:58.3	96.800	0.010	-0.880	1.390
2020/01/31 22:17:58.4	96.800	-0.030	-0.780	1.420
2020/01/31 22:17:58.5	96.800	-0.070	-0.680	1.450
2020/01/31 22:17:58.6	96.800	-0.110	-0.580	1.480
2020/01/31 22:17:58.7	96.800	-0.150	-0.490	1.500
2020/01/31 22:17:58.8	96.800	-0.190	-0.390	1.530
2020/01/31 22:17:58.9	96.800	-0.230	-0.290	1.560
2020/01/31 22:17:59.0	96.790	-0.270	-0.200	1.580
2020/01/31 22:17:59.1	96.790	-0.300	-0.100	1.610
2020/01/31 22:17:59.2	96.780	-0.340	-0.010	1.630
2020/01/31 22:17:59.3	96.780	-0.370	0.070	1.660
2020/01/31 22:17:59.4	96.770	-0.400	0.160	1.680
2020/01/31 22:17:59.5	96.760	-0.430	0.240	1.700
2020/01/31 22:17:59.6	96.750	-0.460	0.310	1.730
2020/01/31 22:17:59.7	96.740	-0.490	0.380	1.740
2020/01/31 22:17:59.8	96.730	-0.510	0.450	1.760
2020/01/31 22:17:59.9	96.720	-0.530	0.510	1.780
2020/01/31 22:18:00.0	96.700	-0.550	0.570	1.790
2020/01/31 22:18:00.1	96.690	-0.560	0.620	1.800
2020/01/31 22:18:00.2	96.670	-0.580	0.670	1.810
2020/01/31 22:18:00.3	96.660	-0.590	0.710	1.810
2020/01/31 22:18:00.4	96.640	-0.600	0.740	1.810
2020/01/31 22:18:00.5	96.620	-0.600	0.770	1.810
2020/01/31 22:18:00.6	96.610	-0.600	0.800	1.800
2020/01/31 22:18:00.7	96.590	-0.600	0.810	1.790
2020/01/31 22:18:00.8	96.570	-0.600	0.830	1.770
2020/01/31 22:18:00.9	96.550	-0.590	0.830	1.750
2020/01/31 22:18:01.0	96.520	-0.580	0.840	1.720
2020/01/31 22:18:01.1	96.500	-0.570	0.830	1.700
2020/01/31 22:18:01.2	96.480	-0.560	0.830	1.660
2020/01/31 22:18:01.3	96.460	-0.550	0.810	1.630
2020/01/31 22:18:01.4	96.430	-0.530	0.790	1.590
2020/01/31 22:18:01.5	96.410	-0.510	0.770	1.550
2020/01/31 22:18:01.6	96.390	-0.490	0.740	1.500
2020/01/31 22:18:01.7	96.370	-0.470	0.710	1.450
2020/01/31 22:18:01.8	96.350	-0.440	0.680	1.400
2020/01/31 22:18:01.9	96.340	-0.420	0.640	1.350
2020/01/31 22:18:02.0	96.310	-0.390	0.590	1.290
2020/01/31 22:18:02.1	96.300	-0.360	0.550	1.230
2020/01/31 22:18:02.2	96.280	-0.330	0.500	1.160
2020/01/31 22:18:02.3	96.270	-0.300	0.450	1.090
2020/01/31 22:18:02.4	96.260	-0.270	0.390	1.020
2020/01/31 22:18:02.5	96.250	-0.240	0.330	0.950
2020/01/31 22:18:02.6	96.250	-0.210	0.270	0.870
2020/01/31 22:18:02.7	96.240	-0.170	0.210	0.800
2020/01/31 22:18:02.8	96.240	-0.140	0.150	0.720
2020/01/31 22:18:02.9	96.250	-0.100	0.090	0.630
2020/01/31 22:18:03.0	96.240	-0.070	0.020	0.550
2020/01/31 22:18:03.1	96.250	-0.040	-0.040	0.460
2020/01/31 22:18:03.2	96.250	-0.000	-0.110	0.370
2020/01/31 22:18:03.3	96.270	0.030	-0.170	0.290
2020/01/31 22:18:03.4	96.280	0.070	-0.230	0.200
2020/01/31 22:18:03.5	96.290	0.100	-0.300	0.100
2020/01/31 22:18:03.6	96.310	0.130	-0.360	0.010
2020/01/31 22:18:03.7	96.330	0.160	-0.420	-0.080
2020/01/31 22:18:03.8	96.350	0.190	-0.480	-0.170
2020/01/31 22:18:03.9	96.370	0.220	-0.530	-0.260
2020/01/31 22:18:04.0	96.390	0.250	-0.590	-0.360
2020/01/31 22:18:04.1	96.410	0.280	-0.640	-0.450
2020/01/31 22:18:04.2	96.430	0.310	-0.690	-0.540
2020/01/31 22:18:04.3	96.460	0.340	-0.730	-0.630
2020/01/31 22:18:04.4	96.480	0.360	-0.770	-0.710
2020/01/31 22:18:04.5	96.500	0.380	-0.810	-0.800
2020/01/31 22:18:04.6	96.530	0.410	-0.840	-0.880
2020/01/31 22:18:04.7	96.550	0.430	-0.870	-0.960
2020/01/31 22:18:04.8	96.570	0.440	-0.890	-1.040
2020/01/31 22:18:04.9	96.590	0.460	-0.910	-1.120
2020/01/31 22:18:05.0	96.620	0.480	-0.920	-1.190
2020/01/31 22:18:05.1	96.640	0.490	-0.940	-1.250
2020/01/31 22:18:05.2	96.660	0.500	-0.940	-1.320
2020/01/31 22:18:05.3	96.680	0.520	-0.950	-1.380
2020/01/31 22:18:05.4	96.690	0.520	-0.950	-1.430
2020/01/31 22:18:05.5	96.710	0.530	-0.940	-1.480
2020/01/31 22:18:05.6	96.720	0.540	-0.930	-1.530
2020/01/31 22:18:05.7	96.740	0.540	-0.920	-1.570
2020/01/31 22:18:05.8	96.750	0.540	-0.900	-1.600
2020/01/31 22:18:05.9	96.760	0.540	-0.880	-1.630
2020/01/31 22:18:06.0	96.760	0.540	-0.850	-1.650
2020/01/31 22:18:06.1	96.770	0.530	-0.820	-1.670
2020/01/31 22:18:06.2	96.770	0.530	-0.790	-1.680
2020/01/31 22:18:06.3	96.780	0.520	-0.750	-1.690
2020/01/31 22:18:06.4	96.780	0.510	-0.710	-1.690
2020/01/31 22:18:06.5	96.780	0.500	-0.670	-1.680
2020/01/31 22:18:06.6	96.780	0.480	-0.620	-1.670
2020/01/31 22:18:06.7	96.770	0.470	-0.570	-1.650
2020/01/31 22:18:06.8	96.770	0.450	-0.530	-1.620
2020/01/31 22:18:06.9	96.760	0.430	-0.480	-1.590
2020/01/31 22:18:07.0	96.750	0.410	-0.430	-1.550
2020/01/31 22:18:07.1	96.740	0.390	-0.380	-1.510
2020/01/31 22:18:07.2	96.720	0.370	-0.320	-1.450
2020/01/31 22:18:07.3	96.710	0.350	-0.270	-1.400
2020/01/31 22:18:07.4	96.690	0.330	-0.220	-1.330
2020/01/31 22:18:07.5	96.670	0.310	-0.170	-1.260
2020/01/31 22:18:07.6	96.650	0.280	-0.120	-1.190
2020/01/31 22:18:07.7	96.620	0.260	-0.070	-1.100
2020/01/31 22:18:07.8	96.600	0.230	-0.020	-1.010
2020/01/31 22:18:07.9	96.570	0.210	0.020	-0.920
2020/01/31 22:18:08.0	96.550	0.180	0.070	-0.820
2020/01/31 22:18:08.1	96.520	0.160	0.110	-0.720
2020/01/31 22:18:08.2	96.490	0.130	0.150	-0.600
2020/01/31 22:18:08.3	96.460	0.110	0.190	-0.490
2020/01/31 22:18:08.4	96.430	0.080	0.220	-0.370
2020/01/31 22:18:08.5	96.400	0.060	0.250	-0.250
2020/01/31 22:18:08.6	96.360	0.030	0.280	-0.120
2020/01/31 22:18:08.7	96.330	0.010	0.310	0.010
2020/01/31 22:18:08.8	96.300	-0.020	0.330	0.140
2020/01/31 22:18:08.9	96.270	-0.040	0.350	0.270
2020/01/31 22:18:09.0	96.240	-0.070	0.370	0.400
2020/01/31 22:18:09.1	96.210	-0.090	0.390	0.530
2020/01/31 22:18:09.2	96.180	-0.110	0.400	0.660
2020/01/31 22:18:09.3	96.160	-0.140	0.410	0.790
2020/01/31 22:18:09.4	96.130	-0.160	0.410	0.920
2020/01/31 22:18:09.5	96.110	-0.180	0.420	1.050
2020/01/31 22:18:09.6	96.080	-0.200	0.420	1.170
2020/01/31 22:18:09.7	96.060	-0.230	0.410	1.280
2020/01/31 22:18:09.8	96.040	-0.250	0.410	1.390
2020/01/31 22:18:09.9	96.030	-0.270	0.400	1.500
2020/01/31 22:18:10.0	96.010	-0.290	0.390	1.600
2020/01/31 22:18:10.1	96.000	-0.300	0.370	1.700
2020/01/31 22:18:10.2	95.990	-0.320	0.350	1.780
2020/01/31 22:18:10.3	95.980	-0.340	0.330	1.860
2020/01/31 22:18:10.4	95.980	-0.350	0.310	1.930
2020/01/31 22:18:10.5	95.970	-0.370	0.280	2.000
2020/01/31 22:18:10.6	95.970	-0.380	0.260	2.060
2020/01/31 22:18:10.7	95.970	-0.400	0.230	2.100
2020/01/31 22:18:10.8	95.970	-0.410	0.200	2.140
2020/01/31 22:18:10.9	95.980	-0.420	0.170	2.180
2020/01/31 22:18:11.0	95.980	-0.430	0.140	2.200
2020/01/31 22:18:11.1	95.990	-0.430	0.100	2.220
2020/01/31 22:18:11.2	96.000	-0.440	0.070	2.230
2020/01/31 22:18:11.3	96.010	-0.440	0.040	2.230
2020/01/31 22:18:11.4	96.030	-0.450	0.010	2.230
2020/01/31 22:18:11.5	96.040	-0.450	-0.030	2.220
2020/01/31 22:18:11.6	96.060	-0.450	-0.060	2.210
2020/01/31 22:18:11.7	96.080	-0.450	-0.090	2.190
2020/01/31 22:18:11.8	96.100	-0.440	-0.120	2.170
2020/01/31 22:18:11.9	96.130	-0.440	-0.140	2.150
2020/01/31 22:18:12.0	96.150	-0.430	-0.170	2.120
2020/01/31 22:18:12.1	96.170	-0.420	-0.200	2.090
2020/01/31 22:18:12.2	96.200	-0.420	-0.220	2.050
2020/01/31 22:18:12.3	96.230	-0.400	-0.240	2.020
2020/01/31 22:18:12.4	96.260	-0.390	-0.260	1.980
2020/01/31 22:18:12.5	96.290	-0.380	-0.280	1.940
2020/01/31 22:18:12.6	96.320	-0.370	-0.290	1.900
2020/01/31 22:18:12.7	96.350	-0.350	-0.310	1.850
2020/01/31 22:18:12.8	96.380	-0.330	-0.320	1.810
2020/01/31 22:18:12.9	96.420	-0.320	-0.330	1.770
2020/01/31 22:18:13.0	96.440	-0.300	-0.340	1.720
2020/01/31 22:18:13.1	96.470	-0.280	-0.340	1.680
2020/01/31 22:18:13.2	96.500	-0.260	-0.350	1.630
2020/01/31 22:18:13.3	96.530	-0.240	-0.350	1.580
2020/01/31 22:18:13.4	96.560	-0.220	-0.350	1.540
2020/01/31 22:18:13.5	96.580	-0.200	-0.360	1.490
2020/01/31 22:18:13.6	96.610	-0.170	-0.360	1.440
2020/01/31 22:18:13.7	96.630	-0.150	-0.360	1.390
2020/01/31 22:18:13.8	96.650	-0.130	-0.360	1.350
2020/01/31 22:18:13.9	96.670	-0.100	-0.360	1.300
2020/01/31 22:18:14.0	96.690	-0.080	-0.350	1.250
2020/01/31 22:18:14.1	96.710	-0.060	-0.350	1.200
2020/01/31 22:18:14.2	96.720	-0.040	-0.350	1.160
2020/01/31 22:18:14.3	96.730	-0.010	-0.360	1.110
2020/01/31 22:18:14.4	96.740	0.010	-0.360	1.060
2020/01/31 22:18:14.5	96.750	0.030	-0.360	1.020
2020/01/31 22:18:14.6	96.750	0.060	-0.360	0.970
2020/01/31 22:18:14.7	96.750	0.080	-0.370	0.930
2020/01/31 22:18:14.8	96.750	0.100	-0.370	0.880
2020/01/31 22:18:14.9	96.750	0.120	-0.380	0.840
2020/01/31 22:18:15.0	96.740	0.140	-0.380	0.790
2020/01/31 22:18:15.1	96.740	0.160	-0.390	0.750
2020/01/31 22:18:15.2	96.730	0.180	-0.400	0.710
2020/01/31 22:18:15.3	96.710	0.200	-0.410	0.670
2020/01/31 22:18:15.4	96.700	0.220	-0.420	0.630
2020/01/31 22:18:15.5	96.690	0.240	-0.420	0.590
2020/01/31 22:18:15.6	96.670	0.250	-0.430	0.550
2020/01/31 22:18:15.7	96.650	0.270	-0.440	0.510
2020/01/31 22:18:15.8	96.620	0.280	-0.450	0.480
2020/01/31 22:18:15.9	96.600	0.300	-0.460	0.440
2020/01/31 22:18:16.0	96.570	0.310	-0.470	0.400
2020/01/31 22:18:16.1	96.540	0.320	-0.470	0.370
2020/01/31 22:18:16.2	96.510	0.330	-0.480	0.340
2020/01/31 22:18:16.3	96.480	0.340	-0.480	0.310
2020/01/31 22:18:16.4	96.440	0.350	-0.490	0.280
2020/01/31 22:18:16.5	96.410	0.350	-0.490	0.250
2020/01/31 22:18:16.6	96.370	0.360	-0.490	0.220
2020/01/31 22:18:16.7	96.330	0.360	-0.490	0.200
2020/01/31 22:18:16.8	96.290	0.360	-0.490	0.170
2020/01/31 22:18:16.9	96.260	0.360	-0.490	0.150
2020/01/31 22:18:17.0	96.220	0.360	-0.490	0.120
2020/01/31 22:18:17.1	96.180	0.360	-0.480	0.090
2020/01/31 22:18:17.2	96.150	0.360	-0.480	0.070
2020/01/31 22:18:17.3	96.110	0.360	-0.470	0.040
2020/01/31 22:18:17.4	96.080	0.350	-0.460	0.010
2020/01/31 22:18:17.5	96.040	0.340	-0.450	-0.020
2020/01/31 22:18:17.6	96.010	0.330	-0.440	-0.050
2020/01/31 22:18:17.7	95.980	0.330	-0.430	-0.090
2020/01/31 22:18:17.8	95.950	0.320	-0.410	-0.120
2020/01/31 22:18:17.9	95.930	0.300	-0.400	-0.160
2020/01/31 22:18:18.0	95.910	0.290	-0.380	-0.190
2020/01/31 22:18:18.1	95.890	0.280	-0.360	-0.230
2020/01/31 22:18:18.2	95.870	0.260	-0.340	-0.270
2020/01/31 22:18:18.3	95.850	0.250	-0.320	-0.310
2020/01/31 22:18:18.4	95.840	0.230	-0.300	-0.350
2020/01/31 22:18:18.5	95.830	0.220	-0.270	-0.390
2020/01/31 22:18:18.6	95.820	0.200	-0.250	-0.430
2020/01/31 22:18:18.7	95.820	0.180	-0.220	-0.470
2020/01/31 22:18:18.8	95.810	0.160	-0.190	-0.510
2020/01/31 22:18:18.9	95.810	0.140	-0.160	-0.550
2020/01/31 22:18:19.0	95.810	0.120	-0.130	-0.580
2020/01/31 22:18:19.1	95.820	0.100	-0.100	-0.620
2020/01/31 22:18:19.2	95.820	0.080	-0.070	-0.650
2020/01/31 22:18:19.3	95.830	0.060	-0.040	-0.690
2020/01/31 22:18:19.4	95.840	0.040	-0.000	-0.720
2020/01/31 22:18:19.5	95.840	0.020	0.030	-0.750
2020/01/31 22:18:19.6	95.860	-0.000	0.060	-0.780
2020/01/31 22:18:19.7	95.870	-0.020	0.090	-0.810
2020/01/31 22:18:19.8	95.880	-0.040	0.120	-0.830
2020/01/31 22:18:19.9	95.900	-0.070	0.150	-0.850
2020/01/31 22:18:20.0	95.910	-0.090	0.180	-0.870
2020/01/31 22:18:20.1	95.930	-0.110	0.210	-0.890
2020/01/31 22:18:20.2	95.950	-0.130	0.230	-0.910
2020/01/31 22:18:20.3	95.980	-0.150	0.250	-0.930
2020/01/31 22:18:20.4	96.000	-0.170	0.270	-0.940
2020/01/31 22:18:20.5	96.030	-0.180	0.290	-0.950
2020/01/31 22:18:20.6	96.050	-0.200	0.310	-0.960
2020/01/31 22:18:20.7	96.080	-0.220	0.320	-0.970
2020/01/31 22:18:20.8	96.110	-0.230	0.330	-0.980
2020/01/31 22:18:20.9	96.140	-0.240	0.330	-0.990
2020/01/31 22:18:21.0	96.170	-0.250	0.340	-0.990
2020/01/31 22:18:21.1	96.200	-0.260	0.340	-0.990
2020/01/31 22:18:21.2	96.240	-0.270	0.330	-0.990
2020/01/31 22:18:21.3	96.270	-0.280	0.330	-0.990
2020/01/31 22:18:21.4	96.300	-0.280	0.320	-0.980
2020/01/31 22:18:21.5	96.340	-0.290	0.300	-0.970
2020/01/31 22:18:21.6	96.370	-0.290	0.290	-0.960
2020/01/31 22:18:21.7	96.400	-0.280	0.270	-0.940
2020/01/31 22:18:21.8	96.430	-0.280	0.250	-0.920
2020/01/31 22:18:21.9	96.460	-0.280	0.220	-0.890
2020/01/31 22:18:22.0	96.480	-0.270	0.200	-0.860
2020/01/31 22:18:22.1	96.500	-0.260	0.170	-0.830
2020/01/31 22:18:22.2	96.530	-0.250	0.140	-0.790
2020/01/31 22:18:22.3	96.550	-0.240	0.110	-0.750
2020/01/31 22:18:22.4	96.560	-0.220	0.080	-0.710
2020/01/31 22:18:22.5	96.580	-0.200	0.040	-0.660
2020/01/31 22:18:22.6	96.590	-0.190	0.010	-0.610
2020/01/31 22:18:22.7	96.600	-0.170	-0.020	-0.560
2020/01/31 22:18:22.8	96.610	-0.150	-0.060	-0.500
2020/01/31 22:18:22.9	96.610	-0.130	-0.090	-0.440
2020/01/31 22:18:23.0	96.620	-0.110	-0.130	-0.370
2020/01/31 22:18:23.1	96.620	-0.080	-0.170	-0.310
2020/01/31 22:18:23.2	96.620	-0.060	-0.200	-0.240
2020/01/31 22:18:23.3	96.620	-0.040	-0.230	-0.170
2020/01/31 22:18:23.4	96.620	-0.010	-0.260	-0.100
2020/01/31 22:18:23.5	96.610	0.010	-0.290	-0.030
2020/01/31 22:18:23.6	96.610	0.030	-0.320	0.050
2020/01/31 22:18:23.7	96.600	0.060	-0.350	0.120
2020/01/31 22:18:23.8	96.590	0.080	-0.380	0.200
2020/01/31 22:18:23.9	96.590	0.100	-0.400	0.270
2020/01/31 22:18:24.0	96.580	0.120	-0.420	0.350
2020/01/31 22:18:24.1	96.570	0.140	-0.440	0.420
2020/01/31 22:18:24.2	96.560	0.160	-0.460	0.500
2020/01/31 22:18:24.3	96.560	0.180	-0.480	0.570
2020/01/31 22:18:24.4	96.550	0.200	-0.490	0.650
2020/01/31 22:18:24.5	96.540	0.210	-0.500	0.720
2020/01/31 22:18:24.6	96.530	0.230	-0.510	0.800
2020/01/31 22:18:24.7	96.510	0.240	-0.520	0.870
2020/01/31 22:18:24.8	96.500	0.250	-0.530	0.940
2020/01/31 22:18:24.9	96.490	0.260	-0.530	1.020
2020/01/31 22:18:25.0	96.470	0.270	-0.530	1.090
2020/01/31 22:18:25.1	96.460	0.270	-0.530	1.170
2020/01/31 22:18:25.2	96.440	0.280	-0.520	1.240
2020/01/31 22:18:25.3	96.420	0.280	-0.520	1.310
2020/01/31 22:18:25.4	96.410	0.280	-0.510	1.380
2020/01/31 22:18:25.5	96.390	0.280	-0.500	1.450
2020/01/31 22:18:25.6	96.370	0.280	-0.490	1.510
2020/01/31 22:18:25.7	96.350	0.280	-0.470	1.580
2020/01/31 22:18:25.8	96.330	0.270	-0.450	1.640
2020/01/31 22:18:25.9	96.300	0.260	-0.440	1.710
2020/01/31 22:18:26.0	96.280	0.260	-0.410	1.760
2020/01/31 22:18:26.1	96.260	0.250	-0.390	1.820
2020/01/31 22:18:26.2	96.240	0.240	-0.370	1.870
2020/01/31 22:18:26.3	96.220	0.220	-0.350	1.920
2020/01/31 22:18:26.4	96.200	0.210	-0.330	1.970
2020/01/31 22:18:26.5	96.180	0.200	-0.310	2.010
2020/01/31 22:18:26.6	96.160	0.190	-0.290	2.050
2020/01/31 22:18:26.7	96.150	0.170	-0.270	2.080
2020/01/31 22:18:26.8	96.140	0.160	-0.250	2.100
2020/01/31 22:18:26.9	96.120	0.140	-0.230	2.130
2020/01/31 22:18:27.0	96.110	0.130	-0.200	2.140
2020/01/31 22:18:27.1	96.100	0.110	-0.180	2.150
2020/01/31 22:18:27.2	96.100	0.100	-0.160	2.160
2020/01/31 22:18:27.3	96.090	0.090	-0.150	2.160
2020/01/31 22:18:27.4	96.090	0.070	-0.130	2.150
2020/01/31 22:18:27.5	96.090	0.060	-0.120	2.140
2020/01/31 22:18:27.6	96.100	0.040	-0.100	2.120
2020/01/31 22:18:27.7	96.100	0.030	-0.090	2.100
2020/01/31 22:18:27.8	96.110	0.020	-0.080	2.070
2020/01/31 22:18:27.9	96.110	0.010	-0.070	2.040
2020/01/31 22:18:28.0	96.120	-0.010	-0.060	2.000
2020/01/31 22:18:28.1	96.130	-0.020	-0.060	1.960
2020/01/31 22:18:28.2	96.140	-0.030	-0.050	1.910
2020/01/31 22:18:28.3	96.150	-0.040	-0.040	1.860
2020/01/31 22:18:28.4	96.160	-0.050	-0.040	1.810
2020/01/31 22:18:28.5	96.170	-0.060	-0.040	1.760
2020/01/31 22:18:28.6	96.180	-0.070	-0.030	1.700
2020/01/31 22:18:28.7	96.190	-0.080	-0.030	1.630
2020/01/31 22:18:28.8	96.210	-0.090	-0.030	1.570
2020/01/31 22:18:28.9	96.220	-0.100	-0.030	1.500
2020/01/31 22:18:29.0	96.230	-0.110	-0.020	1.430
2020/01/31 22:18:29.1	96.240	-0.120	-0.020	1.350
2020/01/31 22:18:29.2	96.250	-0.130	-0.020	1.280
2020/01/31 22:18:29.3	96.270	-0.130	-0.030	1.200
2020/01/31 22:18:29.4	96.280	-0.140	-0.030	1.120
2020/01/31 22:18:29.5	96.300	-0.150	-0.030	1.040
2020/01/31 22:18:29.6	96.320	-0.160	-0.030	0.960
2020/01/31 22:18:29.7	96.330	-0.170	-0.030	0.880
2020/01/31 22:18:29.8	96.350	-0.170	-0.040	0.800
2020/01/31 22:18:29.9	96.370	-0.180	-0.040	0.720
2020/01/31 22:18:30.0	96.390	-0.190	-0.050	0.640
2020/01/31 22:18:30.1	96.410	-0.200	-0.050	0.550
2020/01/31 22:18:30.2	96.420	-0.200	-0.060	0.470
2020/01/31 22:18:30.3	96.440	-0.210	-0.060	0.400
2020/01/31 22:18:30.4	96.460	-0.220	-0.070	0.320
2020/01/31 22:18:30.5	96.470	-0.220	-0.070	0.240
2020/01/31 22:18:30.6	96.490	-0.230	-0.080	0.170
2020/01/31 22:18:30.7	96.500	-0.230	-0.090	0.100
2020/01/31 22:18:30.8	96.510	-0.240	-0.100	0.040
2020/01/31 22:18:30.9	96.520	-0.240	-0.110	-0.020
2020/01/31 22:18:31.0	96.530	-0.240	-0.110	-0.090
2020/01/31 22:18:31.1	96.540	-0.250	-0.120	-0.140
2020/01/31 22:18:31.2	96.540	-0.250	-0.130	-0.190
2020/01/31 22:18:31.3	96.540	-0.250	-0.140	-0.240
2020/01/31 22:18:31.4	96.550	-0.250	-0.150	-0.280
2020/01/31 22:18:31.5	96.540	-0.250	-0.160	-0.320
2020/01/31 22:18:31.6	96.540	-0.250	-0.170	-0.350
2020/01/31 22:18:31.7	96.540	-0.240	-0.180	-0.380
2020/01/31 22:18:31.8	96.530	-0.240	-0.190	-0.410
2020/01/31 22:18:31.9	96.520	-0.240	-0.200	-0.440
2020/01/31 22:18:32.0	96.510	-0.240	-0.210	-0.460
2020/01/31 22:18:32.1	96.500	-0.230	-0.220	-0.480
2020/01/31 22:18:32.2	96.490	-0.230	-0.230	-0.500
2020/01/31 22:18:32.3	96.470	-0.220	-0.230	-0.510
2020/01/31 22:18:32.4	96.460	-0.220	-0.240	-0.520
2020/01/31 22:18:32.5	96.450	-0.220	-0.240	-0.540
2020/01/31 22:18:32.6	96.430	-0.210	-0.240	-0.550
2020/01/31 22:18:32.7	96.420	-0.210	-0.240	-0.560
2020/01/31 22:18:32.8	96.400	-0.200	-0.240	-0.570
2020/01/31 22:18:32.9	96.390	-0.200	-0.230	-0.580
2020/01/31 22:18:33.0	96.370	-0.200	-0.230	-0.580
2020/01/31 22:18:33.1	96.360	-0.190	-0.220	-0.590
2020/01/31 22:18:33.2	96.340	-0.190	-0.210	-0.600
2020/01/31 22:18:33.3	96.330	-0.180	-0.200	-0.600
2020/01/31 22:18:33.4	96.320	-0.180	-0.190	-0.610
2020/01/31 22:18:33.5	96.300	-0.170	-0.180	-0.610
2020/01/31 22:18:33.6	96.290	-0.170	-0.170	-0.620
2020/01/31 22:18:33.7	96.280	-0.160	-0.150	-0.620
2020/01/31 22:18:33.8	96.270	-0.160	-0.140	-0.620
2020/01/31 22:18:33.9	96.260	-0.150	-0.130	-0.620
2020/01/31 22:18:34.0	96.240	-0.140	-0.110	-0.620
2020/01/31 22:18:34.1	96.230	-0.140	-0.100	-0.610
2020/01/31 22:18:34.2	96.220	-0.130	-0.090	-0.610
2020/01/31 22:18:34.3	96.210	-0.120	-0.080	-0.600
2020/01/31 22:18:34.4	96.200	-0.110	-0.070	-0.600
2020/01/31 22:18:34.5	96.190	-0.100	-0.070	-0.590
2020/01/31 22:18:34.6	96.180	-0.090	-0.060	-0.570
2020/01/31 22:18:34.7	96.180	-0.080	-0.060	-0.560
2020/01/31 22:18:34.8	96.170	-0.060	-0.060	-0.540
2020/01/31 22:18:34.9	96.160	-0.050	-0.070	-0.530
2020/01/31 22:18:35.0	96.150	-0.030	-0.070	-0.500
2020/01/31 22:18:35.1	96.140	-0.020	-0.080	-0.480
2020/01/31 22:18:35.2	96.140	-0.010	-0.090	-0.460
2020/01/31 22:18:35.3	96.130	0.010	-0.100	-0.430
2020/01/31 22:18:35.4	96.120	0.030	-0.120	-0.410
2020/01/31 22:18:35.5	96.120	0.040	-0.130	-0.380
2020/01/31 22:18:35.6	96.120	0.060	-0.150	-0.350
2020/01/31 22:18:35.7	96.110	0.070	-0.170	-0.330
2020/01/31 22:18:35.8	96.110	0.090	-0.200	-0.300
2020/01/31 22:18:35.9	96.110	0.110	-0.220	-0.270
2020/01/31 22:18:36.0	96.110	0.120	-0.240	-0.240
2020/01/31 22:18:36.1	96.110	0.130	-0.270	-0.220
2020/01/31 22:18:36.2	96.120	0.150	-0.290	-0.190
2020/01/31 22:18:36.3	96.120	0.160	-0.320	-0.160
2020/01/31 22:18:36.4	96.130	0.170	-0.340	-0.140
2020/01/31 22:18:36.5	96.130	0.190	-0.360	-0.110
2020/01/31 22:18:36.6	96.140	0.200	-0.380	-0.090
2020/01/31 22:18:36.7	96.140	0.200	-0.400	-0.070
2020/01/31 22:18:36.8	96.150	0.210	-0.420	-0.040
2020/01/31 22:18:36.9	96.160	0.220	-0.430	-0.020
2020/01/31 22:18:37.0	96.170	0.220	-0.440	0.000
2020/01/31 22:18:37.1	96.170	0.230	-0.450	0.020
2020/01/31 22:18:37.2	96.180	0.230	-0.460	0.040
2020/01/31 22:18:37.3	96.190	0.230	-0.460	0.060
2020/01/31 22:18:37.4	96.190	0.230	-0.460	0.090
2020/01/31 22:18:37.5	96.200	0.230	-0.460	0.110
2020/01/31 22:18:37.6	96.200	0.230	-0.450	0.130
2020/01/31 22:18:37.7	96.210	0.230	-0.440	0.150
2020/01/31 22:18:37.8	96.210	0.230	-0.430	0.170
2020/01/31 22:18:37.9	96.220	0.230	-0.420	0.190
2020/01/31 22:18:38.0	96.220	0.220	-0.400	0.210
2020/01/31 22:18:38.1	96.220	0.220	-0.380	0.230
2020/01/31 22:18:38.2	96.220	0.210	-0.360	0.250
2020/01/31 22:18:38.3	96.220	0.210	-0.330	0.280
2020/01/31 22:18:38.4	96.220	0.200	-0.310	0.300
2020/01/31 22:18:38.5	96.220	0.200	-0.280	0.320
2020/01/31 22:18:38.6	96.220	0.200	-0.260	0.350
2020/01/31 22:18:38.7	96.220	0.190	-0.230	0.370
2020/01/31 22:18:38.8	96.220	0.190	-0.200	0.400
2020/01/31 22:18:38.9	96.220	0.190	-0.180	0.430
2020/01/31 22:18:39.0	96.210	0.180	-0.150	0.450
2020/01/31 22:18:39.1	96.210	0.180	-0.130	0.480
2020/01/31 22:18:39.2	96.210	0.180	-0.100	0.510
2020/01/31 22:18:39.3	96.200	0.180	-0.080	0.540
2020/01/31 22:18:39.4	96.200	0.180	-0.070	0.570
2020/01/31 22:18:39.5	96.200	0.180	-0.050	0.600
2020/01/31 22:18:39.6	96.200	0.180	-0.040	0.640
2020/01/31 22:18:39.7	96.190	0.190	-0.030	0.670
2020/01/31 22:18:39.8	96.190	0.190	-0.020	0.700
2020/01/31 22:18:39.9	96.190	0.200	-0.010	0.740
2020/01/31 22:18:40.0	96.190	0.200	-0.010	0.770
2020/01/31 22:18:40.1	96.190	0.210	-0.010	0.810
2020/01/31 22:18:40.2	96.190	0.210	-0.010	0.850
2020/01/31 22:18:40.3	96.180	0.220	-0.020	0.880
2020/01/31 22:18:40.4	96.180	0.220	-0.020	0.920
2020/01/31 22:18:40.5	96.180	0.230	-0.030	0.960
2020/01/31 22:18:40.6	96.180	0.240	-0.040	0.990
2020/01/31 22:18:40.7	96.190	0.240	-0.060	1.030
2020/01/31 22:18:40.8	96.190	0.250	-0.070	1.070
2020/01/31 22:18:40.9	96.190	0.260	-0.080	1.100
2020/01/31 22:18:41.0	96.190	0.260	-0.100	1.130
2020/01/31 22:18:41.1	96.200	0.270	-0.110	1.170
2020/01/31 22:18:41.2	96.200	0.270	-0.130	1.200
2020/01/31 22:18:41.3	96.210	0.280	-0.150	1.230
2020/01/31 22:18:41.4	96.220	0.280	-0.170	1.250
2020/01/31 22:18:41.5	96.230	0.280	-0.180	1.280
2020/01/31 22:18:41.6	96.240	0.280	-0.200	1.300
2020/01/31 22:18:41.7	96.250	0.280	-0.210	1.320
2020/01/31 22:18:41.8	96.260	0.270	-0.230	1.330
2020/01/31 22:18:41.9	96.270	0.270	-0.240	1.350
2020/01/31 22:18:42.0	96.290	0.260	-0.250	1.350
2020/01/31 22:18:42.1	96.300	0.260	-0.260	1.360
2020/01/31 22:18:42.2	96.310	0.250	-0.270	1.360
2020/01/31 22:18:42.3	96.320	0.240	-0.270	1.360
2020/01/31 22:18:42.4	96.340	0.230	-0.280	1.350
2020/01/31 22:18:42.5	96.350	0.210	-0.280	1.350
2020/01/31 22:18:42.6	96.360	0.200	-0.270	1.330
2020/01/31 22:18:42.7	96.380	0.180	-0.270	1.320
2020/01/31 22:18:42.8	96.390	0.160	-0.260	1.300
2020/01/31 22:18:42.9	96.400	0.150	-0.250	1.280
2020/01/31 22:18:43.0	96.410	0.130	-0.240	1.260
2020/01/31 22:18:43.1	96.420	0.100	-0.220	1.240
2020/01/31 22:18:43.2	96.430	0.080	-0.210	1.210
2020/01/31 22:18:43.3	96.440	0.060	-0.190	1.190
2020/01/31 22:18:43.4	96.450	0.030	-0.170	1.160
2020/01/31 22:18:43.5	96.460	0.010	-0.140	1.130
2020/01/31 22:18:43.6	96.470	-0.020	-0.120	1.100
2020/01/31 22:18:43.7	96.470	-0.040	-0.090	1.070
2020/01/31 22:18:43.8	96.480	-0.070	-0.070	1.050
2020/01/31 22:18:43.9	96.480	-0.100	-0.040	1.020
2020/01/31 22:18:44.0	96.480	-0.120	-0.010	0.990
2020/01/31 22:18:44.1	96.480	-0.150	0.020	0.960
2020/01/31 22:18:44.2	96.480	-0.180	0.050	0.930
2020/01/31 22:18:44.3	96.480	-0.210	0.070	0.910
2020/01/31 22:18:44.4	96.470	-0.240	0.100	0.880
2020/01/31 22:18:44.5	96.470	-0.270	0.130	0.860
2020/01/31 22:18:44.6	96.460	-0.290	0.160	0.830
2020/01/31 22:18:44.7	96.450	-0.320	0.190	0.810
2020/01/31 22:18:44.8	96.440	-0.350	0.210	0.790
2020/01/31 22:18:44.9	96.430	-0.380	0.240	0.770
2020/01/31 22:18:45.0	96.420	-0.400	0.260	0.750
2020/01/31 22:18:45.1	96.410	-0.430	0.280	0.730
2020/01/31 22:18:45.2	96.390	-0.460	0.300	0.710
2020/01/31 22:18:45.3	96.380	-0.480	0.310	0.700
2020/01/31 22:18:45.4	96.360	-0.500	0.330	0.680
2020/01/31 22:18:45.5	96.350	-0.530	0.330	0.670
2020/01/31 22:18:45.6	96.330	-0.550	0.340	0.650
2020/01/31 22:18:45.7	96.320	-0.570	0.340	0.640
2020/01/31 22:18:45.8	96.300	-0.590	0.340	0.620
2020/01/31 22:18:45.9	96.280	-0.610	0.340	0.610
2020/01/31 22:18:46.0	96.270	-0.620	0.330	0.590
2020/01/31 22:18:46.1	96.250	-0.640	0.310	0.580
2020/01/31 22:18:46.2	96.240	-0.650	0.300	0.560
2020/01/31 22:18:46.3	96.230	-0.660	0.280	0.550
2020/01/31 22:18:46.4	96.220	-0.670	0.250	0.540
2020/01/31 22:18:46.5	96.200	-0.670	0.220	0.520
2020/01/31 22:18:46.6	96.190	-0.680	0.190	0.510
2020/01/31 22:18:46.7	96.190	-0.680	0.150	0.500
2020/01/31 22:18:46.8	96.180	-0.680	0.110	0.480
2020/01/31 22:18:46.9	96.170	-0.680	0.070	0.470
2020/01/31 22:18:47.0	96.170	-0.670	0.020	0.460
2020/01/31 22:18:47.1	96.160	-0.670	-0.030	0.450
2020/01/31 22:18:47.2	96.160	-0.660	-0.080	0.430
2020/01/31 22:18:47.3	96.150	-0.650	-0.140	0.420
2020/01/31 22:18:47.4	96.150	-0.630	-0.200	0.400
2020/01/31 22:18:47.5	96.150	-0.610	-0.260	0.390
2020/01/31 22:18:47.6	96.140	-0.600	-0.320	0.380
2020/01/31 22:18:47.7	96.140	-0.570	-0.390	0.360
2020/01/31 22:18:47.8	96.140	-0.550	-0.450	0.350
2020/01/31 22:18:47.9	96.140	-0.530	-0.520	0.330
2020/01/31 22:18:48.0	96.140	-0.500	-0.580	0.310
2020/01/31 22:18:48.1	96.140	-0.470	-0.640	0.300
2020/01/31 22:18:48.2	96.140	-0.440	-0.710	0.280
2020/01/31 22:18:48.3	96.140	-0.400	-0.770	0.260
2020/01/31 22:18:48.4	96.140	-0.370	-0.830	0.240
2020/01/31 22:18:48.5	96.140	-0.330	-0.880	0.220
2020/01/31 22:18:48.6	96.150	-0.300	-0.940	0.200
2020/01/31 22:18:48.7	96.150	-0.260	-0.990	0.180
2020/01/31 22:18:48.8	96.150	-0.220	-1.030	0.160
2020/01/31 22:18:48.9	96.150	-0.180	-1.070	0.140
2020/01/31 22:18:49.0	96.150	-0.140	-1.100	0.120
2020/01/31 22:18:49.1	96.150	-0.090	-1.130	0.100
2020/01/31 22:18:49.2	96.160	-0.050	-1.160	0.080
2020/01/31 22:18:49.3	96.170	-0.010	-1.170	0.060
2020/01/31 22:18:49.4	96.170	0.030	-1.180	0.030
2020/01/31 22:18:49.5	96.180	0.070	-1.180	0.010
2020/01/31 22:18:49.6	96.180	0.110	-1.180	-0.010
2020/01/31 22:18:49.7	96.190	0.150	-1.170	-0.030
2020/01/31 22:18:49.8	96.200	0.190	-1.150	-0.050
2020/01/31 22:18:49.9	96.200	0.230	-1.120	-0.060
2020/01/31 22:18:50.0	96.210	0.260	-1.090	-0.080
2020/01/31 22:18:50.1	96.220	0.300	-1.040	-0.100
2020/01/31 22:18:50.2	96.220	0.330	-1.000	-0.110
2020/01/31 22:18:50.3	96.230	0.360	-0.940	-0.130
2020/01/31 22:18:50.4	96.230	0.390	-0.880	-0.140
2020/01/31 22:18:50.5	96.240	0.410	-0.810	-0.150
2020/01/31 22:18:50.6	96.240	0.440	-0.740	-0.160
2020/01/31 22:18:50.7	96.240	0.460	-0.660	-0.170
2020/01/31 22:18:50.8	96.240	0.470	-0.580	-0.180
2020/01/31 22:18:50.9	96.240	0.490	-0.490	-0.180
2020/01/31 22:18:51.0	96.240	0.500	-0.400	-0.190
2020/01/31 22:18:51.1	96.240	0.510	-0.310	-0.190
2020/01/31 22:18:51.2	96.230	0.520	-0.220	-0.190
2020/01/31 22:18:51.3	96.230	0.520	-0.130	-0.190
2020/01/31 22:18:51.4	96.230	0.530	-0.030	-0.190
2020/01/31 22:18:51.5	96.220	0.530	0.060	-0.190
2020/01/31 22:18:51.6	96.210	0.520	0.150	-0.190
2020/01/31 22:18:51.7	96.200	0.520	0.240	-0.180
2020/01/31 22:18:51.8	96.190	0.510	0.320	-0.180
2020/01/31 22:18:51.9	96.180	0.500	0.410	-0.170
2020/01/31 22:18:52.0	96.170	0.490	0.480	-0.160
2020/01/31 22:18:52.1	96.160	0.480	0.550	-0.160
2020/01/31 22:18:52.2	96.150	0.460	0.620	-0.150
2020/01/31 22:18:52.3	96.140	0.450	0.680	-0.140
2020/01/31 22:18:52.4	96.120	0.430	0.730	-0.130
2020/01/31 22:18:52.5	96.110	0.410	0.780	-0.120
2020/01/31 22:18:52.6	96.100	0.400	0.820	-0.110
2020/01/31 22:18:52.7	96.080	0.380	0.850	-0.100
2020/01/31 22:18:52.8	96.070	0.360	0.870	-0.090
2020/01/31 22:18:52.9	96.060	0.340	0.880	-0.080
2020/01/31 22:18:53.0	96.050	0.330	0.890	-0.080
2020/01/31 22:18:53.1	96.040	0.310	0.880	-0.070
2020/01/31 22:18:53.2	96.030	0.300	0.870	-0.070
2020/01/31 22:18:53.3	96.020	0.280	0.850	-0.060
2020/01/31 22:18:53.4	96.020	0.270	0.820	-0.060
2020/01/31 22:18:53.5	96.020	0.260	0.780	-0.060
2020/01/31 22:18:53.6	96.020	0.250	0.730	-0.060
2020/01/31 22:18:53.7	96.020	0.240	0.670	-0.070
2020/01/31 22:18:53.8	96.030	0.230	0.610	-0.070
2020/01/31 22:18:53.9	96.040	0.220	0.540	-0.070
2020/01/31 22:18:54.0	96.050	0.220	0.470	-0.070
2020/01/31 22:18:54.1	96.060	0.220	0.390	-0.080
2020/01/31 22:18:54.2	96.070	0.220	0.310	-0.080
2020/01/31 22:18:54.3	96.090	0.220	0.230	-0.080
2020/01/31 22:18:54.4	96.110	0.220	0.140	-0.080
2020/01/31 22:18:54.5	96.130	0.220	0.050	-0.080
2020/01/31 22:18:54.6	96.140	0.230	-0.040	-0.080
2020/01/31 22:18:54.7	96.160	0.230	-0.130	-0.070
2020/01/31 22:18:54.8	96.190	0.230	-0.210	-0.070
2020/01/31 22:18:54.9	96.210	0.240	-0.300	-0.050
2020/01/31 22:18:55.0	96.220	0.240	-0.380	-0.040
2020/01/31 22:18:55.1	96.240	0.250	-0.460	-0.020
2020/01/31 22:18:55.2	96.260	0.250	-0.530	-0.000
2020/01/31 22:18:55.3	96.280	0.260	-0.600	0.020
2020/01/31 22:18:55.4	96.290	0.260	-0.670	0.050
2020/01/31 22:18:55.5	96.300	0.260	-0.730	0.090
2020/01/31 22:18:55.6	96.310	0.250	-0.780	0.130
2020/01/31 22:18:55.7	96.320	0.250	-0.820	0.170
2020/01/31 22:18:55.8	96.330	0.240	-0.860	0.210
2020/01/31 22:18:55.9	96.330	0.240	-0.890	0.260
2020/01/31 22:18:56.0	96.330	0.220	-0.910	0.310
2020/01/31 22:18:56.1	96.330	0.210	-0.920	0.360
2020/01/31 22:18:56.2	96.330	0.190	-0.930	0.420
2020/01/31 22:18:56.3	96.320	0.170	-0.920	0.470
2020/01/31 22:18:56.4	96.310	0.150	-0.910	0.530
2020/01/31 22:18:56.5	96.300	0.130	-0.900	0.590
2020/01/31 22:18:56.6	96.290	0.100	-0.870	0.650
2020/01/31 22:18:56.7	96.280	0.070	-0.840	0.710
2020/01/31 22:18:56.8	96.260	0.040	-0.800	0.770
2020/01/31 22:18:56.9	96.240	0.000	-0.760	0.830
2020/01/31 22:18:57.0	96.220	-0.030	-0.700	0.890
2020/01/31 22:18:57.1	96.200	-0.070	-0.650	0.950
2020/01/31 22:18:57.2	96.180	-0.110	-0.590	1.010
2020/01/31 22:18:57.3	96.150	-0.150	-0.530	1.070
2020/01/31 22:18:57.4	96.130	-0.200	-0.460	1.120
2020/01/31 22:18:57.5	96.100	-0.240	-0.400	1.180
2020/01/31 22:18:57.6	96.070	-0.280	-0.330	1.240
2020/01/31 22:18:57.7	96.040	-0.330	-0.260	1.290
2020/01/31 22:18:57.8	96.010	-0.370	-0.200	1.340
2020/01/31 22:18:57.9	95.980	-0.410	-0.130	1.390
2020/01/31 22:18:58.0	95.950	-0.450	-0.070	1.440
2020/01/31 22:18:58.1	95.920	-0.490	-0.010	1.480
2020/01/31 22:18:58.2	95.890	-0.530	0.050	1.530
2020/01/31 22:18:58.3	95.860	-0.560	0.110	1.560
2020/01/31 22:18:58.4	95.830	-0.590	0.160	1.590
2020/01/31 22:18:58.5	95.800	-0.620	0.210	1.620
2020/01/31 22:18:58.6	95.780	-0.640	0.250	1.650
2020/01/31 22:18:58.7	95.750	-0.660	0.290	1.670
2020/01/31 22:18:58.8	95.730	-0.680	0.320	1.680
2020/01/31 22:18:58.9	95.710	-0.700	0.350	1.690
2020/01/31 22:18:59.0	95.680	-0.700	0.370	1.690
2020/01/31 22:18:59.1	95.670	-0.710	0.380	1.690
2020/01/31 22:18:59.2	95.650	-0.710	0.390	1.690
2020/01/31 22:18:59.3	95.640	-0.700	0.380	1.680
2020/01/31 22:18:59.4	95.630	-0.690	0.380	1.670
2020/01/31 22:18:59.5	95.620	-0.680	0.360	1.650
2020/01/31 22:18:59.6	95.610	-0.660	0.340	1.630
2020/01/31 22:18:59.7	95.600	-0.640	0.310	1.600
2020/01/31 22:18:59.8	95.600	-0.610	0.280	1.580
2020/01/31 22:18:59.9	95.590	-0.580	0.240	1.550
2020/01/31 22:19:00.0	95.590	-0.540	0.200	1.510
2020/01/31 22:19:00.1	95.590	-0.500	0.150	1.470
2020/01/31 22:19:00.2	95.590	-0.460	0.110	1.440
2020/01/31 22:19:00.3	95.590	-0.420	0.050	1.400
2020/01/31 22:19:00.4	95.600	-0.370	-0.000	1.360
2020/01/31 22:19:00.5	95.610	-0.330	-0.060	1.310
2020/01/31 22:19:00.6	95.610	-0.280	-0.120	1.270
2020/01/31 22:19:00.7	95.620	-0.230	-0.180	1.220
2020/01/31 22:19:00.8	95.630	-0.180	-0.230	1.180
2020/01/31 22:19:00.9	95.650	-0.130	-0.290	1.130
2020/01/31 22:19:01.0	95.660	-0.070	-0.340	1.090
2020/01/31 22:19:01.1	95.670	-0.030	-0.400	1.040
2020/01/31 22:19:01.2	95.680	0.020	-0.440	0.990
2020/01/31 22:19:01.3	95.700	0.070	-0.490	0.940
2020/01/31 22:19:01.4	95.710	0.120	-0.540	0.890
2020/01/31 22:19:01.5	95.720	0.160	-0.570	0.830
2020/01/31 22:19:01.6	95.740	0.200	-0.610	0.780
2020/01/31 22:19:01.7	95.750	0.240	-0.640	0.730
2020/01/31 22:19:01.8	95.760	0.270	-0.670	0.680
2020/01/31 22:19:01.9	95.770	0.300	-0.690	0.620
2020/01/31 22:19:02.0	95.780	0.330	-0.710	0.560
2020/01/31 22:19:02.1	95.790	0.360	-0.720	0.510
2020/01/31 22:19:02.2	95.800	0.380	-0.730	0.450
2020/01/31 22:19:02.3	95.810	0.400	-0.730	0.390
2020/01/31 22:19:02.4	95.820	0.410	-0.730	0.330
2020/01/31 22:19:02.5	95.820	0.420	-0.720	0.270
2020/01/31 22:19:02.6	95.830	0.430	-0.710	0.210
2020/01/31 22:19:02.7	95.830	0.440	-0.690	0.150
2020/01/31 22:19:02.8	95.830	0.440	-0.670	0.090
2020/01/31 22:19:02.9	95.830	0.430	-0.650	0.030
2020/01/31 22:19:03.0	95.840	0.430	-0.620	-0.030
2020/01/31 22:19:03.1	95.840	0.420	-0.580	-0.090
2020/01/31 22:19:03.2	95.830	0.410	-0.550	-0.140
2020/01/31 22:19:03.3	95.830	0.390	-0.510	-0.200
2020/01/31 22:19:03.4	95.830	0.380	-0.470	-0.260
2020/01/31 22:19:03.5	95.820	0.360	-0.420	-0.320
2020/01/31 22:19:03.6	95.820	0.330	-0.380	-0.370
2020/01/31 22:19:03.7	95.810	0.310	-0.330	-0.420
2020/01/31 22:19:03.8	95.810	0.290	-0.280	-0.470
2020/01/31 22:19:03.9	95.800	0.260	-0.230	-0.510
2020/01/31 22:19:04.0	95.790	0.230	-0.170	-0.560
2020/01/31 22:19:04.1	95.780	0.200	-0.120	-0.600
2020/01/31 22:19:04.2	95.770	0.170	-0.070	-0.630
2020/01/31 22:19:04.3	95.760	0.140	-0.020	-0.660
2020/01/31 22:19:04.4	95.740	0.110	0.040	-0.690
2020/01/31 22:19:04.5	95.730	0.080	0.090	-0.710
2020/01/31 22:19:04.6	95.720	0.040	0.140	-0.730
2020/01/31 22:19:04.7	95.700	0.010	0.180	-0.750
2020/01/31 22:19:04.8	95.680	-0.020	0.230	-0.760
2020/01/31 22:19:04.9	95.670	-0.050	0.270	-0.760
2020/01/31 22:19:05.0	95.640	-0.080	0.310	-0.760
2020/01/31 22:19:05.1	95.630	-0.110	0.350	-0.760
2020/01/31 22:19:05.2	95.610	-0.140	0.380	-0.750
2020/01/31 22:19:05.3	95.590	-0.160	0.410	-0.740
2020/01/31 22:19:05.4	95.570	-0.190	0.440	-0.730
2020/01/31 22:19:05.5	95.550	-0.210	0.460	-0.720
2020/01/31 22:19:05.6	95.530	-0.240	0.480	-0.700
2020/01/31 22:19:05.7	95.510	-0.260	0.490	-0.680
2020/01/31 22:19:05.8	95.490	-0.280	0.500	-0.660
2020/01/31 22:19:05.9	95.470	-0.300	0.500	-0.640
2020/01/31 22:19:06.0	95.460	-0.310	0.500	-0.620
2020/01/31 22:19:06.1	95.440	-0.330	0.490	-0.590
2020/01/31 22:19:06.2	95.430	-0.340	0.480	-0.570
2020/01/31 22:19:06.3	95.420	-0.350	0.460	-0.540
2020/01/31 22:19:06.4	95.410	-0.360	0.440	-0.520
2020/01/31 22:19:06.5	95.400	-0.360	0.410	-0.490
2020/01/31 22:19:06.6	95.390	-0.370	0.380	-0.470
2020/01/31 22:19:06.7	95.390	-0.370	0.340	-0.450
2020/01/31 22:19:06.8	95.390	-0.370	0.300	-0.420
2020/01/31 22:19:06.9	95.390	-0.370	0.250	-0.400
2020/01/31 22:19:07.0	95.390	-0.360	0.200	-0.380
2020/01/31 22:19:07.1	95.390	-0.350	0.150	-0.350
2020/01/31 22:19:07.2	95.400	-0.350	0.090	-0.330
2020/01/31 22:19:07.3	95.410	-0.330	0.030	-0.300
2020/01/31 22:19:07.4	95.420	-0.320	-0.030	-0.280
2020/01/31 22:19:07.5	95.430	-0.310	-0.090	-0.250
2020/01/31 22:19:07.6	95.440	-0.290	-0.150	-0.220
2020/01/31 22:19:07.7	95.450	-0.270	-0.220	-0.190
2020/01/31 22:19:07.8	95.470	-0.250	-0.280	-0.160
2020/01/31 22:19:07.9	95.480	-0.230	-0.350	-0.130
2020/01/31 22:19:08.0	95.490	-0.200	-0.410	-0.090
2020/01/31 22:19:08.1	95.500	-0.180	-0.470	-0.050
2020/01/31 22:19:08.2	95.510	-0.150	-0.530	-0.010
2020/01/31 22:19:08.3	95.520	-0.120	-0.590	0.030
2020/01/31 22:19:08.4	95.530	-0.090	-0.640	0.070
2020/01/31 22:19:08.5	95.540	-0.060	-0.690	0.120
2020/01/31 22:19:08.6	95.540	-0.030	-0.740	0.160
2020/01/31 22:19:08.7	95.550	-0.000	-0.780	0.210
2020/01/31 22:19:08.8	95.550	0.030	-0.820	0.270
2020/01/31 22:19:08.9	95.550	0.060	-0.850	0.320
2020/01/31 22:19:09.0	95.550	0.090	-0.870	0.380
2020/01/31 22:19:09.1	95.540	0.120	-0.900	0.440
2020/01/31 22:19:09.2	95.540	0.150	-0.910	0.500
2020/01/31 22:19:09.3	95.530	0.180	-0.920	0.560
2020/01/31 22:19:09.4	95.520	0.210	-0.930	0.620
2020/01/31 22:19:09.5	95.510	0.230	-0.930	0.680
2020/01/31 22:19:09.6	95.500	0.260	-0.930	0.740
2020/01/31 22:19:09.7	95.480	0.280	-0.920	0.800
2020/01/31 22:19:09.8	95.470	0.310	-0.900	0.860
2020/01/31 22:19:09.9	95.450	0.330	-0.880	0.920
2020/01/31 22:19:10.0	95.430	0.350	-0.870	0.980
2020/01/31 22:19:10.1	95.420	0.360	-0.840	1.040
2020/01/31 22:19:10.2	95.400	0.380	-0.810	1.090
2020/01/31 22:19:10.3	95.380	0.390	-0.780	1.150
2020/01/31 22:19:10.4	95.360	0.410	-0.740	1.200
2020/01/31 22:19:10.5	95.350	0.420	-0.700	1.260
2020/01/31 22:19:10.6	95.330	0.420	-0.660	1.310
2020/01/31 22:19:10.7	95.310	0.430	-0.620	1.360
2020/01/31 22:19:10.8	95.300	0.440	-0.580	1.400
2020/01/31 22:19:10.9	95.280	0.440	-0.530	1.440
2020/01/31 22:19:11.0	95.270	0.440	-0.480	1.490
2020/01/31 22:19:11.1	95.250	0.440	-0.440	1.530
2020/01/31 22:19:11.2	95.240	0.430	-0.390	1.560
2020/01/31 22:19:11.3	95.230	0.430	-0.350	1.590
2020/01/31 22:19:11.4	95.230	0.420	-0.300	1.620
2020/01/31 22:19:11.5	95.220	0.410	-0.250	1.650
2020/01/31 22:19:11.6	95.220	0.400	-0.210	1.670
2020/01/31 22:19:11.7	95.220	0.390	-0.160	1.690
2020/01/31 22:19:11.8	95.220	0.370	-0.120	1.700
2020/01/31 22:19:11.9	95.220	0.360	-0.070	1.720
2020/01/31 22:19:12.0	95.210	0.340	-0.030	1.720
2020/01/31 22:19:12.1	95.220	0.330	0.010	1.730
2020/01/31 22:19:12.2	95.220	0.310	0.050	1.730
2020/01/31 22:19:12.3	95.230	0.290	0.090	1.730
2020/01/31 22:19:12.4	95.240	0.270	0.130	1.720
2020/01/31 22:19:12.5	95.250	0.250	0.160	1.710
2020/01/31 22:19:12.6	95.260	0.230	0.200	1.700
2020/01/31 22:19:12.7	95.270	0.210	0.230	1.680
2020/01/31 22:19:12.8	95.280	0.180	0.260	1.660
2020/01/31 22:19:12.9	95.290	0.160	0.290	1.640
2020/01/31 22:19:13.0	95.300	0.140	0.320	1.610
2020/01/31 22:19:13.1	95.320	0.120	0.350	1.580
2020/01/31 22:19:13.2	95.330	0.100	0.380	1.540
2020/01/31 22:19:13.3	95.340	0.080	0.400	1.510
2020/01/31 22:19:13.4	95.360	0.050	0.420	1.470
2020/01/31 22:19:13.5	95.370	0.030	0.440	1.420
2020/01/31 22:19:13.6	95.380	0.020	0.460	1.380
2020/01/31 22:19:13.7	95.400	-0.000	0.470	1.330
2020/01/31 22:19:13.8	95.410	-0.020	0.480	1.270
2020/01/31 22:19:13.9	95.430	-0.040	0.490	1.220
2020/01/31 22:19:14.0	95.440	-0.050	0.500	1.160
2020/01/31 22:19:14.1	95.460	-0.070	0.500	1.110
2020/01/31 22:19:14.2	95.480	-0.080	0.500	1.050
2020/01/31 22:19:14.3	95.490	-0.090	0.500	0.990
2020/01/31 22:19:14.4	95.510	-0.100	0.500	0.930
2020/01/31 22:19:14.5	95.530	-0.110	0.490	0.870
2020/01/31 22:19:14.6	95.550	-0.110	0.480	0.800
2020/01/31 22:19:14.7	95.560	-0.120	0.470	0.740
2020/01/31 22:19:14.8	95.580	-0.120	0.450	0.680
2020/01/31 22:19:14.9	95.600	-0.130	0.430	0.620
2020/01/31 22:19:15.0	95.620	-0.130	0.410	0.560
2020/01/31 22:19:15.1	95.630	-0.130	0.390	0.490
2020/01/31 22:19:15.2	95.650	-0.130	0.360	0.430
2020/01/31 22:19:15.3	95.670	-0.130	0.330	0.370
2020/01/31 22:19:15.4	95.680	-0.130	0.300	0.310
2020/01/31 22:19:15.5	95.700	-0.130	0.260	0.250
2020/01/31 22:19:15.6	95.710	-0.130	0.230	0.190
2020/01/31 22:19:15.7	95.720	-0.120	0.190	0.140
2020/01/31 22:19:15.8	95.730	-0.120	0.150	0.080
2020/01/31 22:19:15.9	95.750	-0.120	0.110	0.030
2020/01/31 22:19:16.0	95.760	-0.120	0.060	-0.030
2020/01/31 22:19:16.1	95.770	-0.110	0.010	-0.080
2020/01/31 22:19:16.2	95.780	-0.110	-0.030	-0.120
2020/01/31 22:19:16.3	95.780	-0.110	-0.070	-0.170
2020/01/31 22:19:16.4	95.790	-0.110	-0.120	-0.210
2020/01/31 22:19:16.5	95.800	-0.110	-0.160	-0.250
2020/01/31 22:19:16.6	95.800	-0.110	-0.210	-0.290
2020/01/31 22:19:16.7	95.800	-0.110	-0.250	-0.330
2020/01/31 22:19:16.8	95.800	-0.110	-0.300	-0.360
2020/01/31 22:19:16.9	95.800	-0.110	-0.340	-0.390
2020/01/31 22:19:17.0	95.810	-0.120	-0.380	-0.410
2020/01/31 22:19:17.1	95.810	-0.120	-0.420	-0.430
2020/01/31 22:19:17.2	95.800	-0.130	-0.460	-0.450
2020/01/31 22:19:17.3	95.800	-0.130	-0.490	-0.470
2020/01/31 22:19:17.4	95.790	-0.140	-0.530	-0.480
2020/01/31 22:19:17.5	95.780	-0.150	-0.560	-0.480
2020/01/31 22:19:17.6	95.770	-0.160	-0.590	-0.480
2020/01/31 22:19:17.7	95.760	-0.170	-0.620	-0.480
2020/01/31 22:19:17.8	95.750	-0.180	-0.640	-0.480
2020/01/31 22:19:17.9	95.730	-0.180	-0.660	-0.470
2020/01/31 22:19:18.0	95.720	-0.190	-0.680	-0.450
2020/01/31 22:19:18.1	95.700	-0.200	-0.700	-0.430
2020/01/31 22:19:18.2	95.680	-0.210	-0.710	-0.410
2020/01/31 22:19:18.3	95.670	-0.220	-0.720	-0.390
2020/01/31 22:19:18.4	95.650	-0.230	-0.730	-0.360
2020/01/31 22:19:18.5	95.640	-0.240	-0.740	-0.330
2020/01/31 22:19:18.6	95.620	-0.240	-0.750	-0.300
2020/01/31 22:19:18.7	95.600	-0.250	-0.750	-0.260
2020/01/31 22:19:18.8	95.590	-0.260	-0.750	-0.220
2020/01/31 22:19:18.9	95.580	-0.260	-0.750	-0.190
2020/01/31 22:19:19.0	95.560	-0.260	-0.750	-0.150
2020/01/31 22:19:19.1	95.550	-0.260	-0.740	-0.110
2020/01/31 22:19:19.2	95.550	-0.260	-0.740	-0.060
2020/01/31 22:19:19.3	95.540	-0.260	-0.730	-0.020
2020/01/31 22:19:19.4	95.540	-0.260	-0.730	0.020
2020/01/31 22:19:19.5	95.530	-0.260	-0.720	0.060
2020/01/31 22:19:19.6	95.530	-0.250	-0.710	0.100
2020/01/31 22:19:19.7	95.540	-0.240	-0.700	0.140
2020/01/31 22:19:19.8	95.540	-0.230	-0.690	0.180
2020/01/31 22:19:19.9	95.540	-0.220	-0.680	0.210
2020/01/31 22:19:20.0	95.550	-0.210	-0.660	0.250
2020/01/31 22:19:20.1	95.560	-0.200	-0.650	0.290
2020/01/31 22:19:20.2	95.570	-0.180	-0.630	0.320
2020/01/31 22:19:20.3	95.590	-0.160	-0.610	0.350
2020/01/31 22:19:20.4	95.600	-0.150	-0.600	0.380
2020/01/31 22:19:20.5	95.620	-0.130	-0.580	0.410
2020/01/31 22:19:20.6	95.630	-0.110	-0.560	0.440
2020/01/31 22:19:20.7	95.650	-0.090	-0.530	0.470
2020/01/31 22:19:20.8	95.670	-0.070	-0.510	0.490
2020/01/31 22:19:20.9	95.690	-0.050	-0.480	0.510
2020/01/31 22:19:21.0	95.710	-0.030	-0.460	0.530
2020/01/31 22:19:21.1	95.740	-0.010	-0.430	0.550
2020/01/31 22:19:21.2	95.760	0.010	-0.390	0.570
2020/01/31 22:19:21.3	95.780	0.030	-0.360	0.580
2020/01/31 22:19:21.4	95.800	0.050	-0.320	0.600
2020/01/31 22:19:21.5	95.820	0.070	-0.280	0.610
2020/01/31 22:19:21.6	95.840	0.080	-0.240	0.620
2020/01/31 22:19:21.7	95.860	0.100	-0.200	0.620
2020/01/31 22:19:21.8	95.880	0.110	-0.160	0.630
2020/01/31 22:19:21.9	95.900	0.120	-0.110	0.630
2020/01/31 22:19:22.0	95.920	0.130	-0.060	0.640
2020/01/31 22:19:22.1	95.930	0.140	-0.010	0.640
2020/01/31 22:19:22.2	95.950	0.150	0.030	0.640
2020/01/31 22:19:22.3	95.960	0.150	0.080	0.630
2020/01/31 22:19:22.4	95.970	0.160	0.130	0.630
2020/01/31 22:19:22.5	95.980	0.160	0.180	0.620
2020/01/31 22:19:22.6	95.990	0.160	0.230	0.620
2020/01/31 22:19:22.7	96.000	0.160	0.270	0.610
2020/01/31 22:19:22.8	96.000	0.160	0.320	0.610
2020/01/31 22:19:22.9	96.010	0.150	0.360	0.600
2020/01/31 22:19:23.0	96.020	0.150	0.400	0.590
2020/01/31 22:19:23.1	96.010	0.140	0.440	0.590
2020/01/31 22:19:23.2	96.010	0.140	0.470	0.580
2020/01/31 22:19:23.3	96.010	0.130	0.500	0.570
2020/01/31 22:19:23.4	96.000	0.130	0.530	0.560
2020/01/31 22:19:23.5	96.000	0.120	0.550	0.560
2020/01/31 22:19:23.6	95.990	0.110	0.560	0.550
2020/01/31 22:19:23.7	95.980	0.110	0.570	0.550
2020/01/31 22:19:23.8	95.970	0.100	0.580	0.540
2020/01/31 22:19:23.9	95.960	0.100	0.580	0.540
2020/01/31 22:19:24.0	95.950	0.090	0.570	0.530
2020/01/31 22:19:24.1	95.940	0.090	0.560	0.520
2020/01/31 22:19:24.2	95.930	0.090	0.540	0.520
2020/01/31 22:19:24.3	95.920	0.090	0.510	0.510
2020/01/31 22:19:24.4	95.910	0.090	0.480	0.510
2020/01/31 22:19:24.5	95.900	0.090	0.440	0.500
2020/01/31 22:19:24.6	95.890	0.100	0.400	0.500
2020/01/31 22:19:24.7	95.890	0.100	0.350	0.490
2020/01/31 22:19:24.8	95.880	0.110	0.300	0.490
2020/01/31 22:19:24.9	95.880	0.110	0.240	0.480
2020/01/31 22:19:25.0	95.870	0.120	0.180	0.470
2020/01/31 22:19:25.1	95.870	0.130	0.110	0.470
2020/01/31 22:19:25.2	95.870	0.140	0.050	0.460
2020/01/31 22:19:25.3	95.880	0.150	-0.020	0.450
2020/01/31 22:19:25.4	95.880	0.160	-0.090	0.450
2020/01/31 22:19:25.5	95.890	0.170	-0.170	0.440
2020/01/31 22:19:25.6	95.890	0.170	-0.240	0.440
2020/01/31 22:19:25.7	95.900	0.180	-0.310	0.430
2020/01/31 22:19:25.8	95.920	0.190	-0.380	0.420
2020/01/31 22:19:25.9	95.930	0.200	-0.440	0.420
2020/01/31 22:19:26.0	95.950	0.210	-0.510	0.420
2020/01/31 22:19:26.1	95.960	0.220	-0.570	0.410
2020/01/31 22:19:26.2	95.980	0.220	-0.620	0.410
2020/01/31 22:19:26.3	96.000	0.230	-0.670	0.400
2020/01/31 22:19:26.4	96.020	0.230	-0.720	0.400
2020/01/31 22:19:26.5	96.030	0.230	-0.760	0.390
2020/01/31 22:19:26.6	96.050	0.230	-0.790	0.390
2020/01/31 22:19:26.7	96.070	0.230	-0.820	0.380
2020/01/31 22:19:26.8	96.090	0.230	-0.840	0.380
2020/01/31 22:19:26.9	96.110	0.230	-0.850	0.380
2020/01/31 22:19:27.0	96.130	0.220	-0.860	0.370
2020/01/31 22:19:27.1	96.150	0.220	-0.860	0.370
2020/01/31 22:19:27.2	96.160	0.210	-0.850	0.370
2020/01/31 22:19:27.3	96.180	0.200	-0.830	0.370
2020/01/31 22:19:27.4	96.190	0.190	-0.810	0.370
2020/01/31 22:19:27.5	96.200	0.170	-0.780	0.370
2020/01/31 22:19:27.6	96.210	0.160	-0.740	0.380
2020/01/31 22:19:27.7	96.220	0.140	-0.700	0.380
2020/01/31 22:19:27.8	96.220	0.130	-0.650	0.390
2020/01/31 22:19:27.9	96.230	0.110	-0.600	0.400
2020/01/31 22:19:28.0	96.240	0.090	-0.540	0.410
2020/01/31 22:19:28.1	96.230	0.070	-0.480	0.420
2020/01/31 22:19:28.2	96.230	0.050	-0.420	0.430
2020/01/31 22:19:28.3	96.230	0.030	-0.350	0.450
2020/01/31 22:19:28.4	96.230	0.010	-0.280	0.460
2020/01/31 22:19:28.5	96.220	-0.010	-0.220	0.480
2020/01/31 22:19:28.6	96.210	-0.030	-0.150	0.490
2020/01/31 22:19:28.7	96.210	-0.060	-0.080	0.510
2020/01/31 22:19:28.8	96.200	-0.080	-0.020	0.530
2020/01/31 22:19:28.9	96.190	-0.090	0.050	0.550
2020/01/31 22:19:29.0	96.180	-0.110	0.100	0.560
2020/01/31 22:19:29.1	96.170	-0.130	0.160	0.580
2020/01/31 22:19:29.2	96.160	-0.140	0.210	0.590
2020/01/31 22:19:29.3	96.150	-0.160	0.260	0.610
2020/01/31 22:19:29.4	96.140	-0.170	0.300	0.620
2020/01/31 22:19:29.5	96.140	-0.180	0.340	0.630
2020/01/31 22:19:29.6	96.130	-0.190	0.370	0.640
2020/01/31 22:19:29.7	96.130	-0.190	0.390	0.640
2020/01/31 22:19:29.8	96.120	-0.200	0.410	0.650
2020/01/31 22:19:29.9	96.120	-0.200	0.420	0.650
2020/01/31 22:19:30.0	96.110	-0.200	0.420	0.650
2020/01/31 22:19:30.1	96.110	-0.190	0.420	0.640
2020/01/31 22:19:30.2	96.110	-0.190	0.410	0.640
2020/01/31 22:19:30.3	96.120	-0.180	0.390	0.630
2020/01/31 22:19:30.4	96.120	-0.170	0.370	0.610
2020/01/31 22:19:30.5	96.130	-0.160	0.340	0.600
2020/01/31 22:19:30.6	96.130	-0.140	0.310	0.580
2020/01/31 22:19:30.7	96.140	-0.130	0.270	0.560
2020/01/31 22:19:30.8	96.150	-0.110	0.230	0.550
2020/01/31 22:19:30.9	96.160	-0.090	0.190	0.530
2020/01/31 22:19:31.0	96.170	-0.070	0.140	0.500
2020/01/31 22:19:31.1	96.180	-0.050	0.090	0.480
2020/01/31 22:19:31.2	96.190	-0.030	0.040	0.460
2020/01/31 22:19:31.3	96.190	-0.010	-0.010	0.440
2020/01/31 22:19:31.4	96.200	0.010	-0.060	0.420
2020/01/31 22:19:31.5	96.210	0.030	-0.110	0.410
2020/01/31 22:19:31.6	96.220	0.050	-0.160	0.390
2020/01/31 22:19:31.7	96.220	0.070	-0.210	0.370
2020/01/31 22:19:31.8	96.230	0.090	-0.260	0.360
2020/01/31 22:19:31.9	96.230	0.110	-0.310	0.350
2020/01/31 22:19:32.0	96.240	0.120	-0.360	0.340
2020/01/31 22:19:32.1	96.250	0.140	-0.400	0.340
2020/01/31 22:19:32.2	96.250	0.150	-0.440	0.330
2020/01/31 22:19:32.3	96.250	0.160	-0.480	0.330
2020/01/31 22:19:32.4	96.250	0.170	-0.510	0.320
2020/01/31 22:19:32.5	96.250	0.180	-0.540	0.330
2020/01/31 22:19:32.6	96.250	0.180	-0.570	0.330
2020/01/31 22:19:32.7	96.250	0.180	-0.600	0.330
2020/01/31 22:19:32.8	96.250	0.180	-0.620	0.340
2020/01/31 22:19:32.9	96.240	0.180	-0.640	0.350
2020/01/31 22:19:33.0	96.240	0.170	-0.650	0.350
2020/01/31 22:19:33.1	96.240	0.170	-0.660	0.360
2020/01/31 22:19:33.2	96.240	0.160	-0.670	0.370
2020/01/31 22:19:33.3	96.240	0.150	-0.670	0.390
2020/01/31 22:19:33.4	96.240	0.130	-0.670	0.400
2020/01/31 22:19:33.5	96.240	0.120	-0.670	0.410
2020/01/31 22:19:33.6	96.240	0.100	-0.660	0.420
2020/01/31 22:19:33.7	96.240	0.080	-0.650	0.430
2020/01/31 22:19:33.8	96.240	0.060	-0.640	0.440
2020/01/31 22:19:33.9	96.240	0.040	-0.620	0.450
2020/01/31 22:19:34.0	96.240	0.020	-0.600	0.460
2020/01/31 22:19:34.1	96.240	0.000	-0.580	0.470
2020/01/31 22:19:34.2	96.240	-0.020	-0.550	0.480
2020/01/31 22:19:34.3	96.240	-0.040	-0.530	0.490
2020/01/31 22:19:34.4	96.240	-0.070	-0.500	0.500
2020/01/31 22:19:34.5	96.240	-0.090	-0.460	0.500
2020/01/31 22:19:34.6	96.240	-0.110	-0.430	0.510
2020/01/31 22:19:34.7	96.230	-0.140	-0.400	0.510
2020/01/31 22:19:34.8	96.230	-0.160	-0.360	0.520
2020/01/31 22:19:34.9	96.230	-0.180	-0.320	0.520
2020/01/31 22:19:35.0	96.230	-0.200	-0.280	0.530
2020/01/31 22:19:35.1	96.220	-0.220	-0.240	0.530
2020/01/31 22:19:35.2	96.220	-0.240	-0.200	0.540
2020/01/31 22:19:35.3	96.210	-0.260	-0.160	0.540
2020/01/31 22:19:35.4	96.200	-0.280	-0.120	0.550
2020/01/31 22:19:35.5	96.190	-0.290	-0.080	0.550
2020/01/31 22:19:35.6	96.180	-0.300	-0.050	0.560
2020/01/31 22:19:35.7	96.170	-0.320	-0.010	0.570
2020/01/31 22:19:35.8	96.160	-0.330	0.030	0.570
2020/01/31 22:19:35.9	96.150	-0.330	0.060	0.580
2020/01/31 22:19:36.0	96.140	-0.340	0.100	0.600
2020/01/31 22:19:36.1	96.120	-0.340	0.130	0.610
2020/01/31 22:19:36.2	96.110	-0.340	0.160	0.620
2020/01/31 22:19:36.3	96.090	-0.340	0.190	0.630
2020/01/31 22:19:36.4	96.070	-0.340	0.210	0.650
2020/01/31 22:19:36.5	96.050	-0.340	0.240	0.660
2020/01/31 22:19:36.6	96.030	-0.330	0.260	0.680
2020/01/31 22:19:36.7	96.010	-0.320	0.270	0.700
2020/01/31 22:19:36.8	95.990	-0.310	0.290	0.720
2020/01/31 22:19:36.9	95.960	-0.300	0.300	0.730
2020/01/31 22:19:37.0	95.940	-0.280	0.320	0.750
2020/01/31 22:19:37.1	95.920	-0.270	0.320	0.770
2020/01/31 22:19:37.2	95.890	-0.250	0.330	0.790
2020/01/31 22:19:37.3	95.870	-0.230	0.330	0.800
2020/01/31 22:19:37.4	95.850	-0.210	0.330	0.810
2020/01/31 22:19:37.5	95.830	-0.190	0.330	0.830
2020/01/31 22:19:37.6	95.810	-0.160	0.320	0.830
2020/01/31 22:19:37.7	95.790	-0.140	0.310	0.840
2020/01/31 22:19:37.8	95.770	-0.110	0.300	0.840
2020/01/31 22:19:37.9	95.760	-0.090	0.280	0.840
2020/01/31 22:19:38.0	95.740	-0.060	0.260	0.830
2020/01/31 22:19:38.1	95.730	-0.040	0.240	0.820
2020/01/31 22:19:38.2	95.730	-0.010	0.220	0.810
2020/01/31 22:19:38.3	95.720	0.020	0.190	0.790
2020/01/31 22:19:38.4	95.720	0.050	0.160	0.760
2020/01/31 22:19:38.5	95.720	0.080	0.130	0.730
2020/01/31 22:19:38.6	95.720	0.100	0.100	0.700
2020/01/31 22:19:38.7	95.720	0.130	0.070	0.670
2020/01/31 22:19:38.8	95.730	0.160	0.030	0.630
2020/01/31 22:19:38.9	95.740	0.180	-0.010	0.590
2020/01/31 22:19:39.0	95.750	0.210	-0.050	0.540
2020/01/31 22:19:39.1	95.760	0.240	-0.090	0.490
2020/01/31 22:19:39.2	95.770	0.260	-0.130	0.440
2020/01/31 22:19:39.3	95.780	0.280	-0.170	0.390
2020/01/31 22:19:39.4	95.790	0.310	-0.210	0.340
2020/01/31 22:19:39.5	95.810	0.330	-0.250	0.290
2020/01/31 22:19:39.6	95.820	0.350	-0.290	0.240
2020/01/31 22:19:39.7	95.830	0.360	-0.320	0.190
2020/01/31 22:19:39.8	95.840	0.380	-0.360	0.150
2020/01/31 22:19:39.9	95.860	0.400	-0.400	0.100
2020/01/31 22:19:40.0	95.870	0.410	-0.430	0.050
2020/01/31 22:19:40.1	95.880	0.420	-0.460	0.010
2020/01/31 22:19:40.2	95.890	0.430	-0.500	-0.030
2020/01/31 22:19:40.3	95.900	0.430	-0.520	-0.080
2020/01/31 22:19:40.4	95.910	0.440	-0.550	-0.110
2020/01/31 22:19:40.5	95.920	0.440	-0.580	-0.150
2020/01/31 22:19:40.6	95.920	0.440	-0.600	-0.190
2020/01/31 22:19:40.7	95.930	0.440	-0.620	-0.220
2020/01/31 22:19:40.8	95.940	0.430	-0.640	-0.250
2020/01/31 22:19:40.9	95.940	0.430	-0.650	-0.270
2020/01/31 22:19:41.0	95.940	0.420	-0.660	-0.300
2020/01/31 22:19:41.1	95.950	0.410	-0.670	-0.310
2020/01/31 22:19:41.2	95.950	0.400	-0.680	-0.330
2020/01/31 22:19:41.3	95.950	0.380	-0.690	-0.340
2020/01/31 22:19:41.4	95.960	0.370	-0.690	-0.350
2020/01/31 22:19:41.5	95.960	0.350	-0.700	-0.360
2020/01/31 22:19:41.6	95.960	0.330	-0.700	-0.360
2020/01/31 22:19:41.7	95.960	0.310	-0.700	-0.360
2020/01/31 22:19:41.8	95.970	0.290	-0.690	-0.350
2020/01/31 22:19:41.9	95.970	0.270	-0.690	-0.340
2020/01/31 22:19:42.0	95.970	0.250	-0.690	-0.320
2020/01/31 22:19:42.1	95.970	0.230	-0.680	-0.300
2020/01/31 22:19:42.2	95.980	0.200	-0.680	-0.280
2020/01/31 22:19:42.3	95.980	0.180	-0.670	-0.260
2020/01/31 22:19:42.4	95.980	0.150	-0.660	-0.230
2020/01/31 22:19:42.5	95.980	0.130	-0.650	-0.200
2020/01/31 22:19:42.6	95.990	0.100	-0.640	-0.160
2020/01/31 22:19:42.7	95.990	0.080	-0.620	-0.130
2020/01/31 22:19:42.8	95.990	0.050	-0.610	-0.090
2020/01/31 22:19:42.9	96.000	0.020	-0.590	-0.050
2020/01/31 22:19:43.0	96.000	-0.000	-0.570	-0.000
2020/01/31 22:19:43.1	96.000	-0.030	-0.550	0.050
2020/01/31 22:19:43.2	96.000	-0.060	-0.530	0.100
2020/01/31 22:19:43.3	96.000	-0.080	-0.500	0.150
2020/01/31 22:19:43.4	96.000	-0.110	-0.480	0.200
2020/01/31 22:19:43.5	96.000	-0.130	-0.450	0.260
2020/01/31 22:19:43.6	95.990	-0.160	-0.410	0.320
2020/01/31 22:19:43.7	95.990	-0.190	-0.380	0.380
2020/01/31 22:19:43.8	95.980	-0.210	-0.340	0.440
2020/01/31 22:19:43.9	95.970	-0.230	-0.300	0.500
2020/01/31 22:19:44.0	95.960	-0.260	-0.260	0.570
2020/01/31 22:19:44.1	95.950	-0.280	-0.210	0.640
2020/01/31 22:19:44.2	95.940	-0.300	-0.170	0.710
2020/01/31 22:19:44.3	95.920	-0.320	-0.120	0.780
2020/01/31 22:19:44.4	95.900	-0.340	-0.070	0.850
2020/01/31 22:19:44.5	95.880	-0.360	-0.020	0.920
2020/01/31 22:19:44.6	95.860	-0.370	0.030	0.990
2020/01/31 22:19:44.7	95.840	-0.390	0.080	1.070
2020/01/31 22:19:44.8	95.810	-0.400	0.130	1.140
2020/01/31 22:19:44.9	95.790	-0.410	0.180	1.220
2020/01/31 22:19:45.0	95.760	-0.420	0.240	1.290
2020/01/31 22:19:45.1	95.730	-0.430	0.290	1.360
2020/01/31 22:19:45.2	95.710	-0.440	0.330	1.440
2020/01/31 22:19:45.3	95.680	-0.440	0.380	1.510
2020/01/31 22:19:45.4	95.650	-0.450	0.420	1.570
2020/01/31 22:19:45.5	95.620	-0.450	0.460	1.640
2020/01/31 22:19:45.6	95.590	-0.450	0.500	1.710
2020/01/31 22:19:45.7	95.560	-0.450	0.540	1.770
2020/01/31 22:19:45.8	95.540	-0.440	0.570	1.830
2020/01/31 22:19:45.9	95.510	-0.430	0.590	1.880
2020/01/31 22:19:46.0	95.480	-0.430	0.610	1.940
2020/01/31 22:19:46.1	95.460	-0.410	0.630	1.990
2020/01/31 22:19:46.2	95.430	-0.400	0.650	2.030
2020/01/31 22:19:46.3	95.410	-0.390	0.660	2.070
2020/01/31 22:19:46.4	95.390	-0.370	0.660	2.110
2020/01/31 22:19:46.5	95.360	-0.360	0.670	2.140
2020/01/31 22:19:46.6	95.340	-0.340	0.660	2.160
2020/01/31 22:19:46.7	95.320	-0.320	0.660	2.190
2020/01/31 22:19:46.8	95.300	-0.300	0.650	2.200
2020/01/31 22:19:46.9	95.290	-0.280	0.630	2.210
2020/01/31 22:19:47.0	95.270	-0.250	0.620	2.220
2020/01/31 22:19:47.1	95.250	-0.230	0.600	2.220
2020/01/31 22:19:47.2	95.240	-0.210	0.570	2.210
2020/01/31 22:19:47.3	95.220	-0.180	0.540	2.200
2020/01/31 22:19:47.4	95.210	-0.160	0.510	2.180
2020/01/31 22:19:47.5	95.190	-0.130	0.470	2.150
2020/01/31 22:19:47.6	95.180	-0.100	0.440	2.120
2020/01/31 22:19:47.7	95.170	-0.080	0.390	2.080
2020/01/31 22:19:47.8	95.160	-0.050	0.350	2.030
2020/01/31 22:19:47.9	95.150	-0.030	0.310	1.980
2020/01/31 22:19:48.0	95.140	-0.000	0.250	1.920
2020/01/31 22:19:48.1	95.130	0.030	0.200	1.850
2020/01/31 22:19:48.2	95.120	0.050	0.150	1.780
2020/01/31 22:19:48.3	95.110	0.070	0.100	1.700
2020/01/31 22:19:48.4	95.110	0.100	0.050	1.620
2020/01/31 22:19:48.5	95.100	0.120	-0.010	1.530
2020/01/31 22:19:48.6	95.090	0.150	-0.070	1.440
2020/01/31 22:19:48.7	95.090	0.170	-0.120	1.340
2020/01/31 22:19:48.8	95.090	0.190	-0.180	1.240
2020/01/31 22:19:48.9	95.080	0.210	-0.230	1.130
2020/01/31 22:19:49.0	95.080	0.230	-0.290	1.020
2020/01/31 22:19:49.1	95.080	0.250	-0.350	0.910
2020/01/31 22:19:49.2	95.070	0.270	-0.400	0.800
2020/01/31 22:19:49.3	95.070	0.290	-0.460	0.680
2020/01/31 22:19:49.4	95.070	0.310	-0.510	0.570
2020/01/31 22:19:49.5	95.070	0.330	-0.560	0.460
2020/01/31 22:19:49.6	95.070	0.340	-0.610	0.340
2020/01/31 22:19:49.7	95.070	0.360	-0.660	0.230
2020/01/31 22:19:49.8	95.070	0.370	-0.710	0.120
2020/01/31 22:19:49.9	95.080	0.390	-0.760	0.010
2020/01/31 22:19:50.0	95.070	0.400	-0.800	-0.090
2020/01/31 22:19:50.1	95.080	0.420	-0.840	-0.200
2020/01/31 22:19:50.2	95.080	0.430	-0.880	-0.300
2020/01/31 22:19:50.3	95.090	0.440	-0.920	-0.400
2020/01/31 22:19:50.4	95.090	0.450	-0.950	-0.490
2020/01/31 22:19:50.5	95.100	0.450	-0.980	-0.580
2020/01/31 22:19:50.6	95.110	0.460	-1.010	-0.670
2020/01/31 22:19:50.7	95.110	0.470	-1.030	-0.740
2020/01/31 22:19:50.8	95.120	0.470	-1.050	-0.820
2020/01/31 22:19:50.9	95.130	0.470	-1.070	-0.890
2020/01/31 22:19:51.0	95.130	0.470	-1.080	-0.960
2020/01/31 22:19:51.1	95.140	0.470	-1.090	-1.010
2020/01/31 22:19:51.2	95.140	0.470	-1.100	-1.060
2020/01/31 22:19:51.3	95.140	0.460	-1.100	-1.110
2020/01/31 22:19:51.4	95.150	0.460	-1.100	-1.140
2020/01/31 22:19:51.5	95.150	0.450	-1.090	-1.170
2020/01/31 22:19:51.6	95.150	0.440	-1.080	-1.200
2020/01/31 22:19:51.7	95.140	0.420	-1.070	-1.210
2020/01/31 22:19:51.8	95.140	0.410	-1.050	-1.220
2020/01/31 22:19:51.9	95.130	0.390	-1.030	-1.220
2020/01/31 22:19:52.0	95.120	0.370	-1.000	-1.210
2020/01/31 22:19:52.1	95.110	0.350	-0.970	-1.200
2020/01/31 22:19:52.2	95.100	0.330	-0.940	-1.180
2020/01/31 22:19:52.3	95.080	0.300	-0.900	-1.160
2020/01/31 22:19:52.4	95.070	0.270	-0.860	-1.120
2020/01/31 22:19:52.5	95.050	0.240	-0.810	-1.080
2020/01/31 22:19:52.6	95.030	0.210	-0.760	-1.040
2020/01/31 22:19:52.7	95.010	0.180	-0.710	-0.990
2020/01/31 22:19:52.8	94.990	0.140	-0.650	-0.930
2020/01/31 22:19:52.9	94.960	0.100	-0.590	-0.870
2020/01/31 22:19:53.0	94.940	0.060	-0.540	-0.810
2020/01/31 22:19:53.1	94.910	0.020	-0.470	-0.740
2020/01/31 22:19:53.2	94.890	-0.020	-0.400	-0.670
2020/01/31 22:19:53.3	94.860	-0.060	-0.340	-0.590
2020/01/31 22:19:53.4	94.830	-0.100	-0.270	-0.520
2020/01/31 22:19:53.5	94.800	-0.140	-0.190	-0.440
2020/01/31 22:19:53.6	94.770	-0.190	-0.120	-0.350
2020/01/31 22:19:53.7	94.740	-0.230	-0.050	-0.270
2020/01/31 22:19:53.8	94.710	-0.270	0.020	-0.180
2020/01/31 22:19:53.9	94.680	-0.320	0.090	-0.100
2020/01/31 22:19:54.0	94.640	-0.360	0.160	-0.010
2020/01/31 22:19:54.1	94.610	-0.400	0.230	0.070
2020/01/31 22:19:54.2	94.580	-0.440	0.300	0.160
2020/01/31 22:19:54.3	94.540	-0.470	0.360	0.240
2020/01/31 22:19:54.4	94.500	-0.510	0.420	0.320
2020/01/31 22:19:54.5	94.470	-0.540	0.480	0.400
2020/01/31 22:19:54.6	94.430	-0.570	0.530	0.480
2020/01/31 22:19:54.7	94.390	-0.600	0.580	0.550
2020/01/31 22:19:54.8	94.360	-0.620	0.620	0.630
2020/01/31 22:19:54.9	94.320	-0.640	0.660	0.690
2020/01/31 22:19:55.0	94.290	-0.660	0.700	0.760
2020/01/31 22:19:55.1	94.250	-0.670	0.730	0.820
2020/01/31 22:19:55.2	94.220	-0.680	0.750	0.880
2020/01/31 22:19:55.3	94.180	-0.680	0.770	0.930
2020/01/31 22:19:55.4	94.150	-0.680	0.780	0.980
2020/01/31 22:19:55.5	94.110	-0.680	0.780	1.030
2020/01/31 22:19:55.6	94.080	-0.670	0.780	1.070
2020/01/31 22:19:55.7	94.050	-0.660	0.780	1.110
2020/01/31 22:19:55.8	94.020	-0.640	0.760	1.140
2020/01/31 22:19:55.9	94.000	-0.620	0.740	1.170
2020/01/31 22:19:56.0	93.960	-0.590	0.720	1.190
2020/01/31 22:19:56.1	93.940	-0.560	0.690	1.210
2020/01/31 22:19:56.2	93.920	-0.530	0.660	1.230
2020/01/31 22:19:56.3	93.900	-0.490	0.620	1.240
2020/01/31 22:19:56.4	93.880	-0.450	0.570	1.250
2020/01/31 22:19:56.5	93.860	-0.400	0.520	1.250
2020/01/31 22:19:56.6	93.850	-0.350	0.470	1.250
2020/01/31 22:19:56.7	93.830	-0.310	0.410	1.250
2020/01/31 22:19:56.8	93.820	-0.250	0.350	1.240
2020/01/31 22:19:56.9	93.810	-0.200	0.290	1.230
2020/01/31 22:19:57.0	93.800	-0.150	0.230	1.210
2020/01/31 22:19:57.1	93.800	-0.090	0.160	1.200
2020/01/31 22:19:57.2	93.800	-0.040	0.100	1.170
2020/01/31 22:19:57.3	93.790	0.020	0.030	1.150
2020/01/31 22:19:57.4	93.800	0.070	-0.030	1.120
2020/01/31 22:19:57.5	93.800	0.120	-0.100	1.080
2020/01/31 22:19:57.6	93.800	0.170	-0.160	1.050
2020/01/31 22:19:57.7	93.810	0.220	-0.220	1.000
2020/01/31 22:19:57.8	93.820	0.270	-0.280	0.960
2020/01/31 22:19:57.9	93.830	0.320	-0.330	0.910
2020/01/31 22:19:58.0	93.840	0.360	-0.380	0.860
2020/01/31 22:19:58.1	93.860	0.400	-0.430	0.810
2020/01/31 22:19:58.2	93.870	0.440	-0.480	0.750
2020/01/31 22:19:58.3	93.890	0.470	-0.520	0.700
2020/01/31 22:19:58.4	93.900	0.500	-0.560	0.640
2020/01/31 22:19:58.5	93.920	0.520	-0.590	0.580
2020/01/31 22:19:58.6	93.940	0.550	-0.620	0.510
2020/01/31 22:19:58.7	93.960	0.560	-0.650	0.450
2020/01/31 22:19:58.8	93.980	0.580	-0.670	0.390
2020/01/31 22:19:58.9	94.000	0.590	-0.690	0.320
2020/01/31 22:19:59.0	94.020	0.600	-0.710	0.260
2020/01/31 22:19:59.1	94.040	0.600	-0.720	0.200
2020/01/31 22:19:59.2	94.060	0.600	-0.730	0.130
2020/01/31 22:19:59.3	94.080	0.590	-0.730	0.070
2020/01/31 22:19:59.4	94.100	0.580	-0.730	0.020
2020/01/31 22:19:59.5	94.120	0.570	-0.720	-0.040
2020/01/31 22:19:59.6	94.140	0.560	-0.720	-0.090
2020/01/31 22:19:59.7	94.160	0.540	-0.700	-0.140
2020/01/31 22:19:59.8	94.180	0.520	-0.690	-0.190
2020/01/31 22:19:59.9	94.200	0.500	-0.670	-0.230
2020/01/31 22:20:00.0	94.210	0.470	-0.650	-0.270
2020/01/31 22:20:00.1	94.230	0.440	-0.620	-0.310
2020/01/31 22:20:00.2	94.240	0.420	-0.600	-0.340
2020/01/31 22:20:00.3	94.260	0.380	-0.570	-0.360
2020/01/31 22:20:00.4	94.270	0.350	-0.530	-0.380
2020/01/31 22:20:00.5	94.280	0.320	-0.500	-0.390
2020/01/31 22:20:00.6	94.290	0.280	-0.460	-0.400
2020/01/31 22:20:00.7	94.300	0.240	-0.430	-0.400
2020/01/31 22:20:00.8	94.300	0.210	-0.390	-0.390
2020/01/31 22:20:00.9	94.310	0.170	-0.350	-0.380
2020/01/31 22:20:01.0	94.310	0.130	-0.310	-0.370
2020/01/31 22:20:01.1	94.310	0.090	-0.270	-0.350
2020/01/31 22:20:01.2	94.300	0.050	-0.220	-0.320
2020/01/31 22:20:01.3	94.300	0.010	-0.180	-0.290
2020/01/31 22:20:01.4	94.290	-0.030	-0.140	-0.250
2020/01/31 22:20:01.5	94.290	-0.070	-0.100	-0.210
2020/01/31 22:20:01.6	94.280	-0.100	-0.060	-0.160
2020/01/31 22:20:01.7	94.260	-0.140	-0.020	-0.110
2020/01/31 22:20:01.8	94.250	-0.180	0.020	-0.060
2020/01/31 22:20:01.9	94.230	-0.220	0.060	-0.000
2020/01/31 22:20:02.0	94.210	-0.250	0.090	0.060
2020/01/31 22:20:02.1	94.190	-0.290	0.130	0.120
2020/01/31 22:20:02.2	94.170	-0.320	0.160	0.190
2020/01/31 22:20:02.3	94.140	-0.350	0.190	0.260
2020/01/31 22:20:02.4	94.110	-0.390	0.210	0.330
2020/01/31 22:20:02.5	94.080	-0.420	0.240	0.400
2020/01/31 22:20:02.6	94.050	-0.440	0.260	0.480
2020/01/31 22:20:02.7	94.020	-0.470	0.270	0.550
2020/01/31 22:20:02.8	93.980	-0.490	0.290	0.630
2020/01/31 22:20:02.9	93.950	-0.520	0.290	0.700
2020/01/31 22:20:03.0	93.920	-0.540	0.300	0.780
2020/01/31 22:20:03.1	93.880	-0.550	0.300	0.860
2020/01/31 22:20:03.2	93.850	-0.570	0.300	0.930
2020/01/31 22:20:03.3	93.810	-0.580	0.290	1.010
2020/01/31 22:20:03.4	93.770	-0.590	0.280	1.080
2020/01/31 22:20:03.5	93.740	-0.600	0.260	1.140
2020/01/31 22:20:03.6	93.710	-0.610	0.240	1.210
2020/01/31 22:20:03.7	93.670	-0.610	0.220	1.270
2020/01/31 22:20:03.8	93.640	-0.610	0.180	1.330
2020/01/31 22:20:03.9	93.620	-0.610	0.150	1.380
2020/01/31 22:20:04.0	93.590	-0.600	0.110	1.430
2020/01/31 22:20:04.1	93.560	-0.590	0.070	1.470
2020/01/31 22:20:04.2	93.540	-0.580	0.020	1.510
2020/01/31 22:20:04.3	93.530	-0.570	-0.030	1.550
2020/01/31 22:20:04.4	93.510	-0.550	-0.080	1.580
2020/01/31 22:20:04.5	93.500	-0.530	-0.140	1.600
2020/01/31 22:20:04.6	93.490	-0.500	-0.200	1.620
2020/01/31 22:20:04.7	93.490	-0.480	-0.260	1.640
2020/01/31 22:20:04.8	93.480	-0.450	-0.320	1.650
2020/01/31 22:20:04.9	93.480	-0.420	-0.380	1.660
2020/01/31 22:20:05.0	93.480	-0.390	-0.440	1.660
2020/01/31 22:20:05.1	93.490	-0.350	-0.510	1.650
2020/01/31 22:20:05.2	93.490	-0.320	-0.570	1.650
2020/01/31 22:20:05.3	93.500	-0.280	-0.620	1.630
2020/01/31 22:20:05.4	93.510	-0.240	-0.680	1.620
2020/01/31 22:20:05.5	93.530	-0.200	-0.730	1.600
2020/01/31 22:20:05.6	93.540	-0.160	-0.780	1.570
2020/01/31 22:20:05.7	93.560	-0.120	-0.830	1.540
2020/01/31 22:20:05.8	93.580	-0.080	-0.870	1.510
2020/01/31 22:20:05.9	93.600	-0.040	-0.900	1.470
2020/01/31 22:20:06.0	93.610	0.010	-0.930	1.430
2020/01/31 22:20:06.1	93.630	0.050	-0.960	1.380
2020/01/31 22:20:06.2	93.650	0.090	-0.980	1.340
2020/01/31 22:20:06.3	93.670	0.130	-0.990	1.280
2020/01/31 22:20:06.4	93.700	0.170	-1.000	1.220
2020/01/31 22:20:06.5	93.720	0.210	-0.990	1.170
2020/01/31 22:20:06.6	93.740	0.250	-0.990	1.100
2020/01/31 22:20:06.7	93.760	0.290	-0.970	1.040
2020/01/31 22:20:06.8	93.780	0.320	-0.950	0.970
2020/01/31 22:20:06.9	93.800	0.360	-0.930	0.900
2020/01/31 22:20:07.0	93.820	0.390	-0.890	0.830
2020/01/31 22:20:07.1	93.840	0.420	-0.850	0.760
2020/01/31 22:20:07.2	93.850	0.450	-0.810	0.690
2020/01/31 22:20:07.3	93.860	0.480	-0.760	0.610
2020/01/31 22:20:07.4	93.880	0.500	-0.700	0.540
2020/01/31 22:20:07.5	93.890	0.520	-0.640	0.470
2020/01/31 22:20:07.6	93.890	0.540	-0.580	0.400
2020/01/31 22:20:07.7	93.900	0.560	-0.520	0.330
2020/01/31 22:20:07.8	93.910	0.570	-0.450	0.260
2020/01/31 22:20:07.9	93.910	0.590	-0.380	0.200
2020/01/31 22:20:08.0	93.920	0.600	-0.310	0.130
2020/01/31 22:20:08.1	93.920	0.600	-0.230	0.070
2020/01/31 22:20:08.2	93.920	0.610	-0.160	0.010
2020/01/31 22:20:08.3	93.910	0.610	-0.080	-0.050
2020/01/31 22:20:08.4	93.910	0.610	-0.010	-0.100
2020/01/31 22:20:08.5	93.910	0.610	0.060	-0.150
2020/01/31 22:20:08.6	93.900	0.600	0.130	-0.190
2020/01/31 22:20:08.7	93.890	0.590	0.200	-0.240
2020/01/31 22:20:08.8	93.890	0.580	0.270	-0.270
2020/01/31 22:20:08.9	93.880	0.570	0.340	-0.310
2020/01/31 22:20:09.0	93.880	0.550	0.400	-0.340
2020/01/31 22:20:09.1	93.870	0.530	0.460	-0.360
2020/01/31 22:20:09.2	93.860	0.510	0.510	-0.390
2020/01/31 22:20:09.3	93.850	0.490	0.560	-0.410
2020/01/31 22:20:09.4	93.840	0.470	0.600	-0.420
2020/01/31 22:20:09.5	93.830	0.440	0.640	-0.440
2020/01/31 22:20:09.6	93.820	0.410	0.670	-0.450
2020/01/31 22:20:09.7	93.810	0.380	0.700	-0.460
2020/01/31 22:20:09.8	93.800	0.350	0.720	-0.460
2020/01/31 22:20:09.9	93.790	0.320	0.730	-0.470
2020/01/31 22:20:10.0	93.780	0.290	0.740	-0.470
2020/01/31 22:20:10.1	93.770	0.260	0.740	-0.470
2020/01/31 22:20:10.2	93.760	0.220	0.730	-0.470
2020/01/31 22:20:10.3	93.750	0.190	0.720	-0.460
2020/01/31 22:20:10.4	93.740	0.150	0.700	-0.460
2020/01/31 22:20:10.5	93.740	0.120	0.670	-0.450
2020/01/31 22:20:10.6	93.730	0.080	0.640	-0.440
2020/01/31 22:20:10.7	93.730	0.050	0.610	-0.430
2020/01/31 22:20:10.8	93.730	0.010	0.560	-0.420
2020/01/31 22:20:10.9	93.730	-0.020	0.520	-0.410
2020/01/31 22:20:11.0	93.740	-0.050	0.470	-0.400
2020/01/31 22:20:11.1	93.740	-0.080	0.410	-0.380
2020/01/31 22:20:11.2	93.740	-0.110	0.350	-0.370
2020/01/31 22:20:11.3	93.750	-0.140	0.290	-0.350
2020/01/31 22:20:11.4	93.750	-0.160	0.220	-0.330
2020/01/31 22:20:11.5	93.760	-0.190	0.160	-0.310
2020/01/31 22:20:11.6	93.770	-0.210	0.090	-0.290
2020/01/31 22:20:11.7	93.770	-0.230	0.020	-0.270
2020/01/31 22:20:11.8	93.780	-0.250	-0.050	-0.240
2020/01/31 22:20:11.9	93.790	-0.260	-0.120	-0.210
2020/01/31 22:20:12.0	93.800	-0.280	-0.190	-0.180
2020/01/31 22:20:12.1	93.810	-0.290	-0.260	-0.150
2020/01/31 22:20:12.2	93.820	-0.300	-0.330	-0.120
2020/01/31 22:20:12.3	93.830	-0.310	-0.390	-0.080
2020/01/31 22:20:12.4	93.840	-0.310	-0.450	-0.040
2020/01/31 22:20:12.5	93.840	-0.310	-0.510	-0.000
2020/01/31 22:20:12.6	93.850	-0.310	-0.560	0.040
2020/01/31 22:20:12.7	93.860	-0.310	-0.610	0.090
2020/01/31 22:20:12.8	93.860	-0.310	-0.660	0.140
2020/01/31 22:20:12.9	93.860	-0.310	-0.700	0.190
2020/01/31 22:20:13.0	93.860	-0.300	-0.740	0.240
2020/01/31 22:20:13.1	93.870	-0.290	-0.770	0.300
2020/01/31 22:20:13.2	93.870	-0.280	-0.790	0.350
2020/01/31 22:20:13.3	93.870	-0.270	-0.810	0.410
2020/01/31 22:20:13.4	93.860	-0.260	-0.830	0.470
2020/01/31 22:20:13.5	93.860	-0.250	-0.840	0.520
2020/01/31 22:20:13.6	93.860	-0.230	-0.840	0.580
2020/01/31 22:20:13.7	93.850	-0.220	-0.840	0.640
2020/01/31 22:20:13.8	93.850	-0.210	-0.840	0.700
2020/01/31 22:20:13.9	93.840	-0.190	-0.830	0.760
2020/01/31 22:20:14.0	93.830	-0.180	-0.810	0.830
2020/01/31 22:20:14.1	93.820	-0.160	-0.790	0.890
2020/01/31 22:20:14.2	93.810	-0.150	-0.770	0.950
2020/01/31 22:20:14.3	93.800	-0.130	-0.750	1.000
2020/01/31 22:20:14.4	93.790	-0.120	-0.720	1.060
2020/01/31 22:20:14.5	93.780	-0.110	-0.690	1.120
2020/01/31 22:20:14.6	93.770	-0.100	-0.660	1.170
2020/01/31 22:20:14.7	93.760	-0.080	-0.630	1.230
2020/01/31 22:20:14.8	93.750	-0.070	-0.590	1.280
2020/01/31 22:20:14.9	93.740	-0.060	-0.560	1.330
2020/01/31 22:20:15.0	93.730	-0.050	-0.520	1.370
2020/01/31 22:20:15.1	93.720	-0.040	-0.480	1.420
2020/01/31 22:20:15.2	93.710	-0.030	-0.450	1.460
2020/01/31 22:20:15.3	93.700	-0.030	-0.410	1.500
2020/01/31 22:20:15.4	93.690	-0.020	-0.380	1.530
2020/01/31 22:20:15.5	93.680	-0.010	-0.340	1.570
2020/01/31 22:20:15.6	93.670	-0.010	-0.310	1.600
2020/01/31 22:20:15.7	93.670	-0.000	-0.280	1.620
2020/01/31 22:20:15.8	93.660	0.000	-0.240	1.650
2020/01/31 22:20:15.9	93.650	0.010	-0.210	1.670
2020/01/31 22:20:16.0	93.650	0.010	-0.180	1.680
2020/01/31 22:20:16.1	93.640	0.020	-0.160	1.700
2020/01/31 22:20:16.2	93.640	0.020	-0.130	1.710
2020/01/31 22:20:16.3	93.630	0.020	-0.110	1.710
2020/01/31 22:20:16.4	93.630	0.030	-0.090	1.720
2020/01/31 22:20:16.5	93.620	0.030	-0.070	1.720
2020/01/31 22:20:16.6	93.620	0.030	-0.050	1.710
2020/01/31 22:20:16.7	93.610	0.030	-0.030	1.710
2020/01/31 22:20:16.8	93.610	0.040	-0.010	1.700
2020/01/31 22:20:16.9	93.600	0.040	-0.000	1.680
2020/01/31 22:20:17.0	93.600	0.040	0.010	1.660
2020/01/31 22:20:17.1	93.600	0.040	0.020	1.640
2020/01/31 22:20:17.2	93.600	0.050	0.030	1.620
2020/01/31 22:20:17.3	93.590	0.050	0.040	1.590
2020/01/31 22:20:17.4	93.590	0.050	0.050	1.560
2020/01/31 22:20:17.5	93.590	0.050	0.050	1.520
2020/01/31 22:20:17.6	93.590	0.050	0.060	1.480
2020/01/31 22:20:17.7	93.590	0.050	0.060	1.440
2020/01/31 22:20:17.8	93.600	0.050	0.070	1.400
2020/01/31 22:20:17.9	93.600	0.060	0.070	1.350
2020/01/31 22:20:18.0	93.600	0.060	0.070	1.300
2020/01/31 22:20:18.1	93.610	0.060	0.070	1.250
2020/01/31 22:20:18.2	93.610	0.060	0.070	1.200
2020/01/31 22:20:18.3	93.620	0.060	0.060	1.150
2020/01/31 22:20:18.4	93.630	0.050	0.060	1.090
2020/01/31 22:20:18.5	93.640	0.050	0.060	1.040
2020/01/31 22:20:18.6	93.640	0.050	0.050	0.980
2020/01/31 22:20:18.7	93.650	0.050	0.050	0.930
2020/01/31 22:20:18.8	93.660	0.040	0.040	0.870
2020/01/31 22:20:18.9	93.670	0.040	0.040	0.820
2020/01/31 22:20:19.0	93.670	0.030	0.040	0.760
2020/01/31 22:20:19.1	93.680	0.030	0.030	0.710
2020/01/31 22:20:19.2	93.690	0.020	0.030	0.660
2020/01/31 22:20:19.3	93.700	0.010	0.020	0.610
2020/01/31 22:20:19.4	93.700	0.010	0.020	0.560
2020/01/31 22:20:19.5	93.710	-0.000	0.020	0.510
2020/01/31 22:20:19.6	93.710	-0.010	0.020	0.460
2020/01/31 22:20:19.7	93.710	-0.030	0.020	0.420
2020/01/31 22:20:19.8	93.710	-0.040	0.020	0.370
2020/01/31 22:20:19.9	93.710	-0.050	0.020	0.330
2020/01/31 22:20:20.0	93.720	-0.070	0.010	0.290
2020/01/31 22:20:20.1	93.720	-0.080	0.020	0.240
2020/01/31 22:20:20.2	93.710	-0.100	0.020	0.200
2020/01/31 22:20:20.3	93.710	-0.110	0.020	0.160
2020/01/31 22:20:20.4	93.700	-0.130	0.020	0.130
2020/01/31 22:20:20.5	93.700	-0.150	0.030	0.090
2020/01/31 22:20:20.6	93.690	-0.170	0.030	0.050
2020/01/31 22:20:20.7	93.680	-0.190	0.030	0.020
2020/01/31 22:20:20.8	93.670	-0.210	0.030	-0.020
2020/01/31 22:20:20.9	93.660	-0.220	0.030	-0.060
2020/01/31 22:20:21.0	93.660	-0.240	0.030	-0.090
2020/01/31 22:20:21.1	93.640	-0.260	0.030	-0.130
2020/01/31 22:20:21.2	93.630	-0.280	0.030	-0.160
2020/01/31 22:20:21.3	93.620	-0.290	0.020	-0.190
2020/01/31 22:20:21.4	93.600	-0.310	0.020	-0.230
2020/01/31 22:20:21.5	93.590	-0.320	0.010	-0.260
2020/01/31 22:20:21.6	93.580	-0.340	0.000	-0.290
2020/01/31 22:20:21.7	93.560	-0.350	-0.010	-0.320
2020/01/31 22:20:21.8	93.550	-0.350	-0.020	-0.350
2020/01/31 22:20:21.9	93.540	-0.360	-0.030	-0.380
2020/01/31 22:20:22.0	93.530	-0.360	-0.040	-0.410
2020/01/31 22:20:22.1	93.520	-0.360	-0.060	-0.440
2020/01/31 22:20:22.2	93.510	-0.360	-0.080	-0.460
2020/01/31 22:20:22.3	93.500	-0.360	-0.100	-0.480
2020/01/31 22:20:22.4	93.490	-0.350	-0.130	-0.510
2020/01/31 22:20:22.5	93.470	-0.340	-0.150	-0.530
2020/01/31 22:20:22.6	93.470	-0.330	-0.180	-0.540
2020/01/31 22:20:22.7	93.460	-0.320	-0.210	-0.560
2020/01/31 22:20:22.8	93.450	-0.300	-0.240	-0.580
2020/01/31 22:20:22.9	93.440	-0.280	-0.270	-0.590
2020/01/31 22:20:23.0	93.440	-0.250	-0.300	-0.600
2020/01/31 22:20:23.1	93.430	-0.230	-0.340	-0.600
2020/01/31 22:20:23.2	93.420	-0.200	-0.370	-0.610
2020/01/31 22:20:23.3	93.420	-0.170	-0.400	-0.610
2020/01/31 22:20:23.4	93.410	-0.140	-0.440	-0.620
2020/01/31 22:20:23.5	93.410	-0.100	-0.470	-0.610
2020/01/31 22:20:23.6	93.410	-0.070	-0.510	-0.610
2020/01/31 22:20:23.7	93.400	-0.030	-0.540	-0.600
2020/01/31 22:20:23.8	93.400	0.010	-0.570	-0.600
2020/01/31 22:20:23.9	93.400	0.050	-0.610	-0.590
2020/01/31 22:20:24.0	93.400	0.080	-0.640	-0.570
2020/01/31 22:20:24.1	93.400	0.120	-0.660	-0.560
2020/01/31 22:20:24.2	93.400	0.160	-0.690	-0.540
2020/01/31 22:20:24.3	93.400	0.200	-0.720	-0.520
2020/01/31 22:20:24.4	93.400	0.240	-0.740	-0.500
2020/01/31 22:20:24.5	93.400	0.270	-0.760	-0.480
2020/01/31 22:20:24.6	93.410	0.310	-0.770	-0.460
2020/01/31 22:20:24.7	93.410	0.340	-0.790	-0.430
2020/01/31 22:20:24.8	93.420	0.370	-0.800	-0.410
2020/01/31 22:20:24.9	93.420	0.400	-0.800	-0.380
2020/01/31 22:20:25.0	93.440	0.430	-0.810	-0.350
2020/01/31 22:20:25.1	93.450	0.450	-0.810	-0.330
2020/01/31 22:20:25.2	93.460	0.470	-0.800	-0.300
2020/01/31 22:20:25.3	93.470	0.490	-0.790	-0.270
2020/01/31 22:20:25.4	93.480	0.510	-0.780	-0.240
2020/01/31 22:20:25.5	93.490	0.520	-0.760	-0.220
2020/01/31 22:20:25.6	93.510	0.530	-0.740	-0.190
2020/01/31 22:20:25.7	93.520	0.540	-0.720	-0.160
2020/01/31 22:20:25.8	93.540	0.540	-0.690	-0.130
2020/01/31 22:20:25.9	93.550	0.540	-0.660	-0.100
2020/01/31 22:20:26.0	93.560	0.540	-0.610	-0.070
2020/01/31 22:20:26.1	93.570	0.530	-0.570	-0.040
2020/01/31 22:20:26.2	93.590	0.520	-0.530	-0.010
2020/01/31 22:20:26.3	93.600	0.510	-0.480	0.020
2020/01/31 22:20:26.4	93.620	0.490	-0.430	0.060
2020/01/31 22:20:26.5	93.630	0.470	-0.380	0.090
2020/01/31 22:20:26.6	93.640	0.450	-0.320	0.130
2020/01/31 22:20:26.7	93.660	0.430	-0.260	0.160
2020/01/31 22:20:26.8	93.670	0.410	-0.200	0.200
2020/01/31 22:20:26.9	93.680	0.380	-0.140	0.240
2020/01/31 22:20:27.0	93.680	0.350	-0.070	0.290
2020/01/31 22:20:27.1	93.690	0.320	-0.010	0.330
2020/01/31 22:20:27.2	93.700	0.290	0.050	0.370
2020/01/31 22:20:27.3	93.700	0.250	0.120	0.420
2020/01/31 22:20:27.4	93.700	0.220	0.180	0.470
2020/01/31 22:20:27.5	93.710	0.180	0.240	0.520
2020/01/31 22:20:27.6	93.710	0.150	0.300	0.570
2020/01/31 22:20:27.7	93.710	0.110	0.360	0.620
2020/01/31 22:20:27.8	93.700	0.080	0.410	0.670
2020/01/31 22:20:27.9	93.700	0.040	0.460	0.720
2020/01/31 22:20:28.0	93.690	0.010	0.520	0.780
2020/01/31 22:20:28.1	93.680	-0.020	0.560	0.830
2020/01/31 22:20:28.2	93.680	-0.060	0.600	0.880
2020/01/31 22:20:28.3	93.670	-0.090	0.640	0.940
2020/01/31 22:20:28.4	93.660	-0.120	0.670	0.990
2020/01/31 22:20:28.5	93.640	-0.140	0.700	1.040
2020/01/31 22:20:28.6	93.630	-0.170	0.720	1.090
2020/01/31 22:20:28.7	93.620	-0.190	0.740	1.130
2020/01/31 22:20:28.8	93.610	-0.220	0.760	1.180
2020/01/31 22:20:28.9	93.600	-0.240	0.760	1.220
2020/01/31 22:20:29.0	93.590	-0.250	0.760	1.260
2020/01/31 22:20:29.1	93.580	-0.270	0.760	1.290
2020/01/31 22:20:29.2	93.570	-0.280	0.750	1.330
2020/01/31 22:20:29.3	93.560	-0.290	0.740	1.350
2020/01/31 22:20:29.4	93.560	-0.300	0.720	1.380
2020/01/31 22:20:29.5	93.550	-0.310	0.690	1.390
2020/01/31 22:20:29.6	93.550	-0.310	0.660	1.410
2020/01/31 22:20:29.7	93.550	-0.310	0.630	1.420
2020/01/31 22:20:29.8	93.550	-0.310	0.590	1.420
2020/01/31 22:20:29.9	93.560	-0.310	0.550	1.430
2020/01/31 22:20:30.0	93.560	-0.300	0.500	1.420
2020/01/31 22:20:30.1	93.560	-0.300	0.450	1.420
2020/01/31 22:20:30.2	93.570	-0.290	0.390	1.410
2020/01/31 22:20:30.3	93.580	-0.270	0.340	1.390
2020/01/31 22:20:30.4	93.590	-0.260	0.280	1.380
2020/01/31 22:20:30.5	93.600	-0.250	0.210	1.360
2020/01/31 22:20:30.6	93.610	-0.230	0.150	1.340
2020/01/31 22:20:30.7	93.630	-0.210	0.090	1.320
2020/01/31 22:20:30.8	93.640	-0.190	0.020	1.290
2020/01/31 22:20:30.9	93.650	-0.170	-0.050	1.270
2020/01/31 22:20:31.0	93.670	-0.150	-0.120	1.240
2020/01/31 22:20:31.1	93.690	-0.130	-0.190	1.210
2020/01/31 22:20:31.2	93.700	-0.110	-0.260	1.180
2020/01/31 22:20:31.3	93.720	-0.090	-0.320	1.150
2020/01/31 22:20:31.4	93.740	-0.060	-0.390	1.120
2020/01/31 22:20:31.5	93.750	-0.040	-0.460	1.090
2020/01/31 22:20:31.6	93.770	-0.020	-0.530	1.060
2020/01/31 22:20:31.7	93.780	0.000	-0.590	1.040
2020/01/31 22:20:31.8	93.800	0.030	-0.650	1.010
2020/01/31 22:20:31.9	93.810	0.050	-0.720	0.980
2020/01/31 22:20:32.0	93.830	0.070	-0.770	0.950
2020/01/31 22:20:32.1	93.840	0.080	-0.830	0.930
2020/01/31 22:20:32.2	93.850	0.100	-0.880	0.910
2020/01/31 22:20:32.3	93.870	0.120	-0.930	0.880
2020/01/31 22:20:32.4	93.880	0.130	-0.980	0.860
2020/01/31 22:20:32.5	93.890	0.150	-1.020	0.840
2020/01/31 22:20:32.6	93.890	0.160	-1.060	0.830
2020/01/31 22:20:32.7	93.900	0.170	-1.100	0.810
2020/01/31 22:20:32.8	93.910	0.170	-1.130	0.800
2020/01/31 22:20:32.9	93.910	0.180	-1.150	0.780
2020/01/31 22:20:33.0	93.920	0.180	-1.170	0.770
2020/01/31 22:20:33.1	93.920	0.190	-1.190	0.760
2020/01/31 22:20:33.2	93.920	0.190	-1.200	0.750
2020/01/31 22:20:33.3	93.920	0.190	-1.200	0.740
2020/01/31 22:20:33.4	93.920	0.180	-1.200	0.740
2020/01/31 22:20:33.5	93.920	0.180	-1.190	0.730
2020/01/31 22:20:33.6	93.920	0.170	-1.170	0.730
2020/01/31 22:20:33.7	93.910	0.160	-1.150	0.720
2020/01/31 22:20:33.8	93.910	0.150	-1.120	0.720
2020/01/31 22:20:33.9	93.900	0.140	-1.090	0.720
2020/01/31 22:20:34.0	93.900	0.120	-1.050	0.720
2020/01/31 22:20:34.1	93.890	0.110	-1.000	0.720
2020/01/31 22:20:34.2	93.890	0.090	-0.960	0.720
2020/01/31 22:20:34.3	93.880	0.070	-0.900	0.710
2020/01/31 22:20:34.4	93.880	0.050	-0.840	0.710
2020/01/31 22:20:34.5	93.870	0.030	-0.780	0.710
2020/01/31 22:20:34.6	93.870	0.010	-0.720	0.710
2020/01/31 22:20:34.7	93.860	-0.010	-0.650	0.700
2020/01/31 22:20:34.8	93.860	-0.040	-0.580	0.700
2020/01/31 22:20:34.9	93.860	-0.060	-0.510	0.690
2020/01/31 22:20:35.0	93.860	-0.090	-0.430	0.680
2020/01/31 22:20:35.1	93.850	-0.110	-0.360	0.670
2020/01/31 22:20:35.2	93.850	-0.130	-0.280	0.660
2020/01/31 22:20:35.3	93.850	-0.160	-0.210	0.650
2020/01/31 22:20:35.4	93.850	-0.180	-0.130	0.640
2020/01/31 22:20:35.5	93.850	-0.200	-0.050	0.630
2020/01/31 22:20:35.6	93.850	-0.230	0.020	0.610
2020/01/31 22:20:35.7	93.850	-0.250	0.100	0.590
2020/01/31 22:20:35.8	93.850	-0.270	0.170	0.580
2020/01/31 22:20:35.9	93.850	-0.290	0.240	0.560
2020/01/31 22:20:36.0	93.860	-0.310	0.320	0.540
2020/01/31 22:20:36.1	93.860	-0.330	0.380	0.520
2020/01/31 22:20:36.2	93.860	-0.340	0.450	0.500
2020/01/31 22:20:36.3	93.860	-0.360	0.510	0.470
2020/01/31 22:20:36.4	93.860	-0.370	0.560	0.450
2020/01/31 22:20:36.5	93.860	-0.390	0.620	0.420
2020/01/31 22:20:36.6	93.860	-0.390	0.660	0.400
2020/01/31 22:20:36.7	93.860	-0.400	0.700	0.370
2020/01/31 22:20:36.8	93.860	-0.410	0.740	0.340
2020/01/31 22:20:36.9	93.870	-0.410	0.770	0.310
2020/01/31 22:20:37.0	93.880	-0.410	0.800	0.270
2020/01/31 22:20:37.1	93.880	-0.410	0.820	0.240
2020/01/31 22:20:37.2	93.890	-0.410	0.830	0.200
2020/01/31 22:20:37.3	93.890	-0.400	0.840	0.170
2020/01/31 22:20:37.4	93.900	-0.400	0.840	0.130
2020/01/31 22:20:37.5	93.910	-0.390	0.830	0.090
2020/01/31 22:20:37.6	93.920	-0.370	0.820	0.040
2020/01/31 22:20:37.7	93.930	-0.360	0.800	0.000
2020/01/31 22:20:37.8	93.950	-0.340	0.780	-0.040
2020/01/31 22:20:37.9	93.960	-0.320	0.750	-0.090
2020/01/31 22:20:38.0	93.990	-0.300	0.710	-0.130
2020/01/31 22:20:38.1	94.010	-0.280	0.670	-0.180
2020/01/31 22:20:38.2	94.030	-0.250	0.630	-0.230
2020/01/31 22:20:38.3	94.050	-0.220	0.570	-0.280
2020/01/31 22:20:38.4	94.070	-0.190	0.520	-0.330
2020/01/31 22:20:38.5	94.100	-0.160	0.460	-0.380
2020/01/31 22:20:38.6	94.120	-0.130	0.400	-0.430
2020/01/31 22:20:38.7	94.150	-0.100	0.330	-0.470
2020/01/31 22:20:38.8	94.170	-0.060	0.260	-0.520
2020/01/31 22:20:38.9	94.200	-0.030	0.190	-0.570
2020/01/31 22:20:39.0	94.220	0.010	0.120	-0.620
2020/01/31 22:20:39.1	94.250	0.050	0.040	-0.670
2020/01/31 22:20:39.2	94.280	0.080	-0.030	-0.710
2020/01/31 22:20:39.3	94.300	0.120	-0.110	-0.760
2020/01/31 22:20:39.4	94.330	0.160	-0.180	-0.800
2020/01/31 22:20:39.5	94.360	0.200	-0.250	-0.840
2020/01/31 22:20:39.6	94.380	0.230	-0.330	-0.880
2020/01/31 22:20:39.7	94.410	0.270	-0.400	-0.920
2020/01/31 22:20:39.8	94.430	0.300	-0.460	-0.960
2020/01/31 22:20:39.9	94.450	0.340	-0.530	-0.990
2020/01/31 22:20:40.0	94.470	0.370	-0.590	-1.010
2020/01/31 22:20:40.1	94.490	0.400	-0.650	-1.040
2020/01/31 22:20:40.2	94.510	0.430	-0.700	-1.070
2020/01/31 22:20:40.3	94.530	0.450	-0.750	-1.090
2020/01/31 22:20:40.4	94.540	0.480	-0.800	-1.110
2020/01/31 22:20:40.5	94.560	0.500	-0.840	-1.120
2020/01/31 22:20:40.6	94.570	0.520	-0.870	-1.130
2020/01/31 22:20:40.7	94.580	0.540	-0.910	-1.130
2020/01/31 22:20:40.8	94.590	0.560	-0.930	-1.130
2020/01/31 22:20:40.9	94.600	0.570	-0.950	-1.130
2020/01/31 22:20:41.0	94.610	0.580	-0.970	-1.130
2020/01/31 22:20:41.1	94.610	0.590	-0.980	-1.110
2020/01/31 22:20:41.2	94.620	0.590	-0.980	-1.090
2020/01/31 22:20:41.3	94.620	0.600	-0.980	-1.070
2020/01/31 22:20:41.4	94.610	0.590	-0.980	-1.040
2020/01/31 22:20:41.5	94.610	0.590	-0.970	-1.000
2020/01/31 22:20:41.6	94.600	0.580	-0.950	-0.960
2020/01/31 22:20:41.7	94.600	0.570	-0.930	-0.920
2020/01/31 22:20:41.8	94.590	0.560	-0.910	-0.870
2020/01/31 22:20:41.9	94.580	0.550	-0.880	-0.810
2020/01/31 22:20:42.0	94.560	0.530	-0.850	-0.750
2020/01/31 22:20:42.1	94.550	0.510	-0.810	-0.680
2020/01/31 22:20:42.2	94.530	0.490	-0.770	-0.610
2020/01/31 22:20:42.3	94.520	0.460	-0.730	-0.530
2020/01/31 22:20:42.4	94.500	0.430	-0.680	-0.460
2020/01/31 22:20:42.5	94.480	0.400	-0.630	-0.370
2020/01/31 22:20:42.6	94.460	0.370	-0.580	-0.290
2020/01/31 22:20:42.7	94.450	0.340	-0.530	-0.200
2020/01/31 22:20:42.8	94.430	0.300	-0.470	-0.100
2020/01/31 22:20:42.9	94.410	0.270	-0.420	-0.010
2020/01/31 22:20:43.0	94.400	0.230	-0.360	0.090
2020/01/31 22:20:43.1	94.380	0.190	-0.300	0.180
2020/01/31 22:20:43.2	94.370	0.150	-0.250	0.280
2020/01/31 22:20:43.3	94.350	0.110	-0.190	0.380
2020/01/31 22:20:43.4	94.340	0.070	-0.130	0.480
2020/01/31 22:20:43.5	94.330	0.030	-0.070	0.570
2020/01/31 22:20:43.6	94.330	-0.010	-0.020	0.670
2020/01/31 22:20:43.7	94.320	-0.060	0.040	0.770
2020/01/31 22:20:43.8	94.320	-0.100	0.090	0.860
2020/01/31 22:20:43.9	94.320	-0.140	0.140	0.950
2020/01/31 22:20:44.0	94.330	-0.180	0.190	1.040
2020/01/31 22:20:44.1	94.330	-0.210	0.230	1.130
2020/01/31 22:20:44.2	94.340	-0.250	0.270	1.210
2020/01/31 22:20:44.3	94.360	-0.290	0.310	1.290
2020/01/31 22:20:44.4	94.370	-0.320	0.350	1.360
2020/01/31 22:20:44.5	94.390	-0.350	0.380	1.440
2020/01/31 22:20:44.6	94.410	-0.380	0.400	1.510
2020/01/31 22:20:44.7	94.440	-0.410	0.420	1.570
2020/01/31 22:20:44.8	94.460	-0.440	0.440	1.630
2020/01/31 22:20:44.9	94.490	-0.460	0.460	1.690
2020/01/31 22:20:45.0	94.520	-0.490	0.470	1.750
2020/01/31 22:20:45.1	94.550	-0.510	0.470	1.800
2020/01/31 22:20:45.2	94.580	-0.520	0.470	1.850
2020/01/31 22:20:45.3	94.620	-0.540	0.470	1.900
2020/01/31 22:20:45.4	94.650	-0.550	0.460	1.940
2020/01/31 22:20:45.5	94.680	-0.560	0.450	1.990
2020/01/31 22:20:45.6	94.720	-0.570	0.430	2.020
2020/01/31 22:20:45.7	94.750	-0.570	0.410	2.060
2020/01/31 22:20:45.8	94.780	-0.580	0.390	2.090
2020/01/31 22:20:45.9	94.810	-0.580	0.360	2.120
2020/01/31 22:20:46.0	94.850	-0.570	0.330	2.150
2020/01/31 22:20:46.1	94.880	-0.570	0.300	2.170
2020/01/31 22:20:46.2	94.910	-0.560	0.260	2.180
2020/01/31 22:20:46.3	94.940	-0.550	0.220	2.190
2020/01/31 22:20:46.4	94.970	-0.530	0.170	2.200
2020/01/31 22:20:46.5	95.000	-0.520	0.130	2.200
2020/01/31 22:20:46.6	95.020	-0.500	0.080	2.200
2020/01/31 22:20:46.7	95.040	-0.470	0.030	2.200
2020/01/31 22:20:46.8	95.070	-0.450	-0.020	2.190
2020/01/31 22:20:46.9	95.090	-0.420	-0.070	2.180
2020/01/31 22:20:47.0	95.110	-0.400	-0.120	2.150
2020/01/31 22:20:47.1	95.120	-0.360	-0.170	2.130
2020/01/31 22:20:47.2	95.140	-0.330	-0.220	2.100
2020/01/31 22:20:47.3	95.150	-0.300	-0.270	2.080
2020/01/31 22:20:47.4	95.160	-0.260	-0.310	2.040
2020/01/31 22:20:47.5	95.170	-0.220	-0.360	2.010
2020/01/31 22:20:47.6	95.170	-0.190	-0.400	1.970
2020/01/31 22:20:47.7	95.180	-0.150	-0.430	1.930
2020/01/31 22:20:47.8	95.180	-0.110	-0.460	1.890
2020/01/31 22:20:47.9	95.180	-0.070	-0.490	1.840
2020/01/31 22:20:48.0	95.180	-0.030	-0.510	1.790
2020/01/31 22:20:48.1	95.170	0.010	-0.530	1.740
2020/01/31 22:20:48.2	95.170	0.050	-0.540	1.690
2020/01/31 22:20:48.3	95.160	0.090	-0.550	1.640
2020/01/31 22:20:48.4	95.150	0.130	-0.560	1.580
2020/01/31 22:20:48.5	95.140	0.170	-0.560	1.530
2020/01/31 22:20:48.6	95.120	0.200	-0.560	1.470
2020/01/31 22:20:48.7	95.110	0.240	-0.550	1.410
2020/01/31 22:20:48.8	95.090	0.270	-0.540	1.350
2020/01/31 22:20:48.9	95.080	0.300	-0.530	1.290
2020/01/31 22:20:49.0	95.060	0.330	-0.510	1.220
2020/01/31 22:20:49.1	95.040	0.360	-0.490	1.160
2020/01/31 22:20:49.2	95.020	0.380	-0.470	1.100
2020/01/31 22:20:49.3	95.000	0.400	-0.450	1.040
2020/01/31 22:20:49.4	94.980	0.420	-0.430	0.980
2020/01/31 22:20:49.5	94.960	0.440	-0.400	0.920
2020/01/31 22:20:49.6	94.930	0.450	-0.380	0.850
2020/01/31 22:20:49.7	94.910	0.460	-0.350	0.790
2020/01/31 22:20:49.8	94.890	0.470	-0.330	0.730
2020/01/31 22:20:49.9	94.870	0.480	-0.300	0.670
2020/01/31 22:20:50.0	94.860	0.480	-0.280	0.610
2020/01/31 22:20:50.1	94.840	0.480	-0.260	0.550
2020/01/31 22:20:50.2	94.820	0.480	-0.240	0.490
2020/01/31 22:20:50.3	94.810	0.480	-0.220	0.430
2020/01/31 22:20:50.4	94.790	0.470	-0.210	0.370
2020/01/31 22:20:50.5	94.780	0.470	-0.200	0.300
2020/01/31 22:20:50.6	94.770	0.460	-0.190	0.240
2020/01/31 22:20:50.7	94.770	0.450	-0.190	0.180
2020/01/31 22:20:50.8	94.770	0.440	-0.190	0.110
2020/01/31 22:20:50.9	94.770	0.420	-0.190	0.050
2020/01/31 22:20:51.0	94.760	0.410	-0.200	-0.020
2020/01/31 22:20:51.1	94.770	0.390	-0.200	-0.090
2020/01/31 22:20:51.2	94.780	0.370	-0.210	-0.160
2020/01/31 22:20:51.3	94.790	0.350	-0.220	-0.230
2020/01/31 22:20:51.4	94.810	0.330	-0.240	-0.300
2020/01/31 22:20:51.5	94.820	0.320	-0.250	-0.380
2020/01/31 22:20:51.6	94.840	0.290	-0.270	-0.450
2020/01/31 22:20:51.7	94.870	0.270	-0.290	-0.520
2020/01/31 22:20:51.8	94.890	0.250	-0.310	-0.600
2020/01/31 22:20:51.9	94.920	0.230	-0.330	-0.670
2020/01/31 22:20:52.0	94.950	0.210	-0.340	-0.750
2020/01/31 22:20:52.1	94.970	0.190	-0.360	-0.820
2020/01/31 22:20:52.2	95.000	0.170	-0.380	-0.890
2020/01/31 22:20:52.3	95.030	0.150	-0.390	-0.960
2020/01/31 22:20:52.4	95.060	0.130	-0.400	-1.030
2020/01/31 22:20:52.5	95.080	0.110	-0.410	-1.090
2020/01/31 22:20:52.6	95.110	0.090	-0.420	-1.150
2020/01/31 22:20:52.7	95.140	0.080	-0.420	-1.200
2020/01/31 22:20:52.8	95.160	0.060	-0.430	-1.250
2020/01/31 22:20:52.9	95.180	0.040	-0.430	-1.300
2020/01/31 22:20:53.0	95.200	0.020	-0.420	-1.330
2020/01/31 22:20:53.1	95.220	0.010	-0.410	-1.370
2020/01/31 22:20:53.2	95.240	-0.010	-0.400	-1.400
2020/01/31 22:20:53.3	95.260	-0.020	-0.390	-1.430
2020/01/31 22:20:53.4	95.280	-0.030	-0.370	-1.450
2020/01/31 22:20:53.5	95.290	-0.050	-0.350	-1.460
2020/01/31 22:20:53.6	95.310	-0.060	-0.330	-1.470
2020/01/31 22:20:53.7	95.320	-0.070	-0.310	-1.470
2020/01/31 22:20:53.8	95.330	-0.080	-0.280	-1.470
2020/01/31 22:20:53.9	95.340	-0.090	-0.250	-1.470
2020/01/31 22:20:54.0	95.360	-0.100	-0.210	-1.460
2020/01/31 22:20:54.1	95.370	-0.110	-0.180	-1.440
2020/01/31 22:20:54.2	95.380	-0.120	-0.150	-1.420
2020/01/31 22:20:54.3	95.390	-0.130	-0.110	-1.390
2020/01/31 22:20:54.4	95.400	-0.140	-0.070	-1.360
2020/01/31 22:20:54.5	95.400	-0.150	-0.030	-1.320
2020/01/31 22:20:54.6	95.410	-0.160	0.010	-1.280
2020/01/31 22:20:54.7	95.420	-0.160	0.050	-1.230
2020/01/31 22:20:54.8	95.430	-0.170	0.090	-1.180
2020/01/31 22:20:54.9	95.430	-0.180	0.120	-1.120
2020/01/31 22:20:55.0	95.430	-0.190	0.160	-1.060
2020/01/31 22:20:55.1	95.440	-0.200	0.200	-0.990
2020/01/31 22:20:55.2	95.440	-0.200	0.240	-0.920
2020/01/31 22:20:55.3	95.440	-0.210	0.280	-0.850
2020/01/31 22:20:55.4	95.430	-0.220	0.310	-0.770
2020/01/31 22:20:55.5	95.430	-0.230	0.350	-0.690
2020/01/31 22:20:55.6	95.430	-0.240	0.380	-0.600
2020/01/31 22:20:55.7	95.420	-0.250	0.410	-0.510
2020/01/31 22:20:55.8	95.410	-0.260	0.440	-0.420
2020/01/31 22:20:55.9	95.400	-0.270	0.460	-0.330
2020/01/31 22:20:56.0	95.400	-0.280	0.480	-0.220
2020/01/31 22:20:56.1	95.390	-0.280	0.500	-0.130
2020/01/31 22:20:56.2	95.380	-0.290	0.510	-0.030
2020/01/31 22:20:56.3	95.370	-0.300	0.520	0.070
2020/01/31 22:20:56.4	95.360	-0.310	0.530	0.170
2020/01/31 22:20:56.5	95.350	-0.320	0.540	0.270
2020/01/31 22:20:56.6	95.340	-0.330	0.530	0.370
2020/01/31 22:20:56.7	95.330	-0.330	0.530	0.470
2020/01/31 22:20:56.8	95.320	-0.340	0.520	0.570
2020/01/31 22:20:56.9	95.310	-0.340	0.510	0.660
2020/01/31 22:20:57.0	95.310	-0.350	0.490	0.750
2020/01/31 22:20:57.1	95.310	-0.350	0.470	0.840
2020/01/31 22:20:57.2	95.300	-0.350	0.440	0.930
2020/01/31 22:20:57.3	95.300	-0.350	0.410	1.010
2020/01/31 22:20:57.4	95.300	-0.350	0.370	1.090
2020/01/31 22:20:57.5	95.300	-0.350	0.330	1.160
2020/01/31 22:20:57.6	95.300	-0.350	0.290	1.230
2020/01/31 22:20:57.7	95.310	-0.340	0.240	1.300
2020/01/31 22:20:57.8	95.310	-0.330	0.200	1.350
2020/01/31 22:20:57.9	95.320	-0.320	0.140	1.410
2020/01/31 22:20:58.0	95.330	-0.310	0.090	1.460
2020/01/31 22:20:58.1	95.340	-0.300	0.030	1.500
2020/01/31 22:20:58.2	95.350	-0.290	-0.030	1.540
2020/01/31 22:20:58.3	95.360	-0.270	-0.090	1.580
2020/01/31 22:20:58.4	95.370	-0.250	-0.150	1.610
2020/01/31 22:20:58.5	95.390	-0.240	-0.210	1.630
2020/01/31 22:20:58.6	95.400	-0.210	-0.270	1.650
2020/01/31 22:20:58.7	95.410	-0.190	-0.330	1.670
2020/01/31 22:20:58.8	95.430	-0.170	-0.390	1.690
2020/01/31 22:20:58.9	95.440	-0.140	-0.450	1.700
2020/01/31 22:20:59.0	95.450	-0.120	-0.510	1.700
2020/01/31 22:20:59.1	95.470	-0.090	-0.570	1.700
2020/01/31 22:20:59.2	95.480	-0.060	-0.630	1.700
2020/01/31 22:20:59.3	95.490	-0.030	-0.680	1.700
2020/01/31 22:20:59.4	95.500	0.000	-0.740	1.700
2020/01/31 22:20:59.5	95.510	0.030	-0.780	1.690
2020/01/31 22:20:59.6	95.530	0.060	-0.830	1.690
2020/01/31 22:20:59.7	95.540	0.100	-0.870	1.680
2020/01/31 22:20:59.8	95.540	0.130	-0.910	1.670
2020/01/31 22:20:59.9	95.550	0.160	-0.950	1.660
2020/01/31 22:21:00.0	95.560	0.190	-0.980	1.650
2020/01/31 22:21:00.1	95.560	0.220	-1.010	1.640
2020/01/31 22:21:00.2	95.570	0.250	-1.030	1.620
2020/01/31 22:21:00.3	95.570	0.280	-1.050	1.610
2020/01/31 22:21:00.4	95.580	0.310	-1.070	1.600
2020/01/31 22:21:00.5	95.580	0.340	-1.080	1.580
2020/01/31 22:21:00.6	95.590	0.370	-1.080	1.570
2020/01/31 22:21:00.7	95.590	0.390	-1.080	1.550
2020/01/31 22:21:00.8	95.600	0.420	-1.080	1.540
2020/01/31 22:21:00.9	95.600	0.440	-1.070	1.520
2020/01/31 22:21:01.0	95.610	0.460	-1.060	1.500
2020/01/31 22:21:01.1	95.610	0.470	-1.040	1.480
2020/01/31 22:21:01.2	95.610	0.490	-1.020	1.460
2020/01/31 22:21:01.3	95.620	0.500	-1.000	1.440
2020/01/31 22:21:01.4	95.620	0.510	-0.970	1.420
2020/01/31 22:21:01.5	95.630	0.520	-0.940	1.390
2020/01/31 22:21:01.6	95.630	0.530	-0.910	1.370
2020/01/31 22:21:01.7	95.640	0.530	-0.870	1.340
2020/01/31 22:21:01.8	95.640	0.530	-0.830	1.310
2020/01/31 22:21:01.9	95.650	0.520	-0.790	1.280
2020/01/31 22:21:02.0	95.640	0.520	-0.740	1.250
2020/01/31 22:21:02.1	95.650	0.510	-0.690	1.210
2020/01/31 22:21:02.2	95.660	0.500	-0.640	1.180
2020/01/31 22:21:02.3	95.670	0.490	-0.590	1.140
2020/01/31 22:21:02.4	95.670	0.470	-0.530	1.100
2020/01/31 22:21:02.5	95.680	0.450	-0.480	1.060
2020/01/31 22:21:02.6	95.690	0.430	-0.420	1.020
2020/01/31 22:21:02.7	95.700	0.410	-0.360	0.980
2020/01/31 22:21:02.8	95.700	0.380	-0.300	0.930
2020/01/31 22:21:02.9	95.710	0.360	-0.240	0.890
2020/01/31 22:21:03.0	95.720	0.330	-0.170	0.840
2020/01/31 22:21:03.1	95.730	0.300	-0.110	0.800
2020/01/31 22:21:03.2	95.730	0.270	-0.050	0.750
2020/01/31 22:21:03.3	95.730	0.230	0.010	0.710
2020/01/31 22:21:03.4	95.730	0.200	0.070	0.660
2020/01/31 22:21:03.5	95.730	0.160	0.130	0.610
2020/01/31 22:21:03.6	95.730	0.130	0.190	0.570
2020/01/31 22:21:03.7	95.730	0.090	0.250	0.520
2020/01/31 22:21:03.8	95.720	0.050	0.310	0.480
2020/01/31 22:21:03.9	95.720	0.010	0.370	0.430
2020/01/31 22:21:04.0	95.710	-0.030	0.420	0.380
2020/01/31 22:21:04.1	95.700	-0.060	0.480	0.340
2020/01/31 22:21:04.2	95.690	-0.100	0.530	0.290
2020/01/31 22:21:04.3	95.680	-0.140	0.580	0.250
2020/01/31 22:21:04.4	95.670	-0.180	0.620	0.200
2020/01/31 22:21:04.5	95.650	-0.220	0.670	0.160
2020/01/31 22:21:04.6	95.640	-0.260	0.710	0.120
2020/01/31 22:21:04.7	95.620	-0.290	0.750	0.080
2020/01/31 22:21:04.8	95.600	-0.330	0.780	0.030
2020/01/31 22:21:04.9	95.580	-0.370	0.820	-0.010
2020/01/31 22:21:05.0	95.570	-0.400	0.850	-0.050
2020/01/31 22:21:05.1	95.550	-0.430	0.870	-0.090
2020/01/31 22:21:05.2	95.530	-0.460	0.890	-0.140
2020/01/31 22:21:05.3	95.510	-0.490	0.900	-0.180
2020/01/31 22:21:05.4	95.490	-0.510	0.910	-0.220
2020/01/31 22:21:05.5	95.480	-0.530	0.920	-0.270
2020/01/31 22:21:05.6	95.460	-0.550	0.920	-0.310
2020/01/31 22:21:05.7	95.440	-0.570	0.910	-0.360
2020/01/31 22:21:05.8	95.430	-0.580	0.900	-0.400
2020/01/31 22:21:05.9	95.410	-0.590	0.890	-0.440
2020/01/31 22:21:06.0	95.410	-0.600	0.860	-0.490
2020/01/31 22:21:06.1	95.400	-0.600	0.830	-0.540
2020/01/31 22:21:06.2	95.390	-0.600	0.790	-0.580
2020/01/31 22:21:06.3	95.390	-0.590	0.750	-0.630
2020/01/31 22:21:06.4	95.380	-0.590	0.700	-0.670
2020/01/31 22:21:06.5	95.380	-0.570	0.650	-0.720
2020/01/31 22:21:06.6	95.380	-0.550	0.590	-0.760
2020/01/31 22:21:06.7	95.380	-0.530	0.520	-0.810
2020/01/31 22:21:06.8	95.380	-0.510	0.450	-0.850
2020/01/31 22:21:06.9	95.390	-0.480	0.370	-0.900
2020/01/31 22:21:07.0	95.390	-0.450	0.290	-0.940
2020/01/31 22:21:07.1	95.400	-0.410	0.200	-0.980
2020/01/31 22:21:07.2	95.410	-0.370	0.110	-1.020
2020/01/31 22:21:07.3	95.420	-0.330	0.010	-1.060
2020/01/31 22:21:07.4	95.440	-0.280	-0.090	-1.100
2020/01/31 22:21:07.5	95.460	-0.240	-0.200	-1.140
2020/01/31 22:21:07.6	95.470	-0.190	-0.300	-1.170
2020/01/31 22:21:07.7	95.490	-0.140	-0.410	-1.210
2020/01/31 22:21:07.8	95.510	-0.090	-0.510	-1.240
2020/01/31 22:21:07.9	95.540	-0.040	-0.610	-1.270
2020/01/31 22:21:08.0	95.550	0.010	-0.720	-1.300
2020/01/31 22:21:08.1	95.570	0.060	-0.820	-1.320
2020/01/31 22:21:08.2	95.600	0.110	-0.920	-1.340
2020/01/31 22:21:08.3	95.620	0.160	-1.010	-1.360
2020/01/31 22:21:08.4	95.650	0.210	-1.090	-1.370
2020/01/31 22:21:08.5	95.670	0.250	-1.170	-1.380
2020/01/31 22:21:08.6	95.700	0.290	-1.240	-1.390
2020/01/31 22:21:08.7	95.720	0.330	-1.310	-1.390
2020/01/31 22:21:08.8	95.740	0.370	-1.360	-1.390
2020/01/31 22:21:08.9	95.770	0.400	-1.410	-1.380
2020/01/31 22:21:09.0	95.790	0.430	-1.440	-1.370
2020/01/31 22:21:09.1	95.810	0.450	-1.470	-1.360
2020/01/31 22:21:09.2	95.830	0.470	-1.490	-1.340
2020/01/31 22:21:09.3	95.850	0.490	-1.490	-1.310
2020/01/31 22:21:09.4	95.860	0.500	-1.490	-1.290
2020/01/31 22:21:09.5	95.870	0.510	-1.480	-1.260
2020/01/31 22:21:09.6	95.880	0.510	-1.450	-1.220
2020/01/31 22:21:09.7	95.890	0.510	-1.420	-1.180
2020/01/31 22:21:09.8	95.900	0.510	-1.380	-1.140
2020/01/31 22:21:09.9	95.900	0.500	-1.330	-1.090
2020/01/31 22:21:10.0	95.900	0.490	-1.270	-1.040
2020/01/31 22:21:10.1	95.900	0.480	-1.200	-0.980
2020/01/31 22:21:10.2	95.900	0.460	-1.130	-0.920
2020/01/31 22:21:10.3	95.900	0.440	-1.050	-0.860
2020/01/31 22:21:10.4	95.890	0.410	-0.960	-0.800
2020/01/31 22:21:10.5	95.890	0.390	-0.870	-0.730
2020/01/31 22:21:10.6	95.880	0.360	-0.770	-0.670
2020/01/31 22:21:10.7	95.880	0.330	-0.680	-0.600
2020/01/31 22:21:10.8	95.870	0.300	-0.580	-0.520
2020/01/31 22:21:10.9	95.860	0.270	-0.480	-0.450
2020/01/31 22:21:11.0	95.860	0.230	-0.370	-0.370
2020/01/31 22:21:11.1	95.850	0.200	-0.270	-0.300
2020/01/31 22:21:11.2	95.840	0.170	-0.170	-0.220
2020/01/31 22:21:11.3	95.830	0.130	-0.070	-0.140
2020/01/31 22:21:11.4	95.820	0.100	0.020	-0.060
2020/01/31 22:21:11.5	95.810	0.070	0.110	0.020
2020/01/31 22:21:11.6	95.800	0.030	0.200	0.100
2020/01/31 22:21:11.7	95.790	0.000	0.280	0.170
2020/01/31 22:21:11.8	95.780	-0.030	0.360	0.250
2020/01/31 22:21:11.9	95.770	-0.050	0.430	0.330
2020/01/31 22:21:12.0	95.760	-0.080	0.490	0.410
2020/01/31 22:21:12.1	95.750	-0.110	0.550	0.490
2020/01/31 22:21:12.2	95.730	-0.130	0.600	0.570
2020/01/31 22:21:12.3	95.720	-0.150	0.650	0.650
2020/01/31 22:21:12.4	95.700	-0.170	0.690	0.730
2020/01/31 22:21:12.5	95.690	-0.180	0.720	0.810
2020/01/31 22:21:12.6	95.670	-0.200	0.750	0.890
2020/01/31 22:21:12.7	95.650	-0.210	0.760	0.960
2020/01/31 22:21:12.8	95.630	-0.220	0.770	1.040
2020/01/31 22:21:12.9	95.620	-0.230	0.780	1.110
2020/01/31 22:21:13.0	95.600	-0.240	0.780	1.190
2020/01/31 22:21:13.1	95.590	-0.240	0.770	1.260
2020/01/31 22:21:13.2	95.570	-0.240	0.750	1.330
2020/01/31 22:21:13.3	95.550	-0.240	0.730	1.390
2020/01/31 22:21:13.4	95.530	-0.240	0.700	1.460
2020/01/31 22:21:13.5	95.510	-0.240	0.670	1.520
2020/01/31 22:21:13.6	95.500	-0.240	0.630	1.580
2020/01/31 22:21:13.7	95.480	-0.230	0.590	1.630
2020/01/31 22:21:13.8	95.470	-0.220	0.540	1.690
2020/01/31 22:21:13.9	95.460	-0.210	0.490	1.730
2020/01/31 22:21:14.0	95.450	-0.210	0.440	1.780
2020/01/31 22:21:14.1	95.440	-0.200	0.380	1.820
2020/01/31 22:21:14.2	95.440	-0.180	0.320	1.850
2020/01/31 22:21:14.3	95.430	-0.170	0.260	1.890
2020/01/31 22:21:14.4	95.430	-0.160	0.200	1.910
2020/01/31 22:21:14.5	95.420	-0.150	0.140	1.940
2020/01/31 22:21:14.6	95.420	-0.140	0.080	1.960
2020/01/31 22:21:14.7	95.430	-0.120	0.010	1.970
2020/01/31 22:21:14.8	95.430	-0.110	-0.050	1.980
2020/01/31 22:21:14.9	95.440	-0.100	-0.110	1.980
2020/01/31 22:21:15.0	95.440	-0.090	-0.180	1.980
2020/01/31 22:21:15.1	95.450	-0.080	-0.240	1.980
2020/01/31 22:21:15.2	95.460	-0.060	-0.300	1.970
2020/01/31 22:21:15.3	95.470	-0.050	-0.350	1.950
2020/01/31 22:21:15.4	95.480	-0.040	-0.400	1.930
2020/01/31 22:21:15.5	95.500	-0.030	-0.460	1.910
2020/01/31 22:21:15.6	95.510	-0.020	-0.500	1.880
2020/01/31 22:21:15.7	95.530	-0.010	-0.550	1.850
2020/01/31 22:21:15.8	95.540	-0.000	-0.590	1.810
2020/01/31 22:21:15.9	95.560	0.000	-0.630	1.770
2020/01/31 22:21:16.0	95.570	0.010	-0.660	1.730
2020/01/31 22:21:16.1	95.590	0.020	-0.690	1.680
2020/01/31 22:21:16.2	95.600	0.020	-0.710	1.630
2020/01/31 22:21:16.3	95.620	0.030	-0.740	1.580
2020/01/31 22:21:16.4	95.630	0.030	-0.760	1.520
2020/01/31 22:21:16.5	95.650	0.040	-0.770	1.460
2020/01/31 22:21:16.6	95.660	0.040	-0.780	1.400
2020/01/31 22:21:16.7	95.680	0.050	-0.790	1.340
2020/01/31 22:21:16.8	95.690	0.050	-0.790	1.280
2020/01/31 22:21:16.9	95.700	0.050	-0.780	1.220
2020/01/31 22:21:17.0	95.690	0.050	-0.780	1.160
2020/01/31 22:21:17.1	95.700	0.050	-0.770	1.100
2020/01/31 22:21:17.2	95.710	0.050	-0.750	1.030
2020/01/31 22:21:17.3	95.720	0.050	-0.730	0.970
2020/01/31 22:21:17.4	95.720	0.050	-0.710	0.910
2020/01/31 22:21:17.5	95.730	0.050	-0.680	0.840
2020/01/31 22:21:17.6	95.730	0.040	-0.650	0.780
2020/01/31 22:21:17.7	95.740	0.040	-0.620	0.720
2020/01/31 22:21:17.8	95.740	0.030	-0.580	0.650
2020/01/31 22:21:17.9	95.740	0.030	-0.540	0.590
2020/01/31 22:21:18.0	95.740	0.020	-0.510	0.530
2020/01/31 22:21:18.1	95.740	0.020	-0.460	0.470
2020/01/31 22:21:18.2	95.750	0.010	-0.420	0.410
2020/01/31 22:21:18.3	95.750	0.000	-0.380	0.350
2020/01/31 22:21:18.4	95.760	-0.010	-0.330	0.290
2020/01/31 22:21:18.5	95.760	-0.010	-0.290	0.230
2020/01/31 22:21:18.6	95.760	-0.020	-0.240	0.180
2020/01/31 22:21:18.7	95.770	-0.030	-0.190	0.120
2020/01/31 22:21:18.8	95.770	-0.040	-0.150	0.060
2020/01/31 22:21:18.9	95.780	-0.050	-0.110	0.010
2020/01/31 22:21:19.0	95.780	-0.060	-0.060	-0.040
2020/01/31 22:21:19.1	95.780	-0.070	-0.020	-0.090
2020/01/31 22:21:19.2	95.790	-0.080	0.020	-0.150
2020/01/31 22:21:19.3	95.790	-0.090	0.060	-0.200
2020/01/31 22:21:19.4	95.790	-0.110	0.100	-0.250
2020/01/31 22:21:19.5	95.790	-0.120	0.130	-0.300
2020/01/31 22:21:19.6	95.790	-0.130	0.170	-0.350
2020/01/31 22:21:19.7	95.790	-0.140	0.200	-0.400
2020/01/31 22:21:19.8	95.790	-0.150	0.220	-0.450
2020/01/31 22:21:19.9	95.790	-0.160	0.250	-0.490
2020/01/31 22:21:20.0	95.800	-0.170	0.270	-0.540
2020/01/31 22:21:20.1	95.800	-0.180	0.290	-0.590
2020/01/31 22:21:20.2	95.800	-0.190	0.310	-0.640
2020/01/31 22:21:20.3	95.790	-0.200	0.320	-0.690
2020/01/31 22:21:20.4	95.790	-0.210	0.330	-0.730
2020/01/31 22:21:20.5	95.790	-0.220	0.340	-0.780
2020/01/31 22:21:20.6	95.780	-0.230	0.350	-0.820
2020/01/31 22:21:20.7	95.780	-0.240	0.360	-0.860
2020/01/31 22:21:20.8	95.770	-0.250	0.360	-0.900
2020/01/31 22:21:20.9	95.770	-0.250	0.360	-0.940
2020/01/31 22:21:21.0	95.760	-0.260	0.360	-0.980
2020/01/31 22:21:21.1	95.750	-0.260	0.350	-1.010
2020/01/31 22:21:21.2	95.740	-0.260	0.350	-1.040
2020/01/31 22:21:21.3	95.730	-0.260	0.340	-1.070
2020/01/31 22:21:21.4	95.720	-0.260	0.330	-1.100
2020/01/31 22:21:21.5	95.710	-0.260	0.320	-1.120
2020/01/31 22:21:21.6	95.700	-0.260	0.310	-1.140
2020/01/31 22:21:21.7	95.690	-0.260	0.290	-1.150
2020/01/31 22:21:21.8	95.680	-0.250	0.280	-1.160
2020/01/31 22:21:21.9	95.670	-0.240	0.260	-1.170
2020/01/31 22:21:22.0	95.670	-0.230	0.240	-1.180
2020/01/31 22:21:22.1	95.660	-0.220	0.220	-1.180
2020/01/31 22:21:22.2	95.650	-0.200	0.190	-1.180
2020/01/31 22:21:22.3	95.650	-0.190	0.160	-1.170
2020/01/31 22:21:22.4	95.640	-0.170	0.130	-1.170
2020/01/31 22:21:22.5	95.630	-0.150	0.100	-1.160
2020/01/31 22:21:22.6	95.630	-0.130	0.060	-1.150
2020/01/31 22:21:22.7	95.630	-0.100	0.030	-1.140
2020/01/31 22:21:22.8	95.630	-0.080	-0.020	-1.120
2020/01/31 22:21:22.9	95.630	-0.050	-0.060	-1.100
2020/01/31 22:21:23.0	95.630	-0.020	-0.110	-1.090
2020/01/31 22:21:23.1	95.630	0.010	-0.160	-1.070
2020/01/31 22:21:23.2	95.640	0.040	-0.210	-1.040
2020/01/31 22:21:23.3	95.650	0.080	-0.270	-1.020
2020/01/31 22:21:23.4	95.660	0.110	-0.320	-1.000
2020/01/31 22:21:23.5	95.670	0.150	-0.380	-0.980
2020/01/31 22:21:23.6	95.680	0.190	-0.440	-0.950
2020/01/31 22:21:23.7	95.690	0.230	-0.510	-0.930
2020/01/31 22:21:23.8	95.700	0.270	-0.570	-0.900
2020/01/31 22:21:23.9	95.720	0.310	-0.630	-0.870
2020/01/31 22:21:24.0	95.730	0.350	-0.700	-0.850
2020/01/31 22:21:24.1	95.750	0.390	-0.760	-0.820
2020/01/31 22:21:24.2	95.760	0.420	-0.820	-0.790
2020/01/31 22:21:24.3	95.780	0.460	-0.880	-0.760
2020/01/31 22:21:24.4	95.790	0.500	-0.940	-0.720
2020/01/31 22:21:24.5	95.810	0.540	-0.990	-0.690
2020/01/31 22:21:24.6	95.830	0.570	-1.040	-0.660
2020/01/31 22:21:24.7	95.840	0.600	-1.090	-0.620
2020/01/31 22:21:24.8	95.860	0.630	-1.130	-0.590
2020/01/31 22:21:24.9	95.870	0.660	-1.160	-0.550
2020/01/31 22:21:25.0	95.880	0.680	-1.190	-0.510
2020/01/31 22:21:25.1	95.890	0.700	-1.220	-0.470
2020/01/31 22:21:25.2	95.900	0.720	-1.230	-0.430
2020/01/31 22:21:25.3	95.900	0.730	-1.240	-0.390
2020/01/31 22:21:25.4	95.910	0.740	-1.240	-0.350
2020/01/31 22:21:25.5	95.910	0.740	-1.230	-0.300
2020/01/31 22:21:25.6	95.920	0.750	-1.210	-0.260
2020/01/31 22:21:25.7	95.920	0.740	-1.190	-0.210
2020/01/31 22:21:25.8	95.920	0.730	-1.150	-0.160
2020/01/31 22:21:25.9	95.910	0.720	-1.110	-0.110
2020/01/31 22:21:26.0	95.910	0.700	-1.060	-0.060
2020/01/31 22:21:26.1	95.910	0.680	-1.000	-0.010
2020/01/31 22:21:26.2	95.900	0.660	-0.930	0.040
2020/01/31 22:21:26.3	95.890	0.630	-0.860	0.100
2020/01/31 22:21:26.4	95.870	0.590	-0.770	0.150
2020/01/31 22:21:26.5	95.860	0.560	-0.680	0.210
2020/01/31 22:21:26.6	95.850	0.520	-0.590	0.270
2020/01/31 22:21:26.7	95.830	0.470	-0.490	0.330
2020/01/31 22:21:26.8	95.810	0.420	-0.390	0.390
2020/01/31 22:21:26.9	95.800	0.370	-0.280	0.450
2020/01/31 22:21:27.0	95.780	0.320	-0.170	0.520
2020/01/31 22:21:27.1	95.760	0.270	-0.050	0.580
2020/01/31 22:21:27.2	95.740	0.210	0.060	0.650
2020/01/31 22:21:27.3	95.730	0.150	0.170	0.710
2020/01/31 22:21:27.4	95.710	0.090	0.280	0.780
2020/01/31 22:21:27.5	95.690	0.030	0.390	0.840
2020/01/31 22:21:27.6	95.680	-0.030	0.500	0.900
2020/01/31 22:21:27.7	95.660	-0.090	0.600	0.970
2020/01/31 22:21:27.8	95.650	-0.150	0.700	1.030
2020/01/31 22:21:27.9	95.630	-0.200	0.790	1.080
2020/01/31 22:21:28.0	95.620	-0.260	0.880	1.140
2020/01/31 22:21:28.1	95.610	-0.320	0.960	1.190
2020/01/31 22:21:28.2	95.610	-0.370	1.030	1.240
2020/01/31 22:21:28.3	95.600	-0.420	1.090	1.290
2020/01/31 22:21:28.4	95.600	-0.470	1.140	1.330
2020/01/31 22:21:28.5	95.590	-0.510	1.190	1.370
2020/01/31 22:21:28.6	95.590	-0.560	1.220	1.410
2020/01/31 22:21:28.7	95.600	-0.590	1.240	1.440
2020/01/31 22:21:28.8	95.600	-0.630	1.260	1.460
2020/01/31 22:21:28.9	95.610	-0.660	1.260	1.480
2020/01/31 22:21:29.0	95.620	-0.680	1.250	1.500
2020/01/31 22:21:29.1	95.630	-0.710	1.230	1.510
2020/01/31 22:21:29.2	95.640	-0.720	1.200	1.510
2020/01/31 22:21:29.3	95.660	-0.740	1.160	1.510
2020/01/31 22:21:29.4	95.670	-0.740	1.110	1.510
2020/01/31 22:21:29.5	95.690	-0.750	1.050	1.500
2020/01/31 22:21:29.6	95.710	-0.750	0.980	1.480
2020/01/31 22:21:29.7	95.720	-0.740	0.910	1.460
2020/01/31 22:21:29.8	95.740	-0.730	0.820	1.440
2020/01/31 22:21:29.9	95.760	-0.720	0.730	1.410
2020/01/31 22:21:30.0	95.780	-0.700	0.640	1.390
2020/01/31 22:21:30.1	95.800	-0.680	0.530	1.360
2020/01/31 22:21:30.2	95.810	-0.650	0.430	1.320
2020/01/31 22:21:30.3	95.830	-0.620	0.320	1.280
2020/01/31 22:21:30.4	95.850	-0.590	0.210	1.240
2020/01/31 22:21:30.5	95.860	-0.560	0.090	1.200
2020/01/31 22:21:30.6	95.880	-0.520	-0.020	1.160
2020/01/31 22:21:30.7	95.890	-0.480	-0.130	1.120
2020/01/31 22:21:30.8	95.900	-0.440	-0.250	1.070
2020/01/31 22:21:30.9	95.910	-0.390	-0.360	1.030
2020/01/31 22:21:31.0	95.920	-0.350	-0.470	0.980
2020/01/31 22:21:31.1	95.930	-0.300	-0.570	0.930
2020/01/31 22:21:31.2	95.940	-0.260	-0.670	0.890
2020/01/31 22:21:31.3	95.950	-0.210	-0.770	0.840
2020/01/31 22:21:31.4	95.950	-0.170	-0.850	0.800
2020/01/31 22:21:31.5	95.960	-0.120	-0.930	0.760
2020/01/31 22:21:31.6	95.970	-0.080	-1.010	0.710
2020/01/31 22:21:31.7	95.970	-0.030	-1.080	0.670
2020/01/31 22:21:31.8	95.980	0.010	-1.130	0.630
2020/01/31 22:21:31.9	95.990	0.050	-1.180	0.580
2020/01/31 22:21:32.0	95.990	0.090	-1.220	0.540
2020/01/31 22:21:32.1	96.000	0.130	-1.260	0.500
2020/01/31 22:21:32.2	96.010	0.170	-1.280	0.460
2020/01/31 22:21:32.3	96.010	0.200	-1.300	0.420
2020/01/31 22:21:32.4	96.020	0.230	-1.310	0.380
2020/01/31 22:21:32.5	96.030	0.260	-1.310	0.340
2020/01/31 22:21:32.6	96.040	0.290	-1.310	0.300
2020/01/31 22:21:32.7	96.040	0.310	-1.290	0.260
2020/01/31 22:21:32.8	96.050	0.330	-1.270	0.230
2020/01/31 22:21:32.9	96.060	0.350	-1.250	0.190
2020/01/31 22:21:33.0	96.050	0.370	-1.210	0.150
2020/01/31 22:21:33.1	96.060	0.390	-1.170	0.120
2020/01/31 22:21:33.2	96.070	0.400	-1.130	0.080
2020/01/31 22:21:33.3	96.070	0.410	-1.080	0.050
2020/01/31 22:21:33.4	96.080	0.420	-1.020	0.020
2020/01/31 22:21:33.5	96.090	0.420	-0.960	-0.010
2020/01/31 22:21:33.6	96.090	0.430	-0.900	-0.040
2020/01/31 22:21:33.7	96.090	0.430	-0.840	-0.070
2020/01/31 22:21:33.8	96.100	0.430	-0.770	-0.100
2020/01/31 22:21:33.9	96.100	0.420	-0.700	-0.120
2020/01/31 22:21:34.0	96.100	0.420	-0.620	-0.150
2020/01/31 22:21:34.1	96.100	0.410	-0.550	-0.170
2020/01/31 22:21:34.2	96.100	0.400	-0.470	-0.200
2020/01/31 22:21:34.3	96.090	0.390	-0.400	-0.220
2020/01/31 22:21:34.4	96.090	0.380	-0.320	-0.240
2020/01/31 22:21:34.5	96.090	0.370	-0.250	-0.260
2020/01/31 22:21:34.6	96.080	0.350	-0.180	-0.280
2020/01/31 22:21:34.7	96.080	0.340	-0.110	-0.300
2020/01/31 22:21:34.8	96.070	0.320	-0.040	-0.320
2020/01/31 22:21:34.9	96.060	0.300	0.020	-0.340
2020/01/31 22:21:35.0	96.050	0.280	0.080	-0.360
2020/01/31 22:21:35.1	96.040	0.260	0.140	-0.370
2020/01/31 22:21:35.2	96.030	0.250	0.190	-0.390
2020/01/31 22:21:35.3	96.020	0.230	0.240	-0.400
2020/01/31 22:21:35.4	96.010	0.200	0.290	-0.410
2020/01/31 22:21:35.5	96.000	0.180	0.330	-0.420
2020/01/31 22:21:35.6	95.990	0.160	0.360	-0.430
2020/01/31 22:21:35.7	95.980	0.140	0.400	-0.440
2020/01/31 22:21:35.8	95.960	0.120	0.420	-0.450
2020/01/31 22:21:35.9	95.950	0.100	0.440	-0.450
2020/01/31 22:21:36.0	95.940	0.080	0.460	-0.460
2020/01/31 22:21:36.1	95.930	0.060	0.480	-0.460
2020/01/31 22:21:36.2	95.920	0.040	0.490	-0.460
2020/01/31 22:21:36.3	95.900	0.020	0.490	-0.460
2020/01/31 22:21:36.4	95.890	0.000	0.490	-0.450
2020/01/31 22:21:36.5	95.880	-0.020	0.490	-0.450
2020/01/31 22:21:36.6	95.870	-0.040	0.480	-0.440
2020/01/31 22:21:36.7	95.860	-0.060	0.470	-0.430
2020/01/31 22:21:36.8	95.840	-0.070	0.460	-0.420
2020/01/31 22:21:36.9	95.830	-0.090	0.440	-0.410
2020/01/31 22:21:37.0	95.820	-0.110	0.420	-0.390
2020/01/31 22:21:37.1	95.810	-0.130	0.400	-0.380
2020/01/31 22:21:37.2	95.800	-0.150	0.380	-0.360
2020/01/31 22:21:37.3	95.790	-0.170	0.360	-0.340
2020/01/31 22:21:37.4	95.780	-0.190	0.330	-0.320
2020/01/31 22:21:37.5	95.770	-0.200	0.300	-0.290
2020/01/31 22:21:37.6	95.760	-0.220	0.280	-0.270
2020/01/31 22:21:37.7	95.750	-0.240	0.250	-0.240
2020/01/31 22:21:37.8	95.740	-0.260	0.220	-0.220
2020/01/31 22:21:37.9	95.730	-0.270	0.190	-0.190
2020/01/31 22:21:38.0	95.710	-0.290	0.160	-0.160
2020/01/31 22:21:38.1	95.710	-0.310	0.130	-0.130
2020/01/31 22:21:38.2	95.700	-0.320	0.100	-0.100
2020/01/31 22:21:38.3	95.690	-0.330	0.070	-0.070
2020/01/31 22:21:38.4	95.680	-0.350	0.040	-0.040
2020/01/31 22:21:38.5	95.670	-0.360	0.010	-0.010
2020/01/31 22:21:38.6	95.660	-0.370	-0.020	0.010
2020/01/31 22:21:38.7	95.650	-0.380	-0.050	0.040
2020/01/31 22:21:38.8	95.650	-0.390	-0.090	0.070
2020/01/31 22:21:38.9	95.640	-0.400	-0.120	0.090
2020/01/31 22:21:39.0	95.630	-0.400	-0.150	0.110
2020/01/31 22:21:39.1	95.630	-0.410	-0.180	0.140
2020/01/31 22:21:39.2	95.620	-0.410	-0.210	0.160
2020/01/31 22:21:39.3	95.620	-0.410	-0.240	0.180
2020/01/31 22:21:39.4	95.620	-0.410	-0.270	0.200
2020/01/31 22:21:39.5	95.620	-0.410	-0.300	0.210
2020/01/31 22:21:39.6	95.620	-0.400	-0.330	0.230
2020/01/31 22:21:39.7	95.620	-0.390	-0.360	0.240
2020/01/31 22:21:39.8	95.620	-0.380	-0.390	0.250
2020/01/31 22:21:39.9	95.630	-0.370	-0.420	0.260
2020/01/31 22:21:40.0	95.630	-0.360	-0.440	0.270
2020/01/31 22:21:40.1	95.640	-0.340	-0.470	0.280
2020/01/31 22:21:40.2	95.650	-0.320	-0.490	0.280
2020/01/31 22:21:40.3	95.660	-0.300	-0.520	0.280
2020/01/31 22:21:40.4	95.670	-0.280	-0.540	0.280
2020/01/31 22:21:40.5	95.690	-0.250	-0.560	0.280
2020/01/31 22:21:40.6	95.700	-0.220	-0.580	0.280
2020/01/31 22:21:40.7	95.720	-0.190	-0.600	0.270
2020/01/31 22:21:40.8	95.740	-0.160	-0.620	0.270
2020/01/31 22:21:40.9	95.750	-0.130	-0.640	0.270
2020/01/31 22:21:41.0	95.770	-0.090	-0.650	0.260
2020/01/31 22:21:41.1	95.790	-0.060	-0.660	0.250
2020/01/31 22:21:41.2	95.810	-0.020	-0.670	0.250
2020/01/31 22:21:41.3	95.830	0.020	-0.680	0.240
2020/01/31 22:21:41.4	95.850	0.060	-0.690	0.240
2020/01/31 22:21:41.5	95.880	0.100	-0.690	0.230
2020/01/31 22:21:41.6	95.900	0.140	-0.700	0.230
2020/01/31 22:21:41.7	95.920	0.180	-0.700	0.230
2020/01/31 22:21:41.8	95.940	0.220	-0.690	0.220
2020/01/31 22:21:41.9	95.950	0.260	-0.690	0.220
2020/01/31 22:21:42.0	95.980	0.300	-0.680	0.230
2020/01/31 22:21:42.1	95.990	0.340	-0.670	0.230
2020/01/31 22:21:42.2	96.010	0.380	-0.660	0.230
2020/01/31 22:21:42.3	96.030	0.420	-0.640	0.240
2020/01/31 22:21:42.4	96.040	0.450	-0.620	0.240
2020/01/31 22:21:42.5	96.050	0.480	-0.600	0.250
2020/01/31 22:21:42.6	96.060	0.510	-0.580	0.250
2020/01/31 22:21:42.7	96.070	0.540	-0.550	0.260
2020/01/31 22:21:42.8	96.080	0.570	-0.520	0.270
2020/01/31 22:21:42.9	96.090	0.590	-0.490	0.270
2020/01/31 22:21:43.0	96.090	0.610	-0.460	0.280
2020/01/31 22:21:43.1	96.100	0.620	-0.420	0.290
2020/01/31 22:21:43.2	96.100	0.630	-0.390	0.300
2020/01/31 22:21:43.3	96.100	0.640	-0.350	0.300
2020/01/31 22:21:43.4	96.100	0.650	-0.310	0.310
2020/01/31 22:21:43.5	96.100	0.650	-0.270	0.310
2020/01/31 22:21:43.6	96.100	0.650	-0.230	0.320
2020/01/31 22:21:43.7	96.090	0.640	-0.190	0.320
2020/01/31 22:21:43.8	96.090	0.630	-0.150	0.320
2020/01/31 22:21:43.9	96.080	0.620	-0.110	0.330
2020/01/31 22:21:44.0	96.070	0.600	-0.080	0.320
2020/01/31 22:21:44.1	96.060	0.580	-0.040	0.320
2020/01/31 22:21:44.2	96.050	0.560	-0.000	0.320
2020/01/31 22:21:44.3	96.040	0.530	0.030	0.320
2020/01/31 22:21:44.4	96.020	0.500	0.060	0.320
2020/01/31 22:21:44.5	96.010	0.470	0.100	0.320
2020/01/31 22:21:44.6	95.990	0.440	0.130	0.310
2020/01/31 22:21:44.7	95.980	0.400	0.150	0.310
2020/01/31 22:21:44.8	95.960	0.370	0.180	0.310
2020/01/31 22:21:44.9	95.940	0.330	0.200	0.300
2020/01/31 22:21:45.0	95.920	0.290	0.220	0.300
2020/01/31 22:21:45.1	95.900	0.250	0.240	0.300
2020/01/31 22:21:45.2	95.880	0.210	0.260	0.300
2020/01/31 22:21:45.3	95.860	0.170	0.270	0.290
2020/01/31 22:21:45.4	95.840	0.130	0.280	0.290
2020/01/31 22:21:45.5	95.820	0.090	0.290	0.290
2020/01/31 22:21:45.6	95.800	0.050	0.300	0.290
2020/01/31 22:21:45.7	95.780	0.010	0.310	0.290
2020/01/31 22:21:45.8	95.770	-0.030	0.310	0.290
2020/01/31 22:21:45.9	95.750	-0.070	0.310	0.290
2020/01/31 22:21:46.0	95.730	-0.110	0.310	0.290
2020/01/31 22:21:46.1	95.710	-0.140	0.300	0.290
2020/01/31 22:21:46.2	95.700	-0.180	0.300	0.300
2020/01/31 22:21:46.3	95.680	-0.210	0.290	0.300
2020/01/31 22:21:46.4	95.670	-0.240	0.280	0.310
2020/01/31 22:21:46.5	95.650	-0.260	0.270	0.310
2020/01/31 22:21:46.6	95.640	-0.290	0.260	0.320
2020/01/31 22:21:46.7	95.630	-0.310	0.250	0.320
2020/01/31 22:21:46.8	95.620	-0.340	0.230	0.330
2020/01/31 22:21:46.9	95.610	-0.350	0.210	0.340
2020/01/31 22:21:47.0	95.610	-0.370	0.190	0.350
2020/01/31 22:21:47.1	95.600	-0.390	0.170	0.350
2020/01/31 22:21:47.2	95.600	-0.400	0.150	0.360
2020/01/31 22:21:47.3	95.590	-0.410	0.130	0.360
2020/01/31 22:21:47.4	95.590	-0.420	0.110	0.360
2020/01/31 22:21:47.5	95.590	-0.430	0.080	0.360
2020/01/31 22:21:47.6	95.590	-0.430	0.060	0.360
2020/01/31 22:21:47.7	95.600	-0.430	0.030	0.370
2020/01/31 22:21:47.8	95.600	-0.430	0.010	0.360
2020/01/31 22:21:47.9	95.600	-0.430	-0.020	0.360
2020/01/31 22:21:48.0	95.600	-0.430	-0.040	0.360
2020/01/31 22:21:48.1	95.610	-0.430	-0.060	0.350
2020/01/31 22:21:48.2	95.620	-0.420	-0.090	0.350
2020/01/31 22:21:48.3	95.630	-0.420	-0.110	0.340
2020/01/31 22:21:48.4	95.640	-0.410	-0.130	0.330
2020/01/31 22:21:48.5	95.650	-0.400	-0.150	0.320
2020/01/31 22:21:48.6	95.670	-0.390	-0.170	0.310
2020/01/31 22:21:48.7	95.680	-0.380	-0.190	0.300
2020/01/31 22:21:48.8	95.690	-0.370	-0.200	0.280
2020/01/31 22:21:48.9	95.710	-0.350	-0.220	0.270
2020/01/31 22:21:49.0	95.730	-0.340	-0.230	0.250
2020/01/31 22:21:49.1	95.740	-0.320	-0.250	0.230
2020/01/31 22:21:49.2	95.760	-0.310	-0.260	0.210
2020/01/31 22:21:49.3	95.780	-0.290	-0.270	0.190
2020/01/31 22:21:49.4	95.800	-0.270	-0.280	0.170
2020/01/31 22:21:49.5	95.820	-0.260	-0.300	0.150
2020/01/31 22:21:49.6	95.830	-0.240	-0.310	0.130
2020/01/31 22:21:49.7	95.850	-0.220	-0.320	0.100
2020/01/31 22:21:49.8	95.870	-0.200	-0.330	0.080
2020/01/31 22:21:49.9	95.890	-0.180	-0.340	0.060
2020/01/31 22:21:50.0	95.910	-0.150	-0.350	0.040
2020/01/31 22:21:50.1	95.930	-0.130	-0.360	0.020
2020/01/31 22:21:50.2	95.950	-0.110	-0.370	-0.010
2020/01/31 22:21:50.3	95.960	-0.080	-0.380	-0.030
2020/01/31 22:21:50.4	95.980	-0.060	-0.390	-0.050
2020/01/31 22:21:50.5	96.000	-0.040	-0.400	-0.070
2020/01/31 22:21:50.6	96.020	-0.010	-0.410	-0.090
2020/01/31 22:21:50.7	96.030	0.010	-0.420	-0.110
2020/01/31 22:21:50.8	96.050	0.040	-0.430	-0.120
2020/01/31 22:21:50.9	96.070	0.070	-0.440	-0.140
2020/01/31 22:21:51.0	96.070	0.090	-0.450	-0.160
2020/01/31 22:21:51.1	96.090	0.120	-0.460	-0.180
2020/01/31 22:21:51.2	96.100	0.150	-0.470	-0.190
2020/01/31 22:21:51.3	96.120	0.170	-0.480	-0.200
2020/01/31 22:21:51.4	96.130	0.200	-0.500	-0.220
2020/01/31 22:21:51.5	96.140	0.220	-0.510	-0.230
2020/01/31 22:21:51.6	96.150	0.250	-0.520	-0.240
2020/01/31 22:21:51.7	96.160	0.270	-0.530	-0.250
2020/01/31 22:21:51.8	96.170	0.300	-0.540	-0.250
2020/01/31 22:21:51.9	96.170	0.320	-0.550	-0.260
2020/01/31 22:21:52.0	96.170	0.340	-0.560	-0.260
2020/01/31 22:21:52.1	96.180	0.360	-0.570	-0.270
2020/01/31 22:21:52.2	96.180	0.380	-0.580	-0.270
2020/01/31 22:21:52.3	96.180	0.400	-0.590	-0.260
2020/01/31 22:21:52.4	96.170	0.410	-0.590	-0.260
2020/01/31 22:21:52.5	96.170	0.430	-0.590	-0.250
2020/01/31 22:21:52.6	96.160	0.440	-0.600	-0.240
2020/01/31 22:21:52.7	96.160	0.450	-0.590	-0.230
2020/01/31 22:21:52.8	96.150	0.460	-0.590	-0.220
2020/01/31 22:21:52.9	96.140	0.460	-0.580	-0.200
2020/01/31 22:21:53.0	96.120	0.460	-0.570	-0.180
2020/01/31 22:21:53.1	96.110	0.460	-0.560	-0.160
2020/01/31 22:21:53.2	96.090	0.460	-0.540	-0.130
2020/01/31 22:21:53.3	96.080	0.460	-0.520	-0.110
2020/01/31 22:21:53.4	96.060	0.450	-0.500	-0.080
2020/01/31 22:21:53.5	96.040	0.440	-0.480	-0.050
2020/01/31 22:21:53.6	96.020	0.420	-0.450	-0.020
2020/01/31 22:21:53.7	96.010	0.410	-0.410	0.010
2020/01/31 22:21:53.8	95.990	0.390	-0.380	0.050
2020/01/31 22:21:53.9	95.970	0.360	-0.340	0.080
2020/01/31 22:21:54.0	95.950	0.340	-0.300	0.120
2020/01/31 22:21:54.1	95.930	0.310	-0.260	0.150
2020/01/31 22:21:54.2	95.910	0.280	-0.210	0.190
2020/01/31 22:21:54.3	95.890	0.250	-0.160	0.220
2020/01/31 22:21:54.4	95.870	0.220	-0.120	0.260
2020/01/31 22:21:54.5	95.850	0.180	-0.070	0.290
2020/01/31 22:21:54.6	95.830	0.140	-0.010	0.320
2020/01/31 22:21:54.7	95.810	0.100	0.040	0.350
2020/01/31 22:21:54.8	95.800	0.060	0.090	0.380
2020/01/31 22:21:54.9	95.780	0.020	0.140	0.410
2020/01/31 22:21:55.0	95.770	-0.020	0.190	0.440
2020/01/31 22:21:55.1	95.750	-0.060	0.240	0.470
2020/01/31 22:21:55.2	95.740	-0.110	0.290	0.500
2020/01/31 22:21:55.3	95.730	-0.150	0.340	0.520
2020/01/31 22:21:55.4	95.720	-0.190	0.380	0.540
2020/01/31 22:21:55.5	95.710	-0.230	0.420	0.570
2020/01/31 22:21:55.6	95.710	-0.270	0.460	0.590
2020/01/31 22:21:55.7	95.700	-0.310	0.490	0.600
2020/01/31 22:21:55.8	95.700	-0.350	0.520	0.620
2020/01/31 22:21:55.9	95.700	-0.380	0.550	0.630
2020/01/31 22:21:56.0	95.690	-0.410	0.570	0.650
2020/01/31 22:21:56.1	95.690	-0.440	0.590	0.660
2020/01/31 22:21:56.2	95.700	-0.470	0.600	0.670
2020/01/31 22:21:56.3	95.700	-0.490	0.600	0.670
2020/01/31 22:21:56.4	95.710	-0.510	0.600	0.680
2020/01/31 22:21:56.5	95.730	-0.520	0.590	0.680
2020/01/31 22:21:56.6	95.740	-0.540	0.580	0.680
2020/01/31 22:21:56.7	95.750	-0.540	0.560	0.670
2020/01/31 22:21:56.8	95.770	-0.550	0.530	0.670
2020/01/31 22:21:56.9	95.790	-0.550	0.500	0.660
2020/01/31 22:21:57.0	95.820	-0.540	0.460	0.650
2020/01/31 22:21:57.1	95.840	-0.530	0.420	0.640
2020/01/31 22:21:57.2	95.860	-0.520	0.370	0.620
2020/01/31 22:21:57.3	95.890	-0.500	0.320	0.610
2020/01/31 22:21:57.4	95.920	-0.480	0.260	0.590
2020/01/31 22:21:57.5	95.950	-0.460	0.200	0.570
2020/01/31 22:21:57.6	95.980	-0.430	0.140	0.550
2020/01/31 22:21:57.7	96.010	-0.400	0.070	0.530
2020/01/31 22:21:57.8	96.040	-0.360	-0.000	0.500
2020/01/31 22:21:57.9	96.070	-0.330	-0.070	0.480
2020/01/31 22:21:58.0	96.090	-0.290	-0.150	0.450
2020/01/31 22:21:58.1	96.120	-0.250	-0.220	0.420
2020/01/31 22:21:58.2	96.150	-0.210	-0.290	0.390
2020/01/31 22:21:58.3	96.180	-0.170	-0.360	0.370
2020/01/31 22:21:58.4	96.210	-0.120	-0.430	0.340
2020/01/31 22:21:58.5	96.240	-0.080	-0.500	0.310
2020/01/31 22:21:58.6	96.260	-0.040	-0.560	0.280
2020/01/31 22:21:58.7	96.290	0.010	-0.630	0.250
2020/01/31 22:21:58.8	96.310	0.050	-0.680	0.230
2020/01/31 22:21:58.9	96.330	0.090	-0.730	0.200
2020/01/31 22:21:59.0	96.350	0.130	-0.780	0.170
2020/01/31 22:21:59.1	96.370	0.170	-0.820	0.150
2020/01/31 22:21:59.2	96.380	0.200	-0.850	0.130
2020/01/31 22:21:59.3	96.390	0.230	-0.880	0.110
2020/01/31 22:21:59.4	96.400	0.260	-0.900	0.090
2020/01/31 22:21:59.5	96.410	0.290	-0.920	0.080
2020/01/31 22:21:59.6	96.420	0.310	-0.930	0.060
2020/01/31 22:21:59.7	96.420	0.330	-0.930	0.050
2020/01/31 22:21:59.8	96.420	0.350	-0.930	0.040
2020/01/31 22:21:59.9	96.420	0.370	-0.920	0.040
2020/01/31 22:22:00.0	96.410	0.380	-0.910	0.030
2020/01/31 22:22:00.1	96.400	0.390	-0.890	0.030
2020/01/31 22:22:00.2	96.400	0.390	-0.870	0.030
2020/01/31 22:22:00.3	96.380	0.400	-0.840	0.030
2020/01/31 22:22:00.4	96.370	0.400	-0.810	0.040
2020/01/31 22:22:00.5	96.360	0.390	-0.780	0.050
2020/01/31 22:22:00.6	96.340	0.390	-0.740	0.060
2020/01/31 22:22:00.7	96.320	0.380	-0.710	0.070
2020/01/31 22:22:00.8	96.300	0.370	-0.670	0.080
2020/01/31 22:22:00.9	96.280	0.360	-0.630	0.100
2020/01/31 22:22:01.0	96.260	0.350	-0.580	0.120
2020/01/31 22:22:01.1	96.240	0.340	-0.540	0.140
2020/01/31 22:22:01.2	96.220	0.330	-0.500	0.150
2020/01/31 22:22:01.3	96.190	0.310	-0.460	0.180
2020/01/31 22:22:01.4	96.170	0.300	-0.420	0.200
2020/01/31 22:22:01.5	96.140	0.280	-0.380	0.220
2020/01/31 22:22:01.6	96.120	0.270	-0.340	0.240
2020/01/31 22:22:01.7	96.100	0.250	-0.300	0.260
2020/01/31 22:22:01.8	96.080	0.240	-0.270	0.290
2020/01/31 22:22:01.9	96.050	0.230	-0.230	0.310
2020/01/31 22:22:02.0	96.030	0.210	-0.200	0.330
2020/01/31 22:22:02.1	96.010	0.200	-0.170	0.340
2020/01/31 22:22:02.2	96.000	0.190	-0.140	0.360
2020/01/31 22:22:02.3	95.980	0.180	-0.110	0.380
2020/01/31 22:22:02.4	95.970	0.160	-0.080	0.390
2020/01/31 22:22:02.5	95.960	0.150	-0.050	0.410
2020/01/31 22:22:02.6	95.960	0.150	-0.030	0.420
2020/01/31 22:22:02.7	95.950	0.140	-0.000	0.420
2020/01/31 22:22:02.8	95.950	0.130	0.020	0.430
2020/01/31 22:22:02.9	95.950	0.120	0.050	0.430
2020/01/31 22:22:03.0	95.960	0.120	0.070	0.430
2020/01/31 22:22:03.1	95.960	0.110	0.090	0.430
2020/01/31 22:22:03.2	95.970	0.110	0.120	0.420
2020/01/31 22:22:03.3	95.990	0.100	0.140	0.410
2020/01/31 22:22:03.4	96.000	0.100	0.160	0.400
2020/01/31 22:22:03.5	96.020	0.090	0.180	0.390
2020/01/31 22:22:03.6	96.040	0.080	0.210	0.370
2020/01/31 22:22:03.7	96.060	0.080	0.230	0.360
2020/01/31 22:22:03.8	96.080	0.070	0.250	0.340
2020/01/31 22:22:03.9	96.100	0.070	0.270	0.320
2020/01/31 22:22:04.0	96.140	0.060	0.290	0.300
2020/01/31 22:22:04.1	96.160	0.050	0.310	0.270
2020/01/31 22:22:04.2	96.190	0.040	0.340	0.250
2020/01/31 22:22:04.3	96.210	0.030	0.360	0.220
2020/01/31 22:22:04.4	96.240	0.020	0.380	0.190
2020/01/31 22:22:04.5	96.260	0.010	0.390	0.160
2020/01/31 22:22:04.6	96.290	0.000	0.410	0.130
2020/01/31 22:22:04.7	96.320	-0.010	0.430	0.100
2020/01/31 22:22:04.8	96.340	-0.020	0.450	0.070
2020/01/31 22:22:04.9	96.370	-0.030	0.460	0.040
2020/01/31 22:22:05.0	96.400	-0.050	0.480	0.000
2020/01/31 22:22:05.1	96.420	-0.060	0.490	-0.030
2020/01/31 22:22:05.2	96.440	-0.080	0.500	-0.060
2020/01/31 22:22:05.3	96.460	-0.090	0.500	-0.100
2020/01/31 22:22:05.4	96.480	-0.110	0.510	-0.130
2020/01/31 22:22:05.5	96.490	-0.120	0.510	-0.160
2020/01/31 22:22:05.6	96.510	-0.140	0.510	-0.190
2020/01/31 22:22:05.7	96.520	-0.150	0.510	-0.220
2020/01/31 22:22:05.8	96.530	-0.160	0.500	-0.250
2020/01/31 22:22:05.9	96.540	-0.180	0.490	-0.270
2020/01/31 22:22:06.0	96.540	-0.190	0.480	-0.290
2020/01/31 22:22:06.1	96.550	-0.200	0.460	-0.310
2020/01/31 22:22:06.2	96.550	-0.210	0.440	-0.330
2020/01/31 22:22:06.3	96.550	-0.220	0.420	-0.350
2020/01/31 22:22:06.4	96.550	-0.230	0.390	-0.360
2020/01/31 22:22:06.5	96.550	-0.230	0.350	-0.380
2020/01/31 22:22:06.6	96.550	-0.240	0.320	-0.390
2020/01/31 22:22:06.7	96.540	-0.240	0.270	-0.390
2020/01/31 22:22:06.8	96.540	-0.240	0.230	-0.400
2020/01/31 22:22:06.9	96.530	-0.240	0.180	-0.400
2020/01/31 22:22:07.0	96.520	-0.240	0.120	-0.400
2020/01/31 22:22:07.1	96.510	-0.230	0.070	-0.400
2020/01/31 22:22:07.2	96.500	-0.220	0.000	-0.390
2020/01/31 22:22:07.3	96.490	-0.210	-0.060	-0.390
2020/01/31 22:22:07.4	96.480	-0.200	-0.130	-0.380
2020/01/31 22:22:07.5	96.470	-0.190	-0.200	-0.360
2020/01/31 22:22:07.6	96.460	-0.170	-0.270	-0.350
2020/01/31 22:22:07.7	96.450	-0.160	-0.350	-0.340
2020/01/31 22:22:07.8	96.440	-0.140	-0.430	-0.320
2020/01/31 22:22:07.9	96.420	-0.120	-0.500	-0.300
2020/01/31 22:22:08.0	96.400	-0.100	-0.580	-0.280
2020/01/31 22:22:08.1	96.390	-0.080	-0.660	-0.260
2020/01/31 22:22:08.2	96.380	-0.060	-0.730	-0.230
2020/01/31 22:22:08.3	96.370	-0.030	-0.810	-0.210
2020/01/31 22:22:08.4	96.360	-0.010	-0.880	-0.180
2020/01/31 22:22:08.5	96.350	0.010	-0.950	-0.160
2020/01/31 22:22:08.6	96.340	0.040	-1.020	-0.130
2020/01/31 22:22:08.7	96.330	0.060	-1.080	-0.100
2020/01/31 22:22:08.8	96.320	0.080	-1.140	-0.070
2020/01/31 22:22:08.9	96.310	0.100	-1.190	-0.040
2020/01/31 22:22:09.0	96.300	0.120	-1.240	-0.010
2020/01/31 22:22:09.1	96.290	0.140	-1.290	0.020
2020/01/31 22:22:09.2	96.280	0.160	-1.320	0.060
2020/01/31 22:22:09.3	96.270	0.170	-1.350	0.090
2020/01/31 22:22:09.4	96.270	0.190	-1.380	0.130
2020/01/31 22:22:09.5	96.260	0.200	-1.390	0.160
2020/01/31 22:22:09.6	96.250	0.210	-1.400	0.200
2020/01/31 22:22:09.7	96.250	0.220	-1.410	0.240
2020/01/31 22:22:09.8	96.240	0.220	-1.400	0.280
2020/01/31 22:22:09.9	96.230	0.220	-1.380	0.320
2020/01/31 22:22:10.0	96.220	0.220	-1.360	0.350
2020/01/31 22:22:10.1	96.220	0.220	-1.330	0.390
2020/01/31 22:22:10.2	96.210	0.210	-1.290	0.430
2020/01/31 22:22:10.3	96.210	0.200	-1.250	0.470
2020/01/31 22:22:10.4	96.200	0.190	-1.190	0.510
2020/01/31 22:22:10.5	96.200	0.170	-1.130	0.550
2020/01/31 22:22:10.6	96.200	0.150	-1.070	0.580
2020/01/31 22:22:10.7	96.200	0.140	-0.990	0.620
2020/01/31 22:22:10.8	96.200	0.110	-0.910	0.650
2020/01/31 22:22:10.9	96.200	0.090	-0.830	0.680
2020/01/31 22:22:11.0	96.190	0.060	-0.740	0.710
2020/01/31 22:22:11.1	96.190	0.040	-0.640	0.740
2020/01/31 22:22:11.2	96.200	0.010	-0.550	0.760
2020/01/31 22:22:11.3	96.200	-0.020	-0.450	0.790
2020/01/31 22:22:11.4	96.210	-0.050	-0.340	0.800
2020/01/31 22:22:11.5	96.220	-0.080	-0.240	0.820
2020/01/31 22:22:11.6	96.230	-0.120	-0.130	0.830
2020/01/31 22:22:11.7	96.240	-0.150	-0.020	0.840
2020/01/31 22:22:11.8	96.260	-0.180	0.080	0.850
2020/01/31 22:22:11.9	96.270	-0.210	0.190	0.850
2020/01/31 22:22:12.0	96.270	-0.240	0.290	0.850
2020/01/31 22:22:12.1	96.290	-0.270	0.390	0.840
2020/01/31 22:22:12.2	96.300	-0.300	0.490	0.840
2020/01/31 22:22:12.3	96.320	-0.330	0.580	0.830
2020/01/31 22:22:12.4	96.330	-0.360	0.670	0.820
2020/01/31 22:22:12.5	96.350	-0.380	0.750	0.800
2020/01/31 22:22:12.6	96.360	-0.410	0.830	0.780
2020/01/31 22:22:12.7	96.370	-0.430	0.900	0.760
2020/01/31 22:22:12.8	96.380	-0.440	0.970	0.740
2020/01/31 22:22:12.9	96.390	-0.460	1.030	0.710
2020/01/31 22:22:13.0	96.400	-0.470	1.080	0.690
2020/01/31 22:22:13.1	96.410	-0.480	1.130	0.660
2020/01/31 22:22:13.2	96.420	-0.490	1.160	0.630
2020/01/31 22:22:13.3	96.420	-0.490	1.190	0.600
2020/01/31 22:22:13.4	96.430	-0.500	1.210	0.570
2020/01/31 22:22:13.5	96.430	-0.490	1.220	0.530
2020/01/31 22:22:13.6	96.440	-0.490	1.220	0.490
2020/01/31 22:22:13.7	96.440	-0.480	1.210	0.450
2020/01/31 22:22:13.8	96.440	-0.470	1.190	0.410
2020/01/31 22:22:13.9	96.440	-0.450	1.160	0.370
2020/01/31 22:22:14.0	96.450	-0.430	1.130	0.330
2020/01/31 22:22:14.1	96.450	-0.410	1.090	0.280
2020/01/31 22:22:14.2	96.450	-0.390	1.030	0.240
2020/01/31 22:22:14.3	96.450	-0.360	0.970	0.200
2020/01/31 22:22:14.4	96.450	-0.330	0.910	0.150
2020/01/31 22:22:14.5	96.450	-0.300	0.830	0.110
2020/01/31 22:22:14.6	96.450	-0.270	0.750	0.060
2020/01/31 22:22:14.7	96.450	-0.230	0.660	0.020
2020/01/31 22:22:14.8	96.450	-0.190	0.570	-0.030
2020/01/31 22:22:14.9	96.450	-0.150	0.470	-0.070
2020/01/31 22:22:15.0	96.450	-0.110	0.360	-0.120
2020/01/31 22:22:15.1	96.460	-0.070	0.250	-0.170
2020/01/31 22:22:15.2	96.460	-0.030	0.140	-0.210
2020/01/31 22:22:15.3	96.460	0.020	0.030	-0.250
2020/01/31 22:22:15.4	96.470	0.060	-0.090	-0.300
2020/01/31 22:22:15.5	96.470	0.110	-0.210	-0.340
2020/01/31 22:22:15.6	96.480	0.150	-0.320	-0.380
2020/01/31 22:22:15.7	96.490	0.190	-0.440	-0.420
2020/01/31 22:22:15.8	96.490	0.240	-0.550	-0.460
2020/01/31 22:22:15.9	96.500	0.280	-0.670	-0.500
2020/01/31 22:22:16.0	96.500	0.320	-0.780	-0.530
2020/01/31 22:22:16.1	96.510	0.350	-0.880	-0.570
2020/01/31 22:22:16.2	96.520	0.390	-0.980	-0.600
2020/01/31 22:22:16.3	96.530	0.420	-1.070	-0.640
2020/01/31 22:22:16.4	96.540	0.450	-1.160	-0.670
2020/01/31 22:22:16.5	96.550	0.480	-1.230	-0.690
2020/01/31 22:22:16.6	96.550	0.510	-1.300	-0.720
2020/01/31 22:22:16.7	96.560	0.530	-1.370	-0.740
2020/01/31 22:22:16.8	96.570	0.550	-1.420	-0.770
2020/01/31 22:22:16.9	96.570	0.560	-1.460	-0.780
2020/01/31 22:22:17.0	96.580	0.580	-1.490	-0.800
2020/01/31 22:22:17.1	96.580	0.590	-1.510	-0.810
2020/01/31 22:22:17.2	96.580	0.590	-1.520	-0.820
2020/01/31 22:22:17.3	96.580	0.590	-1.520	-0.830
2020/01/31 22:22:17.4	96.580	0.590	-1.510	-0.830
2020/01/31 22:22:17.5	96.580	0.590	-1.490	-0.820
2020/01/31 22:22:17.6	96.580	0.580	-1.460	-0.820
2020/01/31 22:22:17.7	96.570	0.570	-1.420	-0.810
2020/01/31 22:22:17.8	96.570	0.550	-1.370	-0.800
2020/01/31 22:22:17.9	96.560	0.540	-1.320	-0.780
2020/01/31 22:22:18.0	96.570	0.520	-1.250	-0.760
2020/01/31 22:22:18.1	96.560	0.490	-1.180	-0.730
2020/01/31 22:22:18.2	96.550	0.470	-1.100	-0.710
2020/01/31 22:22:18.3	96.540	0.440	-1.010	-0.670
2020/01/31 22:22:18.4	96.530	0.410	-0.910	-0.640
2020/01/31 22:22:18.5	96.530	0.380	-0.810	-0.600
2020/01/31 22:22:18.6	96.510	0.340	-0.710	-0.550
2020/01/31 22:22:18.7	96.500	0.310	-0.610	-0.510
2020/01/31 22:22:18.8	96.490	0.270	-0.500	-0.460
2020/01/31 22:22:18.9	96.480	0.240	-0.390	-0.410
2020/01/31 22:22:19.0	96.470	0.200	-0.280	-0.350
2020/01/31 22:22:19.1	96.460	0.160	-0.170	-0.300
2020/01/31 22:22:19.2	96.450	0.120	-0.060	-0.240
2020/01/31 22:22:19.3	96.440	0.090	0.040	-0.180
2020/01/31 22:22:19.4	96.430	0.050	0.140	-0.130
2020/01/31 22:22:19.5	96.420	0.010	0.240	-0.070
2020/01/31 22:22:19.6	96.410	-0.020	0.330	-0.000
2020/01/31 22:22:19.7	96.400	-0.060	0.420	0.060
2020/01/31 22:22:19.8	96.390	-0.090	0.500	0.120
2020/01/31 22:22:19.9	96.380	-0.130	0.570	0.180
2020/01/31 22:22:20.0	96.390	-0.160	0.640	0.240
2020/01/31 22:22:20.1	96.380	-0.190	0.700	0.290
2020/01/31 22:22:20.2	96.380	-0.210	0.750	0.350
2020/01/31 22:22:20.3	96.370	-0.240	0.790	0.400
2020/01/31 22:22:20.4	96.370	-0.260	0.830	0.460
2020/01/31 22:22:20.5	96.370	-0.280	0.850	0.510
2020/01/31 22:22:20.6	96.370	-0.300	0.870	0.550
2020/01/31 22:22:20.7	96.370	-0.320	0.880	0.600
2020/01/31 22:22:20.8	96.370	-0.330	0.890	0.640
2020/01/31 22:22:20.9	96.380	-0.350	0.880	0.670
2020/01/31 22:22:21.0	96.380	-0.350	0.870	0.710
2020/01/31 22:22:21.1	96.390	-0.360	0.850	0.740
2020/01/31 22:22:21.2	96.400	-0.370	0.820	0.760
2020/01/31 22:22:21.3	96.400	-0.370	0.790	0.780
2020/01/31 22:22:21.4	96.410	-0.370	0.750	0.800
2020/01/31 22:22:21.5	96.420	-0.360	0.700	0.820
2020/01/31 22:22:21.6	96.430	-0.360	0.650	0.830
2020/01/31 22:22:21.7	96.440	-0.350	0.600	0.830
2020/01/31 22:22:21.8	96.450	-0.340	0.540	0.830
2020/01/31 22:22:21.9	96.460	-0.330	0.470	0.830
2020/01/31 22:22:22.0	96.490	-0.320	0.400	0.830
2020/01/31 22:22:22.1	96.500	-0.300	0.340	0.830
2020/01/31 22:22:22.2	96.510	-0.280	0.270	0.820
2020/01/31 22:22:22.3	96.520	-0.260	0.190	0.810
2020/01/31 22:22:22.4	96.530	-0.250	0.120	0.800
2020/01/31 22:22:22.5	96.540	-0.220	0.050	0.790
2020/01/31 22:22:22.6	96.550	-0.200	-0.030	0.770
2020/01/31 22:22:22.7	96.560	-0.180	-0.100	0.760
2020/01/31 22:22:22.8	96.570	-0.160	-0.170	0.750
2020/01/31 22:22:22.9	96.570	-0.130	-0.240	0.730
2020/01/31 22:22:23.0	96.580	-0.110	-0.310	0.720
2020/01/31 22:22:23.1	96.590	-0.080	-0.370	0.710
2020/01/31 22:22:23.2	96.590	-0.060	-0.430	0.700
2020/01/31 22:22:23.3	96.600	-0.030	-0.490	0.690
2020/01/31 22:22:23.4	96.610	-0.010	-0.550	0.680
2020/01/31 22:22:23.5	96.610	0.020	-0.600	0.670
2020/01/31 22:22:23.6	96.620	0.040	-0.650	0.660
2020/01/31 22:22:23.7	96.620	0.060	-0.700	0.650
2020/01/31 22:22:23.8	96.630	0.080	-0.740	0.650
2020/01/31 22:22:23.9	96.630	0.100	-0.770	0.650
2020/01/31 22:22:24.0	96.630	0.120	-0.800	0.640
2020/01/31 22:22:24.1	96.630	0.140	-0.830	0.640
2020/01/31 22:22:24.2	96.640	0.150	-0.850	0.640
2020/01/31 22:22:24.3	96.640	0.160	-0.870	0.640
2020/01/31 22:22:24.4	96.650	0.170	-0.880	0.640
2020/01/31 22:22:24.5	96.650	0.180	-0.890	0.640
2020/01/31 22:22:24.6	96.660	0.190	-0.890	0.640
2020/01/31 22:22:24.7	96.660	0.200	-0.890	0.640
2020/01/31 22:22:24.8	96.670	0.200	-0.890	0.640
2020/01/31 22:22:24.9	96.680	0.200	-0.880	0.640
2020/01/31 22:22:25.0	96.680	0.200	-0.860	0.640
2020/01/31 22:22:25.1	96.690	0.200	-0.850	0.630
2020/01/31 22:22:25.2	96.700	0.190	-0.830	0.630
2020/01/31 22:22:25.3	96.710	0.190	-0.800	0.630
2020/01/31 22:22:25.4	96.720	0.180	-0.780	0.620
2020/01/31 22:22:25.5	96.730	0.170	-0.750	0.610
2020/01/31 22:22:25.6	96.750	0.160	-0.720	0.600
2020/01/31 22:22:25.7	96.760	0.150	-0.680	0.590
2020/01/31 22:22:25.8	96.780	0.130	-0.650	0.570
2020/01/31 22:22:25.9	96.790	0.120	-0.610	0.560
2020/01/31 22:22:26.0	96.800	0.100	-0.570	0.540
2020/01/31 22:22:26.1	96.810	0.090	-0.520	0.520
2020/01/31 22:22:26.2	96.830	0.070	-0.480	0.500
2020/01/31 22:22:26.3	96.840	0.050	-0.430	0.470
2020/01/31 22:22:26.4	96.850	0.030	-0.380	0.450
2020/01/31 22:22:26.5	96.860	0.010	-0.330	0.430
2020/01/31 22:22:26.6	96.870	-0.010	-0.280	0.400
2020/01/31 22:22:26.7	96.880	-0.030	-0.220	0.380
2020/01/31 22:22:26.8	96.880	-0.050	-0.170	0.360
2020/01/31 22:22:26.9	96.890	-0.070	-0.120	0.330
2020/01/31 22:22:27.0	96.890	-0.090	-0.060	0.310
2020/01/31 22:22:27.1	96.890	-0.110	-0.010	0.290
2020/01/31 22:22:27.2	96.890	-0.130	0.050	0.270
2020/01/31 22:22:27.3	96.880	-0.150	0.100	0.250
2020/01/31 22:22:27.4	96.870	-0.160	0.150	0.230
2020/01/31 22:22:27.5	96.860	-0.180	0.200	0.220
2020/01/31 22:22:27.6	96.850	-0.200	0.250	0.200
2020/01/31 22:22:27.7	96.840	-0.210	0.300	0.190
2020/01/31 22:22:27.8	96.820	-0.220	0.340	0.180
2020/01/31 22:22:27.9	96.810	-0.240	0.380	0.170
2020/01/31 22:22:28.0	96.790	-0.250	0.420	0.170
2020/01/31 22:22:28.1	96.770	-0.260	0.460	0.160
2020/01/31 22:22:28.2	96.750	-0.260	0.490	0.160
2020/01/31 22:22:28.3	96.730	-0.270	0.510	0.150
2020/01/31 22:22:28.4	96.700	-0.270	0.530	0.150
2020/01/31 22:22:28.5	96.680	-0.270	0.540	0.150
2020/01/31 22:22:28.6	96.650	-0.270	0.550	0.150
2020/01/31 22:22:28.7	96.620	-0.270	0.550	0.160
2020/01/31 22:22:28.8	96.600	-0.270	0.550	0.160
2020/01/31 22:22:28.9	96.570	-0.260	0.540	0.160
2020/01/31 22:22:29.0	96.540	-0.250	0.530	0.160
2020/01/31 22:22:29.1	96.520	-0.240	0.500	0.170
2020/01/31 22:22:29.2	96.500	-0.230	0.470	0.170
2020/01/31 22:22:29.3	96.470	-0.210	0.440	0.170
2020/01/31 22:22:29.4	96.450	-0.200	0.400	0.160
2020/01/31 22:22:29.5	96.430	-0.180	0.350	0.160
2020/01/31 22:22:29.6	96.420	-0.160	0.300	0.160
2020/01/31 22:22:29.7	96.400	-0.140	0.240	0.150
2020/01/31 22:22:29.8	96.390	-0.120	0.180	0.140
2020/01/31 22:22:29.9	96.380	-0.090	0.120	0.130
2020/01/31 22:22:30.0	96.380	-0.070	0.050	0.120
2020/01/31 22:22:30.1	96.370	-0.040	-0.020	0.100
2020/01/31 22:22:30.2	96.370	-0.010	-0.090	0.080
2020/01/31 22:22:30.3	96.370	0.010	-0.160	0.060
2020/01/31 22:22:30.4	96.370	0.040	-0.240	0.040
2020/01/31 22:22:30.5	96.370	0.070	-0.310	0.020
2020/01/31 22:22:30.6	96.380	0.100	-0.380	-0.010
2020/01/31 22:22:30.7	96.380	0.120	-0.450	-0.030
2020/01/31 22:22:30.8	96.390	0.150	-0.510	-0.060
2020/01/31 22:22:30.9	96.400	0.180	-0.580	-0.090
2020/01/31 22:22:31.0	96.410	0.200	-0.630	-0.120
2020/01/31 22:22:31.1	96.420	0.230	-0.690	-0.150
2020/01/31 22:22:31.2	96.440	0.250	-0.740	-0.180
2020/01/31 22:22:31.3	96.450	0.270	-0.780	-0.210
2020/01/31 22:22:31.4	96.470	0.290	-0.820	-0.240
2020/01/31 22:22:31.5	96.480	0.310	-0.850	-0.280
2020/01/31 22:22:31.6	96.500	0.320	-0.880	-0.310
2020/01/31 22:22:31.7	96.520	0.340	-0.900	-0.340
2020/01/31 22:22:31.8	96.540	0.350	-0.910	-0.370
2020/01/31 22:22:31.9	96.560	0.360	-0.910	-0.400
2020/01/31 22:22:32.0	96.580	0.370	-0.910	-0.430
2020/01/31 22:22:32.1	96.600	0.370	-0.900	-0.460
2020/01/31 22:22:32.2	96.610	0.370	-0.890	-0.480
2020/01/31 22:22:32.3	96.630	0.370	-0.870	-0.500
2020/01/31 22:22:32.4	96.650	0.370	-0.840	-0.520
2020/01/31 22:22:32.5	96.670	0.370	-0.810	-0.540
2020/01/31 22:22:32.6	96.680	0.360	-0.770	-0.560
2020/01/31 22:22:32.7	96.700	0.350	-0.730	-0.570
2020/01/31 22:22:32.8	96.710	0.340	-0.680	-0.580
2020/01/31 22:22:32.9	96.720	0.320	-0.630	-0.590
2020/01/31 22:22:33.0	96.740	0.310	-0.580	-0.590
2020/01/31 22:22:33.1	96.750	0.290	-0.530	-0.590
2020/01/31 22:22:33.2	96.750	0.270	-0.470	-0.590
2020/01/31 22:22:33.3	96.760	0.250	-0.410	-0.580
2020/01/31 22:22:33.4	96.760	0.220	-0.350	-0.570
2020/01/31 22:22:33.5	96.760	0.200	-0.290	-0.560
2020/01/31 22:22:33.6	96.760	0.170	-0.240	-0.540
2020/01/31 22:22:33.7	96.760	0.150	-0.180	-0.520
2020/01/31 22:22:33.8	96.750	0.120	-0.120	-0.500
2020/01/31 22:22:33.9	96.750	0.090	-0.070	-0.470
2020/01/31 22:22:34.0	96.740	0.070	-0.020	-0.450
2020/01/31 22:22:34.1	96.730	0.040	0.030	-0.410
2020/01/31 22:22:34.2	96.720	0.010	0.080	-0.380
2020/01/31 22:22:34.3	96.700	-0.020	0.120	-0.340
2020/01/31 22:22:34.4	96.690	-0.040	0.160	-0.300
2020/01/31 22:22:34.5	96.670	-0.070	0.200	-0.250
2020/01/31 22:22:34.6	96.650	-0.100	0.230	-0.200
2020/01/31 22:22:34.7	96.630	-0.120	0.260	-0.150
2020/01/31 22:22:34.8	96.610	-0.150	0.290	-0.100
2020/01/31 22:22:34.9	96.590	-0.170	0.310	-0.050
2020/01/31 22:22:35.0	96.580	-0.200	0.330	0.010
2020/01/31 22:22:35.1	96.560	-0.220	0.350	0.060
2020/01/31 22:22:35.2	96.530	-0.240	0.370	0.120
2020/01/31 22:22:35.3	96.510	-0.260	0.380	0.170
2020/01/31 22:22:35.4	96.490	-0.270	0.390	0.230
2020/01/31 22:22:35.5	96.470	-0.290	0.390	0.280
2020/01/31 22:22:35.6	96.450	-0.300	0.400	0.340
2020/01/31 22:22:35.7	96.430	-0.310	0.400	0.390
2020/01/31 22:22:35.8	96.410	-0.320	0.390	0.440
2020/01/31 22:22:35.9	96.400	-0.330	0.390	0.490
2020/01/31 22:22:36.0	96.390	-0.340	0.380	0.540
2020/01/31 22:22:36.1	96.370	-0.340	0.370	0.590
2020/01/31 22:22:36.2	96.360	-0.340	0.350	0.630
2020/01/31 22:22:36.3	96.350	-0.340	0.340	0.670
2020/01/31 22:22:36.4	96.340	-0.340	0.320	0.710
2020/01/31 22:22:36.5	96.340	-0.330	0.300	0.740
2020/01/31 22:22:36.6	96.330	-0.330	0.280	0.780
2020/01/31 22:22:36.7	96.330	-0.320	0.250	0.810
2020/01/31 22:22:36.8	96.320	-0.310	0.220	0.840
2020/01/31 22:22:36.9	96.320	-0.290	0.200	0.870
2020/01/31 22:22:37.0	96.320	-0.280	0.170	0.890
2020/01/31 22:22:37.1	96.320	-0.260	0.130	0.920
2020/01/31 22:22:37.2	96.320	-0.250	0.100	0.940
2020/01/31 22:22:37.3	96.330	-0.230	0.060	0.960
2020/01/31 22:22:37.4	96.330	-0.210	0.020	0.980
2020/01/31 22:22:37.5	96.340	-0.190	-0.020	1.000
2020/01/31 22:22:37.6	96.350	-0.160	-0.060	1.010
2020/01/31 22:22:37.7	96.350	-0.140	-0.110	1.020
2020/01/31 22:22:37.8	96.370	-0.120	-0.150	1.030
2020/01/31 22:22:37.9	96.380	-0.090	-0.200	1.040
2020/01/31 22:22:38.0	96.380	-0.070	-0.250	1.050
2020/01/31 22:22:38.1	96.390	-0.040	-0.290	1.050
2020/01/31 22:22:38.2	96.410	-0.020	-0.340	1.060
2020/01/31 22:22:38.3	96.420	0.000	-0.390	1.050
2020/01/31 22:22:38.4	96.440	0.030	-0.430	1.050
2020/01/31 22:22:38.5	96.460	0.050	-0.480	1.050
2020/01/31 22:22:38.6	96.480	0.070	-0.520	1.040
2020/01/31 22:22:38.7	96.500	0.100	-0.570	1.040
2020/01/31 22:22:38.8	96.520	0.120	-0.610	1.030
2020/01/31 22:22:38.9	96.540	0.140	-0.650	1.020
2020/01/31 22:22:39.0	96.550	0.160	-0.680	1.010
2020/01/31 22:22:39.1	96.570	0.180	-0.710	0.990
2020/01/31 22:22:39.2	96.590	0.190	-0.750	0.980
2020/01/31 22:22:39.3	96.610	0.210	-0.770	0.960
2020/01/31 22:22:39.4	96.630	0.220	-0.800	0.940
2020/01/31 22:22:39.5	96.640	0.240	-0.820	0.920
2020/01/31 22:22:39.6	96.660	0.250	-0.830	0.900
2020/01/31 22:22:39.7	96.670	0.260	-0.850	0.880
2020/01/31 22:22:39.8	96.680	0.260	-0.850	0.860
2020/01/31 22:22:39.9	96.700	0.270	-0.860	0.840
2020/01/31 22:22:40.0	96.690	0.270	-0.860	0.810
2020/01/31 22:22:40.1	96.700	0.280	-0.850	0.780
2020/01/31 22:22:40.2	96.700	0.280	-0.840	0.760
2020/01/31 22:22:40.3	96.710	0.270	-0.820	0.740
2020/01/31 22:22:40.4	96.710	0.270	-0.800	0.710
2020/01/31 22:22:40.5	96.710	0.270	-0.770	0.690
2020/01/31 22:22:40.6	96.710	0.260	-0.740	0.660
2020/01/31 22:22:40.7	96.700	0.250	-0.700	0.640
2020/01/31 22:22:40.8	96.700	0.240	-0.660	0.620
2020/01/31 22:22:40.9	96.690	0.230	-0.620	0.600
2020/01/31 22:22:41.0	96.680	0.220	-0.570	0.580
2020/01/31 22:22:41.1	96.670	0.200	-0.520	0.560
2020/01/31 22:22:41.2	96.650	0.190	-0.460	0.540
2020/01/31 22:22:41.3	96.640	0.170	-0.410	0.530
2020/01/31 22:22:41.4	96.620	0.160	-0.350	0.510
2020/01/31 22:22:41.5	96.600	0.140	-0.290	0.500
2020/01/31 22:22:41.6	96.580	0.120	-0.230	0.490
2020/01/31 22:22:41.7	96.560	0.100	-0.180	0.480
2020/01/31 22:22:41.8	96.540	0.080	-0.120	0.470
2020/01/31 22:22:41.9	96.510	0.070	-0.060	0.460
2020/01/31 22:22:42.0	96.490	0.050	0.000	0.450
2020/01/31 22:22:42.1	96.460	0.030	0.060	0.440
2020/01/31 22:22:42.2	96.430	0.010	0.110	0.440
2020/01/31 22:22:42.3	96.400	-0.000	0.160	0.430
2020/01/31 22:22:42.4	96.370	-0.020	0.210	0.420
2020/01/31 22:22:42.5	96.340	-0.030	0.260	0.420
2020/01/31 22:22:42.6	96.310	-0.050	0.300	0.410
2020/01/31 22:22:42.7	96.280	-0.060	0.340	0.410
2020/01/31 22:22:42.8	96.250	-0.080	0.370	0.400
2020/01/31 22:22:42.9	96.210	-0.090	0.410	0.390
2020/01/31 22:22:43.0	96.190	-0.100	0.430	0.380
2020/01/31 22:22:43.1	96.160	-0.110	0.460	0.370
2020/01/31 22:22:43.2	96.130	-0.110	0.480	0.360
2020/01/31 22:22:43.3	96.110	-0.120	0.490	0.350
2020/01/31 22:22:43.4	96.080	-0.130	0.500	0.330
2020/01/31 22:22:43.5	96.060	-0.130	0.500	0.310
2020/01/31 22:22:43.6	96.040	-0.130	0.500	0.290
2020/01/31 22:22:43.7	96.020	-0.140	0.490	0.260
2020/01/31 22:22:43.8	96.000	-0.140	0.490	0.240
2020/01/31 22:22:43.9	95.990	-0.140	0.470	0.210
2020/01/31 22:22:44.0	95.980	-0.140	0.450	0.180
2020/01/31 22:22:44.1	95.970	-0.140	0.430	0.140
2020/01/31 22:22:44.2	95.960	-0.130	0.400	0.100
2020/01/31 22:22:44.3	95.950	-0.130	0.380	0.060
2020/01/31 22:22:44.4	95.950	-0.130	0.340	0.020
2020/01/31 22:22:44.5	95.950	-0.120	0.310	-0.030
2020/01/31 22:22:44.6	95.950	-0.120	0.270	-0.080
2020/01/31 22:22:44.7	95.950	-0.110	0.230	-0.130
2020/01/31 22:22:44.8	95.960	-0.110	0.190	-0.180
2020/01/31 22:22:44.9	95.960	-0.100	0.150	-0.230
2020/01/31 22:22:45.0	95.970	-0.090	0.110	-0.280
2020/01/31 22:22:45.1	95.980	-0.090	0.060	-0.340
2020/01/31 22:22:45.2	95.990	-0.080	0.020	-0.390
2020/01/31 22:22:45.3	96.000	-0.070	-0.030	-0.450
2020/01/31 22:22:45.4	96.010	-0.070	-0.070	-0.500
2020/01/31 22:22:45.5	96.020	-0.060	-0.120	-0.550
2020/01/31 22:22:45.6	96.030	-0.050	-0.160	-0.610
2020/01/31 22:22:45.7	96.050	-0.050	-0.200	-0.660
2020/01/31 22:22:45.8	96.060	-0.040	-0.240	-0.710
2020/01/31 22:22:45.9	96.070	-0.030	-0.280	-0.760
2020/01/31 22:22:46.0	96.080	-0.030	-0.320	-0.800
2020/01/31 22:22:46.1	96.090	-0.020	-0.360	-0.840
2020/01/31 22:22:46.2	96.110	-0.010	-0.390	-0.880
2020/01/31 22:22:46.3	96.120	-0.010	-0.430	-0.920
2020/01/31 22:22:46.4	96.130	0.000	-0.460	-0.950
2020/01/31 22:22:46.5	96.150	0.010	-0.490	-0.990
2020/01/31 22:22:46.6	96.160	0.020	-0.510	-1.010
2020/01/31 22:22:46.7	96.170	0.020	-0.540	-1.040
2020/01/31 22:22:46.8	96.180	0.030	-0.560	-1.060
2020/01/31 22:22:46.9	96.200	0.040	-0.580	-1.080
2020/01/31 22:22:47.0	96.210	0.040	-0.600	-1.090
2020/01/31 22:22:47.1	96.220	0.050	-0.620	-1.100
2020/01/31 22:22:47.2	96.240	0.060	-0.630	-1.100
2020/01/31 22:22:47.3	96.250	0.070	-0.640	-1.110
2020/01/31 22:22:47.4	96.270	0.070	-0.650	-1.100
2020/01/31 22:22:47.5	96.280	0.080	-0.660	-1.100
2020/01/31 22:22:47.6	96.300	0.090	-0.670	-1.090
2020/01/31 22:22:47.7	96.310	0.090	-0.670	-1.070
2020/01/31 22:22:47.8	96.330	0.100	-0.670	-1.060
2020/01/31 22:22:47.9	96.350	0.100	-0.670	-1.030
2020/01/31 22:22:48.0	96.360	0.110	-0.670	-1.010
2020/01/31 22:22:48.1	96.380	0.110	-0.660	-0.980
2020/01/31 22:22:48.2	96.390	0.120	-0.660	-0.950
2020/01/31 22:22:48.3	96.410	0.120	-0.650	-0.910
2020/01/31 22:22:48.4	96.420	0.120	-0.640	-0.870
2020/01/31 22:22:48.5	96.430	0.130	-0.630	-0.820
2020/01/31 22:22:48.6	96.440	0.130	-0.610	-0.770
2020/01/31 22:22:48.7	96.450	0.130	-0.600	-0.720
2020/01/31 22:22:48.8	96.460	0.120	-0.580	-0.660
2020/01/31 22:22:48.9	96.460	0.120	-0.570	-0.590
2020/01/31 22:22:49.0	96.470	0.120	-0.550	-0.520
2020/01/31 22:22:49.1	96.470	0.120	-0.530	-0.450
2020/01/31 22:22:49.2	96.470	0.110	-0.510	-0.380
2020/01/31 22:22:49.3	96.460	0.100	-0.480	-0.300
2020/01/31 22:22:49.4	96.460	0.100	-0.460	-0.220
2020/01/31 22:22:49.5	96.450	0.090	-0.430	-0.140
2020/01/31 22:22:49.6	96.440	0.080	-0.400	-0.050
2020/01/31 22:22:49.7	96.420	0.070	-0.380	0.040
2020/01/31 22:22:49.8	96.410	0.060	-0.350	0.130
2020/01/31 22:22:49.9	96.390	0.050	-0.320	0.220
2020/01/31 22:22:50.0	96.380	0.030	-0.280	0.310
2020/01/31 22:22:50.1	96.360	0.020	-0.250	0.400
2020/01/31 22:22:50.2	96.340	0.010	-0.220	0.490
2020/01/31 22:22:50.3	96.320	-0.010	-0.180	0.580
2020/01/31 22:22:50.4	96.300	-0.020	-0.150	0.670
2020/01/31 22:22:50.5	96.280	-0.040	-0.110	0.760
2020/01/31 22:22:50.6	96.250	-0.060	-0.080	0.840
2020/01/31 22:22:50.7	96.230	-0.070	-0.040	0.930
2020/01/31 22:22:50.8	96.210	-0.090	-0.000	1.010
2020/01/31 22:22:50.9	96.180	-0.110	0.030	1.090
2020/01/31 22:22:51.0	96.150	-0.120	0.070	1.160
2020/01/31 22:22:51.1	96.130	-0.140	0.100	1.230
2020/01/31 22:22:51.2	96.110	-0.150	0.140	1.290
2020/01/31 22:22:51.3	96.090	-0.170	0.170	1.350
2020/01/31 22:22:51.4	96.070	-0.180	0.200	1.410
2020/01/31 22:22:51.5	96.050	-0.200	0.230	1.460
2020/01/31 22:22:51.6	96.030	-0.210	0.260	1.500
2020/01/31 22:22:51.7	96.020	-0.220	0.290	1.540
2020/01/31 22:22:51.8	96.000	-0.230	0.310	1.560
2020/01/31 22:22:51.9	95.990	-0.240	0.340	1.590
2020/01/31 22:22:52.0	95.980	-0.250	0.360	1.600
2020/01/31 22:22:52.1	95.970	-0.260	0.370	1.610
2020/01/31 22:22:52.2	95.970	-0.260	0.390	1.620
2020/01/31 22:22:52.3	95.970	-0.270	0.400	1.610
2020/01/31 22:22:52.4	95.960	-0.270	0.410	1.610
2020/01/31 22:22:52.5	95.960	-0.270	0.410	1.600
2020/01/31 22:22:52.6	95.970	-0.270	0.410	1.580
2020/01/31 22:22:52.7	95.970	-0.270	0.410	1.560
2020/01/31 22:22:52.8	95.970	-0.270	0.410	1.530
2020/01/31 22:22:52.9	95.980	-0.260	0.400	1.500
2020/01/31 22:22:53.0	95.990	-0.260	0.390	1.470
2020/01/31 22:22:53.1	95.990	-0.250	0.380	1.430
2020/01/31 22:22:53.2	96.000	-0.240	0.360	1.390
2020/01/31 22:22:53.3	96.010	-0.240	0.340	1.340
2020/01/31 22:22:53.4	96.020	-0.230	0.320	1.300
2020/01/31 22:22:53.5	96.030	-0.220	0.290	1.250
2020/01/31 22:22:53.6	96.040	-0.210	0.260	1.190
2020/01/31 22:22:53.7	96.050	-0.190	0.230	1.140
2020/01/31 22:22:53.8	96.070	-0.180	0.200	1.080
2020/01/31 22:22:53.9	96.080	-0.170	0.170	1.020
2020/01/31 22:22:54.0	96.100	-0.160	0.130	0.950
2020/01/31 22:22:54.1	96.120	-0.140	0.090	0.890
2020/01/31 22:22:54.2	96.130	-0.130	0.050	0.820
2020/01/31 22:22:54.3	96.150	-0.110	0.010	0.750
2020/01/31 22:22:54.4	96.160	-0.100	-0.030	0.690
2020/01/31 22:22:54.5	96.170	-0.090	-0.080	0.620
2020/01/31 22:22:54.6	96.190	-0.070	-0.120	0.550
2020/01/31 22:22:54.7	96.200	-0.060	-0.160	0.480
2020/01/31 22:22:54.8	96.210	-0.050	-0.210	0.410
2020/01/31 22:22:54.9	96.230	-0.030	-0.250	0.340
2020/01/31 22:22:55.0	96.230	-0.020	-0.290	0.270
2020/01/31 22:22:55.1	96.240	-0.010	-0.340	0.210
2020/01/31 22:22:55.2	96.250	0.000	-0.380	0.150
2020/01/31 22:22:55.3	96.260	0.020	-0.420	0.090
2020/01/31 22:22:55.4	96.260	0.030	-0.450	0.030
2020/01/31 22:22:55.5	96.270	0.040	-0.490	-0.030
2020/01/31 22:22:55.6	96.270	0.050	-0.520	-0.080
2020/01/31 22:22:55.7	96.270	0.060	-0.550	-0.130
2020/01/31 22:22:55.8	96.270	0.070	-0.580	-0.180
2020/01/31 22:22:55.9	96.270	0.080	-0.610	-0.230
2020/01/31 22:22:56.0	96.270	0.090	-0.640	-0.270
2020/01/31 22:22:56.1	96.270	0.100	-0.660	-0.320
2020/01/31 22:22:56.2	96.270	0.100	-0.680	-0.360
2020/01/31 22:22:56.3	96.270	0.110	-0.700	-0.390
2020/01/31 22:22:56.4	96.270	0.120	-0.710	-0.430
2020/01/31 22:22:56.5	96.270	0.120	-0.730	-0.460
2020/01/31 22:22:56.6	96.270	0.130	-0.730	-0.490
2020/01/31 22:22:56.7	96.270	0.130	-0.740	-0.520
2020/01/31 22:22:56.8	96.270	0.140	-0.740	-0.550
2020/01/31 22:22:56.9	96.260	0.140	-0.750	-0.580
2020/01/31 22:22:57.0	96.260	0.140	-0.740	-0.600
2020/01/31 22:22:57.1	96.260	0.140	-0.740	-0.620
2020/01/31 22:22:57.2	96.250	0.140	-0.730	-0.640
2020/01/31 22:22:57.3	96.250	0.140	-0.720	-0.660
2020/01/31 22:22:57.4	96.250	0.130	-0.710	-0.670
2020/01/31 22:22:57.5	96.250	0.130	-0.690	-0.680
2020/01/31 22:22:57.6	96.240	0.130	-0.670	-0.690
2020/01/31 22:22:57.7	96.240	0.120	-0.650	-0.700
2020/01/31 22:22:57.8	96.230	0.110	-0.630	-0.700
2020/01/31 22:22:57.9	96.220	0.110	-0.610	-0.700
2020/01/31 22:22:58.0	96.210	0.100	-0.580	-0.700
2020/01/31 22:22:58.1	96.200	0.090	-0.550	-0.690
2020/01/31 22:22:58.2	96.190	0.080	-0.520	-0.680
2020/01/31 22:22:58.3	96.180	0.070	-0.490	-0.670
2020/01/31 22:22:58.4	96.160	0.060	-0.450	-0.650
2020/01/31 22:22:58.5	96.140	0.050	-0.410	-0.630
2020/01/31 22:22:58.6	96.130	0.040	-0.380	-0.610
2020/01/31 22:22:58.7	96.110	0.030	-0.340	-0.590
2020/01/31 22:22:58.8	96.090	0.010	-0.290	-0.560
2020/01/31 22:22:58.9	96.070	0.000	-0.250	-0.530
2020/01/31 22:22:59.0	96.060	-0.010	-0.210	-0.490
2020/01/31 22:22:59.1	96.040	-0.020	-0.160	-0.460
2020/01/31 22:22:59.2	96.020	-0.030	-0.120	-0.430
2020/01/31 22:22:59.3	96.000	-0.040	-0.080	-0.400
2020/01/31 22:22:59.4	95.980	-0.050	-0.040	-0.360
2020/01/31 22:22:59.5	95.970	-0.060	0.000	-0.330
2020/01/31 22:22:59.6	95.950	-0.070	0.040	-0.300
2020/01/31 22:22:59.7	95.940	-0.070	0.080	-0.260
2020/01/31 22:22:59.8	95.930	-0.080	0.120	-0.230
2020/01/31 22:22:59.9	95.920	-0.090	0.150	-0.200
2020/01/31 22:23:00.0	95.910	-0.090	0.180	-0.170
2020/01/31 22:23:00.1	95.910	-0.090	0.210	-0.140
2020/01/31 22:23:00.2	95.910	-0.090	0.240	-0.120
2020/01/31 22:23:00.3	95.910	-0.090	0.260	-0.090
2020/01/31 22:23:00.4	95.910	-0.090	0.280	-0.070
2020/01/31 22:23:00.5	95.920	-0.090	0.300	-0.040
2020/01/31 22:23:00.6	95.930	-0.080	0.310	-0.020
2020/01/31 22:23:00.7	95.940	-0.080	0.320	-0.010
2020/01/31 22:23:00.8	95.950	-0.070	0.330	0.010
2020/01/31 22:23:00.9	95.970	-0.060	0.330	0.020
2020/01/31 22:23:01.0	95.980	-0.050	0.330	0.030
2020/01/31 22:23:01.1	96.000	-0.040	0.330	0.040
2020/01/31 22:23:01.2	96.030	-0.020	0.320	0.050
2020/01/31 22:23:01.3	96.050	-0.010	0.300	0.050
2020/01/31 22:23:01.4	96.070	0.010	0.280	0.050
2020/01/31 22:23:01.5	96.100	0.030	0.260	0.050
2020/01/31 22:23:01.6	96.130	0.040	0.240	0.040
2020/01/31 22:23:01.7	96.150	0.060	0.210	0.040
2020/01/31 22:23:01.8	96.180	0.080	0.180	0.030
2020/01/31 22:23:01.9	96.210	0.100	0.140	0.030
2020/01/31 22:23:02.0	96.230	0.120	0.110	0.010
2020/01/31 22:23:02.1	96.260	0.140	0.070	0.000
2020/01/31 22:23:02.2	96.290	0.160	0.030	-0.000
2020/01/31 22:23:02.3	96.310	0.190	-0.010	-0.010
2020/01/31 22:23:02.4	96.340	0.210	-0.050	-0.020
2020/01/31 22:23:02.5	96.360	0.220	-0.100	-0.030
2020/01/31 22:23:02.6	96.380	0.240	-0.140	-0.040
2020/01/31 22:23:02.7	96.400	0.260	-0.180	-0.050
2020/01/31 22:23:02.8	96.420	0.280	-0.220	-0.050
2020/01/31 22:23:02.9	96.440	0.290	-0.260	-0.060
2020/01/31 22:23:03.0	96.460	0.310	-0.300	-0.060
2020/01/31 22:23:03.1	96.470	0.320	-0.330	-0.060
2020/01/31 22:23:03.2	96.480	0.330	-0.360	-0.060
2020/01/31 22:23:03.3	96.490	0.340	-0.390	-0.050
2020/01/31 22:23:03.4	96.500	0.340	-0.410	-0.050
2020/01/31 22:23:03.5	96.500	0.350	-0.430	-0.040
2020/01/31 22:23:03.6	96.510	0.350	-0.450	-0.030
2020/01/31 22:23:03.7	96.510	0.350	-0.460	-0.020
2020/01/31 22:23:03.8	96.510	0.350	-0.470	-0.000
2020/01/31 22:23:03.9	96.500	0.340	-0.470	0.010
2020/01/31 22:23:04.0	96.500	0.330	-0.470	0.030
2020/01/31 22:23:04.1	96.490	0.320	-0.470	0.050
2020/01/31 22:23:04.2	96.480	0.310	-0.450	0.080
2020/01/31 22:23:04.3	96.470	0.290	-0.440	0.100
2020/01/31 22:23:04.4	96.460	0.280	-0.420	0.130
2020/01/31 22:23:04.5	96.440	0.260	-0.400	0.160
2020/01/31 22:23:04.6	96.430	0.230	-0.370	0.200
2020/01/31 22:23:04.7	96.410	0.210	-0.340	0.230
2020/01/31 22:23:04.8	96.390	0.180	-0.310	0.260
2020/01/31 22:23:04.9	96.370	0.150	-0.280	0.300
2020/01/31 22:23:05.0	96.340	0.120	-0.240	0.340
2020/01/31 22:23:05.1	96.320	0.090	-0.200	0.380
2020/01/31 22:23:05.2	96.300	0.060	-0.170	0.420
2020/01/31 22:23:05.3	96.270	0.030	-0.130	0.460
2020/01/31 22:23:05.4	96.250	-0.010	-0.090	0.500
2020/01/31 22:23:05.5	96.220	-0.040	-0.060	0.540
2020/01/31 22:23:05.6	96.200	-0.080	-0.020	0.590
2020/01/31 22:23:05.7	96.170	-0.110	0.010	0.630
2020/01/31 22:23:05.8	96.150	-0.150	0.040	0.670
2020/01/31 22:23:05.9	96.120	-0.180	0.070	0.710
2020/01/31 22:23:06.0	96.100	-0.210	0.100	0.750
2020/01/31 22:23:06.1	96.070	-0.250	0.120	0.790
2020/01/31 22:23:06.2	96.050	-0.270	0.140	0.830
2020/01/31 22:23:06.3	96.030	-0.300	0.150	0.860
2020/01/31 22:23:06.4	96.010	-0.330	0.160	0.890
2020/01/31 22:23:06.5	95.990	-0.350	0.170	0.920
2020/01/31 22:23:06.6	95.980	-0.380	0.170	0.950
2020/01/31 22:23:06.7	95.970	-0.400	0.170	0.970
2020/01/31 22:23:06.8	95.950	-0.410	0.170	0.990
2020/01/31 22:23:06.9	95.950	-0.430	0.160	1.010
2020/01/31 22:23:07.0	95.940	-0.440	0.140	1.020
2020/01/31 22:23:07.1	95.940	-0.450	0.120	1.030
2020/01/31 22:23:07.2	95.940	-0.460	0.100	1.030
2020/01/31 22:23:07.3	95.940	-0.460	0.080	1.040
2020/01/31 22:23:07.4	95.940	-0.470	0.050	1.030
2020/01/31 22:23:07.5	95.940	-0.470	0.020	1.030
2020/01/31 22:23:07.6	95.950	-0.460	-0.010	1.020
2020/01/31 22:23:07.7	95.960	-0.460	-0.050	1.010
2020/01/31 22:23:07.8	95.970	-0.450	-0.080	1.000
2020/01/31 22:23:07.9	95.980	-0.450	-0.120	0.980
2020/01/31 22:23:08.0	95.990	-0.440	-0.160	0.970
2020/01/31 22:23:08.1	96.000	-0.430	-0.190	0.940
2020/01/31 22:23:08.2	96.020	-0.420	-0.230	0.920
2020/01/31 22:23:08.3	96.030	-0.400	-0.270	0.890
2020/01/31 22:23:08.4	96.050	-0.390	-0.300	0.870
2020/01/31 22:23:08.5	96.070	-0.370	-0.340	0.840
2020/01/31 22:23:08.6	96.080	-0.360	-0.370	0.810
2020/01/31 22:23:08.7	96.100	-0.340	-0.400	0.770
2020/01/31 22:23:08.8	96.120	-0.330	-0.430	0.740
2020/01/31 22:23:08.9	96.140	-0.310	-0.450	0.700
2020/01/31 22:23:09.0	96.150	-0.290	-0.480	0.660
2020/01/31 22:23:09.1	96.170	-0.280	-0.490	0.630
2020/01/31 22:23:09.2	96.190	-0.260	-0.510	0.590
2020/01/31 22:23:09.3	96.210	-0.250	-0.520	0.550
2020/01/31 22:23:09.4	96.230	-0.230	-0.530	0.510
2020/01/31 22:23:09.5	96.250	-0.220	-0.540	0.460
2020/01/31 22:23:09.6	96.260	-0.200	-0.540	0.420
2020/01/31 22:23:09.7	96.280	-0.190	-0.540	0.380
2020/01/31 22:23:09.8	96.300	-0.180	-0.540	0.340
2020/01/31 22:23:09.9	96.310	-0.160	-0.530	0.300
2020/01/31 22:23:10.0	96.330	-0.150	-0.510	0.260
2020/01/31 22:23:10.1	96.340	-0.140	-0.500	0.220
2020/01/31 22:23:10.2	96.360	-0.130	-0.490	0.180
2020/01/31 22:23:10.3	96.370	-0.120	-0.470	0.140
2020/01/31 22:23:10.4	96.380	-0.110	-0.460	0.100
2020/01/31 22:23:10.5	96.390	-0.110	-0.440	0.060
2020/01/31 22:23:10.6	96.390	-0.100	-0.420	0.020
2020/01/31 22:23:10.7	96.400	-0.090	-0.400	-0.010
2020/01/31 22:23:10.8	96.400	-0.080	-0.380	-0.040
2020/01/31 22:23:10.9	96.400	-0.080	-0.360	-0.080
2020/01/31 22:23:11.0	96.410	-0.070	-0.340	-0.110
2020/01/31 22:23:11.1	96.400	-0.060	-0.320	-0.140
2020/01/31 22:23:11.2	96.400	-0.050	-0.310	-0.160
2020/01/31 22:23:11.3	96.390	-0.050	-0.290	-0.190
2020/01/31 22:23:11.4	96.390	-0.040	-0.270	-0.210
2020/01/31 22:23:11.5	96.380	-0.030	-0.260	-0.240
2020/01/31 22:23:11.6	96.370	-0.020	-0.240	-0.260
2020/01/31 22:23:11.7	96.360	-0.010	-0.230	-0.280
2020/01/31 22:23:11.8	96.350	-0.000	-0.210	-0.300
2020/01/31 22:23:11.9	96.340	0.010	-0.200	-0.320
2020/01/31 22:23:12.0	96.330	0.020	-0.190	-0.340
2020/01/31 22:23:12.1	96.310	0.030	-0.180	-0.350
2020/01/31 22:23:12.2	96.300	0.040	-0.170	-0.370
2020/01/31 22:23:12.3	96.280	0.050	-0.160	-0.390
2020/01/31 22:23:12.4	96.270	0.060	-0.160	-0.400
2020/01/31 22:23:12.5	96.250	0.070	-0.150	-0.420
2020/01/31 22:23:12.6	96.240	0.090	-0.140	-0.430
2020/01/31 22:23:12.7	96.220	0.100	-0.140	-0.450
2020/01/31 22:23:12.8	96.210	0.110	-0.130	-0.460
2020/01/31 22:23:12.9	96.190	0.120	-0.120	-0.470
2020/01/31 22:23:13.0	96.180	0.130	-0.110	-0.490
2020/01/31 22:23:13.1	96.170	0.150	-0.110	-0.500
2020/01/31 22:23:13.2	96.160	0.160	-0.100	-0.520
2020/01/31 22:23:13.3	96.140	0.170	-0.090	-0.530
2020/01/31 22:23:13.4	96.130	0.180	-0.080	-0.550
2020/01/31 22:23:13.5	96.120	0.190	-0.070	-0.560
2020/01/31 22:23:13.6	96.110	0.200	-0.060	-0.580
2020/01/31 22:23:13.7	96.110	0.210	-0.060	-0.590
2020/01/31 22:23:13.8	96.100	0.230	-0.050	-0.610
2020/01/31 22:23:13.9	96.090	0.230	-0.040	-0.620
2020/01/31 22:23:14.0	96.090	0.240	-0.030	-0.640
2020/01/31 22:23:14.1	96.090	0.250	-0.020	-0.660
2020/01/31 22:23:14.2	96.080	0.260	-0.010	-0.670
2020/01/31 22:23:14.3	96.080	0.270	-0.000	-0.690
2020/01/31 22:23:14.4	96.080	0.280	0.010	-0.710
2020/01/31 22:23:14.5	96.080	0.280	0.020	-0.720
2020/01/31 22:23:14.6	96.080	0.290	0.030	-0.730
2020/01/31 22:23:14.7	96.080	0.300	0.030	-0.750
2020/01/31 22:23:14.8	96.070	0.300	0.040	-0.750
2020/01/31 22:23:14.9	96.070	0.310	0.050	-0.760
2020/01/31 22:23:15.0	96.080	0.310	0.050	-0.770
2020/01/31 22:23:15.1	96.070	0.320	0.060	-0.770
2020/01/31 22:23:15.2	96.070	0.320	0.060	-0.770
2020/01/31 22:23:15.3	96.070	0.320	0.060	-0.770
2020/01/31 22:23:15.4	96.070	0.320	0.050	-0.770
2020/01/31 22:23:15.5	96.070	0.330	0.050	-0.760
2020/01/31 22:23:15.6	96.070	0.330	0.040	-0.750
2020/01/31 22:23:15.7	96.070	0.330	0.030	-0.740
2020/01/31 22:23:15.8	96.070	0.330	0.020	-0.730
2020/01/31 22:23:15.9	96.080	0.330	0.010	-0.710
2020/01/31 22:23:16.0	96.080	0.330	-0.010	-0.700
2020/01/31 22:23:16.1	96.080	0.330	-0.030	-0.680
2020/01/31 22:23:16.2	96.090	0.330	-0.050	-0.660
2020/01/31 22:23:16.3	96.090	0.330	-0.080	-0.640
2020/01/31 22:23:16.4	96.100	0.330	-0.100	-0.620
2020/01/31 22:23:16.5	96.110	0.320	-0.130	-0.600
2020/01/31 22:23:16.6	96.120	0.320	-0.160	-0.580
2020/01/31 22:23:16.7	96.120	0.310	-0.180	-0.550
2020/01/31 22:23:16.8	96.130	0.310	-0.210	-0.530
2020/01/31 22:23:16.9	96.140	0.300	-0.240	-0.510
2020/01/31 22:23:17.0	96.150	0.290	-0.270	-0.480
2020/01/31 22:23:17.1	96.160	0.280	-0.290	-0.460
2020/01/31 22:23:17.2	96.170	0.260	-0.320	-0.440
2020/01/31 22:23:17.3	96.180	0.250	-0.340	-0.410
2020/01/31 22:23:17.4	96.190	0.230	-0.360	-0.390
2020/01/31 22:23:17.5	96.190	0.210	-0.370	-0.370
2020/01/31 22:23:17.6	96.200	0.190	-0.390	-0.340
2020/01/31 22:23:17.7	96.210	0.170	-0.390	-0.320
2020/01/31 22:23:17.8	96.210	0.150	-0.400	-0.290
2020/01/31 22:23:17.9	96.220	0.120	-0.400	-0.260
2020/01/31 22:23:18.0	96.210	0.100	-0.400	-0.240
2020/01/31 22:23:18.1	96.210	0.070	-0.390	-0.210
2020/01/31 22:23:18.2	96.210	0.040	-0.380	-0.180
2020/01/31 22:23:18.3	96.210	0.010	-0.360	-0.140
2020/01/31 22:23:18.4	96.210	-0.020	-0.340	-0.110
2020/01/31 22:23:18.5	96.210	-0.050	-0.320	-0.070
2020/01/31 22:23:18.6	96.200	-0.090	-0.290	-0.040
2020/01/31 22:23:18.7	96.190	-0.120	-0.260	0.000
2020/01/31 22:23:18.8	96.190	-0.150	-0.220	0.040
2020/01/31 22:23:18.9	96.180	-0.190	-0.190	0.090
2020/01/31 22:23:19.0	96.170	-0.220	-0.150	0.130
2020/01/31 22:23:19.1	96.160	-0.250	-0.110	0.180
2020/01/31 22:23:19.2	96.150	-0.280	-0.070	0.220
2020/01/31 22:23:19.3	96.140	-0.310	-0.020	0.270
2020/01/31 22:23:19.4	96.130	-0.340	0.020	0.320
2020/01/31 22:23:19.5	96.120	-0.370	0.060	0.380
2020/01/31 22:23:19.6	96.110	-0.400	0.100	0.430
2020/01/31 22:23:19.7	96.100	-0.420	0.140	0.480
2020/01/31 22:23:19.8	96.090	-0.450	0.170	0.540
2020/01/31 22:23:19.9	96.080	-0.470	0.200	0.590
2020/01/31 22:23:20.0	96.080	-0.490	0.240	0.650
2020/01/31 22:23:20.1	96.070	-0.500	0.260	0.710
2020/01/31 22:23:20.2	96.060	-0.520	0.280	0.760
2020/01/31 22:23:20.3	96.060	-0.530	0.300	0.820
2020/01/31 22:23:20.4	96.050	-0.540	0.310	0.870
2020/01/31 22:23:20.5	96.050	-0.540	0.320	0.920
2020/01/31 22:23:20.6	96.050	-0.550	0.320	0.970
2020/01/31 22:23:20.7	96.050	-0.550	0.320	1.020
2020/01/31 22:23:20.8	96.050	-0.550	0.310	1.070
2020/01/31 22:23:20.9	96.060	-0.540	0.300	1.110
2020/01/31 22:23:21.0	96.050	-0.540	0.280	1.160
2020/01/31 22:23:21.1	96.060	-0.530	0.250	1.190
2020/01/31 22:23:21.2	96.070	-0.510	0.230	1.220
2020/01/31 22:23:21.3	96.080	-0.500	0.190	1.250
2020/01/31 22:23:21.4	96.100	-0.480	0.160	1.280
2020/01/31 22:23:21.5	96.110	-0.470	0.120	1.300
2020/01/31 22:23:21.6	96.130	-0.450	0.070	1.310
2020/01/31 22:23:21.7	96.150	-0.420	0.030	1.320
2020/01/31 22:23:21.8	96.160	-0.400	-0.020	1.330
2020/01/31 22:23:21.9	96.180	-0.370	-0.070	1.330
2020/01/31 22:23:22.0	96.200	-0.350	-0.120	1.330
2020/01/31 22:23:22.1	96.220	-0.320	-0.180	1.320
2020/01/31 22:23:22.2	96.240	-0.290	-0.230	1.310
2020/01/31 22:23:22.3	96.260	-0.260	-0.280	1.290
2020/01/31 22:23:22.4	96.280	-0.230	-0.340	1.270
2020/01/31 22:23:22.5	96.300	-0.190	-0.390	1.250
2020/01/31 22:23:22.6	96.320	-0.160	-0.440	1.220
2020/01/31 22:23:22.7	96.340	-0.130	-0.490	1.200
2020/01/31 22:23:22.8	96.360	-0.090	-0.540	1.160
2020/01/31 22:23:22.9	96.370	-0.060	-0.590	1.130
2020/01/31 22:23:23.0	96.380	-0.020	-0.630	1.090
2020/01/31 22:23:23.1	96.400	0.010	-0.660	1.050
2020/01/31 22:23:23.2	96.410	0.040	-0.700	1.020
2020/01/31 22:23:23.3	96.420	0.080	-0.730	0.970
2020/01/31 22:23:23.4	96.430	0.110	-0.760	0.930
2020/01/31 22:23:23.5	96.440	0.140	-0.780	0.890
2020/01/31 22:23:23.6	96.440	0.170	-0.800	0.850
2020/01/31 22:23:23.7	96.450	0.200	-0.810	0.800
2020/01/31 22:23:23.8	96.450	0.230	-0.820	0.760
2020/01/31 22:23:23.9	96.450	0.260	-0.830	0.720
2020/01/31 22:23:24.0	96.450	0.290	-0.830	0.670
2020/01/31 22:23:24.1	96.450	0.310	-0.830	0.630
2020/01/31 22:23:24.2	96.440	0.340	-0.820	0.580
2020/01/31 22:23:24.3	96.440	0.360	-0.820	0.540
2020/01/31 22:23:24.4	96.430	0.380	-0.800	0.500
2020/01/31 22:23:24.5	96.420	0.400	-0.790	0.460
2020/01/31 22:23:24.6	96.410	0.420	-0.770	0.420
2020/01/31 22:23:24.7	96.400	0.430	-0.750	0.380
2020/01/31 22:23:24.8	96.390	0.450	-0.730	0.350
2020/01/31 22:23:24.9	96.380	0.460	-0.710	0.310
2020/01/31 22:23:25.0	96.360	0.470	-0.680	0.280
2020/01/31 22:23:25.1	96.350	0.480	-0.650	0.250
2020/01/31 22:23:25.2	96.340	0.480	-0.620	0.220
2020/01/31 22:23:25.3	96.330	0.490	-0.590	0.180
2020/01/31 22:23:25.4	96.310	0.490	-0.560	0.150
2020/01/31 22:23:25.5	96.300	0.490	-0.530	0.120
2020/01/31 22:23:25.6	96.290	0.480	-0.500	0.100
2020/01/31 22:23:25.7	96.270	0.480	-0.470	0.070
2020/01/31 22:23:25.8	96.260	0.470	-0.440	0.050
2020/01/31 22:23:25.9	96.240	0.460	-0.400	0.020
2020/01/31 22:23:26.0	96.240	0.450	-0.370	-0.000
2020/01/31 22:23:26.1	96.220	0.430	-0.330	-0.020
2020/01/31 22:23:26.2	96.210	0.410	-0.290	-0.040
2020/01/31 22:23:26.3	96.190	0.390	-0.250	-0.060
2020/01/31 22:23:26.4	96.180	0.370	-0.220	-0.080
2020/01/31 22:23:26.5	96.160	0.340	-0.170	-0.090
2020/01/31 22:23:26.6	96.150	0.310	-0.130	-0.110
2020/01/31 22:23:26.7	96.130	0.280	-0.090	-0.120
2020/01/31 22:23:26.8	96.110	0.250	-0.040	-0.130
2020/01/31 22:23:26.9	96.100	0.210	0.000	-0.150
2020/01/31 22:23:27.0	96.080	0.180	0.050	-0.160
2020/01/31 22:23:27.1	96.060	0.140	0.100	-0.170
2020/01/31 22:23:27.2	96.040	0.100	0.150	-0.180
2020/01/31 22:23:27.3	96.030	0.060	0.190	-0.200
2020/01/31 22:23:27.4	96.010	0.020	0.240	-0.210
2020/01/31 22:23:27.5	96.000	-0.030	0.290	-0.230
2020/01/31 22:23:27.6	95.980	-0.070	0.340	-0.240
2020/01/31 22:23:27.7	95.970	-0.120	0.380	-0.260
2020/01/31 22:23:27.8	95.960	-0.160	0.430	-0.280
2020/01/31 22:23:27.9	95.950	-0.200	0.470	-0.300
2020/01/31 22:23:28.0	95.950	-0.250	0.510	-0.320
2020/01/31 22:23:28.1	95.940	-0.290	0.550	-0.340
2020/01/31 22:23:28.2	95.930	-0.330	0.590	-0.360
2020/01/31 22:23:28.3	95.930	-0.370	0.620	-0.380
2020/01/31 22:23:28.4	95.920	-0.410	0.650	-0.400
2020/01/31 22:23:28.5	95.920	-0.440	0.670	-0.430
2020/01/31 22:23:28.6	95.910	-0.480	0.690	-0.450
2020/01/31 22:23:28.7	95.910	-0.510	0.700	-0.470
2020/01/31 22:23:28.8	95.910	-0.530	0.710	-0.500
2020/01/31 22:23:28.9	95.920	-0.560	0.720	-0.520
2020/01/31 22:23:29.0	95.910	-0.580	0.710	-0.540
2020/01/31 22:23:29.1	95.920	-0.590	0.700	-0.570
2020/01/31 22:23:29.2	95.920	-0.610	0.690	-0.590
2020/01/31 22:23:29.3	95.930	-0.620	0.660	-0.610
2020/01/31 22:23:29.4	95.930	-0.620	0.640	-0.630
2020/01/31 22:23:29.5	95.940	-0.620	0.600	-0.650
2020/01/31 22:23:29.6	95.950	-0.620	0.560	-0.660
2020/01/31 22:23:29.7	95.960	-0.610	0.520	-0.680
2020/01/31 22:23:29.8	95.970	-0.600	0.460	-0.700
2020/01/31 22:23:29.9	95.980	-0.580	0.410	-0.710
2020/01/31 22:23:30.0	96.000	-0.560	0.340	-0.720
2020/01/31 22:23:30.1	96.010	-0.540	0.280	-0.730
2020/01/31 22:23:30.2	96.020	-0.510	0.210	-0.740
2020/01/31 22:23:30.3	96.040	-0.480	0.140	-0.750
2020/01/31 22:23:30.4	96.060	-0.440	0.060	-0.760
2020/01/31 22:23:30.5	96.070	-0.400	-0.020	-0.760
2020/01/31 22:23:30.6	96.090	-0.360	-0.100	-0.760
2020/01/31 22:23:30.7	96.110	-0.320	-0.180	-0.770
2020/01/31 22:23:30.8	96.130	-0.270	-0.270	-0.760
2020/01/31 22:23:30.9	96.140	-0.230	-0.350	-0.760
2020/01/31 22:23:31.0	96.160	-0.180	-0.430	-0.760
2020/01/31 22:23:31.1	96.180	-0.130	-0.510	-0.750
2020/01/31 22:23:31.2	96.200	-0.080	-0.590	-0.740
2020/01/31 22:23:31.3	96.210	-0.030	-0.670	-0.730
2020/01/31 22:23:31.4	96.230	0.020	-0.740	-0.720
2020/01/31 22:23:31.5	96.240	0.070	-0.810	-0.700
2020/01/31 22:23:31.6	96.260	0.120	-0.870	-0.690
2020/01/31 22:23:31.7	96.270	0.170	-0.930	-0.670
2020/01/31 22:23:31.8	96.280	0.210	-0.980	-0.650
2020/01/31 22:23:31.9	96.290	0.250	-1.020	-0.630
2020/01/31 22:23:32.0	96.300	0.300	-1.060	-0.610
2020/01/31 22:23:32.1	96.310	0.330	-1.090	-0.590
2020/01/31 22:23:32.2	96.320	0.370	-1.120	-0.570
2020/01/31 22:23:32.3	96.330	0.400	-1.130	-0.550
2020/01/31 22:23:32.4	96.340	0.430	-1.140	-0.520
2020/01/31 22:23:32.5	96.350	0.450	-1.140	-0.500
2020/01/31 22:23:32.6	96.350	0.480	-1.140	-0.480
2020/01/31 22:23:32.7	96.360	0.490	-1.120	-0.450
2020/01/31 22:23:32.8	96.370	0.510	-1.100	-0.420
2020/01/31 22:23:32.9	96.370	0.520	-1.070	-0.400
2020/01/31 22:23:33.0	96.380	0.520	-1.040	-0.370
2020/01/31 22:23:33.1	96.380	0.520	-0.990	-0.340
2020/01/31 22:23:33.2	96.390	0.520	-0.950	-0.310
2020/01/31 22:23:33.3	96.390	0.520	-0.890	-0.280
2020/01/31 22:23:33.4	96.390	0.510	-0.830	-0.240
2020/01/31 22:23:33.5	96.390	0.500	-0.770	-0.210
2020/01/31 22:23:33.6	96.390	0.480	-0.700	-0.170
2020/01/31 22:23:33.7	96.390	0.460	-0.630	-0.130
2020/01/31 22:23:33.8	96.380	0.440	-0.560	-0.080
2020/01/31 22:23:33.9	96.380	0.420	-0.480	-0.040
2020/01/31 22:23:34.0	96.370	0.390	-0.410	0.010
2020/01/31 22:23:34.1	96.360	0.360	-0.330	0.070
2020/01/31 22:23:34.2	96.350	0.330	-0.250	0.120
2020/01/31 22:23:34.3	96.330	0.300	-0.170	0.180
2020/01/31 22:23:34.4	96.320	0.270	-0.090	0.240
2020/01/31 22:23:34.5	96.300	0.240	-0.020	0.300
2020/01/31 22:23:34.6	96.280	0.210	0.060	0.360
2020/01/31 22:23:34.7	96.270	0.170	0.130	0.420
2020/01/31 22:23:34.8	96.250	0.140	0.200	0.490
2020/01/31 22:23:34.9	96.220	0.100	0.270	0.550
2020/01/31 22:23:35.0	96.200	0.070	0.340	0.620
2020/01/31 22:23:35.1	96.180	0.040	0.400	0.690
2020/01/31 22:23:35.2	96.160	0.010	0.460	0.750
2020/01/31 22:23:35.3	96.130	-0.030	0.510	0.810
2020/01/31 22:23:35.4	96.110	-0.060	0.560	0.870
2020/01/31 22:23:35.5	96.080	-0.090	0.600	0.930
2020/01/31 22:23:35.6	96.060	-0.120	0.640	0.990
2020/01/31 22:23:35.7	96.030	-0.150	0.670	1.050
2020/01/31 22:23:35.8	96.010	-0.170	0.690	1.100
2020/01/31 22:23:35.9	95.990	-0.200	0.710	1.140
2020/01/31 22:23:36.0	95.970	-0.220	0.720	1.190
2020/01/31 22:23:36.1	95.950	-0.240	0.730	1.230
2020/01/31 22:23:36.2	95.930	-0.270	0.730	1.260
2020/01/31 22:23:36.3	95.910	-0.290	0.720	1.290
2020/01/31 22:23:36.4	95.900	-0.300	0.710	1.320
2020/01/31 22:23:36.5	95.880	-0.320	0.690	1.340
2020/01/31 22:23:36.6	95.870	-0.330	0.670	1.360
2020/01/31 22:23:36.7	95.860	-0.350	0.630	1.370
2020/01/31 22:23:36.8	95.850	-0.360	0.600	1.370
2020/01/31 22:23:36.9	95.840	-0.370	0.560	1.370
2020/01/31 22:23:37.0	95.830	-0.370	0.510	1.370
2020/01/31 22:23:37.1	95.830	-0.380	0.460	1.370
2020/01/31 22:23:37.2	95.820	-0.380	0.400	1.350
2020/01/31 22:23:37.3	95.820	-0.380	0.340	1.340
2020/01/31 22:23:37.4	95.820	-0.380	0.280	1.320
2020/01/31 22:23:37.5	95.830	-0.370	0.220	1.300
2020/01/31 22:23:37.6	95.830	-0.370	0.150	1.280
2020/01/31 22:23:37.7	95.830	-0.360	0.080	1.250
2020/01/31 22:23:37.8	95.840	-0.350	0.010	1.230
2020/01/31 22:23:37.9	95.840	-0.330	-0.070	1.200
2020/01/31 22:23:38.0	95.850	-0.320	-0.140	1.170
2020/01/31 22:23:38.1	95.860	-0.300	-0.210	1.140
2020/01/31 22:23:38.2	95.870	-0.280	-0.290	1.100
2020/01/31 22:23:38.3	95.880	-0.260	-0.360	1.070
2020/01/31 22:23:38.4	95.880	-0.240	-0.430	1.040
2020/01/31 22:23:38.5	95.890	-0.210	-0.500	1.000
2020/01/31 22:23:38.6	95.900	-0.190	-0.570	0.970
2020/01/31 22:23:38.7	95.910	-0.160	-0.630	0.940
2020/01/31 22:23:38.8	95.920	-0.130	-0.690	0.900
2020/01/31 22:23:38.9	95.930	-0.100	-0.750	0.860
2020/01/31 22:23:39.0	95.950	-0.070	-0.810	0.830
2020/01/31 22:23:39.1	95.960	-0.040	-0.860	0.790
2020/01/31 22:23:39.2	95.970	-0.010	-0.900	0.760
2020/01/31 22:23:39.3	95.980	0.030	-0.950	0.720
2020/01/31 22:23:39.4	95.980	0.060	-0.990	0.680
2020/01/31 22:23:39.5	95.990	0.090	-1.020	0.640
2020/01/31 22:23:39.6	96.000	0.120	-1.050	0.600
2020/01/31 22:23:39.7	96.010	0.150	-1.070	0.560
2020/01/31 22:23:39.8	96.010	0.190	-1.090	0.530
2020/01/31 22:23:39.9	96.010	0.220	-1.100	0.490
2020/01/31 22:23:40.0	96.020	0.250	-1.110	0.440
2020/01/31 22:23:40.1	96.020	0.270	-1.120	0.400
2020/01/31 22:23:40.2	96.020	0.300	-1.120	0.370
2020/01/31 22:23:40.3	96.020	0.330	-1.110	0.330
2020/01/31 22:23:40.4	96.020	0.350	-1.100	0.290
2020/01/31 22:23:40.5	96.020	0.380	-1.080	0.250
2020/01/31 22:23:40.6	96.010	0.400	-1.060	0.210
2020/01/31 22:23:40.7	96.000	0.420	-1.040	0.170
2020/01/31 22:23:40.8	96.000	0.440	-1.010	0.130
2020/01/31 22:23:40.9	95.990	0.460	-0.970	0.090
2020/01/31 22:23:41.0	95.970	0.470	-0.930	0.050
2020/01/31 22:23:41.1	95.960	0.490	-0.890	0.020
2020/01/31 22:23:41.2	95.950	0.500	-0.850	-0.020
2020/01/31 22:23:41.3	95.940	0.510	-0.800	-0.060
2020/01/31 22:23:41.4	95.930	0.520	-0.750	-0.100
2020/01/31 22:23:41.5	95.920	0.530	-0.700	-0.130
2020/01/31 22:23:41.6	95.910	0.530	-0.640	-0.170
2020/01/31 22:23:41.7	95.900	0.540	-0.580	-0.200
2020/01/31 22:23:41.8	95.890	0.540	-0.520	-0.240
2020/01/31 22:23:41.9	95.880	0.540	-0.460	-0.270
2020/01/31 22:23:42.0	95.870	0.540	-0.390	-0.310
2020/01/31 22:23:42.1	95.860	0.530	-0.330	-0.340
2020/01/31 22:23:42.2	95.850	0.520	-0.260	-0.380
2020/01/31 22:23:42.3	95.840	0.510	-0.200	-0.410
2020/01/31 22:23:42.4	95.840	0.500	-0.130	-0.440
2020/01/31 22:23:42.5	95.830	0.490	-0.070	-0.470
2020/01/31 22:23:42.6	95.820	0.470	0.000	-0.490
2020/01/31 22:23:42.7	95.810	0.460	0.070	-0.520
2020/01/31 22:23:42.8	95.810	0.430	0.130	-0.540
2020/01/31 22:23:42.9	95.800	0.410	0.190	-0.570
2020/01/31 22:23:43.0	95.800	0.390	0.260	-0.580
2020/01/31 22:23:43.1	95.800	0.360	0.320	-0.600
2020/01/31 22:23:43.2	95.790	0.330	0.370	-0.610
2020/01/31 22:23:43.3	95.780	0.300	0.430	-0.630
2020/01/31 22:23:43.4	95.780	0.260	0.480	-0.630
2020/01/31 22:23:43.5	95.770	0.230	0.530	-0.640
2020/01/31 22:23:43.6	95.760	0.190	0.580	-0.640
2020/01/31 22:23:43.7	95.750	0.150	0.620	-0.640
2020/01/31 22:23:43.8	95.750	0.110	0.660	-0.640
2020/01/31 22:23:43.9	95.740	0.060	0.690	-0.630
2020/01/31 22:23:44.0	95.730	0.020	0.730	-0.620
2020/01/31 22:23:44.1	95.730	-0.030	0.750	-0.610
2020/01/31 22:23:44.2	95.720	-0.070	0.780	-0.600
2020/01/31 22:23:44.3	95.710	-0.120	0.800	-0.580
2020/01/31 22:23:44.4	95.700	-0.170	0.810	-0.570
2020/01/31 22:23:44.5	95.700	-0.210	0.820	-0.550
2020/01/31 22:23:44.6	95.690	-0.260	0.820	-0.530
2020/01/31 22:23:44.7	95.690	-0.310	0.820	-0.500
2020/01/31 22:23:44.8	95.680	-0.360	0.810	-0.480
2020/01/31 22:23:44.9	95.680	-0.400	0.800	-0.450
2020/01/31 22:23:45.0	95.680	-0.450	0.790	-0.430
2020/01/31 22:23:45.1	95.670	-0.490	0.770	-0.400
2020/01/31 22:23:45.2	95.670	-0.530	0.740	-0.370
2020/01/31 22:23:45.3	95.670	-0.570	0.710	-0.340
2020/01/31 22:23:45.4	95.670	-0.610	0.670	-0.310
2020/01/31 22:23:45.5	95.670	-0.650	0.640	-0.280
2020/01/31 22:23:45.6	95.670	-0.680	0.590	-0.250
2020/01/31 22:23:45.7	95.670	-0.710	0.550	-0.220
2020/01/31 22:23:45.8	95.670	-0.740	0.500	-0.190
2020/01/31 22:23:45.9	95.670	-0.770	0.440	-0.160
2020/01/31 22:23:46.0	95.670	-0.790	0.390	-0.120
2020/01/31 22:23:46.1	95.670	-0.810	0.320	-0.090
2020/01/31 22:23:46.2	95.670	-0.820	0.260	-0.050
2020/01/31 22:23:46.3	95.670	-0.830	0.200	-0.020
2020/01/31 22:23:46.4	95.680	-0.840	0.130	0.020
2020/01/31 22:23:46.5	95.680	-0.840	0.060	0.050
2020/01/31 22:23:46.6	95.680	-0.840	-0.010	0.090
2020/01/31 22:23:46.7	95.680	-0.830	-0.080	0.130
2020/01/31 22:23:46.8	95.680	-0.820	-0.150	0.170
2020/01/31 22:23:46.9	95.680	-0.810	-0.230	0.200
2020/01/31 22:23:47.0	95.680	-0.790	-0.310	0.240
2020/01/31 22:23:47.1	95.680	-0.760	-0.380	0.280
2020/01/31 22:23:47.2	95.680	-0.740	-0.450	0.320
2020/01/31 22:23:47.3	95.680	-0.700	-0.520	0.360
2020/01/31 22:23:47.4	95.670	-0.670	-0.590	0.400
2020/01/31 22:23:47.5	95.670	-0.630	-0.650	0.430
2020/01/31 22:23:47.6	95.670	-0.590	-0.720	0.470
2020/01/31 22:23:47.7	95.670	-0.550	-0.780	0.500
2020/01/31 22:23:47.8	95.670	-0.500	-0.830	0.530
2020/01/31 22:23:47.9	95.670	-0.450	-0.890	0.560
2020/01/31 22:23:48.0	95.660	-0.390	-0.940	0.590
2020/01/31 22:23:48.1	95.660	-0.340	-0.980	0.620
2020/01/31 22:23:48.2	95.660	-0.280	-1.020	0.650
2020/01/31 22:23:48.3	95.660	-0.230	-1.050	0.670
2020/01/31 22:23:48.4	95.660	-0.170	-1.080	0.690
2020/01/31 22:23:48.5	95.670	-0.110	-1.110	0.710
2020/01/31 22:23:48.6	95.670	-0.050	-1.130	0.730
2020/01/31 22:23:48.7	95.670	0.010	-1.140	0.740
2020/01/31 22:23:48.8	95.680	0.070	-1.150	0.750
2020/01/31 22:23:48.9	95.680	0.120	-1.150	0.760
2020/01/31 22:23:49.0	95.680	0.180	-1.150	0.770
2020/01/31 22:23:49.1	95.690	0.230	-1.140	0.770
2020/01/31 22:23:49.2	95.690	0.290	-1.120	0.780
2020/01/31 22:23:49.3	95.700	0.340	-1.100	0.780
2020/01/31 22:23:49.4	95.710	0.390	-1.080	0.780
2020/01/31 22:23:49.5	95.710	0.430	-1.050	0.770
2020/01/31 22:23:49.6	95.720	0.470	-1.010	0.770
2020/01/31 22:23:49.7	95.730	0.510	-0.970	0.760
2020/01/31 22:23:49.8	95.730	0.550	-0.930	0.750
2020/01/31 22:23:49.9	95.740	0.580	-0.880	0.750
2020/01/31 22:23:50.0	95.740	0.610	-0.830	0.740
2020/01/31 22:23:50.1	95.750	0.640	-0.780	0.730
2020/01/31 22:23:50.2	95.750	0.660	-0.720	0.720
2020/01/31 22:23:50.3	95.760	0.680	-0.660	0.710
2020/01/31 22:23:50.4	95.760	0.690	-0.600	0.700
2020/01/31 22:23:50.5	95.760	0.700	-0.530	0.690
2020/01/31 22:23:50.6	95.760	0.710	-0.470	0.680
2020/01/31 22:23:50.7	95.760	0.710	-0.400	0.680
2020/01/31 22:23:50.8	95.760	0.710	-0.330	0.670
2020/01/31 22:23:50.9	95.760	0.710	-0.260	0.660
2020/01/31 22:23:51.0	95.760	0.700	-0.190	0.660
2020/01/31 22:23:51.1	95.760	0.690	-0.120	0.650
2020/01/31 22:23:51.2	95.760	0.670	-0.050	0.640
2020/01/31 22:23:51.3	95.750	0.660	0.010	0.640
2020/01/31 22:23:51.4	95.750	0.640	0.080	0.640
2020/01/31 22:23:51.5	95.740	0.610	0.140	0.630
2020/01/31 22:23:51.6	95.740	0.590	0.210	0.630
2020/01/31 22:23:51.7	95.730	0.560	0.260	0.620
2020/01/31 22:23:51.8	95.720	0.530	0.320	0.620
2020/01/31 22:23:51.9	95.710	0.500	0.370	0.610
2020/01/31 22:23:52.0	95.700	0.460	0.420	0.610
2020/01/31 22:23:52.1	95.700	0.430	0.460	0.600
2020/01/31 22:23:52.2	95.690	0.390	0.500	0.590
2020/01/31 22:23:52.3	95.680	0.360	0.530	0.580
2020/01/31 22:23:52.4	95.670	0.320	0.550	0.570
2020/01/31 22:23:52.5	95.660	0.280	0.570	0.550
2020/01/31 22:23:52.6	95.650	0.250	0.590	0.540
2020/01/31 22:23:52.7	95.640	0.210	0.600	0.520
2020/01/31 22:23:52.8	95.630	0.170	0.600	0.500
2020/01/31 22:23:52.9	95.620	0.140	0.600	0.470
2020/01/31 22:23:53.0	95.610	0.100	0.590	0.440
2020/01/31 22:23:53.1	95.600	0.070	0.570	0.410
2020/01/31 22:23:53.2	95.590	0.030	0.560	0.380
2020/01/31 22:23:53.3	95.580	0.000	0.530	0.350
2020/01/31 22:23:53.4	95.570	-0.030	0.500	0.320
2020/01/31 22:23:53.5	95.560	-0.060	0.470	0.280
2020/01/31 22:23:53.6	95.550	-0.090	0.440	0.250
2020/01/31 22:23:53.7	95.540	-0.110	0.400	0.210
2020/01/31 22:23:53.8	95.530	-0.140	0.360	0.170
2020/01/31 22:23:53.9	95.520	-0.160	0.310	0.130
2020/01/31 22:23:54.0	95.500	-0.180	0.260	0.100
2020/01/31 22:23:54.1	95.490	-0.200	0.210	0.060
2020/01/31 22:23:54.2	95.480	-0.210	0.160	0.030
2020/01/31 22:23:54.3	95.470	-0.230	0.110	-0.010
2020/01/31 22:23:54.4	95.460	-0.240	0.060	-0.040
2020/01/31 22:23:54.5	95.450	-0.250	0.010	-0.070
2020/01/31 22:23:54.6	95.430	-0.260	-0.040	-0.100
2020/01/31 22:23:54.7	95.420	-0.260	-0.090	-0.130
2020/01/31 22:23:54.8	95.410	-0.260	-0.140	-0.160
2020/01/31 22:23:54.9	95.400	-0.270	-0.190	-0.180
2020/01/31 22:23:55.0	95.380	-0.260	-0.230	-0.210
2020/01/31 22:23:55.1	95.370	-0.260	-0.280	-0.230
2020/01/31 22:23:55.2	95.360	-0.260	-0.320	-0.250
2020/01/31 22:23:55.3	95.350	-0.250	-0.370	-0.260
2020/01/31 22:23:55.4	95.350	-0.240	-0.410	-0.280
2020/01/31 22:23:55.5	95.340	-0.230	-0.450	-0.290
2020/01/31 22:23:55.6	95.330	-0.220	-0.480	-0.300
2020/01/31 22:23:55.7	95.320	-0.210	-0.520	-0.310
2020/01/31 22:23:55.8	95.320	-0.190	-0.550	-0.310
2020/01/31 22:23:55.9	95.320	-0.170	-0.580	-0.320
2020/01/31 22:23:56.0	95.320	-0.160	-0.600	-0.320
2020/01/31 22:23:56.1	95.310	-0.140	-0.630	-0.330
2020/01/31 22:23:56.2	95.310	-0.120	-0.650	-0.330
2020/01/31 22:23:56.3	95.320	-0.100	-0.670	-0.330
2020/01/31 22:23:56.4	95.320	-0.080	-0.680	-0.340
2020/01/31 22:23:56.5	95.320	-0.060	-0.690	-0.340
2020/01/31 22:23:56.6	95.330	-0.040	-0.710	-0.340
2020/01/31 22:23:56.7	95.340	-0.020	-0.710	-0.350
2020/01/31 22:23:56.8	95.340	-0.000	-0.720	-0.350
2020/01/31 22:23:56.9	95.350	0.020	-0.720	-0.360
2020/01/31 22:23:57.0	95.360	0.040	-0.730	-0.360
2020/01/31 22:23:57.1	95.380	0.060	-0.730	-0.370
2020/01/31 22:23:57.2	95.390	0.080	-0.720	-0.370
2020/01/31 22:23:57.3	95.400	0.100	-0.720	-0.380
2020/01/31 22:23:57.4	95.420	0.120	-0.710	-0.380
2020/01/31 22:23:57.5	95.440	0.140	-0.700	-0.390
2020/01/31 22:23:57.6	95.450	0.150	-0.690	-0.390
2020/01/31 22:23:57.7	95.470	0.170	-0.680	-0.400
2020/01/31 22:23:57.8	95.490	0.180	-0.670	-0.400
2020/01/31 22:23:57.9	95.500	0.190	-0.650	-0.400
2020/01/31 22:23:58.0	95.520	0.210	-0.630	-0.400
2020/01/31 22:23:58.1	95.530	0.210	-0.610	-0.400
2020/01/31 22:23:58.2	95.550	0.220	-0.590	-0.400
2020/01/31 22:23:58.3	95.560	0.230	-0.560	-0.400
2020/01/31 22:23:58.4	95.580	0.230	-0.530	-0.390
2020/01/31 22:23:58.5	95.590	0.230	-0.500	-0.390
2020/01/31 22:23:58.6	95.610	0.230	-0.470	-0.380
2020/01/31 22:23:58.7	95.620	0.230	-0.430	-0.370
2020/01/31 22:23:58.8	95.630	0.230	-0.390	-0.360
2020/01/31 22:23:58.9	95.650	0.220	-0.350	-0.350
2020/01/31 22:23:59.0	95.660	0.210	-0.310	-0.330
2020/01/31 22:23:59.1	95.670	0.200	-0.260	-0.310
2020/01/31 22:23:59.2	95.690	0.190	-0.210	-0.300
2020/01/31 22:23:59.3	95.700	0.170	-0.160	-0.280
2020/01/31 22:23:59.4	95.710	0.150	-0.110	-0.260
2020/01/31 22:23:59.5	95.720	0.130	-0.060	-0.240
2020/01/31 22:23:59.6	95.730	0.110	-0.000	-0.220
2020/01/31 22:23:59.7	95.740	0.090	0.050	-0.200
2020/01/31 22:23:59.8	95.760	0.060	0.110	-0.180
2020/01/31 22:23:59.9	95.770	0.040	0.160	-0.160
2020/01/31 22:24:00.0	95.790	0.010	0.220	-0.130
2020/01/31 22:24:00.1	95.800	-0.010	0.270	-0.110
2020/01/31 22:24:00.2	95.810	-0.040	0.320	-0.080
2020/01/31 22:24:00.3	95.820	-0.070	0.370	-0.050
2020/01/31 22:24:00.4	95.830	-0.100	0.410	-0.020
2020/01/31 22:24:00.5	95.840	-0.120	0.450	0.010
2020/01/31 22:24:00.6	95.850	-0.150	0.490	0.040
2020/01/31 22:24:00.7	95.860	-0.170	0.520	0.070
2020/01/31 22:24:00.8	95.870	-0.200	0.550	0.100
2020/01/31 22:24:00.9	95.880	-0.220	0.570	0.140
2020/01/31 22:24:01.0	95.890	-0.240	0.580	0.170
2020/01/31 22:24:01.1	95.900	-0.260	0.590	0.210
2020/01/31 22:24:01.2	95.900	-0.280	0.590	0.250
2020/01/31 22:24:01.3	95.910	-0.300	0.590	0.290
2020/01/31 22:24:01.4	95.910	-0.310	0.580	0.330
2020/01/31 22:24:01.5	95.920	-0.320	0.570	0.370
2020/01/31 22:24:01.6	95.920	-0.330	0.550	0.410
2020/01/31 22:24:01.7	95.920	-0.340	0.520	0.450
2020/01/31 22:24:01.8	95.920	-0.340	0.490	0.490
2020/01/31 22:24:01.9	95.920	-0.340	0.450	0.530
2020/01/31 22:24:02.0	95.920	-0.340	0.410	0.570
2020/01/31 22:24:02.1	95.910	-0.340	0.360	0.610
2020/01/31 22:24:02.2	95.910	-0.330	0.320	0.650
2020/01/31 22:24:02.3	95.910	-0.320	0.260	0.690
2020/01/31 22:24:02.4	95.900	-0.310	0.210	0.730
2020/01/31 22:24:02.5	95.890	-0.300	0.160	0.760
2020/01/31 22:24:02.6	95.890	-0.280	0.100	0.800
2020/01/31 22:24:02.7	95.880	-0.270	0.040	0.830
2020/01/31 22:24:02.8	95.870	-0.250	-0.010	0.860
2020/01/31 22:24:02.9	95.870	-0.230	-0.070	0.890
2020/01/31 22:24:03.0	95.860	-0.210	-0.130	0.920
2020/01/31 22:24:03.1	95.850	-0.190	-0.180	0.940
2020/01/31 22:24:03.2	95.840	-0.160	-0.230	0.960
2020/01/31 22:24:03.3	95.830	-0.140	-0.280	0.980
2020/01/31 22:24:03.4	95.820	-0.120	-0.320	1.000
2020/01/31 22:24:03.5	95.810	-0.090	-0.370	1.020
2020/01/31 22:24:03.6	95.800	-0.070	-0.410	1.030
2020/01/31 22:24:03.7	95.790	-0.050	-0.440	1.040
2020/01/31 22:24:03.8	95.780	-0.020	-0.470	1.050
2020/01/31 22:24:03.9	95.770	-0.000	-0.500	1.050
2020/01/31 22:24:04.0	95.760	0.020	-0.530	1.050
2020/01/31 22:24:04.1	95.750	0.040	-0.550	1.050
2020/01/31 22:24:04.2	95.740	0.060	-0.560	1.050
2020/01/31 22:24:04.3	95.730	0.080	-0.580	1.040
2020/01/31 22:24:04.4	95.720	0.100	-0.590	1.040
2020/01/31 22:24:04.5	95.720	0.110	-0.590	1.030
2020/01/31 22:24:04.6	95.710	0.130	-0.590	1.020
2020/01/31 22:24:04.7	95.700	0.140	-0.590	1.000
2020/01/31 22:24:04.8	95.700	0.150	-0.580	0.990
2020/01/31 22:24:04.9	95.690	0.160	-0.570	0.980
2020/01/31 22:24:05.0	95.680	0.170	-0.560	0.960
2020/01/31 22:24:05.1	95.680	0.180	-0.550	0.940
2020/01/31 22:24:05.2	95.670	0.190	-0.530	0.920
2020/01/31 22:24:05.3	95.670	0.190	-0.510	0.900
2020/01/31 22:24:05.4	95.660	0.200	-0.490	0.880
2020/01/31 22:24:05.5	95.660	0.200	-0.470	0.860
2020/01/31 22:24:05.6	95.650	0.200	-0.440	0.840
2020/01/31 22:24:05.7	95.650	0.200	-0.420	0.810
2020/01/31 22:24:05.8	95.650	0.200	-0.400	0.790
2020/01/31 22:24:05.9	95.640	0.190	-0.370	0.770
2020/01/31 22:24:06.0	95.640	0.190	-0.340	0.740
2020/01/31 22:24:06.1	95.630	0.190	-0.320	0.720
2020/01/31 22:24:06.2	95.630	0.180	-0.300	0.690
2020/01/31 22:24:06.3	95.620	0.170	-0.270	0.670
2020/01/31 22:24:06.4	95.620	0.170	-0.250	0.640
2020/01/31 22:24:06.5	95.610	0.160	-0.230	0.620
2020/01/31 22:24:06.6	95.610	0.150	-0.210	0.590
2020/01/31 22:24:06.7	95.600	0.150	-0.190	0.560
2020/01/31 22:24:06.8	95.600	0.140	-0.180	0.530
2020/01/31 22:24:06.9	95.600	0.130	-0.170	0.500
2020/01/31 22:24:07.0	95.600	0.120	-0.150	0.470
2020/01/31 22:24:07.1	95.590	0.120	-0.150	0.440
2020/01/31 22:24:07.2	95.590	0.110	-0.140	0.410
2020/01/31 22:24:07.3	95.590	0.100	-0.140	0.370
2020/01/31 22:24:07.4	95.600	0.100	-0.140	0.340
2020/01/31 22:24:07.5	95.600	0.090	-0.140	0.300
2020/01/31 22:24:07.6	95.600	0.090	-0.150	0.260
2020/01/31 22:24:07.7	95.610	0.090	-0.150	0.220
2020/01/31 22:24:07.8	95.620	0.090	-0.160	0.180
2020/01/31 22:24:07.9	95.620	0.090	-0.170	0.140
2020/01/31 22:24:08.0	95.630	0.090	-0.190	0.100
2020/01/31 22:24:08.1	95.640	0.090	-0.200	0.060
2020/01/31 22:24:08.2	95.640	0.090	-0.220	0.020
2020/01/31 22:24:08.3	95.650	0.090	-0.240	-0.020
2020/01/31 22:24:08.4	95.660	0.100	-0.250	-0.050
2020/01/31 22:24:08.5	95.670	0.100	-0.270	-0.090
2020/01/31 22:24:08.6	95.680	0.110	-0.290	-0.120
2020/01/31 22:24:08.7	95.690	0.120	-0.310	-0.160
2020/01/31 22:24:08.8	95.690	0.120	-0.330	-0.190
2020/01/31 22:24:08.9	95.700	0.130	-0.350	-0.210
2020/01/31 22:24:09.0	95.710	0.140	-0.360	-0.240
2020/01/31 22:24:09.1	95.720	0.150	-0.380	-0.260
2020/01/31 22:24:09.2	95.720	0.160	-0.400	-0.280
2020/01/31 22:24:09.3	95.720	0.160	-0.410	-0.290
2020/01/31 22:24:09.4	95.730	0.170	-0.430	-0.300
2020/01/31 22:24:09.5	95.730	0.180	-0.450	-0.310
2020/01/31 22:24:09.6	95.730	0.190	-0.460	-0.320
2020/01/31 22:24:09.7	95.730	0.200	-0.470	-0.320
2020/01/31 22:24:09.8	95.730	0.210	-0.480	-0.320
2020/01/31 22:24:09.9	95.730	0.210	-0.490	-0.320
2020/01/31 22:24:10.0	95.730	0.220	-0.500	-0.320
2020/01/31 22:24:10.1	95.730	0.220	-0.510	-0.310
2020/01/31 22:24:10.2	95.730	0.230	-0.510	-0.300
2020/01/31 22:24:10.3	95.730	0.230	-0.510	-0.290
2020/01/31 22:24:10.4	95.740	0.230	-0.510	-0.280
2020/01/31 22:24:10.5	95.740	0.230	-0.510	-0.270
2020/01/31 22:24:10.6	95.740	0.230	-0.500	-0.250
2020/01/31 22:24:10.7	95.740	0.230	-0.490	-0.240
2020/01/31 22:24:10.8	95.750	0.220	-0.480	-0.220
2020/01/31 22:24:10.9	95.750	0.220	-0.470	-0.200
2020/01/31 22:24:11.0	95.750	0.210	-0.450	-0.180
2020/01/31 22:24:11.1	95.750	0.200	-0.420	-0.150
2020/01/31 22:24:11.2	95.760	0.190	-0.400	-0.130
2020/01/31 22:24:11.3	95.760	0.180	-0.370	-0.110
2020/01/31 22:24:11.4	95.760	0.160	-0.330	-0.090
2020/01/31 22:24:11.5	95.760	0.150	-0.290	-0.060
2020/01/31 22:24:11.6	95.760	0.130	-0.250	-0.040
2020/01/31 22:24:11.7	95.760	0.120	-0.200	-0.010
2020/01/31 22:24:11.8	95.760	0.100	-0.160	0.010
2020/01/31 22:24:11.9	95.750	0.080	-0.100	0.040
2020/01/31 22:24:12.0	95.750	0.060	-0.050	0.060
2020/01/31 22:24:12.1	95.750	0.030	0.010	0.090
2020/01/31 22:24:12.2	95.740	0.010	0.060	0.110
2020/01/31 22:24:12.3	95.740	-0.010	0.120	0.130
2020/01/31 22:24:12.4	95.730	-0.040	0.180	0.150
2020/01/31 22:24:12.5	95.720	-0.060	0.240	0.170
2020/01/31 22:24:12.6	95.710	-0.080	0.300	0.200
2020/01/31 22:24:12.7	95.710	-0.110	0.360	0.210
2020/01/31 22:24:12.8	95.700	-0.130	0.420	0.230
2020/01/31 22:24:12.9	95.690	-0.150	0.470	0.250
2020/01/31 22:24:13.0	95.680	-0.170	0.520	0.270
2020/01/31 22:24:13.1	95.680	-0.190	0.570	0.280
2020/01/31 22:24:13.2	95.670	-0.210	0.620	0.300
2020/01/31 22:24:13.3	95.660	-0.230	0.660	0.310
2020/01/31 22:24:13.4	95.650	-0.240	0.690	0.320
2020/01/31 22:24:13.5	95.640	-0.260	0.720	0.330
2020/01/31 22:24:13.6	95.630	-0.270	0.750	0.340
2020/01/31 22:24:13.7	95.620	-0.280	0.760	0.350
2020/01/31 22:24:13.8	95.620	-0.290	0.770	0.350
2020/01/31 22:24:13.9	95.610	-0.290	0.780	0.360
2020/01/31 22:24:14.0	95.600	-0.290	0.770	0.360
2020/01/31 22:24:14.1	95.600	-0.290	0.760	0.360
2020/01/31 22:24:14.2	95.600	-0.290	0.740	0.360
2020/01/31 22:24:14.3	95.590	-0.280	0.720	0.360
2020/01/31 22:24:14.4	95.590	-0.270	0.680	0.350
2020/01/31 22:24:14.5	95.590	-0.260	0.640	0.340
2020/01/31 22:24:14.6	95.590	-0.250	0.600	0.340
2020/01/31 22:24:14.7	95.590	-0.230	0.550	0.330
2020/01/31 22:24:14.8	95.590	-0.220	0.490	0.320
2020/01/31 22:24:14.9	95.590	-0.200	0.430	0.310
2020/01/31 22:24:15.0	95.580	-0.180	0.350	0.290
2020/01/31 22:24:15.1	95.590	-0.150	0.280	0.280
2020/01/31 22:24:15.2	95.590	-0.130	0.210	0.260
2020/01/31 22:24:15.3	95.590	-0.100	0.130	0.240
2020/01/31 22:24:15.4	95.600	-0.070	0.050	0.230
2020/01/31 22:24:15.5	95.600	-0.040	-0.040	0.210
2020/01/31 22:24:15.6	95.610	-0.010	-0.120	0.190
2020/01/31 22:24:15.7	95.620	0.020	-0.210	0.170
2020/01/31 22:24:15.8	95.630	0.050	-0.290	0.150
2020/01/31 22:24:15.9	95.630	0.080	-0.370	0.130
2020/01/31 22:24:16.0	95.640	0.110	-0.460	0.120
2020/01/31 22:24:16.1	95.650	0.140	-0.540	0.100
2020/01/31 22:24:16.2	95.660	0.160	-0.610	0.080
2020/01/31 22:24:16.3	95.670	0.190	-0.690	0.070
2020/01/31 22:24:16.4	95.680	0.220	-0.760	0.050
2020/01/31 22:24:16.5	95.690	0.240	-0.830	0.040
2020/01/31 22:24:16.6	95.700	0.270	-0.890	0.030
2020/01/31 22:24:16.7	95.710	0.290	-0.950	0.020
2020/01/31 22:24:16.8	95.720	0.310	-1.010	0.020
2020/01/31 22:24:16.9	95.730	0.330	-1.060	0.010
2020/01/31 22:24:17.0	95.740	0.350	-1.100	0.010
2020/01/31 22:24:17.1	95.750	0.360	-1.140	0.020
2020/01/31 22:24:17.2	95.760	0.370	-1.170	0.020
2020/01/31 22:24:17.3	95.780	0.380	-1.200	0.030
2020/01/31 22:24:17.4	95.790	0.390	-1.220	0.050
2020/01/31 22:24:17.5	95.800	0.390	-1.230	0.060
2020/01/31 22:24:17.6	95.810	0.390	-1.240	0.080
2020/01/31 22:24:17.7	95.810	0.390	-1.240	0.100
2020/01/31 22:24:17.8	95.820	0.390	-1.240	0.130
2020/01/31 22:24:17.9	95.830	0.380	-1.220	0.150
2020/01/31 22:24:18.0	95.840	0.370	-1.200	0.180
2020/01/31 22:24:18.1	95.840	0.360	-1.170	0.210
2020/01/31 22:24:18.2	95.850	0.340	-1.140	0.250
2020/01/31 22:24:18.3	95.850	0.330	-1.100	0.290
2020/01/31 22:24:18.4	95.850	0.310	-1.050	0.320
2020/01/31 22:24:18.5	95.850	0.290	-1.000	0.360
2020/01/31 22:24:18.6	95.850	0.260	-0.930	0.410
2020/01/31 22:24:18.7	95.850	0.240	-0.870	0.450
2020/01/31 22:24:18.8	95.850	0.210	-0.800	0.490
2020/01/31 22:24:18.9	95.840	0.180	-0.720	0.530
2020/01/31 22:24:19.0	95.840	0.150	-0.640	0.580
2020/01/31 22:24:19.1	95.830	0.120	-0.550	0.620
2020/01/31 22:24:19.2	95.830	0.080	-0.470	0.660
2020/01/31 22:24:19.3	95.820	0.050	-0.380	0.710
2020/01/31 22:24:19.4	95.810	0.010	-0.290	0.750
2020/01/31 22:24:19.5	95.800	-0.030	-0.190	0.790
2020/01/31 22:24:19.6	95.790	-0.060	-0.100	0.820
2020/01/31 22:24:19.7	95.770	-0.100	-0.010	0.860
2020/01/31 22:24:19.8	95.760	-0.140	0.090	0.890
2020/01/31 22:24:19.9	95.750	-0.180	0.180	0.930
2020/01/31 22:24:20.0	95.740	-0.210	0.270	0.960
2020/01/31 22:24:20.1	95.730	-0.250	0.350	0.980
2020/01/31 22:24:20.2	95.710	-0.290	0.440	1.010
2020/01/31 22:24:20.3	95.690	-0.320	0.510	1.030
2020/01/31 22:24:20.4	95.680	-0.350	0.590	1.060
2020/01/31 22:24:20.5	95.660	-0.380	0.650	1.080
2020/01/31 22:24:20.6	95.640	-0.410	0.710	1.090
2020/01/31 22:24:20.7	95.620	-0.440	0.770	1.110
2020/01/31 22:24:20.8	95.610	-0.470	0.810	1.120
2020/01/31 22:24:20.9	95.590	-0.490	0.850	1.130
2020/01/31 22:24:21.0	95.580	-0.510	0.880	1.140
2020/01/31 22:24:21.1	95.560	-0.520	0.910	1.140
2020/01/31 22:24:21.2	95.550	-0.540	0.920	1.150
2020/01/31 22:24:21.3	95.540	-0.550	0.930	1.150
2020/01/31 22:24:21.4	95.520	-0.550	0.930	1.140
2020/01/31 22:24:21.5	95.510	-0.560	0.920	1.140
2020/01/31 22:24:21.6	95.500	-0.560	0.910	1.130
2020/01/31 22:24:21.7	95.490	-0.560	0.880	1.120
2020/01/31 22:24:21.8	95.490	-0.550	0.850	1.110
2020/01/31 22:24:21.9	95.480	-0.540	0.810	1.090
2020/01/31 22:24:22.0	95.480	-0.530	0.760	1.070
2020/01/31 22:24:22.1	95.480	-0.510	0.710	1.050
2020/01/31 22:24:22.2	95.480	-0.490	0.650	1.020
2020/01/31 22:24:22.3	95.490	-0.470	0.590	0.990
2020/01/31 22:24:22.4	95.490	-0.450	0.520	0.960
2020/01/31 22:24:22.5	95.500	-0.420	0.450	0.920
2020/01/31 22:24:22.6	95.510	-0.390	0.370	0.880
2020/01/31 22:24:22.7	95.530	-0.360	0.290	0.840
2020/01/31 22:24:22.8	95.540	-0.330	0.210	0.790
2020/01/31 22:24:22.9	95.560	-0.290	0.120	0.740
2020/01/31 22:24:23.0	95.580	-0.260	0.040	0.690
2020/01/31 22:24:23.1	95.600	-0.220	-0.050	0.640
2020/01/31 22:24:23.2	95.620	-0.180	-0.130	0.580
2020/01/31 22:24:23.3	95.640	-0.140	-0.210	0.530
2020/01/31 22:24:23.4	95.660	-0.110	-0.290	0.470
2020/01/31 22:24:23.5	95.690	-0.070	-0.370	0.410
2020/01/31 22:24:23.6	95.710	-0.030	-0.440	0.350
2020/01/31 22:24:23.7	95.730	0.010	-0.510	0.280
2020/01/31 22:24:23.8	95.750	0.040	-0.570	0.220
2020/01/31 22:24:23.9	95.780	0.080	-0.640	0.160
2020/01/31 22:24:24.0	95.800	0.120	-0.690	0.100
2020/01/31 22:24:24.1	95.820	0.150	-0.740	0.030
2020/01/31 22:24:24.2	95.840	0.180	-0.780	-0.030
2020/01/31 22:24:24.3	95.860	0.220	-0.820	-0.090
2020/01/31 22:24:24.4	95.880	0.250	-0.850	-0.140
2020/01/31 22:24:24.5	95.900	0.270	-0.880	-0.200
2020/01/31 22:24:24.6	95.920	0.300	-0.900	-0.250
2020/01/31 22:24:24.7	95.940	0.330	-0.920	-0.310
2020/01/31 22:24:24.8	95.960	0.350	-0.930	-0.360
2020/01/31 22:24:24.9	95.970	0.370	-0.930	-0.400
2020/01/31 22:24:25.0	95.980	0.390	-0.940	-0.450
2020/01/31 22:24:25.1	96.000	0.410	-0.930	-0.490
2020/01/31 22:24:25.2	96.020	0.420	-0.920	-0.530
2020/01/31 22:24:25.3	96.030	0.440	-0.910	-0.560
2020/01/31 22:24:25.4	96.050	0.450	-0.900	-0.590
2020/01/31 22:24:25.5	96.060	0.460	-0.880	-0.620
2020/01/31 22:24:25.6	96.080	0.470	-0.860	-0.640
2020/01/31 22:24:25.7	96.100	0.480	-0.840	-0.660
2020/01/31 22:24:25.8	96.110	0.490	-0.820	-0.680
2020/01/31 22:24:25.9	96.120	0.490	-0.790	-0.690
2020/01/31 22:24:26.0	96.130	0.490	-0.770	-0.700
2020/01/31 22:24:26.1	96.140	0.490	-0.740	-0.700
2020/01/31 22:24:26.2	96.160	0.490	-0.710	-0.700
2020/01/31 22:24:26.3	96.170	0.490	-0.690	-0.700
2020/01/31 22:24:26.4	96.180	0.490	-0.660	-0.690
2020/01/31 22:24:26.5	96.190	0.480	-0.630	-0.680
2020/01/31 22:24:26.6	96.200	0.480	-0.600	-0.660
2020/01/31 22:24:26.7	96.200	0.470	-0.570	-0.640
2020/01/31 22:24:26.8	96.210	0.450	-0.550	-0.610
2020/01/31 22:24:26.9	96.210	0.440	-0.520	-0.590
2020/01/31 22:24:27.0	96.220	0.430	-0.490	-0.550
2020/01/31 22:24:27.1	96.220	0.410	-0.450	-0.520
2020/01/31 22:24:27.2	96.220	0.390	-0.420	-0.480
2020/01/31 22:24:27.3	96.210	0.370	-0.390	-0.440
2020/01/31 22:24:27.4	96.210	0.340	-0.360	-0.400
2020/01/31 22:24:27.5	96.200	0.320	-0.330	-0.360
2020/01/31 22:24:27.6	96.190	0.290	-0.290	-0.310
2020/01/31 22:24:27.7	96.190	0.260	-0.260	-0.260
2020/01/31 22:24:27.8	96.170	0.230	-0.220	-0.210
2020/01/31 22:24:27.9	96.160	0.190	-0.180	-0.150
2020/01/31 22:24:28.0	96.150	0.160	-0.140	-0.100
2020/01/31 22:24:28.1	96.140	0.120	-0.100	-0.040
2020/01/31 22:24:28.2	96.120	0.080	-0.060	0.010
2020/01/31 22:24:28.3	96.100	0.050	-0.020	0.070
2020/01/31 22:24:28.4	96.080	0.010	0.020	0.130
2020/01/31 22:24:28.5	96.060	-0.040	0.060	0.190
2020/01/31 22:24:28.6	96.040	-0.080	0.100	0.250
2020/01/31 22:24:28.7	96.020	-0.120	0.140	0.310
2020/01/31 22:24:28.8	96.000	-0.160	0.180	0.360
2020/01/31 22:24:28.9	95.970	-0.200	0.230	0.420
2020/01/31 22:24:29.0	95.950	-0.240	0.260	0.480
2020/01/31 22:24:29.1	95.930	-0.280	0.300	0.540
2020/01/31 22:24:29.2	95.910	-0.320	0.340	0.600
2020/01/31 22:24:29.3	95.880	-0.360	0.380	0.650
2020/01/31 22:24:29.4	95.860	-0.390	0.420	0.710
2020/01/31 22:24:29.5	95.840	-0.430	0.450	0.760
2020/01/31 22:24:29.6	95.820	-0.460	0.490	0.810
2020/01/31 22:24:29.7	95.800	-0.490	0.520	0.860
2020/01/31 22:24:29.8	95.790	-0.510	0.540	0.900
2020/01/31 22:24:29.9	95.770	-0.540	0.570	0.950
2020/01/31 22:24:30.0	95.760	-0.560	0.590	0.990
2020/01/31 22:24:30.1	95.750	-0.570	0.610	1.030
2020/01/31 22:24:30.2	95.740	-0.590	0.620	1.060
2020/01/31 22:24:30.3	95.730	-0.600	0.630	1.100
2020/01/31 22:24:30.4	95.720	-0.600	0.630	1.130
2020/01/31 22:24:30.5	95.720	-0.610	0.630	1.150
2020/01/31 22:24:30.6	95.720	-0.610	0.630	1.180
2020/01/31 22:24:30.7	95.720	-0.600	0.620	1.200
2020/01/31 22:24:30.8	95.730	-0.590	0.600	1.210
2020/01/31 22:24:30.9	95.730	-0.580	0.590	1.220
2020/01/31 22:24:31.0	95.760	-0.560	0.560	1.230
2020/01/31 22:24:31.1	95.770	-0.540	0.530	1.240
2020/01/31 22:24:31.2	95.790	-0.520	0.500	1.240
2020/01/31 22:24:31.3	95.810	-0.490	0.460	1.240
2020/01/31 22:24:31.4	95.830	-0.460	0.420	1.230
2020/01/31 22:24:31.5	95.850	-0.430	0.380	1.220
2020/01/31 22:24:31.6	95.880	-0.390	0.330	1.200
2020/01/31 22:24:31.7	95.910	-0.350	0.270	1.190
2020/01/31 22:24:31.8	95.940	-0.300	0.220	1.160
2020/01/31 22:24:31.9	95.970	-0.260	0.160	1.140
2020/01/31 22:24:32.0	96.020	-0.210	0.100	1.110
2020/01/31 22:24:32.1	96.050	-0.160	0.030	1.080
2020/01/31 22:24:32.2	96.090	-0.110	-0.030	1.040
2020/01/31 22:24:32.3	96.130	-0.050	-0.090	1.000
2020/01/31 22:24:32.4	96.170	-0.000	-0.160	0.960
2020/01/31 22:24:32.5	96.210	0.060	-0.230	0.910
2020/01/31 22:24:32.6	96.250	0.110	-0.290	0.870
2020/01/31 22:24:32.7	96.290	0.170	-0.360	0.820
2020/01/31 22:24:32.8	96.330	0.220	-0.420	0.760
2020/01/31 22:24:32.9	96.370	0.280	-0.490	0.710
2020/01/31 22:24:33.0	96.400	0.330	-0.550	0.660
2020/01/31 22:24:33.1	96.440	0.380	-0.610	0.600
2020/01/31 22:24:33.2	96.480	0.430	-0.660	0.540
2020/01/31 22:24:33.3	96.510	0.480	-0.720	0.490
2020/01/31 22:24:33.4	96.540	0.530	-0.770	0.430
2020/01/31 22:24:33.5	96.570	0.570	-0.810	0.370
2020/01/31 22:24:33.6	96.600	0.610	-0.860	0.310
2020/01/31 22:24:33.7	96.630	0.650	-0.900	0.250
2020/01/31 22:24:33.8	96.650	0.690	-0.930	0.190
2020/01/31 22:24:33.9	96.670	0.720	-0.960	0.140
2020/01/31 22:24:34.0	96.690	0.750	-0.990	0.080
2020/01/31 22:24:34.1	96.710	0.770	-1.010	0.030
2020/01/31 22:24:34.2	96.720	0.790	-1.020	-0.020
2020/01/31 22:24:34.3	96.740	0.810	-1.030	-0.070
2020/01/31 22:24:34.4	96.750	0.820	-1.030	-0.110
2020/01/31 22:24:34.5	96.760	0.820	-1.030	-0.150
2020/01/31 22:24:34.6	96.770	0.830	-1.020	-0.190
2020/01/31 22:24:34.7	96.770	0.820	-1.010	-0.220
2020/01/31 22:24:34.8	96.780	0.820	-0.990	-0.250
2020/01/31 22:24:34.9	96.780	0.800	-0.960	-0.270
2020/01/31 22:24:35.0	96.770	0.790	-0.930	-0.290
2020/01/31 22:24:35.1	96.770	0.770	-0.890	-0.300
2020/01/31 22:24:35.2	96.770	0.740	-0.850	-0.320
2020/01/31 22:24:35.3	96.770	0.710	-0.810	-0.320
2020/01/31 22:24:35.4	96.760	0.670	-0.760	-0.330
2020/01/31 22:24:35.5	96.750	0.630	-0.700	-0.320
2020/01/31 22:24:35.6	96.740	0.590	-0.650	-0.320
2020/01/31 22:24:35.7	96.730	0.550	-0.590	-0.310
2020/01/31 22:24:35.8	96.720	0.490	-0.530	-0.300
2020/01/31 22:24:35.9	96.710	0.440	-0.460	-0.280
2020/01/31 22:24:36.0	96.700	0.390	-0.400	-0.260
2020/01/31 22:24:36.1	96.680	0.330	-0.330	-0.230
2020/01/31 22:24:36.2	96.670	0.270	-0.260	-0.200
2020/01/31 22:24:36.3	96.650	0.200	-0.200	-0.170
2020/01/31 22:24:36.4	96.640	0.140	-0.130	-0.140
2020/01/31 22:24:36.5	96.620	0.070	-0.060	-0.100
2020/01/31 22:24:36.6	96.610	0.000	0.000	-0.060
2020/01/31 22:24:36.7	96.590	-0.060	0.070	-0.010
2020/01/31 22:24:36.8	96.580	-0.130	0.130	0.030
2020/01/31 22:24:36.9	96.560	-0.200	0.180	0.080
2020/01/31 22:24:37.0	96.550	-0.260	0.240	0.130
2020/01/31 22:24:37.1	96.530	-0.330	0.290	0.180
2020/01/31 22:24:37.2	96.520	-0.390	0.340	0.240
2020/01/31 22:24:37.3	96.500	-0.450	0.390	0.290
2020/01/31 22:24:37.4	96.490	-0.510	0.430	0.350
2020/01/31 22:24:37.5	96.470	-0.570	0.460	0.400
2020/01/31 22:24:37.6	96.460	-0.620	0.490	0.460
2020/01/31 22:24:37.7	96.450	-0.670	0.520	0.510
2020/01/31 22:24:37.8	96.440	-0.720	0.540	0.570
2020/01/31 22:24:37.9	96.430	-0.760	0.550	0.620
2020/01/31 22:24:38.0	96.430	-0.800	0.570	0.670
2020/01/31 22:24:38.1	96.430	-0.830	0.570	0.720
2020/01/31 22:24:38.2	96.420	-0.860	0.570	0.770
2020/01/31 22:24:38.3	96.420	-0.890	0.560	0.820
2020/01/31 22:24:38.4	96.420	-0.910	0.550	0.860
2020/01/31 22:24:38.5	96.420	-0.930	0.540	0.900
2020/01/31 22:24:38.6	96.430	-0.940	0.510	0.940
2020/01/31 22:24:38.7	96.430	-0.950	0.490	0.970
2020/01/31 22:24:38.8	96.440	-0.950	0.460	1.000
2020/01/31 22:24:38.9	96.450	-0.940	0.420	1.020
2020/01/31 22:24:39.0	96.460	-0.940	0.380	1.050
2020/01/31 22:24:39.1	96.470	-0.930	0.340	1.060
2020/01/31 22:24:39.2	96.490	-0.910	0.300	1.080
2020/01/31 22:24:39.3	96.510	-0.890	0.250	1.090
2020/01/31 22:24:39.4	96.530	-0.870	0.200	1.100
2020/01/31 22:24:39.5	96.550	-0.840	0.150	1.100
2020/01/31 22:24:39.6	96.570	-0.810	0.100	1.100
2020/01/31 22:24:39.7	96.590	-0.770	0.040	1.100
2020/01/31 22:24:39.8	96.610	-0.740	-0.010	1.090
2020/01/31 22:24:39.9	96.640	-0.700	-0.060	1.080
2020/01/31 22:24:40.0	96.650	-0.650	-0.110	1.070
2020/01/31 22:24:40.1	96.680	-0.610	-0.160	1.050
2020/01/31 22:24:40.2	96.700	-0.570	-0.210	1.030
2020/01/31 22:24:40.3	96.730	-0.520	-0.250	1.010
2020/01/31 22:24:40.4	96.750	-0.470	-0.300	0.990
2020/01/31 22:24:40.5	96.780	-0.420	-0.340	0.960
2020/01/31 22:24:40.6	96.800	-0.370	-0.370	0.930
2020/01/31 22:24:40.7	96.830	-0.320	-0.400	0.900
2020/01/31 22:24:40.8	96.850	-0.270	-0.430	0.870
2020/01/31 22:24:40.9	96.880	-0.220	-0.460	0.840
2020/01/31 22:24:41.0	96.900	-0.170	-0.480	0.800
2020/01/31 22:24:41.1	96.930	-0.130	-0.500	0.760
2020/01/31 22:24:41.2	96.950	-0.080	-0.510	0.720
2020/01/31 22:24:41.3	96.970	-0.030	-0.520	0.680
2020/01/31 22:24:41.4	96.990	0.010	-0.520	0.640
2020/01/31 22:24:41.5	97.010	0.060	-0.530	0.600
2020/01/31 22:24:41.6	97.020	0.100	-0.530	0.560
2020/01/31 22:24:41.7	97.040	0.140	-0.520	0.520
2020/01/31 22:24:41.8	97.060	0.180	-0.520	0.480
2020/01/31 22:24:41.9	97.080	0.220	-0.510	0.440
2020/01/31 22:24:42.0	97.090	0.260	-0.500	0.400
2020/01/31 22:24:42.1	97.100	0.290	-0.490	0.360
2020/01/31 22:24:42.2	97.120	0.320	-0.470	0.320
2020/01/31 22:24:42.3	97.130	0.350	-0.460	0.280
2020/01/31 22:24:42.4	97.140	0.380	-0.450	0.240
2020/01/31 22:24:42.5	97.160	0.410	-0.430	0.210
2020/01/31 22:24:42.6	97.170	0.440	-0.410	0.170
2020/01/31 22:24:42.7	97.180	0.460	-0.400	0.140
2020/01/31 22:24:42.8	97.190	0.480	-0.380	0.110
2020/01/31 22:24:42.9	97.200	0.500	-0.360	0.080
2020/01/31 22:24:43.0	97.220	0.520	-0.340	0.050
2020/01/31 22:24:43.1	97.230	0.540	-0.330	0.030
2020/01/31 22:24:43.2	97.240	0.550	-0.310	-0.000
2020/01/31 22:24:43.3	97.250	0.560	-0.290	-0.030
2020/01/31 22:24:43.4	97.250	0.570	-0.280	-0.050
2020/01/31 22:24:43.5	97.260	0.580	-0.260	-0.070
2020/01/31 22:24:43.6	97.270	0.590	-0.250	-0.090
2020/01/31 22:24:43.7	97.280	0.600	-0.230	-0.110
2020/01/31 22:24:43.8	97.290	0.600	-0.220	-0.130
2020/01/31 22:24:43.9	97.290	0.600	-0.200	-0.150
2020/01/31 22:24:44.0	97.300	0.600	-0.190	-0.170
2020/01/31 22:24:44.1	97.310	0.600	-0.180	-0.180
2020/01/31 22:24:44.2	97.320	0.590	-0.170	-0.200
2020/01/31 22:24:44.3	97.330	0.590	-0.150	-0.210
2020/01/31 22:24:44.4	97.330	0.580	-0.140	-0.220
2020/01/31 22:24:44.5	97.340	0.570	-0.140	-0.230
2020/01/31 22:24:44.6	97.350	0.560	-0.130	-0.240
2020/01/31 22:24:44.7	97.350	0.540	-0.120	-0.250
2020/01/31 22:24:44.8	97.360	0.530	-0.120	-0.260
2020/01/31 22:24:44.9	97.360	0.510	-0.110	-0.260
2020/01/31 22:24:45.0	97.360	0.490	-0.110	-0.270
2020/01/31 22:24:45.1	97.370	0.470	-0.110	-0.270
2020/01/31 22:24:45.2	97.370	0.440	-0.100	-0.270
2020/01/31 22:24:45.3	97.370	0.420	-0.100	-0.270
2020/01/31 22:24:45.4	97.380	0.390	-0.110	-0.260
2020/01/31 22:24:45.5	97.380	0.370	-0.110	-0.260
2020/01/31 22:24:45.6	97.380	0.340	-0.110	-0.250
2020/01/31 22:24:45.7	97.380	0.310	-0.110	-0.240
2020/01/31 22:24:45.8	97.380	0.280	-0.120	-0.240
2020/01/31 22:24:45.9	97.380	0.240	-0.120	-0.230
2020/01/31 22:24:46.0	97.380	0.210	-0.130	-0.220
2020/01/31 22:24:46.1	97.380	0.180	-0.130	-0.200
2020/01/31 22:24:46.2	97.380	0.140	-0.140	-0.190
2020/01/31 22:24:46.3	97.380	0.110	-0.140	-0.180
2020/01/31 22:24:46.4	97.380	0.070	-0.150	-0.160
2020/01/31 22:24:46.5	97.380	0.040	-0.150	-0.150
2020/01/31 22:24:46.6	97.380	0.010	-0.150	-0.130
2020/01/31 22:24:46.7	97.380	-0.030	-0.150	-0.110
2020/01/31 22:24:46.8	97.380	-0.060	-0.150	-0.100
2020/01/31 22:24:46.9	97.380	-0.090	-0.150	-0.080
2020/01/31 22:24:47.0	97.390	-0.130	-0.150	-0.050
2020/01/31 22:24:47.1	97.390	-0.160	-0.150	-0.030
2020/01/31 22:24:47.2	97.390	-0.190	-0.140	-0.010
2020/01/31 22:24:47.3	97.400	-0.220	-0.140	0.020
2020/01/31 22:24:47.4	97.400	-0.240	-0.130	0.050
2020/01/31 22:24:47.5	97.400	-0.270	-0.130	0.070
2020/01/31 22:24:47.6	97.410	-0.290	-0.120	0.100
2020/01/31 22:24:47.7	97.420	-0.310	-0.110	0.130
2020/01/31 22:24:47.8	97.420	-0.330	-0.100	0.160
2020/01/31 22:24:47.9	97.430	-0.350	-0.090	0.200
2020/01/31 22:24:48.0	97.440	-0.370	-0.090	0.230
2020/01/31 22:24:48.1	97.450	-0.380	-0.080	0.260
2020/01/31 22:24:48.2	97.460	-0.390	-0.070	0.290
2020/01/31 22:24:48.3	97.470	-0.400	-0.060	0.330
2020/01/31 22:24:48.4	97.480	-0.400	-0.050	0.360
2020/01/31 22:24:48.5	97.490	-0.410	-0.050	0.390
2020/01/31 22:24:48.6	97.500	-0.410	-0.040	0.420
2020/01/31 22:24:48.7	97.520	-0.410	-0.040	0.460
2020/01/31 22:24:48.8	97.530	-0.400	-0.040	0.490
2020/01/31 22:24:48.9	97.550	-0.390	-0.030	0.520
2020/01/31 22:24:49.0	97.570	-0.380	-0.030	0.550
2020/01/31 22:24:49.1	97.580	-0.370	-0.030	0.580
2020/01/31 22:24:49.2	97.600	-0.360	-0.030	0.610
2020/01/31 22:24:49.3	97.620	-0.340	-0.030	0.640
2020/01/31 22:24:49.4	97.640	-0.320	-0.040	0.670
2020/01/31 22:24:49.5	97.660	-0.300	-0.040	0.690
2020/01/31 22:24:49.6	97.680	-0.280	-0.050	0.710
2020/01/31 22:24:49.7	97.700	-0.250	-0.060	0.740
2020/01/31 22:24:49.8	97.720	-0.220	-0.070	0.760
2020/01/31 22:24:49.9	97.740	-0.200	-0.080	0.780
2020/01/31 22:24:50.0	97.760	-0.170	-0.100	0.800
2020/01/31 22:24:50.1	97.780	-0.140	-0.120	0.820
2020/01/31 22:24:50.2	97.800	-0.110	-0.140	0.830
2020/01/31 22:24:50.3	97.820	-0.080	-0.150	0.850
2020/01/31 22:24:50.4	97.840	-0.050	-0.170	0.860
2020/01/31 22:24:50.5	97.860	-0.010	-0.190	0.870
2020/01/31 22:24:50.6	97.880	0.020	-0.220	0.880
2020/01/31 22:24:50.7	97.900	0.050	-0.240	0.890
2020/01/31 22:24:50.8	97.920	0.080	-0.260	0.890
2020/01/31 22:24:50.9	97.940	0.110	-0.290	0.890
2020/01/31 22:24:51.0	97.960	0.140	-0.300	0.900
2020/01/31 22:24:51.1	97.970	0.170	-0.330	0.900
2020/01/31 22:24:51.2	97.990	0.200	-0.360	0.900
2020/01/31 22:24:51.3	98.010	0.220	-0.380	0.890
2020/01/31 22:24:51.4	98.030	0.250	-0.410	0.890
2020/01/31 22:24:51.5	98.040	0.270	-0.430	0.880
2020/01/31 22:24:51.6	98.060	0.300	-0.450	0.870
2020/01/31 22:24:51.7	98.080	0.320	-0.480	0.860
2020/01/31 22:24:51.8	98.090	0.340	-0.500	0.850
2020/01/31 22:24:51.9	98.110	0.360	-0.520	0.830
2020/01/31 22:24:52.0	98.120	0.370	-0.540	0.810
2020/01/31 22:24:52.1	98.140	0.390	-0.560	0.790
2020/01/31 22:24:52.2	98.150	0.400	-0.580	0.770
2020/01/31 22:24:52.3	98.170	0.410	-0.590	0.750
2020/01/31 22:24:52.4	98.190	0.420	-0.600	0.730
2020/01/31 22:24:52.5	98.210	0.420	-0.610	0.710
2020/01/31 22:24:52.6	98.230	0.430	-0.620	0.690
2020/01/31 22:24:52.7	98.240	0.430	-0.620	0.660
2020/01/31 22:24:52.8	98.260	0.430	-0.620	0.640
2020/01/31 22:24:52.9	98.280	0.420	-0.610	0.610
2020/01/31 22:24:53.0	98.300	0.410	-0.600	0.590
2020/01/31 22:24:53.1	98.320	0.400	-0.590	0.570
2020/01/31 22:24:53.2	98.340	0.390	-0.570	0.540
2020/01/31 22:24:53.3	98.350	0.380	-0.550	0.520
2020/01/31 22:24:53.4	98.370	0.360	-0.520	0.500
2020/01/31 22:24:53.5	98.380	0.340	-0.480	0.480
2020/01/31 22:24:53.6	98.400	0.310	-0.450	0.460
2020/01/31 22:24:53.7	98.410	0.290	-0.400	0.440
2020/01/31 22:24:53.8	98.430	0.260	-0.350	0.420
2020/01/31 22:24:53.9	98.440	0.230	-0.300	0.410
2020/01/31 22:24:54.0	98.450	0.190	-0.240	0.390
2020/01/31 22:24:54.1	98.460	0.160	-0.180	0.380
2020/01/31 22:24:54.2	98.470	0.120	-0.120	0.370
2020/01/31 22:24:54.3	98.480	0.080	-0.050	0.360
2020/01/31 22:24:54.4	98.490	0.040	0.020	0.350
2020/01/31 22:24:54.5	98.490	-0.010	0.090	0.340
2020/01/31 22:24:54.6	98.500	-0.050	0.170	0.340
2020/01/31 22:24:54.7	98.500	-0.100	0.240	0.340
2020/01/31 22:24:54.8	98.510	-0.150	0.320	0.340
2020/01/31 22:24:54.9	98.510	-0.200	0.390	0.340
2020/01/31 22:24:55.0	98.510	-0.240	0.470	0.340
2020/01/31 22:24:55.1	98.520	-0.290	0.540	0.350
2020/01/31 22:24:55.2	98.520	-0.340	0.610	0.350
2020/01/31 22:24:55.3	98.530	-0.380	0.670	0.350
2020/01/31 22:24:55.4	98.530	-0.430	0.740	0.360
2020/01/31 22:24:55.5	98.540	-0.470	0.790	0.360
2020/01/31 22:24:55.6	98.550	-0.520	0.850	0.360
2020/01/31 22:24:55.7	98.560	-0.560	0.890	0.360
2020/01/31 22:24:55.8	98.570	-0.590	0.930	0.360
2020/01/31 22:24:55.9	98.580	-0.630	0.960	0.360
2020/01/31 22:24:56.0	98.600	-0.660	0.990	0.360
2020/01/31 22:24:56.1	98.620	-0.690	1.000	0.350
2020/01/31 22:24:56.2	98.630	-0.720	1.010	0.350
2020/01/31 22:24:56.3	98.650	-0.740	1.010	0.340
2020/01/31 22:24:56.4	98.670	-0.760	1.000	0.330
2020/01/31 22:24:56.5	98.700	-0.770	0.980	0.320
2020/01/31 22:24:56.6	98.720	-0.780	0.950	0.300
2020/01/31 22:24:56.7	98.750	-0.780	0.910	0.280
2020/01/31 22:24:56.8	98.770	-0.780	0.860	0.260
2020/01/31 22:24:56.9	98.800	-0.780	0.800	0.240
2020/01/31 22:24:57.0	98.840	-0.770	0.740	0.220
2020/01/31 22:24:57.1	98.870	-0.760	0.660	0.190
2020/01/31 22:24:57.2	98.900	-0.740	0.580	0.170
2020/01/31 22:24:57.3	98.930	-0.720	0.490	0.140
2020/01/31 22:24:57.4	98.970	-0.690	0.390	0.110
2020/01/31 22:24:57.5	99.000	-0.660	0.280	0.080
2020/01/31 22:24:57.6	99.030	-0.630	0.170	0.040
2020/01/31 22:24:57.7	99.070	-0.590	0.060	0.010
2020/01/31 22:24:57.8	99.100	-0.550	-0.060	-0.020
2020/01/31 22:24:57.9	99.130	-0.500	-0.180	-0.050
2020/01/31 22:24:58.0	99.170	-0.450	-0.310	-0.090
2020/01/31 22:24:58.1	99.200	-0.400	-0.440	-0.120
2020/01/31 22:24:58.2	99.230	-0.340	-0.560	-0.140
2020/01/31 22:24:58.3	99.260	-0.280	-0.690	-0.170
2020/01/31 22:24:58.4	99.290	-0.220	-0.810	-0.200
2020/01/31 22:24:58.5	99.320	-0.160	-0.930	-0.220
2020/01/31 22:24:58.6	99.340	-0.100	-1.050	-0.240
2020/01/31 22:24:58.7	99.370	-0.040	-1.160	-0.260
2020/01/31 22:24:58.8	99.400	0.030	-1.270	-0.270
2020/01/31 22:24:58.9	99.420	0.090	-1.360	-0.290
2020/01/31 22:24:59.0	99.460	0.160	-1.460	-0.290
2020/01/31 22:24:59.1	99.480	0.220	-1.540	-0.300
2020/01/31 22:24:59.2	99.500	0.280	-1.610	-0.310
2020/01/31 22:24:59.3	99.520	0.340	-1.670	-0.310
2020/01/31 22:24:59.4	99.540	0.400	-1.730	-0.300
2020/01/31 22:24:59.5	99.560	0.460	-1.770	-0.300
2020/01/31 22:24:59.6	99.580	0.510	-1.800	-0.290
2020/01/31 22:24:59.7	99.600	0.560	-1.820	-0.280
2020/01/31 22:24:59.8	99.620	0.610	-1.820	-0.260
2020/01/31 22:24:59.9	99.630	0.650	-1.820	-0.240
2020/01/31 22:25:00.0	99.640	0.690	-1.800	-0.220
2020/01/31 22:25:00.1	99.660	0.720	-1.770	-0.200
2020/01/31 22:25:00.2	99.670	0.750	-1.730	-0.170
2020/01/31 22:25:00.3	99.680	0.780	-1.680	-0.150
2020/01/31 22:25:00.4	99.690	0.790	-1.620	-0.120
2020/01/31 22:25:00.5	99.700	0.810	-1.550	-0.080
2020/01/31 22:25:00.6	99.700	0.820	-1.460	-0.050
2020/01/31 22:25:00.7	99.710	0.820	-1.370	-0.020
2020/01/31 22:25:00.8	99.720	0.820	-1.270	0.020
2020/01/31 22:25:00.9	99.720	0.820	-1.160	0.050
2020/01/31 22:25:01.0	99.720	0.800	-1.040	0.090
2020/01/31 22:25:01.1	99.730	0.790	-0.920	0.120
2020/01/31 22:25:01.2	99.730	0.770	-0.800	0.160
2020/01/31 22:25:01.3	99.740	0.740	-0.670	0.190
2020/01/31 22:25:01.4	99.750	0.720	-0.530	0.220
2020/01/31 22:25:01.5	99.750	0.680	-0.400	0.250
2020/01/31 22:25:01.6	99.760	0.650	-0.260	0.290
2020/01/31 22:25:01.7	99.760	0.600	-0.120	0.320
2020/01/31 22:25:01.8	99.770	0.560	0.010	0.350
2020/01/31 22:25:01.9	99.780	0.510	0.150	0.370
2020/01/31 22:25:02.0	99.780	0.470	0.280	0.400
2020/01/31 22:25:02.1	99.790	0.410	0.410	0.430
2020/01/31 22:25:02.2	99.800	0.360	0.540	0.450
2020/01/31 22:25:02.3	99.810	0.310	0.660	0.470
2020/01/31 22:25:02.4	99.820	0.250	0.770	0.490
2020/01/31 22:25:02.5	99.830	0.190	0.880	0.510
2020/01/31 22:25:02.6	99.850	0.140	0.970	0.530
2020/01/31 22:25:02.7	99.860	0.080	1.070	0.550
2020/01/31 22:25:02.8	99.870	0.020	1.150	0.560
2020/01/31 22:25:02.9	99.890	-0.030	1.220	0.570
2020/01/31 22:25:03.0	99.900	-0.090	1.290	0.580
2020/01/31 22:25:03.1	99.920	-0.140	1.340	0.590
2020/01/31 22:25:03.2	99.930	-0.200	1.380	0.600
2020/01/31 22:25:03.3	99.950	-0.240	1.410	0.610
2020/01/31 22:25:03.4	99.970	-0.290	1.430	0.610
2020/01/31 22:25:03.5	99.990	-0.340	1.440	0.620
2020/01/31 22:25:03.6	100.020	-0.380	1.440	0.620
2020/01/31 22:25:03.7	100.040	-0.420	1.420	0.610
2020/01/31 22:25:03.8	100.060	-0.450	1.400	0.610
2020/01/31 22:25:03.9	100.090	-0.480	1.360	0.600
2020/01/31 22:25:04.0	100.100	-0.510	1.320	0.600
2020/01/31 22:25:04.1	100.130	-0.530	1.260	0.590
2020/01/31 22:25:04.2	100.160	-0.550	1.190	0.580
2020/01/31 22:25:04.3	100.190	-0.570	1.120	0.560
2020/01/31 22:25:04.4	100.220	-0.580	1.030	0.550
2020/01/31 22:25:04.5	100.250	-0.590	0.940	0.530
2020/01/31 22:25:04.6	100.280	-0.590	0.840	0.520
2020/01/31 22:25:04.7	100.310	-0.590	0.730	0.500
2020/01/31 22:25:04.8	100.350	-0.580	0.620	0.480
2020/01/31 22:25:04.9	100.380	-0.570	0.500	0.460
2020/01/31 22:25:05.0	100.410	-0.550	0.380	0.440
2020/01/31 22:25:05.1	100.440	-0.540	0.250	0.420
2020/01/31 22:25:05.2	100.470	-0.520	0.130	0.400
2020/01/31 22:25:05.3	100.510	-0.490	-0.000	0.380
2020/01/31 22:25:05.4	100.540	-0.460	-0.130	0.360
2020/01/31 22:25:05.5	100.580	-0.430	-0.260	0.340
2020/01/31 22:25:05.6	100.610	-0.400	-0.390	0.320
2020/01/31 22:25:05.7	100.650	-0.360	-0.510	0.300
2020/01/31 22:25:05.8	100.680	-0.320	-0.630	0.280
2020/01/31 22:25:05.9	100.710	-0.290	-0.740	0.260
2020/01/31 22:25:06.0	100.740	-0.250	-0.850	0.240
2020/01/31 22:25:06.1	100.770	-0.200	-0.950	0.230
2020/01/31 22:25:06.2	100.800	-0.160	-1.050	0.220
2020/01/31 22:25:06.3	100.830	-0.120	-1.130	0.210
2020/01/31 22:25:06.4	100.860	-0.080	-1.200	0.200
2020/01/31 22:25:06.5	100.890	-0.040	-1.270	0.190
2020/01/31 22:25:06.6	100.910	-0.000	-1.320	0.190
2020/01/31 22:25:06.7	100.940	0.040	-1.370	0.190
2020/01/31 22:25:06.8	100.960	0.070	-1.400	0.190
2020/01/31 22:25:06.9	100.980	0.110	-1.420	0.190
2020/01/31 22:25:07.0	101.010	0.140	-1.430	0.200
2020/01/31 22:25:07.1	101.030	0.170	-1.430	0.210
2020/01/31 22:25:07.2	101.050	0.190	-1.420	0.220
2020/01/31 22:25:07.3	101.060	0.210	-1.400	0.230
2020/01/31 22:25:07.4	101.080	0.230	-1.360	0.240
2020/01/31 22:25:07.5	101.100	0.250	-1.320	0.250
2020/01/31 22:25:07.6	101.110	0.260	-1.270	0.270
2020/01/31 22:25:07.7	101.120	0.270	-1.210	0.280
2020/01/31 22:25:07.8	101.130	0.280	-1.150	0.300
2020/01/31 22:25:07.9	101.140	0.280	-1.080	0.320
2020/01/31 22:25:08.0	101.140	0.280	-1.000	0.340
2020/01/31 22:25:08.1	101.160	0.280	-0.920	0.360
2020/01/31 22:25:08.2	101.160	0.280	-0.840	0.370
2020/01/31 22:25:08.3	101.170	0.270	-0.750	0.390
2020/01/31 22:25:08.4	101.180	0.270	-0.660	0.410
2020/01/31 22:25:08.5	101.190	0.260	-0.570	0.430
2020/01/31 22:25:08.6	101.210	0.240	-0.490	0.450
2020/01/31 22:25:08.7	101.220	0.230	-0.400	0.460
2020/01/31 22:25:08.8	101.230	0.220	-0.320	0.480
2020/01/31 22:25:08.9	101.240	0.210	-0.230	0.490
2020/01/31 22:25:09.0	101.260	0.190	-0.160	0.500
2020/01/31 22:25:09.1	101.280	0.180	-0.090	0.520
2020/01/31 22:25:09.2	101.290	0.160	-0.020	0.520
2020/01/31 22:25:09.3	101.310	0.150	0.040	0.530
2020/01/31 22:25:09.4	101.330	0.140	0.100	0.540
2020/01/31 22:25:09.5	101.360	0.130	0.150	0.540
2020/01/31 22:25:09.6	101.380	0.120	0.190	0.540
2020/01/31 22:25:09.7	101.410	0.110	0.230	0.540
2020/01/31 22:25:09.8	101.440	0.100	0.260	0.530
2020/01/31 22:25:09.9	101.470	0.100	0.280	0.530
2020/01/31 22:25:10.0	101.500	0.090	0.300	0.520
2020/01/31 22:25:10.1	101.540	0.090	0.310	0.510
2020/01/31 22:25:10.2	101.570	0.090	0.320	0.490
2020/01/31 22:25:10.3	101.610	0.090	0.320	0.480
2020/01/31 22:25:10.4	101.650	0.090	0.320	0.460
2020/01/31 22:25:10.5	101.690	0.090	0.320	0.440
2020/01/31 22:25:10.6	101.730	0.090	0.310	0.420
2020/01/31 22:25:10.7	101.770	0.090	0.290	0.400
2020/01/31 22:25:10.8	101.810	0.090	0.280	0.380
2020/01/31 22:25:10.9	101.860	0.100	0.260	0.360
2020/01/31 22:25:11.0	101.900	0.100	0.240	0.330
2020/01/31 22:25:11.1	101.940	0.100	0.220	0.310
2020/01/31 22:25:11.2	101.990	0.100	0.200	0.280
2020/01/31 22:25:11.3	102.030	0.100	0.180	0.250
2020/01/31 22:25:11.4	102.070	0.100	0.160	0.230
2020/01/31 22:25:11.5	102.120	0.100	0.150	0.200
2020/01/31 22:25:11.6	102.160	0.100	0.130	0.180
2020/01/31 22:25:11.7	102.200	0.100	0.120	0.160
2020/01/31 22:25:11.8	102.240	0.090	0.110	0.130
2020/01/31 22:25:11.9	102.270	0.090	0.100	0.110
2020/01/31 22:25:12.0	102.320	0.080	0.100	0.090
2020/01/31 22:25:12.1	102.350	0.070	0.090	0.080
2020/01/31 22:25:12.2	102.390	0.060	0.090	0.060
2020/01/31 22:25:12.3	102.420	0.040	0.090	0.050
2020/01/31 22:25:12.4	102.450	0.030	0.100	0.040
2020/01/31 22:25:12.5	102.470	0.010	0.100	0.030
2020/01/31 22:25:12.6	102.500	-0.010	0.110	0.030
2020/01/31 22:25:12.7	102.520	-0.030	0.120	0.020
2020/01/31 22:25:12.8	102.540	-0.050	0.130	0.020
2020/01/31 22:25:12.9	102.560	-0.070	0.140	0.030
2020/01/31 22:25:13.0	102.580	-0.090	0.150	0.030
2020/01/31 22:25:13.1	102.590	-0.110	0.160	0.040
2020/01/31 22:25:13.2	102.610	-0.140	0.170	0.050
2020/01/31 22:25:13.3	102.620	-0.160	0.180	0.060
2020/01/31 22:25:13.4	102.630	-0.190	0.190	0.080
2020/01/31 22:25:13.5	102.640	-0.210	0.190	0.090
2020/01/31 22:25:13.6	102.650	-0.240	0.200	0.110
2020/01/31 22:25:13.7	102.660	-0.260	0.200	0.130
2020/01/31 22:25:13.8	102.670	-0.280	0.200	0.150
2020/01/31 22:25:13.9	102.680	-0.300	0.200	0.170
2020/01/31 22:25:14.0	102.690	-0.320	0.190	0.200
2020/01/31 22:25:14.1	102.700	-0.340	0.180	0.220
2020/01/31 22:25:14.2	102.700	-0.360	0.170	0.240
2020/01/31 22:25:14.3	102.710	-0.370	0.160	0.260
2020/01/31 22:25:14.4	102.720	-0.380	0.140	0.280
2020/01/31 22:25:14.5	102.740	-0.390	0.110	0.300
2020/01/31 22:25:14.6	102.750	-0.390	0.090	0.320
2020/01/31 22:25:14.7	102.770	-0.390	0.060	0.330
2020/01/31 22:25:14.8	102.780	-0.390	0.020	0.350
2020/01/31 22:25:14.9	102.800	-0.390	-0.020	0.360
2020/01/31 22:25:15.0	102.820	-0.380	-0.060	0.370
2020/01/31 22:25:15.1	102.840	-0.370	-0.100	0.380
2020/01/31 22:25:15.2	102.860	-0.360	-0.150	0.390
2020/01/31 22:25:15.3	102.880	-0.340	-0.200	0.400
2020/01/31 22:25:15.4	102.910	-0.320	-0.250	0.410
2020/01/31 22:25:15.5	102.930	-0.300	-0.310	0.410
2020/01/31 22:25:15.6	102.960	-0.270	-0.360	0.420
2020/01/31 22:25:15.7	102.980	-0.240	-0.420	0.420
2020/01/31 22:25:15.8	103.010	-0.210	-0.480	0.430
2020/01/31 22:25:15.9	103.040	-0.180	-0.540	0.430
2020/01/31 22:25:16.0	103.070	-0.150	-0.590	0.430
2020/01/31 22:25:16.1	103.100	-0.110	-0.650	0.430
2020/01/31 22:25:16.2	103.140	-0.080	-0.710	0.430
2020/01/31 22:25:16.3	103.170	-0.040	-0.760	0.420
2020/01/31 22:25:16.4	103.210	-0.000	-0.810	0.420
2020/01/31 22:25:16.5	103.250	0.030	-0.860	0.420
2020/01/31 22:25:16.6	103.290	0.070	-0.910	0.410
2020/01/31 22:25:16.7	103.330	0.110	-0.950	0.400
2020/01/31 22:25:16.8	103.380	0.140	-0.990	0.400
2020/01/31 22:25:16.9	103.420	0.180	-1.020	0.390
2020/01/31 22:25:17.0	103.480	0.210	-1.050	0.380
2020/01/31 22:25:17.1	103.520	0.240	-1.080	0.370
2020/01/31 22:25:17.2	103.570	0.270	-1.090	0.370
2020/01/31 22:25:17.3	103.620	0.300	-1.100	0.360
2020/01/31 22:25:17.4	103.660	0.330	-1.110	0.350
2020/01/31 22:25:17.5	103.710	0.350	-1.110	0.340
2020/01/31 22:25:17.6	103.760	0.370	-1.100	0.340
2020/01/31 22:25:17.7	103.800	0.390	-1.080	0.330
2020/01/31 22:25:17.8	103.850	0.410	-1.060	0.320
2020/01/31 22:25:17.9	103.890	0.420	-1.030	0.320
2020/01/31 22:25:18.0	103.940	0.430	-1.000	0.310
2020/01/31 22:25:18.1	103.980	0.430	-0.950	0.310
2020/01/31 22:25:18.2	104.020	0.430	-0.910	0.310
2020/01/31 22:25:18.3	104.060	0.430	-0.850	0.300
2020/01/31 22:25:18.4	104.100	0.430	-0.790	0.300
2020/01/31 22:25:18.5	104.140	0.430	-0.730	0.300
2020/01/31 22:25:18.6	104.170	0.420	-0.660	0.300
2020/01/31 22:25:18.7	104.210	0.400	-0.580	0.300
2020/01/31 22:25:18.8	104.240	0.390	-0.500	0.300
2020/01/31 22:25:18.9	104.270	0.370	-0.420	0.300
2020/01/31 22:25:19.0	104.300	0.350	-0.340	0.310
2020/01/31 22:25:19.1	104.330	0.330	-0.250	0.310
2020/01/31 22:25:19.2	104.360	0.310	-0.160	0.310
2020/01/31 22:25:19.3	104.390	0.290	-0.070	0.310
2020/01/31 22:25:19.4	104.420	0.260	0.020	0.320
2020/01/31 22:25:19.5	104.440	0.230	0.110	0.320
2020/01/31 22:25:19.6	104.470	0.200	0.200	0.320
2020/01/31 22:25:19.7	104.500	0.180	0.290	0.320
2020/01/31 22:25:19.8	104.520	0.150	0.370	0.320
2020/01/31 22:25:19.9	104.550	0.120	0.460	0.320
2020/01/31 22:25:20.0	104.580	0.090	0.540	0.320
2020/01/31 22:25:20.1	104.610	0.060	0.610	0.320
2020/01/31 22:25:20.2	104.630	0.030	0.680	0.320
2020/01/31 22:25:20.3	104.660	-0.000	0.740	0.320
2020/01/31 22:25:20.4	104.690	-0.030	0.800	0.320
2020/01/31 22:25:20.5	104.710	-0.060	0.850	0.310
2020/01/31 22:25:20.6	104.740	-0.080	0.900	0.310
2020/01/31 22:25:20.7	104.770	-0.110	0.940	0.300
2020/01/31 22:25:20.8	104.790	-0.130	0.970	0.300
2020/01/31 22:25:20.9	104.820	-0.150	0.990	0.300
2020/01/31 22:25:21.0	104.850	-0.170	1.000	0.290
2020/01/31 22:25:21.1	104.880	-0.190	1.010	0.290
2020/01/31 22:25:21.2	104.910	-0.200	1.010	0.290
2020/01/31 22:25:21.3	104.940	-0.220	1.000	0.290
2020/01/31 22:25:21.4	104.960	-0.230	0.980	0.280
2020/01/31 22:25:21.5	104.990	-0.240	0.950	0.280
2020/01/31 22:25:21.6	105.020	-0.250	0.910	0.280
2020/01/31 22:25:21.7	105.050	-0.250	0.870	0.280
2020/01/31 22:25:21.8	105.070	-0.250	0.820	0.280
2020/01/31 22:25:21.9	105.100	-0.250	0.760	0.280
2020/01/31 22:25:22.0	105.140	-0.250	0.690	0.280
2020/01/31 22:25:22.1	105.170	-0.250	0.610	0.290
2020/01/31 22:25:22.2	105.200	-0.240	0.540	0.290
2020/01/31 22:25:22.3	105.230	-0.230	0.450	0.290
2020/01/31 22:25:22.4	105.260	-0.220	0.360	0.290
2020/01/31 22:25:22.5	105.290	-0.210	0.270	0.290
2020/01/31 22:25:22.6	105.320	-0.200	0.180	0.300
2020/01/31 22:25:22.7	105.350	-0.180	0.080	0.300
2020/01/31 22:25:22.8	105.380	-0.170	-0.020	0.300
2020/01/31 22:25:22.9	105.410	-0.150	-0.120	0.300
2020/01/31 22:25:23.0	105.450	-0.140	-0.220	0.300
2020/01/31 22:25:23.1	105.480	-0.120	-0.320	0.300
2020/01/31 22:25:23.2	105.520	-0.110	-0.420	0.290
2020/01/31 22:25:23.3	105.550	-0.090	-0.510	0.290
2020/01/31 22:25:23.4	105.590	-0.070	-0.610	0.290
2020/01/31 22:25:23.5	105.630	-0.060	-0.690	0.290
2020/01/31 22:25:23.6	105.670	-0.040	-0.780	0.280
2020/01/31 22:25:23.7	105.710	-0.020	-0.850	0.280
2020/01/31 22:25:23.8	105.750	-0.010	-0.930	0.280
2020/01/31 22:25:23.9	105.800	0.000	-0.990	0.280
2020/01/31 22:25:24.0	105.840	0.020	-1.050	0.280
2020/01/31 22:25:24.1	105.890	0.030	-1.100	0.270
2020/01/31 22:25:24.2	105.930	0.040	-1.140	0.270
2020/01/31 22:25:24.3	105.970	0.040	-1.180	0.270
2020/01/31 22:25:24.4	106.020	0.050	-1.200	0.270
2020/01/31 22:25:24.5	106.060	0.060	-1.220	0.280
2020/01/31 22:25:24.6	106.100	0.060	-1.220	0.280
2020/01/31 22:25:24.7	106.150	0.060	-1.220	0.280
2020/01/31 22:25:24.8	106.190	0.060	-1.210	0.290
2020/01/31 22:25:24.9	106.240	0.060	-1.190	0.300
2020/01/31 22:25:25.0	106.280	0.060	-1.170	0.310
2020/01/31 22:25:25.1	106.320	0.060	-1.130	0.310
2020/01/31 22:25:25.2	106.370	0.050	-1.090	0.320
2020/01/31 22:25:25.3	106.410	0.050	-1.040	0.330
2020/01/31 22:25:25.4	106.450	0.040	-0.980	0.340
2020/01/31 22:25:25.5	106.500	0.030	-0.920	0.360
2020/01/31 22:25:25.6	106.540	0.020	-0.850	0.370
2020/01/31 22:25:25.7	106.580	0.010	-0.770	0.380
2020/01/31 22:25:25.8	106.630	-0.000	-0.690	0.390
2020/01/31 22:25:25.9	106.670	-0.020	-0.610	0.400
2020/01/31 22:25:26.0	106.710	-0.030	-0.520	0.410
2020/01/31 22:25:26.1	106.760	-0.040	-0.440	0.420
2020/01/31 22:25:26.2	106.800	-0.060	-0.350	0.430
2020/01/31 22:25:26.3	106.840	-0.070	-0.260	0.440
2020/01/31 22:25:26.4	106.880	-0.080	-0.170	0.450
2020/01/31 22:25:26.5	106.920	-0.090	-0.090	0.450
2020/01/31 22:25:26.6	106.960	-0.100	-0.000	0.450
2020/01/31 22:25:26.7	107.000	-0.110	0.080	0.450
2020/01/31 22:25:26.8	107.030	-0.120	0.160	0.450
2020/01/31 22:25:26.9	107.070	-0.120	0.230	0.450
2020/01/31 22:25:27.0	107.110	-0.130	0.300	0.440
2020/01/31 22:25:27.1	107.150	-0.130	0.360	0.430
2020/01/31 22:25:27.2	107.180	-0.130	0.420	0.420
2020/01/31 22:25:27.3	107.220	-0.130	0.470	0.410
2020/01/31 22:25:27.4	107.260	-0.130	0.510	0.400
2020/01/31 22:25:27.5	107.300	-0.120	0.550	0.380
2020/01/31 22:25:27.6	107.340	-0.110	0.580	0.360
2020/01/31 22:25:27.7	107.380	-0.100	0.600	0.340
2020/01/31 22:25:27.8	107.430	-0.090	0.610	0.320
2020/01/31 22:25:27.9	107.470	-0.080	0.620	0.290
2020/01/31 22:25:28.0	107.500	-0.060	0.620	0.270
2020/01/31 22:25:28.1	107.540	-0.040	0.610	0.240
2020/01/31 22:25:28.2	107.590	-0.020	0.600	0.210
2020/01/31 22:25:28.3	107.630	-0.000	0.580	0.190
2020/01/31 22:25:28.4	107.680	0.020	0.560	0.160
2020/01/31 22:25:28.5	107.720	0.040	0.530	0.130
2020/01/31 22:25:28.6	107.760	0.060	0.490	0.110
2020/01/31 22:25:28.7	107.810	0.090	0.450	0.080
2020/01/31 22:25:28.8	107.850	0.110	0.410	0.060
2020/01/31 22:25:28.9	107.890	0.130	0.360	0.040
2020/01/31 22:25:29.0	107.940	0.160	0.310	0.010
2020/01/31 22:25:29.1	107.980	0.180	0.260	-0.010
2020/01/31 22:25:29.2	108.020	0.200	0.210	-0.020
2020/01/31 22:25:29.3	108.060	0.230	0.150	-0.040
2020/01/31 22:25:29.4	108.100	0.250	0.100	-0.050
2020/01/31 22:25:29.5	108.140	0.260	0.040	-0.060
2020/01/31 22:25:29.6	108.180	0.280	-0.010	-0.060
2020/01/31 22:25:29.7	108.210	0.300	-0.060	-0.060
2020/01/31 22:25:29.8	108.250	0.310	-0.110	-0.060
2020/01/31 22:25:29.9	108.280	0.320	-0.160	-0.060
2020/01/31 22:25:30.0	108.330	0.340	-0.210	-0.050
2020/01/31 22:25:30.1	108.360	0.340	-0.260	-0.050
2020/01/31 22:25:30.2	108.390	0.350	-0.300	-0.040
2020/01/31 22:25:30.3	108.420	0.350	-0.350	-0.030
2020/01/31 22:25:30.4	108.460	0.350	-0.390	-0.020
2020/01/31 22:25:30.5	108.490	0.350	-0.430	-0.010
2020/01/31 22:25:30.6	108.520	0.350	-0.460	0.000
2020/01/31 22:25:30.7	108.550	0.340	-0.500	0.020
2020/01/31 22:25:30.8	108.580	0.340	-0.530	0.030
2020/01/31 22:25:30.9	108.610	0.330	-0.560	0.040
2020/01/31 22:25:31.0	108.640	0.320	-0.590	0.050
2020/01/31 22:25:31.1	108.670	0.300	-0.610	0.070
2020/01/31 22:25:31.2	108.700	0.290	-0.640	0.080
2020/01/31 22:25:31.3	108.740	0.270	-0.660	0.090
2020/01/31 22:25:31.4	108.770	0.260	-0.680	0.110
2020/01/31 22:25:31.5	108.800	0.240	-0.700	0.120
2020/01/31 22:25:31.6	108.830	0.220	-0.720	0.130
2020/01/31 22:25:31.7	108.860	0.200	-0.730	0.140
2020/01/31 22:25:31.8	108.900	0.180	-0.740	0.150
2020/01/31 22:25:31.9	108.930	0.160	-0.750	0.160
2020/01/31 22:25:32.0	108.980	0.140	-0.760	0.180
2020/01/31 22:25:32.1	109.010	0.120	-0.770	0.190
2020/01/31 22:25:32.2	109.050	0.100	-0.770	0.200
2020/01/31 22:25:32.3	109.090	0.080	-0.770	0.210
2020/01/31 22:25:32.4	109.130	0.050	-0.770	0.230
2020/01/31 22:25:32.5	109.170	0.030	-0.760	0.240
2020/01/31 22:25:32.6	109.210	0.010	-0.750	0.260
2020/01/31 22:25:32.7	109.250	-0.010	-0.740	0.280
2020/01/31 22:25:32.8	109.290	-0.030	-0.720	0.300
2020/01/31 22:25:32.9	109.340	-0.050	-0.700	0.320
2020/01/31 22:25:33.0	109.380	-0.080	-0.680	0.340
2020/01/31 22:25:33.1	109.420	-0.100	-0.650	0.360
2020/01/31 22:25:33.2	109.470	-0.120	-0.620	0.390
2020/01/31 22:25:33.3	109.510	-0.140	-0.580	0.420
2020/01/31 22:25:33.4	109.560	-0.160	-0.540	0.450
2020/01/31 22:25:33.5	109.610	-0.180	-0.500	0.480
2020/01/31 22:25:33.6	109.650	-0.200	-0.450	0.510
2020/01/31 22:25:33.7	109.700	-0.220	-0.400	0.540
2020/01/31 22:25:33.8	109.750	-0.240	-0.350	0.570
2020/01/31 22:25:33.9	109.800	-0.260	-0.290	0.610
2020/01/31 22:25:34.0	109.850	-0.280	-0.230	0.650
2020/01/31 22:25:34.1	109.900	-0.300	-0.170	0.680
2020/01/31 22:25:34.2	109.950	-0.320	-0.100	0.710
2020/01/31 22:25:34.3	110.000	-0.340	-0.030	0.750
2020/01/31 22:25:34.4	110.050	-0.350	0.030	0.780
2020/01/31 22:25:34.5	110.100	-0.370	0.100	0.800
2020/01/31 22:25:34.6	110.150	-0.390	0.170	0.830
2020/01/31 22:25:34.7	110.200	-0.400	0.240	0.860
2020/01/31 22:25:34.8	110.260	-0.420	0.310	0.880
2020/01/31 22:25:34.9	110.310	-0.430	0.380	0.900
2020/01/31 22:25:35.0	110.360	-0.450	0.450	0.910
2020/01/31 22:25:35.1	110.420	-0.460	0.510	0.930
2020/01/31 22:25:35.2	110.470	-0.470	0.580	0.930
2020/01/31 22:25:35.3	110.520	-0.480	0.630	0.940
2020/01/31 22:25:35.4	110.580	-0.490	0.690	0.940
2020/01/31 22:25:35.5	110.630	-0.490	0.740	0.940
2020/01/31 22:25:35.6	110.690	-0.500	0.780	0.930
2020/01/31 22:25:35.7	110.740	-0.500	0.820	0.920
2020/01/31 22:25:35.8	110.790	-0.500	0.850	0.910
2020/01/31 22:25:35.9	110.840	-0.500	0.880	0.890
2020/01/31 22:25:36.0	110.890	-0.490	0.890	0.870
2020/01/31 22:25:36.1	110.940	-0.490	0.900	0.840
2020/01/31 22:25:36.2	110.990	-0.480	0.910	0.810
2020/01/31 22:25:36.3	111.040	-0.460	0.900	0.780
2020/01/31 22:25:36.4	111.090	-0.450	0.890	0.740
2020/01/31 22:25:36.5	111.140	-0.430	0.860	0.690
2020/01/31 22:25:36.6	111.190	-0.400	0.830	0.650
2020/01/31 22:25:36.7	111.240	-0.380	0.790	0.600
2020/01/31 22:25:36.8	111.290	-0.350	0.750	0.550
2020/01/31 22:25:36.9	111.340	-0.310	0.690	0.490
2020/01/31 22:25:37.0	111.390	-0.280	0.630	0.430
2020/01/31 22:25:37.1	111.430	-0.240	0.560	0.370
2020/01/31 22:25:37.2	111.480	-0.200	0.480	0.310
2020/01/31 22:25:37.3	111.530	-0.150	0.400	0.260
2020/01/31 22:25:37.4	111.570	-0.110	0.310	0.200
2020/01/31 22:25:37.5	111.620	-0.060	0.220	0.140
2020/01/31 22:25:37.6	111.660	-0.010	0.130	0.080
2020/01/31 22:25:37.7	111.700	0.040	0.030	0.020
2020/01/31 22:25:37.8	111.750	0.090	-0.070	-0.030
2020/01/31 22:25:37.9	111.790	0.140	-0.170	-0.080
2020/01/31 22:25:38.0	111.820	0.200	-0.280	-0.130
2020/01/31 22:25:38.1	111.860	0.250	-0.380	-0.180
2020/01/31 22:25:38.2	111.900	0.300	-0.480	-0.230
2020/01/31 22:25:38.3	111.940	0.350	-0.580	-0.270
2020/01/31 22:25:38.4	111.980	0.400	-0.670	-0.310
2020/01/31 22:25:38.5	112.020	0.440	-0.760	-0.350
2020/01/31 22:25:38.6	112.060	0.480	-0.850	-0.380
2020/01/31 22:25:38.7	112.100	0.520	-0.930	-0.410
2020/01/31 22:25:38.8	112.150	0.560	-1.010	-0.440
2020/01/31 22:25:38.9	112.190	0.590	-1.080	-0.460
2020/01/31 22:25:39.0	112.220	0.620	-1.140	-0.490
2020/01/31 22:25:39.1	112.260	0.640	-1.200	-0.500
2020/01/31 22:25:39.2	112.300	0.660	-1.240	-0.520
2020/01/31 22:25:39.3	112.350	0.680	-1.280	-0.530
2020/01/31 22:25:39.4	112.390	0.690	-1.310	-0.540
2020/01/31 22:25:39.5	112.440	0.690	-1.330	-0.550
2020/01/31 22:25:39.6	112.490	0.690	-1.340	-0.550
2020/01/31 22:25:39.7	112.530	0.690	-1.340	-0.550
2020/01/31 22:25:39.8	112.580	0.680	-1.340	-0.550
2020/01/31 22:25:39.9	112.630	0.660	-1.320	-0.540
2020/01/31 22:25:40.0	112.670	0.640	-1.300	-0.530
2020/01/31 22:25:40.1	112.720	0.620	-1.270	-0.520
2020/01/31 22:25:40.2	112.760	0.590	-1.230	-0.510
2020/01/31 22:25:40.3	112.810	0.560	-1.190	-0.500
2020/01/31 22:25:40.4	112.860	0.520	-1.130	-0.480
2020/01/31 22:25:40.5	112.910	0.490	-1.080	-0.460
2020/01/31 22:25:40.6	112.950	0.440	-1.010	-0.440
2020/01/31 22:25:40.7	113.000	0.400	-0.950	-0.410
2020/01/31 22:25:40.8	113.050	0.350	-0.870	-0.390
2020/01/31 22:25:40.9	113.090	0.300	-0.800	-0.360
2020/01/31 22:25:41.0	113.130	0.250	-0.720	-0.330
2020/01/31 22:25:41.1	113.180	0.200	-0.630	-0.290
2020/01/31 22:25:41.2	113.230	0.150	-0.550	-0.260
2020/01/31 22:25:41.3	113.270	0.090	-0.470	-0.220
2020/01/31 22:25:41.4	113.320	0.040	-0.390	-0.190
2020/01/31 22:25:41.5	113.370	-0.010	-0.310	-0.150
2020/01/31 22:25:41.6	113.410	-0.060	-0.220	-0.110
2020/01/31 22:25:41.7	113.460	-0.120	-0.140	-0.070
2020/01/31 22:25:41.8	113.500	-0.170	-0.060	-0.030
2020/01/31 22:25:41.9	113.550	-0.210	0.010	0.010
2020/01/31 22:25:42.0	113.600	-0.260	0.080	0.060
2020/01/31 22:25:42.1	113.640	-0.300	0.160	0.100
2020/01/31 22:25:42.2	113.690	-0.350	0.220	0.140
2020/01/31 22:25:42.3	113.730	-0.380	0.290	0.180
2020/01/31 22:25:42.4	113.780	-0.420	0.350	0.220
2020/01/31 22:25:42.5	113.830	-0.450	0.410	0.260
2020/01/31 22:25:42.6	113.870	-0.480	0.460	0.300
2020/01/31 22:25:42.7	113.920	-0.510	0.510	0.340
2020/01/31 22:25:42.8	113.960	-0.530	0.550	0.380
2020/01/31 22:25:42.9	114.010	-0.550	0.590	0.420
2020/01/31 22:25:43.0	114.060	-0.570	0.630	0.460
2020/01/31 22:25:43.1	114.110	-0.580	0.660	0.500
2020/01/31 22:25:43.2	114.150	-0.590	0.680	0.530
2020/01/31 22:25:43.3	114.200	-0.590	0.700	0.570
2020/01/31 22:25:43.4	114.240	-0.590	0.720	0.600
2020/01/31 22:25:43.5	114.290	-0.590	0.730	0.640
2020/01/31 22:25:43.6	114.330	-0.590	0.730	0.670
2020/01/31 22:25:43.7	114.380	-0.580	0.730	0.700
2020/01/31 22:25:43.8	114.430	-0.570	0.720	0.730
2020/01/31 22:25:43.9	114.470	-0.550	0.710	0.760
2020/01/31 22:25:44.0	114.500	-0.540	0.700	0.790
2020/01/31 22:25:44.1	114.550	-0.520	0.680	0.820
2020/01/31 22:25:44.2	114.600	-0.490	0.650	0.840
2020/01/31 22:25:44.3	114.650	-0.470	0.630	0.860
2020/01/31 22:25:44.4	114.690	-0.440	0.590	0.890
2020/01/31 22:25:44.5	114.740	-0.410	0.560	0.910
2020/01/31 22:25:44.6	114.790	-0.380	0.520	0.930
2020/01/31 22:25:44.7	114.840	-0.350	0.480	0.940
2020/01/31 22:25:44.8	114.890	-0.320	0.440	0.960
2020/01/31 22:25:44.9	114.940	-0.280	0.390	0.980
2020/01/31 22:25:45.0	115.000	-0.250	0.340	0.980
2020/01/31 22:25:45.1	115.050	-0.210	0.290	1.000
2020/01/31 22:25:45.2	115.100	-0.180	0.240	1.000
2020/01/31 22:25:45.3	115.150	-0.140	0.190	1.010
2020/01/31 22:25:45.4	115.210	-0.100	0.140	1.020
2020/01/31 22:25:45.5	115.260	-0.070	0.080	1.020
2020/01/31 22:25:45.6	115.310	-0.030	0.030	1.020
2020/01/31 22:25:45.7	115.370	0.000	-0.020	1.020
2020/01/31 22:25:45.8	115.420	0.040	-0.070	1.010
2020/01/31 22:25:45.9	115.480	0.070	-0.120	1.010
2020/01/31 22:25:46.0	115.520	0.100	-0.180	1.000
2020/01/31 22:25:46.1	115.580	0.130	-0.220	0.980
2020/01/31 22:25:46.2	115.630	0.160	-0.270	0.960
2020/01/31 22:25:46.3	115.690	0.190	-0.310	0.940
2020/01/31 22:25:46.4	115.740	0.220	-0.360	0.920
2020/01/31 22:25:46.5	115.800	0.240	-0.400	0.900
2020/01/31 22:25:46.6	115.860	0.270	-0.430	0.870
2020/01/31 22:25:46.7	115.910	0.290	-0.470	0.830
2020/01/31 22:25:46.8	115.970	0.310	-0.500	0.800
2020/01/31 22:25:46.9	116.020	0.330	-0.530	0.760
2020/01/31 22:25:47.0	116.060	0.350	-0.560	0.710
2020/01/31 22:25:47.1	116.120	0.360	-0.580	0.670
2020/01/31 22:25:47.2	116.170	0.380	-0.610	0.630
2020/01/31 22:25:47.3	116.220	0.390	-0.630	0.580
2020/01/31 22:25:47.4	116.280	0.400	-0.650	0.530
2020/01/31 22:25:47.5	116.330	0.410	-0.660	0.480
2020/01/31 22:25:47.6	116.380	0.420	-0.680	0.430
2020/01/31 22:25:47.7	116.430	0.430	-0.690	0.380
2020/01/31 22:25:47.8	116.480	0.440	-0.700	0.330
2020/01/31 22:25:47.9	116.530	0.440	-0.710	0.270
2020/01/31 22:25:48.0	116.580	0.450	-0.720	0.220
2020/01/31 22:25:48.1	116.630	0.450	-0.730	0.170
2020/01/31 22:25:48.2	116.680	0.460	-0.730	0.120
2020/01/31 22:25:48.3	116.720	0.460	-0.740	0.070
2020/01/31 22:25:48.4	116.770	0.460	-0.740	0.020
2020/01/31 22:25:48.5	116.810	0.460	-0.740	-0.030
2020/01/31 22:25:48.6	116.860	0.460	-0.730	-0.070
2020/01/31 22:25:48.7	116.900	0.450	-0.730	-0.110
2020/01/31 22:25:48.8	116.940	0.450	-0.720	-0.150
2020/01/31 22:25:48.9	116.980	0.440	-0.720	-0.190
2020/01/31 22:25:49.0	117.020	0.440	-0.700	-0.220
2020/01/31 22:25:49.1	117.060	0.430	-0.690	-0.240
2020/01/31 22:25:49.2	117.100	0.420	-0.680	-0.270
2020/01/31 22:25:49.3	117.140	0.410	-0.670	-0.290
2020/01/31 22:25:49.4	117.180	0.390	-0.650	-0.300
2020/01/31 22:25:49.5	117.220	0.380	-0.630	-0.310
2020/01/31 22:25:49.6	117.260	0.360	-0.610	-0.320
2020/01/31 22:25:49.7	117.300	0.340	-0.580	-0.320
2020/01/31 22:25:49.8	117.340	0.320	-0.560	-0.320
2020/01/31 22:25:49.9	117.380	0.300	-0.530	-0.320
2020/01/31 22:25:50.0	117.410	0.280	-0.500	-0.310
2020/01/31 22:25:50.1	117.450	0.250	-0.470	-0.290
2020/01/31 22:25:50.2	117.500	0.220	-0.440	-0.280
2020/01/31 22:25:50.3	117.540	0.190	-0.400	-0.260
2020/01/31 22:25:50.4	117.590	0.160	-0.360	-0.240
2020/01/31 22:25:50.5	117.640	0.120	-0.320	-0.210
2020/01/31 22:25:50.6	117.690	0.090	-0.280	-0.190
2020/01/31 22:25:50.7	117.740	0.050	-0.240	-0.160
2020/01/31 22:25:50.8	117.790	0.010	-0.190	-0.130
2020/01/31 22:25:50.9	117.850	-0.030	-0.150	-0.100
2020/01/31 22:25:51.0	117.920	-0.070	-0.100	-0.070
2020/01/31 22:25:51.1	117.980	-0.110	-0.050	-0.040
2020/01/31 22:25:51.2	118.040	-0.150	-0.000	-0.010
2020/01/31 22:25:51.3	118.100	-0.200	0.050	0.010
2020/01/31 22:25:51.4	118.160	-0.240	0.090	0.040
2020/01/31 22:25:51.5	118.230	-0.280	0.140	0.070
2020/01/31 22:25:51.6	118.290	-0.320	0.190	0.090
2020/01/31 22:25:51.7	118.350	-0.360	0.240	0.120
2020/01/31 22:25:51.8	118.420	-0.400	0.280	0.140
2020/01/31 22:25:51.9	118.480	-0.440	0.330	0.160
2020/01/31 22:25:52.0	118.550	-0.480	0.370	0.190
2020/01/31 22:25:52.1	118.610	-0.510	0.410	0.210
2020/01/31 22:25:52.2	118.670	-0.540	0.440	0.230
2020/01/31 22:25:52.3	118.730	-0.570	0.480	0.250
2020/01/31 22:25:52.4	118.790	-0.600	0.510	0.270
2020/01/31 22:25:52.5	118.850	-0.620	0.530	0.290
2020/01/31 22:25:52.6	118.900	-0.640	0.550	0.310
2020/01/31 22:25:52.7	118.960	-0.660	0.570	0.330
2020/01/31 22:25:52.8	119.010	-0.680	0.590	0.340
2020/01/31 22:25:52.9	119.060	-0.690	0.600	0.360
2020/01/31 22:25:53.0	119.130	-0.690	0.600	0.380
2020/01/31 22:25:53.1	119.180	-0.690	0.600	0.400
2020/01/31 22:25:53.2	119.230	-0.690	0.600	0.420
2020/01/31 22:25:53.3	119.270	-0.690	0.590	0.430
2020/01/31 22:25:53.4	119.320	-0.680	0.580	0.450
2020/01/31 22:25:53.5	119.360	-0.660	0.560	0.470
2020/01/31 22:25:53.6	119.400	-0.650	0.540	0.490
2020/01/31 22:25:53.7	119.450	-0.620	0.520	0.510
2020/01/31 22:25:53.8	119.490	-0.600	0.490	0.530
2020/01/31 22:25:53.9	119.530	-0.570	0.460	0.550
2020/01/31 22:25:54.0	119.580	-0.540	0.420	0.570
2020/01/31 22:25:54.1	119.620	-0.500	0.390	0.590
2020/01/31 22:25:54.2	119.650	-0.470	0.340	0.610
2020/01/31 22:25:54.3	119.690	-0.420	0.300	0.630
2020/01/31 22:25:54.4	119.730	-0.380	0.250	0.640
2020/01/31 22:25:54.5	119.760	-0.330	0.200	0.660
2020/01/31 22:25:54.6	119.800	-0.290	0.150	0.670
2020/01/31 22:25:54.7	119.840	-0.230	0.100	0.680
2020/01/31 22:25:54.8	119.870	-0.180	0.040	0.690
2020/01/31 22:25:54.9	119.910	-0.130	-0.010	0.700
2020/01/31 22:25:55.0	119.960	-0.080	-0.070	0.700
2020/01/31 22:25:55.1	119.990	-0.020	-0.130	0.700
2020/01/31 22:25:55.2	120.030	0.030	-0.180	0.700
2020/01/31 22:25:55.3	120.070	0.090	-0.240	0.700
2020/01/31 22:25:55.4	120.110	0.140	-0.290	0.690
2020/01/31 22:25:55.5	120.160	0.200	-0.350	0.690
2020/01/31 22:25:55.6	120.200	0.250	-0.400	0.680
2020/01/31 22:25:55.7	120.250	0.300	-0.450	0.670
2020/01/31 22:25:55.8	120.300	0.350	-0.500	0.650
2020/01/31 22:25:55.9	120.350	0.400	-0.550	0.640
2020/01/31 22:25:56.0	120.410	0.440	-0.590	0.620
2020/01/31 22:25:56.1	120.470	0.480	-0.630	0.610
2020/01/31 22:25:56.2	120.520	0.520	-0.670	0.580
2020/01/31 22:25:56.3	120.580	0.560	-0.700	0.560
2020/01/31 22:25:56.4	120.640	0.590	-0.730	0.540
2020/01/31 22:25:56.5	120.700	0.620	-0.760	0.510
2020/01/31 22:25:56.6	120.760	0.650	-0.780	0.490
2020/01/31 22:25:56.7	120.830	0.670	-0.800	0.460
2020/01/31 22:25:56.8	120.890	0.690	-0.810	0.430
2020/01/31 22:25:56.9	120.950	0.700	-0.820	0.400
2020/01/31 22:25:57.0	121.020	0.710	-0.820	0.360
2020/01/31 22:25:57.1	121.090	0.720	-0.820	0.330
2020/01/31 22:25:57.2	121.150	0.720	-0.820	0.300
2020/01/31 22:25:57.3	121.220	0.720	-0.810	0.270
2020/01/31 22:25:57.4	121.290	0.710	-0.800	0.240
2020/01/31 22:25:57.5	121.350	0.700	-0.780	0.210
2020/01/31 22:25:57.6	121.420	0.690	-0.760	0.180
2020/01/31 22:25:57.7	121.490	0.670	-0.740	0.150
2020/01/31 22:25:57.8	121.550	0.650	-0.710	0.120
2020/01/31 22:25:57.9	121.620	0.620	-0.680	0.090
2020/01/31 22:25:58.0	121.700	0.590	-0.650	0.060
2020/01/31 22:25:58.1	121.760	0.560	-0.620	0.030
2020/01/31 22:25:58.2	121.830	0.530	-0.580	0.010
2020/01/31 22:25:58.3	121.890	0.490	-0.540	-0.020
2020/01/31 22:25:58.4	121.960	0.450	-0.490	-0.040
2020/01/31 22:25:58.5	122.020	0.410	-0.450	-0.060
2020/01/31 22:25:58.6	122.090	0.370	-0.400	-0.080
2020/01/31 22:25:58.7	122.150	0.320	-0.360	-0.100
2020/01/31 22:25:58.8	122.210	0.280	-0.310	-0.110
2020/01/31 22:25:58.9	122.280	0.230	-0.270	-0.120
2020/01/31 22:25:59.0	122.350	0.180	-0.220	-0.130
2020/01/31 22:25:59.1	122.410	0.140	-0.180	-0.130
2020/01/31 22:25:59.2	122.470	0.090	-0.140	-0.140
2020/01/31 22:25:59.3	122.530	0.050	-0.100	-0.130
2020/01/31 22:25:59.4	122.590	0.000	-0.060	-0.130
2020/01/31 22:25:59.5	122.650	-0.040	-0.030	-0.120
2020/01/31 22:25:59.6	122.700	-0.080	0.000	-0.110
2020/01/31 22:25:59.7	122.750	-0.120	0.030	-0.090
2020/01/31 22:25:59.8	122.800	-0.160	0.060	-0.080
2020/01/31 22:25:59.9	122.850	-0.200	0.080	-0.050
2020/01/31 22:26:00.0	122.900	-0.230	0.090	-0.030
2020/01/31 22:26:00.1	122.940	-0.260	0.100	-0.000
2020/01/31 22:26:00.2	122.990	-0.290	0.110	0.030
2020/01/31 22:26:00.3	123.030	-0.320	0.120	0.060
2020/01/31 22:26:00.4	123.070	-0.340	0.120	0.090
2020/01/31 22:26:00.5	123.110	-0.360	0.120	0.130
2020/01/31 22:26:00.6	123.150	-0.380	0.110	0.170
2020/01/31 22:26:00.7	123.190	-0.390	0.100	0.210
2020/01/31 22:26:00.8	123.230	-0.400	0.090	0.250
2020/01/31 22:26:00.9	123.260	-0.410	0.080	0.290
2020/01/31 22:26:01.0	123.290	-0.410	0.070	0.330
2020/01/31 22:26:01.1	123.330	-0.410	0.050	0.370
2020/01/31 22:26:01.2	123.370	-0.410	0.030	0.420
2020/01/31 22:26:01.3	123.400	-0.410	0.010	0.460
2020/01/31 22:26:01.4	123.430	-0.410	-0.010	0.510
2020/01/31 22:26:01.5	123.470	-0.400	-0.030	0.550
2020/01/31 22:26:01.6	123.510	-0.390	-0.050	0.600
2020/01/31 22:26:01.7	123.540	-0.380	-0.070	0.650
2020/01/31 22:26:01.8	123.580	-0.370	-0.090	0.690
2020/01/31 22:26:01.9	123.610	-0.350	-0.110	0.730
2020/01/31 22:26:02.0	123.650	-0.340	-0.120	0.780
2020/01/31 22:26:02.1	123.690	-0.330	-0.140	0.820
2020/01/31 22:26:02.2	123.730	-0.310	-0.150	0.860
2020/01/31 22:26:02.3	123.770	-0.300	-0.160	0.900
2020/01/31 22:26:02.4	123.810	-0.280	-0.170	0.940
2020/01/31 22:26:02.5	123.850	-0.270	-0.180	0.970
2020/01/31 22:26:02.6	123.900	-0.250	-0.180	1.010
2020/01/31 22:26:02.7	123.940	-0.240	-0.180	1.040
2020/01/31 22:26:02.8	123.990	-0.230	-0.180	1.070
2020/01/31 22:26:02.9	124.040	-0.210	-0.180	1.090
2020/01/31 22:26:03.0	124.070	-0.200	-0.170	1.110
2020/01/31 22:26:03.1	124.120	-0.190	-0.160	1.130
2020/01/31 22:26:03.2	124.170	-0.180	-0.160	1.150
2020/01/31 22:26:03.3	124.230	-0.170	-0.140	1.170
2020/01/31 22:26:03.4	124.280	-0.170	-0.130	1.180
2020/01/31 22:26:03.5	124.340	-0.160	-0.120	1.190
2020/01/31 22:26:03.6	124.400	-0.160	-0.110	1.200
2020/01/31 22:26:03.7	124.460	-0.150	-0.090	1.200
2020/01/31 22:26:03.8	124.520	-0.150	-0.080	1.200
2020/01/31 22:26:03.9	124.580	-0.150	-0.060	1.200
2020/01/31 22:26:04.0	124.640	-0.140	-0.050	1.200
2020/01/31 22:26:04.1	124.700	-0.140	-0.030	1.190
2020/01/31 22:26:04.2	124.760	-0.140	-0.020	1.190
2020/01/31 22:26:04.3	124.820	-0.140	-0.020	1.180
2020/01/31 22:26:04.4	124.880	-0.130	-0.010	1.160
2020/01/31 22:26:04.5	124.940	-0.130	-0.000	1.150
2020/01/31 22:26:04.6	125.000	-0.130	-0.000	1.130
2020/01/31 22:26:04.7	125.060	-0.130	-0.000	1.110
2020/01/31 22:26:04.8	125.130	-0.120	-0.000	1.090
2020/01/31 22:26:04.9	125.180	-0.120	-0.010	1.070
2020/01/31 22:26:05.0	125.240	-0.110	-0.020	1.040
2020/01/31 22:26:05.1	125.300	-0.110	-0.030	1.020
2020/01/31 22:26:05.2	125.360	-0.100	-0.040	0.980
2020/01/31 22:26:05.3	125.410	-0.090	-0.050	0.950
2020/01/31 22:26:05.4	125.470	-0.080	-0.070	0.920
2020/01/31 22:26:05.5	125.530	-0.070	-0.080	0.880
2020/01/31 22:26:05.6	125.590	-0.060	-0.090	0.850
2020/01/31 22:26:05.7	125.640	-0.040	-0.110	0.810
2020/01/31 22:26:05.8	125.700	-0.030	-0.120	0.770
2020/01/31 22:26:05.9	125.760	-0.020	-0.140	0.730
2020/01/31 22:26:06.0	125.800	-0.000	-0.150	0.690
2020/01/31 22:26:06.1	125.850	0.020	-0.160	0.650
2020/01/31 22:26:06.2	125.910	0.030	-0.170	0.610
2020/01/31 22:26:06.3	125.960	0.050	-0.170	0.570
2020/01/31 22:26:06.4	126.020	0.070	-0.180	0.530
2020/01/31 22:26:06.5	126.070	0.090	-0.180	0.490
2020/01/31 22:26:06.6	126.130	0.110	-0.180	0.450
2020/01/31 22:26:06.7	126.180	0.130	-0.180	0.420
2020/01/31 22:26:06.8	126.240	0.150	-0.170	0.380
2020/01/31 22:26:06.9	126.290	0.170	-0.160	0.340
2020/01/31 22:26:07.0	126.320	0.190	-0.160	0.300
2020/01/31 22:26:07.1	126.380	0.210	-0.140	0.260
2020/01/31 22:26:07.2	126.430	0.220	-0.130	0.230
2020/01/31 22:26:07.3	126.490	0.240	-0.110	0.190
2020/01/31 22:26:07.4	126.540	0.260	-0.090	0.150
2020/01/31 22:26:07.5	126.590	0.280	-0.060	0.110
2020/01/31 22:26:07.6	126.650	0.290	-0.040	0.080
2020/01/31 22:26:07.7	126.700	0.310	-0.020	0.040
2020/01/31 22:26:07.8	126.760	0.320	0.010	0.000
2020/01/31 22:26:07.9	126.810	0.340	0.030	-0.040
2020/01/31 22:26:08.0	126.880	0.350	0.060	-0.070
2020/01/31 22:26:08.1	126.930	0.360	0.080	-0.110
2020/01/31 22:26:08.2	126.990	0.370	0.110	-0.140
2020/01/31 22:26:08.3	127.050	0.380	0.130	-0.180
2020/01/31 22:26:08.4	127.110	0.390	0.150	-0.210
2020/01/31 22:26:08.5	127.170	0.390	0.160	-0.240
2020/01/31 22:26:08.6	127.230	0.400	0.180	-0.270
2020/01/31 22:26:08.7	127.300	0.400	0.190	-0.310
2020/01/31 22:26:08.8	127.360	0.400	0.200	-0.340
2020/01/31 22:26:08.9	127.420	0.400	0.200	-0.370
2020/01/31 22:26:09.0	127.480	0.400	0.200	-0.390
2020/01/31 22:26:09.1	127.550	0.400	0.200	-0.420
2020/01/31 22:26:09.2	127.620	0.400	0.190	-0.440
2020/01/31 22:26:09.3	127.680	0.390	0.180	-0.460
2020/01/31 22:26:09.4	127.750	0.390	0.170	-0.490
2020/01/31 22:26:09.5	127.820	0.380	0.150	-0.510
2020/01/31 22:26:09.6	127.880	0.380	0.120	-0.520
2020/01/31 22:26:09.7	127.950	0.370	0.100	-0.540
2020/01/31 22:26:09.8	128.020	0.360	0.060	-0.550
2020/01/31 22:26:09.9	128.080	0.350	0.030	-0.560
2020/01/31 22:26:10.0	128.130	0.340	-0.010	-0.580
2020/01/31 22:26:10.1	128.200	0.330	-0.050	-0.580
2020/01/31 22:26:10.2	128.260	0.320	-0.100	-0.580
2020/01/31 22:26:10.3	128.320	0.300	-0.140	-0.580
2020/01/31 22:26:10.4	128.380	0.290	-0.190	-0.570
2020/01/31 22:26:10.5	128.440	0.270	-0.240	-0.560
2020/01/31 22:26:10.6	128.490	0.260	-0.290	-0.550
2020/01/31 22:26:10.7	128.550	0.240	-0.350	-0.530
2020/01/31 22:26:10.8	128.600	0.220	-0.400	-0.510
2020/01/31 22:26:10.9	128.650	0.200	-0.460	-0.490
2020/01/31 22:26:11.0	128.690	0.190	-0.510	-0.450
2020/01/31 22:26:11.1	128.730	0.170	-0.560	-0.420
2020/01/31 22:26:11.2	128.780	0.150	-0.610	-0.380
2020/01/31 22:26:11.3	128.820	0.130	-0.660	-0.340
2020/01/31 22:26:11.4	128.870	0.110	-0.710	-0.300
2020/01/31 22:26:11.5	128.910	0.090	-0.760	-0.250
2020/01/31 22:26:11.6	128.950	0.070	-0.800	-0.200
2020/01/31 22:26:11.7	128.990	0.040	-0.840	-0.150
2020/01/31 22:26:11.8	129.020	0.020	-0.880	-0.090
2020/01/31 22:26:11.9	129.060	0.000	-0.910	-0.030
2020/01/31 22:26:12.0	129.080	-0.020	-0.940	0.020
2020/01/31 22:26:12.1	129.120	-0.040	-0.960	0.090
2020/01/31 22:26:12.2	129.150	-0.060	-0.970	0.150
2020/01/31 22:26:12.3	129.190	-0.080	-0.990	0.220
2020/01/31 22:26:12.4	129.220	-0.110	-0.990	0.290
2020/01/31 22:26:12.5	129.250	-0.130	-0.990	0.360
2020/01/31 22:26:12.6	129.290	-0.150	-0.990	0.430
2020/01/31 22:26:12.7	129.320	-0.170	-0.980	0.510
2020/01/31 22:26:12.8	129.350	-0.190	-0.960	0.580
2020/01/31 22:26:12.9	129.380	-0.210	-0.940	0.660
2020/01/31 22:26:13.0	129.390	-0.230	-0.920	0.740
2020/01/31 22:26:13.1	129.420	-0.240	-0.890	0.820
2020/01/31 22:26:13.2	129.450	-0.260	-0.850	0.890
2020/01/31 22:26:13.3	129.480	-0.280	-0.810	0.970
2020/01/31 22:26:13.4	129.510	-0.300	-0.770	1.040
2020/01/31 22:26:13.5	129.540	-0.310	-0.730	1.110
2020/01/31 22:26:13.6	129.570	-0.320	-0.680	1.180
2020/01/31 22:26:13.7	129.590	-0.340	-0.630	1.250
2020/01/31 22:26:13.8	129.620	-0.350	-0.570	1.310
2020/01/31 22:26:13.9	129.650	-0.360	-0.520	1.380
2020/01/31 22:26:14.0	129.680	-0.370	-0.470	1.430
2020/01/31 22:26:14.1	129.710	-0.370	-0.410	1.490
2020/01/31 22:26:14.2	129.740	-0.380	-0.360	1.550
2020/01/31 22:26:14.3	129.770	-0.380	-0.300	1.600
2020/01/31 22:26:14.4	129.800	-0.380	-0.250	1.650
2020/01/31 22:26:14.5	129.830	-0.380	-0.200	1.700
2020/01/31 22:26:14.6	129.870	-0.380	-0.150	1.740
2020/01/31 22:26:14.7	129.900	-0.380	-0.100	1.780
2020/01/31 22:26:14.8	129.940	-0.370	-0.050	1.820
2020/01/31 22:26:14.9	129.980	-0.360	-0.010	1.850
2020/01/31 22:26:15.0	130.020	-0.360	0.040	1.880
2020/01/31 22:26:15.1	130.070	-0.350	0.080	1.910
2020/01/31 22:26:15.2	130.110	-0.330	0.120	1.930
2020/01/31 22:26:15.3	130.160	-0.320	0.150	1.940
2020/01/31 22:26:15.4	130.210	-0.310	0.190	1.950
2020/01/31 22:26:15.5	130.260	-0.290	0.220	1.950
2020/01/31 22:26:15.6	130.320	-0.280	0.250	1.940
2020/01/31 22:26:15.7	130.370	-0.260	0.270	1.930
2020/01/31 22:26:15.8	130.440	-0.250	0.300	1.920
2020/01/31 22:26:15.9	130.500	-0.230	0.320	1.890
2020/01/31 22:26:16.0	130.570	-0.220	0.340	1.860
2020/01/31 22:26:16.1	130.650	-0.200	0.360	1.820
2020/01/31 22:26:16.2	130.720	-0.190	0.380	1.780
2020/01/31 22:26:16.3	130.800	-0.180	0.410	1.730
2020/01/31 22:26:16.4	130.890	-0.170	0.430	1.680
2020/01/31 22:26:16.5	130.970	-0.160	0.450	1.620
2020/01/31 22:26:16.6	131.060	-0.150	0.470	1.560
2020/01/31 22:26:16.7	131.160	-0.150	0.490	1.490
2020/01/31 22:26:16.8	131.260	-0.140	0.510	1.420
2020/01/31 22:26:16.9	131.350	-0.140	0.530	1.340
2020/01/31 22:26:17.0	131.460	-0.140	0.550	1.260
2020/01/31 22:26:17.1	131.570	-0.150	0.560	1.180
2020/01/31 22:26:17.2	131.670	-0.150	0.580	1.090
2020/01/31 22:26:17.3	131.780	-0.160	0.600	1.000
2020/01/31 22:26:17.4	131.880	-0.170	0.610	0.920
2020/01/31 22:26:17.5	131.990	-0.180	0.630	0.830
2020/01/31 22:26:17.6	132.090	-0.190	0.640	0.740
2020/01/31 22:26:17.7	132.200	-0.210	0.650	0.650
2020/01/31 22:26:17.8	132.300	-0.220	0.660	0.560
2020/01/31 22:26:17.9	132.400	-0.240	0.660	0.470
2020/01/31 22:26:18.0	132.500	-0.250	0.660	0.390
2020/01/31 22:26:18.1	132.590	-0.270	0.660	0.310
2020/01/31 22:26:18.2	132.690	-0.280	0.650	0.230
2020/01/31 22:26:18.3	132.780	-0.300	0.640	0.150
2020/01/31 22:26:18.4	132.860	-0.310	0.620	0.080
2020/01/31 22:26:18.5	132.950	-0.330	0.600	0.010
2020/01/31 22:26:18.6	133.020	-0.340	0.580	-0.050
2020/01/31 22:26:18.7	133.100	-0.350	0.540	-0.110
2020/01/31 22:26:18.8	133.170	-0.350	0.510	-0.160
2020/01/31 22:26:18.9	133.240	-0.360	0.470	-0.210
2020/01/31 22:26:19.0	133.310	-0.360	0.420	-0.250
2020/01/31 22:26:19.1	133.370	-0.360	0.370	-0.290
2020/01/31 22:26:19.2	133.430	-0.360	0.310	-0.330
2020/01/31 22:26:19.3	133.480	-0.350	0.250	-0.360
2020/01/31 22:26:19.4	133.530	-0.340	0.190	-0.390
2020/01/31 22:26:19.5	133.570	-0.330	0.120	-0.410
2020/01/31 22:26:19.6	133.620	-0.310	0.050	-0.430
2020/01/31 22:26:19.7	133.660	-0.290	-0.030	-0.440
2020/01/31 22:26:19.8	133.700	-0.260	-0.100	-0.450
2020/01/31 22:26:19.9	133.730	-0.230	-0.190	-0.460
2020/01/31 22:26:20.0	133.750	-0.200	-0.270	-0.470
2020/01/31 22:26:20.1	133.790	-0.170	-0.360	-0.470
2020/01/31 22:26:20.2	133.810	-0.130	-0.440	-0.480
2020/01/31 22:26:20.3	133.840	-0.090	-0.520	-0.480
2020/01/31 22:26:20.4	133.870	-0.040	-0.610	-0.470
2020/01/31 22:26:20.5	133.890	0.010	-0.690	-0.470
2020/01/31 22:26:20.6	133.910	0.060	-0.770	-0.460
2020/01/31 22:26:20.7	133.940	0.110	-0.850	-0.460
2020/01/31 22:26:20.8	133.960	0.160	-0.920	-0.450
2020/01/31 22:26:20.9	133.980	0.210	-0.990	-0.440
2020/01/31 22:26:21.0	133.980	0.270	-1.060	-0.430
2020/01/31 22:26:21.1	134.010	0.320	-1.120	-0.420
2020/01/31 22:26:21.2	134.030	0.380	-1.180	-0.410
2020/01/31 22:26:21.3	134.050	0.430	-1.230	-0.400
2020/01/31 22:26:21.4	134.080	0.480	-1.280	-0.390
2020/01/31 22:26:21.5	134.100	0.530	-1.310	-0.380
2020/01/31 22:26:21.6	134.130	0.580	-1.340	-0.360
2020/01/31 22:26:21.7	134.160	0.620	-1.370	-0.350
2020/01/31 22:26:21.8	134.190	0.660	-1.380	-0.330
2020/01/31 22:26:21.9	134.220	0.700	-1.390	-0.310
2020/01/31 22:26:22.0	134.250	0.730	-1.390	-0.290
2020/01/31 22:26:22.1	134.290	0.760	-1.380	-0.270
2020/01/31 22:26:22.2	134.330	0.780	-1.360	-0.250
2020/01/31 22:26:22.3	134.370	0.800	-1.330	-0.220
2020/01/31 22:26:22.4	134.410	0.810	-1.300	-0.200
2020/01/31 22:26:22.5	134.450	0.810	-1.250	-0.170
2020/01/31 22:26:22.6	134.500	0.810	-1.200	-0.140
2020/01/31 22:26:22.7	134.550	0.810	-1.140	-0.110
2020/01/31 22:26:22.8	134.600	0.800	-1.080	-0.070
2020/01/31 22:26:22.9	134.650	0.780	-1.000	-0.040
2020/01/31 22:26:23.0	134.700	0.760	-0.920	-0.000
2020/01/31 22:26:23.1	134.760	0.730	-0.840	0.030
2020/01/31 22:26:23.2	134.820	0.700	-0.750	0.070
2020/01/31 22:26:23.3	134.880	0.660	-0.660	0.110
2020/01/31 22:26:23.4	134.950	0.620	-0.560	0.150
2020/01/31 22:26:23.5	135.010	0.580	-0.460	0.180
2020/01/31 22:26:23.6	135.080	0.530	-0.360	0.220
2020/01/31 22:26:23.7	135.150	0.470	-0.260	0.250
2020/01/31 22:26:23.8	135.230	0.420	-0.160	0.290
2020/01/31 22:26:23.9	135.310	0.360	-0.050	0.320
2020/01/31 22:26:24.0	135.390	0.300	0.050	0.350
2020/01/31 22:26:24.1	135.470	0.230	0.150	0.380
2020/01/31 22:26:24.2	135.550	0.170	0.240	0.400
2020/01/31 22:26:24.3	135.630	0.110	0.340	0.420
2020/01/31 22:26:24.4	135.720	0.040	0.430	0.440
2020/01/31 22:26:24.5	135.800	-0.020	0.520	0.460
2020/01/31 22:26:24.6	135.890	-0.080	0.600	0.480
2020/01/31 22:26:24.7	135.970	-0.140	0.670	0.500
2020/01/31 22:26:24.8	136.060	-0.200	0.740	0.510
2020/01/31 22:26:24.9	136.140	-0.250	0.800	0.530
2020/01/31 22:26:25.0	136.230	-0.310	0.850	0.540
2020/01/31 22:26:25.1	136.310	-0.360	0.900	0.560
2020/01/31 22:26:25.2	136.390	-0.400	0.930	0.570
2020/01/31 22:26:25.3	136.470	-0.440	0.960	0.590
2020/01/31 22:26:25.4	136.550	-0.480	0.980	0.610
2020/01/31 22:26:25.5	136.630	-0.510	0.990	0.620
2020/01/31 22:26:25.6	136.710	-0.540	0.990	0.640
2020/01/31 22:26:25.7	136.780	-0.560	0.980	0.660
2020/01/31 22:26:25.8	136.850	-0.570	0.970	0.680
2020/01/31 22:26:25.9	136.920	-0.580	0.940	0.710
2020/01/31 22:26:26.0	136.990	-0.590	0.910	0.730
2020/01/31 22:26:26.1	137.060	-0.590	0.870	0.750
2020/01/31 22:26:26.2	137.120	-0.590	0.830	0.780
2020/01/31 22:26:26.3	137.180	-0.580	0.770	0.800
2020/01/31 22:26:26.4	137.240	-0.570	0.720	0.830
2020/01/31 22:26:26.5	137.300	-0.550	0.650	0.860
2020/01/31 22:26:26.6	137.360	-0.530	0.580	0.880
2020/01/31 22:26:26.7	137.420	-0.500	0.510	0.910
2020/01/31 22:26:26.8	137.470	-0.470	0.440	0.940
2020/01/31 22:26:26.9	137.520	-0.440	0.370	0.970
2020/01/31 22:26:27.0	137.590	-0.410	0.290	0.990
2020/01/31 22:26:27.1	137.640	-0.370	0.210	1.020
2020/01/31 22:26:27.2	137.690	-0.330	0.130	1.050
2020/01/31 22:26:27.3	137.740	-0.290	0.060	1.080
2020/01/31 22:26:27.4	137.790	-0.250	-0.020	1.110
2020/01/31 22:26:27.5	137.840	-0.210	-0.090	1.140
2020/01/31 22:26:27.6	137.890	-0.170	-0.160	1.160
2020/01/31 22:26:27.7	137.940	-0.130	-0.230	1.190
2020/01/31 22:26:27.8	137.990	-0.090	-0.300	1.220
2020/01/31 22:26:27.9	138.040	-0.050	-0.360	1.250
2020/01/31 22:26:28.0	138.080	-0.010	-0.420	1.270
2020/01/31 22:26:28.1	138.130	0.020	-0.470	1.300
2020/01/31 22:26:28.2	138.180	0.060	-0.520	1.320
2020/01/31 22:26:28.3	138.230	0.090	-0.570	1.340
2020/01/31 22:26:28.4	138.280	0.120	-0.610	1.360
2020/01/31 22:26:28.5	138.330	0.150	-0.650	1.380
2020/01/31 22:26:28.6	138.390	0.180	-0.680	1.400
2020/01/31 22:26:28.7	138.440	0.200	-0.710	1.420
2020/01/31 22:26:28.8	138.500	0.220	-0.730	1.430
2020/01/31 22:26:28.9	138.550	0.240	-0.750	1.440
2020/01/31 22:26:29.0	138.620	0.260	-0.770	1.440
2020/01/31 22:26:29.1	138.680	0.280	-0.780	1.450
2020/01/31 22:26:29.2	138.730	0.290	-0.790	1.460
2020/01/31 22:26:29.3	138.790	0.300	-0.790	1.460
2020/01/31 22:26:29.4	138.850	0.310	-0.790	1.460
2020/01/31 22:26:29.5	138.910	0.310	-0.790	1.460
2020/01/31 22:26:29.6	138.970	0.320	-0.780	1.450
2020/01/31 22:26:29.7	139.030	0.320	-0.780	1.450
2020/01/31 22:26:29.8	139.090	0.320	-0.770	1.440
2020/01/31 22:26:29.9	139.150	0.320	-0.760	1.430
2020/01/31 22:26:30.0	139.210	0.320	-0.740	1.410
2020/01/31 22:26:30.1	139.270	0.320	-0.730	1.400
2020/01/31 22:26:30.2	139.330	0.310	-0.710	1.380
2020/01/31 22:26:30.3	139.390	0.310	-0.690	1.360
2020/01/31 22:26:30.4	139.450	0.300	-0.670	1.330
2020/01/31 22:26:30.5	139.510	0.290	-0.650	1.310
2020/01/31 22:26:30.6	139.570	0.280	-0.630	1.280
2020/01/31 22:26:30.7	139.630	0.280	-0.610	1.250
2020/01/31 22:26:30.8	139.690	0.270	-0.580	1.220
2020/01/31 22:26:30.9	139.760	0.260	-0.560	1.190
2020/01/31 22:26:31.0	139.810	0.240	-0.530	1.150
2020/01/31 22:26:31.1	139.880	0.230	-0.500	1.110
2020/01/31 22:26:31.2	139.940	0.220	-0.470	1.070
2020/01/31 22:26:31.3	140.000	0.200	-0.440	1.030
2020/01/31 22:26:31.4	140.070	0.190	-0.410	0.990
2020/01/31 22:26:31.5	140.130	0.170	-0.380	0.940
2020/01/31 22:26:31.6	140.200	0.160	-0.350	0.900
2020/01/31 22:26:31.7	140.270	0.140	-0.320	0.850
2020/01/31 22:26:31.8	140.340	0.120	-0.290	0.800
2020/01/31 22:26:31.9	140.410	0.100	-0.250	0.750
2020/01/31 22:26:32.0	140.490	0.080	-0.220	0.700
2020/01/31 22:26:32.1	140.570	0.050	-0.180	0.650
2020/01/31 22:26:32.2	140.640	0.030	-0.150	0.600
2020/01/31 22:26:32.3	140.710	0.000	-0.110	0.550
2020/01/31 22:26:32.4	140.780	-0.020	-0.070	0.500
2020/01/31 22:26:32.5	140.860	-0.050	-0.040	0.450
2020/01/31 22:26:32.6	140.930	-0.080	-0.000	0.400
2020/01/31 22:26:32.7	141.010	-0.110	0.030	0.350
2020/01/31 22:26:32.8	141.090	-0.140	0.070	0.310
2020/01/31 22:26:32.9	141.160	-0.170	0.100	0.260
2020/01/31 22:26:33.0	141.240	-0.200	0.140	0.220
2020/01/31 22:26:33.1	141.320	-0.230	0.170	0.180
2020/01/31 22:26:33.2	141.400	-0.260	0.200	0.140
2020/01/31 22:26:33.3	141.470	-0.290	0.230	0.100
2020/01/31 22:26:33.4	141.550	-0.320	0.260	0.070
2020/01/31 22:26:33.5	141.630	-0.350	0.280	0.040
2020/01/31 22:26:33.6	141.700	-0.380	0.310	0.020
2020/01/31 22:26:33.7	141.780	-0.410	0.330	-0.010
2020/01/31 22:26:33.8	141.850	-0.430	0.350	-0.020
2020/01/31 22:26:33.9	141.920	-0.460	0.360	-0.040
2020/01/31 22:26:34.0	141.990	-0.480	0.380	-0.050
2020/01/31 22:26:34.1	142.060	-0.500	0.390	-0.060
2020/01/31 22:26:34.2	142.120	-0.520	0.390	-0.070
2020/01/31 22:26:34.3	142.190	-0.530	0.400	-0.070
2020/01/31 22:26:34.4	142.250	-0.550	0.400	-0.070
2020/01/31 22:26:34.5	142.310	-0.560	0.390	-0.060
2020/01/31 22:26:34.6	142.370	-0.560	0.380	-0.060
2020/01/31 22:26:34.7	142.430	-0.560	0.370	-0.040
2020/01/31 22:26:34.8	142.480	-0.560	0.360	-0.030
2020/01/31 22:26:34.9	142.530	-0.560	0.340	-0.020
2020/01/31 22:26:35.0	142.580	-0.550	0.310	0.000
2020/01/31 22:26:35.1	142.630	-0.530	0.280	0.020
2020/01/31 22:26:35.2	142.670	-0.510	0.250	0.040
2020/01/31 22:26:35.3	142.720	-0.490	0.210	0.060
2020/01/31 22:26:35.4	142.760	-0.470	0.170	0.090
2020/01/31 22:26:35.5	142.810	-0.440	0.130	0.110
2020/01/31 22:26:35.6	142.850	-0.410	0.080	0.140
2020/01/31 22:26:35.7	142.890	-0.370	0.030	0.160
2020/01/31 22:26:35.8	142.930	-0.340	-0.030	0.190
2020/01/31 22:26:35.9	142.980	-0.300	-0.080	0.210
2020/01/31 22:26:36.0	143.010	-0.250	-0.150	0.230
2020/01/31 22:26:36.1	143.050	-0.210	-0.210	0.250
2020/01/31 22:26:36.2	143.090	-0.170	-0.270	0.280
2020/01/31 22:26:36.3	143.130	-0.120	-0.330	0.300
2020/01/31 22:26:36.4	143.180	-0.070	-0.390	0.320
2020/01/31 22:26:36.5	143.220	-0.030	-0.460	0.340
2020/01/31 22:26:36.6	143.260	0.020	-0.520	0.360
2020/01/31 22:26:36.7	143.310	0.070	-0.580	0.380
2020/01/31 22:26:36.8	143.350	0.110	-0.630	0.400
2020/01/31 22:26:36.9	143.390	0.160	-0.690	0.420
2020/01/31 22:26:37.0	143.440	0.200	-0.740	0.440
2020/01/31 22:26:37.1	143.490	0.240	-0.790	0.460
2020/01/31 22:26:37.2	143.540	0.280	-0.830	0.470
2020/01/31 22:26:37.3	143.590	0.320	-0.870	0.490
2020/01/31 22:26:37.4	143.640	0.350	-0.900	0.500
2020/01/31 22:26:37.5	143.700	0.380	-0.930	0.520
2020/01/31 22:26:37.6	143.750	0.410	-0.940	0.530
2020/01/31 22:26:37.7	143.810	0.430	-0.960	0.540
2020/01/31 22:26:37.8	143.880	0.460	-0.960	0.550
2020/01/31 22:26:37.9	143.940	0.470	-0.950	0.560
2020/01/31 22:26:38.0	144.010	0.480	-0.940	0.570
2020/01/31 22:26:38.1	144.080	0.490	-0.920	0.580
2020/01/31 22:26:38.2	144.150	0.500	-0.890	0.590
2020/01/31 22:26:38.3	144.230	0.500	-0.850	0.590
2020/01/31 22:26:38.4	144.300	0.500	-0.810	0.600
2020/01/31 22:26:38.5	144.380	0.490	-0.760	0.600
2020/01/31 22:26:38.6	144.470	0.480	-0.700	0.610
2020/01/31 22:26:38.7	144.550	0.460	-0.630	0.610
2020/01/31 22:26:38.8	144.640	0.450	-0.560	0.620
2020/01/31 22:26:38.9	144.720	0.420	-0.480	0.620
2020/01/31 22:26:39.0	144.820	0.400	-0.400	0.630
2020/01/31 22:26:39.1	144.910	0.370	-0.320	0.630
2020/01/31 22:26:39.2	145.000	0.340	-0.230	0.640
2020/01/31 22:26:39.3	145.090	0.310	-0.140	0.640
2020/01/31 22:26:39.4	145.180	0.270	-0.060	0.650
2020/01/31 22:26:39.5	145.270	0.230	0.030	0.650
2020/01/31 22:26:39.6	145.360	0.200	0.120	0.660
2020/01/31 22:26:39.7	145.460	0.160	0.210	0.660
2020/01/31 22:26:39.8	145.550	0.120	0.300	0.670
2020/01/31 22:26:39.9	145.650	0.070	0.390	0.670
2020/01/31 22:26:40.0	145.760	0.030	0.470	0.680
2020/01/31 22:26:40.1	145.860	-0.010	0.550	0.680
2020/01/31 22:26:40.2	145.950	-0.050	0.620	0.690
2020/01/31 22:26:40.3	146.050	-0.090	0.690	0.690
2020/01/31 22:26:40.4	146.150	-0.130	0.760	0.700
2020/01/31 22:26:40.5	146.240	-0.170	0.820	0.700
2020/01/31 22:26:40.6	146.340	-0.210	0.880	0.700
2020/01/31 22:26:40.7	146.430	-0.240	0.920	0.710
2020/01/31 22:26:40.8	146.520	-0.270	0.970	0.710
2020/01/31 22:26:40.9	146.620	-0.300	1.000	0.710
2020/01/31 22:26:41.0	146.700	-0.330	1.030	0.710
2020/01/31 22:26:41.1	146.790	-0.360	1.050	0.710
2020/01/31 22:26:41.2	146.880	-0.380	1.060	0.710
2020/01/31 22:26:41.3	146.970	-0.400	1.060	0.720
2020/01/31 22:26:41.4	147.050	-0.410	1.060	0.720
2020/01/31 22:26:41.5	147.130	-0.420	1.040	0.720
2020/01/31 22:26:41.6	147.220	-0.430	1.020	0.720
2020/01/31 22:26:41.7	147.300	-0.430	0.990	0.720
2020/01/31 22:26:41.8	147.370	-0.430	0.950	0.720
2020/01/31 22:26:41.9	147.450	-0.420	0.900	0.720
2020/01/31 22:26:42.0	147.520	-0.410	0.840	0.720
2020/01/31 22:26:42.1	147.590	-0.390	0.770	0.720
2020/01/31 22:26:42.2	147.660	-0.380	0.700	0.720
2020/01/31 22:26:42.3	147.720	-0.350	0.620	0.730
2020/01/31 22:26:42.4	147.790	-0.330	0.530	0.730
2020/01/31 22:26:42.5	147.860	-0.300	0.440	0.730
2020/01/31 22:26:42.6	147.920	-0.260	0.340	0.730
2020/01/31 22:26:42.7	147.980	-0.220	0.230	0.730
2020/01/31 22:26:42.8	148.040	-0.180	0.120	0.740
2020/01/31 22:26:42.9	148.100	-0.140	0.010	0.740
2020/01/31 22:26:43.0	148.140	-0.100	-0.100	0.740
2020/01/31 22:26:43.1	148.200	-0.050	-0.220	0.750
2020/01/31 22:26:43.2	148.250	-0.010	-0.340	0.750
2020/01/31 22:26:43.3	148.310	0.040	-0.460	0.760
2020/01/31 22:26:43.4	148.360	0.090	-0.570	0.770
2020/01/31 22:26:43.5	148.410	0.140	-0.690	0.790
2020/01/31 22:26:43.6	148.450	0.190	-0.800	0.800
2020/01/31 22:26:43.7	148.500	0.240	-0.910	0.820
2020/01/31 22:26:43.8	148.540	0.290	-1.020	0.840
2020/01/31 22:26:43.9	148.590	0.330	-1.120	0.860
2020/01/31 22:26:44.0	148.620	0.380	-1.220	0.880
2020/01/31 22:26:44.1	148.660	0.420	-1.310	0.900
2020/01/31 22:26:44.2	148.700	0.460	-1.390	0.930
2020/01/31 22:26:44.3	148.740	0.500	-1.470	0.960
2020/01/31 22:26:44.4	148.770	0.530	-1.530	0.990
2020/01/31 22:26:44.5	148.810	0.570	-1.590	1.020
2020/01/31 22:26:44.6	148.840	0.600	-1.640	1.050
2020/01/31 22:26:44.7	148.870	0.620	-1.690	1.080
2020/01/31 22:26:44.8	148.900	0.650	-1.720	1.100
2020/01/31 22:26:44.9	148.930	0.660	-1.740	1.130
2020/01/31 22:26:45.0	148.960	0.680	-1.750	1.160
2020/01/31 22:26:45.1	148.990	0.690	-1.750	1.180
2020/01/31 22:26:45.2	149.020	0.700	-1.740	1.210
2020/01/31 22:26:45.3	149.060	0.700	-1.720	1.230
2020/01/31 22:26:45.4	149.090	0.700	-1.690	1.250
2020/01/31 22:26:45.5	149.120	0.690	-1.650	1.270
2020/01/31 22:26:45.6	149.160	0.690	-1.600	1.290
2020/01/31 22:26:45.7	149.190	0.670	-1.540	1.310
2020/01/31 22:26:45.8	149.230	0.660	-1.470	1.320
2020/01/31 22:26:45.9	149.270	0.640	-1.390	1.330
2020/01/31 22:26:46.0	149.300	0.610	-1.300	1.340
2020/01/31 22:26:46.1	149.340	0.590	-1.210	1.340
2020/01/31 22:26:46.2	149.390	0.560	-1.110	1.340
2020/01/31 22:26:46.3	149.440	0.520	-1.000	1.340
2020/01/31 22:26:46.4	149.490	0.490	-0.890	1.340
2020/01/31 22:26:46.5	149.540	0.450	-0.770	1.330
2020/01/31 22:26:46.6	149.600	0.410	-0.650	1.320
2020/01/31 22:26:46.7	149.660	0.370	-0.530	1.300
2020/01/31 22:26:46.8	149.730	0.320	-0.400	1.280
2020/01/31 22:26:46.9	149.790	0.280	-0.270	1.260
2020/01/31 22:26:47.0	149.880	0.230	-0.140	1.230
2020/01/31 22:26:47.1	149.960	0.180	-0.010	1.200
2020/01/31 22:26:47.2	150.040	0.130	0.130	1.170
2020/01/31 22:26:47.3	150.120	0.080	0.250	1.130
2020/01/31 22:26:47.4	150.210	0.030	0.380	1.100
2020/01/31 22:26:47.5	150.310	-0.030	0.500	1.060
2020/01/31 22:26:47.6	150.400	-0.080	0.620	1.010
2020/01/31 22:26:47.7	150.500	-0.130	0.740	0.960
2020/01/31 22:26:47.8	150.600	-0.180	0.840	0.920
2020/01/31 22:26:47.9	150.710	-0.230	0.940	0.860
2020/01/31 22:26:48.0	150.790	-0.280	1.040	0.810
2020/01/31 22:26:48.1	150.900	-0.330	1.120	0.760
2020/01/31 22:26:48.2	151.010	-0.370	1.200	0.700
2020/01/31 22:26:48.3	151.120	-0.420	1.260	0.650
2020/01/31 22:26:48.4	151.230	-0.460	1.310	0.590
2020/01/31 22:26:48.5	151.340	-0.500	1.360	0.540
2020/01/31 22:26:48.6	151.440	-0.530	1.390	0.480
2020/01/31 22:26:48.7	151.550	-0.560	1.410	0.420
2020/01/31 22:26:48.8	151.650	-0.590	1.410	0.370
2020/01/31 22:26:48.9	151.760	-0.620	1.410	0.320
2020/01/31 22:26:49.0	151.850	-0.640	1.390	0.260
2020/01/31 22:26:49.1	151.950	-0.650	1.360	0.210
2020/01/31 22:26:49.2	152.040	-0.670	1.320	0.160
2020/01/31 22:26:49.3	152.130	-0.680	1.270	0.120
2020/01/31 22:26:49.4	152.220	-0.680	1.210	0.080
2020/01/31 22:26:49.5	152.310	-0.680	1.140	0.040
2020/01/31 22:26:49.6	152.390	-0.680	1.070	0.000
2020/01/31 22:26:49.7	152.470	-0.680	0.980	-0.030
2020/01/31 22:26:49.8	152.550	-0.670	0.880	-0.060
2020/01/31 22:26:49.9	152.620	-0.650	0.780	-0.080
2020/01/31 22:26:50.0	152.700	-0.640	0.680	-0.110
2020/01/31 22:26:50.1	152.760	-0.620	0.570	-0.120
2020/01/31 22:26:50.2	152.830	-0.600	0.450	-0.130
2020/01/31 22:26:50.3	152.890	-0.570	0.330	-0.140
2020/01/31 22:26:50.4	152.950	-0.550	0.210	-0.150
2020/01/31 22:26:50.5	153.010	-0.520	0.090	-0.140
2020/01/31 22:26:50.6	153.070	-0.490	-0.030	-0.140
2020/01/31 22:26:50.7	153.120	-0.460	-0.150	-0.130
2020/01/31 22:26:50.8	153.180	-0.430	-0.260	-0.120
2020/01/31 22:26:50.9	153.230	-0.390	-0.380	-0.110
2020/01/31 22:26:51.0	153.290	-0.360	-0.480	-0.090
2020/01/31 22:26:51.1	153.340	-0.330	-0.580	-0.070
2020/01/31 22:26:51.2	153.400	-0.290	-0.680	-0.050
2020/01/31 22:26:51.3	153.460	-0.260	-0.760	-0.020
2020/01/31 22:26:51.4	153.520	-0.230	-0.840	0.000
2020/01/31 22:26:51.5	153.590	-0.200	-0.910	0.030
2020/01/31 22:26:51.6	153.650	-0.170	-0.970	0.060
2020/01/31 22:26:51.7	153.710	-0.140	-1.010	0.090
2020/01/31 22:26:51.8	153.780	-0.110	-1.050	0.120
2020/01/31 22:26:51.9	153.840	-0.080	-1.080	0.150
2020/01/31 22:26:52.0	153.900	-0.060	-1.100	0.190
2020/01/31 22:26:52.1	153.970	-0.030	-1.110	0.220
2020/01/31 22:26:52.2	154.040	-0.010	-1.110	0.250
2020/01/31 22:26:52.3	154.110	0.010	-1.090	0.280
2020/01/31 22:26:52.4	154.180	0.030	-1.070	0.310
2020/01/31 22:26:52.5	154.250	0.050	-1.050	0.340
2020/01/31 22:26:52.6	154.320	0.070	-1.010	0.370
2020/01/31 22:26:52.7	154.390	0.080	-0.970	0.400
2020/01/31 22:26:52.8	154.460	0.100	-0.930	0.430
2020/01/31 22:26:52.9	154.530	0.110	-0.880	0.460
2020/01/31 22:26:53.0	154.580	0.130	-0.820	0.480
2020/01/31 22:26:53.1	154.650	0.140	-0.770	0.510
2020/01/31 22:26:53.2	154.710	0.150	-0.710	0.540
2020/01/31 22:26:53.3	154.780	0.160	-0.660	0.570
2020/01/31 22:26:53.4	154.840	0.170	-0.600	0.600
2020/01/31 22:26:53.5	154.900	0.180	-0.550	0.620
2020/01/31 22:26:53.6	154.960	0.190	-0.500	0.650
2020/01/31 22:26:53.7	155.020	0.200	-0.450	0.680
2020/01/31 22:26:53.8	155.070	0.210	-0.410	0.700
2020/01/31 22:26:53.9	155.130	0.210	-0.370	0.730
2020/01/31 22:26:54.0	155.180	0.220	-0.340	0.750
2020/01/31 22:26:54.1	155.240	0.230	-0.310	0.780
2020/01/31 22:26:54.2	155.290	0.230	-0.290	0.800
2020/01/31 22:26:54.3	155.340	0.240	-0.270	0.820
2020/01/31 22:26:54.4	155.390	0.240	-0.260	0.840
2020/01/31 22:26:54.5	155.440	0.250	-0.250	0.850
2020/01/31 22:26:54.6	155.500	0.250	-0.250	0.870
2020/01/31 22:26:54.7	155.550	0.250	-0.250	0.880
2020/01/31 22:26:54.8	155.600	0.260	-0.250	0.890
2020/01/31 22:26:54.9	155.660	0.260	-0.260	0.890
2020/01/31 22:26:55.0	155.720	0.260	-0.270	0.900
2020/01/31 22:26:55.1	155.780	0.260	-0.280	0.900
2020/01/31 22:26:55.2	155.840	0.260	-0.300	0.900
2020/01/31 22:26:55.3	155.900	0.250	-0.310	0.900
2020/01/31 22:26:55.4	155.960	0.250	-0.320	0.890
2020/01/31 22:26:55.5	156.020	0.250	-0.330	0.880
2020/01/31 22:26:55.6	156.090	0.240	-0.340	0.870
2020/01/31 22:26:55.7	156.160	0.230	-0.350	0.860
2020/01/31 22:26:55.8	156.230	0.220	-0.360	0.850
2020/01/31 22:26:55.9	156.300	0.210	-0.360	0.830
2020/01/31 22:26:56.0	156.400	0.200	-0.360	0.820
2020/01/31 22:26:56.1	156.470	0.190	-0.360	0.800
2020/01/31 22:26:56.2	156.550	0.180	-0.350	0.790
2020/01/31 22:26:56.3	156.630	0.160	-0.340	0.780
2020/01/31 22:26:56.4	156.710	0.150	-0.330	0.770
2020/01/31 22:26:56.5	156.790	0.130	-0.310	0.760
2020/01/31 22:26:56.6	156.870	0.110	-0.290	0.750
2020/01/31 22:26:56.7	156.950	0.090	-0.260	0.740
2020/01/31 22:26:56.8	157.030	0.070	-0.230	0.740
2020/01/31 22:26:56.9	157.120	0.050	-0.200	0.740
2020/01/31 22:26:57.0	157.200	0.030	-0.170	0.740
2020/01/31 22:26:57.1	157.290	0.010	-0.130	0.740
2020/01/31 22:26:57.2	157.370	-0.010	-0.090	0.740
2020/01/31 22:26:57.3	157.460	-0.040	-0.040	0.750
2020/01/31 22:26:57.4	157.540	-0.060	0.010	0.750
2020/01/31 22:26:57.5	157.630	-0.080	0.060	0.760
2020/01/31 22:26:57.6	157.720	-0.100	0.110	0.760
2020/01/31 22:26:57.7	157.810	-0.130	0.160	0.770
2020/01/31 22:26:57.8	157.900	-0.150	0.210	0.780
2020/01/31 22:26:57.9	157.990	-0.170	0.270	0.790
2020/01/31 22:26:58.0	158.090	-0.190	0.320	0.790
2020/01/31 22:26:58.1	158.180	-0.210	0.370	0.800
2020/01/31 22:26:58.2	158.270	-0.230	0.430	0.800
2020/01/31 22:26:58.3	158.360	-0.240	0.480	0.810
2020/01/31 22:26:58.4	158.450	-0.260	0.520	0.810
2020/01/31 22:26:58.5	158.530	-0.270	0.570	0.820
2020/01/31 22:26:58.6	158.620	-0.280	0.610	0.820
2020/01/31 22:26:58.7	158.710	-0.290	0.640	0.820
2020/01/31 22:26:58.8	158.790	-0.290	0.680	0.820
2020/01/31 22:26:58.9	158.870	-0.290	0.700	0.830
2020/01/31 22:26:59.0	158.960	-0.290	0.730	0.820
2020/01/31 22:26:59.1	159.040	-0.290	0.740	0.820
2020/01/31 22:26:59.2	159.120	-0.280	0.750	0.820
2020/01/31 22:26:59.3	159.200	-0.270	0.750	0.820
2020/01/31 22:26:59.4	159.280	-0.260	0.750	0.810
2020/01/31 22:26:59.5	159.350	-0.240	0.740	0.810
2020/01/31 22:26:59.6	159.430	-0.220	0.720	0.800
2020/01/31 22:26:59.7	159.500	-0.200	0.690	0.790
2020/01/31 22:26:59.8	159.570	-0.170	0.660	0.790
2020/01/31 22:26:59.9	159.640	-0.150	0.620	0.780
2020/01/31 22:27:00.0	159.710	-0.110	0.580	0.760
2020/01/31 22:27:00.1	159.770	-0.080	0.530	0.760
2020/01/31 22:27:00.2	159.840	-0.040	0.470	0.750
2020/01/31 22:27:00.3	159.900	-0.000	0.420	0.740
2020/01/31 22:27:00.4	159.960	0.040	0.350	0.720
2020/01/31 22:27:00.5	160.030	0.080	0.280	0.720
2020/01/31 22:27:00.6	160.090	0.120	0.220	0.710
2020/01/31 22:27:00.7	160.150	0.170	0.140	0.700
2020/01/31 22:27:00.8	160.200	0.210	0.070	0.690
2020/01/31 22:27:00.9	160.260	0.260	-0.010	0.680
2020/01/31 22:27:01.0	160.320	0.300	-0.080	0.680
2020/01/31 22:27:01.1	160.380	0.350	-0.150	0.670
2020/01/31 22:27:01.2	160.440	0.390	-0.230	0.670
2020/01/31 22:27:01.3	160.500	0.430	-0.300	0.660
2020/01/31 22:27:01.4	160.550	0.470	-0.370	0.660
2020/01/31 22:27:01.5	160.610	0.510	-0.440	0.660
2020/01/31 22:27:01.6	160.670	0.540	-0.510	0.660
2020/01/31 22:27:01.7	160.730	0.570	-0.570	0.660
2020/01/31 22:27:01.8	160.800	0.600	-0.630	0.660
2020/01/31 22:27:01.9	160.860	0.620	-0.690	0.660
2020/01/31 22:27:02.0	160.930	0.640	-0.750	0.670
2020/01/31 22:27:02.1	160.990	0.660	-0.800	0.670
2020/01/31 22:27:02.2	161.060	0.670	-0.840	0.680
2020/01/31 22:27:02.3	161.120	0.670	-0.880	0.700
2020/01/31 22:27:02.4	161.190	0.680	-0.910	0.710
2020/01/31 22:27:02.5	161.260	0.670	-0.940	0.730
2020/01/31 22:27:02.6	161.330	0.660	-0.960	0.740
2020/01/31 22:27:02.7	161.400	0.650	-0.980	0.760
2020/01/31 22:27:02.8	161.470	0.630	-0.990	0.780
2020/01/31 22:27:02.9	161.540	0.610	-0.990	0.800
2020/01/31 22:27:03.0	161.620	0.580	-0.980	0.820
2020/01/31 22:27:03.1	161.690	0.550	-0.980	0.850
2020/01/31 22:27:03.2	161.760	0.510	-0.960	0.870
2020/01/31 22:27:03.3	161.840	0.470	-0.940	0.890
2020/01/31 22:27:03.4	161.920	0.430	-0.920	0.910
2020/01/31 22:27:03.5	161.990	0.390	-0.890	0.930
2020/01/31 22:27:03.6	162.070	0.340	-0.850	0.950
2020/01/31 22:27:03.7	162.150	0.300	-0.820	0.970
2020/01/31 22:27:03.8	162.230	0.250	-0.770	0.990
2020/01/31 22:27:03.9	162.300	0.200	-0.730	1.010
2020/01/31 22:27:04.0	162.390	0.150	-0.680	1.030
2020/01/31 22:27:04.1	162.470	0.100	-0.640	1.050
2020/01/31 22:27:04.2	162.550	0.050	-0.580	1.060
2020/01/31 22:27:04.3	162.630	-0.000	-0.530	1.080
2020/01/31 22:27:04.4	162.700	-0.050	-0.480	1.090
2020/01/31 22:27:04.5	162.780	-0.100	-0.430	1.100
2020/01/31 22:27:04.6	162.860	-0.140	-0.380	1.110
2020/01/31 22:27:04.7	162.940	-0.180	-0.330	1.120
2020/01/31 22:27:04.8	163.010	-0.230	-0.280	1.130
2020/01/31 22:27:04.9	163.090	-0.270	-0.240	1.140
2020/01/31 22:27:05.0	163.150	-0.300	-0.190	1.140
2020/01/31 22:27:05.1	163.230	-0.340	-0.160	1.150
2020/01/31 22:27:05.2	163.310	-0.370	-0.120	1.150
2020/01/31 22:27:05.3	163.390	-0.400	-0.090	1.160
2020/01/31 22:27:05.4	163.460	-0.420	-0.060	1.160
2020/01/31 22:27:05.5	163.540	-0.450	-0.040	1.160
2020/01/31 22:27:05.6	163.620	-0.470	-0.020	1.160
2020/01/31 22:27:05.7	163.690	-0.490	-0.000	1.170
2020/01/31 22:27:05.8	163.760	-0.500	0.010	1.170
2020/01/31 22:27:05.9	163.840	-0.510	0.010	1.170
2020/01/31 22:27:06.0	163.910	-0.520	0.010	1.170
2020/01/31 22:27:06.1	163.980	-0.530	0.010	1.170
2020/01/31 22:27:06.2	164.050	-0.530	0.010	1.170
2020/01/31 22:27:06.3	164.120	-0.530	-0.000	1.170
2020/01/31 22:27:06.4	164.190	-0.530	-0.010	1.170
2020/01/31 22:27:06.5	164.260	-0.520	-0.030	1.170
2020/01/31 22:27:06.6	164.330	-0.510	-0.040	1.170
2020/01/31 22:27:06.7	164.400	-0.500	-0.060	1.160
2020/01/31 22:27:06.8	164.470	-0.490	-0.080	1.160
2020/01/31 22:27:06.9	164.540	-0.470	-0.110	1.150
2020/01/31 22:27:07.0	164.600	-0.450	-0.130	1.140
2020/01/31 22:27:07.1	164.670	-0.430	-0.150	1.130
2020/01/31 22:27:07.2	164.730	-0.410	-0.180	1.120
2020/01/31 22:27:07.3	164.800	-0.390	-0.200	1.110
2020/01/31 22:27:07.4	164.860	-0.370	-0.220	1.100
2020/01/31 22:27:07.5	164.920	-0.340	-0.250	1.090
2020/01/31 22:27:07.6	164.990	-0.310	-0.270	1.080
2020/01/31 22:27:07.7	165.040	-0.290	-0.300	1.070
2020/01/31 22:27:07.8	165.100	-0.260	-0.320	1.060
2020/01/31 22:27:07.9	165.160	-0.230	-0.340	1.050
2020/01/31 22:27:08.0	165.200	-0.200	-0.360	1.040
2020/01/31 22:27:08.1	165.260	-0.180	-0.380	1.030
2020/01/31 22:27:08.2	165.310	-0.150	-0.400	1.030
2020/01/31 22:27:08.3	165.360	-0.120	-0.420	1.030
2020/01/31 22:27:08.4	165.410	-0.100	-0.430	1.030
2020/01/31 22:27:08.5	165.460	-0.070	-0.440	1.030
2020/01/31 22:27:08.6	165.510	-0.050	-0.450	1.030
2020/01/31 22:27:08.7	165.560	-0.020	-0.450	1.030
2020/01/31 22:27:08.8	165.610	-0.000	-0.450	1.030
2020/01/31 22:27:08.9	165.660	0.020	-0.450	1.040
2020/01/31 22:27:09.0	165.700	0.030	-0.440	1.050
2020/01/31 22:27:09.1	165.750	0.050	-0.420	1.050
2020/01/31 22:27:09.2	165.810	0.060	-0.400	1.050
2020/01/31 22:27:09.3	165.870	0.070	-0.380	1.050
2020/01/31 22:27:09.4	165.930	0.080	-0.340	1.050
2020/01/31 22:27:09.5	165.990	0.090	-0.300	1.050
2020/01/31 22:27:09.6	166.060	0.100	-0.260	1.040
2020/01/31 22:27:09.7	166.140	0.100	-0.200	1.030
2020/01/31 22:27:09.8	166.210	0.100	-0.150	1.020
2020/01/31 22:27:09.9	166.290	0.100	-0.080	1.000
2020/01/31 22:27:10.0	166.380	0.100	-0.020	0.980
2020/01/31 22:27:10.1	166.470	0.090	0.060	0.950
2020/01/31 22:27:10.2	166.560	0.080	0.130	0.920
2020/01/31 22:27:10.3	166.660	0.070	0.210	0.890
2020/01/31 22:27:10.4	166.760	0.060	0.290	0.850
2020/01/31 22:27:10.5	166.860	0.050	0.380	0.800
2020/01/31 22:27:10.6	166.960	0.040	0.460	0.750
2020/01/31 22:27:10.7	167.070	0.020	0.540	0.700
2020/01/31 22:27:10.8	167.180	0.010	0.620	0.650
2020/01/31 22:27:10.9	167.290	-0.010	0.700	0.590
2020/01/31 22:27:11.0	167.400	-0.030	0.770	0.530
2020/01/31 22:27:11.1	167.510	-0.040	0.840	0.470
2020/01/31 22:27:11.2	167.630	-0.060	0.900	0.400
2020/01/31 22:27:11.3	167.740	-0.070	0.950	0.340
2020/01/31 22:27:11.4	167.860	-0.090	1.000	0.280
2020/01/31 22:27:11.5	167.970	-0.100	1.030	0.220
2020/01/31 22:27:11.6	168.090	-0.120	1.060	0.160
2020/01/31 22:27:11.7	168.190	-0.130	1.070	0.100
2020/01/31 22:27:11.8	168.300	-0.140	1.080	0.040
2020/01/31 22:27:11.9	168.410	-0.140	1.070	-0.010
2020/01/31 22:27:12.0	168.510	-0.150	1.050	-0.060
2020/01/31 22:27:12.1	168.610	-0.150	1.020	-0.100
2020/01/31 22:27:12.2	168.700	-0.150	0.980	-0.140
2020/01/31 22:27:12.3	168.790	-0.140	0.930	-0.170
2020/01/31 22:27:12.4	168.870	-0.140	0.870	-0.190
2020/01/31 22:27:12.5	168.950	-0.130	0.800	-0.210
2020/01/31 22:27:12.6	169.030	-0.110	0.720	-0.230
2020/01/31 22:27:12.7	169.100	-0.100	0.630	-0.240
2020/01/31 22:27:12.8	169.160	-0.080	0.540	-0.240
2020/01/31 22:27:12.9	169.220	-0.060	0.430	-0.230
2020/01/31 22:27:13.0	169.250	-0.030	0.330	-0.220
2020/01/31 22:27:13.1	169.310	-0.010	0.220	-0.210
2020/01/31 22:27:13.2	169.350	0.020	0.100	-0.180
2020/01/31 22:27:13.3	169.400	0.050	-0.020	-0.160
2020/01/31 22:27:13.4	169.440	0.080	-0.140	-0.120
2020/01/31 22:27:13.5	169.480	0.110	-0.260	-0.090
2020/01/31 22:27:13.6	169.510	0.140	-0.380	-0.040
2020/01/31 22:27:13.7	169.550	0.170	-0.500	0.000
2020/01/31 22:27:13.8	169.580	0.200	-0.610	0.050
2020/01/31 22:27:13.9	169.610	0.240	-0.720	0.100
2020/01/31 22:27:14.0	169.640	0.270	-0.820	0.160
2020/01/31 22:27:14.1	169.670	0.300	-0.920	0.220
2020/01/31 22:27:14.2	169.700	0.330	-1.010	0.280
2020/01/31 22:27:14.3	169.730	0.350	-1.090	0.340
2020/01/31 22:27:14.4	169.760	0.380	-1.160	0.400
2020/01/31 22:27:14.5	169.790	0.400	-1.230	0.460
2020/01/31 22:27:14.6	169.830	0.420	-1.290	0.520
2020/01/31 22:27:14.7	169.860	0.440	-1.330	0.590
2020/01/31 22:27:14.8	169.900	0.460	-1.370	0.650
2020/01/31 22:27:14.9	169.950	0.470	-1.390	0.710
2020/01/31 22:27:15.0	170.000	0.480	-1.400	0.770
2020/01/31 22:27:15.1	170.050	0.490	-1.410	0.820
2020/01/31 22:27:15.2	170.100	0.500	-1.400	0.870
2020/01/31 22:27:15.3	170.150	0.500	-1.390	0.920
2020/01/31 22:27:15.4	170.210	0.500	-1.370	0.970
2020/01/31 22:27:15.5	170.270	0.500	-1.330	1.010
2020/01/31 22:27:15.6	170.330	0.490	-1.290	1.050
2020/01/31 22:27:15.7	170.400	0.480	-1.240	1.090
2020/01/31 22:27:15.8	170.470	0.470	-1.190	1.120
2020/01/31 22:27:15.9	170.550	0.460	-1.130	1.140
2020/01/31 22:27:16.0	170.610	0.440	-1.070	1.170
2020/01/31 22:27:16.1	170.690	0.420	-1.000	1.190
2020/01/31 22:27:16.2	170.770	0.400	-0.930	1.200
2020/01/31 22:27:16.3	170.850	0.380	-0.850	1.210
2020/01/31 22:27:16.4	170.940	0.360	-0.780	1.220
2020/01/31 22:27:16.5	171.020	0.340	-0.700	1.220
2020/01/31 22:27:16.6	171.110	0.310	-0.620	1.220
2020/01/31 22:27:16.7	171.190	0.290	-0.550	1.220
2020/01/31 22:27:16.8	171.280	0.260	-0.470	1.220
2020/01/31 22:27:16.9	171.360	0.230	-0.400	1.210
2020/01/31 22:27:17.0	171.460	0.210	-0.330	1.190
2020/01/31 22:27:17.1	171.550	0.180	-0.270	1.180
2020/01/31 22:27:17.2	171.630	0.150	-0.210	1.170
2020/01/31 22:27:17.3	171.720	0.120	-0.160	1.160
2020/01/31 22:27:17.4	171.800	0.100	-0.110	1.140
2020/01/31 22:27:17.5	171.880	0.070	-0.070	1.120
2020/01/31 22:27:17.6	171.960	0.040	-0.030	1.110
2020/01/31 22:27:17.7	172.040	0.010	0.000	1.090
2020/01/31 22:27:17.8	172.120	-0.010	0.030	1.070
2020/01/31 22:27:17.9	172.200	-0.040	0.050	1.050
2020/01/31 22:27:18.0	172.280	-0.060	0.060	1.040
2020/01/31 22:27:18.1	172.360	-0.090	0.070	1.020
2020/01/31 22:27:18.2	172.430	-0.110	0.080	1.000
2020/01/31 22:27:18.3	172.500	-0.140	0.080	0.980
2020/01/31 22:27:18.4	172.570	-0.160	0.080	0.970
2020/01/31 22:27:18.5	172.640	-0.180	0.070	0.950
2020/01/31 22:27:18.6	172.700	-0.200	0.060	0.940
2020/01/31 22:27:18.7	172.760	-0.230	0.050	0.920
2020/01/31 22:27:18.8	172.830	-0.250	0.040	0.910
2020/01/31 22:27:18.9	172.890	-0.270	0.030	0.900
2020/01/31 22:27:19.0	172.950	-0.290	0.020	0.890
2020/01/31 22:27:19.1	173.010	-0.300	0.010	0.880
2020/01/31 22:27:19.2	173.070	-0.320	-0.010	0.870
2020/01/31 22:27:19.3	173.130	-0.340	-0.020	0.860
2020/01/31 22:27:19.4	173.180	-0.350	-0.030	0.860
2020/01/31 22:27:19.5	173.230	-0.370	-0.040	0.860
2020/01/31 22:27:19.6	173.290	-0.380	-0.040	0.860
2020/01/31 22:27:19.7	173.340	-0.400	-0.040	0.850
2020/01/31 22:27:19.8	173.390	-0.410	-0.040	0.850
2020/01/31 22:27:19.9	173.440	-0.420	-0.040	0.850
2020/01/31 22:27:20.0	173.500	-0.430	-0.030	0.850
2020/01/31 22:27:20.1	173.550	-0.440	-0.020	0.850
2020/01/31 22:27:20.2	173.600	-0.450	0.000	0.850
2020/01/31 22:27:20.3	173.650	-0.450	0.020	0.850
2020/01/31 22:27:20.4	173.700	-0.460	0.050	0.840
2020/01/31 22:27:20.5	173.750	-0.460	0.080	0.840
2020/01/31 22:27:20.6	173.800	-0.470	0.110	0.830
2020/01/31 22:27:20.7	173.850	-0.470	0.150	0.830
2020/01/31 22:27:20.8	173.900	-0.470	0.190	0.820
2020/01/31 22:27:20.9	173.960	-0.470	0.230	0.810
2020/01/31 22:27:21.0	174.020	-0.470	0.280	0.800
2020/01/31 22:27:21.1	174.080	-0.470	0.320	0.780
2020/01/31 22:27:21.2	174.130	-0.460	0.370	0.770
2020/01/31 22:27:21.3	174.190	-0.450	0.410	0.760
2020/01/31 22:27:21.4	174.250	-0.450	0.450	0.740
2020/01/31 22:27:21.5	174.300	-0.440	0.490	0.720
2020/01/31 22:27:21.6	174.360	-0.430	0.530	0.710
2020/01/31 22:27:21.7	174.420	-0.410	0.560	0.690
2020/01/31 22:27:21.8	174.480	-0.400	0.590	0.670
2020/01/31 22:27:21.9	174.530	-0.380	0.610	0.650
2020/01/31 22:27:22.0	174.600	-0.370	0.630	0.630
2020/01/31 22:27:22.1	174.660	-0.350	0.650	0.620
2020/01/31 22:27:22.2	174.710	-0.330	0.650	0.600
2020/01/31 22:27:22.3	174.770	-0.300	0.650	0.580
2020/01/31 22:27:22.4	174.820	-0.280	0.640	0.560
2020/01/31 22:27:22.5	174.870	-0.250	0.620	0.540
2020/01/31 22:27:22.6	174.930	-0.220	0.590	0.520
2020/01/31 22:27:22.7	174.980	-0.190	0.560	0.500
2020/01/31 22:27:22.8	175.030	-0.160	0.520	0.480
2020/01/31 22:27:22.9	175.080	-0.130	0.480	0.450
2020/01/31 22:27:23.0	175.130	-0.090	0.420	0.430
2020/01/31 22:27:23.1	175.180	-0.060	0.360	0.400
2020/01/31 22:27:23.2	175.230	-0.020	0.300	0.380
2020/01/31 22:27:23.3	175.280	0.020	0.230	0.350
2020/01/31 22:27:23.4	175.330	0.060	0.160	0.320
2020/01/31 22:27:23.5	175.380	0.090	0.080	0.290
2020/01/31 22:27:23.6	175.440	0.130	0.010	0.260
2020/01/31 22:27:23.7	175.490	0.170	-0.070	0.230
2020/01/31 22:27:23.8	175.540	0.200	-0.150	0.200
2020/01/31 22:27:23.9	175.590	0.240	-0.230	0.170
2020/01/31 22:27:24.0	175.640	0.280	-0.310	0.130
2020/01/31 22:27:24.1	175.700	0.310	-0.390	0.100
2020/01/31 22:27:24.2	175.750	0.340	-0.460	0.080
2020/01/31 22:27:24.3	175.800	0.370	-0.540	0.050
2020/01/31 22:27:24.4	175.850	0.400	-0.610	0.030
2020/01/31 22:27:24.5	175.900	0.430	-0.680	0.010
2020/01/31 22:27:24.6	175.950	0.460	-0.750	-0.010
2020/01/31 22:27:24.7	175.990	0.480	-0.810	-0.030
2020/01/31 22:27:24.8	176.040	0.500	-0.870	-0.040
2020/01/31 22:27:24.9	176.080	0.520	-0.930	-0.050
2020/01/31 22:27:25.0	176.130	0.530	-0.980	-0.050
2020/01/31 22:27:25.1	176.170	0.550	-1.020	-0.050
2020/01/31 22:27:25.2	176.210	0.560	-1.050	-0.050
2020/01/31 22:27:25.3	176.250	0.560	-1.080	-0.050
2020/01/31 22:27:25.4	176.290	0.570	-1.100	-0.050
2020/01/31 22:27:25.5	176.330	0.570	-1.120	-0.040
2020/01/31 22:27:25.6	176.360	0.560	-1.120	-0.030
2020/01/31 22:27:25.7	176.400	0.560	-1.120	-0.020
2020/01/31 22:27:25.8	176.440	0.550	-1.110	-0.010
2020/01/31 22:27:25.9	176.480	0.530	-1.090	-0.000
2020/01/31 22:27:26.0	176.510	0.520	-1.070	0.010
2020/01/31 22:27:26.1	176.550	0.500	-1.040	0.020
2020/01/31 22:27:26.2	176.600	0.480	-1.000	0.030
2020/01/31 22:27:26.3	176.640	0.460	-0.950	0.040
2020/01/31 22:27:26.4	176.680	0.430	-0.900	0.050
2020/01/31 22:27:26.5	176.730	0.400	-0.840	0.060
2020/01/31 22:27:26.6	176.770	0.370	-0.780	0.070
2020/01/31 22:27:26.7	176.820	0.340	-0.710	0.080
2020/01/31 22:27:26.8	176.870	0.310	-0.640	0.090
2020/01/31 22:27:26.9	176.920	0.280	-0.570	0.090
2020/01/31 22:27:27.0	176.980	0.240	-0.500	0.110
2020/01/31 22:27:27.1	177.020	0.210	-0.430	0.110
2020/01/31 22:27:27.2	177.070	0.170	-0.360	0.120
2020/01/31 22:27:27.3	177.120	0.140	-0.290	0.120
2020/01/31 22:27:27.4	177.170	0.100	-0.220	0.130
2020/01/31 22:27:27.5	177.220	0.070	-0.160	0.140
2020/01/31 22:27:27.6	177.260	0.040	-0.100	0.140
2020/01/31 22:27:27.7	177.310	0.010	-0.040	0.150
2020/01/31 22:27:27.8	177.350	-0.020	0.010	0.150
2020/01/31 22:27:27.9	177.400	-0.050	0.060	0.160
2020/01/31 22:27:28.0	177.440	-0.080	0.110	0.150
2020/01/31 22:27:28.1	177.480	-0.100	0.140	0.160
2020/01/31 22:27:28.2	177.520	-0.120	0.170	0.160
2020/01/31 22:27:28.3	177.560	-0.140	0.200	0.170
2020/01/31 22:27:28.4	177.590	-0.160	0.220	0.170
2020/01/31 22:27:28.5	177.630	-0.170	0.230	0.180
2020/01/31 22:27:28.6	177.660	-0.190	0.240	0.180
2020/01/31 22:27:28.7	177.690	-0.200	0.240	0.190
2020/01/31 22:27:28.8	177.720	-0.200	0.240	0.200
2020/01/31 22:27:28.9	177.750	-0.210	0.240	0.200
2020/01/31 22:27:29.0	177.760	-0.220	0.230	0.220
2020/01/31 22:27:29.1	177.790	-0.220	0.210	0.230
2020/01/31 22:27:29.2	177.810	-0.220	0.200	0.240
2020/01/31 22:27:29.3	177.840	-0.220	0.180	0.250
2020/01/31 22:27:29.4	177.860	-0.220	0.150	0.260
2020/01/31 22:27:29.5	177.880	-0.220	0.130	0.280
2020/01/31 22:27:29.6	177.910	-0.220	0.100	0.300
2020/01/31 22:27:29.7	177.930	-0.220	0.080	0.320
2020/01/31 22:27:29.8	177.950	-0.210	0.050	0.340
2020/01/31 22:27:29.9	177.970	-0.210	0.020	0.370
2020/01/31 22:27:30.0	178.000	-0.210	-0.010	0.390
2020/01/31 22:27:30.1	178.020	-0.210	-0.030	0.420
2020/01/31 22:27:30.2	178.040	-0.200	-0.060	0.450
2020/01/31 22:27:30.3	178.060	-0.200	-0.080	0.490
2020/01/31 22:27:30.4	178.080	-0.200	-0.100	0.520
2020/01/31 22:27:30.5	178.100	-0.200	-0.120	0.550
2020/01/31 22:27:30.6	178.120	-0.200	-0.130	0.590
2020/01/31 22:27:30.7	178.150	-0.210	-0.150	0.620
2020/01/31 22:27:30.8	178.170	-0.210	-0.150	0.660
2020/01/31 22:27:30.9	178.200	-0.210	-0.160	0.690
2020/01/31 22:27:31.0	178.220	-0.220	-0.160	0.730
2020/01/31 22:27:31.1	178.250	-0.230	-0.160	0.770
2020/01/31 22:27:31.2	178.280	-0.230	-0.150	0.800
2020/01/31 22:27:31.3	178.310	-0.240	-0.130	0.830
2020/01/31 22:27:31.4	178.350	-0.250	-0.120	0.860
2020/01/31 22:27:31.5	178.380	-0.260	-0.100	0.880
2020/01/31 22:27:31.6	178.420	-0.270	-0.080	0.910
2020/01/31 22:27:31.7	178.460	-0.280	-0.060	0.930
2020/01/31 22:27:31.8	178.500	-0.290	-0.030	0.950
2020/01/31 22:27:31.9	178.540	-0.300	-0.000	0.970
2020/01/31 22:27:32.0	178.570	-0.310	0.030	0.990
2020/01/31 22:27:32.1	178.610	-0.330	0.060	1.000
2020/01/31 22:27:32.2	178.650	-0.340	0.090	1.020
2020/01/31 22:27:32.3	178.690	-0.350	0.110	1.030
2020/01/31 22:27:32.4	178.730	-0.360	0.140	1.040
2020/01/31 22:27:32.5	178.770	-0.370	0.160	1.050
2020/01/31 22:27:32.6	178.810	-0.370	0.190	1.050
2020/01/31 22:27:32.7	178.850	-0.380	0.210	1.050
2020/01/31 22:27:32.8	178.890	-0.390	0.230	1.050
2020/01/31 22:27:32.9	178.930	-0.390	0.250	1.050
2020/01/31 22:27:33.0	178.980	-0.390	0.260	1.050
2020/01/31 22:27:33.1	179.010	-0.390	0.270	1.040
2020/01/31 22:27:33.2	179.050	-0.390	0.270	1.030
2020/01/31 22:27:33.3	179.090	-0.390	0.280	1.020
2020/01/31 22:27:33.4	179.120	-0.380	0.280	1.010
2020/01/31 22:27:33.5	179.150	-0.370	0.270	0.990
2020/01/31 22:27:33.6	179.190	-0.360	0.260	0.970
2020/01/31 22:27:33.7	179.220	-0.340	0.250	0.960
2020/01/31 22:27:33.8	179.250	-0.320	0.230	0.940
2020/01/31 22:27:33.9	179.280	-0.300	0.210	0.910
2020/01/31 22:27:34.0	179.300	-0.270	0.180	0.890
2020/01/31 22:27:34.1	179.330	-0.250	0.150	0.870
2020/01/31 22:27:34.2	179.350	-0.210	0.110	0.850
2020/01/31 22:27:34.3	179.380	-0.180	0.070	0.820
2020/01/31 22:27:34.4	179.400	-0.140	0.030	0.800
2020/01/31 22:27:34.5	179.420	-0.100	-0.020	0.770
2020/01/31 22:27:34.6	179.430	-0.050	-0.080	0.750
2020/01/31 22:27:34.7	179.450	-0.010	-0.130	0.730
2020/01/31 22:27:34.8	179.460	0.040	-0.190	0.700
2020/01/31 22:27:34.9	179.470	0.100	-0.260	0.680
2020/01/31 22:27:35.0	179.470	0.150	-0.320	0.650
2020/01/31 22:27:35.1	179.470	0.200	-0.390	0.630
2020/01/31 22:27:35.2	179.480	0.260	-0.460	0.600
2020/01/31 22:27:35.3	179.480	0.320	-0.520	0.580
2020/01/31 22:27:35.4	179.480	0.370	-0.590	0.560
2020/01/31 22:27:35.5	179.480	0.430	-0.660	0.540
2020/01/31 22:27:35.6	179.470	0.480	-0.720	0.520
2020/01/31 22:27:35.7	179.470	0.530	-0.790	0.500
2020/01/31 22:27:35.8	179.470	0.580	-0.840	0.480
2020/01/31 22:27:35.9	179.460	0.630	-0.900	0.460
2020/01/31 22:27:36.0	179.450	0.670	-0.950	0.440
2020/01/31 22:27:36.1	179.440	0.710	-0.990	0.420
2020/01/31 22:27:36.2	179.440	0.750	-1.020	0.400
2020/01/31 22:27:36.3	179.430	0.780	-1.050	0.390
2020/01/31 22:27:36.4	179.430	0.810	-1.080	0.370
2020/01/31 22:27:36.5	179.430	0.830	-1.090	0.350
2020/01/31 22:27:36.6	179.430	0.840	-1.090	0.330
2020/01/31 22:27:36.7	179.430	0.850	-1.090	0.310
2020/01/31 22:27:36.8	179.430	0.860	-1.080	0.290
2020/01/31 22:27:36.9	179.430	0.850	-1.060	0.270
2020/01/31 22:27:37.0	179.430	0.840	-1.030	0.240
2020/01/31 22:27:37.1	179.440	0.830	-1.000	0.220
2020/01/31 22:27:37.2	179.450	0.810	-0.950	0.200
2020/01/31 22:27:37.3	179.470	0.780	-0.900	0.170
2020/01/31 22:27:37.4	179.490	0.750	-0.840	0.150
2020/01/31 22:27:37.5	179.510	0.710	-0.770	0.120
2020/01/31 22:27:37.6	179.530	0.670	-0.700	0.100
2020/01/31 22:27:37.7	179.560	0.620	-0.620	0.070
2020/01/31 22:27:37.8	179.590	0.570	-0.540	0.040
2020/01/31 22:27:37.9	179.620	0.520	-0.450	0.010
2020/01/31 22:27:38.0	179.670	0.460	-0.360	-0.020
2020/01/31 22:27:38.1	179.700	0.400	-0.260	-0.050
2020/01/31 22:27:38.2	179.740	0.330	-0.170	-0.080
2020/01/31 22:27:38.3	179.780	0.270	-0.080	-0.100
2020/01/31 22:27:38.4	179.820	0.200	0.020	-0.130
2020/01/31 22:27:38.5	179.870	0.130	0.100	-0.150
2020/01/31 22:27:38.6	179.910	0.060	0.190	-0.170
2020/01/31 22:27:38.7	179.950	-0.010	0.270	-0.190
2020/01/31 22:27:38.8	179.990	-0.070	0.350	-0.210
2020/01/31 22:27:38.9	180.040	-0.140	0.420	-0.220
2020/01/31 22:27:39.0	180.080	-0.200	0.480	-0.230
2020/01/31 22:27:39.1	180.120	-0.270	0.540	-0.240
2020/01/31 22:27:39.2	180.160	-0.330	0.590	-0.240
2020/01/31 22:27:39.3	180.200	-0.380	0.630	-0.250
2020/01/31 22:27:39.4	180.230	-0.440	0.670	-0.240
2020/01/31 22:27:39.5	180.270	-0.490	0.700	-0.240
2020/01/31 22:27:39.6	180.310	-0.530	0.720	-0.230
2020/01/31 22:27:39.7	180.340	-0.580	0.730	-0.210
2020/01/31 22:27:39.8	180.380	-0.620	0.730	-0.200
2020/01/31 22:27:39.9	180.410	-0.650	0.720	-0.180
2020/01/31 22:27:40.0	180.430	-0.680	0.720	-0.160
2020/01/31 22:27:40.1	180.460	-0.710	0.690	-0.130
2020/01/31 22:27:40.2	180.480	-0.730	0.670	-0.100
2020/01/31 22:27:40.3	180.510	-0.740	0.630	-0.070
2020/01/31 22:27:40.4	180.530	-0.750	0.590	-0.030
2020/01/31 22:27:40.5	180.560	-0.760	0.540	0.010
2020/01/31 22:27:40.6	180.580	-0.760	0.490	0.050
2020/01/31 22:27:40.7	180.590	-0.760	0.430	0.100
2020/01/31 22:27:40.8	180.610	-0.750	0.370	0.150
2020/01/31 22:27:40.9	180.620	-0.740	0.300	0.210
2020/01/31 22:27:41.0	180.630	-0.730	0.230	0.270
2020/01/31 22:27:41.1	180.640	-0.710	0.160	0.330
2020/01/31 22:27:41.2	180.650	-0.690	0.090	0.390
2020/01/31 22:27:41.3	180.650	-0.670	0.020	0.460
2020/01/31 22:27:41.4	180.650	-0.640	-0.050	0.520
2020/01/31 22:27:41.5	180.650	-0.610	-0.110	0.590
2020/01/31 22:27:41.6	180.650	-0.580	-0.180	0.650
2020/01/31 22:27:41.7	180.650	-0.540	-0.240	0.720
2020/01/31 22:27:41.8	180.650	-0.500	-0.300	0.790
2020/01/31 22:27:41.9	180.650	-0.470	-0.350	0.850
2020/01/31 22:27:42.0	180.640	-0.430	-0.400	0.920
2020/01/31 22:27:42.1	180.630	-0.390	-0.440	0.990
2020/01/31 22:27:42.2	180.630	-0.340	-0.480	1.050
2020/01/31 22:27:42.3	180.620	-0.300	-0.510	1.110
2020/01/31 22:27:42.4	180.620	-0.260	-0.530	1.170
2020/01/31 22:27:42.5	180.610	-0.220	-0.550	1.230
2020/01/31 22:27:42.6	180.610	-0.180	-0.560	1.280
2020/01/31 22:27:42.7	180.600	-0.130	-0.570	1.330
2020/01/31 22:27:42.8	180.600	-0.090	-0.570	1.380
2020/01/31 22:27:42.9	180.600	-0.050	-0.560	1.420
2020/01/31 22:27:43.0	180.600	-0.010	-0.560	1.470
2020/01/31 22:27:43.1	180.600	0.020	-0.540	1.500
2020/01/31 22:27:43.2	180.600	0.060	-0.520	1.540
2020/01/31 22:27:43.3	180.600	0.090	-0.500	1.570
2020/01/31 22:27:43.4	180.610	0.130	-0.470	1.590
2020/01/31 22:27:43.5	180.610	0.160	-0.440	1.610
2020/01/31 22:27:43.6	180.620	0.190	-0.410	1.630
2020/01/31 22:27:43.7	180.620	0.220	-0.370	1.640
2020/01/31 22:27:43.8	180.630	0.240	-0.340	1.650
2020/01/31 22:27:43.9	180.640	0.270	-0.300	1.650
2020/01/31 22:27:44.0	180.640	0.290	-0.270	1.650
2020/01/31 22:27:44.1	180.650	0.310	-0.230	1.650
2020/01/31 22:27:44.2	180.660	0.320	-0.200	1.640
2020/01/31 22:27:44.3	180.670	0.340	-0.170	1.630
2020/01/31 22:27:44.4	180.680	0.350	-0.150	1.620
2020/01/31 22:27:44.5	180.690	0.370	-0.130	1.610
2020/01/31 22:27:44.6	180.700	0.380	-0.110	1.590
2020/01/31 22:27:44.7	180.710	0.390	-0.090	1.570
2020/01/31 22:27:44.8	180.720	0.390	-0.080	1.550
2020/01/31 22:27:44.9	180.730	0.400	-0.080	1.520
2020/01/31 22:27:45.0	180.730	0.400	-0.080	1.490
2020/01/31 22:27:45.1	180.740	0.400	-0.090	1.460
2020/01/31 22:27:45.2	180.750	0.410	-0.100	1.440
2020/01/31 22:27:45.3	180.760	0.410	-0.110	1.400
2020/01/31 22:27:45.4	180.760	0.400	-0.130	1.370
2020/01/31 22:27:45.5	180.770	0.400	-0.150	1.340
2020/01/31 22:27:45.6	180.770	0.400	-0.180	1.310
2020/01/31 22:27:45.7	180.780	0.390	-0.210	1.270
2020/01/31 22:27:45.8	180.780	0.380	-0.240	1.240
2020/01/31 22:27:45.9	180.790	0.370	-0.280	1.200
2020/01/31 22:27:46.0	180.800	0.360	-0.310	1.160
2020/01/31 22:27:46.1	180.800	0.350	-0.350	1.120
2020/01/31 22:27:46.2	180.810	0.340	-0.390	1.080
2020/01/31 22:27:46.3	180.820	0.320	-0.430	1.040
2020/01/31 22:27:46.4	180.830	0.310	-0.460	1.000
2020/01/31 22:27:46.5	180.840	0.290	-0.500	0.960
2020/01/31 22:27:46.6	180.850	0.280	-0.530	0.920
2020/01/31 22:27:46.7	180.870	0.260	-0.560	0.880
2020/01/31 22:27:46.8	180.880	0.240	-0.590	0.840
2020/01/31 22:27:46.9	180.900	0.220	-0.610	0.790
2020/01/31 22:27:47.0	180.920	0.200	-0.630	0.750
2020/01/31 22:27:47.1	180.950	0.180	-0.650	0.710
2020/01/31 22:27:47.2	180.970	0.150	-0.660	0.660
2020/01/31 22:27:47.3	181.000	0.130	-0.660	0.620
2020/01/31 22:27:47.4	181.020	0.110	-0.660	0.580
2020/01/31 22:27:47.5	181.050	0.090	-0.650	0.530
2020/01/31 22:27:47.6	181.080	0.060	-0.640	0.490
2020/01/31 22:27:47.7	181.110	0.040	-0.620	0.450
2020/01/31 22:27:47.8	181.140	0.020	-0.600	0.400
2020/01/31 22:27:47.9	181.170	0.000	-0.570	0.360
2020/01/31 22:27:48.0	181.200	-0.020	-0.540	0.320
2020/01/31 22:27:48.1	181.230	-0.040	-0.510	0.280
2020/01/31 22:27:48.2	181.260	-0.060	-0.470	0.240
2020/01/31 22:27:48.3	181.290	-0.070	-0.420	0.200
2020/01/31 22:27:48.4	181.320	-0.090	-0.380	0.170
2020/01/31 22:27:48.5	181.340	-0.100	-0.330	0.130
2020/01/31 22:27:48.6	181.370	-0.110	-0.280	0.100
2020/01/31 22:27:48.7	181.400	-0.120	-0.230	0.070
2020/01/31 22:27:48.8	181.420	-0.130	-0.170	0.040
2020/01/31 22:27:48.9	181.450	-0.140	-0.120	0.010
2020/01/31 22:27:49.0	181.480	-0.150	-0.070	-0.010
2020/01/31 22:27:49.1	181.500	-0.150	-0.010	-0.040
2020/01/31 22:27:49.2	181.520	-0.150	0.040	-0.070
2020/01/31 22:27:49.3	181.540	-0.150	0.090	-0.090
2020/01/31 22:27:49.4	181.560	-0.160	0.140	-0.120
2020/01/31 22:27:49.5	181.580	-0.150	0.190	-0.150
2020/01/31 22:27:49.6	181.610	-0.150	0.240	-0.170
2020/01/31 22:27:49.7	181.630	-0.150	0.280	-0.200
2020/01/31 22:27:49.8	181.650	-0.150	0.320	-0.220
2020/01/31 22:27:49.9	181.670	-0.140	0.360	-0.250
2020/01/31 22:27:50.0	181.680	-0.140	0.400	-0.280
2020/01/31 22:27:50.1	181.700	-0.130	0.430	-0.300
2020/01/31 22:27:50.2	181.710	-0.130	0.460	-0.320
2020/01/31 22:27:50.3	181.730	-0.120	0.480	-0.350
2020/01/31 22:27:50.4	181.750	-0.110	0.500	-0.370
2020/01/31 22:27:50.5	181.760	-0.110	0.520	-0.390
2020/01/31 22:27:50.6	181.780	-0.100	0.530	-0.410
2020/01/31 22:27:50.7	181.790	-0.090	0.540	-0.430
2020/01/31 22:27:50.8	181.800	-0.080	0.550	-0.440
2020/01/31 22:27:50.9	181.810	-0.080	0.550	-0.460
2020/01/31 22:27:51.0	181.830	-0.070	0.540	-0.470
2020/01/31 22:27:51.1	181.840	-0.070	0.530	-0.480
2020/01/31 22:27:51.2	181.850	-0.060	0.520	-0.490
2020/01/31 22:27:51.3	181.850	-0.050	0.500	-0.500
2020/01/31 22:27:51.4	181.860	-0.050	0.480	-0.500
2020/01/31 22:27:51.5	181.860	-0.050	0.460	-0.500
2020/01/31 22:27:51.6	181.870	-0.040	0.430	-0.500
2020/01/31 22:27:51.7	181.870	-0.040	0.400	-0.500
2020/01/31 22:27:51.8	181.870	-0.040	0.370	-0.490
2020/01/31 22:27:51.9	181.870	-0.040	0.340	-0.480
2020/01/31 22:27:52.0	181.870	-0.040	0.300	-0.460
2020/01/31 22:27:52.1	181.870	-0.040	0.250	-0.440
2020/01/31 22:27:52.2	181.870	-0.040	0.210	-0.420
2020/01/31 22:27:52.3	181.870	-0.040	0.170	-0.390
2020/01/31 22:27:52.4	181.870	-0.050	0.120	-0.350
2020/01/31 22:27:52.5	181.860	-0.050	0.070	-0.310
2020/01/31 22:27:52.6	181.860	-0.050	0.020	-0.270
2020/01/31 22:27:52.7	181.850	-0.060	-0.030	-0.220
2020/01/31 22:27:52.8	181.840	-0.060	-0.080	-0.160
2020/01/31 22:27:52.9	181.840	-0.070	-0.140	-0.100
2020/01/31 22:27:53.0	181.820	-0.070	-0.190	-0.040
2020/01/31 22:27:53.1	181.810	-0.080	-0.240	0.030
2020/01/31 22:27:53.2	181.800	-0.080	-0.300	0.100
2020/01/31 22:27:53.3	181.790	-0.090	-0.350	0.180
2020/01/31 22:27:53.4	181.770	-0.090	-0.400	0.260
2020/01/31 22:27:53.5	181.760	-0.090	-0.450	0.340
2020/01/31 22:27:53.6	181.740	-0.100	-0.500	0.420
2020/01/31 22:27:53.7	181.720	-0.100	-0.540	0.500
2020/01/31 22:27:53.8	181.710	-0.100	-0.590	0.590
2020/01/31 22:27:53.9	181.690	-0.100	-0.630	0.680
2020/01/31 22:27:54.0	181.670	-0.100	-0.680	0.760
2020/01/31 22:27:54.1	181.640	-0.100	-0.720	0.850
2020/01/31 22:27:54.2	181.620	-0.100	-0.760	0.940
2020/01/31 22:27:54.3	181.600	-0.090	-0.790	1.020
2020/01/31 22:27:54.4	181.580	-0.090	-0.820	1.110
2020/01/31 22:27:54.5	181.550	-0.080	-0.850	1.190
2020/01/31 22:27:54.6	181.520	-0.080	-0.880	1.270
2020/01/31 22:27:54.7	181.500	-0.070	-0.900	1.350
2020/01/31 22:27:54.8	181.470	-0.060	-0.920	1.430
2020/01/31 22:27:54.9	181.440	-0.050	-0.940	1.500
2020/01/31 22:27:55.0	181.400	-0.040	-0.960	1.580
2020/01/31 22:27:55.1	181.370	-0.030	-0.970	1.650
2020/01/31 22:27:55.2	181.340	-0.010	-0.990	1.720
2020/01/31 22:27:55.3	181.310	0.000	-0.990	1.780
2020/01/31 22:27:55.4	181.280	0.010	-1.000	1.840
2020/01/31 22:27:55.5	181.250	0.030	-1.010	1.890
2020/01/31 22:27:55.6	181.210	0.040	-1.010	1.940
2020/01/31 22:27:55.7	181.180	0.060	-1.010	1.990
2020/01/31 22:27:55.8	181.150	0.070	-1.000	2.030
2020/01/31 22:27:55.9	181.120	0.090	-0.990	2.070
2020/01/31 22:27:56.0	181.090	0.100	-0.980	2.100
2020/01/31 22:27:56.1	181.060	0.120	-0.970	2.130
2020/01/31 22:27:56.2	181.030	0.130	-0.950	2.150
2020/01/31 22:27:56.3	181.000	0.140	-0.930	2.170
2020/01/31 22:27:56.4	180.980	0.150	-0.900	2.180
2020/01/31 22:27:56.5	180.950	0.160	-0.870	2.190
2020/01/31 22:27:56.6	180.930	0.170	-0.830	2.190
2020/01/31 22:27:56.7	180.910	0.170	-0.790	2.190
2020/01/31 22:27:56.8	180.900	0.180	-0.740	2.190
2020/01/31 22:27:56.9	180.880	0.180	-0.690	2.170
2020/01/31 22:27:57.0	180.880	0.180	-0.640	2.150
2020/01/31 22:27:57.1	180.870	0.180	-0.580	2.130
2020/01/31 22:27:57.2	180.870	0.170	-0.520	2.110
2020/01/31 22:27:57.3	180.870	0.170	-0.450	2.080
2020/01/31 22:27:57.4	180.870	0.160	-0.380	2.040
2020/01/31 22:27:57.5	180.880	0.150	-0.300	2.010
2020/01/31 22:27:57.6	180.880	0.140	-0.220	1.970
2020/01/31 22:27:57.7	180.900	0.120	-0.140	1.920
2020/01/31 22:27:57.8	180.910	0.110	-0.050	1.870
2020/01/31 22:27:57.9	180.930	0.090	0.040	1.820
2020/01/31 22:27:58.0	180.960	0.070	0.120	1.760
2020/01/31 22:27:58.1	180.990	0.050	0.210	1.710
2020/01/31 22:27:58.2	181.010	0.030	0.300	1.640
2020/01/31 22:27:58.3	181.040	0.010	0.390	1.580
2020/01/31 22:27:58.4	181.080	-0.020	0.480	1.510
2020/01/31 22:27:58.5	181.110	-0.040	0.560	1.440
2020/01/31 22:27:58.6	181.140	-0.060	0.640	1.360
2020/01/31 22:27:58.7	181.180	-0.090	0.720	1.290
2020/01/31 22:27:58.8	181.220	-0.110	0.790	1.210
2020/01/31 22:27:58.9	181.260	-0.130	0.850	1.130
2020/01/31 22:27:59.0	181.300	-0.150	0.910	1.050
2020/01/31 22:27:59.1	181.330	-0.180	0.960	0.970
2020/01/31 22:27:59.2	181.370	-0.200	1.010	0.890
2020/01/31 22:27:59.3	181.410	-0.210	1.040	0.810
2020/01/31 22:27:59.4	181.440	-0.230	1.070	0.730
2020/01/31 22:27:59.5	181.470	-0.240	1.090	0.660
2020/01/31 22:27:59.6	181.500	-0.260	1.100	0.580
2020/01/31 22:27:59.7	181.530	-0.270	1.100	0.510
2020/01/31 22:27:59.8	181.550	-0.270	1.090	0.440
2020/01/31 22:27:59.9	181.570	-0.280	1.070	0.380
2020/01/31 22:28:00.0	181.600	-0.280	1.040	0.310
2020/01/31 22:28:00.1	181.610	-0.280	1.000	0.250
2020/01/31 22:28:00.2	181.620	-0.280	0.950	0.200
2020/01/31 22:28:00.3	181.630	-0.270	0.900	0.150
2020/01/31 22:28:00.4	181.630	-0.260	0.830	0.110
2020/01/31 22:28:00.5	181.630	-0.250	0.760	0.070
2020/01/31 22:28:00.6	181.620	-0.230	0.680	0.040
2020/01/31 22:28:00.7	181.610	-0.220	0.600	0.010
2020/01/31 22:28:00.8	181.600	-0.200	0.510	-0.020
2020/01/31 22:28:00.9	181.580	-0.180	0.410	-0.030
2020/01/31 22:28:01.0	181.570	-0.150	0.310	-0.050
2020/01/31 22:28:01.1	181.550	-0.130	0.210	-0.050
2020/01/31 22:28:01.2	181.520	-0.100	0.110	-0.050
2020/01/31 22:28:01.3	181.490	-0.070	0.010	-0.050
2020/01/31 22:28:01.4	181.460	-0.040	-0.090	-0.040
2020/01/31 22:28:01.5	181.430	-0.010	-0.190	-0.030
2020/01/31 22:28:01.6	181.400	0.030	-0.290	-0.010
2020/01/31 22:28:01.7	181.360	0.060	-0.390	0.010
2020/01/31 22:28:01.8	181.320	0.090	-0.480	0.040
2020/01/31 22:28:01.9	181.280	0.120	-0.560	0.060
2020/01/31 22:28:02.0	181.230	0.160	-0.650	0.090
2020/01/31 22:28:02.1	181.190	0.190	-0.720	0.130
2020/01/31 22:28:02.2	181.150	0.220	-0.790	0.170
2020/01/31 22:28:02.3	181.110	0.250	-0.850	0.200
2020/01/31 22:28:02.4	181.070	0.280	-0.910	0.240
2020/01/31 22:28:02.5	181.020	0.310	-0.960	0.280
2020/01/31 22:28:02.6	180.980	0.340	-1.000	0.320
2020/01/31 22:28:02.7	180.940	0.360	-1.030	0.360
2020/01/31 22:28:02.8	180.910	0.380	-1.060	0.400
2020/01/31 22:28:02.9	180.870	0.400	-1.080	0.440
2020/01/31 22:28:03.0	180.830	0.420	-1.090	0.480
2020/01/31 22:28:03.1	180.800	0.440	-1.100	0.510
2020/01/31 22:28:03.2	180.760	0.450	-1.090	0.550
2020/01/31 22:28:03.3	180.730	0.460	-1.080	0.580
2020/01/31 22:28:03.4	180.710	0.470	-1.070	0.600
2020/01/31 22:28:03.5	180.680	0.470	-1.050	0.630
2020/01/31 22:28:03.6	180.660	0.480	-1.020	0.650
2020/01/31 22:28:03.7	180.640	0.480	-0.990	0.670
2020/01/31 22:28:03.8	180.620	0.470	-0.950	0.680
2020/01/31 22:28:03.9	180.610	0.470	-0.910	0.700
2020/01/31 22:28:04.0	180.590	0.460	-0.870	0.710
2020/01/31 22:28:04.1	180.580	0.450	-0.820	0.710
2020/01/31 22:28:04.2	180.580	0.440	-0.770	0.720
2020/01/31 22:28:04.3	180.570	0.430	-0.720	0.720
2020/01/31 22:28:04.4	180.570	0.410	-0.670	0.720
2020/01/31 22:28:04.5	180.580	0.390	-0.620	0.720
2020/01/31 22:28:04.6	180.580	0.370	-0.560	0.710
2020/01/31 22:28:04.7	180.590	0.350	-0.510	0.710
2020/01/31 22:28:04.8	180.600	0.330	-0.450	0.700
2020/01/31 22:28:04.9	180.610	0.300	-0.400	0.690
2020/01/31 22:28:05.0	180.650	0.280	-0.340	0.690
2020/01/31 22:28:05.1	180.660	0.250	-0.290	0.680
2020/01/31 22:28:05.2	180.680	0.230	-0.240	0.680
2020/01/31 22:28:05.3	180.690	0.200	-0.190	0.670
2020/01/31 22:28:05.4	180.710	0.170	-0.150	0.660
2020/01/31 22:28:05.5	180.730	0.140	-0.100	0.660
2020/01/31 22:28:05.6	180.750	0.120	-0.060	0.650
2020/01/31 22:28:05.7	180.770	0.090	-0.020	0.650
2020/01/31 22:28:05.8	180.780	0.060	0.020	0.650
2020/01/31 22:28:05.9	180.800	0.040	0.050	0.650
2020/01/31 22:28:06.0	180.840	0.010	0.090	0.650
2020/01/31 22:28:06.1	180.860	-0.020	0.120	0.650
2020/01/31 22:28:06.2	180.880	-0.040	0.140	0.660
2020/01/31 22:28:06.3	180.900	-0.060	0.160	0.660
2020/01/31 22:28:06.4	180.920	-0.090	0.180	0.670
2020/01/31 22:28:06.5	180.930	-0.110	0.200	0.680
2020/01/31 22:28:06.6	180.950	-0.130	0.210	0.680
2020/01/31 22:28:06.7	180.960	-0.140	0.230	0.690
2020/01/31 22:28:06.8	180.980	-0.160	0.240	0.700
2020/01/31 22:28:06.9	180.990	-0.180	0.240	0.710
2020/01/31 22:28:07.0	181.010	-0.190	0.250	0.730
2020/01/31 22:28:07.1	181.020	-0.200	0.250	0.740
2020/01/31 22:28:07.2	181.030	-0.220	0.250	0.750
2020/01/31 22:28:07.3	181.040	-0.230	0.250	0.770
2020/01/31 22:28:07.4	181.050	-0.230	0.250	0.780
2020/01/31 22:28:07.5	181.060	-0.240	0.240	0.790
2020/01/31 22:28:07.6	181.070	-0.250	0.240	0.810
2020/01/31 22:28:07.7	181.080	-0.250	0.230	0.820
2020/01/31 22:28:07.8	181.090	-0.260	0.220	0.840
2020/01/31 22:28:07.9	181.090	-0.260	0.210	0.850
2020/01/31 22:28:08.0	181.080	-0.260	0.200	0.870
2020/01/31 22:28:08.1	181.090	-0.260	0.180	0.890
2020/01/31 22:28:08.2	181.090	-0.270	0.170	0.910
2020/01/31 22:28:08.3	181.090	-0.270	0.150	0.930
2020/01/31 22:28:08.4	181.090	-0.260	0.130	0.950
2020/01/31 22:28:08.5	181.080	-0.260	0.110	0.970
2020/01/31 22:28:08.6	181.080	-0.260	0.090	1.000
2020/01/31 22:28:08.7	181.070	-0.260	0.070	1.030
2020/01/31 22:28:08.8	181.070	-0.260	0.050	1.060
2020/01/31 22:28:08.9	181.060	-0.260	0.020	1.090
2020/01/31 22:28:09.0	181.050	-0.260	0.000	1.120
2020/01/31 22:28:09.1	181.040	-0.260	-0.030	1.150
2020/01/31 22:28:09.2	181.030	-0.250	-0.050	1.190
2020/01/31 22:28:09.3	181.010	-0.250	-0.080	1.230
2020/01/31 22:28:09.4	181.000	-0.250	-0.110	1.280
2020/01/31 22:28:09.5	180.980	-0.250	-0.140	1.320
2020/01/31 22:28:09.6	180.970	-0.240	-0.170	1.360
2020/01/31 22:28:09.7	180.950	-0.240	-0.200	1.410
2020/01/31 22:28:09.8	180.930	-0.240	-0.230	1.460
2020/01/31 22:28:09.9	180.910	-0.230	-0.260	1.510
2020/01/31 22:28:10.0	180.870	-0.230	-0.300	1.560
2020/01/31 22:28:10.1	180.850	-0.220	-0.330	1.610
2020/01/31 22:28:10.2	180.820	-0.210	-0.370	1.660
2020/01/31 22:28:10.3	180.790	-0.210	-0.400	1.700
2020/01/31 22:28:10.4	180.760	-0.200	-0.440	1.750
2020/01/31 22:28:10.5	180.730	-0.190	-0.470	1.800
2020/01/31 22:28:10.6	180.700	-0.170	-0.510	1.840
2020/01/31 22:28:10.7	180.660	-0.160	-0.540	1.890
2020/01/31 22:28:10.8	180.620	-0.140	-0.570	1.930
2020/01/31 22:28:10.9	180.590	-0.130	-0.610	1.970
2020/01/31 22:28:11.0	180.550	-0.110	-0.630	2.000
2020/01/31 22:28:11.1	180.510	-0.090	-0.660	2.030
2020/01/31 22:28:11.2	180.470	-0.070	-0.690	2.060
2020/01/31 22:28:11.3	180.430	-0.040	-0.720	2.090
2020/01/31 22:28:11.4	180.390	-0.020	-0.740	2.120
2020/01/31 22:28:11.5	180.350	0.010	-0.760	2.140
2020/01/31 22:28:11.6	180.320	0.040	-0.780	2.150
2020/01/31 22:28:11.7	180.280	0.070	-0.800	2.160
2020/01/31 22:28:11.8	180.240	0.100	-0.810	2.170
2020/01/31 22:28:11.9	180.210	0.130	-0.820	2.170
2020/01/31 22:28:12.0	180.160	0.160	-0.830	2.160
2020/01/31 22:28:12.1	180.130	0.190	-0.830	2.160
2020/01/31 22:28:12.2	180.100	0.220	-0.820	2.140
2020/01/31 22:28:12.3	180.070	0.250	-0.820	2.130
2020/01/31 22:28:12.4	180.050	0.280	-0.800	2.100
2020/01/31 22:28:12.5	180.030	0.310	-0.780	2.070
2020/01/31 22:28:12.6	180.010	0.340	-0.760	2.040
2020/01/31 22:28:12.7	179.990	0.360	-0.730	2.000
2020/01/31 22:28:12.8	179.980	0.380	-0.690	1.960
2020/01/31 22:28:12.9	179.980	0.400	-0.650	1.910
2020/01/31 22:28:13.0	179.980	0.420	-0.610	1.850
2020/01/31 22:28:13.1	179.980	0.430	-0.560	1.790
2020/01/31 22:28:13.2	179.990	0.440	-0.500	1.720
2020/01/31 22:28:13.3	180.000	0.440	-0.440	1.650
2020/01/31 22:28:13.4	180.020	0.440	-0.380	1.580
2020/01/31 22:28:13.5	180.040	0.430	-0.310	1.500
2020/01/31 22:28:13.6	180.060	0.420	-0.250	1.430
2020/01/31 22:28:13.7	180.090	0.410	-0.170	1.340
2020/01/31 22:28:13.8	180.130	0.390	-0.100	1.260
2020/01/31 22:28:13.9	180.160	0.370	-0.030	1.180
2020/01/31 22:28:14.0	180.210	0.340	0.050	1.090
2020/01/31 22:28:14.1	180.260	0.300	0.120	1.000
2020/01/31 22:28:14.2	180.300	0.270	0.190	0.920
2020/01/31 22:28:14.3	180.350	0.230	0.270	0.830
2020/01/31 22:28:14.4	180.400	0.180	0.340	0.750
2020/01/31 22:28:14.5	180.460	0.140	0.400	0.670
2020/01/31 22:28:14.6	180.510	0.090	0.470	0.590
2020/01/31 22:28:14.7	180.560	0.030	0.530	0.520
2020/01/31 22:28:14.8	180.610	-0.020	0.580	0.440
2020/01/31 22:28:14.9	180.670	-0.080	0.630	0.370
2020/01/31 22:28:15.0	180.730	-0.130	0.670	0.310
2020/01/31 22:28:15.1	180.780	-0.190	0.710	0.250
2020/01/31 22:28:15.2	180.830	-0.240	0.740	0.200
2020/01/31 22:28:15.3	180.870	-0.300	0.760	0.150
2020/01/31 22:28:15.4	180.910	-0.350	0.780	0.100
2020/01/31 22:28:15.5	180.950	-0.400	0.790	0.070
2020/01/31 22:28:15.6	180.980	-0.450	0.790	0.040
2020/01/31 22:28:15.7	181.010	-0.500	0.780	0.010
2020/01/31 22:28:15.8	181.030	-0.540	0.770	-0.010
2020/01/31 22:28:15.9	181.050	-0.580	0.750	-0.020
2020/01/31 22:28:16.0	181.070	-0.610	0.720	-0.020
2020/01/31 22:28:16.1	181.080	-0.640	0.690	-0.020
2020/01/31 22:28:16.2	181.090	-0.660	0.650	-0.010
2020/01/31 22:28:16.3	181.090	-0.680	0.600	-0.000
2020/01/31 22:28:16.4	181.080	-0.690	0.550	0.020
2020/01/31 22:28:16.5	181.080	-0.700	0.490	0.040
2020/01/31 22:28:16.6	181.070	-0.700	0.430	0.060
2020/01/31 22:28:16.7	181.050	-0.700	0.360	0.100
2020/01/31 22:28:16.8	181.030	-0.680	0.290	0.130
2020/01/31 22:28:16.9	181.010	-0.670	0.210	0.170
2020/01/31 22:28:17.0	180.980	-0.650	0.140	0.210
2020/01/31 22:28:17.1	180.950	-0.620	0.060	0.260
2020/01/31 22:28:17.2	180.920	-0.590	-0.020	0.300
2020/01/31 22:28:17.3	180.890	-0.550	-0.090	0.350
2020/01/31 22:28:17.4	180.850	-0.510	-0.170	0.400
2020/01/31 22:28:17.5	180.820	-0.460	-0.250	0.460
2020/01/31 22:28:17.6	180.780	-0.410	-0.320	0.510
2020/01/31 22:28:17.7	180.740	-0.360	-0.390	0.570
2020/01/31 22:28:17.8	180.710	-0.300	-0.460	0.620
2020/01/31 22:28:17.9	180.670	-0.240	-0.520	0.680
2020/01/31 22:28:18.0	180.630	-0.180	-0.580	0.740
2020/01/31 22:28:18.1	180.590	-0.120	-0.640	0.790
2020/01/31 22:28:18.2	180.550	-0.060	-0.690	0.850
2020/01/31 22:28:18.3	180.510	0.010	-0.740	0.910
2020/01/31 22:28:18.4	180.470	0.070	-0.780	0.960
2020/01/31 22:28:18.5	180.430	0.130	-0.820	1.020
2020/01/31 22:28:18.6	180.390	0.190	-0.850	1.080
2020/01/31 22:28:18.7	180.360	0.250	-0.880	1.130
2020/01/31 22:28:18.8	180.320	0.310	-0.890	1.180
2020/01/31 22:28:18.9	180.290	0.360	-0.910	1.230
2020/01/31 22:28:19.0	180.260	0.420	-0.910	1.280
2020/01/31 22:28:19.1	180.230	0.460	-0.910	1.320
2020/01/31 22:28:19.2	180.200	0.510	-0.910	1.360
2020/01/31 22:28:19.3	180.180	0.550	-0.890	1.390
2020/01/31 22:28:19.4	180.150	0.590	-0.870	1.420
2020/01/31 22:28:19.5	180.130	0.620	-0.840	1.450
2020/01/31 22:28:19.6	180.120	0.640	-0.810	1.470
2020/01/31 22:28:19.7	180.110	0.670	-0.770	1.490
2020/01/31 22:28:19.8	180.100	0.680	-0.720	1.500
2020/01/31 22:28:19.9	180.090	0.700	-0.670	1.510
2020/01/31 22:28:20.0	180.100	0.700	-0.620	1.510
2020/01/31 22:28:20.1	180.100	0.710	-0.560	1.500
2020/01/31 22:28:20.2	180.110	0.700	-0.500	1.490
2020/01/31 22:28:20.3	180.120	0.690	-0.430	1.480
2020/01/31 22:28:20.4	180.130	0.680	-0.360	1.460
2020/01/31 22:28:20.5	180.150	0.670	-0.280	1.440
2020/01/31 22:28:20.6	180.170	0.640	-0.210	1.410
2020/01/31 22:28:20.7	180.190	0.620	-0.130	1.380
2020/01/31 22:28:20.8	180.210	0.590	-0.060	1.340
2020/01/31 22:28:20.9	180.240	0.560	0.020	1.300
2020/01/31 22:28:21.0	180.270	0.520	0.090	1.260
2020/01/31 22:28:21.1	180.300	0.480	0.160	1.220
2020/01/31 22:28:21.2	180.330	0.440	0.230	1.170
2020/01/31 22:28:21.3	180.370	0.400	0.290	1.130
2020/01/31 22:28:21.4	180.400	0.360	0.350	1.080
2020/01/31 22:28:21.5	180.430	0.320	0.400	1.030
2020/01/31 22:28:21.6	180.460	0.270	0.440	0.980
2020/01/31 22:28:21.7	180.490	0.230	0.480	0.940
2020/01/31 22:28:21.8	180.520	0.190	0.510	0.890
2020/01/31 22:28:21.9	180.550	0.140	0.530	0.850
2020/01/31 22:28:22.0	180.580	0.100	0.540	0.810
2020/01/31 22:28:22.1	180.600	0.060	0.540	0.770
2020/01/31 22:28:22.2	180.620	0.030	0.540	0.730
2020/01/31 22:28:22.3	180.640	-0.010	0.520	0.700
2020/01/31 22:28:22.4	180.650	-0.040	0.500	0.680
2020/01/31 22:28:22.5	180.660	-0.070	0.460	0.650
2020/01/31 22:28:22.6	180.670	-0.090	0.420	0.630
2020/01/31 22:28:22.7	180.670	-0.110	0.370	0.610
2020/01/31 22:28:22.8	180.670	-0.130	0.320	0.600
2020/01/31 22:28:22.9	180.660	-0.150	0.250	0.600
2020/01/31 22:28:23.0	180.670	-0.160	0.180	0.590
2020/01/31 22:28:23.1	180.650	-0.160	0.110	0.590
2020/01/31 22:28:23.2	180.640	-0.170	0.030	0.600
2020/01/31 22:28:23.3	180.620	-0.170	-0.060	0.610
2020/01/31 22:28:23.4	180.600	-0.170	-0.140	0.620
2020/01/31 22:28:23.5	180.580	-0.160	-0.230	0.640
2020/01/31 22:28:23.6	180.550	-0.150	-0.320	0.660
2020/01/31 22:28:23.7	180.530	-0.140	-0.400	0.680
2020/01/31 22:28:23.8	180.500	-0.130	-0.490	0.710
2020/01/31 22:28:23.9	180.470	-0.110	-0.570	0.740
2020/01/31 22:28:24.0	180.430	-0.100	-0.650	0.770
2020/01/31 22:28:24.1	180.400	-0.080	-0.730	0.800
2020/01/31 22:28:24.2	180.360	-0.060	-0.800	0.840
2020/01/31 22:28:24.3	180.330	-0.040	-0.860	0.870
2020/01/31 22:28:24.4	180.300	-0.020	-0.920	0.910
2020/01/31 22:28:24.5	180.260	-0.000	-0.960	0.940
2020/01/31 22:28:24.6	180.230	0.010	-1.000	0.980
2020/01/31 22:28:24.7	180.200	0.030	-1.040	1.010
2020/01/31 22:28:24.8	180.170	0.050	-1.060	1.040
2020/01/31 22:28:24.9	180.150	0.060	-1.070	1.070
2020/01/31 22:28:25.0	180.120	0.070	-1.080	1.100
2020/01/31 22:28:25.1	180.100	0.090	-1.070	1.130
2020/01/31 22:28:25.2	180.080	0.090	-1.060	1.160
2020/01/31 22:28:25.3	180.060	0.100	-1.040	1.180
2020/01/31 22:28:25.4	180.040	0.110	-1.000	1.200
2020/01/31 22:28:25.5	180.030	0.110	-0.960	1.210
2020/01/31 22:28:25.6	180.020	0.110	-0.910	1.220
2020/01/31 22:28:25.7	180.010	0.100	-0.860	1.230
2020/01/31 22:28:25.8	180.010	0.090	-0.800	1.240
2020/01/31 22:28:25.9	180.010	0.090	-0.730	1.240
2020/01/31 22:28:26.0	180.020	0.070	-0.650	1.240
2020/01/31 22:28:26.1	180.030	0.060	-0.570	1.230
2020/01/31 22:28:26.2	180.040	0.040	-0.490	1.220
2020/01/31 22:28:26.3	180.050	0.020	-0.400	1.210
2020/01/31 22:28:26.4	180.060	0.000	-0.320	1.190
2020/01/31 22:28:26.5	180.070	-0.020	-0.230	1.170
2020/01/31 22:28:26.6	180.090	-0.040	-0.140	1.150
2020/01/31 22:28:26.7	180.100	-0.070	-0.050	1.120
2020/01/31 22:28:26.8	180.120	-0.090	0.040	1.090
2020/01/31 22:28:26.9	180.140	-0.120	0.120	1.060
2020/01/31 22:28:27.0	180.160	-0.140	0.200	1.030
2020/01/31 22:28:27.1	180.180	-0.170	0.270	0.990
2020/01/31 22:28:27.2	180.190	-0.190	0.340	0.960
2020/01/31 22:28:27.3	180.210	-0.220	0.400	0.920
2020/01/31 22:28:27.4	180.220	-0.240	0.450	0.890
2020/01/31 22:28:27.5	180.230	-0.260	0.500	0.850
2020/01/31 22:28:27.6	180.240	-0.280	0.530	0.820
2020/01/31 22:28:27.7	180.240	-0.300	0.560	0.780
2020/01/31 22:28:27.8	180.250	-0.310	0.580	0.750
2020/01/31 22:28:27.9	180.250	-0.330	0.590	0.720
2020/01/31 22:28:28.0	180.250	-0.340	0.580	0.690
2020/01/31 22:28:28.1	180.240	-0.340	0.570	0.670
2020/01/31 22:28:28.2	180.230	-0.350	0.560	0.650
2020/01/31 22:28:28.3	180.220	-0.350	0.530	0.630
2020/01/31 22:28:28.4	180.210	-0.350	0.490	0.610
2020/01/31 22:28:28.5	180.190	-0.340	0.450	0.600
2020/01/31 22:28:28.6	180.170	-0.340	0.400	0.590
2020/01/31 22:28:28.7	180.140	-0.330	0.340	0.590
2020/01/31 22:28:28.8	180.120	-0.310	0.280	0.590
2020/01/31 22:28:28.9	180.090	-0.300	0.210	0.590
2020/01/31 22:28:29.0	180.060	-0.280	0.140	0.600
2020/01/31 22:28:29.1	180.020	-0.260	0.060	0.620
2020/01/31 22:28:29.2	179.980	-0.240	-0.010	0.630
2020/01/31 22:28:29.3	179.940	-0.210	-0.090	0.650
2020/01/31 22:28:29.4	179.890	-0.190	-0.180	0.680
2020/01/31 22:28:29.5	179.850	-0.160	-0.260	0.710
2020/01/31 22:28:29.6	179.800	-0.140	-0.340	0.740
2020/01/31 22:28:29.7	179.750	-0.110	-0.420	0.770
2020/01/31 22:28:29.8	179.690	-0.080	-0.490	0.810
2020/01/31 22:28:29.9	179.640	-0.060	-0.560	0.850
2020/01/31 22:28:30.0	179.600	-0.030	-0.630	0.890
2020/01/31 22:28:30.1	179.550	-0.000	-0.690	0.930
2020/01/31 22:28:30.2	179.500	0.020	-0.750	0.980
2020/01/31 22:28:30.3	179.450	0.040	-0.800	1.020
2020/01/31 22:28:30.4	179.400	0.060	-0.840	1.060
2020/01/31 22:28:30.5	179.350	0.080	-0.880	1.110
2020/01/31 22:28:30.6	179.310	0.090	-0.900	1.150
2020/01/31 22:28:30.7	179.270	0.110	-0.920	1.190
2020/01/31 22:28:30.8	179.230	0.110	-0.930	1.230
2020/01/31 22:28:30.9	179.200	0.120	-0.930	1.260
2020/01/31 22:28:31.0	179.150	0.120	-0.920	1.290
2020/01/31 22:28:31.1	179.130	0.120	-0.900	1.320
2020/01/31 22:28:31.2	179.110	0.120	-0.870	1.350
2020/01/31 22:28:31.3	179.100	0.110	-0.840	1.370
2020/01/31 22:28:31.4	179.090	0.100	-0.790	1.390
2020/01/31 22:28:31.5	179.080	0.080	-0.740	1.400
2020/01/31 22:28:31.6	179.080	0.060	-0.680	1.420
2020/01/31 22:28:31.7	179.090	0.040	-0.620	1.420
2020/01/31 22:28:31.8	179.100	0.010	-0.550	1.430
2020/01/31 22:28:31.9	179.120	-0.010	-0.470	1.430
2020/01/31 22:28:32.0	179.130	-0.040	-0.390	1.420
2020/01/31 22:28:32.1	179.150	-0.080	-0.310	1.420
2020/01/31 22:28:32.2	179.180	-0.110	-0.220	1.410
2020/01/31 22:28:32.3	179.220	-0.150	-0.130	1.400
2020/01/31 22:28:32.4	179.250	-0.190	-0.050	1.380
2020/01/31 22:28:32.5	179.290	-0.230	0.040	1.360
2020/01/31 22:28:32.6	179.330	-0.270	0.120	1.340
2020/01/31 22:28:32.7	179.380	-0.310	0.210	1.320
2020/01/31 22:28:32.8	179.420	-0.350	0.280	1.300
2020/01/31 22:28:32.9	179.470	-0.390	0.360	1.270
2020/01/31 22:28:33.0	179.520	-0.420	0.420	1.250
2020/01/31 22:28:33.1	179.560	-0.460	0.480	1.230
2020/01/31 22:28:33.2	179.600	-0.490	0.540	1.200
2020/01/31 22:28:33.3	179.640	-0.520	0.580	1.180
2020/01/31 22:28:33.4	179.680	-0.540	0.620	1.160
2020/01/31 22:28:33.5	179.710	-0.560	0.650	1.150
2020/01/31 22:28:33.6	179.740	-0.580	0.670	1.130
2020/01/31 22:28:33.7	179.770	-0.590	0.680	1.120
2020/01/31 22:28:33.8	179.800	-0.600	0.680	1.110
2020/01/31 22:28:33.9	179.820	-0.600	0.670	1.110
2020/01/31 22:28:34.0	179.830	-0.600	0.650	1.110
2020/01/31 22:28:34.1	179.840	-0.590	0.620	1.110
2020/01/31 22:28:34.2	179.850	-0.580	0.590	1.110
2020/01/31 22:28:34.3	179.850	-0.560	0.550	1.120
2020/01/31 22:28:34.4	179.850	-0.540	0.500	1.130
2020/01/31 22:28:34.5	179.850	-0.510	0.440	1.140
2020/01/31 22:28:34.6	179.840	-0.470	0.380	1.160
2020/01/31 22:28:34.7	179.830	-0.430	0.310	1.180
2020/01/31 22:28:34.8	179.810	-0.390	0.250	1.190
2020/01/31 22:28:34.9	179.790	-0.340	0.170	1.210
2020/01/31 22:28:35.0	179.760	-0.290	0.100	1.230
2020/01/31 22:28:35.1	179.740	-0.230	0.030	1.250
2020/01/31 22:28:35.2	179.710	-0.180	-0.050	1.270
2020/01/31 22:28:35.3	179.690	-0.120	-0.120	1.290
2020/01/31 22:28:35.4	179.660	-0.050	-0.180	1.320
2020/01/31 22:28:35.5	179.630	0.010	-0.250	1.330
2020/01/31 22:28:35.6	179.600	0.070	-0.310	1.350
2020/01/31 22:28:35.7	179.570	0.130	-0.360	1.370
2020/01/31 22:28:35.8	179.530	0.200	-0.410	1.390
2020/01/31 22:28:35.9	179.500	0.260	-0.450	1.400
2020/01/31 22:28:36.0	179.480	0.320	-0.490	1.420
2020/01/31 22:28:36.1	179.450	0.380	-0.520	1.430
2020/01/31 22:28:36.2	179.420	0.430	-0.540	1.440
2020/01/31 22:28:36.3	179.390	0.480	-0.560	1.450
2020/01/31 22:28:36.4	179.370	0.530	-0.570	1.460
2020/01/31 22:28:36.5	179.340	0.580	-0.580	1.460
2020/01/31 22:28:36.6	179.310	0.620	-0.570	1.460
2020/01/31 22:28:36.7	179.290	0.660	-0.560	1.460
2020/01/31 22:28:36.8	179.270	0.700	-0.550	1.460
2020/01/31 22:28:36.9	179.250	0.730	-0.530	1.450
2020/01/31 22:28:37.0	179.220	0.750	-0.500	1.440
2020/01/31 22:28:37.1	179.210	0.770	-0.470	1.430
2020/01/31 22:28:37.2	179.190	0.790	-0.440	1.410
2020/01/31 22:28:37.3	179.180	0.800	-0.400	1.390
2020/01/31 22:28:37.4	179.170	0.810	-0.350	1.370
2020/01/31 22:28:37.5	179.160	0.810	-0.310	1.350
2020/01/31 22:28:37.6	179.160	0.810	-0.260	1.320
2020/01/31 22:28:37.7	179.160	0.800	-0.220	1.300
2020/01/31 22:28:37.8	179.150	0.790	-0.170	1.270
2020/01/31 22:28:37.9	179.150	0.780	-0.120	1.240
2020/01/31 22:28:38.0	179.170	0.770	-0.080	1.210
2020/01/31 22:28:38.1	179.170	0.750	-0.040	1.180
2020/01/31 22:28:38.2	179.180	0.730	0.010	1.150
2020/01/31 22:28:38.3	179.180	0.700	0.040	1.120
2020/01/31 22:28:38.4	179.180	0.670	0.080	1.090
2020/01/31 22:28:38.5	179.190	0.650	0.110	1.060
2020/01/31 22:28:38.6	179.200	0.620	0.140	1.030
2020/01/31 22:28:38.7	179.200	0.590	0.160	1.000
2020/01/31 22:28:38.8	179.210	0.550	0.180	0.970
2020/01/31 22:28:38.9	179.220	0.520	0.190	0.940
2020/01/31 22:28:39.0	179.240	0.490	0.190	0.920
2020/01/31 22:28:39.1	179.250	0.460	0.190	0.900
2020/01/31 22:28:39.2	179.260	0.420	0.190	0.870
2020/01/31 22:28:39.3	179.270	0.390	0.180	0.850
2020/01/31 22:28:39.4	179.270	0.360	0.170	0.830
2020/01/31 22:28:39.5	179.280	0.330	0.160	0.800
2020/01/31 22:28:39.6	179.290	0.300	0.140	0.780
2020/01/31 22:28:39.7	179.290	0.270	0.120	0.770
2020/01/31 22:28:39.8	179.300	0.240	0.090	0.750
2020/01/31 22:28:39.9	179.310	0.210	0.060	0.730
2020/01/31 22:28:40.0	179.320	0.180	0.030	0.720
2020/01/31 22:28:40.1	179.330	0.150	0.000	0.700
2020/01/31 22:28:40.2	179.330	0.120	-0.030	0.690
2020/01/31 22:28:40.3	179.340	0.090	-0.060	0.690
2020/01/31 22:28:40.4	179.340	0.060	-0.100	0.680
2020/01/31 22:28:40.5	179.340	0.030	-0.130	0.680
2020/01/31 22:28:40.6	179.340	0.000	-0.160	0.680
2020/01/31 22:28:40.7	179.340	-0.030	-0.190	0.690
2020/01/31 22:28:40.8	179.340	-0.060	-0.230	0.700
2020/01/31 22:28:40.9	179.340	-0.090	-0.260	0.710
2020/01/31 22:28:41.0	179.340	-0.120	-0.290	0.720
2020/01/31 22:28:41.1	179.340	-0.150	-0.320	0.740
2020/01/31 22:28:41.2	179.330	-0.180	-0.350	0.770
2020/01/31 22:28:41.3	179.330	-0.200	-0.380	0.790
2020/01/31 22:28:41.4	179.320	-0.230	-0.410	0.830
2020/01/31 22:28:41.5	179.310	-0.260	-0.440	0.860
2020/01/31 22:28:41.6	179.290	-0.290	-0.460	0.900
2020/01/31 22:28:41.7	179.280	-0.320	-0.490	0.940
2020/01/31 22:28:41.8	179.270	-0.350	-0.510	0.980
2020/01/31 22:28:41.9	179.250	-0.380	-0.530	1.030
2020/01/31 22:28:42.0	179.220	-0.400	-0.560	1.080
2020/01/31 22:28:42.1	179.200	-0.430	-0.580	1.130
2020/01/31 22:28:42.2	179.170	-0.450	-0.600	1.180
2020/01/31 22:28:42.3	179.150	-0.480	-0.620	1.230
2020/01/31 22:28:42.4	179.130	-0.500	-0.640	1.290
2020/01/31 22:28:42.5	179.110	-0.520	-0.650	1.340
2020/01/31 22:28:42.6	179.080	-0.530	-0.660	1.400
2020/01/31 22:28:42.7	179.060	-0.550	-0.680	1.450
2020/01/31 22:28:42.8	179.030	-0.560	-0.690	1.510
2020/01/31 22:28:42.9	179.010	-0.570	-0.700	1.560
2020/01/31 22:28:43.0	178.960	-0.580	-0.700	1.600
2020/01/31 22:28:43.1	178.940	-0.580	-0.710	1.650
2020/01/31 22:28:43.2	178.910	-0.580	-0.710	1.700
2020/01/31 22:28:43.3	178.890	-0.580	-0.720	1.750
2020/01/31 22:28:43.4	178.860	-0.570	-0.720	1.790
2020/01/31 22:28:43.5	178.830	-0.570	-0.720	1.830
2020/01/31 22:28:43.6	178.810	-0.550	-0.720	1.870
2020/01/31 22:28:43.7	178.780	-0.540	-0.720	1.910
2020/01/31 22:28:43.8	178.760	-0.520	-0.720	1.940
2020/01/31 22:28:43.9	178.730	-0.490	-0.710	1.980
2020/01/31 22:28:44.0	178.710	-0.470	-0.710	2.010
2020/01/31 22:28:44.1	178.680	-0.440	-0.710	2.040
2020/01/31 22:28:44.2	178.650	-0.400	-0.710	2.060
2020/01/31 22:28:44.3	178.620	-0.370	-0.700	2.080
2020/01/31 22:28:44.4	178.590	-0.330	-0.690	2.100
2020/01/31 22:28:44.5	178.560	-0.290	-0.690	2.110
2020/01/31 22:28:44.6	178.530	-0.240	-0.680	2.120
2020/01/31 22:28:44.7	178.500	-0.190	-0.670	2.130
2020/01/31 22:28:44.8	178.470	-0.140	-0.670	2.130
2020/01/31 22:28:44.9	178.440	-0.090	-0.660	2.120
2020/01/31 22:28:45.0	178.400	-0.040	-0.640	2.110
2020/01/31 22:28:45.1	178.370	0.010	-0.630	2.100
2020/01/31 22:28:45.2	178.340	0.060	-0.620	2.080
2020/01/31 22:28:45.3	178.310	0.110	-0.610	2.060
2020/01/31 22:28:45.4	178.280	0.160	-0.590	2.040
2020/01/31 22:28:45.5	178.250	0.210	-0.570	2.000
2020/01/31 22:28:45.6	178.230	0.260	-0.550	1.970
2020/01/31 22:28:45.7	178.210	0.300	-0.530	1.920
2020/01/31 22:28:45.8	178.190	0.340	-0.500	1.880
2020/01/31 22:28:45.9	178.170	0.380	-0.470	1.830
2020/01/31 22:28:46.0	178.160	0.410	-0.450	1.770
2020/01/31 22:28:46.1	178.150	0.440	-0.410	1.710
2020/01/31 22:28:46.2	178.140	0.470	-0.370	1.640
2020/01/31 22:28:46.3	178.140	0.490	-0.330	1.580
2020/01/31 22:28:46.4	178.140	0.500	-0.280	1.500
2020/01/31 22:28:46.5	178.140	0.510	-0.230	1.430
2020/01/31 22:28:46.6	178.150	0.520	-0.180	1.350
2020/01/31 22:28:46.7	178.160	0.510	-0.120	1.270
2020/01/31 22:28:46.8	178.170	0.510	-0.070	1.190
2020/01/31 22:28:46.9	178.190	0.490	-0.010	1.110
2020/01/31 22:28:47.0	178.210	0.480	0.060	1.030
2020/01/31 22:28:47.1	178.240	0.450	0.120	0.940
2020/01/31 22:28:47.2	178.260	0.420	0.190	0.860
2020/01/31 22:28:47.3	178.290	0.390	0.250	0.780
2020/01/31 22:28:47.4	178.320	0.350	0.320	0.700
2020/01/31 22:28:47.5	178.350	0.310	0.390	0.620
2020/01/31 22:28:47.6	178.380	0.260	0.450	0.540
2020/01/31 22:28:47.7	178.410	0.210	0.510	0.470
2020/01/31 22:28:47.8	178.450	0.160	0.580	0.400
2020/01/31 22:28:47.9	178.480	0.110	0.630	0.330
2020/01/31 22:28:48.0	178.530	0.050	0.690	0.260
2020/01/31 22:28:48.1	178.560	-0.010	0.740	0.200
2020/01/31 22:28:48.2	178.590	-0.060	0.790	0.140
2020/01/31 22:28:48.3	178.630	-0.120	0.830	0.090
2020/01/31 22:28:48.4	178.660	-0.180	0.860	0.040
2020/01/31 22:28:48.5	178.680	-0.240	0.890	0.000
2020/01/31 22:28:48.6	178.710	-0.290	0.910	-0.040
2020/01/31 22:28:48.7	178.740	-0.350	0.930	-0.070
2020/01/31 22:28:48.8	178.760	-0.400	0.930	-0.100
2020/01/31 22:28:48.9	178.780	-0.450	0.930	-0.120
2020/01/31 22:28:49.0	178.820	-0.500	0.920	-0.140
2020/01/31 22:28:49.1	178.830	-0.540	0.910	-0.160
2020/01/31 22:28:49.2	178.850	-0.580	0.890	-0.160
2020/01/31 22:28:49.3	178.860	-0.610	0.860	-0.170
2020/01/31 22:28:49.4	178.870	-0.640	0.820	-0.170
2020/01/31 22:28:49.5	178.880	-0.670	0.780	-0.160
2020/01/31 22:28:49.6	178.890	-0.690	0.730	-0.160
2020/01/31 22:28:49.7	178.890	-0.710	0.670	-0.140
2020/01/31 22:28:49.8	178.890	-0.720	0.610	-0.120
2020/01/31 22:28:49.9	178.890	-0.720	0.540	-0.100
2020/01/31 22:28:50.0	178.880	-0.730	0.470	-0.070
2020/01/31 22:28:50.1	178.870	-0.720	0.390	-0.040
2020/01/31 22:28:50.2	178.860	-0.720	0.310	-0.000
2020/01/31 22:28:50.3	178.850	-0.710	0.230	0.040
2020/01/31 22:28:50.4	178.830	-0.690	0.140	0.080
2020/01/31 22:28:50.5	178.810	-0.670	0.060	0.130
2020/01/31 22:28:50.6	178.780	-0.650	-0.030	0.180
2020/01/31 22:28:50.7	178.750	-0.620	-0.120	0.230
2020/01/31 22:28:50.8	178.720	-0.590	-0.200	0.290
2020/01/31 22:28:50.9	178.680	-0.550	-0.290	0.350
2020/01/31 22:28:51.0	178.640	-0.510	-0.370	0.420
2020/01/31 22:28:51.1	178.600	-0.470	-0.450	0.480
2020/01/31 22:28:51.2	178.560	-0.430	-0.530	0.550
2020/01/31 22:28:51.3	178.510	-0.380	-0.600	0.620
2020/01/31 22:28:51.4	178.460	-0.340	-0.670	0.700
2020/01/31 22:28:51.5	178.410	-0.290	-0.730	0.770
2020/01/31 22:28:51.6	178.350	-0.240	-0.790	0.840
2020/01/31 22:28:51.7	178.300	-0.180	-0.850	0.920
2020/01/31 22:28:51.8	178.240	-0.130	-0.890	0.990
2020/01/31 22:28:51.9	178.180	-0.080	-0.930	1.070
2020/01/31 22:28:52.0	178.120	-0.030	-0.970	1.150
2020/01/31 22:28:52.1	178.060	0.030	-1.000	1.220
2020/01/31 22:28:52.2	177.990	0.080	-1.020	1.290
2020/01/31 22:28:52.3	177.930	0.130	-1.040	1.350
2020/01/31 22:28:52.4	177.870	0.190	-1.050	1.410
2020/01/31 22:28:52.5	177.810	0.240	-1.060	1.470
2020/01/31 22:28:52.6	177.760	0.290	-1.060	1.520
2020/01/31 22:28:52.7	177.700	0.330	-1.050	1.570
2020/01/31 22:28:52.8	177.650	0.380	-1.040	1.610
2020/01/31 22:28:52.9	177.590	0.420	-1.020	1.650
2020/01/31 22:28:53.0	177.540	0.470	-1.000	1.680
2020/01/31 22:28:53.1	177.490	0.500	-0.980	1.700
2020/01/31 22:28:53.2	177.450	0.540	-0.950	1.720
2020/01/31 22:28:53.3	177.410	0.570	-0.920	1.730
2020/01/31 22:28:53.4	177.370	0.610	-0.880	1.730
2020/01/31 22:28:53.5	177.330	0.630	-0.840	1.730
2020/01/31 22:28:53.6	177.300	0.660	-0.800	1.720
2020/01/31 22:28:53.7	177.270	0.680	-0.750	1.710
2020/01/31 22:28:53.8	177.240	0.690	-0.710	1.690
2020/01/31 22:28:53.9	177.220	0.710	-0.660	1.660
2020/01/31 22:28:54.0	177.200	0.720	-0.610	1.630
2020/01/31 22:28:54.1	177.180	0.720	-0.560	1.590
2020/01/31 22:28:54.2	177.170	0.720	-0.510	1.550
2020/01/31 22:28:54.3	177.150	0.720	-0.450	1.510
2020/01/31 22:28:54.4	177.130	0.720	-0.400	1.460
2020/01/31 22:28:54.5	177.120	0.710	-0.340	1.410
2020/01/31 22:28:54.6	177.110	0.690	-0.290	1.360
2020/01/31 22:28:54.7	177.100	0.670	-0.230	1.310
2020/01/31 22:28:54.8	177.090	0.650	-0.180	1.250
2020/01/31 22:28:54.9	177.090	0.630	-0.120	1.200
2020/01/31 22:28:55.0	177.090	0.600	-0.070	1.140
2020/01/31 22:28:55.1	177.080	0.560	-0.010	1.090
2020/01/31 22:28:55.2	177.080	0.530	0.040	1.040
2020/01/31 22:28:55.3	177.080	0.490	0.090	0.990
2020/01/31 22:28:55.4	177.070	0.450	0.130	0.940
2020/01/31 22:28:55.5	177.070	0.410	0.180	0.890
2020/01/31 22:28:55.6	177.060	0.370	0.220	0.840
2020/01/31 22:28:55.7	177.060	0.320	0.260	0.800
2020/01/31 22:28:55.8	177.060	0.280	0.300	0.760
2020/01/31 22:28:55.9	177.050	0.230	0.330	0.730
2020/01/31 22:28:56.0	177.050	0.180	0.360	0.690
2020/01/31 22:28:56.1	177.040	0.140	0.390	0.660
2020/01/31 22:28:56.2	177.030	0.090	0.410	0.640
2020/01/31 22:28:56.3	177.020	0.050	0.430	0.620
2020/01/31 22:28:56.4	177.010	0.010	0.440	0.600
2020/01/31 22:28:56.5	177.000	-0.030	0.450	0.580
2020/01/31 22:28:56.6	176.990	-0.070	0.460	0.570
2020/01/31 22:28:56.7	176.970	-0.110	0.470	0.560
2020/01/31 22:28:56.8	176.950	-0.140	0.470	0.550
2020/01/31 22:28:56.9	176.930	-0.180	0.460	0.550
2020/01/31 22:28:57.0	176.910	-0.200	0.460	0.540
2020/01/31 22:28:57.1	176.890	-0.230	0.440	0.540
2020/01/31 22:28:57.2	176.870	-0.250	0.430	0.550
2020/01/31 22:28:57.3	176.840	-0.270	0.410	0.550
2020/01/31 22:28:57.4	176.820	-0.290	0.390	0.560
2020/01/31 22:28:57.5	176.790	-0.300	0.360	0.570
2020/01/31 22:28:57.6	176.760	-0.310	0.330	0.580
2020/01/31 22:28:57.7	176.730	-0.310	0.290	0.590
2020/01/31 22:28:57.8	176.690	-0.320	0.260	0.610
2020/01/31 22:28:57.9	176.660	-0.320	0.210	0.630
2020/01/31 22:28:58.0	176.630	-0.310	0.170	0.650
2020/01/31 22:28:58.1	176.590	-0.310	0.120	0.670
2020/01/31 22:28:58.2	176.550	-0.300	0.070	0.700
2020/01/31 22:28:58.3	176.510	-0.290	0.020	0.720
2020/01/31 22:28:58.4	176.460	-0.270	-0.030	0.750
2020/01/31 22:28:58.5	176.410	-0.260	-0.090	0.790
2020/01/31 22:28:58.6	176.360	-0.240	-0.140	0.820
2020/01/31 22:28:58.7	176.310	-0.220	-0.200	0.860
2020/01/31 22:28:58.8	176.260	-0.200	-0.250	0.900
2020/01/31 22:28:58.9	176.210	-0.180	-0.310	0.940
2020/01/31 22:28:59.0	176.160	-0.150	-0.370	0.990
2020/01/31 22:28:59.1	176.110	-0.130	-0.420	1.030
2020/01/31 22:28:59.2	176.050	-0.110	-0.480	1.090
2020/01/31 22:28:59.3	175.990	-0.080	-0.530	1.140
2020/01/31 22:28:59.4	175.930	-0.060	-0.580	1.190
2020/01/31 22:28:59.5	175.870	-0.030	-0.630	1.250
2020/01/31 22:28:59.6	175.800	-0.010	-0.670	1.310
2020/01/31 22:28:59.7	175.740	0.010	-0.710	1.370
2020/01/31 22:28:59.8	175.680	0.040	-0.750	1.430
2020/01/31 22:28:59.9	175.630	0.060	-0.780	1.490
2020/01/31 22:29:00.0	175.560	0.080	-0.810	1.550
2020/01/31 22:29:00.1	175.510	0.100	-0.830	1.610
2020/01/31 22:29:00.2	175.460	0.110	-0.840	1.670
2020/01/31 22:29:00.3	175.410	0.130	-0.850	1.720
2020/01/31 22:29:00.4	175.360	0.140	-0.860	1.770
2020/01/31 22:29:00.5	175.320	0.150	-0.850	1.810
2020/01/31 22:29:00.6	175.280	0.160	-0.840	1.850
2020/01/31 22:29:00.7	175.250	0.160	-0.830	1.890
2020/01/31 22:29:00.8	175.220	0.170	-0.800	1.920
2020/01/31 22:29:00.9	175.190	0.170	-0.780	1.950
2020/01/31 22:29:01.0	175.170	0.170	-0.740	1.970
2020/01/31 22:29:01.1	175.160	0.160	-0.700	1.980
2020/01/31 22:29:01.2	175.140	0.150	-0.660	2.000
2020/01/31 22:29:01.3	175.130	0.150	-0.610	2.010
2020/01/31 22:29:01.4	175.130	0.130	-0.560	2.010
2020/01/31 22:29:01.5	175.130	0.120	-0.510	2.010
2020/01/31 22:29:01.6	175.130	0.100	-0.450	2.010
2020/01/31 22:29:01.7	175.130	0.090	-0.400	2.000
2020/01/31 22:29:01.8	175.130	0.070	-0.340	1.990
2020/01/31 22:29:01.9	175.140	0.050	-0.280	1.980
2020/01/31 22:29:02.0	175.150	0.030	-0.230	1.970
2020/01/31 22:29:02.1	175.160	0.010	-0.180	1.950
2020/01/31 22:29:02.2	175.170	-0.020	-0.130	1.930
2020/01/31 22:29:02.3	175.180	-0.040	-0.080	1.910
2020/01/31 22:29:02.4	175.190	-0.060	-0.040	1.890
2020/01/31 22:29:02.5	175.190	-0.080	0.000	1.870
2020/01/31 22:29:02.6	175.200	-0.100	0.040	1.850
2020/01/31 22:29:02.7	175.210	-0.120	0.070	1.820
2020/01/31 22:29:02.8	175.220	-0.140	0.100	1.800
2020/01/31 22:29:02.9	175.220	-0.160	0.120	1.770
2020/01/31 22:29:03.0	175.230	-0.170	0.140	1.740
2020/01/31 22:29:03.1	175.230	-0.190	0.150	1.710
2020/01/31 22:29:03.2	175.230	-0.200	0.150	1.690
2020/01/31 22:29:03.3	175.240	-0.210	0.150	1.660
2020/01/31 22:29:03.4	175.240	-0.210	0.150	1.630
2020/01/31 22:29:03.5	175.240	-0.220	0.140	1.600
2020/01/31 22:29:03.6	175.240	-0.220	0.130	1.570
2020/01/31 22:29:03.7	175.240	-0.220	0.110	1.540
2020/01/31 22:29:03.8	175.230	-0.220	0.080	1.510
2020/01/31 22:29:03.9	175.230	-0.220	0.060	1.490
2020/01/31 22:29:04.0	175.220	-0.220	0.030	1.450
2020/01/31 22:29:04.1	175.220	-0.210	-0.010	1.430
2020/01/31 22:29:04.2	175.210	-0.200	-0.040	1.400
2020/01/31 22:29:04.3	175.200	-0.190	-0.070	1.370
2020/01/31 22:29:04.4	175.190	-0.180	-0.110	1.350
2020/01/31 22:29:04.5	175.190	-0.170	-0.150	1.320
2020/01/31 22:29:04.6	175.180	-0.150	-0.180	1.300
2020/01/31 22:29:04.7	175.170	-0.140	-0.220	1.280
2020/01/31 22:29:04.8	175.160	-0.130	-0.260	1.260
2020/01/31 22:29:04.9	175.150	-0.110	-0.290	1.240
2020/01/31 22:29:05.0	175.140	-0.100	-0.320	1.220
2020/01/31 22:29:05.1	175.130	-0.080	-0.350	1.200
2020/01/31 22:29:05.2	175.120	-0.070	-0.380	1.190
2020/01/31 22:29:05.3	175.120	-0.060	-0.410	1.180
2020/01/31 22:29:05.4	175.110	-0.050	-0.430	1.170
2020/01/31 22:29:05.5	175.100	-0.030	-0.440	1.160
2020/01/31 22:29:05.6	175.090	-0.020	-0.460	1.160
2020/01/31 22:29:05.7	175.090	-0.010	-0.470	1.160
2020/01/31 22:29:05.8	175.080	-0.010	-0.470	1.160
2020/01/31 22:29:05.9	175.080	0.000	-0.480	1.160
2020/01/31 22:29:06.0	175.080	0.010	-0.480	1.160
2020/01/31 22:29:06.1	175.080	0.010	-0.470	1.170
2020/01/31 22:29:06.2	175.070	0.020	-0.460	1.170
2020/01/31 22:29:06.3	175.070	0.020	-0.440	1.180
2020/01/31 22:29:06.4	175.070	0.020	-0.420	1.190
2020/01/31 22:29:06.5	175.060	0.020	-0.400	1.200
2020/01/31 22:29:06.6	175.060	0.020	-0.370	1.210
2020/01/31 22:29:06.7	175.060	0.020	-0.340	1.220
2020/01/31 22:29:06.8	175.050	0.020	-0.310	1.240
2020/01/31 22:29:06.9	175.050	0.020	-0.280	1.250
2020/01/31 22:29:07.0	175.050	0.020	-0.240	1.270
2020/01/31 22:29:07.1	175.050	0.020	-0.200	1.280
2020/01/31 22:29:07.2	175.040	0.020	-0.170	1.300
2020/01/31 22:29:07.3	175.040	0.020	-0.130	1.310
2020/01/31 22:29:07.4	175.030	0.010	-0.090	1.330
2020/01/31 22:29:07.5	175.030	0.010	-0.050	1.340
2020/01/31 22:29:07.6	175.020	0.010	-0.010	1.360
2020/01/31 22:29:07.7	175.010	0.010	0.020	1.370
2020/01/31 22:29:07.8	175.000	0.010	0.060	1.390
2020/01/31 22:29:07.9	174.990	0.010	0.090	1.400
2020/01/31 22:29:08.0	174.990	0.010	0.110	1.410
2020/01/31 22:29:08.1	174.980	0.020	0.140	1.420
2020/01/31 22:29:08.2	174.970	0.020	0.160	1.430
2020/01/31 22:29:08.3	174.960	0.020	0.180	1.450
2020/01/31 22:29:08.4	174.950	0.030	0.200	1.460
2020/01/31 22:29:08.5	174.930	0.030	0.220	1.470
2020/01/31 22:29:08.6	174.920	0.040	0.230	1.480
2020/01/31 22:29:08.7	174.900	0.050	0.240	1.480
2020/01/31 22:29:08.8	174.890	0.060	0.250	1.490
2020/01/31 22:29:08.9	174.870	0.060	0.260	1.500
2020/01/31 22:29:09.0	174.860	0.070	0.260	1.510
2020/01/31 22:29:09.1	174.850	0.080	0.260	1.510
2020/01/31 22:29:09.2	174.830	0.090	0.260	1.510
2020/01/31 22:29:09.3	174.820	0.100	0.260	1.510
2020/01/31 22:29:09.4	174.810	0.110	0.250	1.510
2020/01/31 22:29:09.5	174.800	0.130	0.250	1.500
2020/01/31 22:29:09.6	174.790	0.140	0.250	1.490
2020/01/31 22:29:09.7	174.790	0.150	0.240	1.480
2020/01/31 22:29:09.8	174.780	0.150	0.240	1.460
2020/01/31 22:29:09.9	174.780	0.160	0.240	1.450
2020/01/31 22:29:10.0	174.770	0.170	0.230	1.420
2020/01/31 22:29:10.1	174.780	0.180	0.230	1.400
2020/01/31 22:29:10.2	174.780	0.180	0.230	1.370
2020/01/31 22:29:10.3	174.790	0.190	0.230	1.340
2020/01/31 22:29:10.4	174.800	0.190	0.230	1.310
2020/01/31 22:29:10.5	174.810	0.190	0.230	1.280
2020/01/31 22:29:10.6	174.820	0.190	0.240	1.250
2020/01/31 22:29:10.7	174.830	0.190	0.240	1.210
2020/01/31 22:29:10.8	174.850	0.190	0.240	1.170
2020/01/31 22:29:10.9	174.860	0.190	0.240	1.130
2020/01/31 22:29:11.0	174.870	0.180	0.240	1.100
2020/01/31 22:29:11.1	174.890	0.170	0.230	1.060
2020/01/31 22:29:11.2	174.910	0.170	0.230	1.010
2020/01/31 22:29:11.3	174.920	0.160	0.220	0.970
2020/01/31 22:29:11.4	174.940	0.150	0.210	0.930
2020/01/31 22:29:11.5	174.950	0.140	0.200	0.890
2020/01/31 22:29:11.6	174.960	0.130	0.180	0.850
2020/01/31 22:29:11.7	174.980	0.120	0.160	0.810
2020/01/31 22:29:11.8	174.990	0.100	0.130	0.770
2020/01/31 22:29:11.9	174.990	0.090	0.100	0.730
2020/01/31 22:29:12.0	175.000	0.080	0.070	0.690
2020/01/31 22:29:12.1	175.000	0.070	0.020	0.660
2020/01/31 22:29:12.2	175.000	0.060	-0.020	0.630
2020/01/31 22:29:12.3	174.990	0.050	-0.070	0.600
2020/01/31 22:29:12.4	174.990	0.040	-0.130	0.570
2020/01/31 22:29:12.5	174.980	0.020	-0.190	0.540
2020/01/31 22:29:12.6	174.960	0.010	-0.260	0.520
2020/01/31 22:29:12.7	174.950	0.010	-0.330	0.500
2020/01/31 22:29:12.8	174.930	-0.000	-0.410	0.480
2020/01/31 22:29:12.9	174.910	-0.010	-0.480	0.470
2020/01/31 22:29:13.0	174.870	-0.020	-0.560	0.460
2020/01/31 22:29:13.1	174.850	-0.030	-0.640	0.450
2020/01/31 22:29:13.2	174.820	-0.030	-0.720	0.440
2020/01/31 22:29:13.3	174.790	-0.040	-0.800	0.440
2020/01/31 22:29:13.4	174.750	-0.040	-0.880	0.440
2020/01/31 22:29:13.5	174.720	-0.050	-0.950	0.440
2020/01/31 22:29:13.6	174.690	-0.060	-1.020	0.440
2020/01/31 22:29:13.7	174.650	-0.060	-1.090	0.450
2020/01/31 22:29:13.8	174.620	-0.070	-1.150	0.460
2020/01/31 22:29:13.9	174.580	-0.070	-1.210	0.470
2020/01/31 22:29:14.0	174.530	-0.080	-1.260	0.480
2020/01/31 22:29:14.1	174.490	-0.090	-1.300	0.500
2020/01/31 22:29:14.2	174.460	-0.100	-1.330	0.520
2020/01/31 22:29:14.3	174.430	-0.100	-1.360	0.530
2020/01/31 22:29:14.4	174.390	-0.110	-1.380	0.550
2020/01/31 22:29:14.5	174.360	-0.120	-1.390	0.570
2020/01/31 22:29:14.6	174.330	-0.130	-1.380	0.590
2020/01/31 22:29:14.7	174.300	-0.140	-1.370	0.610
2020/01/31 22:29:14.8	174.270	-0.160	-1.350	0.640
2020/01/31 22:29:14.9	174.250	-0.170	-1.320	0.660
2020/01/31 22:29:15.0	174.230	-0.180	-1.290	0.680
2020/01/31 22:29:15.1	174.210	-0.190	-1.240	0.700
2020/01/31 22:29:15.2	174.190	-0.200	-1.190	0.710
2020/01/31 22:29:15.3	174.170	-0.220	-1.120	0.730
2020/01/31 22:29:15.4	174.150	-0.230	-1.060	0.740
2020/01/31 22:29:15.5	174.140	-0.240	-0.980	0.760
2020/01/31 22:29:15.6	174.120	-0.250	-0.900	0.770
2020/01/31 22:29:15.7	174.110	-0.260	-0.820	0.780
2020/01/31 22:29:15.8	174.090	-0.280	-0.730	0.780
2020/01/31 22:29:15.9	174.080	-0.280	-0.640	0.790
2020/01/31 22:29:16.0	174.060	-0.290	-0.550	0.800
2020/01/31 22:29:16.1	174.040	-0.300	-0.460	0.800
2020/01/31 22:29:16.2	174.030	-0.300	-0.360	0.800
2020/01/31 22:29:16.3	174.010	-0.310	-0.280	0.790
2020/01/31 22:29:16.4	173.990	-0.310	-0.190	0.790
2020/01/31 22:29:16.5	173.970	-0.310	-0.110	0.780
2020/01/31 22:29:16.6	173.950	-0.310	-0.030	0.770
2020/01/31 22:29:16.7	173.920	-0.300	0.050	0.760
2020/01/31 22:29:16.8	173.890	-0.290	0.120	0.750
2020/01/31 22:29:16.9	173.870	-0.280	0.180	0.730
2020/01/31 22:29:17.0	173.820	-0.270	0.240	0.720
2020/01/31 22:29:17.1	173.790	-0.250	0.290	0.700
2020/01/31 22:29:17.2	173.750	-0.230	0.330	0.680
2020/01/31 22:29:17.3	173.720	-0.210	0.370	0.650
2020/01/31 22:29:17.4	173.680	-0.190	0.390	0.630
2020/01/31 22:29:17.5	173.640	-0.170	0.420	0.600
2020/01/31 22:29:17.6	173.600	-0.140	0.430	0.580
2020/01/31 22:29:17.7	173.550	-0.110	0.440	0.550
2020/01/31 22:29:17.8	173.510	-0.080	0.440	0.520
2020/01/31 22:29:17.9	173.460	-0.050	0.440	0.490
2020/01/31 22:29:18.0	173.410	-0.020	0.430	0.460
2020/01/31 22:29:18.1	173.360	0.010	0.420	0.430
2020/01/31 22:29:18.2	173.310	0.050	0.400	0.400
2020/01/31 22:29:18.3	173.250	0.080	0.380	0.370
2020/01/31 22:29:18.4	173.200	0.110	0.360	0.350
2020/01/31 22:29:18.5	173.150	0.140	0.330	0.320
2020/01/31 22:29:18.6	173.100	0.170	0.300	0.300
2020/01/31 22:29:18.7	173.040	0.200	0.270	0.270
2020/01/31 22:29:18.8	172.990	0.230	0.240	0.250
2020/01/31 22:29:18.9	172.940	0.250	0.200	0.230
2020/01/31 22:29:19.0	172.890	0.270	0.170	0.210
2020/01/31 22:29:19.1	172.840	0.290	0.140	0.190
2020/01/31 22:29:19.2	172.800	0.310	0.120	0.170
2020/01/31 22:29:19.3	172.750	0.320	0.090	0.150
2020/01/31 22:29:19.4	172.710	0.330	0.070	0.140
2020/01/31 22:29:19.5	172.670	0.330	0.050	0.130
2020/01/31 22:29:19.6	172.630	0.330	0.030	0.120
2020/01/31 22:29:19.7	172.600	0.330	0.020	0.110
2020/01/31 22:29:19.8	172.570	0.320	0.010	0.110
2020/01/31 22:29:19.9	172.540	0.310	0.010	0.110
2020/01/31 22:29:20.0	172.490	0.290	0.010	0.110
2020/01/31 22:29:20.1	172.460	0.270	0.010	0.120
2020/01/31 22:29:20.2	172.440	0.240	0.020	0.130
2020/01/31 22:29:20.3	172.410	0.210	0.030	0.150
2020/01/31 22:29:20.4	172.390	0.180	0.040	0.170
2020/01/31 22:29:20.5	172.370	0.140	0.060	0.190
2020/01/31 22:29:20.6	172.350	0.100	0.080	0.220
2020/01/31 22:29:20.7	172.340	0.060	0.100	0.250
2020/01/31 22:29:20.8	172.320	0.020	0.130	0.280
2020/01/31 22:29:20.9	172.300	-0.030	0.160	0.310
2020/01/31 22:29:21.0	172.270	-0.080	0.180	0.350
2020/01/31 22:29:21.1	172.250	-0.130	0.210	0.400
2020/01/31 22:29:21.2	172.240	-0.180	0.240	0.440
2020/01/31 22:29:21.3	172.230	-0.230	0.270	0.490
2020/01/31 22:29:21.4	172.210	-0.280	0.300	0.540
2020/01/31 22:29:21.5	172.200	-0.330	0.330	0.590
2020/01/31 22:29:21.6	172.180	-0.370	0.360	0.650
2020/01/31 22:29:21.7	172.170	-0.420	0.380	0.710
2020/01/31 22:29:21.8	172.150	-0.460	0.400	0.770
2020/01/31 22:29:21.9	172.130	-0.500	0.410	0.830
2020/01/31 22:29:22.0	172.110	-0.530	0.420	0.890
2020/01/31 22:29:22.1	172.090	-0.560	0.430	0.960
2020/01/31 22:29:22.2	172.070	-0.590	0.430	1.030
2020/01/31 22:29:22.3	172.040	-0.610	0.430	1.100
2020/01/31 22:29:22.4	172.020	-0.620	0.420	1.170
2020/01/31 22:29:22.5	171.990	-0.630	0.400	1.250
2020/01/31 22:29:22.6	171.960	-0.630	0.380	1.320
2020/01/31 22:29:22.7	171.920	-0.630	0.350	1.400
2020/01/31 22:29:22.8	171.880	-0.620	0.310	1.470
2020/01/31 22:29:22.9	171.850	-0.600	0.270	1.550
2020/01/31 22:29:23.0	171.790	-0.580	0.230	1.630
2020/01/31 22:29:23.1	171.740	-0.550	0.180	1.710
2020/01/31 22:29:23.2	171.690	-0.510	0.120	1.790
2020/01/31 22:29:23.3	171.640	-0.470	0.060	1.870
2020/01/31 22:29:23.4	171.590	-0.420	0.000	1.940
2020/01/31 22:29:23.5	171.530	-0.370	-0.060	2.020
2020/01/31 22:29:23.6	171.470	-0.310	-0.130	2.090
2020/01/31 22:29:23.7	171.400	-0.240	-0.200	2.160
2020/01/31 22:29:23.8	171.340	-0.180	-0.270	2.240
2020/01/31 22:29:23.9	171.270	-0.110	-0.340	2.310
2020/01/31 22:29:24.0	171.170	-0.030	-0.410	2.370
2020/01/31 22:29:24.1	171.100	0.040	-0.480	2.440
2020/01/31 22:29:24.2	171.020	0.120	-0.540	2.500
2020/01/31 22:29:24.3	170.950	0.200	-0.610	2.570
2020/01/31 22:29:24.4	170.870	0.280	-0.670	2.630
2020/01/31 22:29:24.5	170.790	0.350	-0.730	2.680
2020/01/31 22:29:24.6	170.710	0.430	-0.780	2.730
2020/01/31 22:29:24.7	170.630	0.500	-0.830	2.780
2020/01/31 22:29:24.8	170.550	0.580	-0.880	2.830
2020/01/31 22:29:24.9	170.470	0.650	-0.920	2.870
2020/01/31 22:29:25.0	170.420	0.710	-0.950	2.910
2020/01/31 22:29:25.1	170.340	0.770	-0.980	2.940
2020/01/31 22:29:25.2	170.270	0.830	-1.000	2.960
2020/01/31 22:29:25.3	170.200	0.870	-1.010	2.980
2020/01/31 22:29:25.4	170.130	0.920	-1.020	3.000
2020/01/31 22:29:25.5	170.070	0.960	-1.030	3.000
2020/01/31 22:29:25.6	170.010	0.990	-1.020	3.010
2020/01/31 22:29:25.7	169.960	1.010	-1.010	3.000
2020/01/31 22:29:25.8	169.910	1.030	-1.000	2.990
2020/01/31 22:29:25.9	169.860	1.040	-0.980	2.970
2020/01/31 22:29:26.0	169.820	1.040	-0.960	2.940
2020/01/31 22:29:26.1	169.780	1.040	-0.930	2.910
2020/01/31 22:29:26.2	169.750	1.030	-0.890	2.870
2020/01/31 22:29:26.3	169.720	1.010	-0.850	2.830
2020/01/31 22:29:26.4	169.690	0.990	-0.810	2.780
2020/01/31 22:29:26.5	169.670	0.950	-0.760	2.720
2020/01/31 22:29:26.6	169.650	0.920	-0.710	2.660
2020/01/31 22:29:26.7	169.640	0.870	-0.660	2.590
2020/01/31 22:29:26.8	169.620	0.820	-0.600	2.520
2020/01/31 22:29:26.9	169.620	0.770	-0.550	2.440
2020/01/31 22:29:27.0	169.620	0.710	-0.490	2.360
2020/01/31 22:29:27.1	169.620	0.650	-0.430	2.270
2020/01/31 22:29:27.2	169.620	0.580	-0.370	2.190
2020/01/31 22:29:27.3	169.620	0.520	-0.320	2.100
2020/01/31 22:29:27.4	169.630	0.440	-0.260	2.010
2020/01/31 22:29:27.5	169.630	0.370	-0.210	1.920
2020/01/31 22:29:27.6	169.640	0.300	-0.160	1.830
2020/01/31 22:29:27.7	169.650	0.220	-0.110	1.740
2020/01/31 22:29:27.8	169.660	0.150	-0.060	1.650
2020/01/31 22:29:27.9	169.660	0.070	-0.020	1.560
2020/01/31 22:29:28.0	169.680	-0.000	0.010	1.470
2020/01/31 22:29:28.1	169.680	-0.080	0.050	1.390
2020/01/31 22:29:28.2	169.690	-0.150	0.080	1.310
2020/01/31 22:29:28.3	169.700	-0.210	0.100	1.240
2020/01/31 22:29:28.4	169.700	-0.280	0.120	1.170
2020/01/31 22:29:28.5	169.700	-0.340	0.140	1.100
2020/01/31 22:29:28.6	169.700	-0.400	0.150	1.040
2020/01/31 22:29:28.7	169.700	-0.450	0.160	0.980
2020/01/31 22:29:28.8	169.700	-0.500	0.160	0.930
2020/01/31 22:29:28.9	169.690	-0.550	0.150	0.890
2020/01/31 22:29:29.0	169.690	-0.590	0.140	0.850
2020/01/31 22:29:29.1	169.680	-0.630	0.130	0.820
2020/01/31 22:29:29.2	169.660	-0.660	0.110	0.790
2020/01/31 22:29:29.3	169.650	-0.690	0.090	0.770
2020/01/31 22:29:29.4	169.630	-0.710	0.060	0.750
2020/01/31 22:29:29.5	169.600	-0.730	0.030	0.740
2020/01/31 22:29:29.6	169.580	-0.740	-0.000	0.740
2020/01/31 22:29:29.7	169.550	-0.750	-0.040	0.740
2020/01/31 22:29:29.8	169.520	-0.750	-0.080	0.740
2020/01/31 22:29:29.9	169.490	-0.750	-0.120	0.750
2020/01/31 22:29:30.0	169.440	-0.750	-0.160	0.770
2020/01/31 22:29:30.1	169.410	-0.740	-0.210	0.790
2020/01/31 22:29:30.2	169.370	-0.730	-0.250	0.810
2020/01/31 22:29:30.3	169.330	-0.720	-0.290	0.840
2020/01/31 22:29:30.4	169.290	-0.700	-0.330	0.870
2020/01/31 22:29:30.5	169.240	-0.680	-0.370	0.900
2020/01/31 22:29:30.6	169.200	-0.660	-0.410	0.930
2020/01/31 22:29:30.7	169.150	-0.640	-0.440	0.970
2020/01/31 22:29:30.8	169.100	-0.620	-0.480	1.010
2020/01/31 22:29:30.9	169.050	-0.590	-0.510	1.050
2020/01/31 22:29:31.0	169.020	-0.560	-0.530	1.100
2020/01/31 22:29:31.1	168.970	-0.540	-0.560	1.140
2020/01/31 22:29:31.2	168.920	-0.510	-0.570	1.190
2020/01/31 22:29:31.3	168.870	-0.480	-0.590	1.230
2020/01/31 22:29:31.4	168.810	-0.450	-0.600	1.280
2020/01/31 22:29:31.5	168.770	-0.430	-0.600	1.320
2020/01/31 22:29:31.6	168.720	-0.400	-0.600	1.370
2020/01/31 22:29:31.7	168.670	-0.370	-0.590	1.410
2020/01/31 22:29:31.8	168.620	-0.350	-0.580	1.460
2020/01/31 22:29:31.9	168.570	-0.320	-0.560	1.500
2020/01/31 22:29:32.0	168.530	-0.300	-0.530	1.550
2020/01/31 22:29:32.1	168.490	-0.270	-0.510	1.590
2020/01/31 22:29:32.2	168.440	-0.250	-0.470	1.640
2020/01/31 22:29:32.3	168.400	-0.230	-0.430	1.670
2020/01/31 22:29:32.4	168.360	-0.210	-0.390	1.710
2020/01/31 22:29:32.5	168.320	-0.190	-0.350	1.750
2020/01/31 22:29:32.6	168.290	-0.170	-0.300	1.780
2020/01/31 22:29:32.7	168.250	-0.160	-0.240	1.810
2020/01/31 22:29:32.8	168.220	-0.140	-0.190	1.830
2020/01/31 22:29:32.9	168.190	-0.120	-0.130	1.850
2020/01/31 22:29:33.0	168.170	-0.110	-0.080	1.870
2020/01/31 22:29:33.1	168.150	-0.090	-0.020	1.880
2020/01/31 22:29:33.2	168.130	-0.070	0.040	1.890
2020/01/31 22:29:33.3	168.110	-0.060	0.100	1.890
2020/01/31 22:29:33.4	168.100	-0.040	0.160	1.890
2020/01/31 22:29:33.5	168.080	-0.030	0.220	1.880
2020/01/31 22:29:33.6	168.080	-0.010	0.270	1.870
2020/01/31 22:29:33.7	168.070	0.010	0.320	1.850
2020/01/31 22:29:33.8	168.070	0.030	0.370	1.830
2020/01/31 22:29:33.9	168.070	0.040	0.420	1.790
2020/01/31 22:29:34.0	168.070	0.060	0.470	1.760
2020/01/31 22:29:34.1	168.070	0.080	0.510	1.720
2020/01/31 22:29:34.2	168.080	0.100	0.550	1.670
2020/01/31 22:29:34.3	168.090	0.120	0.580	1.610
2020/01/31 22:29:34.4	168.100	0.140	0.610	1.560
2020/01/31 22:29:34.5	168.120	0.160	0.640	1.500
2020/01/31 22:29:34.6	168.140	0.170	0.660	1.430
2020/01/31 22:29:34.7	168.160	0.190	0.680	1.370
2020/01/31 22:29:34.8	168.180	0.210	0.690	1.300
2020/01/31 22:29:34.9	168.200	0.230	0.700	1.230
2020/01/31 22:29:35.0	168.210	0.250	0.700	1.150
2020/01/31 22:29:35.1	168.240	0.260	0.700	1.080
2020/01/31 22:29:35.2	168.270	0.280	0.700	1.010
2020/01/31 22:29:35.3	168.300	0.290	0.690	0.930
2020/01/31 22:29:35.4	168.330	0.300	0.670	0.860
2020/01/31 22:29:35.5	168.360	0.310	0.660	0.790
2020/01/31 22:29:35.6	168.400	0.320	0.630	0.720
2020/01/31 22:29:35.7	168.430	0.330	0.610	0.650
2020/01/31 22:29:35.8	168.470	0.340	0.570	0.590
2020/01/31 22:29:35.9	168.500	0.340	0.540	0.530
2020/01/31 22:29:36.0	168.530	0.340	0.500	0.470
2020/01/31 22:29:36.1	168.570	0.340	0.460	0.410
2020/01/31 22:29:36.2	168.600	0.340	0.410	0.370
2020/01/31 22:29:36.3	168.630	0.330	0.360	0.320
2020/01/31 22:29:36.4	168.650	0.330	0.300	0.290
2020/01/31 22:29:36.5	168.680	0.320	0.240	0.250
2020/01/31 22:29:36.6	168.700	0.310	0.180	0.230
2020/01/31 22:29:36.7	168.720	0.300	0.120	0.200
2020/01/31 22:29:36.8	168.740	0.280	0.050	0.190
2020/01/31 22:29:36.9	168.750	0.270	-0.010	0.180
2020/01/31 22:29:37.0	168.770	0.250	-0.080	0.180
2020/01/31 22:29:37.1	168.780	0.240	-0.160	0.180
2020/01/31 22:29:37.2	168.790	0.220	-0.230	0.190
2020/01/31 22:29:37.3	168.790	0.200	-0.300	0.210
2020/01/31 22:29:37.4	168.790	0.180	-0.380	0.230
2020/01/31 22:29:37.5	168.780	0.160	-0.450	0.260
2020/01/31 22:29:37.6	168.770	0.150	-0.520	0.290
2020/01/31 22:29:37.7	168.760	0.130	-0.600	0.340
2020/01/31 22:29:37.8	168.740	0.110	-0.670	0.380
2020/01/31 22:29:37.9	168.720	0.090	-0.740	0.430
2020/01/31 22:29:38.0	168.700	0.080	-0.810	0.500
2020/01/31 22:29:38.1	168.680	0.060	-0.870	0.560
2020/01/31 22:29:38.2	168.650	0.050	-0.930	0.620
2020/01/31 22:29:38.3	168.620	0.030	-0.990	0.690
2020/01/31 22:29:38.4	168.590	0.020	-1.050	0.770
2020/01/31 22:29:38.5	168.550	0.010	-1.100	0.850
2020/01/31 22:29:38.6	168.510	0.000	-1.140	0.930
2020/01/31 22:29:38.7	168.480	-0.010	-1.180	1.010
2020/01/31 22:29:38.8	168.440	-0.010	-1.220	1.090
2020/01/31 22:29:38.9	168.390	-0.010	-1.250	1.170
2020/01/31 22:29:39.0	168.350	-0.020	-1.280	1.260
2020/01/31 22:29:39.1	168.310	-0.020	-1.310	1.350
2020/01/31 22:29:39.2	168.270	-0.010	-1.320	1.430
2020/01/31 22:29:39.3	168.220	-0.010	-1.330	1.510
2020/01/31 22:29:39.4	168.180	-0.010	-1.340	1.590
2020/01/31 22:29:39.5	168.130	0.000	-1.340	1.670
2020/01/31 22:29:39.6	168.090	0.010	-1.340	1.750
2020/01/31 22:29:39.7	168.040	0.020	-1.330	1.820
2020/01/31 22:29:39.8	168.000	0.030	-1.310	1.890
2020/01/31 22:29:39.9	167.950	0.050	-1.300	1.960
2020/01/31 22:29:40.0	167.910	0.060	-1.270	2.020
2020/01/31 22:29:40.1	167.870	0.070	-1.240	2.080
2020/01/31 22:29:40.2	167.820	0.090	-1.210	2.140
2020/01/31 22:29:40.3	167.780	0.110	-1.180	2.190
2020/01/31 22:29:40.4	167.730	0.120	-1.140	2.240
2020/01/31 22:29:40.5	167.690	0.140	-1.100	2.290
2020/01/31 22:29:40.6	167.650	0.150	-1.060	2.330
2020/01/31 22:29:40.7	167.610	0.170	-1.010	2.360
2020/01/31 22:29:40.8	167.560	0.180	-0.960	2.400
2020/01/31 22:29:40.9	167.530	0.200	-0.910	2.420
2020/01/31 22:29:41.0	167.490	0.210	-0.850	2.440
2020/01/31 22:29:41.1	167.450	0.220	-0.790	2.460
2020/01/31 22:29:41.2	167.420	0.230	-0.730	2.470
2020/01/31 22:29:41.3	167.380	0.240	-0.670	2.470
2020/01/31 22:29:41.4	167.350	0.250	-0.610	2.470
2020/01/31 22:29:41.5	167.330	0.250	-0.540	2.460
2020/01/31 22:29:41.6	167.300	0.250	-0.480	2.450
2020/01/31 22:29:41.7	167.280	0.250	-0.410	2.430
2020/01/31 22:29:41.8	167.260	0.250	-0.340	2.400
2020/01/31 22:29:41.9	167.240	0.240	-0.270	2.360
2020/01/31 22:29:42.0	167.220	0.230	-0.200	2.320
2020/01/31 22:29:42.1	167.210	0.220	-0.120	2.270
2020/01/31 22:29:42.2	167.200	0.210	-0.050	2.220
2020/01/31 22:29:42.3	167.200	0.190	0.020	2.160
2020/01/31 22:29:42.4	167.200	0.170	0.090	2.100
2020/01/31 22:29:42.5	167.200	0.150	0.170	2.030
2020/01/31 22:29:42.6	167.200	0.120	0.240	1.960
2020/01/31 22:29:42.7	167.210	0.100	0.310	1.880
2020/01/31 22:29:42.8	167.220	0.070	0.380	1.800
2020/01/31 22:29:42.9	167.230	0.040	0.440	1.720
2020/01/31 22:29:43.0	167.240	0.000	0.510	1.630
2020/01/31 22:29:43.1	167.260	-0.030	0.580	1.540
2020/01/31 22:29:43.2	167.270	-0.070	0.640	1.460
2020/01/31 22:29:43.3	167.290	-0.100	0.690	1.370
2020/01/31 22:29:43.4	167.310	-0.140	0.750	1.270
2020/01/31 22:29:43.5	167.330	-0.180	0.800	1.180
2020/01/31 22:29:43.6	167.350	-0.220	0.840	1.090
2020/01/31 22:29:43.7	167.370	-0.250	0.890	1.000
2020/01/31 22:29:43.8	167.390	-0.290	0.930	0.910
2020/01/31 22:29:43.9	167.410	-0.330	0.960	0.820
2020/01/31 22:29:44.0	167.430	-0.370	0.980	0.730
2020/01/31 22:29:44.1	167.450	-0.400	1.010	0.640
2020/01/31 22:29:44.2	167.470	-0.430	1.030	0.560
2020/01/31 22:29:44.3	167.480	-0.470	1.040	0.470
2020/01/31 22:29:44.4	167.500	-0.500	1.050	0.400
2020/01/31 22:29:44.5	167.510	-0.530	1.050	0.320
2020/01/31 22:29:44.6	167.520	-0.550	1.040	0.250
2020/01/31 22:29:44.7	167.530	-0.580	1.030	0.180
2020/01/31 22:29:44.8	167.530	-0.600	1.010	0.120
2020/01/31 22:29:44.9	167.540	-0.620	0.990	0.060
2020/01/31 22:29:45.0	167.530	-0.640	0.960	0.000
2020/01/31 22:29:45.1	167.530	-0.650	0.920	-0.050
2020/01/31 22:29:45.2	167.520	-0.660	0.880	-0.090
2020/01/31 22:29:45.3	167.510	-0.670	0.830	-0.130
2020/01/31 22:29:45.4	167.500	-0.680	0.770	-0.170
2020/01/31 22:29:45.5	167.480	-0.680	0.710	-0.200
2020/01/31 22:29:45.6	167.460	-0.680	0.640	-0.220
2020/01/31 22:29:45.7	167.440	-0.670	0.570	-0.230
2020/01/31 22:29:45.8	167.410	-0.660	0.490	-0.240
2020/01/31 22:29:45.9	167.380	-0.650	0.400	-0.250
2020/01/31 22:29:46.0	167.330	-0.630	0.320	-0.250
2020/01/31 22:29:46.1	167.300	-0.610	0.230	-0.240
2020/01/31 22:29:46.2	167.250	-0.580	0.130	-0.220
2020/01/31 22:29:46.3	167.210	-0.560	0.040	-0.200
2020/01/31 22:29:46.4	167.160	-0.530	-0.060	-0.170
2020/01/31 22:29:46.5	167.110	-0.490	-0.160	-0.130
2020/01/31 22:29:46.6	167.050	-0.460	-0.260	-0.090
2020/01/31 22:29:46.7	166.990	-0.420	-0.350	-0.050
2020/01/31 22:29:46.8	166.930	-0.370	-0.450	0.000
2020/01/31 22:29:46.9	166.870	-0.330	-0.540	0.060
2020/01/31 22:29:47.0	166.800	-0.280	-0.630	0.120
2020/01/31 22:29:47.1	166.730	-0.240	-0.710	0.180
2020/01/31 22:29:47.2	166.670	-0.190	-0.790	0.240
2020/01/31 22:29:47.3	166.600	-0.140	-0.870	0.300
2020/01/31 22:29:47.4	166.530	-0.090	-0.940	0.370
2020/01/31 22:29:47.5	166.470	-0.040	-1.000	0.430
2020/01/31 22:29:47.6	166.400	0.010	-1.050	0.500
2020/01/31 22:29:47.7	166.330	0.060	-1.090	0.560
2020/01/31 22:29:47.8	166.270	0.110	-1.130	0.620
2020/01/31 22:29:47.9	166.200	0.160	-1.160	0.680
2020/01/31 22:29:48.0	166.130	0.210	-1.180	0.740
2020/01/31 22:29:48.1	166.070	0.260	-1.190	0.800
2020/01/31 22:29:48.2	166.010	0.300	-1.200	0.850
2020/01/31 22:29:48.3	165.950	0.340	-1.200	0.900
2020/01/31 22:29:48.4	165.880	0.380	-1.180	0.950
2020/01/31 22:29:48.5	165.830	0.410	-1.170	0.990
2020/01/31 22:29:48.6	165.770	0.450	-1.140	1.030
2020/01/31 22:29:48.7	165.710	0.480	-1.110	1.060
2020/01/31 22:29:48.8	165.650	0.510	-1.080	1.100
2020/01/31 22:29:48.9	165.600	0.530	-1.040	1.130
2020/01/31 22:29:49.0	165.540	0.550	-0.990	1.150
2020/01/31 22:29:49.1	165.480	0.570	-0.950	1.170
2020/01/31 22:29:49.2	165.430	0.580	-0.900	1.190
2020/01/31 22:29:49.3	165.380	0.600	-0.840	1.200
2020/01/31 22:29:49.4	165.320	0.610	-0.790	1.220
2020/01/31 22:29:49.5	165.270	0.610	-0.730	1.220
2020/01/31 22:29:49.6	165.220	0.620	-0.680	1.230
2020/01/31 22:29:49.7	165.170	0.620	-0.630	1.230
2020/01/31 22:29:49.8	165.120	0.620	-0.570	1.240
2020/01/31 22:29:49.9	165.070	0.610	-0.520	1.240
2020/01/31 22:29:50.0	165.030	0.610	-0.470	1.240
2020/01/31 22:29:50.1	164.980	0.600	-0.420	1.230
2020/01/31 22:29:50.2	164.940	0.590	-0.380	1.230
2020/01/31 22:29:50.3	164.890	0.580	-0.340	1.220
2020/01/31 22:29:50.4	164.850	0.570	-0.300	1.220
2020/01/31 22:29:50.5	164.810	0.550	-0.260	1.210
2020/01/31 22:29:50.6	164.760	0.540	-0.230	1.200
2020/01/31 22:29:50.7	164.720	0.520	-0.200	1.190
2020/01/31 22:29:50.8	164.690	0.500	-0.170	1.180
2020/01/31 22:29:50.9	164.650	0.490	-0.150	1.160
2020/01/31 22:29:51.0	164.610	0.470	-0.130	1.150
2020/01/31 22:29:51.1	164.570	0.450	-0.120	1.140
2020/01/31 22:29:51.2	164.540	0.420	-0.100	1.120
2020/01/31 22:29:51.3	164.510	0.400	-0.090	1.110
2020/01/31 22:29:51.4	164.480	0.380	-0.070	1.090
2020/01/31 22:29:51.5	164.450	0.350	-0.060	1.070
2020/01/31 22:29:51.6	164.420	0.330	-0.050	1.060
2020/01/31 22:29:51.7	164.390	0.300	-0.050	1.040
2020/01/31 22:29:51.8	164.370	0.270	-0.040	1.020
2020/01/31 22:29:51.9	164.340	0.240	-0.030	1.010
2020/01/31 22:29:52.0	164.320	0.210	-0.020	0.990
2020/01/31 22:29:52.1	164.300	0.180	-0.010	0.970
2020/01/31 22:29:52.2	164.270	0.150	-0.000	0.960
2020/01/31 22:29:52.3	164.250	0.110	0.010	0.940
2020/01/31 22:29:52.4	164.230	0.080	0.020	0.930
2020/01/31 22:29:52.5	164.210	0.040	0.030	0.920
2020/01/31 22:29:52.6	164.190	0.000	0.050	0.900
2020/01/31 22:29:52.7	164.170	-0.040	0.060	0.890
2020/01/31 22:29:52.8	164.160	-0.080	0.070	0.890
2020/01/31 22:29:52.9	164.140	-0.120	0.090	0.880
2020/01/31 22:29:53.0	164.150	-0.160	0.100	0.870
2020/01/31 22:29:53.1	164.130	-0.210	0.120	0.870
2020/01/31 22:29:53.2	164.110	-0.250	0.130	0.870
2020/01/31 22:29:53.3	164.100	-0.290	0.140	0.880
2020/01/31 22:29:53.4	164.080	-0.340	0.150	0.880
2020/01/31 22:29:53.5	164.060	-0.380	0.160	0.890
2020/01/31 22:29:53.6	164.050	-0.420	0.170	0.910
2020/01/31 22:29:53.7	164.030	-0.460	0.170	0.920
2020/01/31 22:29:53.8	164.010	-0.500	0.180	0.940
2020/01/31 22:29:53.9	163.990	-0.530	0.180	0.970
2020/01/31 22:29:54.0	163.980	-0.570	0.170	1.000
2020/01/31 22:29:54.1	163.950	-0.600	0.170	1.030
2020/01/31 22:29:54.2	163.930	-0.620	0.160	1.060
2020/01/31 22:29:54.3	163.900	-0.650	0.140	1.100
2020/01/31 22:29:54.4	163.870	-0.670	0.130	1.150
2020/01/31 22:29:54.5	163.840	-0.680	0.100	1.190
2020/01/31 22:29:54.6	163.800	-0.700	0.080	1.240
2020/01/31 22:29:54.7	163.760	-0.700	0.050	1.290
2020/01/31 22:29:54.8	163.720	-0.710	0.020	1.350
2020/01/31 22:29:54.9	163.680	-0.700	-0.020	1.410
2020/01/31 22:29:55.0	163.630	-0.700	-0.060	1.470
2020/01/31 22:29:55.1	163.580	-0.680	-0.100	1.530
2020/01/31 22:29:55.2	163.530	-0.670	-0.140	1.600
2020/01/31 22:29:55.3	163.480	-0.650	-0.190	1.660
2020/01/31 22:29:55.4	163.420	-0.620	-0.240	1.730
2020/01/31 22:29:55.5	163.370	-0.590	-0.280	1.790
2020/01/31 22:29:55.6	163.310	-0.560	-0.330	1.850
2020/01/31 22:29:55.7	163.260	-0.520	-0.380	1.920
2020/01/31 22:29:55.8	163.200	-0.480	-0.420	1.980
2020/01/31 22:29:55.9	163.150	-0.440	-0.470	2.040
2020/01/31 22:29:56.0	163.090	-0.390	-0.510	2.090
2020/01/31 22:29:56.1	163.040	-0.350	-0.550	2.140
2020/01/31 22:29:56.2	162.990	-0.300	-0.580	2.190
2020/01/31 22:29:56.3	162.940	-0.250	-0.610	2.240
2020/01/31 22:29:56.4	162.900	-0.200	-0.630	2.280
2020/01/31 22:29:56.5	162.860	-0.150	-0.650	2.320
2020/01/31 22:29:56.6	162.810	-0.100	-0.670	2.360
2020/01/31 22:29:56.7	162.770	-0.060	-0.680	2.400
2020/01/31 22:29:56.8	162.740	-0.010	-0.680	2.440
2020/01/31 22:29:56.9	162.700	0.030	-0.680	2.470
2020/01/31 22:29:57.0	162.690	0.080	-0.670	2.500
2020/01/31 22:29:57.1	162.660	0.120	-0.660	2.530
2020/01/31 22:29:57.2	162.630	0.160	-0.640	2.560
2020/01/31 22:29:57.3	162.600	0.190	-0.620	2.590
2020/01/31 22:29:57.4	162.570	0.220	-0.590	2.610
2020/01/31 22:29:57.5	162.550	0.250	-0.560	2.640
2020/01/31 22:29:57.6	162.520	0.280	-0.520	2.670
2020/01/31 22:29:57.7	162.500	0.300	-0.480	2.690
2020/01/31 22:29:57.8	162.470	0.320	-0.440	2.710
2020/01/31 22:29:57.9	162.450	0.340	-0.400	2.730
2020/01/31 22:29:58.0	162.430	0.350	-0.350	2.750
2020/01/31 22:29:58.1	162.400	0.360	-0.300	2.770
2020/01/31 22:29:58.2	162.380	0.370	-0.250	2.790
2020/01/31 22:29:58.3	162.360	0.370	-0.190	2.810
2020/01/31 22:29:58.4	162.340	0.370	-0.140	2.820
2020/01/31 22:29:58.5	162.310	0.370	-0.090	2.830
2020/01/31 22:29:58.6	162.290	0.370	-0.040	2.850
2020/01/31 22:29:58.7	162.270	0.360	0.010	2.850
2020/01/31 22:29:58.8	162.250	0.350	0.060	2.860
2020/01/31 22:29:58.9	162.230	0.340	0.110	2.860
2020/01/31 22:29:59.0	162.220	0.330	0.150	2.860
2020/01/31 22:29:59.1	162.200	0.320	0.200	2.860
2020/01/31 22:29:59.2	162.180	0.310	0.240	2.850
2020/01/31 22:29:59.3	162.160	0.300	0.280	2.840
2020/01/31 22:29:59.4	162.150	0.280	0.310	2.830
2020/01/31 22:29:59.5	162.130	0.270	0.340	2.810
2020/01/31 22:29:59.6	162.120	0.260	0.370	2.790
2020/01/31 22:29:59.7	162.100	0.240	0.400	2.770
2020/01/31 22:29:59.8	162.090	0.230	0.420	2.750
2020/01/31 22:29:59.9	162.070	0.220	0.440	2.720
2020/01/31 22:30:00.0	162.060	0.210	0.450	2.690
2020/01/31 22:30:00.1	162.050	0.200	0.460	2.660
2020/01/31 22:30:00.2	162.030	0.190	0.470	2.630
2020/01/31 22:30:00.3	162.020	0.180	0.480	2.590
2020/01/31 22:30:00.4	162.010	0.170	0.490	2.550
2020/01/31 22:30:00.5	162.000	0.160	0.490	2.520
2020/01/31 22:30:00.6	161.990	0.150	0.490	2.480
2020/01/31 22:30:00.7	161.990	0.150	0.480	2.440
2020/01/31 22:30:00.8	161.980	0.140	0.480	2.390
2020/01/31 22:30:00.9	161.980	0.140	0.470	2.350
2020/01/31 22:30:01.0	161.990	0.130	0.460	2.300
2020/01/31 22:30:01.1	161.990	0.130	0.450	2.250
2020/01/31 22:30:01.2	161.990	0.120	0.430	2.210
2020/01/31 22:30:01.3	162.000	0.120	0.410	2.150
2020/01/31 22:30:01.4	162.000	0.120	0.400	2.100
2020/01/31 22:30:01.5	162.010	0.110	0.370	2.050
2020/01/31 22:30:01.6	162.030	0.110	0.350	1.990
2020/01/31 22:30:01.7	162.040	0.110	0.320	1.940
2020/01/31 22:30:01.8	162.050	0.100	0.290	1.880
2020/01/31 22:30:01.9	162.070	0.100	0.260	1.830
2020/01/31 22:30:02.0	162.090	0.100	0.230	1.760
2020/01/31 22:30:02.1	162.100	0.100	0.190	1.710
2020/01/31 22:30:02.2	162.120	0.090	0.150	1.650
2020/01/31 22:30:02.3	162.140	0.090	0.110	1.590
2020/01/31 22:30:02.4	162.160	0.090	0.060	1.530
2020/01/31 22:30:02.5	162.180	0.090	0.010	1.470
2020/01/31 22:30:02.6	162.200	0.090	-0.040	1.420
2020/01/31 22:30:02.7	162.210	0.090	-0.100	1.360
2020/01/31 22:30:02.8	162.230	0.090	-0.150	1.310
2020/01/31 22:30:02.9	162.240	0.090	-0.210	1.250
2020/01/31 22:30:03.0	162.270	0.090	-0.270	1.200
2020/01/31 22:30:03.1	162.280	0.090	-0.330	1.150
2020/01/31 22:30:03.2	162.290	0.090	-0.390	1.100
2020/01/31 22:30:03.3	162.300	0.090	-0.450	1.050
2020/01/31 22:30:03.4	162.310	0.100	-0.510	1.000
2020/01/31 22:30:03.5	162.320	0.100	-0.580	0.950
2020/01/31 22:30:03.6	162.320	0.100	-0.640	0.910
2020/01/31 22:30:03.7	162.320	0.110	-0.700	0.860
2020/01/31 22:30:03.8	162.320	0.120	-0.750	0.820
2020/01/31 22:30:03.9	162.320	0.120	-0.810	0.770
2020/01/31 22:30:04.0	162.330	0.130	-0.860	0.730
2020/01/31 22:30:04.1	162.330	0.140	-0.910	0.690
2020/01/31 22:30:04.2	162.330	0.150	-0.960	0.650
2020/01/31 22:30:04.3	162.330	0.150	-1.000	0.610
2020/01/31 22:30:04.4	162.330	0.160	-1.030	0.560
2020/01/31 22:30:04.5	162.340	0.170	-1.060	0.520
2020/01/31 22:30:04.6	162.340	0.180	-1.090	0.480
2020/01/31 22:30:04.7	162.340	0.190	-1.110	0.440
2020/01/31 22:30:04.8	162.340	0.200	-1.120	0.400
2020/01/31 22:30:04.9	162.350	0.210	-1.130	0.360
2020/01/31 22:30:05.0	162.350	0.210	-1.140	0.320
2020/01/31 22:30:05.1	162.360	0.220	-1.130	0.280
2020/01/31 22:30:05.2	162.370	0.230	-1.130	0.250
2020/01/31 22:30:05.3	162.380	0.230	-1.110	0.220
2020/01/31 22:30:05.4	162.390	0.240	-1.100	0.180
2020/01/31 22:30:05.5	162.400	0.240	-1.070	0.160
2020/01/31 22:30:05.6	162.410	0.240	-1.050	0.130
2020/01/31 22:30:05.7	162.420	0.240	-1.020	0.110
2020/01/31 22:30:05.8	162.430	0.240	-0.980	0.090
2020/01/31 22:30:05.9	162.450	0.230	-0.950	0.070
2020/01/31 22:30:06.0	162.460	0.230	-0.910	0.060
2020/01/31 22:30:06.1	162.470	0.220	-0.870	0.050
2020/01/31 22:30:06.2	162.490	0.210	-0.820	0.040
2020/01/31 22:30:06.3	162.500	0.200	-0.780	0.040
2020/01/31 22:30:06.4	162.520	0.180	-0.730	0.030
2020/01/31 22:30:06.5	162.540	0.170	-0.680	0.030
2020/01/31 22:30:06.6	162.560	0.150	-0.630	0.040
2020/01/31 22:30:06.7	162.580	0.120	-0.580	0.040
2020/01/31 22:30:06.8	162.600	0.100	-0.520	0.040
2020/01/31 22:30:06.9	162.620	0.080	-0.470	0.050
2020/01/31 22:30:07.0	162.640	0.050	-0.410	0.060
2020/01/31 22:30:07.1	162.660	0.020	-0.360	0.060
2020/01/31 22:30:07.2	162.680	-0.010	-0.310	0.070
2020/01/31 22:30:07.3	162.700	-0.040	-0.250	0.080
2020/01/31 22:30:07.4	162.730	-0.080	-0.200	0.100
2020/01/31 22:30:07.5	162.750	-0.110	-0.150	0.110
2020/01/31 22:30:07.6	162.770	-0.150	-0.100	0.120
2020/01/31 22:30:07.7	162.790	-0.180	-0.050	0.140
2020/01/31 22:30:07.8	162.810	-0.220	-0.000	0.160
2020/01/31 22:30:07.9	162.820	-0.250	0.040	0.180
2020/01/31 22:30:08.0	162.840	-0.290	0.080	0.210
2020/01/31 22:30:08.1	162.860	-0.320	0.120	0.240
2020/01/31 22:30:08.2	162.870	-0.360	0.160	0.270
2020/01/31 22:30:08.3	162.880	-0.390	0.200	0.300
2020/01/31 22:30:08.4	162.880	-0.420	0.230	0.340
2020/01/31 22:30:08.5	162.890	-0.450	0.260	0.390
2020/01/31 22:30:08.6	162.890	-0.480	0.280	0.430
2020/01/31 22:30:08.7	162.890	-0.500	0.300	0.490
2020/01/31 22:30:08.8	162.880	-0.520	0.320	0.540
2020/01/31 22:30:08.9	162.880	-0.540	0.340	0.600
2020/01/31 22:30:09.0	162.880	-0.560	0.350	0.670
2020/01/31 22:30:09.1	162.870	-0.570	0.350	0.730
2020/01/31 22:30:09.2	162.850	-0.580	0.360	0.800
2020/01/31 22:30:09.3	162.840	-0.590	0.360	0.870
2020/01/31 22:30:09.4	162.820	-0.590	0.350	0.940
2020/01/31 22:30:09.5	162.800	-0.590	0.340	1.010
2020/01/31 22:30:09.6	162.780	-0.590	0.330	1.090
2020/01/31 22:30:09.7	162.760	-0.580	0.320	1.170
2020/01/31 22:30:09.8	162.730	-0.570	0.300	1.250
2020/01/31 22:30:09.9	162.710	-0.560	0.280	1.330
2020/01/31 22:30:10.0	162.660	-0.540	0.260	1.410
2020/01/31 22:30:10.1	162.630	-0.520	0.230	1.490
2020/01/31 22:30:10.2	162.600	-0.490	0.200	1.570
2020/01/31 22:30:10.3	162.570	-0.470	0.170	1.650
2020/01/31 22:30:10.4	162.530	-0.440	0.140	1.730
2020/01/31 22:30:10.5	162.500	-0.410	0.100	1.800
2020/01/31 22:30:10.6	162.460	-0.380	0.060	1.870
2020/01/31 22:30:10.7	162.420	-0.340	0.020	1.940
2020/01/31 22:30:10.8	162.380	-0.300	-0.010	2.010
2020/01/31 22:30:10.9	162.350	-0.260	-0.050	2.080
2020/01/31 22:30:11.0	162.300	-0.220	-0.090	2.130
2020/01/31 22:30:11.1	162.260	-0.180	-0.130	2.190
2020/01/31 22:30:11.2	162.220	-0.140	-0.170	2.240
2020/01/31 22:30:11.3	162.190	-0.100	-0.210	2.290
2020/01/31 22:30:11.4	162.150	-0.060	-0.240	2.330
2020/01/31 22:30:11.5	162.110	-0.020	-0.270	2.360
2020/01/31 22:30:11.6	162.080	0.020	-0.300	2.400
2020/01/31 22:30:11.7	162.050	0.060	-0.330	2.420
2020/01/31 22:30:11.8	162.010	0.100	-0.350	2.450
2020/01/31 22:30:11.9	161.980	0.140	-0.370	2.460
2020/01/31 22:30:12.0	161.940	0.170	-0.390	2.480
2020/01/31 22:30:12.1	161.910	0.210	-0.400	2.480
2020/01/31 22:30:12.2	161.890	0.240	-0.410	2.490
2020/01/31 22:30:12.3	161.860	0.270	-0.410	2.490
2020/01/31 22:30:12.4	161.840	0.300	-0.410	2.480
2020/01/31 22:30:12.5	161.820	0.320	-0.400	2.470
2020/01/31 22:30:12.6	161.800	0.350	-0.390	2.460
2020/01/31 22:30:12.7	161.790	0.370	-0.370	2.430
2020/01/31 22:30:12.8	161.770	0.380	-0.350	2.410
2020/01/31 22:30:12.9	161.760	0.400	-0.320	2.370
2020/01/31 22:30:13.0	161.750	0.410	-0.290	2.330
2020/01/31 22:30:13.1	161.740	0.420	-0.260	2.290
2020/01/31 22:30:13.2	161.730	0.430	-0.220	2.240
2020/01/31 22:30:13.3	161.730	0.430	-0.170	2.180
2020/01/31 22:30:13.4	161.730	0.430	-0.120	2.120
2020/01/31 22:30:13.5	161.730	0.430	-0.070	2.050
2020/01/31 22:30:13.6	161.730	0.420	-0.020	1.980
2020/01/31 22:30:13.7	161.730	0.420	0.030	1.910
2020/01/31 22:30:13.8	161.730	0.410	0.080	1.830
2020/01/31 22:30:13.9	161.730	0.400	0.140	1.750
2020/01/31 22:30:14.0	161.740	0.380	0.190	1.660
2020/01/31 22:30:14.1	161.740	0.370	0.240	1.570
2020/01/31 22:30:14.2	161.750	0.350	0.290	1.480
2020/01/31 22:30:14.3	161.750	0.330	0.330	1.390
2020/01/31 22:30:14.4	161.750	0.310	0.380	1.300
2020/01/31 22:30:14.5	161.760	0.280	0.410	1.200
2020/01/31 22:30:14.6	161.770	0.250	0.450	1.100
2020/01/31 22:30:14.7	161.770	0.230	0.480	1.010
2020/01/31 22:30:14.8	161.780	0.200	0.500	0.910
2020/01/31 22:30:14.9	161.790	0.170	0.520	0.810
2020/01/31 22:30:15.0	161.810	0.130	0.530	0.710
2020/01/31 22:30:15.1	161.820	0.100	0.530	0.610
2020/01/31 22:30:15.2	161.820	0.070	0.530	0.520
2020/01/31 22:30:15.3	161.830	0.030	0.520	0.430
2020/01/31 22:30:15.4	161.840	-0.000	0.500	0.340
2020/01/31 22:30:15.5	161.840	-0.040	0.480	0.260
2020/01/31 22:30:15.6	161.850	-0.070	0.450	0.170
2020/01/31 22:30:15.7	161.850	-0.100	0.410	0.100
2020/01/31 22:30:15.8	161.850	-0.140	0.370	0.030
2020/01/31 22:30:15.9	161.850	-0.170	0.320	-0.030
2020/01/31 22:30:16.0	161.860	-0.200	0.270	-0.090
2020/01/31 22:30:16.1	161.850	-0.230	0.210	-0.150
2020/01/31 22:30:16.2	161.850	-0.250	0.140	-0.190
2020/01/31 22:30:16.3	161.840	-0.280	0.070	-0.230
2020/01/31 22:30:16.4	161.820	-0.300	-0.010	-0.260
2020/01/31 22:30:16.5	161.810	-0.320	-0.090	-0.290
2020/01/31 22:30:16.6	161.790	-0.330	-0.170	-0.310
2020/01/31 22:30:16.7	161.760	-0.340	-0.260	-0.320
2020/01/31 22:30:16.8	161.740	-0.350	-0.350	-0.320
2020/01/31 22:30:16.9	161.710	-0.360	-0.440	-0.320
2020/01/31 22:30:17.0	161.670	-0.360	-0.530	-0.310
2020/01/31 22:30:17.1	161.640	-0.360	-0.620	-0.300
2020/01/31 22:30:17.2	161.610	-0.360	-0.710	-0.280
2020/01/31 22:30:17.3	161.580	-0.350	-0.790	-0.260
2020/01/31 22:30:17.4	161.540	-0.340	-0.880	-0.230
2020/01/31 22:30:17.5	161.500	-0.330	-0.950	-0.200
2020/01/31 22:30:17.6	161.470	-0.320	-1.030	-0.160
2020/01/31 22:30:17.7	161.430	-0.300	-1.100	-0.120
2020/01/31 22:30:17.8	161.400	-0.280	-1.160	-0.080
2020/01/31 22:30:17.9	161.360	-0.260	-1.220	-0.030
2020/01/31 22:30:18.0	161.330	-0.240	-1.270	0.030
2020/01/31 22:30:18.1	161.290	-0.220	-1.310	0.080
2020/01/31 22:30:18.2	161.260	-0.190	-1.350	0.140
2020/01/31 22:30:18.3	161.220	-0.170	-1.380	0.200
2020/01/31 22:30:18.4	161.180	-0.140	-1.400	0.260
2020/01/31 22:30:18.5	161.140	-0.110	-1.420	0.330
2020/01/31 22:30:18.6	161.110	-0.090	-1.420	0.390
2020/01/31 22:30:18.7	161.070	-0.060	-1.420	0.460
2020/01/31 22:30:18.8	161.040	-0.030	-1.410	0.530
2020/01/31 22:30:18.9	161.000	-0.000	-1.390	0.600
2020/01/31 22:30:19.0	160.960	0.030	-1.370	0.680
2020/01/31 22:30:19.1	160.930	0.050	-1.340	0.750
2020/01/31 22:30:19.2	160.890	0.080	-1.300	0.820
2020/01/31 22:30:19.3	160.860	0.100	-1.260	0.890
2020/01/31 22:30:19.4	160.830	0.130	-1.200	0.950
2020/01/31 22:30:19.5	160.800	0.150	-1.150	1.020
2020/01/31 22:30:19.6	160.770	0.170	-1.080	1.090
2020/01/31 22:30:19.7	160.740	0.190	-1.010	1.150
2020/01/31 22:30:19.8	160.710	0.210	-0.940	1.210
2020/01/31 22:30:19.9	160.690	0.230	-0.860	1.270
2020/01/31 22:30:20.0	160.670	0.240	-0.780	1.330
2020/01/31 22:30:20.1	160.650	0.250	-0.700	1.380
2020/01/31 22:30:20.2	160.630	0.260	-0.610	1.430
2020/01/31 22:30:20.3	160.610	0.270	-0.520	1.480
2020/01/31 22:30:20.4	160.590	0.270	-0.430	1.530
2020/01/31 22:30:20.5	160.580	0.270	-0.340	1.570
2020/01/31 22:30:20.6	160.570	0.270	-0.250	1.610
2020/01/31 22:30:20.7	160.550	0.270	-0.160	1.650
2020/01/31 22:30:20.8	160.540	0.260	-0.070	1.690
2020/01/31 22:30:20.9	160.530	0.250	0.020	1.730
2020/01/31 22:30:21.0	160.520	0.240	0.110	1.760
2020/01/31 22:30:21.1	160.510	0.230	0.190	1.790
2020/01/31 22:30:21.2	160.510	0.220	0.270	1.830
2020/01/31 22:30:21.3	160.510	0.200	0.350	1.860
2020/01/31 22:30:21.4	160.500	0.180	0.430	1.880
2020/01/31 22:30:21.5	160.500	0.170	0.500	1.910
2020/01/31 22:30:21.6	160.500	0.150	0.560	1.930
2020/01/31 22:30:21.7	160.500	0.120	0.630	1.960
2020/01/31 22:30:21.8	160.510	0.100	0.680	1.980
2020/01/31 22:30:21.9	160.510	0.080	0.740	2.000
2020/01/31 22:30:22.0	160.520	0.050	0.790	2.010
2020/01/31 22:30:22.1	160.520	0.030	0.830	2.030
2020/01/31 22:30:22.2	160.530	0.010	0.870	2.040
2020/01/31 22:30:22.3	160.540	-0.020	0.910	2.060
2020/01/31 22:30:22.4	160.550	-0.050	0.940	2.070
2020/01/31 22:30:22.5	160.560	-0.070	0.960	2.080
2020/01/31 22:30:22.6	160.570	-0.090	0.980	2.080
2020/01/31 22:30:22.7	160.590	-0.120	0.990	2.090
2020/01/31 22:30:22.8	160.600	-0.140	1.000	2.100
2020/01/31 22:30:22.9	160.610	-0.160	1.000	2.100
2020/01/31 22:30:23.0	160.610	-0.180	1.000	2.100
2020/01/31 22:30:23.1	160.630	-0.200	0.990	2.100
2020/01/31 22:30:23.2	160.640	-0.220	0.980	2.110
2020/01/31 22:30:23.3	160.650	-0.230	0.950	2.110
2020/01/31 22:30:23.4	160.660	-0.240	0.930	2.120
2020/01/31 22:30:23.5	160.670	-0.250	0.890	2.120
2020/01/31 22:30:23.6	160.680	-0.260	0.850	2.130
2020/01/31 22:30:23.7	160.690	-0.260	0.810	2.130
2020/01/31 22:30:23.8	160.700	-0.260	0.760	2.140
2020/01/31 22:30:23.9	160.700	-0.260	0.700	2.150
2020/01/31 22:30:24.0	160.710	-0.260	0.640	2.150
2020/01/31 22:30:24.1	160.710	-0.250	0.570	2.160
2020/01/31 22:30:24.2	160.710	-0.230	0.500	2.170
2020/01/31 22:30:24.3	160.710	-0.220	0.420	2.190
2020/01/31 22:30:24.4	160.710	-0.200	0.340	2.200
2020/01/31 22:30:24.5	160.710	-0.180	0.250	2.220
2020/01/31 22:30:24.6	160.700	-0.150	0.160	2.230
2020/01/31 22:30:24.7	160.690	-0.120	0.070	2.250
2020/01/31 22:30:24.8	160.680	-0.090	-0.030	2.270
2020/01/31 22:30:24.9	160.670	-0.050	-0.120	2.280
2020/01/31 22:30:25.0	160.680	-0.010	-0.220	2.300
2020/01/31 22:30:25.1	160.660	0.030	-0.320	2.320
2020/01/31 22:30:25.2	160.650	0.080	-0.420	2.340
2020/01/31 22:30:25.3	160.630	0.120	-0.520	2.360
2020/01/31 22:30:25.4	160.610	0.170	-0.620	2.380
2020/01/31 22:30:25.5	160.580	0.220	-0.710	2.390
2020/01/31 22:30:25.6	160.560	0.270	-0.810	2.410
2020/01/31 22:30:25.7	160.540	0.310	-0.890	2.420
2020/01/31 22:30:25.8	160.510	0.360	-0.980	2.440
2020/01/31 22:30:25.9	160.480	0.410	-1.060	2.450
2020/01/31 22:30:26.0	160.460	0.460	-1.130	2.460
2020/01/31 22:30:26.1	160.440	0.500	-1.200	2.460
2020/01/31 22:30:26.2	160.410	0.540	-1.260	2.470
2020/01/31 22:30:26.3	160.390	0.580	-1.310	2.470
2020/01/31 22:30:26.4	160.360	0.610	-1.360	2.470
2020/01/31 22:30:26.5	160.340	0.640	-1.390	2.470
2020/01/31 22:30:26.6	160.310	0.670	-1.410	2.460
2020/01/31 22:30:26.7	160.300	0.690	-1.430	2.450
2020/01/31 22:30:26.8	160.280	0.700	-1.430	2.440
2020/01/31 22:30:26.9	160.260	0.710	-1.430	2.430
2020/01/31 22:30:27.0	160.250	0.710	-1.410	2.410
2020/01/31 22:30:27.1	160.240	0.710	-1.380	2.390
2020/01/31 22:30:27.2	160.230	0.700	-1.340	2.370
2020/01/31 22:30:27.3	160.230	0.680	-1.290	2.340
2020/01/31 22:30:27.4	160.230	0.660	-1.230	2.310
2020/01/31 22:30:27.5	160.240	0.630	-1.160	2.280
2020/01/31 22:30:27.6	160.250	0.600	-1.090	2.250
2020/01/31 22:30:27.7	160.260	0.560	-1.000	2.210
2020/01/31 22:30:27.8	160.270	0.510	-0.910	2.180
2020/01/31 22:30:27.9	160.290	0.460	-0.810	2.140
2020/01/31 22:30:28.0	160.310	0.400	-0.700	2.090
2020/01/31 22:30:28.1	160.330	0.340	-0.590	2.050
2020/01/31 22:30:28.2	160.360	0.280	-0.480	2.000
2020/01/31 22:30:28.3	160.390	0.210	-0.360	1.960
2020/01/31 22:30:28.4	160.420	0.140	-0.250	1.910
2020/01/31 22:30:28.5	160.450	0.070	-0.130	1.860
2020/01/31 22:30:28.6	160.490	-0.010	-0.020	1.810
2020/01/31 22:30:28.7	160.520	-0.080	0.090	1.760
2020/01/31 22:30:28.8	160.560	-0.150	0.200	1.710
2020/01/31 22:30:28.9	160.600	-0.230	0.310	1.660
2020/01/31 22:30:29.0	160.630	-0.300	0.400	1.610
2020/01/31 22:30:29.1	160.660	-0.370	0.490	1.550
2020/01/31 22:30:29.2	160.700	-0.440	0.570	1.500
2020/01/31 22:30:29.3	160.740	-0.500	0.640	1.440
2020/01/31 22:30:29.4	160.780	-0.560	0.700	1.380
2020/01/31 22:30:29.5	160.820	-0.620	0.750	1.330
2020/01/31 22:30:29.6	160.860	-0.670	0.790	1.270
2020/01/31 22:30:29.7	160.900	-0.710	0.820	1.210
2020/01/31 22:30:29.8	160.930	-0.750	0.830	1.150
2020/01/31 22:30:29.9	160.960	-0.780	0.830	1.090
2020/01/31 22:30:30.0	161.000	-0.800	0.820	1.040
2020/01/31 22:30:30.1	161.030	-0.820	0.790	0.980
2020/01/31 22:30:30.2	161.060	-0.830	0.750	0.920
2020/01/31 22:30:30.3	161.080	-0.830	0.700	0.870
2020/01/31 22:30:30.4	161.100	-0.830	0.640	0.820
2020/01/31 22:30:30.5	161.110	-0.820	0.570	0.770
2020/01/31 22:30:30.6	161.130	-0.800	0.490	0.720
2020/01/31 22:30:30.7	161.130	-0.770	0.400	0.680
2020/01/31 22:30:30.8	161.140	-0.740	0.300	0.640
2020/01/31 22:30:30.9	161.140	-0.710	0.200	0.600
2020/01/31 22:30:31.0	161.160	-0.670	0.080	0.560
2020/01/31 22:30:31.1	161.160	-0.630	-0.030	0.530
2020/01/31 22:30:31.2	161.150	-0.580	-0.140	0.510
2020/01/31 22:30:31.3	161.150	-0.530	-0.250	0.480
2020/01/31 22:30:31.4	161.140	-0.480	-0.370	0.470
2020/01/31 22:30:31.5	161.130	-0.420	-0.480	0.460
2020/01/31 22:30:31.6	161.120	-0.370	-0.590	0.450
2020/01/31 22:30:31.7	161.110	-0.310	-0.700	0.450
2020/01/31 22:30:31.8	161.090	-0.260	-0.800	0.450
2020/01/31 22:30:31.9	161.080	-0.200	-0.890	0.470
2020/01/31 22:30:32.0	161.070	-0.150	-0.980	0.480
2020/01/31 22:30:32.1	161.060	-0.100	-1.060	0.500
2020/01/31 22:30:32.2	161.050	-0.050	-1.130	0.530
2020/01/31 22:30:32.3	161.030	-0.000	-1.190	0.560
2020/01/31 22:30:32.4	161.020	0.040	-1.250	0.590
2020/01/31 22:30:32.5	161.010	0.080	-1.290	0.630
2020/01/31 22:30:32.6	161.000	0.120	-1.320	0.670
2020/01/31 22:30:32.7	160.990	0.150	-1.340	0.710
2020/01/31 22:30:32.8	160.980	0.180	-1.350	0.750
2020/01/31 22:30:32.9	160.980	0.210	-1.350	0.790
2020/01/31 22:30:33.0	160.970	0.230	-1.340	0.850
2020/01/31 22:30:33.1	160.970	0.240	-1.310	0.890
2020/01/31 22:30:33.2	160.970	0.260	-1.270	0.930
2020/01/31 22:30:33.3	160.960	0.260	-1.230	0.970
2020/01/31 22:30:33.4	160.970	0.270	-1.170	1.010
2020/01/31 22:30:33.5	160.970	0.270	-1.100	1.040
2020/01/31 22:30:33.6	160.980	0.260	-1.020	1.080
2020/01/31 22:30:33.7	160.990	0.250	-0.930	1.110
2020/01/31 22:30:33.8	161.000	0.240	-0.830	1.130
2020/01/31 22:30:33.9	161.010	0.230	-0.720	1.160
2020/01/31 22:30:34.0	161.020	0.210	-0.610	1.180
2020/01/31 22:30:34.1	161.030	0.190	-0.500	1.200
2020/01/31 22:30:34.2	161.060	0.160	-0.380	1.210
2020/01/31 22:30:34.3	161.080	0.140	-0.250	1.220
2020/01/31 22:30:34.4	161.100	0.110	-0.120	1.220
2020/01/31 22:30:34.5	161.130	0.080	0.000	1.220
2020/01/31 22:30:34.6	161.150	0.050	0.130	1.220
2020/01/31 22:30:34.7	161.180	0.020	0.260	1.220
2020/01/31 22:30:34.8	161.210	-0.010	0.380	1.210
2020/01/31 22:30:34.9	161.240	-0.030	0.500	1.200
2020/01/31 22:30:35.0	161.280	-0.060	0.620	1.190
2020/01/31 22:30:35.1	161.310	-0.090	0.730	1.170
2020/01/31 22:30:35.2	161.340	-0.120	0.830	1.160
2020/01/31 22:30:35.3	161.370	-0.140	0.920	1.140
2020/01/31 22:30:35.4	161.410	-0.160	1.010	1.120
2020/01/31 22:30:35.5	161.440	-0.180	1.090	1.100
2020/01/31 22:30:35.6	161.470	-0.200	1.150	1.080
2020/01/31 22:30:35.7	161.500	-0.220	1.210	1.060
2020/01/31 22:30:35.8	161.530	-0.230	1.250	1.040
2020/01/31 22:30:35.9	161.560	-0.240	1.280	1.020
2020/01/31 22:30:36.0	161.590	-0.250	1.300	1.000
2020/01/31 22:30:36.1	161.620	-0.250	1.310	0.980
2020/01/31 22:30:36.2	161.640	-0.250	1.310	0.970
2020/01/31 22:30:36.3	161.660	-0.250	1.290	0.960
2020/01/31 22:30:36.4	161.680	-0.240	1.260	0.950
2020/01/31 22:30:36.5	161.700	-0.230	1.220	0.950
2020/01/31 22:30:36.6	161.720	-0.220	1.180	0.940
2020/01/31 22:30:36.7	161.730	-0.210	1.120	0.940
2020/01/31 22:30:36.8	161.740	-0.190	1.050	0.940
2020/01/31 22:30:36.9	161.750	-0.170	0.970	0.950
2020/01/31 22:30:37.0	161.760	-0.140	0.880	0.950
2020/01/31 22:30:37.1	161.770	-0.120	0.790	0.960
2020/01/31 22:30:37.2	161.770	-0.090	0.690	0.960
2020/01/31 22:30:37.3	161.780	-0.060	0.590	0.970
2020/01/31 22:30:37.4	161.780	-0.030	0.480	0.980
2020/01/31 22:30:37.5	161.790	0.010	0.370	0.980
2020/01/31 22:30:37.6	161.790	0.040	0.260	0.990
2020/01/31 22:30:37.7	161.790	0.080	0.150	0.990
2020/01/31 22:30:37.8	161.800	0.110	0.040	1.000
2020/01/31 22:30:37.9	161.800	0.150	-0.070	1.010
2020/01/31 22:30:38.0	161.800	0.180	-0.180	1.010
2020/01/31 22:30:38.1	161.800	0.220	-0.280	1.020
2020/01/31 22:30:38.2	161.800	0.250	-0.380	1.020
2020/01/31 22:30:38.3	161.810	0.290	-0.470	1.030
2020/01/31 22:30:38.4	161.810	0.320	-0.560	1.030
2020/01/31 22:30:38.5	161.820	0.350	-0.640	1.040
2020/01/31 22:30:38.6	161.820	0.380	-0.710	1.040
2020/01/31 22:30:38.7	161.820	0.410	-0.780	1.050
2020/01/31 22:30:38.8	161.830	0.430	-0.840	1.050
2020/01/31 22:30:38.9	161.830	0.460	-0.890	1.050
2020/01/31 22:30:39.0	161.830	0.480	-0.940	1.060
2020/01/31 22:30:39.1	161.840	0.500	-0.970	1.060
2020/01/31 22:30:39.2	161.850	0.510	-1.000	1.060
2020/01/31 22:30:39.3	161.860	0.520	-1.020	1.060
2020/01/31 22:30:39.4	161.870	0.530	-1.030	1.060
2020/01/31 22:30:39.5	161.880	0.540	-1.040	1.070
2020/01/31 22:30:39.6	161.900	0.540	-1.040	1.070
2020/01/31 22:30:39.7	161.910	0.540	-1.030	1.060
2020/01/31 22:30:39.8	161.930	0.540	-1.010	1.060
2020/01/31 22:30:39.9	161.950	0.530	-0.990	1.060
2020/01/31 22:30:40.0	161.960	0.530	-0.970	1.060
2020/01/31 22:30:40.1	161.980	0.510	-0.940	1.050
2020/01/31 22:30:40.2	162.000	0.500	-0.900	1.050
2020/01/31 22:30:40.3	162.020	0.490	-0.870	1.050
2020/01/31 22:30:40.4	162.050	0.470	-0.830	1.040
2020/01/31 22:30:40.5	162.070	0.450	-0.790	1.040
2020/01/31 22:30:40.6	162.090	0.430	-0.740	1.030
2020/01/31 22:30:40.7	162.110	0.400	-0.700	1.030
2020/01/31 22:30:40.8	162.130	0.380	-0.660	1.030
2020/01/31 22:30:40.9	162.150	0.350	-0.620	1.030
2020/01/31 22:30:41.0	162.170	0.330	-0.590	1.030
2020/01/31 22:30:41.1	162.180	0.300	-0.560	1.040
2020/01/31 22:30:41.2	162.190	0.280	-0.530	1.050
2020/01/31 22:30:41.3	162.190	0.250	-0.500	1.060
2020/01/31 22:30:41.4	162.190	0.220	-0.480	1.070
2020/01/31 22:30:41.5	162.190	0.200	-0.460	1.090
2020/01/31 22:30:41.6	162.190	0.170	-0.450	1.110
2020/01/31 22:30:41.7	162.180	0.150	-0.440	1.130
2020/01/31 22:30:41.8	162.170	0.130	-0.440	1.160
2020/01/31 22:30:41.9	162.160	0.110	-0.440	1.190
2020/01/31 22:30:42.0	162.140	0.090	-0.440	1.230
2020/01/31 22:30:42.1	162.120	0.070	-0.450	1.270
2020/01/31 22:30:42.2	162.100	0.050	-0.470	1.310
2020/01/31 22:30:42.3	162.070	0.030	-0.480	1.350
2020/01/31 22:30:42.4	162.050	0.010	-0.500	1.400
2020/01/31 22:30:42.5	162.020	-0.000	-0.520	1.450
2020/01/31 22:30:42.6	161.980	-0.020	-0.540	1.500
2020/01/31 22:30:42.7	161.950	-0.030	-0.560	1.550
2020/01/31 22:30:42.8	161.920	-0.050	-0.580	1.600
2020/01/31 22:30:42.9	161.880	-0.060	-0.600	1.650
2020/01/31 22:30:43.0	161.850	-0.070	-0.620	1.710
2020/01/31 22:30:43.1	161.810	-0.080	-0.630	1.760
2020/01/31 22:30:43.2	161.780	-0.100	-0.640	1.820
2020/01/31 22:30:43.3	161.740	-0.110	-0.650	1.870
2020/01/31 22:30:43.4	161.700	-0.120	-0.660	1.920
2020/01/31 22:30:43.5	161.660	-0.130	-0.660	1.980
2020/01/31 22:30:43.6	161.630	-0.140	-0.660	2.030
2020/01/31 22:30:43.7	161.590	-0.150	-0.660	2.080
2020/01/31 22:30:43.8	161.560	-0.160	-0.650	2.130
2020/01/31 22:30:43.9	161.520	-0.170	-0.640	2.170
2020/01/31 22:30:44.0	161.470	-0.180	-0.620	2.220
2020/01/31 22:30:44.1	161.440	-0.200	-0.600	2.260
2020/01/31 22:30:44.2	161.400	-0.210	-0.580	2.300
2020/01/31 22:30:44.3	161.370	-0.220	-0.550	2.340
2020/01/31 22:30:44.4	161.340	-0.230	-0.520	2.370
2020/01/31 22:30:44.5	161.320	-0.240	-0.480	2.400
2020/01/31 22:30:44.6	161.290	-0.240	-0.450	2.430
2020/01/31 22:30:44.7	161.270	-0.250	-0.400	2.450
2020/01/31 22:30:44.8	161.250	-0.260	-0.360	2.470
2020/01/31 22:30:44.9	161.230	-0.270	-0.310	2.490
2020/01/31 22:30:45.0	161.230	-0.280	-0.260	2.500
2020/01/31 22:30:45.1	161.220	-0.290	-0.210	2.500
2020/01/31 22:30:45.2	161.220	-0.290	-0.150	2.500
2020/01/31 22:30:45.3	161.210	-0.300	-0.100	2.490
2020/01/31 22:30:45.4	161.210	-0.300	-0.040	2.480
2020/01/31 22:30:45.5	161.220	-0.310	0.020	2.460
2020/01/31 22:30:45.6	161.230	-0.320	0.080	2.440
2020/01/31 22:30:45.7	161.240	-0.320	0.130	2.410
2020/01/31 22:30:45.8	161.250	-0.320	0.190	2.370
2020/01/31 22:30:45.9	161.270	-0.330	0.250	2.330
2020/01/31 22:30:46.0	161.290	-0.330	0.300	2.290
2020/01/31 22:30:46.1	161.310	-0.330	0.350	2.240
2020/01/31 22:30:46.2	161.340	-0.340	0.400	2.190
2020/01/31 22:30:46.3	161.370	-0.340	0.450	2.140
2020/01/31 22:30:46.4	161.410	-0.340	0.500	2.080
2020/01/31 22:30:46.5	161.440	-0.350	0.540	2.020
2020/01/31 22:30:46.6	161.480	-0.350	0.570	1.960
2020/01/31 22:30:46.7	161.520	-0.350	0.600	1.890
2020/01/31 22:30:46.8	161.560	-0.350	0.630	1.830
2020/01/31 22:30:46.9	161.600	-0.350	0.650	1.760
2020/01/31 22:30:47.0	161.640	-0.350	0.670	1.690
2020/01/31 22:30:47.1	161.680	-0.350	0.680	1.630
2020/01/31 22:30:47.2	161.720	-0.350	0.680	1.560
2020/01/31 22:30:47.3	161.760	-0.350	0.680	1.490
2020/01/31 22:30:47.4	161.800	-0.350	0.670	1.430
2020/01/31 22:30:47.5	161.830	-0.340	0.650	1.370
2020/01/31 22:30:47.6	161.870	-0.340	0.630	1.310
2020/01/31 22:30:47.7	161.900	-0.330	0.600	1.250
2020/01/31 22:30:47.8	161.930	-0.330	0.560	1.200
2020/01/31 22:30:47.9	161.950	-0.320	0.520	1.140
2020/01/31 22:30:48.0	161.970	-0.310	0.470	1.090
2020/01/31 22:30:48.1	161.990	-0.300	0.420	1.050
2020/01/31 22:30:48.2	162.010	-0.290	0.370	1.010
2020/01/31 22:30:48.3	162.020	-0.280	0.310	0.970
2020/01/31 22:30:48.4	162.030	-0.270	0.240	0.930
2020/01/31 22:30:48.5	162.040	-0.250	0.170	0.900
2020/01/31 22:30:48.6	162.040	-0.230	0.110	0.870
2020/01/31 22:30:48.7	162.050	-0.220	0.030	0.840
2020/01/31 22:30:48.8	162.050	-0.200	-0.040	0.820
2020/01/31 22:30:48.9	162.050	-0.180	-0.110	0.800
2020/01/31 22:30:49.0	162.060	-0.160	-0.180	0.780
2020/01/31 22:30:49.1	162.060	-0.130	-0.250	0.760
2020/01/31 22:30:49.2	162.060	-0.110	-0.310	0.750
2020/01/31 22:30:49.3	162.060	-0.090	-0.380	0.730
2020/01/31 22:30:49.4	162.060	-0.060	-0.440	0.710
2020/01/31 22:30:49.5	162.060	-0.040	-0.490	0.700
2020/01/31 22:30:49.6	162.070	-0.020	-0.540	0.690
2020/01/31 22:30:49.7	162.080	0.010	-0.590	0.670
2020/01/31 22:30:49.8	162.090	0.030	-0.630	0.660
2020/01/31 22:30:49.9	162.100	0.060	-0.660	0.640
2020/01/31 22:30:50.0	162.110	0.080	-0.680	0.630
2020/01/31 22:30:50.1	162.120	0.100	-0.700	0.620
2020/01/31 22:30:50.2	162.140	0.130	-0.710	0.600
2020/01/31 22:30:50.3	162.160	0.150	-0.720	0.590
2020/01/31 22:30:50.4	162.190	0.170	-0.720	0.580
2020/01/31 22:30:50.5	162.210	0.190	-0.710	0.570
2020/01/31 22:30:50.6	162.240	0.200	-0.690	0.560
2020/01/31 22:30:50.7	162.270	0.220	-0.670	0.560
2020/01/31 22:30:50.8	162.300	0.230	-0.640	0.550
2020/01/31 22:30:50.9	162.330	0.250	-0.610	0.540
2020/01/31 22:30:51.0	162.370	0.260	-0.580	0.540
2020/01/31 22:30:51.1	162.400	0.270	-0.540	0.540
2020/01/31 22:30:51.2	162.430	0.270	-0.490	0.540
2020/01/31 22:30:51.3	162.460	0.280	-0.450	0.540
2020/01/31 22:30:51.4	162.490	0.280	-0.400	0.540
2020/01/31 22:30:51.5	162.520	0.290	-0.350	0.540
2020/01/31 22:30:51.6	162.550	0.290	-0.310	0.540
2020/01/31 22:30:51.7	162.580	0.290	-0.260	0.550
2020/01/31 22:30:51.8	162.600	0.280	-0.210	0.560
2020/01/31 22:30:51.9	162.630	0.280	-0.170	0.560
2020/01/31 22:30:52.0	162.660	0.280	-0.130	0.570
2020/01/31 22:30:52.1	162.680	0.270	-0.090	0.580
2020/01/31 22:30:52.2	162.690	0.270	-0.060	0.590
2020/01/31 22:30:52.3	162.710	0.260	-0.030	0.600
2020/01/31 22:30:52.4	162.720	0.250	0.000	0.610
2020/01/31 22:30:52.5	162.730	0.250	0.020	0.620
2020/01/31 22:30:52.6	162.740	0.240	0.040	0.620
2020/01/31 22:30:52.7	162.750	0.230	0.060	0.630
2020/01/31 22:30:52.8	162.750	0.220	0.070	0.650
2020/01/31 22:30:52.9	162.760	0.210	0.080	0.660
2020/01/31 22:30:53.0	162.760	0.210	0.080	0.670
2020/01/31 22:30:53.1	162.770	0.200	0.090	0.680
2020/01/31 22:30:53.2	162.770	0.190	0.090	0.690
2020/01/31 22:30:53.3	162.770	0.180	0.080	0.710
2020/01/31 22:30:53.4	162.770	0.170	0.080	0.720
2020/01/31 22:30:53.5	162.770	0.160	0.070	0.730
2020/01/31 22:30:53.6	162.760	0.160	0.060	0.750
2020/01/31 22:30:53.7	162.760	0.150	0.050	0.770
2020/01/31 22:30:53.8	162.760	0.140	0.040	0.780
2020/01/31 22:30:53.9	162.760	0.130	0.020	0.800
2020/01/31 22:30:54.0	162.760	0.130	0.010	0.820
2020/01/31 22:30:54.1	162.760	0.120	-0.000	0.840
2020/01/31 22:30:54.2	162.760	0.120	-0.020	0.850
2020/01/31 22:30:54.3	162.760	0.110	-0.030	0.870
2020/01/31 22:30:54.4	162.760	0.100	-0.040	0.890
2020/01/31 22:30:54.5	162.770	0.100	-0.050	0.910
2020/01/31 22:30:54.6	162.770	0.090	-0.060	0.930
2020/01/31 22:30:54.7	162.780	0.090	-0.070	0.950
2020/01/31 22:30:54.8	162.780	0.080	-0.080	0.970
2020/01/31 22:30:54.9	162.790	0.080	-0.090	0.990
2020/01/31 22:30:55.0	162.790	0.070	-0.090	1.010
2020/01/31 22:30:55.1	162.800	0.070	-0.100	1.020
2020/01/31 22:30:55.2	162.820	0.060	-0.100	1.040
2020/01/31 22:30:55.3	162.830	0.060	-0.110	1.060
2020/01/31 22:30:55.4	162.840	0.050	-0.120	1.080
2020/01/31 22:30:55.5	162.860	0.050	-0.130	1.090
2020/01/31 22:30:55.6	162.870	0.040	-0.140	1.110
2020/01/31 22:30:55.7	162.880	0.040	-0.160	1.130
2020/01/31 22:30:55.8	162.890	0.030	-0.170	1.150
2020/01/31 22:30:55.9	162.900	0.030	-0.190	1.170
2020/01/31 22:30:56.0	162.910	0.020	-0.210	1.190
2020/01/31 22:30:56.1	162.920	0.020	-0.240	1.210
2020/01/31 22:30:56.2	162.930	0.010	-0.270	1.240
2020/01/31 22:30:56.3	162.930	0.010	-0.300	1.260
2020/01/31 22:30:56.4	162.940	0.010	-0.330	1.290
2020/01/31 22:30:56.5	162.940	0.000	-0.370	1.310
2020/01/31 22:30:56.6	162.940	0.000	-0.410	1.340
2020/01/31 22:30:56.7	162.940	0.000	-0.450	1.370
2020/01/31 22:30:56.8	162.930	0.000	-0.490	1.400
2020/01/31 22:30:56.9	162.930	0.000	-0.540	1.430
2020/01/31 22:30:57.0	162.890	0.000	-0.580	1.460
2020/01/31 22:30:57.1	162.880	0.000	-0.630	1.490
2020/01/31 22:30:57.2	162.870	0.010	-0.670	1.520
2020/01/31 22:30:57.3	162.860	0.010	-0.720	1.550
2020/01/31 22:30:57.4	162.850	0.010	-0.760	1.580
2020/01/31 22:30:57.5	162.830	0.020	-0.810	1.620
2020/01/31 22:30:57.6	162.820	0.020	-0.850	1.650
2020/01/31 22:30:57.7	162.800	0.030	-0.890	1.680
2020/01/31 22:30:57.8	162.790	0.030	-0.920	1.710
2020/01/31 22:30:57.9	162.770	0.040	-0.950	1.740
2020/01/31 22:30:58.0	162.760	0.050	-0.980	1.780
2020/01/31 22:30:58.1	162.740	0.050	-1.010	1.810
2020/01/31 22:30:58.2	162.730	0.060	-1.020	1.830
2020/01/31 22:30:58.3	162.710	0.070	-1.030	1.860
2020/01/31 22:30:58.4	162.700	0.070	-1.040	1.880
2020/01/31 22:30:58.5	162.680	0.080	-1.040	1.900
2020/01/31 22:30:58.6	162.670	0.090	-1.030	1.920
2020/01/31 22:30:58.7	162.660	0.100	-1.020	1.930
2020/01/31 22:30:58.8	162.650	0.100	-1.000	1.940
2020/01/31 22:30:58.9	162.640	0.110	-0.970	1.950
2020/01/31 22:30:59.0	162.630	0.110	-0.940	1.960
2020/01/31 22:30:59.1	162.620	0.120	-0.900	1.960
2020/01/31 22:30:59.2	162.620	0.120	-0.850	1.960
2020/01/31 22:30:59.3	162.610	0.120	-0.790	1.950
2020/01/31 22:30:59.4	162.610	0.120	-0.730	1.940
2020/01/31 22:30:59.5	162.610	0.120	-0.670	1.930
2020/01/31 22:30:59.6	162.610	0.110	-0.590	1.910
2020/01/31 22:30:59.7	162.610	0.110	-0.520	1.890
2020/01/31 22:30:59.8	162.620	0.100	-0.440	1.870
2020/01/31 22:30:59.9	162.620	0.090	-0.350	1.850
2020/01/31 22:31:00.0	162.640	0.080	-0.260	1.820
2020/01/31 22:31:00.1	162.650	0.060	-0.170	1.790
2020/01/31 22:31:00.2	162.660	0.050	-0.080	1.760
2020/01/31 22:31:00.3	162.670	0.030	0.010	1.720
2020/01/31 22:31:00.4	162.680	0.010	0.100	1.680
2020/01/31 22:31:00.5	162.700	-0.010	0.190	1.640
2020/01/31 22:31:00.6	162.710	-0.040	0.270	1.600
2020/01/31 22:31:00.7	162.730	-0.060	0.360	1.560
2020/01/31 22:31:00.8	162.740	-0.090	0.440	1.510
2020/01/31 22:31:00.9	162.760	-0.120	0.520	1.470
2020/01/31 22:31:01.0	162.780	-0.150	0.590	1.410
2020/01/31 22:31:01.1	162.800	-0.190	0.650	1.360
2020/01/31 22:31:01.2	162.820	-0.220	0.710	1.310
2020/01/31 22:31:01.3	162.840	-0.250	0.770	1.260
2020/01/31 22:31:01.4	162.860	-0.290	0.810	1.210
2020/01/31 22:31:01.5	162.870	-0.320	0.850	1.160
2020/01/31 22:31:01.6	162.890	-0.360	0.880	1.110
2020/01/31 22:31:01.7	162.910	-0.390	0.900	1.060
2020/01/31 22:31:01.8	162.920	-0.420	0.910	1.020
2020/01/31 22:31:01.9	162.940	-0.450	0.920	0.970
2020/01/31 22:31:02.0	162.960	-0.480	0.910	0.920
2020/01/31 22:31:02.1	162.970	-0.510	0.900	0.870
2020/01/31 22:31:02.2	162.980	-0.530	0.880	0.830
2020/01/31 22:31:02.3	162.990	-0.560	0.850	0.780
2020/01/31 22:31:02.4	163.000	-0.570	0.810	0.740
2020/01/31 22:31:02.5	163.010	-0.590	0.770	0.690
2020/01/31 22:31:02.6	163.010	-0.600	0.710	0.650
2020/01/31 22:31:02.7	163.020	-0.610	0.660	0.610
2020/01/31 22:31:02.8	163.020	-0.610	0.590	0.580
2020/01/31 22:31:02.9	163.020	-0.610	0.530	0.540
2020/01/31 22:31:03.0	163.020	-0.600	0.450	0.510
2020/01/31 22:31:03.1	163.020	-0.590	0.380	0.470
2020/01/31 22:31:03.2	163.010	-0.580	0.300	0.440
2020/01/31 22:31:03.3	163.010	-0.560	0.220	0.420
2020/01/31 22:31:03.4	163.000	-0.530	0.130	0.390
2020/01/31 22:31:03.5	162.990	-0.500	0.050	0.370
2020/01/31 22:31:03.6	162.980	-0.470	-0.030	0.350
2020/01/31 22:31:03.7	162.970	-0.430	-0.120	0.330
2020/01/31 22:31:03.8	162.960	-0.390	-0.200	0.310
2020/01/31 22:31:03.9	162.950	-0.340	-0.280	0.290
2020/01/31 22:31:04.0	162.940	-0.300	-0.360	0.280
2020/01/31 22:31:04.1	162.930	-0.240	-0.430	0.260
2020/01/31 22:31:04.2	162.920	-0.190	-0.500	0.250
2020/01/31 22:31:04.3	162.910	-0.130	-0.560	0.240
2020/01/31 22:31:04.4	162.900	-0.070	-0.620	0.230
2020/01/31 22:31:04.5	162.900	-0.020	-0.680	0.220
2020/01/31 22:31:04.6	162.890	0.040	-0.730	0.210
2020/01/31 22:31:04.7	162.890	0.100	-0.770	0.200
2020/01/31 22:31:04.8	162.890	0.160	-0.800	0.200
2020/01/31 22:31:04.9	162.890	0.220	-0.830	0.190
2020/01/31 22:31:05.0	162.890	0.270	-0.860	0.190
2020/01/31 22:31:05.1	162.890	0.330	-0.870	0.190
2020/01/31 22:31:05.2	162.900	0.380	-0.880	0.200
2020/01/31 22:31:05.3	162.910	0.420	-0.880	0.200
2020/01/31 22:31:05.4	162.910	0.470	-0.880	0.210
2020/01/31 22:31:05.5	162.920	0.500	-0.870	0.220
2020/01/31 22:31:05.6	162.930	0.540	-0.850	0.230
2020/01/31 22:31:05.7	162.940	0.570	-0.830	0.250
2020/01/31 22:31:05.8	162.950	0.590	-0.810	0.270
2020/01/31 22:31:05.9	162.960	0.610	-0.780	0.290
2020/01/31 22:31:06.0	162.970	0.630	-0.750	0.310
2020/01/31 22:31:06.1	162.970	0.640	-0.710	0.340
2020/01/31 22:31:06.2	162.980	0.640	-0.680	0.370
2020/01/31 22:31:06.3	162.990	0.640	-0.640	0.400
2020/01/31 22:31:06.4	162.990	0.630	-0.600	0.440
2020/01/31 22:31:06.5	163.000	0.620	-0.560	0.470
2020/01/31 22:31:06.6	163.000	0.610	-0.520	0.510
2020/01/31 22:31:06.7	163.000	0.590	-0.480	0.550
2020/01/31 22:31:06.8	163.010	0.570	-0.440	0.600
2020/01/31 22:31:06.9	163.010	0.540	-0.400	0.650
2020/01/31 22:31:07.0	163.010	0.510	-0.370	0.700
2020/01/31 22:31:07.1	163.010	0.470	-0.340	0.750
2020/01/31 22:31:07.2	163.000	0.440	-0.300	0.800
2020/01/31 22:31:07.3	163.000	0.400	-0.270	0.850
2020/01/31 22:31:07.4	162.990	0.350	-0.250	0.910
2020/01/31 22:31:07.5	162.980	0.310	-0.220	0.970
2020/01/31 22:31:07.6	162.970	0.270	-0.200	1.030
2020/01/31 22:31:07.7	162.960	0.220	-0.180	1.090
2020/01/31 22:31:07.8	162.950	0.180	-0.160	1.160
2020/01/31 22:31:07.9	162.940	0.130	-0.140	1.220
2020/01/31 22:31:08.0	162.930	0.090	-0.130	1.290
2020/01/31 22:31:08.1	162.910	0.040	-0.110	1.360
2020/01/31 22:31:08.2	162.900	-0.000	-0.100	1.430
2020/01/31 22:31:08.3	162.880	-0.040	-0.090	1.510
2020/01/31 22:31:08.4	162.870	-0.080	-0.080	1.580
2020/01/31 22:31:08.5	162.850	-0.120	-0.070	1.650
2020/01/31 22:31:08.6	162.840	-0.160	-0.060	1.720
2020/01/31 22:31:08.7	162.820	-0.200	-0.050	1.800
2020/01/31 22:31:08.8	162.810	-0.230	-0.040	1.870
2020/01/31 22:31:08.9	162.800	-0.260	-0.030	1.940
2020/01/31 22:31:09.0	162.800	-0.290	-0.020	2.010
2020/01/31 22:31:09.1	162.800	-0.320	-0.000	2.070
2020/01/31 22:31:09.2	162.790	-0.340	0.010	2.140
2020/01/31 22:31:09.3	162.790	-0.370	0.030	2.200
2020/01/31 22:31:09.4	162.790	-0.390	0.040	2.260
2020/01/31 22:31:09.5	162.800	-0.410	0.060	2.310
2020/01/31 22:31:09.6	162.810	-0.420	0.080	2.370
2020/01/31 22:31:09.7	162.820	-0.440	0.100	2.420
2020/01/31 22:31:09.8	162.830	-0.450	0.120	2.460
2020/01/31 22:31:09.9	162.850	-0.460	0.140	2.510
2020/01/31 22:31:10.0	162.840	-0.470	0.160	2.540
2020/01/31 22:31:10.1	162.860	-0.480	0.170	2.580
2020/01/31 22:31:10.2	162.880	-0.480	0.190	2.610
2020/01/31 22:31:10.3	162.910	-0.490	0.200	2.630
2020/01/31 22:31:10.4	162.940	-0.490	0.220	2.650
2020/01/31 22:31:10.5	162.960	-0.480	0.220	2.670
2020/01/31 22:31:10.6	162.990	-0.480	0.230	2.680
2020/01/31 22:31:10.7	163.020	-0.480	0.230	2.690
2020/01/31 22:31:10.8	163.050	-0.470	0.230	2.690
2020/01/31 22:31:10.9	163.080	-0.460	0.220	2.690
2020/01/31 22:31:11.0	163.100	-0.450	0.220	2.690
2020/01/31 22:31:11.1	163.130	-0.430	0.200	2.680
2020/01/31 22:31:11.2	163.150	-0.410	0.180	2.670
2020/01/31 22:31:11.3	163.180	-0.400	0.160	2.650
2020/01/31 22:31:11.4	163.200	-0.370	0.130	2.640
2020/01/31 22:31:11.5	163.230	-0.350	0.100	2.620
2020/01/31 22:31:11.6	163.250	-0.320	0.060	2.600
2020/01/31 22:31:11.7	163.270	-0.300	0.020	2.570
2020/01/31 22:31:11.8	163.290	-0.260	-0.030	2.540
2020/01/31 22:31:11.9	163.300	-0.230	-0.070	2.510
2020/01/31 22:31:12.0	163.300	-0.200	-0.130	2.480
2020/01/31 22:31:12.1	163.310	-0.160	-0.180	2.440
2020/01/31 22:31:12.2	163.320	-0.120	-0.240	2.400
2020/01/31 22:31:12.3	163.330	-0.080	-0.300	2.370
2020/01/31 22:31:12.4	163.340	-0.040	-0.350	2.330
2020/01/31 22:31:12.5	163.350	0.000	-0.410	2.280
2020/01/31 22:31:12.6	163.350	0.040	-0.470	2.240
2020/01/31 22:31:12.7	163.360	0.090	-0.530	2.190
2020/01/31 22:31:12.8	163.360	0.130	-0.580	2.140
2020/01/31 22:31:12.9	163.370	0.180	-0.640	2.100
2020/01/31 22:31:13.0	163.380	0.220	-0.690	2.040
2020/01/31 22:31:13.1	163.380	0.270	-0.740	1.990
2020/01/31 22:31:13.2	163.380	0.310	-0.780	1.940
2020/01/31 22:31:13.3	163.390	0.350	-0.820	1.890
2020/01/31 22:31:13.4	163.390	0.400	-0.850	1.830
2020/01/31 22:31:13.5	163.400	0.440	-0.880	1.780
2020/01/31 22:31:13.6	163.400	0.480	-0.910	1.730
2020/01/31 22:31:13.7	163.410	0.510	-0.920	1.670
2020/01/31 22:31:13.8	163.410	0.550	-0.940	1.620
2020/01/31 22:31:13.9	163.420	0.580	-0.940	1.570
2020/01/31 22:31:14.0	163.430	0.600	-0.940	1.510
2020/01/31 22:31:14.1	163.430	0.630	-0.930	1.460
2020/01/31 22:31:14.2	163.440	0.650	-0.920	1.400
2020/01/31 22:31:14.3	163.460	0.670	-0.900	1.350
2020/01/31 22:31:14.4	163.470	0.680	-0.880	1.300
2020/01/31 22:31:14.5	163.480	0.690	-0.840	1.250
2020/01/31 22:31:14.6	163.500	0.690	-0.810	1.190
2020/01/31 22:31:14.7	163.520	0.690	-0.760	1.140
2020/01/31 22:31:14.8	163.540	0.690	-0.710	1.090
2020/01/31 22:31:14.9	163.560	0.680	-0.660	1.040
2020/01/31 22:31:15.0	163.580	0.660	-0.600	0.990
2020/01/31 22:31:15.1	163.610	0.640	-0.540	0.940
2020/01/31 22:31:15.2	163.630	0.620	-0.470	0.900
2020/01/31 22:31:15.3	163.660	0.590	-0.410	0.850
2020/01/31 22:31:15.4	163.690	0.550	-0.330	0.810
2020/01/31 22:31:15.5	163.720	0.510	-0.260	0.760
2020/01/31 22:31:15.6	163.750	0.470	-0.190	0.720
2020/01/31 22:31:15.7	163.780	0.420	-0.110	0.670
2020/01/31 22:31:15.8	163.810	0.370	-0.040	0.630
2020/01/31 22:31:15.9	163.850	0.320	0.040	0.590
2020/01/31 22:31:16.0	163.910	0.270	0.110	0.550
2020/01/31 22:31:16.1	163.950	0.210	0.180	0.520
2020/01/31 22:31:16.2	163.990	0.150	0.250	0.480
2020/01/31 22:31:16.3	164.030	0.080	0.320	0.450
2020/01/31 22:31:16.4	164.070	0.020	0.380	0.420
2020/01/31 22:31:16.5	164.110	-0.050	0.440	0.390
2020/01/31 22:31:16.6	164.150	-0.110	0.490	0.370
2020/01/31 22:31:16.7	164.190	-0.170	0.540	0.350
2020/01/31 22:31:16.8	164.230	-0.240	0.580	0.340
2020/01/31 22:31:16.9	164.260	-0.300	0.620	0.330
2020/01/31 22:31:17.0	164.310	-0.360	0.640	0.330
2020/01/31 22:31:17.1	164.340	-0.420	0.670	0.340
2020/01/31 22:31:17.2	164.370	-0.480	0.680	0.340
2020/01/31 22:31:17.3	164.400	-0.530	0.680	0.360
2020/01/31 22:31:17.4	164.430	-0.580	0.680	0.380
2020/01/31 22:31:17.5	164.450	-0.620	0.670	0.410
2020/01/31 22:31:17.6	164.470	-0.660	0.660	0.440
2020/01/31 22:31:17.7	164.490	-0.700	0.630	0.480
2020/01/31 22:31:17.8	164.510	-0.730	0.600	0.520
2020/01/31 22:31:17.9	164.520	-0.750	0.560	0.570
2020/01/31 22:31:18.0	164.530	-0.770	0.510	0.620
2020/01/31 22:31:18.1	164.540	-0.790	0.460	0.670
2020/01/31 22:31:18.2	164.550	-0.790	0.410	0.730
2020/01/31 22:31:18.3	164.560	-0.800	0.350	0.780
2020/01/31 22:31:18.4	164.560	-0.800	0.290	0.840
2020/01/31 22:31:18.5	164.570	-0.790	0.220	0.900
2020/01/31 22:31:18.6	164.570	-0.770	0.150	0.950
2020/01/31 22:31:18.7	164.580	-0.760	0.080	1.010
2020/01/31 22:31:18.8	164.580	-0.730	0.010	1.060
2020/01/31 22:31:18.9	164.590	-0.700	-0.060	1.120
2020/01/31 22:31:19.0	164.580	-0.670	-0.120	1.170
2020/01/31 22:31:19.1	164.580	-0.630	-0.190	1.220
2020/01/31 22:31:19.2	164.580	-0.590	-0.260	1.270
2020/01/31 22:31:19.3	164.580	-0.540	-0.330	1.310
2020/01/31 22:31:19.4	164.590	-0.490	-0.390	1.360
2020/01/31 22:31:19.5	164.590	-0.440	-0.460	1.400
2020/01/31 22:31:19.6	164.590	-0.390	-0.520	1.430
2020/01/31 22:31:19.7	164.590	-0.330	-0.570	1.470
2020/01/31 22:31:19.8	164.590	-0.270	-0.630	1.500
2020/01/31 22:31:19.9	164.590	-0.210	-0.680	1.530
2020/01/31 22:31:20.0	164.570	-0.150	-0.730	1.550
2020/01/31 22:31:20.1	164.570	-0.080	-0.770	1.570
2020/01/31 22:31:20.2	164.570	-0.020	-0.810	1.590
2020/01/31 22:31:20.3	164.560	0.040	-0.840	1.610
2020/01/31 22:31:20.4	164.550	0.100	-0.870	1.620
2020/01/31 22:31:20.5	164.550	0.160	-0.900	1.630
2020/01/31 22:31:20.6	164.540	0.220	-0.920	1.640
2020/01/31 22:31:20.7	164.530	0.280	-0.930	1.640
2020/01/31 22:31:20.8	164.520	0.330	-0.940	1.640
2020/01/31 22:31:20.9	164.520	0.380	-0.950	1.640
2020/01/31 22:31:21.0	164.490	0.430	-0.950	1.640
2020/01/31 22:31:21.1	164.490	0.470	-0.940	1.630
2020/01/31 22:31:21.2	164.480	0.510	-0.930	1.620
2020/01/31 22:31:21.3	164.470	0.550	-0.920	1.610
2020/01/31 22:31:21.4	164.460	0.580	-0.900	1.590
2020/01/31 22:31:21.5	164.460	0.610	-0.870	1.570
2020/01/31 22:31:21.6	164.450	0.630	-0.840	1.540
2020/01/31 22:31:21.7	164.450	0.640	-0.810	1.520
2020/01/31 22:31:21.8	164.450	0.660	-0.770	1.490
2020/01/31 22:31:21.9	164.460	0.660	-0.720	1.450
2020/01/31 22:31:22.0	164.460	0.660	-0.670	1.410
2020/01/31 22:31:22.1	164.470	0.660	-0.620	1.370
2020/01/31 22:31:22.2	164.490	0.650	-0.560	1.330
2020/01/31 22:31:22.3	164.510	0.630	-0.490	1.280
2020/01/31 22:31:22.4	164.540	0.610	-0.430	1.230
2020/01/31 22:31:22.5	164.570	0.590	-0.360	1.180
2020/01/31 22:31:22.6	164.600	0.550	-0.280	1.120
2020/01/31 22:31:22.7	164.650	0.520	-0.210	1.070
2020/01/31 22:31:22.8	164.690	0.470	-0.130	1.010
2020/01/31 22:31:22.9	164.740	0.430	-0.050	0.950
2020/01/31 22:31:23.0	164.800	0.380	0.030	0.900
2020/01/31 22:31:23.1	164.860	0.320	0.110	0.840
2020/01/31 22:31:23.2	164.920	0.270	0.180	0.790
2020/01/31 22:31:23.3	164.980	0.210	0.260	0.740
2020/01/31 22:31:23.4	165.050	0.140	0.330	0.700
2020/01/31 22:31:23.5	165.120	0.080	0.400	0.650
2020/01/31 22:31:23.6	165.190	0.010	0.460	0.610
2020/01/31 22:31:23.7	165.260	-0.060	0.520	0.580
2020/01/31 22:31:23.8	165.330	-0.120	0.570	0.550
2020/01/31 22:31:23.9	165.400	-0.190	0.610	0.520
2020/01/31 22:31:24.0	165.480	-0.260	0.650	0.500
2020/01/31 22:31:24.1	165.540	-0.320	0.680	0.480
2020/01/31 22:31:24.2	165.610	-0.380	0.700	0.470
2020/01/31 22:31:24.3	165.670	-0.440	0.710	0.460
2020/01/31 22:31:24.4	165.730	-0.500	0.710	0.460
2020/01/31 22:31:24.5	165.780	-0.550	0.700	0.460
2020/01/31 22:31:24.6	165.830	-0.590	0.680	0.470
2020/01/31 22:31:24.7	165.880	-0.640	0.650	0.480
2020/01/31 22:31:24.8	165.920	-0.670	0.610	0.500
2020/01/31 22:31:24.9	165.950	-0.700	0.560	0.520
2020/01/31 22:31:25.0	165.980	-0.720	0.490	0.550
2020/01/31 22:31:25.1	166.000	-0.740	0.420	0.590
2020/01/31 22:31:25.2	166.010	-0.750	0.340	0.630
2020/01/31 22:31:25.3	166.020	-0.750	0.250	0.670
2020/01/31 22:31:25.4	166.020	-0.740	0.150	0.720
2020/01/31 22:31:25.5	166.020	-0.730	0.040	0.770
2020/01/31 22:31:25.6	166.010	-0.710	-0.070	0.830
2020/01/31 22:31:25.7	166.000	-0.680	-0.190	0.890
2020/01/31 22:31:25.8	165.980	-0.650	-0.310	0.950
2020/01/31 22:31:25.9	165.960	-0.610	-0.430	1.010
2020/01/31 22:31:26.0	165.950	-0.560	-0.550	1.080
2020/01/31 22:31:26.1	165.920	-0.510	-0.680	1.140
2020/01/31 22:31:26.2	165.900	-0.460	-0.790	1.200
2020/01/31 22:31:26.3	165.870	-0.400	-0.910	1.260
2020/01/31 22:31:26.4	165.840	-0.340	-1.020	1.320
2020/01/31 22:31:26.5	165.810	-0.280	-1.120	1.380
2020/01/31 22:31:26.6	165.790	-0.210	-1.210	1.430
2020/01/31 22:31:26.7	165.760	-0.150	-1.290	1.480
2020/01/31 22:31:26.8	165.740	-0.080	-1.360	1.530
2020/01/31 22:31:26.9	165.720	-0.010	-1.420	1.570
2020/01/31 22:31:27.0	165.690	0.050	-1.460	1.610
2020/01/31 22:31:27.1	165.670	0.120	-1.490	1.650
2020/01/31 22:31:27.2	165.660	0.180	-1.500	1.680
2020/01/31 22:31:27.3	165.640	0.240	-1.500	1.700
2020/01/31 22:31:27.4	165.630	0.290	-1.480	1.720
2020/01/31 22:31:27.5	165.620	0.340	-1.440	1.730
2020/01/31 22:31:27.6	165.620	0.390	-1.390	1.740
2020/01/31 22:31:27.7	165.620	0.430	-1.330	1.730
2020/01/31 22:31:27.8	165.620	0.470	-1.250	1.730
2020/01/31 22:31:27.9	165.620	0.500	-1.160	1.720
2020/01/31 22:31:28.0	165.620	0.530	-1.060	1.700
2020/01/31 22:31:28.1	165.630	0.550	-0.940	1.680
2020/01/31 22:31:28.2	165.640	0.570	-0.820	1.650
2020/01/31 22:31:28.3	165.650	0.570	-0.690	1.620
2020/01/31 22:31:28.4	165.670	0.580	-0.550	1.590
2020/01/31 22:31:28.5	165.680	0.580	-0.410	1.550
2020/01/31 22:31:28.6	165.700	0.570	-0.270	1.500
2020/01/31 22:31:28.7	165.710	0.550	-0.120	1.460
2020/01/31 22:31:28.8	165.730	0.530	0.020	1.410
2020/01/31 22:31:28.9	165.750	0.510	0.160	1.360
2020/01/31 22:31:29.0	165.790	0.480	0.300	1.300
2020/01/31 22:31:29.1	165.800	0.450	0.440	1.250
2020/01/31 22:31:29.2	165.820	0.410	0.570	1.190
2020/01/31 22:31:29.3	165.840	0.370	0.690	1.140
2020/01/31 22:31:29.4	165.860	0.330	0.800	1.080
2020/01/31 22:31:29.5	165.880	0.290	0.900	1.030
2020/01/31 22:31:29.6	165.900	0.240	0.990	0.970
2020/01/31 22:31:29.7	165.920	0.190	1.070	0.920
2020/01/31 22:31:29.8	165.940	0.140	1.140	0.860
2020/01/31 22:31:29.9	165.950	0.090	1.190	0.810
2020/01/31 22:31:30.0	165.960	0.050	1.230	0.760
2020/01/31 22:31:30.1	165.980	0.000	1.250	0.710
2020/01/31 22:31:30.2	165.990	-0.040	1.260	0.660
2020/01/31 22:31:30.3	166.000	-0.090	1.260	0.620
2020/01/31 22:31:30.4	166.010	-0.130	1.250	0.580
2020/01/31 22:31:30.5	166.020	-0.170	1.220	0.540
2020/01/31 22:31:30.6	166.020	-0.200	1.170	0.500
2020/01/31 22:31:30.7	166.030	-0.230	1.120	0.470
2020/01/31 22:31:30.8	166.030	-0.260	1.050	0.440
2020/01/31 22:31:30.9	166.030	-0.280	0.970	0.420
2020/01/31 22:31:31.0	166.050	-0.290	0.890	0.390
2020/01/31 22:31:31.1	166.040	-0.310	0.790	0.380
2020/01/31 22:31:31.2	166.030	-0.310	0.680	0.370
2020/01/31 22:31:31.3	166.020	-0.320	0.570	0.360
2020/01/31 22:31:31.4	166.010	-0.320	0.450	0.360
2020/01/31 22:31:31.5	166.000	-0.310	0.320	0.360
2020/01/31 22:31:31.6	165.980	-0.300	0.200	0.370
2020/01/31 22:31:31.7	165.960	-0.290	0.070	0.380
2020/01/31 22:31:31.8	165.940	-0.270	-0.060	0.400
2020/01/31 22:31:31.9	165.920	-0.250	-0.190	0.410
2020/01/31 22:31:32.0	165.890	-0.220	-0.320	0.440
2020/01/31 22:31:32.1	165.860	-0.200	-0.440	0.460
2020/01/31 22:31:32.2	165.840	-0.170	-0.560	0.490
2020/01/31 22:31:32.3	165.820	-0.140	-0.670	0.520
2020/01/31 22:31:32.4	165.800	-0.110	-0.770	0.550
2020/01/31 22:31:32.5	165.780	-0.080	-0.870	0.580
2020/01/31 22:31:32.6	165.760	-0.040	-0.950	0.610
2020/01/31 22:31:32.7	165.740	-0.010	-1.030	0.650
2020/01/31 22:31:32.8	165.720	0.020	-1.100	0.680
2020/01/31 22:31:32.9	165.710	0.050	-1.160	0.720
2020/01/31 22:31:33.0	165.690	0.080	-1.200	0.750
2020/01/31 22:31:33.1	165.670	0.100	-1.240	0.790
2020/01/31 22:31:33.2	165.660	0.130	-1.260	0.830
2020/01/31 22:31:33.3	165.660	0.150	-1.280	0.860
2020/01/31 22:31:33.4	165.650	0.170	-1.280	0.900
2020/01/31 22:31:33.5	165.650	0.190	-1.280	0.930
2020/01/31 22:31:33.6	165.650	0.200	-1.270	0.970
2020/01/31 22:31:33.7	165.650	0.210	-1.250	1.000
2020/01/31 22:31:33.8	165.650	0.220	-1.220	1.030
2020/01/31 22:31:33.9	165.650	0.220	-1.180	1.060
2020/01/31 22:31:34.0	165.640	0.220	-1.140	1.090
2020/01/31 22:31:34.1	165.650	0.220	-1.090	1.120
2020/01/31 22:31:34.2	165.660	0.210	-1.040	1.140
2020/01/31 22:31:34.3	165.670	0.200	-0.990	1.160
2020/01/31 22:31:34.4	165.680	0.190	-0.930	1.180
2020/01/31 22:31:34.5	165.690	0.170	-0.870	1.190
2020/01/31 22:31:34.6	165.700	0.150	-0.800	1.210
2020/01/31 22:31:34.7	165.720	0.130	-0.740	1.220
2020/01/31 22:31:34.8	165.730	0.110	-0.680	1.230
2020/01/31 22:31:34.9	165.740	0.090	-0.620	1.240
2020/01/31 22:31:35.0	165.760	0.060	-0.560	1.240
2020/01/31 22:31:35.1	165.770	0.040	-0.500	1.250
2020/01/31 22:31:35.2	165.780	0.010	-0.450	1.260
2020/01/31 22:31:35.3	165.790	-0.010	-0.400	1.260
2020/01/31 22:31:35.4	165.800	-0.040	-0.350	1.260
2020/01/31 22:31:35.5	165.810	-0.060	-0.310	1.270
2020/01/31 22:31:35.6	165.810	-0.090	-0.270	1.270
2020/01/31 22:31:35.7	165.820	-0.110	-0.230	1.270
2020/01/31 22:31:35.8	165.820	-0.130	-0.200	1.270
2020/01/31 22:31:35.9	165.820	-0.150	-0.170	1.280
2020/01/31 22:31:36.0	165.820	-0.170	-0.150	1.290
2020/01/31 22:31:36.1	165.820	-0.190	-0.130	1.290
2020/01/31 22:31:36.2	165.820	-0.200	-0.110	1.290
2020/01/31 22:31:36.3	165.810	-0.210	-0.100	1.290
2020/01/31 22:31:36.4	165.810	-0.220	-0.080	1.290
2020/01/31 22:31:36.5	165.810	-0.230	-0.070	1.290
2020/01/31 22:31:36.6	165.810	-0.240	-0.060	1.290
2020/01/31 22:31:36.7	165.800	-0.240	-0.060	1.290
2020/01/31 22:31:36.8	165.800	-0.240	-0.050	1.290
2020/01/31 22:31:36.9	165.800	-0.240	-0.050	1.280
2020/01/31 22:31:37.0	165.810	-0.240	-0.040	1.280
2020/01/31 22:31:37.1	165.810	-0.230	-0.040	1.270
2020/01/31 22:31:37.2	165.810	-0.220	-0.040	1.270
2020/01/31 22:31:37.3	165.820	-0.210	-0.030	1.260
2020/01/31 22:31:37.4	165.820	-0.200	-0.030	1.260
2020/01/31 22:31:37.5	165.820	-0.190	-0.030	1.250
2020/01/31 22:31:37.6	165.830	-0.170	-0.030	1.240
2020/01/31 22:31:37.7	165.830	-0.160	-0.030	1.240
2020/01/31 22:31:37.8	165.830	-0.140	-0.020	1.230
2020/01/31 22:31:37.9	165.840	-0.120	-0.020	1.230
2020/01/31 22:31:38.0	165.830	-0.100	-0.020	1.230
2020/01/31 22:31:38.1	165.840	-0.080	-0.020	1.230
2020/01/31 22:31:38.2	165.840	-0.060	-0.010	1.230
2020/01/31 22:31:38.3	165.850	-0.040	-0.010	1.230
2020/01/31 22:31:38.4	165.850	-0.020	-0.010	1.230
2020/01/31 22:31:38.5	165.860	0.000	-0.010	1.230
2020/01/31 22:31:38.6	165.860	0.030	-0.010	1.240
2020/01/31 22:31:38.7	165.860	0.050	-0.000	1.240
2020/01/31 22:31:38.8	165.860	0.070	-0.000	1.250
2020/01/31 22:31:38.9	165.860	0.090	0.000	1.260
2020/01/31 22:31:39.0	165.850	0.110	0.000	1.260
2020/01/31 22:31:39.1	165.850	0.130	0.000	1.270
2020/01/31 22:31:39.2	165.850	0.150	0.000	1.270
2020/01/31 22:31:39.3	165.840	0.160	0.010	1.280
2020/01/31 22:31:39.4	165.840	0.180	0.010	1.280
2020/01/31 22:31:39.5	165.840	0.190	0.010	1.280
2020/01/31 22:31:39.6	165.830	0.200	0.010	1.280
2020/01/31 22:31:39.7	165.830	0.210	0.010	1.280
2020/01/31 22:31:39.8	165.830	0.220	0.010	1.270
2020/01/31 22:31:39.9	165.830	0.230	0.020	1.270
2020/01/31 22:31:40.0	165.840	0.230	0.020	1.260
2020/01/31 22:31:40.1	165.840	0.230	0.030	1.260
2020/01/31 22:31:40.2	165.840	0.230	0.030	1.250
2020/01/31 22:31:40.3	165.840	0.220	0.040	1.240
2020/01/31 22:31:40.4	165.840	0.220	0.050	1.230
2020/01/31 22:31:40.5	165.850	0.210	0.060	1.220
2020/01/31 22:31:40.6	165.850	0.200	0.070	1.210
2020/01/31 22:31:40.7	165.860	0.180	0.080	1.210
2020/01/31 22:31:40.8	165.860	0.170	0.100	1.200
2020/01/31 22:31:40.9	165.870	0.150	0.110	1.200
2020/01/31 22:31:41.0	165.870	0.130	0.130	1.200
2020/01/31 22:31:41.1	165.880	0.110	0.140	1.200
2020/01/31 22:31:41.2	165.890	0.090	0.160	1.200
2020/01/31 22:31:41.3	165.900	0.070	0.170	1.200
2020/01/31 22:31:41.4	165.910	0.050	0.190	1.210
2020/01/31 22:31:41.5	165.920	0.030	0.200	1.220
2020/01/31 22:31:41.6	165.930	0.010	0.210	1.230
2020/01/31 22:31:41.7	165.940	-0.010	0.220	1.250
2020/01/31 22:31:41.8	165.950	-0.030	0.230	1.270
2020/01/31 22:31:41.9	165.950	-0.050	0.240	1.290
2020/01/31 22:31:42.0	165.960	-0.070	0.240	1.310
2020/01/31 22:31:42.1	165.970	-0.080	0.230	1.330
2020/01/31 22:31:42.2	165.980	-0.090	0.230	1.350
2020/01/31 22:31:42.3	165.980	-0.100	0.220	1.370
2020/01/31 22:31:42.4	165.990	-0.110	0.200	1.390
2020/01/31 22:31:42.5	166.000	-0.110	0.180	1.410
2020/01/31 22:31:42.6	166.000	-0.110	0.160	1.430
2020/01/31 22:31:42.7	166.000	-0.100	0.130	1.440
2020/01/31 22:31:42.8	166.010	-0.090	0.100	1.460
2020/01/31 22:31:42.9	166.010	-0.080	0.060	1.470
2020/01/31 22:31:43.0	166.000	-0.070	0.020	1.480
2020/01/31 22:31:43.1	166.010	-0.050	-0.020	1.480
2020/01/31 22:31:43.2	166.010	-0.030	-0.070	1.480
2020/01/31 22:31:43.3	166.010	-0.000	-0.120	1.480
2020/01/31 22:31:43.4	166.010	0.020	-0.180	1.480
2020/01/31 22:31:43.5	166.010	0.050	-0.230	1.470
2020/01/31 22:31:43.6	166.010	0.090	-0.290	1.460
2020/01/31 22:31:43.7	166.000	0.120	-0.340	1.450
2020/01/31 22:31:43.8	166.000	0.150	-0.400	1.440
2020/01/31 22:31:43.9	166.000	0.190	-0.460	1.430
2020/01/31 22:31:44.0	166.010	0.230	-0.510	1.410
2020/01/31 22:31:44.1	166.000	0.260	-0.560	1.400
2020/01/31 22:31:44.2	166.000	0.300	-0.610	1.380
2020/01/31 22:31:44.3	165.990	0.340	-0.660	1.370
2020/01/31 22:31:44.4	165.990	0.370	-0.700	1.350
2020/01/31 22:31:44.5	165.980	0.400	-0.740	1.340
2020/01/31 22:31:44.6	165.970	0.430	-0.780	1.320
2020/01/31 22:31:44.7	165.970	0.460	-0.810	1.310
2020/01/31 22:31:44.8	165.970	0.490	-0.830	1.290
2020/01/31 22:31:44.9	165.960	0.510	-0.850	1.280
2020/01/31 22:31:45.0	165.960	0.520	-0.870	1.270
2020/01/31 22:31:45.1	165.960	0.540	-0.880	1.260
2020/01/31 22:31:45.2	165.960	0.550	-0.880	1.250
2020/01/31 22:31:45.3	165.960	0.550	-0.870	1.240
2020/01/31 22:31:45.4	165.970	0.550	-0.860	1.230
2020/01/31 22:31:45.5	165.970	0.540	-0.840	1.220
2020/01/31 22:31:45.6	165.980	0.530	-0.810	1.210
2020/01/31 22:31:45.7	166.000	0.520	-0.770	1.200
2020/01/31 22:31:45.8	166.010	0.490	-0.730	1.200
2020/01/31 22:31:45.9	166.030	0.470	-0.690	1.190
2020/01/31 22:31:46.0	166.050	0.430	-0.640	1.190
2020/01/31 22:31:46.1	166.070	0.400	-0.580	1.180
2020/01/31 22:31:46.2	166.090	0.360	-0.520	1.180
2020/01/31 22:31:46.3	166.110	0.310	-0.450	1.170
2020/01/31 22:31:46.4	166.140	0.260	-0.380	1.170
2020/01/31 22:31:46.5	166.160	0.210	-0.310	1.170
2020/01/31 22:31:46.6	166.180	0.150	-0.240	1.170
2020/01/31 22:31:46.7	166.210	0.090	-0.170	1.170
2020/01/31 22:31:46.8	166.230	0.030	-0.100	1.170
2020/01/31 22:31:46.9	166.250	-0.030	-0.040	1.170
2020/01/31 22:31:47.0	166.280	-0.090	0.030	1.170
2020/01/31 22:31:47.1	166.300	-0.160	0.090	1.180
2020/01/31 22:31:47.2	166.310	-0.220	0.150	1.180
2020/01/31 22:31:47.3	166.330	-0.280	0.200	1.180
2020/01/31 22:31:47.4	166.340	-0.340	0.250	1.190
2020/01/31 22:31:47.5	166.350	-0.400	0.280	1.200
2020/01/31 22:31:47.6	166.350	-0.450	0.320	1.210
2020/01/31 22:31:47.7	166.360	-0.500	0.340	1.220
2020/01/31 22:31:47.8	166.360	-0.550	0.350	1.230
2020/01/31 22:31:47.9	166.350	-0.590	0.360	1.240
2020/01/31 22:31:48.0	166.370	-0.620	0.360	1.250
2020/01/31 22:31:48.1	166.360	-0.650	0.350	1.270
2020/01/31 22:31:48.2	166.340	-0.670	0.320	1.280
2020/01/31 22:31:48.3	166.330	-0.690	0.290	1.300
2020/01/31 22:31:48.4	166.310	-0.700	0.250	1.320
2020/01/31 22:31:48.5	166.300	-0.700	0.200	1.340
2020/01/31 22:31:48.6	166.270	-0.690	0.140	1.360
2020/01/31 22:31:48.7	166.250	-0.680	0.080	1.380
2020/01/31 22:31:48.8	166.230	-0.660	0.000	1.400
2020/01/31 22:31:48.9	166.200	-0.640	-0.080	1.420
2020/01/31 22:31:49.0	166.170	-0.610	-0.160	1.440
2020/01/31 22:31:49.1	166.150	-0.570	-0.250	1.460
2020/01/31 22:31:49.2	166.120	-0.530	-0.330	1.480
2020/01/31 22:31:49.3	166.100	-0.480	-0.420	1.500
2020/01/31 22:31:49.4	166.070	-0.430	-0.520	1.510
2020/01/31 22:31:49.5	166.050	-0.380	-0.600	1.530
2020/01/31 22:31:49.6	166.030	-0.320	-0.690	1.540
2020/01/31 22:31:49.7	166.010	-0.260	-0.770	1.550
2020/01/31 22:31:49.8	165.990	-0.200	-0.850	1.560
2020/01/31 22:31:49.9	165.970	-0.140	-0.920	1.560
2020/01/31 22:31:50.0	165.940	-0.080	-0.990	1.570
2020/01/31 22:31:50.1	165.930	-0.020	-1.050	1.570
2020/01/31 22:31:50.2	165.920	0.040	-1.100	1.570
2020/01/31 22:31:50.3	165.900	0.100	-1.140	1.580
2020/01/31 22:31:50.4	165.890	0.150	-1.170	1.580
2020/01/31 22:31:50.5	165.880	0.200	-1.200	1.580
2020/01/31 22:31:50.6	165.880	0.250	-1.210	1.570
2020/01/31 22:31:50.7	165.870	0.300	-1.210	1.570
2020/01/31 22:31:50.8	165.870	0.330	-1.200	1.570
2020/01/31 22:31:50.9	165.860	0.370	-1.190	1.560
2020/01/31 22:31:51.0	165.850	0.400	-1.160	1.560
2020/01/31 22:31:51.1	165.850	0.420	-1.120	1.550
2020/01/31 22:31:51.2	165.850	0.440	-1.080	1.540
2020/01/31 22:31:51.3	165.850	0.460	-1.020	1.530
2020/01/31 22:31:51.4	165.850	0.460	-0.960	1.520
2020/01/31 22:31:51.5	165.850	0.470	-0.890	1.500
2020/01/31 22:31:51.6	165.860	0.460	-0.810	1.490
2020/01/31 22:31:51.7	165.860	0.460	-0.730	1.470
2020/01/31 22:31:51.8	165.860	0.440	-0.640	1.450
2020/01/31 22:31:51.9	165.870	0.430	-0.550	1.430
2020/01/31 22:31:52.0	165.880	0.410	-0.460	1.410
2020/01/31 22:31:52.1	165.880	0.380	-0.360	1.380
2020/01/31 22:31:52.2	165.890	0.350	-0.260	1.350
2020/01/31 22:31:52.3	165.900	0.320	-0.160	1.320
2020/01/31 22:31:52.4	165.900	0.290	-0.060	1.290
2020/01/31 22:31:52.5	165.910	0.250	0.040	1.260
2020/01/31 22:31:52.6	165.920	0.210	0.140	1.230
2020/01/31 22:31:52.7	165.930	0.170	0.230	1.190
2020/01/31 22:31:52.8	165.940	0.130	0.330	1.160
2020/01/31 22:31:52.9	165.940	0.090	0.420	1.120
2020/01/31 22:31:53.0	165.960	0.050	0.510	1.090
2020/01/31 22:31:53.1	165.970	0.010	0.590	1.060
2020/01/31 22:31:53.2	165.980	-0.030	0.660	1.020
2020/01/31 22:31:53.3	165.990	-0.070	0.740	0.990
2020/01/31 22:31:53.4	166.000	-0.110	0.800	0.960
2020/01/31 22:31:53.5	166.010	-0.140	0.860	0.930
2020/01/31 22:31:53.6	166.020	-0.180	0.910	0.900
2020/01/31 22:31:53.7	166.020	-0.210	0.960	0.880
2020/01/31 22:31:53.8	166.030	-0.240	0.990	0.850
2020/01/31 22:31:53.9	166.040	-0.260	1.020	0.830
2020/01/31 22:31:54.0	166.050	-0.280	1.040	0.820
2020/01/31 22:31:54.1	166.060	-0.300	1.050	0.800
2020/01/31 22:31:54.2	166.070	-0.320	1.060	0.790
2020/01/31 22:31:54.3	166.070	-0.330	1.060	0.780
2020/01/31 22:31:54.4	166.080	-0.330	1.050	0.780
2020/01/31 22:31:54.5	166.080	-0.340	1.030	0.770
2020/01/31 22:31:54.6	166.090	-0.340	1.000	0.770
2020/01/31 22:31:54.7	166.090	-0.330	0.970	0.770
2020/01/31 22:31:54.8	166.090	-0.330	0.930	0.780
2020/01/31 22:31:54.9	166.100	-0.310	0.880	0.780
2020/01/31 22:31:55.0	166.100	-0.300	0.820	0.790
2020/01/31 22:31:55.1	166.100	-0.280	0.760	0.790
2020/01/31 22:31:55.2	166.110	-0.260	0.690	0.800
2020/01/31 22:31:55.3	166.110	-0.240	0.620	0.810
2020/01/31 22:31:55.4	166.110	-0.220	0.540	0.820
2020/01/31 22:31:55.5	166.120	-0.190	0.460	0.830
2020/01/31 22:31:55.6	166.120	-0.160	0.380	0.840
2020/01/31 22:31:55.7	166.130	-0.130	0.290	0.850
2020/01/31 22:31:55.8	166.130	-0.100	0.200	0.860
2020/01/31 22:31:55.9	166.130	-0.070	0.110	0.880
2020/01/31 22:31:56.0	166.120	-0.040	0.020	0.890
2020/01/31 22:31:56.1	166.120	-0.000	-0.070	0.900
2020/01/31 22:31:56.2	166.130	0.030	-0.150	0.910
2020/01/31 22:31:56.3	166.130	0.060	-0.240	0.930
2020/01/31 22:31:56.4	166.140	0.090	-0.320	0.940
2020/01/31 22:31:56.5	166.140	0.120	-0.400	0.960
2020/01/31 22:31:56.6	166.150	0.150	-0.470	0.980
2020/01/31 22:31:56.7	166.150	0.170	-0.540	1.000
2020/01/31 22:31:56.8	166.150	0.200	-0.610	1.020
2020/01/31 22:31:56.9	166.150	0.220	-0.670	1.040
2020/01/31 22:31:57.0	166.150	0.240	-0.720	1.060
2020/01/31 22:31:57.1	166.150	0.260	-0.760	1.090
2020/01/31 22:31:57.2	166.150	0.270	-0.800	1.120
2020/01/31 22:31:57.3	166.150	0.290	-0.830	1.140
2020/01/31 22:31:57.4	166.160	0.300	-0.860	1.170
2020/01/31 22:31:57.5	166.160	0.300	-0.880	1.200
2020/01/31 22:31:57.6	166.160	0.310	-0.890	1.230
2020/01/31 22:31:57.7	166.160	0.310	-0.890	1.260
2020/01/31 22:31:57.8	166.160	0.310	-0.890	1.290
2020/01/31 22:31:57.9	166.160	0.310	-0.880	1.320
2020/01/31 22:31:58.0	166.150	0.310	-0.870	1.350
2020/01/31 22:31:58.1	166.150	0.300	-0.850	1.380
2020/01/31 22:31:58.2	166.150	0.290	-0.820	1.410
2020/01/31 22:31:58.3	166.150	0.280	-0.790	1.430
2020/01/31 22:31:58.4	166.150	0.270	-0.760	1.460
2020/01/31 22:31:58.5	166.150	0.260	-0.720	1.480
2020/01/31 22:31:58.6	166.140	0.250	-0.680	1.510
2020/01/31 22:31:58.7	166.140	0.240	-0.640	1.530
2020/01/31 22:31:58.8	166.130	0.220	-0.600	1.550
2020/01/31 22:31:58.9	166.130	0.210	-0.560	1.570
2020/01/31 22:31:59.0	166.130	0.200	-0.520	1.590
2020/01/31 22:31:59.1	166.130	0.180	-0.480	1.610
2020/01/31 22:31:59.2	166.120	0.170	-0.450	1.630
2020/01/31 22:31:59.3	166.110	0.160	-0.410	1.640
2020/01/31 22:31:59.4	166.100	0.140	-0.380	1.660
2020/01/31 22:31:59.5	166.080	0.130	-0.350	1.670
2020/01/31 22:31:59.6	166.070	0.120	-0.320	1.680
2020/01/31 22:31:59.7	166.050	0.110	-0.300	1.690
2020/01/31 22:31:59.8	166.040	0.110	-0.280	1.700
2020/01/31 22:31:59.9	166.020	0.100	-0.270	1.710
2020/01/31 22:32:00.0	166.000	0.090	-0.260	1.720
2020/01/31 22:32:00.1	165.990	0.090	-0.250	1.720
2020/01/31 22:32:00.2	165.970	0.090	-0.240	1.730
2020/01/31 22:32:00.3	165.950	0.080	-0.240	1.730
2020/01/31 22:32:00.4	165.930	0.080	-0.240	1.730
2020/01/31 22:32:00.5	165.910	0.080	-0.250	1.730
2020/01/31 22:32:00.6	165.900	0.080	-0.250	1.730
2020/01/31 22:32:00.7	165.880	0.090	-0.260	1.720
2020/01/31 22:32:00.8	165.860	0.090	-0.270	1.720
2020/01/31 22:32:00.9	165.850	0.090	-0.290	1.710
2020/01/31 22:32:01.0	165.840	0.090	-0.300	1.700
2020/01/31 22:32:01.1	165.820	0.100	-0.310	1.700
2020/01/31 22:32:01.2	165.810	0.100	-0.330	1.680
2020/01/31 22:32:01.3	165.800	0.100	-0.350	1.670
2020/01/31 22:32:01.4	165.790	0.110	-0.370	1.660
2020/01/31 22:32:01.5	165.780	0.110	-0.380	1.650
2020/01/31 22:32:01.6	165.770	0.110	-0.400	1.630
2020/01/31 22:32:01.7	165.770	0.120	-0.420	1.610
2020/01/31 22:32:01.8	165.760	0.120	-0.440	1.600
2020/01/31 22:32:01.9	165.760	0.120	-0.460	1.580
2020/01/31 22:32:02.0	165.760	0.120	-0.480	1.560
2020/01/31 22:32:02.1	165.760	0.120	-0.500	1.540
2020/01/31 22:32:02.2	165.760	0.120	-0.520	1.520
2020/01/31 22:32:02.3	165.760	0.120	-0.540	1.510
2020/01/31 22:32:02.4	165.760	0.110	-0.560	1.490
2020/01/31 22:32:02.5	165.750	0.110	-0.580	1.470
2020/01/31 22:32:02.6	165.750	0.100	-0.600	1.460
2020/01/31 22:32:02.7	165.750	0.100	-0.610	1.450
2020/01/31 22:32:02.8	165.740	0.090	-0.630	1.440
2020/01/31 22:32:02.9	165.740	0.080	-0.650	1.420
2020/01/31 22:32:03.0	165.730	0.080	-0.660	1.410
2020/01/31 22:32:03.1	165.720	0.070	-0.670	1.410
2020/01/31 22:32:03.2	165.710	0.060	-0.680	1.400
2020/01/31 22:32:03.3	165.700	0.050	-0.690	1.400
2020/01/31 22:32:03.4	165.680	0.040	-0.700	1.390
2020/01/31 22:32:03.5	165.670	0.030	-0.710	1.390
2020/01/31 22:32:03.6	165.650	0.010	-0.710	1.390
2020/01/31 22:32:03.7	165.630	0.000	-0.710	1.400
2020/01/31 22:32:03.8	165.620	-0.010	-0.700	1.400
2020/01/31 22:32:03.9	165.600	-0.020	-0.690	1.400
2020/01/31 22:32:04.0	165.580	-0.030	-0.680	1.410
2020/01/31 22:32:04.1	165.560	-0.050	-0.660	1.420
2020/01/31 22:32:04.2	165.540	-0.060	-0.640	1.430
2020/01/31 22:32:04.3	165.520	-0.070	-0.610	1.430
2020/01/31 22:32:04.4	165.500	-0.090	-0.580	1.440
2020/01/31 22:32:04.5	165.490	-0.100	-0.540	1.440
2020/01/31 22:32:04.6	165.470	-0.110	-0.500	1.450
2020/01/31 22:32:04.7	165.460	-0.130	-0.460	1.460
2020/01/31 22:32:04.8	165.450	-0.140	-0.410	1.460
2020/01/31 22:32:04.9	165.440	-0.160	-0.360	1.460
2020/01/31 22:32:05.0	165.430	-0.170	-0.310	1.460
2020/01/31 22:32:05.1	165.420	-0.180	-0.250	1.460
2020/01/31 22:32:05.2	165.420	-0.200	-0.190	1.460
2020/01/31 22:32:05.3	165.420	-0.210	-0.130	1.450
2020/01/31 22:32:05.4	165.430	-0.220	-0.060	1.450
2020/01/31 22:32:05.5	165.430	-0.230	0.000	1.440
2020/01/31 22:32:05.6	165.440	-0.250	0.070	1.430
2020/01/31 22:32:05.7	165.450	-0.260	0.130	1.410
2020/01/31 22:32:05.8	165.470	-0.270	0.190	1.400
2020/01/31 22:32:05.9	165.480	-0.280	0.260	1.380
2020/01/31 22:32:06.0	165.490	-0.290	0.320	1.370
2020/01/31 22:32:06.1	165.510	-0.290	0.380	1.350
2020/01/31 22:32:06.2	165.530	-0.300	0.430	1.330
2020/01/31 22:32:06.3	165.550	-0.310	0.480	1.310
2020/01/31 22:32:06.4	165.580	-0.310	0.530	1.290
2020/01/31 22:32:06.5	165.600	-0.310	0.570	1.260
2020/01/31 22:32:06.6	165.620	-0.320	0.610	1.240
2020/01/31 22:32:06.7	165.650	-0.320	0.640	1.220
2020/01/31 22:32:06.8	165.670	-0.320	0.670	1.200
2020/01/31 22:32:06.9	165.690	-0.310	0.690	1.180
2020/01/31 22:32:07.0	165.730	-0.310	0.700	1.160
2020/01/31 22:32:07.1	165.750	-0.300	0.710	1.150
2020/01/31 22:32:07.2	165.770	-0.290	0.710	1.130
2020/01/31 22:32:07.3	165.800	-0.280	0.710	1.120
2020/01/31 22:32:07.4	165.820	-0.270	0.710	1.110
2020/01/31 22:32:07.5	165.840	-0.260	0.690	1.100
2020/01/31 22:32:07.6	165.870	-0.240	0.680	1.090
2020/01/31 22:32:07.7	165.890	-0.230	0.660	1.080
2020/01/31 22:32:07.8	165.910	-0.210	0.630	1.080
2020/01/31 22:32:07.9	165.940	-0.200	0.610	1.070
2020/01/31 22:32:08.0	165.960	-0.180	0.580	1.080
2020/01/31 22:32:08.1	165.990	-0.160	0.550	1.080
2020/01/31 22:32:08.2	166.020	-0.140	0.510	1.080
2020/01/31 22:32:08.3	166.050	-0.120	0.480	1.080
2020/01/31 22:32:08.4	166.080	-0.100	0.450	1.080
2020/01/31 22:32:08.5	166.120	-0.080	0.410	1.080
2020/01/31 22:32:08.6	166.150	-0.060	0.380	1.080
2020/01/31 22:32:08.7	166.190	-0.040	0.340	1.080
2020/01/31 22:32:08.8	166.220	-0.020	0.310	1.090
2020/01/31 22:32:08.9	166.260	0.000	0.280	1.090
2020/01/31 22:32:09.0	166.300	0.020	0.250	1.090
2020/01/31 22:32:09.1	166.340	0.040	0.220	1.090
2020/01/31 22:32:09.2	166.380	0.060	0.200	1.100
2020/01/31 22:32:09.3	166.420	0.070	0.170	1.100
2020/01/31 22:32:09.4	166.460	0.090	0.140	1.110
2020/01/31 22:32:09.5	166.500	0.100	0.120	1.120
2020/01/31 22:32:09.6	166.540	0.120	0.090	1.130
2020/01/31 22:32:09.7	166.570	0.130	0.070	1.140
2020/01/31 22:32:09.8	166.600	0.140	0.040	1.150
2020/01/31 22:32:09.9	166.630	0.150	0.010	1.170
2020/01/31 22:32:10.0	166.670	0.160	-0.020	1.190
2020/01/31 22:32:10.1	166.690	0.170	-0.050	1.210
2020/01/31 22:32:10.2	166.710	0.180	-0.080	1.230
2020/01/31 22:32:10.3	166.730	0.190	-0.110	1.260
2020/01/31 22:32:10.4	166.750	0.200	-0.140	1.290
2020/01/31 22:32:10.5	166.760	0.210	-0.180	1.320
2020/01/31 22:32:10.6	166.770	0.210	-0.210	1.350
2020/01/31 22:32:10.7	166.770	0.220	-0.250	1.390
2020/01/31 22:32:10.8	166.770	0.230	-0.290	1.430
2020/01/31 22:32:10.9	166.770	0.230	-0.330	1.470
2020/01/31 22:32:11.0	166.770	0.240	-0.370	1.510
2020/01/31 22:32:11.1	166.770	0.240	-0.420	1.550
2020/01/31 22:32:11.2	166.760	0.250	-0.460	1.590
2020/01/31 22:32:11.3	166.750	0.250	-0.510	1.640
2020/01/31 22:32:11.4	166.740	0.260	-0.560	1.680
2020/01/31 22:32:11.5	166.720	0.260	-0.600	1.720
2020/01/31 22:32:11.6	166.710	0.260	-0.650	1.760
2020/01/31 22:32:11.7	166.690	0.270	-0.700	1.800
2020/01/31 22:32:11.8	166.680	0.270	-0.750	1.840
2020/01/31 22:32:11.9	166.660	0.270	-0.790	1.880
2020/01/31 22:32:12.0	166.630	0.280	-0.840	1.920
2020/01/31 22:32:12.1	166.620	0.280	-0.890	1.950
2020/01/31 22:32:12.2	166.600	0.280	-0.930	1.980
2020/01/31 22:32:12.3	166.590	0.290	-0.970	2.010
2020/01/31 22:32:12.4	166.570	0.290	-1.010	2.040
2020/01/31 22:32:12.5	166.550	0.290	-1.040	2.060
2020/01/31 22:32:12.6	166.540	0.290	-1.070	2.080
2020/01/31 22:32:12.7	166.530	0.290	-1.100	2.090
2020/01/31 22:32:12.8	166.510	0.300	-1.130	2.110
2020/01/31 22:32:12.9	166.500	0.300	-1.150	2.120
2020/01/31 22:32:13.0	166.490	0.300	-1.160	2.120
2020/01/31 22:32:13.1	166.480	0.300	-1.170	2.120
2020/01/31 22:32:13.2	166.470	0.300	-1.180	2.120
2020/01/31 22:32:13.3	166.460	0.300	-1.180	2.110
2020/01/31 22:32:13.4	166.460	0.300	-1.180	2.100
2020/01/31 22:32:13.5	166.460	0.300	-1.170	2.090
2020/01/31 22:32:13.6	166.450	0.300	-1.160	2.070
2020/01/31 22:32:13.7	166.460	0.290	-1.140	2.050
2020/01/31 22:32:13.8	166.460	0.290	-1.120	2.020
2020/01/31 22:32:13.9	166.470	0.290	-1.090	1.990
2020/01/31 22:32:14.0	166.480	0.280	-1.060	1.960
2020/01/31 22:32:14.1	166.490	0.280	-1.020	1.920
2020/01/31 22:32:14.2	166.500	0.270	-0.970	1.880
2020/01/31 22:32:14.3	166.520	0.260	-0.930	1.840
2020/01/31 22:32:14.4	166.540	0.250	-0.880	1.790
2020/01/31 22:32:14.5	166.560	0.240	-0.820	1.740
2020/01/31 22:32:14.6	166.590	0.220	-0.760	1.690
2020/01/31 22:32:14.7	166.620	0.210	-0.700	1.640
2020/01/31 22:32:14.8	166.650	0.190	-0.640	1.590
2020/01/31 22:32:14.9	166.680	0.170	-0.580	1.530
2020/01/31 22:32:15.0	166.720	0.150	-0.510	1.480
2020/01/31 22:32:15.1	166.760	0.130	-0.450	1.420
2020/01/31 22:32:15.2	166.800	0.110	-0.390	1.360
2020/01/31 22:32:15.3	166.840	0.080	-0.330	1.310
2020/01/31 22:32:15.4	166.880	0.050	-0.260	1.250
2020/01/31 22:32:15.5	166.920	0.020	-0.210	1.200
2020/01/31 22:32:15.6	166.960	-0.000	-0.150	1.150
2020/01/31 22:32:15.7	167.010	-0.040	-0.100	1.100
2020/01/31 22:32:15.8	167.050	-0.070	-0.050	1.050
2020/01/31 22:32:15.9	167.090	-0.100	0.000	1.000
2020/01/31 22:32:16.0	167.140	-0.130	0.040	0.950
2020/01/31 22:32:16.1	167.180	-0.160	0.080	0.910
2020/01/31 22:32:16.2	167.220	-0.200	0.120	0.870
2020/01/31 22:32:16.3	167.250	-0.230	0.150	0.840
2020/01/31 22:32:16.4	167.290	-0.260	0.180	0.800
2020/01/31 22:32:16.5	167.320	-0.290	0.200	0.770
2020/01/31 22:32:16.6	167.350	-0.320	0.220	0.750
2020/01/31 22:32:16.7	167.380	-0.350	0.230	0.720
2020/01/31 22:32:16.8	167.410	-0.380	0.240	0.710
2020/01/31 22:32:16.9	167.440	-0.400	0.250	0.690
2020/01/31 22:32:17.0	167.460	-0.430	0.250	0.680
2020/01/31 22:32:17.1	167.480	-0.450	0.250	0.670
2020/01/31 22:32:17.2	167.500	-0.470	0.240	0.660
2020/01/31 22:32:17.3	167.520	-0.490	0.230	0.660
2020/01/31 22:32:17.4	167.540	-0.500	0.220	0.670
2020/01/31 22:32:17.5	167.550	-0.510	0.200	0.670
2020/01/31 22:32:17.6	167.560	-0.520	0.180	0.680
2020/01/31 22:32:17.7	167.570	-0.530	0.160	0.690
2020/01/31 22:32:17.8	167.580	-0.530	0.130	0.710
2020/01/31 22:32:17.9	167.590	-0.530	0.110	0.730
2020/01/31 22:32:18.0	167.600	-0.530	0.080	0.750
2020/01/31 22:32:18.1	167.600	-0.520	0.050	0.770
2020/01/31 22:32:18.2	167.610	-0.520	0.020	0.790
2020/01/31 22:32:18.3	167.610	-0.510	-0.010	0.810
2020/01/31 22:32:18.4	167.610	-0.490	-0.030	0.840
2020/01/31 22:32:18.5	167.620	-0.480	-0.060	0.860
2020/01/31 22:32:18.6	167.620	-0.460	-0.080	0.890
2020/01/31 22:32:18.7	167.620	-0.440	-0.100	0.920
2020/01/31 22:32:18.8	167.630	-0.420	-0.110	0.940
2020/01/31 22:32:18.9	167.630	-0.400	-0.130	0.960
2020/01/31 22:32:19.0	167.620	-0.370	-0.140	0.990
2020/01/31 22:32:19.1	167.620	-0.350	-0.140	1.010
2020/01/31 22:32:19.2	167.630	-0.320	-0.140	1.030
2020/01/31 22:32:19.3	167.640	-0.290	-0.140	1.040
2020/01/31 22:32:19.4	167.660	-0.270	-0.130	1.060
2020/01/31 22:32:19.5	167.670	-0.240	-0.120	1.070
2020/01/31 22:32:19.6	167.690	-0.210	-0.100	1.070
2020/01/31 22:32:19.7	167.700	-0.180	-0.080	1.080
2020/01/31 22:32:19.8	167.720	-0.160	-0.050	1.080
2020/01/31 22:32:19.9	167.740	-0.130	-0.030	1.080
2020/01/31 22:32:20.0	167.760	-0.100	0.010	1.070
2020/01/31 22:32:20.1	167.780	-0.080	0.040	1.070
2020/01/31 22:32:20.2	167.810	-0.050	0.070	1.060
2020/01/31 22:32:20.3	167.830	-0.030	0.100	1.050
2020/01/31 22:32:20.4	167.850	-0.010	0.140	1.040
2020/01/31 22:32:20.5	167.880	0.010	0.170	1.020
2020/01/31 22:32:20.6	167.900	0.030	0.200	1.000
2020/01/31 22:32:20.7	167.930	0.050	0.230	0.990
2020/01/31 22:32:20.8	167.950	0.060	0.250	0.970
2020/01/31 22:32:20.9	167.970	0.080	0.280	0.950
2020/01/31 22:32:21.0	167.990	0.090	0.290	0.930
2020/01/31 22:32:21.1	168.010	0.100	0.300	0.920
2020/01/31 22:32:21.2	168.020	0.110	0.310	0.900
2020/01/31 22:32:21.3	168.040	0.120	0.320	0.880
2020/01/31 22:32:21.4	168.060	0.120	0.320	0.860
2020/01/31 22:32:21.5	168.070	0.130	0.320	0.850
2020/01/31 22:32:21.6	168.080	0.130	0.310	0.830
2020/01/31 22:32:21.7	168.090	0.130	0.300	0.820
2020/01/31 22:32:21.8	168.100	0.130	0.280	0.810
2020/01/31 22:32:21.9	168.110	0.120	0.260	0.800
2020/01/31 22:32:22.0	168.120	0.120	0.240	0.790
2020/01/31 22:32:22.1	168.130	0.120	0.210	0.790
2020/01/31 22:32:22.2	168.140	0.110	0.170	0.790
2020/01/31 22:32:22.3	168.140	0.100	0.140	0.780
2020/01/31 22:32:22.4	168.150	0.090	0.100	0.780
2020/01/31 22:32:22.5	168.150	0.090	0.060	0.780
2020/01/31 22:32:22.6	168.150	0.080	0.020	0.790
2020/01/31 22:32:22.7	168.160	0.070	-0.030	0.790
2020/01/31 22:32:22.8	168.160	0.060	-0.070	0.800
2020/01/31 22:32:22.9	168.160	0.050	-0.120	0.810
2020/01/31 22:32:23.0	168.140	0.050	-0.160	0.820
2020/01/31 22:32:23.1	168.140	0.040	-0.210	0.830
2020/01/31 22:32:23.2	168.140	0.030	-0.250	0.840
2020/01/31 22:32:23.3	168.130	0.030	-0.290	0.860
2020/01/31 22:32:23.4	168.130	0.030	-0.330	0.870
2020/01/31 22:32:23.5	168.130	0.020	-0.370	0.880
2020/01/31 22:32:23.6	168.130	0.020	-0.410	0.900
2020/01/31 22:32:23.7	168.120	0.020	-0.440	0.910
2020/01/31 22:32:23.8	168.120	0.030	-0.470	0.930
2020/01/31 22:32:23.9	168.120	0.030	-0.500	0.940
2020/01/31 22:32:24.0	168.110	0.040	-0.520	0.950
2020/01/31 22:32:24.1	168.110	0.040	-0.540	0.970
2020/01/31 22:32:24.2	168.100	0.050	-0.560	0.980
2020/01/31 22:32:24.3	168.100	0.060	-0.580	1.000
2020/01/31 22:32:24.4	168.090	0.070	-0.590	1.010
2020/01/31 22:32:24.5	168.080	0.090	-0.600	1.020
2020/01/31 22:32:24.6	168.070	0.100	-0.610	1.040
2020/01/31 22:32:24.7	168.060	0.110	-0.610	1.060
2020/01/31 22:32:24.8	168.060	0.130	-0.610	1.070
2020/01/31 22:32:24.9	168.050	0.140	-0.610	1.090
2020/01/31 22:32:25.0	168.040	0.160	-0.610	1.110
2020/01/31 22:32:25.1	168.030	0.170	-0.610	1.120
2020/01/31 22:32:25.2	168.020	0.190	-0.600	1.140
2020/01/31 22:32:25.3	168.010	0.200	-0.590	1.160
2020/01/31 22:32:25.4	167.990	0.210	-0.590	1.170
2020/01/31 22:32:25.5	167.980	0.230	-0.580	1.190
2020/01/31 22:32:25.6	167.960	0.240	-0.570	1.210
2020/01/31 22:32:25.7	167.950	0.250	-0.560	1.220
2020/01/31 22:32:25.8	167.930	0.260	-0.560	1.240
2020/01/31 22:32:25.9	167.910	0.270	-0.550	1.260
2020/01/31 22:32:26.0	167.900	0.270	-0.540	1.270
2020/01/31 22:32:26.1	167.880	0.280	-0.540	1.280
2020/01/31 22:32:26.2	167.860	0.280	-0.530	1.300
2020/01/31 22:32:26.3	167.840	0.280	-0.520	1.310
2020/01/31 22:32:26.4	167.820	0.280	-0.520	1.320
2020/01/31 22:32:26.5	167.800	0.280	-0.520	1.320
2020/01/31 22:32:26.6	167.780	0.270	-0.510	1.330
2020/01/31 22:32:26.7	167.760	0.260	-0.510	1.330
2020/01/31 22:32:26.8	167.740	0.260	-0.500	1.340
2020/01/31 22:32:26.9	167.720	0.240	-0.500	1.340
2020/01/31 22:32:27.0	167.700	0.230	-0.500	1.340
2020/01/31 22:32:27.1	167.690	0.220	-0.490	1.340
2020/01/31 22:32:27.2	167.670	0.200	-0.490	1.340
2020/01/31 22:32:27.3	167.650	0.180	-0.480	1.340
2020/01/31 22:32:27.4	167.640	0.160	-0.470	1.340
2020/01/31 22:32:27.5	167.620	0.140	-0.470	1.340
2020/01/31 22:32:27.6	167.610	0.120	-0.460	1.340
2020/01/31 22:32:27.7	167.590	0.100	-0.450	1.350
2020/01/31 22:32:27.8	167.580	0.070	-0.440	1.350
2020/01/31 22:32:27.9	167.570	0.050	-0.430	1.360
2020/01/31 22:32:28.0	167.560	0.030	-0.410	1.360
2020/01/31 22:32:28.1	167.550	0.000	-0.400	1.370
2020/01/31 22:32:28.2	167.540	-0.020	-0.380	1.380
2020/01/31 22:32:28.3	167.520	-0.040	-0.360	1.390
2020/01/31 22:32:28.4	167.510	-0.060	-0.350	1.410
2020/01/31 22:32:28.5	167.490	-0.080	-0.330	1.420
2020/01/31 22:32:28.6	167.480	-0.100	-0.310	1.430
2020/01/31 22:32:28.7	167.470	-0.120	-0.290	1.440
2020/01/31 22:32:28.8	167.460	-0.130	-0.270	1.450
2020/01/31 22:32:28.9	167.450	-0.150	-0.250	1.460
2020/01/31 22:32:29.0	167.440	-0.160	-0.230	1.460
2020/01/31 22:32:29.1	167.440	-0.170	-0.200	1.470
2020/01/31 22:32:29.2	167.430	-0.180	-0.180	1.470
2020/01/31 22:32:29.3	167.430	-0.190	-0.150	1.460
2020/01/31 22:32:29.4	167.430	-0.190	-0.130	1.460
2020/01/31 22:32:29.5	167.430	-0.200	-0.100	1.450
2020/01/31 22:32:29.6	167.430	-0.200	-0.070	1.430
2020/01/31 22:32:29.7	167.440	-0.200	-0.040	1.420
2020/01/31 22:32:29.8	167.440	-0.200	-0.010	1.400
2020/01/31 22:32:29.9	167.460	-0.200	0.010	1.380
2020/01/31 22:32:30.0	167.470	-0.200	0.040	1.350
2020/01/31 22:32:30.1	167.480	-0.190	0.070	1.320
2020/01/31 22:32:30.2	167.500	-0.190	0.100	1.300
2020/01/31 22:32:30.3	167.520	-0.190	0.120	1.270
2020/01/31 22:32:30.4	167.550	-0.180	0.150	1.240
2020/01/31 22:32:30.5	167.570	-0.180	0.170	1.210
2020/01/31 22:32:30.6	167.600	-0.180	0.190	1.170
2020/01/31 22:32:30.7	167.630	-0.170	0.210	1.140
2020/01/31 22:32:30.8	167.650	-0.170	0.220	1.120
2020/01/31 22:32:30.9	167.680	-0.170	0.240	1.090
2020/01/31 22:32:31.0	167.730	-0.170	0.250	1.060
2020/01/31 22:32:31.1	167.760	-0.160	0.250	1.040
2020/01/31 22:32:31.2	167.790	-0.160	0.250	1.030
2020/01/31 22:32:31.3	167.820	-0.160	0.250	1.020
2020/01/31 22:32:31.4	167.840	-0.170	0.240	1.010
2020/01/31 22:32:31.5	167.870	-0.170	0.220	1.010
2020/01/31 22:32:31.6	167.890	-0.170	0.210	1.020
2020/01/31 22:32:31.7	167.910	-0.180	0.180	1.030
2020/01/31 22:32:31.8	167.930	-0.180	0.160	1.040
2020/01/31 22:32:31.9	167.940	-0.190	0.130	1.070
2020/01/31 22:32:32.0	167.950	-0.190	0.090	1.100
2020/01/31 22:32:32.1	167.960	-0.200	0.050	1.130
2020/01/31 22:32:32.2	167.960	-0.210	0.010	1.170
2020/01/31 22:32:32.3	167.970	-0.220	-0.040	1.210
2020/01/31 22:32:32.4	167.970	-0.220	-0.090	1.250
2020/01/31 22:32:32.5	167.960	-0.230	-0.140	1.300
2020/01/31 22:32:32.6	167.960	-0.240	-0.190	1.350
2020/01/31 22:32:32.7	167.950	-0.250	-0.240	1.400
2020/01/31 22:32:32.8	167.940	-0.250	-0.290	1.460
2020/01/31 22:32:32.9	167.930	-0.260	-0.340	1.510
2020/01/31 22:32:33.0	167.930	-0.260	-0.390	1.570
2020/01/31 22:32:33.1	167.910	-0.270	-0.430	1.620
2020/01/31 22:32:33.2	167.900	-0.270	-0.480	1.670
2020/01/31 22:32:33.3	167.880	-0.270	-0.520	1.720
2020/01/31 22:32:33.4	167.860	-0.270	-0.560	1.780
2020/01/31 22:32:33.5	167.850	-0.270	-0.590	1.830
2020/01/31 22:32:33.6	167.830	-0.270	-0.620	1.880
2020/01/31 22:32:33.7	167.810	-0.260	-0.650	1.920
2020/01/31 22:32:33.8	167.790	-0.250	-0.670	1.970
2020/01/31 22:32:33.9	167.770	-0.240	-0.680	2.020
2020/01/31 22:32:34.0	167.750	-0.230	-0.700	2.060
2020/01/31 22:32:34.1	167.720	-0.210	-0.700	2.110
2020/01/31 22:32:34.2	167.700	-0.190	-0.700	2.150
2020/01/31 22:32:34.3	167.680	-0.170	-0.700	2.190
2020/01/31 22:32:34.4	167.650	-0.150	-0.700	2.230
2020/01/31 22:32:34.5	167.620	-0.120	-0.690	2.270
2020/01/31 22:32:34.6	167.590	-0.090	-0.680	2.300
2020/01/31 22:32:34.7	167.560	-0.060	-0.660	2.330
2020/01/31 22:32:34.8	167.530	-0.020	-0.640	2.360
2020/01/31 22:32:34.9	167.500	0.020	-0.620	2.390
2020/01/31 22:32:35.0	167.470	0.060	-0.600	2.410
2020/01/31 22:32:35.1	167.440	0.100	-0.570	2.430
2020/01/31 22:32:35.2	167.410	0.140	-0.550	2.450
2020/01/31 22:32:35.3	167.380	0.180	-0.520	2.450
2020/01/31 22:32:35.4	167.350	0.220	-0.490	2.460
2020/01/31 22:32:35.5	167.320	0.260	-0.460	2.450
2020/01/31 22:32:35.6	167.300	0.300	-0.430	2.440
2020/01/31 22:32:35.7	167.280	0.340	-0.400	2.430
2020/01/31 22:32:35.8	167.260	0.380	-0.360	2.400
2020/01/31 22:32:35.9	167.250	0.410	-0.320	2.370
2020/01/31 22:32:36.0	167.250	0.440	-0.290	2.330
2020/01/31 22:32:36.1	167.250	0.470	-0.250	2.300
2020/01/31 22:32:36.2	167.250	0.500	-0.210	2.250
2020/01/31 22:32:36.3	167.250	0.520	-0.170	2.200
2020/01/31 22:32:36.4	167.250	0.540	-0.130	2.150
2020/01/31 22:32:36.5	167.260	0.550	-0.090	2.100
2020/01/31 22:32:36.6	167.280	0.560	-0.050	2.040
2020/01/31 22:32:36.7	167.290	0.570	-0.020	1.980
2020/01/31 22:32:36.8	167.320	0.560	0.020	1.920
2020/01/31 22:32:36.9	167.340	0.560	0.060	1.860
2020/01/31 22:32:37.0	167.370	0.550	0.100	1.790
2020/01/31 22:32:37.1	167.400	0.530	0.130	1.730
2020/01/31 22:32:37.2	167.430	0.510	0.160	1.670
2020/01/31 22:32:37.3	167.470	0.490	0.190	1.610
2020/01/31 22:32:37.4	167.510	0.460	0.220	1.550
2020/01/31 22:32:37.5	167.550	0.420	0.250	1.500
2020/01/31 22:32:37.6	167.590	0.390	0.270	1.440
2020/01/31 22:32:37.7	167.640	0.350	0.290	1.390
2020/01/31 22:32:37.8	167.680	0.300	0.300	1.350
2020/01/31 22:32:37.9	167.730	0.250	0.310	1.300
2020/01/31 22:32:38.0	167.760	0.200	0.320	1.260
2020/01/31 22:32:38.1	167.810	0.150	0.330	1.220
2020/01/31 22:32:38.2	167.850	0.100	0.330	1.190
2020/01/31 22:32:38.3	167.900	0.040	0.330	1.160
2020/01/31 22:32:38.4	167.940	-0.010	0.320	1.140
2020/01/31 22:32:38.5	167.990	-0.070	0.310	1.120
2020/01/31 22:32:38.6	168.030	-0.120	0.290	1.110
2020/01/31 22:32:38.7	168.070	-0.170	0.270	1.100
2020/01/31 22:32:38.8	168.100	-0.230	0.250	1.100
2020/01/31 22:32:38.9	168.140	-0.280	0.220	1.100
2020/01/31 22:32:39.0	168.170	-0.330	0.180	1.100
2020/01/31 22:32:39.1	168.190	-0.370	0.150	1.110
2020/01/31 22:32:39.2	168.220	-0.410	0.100	1.120
2020/01/31 22:32:39.3	168.240	-0.450	0.060	1.140
2020/01/31 22:32:39.4	168.250	-0.480	0.010	1.160
2020/01/31 22:32:39.5	168.270	-0.510	-0.040	1.180
2020/01/31 22:32:39.6	168.280	-0.540	-0.090	1.200
2020/01/31 22:32:39.7	168.290	-0.560	-0.150	1.230
2020/01/31 22:32:39.8	168.290	-0.580	-0.210	1.260
2020/01/31 22:32:39.9	168.290	-0.590	-0.270	1.300
2020/01/31 22:32:40.0	168.280	-0.600	-0.320	1.330
2020/01/31 22:32:40.1	168.280	-0.600	-0.380	1.370
2020/01/31 22:32:40.2	168.270	-0.600	-0.440	1.410
2020/01/31 22:32:40.3	168.270	-0.590	-0.490	1.450
2020/01/31 22:32:40.4	168.260	-0.580	-0.550	1.490
2020/01/31 22:32:40.5	168.250	-0.570	-0.600	1.530
2020/01/31 22:32:40.6	168.240	-0.550	-0.650	1.570
2020/01/31 22:32:40.7	168.230	-0.530	-0.690	1.610
2020/01/31 22:32:40.8	168.210	-0.500	-0.730	1.650
2020/01/31 22:32:40.9	168.200	-0.470	-0.770	1.700
2020/01/31 22:32:41.0	168.180	-0.440	-0.800	1.740
2020/01/31 22:32:41.1	168.170	-0.410	-0.830	1.780
2020/01/31 22:32:41.2	168.150	-0.370	-0.850	1.820
2020/01/31 22:32:41.3	168.140	-0.340	-0.870	1.850
2020/01/31 22:32:41.4	168.120	-0.300	-0.890	1.880
2020/01/31 22:32:41.5	168.110	-0.260	-0.890	1.910
2020/01/31 22:32:41.6	168.100	-0.220	-0.900	1.940
2020/01/31 22:32:41.7	168.090	-0.180	-0.900	1.960
2020/01/31 22:32:41.8	168.090	-0.140	-0.890	1.970
2020/01/31 22:32:41.9	168.080	-0.100	-0.880	1.980
2020/01/31 22:32:42.0	168.080	-0.060	-0.870	1.990
2020/01/31 22:32:42.1	168.080	-0.020	-0.850	1.990
2020/01/31 22:32:42.2	168.080	0.010	-0.820	1.980
2020/01/31 22:32:42.3	168.090	0.040	-0.790	1.970
2020/01/31 22:32:42.4	168.100	0.080	-0.760	1.950
2020/01/31 22:32:42.5	168.110	0.100	-0.720	1.930
2020/01/31 22:32:42.6	168.130	0.130	-0.680	1.900
2020/01/31 22:32:42.7	168.150	0.150	-0.630	1.870
2020/01/31 22:32:42.8	168.170	0.170	-0.580	1.830
2020/01/31 22:32:42.9	168.200	0.190	-0.530	1.790
2020/01/31 22:32:43.0	168.220	0.200	-0.480	1.740
2020/01/31 22:32:43.1	168.250	0.210	-0.420	1.690
2020/01/31 22:32:43.2	168.290	0.220	-0.360	1.640
2020/01/31 22:32:43.3	168.320	0.220	-0.310	1.590
2020/01/31 22:32:43.4	168.360	0.230	-0.250	1.540
2020/01/31 22:32:43.5	168.400	0.220	-0.190	1.480
2020/01/31 22:32:43.6	168.440	0.220	-0.130	1.420
2020/01/31 22:32:43.7	168.480	0.210	-0.080	1.360
2020/01/31 22:32:43.8	168.530	0.210	-0.030	1.310
2020/01/31 22:32:43.9	168.570	0.200	0.020	1.250
2020/01/31 22:32:44.0	168.610	0.190	0.070	1.190
2020/01/31 22:32:44.1	168.650	0.170	0.110	1.140
2020/01/31 22:32:44.2	168.680	0.160	0.150	1.080
2020/01/31 22:32:44.3	168.720	0.150	0.190	1.040
2020/01/31 22:32:44.4	168.750	0.130	0.220	0.990
2020/01/31 22:32:44.5	168.780	0.120	0.240	0.940
2020/01/31 22:32:44.6	168.810	0.110	0.270	0.900
2020/01/31 22:32:44.7	168.830	0.100	0.280	0.860
2020/01/31 22:32:44.8	168.860	0.090	0.300	0.820
2020/01/31 22:32:44.9	168.880	0.080	0.300	0.790
2020/01/31 22:32:45.0	168.900	0.070	0.310	0.760
2020/01/31 22:32:45.1	168.910	0.070	0.310	0.730
2020/01/31 22:32:45.2	168.930	0.060	0.310	0.700
2020/01/31 22:32:45.3	168.940	0.060	0.300	0.670
2020/01/31 22:32:45.4	168.960	0.060	0.290	0.640
2020/01/31 22:32:45.5	168.970	0.060	0.280	0.620
2020/01/31 22:32:45.6	168.980	0.070	0.270	0.590
2020/01/31 22:32:45.7	168.990	0.070	0.250	0.570
2020/01/31 22:32:45.8	169.000	0.070	0.240	0.550
2020/01/31 22:32:45.9	169.020	0.080	0.220	0.530
2020/01/31 22:32:46.0	169.030	0.090	0.210	0.510
2020/01/31 22:32:46.1	169.040	0.090	0.190	0.490
2020/01/31 22:32:46.2	169.050	0.100	0.180	0.480
2020/01/31 22:32:46.3	169.060	0.110	0.160	0.470
2020/01/31 22:32:46.4	169.070	0.120	0.150	0.460
2020/01/31 22:32:46.5	169.090	0.120	0.140	0.450
2020/01/31 22:32:46.6	169.100	0.130	0.120	0.450
2020/01/31 22:32:46.7	169.110	0.140	0.110	0.450
2020/01/31 22:32:46.8	169.120	0.140	0.100	0.460
2020/01/31 22:32:46.9	169.130	0.150	0.080	0.470
2020/01/31 22:32:47.0	169.150	0.150	0.070	0.480
2020/01/31 22:32:47.1	169.160	0.150	0.050	0.490
2020/01/31 22:32:47.2	169.170	0.150	0.040	0.510
2020/01/31 22:32:47.3	169.180	0.150	0.020	0.530
2020/01/31 22:32:47.4	169.190	0.150	0.000	0.560
2020/01/31 22:32:47.5	169.200	0.150	-0.010	0.580
2020/01/31 22:32:47.6	169.210	0.150	-0.030	0.610
2020/01/31 22:32:47.7	169.220	0.140	-0.050	0.640
2020/01/31 22:32:47.8	169.230	0.140	-0.080	0.670
2020/01/31 22:32:47.9	169.240	0.130	-0.100	0.700
2020/01/31 22:32:48.0	169.240	0.130	-0.120	0.730
2020/01/31 22:32:48.1	169.250	0.120	-0.150	0.760
2020/01/31 22:32:48.2	169.250	0.110	-0.170	0.800
2020/01/31 22:32:48.3	169.260	0.100	-0.200	0.830
2020/01/31 22:32:48.4	169.270	0.090	-0.230	0.860
2020/01/31 22:32:48.5	169.270	0.080	-0.260	0.890
2020/01/31 22:32:48.6	169.270	0.070	-0.280	0.920
2020/01/31 22:32:48.7	169.270	0.060	-0.310	0.950
2020/01/31 22:32:48.8	169.280	0.060	-0.340	0.980
2020/01/31 22:32:48.9	169.280	0.050	-0.370	1.000
2020/01/31 22:32:49.0	169.260	0.040	-0.400	1.030
2020/01/31 22:32:49.1	169.260	0.030	-0.420	1.060
2020/01/31 22:32:49.2	169.260	0.020	-0.440	1.080
2020/01/31 22:32:49.3	169.250	0.020	-0.460	1.100
2020/01/31 22:32:49.4	169.240	0.010	-0.480	1.120
2020/01/31 22:32:49.5	169.240	0.000	-0.500	1.140
2020/01/31 22:32:49.6	169.230	-0.000	-0.520	1.160
2020/01/31 22:32:49.7	169.220	-0.010	-0.530	1.180
2020/01/31 22:32:49.8	169.200	-0.010	-0.540	1.200
2020/01/31 22:32:49.9	169.190	-0.010	-0.540	1.220
2020/01/31 22:32:50.0	169.180	-0.010	-0.550	1.230
2020/01/31 22:32:50.1	169.170	-0.010	-0.550	1.250
2020/01/31 22:32:50.2	169.150	-0.010	-0.550	1.270
2020/01/31 22:32:50.3	169.140	-0.010	-0.550	1.290
2020/01/31 22:32:50.4	169.120	-0.010	-0.540	1.310
2020/01/31 22:32:50.5	169.110	-0.010	-0.540	1.320
2020/01/31 22:32:50.6	169.090	-0.000	-0.530	1.340
2020/01/31 22:32:50.7	169.080	0.000	-0.520	1.350
2020/01/31 22:32:50.8	169.070	0.000	-0.500	1.370
2020/01/31 22:32:50.9	169.050	0.010	-0.490	1.380
2020/01/31 22:32:51.0	169.050	0.010	-0.470	1.390
2020/01/31 22:32:51.1	169.040	0.020	-0.460	1.400
2020/01/31 22:32:51.2	169.030	0.020	-0.440	1.410
2020/01/31 22:32:51.3	169.020	0.030	-0.420	1.420
2020/01/31 22:32:51.4	169.010	0.030	-0.410	1.420
2020/01/31 22:32:51.5	169.000	0.040	-0.390	1.420
2020/01/31 22:32:51.6	168.990	0.040	-0.380	1.420
2020/01/31 22:32:51.7	168.990	0.040	-0.370	1.420
2020/01/31 22:32:51.8	168.980	0.050	-0.350	1.420
2020/01/31 22:32:51.9	168.970	0.050	-0.340	1.420
2020/01/31 22:32:52.0	168.950	0.050	-0.340	1.410
2020/01/31 22:32:52.1	168.940	0.060	-0.340	1.410
2020/01/31 22:32:52.2	168.930	0.060	-0.330	1.410
2020/01/31 22:32:52.3	168.920	0.060	-0.330	1.400
2020/01/31 22:32:52.4	168.900	0.060	-0.330	1.390
2020/01/31 22:32:52.5	168.880	0.060	-0.340	1.390
2020/01/31 22:32:52.6	168.870	0.060	-0.350	1.380
2020/01/31 22:32:52.7	168.850	0.070	-0.350	1.370
2020/01/31 22:32:52.8	168.830	0.070	-0.360	1.360
2020/01/31 22:32:52.9	168.810	0.070	-0.370	1.350
2020/01/31 22:32:53.0	168.790	0.060	-0.380	1.340
2020/01/31 22:32:53.1	168.770	0.060	-0.390	1.320
2020/01/31 22:32:53.2	168.750	0.060	-0.400	1.310
2020/01/31 22:32:53.3	168.740	0.050	-0.410	1.290
2020/01/31 22:32:53.4	168.730	0.050	-0.420	1.270
2020/01/31 22:32:53.5	168.720	0.040	-0.430	1.250
2020/01/31 22:32:53.6	168.710	0.030	-0.430	1.230
2020/01/31 22:32:53.7	168.710	0.020	-0.430	1.210
2020/01/31 22:32:53.8	168.700	0.010	-0.430	1.190
2020/01/31 22:32:53.9	168.700	0.000	-0.420	1.160
2020/01/31 22:32:54.0	168.710	-0.010	-0.410	1.140
2020/01/31 22:32:54.1	168.720	-0.030	-0.400	1.110
2020/01/31 22:32:54.2	168.720	-0.040	-0.390	1.090
2020/01/31 22:32:54.3	168.730	-0.060	-0.370	1.070
2020/01/31 22:32:54.4	168.740	-0.080	-0.360	1.050
2020/01/31 22:32:54.5	168.740	-0.100	-0.340	1.030
2020/01/31 22:32:54.6	168.750	-0.120	-0.310	1.010
2020/01/31 22:32:54.7	168.760	-0.140	-0.290	1.000
2020/01/31 22:32:54.8	168.770	-0.160	-0.260	0.980
2020/01/31 22:32:54.9	168.780	-0.180	-0.240	0.970
2020/01/31 22:32:55.0	168.770	-0.200	-0.210	0.960
2020/01/31 22:32:55.1	168.780	-0.220	-0.180	0.960
2020/01/31 22:32:55.2	168.780	-0.250	-0.160	0.950
2020/01/31 22:32:55.3	168.780	-0.270	-0.130	0.950
2020/01/31 22:32:55.4	168.790	-0.290	-0.110	0.960
2020/01/31 22:32:55.5	168.780	-0.300	-0.090	0.960
2020/01/31 22:32:55.6	168.780	-0.320	-0.070	0.970
2020/01/31 22:32:55.7	168.770	-0.330	-0.050	0.990
2020/01/31 22:32:55.8	168.760	-0.350	-0.040	1.010
2020/01/31 22:32:55.9	168.750	-0.360	-0.040	1.030
2020/01/31 22:32:56.0	168.730	-0.370	-0.030	1.050
2020/01/31 22:32:56.1	168.710	-0.370	-0.030	1.080
2020/01/31 22:32:56.2	168.690	-0.380	-0.040	1.110
2020/01/31 22:32:56.3	168.670	-0.380	-0.050	1.140
2020/01/31 22:32:56.4	168.650	-0.370	-0.070	1.170
2020/01/31 22:32:56.5	168.630	-0.370	-0.090	1.200
2020/01/31 22:32:56.6	168.600	-0.360	-0.110	1.220
2020/01/31 22:32:56.7	168.580	-0.350	-0.140	1.250
2020/01/31 22:32:56.8	168.560	-0.340	-0.170	1.280
2020/01/31 22:32:56.9	168.540	-0.330	-0.210	1.300
2020/01/31 22:32:57.0	168.520	-0.310	-0.250	1.330
2020/01/31 22:32:57.1	168.490	-0.300	-0.280	1.350
2020/01/31 22:32:57.2	168.470	-0.280	-0.320	1.370
2020/01/31 22:32:57.3	168.450	-0.260	-0.370	1.390
2020/01/31 22:32:57.4	168.430	-0.240	-0.410	1.410
2020/01/31 22:32:57.5	168.410	-0.210	-0.450	1.430
2020/01/31 22:32:57.6	168.400	-0.190	-0.490	1.450
2020/01/31 22:32:57.7	168.380	-0.170	-0.530	1.470
2020/01/31 22:32:57.8	168.370	-0.150	-0.560	1.500
2020/01/31 22:32:57.9	168.350	-0.130	-0.590	1.520
2020/01/31 22:32:58.0	168.350	-0.110	-0.620	1.540
2020/01/31 22:32:58.1	168.340	-0.090	-0.640	1.570
2020/01/31 22:32:58.2	168.330	-0.070	-0.660	1.590
2020/01/31 22:32:58.3	168.320	-0.060	-0.670	1.620
2020/01/31 22:32:58.4	168.320	-0.040	-0.680	1.660
2020/01/31 22:32:58.5	168.310	-0.030	-0.680	1.690
2020/01/31 22:32:58.6	168.310	-0.020	-0.680	1.730
2020/01/31 22:32:58.7	168.310	-0.020	-0.670	1.760
2020/01/31 22:32:58.8	168.310	-0.010	-0.650	1.800
2020/01/31 22:32:58.9	168.310	-0.010	-0.620	1.840
2020/01/31 22:32:59.0	168.300	-0.010	-0.590	1.880
2020/01/31 22:32:59.1	168.310	-0.020	-0.550	1.920
2020/01/31 22:32:59.2	168.310	-0.020	-0.510	1.960
2020/01/31 22:32:59.3	168.320	-0.030	-0.460	1.990
2020/01/31 22:32:59.4	168.320	-0.040	-0.400	2.020
2020/01/31 22:32:59.5	168.330	-0.050	-0.340	2.050
2020/01/31 22:32:59.6	168.340	-0.060	-0.270	2.080
2020/01/31 22:32:59.7	168.340	-0.080	-0.200	2.100
2020/01/31 22:32:59.8	168.350	-0.090	-0.130	2.130
2020/01/31 22:32:59.9	168.360	-0.100	-0.050	2.140
2020/01/31 22:33:00.0	168.370	-0.120	0.020	2.160
2020/01/31 22:33:00.1	168.370	-0.130	0.100	2.170
2020/01/31 22:33:00.2	168.380	-0.150	0.170	2.180
2020/01/31 22:33:00.3	168.390	-0.160	0.240	2.180
2020/01/31 22:33:00.4	168.390	-0.170	0.310	2.180
2020/01/31 22:33:00.5	168.400	-0.180	0.380	2.180
2020/01/31 22:33:00.6	168.400	-0.190	0.450	2.180
2020/01/31 22:33:00.7	168.410	-0.190	0.500	2.170
2020/01/31 22:33:00.8	168.410	-0.200	0.560	2.160
2020/01/31 22:33:00.9	168.420	-0.200	0.610	2.140
2020/01/31 22:33:01.0	168.420	-0.200	0.650	2.120
2020/01/31 22:33:01.1	168.430	-0.200	0.680	2.100
2020/01/31 22:33:01.2	168.440	-0.190	0.710	2.080
2020/01/31 22:33:01.3	168.450	-0.190	0.740	2.050
2020/01/31 22:33:01.4	168.460	-0.180	0.760	2.020
2020/01/31 22:33:01.5	168.470	-0.170	0.770	1.990
2020/01/31 22:33:01.6	168.490	-0.150	0.770	1.960
2020/01/31 22:33:01.7	168.500	-0.140	0.770	1.930
2020/01/31 22:33:01.8	168.520	-0.120	0.760	1.890
2020/01/31 22:33:01.9	168.540	-0.110	0.750	1.860
2020/01/31 22:33:02.0	168.560	-0.090	0.730	1.820
2020/01/31 22:33:02.1	168.580	-0.070	0.710	1.780
2020/01/31 22:33:02.2	168.600	-0.050	0.680	1.750
2020/01/31 22:33:02.3	168.620	-0.030	0.650	1.720
2020/01/31 22:33:02.4	168.650	-0.010	0.610	1.690
2020/01/31 22:33:02.5	168.670	0.010	0.570	1.660
2020/01/31 22:33:02.6	168.690	0.030	0.530	1.630
2020/01/31 22:33:02.7	168.720	0.050	0.480	1.600
2020/01/31 22:33:02.8	168.740	0.070	0.430	1.580
2020/01/31 22:33:02.9	168.760	0.090	0.380	1.550
2020/01/31 22:33:03.0	168.780	0.110	0.320	1.540
2020/01/31 22:33:03.1	168.800	0.130	0.270	1.520
2020/01/31 22:33:03.2	168.820	0.150	0.210	1.510
2020/01/31 22:33:03.3	168.840	0.160	0.160	1.490
2020/01/31 22:33:03.4	168.860	0.180	0.100	1.480
2020/01/31 22:33:03.5	168.880	0.190	0.050	1.470
2020/01/31 22:33:03.6	168.890	0.210	-0.000	1.460
2020/01/31 22:33:03.7	168.910	0.220	-0.060	1.450
2020/01/31 22:33:03.8	168.920	0.230	-0.110	1.450
2020/01/31 22:33:03.9	168.940	0.240	-0.160	1.440
2020/01/31 22:33:04.0	168.940	0.250	-0.200	1.430
2020/01/31 22:33:04.1	168.950	0.260	-0.240	1.430
2020/01/31 22:33:04.2	168.960	0.270	-0.290	1.430
2020/01/31 22:33:04.3	168.960	0.280	-0.330	1.420
2020/01/31 22:33:04.4	168.970	0.290	-0.370	1.420
2020/01/31 22:33:04.5	168.970	0.300	-0.400	1.410
2020/01/31 22:33:04.6	168.970	0.310	-0.440	1.410
2020/01/31 22:33:04.7	168.970	0.320	-0.470	1.400
2020/01/31 22:33:04.8	168.960	0.330	-0.500	1.400
2020/01/31 22:33:04.9	168.960	0.330	-0.520	1.390
2020/01/31 22:33:05.0	168.960	0.340	-0.550	1.380
2020/01/31 22:33:05.1	168.950	0.350	-0.580	1.370
2020/01/31 22:33:05.2	168.940	0.360	-0.600	1.360
2020/01/31 22:33:05.3	168.930	0.370	-0.610	1.350
2020/01/31 22:33:05.4	168.930	0.380	-0.630	1.340
2020/01/31 22:33:05.5	168.920	0.380	-0.640	1.330
2020/01/31 22:33:05.6	168.910	0.390	-0.650	1.310
2020/01/31 22:33:05.7	168.900	0.400	-0.660	1.300
2020/01/31 22:33:05.8	168.890	0.410	-0.670	1.290
2020/01/31 22:33:05.9	168.890	0.410	-0.680	1.270
2020/01/31 22:33:06.0	168.880	0.420	-0.690	1.260
2020/01/31 22:33:06.1	168.880	0.420	-0.690	1.250
2020/01/31 22:33:06.2	168.880	0.430	-0.700	1.240
2020/01/31 22:33:06.3	168.870	0.430	-0.700	1.230
2020/01/31 22:33:06.4	168.870	0.440	-0.700	1.220
2020/01/31 22:33:06.5	168.880	0.440	-0.700	1.210
2020/01/31 22:33:06.6	168.880	0.440	-0.710	1.210
2020/01/31 22:33:06.7	168.880	0.430	-0.710	1.200
2020/01/31 22:33:06.8	168.890	0.430	-0.710	1.200
2020/01/31 22:33:06.9	168.900	0.430	-0.710	1.200
2020/01/31 22:33:07.0	168.900	0.420	-0.710	1.200
2020/01/31 22:33:07.1	168.910	0.410	-0.710	1.200
2020/01/31 22:33:07.2	168.930	0.400	-0.710	1.200
2020/01/31 22:33:07.3	168.940	0.390	-0.700	1.200
2020/01/31 22:33:07.4	168.960	0.380	-0.700	1.200
2020/01/31 22:33:07.5	168.980	0.360	-0.700	1.210
2020/01/31 22:33:07.6	168.990	0.340	-0.690	1.210
2020/01/31 22:33:07.7	169.010	0.330	-0.690	1.220
2020/01/31 22:33:07.8	169.040	0.300	-0.680	1.220
2020/01/31 22:33:07.9	169.060	0.280	-0.680	1.230
2020/01/31 22:33:08.0	169.080	0.260	-0.670	1.240
2020/01/31 22:33:08.1	169.110	0.230	-0.660	1.250
2020/01/31 22:33:08.2	169.130	0.210	-0.660	1.260
2020/01/31 22:33:08.3	169.150	0.180	-0.650	1.270
2020/01/31 22:33:08.4	169.170	0.150	-0.640	1.270
2020/01/31 22:33:08.5	169.190	0.120	-0.630	1.280
2020/01/31 22:33:08.6	169.210	0.100	-0.630	1.290
2020/01/31 22:33:08.7	169.230	0.070	-0.620	1.300
2020/01/31 22:33:08.8	169.250	0.040	-0.610	1.310
2020/01/31 22:33:08.9	169.260	0.010	-0.600	1.310
2020/01/31 22:33:09.0	169.270	-0.010	-0.600	1.320
2020/01/31 22:33:09.1	169.290	-0.040	-0.590	1.330
2020/01/31 22:33:09.2	169.300	-0.060	-0.580	1.340
2020/01/31 22:33:09.3	169.300	-0.090	-0.570	1.340
2020/01/31 22:33:09.4	169.310	-0.110	-0.570	1.350
2020/01/31 22:33:09.5	169.320	-0.130	-0.560	1.360
2020/01/31 22:33:09.6	169.320	-0.140	-0.550	1.370
2020/01/31 22:33:09.7	169.320	-0.160	-0.550	1.380
2020/01/31 22:33:09.8	169.320	-0.170	-0.550	1.390
2020/01/31 22:33:09.9	169.320	-0.180	-0.540	1.410
2020/01/31 22:33:10.0	169.320	-0.190	-0.540	1.420
2020/01/31 22:33:10.1	169.310	-0.190	-0.540	1.440
2020/01/31 22:33:10.2	169.290	-0.190	-0.540	1.460
2020/01/31 22:33:10.3	169.280	-0.190	-0.550	1.480
2020/01/31 22:33:10.4	169.260	-0.190	-0.550	1.500
2020/01/31 22:33:10.5	169.250	-0.190	-0.560	1.520
2020/01/31 22:33:10.6	169.220	-0.180	-0.560	1.550
2020/01/31 22:33:10.7	169.200	-0.170	-0.570	1.570
2020/01/31 22:33:10.8	169.170	-0.160	-0.580	1.600
2020/01/31 22:33:10.9	169.150	-0.150	-0.590	1.630
2020/01/31 22:33:11.0	169.120	-0.130	-0.600	1.670
2020/01/31 22:33:11.1	169.090	-0.120	-0.610	1.700
2020/01/31 22:33:11.2	169.050	-0.100	-0.620	1.730
2020/01/31 22:33:11.3	169.020	-0.090	-0.630	1.760
2020/01/31 22:33:11.4	168.990	-0.070	-0.630	1.780
2020/01/31 22:33:11.5	168.960	-0.060	-0.640	1.810
2020/01/31 22:33:11.6	168.930	-0.050	-0.640	1.830
2020/01/31 22:33:11.7	168.900	-0.040	-0.630	1.860
2020/01/31 22:33:11.8	168.870	-0.030	-0.620	1.870
2020/01/31 22:33:11.9	168.850	-0.020	-0.600	1.890
2020/01/31 22:33:12.0	168.820	-0.020	-0.580	1.900
2020/01/31 22:33:12.1	168.810	-0.030	-0.550	1.910
2020/01/31 22:33:12.2	168.790	-0.030	-0.520	1.920
2020/01/31 22:33:12.3	168.780	-0.040	-0.470	1.920
2020/01/31 22:33:12.4	168.770	-0.060	-0.420	1.930
2020/01/31 22:33:12.5	168.770	-0.070	-0.370	1.930
2020/01/31 22:33:12.6	168.770	-0.100	-0.300	1.920
2020/01/31 22:33:12.7	168.770	-0.120	-0.230	1.920
2020/01/31 22:33:12.8	168.780	-0.150	-0.160	1.910
2020/01/31 22:33:12.9	168.790	-0.190	-0.080	1.900
2020/01/31 22:33:13.0	168.810	-0.220	0.010	1.890
2020/01/31 22:33:13.1	168.830	-0.260	0.100	1.870
2020/01/31 22:33:13.2	168.850	-0.310	0.190	1.850
2020/01/31 22:33:13.3	168.880	-0.350	0.290	1.830
2020/01/31 22:33:13.4	168.910	-0.400	0.390	1.810
2020/01/31 22:33:13.5	168.940	-0.450	0.480	1.790
2020/01/31 22:33:13.6	168.970	-0.500	0.580	1.770
2020/01/31 22:33:13.7	169.000	-0.550	0.670	1.750
2020/01/31 22:33:13.8	169.040	-0.600	0.760	1.720
2020/01/31 22:33:13.9	169.070	-0.650	0.840	1.700
2020/01/31 22:33:14.0	169.090	-0.700	0.920	1.680
2020/01/31 22:33:14.1	169.120	-0.740	0.990	1.660
2020/01/31 22:33:14.2	169.160	-0.780	1.050	1.640
2020/01/31 22:33:14.3	169.190	-0.820	1.100	1.620
2020/01/31 22:33:14.4	169.210	-0.860	1.140	1.600
2020/01/31 22:33:14.5	169.240	-0.890	1.170	1.580
2020/01/31 22:33:14.6	169.260	-0.910	1.180	1.570
2020/01/31 22:33:14.7	169.280	-0.930	1.190	1.550
2020/01/31 22:33:14.8	169.300	-0.940	1.180	1.540
2020/01/31 22:33:14.9	169.310	-0.950	1.150	1.530
2020/01/31 22:33:15.0	169.330	-0.940	1.120	1.520
2020/01/31 22:33:15.1	169.340	-0.940	1.070	1.520
2020/01/31 22:33:15.2	169.340	-0.920	1.010	1.510
2020/01/31 22:33:15.3	169.340	-0.900	0.930	1.510
2020/01/31 22:33:15.4	169.330	-0.870	0.850	1.510
2020/01/31 22:33:15.5	169.320	-0.830	0.760	1.510
2020/01/31 22:33:15.6	169.310	-0.790	0.660	1.510
2020/01/31 22:33:15.7	169.300	-0.740	0.550	1.520
2020/01/31 22:33:15.8	169.280	-0.680	0.440	1.520
2020/01/31 22:33:15.9	169.260	-0.620	0.320	1.530
2020/01/31 22:33:16.0	169.220	-0.550	0.200	1.540
2020/01/31 22:33:16.1	169.200	-0.480	0.070	1.540
2020/01/31 22:33:16.2	169.180	-0.410	-0.050	1.550
2020/01/31 22:33:16.3	169.160	-0.330	-0.180	1.560
2020/01/31 22:33:16.4	169.140	-0.250	-0.300	1.570
2020/01/31 22:33:16.5	169.110	-0.170	-0.420	1.570
2020/01/31 22:33:16.6	169.090	-0.090	-0.530	1.580
2020/01/31 22:33:16.7	169.070	-0.000	-0.640	1.590
2020/01/31 22:33:16.8	169.050	0.080	-0.730	1.590
2020/01/31 22:33:16.9	169.030	0.160	-0.820	1.600
2020/01/31 22:33:17.0	169.030	0.240	-0.900	1.600
2020/01/31 22:33:17.1	169.010	0.320	-0.970	1.600
2020/01/31 22:33:17.2	168.990	0.390	-1.040	1.600
2020/01/31 22:33:17.3	168.980	0.460	-1.080	1.600
2020/01/31 22:33:17.4	168.970	0.520	-1.120	1.590
2020/01/31 22:33:17.5	168.960	0.580	-1.150	1.580
2020/01/31 22:33:17.6	168.950	0.640	-1.160	1.570
2020/01/31 22:33:17.7	168.950	0.690	-1.170	1.560
2020/01/31 22:33:17.8	168.940	0.730	-1.160	1.540
2020/01/31 22:33:17.9	168.940	0.770	-1.130	1.520
2020/01/31 22:33:18.0	168.950	0.800	-1.110	1.490
2020/01/31 22:33:18.1	168.960	0.820	-1.060	1.470
2020/01/31 22:33:18.2	168.960	0.840	-1.010	1.440
2020/01/31 22:33:18.3	168.970	0.850	-0.950	1.410
2020/01/31 22:33:18.4	168.980	0.850	-0.880	1.370
2020/01/31 22:33:18.5	169.000	0.850	-0.800	1.340
2020/01/31 22:33:18.6	169.010	0.840	-0.710	1.300
2020/01/31 22:33:18.7	169.030	0.820	-0.620	1.260
2020/01/31 22:33:18.8	169.050	0.800	-0.530	1.210
2020/01/31 22:33:18.9	169.070	0.770	-0.430	1.170
2020/01/31 22:33:19.0	169.090	0.740	-0.330	1.130
2020/01/31 22:33:19.1	169.110	0.700	-0.230	1.090
2020/01/31 22:33:19.2	169.130	0.660	-0.130	1.040
2020/01/31 22:33:19.3	169.160	0.620	-0.030	1.000
2020/01/31 22:33:19.4	169.180	0.570	0.060	0.950
2020/01/31 22:33:19.5	169.200	0.520	0.160	0.910
2020/01/31 22:33:19.6	169.220	0.470	0.240	0.870
2020/01/31 22:33:19.7	169.240	0.420	0.320	0.830
2020/01/31 22:33:19.8	169.260	0.370	0.400	0.790
2020/01/31 22:33:19.9	169.280	0.320	0.460	0.760
2020/01/31 22:33:20.0	169.310	0.260	0.520	0.730
2020/01/31 22:33:20.1	169.330	0.210	0.570	0.700
2020/01/31 22:33:20.2	169.340	0.160	0.610	0.680
2020/01/31 22:33:20.3	169.350	0.110	0.640	0.660
2020/01/31 22:33:20.4	169.370	0.060	0.660	0.640
2020/01/31 22:33:20.5	169.380	0.020	0.670	0.630
2020/01/31 22:33:20.6	169.380	-0.030	0.670	0.620
2020/01/31 22:33:20.7	169.390	-0.060	0.660	0.620
2020/01/31 22:33:20.8	169.390	-0.100	0.630	0.630
2020/01/31 22:33:20.9	169.400	-0.130	0.600	0.630
2020/01/31 22:33:21.0	169.390	-0.160	0.560	0.650
2020/01/31 22:33:21.1	169.390	-0.190	0.500	0.670
2020/01/31 22:33:21.2	169.390	-0.210	0.440	0.690
2020/01/31 22:33:21.3	169.380	-0.230	0.380	0.720
2020/01/31 22:33:21.4	169.380	-0.250	0.300	0.750
2020/01/31 22:33:21.5	169.370	-0.260	0.220	0.780
2020/01/31 22:33:21.6	169.360	-0.270	0.130	0.820
2020/01/31 22:33:21.7	169.350	-0.270	0.040	0.850
2020/01/31 22:33:21.8	169.340	-0.270	-0.060	0.900
2020/01/31 22:33:21.9	169.330	-0.270	-0.160	0.940
2020/01/31 22:33:22.0	169.340	-0.270	-0.250	0.980
2020/01/31 22:33:22.1	169.330	-0.270	-0.350	1.030
2020/01/31 22:33:22.2	169.310	-0.260	-0.450	1.080
2020/01/31 22:33:22.3	169.300	-0.250	-0.550	1.120
2020/01/31 22:33:22.4	169.290	-0.240	-0.650	1.170
2020/01/31 22:33:22.5	169.280	-0.230	-0.740	1.220
2020/01/31 22:33:22.6	169.270	-0.210	-0.820	1.270
2020/01/31 22:33:22.7	169.250	-0.200	-0.910	1.320
2020/01/31 22:33:22.8	169.240	-0.180	-0.980	1.370
2020/01/31 22:33:22.9	169.230	-0.170	-1.050	1.420
2020/01/31 22:33:23.0	169.210	-0.150	-1.120	1.480
2020/01/31 22:33:23.1	169.200	-0.140	-1.170	1.530
2020/01/31 22:33:23.2	169.190	-0.120	-1.220	1.580
2020/01/31 22:33:23.3	169.170	-0.110	-1.250	1.630
2020/01/31 22:33:23.4	169.160	-0.090	-1.280	1.680
2020/01/31 22:33:23.5	169.150	-0.080	-1.310	1.720
2020/01/31 22:33:23.6	169.130	-0.060	-1.320	1.760
2020/01/31 22:33:23.7	169.120	-0.050	-1.320	1.800
2020/01/31 22:33:23.8	169.110	-0.030	-1.320	1.840
2020/01/31 22:33:23.9	169.090	-0.020	-1.300	1.880
2020/01/31 22:33:24.0	169.070	-0.010	-1.280	1.910
2020/01/31 22:33:24.1	169.050	0.000	-1.250	1.940
2020/01/31 22:33:24.2	169.040	0.010	-1.220	1.960
2020/01/31 22:33:24.3	169.020	0.020	-1.180	1.980
2020/01/31 22:33:24.4	169.010	0.030	-1.140	2.000
2020/01/31 22:33:24.5	168.990	0.040	-1.090	2.020
2020/01/31 22:33:24.6	168.970	0.060	-1.030	2.030
2020/01/31 22:33:24.7	168.960	0.070	-0.970	2.030
2020/01/31 22:33:24.8	168.940	0.080	-0.920	2.040
2020/01/31 22:33:24.9	168.920	0.090	-0.850	2.040
2020/01/31 22:33:25.0	168.910	0.100	-0.790	2.040
2020/01/31 22:33:25.1	168.890	0.110	-0.730	2.030
2020/01/31 22:33:25.2	168.880	0.120	-0.670	2.020
2020/01/31 22:33:25.3	168.860	0.130	-0.600	2.010
2020/01/31 22:33:25.4	168.850	0.150	-0.540	2.000
2020/01/31 22:33:25.5	168.830	0.160	-0.480	1.980
2020/01/31 22:33:25.6	168.820	0.170	-0.420	1.960
2020/01/31 22:33:25.7	168.810	0.180	-0.360	1.940
2020/01/31 22:33:25.8	168.800	0.190	-0.300	1.920
2020/01/31 22:33:25.9	168.790	0.210	-0.250	1.890
2020/01/31 22:33:26.0	168.790	0.220	-0.200	1.860
2020/01/31 22:33:26.1	168.780	0.230	-0.150	1.840
2020/01/31 22:33:26.2	168.770	0.240	-0.100	1.810
2020/01/31 22:33:26.3	168.770	0.240	-0.050	1.780
2020/01/31 22:33:26.4	168.760	0.250	-0.000	1.750
2020/01/31 22:33:26.5	168.760	0.250	0.040	1.730
2020/01/31 22:33:26.6	168.760	0.250	0.080	1.700
2020/01/31 22:33:26.7	168.760	0.250	0.120	1.670
2020/01/31 22:33:26.8	168.760	0.250	0.160	1.650
2020/01/31 22:33:26.9	168.760	0.250	0.200	1.620
2020/01/31 22:33:27.0	168.760	0.240	0.240	1.590
2020/01/31 22:33:27.1	168.760	0.230	0.280	1.570
2020/01/31 22:33:27.2	168.760	0.220	0.310	1.540
2020/01/31 22:33:27.3	168.760	0.200	0.340	1.520
2020/01/31 22:33:27.4	168.760	0.190	0.370	1.490
2020/01/31 22:33:27.5	168.770	0.170	0.400	1.470
2020/01/31 22:33:27.6	168.770	0.150	0.430	1.450
2020/01/31 22:33:27.7	168.770	0.120	0.460	1.430
2020/01/31 22:33:27.8	168.780	0.100	0.480	1.400
2020/01/31 22:33:27.9	168.780	0.070	0.500	1.380
2020/01/31 22:33:28.0	168.780	0.040	0.520	1.360
2020/01/31 22:33:28.1	168.780	0.010	0.530	1.340
2020/01/31 22:33:28.2	168.790	-0.020	0.540	1.330
2020/01/31 22:33:28.3	168.790	-0.050	0.550	1.310
2020/01/31 22:33:28.4	168.790	-0.080	0.550	1.300
2020/01/31 22:33:28.5	168.790	-0.120	0.540	1.290
2020/01/31 22:33:28.6	168.790	-0.150	0.540	1.280
2020/01/31 22:33:28.7	168.790	-0.180	0.520	1.280
2020/01/31 22:33:28.8	168.790	-0.200	0.510	1.280
2020/01/31 22:33:28.9	168.780	-0.230	0.490	1.280
2020/01/31 22:33:29.0	168.780	-0.260	0.460	1.280
2020/01/31 22:33:29.1	168.770	-0.280	0.430	1.290
2020/01/31 22:33:29.2	168.760	-0.300	0.400	1.290
2020/01/31 22:33:29.3	168.750	-0.310	0.360	1.300
2020/01/31 22:33:29.4	168.740	-0.330	0.310	1.310
2020/01/31 22:33:29.5	168.720	-0.340	0.270	1.330
2020/01/31 22:33:29.6	168.710	-0.350	0.220	1.340
2020/01/31 22:33:29.7	168.690	-0.350	0.160	1.360
2020/01/31 22:33:29.8	168.670	-0.350	0.110	1.380
2020/01/31 22:33:29.9	168.650	-0.350	0.060	1.400
2020/01/31 22:33:30.0	168.630	-0.340	0.000	1.420
2020/01/31 22:33:30.1	168.610	-0.330	-0.060	1.440
2020/01/31 22:33:30.2	168.590	-0.320	-0.110	1.470
2020/01/31 22:33:30.3	168.570	-0.310	-0.170	1.490
2020/01/31 22:33:30.4	168.550	-0.290	-0.220	1.510
2020/01/31 22:33:30.5	168.530	-0.270	-0.270	1.540
2020/01/31 22:33:30.6	168.520	-0.250	-0.320	1.560
2020/01/31 22:33:30.7	168.500	-0.230	-0.370	1.580
2020/01/31 22:33:30.8	168.480	-0.210	-0.410	1.610
2020/01/31 22:33:30.9	168.470	-0.190	-0.450	1.630
2020/01/31 22:33:31.0	168.460	-0.160	-0.490	1.660
2020/01/31 22:33:31.1	168.450	-0.140	-0.530	1.680
2020/01/31 22:33:31.2	168.430	-0.120	-0.560	1.700
2020/01/31 22:33:31.3	168.420	-0.090	-0.590	1.720
2020/01/31 22:33:31.4	168.410	-0.070	-0.610	1.740
2020/01/31 22:33:31.5	168.400	-0.040	-0.630	1.760
2020/01/31 22:33:31.6	168.400	-0.020	-0.650	1.770
2020/01/31 22:33:31.7	168.390	-0.000	-0.660	1.790
2020/01/31 22:33:31.8	168.390	0.020	-0.670	1.800
2020/01/31 22:33:31.9	168.390	0.040	-0.680	1.810
2020/01/31 22:33:32.0	168.400	0.060	-0.680	1.810
2020/01/31 22:33:32.1	168.400	0.070	-0.680	1.810
2020/01/31 22:33:32.2	168.410	0.090	-0.670	1.810
2020/01/31 22:33:32.3	168.420	0.100	-0.670	1.810
2020/01/31 22:33:32.4	168.440	0.110	-0.660	1.800
2020/01/31 22:33:32.5	168.460	0.120	-0.640	1.790
2020/01/31 22:33:32.6	168.470	0.120	-0.620	1.770
2020/01/31 22:33:32.7	168.500	0.130	-0.600	1.750
2020/01/31 22:33:32.8	168.520	0.130	-0.580	1.730
2020/01/31 22:33:32.9	168.540	0.130	-0.550	1.710
2020/01/31 22:33:33.0	168.570	0.130	-0.530	1.690
2020/01/31 22:33:33.1	168.590	0.130	-0.500	1.660
2020/01/31 22:33:33.2	168.620	0.130	-0.470	1.640
2020/01/31 22:33:33.3	168.650	0.120	-0.430	1.620
2020/01/31 22:33:33.4	168.680	0.120	-0.400	1.590
2020/01/31 22:33:33.5	168.700	0.110	-0.370	1.570
2020/01/31 22:33:33.6	168.730	0.100	-0.330	1.550
2020/01/31 22:33:33.7	168.760	0.090	-0.290	1.530
2020/01/31 22:33:33.8	168.780	0.080	-0.260	1.510
2020/01/31 22:33:33.9	168.800	0.070	-0.220	1.490
2020/01/31 22:33:34.0	168.820	0.060	-0.190	1.480
2020/01/31 22:33:34.1	168.840	0.040	-0.150	1.470
2020/01/31 22:33:34.2	168.850	0.030	-0.120	1.460
2020/01/31 22:33:34.3	168.870	0.020	-0.090	1.450
2020/01/31 22:33:34.4	168.880	0.010	-0.070	1.450
2020/01/31 22:33:34.5	168.890	-0.000	-0.040	1.450
2020/01/31 22:33:34.6	168.900	-0.010	-0.020	1.450
2020/01/31 22:33:34.7	168.900	-0.020	-0.000	1.450
2020/01/31 22:33:34.8	168.900	-0.020	0.010	1.460
2020/01/31 22:33:34.9	168.900	-0.030	0.020	1.470
2020/01/31 22:33:35.0	168.890	-0.030	0.020	1.480
2020/01/31 22:33:35.1	168.880	-0.030	0.020	1.490
2020/01/31 22:33:35.2	168.870	-0.030	0.020	1.510
2020/01/31 22:33:35.3	168.870	-0.030	0.010	1.520
2020/01/31 22:33:35.4	168.860	-0.030	0.000	1.530
2020/01/31 22:33:35.5	168.850	-0.020	-0.010	1.540
2020/01/31 22:33:35.6	168.840	-0.020	-0.030	1.560
2020/01/31 22:33:35.7	168.830	-0.010	-0.050	1.570
2020/01/31 22:33:35.8	168.810	0.000	-0.080	1.580
2020/01/31 22:33:35.9	168.800	0.010	-0.110	1.590
2020/01/31 22:33:36.0	168.780	0.020	-0.130	1.590
2020/01/31 22:33:36.1	168.770	0.040	-0.160	1.600
2020/01/31 22:33:36.2	168.760	0.050	-0.200	1.600
2020/01/31 22:33:36.3	168.740	0.070	-0.230	1.600
2020/01/31 22:33:36.4	168.730	0.080	-0.260	1.600
2020/01/31 22:33:36.5	168.720	0.100	-0.300	1.600
2020/01/31 22:33:36.6	168.710	0.110	-0.330	1.600
2020/01/31 22:33:36.7	168.700	0.130	-0.360	1.590
2020/01/31 22:33:36.8	168.690	0.140	-0.390	1.590
2020/01/31 22:33:36.9	168.690	0.160	-0.420	1.590
2020/01/31 22:33:37.0	168.680	0.170	-0.450	1.580
2020/01/31 22:33:37.1	168.670	0.190	-0.470	1.580
2020/01/31 22:33:37.2	168.670	0.200	-0.490	1.570
2020/01/31 22:33:37.3	168.670	0.210	-0.510	1.570
2020/01/31 22:33:37.4	168.670	0.220	-0.520	1.570
2020/01/31 22:33:37.5	168.670	0.230	-0.530	1.560
2020/01/31 22:33:37.6	168.670	0.230	-0.530	1.560
2020/01/31 22:33:37.7	168.680	0.240	-0.530	1.550
2020/01/31 22:33:37.8	168.680	0.240	-0.530	1.550
2020/01/31 22:33:37.9	168.690	0.250	-0.530	1.550
2020/01/31 22:33:38.0	168.710	0.250	-0.520	1.550
2020/01/31 22:33:38.1	168.720	0.240	-0.500	1.550
2020/01/31 22:33:38.2	168.730	0.240	-0.480	1.540
2020/01/31 22:33:38.3	168.740	0.240	-0.460	1.540
2020/01/31 22:33:38.4	168.750	0.230	-0.440	1.540
2020/01/31 22:33:38.5	168.760	0.220	-0.410	1.530
2020/01/31 22:33:38.6	168.770	0.210	-0.380	1.530
2020/01/31 22:33:38.7	168.780	0.200	-0.340	1.520
2020/01/31 22:33:38.8	168.790	0.190	-0.310	1.520
2020/01/31 22:33:38.9	168.810	0.170	-0.270	1.510
2020/01/31 22:33:39.0	168.810	0.160	-0.240	1.500
2020/01/31 22:33:39.1	168.820	0.140	-0.200	1.490
2020/01/31 22:33:39.2	168.830	0.120	-0.160	1.480
2020/01/31 22:33:39.3	168.840	0.100	-0.120	1.470
2020/01/31 22:33:39.4	168.860	0.080	-0.070	1.450
2020/01/31 22:33:39.5	168.870	0.060	-0.030	1.440
2020/01/31 22:33:39.6	168.880	0.040	0.010	1.420
2020/01/31 22:33:39.7	168.900	0.010	0.040	1.400
2020/01/31 22:33:39.8	168.910	-0.010	0.080	1.390
2020/01/31 22:33:39.9	168.920	-0.030	0.120	1.370
2020/01/31 22:33:40.0	168.940	-0.060	0.150	1.360
2020/01/31 22:33:40.1	168.950	-0.080	0.180	1.340
2020/01/31 22:33:40.2	168.960	-0.110	0.210	1.330
2020/01/31 22:33:40.3	168.980	-0.130	0.230	1.320
2020/01/31 22:33:40.4	168.990	-0.150	0.250	1.320
2020/01/31 22:33:40.5	169.000	-0.170	0.260	1.310
2020/01/31 22:33:40.6	169.000	-0.190	0.270	1.310
2020/01/31 22:33:40.7	169.010	-0.210	0.280	1.310
2020/01/31 22:33:40.8	169.020	-0.230	0.280	1.310
2020/01/31 22:33:40.9	169.020	-0.250	0.270	1.310
2020/01/31 22:33:41.0	169.020	-0.260	0.260	1.310
2020/01/31 22:33:41.1	169.030	-0.270	0.250	1.320
2020/01/31 22:33:41.2	169.030	-0.280	0.230	1.330
2020/01/31 22:33:41.3	169.030	-0.290	0.200	1.340
2020/01/31 22:33:41.4	169.030	-0.300	0.180	1.350
2020/01/31 22:33:41.5	169.020	-0.300	0.140	1.360
2020/01/31 22:33:41.6	169.020	-0.300	0.100	1.370
2020/01/31 22:33:41.7	169.010	-0.300	0.060	1.380
2020/01/31 22:33:41.8	169.010	-0.290	0.010	1.400
2020/01/31 22:33:41.9	169.000	-0.280	-0.040	1.410
2020/01/31 22:33:42.0	168.980	-0.270	-0.090	1.430
2020/01/31 22:33:42.1	168.970	-0.250	-0.150	1.440
2020/01/31 22:33:42.2	168.950	-0.240	-0.210	1.460
2020/01/31 22:33:42.3	168.940	-0.210	-0.270	1.470
2020/01/31 22:33:42.4	168.920	-0.190	-0.330	1.490
2020/01/31 22:33:42.5	168.890	-0.160	-0.400	1.500
2020/01/31 22:33:42.6	168.870	-0.130	-0.460	1.510
2020/01/31 22:33:42.7	168.840	-0.100	-0.530	1.530
2020/01/31 22:33:42.8	168.810	-0.070	-0.590	1.540
2020/01/31 22:33:42.9	168.780	-0.040	-0.660	1.550
2020/01/31 22:33:43.0	168.750	0.000	-0.720	1.560
2020/01/31 22:33:43.1	168.720	0.040	-0.780	1.570
2020/01/31 22:33:43.2	168.680	0.080	-0.840	1.580
2020/01/31 22:33:43.3	168.650	0.110	-0.890	1.590
2020/01/31 22:33:43.4	168.610	0.150	-0.930	1.590
2020/01/31 22:33:43.5	168.580	0.190	-0.970	1.600
2020/01/31 22:33:43.6	168.540	0.220	-1.010	1.600
2020/01/31 22:33:43.7	168.510	0.250	-1.030	1.590
2020/01/31 22:33:43.8	168.480	0.280	-1.050	1.590
2020/01/31 22:33:43.9	168.460	0.310	-1.060	1.580
2020/01/31 22:33:44.0	168.440	0.330	-1.060	1.570
2020/01/31 22:33:44.1	168.430	0.350	-1.060	1.560
2020/01/31 22:33:44.2	168.410	0.360	-1.040	1.540
2020/01/31 22:33:44.3	168.410	0.370	-1.010	1.530
2020/01/31 22:33:44.4	168.400	0.370	-0.980	1.520
2020/01/31 22:33:44.5	168.400	0.370	-0.930	1.500
2020/01/31 22:33:44.6	168.410	0.370	-0.880	1.490
2020/01/31 22:33:44.7	168.420	0.360	-0.820	1.470
2020/01/31 22:33:44.8	168.430	0.340	-0.750	1.460
2020/01/31 22:33:44.9	168.450	0.320	-0.680	1.440
2020/01/31 22:33:45.0	168.480	0.290	-0.600	1.430
2020/01/31 22:33:45.1	168.500	0.260	-0.510	1.410
2020/01/31 22:33:45.2	168.530	0.220	-0.420	1.400
2020/01/31 22:33:45.3	168.560	0.180	-0.330	1.380
2020/01/31 22:33:45.4	168.600	0.140	-0.240	1.360
2020/01/31 22:33:45.5	168.630	0.090	-0.140	1.350
2020/01/31 22:33:45.6	168.670	0.040	-0.050	1.330
2020/01/31 22:33:45.7	168.710	-0.020	0.050	1.310
2020/01/31 22:33:45.8	168.750	-0.070	0.140	1.290
2020/01/31 22:33:45.9	168.790	-0.130	0.230	1.270
2020/01/31 22:33:46.0	168.830	-0.180	0.310	1.250
2020/01/31 22:33:46.1	168.870	-0.240	0.390	1.230
2020/01/31 22:33:46.2	168.910	-0.290	0.470	1.210
2020/01/31 22:33:46.3	168.940	-0.350	0.530	1.190
2020/01/31 22:33:46.4	168.980	-0.400	0.590	1.170
2020/01/31 22:33:46.5	169.010	-0.450	0.640	1.150
2020/01/31 22:33:46.6	169.050	-0.490	0.690	1.130
2020/01/31 22:33:46.7	169.080	-0.530	0.720	1.110
2020/01/31 22:33:46.8	169.100	-0.570	0.740	1.090
2020/01/31 22:33:46.9	169.130	-0.600	0.750	1.070
2020/01/31 22:33:47.0	169.150	-0.630	0.750	1.050
2020/01/31 22:33:47.1	169.170	-0.650	0.740	1.040
2020/01/31 22:33:47.2	169.190	-0.660	0.710	1.020
2020/01/31 22:33:47.3	169.200	-0.670	0.680	1.010
2020/01/31 22:33:47.4	169.200	-0.670	0.630	1.010
2020/01/31 22:33:47.5	169.210	-0.670	0.580	1.000
2020/01/31 22:33:47.6	169.210	-0.660	0.510	1.000
2020/01/31 22:33:47.7	169.210	-0.640	0.440	1.000
2020/01/31 22:33:47.8	169.200	-0.610	0.360	1.010
2020/01/31 22:33:47.9	169.190	-0.580	0.270	1.020
2020/01/31 22:33:48.0	169.170	-0.540	0.170	1.030
2020/01/31 22:33:48.1	169.160	-0.490	0.070	1.050
2020/01/31 22:33:48.2	169.140	-0.450	-0.040	1.070
2020/01/31 22:33:48.3	169.120	-0.390	-0.150	1.090
2020/01/31 22:33:48.4	169.100	-0.330	-0.260	1.110
2020/01/31 22:33:48.5	169.080	-0.270	-0.360	1.140
2020/01/31 22:33:48.6	169.050	-0.210	-0.470	1.170
2020/01/31 22:33:48.7	169.030	-0.140	-0.580	1.200
2020/01/31 22:33:48.8	169.010	-0.070	-0.680	1.230
2020/01/31 22:33:48.9	168.990	-0.000	-0.770	1.270
2020/01/31 22:33:49.0	168.950	0.070	-0.850	1.300
2020/01/31 22:33:49.1	168.930	0.130	-0.930	1.330
2020/01/31 22:33:49.2	168.910	0.200	-1.000	1.360
2020/01/31 22:33:49.3	168.900	0.260	-1.050	1.390
2020/01/31 22:33:49.4	168.890	0.320	-1.100	1.410
2020/01/31 22:33:49.5	168.880	0.380	-1.130	1.440
2020/01/31 22:33:49.6	168.870	0.430	-1.150	1.460
2020/01/31 22:33:49.7	168.860	0.480	-1.160	1.480
2020/01/31 22:33:49.8	168.860	0.520	-1.160	1.500
2020/01/31 22:33:49.9	168.860	0.550	-1.140	1.520
2020/01/31 22:33:50.0	168.860	0.580	-1.110	1.530
2020/01/31 22:33:50.1	168.860	0.610	-1.070	1.550
2020/01/31 22:33:50.2	168.860	0.630	-1.020	1.560
2020/01/31 22:33:50.3	168.860	0.640	-0.950	1.560
2020/01/31 22:33:50.4	168.870	0.640	-0.880	1.570
2020/01/31 22:33:50.5	168.870	0.640	-0.800	1.570
2020/01/31 22:33:50.6	168.880	0.630	-0.710	1.570
2020/01/31 22:33:50.7	168.880	0.620	-0.620	1.570
2020/01/31 22:33:50.8	168.890	0.600	-0.520	1.560
2020/01/31 22:33:50.9	168.890	0.580	-0.420	1.550
2020/01/31 22:33:51.0	168.900	0.550	-0.310	1.550
2020/01/31 22:33:51.1	168.900	0.510	-0.210	1.540
2020/01/31 22:33:51.2	168.910	0.480	-0.100	1.530
2020/01/31 22:33:51.3	168.910	0.440	0.000	1.520
2020/01/31 22:33:51.4	168.910	0.390	0.100	1.510
2020/01/31 22:33:51.5	168.910	0.350	0.200	1.510
2020/01/31 22:33:51.6	168.900	0.310	0.290	1.500
2020/01/31 22:33:51.7	168.900	0.260	0.370	1.490
2020/01/31 22:33:51.8	168.890	0.210	0.450	1.480
2020/01/31 22:33:51.9	168.890	0.170	0.520	1.470
2020/01/31 22:33:52.0	168.890	0.120	0.590	1.470
2020/01/31 22:33:52.1	168.890	0.080	0.640	1.460
2020/01/31 22:33:52.2	168.880	0.030	0.690	1.460
2020/01/31 22:33:52.3	168.880	-0.010	0.730	1.450
2020/01/31 22:33:52.4	168.870	-0.050	0.760	1.450
2020/01/31 22:33:52.5	168.870	-0.080	0.780	1.440
2020/01/31 22:33:52.6	168.870	-0.120	0.800	1.440
2020/01/31 22:33:52.7	168.870	-0.150	0.810	1.440
2020/01/31 22:33:52.8	168.870	-0.170	0.800	1.440
2020/01/31 22:33:52.9	168.870	-0.200	0.800	1.440
2020/01/31 22:33:53.0	168.880	-0.220	0.780	1.440
2020/01/31 22:33:53.1	168.880	-0.230	0.760	1.440
2020/01/31 22:33:53.2	168.880	-0.250	0.730	1.440
2020/01/31 22:33:53.3	168.890	-0.250	0.690	1.440
2020/01/31 22:33:53.4	168.890	-0.260	0.650	1.440
2020/01/31 22:33:53.5	168.900	-0.260	0.610	1.440
2020/01/31 22:33:53.6	168.910	-0.250	0.560	1.440
2020/01/31 22:33:53.7	168.910	-0.250	0.510	1.440
2020/01/31 22:33:53.8	168.920	-0.240	0.450	1.440
2020/01/31 22:33:53.9	168.920	-0.220	0.390	1.440
2020/01/31 22:33:54.0	168.930	-0.200	0.330	1.450
2020/01/31 22:33:54.1	168.940	-0.180	0.260	1.450
2020/01/31 22:33:54.2	168.940	-0.160	0.200	1.450
2020/01/31 22:33:54.3	168.950	-0.130	0.130	1.450
2020/01/31 22:33:54.4	168.950	-0.110	0.060	1.450
2020/01/31 22:33:54.5	168.950	-0.080	-0.010	1.450
2020/01/31 22:33:54.6	168.950	-0.040	-0.090	1.450
2020/01/31 22:33:54.7	168.950	-0.010	-0.160	1.450
2020/01/31 22:33:54.8	168.950	0.020	-0.230	1.450
2020/01/31 22:33:54.9	168.940	0.060	-0.310	1.450
2020/01/31 22:33:55.0	168.940	0.090	-0.380	1.450
2020/01/31 22:33:55.1	168.930	0.130	-0.460	1.450
2020/01/31 22:33:55.2	168.930	0.160	-0.530	1.440
2020/01/31 22:33:55.3	168.920	0.200	-0.600	1.440
2020/01/31 22:33:55.4	168.910	0.230	-0.670	1.430
2020/01/31 22:33:55.5	168.900	0.260	-0.730	1.430
2020/01/31 22:33:55.6	168.890	0.290	-0.800	1.420
2020/01/31 22:33:55.7	168.880	0.320	-0.860	1.410
2020/01/31 22:33:55.8	168.880	0.350	-0.910	1.400
2020/01/31 22:33:55.9	168.870	0.370	-0.970	1.390
2020/01/31 22:33:56.0	168.860	0.390	-1.010	1.380
2020/01/31 22:33:56.1	168.850	0.410	-1.060	1.370
2020/01/31 22:33:56.2	168.850	0.430	-1.100	1.360
2020/01/31 22:33:56.3	168.850	0.440	-1.130	1.360
2020/01/31 22:33:56.4	168.850	0.450	-1.160	1.350
2020/01/31 22:33:56.5	168.850	0.460	-1.190	1.340
2020/01/31 22:33:56.6	168.850	0.460	-1.210	1.330
2020/01/31 22:33:56.7	168.850	0.460	-1.220	1.330
2020/01/31 22:33:56.8	168.850	0.460	-1.230	1.330
2020/01/31 22:33:56.9	168.860	0.450	-1.230	1.330
2020/01/31 22:33:57.0	168.860	0.440	-1.230	1.320
2020/01/31 22:33:57.1	168.870	0.430	-1.220	1.330
2020/01/31 22:33:57.2	168.870	0.410	-1.210	1.330
2020/01/31 22:33:57.3	168.880	0.400	-1.180	1.330
2020/01/31 22:33:57.4	168.890	0.370	-1.160	1.330
2020/01/31 22:33:57.5	168.900	0.350	-1.130	1.340
2020/01/31 22:33:57.6	168.910	0.320	-1.090	1.340
2020/01/31 22:33:57.7	168.920	0.300	-1.050	1.350
2020/01/31 22:33:57.8	168.930	0.270	-1.000	1.360
2020/01/31 22:33:57.9	168.940	0.230	-0.950	1.360
2020/01/31 22:33:58.0	168.970	0.200	-0.900	1.370
2020/01/31 22:33:58.1	168.980	0.170	-0.850	1.380
2020/01/31 22:33:58.2	168.990	0.130	-0.790	1.380
2020/01/31 22:33:58.3	169.000	0.100	-0.730	1.390
2020/01/31 22:33:58.4	169.010	0.060	-0.680	1.390
2020/01/31 22:33:58.5	169.020	0.030	-0.620	1.400
2020/01/31 22:33:58.6	169.030	-0.010	-0.560	1.410
2020/01/31 22:33:58.7	169.040	-0.040	-0.510	1.410
2020/01/31 22:33:58.8	169.040	-0.080	-0.450	1.420
2020/01/31 22:33:58.9	169.050	-0.110	-0.400	1.420
2020/01/31 22:33:59.0	169.050	-0.140	-0.360	1.430
2020/01/31 22:33:59.1	169.060	-0.170	-0.310	1.440
2020/01/31 22:33:59.2	169.060	-0.190	-0.270	1.450
2020/01/31 22:33:59.3	169.060	-0.220	-0.230	1.460
2020/01/31 22:33:59.4	169.050	-0.240	-0.200	1.470
2020/01/31 22:33:59.5	169.050	-0.270	-0.170	1.480
2020/01/31 22:33:59.6	169.040	-0.290	-0.140	1.500
2020/01/31 22:33:59.7	169.040	-0.300	-0.120	1.510
2020/01/31 22:33:59.8	169.030	-0.320	-0.100	1.520
2020/01/31 22:33:59.9	169.020	-0.330	-0.090	1.540
2020/01/31 22:34:00.0	169.010	-0.340	-0.080	1.560
2020/01/31 22:34:00.1	169.000	-0.350	-0.070	1.570
2020/01/31 22:34:00.2	168.990	-0.350	-0.070	1.590
2020/01/31 22:34:00.3	168.980	-0.360	-0.060	1.610
2020/01/31 22:34:00.4	168.970	-0.360	-0.060	1.630
2020/01/31 22:34:00.5	168.960	-0.360	-0.060	1.650
2020/01/31 22:34:00.6	168.950	-0.360	-0.060	1.670
2020/01/31 22:34:00.7	168.940	-0.350	-0.070	1.690
2020/01/31 22:34:00.8	168.920	-0.350	-0.070	1.710
2020/01/31 22:34:00.9	168.910	-0.340	-0.070	1.740
2020/01/31 22:34:01.0	168.900	-0.340	-0.070	1.760
2020/01/31 22:34:01.1	168.880	-0.330	-0.070	1.780
2020/01/31 22:34:01.2	168.870	-0.320	-0.070	1.800
2020/01/31 22:34:01.3	168.860	-0.310	-0.070	1.830
2020/01/31 22:34:01.4	168.850	-0.300	-0.060	1.850
2020/01/31 22:34:01.5	168.840	-0.290	-0.060	1.870
2020/01/31 22:34:01.6	168.830	-0.290	-0.050	1.900
2020/01/31 22:34:01.7	168.820	-0.280	-0.040	1.920
2020/01/31 22:34:01.8	168.810	-0.270	-0.020	1.940
2020/01/31 22:34:01.9	168.800	-0.270	-0.000	1.960
2020/01/31 22:34:02.0	168.790	-0.260	0.010	1.980
2020/01/31 22:34:02.1	168.780	-0.260	0.030	1.990
2020/01/31 22:34:02.2	168.780	-0.250	0.060	2.010
2020/01/31 22:34:02.3	168.770	-0.250	0.080	2.020
2020/01/31 22:34:02.4	168.770	-0.250	0.110	2.030
2020/01/31 22:34:02.5	168.760	-0.250	0.130	2.040
2020/01/31 22:34:02.6	168.760	-0.250	0.160	2.050
2020/01/31 22:34:02.7	168.760	-0.260	0.190	2.050
2020/01/31 22:34:02.8	168.760	-0.260	0.220	2.050
2020/01/31 22:34:02.9	168.760	-0.270	0.240	2.040
2020/01/31 22:34:03.0	168.770	-0.270	0.270	2.040
2020/01/31 22:34:03.1	168.770	-0.280	0.290	2.030
2020/01/31 22:34:03.2	168.770	-0.290	0.310	2.020
2020/01/31 22:34:03.3	168.770	-0.290	0.330	2.000
2020/01/31 22:34:03.4	168.780	-0.300	0.340	1.990
2020/01/31 22:34:03.5	168.780	-0.310	0.350	1.970
2020/01/31 22:34:03.6	168.780	-0.320	0.360	1.950
2020/01/31 22:34:03.7	168.780	-0.330	0.360	1.930
2020/01/31 22:34:03.8	168.780	-0.330	0.360	1.910
2020/01/31 22:34:03.9	168.780	-0.340	0.360	1.890
2020/01/31 22:34:04.0	168.790	-0.340	0.340	1.870
2020/01/31 22:34:04.1	168.790	-0.340	0.330	1.850
2020/01/31 22:34:04.2	168.790	-0.350	0.310	1.830
2020/01/31 22:34:04.3	168.780	-0.340	0.290	1.810
2020/01/31 22:34:04.4	168.780	-0.340	0.260	1.800
2020/01/31 22:34:04.5	168.770	-0.340	0.220	1.790
2020/01/31 22:34:04.6	168.760	-0.330	0.190	1.780
2020/01/31 22:34:04.7	168.750	-0.320	0.150	1.780
2020/01/31 22:34:04.8	168.730	-0.310	0.100	1.770
2020/01/31 22:34:04.9	168.720	-0.290	0.060	1.770
2020/01/31 22:34:05.0	168.700	-0.270	0.010	1.770
2020/01/31 22:34:05.1	168.680	-0.250	-0.040	1.780
2020/01/31 22:34:05.2	168.660	-0.230	-0.090	1.780
2020/01/31 22:34:05.3	168.640	-0.200	-0.140	1.780
2020/01/31 22:34:05.4	168.610	-0.170	-0.190	1.790
2020/01/31 22:34:05.5	168.590	-0.140	-0.240	1.790
2020/01/31 22:34:05.6	168.570	-0.110	-0.290	1.800
2020/01/31 22:34:05.7	168.540	-0.080	-0.330	1.800
2020/01/31 22:34:05.8	168.520	-0.040	-0.380	1.810
2020/01/31 22:34:05.9	168.500	-0.010	-0.420	1.810
2020/01/31 22:34:06.0	168.470	0.030	-0.450	1.810
2020/01/31 22:34:06.1	168.450	0.060	-0.480	1.810
2020/01/31 22:34:06.2	168.430	0.100	-0.510	1.810
2020/01/31 22:34:06.3	168.420	0.130	-0.530	1.810
2020/01/31 22:34:06.4	168.400	0.170	-0.550	1.800
2020/01/31 22:34:06.5	168.390	0.200	-0.560	1.790
2020/01/31 22:34:06.6	168.380	0.230	-0.560	1.780
2020/01/31 22:34:06.7	168.380	0.250	-0.560	1.760
2020/01/31 22:34:06.8	168.380	0.280	-0.550	1.750
2020/01/31 22:34:06.9	168.380	0.300	-0.530	1.730
2020/01/31 22:34:07.0	168.390	0.310	-0.510	1.700
2020/01/31 22:34:07.1	168.400	0.330	-0.490	1.670
2020/01/31 22:34:07.2	168.420	0.340	-0.450	1.650
2020/01/31 22:34:07.3	168.440	0.350	-0.420	1.620
2020/01/31 22:34:07.4	168.470	0.350	-0.370	1.580
2020/01/31 22:34:07.5	168.500	0.350	-0.330	1.550
2020/01/31 22:34:07.6	168.530	0.350	-0.280	1.520
2020/01/31 22:34:07.7	168.560	0.340	-0.230	1.480
2020/01/31 22:34:07.8	168.600	0.330	-0.180	1.450
2020/01/31 22:34:07.9	168.640	0.320	-0.120	1.410
2020/01/31 22:34:08.0	168.680	0.310	-0.070	1.380
2020/01/31 22:34:08.1	168.730	0.290	-0.020	1.340
2020/01/31 22:34:08.2	168.780	0.270	0.030	1.310
2020/01/31 22:34:08.3	168.820	0.250	0.080	1.280
2020/01/31 22:34:08.4	168.870	0.230	0.130	1.240
2020/01/31 22:34:08.5	168.920	0.210	0.170	1.210
2020/01/31 22:34:08.6	168.970	0.180	0.210	1.180
2020/01/31 22:34:08.7	169.020	0.160	0.240	1.150
2020/01/31 22:34:08.8	169.070	0.140	0.270	1.120
2020/01/31 22:34:08.9	169.120	0.120	0.290	1.090
2020/01/31 22:34:09.0	169.160	0.100	0.300	1.070
2020/01/31 22:34:09.1	169.210	0.080	0.310	1.040
2020/01/31 22:34:09.2	169.250	0.070	0.320	1.020
2020/01/31 22:34:09.3	169.290	0.060	0.310	1.000
2020/01/31 22:34:09.4	169.330	0.050	0.300	0.980
2020/01/31 22:34:09.5	169.360	0.040	0.280	0.960
2020/01/31 22:34:09.6	169.390	0.040	0.250	0.950
2020/01/31 22:34:09.7	169.420	0.040	0.220	0.940
2020/01/31 22:34:09.8	169.440	0.040	0.180	0.930
2020/01/31 22:34:09.9	169.460	0.050	0.130	0.930
2020/01/31 22:34:10.0	169.470	0.070	0.080	0.930
2020/01/31 22:34:10.1	169.480	0.080	0.020	0.930
2020/01/31 22:34:10.2	169.480	0.100	-0.050	0.940
2020/01/31 22:34:10.3	169.480	0.130	-0.120	0.950
2020/01/31 22:34:10.4	169.480	0.160	-0.190	0.970
2020/01/31 22:34:10.5	169.470	0.190	-0.270	0.990
2020/01/31 22:34:10.6	169.450	0.220	-0.350	1.010
2020/01/31 22:34:10.7	169.440	0.260	-0.440	1.030
2020/01/31 22:34:10.8	169.420	0.300	-0.520	1.060
2020/01/31 22:34:10.9	169.400	0.330	-0.600	1.090
2020/01/31 22:34:11.0	169.380	0.370	-0.680	1.120
2020/01/31 22:34:11.1	169.360	0.410	-0.760	1.150
2020/01/31 22:34:11.2	169.330	0.450	-0.830	1.190
2020/01/31 22:34:11.3	169.310	0.490	-0.900	1.220
2020/01/31 22:34:11.4	169.280	0.530	-0.970	1.260
2020/01/31 22:34:11.5	169.250	0.560	-1.020	1.290
2020/01/31 22:34:11.6	169.230	0.590	-1.080	1.330
2020/01/31 22:34:11.7	169.200	0.620	-1.120	1.370
2020/01/31 22:34:11.8	169.180	0.650	-1.160	1.400
2020/01/31 22:34:11.9	169.150	0.670	-1.180	1.430
2020/01/31 22:34:12.0	169.130	0.690	-1.200	1.470
2020/01/31 22:34:12.1	169.110	0.700	-1.210	1.500
2020/01/31 22:34:12.2	169.090	0.710	-1.210	1.530
2020/01/31 22:34:12.3	169.080	0.710	-1.210	1.560
2020/01/31 22:34:12.4	169.060	0.710	-1.190	1.580
2020/01/31 22:34:12.5	169.050	0.700	-1.160	1.610
2020/01/31 22:34:12.6	169.040	0.690	-1.130	1.630
2020/01/31 22:34:12.7	169.030	0.670	-1.090	1.650
2020/01/31 22:34:12.8	169.020	0.650	-1.040	1.670
2020/01/31 22:34:12.9	169.020	0.620	-0.990	1.690
2020/01/31 22:34:13.0	169.000	0.590	-0.930	1.700
2020/01/31 22:34:13.1	169.000	0.560	-0.870	1.710
2020/01/31 22:34:13.2	168.990	0.520	-0.800	1.730
2020/01/31 22:34:13.3	168.990	0.470	-0.730	1.740
2020/01/31 22:34:13.4	168.990	0.430	-0.660	1.750
2020/01/31 22:34:13.5	168.990	0.380	-0.590	1.760
2020/01/31 22:34:13.6	168.990	0.330	-0.520	1.760
2020/01/31 22:34:13.7	168.990	0.270	-0.440	1.770
2020/01/31 22:34:13.8	168.990	0.220	-0.370	1.770
2020/01/31 22:34:13.9	168.990	0.160	-0.310	1.780
2020/01/31 22:34:14.0	168.990	0.110	-0.240	1.780
2020/01/31 22:34:14.1	168.990	0.050	-0.180	1.790
2020/01/31 22:34:14.2	168.990	-0.000	-0.130	1.790
2020/01/31 22:34:14.3	168.990	-0.060	-0.080	1.790
2020/01/31 22:34:14.4	168.980	-0.110	-0.030	1.790
2020/01/31 22:34:14.5	168.980	-0.160	0.010	1.790
2020/01/31 22:34:14.6	168.980	-0.210	0.050	1.790
2020/01/31 22:34:14.7	168.980	-0.250	0.080	1.780
2020/01/31 22:34:14.8	168.980	-0.300	0.100	1.780
2020/01/31 22:34:14.9	168.980	-0.340	0.120	1.780
2020/01/31 22:34:15.0	168.970	-0.370	0.140	1.780
2020/01/31 22:34:15.1	168.970	-0.410	0.160	1.770
2020/01/31 22:34:15.2	168.970	-0.440	0.170	1.770
2020/01/31 22:34:15.3	168.970	-0.470	0.170	1.770
2020/01/31 22:34:15.4	168.980	-0.490	0.180	1.770
2020/01/31 22:34:15.5	168.980	-0.510	0.180	1.770
2020/01/31 22:34:15.6	168.980	-0.530	0.180	1.770
2020/01/31 22:34:15.7	168.990	-0.550	0.180	1.770
2020/01/31 22:34:15.8	169.000	-0.560	0.180	1.760
2020/01/31 22:34:15.9	169.010	-0.570	0.180	1.760
2020/01/31 22:34:16.0	169.010	-0.580	0.180	1.760
2020/01/31 22:34:16.1	169.020	-0.580	0.180	1.760
2020/01/31 22:34:16.2	169.030	-0.590	0.180	1.760
2020/01/31 22:34:16.3	169.040	-0.590	0.180	1.760
2020/01/31 22:34:16.4	169.060	-0.580	0.180	1.750
2020/01/31 22:34:16.5	169.070	-0.580	0.190	1.750
2020/01/31 22:34:16.6	169.080	-0.580	0.190	1.740
2020/01/31 22:34:16.7	169.100	-0.570	0.200	1.730
2020/01/31 22:34:16.8	169.110	-0.560	0.210	1.730
2020/01/31 22:34:16.9	169.120	-0.550	0.220	1.720
2020/01/31 22:34:17.0	169.150	-0.540	0.230	1.700
2020/01/31 22:34:17.1	169.160	-0.520	0.240	1.690
2020/01/31 22:34:17.2	169.170	-0.510	0.250	1.680
2020/01/31 22:34:17.3	169.180	-0.490	0.260	1.660
2020/01/31 22:34:17.4	169.190	-0.480	0.270	1.640
2020/01/31 22:34:17.5	169.200	-0.460	0.270	1.620
2020/01/31 22:34:17.6	169.200	-0.440	0.280	1.600
2020/01/31 22:34:17.7	169.210	-0.420	0.280	1.580
2020/01/31 22:34:17.8	169.210	-0.400	0.270	1.560
2020/01/31 22:34:17.9	169.210	-0.380	0.270	1.530
2020/01/31 22:34:18.0	169.220	-0.360	0.250	1.510
2020/01/31 22:34:18.1	169.220	-0.330	0.240	1.480
2020/01/31 22:34:18.2	169.210	-0.310	0.220	1.450
2020/01/31 22:34:18.3	169.210	-0.280	0.190	1.430
2020/01/31 22:34:18.4	169.200	-0.260	0.160	1.400
2020/01/31 22:34:18.5	169.200	-0.230	0.130	1.370
2020/01/31 22:34:18.6	169.190	-0.200	0.090	1.340
2020/01/31 22:34:18.7	169.180	-0.170	0.040	1.310
2020/01/31 22:34:18.8	169.170	-0.140	-0.010	1.290
2020/01/31 22:34:18.9	169.150	-0.110	-0.060	1.260
2020/01/31 22:34:19.0	169.140	-0.080	-0.110	1.230
2020/01/31 22:34:19.1	169.130	-0.050	-0.180	1.210
2020/01/31 22:34:19.2	169.110	-0.020	-0.240	1.190
2020/01/31 22:34:19.3	169.090	0.010	-0.310	1.170
2020/01/31 22:34:19.4	169.080	0.040	-0.380	1.150
2020/01/31 22:34:19.5	169.060	0.080	-0.440	1.140
2020/01/31 22:34:19.6	169.050	0.110	-0.510	1.120
2020/01/31 22:34:19.7	169.030	0.140	-0.580	1.110
2020/01/31 22:34:19.8	169.010	0.170	-0.650	1.100
2020/01/31 22:34:19.9	169.000	0.190	-0.710	1.100
2020/01/31 22:34:20.0	168.980	0.220	-0.780	1.100
2020/01/31 22:34:20.1	168.970	0.250	-0.830	1.100
2020/01/31 22:34:20.2	168.960	0.270	-0.890	1.100
2020/01/31 22:34:20.3	168.940	0.290	-0.940	1.100
2020/01/31 22:34:20.4	168.930	0.310	-0.980	1.110
2020/01/31 22:34:20.5	168.920	0.320	-1.020	1.110
2020/01/31 22:34:20.6	168.920	0.330	-1.050	1.120
2020/01/31 22:34:20.7	168.910	0.340	-1.070	1.130
2020/01/31 22:34:20.8	168.900	0.350	-1.090	1.140
2020/01/31 22:34:20.9	168.890	0.350	-1.100	1.160
2020/01/31 22:34:21.0	168.880	0.350	-1.110	1.160
2020/01/31 22:34:21.1	168.880	0.340	-1.100	1.180
2020/01/31 22:34:21.2	168.870	0.340	-1.090	1.190
2020/01/31 22:34:21.3	168.870	0.330	-1.070	1.210
2020/01/31 22:34:21.4	168.870	0.310	-1.050	1.220
2020/01/31 22:34:21.5	168.870	0.290	-1.010	1.240
2020/01/31 22:34:21.6	168.870	0.270	-0.970	1.260
2020/01/31 22:34:21.7	168.870	0.250	-0.930	1.270
2020/01/31 22:34:21.8	168.880	0.220	-0.870	1.290
2020/01/31 22:34:21.9	168.880	0.200	-0.820	1.300
2020/01/31 22:34:22.0	168.890	0.160	-0.750	1.320
2020/01/31 22:34:22.1	168.890	0.130	-0.690	1.340
2020/01/31 22:34:22.2	168.900	0.100	-0.620	1.350
2020/01/31 22:34:22.3	168.910	0.060	-0.550	1.360
2020/01/31 22:34:22.4	168.920	0.030	-0.470	1.380
2020/01/31 22:34:22.5	168.940	-0.010	-0.400	1.390
2020/01/31 22:34:22.6	168.950	-0.050	-0.320	1.410
2020/01/31 22:34:22.7	168.960	-0.090	-0.250	1.420
2020/01/31 22:34:22.8	168.970	-0.130	-0.170	1.440
2020/01/31 22:34:22.9	168.990	-0.160	-0.100	1.460
2020/01/31 22:34:23.0	169.020	-0.200	-0.040	1.470
2020/01/31 22:34:23.1	169.030	-0.230	0.020	1.490
2020/01/31 22:34:23.2	169.040	-0.270	0.080	1.510
2020/01/31 22:34:23.3	169.050	-0.300	0.140	1.530
2020/01/31 22:34:23.4	169.060	-0.330	0.190	1.550
2020/01/31 22:34:23.5	169.070	-0.360	0.230	1.570
2020/01/31 22:34:23.6	169.080	-0.380	0.270	1.600
2020/01/31 22:34:23.7	169.080	-0.400	0.300	1.620
2020/01/31 22:34:23.8	169.090	-0.420	0.320	1.650
2020/01/31 22:34:23.9	169.090	-0.440	0.340	1.670
2020/01/31 22:34:24.0	169.100	-0.460	0.350	1.700
2020/01/31 22:34:24.1	169.100	-0.470	0.360	1.730
2020/01/31 22:34:24.2	169.100	-0.480	0.350	1.760
2020/01/31 22:34:24.3	169.090	-0.480	0.350	1.790
2020/01/31 22:34:24.4	169.090	-0.490	0.330	1.820
2020/01/31 22:34:24.5	169.080	-0.490	0.320	1.840
2020/01/31 22:34:24.6	169.070	-0.490	0.290	1.870
2020/01/31 22:34:24.7	169.070	-0.490	0.270	1.900
2020/01/31 22:34:24.8	169.060	-0.480	0.240	1.930
2020/01/31 22:34:24.9	169.050	-0.470	0.210	1.960
2020/01/31 22:34:25.0	169.020	-0.460	0.170	1.990
2020/01/31 22:34:25.1	169.010	-0.450	0.140	2.020
2020/01/31 22:34:25.2	169.000	-0.430	0.100	2.050
2020/01/31 22:34:25.3	168.990	-0.420	0.070	2.070
2020/01/31 22:34:25.4	168.980	-0.400	0.030	2.100
2020/01/31 22:34:25.5	168.970	-0.380	-0.000	2.120
2020/01/31 22:34:25.6	168.960	-0.360	-0.030	2.140
2020/01/31 22:34:25.7	168.950	-0.330	-0.060	2.160
2020/01/31 22:34:25.8	168.940	-0.310	-0.090	2.180
2020/01/31 22:34:25.9	168.930	-0.290	-0.110	2.190
2020/01/31 22:34:26.0	168.920	-0.260	-0.130	2.200
2020/01/31 22:34:26.1	168.920	-0.230	-0.150	2.200
2020/01/31 22:34:26.2	168.920	-0.210	-0.160	2.200
2020/01/31 22:34:26.3	168.920	-0.180	-0.170	2.190
2020/01/31 22:34:26.4	168.920	-0.150	-0.170	2.180
2020/01/31 22:34:26.5	168.920	-0.120	-0.170	2.160
2020/01/31 22:34:26.6	168.930	-0.090	-0.160	2.140
2020/01/31 22:34:26.7	168.940	-0.060	-0.150	2.110
2020/01/31 22:34:26.8	168.950	-0.030	-0.140	2.080
2020/01/31 22:34:26.9	168.970	-0.010	-0.120	2.040
2020/01/31 22:34:27.0	168.990	0.020	-0.100	2.000
2020/01/31 22:34:27.1	169.000	0.050	-0.080	1.950
2020/01/31 22:34:27.2	169.020	0.080	-0.050	1.900
2020/01/31 22:34:27.3	169.040	0.100	-0.030	1.850
2020/01/31 22:34:27.4	169.050	0.130	0.000	1.800
2020/01/31 22:34:27.5	169.070	0.150	0.030	1.750
2020/01/31 22:34:27.6	169.080	0.170	0.060	1.700
2020/01/31 22:34:27.7	169.100	0.200	0.090	1.640
2020/01/31 22:34:27.8	169.110	0.220	0.110	1.590
2020/01/31 22:34:27.9	169.120	0.240	0.140	1.540
2020/01/31 22:34:28.0	169.140	0.260	0.160	1.490
2020/01/31 22:34:28.1	169.150	0.270	0.170	1.450
2020/01/31 22:34:28.2	169.160	0.290	0.190	1.400
2020/01/31 22:34:28.3	169.170	0.310	0.200	1.360
2020/01/31 22:34:28.4	169.170	0.320	0.200	1.330
2020/01/31 22:34:28.5	169.170	0.340	0.200	1.290
2020/01/31 22:34:28.6	169.180	0.350	0.200	1.260
2020/01/31 22:34:28.7	169.180	0.370	0.190	1.230
2020/01/31 22:34:28.8	169.180	0.380	0.170	1.200
2020/01/31 22:34:28.9	169.170	0.390	0.150	1.170
2020/01/31 22:34:29.0	169.180	0.410	0.120	1.150
2020/01/31 22:34:29.1	169.170	0.420	0.080	1.120
2020/01/31 22:34:29.2	169.170	0.430	0.050	1.100
2020/01/31 22:34:29.3	169.170	0.440	0.000	1.070
2020/01/31 22:34:29.4	169.170	0.460	-0.040	1.050
2020/01/31 22:34:29.5	169.160	0.470	-0.090	1.030
2020/01/31 22:34:29.6	169.160	0.480	-0.140	1.000
2020/01/31 22:34:29.7	169.160	0.490	-0.200	0.980
2020/01/31 22:34:29.8	169.160	0.500	-0.250	0.960
2020/01/31 22:34:29.9	169.160	0.510	-0.310	0.940
2020/01/31 22:34:30.0	169.160	0.520	-0.360	0.920
2020/01/31 22:34:30.1	169.160	0.530	-0.420	0.900
2020/01/31 22:34:30.2	169.160	0.540	-0.470	0.880
2020/01/31 22:34:30.3	169.160	0.550	-0.520	0.870
2020/01/31 22:34:30.4	169.170	0.560	-0.560	0.860
2020/01/31 22:34:30.5	169.170	0.570	-0.610	0.850
2020/01/31 22:34:30.6	169.170	0.570	-0.650	0.850
2020/01/31 22:34:30.7	169.170	0.580	-0.680	0.850
2020/01/31 22:34:30.8	169.170	0.580	-0.710	0.850
2020/01/31 22:34:30.9	169.170	0.590	-0.730	0.850
2020/01/31 22:34:31.0	169.160	0.590	-0.750	0.860
2020/01/31 22:34:31.1	169.160	0.590	-0.760	0.870
2020/01/31 22:34:31.2	169.160	0.590	-0.760	0.880
2020/01/31 22:34:31.3	169.160	0.580	-0.760	0.900
2020/01/31 22:34:31.4	169.150	0.580	-0.750	0.920
2020/01/31 22:34:31.5	169.150	0.570	-0.740	0.940
2020/01/31 22:34:31.6	169.140	0.560	-0.720	0.960
2020/01/31 22:34:31.7	169.140	0.550	-0.700	0.980
2020/01/31 22:34:31.8	169.130	0.540	-0.670	1.010
2020/01/31 22:34:31.9	169.130	0.520	-0.640	1.030
2020/01/31 22:34:32.0	169.130	0.500	-0.610	1.060
2020/01/31 22:34:32.1	169.120	0.480	-0.580	1.090
2020/01/31 22:34:32.2	169.120	0.460	-0.540	1.110
2020/01/31 22:34:32.3	169.120	0.440	-0.500	1.140
2020/01/31 22:34:32.4	169.120	0.410	-0.450	1.170
2020/01/31 22:34:32.5	169.120	0.380	-0.410	1.190
2020/01/31 22:34:32.6	169.120	0.350	-0.370	1.220
2020/01/31 22:34:32.7	169.120	0.320	-0.330	1.240
2020/01/31 22:34:32.8	169.120	0.280	-0.290	1.260
2020/01/31 22:34:32.9	169.120	0.240	-0.260	1.280
2020/01/31 22:34:33.0	169.120	0.210	-0.220	1.310
2020/01/31 22:34:33.1	169.120	0.170	-0.190	1.330
2020/01/31 22:34:33.2	169.130	0.130	-0.160	1.350
2020/01/31 22:34:33.3	169.130	0.090	-0.140	1.360
2020/01/31 22:34:33.4	169.130	0.050	-0.110	1.380
2020/01/31 22:34:33.5	169.130	0.010	-0.100	1.400
2020/01/31 22:34:33.6	169.130	-0.030	-0.080	1.410
2020/01/31 22:34:33.7	169.140	-0.080	-0.070	1.430
2020/01/31 22:34:33.8	169.140	-0.120	-0.070	1.450
2020/01/31 22:34:33.9	169.140	-0.160	-0.070	1.470
2020/01/31 22:34:34.0	169.130	-0.200	-0.070	1.480
2020/01/31 22:34:34.1	169.130	-0.240	-0.080	1.500
2020/01/31 22:34:34.2	169.130	-0.270	-0.080	1.520
2020/01/31 22:34:34.3	169.140	-0.310	-0.100	1.540
2020/01/31 22:34:34.4	169.140	-0.340	-0.110	1.560
2020/01/31 22:34:34.5	169.140	-0.370	-0.130	1.580
2020/01/31 22:34:34.6	169.140	-0.410	-0.150	1.610
2020/01/31 22:34:34.7	169.150	-0.430	-0.170	1.630
2020/01/31 22:34:34.8	169.150	-0.460	-0.190	1.650
2020/01/31 22:34:34.9	169.160	-0.480	-0.220	1.680
2020/01/31 22:34:35.0	169.170	-0.500	-0.240	1.710
2020/01/31 22:34:35.1	169.170	-0.520	-0.270	1.740
2020/01/31 22:34:35.2	169.170	-0.530	-0.300	1.770
2020/01/31 22:34:35.3	169.180	-0.550	-0.330	1.800
2020/01/31 22:34:35.4	169.180	-0.550	-0.360	1.820
2020/01/31 22:34:35.5	169.180	-0.560	-0.390	1.850
2020/01/31 22:34:35.6	169.180	-0.560	-0.420	1.880
2020/01/31 22:34:35.7	169.180	-0.560	-0.450	1.910
2020/01/31 22:34:35.8	169.170	-0.550	-0.480	1.940
2020/01/31 22:34:35.9	169.170	-0.550	-0.510	1.970
2020/01/31 22:34:36.0	169.160	-0.530	-0.540	1.990
2020/01/31 22:34:36.1	169.160	-0.520	-0.570	2.020
2020/01/31 22:34:36.2	169.150	-0.500	-0.590	2.030
2020/01/31 22:34:36.3	169.140	-0.480	-0.620	2.050
2020/01/31 22:34:36.4	169.130	-0.460	-0.650	2.060
2020/01/31 22:34:36.5	169.120	-0.430	-0.670	2.070
2020/01/31 22:34:36.6	169.100	-0.400	-0.690	2.080
2020/01/31 22:34:36.7	169.090	-0.370	-0.720	2.090
2020/01/31 22:34:36.8	169.070	-0.340	-0.740	2.090
2020/01/31 22:34:36.9	169.060	-0.310	-0.750	2.090
2020/01/31 22:34:37.0	169.030	-0.270	-0.770	2.080
2020/01/31 22:34:37.1	169.010	-0.240	-0.780	2.070
2020/01/31 22:34:37.2	168.990	-0.200	-0.790	2.060
2020/01/31 22:34:37.3	168.970	-0.160	-0.800	2.050
2020/01/31 22:34:37.4	168.950	-0.130	-0.810	2.040
2020/01/31 22:34:37.5	168.920	-0.090	-0.810	2.030
2020/01/31 22:34:37.6	168.900	-0.050	-0.810	2.010
2020/01/31 22:34:37.7	168.870	-0.020	-0.810	2.000
2020/01/31 22:34:37.8	168.850	0.010	-0.800	1.980
2020/01/31 22:34:37.9	168.830	0.040	-0.790	1.960
2020/01/31 22:34:38.0	168.810	0.060	-0.780	1.940
2020/01/31 22:34:38.1	168.790	0.090	-0.760	1.920
2020/01/31 22:34:38.2	168.770	0.110	-0.730	1.890
2020/01/31 22:34:38.3	168.760	0.120	-0.700	1.870
2020/01/31 22:34:38.4	168.740	0.130	-0.670	1.840
2020/01/31 22:34:38.5	168.730	0.140	-0.630	1.810
2020/01/31 22:34:38.6	168.730	0.140	-0.580	1.780
2020/01/31 22:34:38.7	168.730	0.140	-0.530	1.750
2020/01/31 22:34:38.8	168.730	0.140	-0.470	1.710
2020/01/31 22:34:38.9	168.740	0.130	-0.410	1.680
2020/01/31 22:34:39.0	168.740	0.110	-0.340	1.630
2020/01/31 22:34:39.1	168.760	0.090	-0.270	1.590
2020/01/31 22:34:39.2	168.780	0.070	-0.200	1.560
2020/01/31 22:34:39.3	168.810	0.040	-0.120	1.510
2020/01/31 22:34:39.4	168.840	0.010	-0.040	1.470
2020/01/31 22:34:39.5	168.870	-0.030	0.040	1.430
2020/01/31 22:34:39.6	168.910	-0.070	0.120	1.390
2020/01/31 22:34:39.7	168.950	-0.110	0.200	1.350
2020/01/31 22:34:39.8	168.990	-0.150	0.280	1.300
2020/01/31 22:34:39.9	169.030	-0.190	0.360	1.260
2020/01/31 22:34:40.0	169.070	-0.240	0.440	1.220
2020/01/31 22:34:40.1	169.120	-0.280	0.510	1.180
2020/01/31 22:34:40.2	169.160	-0.330	0.580	1.140
2020/01/31 22:34:40.3	169.210	-0.370	0.640	1.100
2020/01/31 22:34:40.4	169.250	-0.420	0.700	1.070
2020/01/31 22:34:40.5	169.300	-0.460	0.740	1.040
2020/01/31 22:34:40.6	169.340	-0.500	0.790	1.010
2020/01/31 22:34:40.7	169.380	-0.530	0.820	0.980
2020/01/31 22:34:40.8	169.420	-0.560	0.840	0.950
2020/01/31 22:34:40.9	169.460	-0.590	0.860	0.930
2020/01/31 22:34:41.0	169.480	-0.610	0.860	0.910
2020/01/31 22:34:41.1	169.510	-0.620	0.850	0.890
2020/01/31 22:34:41.2	169.540	-0.630	0.840	0.880
2020/01/31 22:34:41.3	169.560	-0.640	0.810	0.870
2020/01/31 22:34:41.4	169.580	-0.630	0.770	0.860
2020/01/31 22:34:41.5	169.600	-0.620	0.720	0.850
2020/01/31 22:34:41.6	169.620	-0.610	0.660	0.850
2020/01/31 22:34:41.7	169.630	-0.580	0.600	0.850
2020/01/31 22:34:41.8	169.640	-0.550	0.520	0.850
2020/01/31 22:34:41.9	169.640	-0.510	0.440	0.850
2020/01/31 22:34:42.0	169.660	-0.470	0.350	0.860
2020/01/31 22:34:42.1	169.660	-0.420	0.250	0.870
2020/01/31 22:34:42.2	169.660	-0.360	0.150	0.890
2020/01/31 22:34:42.3	169.650	-0.300	0.040	0.900
2020/01/31 22:34:42.4	169.650	-0.230	-0.070	0.920
2020/01/31 22:34:42.5	169.640	-0.160	-0.170	0.940
2020/01/31 22:34:42.6	169.620	-0.090	-0.280	0.960
2020/01/31 22:34:42.7	169.610	-0.020	-0.390	0.990
2020/01/31 22:34:42.8	169.600	0.060	-0.490	1.010
2020/01/31 22:34:42.9	169.580	0.140	-0.590	1.040
2020/01/31 22:34:43.0	169.570	0.210	-0.680	1.070
2020/01/31 22:34:43.1	169.550	0.290	-0.770	1.090
2020/01/31 22:34:43.2	169.530	0.360	-0.850	1.120
2020/01/31 22:34:43.3	169.520	0.430	-0.920	1.150
2020/01/31 22:34:43.4	169.500	0.500	-0.980	1.170
2020/01/31 22:34:43.5	169.480	0.560	-1.030	1.200
2020/01/31 22:34:43.6	169.470	0.620	-1.070	1.230
2020/01/31 22:34:43.7	169.460	0.670	-1.090	1.250
2020/01/31 22:34:43.8	169.450	0.710	-1.110	1.270
2020/01/31 22:34:43.9	169.440	0.750	-1.110	1.290
2020/01/31 22:34:44.0	169.430	0.770	-1.100	1.310
2020/01/31 22:34:44.1	169.430	0.790	-1.070	1.320
2020/01/31 22:34:44.2	169.440	0.800	-1.040	1.340
2020/01/31 22:34:44.3	169.450	0.800	-0.990	1.360
2020/01/31 22:34:44.4	169.460	0.790	-0.930	1.380
2020/01/31 22:34:44.5	169.470	0.780	-0.860	1.400
2020/01/31 22:34:44.6	169.490	0.750	-0.780	1.420
2020/01/31 22:34:44.7	169.520	0.720	-0.690	1.440
2020/01/31 22:34:44.8	169.540	0.670	-0.600	1.460
2020/01/31 22:34:44.9	169.570	0.620	-0.500	1.480
2020/01/31 22:34:45.0	169.610	0.570	-0.390	1.510
2020/01/31 22:34:45.1	169.650	0.500	-0.280	1.530
2020/01/31 22:34:45.2	169.690	0.430	-0.160	1.550
2020/01/31 22:34:45.3	169.730	0.360	-0.050	1.570
2020/01/31 22:34:45.4	169.770	0.280	0.070	1.590
2020/01/31 22:34:45.5	169.810	0.200	0.190	1.610
2020/01/31 22:34:45.6	169.860	0.120	0.300	1.630
2020/01/31 22:34:45.7	169.900	0.030	0.410	1.650
2020/01/31 22:34:45.8	169.950	-0.050	0.520	1.670
2020/01/31 22:34:45.9	169.990	-0.130	0.610	1.690
2020/01/31 22:34:46.0	170.040	-0.210	0.700	1.700
2020/01/31 22:34:46.1	170.080	-0.290	0.790	1.720
2020/01/31 22:34:46.2	170.110	-0.370	0.860	1.730
2020/01/31 22:34:46.3	170.150	-0.440	0.920	1.740
2020/01/31 22:34:46.4	170.180	-0.500	0.970	1.760
2020/01/31 22:34:46.5	170.200	-0.550	1.000	1.770
2020/01/31 22:34:46.6	170.220	-0.600	1.030	1.780
2020/01/31 22:34:46.7	170.240	-0.640	1.030	1.780
2020/01/31 22:34:46.8	170.250	-0.670	1.030	1.790
2020/01/31 22:34:46.9	170.260	-0.690	1.010	1.800
2020/01/31 22:34:47.0	170.300	-0.690	0.970	1.800
2020/01/31 22:34:47.1	170.300	-0.690	0.920	1.800
2020/01/31 22:34:47.2	170.300	-0.680	0.860	1.800
2020/01/31 22:34:47.3	170.290	-0.660	0.780	1.800
2020/01/31 22:34:47.4	170.290	-0.630	0.690	1.790
2020/01/31 22:34:47.5	170.270	-0.590	0.600	1.790
2020/01/31 22:34:47.6	170.260	-0.540	0.490	1.780
2020/01/31 22:34:47.7	170.250	-0.480	0.370	1.760
2020/01/31 22:34:47.8	170.230	-0.410	0.240	1.750
2020/01/31 22:34:47.9	170.210	-0.340	0.110	1.730
2020/01/31 22:34:48.0	170.190	-0.260	-0.020	1.710
2020/01/31 22:34:48.1	170.170	-0.170	-0.160	1.690
2020/01/31 22:34:48.2	170.160	-0.090	-0.290	1.670
2020/01/31 22:34:48.3	170.140	0.000	-0.430	1.640
2020/01/31 22:34:48.4	170.130	0.100	-0.560	1.610
2020/01/31 22:34:48.5	170.110	0.190	-0.690	1.590
2020/01/31 22:34:48.6	170.100	0.280	-0.810	1.560
2020/01/31 22:34:48.7	170.090	0.380	-0.930	1.530
2020/01/31 22:34:48.8	170.080	0.470	-1.040	1.510
2020/01/31 22:34:48.9	170.070	0.550	-1.130	1.480
2020/01/31 22:34:49.0	170.050	0.640	-1.220	1.450
2020/01/31 22:34:49.1	170.050	0.710	-1.300	1.420
2020/01/31 22:34:49.2	170.040	0.780	-1.370	1.400
2020/01/31 22:34:49.3	170.040	0.850	-1.420	1.370
2020/01/31 22:34:49.4	170.040	0.910	-1.460	1.350
2020/01/31 22:34:49.5	170.040	0.960	-1.490	1.320
2020/01/31 22:34:49.6	170.040	1.000	-1.510	1.300
2020/01/31 22:34:49.7	170.050	1.030	-1.510	1.270
2020/01/31 22:34:49.8	170.050	1.060	-1.510	1.250
2020/01/31 22:34:49.9	170.050	1.070	-1.490	1.230
2020/01/31 22:34:50.0	170.050	1.080	-1.460	1.200
2020/01/31 22:34:50.1	170.060	1.080	-1.420	1.180
2020/01/31 22:34:50.2	170.060	1.060	-1.360	1.160
2020/01/31 22:34:50.3	170.070	1.040	-1.300	1.130
2020/01/31 22:34:50.4	170.070	1.010	-1.230	1.110
2020/01/31 22:34:50.5	170.080	0.970	-1.160	1.090
2020/01/31 22:34:50.6	170.090	0.920	-1.070	1.060
2020/01/31 22:34:50.7	170.100	0.870	-0.990	1.040
2020/01/31 22:34:50.8	170.100	0.810	-0.890	1.020
2020/01/31 22:34:50.9	170.110	0.740	-0.800	1.010
2020/01/31 22:34:51.0	170.130	0.660	-0.700	0.990
2020/01/31 22:34:51.1	170.140	0.580	-0.600	0.980
2020/01/31 22:34:51.2	170.150	0.500	-0.500	0.960
2020/01/31 22:34:51.3	170.150	0.410	-0.400	0.960
2020/01/31 22:34:51.4	170.160	0.320	-0.300	0.950
2020/01/31 22:34:51.5	170.170	0.230	-0.210	0.950
2020/01/31 22:34:51.6	170.180	0.130	-0.110	0.950
2020/01/31 22:34:51.7	170.180	0.040	-0.030	0.950
2020/01/31 22:34:51.8	170.190	-0.060	0.060	0.960
2020/01/31 22:34:51.9	170.200	-0.150	0.130	0.970
2020/01/31 22:34:52.0	170.220	-0.240	0.200	0.990
2020/01/31 22:34:52.1	170.230	-0.330	0.270	1.000
2020/01/31 22:34:52.2	170.240	-0.420	0.320	1.020
2020/01/31 22:34:52.3	170.250	-0.500	0.380	1.040
2020/01/31 22:34:52.4	170.260	-0.580	0.420	1.060
2020/01/31 22:34:52.5	170.270	-0.650	0.450	1.090
2020/01/31 22:34:52.6	170.270	-0.710	0.480	1.120
2020/01/31 22:34:52.7	170.280	-0.770	0.500	1.150
2020/01/31 22:34:52.8	170.290	-0.830	0.500	1.180
2020/01/31 22:34:52.9	170.300	-0.870	0.500	1.210
2020/01/31 22:34:53.0	170.310	-0.910	0.490	1.240
2020/01/31 22:34:53.1	170.320	-0.940	0.480	1.270
2020/01/31 22:34:53.2	170.320	-0.960	0.450	1.310
2020/01/31 22:34:53.3	170.330	-0.970	0.420	1.340
2020/01/31 22:34:53.4	170.330	-0.970	0.370	1.370
2020/01/31 22:34:53.5	170.330	-0.970	0.330	1.410
2020/01/31 22:34:53.6	170.330	-0.950	0.270	1.440
2020/01/31 22:34:53.7	170.330	-0.930	0.210	1.470
2020/01/31 22:34:53.8	170.320	-0.910	0.150	1.500
2020/01/31 22:34:53.9	170.320	-0.870	0.080	1.540
2020/01/31 22:34:54.0	170.300	-0.830	0.010	1.570
2020/01/31 22:34:54.1	170.290	-0.780	-0.070	1.600
2020/01/31 22:34:54.2	170.270	-0.730	-0.140	1.630
2020/01/31 22:34:54.3	170.260	-0.680	-0.210	1.650
2020/01/31 22:34:54.4	170.250	-0.620	-0.290	1.670
2020/01/31 22:34:54.5	170.230	-0.550	-0.360	1.690
2020/01/31 22:34:54.6	170.210	-0.490	-0.420	1.700
2020/01/31 22:34:54.7	170.200	-0.420	-0.490	1.710
2020/01/31 22:34:54.8	170.180	-0.360	-0.540	1.720
2020/01/31 22:34:54.9	170.170	-0.290	-0.600	1.720
2020/01/31 22:34:55.0	170.150	-0.230	-0.650	1.720
2020/01/31 22:34:55.1	170.140	-0.170	-0.690	1.720
2020/01/31 22:34:55.2	170.130	-0.100	-0.720	1.720
2020/01/31 22:34:55.3	170.120	-0.050	-0.740	1.710
2020/01/31 22:34:55.4	170.110	0.010	-0.760	1.700
2020/01/31 22:34:55.5	170.100	0.060	-0.780	1.690
2020/01/31 22:34:55.6	170.100	0.100	-0.780	1.680
2020/01/31 22:34:55.7	170.090	0.150	-0.780	1.670
2020/01/31 22:34:55.8	170.090	0.180	-0.770	1.650
2020/01/31 22:34:55.9	170.090	0.220	-0.760	1.640
2020/01/31 22:34:56.0	170.070	0.250	-0.740	1.620
2020/01/31 22:34:56.1	170.070	0.270	-0.710	1.610
2020/01/31 22:34:56.2	170.070	0.290	-0.680	1.590
2020/01/31 22:34:56.3	170.070	0.300	-0.650	1.570
2020/01/31 22:34:56.4	170.070	0.320	-0.610	1.550
2020/01/31 22:34:56.5	170.070	0.320	-0.570	1.540
2020/01/31 22:34:56.6	170.070	0.320	-0.530	1.520
2020/01/31 22:34:56.7	170.070	0.320	-0.490	1.500
2020/01/31 22:34:56.8	170.070	0.320	-0.450	1.480
2020/01/31 22:34:56.9	170.070	0.310	-0.410	1.460
2020/01/31 22:34:57.0	170.070	0.300	-0.370	1.440
2020/01/31 22:34:57.1	170.070	0.290	-0.330	1.420
2020/01/31 22:34:57.2	170.060	0.280	-0.290	1.400
2020/01/31 22:34:57.3	170.060	0.260	-0.260	1.380
2020/01/31 22:34:57.4	170.050	0.250	-0.220	1.360
2020/01/31 22:34:57.5	170.040	0.230	-0.200	1.340
2020/01/31 22:34:57.6	170.030	0.220	-0.170	1.330
2020/01/31 22:34:57.7	170.010	0.200	-0.150	1.310
2020/01/31 22:34:57.8	170.000	0.190	-0.130	1.300
2020/01/31 22:34:57.9	169.980	0.170	-0.120	1.280
2020/01/31 22:34:58.0	169.980	0.160	-0.110	1.270
2020/01/31 22:34:58.1	169.960	0.140	-0.100	1.260
2020/01/31 22:34:58.2	169.940	0.130	-0.100	1.240
2020/01/31 22:34:58.3	169.920	0.120	-0.100	1.230
2020/01/31 22:34:58.4	169.900	0.110	-0.100	1.220
2020/01/31 22:34:58.5	169.880	0.100	-0.100	1.210
2020/01/31 22:34:58.6	169.870	0.090	-0.100	1.210
2020/01/31 22:34:58.7	169.850	0.080	-0.110	1.200
2020/01/31 22:34:58.8	169.830	0.070	-0.110	1.190
2020/01/31 22:34:58.9	169.820	0.060	-0.120	1.180
2020/01/31 22:34:59.0	169.810	0.060	-0.120	1.180
2020/01/31 22:34:59.1	169.800	0.050	-0.120	1.180
2020/01/31 22:34:59.2	169.790	0.040	-0.120	1.180
2020/01/31 22:34:59.3	169.780	0.030	-0.120	1.180
2020/01/31 22:34:59.4	169.780	0.020	-0.120	1.180
2020/01/31 22:34:59.5	169.770	0.010	-0.110	1.180
2020/01/31 22:34:59.6	169.770	-0.000	-0.100	1.190
2020/01/31 22:34:59.7	169.770	-0.010	-0.080	1.190
2020/01/31 22:34:59.8	169.770	-0.030	-0.060	1.200
2020/01/31 22:34:59.9	169.780	-0.040	-0.040	1.210
2020/01/31 22:35:00.0	169.780	-0.060	-0.020	1.220
2020/01/31 22:35:00.1	169.790	-0.080	0.010	1.240
2020/01/31 22:35:00.2	169.800	-0.100	0.040	1.250
2020/01/31 22:35:00.3	169.810	-0.120	0.070	1.270
2020/01/31 22:35:00.4	169.820	-0.150	0.110	1.290
2020/01/31 22:35:00.5	169.830	-0.170	0.150	1.300
2020/01/31 22:35:00.6	169.850	-0.200	0.190	1.330
2020/01/31 22:35:00.7	169.860	-0.220	0.230	1.350
2020/01/31 22:35:00.8	169.880	-0.250	0.270	1.370
2020/01/31 22:35:00.9	169.890	-0.280	0.310	1.390
2020/01/31 22:35:01.0	169.900	-0.310	0.350	1.410
2020/01/31 22:35:01.1	169.920	-0.330	0.390	1.440
2020/01/31 22:35:01.2	169.930	-0.360	0.420	1.460
2020/01/31 22:35:01.3	169.950	-0.390	0.460	1.490
2020/01/31 22:35:01.4	169.960	-0.410	0.490	1.510
2020/01/31 22:35:01.5	169.980	-0.440	0.510	1.540
2020/01/31 22:35:01.6	169.990	-0.460	0.530	1.560
2020/01/31 22:35:01.7	170.000	-0.480	0.550	1.590
2020/01/31 22:35:01.8	170.010	-0.500	0.560	1.610
2020/01/31 22:35:01.9	170.020	-0.510	0.570	1.640
2020/01/31 22:35:02.0	170.030	-0.530	0.560	1.660
2020/01/31 22:35:02.1	170.040	-0.530	0.560	1.680
2020/01/31 22:35:02.2	170.040	-0.540	0.540	1.700
2020/01/31 22:35:02.3	170.040	-0.530	0.520	1.720
2020/01/31 22:35:02.4	170.040	-0.530	0.490	1.740
2020/01/31 22:35:02.5	170.030	-0.520	0.450	1.760
2020/01/31 22:35:02.6	170.030	-0.500	0.400	1.770
2020/01/31 22:35:02.7	170.020	-0.480	0.350	1.790
2020/01/31 22:35:02.8	170.010	-0.460	0.290	1.800
2020/01/31 22:35:02.9	170.000	-0.430	0.220	1.820
2020/01/31 22:35:03.0	169.980	-0.390	0.140	1.840
2020/01/31 22:35:03.1	169.970	-0.350	0.060	1.850
2020/01/31 22:35:03.2	169.940	-0.310	-0.020	1.870
2020/01/31 22:35:03.3	169.920	-0.260	-0.110	1.890
2020/01/31 22:35:03.4	169.900	-0.210	-0.200	1.910
2020/01/31 22:35:03.5	169.870	-0.150	-0.290	1.920
2020/01/31 22:35:03.6	169.840	-0.090	-0.390	1.940
2020/01/31 22:35:03.7	169.800	-0.020	-0.490	1.960
2020/01/31 22:35:03.8	169.770	0.050	-0.580	1.980
2020/01/31 22:35:03.9	169.740	0.110	-0.670	2.000
2020/01/31 22:35:04.0	169.700	0.190	-0.760	2.010
2020/01/31 22:35:04.1	169.670	0.260	-0.850	2.030
2020/01/31 22:35:04.2	169.630	0.330	-0.930	2.040
2020/01/31 22:35:04.3	169.600	0.400	-1.000	2.050
2020/01/31 22:35:04.4	169.560	0.480	-1.070	2.050
2020/01/31 22:35:04.5	169.530	0.550	-1.130	2.050
2020/01/31 22:35:04.6	169.500	0.610	-1.190	2.050
2020/01/31 22:35:04.7	169.480	0.680	-1.230	2.040
2020/01/31 22:35:04.8	169.460	0.740	-1.260	2.030
2020/01/31 22:35:04.9	169.440	0.790	-1.280	2.020
2020/01/31 22:35:05.0	169.400	0.840	-1.300	1.990
2020/01/31 22:35:05.1	169.390	0.890	-1.300	1.970
2020/01/31 22:35:05.2	169.380	0.930	-1.290	1.940
2020/01/31 22:35:05.3	169.380	0.960	-1.270	1.910
2020/01/31 22:35:05.4	169.380	0.990	-1.240	1.870
2020/01/31 22:35:05.5	169.380	1.010	-1.190	1.830
2020/01/31 22:35:05.6	169.390	1.020	-1.140	1.790
2020/01/31 22:35:05.7	169.400	1.020	-1.080	1.750
2020/01/31 22:35:05.8	169.410	1.020	-1.010	1.700
2020/01/31 22:35:05.9	169.430	1.010	-0.930	1.660
2020/01/31 22:35:06.0	169.450	0.990	-0.840	1.610
2020/01/31 22:35:06.1	169.470	0.960	-0.750	1.560
2020/01/31 22:35:06.2	169.490	0.920	-0.650	1.510
2020/01/31 22:35:06.3	169.520	0.880	-0.550	1.470
2020/01/31 22:35:06.4	169.550	0.830	-0.450	1.420
2020/01/31 22:35:06.5	169.580	0.780	-0.340	1.380
2020/01/31 22:35:06.6	169.610	0.720	-0.240	1.340
2020/01/31 22:35:06.7	169.640	0.650	-0.130	1.300
2020/01/31 22:35:06.8	169.670	0.590	-0.030	1.260
2020/01/31 22:35:06.9	169.710	0.510	0.070	1.230
2020/01/31 22:35:07.0	169.750	0.440	0.160	1.200
2020/01/31 22:35:07.1	169.780	0.360	0.260	1.180
2020/01/31 22:35:07.2	169.800	0.280	0.340	1.160
2020/01/31 22:35:07.3	169.830	0.200	0.420	1.140
2020/01/31 22:35:07.4	169.860	0.120	0.490	1.130
2020/01/31 22:35:07.5	169.880	0.040	0.550	1.120
2020/01/31 22:35:07.6	169.900	-0.030	0.600	1.120
2020/01/31 22:35:07.7	169.920	-0.110	0.640	1.120
2020/01/31 22:35:07.8	169.940	-0.180	0.670	1.130
2020/01/31 22:35:07.9	169.960	-0.250	0.690	1.150
2020/01/31 22:35:08.0	169.980	-0.310	0.700	1.160
2020/01/31 22:35:08.1	169.990	-0.370	0.700	1.180
2020/01/31 22:35:08.2	169.990	-0.430	0.690	1.210
2020/01/31 22:35:08.3	170.000	-0.470	0.670	1.230
2020/01/31 22:35:08.4	170.000	-0.520	0.640	1.260
2020/01/31 22:35:08.5	170.000	-0.550	0.600	1.300
2020/01/31 22:35:08.6	170.000	-0.580	0.550	1.330
2020/01/31 22:35:08.7	169.990	-0.610	0.490	1.370
2020/01/31 22:35:08.8	169.980	-0.630	0.420	1.400
2020/01/31 22:35:08.9	169.970	-0.640	0.350	1.440
2020/01/31 22:35:09.0	169.960	-0.640	0.270	1.480
2020/01/31 22:35:09.1	169.940	-0.640	0.190	1.520
2020/01/31 22:35:09.2	169.930	-0.630	0.100	1.560
2020/01/31 22:35:09.3	169.910	-0.610	0.000	1.600
2020/01/31 22:35:09.4	169.880	-0.590	-0.090	1.630
2020/01/31 22:35:09.5	169.860	-0.570	-0.180	1.670
2020/01/31 22:35:09.6	169.840	-0.540	-0.280	1.700
2020/01/31 22:35:09.7	169.810	-0.500	-0.370	1.740
2020/01/31 22:35:09.8	169.780	-0.460	-0.460	1.770
2020/01/31 22:35:09.9	169.760	-0.420	-0.550	1.800
2020/01/31 22:35:10.0	169.730	-0.380	-0.640	1.830
2020/01/31 22:35:10.1	169.700	-0.330	-0.720	1.850
2020/01/31 22:35:10.2	169.680	-0.280	-0.790	1.880
2020/01/31 22:35:10.3	169.650	-0.230	-0.860	1.900
2020/01/31 22:35:10.4	169.620	-0.180	-0.920	1.920
2020/01/31 22:35:10.5	169.600	-0.130	-0.980	1.930
2020/01/31 22:35:10.6	169.580	-0.080	-1.020	1.950
2020/01/31 22:35:10.7	169.550	-0.030	-1.070	1.960
2020/01/31 22:35:10.8	169.530	0.020	-1.100	1.980
2020/01/31 22:35:10.9	169.510	0.060	-1.130	1.990
2020/01/31 22:35:11.0	169.500	0.110	-1.140	2.000
2020/01/31 22:35:11.1	169.480	0.150	-1.160	2.010
2020/01/31 22:35:11.2	169.470	0.190	-1.160	2.010
2020/01/31 22:35:11.3	169.450	0.220	-1.160	2.010
2020/01/31 22:35:11.4	169.440	0.250	-1.150	2.010
2020/01/31 22:35:11.5	169.430	0.280	-1.130	2.010
2020/01/31 22:35:11.6	169.420	0.310	-1.110	2.010
2020/01/31 22:35:11.7	169.420	0.330	-1.080	2.000
2020/01/31 22:35:11.8	169.410	0.350	-1.050	1.990
2020/01/31 22:35:11.9	169.410	0.360	-1.010	1.980
2020/01/31 22:35:12.0	169.400	0.370	-0.970	1.960
2020/01/31 22:35:12.1	169.400	0.380	-0.910	1.940
2020/01/31 22:35:12.2	169.390	0.380	-0.860	1.920
2020/01/31 22:35:12.3	169.390	0.380	-0.800	1.890
2020/01/31 22:35:12.4	169.390	0.380	-0.740	1.860
2020/01/31 22:35:12.5	169.390	0.370	-0.670	1.830
2020/01/31 22:35:12.6	169.390	0.360	-0.600	1.790
2020/01/31 22:35:12.7	169.390	0.350	-0.530	1.750
2020/01/31 22:35:12.8	169.380	0.340	-0.450	1.710
2020/01/31 22:35:12.9	169.380	0.320	-0.380	1.670
2020/01/31 22:35:13.0	169.380	0.300	-0.300	1.630
2020/01/31 22:35:13.1	169.380	0.280	-0.220	1.580
2020/01/31 22:35:13.2	169.380	0.260	-0.150	1.540
2020/01/31 22:35:13.3	169.390	0.240	-0.070	1.490
2020/01/31 22:35:13.4	169.390	0.220	0.000	1.440
2020/01/31 22:35:13.5	169.390	0.190	0.070	1.400
2020/01/31 22:35:13.6	169.390	0.170	0.140	1.350
2020/01/31 22:35:13.7	169.390	0.150	0.200	1.310
2020/01/31 22:35:13.8	169.390	0.120	0.260	1.260
2020/01/31 22:35:13.9	169.390	0.100	0.320	1.220
2020/01/31 22:35:14.0	169.390	0.080	0.370	1.180
2020/01/31 22:35:14.1	169.390	0.060	0.410	1.140
2020/01/31 22:35:14.2	169.390	0.040	0.450	1.110
2020/01/31 22:35:14.3	169.390	0.020	0.480	1.080
2020/01/31 22:35:14.4	169.390	0.000	0.500	1.050
2020/01/31 22:35:14.5	169.390	-0.020	0.510	1.030
2020/01/31 22:35:14.6	169.390	-0.030	0.520	1.010
2020/01/31 22:35:14.7	169.390	-0.040	0.520	0.990
2020/01/31 22:35:14.8	169.390	-0.050	0.510	0.970
2020/01/31 22:35:14.9	169.390	-0.060	0.490	0.960
2020/01/31 22:35:15.0	169.400	-0.070	0.470	0.950
2020/01/31 22:35:15.1	169.400	-0.080	0.440	0.940
2020/01/31 22:35:15.2	169.400	-0.080	0.410	0.940
2020/01/31 22:35:15.3	169.400	-0.090	0.370	0.930
2020/01/31 22:35:15.4	169.400	-0.090	0.320	0.930
2020/01/31 22:35:15.5	169.400	-0.100	0.270	0.930
2020/01/31 22:35:15.6	169.400	-0.100	0.220	0.940
2020/01/31 22:35:15.7	169.410	-0.100	0.170	0.940
2020/01/31 22:35:15.8	169.410	-0.110	0.110	0.950
2020/01/31 22:35:15.9	169.410	-0.110	0.050	0.970
2020/01/31 22:35:16.0	169.420	-0.120	-0.010	0.980
2020/01/31 22:35:16.1	169.430	-0.120	-0.060	1.000
2020/01/31 22:35:16.2	169.430	-0.130	-0.120	1.030
2020/01/31 22:35:16.3	169.440	-0.140	-0.170	1.060
2020/01/31 22:35:16.4	169.440	-0.150	-0.220	1.090
2020/01/31 22:35:16.5	169.450	-0.160	-0.270	1.130
2020/01/31 22:35:16.6	169.450	-0.180	-0.310	1.170
2020/01/31 22:35:16.7	169.460	-0.190	-0.350	1.210
2020/01/31 22:35:16.8	169.460	-0.210	-0.390	1.260
2020/01/31 22:35:16.9	169.460	-0.230	-0.420	1.310
2020/01/31 22:35:17.0	169.470	-0.250	-0.450	1.370
2020/01/31 22:35:17.1	169.470	-0.270	-0.470	1.420
2020/01/31 22:35:17.2	169.470	-0.290	-0.480	1.480
2020/01/31 22:35:17.3	169.470	-0.320	-0.500	1.540
2020/01/31 22:35:17.4	169.480	-0.340	-0.500	1.600
2020/01/31 22:35:17.5	169.470	-0.370	-0.500	1.660
2020/01/31 22:35:17.6	169.470	-0.400	-0.500	1.720
2020/01/31 22:35:17.7	169.470	-0.420	-0.490	1.770
2020/01/31 22:35:17.8	169.470	-0.450	-0.480	1.830
2020/01/31 22:35:17.9	169.470	-0.470	-0.460	1.880
2020/01/31 22:35:18.0	169.450	-0.500	-0.450	1.930
2020/01/31 22:35:18.1	169.450	-0.520	-0.420	1.980
2020/01/31 22:35:18.2	169.440	-0.540	-0.400	2.020
2020/01/31 22:35:18.3	169.440	-0.560	-0.370	2.060
2020/01/31 22:35:18.4	169.430	-0.570	-0.340	2.100
2020/01/31 22:35:18.5	169.420	-0.580	-0.310	2.130
2020/01/31 22:35:18.6	169.410	-0.590	-0.290	2.150
2020/01/31 22:35:18.7	169.400	-0.600	-0.260	2.180
2020/01/31 22:35:18.8	169.390	-0.600	-0.230	2.200
2020/01/31 22:35:18.9	169.370	-0.590	-0.210	2.220
2020/01/31 22:35:19.0	169.360	-0.590	-0.180	2.220
2020/01/31 22:35:19.1	169.340	-0.570	-0.160	2.240
2020/01/31 22:35:19.2	169.330	-0.560	-0.150	2.240
2020/01/31 22:35:19.3	169.310	-0.540	-0.130	2.250
2020/01/31 22:35:19.4	169.290	-0.510	-0.120	2.250
2020/01/31 22:35:19.5	169.270	-0.480	-0.110	2.250
2020/01/31 22:35:19.6	169.260	-0.440	-0.110	2.250
2020/01/31 22:35:19.7	169.240	-0.410	-0.110	2.250
2020/01/31 22:35:19.8	169.220	-0.360	-0.110	2.240
2020/01/31 22:35:19.9	169.190	-0.320	-0.120	2.240
2020/01/31 22:35:20.0	169.180	-0.270	-0.140	2.230
2020/01/31 22:35:20.1	169.150	-0.210	-0.150	2.220
2020/01/31 22:35:20.2	169.130	-0.160	-0.170	2.220
2020/01/31 22:35:20.3	169.110	-0.100	-0.190	2.210
2020/01/31 22:35:20.4	169.080	-0.040	-0.210	2.200
2020/01/31 22:35:20.5	169.050	0.020	-0.240	2.180
2020/01/31 22:35:20.6	169.030	0.080	-0.260	2.170
2020/01/31 22:35:20.7	169.000	0.140	-0.290	2.160
2020/01/31 22:35:20.8	168.970	0.200	-0.320	2.140
2020/01/31 22:35:20.9	168.950	0.260	-0.350	2.120
2020/01/31 22:35:21.0	168.910	0.320	-0.370	2.100
2020/01/31 22:35:21.1	168.880	0.380	-0.400	2.080
2020/01/31 22:35:21.2	168.860	0.430	-0.420	2.050
2020/01/31 22:35:21.3	168.840	0.490	-0.440	2.010
2020/01/31 22:35:21.4	168.820	0.540	-0.460	1.980
2020/01/31 22:35:21.5	168.800	0.580	-0.470	1.940
2020/01/31 22:35:21.6	168.780	0.620	-0.480	1.890
2020/01/31 22:35:21.7	168.770	0.660	-0.490	1.840
2020/01/31 22:35:21.8	168.760	0.690	-0.490	1.790
2020/01/31 22:35:21.9	168.750	0.720	-0.490	1.730
2020/01/31 22:35:22.0	168.750	0.740	-0.490	1.670
2020/01/31 22:35:22.1	168.750	0.760	-0.470	1.600
2020/01/31 22:35:22.2	168.760	0.770	-0.450	1.540
2020/01/31 22:35:22.3	168.770	0.780	-0.430	1.470
2020/01/31 22:35:22.4	168.780	0.780	-0.400	1.400
2020/01/31 22:35:22.5	168.800	0.770	-0.370	1.330
2020/01/31 22:35:22.6	168.830	0.760	-0.330	1.260
2020/01/31 22:35:22.7	168.850	0.750	-0.280	1.180
2020/01/31 22:35:22.8	168.880	0.730	-0.240	1.110
2020/01/31 22:35:22.9	168.920	0.700	-0.190	1.040
2020/01/31 22:35:23.0	168.960	0.670	-0.130	0.970
2020/01/31 22:35:23.1	169.000	0.640	-0.070	0.900
2020/01/31 22:35:23.2	169.040	0.600	-0.020	0.840
2020/01/31 22:35:23.3	169.080	0.560	0.040	0.780
2020/01/31 22:35:23.4	169.130	0.510	0.100	0.730
2020/01/31 22:35:23.5	169.170	0.470	0.160	0.680
2020/01/31 22:35:23.6	169.220	0.420	0.220	0.630
2020/01/31 22:35:23.7	169.270	0.370	0.270	0.590
2020/01/31 22:35:23.8	169.320	0.320	0.320	0.560
2020/01/31 22:35:23.9	169.360	0.260	0.370	0.530
2020/01/31 22:35:24.0	169.400	0.210	0.410	0.510
2020/01/31 22:35:24.1	169.450	0.160	0.450	0.500
2020/01/31 22:35:24.2	169.490	0.110	0.480	0.490
2020/01/31 22:35:24.3	169.530	0.060	0.510	0.490
2020/01/31 22:35:24.4	169.570	0.010	0.530	0.490
2020/01/31 22:35:24.5	169.610	-0.040	0.550	0.500
2020/01/31 22:35:24.6	169.640	-0.090	0.550	0.520
2020/01/31 22:35:24.7	169.670	-0.130	0.550	0.540
2020/01/31 22:35:24.8	169.700	-0.180	0.540	0.560
2020/01/31 22:35:24.9	169.720	-0.210	0.520	0.590
2020/01/31 22:35:25.0	169.730	-0.250	0.490	0.620
2020/01/31 22:35:25.1	169.750	-0.280	0.450	0.660
2020/01/31 22:35:25.2	169.760	-0.310	0.410	0.700
2020/01/31 22:35:25.3	169.770	-0.330	0.360	0.740
2020/01/31 22:35:25.4	169.780	-0.350	0.290	0.790
2020/01/31 22:35:25.5	169.780	-0.370	0.220	0.840
2020/01/31 22:35:25.6	169.780	-0.380	0.150	0.890
2020/01/31 22:35:25.7	169.770	-0.380	0.060	0.940
2020/01/31 22:35:25.8	169.760	-0.380	-0.030	1.000
2020/01/31 22:35:25.9	169.740	-0.380	-0.130	1.070
2020/01/31 22:35:26.0	169.730	-0.370	-0.230	1.140
2020/01/31 22:35:26.1	169.700	-0.360	-0.340	1.210
2020/01/31 22:35:26.2	169.670	-0.340	-0.450	1.280
2020/01/31 22:35:26.3	169.630	-0.320	-0.560	1.360
2020/01/31 22:35:26.4	169.590	-0.290	-0.670	1.440
2020/01/31 22:35:26.5	169.550	-0.260	-0.790	1.520
2020/01/31 22:35:26.6	169.500	-0.230	-0.900	1.610
2020/01/31 22:35:26.7	169.450	-0.190	-1.010	1.690
2020/01/31 22:35:26.8	169.400	-0.150	-1.120	1.780
2020/01/31 22:35:26.9	169.350	-0.110	-1.220	1.870
2020/01/31 22:35:27.0	169.290	-0.070	-1.320	1.960
2020/01/31 22:35:27.1	169.240	-0.020	-1.410	2.040
2020/01/31 22:35:27.2	169.190	0.020	-1.480	2.120
2020/01/31 22:35:27.3	169.130	0.070	-1.550	2.200
2020/01/31 22:35:27.4	169.080	0.110	-1.610	2.280
2020/01/31 22:35:27.5	169.030	0.150	-1.650	2.350
2020/01/31 22:35:27.6	168.980	0.200	-1.680	2.410
2020/01/31 22:35:27.7	168.930	0.240	-1.700	2.470
2020/01/31 22:35:27.8	168.880	0.270	-1.710	2.520
2020/01/31 22:35:27.9	168.840	0.310	-1.700	2.570
2020/01/31 22:35:28.0	168.800	0.340	-1.670	2.610
2020/01/31 22:35:28.1	168.760	0.370	-1.630	2.640
2020/01/31 22:35:28.2	168.730	0.390	-1.580	2.670
2020/01/31 22:35:28.3	168.700	0.410	-1.520	2.690
2020/01/31 22:35:28.4	168.680	0.430	-1.440	2.700
2020/01/31 22:35:28.5	168.650	0.440	-1.350	2.710
2020/01/31 22:35:28.6	168.640	0.440	-1.250	2.700
2020/01/31 22:35:28.7	168.620	0.440	-1.140	2.700
2020/01/31 22:35:28.8	168.610	0.440	-1.030	2.680
2020/01/31 22:35:28.9	168.600	0.430	-0.900	2.660
2020/01/31 22:35:29.0	168.590	0.420	-0.780	2.630
2020/01/31 22:35:29.1	168.590	0.400	-0.650	2.600
2020/01/31 22:35:29.2	168.590	0.370	-0.510	2.560
2020/01/31 22:35:29.3	168.600	0.340	-0.370	2.510
2020/01/31 22:35:29.4	168.610	0.310	-0.230	2.460
2020/01/31 22:35:29.5	168.630	0.280	-0.090	2.410
2020/01/31 22:35:29.6	168.640	0.240	0.040	2.350
2020/01/31 22:35:29.7	168.660	0.200	0.180	2.290
2020/01/31 22:35:29.8	168.680	0.150	0.300	2.230
2020/01/31 22:35:29.9	168.700	0.100	0.420	2.160
2020/01/31 22:35:30.0	168.730	0.060	0.530	2.090
2020/01/31 22:35:30.1	168.750	0.010	0.640	2.020
2020/01/31 22:35:30.2	168.770	-0.040	0.730	1.950
2020/01/31 22:35:30.3	168.790	-0.090	0.810	1.880
2020/01/31 22:35:30.4	168.810	-0.140	0.890	1.820
2020/01/31 22:35:30.5	168.830	-0.190	0.940	1.760
2020/01/31 22:35:30.6	168.850	-0.230	0.990	1.690
2020/01/31 22:35:30.7	168.860	-0.270	1.030	1.640
2020/01/31 22:35:30.8	168.870	-0.320	1.050	1.580
2020/01/31 22:35:30.9	168.880	-0.350	1.050	1.530
2020/01/31 22:35:31.0	168.900	-0.380	1.050	1.490
2020/01/31 22:35:31.1	168.910	-0.410	1.030	1.450
2020/01/31 22:35:31.2	168.910	-0.440	0.990	1.410
2020/01/31 22:35:31.3	168.910	-0.460	0.950	1.380
2020/01/31 22:35:31.4	168.900	-0.470	0.890	1.350
2020/01/31 22:35:31.5	168.900	-0.490	0.820	1.330
2020/01/31 22:35:31.6	168.890	-0.490	0.750	1.310
2020/01/31 22:35:31.7	168.880	-0.490	0.660	1.290
2020/01/31 22:35:31.8	168.870	-0.490	0.570	1.280
2020/01/31 22:35:31.9	168.850	-0.480	0.460	1.270
2020/01/31 22:35:32.0	168.840	-0.470	0.360	1.260
2020/01/31 22:35:32.1	168.820	-0.450	0.250	1.260
2020/01/31 22:35:32.2	168.810	-0.430	0.140	1.260
2020/01/31 22:35:32.3	168.800	-0.410	0.030	1.260
2020/01/31 22:35:32.4	168.780	-0.390	-0.080	1.260
2020/01/31 22:35:32.5	168.770	-0.360	-0.190	1.260
2020/01/31 22:35:32.6	168.760	-0.330	-0.290	1.260
2020/01/31 22:35:32.7	168.760	-0.300	-0.390	1.270
2020/01/31 22:35:32.8	168.750	-0.270	-0.480	1.270
2020/01/31 22:35:32.9	168.750	-0.240	-0.570	1.270
2020/01/31 22:35:33.0	168.760	-0.210	-0.640	1.280
2020/01/31 22:35:33.1	168.760	-0.180	-0.710	1.280
2020/01/31 22:35:33.2	168.760	-0.150	-0.770	1.280
2020/01/31 22:35:33.3	168.770	-0.120	-0.820	1.280
2020/01/31 22:35:33.4	168.780	-0.090	-0.850	1.290
2020/01/31 22:35:33.5	168.790	-0.070	-0.880	1.290
2020/01/31 22:35:33.6	168.800	-0.040	-0.900	1.290
2020/01/31 22:35:33.7	168.810	-0.020	-0.910	1.290
2020/01/31 22:35:33.8	168.830	-0.010	-0.900	1.290
2020/01/31 22:35:33.9	168.840	0.010	-0.890	1.290
2020/01/31 22:35:34.0	168.840	0.020	-0.870	1.290
2020/01/31 22:35:34.1	168.860	0.030	-0.850	1.290
2020/01/31 22:35:34.2	168.870	0.030	-0.810	1.280
2020/01/31 22:35:34.3	168.890	0.030	-0.770	1.280
2020/01/31 22:35:34.4	168.900	0.030	-0.730	1.280
2020/01/31 22:35:34.5	168.910	0.030	-0.680	1.280
2020/01/31 22:35:34.6	168.930	0.020	-0.620	1.270
2020/01/31 22:35:34.7	168.940	0.010	-0.570	1.270
2020/01/31 22:35:34.8	168.950	0.000	-0.510	1.260
2020/01/31 22:35:34.9	168.960	-0.010	-0.450	1.260
2020/01/31 22:35:35.0	168.970	-0.020	-0.400	1.250
2020/01/31 22:35:35.1	168.970	-0.040	-0.340	1.250
2020/01/31 22:35:35.2	168.980	-0.050	-0.290	1.240
2020/01/31 22:35:35.3	168.980	-0.060	-0.240	1.240
2020/01/31 22:35:35.4	168.980	-0.080	-0.190	1.240
2020/01/31 22:35:35.5	168.970	-0.090	-0.150	1.230
2020/01/31 22:35:35.6	168.970	-0.100	-0.120	1.230
2020/01/31 22:35:35.7	168.970	-0.110	-0.080	1.230
2020/01/31 22:35:35.8	168.960	-0.120	-0.060	1.230
2020/01/31 22:35:35.9	168.950	-0.130	-0.040	1.220
2020/01/31 22:35:36.0	168.940	-0.140	-0.020	1.220
2020/01/31 22:35:36.1	168.940	-0.140	-0.010	1.220
2020/01/31 22:35:36.2	168.930	-0.140	-0.000	1.220
2020/01/31 22:35:36.3	168.920	-0.140	0.000	1.220
2020/01/31 22:35:36.4	168.910	-0.140	0.000	1.220
2020/01/31 22:35:36.5	168.900	-0.140	-0.000	1.220
2020/01/31 22:35:36.6	168.900	-0.130	-0.010	1.220
2020/01/31 22:35:36.7	168.890	-0.120	-0.020	1.220
2020/01/31 22:35:36.8	168.890	-0.110	-0.030	1.230
2020/01/31 22:35:36.9	168.880	-0.100	-0.050	1.230
2020/01/31 22:35:37.0	168.880	-0.090	-0.060	1.230
2020/01/31 22:35:37.1	168.880	-0.070	-0.080	1.230
2020/01/31 22:35:37.2	168.870	-0.050	-0.100	1.240
2020/01/31 22:35:37.3	168.870	-0.030	-0.120	1.240
2020/01/31 22:35:37.4	168.870	-0.010	-0.150	1.250
2020/01/31 22:35:37.5	168.870	0.010	-0.170	1.250
2020/01/31 22:35:37.6	168.870	0.030	-0.190	1.260
2020/01/31 22:35:37.7	168.880	0.050	-0.210	1.260
2020/01/31 22:35:37.8	168.880	0.080	-0.230	1.270
2020/01/31 22:35:37.9	168.880	0.100	-0.250	1.280
2020/01/31 22:35:38.0	168.870	0.130	-0.270	1.290
2020/01/31 22:35:38.1	168.880	0.150	-0.280	1.290
2020/01/31 22:35:38.2	168.880	0.170	-0.290	1.300
2020/01/31 22:35:38.3	168.890	0.200	-0.300	1.300
2020/01/31 22:35:38.4	168.890	0.220	-0.310	1.310
2020/01/31 22:35:38.5	168.900	0.240	-0.320	1.310
2020/01/31 22:35:38.6	168.900	0.260	-0.320	1.320
2020/01/31 22:35:38.7	168.900	0.280	-0.330	1.320
2020/01/31 22:35:38.8	168.910	0.300	-0.330	1.320
2020/01/31 22:35:38.9	168.910	0.320	-0.320	1.330
2020/01/31 22:35:39.0	168.920	0.330	-0.320	1.330
2020/01/31 22:35:39.1	168.920	0.350	-0.310	1.330
2020/01/31 22:35:39.2	168.920	0.360	-0.300	1.340
2020/01/31 22:35:39.3	168.930	0.370	-0.290	1.340
2020/01/31 22:35:39.4	168.940	0.370	-0.280	1.350
2020/01/31 22:35:39.5	168.940	0.380	-0.260	1.350
2020/01/31 22:35:39.6	168.950	0.380	-0.240	1.360
2020/01/31 22:35:39.7	168.960	0.380	-0.220	1.360
2020/01/31 22:35:39.8	168.970	0.370	-0.200	1.370
2020/01/31 22:35:39.9	168.970	0.360	-0.180	1.380
2020/01/31 22:35:40.0	168.990	0.350	-0.150	1.390
2020/01/31 22:35:40.1	169.000	0.340	-0.120	1.400
2020/01/31 22:35:40.2	169.010	0.320	-0.090	1.410
2020/01/31 22:35:40.3	169.030	0.290	-0.060	1.420
2020/01/31 22:35:40.4	169.050	0.270	-0.030	1.430
2020/01/31 22:35:40.5	169.070	0.240	0.000	1.440
2020/01/31 22:35:40.6	169.090	0.210	0.040	1.440
2020/01/31 22:35:40.7	169.110	0.180	0.070	1.450
2020/01/31 22:35:40.8	169.140	0.140	0.110	1.460
2020/01/31 22:35:40.9	169.160	0.100	0.140	1.470
2020/01/31 22:35:41.0	169.210	0.060	0.170	1.480
2020/01/31 22:35:41.1	169.240	0.020	0.200	1.490
2020/01/31 22:35:41.2	169.260	-0.020	0.230	1.510
2020/01/31 22:35:41.3	169.290	-0.070	0.260	1.520
2020/01/31 22:35:41.4	169.310	-0.110	0.280	1.530
2020/01/31 22:35:41.5	169.340	-0.150	0.300	1.550
2020/01/31 22:35:41.6	169.360	-0.190	0.310	1.570
2020/01/31 22:35:41.7	169.380	-0.230	0.320	1.580
2020/01/31 22:35:41.8	169.390	-0.270	0.320	1.610
2020/01/31 22:35:41.9	169.410	-0.310	0.320	1.630
2020/01/31 22:35:42.0	169.430	-0.340	0.310	1.660
2020/01/31 22:35:42.1	169.440	-0.370	0.300	1.680
2020/01/31 22:35:42.2	169.440	-0.400	0.280	1.720
2020/01/31 22:35:42.3	169.440	-0.420	0.250	1.750
2020/01/31 22:35:42.4	169.430	-0.440	0.220	1.790
2020/01/31 22:35:42.5	169.420	-0.450	0.180	1.820
2020/01/31 22:35:42.6	169.410	-0.460	0.130	1.860
2020/01/31 22:35:42.7	169.390	-0.460	0.080	1.900
2020/01/31 22:35:42.8	169.370	-0.460	0.020	1.950
2020/01/31 22:35:42.9	169.340	-0.450	-0.040	1.990
2020/01/31 22:35:43.0	169.310	-0.430	-0.110	2.030
2020/01/31 22:35:43.1	169.280	-0.410	-0.180	2.070
2020/01/31 22:35:43.2	169.250	-0.380	-0.260	2.120
2020/01/31 22:35:43.3	169.210	-0.350	-0.340	2.160
2020/01/31 22:35:43.4	169.170	-0.310	-0.420	2.190
2020/01/31 22:35:43.5	169.130	-0.270	-0.500	2.230
2020/01/31 22:35:43.6	169.080	-0.220	-0.580	2.260
2020/01/31 22:35:43.7	169.040	-0.170	-0.650	2.300
2020/01/31 22:35:43.8	168.990	-0.120	-0.730	2.320
2020/01/31 22:35:43.9	168.940	-0.060	-0.800	2.350
2020/01/31 22:35:44.0	168.880	-0.000	-0.870	2.370
2020/01/31 22:35:44.1	168.830	0.060	-0.930	2.390
2020/01/31 22:35:44.2	168.780	0.120	-0.980	2.400
2020/01/31 22:35:44.3	168.730	0.180	-1.030	2.410
2020/01/31 22:35:44.4	168.680	0.240	-1.070	2.410
2020/01/31 22:35:44.5	168.630	0.290	-1.110	2.410
2020/01/31 22:35:44.6	168.580	0.350	-1.130	2.410
2020/01/31 22:35:44.7	168.540	0.400	-1.150	2.400
2020/01/31 22:35:44.8	168.490	0.450	-1.160	2.380
2020/01/31 22:35:44.9	168.450	0.500	-1.160	2.360
2020/01/31 22:35:45.0	168.430	0.540	-1.150	2.330
2020/01/31 22:35:45.1	168.390	0.580	-1.130	2.300
2020/01/31 22:35:45.2	168.360	0.610	-1.110	2.260
2020/01/31 22:35:45.3	168.340	0.640	-1.080	2.220
2020/01/31 22:35:45.4	168.310	0.660	-1.040	2.170
2020/01/31 22:35:45.5	168.300	0.670	-1.000	2.120
2020/01/31 22:35:45.6	168.290	0.680	-0.950	2.070
2020/01/31 22:35:45.7	168.280	0.690	-0.890	2.010
2020/01/31 22:35:45.8	168.280	0.680	-0.830	1.950
2020/01/31 22:35:45.9	168.280	0.680	-0.770	1.880
2020/01/31 22:35:46.0	168.280	0.660	-0.700	1.820
2020/01/31 22:35:46.1	168.290	0.640	-0.630	1.750
2020/01/31 22:35:46.2	168.310	0.620	-0.560	1.670
2020/01/31 22:35:46.3	168.330	0.580	-0.490	1.600
2020/01/31 22:35:46.4	168.350	0.550	-0.420	1.530
2020/01/31 22:35:46.5	168.380	0.510	-0.350	1.450
2020/01/31 22:35:46.6	168.410	0.460	-0.290	1.380
2020/01/31 22:35:46.7	168.440	0.420	-0.220	1.310
2020/01/31 22:35:46.8	168.470	0.370	-0.160	1.240
2020/01/31 22:35:46.9	168.510	0.310	-0.110	1.180
2020/01/31 22:35:47.0	168.540	0.260	-0.060	1.110
2020/01/31 22:35:47.1	168.580	0.200	-0.010	1.050
2020/01/31 22:35:47.2	168.620	0.140	0.030	0.990
2020/01/31 22:35:47.3	168.650	0.090	0.060	0.940
2020/01/31 22:35:47.4	168.680	0.030	0.090	0.900
2020/01/31 22:35:47.5	168.720	-0.030	0.110	0.860
2020/01/31 22:35:47.6	168.750	-0.080	0.130	0.820
2020/01/31 22:35:47.7	168.780	-0.130	0.140	0.800
2020/01/31 22:35:47.8	168.800	-0.190	0.140	0.780
2020/01/31 22:35:47.9	168.820	-0.230	0.130	0.760
2020/01/31 22:35:48.0	168.840	-0.280	0.120	0.750
2020/01/31 22:35:48.1	168.860	-0.320	0.100	0.750
2020/01/31 22:35:48.2	168.870	-0.360	0.080	0.760
2020/01/31 22:35:48.3	168.890	-0.390	0.050	0.770
2020/01/31 22:35:48.4	168.900	-0.420	0.020	0.780
2020/01/31 22:35:48.5	168.910	-0.450	-0.010	0.800
2020/01/31 22:35:48.6	168.920	-0.480	-0.050	0.820
2020/01/31 22:35:48.7	168.920	-0.500	-0.090	0.850
2020/01/31 22:35:48.8	168.930	-0.510	-0.130	0.880
2020/01/31 22:35:48.9	168.930	-0.530	-0.180	0.910
2020/01/31 22:35:49.0	168.940	-0.540	-0.220	0.940
2020/01/31 22:35:49.1	168.950	-0.550	-0.260	0.980
2020/01/31 22:35:49.2	168.950	-0.560	-0.300	1.020
2020/01/31 22:35:49.3	168.960	-0.560	-0.340	1.060
2020/01/31 22:35:49.4	168.960	-0.560	-0.370	1.100
2020/01/31 22:35:49.5	168.970	-0.560	-0.410	1.140
2020/01/31 22:35:49.6	168.970	-0.560	-0.440	1.180
2020/01/31 22:35:49.7	168.980	-0.560	-0.460	1.230
2020/01/31 22:35:49.8	168.980	-0.560	-0.480	1.270
2020/01/31 22:35:49.9	168.990	-0.550	-0.500	1.320
2020/01/31 22:35:50.0	168.990	-0.550	-0.510	1.370
2020/01/31 22:35:50.1	169.000	-0.550	-0.510	1.420
2020/01/31 22:35:50.2	169.000	-0.540	-0.510	1.460
2020/01/31 22:35:50.3	169.000	-0.540	-0.500	1.510
2020/01/31 22:35:50.4	169.010	-0.530	-0.490	1.550
2020/01/31 22:35:50.5	169.010	-0.530	-0.470	1.600
2020/01/31 22:35:50.6	169.020	-0.520	-0.450	1.640
2020/01/31 22:35:50.7	169.020	-0.520	-0.420	1.690
2020/01/31 22:35:50.8	169.020	-0.510	-0.390	1.730
2020/01/31 22:35:50.9	169.020	-0.510	-0.350	1.770
2020/01/31 22:35:51.0	169.020	-0.500	-0.310	1.800
2020/01/31 22:35:51.1	169.020	-0.490	-0.270	1.840
2020/01/31 22:35:51.2	169.020	-0.490	-0.220	1.880
2020/01/31 22:35:51.3	169.020	-0.480	-0.180	1.910
2020/01/31 22:35:51.4	169.020	-0.470	-0.130	1.940
2020/01/31 22:35:51.5	169.020	-0.460	-0.080	1.970
2020/01/31 22:35:51.6	169.020	-0.450	-0.040	2.000
2020/01/31 22:35:51.7	169.020	-0.440	0.010	2.030
2020/01/31 22:35:51.8	169.020	-0.430	0.050	2.050
2020/01/31 22:35:51.9	169.010	-0.410	0.090	2.060
2020/01/31 22:35:52.0	169.010	-0.390	0.130	2.090
2020/01/31 22:35:52.1	169.000	-0.370	0.160	2.100
2020/01/31 22:35:52.2	169.000	-0.350	0.200	2.100
2020/01/31 22:35:52.3	169.000	-0.320	0.230	2.100
2020/01/31 22:35:52.4	168.990	-0.290	0.250	2.100
2020/01/31 22:35:52.5	168.990	-0.260	0.280	2.090
2020/01/31 22:35:52.6	168.990	-0.230	0.300	2.080
2020/01/31 22:35:52.7	168.980	-0.190	0.310	2.060
2020/01/31 22:35:52.8	168.980	-0.160	0.320	2.040
2020/01/31 22:35:52.9	168.980	-0.120	0.330	2.010
2020/01/31 22:35:53.0	168.990	-0.080	0.340	1.980
2020/01/31 22:35:53.1	168.990	-0.030	0.340	1.940
2020/01/31 22:35:53.2	168.990	0.010	0.340	1.910
2020/01/31 22:35:53.3	168.990	0.050	0.330	1.870
2020/01/31 22:35:53.4	168.990	0.100	0.320	1.830
2020/01/31 22:35:53.5	168.990	0.140	0.310	1.790
2020/01/31 22:35:53.6	168.990	0.190	0.300	1.750
2020/01/31 22:35:53.7	168.990	0.230	0.280	1.700
2020/01/31 22:35:53.8	168.990	0.280	0.260	1.660
2020/01/31 22:35:53.9	168.990	0.320	0.230	1.620
2020/01/31 22:35:54.0	168.990	0.360	0.210	1.580
2020/01/31 22:35:54.1	168.990	0.400	0.180	1.540
2020/01/31 22:35:54.2	168.990	0.440	0.150	1.500
2020/01/31 22:35:54.3	168.980	0.480	0.120	1.460
2020/01/31 22:35:54.4	168.980	0.510	0.090	1.420
2020/01/31 22:35:54.5	168.970	0.540	0.060	1.390
2020/01/31 22:35:54.6	168.960	0.570	0.020	1.360
2020/01/31 22:35:54.7	168.950	0.600	-0.010	1.330
2020/01/31 22:35:54.8	168.940	0.620	-0.040	1.300
2020/01/31 22:35:54.9	168.930	0.640	-0.080	1.280
2020/01/31 22:35:55.0	168.930	0.660	-0.110	1.250
2020/01/31 22:35:55.1	168.920	0.670	-0.140	1.240
2020/01/31 22:35:55.2	168.900	0.680	-0.180	1.230
2020/01/31 22:35:55.3	168.880	0.690	-0.210	1.220
2020/01/31 22:35:55.4	168.860	0.690	-0.240	1.210
2020/01/31 22:35:55.5	168.840	0.690	-0.270	1.210
2020/01/31 22:35:55.6	168.820	0.690	-0.300	1.210
2020/01/31 22:35:55.7	168.800	0.680	-0.330	1.210
2020/01/31 22:35:55.8	168.780	0.670	-0.350	1.210
2020/01/31 22:35:55.9	168.760	0.660	-0.370	1.220
2020/01/31 22:35:56.0	168.740	0.640	-0.390	1.230
2020/01/31 22:35:56.1	168.720	0.620	-0.410	1.240
2020/01/31 22:35:56.2	168.710	0.600	-0.420	1.250
2020/01/31 22:35:56.3	168.690	0.580	-0.430	1.260
2020/01/31 22:35:56.4	168.680	0.550	-0.440	1.270
2020/01/31 22:35:56.5	168.680	0.520	-0.440	1.280
2020/01/31 22:35:56.6	168.670	0.480	-0.440	1.290
2020/01/31 22:35:56.7	168.670	0.440	-0.430	1.310
2020/01/31 22:35:56.8	168.670	0.410	-0.420	1.320
2020/01/31 22:35:56.9	168.680	0.360	-0.410	1.330
2020/01/31 22:35:57.0	168.690	0.320	-0.390	1.340
2020/01/31 22:35:57.1	168.700	0.280	-0.380	1.350
2020/01/31 22:35:57.2	168.720	0.230	-0.360	1.370
2020/01/31 22:35:57.3	168.730	0.180	-0.340	1.390
2020/01/31 22:35:57.4	168.750	0.140	-0.320	1.400
2020/01/31 22:35:57.5	168.770	0.090	-0.300	1.420
2020/01/31 22:35:57.6	168.790	0.040	-0.290	1.440
2020/01/31 22:35:57.7	168.810	-0.010	-0.270	1.460
2020/01/31 22:35:57.8	168.830	-0.060	-0.250	1.480
2020/01/31 22:35:57.9	168.860	-0.100	-0.240	1.490
2020/01/31 22:35:58.0	168.890	-0.150	-0.230	1.520
2020/01/31 22:35:58.1	168.920	-0.190	-0.220	1.540
2020/01/31 22:35:58.2	168.940	-0.230	-0.210	1.560
2020/01/31 22:35:58.3	168.970	-0.270	-0.210	1.570
2020/01/31 22:35:58.4	169.000	-0.310	-0.210	1.590
2020/01/31 22:35:58.5	169.030	-0.340	-0.210	1.610
2020/01/31 22:35:58.6	169.060	-0.370	-0.210	1.620
2020/01/31 22:35:58.7	169.090	-0.400	-0.220	1.640
2020/01/31 22:35:58.8	169.120	-0.420	-0.230	1.650
2020/01/31 22:35:58.9	169.150	-0.440	-0.250	1.660
2020/01/31 22:35:59.0	169.160	-0.460	-0.260	1.660
2020/01/31 22:35:59.1	169.190	-0.470	-0.280	1.670
2020/01/31 22:35:59.2	169.210	-0.470	-0.300	1.680
2020/01/31 22:35:59.3	169.240	-0.470	-0.330	1.680
2020/01/31 22:35:59.4	169.260	-0.470	-0.350	1.680
2020/01/31 22:35:59.5	169.290	-0.460	-0.380	1.680
2020/01/31 22:35:59.6	169.310	-0.450	-0.410	1.680
2020/01/31 22:35:59.7	169.330	-0.440	-0.430	1.680
2020/01/31 22:35:59.8	169.350	-0.420	-0.460	1.680
2020/01/31 22:35:59.9	169.360	-0.400	-0.490	1.670
2020/01/31 22:36:00.0	169.370	-0.370	-0.520	1.670
2020/01/31 22:36:00.1	169.380	-0.340	-0.550	1.660
2020/01/31 22:36:00.2	169.390	-0.310	-0.580	1.660
2020/01/31 22:36:00.3	169.390	-0.270	-0.600	1.650
2020/01/31 22:36:00.4	169.400	-0.230	-0.630	1.640
2020/01/31 22:36:00.5	169.400	-0.190	-0.650	1.640
2020/01/31 22:36:00.6	169.400	-0.150	-0.670	1.630
2020/01/31 22:36:00.7	169.400	-0.110	-0.690	1.620
2020/01/31 22:36:00.8	169.400	-0.060	-0.710	1.610
2020/01/31 22:36:00.9	169.400	-0.020	-0.730	1.590
2020/01/31 22:36:01.0	169.400	0.030	-0.740	1.580
2020/01/31 22:36:01.1	169.390	0.070	-0.750	1.560
2020/01/31 22:36:01.2	169.380	0.120	-0.760	1.550
2020/01/31 22:36:01.3	169.370	0.160	-0.770	1.530
2020/01/31 22:36:01.4	169.360	0.210	-0.780	1.510
2020/01/31 22:36:01.5	169.340	0.250	-0.780	1.480
2020/01/31 22:36:01.6	169.330	0.290	-0.790	1.460
2020/01/31 22:36:01.7	169.320	0.330	-0.790	1.430
2020/01/31 22:36:01.8	169.300	0.360	-0.790	1.410
2020/01/31 22:36:01.9	169.290	0.400	-0.790	1.380
2020/01/31 22:36:02.0	169.270	0.430	-0.790	1.350
2020/01/31 22:36:02.1	169.260	0.460	-0.790	1.320
2020/01/31 22:36:02.2	169.240	0.490	-0.790	1.290
2020/01/31 22:36:02.3	169.220	0.510	-0.790	1.260
2020/01/31 22:36:02.4	169.210	0.530	-0.780	1.240
2020/01/31 22:36:02.5	169.190	0.540	-0.770	1.210
2020/01/31 22:36:02.6	169.180	0.550	-0.770	1.190
2020/01/31 22:36:02.7	169.160	0.560	-0.760	1.170
2020/01/31 22:36:02.8	169.150	0.560	-0.750	1.150
2020/01/31 22:36:02.9	169.130	0.560	-0.740	1.130
2020/01/31 22:36:03.0	169.110	0.560	-0.720	1.120
2020/01/31 22:36:03.1	169.100	0.550	-0.700	1.110
2020/01/31 22:36:03.2	169.090	0.540	-0.690	1.100
2020/01/31 22:36:03.3	169.080	0.520	-0.660	1.090
2020/01/31 22:36:03.4	169.070	0.500	-0.640	1.080
2020/01/31 22:36:03.5	169.060	0.470	-0.610	1.080
2020/01/31 22:36:03.6	169.060	0.440	-0.580	1.080
2020/01/31 22:36:03.7	169.060	0.400	-0.540	1.080
2020/01/31 22:36:03.8	169.060	0.360	-0.500	1.080
2020/01/31 22:36:03.9	169.060	0.320	-0.460	1.090
2020/01/31 22:36:04.0	169.060	0.280	-0.420	1.100
2020/01/31 22:36:04.1	169.060	0.230	-0.370	1.110
2020/01/31 22:36:04.2	169.070	0.170	-0.320	1.120
2020/01/31 22:36:04.3	169.070	0.120	-0.270	1.140
2020/01/31 22:36:04.4	169.080	0.060	-0.210	1.150
2020/01/31 22:36:04.5	169.090	-0.000	-0.150	1.170
2020/01/31 22:36:04.6	169.100	-0.070	-0.090	1.200
2020/01/31 22:36:04.7	169.110	-0.130	-0.030	1.220
2020/01/31 22:36:04.8	169.130	-0.190	0.030	1.250
2020/01/31 22:36:04.9	169.140	-0.260	0.090	1.280
2020/01/31 22:36:05.0	169.150	-0.320	0.150	1.310
2020/01/31 22:36:05.1	169.160	-0.390	0.210	1.340
2020/01/31 22:36:05.2	169.180	-0.450	0.270	1.370
2020/01/31 22:36:05.3	169.190	-0.510	0.320	1.410
2020/01/31 22:36:05.4	169.210	-0.570	0.380	1.450
2020/01/31 22:36:05.5	169.220	-0.620	0.440	1.480
2020/01/31 22:36:05.6	169.230	-0.680	0.490	1.520
2020/01/31 22:36:05.7	169.250	-0.730	0.540	1.560
2020/01/31 22:36:05.8	169.260	-0.770	0.580	1.600
2020/01/31 22:36:05.9	169.270	-0.810	0.620	1.630
2020/01/31 22:36:06.0	169.290	-0.850	0.670	1.680
2020/01/31 22:36:06.1	169.300	-0.880	0.700	1.710
2020/01/31 22:36:06.2	169.310	-0.910	0.730	1.740
2020/01/31 22:36:06.3	169.320	-0.930	0.760	1.780
2020/01/31 22:36:06.4	169.330	-0.940	0.780	1.810
2020/01/31 22:36:06.5	169.330	-0.950	0.800	1.830
2020/01/31 22:36:06.6	169.340	-0.960	0.810	1.860
2020/01/31 22:36:06.7	169.350	-0.950	0.810	1.880
2020/01/31 22:36:06.8	169.350	-0.950	0.810	1.900
2020/01/31 22:36:06.9	169.360	-0.930	0.810	1.920
2020/01/31 22:36:07.0	169.380	-0.910	0.800	1.930
2020/01/31 22:36:07.1	169.390	-0.890	0.780	1.940
2020/01/31 22:36:07.2	169.390	-0.860	0.760	1.950
2020/01/31 22:36:07.3	169.400	-0.820	0.740	1.960
2020/01/31 22:36:07.4	169.400	-0.780	0.710	1.960
2020/01/31 22:36:07.5	169.410	-0.740	0.680	1.960
2020/01/31 22:36:07.6	169.420	-0.690	0.640	1.950
2020/01/31 22:36:07.7	169.420	-0.640	0.590	1.940
2020/01/31 22:36:07.8	169.430	-0.590	0.550	1.930
2020/01/31 22:36:07.9	169.430	-0.530	0.500	1.920
2020/01/31 22:36:08.0	169.430	-0.470	0.440	1.900
2020/01/31 22:36:08.1	169.440	-0.410	0.380	1.880
2020/01/31 22:36:08.2	169.450	-0.350	0.320	1.860
2020/01/31 22:36:08.3	169.450	-0.290	0.260	1.830
2020/01/31 22:36:08.4	169.450	-0.230	0.190	1.810
2020/01/31 22:36:08.5	169.460	-0.170	0.120	1.780
2020/01/31 22:36:08.6	169.460	-0.100	0.050	1.750
2020/01/31 22:36:08.7	169.460	-0.040	-0.030	1.720
2020/01/31 22:36:08.8	169.460	0.020	-0.100	1.690
2020/01/31 22:36:08.9	169.460	0.080	-0.180	1.660
2020/01/31 22:36:09.0	169.470	0.130	-0.260	1.630
2020/01/31 22:36:09.1	169.470	0.190	-0.330	1.600
2020/01/31 22:36:09.2	169.460	0.240	-0.410	1.570
2020/01/31 22:36:09.3	169.460	0.290	-0.490	1.540
2020/01/31 22:36:09.4	169.450	0.340	-0.570	1.510
2020/01/31 22:36:09.5	169.440	0.380	-0.640	1.480
2020/01/31 22:36:09.6	169.430	0.420	-0.720	1.450
2020/01/31 22:36:09.7	169.420	0.460	-0.790	1.430
2020/01/31 22:36:09.8	169.410	0.500	-0.860	1.400
2020/01/31 22:36:09.9	169.400	0.530	-0.920	1.380
2020/01/31 22:36:10.0	169.380	0.560	-0.980	1.350
2020/01/31 22:36:10.1	169.360	0.580	-1.030	1.330
2020/01/31 22:36:10.2	169.350	0.600	-1.080	1.310
2020/01/31 22:36:10.3	169.330	0.620	-1.130	1.290
2020/01/31 22:36:10.4	169.310	0.630	-1.160	1.280
2020/01/31 22:36:10.5	169.300	0.640	-1.190	1.260
2020/01/31 22:36:10.6	169.280	0.650	-1.210	1.250
2020/01/31 22:36:10.7	169.260	0.650	-1.230	1.240
2020/01/31 22:36:10.8	169.250	0.640	-1.240	1.230
2020/01/31 22:36:10.9	169.230	0.640	-1.230	1.220
2020/01/31 22:36:11.0	169.210	0.630	-1.230	1.210
2020/01/31 22:36:11.1	169.200	0.620	-1.210	1.200
2020/01/31 22:36:11.2	169.180	0.600	-1.190	1.200
2020/01/31 22:36:11.3	169.170	0.580	-1.150	1.190
2020/01/31 22:36:11.4	169.150	0.560	-1.120	1.180
2020/01/31 22:36:11.5	169.140	0.540	-1.070	1.170
2020/01/31 22:36:11.6	169.120	0.510	-1.020	1.170
2020/01/31 22:36:11.7	169.110	0.490	-0.970	1.160
2020/01/31 22:36:11.8	169.100	0.460	-0.910	1.150
2020/01/31 22:36:11.9	169.080	0.420	-0.850	1.140
2020/01/31 22:36:12.0	169.070	0.390	-0.780	1.130
2020/01/31 22:36:12.1	169.050	0.360	-0.720	1.130
2020/01/31 22:36:12.2	169.040	0.330	-0.650	1.120
2020/01/31 22:36:12.3	169.040	0.290	-0.580	1.110
2020/01/31 22:36:12.4	169.030	0.260	-0.510	1.110
2020/01/31 22:36:12.5	169.020	0.220	-0.450	1.100
2020/01/31 22:36:12.6	169.010	0.190	-0.380	1.100
2020/01/31 22:36:12.7	169.010	0.150	-0.320	1.100
2020/01/31 22:36:12.8	169.010	0.120	-0.260	1.090
2020/01/31 22:36:12.9	169.010	0.090	-0.200	1.090
2020/01/31 22:36:13.0	169.010	0.060	-0.150	1.090
2020/01/31 22:36:13.1	169.010	0.020	-0.100	1.090
2020/01/31 22:36:13.2	169.020	-0.000	-0.060	1.090
2020/01/31 22:36:13.3	169.030	-0.030	-0.010	1.090
2020/01/31 22:36:13.4	169.040	-0.060	0.020	1.090
2020/01/31 22:36:13.5	169.050	-0.080	0.050	1.080
2020/01/31 22:36:13.6	169.070	-0.110	0.080	1.080
2020/01/31 22:36:13.7	169.090	-0.130	0.100	1.080
2020/01/31 22:36:13.8	169.110	-0.150	0.120	1.080
2020/01/31 22:36:13.9	169.140	-0.170	0.140	1.080
2020/01/31 22:36:14.0	169.160	-0.190	0.150	1.070
2020/01/31 22:36:14.1	169.190	-0.210	0.160	1.070
2020/01/31 22:36:14.2	169.220	-0.220	0.170	1.070
2020/01/31 22:36:14.3	169.260	-0.240	0.180	1.060
2020/01/31 22:36:14.4	169.290	-0.260	0.180	1.060
2020/01/31 22:36:14.5	169.330	-0.270	0.190	1.070
2020/01/31 22:36:14.6	169.360	-0.290	0.190	1.070
2020/01/31 22:36:14.7	169.400	-0.300	0.190	1.070
2020/01/31 22:36:14.8	169.430	-0.310	0.190	1.080
2020/01/31 22:36:14.9	169.470	-0.330	0.180	1.090
2020/01/31 22:36:15.0	169.510	-0.340	0.180	1.100
2020/01/31 22:36:15.1	169.540	-0.350	0.180	1.120
2020/01/31 22:36:15.2	169.570	-0.360	0.170	1.140
2020/01/31 22:36:15.3	169.600	-0.370	0.160	1.160
2020/01/31 22:36:15.4	169.630	-0.380	0.150	1.190
2020/01/31 22:36:15.5	169.660	-0.380	0.140	1.220
2020/01/31 22:36:15.6	169.680	-0.390	0.130	1.250
2020/01/31 22:36:15.7	169.710	-0.390	0.120	1.280
2020/01/31 22:36:15.8	169.720	-0.390	0.100	1.320
2020/01/31 22:36:15.9	169.740	-0.390	0.080	1.360
2020/01/31 22:36:16.0	169.760	-0.390	0.070	1.410
2020/01/31 22:36:16.1	169.770	-0.380	0.040	1.450
2020/01/31 22:36:16.2	169.780	-0.370	0.020	1.500
2020/01/31 22:36:16.3	169.780	-0.360	-0.010	1.540
2020/01/31 22:36:16.4	169.780	-0.350	-0.030	1.590
2020/01/31 22:36:16.5	169.780	-0.330	-0.060	1.630
2020/01/31 22:36:16.6	169.780	-0.310	-0.100	1.670
2020/01/31 22:36:16.7	169.770	-0.280	-0.130	1.720
2020/01/31 22:36:16.8	169.760	-0.250	-0.170	1.760
2020/01/31 22:36:16.9	169.750	-0.220	-0.210	1.790
2020/01/31 22:36:17.0	169.750	-0.180	-0.250	1.830
2020/01/31 22:36:17.1	169.730	-0.140	-0.290	1.860
2020/01/31 22:36:17.2	169.710	-0.100	-0.340	1.890
2020/01/31 22:36:17.3	169.690	-0.060	-0.380	1.920
2020/01/31 22:36:17.4	169.660	-0.010	-0.430	1.940
2020/01/31 22:36:17.5	169.640	0.040	-0.470	1.960
2020/01/31 22:36:17.6	169.610	0.090	-0.520	1.980
2020/01/31 22:36:17.7	169.580	0.140	-0.560	1.990
2020/01/31 22:36:17.8	169.560	0.190	-0.590	2.000
2020/01/31 22:36:17.9	169.530	0.250	-0.630	2.000
2020/01/31 22:36:18.0	169.490	0.300	-0.660	2.000
2020/01/31 22:36:18.1	169.470	0.350	-0.680	2.000
2020/01/31 22:36:18.2	169.450	0.400	-0.700	1.990
2020/01/31 22:36:18.3	169.430	0.450	-0.720	1.980
2020/01/31 22:36:18.4	169.410	0.490	-0.730	1.970
2020/01/31 22:36:18.5	169.400	0.530	-0.730	1.960
2020/01/31 22:36:18.6	169.380	0.570	-0.730	1.940
2020/01/31 22:36:18.7	169.370	0.610	-0.720	1.930
2020/01/31 22:36:18.8	169.360	0.640	-0.700	1.910
2020/01/31 22:36:18.9	169.360	0.660	-0.680	1.890
2020/01/31 22:36:19.0	169.360	0.690	-0.640	1.870
2020/01/31 22:36:19.1	169.360	0.700	-0.610	1.850
2020/01/31 22:36:19.2	169.360	0.710	-0.570	1.830
2020/01/31 22:36:19.3	169.360	0.720	-0.520	1.800
2020/01/31 22:36:19.4	169.370	0.720	-0.460	1.770
2020/01/31 22:36:19.5	169.380	0.720	-0.400	1.740
2020/01/31 22:36:19.6	169.390	0.710	-0.340	1.710
2020/01/31 22:36:19.7	169.410	0.690	-0.270	1.670
2020/01/31 22:36:19.8	169.430	0.670	-0.200	1.640
2020/01/31 22:36:19.9	169.440	0.650	-0.130	1.600
2020/01/31 22:36:20.0	169.470	0.620	-0.060	1.560
2020/01/31 22:36:20.1	169.490	0.580	0.010	1.520
2020/01/31 22:36:20.2	169.520	0.540	0.090	1.480
2020/01/31 22:36:20.3	169.540	0.500	0.160	1.440
2020/01/31 22:36:20.4	169.560	0.450	0.230	1.400
2020/01/31 22:36:20.5	169.580	0.400	0.300	1.360
2020/01/31 22:36:20.6	169.600	0.340	0.370	1.320
2020/01/31 22:36:20.7	169.630	0.290	0.430	1.280
2020/01/31 22:36:20.8	169.650	0.230	0.490	1.240
2020/01/31 22:36:20.9	169.670	0.160	0.550	1.200
2020/01/31 22:36:21.0	169.700	0.100	0.600	1.160
2020/01/31 22:36:21.1	169.720	0.030	0.640	1.130
2020/01/31 22:36:21.2	169.750	-0.030	0.680	1.100
2020/01/31 22:36:21.3	169.770	-0.100	0.710	1.070
2020/01/31 22:36:21.4	169.790	-0.170	0.740	1.040
2020/01/31 22:36:21.5	169.810	-0.240	0.760	1.020
2020/01/31 22:36:21.6	169.830	-0.300	0.770	1.000
2020/01/31 22:36:21.7	169.840	-0.370	0.780	0.990
2020/01/31 22:36:21.8	169.860	-0.430	0.780	0.980
2020/01/31 22:36:21.9	169.880	-0.490	0.770	0.970
2020/01/31 22:36:22.0	169.900	-0.550	0.750	0.970
2020/01/31 22:36:22.1	169.910	-0.600	0.720	0.980
2020/01/31 22:36:22.2	169.920	-0.650	0.690	0.990
2020/01/31 22:36:22.3	169.930	-0.700	0.640	1.000
2020/01/31 22:36:22.4	169.940	-0.740	0.590	1.020
2020/01/31 22:36:22.5	169.940	-0.770	0.530	1.050
2020/01/31 22:36:22.6	169.950	-0.800	0.460	1.080
2020/01/31 22:36:22.7	169.950	-0.830	0.380	1.110
2020/01/31 22:36:22.8	169.950	-0.840	0.290	1.150
2020/01/31 22:36:22.9	169.950	-0.850	0.190	1.190
2020/01/31 22:36:23.0	169.950	-0.850	0.090	1.240
2020/01/31 22:36:23.1	169.940	-0.840	-0.020	1.280
2020/01/31 22:36:23.2	169.940	-0.830	-0.140	1.320
2020/01/31 22:36:23.3	169.930	-0.810	-0.250	1.370
2020/01/31 22:36:23.4	169.920	-0.780	-0.380	1.410
2020/01/31 22:36:23.5	169.910	-0.750	-0.500	1.450
2020/01/31 22:36:23.6	169.890	-0.700	-0.630	1.490
2020/01/31 22:36:23.7	169.880	-0.660	-0.760	1.530
2020/01/31 22:36:23.8	169.860	-0.600	-0.890	1.560
2020/01/31 22:36:23.9	169.840	-0.540	-1.020	1.600
2020/01/31 22:36:24.0	169.810	-0.480	-1.140	1.630
2020/01/31 22:36:24.1	169.790	-0.410	-1.260	1.660
2020/01/31 22:36:24.2	169.770	-0.330	-1.380	1.680
2020/01/31 22:36:24.3	169.750	-0.260	-1.490	1.700
2020/01/31 22:36:24.4	169.720	-0.180	-1.590	1.720
2020/01/31 22:36:24.5	169.700	-0.100	-1.690	1.730
2020/01/31 22:36:24.6	169.680	-0.010	-1.780	1.740
2020/01/31 22:36:24.7	169.650	0.070	-1.860	1.750
2020/01/31 22:36:24.8	169.630	0.150	-1.920	1.760
2020/01/31 22:36:24.9	169.610	0.230	-1.980	1.760
2020/01/31 22:36:25.0	169.570	0.310	-2.020	1.750
2020/01/31 22:36:25.1	169.550	0.380	-2.050	1.750
2020/01/31 22:36:25.2	169.530	0.450	-2.060	1.740
2020/01/31 22:36:25.3	169.510	0.510	-2.060	1.730
2020/01/31 22:36:25.4	169.500	0.570	-2.040	1.720
2020/01/31 22:36:25.5	169.480	0.630	-2.010	1.700
2020/01/31 22:36:25.6	169.470	0.670	-1.970	1.680
2020/01/31 22:36:25.7	169.460	0.710	-1.910	1.660
2020/01/31 22:36:25.8	169.450	0.750	-1.840	1.630
2020/01/31 22:36:25.9	169.450	0.770	-1.750	1.600
2020/01/31 22:36:26.0	169.440	0.790	-1.650	1.580
2020/01/31 22:36:26.1	169.440	0.800	-1.540	1.540
2020/01/31 22:36:26.2	169.450	0.800	-1.410	1.510
2020/01/31 22:36:26.3	169.450	0.790	-1.280	1.470
2020/01/31 22:36:26.4	169.460	0.780	-1.130	1.430
2020/01/31 22:36:26.5	169.480	0.760	-0.980	1.390
2020/01/31 22:36:26.6	169.490	0.730	-0.820	1.340
2020/01/31 22:36:26.7	169.510	0.690	-0.650	1.300
2020/01/31 22:36:26.8	169.530	0.640	-0.490	1.250
2020/01/31 22:36:26.9	169.560	0.590	-0.320	1.200
2020/01/31 22:36:27.0	169.600	0.530	-0.140	1.150
2020/01/31 22:36:27.1	169.630	0.470	0.020	1.100
2020/01/31 22:36:27.2	169.660	0.400	0.190	1.050
2020/01/31 22:36:27.3	169.690	0.330	0.350	1.000
2020/01/31 22:36:27.4	169.730	0.260	0.510	0.950
2020/01/31 22:36:27.5	169.760	0.180	0.660	0.900
2020/01/31 22:36:27.6	169.800	0.100	0.800	0.850
2020/01/31 22:36:27.7	169.840	0.020	0.930	0.800
2020/01/31 22:36:27.8	169.880	-0.060	1.050	0.760
2020/01/31 22:36:27.9	169.920	-0.140	1.150	0.720
2020/01/31 22:36:28.0	169.960	-0.220	1.250	0.680
2020/01/31 22:36:28.1	170.000	-0.300	1.320	0.640
2020/01/31 22:36:28.2	170.030	-0.380	1.390	0.610
2020/01/31 22:36:28.3	170.060	-0.450	1.430	0.580
2020/01/31 22:36:28.4	170.090	-0.520	1.460	0.560
2020/01/31 22:36:28.5	170.120	-0.580	1.480	0.540
2020/01/31 22:36:28.6	170.150	-0.640	1.470	0.520
2020/01/31 22:36:28.7	170.170	-0.690	1.450	0.510
2020/01/31 22:36:28.8	170.190	-0.740	1.420	0.510
2020/01/31 22:36:28.9	170.200	-0.780	1.370	0.510
2020/01/31 22:36:29.0	170.210	-0.810	1.310	0.520
2020/01/31 22:36:29.1	170.220	-0.840	1.230	0.530
2020/01/31 22:36:29.2	170.230	-0.850	1.140	0.540
2020/01/31 22:36:29.3	170.230	-0.860	1.030	0.560
2020/01/31 22:36:29.4	170.230	-0.870	0.920	0.580
2020/01/31 22:36:29.5	170.230	-0.870	0.800	0.600
2020/01/31 22:36:29.6	170.230	-0.860	0.670	0.630
2020/01/31 22:36:29.7	170.220	-0.840	0.540	0.660
2020/01/31 22:36:29.8	170.220	-0.820	0.400	0.690
2020/01/31 22:36:29.9	170.210	-0.790	0.260	0.730
2020/01/31 22:36:30.0	170.210	-0.750	0.120	0.760
2020/01/31 22:36:30.1	170.200	-0.720	-0.020	0.800
2020/01/31 22:36:30.2	170.200	-0.670	-0.150	0.840
2020/01/31 22:36:30.3	170.190	-0.630	-0.280	0.870
2020/01/31 22:36:30.4	170.180	-0.580	-0.410	0.910
2020/01/31 22:36:30.5	170.180	-0.520	-0.530	0.950
2020/01/31 22:36:30.6	170.170	-0.470	-0.640	0.990
2020/01/31 22:36:30.7	170.170	-0.420	-0.740	1.040
2020/01/31 22:36:30.8	170.160	-0.360	-0.830	1.080
2020/01/31 22:36:30.9	170.160	-0.300	-0.910	1.120
2020/01/31 22:36:31.0	170.170	-0.250	-0.980	1.170
2020/01/31 22:36:31.1	170.170	-0.200	-1.030	1.210
2020/01/31 22:36:31.2	170.170	-0.140	-1.070	1.250
2020/01/31 22:36:31.3	170.180	-0.090	-1.100	1.290
2020/01/31 22:36:31.4	170.180	-0.040	-1.120	1.320
2020/01/31 22:36:31.5	170.190	0.000	-1.120	1.360
2020/01/31 22:36:31.6	170.190	0.040	-1.110	1.390
2020/01/31 22:36:31.7	170.200	0.080	-1.090	1.420
2020/01/31 22:36:31.8	170.210	0.120	-1.060	1.440
2020/01/31 22:36:31.9	170.210	0.150	-1.020	1.470
2020/01/31 22:36:32.0	170.230	0.170	-0.970	1.490
2020/01/31 22:36:32.1	170.240	0.200	-0.910	1.510
2020/01/31 22:36:32.2	170.250	0.220	-0.840	1.520
2020/01/31 22:36:32.3	170.260	0.230	-0.770	1.540
2020/01/31 22:36:32.4	170.270	0.240	-0.690	1.540
2020/01/31 22:36:32.5	170.280	0.250	-0.610	1.550
2020/01/31 22:36:32.6	170.280	0.260	-0.520	1.550
2020/01/31 22:36:32.7	170.290	0.260	-0.440	1.550
2020/01/31 22:36:32.8	170.300	0.260	-0.350	1.550
2020/01/31 22:36:32.9	170.300	0.260	-0.270	1.540
2020/01/31 22:36:33.0	170.300	0.250	-0.190	1.530
2020/01/31 22:36:33.1	170.300	0.250	-0.110	1.520
2020/01/31 22:36:33.2	170.300	0.240	-0.030	1.510
2020/01/31 22:36:33.3	170.310	0.230	0.040	1.490
2020/01/31 22:36:33.4	170.310	0.220	0.110	1.470
2020/01/31 22:36:33.5	170.310	0.220	0.170	1.450
2020/01/31 22:36:33.6	170.320	0.210	0.220	1.430
2020/01/31 22:36:33.7	170.320	0.200	0.270	1.400
2020/01/31 22:36:33.8	170.320	0.190	0.310	1.370
2020/01/31 22:36:33.9	170.330	0.190	0.350	1.340
2020/01/31 22:36:34.0	170.320	0.180	0.370	1.310
2020/01/31 22:36:34.1	170.330	0.180	0.390	1.270
2020/01/31 22:36:34.2	170.330	0.180	0.410	1.230
2020/01/31 22:36:34.3	170.340	0.180	0.410	1.200
2020/01/31 22:36:34.4	170.350	0.180	0.410	1.160
2020/01/31 22:36:34.5	170.350	0.180	0.410	1.120
2020/01/31 22:36:34.6	170.360	0.190	0.400	1.090
2020/01/31 22:36:34.7	170.360	0.200	0.380	1.050
2020/01/31 22:36:34.8	170.370	0.210	0.350	1.010
2020/01/31 22:36:34.9	170.380	0.220	0.330	0.980
2020/01/31 22:36:35.0	170.380	0.230	0.290	0.950
2020/01/31 22:36:35.1	170.390	0.250	0.260	0.920
2020/01/31 22:36:35.2	170.390	0.260	0.210	0.890
2020/01/31 22:36:35.3	170.400	0.280	0.170	0.870
2020/01/31 22:36:35.4	170.400	0.300	0.120	0.850
2020/01/31 22:36:35.5	170.400	0.320	0.070	0.830
2020/01/31 22:36:35.6	170.400	0.340	0.010	0.820
2020/01/31 22:36:35.7	170.410	0.360	-0.040	0.800
2020/01/31 22:36:35.8	170.410	0.380	-0.100	0.800
2020/01/31 22:36:35.9	170.400	0.400	-0.160	0.790
2020/01/31 22:36:36.0	170.410	0.430	-0.220	0.790
2020/01/31 22:36:36.1	170.400	0.450	-0.280	0.790
2020/01/31 22:36:36.2	170.400	0.470	-0.350	0.800
2020/01/31 22:36:36.3	170.400	0.480	-0.410	0.810
2020/01/31 22:36:36.4	170.390	0.500	-0.460	0.820
2020/01/31 22:36:36.5	170.390	0.520	-0.520	0.840
2020/01/31 22:36:36.6	170.380	0.530	-0.580	0.850
2020/01/31 22:36:36.7	170.370	0.540	-0.630	0.870
2020/01/31 22:36:36.8	170.360	0.550	-0.680	0.900
2020/01/31 22:36:36.9	170.350	0.550	-0.730	0.920
2020/01/31 22:36:37.0	170.350	0.560	-0.770	0.950
2020/01/31 22:36:37.1	170.340	0.560	-0.810	0.980
2020/01/31 22:36:37.2	170.330	0.550	-0.850	1.010
2020/01/31 22:36:37.3	170.310	0.550	-0.880	1.040
2020/01/31 22:36:37.4	170.300	0.540	-0.900	1.070
2020/01/31 22:36:37.5	170.280	0.520	-0.930	1.110
2020/01/31 22:36:37.6	170.260	0.510	-0.940	1.150
2020/01/31 22:36:37.7	170.250	0.490	-0.950	1.190
2020/01/31 22:36:37.8	170.230	0.460	-0.960	1.220
2020/01/31 22:36:37.9	170.210	0.440	-0.960	1.270
2020/01/31 22:36:38.0	170.200	0.410	-0.950	1.310
2020/01/31 22:36:38.1	170.180	0.370	-0.940	1.350
2020/01/31 22:36:38.2	170.160	0.340	-0.920	1.400
2020/01/31 22:36:38.3	170.140	0.300	-0.900	1.440
2020/01/31 22:36:38.4	170.120	0.250	-0.870	1.480
2020/01/31 22:36:38.5	170.100	0.210	-0.840	1.530
2020/01/31 22:36:38.6	170.080	0.160	-0.810	1.570
2020/01/31 22:36:38.7	170.060	0.110	-0.770	1.620
2020/01/31 22:36:38.8	170.050	0.060	-0.720	1.660
2020/01/31 22:36:38.9	170.040	0.010	-0.670	1.700
2020/01/31 22:36:39.0	170.020	-0.040	-0.620	1.740
2020/01/31 22:36:39.1	170.010	-0.090	-0.560	1.790
2020/01/31 22:36:39.2	170.000	-0.150	-0.510	1.830
2020/01/31 22:36:39.3	170.000	-0.200	-0.440	1.870
2020/01/31 22:36:39.4	169.990	-0.250	-0.380	1.910
2020/01/31 22:36:39.5	169.990	-0.300	-0.320	1.940
2020/01/31 22:36:39.6	169.990	-0.350	-0.250	1.980
2020/01/31 22:36:39.7	170.000	-0.400	-0.190	2.010
2020/01/31 22:36:39.8	170.000	-0.450	-0.120	2.050
2020/01/31 22:36:39.9	170.010	-0.490	-0.050	2.080
2020/01/31 22:36:40.0	170.010	-0.530	0.010	2.100
2020/01/31 22:36:40.1	170.020	-0.570	0.070	2.130
2020/01/31 22:36:40.2	170.030	-0.610	0.130	2.150
2020/01/31 22:36:40.3	170.040	-0.640	0.190	2.170
2020/01/31 22:36:40.4	170.050	-0.670	0.250	2.180
2020/01/31 22:36:40.5	170.060	-0.690	0.300	2.200
2020/01/31 22:36:40.6	170.070	-0.710	0.340	2.200
2020/01/31 22:36:40.7	170.090	-0.730	0.380	2.210
2020/01/31 22:36:40.8	170.100	-0.740	0.420	2.210
2020/01/31 22:36:40.9	170.110	-0.750	0.450	2.210
2020/01/31 22:36:41.0	170.130	-0.750	0.460	2.200
2020/01/31 22:36:41.1	170.140	-0.750	0.480	2.190
2020/01/31 22:36:41.2	170.150	-0.740	0.490	2.170
2020/01/31 22:36:41.3	170.160	-0.720	0.490	2.160
2020/01/31 22:36:41.4	170.170	-0.710	0.490	2.140
2020/01/31 22:36:41.5	170.180	-0.680	0.470	2.110
2020/01/31 22:36:41.6	170.190	-0.660	0.460	2.080
2020/01/31 22:36:41.7	170.200	-0.630	0.430	2.050
2020/01/31 22:36:41.8	170.210	-0.590	0.400	2.020
2020/01/31 22:36:41.9	170.220	-0.550	0.360	1.980
2020/01/31 22:36:42.0	170.210	-0.510	0.310	1.950
2020/01/31 22:36:42.1	170.220	-0.470	0.260	1.910
2020/01/31 22:36:42.2	170.220	-0.420	0.210	1.870
2020/01/31 22:36:42.3	170.230	-0.370	0.150	1.820
2020/01/31 22:36:42.4	170.240	-0.310	0.080	1.780
2020/01/31 22:36:42.5	170.250	-0.260	0.010	1.730
2020/01/31 22:36:42.6	170.250	-0.200	-0.060	1.690
2020/01/31 22:36:42.7	170.260	-0.140	-0.130	1.640
2020/01/31 22:36:42.8	170.270	-0.080	-0.200	1.600
2020/01/31 22:36:42.9	170.280	-0.020	-0.280	1.550
2020/01/31 22:36:43.0	170.280	0.040	-0.350	1.500
2020/01/31 22:36:43.1	170.290	0.100	-0.430	1.460
2020/01/31 22:36:43.2	170.290	0.160	-0.500	1.420
2020/01/31 22:36:43.3	170.300	0.220	-0.570	1.370
2020/01/31 22:36:43.4	170.310	0.270	-0.640	1.330
2020/01/31 22:36:43.5	170.320	0.330	-0.710	1.290
2020/01/31 22:36:43.6	170.330	0.380	-0.770	1.250
2020/01/31 22:36:43.7	170.340	0.430	-0.830	1.210
2020/01/31 22:36:43.8	170.350	0.470	-0.880	1.170
2020/01/31 22:36:43.9	170.360	0.520	-0.930	1.140
2020/01/31 22:36:44.0	170.370	0.560	-0.970	1.100
2020/01/31 22:36:44.1	170.380	0.590	-1.010	1.060
2020/01/31 22:36:44.2	170.390	0.620	-1.030	1.030
2020/01/31 22:36:44.3	170.410	0.650	-1.050	0.990
2020/01/31 22:36:44.4	170.420	0.670	-1.070	0.960
2020/01/31 22:36:44.5	170.440	0.680	-1.070	0.930
2020/01/31 22:36:44.6	170.450	0.690	-1.070	0.890
2020/01/31 22:36:44.7	170.470	0.700	-1.060	0.860
2020/01/31 22:36:44.8	170.480	0.700	-1.040	0.830
2020/01/31 22:36:44.9	170.500	0.690	-1.010	0.810
2020/01/31 22:36:45.0	170.530	0.680	-0.970	0.790
2020/01/31 22:36:45.1	170.550	0.670	-0.930	0.760
2020/01/31 22:36:45.2	170.570	0.640	-0.880	0.740
2020/01/31 22:36:45.3	170.590	0.620	-0.830	0.720
2020/01/31 22:36:45.4	170.610	0.590	-0.770	0.710
2020/01/31 22:36:45.5	170.630	0.550	-0.700	0.700
2020/01/31 22:36:45.6	170.660	0.510	-0.630	0.690
2020/01/31 22:36:45.7	170.680	0.460	-0.560	0.690
2020/01/31 22:36:45.8	170.700	0.420	-0.480	0.690
2020/01/31 22:36:45.9	170.730	0.360	-0.410	0.690
2020/01/31 22:36:46.0	170.750	0.310	-0.330	0.700
2020/01/31 22:36:46.1	170.780	0.250	-0.250	0.710
2020/01/31 22:36:46.2	170.800	0.190	-0.160	0.720
2020/01/31 22:36:46.3	170.830	0.130	-0.080	0.740
2020/01/31 22:36:46.4	170.850	0.070	-0.000	0.760
2020/01/31 22:36:46.5	170.880	0.010	0.080	0.790
2020/01/31 22:36:46.6	170.900	-0.050	0.150	0.820
2020/01/31 22:36:46.7	170.930	-0.110	0.220	0.850
2020/01/31 22:36:46.8	170.950	-0.170	0.290	0.880
2020/01/31 22:36:46.9	170.970	-0.230	0.350	0.920
2020/01/31 22:36:47.0	171.000	-0.280	0.410	0.960
2020/01/31 22:36:47.1	171.020	-0.340	0.460	1.000
2020/01/31 22:36:47.2	171.040	-0.390	0.500	1.030
2020/01/31 22:36:47.3	171.050	-0.430	0.540	1.070
2020/01/31 22:36:47.4	171.070	-0.480	0.570	1.110
2020/01/31 22:36:47.5	171.080	-0.510	0.590	1.150
2020/01/31 22:36:47.6	171.090	-0.550	0.600	1.190
2020/01/31 22:36:47.7	171.100	-0.570	0.610	1.230
2020/01/31 22:36:47.8	171.110	-0.600	0.610	1.270
2020/01/31 22:36:47.9	171.110	-0.610	0.590	1.300
2020/01/31 22:36:48.0	171.100	-0.620	0.580	1.340
2020/01/31 22:36:48.1	171.100	-0.630	0.550	1.380
2020/01/31 22:36:48.2	171.100	-0.630	0.520	1.410
2020/01/31 22:36:48.3	171.090	-0.620	0.470	1.440
2020/01/31 22:36:48.4	171.090	-0.600	0.430	1.470
2020/01/31 22:36:48.5	171.080	-0.590	0.370	1.500
2020/01/31 22:36:48.6	171.070	-0.560	0.310	1.530
2020/01/31 22:36:48.7	171.050	-0.530	0.240	1.550
2020/01/31 22:36:48.8	171.040	-0.500	0.170	1.570
2020/01/31 22:36:48.9	171.020	-0.460	0.100	1.600
2020/01/31 22:36:49.0	170.990	-0.420	0.030	1.620
2020/01/31 22:36:49.1	170.970	-0.380	-0.050	1.640
2020/01/31 22:36:49.2	170.950	-0.330	-0.130	1.660
2020/01/31 22:36:49.3	170.930	-0.280	-0.200	1.690
2020/01/31 22:36:49.4	170.910	-0.230	-0.280	1.710
2020/01/31 22:36:49.5	170.880	-0.170	-0.350	1.730
2020/01/31 22:36:49.6	170.850	-0.120	-0.430	1.750
2020/01/31 22:36:49.7	170.830	-0.070	-0.490	1.760
2020/01/31 22:36:49.8	170.800	-0.010	-0.560	1.780
2020/01/31 22:36:49.9	170.770	0.040	-0.620	1.800
2020/01/31 22:36:50.0	170.750	0.090	-0.680	1.820
2020/01/31 22:36:50.1	170.720	0.140	-0.720	1.840
2020/01/31 22:36:50.2	170.690	0.180	-0.770	1.850
2020/01/31 22:36:50.3	170.670	0.230	-0.810	1.870
2020/01/31 22:36:50.4	170.640	0.270	-0.840	1.880
2020/01/31 22:36:50.5	170.620	0.310	-0.860	1.890
2020/01/31 22:36:50.6	170.600	0.340	-0.870	1.900
2020/01/31 22:36:50.7	170.580	0.370	-0.880	1.900
2020/01/31 22:36:50.8	170.560	0.390	-0.880	1.900
2020/01/31 22:36:50.9	170.550	0.410	-0.870	1.900
2020/01/31 22:36:51.0	170.530	0.430	-0.860	1.900
2020/01/31 22:36:51.1	170.520	0.440	-0.840	1.890
2020/01/31 22:36:51.2	170.520	0.450	-0.810	1.880
2020/01/31 22:36:51.3	170.520	0.450	-0.770	1.860
2020/01/31 22:36:51.4	170.520	0.440	-0.730	1.840
2020/01/31 22:36:51.5	170.520	0.430	-0.680	1.810
2020/01/31 22:36:51.6	170.530	0.420	-0.620	1.790
2020/01/31 22:36:51.7	170.540	0.400	-0.560	1.760
2020/01/31 22:36:51.8	170.550	0.380	-0.500	1.730
2020/01/31 22:36:51.9	170.560	0.350	-0.430	1.690
2020/01/31 22:36:52.0	170.590	0.320	-0.360	1.650
2020/01/31 22:36:52.1	170.600	0.290	-0.290	1.620
2020/01/31 22:36:52.2	170.620	0.250	-0.220	1.580
2020/01/31 22:36:52.3	170.640	0.210	-0.150	1.550
2020/01/31 22:36:52.4	170.660	0.170	-0.080	1.510
2020/01/31 22:36:52.5	170.670	0.130	-0.020	1.480
2020/01/31 22:36:52.6	170.690	0.090	0.050	1.450
2020/01/31 22:36:52.7	170.710	0.040	0.110	1.410
2020/01/31 22:36:52.8	170.730	-0.000	0.160	1.380
2020/01/31 22:36:52.9	170.740	-0.040	0.210	1.360
2020/01/31 22:36:53.0	170.760	-0.090	0.250	1.340
2020/01/31 22:36:53.1	170.770	-0.130	0.280	1.310
2020/01/31 22:36:53.2	170.790	-0.170	0.310	1.290
2020/01/31 22:36:53.3	170.800	-0.200	0.330	1.280
2020/01/31 22:36:53.4	170.810	-0.230	0.350	1.260
2020/01/31 22:36:53.5	170.820	-0.260	0.350	1.250
2020/01/31 22:36:53.6	170.830	-0.290	0.350	1.240
2020/01/31 22:36:53.7	170.830	-0.310	0.340	1.230
2020/01/31 22:36:53.8	170.840	-0.330	0.330	1.220
2020/01/31 22:36:53.9	170.840	-0.340	0.310	1.220
2020/01/31 22:36:54.0	170.840	-0.350	0.280	1.220
2020/01/31 22:36:54.1	170.840	-0.360	0.240	1.210
2020/01/31 22:36:54.2	170.840	-0.360	0.200	1.210
2020/01/31 22:36:54.3	170.840	-0.350	0.160	1.220
2020/01/31 22:36:54.4	170.840	-0.340	0.110	1.220
2020/01/31 22:36:54.5	170.840	-0.330	0.060	1.220
2020/01/31 22:36:54.6	170.830	-0.310	0.010	1.220
2020/01/31 22:36:54.7	170.830	-0.290	-0.050	1.220
2020/01/31 22:36:54.8	170.830	-0.270	-0.100	1.220
2020/01/31 22:36:54.9	170.820	-0.240	-0.160	1.220
2020/01/31 22:36:55.0	170.820	-0.210	-0.210	1.220
2020/01/31 22:36:55.1	170.820	-0.180	-0.260	1.220
2020/01/31 22:36:55.2	170.810	-0.150	-0.310	1.210
2020/01/31 22:36:55.3	170.810	-0.110	-0.360	1.210
2020/01/31 22:36:55.4	170.810	-0.080	-0.400	1.200
2020/01/31 22:36:55.5	170.810	-0.040	-0.440	1.190
2020/01/31 22:36:55.6	170.810	-0.010	-0.470	1.180
2020/01/31 22:36:55.7	170.810	0.020	-0.500	1.160
2020/01/31 22:36:55.8	170.820	0.060	-0.520	1.150
2020/01/31 22:36:55.9	170.820	0.090	-0.540	1.140
2020/01/31 22:36:56.0	170.830	0.120	-0.550	1.130
2020/01/31 22:36:56.1	170.830	0.150	-0.560	1.120
2020/01/31 22:36:56.2	170.840	0.170	-0.570	1.100
2020/01/31 22:36:56.3	170.850	0.200	-0.570	1.090
2020/01/31 22:36:56.4	170.860	0.220	-0.560	1.080
2020/01/31 22:36:56.5	170.860	0.240	-0.560	1.070
2020/01/31 22:36:56.6	170.870	0.260	-0.550	1.070
2020/01/31 22:36:56.7	170.880	0.270	-0.530	1.060
2020/01/31 22:36:56.8	170.880	0.290	-0.520	1.050
2020/01/31 22:36:56.9	170.890	0.300	-0.500	1.050
2020/01/31 22:36:57.0	170.910	0.300	-0.490	1.050
2020/01/31 22:36:57.1	170.910	0.310	-0.470	1.050
2020/01/31 22:36:57.2	170.910	0.310	-0.450	1.050
2020/01/31 22:36:57.3	170.910	0.320	-0.440	1.050
2020/01/31 22:36:57.4	170.910	0.320	-0.420	1.050
2020/01/31 22:36:57.5	170.900	0.320	-0.410	1.060
2020/01/31 22:36:57.6	170.900	0.310	-0.400	1.060
2020/01/31 22:36:57.7	170.890	0.310	-0.390	1.070
2020/01/31 22:36:57.8	170.880	0.310	-0.380	1.080
2020/01/31 22:36:57.9	170.870	0.300	-0.370	1.090
2020/01/31 22:36:58.0	170.860	0.300	-0.360	1.090
2020/01/31 22:36:58.1	170.850	0.290	-0.360	1.100
2020/01/31 22:36:58.2	170.830	0.280	-0.360	1.110
2020/01/31 22:36:58.3	170.820	0.270	-0.360	1.120
2020/01/31 22:36:58.4	170.810	0.260	-0.360	1.130
2020/01/31 22:36:58.5	170.790	0.250	-0.360	1.140
2020/01/31 22:36:58.6	170.780	0.240	-0.360	1.150
2020/01/31 22:36:58.7	170.770	0.230	-0.360	1.160
2020/01/31 22:36:58.8	170.750	0.220	-0.370	1.180
2020/01/31 22:36:58.9	170.740	0.200	-0.370	1.190
2020/01/31 22:36:59.0	170.740	0.190	-0.370	1.210
2020/01/31 22:36:59.1	170.730	0.170	-0.370	1.220
2020/01/31 22:36:59.2	170.720	0.160	-0.370	1.250
2020/01/31 22:36:59.3	170.710	0.140	-0.370	1.270
2020/01/31 22:36:59.4	170.700	0.120	-0.370	1.300
2020/01/31 22:36:59.5	170.690	0.100	-0.360	1.320
2020/01/31 22:36:59.6	170.680	0.080	-0.360	1.350
2020/01/31 22:36:59.7	170.670	0.060	-0.350	1.390
2020/01/31 22:36:59.8	170.670	0.030	-0.340	1.420
2020/01/31 22:36:59.9	170.660	0.010	-0.330	1.460
2020/01/31 22:37:00.0	170.650	-0.010	-0.330	1.500
2020/01/31 22:37:00.1	170.640	-0.040	-0.310	1.540
2020/01/31 22:37:00.2	170.640	-0.060	-0.300	1.580
2020/01/31 22:37:00.3	170.640	-0.080	-0.280	1.620
2020/01/31 22:37:00.4	170.640	-0.100	-0.270	1.670
2020/01/31 22:37:00.5	170.640	-0.130	-0.250	1.700
2020/01/31 22:37:00.6	170.630	-0.150	-0.230	1.740
2020/01/31 22:37:00.7	170.630	-0.170	-0.200	1.780
2020/01/31 22:37:00.8	170.640	-0.180	-0.180	1.820
2020/01/31 22:37:00.9	170.640	-0.200	-0.160	1.850
2020/01/31 22:37:01.0	170.630	-0.210	-0.130	1.870
2020/01/31 22:37:01.1	170.640	-0.230	-0.110	1.900
2020/01/31 22:37:01.2	170.640	-0.240	-0.080	1.920
2020/01/31 22:37:01.3	170.640	-0.240	-0.050	1.940
2020/01/31 22:37:01.4	170.650	-0.250	-0.030	1.950
2020/01/31 22:37:01.5	170.650	-0.250	0.000	1.960
2020/01/31 22:37:01.6	170.660	-0.250	0.030	1.960
2020/01/31 22:37:01.7	170.660	-0.250	0.050	1.960
2020/01/31 22:37:01.8	170.670	-0.240	0.080	1.960
2020/01/31 22:37:01.9	170.670	-0.230	0.110	1.950
2020/01/31 22:37:02.0	170.680	-0.220	0.130	1.940
2020/01/31 22:37:02.1	170.690	-0.210	0.150	1.920
2020/01/31 22:37:02.2	170.700	-0.190	0.170	1.900
2020/01/31 22:37:02.3	170.710	-0.170	0.190	1.870
2020/01/31 22:37:02.4	170.710	-0.150	0.210	1.850
2020/01/31 22:37:02.5	170.720	-0.120	0.220	1.820
2020/01/31 22:37:02.6	170.720	-0.090	0.230	1.790
2020/01/31 22:37:02.7	170.730	-0.060	0.240	1.760
2020/01/31 22:37:02.8	170.730	-0.030	0.250	1.730
2020/01/31 22:37:02.9	170.740	-0.000	0.250	1.700
2020/01/31 22:37:03.0	170.770	0.030	0.250	1.670
2020/01/31 22:37:03.1	170.770	0.070	0.240	1.640
2020/01/31 22:37:03.2	170.770	0.100	0.230	1.600
2020/01/31 22:37:03.3	170.770	0.140	0.220	1.570
2020/01/31 22:37:03.4	170.770	0.170	0.210	1.540
2020/01/31 22:37:03.5	170.770	0.210	0.190	1.520
2020/01/31 22:37:03.6	170.770	0.240	0.160	1.490
2020/01/31 22:37:03.7	170.760	0.280	0.140	1.460
2020/01/31 22:37:03.8	170.760	0.310	0.110	1.430
2020/01/31 22:37:03.9	170.760	0.340	0.070	1.410
2020/01/31 22:37:04.0	170.740	0.370	0.040	1.380
2020/01/31 22:37:04.1	170.740	0.400	0.000	1.350
2020/01/31 22:37:04.2	170.740	0.420	-0.040	1.330
2020/01/31 22:37:04.3	170.740	0.450	-0.080	1.300
2020/01/31 22:37:04.4	170.740	0.470	-0.120	1.270
2020/01/31 22:37:04.5	170.740	0.480	-0.160	1.240
2020/01/31 22:37:04.6	170.750	0.500	-0.200	1.220
2020/01/31 22:37:04.7	170.750	0.510	-0.250	1.190
2020/01/31 22:37:04.8	170.760	0.520	-0.290	1.160
2020/01/31 22:37:04.9	170.760	0.520	-0.330	1.130
2020/01/31 22:37:05.0	170.770	0.520	-0.360	1.100
2020/01/31 22:37:05.1	170.780	0.520	-0.400	1.080
2020/01/31 22:37:05.2	170.780	0.510	-0.430	1.060
2020/01/31 22:37:05.3	170.790	0.500	-0.460	1.040
2020/01/31 22:37:05.4	170.800	0.480	-0.490	1.020
2020/01/31 22:37:05.5	170.800	0.460	-0.510	1.010
2020/01/31 22:37:05.6	170.810	0.440	-0.530	1.000
2020/01/31 22:37:05.7	170.810	0.410	-0.550	1.000
2020/01/31 22:37:05.8	170.820	0.390	-0.570	1.000
2020/01/31 22:37:05.9	170.820	0.350	-0.580	1.000
2020/01/31 22:37:06.0	170.830	0.320	-0.590	1.010
2020/01/31 22:37:06.1	170.830	0.280	-0.590	1.030
2020/01/31 22:37:06.2	170.830	0.240	-0.600	1.050
2020/01/31 22:37:06.3	170.830	0.200	-0.600	1.080
2020/01/31 22:37:06.4	170.820	0.160	-0.600	1.110
2020/01/31 22:37:06.5	170.820	0.120	-0.590	1.140
2020/01/31 22:37:06.6	170.810	0.080	-0.590	1.180
2020/01/31 22:37:06.7	170.810	0.040	-0.580	1.220
2020/01/31 22:37:06.8	170.800	-0.010	-0.580	1.260
2020/01/31 22:37:06.9	170.800	-0.050	-0.570	1.300
2020/01/31 22:37:07.0	170.790	-0.090	-0.560	1.350
2020/01/31 22:37:07.1	170.790	-0.130	-0.550	1.390
2020/01/31 22:37:07.2	170.790	-0.170	-0.530	1.420
2020/01/31 22:37:07.3	170.790	-0.200	-0.520	1.460
2020/01/31 22:37:07.4	170.790	-0.240	-0.510	1.490
2020/01/31 22:37:07.5	170.800	-0.270	-0.490	1.510
2020/01/31 22:37:07.6	170.800	-0.300	-0.470	1.540
2020/01/31 22:37:07.7	170.800	-0.320	-0.460	1.560
2020/01/31 22:37:07.8	170.810	-0.350	-0.440	1.580
2020/01/31 22:37:07.9	170.820	-0.370	-0.430	1.590
2020/01/31 22:37:08.0	170.820	-0.380	-0.410	1.600
2020/01/31 22:37:08.1	170.820	-0.400	-0.400	1.610
2020/01/31 22:37:08.2	170.830	-0.410	-0.390	1.610
2020/01/31 22:37:08.3	170.830	-0.420	-0.390	1.620
2020/01/31 22:37:08.4	170.840	-0.420	-0.380	1.620
2020/01/31 22:37:08.5	170.840	-0.420	-0.380	1.620
2020/01/31 22:37:08.6	170.840	-0.420	-0.380	1.630
2020/01/31 22:37:08.7	170.840	-0.420	-0.390	1.630
2020/01/31 22:37:08.8	170.840	-0.410	-0.400	1.630
2020/01/31 22:37:08.9	170.830	-0.400	-0.410	1.630
2020/01/31 22:37:09.0	170.840	-0.390	-0.420	1.630
2020/01/31 22:37:09.1	170.830	-0.370	-0.440	1.630
2020/01/31 22:37:09.2	170.830	-0.350	-0.460	1.640
2020/01/31 22:37:09.3	170.820	-0.330	-0.480	1.640
2020/01/31 22:37:09.4	170.810	-0.310	-0.500	1.640
2020/01/31 22:37:09.5	170.800	-0.290	-0.530	1.650
2020/01/31 22:37:09.6	170.790	-0.270	-0.550	1.650
2020/01/31 22:37:09.7	170.780	-0.240	-0.570	1.660
2020/01/31 22:37:09.8	170.770	-0.220	-0.600	1.660
2020/01/31 22:37:09.9	170.760	-0.190	-0.620	1.670
2020/01/31 22:37:10.0	170.750	-0.170	-0.640	1.680
2020/01/31 22:37:10.1	170.740	-0.140	-0.660	1.680
2020/01/31 22:37:10.2	170.720	-0.120	-0.680	1.680
2020/01/31 22:37:10.3	170.710	-0.100	-0.690	1.680
2020/01/31 22:37:10.4	170.700	-0.080	-0.700	1.680
2020/01/31 22:37:10.5	170.690	-0.050	-0.710	1.680
2020/01/31 22:37:10.6	170.680	-0.030	-0.710	1.680
2020/01/31 22:37:10.7	170.660	-0.020	-0.710	1.670
2020/01/31 22:37:10.8	170.650	-0.000	-0.700	1.670
2020/01/31 22:37:10.9	170.640	0.010	-0.690	1.660
2020/01/31 22:37:11.0	170.620	0.030	-0.680	1.640
2020/01/31 22:37:11.1	170.610	0.040	-0.660	1.630
2020/01/31 22:37:11.2	170.590	0.050	-0.640	1.610
2020/01/31 22:37:11.3	170.580	0.060	-0.610	1.600
2020/01/31 22:37:11.4	170.570	0.060	-0.590	1.580
2020/01/31 22:37:11.5	170.550	0.060	-0.560	1.560
2020/01/31 22:37:11.6	170.540	0.060	-0.520	1.540
2020/01/31 22:37:11.7	170.530	0.060	-0.490	1.520
2020/01/31 22:37:11.8	170.510	0.060	-0.450	1.490
2020/01/31 22:37:11.9	170.500	0.060	-0.410	1.470
2020/01/31 22:37:12.0	170.490	0.050	-0.370	1.450
2020/01/31 22:37:12.1	170.480	0.040	-0.330	1.430
2020/01/31 22:37:12.2	170.480	0.030	-0.290	1.400
2020/01/31 22:37:12.3	170.470	0.020	-0.250	1.380
2020/01/31 22:37:12.4	170.470	0.010	-0.200	1.350
2020/01/31 22:37:12.5	170.470	-0.010	-0.160	1.320
2020/01/31 22:37:12.6	170.470	-0.020	-0.120	1.290
2020/01/31 22:37:12.7	170.480	-0.040	-0.070	1.260
2020/01/31 22:37:12.8	170.490	-0.060	-0.020	1.230
2020/01/31 22:37:12.9	170.500	-0.080	0.020	1.210
2020/01/31 22:37:13.0	170.510	-0.100	0.060	1.170
2020/01/31 22:37:13.1	170.530	-0.120	0.110	1.140
2020/01/31 22:37:13.2	170.560	-0.150	0.150	1.120
2020/01/31 22:37:13.3	170.580	-0.170	0.200	1.090
2020/01/31 22:37:13.4	170.610	-0.190	0.240	1.070
2020/01/31 22:37:13.5	170.640	-0.220	0.280	1.050
2020/01/31 22:37:13.6	170.680	-0.240	0.330	1.030
2020/01/31 22:37:13.7	170.710	-0.270	0.370	1.010
2020/01/31 22:37:13.8	170.750	-0.290	0.410	0.990
2020/01/31 22:37:13.9	170.780	-0.320	0.440	0.980
2020/01/31 22:37:14.0	170.830	-0.340	0.480	0.980
2020/01/31 22:37:14.1	170.870	-0.360	0.510	0.970
2020/01/31 22:37:14.2	170.900	-0.380	0.540	0.970
2020/01/31 22:37:14.3	170.940	-0.400	0.570	0.960
2020/01/31 22:37:14.4	170.970	-0.420	0.590	0.970
2020/01/31 22:37:14.5	171.000	-0.430	0.610	0.970
2020/01/31 22:37:14.6	171.030	-0.450	0.620	0.980
2020/01/31 22:37:14.7	171.060	-0.460	0.630	1.000
2020/01/31 22:37:14.8	171.080	-0.460	0.640	1.010
2020/01/31 22:37:14.9	171.100	-0.470	0.640	1.040
2020/01/31 22:37:15.0	171.110	-0.470	0.630	1.060
2020/01/31 22:37:15.1	171.130	-0.470	0.620	1.090
2020/01/31 22:37:15.2	171.130	-0.460	0.600	1.120
2020/01/31 22:37:15.3	171.140	-0.450	0.580	1.160
2020/01/31 22:37:15.4	171.140	-0.440	0.550	1.190
2020/01/31 22:37:15.5	171.140	-0.420	0.520	1.230
2020/01/31 22:37:15.6	171.140	-0.400	0.490	1.270
2020/01/31 22:37:15.7	171.140	-0.380	0.440	1.310
2020/01/31 22:37:15.8	171.130	-0.350	0.400	1.350
2020/01/31 22:37:15.9	171.130	-0.320	0.350	1.390
2020/01/31 22:37:16.0	171.120	-0.290	0.300	1.420
2020/01/31 22:37:16.1	171.120	-0.260	0.250	1.460
2020/01/31 22:37:16.2	171.110	-0.230	0.190	1.500
2020/01/31 22:37:16.3	171.100	-0.190	0.140	1.530
2020/01/31 22:37:16.4	171.100	-0.150	0.080	1.560
2020/01/31 22:37:16.5	171.090	-0.120	0.020	1.600
2020/01/31 22:37:16.6	171.080	-0.080	-0.030	1.620
2020/01/31 22:37:16.7	171.080	-0.040	-0.090	1.650
2020/01/31 22:37:16.8	171.080	-0.000	-0.140	1.680
2020/01/31 22:37:16.9	171.070	0.040	-0.190	1.700
2020/01/31 22:37:17.0	171.080	0.070	-0.240	1.720
2020/01/31 22:37:17.1	171.070	0.110	-0.280	1.740
2020/01/31 22:37:17.2	171.070	0.140	-0.320	1.760
2020/01/31 22:37:17.3	171.070	0.180	-0.360	1.780
2020/01/31 22:37:17.4	171.070	0.210	-0.390	1.790
2020/01/31 22:37:17.5	171.070	0.240	-0.420	1.800
2020/01/31 22:37:17.6	171.070	0.270	-0.450	1.810
2020/01/31 22:37:17.7	171.070	0.300	-0.470	1.820
2020/01/31 22:37:17.8	171.070	0.320	-0.490	1.820
2020/01/31 22:37:17.9	171.060	0.350	-0.510	1.820
2020/01/31 22:37:18.0	171.040	0.370	-0.520	1.830
2020/01/31 22:37:18.1	171.040	0.390	-0.530	1.820
2020/01/31 22:37:18.2	171.030	0.410	-0.540	1.820
2020/01/31 22:37:18.3	171.030	0.420	-0.550	1.820
2020/01/31 22:37:18.4	171.020	0.440	-0.550	1.810
2020/01/31 22:37:18.5	171.010	0.450	-0.550	1.810
2020/01/31 22:37:18.6	171.000	0.460	-0.550	1.800
2020/01/31 22:37:18.7	170.990	0.470	-0.550	1.790
2020/01/31 22:37:18.8	170.980	0.480	-0.550	1.780
2020/01/31 22:37:18.9	170.960	0.490	-0.540	1.770
2020/01/31 22:37:19.0	170.950	0.500	-0.540	1.760
2020/01/31 22:37:19.1	170.940	0.510	-0.540	1.750
2020/01/31 22:37:19.2	170.920	0.520	-0.530	1.730
2020/01/31 22:37:19.3	170.900	0.520	-0.520	1.720
2020/01/31 22:37:19.4	170.880	0.530	-0.520	1.700
2020/01/31 22:37:19.5	170.870	0.530	-0.510	1.680
2020/01/31 22:37:19.6	170.850	0.540	-0.500	1.660
2020/01/31 22:37:19.7	170.830	0.540	-0.490	1.630
2020/01/31 22:37:19.8	170.810	0.550	-0.470	1.610
2020/01/31 22:37:19.9	170.800	0.550	-0.460	1.580
2020/01/31 22:37:20.0	170.770	0.550	-0.450	1.550
2020/01/31 22:37:20.1	170.760	0.550	-0.430	1.520
2020/01/31 22:37:20.2	170.750	0.550	-0.410	1.490
2020/01/31 22:37:20.3	170.730	0.550	-0.400	1.450
2020/01/31 22:37:20.4	170.720	0.550	-0.380	1.410
2020/01/31 22:37:20.5	170.720	0.540	-0.360	1.370
2020/01/31 22:37:20.6	170.710	0.540	-0.340	1.330
2020/01/31 22:37:20.7	170.710	0.530	-0.320	1.290
2020/01/31 22:37:20.8	170.710	0.520	-0.300	1.250
2020/01/31 22:37:20.9	170.710	0.510	-0.280	1.210
2020/01/31 22:37:21.0	170.710	0.490	-0.260	1.160
2020/01/31 22:37:21.1	170.720	0.480	-0.240	1.120
2020/01/31 22:37:21.2	170.730	0.460	-0.220	1.080
2020/01/31 22:37:21.3	170.740	0.440	-0.210	1.040
2020/01/31 22:37:21.4	170.750	0.410	-0.190	1.000
2020/01/31 22:37:21.5	170.760	0.390	-0.180	0.970
2020/01/31 22:37:21.6	170.770	0.360	-0.170	0.940
2020/01/31 22:37:21.7	170.790	0.340	-0.170	0.910
2020/01/31 22:37:21.8	170.800	0.310	-0.160	0.880
2020/01/31 22:37:21.9	170.820	0.280	-0.160	0.860
2020/01/31 22:37:22.0	170.840	0.240	-0.170	0.830
2020/01/31 22:37:22.1	170.850	0.210	-0.180	0.820
2020/01/31 22:37:22.2	170.870	0.180	-0.190	0.810
2020/01/31 22:37:22.3	170.880	0.140	-0.210	0.800
2020/01/31 22:37:22.4	170.900	0.110	-0.230	0.800
2020/01/31 22:37:22.5	170.910	0.070	-0.250	0.800
2020/01/31 22:37:22.6	170.920	0.040	-0.280	0.810
2020/01/31 22:37:22.7	170.930	0.010	-0.310	0.820
2020/01/31 22:37:22.8	170.940	-0.030	-0.340	0.830
2020/01/31 22:37:22.9	170.950	-0.060	-0.380	0.850
2020/01/31 22:37:23.0	170.950	-0.090	-0.420	0.880
2020/01/31 22:37:23.1	170.960	-0.110	-0.450	0.910
2020/01/31 22:37:23.2	170.960	-0.140	-0.490	0.940
2020/01/31 22:37:23.3	170.960	-0.160	-0.530	0.970
2020/01/31 22:37:23.4	170.960	-0.180	-0.570	1.000
2020/01/31 22:37:23.5	170.960	-0.200	-0.610	1.030
2020/01/31 22:37:23.6	170.960	-0.220	-0.650	1.060
2020/01/31 22:37:23.7	170.960	-0.230	-0.680	1.090
2020/01/31 22:37:23.8	170.960	-0.240	-0.710	1.120
2020/01/31 22:37:23.9	170.960	-0.250	-0.730	1.150
2020/01/31 22:37:24.0	170.940	-0.250	-0.750	1.180
2020/01/31 22:37:24.1	170.940	-0.260	-0.770	1.200
2020/01/31 22:37:24.2	170.940	-0.260	-0.780	1.230
2020/01/31 22:37:24.3	170.950	-0.250	-0.790	1.250
2020/01/31 22:37:24.4	170.950	-0.250	-0.790	1.280
2020/01/31 22:37:24.5	170.950	-0.240	-0.790	1.290
2020/01/31 22:37:24.6	170.960	-0.230	-0.780	1.310
2020/01/31 22:37:24.7	170.960	-0.230	-0.770	1.330
2020/01/31 22:37:24.8	170.970	-0.220	-0.750	1.340
2020/01/31 22:37:24.9	170.990	-0.200	-0.720	1.350
2020/01/31 22:37:25.0	171.010	-0.190	-0.700	1.360
2020/01/31 22:37:25.1	171.020	-0.180	-0.660	1.370
2020/01/31 22:37:25.2	171.040	-0.170	-0.630	1.370
2020/01/31 22:37:25.3	171.060	-0.160	-0.590	1.370
2020/01/31 22:37:25.4	171.080	-0.150	-0.550	1.370
2020/01/31 22:37:25.5	171.100	-0.140	-0.510	1.370
2020/01/31 22:37:25.6	171.120	-0.130	-0.460	1.370
2020/01/31 22:37:25.7	171.140	-0.120	-0.420	1.370
2020/01/31 22:37:25.8	171.160	-0.120	-0.380	1.360
2020/01/31 22:37:25.9	171.180	-0.110	-0.330	1.360
2020/01/31 22:37:26.0	171.200	-0.110	-0.290	1.360
2020/01/31 22:37:26.1	171.220	-0.100	-0.260	1.360
2020/01/31 22:37:26.2	171.230	-0.100	-0.220	1.360
2020/01/31 22:37:26.3	171.250	-0.100	-0.190	1.360
2020/01/31 22:37:26.4	171.260	-0.100	-0.160	1.360
2020/01/31 22:37:26.5	171.270	-0.100	-0.130	1.360
2020/01/31 22:37:26.6	171.270	-0.100	-0.110	1.360
2020/01/31 22:37:26.7	171.270	-0.100	-0.090	1.370
2020/01/31 22:37:26.8	171.270	-0.110	-0.080	1.380
2020/01/31 22:37:26.9	171.260	-0.110	-0.070	1.390
2020/01/31 22:37:27.0	171.250	-0.110	-0.070	1.400
2020/01/31 22:37:27.1	171.240	-0.110	-0.070	1.410
2020/01/31 22:37:27.2	171.220	-0.110	-0.080	1.430
2020/01/31 22:37:27.3	171.200	-0.110	-0.090	1.450
2020/01/31 22:37:27.4	171.180	-0.110	-0.100	1.470
2020/01/31 22:37:27.5	171.150	-0.110	-0.120	1.490
2020/01/31 22:37:27.6	171.130	-0.110	-0.140	1.510
2020/01/31 22:37:27.7	171.100	-0.110	-0.160	1.540
2020/01/31 22:37:27.8	171.070	-0.110	-0.180	1.560
2020/01/31 22:37:27.9	171.040	-0.110	-0.200	1.590
2020/01/31 22:37:28.0	171.000	-0.110	-0.220	1.610
2020/01/31 22:37:28.1	170.970	-0.110	-0.240	1.640
2020/01/31 22:37:28.2	170.940	-0.110	-0.260	1.660
2020/01/31 22:37:28.3	170.910	-0.110	-0.270	1.690
2020/01/31 22:37:28.4	170.890	-0.110	-0.290	1.710
2020/01/31 22:37:28.5	170.860	-0.110	-0.300	1.740
2020/01/31 22:37:28.6	170.840	-0.110	-0.310	1.760
2020/01/31 22:37:28.7	170.820	-0.110	-0.320	1.790
2020/01/31 22:37:28.8	170.790	-0.120	-0.320	1.810
2020/01/31 22:37:28.9	170.770	-0.120	-0.320	1.840
2020/01/31 22:37:29.0	170.750	-0.120	-0.310	1.860
2020/01/31 22:37:29.1	170.740	-0.130	-0.310	1.890
2020/01/31 22:37:29.2	170.720	-0.140	-0.300	1.910
2020/01/31 22:37:29.3	170.710	-0.150	-0.290	1.940
2020/01/31 22:37:29.4	170.690	-0.160	-0.270	1.960
2020/01/31 22:37:29.5	170.680	-0.170	-0.250	1.980
2020/01/31 22:37:29.6	170.670	-0.180	-0.230	2.000
2020/01/31 22:37:29.7	170.650	-0.190	-0.210	2.020
2020/01/31 22:37:29.8	170.640	-0.200	-0.180	2.040
2020/01/31 22:37:29.9	170.630	-0.220	-0.150	2.060
2020/01/31 22:37:30.0	170.610	-0.230	-0.130	2.080
2020/01/31 22:37:30.1	170.600	-0.250	-0.090	2.090
2020/01/31 22:37:30.2	170.590	-0.260	-0.060	2.100
2020/01/31 22:37:30.3	170.590	-0.280	-0.020	2.110
2020/01/31 22:37:30.4	170.580	-0.290	0.020	2.120
2020/01/31 22:37:30.5	170.570	-0.310	0.060	2.130
2020/01/31 22:37:30.6	170.560	-0.330	0.100	2.130
2020/01/31 22:37:30.7	170.560	-0.350	0.140	2.140
2020/01/31 22:37:30.8	170.550	-0.360	0.180	2.140
2020/01/31 22:37:30.9	170.550	-0.380	0.210	2.140
2020/01/31 22:37:31.0	170.540	-0.400	0.260	2.130
2020/01/31 22:37:31.1	170.540	-0.410	0.290	2.130
2020/01/31 22:37:31.2	170.540	-0.430	0.330	2.120
2020/01/31 22:37:31.3	170.530	-0.440	0.360	2.110
2020/01/31 22:37:31.4	170.530	-0.450	0.400	2.100
2020/01/31 22:37:31.5	170.530	-0.460	0.430	2.080
2020/01/31 22:37:31.6	170.530	-0.470	0.450	2.060
2020/01/31 22:37:31.7	170.530	-0.480	0.480	2.040
2020/01/31 22:37:31.8	170.530	-0.490	0.500	2.020
2020/01/31 22:37:31.9	170.530	-0.490	0.520	2.000
2020/01/31 22:37:32.0	170.530	-0.490	0.530	1.970
2020/01/31 22:37:32.1	170.530	-0.490	0.540	1.950
2020/01/31 22:37:32.2	170.530	-0.490	0.540	1.920
2020/01/31 22:37:32.3	170.540	-0.480	0.540	1.890
2020/01/31 22:37:32.4	170.540	-0.470	0.530	1.860
2020/01/31 22:37:32.5	170.540	-0.460	0.520	1.820
2020/01/31 22:37:32.6	170.540	-0.450	0.500	1.790
2020/01/31 22:37:32.7	170.540	-0.430	0.480	1.760
2020/01/31 22:37:32.8	170.540	-0.410	0.450	1.730
2020/01/31 22:37:32.9	170.540	-0.390	0.410	1.690
2020/01/31 22:37:33.0	170.540	-0.360	0.370	1.660
2020/01/31 22:37:33.1	170.540	-0.340	0.320	1.630
2020/01/31 22:37:33.2	170.540	-0.300	0.270	1.590
2020/01/31 22:37:33.3	170.540	-0.270	0.200	1.560
2020/01/31 22:37:33.4	170.540	-0.230	0.140	1.520
2020/01/31 22:37:33.5	170.540	-0.190	0.060	1.490
2020/01/31 22:37:33.6	170.540	-0.150	-0.010	1.450
2020/01/31 22:37:33.7	170.540	-0.110	-0.100	1.420
2020/01/31 22:37:33.8	170.530	-0.060	-0.180	1.380
2020/01/31 22:37:33.9	170.530	-0.020	-0.270	1.350
2020/01/31 22:37:34.0	170.530	0.030	-0.360	1.320
2020/01/31 22:37:34.1	170.530	0.080	-0.450	1.290
2020/01/31 22:37:34.2	170.520	0.130	-0.540	1.260
2020/01/31 22:37:34.3	170.520	0.180	-0.630	1.230
2020/01/31 22:37:34.4	170.520	0.230	-0.720	1.200
2020/01/31 22:37:34.5	170.510	0.280	-0.800	1.170
2020/01/31 22:37:34.6	170.510	0.320	-0.880	1.140
2020/01/31 22:37:34.7	170.510	0.370	-0.950	1.120
2020/01/31 22:37:34.8	170.510	0.410	-1.020	1.090
2020/01/31 22:37:34.9	170.510	0.460	-1.080	1.070
2020/01/31 22:37:35.0	170.510	0.500	-1.130	1.050
2020/01/31 22:37:35.1	170.520	0.530	-1.170	1.030
2020/01/31 22:37:35.2	170.520	0.570	-1.200	1.010
2020/01/31 22:37:35.3	170.530	0.600	-1.220	0.990
2020/01/31 22:37:35.4	170.540	0.620	-1.240	0.970
2020/01/31 22:37:35.5	170.550	0.640	-1.240	0.950
2020/01/31 22:37:35.6	170.570	0.660	-1.230	0.930
2020/01/31 22:37:35.7	170.580	0.680	-1.210	0.920
2020/01/31 22:37:35.8	170.600	0.680	-1.180	0.900
2020/01/31 22:37:35.9	170.620	0.690	-1.150	0.880
2020/01/31 22:37:36.0	170.640	0.690	-1.100	0.870
2020/01/31 22:37:36.1	170.670	0.690	-1.050	0.850
2020/01/31 22:37:36.2	170.690	0.680	-0.980	0.830
2020/01/31 22:37:36.3	170.720	0.660	-0.920	0.820
2020/01/31 22:37:36.4	170.740	0.650	-0.840	0.800
2020/01/31 22:37:36.5	170.770	0.630	-0.760	0.790
2020/01/31 22:37:36.6	170.800	0.600	-0.680	0.770
2020/01/31 22:37:36.7	170.830	0.570	-0.600	0.750
2020/01/31 22:37:36.8	170.860	0.540	-0.510	0.730
2020/01/31 22:37:36.9	170.890	0.510	-0.420	0.710
2020/01/31 22:37:37.0	170.920	0.470	-0.340	0.700
2020/01/31 22:37:37.1	170.950	0.430	-0.260	0.680
2020/01/31 22:37:37.2	170.980	0.390	-0.170	0.660
2020/01/31 22:37:37.3	171.010	0.340	-0.090	0.640
2020/01/31 22:37:37.4	171.040	0.300	-0.020	0.630
2020/01/31 22:37:37.5	171.070	0.250	0.050	0.610
2020/01/31 22:37:37.6	171.090	0.210	0.110	0.600
2020/01/31 22:37:37.7	171.110	0.170	0.170	0.590
2020/01/31 22:37:37.8	171.130	0.130	0.220	0.580
2020/01/31 22:37:37.9	171.150	0.080	0.260	0.580
2020/01/31 22:37:38.0	171.170	0.050	0.300	0.580
2020/01/31 22:37:38.1	171.180	0.010	0.320	0.590
2020/01/31 22:37:38.2	171.180	-0.020	0.340	0.600
2020/01/31 22:37:38.3	171.190	-0.050	0.340	0.620
2020/01/31 22:37:38.4	171.180	-0.080	0.340	0.640
2020/01/31 22:37:38.5	171.180	-0.100	0.330	0.660
2020/01/31 22:37:38.6	171.170	-0.120	0.310	0.690
2020/01/31 22:37:38.7	171.160	-0.130	0.290	0.730
2020/01/31 22:37:38.8	171.140	-0.140	0.250	0.770
2020/01/31 22:37:38.9	171.120	-0.150	0.210	0.810
2020/01/31 22:37:39.0	171.100	-0.150	0.170	0.860
2020/01/31 22:37:39.1	171.070	-0.150	0.120	0.900
2020/01/31 22:37:39.2	171.050	-0.140	0.070	0.940
2020/01/31 22:37:39.3	171.030	-0.130	0.020	0.980
2020/01/31 22:37:39.4	171.000	-0.120	-0.040	1.020
2020/01/31 22:37:39.5	170.980	-0.110	-0.090	1.060
2020/01/31 22:37:39.6	170.960	-0.090	-0.140	1.100
2020/01/31 22:37:39.7	170.940	-0.070	-0.190	1.130
2020/01/31 22:37:39.8	170.910	-0.050	-0.240	1.160
2020/01/31 22:37:39.9	170.900	-0.030	-0.280	1.180
2020/01/31 22:37:40.0	170.890	-0.010	-0.310	1.200
2020/01/31 22:37:40.1	170.870	0.020	-0.340	1.220
2020/01/31 22:37:40.2	170.860	0.040	-0.370	1.240
2020/01/31 22:37:40.3	170.840	0.060	-0.390	1.260
2020/01/31 22:37:40.4	170.830	0.070	-0.400	1.270
2020/01/31 22:37:40.5	170.820	0.090	-0.410	1.280
2020/01/31 22:37:40.6	170.820	0.100	-0.410	1.290
2020/01/31 22:37:40.7	170.810	0.110	-0.400	1.300
2020/01/31 22:37:40.8	170.800	0.120	-0.390	1.310
2020/01/31 22:37:40.9	170.800	0.120	-0.370	1.320
2020/01/31 22:37:41.0	170.800	0.120	-0.350	1.330
2020/01/31 22:37:41.1	170.800	0.120	-0.330	1.350
2020/01/31 22:37:41.2	170.800	0.120	-0.300	1.360
2020/01/31 22:37:41.3	170.800	0.110	-0.270	1.370
2020/01/31 22:37:41.4	170.790	0.090	-0.230	1.390
2020/01/31 22:37:41.5	170.790	0.080	-0.200	1.400
2020/01/31 22:37:41.6	170.790	0.060	-0.160	1.420
2020/01/31 22:37:41.7	170.780	0.040	-0.120	1.440
2020/01/31 22:37:41.8	170.780	0.010	-0.090	1.460
2020/01/31 22:37:41.9	170.780	-0.010	-0.050	1.480
2020/01/31 22:37:42.0	170.770	-0.040	-0.020	1.510
2020/01/31 22:37:42.1	170.760	-0.070	0.010	1.530
2020/01/31 22:37:42.2	170.760	-0.100	0.040	1.550
2020/01/31 22:37:42.3	170.740	-0.130	0.060	1.570
2020/01/31 22:37:42.4	170.730	-0.150	0.080	1.600
2020/01/31 22:37:42.5	170.720	-0.180	0.090	1.620
2020/01/31 22:37:42.6	170.700	-0.210	0.100	1.640
2020/01/31 22:37:42.7	170.680	-0.240	0.100	1.660
2020/01/31 22:37:42.8	170.660	-0.260	0.100	1.670
2020/01/31 22:37:42.9	170.640	-0.280	0.100	1.690
2020/01/31 22:37:43.0	170.600	-0.300	0.090	1.700
2020/01/31 22:37:43.1	170.570	-0.320	0.070	1.720
2020/01/31 22:37:43.2	170.540	-0.330	0.050	1.730
2020/01/31 22:37:43.3	170.510	-0.340	0.030	1.740
2020/01/31 22:37:43.4	170.470	-0.340	-0.000	1.750
2020/01/31 22:37:43.5	170.430	-0.340	-0.030	1.760
2020/01/31 22:37:43.6	170.390	-0.340	-0.070	1.770
2020/01/31 22:37:43.7	170.350	-0.330	-0.110	1.770
2020/01/31 22:37:43.8	170.310	-0.310	-0.150	1.780
2020/01/31 22:37:43.9	170.260	-0.290	-0.200	1.780
2020/01/31 22:37:44.0	170.210	-0.270	-0.240	1.790
2020/01/31 22:37:44.1	170.160	-0.240	-0.300	1.790
2020/01/31 22:37:44.2	170.100	-0.210	-0.350	1.790
2020/01/31 22:37:44.3	170.050	-0.170	-0.410	1.800
2020/01/31 22:37:44.4	169.990	-0.130	-0.460	1.800
2020/01/31 22:37:44.5	169.930	-0.080	-0.520	1.790
2020/01/31 22:37:44.6	169.870	-0.040	-0.580	1.790
2020/01/31 22:37:44.7	169.800	0.010	-0.640	1.790
2020/01/31 22:37:44.8	169.740	0.070	-0.700	1.790
2020/01/31 22:37:44.9	169.670	0.120	-0.760	1.780
2020/01/31 22:37:45.0	169.610	0.170	-0.820	1.770
2020/01/31 22:37:45.1	169.540	0.230	-0.870	1.760
2020/01/31 22:37:45.2	169.480	0.280	-0.920	1.750
2020/01/31 22:37:45.3	169.410	0.330	-0.970	1.740
2020/01/31 22:37:45.4	169.340	0.380	-1.020	1.730
2020/01/31 22:37:45.5	169.280	0.430	-1.050	1.710
2020/01/31 22:37:45.6	169.210	0.470	-1.090	1.690
2020/01/31 22:37:45.7	169.150	0.500	-1.110	1.670
2020/01/31 22:37:45.8	169.090	0.540	-1.130	1.660
2020/01/31 22:37:45.9	169.030	0.560	-1.140	1.630
2020/01/31 22:37:46.0	168.970	0.580	-1.150	1.610
2020/01/31 22:37:46.1	168.920	0.600	-1.140	1.590
2020/01/31 22:37:46.2	168.870	0.600	-1.130	1.570
2020/01/31 22:37:46.3	168.820	0.600	-1.100	1.550
2020/01/31 22:37:46.4	168.780	0.590	-1.070	1.530
2020/01/31 22:37:46.5	168.750	0.570	-1.030	1.510
2020/01/31 22:37:46.6	168.710	0.550	-0.980	1.490
2020/01/31 22:37:46.7	168.680	0.520	-0.930	1.470
2020/01/31 22:37:46.8	168.660	0.480	-0.860	1.450
2020/01/31 22:37:46.9	168.640	0.430	-0.790	1.430
2020/01/31 22:37:47.0	168.610	0.380	-0.720	1.410
2020/01/31 22:37:47.1	168.600	0.320	-0.640	1.390
2020/01/31 22:37:47.2	168.590	0.250	-0.550	1.380
2020/01/31 22:37:47.3	168.580	0.180	-0.460	1.360
2020/01/31 22:37:47.4	168.580	0.100	-0.360	1.350
2020/01/31 22:37:47.5	168.570	0.020	-0.260	1.330
2020/01/31 22:37:47.6	168.570	-0.060	-0.170	1.320
2020/01/31 22:37:47.7	168.580	-0.140	-0.070	1.310
2020/01/31 22:37:47.8	168.580	-0.230	0.030	1.300
2020/01/31 22:37:47.9	168.590	-0.320	0.120	1.290
2020/01/31 22:37:48.0	168.590	-0.410	0.210	1.280
2020/01/31 22:37:48.1	168.600	-0.500	0.300	1.270
2020/01/31 22:37:48.2	168.600	-0.580	0.380	1.260
2020/01/31 22:37:48.3	168.610	-0.670	0.450	1.250
2020/01/31 22:37:48.4	168.620	-0.750	0.520	1.240
2020/01/31 22:37:48.5	168.630	-0.820	0.580	1.240
2020/01/31 22:37:48.6	168.640	-0.900	0.620	1.230
2020/01/31 22:37:48.7	168.640	-0.960	0.660	1.230
2020/01/31 22:37:48.8	168.650	-1.020	0.690	1.220
2020/01/31 22:37:48.9	168.660	-1.080	0.710	1.220
2020/01/31 22:37:49.0	168.670	-1.120	0.730	1.220
2020/01/31 22:37:49.1	168.680	-1.160	0.730	1.220
2020/01/31 22:37:49.2	168.680	-1.200	0.720	1.220
2020/01/31 22:37:49.3	168.680	-1.220	0.690	1.220
2020/01/31 22:37:49.4	168.670	-1.240	0.660	1.220
2020/01/31 22:37:49.5	168.670	-1.250	0.620	1.230
2020/01/31 22:37:49.6	168.660	-1.250	0.570	1.240
2020/01/31 22:37:49.7	168.650	-1.240	0.510	1.250
2020/01/31 22:37:49.8	168.630	-1.220	0.450	1.270
2020/01/31 22:37:49.9	168.610	-1.200	0.380	1.290
2020/01/31 22:37:50.0	168.600	-1.170	0.300	1.320
2020/01/31 22:37:50.1	168.570	-1.130	0.220	1.350
2020/01/31 22:37:50.2	168.540	-1.080	0.130	1.380
2020/01/31 22:37:50.3	168.510	-1.030	0.040	1.410
2020/01/31 22:37:50.4	168.470	-0.970	-0.050	1.450
2020/01/31 22:37:50.5	168.430	-0.910	-0.140	1.490
2020/01/31 22:37:50.6	168.390	-0.840	-0.230	1.530
2020/01/31 22:37:50.7	168.350	-0.760	-0.320	1.570
2020/01/31 22:37:50.8	168.300	-0.680	-0.410	1.610
2020/01/31 22:37:50.9	168.260	-0.600	-0.490	1.650
2020/01/31 22:37:51.0	168.210	-0.520	-0.560	1.690
2020/01/31 22:37:51.1	168.160	-0.430	-0.630	1.720
2020/01/31 22:37:51.2	168.110	-0.340	-0.690	1.750
2020/01/31 22:37:51.3	168.070	-0.250	-0.740	1.770
2020/01/31 22:37:51.4	168.020	-0.160	-0.780	1.790
2020/01/31 22:37:51.5	167.970	-0.070	-0.820	1.800
2020/01/31 22:37:51.6	167.930	0.010	-0.840	1.810
2020/01/31 22:37:51.7	167.880	0.100	-0.850	1.810
2020/01/31 22:37:51.8	167.840	0.180	-0.850	1.800
2020/01/31 22:37:51.9	167.790	0.260	-0.840	1.790
2020/01/31 22:37:52.0	167.750	0.340	-0.820	1.780
2020/01/31 22:37:52.1	167.710	0.410	-0.790	1.750
2020/01/31 22:37:52.2	167.670	0.480	-0.750	1.720
2020/01/31 22:37:52.3	167.630	0.550	-0.700	1.690
2020/01/31 22:37:52.4	167.590	0.610	-0.650	1.660
2020/01/31 22:37:52.5	167.550	0.660	-0.580	1.620
2020/01/31 22:37:52.6	167.520	0.710	-0.510	1.570
2020/01/31 22:37:52.7	167.480	0.760	-0.430	1.530
2020/01/31 22:37:52.8	167.450	0.790	-0.350	1.480
2020/01/31 22:37:52.9	167.410	0.830	-0.260	1.430
2020/01/31 22:37:53.0	167.380	0.850	-0.170	1.370
2020/01/31 22:37:53.1	167.350	0.870	-0.090	1.320
2020/01/31 22:37:53.2	167.320	0.890	0.000	1.270
2020/01/31 22:37:53.3	167.290	0.900	0.090	1.220
2020/01/31 22:37:53.4	167.260	0.900	0.170	1.160
2020/01/31 22:37:53.5	167.230	0.900	0.250	1.120
2020/01/31 22:37:53.6	167.200	0.890	0.330	1.070
2020/01/31 22:37:53.7	167.170	0.880	0.400	1.030
2020/01/31 22:37:53.8	167.140	0.860	0.470	0.990
2020/01/31 22:37:53.9	167.110	0.840	0.520	0.950
2020/01/31 22:37:54.0	167.100	0.810	0.570	0.930
2020/01/31 22:37:54.1	167.070	0.780	0.610	0.900
2020/01/31 22:37:54.2	167.040	0.750	0.640	0.880
2020/01/31 22:37:54.3	167.010	0.720	0.670	0.860
2020/01/31 22:37:54.4	166.980	0.680	0.680	0.850
2020/01/31 22:37:54.5	166.950	0.640	0.690	0.850
2020/01/31 22:37:54.6	166.920	0.600	0.690	0.850
2020/01/31 22:37:54.7	166.890	0.550	0.670	0.860
2020/01/31 22:37:54.8	166.860	0.510	0.650	0.870
2020/01/31 22:37:54.9	166.820	0.470	0.620	0.890
2020/01/31 22:37:55.0	166.790	0.420	0.590	0.920
2020/01/31 22:37:55.1	166.760	0.370	0.540	0.950
2020/01/31 22:37:55.2	166.720	0.330	0.490	0.980
2020/01/31 22:37:55.3	166.690	0.280	0.440	1.020
2020/01/31 22:37:55.4	166.650	0.240	0.380	1.060
2020/01/31 22:37:55.5	166.610	0.200	0.310	1.110
2020/01/31 22:37:55.6	166.580	0.160	0.240	1.160
2020/01/31 22:37:55.7	166.540	0.120	0.170	1.210
2020/01/31 22:37:55.8	166.500	0.080	0.100	1.260
2020/01/31 22:37:55.9	166.460	0.040	0.020	1.320
2020/01/31 22:37:56.0	166.430	0.010	-0.050	1.380
2020/01/31 22:37:56.1	166.380	-0.030	-0.130	1.440
2020/01/31 22:37:56.2	166.340	-0.060	-0.210	1.510
2020/01/31 22:37:56.3	166.290	-0.080	-0.280	1.570
2020/01/31 22:37:56.4	166.240	-0.110	-0.360	1.640
2020/01/31 22:37:56.5	166.190	-0.130	-0.430	1.700
2020/01/31 22:37:56.6	166.140	-0.150	-0.500	1.770
2020/01/31 22:37:56.7	166.080	-0.160	-0.570	1.840
2020/01/31 22:37:56.8	166.030	-0.180	-0.640	1.910
2020/01/31 22:37:56.9	165.970	-0.190	-0.700	1.970
2020/01/31 22:37:57.0	165.890	-0.190	-0.760	2.040
2020/01/31 22:37:57.1	165.830	-0.200	-0.820	2.110
2020/01/31 22:37:57.2	165.760	-0.200	-0.870	2.180
2020/01/31 22:37:57.3	165.690	-0.190	-0.920	2.240
2020/01/31 22:37:57.4	165.620	-0.190	-0.970	2.300
2020/01/31 22:37:57.5	165.550	-0.180	-1.020	2.360
2020/01/31 22:37:57.6	165.470	-0.170	-1.060	2.420
2020/01/31 22:37:57.7	165.400	-0.150	-1.100	2.480
2020/01/31 22:37:57.8	165.320	-0.130	-1.130	2.530
2020/01/31 22:37:57.9	165.250	-0.110	-1.170	2.580
2020/01/31 22:37:58.0	165.180	-0.090	-1.190	2.630
2020/01/31 22:37:58.1	165.100	-0.070	-1.210	2.670
2020/01/31 22:37:58.2	165.020	-0.040	-1.230	2.700
2020/01/31 22:37:58.3	164.950	-0.010	-1.250	2.740
2020/01/31 22:37:58.4	164.870	0.010	-1.260	2.760
2020/01/31 22:37:58.5	164.800	0.040	-1.260	2.780
2020/01/31 22:37:58.6	164.730	0.070	-1.270	2.800
2020/01/31 22:37:58.7	164.650	0.100	-1.270	2.810
2020/01/31 22:37:58.8	164.580	0.130	-1.260	2.820
2020/01/31 22:37:58.9	164.510	0.150	-1.250	2.820
2020/01/31 22:37:59.0	164.460	0.180	-1.240	2.830
2020/01/31 22:37:59.1	164.390	0.200	-1.220	2.820
2020/01/31 22:37:59.2	164.330	0.220	-1.190	2.820
2020/01/31 22:37:59.3	164.270	0.240	-1.170	2.810
2020/01/31 22:37:59.4	164.200	0.260	-1.130	2.790
2020/01/31 22:37:59.5	164.140	0.270	-1.100	2.780
2020/01/31 22:37:59.6	164.090	0.280	-1.060	2.760
2020/01/31 22:37:59.7	164.030	0.290	-1.010	2.740
2020/01/31 22:37:59.8	163.980	0.290	-0.960	2.720
2020/01/31 22:37:59.9	163.920	0.290	-0.910	2.690
2020/01/31 22:38:00.0	163.870	0.290	-0.850	2.650
2020/01/31 22:38:00.1	163.830	0.280	-0.790	2.630
2020/01/31 22:38:00.2	163.780	0.270	-0.730	2.590
2020/01/31 22:38:00.3	163.740	0.250	-0.660	2.560
2020/01/31 22:38:00.4	163.700	0.230	-0.590	2.520
2020/01/31 22:38:00.5	163.660	0.200	-0.510	2.490
2020/01/31 22:38:00.6	163.630	0.170	-0.440	2.450
2020/01/31 22:38:00.7	163.590	0.140	-0.360	2.410
2020/01/31 22:38:00.8	163.560	0.110	-0.280	2.370
2020/01/31 22:38:00.9	163.540	0.070	-0.200	2.320
2020/01/31 22:38:01.0	163.520	0.030	-0.120	2.280
2020/01/31 22:38:01.1	163.500	-0.020	-0.040	2.240
2020/01/31 22:38:01.2	163.480	-0.060	0.040	2.190
2020/01/31 22:38:01.3	163.460	-0.110	0.120	2.150
2020/01/31 22:38:01.4	163.450	-0.160	0.200	2.110
2020/01/31 22:38:01.5	163.430	-0.210	0.280	2.060
2020/01/31 22:38:01.6	163.420	-0.260	0.350	2.020
2020/01/31 22:38:01.7	163.400	-0.310	0.420	1.980
2020/01/31 22:38:01.8	163.390	-0.360	0.490	1.940
2020/01/31 22:38:01.9	163.380	-0.410	0.540	1.910
2020/01/31 22:38:02.0	163.380	-0.450	0.600	1.870
2020/01/31 22:38:02.1	163.360	-0.500	0.650	1.830
2020/01/31 22:38:02.2	163.350	-0.540	0.680	1.800
2020/01/31 22:38:02.3	163.340	-0.570	0.720	1.770
2020/01/31 22:38:02.4	163.320	-0.610	0.740	1.740
2020/01/31 22:38:02.5	163.310	-0.640	0.760	1.720
2020/01/31 22:38:02.6	163.290	-0.660	0.770	1.700
2020/01/31 22:38:02.7	163.280	-0.680	0.760	1.680
2020/01/31 22:38:02.8	163.260	-0.700	0.750	1.660
2020/01/31 22:38:02.9	163.240	-0.710	0.740	1.640
2020/01/31 22:38:03.0	163.210	-0.710	0.710	1.620
2020/01/31 22:38:03.1	163.200	-0.710	0.680	1.610
2020/01/31 22:38:03.2	163.180	-0.700	0.640	1.600
2020/01/31 22:38:03.3	163.160	-0.690	0.590	1.590
2020/01/31 22:38:03.4	163.140	-0.680	0.530	1.580
2020/01/31 22:38:03.5	163.120	-0.650	0.480	1.580
2020/01/31 22:38:03.6	163.100	-0.630	0.410	1.570
2020/01/31 22:38:03.7	163.080	-0.600	0.340	1.570
2020/01/31 22:38:03.8	163.060	-0.560	0.280	1.570
2020/01/31 22:38:03.9	163.040	-0.530	0.200	1.560
2020/01/31 22:38:04.0	163.020	-0.480	0.130	1.560
2020/01/31 22:38:04.1	163.000	-0.440	0.060	1.560
2020/01/31 22:38:04.2	162.980	-0.390	-0.010	1.560
2020/01/31 22:38:04.3	162.970	-0.350	-0.080	1.560
2020/01/31 22:38:04.4	162.950	-0.300	-0.150	1.560
2020/01/31 22:38:04.5	162.930	-0.250	-0.210	1.560
2020/01/31 22:38:04.6	162.920	-0.200	-0.270	1.560
2020/01/31 22:38:04.7	162.900	-0.150	-0.320	1.560
2020/01/31 22:38:04.8	162.890	-0.100	-0.370	1.560
2020/01/31 22:38:04.9	162.870	-0.050	-0.420	1.560
2020/01/31 22:38:05.0	162.860	-0.000	-0.460	1.560
2020/01/31 22:38:05.1	162.840	0.050	-0.490	1.560
2020/01/31 22:38:05.2	162.820	0.090	-0.520	1.560
2020/01/31 22:38:05.3	162.800	0.130	-0.550	1.550
2020/01/31 22:38:05.4	162.780	0.170	-0.570	1.550
2020/01/31 22:38:05.5	162.760	0.210	-0.580	1.550
2020/01/31 22:38:05.6	162.730	0.250	-0.590	1.540
2020/01/31 22:38:05.7	162.710	0.280	-0.600	1.540
2020/01/31 22:38:05.8	162.680	0.310	-0.600	1.540
2020/01/31 22:38:05.9	162.650	0.340	-0.600	1.540
2020/01/31 22:38:06.0	162.610	0.360	-0.600	1.540
2020/01/31 22:38:06.1	162.570	0.380	-0.600	1.540
2020/01/31 22:38:06.2	162.530	0.400	-0.590	1.540
2020/01/31 22:38:06.3	162.480	0.420	-0.590	1.550
2020/01/31 22:38:06.4	162.430	0.440	-0.580	1.560
2020/01/31 22:38:06.5	162.380	0.450	-0.580	1.560
2020/01/31 22:38:06.6	162.330	0.460	-0.570	1.570
2020/01/31 22:38:06.7	162.270	0.470	-0.570	1.580
2020/01/31 22:38:06.8	162.220	0.470	-0.560	1.590
2020/01/31 22:38:06.9	162.160	0.480	-0.550	1.600
2020/01/31 22:38:07.0	162.100	0.480	-0.540	1.620
2020/01/31 22:38:07.1	162.040	0.470	-0.530	1.630
2020/01/31 22:38:07.2	161.980	0.470	-0.520	1.640
2020/01/31 22:38:07.3	161.920	0.460	-0.500	1.650
2020/01/31 22:38:07.4	161.870	0.440	-0.480	1.670
2020/01/31 22:38:07.5	161.810	0.430	-0.460	1.680
2020/01/31 22:38:07.6	161.750	0.410	-0.440	1.690
2020/01/31 22:38:07.7	161.700	0.390	-0.410	1.710
2020/01/31 22:38:07.8	161.640	0.360	-0.380	1.730
2020/01/31 22:38:07.9	161.590	0.330	-0.350	1.740
2020/01/31 22:38:08.0	161.540	0.300	-0.320	1.770
2020/01/31 22:38:08.1	161.490	0.270	-0.280	1.790
2020/01/31 22:38:08.2	161.440	0.240	-0.240	1.810
2020/01/31 22:38:08.3	161.400	0.200	-0.200	1.830
2020/01/31 22:38:08.4	161.350	0.160	-0.160	1.860
2020/01/31 22:38:08.5	161.310	0.120	-0.120	1.880
2020/01/31 22:38:08.6	161.270	0.080	-0.070	1.910
2020/01/31 22:38:08.7	161.230	0.040	-0.030	1.940
2020/01/31 22:38:08.8	161.190	0.000	0.010	1.960
2020/01/31 22:38:08.9	161.150	-0.040	0.050	1.990
2020/01/31 22:38:09.0	161.110	-0.070	0.100	2.020
2020/01/31 22:38:09.1	161.070	-0.110	0.130	2.040
2020/01/31 22:38:09.2	161.040	-0.150	0.170	2.070
2020/01/31 22:38:09.3	161.010	-0.180	0.200	2.090
2020/01/31 22:38:09.4	160.970	-0.210	0.230	2.110
2020/01/31 22:38:09.5	160.940	-0.240	0.250	2.130
2020/01/31 22:38:09.6	160.910	-0.260	0.270	2.150
2020/01/31 22:38:09.7	160.870	-0.290	0.280	2.170
2020/01/31 22:38:09.8	160.840	-0.300	0.290	2.180
2020/01/31 22:38:09.9	160.800	-0.310	0.290	2.190
2020/01/31 22:38:10.0	160.760	-0.320	0.280	2.200
2020/01/31 22:38:10.1	160.720	-0.320	0.270	2.210
2020/01/31 22:38:10.2	160.690	-0.320	0.250	2.220
2020/01/31 22:38:10.3	160.640	-0.310	0.220	2.220
2020/01/31 22:38:10.4	160.600	-0.300	0.190	2.220
2020/01/31 22:38:10.5	160.560	-0.280	0.150	2.220
2020/01/31 22:38:10.6	160.520	-0.260	0.100	2.220
2020/01/31 22:38:10.7	160.470	-0.230	0.050	2.210
2020/01/31 22:38:10.8	160.420	-0.190	-0.010	2.210
2020/01/31 22:38:10.9	160.370	-0.160	-0.070	2.200
2020/01/31 22:38:11.0	160.320	-0.120	-0.130	2.190
2020/01/31 22:38:11.1	160.270	-0.070	-0.200	2.170
2020/01/31 22:38:11.2	160.220	-0.020	-0.270	2.160
2020/01/31 22:38:11.3	160.160	0.030	-0.340	2.150
2020/01/31 22:38:11.4	160.110	0.080	-0.420	2.130
2020/01/31 22:38:11.5	160.050	0.130	-0.490	2.120
2020/01/31 22:38:11.6	159.990	0.180	-0.560	2.110
2020/01/31 22:38:11.7	159.930	0.240	-0.630	2.090
2020/01/31 22:38:11.8	159.880	0.290	-0.690	2.080
2020/01/31 22:38:11.9	159.820	0.340	-0.750	2.060
2020/01/31 22:38:12.0	159.750	0.390	-0.800	2.050
2020/01/31 22:38:12.1	159.700	0.440	-0.850	2.030
2020/01/31 22:38:12.2	159.640	0.480	-0.880	2.020
2020/01/31 22:38:12.3	159.590	0.520	-0.910	2.000
2020/01/31 22:38:12.4	159.530	0.550	-0.930	1.980
2020/01/31 22:38:12.5	159.480	0.580	-0.940	1.960
2020/01/31 22:38:12.6	159.440	0.600	-0.940	1.940
2020/01/31 22:38:12.7	159.390	0.620	-0.930	1.920
2020/01/31 22:38:12.8	159.350	0.630	-0.910	1.900
2020/01/31 22:38:12.9	159.320	0.640	-0.870	1.870
2020/01/31 22:38:13.0	159.290	0.630	-0.820	1.850
2020/01/31 22:38:13.1	159.260	0.620	-0.770	1.820
2020/01/31 22:38:13.2	159.230	0.610	-0.700	1.790
2020/01/31 22:38:13.3	159.210	0.590	-0.630	1.760
2020/01/31 22:38:13.4	159.190	0.560	-0.540	1.730
2020/01/31 22:38:13.5	159.170	0.520	-0.450	1.700
2020/01/31 22:38:13.6	159.160	0.480	-0.350	1.660
2020/01/31 22:38:13.7	159.150	0.430	-0.250	1.630
2020/01/31 22:38:13.8	159.140	0.380	-0.140	1.600
2020/01/31 22:38:13.9	159.140	0.320	-0.030	1.570
2020/01/31 22:38:14.0	159.130	0.260	0.070	1.540
2020/01/31 22:38:14.1	159.130	0.190	0.180	1.510
2020/01/31 22:38:14.2	159.130	0.130	0.300	1.480
2020/01/31 22:38:14.3	159.140	0.060	0.400	1.450
2020/01/31 22:38:14.4	159.140	-0.020	0.500	1.420
2020/01/31 22:38:14.5	159.150	-0.090	0.600	1.400
2020/01/31 22:38:14.6	159.150	-0.160	0.690	1.380
2020/01/31 22:38:14.7	159.150	-0.230	0.760	1.360
2020/01/31 22:38:14.8	159.160	-0.300	0.830	1.340
2020/01/31 22:38:14.9	159.150	-0.370	0.890	1.330
2020/01/31 22:38:15.0	159.140	-0.430	0.940	1.320
2020/01/31 22:38:15.1	159.140	-0.490	0.970	1.310
2020/01/31 22:38:15.2	159.120	-0.540	0.980	1.310
2020/01/31 22:38:15.3	159.110	-0.590	0.980	1.310
2020/01/31 22:38:15.4	159.090	-0.630	0.960	1.320
2020/01/31 22:38:15.5	159.060	-0.660	0.930	1.320
2020/01/31 22:38:15.6	159.030	-0.690	0.880	1.340
2020/01/31 22:38:15.7	158.990	-0.710	0.820	1.350
2020/01/31 22:38:15.8	158.950	-0.710	0.740	1.370
2020/01/31 22:38:15.9	158.900	-0.710	0.640	1.400
2020/01/31 22:38:16.0	158.860	-0.700	0.530	1.430
2020/01/31 22:38:16.1	158.800	-0.680	0.410	1.460
2020/01/31 22:38:16.2	158.740	-0.660	0.280	1.490
2020/01/31 22:38:16.3	158.670	-0.620	0.130	1.530
2020/01/31 22:38:16.4	158.600	-0.580	-0.030	1.570
2020/01/31 22:38:16.5	158.520	-0.530	-0.190	1.610
2020/01/31 22:38:16.6	158.440	-0.470	-0.360	1.660
2020/01/31 22:38:16.7	158.360	-0.400	-0.540	1.710
2020/01/31 22:38:16.8	158.270	-0.330	-0.710	1.760
2020/01/31 22:38:16.9	158.180	-0.260	-0.890	1.810
2020/01/31 22:38:17.0	158.090	-0.180	-1.060	1.860
2020/01/31 22:38:17.1	158.000	-0.100	-1.230	1.920
2020/01/31 22:38:17.2	157.910	-0.020	-1.390	1.970
2020/01/31 22:38:17.3	157.810	0.070	-1.540	2.020
2020/01/31 22:38:17.4	157.720	0.150	-1.680	2.070
2020/01/31 22:38:17.5	157.630	0.230	-1.810	2.120
2020/01/31 22:38:17.6	157.540	0.310	-1.920	2.160
2020/01/31 22:38:17.7	157.450	0.390	-2.020	2.200
2020/01/31 22:38:17.8	157.370	0.460	-2.090	2.240
2020/01/31 22:38:17.9	157.290	0.520	-2.140	2.270
2020/01/31 22:38:18.0	157.230	0.580	-2.180	2.300
2020/01/31 22:38:18.1	157.160	0.630	-2.190	2.330
2020/01/31 22:38:18.2	157.090	0.680	-2.170	2.350
2020/01/31 22:38:18.3	157.020	0.710	-2.140	2.360
2020/01/31 22:38:18.4	156.960	0.740	-2.080	2.370
2020/01/31 22:38:18.5	156.900	0.760	-2.010	2.370
2020/01/31 22:38:18.6	156.850	0.770	-1.910	2.370
2020/01/31 22:38:18.7	156.800	0.770	-1.800	2.370
2020/01/31 22:38:18.8	156.750	0.760	-1.660	2.360
2020/01/31 22:38:18.9	156.710	0.740	-1.510	2.350
2020/01/31 22:38:19.0	156.670	0.710	-1.350	2.330
2020/01/31 22:38:19.1	156.630	0.670	-1.170	2.310
2020/01/31 22:38:19.2	156.600	0.630	-0.990	2.290
2020/01/31 22:38:19.3	156.570	0.570	-0.800	2.270
2020/01/31 22:38:19.4	156.540	0.510	-0.600	2.240
2020/01/31 22:38:19.5	156.510	0.450	-0.400	2.220
2020/01/31 22:38:19.6	156.490	0.380	-0.200	2.190
2020/01/31 22:38:19.7	156.460	0.300	0.010	2.160
2020/01/31 22:38:19.8	156.440	0.220	0.200	2.130
2020/01/31 22:38:19.9	156.420	0.130	0.390	2.100
2020/01/31 22:38:20.0	156.390	0.050	0.580	2.070
2020/01/31 22:38:20.1	156.370	-0.040	0.750	2.040
2020/01/31 22:38:20.2	156.350	-0.130	0.910	2.010
2020/01/31 22:38:20.3	156.320	-0.210	1.060	1.980
2020/01/31 22:38:20.4	156.300	-0.300	1.190	1.950
2020/01/31 22:38:20.5	156.280	-0.380	1.310	1.920
2020/01/31 22:38:20.6	156.250	-0.450	1.410	1.900
2020/01/31 22:38:20.7	156.230	-0.530	1.490	1.870
2020/01/31 22:38:20.8	156.200	-0.590	1.550	1.840
2020/01/31 22:38:20.9	156.170	-0.650	1.590	1.820
2020/01/31 22:38:21.0	156.140	-0.710	1.610	1.800
2020/01/31 22:38:21.1	156.100	-0.760	1.610	1.780
2020/01/31 22:38:21.2	156.070	-0.790	1.590	1.760
2020/01/31 22:38:21.3	156.040	-0.830	1.560	1.740
2020/01/31 22:38:21.4	156.000	-0.850	1.500	1.720
2020/01/31 22:38:21.5	155.970	-0.870	1.430	1.710
2020/01/31 22:38:21.6	155.930	-0.870	1.350	1.700
2020/01/31 22:38:21.7	155.890	-0.870	1.250	1.690
2020/01/31 22:38:21.8	155.850	-0.870	1.140	1.680
2020/01/31 22:38:21.9	155.810	-0.850	1.020	1.680
2020/01/31 22:38:22.0	155.780	-0.830	0.890	1.670
2020/01/31 22:38:22.1	155.730	-0.810	0.760	1.680
2020/01/31 22:38:22.2	155.690	-0.780	0.620	1.680
2020/01/31 22:38:22.3	155.650	-0.740	0.480	1.690
2020/01/31 22:38:22.4	155.610	-0.700	0.340	1.700
2020/01/31 22:38:22.5	155.570	-0.660	0.190	1.710
2020/01/31 22:38:22.6	155.530	-0.610	0.050	1.730
2020/01/31 22:38:22.7	155.480	-0.560	-0.080	1.750
2020/01/31 22:38:22.8	155.440	-0.510	-0.220	1.770
2020/01/31 22:38:22.9	155.400	-0.460	-0.340	1.800
2020/01/31 22:38:23.0	155.350	-0.410	-0.460	1.830
2020/01/31 22:38:23.1	155.310	-0.350	-0.580	1.860
2020/01/31 22:38:23.2	155.270	-0.300	-0.680	1.890
2020/01/31 22:38:23.3	155.220	-0.240	-0.780	1.920
2020/01/31 22:38:23.4	155.180	-0.190	-0.860	1.960
2020/01/31 22:38:23.5	155.140	-0.140	-0.940	1.990
2020/01/31 22:38:23.6	155.090	-0.090	-1.010	2.020
2020/01/31 22:38:23.7	155.050	-0.040	-1.060	2.060
2020/01/31 22:38:23.8	155.000	0.000	-1.100	2.090
2020/01/31 22:38:23.9	154.950	0.040	-1.140	2.110
2020/01/31 22:38:24.0	154.910	0.080	-1.160	2.140
2020/01/31 22:38:24.1	154.860	0.120	-1.170	2.170
2020/01/31 22:38:24.2	154.810	0.150	-1.180	2.190
2020/01/31 22:38:24.3	154.760	0.180	-1.170	2.210
2020/01/31 22:38:24.4	154.710	0.210	-1.160	2.220
2020/01/31 22:38:24.5	154.650	0.240	-1.140	2.240
2020/01/31 22:38:24.6	154.600	0.260	-1.110	2.250
2020/01/31 22:38:24.7	154.540	0.280	-1.070	2.260
2020/01/31 22:38:24.8	154.480	0.300	-1.030	2.260
2020/01/31 22:38:24.9	154.420	0.320	-0.980	2.270
2020/01/31 22:38:25.0	154.360	0.330	-0.930	2.280
2020/01/31 22:38:25.1	154.300	0.340	-0.880	2.280
2020/01/31 22:38:25.2	154.230	0.350	-0.820	2.280
2020/01/31 22:38:25.3	154.170	0.360	-0.750	2.270
2020/01/31 22:38:25.4	154.110	0.370	-0.690	2.270
2020/01/31 22:38:25.5	154.040	0.380	-0.620	2.270
2020/01/31 22:38:25.6	153.980	0.380	-0.550	2.260
2020/01/31 22:38:25.7	153.910	0.390	-0.490	2.250
2020/01/31 22:38:25.8	153.850	0.390	-0.420	2.240
2020/01/31 22:38:25.9	153.780	0.390	-0.360	2.230
2020/01/31 22:38:26.0	153.720	0.400	-0.290	2.220
2020/01/31 22:38:26.1	153.660	0.400	-0.230	2.210
2020/01/31 22:38:26.2	153.600	0.400	-0.170	2.200
2020/01/31 22:38:26.3	153.540	0.400	-0.120	2.190
2020/01/31 22:38:26.4	153.480	0.400	-0.070	2.170
2020/01/31 22:38:26.5	153.420	0.400	-0.020	2.160
2020/01/31 22:38:26.6	153.360	0.400	0.020	2.140
2020/01/31 22:38:26.7	153.310	0.400	0.060	2.120
2020/01/31 22:38:26.8	153.250	0.400	0.100	2.100
2020/01/31 22:38:26.9	153.200	0.400	0.130	2.080
2020/01/31 22:38:27.0	153.160	0.400	0.150	2.060
2020/01/31 22:38:27.1	153.110	0.400	0.170	2.030
2020/01/31 22:38:27.2	153.060	0.400	0.190	2.000
2020/01/31 22:38:27.3	153.010	0.390	0.210	1.970
2020/01/31 22:38:27.4	152.970	0.390	0.220	1.940
2020/01/31 22:38:27.5	152.930	0.380	0.230	1.900
2020/01/31 22:38:27.6	152.900	0.370	0.240	1.860
2020/01/31 22:38:27.7	152.870	0.360	0.240	1.820
2020/01/31 22:38:27.8	152.840	0.350	0.250	1.780
2020/01/31 22:38:27.9	152.820	0.330	0.250	1.740
2020/01/31 22:38:28.0	152.800	0.310	0.260	1.700
2020/01/31 22:38:28.1	152.790	0.300	0.260	1.660
2020/01/31 22:38:28.2	152.770	0.280	0.260	1.620
2020/01/31 22:38:28.3	152.760	0.250	0.270	1.580
2020/01/31 22:38:28.4	152.760	0.230	0.270	1.540
2020/01/31 22:38:28.5	152.750	0.200	0.270	1.510
2020/01/31 22:38:28.6	152.750	0.170	0.270	1.480
2020/01/31 22:38:28.7	152.750	0.140	0.270	1.450
2020/01/31 22:38:28.8	152.750	0.110	0.270	1.430
2020/01/31 22:38:28.9	152.750	0.080	0.260	1.410
2020/01/31 22:38:29.0	152.760	0.050	0.260	1.400
2020/01/31 22:38:29.1	152.770	0.010	0.260	1.390
2020/01/31 22:38:29.2	152.770	-0.020	0.250	1.380
2020/01/31 22:38:29.3	152.780	-0.060	0.250	1.380
2020/01/31 22:38:29.4	152.780	-0.090	0.240	1.390
2020/01/31 22:38:29.5	152.780	-0.120	0.230	1.390
2020/01/31 22:38:29.6	152.780	-0.150	0.220	1.410
2020/01/31 22:38:29.7	152.780	-0.180	0.200	1.430
2020/01/31 22:38:29.8	152.770	-0.210	0.190	1.450
2020/01/31 22:38:29.9	152.760	-0.240	0.160	1.470
2020/01/31 22:38:30.0	152.760	-0.260	0.140	1.510
2020/01/31 22:38:30.1	152.750	-0.280	0.110	1.540
2020/01/31 22:38:30.2	152.730	-0.300	0.080	1.580
2020/01/31 22:38:30.3	152.700	-0.310	0.040	1.610
2020/01/31 22:38:30.4	152.670	-0.320	-0.000	1.660
2020/01/31 22:38:30.5	152.640	-0.320	-0.050	1.700
2020/01/31 22:38:30.6	152.590	-0.320	-0.110	1.740
2020/01/31 22:38:30.7	152.550	-0.310	-0.160	1.790
2020/01/31 22:38:30.8	152.500	-0.300	-0.230	1.840
2020/01/31 22:38:30.9	152.440	-0.290	-0.290	1.890
2020/01/31 22:38:31.0	152.400	-0.260	-0.360	1.940
2020/01/31 22:38:31.1	152.330	-0.240	-0.440	2.000
2020/01/31 22:38:31.2	152.260	-0.210	-0.510	2.050
2020/01/31 22:38:31.3	152.190	-0.170	-0.590	2.100
2020/01/31 22:38:31.4	152.110	-0.130	-0.670	2.150
2020/01/31 22:38:31.5	152.030	-0.080	-0.750	2.200
2020/01/31 22:38:31.6	151.950	-0.040	-0.830	2.250
2020/01/31 22:38:31.7	151.870	0.010	-0.910	2.300
2020/01/31 22:38:31.8	151.780	0.070	-0.990	2.350
2020/01/31 22:38:31.9	151.690	0.120	-1.060	2.400
2020/01/31 22:38:32.0	151.590	0.180	-1.130	2.440
2020/01/31 22:38:32.1	151.510	0.230	-1.190	2.490
2020/01/31 22:38:32.2	151.420	0.290	-1.240	2.530
2020/01/31 22:38:32.3	151.340	0.340	-1.290	2.560
2020/01/31 22:38:32.4	151.250	0.390	-1.330	2.600
2020/01/31 22:38:32.5	151.180	0.440	-1.360	2.630
2020/01/31 22:38:32.6	151.100	0.480	-1.380	2.650
2020/01/31 22:38:32.7	151.030	0.520	-1.390	2.670
2020/01/31 22:38:32.8	150.960	0.560	-1.380	2.690
2020/01/31 22:38:32.9	150.890	0.590	-1.370	2.700
2020/01/31 22:38:33.0	150.830	0.620	-1.340	2.710
2020/01/31 22:38:33.1	150.780	0.630	-1.300	2.710
2020/01/31 22:38:33.2	150.720	0.650	-1.250	2.700
2020/01/31 22:38:33.3	150.680	0.650	-1.190	2.690
2020/01/31 22:38:33.4	150.630	0.650	-1.120	2.680
2020/01/31 22:38:33.5	150.600	0.640	-1.040	2.660
2020/01/31 22:38:33.6	150.560	0.620	-0.950	2.630
2020/01/31 22:38:33.7	150.530	0.600	-0.850	2.600
2020/01/31 22:38:33.8	150.510	0.570	-0.750	2.570
2020/01/31 22:38:33.9	150.490	0.530	-0.630	2.540
2020/01/31 22:38:34.0	150.490	0.490	-0.520	2.500
2020/01/31 22:38:34.1	150.470	0.440	-0.400	2.460
2020/01/31 22:38:34.2	150.460	0.380	-0.270	2.420
2020/01/31 22:38:34.3	150.440	0.320	-0.140	2.380
2020/01/31 22:38:34.4	150.430	0.250	-0.010	2.340
2020/01/31 22:38:34.5	150.420	0.180	0.120	2.290
2020/01/31 22:38:34.6	150.410	0.110	0.250	2.250
2020/01/31 22:38:34.7	150.410	0.030	0.370	2.210
2020/01/31 22:38:34.8	150.400	-0.050	0.490	2.170
2020/01/31 22:38:34.9	150.390	-0.120	0.610	2.130
2020/01/31 22:38:35.0	150.380	-0.200	0.710	2.100
2020/01/31 22:38:35.1	150.370	-0.280	0.810	2.060
2020/01/31 22:38:35.2	150.350	-0.360	0.900	2.030
2020/01/31 22:38:35.3	150.340	-0.430	0.980	2.000
2020/01/31 22:38:35.4	150.320	-0.500	1.050	1.980
2020/01/31 22:38:35.5	150.300	-0.570	1.100	1.950
2020/01/31 22:38:35.6	150.270	-0.630	1.140	1.940
2020/01/31 22:38:35.7	150.240	-0.680	1.170	1.920
2020/01/31 22:38:35.8	150.210	-0.730	1.180	1.910
2020/01/31 22:38:35.9	150.180	-0.770	1.180	1.910
2020/01/31 22:38:36.0	150.140	-0.810	1.170	1.900
2020/01/31 22:38:36.1	150.100	-0.840	1.140	1.900
2020/01/31 22:38:36.2	150.060	-0.860	1.090	1.890
2020/01/31 22:38:36.3	150.010	-0.870	1.030	1.890
2020/01/31 22:38:36.4	149.970	-0.870	0.960	1.890
2020/01/31 22:38:36.5	149.920	-0.870	0.870	1.890
2020/01/31 22:38:36.6	149.870	-0.860	0.780	1.890
2020/01/31 22:38:36.7	149.820	-0.840	0.670	1.890
2020/01/31 22:38:36.8	149.770	-0.810	0.550	1.890
2020/01/31 22:38:36.9	149.720	-0.780	0.430	1.890
2020/01/31 22:38:37.0	149.660	-0.740	0.300	1.890
2020/01/31 22:38:37.1	149.610	-0.690	0.170	1.890
2020/01/31 22:38:37.2	149.560	-0.640	0.030	1.890
2020/01/31 22:38:37.3	149.510	-0.580	-0.110	1.890
2020/01/31 22:38:37.4	149.460	-0.520	-0.250	1.900
2020/01/31 22:38:37.5	149.410	-0.450	-0.390	1.900
2020/01/31 22:38:37.6	149.360	-0.380	-0.530	1.900
2020/01/31 22:38:37.7	149.310	-0.310	-0.670	1.910
2020/01/31 22:38:37.8	149.260	-0.230	-0.800	1.910
2020/01/31 22:38:37.9	149.210	-0.160	-0.930	1.920
2020/01/31 22:38:38.0	149.140	-0.080	-1.050	1.930
2020/01/31 22:38:38.1	149.090	-0.010	-1.160	1.940
2020/01/31 22:38:38.2	149.040	0.070	-1.260	1.950
2020/01/31 22:38:38.3	148.990	0.140	-1.350	1.960
2020/01/31 22:38:38.4	148.940	0.210	-1.440	1.970
2020/01/31 22:38:38.5	148.890	0.270	-1.510	1.990
2020/01/31 22:38:38.6	148.840	0.330	-1.570	2.000
2020/01/31 22:38:38.7	148.790	0.390	-1.620	2.010
2020/01/31 22:38:38.8	148.740	0.450	-1.650	2.020
2020/01/31 22:38:38.9	148.700	0.490	-1.670	2.030
2020/01/31 22:38:39.0	148.640	0.530	-1.680	2.040
2020/01/31 22:38:39.1	148.590	0.570	-1.680	2.050
2020/01/31 22:38:39.2	148.550	0.600	-1.660	2.050
2020/01/31 22:38:39.3	148.500	0.620	-1.630	2.050
2020/01/31 22:38:39.4	148.460	0.640	-1.590	2.050
2020/01/31 22:38:39.5	148.420	0.640	-1.530	2.040
2020/01/31 22:38:39.6	148.370	0.650	-1.470	2.040
2020/01/31 22:38:39.7	148.340	0.640	-1.390	2.020
2020/01/31 22:38:39.8	148.300	0.630	-1.300	2.010
2020/01/31 22:38:39.9	148.260	0.610	-1.200	2.000
2020/01/31 22:38:40.0	148.230	0.590	-1.100	1.980
2020/01/31 22:38:40.1	148.190	0.560	-0.980	1.960
2020/01/31 22:38:40.2	148.160	0.520	-0.860	1.940
2020/01/31 22:38:40.3	148.130	0.480	-0.730	1.910
2020/01/31 22:38:40.4	148.100	0.430	-0.610	1.890
2020/01/31 22:38:40.5	148.070	0.380	-0.470	1.860
2020/01/31 22:38:40.6	148.050	0.330	-0.340	1.830
2020/01/31 22:38:40.7	148.020	0.280	-0.200	1.810
2020/01/31 22:38:40.8	147.990	0.220	-0.070	1.780
2020/01/31 22:38:40.9	147.970	0.160	0.070	1.760
2020/01/31 22:38:41.0	147.940	0.100	0.200	1.740
2020/01/31 22:38:41.1	147.910	0.040	0.320	1.710
2020/01/31 22:38:41.2	147.880	-0.030	0.450	1.700
2020/01/31 22:38:41.3	147.860	-0.090	0.560	1.680
2020/01/31 22:38:41.4	147.830	-0.150	0.670	1.660
2020/01/31 22:38:41.5	147.800	-0.200	0.770	1.650
2020/01/31 22:38:41.6	147.770	-0.260	0.860	1.630
2020/01/31 22:38:41.7	147.740	-0.310	0.940	1.630
2020/01/31 22:38:41.8	147.710	-0.360	1.010	1.620
2020/01/31 22:38:41.9	147.680	-0.410	1.070	1.610
2020/01/31 22:38:42.0	147.640	-0.450	1.110	1.610
2020/01/31 22:38:42.1	147.600	-0.490	1.150	1.600
2020/01/31 22:38:42.2	147.570	-0.520	1.180	1.600
2020/01/31 22:38:42.3	147.540	-0.550	1.190	1.600
2020/01/31 22:38:42.4	147.500	-0.570	1.190	1.600
2020/01/31 22:38:42.5	147.470	-0.590	1.180	1.600
2020/01/31 22:38:42.6	147.430	-0.610	1.160	1.590
2020/01/31 22:38:42.7	147.390	-0.620	1.130	1.590
2020/01/31 22:38:42.8	147.360	-0.620	1.090	1.590
2020/01/31 22:38:42.9	147.320	-0.620	1.030	1.590
2020/01/31 22:38:43.0	147.270	-0.610	0.980	1.590
2020/01/31 22:38:43.1	147.230	-0.600	0.910	1.590
2020/01/31 22:38:43.2	147.190	-0.590	0.830	1.580
2020/01/31 22:38:43.3	147.140	-0.570	0.740	1.580
2020/01/31 22:38:43.4	147.100	-0.540	0.650	1.580
2020/01/31 22:38:43.5	147.050	-0.520	0.550	1.580
2020/01/31 22:38:43.6	147.000	-0.490	0.450	1.580
2020/01/31 22:38:43.7	146.960	-0.450	0.340	1.580
2020/01/31 22:38:43.8	146.910	-0.410	0.230	1.580
2020/01/31 22:38:43.9	146.860	-0.370	0.120	1.580
2020/01/31 22:38:44.0	146.810	-0.330	0.010	1.590
2020/01/31 22:38:44.1	146.760	-0.290	-0.110	1.590
2020/01/31 22:38:44.2	146.710	-0.240	-0.220	1.600
2020/01/31 22:38:44.3	146.660	-0.190	-0.330	1.600
2020/01/31 22:38:44.4	146.610	-0.150	-0.440	1.610
2020/01/31 22:38:44.5	146.550	-0.100	-0.540	1.620
2020/01/31 22:38:44.6	146.500	-0.050	-0.650	1.630
2020/01/31 22:38:44.7	146.450	0.000	-0.740	1.650
2020/01/31 22:38:44.8	146.400	0.050	-0.830	1.660
2020/01/31 22:38:44.9	146.350	0.100	-0.920	1.680
2020/01/31 22:38:45.0	146.310	0.150	-0.990	1.690
2020/01/31 22:38:45.1	146.250	0.190	-1.060	1.710
2020/01/31 22:38:45.2	146.200	0.240	-1.120	1.730
2020/01/31 22:38:45.3	146.150	0.280	-1.180	1.750
2020/01/31 22:38:45.4	146.100	0.320	-1.220	1.770
2020/01/31 22:38:45.5	146.050	0.360	-1.260	1.790
2020/01/31 22:38:45.6	145.990	0.390	-1.280	1.810
2020/01/31 22:38:45.7	145.940	0.420	-1.300	1.840
2020/01/31 22:38:45.8	145.890	0.450	-1.310	1.860
2020/01/31 22:38:45.9	145.840	0.470	-1.310	1.890
2020/01/31 22:38:46.0	145.790	0.490	-1.290	1.920
2020/01/31 22:38:46.1	145.730	0.500	-1.270	1.940
2020/01/31 22:38:46.2	145.680	0.510	-1.240	1.970
2020/01/31 22:38:46.3	145.630	0.520	-1.200	2.000
2020/01/31 22:38:46.4	145.580	0.520	-1.160	2.030
2020/01/31 22:38:46.5	145.530	0.520	-1.100	2.050
2020/01/31 22:38:46.6	145.470	0.510	-1.040	2.080
2020/01/31 22:38:46.7	145.420	0.500	-0.980	2.110
2020/01/31 22:38:46.8	145.370	0.490	-0.910	2.130
2020/01/31 22:38:46.9	145.320	0.470	-0.830	2.160
2020/01/31 22:38:47.0	145.270	0.450	-0.750	2.190
2020/01/31 22:38:47.1	145.220	0.430	-0.660	2.210
2020/01/31 22:38:47.2	145.170	0.400	-0.570	2.230
2020/01/31 22:38:47.3	145.120	0.370	-0.480	2.250
2020/01/31 22:38:47.4	145.070	0.330	-0.390	2.270
2020/01/31 22:38:47.5	145.030	0.300	-0.300	2.290
2020/01/31 22:38:47.6	144.980	0.260	-0.200	2.310
2020/01/31 22:38:47.7	144.930	0.220	-0.110	2.320
2020/01/31 22:38:47.8	144.890	0.180	-0.020	2.330
2020/01/31 22:38:47.9	144.850	0.140	0.070	2.340
2020/01/31 22:38:48.0	144.820	0.100	0.160	2.350
2020/01/31 22:38:48.1	144.780	0.050	0.250	2.350
2020/01/31 22:38:48.2	144.740	0.010	0.330	2.350
2020/01/31 22:38:48.3	144.700	-0.030	0.410	2.350
2020/01/31 22:38:48.4	144.670	-0.070	0.480	2.350
2020/01/31 22:38:48.5	144.630	-0.110	0.550	2.340
2020/01/31 22:38:48.6	144.600	-0.150	0.610	2.330
2020/01/31 22:38:48.7	144.570	-0.190	0.670	2.320
2020/01/31 22:38:48.8	144.530	-0.220	0.720	2.310
2020/01/31 22:38:48.9	144.500	-0.250	0.760	2.290
2020/01/31 22:38:49.0	144.460	-0.280	0.790	2.280
2020/01/31 22:38:49.1	144.430	-0.300	0.820	2.260
2020/01/31 22:38:49.2	144.400	-0.320	0.840	2.240
2020/01/31 22:38:49.3	144.370	-0.340	0.850	2.210
2020/01/31 22:38:49.4	144.340	-0.350	0.850	2.190
2020/01/31 22:38:49.5	144.310	-0.360	0.840	2.160
2020/01/31 22:38:49.6	144.280	-0.370	0.820	2.130
2020/01/31 22:38:49.7	144.250	-0.360	0.800	2.110
2020/01/31 22:38:49.8	144.210	-0.360	0.760	2.080
2020/01/31 22:38:49.9	144.180	-0.350	0.710	2.050
2020/01/31 22:38:50.0	144.140	-0.330	0.660	2.020
2020/01/31 22:38:50.1	144.100	-0.310	0.600	2.000
2020/01/31 22:38:50.2	144.070	-0.290	0.530	1.970
2020/01/31 22:38:50.3	144.020	-0.260	0.450	1.940
2020/01/31 22:38:50.4	143.980	-0.220	0.370	1.920
2020/01/31 22:38:50.5	143.940	-0.190	0.280	1.900
2020/01/31 22:38:50.6	143.890	-0.150	0.190	1.870
2020/01/31 22:38:50.7	143.840	-0.100	0.090	1.860
2020/01/31 22:38:50.8	143.790	-0.060	-0.010	1.840
2020/01/31 22:38:50.9	143.740	-0.010	-0.120	1.830
2020/01/31 22:38:51.0	143.680	0.040	-0.220	1.820
2020/01/31 22:38:51.1	143.620	0.090	-0.320	1.810
2020/01/31 22:38:51.2	143.560	0.140	-0.430	1.800
2020/01/31 22:38:51.3	143.500	0.190	-0.530	1.800
2020/01/31 22:38:51.4	143.440	0.240	-0.630	1.800
2020/01/31 22:38:51.5	143.370	0.290	-0.720	1.800
2020/01/31 22:38:51.6	143.310	0.340	-0.810	1.800
2020/01/31 22:38:51.7	143.240	0.390	-0.890	1.800
2020/01/31 22:38:51.8	143.170	0.430	-0.970	1.810
2020/01/31 22:38:51.9	143.100	0.470	-1.040	1.810
2020/01/31 22:38:52.0	143.020	0.510	-1.100	1.820
2020/01/31 22:38:52.1	142.960	0.540	-1.150	1.820
2020/01/31 22:38:52.2	142.900	0.570	-1.190	1.820
2020/01/31 22:38:52.3	142.830	0.600	-1.220	1.830
2020/01/31 22:38:52.4	142.780	0.620	-1.240	1.830
2020/01/31 22:38:52.5	142.720	0.630	-1.240	1.830
2020/01/31 22:38:52.6	142.670	0.640	-1.240	1.830
2020/01/31 22:38:52.7	142.620	0.640	-1.220	1.830
2020/01/31 22:38:52.8	142.570	0.630	-1.200	1.830
2020/01/31 22:38:52.9	142.520	0.630	-1.160	1.820
2020/01/31 22:38:53.0	142.480	0.610	-1.110	1.830
2020/01/31 22:38:53.1	142.440	0.590	-1.050	1.820
2020/01/31 22:38:53.2	142.400	0.560	-0.990	1.820
2020/01/31 22:38:53.3	142.370	0.530	-0.910	1.820
2020/01/31 22:38:53.4	142.330	0.500	-0.830	1.810
2020/01/31 22:38:53.5	142.300	0.460	-0.740	1.810
2020/01/31 22:38:53.6	142.270	0.410	-0.650	1.800
2020/01/31 22:38:53.7	142.250	0.370	-0.550	1.800
2020/01/31 22:38:53.8	142.220	0.320	-0.450	1.790
2020/01/31 22:38:53.9	142.200	0.260	-0.350	1.790
2020/01/31 22:38:54.0	142.170	0.210	-0.250	1.790
2020/01/31 22:38:54.1	142.150	0.150	-0.150	1.790
2020/01/31 22:38:54.2	142.130	0.100	-0.050	1.790
2020/01/31 22:38:54.3	142.110	0.040	0.050	1.790
2020/01/31 22:38:54.4	142.090	-0.020	0.140	1.790
2020/01/31 22:38:54.5	142.070	-0.070	0.230	1.790
2020/01/31 22:38:54.6	142.050	-0.130	0.310	1.790
2020/01/31 22:38:54.7	142.030	-0.180	0.380	1.800
2020/01/31 22:38:54.8	142.010	-0.230	0.450	1.800
2020/01/31 22:38:54.9	141.990	-0.270	0.510	1.800
2020/01/31 22:38:55.0	141.970	-0.320	0.560	1.810
2020/01/31 22:38:55.1	141.950	-0.360	0.600	1.820
2020/01/31 22:38:55.2	141.920	-0.390	0.620	1.820
2020/01/31 22:38:55.3	141.900	-0.420	0.640	1.820
2020/01/31 22:38:55.4	141.880	-0.440	0.650	1.830
2020/01/31 22:38:55.5	141.850	-0.460	0.640	1.830
2020/01/31 22:38:55.6	141.820	-0.480	0.620	1.830
2020/01/31 22:38:55.7	141.790	-0.490	0.600	1.840
2020/01/31 22:38:55.8	141.760	-0.490	0.560	1.840
2020/01/31 22:38:55.9	141.720	-0.480	0.510	1.840
2020/01/31 22:38:56.0	141.690	-0.480	0.440	1.850
2020/01/31 22:38:56.1	141.640	-0.460	0.370	1.860
2020/01/31 22:38:56.2	141.600	-0.440	0.300	1.860
2020/01/31 22:38:56.3	141.550	-0.420	0.210	1.870
2020/01/31 22:38:56.4	141.500	-0.390	0.120	1.880
2020/01/31 22:38:56.5	141.450	-0.360	0.020	1.900
2020/01/31 22:38:56.6	141.400	-0.320	-0.080	1.910
2020/01/31 22:38:56.7	141.340	-0.290	-0.190	1.930
2020/01/31 22:38:56.8	141.280	-0.250	-0.300	1.950
2020/01/31 22:38:56.9	141.220	-0.200	-0.400	1.970
2020/01/31 22:38:57.0	141.170	-0.160	-0.510	2.000
2020/01/31 22:38:57.1	141.100	-0.110	-0.620	2.020
2020/01/31 22:38:57.2	141.040	-0.070	-0.720	2.050
2020/01/31 22:38:57.3	140.970	-0.030	-0.820	2.080
2020/01/31 22:38:57.4	140.900	0.020	-0.920	2.110
2020/01/31 22:38:57.5	140.840	0.060	-1.010	2.140
2020/01/31 22:38:57.6	140.770	0.100	-1.090	2.180
2020/01/31 22:38:57.7	140.710	0.140	-1.170	2.210
2020/01/31 22:38:57.8	140.640	0.170	-1.230	2.250
2020/01/31 22:38:57.9	140.580	0.200	-1.290	2.290
2020/01/31 22:38:58.0	140.530	0.230	-1.340	2.320
2020/01/31 22:38:58.1	140.470	0.260	-1.380	2.360
2020/01/31 22:38:58.2	140.410	0.280	-1.400	2.400
2020/01/31 22:38:58.3	140.340	0.290	-1.420	2.430
2020/01/31 22:38:58.4	140.280	0.300	-1.420	2.460
2020/01/31 22:38:58.5	140.220	0.310	-1.410	2.490
2020/01/31 22:38:58.6	140.170	0.310	-1.390	2.520
2020/01/31 22:38:58.7	140.110	0.300	-1.360	2.540
2020/01/31 22:38:58.8	140.050	0.300	-1.320	2.560
2020/01/31 22:38:58.9	139.990	0.280	-1.270	2.580
2020/01/31 22:38:59.0	139.940	0.270	-1.210	2.600
2020/01/31 22:38:59.1	139.880	0.240	-1.140	2.610
2020/01/31 22:38:59.2	139.830	0.220	-1.060	2.620
2020/01/31 22:38:59.3	139.780	0.190	-0.980	2.630
2020/01/31 22:38:59.4	139.730	0.150	-0.890	2.630
2020/01/31 22:38:59.5	139.670	0.120	-0.790	2.620
2020/01/31 22:38:59.6	139.630	0.080	-0.690	2.620
2020/01/31 22:38:59.7	139.580	0.030	-0.590	2.610
2020/01/31 22:38:59.8	139.530	-0.010	-0.480	2.590
2020/01/31 22:38:59.9	139.490	-0.060	-0.380	2.580
2020/01/31 22:39:00.0	139.450	-0.110	-0.270	2.550
2020/01/31 22:39:00.1	139.410	-0.160	-0.160	2.530
2020/01/31 22:39:00.2	139.380	-0.210	-0.050	2.500
2020/01/31 22:39:00.3	139.340	-0.260	0.050	2.480
2020/01/31 22:39:00.4	139.310	-0.310	0.150	2.450
2020/01/31 22:39:00.5	139.280	-0.360	0.250	2.420
2020/01/31 22:39:00.6	139.250	-0.410	0.350	2.380
2020/01/31 22:39:00.7	139.220	-0.450	0.430	2.350
2020/01/31 22:39:00.8	139.200	-0.500	0.520	2.320
2020/01/31 22:39:00.9	139.180	-0.540	0.590	2.280
2020/01/31 22:39:01.0	139.150	-0.590	0.660	2.250
2020/01/31 22:39:01.1	139.130	-0.630	0.730	2.220
2020/01/31 22:39:01.2	139.110	-0.660	0.780	2.180
2020/01/31 22:39:01.3	139.090	-0.700	0.830	2.150
2020/01/31 22:39:01.4	139.070	-0.730	0.870	2.120
2020/01/31 22:39:01.5	139.060	-0.750	0.900	2.090
2020/01/31 22:39:01.6	139.040	-0.780	0.930	2.060
2020/01/31 22:39:01.7	139.020	-0.800	0.940	2.030
2020/01/31 22:39:01.8	139.010	-0.810	0.950	2.010
2020/01/31 22:39:01.9	138.990	-0.820	0.950	1.980
2020/01/31 22:39:02.0	138.980	-0.830	0.950	1.960
2020/01/31 22:39:02.1	138.960	-0.830	0.930	1.930
2020/01/31 22:39:02.2	138.950	-0.830	0.910	1.910
2020/01/31 22:39:02.3	138.930	-0.830	0.890	1.890
2020/01/31 22:39:02.4	138.920	-0.820	0.860	1.860
2020/01/31 22:39:02.5	138.900	-0.810	0.820	1.840
2020/01/31 22:39:02.6	138.880	-0.790	0.780	1.820
2020/01/31 22:39:02.7	138.870	-0.770	0.730	1.790
2020/01/31 22:39:02.8	138.850	-0.750	0.680	1.770
2020/01/31 22:39:02.9	138.830	-0.720	0.620	1.750
2020/01/31 22:39:03.0	138.820	-0.690	0.560	1.720
2020/01/31 22:39:03.1	138.790	-0.650	0.490	1.700
2020/01/31 22:39:03.2	138.770	-0.610	0.420	1.680
2020/01/31 22:39:03.3	138.740	-0.570	0.350	1.660
2020/01/31 22:39:03.4	138.710	-0.520	0.280	1.640
2020/01/31 22:39:03.5	138.680	-0.470	0.200	1.620
2020/01/31 22:39:03.6	138.650	-0.420	0.130	1.600
2020/01/31 22:39:03.7	138.610	-0.370	0.050	1.580
2020/01/31 22:39:03.8	138.570	-0.310	-0.030	1.560
2020/01/31 22:39:03.9	138.540	-0.250	-0.110	1.540
2020/01/31 22:39:04.0	138.510	-0.190	-0.180	1.530
2020/01/31 22:39:04.1	138.460	-0.130	-0.260	1.520
2020/01/31 22:39:04.2	138.420	-0.070	-0.330	1.500
2020/01/31 22:39:04.3	138.380	-0.000	-0.390	1.490
2020/01/31 22:39:04.4	138.340	0.060	-0.460	1.470
2020/01/31 22:39:04.5	138.290	0.120	-0.520	1.460
2020/01/31 22:39:04.6	138.250	0.180	-0.570	1.450
2020/01/31 22:39:04.7	138.200	0.240	-0.620	1.440
2020/01/31 22:39:04.8	138.160	0.300	-0.660	1.430
2020/01/31 22:39:04.9	138.120	0.360	-0.700	1.420
2020/01/31 22:39:05.0	138.060	0.420	-0.730	1.410
2020/01/31 22:39:05.1	138.020	0.470	-0.750	1.400
2020/01/31 22:39:05.2	137.980	0.520	-0.770	1.390
2020/01/31 22:39:05.3	137.930	0.560	-0.780	1.390
2020/01/31 22:39:05.4	137.890	0.610	-0.780	1.380
2020/01/31 22:39:05.5	137.850	0.650	-0.770	1.380
2020/01/31 22:39:05.6	137.800	0.680	-0.760	1.380
2020/01/31 22:39:05.7	137.760	0.710	-0.740	1.370
2020/01/31 22:39:05.8	137.720	0.740	-0.720	1.370
2020/01/31 22:39:05.9	137.680	0.760	-0.690	1.370
2020/01/31 22:39:06.0	137.620	0.780	-0.660	1.380
2020/01/31 22:39:06.1	137.580	0.800	-0.620	1.380
2020/01/31 22:39:06.2	137.540	0.810	-0.580	1.380
2020/01/31 22:39:06.3	137.500	0.810	-0.540	1.380
2020/01/31 22:39:06.4	137.450	0.820	-0.500	1.380
2020/01/31 22:39:06.5	137.410	0.820	-0.450	1.380
2020/01/31 22:39:06.6	137.370	0.820	-0.410	1.380
2020/01/31 22:39:06.7	137.330	0.810	-0.360	1.390
2020/01/31 22:39:06.8	137.280	0.810	-0.320	1.390
2020/01/31 22:39:06.9	137.240	0.800	-0.280	1.390
2020/01/31 22:39:07.0	137.190	0.790	-0.230	1.390
2020/01/31 22:39:07.1	137.150	0.780	-0.200	1.390
2020/01/31 22:39:07.2	137.110	0.760	-0.160	1.390
2020/01/31 22:39:07.3	137.070	0.750	-0.130	1.390
2020/01/31 22:39:07.4	137.030	0.730	-0.110	1.380
2020/01/31 22:39:07.5	136.990	0.720	-0.090	1.380
2020/01/31 22:39:07.6	136.950	0.700	-0.070	1.370
2020/01/31 22:39:07.7	136.910	0.690	-0.060	1.360
2020/01/31 22:39:07.8	136.870	0.670	-0.040	1.360
2020/01/31 22:39:07.9	136.830	0.650	-0.040	1.350
2020/01/31 22:39:08.0	136.820	0.630	-0.030	1.350
2020/01/31 22:39:08.1	136.780	0.610	-0.030	1.350
2020/01/31 22:39:08.2	136.740	0.600	-0.030	1.350
2020/01/31 22:39:08.3	136.710	0.580	-0.040	1.350
2020/01/31 22:39:08.4	136.670	0.560	-0.040	1.360
2020/01/31 22:39:08.5	136.640	0.540	-0.050	1.370
2020/01/31 22:39:08.6	136.600	0.520	-0.060	1.380
2020/01/31 22:39:08.7	136.570	0.500	-0.060	1.400
2020/01/31 22:39:08.8	136.530	0.470	-0.070	1.420
2020/01/31 22:39:08.9	136.500	0.450	-0.080	1.440
2020/01/31 22:39:09.0	136.450	0.430	-0.090	1.470
2020/01/31 22:39:09.1	136.410	0.400	-0.110	1.500
2020/01/31 22:39:09.2	136.380	0.380	-0.120	1.530
2020/01/31 22:39:09.3	136.340	0.350	-0.130	1.560
2020/01/31 22:39:09.4	136.310	0.330	-0.140	1.590
2020/01/31 22:39:09.5	136.270	0.300	-0.150	1.630
2020/01/31 22:39:09.6	136.230	0.270	-0.170	1.670
2020/01/31 22:39:09.7	136.200	0.240	-0.180	1.700
2020/01/31 22:39:09.8	136.160	0.210	-0.190	1.740
2020/01/31 22:39:09.9	136.120	0.180	-0.210	1.780
2020/01/31 22:39:10.0	136.080	0.150	-0.220	1.820
2020/01/31 22:39:10.1	136.040	0.120	-0.240	1.860
2020/01/31 22:39:10.2	136.000	0.090	-0.260	1.900
2020/01/31 22:39:10.3	135.960	0.050	-0.280	1.950
2020/01/31 22:39:10.4	135.910	0.020	-0.300	1.990
2020/01/31 22:39:10.5	135.870	-0.010	-0.320	2.030
2020/01/31 22:39:10.6	135.820	-0.040	-0.340	2.070
2020/01/31 22:39:10.7	135.770	-0.070	-0.360	2.110
2020/01/31 22:39:10.8	135.720	-0.100	-0.380	2.150
2020/01/31 22:39:10.9	135.670	-0.130	-0.410	2.200
2020/01/31 22:39:11.0	135.630	-0.160	-0.430	2.230
2020/01/31 22:39:11.1	135.570	-0.190	-0.450	2.280
2020/01/31 22:39:11.2	135.520	-0.220	-0.480	2.320
2020/01/31 22:39:11.3	135.460	-0.240	-0.500	2.360
2020/01/31 22:39:11.4	135.400	-0.270	-0.520	2.410
2020/01/31 22:39:11.5	135.340	-0.290	-0.540	2.450
2020/01/31 22:39:11.6	135.270	-0.320	-0.560	2.490
2020/01/31 22:39:11.7	135.210	-0.340	-0.570	2.540
2020/01/31 22:39:11.8	135.150	-0.370	-0.590	2.580
2020/01/31 22:39:11.9	135.090	-0.390	-0.600	2.620
2020/01/31 22:39:12.0	135.060	-0.410	-0.610	2.660
2020/01/31 22:39:12.1	135.000	-0.430	-0.620	2.700
2020/01/31 22:39:12.2	134.940	-0.450	-0.620	2.730
2020/01/31 22:39:12.3	134.890	-0.470	-0.620	2.770
2020/01/31 22:39:12.4	134.840	-0.490	-0.620	2.800
2020/01/31 22:39:12.5	134.790	-0.500	-0.620	2.820
2020/01/31 22:39:12.6	134.740	-0.520	-0.610	2.850
2020/01/31 22:39:12.7	134.690	-0.530	-0.610	2.870
2020/01/31 22:39:12.8	134.650	-0.540	-0.600	2.890
2020/01/31 22:39:12.9	134.600	-0.550	-0.600	2.910
2020/01/31 22:39:13.0	134.580	-0.560	-0.590	2.920
2020/01/31 22:39:13.1	134.540	-0.570	-0.580	2.930
2020/01/31 22:39:13.2	134.500	-0.570	-0.570	2.930
2020/01/31 22:39:13.3	134.470	-0.570	-0.560	2.930
2020/01/31 22:39:13.4	134.430	-0.570	-0.550	2.930
2020/01/31 22:39:13.5	134.390	-0.570	-0.540	2.920
2020/01/31 22:39:13.6	134.360	-0.560	-0.530	2.910
2020/01/31 22:39:13.7	134.320	-0.560	-0.530	2.890
2020/01/31 22:39:13.8	134.290	-0.550	-0.520	2.880
2020/01/31 22:39:13.9	134.260	-0.530	-0.520	2.860
2020/01/31 22:39:14.0	134.230	-0.520	-0.520	2.830
2020/01/31 22:39:14.1	134.190	-0.500	-0.520	2.810
2020/01/31 22:39:14.2	134.150	-0.480	-0.520	2.780
2020/01/31 22:39:14.3	134.110	-0.450	-0.520	2.750
2020/01/31 22:39:14.4	134.070	-0.430	-0.520	2.720
2020/01/31 22:39:14.5	134.030	-0.400	-0.520	2.690
2020/01/31 22:39:14.6	133.980	-0.370	-0.520	2.660
2020/01/31 22:39:14.7	133.930	-0.330	-0.530	2.630
2020/01/31 22:39:14.8	133.880	-0.300	-0.530	2.610
2020/01/31 22:39:14.9	133.820	-0.260	-0.540	2.580
2020/01/31 22:39:15.0	133.760	-0.220	-0.540	2.550
2020/01/31 22:39:15.1	133.690	-0.180	-0.540	2.520
2020/01/31 22:39:15.2	133.620	-0.140	-0.540	2.500
2020/01/31 22:39:15.3	133.550	-0.100	-0.540	2.470
2020/01/31 22:39:15.4	133.480	-0.060	-0.530	2.450
2020/01/31 22:39:15.5	133.410	-0.020	-0.530	2.420
2020/01/31 22:39:15.6	133.330	0.020	-0.520	2.390
2020/01/31 22:39:15.7	133.250	0.060	-0.510	2.360
2020/01/31 22:39:15.8	133.170	0.090	-0.500	2.330
2020/01/31 22:39:15.9	133.090	0.130	-0.480	2.300
2020/01/31 22:39:16.0	132.990	0.160	-0.460	2.270
2020/01/31 22:39:16.1	132.920	0.190	-0.430	2.230
2020/01/31 22:39:16.2	132.840	0.220	-0.400	2.190
2020/01/31 22:39:16.3	132.770	0.250	-0.370	2.140
2020/01/31 22:39:16.4	132.700	0.270	-0.330	2.090
2020/01/31 22:39:16.5	132.640	0.280	-0.290	2.040
2020/01/31 22:39:16.6	132.580	0.300	-0.240	1.980
2020/01/31 22:39:16.7	132.530	0.310	-0.190	1.920
2020/01/31 22:39:16.8	132.490	0.310	-0.130	1.860
2020/01/31 22:39:16.9	132.450	0.310	-0.070	1.800
2020/01/31 22:39:17.0	132.420	0.310	-0.010	1.730
2020/01/31 22:39:17.1	132.390	0.300	0.060	1.670
2020/01/31 22:39:17.2	132.370	0.290	0.130	1.600
2020/01/31 22:39:17.3	132.350	0.270	0.200	1.540
2020/01/31 22:39:17.4	132.330	0.250	0.270	1.470
2020/01/31 22:39:17.5	132.330	0.220	0.340	1.410
2020/01/31 22:39:17.6	132.320	0.190	0.420	1.350
2020/01/31 22:39:17.7	132.330	0.160	0.500	1.290
2020/01/31 22:39:17.8	132.330	0.130	0.570	1.230
2020/01/31 22:39:17.9	132.340	0.090	0.640	1.180
2020/01/31 22:39:18.0	132.320	0.050	0.710	1.130
2020/01/31 22:39:18.1	132.340	0.010	0.780	1.080
2020/01/31 22:39:18.2	132.360	-0.040	0.850	1.040
2020/01/31 22:39:18.3	132.380	-0.080	0.910	0.990
2020/01/31 22:39:18.4	132.400	-0.130	0.970	0.960
2020/01/31 22:39:18.5	132.430	-0.170	1.030	0.920
2020/01/31 22:39:18.6	132.450	-0.220	1.070	0.890
2020/01/31 22:39:18.7	132.480	-0.270	1.110	0.850
2020/01/31 22:39:18.8	132.510	-0.310	1.150	0.820
2020/01/31 22:39:18.9	132.530	-0.350	1.170	0.800
2020/01/31 22:39:19.0	132.540	-0.390	1.190	0.780
2020/01/31 22:39:19.1	132.560	-0.430	1.200	0.760
2020/01/31 22:39:19.2	132.580	-0.460	1.200	0.740
2020/01/31 22:39:19.3	132.590	-0.490	1.190	0.730
2020/01/31 22:39:19.4	132.600	-0.520	1.170	0.720
2020/01/31 22:39:19.5	132.610	-0.540	1.140	0.710
2020/01/31 22:39:19.6	132.620	-0.550	1.100	0.700
2020/01/31 22:39:19.7	132.620	-0.560	1.040	0.700
2020/01/31 22:39:19.8	132.610	-0.570	0.980	0.710
2020/01/31 22:39:19.9	132.600	-0.560	0.910	0.710
2020/01/31 22:39:20.0	132.590	-0.560	0.830	0.730
2020/01/31 22:39:20.1	132.570	-0.540	0.740	0.740
2020/01/31 22:39:20.2	132.550	-0.530	0.640	0.760
2020/01/31 22:39:20.3	132.520	-0.500	0.530	0.780
2020/01/31 22:39:20.4	132.490	-0.470	0.420	0.800
2020/01/31 22:39:20.5	132.460	-0.440	0.300	0.830
2020/01/31 22:39:20.6	132.420	-0.400	0.180	0.860
2020/01/31 22:39:20.7	132.380	-0.350	0.060	0.900
2020/01/31 22:39:20.8	132.340	-0.310	-0.070	0.940
2020/01/31 22:39:20.9	132.290	-0.250	-0.200	0.980
2020/01/31 22:39:21.0	132.260	-0.200	-0.320	1.030
2020/01/31 22:39:21.1	132.210	-0.140	-0.450	1.080
2020/01/31 22:39:21.2	132.150	-0.090	-0.570	1.130
2020/01/31 22:39:21.3	132.100	-0.030	-0.680	1.180
2020/01/31 22:39:21.4	132.040	0.040	-0.800	1.240
2020/01/31 22:39:21.5	131.990	0.100	-0.900	1.300
2020/01/31 22:39:21.6	131.930	0.160	-1.000	1.360
2020/01/31 22:39:21.7	131.870	0.220	-1.090	1.420
2020/01/31 22:39:21.8	131.810	0.280	-1.180	1.480
2020/01/31 22:39:21.9	131.750	0.330	-1.260	1.540
2020/01/31 22:39:22.0	131.710	0.390	-1.320	1.610
2020/01/31 22:39:22.1	131.640	0.440	-1.380	1.670
2020/01/31 22:39:22.2	131.580	0.500	-1.440	1.730
2020/01/31 22:39:22.3	131.520	0.540	-1.480	1.790
2020/01/31 22:39:22.4	131.450	0.590	-1.510	1.850
2020/01/31 22:39:22.5	131.390	0.630	-1.540	1.910
2020/01/31 22:39:22.6	131.320	0.670	-1.560	1.960
2020/01/31 22:39:22.7	131.260	0.700	-1.570	2.010
2020/01/31 22:39:22.8	131.190	0.740	-1.570	2.050
2020/01/31 22:39:22.9	131.130	0.760	-1.560	2.100
2020/01/31 22:39:23.0	131.070	0.790	-1.560	2.140
2020/01/31 22:39:23.1	131.000	0.810	-1.540	2.170
2020/01/31 22:39:23.2	130.940	0.820	-1.510	2.210
2020/01/31 22:39:23.3	130.870	0.830	-1.480	2.240
2020/01/31 22:39:23.4	130.800	0.840	-1.450	2.260
2020/01/31 22:39:23.5	130.740	0.850	-1.410	2.280
2020/01/31 22:39:23.6	130.670	0.850	-1.370	2.300
2020/01/31 22:39:23.7	130.600	0.840	-1.320	2.310
2020/01/31 22:39:23.8	130.530	0.840	-1.270	2.320
2020/01/31 22:39:23.9	130.470	0.830	-1.220	2.320
2020/01/31 22:39:24.0	130.390	0.820	-1.160	2.330
2020/01/31 22:39:24.1	130.320	0.800	-1.100	2.320
2020/01/31 22:39:24.2	130.260	0.780	-1.040	2.320
2020/01/31 22:39:24.3	130.190	0.760	-0.980	2.310
2020/01/31 22:39:24.4	130.120	0.730	-0.920	2.300
2020/01/31 22:39:24.5	130.060	0.700	-0.850	2.280
2020/01/31 22:39:24.6	130.000	0.670	-0.790	2.270
2020/01/31 22:39:24.7	129.940	0.630	-0.720	2.250
2020/01/31 22:39:24.8	129.870	0.590	-0.650	2.230
2020/01/31 22:39:24.9	129.820	0.550	-0.580	2.210
2020/01/31 22:39:25.0	129.750	0.500	-0.520	2.180
2020/01/31 22:39:25.1	129.700	0.460	-0.450	2.160
2020/01/31 22:39:25.2	129.650	0.410	-0.380	2.140
2020/01/31 22:39:25.3	129.600	0.360	-0.310	2.120
2020/01/31 22:39:25.4	129.550	0.300	-0.250	2.100
2020/01/31 22:39:25.5	129.500	0.250	-0.180	2.080
2020/01/31 22:39:25.6	129.460	0.190	-0.120	2.060
2020/01/31 22:39:25.7	129.420	0.130	-0.060	2.040
2020/01/31 22:39:25.8	129.380	0.080	-0.000	2.020
2020/01/31 22:39:25.9	129.340	0.020	0.050	2.000
2020/01/31 22:39:26.0	129.280	-0.040	0.120	2.000
2020/01/31 22:39:26.1	129.250	-0.100	0.170	1.980
2020/01/31 22:39:26.2	129.220	-0.160	0.210	1.970
2020/01/31 22:39:26.3	129.190	-0.210	0.260	1.960
2020/01/31 22:39:26.4	129.160	-0.270	0.300	1.940
2020/01/31 22:39:26.5	129.130	-0.320	0.330	1.930
2020/01/31 22:39:26.6	129.110	-0.380	0.370	1.920
2020/01/31 22:39:26.7	129.080	-0.430	0.400	1.910
2020/01/31 22:39:26.8	129.060	-0.480	0.430	1.900
2020/01/31 22:39:26.9	129.040	-0.530	0.450	1.890
2020/01/31 22:39:27.0	129.010	-0.570	0.470	1.870
2020/01/31 22:39:27.1	128.990	-0.610	0.490	1.870
2020/01/31 22:39:27.2	128.970	-0.660	0.510	1.860
2020/01/31 22:39:27.3	128.950	-0.690	0.530	1.850
2020/01/31 22:39:27.4	128.940	-0.730	0.540	1.850
2020/01/31 22:39:27.5	128.920	-0.760	0.560	1.840
2020/01/31 22:39:27.6	128.900	-0.800	0.570	1.840
2020/01/31 22:39:27.7	128.890	-0.830	0.580	1.830
2020/01/31 22:39:27.8	128.870	-0.850	0.590	1.820
2020/01/31 22:39:27.9	128.860	-0.880	0.600	1.820
2020/01/31 22:39:28.0	128.840	-0.900	0.600	1.820
2020/01/31 22:39:28.1	128.820	-0.910	0.610	1.810
2020/01/31 22:39:28.2	128.800	-0.930	0.600	1.810
2020/01/31 22:39:28.3	128.780	-0.940	0.600	1.800
2020/01/31 22:39:28.4	128.760	-0.950	0.600	1.800
2020/01/31 22:39:28.5	128.740	-0.950	0.580	1.790
2020/01/31 22:39:28.6	128.710	-0.950	0.570	1.780
2020/01/31 22:39:28.7	128.690	-0.940	0.550	1.780
2020/01/31 22:39:28.8	128.660	-0.930	0.530	1.770
2020/01/31 22:39:28.9	128.630	-0.920	0.500	1.760
2020/01/31 22:39:29.0	128.600	-0.900	0.460	1.750
2020/01/31 22:39:29.1	128.570	-0.880	0.420	1.740
2020/01/31 22:39:29.2	128.530	-0.850	0.370	1.730
2020/01/31 22:39:29.3	128.490	-0.820	0.320	1.720
2020/01/31 22:39:29.4	128.460	-0.780	0.260	1.710
2020/01/31 22:39:29.5	128.410	-0.740	0.200	1.710
2020/01/31 22:39:29.6	128.370	-0.690	0.130	1.700
2020/01/31 22:39:29.7	128.330	-0.630	0.060	1.690
2020/01/31 22:39:29.8	128.280	-0.580	-0.010	1.690
2020/01/31 22:39:29.9	128.230	-0.520	-0.090	1.690
2020/01/31 22:39:30.0	128.190	-0.450	-0.170	1.690
2020/01/31 22:39:30.1	128.140	-0.380	-0.260	1.690
2020/01/31 22:39:30.2	128.080	-0.310	-0.340	1.690
2020/01/31 22:39:30.3	128.030	-0.240	-0.420	1.700
2020/01/31 22:39:30.4	127.970	-0.160	-0.500	1.700
2020/01/31 22:39:30.5	127.920	-0.080	-0.580	1.710
2020/01/31 22:39:30.6	127.860	-0.010	-0.650	1.720
2020/01/31 22:39:30.7	127.810	0.070	-0.720	1.730
2020/01/31 22:39:30.8	127.750	0.150	-0.790	1.740
2020/01/31 22:39:30.9	127.700	0.230	-0.840	1.740
2020/01/31 22:39:31.0	127.650	0.300	-0.900	1.750
2020/01/31 22:39:31.1	127.600	0.370	-0.940	1.760
2020/01/31 22:39:31.2	127.560	0.440	-0.970	1.760
2020/01/31 22:39:31.3	127.510	0.500	-0.990	1.760
2020/01/31 22:39:31.4	127.470	0.560	-1.010	1.760
2020/01/31 22:39:31.5	127.430	0.610	-1.010	1.760
2020/01/31 22:39:31.6	127.390	0.660	-1.010	1.750
2020/01/31 22:39:31.7	127.360	0.700	-0.990	1.740
2020/01/31 22:39:31.8	127.330	0.730	-0.970	1.730
2020/01/31 22:39:31.9	127.300	0.760	-0.930	1.720
2020/01/31 22:39:32.0	127.290	0.780	-0.890	1.700
2020/01/31 22:39:32.1	127.260	0.800	-0.840	1.680
2020/01/31 22:39:32.2	127.250	0.800	-0.780	1.650
2020/01/31 22:39:32.3	127.230	0.800	-0.720	1.630
2020/01/31 22:39:32.4	127.220	0.800	-0.650	1.600
2020/01/31 22:39:32.5	127.210	0.790	-0.580	1.570
2020/01/31 22:39:32.6	127.200	0.770	-0.500	1.540
2020/01/31 22:39:32.7	127.200	0.750	-0.420	1.500
2020/01/31 22:39:32.8	127.190	0.720	-0.330	1.470
2020/01/31 22:39:32.9	127.190	0.690	-0.250	1.430
2020/01/31 22:39:33.0	127.200	0.650	-0.170	1.410
2020/01/31 22:39:33.1	127.200	0.610	-0.090	1.370
2020/01/31 22:39:33.2	127.190	0.570	-0.010	1.340
2020/01/31 22:39:33.3	127.190	0.530	0.070	1.300
2020/01/31 22:39:33.4	127.180	0.480	0.150	1.270
2020/01/31 22:39:33.5	127.170	0.440	0.220	1.250
2020/01/31 22:39:33.6	127.150	0.390	0.280	1.220
2020/01/31 22:39:33.7	127.140	0.340	0.340	1.200
2020/01/31 22:39:33.8	127.120	0.290	0.390	1.180
2020/01/31 22:39:33.9	127.100	0.250	0.440	1.160
2020/01/31 22:39:34.0	127.090	0.200	0.480	1.150
2020/01/31 22:39:34.1	127.060	0.160	0.510	1.130
2020/01/31 22:39:34.2	127.040	0.120	0.530	1.130
2020/01/31 22:39:34.3	127.010	0.080	0.550	1.120
2020/01/31 22:39:34.4	126.980	0.050	0.550	1.120
2020/01/31 22:39:34.5	126.950	0.010	0.560	1.120
2020/01/31 22:39:34.6	126.910	-0.020	0.550	1.130
2020/01/31 22:39:34.7	126.870	-0.050	0.530	1.140
2020/01/31 22:39:34.8	126.830	-0.070	0.510	1.150
2020/01/31 22:39:34.9	126.790	-0.090	0.480	1.170
2020/01/31 22:39:35.0	126.760	-0.110	0.450	1.200
2020/01/31 22:39:35.1	126.710	-0.130	0.410	1.230
2020/01/31 22:39:35.2	126.660	-0.140	0.360	1.260
2020/01/31 22:39:35.3	126.610	-0.150	0.310	1.290
2020/01/31 22:39:35.4	126.550	-0.150	0.250	1.330
2020/01/31 22:39:35.5	126.490	-0.160	0.190	1.370
2020/01/31 22:39:35.6	126.430	-0.160	0.120	1.410
2020/01/31 22:39:35.7	126.370	-0.160	0.050	1.460
2020/01/31 22:39:35.8	126.310	-0.160	-0.030	1.510
2020/01/31 22:39:35.9	126.240	-0.150	-0.110	1.560
2020/01/31 22:39:36.0	126.180	-0.140	-0.190	1.610
2020/01/31 22:39:36.1	126.110	-0.140	-0.270	1.660
2020/01/31 22:39:36.2	126.040	-0.130	-0.350	1.710
2020/01/31 22:39:36.3	125.970	-0.110	-0.430	1.760
2020/01/31 22:39:36.4	125.890	-0.100	-0.520	1.820
2020/01/31 22:39:36.5	125.820	-0.090	-0.600	1.870
2020/01/31 22:39:36.6	125.750	-0.080	-0.680	1.910
2020/01/31 22:39:36.7	125.670	-0.060	-0.750	1.960
2020/01/31 22:39:36.8	125.600	-0.050	-0.830	2.000
2020/01/31 22:39:36.9	125.530	-0.030	-0.900	2.040
2020/01/31 22:39:37.0	125.440	-0.020	-0.960	2.080
2020/01/31 22:39:37.1	125.370	-0.000	-1.020	2.110
2020/01/31 22:39:37.2	125.300	0.010	-1.080	2.130
2020/01/31 22:39:37.3	125.240	0.020	-1.120	2.150
2020/01/31 22:39:37.4	125.170	0.030	-1.160	2.170
2020/01/31 22:39:37.5	125.110	0.040	-1.190	2.180
2020/01/31 22:39:37.6	125.050	0.050	-1.210	2.180
2020/01/31 22:39:37.7	124.990	0.060	-1.220	2.180
2020/01/31 22:39:37.8	124.930	0.060	-1.220	2.180
2020/01/31 22:39:37.9	124.880	0.070	-1.220	2.180
2020/01/31 22:39:38.0	124.820	0.070	-1.200	2.170
2020/01/31 22:39:38.1	124.770	0.070	-1.180	2.160
2020/01/31 22:39:38.2	124.720	0.070	-1.150	2.150
2020/01/31 22:39:38.3	124.680	0.070	-1.110	2.140
2020/01/31 22:39:38.4	124.640	0.060	-1.060	2.120
2020/01/31 22:39:38.5	124.590	0.060	-1.010	2.110
2020/01/31 22:39:38.6	124.560	0.050	-0.950	2.100
2020/01/31 22:39:38.7	124.520	0.040	-0.880	2.080
2020/01/31 22:39:38.8	124.490	0.030	-0.810	2.070
2020/01/31 22:39:38.9	124.460	0.020	-0.740	2.050
2020/01/31 22:39:39.0	124.410	0.000	-0.660	2.040
2020/01/31 22:39:39.1	124.380	-0.010	-0.580	2.030
2020/01/31 22:39:39.2	124.360	-0.030	-0.500	2.020
2020/01/31 22:39:39.3	124.330	-0.040	-0.410	2.010
2020/01/31 22:39:39.4	124.320	-0.060	-0.330	1.990
2020/01/31 22:39:39.5	124.300	-0.080	-0.250	1.980
2020/01/31 22:39:39.6	124.280	-0.100	-0.180	1.970
2020/01/31 22:39:39.7	124.260	-0.110	-0.100	1.950
2020/01/31 22:39:39.8	124.250	-0.130	-0.030	1.940
2020/01/31 22:39:39.9	124.230	-0.150	0.040	1.920
2020/01/31 22:39:40.0	124.220	-0.170	0.100	1.910
2020/01/31 22:39:40.1	124.200	-0.180	0.160	1.890
2020/01/31 22:39:40.2	124.190	-0.200	0.210	1.880
2020/01/31 22:39:40.3	124.170	-0.210	0.260	1.860
2020/01/31 22:39:40.4	124.150	-0.220	0.300	1.840
2020/01/31 22:39:40.5	124.140	-0.240	0.340	1.820
2020/01/31 22:39:40.6	124.120	-0.250	0.370	1.800
2020/01/31 22:39:40.7	124.100	-0.260	0.400	1.780
2020/01/31 22:39:40.8	124.080	-0.260	0.420	1.760
2020/01/31 22:39:40.9	124.060	-0.270	0.430	1.740
2020/01/31 22:39:41.0	124.050	-0.270	0.440	1.720
2020/01/31 22:39:41.1	124.020	-0.280	0.440	1.700
2020/01/31 22:39:41.2	124.000	-0.280	0.440	1.680
2020/01/31 22:39:41.3	123.980	-0.280	0.430	1.650
2020/01/31 22:39:41.4	123.950	-0.280	0.420	1.630
2020/01/31 22:39:41.5	123.930	-0.270	0.410	1.610
2020/01/31 22:39:41.6	123.900	-0.270	0.390	1.580
2020/01/31 22:39:41.7	123.870	-0.260	0.370	1.560
2020/01/31 22:39:41.8	123.850	-0.250	0.350	1.540
2020/01/31 22:39:41.9	123.820	-0.240	0.330	1.510
2020/01/31 22:39:42.0	123.780	-0.230	0.300	1.490
2020/01/31 22:39:42.1	123.750	-0.210	0.270	1.470
2020/01/31 22:39:42.2	123.720	-0.200	0.240	1.460
2020/01/31 22:39:42.3	123.690	-0.190	0.220	1.440
2020/01/31 22:39:42.4	123.660	-0.170	0.190	1.430
2020/01/31 22:39:42.5	123.630	-0.160	0.160	1.410
2020/01/31 22:39:42.6	123.600	-0.140	0.130	1.400
2020/01/31 22:39:42.7	123.560	-0.130	0.100	1.390
2020/01/31 22:39:42.8	123.530	-0.110	0.080	1.390
2020/01/31 22:39:42.9	123.490	-0.100	0.050	1.380
2020/01/31 22:39:43.0	123.450	-0.080	0.030	1.380
2020/01/31 22:39:43.1	123.410	-0.070	0.010	1.380
2020/01/31 22:39:43.2	123.370	-0.060	-0.000	1.380
2020/01/31 22:39:43.3	123.330	-0.050	-0.020	1.380
2020/01/31 22:39:43.4	123.290	-0.040	-0.030	1.380
2020/01/31 22:39:43.5	123.250	-0.030	-0.040	1.380
2020/01/31 22:39:43.6	123.210	-0.020	-0.050	1.380
2020/01/31 22:39:43.7	123.170	-0.010	-0.050	1.370
2020/01/31 22:39:43.8	123.130	-0.010	-0.060	1.370
2020/01/31 22:39:43.9	123.090	-0.000	-0.060	1.360
2020/01/31 22:39:44.0	123.050	-0.000	-0.060	1.360
2020/01/31 22:39:44.1	123.010	-0.000	-0.060	1.350
2020/01/31 22:39:44.2	122.970	-0.000	-0.060	1.340
2020/01/31 22:39:44.3	122.930	-0.010	-0.060	1.320
2020/01/31 22:39:44.4	122.900	-0.010	-0.060	1.310
2020/01/31 22:39:44.5	122.860	-0.010	-0.060	1.290
2020/01/31 22:39:44.6	122.830	-0.020	-0.070	1.270
2020/01/31 22:39:44.7	122.790	-0.020	-0.070	1.250
2020/01/31 22:39:44.8	122.760	-0.030	-0.070	1.230
2020/01/31 22:39:44.9	122.730	-0.030	-0.080	1.210
2020/01/31 22:39:45.0	122.690	-0.040	-0.090	1.190
2020/01/31 22:39:45.1	122.650	-0.040	-0.100	1.170
2020/01/31 22:39:45.2	122.620	-0.040	-0.110	1.150
2020/01/31 22:39:45.3	122.580	-0.050	-0.120	1.130
2020/01/31 22:39:45.4	122.540	-0.050	-0.140	1.110
2020/01/31 22:39:45.5	122.510	-0.050	-0.160	1.100
2020/01/31 22:39:45.6	122.470	-0.050	-0.180	1.090
2020/01/31 22:39:45.7	122.430	-0.050	-0.210	1.080
2020/01/31 22:39:45.8	122.380	-0.040	-0.240	1.080
2020/01/31 22:39:45.9	122.340	-0.040	-0.270	1.080
2020/01/31 22:39:46.0	122.300	-0.030	-0.300	1.090
2020/01/31 22:39:46.1	122.260	-0.020	-0.340	1.100
2020/01/31 22:39:46.2	122.210	-0.010	-0.370	1.110
2020/01/31 22:39:46.3	122.160	0.000	-0.410	1.120
2020/01/31 22:39:46.4	122.120	0.020	-0.450	1.140
2020/01/31 22:39:46.5	122.070	0.030	-0.490	1.160
2020/01/31 22:39:46.6	122.020	0.050	-0.530	1.190
2020/01/31 22:39:46.7	121.970	0.070	-0.570	1.220
2020/01/31 22:39:46.8	121.920	0.090	-0.610	1.250
2020/01/31 22:39:46.9	121.860	0.110	-0.650	1.280
2020/01/31 22:39:47.0	121.810	0.140	-0.700	1.310
2020/01/31 22:39:47.1	121.760	0.160	-0.740	1.350
2020/01/31 22:39:47.2	121.700	0.180	-0.780	1.380
2020/01/31 22:39:47.3	121.650	0.210	-0.810	1.410
2020/01/31 22:39:47.4	121.590	0.230	-0.850	1.450
2020/01/31 22:39:47.5	121.540	0.260	-0.880	1.480
2020/01/31 22:39:47.6	121.480	0.280	-0.910	1.510
2020/01/31 22:39:47.7	121.420	0.310	-0.940	1.540
2020/01/31 22:39:47.8	121.370	0.330	-0.970	1.570
2020/01/31 22:39:47.9	121.310	0.350	-0.990	1.600
2020/01/31 22:39:48.0	121.240	0.370	-1.010	1.620
2020/01/31 22:39:48.1	121.190	0.390	-1.020	1.650
2020/01/31 22:39:48.2	121.130	0.410	-1.030	1.670
2020/01/31 22:39:48.3	121.080	0.420	-1.030	1.690
2020/01/31 22:39:48.4	121.020	0.430	-1.030	1.710
2020/01/31 22:39:48.5	120.970	0.440	-1.020	1.730
2020/01/31 22:39:48.6	120.910	0.450	-1.010	1.750
2020/01/31 22:39:48.7	120.860	0.450	-0.990	1.770
2020/01/31 22:39:48.8	120.810	0.450	-0.970	1.790
2020/01/31 22:39:48.9	120.760	0.450	-0.940	1.810
2020/01/31 22:39:49.0	120.710	0.440	-0.900	1.830
2020/01/31 22:39:49.1	120.660	0.430	-0.860	1.850
2020/01/31 22:39:49.2	120.620	0.410	-0.810	1.870
2020/01/31 22:39:49.3	120.570	0.390	-0.760	1.890
2020/01/31 22:39:49.4	120.530	0.370	-0.700	1.910
2020/01/31 22:39:49.5	120.490	0.340	-0.630	1.930
2020/01/31 22:39:49.6	120.450	0.310	-0.560	1.950
2020/01/31 22:39:49.7	120.410	0.280	-0.490	1.970
2020/01/31 22:39:49.8	120.370	0.240	-0.410	1.990
2020/01/31 22:39:49.9	120.330	0.210	-0.330	2.010
2020/01/31 22:39:50.0	120.300	0.160	-0.250	2.030
2020/01/31 22:39:50.1	120.260	0.120	-0.160	2.050
2020/01/31 22:39:50.2	120.230	0.070	-0.080	2.060
2020/01/31 22:39:50.3	120.190	0.020	0.010	2.080
2020/01/31 22:39:50.4	120.160	-0.030	0.090	2.090
2020/01/31 22:39:50.5	120.120	-0.080	0.180	2.100
2020/01/31 22:39:50.6	120.080	-0.130	0.260	2.110
2020/01/31 22:39:50.7	120.050	-0.180	0.340	2.120
2020/01/31 22:39:50.8	120.010	-0.230	0.420	2.120
2020/01/31 22:39:50.9	119.970	-0.280	0.490	2.120
2020/01/31 22:39:51.0	119.940	-0.330	0.560	2.120
2020/01/31 22:39:51.1	119.900	-0.380	0.620	2.110
2020/01/31 22:39:51.2	119.850	-0.420	0.670	2.110
2020/01/31 22:39:51.3	119.810	-0.460	0.720	2.090
2020/01/31 22:39:51.4	119.770	-0.500	0.760	2.080
2020/01/31 22:39:51.5	119.720	-0.540	0.790	2.060
2020/01/31 22:39:51.6	119.680	-0.570	0.820	2.050
2020/01/31 22:39:51.7	119.630	-0.590	0.830	2.030
2020/01/31 22:39:51.8	119.580	-0.610	0.840	2.000
2020/01/31 22:39:51.9	119.530	-0.630	0.840	1.980
2020/01/31 22:39:52.0	119.460	-0.640	0.820	1.960
2020/01/31 22:39:52.1	119.410	-0.640	0.800	1.940
2020/01/31 22:39:52.2	119.360	-0.640	0.770	1.920
2020/01/31 22:39:52.3	119.310	-0.640	0.730	1.900
2020/01/31 22:39:52.4	119.270	-0.620	0.690	1.880
2020/01/31 22:39:52.5	119.220	-0.600	0.630	1.860
2020/01/31 22:39:52.6	119.170	-0.580	0.570	1.850
2020/01/31 22:39:52.7	119.130	-0.550	0.510	1.830
2020/01/31 22:39:52.8	119.080	-0.520	0.440	1.810
2020/01/31 22:39:52.9	119.040	-0.480	0.360	1.790
2020/01/31 22:39:53.0	119.000	-0.440	0.280	1.770
2020/01/31 22:39:53.1	118.960	-0.390	0.200	1.750
2020/01/31 22:39:53.2	118.930	-0.340	0.110	1.730
2020/01/31 22:39:53.3	118.890	-0.290	0.020	1.700
2020/01/31 22:39:53.4	118.860	-0.230	-0.070	1.670
2020/01/31 22:39:53.5	118.830	-0.170	-0.160	1.640
2020/01/31 22:39:53.6	118.810	-0.110	-0.250	1.610
2020/01/31 22:39:53.7	118.790	-0.050	-0.340	1.570
2020/01/31 22:39:53.8	118.760	0.010	-0.430	1.530
2020/01/31 22:39:53.9	118.750	0.070	-0.510	1.490
2020/01/31 22:39:54.0	118.730	0.120	-0.600	1.450
2020/01/31 22:39:54.1	118.720	0.180	-0.680	1.400
2020/01/31 22:39:54.2	118.700	0.240	-0.750	1.350
2020/01/31 22:39:54.3	118.690	0.290	-0.820	1.300
2020/01/31 22:39:54.4	118.680	0.340	-0.880	1.250
2020/01/31 22:39:54.5	118.670	0.390	-0.930	1.200
2020/01/31 22:39:54.6	118.670	0.430	-0.970	1.150
2020/01/31 22:39:54.7	118.660	0.470	-1.010	1.100
2020/01/31 22:39:54.8	118.650	0.500	-1.030	1.050
2020/01/31 22:39:54.9	118.640	0.530	-1.050	1.000
2020/01/31 22:39:55.0	118.620	0.550	-1.060	0.950
2020/01/31 22:39:55.1	118.610	0.570	-1.050	0.900
2020/01/31 22:39:55.2	118.600	0.590	-1.040	0.860
2020/01/31 22:39:55.3	118.580	0.600	-1.010	0.820
2020/01/31 22:39:55.4	118.570	0.600	-0.970	0.780
2020/01/31 22:39:55.5	118.560	0.600	-0.930	0.750
2020/01/31 22:39:55.6	118.540	0.590	-0.870	0.720
2020/01/31 22:39:55.7	118.520	0.580	-0.810	0.690
2020/01/31 22:39:55.8	118.510	0.560	-0.730	0.670
2020/01/31 22:39:55.9	118.490	0.540	-0.650	0.650
2020/01/31 22:39:56.0	118.450	0.510	-0.550	0.640
2020/01/31 22:39:56.1	118.430	0.480	-0.450	0.640
2020/01/31 22:39:56.2	118.410	0.440	-0.350	0.630
2020/01/31 22:39:56.3	118.380	0.400	-0.240	0.630
2020/01/31 22:39:56.4	118.360	0.360	-0.130	0.640
2020/01/31 22:39:56.5	118.330	0.310	-0.020	0.650
2020/01/31 22:39:56.6	118.300	0.260	0.090	0.660
2020/01/31 22:39:56.7	118.270	0.210	0.200	0.680
2020/01/31 22:39:56.8	118.230	0.160	0.310	0.700
2020/01/31 22:39:56.9	118.200	0.110	0.410	0.730
2020/01/31 22:39:57.0	118.150	0.060	0.500	0.750
2020/01/31 22:39:57.1	118.110	0.010	0.590	0.780
2020/01/31 22:39:57.2	118.070	-0.040	0.670	0.810
2020/01/31 22:39:57.3	118.030	-0.090	0.740	0.840
2020/01/31 22:39:57.4	117.990	-0.140	0.800	0.870
2020/01/31 22:39:57.5	117.940	-0.180	0.850	0.900
2020/01/31 22:39:57.6	117.900	-0.220	0.880	0.940
2020/01/31 22:39:57.7	117.850	-0.260	0.900	0.970
2020/01/31 22:39:57.8	117.800	-0.290	0.900	1.010
2020/01/31 22:39:57.9	117.750	-0.310	0.890	1.050
2020/01/31 22:39:58.0	117.690	-0.330	0.860	1.080
2020/01/31 22:39:58.1	117.640	-0.350	0.820	1.120
2020/01/31 22:39:58.2	117.580	-0.360	0.760	1.160
2020/01/31 22:39:58.3	117.530	-0.360	0.690	1.200
2020/01/31 22:39:58.4	117.470	-0.360	0.600	1.240
2020/01/31 22:39:58.5	117.410	-0.350	0.500	1.280
2020/01/31 22:39:58.6	117.350	-0.340	0.400	1.320
2020/01/31 22:39:58.7	117.290	-0.320	0.280	1.360
2020/01/31 22:39:58.8	117.230	-0.300	0.150	1.410
2020/01/31 22:39:58.9	117.170	-0.280	0.020	1.450
2020/01/31 22:39:59.0	117.110	-0.250	-0.110	1.500
2020/01/31 22:39:59.1	117.040	-0.220	-0.250	1.550
2020/01/31 22:39:59.2	116.980	-0.180	-0.390	1.590
2020/01/31 22:39:59.3	116.920	-0.150	-0.530	1.630
2020/01/31 22:39:59.4	116.860	-0.110	-0.660	1.680
2020/01/31 22:39:59.5	116.790	-0.080	-0.790	1.720
2020/01/31 22:39:59.6	116.730	-0.040	-0.920	1.760
2020/01/31 22:39:59.7	116.670	-0.010	-1.030	1.800
2020/01/31 22:39:59.8	116.610	0.030	-1.140	1.840
2020/01/31 22:39:59.9	116.560	0.060	-1.240	1.880
2020/01/31 22:40:00.0	116.510	0.090	-1.330	1.910
2020/01/31 22:40:00.1	116.460	0.120	-1.400	1.940
2020/01/31 22:40:00.2	116.400	0.150	-1.470	1.970
2020/01/31 22:40:00.3	116.350	0.170	-1.520	1.990
2020/01/31 22:40:00.4	116.300	0.190	-1.560	2.020
2020/01/31 22:40:00.5	116.250	0.200	-1.580	2.040
2020/01/31 22:40:00.6	116.200	0.220	-1.590	2.060
2020/01/31 22:40:00.7	116.160	0.220	-1.590	2.080
2020/01/31 22:40:00.8	116.120	0.230	-1.570	2.090
2020/01/31 22:40:00.9	116.070	0.230	-1.540	2.100
2020/01/31 22:40:01.0	116.050	0.220	-1.500	2.120
2020/01/31 22:40:01.1	116.010	0.220	-1.440	2.120
2020/01/31 22:40:01.2	115.980	0.200	-1.370	2.130
2020/01/31 22:40:01.3	115.940	0.190	-1.300	2.130
2020/01/31 22:40:01.4	115.910	0.170	-1.210	2.130
2020/01/31 22:40:01.5	115.870	0.150	-1.120	2.130
2020/01/31 22:40:01.6	115.840	0.130	-1.020	2.130
2020/01/31 22:40:01.7	115.810	0.100	-0.910	2.130
2020/01/31 22:40:01.8	115.780	0.070	-0.800	2.130
2020/01/31 22:40:01.9	115.740	0.040	-0.690	2.130
2020/01/31 22:40:02.0	115.720	0.010	-0.570	2.120
2020/01/31 22:40:02.1	115.690	-0.020	-0.450	2.130
2020/01/31 22:40:02.2	115.660	-0.050	-0.340	2.130
2020/01/31 22:40:02.3	115.630	-0.080	-0.220	2.130
2020/01/31 22:40:02.4	115.600	-0.110	-0.110	2.130
2020/01/31 22:40:02.5	115.570	-0.140	-0.000	2.140
2020/01/31 22:40:02.6	115.530	-0.170	0.100	2.140
2020/01/31 22:40:02.7	115.500	-0.200	0.190	2.140
2020/01/31 22:40:02.8	115.470	-0.230	0.280	2.150
2020/01/31 22:40:02.9	115.440	-0.260	0.360	2.150
2020/01/31 22:40:03.0	115.400	-0.280	0.430	2.160
2020/01/31 22:40:03.1	115.370	-0.300	0.490	2.170
2020/01/31 22:40:03.2	115.330	-0.320	0.550	2.170
2020/01/31 22:40:03.3	115.300	-0.340	0.590	2.170
2020/01/31 22:40:03.4	115.260	-0.360	0.630	2.170
2020/01/31 22:40:03.5	115.230	-0.370	0.650	2.160
2020/01/31 22:40:03.6	115.190	-0.380	0.670	2.160
2020/01/31 22:40:03.7	115.150	-0.390	0.680	2.150
2020/01/31 22:40:03.8	115.110	-0.390	0.680	2.130
2020/01/31 22:40:03.9	115.070	-0.390	0.670	2.120
2020/01/31 22:40:04.0	115.030	-0.390	0.660	2.100
2020/01/31 22:40:04.1	114.990	-0.390	0.630	2.080
2020/01/31 22:40:04.2	114.950	-0.390	0.600	2.060
2020/01/31 22:40:04.3	114.900	-0.380	0.570	2.030
2020/01/31 22:40:04.4	114.860	-0.370	0.530	2.000
2020/01/31 22:40:04.5	114.810	-0.360	0.480	1.960
2020/01/31 22:40:04.6	114.770	-0.350	0.430	1.930
2020/01/31 22:40:04.7	114.720	-0.330	0.380	1.890
2020/01/31 22:40:04.8	114.670	-0.320	0.320	1.850
2020/01/31 22:40:04.9	114.630	-0.300	0.260	1.810
2020/01/31 22:40:05.0	114.600	-0.280	0.200	1.760
2020/01/31 22:40:05.1	114.550	-0.260	0.140	1.720
2020/01/31 22:40:05.2	114.500	-0.240	0.080	1.680
2020/01/31 22:40:05.3	114.460	-0.210	0.020	1.630
2020/01/31 22:40:05.4	114.410	-0.190	-0.030	1.590
2020/01/31 22:40:05.5	114.370	-0.170	-0.090	1.550
2020/01/31 22:40:05.6	114.330	-0.140	-0.140	1.510
2020/01/31 22:40:05.7	114.290	-0.120	-0.190	1.460
2020/01/31 22:40:05.8	114.250	-0.090	-0.240	1.420
2020/01/31 22:40:05.9	114.210	-0.060	-0.280	1.380
2020/01/31 22:40:06.0	114.180	-0.040	-0.320	1.340
2020/01/31 22:40:06.1	114.150	-0.010	-0.350	1.300
2020/01/31 22:40:06.2	114.120	0.010	-0.380	1.250
2020/01/31 22:40:06.3	114.090	0.040	-0.410	1.210
2020/01/31 22:40:06.4	114.060	0.060	-0.430	1.170
2020/01/31 22:40:06.5	114.040	0.080	-0.450	1.120
2020/01/31 22:40:06.6	114.030	0.100	-0.460	1.080
2020/01/31 22:40:06.7	114.010	0.120	-0.470	1.030
2020/01/31 22:40:06.8	114.000	0.140	-0.470	0.980
2020/01/31 22:40:06.9	113.990	0.160	-0.470	0.940
2020/01/31 22:40:07.0	113.980	0.170	-0.470	0.890
2020/01/31 22:40:07.1	113.970	0.190	-0.460	0.840
2020/01/31 22:40:07.2	113.970	0.200	-0.450	0.800
2020/01/31 22:40:07.3	113.970	0.210	-0.440	0.750
2020/01/31 22:40:07.4	113.970	0.230	-0.430	0.710
2020/01/31 22:40:07.5	113.970	0.230	-0.410	0.670
2020/01/31 22:40:07.6	113.970	0.240	-0.400	0.630
2020/01/31 22:40:07.7	113.970	0.250	-0.380	0.590
2020/01/31 22:40:07.8	113.970	0.250	-0.370	0.560
2020/01/31 22:40:07.9	113.970	0.260	-0.350	0.540
2020/01/31 22:40:08.0	113.970	0.260	-0.330	0.510
2020/01/31 22:40:08.1	113.960	0.260	-0.310	0.490
2020/01/31 22:40:08.2	113.950	0.270	-0.300	0.480
2020/01/31 22:40:08.3	113.940	0.270	-0.280	0.470
2020/01/31 22:40:08.4	113.930	0.270	-0.260	0.470
2020/01/31 22:40:08.5	113.910	0.260	-0.250	0.470
2020/01/31 22:40:08.6	113.900	0.260	-0.230	0.470
2020/01/31 22:40:08.7	113.880	0.260	-0.210	0.480
2020/01/31 22:40:08.8	113.850	0.250	-0.200	0.490
2020/01/31 22:40:08.9	113.830	0.240	-0.180	0.510
2020/01/31 22:40:09.0	113.780	0.230	-0.170	0.540
2020/01/31 22:40:09.1	113.750	0.220	-0.150	0.560
2020/01/31 22:40:09.2	113.720	0.210	-0.140	0.590
2020/01/31 22:40:09.3	113.680	0.200	-0.120	0.620
2020/01/31 22:40:09.4	113.640	0.190	-0.110	0.660
2020/01/31 22:40:09.5	113.600	0.170	-0.090	0.700
2020/01/31 22:40:09.6	113.560	0.160	-0.080	0.740
2020/01/31 22:40:09.7	113.510	0.140	-0.070	0.780
2020/01/31 22:40:09.8	113.460	0.120	-0.060	0.820
2020/01/31 22:40:09.9	113.410	0.110	-0.050	0.870
2020/01/31 22:40:10.0	113.370	0.090	-0.040	0.920
2020/01/31 22:40:10.1	113.310	0.070	-0.030	0.970
2020/01/31 22:40:10.2	113.250	0.060	-0.030	1.020
2020/01/31 22:40:10.3	113.200	0.040	-0.020	1.070
2020/01/31 22:40:10.4	113.140	0.030	-0.020	1.130
2020/01/31 22:40:10.5	113.080	0.010	-0.020	1.180
2020/01/31 22:40:10.6	113.010	0.000	-0.020	1.230
2020/01/31 22:40:10.7	112.950	-0.010	-0.020	1.290
2020/01/31 22:40:10.8	112.890	-0.020	-0.030	1.340
2020/01/31 22:40:10.9	112.830	-0.020	-0.040	1.390
2020/01/31 22:40:11.0	112.770	-0.030	-0.050	1.440
2020/01/31 22:40:11.1	112.700	-0.030	-0.060	1.490
2020/01/31 22:40:11.2	112.640	-0.030	-0.070	1.540
2020/01/31 22:40:11.3	112.580	-0.030	-0.090	1.580
2020/01/31 22:40:11.4	112.520	-0.030	-0.110	1.620
2020/01/31 22:40:11.5	112.460	-0.020	-0.140	1.660
2020/01/31 22:40:11.6	112.400	-0.010	-0.160	1.700
2020/01/31 22:40:11.7	112.340	-0.000	-0.190	1.730
2020/01/31 22:40:11.8	112.280	0.010	-0.210	1.760
2020/01/31 22:40:11.9	112.220	0.020	-0.240	1.790
2020/01/31 22:40:12.0	112.140	0.040	-0.270	1.820
2020/01/31 22:40:12.1	112.090	0.060	-0.300	1.840
2020/01/31 22:40:12.2	112.030	0.070	-0.330	1.860
2020/01/31 22:40:12.3	111.980	0.090	-0.360	1.870
2020/01/31 22:40:12.4	111.930	0.110	-0.380	1.880
2020/01/31 22:40:12.5	111.880	0.130	-0.410	1.880
2020/01/31 22:40:12.6	111.840	0.150	-0.440	1.880
2020/01/31 22:40:12.7	111.800	0.160	-0.460	1.880
2020/01/31 22:40:12.8	111.760	0.180	-0.480	1.870
2020/01/31 22:40:12.9	111.720	0.200	-0.500	1.860
2020/01/31 22:40:13.0	111.680	0.210	-0.520	1.840
2020/01/31 22:40:13.1	111.640	0.230	-0.530	1.820
2020/01/31 22:40:13.2	111.610	0.240	-0.540	1.800
2020/01/31 22:40:13.3	111.580	0.250	-0.550	1.780
2020/01/31 22:40:13.4	111.550	0.250	-0.550	1.760
2020/01/31 22:40:13.5	111.520	0.260	-0.550	1.740
2020/01/31 22:40:13.6	111.500	0.260	-0.550	1.720
2020/01/31 22:40:13.7	111.480	0.260	-0.540	1.700
2020/01/31 22:40:13.8	111.450	0.260	-0.530	1.680
2020/01/31 22:40:13.9	111.430	0.250	-0.510	1.660
2020/01/31 22:40:14.0	111.400	0.250	-0.490	1.640
2020/01/31 22:40:14.1	111.380	0.240	-0.470	1.630
2020/01/31 22:40:14.2	111.350	0.220	-0.440	1.610
2020/01/31 22:40:14.3	111.330	0.210	-0.410	1.600
2020/01/31 22:40:14.4	111.310	0.190	-0.380	1.590
2020/01/31 22:40:14.5	111.290	0.170	-0.350	1.580
2020/01/31 22:40:14.6	111.270	0.150	-0.320	1.570
2020/01/31 22:40:14.7	111.250	0.130	-0.280	1.560
2020/01/31 22:40:14.8	111.230	0.100	-0.240	1.560
2020/01/31 22:40:14.9	111.200	0.080	-0.210	1.550
2020/01/31 22:40:15.0	111.190	0.050	-0.170	1.550
2020/01/31 22:40:15.1	111.170	0.020	-0.140	1.540
2020/01/31 22:40:15.2	111.150	-0.010	-0.110	1.540
2020/01/31 22:40:15.3	111.130	-0.030	-0.080	1.530
2020/01/31 22:40:15.4	111.100	-0.060	-0.050	1.530
2020/01/31 22:40:15.5	111.080	-0.090	-0.020	1.530
2020/01/31 22:40:15.6	111.060	-0.120	0.000	1.520
2020/01/31 22:40:15.7	111.040	-0.150	0.020	1.520
2020/01/31 22:40:15.8	111.010	-0.170	0.040	1.510
2020/01/31 22:40:15.9	110.990	-0.200	0.050	1.510
2020/01/31 22:40:16.0	110.960	-0.220	0.060	1.510
2020/01/31 22:40:16.1	110.940	-0.250	0.060	1.510
2020/01/31 22:40:16.2	110.910	-0.270	0.060	1.510
2020/01/31 22:40:16.3	110.880	-0.280	0.060	1.510
2020/01/31 22:40:16.4	110.850	-0.300	0.050	1.510
2020/01/31 22:40:16.5	110.810	-0.310	0.040	1.520
2020/01/31 22:40:16.6	110.780	-0.320	0.030	1.520
2020/01/31 22:40:16.7	110.740	-0.330	0.010	1.530
2020/01/31 22:40:16.8	110.700	-0.340	-0.010	1.540
2020/01/31 22:40:16.9	110.660	-0.340	-0.040	1.560
2020/01/31 22:40:17.0	110.610	-0.340	-0.070	1.570
2020/01/31 22:40:17.1	110.560	-0.340	-0.100	1.590
2020/01/31 22:40:17.2	110.510	-0.330	-0.140	1.610
2020/01/31 22:40:17.3	110.460	-0.320	-0.170	1.630
2020/01/31 22:40:17.4	110.410	-0.310	-0.210	1.660
2020/01/31 22:40:17.5	110.350	-0.290	-0.250	1.680
2020/01/31 22:40:17.6	110.290	-0.270	-0.300	1.710
2020/01/31 22:40:17.7	110.230	-0.250	-0.340	1.730
2020/01/31 22:40:17.8	110.170	-0.230	-0.380	1.760
2020/01/31 22:40:17.9	110.100	-0.210	-0.420	1.780
2020/01/31 22:40:18.0	110.050	-0.180	-0.460	1.810
2020/01/31 22:40:18.1	109.980	-0.150	-0.500	1.840
2020/01/31 22:40:18.2	109.910	-0.130	-0.540	1.860
2020/01/31 22:40:18.3	109.840	-0.090	-0.580	1.880
2020/01/31 22:40:18.4	109.770	-0.060	-0.620	1.890
2020/01/31 22:40:18.5	109.700	-0.030	-0.650	1.910
2020/01/31 22:40:18.6	109.640	-0.000	-0.690	1.920
2020/01/31 22:40:18.7	109.570	0.030	-0.710	1.930
2020/01/31 22:40:18.8	109.500	0.060	-0.740	1.930
2020/01/31 22:40:18.9	109.440	0.090	-0.760	1.930
2020/01/31 22:40:19.0	109.380	0.120	-0.790	1.930
2020/01/31 22:40:19.1	109.320	0.140	-0.800	1.920
2020/01/31 22:40:19.2	109.260	0.170	-0.810	1.910
2020/01/31 22:40:19.3	109.200	0.190	-0.820	1.890
2020/01/31 22:40:19.4	109.150	0.210	-0.820	1.880
2020/01/31 22:40:19.5	109.100	0.230	-0.810	1.860
2020/01/31 22:40:19.6	109.050	0.240	-0.800	1.840
2020/01/31 22:40:19.7	109.010	0.250	-0.780	1.810
2020/01/31 22:40:19.8	108.960	0.260	-0.760	1.790
2020/01/31 22:40:19.9	108.920	0.260	-0.730	1.770
2020/01/31 22:40:20.0	108.890	0.260	-0.700	1.740
2020/01/31 22:40:20.1	108.860	0.250	-0.660	1.710
2020/01/31 22:40:20.2	108.830	0.240	-0.620	1.680
2020/01/31 22:40:20.3	108.800	0.230	-0.570	1.660
2020/01/31 22:40:20.4	108.770	0.210	-0.510	1.630
2020/01/31 22:40:20.5	108.750	0.190	-0.450	1.600
2020/01/31 22:40:20.6	108.730	0.170	-0.390	1.570
2020/01/31 22:40:20.7	108.710	0.140	-0.320	1.540
2020/01/31 22:40:20.8	108.690	0.110	-0.250	1.510
2020/01/31 22:40:20.9	108.680	0.080	-0.180	1.480
2020/01/31 22:40:21.0	108.660	0.040	-0.100	1.450
2020/01/31 22:40:21.1	108.650	0.010	-0.030	1.420
2020/01/31 22:40:21.2	108.640	-0.030	0.050	1.390
2020/01/31 22:40:21.3	108.630	-0.070	0.130	1.360
2020/01/31 22:40:21.4	108.620	-0.110	0.210	1.330
2020/01/31 22:40:21.5	108.620	-0.160	0.290	1.300
2020/01/31 22:40:21.6	108.610	-0.200	0.360	1.270
2020/01/31 22:40:21.7	108.610	-0.240	0.440	1.240
2020/01/31 22:40:21.8	108.610	-0.280	0.510	1.210
2020/01/31 22:40:21.9	108.600	-0.320	0.580	1.180
2020/01/31 22:40:22.0	108.590	-0.360	0.640	1.150
2020/01/31 22:40:22.1	108.580	-0.400	0.700	1.130
2020/01/31 22:40:22.2	108.580	-0.440	0.760	1.110
2020/01/31 22:40:22.3	108.580	-0.470	0.810	1.090
2020/01/31 22:40:22.4	108.570	-0.510	0.850	1.070
2020/01/31 22:40:22.5	108.560	-0.540	0.890	1.060
2020/01/31 22:40:22.6	108.550	-0.560	0.920	1.050
2020/01/31 22:40:22.7	108.540	-0.590	0.940	1.050
2020/01/31 22:40:22.8	108.530	-0.610	0.960	1.050
2020/01/31 22:40:22.9	108.510	-0.630	0.960	1.050
2020/01/31 22:40:23.0	108.500	-0.640	0.960	1.060
2020/01/31 22:40:23.1	108.480	-0.650	0.950	1.070
2020/01/31 22:40:23.2	108.450	-0.650	0.930	1.090
2020/01/31 22:40:23.3	108.420	-0.650	0.900	1.100
2020/01/31 22:40:23.4	108.390	-0.650	0.870	1.120
2020/01/31 22:40:23.5	108.360	-0.640	0.820	1.140
2020/01/31 22:40:23.6	108.320	-0.630	0.770	1.160
2020/01/31 22:40:23.7	108.290	-0.610	0.710	1.190
2020/01/31 22:40:23.8	108.250	-0.590	0.640	1.210
2020/01/31 22:40:23.9	108.210	-0.560	0.560	1.230
2020/01/31 22:40:24.0	108.170	-0.530	0.470	1.240
2020/01/31 22:40:24.1	108.130	-0.500	0.380	1.260
2020/01/31 22:40:24.2	108.080	-0.460	0.280	1.270
2020/01/31 22:40:24.3	108.040	-0.420	0.180	1.290
2020/01/31 22:40:24.4	107.990	-0.370	0.080	1.300
2020/01/31 22:40:24.5	107.950	-0.320	-0.030	1.300
2020/01/31 22:40:24.6	107.900	-0.270	-0.150	1.310
2020/01/31 22:40:24.7	107.850	-0.220	-0.260	1.310
2020/01/31 22:40:24.8	107.810	-0.160	-0.380	1.310
2020/01/31 22:40:24.9	107.760	-0.100	-0.490	1.310
2020/01/31 22:40:25.0	107.710	-0.040	-0.610	1.310
2020/01/31 22:40:25.1	107.650	0.020	-0.720	1.310
2020/01/31 22:40:25.2	107.600	0.080	-0.830	1.310
2020/01/31 22:40:25.3	107.550	0.140	-0.940	1.320
2020/01/31 22:40:25.4	107.500	0.200	-1.040	1.320
2020/01/31 22:40:25.5	107.450	0.260	-1.140	1.320
2020/01/31 22:40:25.6	107.400	0.320	-1.240	1.330
2020/01/31 22:40:25.7	107.340	0.380	-1.320	1.340
2020/01/31 22:40:25.8	107.290	0.440	-1.400	1.340
2020/01/31 22:40:25.9	107.240	0.490	-1.470	1.350
2020/01/31 22:40:26.0	107.180	0.540	-1.530	1.370
2020/01/31 22:40:26.1	107.130	0.580	-1.580	1.370
2020/01/31 22:40:26.2	107.080	0.630	-1.630	1.380
2020/01/31 22:40:26.3	107.030	0.670	-1.660	1.390
2020/01/31 22:40:26.4	106.980	0.700	-1.680	1.400
2020/01/31 22:40:26.5	106.940	0.730	-1.690	1.410
2020/01/31 22:40:26.6	106.890	0.750	-1.680	1.410
2020/01/31 22:40:26.7	106.850	0.770	-1.670	1.420
2020/01/31 22:40:26.8	106.810	0.780	-1.640	1.420
2020/01/31 22:40:26.9	106.770	0.790	-1.600	1.420
2020/01/31 22:40:27.0	106.740	0.790	-1.560	1.410
2020/01/31 22:40:27.1	106.710	0.780	-1.500	1.410
2020/01/31 22:40:27.2	106.670	0.770	-1.420	1.400
2020/01/31 22:40:27.3	106.640	0.750	-1.340	1.390
2020/01/31 22:40:27.4	106.610	0.730	-1.250	1.370
2020/01/31 22:40:27.5	106.580	0.700	-1.150	1.360
2020/01/31 22:40:27.6	106.550	0.670	-1.040	1.340
2020/01/31 22:40:27.7	106.530	0.630	-0.920	1.320
2020/01/31 22:40:27.8	106.500	0.590	-0.800	1.300
2020/01/31 22:40:27.9	106.470	0.550	-0.680	1.280
2020/01/31 22:40:28.0	106.450	0.500	-0.540	1.270
2020/01/31 22:40:28.1	106.430	0.450	-0.400	1.240
2020/01/31 22:40:28.2	106.400	0.400	-0.270	1.230
2020/01/31 22:40:28.3	106.370	0.340	-0.130	1.210
2020/01/31 22:40:28.4	106.330	0.290	0.000	1.190
2020/01/31 22:40:28.5	106.300	0.230	0.130	1.180
2020/01/31 22:40:28.6	106.270	0.170	0.260	1.170
2020/01/31 22:40:28.7	106.230	0.110	0.390	1.160
2020/01/31 22:40:28.8	106.200	0.060	0.510	1.160
2020/01/31 22:40:28.9	106.160	0.000	0.620	1.160
2020/01/31 22:40:29.0	106.130	-0.050	0.720	1.160
2020/01/31 22:40:29.1	106.090	-0.100	0.820	1.160
2020/01/31 22:40:29.2	106.040	-0.150	0.900	1.170
2020/01/31 22:40:29.3	106.000	-0.190	0.980	1.190
2020/01/31 22:40:29.4	105.960	-0.230	1.040	1.200
2020/01/31 22:40:29.5	105.920	-0.270	1.090	1.210
2020/01/31 22:40:29.6	105.870	-0.300	1.130	1.230
2020/01/31 22:40:29.7	105.830	-0.330	1.150	1.250
2020/01/31 22:40:29.8	105.790	-0.360	1.160	1.270
2020/01/31 22:40:29.9	105.750	-0.370	1.160	1.290
2020/01/31 22:40:30.0	105.700	-0.390	1.150	1.320
2020/01/31 22:40:30.1	105.660	-0.400	1.120	1.340
2020/01/31 22:40:30.2	105.620	-0.400	1.080	1.370
2020/01/31 22:40:30.3	105.580	-0.400	1.020	1.390
2020/01/31 22:40:30.4	105.540	-0.400	0.960	1.410
2020/01/31 22:40:30.5	105.500	-0.390	0.880	1.430
2020/01/31 22:40:30.6	105.460	-0.380	0.800	1.450
2020/01/31 22:40:30.7	105.430	-0.360	0.700	1.460
2020/01/31 22:40:30.8	105.390	-0.340	0.600	1.480
2020/01/31 22:40:30.9	105.350	-0.320	0.490	1.490
2020/01/31 22:40:31.0	105.330	-0.290	0.380	1.500
2020/01/31 22:40:31.1	105.300	-0.260	0.260	1.510
2020/01/31 22:40:31.2	105.260	-0.230	0.140	1.520
2020/01/31 22:40:31.3	105.230	-0.200	0.010	1.530
2020/01/31 22:40:31.4	105.190	-0.170	-0.110	1.530
2020/01/31 22:40:31.5	105.160	-0.130	-0.240	1.530
2020/01/31 22:40:31.6	105.130	-0.090	-0.360	1.530
2020/01/31 22:40:31.7	105.100	-0.060	-0.480	1.530
2020/01/31 22:40:31.8	105.070	-0.020	-0.600	1.530
2020/01/31 22:40:31.9	105.040	0.010	-0.710	1.520
2020/01/31 22:40:32.0	105.020	0.050	-0.810	1.510
2020/01/31 22:40:32.1	104.990	0.080	-0.910	1.500
2020/01/31 22:40:32.2	104.970	0.120	-1.000	1.490
2020/01/31 22:40:32.3	104.940	0.150	-1.080	1.480
2020/01/31 22:40:32.4	104.910	0.180	-1.150	1.460
2020/01/31 22:40:32.5	104.890	0.210	-1.210	1.450
2020/01/31 22:40:32.6	104.870	0.230	-1.260	1.440
2020/01/31 22:40:32.7	104.840	0.260	-1.300	1.420
2020/01/31 22:40:32.8	104.820	0.280	-1.330	1.410
2020/01/31 22:40:32.9	104.800	0.300	-1.340	1.390
2020/01/31 22:40:33.0	104.780	0.310	-1.350	1.380
2020/01/31 22:40:33.1	104.760	0.330	-1.350	1.370
2020/01/31 22:40:33.2	104.740	0.340	-1.330	1.360
2020/01/31 22:40:33.3	104.720	0.350	-1.300	1.350
2020/01/31 22:40:33.4	104.690	0.350	-1.260	1.350
2020/01/31 22:40:33.5	104.670	0.350	-1.210	1.340
2020/01/31 22:40:33.6	104.650	0.350	-1.150	1.340
2020/01/31 22:40:33.7	104.630	0.350	-1.090	1.340
2020/01/31 22:40:33.8	104.610	0.340	-1.010	1.340
2020/01/31 22:40:33.9	104.580	0.330	-0.930	1.340
2020/01/31 22:40:34.0	104.550	0.320	-0.840	1.350
2020/01/31 22:40:34.1	104.530	0.300	-0.750	1.350
2020/01/31 22:40:34.2	104.500	0.280	-0.650	1.360
2020/01/31 22:40:34.3	104.480	0.260	-0.550	1.370
2020/01/31 22:40:34.4	104.450	0.230	-0.450	1.380
2020/01/31 22:40:34.5	104.430	0.210	-0.350	1.390
2020/01/31 22:40:34.6	104.400	0.170	-0.240	1.400
2020/01/31 22:40:34.7	104.380	0.140	-0.140	1.410
2020/01/31 22:40:34.8	104.350	0.110	-0.040	1.420
2020/01/31 22:40:34.9	104.320	0.070	0.050	1.430
2020/01/31 22:40:35.0	104.280	0.030	0.150	1.450
2020/01/31 22:40:35.1	104.250	-0.010	0.240	1.450
2020/01/31 22:40:35.2	104.230	-0.050	0.320	1.460
2020/01/31 22:40:35.3	104.200	-0.090	0.390	1.470
2020/01/31 22:40:35.4	104.170	-0.130	0.460	1.470
2020/01/31 22:40:35.5	104.140	-0.170	0.520	1.480
2020/01/31 22:40:35.6	104.110	-0.210	0.580	1.480
2020/01/31 22:40:35.7	104.070	-0.250	0.620	1.490
2020/01/31 22:40:35.8	104.040	-0.280	0.660	1.490
2020/01/31 22:40:35.9	104.010	-0.320	0.690	1.490
2020/01/31 22:40:36.0	104.000	-0.360	0.710	1.490
2020/01/31 22:40:36.1	103.960	-0.390	0.720	1.480
2020/01/31 22:40:36.2	103.930	-0.420	0.720	1.480
2020/01/31 22:40:36.3	103.890	-0.450	0.710	1.480
2020/01/31 22:40:36.4	103.850	-0.470	0.700	1.480
2020/01/31 22:40:36.5	103.810	-0.490	0.670	1.470
2020/01/31 22:40:36.6	103.780	-0.510	0.640	1.470
2020/01/31 22:40:36.7	103.740	-0.520	0.610	1.470
2020/01/31 22:40:36.8	103.700	-0.540	0.570	1.460
2020/01/31 22:40:36.9	103.660	-0.540	0.520	1.460
2020/01/31 22:40:37.0	103.620	-0.550	0.470	1.460
2020/01/31 22:40:37.1	103.580	-0.550	0.410	1.460
2020/01/31 22:40:37.2	103.540	-0.550	0.360	1.460
2020/01/31 22:40:37.3	103.500	-0.540	0.300	1.460
2020/01/31 22:40:37.4	103.450	-0.540	0.240	1.460
2020/01/31 22:40:37.5	103.410	-0.530	0.180	1.460
2020/01/31 22:40:37.6	103.370	-0.510	0.120	1.450
2020/01/31 22:40:37.7	103.330	-0.500	0.060	1.450
2020/01/31 22:40:37.8	103.290	-0.480	-0.000	1.450
2020/01/31 22:40:37.9	103.240	-0.460	-0.060	1.450
2020/01/31 22:40:38.0	103.200	-0.440	-0.110	1.440
2020/01/31 22:40:38.1	103.160	-0.420	-0.170	1.440
2020/01/31 22:40:38.2	103.110	-0.400	-0.220	1.440
2020/01/31 22:40:38.3	103.070	-0.370	-0.270	1.430
2020/01/31 22:40:38.4	103.020	-0.350	-0.310	1.430
2020/01/31 22:40:38.5	102.980	-0.320	-0.360	1.430
2020/01/31 22:40:38.6	102.930	-0.290	-0.400	1.430
2020/01/31 22:40:38.7	102.880	-0.260	-0.440	1.420
2020/01/31 22:40:38.8	102.830	-0.240	-0.470	1.420
2020/01/31 22:40:38.9	102.780	-0.210	-0.510	1.420
2020/01/31 22:40:39.0	102.750	-0.180	-0.550	1.420
2020/01/31 22:40:39.1	102.690	-0.150	-0.580	1.420
2020/01/31 22:40:39.2	102.640	-0.120	-0.610	1.420
2020/01/31 22:40:39.3	102.590	-0.090	-0.640	1.420
2020/01/31 22:40:39.4	102.540	-0.060	-0.670	1.430
2020/01/31 22:40:39.5	102.480	-0.030	-0.690	1.430
2020/01/31 22:40:39.6	102.430	-0.010	-0.720	1.430
2020/01/31 22:40:39.7	102.380	0.020	-0.740	1.430
2020/01/31 22:40:39.8	102.330	0.050	-0.760	1.440
2020/01/31 22:40:39.9	102.280	0.070	-0.780	1.440
2020/01/31 22:40:40.0	102.250	0.100	-0.800	1.440
2020/01/31 22:40:40.1	102.200	0.120	-0.810	1.440
2020/01/31 22:40:40.2	102.160	0.140	-0.830	1.430
2020/01/31 22:40:40.3	102.110	0.170	-0.840	1.430
2020/01/31 22:40:40.4	102.070	0.190	-0.840	1.420
2020/01/31 22:40:40.5	102.030	0.210	-0.850	1.420
2020/01/31 22:40:40.6	102.000	0.220	-0.860	1.410
2020/01/31 22:40:40.7	101.960	0.240	-0.860	1.390
2020/01/31 22:40:40.8	101.930	0.260	-0.860	1.380
2020/01/31 22:40:40.9	101.900	0.270	-0.860	1.360
2020/01/31 22:40:41.0	101.880	0.290	-0.850	1.340
2020/01/31 22:40:41.1	101.860	0.300	-0.850	1.310
2020/01/31 22:40:41.2	101.830	0.310	-0.840	1.290
2020/01/31 22:40:41.3	101.810	0.320	-0.830	1.260
2020/01/31 22:40:41.4	101.790	0.330	-0.810	1.230
2020/01/31 22:40:41.5	101.780	0.330	-0.800	1.200
2020/01/31 22:40:41.6	101.760	0.340	-0.780	1.170
2020/01/31 22:40:41.7	101.740	0.350	-0.760	1.140
2020/01/31 22:40:41.8	101.730	0.350	-0.730	1.110
2020/01/31 22:40:41.9	101.720	0.350	-0.700	1.080
2020/01/31 22:40:42.0	101.690	0.350	-0.670	1.050
2020/01/31 22:40:42.1	101.680	0.350	-0.630	1.020
2020/01/31 22:40:42.2	101.660	0.350	-0.590	0.990
2020/01/31 22:40:42.3	101.650	0.350	-0.540	0.970
2020/01/31 22:40:42.4	101.640	0.340	-0.490	0.940
2020/01/31 22:40:42.5	101.630	0.330	-0.440	0.920
2020/01/31 22:40:42.6	101.620	0.320	-0.380	0.910
2020/01/31 22:40:42.7	101.600	0.310	-0.320	0.890
2020/01/31 22:40:42.8	101.590	0.300	-0.250	0.880
2020/01/31 22:40:42.9	101.570	0.280	-0.180	0.880
2020/01/31 22:40:43.0	101.570	0.270	-0.100	0.880
2020/01/31 22:40:43.1	101.560	0.250	-0.020	0.870
2020/01/31 22:40:43.2	101.540	0.230	0.060	0.880
2020/01/31 22:40:43.3	101.510	0.200	0.140	0.880
2020/01/31 22:40:43.4	101.490	0.180	0.230	0.880
2020/01/31 22:40:43.5	101.470	0.150	0.310	0.890
2020/01/31 22:40:43.6	101.440	0.120	0.390	0.900
2020/01/31 22:40:43.7	101.410	0.090	0.480	0.910
2020/01/31 22:40:43.8	101.380	0.060	0.560	0.920
2020/01/31 22:40:43.9	101.350	0.030	0.630	0.940
2020/01/31 22:40:44.0	101.310	-0.010	0.710	0.950
2020/01/31 22:40:44.1	101.280	-0.040	0.780	0.970
2020/01/31 22:40:44.2	101.240	-0.070	0.840	0.980
2020/01/31 22:40:44.3	101.200	-0.110	0.890	1.000
2020/01/31 22:40:44.4	101.150	-0.140	0.940	1.010
2020/01/31 22:40:44.5	101.110	-0.170	0.970	1.030
2020/01/31 22:40:44.6	101.060	-0.200	1.000	1.050
2020/01/31 22:40:44.7	101.020	-0.230	1.020	1.070
2020/01/31 22:40:44.8	100.970	-0.260	1.020	1.080
2020/01/31 22:40:44.9	100.920	-0.280	1.020	1.100
2020/01/31 22:40:45.0	100.850	-0.300	1.000	1.120
2020/01/31 22:40:45.1	100.800	-0.320	0.970	1.130
2020/01/31 22:40:45.2	100.740	-0.330	0.930	1.150
2020/01/31 22:40:45.3	100.690	-0.340	0.870	1.160
2020/01/31 22:40:45.4	100.640	-0.350	0.810	1.180
2020/01/31 22:40:45.5	100.590	-0.350	0.730	1.190
2020/01/31 22:40:45.6	100.540	-0.350	0.640	1.200
2020/01/31 22:40:45.7	100.490	-0.340	0.550	1.220
2020/01/31 22:40:45.8	100.440	-0.330	0.440	1.230
2020/01/31 22:40:45.9	100.390	-0.310	0.320	1.240
2020/01/31 22:40:46.0	100.330	-0.290	0.200	1.240
2020/01/31 22:40:46.1	100.280	-0.260	0.070	1.250
2020/01/31 22:40:46.2	100.240	-0.230	-0.070	1.250
2020/01/31 22:40:46.3	100.190	-0.190	-0.210	1.260
2020/01/31 22:40:46.4	100.150	-0.150	-0.350	1.260
2020/01/31 22:40:46.5	100.100	-0.110	-0.490	1.260
2020/01/31 22:40:46.6	100.060	-0.070	-0.630	1.260
2020/01/31 22:40:46.7	100.020	-0.020	-0.770	1.260
2020/01/31 22:40:46.8	99.970	0.030	-0.910	1.260
2020/01/31 22:40:46.9	99.930	0.080	-1.040	1.260
2020/01/31 22:40:47.0	99.890	0.140	-1.160	1.260
2020/01/31 22:40:47.1	99.850	0.190	-1.280	1.260
2020/01/31 22:40:47.2	99.810	0.240	-1.400	1.260
2020/01/31 22:40:47.3	99.780	0.300	-1.500	1.260
2020/01/31 22:40:47.4	99.740	0.350	-1.590	1.260
2020/01/31 22:40:47.5	99.700	0.400	-1.680	1.260
2020/01/31 22:40:47.6	99.660	0.450	-1.750	1.260
2020/01/31 22:40:47.7	99.630	0.490	-1.810	1.260
2020/01/31 22:40:47.8	99.590	0.530	-1.850	1.260
2020/01/31 22:40:47.9	99.560	0.570	-1.890	1.270
2020/01/31 22:40:48.0	99.530	0.600	-1.910	1.270
2020/01/31 22:40:48.1	99.500	0.630	-1.910	1.280
2020/01/31 22:40:48.2	99.470	0.650	-1.900	1.290
2020/01/31 22:40:48.3	99.440	0.670	-1.880	1.310
2020/01/31 22:40:48.4	99.410	0.680	-1.840	1.320
2020/01/31 22:40:48.5	99.390	0.680	-1.780	1.340
2020/01/31 22:40:48.6	99.360	0.680	-1.720	1.360
2020/01/31 22:40:48.7	99.340	0.670	-1.630	1.380
2020/01/31 22:40:48.8	99.310	0.650	-1.540	1.410
2020/01/31 22:40:48.9	99.290	0.630	-1.430	1.430
2020/01/31 22:40:49.0	99.270	0.600	-1.310	1.460
2020/01/31 22:40:49.1	99.250	0.560	-1.180	1.490
2020/01/31 22:40:49.2	99.220	0.520	-1.050	1.520
2020/01/31 22:40:49.3	99.200	0.470	-0.900	1.550
2020/01/31 22:40:49.4	99.180	0.410	-0.740	1.580
2020/01/31 22:40:49.5	99.160	0.350	-0.580	1.610
2020/01/31 22:40:49.6	99.140	0.280	-0.420	1.640
2020/01/31 22:40:49.7	99.120	0.210	-0.250	1.670
2020/01/31 22:40:49.8	99.100	0.140	-0.080	1.700
2020/01/31 22:40:49.9	99.070	0.060	0.090	1.730
2020/01/31 22:40:50.0	99.050	-0.020	0.270	1.760
2020/01/31 22:40:50.1	99.020	-0.100	0.440	1.780
2020/01/31 22:40:50.2	99.000	-0.180	0.600	1.800
2020/01/31 22:40:50.3	98.970	-0.260	0.760	1.820
2020/01/31 22:40:50.4	98.940	-0.350	0.920	1.840
2020/01/31 22:40:50.5	98.910	-0.430	1.070	1.850
2020/01/31 22:40:50.6	98.890	-0.510	1.210	1.860
2020/01/31 22:40:50.7	98.860	-0.590	1.340	1.870
2020/01/31 22:40:50.8	98.820	-0.660	1.460	1.870
2020/01/31 22:40:50.9	98.790	-0.730	1.570	1.870
2020/01/31 22:40:51.0	98.770	-0.800	1.660	1.880
2020/01/31 22:40:51.1	98.730	-0.860	1.740	1.870
2020/01/31 22:40:51.2	98.700	-0.910	1.810	1.860
2020/01/31 22:40:51.3	98.660	-0.960	1.860	1.850
2020/01/31 22:40:51.4	98.630	-1.000	1.890	1.840
2020/01/31 22:40:51.5	98.590	-1.030	1.900	1.830
2020/01/31 22:40:51.6	98.550	-1.060	1.900	1.810
2020/01/31 22:40:51.7	98.510	-1.070	1.880	1.790
2020/01/31 22:40:51.8	98.480	-1.080	1.830	1.760
2020/01/31 22:40:51.9	98.430	-1.080	1.770	1.740
2020/01/31 22:40:52.0	98.400	-1.060	1.690	1.720
2020/01/31 22:40:52.1	98.360	-1.040	1.590	1.690
2020/01/31 22:40:52.2	98.320	-1.010	1.480	1.660
2020/01/31 22:40:52.3	98.280	-0.960	1.340	1.640
2020/01/31 22:40:52.4	98.240	-0.910	1.200	1.610
2020/01/31 22:40:52.5	98.190	-0.850	1.040	1.580
2020/01/31 22:40:52.6	98.150	-0.790	0.860	1.550
2020/01/31 22:40:52.7	98.110	-0.710	0.680	1.520
2020/01/31 22:40:52.8	98.070	-0.630	0.490	1.500
2020/01/31 22:40:52.9	98.030	-0.540	0.290	1.470
2020/01/31 22:40:53.0	97.990	-0.450	0.070	1.440
2020/01/31 22:40:53.1	97.950	-0.360	-0.130	1.400
2020/01/31 22:40:53.2	97.910	-0.260	-0.340	1.370
2020/01/31 22:40:53.3	97.870	-0.160	-0.550	1.340
2020/01/31 22:40:53.4	97.830	-0.060	-0.750	1.300
2020/01/31 22:40:53.5	97.790	0.050	-0.940	1.260
2020/01/31 22:40:53.6	97.760	0.150	-1.130	1.230
2020/01/31 22:40:53.7	97.720	0.250	-1.310	1.190
2020/01/31 22:40:53.8	97.680	0.340	-1.480	1.150
2020/01/31 22:40:53.9	97.650	0.430	-1.640	1.100
2020/01/31 22:40:54.0	97.610	0.520	-1.780	1.060
2020/01/31 22:40:54.1	97.570	0.600	-1.910	1.020
2020/01/31 22:40:54.2	97.540	0.680	-2.010	0.980
2020/01/31 22:40:54.3	97.510	0.750	-2.100	0.950
2020/01/31 22:40:54.4	97.470	0.810	-2.170	0.910
2020/01/31 22:40:54.5	97.440	0.870	-2.220	0.870
2020/01/31 22:40:54.6	97.410	0.910	-2.250	0.840
2020/01/31 22:40:54.7	97.380	0.950	-2.260	0.810
2020/01/31 22:40:54.8	97.350	0.980	-2.250	0.790
2020/01/31 22:40:54.9	97.320	1.000	-2.220	0.770
2020/01/31 22:40:55.0	97.300	1.010	-2.170	0.750
2020/01/31 22:40:55.1	97.270	1.020	-2.100	0.740
2020/01/31 22:40:55.2	97.240	1.010	-2.020	0.730
2020/01/31 22:40:55.3	97.210	1.000	-1.910	0.720
2020/01/31 22:40:55.4	97.190	0.970	-1.790	0.730
2020/01/31 22:40:55.5	97.160	0.940	-1.660	0.730
2020/01/31 22:40:55.6	97.130	0.910	-1.510	0.740
2020/01/31 22:40:55.7	97.110	0.860	-1.350	0.750
2020/01/31 22:40:55.8	97.080	0.810	-1.180	0.760
2020/01/31 22:40:55.9	97.060	0.750	-1.000	0.780
2020/01/31 22:40:56.0	97.030	0.690	-0.820	0.800
2020/01/31 22:40:56.1	97.000	0.630	-0.630	0.830
2020/01/31 22:40:56.2	96.980	0.560	-0.440	0.850
2020/01/31 22:40:56.3	96.950	0.490	-0.260	0.880
2020/01/31 22:40:56.4	96.920	0.410	-0.080	0.900
2020/01/31 22:40:56.5	96.890	0.330	0.100	0.930
2020/01/31 22:40:56.6	96.860	0.260	0.270	0.960
2020/01/31 22:40:56.7	96.830	0.180	0.440	0.990
2020/01/31 22:40:56.8	96.800	0.100	0.590	1.020
2020/01/31 22:40:56.9	96.770	0.030	0.740	1.050
2020/01/31 22:40:57.0	96.740	-0.050	0.870	1.080
2020/01/31 22:40:57.1	96.710	-0.120	0.990	1.110
2020/01/31 22:40:57.2	96.680	-0.190	1.090	1.130
2020/01/31 22:40:57.3	96.650	-0.250	1.180	1.160
2020/01/31 22:40:57.4	96.610	-0.310	1.250	1.180
2020/01/31 22:40:57.5	96.580	-0.360	1.310	1.200
2020/01/31 22:40:57.6	96.550	-0.410	1.350	1.230
2020/01/31 22:40:57.7	96.510	-0.460	1.370	1.250
2020/01/31 22:40:57.8	96.480	-0.490	1.370	1.260
2020/01/31 22:40:57.9	96.450	-0.530	1.360	1.280
2020/01/31 22:40:58.0	96.410	-0.550	1.330	1.300
2020/01/31 22:40:58.1	96.380	-0.570	1.280	1.320
2020/01/31 22:40:58.2	96.340	-0.590	1.230	1.330
2020/01/31 22:40:58.3	96.310	-0.590	1.160	1.350
2020/01/31 22:40:58.4	96.270	-0.600	1.070	1.360
2020/01/31 22:40:58.5	96.230	-0.600	0.980	1.380
2020/01/31 22:40:58.6	96.190	-0.590	0.880	1.390
2020/01/31 22:40:58.7	96.150	-0.580	0.770	1.410
2020/01/31 22:40:58.8	96.120	-0.570	0.660	1.420
2020/01/31 22:40:58.9	96.080	-0.550	0.540	1.440
2020/01/31 22:40:59.0	96.050	-0.530	0.420	1.460
2020/01/31 22:40:59.1	96.010	-0.510	0.300	1.470
2020/01/31 22:40:59.2	95.970	-0.480	0.180	1.490
2020/01/31 22:40:59.3	95.930	-0.460	0.060	1.510
2020/01/31 22:40:59.4	95.890	-0.430	-0.060	1.520
2020/01/31 22:40:59.5	95.850	-0.410	-0.170	1.540
2020/01/31 22:40:59.6	95.810	-0.380	-0.270	1.550
2020/01/31 22:40:59.7	95.770	-0.360	-0.380	1.560
2020/01/31 22:40:59.8	95.730	-0.330	-0.470	1.580
2020/01/31 22:40:59.9	95.690	-0.310	-0.550	1.590
2020/01/31 22:41:00.0	95.640	-0.290	-0.640	1.600
2020/01/31 22:41:00.1	95.600	-0.270	-0.710	1.610
2020/01/31 22:41:00.2	95.560	-0.250	-0.770	1.620
2020/01/31 22:41:00.3	95.520	-0.240	-0.820	1.630
2020/01/31 22:41:00.4	95.490	-0.220	-0.860	1.640
2020/01/31 22:41:00.5	95.450	-0.210	-0.900	1.640
2020/01/31 22:41:00.6	95.410	-0.200	-0.920	1.640
2020/01/31 22:41:00.7	95.370	-0.190	-0.940	1.640
2020/01/31 22:41:00.8	95.340	-0.190	-0.950	1.640
2020/01/31 22:41:00.9	95.300	-0.180	-0.950	1.640
2020/01/31 22:41:01.0	95.260	-0.180	-0.940	1.640
2020/01/31 22:41:01.1	95.230	-0.180	-0.920	1.640
2020/01/31 22:41:01.2	95.190	-0.180	-0.900	1.630
2020/01/31 22:41:01.3	95.150	-0.180	-0.880	1.630
2020/01/31 22:41:01.4	95.120	-0.180	-0.850	1.620
2020/01/31 22:41:01.5	95.080	-0.180	-0.820	1.620
2020/01/31 22:41:01.6	95.050	-0.180	-0.790	1.610
2020/01/31 22:41:01.7	95.010	-0.180	-0.750	1.600
2020/01/31 22:41:01.8	94.970	-0.180	-0.720	1.590
2020/01/31 22:41:01.9	94.930	-0.180	-0.680	1.580
2020/01/31 22:41:02.0	94.900	-0.180	-0.640	1.570
2020/01/31 22:41:02.1	94.860	-0.170	-0.610	1.560
2020/01/31 22:41:02.2	94.820	-0.170	-0.570	1.550
2020/01/31 22:41:02.3	94.780	-0.160	-0.540	1.540
2020/01/31 22:41:02.4	94.740	-0.150	-0.510	1.530
2020/01/31 22:41:02.5	94.700	-0.140	-0.480	1.510
2020/01/31 22:41:02.6	94.660	-0.120	-0.450	1.500
2020/01/31 22:41:02.7	94.620	-0.100	-0.430	1.480
2020/01/31 22:41:02.8	94.580	-0.080	-0.400	1.470
2020/01/31 22:41:02.9	94.540	-0.060	-0.380	1.450
2020/01/31 22:41:03.0	94.500	-0.040	-0.370	1.430
2020/01/31 22:41:03.1	94.460	-0.010	-0.350	1.410
2020/01/31 22:41:03.2	94.420	0.010	-0.340	1.390
2020/01/31 22:41:03.3	94.380	0.040	-0.330	1.370
2020/01/31 22:41:03.4	94.340	0.070	-0.320	1.340
2020/01/31 22:41:03.5	94.310	0.100	-0.310	1.320
2020/01/31 22:41:03.6	94.270	0.140	-0.300	1.290
2020/01/31 22:41:03.7	94.230	0.170	-0.300	1.260
2020/01/31 22:41:03.8	94.200	0.210	-0.290	1.240
2020/01/31 22:41:03.9	94.160	0.240	-0.290	1.210
2020/01/31 22:41:04.0	94.130	0.280	-0.290	1.180
2020/01/31 22:41:04.1	94.100	0.310	-0.280	1.150
2020/01/31 22:41:04.2	94.070	0.350	-0.280	1.130
2020/01/31 22:41:04.3	94.040	0.380	-0.270	1.100
2020/01/31 22:41:04.4	94.000	0.410	-0.270	1.070
2020/01/31 22:41:04.5	93.970	0.440	-0.260	1.050
2020/01/31 22:41:04.6	93.940	0.470	-0.250	1.020
2020/01/31 22:41:04.7	93.910	0.500	-0.240	1.000
2020/01/31 22:41:04.8	93.870	0.520	-0.220	0.970
2020/01/31 22:41:04.9	93.840	0.540	-0.210	0.950
2020/01/31 22:41:05.0	93.810	0.560	-0.190	0.930
2020/01/31 22:41:05.1	93.770	0.580	-0.170	0.910
2020/01/31 22:41:05.2	93.740	0.590	-0.150	0.890
2020/01/31 22:41:05.3	93.710	0.600	-0.130	0.870
2020/01/31 22:41:05.4	93.680	0.610	-0.100	0.850
2020/01/31 22:41:05.5	93.640	0.610	-0.070	0.830
2020/01/31 22:41:05.6	93.610	0.610	-0.050	0.820
2020/01/31 22:41:05.7	93.580	0.600	-0.020	0.800
2020/01/31 22:41:05.8	93.550	0.590	0.020	0.780
2020/01/31 22:41:05.9	93.510	0.580	0.050	0.760
2020/01/31 22:41:06.0	93.480	0.570	0.080	0.750
2020/01/31 22:41:06.1	93.450	0.550	0.110	0.730
2020/01/31 22:41:06.2	93.420	0.520	0.140	0.710
2020/01/31 22:41:06.3	93.380	0.500	0.170	0.700
2020/01/31 22:41:06.4	93.350	0.470	0.200	0.680
2020/01/31 22:41:06.5	93.320	0.440	0.230	0.660
2020/01/31 22:41:06.6	93.290	0.410	0.250	0.640
2020/01/31 22:41:06.7	93.250	0.380	0.280	0.630
2020/01/31 22:41:06.8	93.220	0.340	0.290	0.610
2020/01/31 22:41:06.9	93.190	0.300	0.310	0.590
2020/01/31 22:41:07.0	93.150	0.270	0.320	0.570
2020/01/31 22:41:07.1	93.110	0.230	0.330	0.560
2020/01/31 22:41:07.2	93.080	0.190	0.330	0.550
2020/01/31 22:41:07.3	93.040	0.150	0.330	0.540
2020/01/31 22:41:07.4	93.010	0.120	0.320	0.530
2020/01/31 22:41:07.5	92.970	0.080	0.310	0.530
2020/01/31 22:41:07.6	92.940	0.050	0.300	0.520
2020/01/31 22:41:07.7	92.900	0.010	0.270	0.530
2020/01/31 22:41:07.8	92.860	-0.020	0.250	0.530
2020/01/31 22:41:07.9	92.830	-0.050	0.220	0.540
2020/01/31 22:41:08.0	92.790	-0.070	0.180	0.560
2020/01/31 22:41:08.1	92.750	-0.100	0.140	0.580
2020/01/31 22:41:08.2	92.710	-0.120	0.090	0.600
2020/01/31 22:41:08.3	92.670	-0.140	0.050	0.620
2020/01/31 22:41:08.4	92.640	-0.160	-0.010	0.650
2020/01/31 22:41:08.5	92.600	-0.170	-0.060	0.680
2020/01/31 22:41:08.6	92.560	-0.180	-0.120	0.720
2020/01/31 22:41:08.7	92.530	-0.190	-0.170	0.750
2020/01/31 22:41:08.8	92.490	-0.200	-0.230	0.790
2020/01/31 22:41:08.9	92.460	-0.200	-0.290	0.830
2020/01/31 22:41:09.0	92.410	-0.210	-0.350	0.870
2020/01/31 22:41:09.1	92.380	-0.210	-0.410	0.920
2020/01/31 22:41:09.2	92.350	-0.200	-0.470	0.960
2020/01/31 22:41:09.3	92.310	-0.200	-0.530	1.000
2020/01/31 22:41:09.4	92.280	-0.200	-0.580	1.050
2020/01/31 22:41:09.5	92.250	-0.190	-0.640	1.090
2020/01/31 22:41:09.6	92.220	-0.180	-0.680	1.130
2020/01/31 22:41:09.7	92.180	-0.170	-0.730	1.170
2020/01/31 22:41:09.8	92.150	-0.170	-0.770	1.210
2020/01/31 22:41:09.9	92.120	-0.160	-0.800	1.250
2020/01/31 22:41:10.0	92.090	-0.150	-0.840	1.290
2020/01/31 22:41:10.1	92.060	-0.140	-0.860	1.330
2020/01/31 22:41:10.2	92.020	-0.130	-0.870	1.370
2020/01/31 22:41:10.3	91.990	-0.120	-0.880	1.410
2020/01/31 22:41:10.4	91.950	-0.120	-0.890	1.450
2020/01/31 22:41:10.5	91.910	-0.110	-0.880	1.490
2020/01/31 22:41:10.6	91.870	-0.100	-0.870	1.530
2020/01/31 22:41:10.7	91.830	-0.100	-0.850	1.570
2020/01/31 22:41:10.8	91.790	-0.100	-0.830	1.610
2020/01/31 22:41:10.9	91.740	-0.090	-0.800	1.650
2020/01/31 22:41:11.0	91.700	-0.090	-0.760	1.690
2020/01/31 22:41:11.1	91.660	-0.090	-0.710	1.740
2020/01/31 22:41:11.2	91.620	-0.100	-0.670	1.780
2020/01/31 22:41:11.3	91.570	-0.100	-0.610	1.820
2020/01/31 22:41:11.4	91.530	-0.110	-0.560	1.870
2020/01/31 22:41:11.5	91.490	-0.110	-0.500	1.910
2020/01/31 22:41:11.6	91.440	-0.120	-0.440	1.950
2020/01/31 22:41:11.7	91.400	-0.130	-0.380	1.990
2020/01/31 22:41:11.8	91.360	-0.140	-0.320	2.030
2020/01/31 22:41:11.9	91.320	-0.150	-0.260	2.060
2020/01/31 22:41:12.0	91.290	-0.160	-0.200	2.100
2020/01/31 22:41:12.1	91.250	-0.170	-0.140	2.130
2020/01/31 22:41:12.2	91.220	-0.180	-0.080	2.150
2020/01/31 22:41:12.3	91.190	-0.190	-0.030	2.180
2020/01/31 22:41:12.4	91.150	-0.210	0.020	2.190
2020/01/31 22:41:12.5	91.120	-0.220	0.060	2.200
2020/01/31 22:41:12.6	91.090	-0.230	0.100	2.210
2020/01/31 22:41:12.7	91.070	-0.240	0.130	2.210
2020/01/31 22:41:12.8	91.040	-0.240	0.170	2.210
2020/01/31 22:41:12.9	91.020	-0.250	0.190	2.200
2020/01/31 22:41:13.0	90.990	-0.260	0.210	2.180
2020/01/31 22:41:13.1	90.970	-0.260	0.220	2.160
2020/01/31 22:41:13.2	90.940	-0.260	0.230	2.140
2020/01/31 22:41:13.3	90.920	-0.260	0.240	2.110
2020/01/31 22:41:13.4	90.900	-0.260	0.240	2.070
2020/01/31 22:41:13.5	90.870	-0.260	0.240	2.030
2020/01/31 22:41:13.6	90.850	-0.260	0.230	1.990
2020/01/31 22:41:13.7	90.830	-0.250	0.220	1.940
2020/01/31 22:41:13.8	90.800	-0.250	0.210	1.890
2020/01/31 22:41:13.9	90.780	-0.240	0.190	1.840
2020/01/31 22:41:14.0	90.750	-0.230	0.170	1.790
2020/01/31 22:41:14.1	90.730	-0.210	0.150	1.730
2020/01/31 22:41:14.2	90.700	-0.200	0.130	1.670
2020/01/31 22:41:14.3	90.680	-0.180	0.110	1.620
2020/01/31 22:41:14.4	90.650	-0.170	0.080	1.560
2020/01/31 22:41:14.5	90.620	-0.150	0.060	1.500
2020/01/31 22:41:14.6	90.600	-0.130	0.030	1.450
2020/01/31 22:41:14.7	90.570	-0.110	0.010	1.390
2020/01/31 22:41:14.8	90.540	-0.090	-0.020	1.340
2020/01/31 22:41:14.9	90.500	-0.070	-0.040	1.290
2020/01/31 22:41:15.0	90.480	-0.050	-0.070	1.240
2020/01/31 22:41:15.1	90.440	-0.030	-0.100	1.190
2020/01/31 22:41:15.2	90.400	-0.010	-0.120	1.150
2020/01/31 22:41:15.3	90.370	0.020	-0.140	1.110
2020/01/31 22:41:15.4	90.320	0.040	-0.160	1.080
2020/01/31 22:41:15.5	90.280	0.060	-0.180	1.040
2020/01/31 22:41:15.6	90.230	0.080	-0.200	1.010
2020/01/31 22:41:15.7	90.190	0.100	-0.220	0.990
2020/01/31 22:41:15.8	90.140	0.110	-0.240	0.960
2020/01/31 22:41:15.9	90.090	0.130	-0.250	0.940
2020/01/31 22:41:16.0	90.040	0.150	-0.270	0.920
2020/01/31 22:41:16.1	89.980	0.160	-0.280	0.900
2020/01/31 22:41:16.2	89.930	0.170	-0.300	0.880
2020/01/31 22:41:16.3	89.870	0.180	-0.310	0.860
2020/01/31 22:41:16.4	89.820	0.190	-0.320	0.840
2020/01/31 22:41:16.5	89.760	0.200	-0.330	0.820
2020/01/31 22:41:16.6	89.710	0.210	-0.340	0.800
2020/01/31 22:41:16.7	89.650	0.220	-0.350	0.780
2020/01/31 22:41:16.8	89.600	0.220	-0.360	0.770
2020/01/31 22:41:16.9	89.540	0.220	-0.360	0.750
2020/01/31 22:41:17.0	89.490	0.220	-0.370	0.730
2020/01/31 22:41:17.1	89.430	0.220	-0.380	0.710
2020/01/31 22:41:17.2	89.380	0.220	-0.380	0.690
2020/01/31 22:41:17.3	89.330	0.220	-0.390	0.680
2020/01/31 22:41:17.4	89.280	0.220	-0.390	0.660
2020/01/31 22:41:17.5	89.230	0.220	-0.400	0.640
2020/01/31 22:41:17.6	89.180	0.220	-0.400	0.630
2020/01/31 22:41:17.7	89.130	0.210	-0.400	0.620
2020/01/31 22:41:17.8	89.080	0.210	-0.410	0.600
2020/01/31 22:41:17.9	89.030	0.210	-0.410	0.590
2020/01/31 22:41:18.0	89.020	0.200	-0.410	0.580
2020/01/31 22:41:18.1	88.970	0.200	-0.410	0.580
2020/01/31 22:41:18.2	88.930	0.190	-0.420	0.570
2020/01/31 22:41:18.3	88.890	0.190	-0.420	0.560
2020/01/31 22:41:18.4	88.850	0.190	-0.420	0.560
2020/01/31 22:41:18.5	88.810	0.180	-0.420	0.560
2020/01/31 22:41:18.6	88.780	0.180	-0.420	0.560
2020/01/31 22:41:18.7	88.740	0.180	-0.420	0.560
2020/01/31 22:41:18.8	88.710	0.180	-0.420	0.570
2020/01/31 22:41:18.9	88.680	0.170	-0.420	0.570
2020/01/31 22:41:19.0	88.660	0.170	-0.420	0.580
2020/01/31 22:41:19.1	88.630	0.170	-0.420	0.590
2020/01/31 22:41:19.2	88.610	0.170	-0.410	0.610
2020/01/31 22:41:19.3	88.580	0.170	-0.410	0.620
2020/01/31 22:41:19.4	88.560	0.170	-0.400	0.640
2020/01/31 22:41:19.5	88.540	0.170	-0.400	0.660
2020/01/31 22:41:19.6	88.520	0.170	-0.390	0.680
2020/01/31 22:41:19.7	88.500	0.170	-0.390	0.700
2020/01/31 22:41:19.8	88.490	0.170	-0.380	0.720
2020/01/31 22:41:19.9	88.470	0.170	-0.370	0.750
2020/01/31 22:41:20.0	88.460	0.170	-0.360	0.770
2020/01/31 22:41:20.1	88.450	0.170	-0.360	0.800
2020/01/31 22:41:20.2	88.440	0.170	-0.350	0.820
2020/01/31 22:41:20.3	88.430	0.170	-0.340	0.850
2020/01/31 22:41:20.4	88.420	0.170	-0.340	0.880
2020/01/31 22:41:20.5	88.410	0.170	-0.330	0.900
2020/01/31 22:41:20.6	88.400	0.160	-0.320	0.930
2020/01/31 22:41:20.7	88.390	0.160	-0.320	0.960
2020/01/31 22:41:20.8	88.380	0.160	-0.310	0.980
2020/01/31 22:41:20.9	88.360	0.150	-0.310	1.000
2020/01/31 22:41:21.0	88.350	0.150	-0.310	1.030
2020/01/31 22:41:21.1	88.330	0.140	-0.310	1.050
2020/01/31 22:41:21.2	88.320	0.130	-0.300	1.070
2020/01/31 22:41:21.3	88.300	0.120	-0.300	1.100
2020/01/31 22:41:21.4	88.270	0.110	-0.290	1.120
2020/01/31 22:41:21.5	88.250	0.100	-0.290	1.140
2020/01/31 22:41:21.6	88.220	0.090	-0.280	1.170
2020/01/31 22:41:21.7	88.190	0.070	-0.280	1.190
2020/01/31 22:41:21.8	88.160	0.060	-0.270	1.220
2020/01/31 22:41:21.9	88.120	0.040	-0.260	1.250
2020/01/31 22:41:22.0	88.080	0.030	-0.240	1.280
2020/01/31 22:41:22.1	88.040	0.010	-0.230	1.320
2020/01/31 22:41:22.2	87.990	-0.010	-0.210	1.350
2020/01/31 22:41:22.3	87.940	-0.030	-0.180	1.390
2020/01/31 22:41:22.4	87.890	-0.060	-0.160	1.430
2020/01/31 22:41:22.5	87.830	-0.080	-0.130	1.470
2020/01/31 22:41:22.6	87.770	-0.110	-0.100	1.520
2020/01/31 22:41:22.7	87.710	-0.130	-0.060	1.560
2020/01/31 22:41:22.8	87.640	-0.160	-0.020	1.610
2020/01/31 22:41:22.9	87.570	-0.180	0.020	1.660
2020/01/31 22:41:23.0	87.510	-0.210	0.050	1.700
2020/01/31 22:41:23.1	87.440	-0.240	0.100	1.750
2020/01/31 22:41:23.2	87.370	-0.260	0.140	1.790
2020/01/31 22:41:23.3	87.300	-0.290	0.190	1.840
2020/01/31 22:41:23.4	87.230	-0.310	0.230	1.870
2020/01/31 22:41:23.5	87.160	-0.340	0.270	1.910
2020/01/31 22:41:23.6	87.090	-0.360	0.310	1.940
2020/01/31 22:41:23.7	87.030	-0.380	0.350	1.970
2020/01/31 22:41:23.8	86.960	-0.400	0.380	1.990
2020/01/31 22:41:23.9	86.900	-0.420	0.410	2.010
2020/01/31 22:41:24.0	86.820	-0.440	0.430	2.020
2020/01/31 22:41:24.1	86.760	-0.450	0.450	2.030
2020/01/31 22:41:24.2	86.710	-0.460	0.460	2.020
2020/01/31 22:41:24.3	86.650	-0.470	0.460	2.010
2020/01/31 22:41:24.4	86.610	-0.470	0.460	2.000
2020/01/31 22:41:24.5	86.560	-0.470	0.450	1.970
2020/01/31 22:41:24.6	86.520	-0.470	0.430	1.940
2020/01/31 22:41:24.7	86.490	-0.460	0.410	1.900
2020/01/31 22:41:24.8	86.450	-0.450	0.380	1.860
2020/01/31 22:41:24.9	86.420	-0.430	0.340	1.820
2020/01/31 22:41:25.0	86.380	-0.410	0.300	1.760
2020/01/31 22:41:25.1	86.360	-0.390	0.250	1.710
2020/01/31 22:41:25.2	86.330	-0.370	0.190	1.660
2020/01/31 22:41:25.3	86.310	-0.340	0.130	1.600
2020/01/31 22:41:25.4	86.290	-0.300	0.070	1.540
2020/01/31 22:41:25.5	86.270	-0.270	-0.000	1.490
2020/01/31 22:41:25.6	86.250	-0.230	-0.070	1.430
2020/01/31 22:41:25.7	86.240	-0.190	-0.150	1.380
2020/01/31 22:41:25.8	86.220	-0.150	-0.220	1.320
2020/01/31 22:41:25.9	86.200	-0.100	-0.300	1.270
2020/01/31 22:41:26.0	86.190	-0.060	-0.370	1.220
2020/01/31 22:41:26.1	86.170	-0.010	-0.440	1.160
2020/01/31 22:41:26.2	86.150	0.030	-0.510	1.120
2020/01/31 22:41:26.3	86.130	0.080	-0.580	1.070
2020/01/31 22:41:26.4	86.110	0.120	-0.650	1.020
2020/01/31 22:41:26.5	86.090	0.170	-0.710	0.980
2020/01/31 22:41:26.6	86.060	0.210	-0.770	0.940
2020/01/31 22:41:26.7	86.040	0.250	-0.820	0.900
2020/01/31 22:41:26.8	86.010	0.280	-0.860	0.870
2020/01/31 22:41:26.9	85.990	0.320	-0.910	0.840
2020/01/31 22:41:27.0	85.970	0.350	-0.940	0.810
2020/01/31 22:41:27.1	85.940	0.380	-0.970	0.780
2020/01/31 22:41:27.2	85.900	0.410	-1.000	0.760
2020/01/31 22:41:27.3	85.870	0.430	-1.020	0.740
2020/01/31 22:41:27.4	85.840	0.450	-1.030	0.720
2020/01/31 22:41:27.5	85.800	0.460	-1.040	0.700
2020/01/31 22:41:27.6	85.770	0.470	-1.040	0.690
2020/01/31 22:41:27.7	85.730	0.480	-1.030	0.680
2020/01/31 22:41:27.8	85.700	0.490	-1.020	0.670
2020/01/31 22:41:27.9	85.660	0.490	-1.010	0.670
2020/01/31 22:41:28.0	85.620	0.480	-0.980	0.670
2020/01/31 22:41:28.1	85.590	0.470	-0.960	0.670
2020/01/31 22:41:28.2	85.550	0.460	-0.930	0.680
2020/01/31 22:41:28.3	85.520	0.450	-0.890	0.690
2020/01/31 22:41:28.4	85.480	0.430	-0.850	0.700
2020/01/31 22:41:28.5	85.440	0.420	-0.800	0.710
2020/01/31 22:41:28.6	85.410	0.390	-0.760	0.730
2020/01/31 22:41:28.7	85.380	0.370	-0.700	0.750
2020/01/31 22:41:28.8	85.340	0.340	-0.650	0.770
2020/01/31 22:41:28.9	85.310	0.320	-0.590	0.790
2020/01/31 22:41:29.0	85.270	0.290	-0.520	0.810
2020/01/31 22:41:29.1	85.240	0.260	-0.460	0.840
2020/01/31 22:41:29.2	85.200	0.220	-0.390	0.860
2020/01/31 22:41:29.3	85.170	0.190	-0.320	0.890
2020/01/31 22:41:29.4	85.140	0.160	-0.250	0.920
2020/01/31 22:41:29.5	85.100	0.120	-0.180	0.950
2020/01/31 22:41:29.6	85.070	0.090	-0.110	0.970
2020/01/31 22:41:29.7	85.030	0.060	-0.030	1.000
2020/01/31 22:41:29.8	85.000	0.020	0.040	1.020
2020/01/31 22:41:29.9	84.970	-0.010	0.110	1.050
2020/01/31 22:41:30.0	84.920	-0.040	0.180	1.070
2020/01/31 22:41:30.1	84.880	-0.080	0.240	1.090
2020/01/31 22:41:30.2	84.840	-0.110	0.310	1.110
2020/01/31 22:41:30.3	84.810	-0.140	0.370	1.120
2020/01/31 22:41:30.4	84.770	-0.170	0.420	1.140
2020/01/31 22:41:30.5	84.730	-0.200	0.480	1.150
2020/01/31 22:41:30.6	84.690	-0.220	0.520	1.160
2020/01/31 22:41:30.7	84.650	-0.240	0.570	1.170
2020/01/31 22:41:30.8	84.620	-0.270	0.600	1.180
2020/01/31 22:41:30.9	84.580	-0.290	0.630	1.180
2020/01/31 22:41:31.0	84.530	-0.300	0.660	1.180
2020/01/31 22:41:31.1	84.490	-0.320	0.670	1.180
2020/01/31 22:41:31.2	84.440	-0.330	0.680	1.180
2020/01/31 22:41:31.3	84.400	-0.340	0.680	1.180
2020/01/31 22:41:31.4	84.360	-0.350	0.670	1.180
2020/01/31 22:41:31.5	84.320	-0.350	0.660	1.180
2020/01/31 22:41:31.6	84.280	-0.350	0.640	1.180
2020/01/31 22:41:31.7	84.240	-0.350	0.600	1.180
2020/01/31 22:41:31.8	84.200	-0.340	0.570	1.180
2020/01/31 22:41:31.9	84.150	-0.340	0.520	1.180
2020/01/31 22:41:32.0	84.100	-0.330	0.460	1.180
2020/01/31 22:41:32.1	84.060	-0.320	0.410	1.180
2020/01/31 22:41:32.2	84.020	-0.300	0.340	1.180
2020/01/31 22:41:32.3	83.980	-0.280	0.270	1.190
2020/01/31 22:41:32.4	83.940	-0.270	0.200	1.190
2020/01/31 22:41:32.5	83.900	-0.250	0.120	1.190
2020/01/31 22:41:32.6	83.860	-0.220	0.040	1.190
2020/01/31 22:41:32.7	83.820	-0.200	-0.040	1.190
2020/01/31 22:41:32.8	83.790	-0.180	-0.130	1.190
2020/01/31 22:41:32.9	83.750	-0.150	-0.210	1.190
2020/01/31 22:41:33.0	83.710	-0.130	-0.300	1.190
2020/01/31 22:41:33.1	83.670	-0.100	-0.390	1.190
2020/01/31 22:41:33.2	83.640	-0.080	-0.470	1.190
2020/01/31 22:41:33.3	83.610	-0.050	-0.560	1.180
2020/01/31 22:41:33.4	83.580	-0.020	-0.640	1.170
2020/01/31 22:41:33.5	83.550	0.000	-0.720	1.170
2020/01/31 22:41:33.6	83.520	0.030	-0.790	1.160
2020/01/31 22:41:33.7	83.480	0.050	-0.860	1.150
2020/01/31 22:41:33.8	83.450	0.070	-0.920	1.140
2020/01/31 22:41:33.9	83.420	0.090	-0.980	1.130
2020/01/31 22:41:34.0	83.380	0.110	-1.030	1.120
2020/01/31 22:41:34.1	83.350	0.130	-1.070	1.110
2020/01/31 22:41:34.2	83.310	0.150	-1.100	1.110
2020/01/31 22:41:34.3	83.270	0.170	-1.120	1.100
2020/01/31 22:41:34.4	83.230	0.180	-1.130	1.090
2020/01/31 22:41:34.5	83.190	0.190	-1.140	1.090
2020/01/31 22:41:34.6	83.140	0.200	-1.130	1.080
2020/01/31 22:41:34.7	83.100	0.210	-1.120	1.080
2020/01/31 22:41:34.8	83.050	0.210	-1.090	1.080
2020/01/31 22:41:34.9	83.010	0.220	-1.060	1.090
2020/01/31 22:41:35.0	82.950	0.220	-1.020	1.100
2020/01/31 22:41:35.1	82.900	0.220	-0.970	1.100
2020/01/31 22:41:35.2	82.850	0.220	-0.910	1.110
2020/01/31 22:41:35.3	82.800	0.220	-0.850	1.130
2020/01/31 22:41:35.4	82.750	0.210	-0.790	1.140
2020/01/31 22:41:35.5	82.700	0.200	-0.710	1.160
2020/01/31 22:41:35.6	82.650	0.200	-0.640	1.180
2020/01/31 22:41:35.7	82.610	0.190	-0.570	1.200
2020/01/31 22:41:35.8	82.560	0.180	-0.490	1.220
2020/01/31 22:41:35.9	82.520	0.170	-0.410	1.250
2020/01/31 22:41:36.0	82.470	0.150	-0.340	1.270
2020/01/31 22:41:36.1	82.430	0.140	-0.260	1.300
2020/01/31 22:41:36.2	82.390	0.130	-0.190	1.330
2020/01/31 22:41:36.3	82.360	0.110	-0.130	1.350
2020/01/31 22:41:36.4	82.330	0.100	-0.060	1.380
2020/01/31 22:41:36.5	82.300	0.090	-0.010	1.410
2020/01/31 22:41:36.6	82.280	0.080	0.050	1.430
2020/01/31 22:41:36.7	82.260	0.060	0.090	1.450
2020/01/31 22:41:36.8	82.240	0.050	0.130	1.470
2020/01/31 22:41:36.9	82.230	0.040	0.160	1.480
2020/01/31 22:41:37.0	82.210	0.030	0.190	1.500
2020/01/31 22:41:37.1	82.210	0.020	0.210	1.500
2020/01/31 22:41:37.2	82.200	0.010	0.220	1.500
2020/01/31 22:41:37.3	82.200	0.000	0.230	1.500
2020/01/31 22:41:37.4	82.200	-0.010	0.230	1.500
2020/01/31 22:41:37.5	82.210	-0.020	0.230	1.490
2020/01/31 22:41:37.6	82.210	-0.020	0.220	1.470
2020/01/31 22:41:37.7	82.210	-0.030	0.200	1.450
2020/01/31 22:41:37.8	82.220	-0.030	0.190	1.430
2020/01/31 22:41:37.9	82.220	-0.040	0.170	1.410
2020/01/31 22:41:38.0	82.220	-0.050	0.150	1.390
2020/01/31 22:41:38.1	82.220	-0.050	0.130	1.360
2020/01/31 22:41:38.2	82.210	-0.060	0.110	1.330
2020/01/31 22:41:38.3	82.210	-0.060	0.090	1.310
2020/01/31 22:41:38.4	82.200	-0.070	0.080	1.280
2020/01/31 22:41:38.5	82.190	-0.070	0.070	1.260
2020/01/31 22:41:38.6	82.180	-0.080	0.060	1.230
2020/01/31 22:41:38.7	82.160	-0.090	0.050	1.210
2020/01/31 22:41:38.8	82.140	-0.100	0.050	1.190
2020/01/31 22:41:38.9	82.120	-0.100	0.060	1.180
2020/01/31 22:41:39.0	82.110	-0.110	0.060	1.170
2020/01/31 22:41:39.1	82.080	-0.120	0.080	1.150
2020/01/31 22:41:39.2	82.050	-0.130	0.090	1.140
2020/01/31 22:41:39.3	82.030	-0.150	0.110	1.140
2020/01/31 22:41:39.4	82.000	-0.160	0.140	1.130
2020/01/31 22:41:39.5	81.970	-0.170	0.170	1.130
2020/01/31 22:41:39.6	81.940	-0.180	0.190	1.130
2020/01/31 22:41:39.7	81.910	-0.200	0.220	1.140
2020/01/31 22:41:39.8	81.880	-0.210	0.250	1.140
2020/01/31 22:41:39.9	81.840	-0.230	0.280	1.150
2020/01/31 22:41:40.0	81.820	-0.240	0.310	1.160
2020/01/31 22:41:40.1	81.790	-0.250	0.340	1.160
2020/01/31 22:41:40.2	81.770	-0.270	0.360	1.170
2020/01/31 22:41:40.3	81.740	-0.280	0.380	1.180
2020/01/31 22:41:40.4	81.710	-0.290	0.390	1.190
2020/01/31 22:41:40.5	81.690	-0.300	0.390	1.190
2020/01/31 22:41:40.6	81.660	-0.310	0.390	1.200
2020/01/31 22:41:40.7	81.640	-0.310	0.390	1.210
2020/01/31 22:41:40.8	81.620	-0.310	0.370	1.210
2020/01/31 22:41:40.9	81.600	-0.320	0.350	1.210
2020/01/31 22:41:41.0	81.590	-0.310	0.320	1.210
2020/01/31 22:41:41.1	81.570	-0.310	0.280	1.210
2020/01/31 22:41:41.2	81.550	-0.300	0.240	1.210
2020/01/31 22:41:41.3	81.530	-0.290	0.190	1.200
2020/01/31 22:41:41.4	81.520	-0.280	0.130	1.190
2020/01/31 22:41:41.5	81.500	-0.260	0.060	1.190
2020/01/31 22:41:41.6	81.480	-0.240	-0.020	1.180
2020/01/31 22:41:41.7	81.470	-0.220	-0.090	1.160
2020/01/31 22:41:41.8	81.450	-0.190	-0.180	1.150
2020/01/31 22:41:41.9	81.440	-0.160	-0.270	1.130
2020/01/31 22:41:42.0	81.430	-0.130	-0.360	1.110
2020/01/31 22:41:42.1	81.420	-0.100	-0.460	1.090
2020/01/31 22:41:42.2	81.410	-0.070	-0.550	1.080
2020/01/31 22:41:42.3	81.400	-0.030	-0.650	1.060
2020/01/31 22:41:42.4	81.390	0.010	-0.740	1.030
2020/01/31 22:41:42.5	81.380	0.050	-0.830	1.020
2020/01/31 22:41:42.6	81.370	0.090	-0.920	1.000
2020/01/31 22:41:42.7	81.360	0.130	-1.010	0.980
2020/01/31 22:41:42.8	81.360	0.170	-1.090	0.960
2020/01/31 22:41:42.9	81.350	0.200	-1.170	0.940
2020/01/31 22:41:43.0	81.350	0.240	-1.240	0.930
2020/01/31 22:41:43.1	81.340	0.280	-1.300	0.920
2020/01/31 22:41:43.2	81.330	0.310	-1.350	0.910
2020/01/31 22:41:43.3	81.330	0.350	-1.390	0.890
2020/01/31 22:41:43.4	81.320	0.370	-1.430	0.890
2020/01/31 22:41:43.5	81.320	0.400	-1.450	0.880
2020/01/31 22:41:43.6	81.310	0.430	-1.470	0.870
2020/01/31 22:41:43.7	81.300	0.450	-1.470	0.870
2020/01/31 22:41:43.8	81.300	0.460	-1.470	0.860
2020/01/31 22:41:43.9	81.290	0.480	-1.450	0.860
2020/01/31 22:41:44.0	81.300	0.480	-1.430	0.860
2020/01/31 22:41:44.1	81.300	0.490	-1.390	0.860
2020/01/31 22:41:44.2	81.300	0.490	-1.350	0.870
2020/01/31 22:41:44.3	81.290	0.490	-1.290	0.870
2020/01/31 22:41:44.4	81.280	0.480	-1.230	0.880
2020/01/31 22:41:44.5	81.280	0.470	-1.160	0.890
2020/01/31 22:41:44.6	81.270	0.450	-1.080	0.900
2020/01/31 22:41:44.7	81.270	0.430	-1.000	0.910
2020/01/31 22:41:44.8	81.260	0.410	-0.910	0.930
2020/01/31 22:41:44.9	81.250	0.380	-0.810	0.940
2020/01/31 22:41:45.0	81.260	0.350	-0.710	0.960
2020/01/31 22:41:45.1	81.250	0.310	-0.600	0.980
2020/01/31 22:41:45.2	81.230	0.270	-0.500	0.990
2020/01/31 22:41:45.3	81.220	0.230	-0.390	1.010
2020/01/31 22:41:45.4	81.200	0.190	-0.280	1.030
2020/01/31 22:41:45.5	81.180	0.150	-0.160	1.060
2020/01/31 22:41:45.6	81.160	0.100	-0.050	1.080
2020/01/31 22:41:45.7	81.140	0.050	0.060	1.100
2020/01/31 22:41:45.8	81.120	-0.000	0.170	1.120
2020/01/31 22:41:45.9	81.090	-0.050	0.280	1.150
2020/01/31 22:41:46.0	81.060	-0.100	0.390	1.170
2020/01/31 22:41:46.1	81.020	-0.150	0.490	1.200
2020/01/31 22:41:46.2	80.990	-0.200	0.580	1.220
2020/01/31 22:41:46.3	80.950	-0.250	0.670	1.240
2020/01/31 22:41:46.4	80.920	-0.300	0.760	1.260
2020/01/31 22:41:46.5	80.880	-0.350	0.830	1.280
2020/01/31 22:41:46.6	80.830	-0.390	0.900	1.300
2020/01/31 22:41:46.7	80.790	-0.430	0.960	1.320
2020/01/31 22:41:46.8	80.750	-0.470	1.010	1.340
2020/01/31 22:41:46.9	80.700	-0.500	1.050	1.350
2020/01/31 22:41:47.0	80.670	-0.530	1.080	1.360
2020/01/31 22:41:47.1	80.630	-0.560	1.100	1.370
2020/01/31 22:41:47.2	80.580	-0.580	1.110	1.380
2020/01/31 22:41:47.3	80.530	-0.590	1.100	1.380
2020/01/31 22:41:47.4	80.490	-0.600	1.080	1.380
2020/01/31 22:41:47.5	80.450	-0.600	1.050	1.380
2020/01/31 22:41:47.6	80.410	-0.600	1.010	1.380
2020/01/31 22:41:47.7	80.370	-0.590	0.950	1.370
2020/01/31 22:41:47.8	80.330	-0.570	0.880	1.360
2020/01/31 22:41:47.9	80.290	-0.550	0.800	1.350
2020/01/31 22:41:48.0	80.270	-0.530	0.710	1.340
2020/01/31 22:41:48.1	80.240	-0.490	0.610	1.320
2020/01/31 22:41:48.2	80.210	-0.450	0.500	1.290
2020/01/31 22:41:48.3	80.190	-0.410	0.380	1.270
2020/01/31 22:41:48.4	80.170	-0.360	0.260	1.240
2020/01/31 22:41:48.5	80.150	-0.310	0.130	1.210
2020/01/31 22:41:48.6	80.130	-0.260	-0.010	1.170
2020/01/31 22:41:48.7	80.120	-0.200	-0.140	1.140
2020/01/31 22:41:48.8	80.110	-0.140	-0.280	1.100
2020/01/31 22:41:48.9	80.110	-0.080	-0.420	1.060
2020/01/31 22:41:49.0	80.110	-0.010	-0.560	1.020
2020/01/31 22:41:49.1	80.100	0.050	-0.690	0.970
2020/01/31 22:41:49.2	80.100	0.120	-0.820	0.930
2020/01/31 22:41:49.3	80.110	0.180	-0.940	0.890
2020/01/31 22:41:49.4	80.110	0.240	-1.050	0.840
2020/01/31 22:41:49.5	80.120	0.300	-1.160	0.800
2020/01/31 22:41:49.6	80.130	0.360	-1.250	0.750
2020/01/31 22:41:49.7	80.140	0.420	-1.330	0.710
2020/01/31 22:41:49.8	80.150	0.470	-1.410	0.660
2020/01/31 22:41:49.9	80.160	0.520	-1.470	0.620
2020/01/31 22:41:50.0	80.170	0.560	-1.510	0.580
2020/01/31 22:41:50.1	80.190	0.600	-1.540	0.530
2020/01/31 22:41:50.2	80.200	0.630	-1.560	0.490
2020/01/31 22:41:50.3	80.220	0.660	-1.560	0.460
2020/01/31 22:41:50.4	80.230	0.680	-1.540	0.420
2020/01/31 22:41:50.5	80.250	0.690	-1.510	0.390
2020/01/31 22:41:50.6	80.270	0.700	-1.470	0.360
2020/01/31 22:41:50.7	80.280	0.710	-1.410	0.340
2020/01/31 22:41:50.8	80.300	0.700	-1.340	0.320
2020/01/31 22:41:50.9	80.310	0.690	-1.250	0.310
2020/01/31 22:41:51.0	80.310	0.680	-1.160	0.300
2020/01/31 22:41:51.1	80.320	0.650	-1.050	0.290
2020/01/31 22:41:51.2	80.340	0.620	-0.930	0.290
2020/01/31 22:41:51.3	80.350	0.590	-0.800	0.290
2020/01/31 22:41:51.4	80.360	0.550	-0.660	0.300
2020/01/31 22:41:51.5	80.360	0.510	-0.520	0.320
2020/01/31 22:41:51.6	80.370	0.460	-0.380	0.330
2020/01/31 22:41:51.7	80.370	0.400	-0.230	0.350
2020/01/31 22:41:51.8	80.370	0.340	-0.070	0.380
2020/01/31 22:41:51.9	80.370	0.280	0.080	0.410
2020/01/31 22:41:52.0	80.370	0.220	0.240	0.440
2020/01/31 22:41:52.1	80.360	0.150	0.390	0.470
2020/01/31 22:41:52.2	80.350	0.080	0.530	0.510
2020/01/31 22:41:52.3	80.340	0.020	0.670	0.540
2020/01/31 22:41:52.4	80.330	-0.050	0.800	0.580
2020/01/31 22:41:52.5	80.320	-0.120	0.920	0.610
2020/01/31 22:41:52.6	80.300	-0.190	1.040	0.650
2020/01/31 22:41:52.7	80.280	-0.260	1.140	0.690
2020/01/31 22:41:52.8	80.260	-0.330	1.230	0.730
2020/01/31 22:41:52.9	80.240	-0.390	1.300	0.770
2020/01/31 22:41:53.0	80.210	-0.450	1.370	0.800
2020/01/31 22:41:53.1	80.180	-0.510	1.420	0.840
2020/01/31 22:41:53.2	80.150	-0.560	1.450	0.880
2020/01/31 22:41:53.3	80.120	-0.610	1.470	0.920
2020/01/31 22:41:53.4	80.090	-0.650	1.470	0.950
2020/01/31 22:41:53.5	80.060	-0.690	1.450	0.990
2020/01/31 22:41:53.6	80.020	-0.720	1.420	1.020
2020/01/31 22:41:53.7	79.990	-0.750	1.380	1.050
2020/01/31 22:41:53.8	79.950	-0.780	1.320	1.080
2020/01/31 22:41:53.9	79.920	-0.790	1.240	1.110
2020/01/31 22:41:54.0	79.880	-0.810	1.150	1.140
2020/01/31 22:41:54.1	79.850	-0.810	1.040	1.160
2020/01/31 22:41:54.2	79.820	-0.820	0.930	1.180
2020/01/31 22:41:54.3	79.790	-0.810	0.800	1.200
2020/01/31 22:41:54.4	79.760	-0.800	0.670	1.220
2020/01/31 22:41:54.5	79.740	-0.790	0.530	1.230
2020/01/31 22:41:54.6	79.710	-0.770	0.370	1.240
2020/01/31 22:41:54.7	79.690	-0.750	0.220	1.240
2020/01/31 22:41:54.8	79.680	-0.720	0.060	1.250
2020/01/31 22:41:54.9	79.660	-0.690	-0.110	1.250
2020/01/31 22:41:55.0	79.640	-0.650	-0.270	1.250
2020/01/31 22:41:55.1	79.630	-0.610	-0.440	1.250
2020/01/31 22:41:55.2	79.620	-0.570	-0.600	1.250
2020/01/31 22:41:55.3	79.610	-0.530	-0.760	1.250
2020/01/31 22:41:55.4	79.600	-0.480	-0.920	1.240
2020/01/31 22:41:55.5	79.590	-0.430	-1.070	1.230
2020/01/31 22:41:55.6	79.580	-0.380	-1.210	1.230
2020/01/31 22:41:55.7	79.570	-0.330	-1.340	1.220
2020/01/31 22:41:55.8	79.560	-0.280	-1.460	1.200
2020/01/31 22:41:55.9	79.560	-0.230	-1.570	1.190
2020/01/31 22:41:56.0	79.560	-0.180	-1.680	1.180
2020/01/31 22:41:56.1	79.550	-0.130	-1.770	1.160
2020/01/31 22:41:56.2	79.540	-0.080	-1.840	1.150
2020/01/31 22:41:56.3	79.530	-0.030	-1.890	1.130
2020/01/31 22:41:56.4	79.520	0.020	-1.940	1.110
2020/01/31 22:41:56.5	79.520	0.060	-1.960	1.100
2020/01/31 22:41:56.6	79.510	0.100	-1.970	1.080
2020/01/31 22:41:56.7	79.500	0.150	-1.970	1.060
2020/01/31 22:41:56.8	79.490	0.180	-1.950	1.040
2020/01/31 22:41:56.9	79.480	0.220	-1.910	1.020
2020/01/31 22:41:57.0	79.470	0.250	-1.850	1.010
2020/01/31 22:41:57.1	79.460	0.280	-1.790	1.000
2020/01/31 22:41:57.2	79.450	0.300	-1.720	0.990
2020/01/31 22:41:57.3	79.440	0.330	-1.630	0.970
2020/01/31 22:41:57.4	79.430	0.340	-1.530	0.960
2020/01/31 22:41:57.5	79.420	0.360	-1.430	0.960
2020/01/31 22:41:57.6	79.410	0.370	-1.310	0.950
2020/01/31 22:41:57.7	79.400	0.380	-1.190	0.950
2020/01/31 22:41:57.8	79.390	0.390	-1.070	0.950
2020/01/31 22:41:57.9	79.380	0.390	-0.940	0.950
2020/01/31 22:41:58.0	79.370	0.390	-0.810	0.950
2020/01/31 22:41:58.1	79.360	0.390	-0.680	0.960
2020/01/31 22:41:58.2	79.340	0.390	-0.540	0.970
2020/01/31 22:41:58.3	79.330	0.380	-0.410	0.980
2020/01/31 22:41:58.4	79.310	0.370	-0.280	0.990
2020/01/31 22:41:58.5	79.290	0.360	-0.160	1.010
2020/01/31 22:41:58.6	79.280	0.350	-0.040	1.020
2020/01/31 22:41:58.7	79.260	0.340	0.070	1.040
2020/01/31 22:41:58.8	79.240	0.330	0.180	1.060
2020/01/31 22:41:58.9	79.220	0.320	0.280	1.080
2020/01/31 22:41:59.0	79.200	0.300	0.370	1.100
2020/01/31 22:41:59.1	79.170	0.290	0.450	1.120
2020/01/31 22:41:59.2	79.150	0.280	0.520	1.130
2020/01/31 22:41:59.3	79.130	0.270	0.580	1.150
2020/01/31 22:41:59.4	79.110	0.250	0.630	1.160
2020/01/31 22:41:59.5	79.090	0.240	0.670	1.160
2020/01/31 22:41:59.6	79.070	0.230	0.700	1.170
2020/01/31 22:41:59.7	79.050	0.220	0.720	1.170
2020/01/31 22:41:59.8	79.030	0.210	0.730	1.170
2020/01/31 22:41:59.9	79.010	0.200	0.730	1.160
2020/01/31 22:42:00.0	78.980	0.190	0.710	1.150
2020/01/31 22:42:00.1	78.960	0.190	0.690	1.140
2020/01/31 22:42:00.2	78.940	0.180	0.670	1.130
2020/01/31 22:42:00.3	78.930	0.170	0.640	1.110
2020/01/31 22:42:00.4	78.910	0.170	0.600	1.100
2020/01/31 22:42:00.5	78.890	0.160	0.560	1.080
2020/01/31 22:42:00.6	78.880	0.160	0.510	1.050
2020/01/31 22:42:00.7	78.860	0.150	0.460	1.030
2020/01/31 22:42:00.8	78.850	0.150	0.410	1.010
2020/01/31 22:42:00.9	78.830	0.140	0.350	0.980
2020/01/31 22:42:01.0	78.820	0.140	0.300	0.960
2020/01/31 22:42:01.1	78.810	0.130	0.240	0.930
2020/01/31 22:42:01.2	78.800	0.130	0.190	0.900
2020/01/31 22:42:01.3	78.790	0.120	0.140	0.870
2020/01/31 22:42:01.4	78.780	0.110	0.080	0.840
2020/01/31 22:42:01.5	78.770	0.100	0.040	0.810
2020/01/31 22:42:01.6	78.770	0.090	-0.010	0.770
2020/01/31 22:42:01.7	78.760	0.080	-0.050	0.740
2020/01/31 22:42:01.8	78.760	0.070	-0.090	0.710
2020/01/31 22:42:01.9	78.760	0.060	-0.130	0.670
2020/01/31 22:42:02.0	78.760	0.050	-0.160	0.640
2020/01/31 22:42:02.1	78.760	0.030	-0.190	0.610
2020/01/31 22:42:02.2	78.760	0.020	-0.210	0.580
2020/01/31 22:42:02.3	78.760	0.000	-0.220	0.550
2020/01/31 22:42:02.4	78.760	-0.010	-0.240	0.520
2020/01/31 22:42:02.5	78.760	-0.030	-0.240	0.490
2020/01/31 22:42:02.6	78.760	-0.050	-0.250	0.460
2020/01/31 22:42:02.7	78.770	-0.070	-0.240	0.430
2020/01/31 22:42:02.8	78.770	-0.090	-0.240	0.410
2020/01/31 22:42:02.9	78.770	-0.110	-0.230	0.390
2020/01/31 22:42:03.0	78.780	-0.130	-0.220	0.370
2020/01/31 22:42:03.1	78.790	-0.150	-0.200	0.350
2020/01/31 22:42:03.2	78.790	-0.170	-0.180	0.330
2020/01/31 22:42:03.3	78.800	-0.190	-0.160	0.320
2020/01/31 22:42:03.4	78.800	-0.210	-0.140	0.310
2020/01/31 22:42:03.5	78.810	-0.220	-0.120	0.300
2020/01/31 22:42:03.6	78.820	-0.240	-0.100	0.290
2020/01/31 22:42:03.7	78.820	-0.250	-0.080	0.290
2020/01/31 22:42:03.8	78.830	-0.260	-0.070	0.290
2020/01/31 22:42:03.9	78.840	-0.270	-0.050	0.290
2020/01/31 22:42:04.0	78.850	-0.280	-0.040	0.290
2020/01/31 22:42:04.1	78.860	-0.280	-0.030	0.300
2020/01/31 22:42:04.2	78.870	-0.280	-0.030	0.300
2020/01/31 22:42:04.3	78.880	-0.280	-0.030	0.310
2020/01/31 22:42:04.4	78.890	-0.280	-0.040	0.320
2020/01/31 22:42:04.5	78.900	-0.270	-0.050	0.340
2020/01/31 22:42:04.6	78.910	-0.260	-0.060	0.350
2020/01/31 22:42:04.7	78.920	-0.240	-0.080	0.370
2020/01/31 22:42:04.8	78.930	-0.230	-0.110	0.400
2020/01/31 22:42:04.9	78.940	-0.210	-0.140	0.420
2020/01/31 22:42:05.0	78.950	-0.190	-0.170	0.450
2020/01/31 22:42:05.1	78.960	-0.160	-0.210	0.480
2020/01/31 22:42:05.2	78.960	-0.140	-0.260	0.510
2020/01/31 22:42:05.3	78.970	-0.110	-0.300	0.540
2020/01/31 22:42:05.4	78.970	-0.080	-0.350	0.580
2020/01/31 22:42:05.5	78.970	-0.050	-0.400	0.620
2020/01/31 22:42:05.6	78.970	-0.010	-0.450	0.660
2020/01/31 22:42:05.7	78.970	0.020	-0.500	0.700
2020/01/31 22:42:05.8	78.960	0.050	-0.550	0.740
2020/01/31 22:42:05.9	78.960	0.090	-0.600	0.780
2020/01/31 22:42:06.0	78.960	0.120	-0.650	0.820
2020/01/31 22:42:06.1	78.950	0.150	-0.690	0.860
2020/01/31 22:42:06.2	78.940	0.180	-0.730	0.890
2020/01/31 22:42:06.3	78.930	0.200	-0.770	0.930
2020/01/31 22:42:06.4	78.920	0.230	-0.800	0.970
2020/01/31 22:42:06.5	78.900	0.250	-0.820	1.000
2020/01/31 22:42:06.6	78.890	0.270	-0.840	1.030
2020/01/31 22:42:06.7	78.870	0.290	-0.860	1.060
2020/01/31 22:42:06.8	78.860	0.300	-0.860	1.090
2020/01/31 22:42:06.9	78.840	0.300	-0.860	1.120
2020/01/31 22:42:07.0	78.820	0.310	-0.860	1.140
2020/01/31 22:42:07.1	78.800	0.300	-0.840	1.170
2020/01/31 22:42:07.2	78.770	0.300	-0.820	1.190
2020/01/31 22:42:07.3	78.750	0.290	-0.790	1.210
2020/01/31 22:42:07.4	78.720	0.270	-0.750	1.230
2020/01/31 22:42:07.5	78.700	0.250	-0.710	1.250
2020/01/31 22:42:07.6	78.670	0.230	-0.660	1.270
2020/01/31 22:42:07.7	78.640	0.200	-0.610	1.290
2020/01/31 22:42:07.8	78.610	0.160	-0.550	1.310
2020/01/31 22:42:07.9	78.570	0.130	-0.480	1.330
2020/01/31 22:42:08.0	78.540	0.080	-0.410	1.350
2020/01/31 22:42:08.1	78.510	0.040	-0.340	1.370
2020/01/31 22:42:08.2	78.470	-0.010	-0.260	1.390
2020/01/31 22:42:08.3	78.430	-0.060	-0.190	1.410
2020/01/31 22:42:08.4	78.400	-0.110	-0.110	1.430
2020/01/31 22:42:08.5	78.360	-0.160	-0.040	1.450
2020/01/31 22:42:08.6	78.320	-0.210	0.040	1.460
2020/01/31 22:42:08.7	78.290	-0.260	0.110	1.480
2020/01/31 22:42:08.8	78.250	-0.320	0.180	1.490
2020/01/31 22:42:08.9	78.220	-0.370	0.240	1.500
2020/01/31 22:42:09.0	78.180	-0.420	0.300	1.510
2020/01/31 22:42:09.1	78.150	-0.460	0.350	1.510
2020/01/31 22:42:09.2	78.120	-0.510	0.400	1.500
2020/01/31 22:42:09.3	78.090	-0.550	0.440	1.490
2020/01/31 22:42:09.4	78.070	-0.590	0.470	1.480
2020/01/31 22:42:09.5	78.050	-0.620	0.490	1.460
2020/01/31 22:42:09.6	78.030	-0.640	0.500	1.440
2020/01/31 22:42:09.7	78.020	-0.660	0.500	1.410
2020/01/31 22:42:09.8	78.010	-0.680	0.500	1.370
2020/01/31 22:42:09.9	78.000	-0.690	0.480	1.330
2020/01/31 22:42:10.0	77.980	-0.690	0.450	1.280
2020/01/31 22:42:10.1	77.980	-0.690	0.420	1.230
2020/01/31 22:42:10.2	77.990	-0.680	0.370	1.180
2020/01/31 22:42:10.3	78.000	-0.660	0.320	1.120
2020/01/31 22:42:10.4	78.020	-0.630	0.260	1.050
2020/01/31 22:42:10.5	78.040	-0.600	0.200	0.990
2020/01/31 22:42:10.6	78.070	-0.570	0.120	0.920
2020/01/31 22:42:10.7	78.090	-0.520	0.050	0.850
2020/01/31 22:42:10.8	78.120	-0.480	-0.030	0.780
2020/01/31 22:42:10.9	78.160	-0.420	-0.120	0.700
2020/01/31 22:42:11.0	78.180	-0.370	-0.200	0.630
2020/01/31 22:42:11.1	78.210	-0.310	-0.290	0.560
2020/01/31 22:42:11.2	78.250	-0.240	-0.370	0.490
2020/01/31 22:42:11.3	78.290	-0.180	-0.450	0.430
2020/01/31 22:42:11.4	78.320	-0.110	-0.520	0.360
2020/01/31 22:42:11.5	78.360	-0.040	-0.590	0.300
2020/01/31 22:42:11.6	78.390	0.030	-0.660	0.240
2020/01/31 22:42:11.7	78.420	0.090	-0.710	0.190
2020/01/31 22:42:11.8	78.450	0.160	-0.770	0.140
2020/01/31 22:42:11.9	78.480	0.220	-0.810	0.100
2020/01/31 22:42:12.0	78.510	0.290	-0.840	0.070
2020/01/31 22:42:12.1	78.520	0.340	-0.870	0.040
2020/01/31 22:42:12.2	78.540	0.400	-0.890	0.010
2020/01/31 22:42:12.3	78.550	0.450	-0.900	-0.010
2020/01/31 22:42:12.4	78.560	0.500	-0.900	-0.030
2020/01/31 22:42:12.5	78.570	0.540	-0.890	-0.040
2020/01/31 22:42:12.6	78.570	0.580	-0.870	-0.040
2020/01/31 22:42:12.7	78.570	0.610	-0.850	-0.040
2020/01/31 22:42:12.8	78.560	0.630	-0.810	-0.040
2020/01/31 22:42:12.9	78.550	0.650	-0.770	-0.030
2020/01/31 22:42:13.0	78.540	0.670	-0.730	-0.020
2020/01/31 22:42:13.1	78.530	0.680	-0.680	-0.000
2020/01/31 22:42:13.2	78.510	0.680	-0.620	0.020
2020/01/31 22:42:13.3	78.490	0.680	-0.560	0.030
2020/01/31 22:42:13.4	78.470	0.670	-0.490	0.050
2020/01/31 22:42:13.5	78.450	0.660	-0.420	0.080
2020/01/31 22:42:13.6	78.430	0.640	-0.350	0.100
2020/01/31 22:42:13.7	78.400	0.620	-0.280	0.120
2020/01/31 22:42:13.8	78.370	0.590	-0.210	0.140
2020/01/31 22:42:13.9	78.350	0.560	-0.140	0.170
2020/01/31 22:42:14.0	78.330	0.530	-0.070	0.190
2020/01/31 22:42:14.1	78.300	0.500	-0.000	0.210
2020/01/31 22:42:14.2	78.280	0.460	0.060	0.230
2020/01/31 22:42:14.3	78.250	0.420	0.120	0.260
2020/01/31 22:42:14.4	78.220	0.380	0.170	0.280
2020/01/31 22:42:14.5	78.190	0.340	0.220	0.300
2020/01/31 22:42:14.6	78.170	0.300	0.260	0.310
2020/01/31 22:42:14.7	78.140	0.260	0.290	0.330
2020/01/31 22:42:14.8	78.110	0.220	0.320	0.350
2020/01/31 22:42:14.9	78.080	0.170	0.340	0.370
2020/01/31 22:42:15.0	78.060	0.140	0.350	0.380
2020/01/31 22:42:15.1	78.030	0.100	0.360	0.390
2020/01/31 22:42:15.2	78.000	0.060	0.360	0.410
2020/01/31 22:42:15.3	77.980	0.030	0.360	0.420
2020/01/31 22:42:15.4	77.950	-0.000	0.350	0.430
2020/01/31 22:42:15.5	77.930	-0.030	0.330	0.440
2020/01/31 22:42:15.6	77.910	-0.060	0.300	0.450
2020/01/31 22:42:15.7	77.890	-0.080	0.270	0.460
2020/01/31 22:42:15.8	77.870	-0.110	0.240	0.470
2020/01/31 22:42:15.9	77.850	-0.120	0.200	0.480
2020/01/31 22:42:16.0	77.840	-0.140	0.160	0.480
2020/01/31 22:42:16.1	77.820	-0.150	0.120	0.490
2020/01/31 22:42:16.2	77.810	-0.170	0.070	0.490
2020/01/31 22:42:16.3	77.790	-0.180	0.020	0.490
2020/01/31 22:42:16.4	77.780	-0.180	-0.030	0.500
2020/01/31 22:42:16.5	77.770	-0.190	-0.080	0.500
2020/01/31 22:42:16.6	77.770	-0.190	-0.130	0.500
2020/01/31 22:42:16.7	77.760	-0.190	-0.180	0.490
2020/01/31 22:42:16.8	77.760	-0.190	-0.220	0.490
2020/01/31 22:42:16.9	77.760	-0.190	-0.270	0.490
2020/01/31 22:42:17.0	77.770	-0.180	-0.320	0.490
2020/01/31 22:42:17.1	77.770	-0.180	-0.360	0.490
2020/01/31 22:42:17.2	77.780	-0.170	-0.390	0.480
2020/01/31 22:42:17.3	77.790	-0.170	-0.420	0.480
2020/01/31 22:42:17.4	77.800	-0.160	-0.450	0.480
2020/01/31 22:42:17.5	77.820	-0.150	-0.470	0.480
2020/01/31 22:42:17.6	77.840	-0.150	-0.490	0.490
2020/01/31 22:42:17.7	77.860	-0.140	-0.500	0.490
2020/01/31 22:42:17.8	77.880	-0.130	-0.510	0.490
2020/01/31 22:42:17.9	77.910	-0.120	-0.520	0.500
2020/01/31 22:42:18.0	77.940	-0.120	-0.520	0.510
2020/01/31 22:42:18.1	77.970	-0.110	-0.520	0.520
2020/01/31 22:42:18.2	78.000	-0.100	-0.510	0.530
2020/01/31 22:42:18.3	78.030	-0.100	-0.510	0.540
2020/01/31 22:42:18.4	78.070	-0.090	-0.500	0.560
2020/01/31 22:42:18.5	78.110	-0.090	-0.490	0.570
2020/01/31 22:42:18.6	78.150	-0.080	-0.470	0.590
2020/01/31 22:42:18.7	78.180	-0.080	-0.460	0.610
2020/01/31 22:42:18.8	78.220	-0.080	-0.440	0.630
2020/01/31 22:42:18.9	78.260	-0.070	-0.420	0.650
2020/01/31 22:42:19.0	78.290	-0.070	-0.410	0.680
2020/01/31 22:42:19.1	78.330	-0.070	-0.390	0.700
2020/01/31 22:42:19.2	78.360	-0.070	-0.370	0.730
2020/01/31 22:42:19.3	78.390	-0.070	-0.360	0.750
2020/01/31 22:42:19.4	78.420	-0.070	-0.340	0.780
2020/01/31 22:42:19.5	78.450	-0.070	-0.320	0.810
2020/01/31 22:42:19.6	78.470	-0.070	-0.300	0.840
2020/01/31 22:42:19.7	78.490	-0.080	-0.280	0.870
2020/01/31 22:42:19.8	78.500	-0.080	-0.270	0.900
2020/01/31 22:42:19.9	78.510	-0.080	-0.250	0.930
2020/01/31 22:42:20.0	78.520	-0.080	-0.230	0.970
2020/01/31 22:42:20.1	78.520	-0.080	-0.220	1.000
2020/01/31 22:42:20.2	78.520	-0.090	-0.200	1.030
2020/01/31 22:42:20.3	78.510	-0.090	-0.190	1.060
2020/01/31 22:42:20.4	78.500	-0.090	-0.170	1.090
2020/01/31 22:42:20.5	78.490	-0.090	-0.160	1.120
2020/01/31 22:42:20.6	78.470	-0.100	-0.140	1.150
2020/01/31 22:42:20.7	78.440	-0.100	-0.130	1.180
2020/01/31 22:42:20.8	78.420	-0.100	-0.110	1.210
2020/01/31 22:42:20.9	78.390	-0.110	-0.100	1.230
2020/01/31 22:42:21.0	78.360	-0.110	-0.080	1.250
2020/01/31 22:42:21.1	78.320	-0.110	-0.060	1.270
2020/01/31 22:42:21.2	78.290	-0.120	-0.050	1.290
2020/01/31 22:42:21.3	78.250	-0.120	-0.030	1.310
2020/01/31 22:42:21.4	78.220	-0.120	-0.020	1.320
2020/01/31 22:42:21.5	78.180	-0.130	-0.000	1.320
2020/01/31 22:42:21.6	78.140	-0.130	0.010	1.320
2020/01/31 22:42:21.7	78.110	-0.130	0.020	1.320
2020/01/31 22:42:21.8	78.080	-0.140	0.030	1.320
2020/01/31 22:42:21.9	78.040	-0.140	0.030	1.300
2020/01/31 22:42:22.0	78.000	-0.140	0.040	1.280
2020/01/31 22:42:22.1	77.970	-0.140	0.040	1.260
2020/01/31 22:42:22.2	77.950	-0.140	0.030	1.240
2020/01/31 22:42:22.3	77.930	-0.140	0.030	1.200
2020/01/31 22:42:22.4	77.910	-0.140	0.020	1.170
2020/01/31 22:42:22.5	77.900	-0.130	0.010	1.130
2020/01/31 22:42:22.6	77.880	-0.130	-0.010	1.080
2020/01/31 22:42:22.7	77.880	-0.120	-0.030	1.030
2020/01/31 22:42:22.8	77.870	-0.110	-0.060	0.980
2020/01/31 22:42:22.9	77.870	-0.100	-0.080	0.930
2020/01/31 22:42:23.0	77.860	-0.090	-0.110	0.870
2020/01/31 22:42:23.1	77.870	-0.070	-0.150	0.810
2020/01/31 22:42:23.2	77.880	-0.060	-0.180	0.750
2020/01/31 22:42:23.3	77.890	-0.040	-0.230	0.680
2020/01/31 22:42:23.4	77.900	-0.020	-0.270	0.620
2020/01/31 22:42:23.5	77.920	0.000	-0.310	0.550
2020/01/31 22:42:23.6	77.940	0.030	-0.360	0.490
2020/01/31 22:42:23.7	77.970	0.050	-0.410	0.420
2020/01/31 22:42:23.8	77.990	0.080	-0.450	0.360
2020/01/31 22:42:23.9	78.020	0.110	-0.500	0.300
2020/01/31 22:42:24.0	78.040	0.140	-0.550	0.230
2020/01/31 22:42:24.1	78.080	0.170	-0.590	0.170
2020/01/31 22:42:24.2	78.110	0.200	-0.630	0.120
2020/01/31 22:42:24.3	78.150	0.240	-0.670	0.070
2020/01/31 22:42:24.4	78.190	0.270	-0.710	0.020
2020/01/31 22:42:24.5	78.230	0.300	-0.740	-0.030
2020/01/31 22:42:24.6	78.270	0.330	-0.760	-0.080
2020/01/31 22:42:24.7	78.320	0.360	-0.780	-0.110
2020/01/31 22:42:24.8	78.360	0.390	-0.800	-0.150
2020/01/31 22:42:24.9	78.410	0.420	-0.810	-0.180
2020/01/31 22:42:25.0	78.460	0.440	-0.810	-0.200
2020/01/31 22:42:25.1	78.510	0.460	-0.810	-0.220
2020/01/31 22:42:25.2	78.550	0.480	-0.800	-0.240
2020/01/31 22:42:25.3	78.600	0.500	-0.790	-0.250
2020/01/31 22:42:25.4	78.640	0.510	-0.760	-0.250
2020/01/31 22:42:25.5	78.680	0.520	-0.730	-0.250
2020/01/31 22:42:25.6	78.710	0.520	-0.700	-0.240
2020/01/31 22:42:25.7	78.750	0.520	-0.660	-0.230
2020/01/31 22:42:25.8	78.780	0.510	-0.610	-0.210
2020/01/31 22:42:25.9	78.800	0.500	-0.560	-0.180
2020/01/31 22:42:26.0	78.830	0.490	-0.500	-0.140
2020/01/31 22:42:26.1	78.850	0.470	-0.430	-0.110
2020/01/31 22:42:26.2	78.860	0.440	-0.370	-0.060
2020/01/31 22:42:26.3	78.860	0.410	-0.300	-0.020
2020/01/31 22:42:26.4	78.870	0.370	-0.230	0.030
2020/01/31 22:42:26.5	78.860	0.330	-0.150	0.080
2020/01/31 22:42:26.6	78.860	0.290	-0.080	0.130
2020/01/31 22:42:26.7	78.850	0.240	-0.010	0.190
2020/01/31 22:42:26.8	78.840	0.190	0.060	0.240
2020/01/31 22:42:26.9	78.820	0.140	0.130	0.290
2020/01/31 22:42:27.0	78.810	0.080	0.200	0.350
2020/01/31 22:42:27.1	78.790	0.020	0.270	0.400
2020/01/31 22:42:27.2	78.770	-0.040	0.330	0.440
2020/01/31 22:42:27.3	78.750	-0.100	0.380	0.490
2020/01/31 22:42:27.4	78.720	-0.160	0.440	0.530
2020/01/31 22:42:27.5	78.700	-0.220	0.480	0.560
2020/01/31 22:42:27.6	78.670	-0.270	0.520	0.600
2020/01/31 22:42:27.7	78.650	-0.330	0.550	0.620
2020/01/31 22:42:27.8	78.620	-0.380	0.580	0.650
2020/01/31 22:42:27.9	78.600	-0.430	0.590	0.660
2020/01/31 22:42:28.0	78.590	-0.480	0.600	0.680
2020/01/31 22:42:28.1	78.570	-0.520	0.600	0.680
2020/01/31 22:42:28.2	78.550	-0.550	0.590	0.690
2020/01/31 22:42:28.3	78.540	-0.580	0.580	0.690
2020/01/31 22:42:28.4	78.530	-0.610	0.550	0.680
2020/01/31 22:42:28.5	78.520	-0.630	0.520	0.670
2020/01/31 22:42:28.6	78.510	-0.640	0.470	0.660
2020/01/31 22:42:28.7	78.500	-0.640	0.420	0.650
2020/01/31 22:42:28.8	78.500	-0.640	0.370	0.630
2020/01/31 22:42:28.9	78.500	-0.630	0.300	0.610
2020/01/31 22:42:29.0	78.510	-0.620	0.240	0.590
2020/01/31 22:42:29.1	78.510	-0.600	0.160	0.570
2020/01/31 22:42:29.2	78.520	-0.570	0.080	0.550
2020/01/31 22:42:29.3	78.520	-0.540	0.000	0.520
2020/01/31 22:42:29.4	78.530	-0.510	-0.080	0.500
2020/01/31 22:42:29.5	78.550	-0.470	-0.170	0.480
2020/01/31 22:42:29.6	78.560	-0.420	-0.260	0.450
2020/01/31 22:42:29.7	78.580	-0.370	-0.350	0.420
2020/01/31 22:42:29.8	78.600	-0.320	-0.430	0.390
2020/01/31 22:42:29.9	78.620	-0.270	-0.520	0.360
2020/01/31 22:42:30.0	78.650	-0.220	-0.600	0.330
2020/01/31 22:42:30.1	78.670	-0.160	-0.680	0.290
2020/01/31 22:42:30.2	78.700	-0.100	-0.760	0.260
2020/01/31 22:42:30.3	78.720	-0.040	-0.830	0.220
2020/01/31 22:42:30.4	78.750	0.010	-0.900	0.180
2020/01/31 22:42:30.5	78.780	0.070	-0.960	0.140
2020/01/31 22:42:30.6	78.810	0.120	-1.010	0.100
2020/01/31 22:42:30.7	78.840	0.170	-1.050	0.060
2020/01/31 22:42:30.8	78.860	0.220	-1.080	0.020
2020/01/31 22:42:30.9	78.890	0.270	-1.110	-0.010
2020/01/31 22:42:31.0	78.920	0.310	-1.130	-0.050
2020/01/31 22:42:31.1	78.940	0.350	-1.130	-0.090
2020/01/31 22:42:31.2	78.970	0.380	-1.120	-0.120
2020/01/31 22:42:31.3	78.990	0.410	-1.110	-0.150
2020/01/31 22:42:31.4	79.010	0.440	-1.080	-0.170
2020/01/31 22:42:31.5	79.030	0.460	-1.040	-0.200
2020/01/31 22:42:31.6	79.050	0.480	-1.000	-0.220
2020/01/31 22:42:31.7	79.060	0.490	-0.940	-0.230
2020/01/31 22:42:31.8	79.070	0.490	-0.870	-0.240
2020/01/31 22:42:31.9	79.080	0.490	-0.800	-0.250
2020/01/31 22:42:32.0	79.090	0.490	-0.710	-0.250
2020/01/31 22:42:32.1	79.100	0.480	-0.620	-0.240
2020/01/31 22:42:32.2	79.100	0.460	-0.520	-0.230
2020/01/31 22:42:32.3	79.090	0.440	-0.420	-0.210
2020/01/31 22:42:32.4	79.080	0.420	-0.320	-0.190
2020/01/31 22:42:32.5	79.070	0.390	-0.210	-0.160
2020/01/31 22:42:32.6	79.060	0.360	-0.100	-0.120
2020/01/31 22:42:32.7	79.050	0.320	0.010	-0.090
2020/01/31 22:42:32.8	79.030	0.280	0.120	-0.050
2020/01/31 22:42:32.9	79.010	0.240	0.230	0.000
2020/01/31 22:42:33.0	78.990	0.200	0.330	0.050
2020/01/31 22:42:33.1	78.960	0.160	0.430	0.100
2020/01/31 22:42:33.2	78.940	0.110	0.520	0.150
2020/01/31 22:42:33.3	78.920	0.070	0.610	0.210
2020/01/31 22:42:33.4	78.890	0.020	0.680	0.260
2020/01/31 22:42:33.5	78.870	-0.020	0.750	0.320
2020/01/31 22:42:33.6	78.840	-0.060	0.800	0.370
2020/01/31 22:42:33.7	78.820	-0.100	0.840	0.420
2020/01/31 22:42:33.8	78.800	-0.140	0.870	0.470
2020/01/31 22:42:33.9	78.780	-0.180	0.890	0.510
2020/01/31 22:42:34.0	78.750	-0.210	0.890	0.550
2020/01/31 22:42:34.1	78.730	-0.240	0.880	0.590
2020/01/31 22:42:34.2	78.720	-0.260	0.850	0.620
2020/01/31 22:42:34.3	78.700	-0.280	0.810	0.650
2020/01/31 22:42:34.4	78.690	-0.290	0.760	0.670
2020/01/31 22:42:34.5	78.680	-0.300	0.690	0.690
2020/01/31 22:42:34.6	78.680	-0.300	0.610	0.700
2020/01/31 22:42:34.7	78.670	-0.300	0.520	0.700
2020/01/31 22:42:34.8	78.670	-0.290	0.410	0.690
2020/01/31 22:42:34.9	78.670	-0.280	0.300	0.680
2020/01/31 22:42:35.0	78.670	-0.270	0.180	0.660
2020/01/31 22:42:35.1	78.680	-0.250	0.050	0.640
2020/01/31 22:42:35.2	78.680	-0.220	-0.080	0.610
2020/01/31 22:42:35.3	78.690	-0.190	-0.220	0.580
2020/01/31 22:42:35.4	78.700	-0.160	-0.360	0.550
2020/01/31 22:42:35.5	78.710	-0.130	-0.500	0.510
2020/01/31 22:42:35.6	78.720	-0.090	-0.630	0.470
2020/01/31 22:42:35.7	78.730	-0.050	-0.760	0.430
2020/01/31 22:42:35.8	78.740	-0.010	-0.890	0.400
2020/01/31 22:42:35.9	78.750	0.030	-1.010	0.360
2020/01/31 22:42:36.0	78.780	0.070	-1.120	0.320
2020/01/31 22:42:36.1	78.790	0.110	-1.220	0.290
2020/01/31 22:42:36.2	78.800	0.150	-1.310	0.260
2020/01/31 22:42:36.3	78.810	0.190	-1.390	0.230
2020/01/31 22:42:36.4	78.820	0.220	-1.460	0.210
2020/01/31 22:42:36.5	78.830	0.260	-1.510	0.190
2020/01/31 22:42:36.6	78.840	0.290	-1.540	0.170
2020/01/31 22:42:36.7	78.850	0.320	-1.560	0.160
2020/01/31 22:42:36.8	78.860	0.340	-1.570	0.150
2020/01/31 22:42:36.9	78.870	0.360	-1.560	0.150
2020/01/31 22:42:37.0	78.880	0.380	-1.540	0.160
2020/01/31 22:42:37.1	78.890	0.390	-1.500	0.160
2020/01/31 22:42:37.2	78.900	0.400	-1.450	0.180
2020/01/31 22:42:37.3	78.910	0.410	-1.390	0.190
2020/01/31 22:42:37.4	78.920	0.410	-1.310	0.210
2020/01/31 22:42:37.5	78.930	0.400	-1.230	0.240
2020/01/31 22:42:37.6	78.940	0.390	-1.130	0.270
2020/01/31 22:42:37.7	78.950	0.380	-1.030	0.300
2020/01/31 22:42:37.8	78.960	0.360	-0.920	0.330
2020/01/31 22:42:37.9	78.970	0.340	-0.810	0.370
2020/01/31 22:42:38.0	78.990	0.320	-0.690	0.400
2020/01/31 22:42:38.1	79.000	0.290	-0.570	0.440
2020/01/31 22:42:38.2	79.020	0.270	-0.450	0.470
2020/01/31 22:42:38.3	79.040	0.240	-0.330	0.510
2020/01/31 22:42:38.4	79.060	0.210	-0.220	0.550
2020/01/31 22:42:38.5	79.080	0.170	-0.100	0.590
2020/01/31 22:42:38.6	79.100	0.140	0.010	0.620
2020/01/31 22:42:38.7	79.120	0.110	0.110	0.660
2020/01/31 22:42:38.8	79.140	0.070	0.210	0.690
2020/01/31 22:42:38.9	79.160	0.040	0.310	0.730
2020/01/31 22:42:39.0	79.170	0.010	0.400	0.760
2020/01/31 22:42:39.1	79.190	-0.030	0.470	0.790
2020/01/31 22:42:39.2	79.210	-0.060	0.540	0.820
2020/01/31 22:42:39.3	79.220	-0.090	0.610	0.850
2020/01/31 22:42:39.4	79.230	-0.120	0.660	0.870
2020/01/31 22:42:39.5	79.240	-0.140	0.710	0.900
2020/01/31 22:42:39.6	79.250	-0.170	0.740	0.920
2020/01/31 22:42:39.7	79.250	-0.190	0.770	0.940
2020/01/31 22:42:39.8	79.260	-0.220	0.800	0.950
2020/01/31 22:42:39.9	79.250	-0.240	0.810	0.970
2020/01/31 22:42:40.0	79.250	-0.260	0.820	0.980
2020/01/31 22:42:40.1	79.240	-0.280	0.820	0.980
2020/01/31 22:42:40.2	79.240	-0.290	0.820	0.990
2020/01/31 22:42:40.3	79.230	-0.310	0.810	0.990
2020/01/31 22:42:40.4	79.220	-0.330	0.800	0.980
2020/01/31 22:42:40.5	79.210	-0.340	0.780	0.980
2020/01/31 22:42:40.6	79.190	-0.360	0.760	0.970
2020/01/31 22:42:40.7	79.180	-0.370	0.740	0.960
2020/01/31 22:42:40.8	79.160	-0.380	0.710	0.950
2020/01/31 22:42:40.9	79.140	-0.390	0.680	0.940
2020/01/31 22:42:41.0	79.120	-0.400	0.640	0.920
2020/01/31 22:42:41.1	79.100	-0.410	0.610	0.900
2020/01/31 22:42:41.2	79.080	-0.420	0.570	0.890
2020/01/31 22:42:41.3	79.060	-0.430	0.530	0.870
2020/01/31 22:42:41.4	79.030	-0.430	0.480	0.850
2020/01/31 22:42:41.5	79.010	-0.440	0.440	0.820
2020/01/31 22:42:41.6	78.990	-0.440	0.390	0.800
2020/01/31 22:42:41.7	78.970	-0.440	0.340	0.780
2020/01/31 22:42:41.8	78.940	-0.440	0.290	0.750
2020/01/31 22:42:41.9	78.920	-0.440	0.230	0.730
2020/01/31 22:42:42.0	78.890	-0.440	0.180	0.700
2020/01/31 22:42:42.1	78.870	-0.430	0.120	0.670
2020/01/31 22:42:42.2	78.840	-0.420	0.060	0.640
2020/01/31 22:42:42.3	78.820	-0.410	0.000	0.610
2020/01/31 22:42:42.4	78.800	-0.400	-0.060	0.580
2020/01/31 22:42:42.5	78.780	-0.390	-0.120	0.550
2020/01/31 22:42:42.6	78.760	-0.370	-0.190	0.510
2020/01/31 22:42:42.7	78.750	-0.350	-0.260	0.480
2020/01/31 22:42:42.8	78.740	-0.330	-0.320	0.440
2020/01/31 22:42:42.9	78.730	-0.300	-0.390	0.400
2020/01/31 22:42:43.0	78.720	-0.270	-0.460	0.360
2020/01/31 22:42:43.1	78.720	-0.240	-0.530	0.330
2020/01/31 22:42:43.2	78.720	-0.210	-0.600	0.280
2020/01/31 22:42:43.3	78.720	-0.180	-0.680	0.240
2020/01/31 22:42:43.4	78.720	-0.140	-0.740	0.200
2020/01/31 22:42:43.5	78.730	-0.100	-0.810	0.160
2020/01/31 22:42:43.6	78.730	-0.060	-0.880	0.120
2020/01/31 22:42:43.7	78.750	-0.020	-0.940	0.080
2020/01/31 22:42:43.8	78.760	0.030	-1.000	0.040
2020/01/31 22:42:43.9	78.780	0.070	-1.060	-0.000
2020/01/31 22:42:44.0	78.800	0.120	-1.110	-0.040
2020/01/31 22:42:44.1	78.820	0.160	-1.150	-0.080
2020/01/31 22:42:44.2	78.840	0.200	-1.190	-0.110
2020/01/31 22:42:44.3	78.860	0.250	-1.230	-0.150
2020/01/31 22:42:44.4	78.890	0.290	-1.260	-0.180
2020/01/31 22:42:44.5	78.910	0.330	-1.270	-0.200
2020/01/31 22:42:44.6	78.940	0.360	-1.290	-0.230
2020/01/31 22:42:44.7	78.960	0.400	-1.290	-0.250
2020/01/31 22:42:44.8	78.990	0.430	-1.290	-0.270
2020/01/31 22:42:44.9	79.010	0.460	-1.280	-0.290
2020/01/31 22:42:45.0	79.040	0.480	-1.260	-0.300
2020/01/31 22:42:45.1	79.070	0.500	-1.230	-0.300
2020/01/31 22:42:45.2	79.090	0.520	-1.200	-0.310
2020/01/31 22:42:45.3	79.110	0.530	-1.150	-0.310
2020/01/31 22:42:45.4	79.130	0.540	-1.110	-0.310
2020/01/31 22:42:45.5	79.150	0.550	-1.050	-0.300
2020/01/31 22:42:45.6	79.160	0.550	-0.990	-0.290
2020/01/31 22:42:45.7	79.180	0.550	-0.920	-0.280
2020/01/31 22:42:45.8	79.200	0.550	-0.850	-0.260
2020/01/31 22:42:45.9	79.210	0.540	-0.780	-0.240
2020/01/31 22:42:46.0	79.220	0.520	-0.700	-0.220
2020/01/31 22:42:46.1	79.230	0.510	-0.620	-0.190
2020/01/31 22:42:46.2	79.240	0.490	-0.540	-0.160
2020/01/31 22:42:46.3	79.240	0.470	-0.460	-0.120
2020/01/31 22:42:46.4	79.240	0.450	-0.380	-0.080
2020/01/31 22:42:46.5	79.240	0.430	-0.290	-0.040
2020/01/31 22:42:46.6	79.230	0.400	-0.210	0.010
2020/01/31 22:42:46.7	79.230	0.370	-0.130	0.060
2020/01/31 22:42:46.8	79.220	0.350	-0.060	0.110
2020/01/31 22:42:46.9	79.210	0.320	0.020	0.160
2020/01/31 22:42:47.0	79.180	0.290	0.090	0.220
2020/01/31 22:42:47.1	79.170	0.260	0.160	0.270
2020/01/31 22:42:47.2	79.150	0.230	0.220	0.330
2020/01/31 22:42:47.3	79.130	0.200	0.280	0.380
2020/01/31 22:42:47.4	79.120	0.170	0.330	0.440
2020/01/31 22:42:47.5	79.100	0.150	0.380	0.490
2020/01/31 22:42:47.6	79.080	0.120	0.420	0.540
2020/01/31 22:42:47.7	79.060	0.090	0.450	0.580
2020/01/31 22:42:47.8	79.040	0.070	0.480	0.630
2020/01/31 22:42:47.9	79.020	0.040	0.510	0.660
2020/01/31 22:42:48.0	79.010	0.020	0.530	0.700
2020/01/31 22:42:48.1	78.990	-0.010	0.540	0.730
2020/01/31 22:42:48.2	78.970	-0.030	0.550	0.760
2020/01/31 22:42:48.3	78.950	-0.050	0.550	0.780
2020/01/31 22:42:48.4	78.930	-0.070	0.540	0.800
2020/01/31 22:42:48.5	78.910	-0.090	0.530	0.810
2020/01/31 22:42:48.6	78.890	-0.100	0.520	0.820
2020/01/31 22:42:48.7	78.880	-0.120	0.500	0.820
2020/01/31 22:42:48.8	78.860	-0.130	0.470	0.820
2020/01/31 22:42:48.9	78.850	-0.140	0.430	0.820
2020/01/31 22:42:49.0	78.820	-0.150	0.390	0.810
2020/01/31 22:42:49.1	78.810	-0.150	0.340	0.800
2020/01/31 22:42:49.2	78.790	-0.160	0.290	0.790
2020/01/31 22:42:49.3	78.780	-0.160	0.240	0.770
2020/01/31 22:42:49.4	78.780	-0.160	0.180	0.760
2020/01/31 22:42:49.5	78.770	-0.160	0.120	0.740
2020/01/31 22:42:49.6	78.760	-0.150	0.060	0.720
2020/01/31 22:42:49.7	78.760	-0.140	-0.010	0.700
2020/01/31 22:42:49.8	78.760	-0.130	-0.080	0.680
2020/01/31 22:42:49.9	78.760	-0.120	-0.150	0.650
2020/01/31 22:42:50.0	78.780	-0.100	-0.220	0.630
2020/01/31 22:42:50.1	78.780	-0.080	-0.290	0.600
2020/01/31 22:42:50.2	78.790	-0.060	-0.360	0.580
2020/01/31 22:42:50.3	78.810	-0.040	-0.430	0.550
2020/01/31 22:42:50.4	78.820	-0.020	-0.500	0.520
2020/01/31 22:42:50.5	78.840	0.000	-0.560	0.500
2020/01/31 22:42:50.6	78.860	0.030	-0.620	0.470
2020/01/31 22:42:50.7	78.880	0.050	-0.680	0.440
2020/01/31 22:42:50.8	78.900	0.080	-0.720	0.420
2020/01/31 22:42:50.9	78.920	0.100	-0.760	0.390
2020/01/31 22:42:51.0	78.950	0.130	-0.800	0.360
2020/01/31 22:42:51.1	78.980	0.150	-0.830	0.330
2020/01/31 22:42:51.2	79.000	0.170	-0.840	0.310
2020/01/31 22:42:51.3	79.020	0.190	-0.850	0.280
2020/01/31 22:42:51.4	79.050	0.200	-0.850	0.260
2020/01/31 22:42:51.5	79.070	0.220	-0.840	0.240
2020/01/31 22:42:51.6	79.090	0.230	-0.820	0.220
2020/01/31 22:42:51.7	79.120	0.230	-0.780	0.200
2020/01/31 22:42:51.8	79.140	0.240	-0.750	0.190
2020/01/31 22:42:51.9	79.160	0.230	-0.700	0.170
2020/01/31 22:42:52.0	79.190	0.230	-0.640	0.170
2020/01/31 22:42:52.1	79.200	0.220	-0.580	0.160
2020/01/31 22:42:52.2	79.220	0.200	-0.510	0.160
2020/01/31 22:42:52.3	79.230	0.180	-0.430	0.160
2020/01/31 22:42:52.4	79.240	0.160	-0.350	0.160
2020/01/31 22:42:52.5	79.250	0.130	-0.270	0.170
2020/01/31 22:42:52.6	79.260	0.100	-0.190	0.180
2020/01/31 22:42:52.7	79.270	0.070	-0.100	0.200
2020/01/31 22:42:52.8	79.270	0.030	-0.010	0.220
2020/01/31 22:42:52.9	79.270	-0.010	0.080	0.240
2020/01/31 22:42:53.0	79.270	-0.060	0.160	0.270
2020/01/31 22:42:53.1	79.270	-0.100	0.250	0.300
2020/01/31 22:42:53.2	79.270	-0.150	0.330	0.330
2020/01/31 22:42:53.3	79.260	-0.200	0.400	0.370
2020/01/31 22:42:53.4	79.250	-0.250	0.470	0.400
2020/01/31 22:42:53.5	79.250	-0.300	0.530	0.440
2020/01/31 22:42:53.6	79.240	-0.350	0.590	0.480
2020/01/31 22:42:53.7	79.230	-0.400	0.640	0.510
2020/01/31 22:42:53.8	79.210	-0.450	0.670	0.550
2020/01/31 22:42:53.9	79.200	-0.490	0.700	0.580
2020/01/31 22:42:54.0	79.200	-0.540	0.720	0.620
2020/01/31 22:42:54.1	79.190	-0.570	0.730	0.650
2020/01/31 22:42:54.2	79.170	-0.610	0.730	0.680
2020/01/31 22:42:54.3	79.160	-0.640	0.720	0.700
2020/01/31 22:42:54.4	79.150	-0.660	0.700	0.720
2020/01/31 22:42:54.5	79.140	-0.680	0.670	0.740
2020/01/31 22:42:54.6	79.120	-0.700	0.630	0.760
2020/01/31 22:42:54.7	79.110	-0.710	0.580	0.770
2020/01/31 22:42:54.8	79.100	-0.710	0.520	0.790
2020/01/31 22:42:54.9	79.090	-0.700	0.450	0.800
2020/01/31 22:42:55.0	79.070	-0.690	0.370	0.800
2020/01/31 22:42:55.1	79.060	-0.680	0.290	0.810
2020/01/31 22:42:55.2	79.050	-0.650	0.200	0.810
2020/01/31 22:42:55.3	79.040	-0.620	0.110	0.820
2020/01/31 22:42:55.4	79.030	-0.590	0.010	0.820
2020/01/31 22:42:55.5	79.020	-0.540	-0.090	0.810
2020/01/31 22:42:55.6	79.020	-0.500	-0.200	0.810
2020/01/31 22:42:55.7	79.010	-0.440	-0.310	0.800
2020/01/31 22:42:55.8	79.000	-0.390	-0.420	0.800
2020/01/31 22:42:55.9	79.000	-0.330	-0.530	0.790
2020/01/31 22:42:56.0	78.990	-0.260	-0.640	0.780
2020/01/31 22:42:56.1	78.980	-0.200	-0.750	0.770
2020/01/31 22:42:56.2	78.980	-0.130	-0.850	0.750
2020/01/31 22:42:56.3	78.970	-0.060	-0.950	0.740
2020/01/31 22:42:56.4	78.970	0.010	-1.050	0.730
2020/01/31 22:42:56.5	78.960	0.080	-1.140	0.720
2020/01/31 22:42:56.6	78.950	0.150	-1.220	0.710
2020/01/31 22:42:56.7	78.950	0.220	-1.300	0.700
2020/01/31 22:42:56.8	78.940	0.290	-1.370	0.690
2020/01/31 22:42:56.9	78.930	0.350	-1.430	0.680
2020/01/31 22:42:57.0	78.920	0.410	-1.480	0.670
2020/01/31 22:42:57.1	78.900	0.470	-1.510	0.660
2020/01/31 22:42:57.2	78.890	0.520	-1.540	0.660
2020/01/31 22:42:57.3	78.870	0.570	-1.550	0.650
2020/01/31 22:42:57.4	78.850	0.610	-1.560	0.650
2020/01/31 22:42:57.5	78.830	0.640	-1.550	0.640
2020/01/31 22:42:57.6	78.820	0.670	-1.530	0.640
2020/01/31 22:42:57.7	78.800	0.700	-1.490	0.640
2020/01/31 22:42:57.8	78.770	0.710	-1.450	0.640
2020/01/31 22:42:57.9	78.750	0.730	-1.390	0.640
2020/01/31 22:42:58.0	78.730	0.730	-1.320	0.630
2020/01/31 22:42:58.1	78.700	0.730	-1.250	0.630
2020/01/31 22:42:58.2	78.680	0.720	-1.160	0.630
2020/01/31 22:42:58.3	78.660	0.710	-1.070	0.630
2020/01/31 22:42:58.4	78.640	0.690	-0.970	0.620
2020/01/31 22:42:58.5	78.620	0.660	-0.860	0.620
2020/01/31 22:42:58.6	78.590	0.630	-0.750	0.610
2020/01/31 22:42:58.7	78.580	0.600	-0.640	0.600
2020/01/31 22:42:58.8	78.560	0.560	-0.520	0.580
2020/01/31 22:42:58.9	78.540	0.520	-0.400	0.570
2020/01/31 22:42:59.0	78.540	0.470	-0.280	0.550
2020/01/31 22:42:59.1	78.530	0.430	-0.170	0.530
2020/01/31 22:42:59.2	78.520	0.380	-0.060	0.510
2020/01/31 22:42:59.3	78.510	0.330	0.050	0.480
2020/01/31 22:42:59.4	78.510	0.280	0.160	0.450
2020/01/31 22:42:59.5	78.500	0.230	0.250	0.420
2020/01/31 22:42:59.6	78.500	0.180	0.350	0.380
2020/01/31 22:42:59.7	78.500	0.130	0.430	0.350
2020/01/31 22:42:59.8	78.500	0.080	0.510	0.310
2020/01/31 22:42:59.9	78.510	0.040	0.580	0.270
2020/01/31 22:43:00.0	78.510	-0.000	0.630	0.230
2020/01/31 22:43:00.1	78.520	-0.040	0.680	0.180
2020/01/31 22:43:00.2	78.530	-0.080	0.720	0.140
2020/01/31 22:43:00.3	78.550	-0.110	0.750	0.100
2020/01/31 22:43:00.4	78.570	-0.140	0.770	0.050
2020/01/31 22:43:00.5	78.590	-0.160	0.780	0.010
2020/01/31 22:43:00.6	78.610	-0.180	0.780	-0.040
2020/01/31 22:43:00.7	78.640	-0.190	0.770	-0.090
2020/01/31 22:43:00.8	78.670	-0.200	0.760	-0.130
2020/01/31 22:43:00.9	78.690	-0.200	0.730	-0.170
2020/01/31 22:43:01.0	78.720	-0.200	0.690	-0.220
2020/01/31 22:43:01.1	78.750	-0.200	0.650	-0.260
2020/01/31 22:43:01.2	78.780	-0.190	0.610	-0.300
2020/01/31 22:43:01.3	78.810	-0.180	0.550	-0.340
2020/01/31 22:43:01.4	78.850	-0.170	0.500	-0.370
2020/01/31 22:43:01.5	78.880	-0.150	0.440	-0.400
2020/01/31 22:43:01.6	78.900	-0.130	0.380	-0.430
2020/01/31 22:43:01.7	78.930	-0.110	0.320	-0.450
2020/01/31 22:43:01.8	78.960	-0.090	0.250	-0.470
2020/01/31 22:43:01.9	78.980	-0.070	0.190	-0.480
2020/01/31 22:43:02.0	79.000	-0.050	0.130	-0.490
2020/01/31 22:43:02.1	79.020	-0.030	0.070	-0.490
2020/01/31 22:43:02.2	79.030	-0.010	0.010	-0.490
2020/01/31 22:43:02.3	79.050	0.010	-0.040	-0.480
2020/01/31 22:43:02.4	79.060	0.030	-0.090	-0.470
2020/01/31 22:43:02.5	79.060	0.050	-0.140	-0.450
2020/01/31 22:43:02.6	79.070	0.070	-0.180	-0.430
2020/01/31 22:43:02.7	79.070	0.080	-0.220	-0.410
2020/01/31 22:43:02.8	79.070	0.090	-0.260	-0.380
2020/01/31 22:43:02.9	79.070	0.100	-0.290	-0.340
2020/01/31 22:43:03.0	79.080	0.100	-0.320	-0.300
2020/01/31 22:43:03.1	79.080	0.110	-0.340	-0.260
2020/01/31 22:43:03.2	79.070	0.110	-0.360	-0.220
2020/01/31 22:43:03.3	79.060	0.110	-0.380	-0.170
2020/01/31 22:43:03.4	79.050	0.100	-0.390	-0.120
2020/01/31 22:43:03.5	79.040	0.090	-0.400	-0.070
2020/01/31 22:43:03.6	79.030	0.080	-0.410	-0.020
2020/01/31 22:43:03.7	79.020	0.070	-0.410	0.030
2020/01/31 22:43:03.8	79.010	0.060	-0.410	0.080
2020/01/31 22:43:03.9	78.990	0.040	-0.410	0.140
2020/01/31 22:43:04.0	78.980	0.020	-0.410	0.190
2020/01/31 22:43:04.1	78.970	0.010	-0.410	0.240
2020/01/31 22:43:04.2	78.950	-0.010	-0.400	0.290
2020/01/31 22:43:04.3	78.940	-0.030	-0.400	0.330
2020/01/31 22:43:04.4	78.930	-0.050	-0.390	0.380
2020/01/31 22:43:04.5	78.910	-0.080	-0.390	0.420
2020/01/31 22:43:04.6	78.900	-0.100	-0.390	0.470
2020/01/31 22:43:04.7	78.880	-0.120	-0.380	0.510
2020/01/31 22:43:04.8	78.870	-0.140	-0.380	0.540
2020/01/31 22:43:04.9	78.850	-0.160	-0.380	0.580
2020/01/31 22:43:05.0	78.840	-0.180	-0.380	0.610
2020/01/31 22:43:05.1	78.830	-0.190	-0.380	0.640
2020/01/31 22:43:05.2	78.810	-0.210	-0.380	0.670
2020/01/31 22:43:05.3	78.800	-0.220	-0.380	0.700
2020/01/31 22:43:05.4	78.780	-0.230	-0.380	0.730
2020/01/31 22:43:05.5	78.760	-0.240	-0.380	0.760
2020/01/31 22:43:05.6	78.740	-0.250	-0.380	0.790
2020/01/31 22:43:05.7	78.720	-0.250	-0.380	0.810
2020/01/31 22:43:05.8	78.700	-0.260	-0.390	0.840
2020/01/31 22:43:05.9	78.680	-0.260	-0.390	0.860
2020/01/31 22:43:06.0	78.650	-0.250	-0.390	0.890
2020/01/31 22:43:06.1	78.630	-0.250	-0.390	0.910
2020/01/31 22:43:06.2	78.610	-0.240	-0.400	0.930
2020/01/31 22:43:06.3	78.590	-0.230	-0.400	0.950
2020/01/31 22:43:06.4	78.570	-0.220	-0.400	0.970
2020/01/31 22:43:06.5	78.550	-0.210	-0.400	0.980
2020/01/31 22:43:06.6	78.530	-0.200	-0.400	1.000
2020/01/31 22:43:06.7	78.520	-0.180	-0.400	1.010
2020/01/31 22:43:06.8	78.500	-0.160	-0.400	1.010
2020/01/31 22:43:06.9	78.490	-0.150	-0.400	1.020
2020/01/31 22:43:07.0	78.480	-0.130	-0.410	1.010
2020/01/31 22:43:07.1	78.470	-0.110	-0.410	1.010
2020/01/31 22:43:07.2	78.470	-0.090	-0.410	1.000
2020/01/31 22:43:07.3	78.460	-0.070	-0.400	0.990
2020/01/31 22:43:07.4	78.460	-0.050	-0.400	0.980
2020/01/31 22:43:07.5	78.460	-0.030	-0.390	0.960
2020/01/31 22:43:07.6	78.460	-0.010	-0.390	0.950
2020/01/31 22:43:07.7	78.470	0.010	-0.380	0.920
2020/01/31 22:43:07.8	78.480	0.020	-0.370	0.900
2020/01/31 22:43:07.9	78.490	0.040	-0.360	0.870
2020/01/31 22:43:08.0	78.500	0.060	-0.340	0.850
2020/01/31 22:43:08.1	78.510	0.070	-0.330	0.810
2020/01/31 22:43:08.2	78.530	0.080	-0.320	0.780
2020/01/31 22:43:08.3	78.550	0.090	-0.310	0.750
2020/01/31 22:43:08.4	78.570	0.110	-0.300	0.710
2020/01/31 22:43:08.5	78.590	0.110	-0.290	0.670
2020/01/31 22:43:08.6	78.620	0.120	-0.280	0.640
2020/01/31 22:43:08.7	78.640	0.130	-0.270	0.600
2020/01/31 22:43:08.8	78.660	0.140	-0.270	0.570
2020/01/31 22:43:08.9	78.690	0.140	-0.260	0.530
2020/01/31 22:43:09.0	78.710	0.150	-0.250	0.500
2020/01/31 22:43:09.1	78.740	0.150	-0.240	0.470
2020/01/31 22:43:09.2	78.760	0.150	-0.240	0.440
2020/01/31 22:43:09.3	78.780	0.160	-0.230	0.410
2020/01/31 22:43:09.4	78.810	0.160	-0.220	0.390
2020/01/31 22:43:09.5	78.820	0.160	-0.210	0.370
2020/01/31 22:43:09.6	78.840	0.160	-0.210	0.350
2020/01/31 22:43:09.7	78.850	0.160	-0.200	0.340
2020/01/31 22:43:09.8	78.860	0.160	-0.190	0.330
2020/01/31 22:43:09.9	78.870	0.160	-0.180	0.320
2020/01/31 22:43:10.0	78.880	0.160	-0.170	0.320
2020/01/31 22:43:10.1	78.890	0.150	-0.160	0.320
2020/01/31 22:43:10.2	78.880	0.150	-0.150	0.320
2020/01/31 22:43:10.3	78.880	0.150	-0.140	0.330
2020/01/31 22:43:10.4	78.870	0.140	-0.130	0.330
2020/01/31 22:43:10.5	78.850	0.140	-0.130	0.340
2020/01/31 22:43:10.6	78.840	0.130	-0.120	0.350
2020/01/31 22:43:10.7	78.820	0.120	-0.110	0.360
2020/01/31 22:43:10.8	78.800	0.120	-0.100	0.370
2020/01/31 22:43:10.9	78.780	0.110	-0.100	0.380
2020/01/31 22:43:11.0	78.760	0.100	-0.100	0.390
2020/01/31 22:43:11.1	78.740	0.090	-0.090	0.400
2020/01/31 22:43:11.2	78.720	0.080	-0.090	0.410
2020/01/31 22:43:11.3	78.690	0.070	-0.090	0.410
2020/01/31 22:43:11.4	78.670	0.060	-0.090	0.420
2020/01/31 22:43:11.5	78.650	0.050	-0.090	0.420
2020/01/31 22:43:11.6	78.630	0.040	-0.100	0.420
2020/01/31 22:43:11.7	78.620	0.030	-0.100	0.410
2020/01/31 22:43:11.8	78.610	0.020	-0.110	0.410
2020/01/31 22:43:11.9	78.600	0.010	-0.120	0.400
2020/01/31 22:43:12.0	78.590	-0.000	-0.130	0.390
2020/01/31 22:43:12.1	78.590	-0.010	-0.150	0.370
2020/01/31 22:43:12.2	78.590	-0.020	-0.160	0.360
2020/01/31 22:43:12.3	78.600	-0.030	-0.170	0.340
2020/01/31 22:43:12.4	78.610	-0.040	-0.180	0.330
2020/01/31 22:43:12.5	78.630	-0.040	-0.190	0.310
2020/01/31 22:43:12.6	78.640	-0.050	-0.210	0.290
2020/01/31 22:43:12.7	78.660	-0.050	-0.220	0.270
2020/01/31 22:43:12.8	78.680	-0.060	-0.220	0.260
2020/01/31 22:43:12.9	78.710	-0.060	-0.230	0.240
2020/01/31 22:43:13.0	78.730	-0.060	-0.230	0.230
2020/01/31 22:43:13.1	78.760	-0.060	-0.230	0.210
2020/01/31 22:43:13.2	78.780	-0.060	-0.230	0.200
2020/01/31 22:43:13.3	78.800	-0.070	-0.220	0.190
2020/01/31 22:43:13.4	78.820	-0.070	-0.210	0.180
2020/01/31 22:43:13.5	78.850	-0.070	-0.200	0.180
2020/01/31 22:43:13.6	78.860	-0.070	-0.190	0.170
2020/01/31 22:43:13.7	78.880	-0.070	-0.180	0.170
2020/01/31 22:43:13.8	78.900	-0.070	-0.160	0.160
2020/01/31 22:43:13.9	78.910	-0.070	-0.140	0.160
2020/01/31 22:43:14.0	78.920	-0.070	-0.130	0.160
2020/01/31 22:43:14.1	78.930	-0.070	-0.110	0.160
2020/01/31 22:43:14.2	78.930	-0.080	-0.100	0.160
2020/01/31 22:43:14.3	78.940	-0.080	-0.080	0.160
2020/01/31 22:43:14.4	78.940	-0.080	-0.070	0.160
2020/01/31 22:43:14.5	78.940	-0.080	-0.060	0.160
2020/01/31 22:43:14.6	78.940	-0.080	-0.050	0.160
2020/01/31 22:43:14.7	78.940	-0.080	-0.040	0.160
2020/01/31 22:43:14.8	78.940	-0.080	-0.040	0.160
2020/01/31 22:43:14.9	78.930	-0.080	-0.050	0.160
2020/01/31 22:43:15.0	78.920	-0.080	-0.050	0.170
2020/01/31 22:43:15.1	78.920	-0.080	-0.060	0.160
2020/01/31 22:43:15.2	78.910	-0.080	-0.080	0.160
2020/01/31 22:43:15.3	78.910	-0.080	-0.100	0.160
2020/01/31 22:43:15.4	78.900	-0.080	-0.120	0.150
2020/01/31 22:43:15.5	78.900	-0.080	-0.150	0.150
2020/01/31 22:43:15.6	78.900	-0.070	-0.180	0.140
2020/01/31 22:43:15.7	78.900	-0.070	-0.210	0.130
2020/01/31 22:43:15.8	78.900	-0.070	-0.250	0.130
2020/01/31 22:43:15.9	78.900	-0.060	-0.290	0.120
2020/01/31 22:43:16.0	78.900	-0.060	-0.330	0.110
2020/01/31 22:43:16.1	78.900	-0.050	-0.370	0.100
2020/01/31 22:43:16.2	78.900	-0.040	-0.410	0.100
2020/01/31 22:43:16.3	78.900	-0.030	-0.450	0.090
2020/01/31 22:43:16.4	78.900	-0.030	-0.480	0.080
2020/01/31 22:43:16.5	78.910	-0.020	-0.520	0.080
2020/01/31 22:43:16.6	78.910	-0.010	-0.550	0.070
2020/01/31 22:43:16.7	78.910	-0.000	-0.580	0.070
2020/01/31 22:43:16.8	78.910	0.010	-0.610	0.060
2020/01/31 22:43:16.9	78.920	0.020	-0.630	0.060
2020/01/31 22:43:17.0	78.920	0.030	-0.640	0.050
2020/01/31 22:43:17.1	78.930	0.040	-0.650	0.050
2020/01/31 22:43:17.2	78.930	0.040	-0.660	0.050
2020/01/31 22:43:17.3	78.930	0.050	-0.660	0.050
2020/01/31 22:43:17.4	78.930	0.060	-0.650	0.050
2020/01/31 22:43:17.5	78.930	0.070	-0.630	0.060
2020/01/31 22:43:17.6	78.930	0.080	-0.610	0.060
2020/01/31 22:43:17.7	78.930	0.090	-0.590	0.070
2020/01/31 22:43:17.8	78.930	0.090	-0.560	0.070
2020/01/31 22:43:17.9	78.920	0.100	-0.520	0.080
2020/01/31 22:43:18.0	78.910	0.110	-0.480	0.090
2020/01/31 22:43:18.1	78.910	0.110	-0.430	0.110
2020/01/31 22:43:18.2	78.910	0.120	-0.380	0.120
2020/01/31 22:43:18.3	78.910	0.130	-0.330	0.140
2020/01/31 22:43:18.4	78.910	0.130	-0.280	0.150
2020/01/31 22:43:18.5	78.910	0.140	-0.230	0.170
2020/01/31 22:43:18.6	78.910	0.150	-0.180	0.190
2020/01/31 22:43:18.7	78.910	0.150	-0.130	0.200
2020/01/31 22:43:18.8	78.920	0.160	-0.080	0.220
2020/01/31 22:43:18.9	78.920	0.170	-0.030	0.240
2020/01/31 22:43:19.0	78.940	0.170	0.000	0.250
2020/01/31 22:43:19.1	78.950	0.180	0.040	0.270
2020/01/31 22:43:19.2	78.960	0.190	0.070	0.280
2020/01/31 22:43:19.3	78.970	0.200	0.100	0.290
2020/01/31 22:43:19.4	78.990	0.200	0.130	0.300
2020/01/31 22:43:19.5	79.000	0.210	0.140	0.310
2020/01/31 22:43:19.6	79.020	0.220	0.150	0.320
2020/01/31 22:43:19.7	79.040	0.220	0.160	0.330
2020/01/31 22:43:19.8	79.060	0.230	0.160	0.340
2020/01/31 22:43:19.9	79.080	0.240	0.160	0.340
2020/01/31 22:43:20.0	79.090	0.240	0.150	0.350
2020/01/31 22:43:20.1	79.100	0.250	0.130	0.360
2020/01/31 22:43:20.2	79.120	0.250	0.110	0.360
2020/01/31 22:43:20.3	79.130	0.250	0.090	0.370
2020/01/31 22:43:20.4	79.140	0.250	0.070	0.370
2020/01/31 22:43:20.5	79.150	0.250	0.040	0.380
2020/01/31 22:43:20.6	79.150	0.250	0.010	0.390
2020/01/31 22:43:20.7	79.150	0.240	-0.020	0.400
2020/01/31 22:43:20.8	79.150	0.240	-0.050	0.400
2020/01/31 22:43:20.9	79.150	0.230	-0.080	0.410
2020/01/31 22:43:21.0	79.150	0.220	-0.120	0.420
2020/01/31 22:43:21.1	79.140	0.200	-0.150	0.430
2020/01/31 22:43:21.2	79.120	0.180	-0.180	0.430
2020/01/31 22:43:21.3	79.110	0.170	-0.200	0.440
2020/01/31 22:43:21.4	79.090	0.140	-0.220	0.450
2020/01/31 22:43:21.5	79.080	0.120	-0.240	0.460
2020/01/31 22:43:21.6	79.060	0.090	-0.260	0.460
2020/01/31 22:43:21.7	79.040	0.060	-0.280	0.470
2020/01/31 22:43:21.8	79.010	0.030	-0.290	0.470
2020/01/31 22:43:21.9	78.990	0.000	-0.300	0.480
2020/01/31 22:43:22.0	78.980	-0.030	-0.300	0.490
2020/01/31 22:43:22.1	78.960	-0.060	-0.300	0.490
2020/01/31 22:43:22.2	78.930	-0.100	-0.300	0.500
2020/01/31 22:43:22.3	78.910	-0.130	-0.300	0.500
2020/01/31 22:43:22.4	78.890	-0.170	-0.290	0.510
2020/01/31 22:43:22.5	78.880	-0.200	-0.290	0.510
2020/01/31 22:43:22.6	78.860	-0.230	-0.280	0.520
2020/01/31 22:43:22.7	78.850	-0.260	-0.270	0.520
2020/01/31 22:43:22.8	78.840	-0.290	-0.270	0.520
2020/01/31 22:43:22.9	78.830	-0.320	-0.260	0.520
2020/01/31 22:43:23.0	78.810	-0.350	-0.250	0.520
2020/01/31 22:43:23.1	78.800	-0.370	-0.250	0.520
2020/01/31 22:43:23.2	78.800	-0.390	-0.240	0.510
2020/01/31 22:43:23.3	78.800	-0.400	-0.240	0.510
2020/01/31 22:43:23.4	78.800	-0.410	-0.240	0.500
2020/01/31 22:43:23.5	78.800	-0.420	-0.240	0.500
2020/01/31 22:43:23.6	78.810	-0.430	-0.250	0.490
2020/01/31 22:43:23.7	78.810	-0.430	-0.250	0.480
2020/01/31 22:43:23.8	78.820	-0.430	-0.260	0.470
2020/01/31 22:43:23.9	78.830	-0.430	-0.270	0.450
2020/01/31 22:43:24.0	78.850	-0.420	-0.280	0.440
2020/01/31 22:43:24.1	78.860	-0.410	-0.290	0.430
2020/01/31 22:43:24.2	78.870	-0.400	-0.300	0.410
2020/01/31 22:43:24.3	78.880	-0.380	-0.310	0.390
2020/01/31 22:43:24.4	78.890	-0.370	-0.330	0.370
2020/01/31 22:43:24.5	78.900	-0.350	-0.340	0.350
2020/01/31 22:43:24.6	78.910	-0.330	-0.350	0.330
2020/01/31 22:43:24.7	78.920	-0.310	-0.360	0.310
2020/01/31 22:43:24.8	78.930	-0.290	-0.370	0.280
2020/01/31 22:43:24.9	78.940	-0.270	-0.370	0.260
2020/01/31 22:43:25.0	78.940	-0.240	-0.380	0.230
2020/01/31 22:43:25.1	78.950	-0.220	-0.380	0.210
2020/01/31 22:43:25.2	78.960	-0.200	-0.390	0.180
2020/01/31 22:43:25.3	78.960	-0.180	-0.390	0.160
2020/01/31 22:43:25.4	78.970	-0.160	-0.380	0.130
2020/01/31 22:43:25.5	78.980	-0.130	-0.380	0.110
2020/01/31 22:43:25.6	78.990	-0.110	-0.370	0.090
2020/01/31 22:43:25.7	78.990	-0.090	-0.370	0.070
2020/01/31 22:43:25.8	79.000	-0.070	-0.360	0.060
2020/01/31 22:43:25.9	79.010	-0.060	-0.340	0.040
2020/01/31 22:43:26.0	79.020	-0.040	-0.330	0.030
2020/01/31 22:43:26.1	79.020	-0.020	-0.320	0.020
2020/01/31 22:43:26.2	79.030	-0.010	-0.300	0.010
2020/01/31 22:43:26.3	79.040	0.010	-0.290	0.000
2020/01/31 22:43:26.4	79.050	0.020	-0.270	-0.000
2020/01/31 22:43:26.5	79.050	0.030	-0.250	-0.010
2020/01/31 22:43:26.6	79.060	0.050	-0.240	-0.010
2020/01/31 22:43:26.7	79.070	0.060	-0.220	-0.010
2020/01/31 22:43:26.8	79.080	0.070	-0.200	-0.010
2020/01/31 22:43:26.9	79.090	0.070	-0.190	-0.000
2020/01/31 22:43:27.0	79.110	0.080	-0.170	0.010
2020/01/31 22:43:27.1	79.120	0.090	-0.160	0.010
2020/01/31 22:43:27.2	79.120	0.090	-0.150	0.020
2020/01/31 22:43:27.3	79.130	0.100	-0.130	0.030
2020/01/31 22:43:27.4	79.140	0.100	-0.120	0.040
2020/01/31 22:43:27.5	79.150	0.100	-0.110	0.050
2020/01/31 22:43:27.6	79.150	0.110	-0.100	0.070
2020/01/31 22:43:27.7	79.160	0.110	-0.090	0.080
2020/01/31 22:43:27.8	79.170	0.110	-0.090	0.100
2020/01/31 22:43:27.9	79.170	0.110	-0.080	0.110
2020/01/31 22:43:28.0	79.170	0.110	-0.080	0.130
2020/01/31 22:43:28.1	79.180	0.110	-0.080	0.150
2020/01/31 22:43:28.2	79.180	0.110	-0.080	0.170
2020/01/31 22:43:28.3	79.170	0.100	-0.080	0.180
2020/01/31 22:43:28.4	79.170	0.100	-0.090	0.200
2020/01/31 22:43:28.5	79.170	0.100	-0.090	0.220
2020/01/31 22:43:28.6	79.160	0.100	-0.100	0.240
2020/01/31 22:43:28.7	79.150	0.100	-0.110	0.260
2020/01/31 22:43:28.8	79.140	0.100	-0.120	0.280
2020/01/31 22:43:28.9	79.130	0.100	-0.130	0.300
2020/01/31 22:43:29.0	79.120	0.100	-0.150	0.320
2020/01/31 22:43:29.1	79.100	0.100	-0.170	0.340
2020/01/31 22:43:29.2	79.080	0.100	-0.180	0.360
2020/01/31 22:43:29.3	79.060	0.100	-0.200	0.380
2020/01/31 22:43:29.4	79.030	0.110	-0.220	0.400
2020/01/31 22:43:29.5	79.010	0.110	-0.230	0.420
2020/01/31 22:43:29.6	78.980	0.110	-0.250	0.440
2020/01/31 22:43:29.7	78.950	0.110	-0.270	0.460
2020/01/31 22:43:29.8	78.920	0.110	-0.290	0.470
2020/01/31 22:43:29.9	78.890	0.120	-0.300	0.490
2020/01/31 22:43:30.0	78.870	0.120	-0.320	0.500
2020/01/31 22:43:30.1	78.840	0.120	-0.330	0.510
2020/01/31 22:43:30.2	78.810	0.120	-0.340	0.530
2020/01/31 22:43:30.3	78.780	0.130	-0.350	0.540
2020/01/31 22:43:30.4	78.750	0.130	-0.360	0.550
2020/01/31 22:43:30.5	78.720	0.130	-0.360	0.550
2020/01/31 22:43:30.6	78.700	0.130	-0.360	0.560
2020/01/31 22:43:30.7	78.670	0.130	-0.360	0.570
2020/01/31 22:43:30.8	78.650	0.130	-0.360	0.570
2020/01/31 22:43:30.9	78.630	0.130	-0.350	0.570
2020/01/31 22:43:31.0	78.620	0.130	-0.340	0.570
2020/01/31 22:43:31.1	78.610	0.120	-0.330	0.570
2020/01/31 22:43:31.2	78.600	0.120	-0.310	0.570
2020/01/31 22:43:31.3	78.590	0.120	-0.300	0.560
2020/01/31 22:43:31.4	78.580	0.110	-0.280	0.550
2020/01/31 22:43:31.5	78.580	0.110	-0.270	0.540
2020/01/31 22:43:31.6	78.590	0.100	-0.250	0.530
2020/01/31 22:43:31.7	78.590	0.090	-0.230	0.520
2020/01/31 22:43:31.8	78.600	0.090	-0.210	0.510
2020/01/31 22:43:31.9	78.610	0.080	-0.200	0.490
2020/01/31 22:43:32.0	78.620	0.070	-0.180	0.480
2020/01/31 22:43:32.1	78.640	0.070	-0.160	0.460
2020/01/31 22:43:32.2	78.660	0.060	-0.150	0.440
2020/01/31 22:43:32.3	78.680	0.050	-0.150	0.410
2020/01/31 22:43:32.4	78.700	0.050	-0.140	0.390
2020/01/31 22:43:32.5	78.730	0.050	-0.140	0.370
2020/01/31 22:43:32.6	78.760	0.040	-0.150	0.340
2020/01/31 22:43:32.7	78.790	0.040	-0.150	0.320
2020/01/31 22:43:32.8	78.820	0.040	-0.170	0.290
2020/01/31 22:43:32.9	78.850	0.040	-0.180	0.260
2020/01/31 22:43:33.0	78.880	0.050	-0.200	0.230
2020/01/31 22:43:33.1	78.920	0.050	-0.230	0.210
2020/01/31 22:43:33.2	78.950	0.060	-0.250	0.180
2020/01/31 22:43:33.3	78.980	0.070	-0.280	0.160
2020/01/31 22:43:33.4	79.020	0.080	-0.310	0.130
2020/01/31 22:43:33.5	79.050	0.100	-0.340	0.110
2020/01/31 22:43:33.6	79.080	0.110	-0.370	0.090
2020/01/31 22:43:33.7	79.110	0.130	-0.400	0.080
2020/01/31 22:43:33.8	79.140	0.150	-0.430	0.060
2020/01/31 22:43:33.9	79.170	0.170	-0.460	0.050
2020/01/31 22:43:34.0	79.200	0.190	-0.490	0.040
2020/01/31 22:43:34.1	79.220	0.210	-0.510	0.040
2020/01/31 22:43:34.2	79.240	0.230	-0.530	0.040
2020/01/31 22:43:34.3	79.260	0.240	-0.540	0.050
2020/01/31 22:43:34.4	79.280	0.260	-0.550	0.060
2020/01/31 22:43:34.5	79.290	0.280	-0.560	0.070
2020/01/31 22:43:34.6	79.290	0.290	-0.550	0.090
2020/01/31 22:43:34.7	79.290	0.300	-0.540	0.120
2020/01/31 22:43:34.8	79.290	0.310	-0.530	0.150
2020/01/31 22:43:34.9	79.280	0.310	-0.510	0.180
2020/01/31 22:43:35.0	79.280	0.310	-0.480	0.220
2020/01/31 22:43:35.1	79.270	0.310	-0.440	0.260
2020/01/31 22:43:35.2	79.250	0.310	-0.400	0.300
2020/01/31 22:43:35.3	79.220	0.290	-0.360	0.340
2020/01/31 22:43:35.4	79.200	0.280	-0.310	0.390
2020/01/31 22:43:35.5	79.170	0.260	-0.250	0.430
2020/01/31 22:43:35.6	79.140	0.230	-0.200	0.480
2020/01/31 22:43:35.7	79.110	0.210	-0.140	0.520
2020/01/31 22:43:35.8	79.080	0.170	-0.080	0.560
2020/01/31 22:43:35.9	79.040	0.140	-0.020	0.600
2020/01/31 22:43:36.0	79.010	0.100	0.040	0.640
2020/01/31 22:43:36.1	78.980	0.060	0.100	0.670
2020/01/31 22:43:36.2	78.950	0.010	0.160	0.700
2020/01/31 22:43:36.3	78.910	-0.040	0.210	0.730
2020/01/31 22:43:36.4	78.880	-0.090	0.270	0.750
2020/01/31 22:43:36.5	78.850	-0.140	0.320	0.770
2020/01/31 22:43:36.6	78.820	-0.190	0.360	0.780
2020/01/31 22:43:36.7	78.800	-0.240	0.400	0.790
2020/01/31 22:43:36.8	78.770	-0.290	0.430	0.800
2020/01/31 22:43:36.9	78.750	-0.340	0.460	0.800
2020/01/31 22:43:37.0	78.710	-0.390	0.480	0.790
2020/01/31 22:43:37.1	78.700	-0.440	0.500	0.780
2020/01/31 22:43:37.2	78.680	-0.490	0.510	0.770
2020/01/31 22:43:37.3	78.670	-0.530	0.510	0.750
2020/01/31 22:43:37.4	78.670	-0.560	0.500	0.730
2020/01/31 22:43:37.5	78.660	-0.600	0.490	0.700
2020/01/31 22:43:37.6	78.660	-0.630	0.470	0.670
2020/01/31 22:43:37.7	78.660	-0.650	0.450	0.640
2020/01/31 22:43:37.8	78.670	-0.670	0.410	0.610
2020/01/31 22:43:37.9	78.680	-0.680	0.380	0.570
2020/01/31 22:43:38.0	78.700	-0.690	0.330	0.540
2020/01/31 22:43:38.1	78.710	-0.690	0.280	0.500
2020/01/31 22:43:38.2	78.730	-0.690	0.230	0.460
2020/01/31 22:43:38.3	78.750	-0.680	0.170	0.420
2020/01/31 22:43:38.4	78.780	-0.660	0.110	0.380
2020/01/31 22:43:38.5	78.810	-0.640	0.040	0.340
2020/01/31 22:43:38.6	78.840	-0.620	-0.030	0.300
2020/01/31 22:43:38.7	78.870	-0.590	-0.100	0.260
2020/01/31 22:43:38.8	78.900	-0.560	-0.170	0.230
2020/01/31 22:43:38.9	78.940	-0.520	-0.240	0.190
2020/01/31 22:43:39.0	78.980	-0.480	-0.310	0.150
2020/01/31 22:43:39.1	79.010	-0.440	-0.380	0.120
2020/01/31 22:43:39.2	79.050	-0.400	-0.450	0.080
2020/01/31 22:43:39.3	79.080	-0.350	-0.510	0.050
2020/01/31 22:43:39.4	79.120	-0.310	-0.580	0.020
2020/01/31 22:43:39.5	79.150	-0.260	-0.640	-0.010
2020/01/31 22:43:39.6	79.180	-0.220	-0.700	-0.040
2020/01/31 22:43:39.7	79.210	-0.170	-0.750	-0.070
2020/01/31 22:43:39.8	79.240	-0.130	-0.800	-0.090
2020/01/31 22:43:39.9	79.260	-0.090	-0.840	-0.110
2020/01/31 22:43:40.0	79.280	-0.050	-0.880	-0.130
2020/01/31 22:43:40.1	79.300	-0.010	-0.920	-0.150
2020/01/31 22:43:40.2	79.310	0.030	-0.940	-0.160
2020/01/31 22:43:40.3	79.320	0.060	-0.970	-0.170
2020/01/31 22:43:40.4	79.330	0.090	-0.980	-0.170
2020/01/31 22:43:40.5	79.340	0.120	-0.990	-0.170
2020/01/31 22:43:40.6	79.340	0.150	-1.000	-0.160
2020/01/31 22:43:40.7	79.340	0.170	-0.990	-0.150
2020/01/31 22:43:40.8	79.330	0.190	-0.980	-0.130
2020/01/31 22:43:40.9	79.320	0.210	-0.970	-0.100
2020/01/31 22:43:41.0	79.310	0.220	-0.950	-0.070
2020/01/31 22:43:41.1	79.300	0.230	-0.920	-0.040
2020/01/31 22:43:41.2	79.280	0.240	-0.890	0.000
2020/01/31 22:43:41.3	79.260	0.240	-0.850	0.050
2020/01/31 22:43:41.4	79.240	0.240	-0.810	0.100
2020/01/31 22:43:41.5	79.220	0.240	-0.770	0.150
2020/01/31 22:43:41.6	79.200	0.240	-0.720	0.210
2020/01/31 22:43:41.7	79.180	0.230	-0.670	0.260
2020/01/31 22:43:41.8	79.160	0.220	-0.620	0.320
2020/01/31 22:43:41.9	79.140	0.220	-0.560	0.370
2020/01/31 22:43:42.0	79.110	0.210	-0.510	0.430
2020/01/31 22:43:42.1	79.090	0.190	-0.450	0.490
2020/01/31 22:43:42.2	79.070	0.180	-0.400	0.540
2020/01/31 22:43:42.3	79.060	0.170	-0.350	0.590
2020/01/31 22:43:42.4	79.040	0.150	-0.300	0.630
2020/01/31 22:43:42.5	79.030	0.140	-0.260	0.670
2020/01/31 22:43:42.6	79.020	0.120	-0.220	0.710
2020/01/31 22:43:42.7	79.010	0.110	-0.180	0.740
2020/01/31 22:43:42.8	79.000	0.090	-0.140	0.760
2020/01/31 22:43:42.9	78.990	0.080	-0.110	0.780
2020/01/31 22:43:43.0	79.000	0.060	-0.080	0.790
2020/01/31 22:43:43.1	79.000	0.050	-0.050	0.800
2020/01/31 22:43:43.2	78.990	0.030	-0.030	0.800
2020/01/31 22:43:43.3	78.990	0.020	-0.010	0.790
2020/01/31 22:43:43.4	78.990	0.010	0.000	0.770
2020/01/31 22:43:43.5	78.990	-0.000	0.010	0.750
2020/01/31 22:43:43.6	78.990	-0.010	0.020	0.730
2020/01/31 22:43:43.7	78.990	-0.020	0.020	0.700
2020/01/31 22:43:43.8	78.990	-0.030	0.020	0.660
2020/01/31 22:43:43.9	78.990	-0.030	0.010	0.630
2020/01/31 22:43:44.0	78.990	-0.030	0.010	0.590
2020/01/31 22:43:44.1	78.990	-0.030	-0.000	0.550
2020/01/31 22:43:44.2	78.990	-0.030	-0.010	0.510
2020/01/31 22:43:44.3	78.990	-0.030	-0.020	0.470
2020/01/31 22:43:44.4	78.980	-0.020	-0.030	0.440
2020/01/31 22:43:44.5	78.980	-0.020	-0.040	0.400
2020/01/31 22:43:44.6	78.970	-0.010	-0.060	0.360
2020/01/31 22:43:44.7	78.960	-0.010	-0.070	0.330
2020/01/31 22:43:44.8	78.950	0.000	-0.070	0.300
2020/01/31 22:43:44.9	78.940	0.010	-0.080	0.260
2020/01/31 22:43:45.0	78.920	0.020	-0.080	0.230
2020/01/31 22:43:45.1	78.910	0.030	-0.080	0.210
2020/01/31 22:43:45.2	78.900	0.030	-0.080	0.180
2020/01/31 22:43:45.3	78.880	0.040	-0.070	0.150
2020/01/31 22:43:45.4	78.870	0.050	-0.060	0.130
2020/01/31 22:43:45.5	78.860	0.060	-0.050	0.110
2020/01/31 22:43:45.6	78.840	0.060	-0.030	0.090
2020/01/31 22:43:45.7	78.830	0.070	-0.010	0.070
2020/01/31 22:43:45.8	78.810	0.070	0.010	0.050
2020/01/31 22:43:45.9	78.800	0.070	0.040	0.040
2020/01/31 22:43:46.0	78.780	0.070	0.060	0.030
2020/01/31 22:43:46.1	78.770	0.080	0.080	0.020
2020/01/31 22:43:46.2	78.760	0.080	0.110	0.010
2020/01/31 22:43:46.3	78.750	0.080	0.140	0.000
2020/01/31 22:43:46.4	78.740	0.070	0.160	-0.010
2020/01/31 22:43:46.5	78.730	0.070	0.180	-0.010
2020/01/31 22:43:46.6	78.720	0.070	0.200	-0.020
2020/01/31 22:43:46.7	78.720	0.070	0.220	-0.020
2020/01/31 22:43:46.8	78.720	0.070	0.230	-0.030
2020/01/31 22:43:46.9	78.720	0.060	0.240	-0.030
2020/01/31 22:43:47.0	78.730	0.060	0.250	-0.030
2020/01/31 22:43:47.1	78.730	0.060	0.240	-0.040
2020/01/31 22:43:47.2	78.740	0.060	0.230	-0.040
2020/01/31 22:43:47.3	78.760	0.060	0.220	-0.050
2020/01/31 22:43:47.4	78.780	0.060	0.190	-0.050
2020/01/31 22:43:47.5	78.800	0.070	0.160	-0.060
2020/01/31 22:43:47.6	78.820	0.070	0.130	-0.060
2020/01/31 22:43:47.7	78.850	0.080	0.080	-0.070
2020/01/31 22:43:47.8	78.880	0.080	0.040	-0.080
2020/01/31 22:43:47.9	78.910	0.090	-0.020	-0.080
2020/01/31 22:43:48.0	78.940	0.100	-0.080	-0.090
2020/01/31 22:43:48.1	78.970	0.110	-0.140	-0.090
2020/01/31 22:43:48.2	79.010	0.120	-0.210	-0.090
2020/01/31 22:43:48.3	79.050	0.140	-0.280	-0.090
2020/01/31 22:43:48.4	79.090	0.150	-0.350	-0.090
2020/01/31 22:43:48.5	79.130	0.160	-0.420	-0.090
2020/01/31 22:43:48.6	79.160	0.180	-0.490	-0.090
2020/01/31 22:43:48.7	79.200	0.190	-0.560	-0.080
2020/01/31 22:43:48.8	79.240	0.210	-0.620	-0.070
2020/01/31 22:43:48.9	79.270	0.220	-0.680	-0.060
2020/01/31 22:43:49.0	79.310	0.230	-0.750	-0.040
2020/01/31 22:43:49.1	79.330	0.240	-0.800	-0.020
2020/01/31 22:43:49.2	79.360	0.250	-0.850	0.000
2020/01/31 22:43:49.3	79.380	0.260	-0.890	0.030
2020/01/31 22:43:49.4	79.400	0.270	-0.920	0.060
2020/01/31 22:43:49.5	79.410	0.270	-0.940	0.100
2020/01/31 22:43:49.6	79.420	0.280	-0.960	0.140
2020/01/31 22:43:49.7	79.430	0.270	-0.960	0.180
2020/01/31 22:43:49.8	79.430	0.270	-0.960	0.230
2020/01/31 22:43:49.9	79.430	0.260	-0.940	0.280
2020/01/31 22:43:50.0	79.420	0.250	-0.920	0.330
2020/01/31 22:43:50.1	79.410	0.240	-0.880	0.380
2020/01/31 22:43:50.2	79.400	0.220	-0.840	0.440
2020/01/31 22:43:50.3	79.380	0.200	-0.790	0.490
2020/01/31 22:43:50.4	79.360	0.180	-0.740	0.550
2020/01/31 22:43:50.5	79.340	0.150	-0.670	0.610
2020/01/31 22:43:50.6	79.320	0.120	-0.600	0.660
2020/01/31 22:43:50.7	79.290	0.090	-0.530	0.720
2020/01/31 22:43:50.8	79.270	0.060	-0.450	0.770
2020/01/31 22:43:50.9	79.240	0.020	-0.370	0.820
2020/01/31 22:43:51.0	79.210	-0.020	-0.280	0.870
2020/01/31 22:43:51.1	79.180	-0.060	-0.200	0.920
2020/01/31 22:43:51.2	79.150	-0.110	-0.110	0.970
2020/01/31 22:43:51.3	79.130	-0.150	-0.030	1.010
2020/01/31 22:43:51.4	79.100	-0.200	0.050	1.040
2020/01/31 22:43:51.5	79.080	-0.250	0.130	1.080
2020/01/31 22:43:51.6	79.050	-0.290	0.200	1.110
2020/01/31 22:43:51.7	79.030	-0.340	0.270	1.130
2020/01/31 22:43:51.8	79.010	-0.390	0.330	1.150
2020/01/31 22:43:51.9	78.990	-0.430	0.390	1.170
2020/01/31 22:43:52.0	78.970	-0.470	0.440	1.180
2020/01/31 22:43:52.1	78.960	-0.510	0.480	1.180
2020/01/31 22:43:52.2	78.940	-0.550	0.510	1.180
2020/01/31 22:43:52.3	78.930	-0.590	0.540	1.180
2020/01/31 22:43:52.4	78.920	-0.620	0.550	1.160
2020/01/31 22:43:52.5	78.920	-0.640	0.560	1.150
2020/01/31 22:43:52.6	78.910	-0.670	0.550	1.130
2020/01/31 22:43:52.7	78.910	-0.680	0.540	1.100
2020/01/31 22:43:52.8	78.910	-0.700	0.520	1.080
2020/01/31 22:43:52.9	78.910	-0.700	0.490	1.050
2020/01/31 22:43:53.0	78.910	-0.710	0.440	1.020
2020/01/31 22:43:53.1	78.910	-0.700	0.390	0.980
2020/01/31 22:43:53.2	78.920	-0.690	0.340	0.940
2020/01/31 22:43:53.3	78.930	-0.680	0.270	0.900
2020/01/31 22:43:53.4	78.940	-0.660	0.200	0.860
2020/01/31 22:43:53.5	78.950	-0.630	0.130	0.820
2020/01/31 22:43:53.6	78.960	-0.600	0.050	0.780
2020/01/31 22:43:53.7	78.970	-0.560	-0.030	0.730
2020/01/31 22:43:53.8	78.980	-0.520	-0.120	0.690
2020/01/31 22:43:53.9	79.000	-0.480	-0.200	0.640
2020/01/31 22:43:54.0	79.020	-0.430	-0.290	0.590
2020/01/31 22:43:54.1	79.030	-0.380	-0.370	0.540
2020/01/31 22:43:54.2	79.050	-0.320	-0.450	0.490
2020/01/31 22:43:54.3	79.070	-0.270	-0.530	0.440
2020/01/31 22:43:54.4	79.080	-0.210	-0.600	0.390
2020/01/31 22:43:54.5	79.100	-0.150	-0.670	0.340
2020/01/31 22:43:54.6	79.110	-0.090	-0.730	0.300
2020/01/31 22:43:54.7	79.130	-0.030	-0.790	0.250
2020/01/31 22:43:54.8	79.140	0.020	-0.840	0.210
2020/01/31 22:43:54.9	79.150	0.080	-0.880	0.170
2020/01/31 22:43:55.0	79.160	0.140	-0.910	0.140
2020/01/31 22:43:55.1	79.170	0.190	-0.940	0.100
2020/01/31 22:43:55.2	79.180	0.240	-0.960	0.070
2020/01/31 22:43:55.3	79.190	0.290	-0.970	0.050
2020/01/31 22:43:55.4	79.190	0.330	-0.980	0.030
2020/01/31 22:43:55.5	79.200	0.370	-0.980	0.010
2020/01/31 22:43:55.6	79.200	0.410	-0.970	-0.000
2020/01/31 22:43:55.7	79.210	0.440	-0.950	-0.010
2020/01/31 22:43:55.8	79.210	0.470	-0.930	-0.020
2020/01/31 22:43:55.9	79.210	0.500	-0.900	-0.020
2020/01/31 22:43:56.0	79.210	0.520	-0.870	-0.020
2020/01/31 22:43:56.1	79.210	0.530	-0.830	-0.020
2020/01/31 22:43:56.2	79.210	0.540	-0.790	-0.010
2020/01/31 22:43:56.3	79.210	0.550	-0.750	-0.010
2020/01/31 22:43:56.4	79.210	0.550	-0.700	0.000
2020/01/31 22:43:56.5	79.210	0.550	-0.650	0.010
2020/01/31 22:43:56.6	79.210	0.540	-0.600	0.020
2020/01/31 22:43:56.7	79.210	0.530	-0.550	0.030
2020/01/31 22:43:56.8	79.210	0.510	-0.490	0.040
2020/01/31 22:43:56.9	79.210	0.490	-0.440	0.040
2020/01/31 22:43:57.0	79.210	0.470	-0.390	0.050
2020/01/31 22:43:57.1	79.200	0.440	-0.330	0.060
2020/01/31 22:43:57.2	79.200	0.410	-0.270	0.070
2020/01/31 22:43:57.3	79.200	0.370	-0.220	0.080
2020/01/31 22:43:57.4	79.190	0.340	-0.160	0.090
2020/01/31 22:43:57.5	79.180	0.300	-0.110	0.100
2020/01/31 22:43:57.6	79.170	0.260	-0.050	0.100
2020/01/31 22:43:57.7	79.150	0.210	-0.000	0.110
2020/01/31 22:43:57.8	79.140	0.170	0.050	0.120
2020/01/31 22:43:57.9	79.120	0.120	0.100	0.130
2020/01/31 22:43:58.0	79.080	0.080	0.160	0.140
2020/01/31 22:43:58.1	79.060	0.030	0.210	0.150
2020/01/31 22:43:58.2	79.030	-0.020	0.250	0.150
2020/01/31 22:43:58.3	79.010	-0.070	0.300	0.160
2020/01/31 22:43:58.4	78.980	-0.110	0.340	0.160
2020/01/31 22:43:58.5	78.950	-0.160	0.380	0.160
2020/01/31 22:43:58.6	78.920	-0.200	0.420	0.170
2020/01/31 22:43:58.7	78.890	-0.250	0.450	0.160
2020/01/31 22:43:58.8	78.860	-0.290	0.480	0.160
2020/01/31 22:43:58.9	78.830	-0.330	0.500	0.150
2020/01/31 22:43:59.0	78.800	-0.360	0.520	0.140
2020/01/31 22:43:59.1	78.770	-0.400	0.540	0.130
2020/01/31 22:43:59.2	78.740	-0.420	0.540	0.120
2020/01/31 22:43:59.3	78.720	-0.450	0.550	0.110
2020/01/31 22:43:59.4	78.700	-0.470	0.540	0.090
2020/01/31 22:43:59.5	78.680	-0.490	0.530	0.070
2020/01/31 22:43:59.6	78.660	-0.500	0.510	0.060
2020/01/31 22:43:59.7	78.650	-0.500	0.490	0.040
2020/01/31 22:43:59.8	78.640	-0.510	0.450	0.020
2020/01/31 22:43:59.9	78.640	-0.500	0.410	-0.000
2020/01/31 22:44:00.0	78.630	-0.490	0.370	-0.020
2020/01/31 22:44:00.1	78.630	-0.480	0.310	-0.040
2020/01/31 22:44:00.2	78.640	-0.460	0.250	-0.060
2020/01/31 22:44:00.3	78.650	-0.430	0.180	-0.080
2020/01/31 22:44:00.4	78.660	-0.400	0.110	-0.100
2020/01/31 22:44:00.5	78.680	-0.370	0.030	-0.110
2020/01/31 22:44:00.6	78.700	-0.330	-0.050	-0.130
2020/01/31 22:44:00.7	78.720	-0.290	-0.140	-0.140
2020/01/31 22:44:00.8	78.740	-0.240	-0.230	-0.150
2020/01/31 22:44:00.9	78.770	-0.190	-0.320	-0.160
2020/01/31 22:44:01.0	78.800	-0.140	-0.410	-0.170
2020/01/31 22:44:01.1	78.830	-0.080	-0.500	-0.170
2020/01/31 22:44:01.2	78.860	-0.020	-0.590	-0.170
2020/01/31 22:44:01.3	78.880	0.030	-0.670	-0.170
2020/01/31 22:44:01.4	78.910	0.090	-0.760	-0.170
2020/01/31 22:44:01.5	78.940	0.150	-0.830	-0.170
2020/01/31 22:44:01.6	78.970	0.210	-0.910	-0.170
2020/01/31 22:44:01.7	79.000	0.260	-0.970	-0.160
2020/01/31 22:44:01.8	79.030	0.310	-1.030	-0.150
2020/01/31 22:44:01.9	79.060	0.360	-1.080	-0.140
2020/01/31 22:44:02.0	79.100	0.400	-1.130	-0.130
2020/01/31 22:44:02.1	79.130	0.450	-1.160	-0.110
2020/01/31 22:44:02.2	79.150	0.480	-1.180	-0.090
2020/01/31 22:44:02.3	79.180	0.510	-1.200	-0.070
2020/01/31 22:44:02.4	79.210	0.540	-1.200	-0.050
2020/01/31 22:44:02.5	79.230	0.550	-1.190	-0.030
2020/01/31 22:44:02.6	79.250	0.570	-1.180	0.000
2020/01/31 22:44:02.7	79.270	0.570	-1.150	0.030
2020/01/31 22:44:02.8	79.280	0.570	-1.110	0.070
2020/01/31 22:44:02.9	79.300	0.560	-1.060	0.110
2020/01/31 22:44:03.0	79.310	0.550	-1.010	0.150
2020/01/31 22:44:03.1	79.320	0.530	-0.950	0.190
2020/01/31 22:44:03.2	79.330	0.500	-0.880	0.230
2020/01/31 22:44:03.3	79.330	0.470	-0.800	0.280
2020/01/31 22:44:03.4	79.330	0.430	-0.710	0.320
2020/01/31 22:44:03.5	79.330	0.390	-0.620	0.370
2020/01/31 22:44:03.6	79.330	0.340	-0.530	0.410
2020/01/31 22:44:03.7	79.320	0.280	-0.430	0.460
2020/01/31 22:44:03.8	79.310	0.230	-0.330	0.500
2020/01/31 22:44:03.9	79.300	0.170	-0.220	0.550
2020/01/31 22:44:04.0	79.290	0.100	-0.120	0.590
2020/01/31 22:44:04.1	79.270	0.040	-0.020	0.630
2020/01/31 22:44:04.2	79.250	-0.030	0.080	0.670
2020/01/31 22:44:04.3	79.230	-0.100	0.180	0.710
2020/01/31 22:44:04.4	79.210	-0.160	0.280	0.740
2020/01/31 22:44:04.5	79.180	-0.230	0.370	0.770
2020/01/31 22:44:04.6	79.150	-0.290	0.460	0.800
2020/01/31 22:44:04.7	79.120	-0.350	0.540	0.830
2020/01/31 22:44:04.8	79.080	-0.410	0.610	0.850
2020/01/31 22:44:04.9	79.040	-0.460	0.680	0.880
2020/01/31 22:44:05.0	79.010	-0.510	0.740	0.890
2020/01/31 22:44:05.1	78.970	-0.550	0.790	0.910
2020/01/31 22:44:05.2	78.930	-0.590	0.830	0.930
2020/01/31 22:44:05.3	78.880	-0.620	0.860	0.940
2020/01/31 22:44:05.4	78.840	-0.650	0.880	0.950
2020/01/31 22:44:05.5	78.800	-0.660	0.890	0.950
2020/01/31 22:44:05.6	78.750	-0.680	0.890	0.960
2020/01/31 22:44:05.7	78.710	-0.680	0.880	0.960
2020/01/31 22:44:05.8	78.670	-0.680	0.850	0.950
2020/01/31 22:44:05.9	78.630	-0.670	0.820	0.950
2020/01/31 22:44:06.0	78.590	-0.650	0.780	0.940
2020/01/31 22:44:06.1	78.560	-0.630	0.720	0.920
2020/01/31 22:44:06.2	78.530	-0.590	0.660	0.900
2020/01/31 22:44:06.3	78.500	-0.560	0.580	0.880
2020/01/31 22:44:06.4	78.480	-0.510	0.500	0.850
2020/01/31 22:44:06.5	78.460	-0.470	0.410	0.820
2020/01/31 22:44:06.6	78.440	-0.410	0.320	0.780
2020/01/31 22:44:06.7	78.430	-0.360	0.220	0.740
2020/01/31 22:44:06.8	78.430	-0.290	0.110	0.690
2020/01/31 22:44:06.9	78.420	-0.230	-0.000	0.640
2020/01/31 22:44:07.0	78.410	-0.160	-0.120	0.590
2020/01/31 22:44:07.1	78.420	-0.090	-0.240	0.530
2020/01/31 22:44:07.2	78.430	-0.020	-0.350	0.470
2020/01/31 22:44:07.3	78.440	0.050	-0.470	0.410
2020/01/31 22:44:07.4	78.450	0.120	-0.590	0.340
2020/01/31 22:44:07.5	78.470	0.190	-0.700	0.280
2020/01/31 22:44:07.6	78.490	0.250	-0.810	0.210
2020/01/31 22:44:07.7	78.510	0.320	-0.910	0.140
2020/01/31 22:44:07.8	78.530	0.380	-1.010	0.080
2020/01/31 22:44:07.9	78.550	0.440	-1.100	0.020
2020/01/31 22:44:08.0	78.580	0.500	-1.180	-0.050
2020/01/31 22:44:08.1	78.610	0.550	-1.250	-0.100
2020/01/31 22:44:08.2	78.630	0.600	-1.310	-0.150
2020/01/31 22:44:08.3	78.650	0.640	-1.350	-0.200
2020/01/31 22:44:08.4	78.680	0.670	-1.390	-0.240
2020/01/31 22:44:08.5	78.700	0.700	-1.410	-0.270
2020/01/31 22:44:08.6	78.730	0.730	-1.420	-0.300
2020/01/31 22:44:08.7	78.750	0.740	-1.420	-0.320
2020/01/31 22:44:08.8	78.770	0.750	-1.400	-0.330
2020/01/31 22:44:08.9	78.790	0.760	-1.370	-0.330
2020/01/31 22:44:09.0	78.810	0.760	-1.330	-0.330
2020/01/31 22:44:09.1	78.830	0.750	-1.280	-0.320
2020/01/31 22:44:09.2	78.850	0.730	-1.210	-0.310
2020/01/31 22:44:09.3	78.860	0.710	-1.140	-0.290
2020/01/31 22:44:09.4	78.880	0.690	-1.050	-0.270
2020/01/31 22:44:09.5	78.890	0.650	-0.960	-0.240
2020/01/31 22:44:09.6	78.900	0.610	-0.860	-0.210
2020/01/31 22:44:09.7	78.910	0.570	-0.750	-0.170
2020/01/31 22:44:09.8	78.920	0.520	-0.630	-0.130
2020/01/31 22:44:09.9	78.930	0.470	-0.520	-0.090
2020/01/31 22:44:10.0	78.940	0.420	-0.400	-0.050
2020/01/31 22:44:10.1	78.940	0.360	-0.280	-0.010
2020/01/31 22:44:10.2	78.940	0.290	-0.150	0.040
2020/01/31 22:44:10.3	78.940	0.230	-0.030	0.090
2020/01/31 22:44:10.4	78.940	0.170	0.090	0.130
2020/01/31 22:44:10.5	78.940	0.100	0.200	0.180
2020/01/31 22:44:10.6	78.940	0.030	0.310	0.230
2020/01/31 22:44:10.7	78.930	-0.030	0.410	0.280
2020/01/31 22:44:10.8	78.930	-0.100	0.510	0.330
2020/01/31 22:44:10.9	78.920	-0.160	0.590	0.380
2020/01/31 22:44:11.0	78.920	-0.220	0.670	0.430
2020/01/31 22:44:11.1	78.920	-0.280	0.740	0.480
2020/01/31 22:44:11.2	78.910	-0.340	0.800	0.520
2020/01/31 22:44:11.3	78.900	-0.390	0.840	0.570
2020/01/31 22:44:11.4	78.900	-0.440	0.880	0.620
2020/01/31 22:44:11.5	78.890	-0.480	0.900	0.660
2020/01/31 22:44:11.6	78.880	-0.520	0.910	0.700
2020/01/31 22:44:11.7	78.880	-0.560	0.910	0.740
2020/01/31 22:44:11.8	78.870	-0.590	0.900	0.780
2020/01/31 22:44:11.9	78.860	-0.620	0.880	0.820
2020/01/31 22:44:12.0	78.850	-0.640	0.840	0.850
2020/01/31 22:44:12.1	78.850	-0.650	0.790	0.880
2020/01/31 22:44:12.2	78.840	-0.670	0.740	0.910
2020/01/31 22:44:12.3	78.840	-0.670	0.680	0.940
2020/01/31 22:44:12.4	78.830	-0.680	0.620	0.960
2020/01/31 22:44:12.5	78.830	-0.670	0.540	0.970
2020/01/31 22:44:12.6	78.820	-0.670	0.460	0.990
2020/01/31 22:44:12.7	78.820	-0.660	0.380	1.000
2020/01/31 22:44:12.8	78.820	-0.640	0.290	1.000
2020/01/31 22:44:12.9	78.820	-0.620	0.200	1.000
2020/01/31 22:44:13.0	78.810	-0.600	0.110	1.000
2020/01/31 22:44:13.1	78.810	-0.580	0.010	0.990
2020/01/31 22:44:13.2	78.820	-0.550	-0.080	0.980
2020/01/31 22:44:13.3	78.820	-0.520	-0.170	0.960
2020/01/31 22:44:13.4	78.820	-0.490	-0.260	0.950
2020/01/31 22:44:13.5	78.830	-0.450	-0.350	0.930
2020/01/31 22:44:13.6	78.830	-0.420	-0.440	0.900
2020/01/31 22:44:13.7	78.840	-0.380	-0.520	0.880
2020/01/31 22:44:13.8	78.840	-0.340	-0.600	0.850
2020/01/31 22:44:13.9	78.850	-0.300	-0.670	0.830
2020/01/31 22:44:14.0	78.850	-0.260	-0.730	0.800
2020/01/31 22:44:14.1	78.850	-0.210	-0.800	0.770
2020/01/31 22:44:14.2	78.860	-0.170	-0.850	0.740
2020/01/31 22:44:14.3	78.860	-0.130	-0.900	0.710
2020/01/31 22:44:14.4	78.870	-0.090	-0.940	0.690
2020/01/31 22:44:14.5	78.870	-0.050	-0.970	0.660
2020/01/31 22:44:14.6	78.880	-0.010	-1.000	0.640
2020/01/31 22:44:14.7	78.880	0.030	-1.020	0.620
2020/01/31 22:44:14.8	78.880	0.070	-1.030	0.590
2020/01/31 22:44:14.9	78.890	0.110	-1.040	0.570
2020/01/31 22:44:15.0	78.890	0.140	-1.050	0.560
2020/01/31 22:44:15.1	78.890	0.180	-1.040	0.540
2020/01/31 22:44:15.2	78.890	0.210	-1.030	0.520
2020/01/31 22:44:15.3	78.890	0.240	-1.010	0.510
2020/01/31 22:44:15.4	78.900	0.260	-0.990	0.500
2020/01/31 22:44:15.5	78.900	0.290	-0.960	0.480
2020/01/31 22:44:15.6	78.900	0.310	-0.930	0.470
2020/01/31 22:44:15.7	78.910	0.330	-0.890	0.460
2020/01/31 22:44:15.8	78.910	0.350	-0.850	0.450
2020/01/31 22:44:15.9	78.910	0.360	-0.810	0.430
2020/01/31 22:44:16.0	78.920	0.370	-0.760	0.420
2020/01/31 22:44:16.1	78.920	0.380	-0.710	0.410
2020/01/31 22:44:16.2	78.930	0.380	-0.650	0.400
2020/01/31 22:44:16.3	78.940	0.380	-0.590	0.390
2020/01/31 22:44:16.4	78.940	0.380	-0.540	0.370
2020/01/31 22:44:16.5	78.950	0.370	-0.480	0.360
2020/01/31 22:44:16.6	78.960	0.360	-0.410	0.350
2020/01/31 22:44:16.7	78.960	0.350	-0.350	0.340
2020/01/31 22:44:16.8	78.970	0.340	-0.290	0.320
2020/01/31 22:44:16.9	78.970	0.320	-0.230	0.310
2020/01/31 22:44:17.0	78.990	0.300	-0.160	0.300
2020/01/31 22:44:17.1	78.990	0.280	-0.100	0.290
2020/01/31 22:44:17.2	78.990	0.260	-0.040	0.280
2020/01/31 22:44:17.3	79.000	0.230	0.020	0.280
2020/01/31 22:44:17.4	79.000	0.210	0.070	0.270
2020/01/31 22:44:17.5	79.000	0.180	0.120	0.260
2020/01/31 22:44:17.6	78.990	0.150	0.170	0.260
2020/01/31 22:44:17.7	78.990	0.130	0.220	0.260
2020/01/31 22:44:17.8	78.980	0.100	0.260	0.260
2020/01/31 22:44:17.9	78.970	0.070	0.290	0.270
2020/01/31 22:44:18.0	78.960	0.040	0.320	0.270
2020/01/31 22:44:18.1	78.950	0.020	0.350	0.280
2020/01/31 22:44:18.2	78.930	-0.000	0.360	0.290
2020/01/31 22:44:18.3	78.920	-0.030	0.380	0.300
2020/01/31 22:44:18.4	78.900	-0.050	0.380	0.320
2020/01/31 22:44:18.5	78.880	-0.060	0.380	0.340
2020/01/31 22:44:18.6	78.870	-0.080	0.370	0.350
2020/01/31 22:44:18.7	78.850	-0.090	0.360	0.370
2020/01/31 22:44:18.8	78.830	-0.100	0.330	0.390
2020/01/31 22:44:18.9	78.820	-0.110	0.300	0.410
2020/01/31 22:44:19.0	78.790	-0.110	0.270	0.430
2020/01/31 22:44:19.1	78.780	-0.110	0.230	0.440
2020/01/31 22:44:19.2	78.770	-0.100	0.180	0.450
2020/01/31 22:44:19.3	78.760	-0.100	0.120	0.460
2020/01/31 22:44:19.4	78.750	-0.090	0.070	0.470
2020/01/31 22:44:19.5	78.740	-0.070	0.000	0.470
2020/01/31 22:44:19.6	78.740	-0.060	-0.060	0.480
2020/01/31 22:44:19.7	78.740	-0.040	-0.130	0.480
2020/01/31 22:44:19.8	78.730	-0.020	-0.200	0.480
2020/01/31 22:44:19.9	78.730	0.010	-0.270	0.480
2020/01/31 22:44:20.0	78.730	0.030	-0.340	0.470
2020/01/31 22:44:20.1	78.730	0.050	-0.410	0.470
2020/01/31 22:44:20.2	78.730	0.080	-0.480	0.460
2020/01/31 22:44:20.3	78.730	0.110	-0.540	0.450
2020/01/31 22:44:20.4	78.730	0.130	-0.600	0.450
2020/01/31 22:44:20.5	78.730	0.160	-0.660	0.440
2020/01/31 22:44:20.6	78.730	0.180	-0.710	0.430
2020/01/31 22:44:20.7	78.730	0.200	-0.760	0.420
2020/01/31 22:44:20.8	78.730	0.220	-0.790	0.410
2020/01/31 22:44:20.9	78.730	0.240	-0.820	0.410
2020/01/31 22:44:21.0	78.730	0.260	-0.850	0.400
2020/01/31 22:44:21.1	78.740	0.280	-0.860	0.400
2020/01/31 22:44:21.2	78.740	0.290	-0.870	0.390
2020/01/31 22:44:21.3	78.740	0.300	-0.870	0.390
2020/01/31 22:44:21.4	78.740	0.300	-0.860	0.390
2020/01/31 22:44:21.5	78.750	0.310	-0.850	0.390
2020/01/31 22:44:21.6	78.750	0.310	-0.820	0.390
2020/01/31 22:44:21.7	78.760	0.310	-0.790	0.390
2020/01/31 22:44:21.8	78.760	0.300	-0.760	0.390
2020/01/31 22:44:21.9	78.770	0.300	-0.710	0.400
2020/01/31 22:44:22.0	78.770	0.290	-0.660	0.410
2020/01/31 22:44:22.1	78.780	0.270	-0.610	0.410
2020/01/31 22:44:22.2	78.780	0.260	-0.540	0.420
2020/01/31 22:44:22.3	78.790	0.240	-0.480	0.430
2020/01/31 22:44:22.4	78.800	0.220	-0.410	0.430
2020/01/31 22:44:22.5	78.800	0.200	-0.340	0.440
2020/01/31 22:44:22.6	78.810	0.180	-0.260	0.450
2020/01/31 22:44:22.7	78.810	0.150	-0.190	0.450
2020/01/31 22:44:22.8	78.820	0.130	-0.110	0.460
2020/01/31 22:44:22.9	78.820	0.100	-0.030	0.460
2020/01/31 22:44:23.0	78.830	0.070	0.050	0.470
2020/01/31 22:44:23.1	78.830	0.040	0.130	0.470
2020/01/31 22:44:23.2	78.840	0.020	0.200	0.470
2020/01/31 22:44:23.3	78.840	-0.010	0.270	0.470
2020/01/31 22:44:23.4	78.840	-0.040	0.340	0.470
2020/01/31 22:44:23.5	78.850	-0.060	0.400	0.470
2020/01/31 22:44:23.6	78.850	-0.090	0.460	0.470
2020/01/31 22:44:23.7	78.860	-0.110	0.520	0.470
2020/01/31 22:44:23.8	78.860	-0.140	0.570	0.470
2020/01/31 22:44:23.9	78.860	-0.160	0.610	0.470
2020/01/31 22:44:24.0	78.870	-0.180	0.640	0.470
2020/01/31 22:44:24.1	78.870	-0.190	0.670	0.470
2020/01/31 22:44:24.2	78.880	-0.210	0.690	0.470
2020/01/31 22:44:24.3	78.890	-0.220	0.700	0.470
2020/01/31 22:44:24.4	78.890	-0.230	0.700	0.470
2020/01/31 22:44:24.5	78.900	-0.230	0.700	0.470
2020/01/31 22:44:24.6	78.910	-0.240	0.680	0.470
2020/01/31 22:44:24.7	78.920	-0.240	0.660	0.470
2020/01/31 22:44:24.8	78.930	-0.240	0.630	0.470
2020/01/31 22:44:24.9	78.940	-0.240	0.580	0.470
2020/01/31 22:44:25.0	78.960	-0.230	0.530	0.480
2020/01/31 22:44:25.1	78.980	-0.220	0.470	0.480
2020/01/31 22:44:25.2	78.990	-0.210	0.400	0.490
2020/01/31 22:44:25.3	79.000	-0.200	0.330	0.490
2020/01/31 22:44:25.4	79.020	-0.180	0.250	0.500
2020/01/31 22:44:25.5	79.030	-0.160	0.160	0.500
2020/01/31 22:44:25.6	79.050	-0.140	0.070	0.500
2020/01/31 22:44:25.7	79.060	-0.120	-0.030	0.510
2020/01/31 22:44:25.8	79.070	-0.100	-0.130	0.510
2020/01/31 22:44:25.9	79.080	-0.080	-0.240	0.510
2020/01/31 22:44:26.0	79.100	-0.050	-0.340	0.520
2020/01/31 22:44:26.1	79.110	-0.030	-0.440	0.520
2020/01/31 22:44:26.2	79.110	-0.000	-0.550	0.520
2020/01/31 22:44:26.3	79.120	0.020	-0.650	0.520
2020/01/31 22:44:26.4	79.120	0.050	-0.750	0.520
2020/01/31 22:44:26.5	79.120	0.080	-0.840	0.530
2020/01/31 22:44:26.6	79.120	0.100	-0.920	0.530
2020/01/31 22:44:26.7	79.110	0.120	-1.000	0.540
2020/01/31 22:44:26.8	79.110	0.140	-1.070	0.550
2020/01/31 22:44:26.9	79.090	0.160	-1.130	0.560
2020/01/31 22:44:27.0	79.080	0.180	-1.190	0.570
2020/01/31 22:44:27.1	79.070	0.200	-1.220	0.580
2020/01/31 22:44:27.2	79.050	0.210	-1.250	0.600
2020/01/31 22:44:27.3	79.030	0.220	-1.260	0.620
2020/01/31 22:44:27.4	79.010	0.230	-1.260	0.640
2020/01/31 22:44:27.5	78.990	0.230	-1.250	0.660
2020/01/31 22:44:27.6	78.970	0.240	-1.220	0.690
2020/01/31 22:44:27.7	78.940	0.230	-1.180	0.710
2020/01/31 22:44:27.8	78.920	0.230	-1.140	0.730
2020/01/31 22:44:27.9	78.890	0.220	-1.080	0.760
2020/01/31 22:44:28.0	78.870	0.210	-1.010	0.790
2020/01/31 22:44:28.1	78.850	0.190	-0.930	0.820
2020/01/31 22:44:28.2	78.820	0.170	-0.850	0.840
2020/01/31 22:44:28.3	78.800	0.150	-0.760	0.870
2020/01/31 22:44:28.4	78.770	0.120	-0.670	0.890
2020/01/31 22:44:28.5	78.750	0.100	-0.570	0.920
2020/01/31 22:44:28.6	78.730	0.070	-0.470	0.940
2020/01/31 22:44:28.7	78.710	0.040	-0.370	0.960
2020/01/31 22:44:28.8	78.680	0.000	-0.270	0.970
2020/01/31 22:44:28.9	78.660	-0.030	-0.170	0.990
2020/01/31 22:44:29.0	78.630	-0.070	-0.080	1.000
2020/01/31 22:44:29.1	78.620	-0.110	0.020	1.010
2020/01/31 22:44:29.2	78.600	-0.140	0.100	1.010
2020/01/31 22:44:29.3	78.580	-0.180	0.190	1.010
2020/01/31 22:44:29.4	78.570	-0.220	0.260	1.010
2020/01/31 22:44:29.5	78.550	-0.250	0.330	1.000
2020/01/31 22:44:29.6	78.540	-0.290	0.390	0.980
2020/01/31 22:44:29.7	78.530	-0.320	0.450	0.960
2020/01/31 22:44:29.8	78.530	-0.350	0.490	0.930
2020/01/31 22:44:29.9	78.520	-0.380	0.520	0.900
2020/01/31 22:44:30.0	78.530	-0.410	0.550	0.860
2020/01/31 22:44:30.1	78.530	-0.430	0.570	0.810
2020/01/31 22:44:30.2	78.540	-0.450	0.580	0.760
2020/01/31 22:44:30.3	78.540	-0.460	0.570	0.700
2020/01/31 22:44:30.4	78.560	-0.470	0.560	0.640
2020/01/31 22:44:30.5	78.570	-0.480	0.540	0.570
2020/01/31 22:44:30.6	78.590	-0.480	0.510	0.500
2020/01/31 22:44:30.7	78.610	-0.470	0.470	0.430
2020/01/31 22:44:30.8	78.640	-0.460	0.420	0.350
2020/01/31 22:44:30.9	78.660	-0.450	0.360	0.270
2020/01/31 22:44:31.0	78.680	-0.430	0.300	0.190
2020/01/31 22:44:31.1	78.710	-0.400	0.230	0.120
2020/01/31 22:44:31.2	78.750	-0.370	0.160	0.040
2020/01/31 22:44:31.3	78.780	-0.330	0.080	-0.040
2020/01/31 22:44:31.4	78.810	-0.290	-0.010	-0.110
2020/01/31 22:44:31.5	78.840	-0.250	-0.090	-0.180
2020/01/31 22:44:31.6	78.880	-0.200	-0.180	-0.240
2020/01/31 22:44:31.7	78.910	-0.140	-0.270	-0.300
2020/01/31 22:44:31.8	78.940	-0.090	-0.360	-0.360
2020/01/31 22:44:31.9	78.960	-0.030	-0.450	-0.410
2020/01/31 22:44:32.0	78.990	0.030	-0.540	-0.450
2020/01/31 22:44:32.1	79.010	0.100	-0.630	-0.490
2020/01/31 22:44:32.2	79.040	0.160	-0.710	-0.520
2020/01/31 22:44:32.3	79.050	0.220	-0.790	-0.540
2020/01/31 22:44:32.4	79.070	0.290	-0.870	-0.560
2020/01/31 22:44:32.5	79.080	0.350	-0.940	-0.580
2020/01/31 22:44:32.6	79.090	0.410	-1.000	-0.580
2020/01/31 22:44:32.7	79.090	0.460	-1.050	-0.580
2020/01/31 22:44:32.8	79.100	0.510	-1.100	-0.580
2020/01/31 22:44:32.9	79.100	0.560	-1.140	-0.570
2020/01/31 22:44:33.0	79.100	0.610	-1.170	-0.550
2020/01/31 22:44:33.1	79.090	0.640	-1.190	-0.540
2020/01/31 22:44:33.2	79.080	0.680	-1.200	-0.520
2020/01/31 22:44:33.3	79.070	0.700	-1.200	-0.500
2020/01/31 22:44:33.4	79.060	0.720	-1.200	-0.470
2020/01/31 22:44:33.5	79.040	0.730	-1.180	-0.450
2020/01/31 22:44:33.6	79.030	0.740	-1.150	-0.420
2020/01/31 22:44:33.7	79.010	0.740	-1.120	-0.390
2020/01/31 22:44:33.8	79.000	0.730	-1.070	-0.360
2020/01/31 22:44:33.9	78.980	0.720	-1.020	-0.330
2020/01/31 22:44:34.0	78.980	0.690	-0.960	-0.290
2020/01/31 22:44:34.1	78.970	0.670	-0.890	-0.260
2020/01/31 22:44:34.2	78.950	0.630	-0.820	-0.230
2020/01/31 22:44:34.3	78.940	0.590	-0.740	-0.200
2020/01/31 22:44:34.4	78.920	0.550	-0.660	-0.160
2020/01/31 22:44:34.5	78.910	0.500	-0.570	-0.130
2020/01/31 22:44:34.6	78.900	0.450	-0.480	-0.100
2020/01/31 22:44:34.7	78.890	0.390	-0.380	-0.070
2020/01/31 22:44:34.8	78.880	0.330	-0.290	-0.040
2020/01/31 22:44:34.9	78.880	0.270	-0.190	-0.010
2020/01/31 22:44:35.0	78.870	0.210	-0.090	0.020
2020/01/31 22:44:35.1	78.870	0.150	0.000	0.050
2020/01/31 22:44:35.2	78.870	0.080	0.100	0.080
2020/01/31 22:44:35.3	78.870	0.020	0.190	0.110
2020/01/31 22:44:35.4	78.870	-0.040	0.280	0.140
2020/01/31 22:44:35.5	78.870	-0.110	0.370	0.170
2020/01/31 22:44:35.6	78.870	-0.160	0.450	0.190
2020/01/31 22:44:35.7	78.880	-0.220	0.530	0.220
2020/01/31 22:44:35.8	78.880	-0.280	0.600	0.250
2020/01/31 22:44:35.9	78.890	-0.330	0.670	0.270
2020/01/31 22:44:36.0	78.900	-0.370	0.730	0.300
2020/01/31 22:44:36.1	78.900	-0.420	0.780	0.320
2020/01/31 22:44:36.2	78.910	-0.460	0.830	0.350
2020/01/31 22:44:36.3	78.910	-0.490	0.870	0.380
2020/01/31 22:44:36.4	78.920	-0.530	0.910	0.410
2020/01/31 22:44:36.5	78.920	-0.550	0.930	0.440
2020/01/31 22:44:36.6	78.920	-0.570	0.950	0.470
2020/01/31 22:44:36.7	78.920	-0.590	0.960	0.490
2020/01/31 22:44:36.8	78.920	-0.610	0.960	0.520
2020/01/31 22:44:36.9	78.920	-0.610	0.950	0.550
2020/01/31 22:44:37.0	78.920	-0.620	0.930	0.570
2020/01/31 22:44:37.1	78.920	-0.610	0.910	0.600
2020/01/31 22:44:37.2	78.920	-0.610	0.880	0.620
2020/01/31 22:44:37.3	78.920	-0.590	0.830	0.640
2020/01/31 22:44:37.4	78.910	-0.580	0.780	0.650
2020/01/31 22:44:37.5	78.910	-0.560	0.720	0.670
2020/01/31 22:44:37.6	78.910	-0.530	0.650	0.680
2020/01/31 22:44:37.7	78.910	-0.500	0.570	0.690
2020/01/31 22:44:37.8	78.910	-0.460	0.490	0.700
2020/01/31 22:44:37.9	78.910	-0.420	0.400	0.700
2020/01/31 22:44:38.0	78.910	-0.380	0.290	0.700
2020/01/31 22:44:38.1	78.920	-0.330	0.190	0.700
2020/01/31 22:44:38.2	78.920	-0.280	0.080	0.690
2020/01/31 22:44:38.3	78.930	-0.230	-0.030	0.680
2020/01/31 22:44:38.4	78.940	-0.180	-0.150	0.680
2020/01/31 22:44:38.5	78.950	-0.120	-0.260	0.670
2020/01/31 22:44:38.6	78.950	-0.070	-0.380	0.660
2020/01/31 22:44:38.7	78.960	-0.010	-0.490	0.650
2020/01/31 22:44:38.8	78.970	0.040	-0.600	0.640
2020/01/31 22:44:38.9	78.980	0.100	-0.710	0.630
2020/01/31 22:44:39.0	78.970	0.150	-0.810	0.620
2020/01/31 22:44:39.1	78.980	0.200	-0.900	0.610
2020/01/31 22:44:39.2	78.990	0.240	-0.990	0.600
2020/01/31 22:44:39.3	78.990	0.280	-1.070	0.600
2020/01/31 22:44:39.4	78.990	0.320	-1.140	0.590
2020/01/31 22:44:39.5	78.990	0.350	-1.190	0.580
2020/01/31 22:44:39.6	78.980	0.380	-1.240	0.580
2020/01/31 22:44:39.7	78.980	0.400	-1.270	0.570
2020/01/31 22:44:39.8	78.970	0.410	-1.290	0.560
2020/01/31 22:44:39.9	78.970	0.420	-1.300	0.550
2020/01/31 22:44:40.0	78.960	0.420	-1.290	0.540
2020/01/31 22:44:40.1	78.950	0.410	-1.280	0.530
2020/01/31 22:44:40.2	78.940	0.400	-1.250	0.510
2020/01/31 22:44:40.3	78.930	0.380	-1.200	0.500
2020/01/31 22:44:40.4	78.920	0.350	-1.150	0.480
2020/01/31 22:44:40.5	78.900	0.320	-1.080	0.460
2020/01/31 22:44:40.6	78.880	0.280	-1.000	0.440
2020/01/31 22:44:40.7	78.860	0.240	-0.910	0.420
2020/01/31 22:44:40.8	78.840	0.190	-0.810	0.390
2020/01/31 22:44:40.9	78.820	0.140	-0.710	0.370
2020/01/31 22:44:41.0	78.790	0.080	-0.600	0.340
2020/01/31 22:44:41.1	78.770	0.020	-0.480	0.320
2020/01/31 22:44:41.2	78.750	-0.040	-0.360	0.290
2020/01/31 22:44:41.3	78.720	-0.110	-0.240	0.270
2020/01/31 22:44:41.4	78.700	-0.170	-0.120	0.250
2020/01/31 22:44:41.5	78.670	-0.240	0.000	0.220
2020/01/31 22:44:41.6	78.650	-0.300	0.120	0.200
2020/01/31 22:44:41.7	78.630	-0.360	0.230	0.170
2020/01/31 22:44:41.8	78.600	-0.420	0.340	0.150
2020/01/31 22:44:41.9	78.580	-0.480	0.440	0.130
2020/01/31 22:44:42.0	78.570	-0.530	0.530	0.100
2020/01/31 22:44:42.1	78.560	-0.580	0.610	0.080
2020/01/31 22:44:42.2	78.540	-0.620	0.680	0.060
2020/01/31 22:44:42.3	78.530	-0.660	0.740	0.040
2020/01/31 22:44:42.4	78.520	-0.690	0.780	0.010
2020/01/31 22:44:42.5	78.510	-0.710	0.810	-0.010
2020/01/31 22:44:42.6	78.510	-0.730	0.830	-0.030
2020/01/31 22:44:42.7	78.510	-0.740	0.830	-0.050
2020/01/31 22:44:42.8	78.510	-0.740	0.820	-0.070
2020/01/31 22:44:42.9	78.510	-0.730	0.790	-0.090
2020/01/31 22:44:43.0	78.510	-0.710	0.750	-0.100
2020/01/31 22:44:43.1	78.510	-0.690	0.700	-0.120
2020/01/31 22:44:43.2	78.520	-0.660	0.630	-0.140
2020/01/31 22:44:43.3	78.520	-0.620	0.560	-0.150
2020/01/31 22:44:43.4	78.530	-0.580	0.470	-0.170
2020/01/31 22:44:43.5	78.540	-0.520	0.370	-0.180
2020/01/31 22:44:43.6	78.550	-0.460	0.270	-0.200
2020/01/31 22:44:43.7	78.560	-0.400	0.150	-0.210
2020/01/31 22:44:43.8	78.570	-0.330	0.030	-0.220
2020/01/31 22:44:43.9	78.580	-0.250	-0.090	-0.230
2020/01/31 22:44:44.0	78.580	-0.180	-0.220	-0.250
2020/01/31 22:44:44.1	78.590	-0.090	-0.350	-0.260
2020/01/31 22:44:44.2	78.600	-0.010	-0.470	-0.260
2020/01/31 22:44:44.3	78.610	0.080	-0.600	-0.270
2020/01/31 22:44:44.4	78.620	0.160	-0.730	-0.270
2020/01/31 22:44:44.5	78.630	0.250	-0.850	-0.280
2020/01/31 22:44:44.6	78.640	0.330	-0.970	-0.270
2020/01/31 22:44:44.7	78.640	0.420	-1.080	-0.270
2020/01/31 22:44:44.8	78.640	0.500	-1.180	-0.260
2020/01/31 22:44:44.9	78.650	0.580	-1.280	-0.250
2020/01/31 22:44:45.0	78.650	0.650	-1.360	-0.230
2020/01/31 22:44:45.1	78.650	0.720	-1.440	-0.220
2020/01/31 22:44:45.2	78.640	0.790	-1.500	-0.200
2020/01/31 22:44:45.3	78.640	0.850	-1.550	-0.170
2020/01/31 22:44:45.4	78.630	0.900	-1.590	-0.150
2020/01/31 22:44:45.5	78.620	0.940	-1.620	-0.120
2020/01/31 22:44:45.6	78.610	0.980	-1.630	-0.090
2020/01/31 22:44:45.7	78.600	1.010	-1.620	-0.060
2020/01/31 22:44:45.8	78.590	1.030	-1.610	-0.030
2020/01/31 22:44:45.9	78.580	1.040	-1.580	0.010
2020/01/31 22:44:46.0	78.570	1.050	-1.540	0.050
2020/01/31 22:44:46.1	78.550	1.050	-1.490	0.080
2020/01/31 22:44:46.2	78.530	1.030	-1.420	0.120
2020/01/31 22:44:46.3	78.510	1.010	-1.340	0.160
2020/01/31 22:44:46.4	78.490	0.990	-1.250	0.200
2020/01/31 22:44:46.5	78.470	0.950	-1.140	0.240
2020/01/31 22:44:46.6	78.440	0.910	-1.030	0.280
2020/01/31 22:44:46.7	78.420	0.860	-0.910	0.320
2020/01/31 22:44:46.8	78.390	0.800	-0.780	0.360
2020/01/31 22:44:46.9	78.370	0.740	-0.650	0.400
2020/01/31 22:44:47.0	78.340	0.680	-0.510	0.450
2020/01/31 22:44:47.1	78.320	0.610	-0.360	0.490
2020/01/31 22:44:47.2	78.290	0.530	-0.220	0.520
2020/01/31 22:44:47.3	78.260	0.450	-0.070	0.560
2020/01/31 22:44:47.4	78.240	0.370	0.080	0.590
2020/01/31 22:44:47.5	78.210	0.290	0.220	0.620
2020/01/31 22:44:47.6	78.190	0.210	0.360	0.650
2020/01/31 22:44:47.7	78.170	0.130	0.500	0.670
2020/01/31 22:44:47.8	78.140	0.040	0.640	0.700
2020/01/31 22:44:47.9	78.120	-0.040	0.770	0.720
2020/01/31 22:44:48.0	78.100	-0.120	0.890	0.740
2020/01/31 22:44:48.1	78.080	-0.200	1.000	0.750
2020/01/31 22:44:48.2	78.060	-0.270	1.100	0.760
2020/01/31 22:44:48.3	78.040	-0.350	1.200	0.770
2020/01/31 22:44:48.4	78.020	-0.410	1.280	0.780
2020/01/31 22:44:48.5	78.000	-0.480	1.350	0.780
2020/01/31 22:44:48.6	77.980	-0.540	1.400	0.780
2020/01/31 22:44:48.7	77.970	-0.590	1.450	0.780
2020/01/31 22:44:48.8	77.950	-0.640	1.480	0.770
2020/01/31 22:44:48.9	77.930	-0.680	1.500	0.760
2020/01/31 22:44:49.0	77.910	-0.720	1.500	0.740
2020/01/31 22:44:49.1	77.890	-0.750	1.490	0.720
2020/01/31 22:44:49.2	77.880	-0.770	1.460	0.700
2020/01/31 22:44:49.3	77.870	-0.780	1.420	0.680
2020/01/31 22:44:49.4	77.870	-0.790	1.360	0.650
2020/01/31 22:44:49.5	77.860	-0.790	1.290	0.620
2020/01/31 22:44:49.6	77.860	-0.790	1.210	0.590
2020/01/31 22:44:49.7	77.860	-0.770	1.110	0.550
2020/01/31 22:44:49.8	77.870	-0.750	1.000	0.510
2020/01/31 22:44:49.9	77.880	-0.720	0.880	0.470
2020/01/31 22:44:50.0	77.890	-0.690	0.740	0.420
2020/01/31 22:44:50.1	77.900	-0.650	0.600	0.370
2020/01/31 22:44:50.2	77.920	-0.610	0.450	0.330
2020/01/31 22:44:50.3	77.940	-0.550	0.300	0.280
2020/01/31 22:44:50.4	77.960	-0.500	0.140	0.230
2020/01/31 22:44:50.5	77.980	-0.440	-0.030	0.180
2020/01/31 22:44:50.6	78.010	-0.380	-0.190	0.140
2020/01/31 22:44:50.7	78.040	-0.310	-0.360	0.090
2020/01/31 22:44:50.8	78.070	-0.250	-0.520	0.050
2020/01/31 22:44:50.9	78.100	-0.180	-0.680	0.010
2020/01/31 22:44:51.0	78.130	-0.110	-0.830	-0.030
2020/01/31 22:44:51.1	78.160	-0.040	-0.980	-0.070
2020/01/31 22:44:51.2	78.200	0.030	-1.120	-0.100
2020/01/31 22:44:51.3	78.230	0.090	-1.250	-0.120
2020/01/31 22:44:51.4	78.260	0.150	-1.370	-0.140
2020/01/31 22:44:51.5	78.290	0.210	-1.480	-0.160
2020/01/31 22:44:51.6	78.310	0.260	-1.570	-0.160
2020/01/31 22:44:51.7	78.340	0.310	-1.650	-0.170
2020/01/31 22:44:51.8	78.360	0.360	-1.710	-0.170
2020/01/31 22:44:51.9	78.380	0.390	-1.750	-0.160
2020/01/31 22:44:52.0	78.400	0.420	-1.790	-0.150
2020/01/31 22:44:52.1	78.420	0.450	-1.800	-0.140
2020/01/31 22:44:52.2	78.430	0.460	-1.790	-0.120
2020/01/31 22:44:52.3	78.440	0.470	-1.770	-0.110
2020/01/31 22:44:52.4	78.450	0.470	-1.730	-0.090
2020/01/31 22:44:52.5	78.450	0.470	-1.680	-0.060
2020/01/31 22:44:52.6	78.460	0.450	-1.610	-0.040
2020/01/31 22:44:52.7	78.460	0.430	-1.520	-0.010
2020/01/31 22:44:52.8	78.460	0.400	-1.420	0.010
2020/01/31 22:44:52.9	78.450	0.360	-1.310	0.040
2020/01/31 22:44:53.0	78.440	0.320	-1.190	0.070
2020/01/31 22:44:53.1	78.430	0.270	-1.050	0.100
2020/01/31 22:44:53.2	78.420	0.220	-0.910	0.140
2020/01/31 22:44:53.3	78.420	0.160	-0.770	0.170
2020/01/31 22:44:53.4	78.410	0.100	-0.610	0.210
2020/01/31 22:44:53.5	78.390	0.030	-0.460	0.240
2020/01/31 22:44:53.6	78.380	-0.040	-0.300	0.280
2020/01/31 22:44:53.7	78.370	-0.110	-0.140	0.310
2020/01/31 22:44:53.8	78.360	-0.180	0.020	0.350
2020/01/31 22:44:53.9	78.350	-0.250	0.170	0.380
2020/01/31 22:44:54.0	78.330	-0.320	0.320	0.420
2020/01/31 22:44:54.1	78.320	-0.390	0.460	0.450
2020/01/31 22:44:54.2	78.310	-0.460	0.600	0.480
2020/01/31 22:44:54.3	78.300	-0.520	0.730	0.520
2020/01/31 22:44:54.4	78.290	-0.580	0.850	0.550
2020/01/31 22:44:54.5	78.280	-0.640	0.960	0.570
2020/01/31 22:44:54.6	78.270	-0.690	1.050	0.600
2020/01/31 22:44:54.7	78.260	-0.740	1.140	0.630
2020/01/31 22:44:54.8	78.250	-0.780	1.210	0.650
2020/01/31 22:44:54.9	78.250	-0.810	1.270	0.670
2020/01/31 22:44:55.0	78.240	-0.840	1.310	0.690
2020/01/31 22:44:55.1	78.230	-0.860	1.340	0.710
2020/01/31 22:44:55.2	78.230	-0.870	1.350	0.720
2020/01/31 22:44:55.3	78.220	-0.880	1.350	0.730
2020/01/31 22:44:55.4	78.220	-0.870	1.330	0.730
2020/01/31 22:44:55.5	78.220	-0.860	1.300	0.740
2020/01/31 22:44:55.6	78.210	-0.840	1.250	0.740
2020/01/31 22:44:55.7	78.210	-0.820	1.180	0.730
2020/01/31 22:44:55.8	78.210	-0.780	1.100	0.730
2020/01/31 22:44:55.9	78.210	-0.740	1.000	0.720
2020/01/31 22:44:56.0	78.210	-0.690	0.890	0.700
2020/01/31 22:44:56.1	78.220	-0.630	0.770	0.680
2020/01/31 22:44:56.2	78.220	-0.570	0.640	0.660
2020/01/31 22:44:56.3	78.230	-0.500	0.490	0.640
2020/01/31 22:44:56.4	78.230	-0.420	0.340	0.610
2020/01/31 22:44:56.5	78.240	-0.340	0.170	0.580
2020/01/31 22:44:56.6	78.250	-0.260	0.000	0.550
2020/01/31 22:44:56.7	78.260	-0.170	-0.170	0.510
2020/01/31 22:44:56.8	78.270	-0.070	-0.350	0.470
2020/01/31 22:44:56.9	78.290	0.020	-0.530	0.430
2020/01/31 22:44:57.0	78.300	0.120	-0.710	0.390
2020/01/31 22:44:57.1	78.320	0.220	-0.890	0.350
2020/01/31 22:44:57.2	78.330	0.310	-1.070	0.300
2020/01/31 22:44:57.3	78.340	0.410	-1.240	0.260
2020/01/31 22:44:57.4	78.360	0.500	-1.400	0.220
2020/01/31 22:44:57.5	78.370	0.600	-1.550	0.180
2020/01/31 22:44:57.6	78.380	0.690	-1.690	0.140
2020/01/31 22:44:57.7	78.380	0.770	-1.820	0.110
2020/01/31 22:44:57.8	78.390	0.850	-1.940	0.080
2020/01/31 22:44:57.9	78.390	0.930	-2.040	0.050
2020/01/31 22:44:58.0	78.390	1.000	-2.130	0.020
2020/01/31 22:44:58.1	78.390	1.060	-2.190	0.000
2020/01/31 22:44:58.2	78.380	1.110	-2.240	-0.010
2020/01/31 22:44:58.3	78.370	1.160	-2.270	-0.030
2020/01/31 22:44:58.4	78.360	1.200	-2.270	-0.040
2020/01/31 22:44:58.5	78.340	1.220	-2.260	-0.040
2020/01/31 22:44:58.6	78.320	1.240	-2.220	-0.050
2020/01/31 22:44:58.7	78.300	1.250	-2.170	-0.050
2020/01/31 22:44:58.8	78.280	1.260	-2.090	-0.040
2020/01/31 22:44:58.9	78.250	1.250	-1.990	-0.040
2020/01/31 22:44:59.0	78.220	1.230	-1.880	-0.030
2020/01/31 22:44:59.1	78.190	1.200	-1.750	-0.020
2020/01/31 22:44:59.2	78.160	1.160	-1.600	-0.000
2020/01/31 22:44:59.3	78.120	1.120	-1.430	0.010
2020/01/31 22:44:59.4	78.080	1.060	-1.260	0.030
2020/01/31 22:44:59.5	78.040	1.000	-1.070	0.050
2020/01/31 22:44:59.6	78.000	0.930	-0.880	0.070
2020/01/31 22:44:59.7	77.960	0.850	-0.670	0.090
2020/01/31 22:44:59.8	77.920	0.770	-0.460	0.110
2020/01/31 22:44:59.9	77.890	0.680	-0.250	0.130
2020/01/31 22:45:00.0	77.850	0.590	-0.040	0.140
2020/01/31 22:45:00.1	77.810	0.500	0.180	0.160
2020/01/31 22:45:00.2	77.780	0.400	0.380	0.180
2020/01/31 22:45:00.3	77.740	0.300	0.590	0.190
2020/01/31 22:45:00.4	77.710	0.190	0.780	0.200
2020/01/31 22:45:00.5	77.680	0.090	0.970	0.210
2020/01/31 22:45:00.6	77.650	-0.010	1.150	0.210
2020/01/31 22:45:00.7	77.630	-0.110	1.310	0.210
2020/01/31 22:45:00.8	77.610	-0.210	1.470	0.210
2020/01/31 22:45:00.9	77.590	-0.310	1.610	0.210
2020/01/31 22:45:01.0	77.570	-0.400	1.730	0.200
2020/01/31 22:45:01.1	77.560	-0.490	1.830	0.190
2020/01/31 22:45:01.2	77.550	-0.580	1.920	0.170
2020/01/31 22:45:01.3	77.540	-0.650	1.990	0.160
2020/01/31 22:45:01.4	77.540	-0.720	2.040	0.140
2020/01/31 22:45:01.5	77.540	-0.780	2.070	0.110
2020/01/31 22:45:01.6	77.540	-0.840	2.080	0.080
2020/01/31 22:45:01.7	77.550	-0.880	2.070	0.050
2020/01/31 22:45:01.8	77.560	-0.910	2.040	0.020
2020/01/31 22:45:01.9	77.580	-0.940	1.990	-0.010
2020/01/31 22:45:02.0	77.600	-0.950	1.920	-0.050
2020/01/31 22:45:02.1	77.620	-0.960	1.830	-0.080
2020/01/31 22:45:02.2	77.640	-0.950	1.720	-0.120
2020/01/31 22:45:02.3	77.670	-0.930	1.600	-0.150
2020/01/31 22:45:02.4	77.710	-0.910	1.460	-0.190
2020/01/31 22:45:02.5	77.750	-0.870	1.310	-0.220
2020/01/31 22:45:02.6	77.790	-0.830	1.140	-0.260
2020/01/31 22:45:02.7	77.830	-0.780	0.970	-0.290
2020/01/31 22:45:02.8	77.880	-0.720	0.780	-0.330
2020/01/31 22:45:02.9	77.920	-0.660	0.590	-0.360
2020/01/31 22:45:03.0	77.970	-0.590	0.390	-0.390
2020/01/31 22:45:03.1	78.020	-0.510	0.190	-0.420
2020/01/31 22:45:03.2	78.080	-0.430	-0.010	-0.450
2020/01/31 22:45:03.3	78.130	-0.350	-0.210	-0.470
2020/01/31 22:45:03.4	78.190	-0.270	-0.410	-0.500
2020/01/31 22:45:03.5	78.240	-0.180	-0.610	-0.520
2020/01/31 22:45:03.6	78.300	-0.100	-0.800	-0.550
2020/01/31 22:45:03.7	78.350	-0.010	-0.980	-0.560
2020/01/31 22:45:03.8	78.400	0.070	-1.150	-0.580
2020/01/31 22:45:03.9	78.440	0.150	-1.310	-0.590
2020/01/31 22:45:04.0	78.490	0.220	-1.470	-0.610
2020/01/31 22:45:04.1	78.530	0.290	-1.600	-0.610
2020/01/31 22:45:04.2	78.560	0.360	-1.720	-0.620
2020/01/31 22:45:04.3	78.590	0.420	-1.820	-0.610
2020/01/31 22:45:04.4	78.610	0.470	-1.900	-0.610
2020/01/31 22:45:04.5	78.630	0.510	-1.970	-0.600
2020/01/31 22:45:04.6	78.640	0.550	-2.010	-0.580
2020/01/31 22:45:04.7	78.640	0.570	-2.030	-0.570
2020/01/31 22:45:04.8	78.630	0.590	-2.040	-0.540
2020/01/31 22:45:04.9	78.610	0.600	-2.020	-0.520
2020/01/31 22:45:05.0	78.600	0.600	-1.980	-0.480
2020/01/31 22:45:05.1	78.570	0.590	-1.920	-0.450
2020/01/31 22:45:05.2	78.540	0.570	-1.840	-0.420
2020/01/31 22:45:05.3	78.510	0.550	-1.750	-0.380
2020/01/31 22:45:05.4	78.460	0.510	-1.650	-0.330
2020/01/31 22:45:05.5	78.420	0.470	-1.520	-0.290
2020/01/31 22:45:05.6	78.370	0.420	-1.390	-0.240
2020/01/31 22:45:05.7	78.310	0.370	-1.240	-0.180
2020/01/31 22:45:05.8	78.250	0.310	-1.080	-0.130
2020/01/31 22:45:05.9	78.190	0.240	-0.910	-0.070
2020/01/31 22:45:06.0	78.110	0.170	-0.740	-0.020
2020/01/31 22:45:06.1	78.040	0.100	-0.560	0.030
2020/01/31 22:45:06.2	77.970	0.020	-0.390	0.090
2020/01/31 22:45:06.3	77.900	-0.060	-0.210	0.150
2020/01/31 22:45:06.4	77.820	-0.140	-0.030	0.200
2020/01/31 22:45:06.5	77.750	-0.220	0.140	0.250
2020/01/31 22:45:06.6	77.680	-0.290	0.300	0.300
2020/01/31 22:45:06.7	77.620	-0.370	0.460	0.350
2020/01/31 22:45:06.8	77.550	-0.440	0.600	0.390
2020/01/31 22:45:06.9	77.490	-0.500	0.730	0.420
2020/01/31 22:45:07.0	77.430	-0.560	0.860	0.450
2020/01/31 22:45:07.1	77.380	-0.620	0.960	0.480
2020/01/31 22:45:07.2	77.320	-0.670	1.040	0.490
2020/01/31 22:45:07.3	77.280	-0.710	1.110	0.500
2020/01/31 22:45:07.4	77.240	-0.740	1.150	0.510
2020/01/31 22:45:07.5	77.200	-0.760	1.180	0.500
2020/01/31 22:45:07.6	77.160	-0.770	1.180	0.490
2020/01/31 22:45:07.7	77.140	-0.780	1.170	0.480
2020/01/31 22:45:07.8	77.110	-0.770	1.140	0.460
2020/01/31 22:45:07.9	77.090	-0.750	1.080	0.440
2020/01/31 22:45:08.0	77.080	-0.720	1.010	0.410
2020/01/31 22:45:08.1	77.070	-0.690	0.920	0.380
2020/01/31 22:45:08.2	77.060	-0.640	0.820	0.350
2020/01/31 22:45:08.3	77.060	-0.590	0.700	0.320
2020/01/31 22:45:08.4	77.050	-0.530	0.570	0.280
2020/01/31 22:45:08.5	77.050	-0.460	0.430	0.250
2020/01/31 22:45:08.6	77.060	-0.390	0.280	0.210
2020/01/31 22:45:08.7	77.060	-0.310	0.130	0.180
2020/01/31 22:45:08.8	77.070	-0.240	-0.020	0.140
2020/01/31 22:45:08.9	77.080	-0.150	-0.170	0.110
2020/01/31 22:45:09.0	77.090	-0.070	-0.330	0.080
2020/01/31 22:45:09.1	77.100	0.010	-0.480	0.040
2020/01/31 22:45:09.2	77.110	0.090	-0.630	0.010
2020/01/31 22:45:09.3	77.120	0.170	-0.760	-0.020
2020/01/31 22:45:09.4	77.120	0.250	-0.890	-0.050
2020/01/31 22:45:09.5	77.130	0.330	-1.010	-0.080
2020/01/31 22:45:09.6	77.140	0.400	-1.120	-0.100
2020/01/31 22:45:09.7	77.150	0.460	-1.210	-0.130
2020/01/31 22:45:09.8	77.160	0.520	-1.300	-0.160
2020/01/31 22:45:09.9	77.170	0.570	-1.360	-0.180
2020/01/31 22:45:10.0	77.180	0.620	-1.420	-0.200
2020/01/31 22:45:10.1	77.190	0.660	-1.460	-0.220
2020/01/31 22:45:10.2	77.200	0.690	-1.480	-0.240
2020/01/31 22:45:10.3	77.210	0.710	-1.490	-0.260
2020/01/31 22:45:10.4	77.220	0.720	-1.480	-0.270
2020/01/31 22:45:10.5	77.220	0.730	-1.460	-0.280
2020/01/31 22:45:10.6	77.230	0.730	-1.420	-0.290
2020/01/31 22:45:10.7	77.240	0.720	-1.370	-0.300
2020/01/31 22:45:10.8	77.240	0.700	-1.310	-0.300
2020/01/31 22:45:10.9	77.250	0.680	-1.230	-0.310
2020/01/31 22:45:11.0	77.240	0.640	-1.150	-0.300
2020/01/31 22:45:11.1	77.250	0.610	-1.050	-0.300
2020/01/31 22:45:11.2	77.250	0.560	-0.940	-0.290
2020/01/31 22:45:11.3	77.260	0.510	-0.830	-0.280
2020/01/31 22:45:11.4	77.260	0.460	-0.710	-0.270
2020/01/31 22:45:11.5	77.260	0.400	-0.590	-0.250
2020/01/31 22:45:11.6	77.260	0.340	-0.460	-0.230
2020/01/31 22:45:11.7	77.260	0.280	-0.330	-0.210
2020/01/31 22:45:11.8	77.260	0.210	-0.200	-0.180
2020/01/31 22:45:11.9	77.260	0.150	-0.070	-0.150
2020/01/31 22:45:12.0	77.260	0.080	0.060	-0.120
2020/01/31 22:45:12.1	77.260	0.010	0.180	-0.090
2020/01/31 22:45:12.2	77.250	-0.050	0.310	-0.050
2020/01/31 22:45:12.3	77.240	-0.120	0.420	-0.020
2020/01/31 22:45:12.4	77.240	-0.180	0.530	0.020
2020/01/31 22:45:12.5	77.230	-0.240	0.640	0.060
2020/01/31 22:45:12.6	77.220	-0.300	0.730	0.100
2020/01/31 22:45:12.7	77.210	-0.350	0.820	0.140
2020/01/31 22:45:12.8	77.190	-0.400	0.900	0.180
2020/01/31 22:45:12.9	77.180	-0.440	0.970	0.220
2020/01/31 22:45:13.0	77.170	-0.480	1.030	0.260
2020/01/31 22:45:13.1	77.160	-0.520	1.080	0.300
2020/01/31 22:45:13.2	77.150	-0.550	1.110	0.330
2020/01/31 22:45:13.3	77.130	-0.570	1.140	0.360
2020/01/31 22:45:13.4	77.120	-0.590	1.150	0.390
2020/01/31 22:45:13.5	77.110	-0.600	1.150	0.420
2020/01/31 22:45:13.6	77.100	-0.610	1.140	0.440
2020/01/31 22:45:13.7	77.100	-0.600	1.120	0.460
2020/01/31 22:45:13.8	77.090	-0.600	1.090	0.470
2020/01/31 22:45:13.9	77.090	-0.580	1.050	0.480
2020/01/31 22:45:14.0	77.090	-0.560	0.990	0.490
2020/01/31 22:45:14.1	77.090	-0.540	0.930	0.490
2020/01/31 22:45:14.2	77.090	-0.510	0.850	0.490
2020/01/31 22:45:14.3	77.100	-0.470	0.770	0.480
2020/01/31 22:45:14.4	77.110	-0.420	0.680	0.470
2020/01/31 22:45:14.5	77.120	-0.380	0.580	0.460
2020/01/31 22:45:14.6	77.130	-0.320	0.470	0.450
2020/01/31 22:45:14.7	77.150	-0.260	0.360	0.430
2020/01/31 22:45:14.8	77.170	-0.200	0.240	0.410
2020/01/31 22:45:14.9	77.190	-0.140	0.120	0.390
2020/01/31 22:45:15.0	77.210	-0.070	-0.010	0.370
2020/01/31 22:45:15.1	77.230	0.010	-0.140	0.350
2020/01/31 22:45:15.2	77.260	0.080	-0.260	0.330
2020/01/31 22:45:15.3	77.280	0.150	-0.390	0.320
2020/01/31 22:45:15.4	77.300	0.230	-0.520	0.300
2020/01/31 22:45:15.5	77.320	0.310	-0.650	0.290
2020/01/31 22:45:15.6	77.350	0.380	-0.770	0.280
2020/01/31 22:45:15.7	77.370	0.460	-0.890	0.270
2020/01/31 22:45:15.8	77.390	0.530	-1.000	0.260
2020/01/31 22:45:15.9	77.410	0.600	-1.100	0.260
2020/01/31 22:45:16.0	77.420	0.670	-1.200	0.260
2020/01/31 22:45:16.1	77.440	0.740	-1.290	0.270
2020/01/31 22:45:16.2	77.450	0.800	-1.370	0.270
2020/01/31 22:45:16.3	77.470	0.850	-1.440	0.280
2020/01/31 22:45:16.4	77.490	0.900	-1.500	0.290
2020/01/31 22:45:16.5	77.500	0.940	-1.540	0.300
2020/01/31 22:45:16.6	77.510	0.980	-1.580	0.310
2020/01/31 22:45:16.7	77.520	1.010	-1.600	0.330
2020/01/31 22:45:16.8	77.540	1.030	-1.610	0.340
2020/01/31 22:45:16.9	77.550	1.050	-1.610	0.360
2020/01/31 22:45:17.0	77.560	1.050	-1.590	0.380
2020/01/31 22:45:17.1	77.570	1.050	-1.560	0.400
2020/01/31 22:45:17.2	77.570	1.040	-1.520	0.420
2020/01/31 22:45:17.3	77.580	1.020	-1.470	0.440
2020/01/31 22:45:17.4	77.580	1.000	-1.400	0.460
2020/01/31 22:45:17.5	77.580	0.970	-1.330	0.480
2020/01/31 22:45:17.6	77.580	0.930	-1.240	0.490
2020/01/31 22:45:17.7	77.580	0.880	-1.150	0.510
2020/01/31 22:45:17.8	77.570	0.820	-1.050	0.520
2020/01/31 22:45:17.9	77.570	0.760	-0.940	0.540
2020/01/31 22:45:18.0	77.570	0.690	-0.810	0.550
2020/01/31 22:45:18.1	77.560	0.620	-0.690	0.570
2020/01/31 22:45:18.2	77.550	0.550	-0.570	0.580
2020/01/31 22:45:18.3	77.540	0.470	-0.440	0.590
2020/01/31 22:45:18.4	77.530	0.380	-0.320	0.600
2020/01/31 22:45:18.5	77.520	0.300	-0.190	0.610
2020/01/31 22:45:18.6	77.500	0.210	-0.060	0.620
2020/01/31 22:45:18.7	77.490	0.120	0.060	0.630
2020/01/31 22:45:18.8	77.480	0.030	0.180	0.640
2020/01/31 22:45:18.9	77.460	-0.060	0.300	0.650
2020/01/31 22:45:19.0	77.440	-0.150	0.410	0.650
2020/01/31 22:45:19.1	77.430	-0.230	0.510	0.660
2020/01/31 22:45:19.2	77.420	-0.320	0.610	0.660
2020/01/31 22:45:19.3	77.410	-0.400	0.700	0.670
2020/01/31 22:45:19.4	77.400	-0.470	0.780	0.670
2020/01/31 22:45:19.5	77.390	-0.540	0.850	0.670
2020/01/31 22:45:19.6	77.380	-0.610	0.910	0.670
2020/01/31 22:45:19.7	77.370	-0.670	0.950	0.670
2020/01/31 22:45:19.8	77.370	-0.730	0.990	0.670
2020/01/31 22:45:19.9	77.370	-0.780	1.020	0.660
2020/01/31 22:45:20.0	77.370	-0.820	1.040	0.650
2020/01/31 22:45:20.1	77.370	-0.860	1.040	0.640
2020/01/31 22:45:20.2	77.370	-0.890	1.030	0.620
2020/01/31 22:45:20.3	77.380	-0.910	1.010	0.600
2020/01/31 22:45:20.4	77.390	-0.920	0.980	0.580
2020/01/31 22:45:20.5	77.410	-0.930	0.940	0.560
2020/01/31 22:45:20.6	77.420	-0.930	0.890	0.540
2020/01/31 22:45:20.7	77.440	-0.920	0.830	0.510
2020/01/31 22:45:20.8	77.450	-0.910	0.770	0.480
2020/01/31 22:45:20.9	77.470	-0.890	0.690	0.450
2020/01/31 22:45:21.0	77.500	-0.870	0.610	0.430
2020/01/31 22:45:21.1	77.520	-0.840	0.530	0.390
2020/01/31 22:45:21.2	77.540	-0.810	0.440	0.360
2020/01/31 22:45:21.3	77.570	-0.770	0.350	0.330
2020/01/31 22:45:21.4	77.590	-0.730	0.260	0.300
2020/01/31 22:45:21.5	77.620	-0.680	0.160	0.260
2020/01/31 22:45:21.6	77.640	-0.630	0.070	0.230
2020/01/31 22:45:21.7	77.670	-0.580	-0.020	0.190
2020/01/31 22:45:21.8	77.700	-0.530	-0.110	0.160
2020/01/31 22:45:21.9	77.730	-0.480	-0.200	0.120
2020/01/31 22:45:22.0	77.770	-0.420	-0.290	0.090
2020/01/31 22:45:22.1	77.800	-0.360	-0.370	0.050
2020/01/31 22:45:22.2	77.830	-0.310	-0.450	0.010
2020/01/31 22:45:22.3	77.870	-0.250	-0.520	-0.020
2020/01/31 22:45:22.4	77.900	-0.190	-0.590	-0.060
2020/01/31 22:45:22.5	77.940	-0.140	-0.650	-0.090
2020/01/31 22:45:22.6	77.980	-0.080	-0.710	-0.120
2020/01/31 22:45:22.7	78.020	-0.030	-0.760	-0.150
2020/01/31 22:45:22.8	78.050	0.030	-0.810	-0.190
2020/01/31 22:45:22.9	78.100	0.080	-0.850	-0.220
2020/01/31 22:45:23.0	78.140	0.130	-0.880	-0.250
2020/01/31 22:45:23.1	78.180	0.180	-0.910	-0.280
2020/01/31 22:45:23.2	78.220	0.220	-0.940	-0.300
2020/01/31 22:45:23.3	78.270	0.270	-0.960	-0.330
2020/01/31 22:45:23.4	78.310	0.310	-0.970	-0.350
2020/01/31 22:45:23.5	78.360	0.350	-0.980	-0.370
2020/01/31 22:45:23.6	78.400	0.390	-0.980	-0.390
2020/01/31 22:45:23.7	78.450	0.430	-0.980	-0.410
2020/01/31 22:45:23.8	78.490	0.460	-0.970	-0.430
2020/01/31 22:45:23.9	78.540	0.500	-0.960	-0.440
2020/01/31 22:45:24.0	78.590	0.530	-0.950	-0.450
2020/01/31 22:45:24.1	78.630	0.550	-0.930	-0.450
2020/01/31 22:45:24.2	78.660	0.580	-0.910	-0.450
2020/01/31 22:45:24.3	78.700	0.600	-0.880	-0.450
2020/01/31 22:45:24.4	78.730	0.620	-0.840	-0.440
2020/01/31 22:45:24.5	78.750	0.630	-0.800	-0.430
2020/01/31 22:45:24.6	78.770	0.650	-0.760	-0.410
2020/01/31 22:45:24.7	78.790	0.660	-0.710	-0.390
2020/01/31 22:45:24.8	78.810	0.660	-0.660	-0.370
2020/01/31 22:45:24.9	78.810	0.670	-0.610	-0.340
2020/01/31 22:45:25.0	78.820	0.670	-0.550	-0.310
2020/01/31 22:45:25.1	78.820	0.660	-0.490	-0.280
2020/01/31 22:45:25.2	78.820	0.660	-0.440	-0.250
2020/01/31 22:45:25.3	78.810	0.650	-0.380	-0.210
2020/01/31 22:45:25.4	78.790	0.630	-0.320	-0.170
2020/01/31 22:45:25.5	78.780	0.610	-0.250	-0.140
2020/01/31 22:45:25.6	78.760	0.590	-0.190	-0.100
2020/01/31 22:45:25.7	78.730	0.570	-0.130	-0.060
2020/01/31 22:45:25.8	78.700	0.540	-0.070	-0.030
2020/01/31 22:45:25.9	78.670	0.510	-0.020	0.010
2020/01/31 22:45:26.0	78.650	0.470	0.040	0.040
2020/01/31 22:45:26.1	78.610	0.440	0.090	0.070
2020/01/31 22:45:26.2	78.570	0.400	0.140	0.100
2020/01/31 22:45:26.3	78.530	0.350	0.180	0.130
2020/01/31 22:45:26.4	78.490	0.310	0.230	0.150
2020/01/31 22:45:26.5	78.450	0.260	0.260	0.170
2020/01/31 22:45:26.6	78.410	0.220	0.290	0.190
2020/01/31 22:45:26.7	78.370	0.170	0.320	0.210
2020/01/31 22:45:26.8	78.330	0.120	0.340	0.220
2020/01/31 22:45:26.9	78.290	0.070	0.360	0.230
2020/01/31 22:45:27.0	78.250	0.020	0.380	0.230
2020/01/31 22:45:27.1	78.220	-0.020	0.380	0.230
2020/01/31 22:45:27.2	78.190	-0.070	0.380	0.230
2020/01/31 22:45:27.3	78.170	-0.110	0.370	0.220
2020/01/31 22:45:27.4	78.140	-0.150	0.360	0.210
2020/01/31 22:45:27.5	78.130	-0.190	0.340	0.200
2020/01/31 22:45:27.6	78.110	-0.230	0.310	0.190
2020/01/31 22:45:27.7	78.110	-0.260	0.280	0.170
2020/01/31 22:45:27.8	78.100	-0.290	0.240	0.160
2020/01/31 22:45:27.9	78.100	-0.310	0.200	0.140
2020/01/31 22:45:28.0	78.120	-0.330	0.150	0.110
2020/01/31 22:45:28.1	78.120	-0.350	0.100	0.090
2020/01/31 22:45:28.2	78.140	-0.360	0.040	0.070
2020/01/31 22:45:28.3	78.150	-0.370	-0.020	0.050
2020/01/31 22:45:28.4	78.170	-0.370	-0.080	0.030
2020/01/31 22:45:28.5	78.200	-0.370	-0.140	0.010
2020/01/31 22:45:28.6	78.230	-0.370	-0.210	-0.010
2020/01/31 22:45:28.7	78.260	-0.360	-0.270	-0.030
2020/01/31 22:45:28.8	78.300	-0.350	-0.340	-0.040
2020/01/31 22:45:28.9	78.330	-0.330	-0.400	-0.060
2020/01/31 22:45:29.0	78.370	-0.310	-0.460	-0.070
2020/01/31 22:45:29.1	78.410	-0.290	-0.520	-0.090
2020/01/31 22:45:29.2	78.450	-0.270	-0.580	-0.100
2020/01/31 22:45:29.3	78.500	-0.250	-0.640	-0.110
2020/01/31 22:45:29.4	78.540	-0.220	-0.680	-0.120
2020/01/31 22:45:29.5	78.590	-0.190	-0.730	-0.130
2020/01/31 22:45:29.6	78.630	-0.170	-0.770	-0.140
2020/01/31 22:45:29.7	78.670	-0.140	-0.800	-0.140
2020/01/31 22:45:29.8	78.720	-0.110	-0.830	-0.150
2020/01/31 22:45:29.9	78.760	-0.090	-0.860	-0.150
2020/01/31 22:45:30.0	78.800	-0.060	-0.870	-0.160
2020/01/31 22:45:30.1	78.840	-0.040	-0.880	-0.160
2020/01/31 22:45:30.2	78.870	-0.010	-0.880	-0.150
2020/01/31 22:45:30.3	78.910	0.010	-0.880	-0.150
2020/01/31 22:45:30.4	78.930	0.020	-0.870	-0.140
2020/01/31 22:45:30.5	78.960	0.040	-0.850	-0.120
2020/01/31 22:45:30.6	78.980	0.050	-0.820	-0.110
2020/01/31 22:45:30.7	79.000	0.060	-0.790	-0.090
2020/01/31 22:45:30.8	79.010	0.070	-0.750	-0.060
2020/01/31 22:45:30.9	79.020	0.070	-0.710	-0.040
2020/01/31 22:45:31.0	79.040	0.080	-0.660	0.000
2020/01/31 22:45:31.1	79.040	0.070	-0.600	0.030
2020/01/31 22:45:31.2	79.040	0.070	-0.540	0.070
2020/01/31 22:45:31.3	79.040	0.060	-0.480	0.110
2020/01/31 22:45:31.4	79.030	0.060	-0.410	0.150
2020/01/31 22:45:31.5	79.020	0.040	-0.340	0.200
2020/01/31 22:45:31.6	79.010	0.030	-0.270	0.240
2020/01/31 22:45:31.7	79.000	0.010	-0.190	0.280
2020/01/31 22:45:31.8	78.980	-0.000	-0.120	0.330
2020/01/31 22:45:31.9	78.970	-0.020	-0.040	0.370
2020/01/31 22:45:32.0	78.960	-0.040	0.040	0.400
2020/01/31 22:45:32.1	78.940	-0.060	0.110	0.440
2020/01/31 22:45:32.2	78.920	-0.080	0.180	0.480
2020/01/31 22:45:32.3	78.910	-0.100	0.250	0.510
2020/01/31 22:45:32.4	78.890	-0.120	0.310	0.530
2020/01/31 22:45:32.5	78.880	-0.140	0.370	0.560
2020/01/31 22:45:32.6	78.860	-0.160	0.430	0.580
2020/01/31 22:45:32.7	78.850	-0.180	0.480	0.590
2020/01/31 22:45:32.8	78.840	-0.200	0.520	0.600
2020/01/31 22:45:32.9	78.830	-0.210	0.560	0.600
2020/01/31 22:45:33.0	78.820	-0.220	0.580	0.600
2020/01/31 22:45:33.1	78.810	-0.230	0.600	0.590
2020/01/31 22:45:33.2	78.810	-0.240	0.620	0.580
2020/01/31 22:45:33.3	78.810	-0.250	0.620	0.560
2020/01/31 22:45:33.4	78.810	-0.250	0.620	0.540
2020/01/31 22:45:33.5	78.810	-0.250	0.610	0.510
2020/01/31 22:45:33.6	78.810	-0.240	0.590	0.480
2020/01/31 22:45:33.7	78.820	-0.230	0.560	0.450
2020/01/31 22:45:33.8	78.830	-0.220	0.530	0.410
2020/01/31 22:45:33.9	78.840	-0.200	0.480	0.370
2020/01/31 22:45:34.0	78.850	-0.190	0.440	0.330
2020/01/31 22:45:34.1	78.860	-0.160	0.380	0.290
2020/01/31 22:45:34.2	78.880	-0.140	0.320	0.240
2020/01/31 22:45:34.3	78.900	-0.110	0.250	0.200
2020/01/31 22:45:34.4	78.920	-0.080	0.180	0.150
2020/01/31 22:45:34.5	78.940	-0.040	0.110	0.110
2020/01/31 22:45:34.6	78.960	-0.000	0.030	0.060
2020/01/31 22:45:34.7	78.990	0.040	-0.050	0.020
2020/01/31 22:45:34.8	79.010	0.080	-0.140	-0.030
2020/01/31 22:45:34.9	79.040	0.120	-0.220	-0.070
2020/01/31 22:45:35.0	79.070	0.160	-0.300	-0.120
2020/01/31 22:45:35.1	79.100	0.210	-0.390	-0.160
2020/01/31 22:45:35.2	79.130	0.250	-0.470	-0.190
2020/01/31 22:45:35.3	79.160	0.300	-0.550	-0.230
2020/01/31 22:45:35.4	79.190	0.340	-0.620	-0.260
2020/01/31 22:45:35.5	79.220	0.380	-0.690	-0.280
2020/01/31 22:45:35.6	79.250	0.420	-0.760	-0.300
2020/01/31 22:45:35.7	79.280	0.460	-0.820	-0.320
2020/01/31 22:45:35.8	79.310	0.490	-0.880	-0.340
2020/01/31 22:45:35.9	79.330	0.520	-0.930	-0.340
2020/01/31 22:45:36.0	79.360	0.550	-0.970	-0.350
2020/01/31 22:45:36.1	79.380	0.580	-1.000	-0.350
2020/01/31 22:45:36.2	79.400	0.600	-1.030	-0.340
2020/01/31 22:45:36.3	79.410	0.610	-1.050	-0.330
2020/01/31 22:45:36.4	79.430	0.620	-1.060	-0.310
2020/01/31 22:45:36.5	79.440	0.630	-1.070	-0.290
2020/01/31 22:45:36.6	79.450	0.630	-1.060	-0.270
2020/01/31 22:45:36.7	79.450	0.620	-1.050	-0.240
2020/01/31 22:45:36.8	79.460	0.610	-1.030	-0.220
2020/01/31 22:45:36.9	79.460	0.600	-1.010	-0.180
2020/01/31 22:45:37.0	79.450	0.580	-0.970	-0.150
2020/01/31 22:45:37.1	79.450	0.560	-0.930	-0.110
2020/01/31 22:45:37.2	79.450	0.530	-0.880	-0.070
2020/01/31 22:45:37.3	79.440	0.490	-0.830	-0.040
2020/01/31 22:45:37.4	79.430	0.460	-0.770	0.000
2020/01/31 22:45:37.5	79.420	0.420	-0.710	0.040
2020/01/31 22:45:37.6	79.410	0.370	-0.640	0.080
2020/01/31 22:45:37.7	79.400	0.330	-0.570	0.120
2020/01/31 22:45:37.8	79.390	0.280	-0.500	0.160
2020/01/31 22:45:37.9	79.380	0.230	-0.420	0.200
2020/01/31 22:45:38.0	79.360	0.180	-0.350	0.240
2020/01/31 22:45:38.1	79.350	0.120	-0.270	0.280
2020/01/31 22:45:38.2	79.340	0.070	-0.190	0.320
2020/01/31 22:45:38.3	79.330	0.020	-0.120	0.350
2020/01/31 22:45:38.4	79.330	-0.030	-0.040	0.390
2020/01/31 22:45:38.5	79.320	-0.080	0.030	0.420
2020/01/31 22:45:38.6	79.310	-0.130	0.100	0.460
2020/01/31 22:45:38.7	79.310	-0.180	0.160	0.490
2020/01/31 22:45:38.8	79.310	-0.220	0.220	0.520
2020/01/31 22:45:38.9	79.310	-0.260	0.280	0.540
2020/01/31 22:45:39.0	79.310	-0.300	0.330	0.570
2020/01/31 22:45:39.1	79.320	-0.330	0.370	0.590
2020/01/31 22:45:39.2	79.320	-0.360	0.410	0.610
2020/01/31 22:45:39.3	79.330	-0.380	0.430	0.630
2020/01/31 22:45:39.4	79.340	-0.400	0.450	0.650
2020/01/31 22:45:39.5	79.350	-0.420	0.470	0.660
2020/01/31 22:45:39.6	79.370	-0.430	0.470	0.670
2020/01/31 22:45:39.7	79.380	-0.440	0.470	0.670
2020/01/31 22:45:39.8	79.400	-0.440	0.460	0.680
2020/01/31 22:45:39.9	79.420	-0.440	0.440	0.680
2020/01/31 22:45:40.0	79.450	-0.430	0.420	0.670
2020/01/31 22:45:40.1	79.470	-0.420	0.390	0.670
2020/01/31 22:45:40.2	79.500	-0.410	0.350	0.650
2020/01/31 22:45:40.3	79.530	-0.390	0.310	0.640
2020/01/31 22:45:40.4	79.560	-0.370	0.260	0.620
2020/01/31 22:45:40.5	79.590	-0.350	0.210	0.600
2020/01/31 22:45:40.6	79.620	-0.330	0.160	0.580
2020/01/31 22:45:40.7	79.650	-0.300	0.100	0.560
2020/01/31 22:45:40.8	79.690	-0.270	0.040	0.530
2020/01/31 22:45:40.9	79.720	-0.240	-0.020	0.500
2020/01/31 22:45:41.0	79.760	-0.210	-0.080	0.470
2020/01/31 22:45:41.1	79.800	-0.180	-0.140	0.440
2020/01/31 22:45:41.2	79.830	-0.150	-0.200	0.410
2020/01/31 22:45:41.3	79.870	-0.120	-0.260	0.380
2020/01/31 22:45:41.4	79.910	-0.100	-0.310	0.340
2020/01/31 22:45:41.5	79.940	-0.070	-0.360	0.310
2020/01/31 22:45:41.6	79.980	-0.040	-0.410	0.270
2020/01/31 22:45:41.7	80.010	-0.020	-0.450	0.240
2020/01/31 22:45:41.8	80.050	0.010	-0.490	0.210
2020/01/31 22:45:41.9	80.080	0.030	-0.530	0.180
2020/01/31 22:45:42.0	80.110	0.050	-0.560	0.140
2020/01/31 22:45:42.1	80.140	0.060	-0.580	0.120
2020/01/31 22:45:42.2	80.180	0.080	-0.590	0.090
2020/01/31 22:45:42.3	80.210	0.090	-0.610	0.060
2020/01/31 22:45:42.4	80.240	0.100	-0.610	0.040
2020/01/31 22:45:42.5	80.280	0.110	-0.610	0.020
2020/01/31 22:45:42.6	80.310	0.110	-0.600	-0.000
2020/01/31 22:45:42.7	80.340	0.120	-0.590	-0.020
2020/01/31 22:45:42.8	80.370	0.120	-0.580	-0.040
2020/01/31 22:45:42.9	80.400	0.120	-0.560	-0.050
2020/01/31 22:45:43.0	80.430	0.120	-0.530	-0.060
2020/01/31 22:45:43.1	80.460	0.110	-0.500	-0.070
2020/01/31 22:45:43.2	80.490	0.110	-0.470	-0.080
2020/01/31 22:45:43.3	80.520	0.100	-0.440	-0.090
2020/01/31 22:45:43.4	80.550	0.090	-0.410	-0.090
2020/01/31 22:45:43.5	80.570	0.090	-0.370	-0.100
2020/01/31 22:45:43.6	80.600	0.080	-0.330	-0.100
2020/01/31 22:45:43.7	80.620	0.070	-0.290	-0.100
2020/01/31 22:45:43.8	80.640	0.060	-0.250	-0.110
2020/01/31 22:45:43.9	80.660	0.050	-0.210	-0.100
2020/01/31 22:45:44.0	80.670	0.040	-0.170	-0.100
2020/01/31 22:45:44.1	80.690	0.030	-0.140	-0.100
2020/01/31 22:45:44.2	80.710	0.030	-0.100	-0.090
2020/01/31 22:45:44.3	80.720	0.020	-0.060	-0.080
2020/01/31 22:45:44.4	80.740	0.010	-0.030	-0.070
2020/01/31 22:45:44.5	80.750	0.010	-0.000	-0.060
2020/01/31 22:45:44.6	80.760	0.000	0.020	-0.040
2020/01/31 22:45:44.7	80.770	-0.000	0.050	-0.030
2020/01/31 22:45:44.8	80.780	-0.000	0.070	-0.010
2020/01/31 22:45:44.9	80.780	-0.000	0.080	0.010
2020/01/31 22:45:45.0	80.790	-0.000	0.090	0.030
2020/01/31 22:45:45.1	80.800	0.000	0.100	0.050
2020/01/31 22:45:45.2	80.800	0.010	0.100	0.080
2020/01/31 22:45:45.3	80.810	0.010	0.090	0.100
2020/01/31 22:45:45.4	80.810	0.020	0.080	0.120
2020/01/31 22:45:45.5	80.820	0.030	0.060	0.140
2020/01/31 22:45:45.6	80.820	0.040	0.040	0.160
2020/01/31 22:45:45.7	80.830	0.060	0.010	0.170
2020/01/31 22:45:45.8	80.840	0.070	-0.020	0.190
2020/01/31 22:45:45.9	80.850	0.090	-0.060	0.200
2020/01/31 22:45:46.0	80.860	0.110	-0.110	0.220
2020/01/31 22:45:46.1	80.880	0.120	-0.150	0.230
2020/01/31 22:45:46.2	80.900	0.140	-0.200	0.240
2020/01/31 22:45:46.3	80.920	0.160	-0.260	0.250
2020/01/31 22:45:46.4	80.940	0.180	-0.310	0.260
2020/01/31 22:45:46.5	80.960	0.200	-0.370	0.270
2020/01/31 22:45:46.6	80.980	0.220	-0.420	0.280
2020/01/31 22:45:46.7	81.010	0.240	-0.480	0.300
2020/01/31 22:45:46.8	81.030	0.260	-0.530	0.310
2020/01/31 22:45:46.9	81.050	0.270	-0.580	0.330
2020/01/31 22:45:47.0	81.070	0.280	-0.620	0.340
2020/01/31 22:45:47.1	81.080	0.290	-0.660	0.360
2020/01/31 22:45:47.2	81.100	0.300	-0.690	0.380
2020/01/31 22:45:47.3	81.120	0.300	-0.720	0.400
2020/01/31 22:45:47.4	81.130	0.300	-0.740	0.410
2020/01/31 22:45:47.5	81.150	0.300	-0.750	0.430
2020/01/31 22:45:47.6	81.160	0.290	-0.750	0.440
2020/01/31 22:45:47.7	81.180	0.280	-0.750	0.460
2020/01/31 22:45:47.8	81.190	0.260	-0.740	0.470
2020/01/31 22:45:47.9	81.200	0.240	-0.720	0.480
2020/01/31 22:45:48.0	81.210	0.220	-0.690	0.490
2020/01/31 22:45:48.1	81.220	0.200	-0.660	0.500
2020/01/31 22:45:48.2	81.240	0.170	-0.620	0.510
2020/01/31 22:45:48.3	81.260	0.130	-0.570	0.510
2020/01/31 22:45:48.4	81.270	0.100	-0.510	0.510
2020/01/31 22:45:48.5	81.290	0.060	-0.450	0.510
2020/01/31 22:45:48.6	81.310	0.020	-0.390	0.510
2020/01/31 22:45:48.7	81.330	-0.030	-0.320	0.510
2020/01/31 22:45:48.8	81.360	-0.070	-0.260	0.500
2020/01/31 22:45:48.9	81.380	-0.120	-0.190	0.490
2020/01/31 22:45:49.0	81.400	-0.170	-0.120	0.470
2020/01/31 22:45:49.1	81.430	-0.210	-0.050	0.460
2020/01/31 22:45:49.2	81.460	-0.260	0.020	0.440
2020/01/31 22:45:49.3	81.490	-0.310	0.090	0.420
2020/01/31 22:45:49.4	81.530	-0.350	0.150	0.400
2020/01/31 22:45:49.5	81.560	-0.390	0.210	0.380
2020/01/31 22:45:49.6	81.600	-0.430	0.260	0.350
2020/01/31 22:45:49.7	81.630	-0.470	0.310	0.330
2020/01/31 22:45:49.8	81.670	-0.510	0.350	0.300
2020/01/31 22:45:49.9	81.710	-0.540	0.380	0.270
2020/01/31 22:45:50.0	81.740	-0.560	0.420	0.240
2020/01/31 22:45:50.1	81.780	-0.590	0.440	0.210
2020/01/31 22:45:50.2	81.820	-0.610	0.460	0.180
2020/01/31 22:45:50.3	81.850	-0.620	0.470	0.150
2020/01/31 22:45:50.4	81.890	-0.630	0.470	0.120
2020/01/31 22:45:50.5	81.920	-0.630	0.470	0.090
2020/01/31 22:45:50.6	81.950	-0.640	0.460	0.060
2020/01/31 22:45:50.7	81.980	-0.630	0.450	0.030
2020/01/31 22:45:50.8	82.010	-0.620	0.430	0.010
2020/01/31 22:45:50.9	82.040	-0.610	0.400	-0.020
2020/01/31 22:45:51.0	82.080	-0.590	0.370	-0.040
2020/01/31 22:45:51.1	82.110	-0.570	0.340	-0.060
2020/01/31 22:45:51.2	82.130	-0.550	0.300	-0.080
2020/01/31 22:45:51.3	82.160	-0.520	0.260	-0.100
2020/01/31 22:45:51.4	82.180	-0.480	0.220	-0.120
2020/01/31 22:45:51.5	82.200	-0.450	0.170	-0.140
2020/01/31 22:45:51.6	82.220	-0.410	0.120	-0.150
2020/01/31 22:45:51.7	82.250	-0.370	0.070	-0.170
2020/01/31 22:45:51.8	82.270	-0.320	0.010	-0.180
2020/01/31 22:45:51.9	82.290	-0.280	-0.040	-0.190
2020/01/31 22:45:52.0	82.310	-0.230	-0.100	-0.200
2020/01/31 22:45:52.1	82.340	-0.180	-0.160	-0.220
2020/01/31 22:45:52.2	82.360	-0.130	-0.220	-0.230
2020/01/31 22:45:52.3	82.380	-0.080	-0.280	-0.240
2020/01/31 22:45:52.4	82.410	-0.030	-0.340	-0.260
2020/01/31 22:45:52.5	82.430	0.020	-0.400	-0.270
2020/01/31 22:45:52.6	82.460	0.070	-0.460	-0.290
2020/01/31 22:45:52.7	82.490	0.120	-0.530	-0.300
2020/01/31 22:45:52.8	82.520	0.180	-0.590	-0.310
2020/01/31 22:45:52.9	82.560	0.230	-0.650	-0.330
2020/01/31 22:45:53.0	82.600	0.280	-0.710	-0.340
2020/01/31 22:45:53.1	82.640	0.330	-0.770	-0.360
2020/01/31 22:45:53.2	82.670	0.370	-0.830	-0.370
2020/01/31 22:45:53.3	82.710	0.420	-0.880	-0.380
2020/01/31 22:45:53.4	82.750	0.460	-0.940	-0.380
2020/01/31 22:45:53.5	82.790	0.510	-0.980	-0.390
2020/01/31 22:45:53.6	82.820	0.550	-1.030	-0.390
2020/01/31 22:45:53.7	82.860	0.580	-1.070	-0.390
2020/01/31 22:45:53.8	82.900	0.620	-1.100	-0.390
2020/01/31 22:45:53.9	82.940	0.650	-1.130	-0.380
2020/01/31 22:45:54.0	82.980	0.680	-1.150	-0.370
2020/01/31 22:45:54.1	83.010	0.700	-1.170	-0.360
2020/01/31 22:45:54.2	83.050	0.720	-1.170	-0.350
2020/01/31 22:45:54.3	83.080	0.740	-1.170	-0.330
2020/01/31 22:45:54.4	83.110	0.750	-1.170	-0.310
2020/01/31 22:45:54.5	83.140	0.760	-1.150	-0.290
2020/01/31 22:45:54.6	83.170	0.760	-1.130	-0.270
2020/01/31 22:45:54.7	83.190	0.760	-1.100	-0.240
2020/01/31 22:45:54.8	83.220	0.750	-1.060	-0.220
2020/01/31 22:45:54.9	83.240	0.740	-1.010	-0.190
2020/01/31 22:45:55.0	83.270	0.720	-0.950	-0.170
2020/01/31 22:45:55.1	83.290	0.700	-0.890	-0.140
2020/01/31 22:45:55.2	83.310	0.680	-0.820	-0.110
2020/01/31 22:45:55.3	83.330	0.650	-0.750	-0.080
2020/01/31 22:45:55.4	83.340	0.610	-0.670	-0.050
2020/01/31 22:45:55.5	83.360	0.580	-0.580	-0.020
2020/01/31 22:45:55.6	83.370	0.540	-0.490	0.010
2020/01/31 22:45:55.7	83.390	0.490	-0.400	0.040
2020/01/31 22:45:55.8	83.410	0.440	-0.300	0.060
2020/01/31 22:45:55.9	83.420	0.390	-0.210	0.090
2020/01/31 22:45:56.0	83.440	0.340	-0.110	0.120
2020/01/31 22:45:56.1	83.450	0.290	-0.010	0.150
2020/01/31 22:45:56.2	83.460	0.230	0.080	0.170
2020/01/31 22:45:56.3	83.480	0.170	0.180	0.200
2020/01/31 22:45:56.4	83.490	0.110	0.270	0.230
2020/01/31 22:45:56.5	83.510	0.060	0.360	0.250
2020/01/31 22:45:56.6	83.520	-0.000	0.450	0.270
2020/01/31 22:45:56.7	83.540	-0.060	0.530	0.290
2020/01/31 22:45:56.8	83.560	-0.120	0.600	0.310
2020/01/31 22:45:56.9	83.570	-0.180	0.670	0.330
2020/01/31 22:45:57.0	83.600	-0.230	0.740	0.340
2020/01/31 22:45:57.1	83.620	-0.280	0.790	0.360
2020/01/31 22:45:57.2	83.640	-0.340	0.840	0.360
2020/01/31 22:45:57.3	83.670	-0.380	0.870	0.370
2020/01/31 22:45:57.4	83.690	-0.430	0.900	0.370
2020/01/31 22:45:57.5	83.720	-0.470	0.920	0.370
2020/01/31 22:45:57.6	83.750	-0.510	0.930	0.370
2020/01/31 22:45:57.7	83.780	-0.540	0.940	0.360
2020/01/31 22:45:57.8	83.810	-0.570	0.930	0.360
2020/01/31 22:45:57.9	83.840	-0.590	0.910	0.350
2020/01/31 22:45:58.0	83.870	-0.610	0.890	0.340
2020/01/31 22:45:58.1	83.900	-0.630	0.850	0.330
2020/01/31 22:45:58.2	83.940	-0.640	0.810	0.320
2020/01/31 22:45:58.3	83.980	-0.640	0.770	0.310
2020/01/31 22:45:58.4	84.020	-0.640	0.710	0.290
2020/01/31 22:45:58.5	84.060	-0.640	0.650	0.280
2020/01/31 22:45:58.6	84.110	-0.630	0.580	0.260
2020/01/31 22:45:58.7	84.150	-0.620	0.510	0.250
2020/01/31 22:45:58.8	84.200	-0.600	0.440	0.240
2020/01/31 22:45:58.9	84.250	-0.580	0.360	0.220
2020/01/31 22:45:59.0	84.290	-0.560	0.280	0.210
2020/01/31 22:45:59.1	84.340	-0.530	0.200	0.190
2020/01/31 22:45:59.2	84.390	-0.500	0.120	0.180
2020/01/31 22:45:59.3	84.440	-0.470	0.040	0.170
2020/01/31 22:45:59.4	84.490	-0.440	-0.040	0.150
2020/01/31 22:45:59.5	84.540	-0.410	-0.120	0.140
2020/01/31 22:45:59.6	84.590	-0.370	-0.190	0.120
2020/01/31 22:45:59.7	84.640	-0.340	-0.270	0.110
2020/01/31 22:45:59.8	84.690	-0.300	-0.340	0.090
2020/01/31 22:45:59.9	84.740	-0.270	-0.400	0.070
2020/01/31 22:46:00.0	84.800	-0.240	-0.470	0.060
2020/01/31 22:46:00.1	84.850	-0.200	-0.530	0.040
2020/01/31 22:46:00.2	84.900	-0.170	-0.580	0.030
2020/01/31 22:46:00.3	84.950	-0.140	-0.630	0.010
2020/01/31 22:46:00.4	85.000	-0.110	-0.680	-0.010
2020/01/31 22:46:00.5	85.050	-0.080	-0.720	-0.030
2020/01/31 22:46:00.6	85.100	-0.060	-0.760	-0.050
2020/01/31 22:46:00.7	85.150	-0.030	-0.790	-0.060
2020/01/31 22:46:00.8	85.200	-0.010	-0.820	-0.080
2020/01/31 22:46:00.9	85.240	0.010	-0.840	-0.090
2020/01/31 22:46:01.0	85.290	0.030	-0.860	-0.110
2020/01/31 22:46:01.1	85.340	0.050	-0.880	-0.110
2020/01/31 22:46:01.2	85.380	0.070	-0.890	-0.120
2020/01/31 22:46:01.3	85.420	0.080	-0.900	-0.120
2020/01/31 22:46:01.4	85.460	0.090	-0.900	-0.110
2020/01/31 22:46:01.5	85.500	0.100	-0.900	-0.110
2020/01/31 22:46:01.6	85.540	0.110	-0.900	-0.100
2020/01/31 22:46:01.7	85.570	0.120	-0.890	-0.090
2020/01/31 22:46:01.8	85.600	0.120	-0.880	-0.070
2020/01/31 22:46:01.9	85.630	0.130	-0.860	-0.050
2020/01/31 22:46:02.0	85.660	0.130	-0.850	-0.020
2020/01/31 22:46:02.1	85.690	0.130	-0.830	0.000
2020/01/31 22:46:02.2	85.720	0.130	-0.800	0.030
2020/01/31 22:46:02.3	85.740	0.130	-0.780	0.050
2020/01/31 22:46:02.4	85.760	0.130	-0.750	0.080
2020/01/31 22:46:02.5	85.780	0.120	-0.720	0.110
2020/01/31 22:46:02.6	85.800	0.120	-0.690	0.130
2020/01/31 22:46:02.7	85.820	0.110	-0.660	0.160
2020/01/31 22:46:02.8	85.840	0.100	-0.620	0.190
2020/01/31 22:46:02.9	85.850	0.090	-0.590	0.210
2020/01/31 22:46:03.0	85.870	0.080	-0.550	0.240
2020/01/31 22:46:03.1	85.890	0.070	-0.520	0.260
2020/01/31 22:46:03.2	85.900	0.060	-0.480	0.280
2020/01/31 22:46:03.3	85.910	0.050	-0.440	0.300
2020/01/31 22:46:03.4	85.920	0.030	-0.410	0.310
2020/01/31 22:46:03.5	85.930	0.020	-0.380	0.330
2020/01/31 22:46:03.6	85.940	0.010	-0.340	0.340
2020/01/31 22:46:03.7	85.950	-0.010	-0.310	0.350
2020/01/31 22:46:03.8	85.950	-0.020	-0.280	0.360
2020/01/31 22:46:03.9	85.960	-0.040	-0.250	0.370
2020/01/31 22:46:04.0	85.960	-0.060	-0.220	0.380
2020/01/31 22:46:04.1	85.970	-0.070	-0.190	0.380
2020/01/31 22:46:04.2	85.970	-0.090	-0.160	0.380
2020/01/31 22:46:04.3	85.970	-0.100	-0.140	0.380
2020/01/31 22:46:04.4	85.970	-0.120	-0.110	0.370
2020/01/31 22:46:04.5	85.970	-0.140	-0.090	0.370
2020/01/31 22:46:04.6	85.970	-0.150	-0.070	0.360
2020/01/31 22:46:04.7	85.970	-0.170	-0.040	0.350
2020/01/31 22:46:04.8	85.960	-0.180	-0.020	0.330
2020/01/31 22:46:04.9	85.960	-0.190	-0.000	0.320
2020/01/31 22:46:05.0	85.960	-0.200	0.020	0.300
2020/01/31 22:46:05.1	85.960	-0.210	0.030	0.280
2020/01/31 22:46:05.2	85.960	-0.220	0.050	0.260
2020/01/31 22:46:05.3	85.970	-0.230	0.060	0.230
2020/01/31 22:46:05.4	85.970	-0.240	0.070	0.200
2020/01/31 22:46:05.5	85.980	-0.240	0.080	0.180
2020/01/31 22:46:05.6	85.990	-0.240	0.090	0.150
2020/01/31 22:46:05.7	86.000	-0.240	0.090	0.120
2020/01/31 22:46:05.8	86.010	-0.240	0.090	0.080
2020/01/31 22:46:05.9	86.030	-0.230	0.090	0.050
2020/01/31 22:46:06.0	86.060	-0.220	0.090	0.010
2020/01/31 22:46:06.1	86.090	-0.210	0.080	-0.020
2020/01/31 22:46:06.2	86.120	-0.200	0.070	-0.060
2020/01/31 22:46:06.3	86.150	-0.180	0.060	-0.100
2020/01/31 22:46:06.4	86.190	-0.160	0.040	-0.140
2020/01/31 22:46:06.5	86.230	-0.140	0.030	-0.180
2020/01/31 22:46:06.6	86.270	-0.120	0.010	-0.230
2020/01/31 22:46:06.7	86.320	-0.090	-0.010	-0.270
2020/01/31 22:46:06.8	86.370	-0.070	-0.040	-0.310
2020/01/31 22:46:06.9	86.430	-0.040	-0.060	-0.360
2020/01/31 22:46:07.0	86.490	-0.010	-0.090	-0.390
2020/01/31 22:46:07.1	86.550	0.020	-0.120	-0.440
2020/01/31 22:46:07.2	86.610	0.060	-0.140	-0.480
2020/01/31 22:46:07.3	86.670	0.090	-0.170	-0.520
2020/01/31 22:46:07.4	86.740	0.120	-0.200	-0.560
2020/01/31 22:46:07.5	86.800	0.150	-0.220	-0.600
2020/01/31 22:46:07.6	86.870	0.190	-0.250	-0.640
2020/01/31 22:46:07.7	86.930	0.220	-0.270	-0.680
2020/01/31 22:46:07.8	87.000	0.250	-0.290	-0.710
2020/01/31 22:46:07.9	87.060	0.280	-0.320	-0.750
2020/01/31 22:46:08.0	87.140	0.310	-0.340	-0.780
2020/01/31 22:46:08.1	87.200	0.340	-0.360	-0.810
2020/01/31 22:46:08.2	87.260	0.360	-0.380	-0.830
2020/01/31 22:46:08.3	87.320	0.390	-0.390	-0.860
2020/01/31 22:46:08.4	87.380	0.410	-0.410	-0.880
2020/01/31 22:46:08.5	87.440	0.430	-0.420	-0.900
2020/01/31 22:46:08.6	87.500	0.450	-0.440	-0.910
2020/01/31 22:46:08.7	87.550	0.470	-0.450	-0.920
2020/01/31 22:46:08.8	87.610	0.490	-0.460	-0.920
2020/01/31 22:46:08.9	87.660	0.500	-0.470	-0.920
2020/01/31 22:46:09.0	87.720	0.520	-0.480	-0.920
2020/01/31 22:46:09.1	87.770	0.530	-0.490	-0.910
2020/01/31 22:46:09.2	87.830	0.540	-0.490	-0.890
2020/01/31 22:46:09.3	87.880	0.550	-0.500	-0.880
2020/01/31 22:46:09.4	87.930	0.550	-0.500	-0.850
2020/01/31 22:46:09.5	87.990	0.550	-0.510	-0.830
2020/01/31 22:46:09.6	88.040	0.560	-0.510	-0.800
2020/01/31 22:46:09.7	88.090	0.560	-0.510	-0.760
2020/01/31 22:46:09.8	88.140	0.550	-0.500	-0.720
2020/01/31 22:46:09.9	88.200	0.550	-0.500	-0.680
2020/01/31 22:46:10.0	88.250	0.540	-0.490	-0.630
2020/01/31 22:46:10.1	88.300	0.540	-0.490	-0.580
2020/01/31 22:46:10.2	88.350	0.520	-0.480	-0.520
2020/01/31 22:46:10.3	88.400	0.510	-0.460	-0.470
2020/01/31 22:46:10.4	88.450	0.500	-0.450	-0.410
2020/01/31 22:46:10.5	88.500	0.480	-0.430	-0.350
2020/01/31 22:46:10.6	88.540	0.460	-0.410	-0.290
2020/01/31 22:46:10.7	88.590	0.440	-0.390	-0.230
2020/01/31 22:46:10.8	88.630	0.410	-0.370	-0.170
2020/01/31 22:46:10.9	88.670	0.380	-0.340	-0.110
2020/01/31 22:46:11.0	88.720	0.350	-0.320	-0.040
2020/01/31 22:46:11.1	88.750	0.320	-0.290	0.010
2020/01/31 22:46:11.2	88.790	0.280	-0.250	0.070
2020/01/31 22:46:11.3	88.820	0.240	-0.220	0.120
2020/01/31 22:46:11.4	88.850	0.200	-0.180	0.170
2020/01/31 22:46:11.5	88.880	0.160	-0.140	0.220
2020/01/31 22:46:11.6	88.910	0.110	-0.100	0.270
2020/01/31 22:46:11.7	88.930	0.060	-0.050	0.310
2020/01/31 22:46:11.8	88.950	0.010	-0.010	0.350
2020/01/31 22:46:11.9	88.970	-0.040	0.040	0.390
2020/01/31 22:46:12.0	88.990	-0.090	0.090	0.430
2020/01/31 22:46:12.1	89.000	-0.140	0.140	0.460
2020/01/31 22:46:12.2	89.010	-0.200	0.190	0.500
2020/01/31 22:46:12.3	89.020	-0.260	0.250	0.530
2020/01/31 22:46:12.4	89.020	-0.310	0.300	0.560
2020/01/31 22:46:12.5	89.020	-0.370	0.360	0.600
2020/01/31 22:46:12.6	89.010	-0.430	0.410	0.630
2020/01/31 22:46:12.7	89.000	-0.490	0.470	0.660
2020/01/31 22:46:12.8	88.990	-0.540	0.520	0.690
2020/01/31 22:46:12.9	88.980	-0.600	0.570	0.720
2020/01/31 22:46:13.0	88.960	-0.660	0.620	0.750
2020/01/31 22:46:13.1	88.940	-0.710	0.670	0.770
2020/01/31 22:46:13.2	88.920	-0.760	0.710	0.790
2020/01/31 22:46:13.3	88.900	-0.810	0.750	0.810
2020/01/31 22:46:13.4	88.890	-0.850	0.780	0.830
2020/01/31 22:46:13.5	88.870	-0.890	0.800	0.840
2020/01/31 22:46:13.6	88.850	-0.930	0.820	0.850
2020/01/31 22:46:13.7	88.840	-0.960	0.830	0.860
2020/01/31 22:46:13.8	88.830	-0.990	0.830	0.860
2020/01/31 22:46:13.9	88.830	-1.010	0.810	0.850
2020/01/31 22:46:14.0	88.820	-1.030	0.790	0.840
2020/01/31 22:46:14.1	88.820	-1.040	0.750	0.820
2020/01/31 22:46:14.2	88.830	-1.040	0.710	0.800
2020/01/31 22:46:14.3	88.850	-1.040	0.650	0.780
2020/01/31 22:46:14.4	88.870	-1.020	0.580	0.740
2020/01/31 22:46:14.5	88.890	-1.000	0.500	0.700
2020/01/31 22:46:14.6	88.920	-0.980	0.410	0.660
2020/01/31 22:46:14.7	88.960	-0.940	0.300	0.600
2020/01/31 22:46:14.8	89.010	-0.900	0.190	0.550
2020/01/31 22:46:14.9	89.060	-0.850	0.060	0.480
2020/01/31 22:46:15.0	89.110	-0.800	-0.070	0.420
2020/01/31 22:46:15.1	89.180	-0.730	-0.220	0.340
2020/01/31 22:46:15.2	89.240	-0.660	-0.360	0.270
2020/01/31 22:46:15.3	89.320	-0.590	-0.520	0.190
2020/01/31 22:46:15.4	89.390	-0.510	-0.670	0.110
2020/01/31 22:46:15.5	89.470	-0.420	-0.830	0.020
2020/01/31 22:46:15.6	89.560	-0.340	-0.980	-0.060
2020/01/31 22:46:15.7	89.640	-0.250	-1.130	-0.150
2020/01/31 22:46:15.8	89.730	-0.150	-1.280	-0.230
2020/01/31 22:46:15.9	89.820	-0.060	-1.420	-0.310
2020/01/31 22:46:16.0	89.920	0.030	-1.550	-0.390
2020/01/31 22:46:16.1	90.000	0.130	-1.670	-0.460
2020/01/31 22:46:16.2	90.090	0.220	-1.780	-0.530
2020/01/31 22:46:16.3	90.170	0.310	-1.870	-0.590
2020/01/31 22:46:16.4	90.260	0.390	-1.950	-0.640
2020/01/31 22:46:16.5	90.330	0.470	-2.010	-0.690
2020/01/31 22:46:16.6	90.410	0.540	-2.050	-0.730
2020/01/31 22:46:16.7	90.480	0.610	-2.080	-0.760
2020/01/31 22:46:16.8	90.550	0.670	-2.080	-0.780
2020/01/31 22:46:16.9	90.620	0.720	-2.060	-0.800
2020/01/31 22:46:17.0	90.680	0.770	-2.030	-0.800
2020/01/31 22:46:17.1	90.730	0.810	-1.970	-0.800
2020/01/31 22:46:17.2	90.790	0.830	-1.900	-0.790
2020/01/31 22:46:17.3	90.830	0.850	-1.800	-0.780
2020/01/31 22:46:17.4	90.880	0.860	-1.690	-0.760
2020/01/31 22:46:17.5	90.920	0.860	-1.560	-0.730
2020/01/31 22:46:17.6	90.950	0.850	-1.420	-0.700
2020/01/31 22:46:17.7	90.980	0.830	-1.260	-0.660
2020/01/31 22:46:17.8	91.010	0.800	-1.090	-0.620
2020/01/31 22:46:17.9	91.030	0.760	-0.910	-0.580
2020/01/31 22:46:18.0	91.040	0.720	-0.710	-0.530
2020/01/31 22:46:18.1	91.060	0.660	-0.520	-0.470
2020/01/31 22:46:18.2	91.080	0.600	-0.320	-0.420
2020/01/31 22:46:18.3	91.090	0.530	-0.110	-0.370
2020/01/31 22:46:18.4	91.100	0.460	0.090	-0.310
2020/01/31 22:46:18.5	91.100	0.380	0.290	-0.260
2020/01/31 22:46:18.6	91.110	0.300	0.480	-0.210
2020/01/31 22:46:18.7	91.110	0.210	0.670	-0.150
2020/01/31 22:46:18.8	91.120	0.120	0.850	-0.100
2020/01/31 22:46:18.9	91.120	0.030	1.020	-0.050
2020/01/31 22:46:19.0	91.120	-0.060	1.180	-0.000
2020/01/31 22:46:19.1	91.120	-0.150	1.330	0.040
2020/01/31 22:46:19.2	91.130	-0.240	1.460	0.090
2020/01/31 22:46:19.3	91.130	-0.320	1.580	0.130
2020/01/31 22:46:19.4	91.130	-0.410	1.680	0.160
2020/01/31 22:46:19.5	91.130	-0.490	1.760	0.190
2020/01/31 22:46:19.6	91.130	-0.560	1.820	0.220
2020/01/31 22:46:19.7	91.140	-0.630	1.870	0.230
2020/01/31 22:46:19.8	91.150	-0.690	1.890	0.250
2020/01/31 22:46:19.9	91.150	-0.750	1.900	0.250
2020/01/31 22:46:20.0	91.160	-0.800	1.890	0.260
2020/01/31 22:46:20.1	91.170	-0.840	1.860	0.250
2020/01/31 22:46:20.2	91.190	-0.870	1.800	0.240
2020/01/31 22:46:20.3	91.210	-0.890	1.730	0.220
2020/01/31 22:46:20.4	91.230	-0.900	1.640	0.190
2020/01/31 22:46:20.5	91.260	-0.910	1.530	0.160
2020/01/31 22:46:20.6	91.290	-0.900	1.400	0.120
2020/01/31 22:46:20.7	91.320	-0.880	1.260	0.080
2020/01/31 22:46:20.8	91.350	-0.850	1.100	0.040
2020/01/31 22:46:20.9	91.390	-0.810	0.930	-0.010
2020/01/31 22:46:21.0	91.430	-0.770	0.740	-0.070
2020/01/31 22:46:21.1	91.470	-0.710	0.540	-0.130
2020/01/31 22:46:21.2	91.520	-0.640	0.340	-0.180
2020/01/31 22:46:21.3	91.570	-0.570	0.130	-0.240
2020/01/31 22:46:21.4	91.620	-0.490	-0.090	-0.300
2020/01/31 22:46:21.5	91.670	-0.400	-0.310	-0.350
2020/01/31 22:46:21.6	91.730	-0.310	-0.520	-0.410
2020/01/31 22:46:21.7	91.780	-0.210	-0.740	-0.460
2020/01/31 22:46:21.8	91.840	-0.110	-0.950	-0.520
2020/01/31 22:46:21.9	91.900	-0.010	-1.150	-0.560
2020/01/31 22:46:22.0	91.960	0.090	-1.350	-0.610
2020/01/31 22:46:22.1	92.020	0.190	-1.530	-0.640
2020/01/31 22:46:22.2	92.080	0.300	-1.700	-0.680
2020/01/31 22:46:22.3	92.130	0.400	-1.860	-0.710
2020/01/31 22:46:22.4	92.190	0.490	-2.000	-0.730
2020/01/31 22:46:22.5	92.250	0.580	-2.120	-0.750
2020/01/31 22:46:22.6	92.300	0.670	-2.220	-0.760
2020/01/31 22:46:22.7	92.350	0.750	-2.300	-0.760
2020/01/31 22:46:22.8	92.410	0.820	-2.360	-0.760
2020/01/31 22:46:22.9	92.460	0.890	-2.400	-0.760
2020/01/31 22:46:23.0	92.510	0.950	-2.410	-0.750
2020/01/31 22:46:23.1	92.560	0.990	-2.410	-0.740
2020/01/31 22:46:23.2	92.600	1.030	-2.380	-0.720
2020/01/31 22:46:23.3	92.650	1.060	-2.340	-0.700
2020/01/31 22:46:23.4	92.690	1.080	-2.270	-0.670
2020/01/31 22:46:23.5	92.730	1.090	-2.190	-0.640
2020/01/31 22:46:23.6	92.770	1.080	-2.080	-0.610
2020/01/31 22:46:23.7	92.800	1.070	-1.970	-0.580
2020/01/31 22:46:23.8	92.840	1.050	-1.830	-0.540
2020/01/31 22:46:23.9	92.870	1.020	-1.690	-0.500
2020/01/31 22:46:24.0	92.910	0.980	-1.520	-0.450
2020/01/31 22:46:24.1	92.940	0.930	-1.360	-0.410
2020/01/31 22:46:24.2	92.970	0.880	-1.180	-0.360
2020/01/31 22:46:24.3	92.990	0.820	-1.010	-0.310
2020/01/31 22:46:24.4	93.020	0.750	-0.820	-0.270
2020/01/31 22:46:24.5	93.050	0.680	-0.640	-0.220
2020/01/31 22:46:24.6	93.080	0.600	-0.450	-0.170
2020/01/31 22:46:24.7	93.110	0.520	-0.270	-0.120
2020/01/31 22:46:24.8	93.140	0.430	-0.090	-0.080
2020/01/31 22:46:24.9	93.170	0.340	0.090	-0.030
2020/01/31 22:46:25.0	93.190	0.250	0.250	0.010
2020/01/31 22:46:25.1	93.220	0.170	0.410	0.060
2020/01/31 22:46:25.2	93.250	0.080	0.570	0.100
2020/01/31 22:46:25.3	93.290	-0.010	0.710	0.130
2020/01/31 22:46:25.4	93.320	-0.100	0.850	0.170
2020/01/31 22:46:25.5	93.360	-0.190	0.970	0.200
2020/01/31 22:46:25.6	93.400	-0.270	1.080	0.240
2020/01/31 22:46:25.7	93.440	-0.350	1.190	0.260
2020/01/31 22:46:25.8	93.470	-0.430	1.280	0.290
2020/01/31 22:46:25.9	93.510	-0.500	1.350	0.310
2020/01/31 22:46:26.0	93.570	-0.570	1.430	0.340
2020/01/31 22:46:26.1	93.610	-0.630	1.480	0.350
2020/01/31 22:46:26.2	93.650	-0.690	1.520	0.370
2020/01/31 22:46:26.3	93.690	-0.740	1.550	0.380
2020/01/31 22:46:26.4	93.720	-0.790	1.570	0.390
2020/01/31 22:46:26.5	93.760	-0.830	1.570	0.390
2020/01/31 22:46:26.6	93.800	-0.870	1.570	0.400
2020/01/31 22:46:26.7	93.840	-0.900	1.550	0.400
2020/01/31 22:46:26.8	93.870	-0.930	1.520	0.400
2020/01/31 22:46:26.9	93.900	-0.950	1.480	0.400
2020/01/31 22:46:27.0	93.930	-0.960	1.430	0.390
2020/01/31 22:46:27.1	93.960	-0.970	1.370	0.380
2020/01/31 22:46:27.2	93.990	-0.970	1.300	0.370
2020/01/31 22:46:27.3	94.020	-0.970	1.230	0.350
2020/01/31 22:46:27.4	94.050	-0.960	1.140	0.340
2020/01/31 22:46:27.5	94.080	-0.940	1.050	0.320
2020/01/31 22:46:27.6	94.110	-0.920	0.960	0.290
2020/01/31 22:46:27.7	94.140	-0.900	0.850	0.270
2020/01/31 22:46:27.8	94.160	-0.870	0.740	0.240
2020/01/31 22:46:27.9	94.190	-0.830	0.630	0.220
2020/01/31 22:46:28.0	94.220	-0.790	0.510	0.190
2020/01/31 22:46:28.1	94.250	-0.750	0.390	0.160
2020/01/31 22:46:28.2	94.280	-0.710	0.270	0.120
2020/01/31 22:46:28.3	94.310	-0.660	0.150	0.090
2020/01/31 22:46:28.4	94.350	-0.610	0.030	0.060
2020/01/31 22:46:28.5	94.390	-0.550	-0.090	0.020
2020/01/31 22:46:28.6	94.430	-0.500	-0.210	-0.020
2020/01/31 22:46:28.7	94.470	-0.440	-0.330	-0.050
2020/01/31 22:46:28.8	94.510	-0.380	-0.450	-0.090
2020/01/31 22:46:28.9	94.560	-0.320	-0.560	-0.120
2020/01/31 22:46:29.0	94.590	-0.260	-0.660	-0.160
2020/01/31 22:46:29.1	94.640	-0.200	-0.770	-0.190
2020/01/31 22:46:29.2	94.700	-0.140	-0.860	-0.220
2020/01/31 22:46:29.3	94.750	-0.080	-0.950	-0.260
2020/01/31 22:46:29.4	94.810	-0.020	-1.030	-0.290
2020/01/31 22:46:29.5	94.870	0.040	-1.110	-0.320
2020/01/31 22:46:29.6	94.930	0.100	-1.170	-0.350
2020/01/31 22:46:29.7	94.990	0.160	-1.230	-0.380
2020/01/31 22:46:29.8	95.060	0.210	-1.290	-0.400
2020/01/31 22:46:29.9	95.120	0.260	-1.330	-0.420
2020/01/31 22:46:30.0	95.190	0.310	-1.370	-0.450
2020/01/31 22:46:30.1	95.260	0.360	-1.390	-0.470
2020/01/31 22:46:30.2	95.320	0.400	-1.410	-0.480
2020/01/31 22:46:30.3	95.390	0.440	-1.420	-0.500
2020/01/31 22:46:30.4	95.460	0.470	-1.420	-0.510
2020/01/31 22:46:30.5	95.520	0.510	-1.410	-0.520
2020/01/31 22:46:30.6	95.590	0.530	-1.390	-0.530
2020/01/31 22:46:30.7	95.650	0.560	-1.370	-0.530
2020/01/31 22:46:30.8	95.700	0.580	-1.330	-0.530
2020/01/31 22:46:30.9	95.760	0.590	-1.290	-0.530
2020/01/31 22:46:31.0	95.810	0.600	-1.250	-0.520
2020/01/31 22:46:31.1	95.850	0.600	-1.190	-0.520
2020/01/31 22:46:31.2	95.900	0.610	-1.140	-0.510
2020/01/31 22:46:31.3	95.930	0.600	-1.070	-0.500
2020/01/31 22:46:31.4	95.970	0.590	-1.000	-0.490
2020/01/31 22:46:31.5	95.990	0.580	-0.930	-0.480
2020/01/31 22:46:31.6	96.020	0.570	-0.850	-0.470
2020/01/31 22:46:31.7	96.040	0.550	-0.770	-0.450
2020/01/31 22:46:31.8	96.050	0.520	-0.690	-0.430
2020/01/31 22:46:31.9	96.070	0.500	-0.600	-0.410
2020/01/31 22:46:32.0	96.060	0.470	-0.520	-0.390
2020/01/31 22:46:32.1	96.060	0.440	-0.440	-0.360
2020/01/31 22:46:32.2	96.070	0.410	-0.350	-0.340
2020/01/31 22:46:32.3	96.070	0.370	-0.270	-0.310
2020/01/31 22:46:32.4	96.060	0.330	-0.180	-0.290
2020/01/31 22:46:32.5	96.060	0.300	-0.100	-0.260
2020/01/31 22:46:32.6	96.060	0.260	-0.030	-0.240
2020/01/31 22:46:32.7	96.050	0.220	0.050	-0.210
2020/01/31 22:46:32.8	96.050	0.180	0.120	-0.190
2020/01/31 22:46:32.9	96.040	0.150	0.180	-0.160
2020/01/31 22:46:33.0	96.030	0.110	0.240	-0.130
2020/01/31 22:46:33.1	96.030	0.080	0.300	-0.110
2020/01/31 22:46:33.2	96.030	0.040	0.340	-0.090
2020/01/31 22:46:33.3	96.030	0.010	0.380	-0.070
2020/01/31 22:46:33.4	96.030	-0.020	0.410	-0.050
2020/01/31 22:46:33.5	96.030	-0.040	0.430	-0.030
2020/01/31 22:46:33.6	96.030	-0.070	0.450	-0.010
2020/01/31 22:46:33.7	96.040	-0.080	0.450	-0.000
2020/01/31 22:46:33.8	96.050	-0.100	0.450	0.010
2020/01/31 22:46:33.9	96.060	-0.110	0.430	0.020
2020/01/31 22:46:34.0	96.070	-0.120	0.410	0.030
2020/01/31 22:46:34.1	96.080	-0.120	0.380	0.030
2020/01/31 22:46:34.2	96.100	-0.120	0.340	0.030
2020/01/31 22:46:34.3	96.120	-0.120	0.290	0.030
2020/01/31 22:46:34.4	96.150	-0.110	0.230	0.020
2020/01/31 22:46:34.5	96.180	-0.100	0.170	0.020
2020/01/31 22:46:34.6	96.210	-0.080	0.100	0.010
2020/01/31 22:46:34.7	96.240	-0.060	0.030	-0.010
2020/01/31 22:46:34.8	96.270	-0.040	-0.050	-0.020
2020/01/31 22:46:34.9	96.310	-0.020	-0.120	-0.040
2020/01/31 22:46:35.0	96.350	0.010	-0.200	-0.060
2020/01/31 22:46:35.1	96.390	0.030	-0.280	-0.080
2020/01/31 22:46:35.2	96.430	0.060	-0.360	-0.100
2020/01/31 22:46:35.3	96.470	0.090	-0.440	-0.120
2020/01/31 22:46:35.4	96.520	0.120	-0.510	-0.140
2020/01/31 22:46:35.5	96.560	0.140	-0.570	-0.170
2020/01/31 22:46:35.6	96.600	0.170	-0.630	-0.190
2020/01/31 22:46:35.7	96.650	0.190	-0.690	-0.210
2020/01/31 22:46:35.8	96.690	0.210	-0.730	-0.230
2020/01/31 22:46:35.9	96.730	0.220	-0.760	-0.250
2020/01/31 22:46:36.0	96.760	0.230	-0.780	-0.270
2020/01/31 22:46:36.1	96.810	0.240	-0.790	-0.290
2020/01/31 22:46:36.2	96.850	0.240	-0.790	-0.310
2020/01/31 22:46:36.3	96.890	0.240	-0.770	-0.330
2020/01/31 22:46:36.4	96.930	0.230	-0.750	-0.350
2020/01/31 22:46:36.5	96.970	0.220	-0.710	-0.370
2020/01/31 22:46:36.6	97.010	0.200	-0.650	-0.390
2020/01/31 22:46:36.7	97.050	0.180	-0.590	-0.410
2020/01/31 22:46:36.8	97.090	0.150	-0.520	-0.430
2020/01/31 22:46:36.9	97.130	0.120	-0.440	-0.440
2020/01/31 22:46:37.0	97.170	0.080	-0.340	-0.460
2020/01/31 22:46:37.1	97.210	0.040	-0.240	-0.470
2020/01/31 22:46:37.2	97.250	-0.010	-0.140	-0.480
2020/01/31 22:46:37.3	97.280	-0.060	-0.030	-0.490
2020/01/31 22:46:37.4	97.320	-0.120	0.090	-0.500
2020/01/31 22:46:37.5	97.360	-0.170	0.210	-0.500
2020/01/31 22:46:37.6	97.390	-0.230	0.320	-0.500
2020/01/31 22:46:37.7	97.420	-0.290	0.440	-0.500
2020/01/31 22:46:37.8	97.460	-0.350	0.550	-0.490
2020/01/31 22:46:37.9	97.490	-0.410	0.660	-0.480
2020/01/31 22:46:38.0	97.530	-0.470	0.760	-0.470
2020/01/31 22:46:38.1	97.560	-0.530	0.860	-0.460
2020/01/31 22:46:38.2	97.590	-0.590	0.940	-0.440
2020/01/31 22:46:38.3	97.620	-0.640	1.010	-0.420
2020/01/31 22:46:38.4	97.650	-0.690	1.070	-0.400
2020/01/31 22:46:38.5	97.680	-0.730	1.120	-0.370
2020/01/31 22:46:38.6	97.710	-0.770	1.150	-0.350
2020/01/31 22:46:38.7	97.740	-0.800	1.160	-0.320
2020/01/31 22:46:38.8	97.760	-0.830	1.160	-0.290
2020/01/31 22:46:38.9	97.790	-0.840	1.140	-0.260
2020/01/31 22:46:39.0	97.820	-0.850	1.100	-0.230
2020/01/31 22:46:39.1	97.850	-0.850	1.040	-0.200
2020/01/31 22:46:39.2	97.880	-0.840	0.960	-0.170
2020/01/31 22:46:39.3	97.910	-0.820	0.860	-0.130
2020/01/31 22:46:39.4	97.930	-0.790	0.750	-0.100
2020/01/31 22:46:39.5	97.960	-0.750	0.620	-0.070
2020/01/31 22:46:39.6	98.000	-0.710	0.480	-0.040
2020/01/31 22:46:39.7	98.030	-0.650	0.320	-0.020
2020/01/31 22:46:39.8	98.060	-0.590	0.160	0.010
2020/01/31 22:46:39.9	98.090	-0.520	-0.020	0.040
2020/01/31 22:46:40.0	98.130	-0.440	-0.210	0.070
2020/01/31 22:46:40.1	98.170	-0.360	-0.400	0.090
2020/01/31 22:46:40.2	98.200	-0.270	-0.590	0.110
2020/01/31 22:46:40.3	98.240	-0.180	-0.780	0.140
2020/01/31 22:46:40.4	98.270	-0.080	-0.970	0.160
2020/01/31 22:46:40.5	98.310	0.020	-1.160	0.180
2020/01/31 22:46:40.6	98.340	0.120	-1.340	0.200
2020/01/31 22:46:40.7	98.370	0.220	-1.510	0.230
2020/01/31 22:46:40.8	98.400	0.310	-1.670	0.250
2020/01/31 22:46:40.9	98.430	0.410	-1.810	0.270
2020/01/31 22:46:41.0	98.450	0.500	-1.940	0.290
2020/01/31 22:46:41.1	98.480	0.580	-2.050	0.310
2020/01/31 22:46:41.2	98.500	0.660	-2.140	0.330
2020/01/31 22:46:41.3	98.520	0.730	-2.210	0.350
2020/01/31 22:46:41.4	98.530	0.790	-2.250	0.370
2020/01/31 22:46:41.5	98.550	0.850	-2.280	0.390
2020/01/31 22:46:41.6	98.560	0.900	-2.280	0.410
2020/01/31 22:46:41.7	98.580	0.930	-2.260	0.430
2020/01/31 22:46:41.8	98.590	0.960	-2.210	0.440
2020/01/31 22:46:41.9	98.600	0.980	-2.150	0.460
2020/01/31 22:46:42.0	98.610	0.980	-2.060	0.480
2020/01/31 22:46:42.1	98.610	0.980	-1.960	0.490
2020/01/31 22:46:42.2	98.620	0.960	-1.830	0.510
2020/01/31 22:46:42.3	98.630	0.940	-1.690	0.520
2020/01/31 22:46:42.4	98.630	0.910	-1.530	0.530
2020/01/31 22:46:42.5	98.640	0.860	-1.360	0.540
2020/01/31 22:46:42.6	98.650	0.810	-1.170	0.550
2020/01/31 22:46:42.7	98.650	0.750	-0.970	0.560
2020/01/31 22:46:42.8	98.660	0.680	-0.760	0.570
2020/01/31 22:46:42.9	98.660	0.610	-0.550	0.580
2020/01/31 22:46:43.0	98.660	0.530	-0.320	0.590
2020/01/31 22:46:43.1	98.670	0.450	-0.100	0.590
2020/01/31 22:46:43.2	98.670	0.360	0.120	0.590
2020/01/31 22:46:43.3	98.680	0.270	0.340	0.590
2020/01/31 22:46:43.4	98.700	0.180	0.560	0.590
2020/01/31 22:46:43.5	98.710	0.090	0.770	0.580
2020/01/31 22:46:43.6	98.730	-0.000	0.970	0.560
2020/01/31 22:46:43.7	98.740	-0.090	1.160	0.550
2020/01/31 22:46:43.8	98.760	-0.180	1.340	0.520
2020/01/31 22:46:43.9	98.780	-0.260	1.500	0.500
2020/01/31 22:46:44.0	98.820	-0.340	1.650	0.470
2020/01/31 22:46:44.1	98.840	-0.420	1.780	0.430
2020/01/31 22:46:44.2	98.870	-0.480	1.890	0.390
2020/01/31 22:46:44.3	98.900	-0.540	1.990	0.350
2020/01/31 22:46:44.4	98.930	-0.600	2.060	0.300
2020/01/31 22:46:44.5	98.970	-0.640	2.110	0.240
2020/01/31 22:46:44.6	99.000	-0.680	2.140	0.190
2020/01/31 22:46:44.7	99.040	-0.700	2.140	0.130
2020/01/31 22:46:44.8	99.070	-0.720	2.120	0.060
2020/01/31 22:46:44.9	99.110	-0.730	2.080	-0.000
2020/01/31 22:46:45.0	99.160	-0.730	2.020	-0.070
2020/01/31 22:46:45.1	99.200	-0.720	1.940	-0.140
2020/01/31 22:46:45.2	99.240	-0.690	1.840	-0.210
2020/01/31 22:46:45.3	99.280	-0.660	1.720	-0.280
2020/01/31 22:46:45.4	99.320	-0.630	1.580	-0.360
2020/01/31 22:46:45.5	99.370	-0.580	1.420	-0.430
2020/01/31 22:46:45.6	99.410	-0.530	1.250	-0.510
2020/01/31 22:46:45.7	99.460	-0.470	1.070	-0.580
2020/01/31 22:46:45.8	99.500	-0.400	0.880	-0.650
2020/01/31 22:46:45.9	99.550	-0.330	0.690	-0.730
2020/01/31 22:46:46.0	99.600	-0.260	0.480	-0.800
2020/01/31 22:46:46.1	99.650	-0.180	0.280	-0.860
2020/01/31 22:46:46.2	99.700	-0.100	0.070	-0.930
2020/01/31 22:46:46.3	99.750	-0.030	-0.130	-0.990
2020/01/31 22:46:46.4	99.810	0.050	-0.330	-1.040
2020/01/31 22:46:46.5	99.860	0.130	-0.520	-1.090
2020/01/31 22:46:46.6	99.920	0.210	-0.710	-1.140
2020/01/31 22:46:46.7	99.970	0.280	-0.880	-1.180
2020/01/31 22:46:46.8	100.030	0.350	-1.050	-1.210
2020/01/31 22:46:46.9	100.090	0.420	-1.200	-1.240
2020/01/31 22:46:47.0	100.140	0.480	-1.340	-1.270
2020/01/31 22:46:47.1	100.200	0.530	-1.460	-1.280
2020/01/31 22:46:47.2	100.250	0.580	-1.560	-1.290
2020/01/31 22:46:47.3	100.300	0.620	-1.650	-1.290
2020/01/31 22:46:47.4	100.350	0.660	-1.730	-1.280
2020/01/31 22:46:47.5	100.400	0.680	-1.780	-1.270
2020/01/31 22:46:47.6	100.450	0.700	-1.820	-1.250
2020/01/31 22:46:47.7	100.500	0.720	-1.840	-1.220
2020/01/31 22:46:47.8	100.540	0.720	-1.840	-1.190
2020/01/31 22:46:47.9	100.590	0.720	-1.830	-1.150
2020/01/31 22:46:48.0	100.640	0.710	-1.800	-1.100
2020/01/31 22:46:48.1	100.680	0.700	-1.760	-1.050
2020/01/31 22:46:48.2	100.720	0.680	-1.710	-1.000
2020/01/31 22:46:48.3	100.750	0.650	-1.640	-0.940
2020/01/31 22:46:48.4	100.790	0.620	-1.560	-0.870
2020/01/31 22:46:48.5	100.820	0.580	-1.470	-0.810
2020/01/31 22:46:48.6	100.850	0.540	-1.370	-0.730
2020/01/31 22:46:48.7	100.880	0.490	-1.270	-0.660
2020/01/31 22:46:48.8	100.910	0.440	-1.160	-0.580
2020/01/31 22:46:48.9	100.940	0.390	-1.040	-0.510
2020/01/31 22:46:49.0	100.970	0.340	-0.920	-0.420
2020/01/31 22:46:49.1	100.990	0.290	-0.810	-0.340
2020/01/31 22:46:49.2	101.020	0.230	-0.690	-0.260
2020/01/31 22:46:49.3	101.050	0.180	-0.570	-0.180
2020/01/31 22:46:49.4	101.070	0.120	-0.460	-0.100
2020/01/31 22:46:49.5	101.100	0.070	-0.350	-0.030
2020/01/31 22:46:49.6	101.130	0.020	-0.240	0.050
2020/01/31 22:46:49.7	101.150	-0.030	-0.140	0.130
2020/01/31 22:46:49.8	101.170	-0.080	-0.040	0.200
2020/01/31 22:46:49.9	101.200	-0.120	0.040	0.280
2020/01/31 22:46:50.0	101.220	-0.160	0.120	0.350
2020/01/31 22:46:50.1	101.240	-0.200	0.190	0.420
2020/01/31 22:46:50.2	101.260	-0.230	0.260	0.490
2020/01/31 22:46:50.3	101.280	-0.260	0.310	0.550
2020/01/31 22:46:50.4	101.300	-0.290	0.360	0.620
2020/01/31 22:46:50.5	101.320	-0.310	0.400	0.680
2020/01/31 22:46:50.6	101.340	-0.330	0.430	0.740
2020/01/31 22:46:50.7	101.360	-0.340	0.440	0.800
2020/01/31 22:46:50.8	101.380	-0.350	0.460	0.850
2020/01/31 22:46:50.9	101.400	-0.360	0.460	0.900
2020/01/31 22:46:51.0	101.420	-0.360	0.450	0.950
2020/01/31 22:46:51.1	101.440	-0.360	0.440	0.990
2020/01/31 22:46:51.2	101.460	-0.350	0.420	1.030
2020/01/31 22:46:51.3	101.480	-0.340	0.390	1.070
2020/01/31 22:46:51.4	101.500	-0.330	0.350	1.090
2020/01/31 22:46:51.5	101.520	-0.310	0.300	1.120
2020/01/31 22:46:51.6	101.540	-0.290	0.260	1.130
2020/01/31 22:46:51.7	101.570	-0.270	0.200	1.150
2020/01/31 22:46:51.8	101.600	-0.240	0.150	1.150
2020/01/31 22:46:51.9	101.630	-0.220	0.080	1.150
2020/01/31 22:46:52.0	101.650	-0.190	0.020	1.150
2020/01/31 22:46:52.1	101.680	-0.160	-0.050	1.140
2020/01/31 22:46:52.2	101.720	-0.130	-0.110	1.130
2020/01/31 22:46:52.3	101.760	-0.100	-0.180	1.110
2020/01/31 22:46:52.4	101.800	-0.070	-0.240	1.100
2020/01/31 22:46:52.5	101.840	-0.040	-0.300	1.070
2020/01/31 22:46:52.6	101.890	-0.010	-0.360	1.050
2020/01/31 22:46:52.7	101.930	0.020	-0.410	1.020
2020/01/31 22:46:52.8	101.980	0.050	-0.460	0.990
2020/01/31 22:46:52.9	102.030	0.080	-0.500	0.960
2020/01/31 22:46:53.0	102.090	0.110	-0.540	0.930
2020/01/31 22:46:53.1	102.150	0.130	-0.570	0.890
2020/01/31 22:46:53.2	102.200	0.150	-0.600	0.860
2020/01/31 22:46:53.3	102.260	0.170	-0.620	0.820
2020/01/31 22:46:53.4	102.310	0.190	-0.630	0.780
2020/01/31 22:46:53.5	102.370	0.200	-0.640	0.750
2020/01/31 22:46:53.6	102.420	0.210	-0.640	0.710
2020/01/31 22:46:53.7	102.480	0.220	-0.630	0.680
2020/01/31 22:46:53.8	102.530	0.220	-0.620	0.640
2020/01/31 22:46:53.9	102.590	0.220	-0.600	0.610
2020/01/31 22:46:54.0	102.640	0.220	-0.580	0.580
2020/01/31 22:46:54.1	102.690	0.220	-0.540	0.550
2020/01/31 22:46:54.2	102.740	0.210	-0.510	0.510
2020/01/31 22:46:54.3	102.790	0.200	-0.470	0.490
2020/01/31 22:46:54.4	102.840	0.180	-0.430	0.460
2020/01/31 22:46:54.5	102.880	0.160	-0.380	0.430
2020/01/31 22:46:54.6	102.930	0.150	-0.330	0.410
2020/01/31 22:46:54.7	102.970	0.120	-0.280	0.380
2020/01/31 22:46:54.8	103.010	0.100	-0.230	0.360
2020/01/31 22:46:54.9	103.050	0.070	-0.180	0.330
2020/01/31 22:46:55.0	103.090	0.050	-0.130	0.310
2020/01/31 22:46:55.1	103.120	0.020	-0.070	0.280
2020/01/31 22:46:55.2	103.160	-0.020	-0.020	0.260
2020/01/31 22:46:55.3	103.200	-0.050	0.030	0.230
2020/01/31 22:46:55.4	103.230	-0.080	0.090	0.200
2020/01/31 22:46:55.5	103.260	-0.110	0.140	0.180
2020/01/31 22:46:55.6	103.300	-0.150	0.190	0.150
2020/01/31 22:46:55.7	103.330	-0.180	0.240	0.120
2020/01/31 22:46:55.8	103.360	-0.210	0.280	0.090
2020/01/31 22:46:55.9	103.390	-0.250	0.330	0.060
2020/01/31 22:46:56.0	103.410	-0.280	0.370	0.030
2020/01/31 22:46:56.1	103.440	-0.310	0.400	0.000
2020/01/31 22:46:56.2	103.470	-0.340	0.440	-0.030
2020/01/31 22:46:56.3	103.500	-0.370	0.470	-0.060
2020/01/31 22:46:56.4	103.530	-0.400	0.490	-0.090
2020/01/31 22:46:56.5	103.550	-0.420	0.510	-0.110
2020/01/31 22:46:56.6	103.580	-0.440	0.530	-0.140
2020/01/31 22:46:56.7	103.610	-0.460	0.540	-0.170
2020/01/31 22:46:56.8	103.640	-0.470	0.540	-0.190
2020/01/31 22:46:56.9	103.670	-0.490	0.540	-0.210
2020/01/31 22:46:57.0	103.690	-0.500	0.530	-0.240
2020/01/31 22:46:57.1	103.720	-0.500	0.510	-0.260
2020/01/31 22:46:57.2	103.750	-0.500	0.490	-0.280
2020/01/31 22:46:57.3	103.790	-0.500	0.470	-0.300
2020/01/31 22:46:57.4	103.820	-0.490	0.430	-0.310
2020/01/31 22:46:57.5	103.860	-0.480	0.390	-0.320
2020/01/31 22:46:57.6	103.900	-0.460	0.340	-0.340
2020/01/31 22:46:57.7	103.940	-0.440	0.290	-0.350
2020/01/31 22:46:57.8	103.990	-0.420	0.230	-0.360
2020/01/31 22:46:57.9	104.040	-0.390	0.160	-0.370
2020/01/31 22:46:58.0	104.090	-0.360	0.090	-0.380
2020/01/31 22:46:58.1	104.140	-0.320	0.010	-0.390
2020/01/31 22:46:58.2	104.190	-0.280	-0.070	-0.400
2020/01/31 22:46:58.3	104.250	-0.240	-0.150	-0.410
2020/01/31 22:46:58.4	104.310	-0.200	-0.240	-0.420
2020/01/31 22:46:58.5	104.370	-0.150	-0.330	-0.420
2020/01/31 22:46:58.6	104.430	-0.100	-0.420	-0.430
2020/01/31 22:46:58.7	104.490	-0.050	-0.500	-0.440
2020/01/31 22:46:58.8	104.550	-0.000	-0.590	-0.450
2020/01/31 22:46:58.9	104.610	0.050	-0.670	-0.450
2020/01/31 22:46:59.0	104.670	0.090	-0.760	-0.460
2020/01/31 22:46:59.1	104.730	0.140	-0.830	-0.460
2020/01/31 22:46:59.2	104.790	0.190	-0.900	-0.460
2020/01/31 22:46:59.3	104.850	0.230	-0.960	-0.460
2020/01/31 22:46:59.4	104.910	0.280	-1.010	-0.450
2020/01/31 22:46:59.5	104.960	0.310	-1.060	-0.450
2020/01/31 22:46:59.6	105.020	0.350	-1.090	-0.440
2020/01/31 22:46:59.7	105.070	0.380	-1.120	-0.430
2020/01/31 22:46:59.8	105.120	0.410	-1.140	-0.420
2020/01/31 22:46:59.9	105.160	0.430	-1.150	-0.410
2020/01/31 22:47:00.0	105.200	0.450	-1.150	-0.390
2020/01/31 22:47:00.1	105.240	0.460	-1.130	-0.370
2020/01/31 22:47:00.2	105.280	0.470	-1.110	-0.360
2020/01/31 22:47:00.3	105.320	0.480	-1.080	-0.340
2020/01/31 22:47:00.4	105.350	0.480	-1.050	-0.320
2020/01/31 22:47:00.5	105.380	0.480	-1.000	-0.300
2020/01/31 22:47:00.6	105.410	0.470	-0.940	-0.280
2020/01/31 22:47:00.7	105.440	0.460	-0.880	-0.260
2020/01/31 22:47:00.8	105.470	0.440	-0.810	-0.240
2020/01/31 22:47:00.9	105.490	0.430	-0.740	-0.220
2020/01/31 22:47:01.0	105.510	0.410	-0.660	-0.200
2020/01/31 22:47:01.1	105.530	0.380	-0.570	-0.180
2020/01/31 22:47:01.2	105.550	0.360	-0.480	-0.160
2020/01/31 22:47:01.3	105.570	0.330	-0.390	-0.130
2020/01/31 22:47:01.4	105.590	0.300	-0.300	-0.110
2020/01/31 22:47:01.5	105.600	0.280	-0.210	-0.080
2020/01/31 22:47:01.6	105.620	0.250	-0.110	-0.060
2020/01/31 22:47:01.7	105.640	0.220	-0.020	-0.040
2020/01/31 22:47:01.8	105.650	0.190	0.070	-0.010
2020/01/31 22:47:01.9	105.670	0.160	0.150	0.010
2020/01/31 22:47:02.0	105.700	0.140	0.240	0.040
2020/01/31 22:47:02.1	105.710	0.110	0.320	0.070
2020/01/31 22:47:02.2	105.730	0.090	0.390	0.090
2020/01/31 22:47:02.3	105.750	0.070	0.450	0.110
2020/01/31 22:47:02.4	105.760	0.060	0.510	0.130
2020/01/31 22:47:02.5	105.780	0.050	0.560	0.150
2020/01/31 22:47:02.6	105.790	0.040	0.600	0.170
2020/01/31 22:47:02.7	105.810	0.030	0.630	0.180
2020/01/31 22:47:02.8	105.830	0.030	0.650	0.190
2020/01/31 22:47:02.9	105.850	0.030	0.670	0.200
2020/01/31 22:47:03.0	105.870	0.030	0.670	0.210
2020/01/31 22:47:03.1	105.890	0.040	0.660	0.220
2020/01/31 22:47:03.2	105.910	0.050	0.650	0.220
2020/01/31 22:47:03.3	105.930	0.060	0.630	0.220
2020/01/31 22:47:03.4	105.950	0.080	0.590	0.210
2020/01/31 22:47:03.5	105.970	0.100	0.550	0.210
2020/01/31 22:47:03.6	106.000	0.120	0.500	0.190
2020/01/31 22:47:03.7	106.020	0.140	0.440	0.180
2020/01/31 22:47:03.8	106.050	0.170	0.380	0.160
2020/01/31 22:47:03.9	106.080	0.200	0.310	0.140
2020/01/31 22:47:04.0	106.120	0.220	0.230	0.110
2020/01/31 22:47:04.1	106.150	0.250	0.150	0.080
2020/01/31 22:47:04.2	106.180	0.280	0.070	0.050
2020/01/31 22:47:04.3	106.220	0.310	-0.010	0.020
2020/01/31 22:47:04.4	106.250	0.330	-0.100	-0.010
2020/01/31 22:47:04.5	106.290	0.360	-0.180	-0.050
2020/01/31 22:47:04.6	106.330	0.380	-0.270	-0.080
2020/01/31 22:47:04.7	106.370	0.400	-0.350	-0.120
2020/01/31 22:47:04.8	106.410	0.420	-0.430	-0.150
2020/01/31 22:47:04.9	106.450	0.440	-0.510	-0.180
2020/01/31 22:47:05.0	106.490	0.450	-0.580	-0.210
2020/01/31 22:47:05.1	106.530	0.460	-0.650	-0.230
2020/01/31 22:47:05.2	106.580	0.470	-0.710	-0.250
2020/01/31 22:47:05.3	106.620	0.470	-0.760	-0.270
2020/01/31 22:47:05.4	106.670	0.470	-0.800	-0.280
2020/01/31 22:47:05.5	106.720	0.460	-0.840	-0.290
2020/01/31 22:47:05.6	106.760	0.450	-0.860	-0.290
2020/01/31 22:47:05.7	106.810	0.440	-0.880	-0.290
2020/01/31 22:47:05.8	106.860	0.420	-0.890	-0.280
2020/01/31 22:47:05.9	106.910	0.390	-0.890	-0.270
2020/01/31 22:47:06.0	106.960	0.370	-0.870	-0.260
2020/01/31 22:47:06.1	107.000	0.340	-0.850	-0.240
2020/01/31 22:47:06.2	107.050	0.300	-0.830	-0.220
2020/01/31 22:47:06.3	107.100	0.260	-0.790	-0.190
2020/01/31 22:47:06.4	107.140	0.220	-0.750	-0.160
2020/01/31 22:47:06.5	107.190	0.180	-0.700	-0.130
2020/01/31 22:47:06.6	107.230	0.140	-0.650	-0.090
2020/01/31 22:47:06.7	107.270	0.090	-0.590	-0.060
2020/01/31 22:47:06.8	107.310	0.040	-0.530	-0.020
2020/01/31 22:47:06.9	107.350	-0.010	-0.470	0.020
2020/01/31 22:47:07.0	107.390	-0.050	-0.410	0.060
2020/01/31 22:47:07.1	107.420	-0.100	-0.340	0.110
2020/01/31 22:47:07.2	107.460	-0.150	-0.280	0.160
2020/01/31 22:47:07.3	107.490	-0.200	-0.220	0.200
2020/01/31 22:47:07.4	107.520	-0.240	-0.160	0.250
2020/01/31 22:47:07.5	107.550	-0.280	-0.110	0.300
2020/01/31 22:47:07.6	107.580	-0.320	-0.060	0.340
2020/01/31 22:47:07.7	107.610	-0.360	-0.010	0.390
2020/01/31 22:47:07.8	107.630	-0.400	0.030	0.430
2020/01/31 22:47:07.9	107.660	-0.430	0.060	0.480
2020/01/31 22:47:08.0	107.690	-0.450	0.090	0.520
2020/01/31 22:47:08.1	107.720	-0.480	0.100	0.560
2020/01/31 22:47:08.2	107.740	-0.500	0.120	0.600
2020/01/31 22:47:08.3	107.760	-0.510	0.120	0.630
2020/01/31 22:47:08.4	107.790	-0.520	0.120	0.660
2020/01/31 22:47:08.5	107.820	-0.530	0.110	0.690
2020/01/31 22:47:08.6	107.840	-0.530	0.100	0.710
2020/01/31 22:47:08.7	107.870	-0.530	0.080	0.730
2020/01/31 22:47:08.8	107.900	-0.520	0.050	0.750
2020/01/31 22:47:08.9	107.940	-0.510	0.020	0.760
2020/01/31 22:47:09.0	107.960	-0.500	-0.020	0.770
2020/01/31 22:47:09.1	108.000	-0.480	-0.060	0.780
2020/01/31 22:47:09.2	108.040	-0.460	-0.100	0.780
2020/01/31 22:47:09.3	108.080	-0.430	-0.140	0.780
2020/01/31 22:47:09.4	108.120	-0.410	-0.190	0.780
2020/01/31 22:47:09.5	108.160	-0.380	-0.230	0.770
2020/01/31 22:47:09.6	108.200	-0.350	-0.280	0.770
2020/01/31 22:47:09.7	108.250	-0.320	-0.320	0.760
2020/01/31 22:47:09.8	108.290	-0.280	-0.370	0.750
2020/01/31 22:47:09.9	108.330	-0.250	-0.410	0.740
2020/01/31 22:47:10.0	108.380	-0.210	-0.450	0.730
2020/01/31 22:47:10.1	108.420	-0.180	-0.490	0.720
2020/01/31 22:47:10.2	108.460	-0.140	-0.520	0.710
2020/01/31 22:47:10.3	108.510	-0.110	-0.540	0.700
2020/01/31 22:47:10.4	108.550	-0.080	-0.570	0.690
2020/01/31 22:47:10.5	108.590	-0.050	-0.580	0.680
2020/01/31 22:47:10.6	108.630	-0.020	-0.590	0.670
2020/01/31 22:47:10.7	108.670	0.010	-0.600	0.650
2020/01/31 22:47:10.8	108.700	0.030	-0.590	0.640
2020/01/31 22:47:10.9	108.740	0.060	-0.590	0.620
2020/01/31 22:47:11.0	108.780	0.080	-0.570	0.600
2020/01/31 22:47:11.1	108.820	0.090	-0.550	0.580
2020/01/31 22:47:11.2	108.850	0.100	-0.520	0.550
2020/01/31 22:47:11.3	108.890	0.120	-0.490	0.530
2020/01/31 22:47:11.4	108.920	0.120	-0.460	0.500
2020/01/31 22:47:11.5	108.960	0.130	-0.420	0.470
2020/01/31 22:47:11.6	108.990	0.130	-0.370	0.440
2020/01/31 22:47:11.7	109.020	0.130	-0.320	0.410
2020/01/31 22:47:11.8	109.060	0.120	-0.270	0.370
2020/01/31 22:47:11.9	109.090	0.120	-0.220	0.340
2020/01/31 22:47:12.0	109.120	0.110	-0.170	0.300
2020/01/31 22:47:12.1	109.150	0.100	-0.110	0.270
2020/01/31 22:47:12.2	109.180	0.090	-0.060	0.230
2020/01/31 22:47:12.3	109.210	0.080	-0.010	0.200
2020/01/31 22:47:12.4	109.240	0.070	0.040	0.170
2020/01/31 22:47:12.5	109.270	0.050	0.090	0.130
2020/01/31 22:47:12.6	109.300	0.040	0.140	0.100
2020/01/31 22:47:12.7	109.330	0.020	0.180	0.070
2020/01/31 22:47:12.8	109.360	0.010	0.210	0.040
2020/01/31 22:47:12.9	109.390	-0.010	0.240	0.010
2020/01/31 22:47:13.0	109.430	-0.020	0.270	-0.010
2020/01/31 22:47:13.1	109.450	-0.030	0.280	-0.030
2020/01/31 22:47:13.2	109.480	-0.040	0.300	-0.050
2020/01/31 22:47:13.3	109.510	-0.050	0.300	-0.070
2020/01/31 22:47:13.4	109.530	-0.060	0.310	-0.090
2020/01/31 22:47:13.5	109.560	-0.060	0.300	-0.110
2020/01/31 22:47:13.6	109.590	-0.070	0.290	-0.120
2020/01/31 22:47:13.7	109.620	-0.070	0.270	-0.140
2020/01/31 22:47:13.8	109.640	-0.070	0.240	-0.150
2020/01/31 22:47:13.9	109.670	-0.070	0.210	-0.160
2020/01/31 22:47:14.0	109.720	-0.060	0.170	-0.180
2020/01/31 22:47:14.1	109.750	-0.060	0.130	-0.190
2020/01/31 22:47:14.2	109.780	-0.050	0.090	-0.200
2020/01/31 22:47:14.3	109.810	-0.040	0.040	-0.210
2020/01/31 22:47:14.4	109.840	-0.030	-0.010	-0.230
2020/01/31 22:47:14.5	109.870	-0.020	-0.060	-0.240
2020/01/31 22:47:14.6	109.900	-0.010	-0.110	-0.250
2020/01/31 22:47:14.7	109.940	-0.000	-0.160	-0.260
2020/01/31 22:47:14.8	109.970	0.010	-0.210	-0.280
2020/01/31 22:47:14.9	110.010	0.020	-0.270	-0.290
2020/01/31 22:47:15.0	110.040	0.040	-0.310	-0.310
2020/01/31 22:47:15.1	110.080	0.050	-0.360	-0.320
2020/01/31 22:47:15.2	110.120	0.060	-0.400	-0.340
2020/01/31 22:47:15.3	110.160	0.070	-0.440	-0.350
2020/01/31 22:47:15.4	110.200	0.080	-0.470	-0.360
2020/01/31 22:47:15.5	110.240	0.090	-0.500	-0.370
2020/01/31 22:47:15.6	110.280	0.100	-0.520	-0.380
2020/01/31 22:47:15.7	110.320	0.100	-0.540	-0.390
2020/01/31 22:47:15.8	110.370	0.110	-0.550	-0.400
2020/01/31 22:47:15.9	110.410	0.110	-0.560	-0.400
2020/01/31 22:47:16.0	110.450	0.110	-0.560	-0.400
2020/01/31 22:47:16.1	110.490	0.110	-0.560	-0.400
2020/01/31 22:47:16.2	110.540	0.100	-0.540	-0.390
2020/01/31 22:47:16.3	110.580	0.100	-0.530	-0.390
2020/01/31 22:47:16.4	110.630	0.090	-0.500	-0.370
2020/01/31 22:47:16.5	110.670	0.070	-0.480	-0.360
2020/01/31 22:47:16.6	110.720	0.060	-0.440	-0.340
2020/01/31 22:47:16.7	110.770	0.040	-0.410	-0.310
2020/01/31 22:47:16.8	110.810	0.030	-0.360	-0.290
2020/01/31 22:47:16.9	110.860	0.010	-0.320	-0.260
2020/01/31 22:47:17.0	110.890	-0.010	-0.270	-0.230
2020/01/31 22:47:17.1	110.940	-0.040	-0.220	-0.190
2020/01/31 22:47:17.2	110.980	-0.060	-0.170	-0.160
2020/01/31 22:47:17.3	111.030	-0.090	-0.110	-0.120
2020/01/31 22:47:17.4	111.070	-0.110	-0.060	-0.080
2020/01/31 22:47:17.5	111.120	-0.140	0.000	-0.050
2020/01/31 22:47:17.6	111.160	-0.160	0.060	-0.010
2020/01/31 22:47:17.7	111.210	-0.190	0.110	0.030
2020/01/31 22:47:17.8	111.250	-0.210	0.170	0.060
2020/01/31 22:47:17.9	111.300	-0.240	0.220	0.100
2020/01/31 22:47:18.0	111.340	-0.260	0.280	0.130
2020/01/31 22:47:18.1	111.380	-0.280	0.320	0.160
2020/01/31 22:47:18.2	111.420	-0.300	0.370	0.190
2020/01/31 22:47:18.3	111.470	-0.320	0.410	0.210
2020/01/31 22:47:18.4	111.510	-0.340	0.450	0.230
2020/01/31 22:47:18.5	111.560	-0.350	0.480	0.250
2020/01/31 22:47:18.6	111.600	-0.360	0.500	0.270
2020/01/31 22:47:18.7	111.640	-0.370	0.520	0.280
2020/01/31 22:47:18.8	111.680	-0.370	0.530	0.290
2020/01/31 22:47:18.9	111.730	-0.370	0.540	0.290
2020/01/31 22:47:19.0	111.770	-0.360	0.530	0.300
2020/01/31 22:47:19.1	111.810	-0.350	0.520	0.300
2020/01/31 22:47:19.2	111.850	-0.340	0.500	0.310
2020/01/31 22:47:19.3	111.880	-0.320	0.460	0.310
2020/01/31 22:47:19.4	111.920	-0.290	0.420	0.310
2020/01/31 22:47:19.5	111.950	-0.270	0.370	0.310
2020/01/31 22:47:19.6	111.990	-0.230	0.310	0.320
2020/01/31 22:47:19.7	112.020	-0.200	0.240	0.320
2020/01/31 22:47:19.8	112.040	-0.160	0.160	0.320
2020/01/31 22:47:19.9	112.070	-0.110	0.080	0.330
2020/01/31 22:47:20.0	112.090	-0.060	-0.010	0.340
2020/01/31 22:47:20.1	112.120	-0.010	-0.110	0.340
2020/01/31 22:47:20.2	112.140	0.040	-0.210	0.350
2020/01/31 22:47:20.3	112.160	0.100	-0.310	0.360
2020/01/31 22:47:20.4	112.180	0.160	-0.420	0.360
2020/01/31 22:47:20.5	112.200	0.210	-0.520	0.370
2020/01/31 22:47:20.6	112.230	0.270	-0.630	0.370
2020/01/31 22:47:20.7	112.250	0.330	-0.730	0.380
2020/01/31 22:47:20.8	112.270	0.380	-0.830	0.380
2020/01/31 22:47:20.9	112.300	0.440	-0.930	0.390
2020/01/31 22:47:21.0	112.330	0.490	-1.020	0.390
2020/01/31 22:47:21.1	112.350	0.540	-1.100	0.400
2020/01/31 22:47:21.2	112.380	0.580	-1.180	0.400
2020/01/31 22:47:21.3	112.410	0.630	-1.250	0.410
2020/01/31 22:47:21.4	112.430	0.670	-1.310	0.410
2020/01/31 22:47:21.5	112.460	0.700	-1.370	0.410
2020/01/31 22:47:21.6	112.490	0.730	-1.410	0.420
2020/01/31 22:47:21.7	112.520	0.750	-1.440	0.430
2020/01/31 22:47:21.8	112.550	0.770	-1.470	0.430
2020/01/31 22:47:21.9	112.580	0.790	-1.480	0.440
2020/01/31 22:47:22.0	112.620	0.790	-1.490	0.450
2020/01/31 22:47:22.1	112.660	0.800	-1.480	0.460
2020/01/31 22:47:22.2	112.690	0.800	-1.460	0.480
2020/01/31 22:47:22.3	112.720	0.790	-1.430	0.490
2020/01/31 22:47:22.4	112.750	0.780	-1.400	0.510
2020/01/31 22:47:22.5	112.780	0.760	-1.350	0.520
2020/01/31 22:47:22.6	112.810	0.740	-1.300	0.540
2020/01/31 22:47:22.7	112.840	0.710	-1.240	0.560
2020/01/31 22:47:22.8	112.870	0.680	-1.170	0.590
2020/01/31 22:47:22.9	112.900	0.640	-1.100	0.610
2020/01/31 22:47:23.0	112.920	0.610	-1.010	0.640
2020/01/31 22:47:23.1	112.950	0.560	-0.920	0.660
2020/01/31 22:47:23.2	112.980	0.520	-0.830	0.680
2020/01/31 22:47:23.3	113.010	0.470	-0.740	0.700
2020/01/31 22:47:23.4	113.030	0.420	-0.640	0.720
2020/01/31 22:47:23.5	113.060	0.360	-0.540	0.740
2020/01/31 22:47:23.6	113.090	0.310	-0.430	0.750
2020/01/31 22:47:23.7	113.120	0.250	-0.330	0.760
2020/01/31 22:47:23.8	113.150	0.190	-0.230	0.770
2020/01/31 22:47:23.9	113.180	0.140	-0.120	0.770
2020/01/31 22:47:24.0	113.200	0.080	-0.020	0.780
2020/01/31 22:47:24.1	113.230	0.020	0.080	0.770
2020/01/31 22:47:24.2	113.270	-0.040	0.170	0.770
2020/01/31 22:47:24.3	113.300	-0.100	0.260	0.760
2020/01/31 22:47:24.4	113.340	-0.160	0.350	0.740
2020/01/31 22:47:24.5	113.370	-0.210	0.430	0.730
2020/01/31 22:47:24.6	113.410	-0.260	0.500	0.710
2020/01/31 22:47:24.7	113.450	-0.320	0.570	0.690
2020/01/31 22:47:24.8	113.490	-0.360	0.620	0.670
2020/01/31 22:47:24.9	113.530	-0.410	0.670	0.640
2020/01/31 22:47:25.0	113.570	-0.450	0.710	0.620
2020/01/31 22:47:25.1	113.610	-0.490	0.750	0.600
2020/01/31 22:47:25.2	113.650	-0.520	0.770	0.570
2020/01/31 22:47:25.3	113.690	-0.550	0.790	0.550
2020/01/31 22:47:25.4	113.730	-0.580	0.790	0.530
2020/01/31 22:47:25.5	113.770	-0.600	0.790	0.500
2020/01/31 22:47:25.6	113.810	-0.620	0.780	0.480
2020/01/31 22:47:25.7	113.850	-0.640	0.770	0.460
2020/01/31 22:47:25.8	113.890	-0.650	0.740	0.450
2020/01/31 22:47:25.9	113.930	-0.650	0.710	0.430
2020/01/31 22:47:26.0	113.960	-0.660	0.670	0.410
2020/01/31 22:47:26.1	113.990	-0.660	0.630	0.400
2020/01/31 22:47:26.2	114.030	-0.650	0.580	0.390
2020/01/31 22:47:26.3	114.070	-0.640	0.540	0.380
2020/01/31 22:47:26.4	114.110	-0.630	0.480	0.370
2020/01/31 22:47:26.5	114.140	-0.620	0.430	0.360
2020/01/31 22:47:26.6	114.180	-0.600	0.370	0.360
2020/01/31 22:47:26.7	114.210	-0.580	0.310	0.350
2020/01/31 22:47:26.8	114.250	-0.560	0.250	0.350
2020/01/31 22:47:26.9	114.280	-0.530	0.190	0.340
2020/01/31 22:47:27.0	114.310	-0.510	0.140	0.340
2020/01/31 22:47:27.1	114.340	-0.480	0.080	0.330
2020/01/31 22:47:27.2	114.370	-0.450	0.020	0.330
2020/01/31 22:47:27.3	114.400	-0.420	-0.030	0.320
2020/01/31 22:47:27.4	114.440	-0.380	-0.080	0.320
2020/01/31 22:47:27.5	114.470	-0.350	-0.130	0.310
2020/01/31 22:47:27.6	114.500	-0.310	-0.170	0.300
2020/01/31 22:47:27.7	114.530	-0.270	-0.210	0.290
2020/01/31 22:47:27.8	114.560	-0.240	-0.250	0.270
2020/01/31 22:47:27.9	114.600	-0.200	-0.280	0.260
2020/01/31 22:47:28.0	114.640	-0.160	-0.320	0.240
2020/01/31 22:47:28.1	114.680	-0.120	-0.340	0.220
2020/01/31 22:47:28.2	114.710	-0.090	-0.370	0.200
2020/01/31 22:47:28.3	114.750	-0.050	-0.380	0.180
2020/01/31 22:47:28.4	114.790	-0.020	-0.400	0.160
2020/01/31 22:47:28.5	114.830	0.020	-0.410	0.130
2020/01/31 22:47:28.6	114.880	0.050	-0.420	0.100
2020/01/31 22:47:28.7	114.930	0.080	-0.420	0.070
2020/01/31 22:47:28.8	114.980	0.110	-0.420	0.040
2020/01/31 22:47:28.9	115.030	0.130	-0.420	0.010
2020/01/31 22:47:29.0	115.080	0.160	-0.410	-0.020
2020/01/31 22:47:29.1	115.140	0.180	-0.400	-0.050
2020/01/31 22:47:29.2	115.200	0.200	-0.390	-0.080
2020/01/31 22:47:29.3	115.260	0.210	-0.380	-0.100
2020/01/31 22:47:29.4	115.320	0.230	-0.360	-0.130
2020/01/31 22:47:29.5	115.380	0.240	-0.340	-0.160
2020/01/31 22:47:29.6	115.440	0.250	-0.320	-0.180
2020/01/31 22:47:29.7	115.510	0.250	-0.300	-0.210
2020/01/31 22:47:29.8	115.580	0.260	-0.280	-0.230
2020/01/31 22:47:29.9	115.640	0.260	-0.260	-0.250
2020/01/31 22:47:30.0	115.700	0.260	-0.240	-0.260
2020/01/31 22:47:30.1	115.770	0.250	-0.210	-0.270
2020/01/31 22:47:30.2	115.840	0.250	-0.190	-0.280
2020/01/31 22:47:30.3	115.910	0.240	-0.170	-0.290
2020/01/31 22:47:30.4	115.980	0.230	-0.150	-0.290
2020/01/31 22:47:30.5	116.040	0.220	-0.140	-0.290
2020/01/31 22:47:30.6	116.110	0.200	-0.120	-0.290
2020/01/31 22:47:30.7	116.180	0.190	-0.110	-0.280
2020/01/31 22:47:30.8	116.240	0.180	-0.100	-0.260
2020/01/31 22:47:30.9	116.300	0.160	-0.090	-0.250
2020/01/31 22:47:31.0	116.370	0.150	-0.090	-0.220
2020/01/31 22:47:31.1	116.420	0.130	-0.080	-0.200
2020/01/31 22:47:31.2	116.480	0.120	-0.080	-0.170
2020/01/31 22:47:31.3	116.530	0.100	-0.090	-0.140
2020/01/31 22:47:31.4	116.580	0.090	-0.090	-0.110
2020/01/31 22:47:31.5	116.620	0.070	-0.100	-0.070
2020/01/31 22:47:31.6	116.670	0.060	-0.110	-0.030
2020/01/31 22:47:31.7	116.700	0.050	-0.130	0.010
2020/01/31 22:47:31.8	116.740	0.030	-0.140	0.050
2020/01/31 22:47:31.9	116.770	0.020	-0.160	0.090
2020/01/31 22:47:32.0	116.780	0.010	-0.180	0.130
2020/01/31 22:47:32.1	116.810	0.000	-0.200	0.170
2020/01/31 22:47:32.2	116.820	-0.010	-0.220	0.210
2020/01/31 22:47:32.3	116.840	-0.010	-0.250	0.250
2020/01/31 22:47:32.4	116.850	-0.020	-0.270	0.300
2020/01/31 22:47:32.5	116.860	-0.030	-0.290	0.340
2020/01/31 22:47:32.6	116.870	-0.040	-0.320	0.380
2020/01/31 22:47:32.7	116.870	-0.040	-0.340	0.420
2020/01/31 22:47:32.8	116.870	-0.050	-0.360	0.460
2020/01/31 22:47:32.9	116.870	-0.050	-0.390	0.500
2020/01/31 22:47:33.0	116.880	-0.060	-0.410	0.540
2020/01/31 22:47:33.1	116.880	-0.060	-0.430	0.580
2020/01/31 22:47:33.2	116.870	-0.070	-0.450	0.630
2020/01/31 22:47:33.3	116.870	-0.070	-0.470	0.670
2020/01/31 22:47:33.4	116.860	-0.080	-0.480	0.720
2020/01/31 22:47:33.5	116.850	-0.080	-0.500	0.770
2020/01/31 22:47:33.6	116.840	-0.080	-0.520	0.810
2020/01/31 22:47:33.7	116.830	-0.090	-0.530	0.860
2020/01/31 22:47:33.8	116.820	-0.090	-0.550	0.920
2020/01/31 22:47:33.9	116.810	-0.090	-0.560	0.970
2020/01/31 22:47:34.0	116.800	-0.100	-0.580	1.020
2020/01/31 22:47:34.1	116.790	-0.100	-0.590	1.080
2020/01/31 22:47:34.2	116.790	-0.100	-0.600	1.130
2020/01/31 22:47:34.3	116.780	-0.100	-0.620	1.180
2020/01/31 22:47:34.4	116.780	-0.090	-0.630	1.230
2020/01/31 22:47:34.5	116.780	-0.090	-0.640	1.270
2020/01/31 22:47:34.6	116.780	-0.090	-0.660	1.320
2020/01/31 22:47:34.7	116.780	-0.080	-0.670	1.350
2020/01/31 22:47:34.8	116.790	-0.070	-0.690	1.390
2020/01/31 22:47:34.9	116.800	-0.060	-0.700	1.410
2020/01/31 22:47:35.0	116.810	-0.050	-0.710	1.430
2020/01/31 22:47:35.1	116.830	-0.030	-0.720	1.450
2020/01/31 22:47:35.2	116.850	-0.020	-0.730	1.450
2020/01/31 22:47:35.3	116.870	-0.000	-0.740	1.450
2020/01/31 22:47:35.4	116.890	0.020	-0.750	1.440
2020/01/31 22:47:35.5	116.920	0.040	-0.760	1.420
2020/01/31 22:47:35.6	116.960	0.060	-0.760	1.390
2020/01/31 22:47:35.7	116.990	0.080	-0.760	1.360
2020/01/31 22:47:35.8	117.030	0.100	-0.760	1.330
2020/01/31 22:47:35.9	117.070	0.130	-0.760	1.280
2020/01/31 22:47:36.0	117.120	0.150	-0.750	1.230
2020/01/31 22:47:36.1	117.170	0.180	-0.740	1.180
2020/01/31 22:47:36.2	117.220	0.200	-0.720	1.130
2020/01/31 22:47:36.3	117.270	0.220	-0.700	1.070
2020/01/31 22:47:36.4	117.320	0.240	-0.680	1.010
2020/01/31 22:47:36.5	117.370	0.260	-0.650	0.950
2020/01/31 22:47:36.6	117.420	0.280	-0.620	0.890
2020/01/31 22:47:36.7	117.470	0.290	-0.580	0.830
2020/01/31 22:47:36.8	117.530	0.310	-0.540	0.770
2020/01/31 22:47:36.9	117.580	0.320	-0.490	0.710
2020/01/31 22:47:37.0	117.630	0.330	-0.440	0.660
2020/01/31 22:47:37.1	117.690	0.330	-0.390	0.600
2020/01/31 22:47:37.2	117.740	0.330	-0.330	0.550
2020/01/31 22:47:37.3	117.790	0.330	-0.280	0.510
2020/01/31 22:47:37.4	117.840	0.320	-0.210	0.460
2020/01/31 22:47:37.5	117.890	0.310	-0.150	0.430
2020/01/31 22:47:37.6	117.930	0.300	-0.090	0.390
2020/01/31 22:47:37.7	117.980	0.280	-0.020	0.370
2020/01/31 22:47:37.8	118.020	0.260	0.050	0.340
2020/01/31 22:47:37.9	118.060	0.240	0.110	0.320
2020/01/31 22:47:38.0	118.110	0.210	0.180	0.310
2020/01/31 22:47:38.1	118.150	0.180	0.250	0.300
2020/01/31 22:47:38.2	118.190	0.140	0.320	0.290
2020/01/31 22:47:38.3	118.220	0.110	0.380	0.280
2020/01/31 22:47:38.4	118.250	0.060	0.440	0.280
2020/01/31 22:47:38.5	118.290	0.020	0.500	0.280
2020/01/31 22:47:38.6	118.320	-0.020	0.560	0.280
2020/01/31 22:47:38.7	118.350	-0.070	0.620	0.280
2020/01/31 22:47:38.8	118.380	-0.120	0.670	0.280
2020/01/31 22:47:38.9	118.410	-0.170	0.720	0.280
2020/01/31 22:47:39.0	118.450	-0.220	0.760	0.290
2020/01/31 22:47:39.1	118.480	-0.270	0.810	0.290
2020/01/31 22:47:39.2	118.510	-0.320	0.840	0.280
2020/01/31 22:47:39.3	118.540	-0.370	0.880	0.280
2020/01/31 22:47:39.4	118.570	-0.420	0.910	0.270
2020/01/31 22:47:39.5	118.600	-0.470	0.930	0.270
2020/01/31 22:47:39.6	118.630	-0.510	0.950	0.260
2020/01/31 22:47:39.7	118.670	-0.560	0.960	0.250
2020/01/31 22:47:39.8	118.700	-0.600	0.970	0.240
2020/01/31 22:47:39.9	118.730	-0.630	0.970	0.220
2020/01/31 22:47:40.0	118.760	-0.670	0.970	0.210
2020/01/31 22:47:40.1	118.790	-0.700	0.950	0.190
2020/01/31 22:47:40.2	118.820	-0.720	0.940	0.180
2020/01/31 22:47:40.3	118.860	-0.740	0.910	0.160
2020/01/31 22:47:40.4	118.890	-0.760	0.870	0.150
2020/01/31 22:47:40.5	118.920	-0.760	0.830	0.130
2020/01/31 22:47:40.6	118.960	-0.770	0.780	0.110
2020/01/31 22:47:40.7	118.990	-0.760	0.720	0.100
2020/01/31 22:47:40.8	119.020	-0.750	0.650	0.090
2020/01/31 22:47:40.9	119.060	-0.740	0.570	0.070
2020/01/31 22:47:41.0	119.100	-0.710	0.480	0.050
2020/01/31 22:47:41.1	119.130	-0.680	0.390	0.040
2020/01/31 22:47:41.2	119.170	-0.650	0.280	0.030
2020/01/31 22:47:41.3	119.200	-0.600	0.170	0.020
2020/01/31 22:47:41.4	119.240	-0.550	0.050	0.010
2020/01/31 22:47:41.5	119.270	-0.490	-0.070	0.010
2020/01/31 22:47:41.6	119.300	-0.430	-0.200	0.010
2020/01/31 22:47:41.7	119.340	-0.370	-0.340	0.010
2020/01/31 22:47:41.8	119.370	-0.290	-0.480	0.010
2020/01/31 22:47:41.9	119.400	-0.220	-0.620	0.010
2020/01/31 22:47:42.0	119.450	-0.140	-0.760	0.020
2020/01/31 22:47:42.1	119.480	-0.060	-0.890	0.030
2020/01/31 22:47:42.2	119.510	0.030	-1.030	0.040
2020/01/31 22:47:42.3	119.540	0.110	-1.160	0.050
2020/01/31 22:47:42.4	119.570	0.200	-1.280	0.060
2020/01/31 22:47:42.5	119.600	0.280	-1.400	0.070
2020/01/31 22:47:42.6	119.630	0.370	-1.510	0.080
2020/01/31 22:47:42.7	119.650	0.450	-1.610	0.090
2020/01/31 22:47:42.8	119.680	0.530	-1.700	0.100
2020/01/31 22:47:42.9	119.700	0.600	-1.780	0.110
2020/01/31 22:47:43.0	119.730	0.670	-1.840	0.120
2020/01/31 22:47:43.1	119.750	0.740	-1.890	0.130
2020/01/31 22:47:43.2	119.780	0.800	-1.930	0.140
2020/01/31 22:47:43.3	119.800	0.850	-1.950	0.150
2020/01/31 22:47:43.4	119.820	0.890	-1.960	0.150
2020/01/31 22:47:43.5	119.840	0.930	-1.950	0.160
2020/01/31 22:47:43.6	119.870	0.960	-1.930	0.170
2020/01/31 22:47:43.7	119.890	0.990	-1.890	0.180
2020/01/31 22:47:43.8	119.910	1.000	-1.840	0.190
2020/01/31 22:47:43.9	119.930	1.010	-1.770	0.200
2020/01/31 22:47:44.0	119.970	1.000	-1.680	0.220
2020/01/31 22:47:44.1	119.990	0.990	-1.590	0.230
2020/01/31 22:47:44.2	120.010	0.970	-1.490	0.250
2020/01/31 22:47:44.3	120.030	0.950	-1.370	0.270
2020/01/31 22:47:44.4	120.050	0.910	-1.250	0.290
2020/01/31 22:47:44.5	120.070	0.870	-1.120	0.310
2020/01/31 22:47:44.6	120.100	0.820	-0.980	0.330
2020/01/31 22:47:44.7	120.120	0.770	-0.830	0.350
2020/01/31 22:47:44.8	120.140	0.710	-0.690	0.370
2020/01/31 22:47:44.9	120.160	0.640	-0.530	0.400
2020/01/31 22:47:45.0	120.170	0.570	-0.380	0.430
2020/01/31 22:47:45.1	120.190	0.500	-0.230	0.460
2020/01/31 22:47:45.2	120.220	0.430	-0.070	0.480
2020/01/31 22:47:45.3	120.240	0.350	0.080	0.510
2020/01/31 22:47:45.4	120.270	0.270	0.230	0.530
2020/01/31 22:47:45.5	120.290	0.190	0.380	0.550
2020/01/31 22:47:45.6	120.320	0.110	0.520	0.570
2020/01/31 22:47:45.7	120.350	0.030	0.660	0.590
2020/01/31 22:47:45.8	120.380	-0.050	0.790	0.610
2020/01/31 22:47:45.9	120.410	-0.130	0.910	0.620
2020/01/31 22:47:46.0	120.430	-0.210	1.030	0.630
2020/01/31 22:47:46.1	120.460	-0.280	1.130	0.640
2020/01/31 22:47:46.2	120.490	-0.350	1.230	0.650
2020/01/31 22:47:46.3	120.530	-0.420	1.310	0.660
2020/01/31 22:47:46.4	120.560	-0.480	1.390	0.660
2020/01/31 22:47:46.5	120.590	-0.540	1.450	0.670
2020/01/31 22:47:46.6	120.630	-0.600	1.490	0.670
2020/01/31 22:47:46.7	120.660	-0.640	1.530	0.670
2020/01/31 22:47:46.8	120.690	-0.690	1.550	0.670
2020/01/31 22:47:46.9	120.730	-0.720	1.550	0.670
2020/01/31 22:47:47.0	120.750	-0.750	1.530	0.670
2020/01/31 22:47:47.1	120.780	-0.770	1.510	0.670
2020/01/31 22:47:47.2	120.810	-0.790	1.470	0.670
2020/01/31 22:47:47.3	120.840	-0.790	1.410	0.670
2020/01/31 22:47:47.4	120.870	-0.790	1.340	0.670
2020/01/31 22:47:47.5	120.890	-0.790	1.250	0.670
2020/01/31 22:47:47.6	120.910	-0.770	1.150	0.670
2020/01/31 22:47:47.7	120.930	-0.750	1.030	0.670
2020/01/31 22:47:47.8	120.950	-0.720	0.910	0.670
2020/01/31 22:47:47.9	120.970	-0.690	0.770	0.680
2020/01/31 22:47:48.0				
2020/01/31 22:47:48.1	120.990	-0.650	0.630	0.680
2020/01/31 22:47:48.2	121.020	-0.560	0.320	0.680
2020/01/31 22:47:48.3	121.030	-0.510	0.150	0.690
2020/01/31 22:47:48.4	121.050	-0.460	-0.020	0.690
2020/01/31 22:47:48.5	121.060	-0.400	-0.180	0.690
2020/01/31 22:47:48.6	121.080	-0.340	-0.350	0.690
2020/01/31 22:47:48.7	121.090	-0.290	-0.520	0.690
2020/01/31 22:47:48.8	121.110	-0.230	-0.680	0.690
2020/01/31 22:47:48.9	121.130	-0.170	-0.840	0.690
2020/01/31 22:47:49.0	121.140	-0.110	-1.000	0.680
2020/01/31 22:47:49.1	121.170	-0.060	-1.140	0.680
2020/01/31 22:47:49.2	121.190	-0.000	-1.280	0.680
2020/01/31 22:47:49.3	121.220	0.050	-1.400	0.680
2020/01/31 22:47:49.4	121.250	0.090	-1.510	0.670
2020/01/31 22:47:49.5	121.280	0.140	-1.610	0.670
2020/01/31 22:47:49.6	121.320	0.180	-1.690	0.670
2020/01/31 22:47:49.7	121.360	0.220	-1.760	0.670
2020/01/31 22:47:49.8	121.400	0.250	-1.820	0.670
2020/01/31 22:47:49.9	121.440	0.270	-1.860	0.680
2020/01/31 22:47:50.0	121.500	0.300	-1.880	0.680
2020/01/31 22:47:50.1	121.540	0.310	-1.880	0.680
2020/01/31 22:47:50.2	121.600	0.330	-1.870	0.690
2020/01/31 22:47:50.3	121.650	0.330	-1.840	0.690
2020/01/31 22:47:50.4	121.710	0.330	-1.790	0.690
2020/01/31 22:47:50.5	121.760	0.330	-1.730	0.700
2020/01/31 22:47:50.6	121.820	0.320	-1.650	0.700
2020/01/31 22:47:50.7	121.890	0.310	-1.560	0.700
2020/01/31 22:47:50.8	121.950	0.290	-1.460	0.700
2020/01/31 22:47:50.9	122.020	0.270	-1.340	0.700
2020/01/31 22:47:51.0	122.080	0.240	-1.210	0.710
2020/01/31 22:47:51.1	122.140	0.210	-1.080	0.700
2020/01/31 22:47:51.2	122.210	0.180	-0.940	0.700
2020/01/31 22:47:51.3	122.280	0.140	-0.790	0.690
2020/01/31 22:47:51.4	122.340	0.110	-0.630	0.680
2020/01/31 22:47:51.5	122.410	0.060	-0.480	0.670
2020/01/31 22:47:51.6	122.470	0.020	-0.320	0.660
2020/01/31 22:47:51.7	122.540	-0.020	-0.160	0.650
2020/01/31 22:47:51.8	122.600	-0.070	-0.010	0.630
2020/01/31 22:47:51.9	122.660	-0.110	0.150	0.620
2020/01/31 22:47:52.0	122.730	-0.160	0.290	0.590
2020/01/31 22:47:52.1	122.790	-0.210	0.430	0.580
2020/01/31 22:47:52.2	122.840	-0.250	0.570	0.560
2020/01/31 22:47:52.3	122.900	-0.300	0.700	0.540
2020/01/31 22:47:52.4	122.950	-0.340	0.810	0.520
2020/01/31 22:47:52.5	123.000	-0.380	0.920	0.500
2020/01/31 22:47:52.6	123.050	-0.420	1.020	0.480
2020/01/31 22:47:52.7	123.100	-0.460	1.100	0.460
2020/01/31 22:47:52.8	123.140	-0.490	1.170	0.450
2020/01/31 22:47:52.9	123.180	-0.530	1.230	0.440
2020/01/31 22:47:53.0	123.220	-0.550	1.270	0.430
2020/01/31 22:47:53.1	123.260	-0.580	1.300	0.430
2020/01/31 22:47:53.2	123.290	-0.600	1.320	0.420
2020/01/31 22:47:53.3	123.320	-0.610	1.320	0.420
2020/01/31 22:47:53.4	123.350	-0.620	1.300	0.420
2020/01/31 22:47:53.5	123.380	-0.630	1.270	0.420
2020/01/31 22:47:53.6	123.400	-0.620	1.220	0.430
2020/01/31 22:47:53.7	123.420	-0.620	1.160	0.440
2020/01/31 22:47:53.8	123.440	-0.610	1.090	0.440
2020/01/31 22:47:53.9	123.450	-0.590	1.010	0.460
2020/01/31 22:47:54.0	123.460	-0.560	0.900	0.460
2020/01/31 22:47:54.1	123.480	-0.530	0.790	0.480
2020/01/31 22:47:54.2	123.490	-0.500	0.670	0.490
2020/01/31 22:47:54.3	123.500	-0.450	0.550	0.500
2020/01/31 22:47:54.4	123.510	-0.410	0.410	0.510
2020/01/31 22:47:54.5	123.520	-0.350	0.270	0.530
2020/01/31 22:47:54.6	123.540	-0.300	0.120	0.530
2020/01/31 22:47:54.7	123.550	-0.240	-0.030	0.540
2020/01/31 22:47:54.8	123.560	-0.170	-0.180	0.550
2020/01/31 22:47:54.9	123.570	-0.110	-0.330	0.550
2020/01/31 22:47:55.0	123.590	-0.040	-0.490	0.550
2020/01/31 22:47:55.1	123.600	0.040	-0.640	0.550
2020/01/31 22:47:55.2	123.610	0.110	-0.780	0.550
2020/01/31 22:47:55.3	123.630	0.180	-0.910	0.550
2020/01/31 22:47:55.4	123.640	0.250	-1.040	0.540
2020/01/31 22:47:55.5	123.660	0.320	-1.160	0.540
2020/01/31 22:47:55.6	123.670	0.390	-1.270	0.530
2020/01/31 22:47:55.7	123.690	0.460	-1.370	0.520
2020/01/31 22:47:55.8	123.710	0.520	-1.460	0.510
2020/01/31 22:47:55.9	123.740	0.570	-1.530	0.500
2020/01/31 22:47:56.0	123.770	0.630	-1.590	0.490
2020/01/31 22:47:56.1	123.800	0.670	-1.630	0.470
2020/01/31 22:47:56.2	123.830	0.710	-1.650	0.460
2020/01/31 22:47:56.3	123.860	0.740	-1.670	0.450
2020/01/31 22:47:56.4	123.900	0.770	-1.660	0.440
2020/01/31 22:47:56.5	123.930	0.790	-1.640	0.440
2020/01/31 22:47:56.6	123.970	0.800	-1.610	0.430
2020/01/31 22:47:56.7	124.010	0.800	-1.560	0.430
2020/01/31 22:47:56.8	124.050	0.800	-1.500	0.430
2020/01/31 22:47:56.9	124.090	0.790	-1.430	0.420
2020/01/31 22:47:57.0	124.130	0.770	-1.340	0.430
2020/01/31 22:47:57.1	124.180	0.750	-1.240	0.430
2020/01/31 22:47:57.2	124.230	0.710	-1.140	0.440
2020/01/31 22:47:57.3	124.270	0.670	-1.020	0.440
2020/01/31 22:47:57.4	124.320	0.630	-0.890	0.450
2020/01/31 22:47:57.5	124.370	0.580	-0.760	0.460
2020/01/31 22:47:57.6	124.420	0.530	-0.630	0.470
2020/01/31 22:47:57.7	124.470	0.470	-0.490	0.480
2020/01/31 22:47:57.8	124.530	0.400	-0.340	0.480
2020/01/31 22:47:57.9	124.580	0.340	-0.200	0.490
2020/01/31 22:47:58.0	124.630	0.270	-0.060	0.510
2020/01/31 22:47:58.1	124.680	0.200	0.080	0.510
2020/01/31 22:47:58.2	124.730	0.130	0.220	0.520
2020/01/31 22:47:58.3	124.780	0.060	0.350	0.530
2020/01/31 22:47:58.4	124.830	-0.010	0.480	0.530
2020/01/31 22:47:58.5	124.870	-0.080	0.590	0.530
2020/01/31 22:47:58.6	124.920	-0.150	0.700	0.540
2020/01/31 22:47:58.7	124.960	-0.210	0.800	0.540
2020/01/31 22:47:58.8	125.000	-0.280	0.890	0.540
2020/01/31 22:47:58.9	125.040	-0.330	0.970	0.540
2020/01/31 22:47:59.0	125.100	-0.390	1.030	0.530
2020/01/31 22:47:59.1	125.130	-0.430	1.080	0.530
2020/01/31 22:47:59.2	125.160	-0.480	1.120	0.530
2020/01/31 22:47:59.3	125.190	-0.510	1.140	0.520
2020/01/31 22:47:59.4	125.220	-0.540	1.140	0.520
2020/01/31 22:47:59.5	125.250	-0.570	1.130	0.520
2020/01/31 22:47:59.6	125.270	-0.580	1.110	0.520
2020/01/31 22:47:59.7	125.290	-0.590	1.080	0.510
2020/01/31 22:47:59.8	125.310	-0.600	1.020	0.510
2020/01/31 22:47:59.9	125.330	-0.600	0.960	0.510
2020/01/31 22:48:00.0	125.360	-0.590	0.890	0.510
2020/01/31 22:48:00.1	125.370	-0.570	0.800	0.520
2020/01/31 22:48:00.2	125.380	-0.550	0.710	0.520
2020/01/31 22:48:00.3	125.400	-0.530	0.600	0.520
2020/01/31 22:48:00.4	125.410	-0.500	0.490	0.530
2020/01/31 22:48:00.5	125.420	-0.470	0.380	0.530
2020/01/31 22:48:00.6	125.440	-0.430	0.260	0.540
2020/01/31 22:48:00.7	125.450	-0.390	0.130	0.550
2020/01/31 22:48:00.8	125.470	-0.350	0.010	0.550
2020/01/31 22:48:00.9	125.480	-0.300	-0.110	0.560
2020/01/31 22:48:01.0	125.520	-0.260	-0.240	0.570
2020/01/31 22:48:01.1	125.540	-0.210	-0.360	0.580
2020/01/31 22:48:01.2	125.560	-0.170	-0.480	0.590
2020/01/31 22:48:01.3	125.590	-0.120	-0.590	0.590
2020/01/31 22:48:01.4	125.610	-0.080	-0.700	0.600
2020/01/31 22:48:01.5	125.640	-0.030	-0.800	0.610
2020/01/31 22:48:01.6	125.670	0.010	-0.890	0.620
2020/01/31 22:48:01.7	125.710	0.050	-0.980	0.620
2020/01/31 22:48:01.8	125.740	0.090	-1.050	0.620
2020/01/31 22:48:01.9	125.780	0.120	-1.120	0.620
2020/01/31 22:48:02.0	125.830	0.150	-1.170	0.620
2020/01/31 22:48:02.1	125.880	0.180	-1.220	0.610
2020/01/31 22:48:02.2	125.930	0.210	-1.250	0.600
2020/01/31 22:48:02.3	125.980	0.230	-1.270	0.590
2020/01/31 22:48:02.4	126.030	0.240	-1.270	0.580
2020/01/31 22:48:02.5	126.080	0.260	-1.270	0.570
2020/01/31 22:48:02.6	126.140	0.260	-1.250	0.550
2020/01/31 22:48:02.7	126.200	0.270	-1.220	0.530
2020/01/31 22:48:02.8	126.260	0.270	-1.180	0.510
2020/01/31 22:48:02.9	126.310	0.260	-1.120	0.490
2020/01/31 22:48:03.0	126.380	0.260	-1.070	0.470
2020/01/31 22:48:03.1	126.440	0.250	-0.990	0.450
2020/01/31 22:48:03.2	126.500	0.230	-0.920	0.430
2020/01/31 22:48:03.3	126.550	0.220	-0.830	0.400
2020/01/31 22:48:03.4	126.610	0.200	-0.740	0.380
2020/01/31 22:48:03.5	126.670	0.180	-0.640	0.360
2020/01/31 22:48:03.6	126.720	0.160	-0.540	0.340
2020/01/31 22:48:03.7	126.770	0.130	-0.440	0.320
2020/01/31 22:48:03.8	126.820	0.110	-0.330	0.310
2020/01/31 22:48:03.9	126.870	0.090	-0.230	0.290
2020/01/31 22:48:04.0	126.930	0.060	-0.130	0.290
2020/01/31 22:48:04.1	126.980	0.040	-0.030	0.280
2020/01/31 22:48:04.2	127.020	0.010	0.070	0.270
2020/01/31 22:48:04.3	127.060	-0.010	0.160	0.270
2020/01/31 22:48:04.4	127.090	-0.030	0.240	0.270
2020/01/31 22:48:04.5	127.120	-0.050	0.320	0.270
2020/01/31 22:48:04.6	127.150	-0.070	0.390	0.270
2020/01/31 22:48:04.7	127.180	-0.080	0.460	0.280
2020/01/31 22:48:04.8	127.200	-0.100	0.510	0.280
2020/01/31 22:48:04.9	127.230	-0.110	0.560	0.290
2020/01/31 22:48:05.0	127.240	-0.110	0.590	0.300
2020/01/31 22:48:05.1	127.260	-0.120	0.620	0.320
2020/01/31 22:48:05.2	127.270	-0.120	0.630	0.330
2020/01/31 22:48:05.3	127.290	-0.120	0.640	0.340
2020/01/31 22:48:05.4	127.300	-0.110	0.630	0.360
2020/01/31 22:48:05.5	127.310	-0.100	0.620	0.370
2020/01/31 22:48:05.6	127.320	-0.090	0.600	0.380
2020/01/31 22:48:05.7	127.340	-0.070	0.570	0.390
2020/01/31 22:48:05.8	127.350	-0.050	0.530	0.400
2020/01/31 22:48:05.9	127.360	-0.030	0.480	0.410
2020/01/31 22:48:06.0	127.370	-0.010	0.430	0.410
2020/01/31 22:48:06.1	127.380	0.020	0.370	0.420
2020/01/31 22:48:06.2	127.390	0.050	0.310	0.420
2020/01/31 22:48:06.3	127.410	0.080	0.240	0.420
2020/01/31 22:48:06.4	127.430	0.110	0.170	0.420
2020/01/31 22:48:06.5	127.450	0.140	0.100	0.420
2020/01/31 22:48:06.6	127.470	0.180	0.030	0.410
2020/01/31 22:48:06.7	127.490	0.210	-0.050	0.410
2020/01/31 22:48:06.8	127.510	0.240	-0.120	0.400
2020/01/31 22:48:06.9	127.530	0.270	-0.190	0.400
2020/01/31 22:48:07.0	127.550	0.300	-0.260	0.390
2020/01/31 22:48:07.1	127.580	0.330	-0.320	0.380
2020/01/31 22:48:07.2	127.610	0.360	-0.380	0.380
2020/01/31 22:48:07.3	127.640	0.390	-0.440	0.370
2020/01/31 22:48:07.4	127.670	0.410	-0.490	0.370
2020/01/31 22:48:07.5	127.710	0.430	-0.530	0.360
2020/01/31 22:48:07.6	127.740	0.450	-0.570	0.360
2020/01/31 22:48:07.7	127.780	0.460	-0.600	0.360
2020/01/31 22:48:07.8	127.820	0.470	-0.630	0.350
2020/01/31 22:48:07.9	127.860	0.480	-0.650	0.350
2020/01/31 22:48:08.0	127.890	0.480	-0.670	0.350
2020/01/31 22:48:08.1	127.930	0.480	-0.680	0.350
2020/01/31 22:48:08.2	127.970	0.470	-0.680	0.350
2020/01/31 22:48:08.3	128.010	0.460	-0.680	0.350
2020/01/31 22:48:08.4	128.050	0.450	-0.670	0.360
2020/01/31 22:48:08.5	128.090	0.430	-0.660	0.360
2020/01/31 22:48:08.6	128.130	0.410	-0.650	0.370
2020/01/31 22:48:08.7	128.170	0.380	-0.630	0.370
2020/01/31 22:48:08.8	128.210	0.350	-0.600	0.380
2020/01/31 22:48:08.9	128.250	0.320	-0.580	0.390
2020/01/31 22:48:09.0	128.270	0.290	-0.550	0.400
2020/01/31 22:48:09.1	128.310	0.250	-0.520	0.410
2020/01/31 22:48:09.2	128.340	0.210	-0.490	0.420
2020/01/31 22:48:09.3	128.370	0.170	-0.460	0.440
2020/01/31 22:48:09.4	128.400	0.130	-0.430	0.450
2020/01/31 22:48:09.5	128.430	0.080	-0.400	0.470
2020/01/31 22:48:09.6	128.460	0.040	-0.370	0.490
2020/01/31 22:48:09.7	128.480	-0.010	-0.340	0.510
2020/01/31 22:48:09.8	128.510	-0.050	-0.310	0.530
2020/01/31 22:48:09.9	128.530	-0.100	-0.290	0.550
2020/01/31 22:48:10.0	128.560	-0.140	-0.270	0.570
2020/01/31 22:48:10.1	128.590	-0.180	-0.250	0.600
2020/01/31 22:48:10.2	128.610	-0.230	-0.230	0.630
2020/01/31 22:48:10.3	128.630	-0.270	-0.220	0.650
2020/01/31 22:48:10.4	128.650	-0.310	-0.210	0.680
2020/01/31 22:48:10.5	128.670	-0.340	-0.200	0.710
2020/01/31 22:48:10.6	128.680	-0.380	-0.190	0.740
2020/01/31 22:48:10.7	128.700	-0.410	-0.190	0.780
2020/01/31 22:48:10.8	128.710	-0.440	-0.180	0.810
2020/01/31 22:48:10.9	128.730	-0.460	-0.180	0.850
2020/01/31 22:48:11.0	128.740	-0.480	-0.180	0.890
2020/01/31 22:48:11.1	128.750	-0.500	-0.190	0.930
2020/01/31 22:48:11.2	128.760	-0.520	-0.190	0.970
2020/01/31 22:48:11.3	128.770	-0.530	-0.200	1.010
2020/01/31 22:48:11.4	128.780	-0.540	-0.210	1.050
2020/01/31 22:48:11.5	128.790	-0.550	-0.220	1.090
2020/01/31 22:48:11.6	128.790	-0.550	-0.230	1.130
2020/01/31 22:48:11.7	128.800	-0.550	-0.240	1.170
2020/01/31 22:48:11.8	128.800	-0.540	-0.260	1.210
2020/01/31 22:48:11.9	128.810	-0.530	-0.270	1.240
2020/01/31 22:48:12.0	128.830	-0.520	-0.290	1.280
2020/01/31 22:48:12.1	128.830	-0.510	-0.310	1.310
2020/01/31 22:48:12.2	128.840	-0.490	-0.330	1.340
2020/01/31 22:48:12.3	128.850	-0.470	-0.350	1.370
2020/01/31 22:48:12.4	128.850	-0.450	-0.370	1.390
2020/01/31 22:48:12.5	128.860	-0.420	-0.380	1.410
2020/01/31 22:48:12.6	128.870	-0.390	-0.400	1.430
2020/01/31 22:48:12.7	128.880	-0.360	-0.420	1.440
2020/01/31 22:48:12.8	128.890	-0.330	-0.440	1.450
2020/01/31 22:48:12.9	128.900	-0.300	-0.460	1.460
2020/01/31 22:48:13.0	128.900	-0.270	-0.480	1.460
2020/01/31 22:48:13.1	128.910	-0.230	-0.490	1.460
2020/01/31 22:48:13.2	128.930	-0.190	-0.510	1.460
2020/01/31 22:48:13.3	128.940	-0.160	-0.530	1.450
2020/01/31 22:48:13.4	128.960	-0.120	-0.540	1.440
2020/01/31 22:48:13.5	128.970	-0.090	-0.550	1.420
2020/01/31 22:48:13.6	128.990	-0.050	-0.560	1.400
2020/01/31 22:48:13.7	129.010	-0.020	-0.570	1.380
2020/01/31 22:48:13.8	129.040	0.010	-0.570	1.360
2020/01/31 22:48:13.9	129.060	0.050	-0.570	1.330
2020/01/31 22:48:14.0	129.080	0.070	-0.570	1.300
2020/01/31 22:48:14.1	129.110	0.100	-0.570	1.260
2020/01/31 22:48:14.2	129.140	0.130	-0.560	1.220
2020/01/31 22:48:14.3	129.170	0.150	-0.540	1.180
2020/01/31 22:48:14.4	129.200	0.170	-0.520	1.140
2020/01/31 22:48:14.5	129.230	0.180	-0.500	1.100
2020/01/31 22:48:14.6	129.270	0.200	-0.480	1.050
2020/01/31 22:48:14.7	129.310	0.210	-0.450	1.000
2020/01/31 22:48:14.8	129.350	0.210	-0.410	0.950
2020/01/31 22:48:14.9	129.390	0.210	-0.380	0.900
2020/01/31 22:48:15.0	129.430	0.210	-0.330	0.850
2020/01/31 22:48:15.1	129.480	0.210	-0.290	0.800
2020/01/31 22:48:15.2	129.530	0.200	-0.240	0.750
2020/01/31 22:48:15.3	129.580	0.190	-0.190	0.710
2020/01/31 22:48:15.4	129.630	0.180	-0.130	0.660
2020/01/31 22:48:15.5	129.680	0.160	-0.080	0.620
2020/01/31 22:48:15.6	129.730	0.150	-0.020	0.570
2020/01/31 22:48:15.7	129.780	0.130	0.040	0.530
2020/01/31 22:48:15.8	129.840	0.100	0.100	0.500
2020/01/31 22:48:15.9	129.890	0.080	0.160	0.460
2020/01/31 22:48:16.0	129.950	0.050	0.220	0.430
2020/01/31 22:48:16.1	130.000	0.020	0.280	0.400
2020/01/31 22:48:16.2	130.060	-0.010	0.340	0.370
2020/01/31 22:48:16.3	130.110	-0.030	0.400	0.350
2020/01/31 22:48:16.4	130.170	-0.060	0.460	0.330
2020/01/31 22:48:16.5	130.220	-0.090	0.510	0.310
2020/01/31 22:48:16.6	130.280	-0.120	0.560	0.290
2020/01/31 22:48:16.7	130.330	-0.150	0.600	0.280
2020/01/31 22:48:16.8	130.380	-0.170	0.640	0.260
2020/01/31 22:48:16.9	130.430	-0.200	0.680	0.250
2020/01/31 22:48:17.0	130.480	-0.220	0.710	0.240
2020/01/31 22:48:17.1	130.530	-0.240	0.730	0.230
2020/01/31 22:48:17.2	130.570	-0.250	0.740	0.220
2020/01/31 22:48:17.3	130.610	-0.260	0.750	0.220
2020/01/31 22:48:17.4	130.650	-0.270	0.750	0.210
2020/01/31 22:48:17.5	130.690	-0.280	0.740	0.200
2020/01/31 22:48:17.6	130.730	-0.280	0.720	0.190
2020/01/31 22:48:17.7	130.770	-0.280	0.700	0.180
2020/01/31 22:48:17.8	130.800	-0.270	0.670	0.170
2020/01/31 22:48:17.9	130.830	-0.260	0.630	0.160
2020/01/31 22:48:18.0	130.870	-0.250	0.580	0.160
2020/01/31 22:48:18.1	130.900	-0.230	0.530	0.150
2020/01/31 22:48:18.2	130.930	-0.210	0.470	0.140
2020/01/31 22:48:18.3	130.950	-0.180	0.400	0.140
2020/01/31 22:48:18.4	130.980	-0.150	0.330	0.130
2020/01/31 22:48:18.5	131.000	-0.120	0.260	0.130
2020/01/31 22:48:18.6	131.030	-0.090	0.180	0.130
2020/01/31 22:48:18.7	131.050	-0.050	0.100	0.130
2020/01/31 22:48:18.8	131.070	-0.010	0.010	0.130
2020/01/31 22:48:18.9	131.100	0.030	-0.070	0.140
2020/01/31 22:48:19.0	131.130	0.070	-0.150	0.140
2020/01/31 22:48:19.1	131.150	0.110	-0.240	0.150
2020/01/31 22:48:19.2	131.180	0.160	-0.320	0.160
2020/01/31 22:48:19.3	131.200	0.200	-0.400	0.180
2020/01/31 22:48:19.4	131.230	0.240	-0.470	0.190
2020/01/31 22:48:19.5	131.250	0.290	-0.540	0.210
2020/01/31 22:48:19.6	131.280	0.330	-0.610	0.230
2020/01/31 22:48:19.7	131.300	0.370	-0.670	0.260
2020/01/31 22:48:19.8	131.330	0.400	-0.720	0.280
2020/01/31 22:48:19.9	131.360	0.440	-0.770	0.310
2020/01/31 22:48:20.0	131.390	0.470	-0.810	0.330
2020/01/31 22:48:20.1	131.420	0.500	-0.850	0.350
2020/01/31 22:48:20.2	131.450	0.530	-0.870	0.380
2020/01/31 22:48:20.3	131.480	0.550	-0.890	0.410
2020/01/31 22:48:20.4	131.510	0.570	-0.890	0.430
2020/01/31 22:48:20.5	131.550	0.590	-0.890	0.450
2020/01/31 22:48:20.6	131.580	0.600	-0.890	0.470
2020/01/31 22:48:20.7	131.620	0.610	-0.870	0.490
2020/01/31 22:48:20.8	131.660	0.610	-0.850	0.510
2020/01/31 22:48:20.9	131.700	0.610	-0.820	0.520
2020/01/31 22:48:21.0	131.730	0.610	-0.780	0.540
2020/01/31 22:48:21.1	131.770	0.600	-0.740	0.550
2020/01/31 22:48:21.2	131.810	0.580	-0.700	0.560
2020/01/31 22:48:21.3	131.850	0.570	-0.650	0.570
2020/01/31 22:48:21.4	131.890	0.550	-0.600	0.570
2020/01/31 22:48:21.5	131.930	0.530	-0.550	0.570
2020/01/31 22:48:21.6	131.970	0.500	-0.500	0.570
2020/01/31 22:48:21.7	132.010	0.470	-0.450	0.580
2020/01/31 22:48:21.8	132.050	0.440	-0.400	0.580
2020/01/31 22:48:21.9	132.090	0.410	-0.350	0.580
2020/01/31 22:48:22.0	132.130	0.380	-0.310	0.580
2020/01/31 22:48:22.1	132.170	0.340	-0.270	0.580
2020/01/31 22:48:22.2	132.200	0.310	-0.240	0.590
2020/01/31 22:48:22.3	132.220	0.270	-0.210	0.600
2020/01/31 22:48:22.4	132.250	0.240	-0.180	0.610
2020/01/31 22:48:22.5	132.270	0.210	-0.160	0.630
2020/01/31 22:48:22.6	132.290	0.170	-0.150	0.650
2020/01/31 22:48:22.7	132.310	0.140	-0.140	0.680
2020/01/31 22:48:22.8	132.320	0.110	-0.140	0.700
2020/01/31 22:48:22.9	132.330	0.080	-0.140	0.740
2020/01/31 22:48:23.0	132.330	0.060	-0.160	0.780
2020/01/31 22:48:23.1	132.340	0.030	-0.170	0.810
2020/01/31 22:48:23.2	132.340	0.010	-0.200	0.860
2020/01/31 22:48:23.3	132.350	-0.000	-0.220	0.900
2020/01/31 22:48:23.4	132.350	-0.020	-0.260	0.940
2020/01/31 22:48:23.5	132.350	-0.030	-0.290	0.990
2020/01/31 22:48:23.6	132.340	-0.040	-0.330	1.030
2020/01/31 22:48:23.7	132.340	-0.040	-0.380	1.080
2020/01/31 22:48:23.8	132.340	-0.050	-0.420	1.130
2020/01/31 22:48:23.9	132.340	-0.050	-0.470	1.170
2020/01/31 22:48:24.0	132.320	-0.040	-0.510	1.210
2020/01/31 22:48:24.1	132.320	-0.040	-0.560	1.250
2020/01/31 22:48:24.2	132.320	-0.030	-0.610	1.280
2020/01/31 22:48:24.3	132.320	-0.020	-0.650	1.310
2020/01/31 22:48:24.4	132.320	-0.010	-0.700	1.340
2020/01/31 22:48:24.5	132.320	-0.000	-0.730	1.360
2020/01/31 22:48:24.6	132.330	0.010	-0.770	1.380
2020/01/31 22:48:24.7	132.330	0.020	-0.800	1.390
2020/01/31 22:48:24.8	132.350	0.030	-0.820	1.400
2020/01/31 22:48:24.9	132.360	0.040	-0.840	1.400
2020/01/31 22:48:25.0	132.360	0.050	-0.850	1.400
2020/01/31 22:48:25.1	132.370	0.060	-0.860	1.400
2020/01/31 22:48:25.2	132.400	0.060	-0.850	1.390
2020/01/31 22:48:25.3	132.420	0.070	-0.840	1.370
2020/01/31 22:48:25.4	132.440	0.070	-0.820	1.360
2020/01/31 22:48:25.5	132.470	0.070	-0.790	1.340
2020/01/31 22:48:25.6	132.500	0.060	-0.760	1.320
2020/01/31 22:48:25.7	132.540	0.060	-0.720	1.290
2020/01/31 22:48:25.8	132.570	0.050	-0.670	1.270
2020/01/31 22:48:25.9	132.610	0.030	-0.610	1.240
2020/01/31 22:48:26.0	132.630	0.020	-0.550	1.210
2020/01/31 22:48:26.1	132.670	0.000	-0.490	1.180
2020/01/31 22:48:26.2	132.710	-0.020	-0.420	1.150
2020/01/31 22:48:26.3	132.750	-0.040	-0.340	1.120
2020/01/31 22:48:26.4	132.800	-0.070	-0.260	1.090
2020/01/31 22:48:26.5	132.840	-0.100	-0.180	1.060
2020/01/31 22:48:26.6	132.890	-0.130	-0.100	1.030
2020/01/31 22:48:26.7	132.930	-0.160	-0.020	0.990
2020/01/31 22:48:26.8	132.980	-0.190	0.060	0.960
2020/01/31 22:48:26.9	133.030	-0.230	0.140	0.930
2020/01/31 22:48:27.0	133.080	-0.260	0.220	0.890
2020/01/31 22:48:27.1	133.130	-0.300	0.300	0.860
2020/01/31 22:48:27.2	133.180	-0.330	0.370	0.820
2020/01/31 22:48:27.3	133.230	-0.370	0.430	0.790
2020/01/31 22:48:27.4	133.290	-0.400	0.500	0.750
2020/01/31 22:48:27.5	133.340	-0.430	0.550	0.710
2020/01/31 22:48:27.6	133.390	-0.460	0.600	0.670
2020/01/31 22:48:27.7	133.450	-0.490	0.640	0.630
2020/01/31 22:48:27.8	133.500	-0.520	0.680	0.590
2020/01/31 22:48:27.9	133.550	-0.540	0.700	0.550
2020/01/31 22:48:28.0	133.610	-0.560	0.720	0.510
2020/01/31 22:48:28.1	133.660	-0.580	0.730	0.470
2020/01/31 22:48:28.2	133.710	-0.590	0.720	0.430
2020/01/31 22:48:28.3	133.770	-0.600	0.720	0.390
2020/01/31 22:48:28.4	133.820	-0.610	0.700	0.350
2020/01/31 22:48:28.5	133.870	-0.610	0.670	0.320
2020/01/31 22:48:28.6	133.910	-0.600	0.630	0.290
2020/01/31 22:48:28.7	133.960	-0.600	0.590	0.260
2020/01/31 22:48:28.8	134.010	-0.590	0.540	0.240
2020/01/31 22:48:28.9	134.050	-0.570	0.480	0.210
2020/01/31 22:48:29.0	134.090	-0.550	0.410	0.200
2020/01/31 22:48:29.1	134.130	-0.530	0.340	0.180
2020/01/31 22:48:29.2	134.170	-0.500	0.260	0.170
2020/01/31 22:48:29.3	134.210	-0.480	0.180	0.160
2020/01/31 22:48:29.4	134.250	-0.440	0.100	0.150
2020/01/31 22:48:29.5	134.290	-0.410	0.020	0.150
2020/01/31 22:48:29.6	134.320	-0.370	-0.070	0.160
2020/01/31 22:48:29.7	134.350	-0.340	-0.150	0.160
2020/01/31 22:48:29.8	134.390	-0.300	-0.230	0.170
2020/01/31 22:48:29.9	134.420	-0.260	-0.310	0.180
2020/01/31 22:48:30.0	134.440	-0.220	-0.390	0.190
2020/01/31 22:48:30.1	134.470	-0.180	-0.460	0.210
2020/01/31 22:48:30.2	134.490	-0.140	-0.530	0.230
2020/01/31 22:48:30.3	134.520	-0.100	-0.600	0.250
2020/01/31 22:48:30.4	134.540	-0.060	-0.660	0.270
2020/01/31 22:48:30.5	134.570	-0.030	-0.710	0.290
2020/01/31 22:48:30.6	134.590	0.010	-0.750	0.310
2020/01/31 22:48:30.7	134.610	0.040	-0.790	0.340
2020/01/31 22:48:30.8	134.630	0.070	-0.820	0.360
2020/01/31 22:48:30.9	134.650	0.100	-0.840	0.390
2020/01/31 22:48:31.0	134.650	0.120	-0.860	0.410
2020/01/31 22:48:31.1	134.670	0.150	-0.870	0.430
2020/01/31 22:48:31.2	134.690	0.170	-0.870	0.460
2020/01/31 22:48:31.3	134.710	0.180	-0.860	0.490
2020/01/31 22:48:31.4	134.730	0.200	-0.850	0.510
2020/01/31 22:48:31.5	134.750	0.210	-0.820	0.540
2020/01/31 22:48:31.6	134.770	0.220	-0.800	0.560
2020/01/31 22:48:31.7	134.790	0.220	-0.760	0.580
2020/01/31 22:48:31.8	134.810	0.230	-0.720	0.600
2020/01/31 22:48:31.9	134.830	0.230	-0.670	0.630
2020/01/31 22:48:32.0	134.840	0.230	-0.620	0.650
2020/01/31 22:48:32.1	134.860	0.230	-0.570	0.660
2020/01/31 22:48:32.2	134.880	0.220	-0.510	0.680
2020/01/31 22:48:32.3	134.910	0.220	-0.450	0.700
2020/01/31 22:48:32.4	134.940	0.210	-0.380	0.710
2020/01/31 22:48:32.5	134.970	0.200	-0.310	0.720
2020/01/31 22:48:32.6	135.000	0.190	-0.250	0.720
2020/01/31 22:48:32.7	135.040	0.180	-0.180	0.730
2020/01/31 22:48:32.8	135.080	0.160	-0.110	0.730
2020/01/31 22:48:32.9	135.120	0.150	-0.040	0.730
2020/01/31 22:48:33.0	135.170	0.140	0.020	0.730
2020/01/31 22:48:33.1	135.210	0.120	0.090	0.730
2020/01/31 22:48:33.2	135.260	0.110	0.150	0.720
2020/01/31 22:48:33.3	135.310	0.090	0.210	0.710
2020/01/31 22:48:33.4	135.360	0.080	0.260	0.700
2020/01/31 22:48:33.5	135.410	0.070	0.310	0.700
2020/01/31 22:48:33.6	135.470	0.050	0.350	0.690
2020/01/31 22:48:33.7	135.520	0.040	0.380	0.680
2020/01/31 22:48:33.8	135.570	0.030	0.410	0.670
2020/01/31 22:48:33.9	135.630	0.020	0.430	0.660
2020/01/31 22:48:34.0	135.690	0.010	0.450	0.660
2020/01/31 22:48:34.1	135.740	0.000	0.450	0.650
2020/01/31 22:48:34.2	135.790	-0.000	0.450	0.650
2020/01/31 22:48:34.3	135.840	-0.000	0.440	0.640
2020/01/31 22:48:34.4	135.880	-0.000	0.430	0.640
2020/01/31 22:48:34.5	135.930	-0.000	0.400	0.640
2020/01/31 22:48:34.6	135.970	0.000	0.360	0.640
2020/01/31 22:48:34.7	136.000	0.010	0.320	0.640
2020/01/31 22:48:34.8	136.040	0.020	0.270	0.640
2020/01/31 22:48:34.9	136.070	0.030	0.210	0.640
2020/01/31 22:48:35.0	136.100	0.050	0.150	0.650
2020/01/31 22:48:35.1	136.120	0.060	0.080	0.650
2020/01/31 22:48:35.2	136.150	0.080	-0.000	0.650
2020/01/31 22:48:35.3	136.170	0.100	-0.080	0.660
2020/01/31 22:48:35.4	136.190	0.130	-0.160	0.660
2020/01/31 22:48:35.5	136.200	0.150	-0.250	0.670
2020/01/31 22:48:35.6	136.220	0.180	-0.340	0.670
2020/01/31 22:48:35.7	136.240	0.210	-0.430	0.670
2020/01/31 22:48:35.8	136.250	0.240	-0.520	0.680
2020/01/31 22:48:35.9	136.260	0.270	-0.610	0.680
2020/01/31 22:48:36.0	136.280	0.290	-0.690	0.680
2020/01/31 22:48:36.1	136.300	0.320	-0.780	0.690
2020/01/31 22:48:36.2	136.310	0.350	-0.850	0.700
2020/01/31 22:48:36.3	136.320	0.380	-0.920	0.710
2020/01/31 22:48:36.4	136.340	0.400	-0.990	0.720
2020/01/31 22:48:36.5	136.350	0.430	-1.050	0.740
2020/01/31 22:48:36.6	136.370	0.450	-1.090	0.750
2020/01/31 22:48:36.7	136.380	0.460	-1.130	0.770
2020/01/31 22:48:36.8	136.400	0.480	-1.160	0.780
2020/01/31 22:48:36.9	136.410	0.490	-1.180	0.800
2020/01/31 22:48:37.0	136.420	0.500	-1.190	0.830
2020/01/31 22:48:37.1	136.440	0.500	-1.190	0.850
2020/01/31 22:48:37.2	136.460	0.500	-1.170	0.870
2020/01/31 22:48:37.3	136.480	0.500	-1.150	0.890
2020/01/31 22:48:37.4	136.510	0.490	-1.110	0.900
2020/01/31 22:48:37.5	136.540	0.470	-1.060	0.920
2020/01/31 22:48:37.6	136.560	0.460	-1.010	0.940
2020/01/31 22:48:37.7	136.600	0.430	-0.940	0.960
2020/01/31 22:48:37.8	136.630	0.410	-0.870	0.970
2020/01/31 22:48:37.9	136.670	0.370	-0.790	0.990
2020/01/31 22:48:38.0	136.710	0.340	-0.700	1.000
2020/01/31 22:48:38.1	136.750	0.300	-0.600	1.010
2020/01/31 22:48:38.2	136.800	0.260	-0.500	1.020
2020/01/31 22:48:38.3	136.840	0.210	-0.400	1.030
2020/01/31 22:48:38.4	136.890	0.160	-0.290	1.030
2020/01/31 22:48:38.5	136.940	0.110	-0.190	1.040
2020/01/31 22:48:38.6	136.990	0.060	-0.080	1.040
2020/01/31 22:48:38.7	137.050	0.010	0.030	1.040
2020/01/31 22:48:38.8	137.100	-0.050	0.130	1.030
2020/01/31 22:48:38.9	137.160	-0.100	0.230	1.030
2020/01/31 22:48:39.0	137.220	-0.160	0.320	1.020
2020/01/31 22:48:39.1	137.280	-0.210	0.410	1.010
2020/01/31 22:48:39.2	137.340	-0.270	0.490	1.000
2020/01/31 22:48:39.3	137.400	-0.320	0.560	0.990
2020/01/31 22:48:39.4	137.460	-0.370	0.630	0.970
2020/01/31 22:48:39.5	137.510	-0.410	0.680	0.960
2020/01/31 22:48:39.6	137.570	-0.450	0.730	0.950
2020/01/31 22:48:39.7	137.620	-0.490	0.770	0.930
2020/01/31 22:48:39.8	137.670	-0.530	0.790	0.920
2020/01/31 22:48:39.9	137.720	-0.550	0.810	0.900
2020/01/31 22:48:40.0	137.750	-0.580	0.810	0.890
2020/01/31 22:48:40.1	137.790	-0.600	0.800	0.880
2020/01/31 22:48:40.2	137.830	-0.610	0.790	0.870
2020/01/31 22:48:40.3	137.870	-0.620	0.760	0.860
2020/01/31 22:48:40.4	137.900	-0.620	0.720	0.850
2020/01/31 22:48:40.5	137.940	-0.620	0.680	0.850
2020/01/31 22:48:40.6	137.970	-0.610	0.620	0.850
2020/01/31 22:48:40.7	138.000	-0.600	0.560	0.850
2020/01/31 22:48:40.8	138.020	-0.590	0.490	0.850
2020/01/31 22:48:40.9	138.050	-0.560	0.420	0.850
2020/01/31 22:48:41.0	138.070	-0.540	0.340	0.850
2020/01/31 22:48:41.1	138.100	-0.510	0.260	0.860
2020/01/31 22:48:41.2	138.120	-0.480	0.180	0.860
2020/01/31 22:48:41.3	138.140	-0.440	0.090	0.870
2020/01/31 22:48:41.4	138.170	-0.410	0.010	0.880
2020/01/31 22:48:41.5	138.190	-0.370	-0.080	0.890
2020/01/31 22:48:41.6	138.220	-0.330	-0.160	0.900
2020/01/31 22:48:41.7	138.240	-0.280	-0.240	0.910
2020/01/31 22:48:41.8	138.270	-0.240	-0.320	0.920
2020/01/31 22:48:41.9	138.300	-0.200	-0.390	0.930
2020/01/31 22:48:42.0	138.340	-0.160	-0.460	0.950
2020/01/31 22:48:42.1	138.370	-0.120	-0.520	0.960
2020/01/31 22:48:42.2	138.400	-0.070	-0.580	0.970
2020/01/31 22:48:42.3	138.430	-0.030	-0.630	0.980
2020/01/31 22:48:42.4	138.460	0.000	-0.670	0.990
2020/01/31 22:48:42.5	138.490	0.040	-0.710	0.990
2020/01/31 22:48:42.6	138.530	0.070	-0.740	1.000
2020/01/31 22:48:42.7	138.560	0.110	-0.760	1.000
2020/01/31 22:48:42.8	138.600	0.130	-0.770	1.000
2020/01/31 22:48:42.9	138.630	0.160	-0.780	1.000
2020/01/31 22:48:43.0	138.680	0.190	-0.780	0.990
2020/01/31 22:48:43.1	138.720	0.210	-0.780	0.990
2020/01/31 22:48:43.2	138.760	0.230	-0.770	0.980
2020/01/31 22:48:43.3	138.800	0.240	-0.750	0.970
2020/01/31 22:48:43.4	138.840	0.250	-0.730	0.950
2020/01/31 22:48:43.5	138.880	0.270	-0.700	0.940
2020/01/31 22:48:43.6	138.920	0.270	-0.670	0.920
2020/01/31 22:48:43.7	138.960	0.280	-0.640	0.900
2020/01/31 22:48:43.8	139.000	0.280	-0.610	0.880
2020/01/31 22:48:43.9	139.040	0.290	-0.570	0.850
2020/01/31 22:48:44.0	139.070	0.290	-0.540	0.830
2020/01/31 22:48:44.1	139.120	0.290	-0.500	0.800
2020/01/31 22:48:44.2	139.160	0.280	-0.460	0.770
2020/01/31 22:48:44.3	139.200	0.280	-0.420	0.750
2020/01/31 22:48:44.4	139.240	0.280	-0.390	0.720
2020/01/31 22:48:44.5	139.280	0.270	-0.350	0.690
2020/01/31 22:48:44.6	139.320	0.270	-0.320	0.670
2020/01/31 22:48:44.7	139.370	0.260	-0.300	0.640
2020/01/31 22:48:44.8	139.410	0.250	-0.270	0.610
2020/01/31 22:48:44.9	139.450	0.250	-0.250	0.590
2020/01/31 22:48:45.0	139.500	0.240	-0.230	0.570
2020/01/31 22:48:45.1	139.540	0.240	-0.220	0.550
2020/01/31 22:48:45.2	139.580	0.230	-0.210	0.530
2020/01/31 22:48:45.3	139.620	0.230	-0.200	0.510
2020/01/31 22:48:45.4	139.660	0.220	-0.200	0.490
2020/01/31 22:48:45.5	139.700	0.210	-0.200	0.480
2020/01/31 22:48:45.6	139.730	0.210	-0.210	0.460
2020/01/31 22:48:45.7	139.770	0.200	-0.220	0.450
2020/01/31 22:48:45.8	139.810	0.200	-0.230	0.440
2020/01/31 22:48:45.9	139.840	0.190	-0.240	0.430
2020/01/31 22:48:46.0	139.880	0.190	-0.260	0.420
2020/01/31 22:48:46.1	139.910	0.180	-0.280	0.420
2020/01/31 22:48:46.2	139.940	0.180	-0.300	0.420
2020/01/31 22:48:46.3	139.970	0.170	-0.330	0.420
2020/01/31 22:48:46.4	139.990	0.160	-0.350	0.430
2020/01/31 22:48:46.5	140.020	0.150	-0.370	0.440
2020/01/31 22:48:46.6	140.040	0.150	-0.390	0.450
2020/01/31 22:48:46.7	140.060	0.140	-0.420	0.470
2020/01/31 22:48:46.8	140.070	0.130	-0.440	0.490
2020/01/31 22:48:46.9	140.090	0.120	-0.460	0.510
2020/01/31 22:48:47.0	140.090	0.110	-0.470	0.540
2020/01/31 22:48:47.1	140.100	0.090	-0.490	0.570
2020/01/31 22:48:47.2	140.110	0.080	-0.500	0.600
2020/01/31 22:48:47.3	140.110	0.070	-0.510	0.630
2020/01/31 22:48:47.4	140.120	0.050	-0.510	0.660
2020/01/31 22:48:47.5	140.120	0.040	-0.520	0.700
2020/01/31 22:48:47.6	140.120	0.020	-0.520	0.730
2020/01/31 22:48:47.7	140.120	0.000	-0.510	0.770
2020/01/31 22:48:47.8	140.120	-0.010	-0.500	0.800
2020/01/31 22:48:47.9	140.120	-0.030	-0.480	0.840
2020/01/31 22:48:48.0	140.120	-0.050	-0.470	0.870
2020/01/31 22:48:48.1	140.120	-0.070	-0.450	0.910
2020/01/31 22:48:48.2	140.130	-0.090	-0.420	0.940
2020/01/31 22:48:48.3	140.130	-0.110	-0.390	0.970
2020/01/31 22:48:48.4	140.140	-0.120	-0.360	1.000
2020/01/31 22:48:48.5	140.150	-0.140	-0.320	1.030
2020/01/31 22:48:48.6	140.160	-0.160	-0.280	1.060
2020/01/31 22:48:48.7	140.170	-0.180	-0.240	1.080
2020/01/31 22:48:48.8	140.190	-0.200	-0.190	1.110
2020/01/31 22:48:48.9	140.210	-0.220	-0.150	1.130
2020/01/31 22:48:49.0	140.250	-0.240	-0.100	1.150
2020/01/31 22:48:49.1	140.270	-0.260	-0.050	1.160
2020/01/31 22:48:49.2	140.300	-0.270	-0.000	1.170
2020/01/31 22:48:49.3	140.330	-0.290	0.050	1.180
2020/01/31 22:48:49.4	140.370	-0.310	0.090	1.190
2020/01/31 22:48:49.5	140.400	-0.320	0.140	1.190
2020/01/31 22:48:49.6	140.440	-0.330	0.180	1.190
2020/01/31 22:48:49.7	140.480	-0.350	0.230	1.190
2020/01/31 22:48:49.8	140.520	-0.360	0.270	1.190
2020/01/31 22:48:49.9	140.570	-0.370	0.300	1.180
2020/01/31 22:48:50.0	140.600	-0.380	0.330	1.170
2020/01/31 22:48:50.1	140.650	-0.390	0.360	1.160
2020/01/31 22:48:50.2	140.700	-0.400	0.390	1.140
2020/01/31 22:48:50.3	140.750	-0.400	0.410	1.130
2020/01/31 22:48:50.4	140.810	-0.410	0.420	1.110
2020/01/31 22:48:50.5	140.860	-0.410	0.430	1.090
2020/01/31 22:48:50.6	140.920	-0.410	0.440	1.070
2020/01/31 22:48:50.7	140.970	-0.410	0.440	1.050
2020/01/31 22:48:50.8	141.030	-0.410	0.430	1.040
2020/01/31 22:48:50.9	141.080	-0.410	0.410	1.020
2020/01/31 22:48:51.0	141.110	-0.400	0.400	1.000
2020/01/31 22:48:51.1	141.170	-0.400	0.370	0.980
2020/01/31 22:48:51.2	141.220	-0.390	0.340	0.970
2020/01/31 22:48:51.3	141.260	-0.380	0.300	0.960
2020/01/31 22:48:51.4	141.310	-0.360	0.260	0.950
2020/01/31 22:48:51.5	141.350	-0.350	0.210	0.940
2020/01/31 22:48:51.6	141.400	-0.330	0.160	0.940
2020/01/31 22:48:51.7	141.430	-0.310	0.100	0.940
2020/01/31 22:48:51.8	141.470	-0.290	0.040	0.940
2020/01/31 22:48:51.9	141.500	-0.260	-0.030	0.940
2020/01/31 22:48:52.0	141.510	-0.230	-0.100	0.950
2020/01/31 22:48:52.1	141.540	-0.210	-0.170	0.960
2020/01/31 22:48:52.2	141.560	-0.180	-0.230	0.960
2020/01/31 22:48:52.3	141.580	-0.150	-0.300	0.970
2020/01/31 22:48:52.4	141.590	-0.110	-0.370	0.980
2020/01/31 22:48:52.5	141.610	-0.080	-0.430	0.990
2020/01/31 22:48:52.6	141.620	-0.040	-0.490	1.000
2020/01/31 22:48:52.7	141.630	-0.010	-0.540	1.010
2020/01/31 22:48:52.8	141.640	0.020	-0.590	1.010
2020/01/31 22:48:52.9	141.660	0.060	-0.630	1.020
2020/01/31 22:48:53.0	141.670	0.090	-0.670	1.020
2020/01/31 22:48:53.1	141.680	0.120	-0.690	1.030
2020/01/31 22:48:53.2	141.690	0.150	-0.710	1.030
2020/01/31 22:48:53.3	141.710	0.180	-0.730	1.030
2020/01/31 22:48:53.4	141.730	0.210	-0.730	1.030
2020/01/31 22:48:53.5	141.740	0.240	-0.730	1.030
2020/01/31 22:48:53.6	141.760	0.260	-0.720	1.020
2020/01/31 22:48:53.7	141.790	0.280	-0.700	1.010
2020/01/31 22:48:53.8	141.810	0.300	-0.670	1.000
2020/01/31 22:48:53.9	141.840	0.320	-0.640	0.990
2020/01/31 22:48:54.0	141.860	0.330	-0.600	0.980
2020/01/31 22:48:54.1	141.900	0.340	-0.560	0.970
2020/01/31 22:48:54.2	141.930	0.350	-0.510	0.950
2020/01/31 22:48:54.3	141.970	0.350	-0.460	0.930
2020/01/31 22:48:54.4	142.010	0.350	-0.400	0.910
2020/01/31 22:48:54.5	142.050	0.350	-0.350	0.890
2020/01/31 22:48:54.6	142.100	0.350	-0.290	0.870
2020/01/31 22:48:54.7	142.140	0.340	-0.230	0.850
2020/01/31 22:48:54.8	142.190	0.340	-0.170	0.820
2020/01/31 22:48:54.9	142.240	0.330	-0.120	0.800
2020/01/31 22:48:55.0	142.270	0.320	-0.070	0.770
2020/01/31 22:48:55.1	142.320	0.300	-0.020	0.750
2020/01/31 22:48:55.2	142.370	0.290	0.020	0.720
2020/01/31 22:48:55.3	142.420	0.280	0.060	0.700
2020/01/31 22:48:55.4	142.470	0.260	0.100	0.670
2020/01/31 22:48:55.5	142.520	0.240	0.120	0.650
2020/01/31 22:48:55.6	142.570	0.230	0.150	0.620
2020/01/31 22:48:55.7	142.610	0.210	0.160	0.600
2020/01/31 22:48:55.8	142.660	0.190	0.170	0.580
2020/01/31 22:48:55.9	142.700	0.180	0.180	0.560
2020/01/31 22:48:56.0	142.760	0.160	0.180	0.550
2020/01/31 22:48:56.1	142.800	0.140	0.170	0.530
2020/01/31 22:48:56.2	142.840	0.130	0.150	0.510
2020/01/31 22:48:56.3	142.880	0.110	0.140	0.500
2020/01/31 22:48:56.4	142.920	0.090	0.110	0.490
2020/01/31 22:48:56.5	142.960	0.080	0.080	0.480
2020/01/31 22:48:56.6	143.000	0.060	0.050	0.470
2020/01/31 22:48:56.7	143.030	0.050	0.020	0.470
2020/01/31 22:48:56.8	143.060	0.030	-0.020	0.470
2020/01/31 22:48:56.9	143.090	0.020	-0.070	0.470
2020/01/31 22:48:57.0	143.120	0.000	-0.110	0.470
2020/01/31 22:48:57.1	143.150	-0.010	-0.160	0.480
2020/01/31 22:48:57.2	143.170	-0.020	-0.210	0.500
2020/01/31 22:48:57.3	143.190	-0.040	-0.260	0.510
2020/01/31 22:48:57.4	143.210	-0.050	-0.310	0.540
2020/01/31 22:48:57.5	143.230	-0.060	-0.360	0.560
2020/01/31 22:48:57.6	143.240	-0.070	-0.400	0.590
2020/01/31 22:48:57.7	143.250	-0.080	-0.450	0.620
2020/01/31 22:48:57.8	143.260	-0.090	-0.500	0.660
2020/01/31 22:48:57.9	143.270	-0.090	-0.540	0.700
2020/01/31 22:48:58.0	143.280	-0.100	-0.580	0.750
2020/01/31 22:48:58.1	143.280	-0.110	-0.620	0.790
2020/01/31 22:48:58.2	143.280	-0.110	-0.660	0.830
2020/01/31 22:48:58.3	143.280	-0.120	-0.690	0.880
2020/01/31 22:48:58.4	143.280	-0.120	-0.720	0.920
2020/01/31 22:48:58.5	143.280	-0.130	-0.740	0.960
2020/01/31 22:48:58.6	143.270	-0.130	-0.760	1.010
2020/01/31 22:48:58.7	143.270	-0.130	-0.780	1.050
2020/01/31 22:48:58.8	143.270	-0.130	-0.790	1.090
2020/01/31 22:48:58.9	143.270	-0.130	-0.800	1.130
2020/01/31 22:48:59.0	143.280	-0.120	-0.810	1.160
2020/01/31 22:48:59.1	143.280	-0.120	-0.810	1.200
2020/01/31 22:48:59.2	143.280	-0.120	-0.800	1.230
2020/01/31 22:48:59.3	143.290	-0.110	-0.790	1.260
2020/01/31 22:48:59.4	143.290	-0.110	-0.780	1.280
2020/01/31 22:48:59.5	143.300	-0.100	-0.770	1.310
2020/01/31 22:48:59.6	143.310	-0.090	-0.750	1.330
2020/01/31 22:48:59.7	143.320	-0.090	-0.730	1.340
2020/01/31 22:48:59.8	143.330	-0.080	-0.700	1.360
2020/01/31 22:48:59.9	143.350	-0.070	-0.670	1.370
2020/01/31 22:49:00.0	143.390	-0.060	-0.640	1.380
2020/01/31 22:49:00.1	143.410	-0.050	-0.610	1.390
2020/01/31 22:49:00.2	143.430	-0.040	-0.570	1.390
2020/01/31 22:49:00.3	143.460	-0.030	-0.530	1.390
2020/01/31 22:49:00.4	143.490	-0.020	-0.490	1.380
2020/01/31 22:49:00.5	143.520	-0.010	-0.440	1.370
2020/01/31 22:49:00.6	143.550	-0.010	-0.400	1.360
2020/01/31 22:49:00.7	143.580	0.000	-0.350	1.350
2020/01/31 22:49:00.8	143.620	0.010	-0.310	1.340
2020/01/31 22:49:00.9	143.660	0.010	-0.260	1.320
2020/01/31 22:49:01.0	143.710	0.020	-0.220	1.300
2020/01/31 22:49:01.1	143.750	0.020	-0.170	1.280
2020/01/31 22:49:01.2	143.800	0.030	-0.130	1.250
2020/01/31 22:49:01.3	143.840	0.030	-0.090	1.230
2020/01/31 22:49:01.4	143.880	0.030	-0.050	1.200
2020/01/31 22:49:01.5	143.930	0.040	-0.010	1.180
2020/01/31 22:49:01.6	143.970	0.040	0.020	1.150
2020/01/31 22:49:01.7	144.010	0.040	0.050	1.120
2020/01/31 22:49:01.8	144.060	0.040	0.080	1.090
2020/01/31 22:49:01.9	144.100	0.040	0.100	1.060
2020/01/31 22:49:02.0	144.160	0.040	0.120	1.030
2020/01/31 22:49:02.1	144.200	0.030	0.130	1.000
2020/01/31 22:49:02.2	144.240	0.030	0.140	0.970
2020/01/31 22:49:02.3	144.290	0.030	0.150	0.950
2020/01/31 22:49:02.4	144.330	0.020	0.160	0.920
2020/01/31 22:49:02.5	144.370	0.020	0.160	0.890
2020/01/31 22:49:02.6	144.420	0.020	0.160	0.860
2020/01/31 22:49:02.7	144.460	0.010	0.150	0.840
2020/01/31 22:49:02.8	144.510	0.010	0.150	0.810
2020/01/31 22:49:02.9	144.560	0.000	0.150	0.790
2020/01/31 22:49:03.0	144.600	-0.000	0.140	0.750
2020/01/31 22:49:03.1	144.650	-0.010	0.130	0.730
2020/01/31 22:49:03.2	144.710	-0.010	0.130	0.710
2020/01/31 22:49:03.3	144.760	-0.020	0.120	0.700
2020/01/31 22:49:03.4	144.810	-0.030	0.120	0.680
2020/01/31 22:49:03.5	144.870	-0.030	0.120	0.670
2020/01/31 22:49:03.6	144.930	-0.040	0.120	0.660
2020/01/31 22:49:03.7	144.990	-0.050	0.120	0.650
2020/01/31 22:49:03.8	145.040	-0.050	0.120	0.640
2020/01/31 22:49:03.9	145.100	-0.060	0.130	0.640
2020/01/31 22:49:04.0	145.160	-0.070	0.130	0.640
2020/01/31 22:49:04.1	145.220	-0.080	0.140	0.640
2020/01/31 22:49:04.2	145.290	-0.080	0.150	0.650
2020/01/31 22:49:04.3	145.340	-0.090	0.170	0.650
2020/01/31 22:49:04.4	145.410	-0.100	0.180	0.660
2020/01/31 22:49:04.5	145.460	-0.110	0.190	0.660
2020/01/31 22:49:04.6	145.520	-0.120	0.210	0.670
2020/01/31 22:49:04.7	145.580	-0.120	0.220	0.680
2020/01/31 22:49:04.8	145.640	-0.130	0.240	0.700
2020/01/31 22:49:04.9	145.690	-0.140	0.250	0.710
2020/01/31 22:49:05.0	145.740	-0.140	0.260	0.720
2020/01/31 22:49:05.1	145.790	-0.150	0.270	0.730
2020/01/31 22:49:05.2	145.840	-0.150	0.280	0.740
2020/01/31 22:49:05.3	145.880	-0.150	0.280	0.760
2020/01/31 22:49:05.4	145.930	-0.150	0.280	0.770
2020/01/31 22:49:05.5	145.960	-0.150	0.270	0.790
2020/01/31 22:49:05.6	146.000	-0.150	0.260	0.810
2020/01/31 22:49:05.7	146.030	-0.140	0.240	0.830
2020/01/31 22:49:05.8	146.060	-0.130	0.220	0.850
2020/01/31 22:49:05.9	146.090	-0.120	0.190	0.870
2020/01/31 22:49:06.0	146.120	-0.110	0.150	0.890
2020/01/31 22:49:06.1	146.140	-0.090	0.110	0.910
2020/01/31 22:49:06.2	146.150	-0.070	0.060	0.930
2020/01/31 22:49:06.3	146.160	-0.050	0.000	0.950
2020/01/31 22:49:06.4	146.170	-0.030	-0.060	0.980
2020/01/31 22:49:06.5	146.180	-0.000	-0.120	1.000
2020/01/31 22:49:06.6	146.190	0.020	-0.190	1.030
2020/01/31 22:49:06.7	146.190	0.050	-0.260	1.050
2020/01/31 22:49:06.8	146.190	0.080	-0.330	1.080
2020/01/31 22:49:06.9	146.190	0.110	-0.410	1.100
2020/01/31 22:49:07.0	146.200	0.140	-0.480	1.130
2020/01/31 22:49:07.1	146.200	0.180	-0.560	1.160
2020/01/31 22:49:07.2	146.200	0.210	-0.630	1.190
2020/01/31 22:49:07.3	146.200	0.240	-0.700	1.210
2020/01/31 22:49:07.4	146.200	0.270	-0.770	1.240
2020/01/31 22:49:07.5	146.200	0.300	-0.830	1.270
2020/01/31 22:49:07.6	146.200	0.320	-0.890	1.290
2020/01/31 22:49:07.7	146.210	0.350	-0.930	1.320
2020/01/31 22:49:07.8	146.220	0.370	-0.980	1.340
2020/01/31 22:49:07.9	146.220	0.390	-1.010	1.360
2020/01/31 22:49:08.0	146.210	0.410	-1.040	1.380
2020/01/31 22:49:08.1	146.230	0.420	-1.060	1.400
2020/01/31 22:49:08.2	146.240	0.430	-1.070	1.410
2020/01/31 22:49:08.3	146.260	0.440	-1.070	1.420
2020/01/31 22:49:08.4	146.280	0.440	-1.060	1.420
2020/01/31 22:49:08.5	146.300	0.440	-1.040	1.430
2020/01/31 22:49:08.6	146.320	0.440	-1.020	1.420
2020/01/31 22:49:08.7	146.350	0.430	-0.990	1.420
2020/01/31 22:49:08.8	146.380	0.420	-0.950	1.410
2020/01/31 22:49:08.9	146.410	0.400	-0.910	1.400
2020/01/31 22:49:09.0	146.450	0.380	-0.860	1.380
2020/01/31 22:49:09.1	146.490	0.360	-0.800	1.360
2020/01/31 22:49:09.2	146.520	0.330	-0.740	1.330
2020/01/31 22:49:09.3	146.560	0.300	-0.680	1.310
2020/01/31 22:49:09.4	146.590	0.270	-0.620	1.280
2020/01/31 22:49:09.5	146.630	0.230	-0.550	1.250
2020/01/31 22:49:09.6	146.670	0.200	-0.480	1.220
2020/01/31 22:49:09.7	146.710	0.160	-0.410	1.190
2020/01/31 22:49:09.8	146.750	0.120	-0.350	1.150
2020/01/31 22:49:09.9	146.790	0.070	-0.280	1.120
2020/01/31 22:49:10.0	146.840	0.030	-0.220	1.090
2020/01/31 22:49:10.1	146.880	-0.010	-0.160	1.060
2020/01/31 22:49:10.2	146.920	-0.060	-0.100	1.030
2020/01/31 22:49:10.3	146.960	-0.110	-0.050	1.000
2020/01/31 22:49:10.4	147.000	-0.150	0.000	0.970
2020/01/31 22:49:10.5	147.050	-0.200	0.050	0.940
2020/01/31 22:49:10.6	147.090	-0.240	0.100	0.920
2020/01/31 22:49:10.7	147.130	-0.280	0.130	0.900
2020/01/31 22:49:10.8	147.180	-0.330	0.170	0.880
2020/01/31 22:49:10.9	147.220	-0.370	0.200	0.860
2020/01/31 22:49:11.0	147.270	-0.410	0.220	0.840
2020/01/31 22:49:11.1	147.310	-0.450	0.240	0.820
2020/01/31 22:49:11.2	147.360	-0.480	0.250	0.810
2020/01/31 22:49:11.3	147.400	-0.520	0.260	0.800
2020/01/31 22:49:11.4	147.450	-0.550	0.260	0.790
2020/01/31 22:49:11.5	147.490	-0.580	0.250	0.790
2020/01/31 22:49:11.6	147.540	-0.600	0.240	0.780
2020/01/31 22:49:11.7	147.580	-0.630	0.230	0.780
2020/01/31 22:49:11.8	147.630	-0.650	0.210	0.780
2020/01/31 22:49:11.9	147.670	-0.660	0.180	0.780
2020/01/31 22:49:12.0	147.700	-0.680	0.150	0.790
2020/01/31 22:49:12.1	147.740	-0.690	0.120	0.790
2020/01/31 22:49:12.2	147.790	-0.700	0.080	0.800
2020/01/31 22:49:12.3	147.830	-0.700	0.050	0.810
2020/01/31 22:49:12.4	147.870	-0.700	0.000	0.810
2020/01/31 22:49:12.5	147.910	-0.690	-0.040	0.820
2020/01/31 22:49:12.6	147.950	-0.680	-0.080	0.830
2020/01/31 22:49:12.7	147.990	-0.670	-0.130	0.840
2020/01/31 22:49:12.8	148.020	-0.660	-0.180	0.850
2020/01/31 22:49:12.9	148.060	-0.640	-0.230	0.850
2020/01/31 22:49:13.0	148.090	-0.610	-0.270	0.860
2020/01/31 22:49:13.1	148.130	-0.590	-0.320	0.870
2020/01/31 22:49:13.2	148.170	-0.560	-0.370	0.880
2020/01/31 22:49:13.3	148.210	-0.530	-0.410	0.880
2020/01/31 22:49:13.4	148.240	-0.490	-0.460	0.890
2020/01/31 22:49:13.5	148.280	-0.450	-0.510	0.900
2020/01/31 22:49:13.6	148.320	-0.410	-0.550	0.910
2020/01/31 22:49:13.7	148.350	-0.370	-0.590	0.920
2020/01/31 22:49:13.8	148.380	-0.330	-0.630	0.920
2020/01/31 22:49:13.9	148.410	-0.280	-0.670	0.930
2020/01/31 22:49:14.0	148.450	-0.230	-0.700	0.940
2020/01/31 22:49:14.1	148.480	-0.190	-0.730	0.950
2020/01/31 22:49:14.2	148.510	-0.140	-0.750	0.950
2020/01/31 22:49:14.3	148.530	-0.090	-0.770	0.960
2020/01/31 22:49:14.4	148.560	-0.050	-0.780	0.960
2020/01/31 22:49:14.5	148.590	-0.000	-0.790	0.960
2020/01/31 22:49:14.6	148.610	0.040	-0.800	0.960
2020/01/31 22:49:14.7	148.640	0.080	-0.800	0.960
2020/01/31 22:49:14.8	148.670	0.120	-0.790	0.950
2020/01/31 22:49:14.9	148.700	0.160	-0.780	0.940
2020/01/31 22:49:15.0	148.720	0.190	-0.760	0.930
2020/01/31 22:49:15.1	148.750	0.220	-0.730	0.920
2020/01/31 22:49:15.2	148.780	0.250	-0.700	0.900
2020/01/31 22:49:15.3	148.820	0.270	-0.660	0.890
2020/01/31 22:49:15.4	148.850	0.290	-0.620	0.870
2020/01/31 22:49:15.5	148.890	0.300	-0.570	0.850
2020/01/31 22:49:15.6	148.920	0.310	-0.510	0.830
2020/01/31 22:49:15.7	148.960	0.320	-0.450	0.810
2020/01/31 22:49:15.8	149.000	0.320	-0.380	0.790
2020/01/31 22:49:15.9	149.050	0.320	-0.310	0.770
2020/01/31 22:49:16.0	149.090	0.320	-0.240	0.740
2020/01/31 22:49:16.1	149.140	0.310	-0.170	0.720
2020/01/31 22:49:16.2	149.190	0.300	-0.090	0.700
2020/01/31 22:49:16.3	149.230	0.290	-0.010	0.680
2020/01/31 22:49:16.4	149.280	0.280	0.070	0.670
2020/01/31 22:49:16.5	149.330	0.260	0.140	0.650
2020/01/31 22:49:16.6	149.380	0.240	0.220	0.630
2020/01/31 22:49:16.7	149.430	0.220	0.290	0.610
2020/01/31 22:49:16.8	149.480	0.200	0.370	0.590
2020/01/31 22:49:16.9	149.530	0.180	0.430	0.580
2020/01/31 22:49:17.0	149.580	0.150	0.500	0.570
2020/01/31 22:49:17.1	149.630	0.130	0.560	0.550
2020/01/31 22:49:17.2	149.670	0.110	0.610	0.530
2020/01/31 22:49:17.3	149.720	0.090	0.660	0.520
2020/01/31 22:49:17.4	149.770	0.070	0.700	0.510
2020/01/31 22:49:17.5	149.810	0.060	0.730	0.490
2020/01/31 22:49:17.6	149.850	0.040	0.760	0.480
2020/01/31 22:49:17.7	149.890	0.030	0.770	0.460
2020/01/31 22:49:17.8	149.930	0.020	0.780	0.450
2020/01/31 22:49:17.9	149.970	0.010	0.780	0.440
2020/01/31 22:49:18.0	150.000	0.010	0.780	0.420
2020/01/31 22:49:18.1	150.040	0.000	0.760	0.410
2020/01/31 22:49:18.2	150.070	0.000	0.730	0.400
2020/01/31 22:49:18.3	150.100	0.000	0.700	0.390
2020/01/31 22:49:18.4	150.130	0.010	0.650	0.380
2020/01/31 22:49:18.5	150.160	0.010	0.600	0.370
2020/01/31 22:49:18.6	150.190	0.020	0.550	0.370
2020/01/31 22:49:18.7	150.210	0.030	0.480	0.360
2020/01/31 22:49:18.8	150.240	0.040	0.410	0.360
2020/01/31 22:49:18.9	150.260	0.050	0.340	0.360
2020/01/31 22:49:19.0	150.290	0.060	0.250	0.370
2020/01/31 22:49:19.1	150.310	0.080	0.170	0.380
2020/01/31 22:49:19.2	150.330	0.090	0.080	0.390
2020/01/31 22:49:19.3	150.350	0.110	-0.010	0.410
2020/01/31 22:49:19.4	150.370	0.120	-0.100	0.430
2020/01/31 22:49:19.5	150.380	0.130	-0.200	0.450
2020/01/31 22:49:19.6	150.400	0.150	-0.290	0.480
2020/01/31 22:49:19.7	150.410	0.160	-0.380	0.510
2020/01/31 22:49:19.8	150.430	0.170	-0.470	0.550
2020/01/31 22:49:19.9	150.440	0.190	-0.560	0.600
2020/01/31 22:49:20.0	150.460	0.200	-0.640	0.640
2020/01/31 22:49:20.1	150.470	0.200	-0.720	0.690
2020/01/31 22:49:20.2	150.490	0.210	-0.800	0.750
2020/01/31 22:49:20.3	150.500	0.220	-0.870	0.800
2020/01/31 22:49:20.4	150.510	0.220	-0.940	0.860
2020/01/31 22:49:20.5	150.530	0.230	-1.000	0.920
2020/01/31 22:49:20.6	150.540	0.230	-1.050	0.980
2020/01/31 22:49:20.7	150.560	0.230	-1.100	1.040
2020/01/31 22:49:20.8	150.570	0.230	-1.130	1.100
2020/01/31 22:49:20.9	150.590	0.220	-1.160	1.160
2020/01/31 22:49:21.0	150.620	0.220	-1.190	1.210
2020/01/31 22:49:21.1	150.640	0.210	-1.200	1.270
2020/01/31 22:49:21.2	150.660	0.210	-1.210	1.320
2020/01/31 22:49:21.3	150.690	0.200	-1.200	1.360
2020/01/31 22:49:21.4	150.710	0.190	-1.190	1.400
2020/01/31 22:49:21.5	150.740	0.180	-1.170	1.440
2020/01/31 22:49:21.6	150.760	0.160	-1.140	1.470
2020/01/31 22:49:21.7	150.790	0.150	-1.100	1.500
2020/01/31 22:49:21.8	150.820	0.140	-1.060	1.530
2020/01/31 22:49:21.9	150.860	0.120	-1.010	1.550
2020/01/31 22:49:22.0	150.890	0.100	-0.950	1.570
2020/01/31 22:49:22.1	150.930	0.090	-0.890	1.580
2020/01/31 22:49:22.2	150.970	0.070	-0.820	1.590
2020/01/31 22:49:22.3	151.000	0.050	-0.750	1.600
2020/01/31 22:49:22.4	151.040	0.030	-0.670	1.600
2020/01/31 22:49:22.5	151.080	0.010	-0.600	1.610
2020/01/31 22:49:22.6	151.130	-0.010	-0.520	1.600
2020/01/31 22:49:22.7	151.170	-0.030	-0.440	1.600
2020/01/31 22:49:22.8	151.210	-0.050	-0.360	1.600
2020/01/31 22:49:22.9	151.250	-0.070	-0.270	1.590
2020/01/31 22:49:23.0	151.300	-0.090	-0.200	1.580
2020/01/31 22:49:23.1	151.340	-0.110	-0.120	1.570
2020/01/31 22:49:23.2	151.390	-0.130	-0.050	1.550
2020/01/31 22:49:23.3	151.430	-0.150	0.030	1.540
2020/01/31 22:49:23.4	151.470	-0.180	0.090	1.520
2020/01/31 22:49:23.5	151.520	-0.200	0.160	1.510
2020/01/31 22:49:23.6	151.560	-0.220	0.220	1.490
2020/01/31 22:49:23.7	151.610	-0.240	0.270	1.470
2020/01/31 22:49:23.8	151.650	-0.260	0.320	1.450
2020/01/31 22:49:23.9	151.690	-0.270	0.370	1.430
2020/01/31 22:49:24.0	151.740	-0.290	0.410	1.420
2020/01/31 22:49:24.1	151.780	-0.310	0.440	1.400
2020/01/31 22:49:24.2	151.820	-0.330	0.460	1.370
2020/01/31 22:49:24.3	151.860	-0.340	0.480	1.350
2020/01/31 22:49:24.4	151.910	-0.360	0.490	1.330
2020/01/31 22:49:24.5	151.950	-0.370	0.500	1.310
2020/01/31 22:49:24.6	151.990	-0.380	0.500	1.290
2020/01/31 22:49:24.7	152.030	-0.390	0.490	1.270
2020/01/31 22:49:24.8	152.070	-0.400	0.470	1.250
2020/01/31 22:49:24.9	152.120	-0.410	0.450	1.230
2020/01/31 22:49:25.0	152.140	-0.420	0.430	1.200
2020/01/31 22:49:25.1	152.190	-0.420	0.400	1.180
2020/01/31 22:49:25.2	152.230	-0.420	0.360	1.150
2020/01/31 22:49:25.3	152.270	-0.420	0.320	1.130
2020/01/31 22:49:25.4	152.310	-0.420	0.270	1.110
2020/01/31 22:49:25.5	152.350	-0.420	0.230	1.090
2020/01/31 22:49:25.6	152.380	-0.420	0.170	1.070
2020/01/31 22:49:25.7	152.420	-0.410	0.120	1.040
2020/01/31 22:49:25.8	152.460	-0.400	0.060	1.020
2020/01/31 22:49:25.9	152.500	-0.390	0.010	1.000
2020/01/31 22:49:26.0	152.540	-0.380	-0.050	0.970
2020/01/31 22:49:26.1	152.580	-0.370	-0.110	0.950
2020/01/31 22:49:26.2	152.610	-0.350	-0.170	0.930
2020/01/31 22:49:26.3	152.650	-0.340	-0.230	0.900
2020/01/31 22:49:26.4	152.680	-0.320	-0.290	0.880
2020/01/31 22:49:26.5	152.720	-0.290	-0.340	0.860
2020/01/31 22:49:26.6	152.750	-0.270	-0.400	0.830
2020/01/31 22:49:26.7	152.780	-0.250	-0.450	0.810
2020/01/31 22:49:26.8	152.810	-0.220	-0.500	0.790
2020/01/31 22:49:26.9	152.840	-0.190	-0.550	0.770
2020/01/31 22:49:27.0	152.860	-0.160	-0.590	0.740
2020/01/31 22:49:27.1	152.890	-0.130	-0.640	0.720
2020/01/31 22:49:27.2	152.920	-0.100	-0.680	0.700
2020/01/31 22:49:27.3	152.950	-0.070	-0.710	0.680
2020/01/31 22:49:27.4	152.980	-0.030	-0.750	0.660
2020/01/31 22:49:27.5	153.010	0.000	-0.780	0.640
2020/01/31 22:49:27.6	153.040	0.040	-0.810	0.620
2020/01/31 22:49:27.7	153.060	0.080	-0.830	0.600
2020/01/31 22:49:27.8	153.090	0.120	-0.850	0.590
2020/01/31 22:49:27.9	153.120	0.150	-0.870	0.570
2020/01/31 22:49:28.0	153.150	0.190	-0.880	0.560
2020/01/31 22:49:28.1	153.170	0.230	-0.890	0.540
2020/01/31 22:49:28.2	153.200	0.260	-0.900	0.530
2020/01/31 22:49:28.3	153.220	0.300	-0.900	0.510
2020/01/31 22:49:28.4	153.250	0.340	-0.900	0.500
2020/01/31 22:49:28.5	153.270	0.370	-0.890	0.490
2020/01/31 22:49:28.6	153.290	0.400	-0.880	0.480
2020/01/31 22:49:28.7	153.320	0.430	-0.870	0.470
2020/01/31 22:49:28.8	153.340	0.450	-0.850	0.460
2020/01/31 22:49:28.9	153.360	0.480	-0.820	0.450
2020/01/31 22:49:29.0	153.380	0.500	-0.800	0.450
2020/01/31 22:49:29.1	153.400	0.520	-0.760	0.440
2020/01/31 22:49:29.2	153.420	0.530	-0.720	0.430
2020/01/31 22:49:29.3	153.440	0.540	-0.680	0.430
2020/01/31 22:49:29.4	153.470	0.550	-0.630	0.420
2020/01/31 22:49:29.5	153.490	0.550	-0.570	0.420
2020/01/31 22:49:29.6	153.520	0.540	-0.510	0.420
2020/01/31 22:49:29.7	153.540	0.540	-0.450	0.420
2020/01/31 22:49:29.8	153.570	0.530	-0.380	0.410
2020/01/31 22:49:29.9	153.600	0.510	-0.310	0.420
2020/01/31 22:49:30.0	153.630	0.490	-0.240	0.410
2020/01/31 22:49:30.1	153.660	0.470	-0.160	0.410
2020/01/31 22:49:30.2	153.690	0.440	-0.080	0.420
2020/01/31 22:49:30.3	153.720	0.410	0.000	0.420
2020/01/31 22:49:30.4	153.760	0.380	0.080	0.430
2020/01/31 22:49:30.5	153.790	0.340	0.160	0.430
2020/01/31 22:49:30.6	153.830	0.300	0.240	0.440
2020/01/31 22:49:30.7	153.870	0.260	0.320	0.450
2020/01/31 22:49:30.8	153.910	0.210	0.400	0.460
2020/01/31 22:49:30.9	153.950	0.170	0.470	0.470
2020/01/31 22:49:31.0	153.970	0.120	0.540	0.480
2020/01/31 22:49:31.1	154.020	0.080	0.600	0.500
2020/01/31 22:49:31.2	154.060	0.030	0.660	0.510
2020/01/31 22:49:31.3	154.110	-0.010	0.710	0.530
2020/01/31 22:49:31.4	154.150	-0.060	0.750	0.560
2020/01/31 22:49:31.5	154.200	-0.100	0.780	0.580
2020/01/31 22:49:31.6	154.250	-0.140	0.810	0.600
2020/01/31 22:49:31.7	154.300	-0.170	0.820	0.630
2020/01/31 22:49:31.8	154.350	-0.210	0.830	0.660
2020/01/31 22:49:31.9	154.400	-0.240	0.830	0.690
2020/01/31 22:49:32.0	154.430	-0.260	0.810	0.720
2020/01/31 22:49:32.1	154.480	-0.290	0.790	0.750
2020/01/31 22:49:32.2	154.530	-0.300	0.760	0.780
2020/01/31 22:49:32.3	154.580	-0.320	0.720	0.810
2020/01/31 22:49:32.4	154.620	-0.320	0.670	0.840
2020/01/31 22:49:32.5	154.660	-0.330	0.610	0.870
2020/01/31 22:49:32.6	154.700	-0.330	0.540	0.890
2020/01/31 22:49:32.7	154.740	-0.320	0.460	0.920
2020/01/31 22:49:32.8	154.780	-0.310	0.380	0.950
2020/01/31 22:49:32.9	154.810	-0.300	0.290	0.980
2020/01/31 22:49:33.0	154.840	-0.280	0.200	1.000
2020/01/31 22:49:33.1	154.870	-0.250	0.100	1.030
2020/01/31 22:49:33.2	154.900	-0.230	-0.010	1.050
2020/01/31 22:49:33.3	154.920	-0.200	-0.110	1.080
2020/01/31 22:49:33.4	154.950	-0.170	-0.220	1.110
2020/01/31 22:49:33.5	154.970	-0.130	-0.320	1.130
2020/01/31 22:49:33.6	154.990	-0.100	-0.430	1.160
2020/01/31 22:49:33.7	155.000	-0.060	-0.530	1.180
2020/01/31 22:49:33.8	155.020	-0.020	-0.640	1.210
2020/01/31 22:49:33.9	155.040	0.010	-0.730	1.230
2020/01/31 22:49:34.0	155.060	0.050	-0.830	1.260
2020/01/31 22:49:34.1	155.070	0.090	-0.920	1.290
2020/01/31 22:49:34.2	155.090	0.120	-1.000	1.320
2020/01/31 22:49:34.3	155.100	0.160	-1.080	1.350
2020/01/31 22:49:34.4	155.110	0.190	-1.150	1.380
2020/01/31 22:49:34.5	155.120	0.220	-1.210	1.410
2020/01/31 22:49:34.6	155.130	0.250	-1.270	1.450
2020/01/31 22:49:34.7	155.150	0.270	-1.320	1.480
2020/01/31 22:49:34.8	155.160	0.290	-1.360	1.520
2020/01/31 22:49:34.9	155.170	0.310	-1.390	1.550
2020/01/31 22:49:35.0	155.180	0.320	-1.410	1.580
2020/01/31 22:49:35.1	155.200	0.330	-1.420	1.610
2020/01/31 22:49:35.2	155.220	0.340	-1.420	1.640
2020/01/31 22:49:35.3	155.230	0.340	-1.410	1.670
2020/01/31 22:49:35.4	155.250	0.340	-1.390	1.700
2020/01/31 22:49:35.5	155.280	0.330	-1.360	1.720
2020/01/31 22:49:35.6	155.300	0.320	-1.320	1.740
2020/01/31 22:49:35.7	155.320	0.300	-1.270	1.760
2020/01/31 22:49:35.8	155.350	0.280	-1.210	1.770
2020/01/31 22:49:35.9	155.380	0.260	-1.140	1.780
2020/01/31 22:49:36.0	155.410	0.230	-1.070	1.790
2020/01/31 22:49:36.1	155.450	0.200	-0.990	1.790
2020/01/31 22:49:36.2	155.480	0.160	-0.900	1.790
2020/01/31 22:49:36.3	155.520	0.120	-0.800	1.780
2020/01/31 22:49:36.4	155.560	0.080	-0.700	1.770
2020/01/31 22:49:36.5	155.600	0.030	-0.600	1.750
2020/01/31 22:49:36.6	155.640	-0.010	-0.500	1.730
2020/01/31 22:49:36.7	155.690	-0.070	-0.390	1.700
2020/01/31 22:49:36.8	155.740	-0.120	-0.280	1.680
2020/01/31 22:49:36.9	155.790	-0.170	-0.170	1.650
2020/01/31 22:49:37.0	155.860	-0.230	-0.070	1.610
2020/01/31 22:49:37.1	155.910	-0.280	0.030	1.580
2020/01/31 22:49:37.2	155.970	-0.340	0.130	1.540
2020/01/31 22:49:37.3	156.030	-0.390	0.230	1.500
2020/01/31 22:49:37.4	156.090	-0.450	0.320	1.470
2020/01/31 22:49:37.5	156.150	-0.500	0.410	1.430
2020/01/31 22:49:37.6	156.210	-0.560	0.480	1.390
2020/01/31 22:49:37.7	156.270	-0.610	0.550	1.350
2020/01/31 22:49:37.8	156.330	-0.650	0.610	1.310
2020/01/31 22:49:37.9	156.390	-0.700	0.660	1.280
2020/01/31 22:49:38.0	156.440	-0.740	0.700	1.240
2020/01/31 22:49:38.1	156.500	-0.770	0.730	1.210
2020/01/31 22:49:38.2	156.560	-0.800	0.750	1.170
2020/01/31 22:49:38.3	156.620	-0.830	0.770	1.150
2020/01/31 22:49:38.4	156.670	-0.850	0.770	1.120
2020/01/31 22:49:38.5	156.730	-0.870	0.760	1.090
2020/01/31 22:49:38.6	156.780	-0.880	0.740	1.070
2020/01/31 22:49:38.7	156.830	-0.880	0.710	1.050
2020/01/31 22:49:38.8	156.880	-0.880	0.670	1.030
2020/01/31 22:49:38.9	156.920	-0.870	0.620	1.010
2020/01/31 22:49:39.0	156.970	-0.860	0.570	0.990
2020/01/31 22:49:39.1	157.010	-0.840	0.510	0.970
2020/01/31 22:49:39.2	157.050	-0.810	0.450	0.960
2020/01/31 22:49:39.3	157.080	-0.780	0.380	0.940
2020/01/31 22:49:39.4	157.120	-0.750	0.300	0.930
2020/01/31 22:49:39.5	157.150	-0.700	0.230	0.920
2020/01/31 22:49:39.6	157.170	-0.660	0.150	0.900
2020/01/31 22:49:39.7	157.200	-0.600	0.070	0.890
2020/01/31 22:49:39.8	157.220	-0.550	-0.010	0.870
2020/01/31 22:49:39.9	157.250	-0.490	-0.080	0.860
2020/01/31 22:49:40.0	157.270	-0.430	-0.160	0.850
2020/01/31 22:49:40.1	157.290	-0.360	-0.240	0.830
2020/01/31 22:49:40.2	157.300	-0.290	-0.310	0.820
2020/01/31 22:49:40.3	157.320	-0.220	-0.370	0.810
2020/01/31 22:49:40.4	157.330	-0.140	-0.440	0.790
2020/01/31 22:49:40.5	157.340	-0.070	-0.490	0.780
2020/01/31 22:49:40.6	157.350	0.000	-0.550	0.770
2020/01/31 22:49:40.7	157.360	0.080	-0.590	0.760
2020/01/31 22:49:40.8	157.370	0.150	-0.630	0.740
2020/01/31 22:49:40.9	157.380	0.230	-0.670	0.730
2020/01/31 22:49:41.0	157.390	0.300	-0.690	0.720
2020/01/31 22:49:41.1	157.400	0.370	-0.720	0.710
2020/01/31 22:49:41.2	157.400	0.440	-0.740	0.700
2020/01/31 22:49:41.3	157.410	0.500	-0.750	0.700
2020/01/31 22:49:41.4	157.420	0.560	-0.750	0.690
2020/01/31 22:49:41.5	157.430	0.610	-0.760	0.690
2020/01/31 22:49:41.6	157.430	0.670	-0.750	0.680
2020/01/31 22:49:41.7	157.440	0.710	-0.740	0.670
2020/01/31 22:49:41.8	157.460	0.750	-0.730	0.670
2020/01/31 22:49:41.9	157.470	0.790	-0.710	0.660
2020/01/31 22:49:42.0	157.480	0.820	-0.680	0.660
2020/01/31 22:49:42.1	157.490	0.840	-0.650	0.660
2020/01/31 22:49:42.2	157.510	0.860	-0.620	0.650
2020/01/31 22:49:42.3	157.540	0.870	-0.590	0.650
2020/01/31 22:49:42.4	157.560	0.880	-0.550	0.640
2020/01/31 22:49:42.5	157.590	0.880	-0.500	0.640
2020/01/31 22:49:42.6	157.620	0.870	-0.460	0.630
2020/01/31 22:49:42.7	157.650	0.860	-0.410	0.620
2020/01/31 22:49:42.8	157.690	0.840	-0.370	0.620
2020/01/31 22:49:42.9	157.730	0.820	-0.320	0.610
2020/01/31 22:49:43.0	157.770	0.790	-0.270	0.600
2020/01/31 22:49:43.1	157.810	0.750	-0.220	0.590
2020/01/31 22:49:43.2	157.860	0.710	-0.170	0.590
2020/01/31 22:49:43.3	157.920	0.670	-0.120	0.580
2020/01/31 22:49:43.4	157.970	0.620	-0.070	0.580
2020/01/31 22:49:43.5	158.030	0.570	-0.030	0.570
2020/01/31 22:49:43.6	158.090	0.520	0.020	0.570
2020/01/31 22:49:43.7	158.150	0.470	0.060	0.560
2020/01/31 22:49:43.8	158.220	0.410	0.100	0.560
2020/01/31 22:49:43.9	158.280	0.350	0.140	0.560
2020/01/31 22:49:44.0	158.350	0.300	0.170	0.550
2020/01/31 22:49:44.1	158.420	0.240	0.200	0.550
2020/01/31 22:49:44.2	158.490	0.180	0.230	0.550
2020/01/31 22:49:44.3	158.560	0.130	0.260	0.550
2020/01/31 22:49:44.4	158.640	0.070	0.280	0.550
2020/01/31 22:49:44.5	158.710	0.020	0.300	0.550
2020/01/31 22:49:44.6	158.790	-0.030	0.310	0.550
2020/01/31 22:49:44.7	158.860	-0.070	0.330	0.550
2020/01/31 22:49:44.8	158.930	-0.120	0.330	0.550
2020/01/31 22:49:44.9	159.000	-0.160	0.340	0.560
2020/01/31 22:49:45.0	159.070	-0.190	0.340	0.560
2020/01/31 22:49:45.1	159.140	-0.230	0.330	0.570
2020/01/31 22:49:45.2	159.200	-0.260	0.330	0.580
2020/01/31 22:49:45.3	159.260	-0.280	0.320	0.590
2020/01/31 22:49:45.4	159.320	-0.300	0.300	0.600
2020/01/31 22:49:45.5	159.380	-0.320	0.280	0.620
2020/01/31 22:49:45.6	159.430	-0.330	0.260	0.630
2020/01/31 22:49:45.7	159.480	-0.330	0.240	0.650
2020/01/31 22:49:45.8	159.530	-0.340	0.210	0.670
2020/01/31 22:49:45.9	159.570	-0.330	0.180	0.690
2020/01/31 22:49:46.0	159.620	-0.330	0.150	0.710
2020/01/31 22:49:46.1	159.660	-0.320	0.110	0.740
2020/01/31 22:49:46.2	159.690	-0.310	0.080	0.760
2020/01/31 22:49:46.3	159.720	-0.290	0.040	0.790
2020/01/31 22:49:46.4	159.750	-0.270	0.010	0.820
2020/01/31 22:49:46.5	159.780	-0.250	-0.030	0.840
2020/01/31 22:49:46.6	159.800	-0.220	-0.070	0.870
2020/01/31 22:49:46.7	159.820	-0.200	-0.100	0.900
2020/01/31 22:49:46.8	159.840	-0.170	-0.140	0.920
2020/01/31 22:49:46.9	159.860	-0.140	-0.180	0.950
2020/01/31 22:49:47.0	159.870	-0.100	-0.210	0.980
2020/01/31 22:49:47.1	159.890	-0.070	-0.240	1.000
2020/01/31 22:49:47.2	159.900	-0.040	-0.280	1.030
2020/01/31 22:49:47.3	159.920	-0.000	-0.310	1.050
2020/01/31 22:49:47.4	159.930	0.030	-0.340	1.070
2020/01/31 22:49:47.5	159.940	0.070	-0.380	1.090
2020/01/31 22:49:47.6	159.950	0.100	-0.410	1.110
2020/01/31 22:49:47.7	159.970	0.130	-0.440	1.130
2020/01/31 22:49:47.8	159.980	0.160	-0.470	1.140
2020/01/31 22:49:47.9	159.990	0.190	-0.500	1.160
2020/01/31 22:49:48.0	160.000	0.220	-0.530	1.170
2020/01/31 22:49:48.1	160.020	0.240	-0.560	1.180
2020/01/31 22:49:48.2	160.030	0.270	-0.590	1.190
2020/01/31 22:49:48.3	160.050	0.290	-0.610	1.200
2020/01/31 22:49:48.4	160.070	0.310	-0.640	1.200
2020/01/31 22:49:48.5	160.090	0.330	-0.670	1.200
2020/01/31 22:49:48.6	160.120	0.340	-0.700	1.200
2020/01/31 22:49:48.7	160.140	0.350	-0.730	1.200
2020/01/31 22:49:48.8	160.170	0.360	-0.750	1.190
2020/01/31 22:49:48.9	160.200	0.370	-0.780	1.180
2020/01/31 22:49:49.0	160.220	0.370	-0.810	1.170
2020/01/31 22:49:49.1	160.250	0.370	-0.830	1.160
2020/01/31 22:49:49.2	160.280	0.370	-0.860	1.140
2020/01/31 22:49:49.3	160.310	0.370	-0.880	1.130
2020/01/31 22:49:49.4	160.350	0.360	-0.900	1.110
2020/01/31 22:49:49.5	160.380	0.350	-0.920	1.100
2020/01/31 22:49:49.6	160.410	0.340	-0.940	1.080
2020/01/31 22:49:49.7	160.450	0.330	-0.950	1.070
2020/01/31 22:49:49.8	160.480	0.310	-0.970	1.060
2020/01/31 22:49:49.9	160.510	0.300	-0.980	1.040
2020/01/31 22:49:50.0	160.530	0.280	-0.990	1.030
2020/01/31 22:49:50.1	160.560	0.260	-1.000	1.020
2020/01/31 22:49:50.2	160.590	0.240	-1.000	1.020
2020/01/31 22:49:50.3	160.610	0.210	-1.000	1.020
2020/01/31 22:49:50.4	160.640	0.190	-0.990	1.020
2020/01/31 22:49:50.5	160.660	0.160	-0.980	1.030
2020/01/31 22:49:50.6	160.690	0.130	-0.970	1.040
2020/01/31 22:49:50.7	160.710	0.110	-0.960	1.050
2020/01/31 22:49:50.8	160.730	0.080	-0.940	1.070
2020/01/31 22:49:50.9	160.750	0.050	-0.910	1.090
2020/01/31 22:49:51.0	160.780	0.020	-0.890	1.110
2020/01/31 22:49:51.1	160.800	-0.010	-0.860	1.130
2020/01/31 22:49:51.2	160.820	-0.040	-0.820	1.160
2020/01/31 22:49:51.3	160.850	-0.080	-0.780	1.190
2020/01/31 22:49:51.4	160.870	-0.110	-0.740	1.210
2020/01/31 22:49:51.5	160.890	-0.140	-0.690	1.240
2020/01/31 22:49:51.6	160.920	-0.170	-0.630	1.270
2020/01/31 22:49:51.7	160.950	-0.200	-0.580	1.290
2020/01/31 22:49:51.8	160.980	-0.230	-0.520	1.320
2020/01/31 22:49:51.9	161.010	-0.260	-0.450	1.340
2020/01/31 22:49:52.0	161.050	-0.290	-0.380	1.360
2020/01/31 22:49:52.1	161.080	-0.320	-0.310	1.380
2020/01/31 22:49:52.2	161.120	-0.350	-0.230	1.400
2020/01/31 22:49:52.3	161.160	-0.380	-0.150	1.410
2020/01/31 22:49:52.4	161.190	-0.400	-0.070	1.420
2020/01/31 22:49:52.5	161.230	-0.430	0.010	1.430
2020/01/31 22:49:52.6	161.280	-0.460	0.090	1.430
2020/01/31 22:49:52.7	161.320	-0.480	0.170	1.440
2020/01/31 22:49:52.8	161.360	-0.500	0.250	1.440
2020/01/31 22:49:52.9	161.410	-0.520	0.330	1.440
2020/01/31 22:49:53.0	161.460	-0.540	0.410	1.430
2020/01/31 22:49:53.1	161.510	-0.560	0.480	1.430
2020/01/31 22:49:53.2	161.560	-0.570	0.540	1.420
2020/01/31 22:49:53.3	161.600	-0.580	0.600	1.410
2020/01/31 22:49:53.4	161.650	-0.590	0.650	1.400
2020/01/31 22:49:53.5	161.700	-0.590	0.700	1.390
2020/01/31 22:49:53.6	161.740	-0.590	0.730	1.380
2020/01/31 22:49:53.7	161.780	-0.590	0.760	1.360
2020/01/31 22:49:53.8	161.830	-0.590	0.780	1.350
2020/01/31 22:49:53.9	161.870	-0.580	0.790	1.330
2020/01/31 22:49:54.0	161.920	-0.570	0.780	1.310
2020/01/31 22:49:54.1	161.960	-0.550	0.770	1.290
2020/01/31 22:49:54.2	162.000	-0.540	0.750	1.280
2020/01/31 22:49:54.3	162.040	-0.520	0.720	1.260
2020/01/31 22:49:54.4	162.070	-0.490	0.680	1.230
2020/01/31 22:49:54.5	162.110	-0.470	0.640	1.210
2020/01/31 22:49:54.6	162.150	-0.440	0.580	1.190
2020/01/31 22:49:54.7	162.180	-0.410	0.520	1.160
2020/01/31 22:49:54.8	162.220	-0.380	0.460	1.140
2020/01/31 22:49:54.9	162.250	-0.340	0.390	1.120
2020/01/31 22:49:55.0	162.290	-0.310	0.310	1.090
2020/01/31 22:49:55.1	162.320	-0.270	0.230	1.070
2020/01/31 22:49:55.2	162.350	-0.240	0.150	1.050
2020/01/31 22:49:55.3	162.380	-0.200	0.070	1.020
2020/01/31 22:49:55.4	162.410	-0.160	-0.010	1.000
2020/01/31 22:49:55.5	162.440	-0.130	-0.080	0.980
2020/01/31 22:49:55.6	162.470	-0.090	-0.160	0.960
2020/01/31 22:49:55.7	162.500	-0.050	-0.230	0.940
2020/01/31 22:49:55.8	162.530	-0.020	-0.310	0.920
2020/01/31 22:49:55.9	162.560	0.020	-0.370	0.900
2020/01/31 22:49:56.0	162.600	0.050	-0.430	0.880
2020/01/31 22:49:56.1	162.630	0.080	-0.490	0.870
2020/01/31 22:49:56.2	162.650	0.110	-0.540	0.850
2020/01/31 22:49:56.3	162.680	0.140	-0.580	0.840
2020/01/31 22:49:56.4	162.710	0.170	-0.620	0.830
2020/01/31 22:49:56.5	162.730	0.200	-0.650	0.820
2020/01/31 22:49:56.6	162.760	0.220	-0.680	0.810
2020/01/31 22:49:56.7	162.790	0.240	-0.700	0.800
2020/01/31 22:49:56.8	162.820	0.260	-0.710	0.790
2020/01/31 22:49:56.9	162.840	0.280	-0.710	0.780
2020/01/31 22:49:57.0	162.880	0.290	-0.710	0.770
2020/01/31 22:49:57.1	162.910	0.300	-0.700	0.760
2020/01/31 22:49:57.2	162.940	0.310	-0.690	0.750
2020/01/31 22:49:57.3	162.970	0.320	-0.670	0.740
2020/01/31 22:49:57.4	163.000	0.320	-0.650	0.720
2020/01/31 22:49:57.5	163.030	0.330	-0.620	0.710
2020/01/31 22:49:57.6	163.070	0.330	-0.590	0.700
2020/01/31 22:49:57.7	163.100	0.330	-0.560	0.690
2020/01/31 22:49:57.8	163.130	0.320	-0.530	0.670
2020/01/31 22:49:57.9	163.170	0.320	-0.490	0.660
2020/01/31 22:49:58.0	163.200	0.310	-0.460	0.640
2020/01/31 22:49:58.1	163.230	0.310	-0.420	0.620
2020/01/31 22:49:58.2	163.270	0.300	-0.380	0.600
2020/01/31 22:49:58.3	163.300	0.290	-0.350	0.570
2020/01/31 22:49:58.4	163.340	0.280	-0.320	0.550
2020/01/31 22:49:58.5	163.380	0.260	-0.280	0.530
2020/01/31 22:49:58.6	163.420	0.250	-0.250	0.500
2020/01/31 22:49:58.7	163.450	0.240	-0.230	0.480
2020/01/31 22:49:58.8	163.490	0.220	-0.200	0.450
2020/01/31 22:49:58.9	163.530	0.210	-0.180	0.430
2020/01/31 22:49:59.0	163.560	0.200	-0.160	0.400
2020/01/31 22:49:59.1	163.600	0.180	-0.140	0.380
2020/01/31 22:49:59.2	163.630	0.170	-0.130	0.370
2020/01/31 22:49:59.3	163.670	0.150	-0.110	0.350
2020/01/31 22:49:59.4	163.700	0.140	-0.100	0.340
2020/01/31 22:49:59.5	163.740	0.120	-0.100	0.330
2020/01/31 22:49:59.6	163.770	0.110	-0.090	0.330
2020/01/31 22:49:59.7	163.810	0.100	-0.090	0.330
2020/01/31 22:49:59.8	163.840	0.080	-0.080	0.330
2020/01/31 22:49:59.9	163.880	0.070	-0.080	0.340
2020/01/31 22:50:00.0	163.890	0.060	-0.090	0.350
2020/01/31 22:50:00.1	163.930	0.050	-0.090	0.370
2020/01/31 22:50:00.2	163.970	0.040	-0.090	0.380
2020/01/31 22:50:00.3	164.000	0.030	-0.090	0.400
2020/01/31 22:50:00.4	164.050	0.020	-0.090	0.420
2020/01/31 22:50:00.5	164.090	0.010	-0.090	0.440
2020/01/31 22:50:00.6	164.130	0.010	-0.090	0.460
2020/01/31 22:50:00.7	164.180	-0.000	-0.090	0.470
2020/01/31 22:50:00.8	164.230	-0.010	-0.080	0.490
2020/01/31 22:50:00.9	164.270	-0.010	-0.080	0.510
2020/01/31 22:50:01.0	164.330	-0.020	-0.070	0.520
2020/01/31 22:50:01.1	164.380	-0.020	-0.060	0.540
2020/01/31 22:50:01.2	164.440	-0.020	-0.050	0.550
2020/01/31 22:50:01.3	164.490	-0.030	-0.050	0.560
2020/01/31 22:50:01.4	164.550	-0.030	-0.030	0.570
2020/01/31 22:50:01.5	164.600	-0.030	-0.020	0.580
2020/01/31 22:50:01.6	164.660	-0.030	-0.010	0.590
2020/01/31 22:50:01.7	164.720	-0.030	0.000	0.600
2020/01/31 22:50:01.8	164.770	-0.030	0.010	0.600
2020/01/31 22:50:01.9	164.830	-0.030	0.030	0.610
2020/01/31 22:50:02.0	164.890	-0.020	0.030	0.620
2020/01/31 22:50:02.1	164.940	-0.020	0.050	0.620
2020/01/31 22:50:02.2	165.000	-0.020	0.060	0.630
2020/01/31 22:50:02.3	165.050	-0.010	0.060	0.630
2020/01/31 22:50:02.4	165.100	-0.010	0.070	0.630
2020/01/31 22:50:02.5	165.150	-0.010	0.080	0.640
2020/01/31 22:50:02.6	165.200	0.000	0.080	0.650
2020/01/31 22:50:02.7	165.240	0.010	0.080	0.650
2020/01/31 22:50:02.8	165.290	0.010	0.070	0.660
2020/01/31 22:50:02.9	165.330	0.020	0.070	0.670
2020/01/31 22:50:03.0	165.370	0.030	0.060	0.690
2020/01/31 22:50:03.1	165.410	0.030	0.050	0.710
2020/01/31 22:50:03.2	165.440	0.040	0.030	0.720
2020/01/31 22:50:03.3	165.470	0.050	0.010	0.750
2020/01/31 22:50:03.4	165.500	0.060	-0.010	0.770
2020/01/31 22:50:03.5	165.530	0.070	-0.040	0.800
2020/01/31 22:50:03.6	165.550	0.080	-0.070	0.830
2020/01/31 22:50:03.7	165.580	0.090	-0.110	0.860
2020/01/31 22:50:03.8	165.600	0.100	-0.140	0.890
2020/01/31 22:50:03.9	165.620	0.110	-0.180	0.930
2020/01/31 22:50:04.0	165.660	0.120	-0.230	0.960
2020/01/31 22:50:04.1	165.670	0.140	-0.270	1.000
2020/01/31 22:50:04.2	165.690	0.150	-0.320	1.040
2020/01/31 22:50:04.3	165.700	0.160	-0.360	1.080
2020/01/31 22:50:04.4	165.720	0.170	-0.410	1.130
2020/01/31 22:50:04.5	165.730	0.180	-0.450	1.170
2020/01/31 22:50:04.6	165.740	0.190	-0.500	1.210
2020/01/31 22:50:04.7	165.760	0.200	-0.540	1.250
2020/01/31 22:50:04.8	165.770	0.210	-0.580	1.290
2020/01/31 22:50:04.9	165.790	0.220	-0.620	1.330
2020/01/31 22:50:05.0	165.820	0.220	-0.660	1.370
2020/01/31 22:50:05.1	165.830	0.230	-0.690	1.400
2020/01/31 22:50:05.2	165.850	0.240	-0.720	1.430
2020/01/31 22:50:05.3	165.870	0.240	-0.750	1.460
2020/01/31 22:50:05.4	165.890	0.250	-0.770	1.490
2020/01/31 22:50:05.5	165.910	0.250	-0.780	1.510
2020/01/31 22:50:05.6	165.930	0.260	-0.790	1.530
2020/01/31 22:50:05.7	165.950	0.260	-0.800	1.550
2020/01/31 22:50:05.8	165.980	0.260	-0.800	1.560
2020/01/31 22:50:05.9	166.000	0.260	-0.790	1.570
2020/01/31 22:50:06.0	166.050	0.260	-0.780	1.570
2020/01/31 22:50:06.1	166.070	0.260	-0.770	1.570
2020/01/31 22:50:06.2	166.100	0.250	-0.750	1.570
2020/01/31 22:50:06.3	166.130	0.250	-0.730	1.560
2020/01/31 22:50:06.4	166.160	0.240	-0.700	1.550
2020/01/31 22:50:06.5	166.190	0.240	-0.670	1.530
2020/01/31 22:50:06.6	166.220	0.230	-0.640	1.520
2020/01/31 22:50:06.7	166.250	0.220	-0.610	1.500
2020/01/31 22:50:06.8	166.280	0.210	-0.570	1.480
2020/01/31 22:50:06.9	166.320	0.200	-0.540	1.450
2020/01/31 22:50:07.0	166.340	0.190	-0.500	1.430
2020/01/31 22:50:07.1	166.370	0.170	-0.460	1.400
2020/01/31 22:50:07.2	166.410	0.160	-0.430	1.380
2020/01/31 22:50:07.3	166.440	0.150	-0.390	1.350
2020/01/31 22:50:07.4	166.470	0.130	-0.360	1.320
2020/01/31 22:50:07.5	166.500	0.120	-0.320	1.290
2020/01/31 22:50:07.6	166.530	0.100	-0.290	1.270
2020/01/31 22:50:07.7	166.560	0.080	-0.260	1.240
2020/01/31 22:50:07.8	166.590	0.070	-0.240	1.220
2020/01/31 22:50:07.9	166.620	0.050	-0.210	1.190
2020/01/31 22:50:08.0	166.650	0.040	-0.190	1.170
2020/01/31 22:50:08.1	166.680	0.020	-0.160	1.150
2020/01/31 22:50:08.2	166.710	0.000	-0.140	1.130
2020/01/31 22:50:08.3	166.740	-0.010	-0.130	1.110
2020/01/31 22:50:08.4	166.770	-0.030	-0.110	1.090
2020/01/31 22:50:08.5	166.800	-0.050	-0.100	1.080
2020/01/31 22:50:08.6	166.830	-0.060	-0.090	1.060
2020/01/31 22:50:08.7	166.860	-0.080	-0.080	1.050
2020/01/31 22:50:08.8	166.890	-0.090	-0.070	1.040
2020/01/31 22:50:08.9	166.920	-0.110	-0.070	1.030
2020/01/31 22:50:09.0	166.980	-0.130	-0.060	1.020
2020/01/31 22:50:09.1	167.010	-0.140	-0.060	1.010
2020/01/31 22:50:09.2	167.040	-0.160	-0.060	1.000
2020/01/31 22:50:09.3	167.070	-0.170	-0.060	0.990
2020/01/31 22:50:09.4	167.100	-0.190	-0.060	0.990
2020/01/31 22:50:09.5	167.130	-0.210	-0.070	0.980
2020/01/31 22:50:09.6	167.160	-0.220	-0.070	0.970
2020/01/31 22:50:09.7	167.190	-0.240	-0.080	0.970
2020/01/31 22:50:09.8	167.230	-0.260	-0.090	0.960
2020/01/31 22:50:09.9	167.260	-0.280	-0.090	0.960
2020/01/31 22:50:10.0	167.300	-0.300	-0.100	0.960
2020/01/31 22:50:10.1	167.330	-0.310	-0.110	0.950
2020/01/31 22:50:10.2	167.360	-0.330	-0.120	0.950
2020/01/31 22:50:10.3	167.400	-0.350	-0.130	0.950
2020/01/31 22:50:10.4	167.440	-0.370	-0.140	0.950
2020/01/31 22:50:10.5	167.470	-0.390	-0.150	0.950
2020/01/31 22:50:10.6	167.510	-0.410	-0.160	0.960
2020/01/31 22:50:10.7	167.550	-0.420	-0.170	0.960
2020/01/31 22:50:10.8	167.590	-0.440	-0.180	0.960
2020/01/31 22:50:10.9	167.630	-0.460	-0.190	0.960
2020/01/31 22:50:11.0	167.670	-0.470	-0.200	0.970
2020/01/31 22:50:11.1	167.710	-0.480	-0.200	0.970
2020/01/31 22:50:11.2	167.750	-0.490	-0.210	0.970
2020/01/31 22:50:11.3	167.790	-0.500	-0.220	0.970
2020/01/31 22:50:11.4	167.840	-0.510	-0.230	0.970
2020/01/31 22:50:11.5	167.880	-0.520	-0.230	0.970
2020/01/31 22:50:11.6	167.930	-0.520	-0.240	0.970
2020/01/31 22:50:11.7	167.970	-0.520	-0.240	0.960
2020/01/31 22:50:11.8	168.020	-0.510	-0.240	0.960
2020/01/31 22:50:11.9	168.070	-0.510	-0.240	0.950
2020/01/31 22:50:12.0	168.110	-0.500	-0.240	0.940
2020/01/31 22:50:12.1	168.160	-0.480	-0.240	0.930
2020/01/31 22:50:12.2	168.200	-0.470	-0.240	0.920
2020/01/31 22:50:12.3	168.250	-0.440	-0.240	0.900
2020/01/31 22:50:12.4	168.300	-0.420	-0.240	0.890
2020/01/31 22:50:12.5	168.350	-0.390	-0.230	0.870
2020/01/31 22:50:12.6	168.390	-0.360	-0.230	0.850
2020/01/31 22:50:12.7	168.440	-0.320	-0.230	0.830
2020/01/31 22:50:12.8	168.480	-0.280	-0.230	0.810
2020/01/31 22:50:12.9	168.530	-0.240	-0.230	0.790
2020/01/31 22:50:13.0	168.550	-0.190	-0.230	0.770
2020/01/31 22:50:13.1	168.590	-0.140	-0.230	0.750
2020/01/31 22:50:13.2	168.630	-0.090	-0.230	0.720
2020/01/31 22:50:13.3	168.670	-0.030	-0.240	0.700
2020/01/31 22:50:13.4	168.710	0.020	-0.240	0.670
2020/01/31 22:50:13.5	168.750	0.080	-0.250	0.650
2020/01/31 22:50:13.6	168.790	0.140	-0.260	0.630
2020/01/31 22:50:13.7	168.830	0.200	-0.260	0.600
2020/01/31 22:50:13.8	168.870	0.260	-0.270	0.570
2020/01/31 22:50:13.9	168.910	0.320	-0.280	0.550
2020/01/31 22:50:14.0	168.920	0.380	-0.290	0.520
2020/01/31 22:50:14.1	168.970	0.430	-0.300	0.490
2020/01/31 22:50:14.2	169.010	0.490	-0.310	0.470
2020/01/31 22:50:14.3	169.050	0.540	-0.320	0.440
2020/01/31 22:50:14.4	169.090	0.580	-0.320	0.420
2020/01/31 22:50:14.5	169.140	0.630	-0.330	0.400
2020/01/31 22:50:14.6	169.180	0.660	-0.330	0.380
2020/01/31 22:50:14.7	169.230	0.700	-0.340	0.360
2020/01/31 22:50:14.8	169.270	0.720	-0.340	0.340
2020/01/31 22:50:14.9	169.320	0.750	-0.330	0.330
2020/01/31 22:50:15.0	169.360	0.760	-0.330	0.320
2020/01/31 22:50:15.1	169.410	0.770	-0.320	0.310
2020/01/31 22:50:15.2	169.460	0.780	-0.310	0.310
2020/01/31 22:50:15.3	169.510	0.770	-0.300	0.310
2020/01/31 22:50:15.4	169.560	0.760	-0.280	0.320
2020/01/31 22:50:15.5	169.610	0.750	-0.270	0.330
2020/01/31 22:50:15.6	169.660	0.730	-0.250	0.350
2020/01/31 22:50:15.7	169.710	0.700	-0.220	0.370
2020/01/31 22:50:15.8	169.760	0.670	-0.200	0.390
2020/01/31 22:50:15.9	169.820	0.630	-0.170	0.420
2020/01/31 22:50:16.0	169.860	0.580	-0.150	0.460
2020/01/31 22:50:16.1	169.910	0.530	-0.120	0.500
2020/01/31 22:50:16.2	169.960	0.480	-0.090	0.540
2020/01/31 22:50:16.3	170.010	0.420	-0.060	0.580
2020/01/31 22:50:16.4	170.060	0.360	-0.030	0.630
2020/01/31 22:50:16.5	170.100	0.300	-0.000	0.680
2020/01/31 22:50:16.6	170.150	0.230	0.020	0.730
2020/01/31 22:50:16.7	170.190	0.160	0.050	0.780
2020/01/31 22:50:16.8	170.230	0.100	0.080	0.830
2020/01/31 22:50:16.9	170.270	0.020	0.110	0.880
2020/01/31 22:50:17.0	170.310	-0.050	0.130	0.930
2020/01/31 22:50:17.1	170.350	-0.120	0.150	0.980
2020/01/31 22:50:17.2	170.390	-0.190	0.180	1.030
2020/01/31 22:50:17.3	170.430	-0.260	0.200	1.070
2020/01/31 22:50:17.4	170.470	-0.320	0.220	1.120
2020/01/31 22:50:17.5	170.510	-0.390	0.240	1.160
2020/01/31 22:50:17.6	170.550	-0.450	0.260	1.200
2020/01/31 22:50:17.7	170.580	-0.510	0.270	1.250
2020/01/31 22:50:17.8	170.620	-0.560	0.280	1.280
2020/01/31 22:50:17.9	170.660	-0.610	0.290	1.320
2020/01/31 22:50:18.0	170.690	-0.660	0.300	1.370
2020/01/31 22:50:18.1	170.720	-0.700	0.300	1.400
2020/01/31 22:50:18.2	170.760	-0.740	0.300	1.440
2020/01/31 22:50:18.3	170.790	-0.770	0.290	1.480
2020/01/31 22:50:18.4	170.830	-0.790	0.280	1.520
2020/01/31 22:50:18.5	170.860	-0.810	0.260	1.550
2020/01/31 22:50:18.6	170.890	-0.820	0.240	1.580
2020/01/31 22:50:18.7	170.920	-0.820	0.220	1.610
2020/01/31 22:50:18.8	170.950	-0.820	0.190	1.640
2020/01/31 22:50:18.9	170.980	-0.810	0.150	1.670
2020/01/31 22:50:19.0	171.020	-0.800	0.110	1.700
2020/01/31 22:50:19.1	171.040	-0.780	0.060	1.720
2020/01/31 22:50:19.2	171.070	-0.750	0.010	1.740
2020/01/31 22:50:19.3	171.090	-0.720	-0.040	1.750
2020/01/31 22:50:19.4	171.120	-0.680	-0.090	1.770
2020/01/31 22:50:19.5	171.140	-0.630	-0.150	1.770
2020/01/31 22:50:19.6	171.160	-0.580	-0.210	1.780
2020/01/31 22:50:19.7	171.190	-0.530	-0.270	1.780
2020/01/31 22:50:19.8	171.210	-0.470	-0.340	1.780
2020/01/31 22:50:19.9	171.230	-0.410	-0.400	1.770
2020/01/31 22:50:20.0	171.250	-0.350	-0.460	1.760
2020/01/31 22:50:20.1	171.270	-0.280	-0.520	1.740
2020/01/31 22:50:20.2	171.300	-0.220	-0.580	1.720
2020/01/31 22:50:20.3	171.320	-0.150	-0.640	1.700
2020/01/31 22:50:20.4	171.340	-0.080	-0.700	1.680
2020/01/31 22:50:20.5	171.360	-0.010	-0.750	1.650
2020/01/31 22:50:20.6	171.380	0.060	-0.800	1.620
2020/01/31 22:50:20.7	171.410	0.130	-0.850	1.580
2020/01/31 22:50:20.8	171.430	0.200	-0.890	1.550
2020/01/31 22:50:20.9	171.460	0.270	-0.930	1.510
2020/01/31 22:50:21.0	171.490	0.330	-0.960	1.470
2020/01/31 22:50:21.1	171.520	0.390	-0.990	1.420
2020/01/31 22:50:21.2	171.550	0.450	-1.010	1.370
2020/01/31 22:50:21.3	171.580	0.500	-1.020	1.320
2020/01/31 22:50:21.4	171.620	0.550	-1.030	1.270
2020/01/31 22:50:21.5	171.650	0.590	-1.030	1.210
2020/01/31 22:50:21.6	171.690	0.630	-1.020	1.150
2020/01/31 22:50:21.7	171.730	0.670	-1.010	1.090
2020/01/31 22:50:21.8	171.770	0.690	-0.990	1.030
2020/01/31 22:50:21.9	171.820	0.720	-0.970	0.970
2020/01/31 22:50:22.0	171.870	0.730	-0.930	0.910
2020/01/31 22:50:22.1	171.920	0.740	-0.900	0.850
2020/01/31 22:50:22.2	171.970	0.750	-0.850	0.780
2020/01/31 22:50:22.3	172.020	0.750	-0.800	0.720
2020/01/31 22:50:22.4	172.070	0.740	-0.750	0.660
2020/01/31 22:50:22.5	172.130	0.730	-0.690	0.600
2020/01/31 22:50:22.6	172.180	0.710	-0.630	0.550
2020/01/31 22:50:22.7	172.240	0.690	-0.570	0.490
2020/01/31 22:50:22.8	172.290	0.660	-0.500	0.440
2020/01/31 22:50:22.9	172.350	0.630	-0.430	0.390
2020/01/31 22:50:23.0	172.370	0.590	-0.360	0.350
2020/01/31 22:50:23.1	172.430	0.550	-0.290	0.300
2020/01/31 22:50:23.2	172.480	0.510	-0.230	0.260
2020/01/31 22:50:23.3	172.530	0.470	-0.160	0.230
2020/01/31 22:50:23.4	172.580	0.420	-0.100	0.200
2020/01/31 22:50:23.5	172.630	0.370	-0.040	0.180
2020/01/31 22:50:23.6	172.670	0.320	0.020	0.160
2020/01/31 22:50:23.7	172.710	0.270	0.070	0.140
2020/01/31 22:50:23.8	172.750	0.210	0.110	0.130
2020/01/31 22:50:23.9	172.790	0.160	0.150	0.130
2020/01/31 22:50:24.0	172.830	0.110	0.190	0.130
2020/01/31 22:50:24.1	172.860	0.060	0.210	0.140
2020/01/31 22:50:24.2	172.890	0.010	0.240	0.150
2020/01/31 22:50:24.3	172.920	-0.040	0.250	0.170
2020/01/31 22:50:24.4	172.950	-0.090	0.260	0.190
2020/01/31 22:50:24.5	172.980	-0.130	0.260	0.210
2020/01/31 22:50:24.6	173.000	-0.170	0.260	0.240
2020/01/31 22:50:24.7	173.030	-0.210	0.250	0.260
2020/01/31 22:50:24.8	173.050	-0.250	0.240	0.300
2020/01/31 22:50:24.9	173.080	-0.280	0.220	0.330
2020/01/31 22:50:25.0	173.100	-0.310	0.200	0.360
2020/01/31 22:50:25.1	173.130	-0.340	0.170	0.390
2020/01/31 22:50:25.2	173.150	-0.360	0.140	0.430
2020/01/31 22:50:25.3	173.180	-0.380	0.110	0.460
2020/01/31 22:50:25.4	173.210	-0.400	0.080	0.490
2020/01/31 22:50:25.5	173.240	-0.410	0.050	0.520
2020/01/31 22:50:25.6	173.270	-0.420	0.020	0.550
2020/01/31 22:50:25.7	173.310	-0.430	-0.010	0.580
2020/01/31 22:50:25.8	173.350	-0.440	-0.040	0.600
2020/01/31 22:50:25.9	173.380	-0.440	-0.070	0.630
2020/01/31 22:50:26.0	173.420	-0.440	-0.100	0.650
2020/01/31 22:50:26.1	173.460	-0.440	-0.130	0.670
2020/01/31 22:50:26.2	173.510	-0.430	-0.150	0.690
2020/01/31 22:50:26.3	173.550	-0.420	-0.170	0.700
2020/01/31 22:50:26.4	173.600	-0.410	-0.190	0.720
2020/01/31 22:50:26.5	173.650	-0.400	-0.210	0.730
2020/01/31 22:50:26.6	173.690	-0.390	-0.220	0.740
2020/01/31 22:50:26.7	173.740	-0.370	-0.230	0.750
2020/01/31 22:50:26.8	173.790	-0.360	-0.240	0.750
2020/01/31 22:50:26.9	173.840	-0.340	-0.250	0.760
2020/01/31 22:50:27.0	173.890	-0.320	-0.260	0.760
2020/01/31 22:50:27.1	173.940	-0.300	-0.260	0.770
2020/01/31 22:50:27.2	173.990	-0.270	-0.260	0.770
2020/01/31 22:50:27.3	174.030	-0.250	-0.260	0.780
2020/01/31 22:50:27.4	174.080	-0.230	-0.270	0.780
2020/01/31 22:50:27.5	174.120	-0.200	-0.270	0.790
2020/01/31 22:50:27.6	174.170	-0.180	-0.270	0.790
2020/01/31 22:50:27.7	174.210	-0.150	-0.270	0.800
2020/01/31 22:50:27.8	174.250	-0.130	-0.270	0.800
2020/01/31 22:50:27.9	174.290	-0.100	-0.270	0.810
2020/01/31 22:50:28.0	174.300	-0.070	-0.270	0.820
2020/01/31 22:50:28.1	174.340	-0.050	-0.270	0.830
2020/01/31 22:50:28.2	174.380	-0.020	-0.270	0.840
2020/01/31 22:50:28.3	174.420	0.000	-0.270	0.840
2020/01/31 22:50:28.4	174.460	0.030	-0.260	0.850
2020/01/31 22:50:28.5	174.500	0.050	-0.260	0.850
2020/01/31 22:50:28.6	174.550	0.070	-0.260	0.850
2020/01/31 22:50:28.7	174.590	0.090	-0.260	0.850
2020/01/31 22:50:28.8	174.640	0.110	-0.250	0.850
2020/01/31 22:50:28.9	174.690	0.120	-0.240	0.840
2020/01/31 22:50:29.0	174.740	0.140	-0.240	0.840
2020/01/31 22:50:29.1	174.790	0.150	-0.230	0.830
2020/01/31 22:50:29.2	174.850	0.160	-0.220	0.820
2020/01/31 22:50:29.3	174.900	0.170	-0.210	0.810
2020/01/31 22:50:29.4	174.950	0.180	-0.200	0.800
2020/01/31 22:50:29.5	175.010	0.180	-0.180	0.790
2020/01/31 22:50:29.6	175.060	0.190	-0.170	0.780
2020/01/31 22:50:29.7	175.120	0.190	-0.160	0.770
2020/01/31 22:50:29.8	175.170	0.190	-0.140	0.760
2020/01/31 22:50:29.9	175.230	0.180	-0.130	0.740
2020/01/31 22:50:30.0	175.270	0.180	-0.110	0.730
2020/01/31 22:50:30.1	175.330	0.170	-0.100	0.720
2020/01/31 22:50:30.2	175.380	0.170	-0.080	0.720
2020/01/31 22:50:30.3	175.420	0.160	-0.070	0.710
2020/01/31 22:50:30.4	175.470	0.150	-0.060	0.710
2020/01/31 22:50:30.5	175.510	0.140	-0.050	0.700
2020/01/31 22:50:30.6	175.560	0.130	-0.040	0.700
2020/01/31 22:50:30.7	175.600	0.120	-0.040	0.710
2020/01/31 22:50:30.8	175.640	0.100	-0.030	0.710
2020/01/31 22:50:30.9	175.670	0.090	-0.030	0.710
2020/01/31 22:50:31.0	175.700	0.080	-0.030	0.720
2020/01/31 22:50:31.1	175.740	0.070	-0.030	0.730
2020/01/31 22:50:31.2	175.770	0.060	-0.030	0.740
2020/01/31 22:50:31.3	175.800	0.050	-0.030	0.740
2020/01/31 22:50:31.4	175.830	0.040	-0.040	0.750
2020/01/31 22:50:31.5	175.860	0.030	-0.050	0.760
2020/01/31 22:50:31.6	175.890	0.020	-0.060	0.770
2020/01/31 22:50:31.7	175.910	0.010	-0.070	0.780
2020/01/31 22:50:31.8	175.940	0.000	-0.080	0.790
2020/01/31 22:50:31.9	175.970	-0.000	-0.090	0.800
2020/01/31 22:50:32.0	176.000	-0.010	-0.100	0.800
2020/01/31 22:50:32.1	176.030	-0.010	-0.120	0.800
2020/01/31 22:50:32.2	176.050	-0.010	-0.140	0.810
2020/01/31 22:50:32.3	176.080	-0.010	-0.160	0.810
2020/01/31 22:50:32.4	176.110	-0.010	-0.180	0.810
2020/01/31 22:50:32.5	176.140	-0.010	-0.200	0.810
2020/01/31 22:50:32.6	176.160	-0.010	-0.220	0.810
2020/01/31 22:50:32.7	176.190	-0.000	-0.250	0.810
2020/01/31 22:50:32.8	176.220	0.000	-0.270	0.810
2020/01/31 22:50:32.9	176.250	0.010	-0.300	0.810
2020/01/31 22:50:33.0	176.260	0.010	-0.330	0.810
2020/01/31 22:50:33.1	176.290	0.020	-0.360	0.810
2020/01/31 22:50:33.2	176.320	0.030	-0.390	0.810
2020/01/31 22:50:33.3	176.340	0.040	-0.430	0.810
2020/01/31 22:50:33.4	176.370	0.050	-0.460	0.820
2020/01/31 22:50:33.5	176.400	0.050	-0.500	0.820
2020/01/31 22:50:33.6	176.420	0.060	-0.530	0.830
2020/01/31 22:50:33.7	176.440	0.070	-0.570	0.840
2020/01/31 22:50:33.8	176.470	0.080	-0.610	0.850
2020/01/31 22:50:33.9	176.490	0.090	-0.640	0.860
2020/01/31 22:50:34.0	176.520	0.100	-0.670	0.870
2020/01/31 22:50:34.1	176.540	0.100	-0.710	0.890
2020/01/31 22:50:34.2	176.570	0.110	-0.740	0.910
2020/01/31 22:50:34.3	176.590	0.120	-0.770	0.930
2020/01/31 22:50:34.4	176.610	0.120	-0.800	0.950
2020/01/31 22:50:34.5	176.630	0.120	-0.820	0.980
2020/01/31 22:50:34.6	176.650	0.120	-0.840	1.000
2020/01/31 22:50:34.7	176.670	0.130	-0.860	1.030
2020/01/31 22:50:34.8	176.690	0.120	-0.870	1.050
2020/01/31 22:50:34.9	176.720	0.120	-0.880	1.080
2020/01/31 22:50:35.0	176.720	0.120	-0.890	1.110
2020/01/31 22:50:35.1	176.740	0.110	-0.890	1.140
2020/01/31 22:50:35.2	176.760	0.110	-0.890	1.160
2020/01/31 22:50:35.3	176.780	0.100	-0.880	1.190
2020/01/31 22:50:35.4	176.800	0.090	-0.870	1.210
2020/01/31 22:50:35.5	176.830	0.080	-0.850	1.240
2020/01/31 22:50:35.6	176.850	0.070	-0.840	1.260
2020/01/31 22:50:35.7	176.870	0.060	-0.810	1.280
2020/01/31 22:50:35.8	176.890	0.050	-0.780	1.300
2020/01/31 22:50:35.9	176.910	0.030	-0.750	1.320
2020/01/31 22:50:36.0	176.930	0.020	-0.720	1.330
2020/01/31 22:50:36.1	176.950	0.000	-0.680	1.340
2020/01/31 22:50:36.2	176.970	-0.010	-0.650	1.350
2020/01/31 22:50:36.3	176.990	-0.030	-0.600	1.360
2020/01/31 22:50:36.4	177.020	-0.040	-0.560	1.370
2020/01/31 22:50:36.5	177.040	-0.060	-0.520	1.370
2020/01/31 22:50:36.6	177.060	-0.080	-0.470	1.370
2020/01/31 22:50:36.7	177.090	-0.090	-0.430	1.360
2020/01/31 22:50:36.8	177.120	-0.110	-0.380	1.360
2020/01/31 22:50:36.9	177.150	-0.130	-0.330	1.350
2020/01/31 22:50:37.0	177.170	-0.140	-0.290	1.340
2020/01/31 22:50:37.1	177.210	-0.160	-0.240	1.320
2020/01/31 22:50:37.2	177.250	-0.180	-0.190	1.310
2020/01/31 22:50:37.3	177.290	-0.200	-0.150	1.290
2020/01/31 22:50:37.4	177.330	-0.220	-0.100	1.270
2020/01/31 22:50:37.5	177.370	-0.240	-0.050	1.250
2020/01/31 22:50:37.6	177.420	-0.260	-0.010	1.230
2020/01/31 22:50:37.7	177.470	-0.280	0.040	1.210
2020/01/31 22:50:37.8	177.530	-0.300	0.080	1.180
2020/01/31 22:50:37.9	177.580	-0.320	0.120	1.170
2020/01/31 22:50:38.0	177.650	-0.340	0.160	1.150
2020/01/31 22:50:38.1	177.710	-0.370	0.200	1.130
2020/01/31 22:50:38.2	177.770	-0.390	0.240	1.110
2020/01/31 22:50:38.3	177.830	-0.410	0.280	1.100
2020/01/31 22:50:38.4	177.900	-0.430	0.320	1.080
2020/01/31 22:50:38.5	177.970	-0.450	0.350	1.070
2020/01/31 22:50:38.6	178.030	-0.470	0.390	1.060
2020/01/31 22:50:38.7	178.100	-0.490	0.420	1.040
2020/01/31 22:50:38.8	178.170	-0.500	0.450	1.030
2020/01/31 22:50:38.9	178.250	-0.520	0.470	1.010
2020/01/31 22:50:39.0	178.320	-0.530	0.490	1.000
2020/01/31 22:50:39.1	178.390	-0.540	0.520	0.980
2020/01/31 22:50:39.2	178.460	-0.550	0.530	0.970
2020/01/31 22:50:39.3	178.530	-0.560	0.550	0.950
2020/01/31 22:50:39.4	178.600	-0.560	0.560	0.930
2020/01/31 22:50:39.5	178.670	-0.560	0.570	0.910
2020/01/31 22:50:39.6	178.740	-0.560	0.580	0.890
2020/01/31 22:50:39.7	178.800	-0.560	0.580	0.870
2020/01/31 22:50:39.8	178.870	-0.550	0.580	0.850
2020/01/31 22:50:39.9	178.930	-0.540	0.580	0.830
2020/01/31 22:50:40.0	178.990	-0.530	0.570	0.820
2020/01/31 22:50:40.1	179.050	-0.510	0.560	0.800
2020/01/31 22:50:40.2	179.100	-0.490	0.550	0.780
2020/01/31 22:50:40.3	179.150	-0.460	0.530	0.760
2020/01/31 22:50:40.4	179.210	-0.430	0.500	0.740
2020/01/31 22:50:40.5	179.260	-0.400	0.480	0.720
2020/01/31 22:50:40.6	179.300	-0.360	0.450	0.700
2020/01/31 22:50:40.7	179.350	-0.320	0.420	0.690
2020/01/31 22:50:40.8	179.390	-0.280	0.380	0.670
2020/01/31 22:50:40.9	179.430	-0.230	0.340	0.650
2020/01/31 22:50:41.0	179.480	-0.190	0.300	0.640
2020/01/31 22:50:41.1	179.520	-0.140	0.250	0.620
2020/01/31 22:50:41.2	179.560	-0.080	0.210	0.610
2020/01/31 22:50:41.3	179.590	-0.030	0.160	0.590
2020/01/31 22:50:41.4	179.630	0.030	0.110	0.580
2020/01/31 22:50:41.5	179.660	0.080	0.060	0.570
2020/01/31 22:50:41.6	179.700	0.140	0.010	0.560
2020/01/31 22:50:41.7	179.730	0.200	-0.040	0.550
2020/01/31 22:50:41.8	179.760	0.260	-0.090	0.540
2020/01/31 22:50:41.9	179.790	0.320	-0.140	0.530
2020/01/31 22:50:42.0	179.830	0.370	-0.180	0.520
2020/01/31 22:50:42.1	179.860	0.430	-0.230	0.520
2020/01/31 22:50:42.2	179.890	0.480	-0.280	0.520
2020/01/31 22:50:42.3	179.910	0.530	-0.330	0.520
2020/01/31 22:50:42.4	179.940	0.580	-0.380	0.520
2020/01/31 22:50:42.5	179.970	0.620	-0.420	0.520
2020/01/31 22:50:42.6	179.990	0.660	-0.460	0.530
2020/01/31 22:50:42.7	180.020	0.700	-0.510	0.530
2020/01/31 22:50:42.8	180.040	0.730	-0.550	0.540
2020/01/31 22:50:42.9	180.060	0.760	-0.590	0.550
2020/01/31 22:50:43.0	180.110	0.780	-0.630	0.570
2020/01/31 22:50:43.1	180.130	0.800	-0.660	0.580
2020/01/31 22:50:43.2	180.160	0.820	-0.690	0.590
2020/01/31 22:50:43.3	180.190	0.820	-0.710	0.600
2020/01/31 22:50:43.4	180.220	0.830	-0.740	0.620
2020/01/31 22:50:43.5	180.250	0.820	-0.750	0.630
2020/01/31 22:50:43.6	180.280	0.810	-0.770	0.640
2020/01/31 22:50:43.7	180.310	0.800	-0.780	0.650
2020/01/31 22:50:43.8	180.340	0.780	-0.790	0.670
2020/01/31 22:50:43.9	180.380	0.750	-0.790	0.680
2020/01/31 22:50:44.0	180.420	0.720	-0.790	0.690
2020/01/31 22:50:44.1	180.460	0.690	-0.780	0.700
2020/01/31 22:50:44.2	180.500	0.650	-0.780	0.720
2020/01/31 22:50:44.3	180.540	0.610	-0.770	0.740
2020/01/31 22:50:44.4	180.590	0.560	-0.750	0.760
2020/01/31 22:50:44.5	180.630	0.510	-0.730	0.780
2020/01/31 22:50:44.6	180.670	0.450	-0.710	0.800
2020/01/31 22:50:44.7	180.720	0.400	-0.690	0.830
2020/01/31 22:50:44.8	180.770	0.340	-0.660	0.850
2020/01/31 22:50:44.9	180.810	0.280	-0.630	0.880
2020/01/31 22:50:45.0	180.880	0.220	-0.600	0.920
2020/01/31 22:50:45.1	180.920	0.160	-0.570	0.940
2020/01/31 22:50:45.2	180.970	0.090	-0.540	0.970
2020/01/31 22:50:45.3	181.020	0.030	-0.500	1.000
2020/01/31 22:50:45.4	181.060	-0.030	-0.470	1.030
2020/01/31 22:50:45.5	181.100	-0.080	-0.430	1.060
2020/01/31 22:50:45.6	181.150	-0.140	-0.400	1.080
2020/01/31 22:50:45.7	181.190	-0.190	-0.370	1.110
2020/01/31 22:50:45.8	181.230	-0.240	-0.330	1.130
2020/01/31 22:50:45.9	181.270	-0.280	-0.310	1.160
2020/01/31 22:50:46.0	181.320	-0.320	-0.280	1.180
2020/01/31 22:50:46.1	181.360	-0.350	-0.260	1.200
2020/01/31 22:50:46.2	181.390	-0.380	-0.240	1.220
2020/01/31 22:50:46.3	181.430	-0.400	-0.220	1.240
2020/01/31 22:50:46.4	181.460	-0.420	-0.210	1.260
2020/01/31 22:50:46.5	181.490	-0.430	-0.200	1.270
2020/01/31 22:50:46.6	181.520	-0.430	-0.190	1.290
2020/01/31 22:50:46.7	181.550	-0.430	-0.190	1.300
2020/01/31 22:50:46.8	181.580	-0.420	-0.190	1.320
2020/01/31 22:50:46.9	181.600	-0.410	-0.200	1.320
2020/01/31 22:50:47.0	181.640	-0.390	-0.210	1.330
2020/01/31 22:50:47.1	181.660	-0.360	-0.220	1.340
2020/01/31 22:50:47.2	181.690	-0.330	-0.240	1.340
2020/01/31 22:50:47.3	181.720	-0.290	-0.260	1.330
2020/01/31 22:50:47.4	181.740	-0.250	-0.280	1.330
2020/01/31 22:50:47.5	181.770	-0.210	-0.300	1.310
2020/01/31 22:50:47.6	181.800	-0.160	-0.330	1.300
2020/01/31 22:50:47.7	181.830	-0.120	-0.360	1.280
2020/01/31 22:50:47.8	181.870	-0.070	-0.380	1.260
2020/01/31 22:50:47.9	181.900	-0.020	-0.410	1.230
2020/01/31 22:50:48.0	181.960	0.030	-0.440	1.210
2020/01/31 22:50:48.1	181.990	0.080	-0.470	1.180
2020/01/31 22:50:48.2	182.030	0.130	-0.500	1.160
2020/01/31 22:50:48.3	182.070	0.170	-0.520	1.130
2020/01/31 22:50:48.4	182.110	0.210	-0.540	1.110
2020/01/31 22:50:48.5	182.150	0.250	-0.560	1.090
2020/01/31 22:50:48.6	182.200	0.290	-0.580	1.060
2020/01/31 22:50:48.7	182.240	0.310	-0.590	1.050
2020/01/31 22:50:48.8	182.280	0.340	-0.600	1.030
2020/01/31 22:50:48.9	182.330	0.360	-0.610	1.010
2020/01/31 22:50:49.0	182.390	0.370	-0.610	1.000
2020/01/31 22:50:49.1	182.430	0.380	-0.610	0.990
2020/01/31 22:50:49.2	182.470	0.380	-0.600	0.980
2020/01/31 22:50:49.3	182.510	0.370	-0.590	0.980
2020/01/31 22:50:49.4	182.560	0.360	-0.580	0.970
2020/01/31 22:50:49.5	182.600	0.340	-0.560	0.970
2020/01/31 22:50:49.6	182.640	0.320	-0.540	0.980
2020/01/31 22:50:49.7	182.680	0.290	-0.520	0.980
2020/01/31 22:50:49.8	182.720	0.260	-0.490	0.980
2020/01/31 22:50:49.9	182.750	0.220	-0.460	0.990
2020/01/31 22:50:50.0	182.800	0.180	-0.430	1.000
2020/01/31 22:50:50.1	182.840	0.130	-0.400	1.010
2020/01/31 22:50:50.2	182.880	0.090	-0.360	1.010
2020/01/31 22:50:50.3	182.910	0.030	-0.320	1.020
2020/01/31 22:50:50.4	182.950	-0.020	-0.280	1.030
2020/01/31 22:50:50.5	182.990	-0.080	-0.240	1.040
2020/01/31 22:50:50.6	183.020	-0.140	-0.200	1.040
2020/01/31 22:50:50.7	183.060	-0.190	-0.150	1.040
2020/01/31 22:50:50.8	183.100	-0.250	-0.110	1.040
2020/01/31 22:50:50.9	183.150	-0.310	-0.060	1.040
2020/01/31 22:50:51.0	183.180	-0.370	-0.020	1.030
2020/01/31 22:50:51.1	183.230	-0.420	0.030	1.020
2020/01/31 22:50:51.2	183.270	-0.470	0.080	1.010
2020/01/31 22:50:51.3	183.320	-0.520	0.120	1.000
2020/01/31 22:50:51.4	183.370	-0.570	0.170	0.980
2020/01/31 22:50:51.5	183.420	-0.610	0.210	0.960
2020/01/31 22:50:51.6	183.470	-0.650	0.250	0.940
2020/01/31 22:50:51.7	183.520	-0.680	0.280	0.920
2020/01/31 22:50:51.8	183.560	-0.710	0.320	0.890
2020/01/31 22:50:51.9	183.610	-0.730	0.350	0.860
2020/01/31 22:50:52.0	183.660	-0.750	0.370	0.840
2020/01/31 22:50:52.1	183.710	-0.760	0.400	0.810
2020/01/31 22:50:52.2	183.760	-0.760	0.410	0.780
2020/01/31 22:50:52.3	183.800	-0.760	0.420	0.760
2020/01/31 22:50:52.4	183.850	-0.750	0.430	0.730
2020/01/31 22:50:52.5	183.890	-0.740	0.430	0.710
2020/01/31 22:50:52.6	183.930	-0.720	0.420	0.690
2020/01/31 22:50:52.7	183.970	-0.690	0.410	0.670
2020/01/31 22:50:52.8	184.010	-0.660	0.390	0.650
2020/01/31 22:50:52.9	184.050	-0.620	0.370	0.630
2020/01/31 22:50:53.0	184.080	-0.580	0.340	0.620
2020/01/31 22:50:53.1	184.110	-0.530	0.310	0.610
2020/01/31 22:50:53.2	184.140	-0.480	0.270	0.590
2020/01/31 22:50:53.3	184.170	-0.420	0.240	0.580
2020/01/31 22:50:53.4	184.200	-0.360	0.200	0.570
2020/01/31 22:50:53.5	184.220	-0.300	0.150	0.560
2020/01/31 22:50:53.6	184.240	-0.230	0.110	0.550
2020/01/31 22:50:53.7	184.260	-0.160	0.070	0.540
2020/01/31 22:50:53.8	184.280	-0.090	0.020	0.530
2020/01/31 22:50:53.9	184.300	-0.020	-0.020	0.520
2020/01/31 22:50:54.0	184.320	0.050	-0.060	0.510
2020/01/31 22:50:54.1	184.340	0.120	-0.100	0.490
2020/01/31 22:50:54.2	184.350	0.190	-0.130	0.480
2020/01/31 22:50:54.3	184.370	0.250	-0.170	0.460
2020/01/31 22:50:54.4	184.390	0.320	-0.190	0.440
2020/01/31 22:50:54.5	184.400	0.380	-0.220	0.410
2020/01/31 22:50:54.6	184.420	0.440	-0.240	0.390
2020/01/31 22:50:54.7	184.430	0.490	-0.260	0.360
2020/01/31 22:50:54.8	184.450	0.550	-0.270	0.330
2020/01/31 22:50:54.9	184.470	0.590	-0.280	0.300
2020/01/31 22:50:55.0	184.480	0.630	-0.290	0.270
2020/01/31 22:50:55.1	184.500	0.670	-0.290	0.240
2020/01/31 22:50:55.2	184.520	0.700	-0.290	0.210
2020/01/31 22:50:55.3	184.540	0.730	-0.290	0.180
2020/01/31 22:50:55.4	184.550	0.750	-0.290	0.150
2020/01/31 22:50:55.5	184.570	0.760	-0.280	0.130
2020/01/31 22:50:55.6	184.590	0.770	-0.280	0.100
2020/01/31 22:50:55.7	184.600	0.780	-0.280	0.080
2020/01/31 22:50:55.8	184.620	0.770	-0.270	0.060
2020/01/31 22:50:55.9	184.630	0.770	-0.270	0.040
2020/01/31 22:50:56.0	184.640	0.750	-0.270	0.020
2020/01/31 22:50:56.1	184.660	0.740	-0.260	0.010
2020/01/31 22:50:56.2	184.670	0.710	-0.260	0.000
2020/01/31 22:50:56.3	184.680	0.690	-0.260	-0.000
2020/01/31 22:50:56.4	184.700	0.660	-0.260	-0.010
2020/01/31 22:50:56.5	184.710	0.620	-0.260	-0.010
2020/01/31 22:50:56.6	184.720	0.580	-0.270	-0.010
2020/01/31 22:50:56.7	184.740	0.540	-0.270	0.000
2020/01/31 22:50:56.8	184.750	0.490	-0.280	0.010
2020/01/31 22:50:56.9	184.770	0.440	-0.280	0.020
2020/01/31 22:50:57.0	184.770	0.390	-0.290	0.040
2020/01/31 22:50:57.1	184.790	0.340	-0.300	0.060
2020/01/31 22:50:57.2	184.810	0.280	-0.300	0.080
2020/01/31 22:50:57.3	184.830	0.230	-0.310	0.110
2020/01/31 22:50:57.4	184.860	0.170	-0.320	0.130
2020/01/31 22:50:57.5	184.880	0.110	-0.330	0.170
2020/01/31 22:50:57.6	184.910	0.050	-0.340	0.200
2020/01/31 22:50:57.7	184.930	-0.000	-0.350	0.240
2020/01/31 22:50:57.8	184.960	-0.060	-0.360	0.290
2020/01/31 22:50:57.9	184.990	-0.120	-0.370	0.330
2020/01/31 22:50:58.0	185.020	-0.180	-0.380	0.390
2020/01/31 22:50:58.1	185.040	-0.230	-0.390	0.440
2020/01/31 22:50:58.2	185.070	-0.280	-0.390	0.500
2020/01/31 22:50:58.3	185.100	-0.340	-0.400	0.550
2020/01/31 22:50:58.4	185.130	-0.390	-0.410	0.610
2020/01/31 22:50:58.5	185.150	-0.430	-0.420	0.680
2020/01/31 22:50:58.6	185.180	-0.480	-0.420	0.740
2020/01/31 22:50:58.7	185.200	-0.520	-0.430	0.810
2020/01/31 22:50:58.8	185.230	-0.560	-0.430	0.880
2020/01/31 22:50:58.9	185.250	-0.590	-0.440	0.940
2020/01/31 22:50:59.0	185.280	-0.620	-0.450	1.020
2020/01/31 22:50:59.1	185.300	-0.650	-0.450	1.090
2020/01/31 22:50:59.2	185.320	-0.670	-0.460	1.150
2020/01/31 22:50:59.3	185.330	-0.690	-0.470	1.220
2020/01/31 22:50:59.4	185.350	-0.710	-0.480	1.280
2020/01/31 22:50:59.5	185.360	-0.720	-0.480	1.340
2020/01/31 22:50:59.6	185.370	-0.720	-0.490	1.400
2020/01/31 22:50:59.7	185.380	-0.720	-0.500	1.460
2020/01/31 22:50:59.8	185.390	-0.720	-0.510	1.510
2020/01/31 22:50:59.9	185.400	-0.720	-0.520	1.560
2020/01/31 22:51:00.0	185.410	-0.710	-0.530	1.600
2020/01/31 22:51:00.1	185.410	-0.690	-0.540	1.650
2020/01/31 22:51:00.2	185.420	-0.670	-0.560	1.680
2020/01/31 22:51:00.3	185.420	-0.650	-0.570	1.720
2020/01/31 22:51:00.4	185.420	-0.620	-0.580	1.750
2020/01/31 22:51:00.5	185.420	-0.590	-0.590	1.780
2020/01/31 22:51:00.6	185.420	-0.560	-0.600	1.800
2020/01/31 22:51:00.7	185.420	-0.520	-0.620	1.830
2020/01/31 22:51:00.8	185.410	-0.480	-0.630	1.850
2020/01/31 22:51:00.9	185.410	-0.440	-0.640	1.860
2020/01/31 22:51:01.0	185.410	-0.390	-0.660	1.870
2020/01/31 22:51:01.1	185.400	-0.350	-0.670	1.880
2020/01/31 22:51:01.2	185.400	-0.300	-0.680	1.890
2020/01/31 22:51:01.3	185.390	-0.240	-0.690	1.890
2020/01/31 22:51:01.4	185.380	-0.190	-0.700	1.890
2020/01/31 22:51:01.5	185.370	-0.140	-0.710	1.880
2020/01/31 22:51:01.6	185.360	-0.080	-0.720	1.870
2020/01/31 22:51:01.7	185.360	-0.030	-0.730	1.860
2020/01/31 22:51:01.8	185.350	0.030	-0.730	1.840
2020/01/31 22:51:01.9	185.340	0.080	-0.730	1.820
2020/01/31 22:51:02.0	185.360	0.140	-0.730	1.800
2020/01/31 22:51:02.1	185.360	0.190	-0.720	1.770
2020/01/31 22:51:02.2	185.360	0.240	-0.710	1.740
2020/01/31 22:51:02.3	185.360	0.280	-0.700	1.700
2020/01/31 22:51:02.4	185.370	0.330	-0.680	1.660
2020/01/31 22:51:02.5	185.380	0.370	-0.660	1.610
2020/01/31 22:51:02.6	185.390	0.410	-0.640	1.560
2020/01/31 22:51:02.7	185.400	0.440	-0.610	1.510
2020/01/31 22:51:02.8	185.420	0.470	-0.580	1.460
2020/01/31 22:51:02.9	185.440	0.500	-0.540	1.400
2020/01/31 22:51:03.0	185.480	0.520	-0.500	1.340
2020/01/31 22:51:03.1	185.500	0.540	-0.460	1.280
2020/01/31 22:51:03.2	185.530	0.550	-0.410	1.220
2020/01/31 22:51:03.3	185.550	0.560	-0.360	1.160
2020/01/31 22:51:03.4	185.590	0.560	-0.310	1.100
2020/01/31 22:51:03.5	185.620	0.560	-0.250	1.040
2020/01/31 22:51:03.6	185.650	0.560	-0.190	0.980
2020/01/31 22:51:03.7	185.690	0.550	-0.130	0.920
2020/01/31 22:51:03.8	185.720	0.530	-0.070	0.860
2020/01/31 22:51:03.9	185.760	0.520	-0.010	0.810
2020/01/31 22:51:04.0	185.790	0.490	0.050	0.760
2020/01/31 22:51:04.1	185.830	0.470	0.110	0.720
2020/01/31 22:51:04.2	185.860	0.440	0.170	0.670
2020/01/31 22:51:04.3	185.900	0.410	0.230	0.630
2020/01/31 22:51:04.4	185.930	0.380	0.290	0.600
2020/01/31 22:51:04.5	185.960	0.340	0.350	0.560
2020/01/31 22:51:04.6	186.000	0.310	0.400	0.530
2020/01/31 22:51:04.7	186.030	0.270	0.450	0.510
2020/01/31 22:51:04.8	186.060	0.230	0.500	0.490
2020/01/31 22:51:04.9	186.080	0.190	0.550	0.470
2020/01/31 22:51:05.0	186.100	0.150	0.580	0.460
2020/01/31 22:51:05.1	186.130	0.110	0.620	0.450
2020/01/31 22:51:05.2	186.150	0.070	0.650	0.440
2020/01/31 22:51:05.3	186.170	0.040	0.670	0.440
2020/01/31 22:51:05.4	186.180	0.000	0.690	0.450
2020/01/31 22:51:05.5	186.200	-0.030	0.700	0.450
2020/01/31 22:51:05.6	186.210	-0.060	0.710	0.460
2020/01/31 22:51:05.7	186.220	-0.090	0.710	0.470
2020/01/31 22:51:05.8	186.230	-0.120	0.700	0.480
2020/01/31 22:51:05.9	186.240	-0.140	0.690	0.490
2020/01/31 22:51:06.0	186.250	-0.160	0.670	0.520
2020/01/31 22:51:06.1	186.260	-0.180	0.650	0.530
2020/01/31 22:51:06.2	186.260	-0.190	0.630	0.550
2020/01/31 22:51:06.3	186.270	-0.200	0.590	0.560
2020/01/31 22:51:06.4	186.270	-0.210	0.560	0.580
2020/01/31 22:51:06.5	186.270	-0.210	0.520	0.600
2020/01/31 22:51:06.6	186.280	-0.210	0.480	0.620
2020/01/31 22:51:06.7	186.280	-0.210	0.440	0.640
2020/01/31 22:51:06.8	186.280	-0.200	0.390	0.660
2020/01/31 22:51:06.9	186.280	-0.200	0.340	0.680
2020/01/31 22:51:07.0	186.270	-0.180	0.290	0.700
2020/01/31 22:51:07.1	186.270	-0.170	0.240	0.720
2020/01/31 22:51:07.2	186.270	-0.160	0.190	0.750
2020/01/31 22:51:07.3	186.270	-0.140	0.140	0.770
2020/01/31 22:51:07.4	186.270	-0.120	0.080	0.800
2020/01/31 22:51:07.5	186.280	-0.100	0.030	0.830
2020/01/31 22:51:07.6	186.280	-0.080	-0.030	0.850
2020/01/31 22:51:07.7	186.280	-0.060	-0.080	0.880
2020/01/31 22:51:07.8	186.280	-0.040	-0.130	0.910
2020/01/31 22:51:07.9	186.290	-0.010	-0.190	0.930
2020/01/31 22:51:08.0	186.290	0.010	-0.240	0.970
2020/01/31 22:51:08.1	186.300	0.030	-0.290	0.990
2020/01/31 22:51:08.2	186.310	0.050	-0.340	1.010
2020/01/31 22:51:08.3	186.320	0.070	-0.380	1.030
2020/01/31 22:51:08.4	186.340	0.090	-0.430	1.050
2020/01/31 22:51:08.5	186.360	0.100	-0.470	1.070
2020/01/31 22:51:08.6	186.380	0.120	-0.500	1.090
2020/01/31 22:51:08.7	186.400	0.130	-0.540	1.110
2020/01/31 22:51:08.8	186.430	0.150	-0.570	1.130
2020/01/31 22:51:08.9	186.450	0.160	-0.600	1.140
2020/01/31 22:51:09.0	186.480	0.160	-0.620	1.170
2020/01/31 22:51:09.1	186.510	0.170	-0.640	1.180
2020/01/31 22:51:09.2	186.530	0.180	-0.660	1.200
2020/01/31 22:51:09.3	186.560	0.180	-0.670	1.220
2020/01/31 22:51:09.4	186.590	0.180	-0.680	1.230
2020/01/31 22:51:09.5	186.610	0.180	-0.690	1.250
2020/01/31 22:51:09.6	186.640	0.170	-0.690	1.260
2020/01/31 22:51:09.7	186.670	0.170	-0.680	1.280
2020/01/31 22:51:09.8	186.690	0.170	-0.680	1.290
2020/01/31 22:51:09.9	186.710	0.160	-0.670	1.300
2020/01/31 22:51:10.0	186.730	0.150	-0.660	1.320
2020/01/31 22:51:10.1	186.750	0.140	-0.640	1.330
2020/01/31 22:51:10.2	186.770	0.130	-0.630	1.340
2020/01/31 22:51:10.3	186.780	0.130	-0.610	1.350
2020/01/31 22:51:10.4	186.790	0.120	-0.590	1.360
2020/01/31 22:51:10.5	186.800	0.110	-0.570	1.360
2020/01/31 22:51:10.6	186.810	0.100	-0.550	1.370
2020/01/31 22:51:10.7	186.810	0.090	-0.530	1.370
2020/01/31 22:51:10.8	186.810	0.090	-0.520	1.370
2020/01/31 22:51:10.9	186.820	0.080	-0.500	1.370
2020/01/31 22:51:11.0	186.810	0.070	-0.480	1.370
2020/01/31 22:51:11.1	186.810	0.070	-0.460	1.360
2020/01/31 22:51:11.2	186.810	0.070	-0.440	1.350
2020/01/31 22:51:11.3	186.810	0.060	-0.420	1.330
2020/01/31 22:51:11.4	186.810	0.060	-0.400	1.310
2020/01/31 22:51:11.5	186.810	0.060	-0.380	1.280
2020/01/31 22:51:11.6	186.820	0.060	-0.360	1.250
2020/01/31 22:51:11.7	186.820	0.060	-0.340	1.220
2020/01/31 22:51:11.8	186.830	0.060	-0.320	1.180
2020/01/31 22:51:11.9	186.840	0.060	-0.300	1.140
2020/01/31 22:51:12.0	186.850	0.060	-0.280	1.100
2020/01/31 22:51:12.1	186.870	0.060	-0.260	1.060
2020/01/31 22:51:12.2	186.880	0.060	-0.240	1.010
2020/01/31 22:51:12.3	186.900	0.070	-0.230	0.960
2020/01/31 22:51:12.4	186.930	0.070	-0.210	0.910
2020/01/31 22:51:12.5	186.950	0.070	-0.200	0.860
2020/01/31 22:51:12.6	186.980	0.070	-0.180	0.810
2020/01/31 22:51:12.7	187.010	0.070	-0.170	0.760
2020/01/31 22:51:12.8	187.040	0.080	-0.170	0.710
2020/01/31 22:51:12.9	187.070	0.080	-0.160	0.670
2020/01/31 22:51:13.0	187.100	0.080	-0.160	0.620
2020/01/31 22:51:13.1	187.130	0.080	-0.160	0.580
2020/01/31 22:51:13.2	187.160	0.090	-0.170	0.540
2020/01/31 22:51:13.3	187.190	0.090	-0.180	0.510
2020/01/31 22:51:13.4	187.220	0.090	-0.200	0.470
2020/01/31 22:51:13.5	187.250	0.090	-0.220	0.450
2020/01/31 22:51:13.6	187.280	0.090	-0.240	0.420
2020/01/31 22:51:13.7	187.300	0.090	-0.270	0.400
2020/01/31 22:51:13.8	187.320	0.100	-0.300	0.390
2020/01/31 22:51:13.9	187.350	0.100	-0.340	0.380
2020/01/31 22:51:14.0	187.360	0.100	-0.380	0.380
2020/01/31 22:51:14.1	187.370	0.100	-0.430	0.380
2020/01/31 22:51:14.2	187.390	0.100	-0.480	0.380
2020/01/31 22:51:14.3	187.400	0.100	-0.530	0.390
2020/01/31 22:51:14.4	187.410	0.100	-0.580	0.400
2020/01/31 22:51:14.5	187.420	0.100	-0.630	0.420
2020/01/31 22:51:14.6	187.430	0.100	-0.690	0.440
2020/01/31 22:51:14.7	187.430	0.100	-0.740	0.460
2020/01/31 22:51:14.8	187.430	0.100	-0.800	0.490
2020/01/31 22:51:14.9	187.430	0.100	-0.850	0.520
2020/01/31 22:51:15.0	187.410	0.100	-0.900	0.560
2020/01/31 22:51:15.1	187.410	0.100	-0.950	0.590
2020/01/31 22:51:15.2	187.400	0.100	-1.000	0.630
2020/01/31 22:51:15.3	187.390	0.100	-1.040	0.670
2020/01/31 22:51:15.4	187.380	0.100	-1.080	0.710
2020/01/31 22:51:15.5	187.370	0.090	-1.110	0.760
2020/01/31 22:51:15.6	187.350	0.090	-1.140	0.810
2020/01/31 22:51:15.7	187.340	0.080	-1.160	0.850
2020/01/31 22:51:15.8	187.330	0.070	-1.170	0.910
2020/01/31 22:51:15.9				
2020/01/31 22:51:16.0	187.310	0.070	-1.170	0.960
2020/01/31 22:51:16.1	187.270	0.040	-1.160	1.070
2020/01/31 22:51:16.2	187.250	0.030	-1.140	1.130
2020/01/31 22:51:16.3	187.240	0.020	-1.120	1.190
2020/01/31 22:51:16.4	187.220	-0.000	-1.090	1.250
2020/01/31 22:51:16.5	187.210	-0.020	-1.040	1.310
2020/01/31 22:51:16.6	187.190	-0.040	-0.990	1.360
2020/01/31 22:51:16.7	187.180	-0.060	-0.930	1.420
2020/01/31 22:51:16.8	187.160	-0.090	-0.870	1.480
2020/01/31 22:51:16.9	187.150	-0.110	-0.800	1.540
2020/01/31 22:51:17.0	187.150	-0.140	-0.720	1.600
2020/01/31 22:51:17.1	187.140	-0.170	-0.640	1.650
2020/01/31 22:51:17.2	187.130	-0.190	-0.550	1.700
2020/01/31 22:51:17.3	187.120	-0.220	-0.450	1.750
2020/01/31 22:51:17.4	187.120	-0.250	-0.350	1.790
2020/01/31 22:51:17.5	187.110	-0.280	-0.250	1.820
2020/01/31 22:51:17.6	187.110	-0.310	-0.150	1.850
2020/01/31 22:51:17.7	187.110	-0.340	-0.040	1.870
2020/01/31 22:51:17.8	187.120	-0.370	0.070	1.890
2020/01/31 22:51:17.9	187.120	-0.400	0.180	1.900
2020/01/31 22:51:18.0	187.140	-0.420	0.290	1.900
2020/01/31 22:51:18.1	187.150	-0.450	0.390	1.890
2020/01/31 22:51:18.2	187.160	-0.470	0.500	1.880
2020/01/31 22:51:18.3	187.180	-0.490	0.600	1.860
2020/01/31 22:51:18.4	187.200	-0.520	0.690	1.840
2020/01/31 22:51:18.5	187.220	-0.530	0.790	1.810
2020/01/31 22:51:18.6	187.250	-0.550	0.870	1.770
2020/01/31 22:51:18.7	187.270	-0.560	0.950	1.730
2020/01/31 22:51:18.8	187.300	-0.580	1.010	1.690
2020/01/31 22:51:18.9	187.330	-0.580	1.070	1.640
2020/01/31 22:51:19.0	187.360	-0.590	1.120	1.590
2020/01/31 22:51:19.1	187.390	-0.590	1.160	1.540
2020/01/31 22:51:19.2	187.430	-0.590	1.190	1.480
2020/01/31 22:51:19.3	187.460	-0.580	1.210	1.420
2020/01/31 22:51:19.4	187.490	-0.570	1.220	1.370
2020/01/31 22:51:19.5	187.520	-0.560	1.220	1.310
2020/01/31 22:51:19.6	187.550	-0.540	1.200	1.250
2020/01/31 22:51:19.7	187.580	-0.520	1.180	1.190
2020/01/31 22:51:19.8	187.600	-0.490	1.140	1.130
2020/01/31 22:51:19.9	187.630	-0.460	1.090	1.080
2020/01/31 22:51:20.0	187.630	-0.430	1.030	1.030
2020/01/31 22:51:20.1	187.650	-0.390	0.960	0.970
2020/01/31 22:51:20.2	187.670	-0.350	0.880	0.920
2020/01/31 22:51:20.3	187.690	-0.300	0.800	0.880
2020/01/31 22:51:20.4	187.700	-0.260	0.700	0.830
2020/01/31 22:51:20.5	187.710	-0.200	0.600	0.790
2020/01/31 22:51:20.6	187.720	-0.150	0.500	0.750
2020/01/31 22:51:20.7	187.730	-0.100	0.390	0.720
2020/01/31 22:51:20.8	187.730	-0.040	0.280	0.680
2020/01/31 22:51:20.9	187.740	0.020	0.160	0.650
2020/01/31 22:51:21.0	187.740	0.080	0.050	0.620
2020/01/31 22:51:21.1	187.740	0.140	-0.060	0.600
2020/01/31 22:51:21.2	187.740	0.190	-0.170	0.570
2020/01/31 22:51:21.3	187.750	0.250	-0.270	0.550
2020/01/31 22:51:21.4	187.750	0.310	-0.370	0.530
2020/01/31 22:51:21.5	187.750	0.360	-0.460	0.510
2020/01/31 22:51:21.6	187.760	0.410	-0.550	0.490
2020/01/31 22:51:21.7	187.770	0.450	-0.620	0.480
2020/01/31 22:51:21.8	187.780	0.490	-0.690	0.470
2020/01/31 22:51:21.9	187.790	0.530	-0.750	0.460
2020/01/31 22:51:22.0	187.800	0.550	-0.790	0.450
2020/01/31 22:51:22.1	187.810	0.580	-0.830	0.450
2020/01/31 22:51:22.2	187.830	0.600	-0.850	0.440
2020/01/31 22:51:22.3	187.850	0.610	-0.860	0.440
2020/01/31 22:51:22.4	187.870	0.610	-0.860	0.450
2020/01/31 22:51:22.5	187.890	0.610	-0.860	0.450
2020/01/31 22:51:22.6	187.920	0.600	-0.840	0.460
2020/01/31 22:51:22.7	187.940	0.590	-0.810	0.470
2020/01/31 22:51:22.8	187.970	0.570	-0.780	0.490
2020/01/31 22:51:22.9	187.990	0.540	-0.740	0.510
2020/01/31 22:51:23.0	188.010	0.510	-0.690	0.530
2020/01/31 22:51:23.1	188.040	0.470	-0.640	0.550
2020/01/31 22:51:23.2	188.070	0.430	-0.590	0.570
2020/01/31 22:51:23.3	188.090	0.380	-0.530	0.600
2020/01/31 22:51:23.4	188.120	0.330	-0.480	0.630
2020/01/31 22:51:23.5	188.140	0.270	-0.420	0.660
2020/01/31 22:51:23.6	188.160	0.220	-0.360	0.700
2020/01/31 22:51:23.7	188.180	0.160	-0.310	0.730
2020/01/31 22:51:23.8	188.190	0.100	-0.250	0.770
2020/01/31 22:51:23.9	188.200	0.040	-0.210	0.810
2020/01/31 22:51:24.0	188.190	-0.020	-0.170	0.860
2020/01/31 22:51:24.1	188.200	-0.070	-0.130	0.910
2020/01/31 22:51:24.2	188.200	-0.130	-0.100	0.960
2020/01/31 22:51:24.3	188.190	-0.180	-0.080	1.010
2020/01/31 22:51:24.4	188.190	-0.230	-0.060	1.060
2020/01/31 22:51:24.5	188.170	-0.280	-0.060	1.120
2020/01/31 22:51:24.6	188.160	-0.320	-0.060	1.180
2020/01/31 22:51:24.7	188.140	-0.350	-0.070	1.230
2020/01/31 22:51:24.8	188.110	-0.380	-0.080	1.290
2020/01/31 22:51:24.9	188.090	-0.400	-0.110	1.350
2020/01/31 22:51:25.0	188.060	-0.420	-0.140	1.420
2020/01/31 22:51:25.1	188.030	-0.430	-0.180	1.480
2020/01/31 22:51:25.2	187.990	-0.430	-0.230	1.540
2020/01/31 22:51:25.3	187.950	-0.420	-0.290	1.600
2020/01/31 22:51:25.4	187.900	-0.410	-0.340	1.660
2020/01/31 22:51:25.5	187.860	-0.390	-0.410	1.720
2020/01/31 22:51:25.6	187.810	-0.370	-0.470	1.780
2020/01/31 22:51:25.7	187.760	-0.340	-0.540	1.840
2020/01/31 22:51:25.8	187.710	-0.300	-0.610	1.890
2020/01/31 22:51:25.9	187.660	-0.260	-0.680	1.940
2020/01/31 22:51:26.0	187.610	-0.210	-0.750	2.000
2020/01/31 22:51:26.1	187.560	-0.160	-0.810	2.040
2020/01/31 22:51:26.2	187.510	-0.100	-0.870	2.080
2020/01/31 22:51:26.3	187.460	-0.050	-0.920	2.110
2020/01/31 22:51:26.4	187.410	0.020	-0.970	2.140
2020/01/31 22:51:26.5	187.370	0.080	-1.010	2.170
2020/01/31 22:51:26.6	187.330	0.140	-1.040	2.190
2020/01/31 22:51:26.7	187.290	0.200	-1.070	2.200
2020/01/31 22:51:26.8	187.250	0.260	-1.080	2.210
2020/01/31 22:51:26.9	187.220	0.320	-1.090	2.220
2020/01/31 22:51:27.0	187.200	0.380	-1.090	2.220
2020/01/31 22:51:27.1	187.180	0.430	-1.070	2.210
2020/01/31 22:51:27.2	187.160	0.480	-1.050	2.200
2020/01/31 22:51:27.3	187.150	0.520	-1.010	2.190
2020/01/31 22:51:27.4	187.140	0.560	-0.970	2.170
2020/01/31 22:51:27.5	187.140	0.590	-0.910	2.140
2020/01/31 22:51:27.6	187.140	0.620	-0.850	2.110
2020/01/31 22:51:27.7	187.150	0.640	-0.780	2.080
2020/01/31 22:51:27.8	187.170	0.650	-0.700	2.050
2020/01/31 22:51:27.9	187.180	0.660	-0.610	2.010
2020/01/31 22:51:28.0	187.200	0.660	-0.520	1.970
2020/01/31 22:51:28.1	187.230	0.650	-0.420	1.930
2020/01/31 22:51:28.2	187.260	0.630	-0.320	1.880
2020/01/31 22:51:28.3	187.290	0.610	-0.220	1.840
2020/01/31 22:51:28.4	187.330	0.580	-0.110	1.790
2020/01/31 22:51:28.5				
2020/01/31 22:51:28.6	187.370	0.550	-0.000	1.740
2020/01/31 22:51:28.7	187.450	0.460	0.210	1.640
2020/01/31 22:51:28.8	187.500	0.410	0.310	1.590
2020/01/31 22:51:28.9	187.550	0.360	0.410	1.540
2020/01/31 22:51:29.0	187.590	0.300	0.500	1.490
2020/01/31 22:51:29.1	187.640	0.240	0.590	1.440
2020/01/31 22:51:29.2	187.690	0.170	0.660	1.390
2020/01/31 22:51:29.3	187.740	0.110	0.740	1.340
2020/01/31 22:51:29.4	187.790	0.050	0.800	1.300
2020/01/31 22:51:29.5	187.830	-0.020	0.850	1.250
2020/01/31 22:51:29.6	187.880	-0.080	0.900	1.210
2020/01/31 22:51:29.7	187.920	-0.140	0.930	1.170
2020/01/31 22:51:29.8	187.960	-0.200	0.950	1.140
2020/01/31 22:51:29.9	188.000	-0.260	0.960	1.110
2020/01/31 22:51:30.0	188.030	-0.310	0.960	1.080
2020/01/31 22:51:30.1	188.060	-0.350	0.950	1.050
2020/01/31 22:51:30.2	188.090	-0.390	0.930	1.040
2020/01/31 22:51:30.3	188.110	-0.430	0.890	1.020
2020/01/31 22:51:30.4	188.120	-0.450	0.840	1.010
2020/01/31 22:51:30.5	188.130	-0.470	0.780	1.010
2020/01/31 22:51:30.6	188.130	-0.490	0.700	1.010
2020/01/31 22:51:30.7	188.130	-0.490	0.620	1.010
2020/01/31 22:51:30.8	188.120	-0.490	0.530	1.020
2020/01/31 22:51:30.9	188.110	-0.480	0.420	1.030
2020/01/31 22:51:31.0	188.090	-0.460	0.310	1.050
2020/01/31 22:51:31.1	188.070	-0.430	0.190	1.070
2020/01/31 22:51:31.2	188.040	-0.400	0.070	1.090
2020/01/31 22:51:31.3	188.000	-0.360	-0.050	1.120
2020/01/31 22:51:31.4	187.960	-0.310	-0.180	1.140
2020/01/31 22:51:31.5	187.920	-0.260	-0.310	1.170
2020/01/31 22:51:31.6	187.880	-0.200	-0.430	1.200
2020/01/31 22:51:31.7	187.830	-0.140	-0.550	1.230
2020/01/31 22:51:31.8	187.780	-0.080	-0.670	1.260
2020/01/31 22:51:31.9	187.730	-0.010	-0.770	1.290
2020/01/31 22:51:32.0	187.680	0.050	-0.870	1.320
2020/01/31 22:51:32.1	187.630	0.120	-0.970	1.350
2020/01/31 22:51:32.2	187.580	0.180	-1.050	1.380
2020/01/31 22:51:32.3	187.520	0.250	-1.120	1.410
2020/01/31 22:51:32.4	187.470	0.310	-1.180	1.440
2020/01/31 22:51:32.5	187.420	0.370	-1.230	1.460
2020/01/31 22:51:32.6	187.370	0.420	-1.270	1.490
2020/01/31 22:51:32.7	187.320	0.470	-1.300	1.520
2020/01/31 22:51:32.8	187.280	0.520	-1.310	1.540
2020/01/31 22:51:32.9	187.240	0.560	-1.320	1.570
2020/01/31 22:51:33.0	187.200	0.600	-1.310	1.590
2020/01/31 22:51:33.1	187.170	0.630	-1.300	1.610
2020/01/31 22:51:33.2	187.130	0.650	-1.270	1.630
2020/01/31 22:51:33.3	187.100	0.670	-1.230	1.650
2020/01/31 22:51:33.4	187.070	0.680	-1.190	1.660
2020/01/31 22:51:33.5	187.050	0.690	-1.130	1.670
2020/01/31 22:51:33.6	187.030	0.690	-1.070	1.680
2020/01/31 22:51:33.7	187.010	0.680	-1.010	1.680
2020/01/31 22:51:33.8	186.990	0.660	-0.940	1.690
2020/01/31 22:51:33.9	186.970	0.640	-0.860	1.680
2020/01/31 22:51:34.0	186.970	0.610	-0.790	1.680
2020/01/31 22:51:34.1	186.960	0.580	-0.710	1.680
2020/01/31 22:51:34.2	186.950	0.540	-0.620	1.660
2020/01/31 22:51:34.3	186.940	0.500	-0.540	1.650
2020/01/31 22:51:34.4	186.940	0.450	-0.460	1.640
2020/01/31 22:51:34.5	186.940	0.400	-0.380	1.620
2020/01/31 22:51:34.6	186.940	0.350	-0.310	1.600
2020/01/31 22:51:34.7	186.940	0.290	-0.230	1.580
2020/01/31 22:51:34.8				
2020/01/31 22:51:34.9	186.940	0.230	-0.160	1.560
2020/01/31 22:51:35.0	186.970	0.100	-0.030	1.510
2020/01/31 22:51:35.1	186.980	0.040	0.030	1.480
2020/01/31 22:51:35.2	186.980	-0.020	0.090	1.460
2020/01/31 22:51:35.3	186.990	-0.090	0.140	1.440
2020/01/31 22:51:35.4	187.000	-0.150	0.180	1.420
2020/01/31 22:51:35.5	187.010	-0.210	0.220	1.400
2020/01/31 22:51:35.6	187.020	-0.270	0.260	1.380
2020/01/31 22:51:35.7	187.040	-0.330	0.290	1.360
2020/01/31 22:51:35.8	187.050	-0.380	0.310	1.350
2020/01/31 22:51:35.9	187.060	-0.430	0.340	1.340
2020/01/31 22:51:36.0	187.080	-0.480	0.350	1.330
2020/01/31 22:51:36.1	187.090	-0.530	0.360	1.320
2020/01/31 22:51:36.2	187.110	-0.570	0.370	1.320
2020/01/31 22:51:36.3	187.130	-0.610	0.370	1.310
2020/01/31 22:51:36.4	187.150	-0.640	0.370	1.320
2020/01/31 22:51:36.5	187.170	-0.680	0.370	1.320
2020/01/31 22:51:36.6	187.190	-0.700	0.360	1.320
2020/01/31 22:51:36.7	187.220	-0.720	0.350	1.330
2020/01/31 22:51:36.8	187.240	-0.740	0.340	1.330
2020/01/31 22:51:36.9	187.260	-0.760	0.320	1.340
2020/01/31 22:51:37.0	187.280	-0.770	0.300	1.360
2020/01/31 22:51:37.1	187.300	-0.770	0.280	1.370
2020/01/31 22:51:37.2	187.320	-0.770	0.250	1.380
2020/01/31 22:51:37.3	187.340	-0.770	0.220	1.390
2020/01/31 22:51:37.4	187.360	-0.760	0.190	1.410
2020/01/31 22:51:37.5	187.370	-0.750	0.150	1.420
2020/01/31 22:51:37.6	187.380	-0.730	0.110	1.440
2020/01/31 22:51:37.7	187.390	-0.710	0.070	1.450
2020/01/31 22:51:37.8	187.400	-0.690	0.020	1.470
2020/01/31 22:51:37.9	187.400	-0.660	-0.030	1.490
2020/01/31 22:51:38.0	187.410	-0.630	-0.080	1.510
2020/01/31 22:51:38.1	187.400	-0.600	-0.130	1.540
2020/01/31 22:51:38.2	187.390	-0.560	-0.190	1.560
2020/01/31 22:51:38.3	187.380	-0.520	-0.250	1.580
2020/01/31 22:51:38.4	187.370	-0.480	-0.310	1.610
2020/01/31 22:51:38.5	187.350	-0.430	-0.380	1.640
2020/01/31 22:51:38.6	187.330	-0.380	-0.440	1.670
2020/01/31 22:51:38.7	187.300	-0.340	-0.510	1.700
2020/01/31 22:51:38.8	187.270	-0.290	-0.580	1.730
2020/01/31 22:51:38.9	187.240	-0.240	-0.640	1.770
2020/01/31 22:51:39.0	187.190	-0.190	-0.710	1.810
2020/01/31 22:51:39.1	187.160	-0.130	-0.770	1.850
2020/01/31 22:51:39.2	187.120	-0.080	-0.830	1.890
2020/01/31 22:51:39.3	187.070	-0.030	-0.890	1.930
2020/01/31 22:51:39.4	187.030	0.020	-0.950	1.980
2020/01/31 22:51:39.5	186.980	0.070	-1.000	2.030
2020/01/31 22:51:39.6	186.940	0.110	-1.050	2.070
2020/01/31 22:51:39.7	186.890	0.160	-1.090	2.120
2020/01/31 22:51:39.8	186.840	0.200	-1.130	2.160
2020/01/31 22:51:39.9	186.790	0.240	-1.160	2.210
2020/01/31 22:51:40.0	186.740	0.280	-1.180	2.250
2020/01/31 22:51:40.1	186.690	0.320	-1.200	2.290
2020/01/31 22:51:40.2	186.640	0.350	-1.210	2.330
2020/01/31 22:51:40.3	186.590	0.380	-1.210	2.370
2020/01/31 22:51:40.4	186.540	0.400	-1.210	2.400
2020/01/31 22:51:40.5	186.490	0.430	-1.190	2.420
2020/01/31 22:51:40.6	186.440	0.450	-1.170	2.450
2020/01/31 22:51:40.7	186.400	0.460	-1.140	2.460
2020/01/31 22:51:40.8	186.360	0.470	-1.100	2.480
2020/01/31 22:51:40.9	186.320	0.480	-1.050	2.480
2020/01/31 22:51:41.0	186.290	0.480	-1.000	2.490
2020/01/31 22:51:41.1	186.260	0.480	-0.940	2.480
2020/01/31 22:51:41.2	186.230	0.470	-0.860	2.470
2020/01/31 22:51:41.3	186.210	0.460	-0.790	2.460
2020/01/31 22:51:41.4	186.180	0.450	-0.700	2.440
2020/01/31 22:51:41.5	186.170	0.430	-0.620	2.410
2020/01/31 22:51:41.6	186.160	0.410	-0.520	2.390
2020/01/31 22:51:41.7	186.150	0.390	-0.430	2.350
2020/01/31 22:51:41.8	186.140	0.370	-0.330	2.320
2020/01/31 22:51:41.9	186.140	0.340	-0.230	2.280
2020/01/31 22:51:42.0	186.160	0.300	-0.120	2.240
2020/01/31 22:51:42.1	186.170	0.270	-0.020	2.190
2020/01/31 22:51:42.2	186.180	0.240	0.080	2.150
2020/01/31 22:51:42.3	186.190	0.200	0.180	2.100
2020/01/31 22:51:42.4	186.200	0.160	0.270	2.060
2020/01/31 22:51:42.5	186.210	0.120	0.360	2.010
2020/01/31 22:51:42.6	186.230	0.080	0.450	1.970
2020/01/31 22:51:42.7	186.240	0.050	0.530	1.930
2020/01/31 22:51:42.8	186.260	0.010	0.600	1.880
2020/01/31 22:51:42.9	186.280	-0.030	0.660	1.840
2020/01/31 22:51:43.0	186.300	-0.070	0.720	1.810
2020/01/31 22:51:43.1	186.320	-0.100	0.770	1.770
2020/01/31 22:51:43.2				
2020/01/31 22:51:43.3	186.330	-0.140	0.810	1.740
2020/01/31 22:51:43.4	186.370	-0.200	0.870	1.680
2020/01/31 22:51:43.5	186.390	-0.230	0.890	1.660
2020/01/31 22:51:43.6	186.400	-0.250	0.900	1.630
2020/01/31 22:51:43.7	186.420	-0.280	0.900	1.620
2020/01/31 22:51:43.8	186.430	-0.300	0.890	1.600
2020/01/31 22:51:43.9	186.450	-0.310	0.880	1.590
2020/01/31 22:51:44.0	186.470	-0.330	0.860	1.580
2020/01/31 22:51:44.1	186.480	-0.340	0.830	1.570
2020/01/31 22:51:44.2	186.490	-0.350	0.800	1.560
2020/01/31 22:51:44.3	186.500	-0.350	0.760	1.560
2020/01/31 22:51:44.4	186.510	-0.350	0.720	1.560
2020/01/31 22:51:44.5	186.510	-0.350	0.670	1.570
2020/01/31 22:51:44.6	186.520	-0.340	0.620	1.570
2020/01/31 22:51:44.7	186.520	-0.330	0.570	1.580
2020/01/31 22:51:44.8	186.520	-0.320	0.510	1.590
2020/01/31 22:51:44.9	186.520	-0.310	0.450	1.590
2020/01/31 22:51:45.0	186.530	-0.290	0.390	1.610
2020/01/31 22:51:45.1	186.530	-0.270	0.330	1.620
2020/01/31 22:51:45.2	186.530	-0.250	0.270	1.630
2020/01/31 22:51:45.3	186.530	-0.220	0.210	1.640
2020/01/31 22:51:45.4	186.530	-0.200	0.150	1.650
2020/01/31 22:51:45.5	186.530	-0.170	0.100	1.670
2020/01/31 22:51:45.6	186.540	-0.140	0.040	1.680
2020/01/31 22:51:45.7	186.540	-0.110	-0.010	1.690
2020/01/31 22:51:45.8	186.540	-0.080	-0.060	1.700
2020/01/31 22:51:45.9	186.550	-0.050	-0.100	1.710
2020/01/31 22:51:46.0	186.560	-0.020	-0.150	1.720
2020/01/31 22:51:46.1	186.560	0.010	-0.190	1.730
2020/01/31 22:51:46.2	186.570	0.040	-0.220	1.740
2020/01/31 22:51:46.3	186.580	0.080	-0.250	1.750
2020/01/31 22:51:46.4	186.590	0.100	-0.280	1.750
2020/01/31 22:51:46.5	186.600	0.130	-0.310	1.760
2020/01/31 22:51:46.6	186.610	0.160	-0.330	1.770
2020/01/31 22:51:46.7	186.630	0.190	-0.350	1.770
2020/01/31 22:51:46.8	186.640	0.210	-0.360	1.780
2020/01/31 22:51:46.9	186.650	0.230	-0.370	1.780
2020/01/31 22:51:47.0	186.670	0.260	-0.380	1.790
2020/01/31 22:51:47.1	186.690	0.270	-0.390	1.790
2020/01/31 22:51:47.2	186.700	0.290	-0.390	1.780
2020/01/31 22:51:47.3	186.720	0.310	-0.390	1.780
2020/01/31 22:51:47.4				
2020/01/31 22:51:47.5	186.730	0.320	-0.400	1.770
2020/01/31 22:51:47.6	186.760	0.340	-0.400	1.750
2020/01/31 22:51:47.7	186.780	0.350	-0.400	1.740
2020/01/31 22:51:47.8	186.790	0.360	-0.400	1.730
2020/01/31 22:51:47.9	186.800	0.360	-0.400	1.710
2020/01/31 22:51:48.0	186.800	0.360	-0.400	1.700
2020/01/31 22:51:48.1	186.810	0.360	-0.410	1.680
2020/01/31 22:51:48.2	186.820	0.360	-0.410	1.660
2020/01/31 22:51:48.3	186.820	0.360	-0.420	1.640
2020/01/31 22:51:48.4	186.830	0.360	-0.430	1.620
2020/01/31 22:51:48.5	186.830	0.360	-0.440	1.600
2020/01/31 22:51:48.6	186.830	0.360	-0.460	1.580
2020/01/31 22:51:48.7	186.830	0.360	-0.480	1.560
2020/01/31 22:51:48.8	186.830	0.350	-0.500	1.540
2020/01/31 22:51:48.9	186.820	0.350	-0.530	1.520
2020/01/31 22:51:49.0	186.810	0.350	-0.550	1.500
2020/01/31 22:51:49.1	186.800	0.350	-0.580	1.490
2020/01/31 22:51:49.2	186.780	0.350	-0.620	1.470
2020/01/31 22:51:49.3	186.770	0.350	-0.650	1.460
2020/01/31 22:51:49.4	186.750	0.350	-0.680	1.450
2020/01/31 22:51:49.5				
2020/01/31 22:51:49.6	186.730	0.350	-0.720	1.440
2020/01/31 22:51:49.7	186.690	0.350	-0.790	1.430
2020/01/31 22:51:49.8	186.670	0.350	-0.820	1.420
2020/01/31 22:51:49.9	186.650	0.360	-0.850	1.420
2020/01/31 22:51:50.0	186.650	0.360	-0.880	1.420
2020/01/31 22:51:50.1	186.630	0.360	-0.910	1.420
2020/01/31 22:51:50.2	186.610	0.360	-0.940	1.410
2020/01/31 22:51:50.3	186.590	0.370	-0.960	1.410
2020/01/31 22:51:50.4	186.570	0.370	-0.970	1.400
2020/01/31 22:51:50.5	186.550	0.370	-0.980	1.400
2020/01/31 22:51:50.6	186.540	0.370	-0.990	1.390
2020/01/31 22:51:50.7	186.520	0.370	-0.990	1.390
2020/01/31 22:51:50.8	186.510	0.370	-0.990	1.390
2020/01/31 22:51:50.9	186.500	0.360	-0.980	1.380
2020/01/31 22:51:51.0	186.470	0.360	-0.960	1.380
2020/01/31 22:51:51.1	186.460	0.350	-0.950	1.380
2020/01/31 22:51:51.2	186.450	0.340	-0.920	1.380
2020/01/31 22:51:51.3	186.450	0.330	-0.890	1.370
2020/01/31 22:51:51.4	186.440	0.320	-0.860	1.370
2020/01/31 22:51:51.5	186.430	0.300	-0.830	1.370
2020/01/31 22:51:51.6				
2020/01/31 22:51:51.7	186.430	0.290	-0.790	1.370
2020/01/31 22:51:51.8	186.420	0.250	-0.700	1.360
2020/01/31 22:51:51.9	186.420	0.230	-0.650	1.360
2020/01/31 22:51:52.0	186.410	0.210	-0.610	1.360
2020/01/31 22:51:52.1	186.410	0.180	-0.560	1.360
2020/01/31 22:51:52.2	186.410	0.160	-0.510	1.360
2020/01/31 22:51:52.3	186.410	0.130	-0.460	1.360
2020/01/31 22:51:52.4	186.410	0.110	-0.420	1.360
2020/01/31 22:51:52.5	186.410	0.080	-0.370	1.360
2020/01/31 22:51:52.6	186.420	0.050	-0.320	1.360
2020/01/31 22:51:52.7	186.420	0.020	-0.280	1.360
2020/01/31 22:51:52.8	186.430	-0.010	-0.240	1.360
2020/01/31 22:51:52.9	186.430	-0.050	-0.200	1.360
2020/01/31 22:51:53.0	186.440	-0.080	-0.170	1.370
2020/01/31 22:51:53.1	186.450	-0.110	-0.140	1.370
2020/01/31 22:51:53.2	186.460	-0.140	-0.110	1.370
2020/01/31 22:51:53.3	186.470	-0.170	-0.090	1.380
2020/01/31 22:51:53.4	186.470	-0.210	-0.060	1.390
2020/01/31 22:51:53.5	186.480	-0.240	-0.040	1.390
2020/01/31 22:51:53.6	186.490	-0.270	-0.030	1.400
2020/01/31 22:51:53.7				
2020/01/31 22:51:53.8	186.500	-0.300	-0.010	1.410
2020/01/31 22:51:53.9	186.520	-0.360	0.000	1.440
2020/01/31 22:51:54.0	186.530	-0.390	0.010	1.460
2020/01/31 22:51:54.1	186.530	-0.410	0.010	1.480
2020/01/31 22:51:54.2	186.540	-0.440	0.010	1.500
2020/01/31 22:51:54.3	186.550	-0.460	0.010	1.520
2020/01/31 22:51:54.4	186.560	-0.490	0.010	1.540
2020/01/31 22:51:54.5	186.560	-0.510	0.010	1.560
2020/01/31 22:51:54.6	186.570	-0.530	0.010	1.580
2020/01/31 22:51:54.7	186.580	-0.550	0.000	1.600
2020/01/31 22:51:54.8	186.590	-0.560	0.000	1.620
2020/01/31 22:51:54.9	186.590	-0.580	-0.000	1.650
2020/01/31 22:51:55.0	186.600	-0.590	-0.010	1.670
2020/01/31 22:51:55.1	186.610	-0.600	-0.010	1.690
2020/01/31 22:51:55.2	186.620	-0.610	-0.010	1.720
2020/01/31 22:51:55.3	186.630	-0.610	-0.010	1.740
2020/01/31 22:51:55.4	186.640	-0.620	-0.010	1.760
2020/01/31 22:51:55.5	186.650	-0.620	-0.010	1.780
2020/01/31 22:51:55.6	186.660	-0.620	-0.010	1.800
2020/01/31 22:51:55.7	186.670	-0.620	-0.000	1.820
2020/01/31 22:51:55.8				
2020/01/31 22:51:55.9	186.670	-0.620	-0.000	1.840
2020/01/31 22:51:56.0	186.700	-0.600	0.000	1.880
2020/01/31 22:51:56.1	186.710	-0.600	0.010	1.900
2020/01/31 22:51:56.2	186.710	-0.580	0.010	1.920
2020/01/31 22:51:56.3	186.720	-0.570	0.010	1.930
2020/01/31 22:51:56.4	186.720	-0.550	0.020	1.940
2020/01/31 22:51:56.5	186.720	-0.540	0.020	1.960
2020/01/31 22:51:56.6	186.720	-0.520	0.020	1.970
2020/01/31 22:51:56.7	186.720	-0.490	0.020	1.980
2020/01/31 22:51:56.8	186.720	-0.470	0.010	1.980
2020/01/31 22:51:56.9	186.720	-0.440	0.010	1.990
2020/01/31 22:51:57.0	186.700	-0.420	-0.000	1.990
2020/01/31 22:51:57.1	186.690	-0.390	-0.010	1.990
2020/01/31 22:51:57.2	186.690	-0.360	-0.020	1.990
2020/01/31 22:51:57.3	186.680	-0.320	-0.040	1.990
2020/01/31 22:51:57.4	186.670	-0.290	-0.060	1.990
2020/01/31 22:51:57.5	186.650	-0.250	-0.070	1.990
2020/01/31 22:51:57.6	186.640	-0.220	-0.100	1.980
2020/01/31 22:51:57.7	186.630	-0.180	-0.120	1.970
2020/01/31 22:51:57.8	186.610	-0.140	-0.140	1.970
2020/01/31 22:51:57.9				
2020/01/31 22:51:58.0	186.600	-0.110	-0.170	1.960
2020/01/31 22:51:58.1	186.590	-0.030	-0.220	1.930
2020/01/31 22:51:58.2	186.580	0.000	-0.240	1.920
2020/01/31 22:51:58.3	186.560	0.030	-0.260	1.900
2020/01/31 22:51:58.4	186.550	0.070	-0.290	1.880
2020/01/31 22:51:58.5	186.540	0.100	-0.310	1.860
2020/01/31 22:51:58.6	186.530	0.120	-0.330	1.840
2020/01/31 22:51:58.7	186.520	0.150	-0.340	1.820
2020/01/31 22:51:58.8	186.510	0.170	-0.350	1.790
2020/01/31 22:51:58.9	186.510	0.190	-0.360	1.770
2020/01/31 22:51:59.0	186.510	0.210	-0.370	1.740
2020/01/31 22:51:59.1	186.510	0.220	-0.370	1.710
2020/01/31 22:51:59.2	186.510	0.240	-0.370	1.680
2020/01/31 22:51:59.3	186.520	0.240	-0.370	1.650
2020/01/31 22:51:59.4	186.530	0.250	-0.360	1.620
2020/01/31 22:51:59.5	186.540	0.250	-0.340	1.590
2020/01/31 22:51:59.6	186.550	0.250	-0.330	1.560
2020/01/31 22:51:59.7	186.570	0.250	-0.300	1.520
2020/01/31 22:51:59.8	186.590	0.250	-0.280	1.490
2020/01/31 22:51:59.9	186.610	0.240	-0.250	1.460
2020/01/31 22:52:00.0				
2020/01/31 22:52:00.1	186.610	0.230	-0.220	1.420
2020/01/31 22:52:00.2	186.660	0.200	-0.150	1.350
2020/01/31 22:52:00.3	186.680	0.190	-0.110	1.310
2020/01/31 22:52:00.4	186.710	0.180	-0.070	1.280
2020/01/31 22:52:00.5	186.740	0.160	-0.040	1.240
2020/01/31 22:52:00.6	186.770	0.140	0.000	1.210
2020/01/31 22:52:00.7	186.790	0.130	0.040	1.170
2020/01/31 22:52:00.8	186.820	0.110	0.070	1.140
2020/01/31 22:52:00.9	186.850	0.090	0.110	1.110
2020/01/31 22:52:01.0	186.870	0.080	0.140	1.080
2020/01/31 22:52:01.1	186.890	0.060	0.160	1.060
2020/01/31 22:52:01.2	186.910	0.050	0.180	1.030
2020/01/31 22:52:01.3	186.940	0.040	0.200	1.010
2020/01/31 22:52:01.4	186.950	0.030	0.210	0.990
2020/01/31 22:52:01.5	186.970	0.020	0.220	0.970
2020/01/31 22:52:01.6	186.990	0.010	0.210	0.950
2020/01/31 22:52:01.7	187.000	0.000	0.210	0.940
2020/01/31 22:52:01.8	187.010	-0.000	0.190	0.930
2020/01/31 22:52:01.9	187.010	-0.000	0.170	0.930
2020/01/31 22:52:02.0	187.010	-0.000	0.140	0.920
2020/01/31 22:52:02.1				
2020/01/31 22:52:02.2	187.010	-0.000	0.110	0.920
2020/01/31 22:52:02.3	187.010	0.010	0.030	0.930
2020/01/31 22:52:02.4	187.000	0.010	-0.020	0.950
2020/01/31 22:52:02.5	187.000	0.020	-0.070	0.960
2020/01/31 22:52:02.6	186.990	0.030	-0.120	0.980
2020/01/31 22:52:02.7	186.980	0.040	-0.180	1.000
2020/01/31 22:52:02.8	186.970	0.040	-0.240	1.030
2020/01/31 22:52:02.9	186.960	0.050	-0.300	1.060
2020/01/31 22:52:03.0	186.950	0.060	-0.360	1.090
2020/01/31 22:52:03.1	186.940	0.060	-0.410	1.130
2020/01/31 22:52:03.2	186.930	0.070	-0.470	1.170
2020/01/31 22:52:03.3	186.910	0.070	-0.520	1.220
2020/01/31 22:52:03.4	186.900	0.070	-0.570	1.270
2020/01/31 22:52:03.5	186.890	0.070	-0.610	1.320
2020/01/31 22:52:03.6	186.880	0.070	-0.650	1.370
2020/01/31 22:52:03.7	186.860	0.070	-0.690	1.430
2020/01/31 22:52:03.8	186.850	0.060	-0.720	1.490
2020/01/31 22:52:03.9	186.840	0.050	-0.740	1.550
2020/01/31 22:52:04.0	186.840	0.040	-0.760	1.610
2020/01/31 22:52:04.1	186.830	0.030	-0.780	1.670
2020/01/31 22:52:04.2				
2020/01/31 22:52:04.3	186.820	0.020	-0.780	1.730
2020/01/31 22:52:04.4	186.800	-0.010	-0.780	1.840
2020/01/31 22:52:04.5	186.800	-0.020	-0.770	1.890
2020/01/31 22:52:04.6	186.790	-0.040	-0.750	1.940
2020/01/31 22:52:04.7	186.790	-0.060	-0.720	1.990
2020/01/31 22:52:04.8	186.780	-0.070	-0.690	2.030
2020/01/31 22:52:04.9	186.780	-0.090	-0.660	2.060
2020/01/31 22:52:05.0	186.780	-0.110	-0.620	2.100
2020/01/31 22:52:05.1	186.780	-0.120	-0.580	2.130
2020/01/31 22:52:05.2	186.770	-0.140	-0.530	2.150
2020/01/31 22:52:05.3	186.770	-0.150	-0.480	2.160
2020/01/31 22:52:05.4	186.770	-0.170	-0.430	2.170
2020/01/31 22:52:05.5	186.770	-0.180	-0.380	2.180
2020/01/31 22:52:05.6	186.770	-0.190	-0.330	2.180
2020/01/31 22:52:05.7	186.760	-0.190	-0.280	2.170
2020/01/31 22:52:05.8	186.760	-0.200	-0.230	2.170
2020/01/31 22:52:05.9	186.760	-0.200	-0.180	2.150
2020/01/31 22:52:06.0	186.760	-0.200	-0.140	2.140
2020/01/31 22:52:06.1	186.760	-0.190	-0.100	2.120
2020/01/31 22:52:06.2	186.750	-0.190	-0.060	2.100
2020/01/31 22:52:06.3				
2020/01/31 22:52:06.4	186.740	-0.180	-0.030	2.070
2020/01/31 22:52:06.5	186.720	-0.150	0.010	2.020
2020/01/31 22:52:06.6	186.710	-0.130	0.030	1.990
2020/01/31 22:52:06.7	186.700	-0.110	0.040	1.960
2020/01/31 22:52:06.8	186.690	-0.080	0.040	1.940
2020/01/31 22:52:06.9	186.680	-0.060	0.040	1.910
2020/01/31 22:52:07.0	186.650	-0.030	0.030	1.880
2020/01/31 22:52:07.1	186.640	0.000	0.010	1.850
2020/01/31 22:52:07.2	186.630	0.030	-0.010	1.830
2020/01/31 22:52:07.3	186.610	0.070	-0.030	1.800
2020/01/31 22:52:07.4	186.600	0.100	-0.060	1.780
2020/01/31 22:52:07.5	186.580	0.140	-0.090	1.760
2020/01/31 22:52:07.6				
2020/01/31 22:52:07.7	186.570	0.180	-0.130	1.740
2020/01/31 22:52:07.8	186.540	0.250	-0.210	1.710
2020/01/31 22:52:07.9	186.520	0.290	-0.260	1.690
2020/01/31 22:52:08.0	186.510	0.320	-0.300	1.680
2020/01/31 22:52:08.1	186.490	0.360	-0.350	1.670
2020/01/31 22:52:08.2	186.480	0.390	-0.400	1.660
2020/01/31 22:52:08.3	186.460	0.420	-0.450	1.660
2020/01/31 22:52:08.4				
2020/01/31 22:52:08.5	186.450	0.450	-0.490	1.650
2020/01/31 22:52:08.6	186.420	0.510	-0.580	1.650
2020/01/31 22:52:08.7	186.410	0.530	-0.620	1.650
2020/01/31 22:52:08.8	186.400	0.550	-0.650	1.650
2020/01/31 22:52:08.9	186.390	0.560	-0.680	1.640
2020/01/31 22:52:09.0	186.390	0.570	-0.710	1.650
2020/01/31 22:52:09.1	186.380	0.580	-0.730	1.650
2020/01/31 22:52:09.2	186.380	0.580	-0.740	1.650
2020/01/31 22:52:09.3	186.380	0.580	-0.740	1.640
2020/01/31 22:52:09.4	186.380	0.570	-0.740	1.640
2020/01/31 22:52:09.5	186.380	0.560	-0.730	1.640
2020/01/31 22:52:09.6				
2020/01/31 22:52:09.7	186.390	0.540	-0.720	1.640
2020/01/31 22:52:09.8	186.410	0.490	-0.670	1.630
2020/01/31 22:52:09.9	186.420	0.450	-0.630	1.630
2020/01/31 22:52:10.0	186.450	0.420	-0.590	1.630
2020/01/31 22:52:10.1	186.470	0.370	-0.540	1.630
2020/01/31 22:52:10.2	186.500	0.330	-0.490	1.630
2020/01/31 22:52:10.3	186.530	0.270	-0.430	1.630
2020/01/31 22:52:10.4	186.560	0.220	-0.360	1.640
2020/01/31 22:52:10.5				
2020/01/31 22:52:10.6	186.600	0.160	-0.300	1.650
2020/01/31 22:52:10.7	186.680	0.030	-0.150	1.670
2020/01/31 22:52:10.8	186.720	-0.040	-0.080	1.690
2020/01/31 22:52:10.9	186.770	-0.110	-0.010	1.710
2020/01/31 22:52:11.0	186.820	-0.180	0.070	1.730
2020/01/31 22:52:11.1	186.870	-0.250	0.140	1.760
2020/01/31 22:52:11.2	186.920	-0.320	0.210	1.790
2020/01/31 22:52:11.3	186.970	-0.390	0.290	1.820
2020/01/31 22:52:11.4	187.020	-0.460	0.350	1.850
2020/01/31 22:52:11.5	187.070	-0.520	0.420	1.880
2020/01/31 22:52:11.6	187.120	-0.590	0.480	1.920
2020/01/31 22:52:11.7	187.160	-0.650	0.530	1.950
2020/01/31 22:52:11.8	187.210	-0.710	0.580	1.990
2020/01/31 22:52:11.9	187.260	-0.760	0.620	2.020
2020/01/31 22:52:12.0	187.290	-0.810	0.650	2.060
2020/01/31 22:52:12.1	187.330	-0.850	0.690	2.090
2020/01/31 22:52:12.2	187.370	-0.890	0.710	2.130
2020/01/31 22:52:12.3	187.410	-0.920	0.720	2.160
2020/01/31 22:52:12.4	187.440	-0.950	0.730	2.180
2020/01/31 22:52:12.5	187.470	-0.970	0.730	2.210
2020/01/31 22:52:12.6				
2020/01/31 22:52:12.7	187.500	-0.980	0.720	2.230
2020/01/31 22:52:12.8	187.540	-0.970	0.680	2.270
2020/01/31 22:52:12.9	187.560	-0.960	0.650	2.280
2020/01/31 22:52:13.0	187.560	-0.940	0.620	2.290
2020/01/31 22:52:13.1	187.570	-0.910	0.570	2.300
2020/01/31 22:52:13.2	187.580	-0.870	0.520	2.300
2020/01/31 22:52:13.3	187.580	-0.830	0.460	2.300
2020/01/31 22:52:13.4	187.580	-0.770	0.390	2.300
2020/01/31 22:52:13.5	187.580	-0.720	0.320	2.300
2020/01/31 22:52:13.6	187.570	-0.650	0.240	2.290
2020/01/31 22:52:13.7	187.560	-0.580	0.160	2.280
2020/01/31 22:52:13.8				
2020/01/31 22:52:13.9	187.540	-0.500	0.070	2.260
2020/01/31 22:52:14.0	187.530	-0.410	-0.020	2.250
2020/01/31 22:52:14.1	187.470	-0.230	-0.210	2.210
2020/01/31 22:52:14.2	187.440	-0.140	-0.310	2.190
2020/01/31 22:52:14.3				
2020/01/31 22:52:14.4	187.420	-0.040	-0.400	2.170
2020/01/31 22:52:14.5	187.350	0.160	-0.590	2.120
2020/01/31 22:52:14.6				
2020/01/31 22:52:14.7	187.320	0.260	-0.680	2.100
2020/01/31 22:52:14.8	187.280	0.350	-0.770	2.070
2020/01/31 22:52:14.9	187.240	0.450	-0.860	2.040
2020/01/31 22:52:15.0	187.200	0.540	-0.940	2.010
2020/01/31 22:52:15.1	187.130	0.720	-1.080	1.950
2020/01/31 22:52:15.2	187.090	0.800	-1.140	1.920
2020/01/31 22:52:15.3	187.050	0.870	-1.200	1.880
2020/01/31 22:52:15.4	187.020	0.940	-1.240	1.850
2020/01/31 22:52:15.5	186.980	1.000	-1.280	1.820
2020/01/31 22:52:15.6				
2020/01/31 22:52:15.7	186.950	1.050	-1.310	1.780
2020/01/31 22:52:15.8				
2020/01/31 22:52:15.9	186.900	1.120	-1.330	1.710
2020/01/31 22:52:16.0				
2020/01/31 22:52:16.1	186.860	1.160	-1.320	1.630
2020/01/31 22:52:16.2	186.850	1.160	-1.300	1.600
2020/01/31 22:52:16.3	186.830	1.140	-1.240	1.530
2020/01/31 22:52:16.4	186.830	1.110	-1.190	1.500
2020/01/31 22:52:16.5	186.830	1.070	-1.140	1.470
2020/01/31 22:52:16.6	186.830	1.030	-1.080	1.440
2020/01/31 22:52:16.7	186.840	0.970	-1.010	1.420
2020/01/31 22:52:16.8				
2020/01/31 22:52:16.9	186.850	0.910	-0.940	1.390
2020/01/31 22:52:17.0	186.860	0.760	-0.790	1.360
2020/01/31 22:52:17.1	186.880	0.680	-0.700	1.340
2020/01/31 22:52:17.2	186.900	0.590	-0.620	1.320
2020/01/31 22:52:17.3	186.920	0.500	-0.530	1.310
2020/01/31 22:52:17.4				
2020/01/31 22:52:17.5	186.940	0.400	-0.440	1.290
2020/01/31 22:52:17.6				
2020/01/31 22:52:17.7	186.990	0.200	-0.270	1.270
2020/01/31 22:52:17.8				
2020/01/31 22:52:17.9	187.040	-0.010	-0.100	1.260
2020/01/31 22:52:18.0	187.070	-0.110	-0.030	1.260
2020/01/31 22:52:18.1	187.130	-0.310	0.110	1.260
2020/01/31 22:52:18.2	187.160	-0.410	0.180	1.260
2020/01/31 22:52:18.3	187.190	-0.500	0.230	1.260
2020/01/31 22:52:18.4				
2020/01/31 22:52:18.5	187.220	-0.580	0.280	1.260
2020/01/31 22:52:18.6	187.280	-0.740	0.360	1.270
2020/01/31 22:52:18.7	187.310	-0.800	0.390	1.270
2020/01/31 22:52:18.8	187.340	-0.860	0.420	1.280
2020/01/31 22:52:18.9				
2020/01/31 22:52:19.0	187.370	-0.910	0.430	1.280
2020/01/31 22:52:19.1	187.390	-0.960	0.440	1.300
2020/01/31 22:52:19.2	187.450	-1.020	0.440	1.310
2020/01/31 22:52:19.3				
2020/01/31 22:52:19.4	187.470	-1.040	0.430	1.320
2020/01/31 22:52:19.5	187.520	-1.050	0.390	1.340
2020/01/31 22:52:19.6				
2020/01/31 22:52:19.7	187.540	-1.050	0.360	1.350
2020/01/31 22:52:19.8	187.560	-1.040	0.330	1.360
2020/01/31 22:52:19.9	187.580	-1.020	0.290	1.370
2020/01/31 22:52:20.0	187.600	-0.960	0.200	1.400
2020/01/31 22:52:20.1	187.610	-0.920	0.150	1.410
2020/01/31 22:52:20.2	187.620	-0.870	0.090	1.430
2020/01/31 22:52:20.3	187.630	-0.820	0.040	1.440
2020/01/31 22:52:20.4	187.640	-0.770	-0.020	1.460
2020/01/31 22:52:20.5	187.640	-0.710	-0.080	1.480
2020/01/31 22:52:20.6	187.650	-0.650	-0.140	1.500
2020/01/31 22:52:20.7	187.650	-0.590	-0.190	1.520
2020/01/31 22:52:20.8	187.650	-0.530	-0.250	1.530
2020/01/31 22:52:20.9				
2020/01/31 22:52:21.0	187.650	-0.460	-0.310	1.550
2020/01/31 22:52:21.1	187.650	-0.400	-0.360	1.580
2020/01/31 22:52:21.2	187.640	-0.270	-0.470	1.610
2020/01/31 22:52:21.3	187.640	-0.210	-0.520	1.630
2020/01/31 22:52:21.4	187.630	-0.150	-0.560	1.640
2020/01/31 22:52:21.5	187.630	-0.090	-0.600	1.660
2020/01/31 22:52:21.6	187.620	-0.040	-0.640	1.670
2020/01/31 22:52:21.7	187.610	0.010	-0.670	1.680
2020/01/31 22:52:21.8	187.600	0.060	-0.700	1.690
2020/01/31 22:52:21.9	187.590	0.100	-0.720	1.700
2020/01/31 22:52:22.0	187.580	0.140	-0.740	1.710
2020/01/31 22:52:22.1	187.570	0.180	-0.750	1.720
2020/01/31 22:52:22.2	187.560	0.210	-0.760	1.720
2020/01/31 22:52:22.3	187.550	0.240	-0.760	1.730
2020/01/31 22:52:22.4	187.540	0.260	-0.750	1.730
2020/01/31 22:52:22.5	187.530	0.280	-0.740	1.730
2020/01/31 22:52:22.6				
2020/01/31 22:52:22.7	187.520	0.290	-0.720	1.730
2020/01/31 22:52:22.8	187.510	0.300	-0.710	1.720
2020/01/31 22:52:22.9	187.500	0.310	-0.680	1.720
2020/01/31 22:52:23.0	187.490	0.310	-0.650	1.720
2020/01/31 22:52:23.1				
2020/01/31 22:52:23.2	187.490	0.310	-0.580	1.700
2020/01/31 22:52:23.3	187.480	0.290	-0.500	1.680
2020/01/31 22:52:23.4	187.470	0.280	-0.450	1.660
2020/01/31 22:52:23.5	187.470	0.260	-0.400	1.650
2020/01/31 22:52:23.6	187.470	0.240	-0.350	1.630
2020/01/31 22:52:23.7	187.470	0.220	-0.300	1.610
2020/01/31 22:52:23.8	187.470	0.200	-0.250	1.590
2020/01/31 22:52:23.9	187.480	0.180	-0.190	1.560
2020/01/31 22:52:24.0	187.480	0.160	-0.140	1.530
2020/01/31 22:52:24.1	187.490	0.140	-0.080	1.500
2020/01/31 22:52:24.2	187.490	0.110	-0.030	1.480
2020/01/31 22:52:24.3				
2020/01/31 22:52:24.4	187.500	0.090	0.030	1.450
2020/01/31 22:52:24.5	187.520	0.060	0.090	1.420
2020/01/31 22:52:24.6	187.530	0.040	0.140	1.390
2020/01/31 22:52:24.7	187.560	-0.000	0.250	1.330
2020/01/31 22:52:24.8				
2020/01/31 22:52:24.9	187.570	-0.030	0.300	1.300
2020/01/31 22:52:25.0	187.590	-0.040	0.340	1.270
2020/01/31 22:52:25.1	187.600	-0.060	0.380	1.250
2020/01/31 22:52:25.2	187.620	-0.080	0.420	1.230
2020/01/31 22:52:25.3	187.630	-0.100	0.460	1.210
2020/01/31 22:52:25.4	187.660	-0.120	0.520	1.180
2020/01/31 22:52:25.5	187.670	-0.130	0.540	1.160
2020/01/31 22:52:25.6				
2020/01/31 22:52:25.7	187.680	-0.140	0.550	1.160
2020/01/31 22:52:25.8	187.690	-0.140	0.560	1.150
2020/01/31 22:52:25.9	187.690	-0.140	0.570	1.150
2020/01/31 22:52:26.0	187.700	-0.140	0.560	1.150
2020/01/31 22:52:26.1	187.710	-0.130	0.540	1.160
2020/01/31 22:52:26.2	187.700	-0.120	0.520	1.160
2020/01/31 22:52:26.3				
2020/01/31 22:52:26.4	187.700	-0.110	0.500	1.170
2020/01/31 22:52:26.5	187.690	-0.100	0.470	1.190
2020/01/31 22:52:26.6	187.690	-0.090	0.430	1.200
2020/01/31 22:52:26.7	187.670	-0.070	0.390	1.220
2020/01/31 22:52:26.8				
2020/01/31 22:52:26.9	187.640	-0.030	0.290	1.250
2020/01/31 22:52:27.0	187.630	-0.000	0.230	1.270
2020/01/31 22:52:27.1	187.580	0.050	0.110	1.320
2020/01/31 22:52:27.2				
2020/01/31 22:52:27.3	187.550	0.070	0.040	1.350
2020/01/31 22:52:27.4	187.530	0.100	-0.020	1.380
2020/01/31 22:52:27.5	187.460	0.160	-0.160	1.430
2020/01/31 22:52:27.6	187.430	0.190	-0.230	1.460
2020/01/31 22:52:27.7				
2020/01/31 22:52:27.8	187.390	0.220	-0.300	1.500
2020/01/31 22:52:27.9				
2020/01/31 22:52:28.0	187.320	0.270	-0.440	1.560
2020/01/31 22:52:28.1	187.280	0.300	-0.500	1.600
2020/01/31 22:52:28.2	187.240	0.320	-0.560	1.630
2020/01/31 22:52:28.3	187.200	0.340	-0.610	1.660
2020/01/31 22:52:28.4	187.170	0.360	-0.660	1.700
2020/01/31 22:52:28.5	187.130	0.380	-0.700	1.730
2020/01/31 22:52:28.6	187.100	0.390	-0.740	1.760
2020/01/31 22:52:28.7	187.070	0.400	-0.770	1.790
2020/01/31 22:52:28.8	187.010	0.420	-0.800	1.850
2020/01/31 22:52:28.9	186.990	0.420	-0.810	1.880
2020/01/31 22:52:29.0	186.970	0.410	-0.810	1.910
2020/01/31 22:52:29.1	186.950	0.400	-0.800	1.930
2020/01/31 22:52:29.2				
2020/01/31 22:52:29.3	186.940	0.390	-0.780	1.960
2020/01/31 22:52:29.4	186.930	0.380	-0.760	1.980
2020/01/31 22:52:29.5	186.920	0.360	-0.740	2.000
2020/01/31 22:52:29.6	186.920	0.340	-0.710	2.020
2020/01/31 22:52:29.7	186.920	0.320	-0.670	2.040
2020/01/31 22:52:29.8				
2020/01/31 22:52:29.9	186.920	0.260	-0.590	2.070
2020/01/31 22:52:30.0	186.930	0.230	-0.550	2.080
2020/01/31 22:52:30.1	186.940	0.200	-0.500	2.080
2020/01/31 22:52:30.2	186.950	0.170	-0.460	2.090
2020/01/31 22:52:30.3	186.960	0.130	-0.410	2.090
2020/01/31 22:52:30.4	186.970	0.100	-0.370	2.080
2020/01/31 22:52:30.5	186.980	0.060	-0.330	2.080
2020/01/31 22:52:30.6	187.000	-0.000	-0.260	2.060
2020/01/31 22:52:30.7				
2020/01/31 22:52:30.8	187.000	-0.030	-0.230	2.050
2020/01/31 22:52:30.9	187.010	-0.060	-0.200	2.040
2020/01/31 22:52:31.0	187.010	-0.090	-0.180	2.030
2020/01/31 22:52:31.1	187.020	-0.110	-0.170	2.010
2020/01/31 22:52:31.2	187.020	-0.130	-0.170	2.000
2020/01/31 22:52:31.3				
2020/01/31 22:52:31.4	187.030	-0.160	-0.170	1.960
2020/01/31 22:52:31.5				
2020/01/31 22:52:31.6	187.030	-0.180	-0.190	1.920
2020/01/31 22:52:31.7	187.030	-0.180	-0.240	1.870
2020/01/31 22:52:31.8	187.030	-0.170	-0.270	1.850
2020/01/31 22:52:31.9				
2020/01/31 22:52:32.0	187.020	-0.160	-0.300	1.820
2020/01/31 22:52:32.1	187.030	-0.140	-0.380	1.780
2020/01/31 22:52:32.2	187.030	-0.120	-0.420	1.750
2020/01/31 22:52:32.3				
2020/01/31 22:52:32.4	187.030	-0.100	-0.460	1.720
2020/01/31 22:52:32.5	187.030	-0.080	-0.500	1.700
2020/01/31 22:52:32.6	187.030	-0.050	-0.540	1.670
2020/01/31 22:52:32.7	187.030	-0.030	-0.580	1.640
2020/01/31 22:52:32.8				
2020/01/31 22:52:32.9	187.040	0.030	-0.650	1.590
2020/01/31 22:52:33.0	187.050	0.050	-0.680	1.560
2020/01/31 22:52:33.1	187.070	0.110	-0.730	1.510
2020/01/31 22:52:33.2	187.080	0.130	-0.740	1.480
2020/01/31 22:52:33.3				
2020/01/31 22:52:33.4	187.090	0.150	-0.750	1.460
2020/01/31 22:52:33.5	187.100	0.170	-0.750	1.430
2020/01/31 22:52:33.6				
2020/01/31 22:52:33.7	187.130	0.200	-0.740	1.380
2020/01/31 22:52:33.8				
2020/01/31 22:52:33.9	187.170	0.220	-0.710	1.320
2020/01/31 22:52:34.0	187.210	0.220	-0.650	1.260
2020/01/31 22:52:34.1	187.240	0.220	-0.610	1.230
2020/01/31 22:52:34.2				
2020/01/31 22:52:34.3	187.270	0.210	-0.570	1.200
2020/01/31 22:52:34.4	187.300	0.200	-0.520	1.170
2020/01/31 22:52:34.5	187.330	0.180	-0.470	1.140
2020/01/31 22:52:34.6	187.360	0.160	-0.420	1.120
2020/01/31 22:52:34.7	187.390	0.140	-0.360	1.090
2020/01/31 22:52:34.8	187.430	0.110	-0.300	1.060
2020/01/31 22:52:34.9	187.460	0.080	-0.240	1.040
2020/01/31 22:52:35.0	187.500	0.050	-0.180	1.020
2020/01/31 22:52:35.1	187.520	0.010	-0.120	1.000
2020/01/31 22:52:35.2	187.560	-0.030	-0.060	0.990
2020/01/31 22:52:35.3	187.590	-0.070	-0.000	0.980
2020/01/31 22:52:35.4	187.610	-0.110	0.050	0.980
2020/01/31 22:52:35.5	187.640	-0.150	0.100	0.980
2020/01/31 22:52:35.6	187.660	-0.190	0.150	0.990
2020/01/31 22:52:35.7	187.680	-0.220	0.180	1.000
2020/01/31 22:52:35.8	187.700	-0.260	0.220	1.010
2020/01/31 22:52:35.9	187.710	-0.290	0.240	1.030
2020/01/31 22:52:36.0	187.720	-0.320	0.260	1.060
2020/01/31 22:52:36.1	187.730	-0.380	0.280	1.130
2020/01/31 22:52:36.2	187.730	-0.400	0.280	1.170
2020/01/31 22:52:36.3				
2020/01/31 22:52:36.4	187.720	-0.410	0.270	1.210
2020/01/31 22:52:36.5				
2020/01/31 22:52:36.6	187.690	-0.430	0.230	1.310
2020/01/31 22:52:36.7	187.670	-0.430	0.200	1.360
2020/01/31 22:52:36.8				
2020/01/31 22:52:36.9	187.620	-0.410	0.110	1.480
2020/01/31 22:52:37.0	187.590	-0.390	0.060	1.540
2020/01/31 22:52:37.1	187.570	-0.370	0.010	1.610
2020/01/31 22:52:37.2	187.500	-0.320	-0.110	1.730
2020/01/31 22:52:37.3	187.460	-0.290	-0.170	1.800
2020/01/31 22:52:37.4				
2020/01/31 22:52:37.5	187.420	-0.250	-0.230	1.860
2020/01/31 22:52:37.6	187.380	-0.210	-0.300	1.920
2020/01/31 22:52:37.7	187.330	-0.170	-0.360	1.970
2020/01/31 22:52:37.8	187.290	-0.130	-0.420	2.030
2020/01/31 22:52:37.9	187.260	-0.090	-0.470	2.080
2020/01/31 22:52:38.0	187.220	-0.050	-0.520	2.130
2020/01/31 22:52:38.1	187.170	-0.010	-0.570	2.170
2020/01/31 22:52:38.2	187.140	0.030	-0.620	2.210
2020/01/31 22:52:38.3	187.110	0.070	-0.650	2.250
2020/01/31 22:52:38.4	187.080	0.110	-0.680	2.280
2020/01/31 22:52:38.5	187.050	0.140	-0.710	2.310
2020/01/31 22:52:38.6	187.020	0.170	-0.720	2.330
2020/01/31 22:52:38.7	186.980	0.210	-0.740	2.370
2020/01/31 22:52:38.8				
2020/01/31 22:52:38.9	186.970	0.230	-0.730	2.380
2020/01/31 22:52:39.0	186.950	0.240	-0.720	2.390
2020/01/31 22:52:39.1	186.950	0.250	-0.700	2.400
2020/01/31 22:52:39.2	186.940	0.250	-0.670	2.410
2020/01/31 22:52:39.3	186.940	0.250	-0.640	2.410
2020/01/31 22:52:39.4				
2020/01/31 22:52:39.5	186.940	0.240	-0.560	2.410
2020/01/31 22:52:39.6	186.940	0.220	-0.520	2.400
2020/01/31 22:52:39.7	186.940	0.200	-0.460	2.400
2020/01/31 22:52:39.8	186.950	0.180	-0.410	2.390
2020/01/31 22:52:39.9	186.950	0.160	-0.350	2.380
2020/01/31 22:52:40.0	186.960	0.130	-0.290	2.370
2020/01/31 22:52:40.1	186.970	0.100	-0.230	2.360
2020/01/31 22:52:40.2	186.980	0.060	-0.170	2.340
2020/01/31 22:52:40.3	186.990	0.030	-0.110	2.320
2020/01/31 22:52:40.4	187.010	-0.010	-0.040	2.300
2020/01/31 22:52:40.5	187.020	-0.040	0.020	2.280
2020/01/31 22:52:40.6	187.040	-0.080	0.080	2.250
2020/01/31 22:52:40.7	187.060	-0.110	0.150	2.230
2020/01/31 22:52:40.8	187.080	-0.150	0.210	2.200
2020/01/31 22:52:40.9	187.100	-0.180	0.260	2.170
2020/01/31 22:52:41.0	187.120	-0.210	0.320	2.130
2020/01/31 22:52:41.1	187.140	-0.240	0.370	2.100
2020/01/31 22:52:41.2	187.160	-0.270	0.420	2.060
2020/01/31 22:52:41.3	187.180	-0.290	0.460	2.010
2020/01/31 22:52:41.4	187.210	-0.310	0.500	1.970
2020/01/31 22:52:41.5	187.230	-0.330	0.530	1.920
2020/01/31 22:52:41.6	187.250	-0.340	0.560	1.880
2020/01/31 22:52:41.7	187.280	-0.350	0.580	1.830
2020/01/31 22:52:41.8	187.310	-0.360	0.590	1.770
2020/01/31 22:52:41.9	187.330	-0.360	0.600	1.720
2020/01/31 22:52:42.0	187.360	-0.360	0.600	1.670
2020/01/31 22:52:42.1	187.400	-0.360	0.600	1.620
2020/01/31 22:52:42.2	187.430	-0.350	0.590	1.560
2020/01/31 22:52:42.3	187.460	-0.340	0.570	1.510
2020/01/31 22:52:42.4	187.480	-0.330	0.550	1.460
2020/01/31 22:52:42.5	187.510	-0.310	0.510	1.400
2020/01/31 22:52:42.6	187.540	-0.290	0.480	1.350
2020/01/31 22:52:42.7	187.560	-0.270	0.440	1.310
2020/01/31 22:52:42.8	187.580	-0.240	0.390	1.260
2020/01/31 22:52:42.9	187.630	-0.190	0.270	1.180
2020/01/31 22:52:43.0				
2020/01/31 22:52:43.1	187.640	-0.160	0.210	1.140
2020/01/31 22:52:43.2	187.660	-0.130	0.140	1.110
2020/01/31 22:52:43.3	187.670	-0.100	0.070	1.080
2020/01/31 22:52:43.4	187.680	-0.070	-0.010	1.050
2020/01/31 22:52:43.5	187.690	-0.030	-0.080	1.040
2020/01/31 22:52:43.6	187.700	-0.000	-0.160	1.020
2020/01/31 22:52:43.7	187.710	0.030	-0.240	1.010
2020/01/31 22:52:43.8	187.710	0.060	-0.320	1.000
2020/01/31 22:52:43.9	187.710	0.090	-0.410	1.000
2020/01/31 22:52:44.0	187.720	0.120	-0.490	1.000
2020/01/31 22:52:44.1	187.700	0.150	-0.570	1.010
2020/01/31 22:52:44.2	187.700	0.180	-0.640	1.020
2020/01/31 22:52:44.3	187.690	0.200	-0.720	1.030
2020/01/31 22:52:44.4	187.690	0.230	-0.790	1.040
2020/01/31 22:52:44.5	187.680	0.250	-0.860	1.050
2020/01/31 22:52:44.6				
2020/01/31 22:52:44.7	187.670	0.280	-0.980	1.080
2020/01/31 22:52:44.8	187.660	0.300	-1.030	1.090
2020/01/31 22:52:44.9	187.660	0.310	-1.080	1.110
2020/01/31 22:52:45.0	187.650	0.320	-1.120	1.120
2020/01/31 22:52:45.1	187.620	0.320	-1.150	1.140
2020/01/31 22:52:45.2	187.620	0.330	-1.180	1.150
2020/01/31 22:52:45.3	187.610	0.330	-1.200	1.160
2020/01/31 22:52:45.4	187.610	0.330	-1.210	1.180
2020/01/31 22:52:45.5	187.600	0.320	-1.210	1.190
2020/01/31 22:52:45.6	187.600	0.320	-1.210	1.200
2020/01/31 22:52:45.7	187.600	0.310	-1.200	1.210
2020/01/31 22:52:45.8	187.600	0.300	-1.180	1.220
2020/01/31 22:52:45.9	187.600	0.280	-1.150	1.230
2020/01/31 22:52:46.0	187.600	0.270	-1.120	1.240
2020/01/31 22:52:46.1	187.590	0.250	-1.080	1.250
2020/01/31 22:52:46.2	187.590	0.240	-1.040	1.260
2020/01/31 22:52:46.3	187.590	0.220	-0.990	1.270
2020/01/31 22:52:46.4	187.590	0.200	-0.940	1.280
2020/01/31 22:52:46.5	187.590	0.180	-0.880	1.300
2020/01/31 22:52:46.6	187.590	0.160	-0.820	1.310
2020/01/31 22:52:46.7	187.590	0.130	-0.760	1.330
2020/01/31 22:52:46.8	187.590	0.110	-0.700	1.350
2020/01/31 22:52:46.9	187.580	0.090	-0.630	1.370
2020/01/31 22:52:47.0	187.580	0.070	-0.570	1.390
2020/01/31 22:52:47.1	187.570	0.050	-0.500	1.410
2020/01/31 22:52:47.2	187.560	0.030	-0.440	1.440
2020/01/31 22:52:47.3	187.550	0.010	-0.380	1.460
2020/01/31 22:52:47.4	187.540	-0.010	-0.320	1.490
2020/01/31 22:52:47.5	187.520	-0.020	-0.270	1.520
2020/01/31 22:52:47.6	187.500	-0.040	-0.220	1.550
2020/01/31 22:52:47.7	187.480	-0.050	-0.170	1.580
2020/01/31 22:52:47.8	187.460	-0.060	-0.130	1.610
2020/01/31 22:52:47.9	187.430	-0.070	-0.090	1.640
2020/01/31 22:52:48.0	187.410	-0.080	-0.060	1.680
2020/01/31 22:52:48.1	187.400	-0.090	-0.030	1.710
2020/01/31 22:52:48.2	187.370	-0.090	-0.000	1.740
2020/01/31 22:52:48.3	187.340	-0.100	0.020	1.770
2020/01/31 22:52:48.4	187.320	-0.100	0.040	1.800
2020/01/31 22:52:48.5	187.290	-0.100	0.060	1.830
2020/01/31 22:52:48.6	187.260	-0.110	0.070	1.860
2020/01/31 22:52:48.7	187.240	-0.110	0.080	1.890
2020/01/31 22:52:48.8	187.210	-0.110	0.090	1.910
2020/01/31 22:52:48.9	187.190	-0.110	0.100	1.930
2020/01/31 22:52:49.0	187.170	-0.100	0.110	1.960
2020/01/31 22:52:49.1	187.160	-0.100	0.110	1.990
2020/01/31 22:52:49.2	187.140	-0.100	0.120	2.010
2020/01/31 22:52:49.3	187.120	-0.100	0.120	2.020
2020/01/31 22:52:49.4	187.110	-0.100	0.120	2.040
2020/01/31 22:52:49.5	187.100	-0.090	0.120	2.050
2020/01/31 22:52:49.6	187.090	-0.090	0.130	2.060
2020/01/31 22:52:49.7	187.080	-0.090	0.130	2.070
2020/01/31 22:52:49.8	187.080	-0.090	0.130	2.080
2020/01/31 22:52:49.9	187.080	-0.090	0.140	2.080
2020/01/31 22:52:50.0	187.080	-0.080	0.140	2.080
2020/01/31 22:52:50.1	187.090	-0.080	0.150	2.070
2020/01/31 22:52:50.2	187.090	-0.080	0.150	2.060
2020/01/31 22:52:50.3	187.100	-0.080	0.160	2.060
2020/01/31 22:52:50.4	187.110	-0.080	0.160	2.040
2020/01/31 22:52:50.5	187.130	-0.070	0.170	2.030
2020/01/31 22:52:50.6	187.140	-0.070	0.180	2.010
2020/01/31 22:52:50.7	187.160	-0.070	0.190	1.990
2020/01/31 22:52:50.8	187.180	-0.070	0.200	1.970
2020/01/31 22:52:50.9	187.200	-0.070	0.210	1.940
2020/01/31 22:52:51.0	187.230	-0.060	0.220	1.920
2020/01/31 22:52:51.1	187.270	-0.060	0.220	1.890
2020/01/31 22:52:51.2	187.300	-0.060	0.230	1.860
2020/01/31 22:52:51.3	187.330	-0.050	0.240	1.830
2020/01/31 22:52:51.4	187.360	-0.050	0.250	1.790
2020/01/31 22:52:51.5	187.390	-0.040	0.260	1.750
2020/01/31 22:52:51.6	187.420	-0.040	0.270	1.720
2020/01/31 22:52:51.7	187.460	-0.030	0.280	1.670
2020/01/31 22:52:51.8	187.490	-0.020	0.290	1.630
2020/01/31 22:52:51.9	187.520	-0.010	0.300	1.590
2020/01/31 22:52:52.0	187.560	-0.000	0.300	1.540
2020/01/31 22:52:52.1	187.610	0.010	0.300	1.500
2020/01/31 22:52:52.2	187.640	0.020	0.300	1.450
2020/01/31 22:52:52.3	187.680	0.030	0.300	1.400
2020/01/31 22:52:52.4	187.710	0.040	0.300	1.350
2020/01/31 22:52:52.5	187.750	0.050	0.300	1.310
2020/01/31 22:52:52.6	187.780	0.070	0.290	1.260
2020/01/31 22:52:52.7	187.810	0.080	0.280	1.220
2020/01/31 22:52:52.8	187.840	0.090	0.260	1.180
2020/01/31 22:52:52.9	187.860	0.110	0.250	1.140
2020/01/31 22:52:53.0	187.890	0.120	0.230	1.110
2020/01/31 22:52:53.1	187.910	0.140	0.210	1.070
2020/01/31 22:52:53.2	187.930	0.150	0.180	1.050
2020/01/31 22:52:53.3	187.940	0.170	0.150	1.030
2020/01/31 22:52:53.4	187.960	0.180	0.110	1.010
2020/01/31 22:52:53.5	187.960	0.200	0.070	1.000
2020/01/31 22:52:53.6	187.970	0.210	0.030	0.990
2020/01/31 22:52:53.7	187.970	0.230	-0.020	0.990
2020/01/31 22:52:53.8	187.970	0.240	-0.070	0.990
2020/01/31 22:52:53.9	187.970	0.260	-0.120	1.000
2020/01/31 22:52:54.0	187.960	0.270	-0.180	1.010
2020/01/31 22:52:54.1	187.930	0.280	-0.240	1.020
2020/01/31 22:52:54.2	187.920	0.290	-0.310	1.040
2020/01/31 22:52:54.3	187.900	0.300	-0.370	1.060
2020/01/31 22:52:54.4	187.880	0.310	-0.440	1.090
2020/01/31 22:52:54.5	187.860	0.320	-0.510	1.120
2020/01/31 22:52:54.6	187.830	0.330	-0.580	1.150
2020/01/31 22:52:54.7	187.800	0.340	-0.650	1.180
2020/01/31 22:52:54.8	187.770	0.340	-0.730	1.210
2020/01/31 22:52:54.9	187.730	0.350	-0.800	1.250
2020/01/31 22:52:55.0	187.700	0.350	-0.870	1.280
2020/01/31 22:52:55.1	187.650	0.350	-0.930	1.320
2020/01/31 22:52:55.2	187.610	0.350	-1.000	1.350
2020/01/31 22:52:55.3	187.580	0.350	-1.060	1.390
2020/01/31 22:52:55.4	187.540	0.340	-1.110	1.420
2020/01/31 22:52:55.5	187.510	0.330	-1.160	1.460
2020/01/31 22:52:55.6	187.470	0.320	-1.200	1.490
2020/01/31 22:52:55.7	187.440	0.310	-1.240	1.520
2020/01/31 22:52:55.8	187.410	0.290	-1.270	1.560
2020/01/31 22:52:55.9	187.380	0.270	-1.290	1.590
2020/01/31 22:52:56.0	187.360	0.250	-1.310	1.620
2020/01/31 22:52:56.1	187.340	0.230	-1.320	1.660
2020/01/31 22:52:56.2	187.320	0.200	-1.320	1.690
2020/01/31 22:52:56.3	187.300	0.180	-1.320	1.720
2020/01/31 22:52:56.4	187.290	0.150	-1.300	1.760
2020/01/31 22:52:56.5	187.280	0.120	-1.290	1.790
2020/01/31 22:52:56.6	187.270	0.080	-1.260	1.820
2020/01/31 22:52:56.7	187.260	0.050	-1.230	1.850
2020/01/31 22:52:56.8	187.260	0.020	-1.190	1.880
2020/01/31 22:52:56.9	187.260	-0.020	-1.140	1.900
2020/01/31 22:52:57.0	187.260	-0.050	-1.090	1.930
2020/01/31 22:52:57.1	187.270	-0.090	-1.040	1.950
2020/01/31 22:52:57.2	187.270	-0.120	-0.980	1.970
2020/01/31 22:52:57.3	187.280	-0.150	-0.920	1.990
2020/01/31 22:52:57.4	187.280	-0.180	-0.850	2.010
2020/01/31 22:52:57.5	187.290	-0.210	-0.780	2.020
2020/01/31 22:52:57.6	187.300	-0.230	-0.710	2.030
2020/01/31 22:52:57.7	187.310	-0.260	-0.640	2.030
2020/01/31 22:52:57.8	187.310	-0.280	-0.570	2.040
2020/01/31 22:52:57.9	187.320	-0.300	-0.500	2.040
2020/01/31 22:52:58.0	187.330	-0.310	-0.430	2.040
2020/01/31 22:52:58.1	187.330	-0.320	-0.360	2.040
2020/01/31 22:52:58.2	187.340	-0.330	-0.290	2.030
2020/01/31 22:52:58.3	187.340	-0.340	-0.230	2.020
2020/01/31 22:52:58.4	187.350	-0.340	-0.170	2.010
2020/01/31 22:52:58.5	187.360	-0.340	-0.110	1.990
2020/01/31 22:52:58.6	187.360	-0.340	-0.060	1.980
2020/01/31 22:52:58.7	187.370	-0.340	-0.010	1.960
2020/01/31 22:52:58.8	187.380	-0.330	0.030	1.930
2020/01/31 22:52:58.9	187.380	-0.320	0.070	1.910
2020/01/31 22:52:59.0	187.390	-0.310	0.100	1.880
2020/01/31 22:52:59.1	187.400	-0.300	0.120	1.860
2020/01/31 22:52:59.2	187.400	-0.280	0.140	1.830
2020/01/31 22:52:59.3	187.410	-0.270	0.160	1.800
2020/01/31 22:52:59.4	187.420	-0.250	0.170	1.780
2020/01/31 22:52:59.5	187.430	-0.230	0.170	1.750
2020/01/31 22:52:59.6	187.440	-0.210	0.170	1.720
2020/01/31 22:52:59.7	187.440	-0.190	0.170	1.700
2020/01/31 22:52:59.8	187.450	-0.170	0.160	1.680
2020/01/31 22:52:59.9	187.460	-0.150	0.150	1.660
2020/01/31 22:53:00.0	187.470	-0.140	0.130	1.640
2020/01/31 22:53:00.1	187.480	-0.120	0.110	1.630
2020/01/31 22:53:00.2	187.490	-0.100	0.090	1.620
2020/01/31 22:53:00.3	187.490	-0.080	0.060	1.600
2020/01/31 22:53:00.4	187.500	-0.070	0.030	1.600
2020/01/31 22:53:00.5	187.500	-0.050	-0.010	1.590
2020/01/31 22:53:00.6	187.500	-0.040	-0.040	1.580
2020/01/31 22:53:00.7	187.500	-0.030	-0.080	1.580
2020/01/31 22:53:00.8	187.500	-0.020	-0.110	1.580
2020/01/31 22:53:00.9	187.500	-0.010	-0.150	1.570
2020/01/31 22:53:01.0	187.500	-0.010	-0.190	1.570
2020/01/31 22:53:01.1	187.500	-0.010	-0.220	1.570
2020/01/31 22:53:01.2	187.500	-0.010	-0.250	1.570
2020/01/31 22:53:01.3	187.490	-0.010	-0.290	1.570
2020/01/31 22:53:01.4	187.490	-0.010	-0.320	1.580
2020/01/31 22:53:01.5	187.480	-0.020	-0.340	1.580
2020/01/31 22:53:01.6	187.480	-0.020	-0.370	1.580
2020/01/31 22:53:01.7	187.480	-0.030	-0.380	1.580
2020/01/31 22:53:01.8	187.470	-0.050	-0.400	1.580
2020/01/31 22:53:01.9	187.470	-0.060	-0.410	1.590
2020/01/31 22:53:02.0	187.470	-0.080	-0.410	1.590
2020/01/31 22:53:02.1	187.460	-0.100	-0.410	1.590
2020/01/31 22:53:02.2	187.460	-0.120	-0.410	1.600
2020/01/31 22:53:02.3	187.450	-0.140	-0.400	1.600
2020/01/31 22:53:02.4	187.450	-0.160	-0.390	1.610
2020/01/31 22:53:02.5	187.450	-0.180	-0.370	1.620
2020/01/31 22:53:02.6	187.450	-0.200	-0.350	1.630
2020/01/31 22:53:02.7	187.450	-0.230	-0.320	1.630
2020/01/31 22:53:02.8	187.450	-0.250	-0.290	1.640
2020/01/31 22:53:02.9	187.450	-0.270	-0.260	1.650
2020/01/31 22:53:03.0	187.450	-0.300	-0.220	1.660
2020/01/31 22:53:03.1	187.450	-0.320	-0.190	1.680
2020/01/31 22:53:03.2	187.460	-0.340	-0.150	1.690
2020/01/31 22:53:03.3	187.460	-0.360	-0.110	1.700
2020/01/31 22:53:03.4	187.470	-0.380	-0.060	1.720
2020/01/31 22:53:03.5	187.470	-0.390	-0.020	1.730
2020/01/31 22:53:03.6	187.480	-0.410	0.020	1.740
2020/01/31 22:53:03.7	187.480	-0.420	0.060	1.760
2020/01/31 22:53:03.8	187.490	-0.420	0.100	1.770
2020/01/31 22:53:03.9	187.500	-0.430	0.140	1.780
2020/01/31 22:53:04.0	187.510	-0.430	0.180	1.790
2020/01/31 22:53:04.1	187.520	-0.430	0.220	1.800
2020/01/31 22:53:04.2	187.520	-0.420	0.260	1.810
2020/01/31 22:53:04.3	187.530	-0.410	0.290	1.820
2020/01/31 22:53:04.4	187.540	-0.400	0.320	1.830
2020/01/31 22:53:04.5	187.540	-0.390	0.340	1.830
2020/01/31 22:53:04.6	187.550	-0.370	0.370	1.840
2020/01/31 22:53:04.7	187.550	-0.350	0.390	1.840
2020/01/31 22:53:04.8	187.560	-0.320	0.400	1.850
2020/01/31 22:53:04.9	187.560	-0.290	0.410	1.850
2020/01/31 22:53:05.0	187.560	-0.260	0.420	1.860
2020/01/31 22:53:05.1	187.560	-0.220	0.410	1.870
2020/01/31 22:53:05.2	187.560	-0.180	0.410	1.870
2020/01/31 22:53:05.3	187.550	-0.140	0.400	1.880
2020/01/31 22:53:05.4	187.550	-0.100	0.390	1.880
2020/01/31 22:53:05.5	187.540	-0.060	0.370	1.880
2020/01/31 22:53:05.6	187.540	-0.010	0.350	1.890
2020/01/31 22:53:05.7	187.530	0.030	0.320	1.890
2020/01/31 22:53:05.8	187.520	0.080	0.290	1.890
2020/01/31 22:53:05.9	187.510	0.130	0.260	1.890
2020/01/31 22:53:06.0	187.500	0.170	0.230	1.900
2020/01/31 22:53:06.1	187.510	0.220	0.190	1.890
2020/01/31 22:53:06.2	187.500	0.270	0.160	1.900
2020/01/31 22:53:06.3	187.490	0.310	0.120	1.900
2020/01/31 22:53:06.4	187.490	0.350	0.080	1.890
2020/01/31 22:53:06.5	187.480	0.390	0.040	1.890
2020/01/31 22:53:06.6	187.480	0.430	0.000	1.890
2020/01/31 22:53:06.7	187.470	0.460	-0.030	1.880
2020/01/31 22:53:06.8	187.470	0.490	-0.060	1.870
2020/01/31 22:53:06.9	187.480	0.520	-0.090	1.860
2020/01/31 22:53:07.0	187.480	0.540	-0.120	1.850
2020/01/31 22:53:07.1	187.510	0.560	-0.140	1.830
2020/01/31 22:53:07.2	187.520	0.570	-0.160	1.810
2020/01/31 22:53:07.3	187.530	0.580	-0.170	1.790
2020/01/31 22:53:07.4	187.550	0.590	-0.180	1.770
2020/01/31 22:53:07.5	187.560	0.590	-0.190	1.740
2020/01/31 22:53:07.6	187.580	0.590	-0.190	1.720
2020/01/31 22:53:07.7	187.600	0.580	-0.180	1.690
2020/01/31 22:53:07.8	187.620	0.570	-0.170	1.660
2020/01/31 22:53:07.9	187.650	0.550	-0.160	1.630
2020/01/31 22:53:08.0	187.670	0.530	-0.150	1.610
2020/01/31 22:53:08.1	187.690	0.510	-0.130	1.570
2020/01/31 22:53:08.2	187.720	0.490	-0.120	1.550
2020/01/31 22:53:08.3	187.740	0.460	-0.100	1.520
2020/01/31 22:53:08.4	187.760	0.430	-0.080	1.500
2020/01/31 22:53:08.5	187.790	0.400	-0.070	1.480
2020/01/31 22:53:08.6	187.810	0.360	-0.060	1.460
2020/01/31 22:53:08.7	187.830	0.330	-0.050	1.440
2020/01/31 22:53:08.8	187.850	0.290	-0.040	1.430
2020/01/31 22:53:08.9	187.870	0.260	-0.040	1.420
2020/01/31 22:53:09.0	187.880	0.220	-0.040	1.420
2020/01/31 22:53:09.1	187.900	0.190	-0.050	1.420
2020/01/31 22:53:09.2	187.910	0.160	-0.060	1.430
2020/01/31 22:53:09.3	187.920	0.130	-0.070	1.430
2020/01/31 22:53:09.4	187.920	0.100	-0.100	1.440
2020/01/31 22:53:09.5	187.920	0.080	-0.120	1.460
2020/01/31 22:53:09.6	187.920	0.050	-0.160	1.480
2020/01/31 22:53:09.7	187.910	0.030	-0.200	1.500
2020/01/31 22:53:09.8	187.900	0.020	-0.240	1.520
2020/01/31 22:53:09.9	187.890	0.010	-0.290	1.540
2020/01/31 22:53:10.0	187.870	-0.000	-0.350	1.570
2020/01/31 22:53:10.1	187.840	-0.010	-0.410	1.600
2020/01/31 22:53:10.2	187.820	-0.010	-0.480	1.620
2020/01/31 22:53:10.3	187.800	-0.000	-0.540	1.650
2020/01/31 22:53:10.4	187.780	0.000	-0.610	1.670
2020/01/31 22:53:10.5	187.760	0.020	-0.690	1.700
2020/01/31 22:53:10.6	187.730	0.030	-0.760	1.720
2020/01/31 22:53:10.7	187.710	0.050	-0.830	1.740
2020/01/31 22:53:10.8	187.700	0.070	-0.910	1.750
2020/01/31 22:53:10.9	187.680	0.090	-0.980	1.770
2020/01/31 22:53:11.0	187.660	0.110	-1.050	1.780
2020/01/31 22:53:11.1	187.640	0.140	-1.120	1.780
2020/01/31 22:53:11.2	187.630	0.170	-1.180	1.790
2020/01/31 22:53:11.3	187.620	0.190	-1.240	1.790
2020/01/31 22:53:11.4	187.610	0.220	-1.290	1.780
2020/01/31 22:53:11.5	187.600	0.250	-1.340	1.780
2020/01/31 22:53:11.6	187.600	0.270	-1.380	1.770
2020/01/31 22:53:11.7	187.590	0.300	-1.410	1.760
2020/01/31 22:53:11.8	187.590	0.320	-1.440	1.750
2020/01/31 22:53:11.9	187.590	0.340	-1.460	1.740
2020/01/31 22:53:12.0	187.590	0.360	-1.470	1.720
2020/01/31 22:53:12.1	187.600	0.380	-1.480	1.700
2020/01/31 22:53:12.2	187.600	0.390	-1.470	1.680
2020/01/31 22:53:12.3	187.600	0.400	-1.460	1.660
2020/01/31 22:53:12.4	187.610	0.400	-1.450	1.640
2020/01/31 22:53:12.5	187.610	0.410	-1.430	1.620
2020/01/31 22:53:12.6	187.620	0.400	-1.400	1.600
2020/01/31 22:53:12.7	187.620	0.400	-1.360	1.580
2020/01/31 22:53:12.8	187.630	0.390	-1.320	1.560
2020/01/31 22:53:12.9	187.640	0.370	-1.270	1.540
2020/01/31 22:53:13.0	187.640	0.350	-1.220	1.520
2020/01/31 22:53:13.1	187.630	0.330	-1.170	1.500
2020/01/31 22:53:13.2	187.640	0.310	-1.110	1.480
2020/01/31 22:53:13.3	187.650	0.280	-1.050	1.460
2020/01/31 22:53:13.4	187.660	0.240	-0.990	1.440
2020/01/31 22:53:13.5	187.670	0.210	-0.920	1.420
2020/01/31 22:53:13.6	187.680	0.170	-0.850	1.400
2020/01/31 22:53:13.7	187.690	0.130	-0.780	1.380
2020/01/31 22:53:13.8	187.700	0.080	-0.710	1.370
2020/01/31 22:53:13.9	187.710	0.040	-0.640	1.350
2020/01/31 22:53:14.0	187.720	-0.010	-0.580	1.330
2020/01/31 22:53:14.1	187.720	-0.060	-0.510	1.320
2020/01/31 22:53:14.2	187.730	-0.110	-0.440	1.300
2020/01/31 22:53:14.3	187.740	-0.160	-0.370	1.280
2020/01/31 22:53:14.4	187.760	-0.210	-0.310	1.270
2020/01/31 22:53:14.5	187.770	-0.260	-0.250	1.260
2020/01/31 22:53:14.6	187.780	-0.310	-0.190	1.240
2020/01/31 22:53:14.7	187.800	-0.350	-0.130	1.230
2020/01/31 22:53:14.8	187.810	-0.400	-0.080	1.220
2020/01/31 22:53:14.9	187.820	-0.450	-0.030	1.220
2020/01/31 22:53:15.0	187.830	-0.490	0.020	1.210
2020/01/31 22:53:15.1	187.850	-0.530	0.060	1.210
2020/01/31 22:53:15.2	187.860	-0.570	0.100	1.210
2020/01/31 22:53:15.3	187.870	-0.610	0.140	1.220
2020/01/31 22:53:15.4	187.880	-0.640	0.170	1.220
2020/01/31 22:53:15.5	187.890	-0.670	0.200	1.230
2020/01/31 22:53:15.6	187.900	-0.700	0.220	1.240
2020/01/31 22:53:15.7	187.910	-0.720	0.240	1.250
2020/01/31 22:53:15.8	187.920	-0.740	0.260	1.260
2020/01/31 22:53:15.9	187.920	-0.760	0.280	1.280
2020/01/31 22:53:16.0	187.930	-0.770	0.290	1.290
2020/01/31 22:53:16.1	187.940	-0.780	0.300	1.310
2020/01/31 22:53:16.2	187.940	-0.780	0.310	1.330
2020/01/31 22:53:16.3	187.950	-0.790	0.310	1.350
2020/01/31 22:53:16.4	187.950	-0.780	0.320	1.370
2020/01/31 22:53:16.5	187.950	-0.780	0.320	1.390
2020/01/31 22:53:16.6	187.960	-0.770	0.320	1.410
2020/01/31 22:53:16.7	187.960	-0.750	0.320	1.440
2020/01/31 22:53:16.8	187.960	-0.740	0.330	1.460
2020/01/31 22:53:16.9	187.960	-0.720	0.330	1.480
2020/01/31 22:53:17.0	187.960	-0.700	0.330	1.500
2020/01/31 22:53:17.1	187.970	-0.670	0.320	1.520
2020/01/31 22:53:17.2	187.970	-0.650	0.330	1.530
2020/01/31 22:53:17.3	187.970	-0.620	0.330	1.550
2020/01/31 22:53:17.4	187.970	-0.590	0.330	1.560
2020/01/31 22:53:17.5	187.970	-0.560	0.340	1.570
2020/01/31 22:53:17.6	187.970	-0.530	0.350	1.580
2020/01/31 22:53:17.7	187.970	-0.490	0.350	1.580
2020/01/31 22:53:17.8	187.970	-0.460	0.360	1.590
2020/01/31 22:53:17.9	187.970	-0.420	0.370	1.590
2020/01/31 22:53:18.0	187.970	-0.390	0.380	1.590
2020/01/31 22:53:18.1	187.980	-0.360	0.390	1.590
2020/01/31 22:53:18.2	187.980	-0.320	0.400	1.580
2020/01/31 22:53:18.3	187.980	-0.290	0.420	1.580
2020/01/31 22:53:18.4	187.980	-0.260	0.430	1.570
2020/01/31 22:53:18.5	187.990	-0.230	0.440	1.560
2020/01/31 22:53:18.6	187.990	-0.200	0.450	1.560
2020/01/31 22:53:18.7	187.990	-0.170	0.450	1.550
2020/01/31 22:53:18.8	188.000	-0.140	0.460	1.540
2020/01/31 22:53:18.9	188.000	-0.120	0.470	1.530
2020/01/31 22:53:19.0	188.010	-0.090	0.470	1.520
2020/01/31 22:53:19.1	188.030	-0.070	0.470	1.520
2020/01/31 22:53:19.2	188.030	-0.050	0.470	1.510
2020/01/31 22:53:19.3	188.040	-0.030	0.460	1.500
2020/01/31 22:53:19.4	188.040	-0.010	0.460	1.490
2020/01/31 22:53:19.5	188.050	0.010	0.440	1.480
2020/01/31 22:53:19.6	188.050	0.020	0.430	1.470
2020/01/31 22:53:19.7	188.060	0.040	0.410	1.470
2020/01/31 22:53:19.8	188.060	0.050	0.390	1.470
2020/01/31 22:53:19.9	188.060	0.070	0.370	1.460
2020/01/31 22:53:20.0	188.060	0.080	0.340	1.460
2020/01/31 22:53:20.1	188.060	0.100	0.310	1.470
2020/01/31 22:53:20.2	188.060	0.110	0.270	1.470
2020/01/31 22:53:20.3	188.060	0.120	0.230	1.480
2020/01/31 22:53:20.4	188.050	0.140	0.190	1.490
2020/01/31 22:53:20.5	188.040	0.150	0.150	1.500
2020/01/31 22:53:20.6	188.030	0.170	0.100	1.520
2020/01/31 22:53:20.7	188.010	0.180	0.050	1.530
2020/01/31 22:53:20.8	188.000	0.200	-0.000	1.550
2020/01/31 22:53:20.9	187.980	0.220	-0.060	1.570
2020/01/31 22:53:21.0	187.950	0.230	-0.110	1.590
2020/01/31 22:53:21.1	187.920	0.250	-0.160	1.610
2020/01/31 22:53:21.2	187.900	0.270	-0.220	1.640
2020/01/31 22:53:21.3	187.870	0.290	-0.270	1.660
2020/01/31 22:53:21.4	187.840	0.310	-0.320	1.690
2020/01/31 22:53:21.5	187.810	0.330	-0.370	1.710
2020/01/31 22:53:21.6	187.770	0.350	-0.420	1.730
2020/01/31 22:53:21.7	187.740	0.360	-0.470	1.760
2020/01/31 22:53:21.8	187.710	0.380	-0.510	1.780
2020/01/31 22:53:21.9	187.670	0.400	-0.550	1.800
2020/01/31 22:53:22.0	187.640	0.420	-0.590	1.820
2020/01/31 22:53:22.1	187.590	0.430	-0.630	1.840
2020/01/31 22:53:22.2	187.560	0.450	-0.660	1.860
2020/01/31 22:53:22.3	187.530	0.460	-0.680	1.870
2020/01/31 22:53:22.4	187.500	0.470	-0.700	1.890
2020/01/31 22:53:22.5	187.470	0.480	-0.720	1.900
2020/01/31 22:53:22.6	187.440	0.490	-0.730	1.900
2020/01/31 22:53:22.7	187.420	0.490	-0.730	1.910
2020/01/31 22:53:22.8	187.400	0.490	-0.730	1.920
2020/01/31 22:53:22.9	187.380	0.490	-0.730	1.920
2020/01/31 22:53:23.0	187.360	0.480	-0.720	1.920
2020/01/31 22:53:23.1	187.350	0.480	-0.710	1.910
2020/01/31 22:53:23.2	187.340	0.470	-0.690	1.910
2020/01/31 22:53:23.3	187.330	0.460	-0.670	1.900
2020/01/31 22:53:23.4	187.330	0.440	-0.640	1.890
2020/01/31 22:53:23.5	187.340	0.420	-0.620	1.880
2020/01/31 22:53:23.6	187.340	0.400	-0.590	1.860
2020/01/31 22:53:23.7	187.350	0.380	-0.560	1.840
2020/01/31 22:53:23.8	187.360	0.360	-0.520	1.820
2020/01/31 22:53:23.9	187.380	0.330	-0.490	1.800
2020/01/31 22:53:24.0	187.400	0.300	-0.460	1.780
2020/01/31 22:53:24.1	187.410	0.280	-0.420	1.750
2020/01/31 22:53:24.2	187.440	0.250	-0.390	1.730
2020/01/31 22:53:24.3	187.460	0.220	-0.360	1.700
2020/01/31 22:53:24.4	187.480	0.190	-0.330	1.680
2020/01/31 22:53:24.5	187.510	0.160	-0.310	1.650
2020/01/31 22:53:24.6	187.530	0.130	-0.280	1.620
2020/01/31 22:53:24.7	187.560	0.110	-0.270	1.590
2020/01/31 22:53:24.8	187.580	0.080	-0.250	1.570
2020/01/31 22:53:24.9	187.610	0.060	-0.240	1.540
2020/01/31 22:53:25.0	187.630	0.040	-0.240	1.510
2020/01/31 22:53:25.1	187.650	0.030	-0.240	1.490
2020/01/31 22:53:25.2	187.670	0.010	-0.240	1.460
2020/01/31 22:53:25.3	187.690	0.000	-0.260	1.430
2020/01/31 22:53:25.4	187.720	-0.010	-0.270	1.400
2020/01/31 22:53:25.5	187.740	-0.010	-0.290	1.370
2020/01/31 22:53:25.6	187.760	-0.010	-0.320	1.340
2020/01/31 22:53:25.7	187.780	-0.010	-0.350	1.300
2020/01/31 22:53:25.8	187.800	-0.000	-0.380	1.260
2020/01/31 22:53:25.9	187.820	0.000	-0.420	1.230
2020/01/31 22:53:26.0	187.840	0.010	-0.460	1.190
2020/01/31 22:53:26.1	187.860	0.030	-0.500	1.140
2020/01/31 22:53:26.2	187.880	0.040	-0.540	1.100
2020/01/31 22:53:26.3	187.910	0.060	-0.580	1.060
2020/01/31 22:53:26.4	187.930	0.080	-0.630	1.020
2020/01/31 22:53:26.5	187.950	0.100	-0.670	0.980
2020/01/31 22:53:26.6	187.970	0.120	-0.710	0.950
2020/01/31 22:53:26.7	188.000	0.140	-0.740	0.910
2020/01/31 22:53:26.8	188.020	0.160	-0.780	0.880
2020/01/31 22:53:26.9	188.050	0.170	-0.810	0.860
2020/01/31 22:53:27.0	188.070	0.190	-0.840	0.830
2020/01/31 22:53:27.1	188.080	0.210	-0.860	0.810
2020/01/31 22:53:27.2	188.100	0.220	-0.880	0.800
2020/01/31 22:53:27.3	188.130	0.230	-0.900	0.780
2020/01/31 22:53:27.4	188.150	0.240	-0.910	0.780
2020/01/31 22:53:27.5	188.180	0.250	-0.910	0.770
2020/01/31 22:53:27.6	188.200	0.250	-0.910	0.770
2020/01/31 22:53:27.7	188.220	0.250	-0.910	0.780
2020/01/31 22:53:27.8	188.250	0.250	-0.900	0.780
2020/01/31 22:53:27.9	188.270	0.250	-0.880	0.790
2020/01/31 22:53:28.0	188.300	0.240	-0.860	0.810
2020/01/31 22:53:28.1	188.320	0.230	-0.840	0.820
2020/01/31 22:53:28.2	188.340	0.220	-0.810	0.840
2020/01/31 22:53:28.3	188.360	0.200	-0.780	0.860
2020/01/31 22:53:28.4	188.380	0.180	-0.740	0.890
2020/01/31 22:53:28.5	188.400	0.160	-0.700	0.910
2020/01/31 22:53:28.6	188.410	0.130	-0.660	0.940
2020/01/31 22:53:28.7	188.420	0.100	-0.610	0.970
2020/01/31 22:53:28.8	188.430	0.080	-0.570	1.000
2020/01/31 22:53:28.9	188.440	0.050	-0.520	1.040
2020/01/31 22:53:29.0	188.450	0.020	-0.470	1.070
2020/01/31 22:53:29.1	188.430	-0.020	-0.420	1.100
2020/01/31 22:53:29.2	188.430	-0.050	-0.370	1.140
2020/01/31 22:53:29.3	188.430	-0.080	-0.320	1.180
2020/01/31 22:53:29.4	188.430	-0.110	-0.270	1.210
2020/01/31 22:53:29.5	188.430	-0.150	-0.220	1.250
2020/01/31 22:53:29.6	188.420	-0.180	-0.180	1.290
2020/01/31 22:53:29.7	188.410	-0.210	-0.130	1.330
2020/01/31 22:53:29.8	188.400	-0.240	-0.090	1.370
2020/01/31 22:53:29.9	188.390	-0.260	-0.050	1.410
2020/01/31 22:53:30.0	188.380	-0.290	-0.020	1.450
2020/01/31 22:53:30.1	188.370	-0.310	0.020	1.490
2020/01/31 22:53:30.2	188.360	-0.330	0.050	1.530
2020/01/31 22:53:30.3	188.340	-0.350	0.080	1.570
2020/01/31 22:53:30.4	188.330	-0.360	0.100	1.610
2020/01/31 22:53:30.5	188.310	-0.370	0.120	1.640
2020/01/31 22:53:30.6	188.300	-0.380	0.140	1.680
2020/01/31 22:53:30.7	188.280	-0.390	0.160	1.710
2020/01/31 22:53:30.8	188.260	-0.390	0.170	1.740
2020/01/31 22:53:30.9	188.250	-0.390	0.180	1.770
2020/01/31 22:53:31.0	188.230	-0.380	0.190	1.800
2020/01/31 22:53:31.1	188.230	-0.380	0.190	1.830
2020/01/31 22:53:31.2	188.210	-0.360	0.200	1.860
2020/01/31 22:53:31.3	188.190	-0.350	0.190	1.880
2020/01/31 22:53:31.4	188.170	-0.340	0.190	1.900
2020/01/31 22:53:31.5	188.150	-0.320	0.180	1.920
2020/01/31 22:53:31.6	188.130	-0.300	0.170	1.940
2020/01/31 22:53:31.7	188.110	-0.280	0.160	1.950
2020/01/31 22:53:31.8	188.100	-0.260	0.150	1.960
2020/01/31 22:53:31.9	188.080	-0.240	0.140	1.960
2020/01/31 22:53:32.0	188.060	-0.210	0.130	1.970
2020/01/31 22:53:32.1	188.060	-0.190	0.110	1.970
2020/01/31 22:53:32.2	188.050	-0.170	0.100	1.970
2020/01/31 22:53:32.3	188.040	-0.150	0.090	1.960
2020/01/31 22:53:32.4	188.030	-0.130	0.080	1.950
2020/01/31 22:53:32.5	188.020	-0.110	0.070	1.940
2020/01/31 22:53:32.6	188.020	-0.090	0.060	1.930
2020/01/31 22:53:32.7	188.010	-0.080	0.050	1.910
2020/01/31 22:53:32.8	188.010	-0.070	0.050	1.900
2020/01/31 22:53:32.9	188.010	-0.060	0.040	1.880
2020/01/31 22:53:33.0	188.010	-0.050	0.040	1.860
2020/01/31 22:53:33.1	188.000	-0.040	0.040	1.840
2020/01/31 22:53:33.2	188.010	-0.040	0.050	1.820
2020/01/31 22:53:33.3	188.020	-0.040	0.050	1.790
2020/01/31 22:53:33.4	188.030	-0.040	0.060	1.770
2020/01/31 22:53:33.5	188.040	-0.050	0.060	1.750
2020/01/31 22:53:33.6	188.050	-0.050	0.070	1.730
2020/01/31 22:53:33.7	188.060	-0.060	0.080	1.710
2020/01/31 22:53:33.8	188.070	-0.070	0.080	1.690
2020/01/31 22:53:33.9	188.090	-0.090	0.090	1.670
2020/01/31 22:53:34.0	188.100	-0.100	0.090	1.650
2020/01/31 22:53:34.1	188.120	-0.120	0.100	1.630
2020/01/31 22:53:34.2	188.120	-0.130	0.100	1.620
2020/01/31 22:53:34.3	188.130	-0.150	0.100	1.610
2020/01/31 22:53:34.4	188.140	-0.170	0.090	1.600
2020/01/31 22:53:34.5	188.140	-0.190	0.080	1.600
2020/01/31 22:53:34.6	188.140	-0.200	0.070	1.600
2020/01/31 22:53:34.7	188.140	-0.220	0.050	1.600
2020/01/31 22:53:34.8	188.130	-0.240	0.030	1.610
2020/01/31 22:53:34.9	188.120	-0.250	0.010	1.620
2020/01/31 22:53:35.0	188.110	-0.270	-0.030	1.630
2020/01/31 22:53:35.1	188.100	-0.280	-0.060	1.650
2020/01/31 22:53:35.2	188.090	-0.290	-0.100	1.660
2020/01/31 22:53:35.3	188.060	-0.290	-0.140	1.690
2020/01/31 22:53:35.4	188.040	-0.300	-0.190	1.710
2020/01/31 22:53:35.5	188.010	-0.300	-0.240	1.740
2020/01/31 22:53:35.6	187.980	-0.300	-0.300	1.770
2020/01/31 22:53:35.7	187.950	-0.300	-0.350	1.800
2020/01/31 22:53:35.8	187.920	-0.290	-0.410	1.830
2020/01/31 22:53:35.9	187.880	-0.280	-0.460	1.860
2020/01/31 22:53:36.0	187.850	-0.270	-0.520	1.890
2020/01/31 22:53:36.1	187.810	-0.260	-0.580	1.930
2020/01/31 22:53:36.2	187.780	-0.240	-0.630	1.960
2020/01/31 22:53:36.3	187.740	-0.230	-0.680	1.990
2020/01/31 22:53:36.4	187.710	-0.210	-0.730	2.020
2020/01/31 22:53:36.5	187.670	-0.190	-0.780	2.040
2020/01/31 22:53:36.6	187.640	-0.160	-0.820	2.060
2020/01/31 22:53:36.7	187.620	-0.140	-0.850	2.080
2020/01/31 22:53:36.8	187.590	-0.120	-0.880	2.100
2020/01/31 22:53:36.9	187.570	-0.090	-0.900	2.110
2020/01/31 22:53:37.0	187.550	-0.060	-0.920	2.110
2020/01/31 22:53:37.1	187.550	-0.040	-0.920	2.110
2020/01/31 22:53:37.2	187.540	-0.010	-0.920	2.110
2020/01/31 22:53:37.3	187.530	0.010	-0.920	2.100
2020/01/31 22:53:37.4	187.530	0.040	-0.900	2.080
2020/01/31 22:53:37.5	187.540	0.060	-0.880	2.060
2020/01/31 22:53:37.6	187.550	0.090	-0.850	2.030
2020/01/31 22:53:37.7	187.560	0.110	-0.810	2.000
2020/01/31 22:53:37.8	187.580	0.130	-0.770	1.960
2020/01/31 22:53:37.9	187.590	0.150	-0.720	1.920
2020/01/31 22:53:38.0	187.620	0.160	-0.670	1.870
2020/01/31 22:53:38.1	187.640	0.180	-0.620	1.820
2020/01/31 22:53:38.2	187.670	0.190	-0.560	1.770
2020/01/31 22:53:38.3	187.700	0.200	-0.500	1.710
2020/01/31 22:53:38.4	187.730	0.210	-0.440	1.660
2020/01/31 22:53:38.5	187.760	0.220	-0.380	1.600
2020/01/31 22:53:38.6	187.790	0.220	-0.320	1.540
2020/01/31 22:53:38.7	187.830	0.230	-0.260	1.480
2020/01/31 22:53:38.8	187.860	0.230	-0.200	1.420
2020/01/31 22:53:38.9	187.890	0.230	-0.140	1.360
2020/01/31 22:53:39.0	187.920	0.230	-0.090	1.310
2020/01/31 22:53:39.1	187.950	0.230	-0.040	1.250
2020/01/31 22:53:39.2	187.980	0.230	0.000	1.200
2020/01/31 22:53:39.3	188.000	0.220	0.040	1.150
2020/01/31 22:53:39.4	188.030	0.220	0.070	1.100
2020/01/31 22:53:39.5	188.050	0.220	0.100	1.060
2020/01/31 22:53:39.6	188.070	0.220	0.120	1.030
2020/01/31 22:53:39.7	188.090	0.220	0.130	0.990
2020/01/31 22:53:39.8	188.100	0.220	0.140	0.970
2020/01/31 22:53:39.9	188.110	0.220	0.140	0.950
2020/01/31 22:53:40.0	188.120	0.220	0.140	0.930
2020/01/31 22:53:40.1	188.130	0.220	0.130	0.920
2020/01/31 22:53:40.2	188.140	0.230	0.120	0.910
2020/01/31 22:53:40.3	188.140	0.230	0.100	0.910
2020/01/31 22:53:40.4	188.140	0.240	0.080	0.910
2020/01/31 22:53:40.5	188.140	0.240	0.050	0.920
2020/01/31 22:53:40.6	188.140	0.250	0.030	0.920
2020/01/31 22:53:40.7	188.140	0.260	-0.000	0.930
2020/01/31 22:53:40.8	188.130	0.270	-0.030	0.940
2020/01/31 22:53:40.9	188.130	0.280	-0.060	0.960
2020/01/31 22:53:41.0	188.120	0.290	-0.090	0.970
2020/01/31 22:53:41.1	188.120	0.300	-0.120	0.980
2020/01/31 22:53:41.2	188.120	0.310	-0.150	1.000
2020/01/31 22:53:41.3	188.120	0.320	-0.170	1.010
2020/01/31 22:53:41.4	188.110	0.320	-0.190	1.030
2020/01/31 22:53:41.5	188.110	0.330	-0.210	1.040
2020/01/31 22:53:41.6	188.120	0.340	-0.220	1.050
2020/01/31 22:53:41.7	188.120	0.340	-0.240	1.060
2020/01/31 22:53:41.8	188.130	0.340	-0.240	1.070
2020/01/31 22:53:41.9	188.140	0.340	-0.250	1.090
2020/01/31 22:53:42.0	188.150	0.340	-0.250	1.100
2020/01/31 22:53:42.1	188.160	0.330	-0.240	1.110
2020/01/31 22:53:42.2	188.180	0.320	-0.230	1.120
2020/01/31 22:53:42.3	188.190	0.310	-0.220	1.140
2020/01/31 22:53:42.4	188.210	0.300	-0.210	1.160
2020/01/31 22:53:42.5	188.230	0.280	-0.200	1.180
2020/01/31 22:53:42.6	188.240	0.270	-0.180	1.200
2020/01/31 22:53:42.7	188.260	0.250	-0.160	1.230
2020/01/31 22:53:42.8	188.270	0.230	-0.150	1.260
2020/01/31 22:53:42.9	188.290	0.210	-0.130	1.290
2020/01/31 22:53:43.0	188.300	0.180	-0.110	1.330
2020/01/31 22:53:43.1	188.300	0.160	-0.100	1.370
2020/01/31 22:53:43.2	188.310	0.130	-0.090	1.410
2020/01/31 22:53:43.3	188.320	0.110	-0.080	1.460
2020/01/31 22:53:43.4	188.330	0.080	-0.070	1.510
2020/01/31 22:53:43.5	188.330	0.060	-0.060	1.560
2020/01/31 22:53:43.6	188.330	0.040	-0.050	1.610
2020/01/31 22:53:43.7	188.330	0.010	-0.050	1.660
2020/01/31 22:53:43.8	188.330	-0.010	-0.050	1.710
2020/01/31 22:53:43.9	188.320	-0.030	-0.050	1.760
2020/01/31 22:53:44.0	188.310	-0.040	-0.050	1.810
2020/01/31 22:53:44.1	188.290	-0.060	-0.060	1.860
2020/01/31 22:53:44.2	188.280	-0.070	-0.060	1.900
2020/01/31 22:53:44.3	188.270	-0.080	-0.070	1.940
2020/01/31 22:53:44.4	188.260	-0.090	-0.070	1.980
2020/01/31 22:53:44.5	188.250	-0.100	-0.080	2.020
2020/01/31 22:53:44.6	188.230	-0.100	-0.090	2.050
2020/01/31 22:53:44.7	188.220	-0.110	-0.090	2.070
2020/01/31 22:53:44.8	188.220	-0.110	-0.100	2.090
2020/01/31 22:53:44.9	188.210	-0.100	-0.100	2.100
2020/01/31 22:53:45.0	188.200	-0.100	-0.100	2.110
2020/01/31 22:53:45.1	188.190	-0.090	-0.100	2.120
2020/01/31 22:53:45.2	188.190	-0.080	-0.100	2.120
2020/01/31 22:53:45.3	188.190	-0.080	-0.100	2.110
2020/01/31 22:53:45.4	188.190	-0.060	-0.100	2.110
2020/01/31 22:53:45.5	188.190	-0.050	-0.100	2.100
2020/01/31 22:53:45.6	188.190	-0.040	-0.090	2.080
2020/01/31 22:53:45.7	188.190	-0.030	-0.090	2.070
2020/01/31 22:53:45.8	188.190	-0.010	-0.080	2.050
2020/01/31 22:53:45.9	188.200	0.000	-0.080	2.030
2020/01/31 22:53:46.0	188.200	0.020	-0.080	2.010
2020/01/31 22:53:46.1	188.210	0.040	-0.080	1.990
2020/01/31 22:53:46.2	188.210	0.050	-0.080	1.970
2020/01/31 22:53:46.3	188.220	0.070	-0.090	1.950
2020/01/31 22:53:46.4	188.220	0.080	-0.090	1.920
2020/01/31 22:53:46.5	188.220	0.100	-0.100	1.900
2020/01/31 22:53:46.6	188.220	0.110	-0.120	1.880
2020/01/31 22:53:46.7	188.220	0.120	-0.130	1.850
2020/01/31 22:53:46.8	188.220	0.140	-0.150	1.830
2020/01/31 22:53:46.9	188.220	0.150	-0.180	1.810
2020/01/31 22:53:47.0	188.220	0.160	-0.200	1.780
2020/01/31 22:53:47.1	188.220	0.170	-0.230	1.750
2020/01/31 22:53:47.2	188.210	0.180	-0.270	1.730
2020/01/31 22:53:47.3	188.210	0.180	-0.300	1.700
2020/01/31 22:53:47.4	188.210	0.190	-0.340	1.680
2020/01/31 22:53:47.5	188.210	0.190	-0.370	1.650
2020/01/31 22:53:47.6	188.210	0.190	-0.410	1.620
2020/01/31 22:53:47.7	188.210	0.190	-0.450	1.600
2020/01/31 22:53:47.8	188.200	0.190	-0.490	1.570
2020/01/31 22:53:47.9	188.200	0.180	-0.530	1.540
2020/01/31 22:53:48.0	188.200	0.170	-0.570	1.520
2020/01/31 22:53:48.1	188.190	0.170	-0.610	1.490
2020/01/31 22:53:48.2	188.190	0.160	-0.650	1.470
2020/01/31 22:53:48.3	188.180	0.150	-0.690	1.450
2020/01/31 22:53:48.4	188.180	0.130	-0.730	1.430
2020/01/31 22:53:48.5	188.180	0.120	-0.770	1.410
2020/01/31 22:53:48.6	188.170	0.110	-0.800	1.400
2020/01/31 22:53:48.7	188.160	0.090	-0.830	1.390
2020/01/31 22:53:48.8	188.160	0.070	-0.870	1.380
2020/01/31 22:53:48.9	188.150	0.060	-0.890	1.380
2020/01/31 22:53:49.0	188.140	0.040	-0.920	1.380
2020/01/31 22:53:49.1	188.130	0.030	-0.940	1.390
2020/01/31 22:53:49.2	188.110	0.010	-0.960	1.390
2020/01/31 22:53:49.3	188.100	-0.000	-0.980	1.400
2020/01/31 22:53:49.4	188.080	-0.020	-0.990	1.410
2020/01/31 22:53:49.5	188.070	-0.030	-1.000	1.420
2020/01/31 22:53:49.6	188.050	-0.050	-1.010	1.440
2020/01/31 22:53:49.7	188.040	-0.060	-1.010	1.450
2020/01/31 22:53:49.8	188.020	-0.070	-1.010	1.470
2020/01/31 22:53:49.9	188.000	-0.080	-1.010	1.480
2020/01/31 22:53:50.0	187.990	-0.090	-1.010	1.500
2020/01/31 22:53:50.1	187.960	-0.090	-0.990	1.520
2020/01/31 22:53:50.2	187.950	-0.100	-0.980	1.530
2020/01/31 22:53:50.3	187.930	-0.110	-0.970	1.550
2020/01/31 22:53:50.4	187.920	-0.110	-0.950	1.560
2020/01/31 22:53:50.5	187.900	-0.120	-0.930	1.580
2020/01/31 22:53:50.6	187.890	-0.120	-0.910	1.590
2020/01/31 22:53:50.7	187.870	-0.120	-0.880	1.600
2020/01/31 22:53:50.8	187.860	-0.120	-0.850	1.620
2020/01/31 22:53:50.9	187.850	-0.120	-0.830	1.620
2020/01/31 22:53:51.0	187.840	-0.120	-0.800	1.630
2020/01/31 22:53:51.1	187.820	-0.130	-0.770	1.640
2020/01/31 22:53:51.2	187.810	-0.130	-0.740	1.640
2020/01/31 22:53:51.3	187.800	-0.130	-0.710	1.650
2020/01/31 22:53:51.4	187.790	-0.130	-0.680	1.650
2020/01/31 22:53:51.5	187.790	-0.130	-0.650	1.650
2020/01/31 22:53:51.6	187.780	-0.130	-0.620	1.640
2020/01/31 22:53:51.7	187.780	-0.130	-0.590	1.640
2020/01/31 22:53:51.8	187.780	-0.130	-0.560	1.630
2020/01/31 22:53:51.9	187.780	-0.140	-0.530	1.630
2020/01/31 22:53:52.0	187.790	-0.140	-0.500	1.620
2020/01/31 22:53:52.1	187.800	-0.140	-0.460	1.610
2020/01/31 22:53:52.2	187.810	-0.150	-0.430	1.590
2020/01/31 22:53:52.3	187.820	-0.160	-0.400	1.580
2020/01/31 22:53:52.4	187.840	-0.170	-0.370	1.570
2020/01/31 22:53:52.5	187.850	-0.180	-0.340	1.560
2020/01/31 22:53:52.6	187.870	-0.190	-0.310	1.540
2020/01/31 22:53:52.7	187.890	-0.200	-0.280	1.530
2020/01/31 22:53:52.8	187.920	-0.210	-0.250	1.520
2020/01/31 22:53:52.9	187.950	-0.230	-0.210	1.500
2020/01/31 22:53:53.0	187.980	-0.240	-0.180	1.490
2020/01/31 22:53:53.1	188.010	-0.260	-0.140	1.480
2020/01/31 22:53:53.2	188.040	-0.280	-0.100	1.470
2020/01/31 22:53:53.3	188.070	-0.300	-0.070	1.460
2020/01/31 22:53:53.4	188.110	-0.320	-0.030	1.450
2020/01/31 22:53:53.5	188.150	-0.340	0.010	1.450
2020/01/31 22:53:53.6	188.190	-0.360	0.060	1.440
2020/01/31 22:53:53.7	188.220	-0.390	0.100	1.440
2020/01/31 22:53:53.8	188.260	-0.410	0.140	1.440
2020/01/31 22:53:53.9	188.300	-0.430	0.190	1.440
2020/01/31 22:53:54.0	188.340	-0.450	0.230	1.440
2020/01/31 22:53:54.1	188.370	-0.470	0.280	1.440
2020/01/31 22:53:54.2	188.410	-0.490	0.320	1.450
2020/01/31 22:53:54.3	188.440	-0.510	0.360	1.450
2020/01/31 22:53:54.4	188.470	-0.530	0.400	1.460
2020/01/31 22:53:54.5	188.500	-0.540	0.440	1.470
2020/01/31 22:53:54.6	188.520	-0.550	0.470	1.480
2020/01/31 22:53:54.7	188.540	-0.560	0.510	1.500
2020/01/31 22:53:54.8	188.560	-0.570	0.530	1.510
2020/01/31 22:53:54.9	188.570	-0.570	0.560	1.530
2020/01/31 22:53:55.0	188.580	-0.570	0.580	1.550
2020/01/31 22:53:55.1	188.580	-0.570	0.590	1.570
2020/01/31 22:53:55.2	188.580	-0.570	0.600	1.590
2020/01/31 22:53:55.3	188.580	-0.560	0.610	1.610
2020/01/31 22:53:55.4	188.580	-0.540	0.610	1.630
2020/01/31 22:53:55.5	188.580	-0.530	0.600	1.650
2020/01/31 22:53:55.6	188.570	-0.510	0.590	1.670
2020/01/31 22:53:55.7	188.560	-0.490	0.580	1.690
2020/01/31 22:53:55.8	188.550	-0.470	0.560	1.710
2020/01/31 22:53:55.9	188.540	-0.440	0.540	1.730
2020/01/31 22:53:56.0	188.530	-0.410	0.510	1.750
2020/01/31 22:53:56.1	188.520	-0.380	0.480	1.770
2020/01/31 22:53:56.2	188.500	-0.350	0.440	1.790
2020/01/31 22:53:56.3	188.490	-0.310	0.410	1.810
2020/01/31 22:53:56.4	188.470	-0.270	0.370	1.830
2020/01/31 22:53:56.5	188.450	-0.230	0.330	1.850
2020/01/31 22:53:56.6	188.430	-0.190	0.290	1.870
2020/01/31 22:53:56.7	188.410	-0.150	0.240	1.890
2020/01/31 22:53:56.8	188.390	-0.110	0.200	1.900
2020/01/31 22:53:56.9	188.370	-0.070	0.150	1.920
2020/01/31 22:53:57.0	188.350	-0.020	0.110	1.940
2020/01/31 22:53:57.1	188.320	0.020	0.070	1.960
2020/01/31 22:53:57.2	188.300	0.070	0.020	1.970
2020/01/31 22:53:57.3	188.270	0.110	-0.020	1.990
2020/01/31 22:53:57.4	188.250	0.150	-0.050	2.000
2020/01/31 22:53:57.5	188.220	0.190	-0.090	2.010
2020/01/31 22:53:57.6	188.200	0.230	-0.120	2.020
2020/01/31 22:53:57.7	188.180	0.270	-0.150	2.020
2020/01/31 22:53:57.8	188.150	0.310	-0.180	2.030
2020/01/31 22:53:57.9	188.130	0.350	-0.200	2.030
2020/01/31 22:53:58.0	188.110	0.380	-0.220	2.020
2020/01/31 22:53:58.1	188.110	0.420	-0.240	2.020
2020/01/31 22:53:58.2	188.090	0.450	-0.250	2.000
2020/01/31 22:53:58.3	188.080	0.470	-0.260	1.990
2020/01/31 22:53:58.4	188.070	0.500	-0.260	1.960
2020/01/31 22:53:58.5	188.060	0.520	-0.260	1.940
2020/01/31 22:53:58.6	188.060	0.540	-0.250	1.910
2020/01/31 22:53:58.7	188.050	0.560	-0.240	1.870
2020/01/31 22:53:58.8	188.050	0.570	-0.230	1.830
2020/01/31 22:53:58.9	188.050	0.580	-0.210	1.790
2020/01/31 22:53:59.0	188.060	0.590	-0.190	1.750
2020/01/31 22:53:59.1	188.070	0.600	-0.170	1.700
2020/01/31 22:53:59.2	188.080	0.600	-0.150	1.650
2020/01/31 22:53:59.3	188.090	0.590	-0.120	1.600
2020/01/31 22:53:59.4	188.100	0.590	-0.100	1.550
2020/01/31 22:53:59.5	188.120	0.580	-0.070	1.500
2020/01/31 22:53:59.6	188.140	0.570	-0.050	1.450
2020/01/31 22:53:59.7	188.160	0.560	-0.020	1.400
2020/01/31 22:53:59.8	188.180	0.540	0.000	1.350
2020/01/31 22:53:59.9	188.210	0.520	0.030	1.310
2020/01/31 22:54:00.0	188.230	0.500	0.040	1.260
2020/01/31 22:54:00.1	188.270	0.480	0.060	1.220
2020/01/31 22:54:00.2	188.290	0.460	0.080	1.180
2020/01/31 22:54:00.3	188.320	0.440	0.090	1.150
2020/01/31 22:54:00.4	188.340	0.410	0.090	1.120
2020/01/31 22:54:00.5	188.370	0.390	0.100	1.090
2020/01/31 22:54:00.6	188.390	0.360	0.100	1.070
2020/01/31 22:54:00.7	188.420	0.340	0.090	1.050
2020/01/31 22:54:00.8	188.440	0.320	0.080	1.030
2020/01/31 22:54:00.9	188.470	0.290	0.060	1.020
2020/01/31 22:54:01.0	188.490	0.270	0.040	1.010
2020/01/31 22:54:01.1	188.510	0.250	0.020	1.010
2020/01/31 22:54:01.2	188.520	0.230	-0.010	1.010
2020/01/31 22:54:01.3	188.540	0.220	-0.040	1.010
2020/01/31 22:54:01.4	188.560	0.200	-0.080	1.020
2020/01/31 22:54:01.5	188.570	0.190	-0.130	1.030
2020/01/31 22:54:01.6	188.580	0.180	-0.180	1.040
2020/01/31 22:54:01.7	188.590	0.180	-0.230	1.050
2020/01/31 22:54:01.8	188.590	0.170	-0.280	1.060
2020/01/31 22:54:01.9	188.600	0.170	-0.340	1.080
2020/01/31 22:54:02.0	188.600	0.170	-0.400	1.090
2020/01/31 22:54:02.1	188.600	0.180	-0.470	1.110
2020/01/31 22:54:02.2	188.590	0.180	-0.530	1.130
2020/01/31 22:54:02.3	188.590	0.190	-0.600	1.140
2020/01/31 22:54:02.4	188.590	0.200	-0.660	1.160
2020/01/31 22:54:02.5	188.580	0.210	-0.720	1.180
2020/01/31 22:54:02.6	188.580	0.220	-0.780	1.190
2020/01/31 22:54:02.7	188.570	0.240	-0.840	1.200
2020/01/31 22:54:02.8	188.570	0.250	-0.890	1.210
2020/01/31 22:54:02.9	188.570	0.260	-0.940	1.230
2020/01/31 22:54:03.0	188.560	0.280	-0.990	1.240
2020/01/31 22:54:03.1	188.550	0.290	-1.030	1.250
2020/01/31 22:54:03.2	188.550	0.300	-1.070	1.250
2020/01/31 22:54:03.3	188.550	0.320	-1.100	1.260
2020/01/31 22:54:03.4	188.550	0.330	-1.120	1.270
2020/01/31 22:54:03.5	188.550	0.340	-1.140	1.270
2020/01/31 22:54:03.6	188.550	0.340	-1.150	1.280
2020/01/31 22:54:03.7	188.560	0.350	-1.150	1.280
2020/01/31 22:54:03.8	188.560	0.350	-1.150	1.280
2020/01/31 22:54:03.9	188.570	0.360	-1.140	1.290
2020/01/31 22:54:04.0	188.580	0.360	-1.130	1.290
2020/01/31 22:54:04.1	188.590	0.350	-1.110	1.290
2020/01/31 22:54:04.2	188.600	0.350	-1.080	1.290
2020/01/31 22:54:04.3	188.610	0.340	-1.050	1.280
2020/01/31 22:54:04.4	188.620	0.340	-1.020	1.280
2020/01/31 22:54:04.5	188.630	0.320	-0.980	1.280
2020/01/31 22:54:04.6	188.640	0.310	-0.940	1.270
2020/01/31 22:54:04.7	188.650	0.300	-0.900	1.270
2020/01/31 22:54:04.8	188.660	0.280	-0.860	1.260
2020/01/31 22:54:04.9	188.670	0.260	-0.820	1.260
2020/01/31 22:54:05.0	188.670	0.240	-0.770	1.250
2020/01/31 22:54:05.1	188.690	0.220	-0.730	1.240
2020/01/31 22:54:05.2	188.690	0.200	-0.690	1.240
2020/01/31 22:54:05.3	188.700	0.170	-0.650	1.230
2020/01/31 22:54:05.4	188.700	0.150	-0.620	1.220
2020/01/31 22:54:05.5	188.700	0.120	-0.580	1.220
2020/01/31 22:54:05.6	188.710	0.100	-0.550	1.210
2020/01/31 22:54:05.7	188.710	0.070	-0.520	1.210
2020/01/31 22:54:05.8	188.710	0.040	-0.500	1.210
2020/01/31 22:54:05.9	188.710	0.010	-0.470	1.210
2020/01/31 22:54:06.0	188.710	-0.020	-0.450	1.210
2020/01/31 22:54:06.1	188.700	-0.050	-0.430	1.210
2020/01/31 22:54:06.2	188.700	-0.080	-0.420	1.220
2020/01/31 22:54:06.3	188.700	-0.110	-0.410	1.230
2020/01/31 22:54:06.4	188.700	-0.140	-0.400	1.240
2020/01/31 22:54:06.5	188.700	-0.170	-0.390	1.260
2020/01/31 22:54:06.6	188.700	-0.200	-0.390	1.280
2020/01/31 22:54:06.7	188.700	-0.240	-0.380	1.300
2020/01/31 22:54:06.8	188.700	-0.270	-0.380	1.330
2020/01/31 22:54:06.9	188.700	-0.300	-0.380	1.360
2020/01/31 22:54:07.0	188.700	-0.330	-0.380	1.390
2020/01/31 22:54:07.1	188.700	-0.360	-0.380	1.430
2020/01/31 22:54:07.2	188.700	-0.380	-0.370	1.460
2020/01/31 22:54:07.3	188.700	-0.410	-0.370	1.500
2020/01/31 22:54:07.4	188.700	-0.440	-0.360	1.540
2020/01/31 22:54:07.5	188.700	-0.470	-0.360	1.580
2020/01/31 22:54:07.6	188.700	-0.490	-0.350	1.620
2020/01/31 22:54:07.7	188.700	-0.520	-0.340	1.660
2020/01/31 22:54:07.8	188.700	-0.540	-0.330	1.700
2020/01/31 22:54:07.9	188.700	-0.560	-0.320	1.740
2020/01/31 22:54:08.0	188.700	-0.580	-0.300	1.780
2020/01/31 22:54:08.1	188.710	-0.600	-0.290	1.830
2020/01/31 22:54:08.2	188.700	-0.610	-0.270	1.870
2020/01/31 22:54:08.3	188.700	-0.630	-0.260	1.900
2020/01/31 22:54:08.4	188.690	-0.640	-0.240	1.930
2020/01/31 22:54:08.5	188.690	-0.650	-0.220	1.970
2020/01/31 22:54:08.6	188.680	-0.660	-0.200	2.000
2020/01/31 22:54:08.7	188.670	-0.660	-0.170	2.030
2020/01/31 22:54:08.8	188.660	-0.670	-0.150	2.050
2020/01/31 22:54:08.9	188.640	-0.670	-0.130	2.080
2020/01/31 22:54:09.0	188.630	-0.660	-0.110	2.100
2020/01/31 22:54:09.1	188.620	-0.660	-0.090	2.120
2020/01/31 22:54:09.2	188.600	-0.650	-0.070	2.140
2020/01/31 22:54:09.3	188.580	-0.640	-0.050	2.160
2020/01/31 22:54:09.4	188.550	-0.620	-0.040	2.170
2020/01/31 22:54:09.5	188.530	-0.610	-0.020	2.190
2020/01/31 22:54:09.6	188.500	-0.590	-0.010	2.200
2020/01/31 22:54:09.7	188.470	-0.560	0.000	2.210
2020/01/31 22:54:09.8	188.440	-0.540	0.010	2.220
2020/01/31 22:54:09.9	188.410	-0.510	0.020	2.230
2020/01/31 22:54:10.0	188.380	-0.480	0.030	2.230
2020/01/31 22:54:10.1	188.350	-0.450	0.030	2.230
2020/01/31 22:54:10.2	188.310	-0.420	0.030	2.230
2020/01/31 22:54:10.3	188.280	-0.380	0.030	2.230
2020/01/31 22:54:10.4	188.250	-0.350	0.030	2.220
2020/01/31 22:54:10.5	188.210	-0.310	0.020	2.220
2020/01/31 22:54:10.6	188.180	-0.270	0.020	2.210
2020/01/31 22:54:10.7	188.150	-0.230	0.010	2.190
2020/01/31 22:54:10.8	188.110	-0.200	-0.000	2.180
2020/01/31 22:54:10.9	188.080	-0.160	-0.010	2.160
2020/01/31 22:54:11.0	188.060	-0.120	-0.020	2.140
2020/01/31 22:54:11.1	188.040	-0.090	-0.030	2.110
2020/01/31 22:54:11.2	188.020	-0.060	-0.040	2.090
2020/01/31 22:54:11.3	188.000	-0.030	-0.050	2.060
2020/01/31 22:54:11.4	187.980	0.000	-0.060	2.030
2020/01/31 22:54:11.5	187.960	0.030	-0.060	1.990
2020/01/31 22:54:11.6	187.940	0.050	-0.070	1.960
2020/01/31 22:54:11.7	187.930	0.070	-0.070	1.920
2020/01/31 22:54:11.8	187.920	0.090	-0.080	1.890
2020/01/31 22:54:11.9	187.910	0.100	-0.080	1.850
2020/01/31 22:54:12.0	187.910	0.110	-0.080	1.810
2020/01/31 22:54:12.1	187.930	0.110	-0.080	1.760
2020/01/31 22:54:12.2	187.930	0.120	-0.070	1.720
2020/01/31 22:54:12.3	187.940	0.110	-0.060	1.680
2020/01/31 22:54:12.4	187.960	0.110	-0.050	1.630
2020/01/31 22:54:12.5	187.980	0.100	-0.040	1.580
2020/01/31 22:54:12.6	188.000	0.080	-0.020	1.540
2020/01/31 22:54:12.7	188.030	0.070	0.000	1.490
2020/01/31 22:54:12.8	188.060	0.050	0.030	1.440
2020/01/31 22:54:12.9	188.100	0.020	0.050	1.390
2020/01/31 22:54:13.0	188.140	-0.000	0.080	1.350
2020/01/31 22:54:13.1	188.200	-0.030	0.110	1.300
2020/01/31 22:54:13.2	188.250	-0.060	0.140	1.250
2020/01/31 22:54:13.3	188.300	-0.090	0.180	1.200
2020/01/31 22:54:13.4	188.360	-0.130	0.210	1.160
2020/01/31 22:54:13.5	188.420	-0.160	0.250	1.110
2020/01/31 22:54:13.6	188.480	-0.200	0.280	1.070
2020/01/31 22:54:13.7	188.540	-0.240	0.320	1.030
2020/01/31 22:54:13.8	188.610	-0.270	0.350	0.990
2020/01/31 22:54:13.9	188.670	-0.310	0.380	0.950
2020/01/31 22:54:14.0	188.740	-0.340	0.400	0.910
2020/01/31 22:54:14.1	188.800	-0.370	0.430	0.880
2020/01/31 22:54:14.2	188.870	-0.400	0.440	0.850
2020/01/31 22:54:14.3	188.920	-0.430	0.460	0.820
2020/01/31 22:54:14.4	188.980	-0.450	0.470	0.800
2020/01/31 22:54:14.5	189.030	-0.470	0.470	0.780
2020/01/31 22:54:14.6	189.080	-0.490	0.460	0.760
2020/01/31 22:54:14.7	189.130	-0.500	0.450	0.750
2020/01/31 22:54:14.8	189.170	-0.500	0.430	0.740
2020/01/31 22:54:14.9	189.210	-0.500	0.410	0.740
2020/01/31 22:54:15.0	189.250	-0.500	0.380	0.740
2020/01/31 22:54:15.1	189.280	-0.480	0.340	0.750
2020/01/31 22:54:15.2	189.300	-0.470	0.300	0.760
2020/01/31 22:54:15.3	189.320	-0.440	0.250	0.770
2020/01/31 22:54:15.4	189.340	-0.420	0.190	0.790
2020/01/31 22:54:15.5	189.360	-0.380	0.120	0.800
2020/01/31 22:54:15.6	189.370	-0.340	0.050	0.820
2020/01/31 22:54:15.7	189.380	-0.300	-0.020	0.850
2020/01/31 22:54:15.8	189.380	-0.250	-0.100	0.870
2020/01/31 22:54:15.9	189.380	-0.190	-0.180	0.900
2020/01/31 22:54:16.0	189.370	-0.140	-0.270	0.930
2020/01/31 22:54:16.1	189.360	-0.070	-0.360	0.970
2020/01/31 22:54:16.2	189.340	-0.010	-0.450	1.000
2020/01/31 22:54:16.3	189.330	0.060	-0.540	1.050
2020/01/31 22:54:16.4	189.310	0.130	-0.630	1.090
2020/01/31 22:54:16.5	189.290	0.200	-0.720	1.130
2020/01/31 22:54:16.6	189.260	0.280	-0.810	1.180
2020/01/31 22:54:16.7	189.230	0.350	-0.890	1.230
2020/01/31 22:54:16.8	189.200	0.420	-0.970	1.270
2020/01/31 22:54:16.9	189.170	0.490	-1.050	1.320
2020/01/31 22:54:17.0	189.140	0.560	-1.110	1.370
2020/01/31 22:54:17.1	189.080	0.630	-1.170	1.420
2020/01/31 22:54:17.2	189.040	0.690	-1.230	1.470
2020/01/31 22:54:17.3	189.010	0.750	-1.270	1.520
2020/01/31 22:54:17.4	188.970	0.810	-1.310	1.560
2020/01/31 22:54:17.5	188.930	0.860	-1.330	1.610
2020/01/31 22:54:17.6	188.890	0.910	-1.350	1.650
2020/01/31 22:54:17.7	188.850	0.940	-1.350	1.700
2020/01/31 22:54:17.8	188.810	0.980	-1.350	1.740
2020/01/31 22:54:17.9	188.780	1.000	-1.330	1.770
2020/01/31 22:54:18.0	188.740	1.020	-1.300	1.810
2020/01/31 22:54:18.1	188.710	1.030	-1.260	1.840
2020/01/31 22:54:18.2	188.680	1.040	-1.210	1.870
2020/01/31 22:54:18.3	188.660	1.030	-1.140	1.900
2020/01/31 22:54:18.4	188.640	1.020	-1.070	1.920
2020/01/31 22:54:18.5	188.620	1.000	-0.980	1.940
2020/01/31 22:54:18.6	188.610	0.980	-0.890	1.960
2020/01/31 22:54:18.7	188.600	0.940	-0.790	1.980
2020/01/31 22:54:18.8	188.600	0.900	-0.680	1.990
2020/01/31 22:54:18.9	188.600	0.860	-0.570	2.000
2020/01/31 22:54:19.0	188.600	0.800	-0.450	2.010
2020/01/31 22:54:19.1	188.610	0.750	-0.330	2.010
2020/01/31 22:54:19.2	188.620	0.690	-0.210	2.010
2020/01/31 22:54:19.3	188.630	0.620	-0.090	2.010
2020/01/31 22:54:19.4	188.650	0.550	0.030	2.000
2020/01/31 22:54:19.5	188.670	0.480	0.150	2.000
2020/01/31 22:54:19.6	188.690	0.400	0.270	1.990
2020/01/31 22:54:19.7	188.710	0.330	0.380	1.980
2020/01/31 22:54:19.8	188.730	0.250	0.480	1.960
2020/01/31 22:54:19.9	188.760	0.170	0.580	1.940
2020/01/31 22:54:20.0	188.790	0.100	0.680	1.930
2020/01/31 22:54:20.1	188.820	0.020	0.760	1.910
2020/01/31 22:54:20.2	188.850	-0.050	0.840	1.880
2020/01/31 22:54:20.3	188.880	-0.120	0.910	1.860
2020/01/31 22:54:20.4	188.910	-0.180	0.960	1.840
2020/01/31 22:54:20.5	188.940	-0.240	1.010	1.810
2020/01/31 22:54:20.6	188.970	-0.300	1.040	1.790
2020/01/31 22:54:20.7	189.000	-0.350	1.070	1.760
2020/01/31 22:54:20.8	189.040	-0.390	1.080	1.730
2020/01/31 22:54:20.9	189.060	-0.430	1.080	1.710
2020/01/31 22:54:21.0	189.090	-0.460	1.070	1.680
2020/01/31 22:54:21.1	189.120	-0.490	1.040	1.660
2020/01/31 22:54:21.2	189.140	-0.510	1.010	1.640
2020/01/31 22:54:21.3	189.170	-0.520	0.970	1.610
2020/01/31 22:54:21.4	189.190	-0.520	0.910	1.590
2020/01/31 22:54:21.5	189.210	-0.520	0.850	1.570
2020/01/31 22:54:21.6	189.230	-0.510	0.780	1.550
2020/01/31 22:54:21.7	189.250	-0.500	0.690	1.520
2020/01/31 22:54:21.8	189.270	-0.470	0.610	1.500
2020/01/31 22:54:21.9	189.280	-0.440	0.510	1.480
2020/01/31 22:54:22.0	189.300	-0.410	0.410	1.460
2020/01/31 22:54:22.1	189.300	-0.370	0.310	1.440
2020/01/31 22:54:22.2	189.310	-0.330	0.200	1.420
2020/01/31 22:54:22.3	189.330	-0.280	0.090	1.410
2020/01/31 22:54:22.4	189.340	-0.230	-0.020	1.390
2020/01/31 22:54:22.5	189.350	-0.180	-0.130	1.370
2020/01/31 22:54:22.6	189.360	-0.130	-0.250	1.360
2020/01/31 22:54:22.7	189.360	-0.070	-0.360	1.340
2020/01/31 22:54:22.8	189.370	-0.010	-0.460	1.330
2020/01/31 22:54:22.9	189.380	0.040	-0.570	1.310
2020/01/31 22:54:23.0	189.390	0.100	-0.670	1.300
2020/01/31 22:54:23.1	189.390	0.150	-0.770	1.290
2020/01/31 22:54:23.2	189.400	0.210	-0.860	1.280
2020/01/31 22:54:23.3	189.400	0.260	-0.940	1.270
2020/01/31 22:54:23.4	189.400	0.310	-1.030	1.260
2020/01/31 22:54:23.5	189.400	0.350	-1.100	1.250
2020/01/31 22:54:23.6	189.400	0.390	-1.170	1.250
2020/01/31 22:54:23.7	189.400	0.430	-1.230	1.240
2020/01/31 22:54:23.8	189.400	0.460	-1.280	1.240
2020/01/31 22:54:23.9	189.390	0.490	-1.330	1.230
2020/01/31 22:54:24.0	189.390	0.520	-1.370	1.230
2020/01/31 22:54:24.1	189.380	0.540	-1.400	1.240
2020/01/31 22:54:24.2	189.370	0.550	-1.430	1.240
2020/01/31 22:54:24.3	189.350	0.560	-1.450	1.240
2020/01/31 22:54:24.4	189.340	0.570	-1.470	1.250
2020/01/31 22:54:24.5	189.320	0.570	-1.480	1.260
2020/01/31 22:54:24.6	189.300	0.570	-1.480	1.270
2020/01/31 22:54:24.7	189.270	0.560	-1.480	1.280
2020/01/31 22:54:24.8	189.250	0.550	-1.480	1.290
2020/01/31 22:54:24.9	189.220	0.530	-1.470	1.310
2020/01/31 22:54:25.0	189.180	0.510	-1.460	1.320
2020/01/31 22:54:25.1	189.130	0.490	-1.450	1.350
2020/01/31 22:54:25.2	189.090	0.470	-1.430	1.370
2020/01/31 22:54:25.3	189.050	0.440	-1.410	1.400
2020/01/31 22:54:25.4	189.000	0.410	-1.390	1.420
2020/01/31 22:54:25.5	188.960	0.380	-1.370	1.450
2020/01/31 22:54:25.6	188.910	0.340	-1.350	1.480
2020/01/31 22:54:25.7	188.870	0.310	-1.320	1.510
2020/01/31 22:54:25.8	188.820	0.270	-1.290	1.550
2020/01/31 22:54:25.9	188.770	0.230	-1.260	1.580
2020/01/31 22:54:26.0	188.730	0.190	-1.230	1.610
2020/01/31 22:54:26.1	188.680	0.150	-1.190	1.640
2020/01/31 22:54:26.2	188.640	0.110	-1.150	1.670
2020/01/31 22:54:26.3	188.600	0.060	-1.110	1.700
2020/01/31 22:54:26.4	188.570	0.020	-1.060	1.720
2020/01/31 22:54:26.5	188.540	-0.020	-1.010	1.750
2020/01/31 22:54:26.6	188.510	-0.070	-0.960	1.770
2020/01/31 22:54:26.7	188.480	-0.120	-0.900	1.800
2020/01/31 22:54:26.8	188.460	-0.160	-0.840	1.820
2020/01/31 22:54:26.9	188.450	-0.210	-0.780	1.840
2020/01/31 22:54:27.0	188.430	-0.250	-0.720	1.860
2020/01/31 22:54:27.1	188.450	-0.300	-0.650	1.870
2020/01/31 22:54:27.2	188.440	-0.340	-0.590	1.890
2020/01/31 22:54:27.3	188.440	-0.390	-0.520	1.900
2020/01/31 22:54:27.4	188.440	-0.430	-0.450	1.920
2020/01/31 22:54:27.5	188.440	-0.470	-0.380	1.930
2020/01/31 22:54:27.6	188.440	-0.510	-0.310	1.940
2020/01/31 22:54:27.7	188.450	-0.550	-0.240	1.950
2020/01/31 22:54:27.8	188.450	-0.590	-0.170	1.960
2020/01/31 22:54:27.9	188.460	-0.630	-0.100	1.960
2020/01/31 22:54:28.0	188.470	-0.670	-0.030	1.970
2020/01/31 22:54:28.1	188.490	-0.700	0.040	1.970
2020/01/31 22:54:28.2	188.500	-0.730	0.100	1.970
2020/01/31 22:54:28.3	188.510	-0.760	0.160	1.970
2020/01/31 22:54:28.4	188.530	-0.790	0.220	1.970
2020/01/31 22:54:28.5	188.540	-0.810	0.280	1.970
2020/01/31 22:54:28.6	188.560	-0.830	0.330	1.960
2020/01/31 22:54:28.7	188.580	-0.850	0.380	1.960
2020/01/31 22:54:28.8	188.590	-0.870	0.430	1.950
2020/01/31 22:54:28.9	188.610	-0.880	0.470	1.940
2020/01/31 22:54:29.0	188.630	-0.890	0.510	1.920
2020/01/31 22:54:29.1	188.670	-0.900	0.550	1.910
2020/01/31 22:54:29.2	188.690	-0.910	0.590	1.900
2020/01/31 22:54:29.3	188.710	-0.910	0.620	1.880
2020/01/31 22:54:29.4	188.740	-0.910	0.640	1.860
2020/01/31 22:54:29.5	188.760	-0.910	0.660	1.840
2020/01/31 22:54:29.6	188.780	-0.900	0.680	1.820
2020/01/31 22:54:29.7	188.800	-0.900	0.690	1.800
2020/01/31 22:54:29.8	188.830	-0.880	0.700	1.790
2020/01/31 22:54:29.9	188.850	-0.870	0.710	1.770
2020/01/31 22:54:30.0	188.870	-0.850	0.710	1.750
2020/01/31 22:54:30.1	188.890	-0.840	0.700	1.730
2020/01/31 22:54:30.2	188.910	-0.810	0.690	1.710
2020/01/31 22:54:30.3	188.930	-0.790	0.670	1.700
2020/01/31 22:54:30.4	188.940	-0.760	0.650	1.690
2020/01/31 22:54:30.5	188.950	-0.730	0.630	1.680
2020/01/31 22:54:30.6	188.960	-0.700	0.600	1.670
2020/01/31 22:54:30.7	188.960	-0.660	0.560	1.660
2020/01/31 22:54:30.8	188.960	-0.620	0.520	1.660
2020/01/31 22:54:30.9	188.960	-0.580	0.480	1.660
2020/01/31 22:54:31.0	188.960	-0.540	0.430	1.660
2020/01/31 22:54:31.1	188.960	-0.490	0.380	1.650
2020/01/31 22:54:31.2	188.950	-0.450	0.330	1.660
2020/01/31 22:54:31.3	188.940	-0.400	0.270	1.660
2020/01/31 22:54:31.4	188.930	-0.350	0.220	1.660
2020/01/31 22:54:31.5	188.920	-0.300	0.160	1.660
2020/01/31 22:54:31.6	188.900	-0.240	0.110	1.660
2020/01/31 22:54:31.7	188.890	-0.190	0.050	1.660
2020/01/31 22:54:31.8	188.870	-0.140	0.000	1.650
2020/01/31 22:54:31.9	188.860	-0.090	-0.050	1.650
2020/01/31 22:54:32.0	188.840	-0.040	-0.090	1.640
2020/01/31 22:54:32.1	188.820	0.010	-0.140	1.640
2020/01/31 22:54:32.2	188.810	0.060	-0.180	1.630
2020/01/31 22:54:32.3	188.800	0.110	-0.210	1.610
2020/01/31 22:54:32.4	188.790	0.150	-0.240	1.600
2020/01/31 22:54:32.5	188.780	0.200	-0.260	1.590
2020/01/31 22:54:32.6	188.770	0.240	-0.280	1.570
2020/01/31 22:54:32.7	188.770	0.280	-0.290	1.560
2020/01/31 22:54:32.8	188.760	0.310	-0.300	1.540
2020/01/31 22:54:32.9	188.760	0.340	-0.300	1.520
2020/01/31 22:54:33.0	188.760	0.370	-0.300	1.510
2020/01/31 22:54:33.1	188.760	0.400	-0.290	1.490
2020/01/31 22:54:33.2	188.760	0.420	-0.280	1.470
2020/01/31 22:54:33.3	188.760	0.440	-0.270	1.450
2020/01/31 22:54:33.4	188.770	0.460	-0.250	1.440
2020/01/31 22:54:33.5	188.770	0.470	-0.230	1.420
2020/01/31 22:54:33.6	188.780	0.490	-0.210	1.410
2020/01/31 22:54:33.7	188.790	0.500	-0.190	1.390
2020/01/31 22:54:33.8	188.790	0.500	-0.160	1.380
2020/01/31 22:54:33.9	188.800	0.510	-0.140	1.360
2020/01/31 22:54:34.0	188.800	0.510	-0.110	1.350
2020/01/31 22:54:34.1	188.810	0.510	-0.090	1.340
2020/01/31 22:54:34.2	188.810	0.520	-0.070	1.320
2020/01/31 22:54:34.3	188.820	0.520	-0.050	1.310
2020/01/31 22:54:34.4	188.820	0.510	-0.030	1.290
2020/01/31 22:54:34.5	188.830	0.510	-0.020	1.280
2020/01/31 22:54:34.6	188.830	0.510	-0.010	1.260
2020/01/31 22:54:34.7	188.840	0.510	-0.000	1.250
2020/01/31 22:54:34.8	188.840	0.510	0.000	1.230
2020/01/31 22:54:34.9	188.840	0.500	0.010	1.220
2020/01/31 22:54:35.0	188.850	0.500	0.010	1.200
2020/01/31 22:54:35.1	188.860	0.500	-0.000	1.190
2020/01/31 22:54:35.2	188.860	0.500	-0.010	1.170
2020/01/31 22:54:35.3	188.860	0.500	-0.020	1.160
2020/01/31 22:54:35.4	188.860	0.500	-0.030	1.140
2020/01/31 22:54:35.5	188.870	0.500	-0.040	1.130
2020/01/31 22:54:35.6	188.870	0.500	-0.060	1.120
2020/01/31 22:54:35.7	188.870	0.500	-0.080	1.110
2020/01/31 22:54:35.8	188.880	0.500	-0.100	1.100
2020/01/31 22:54:35.9	188.880	0.500	-0.110	1.080
2020/01/31 22:54:36.0	188.890	0.500	-0.130	1.080
2020/01/31 22:54:36.1	188.890	0.500	-0.150	1.070
2020/01/31 22:54:36.2	188.900	0.490	-0.170	1.060
2020/01/31 22:54:36.3	188.910	0.490	-0.190	1.050
2020/01/31 22:54:36.4	188.920	0.480	-0.200	1.050
2020/01/31 22:54:36.5	188.930	0.480	-0.220	1.050
2020/01/31 22:54:36.6	188.940	0.470	-0.230	1.050
2020/01/31 22:54:36.7	188.950	0.460	-0.240	1.050
2020/01/31 22:54:36.8	188.960	0.450	-0.250	1.050
2020/01/31 22:54:36.9	188.980	0.430	-0.260	1.060
2020/01/31 22:54:37.0	188.990	0.420	-0.270	1.070
2020/01/31 22:54:37.1	188.980	0.400	-0.270	1.090
2020/01/31 22:54:37.2	188.990	0.380	-0.270	1.110
2020/01/31 22:54:37.3	189.000	0.360	-0.280	1.130
2020/01/31 22:54:37.4	189.010	0.340	-0.290	1.160
2020/01/31 22:54:37.5	189.020	0.310	-0.290	1.190
2020/01/31 22:54:37.6	189.030	0.290	-0.300	1.230
2020/01/31 22:54:37.7	189.030	0.260	-0.300	1.270
2020/01/31 22:54:37.8	189.030	0.240	-0.310	1.310
2020/01/31 22:54:37.9	189.030	0.210	-0.310	1.350
2020/01/31 22:54:38.0	189.030	0.180	-0.320	1.400
2020/01/31 22:54:38.1	189.040	0.150	-0.340	1.450
2020/01/31 22:54:38.2	189.030	0.130	-0.350	1.490
2020/01/31 22:54:38.3	189.030	0.100	-0.360	1.540
2020/01/31 22:54:38.4	189.020	0.070	-0.370	1.580
2020/01/31 22:54:38.5	189.010	0.050	-0.380	1.630
2020/01/31 22:54:38.6	189.000	0.020	-0.400	1.670
2020/01/31 22:54:38.7	188.980	0.000	-0.420	1.720
2020/01/31 22:54:38.8	188.970	-0.020	-0.440	1.760
2020/01/31 22:54:38.9	188.950	-0.040	-0.460	1.800
2020/01/31 22:54:39.0	188.930	-0.060	-0.480	1.840
2020/01/31 22:54:39.1	188.900	-0.080	-0.500	1.880
2020/01/31 22:54:39.2	188.880	-0.090	-0.530	1.920
2020/01/31 22:54:39.3	188.850	-0.100	-0.560	1.960
2020/01/31 22:54:39.4	188.820	-0.110	-0.590	2.000
2020/01/31 22:54:39.5	188.790	-0.120	-0.620	2.030
2020/01/31 22:54:39.6	188.760	-0.130	-0.650	2.070
2020/01/31 22:54:39.7	188.730	-0.130	-0.690	2.110
2020/01/31 22:54:39.8	188.700	-0.130	-0.720	2.140
2020/01/31 22:54:39.9	188.670	-0.130	-0.760	2.180
2020/01/31 22:54:40.0	188.640	-0.130	-0.790	2.210
2020/01/31 22:54:40.1	188.600	-0.120	-0.830	2.240
2020/01/31 22:54:40.2	188.570	-0.120	-0.860	2.270
2020/01/31 22:54:40.3	188.540	-0.110	-0.900	2.300
2020/01/31 22:54:40.4	188.510	-0.100	-0.930	2.320
2020/01/31 22:54:40.5	188.490	-0.080	-0.960	2.350
2020/01/31 22:54:40.6	188.460	-0.070	-0.990	2.370
2020/01/31 22:54:40.7	188.440	-0.060	-1.020	2.380
2020/01/31 22:54:40.8	188.420	-0.040	-1.040	2.390
2020/01/31 22:54:40.9	188.400	-0.020	-1.060	2.400
2020/01/31 22:54:41.0	188.380	-0.010	-1.070	2.400
2020/01/31 22:54:41.1	188.380	0.010	-1.080	2.400
2020/01/31 22:54:41.2	188.370	0.030	-1.080	2.390
2020/01/31 22:54:41.3	188.360	0.050	-1.080	2.380
2020/01/31 22:54:41.4	188.350	0.070	-1.080	2.360
2020/01/31 22:54:41.5	188.340	0.090	-1.060	2.340
2020/01/31 22:54:41.6	188.340	0.100	-1.040	2.320
2020/01/31 22:54:41.7	188.340	0.120	-1.020	2.290
2020/01/31 22:54:41.8	188.340	0.140	-0.990	2.250
2020/01/31 22:54:41.9	188.340	0.160	-0.950	2.210
2020/01/31 22:54:42.0	188.350	0.170	-0.900	2.170
2020/01/31 22:54:42.1	188.370	0.190	-0.850	2.120
2020/01/31 22:54:42.2	188.380	0.200	-0.800	2.070
2020/01/31 22:54:42.3	188.390	0.210	-0.740	2.010
2020/01/31 22:54:42.4	188.410	0.220	-0.670	1.950
2020/01/31 22:54:42.5	188.430	0.230	-0.600	1.890
2020/01/31 22:54:42.6	188.440	0.240	-0.530	1.830
2020/01/31 22:54:42.7	188.470	0.240	-0.460	1.760
2020/01/31 22:54:42.8	188.490	0.240	-0.380	1.700
2020/01/31 22:54:42.9	188.520	0.240	-0.300	1.630
2020/01/31 22:54:43.0	188.540	0.240	-0.220	1.560
2020/01/31 22:54:43.1	188.580	0.240	-0.140	1.490
2020/01/31 22:54:43.2	188.610	0.230	-0.060	1.430
2020/01/31 22:54:43.3	188.640	0.230	0.020	1.360
2020/01/31 22:54:43.4	188.670	0.210	0.090	1.300
2020/01/31 22:54:43.5	188.700	0.200	0.160	1.240
2020/01/31 22:54:43.6	188.730	0.190	0.230	1.180
2020/01/31 22:54:43.7	188.760	0.170	0.300	1.130
2020/01/31 22:54:43.8	188.790	0.150	0.360	1.080
2020/01/31 22:54:43.9	188.820	0.130	0.420	1.030
2020/01/31 22:54:44.0	188.850	0.110	0.470	0.980
2020/01/31 22:54:44.1	188.860	0.090	0.510	0.940
2020/01/31 22:54:44.2	188.890	0.060	0.550	0.910
2020/01/31 22:54:44.3	188.910	0.030	0.580	0.880
2020/01/31 22:54:44.4	188.940	0.010	0.600	0.850
2020/01/31 22:54:44.5	188.960	-0.020	0.620	0.830
2020/01/31 22:54:44.6	188.970	-0.050	0.630	0.820
2020/01/31 22:54:44.7	188.990	-0.080	0.630	0.810
2020/01/31 22:54:44.8	189.000	-0.110	0.620	0.810
2020/01/31 22:54:44.9	189.010	-0.140	0.600	0.810
2020/01/31 22:54:45.0	189.010	-0.170	0.580	0.810
2020/01/31 22:54:45.1	189.010	-0.200	0.550	0.820
2020/01/31 22:54:45.2	189.010	-0.230	0.520	0.830
2020/01/31 22:54:45.3	189.010	-0.250	0.470	0.850
2020/01/31 22:54:45.4	189.000	-0.280	0.420	0.870
2020/01/31 22:54:45.5	188.990	-0.300	0.360	0.900
2020/01/31 22:54:45.6	188.980	-0.320	0.300	0.930
2020/01/31 22:54:45.7	188.970	-0.350	0.230	0.970
2020/01/31 22:54:45.8	188.960	-0.370	0.150	1.010
2020/01/31 22:54:45.9	188.940	-0.380	0.080	1.050
2020/01/31 22:54:46.0	188.930	-0.400	-0.000	1.090
2020/01/31 22:54:46.1	188.890	-0.410	-0.090	1.140
2020/01/31 22:54:46.2	188.870	-0.430	-0.170	1.190
2020/01/31 22:54:46.3	188.850	-0.440	-0.250	1.240
2020/01/31 22:54:46.4	188.830	-0.450	-0.330	1.300
2020/01/31 22:54:46.5	188.810	-0.460	-0.410	1.360
2020/01/31 22:54:46.6	188.790	-0.470	-0.480	1.420
2020/01/31 22:54:46.7	188.770	-0.470	-0.560	1.480
2020/01/31 22:54:46.8	188.750	-0.480	-0.630	1.540
2020/01/31 22:54:46.9	188.730	-0.480	-0.690	1.600
2020/01/31 22:54:47.0	188.710	-0.480	-0.750	1.670
2020/01/31 22:54:47.1	188.690	-0.480	-0.810	1.730
2020/01/31 22:54:47.2	188.670	-0.480	-0.860	1.800
2020/01/31 22:54:47.3	188.640	-0.480	-0.900	1.860
2020/01/31 22:54:47.4	188.620	-0.470	-0.940	1.920
2020/01/31 22:54:47.5	188.600	-0.470	-0.970	1.980
2020/01/31 22:54:47.6	188.570	-0.460	-1.000	2.040
2020/01/31 22:54:47.7	188.550	-0.450	-1.020	2.100
2020/01/31 22:54:47.8	188.530	-0.440	-1.030	2.150
2020/01/31 22:54:47.9	188.500	-0.430	-1.030	2.200
2020/01/31 22:54:48.0	188.480	-0.420	-1.030	2.240
2020/01/31 22:54:48.1	188.460	-0.410	-1.030	2.290
2020/01/31 22:54:48.2	188.430	-0.390	-1.020	2.330
2020/01/31 22:54:48.3	188.410	-0.380	-1.000	2.360
2020/01/31 22:54:48.4	188.380	-0.360	-0.970	2.390
2020/01/31 22:54:48.5	188.360	-0.340	-0.950	2.410
2020/01/31 22:54:48.6	188.330	-0.320	-0.910	2.430
2020/01/31 22:54:48.7	188.310	-0.300	-0.880	2.450
2020/01/31 22:54:48.8	188.290	-0.280	-0.840	2.460
2020/01/31 22:54:48.9	188.260	-0.260	-0.800	2.460
2020/01/31 22:54:49.0	188.240	-0.240	-0.750	2.460
2020/01/31 22:54:49.1	188.230	-0.210	-0.700	2.450
2020/01/31 22:54:49.2	188.210	-0.190	-0.650	2.440
2020/01/31 22:54:49.3	188.190	-0.160	-0.600	2.420
2020/01/31 22:54:49.4	188.180	-0.140	-0.550	2.390
2020/01/31 22:54:49.5	188.170	-0.110	-0.490	2.360
2020/01/31 22:54:49.6	188.160	-0.090	-0.430	2.320
2020/01/31 22:54:49.7	188.160	-0.070	-0.370	2.280
2020/01/31 22:54:49.8	188.160	-0.040	-0.310	2.230
2020/01/31 22:54:49.9	188.160	-0.020	-0.250	2.180
2020/01/31 22:54:50.0	188.170	0.000	-0.190	2.120
2020/01/31 22:54:50.1	188.190	0.020	-0.130	2.060
2020/01/31 22:54:50.2	188.200	0.040	-0.070	1.990
2020/01/31 22:54:50.3	188.220	0.060	-0.020	1.920
2020/01/31 22:54:50.4	188.240	0.080	0.040	1.850
2020/01/31 22:54:50.5	188.260	0.090	0.100	1.780
2020/01/31 22:54:50.6	188.290	0.110	0.150	1.700
2020/01/31 22:54:50.7	188.310	0.120	0.210	1.630
2020/01/31 22:54:50.8	188.350	0.130	0.260	1.560
2020/01/31 22:54:50.9	188.380	0.140	0.300	1.480
2020/01/31 22:54:51.0	188.410	0.140	0.350	1.410
2020/01/31 22:54:51.1	188.440	0.150	0.400	1.340
2020/01/31 22:54:51.2	188.480	0.150	0.430	1.270
2020/01/31 22:54:51.3	188.520	0.150	0.470	1.210
2020/01/31 22:54:51.4	188.550	0.160	0.490	1.150
2020/01/31 22:54:51.5	188.590	0.150	0.520	1.090
2020/01/31 22:54:51.6	188.630	0.150	0.540	1.030
2020/01/31 22:54:51.7	188.670	0.150	0.550	0.980
2020/01/31 22:54:51.8	188.700	0.140	0.560	0.930
2020/01/31 22:54:51.9	188.740	0.140	0.560	0.890
2020/01/31 22:54:52.0	188.770	0.130	0.560	0.850
2020/01/31 22:54:52.1	188.800	0.130	0.540	0.810
2020/01/31 22:54:52.2	188.830	0.120	0.530	0.780
2020/01/31 22:54:52.3	188.860	0.110	0.510	0.750
2020/01/31 22:54:52.4	188.890	0.100	0.490	0.730
2020/01/31 22:54:52.5	188.910	0.100	0.460	0.710
2020/01/31 22:54:52.6	188.940	0.090	0.430	0.690
2020/01/31 22:54:52.7	188.960	0.080	0.400	0.680
2020/01/31 22:54:52.8	188.980	0.070	0.360	0.660
2020/01/31 22:54:52.9	189.000	0.060	0.320	0.660
2020/01/31 22:54:53.0	189.010	0.060	0.280	0.650
2020/01/31 22:54:53.1	189.020	0.050	0.240	0.650
2020/01/31 22:54:53.2	189.040	0.040	0.200	0.650
2020/01/31 22:54:53.3	189.050	0.030	0.150	0.660
2020/01/31 22:54:53.4	189.070	0.030	0.110	0.660
2020/01/31 22:54:53.5	189.080	0.020	0.070	0.670
2020/01/31 22:54:53.6	189.090	0.010	0.030	0.690
2020/01/31 22:54:53.7	189.100	0.010	-0.020	0.700
2020/01/31 22:54:53.8	189.110	0.000	-0.060	0.720
2020/01/31 22:54:53.9	189.120	0.000	-0.100	0.750
2020/01/31 22:54:54.0	189.130	0.000	-0.130	0.770
2020/01/31 22:54:54.1	189.120	-0.000	-0.170	0.800
2020/01/31 22:54:54.2	189.130	0.000	-0.200	0.830
2020/01/31 22:54:54.3	189.140	0.000	-0.230	0.850
2020/01/31 22:54:54.4	189.140	0.010	-0.260	0.880
2020/01/31 22:54:54.5	189.150	0.010	-0.290	0.910
2020/01/31 22:54:54.6	189.160	0.020	-0.310	0.940
2020/01/31 22:54:54.7	189.160	0.030	-0.340	0.970
2020/01/31 22:54:54.8	189.170	0.040	-0.360	1.000
2020/01/31 22:54:54.9	189.170	0.050	-0.380	1.030
2020/01/31 22:54:55.0	189.180	0.060	-0.400	1.050
2020/01/31 22:54:55.1	189.180	0.080	-0.420	1.080
2020/01/31 22:54:55.2	189.180	0.090	-0.440	1.110
2020/01/31 22:54:55.3	189.180	0.110	-0.450	1.130
2020/01/31 22:54:55.4	189.190	0.130	-0.470	1.150
2020/01/31 22:54:55.5	189.190	0.150	-0.480	1.180
2020/01/31 22:54:55.6	189.190	0.170	-0.500	1.200
2020/01/31 22:54:55.7	189.180	0.190	-0.520	1.220
2020/01/31 22:54:55.8	189.180	0.210	-0.530	1.240
2020/01/31 22:54:55.9	189.180	0.230	-0.550	1.260
2020/01/31 22:54:56.0	189.180	0.260	-0.560	1.280
2020/01/31 22:54:56.1	189.160	0.280	-0.580	1.310
2020/01/31 22:54:56.2	189.150	0.300	-0.590	1.330
2020/01/31 22:54:56.3	189.150	0.310	-0.610	1.360
2020/01/31 22:54:56.4	189.140	0.330	-0.620	1.380
2020/01/31 22:54:56.5	189.130	0.350	-0.640	1.410
2020/01/31 22:54:56.6	189.120	0.360	-0.650	1.440
2020/01/31 22:54:56.7	189.100	0.370	-0.670	1.480
2020/01/31 22:54:56.8	189.090	0.380	-0.680	1.510
2020/01/31 22:54:56.9	189.080	0.390	-0.690	1.550
2020/01/31 22:54:57.0	189.060	0.390	-0.700	1.590
2020/01/31 22:54:57.1	189.060	0.390	-0.720	1.620
2020/01/31 22:54:57.2	189.050	0.390	-0.720	1.660
2020/01/31 22:54:57.3	189.030	0.390	-0.730	1.700
2020/01/31 22:54:57.4	189.020	0.390	-0.730	1.740
2020/01/31 22:54:57.5	189.000	0.380	-0.730	1.780
2020/01/31 22:54:57.6	188.990	0.370	-0.730	1.820
2020/01/31 22:54:57.7	188.980	0.360	-0.730	1.860
2020/01/31 22:54:57.8	188.960	0.340	-0.720	1.900
2020/01/31 22:54:57.9	188.950	0.320	-0.710	1.930
2020/01/31 22:54:58.0	188.940	0.310	-0.700	1.970
2020/01/31 22:54:58.1	188.920	0.290	-0.680	2.000
2020/01/31 22:54:58.2	188.900	0.270	-0.660	2.030
2020/01/31 22:54:58.3	188.890	0.240	-0.640	2.060
2020/01/31 22:54:58.4	188.880	0.220	-0.620	2.080
2020/01/31 22:54:58.5	188.870	0.200	-0.590	2.090
2020/01/31 22:54:58.6	188.860	0.170	-0.560	2.110
2020/01/31 22:54:58.7	188.850	0.150	-0.520	2.120
2020/01/31 22:54:58.8	188.840	0.120	-0.490	2.130
2020/01/31 22:54:58.9	188.830	0.100	-0.450	2.130
2020/01/31 22:54:59.0	188.820	0.080	-0.410	2.130
2020/01/31 22:54:59.1	188.830	0.050	-0.370	2.120
2020/01/31 22:54:59.2	188.820	0.030	-0.320	2.110
2020/01/31 22:54:59.3	188.820	0.010	-0.270	2.100
2020/01/31 22:54:59.4	188.810	-0.010	-0.230	2.080
2020/01/31 22:54:59.5	188.810	-0.020	-0.180	2.060
2020/01/31 22:54:59.6	188.810	-0.040	-0.130	2.030
2020/01/31 22:54:59.7	188.820	-0.050	-0.080	2.010
2020/01/31 22:54:59.8	188.820	-0.060	-0.040	1.980
2020/01/31 22:54:59.9	188.830	-0.070	0.010	1.940
2020/01/31 22:55:00.0	188.840	-0.080	0.050	1.910
2020/01/31 22:55:00.1	188.850	-0.090	0.090	1.870
2020/01/31 22:55:00.2	188.870	-0.090	0.130	1.830
2020/01/31 22:55:00.3	188.880	-0.100	0.160	1.790
2020/01/31 22:55:00.4	188.890	-0.100	0.190	1.760
2020/01/31 22:55:00.5	188.910	-0.100	0.210	1.720
2020/01/31 22:55:00.6	188.920	-0.100	0.230	1.680
2020/01/31 22:55:00.7	188.930	-0.100	0.240	1.640
2020/01/31 22:55:00.8	188.950	-0.090	0.240	1.610
2020/01/31 22:55:00.9	188.960	-0.090	0.240	1.580
2020/01/31 22:55:01.0	188.970	-0.090	0.230	1.550
2020/01/31 22:55:01.1	188.980	-0.080	0.210	1.510
2020/01/31 22:55:01.2	188.990	-0.080	0.180	1.490
2020/01/31 22:55:01.3	188.990	-0.070	0.150	1.470
2020/01/31 22:55:01.4	189.000	-0.070	0.110	1.450
2020/01/31 22:55:01.5	189.000	-0.060	0.060	1.440
2020/01/31 22:55:01.6	189.000	-0.060	0.010	1.430
2020/01/31 22:55:01.7	189.000	-0.060	-0.050	1.430
2020/01/31 22:55:01.8	189.000	-0.050	-0.110	1.420
2020/01/31 22:55:01.9	188.990	-0.050	-0.180	1.430
2020/01/31 22:55:02.0	188.980	-0.050	-0.250	1.430
2020/01/31 22:55:02.1	188.970	-0.040	-0.320	1.440
2020/01/31 22:55:02.2	188.960	-0.040	-0.400	1.460
2020/01/31 22:55:02.3	188.950	-0.040	-0.480	1.470
2020/01/31 22:55:02.4	188.930	-0.040	-0.560	1.490
2020/01/31 22:55:02.5	188.910	-0.040	-0.640	1.520
2020/01/31 22:55:02.6	188.890	-0.040	-0.720	1.540
2020/01/31 22:55:02.7	188.860	-0.040	-0.800	1.570
2020/01/31 22:55:02.8	188.840	-0.040	-0.870	1.600
2020/01/31 22:55:02.9	188.810	-0.040	-0.940	1.630
2020/01/31 22:55:03.0	188.780	-0.040	-1.010	1.670
2020/01/31 22:55:03.1	188.750	-0.040	-1.070	1.710
2020/01/31 22:55:03.2	188.720	-0.050	-1.130	1.740
2020/01/31 22:55:03.3	188.690	-0.050	-1.180	1.780
2020/01/31 22:55:03.4	188.660	-0.050	-1.220	1.820
2020/01/31 22:55:03.5	188.620	-0.050	-1.250	1.860
2020/01/31 22:55:03.6	188.590	-0.060	-1.280	1.900
2020/01/31 22:55:03.7	188.560	-0.060	-1.300	1.930
2020/01/31 22:55:03.8	188.540	-0.070	-1.300	1.970
2020/01/31 22:55:03.9	188.510	-0.070	-1.300	2.000
2020/01/31 22:55:04.0	188.480	-0.080	-1.290	2.030
2020/01/31 22:55:04.1	188.470	-0.080	-1.270	2.060
2020/01/31 22:55:04.2	188.450	-0.090	-1.240	2.080
2020/01/31 22:55:04.3	188.430	-0.100	-1.200	2.100
2020/01/31 22:55:04.4	188.410	-0.100	-1.150	2.120
2020/01/31 22:55:04.5	188.400	-0.110	-1.090	2.130
2020/01/31 22:55:04.6	188.380	-0.120	-1.030	2.140
2020/01/31 22:55:04.7	188.370	-0.130	-0.960	2.150
2020/01/31 22:55:04.8	188.370	-0.140	-0.880	2.150
2020/01/31 22:55:04.9	188.360	-0.150	-0.800	2.140
2020/01/31 22:55:05.0	188.360	-0.160	-0.710	2.140
2020/01/31 22:55:05.1	188.370	-0.170	-0.620	2.120
2020/01/31 22:55:05.2	188.380	-0.180	-0.520	2.110
2020/01/31 22:55:05.3	188.380	-0.190	-0.420	2.080
2020/01/31 22:55:05.4	188.400	-0.210	-0.320	2.060
2020/01/31 22:55:05.5	188.410	-0.220	-0.210	2.020
2020/01/31 22:55:05.6	188.430	-0.240	-0.110	1.990
2020/01/31 22:55:05.7	188.450	-0.250	-0.010	1.950
2020/01/31 22:55:05.8	188.480	-0.270	0.100	1.910
2020/01/31 22:55:05.9	188.510	-0.280	0.200	1.860
2020/01/31 22:55:06.0	188.540	-0.300	0.300	1.820
2020/01/31 22:55:06.1	188.570	-0.320	0.390	1.760
2020/01/31 22:55:06.2	188.610	-0.330	0.480	1.720
2020/01/31 22:55:06.3	188.650	-0.350	0.560	1.660
2020/01/31 22:55:06.4	188.690	-0.360	0.640	1.610
2020/01/31 22:55:06.5	188.730	-0.380	0.710	1.570
2020/01/31 22:55:06.6	188.770	-0.390	0.780	1.520
2020/01/31 22:55:06.7	188.810	-0.400	0.840	1.470
2020/01/31 22:55:06.8	188.860	-0.410	0.880	1.420
2020/01/31 22:55:06.9	188.900	-0.420	0.920	1.370
2020/01/31 22:55:07.0	188.940	-0.420	0.960	1.330
2020/01/31 22:55:07.1	189.000	-0.430	0.980	1.290
2020/01/31 22:55:07.2	189.040	-0.430	0.990	1.250
2020/01/31 22:55:07.3	189.080	-0.420	1.000	1.210
2020/01/31 22:55:07.4	189.120	-0.420	0.990	1.170
2020/01/31 22:55:07.5	189.150	-0.410	0.980	1.140
2020/01/31 22:55:07.6	189.190	-0.400	0.950	1.100
2020/01/31 22:55:07.7	189.220	-0.380	0.920	1.080
2020/01/31 22:55:07.8	189.250	-0.360	0.880	1.050
2020/01/31 22:55:07.9	189.280	-0.340	0.830	1.020
2020/01/31 22:55:08.0	189.300	-0.310	0.770	1.000
2020/01/31 22:55:08.1	189.300	-0.280	0.710	0.980
2020/01/31 22:55:08.2	189.320	-0.250	0.640	0.960
2020/01/31 22:55:08.3	189.340	-0.210	0.570	0.940
2020/01/31 22:55:08.4	189.350	-0.180	0.490	0.930
2020/01/31 22:55:08.5	189.370	-0.140	0.400	0.920
2020/01/31 22:55:08.6	189.380	-0.100	0.320	0.910
2020/01/31 22:55:08.7	189.390	-0.050	0.230	0.900
2020/01/31 22:55:08.8	189.400	-0.010	0.140	0.890
2020/01/31 22:55:08.9	189.410	0.030	0.050	0.890
2020/01/31 22:55:09.0	189.410	0.080	-0.050	0.890
2020/01/31 22:55:09.1	189.410	0.120	-0.140	0.890
2020/01/31 22:55:09.2	189.410	0.160	-0.230	0.900
2020/01/31 22:55:09.3	189.410	0.200	-0.310	0.910
2020/01/31 22:55:09.4	189.410	0.240	-0.400	0.930
2020/01/31 22:55:09.5	189.400	0.280	-0.480	0.950
2020/01/31 22:55:09.6	189.400	0.310	-0.550	0.970
2020/01/31 22:55:09.7	189.390	0.340	-0.620	0.990
2020/01/31 22:55:09.8	189.380	0.360	-0.680	1.020
2020/01/31 22:55:09.9	189.380	0.390	-0.740	1.050
2020/01/31 22:55:10.0	189.370	0.400	-0.790	1.090
2020/01/31 22:55:10.1	189.340	0.420	-0.830	1.120
2020/01/31 22:55:10.2	189.330	0.430	-0.870	1.160
2020/01/31 22:55:10.3	189.320	0.430	-0.900	1.200
2020/01/31 22:55:10.4	189.300	0.430	-0.920	1.240
2020/01/31 22:55:10.5	189.290	0.430	-0.930	1.290
2020/01/31 22:55:10.6	189.280	0.420	-0.940	1.330
2020/01/31 22:55:10.7	189.260	0.410	-0.940	1.380
2020/01/31 22:55:10.8	189.250	0.400	-0.930	1.420
2020/01/31 22:55:10.9	189.230	0.380	-0.920	1.470
2020/01/31 22:55:11.0	189.220	0.360	-0.900	1.520
2020/01/31 22:55:11.1	189.210	0.330	-0.880	1.570
2020/01/31 22:55:11.2	189.200	0.310	-0.850	1.610
2020/01/31 22:55:11.3	189.180	0.280	-0.810	1.660
2020/01/31 22:55:11.4	189.170	0.250	-0.770	1.700
2020/01/31 22:55:11.5	189.160	0.220	-0.720	1.750
2020/01/31 22:55:11.6	189.150	0.180	-0.670	1.790
2020/01/31 22:55:11.7	189.140	0.150	-0.620	1.830
2020/01/31 22:55:11.8	189.130	0.120	-0.570	1.870
2020/01/31 22:55:11.9	189.110	0.080	-0.510	1.900
2020/01/31 22:55:12.0	189.100	0.050	-0.450	1.930
2020/01/31 22:55:12.1	189.090	0.020	-0.390	1.960
2020/01/31 22:55:12.2	189.080	-0.010	-0.340	1.990
2020/01/31 22:55:12.3	189.080	-0.030	-0.280	2.010
2020/01/31 22:55:12.4	189.070	-0.050	-0.220	2.020
2020/01/31 22:55:12.5	189.070	-0.070	-0.160	2.040
2020/01/31 22:55:12.6	189.060	-0.090	-0.110	2.050
2020/01/31 22:55:12.7	189.060	-0.110	-0.060	2.050
2020/01/31 22:55:12.8	189.060	-0.120	-0.010	2.050
2020/01/31 22:55:12.9	189.060	-0.130	0.030	2.050
2020/01/31 22:55:13.0	189.060	-0.130	0.070	2.040
2020/01/31 22:55:13.1	189.070	-0.130	0.110	2.030
2020/01/31 22:55:13.2	189.080	-0.130	0.150	2.010
2020/01/31 22:55:13.3	189.090	-0.130	0.180	1.990
2020/01/31 22:55:13.4	189.090	-0.120	0.200	1.970
2020/01/31 22:55:13.5	189.100	-0.110	0.220	1.940
2020/01/31 22:55:13.6	189.110	-0.100	0.240	1.920
2020/01/31 22:55:13.7	189.130	-0.080	0.250	1.890
2020/01/31 22:55:13.8	189.140	-0.070	0.250	1.860
2020/01/31 22:55:13.9	189.150	-0.050	0.250	1.830
2020/01/31 22:55:14.0	189.160	-0.030	0.250	1.800
2020/01/31 22:55:14.1	189.190	-0.010	0.240	1.760
2020/01/31 22:55:14.2	189.210	0.010	0.230	1.730
2020/01/31 22:55:14.3	189.220	0.030	0.210	1.700
2020/01/31 22:55:14.4	189.240	0.050	0.190	1.670
2020/01/31 22:55:14.5	189.250	0.070	0.160	1.630
2020/01/31 22:55:14.6	189.270	0.090	0.130	1.600
2020/01/31 22:55:14.7	189.280	0.110	0.100	1.560
2020/01/31 22:55:14.8	189.300	0.140	0.060	1.530
2020/01/31 22:55:14.9	189.320	0.160	0.020	1.490
2020/01/31 22:55:15.0	189.330	0.180	-0.030	1.460
2020/01/31 22:55:15.1	189.330	0.190	-0.070	1.420
2020/01/31 22:55:15.2	189.340	0.210	-0.120	1.380
2020/01/31 22:55:15.3	189.360	0.230	-0.170	1.340
2020/01/31 22:55:15.4	189.380	0.240	-0.220	1.300
2020/01/31 22:55:15.5	189.400	0.260	-0.270	1.270
2020/01/31 22:55:15.6	189.420	0.270	-0.320	1.230
2020/01/31 22:55:15.7	189.440	0.280	-0.370	1.190
2020/01/31 22:55:15.8	189.450	0.280	-0.410	1.150
2020/01/31 22:55:15.9	189.470	0.290	-0.460	1.120
2020/01/31 22:55:16.0	189.490	0.300	-0.510	1.080
2020/01/31 22:55:16.1	189.490	0.300	-0.550	1.050
2020/01/31 22:55:16.2	189.500	0.300	-0.590	1.020
2020/01/31 22:55:16.3	189.520	0.300	-0.630	0.990
2020/01/31 22:55:16.4	189.530	0.300	-0.660	0.960
2020/01/31 22:55:16.5	189.540	0.290	-0.700	0.930
2020/01/31 22:55:16.6	189.550	0.290	-0.730	0.910
2020/01/31 22:55:16.7	189.560	0.280	-0.760	0.890
2020/01/31 22:55:16.8	189.570	0.280	-0.780	0.880
2020/01/31 22:55:16.9	189.570	0.270	-0.800	0.870
2020/01/31 22:55:17.0	189.580	0.260	-0.820	0.860
2020/01/31 22:55:17.1	189.580	0.240	-0.840	0.860
2020/01/31 22:55:17.2	189.580	0.230	-0.860	0.870
2020/01/31 22:55:17.3	189.580	0.220	-0.870	0.870
2020/01/31 22:55:17.4	189.570	0.200	-0.880	0.890
2020/01/31 22:55:17.5	189.570	0.190	-0.880	0.900
2020/01/31 22:55:17.6	189.560	0.170	-0.890	0.930
2020/01/31 22:55:17.7	189.550	0.160	-0.890	0.950
2020/01/31 22:55:17.8	189.540	0.140	-0.890	0.980
2020/01/31 22:55:17.9	189.530	0.120	-0.890	1.010
2020/01/31 22:55:18.0	189.510	0.100	-0.890	1.040
2020/01/31 22:55:18.1	189.490	0.090	-0.880	1.080
2020/01/31 22:55:18.2	189.470	0.070	-0.870	1.110
2020/01/31 22:55:18.3	189.450	0.050	-0.870	1.150
2020/01/31 22:55:18.4	189.440	0.030	-0.860	1.180
2020/01/31 22:55:18.5	189.420	0.010	-0.850	1.220
2020/01/31 22:55:18.6	189.400	-0.000	-0.840	1.260
2020/01/31 22:55:18.7	189.380	-0.020	-0.830	1.290
2020/01/31 22:55:18.8	189.360	-0.040	-0.810	1.330
2020/01/31 22:55:18.9	189.330	-0.060	-0.800	1.360
2020/01/31 22:55:19.0	189.310	-0.080	-0.780	1.390
2020/01/31 22:55:19.1	189.290	-0.090	-0.770	1.430
2020/01/31 22:55:19.2	189.260	-0.110	-0.750	1.460
2020/01/31 22:55:19.3	189.240	-0.120	-0.730	1.490
2020/01/31 22:55:19.4	189.220	-0.140	-0.710	1.520
2020/01/31 22:55:19.5	189.190	-0.160	-0.680	1.550
2020/01/31 22:55:19.6	189.170	-0.170	-0.650	1.580
2020/01/31 22:55:19.7	189.150	-0.190	-0.620	1.610
2020/01/31 22:55:19.8	189.130	-0.200	-0.590	1.630
2020/01/31 22:55:19.9	189.110	-0.210	-0.560	1.660
2020/01/31 22:55:20.0	189.090	-0.230	-0.530	1.690
2020/01/31 22:55:20.1	189.080	-0.240	-0.490	1.710
2020/01/31 22:55:20.2	189.060	-0.250	-0.450	1.740
2020/01/31 22:55:20.3	189.050	-0.260	-0.410	1.760
2020/01/31 22:55:20.4	189.030	-0.280	-0.370	1.780
2020/01/31 22:55:20.5	189.020	-0.290	-0.330	1.800
2020/01/31 22:55:20.6	189.010	-0.300	-0.290	1.820
2020/01/31 22:55:20.7	189.010	-0.310	-0.240	1.840
2020/01/31 22:55:20.8	189.000	-0.320	-0.200	1.850
2020/01/31 22:55:20.9	189.000	-0.320	-0.150	1.860
2020/01/31 22:55:21.0	189.000	-0.330	-0.110	1.870
2020/01/31 22:55:21.1	189.020	-0.340	-0.070	1.870
2020/01/31 22:55:21.2	189.030	-0.350	-0.020	1.860
2020/01/31 22:55:21.3	189.040	-0.350	0.020	1.850
2020/01/31 22:55:21.4	189.060	-0.360	0.070	1.840
2020/01/31 22:55:21.5	189.080	-0.360	0.120	1.820
2020/01/31 22:55:21.6	189.110	-0.370	0.160	1.790
2020/01/31 22:55:21.7	189.140	-0.370	0.210	1.760
2020/01/31 22:55:21.8	189.170	-0.380	0.250	1.730
2020/01/31 22:55:21.9	189.200	-0.380	0.290	1.700
2020/01/31 22:55:22.0	189.230	-0.390	0.330	1.670
2020/01/31 22:55:22.1	189.280	-0.390	0.370	1.630
2020/01/31 22:55:22.2	189.320	-0.400	0.410	1.600
2020/01/31 22:55:22.3	189.350	-0.400	0.440	1.560
2020/01/31 22:55:22.4	189.390	-0.400	0.470	1.530
2020/01/31 22:55:22.5	189.430	-0.410	0.490	1.490
2020/01/31 22:55:22.6	189.470	-0.410	0.510	1.460
2020/01/31 22:55:22.7	189.500	-0.410	0.520	1.430
2020/01/31 22:55:22.8	189.540	-0.420	0.530	1.410
2020/01/31 22:55:22.9	189.570	-0.420	0.540	1.390
2020/01/31 22:55:23.0	189.600	-0.420	0.530	1.370
2020/01/31 22:55:23.1	189.620	-0.420	0.530	1.360
2020/01/31 22:55:23.2	189.640	-0.420	0.520	1.350
2020/01/31 22:55:23.3	189.660	-0.420	0.500	1.350
2020/01/31 22:55:23.4	189.670	-0.410	0.480	1.350
2020/01/31 22:55:23.5	189.680	-0.410	0.450	1.350
2020/01/31 22:55:23.6	189.690	-0.400	0.420	1.360
2020/01/31 22:55:23.7	189.690	-0.390	0.380	1.380
2020/01/31 22:55:23.8	189.680	-0.380	0.340	1.400
2020/01/31 22:55:23.9	189.680	-0.370	0.290	1.420
2020/01/31 22:55:24.0	189.670	-0.360	0.250	1.440
2020/01/31 22:55:24.1	189.660	-0.340	0.200	1.470
2020/01/31 22:55:24.2	189.650	-0.330	0.140	1.490
2020/01/31 22:55:24.3	189.640	-0.310	0.090	1.510
2020/01/31 22:55:24.4	189.630	-0.290	0.040	1.540
2020/01/31 22:55:24.5	189.620	-0.270	-0.010	1.560
2020/01/31 22:55:24.6	189.620	-0.250	-0.060	1.570
2020/01/31 22:55:24.7	189.610	-0.230	-0.110	1.590
2020/01/31 22:55:24.8	189.600	-0.200	-0.150	1.600
2020/01/31 22:55:24.9	189.600	-0.180	-0.190	1.610
2020/01/31 22:55:25.0	189.600	-0.150	-0.230	1.620
2020/01/31 22:55:25.1	189.580	-0.120	-0.260	1.620
2020/01/31 22:55:25.2	189.580	-0.090	-0.290	1.620
2020/01/31 22:55:25.3	189.590	-0.060	-0.310	1.610
2020/01/31 22:55:25.4	189.590	-0.040	-0.330	1.610
2020/01/31 22:55:25.5	189.600	-0.010	-0.340	1.600
2020/01/31 22:55:25.6	189.610	0.020	-0.350	1.590
2020/01/31 22:55:25.7	189.620	0.060	-0.350	1.570
2020/01/31 22:55:25.8	189.630	0.090	-0.350	1.550
2020/01/31 22:55:25.9	189.650	0.120	-0.340	1.530
2020/01/31 22:55:26.0	189.660	0.140	-0.330	1.510
2020/01/31 22:55:26.1	189.670	0.170	-0.320	1.490
2020/01/31 22:55:26.2	189.680	0.200	-0.310	1.460
2020/01/31 22:55:26.3	189.700	0.230	-0.290	1.430
2020/01/31 22:55:26.4	189.710	0.260	-0.280	1.410
2020/01/31 22:55:26.5	189.720	0.290	-0.260	1.380
2020/01/31 22:55:26.6	189.730	0.310	-0.250	1.340
2020/01/31 22:55:26.7	189.740	0.340	-0.240	1.310
2020/01/31 22:55:26.8	189.740	0.360	-0.230	1.280
2020/01/31 22:55:26.9	189.750	0.390	-0.230	1.250
2020/01/31 22:55:27.0	189.750	0.410	-0.230	1.210
2020/01/31 22:55:27.1	189.750	0.430	-0.230	1.180
2020/01/31 22:55:27.2	189.750	0.450	-0.240	1.150
2020/01/31 22:55:27.3	189.750	0.470	-0.250	1.120
2020/01/31 22:55:27.4	189.740	0.480	-0.260	1.090
2020/01/31 22:55:27.5	189.730	0.500	-0.280	1.070
2020/01/31 22:55:27.6	189.720	0.510	-0.300	1.040
2020/01/31 22:55:27.7	189.700	0.520	-0.330	1.030
2020/01/31 22:55:27.8	189.690	0.530	-0.360	1.010
2020/01/31 22:55:27.9	189.670	0.540	-0.390	1.010
2020/01/31 22:55:28.0	189.640	0.540	-0.430	1.000
2020/01/31 22:55:28.1	189.620	0.540	-0.470	1.010
2020/01/31 22:55:28.2	189.600	0.540	-0.510	1.020
2020/01/31 22:55:28.3	189.570	0.530	-0.550	1.030
2020/01/31 22:55:28.4	189.540	0.530	-0.590	1.050
2020/01/31 22:55:28.5	189.510	0.520	-0.630	1.080
2020/01/31 22:55:28.6	189.480	0.500	-0.670	1.110
2020/01/31 22:55:28.7	189.450	0.490	-0.700	1.140
2020/01/31 22:55:28.8	189.420	0.470	-0.740	1.180
2020/01/31 22:55:28.9	189.390	0.450	-0.770	1.230
2020/01/31 22:55:29.0	189.360	0.420	-0.800	1.280
2020/01/31 22:55:29.1	189.310	0.400	-0.830	1.330
2020/01/31 22:55:29.2	189.280	0.370	-0.850	1.390
2020/01/31 22:55:29.3	189.260	0.340	-0.860	1.440
2020/01/31 22:55:29.4	189.230	0.300	-0.880	1.490
2020/01/31 22:55:29.5	189.200	0.270	-0.880	1.550
2020/01/31 22:55:29.6	189.180	0.230	-0.880	1.600
2020/01/31 22:55:29.7	189.150	0.190	-0.880	1.650
2020/01/31 22:55:29.8	189.130	0.160	-0.870	1.700
2020/01/31 22:55:29.9	189.110	0.110	-0.850	1.740
2020/01/31 22:55:30.0	189.100	0.070	-0.820	1.790
2020/01/31 22:55:30.1	189.100	0.030	-0.790	1.830
2020/01/31 22:55:30.2	189.090	-0.010	-0.760	1.870
2020/01/31 22:55:30.3	189.080	-0.050	-0.710	1.900
2020/01/31 22:55:30.4	189.070	-0.090	-0.660	1.940
2020/01/31 22:55:30.5	189.060	-0.130	-0.610	1.970
2020/01/31 22:55:30.6	189.060	-0.170	-0.550	1.990
2020/01/31 22:55:30.7	189.060	-0.210	-0.490	2.020
2020/01/31 22:55:30.8	189.060	-0.250	-0.420	2.040
2020/01/31 22:55:30.9	189.060	-0.280	-0.350	2.050
2020/01/31 22:55:31.0	189.070	-0.310	-0.280	2.070
2020/01/31 22:55:31.1	189.090	-0.340	-0.210	2.080
2020/01/31 22:55:31.2	189.090	-0.370	-0.140	2.090
2020/01/31 22:55:31.3	189.100	-0.390	-0.070	2.090
2020/01/31 22:55:31.4	189.110	-0.410	0.000	2.100
2020/01/31 22:55:31.5	189.130	-0.420	0.070	2.100
2020/01/31 22:55:31.6	189.140	-0.430	0.140	2.090
2020/01/31 22:55:31.7	189.160	-0.440	0.200	2.090
2020/01/31 22:55:31.8	189.170	-0.440	0.250	2.080
2020/01/31 22:55:31.9	189.190	-0.440	0.310	2.070
2020/01/31 22:55:32.0	189.210	-0.440	0.350	2.050
2020/01/31 22:55:32.1	189.240	-0.430	0.390	2.040
2020/01/31 22:55:32.2	189.260	-0.410	0.430	2.020
2020/01/31 22:55:32.3	189.280	-0.390	0.450	2.000
2020/01/31 22:55:32.4	189.290	-0.370	0.470	1.970
2020/01/31 22:55:32.5	189.310	-0.350	0.490	1.950
2020/01/31 22:55:32.6	189.330	-0.320	0.490	1.920
2020/01/31 22:55:32.7	189.340	-0.290	0.490	1.890
2020/01/31 22:55:32.8	189.360	-0.250	0.490	1.860
2020/01/31 22:55:32.9	189.370	-0.220	0.470	1.820
2020/01/31 22:55:33.0	189.390	-0.180	0.450	1.790
2020/01/31 22:55:33.1	189.390	-0.140	0.420	1.750
2020/01/31 22:55:33.2	189.400	-0.100	0.390	1.710
2020/01/31 22:55:33.3	189.410	-0.050	0.350	1.670
2020/01/31 22:55:33.4	189.420	-0.010	0.300	1.630
2020/01/31 22:55:33.5	189.430	0.030	0.260	1.600
2020/01/31 22:55:33.6	189.430	0.070	0.200	1.560
2020/01/31 22:55:33.7	189.430	0.110	0.150	1.520
2020/01/31 22:55:33.8	189.440	0.150	0.090	1.480
2020/01/31 22:55:33.9	189.440	0.180	0.030	1.450
2020/01/31 22:55:34.0	189.440	0.210	-0.030	1.420
2020/01/31 22:55:34.1	189.430	0.240	-0.090	1.380
2020/01/31 22:55:34.2	189.430	0.270	-0.150	1.350
2020/01/31 22:55:34.3	189.440	0.290	-0.210	1.330
2020/01/31 22:55:34.4	189.440	0.310	-0.270	1.310
2020/01/31 22:55:34.5	189.440	0.320	-0.320	1.290
2020/01/31 22:55:34.6	189.440	0.330	-0.380	1.270
2020/01/31 22:55:34.7	189.440	0.340	-0.430	1.260
2020/01/31 22:55:34.8	189.440	0.340	-0.480	1.250
2020/01/31 22:55:34.9	189.440	0.340	-0.520	1.250
2020/01/31 22:55:35.0	189.440	0.340	-0.560	1.240
2020/01/31 22:55:35.1	189.430	0.330	-0.600	1.240
2020/01/31 22:55:35.2	189.430	0.310	-0.630	1.240
2020/01/31 22:55:35.3	189.430	0.300	-0.650	1.240
2020/01/31 22:55:35.4	189.430	0.280	-0.670	1.250
2020/01/31 22:55:35.5	189.430	0.260	-0.690	1.250
2020/01/31 22:55:35.6	189.430	0.240	-0.700	1.260
2020/01/31 22:55:35.7	189.430	0.210	-0.710	1.270
2020/01/31 22:55:35.8	189.420	0.190	-0.710	1.270
2020/01/31 22:55:35.9	189.420	0.160	-0.710	1.280
2020/01/31 22:55:36.0	189.420	0.130	-0.710	1.290
2020/01/31 22:55:36.1	189.420	0.100	-0.700	1.300
2020/01/31 22:55:36.2	189.420	0.070	-0.690	1.300
2020/01/31 22:55:36.3	189.420	0.050	-0.670	1.310
2020/01/31 22:55:36.4	189.420	0.020	-0.660	1.320
2020/01/31 22:55:36.5	189.410	-0.000	-0.640	1.330
2020/01/31 22:55:36.6	189.410	-0.030	-0.630	1.340
2020/01/31 22:55:36.7	189.400	-0.050	-0.610	1.350
2020/01/31 22:55:36.8	189.400	-0.070	-0.600	1.360
2020/01/31 22:55:36.9	189.390	-0.080	-0.580	1.370
2020/01/31 22:55:37.0	189.380	-0.100	-0.570	1.390
2020/01/31 22:55:37.1	189.360	-0.110	-0.570	1.400
2020/01/31 22:55:37.2	189.350	-0.110	-0.560	1.420
2020/01/31 22:55:37.3	189.340	-0.120	-0.560	1.430
2020/01/31 22:55:37.4	189.330	-0.120	-0.550	1.440
2020/01/31 22:55:37.5	189.320	-0.120	-0.550	1.460
2020/01/31 22:55:37.6	189.310	-0.120	-0.560	1.470
2020/01/31 22:55:37.7	189.300	-0.110	-0.560	1.480
2020/01/31 22:55:37.8	189.290	-0.110	-0.570	1.500
2020/01/31 22:55:37.9	189.280	-0.100	-0.570	1.510
2020/01/31 22:55:38.0	189.280	-0.090	-0.580	1.520
2020/01/31 22:55:38.1	189.270	-0.080	-0.590	1.530
2020/01/31 22:55:38.2	189.260	-0.070	-0.600	1.540
2020/01/31 22:55:38.3	189.260	-0.060	-0.610	1.550
2020/01/31 22:55:38.4	189.260	-0.050	-0.620	1.560
2020/01/31 22:55:38.5	189.260	-0.040	-0.620	1.570
2020/01/31 22:55:38.6	189.260	-0.030	-0.630	1.580
2020/01/31 22:55:38.7	189.260	-0.020	-0.630	1.590
2020/01/31 22:55:38.8	189.270	-0.010	-0.630	1.600
2020/01/31 22:55:38.9	189.280	-0.010	-0.620	1.610
2020/01/31 22:55:39.0	189.290	-0.010	-0.620	1.620
2020/01/31 22:55:39.1	189.310	-0.010	-0.600	1.620
2020/01/31 22:55:39.2	189.320	-0.020	-0.590	1.630
2020/01/31 22:55:39.3	189.340	-0.030	-0.570	1.640
2020/01/31 22:55:39.4	189.360	-0.040	-0.550	1.640
2020/01/31 22:55:39.5	189.380	-0.050	-0.520	1.650
2020/01/31 22:55:39.6	189.400	-0.070	-0.490	1.650
2020/01/31 22:55:39.7	189.420	-0.090	-0.460	1.660
2020/01/31 22:55:39.8	189.440	-0.110	-0.420	1.660
2020/01/31 22:55:39.9	189.460	-0.130	-0.380	1.660
2020/01/31 22:55:40.0	189.490	-0.160	-0.350	1.670
2020/01/31 22:55:40.1	189.510	-0.180	-0.310	1.670
2020/01/31 22:55:40.2	189.530	-0.210	-0.270	1.670
2020/01/31 22:55:40.3	189.550	-0.240	-0.230	1.670
2020/01/31 22:55:40.4	189.570	-0.270	-0.190	1.680
2020/01/31 22:55:40.5	189.580	-0.300	-0.160	1.680
2020/01/31 22:55:40.6	189.590	-0.330	-0.130	1.690
2020/01/31 22:55:40.7	189.600	-0.360	-0.100	1.690
2020/01/31 22:55:40.8	189.610	-0.380	-0.080	1.700
2020/01/31 22:55:40.9	189.610	-0.410	-0.060	1.710
2020/01/31 22:55:41.0	189.600	-0.430	-0.050	1.730
2020/01/31 22:55:41.1	189.590	-0.450	-0.040	1.750
2020/01/31 22:55:41.2	189.570	-0.470	-0.040	1.770
2020/01/31 22:55:41.3	189.550	-0.480	-0.040	1.790
2020/01/31 22:55:41.4	189.520	-0.490	-0.050	1.820
2020/01/31 22:55:41.5	189.490	-0.490	-0.070	1.850
2020/01/31 22:55:41.6	189.450	-0.490	-0.090	1.880
2020/01/31 22:55:41.7	189.410	-0.480	-0.110	1.920
2020/01/31 22:55:41.8	189.360	-0.480	-0.140	1.950
2020/01/31 22:55:41.9	189.320	-0.460	-0.170	1.990
2020/01/31 22:55:42.0	189.270	-0.450	-0.200	2.030
2020/01/31 22:55:42.1	189.210	-0.420	-0.230	2.070
2020/01/31 22:55:42.2	189.160	-0.400	-0.260	2.100
2020/01/31 22:55:42.3	189.110	-0.370	-0.290	2.140
2020/01/31 22:55:42.4	189.070	-0.340	-0.320	2.170
2020/01/31 22:55:42.5	189.020	-0.310	-0.340	2.190
2020/01/31 22:55:42.6	188.980	-0.280	-0.360	2.220
2020/01/31 22:55:42.7	188.940	-0.240	-0.370	2.240
2020/01/31 22:55:42.8	188.910	-0.210	-0.380	2.250
2020/01/31 22:55:42.9	188.880	-0.170	-0.370	2.260
2020/01/31 22:55:43.0	188.860	-0.140	-0.360	2.260
2020/01/31 22:55:43.1	188.860	-0.100	-0.350	2.260
2020/01/31 22:55:43.2	188.850	-0.060	-0.320	2.250
2020/01/31 22:55:43.3	188.850	-0.030	-0.290	2.240
2020/01/31 22:55:43.4	188.850	0.000	-0.250	2.220
2020/01/31 22:55:43.5	188.860	0.030	-0.200	2.190
2020/01/31 22:55:43.6	188.870	0.060	-0.140	2.160
2020/01/31 22:55:43.7	188.890	0.090	-0.070	2.130
2020/01/31 22:55:43.8	188.920	0.110	-0.000	2.090
2020/01/31 22:55:43.9	188.950	0.130	0.070	2.050
2020/01/31 22:55:44.0	188.980	0.150	0.150	2.000
2020/01/31 22:55:44.1	189.030	0.160	0.240	1.950
2020/01/31 22:55:44.2	189.070	0.180	0.320	1.900
2020/01/31 22:55:44.3	189.120	0.180	0.410	1.840
2020/01/31 22:55:44.4	189.170	0.190	0.490	1.780
2020/01/31 22:55:44.5	189.220	0.190	0.570	1.720
2020/01/31 22:55:44.6	189.270	0.190	0.650	1.660
2020/01/31 22:55:44.7	189.320	0.180	0.720	1.600
2020/01/31 22:55:44.8	189.370	0.180	0.790	1.530
2020/01/31 22:55:44.9	189.420	0.170	0.850	1.470
2020/01/31 22:55:45.0	189.470	0.160	0.900	1.410
2020/01/31 22:55:45.1	189.520	0.150	0.950	1.340
2020/01/31 22:55:45.2	189.560	0.130	0.980	1.280
2020/01/31 22:55:45.3	189.610	0.120	1.000	1.230
2020/01/31 22:55:45.4	189.650	0.110	1.020	1.170
2020/01/31 22:55:45.5	189.700	0.090	1.020	1.130
2020/01/31 22:55:45.6	189.730	0.080	1.010	1.080
2020/01/31 22:55:45.7	189.770	0.070	0.990	1.040
2020/01/31 22:55:45.8	189.800	0.060	0.960	1.000
2020/01/31 22:55:45.9	189.830	0.050	0.920	0.970
2020/01/31 22:55:46.0	189.850	0.040	0.870	0.950
2020/01/31 22:55:46.1	189.860	0.030	0.810	0.930
2020/01/31 22:55:46.2	189.870	0.030	0.740	0.920
2020/01/31 22:55:46.3	189.880	0.020	0.660	0.910
2020/01/31 22:55:46.4	189.890	0.020	0.570	0.910
2020/01/31 22:55:46.5	189.890	0.030	0.470	0.920
2020/01/31 22:55:46.6	189.890	0.030	0.370	0.930
2020/01/31 22:55:46.7	189.880	0.040	0.260	0.950
2020/01/31 22:55:46.8	189.870	0.050	0.150	0.970
2020/01/31 22:55:46.9	189.860	0.060	0.040	0.990
2020/01/31 22:55:47.0	189.850	0.070	-0.080	1.010
2020/01/31 22:55:47.1	189.820	0.090	-0.200	1.040
2020/01/31 22:55:47.2	189.810	0.110	-0.310	1.070
2020/01/31 22:55:47.3	189.790	0.130	-0.430	1.100
2020/01/31 22:55:47.4	189.770	0.150	-0.540	1.140
2020/01/31 22:55:47.5	189.750	0.170	-0.650	1.170
2020/01/31 22:55:47.6	189.730	0.190	-0.760	1.210
2020/01/31 22:55:47.7	189.710	0.210	-0.860	1.240
2020/01/31 22:55:47.8	189.690	0.240	-0.950	1.270
2020/01/31 22:55:47.9	189.670	0.260	-1.040	1.310
2020/01/31 22:55:48.0	189.650	0.280	-1.110	1.340
2020/01/31 22:55:48.1	189.630	0.310	-1.190	1.370
2020/01/31 22:55:48.2	189.610	0.330	-1.250	1.400
2020/01/31 22:55:48.3	189.590	0.350	-1.310	1.430
2020/01/31 22:55:48.4	189.580	0.370	-1.350	1.460
2020/01/31 22:55:48.5	189.560	0.390	-1.390	1.480
2020/01/31 22:55:48.6	189.550	0.410	-1.410	1.500
2020/01/31 22:55:48.7	189.540	0.430	-1.430	1.520
2020/01/31 22:55:48.8	189.530	0.440	-1.440	1.540
2020/01/31 22:55:48.9	189.520	0.460	-1.440	1.550
2020/01/31 22:55:49.0	189.510	0.470	-1.440	1.560
2020/01/31 22:55:49.1	189.510	0.480	-1.430	1.570
2020/01/31 22:55:49.2	189.500	0.480	-1.410	1.570
2020/01/31 22:55:49.3	189.500	0.490	-1.380	1.570
2020/01/31 22:55:49.4	189.500	0.490	-1.350	1.570
2020/01/31 22:55:49.5	189.500	0.490	-1.310	1.570
2020/01/31 22:55:49.6	189.490	0.490	-1.270	1.570
2020/01/31 22:55:49.7	189.490	0.480	-1.230	1.560
2020/01/31 22:55:49.8	189.490	0.470	-1.180	1.550
2020/01/31 22:55:49.9	189.500	0.460	-1.130	1.540
2020/01/31 22:55:50.0	189.500	0.450	-1.080	1.540
2020/01/31 22:55:50.1	189.500	0.440	-1.020	1.530
2020/01/31 22:55:50.2	189.500	0.420	-0.970	1.520
2020/01/31 22:55:50.3	189.500	0.400	-0.910	1.510
2020/01/31 22:55:50.4	189.510	0.380	-0.850	1.500
2020/01/31 22:55:50.5	189.510	0.360	-0.800	1.490
2020/01/31 22:55:50.6	189.520	0.330	-0.740	1.480
2020/01/31 22:55:50.7	189.520	0.300	-0.690	1.470
2020/01/31 22:55:50.8	189.530	0.270	-0.630	1.460
2020/01/31 22:55:50.9	189.540	0.240	-0.580	1.450
2020/01/31 22:55:51.0	189.550	0.210	-0.520	1.440
2020/01/31 22:55:51.1	189.560	0.170	-0.480	1.430
2020/01/31 22:55:51.2	189.570	0.130	-0.420	1.430
2020/01/31 22:55:51.3	189.580	0.100	-0.370	1.420
2020/01/31 22:55:51.4	189.590	0.060	-0.320	1.410
2020/01/31 22:55:51.5	189.610	0.020	-0.270	1.410
2020/01/31 22:55:51.6	189.620	-0.020	-0.220	1.400
2020/01/31 22:55:51.7	189.640	-0.060	-0.180	1.400
2020/01/31 22:55:51.8	189.650	-0.110	-0.130	1.400
2020/01/31 22:55:51.9	189.670	-0.150	-0.090	1.390
2020/01/31 22:55:52.0	189.690	-0.190	-0.040	1.390
2020/01/31 22:55:52.1	189.710	-0.230	-0.000	1.380
2020/01/31 22:55:52.2	189.730	-0.260	0.040	1.380
2020/01/31 22:55:52.3	189.740	-0.300	0.080	1.370
2020/01/31 22:55:52.4	189.760	-0.330	0.110	1.370
2020/01/31 22:55:52.5	189.770	-0.370	0.140	1.370
2020/01/31 22:55:52.6	189.790	-0.400	0.170	1.370
2020/01/31 22:55:52.7	189.800	-0.420	0.190	1.370
2020/01/31 22:55:52.8	189.810	-0.450	0.210	1.370
2020/01/31 22:55:52.9	189.820	-0.470	0.220	1.370
2020/01/31 22:55:53.0	189.830	-0.480	0.230	1.380
2020/01/31 22:55:53.1	189.830	-0.500	0.230	1.390
2020/01/31 22:55:53.2	189.840	-0.510	0.220	1.400
2020/01/31 22:55:53.3	189.840	-0.510	0.210	1.410
2020/01/31 22:55:53.4	189.830	-0.510	0.200	1.420
2020/01/31 22:55:53.5	189.830	-0.510	0.180	1.440
2020/01/31 22:55:53.6	189.820	-0.500	0.150	1.460
2020/01/31 22:55:53.7	189.810	-0.490	0.120	1.480
2020/01/31 22:55:53.8	189.790	-0.480	0.080	1.500
2020/01/31 22:55:53.9	189.780	-0.460	0.040	1.530
2020/01/31 22:55:54.0	189.760	-0.440	-0.000	1.560
2020/01/31 22:55:54.1	189.730	-0.420	-0.050	1.590
2020/01/31 22:55:54.2	189.710	-0.390	-0.100	1.620
2020/01/31 22:55:54.3	189.680	-0.360	-0.150	1.660
2020/01/31 22:55:54.4	189.650	-0.330	-0.210	1.700
2020/01/31 22:55:54.5	189.620	-0.290	-0.260	1.740
2020/01/31 22:55:54.6	189.590	-0.250	-0.320	1.780
2020/01/31 22:55:54.7	189.550	-0.210	-0.370	1.810
2020/01/31 22:55:54.8	189.520	-0.170	-0.420	1.850
2020/01/31 22:55:54.9	189.480	-0.130	-0.470	1.890
2020/01/31 22:55:55.0	189.440	-0.090	-0.520	1.930
2020/01/31 22:55:55.1	189.410	-0.050	-0.570	1.970
2020/01/31 22:55:55.2	189.370	-0.010	-0.610	2.000
2020/01/31 22:55:55.3	189.330	0.030	-0.640	2.030
2020/01/31 22:55:55.4	189.290	0.070	-0.670	2.060
2020/01/31 22:55:55.5	189.250	0.110	-0.690	2.080
2020/01/31 22:55:55.6	189.210	0.140	-0.710	2.100
2020/01/31 22:55:55.7	189.180	0.180	-0.720	2.110
2020/01/31 22:55:55.8	189.140	0.210	-0.730	2.130
2020/01/31 22:55:55.9	189.110	0.240	-0.720	2.130
2020/01/31 22:55:56.0	189.080	0.260	-0.710	2.130
2020/01/31 22:55:56.1	189.060	0.280	-0.690	2.130
2020/01/31 22:55:56.2	189.040	0.300	-0.670	2.120
2020/01/31 22:55:56.3	189.020	0.320	-0.640	2.100
2020/01/31 22:55:56.4	189.000	0.330	-0.600	2.080
2020/01/31 22:55:56.5	188.990	0.330	-0.560	2.050
2020/01/31 22:55:56.6	188.990	0.330	-0.510	2.020
2020/01/31 22:55:56.7	188.990	0.330	-0.460	1.990
2020/01/31 22:55:56.8	188.990	0.320	-0.400	1.950
2020/01/31 22:55:56.9	189.000	0.310	-0.330	1.910
2020/01/31 22:55:57.0	189.010	0.290	-0.270	1.870
2020/01/31 22:55:57.1	189.020	0.270	-0.200	1.820
2020/01/31 22:55:57.2	189.040	0.250	-0.130	1.780
2020/01/31 22:55:57.3	189.070	0.220	-0.050	1.730
2020/01/31 22:55:57.4	189.100	0.190	0.020	1.680
2020/01/31 22:55:57.5	189.130	0.160	0.090	1.640
2020/01/31 22:55:57.6	189.170	0.130	0.160	1.590
2020/01/31 22:55:57.7	189.210	0.090	0.230	1.550
2020/01/31 22:55:57.8	189.250	0.050	0.300	1.500
2020/01/31 22:55:57.9	189.300	0.010	0.370	1.460
2020/01/31 22:55:58.0	189.350	-0.030	0.430	1.420
2020/01/31 22:55:58.1	189.410	-0.070	0.490	1.370
2020/01/31 22:55:58.2	189.460	-0.110	0.540	1.330
2020/01/31 22:55:58.3	189.510	-0.150	0.580	1.300
2020/01/31 22:55:58.4	189.570	-0.190	0.620	1.260
2020/01/31 22:55:58.5	189.620	-0.230	0.650	1.230
2020/01/31 22:55:58.6	189.670	-0.260	0.680	1.200
2020/01/31 22:55:58.7	189.720	-0.300	0.690	1.170
2020/01/31 22:55:58.8	189.770	-0.330	0.700	1.150
2020/01/31 22:55:58.9	189.820	-0.350	0.700	1.120
2020/01/31 22:55:59.0	189.870	-0.370	0.700	1.100
2020/01/31 22:55:59.1	189.910	-0.390	0.680	1.090
2020/01/31 22:55:59.2	189.940	-0.410	0.650	1.080
2020/01/31 22:55:59.3	189.980	-0.420	0.620	1.070
2020/01/31 22:55:59.4	190.010	-0.420	0.580	1.060
2020/01/31 22:55:59.5	190.040	-0.420	0.530	1.050
2020/01/31 22:55:59.6	190.060	-0.420	0.470	1.050
2020/01/31 22:55:59.7	190.080	-0.410	0.410	1.050
2020/01/31 22:55:59.8	190.090	-0.400	0.340	1.050
2020/01/31 22:55:59.9	190.100	-0.380	0.260	1.060
2020/01/31 22:56:00.0	190.110	-0.360	0.180	1.060
2020/01/31 22:56:00.1	190.120	-0.330	0.090	1.070
2020/01/31 22:56:00.2	190.110	-0.300	0.000	1.080
2020/01/31 22:56:00.3	190.110	-0.270	-0.090	1.090
2020/01/31 22:56:00.4	190.100	-0.240	-0.180	1.100
2020/01/31 22:56:00.5	190.090	-0.210	-0.270	1.110
2020/01/31 22:56:00.6	190.070	-0.170	-0.360	1.130
2020/01/31 22:56:00.7	190.050	-0.130	-0.450	1.150
2020/01/31 22:56:00.8	190.030	-0.100	-0.540	1.170
2020/01/31 22:56:00.9	190.010	-0.060	-0.620	1.190
2020/01/31 22:56:01.0	189.990	-0.020	-0.700	1.210
2020/01/31 22:56:01.1	189.950	0.010	-0.770	1.240
2020/01/31 22:56:01.2	189.920	0.050	-0.840	1.270
2020/01/31 22:56:01.3	189.890	0.080	-0.900	1.300
2020/01/31 22:56:01.4	189.860	0.110	-0.960	1.330
2020/01/31 22:56:01.5	189.830	0.140	-1.010	1.370
2020/01/31 22:56:01.6	189.800	0.170	-1.050	1.400
2020/01/31 22:56:01.7	189.770	0.190	-1.080	1.440
2020/01/31 22:56:01.8	189.730	0.210	-1.110	1.480
2020/01/31 22:56:01.9	189.700	0.230	-1.130	1.520
2020/01/31 22:56:02.0	189.670	0.240	-1.150	1.560
2020/01/31 22:56:02.1	189.630	0.250	-1.160	1.600
2020/01/31 22:56:02.2	189.600	0.260	-1.160	1.640
2020/01/31 22:56:02.3	189.570	0.270	-1.150	1.670
2020/01/31 22:56:02.4	189.540	0.270	-1.140	1.710
2020/01/31 22:56:02.5	189.520	0.270	-1.120	1.740
2020/01/31 22:56:02.6	189.490	0.270	-1.100	1.780
2020/01/31 22:56:02.7	189.460	0.270	-1.070	1.810
2020/01/31 22:56:02.8	189.440	0.260	-1.040	1.830
2020/01/31 22:56:02.9	189.420	0.250	-1.000	1.860
2020/01/31 22:56:03.0	189.390	0.250	-0.960	1.880
2020/01/31 22:56:03.1	189.380	0.230	-0.920	1.900
2020/01/31 22:56:03.2	189.360	0.220	-0.870	1.910
2020/01/31 22:56:03.3	189.340	0.210	-0.830	1.930
2020/01/31 22:56:03.4	189.330	0.190	-0.780	1.940
2020/01/31 22:56:03.5	189.310	0.180	-0.730	1.940
2020/01/31 22:56:03.6	189.300	0.160	-0.680	1.950
2020/01/31 22:56:03.7	189.290	0.150	-0.640	1.950
2020/01/31 22:56:03.8	189.280	0.130	-0.590	1.950
2020/01/31 22:56:03.9	189.270	0.120	-0.540	1.950
2020/01/31 22:56:04.0	189.270	0.100	-0.490	1.950
2020/01/31 22:56:04.1	189.250	0.080	-0.450	1.960
2020/01/31 22:56:04.2	189.250	0.070	-0.410	1.950
2020/01/31 22:56:04.3	189.250	0.050	-0.360	1.950
2020/01/31 22:56:04.4	189.240	0.040	-0.320	1.940
2020/01/31 22:56:04.5	189.240	0.030	-0.280	1.940
2020/01/31 22:56:04.6	189.240	0.010	-0.240	1.940
2020/01/31 22:56:04.7	189.250	0.000	-0.200	1.930
2020/01/31 22:56:04.8	189.250	-0.010	-0.170	1.930
2020/01/31 22:56:04.9	189.250	-0.020	-0.130	1.920
2020/01/31 22:56:05.0	189.250	-0.030	-0.100	1.920
2020/01/31 22:56:05.1	189.270	-0.040	-0.070	1.910
2020/01/31 22:56:05.2	189.280	-0.040	-0.040	1.900
2020/01/31 22:56:05.3	189.280	-0.050	-0.010	1.900
2020/01/31 22:56:05.4	189.290	-0.060	0.020	1.890
2020/01/31 22:56:05.5	189.300	-0.060	0.050	1.880
2020/01/31 22:56:05.6	189.310	-0.070	0.080	1.870
2020/01/31 22:56:05.7	189.330	-0.070	0.110	1.860
2020/01/31 22:56:05.8	189.340	-0.080	0.130	1.850
2020/01/31 22:56:05.9	189.360	-0.080	0.160	1.840
2020/01/31 22:56:06.0	189.390	-0.090	0.190	1.820
2020/01/31 22:56:06.1	189.420	-0.090	0.220	1.810
2020/01/31 22:56:06.2	189.440	-0.100	0.250	1.790
2020/01/31 22:56:06.3	189.470	-0.100	0.270	1.770
2020/01/31 22:56:06.4	189.500	-0.100	0.300	1.740
2020/01/31 22:56:06.5	189.530	-0.110	0.330	1.710
2020/01/31 22:56:06.6	189.570	-0.110	0.360	1.680
2020/01/31 22:56:06.7	189.610	-0.110	0.380	1.640
2020/01/31 22:56:06.8	189.640	-0.120	0.410	1.600
2020/01/31 22:56:06.9	189.680	-0.120	0.430	1.560
2020/01/31 22:56:07.0	189.720	-0.120	0.460	1.520
2020/01/31 22:56:07.1	189.770	-0.120	0.480	1.470
2020/01/31 22:56:07.2	189.810	-0.120	0.490	1.420
2020/01/31 22:56:07.3	189.850	-0.120	0.510	1.370
2020/01/31 22:56:07.4	189.890	-0.120	0.520	1.320
2020/01/31 22:56:07.5	189.930	-0.120	0.520	1.270
2020/01/31 22:56:07.6	189.960	-0.110	0.520	1.230
2020/01/31 22:56:07.7	189.990	-0.110	0.510	1.180
2020/01/31 22:56:07.8	190.020	-0.100	0.500	1.130
2020/01/31 22:56:07.9	190.050	-0.090	0.480	1.090
2020/01/31 22:56:08.0	190.080	-0.080	0.450	1.050
2020/01/31 22:56:08.1	190.090	-0.070	0.420	1.010
2020/01/31 22:56:08.2	190.110	-0.060	0.390	0.970
2020/01/31 22:56:08.3	190.130	-0.040	0.340	0.940
2020/01/31 22:56:08.4	190.140	-0.030	0.290	0.920
2020/01/31 22:56:08.5	190.150	-0.010	0.240	0.900
2020/01/31 22:56:08.6	190.150	0.010	0.180	0.880
2020/01/31 22:56:08.7	190.150	0.030	0.120	0.870
2020/01/31 22:56:08.8	190.150	0.050	0.060	0.860
2020/01/31 22:56:08.9	190.140	0.070	-0.010	0.860
2020/01/31 22:56:09.0	190.130	0.090	-0.080	0.860
2020/01/31 22:56:09.1	190.130	0.110	-0.150	0.870
2020/01/31 22:56:09.2	190.110	0.140	-0.220	0.880
2020/01/31 22:56:09.3	190.090	0.160	-0.290	0.890
2020/01/31 22:56:09.4	190.070	0.180	-0.360	0.900
2020/01/31 22:56:09.5	190.050	0.210	-0.420	0.920
2020/01/31 22:56:09.6	190.030	0.230	-0.490	0.940
2020/01/31 22:56:09.7	190.010	0.260	-0.550	0.950
2020/01/31 22:56:09.8	189.980	0.280	-0.600	0.970
2020/01/31 22:56:09.9	189.960	0.300	-0.660	0.990
2020/01/31 22:56:10.0	189.930	0.320	-0.700	1.020
2020/01/31 22:56:10.1	189.910	0.350	-0.750	1.040
2020/01/31 22:56:10.2	189.880	0.360	-0.780	1.060
2020/01/31 22:56:10.3	189.850	0.380	-0.820	1.090
2020/01/31 22:56:10.4	189.830	0.400	-0.840	1.110
2020/01/31 22:56:10.5	189.800	0.410	-0.860	1.130
2020/01/31 22:56:10.6	189.770	0.420	-0.880	1.160
2020/01/31 22:56:10.7	189.750	0.430	-0.890	1.180
2020/01/31 22:56:10.8	189.720	0.440	-0.900	1.200
2020/01/31 22:56:10.9	189.690	0.440	-0.900	1.230
2020/01/31 22:56:11.0	189.670	0.450	-0.900	1.250
2020/01/31 22:56:11.1	189.630	0.450	-0.900	1.280
2020/01/31 22:56:11.2	189.600	0.440	-0.890	1.310
2020/01/31 22:56:11.3	189.580	0.440	-0.880	1.330
2020/01/31 22:56:11.4	189.550	0.430	-0.860	1.360
2020/01/31 22:56:11.5	189.530	0.420	-0.850	1.390
2020/01/31 22:56:11.6	189.500	0.400	-0.830	1.410
2020/01/31 22:56:11.7	189.480	0.390	-0.810	1.440
2020/01/31 22:56:11.8	189.460	0.370	-0.790	1.470
2020/01/31 22:56:11.9	189.440	0.350	-0.770	1.500
2020/01/31 22:56:12.0	189.420	0.320	-0.740	1.530
2020/01/31 22:56:12.1	189.390	0.300	-0.720	1.560
2020/01/31 22:56:12.2	189.370	0.270	-0.700	1.590
2020/01/31 22:56:12.3	189.360	0.240	-0.670	1.630
2020/01/31 22:56:12.4	189.340	0.210	-0.650	1.660
2020/01/31 22:56:12.5	189.320	0.180	-0.620	1.700
2020/01/31 22:56:12.6	189.300	0.150	-0.600	1.730
2020/01/31 22:56:12.7	189.290	0.110	-0.580	1.770
2020/01/31 22:56:12.8	189.270	0.080	-0.550	1.810
2020/01/31 22:56:12.9	189.260	0.050	-0.530	1.840
2020/01/31 22:56:13.0	189.250	0.010	-0.510	1.880
2020/01/31 22:56:13.1	189.250	-0.020	-0.480	1.920
2020/01/31 22:56:13.2	189.240	-0.060	-0.460	1.960
2020/01/31 22:56:13.3	189.230	-0.090	-0.440	2.000
2020/01/31 22:56:13.4	189.220	-0.120	-0.420	2.040
2020/01/31 22:56:13.5	189.210	-0.160	-0.400	2.080
2020/01/31 22:56:13.6	189.200	-0.190	-0.380	2.120
2020/01/31 22:56:13.7	189.190	-0.220	-0.360	2.160
2020/01/31 22:56:13.8	189.180	-0.250	-0.340	2.190
2020/01/31 22:56:13.9	189.170	-0.270	-0.320	2.220
2020/01/31 22:56:14.0	189.160	-0.300	-0.300	2.250
2020/01/31 22:56:14.1	189.160	-0.320	-0.280	2.290
2020/01/31 22:56:14.2	189.160	-0.340	-0.260	2.310
2020/01/31 22:56:14.3	189.150	-0.360	-0.250	2.330
2020/01/31 22:56:14.4	189.140	-0.380	-0.230	2.350
2020/01/31 22:56:14.5	189.130	-0.390	-0.220	2.370
2020/01/31 22:56:14.6	189.120	-0.400	-0.200	2.380
2020/01/31 22:56:14.7	189.110	-0.410	-0.190	2.390
2020/01/31 22:56:14.8	189.100	-0.410	-0.190	2.400
2020/01/31 22:56:14.9	189.090	-0.420	-0.180	2.400
2020/01/31 22:56:15.0	189.080	-0.420	-0.170	2.400
2020/01/31 22:56:15.1	189.060	-0.410	-0.170	2.390
2020/01/31 22:56:15.2	189.060	-0.410	-0.160	2.390
2020/01/31 22:56:15.3	189.050	-0.400	-0.160	2.380
2020/01/31 22:56:15.4	189.040	-0.390	-0.150	2.360
2020/01/31 22:56:15.5	189.030	-0.380	-0.150	2.350
2020/01/31 22:56:15.6	189.030	-0.370	-0.150	2.330
2020/01/31 22:56:15.7	189.030	-0.360	-0.150	2.300
2020/01/31 22:56:15.8	189.020	-0.340	-0.150	2.280
2020/01/31 22:56:15.9	189.030	-0.330	-0.140	2.250
2020/01/31 22:56:16.0	189.030	-0.310	-0.140	2.220
2020/01/31 22:56:16.1	189.050	-0.300	-0.130	2.190
2020/01/31 22:56:16.2	189.060	-0.280	-0.130	2.160
2020/01/31 22:56:16.3	189.070	-0.260	-0.130	2.120
2020/01/31 22:56:16.4	189.080	-0.250	-0.120	2.090
2020/01/31 22:56:16.5	189.100	-0.230	-0.110	2.050
2020/01/31 22:56:16.6	189.120	-0.210	-0.110	2.010
2020/01/31 22:56:16.7	189.150	-0.200	-0.100	1.960
2020/01/31 22:56:16.8	189.170	-0.180	-0.090	1.920
2020/01/31 22:56:16.9	189.200	-0.170	-0.080	1.870
2020/01/31 22:56:17.0	189.240	-0.160	-0.060	1.810
2020/01/31 22:56:17.1	189.270	-0.150	-0.050	1.760
2020/01/31 22:56:17.2	189.310	-0.130	-0.040	1.710
2020/01/31 22:56:17.3	189.350	-0.120	-0.020	1.650
2020/01/31 22:56:17.4	189.390	-0.120	-0.010	1.590
2020/01/31 22:56:17.5	189.430	-0.110	0.010	1.530
2020/01/31 22:56:17.6	189.480	-0.100	0.020	1.470
2020/01/31 22:56:17.7	189.520	-0.100	0.030	1.410
2020/01/31 22:56:17.8	189.560	-0.090	0.050	1.360
2020/01/31 22:56:17.9	189.610	-0.090	0.060	1.300
2020/01/31 22:56:18.0	189.650	-0.080	0.070	1.240
2020/01/31 22:56:18.1	189.670	-0.080	0.080	1.180
2020/01/31 22:56:18.2	189.710	-0.070	0.090	1.130
2020/01/31 22:56:18.3	189.750	-0.070	0.090	1.090
2020/01/31 22:56:18.4	189.780	-0.070	0.090	1.040
2020/01/31 22:56:18.5	189.810	-0.060	0.090	1.000
2020/01/31 22:56:18.6	189.840	-0.060	0.090	0.960
2020/01/31 22:56:18.7	189.870	-0.050	0.080	0.930
2020/01/31 22:56:18.8	189.890	-0.050	0.070	0.900
2020/01/31 22:56:18.9	189.910	-0.040	0.050	0.870
2020/01/31 22:56:19.0	189.930	-0.030	0.040	0.860
2020/01/31 22:56:19.1	189.950	-0.020	0.010	0.840
2020/01/31 22:56:19.2	189.950	-0.000	-0.010	0.830
2020/01/31 22:56:19.3	189.960	0.010	-0.040	0.820
2020/01/31 22:56:19.4	189.960	0.030	-0.070	0.820
2020/01/31 22:56:19.5	189.960	0.050	-0.110	0.820
2020/01/31 22:56:19.6	189.960	0.070	-0.150	0.820
2020/01/31 22:56:19.7	189.950	0.090	-0.190	0.820
2020/01/31 22:56:19.8	189.940	0.110	-0.230	0.830
2020/01/31 22:56:19.9	189.930	0.140	-0.270	0.840
2020/01/31 22:56:20.0	189.910	0.160	-0.310	0.850
2020/01/31 22:56:20.1	189.900	0.190	-0.360	0.860
2020/01/31 22:56:20.2	189.880	0.210	-0.400	0.870
2020/01/31 22:56:20.3	189.860	0.240	-0.440	0.880
2020/01/31 22:56:20.4	189.840	0.270	-0.480	0.900
2020/01/31 22:56:20.5	189.820	0.290	-0.520	0.910
2020/01/31 22:56:20.6	189.800	0.310	-0.550	0.930
2020/01/31 22:56:20.7	189.780	0.340	-0.580	0.950
2020/01/31 22:56:20.8	189.770	0.350	-0.610	0.970
2020/01/31 22:56:20.9	189.750	0.370	-0.630	0.990
2020/01/31 22:56:21.0	189.730	0.380	-0.640	1.010
2020/01/31 22:56:21.1	189.720	0.390	-0.650	1.030
2020/01/31 22:56:21.2	189.710	0.400	-0.660	1.050
2020/01/31 22:56:21.3	189.700	0.400	-0.650	1.080
2020/01/31 22:56:21.4	189.700	0.400	-0.640	1.110
2020/01/31 22:56:21.5	189.690	0.390	-0.630	1.140
2020/01/31 22:56:21.6	189.690	0.380	-0.610	1.170
2020/01/31 22:56:21.7	189.690	0.370	-0.580	1.200
2020/01/31 22:56:21.8	189.700	0.350	-0.540	1.240
2020/01/31 22:56:21.9	189.700	0.320	-0.500	1.270
2020/01/31 22:56:22.0	189.710	0.300	-0.460	1.310
2020/01/31 22:56:22.1	189.730	0.270	-0.410	1.350
2020/01/31 22:56:22.2	189.740	0.230	-0.360	1.390
2020/01/31 22:56:22.3	189.750	0.200	-0.300	1.430
2020/01/31 22:56:22.4	189.770	0.160	-0.250	1.470
2020/01/31 22:56:22.5	189.780	0.120	-0.190	1.510
2020/01/31 22:56:22.6	189.790	0.070	-0.130	1.550
2020/01/31 22:56:22.7	189.810	0.030	-0.070	1.590
2020/01/31 22:56:22.8	189.820	-0.020	-0.010	1.620
2020/01/31 22:56:22.9	189.830	-0.060	0.050	1.660
2020/01/31 22:56:23.0	189.840	-0.100	0.100	1.700
2020/01/31 22:56:23.1	189.840	-0.150	0.140	1.740
2020/01/31 22:56:23.2	189.850	-0.190	0.190	1.780
2020/01/31 22:56:23.3	189.850	-0.230	0.230	1.810
2020/01/31 22:56:23.4	189.850	-0.260	0.270	1.850
2020/01/31 22:56:23.5	189.840	-0.290	0.300	1.880
2020/01/31 22:56:23.6	189.840	-0.320	0.320	1.920
2020/01/31 22:56:23.7	189.820	-0.350	0.340	1.960
2020/01/31 22:56:23.8	189.810	-0.370	0.340	1.990
2020/01/31 22:56:23.9	189.790	-0.380	0.340	2.030
2020/01/31 22:56:24.0	189.770	-0.390	0.340	2.070
2020/01/31 22:56:24.1	189.740	-0.400	0.330	2.110
2020/01/31 22:56:24.2	189.720	-0.400	0.310	2.140
2020/01/31 22:56:24.3	189.690	-0.390	0.280	2.180
2020/01/31 22:56:24.4	189.650	-0.380	0.240	2.220
2020/01/31 22:56:24.5	189.620	-0.370	0.200	2.250
2020/01/31 22:56:24.6	189.580	-0.350	0.150	2.290
2020/01/31 22:56:24.7	189.550	-0.320	0.090	2.320
2020/01/31 22:56:24.8	189.510	-0.290	0.030	2.360
2020/01/31 22:56:24.9	189.470	-0.260	-0.030	2.390
2020/01/31 22:56:25.0	189.430	-0.220	-0.100	2.420
2020/01/31 22:56:25.1	189.390	-0.180	-0.170	2.450
2020/01/31 22:56:25.2	189.350	-0.140	-0.240	2.480
2020/01/31 22:56:25.3	189.310	-0.100	-0.310	2.510
2020/01/31 22:56:25.4	189.270	-0.050	-0.380	2.530
2020/01/31 22:56:25.5	189.240	-0.010	-0.450	2.550
2020/01/31 22:56:25.6	189.200	0.040	-0.510	2.560
2020/01/31 22:56:25.7	189.170	0.080	-0.570	2.570
2020/01/31 22:56:25.8	189.140	0.130	-0.630	2.570
2020/01/31 22:56:25.9	189.110	0.170	-0.690	2.570
2020/01/31 22:56:26.0	189.090	0.210	-0.740	2.560
2020/01/31 22:56:26.1	189.080	0.250	-0.780	2.550
2020/01/31 22:56:26.2	189.060	0.290	-0.810	2.530
2020/01/31 22:56:26.3	189.050	0.320	-0.850	2.510
2020/01/31 22:56:26.4	189.030	0.350	-0.870	2.480
2020/01/31 22:56:26.5	189.020	0.380	-0.890	2.450
2020/01/31 22:56:26.6	189.010	0.400	-0.910	2.410
2020/01/31 22:56:26.7	189.010	0.420	-0.920	2.370
2020/01/31 22:56:26.8	189.000	0.430	-0.920	2.330
2020/01/31 22:56:26.9	189.000	0.440	-0.910	2.280
2020/01/31 22:56:27.0	189.010	0.450	-0.900	2.230
2020/01/31 22:56:27.1	189.020	0.450	-0.890	2.180
2020/01/31 22:56:27.2	189.030	0.450	-0.870	2.120
2020/01/31 22:56:27.3	189.040	0.440	-0.840	2.070
2020/01/31 22:56:27.4	189.050	0.430	-0.820	2.010
2020/01/31 22:56:27.5	189.060	0.410	-0.780	1.950
2020/01/31 22:56:27.6	189.080	0.390	-0.750	1.890
2020/01/31 22:56:27.7	189.090	0.370	-0.710	1.820
2020/01/31 22:56:27.8	189.110	0.350	-0.670	1.760
2020/01/31 22:56:27.9	189.130	0.320	-0.620	1.700
2020/01/31 22:56:28.0	189.150	0.290	-0.580	1.630
2020/01/31 22:56:28.1	189.190	0.260	-0.530	1.570
2020/01/31 22:56:28.2	189.210	0.230	-0.490	1.510
2020/01/31 22:56:28.3	189.240	0.190	-0.440	1.450
2020/01/31 22:56:28.4	189.260	0.160	-0.400	1.390
2020/01/31 22:56:28.5	189.290	0.120	-0.350	1.330
2020/01/31 22:56:28.6	189.320	0.090	-0.310	1.270
2020/01/31 22:56:28.7	189.350	0.050	-0.270	1.210
2020/01/31 22:56:28.8	189.370	0.020	-0.230	1.160
2020/01/31 22:56:28.9	189.400	-0.020	-0.190	1.110
2020/01/31 22:56:29.0	189.430	-0.050	-0.160	1.060
2020/01/31 22:56:29.1	189.450	-0.080	-0.130	1.010
2020/01/31 22:56:29.2	189.480	-0.120	-0.090	0.960
2020/01/31 22:56:29.3	189.510	-0.140	-0.070	0.920
2020/01/31 22:56:29.4	189.540	-0.170	-0.040	0.880
2020/01/31 22:56:29.5	189.570	-0.200	-0.020	0.850
2020/01/31 22:56:29.6	189.600	-0.220	0.000	0.810
2020/01/31 22:56:29.7	189.630	-0.250	0.020	0.780
2020/01/31 22:56:29.8	189.660	-0.270	0.040	0.760
2020/01/31 22:56:29.9	189.690	-0.280	0.050	0.730
2020/01/31 22:56:30.0	189.720	-0.300	0.060	0.710
2020/01/31 22:56:30.1	189.730	-0.320	0.070	0.700
2020/01/31 22:56:30.2	189.760	-0.330	0.070	0.680
2020/01/31 22:56:30.3	189.780	-0.340	0.070	0.670
2020/01/31 22:56:30.4	189.810	-0.350	0.070	0.670
2020/01/31 22:56:30.5	189.840	-0.350	0.060	0.660
2020/01/31 22:56:30.6	189.870	-0.360	0.060	0.660
2020/01/31 22:56:30.7	189.890	-0.360	0.040	0.670
2020/01/31 22:56:30.8	189.910	-0.360	0.030	0.680
2020/01/31 22:56:30.9	189.930	-0.360	0.010	0.690
2020/01/31 22:56:31.0	189.950	-0.360	-0.010	0.710
2020/01/31 22:56:31.1	189.950	-0.350	-0.030	0.730
2020/01/31 22:56:31.2	189.970	-0.350	-0.060	0.750
2020/01/31 22:56:31.3	189.980	-0.340	-0.080	0.780
2020/01/31 22:56:31.4	189.990	-0.330	-0.110	0.810
2020/01/31 22:56:31.5	190.000	-0.320	-0.140	0.840
2020/01/31 22:56:31.6	190.010	-0.310	-0.170	0.880
2020/01/31 22:56:31.7	190.010	-0.290	-0.210	0.910
2020/01/31 22:56:31.8	190.010	-0.280	-0.240	0.950
2020/01/31 22:56:31.9	190.020	-0.260	-0.270	0.990
2020/01/31 22:56:32.0	190.010	-0.240	-0.300	1.030
2020/01/31 22:56:32.1	190.000	-0.220	-0.330	1.080
2020/01/31 22:56:32.2	190.000	-0.200	-0.360	1.120
2020/01/31 22:56:32.3	189.990	-0.180	-0.390	1.160
2020/01/31 22:56:32.4	189.980	-0.160	-0.420	1.200
2020/01/31 22:56:32.5	189.970	-0.140	-0.440	1.240
2020/01/31 22:56:32.6	189.960	-0.120	-0.460	1.280
2020/01/31 22:56:32.7	189.950	-0.090	-0.470	1.320
2020/01/31 22:56:32.8	189.940	-0.070	-0.490	1.360
2020/01/31 22:56:32.9	189.920	-0.050	-0.500	1.400
2020/01/31 22:56:33.0	189.910	-0.030	-0.500	1.440
2020/01/31 22:56:33.1	189.890	-0.010	-0.500	1.480
2020/01/31 22:56:33.2	189.880	0.010	-0.500	1.520
2020/01/31 22:56:33.3	189.850	0.030	-0.490	1.560
2020/01/31 22:56:33.4	189.830	0.050	-0.480	1.590
2020/01/31 22:56:33.5	189.810	0.070	-0.470	1.630
2020/01/31 22:56:33.6	189.780	0.090	-0.460	1.660
2020/01/31 22:56:33.7	189.760	0.100	-0.440	1.690
2020/01/31 22:56:33.8	189.730	0.120	-0.420	1.730
2020/01/31 22:56:33.9	189.700	0.130	-0.390	1.760
2020/01/31 22:56:34.0	189.670	0.140	-0.370	1.780
2020/01/31 22:56:34.1	189.640	0.160	-0.340	1.810
2020/01/31 22:56:34.2	189.610	0.170	-0.320	1.840
2020/01/31 22:56:34.3	189.570	0.170	-0.290	1.860
2020/01/31 22:56:34.4	189.540	0.180	-0.260	1.880
2020/01/31 22:56:34.5	189.510	0.190	-0.220	1.900
2020/01/31 22:56:34.6	189.470	0.190	-0.190	1.910
2020/01/31 22:56:34.7	189.440	0.190	-0.150	1.920
2020/01/31 22:56:34.8	189.410	0.200	-0.120	1.920
2020/01/31 22:56:34.9	189.390	0.190	-0.080	1.930
2020/01/31 22:56:35.0	189.360	0.190	-0.050	1.930
2020/01/31 22:56:35.1	189.340	0.190	-0.010	1.930
2020/01/31 22:56:35.2	189.320	0.180	0.020	1.920
2020/01/31 22:56:35.3	189.310	0.170	0.060	1.910
2020/01/31 22:56:35.4	189.290	0.160	0.090	1.900
2020/01/31 22:56:35.5	189.280	0.150	0.130	1.890
2020/01/31 22:56:35.6	189.270	0.140	0.160	1.870
2020/01/31 22:56:35.7	189.260	0.130	0.190	1.860
2020/01/31 22:56:35.8	189.260	0.120	0.220	1.840
2020/01/31 22:56:35.9	189.260	0.100	0.250	1.820
2020/01/31 22:56:36.0	189.270	0.090	0.270	1.800
2020/01/31 22:56:36.1	189.280	0.070	0.290	1.770
2020/01/31 22:56:36.2	189.290	0.060	0.310	1.750
2020/01/31 22:56:36.3	189.300	0.040	0.330	1.720
2020/01/31 22:56:36.4	189.320	0.020	0.340	1.700
2020/01/31 22:56:36.5	189.330	0.010	0.350	1.670
2020/01/31 22:56:36.6	189.350	-0.010	0.360	1.650
2020/01/31 22:56:36.7	189.370	-0.020	0.370	1.620
2020/01/31 22:56:36.8	189.390	-0.030	0.370	1.590
2020/01/31 22:56:36.9	189.420	-0.050	0.360	1.570
2020/01/31 22:56:37.0	189.440	-0.060	0.360	1.540
2020/01/31 22:56:37.1	189.450	-0.070	0.340	1.520
2020/01/31 22:56:37.2	189.480	-0.080	0.330	1.500
2020/01/31 22:56:37.3	189.500	-0.080	0.310	1.470
2020/01/31 22:56:37.4	189.530	-0.090	0.280	1.460
2020/01/31 22:56:37.5	189.550	-0.090	0.250	1.440
2020/01/31 22:56:37.6	189.570	-0.090	0.210	1.420
2020/01/31 22:56:37.7	189.590	-0.090	0.170	1.410
2020/01/31 22:56:37.8	189.610	-0.090	0.120	1.400
2020/01/31 22:56:37.9	189.620	-0.080	0.070	1.390
2020/01/31 22:56:38.0	189.630	-0.080	0.010	1.390
2020/01/31 22:56:38.1	189.640	-0.070	-0.050	1.380
2020/01/31 22:56:38.2	189.640	-0.050	-0.120	1.380
2020/01/31 22:56:38.3	189.640	-0.040	-0.200	1.390
2020/01/31 22:56:38.4	189.640	-0.020	-0.280	1.400
2020/01/31 22:56:38.5	189.630	-0.010	-0.360	1.420
2020/01/31 22:56:38.6	189.610	0.010	-0.440	1.440
2020/01/31 22:56:38.7	189.590	0.030	-0.530	1.460
2020/01/31 22:56:38.8	189.570	0.060	-0.620	1.490
2020/01/31 22:56:38.9	189.540	0.080	-0.720	1.520
2020/01/31 22:56:39.0	189.510	0.100	-0.810	1.560
2020/01/31 22:56:39.1	189.490	0.130	-0.900	1.590
2020/01/31 22:56:39.2	189.450	0.150	-0.990	1.630
2020/01/31 22:56:39.3	189.410	0.170	-1.070	1.680
2020/01/31 22:56:39.4	189.370	0.200	-1.150	1.720
2020/01/31 22:56:39.5	189.330	0.220	-1.230	1.770
2020/01/31 22:56:39.6	189.290	0.240	-1.300	1.810
2020/01/31 22:56:39.7	189.240	0.260	-1.370	1.860
2020/01/31 22:56:39.8	189.200	0.280	-1.420	1.910
2020/01/31 22:56:39.9	189.150	0.290	-1.470	1.950
2020/01/31 22:56:40.0	189.110	0.300	-1.510	2.000
2020/01/31 22:56:40.1	189.080	0.310	-1.550	2.050
2020/01/31 22:56:40.2	189.040	0.320	-1.570	2.090
2020/01/31 22:56:40.3	189.000	0.320	-1.580	2.120
2020/01/31 22:56:40.4	188.970	0.330	-1.580	2.160
2020/01/31 22:56:40.5	188.930	0.320	-1.560	2.190
2020/01/31 22:56:40.6	188.900	0.320	-1.540	2.220
2020/01/31 22:56:40.7	188.870	0.310	-1.510	2.240
2020/01/31 22:56:40.8	188.850	0.300	-1.460	2.260
2020/01/31 22:56:40.9	188.830	0.290	-1.400	2.270
2020/01/31 22:56:41.0	188.810	0.270	-1.340	2.280
2020/01/31 22:56:41.1	188.810	0.250	-1.260	2.280
2020/01/31 22:56:41.2	188.800	0.220	-1.180	2.280
2020/01/31 22:56:41.3	188.790	0.200	-1.090	2.270
2020/01/31 22:56:41.4	188.790	0.170	-0.990	2.250
2020/01/31 22:56:41.5	188.790	0.130	-0.880	2.240
2020/01/31 22:56:41.6	188.790	0.100	-0.770	2.210
2020/01/31 22:56:41.7	188.800	0.060	-0.660	2.190
2020/01/31 22:56:41.8	188.810	0.030	-0.540	2.160
2020/01/31 22:56:41.9	188.820	-0.010	-0.420	2.120
2020/01/31 22:56:42.0	188.840	-0.050	-0.300	2.090
2020/01/31 22:56:42.1	188.870	-0.100	-0.180	2.040
2020/01/31 22:56:42.2	188.890	-0.140	-0.060	2.000
2020/01/31 22:56:42.3	188.920	-0.180	0.060	1.960
2020/01/31 22:56:42.4	188.960	-0.230	0.170	1.910
2020/01/31 22:56:42.5	188.990	-0.270	0.280	1.860
2020/01/31 22:56:42.6	189.030	-0.310	0.390	1.820
2020/01/31 22:56:42.7	189.070	-0.350	0.490	1.770
2020/01/31 22:56:42.8	189.110	-0.390	0.580	1.720
2020/01/31 22:56:42.9	189.160	-0.430	0.670	1.670
2020/01/31 22:56:43.0	189.200	-0.460	0.740	1.620
2020/01/31 22:56:43.1	189.250	-0.490	0.810	1.570
2020/01/31 22:56:43.2	189.290	-0.520	0.870	1.520
2020/01/31 22:56:43.3	189.340	-0.550	0.920	1.480
2020/01/31 22:56:43.4	189.380	-0.570	0.950	1.430
2020/01/31 22:56:43.5	189.420	-0.590	0.980	1.390
2020/01/31 22:56:43.6	189.470	-0.600	1.000	1.350
2020/01/31 22:56:43.7	189.510	-0.610	1.000	1.320
2020/01/31 22:56:43.8	189.540	-0.620	1.000	1.280
2020/01/31 22:56:43.9	189.580	-0.620	0.980	1.250
2020/01/31 22:56:44.0	189.610	-0.620	0.960	1.230
2020/01/31 22:56:44.1	189.630	-0.610	0.920	1.200
2020/01/31 22:56:44.2	189.660	-0.600	0.880	1.190
2020/01/31 22:56:44.3	189.690	-0.590	0.820	1.170
2020/01/31 22:56:44.4	189.710	-0.570	0.760	1.160
2020/01/31 22:56:44.5	189.720	-0.550	0.680	1.160
2020/01/31 22:56:44.6	189.740	-0.520	0.600	1.160
2020/01/31 22:56:44.7	189.740	-0.490	0.510	1.160
2020/01/31 22:56:44.8	189.750	-0.450	0.420	1.170
2020/01/31 22:56:44.9	189.750	-0.410	0.320	1.180
2020/01/31 22:56:45.0	189.750	-0.370	0.220	1.200
2020/01/31 22:56:45.1	189.720	-0.330	0.110	1.210
2020/01/31 22:56:45.2	189.710	-0.290	0.000	1.240
2020/01/31 22:56:45.3	189.700	-0.240	-0.100	1.260
2020/01/31 22:56:45.4	189.680	-0.190	-0.210	1.290
2020/01/31 22:56:45.5	189.660	-0.140	-0.320	1.320
2020/01/31 22:56:45.6	189.640	-0.090	-0.420	1.350
2020/01/31 22:56:45.7	189.620	-0.050	-0.520	1.390
2020/01/31 22:56:45.8	189.600	0.000	-0.610	1.420
2020/01/31 22:56:45.9	189.570	0.050	-0.690	1.460
2020/01/31 22:56:46.0	189.540	0.090	-0.770	1.500
2020/01/31 22:56:46.1	189.510	0.140	-0.840	1.540
2020/01/31 22:56:46.2	189.480	0.180	-0.900	1.570
2020/01/31 22:56:46.3	189.460	0.210	-0.950	1.610
2020/01/31 22:56:46.4	189.430	0.250	-0.990	1.650
2020/01/31 22:56:46.5	189.410	0.280	-1.020	1.680
2020/01/31 22:56:46.6	189.390	0.300	-1.040	1.710
2020/01/31 22:56:46.7	189.370	0.330	-1.050	1.740
2020/01/31 22:56:46.8	189.350	0.350	-1.040	1.780
2020/01/31 22:56:46.9	189.340	0.360	-1.030	1.800
2020/01/31 22:56:47.0	189.320	0.370	-1.010	1.830
2020/01/31 22:56:47.1	189.310	0.380	-0.970	1.850
2020/01/31 22:56:47.2	189.300	0.380	-0.930	1.870
2020/01/31 22:56:47.3	189.290	0.380	-0.880	1.890
2020/01/31 22:56:47.4	189.290	0.370	-0.820	1.900
2020/01/31 22:56:47.5	189.280	0.360	-0.760	1.910
2020/01/31 22:56:47.6	189.280	0.340	-0.690	1.920
2020/01/31 22:56:47.7	189.280	0.320	-0.610	1.930
2020/01/31 22:56:47.8	189.280	0.300	-0.540	1.930
2020/01/31 22:56:47.9	189.280	0.280	-0.460	1.940
2020/01/31 22:56:48.0	189.290	0.250	-0.380	1.940
2020/01/31 22:56:48.1	189.300	0.230	-0.300	1.930
2020/01/31 22:56:48.2	189.300	0.200	-0.220	1.930
2020/01/31 22:56:48.3	189.300	0.170	-0.150	1.920
2020/01/31 22:56:48.4	189.300	0.140	-0.080	1.920
2020/01/31 22:56:48.5	189.300	0.110	-0.010	1.910
2020/01/31 22:56:48.6	189.300	0.080	0.050	1.900
2020/01/31 22:56:48.7	189.300	0.050	0.100	1.890
2020/01/31 22:56:48.8	189.300	0.020	0.150	1.880
2020/01/31 22:56:48.9	189.290	-0.010	0.190	1.870
2020/01/31 22:56:49.0	189.290	-0.030	0.220	1.860
2020/01/31 22:56:49.1	189.300	-0.050	0.240	1.850
2020/01/31 22:56:49.2	189.290	-0.070	0.260	1.840
2020/01/31 22:56:49.3	189.280	-0.090	0.270	1.820
2020/01/31 22:56:49.4	189.280	-0.110	0.270	1.810
2020/01/31 22:56:49.5	189.270	-0.120	0.260	1.800
2020/01/31 22:56:49.6	189.260	-0.130	0.250	1.780
2020/01/31 22:56:49.7	189.260	-0.140	0.230	1.770
2020/01/31 22:56:49.8	189.250	-0.150	0.210	1.760
2020/01/31 22:56:49.9	189.250	-0.150	0.180	1.750
2020/01/31 22:56:50.0	189.240	-0.150	0.150	1.730
2020/01/31 22:56:50.1	189.240	-0.150	0.110	1.720
2020/01/31 22:56:50.2	189.240	-0.140	0.070	1.710
2020/01/31 22:56:50.3	189.240	-0.140	0.030	1.700
2020/01/31 22:56:50.4	189.240	-0.130	-0.020	1.690
2020/01/31 22:56:50.5	189.240	-0.120	-0.070	1.690
2020/01/31 22:56:50.6	189.240	-0.100	-0.110	1.680
2020/01/31 22:56:50.7	189.240	-0.090	-0.160	1.670
2020/01/31 22:56:50.8	189.250	-0.070	-0.210	1.660
2020/01/31 22:56:50.9	189.260	-0.050	-0.260	1.650
2020/01/31 22:56:51.0	189.270	-0.030	-0.310	1.640
2020/01/31 22:56:51.1	189.280	-0.010	-0.350	1.620
2020/01/31 22:56:51.2	189.290	0.010	-0.400	1.610
2020/01/31 22:56:51.3	189.300	0.030	-0.440	1.590
2020/01/31 22:56:51.4	189.320	0.060	-0.480	1.570
2020/01/31 22:56:51.5	189.340	0.080	-0.520	1.540
2020/01/31 22:56:51.6	189.350	0.110	-0.550	1.520
2020/01/31 22:56:51.7	189.370	0.130	-0.570	1.490
2020/01/31 22:56:51.8	189.390	0.160	-0.600	1.460
2020/01/31 22:56:51.9	189.400	0.180	-0.620	1.430
2020/01/31 22:56:52.0	189.420	0.200	-0.640	1.400
2020/01/31 22:56:52.1	189.440	0.230	-0.650	1.370
2020/01/31 22:56:52.2	189.460	0.250	-0.660	1.340
2020/01/31 22:56:52.3	189.470	0.270	-0.670	1.310
2020/01/31 22:56:52.4	189.490	0.290	-0.670	1.270
2020/01/31 22:56:52.5	189.500	0.300	-0.680	1.240
2020/01/31 22:56:52.6	189.510	0.320	-0.670	1.210
2020/01/31 22:56:52.7	189.520	0.340	-0.670	1.180
2020/01/31 22:56:52.8	189.540	0.350	-0.660	1.150
2020/01/31 22:56:52.9	189.540	0.360	-0.660	1.120
2020/01/31 22:56:53.0	189.550	0.370	-0.650	1.100
2020/01/31 22:56:53.1	189.550	0.380	-0.630	1.070
2020/01/31 22:56:53.2	189.560	0.380	-0.620	1.050
2020/01/31 22:56:53.3	189.560	0.390	-0.600	1.040
2020/01/31 22:56:53.4	189.570	0.390	-0.580	1.030
2020/01/31 22:56:53.5	189.570	0.380	-0.570	1.020
2020/01/31 22:56:53.6	189.570	0.380	-0.550	1.020
2020/01/31 22:56:53.7	189.570	0.370	-0.530	1.020
2020/01/31 22:56:53.8	189.570	0.370	-0.500	1.030
2020/01/31 22:56:53.9	189.570	0.360	-0.480	1.040
2020/01/31 22:56:54.0	189.570	0.340	-0.460	1.050
2020/01/31 22:56:54.1	189.560	0.330	-0.440	1.070
2020/01/31 22:56:54.2	189.550	0.310	-0.410	1.090
2020/01/31 22:56:54.3	189.550	0.290	-0.380	1.120
2020/01/31 22:56:54.4	189.550	0.260	-0.350	1.150
2020/01/31 22:56:54.5	189.540	0.230	-0.320	1.180
2020/01/31 22:56:54.6	189.540	0.210	-0.290	1.220
2020/01/31 22:56:54.7	189.530	0.170	-0.260	1.260
2020/01/31 22:56:54.8	189.530	0.140	-0.220	1.290
2020/01/31 22:56:54.9	189.530	0.110	-0.190	1.330
2020/01/31 22:56:55.0	189.520	0.070	-0.150	1.370
2020/01/31 22:56:55.1	189.540	0.030	-0.120	1.410
2020/01/31 22:56:55.2	189.540	-0.010	-0.080	1.440
2020/01/31 22:56:55.3	189.540	-0.060	-0.040	1.480
2020/01/31 22:56:55.4	189.540	-0.100	0.000	1.520
2020/01/31 22:56:55.5	189.550	-0.140	0.050	1.550
2020/01/31 22:56:55.6	189.550	-0.190	0.090	1.580
2020/01/31 22:56:55.7	189.560	-0.240	0.130	1.620
2020/01/31 22:56:55.8	189.570	-0.280	0.160	1.650
2020/01/31 22:56:55.9	189.580	-0.320	0.200	1.680
2020/01/31 22:56:56.0	189.580	-0.370	0.230	1.710
2020/01/31 22:56:56.1	189.580	-0.410	0.260	1.740
2020/01/31 22:56:56.2	189.590	-0.450	0.290	1.770
2020/01/31 22:56:56.3	189.600	-0.490	0.310	1.790
2020/01/31 22:56:56.4	189.600	-0.520	0.330	1.820
2020/01/31 22:56:56.5	189.610	-0.550	0.340	1.850
2020/01/31 22:56:56.6	189.610	-0.580	0.350	1.870
2020/01/31 22:56:56.7	189.610	-0.610	0.350	1.900
2020/01/31 22:56:56.8	189.610	-0.630	0.350	1.920
2020/01/31 22:56:56.9	189.610	-0.640	0.330	1.950
2020/01/31 22:56:57.0	189.600	-0.650	0.320	1.970
2020/01/31 22:56:57.1	189.590	-0.660	0.300	2.000
2020/01/31 22:56:57.2	189.580	-0.660	0.270	2.020
2020/01/31 22:56:57.3	189.570	-0.660	0.230	2.040
2020/01/31 22:56:57.4	189.560	-0.650	0.190	2.060
2020/01/31 22:56:57.5	189.550	-0.640	0.150	2.070
2020/01/31 22:56:57.6	189.540	-0.620	0.100	2.080
2020/01/31 22:56:57.7	189.540	-0.590	0.050	2.090
2020/01/31 22:56:57.8	189.530	-0.570	0.000	2.100
2020/01/31 22:56:57.9	189.520	-0.530	-0.050	2.100
2020/01/31 22:56:58.0	189.510	-0.500	-0.100	2.090
2020/01/31 22:56:58.1	189.520	-0.460	-0.150	2.090
2020/01/31 22:56:58.2	189.520	-0.410	-0.200	2.070
2020/01/31 22:56:58.3	189.520	-0.370	-0.250	2.050
2020/01/31 22:56:58.4	189.520	-0.320	-0.300	2.030
2020/01/31 22:56:58.5	189.520	-0.270	-0.350	2.010
2020/01/31 22:56:58.6	189.530	-0.210	-0.390	1.980
2020/01/31 22:56:58.7	189.530	-0.160	-0.430	1.950
2020/01/31 22:56:58.8	189.540	-0.100	-0.460	1.910
2020/01/31 22:56:58.9	189.550	-0.050	-0.490	1.870
2020/01/31 22:56:59.0	189.560	0.010	-0.510	1.830
2020/01/31 22:56:59.1	189.560	0.060	-0.540	1.790
2020/01/31 22:56:59.2	189.570	0.120	-0.560	1.750
2020/01/31 22:56:59.3	189.580	0.170	-0.570	1.700
2020/01/31 22:56:59.4	189.580	0.230	-0.580	1.660
2020/01/31 22:56:59.5	189.590	0.280	-0.590	1.620
2020/01/31 22:56:59.6	189.590	0.320	-0.600	1.570
2020/01/31 22:56:59.7	189.590	0.370	-0.610	1.530
2020/01/31 22:56:59.8	189.590	0.420	-0.610	1.490
2020/01/31 22:56:59.9	189.580	0.460	-0.620	1.450
2020/01/31 22:57:00.0	189.570	0.500	-0.620	1.410
2020/01/31 22:57:00.1	189.550	0.530	-0.630	1.380
2020/01/31 22:57:00.2	189.540	0.560	-0.630	1.350
2020/01/31 22:57:00.3	189.520	0.590	-0.640	1.320
2020/01/31 22:57:00.4	189.500	0.620	-0.650	1.290
2020/01/31 22:57:00.5	189.470	0.640	-0.660	1.260
2020/01/31 22:57:00.6	189.450	0.660	-0.670	1.240
2020/01/31 22:57:00.7	189.420	0.680	-0.680	1.220
2020/01/31 22:57:00.8	189.390	0.690	-0.700	1.210
2020/01/31 22:57:00.9	189.350	0.690	-0.710	1.200
2020/01/31 22:57:01.0	189.320	0.700	-0.730	1.190
2020/01/31 22:57:01.1	189.290	0.700	-0.750	1.180
2020/01/31 22:57:01.2	189.260	0.690	-0.760	1.180
2020/01/31 22:57:01.3	189.220	0.680	-0.780	1.180
2020/01/31 22:57:01.4	189.180	0.670	-0.800	1.190
2020/01/31 22:57:01.5	189.150	0.660	-0.810	1.190
2020/01/31 22:57:01.6	189.120	0.640	-0.830	1.200
2020/01/31 22:57:01.7	189.090	0.610	-0.840	1.210
2020/01/31 22:57:01.8	189.060	0.580	-0.840	1.230
2020/01/31 22:57:01.9	189.040	0.550	-0.850	1.240
2020/01/31 22:57:02.0	189.020	0.520	-0.850	1.260
2020/01/31 22:57:02.1	189.020	0.480	-0.850	1.280
2020/01/31 22:57:02.2	189.010	0.440	-0.840	1.300
2020/01/31 22:57:02.3	189.000	0.400	-0.820	1.320
2020/01/31 22:57:02.4	189.000	0.350	-0.800	1.350
2020/01/31 22:57:02.5	189.000	0.300	-0.770	1.370
2020/01/31 22:57:02.6	189.000	0.250	-0.740	1.390
2020/01/31 22:57:02.7	189.010	0.190	-0.700	1.420
2020/01/31 22:57:02.8	189.030	0.140	-0.650	1.440
2020/01/31 22:57:02.9	189.050	0.080	-0.600	1.460
2020/01/31 22:57:03.0	189.070	0.020	-0.540	1.490
2020/01/31 22:57:03.1	189.090	-0.040	-0.470	1.510
2020/01/31 22:57:03.2	189.120	-0.100	-0.410	1.530
2020/01/31 22:57:03.3	189.150	-0.160	-0.340	1.550
2020/01/31 22:57:03.4	189.180	-0.220	-0.270	1.580
2020/01/31 22:57:03.5	189.220	-0.280	-0.190	1.600
2020/01/31 22:57:03.6	189.260	-0.340	-0.110	1.620
2020/01/31 22:57:03.7	189.290	-0.390	-0.040	1.640
2020/01/31 22:57:03.8	189.340	-0.450	0.040	1.660
2020/01/31 22:57:03.9	189.380	-0.500	0.110	1.680
2020/01/31 22:57:04.0	189.420	-0.560	0.190	1.690
2020/01/31 22:57:04.1	189.470	-0.600	0.260	1.710
2020/01/31 22:57:04.2	189.510	-0.650	0.320	1.730
2020/01/31 22:57:04.3	189.560	-0.690	0.380	1.740
2020/01/31 22:57:04.4	189.600	-0.730	0.440	1.750
2020/01/31 22:57:04.5	189.650	-0.760	0.500	1.760
2020/01/31 22:57:04.6	189.690	-0.790	0.540	1.770
2020/01/31 22:57:04.7	189.740	-0.820	0.590	1.770
2020/01/31 22:57:04.8	189.780	-0.840	0.620	1.780
2020/01/31 22:57:04.9	189.820	-0.850	0.650	1.780
2020/01/31 22:57:05.0	189.860	-0.860	0.670	1.780
2020/01/31 22:57:05.1	189.900	-0.860	0.690	1.770
2020/01/31 22:57:05.2	189.940	-0.860	0.700	1.760
2020/01/31 22:57:05.3	189.980	-0.850	0.700	1.760
2020/01/31 22:57:05.4	190.010	-0.840	0.700	1.750
2020/01/31 22:57:05.5	190.050	-0.820	0.700	1.740
2020/01/31 22:57:05.6	190.080	-0.800	0.680	1.730
2020/01/31 22:57:05.7	190.110	-0.770	0.660	1.720
2020/01/31 22:57:05.8	190.130	-0.730	0.640	1.700
2020/01/31 22:57:05.9	190.160	-0.690	0.610	1.690
2020/01/31 22:57:06.0	190.180	-0.650	0.580	1.680
2020/01/31 22:57:06.1	190.190	-0.600	0.540	1.670
2020/01/31 22:57:06.2	190.200	-0.540	0.500	1.660
2020/01/31 22:57:06.3	190.210	-0.490	0.450	1.650
2020/01/31 22:57:06.4	190.220	-0.430	0.400	1.640
2020/01/31 22:57:06.5	190.210	-0.360	0.350	1.630
2020/01/31 22:57:06.6	190.210	-0.290	0.290	1.610
2020/01/31 22:57:06.7	190.200	-0.230	0.230	1.600
2020/01/31 22:57:06.8	190.190	-0.150	0.180	1.590
2020/01/31 22:57:06.9	190.180	-0.080	0.110	1.580
2020/01/31 22:57:07.0	190.160	-0.010	0.050	1.560
2020/01/31 22:57:07.1	190.130	0.060	-0.010	1.550
2020/01/31 22:57:07.2	190.110	0.130	-0.070	1.530
2020/01/31 22:57:07.3	190.090	0.200	-0.130	1.520
2020/01/31 22:57:07.4	190.070	0.270	-0.190	1.500
2020/01/31 22:57:07.5	190.050	0.330	-0.240	1.480
2020/01/31 22:57:07.6	190.030	0.400	-0.300	1.460
2020/01/31 22:57:07.7	190.000	0.460	-0.350	1.440
2020/01/31 22:57:07.8	189.980	0.510	-0.400	1.420
2020/01/31 22:57:07.9	189.960	0.560	-0.440	1.390
2020/01/31 22:57:08.0	189.930	0.610	-0.490	1.370
2020/01/31 22:57:08.1	189.890	0.660	-0.520	1.340
2020/01/31 22:57:08.2	189.870	0.700	-0.560	1.320
2020/01/31 22:57:08.3	189.850	0.730	-0.590	1.290
2020/01/31 22:57:08.4	189.830	0.760	-0.620	1.260
2020/01/31 22:57:08.5	189.810	0.780	-0.640	1.230
2020/01/31 22:57:08.6	189.790	0.800	-0.660	1.210
2020/01/31 22:57:08.7	189.770	0.810	-0.680	1.180
2020/01/31 22:57:08.8	189.750	0.820	-0.700	1.150
2020/01/31 22:57:08.9	189.730	0.830	-0.710	1.120
2020/01/31 22:57:09.0	189.720	0.820	-0.710	1.100
2020/01/31 22:57:09.1	189.710	0.820	-0.720	1.070
2020/01/31 22:57:09.2	189.690	0.800	-0.730	1.050
2020/01/31 22:57:09.3	189.680	0.790	-0.730	1.020
2020/01/31 22:57:09.4	189.670	0.770	-0.720	1.010
2020/01/31 22:57:09.5	189.650	0.740	-0.720	0.990
2020/01/31 22:57:09.6	189.640	0.710	-0.720	0.980
2020/01/31 22:57:09.7	189.630	0.680	-0.710	0.980
2020/01/31 22:57:09.8	189.620	0.640	-0.700	0.970
2020/01/31 22:57:09.9	189.600	0.600	-0.690	0.980
2020/01/31 22:57:10.0	189.590	0.560	-0.690	0.990
2020/01/31 22:57:10.1	189.570	0.520	-0.680	1.000
2020/01/31 22:57:10.2	189.550	0.470	-0.670	1.020
2020/01/31 22:57:10.3	189.540	0.430	-0.660	1.040
2020/01/31 22:57:10.4	189.520	0.380	-0.650	1.070
2020/01/31 22:57:10.5	189.510	0.330	-0.640	1.100
2020/01/31 22:57:10.6	189.490	0.280	-0.630	1.140
2020/01/31 22:57:10.7	189.470	0.230	-0.620	1.170
2020/01/31 22:57:10.8	189.460	0.180	-0.610	1.220
2020/01/31 22:57:10.9	189.440	0.130	-0.600	1.260
2020/01/31 22:57:11.0	189.420	0.080	-0.590	1.300
2020/01/31 22:57:11.1	189.400	0.040	-0.580	1.350
2020/01/31 22:57:11.2	189.390	-0.010	-0.570	1.400
2020/01/31 22:57:11.3	189.370	-0.060	-0.560	1.440
2020/01/31 22:57:11.4	189.350	-0.100	-0.550	1.490
2020/01/31 22:57:11.5	189.340	-0.140	-0.540	1.530
2020/01/31 22:57:11.6	189.330	-0.190	-0.520	1.580
2020/01/31 22:57:11.7	189.310	-0.220	-0.510	1.620
2020/01/31 22:57:11.8	189.300	-0.260	-0.500	1.660
2020/01/31 22:57:11.9	189.300	-0.300	-0.480	1.700
2020/01/31 22:57:12.0	189.290	-0.330	-0.470	1.730
2020/01/31 22:57:12.1	189.290	-0.360	-0.450	1.770
2020/01/31 22:57:12.2	189.290	-0.390	-0.430	1.800
2020/01/31 22:57:12.3	189.290	-0.420	-0.420	1.820
2020/01/31 22:57:12.4	189.290	-0.440	-0.400	1.850
2020/01/31 22:57:12.5	189.290	-0.470	-0.380	1.860
2020/01/31 22:57:12.6	189.290	-0.490	-0.370	1.880
2020/01/31 22:57:12.7	189.300	-0.500	-0.350	1.890
2020/01/31 22:57:12.8	189.310	-0.520	-0.340	1.900
2020/01/31 22:57:12.9	189.310	-0.530	-0.330	1.910
2020/01/31 22:57:13.0	189.320	-0.540	-0.310	1.910
2020/01/31 22:57:13.1	189.330	-0.550	-0.310	1.910
2020/01/31 22:57:13.2	189.340	-0.550	-0.300	1.910
2020/01/31 22:57:13.3	189.350	-0.550	-0.290	1.910
2020/01/31 22:57:13.4	189.360	-0.550	-0.280	1.900
2020/01/31 22:57:13.5	189.370	-0.550	-0.270	1.890
2020/01/31 22:57:13.6	189.380	-0.540	-0.270	1.880
2020/01/31 22:57:13.7	189.380	-0.530	-0.270	1.870
2020/01/31 22:57:13.8	189.390	-0.510	-0.270	1.860
2020/01/31 22:57:13.9	189.400	-0.500	-0.270	1.840
2020/01/31 22:57:14.0	189.410	-0.480	-0.270	1.830
2020/01/31 22:57:14.1	189.420	-0.460	-0.270	1.810
2020/01/31 22:57:14.2	189.420	-0.440	-0.270	1.800
2020/01/31 22:57:14.3	189.430	-0.410	-0.270	1.780
2020/01/31 22:57:14.4	189.440	-0.390	-0.280	1.760
2020/01/31 22:57:14.5	189.450	-0.360	-0.280	1.740
2020/01/31 22:57:14.6	189.460	-0.330	-0.280	1.720
2020/01/31 22:57:14.7	189.470	-0.300	-0.280	1.700
2020/01/31 22:57:14.8	189.480	-0.260	-0.280	1.670
2020/01/31 22:57:14.9	189.490	-0.230	-0.280	1.650
2020/01/31 22:57:15.0	189.500	-0.200	-0.280	1.630
2020/01/31 22:57:15.1	189.520	-0.160	-0.280	1.610
2020/01/31 22:57:15.2	189.530	-0.130	-0.270	1.580
2020/01/31 22:57:15.3	189.540	-0.100	-0.260	1.560
2020/01/31 22:57:15.4	189.560	-0.070	-0.260	1.540
2020/01/31 22:57:15.5	189.570	-0.030	-0.240	1.510
2020/01/31 22:57:15.6	189.580	-0.000	-0.230	1.490
2020/01/31 22:57:15.7	189.590	0.030	-0.220	1.470
2020/01/31 22:57:15.8	189.600	0.060	-0.200	1.450
2020/01/31 22:57:15.9	189.620	0.080	-0.190	1.430
2020/01/31 22:57:16.0	189.630	0.110	-0.170	1.410
2020/01/31 22:57:16.1	189.650	0.130	-0.150	1.390
2020/01/31 22:57:16.2	189.660	0.160	-0.130	1.370
2020/01/31 22:57:16.3	189.670	0.180	-0.110	1.350
2020/01/31 22:57:16.4	189.680	0.200	-0.090	1.340
2020/01/31 22:57:16.5	189.690	0.210	-0.070	1.320
2020/01/31 22:57:16.6	189.700	0.230	-0.050	1.310
2020/01/31 22:57:16.7	189.710	0.240	-0.030	1.300
2020/01/31 22:57:16.8	189.720	0.250	-0.010	1.290
2020/01/31 22:57:16.9	189.720	0.260	0.020	1.280
2020/01/31 22:57:17.0	189.730	0.260	0.040	1.280
2020/01/31 22:57:17.1	189.720	0.270	0.060	1.270
2020/01/31 22:57:17.2	189.730	0.270	0.080	1.270
2020/01/31 22:57:17.3	189.730	0.270	0.100	1.270
2020/01/31 22:57:17.4	189.740	0.270	0.110	1.270
2020/01/31 22:57:17.5	189.740	0.260	0.130	1.270
2020/01/31 22:57:17.6	189.740	0.260	0.150	1.270
2020/01/31 22:57:17.7	189.750	0.250	0.160	1.270
2020/01/31 22:57:17.8	189.750	0.250	0.180	1.270
2020/01/31 22:57:17.9	189.750	0.240	0.190	1.270
2020/01/31 22:57:18.0	189.760	0.230	0.200	1.270
2020/01/31 22:57:18.1	189.760	0.220	0.210	1.270
2020/01/31 22:57:18.2	189.770	0.210	0.230	1.270
2020/01/31 22:57:18.3	189.780	0.190	0.240	1.270
2020/01/31 22:57:18.4	189.790	0.180	0.240	1.270
2020/01/31 22:57:18.5	189.800	0.170	0.250	1.270
2020/01/31 22:57:18.6	189.810	0.150	0.260	1.270
2020/01/31 22:57:18.7	189.820	0.140	0.270	1.270
2020/01/31 22:57:18.8	189.840	0.120	0.280	1.270
2020/01/31 22:57:18.9	189.860	0.110	0.280	1.270
2020/01/31 22:57:19.0	189.870	0.090	0.290	1.270
2020/01/31 22:57:19.1	189.900	0.080	0.290	1.280
2020/01/31 22:57:19.2	189.920	0.070	0.290	1.280
2020/01/31 22:57:19.3	189.930	0.050	0.300	1.280
2020/01/31 22:57:19.4	189.950	0.040	0.300	1.290
2020/01/31 22:57:19.5	189.970	0.030	0.290	1.290
2020/01/31 22:57:19.6	189.980	0.020	0.290	1.300
2020/01/31 22:57:19.7	190.000	0.020	0.280	1.300
2020/01/31 22:57:19.8	190.010	0.010	0.280	1.310
2020/01/31 22:57:19.9	190.020	0.010	0.260	1.330
2020/01/31 22:57:20.0	190.030	0.000	0.250	1.340
2020/01/31 22:57:20.1	190.030	0.000	0.230	1.350
2020/01/31 22:57:20.2	190.040	0.000	0.210	1.370
2020/01/31 22:57:20.3	190.040	0.010	0.180	1.390
2020/01/31 22:57:20.4	190.040	0.020	0.150	1.410
2020/01/31 22:57:20.5	190.040	0.020	0.120	1.430
2020/01/31 22:57:20.6	190.040	0.040	0.080	1.450
2020/01/31 22:57:20.7	190.030	0.050	0.040	1.480
2020/01/31 22:57:20.8	190.020	0.060	-0.010	1.500
2020/01/31 22:57:20.9	190.020	0.080	-0.060	1.530
2020/01/31 22:57:21.0	190.010	0.100	-0.110	1.550
2020/01/31 22:57:21.1	190.000	0.120	-0.160	1.580
2020/01/31 22:57:21.2	189.990	0.140	-0.220	1.610
2020/01/31 22:57:21.3	189.970	0.170	-0.280	1.620
2020/01/31 22:57:21.4	189.960	0.190	-0.340	1.640
2020/01/31 22:57:21.5	189.950	0.210	-0.400	1.660
2020/01/31 22:57:21.6	189.940	0.240	-0.460	1.670
2020/01/31 22:57:21.7	189.930	0.260	-0.520	1.690
2020/01/31 22:57:21.8	189.920	0.290	-0.580	1.700
2020/01/31 22:57:21.9	189.900	0.310	-0.630	1.710
2020/01/31 22:57:22.0	189.890	0.330	-0.690	1.720
2020/01/31 22:57:22.1	189.870	0.360	-0.750	1.730
2020/01/31 22:57:22.2	189.860	0.370	-0.810	1.740
2020/01/31 22:57:22.3	189.840	0.390	-0.860	1.750
2020/01/31 22:57:22.4	189.820	0.410	-0.910	1.760
2020/01/31 22:57:22.5	189.800	0.420	-0.960	1.770
2020/01/31 22:57:22.6	189.780	0.440	-1.010	1.790
2020/01/31 22:57:22.7	189.760	0.450	-1.050	1.800
2020/01/31 22:57:22.8	189.730	0.450	-1.090	1.820
2020/01/31 22:57:22.9	189.700	0.460	-1.130	1.830
2020/01/31 22:57:23.0	189.670	0.460	-1.170	1.850
2020/01/31 22:57:23.1	189.650	0.460	-1.200	1.870
2020/01/31 22:57:23.2	189.620	0.450	-1.230	1.890
2020/01/31 22:57:23.3	189.590	0.450	-1.260	1.910
2020/01/31 22:57:23.4	189.550	0.440	-1.280	1.930
2020/01/31 22:57:23.5	189.520	0.420	-1.300	1.950
2020/01/31 22:57:23.6	189.480	0.410	-1.310	1.970
2020/01/31 22:57:23.7	189.450	0.390	-1.320	1.990
2020/01/31 22:57:23.8	189.420	0.360	-1.320	2.010
2020/01/31 22:57:23.9	189.390	0.340	-1.320	2.020
2020/01/31 22:57:24.0	189.360	0.310	-1.310	2.030
2020/01/31 22:57:24.1	189.350	0.280	-1.290	2.040
2020/01/31 22:57:24.2	189.320	0.240	-1.270	2.050
2020/01/31 22:57:24.3	189.310	0.200	-1.240	2.050
2020/01/31 22:57:24.4	189.300	0.160	-1.200	2.050
2020/01/31 22:57:24.5	189.290	0.120	-1.150	2.050
2020/01/31 22:57:24.6	189.290	0.070	-1.100	2.040
2020/01/31 22:57:24.7	189.290	0.020	-1.030	2.030
2020/01/31 22:57:24.8	189.300	-0.030	-0.970	2.010
2020/01/31 22:57:24.9	189.320	-0.080	-0.890	1.990
2020/01/31 22:57:25.0	189.330	-0.140	-0.810	1.970
2020/01/31 22:57:25.1	189.360	-0.190	-0.730	1.940
2020/01/31 22:57:25.2	189.390	-0.250	-0.640	1.920
2020/01/31 22:57:25.3	189.420	-0.300	-0.550	1.890
2020/01/31 22:57:25.4	189.450	-0.360	-0.460	1.860
2020/01/31 22:57:25.5	189.480	-0.410	-0.360	1.830
2020/01/31 22:57:25.6	189.520	-0.460	-0.270	1.800
2020/01/31 22:57:25.7	189.550	-0.510	-0.180	1.770
2020/01/31 22:57:25.8	189.590	-0.560	-0.090	1.740
2020/01/31 22:57:25.9	189.620	-0.600	-0.010	1.710
2020/01/31 22:57:26.0	189.650	-0.640	0.060	1.680
2020/01/31 22:57:26.1	189.690	-0.680	0.140	1.650
2020/01/31 22:57:26.2	189.720	-0.710	0.200	1.630
2020/01/31 22:57:26.3	189.740	-0.730	0.250	1.600
2020/01/31 22:57:26.4	189.760	-0.750	0.300	1.580
2020/01/31 22:57:26.5	189.780	-0.770	0.330	1.560
2020/01/31 22:57:26.6	189.800	-0.780	0.350	1.550
2020/01/31 22:57:26.7	189.810	-0.780	0.370	1.530
2020/01/31 22:57:26.8	189.820	-0.770	0.370	1.520
2020/01/31 22:57:26.9	189.830	-0.760	0.370	1.500
2020/01/31 22:57:27.0	189.840	-0.740	0.350	1.490
2020/01/31 22:57:27.1	189.840	-0.720	0.330	1.470
2020/01/31 22:57:27.2	189.840	-0.690	0.290	1.450
2020/01/31 22:57:27.3	189.840	-0.650	0.260	1.430
2020/01/31 22:57:27.4	189.850	-0.610	0.220	1.410
2020/01/31 22:57:27.5	189.850	-0.570	0.170	1.390
2020/01/31 22:57:27.6	189.860	-0.520	0.120	1.370
2020/01/31 22:57:27.7	189.860	-0.470	0.070	1.350
2020/01/31 22:57:27.8	189.870	-0.420	0.020	1.330
2020/01/31 22:57:27.9	189.880	-0.370	-0.030	1.310
2020/01/31 22:57:28.0	189.900	-0.310	-0.080	1.290
2020/01/31 22:57:28.1	189.900	-0.260	-0.120	1.270
2020/01/31 22:57:28.2	189.910	-0.200	-0.170	1.260
2020/01/31 22:57:28.3	189.930	-0.150	-0.210	1.250
2020/01/31 22:57:28.4	189.950	-0.090	-0.240	1.240
2020/01/31 22:57:28.5	189.970	-0.040	-0.270	1.230
2020/01/31 22:57:28.6	189.990	0.010	-0.300	1.230
2020/01/31 22:57:28.7	190.020	0.050	-0.320	1.230
2020/01/31 22:57:28.8	190.040	0.090	-0.330	1.230
2020/01/31 22:57:28.9	190.070	0.130	-0.340	1.230
2020/01/31 22:57:29.0	190.100	0.170	-0.340	1.230
2020/01/31 22:57:29.1	190.120	0.200	-0.340	1.230
2020/01/31 22:57:29.2	190.150	0.220	-0.330	1.230
2020/01/31 22:57:29.3	190.180	0.250	-0.310	1.240
2020/01/31 22:57:29.4	190.210	0.260	-0.290	1.240
2020/01/31 22:57:29.5	190.240	0.270	-0.270	1.240
2020/01/31 22:57:29.6	190.270	0.280	-0.240	1.240
2020/01/31 22:57:29.7	190.290	0.280	-0.210	1.240
2020/01/31 22:57:29.8	190.320	0.280	-0.170	1.250
2020/01/31 22:57:29.9	190.340	0.280	-0.140	1.250
2020/01/31 22:57:30.0	190.370	0.270	-0.100	1.250
2020/01/31 22:57:30.1	190.380	0.260	-0.050	1.250
2020/01/31 22:57:30.2	190.400	0.240	-0.010	1.250
2020/01/31 22:57:30.3	190.420	0.220	0.030	1.260
2020/01/31 22:57:30.4	190.430	0.200	0.070	1.260
2020/01/31 22:57:30.5	190.440	0.180	0.110	1.270
2020/01/31 22:57:30.6	190.450	0.150	0.150	1.280
2020/01/31 22:57:30.7	190.460	0.120	0.180	1.300
2020/01/31 22:57:30.8	190.460	0.100	0.220	1.310
2020/01/31 22:57:30.9	190.460	0.070	0.250	1.330
2020/01/31 22:57:31.0	190.460	0.040	0.280	1.360
2020/01/31 22:57:31.1	190.460	0.010	0.290	1.380
2020/01/31 22:57:31.2	190.460	-0.020	0.320	1.410
2020/01/31 22:57:31.3	190.450	-0.050	0.340	1.450
2020/01/31 22:57:31.4	190.450	-0.070	0.350	1.490
2020/01/31 22:57:31.5	190.440	-0.100	0.370	1.530
2020/01/31 22:57:31.6	190.440	-0.120	0.370	1.570
2020/01/31 22:57:31.7	190.430	-0.140	0.380	1.610
2020/01/31 22:57:31.8	190.420	-0.150	0.380	1.660
2020/01/31 22:57:31.9	190.420	-0.160	0.380	1.700
2020/01/31 22:57:32.0	190.410	-0.170	0.380	1.750
2020/01/31 22:57:32.1	190.390	-0.180	0.370	1.790
2020/01/31 22:57:32.2	190.380	-0.180	0.360	1.840
2020/01/31 22:57:32.3	190.370	-0.170	0.340	1.880
2020/01/31 22:57:32.4	190.360	-0.170	0.320	1.920
2020/01/31 22:57:32.5	190.350	-0.150	0.300	1.960
2020/01/31 22:57:32.6	190.330	-0.140	0.270	2.000
2020/01/31 22:57:32.7	190.320	-0.120	0.240	2.040
2020/01/31 22:57:32.8	190.300	-0.090	0.210	2.080
2020/01/31 22:57:32.9	190.290	-0.060	0.170	2.110
2020/01/31 22:57:33.0	190.270	-0.030	0.130	2.140
2020/01/31 22:57:33.1	190.230	0.010	0.080	2.170
2020/01/31 22:57:33.2	190.200	0.050	0.030	2.190
2020/01/31 22:57:33.3	190.180	0.090	-0.020	2.220
2020/01/31 22:57:33.4	190.150	0.140	-0.070	2.240
2020/01/31 22:57:33.5	190.120	0.190	-0.120	2.250
2020/01/31 22:57:33.6	190.090	0.240	-0.170	2.270
2020/01/31 22:57:33.7	190.060	0.290	-0.220	2.280
2020/01/31 22:57:33.8	190.030	0.340	-0.280	2.280
2020/01/31 22:57:33.9	189.990	0.390	-0.330	2.290
2020/01/31 22:57:34.0	189.960	0.440	-0.380	2.280
2020/01/31 22:57:34.1	189.930	0.490	-0.430	2.280
2020/01/31 22:57:34.2	189.900	0.540	-0.480	2.270
2020/01/31 22:57:34.3	189.870	0.580	-0.530	2.260
2020/01/31 22:57:34.4	189.830	0.630	-0.570	2.250
2020/01/31 22:57:34.5	189.800	0.670	-0.610	2.230
2020/01/31 22:57:34.6	189.780	0.700	-0.650	2.210
2020/01/31 22:57:34.7	189.750	0.740	-0.680	2.190
2020/01/31 22:57:34.8	189.730	0.760	-0.700	2.160
2020/01/31 22:57:34.9	189.720	0.780	-0.720	2.140
2020/01/31 22:57:35.0	189.700	0.800	-0.730	2.110
2020/01/31 22:57:35.1	189.710	0.810	-0.740	2.070
2020/01/31 22:57:35.2	189.710	0.810	-0.740	2.040
2020/01/31 22:57:35.3	189.710	0.810	-0.730	2.000
2020/01/31 22:57:35.4	189.720	0.800	-0.710	1.970
2020/01/31 22:57:35.5	189.730	0.780	-0.680	1.930
2020/01/31 22:57:35.6	189.750	0.760	-0.650	1.890
2020/01/31 22:57:35.7	189.780	0.730	-0.610	1.850
2020/01/31 22:57:35.8	189.810	0.690	-0.560	1.810
2020/01/31 22:57:35.9	189.840	0.650	-0.510	1.770
2020/01/31 22:57:36.0	189.880	0.600	-0.450	1.720
2020/01/31 22:57:36.1	189.930	0.550	-0.380	1.680
2020/01/31 22:57:36.2	189.980	0.490	-0.320	1.630
2020/01/31 22:57:36.3	190.030	0.420	-0.250	1.590
2020/01/31 22:57:36.4	190.090	0.350	-0.180	1.540
2020/01/31 22:57:36.5	190.150	0.280	-0.110	1.490
2020/01/31 22:57:36.6	190.210	0.210	-0.040	1.440
2020/01/31 22:57:36.7	190.270	0.130	0.030	1.390
2020/01/31 22:57:36.8	190.330	0.060	0.100	1.350
2020/01/31 22:57:36.9	190.390	-0.020	0.160	1.300
2020/01/31 22:57:37.0	190.450	-0.100	0.210	1.260
2020/01/31 22:57:37.1	190.490	-0.170	0.260	1.220
2020/01/31 22:57:37.2	190.550	-0.240	0.300	1.180
2020/01/31 22:57:37.3	190.600	-0.310	0.320	1.140
2020/01/31 22:57:37.4	190.650	-0.380	0.340	1.110
2020/01/31 22:57:37.5	190.700	-0.440	0.350	1.090
2020/01/31 22:57:37.6	190.740	-0.500	0.350	1.070
2020/01/31 22:57:37.7	190.770	-0.540	0.340	1.050
2020/01/31 22:57:37.8	190.800	-0.590	0.310	1.040
2020/01/31 22:57:37.9	190.820	-0.620	0.270	1.040
2020/01/31 22:57:38.0	190.840	-0.640	0.210	1.050
2020/01/31 22:57:38.1	190.850	-0.660	0.150	1.060
2020/01/31 22:57:38.2	190.860	-0.670	0.070	1.070
2020/01/31 22:57:38.3	190.850	-0.670	-0.020	1.090
2020/01/31 22:57:38.4	190.850	-0.660	-0.120	1.120
2020/01/31 22:57:38.5	190.840	-0.640	-0.230	1.140
2020/01/31 22:57:38.6	190.820	-0.610	-0.350	1.180
2020/01/31 22:57:38.7	190.790	-0.580	-0.470	1.210
2020/01/31 22:57:38.8	190.770	-0.540	-0.600	1.250
2020/01/31 22:57:38.9	190.730	-0.490	-0.730	1.290
2020/01/31 22:57:39.0	190.700	-0.430	-0.870	1.340
2020/01/31 22:57:39.1	190.650	-0.370	-1.010	1.390
2020/01/31 22:57:39.2	190.610	-0.300	-1.140	1.430
2020/01/31 22:57:39.3	190.560	-0.230	-1.270	1.480
2020/01/31 22:57:39.4	190.510	-0.160	-1.400	1.520
2020/01/31 22:57:39.5	190.460	-0.080	-1.510	1.570
2020/01/31 22:57:39.6	190.410	0.000	-1.620	1.610
2020/01/31 22:57:39.7	190.360	0.080	-1.720	1.650
2020/01/31 22:57:39.8	190.310	0.160	-1.810	1.690
2020/01/31 22:57:39.9	190.270	0.240	-1.890	1.720
2020/01/31 22:57:40.0	190.220	0.320	-1.950	1.760
2020/01/31 22:57:40.1	190.180	0.400	-1.990	1.790
2020/01/31 22:57:40.2	190.140	0.470	-2.020	1.810
2020/01/31 22:57:40.3	190.100	0.530	-2.040	1.840
2020/01/31 22:57:40.4	190.060	0.600	-2.030	1.850
2020/01/31 22:57:40.5	190.020	0.650	-2.010	1.870
2020/01/31 22:57:40.6	189.990	0.700	-1.970	1.880
2020/01/31 22:57:40.7	189.970	0.740	-1.920	1.880
2020/01/31 22:57:40.8	189.940	0.780	-1.850	1.880
2020/01/31 22:57:40.9	189.920	0.800	-1.760	1.880
2020/01/31 22:57:41.0	189.910	0.820	-1.660	1.880
2020/01/31 22:57:41.1	189.890	0.830	-1.550	1.870
2020/01/31 22:57:41.2	189.890	0.830	-1.430	1.850
2020/01/31 22:57:41.3	189.880	0.830	-1.290	1.840
2020/01/31 22:57:41.4	189.880	0.810	-1.150	1.820
2020/01/31 22:57:41.5	189.880	0.790	-0.990	1.790
2020/01/31 22:57:41.6	189.890	0.750	-0.840	1.770
2020/01/31 22:57:41.7	189.900	0.710	-0.670	1.740
2020/01/31 22:57:41.8	189.910	0.660	-0.510	1.720
2020/01/31 22:57:41.9	189.920	0.610	-0.340	1.690
2020/01/31 22:57:42.0	189.940	0.550	-0.180	1.660
2020/01/31 22:57:42.1	189.950	0.480	-0.010	1.630
2020/01/31 22:57:42.2	189.970	0.410	0.150	1.600
2020/01/31 22:57:42.3	189.990	0.330	0.310	1.570
2020/01/31 22:57:42.4	190.010	0.250	0.450	1.550
2020/01/31 22:57:42.5	190.030	0.170	0.600	1.530
2020/01/31 22:57:42.6	190.050	0.090	0.730	1.500
2020/01/31 22:57:42.7	190.060	0.000	0.850	1.490
2020/01/31 22:57:42.8	190.080	-0.080	0.960	1.470
2020/01/31 22:57:42.9	190.100	-0.170	1.060	1.460
2020/01/31 22:57:43.0	190.120	-0.250	1.150	1.450
2020/01/31 22:57:43.1	190.140	-0.330	1.220	1.440
2020/01/31 22:57:43.2	190.150	-0.410	1.290	1.440
2020/01/31 22:57:43.3	190.170	-0.490	1.340	1.440
2020/01/31 22:57:43.4	190.180	-0.560	1.370	1.440
2020/01/31 22:57:43.5	190.190	-0.630	1.400	1.450
2020/01/31 22:57:43.6	190.200	-0.700	1.410	1.460
2020/01/31 22:57:43.7	190.210	-0.760	1.410	1.470
2020/01/31 22:57:43.8	190.220	-0.810	1.390	1.490
2020/01/31 22:57:43.9	190.220	-0.860	1.370	1.500
2020/01/31 22:57:44.0	190.230	-0.910	1.340	1.530
2020/01/31 22:57:44.1	190.230	-0.940	1.290	1.550
2020/01/31 22:57:44.2	190.240	-0.980	1.240	1.580
2020/01/31 22:57:44.3	190.250	-1.000	1.180	1.600
2020/01/31 22:57:44.4	190.250	-1.020	1.110	1.630
2020/01/31 22:57:44.5	190.260	-1.040	1.030	1.660
2020/01/31 22:57:44.6	190.270	-1.040	0.950	1.690
2020/01/31 22:57:44.7	190.270	-1.050	0.860	1.720
2020/01/31 22:57:44.8	190.280	-1.040	0.770	1.740
2020/01/31 22:57:44.9	190.290	-1.030	0.680	1.770
2020/01/31 22:57:45.0	190.290	-1.020	0.590	1.800
2020/01/31 22:57:45.1	190.300	-1.000	0.490	1.830
2020/01/31 22:57:45.2	190.310	-0.980	0.400	1.850
2020/01/31 22:57:45.3	190.310	-0.950	0.300	1.880
2020/01/31 22:57:45.4	190.320	-0.920	0.210	1.900
2020/01/31 22:57:45.5	190.320	-0.880	0.110	1.930
2020/01/31 22:57:45.6	190.320	-0.840	0.020	1.950
2020/01/31 22:57:45.7	190.320	-0.800	-0.070	1.980
2020/01/31 22:57:45.8	190.310	-0.750	-0.150	2.000
2020/01/31 22:57:45.9	190.310	-0.710	-0.230	2.020
2020/01/31 22:57:46.0	190.300	-0.660	-0.310	2.040
2020/01/31 22:57:46.1	190.290	-0.600	-0.390	2.060
2020/01/31 22:57:46.2	190.280	-0.550	-0.460	2.070
2020/01/31 22:57:46.3	190.270	-0.500	-0.530	2.090
2020/01/31 22:57:46.4	190.260	-0.440	-0.590	2.100
2020/01/31 22:57:46.5	190.240	-0.380	-0.650	2.110
2020/01/31 22:57:46.6	190.220	-0.330	-0.700	2.110
2020/01/31 22:57:46.7	190.200	-0.270	-0.760	2.120
2020/01/31 22:57:46.8	190.180	-0.210	-0.800	2.120
2020/01/31 22:57:46.9	190.150	-0.150	-0.850	2.110
2020/01/31 22:57:47.0	190.130	-0.100	-0.890	2.110
2020/01/31 22:57:47.1	190.080	-0.040	-0.920	2.100
2020/01/31 22:57:47.2	190.050	0.010	-0.950	2.090
2020/01/31 22:57:47.3	190.020	0.070	-0.980	2.080
2020/01/31 22:57:47.4	189.990	0.120	-1.000	2.060
2020/01/31 22:57:47.5	189.960	0.160	-1.020	2.050
2020/01/31 22:57:47.6	189.930	0.210	-1.040	2.030
2020/01/31 22:57:47.7	189.900	0.250	-1.050	2.010
2020/01/31 22:57:47.8	189.870	0.290	-1.050	1.980
2020/01/31 22:57:47.9	189.840	0.330	-1.060	1.960
2020/01/31 22:57:48.0	189.810	0.360	-1.060	1.930
2020/01/31 22:57:48.1	189.800	0.390	-1.060	1.910
2020/01/31 22:57:48.2	189.770	0.420	-1.050	1.880
2020/01/31 22:57:48.3	189.750	0.440	-1.040	1.850
2020/01/31 22:57:48.4	189.720	0.470	-1.020	1.820
2020/01/31 22:57:48.5	189.700	0.480	-1.010	1.790
2020/01/31 22:57:48.6	189.680	0.500	-0.990	1.760
2020/01/31 22:57:48.7	189.660	0.510	-0.960	1.730
2020/01/31 22:57:48.8	189.640	0.520	-0.930	1.700
2020/01/31 22:57:48.9	189.620	0.520	-0.900	1.670
2020/01/31 22:57:49.0	189.600	0.520	-0.870	1.640
2020/01/31 22:57:49.1	189.590	0.520	-0.840	1.600
2020/01/31 22:57:49.2	189.570	0.520	-0.800	1.570
2020/01/31 22:57:49.3	189.560	0.510	-0.760	1.540
2020/01/31 22:57:49.4	189.550	0.510	-0.720	1.510
2020/01/31 22:57:49.5	189.540	0.500	-0.680	1.480
2020/01/31 22:57:49.6	189.520	0.490	-0.630	1.450
2020/01/31 22:57:49.7	189.510	0.470	-0.590	1.420
2020/01/31 22:57:49.8	189.500	0.460	-0.540	1.400
2020/01/31 22:57:49.9	189.490	0.440	-0.490	1.370
2020/01/31 22:57:50.0	189.480	0.430	-0.440	1.350
2020/01/31 22:57:50.1	189.470	0.410	-0.390	1.320
2020/01/31 22:57:50.2	189.460	0.390	-0.340	1.300
2020/01/31 22:57:50.3	189.460	0.370	-0.290	1.280
2020/01/31 22:57:50.4	189.450	0.350	-0.240	1.260
2020/01/31 22:57:50.5	189.450	0.330	-0.190	1.230
2020/01/31 22:57:50.6	189.450	0.310	-0.140	1.210
2020/01/31 22:57:50.7	189.450	0.280	-0.090	1.190
2020/01/31 22:57:50.8	189.460	0.260	-0.040	1.170
2020/01/31 22:57:50.9	189.460	0.240	0.010	1.160
2020/01/31 22:57:51.0	189.470	0.210	0.060	1.140
2020/01/31 22:57:51.1	189.500	0.190	0.110	1.120
2020/01/31 22:57:51.2	189.510	0.170	0.160	1.100
2020/01/31 22:57:51.3	189.520	0.140	0.200	1.090
2020/01/31 22:57:51.4	189.530	0.120	0.240	1.070
2020/01/31 22:57:51.5	189.550	0.100	0.290	1.050
2020/01/31 22:57:51.6	189.560	0.070	0.320	1.040
2020/01/31 22:57:51.7	189.580	0.050	0.360	1.030
2020/01/31 22:57:51.8	189.590	0.030	0.390	1.020
2020/01/31 22:57:51.9	189.610	0.010	0.410	1.010
2020/01/31 22:57:52.0	189.620	-0.010	0.440	1.000
2020/01/31 22:57:52.1	189.630	-0.030	0.460	1.000
2020/01/31 22:57:52.2	189.650	-0.050	0.470	1.000
2020/01/31 22:57:52.3	189.660	-0.070	0.480	1.000
2020/01/31 22:57:52.4	189.670	-0.080	0.480	1.000
2020/01/31 22:57:52.5	189.690	-0.100	0.480	1.010
2020/01/31 22:57:52.6	189.700	-0.110	0.470	1.020
2020/01/31 22:57:52.7	189.710	-0.120	0.460	1.030
2020/01/31 22:57:52.8	189.720	-0.130	0.440	1.050
2020/01/31 22:57:52.9	189.730	-0.140	0.420	1.070
2020/01/31 22:57:53.0	189.740	-0.140	0.390	1.100
2020/01/31 22:57:53.1	189.730	-0.140	0.360	1.130
2020/01/31 22:57:53.2	189.740	-0.150	0.320	1.160
2020/01/31 22:57:53.3	189.740	-0.150	0.280	1.200
2020/01/31 22:57:53.4	189.740	-0.140	0.240	1.240
2020/01/31 22:57:53.5	189.740	-0.140	0.190	1.280
2020/01/31 22:57:53.6	189.740	-0.130	0.140	1.330
2020/01/31 22:57:53.7	189.730	-0.130	0.090	1.380
2020/01/31 22:57:53.8	189.720	-0.120	0.040	1.430
2020/01/31 22:57:53.9	189.710	-0.110	-0.010	1.490
2020/01/31 22:57:54.0	189.710	-0.090	-0.070	1.540
2020/01/31 22:57:54.1	189.700	-0.080	-0.120	1.600
2020/01/31 22:57:54.2	189.690	-0.070	-0.180	1.660
2020/01/31 22:57:54.3	189.680	-0.050	-0.230	1.710
2020/01/31 22:57:54.4	189.660	-0.030	-0.280	1.760
2020/01/31 22:57:54.5	189.650	-0.010	-0.330	1.810
2020/01/31 22:57:54.6	189.640	0.010	-0.380	1.860
2020/01/31 22:57:54.7	189.620	0.030	-0.420	1.910
2020/01/31 22:57:54.8	189.610	0.050	-0.470	1.960
2020/01/31 22:57:54.9	189.600	0.070	-0.500	2.000
2020/01/31 22:57:55.0	189.580	0.090	-0.540	2.040
2020/01/31 22:57:55.1	189.560	0.110	-0.560	2.080
2020/01/31 22:57:55.2	189.550	0.130	-0.590	2.110
2020/01/31 22:57:55.3	189.540	0.150	-0.610	2.140
2020/01/31 22:57:55.4	189.530	0.170	-0.630	2.170
2020/01/31 22:57:55.5	189.520	0.190	-0.640	2.190
2020/01/31 22:57:55.6	189.500	0.210	-0.640	2.220
2020/01/31 22:57:55.7	189.490	0.230	-0.650	2.230
2020/01/31 22:57:55.8	189.480	0.250	-0.640	2.250
2020/01/31 22:57:55.9	189.470	0.270	-0.640	2.260
2020/01/31 22:57:56.0	189.460	0.290	-0.630	2.270
2020/01/31 22:57:56.1	189.460	0.300	-0.610	2.270
2020/01/31 22:57:56.2	189.450	0.320	-0.600	2.270
2020/01/31 22:57:56.3	189.440	0.330	-0.580	2.270
2020/01/31 22:57:56.4	189.440	0.350	-0.560	2.270
2020/01/31 22:57:56.5	189.430	0.360	-0.540	2.260
2020/01/31 22:57:56.6	189.420	0.370	-0.510	2.250
2020/01/31 22:57:56.7	189.410	0.380	-0.490	2.240
2020/01/31 22:57:56.8	189.400	0.390	-0.470	2.230
2020/01/31 22:57:56.9	189.390	0.400	-0.440	2.210
2020/01/31 22:57:57.0	189.380	0.410	-0.420	2.200
2020/01/31 22:57:57.1	189.370	0.420	-0.400	2.170
2020/01/31 22:57:57.2	189.370	0.420	-0.380	2.150
2020/01/31 22:57:57.3	189.360	0.430	-0.360	2.130
2020/01/31 22:57:57.4	189.350	0.430	-0.350	2.100
2020/01/31 22:57:57.5	189.340	0.430	-0.330	2.070
2020/01/31 22:57:57.6	189.330	0.440	-0.320	2.040
2020/01/31 22:57:57.7	189.320	0.440	-0.300	2.010
2020/01/31 22:57:57.8	189.310	0.430	-0.290	1.980
2020/01/31 22:57:57.9	189.310	0.430	-0.280	1.950
2020/01/31 22:57:58.0	189.300	0.420	-0.270	1.920
2020/01/31 22:57:58.1	189.320	0.420	-0.260	1.880
2020/01/31 22:57:58.2	189.320	0.410	-0.250	1.850
2020/01/31 22:57:58.3	189.320	0.400	-0.240	1.820
2020/01/31 22:57:58.4	189.320	0.380	-0.230	1.790
2020/01/31 22:57:58.5	189.330	0.370	-0.220	1.750
2020/01/31 22:57:58.6	189.330	0.350	-0.220	1.720
2020/01/31 22:57:58.7	189.340	0.330	-0.210	1.690
2020/01/31 22:57:58.8	189.350	0.310	-0.200	1.660
2020/01/31 22:57:58.9	189.360	0.290	-0.190	1.630
2020/01/31 22:57:59.0	189.380	0.260	-0.180	1.610
2020/01/31 22:57:59.1	189.390	0.230	-0.180	1.580
2020/01/31 22:57:59.2	189.400	0.200	-0.170	1.550
2020/01/31 22:57:59.3	189.420	0.170	-0.160	1.530
2020/01/31 22:57:59.4	189.440	0.140	-0.140	1.500
2020/01/31 22:57:59.5	189.460	0.110	-0.130	1.480
2020/01/31 22:57:59.6	189.480	0.070	-0.120	1.460
2020/01/31 22:57:59.7	189.500	0.030	-0.110	1.450
2020/01/31 22:57:59.8	189.520	-0.000	-0.100	1.430
2020/01/31 22:57:59.9	189.540	-0.040	-0.100	1.420
2020/01/31 22:58:00.0	189.550	-0.080	-0.090	1.400
2020/01/31 22:58:00.1	189.550	-0.120	-0.090	1.390
2020/01/31 22:58:00.2	189.570	-0.150	-0.080	1.390
2020/01/31 22:58:00.3	189.580	-0.190	-0.080	1.380
2020/01/31 22:58:00.4	189.590	-0.230	-0.090	1.380
2020/01/31 22:58:00.5	189.600	-0.260	-0.090	1.380
2020/01/31 22:58:00.6	189.610	-0.300	-0.100	1.380
2020/01/31 22:58:00.7	189.610	-0.330	-0.110	1.390
2020/01/31 22:58:00.8	189.620	-0.360	-0.130	1.390
2020/01/31 22:58:00.9	189.620	-0.390	-0.150	1.400
2020/01/31 22:58:01.0	189.610	-0.420	-0.170	1.420
2020/01/31 22:58:01.1	189.610	-0.440	-0.190	1.430
2020/01/31 22:58:01.2	189.600	-0.460	-0.220	1.450
2020/01/31 22:58:01.3	189.600	-0.480	-0.250	1.470
2020/01/31 22:58:01.4	189.590	-0.500	-0.290	1.500
2020/01/31 22:58:01.5	189.570	-0.510	-0.330	1.530
2020/01/31 22:58:01.6	189.560	-0.520	-0.370	1.560
2020/01/31 22:58:01.7	189.540	-0.530	-0.410	1.590
2020/01/31 22:58:01.8	189.520	-0.530	-0.450	1.630
2020/01/31 22:58:01.9	189.500	-0.530	-0.500	1.670
2020/01/31 22:58:02.0	189.480	-0.530	-0.550	1.700
2020/01/31 22:58:02.1	189.460	-0.520	-0.600	1.740
2020/01/31 22:58:02.2	189.430	-0.510	-0.640	1.780
2020/01/31 22:58:02.3	189.410	-0.500	-0.690	1.820
2020/01/31 22:58:02.4	189.380	-0.480	-0.740	1.860
2020/01/31 22:58:02.5	189.360	-0.460	-0.780	1.900
2020/01/31 22:58:02.6	189.330	-0.440	-0.820	1.930
2020/01/31 22:58:02.7	189.310	-0.420	-0.860	1.970
2020/01/31 22:58:02.8	189.280	-0.390	-0.900	2.000
2020/01/31 22:58:02.9	189.260	-0.360	-0.930	2.030
2020/01/31 22:58:03.0	189.230	-0.330	-0.960	2.050
2020/01/31 22:58:03.1	189.210	-0.300	-0.980	2.080
2020/01/31 22:58:03.2	189.180	-0.270	-1.000	2.100
2020/01/31 22:58:03.3	189.160	-0.240	-1.010	2.120
2020/01/31 22:58:03.4	189.150	-0.200	-1.020	2.130
2020/01/31 22:58:03.5	189.130	-0.170	-1.020	2.140
2020/01/31 22:58:03.6	189.110	-0.140	-1.020	2.140
2020/01/31 22:58:03.7	189.100	-0.110	-1.010	2.140
2020/01/31 22:58:03.8	189.090	-0.080	-1.000	2.140
2020/01/31 22:58:03.9	189.080	-0.050	-0.980	2.130
2020/01/31 22:58:04.0	189.070	-0.020	-0.950	2.110
2020/01/31 22:58:04.1	189.070	0.010	-0.920	2.090
2020/01/31 22:58:04.2	189.070	0.040	-0.890	2.070
2020/01/31 22:58:04.3	189.070	0.060	-0.850	2.050
2020/01/31 22:58:04.4	189.070	0.080	-0.800	2.020
2020/01/31 22:58:04.5	189.070	0.100	-0.760	1.990
2020/01/31 22:58:04.6	189.080	0.110	-0.710	1.960
2020/01/31 22:58:04.7	189.080	0.130	-0.650	1.920
2020/01/31 22:58:04.8	189.090	0.140	-0.600	1.890
2020/01/31 22:58:04.9	189.100	0.140	-0.540	1.860
2020/01/31 22:58:05.0	189.110	0.150	-0.480	1.820
2020/01/31 22:58:05.1	189.130	0.150	-0.430	1.780
2020/01/31 22:58:05.2	189.150	0.150	-0.370	1.750
2020/01/31 22:58:05.3	189.160	0.150	-0.310	1.710
2020/01/31 22:58:05.4	189.170	0.150	-0.250	1.670
2020/01/31 22:58:05.5	189.190	0.140	-0.190	1.630
2020/01/31 22:58:05.6	189.200	0.130	-0.130	1.600
2020/01/31 22:58:05.7	189.220	0.120	-0.080	1.560
2020/01/31 22:58:05.8	189.240	0.110	-0.020	1.520
2020/01/31 22:58:05.9	189.250	0.100	0.030	1.490
2020/01/31 22:58:06.0	189.270	0.080	0.080	1.450
2020/01/31 22:58:06.1	189.290	0.070	0.140	1.420
2020/01/31 22:58:06.2	189.310	0.050	0.180	1.380
2020/01/31 22:58:06.3	189.330	0.030	0.230	1.350
2020/01/31 22:58:06.4	189.350	0.010	0.270	1.320
2020/01/31 22:58:06.5	189.370	-0.010	0.310	1.290
2020/01/31 22:58:06.6	189.390	-0.030	0.340	1.260
2020/01/31 22:58:06.7	189.410	-0.050	0.380	1.240
2020/01/31 22:58:06.8	189.430	-0.070	0.410	1.220
2020/01/31 22:58:06.9	189.450	-0.100	0.430	1.200
2020/01/31 22:58:07.0	189.470	-0.120	0.460	1.180
2020/01/31 22:58:07.1	189.490	-0.140	0.470	1.170
2020/01/31 22:58:07.2	189.510	-0.170	0.490	1.160
2020/01/31 22:58:07.3	189.520	-0.190	0.510	1.160
2020/01/31 22:58:07.4	189.540	-0.210	0.520	1.160
2020/01/31 22:58:07.5	189.550	-0.240	0.530	1.160
2020/01/31 22:58:07.6	189.570	-0.260	0.530	1.170
2020/01/31 22:58:07.7	189.580	-0.280	0.530	1.180
2020/01/31 22:58:07.8	189.600	-0.300	0.530	1.200
2020/01/31 22:58:07.9	189.610	-0.320	0.520	1.210
2020/01/31 22:58:08.0	189.620	-0.340	0.510	1.240
2020/01/31 22:58:08.1	189.610	-0.360	0.500	1.260
2020/01/31 22:58:08.2	189.620	-0.370	0.480	1.290
2020/01/31 22:58:08.3	189.620	-0.390	0.460	1.310
2020/01/31 22:58:08.4	189.630	-0.400	0.430	1.340
2020/01/31 22:58:08.5	189.630	-0.410	0.400	1.370
2020/01/31 22:58:08.6	189.630	-0.420	0.360	1.410
2020/01/31 22:58:08.7	189.630	-0.420	0.320	1.440
2020/01/31 22:58:08.8	189.630	-0.420	0.280	1.470
2020/01/31 22:58:08.9	189.630	-0.420	0.240	1.510
2020/01/31 22:58:09.0	189.620	-0.420	0.190	1.540
2020/01/31 22:58:09.1	189.590	-0.410	0.140	1.580
2020/01/31 22:58:09.2	189.580	-0.400	0.090	1.620
2020/01/31 22:58:09.3	189.570	-0.390	0.040	1.650
2020/01/31 22:58:09.4	189.560	-0.370	-0.010	1.690
2020/01/31 22:58:09.5	189.540	-0.360	-0.060	1.720
2020/01/31 22:58:09.6	189.520	-0.340	-0.120	1.760
2020/01/31 22:58:09.7	189.510	-0.310	-0.170	1.790
2020/01/31 22:58:09.8	189.490	-0.280	-0.210	1.820
2020/01/31 22:58:09.9	189.470	-0.260	-0.260	1.850
2020/01/31 22:58:10.0	189.450	-0.220	-0.300	1.880
2020/01/31 22:58:10.1	189.430	-0.190	-0.350	1.900
2020/01/31 22:58:10.2	189.410	-0.150	-0.380	1.930
2020/01/31 22:58:10.3	189.390	-0.110	-0.420	1.950
2020/01/31 22:58:10.4	189.370	-0.070	-0.450	1.970
2020/01/31 22:58:10.5	189.360	-0.030	-0.470	1.980
2020/01/31 22:58:10.6	189.340	0.010	-0.490	1.990
2020/01/31 22:58:10.7	189.320	0.050	-0.500	2.000
2020/01/31 22:58:10.8	189.310	0.100	-0.510	2.000
2020/01/31 22:58:10.9	189.300	0.140	-0.510	2.000
2020/01/31 22:58:11.0	189.290	0.180	-0.510	1.990
2020/01/31 22:58:11.1	189.290	0.230	-0.510	1.980
2020/01/31 22:58:11.2	189.290	0.270	-0.500	1.970
2020/01/31 22:58:11.3	189.280	0.310	-0.480	1.940
2020/01/31 22:58:11.4	189.280	0.350	-0.460	1.910
2020/01/31 22:58:11.5	189.290	0.390	-0.430	1.880
2020/01/31 22:58:11.6	189.290	0.430	-0.400	1.850
2020/01/31 22:58:11.7	189.300	0.460	-0.370	1.800
2020/01/31 22:58:11.8	189.310	0.500	-0.330	1.760
2020/01/31 22:58:11.9	189.320	0.530	-0.300	1.710
2020/01/31 22:58:12.0	189.330	0.550	-0.260	1.650
2020/01/31 22:58:12.1	189.360	0.580	-0.210	1.600
2020/01/31 22:58:12.2	189.380	0.600	-0.170	1.540
2020/01/31 22:58:12.3	189.390	0.620	-0.140	1.480
2020/01/31 22:58:12.4	189.410	0.630	-0.100	1.410
2020/01/31 22:58:12.5	189.430	0.640	-0.060	1.350
2020/01/31 22:58:12.6	189.440	0.650	-0.030	1.290
2020/01/31 22:58:12.7	189.460	0.650	0.000	1.220
2020/01/31 22:58:12.8	189.470	0.650	0.030	1.160
2020/01/31 22:58:12.9	189.490	0.650	0.050	1.100
2020/01/31 22:58:13.0	189.500	0.640	0.070	1.040
2020/01/31 22:58:13.1	189.520	0.630	0.080	0.980
2020/01/31 22:58:13.2	189.530	0.620	0.090	0.930
2020/01/31 22:58:13.3	189.540	0.600	0.090	0.880
2020/01/31 22:58:13.4	189.550	0.580	0.090	0.830
2020/01/31 22:58:13.5	189.570	0.560	0.080	0.790
2020/01/31 22:58:13.6	189.580	0.540	0.070	0.760
2020/01/31 22:58:13.7	189.590	0.510	0.060	0.720
2020/01/31 22:58:13.8	189.600	0.480	0.040	0.700
2020/01/31 22:58:13.9	189.620	0.450	0.010	0.680
2020/01/31 22:58:14.0	189.630	0.420	-0.010	0.660
2020/01/31 22:58:14.1	189.640	0.390	-0.040	0.650
2020/01/31 22:58:14.2	189.650	0.350	-0.080	0.650
2020/01/31 22:58:14.3	189.670	0.320	-0.110	0.650
2020/01/31 22:58:14.4	189.690	0.280	-0.150	0.660
2020/01/31 22:58:14.5	189.700	0.250	-0.190	0.670
2020/01/31 22:58:14.6	189.720	0.210	-0.230	0.680
2020/01/31 22:58:14.7	189.740	0.170	-0.270	0.700
2020/01/31 22:58:14.8	189.750	0.140	-0.310	0.720
2020/01/31 22:58:14.9	189.770	0.100	-0.350	0.750
2020/01/31 22:58:15.0	189.790	0.070	-0.390	0.780
2020/01/31 22:58:15.1	189.790	0.030	-0.430	0.810
2020/01/31 22:58:15.2	189.810	-0.000	-0.470	0.840
2020/01/31 22:58:15.3	189.820	-0.030	-0.500	0.870
2020/01/31 22:58:15.4	189.830	-0.060	-0.530	0.910
2020/01/31 22:58:15.5	189.850	-0.090	-0.560	0.940
2020/01/31 22:58:15.6	189.850	-0.110	-0.590	0.980
2020/01/31 22:58:15.7	189.860	-0.140	-0.610	1.020
2020/01/31 22:58:15.8	189.870	-0.160	-0.640	1.060
2020/01/31 22:58:15.9	189.870	-0.180	-0.660	1.100
2020/01/31 22:58:16.0	189.870	-0.190	-0.680	1.140
2020/01/31 22:58:16.1	189.860	-0.200	-0.700	1.170
2020/01/31 22:58:16.2	189.860	-0.210	-0.720	1.210
2020/01/31 22:58:16.3	189.850	-0.220	-0.730	1.250
2020/01/31 22:58:16.4	189.840	-0.220	-0.750	1.290
2020/01/31 22:58:16.5	189.830	-0.220	-0.770	1.330
2020/01/31 22:58:16.6	189.820	-0.220	-0.780	1.370
2020/01/31 22:58:16.7	189.800	-0.210	-0.800	1.410
2020/01/31 22:58:16.8	189.780	-0.200	-0.820	1.450
2020/01/31 22:58:16.9	189.760	-0.190	-0.830	1.490
2020/01/31 22:58:17.0	189.740	-0.180	-0.850	1.530
2020/01/31 22:58:17.1	189.720	-0.160	-0.870	1.570
2020/01/31 22:58:17.2	189.690	-0.140	-0.880	1.600
2020/01/31 22:58:17.3	189.660	-0.120	-0.900	1.640
2020/01/31 22:58:17.4	189.630	-0.100	-0.920	1.670
2020/01/31 22:58:17.5	189.600	-0.080	-0.930	1.710
2020/01/31 22:58:17.6	189.570	-0.060	-0.950	1.740
2020/01/31 22:58:17.7	189.540	-0.040	-0.960	1.770
2020/01/31 22:58:17.8	189.510	-0.010	-0.970	1.800
2020/01/31 22:58:17.9	189.490	0.010	-0.980	1.830
2020/01/31 22:58:18.0	189.460	0.030	-0.990	1.860
2020/01/31 22:58:18.1	189.420	0.050	-1.000	1.880
2020/01/31 22:58:18.2	189.390	0.070	-0.990	1.910
2020/01/31 22:58:18.3	189.360	0.080	-0.990	1.930
2020/01/31 22:58:18.4	189.340	0.100	-0.980	1.950
2020/01/31 22:58:18.5	189.310	0.110	-0.960	1.970
2020/01/31 22:58:18.6	189.290	0.120	-0.940	1.990
2020/01/31 22:58:18.7	189.270	0.130	-0.910	2.000
2020/01/31 22:58:18.8	189.250	0.130	-0.880	2.010
2020/01/31 22:58:18.9	189.230	0.130	-0.840	2.020
2020/01/31 22:58:19.0	189.210	0.130	-0.800	2.030
2020/01/31 22:58:19.1	189.190	0.120	-0.740	2.030
2020/01/31 22:58:19.2	189.180	0.110	-0.690	2.030
2020/01/31 22:58:19.3	189.170	0.100	-0.630	2.040
2020/01/31 22:58:19.4	189.160	0.080	-0.570	2.040
2020/01/31 22:58:19.5	189.160	0.060	-0.500	2.030
2020/01/31 22:58:19.6	189.160	0.040	-0.430	2.030
2020/01/31 22:58:19.7	189.160	0.020	-0.350	2.030
2020/01/31 22:58:19.8	189.160	-0.000	-0.280	2.020
2020/01/31 22:58:19.9	189.160	-0.030	-0.200	2.010
2020/01/31 22:58:20.0	189.170	-0.060	-0.120	2.000
2020/01/31 22:58:20.1	189.180	-0.090	-0.050	1.990
2020/01/31 22:58:20.2	189.190	-0.120	0.030	1.980
2020/01/31 22:58:20.3	189.200	-0.150	0.100	1.970
2020/01/31 22:58:20.4	189.210	-0.180	0.180	1.950
2020/01/31 22:58:20.5	189.230	-0.220	0.250	1.940
2020/01/31 22:58:20.6	189.240	-0.250	0.310	1.920
2020/01/31 22:58:20.7	189.250	-0.280	0.370	1.900
2020/01/31 22:58:20.8	189.260	-0.310	0.430	1.890
2020/01/31 22:58:20.9	189.270	-0.330	0.480	1.870
2020/01/31 22:58:21.0	189.280	-0.360	0.520	1.850
2020/01/31 22:58:21.1	189.310	-0.380	0.560	1.840
2020/01/31 22:58:21.2	189.320	-0.400	0.590	1.820
2020/01/31 22:58:21.3	189.320	-0.410	0.610	1.810
2020/01/31 22:58:21.4	189.330	-0.430	0.620	1.800
2020/01/31 22:58:21.5	189.330	-0.430	0.620	1.790
2020/01/31 22:58:21.6	189.330	-0.440	0.610	1.780
2020/01/31 22:58:21.7	189.330	-0.440	0.600	1.770
2020/01/31 22:58:21.8	189.320	-0.440	0.570	1.770
2020/01/31 22:58:21.9	189.310	-0.430	0.540	1.770
2020/01/31 22:58:22.0	189.300	-0.420	0.500	1.760
2020/01/31 22:58:22.1	189.290	-0.410	0.440	1.760
2020/01/31 22:58:22.2	189.280	-0.390	0.390	1.770
2020/01/31 22:58:22.3	189.260	-0.370	0.330	1.770
2020/01/31 22:58:22.4	189.250	-0.350	0.260	1.770
2020/01/31 22:58:22.5	189.230	-0.320	0.200	1.780
2020/01/31 22:58:22.6	189.220	-0.300	0.120	1.780
2020/01/31 22:58:22.7	189.200	-0.270	0.050	1.790
2020/01/31 22:58:22.8	189.190	-0.240	-0.020	1.790
2020/01/31 22:58:22.9	189.170	-0.210	-0.100	1.790
2020/01/31 22:58:23.0	189.160	-0.180	-0.180	1.800
2020/01/31 22:58:23.1	189.150	-0.150	-0.250	1.800
2020/01/31 22:58:23.2	189.140	-0.120	-0.320	1.800
2020/01/31 22:58:23.3	189.130	-0.090	-0.390	1.810
2020/01/31 22:58:23.4	189.120	-0.060	-0.450	1.810
2020/01/31 22:58:23.5	189.110	-0.040	-0.520	1.810
2020/01/31 22:58:23.6	189.100	-0.010	-0.580	1.820
2020/01/31 22:58:23.7	189.100	0.010	-0.630	1.820
2020/01/31 22:58:23.8	189.090	0.030	-0.680	1.820
2020/01/31 22:58:23.9	189.090	0.050	-0.720	1.820
2020/01/31 22:58:24.0	189.090	0.060	-0.750	1.820
2020/01/31 22:58:24.1	189.090	0.070	-0.790	1.820
2020/01/31 22:58:24.2	189.090	0.080	-0.810	1.820
2020/01/31 22:58:24.3	189.090	0.080	-0.820	1.810
2020/01/31 22:58:24.4	189.100	0.080	-0.830	1.810
2020/01/31 22:58:24.5	189.110	0.080	-0.830	1.800
2020/01/31 22:58:24.6	189.120	0.080	-0.830	1.790
2020/01/31 22:58:24.7	189.140	0.070	-0.810	1.780
2020/01/31 22:58:24.8	189.160	0.060	-0.790	1.760
2020/01/31 22:58:24.9	189.180	0.050	-0.760	1.750
2020/01/31 22:58:25.0	189.200	0.030	-0.730	1.730
2020/01/31 22:58:25.1	189.240	0.010	-0.690	1.710
2020/01/31 22:58:25.2	189.270	-0.010	-0.640	1.690
2020/01/31 22:58:25.3	189.300	-0.030	-0.590	1.660
2020/01/31 22:58:25.4	189.330	-0.050	-0.540	1.630
2020/01/31 22:58:25.5	189.360	-0.070	-0.480	1.600
2020/01/31 22:58:25.6	189.400	-0.100	-0.420	1.570
2020/01/31 22:58:25.7	189.430	-0.120	-0.350	1.530
2020/01/31 22:58:25.8	189.470	-0.150	-0.290	1.500
2020/01/31 22:58:25.9	189.500	-0.170	-0.230	1.460
2020/01/31 22:58:26.0	189.540	-0.200	-0.160	1.430
2020/01/31 22:58:26.1	189.580	-0.220	-0.100	1.390
2020/01/31 22:58:26.2	189.620	-0.240	-0.040	1.360
2020/01/31 22:58:26.3	189.650	-0.260	0.020	1.330
2020/01/31 22:58:26.4	189.690	-0.280	0.070	1.290
2020/01/31 22:58:26.5	189.720	-0.290	0.130	1.260
2020/01/31 22:58:26.6	189.750	-0.300	0.170	1.230
2020/01/31 22:58:26.7	189.780	-0.310	0.210	1.210
2020/01/31 22:58:26.8	189.810	-0.320	0.250	1.190
2020/01/31 22:58:26.9	189.840	-0.330	0.280	1.160
2020/01/31 22:58:27.0	189.870	-0.330	0.310	1.150
2020/01/31 22:58:27.1	189.880	-0.330	0.330	1.130
2020/01/31 22:58:27.2	189.910	-0.320	0.340	1.110
2020/01/31 22:58:27.3	189.930	-0.320	0.350	1.100
2020/01/31 22:58:27.4	189.950	-0.310	0.350	1.100
2020/01/31 22:58:27.5	189.970	-0.290	0.350	1.090
2020/01/31 22:58:27.6	189.980	-0.280	0.340	1.090
2020/01/31 22:58:27.7	190.000	-0.260	0.330	1.090
2020/01/31 22:58:27.8	190.010	-0.240	0.310	1.090
2020/01/31 22:58:27.9	190.030	-0.210	0.290	1.100
2020/01/31 22:58:28.0	190.040	-0.190	0.260	1.100
2020/01/31 22:58:28.1	190.030	-0.160	0.230	1.110
2020/01/31 22:58:28.2	190.030	-0.130	0.190	1.120
2020/01/31 22:58:28.3	190.040	-0.090	0.150	1.120
2020/01/31 22:58:28.4	190.040	-0.060	0.110	1.130
2020/01/31 22:58:28.5	190.040	-0.020	0.070	1.140
2020/01/31 22:58:28.6	190.040	0.020	0.020	1.150
2020/01/31 22:58:28.7	190.040	0.050	-0.020	1.150
2020/01/31 22:58:28.8	190.040	0.090	-0.070	1.160
2020/01/31 22:58:28.9	190.040	0.130	-0.120	1.160
2020/01/31 22:58:29.0	190.030	0.170	-0.160	1.170
2020/01/31 22:58:29.1	190.040	0.210	-0.210	1.180
2020/01/31 22:58:29.2	190.030	0.250	-0.260	1.180
2020/01/31 22:58:29.3	190.020	0.290	-0.300	1.180
2020/01/31 22:58:29.4	190.010	0.320	-0.350	1.190
2020/01/31 22:58:29.5	189.990	0.360	-0.390	1.190
2020/01/31 22:58:29.6	189.980	0.390	-0.430	1.200
2020/01/31 22:58:29.7	189.970	0.420	-0.460	1.210
2020/01/31 22:58:29.8	189.950	0.440	-0.490	1.220
2020/01/31 22:58:29.9	189.930	0.470	-0.520	1.230
2020/01/31 22:58:30.0	189.920	0.490	-0.550	1.240
2020/01/31 22:58:30.1	189.900	0.500	-0.570	1.250
2020/01/31 22:58:30.2	189.880	0.520	-0.590	1.270
2020/01/31 22:58:30.3	189.860	0.520	-0.600	1.290
2020/01/31 22:58:30.4	189.850	0.530	-0.610	1.310
2020/01/31 22:58:30.5	189.830	0.530	-0.620	1.330
2020/01/31 22:58:30.6	189.810	0.520	-0.620	1.360
2020/01/31 22:58:30.7	189.790	0.510	-0.620	1.380
2020/01/31 22:58:30.8	189.770	0.500	-0.620	1.410
2020/01/31 22:58:30.9	189.760	0.480	-0.610	1.440
2020/01/31 22:58:31.0	189.740	0.460	-0.600	1.470
2020/01/31 22:58:31.1	189.720	0.440	-0.590	1.510
2020/01/31 22:58:31.2	189.710	0.410	-0.580	1.540
2020/01/31 22:58:31.3	189.710	0.370	-0.560	1.580
2020/01/31 22:58:31.4	189.700	0.340	-0.530	1.620
2020/01/31 22:58:31.5	189.700	0.300	-0.510	1.660
2020/01/31 22:58:31.6	189.700	0.250	-0.480	1.700
2020/01/31 22:58:31.7	189.710	0.210	-0.450	1.740
2020/01/31 22:58:31.8	189.710	0.160	-0.410	1.780
2020/01/31 22:58:31.9	189.720	0.110	-0.380	1.820
2020/01/31 22:58:32.0	189.720	0.070	-0.340	1.870
2020/01/31 22:58:32.1	189.710	0.020	-0.310	1.910
2020/01/31 22:58:32.2	189.720	-0.030	-0.270	1.950
2020/01/31 22:58:32.3	189.730	-0.080	-0.220	1.990
2020/01/31 22:58:32.4	189.750	-0.130	-0.180	2.030
2020/01/31 22:58:32.5	189.760	-0.170	-0.140	2.060
2020/01/31 22:58:32.6	189.770	-0.220	-0.100	2.100
2020/01/31 22:58:32.7	189.790	-0.260	-0.060	2.130
2020/01/31 22:58:32.8	189.800	-0.290	-0.020	2.160
2020/01/31 22:58:32.9	189.820	-0.330	0.020	2.190
2020/01/31 22:58:33.0	189.830	-0.360	0.060	2.220
2020/01/31 22:58:33.1	189.840	-0.390	0.100	2.240
2020/01/31 22:58:33.2	189.850	-0.410	0.130	2.260
2020/01/31 22:58:33.3	189.860	-0.420	0.150	2.280
2020/01/31 22:58:33.4	189.870	-0.440	0.180	2.300
2020/01/31 22:58:33.5	189.880	-0.440	0.190	2.320
2020/01/31 22:58:33.6	189.880	-0.450	0.210	2.330
2020/01/31 22:58:33.7	189.890	-0.440	0.210	2.350
2020/01/31 22:58:33.8	189.890	-0.430	0.220	2.360
2020/01/31 22:58:33.9	189.890	-0.420	0.210	2.370
2020/01/31 22:58:34.0	189.880	-0.400	0.200	2.380
2020/01/31 22:58:34.1	189.880	-0.370	0.180	2.390
2020/01/31 22:58:34.2	189.870	-0.340	0.150	2.390
2020/01/31 22:58:34.3	189.850	-0.310	0.120	2.400
2020/01/31 22:58:34.4	189.840	-0.270	0.080	2.400
2020/01/31 22:58:34.5	189.820	-0.220	0.040	2.410
2020/01/31 22:58:34.6	189.790	-0.170	-0.010	2.410
2020/01/31 22:58:34.7	189.770	-0.120	-0.070	2.410
2020/01/31 22:58:34.8	189.740	-0.060	-0.130	2.410
2020/01/31 22:58:34.9	189.710	-0.010	-0.200	2.410
2020/01/31 22:58:35.0	189.680	0.050	-0.270	2.400
2020/01/31 22:58:35.1	189.660	0.110	-0.340	2.400
2020/01/31 22:58:35.2	189.620	0.180	-0.410	2.390
2020/01/31 22:58:35.3	189.590	0.240	-0.480	2.370
2020/01/31 22:58:35.4	189.560	0.300	-0.550	2.350
2020/01/31 22:58:35.5	189.520	0.360	-0.620	2.330
2020/01/31 22:58:35.6	189.490	0.420	-0.690	2.300
2020/01/31 22:58:35.7	189.460	0.470	-0.750	2.270
2020/01/31 22:58:35.8	189.430	0.530	-0.800	2.240
2020/01/31 22:58:35.9	189.400	0.580	-0.850	2.200
2020/01/31 22:58:36.0	189.370	0.620	-0.900	2.160
2020/01/31 22:58:36.1	189.340	0.660	-0.930	2.110
2020/01/31 22:58:36.2	189.320	0.700	-0.960	2.060
2020/01/31 22:58:36.3	189.300	0.730	-0.980	2.010
2020/01/31 22:58:36.4	189.280	0.760	-0.990	1.950
2020/01/31 22:58:36.5	189.260	0.780	-1.000	1.900
2020/01/31 22:58:36.6	189.250	0.790	-0.990	1.830
2020/01/31 22:58:36.7	189.240	0.800	-0.980	1.770
2020/01/31 22:58:36.8	189.230	0.800	-0.950	1.710
2020/01/31 22:58:36.9	189.220	0.790	-0.920	1.650
2020/01/31 22:58:37.0	189.220	0.780	-0.890	1.580
2020/01/31 22:58:37.1	189.230	0.760	-0.840	1.520
2020/01/31 22:58:37.2	189.230	0.730	-0.790	1.450
2020/01/31 22:58:37.3	189.240	0.700	-0.730	1.390
2020/01/31 22:58:37.4	189.250	0.660	-0.670	1.330
2020/01/31 22:58:37.5	189.270	0.620	-0.610	1.260
2020/01/31 22:58:37.6	189.290	0.570	-0.540	1.200
2020/01/31 22:58:37.7	189.310	0.520	-0.470	1.140
2020/01/31 22:58:37.8	189.340	0.460	-0.400	1.090
2020/01/31 22:58:37.9	189.380	0.390	-0.330	1.030
2020/01/31 22:58:38.0	189.410	0.330	-0.250	0.980
2020/01/31 22:58:38.1	189.470	0.260	-0.180	0.920
2020/01/31 22:58:38.2	189.510	0.180	-0.100	0.870
2020/01/31 22:58:38.3	189.560	0.110	-0.030	0.830
2020/01/31 22:58:38.4	189.620	0.030	0.040	0.780
2020/01/31 22:58:38.5	189.670	-0.050	0.110	0.740
2020/01/31 22:58:38.6	189.730	-0.130	0.180	0.700
2020/01/31 22:58:38.7	189.790	-0.210	0.240	0.660
2020/01/31 22:58:38.8	189.860	-0.290	0.300	0.630
2020/01/31 22:58:38.9	189.920	-0.360	0.350	0.590
2020/01/31 22:58:39.0	189.980	-0.440	0.390	0.570
2020/01/31 22:58:39.1	190.050	-0.510	0.430	0.540
2020/01/31 22:58:39.2	190.110	-0.580	0.460	0.530
2020/01/31 22:58:39.3	190.170	-0.640	0.490	0.510
2020/01/31 22:58:39.4	190.220	-0.710	0.500	0.500
2020/01/31 22:58:39.5	190.280	-0.760	0.510	0.500
2020/01/31 22:58:39.6	190.330	-0.810	0.510	0.500
2020/01/31 22:58:39.7	190.380	-0.850	0.500	0.510
2020/01/31 22:58:39.8	190.420	-0.890	0.480	0.520
2020/01/31 22:58:39.9	190.460	-0.920	0.460	0.540
2020/01/31 22:58:40.0	190.500	-0.940	0.420	0.560
2020/01/31 22:58:40.1	190.540	-0.950	0.370	0.580
2020/01/31 22:58:40.2	190.570	-0.960	0.320	0.610
2020/01/31 22:58:40.3	190.590	-0.960	0.260	0.640
2020/01/31 22:58:40.4	190.610	-0.950	0.190	0.670
2020/01/31 22:58:40.5	190.620	-0.930	0.120	0.710
2020/01/31 22:58:40.6	190.630	-0.910	0.040	0.740
2020/01/31 22:58:40.7	190.640	-0.870	-0.040	0.780
2020/01/31 22:58:40.8	190.640	-0.830	-0.130	0.820
2020/01/31 22:58:40.9	190.630	-0.790	-0.220	0.860
2020/01/31 22:58:41.0	190.620	-0.730	-0.320	0.910
2020/01/31 22:58:41.1	190.590	-0.670	-0.410	0.950
2020/01/31 22:58:41.2	190.580	-0.610	-0.510	1.000
2020/01/31 22:58:41.3	190.560	-0.540	-0.610	1.040
2020/01/31 22:58:41.4	190.530	-0.470	-0.700	1.090
2020/01/31 22:58:41.5	190.510	-0.390	-0.800	1.140
2020/01/31 22:58:41.6	190.480	-0.320	-0.880	1.190
2020/01/31 22:58:41.7	190.450	-0.240	-0.970	1.230
2020/01/31 22:58:41.8	190.410	-0.160	-1.050	1.280
2020/01/31 22:58:41.9	190.380	-0.080	-1.120	1.330
2020/01/31 22:58:42.0	190.340	-0.010	-1.190	1.370
2020/01/31 22:58:42.1	190.290	0.070	-1.240	1.420
2020/01/31 22:58:42.2	190.250	0.140	-1.290	1.460
2020/01/31 22:58:42.3	190.210	0.210	-1.330	1.510
2020/01/31 22:58:42.4	190.170	0.270	-1.360	1.550
2020/01/31 22:58:42.5	190.140	0.330	-1.380	1.590
2020/01/31 22:58:42.6	190.100	0.380	-1.390	1.630
2020/01/31 22:58:42.7	190.060	0.430	-1.400	1.670
2020/01/31 22:58:42.8	190.020	0.470	-1.390	1.700
2020/01/31 22:58:42.9	189.990	0.510	-1.370	1.740
2020/01/31 22:58:43.0	189.950	0.540	-1.340	1.770
2020/01/31 22:58:43.1	189.930	0.560	-1.310	1.800
2020/01/31 22:58:43.2	189.890	0.570	-1.270	1.830
2020/01/31 22:58:43.3	189.860	0.570	-1.210	1.860
2020/01/31 22:58:43.4	189.830	0.570	-1.160	1.890
2020/01/31 22:58:43.5	189.800	0.560	-1.090	1.920
2020/01/31 22:58:43.6	189.770	0.550	-1.020	1.940
2020/01/31 22:58:43.7	189.750	0.520	-0.940	1.970
2020/01/31 22:58:43.8	189.720	0.490	-0.860	1.990
2020/01/31 22:58:43.9	189.700	0.460	-0.780	2.010
2020/01/31 22:58:44.0	189.680	0.410	-0.690	2.030
2020/01/31 22:58:44.1	189.680	0.370	-0.600	2.060
2020/01/31 22:58:44.2	189.660	0.310	-0.510	2.080
2020/01/31 22:58:44.3	189.640	0.260	-0.410	2.100
2020/01/31 22:58:44.4	189.630	0.190	-0.310	2.120
2020/01/31 22:58:44.5	189.610	0.130	-0.220	2.140
2020/01/31 22:58:44.6	189.600	0.060	-0.120	2.160
2020/01/31 22:58:44.7	189.590	-0.010	-0.030	2.170
2020/01/31 22:58:44.8	189.580	-0.080	0.060	2.190
2020/01/31 22:58:44.9	189.580	-0.150	0.150	2.200
2020/01/31 22:58:45.0	189.570	-0.220	0.240	2.220
2020/01/31 22:58:45.1	189.560	-0.290	0.320	2.230
2020/01/31 22:58:45.2	189.560	-0.360	0.410	2.240
2020/01/31 22:58:45.3	189.560	-0.420	0.480	2.240
2020/01/31 22:58:45.4	189.560	-0.490	0.560	2.250
2020/01/31 22:58:45.5	189.570	-0.550	0.630	2.250
2020/01/31 22:58:45.6	189.580	-0.600	0.700	2.250
2020/01/31 22:58:45.7	189.590	-0.660	0.770	2.250
2020/01/31 22:58:45.8	189.610	-0.700	0.830	2.250
2020/01/31 22:58:45.9	189.620	-0.750	0.880	2.240
2020/01/31 22:58:46.0	189.640	-0.780	0.940	2.220
2020/01/31 22:58:46.1	189.680	-0.810	0.990	2.210
2020/01/31 22:58:46.2	189.700	-0.840	1.030	2.180
2020/01/31 22:58:46.3	189.730	-0.860	1.070	2.160
2020/01/31 22:58:46.4	189.760	-0.870	1.100	2.130
2020/01/31 22:58:46.5	189.790	-0.880	1.120	2.100
2020/01/31 22:58:46.6	189.820	-0.880	1.140	2.060
2020/01/31 22:58:46.7	189.860	-0.870	1.160	2.020
2020/01/31 22:58:46.8	189.890	-0.860	1.160	1.980
2020/01/31 22:58:46.9	189.930	-0.830	1.160	1.940
2020/01/31 22:58:47.0	189.960	-0.810	1.150	1.890
2020/01/31 22:58:47.1	190.000	-0.780	1.130	1.840
2020/01/31 22:58:47.2	190.040	-0.740	1.110	1.790
2020/01/31 22:58:47.3	190.070	-0.690	1.080	1.740
2020/01/31 22:58:47.4	190.100	-0.650	1.030	1.690
2020/01/31 22:58:47.5	190.140	-0.590	0.980	1.640
2020/01/31 22:58:47.6	190.170	-0.530	0.930	1.580
2020/01/31 22:58:47.7	190.190	-0.470	0.860	1.530
2020/01/31 22:58:47.8	190.220	-0.400	0.790	1.480
2020/01/31 22:58:47.9	190.240	-0.330	0.700	1.430
2020/01/31 22:58:48.0	190.260	-0.260	0.620	1.380
2020/01/31 22:58:48.1	190.270	-0.180	0.520	1.320
2020/01/31 22:58:48.2	190.290	-0.100	0.420	1.280
2020/01/31 22:58:48.3	190.300	-0.020	0.320	1.230
2020/01/31 22:58:48.4	190.310	0.060	0.210	1.190
2020/01/31 22:58:48.5	190.320	0.140	0.090	1.150
2020/01/31 22:58:48.6	190.320	0.220	-0.030	1.110
2020/01/31 22:58:48.7	190.320	0.300	-0.150	1.070
2020/01/31 22:58:48.8	190.320	0.380	-0.270	1.040
2020/01/31 22:58:48.9	190.310	0.460	-0.390	1.020
2020/01/31 22:58:49.0	190.300	0.530	-0.500	0.990
2020/01/31 22:58:49.1	190.290	0.610	-0.620	0.970
2020/01/31 22:58:49.2	190.270	0.680	-0.730	0.960
2020/01/31 22:58:49.3	190.250	0.740	-0.840	0.940
2020/01/31 22:58:49.4	190.230	0.810	-0.940	0.930
2020/01/31 22:58:49.5	190.200	0.860	-1.040	0.930
2020/01/31 22:58:49.6	190.170	0.920	-1.130	0.920
2020/01/31 22:58:49.7	190.140	0.960	-1.210	0.920
2020/01/31 22:58:49.8	190.110	1.010	-1.280	0.920
2020/01/31 22:58:49.9	190.080	1.040	-1.350	0.930
2020/01/31 22:58:50.0	190.050	1.070	-1.400	0.930
2020/01/31 22:58:50.1	190.020	1.090	-1.440	0.930
2020/01/31 22:58:50.2	189.990	1.110	-1.470	0.930
2020/01/31 22:58:50.3	189.960	1.120	-1.490	0.940
2020/01/31 22:58:50.4	189.930	1.120	-1.500	0.940
2020/01/31 22:58:50.5	189.910	1.120	-1.490	0.950
2020/01/31 22:58:50.6	189.890	1.100	-1.470	0.950
2020/01/31 22:58:50.7	189.880	1.090	-1.440	0.960
2020/01/31 22:58:50.8	189.860	1.060	-1.400	0.960
2020/01/31 22:58:50.9	189.850	1.030	-1.350	0.960
2020/01/31 22:58:51.0	189.850	0.990	-1.290	0.960
2020/01/31 22:58:51.1	189.850	0.940	-1.220	0.970
2020/01/31 22:58:51.2	189.860	0.890	-1.150	0.970
2020/01/31 22:58:51.3	189.860	0.830	-1.060	0.970
2020/01/31 22:58:51.4	189.870	0.770	-0.980	0.970
2020/01/31 22:58:51.5	189.880	0.710	-0.880	0.980
2020/01/31 22:58:51.6	189.900	0.630	-0.790	0.980
2020/01/31 22:58:51.7	189.910	0.560	-0.690	0.980
2020/01/31 22:58:51.8	189.930	0.490	-0.600	0.990
2020/01/31 22:58:51.9	189.960	0.410	-0.500	1.000
2020/01/31 22:58:52.0	189.980	0.330	-0.410	1.010
2020/01/31 22:58:52.1	189.990	0.250	-0.320	1.020
2020/01/31 22:58:52.2	190.010	0.170	-0.230	1.030
2020/01/31 22:58:52.3	190.040	0.090	-0.150	1.050
2020/01/31 22:58:52.4	190.070	0.010	-0.070	1.060
2020/01/31 22:58:52.5	190.100	-0.070	0.000	1.080
2020/01/31 22:58:52.6	190.130	-0.150	0.070	1.100
2020/01/31 22:58:52.7	190.160	-0.220	0.130	1.120
2020/01/31 22:58:52.8	190.190	-0.290	0.180	1.140
2020/01/31 22:58:52.9	190.220	-0.360	0.220	1.170
2020/01/31 22:58:53.0	190.240	-0.420	0.250	1.190
2020/01/31 22:58:53.1	190.280	-0.470	0.280	1.230
2020/01/31 22:58:53.2	190.300	-0.530	0.300	1.260
2020/01/31 22:58:53.3	190.320	-0.570	0.310	1.290
2020/01/31 22:58:53.4	190.340	-0.610	0.310	1.320
2020/01/31 22:58:53.5	190.360	-0.650	0.300	1.360
2020/01/31 22:58:53.6	190.380	-0.680	0.290	1.400
2020/01/31 22:58:53.7	190.390	-0.700	0.270	1.430
2020/01/31 22:58:53.8	190.400	-0.720	0.240	1.470
2020/01/31 22:58:53.9	190.410	-0.740	0.210	1.510
2020/01/31 22:58:54.0	190.410	-0.740	0.170	1.560
2020/01/31 22:58:54.1	190.400	-0.740	0.130	1.600
2020/01/31 22:58:54.2	190.400	-0.740	0.080	1.640
2020/01/31 22:58:54.3	190.400	-0.730	0.040	1.690
2020/01/31 22:58:54.4	190.390	-0.720	-0.020	1.730
2020/01/31 22:58:54.5	190.380	-0.700	-0.070	1.770
2020/01/31 22:58:54.6	190.370	-0.680	-0.130	1.810
2020/01/31 22:58:54.7	190.360	-0.650	-0.180	1.860
2020/01/31 22:58:54.8	190.340	-0.630	-0.240	1.900
2020/01/31 22:58:54.9	190.320	-0.590	-0.300	1.940
2020/01/31 22:58:55.0	190.300	-0.560	-0.360	1.980
2020/01/31 22:58:55.1	190.280	-0.520	-0.420	2.020
2020/01/31 22:58:55.2	190.250	-0.480	-0.480	2.060
2020/01/31 22:58:55.3	190.220	-0.440	-0.540	2.100
2020/01/31 22:58:55.4	190.190	-0.390	-0.600	2.140
2020/01/31 22:58:55.5	190.150	-0.350	-0.650	2.180
2020/01/31 22:58:55.6	190.110	-0.300	-0.700	2.210
2020/01/31 22:58:55.7	190.070	-0.260	-0.760	2.240
2020/01/31 22:58:55.8	190.020	-0.210	-0.800	2.280
2020/01/31 22:58:55.9	189.980	-0.160	-0.850	2.310
2020/01/31 22:58:56.0	189.930	-0.120	-0.890	2.340
2020/01/31 22:58:56.1	189.900	-0.070	-0.920	2.370
2020/01/31 22:58:56.2	189.840	-0.030	-0.950	2.390
2020/01/31 22:58:56.3	189.790	0.010	-0.980	2.420
2020/01/31 22:58:56.4	189.740	0.060	-1.000	2.440
2020/01/31 22:58:56.5	189.680	0.100	-1.010	2.470
2020/01/31 22:58:56.6	189.630	0.130	-1.020	2.490
2020/01/31 22:58:56.7	189.570	0.170	-1.020	2.500
2020/01/31 22:58:56.8	189.520	0.200	-1.010	2.520
2020/01/31 22:58:56.9	189.460	0.230	-1.000	2.530
2020/01/31 22:58:57.0	189.410	0.260	-0.970	2.540
2020/01/31 22:58:57.1	189.350	0.290	-0.950	2.550
2020/01/31 22:58:57.2	189.300	0.310	-0.910	2.550
2020/01/31 22:58:57.3	189.250	0.330	-0.860	2.550
2020/01/31 22:58:57.4	189.210	0.350	-0.810	2.540
2020/01/31 22:58:57.5	189.170	0.360	-0.750	2.530
2020/01/31 22:58:57.6	189.140	0.380	-0.690	2.520
2020/01/31 22:58:57.7	189.110	0.380	-0.620	2.500
2020/01/31 22:58:57.8	189.080	0.390	-0.540	2.470
2020/01/31 22:58:57.9	189.070	0.390	-0.460	2.440
2020/01/31 22:58:58.0	189.050	0.390	-0.380	2.400
2020/01/31 22:58:58.1	189.050	0.380	-0.290	2.360
2020/01/31 22:58:58.2	189.040	0.380	-0.200	2.320
2020/01/31 22:58:58.3	189.040	0.370	-0.110	2.270
2020/01/31 22:58:58.4	189.040	0.360	-0.020	2.220
2020/01/31 22:58:58.5	189.040	0.340	0.070	2.170
2020/01/31 22:58:58.6	189.050	0.330	0.160	2.110
2020/01/31 22:58:58.7	189.060	0.310	0.250	2.050
2020/01/31 22:58:58.8	189.070	0.290	0.330	1.990
2020/01/31 22:58:58.9	189.090	0.270	0.410	1.930
2020/01/31 22:58:59.0	189.110	0.250	0.480	1.870
2020/01/31 22:58:59.1	189.100	0.220	0.550	1.800
2020/01/31 22:58:59.2	189.120	0.200	0.610	1.730
2020/01/31 22:58:59.3	189.140	0.170	0.660	1.670
2020/01/31 22:58:59.4	189.170	0.150	0.710	1.610
2020/01/31 22:58:59.5	189.190	0.120	0.740	1.550
2020/01/31 22:58:59.6	189.210	0.100	0.770	1.480
2020/01/31 22:58:59.7	189.240	0.070	0.800	1.430
2020/01/31 22:58:59.8	189.260	0.050	0.810	1.370
2020/01/31 22:58:59.9	189.280	0.020	0.820	1.320
2020/01/31 22:59:00.0	189.310	-0.000	0.810	1.260
2020/01/31 22:59:00.1	189.350	-0.020	0.800	1.220
2020/01/31 22:59:00.2	189.370	-0.040	0.780	1.170
2020/01/31 22:59:00.3	189.390	-0.070	0.760	1.130
2020/01/31 22:59:00.4	189.420	-0.080	0.730	1.100
2020/01/31 22:59:00.5	189.440	-0.100	0.690	1.060
2020/01/31 22:59:00.6	189.460	-0.120	0.640	1.040
2020/01/31 22:59:00.7	189.490	-0.130	0.590	1.010
2020/01/31 22:59:00.8	189.510	-0.150	0.530	0.990
2020/01/31 22:59:00.9	189.530	-0.160	0.470	0.980
2020/01/31 22:59:01.0	189.560	-0.170	0.410	0.970
2020/01/31 22:59:01.1	189.570	-0.180	0.340	0.960
2020/01/31 22:59:01.2	189.590	-0.190	0.270	0.950
2020/01/31 22:59:01.3	189.610	-0.200	0.200	0.950
2020/01/31 22:59:01.4	189.630	-0.200	0.120	0.950
2020/01/31 22:59:01.5	189.650	-0.200	0.050	0.960
2020/01/31 22:59:01.6	189.670	-0.210	-0.020	0.970
2020/01/31 22:59:01.7	189.690	-0.210	-0.100	0.980
2020/01/31 22:59:01.8	189.710	-0.210	-0.170	0.990
2020/01/31 22:59:01.9	189.730	-0.210	-0.240	1.010
2020/01/31 22:59:02.0	189.740	-0.210	-0.310	1.030
2020/01/31 22:59:02.1	189.740	-0.200	-0.380	1.050
2020/01/31 22:59:02.2	189.750	-0.200	-0.440	1.070
2020/01/31 22:59:02.3	189.760	-0.190	-0.500	1.100
2020/01/31 22:59:02.4	189.770	-0.180	-0.550	1.120
2020/01/31 22:59:02.5	189.770	-0.180	-0.610	1.140
2020/01/31 22:59:02.6	189.780	-0.170	-0.650	1.170
2020/01/31 22:59:02.7	189.780	-0.160	-0.700	1.190
2020/01/31 22:59:02.8	189.780	-0.150	-0.740	1.220
2020/01/31 22:59:02.9	189.790	-0.140	-0.770	1.240
2020/01/31 22:59:03.0	189.790	-0.120	-0.810	1.270
2020/01/31 22:59:03.1	189.780	-0.110	-0.830	1.290
2020/01/31 22:59:03.2	189.780	-0.100	-0.850	1.310
2020/01/31 22:59:03.3	189.780	-0.080	-0.870	1.330
2020/01/31 22:59:03.4	189.780	-0.070	-0.890	1.340
2020/01/31 22:59:03.5	189.780	-0.050	-0.900	1.360
2020/01/31 22:59:03.6	189.780	-0.040	-0.910	1.370
2020/01/31 22:59:03.7	189.780	-0.030	-0.910	1.390
2020/01/31 22:59:03.8	189.780	-0.010	-0.910	1.400
2020/01/31 22:59:03.9	189.780	0.000	-0.910	1.410
2020/01/31 22:59:04.0	189.780	0.020	-0.900	1.420
2020/01/31 22:59:04.1	189.800	0.030	-0.890	1.440
2020/01/31 22:59:04.2	189.800	0.050	-0.880	1.450
2020/01/31 22:59:04.3	189.800	0.060	-0.860	1.460
2020/01/31 22:59:04.4	189.810	0.070	-0.840	1.470
2020/01/31 22:59:04.5	189.810	0.080	-0.820	1.480
2020/01/31 22:59:04.6	189.810	0.100	-0.800	1.490
2020/01/31 22:59:04.7	189.810	0.110	-0.780	1.500
2020/01/31 22:59:04.8	189.810	0.120	-0.750	1.510
2020/01/31 22:59:04.9	189.810	0.130	-0.730	1.520
2020/01/31 22:59:05.0	189.810	0.140	-0.700	1.530
2020/01/31 22:59:05.1	189.800	0.150	-0.670	1.540
2020/01/31 22:59:05.2	189.800	0.160	-0.640	1.560
2020/01/31 22:59:05.3	189.790	0.170	-0.620	1.570
2020/01/31 22:59:05.4	189.790	0.180	-0.590	1.570
2020/01/31 22:59:05.5	189.780	0.180	-0.560	1.580
2020/01/31 22:59:05.6	189.770	0.190	-0.530	1.590
2020/01/31 22:59:05.7	189.760	0.200	-0.500	1.600
2020/01/31 22:59:05.8	189.750	0.210	-0.480	1.610
2020/01/31 22:59:05.9	189.740	0.210	-0.450	1.610
2020/01/31 22:59:06.0	189.730	0.220	-0.430	1.610
2020/01/31 22:59:06.1	189.710	0.220	-0.410	1.610
2020/01/31 22:59:06.2	189.700	0.230	-0.380	1.620
2020/01/31 22:59:06.3	189.690	0.230	-0.360	1.620
2020/01/31 22:59:06.4	189.680	0.230	-0.340	1.620
2020/01/31 22:59:06.5	189.660	0.240	-0.320	1.610
2020/01/31 22:59:06.6	189.650	0.240	-0.310	1.610
2020/01/31 22:59:06.7	189.640	0.240	-0.290	1.610
2020/01/31 22:59:06.8	189.620	0.240	-0.280	1.610
2020/01/31 22:59:06.9	189.610	0.240	-0.260	1.600
2020/01/31 22:59:07.0	189.590	0.240	-0.250	1.590
2020/01/31 22:59:07.1	189.570	0.240	-0.240	1.590
2020/01/31 22:59:07.2	189.550	0.240	-0.230	1.580
2020/01/31 22:59:07.3	189.540	0.240	-0.220	1.570
2020/01/31 22:59:07.4	189.520	0.240	-0.210	1.560
2020/01/31 22:59:07.5	189.510	0.230	-0.200	1.550
2020/01/31 22:59:07.6	189.500	0.230	-0.190	1.540
2020/01/31 22:59:07.7	189.490	0.220	-0.180	1.530
2020/01/31 22:59:07.8	189.470	0.220	-0.180	1.510
2020/01/31 22:59:07.9	189.460	0.210	-0.170	1.500
2020/01/31 22:59:08.0	189.460	0.210	-0.160	1.480
2020/01/31 22:59:08.1	189.450	0.200	-0.160	1.460
2020/01/31 22:59:08.2	189.450	0.190	-0.150	1.440
2020/01/31 22:59:08.3	189.440	0.180	-0.140	1.420
2020/01/31 22:59:08.4	189.440	0.170	-0.130	1.400
2020/01/31 22:59:08.5	189.440	0.160	-0.120	1.380
2020/01/31 22:59:08.6	189.440	0.150	-0.110	1.360
2020/01/31 22:59:08.7	189.440	0.130	-0.100	1.340
2020/01/31 22:59:08.8	189.440	0.120	-0.090	1.320
2020/01/31 22:59:08.9	189.440	0.100	-0.080	1.300
2020/01/31 22:59:09.0	189.450	0.090	-0.070	1.280
2020/01/31 22:59:09.1	189.450	0.070	-0.050	1.260
2020/01/31 22:59:09.2	189.460	0.050	-0.040	1.250
2020/01/31 22:59:09.3	189.470	0.030	-0.030	1.230
2020/01/31 22:59:09.4	189.470	0.020	-0.020	1.220
2020/01/31 22:59:09.5	189.480	-0.010	-0.010	1.210
2020/01/31 22:59:09.6	189.490	-0.030	0.000	1.200
2020/01/31 22:59:09.7	189.500	-0.050	0.010	1.200
2020/01/31 22:59:09.8	189.500	-0.070	0.020	1.190
2020/01/31 22:59:09.9	189.510	-0.090	0.030	1.190
2020/01/31 22:59:10.0	189.510	-0.110	0.030	1.200
2020/01/31 22:59:10.1	189.520	-0.130	0.030	1.200
2020/01/31 22:59:10.2	189.530	-0.160	0.030	1.210
2020/01/31 22:59:10.3	189.530	-0.180	0.030	1.220
2020/01/31 22:59:10.4	189.530	-0.200	0.030	1.240
2020/01/31 22:59:10.5	189.530	-0.220	0.020	1.250
2020/01/31 22:59:10.6	189.530	-0.240	0.010	1.280
2020/01/31 22:59:10.7	189.520	-0.260	0.000	1.300
2020/01/31 22:59:10.8	189.520	-0.270	-0.010	1.330
2020/01/31 22:59:10.9	189.510	-0.290	-0.030	1.360
2020/01/31 22:59:11.0	189.500	-0.310	-0.050	1.400
2020/01/31 22:59:11.1	189.490	-0.320	-0.070	1.450
2020/01/31 22:59:11.2	189.470	-0.330	-0.090	1.490
2020/01/31 22:59:11.3	189.450	-0.340	-0.120	1.530
2020/01/31 22:59:11.4	189.430	-0.350	-0.140	1.580
2020/01/31 22:59:11.5	189.410	-0.360	-0.170	1.630
2020/01/31 22:59:11.6	189.390	-0.370	-0.200	1.670
2020/01/31 22:59:11.7	189.370	-0.380	-0.230	1.720
2020/01/31 22:59:11.8	189.340	-0.380	-0.250	1.770
2020/01/31 22:59:11.9	189.310	-0.380	-0.280	1.820
2020/01/31 22:59:12.0	189.290	-0.390	-0.300	1.870
2020/01/31 22:59:12.1	189.270	-0.390	-0.330	1.920
2020/01/31 22:59:12.2	189.240	-0.390	-0.350	1.970
2020/01/31 22:59:12.3	189.210	-0.390	-0.370	2.020
2020/01/31 22:59:12.4	189.190	-0.380	-0.380	2.060
2020/01/31 22:59:12.5	189.160	-0.380	-0.400	2.100
2020/01/31 22:59:12.6	189.140	-0.380	-0.400	2.140
2020/01/31 22:59:12.7	189.120	-0.370	-0.410	2.180
2020/01/31 22:59:12.8	189.100	-0.360	-0.410	2.210
2020/01/31 22:59:12.9	189.080	-0.350	-0.410	2.240
2020/01/31 22:59:13.0	189.060	-0.340	-0.410	2.270
2020/01/31 22:59:13.1	189.060	-0.330	-0.400	2.290
2020/01/31 22:59:13.2	189.050	-0.320	-0.390	2.300
2020/01/31 22:59:13.3	189.040	-0.310	-0.380	2.310
2020/01/31 22:59:13.4	189.030	-0.290	-0.360	2.320
2020/01/31 22:59:13.5	189.030	-0.280	-0.340	2.310
2020/01/31 22:59:13.6	189.040	-0.260	-0.310	2.310
2020/01/31 22:59:13.7	189.040	-0.240	-0.280	2.290
2020/01/31 22:59:13.8	189.050	-0.220	-0.250	2.270
2020/01/31 22:59:13.9	189.060	-0.200	-0.220	2.250
2020/01/31 22:59:14.0	189.080	-0.180	-0.190	2.220
2020/01/31 22:59:14.1	189.090	-0.160	-0.150	2.180
2020/01/31 22:59:14.2	189.120	-0.140	-0.120	2.140
2020/01/31 22:59:14.3	189.140	-0.110	-0.080	2.100
2020/01/31 22:59:14.4	189.170	-0.090	-0.050	2.050
2020/01/31 22:59:14.5	189.200	-0.060	-0.010	1.990
2020/01/31 22:59:14.6	189.230	-0.030	0.020	1.930
2020/01/31 22:59:14.7	189.260	-0.010	0.060	1.870
2020/01/31 22:59:14.8	189.290	0.020	0.090	1.810
2020/01/31 22:59:14.9	189.330	0.050	0.120	1.740
2020/01/31 22:59:15.0	189.360	0.070	0.140	1.670
2020/01/31 22:59:15.1	189.410	0.100	0.160	1.590
2020/01/31 22:59:15.2	189.450	0.130	0.180	1.520
2020/01/31 22:59:15.3	189.480	0.150	0.190	1.450
2020/01/31 22:59:15.4	189.520	0.180	0.210	1.380
2020/01/31 22:59:15.5	189.550	0.200	0.210	1.320
2020/01/31 22:59:15.6	189.590	0.220	0.210	1.250
2020/01/31 22:59:15.7	189.630	0.250	0.210	1.190
2020/01/31 22:59:15.8	189.660	0.270	0.200	1.130
2020/01/31 22:59:15.9	189.690	0.290	0.180	1.080
2020/01/31 22:59:16.0	189.720	0.310	0.160	1.020
2020/01/31 22:59:16.1	189.760	0.330	0.140	0.980
2020/01/31 22:59:16.2	189.790	0.350	0.110	0.930
2020/01/31 22:59:16.3	189.810	0.370	0.080	0.890
2020/01/31 22:59:16.4	189.840	0.380	0.030	0.850
2020/01/31 22:59:16.5	189.860	0.400	-0.010	0.820
2020/01/31 22:59:16.6	189.880	0.410	-0.060	0.790
2020/01/31 22:59:16.7	189.900	0.430	-0.120	0.770
2020/01/31 22:59:16.8	189.910	0.440	-0.170	0.740
2020/01/31 22:59:16.9	189.920	0.450	-0.230	0.730
2020/01/31 22:59:17.0	189.930	0.460	-0.300	0.710
2020/01/31 22:59:17.1	189.930	0.470	-0.360	0.700
2020/01/31 22:59:17.2	189.930	0.480	-0.420	0.690
2020/01/31 22:59:17.3	189.940	0.490	-0.490	0.690
2020/01/31 22:59:17.4	189.930	0.500	-0.560	0.690
2020/01/31 22:59:17.5	189.930	0.500	-0.630	0.700
2020/01/31 22:59:17.6	189.920	0.510	-0.690	0.710
2020/01/31 22:59:17.7	189.910	0.510	-0.760	0.720
2020/01/31 22:59:17.8	189.890	0.520	-0.820	0.740
2020/01/31 22:59:17.9	189.880	0.520	-0.880	0.760
2020/01/31 22:59:18.0	189.860	0.530	-0.940	0.780
2020/01/31 22:59:18.1	189.840	0.530	-0.990	0.810
2020/01/31 22:59:18.2	189.820	0.530	-1.040	0.840
2020/01/31 22:59:18.3	189.800	0.530	-1.080	0.870
2020/01/31 22:59:18.4	189.780	0.530	-1.120	0.910
2020/01/31 22:59:18.5	189.760	0.520	-1.150	0.940
2020/01/31 22:59:18.6	189.730	0.520	-1.170	0.980
2020/01/31 22:59:18.7	189.710	0.510	-1.190	1.010
2020/01/31 22:59:18.8	189.690	0.510	-1.200	1.050
2020/01/31 22:59:18.9	189.670	0.500	-1.200	1.080
2020/01/31 22:59:19.0	189.650	0.480	-1.190	1.120
2020/01/31 22:59:19.1	189.620	0.470	-1.180	1.160
2020/01/31 22:59:19.2	189.610	0.450	-1.150	1.190
2020/01/31 22:59:19.3	189.590	0.430	-1.120	1.230
2020/01/31 22:59:19.4	189.570	0.410	-1.090	1.260
2020/01/31 22:59:19.5	189.560	0.390	-1.040	1.300
2020/01/31 22:59:19.6	189.550	0.360	-0.990	1.330
2020/01/31 22:59:19.7	189.540	0.330	-0.940	1.370
2020/01/31 22:59:19.8	189.530	0.300	-0.870	1.400
2020/01/31 22:59:19.9	189.530	0.260	-0.800	1.430
2020/01/31 22:59:20.0	189.520	0.220	-0.730	1.460
2020/01/31 22:59:20.1	189.520	0.180	-0.650	1.490
2020/01/31 22:59:20.2	189.520	0.140	-0.570	1.520
2020/01/31 22:59:20.3	189.520	0.100	-0.490	1.550
2020/01/31 22:59:20.4	189.520	0.050	-0.410	1.580
2020/01/31 22:59:20.5	189.530	0.000	-0.320	1.610
2020/01/31 22:59:20.6	189.540	-0.040	-0.230	1.630
2020/01/31 22:59:20.7	189.540	-0.090	-0.150	1.660
2020/01/31 22:59:20.8	189.550	-0.140	-0.060	1.680
2020/01/31 22:59:20.9	189.570	-0.200	0.020	1.710
2020/01/31 22:59:21.0	189.580	-0.250	0.090	1.730
2020/01/31 22:59:21.1	189.590	-0.300	0.170	1.750
2020/01/31 22:59:21.2	189.610	-0.350	0.240	1.770
2020/01/31 22:59:21.3	189.620	-0.400	0.300	1.790
2020/01/31 22:59:21.4	189.640	-0.450	0.360	1.800
2020/01/31 22:59:21.5	189.660	-0.500	0.420	1.810
2020/01/31 22:59:21.6	189.680	-0.540	0.470	1.830
2020/01/31 22:59:21.7	189.700	-0.590	0.510	1.840
2020/01/31 22:59:21.8	189.710	-0.630	0.540	1.840
2020/01/31 22:59:21.9	189.730	-0.670	0.570	1.850
2020/01/31 22:59:22.0	189.750	-0.700	0.580	1.850
2020/01/31 22:59:22.1	189.770	-0.730	0.600	1.850
2020/01/31 22:59:22.2	189.790	-0.760	0.600	1.850
2020/01/31 22:59:22.3	189.800	-0.790	0.600	1.860
2020/01/31 22:59:22.4	189.810	-0.810	0.580	1.860
2020/01/31 22:59:22.5	189.830	-0.820	0.560	1.860
2020/01/31 22:59:22.6	189.830	-0.830	0.540	1.860
2020/01/31 22:59:22.7	189.840	-0.840	0.510	1.850
2020/01/31 22:59:22.8	189.850	-0.840	0.470	1.850
2020/01/31 22:59:22.9	189.860	-0.840	0.420	1.850
2020/01/31 22:59:23.0	189.860	-0.830	0.370	1.840
2020/01/31 22:59:23.1	189.870	-0.820	0.320	1.840
2020/01/31 22:59:23.2	189.870	-0.800	0.260	1.830
2020/01/31 22:59:23.3	189.870	-0.780	0.200	1.820
2020/01/31 22:59:23.4	189.870	-0.760	0.140	1.810
2020/01/31 22:59:23.5	189.880	-0.730	0.080	1.800
2020/01/31 22:59:23.6	189.880	-0.690	0.020	1.790
2020/01/31 22:59:23.7	189.880	-0.650	-0.040	1.770
2020/01/31 22:59:23.8	189.880	-0.610	-0.090	1.760
2020/01/31 22:59:23.9	189.880	-0.570	-0.150	1.740
2020/01/31 22:59:24.0	189.880	-0.520	-0.200	1.720
2020/01/31 22:59:24.1	189.890	-0.470	-0.250	1.690
2020/01/31 22:59:24.2	189.890	-0.410	-0.300	1.670
2020/01/31 22:59:24.3	189.880	-0.350	-0.340	1.640
2020/01/31 22:59:24.4	189.880	-0.290	-0.380	1.610
2020/01/31 22:59:24.5	189.880	-0.230	-0.410	1.580
2020/01/31 22:59:24.6	189.880	-0.170	-0.440	1.550
2020/01/31 22:59:24.7	189.870	-0.110	-0.460	1.520
2020/01/31 22:59:24.8	189.860	-0.040	-0.480	1.480
2020/01/31 22:59:24.9	189.850	0.020	-0.500	1.450
2020/01/31 22:59:25.0	189.840	0.090	-0.510	1.410
2020/01/31 22:59:25.1	189.820	0.150	-0.520	1.380
2020/01/31 22:59:25.2	189.810	0.210	-0.520	1.340
2020/01/31 22:59:25.3	189.790	0.280	-0.530	1.310
2020/01/31 22:59:25.4	189.780	0.340	-0.530	1.280
2020/01/31 22:59:25.5	189.760	0.390	-0.520	1.240
2020/01/31 22:59:25.6	189.740	0.450	-0.520	1.210
2020/01/31 22:59:25.7	189.720	0.500	-0.510	1.180
2020/01/31 22:59:25.8	189.700	0.550	-0.510	1.150
2020/01/31 22:59:25.9	189.670	0.600	-0.500	1.130
2020/01/31 22:59:26.0	189.650	0.640	-0.500	1.100
2020/01/31 22:59:26.1	189.630	0.680	-0.490	1.070
2020/01/31 22:59:26.2	189.600	0.710	-0.490	1.040
2020/01/31 22:59:26.3	189.580	0.740	-0.490	1.020
2020/01/31 22:59:26.4	189.560	0.760	-0.480	0.990
2020/01/31 22:59:26.5	189.540	0.780	-0.480	0.970
2020/01/31 22:59:26.6	189.520	0.800	-0.480	0.950
2020/01/31 22:59:26.7	189.510	0.800	-0.470	0.920
2020/01/31 22:59:26.8	189.500	0.800	-0.470	0.900
2020/01/31 22:59:26.9	189.490	0.800	-0.470	0.880
2020/01/31 22:59:27.0	189.480	0.790	-0.470	0.860
2020/01/31 22:59:27.1	189.500	0.770	-0.470	0.850
2020/01/31 22:59:27.2	189.500	0.750	-0.460	0.830
2020/01/31 22:59:27.3	189.500	0.720	-0.460	0.820
2020/01/31 22:59:27.4	189.510	0.680	-0.460	0.820
2020/01/31 22:59:27.5	189.510	0.650	-0.460	0.820
2020/01/31 22:59:27.6	189.520	0.600	-0.460	0.820
2020/01/31 22:59:27.7	189.530	0.550	-0.460	0.830
2020/01/31 22:59:27.8	189.550	0.500	-0.460	0.840
2020/01/31 22:59:27.9	189.560	0.440	-0.460	0.860
2020/01/31 22:59:28.0	189.570	0.390	-0.460	0.890
2020/01/31 22:59:28.1	189.580	0.320	-0.460	0.920
2020/01/31 22:59:28.2	189.590	0.260	-0.460	0.960
2020/01/31 22:59:28.3	189.610	0.190	-0.460	1.000
2020/01/31 22:59:28.4	189.630	0.130	-0.450	1.050
2020/01/31 22:59:28.5	189.640	0.060	-0.450	1.100
2020/01/31 22:59:28.6	189.660	-0.010	-0.450	1.160
2020/01/31 22:59:28.7	189.680	-0.080	-0.450	1.220
2020/01/31 22:59:28.8	189.700	-0.140	-0.450	1.280
2020/01/31 22:59:28.9	189.710	-0.200	-0.440	1.350
2020/01/31 22:59:29.0	189.730	-0.270	-0.440	1.410
2020/01/31 22:59:29.1	189.760	-0.320	-0.430	1.480
2020/01/31 22:59:29.2	189.780	-0.380	-0.430	1.550
2020/01/31 22:59:29.3	189.790	-0.430	-0.420	1.620
2020/01/31 22:59:29.4	189.800	-0.480	-0.410	1.690
2020/01/31 22:59:29.5	189.810	-0.520	-0.400	1.750
2020/01/31 22:59:29.6	189.820	-0.550	-0.390	1.820
2020/01/31 22:59:29.7	189.830	-0.590	-0.370	1.880
2020/01/31 22:59:29.8	189.830	-0.610	-0.360	1.940
2020/01/31 22:59:29.9	189.840	-0.630	-0.340	1.990
2020/01/31 22:59:30.0	189.840	-0.650	-0.320	2.050
2020/01/31 22:59:30.1	189.840	-0.660	-0.310	2.100
2020/01/31 22:59:30.2	189.840	-0.660	-0.290	2.150
2020/01/31 22:59:30.3	189.840	-0.660	-0.260	2.190
2020/01/31 22:59:30.4	189.840	-0.660	-0.240	2.230
2020/01/31 22:59:30.5	189.840	-0.650	-0.210	2.260
2020/01/31 22:59:30.6	189.840	-0.640	-0.180	2.290
2020/01/31 22:59:30.7	189.840	-0.620	-0.150	2.310
2020/01/31 22:59:30.8	189.850	-0.600	-0.120	2.330
2020/01/31 22:59:30.9	189.850	-0.570	-0.090	2.350
2020/01/31 22:59:31.0	189.850	-0.540	-0.050	2.360
2020/01/31 22:59:31.1	189.850	-0.520	-0.020	2.370
2020/01/31 22:59:31.2	189.860	-0.480	0.010	2.370
2020/01/31 22:59:31.3	189.860	-0.450	0.050	2.370
2020/01/31 22:59:31.4	189.860	-0.420	0.080	2.370
2020/01/31 22:59:31.5	189.860	-0.390	0.110	2.370
2020/01/31 22:59:31.6	189.860	-0.350	0.150	2.360
2020/01/31 22:59:31.7	189.870	-0.320	0.180	2.350
2020/01/31 22:59:31.8	189.870	-0.290	0.200	2.340
2020/01/31 22:59:31.9	189.870	-0.250	0.230	2.330
2020/01/31 22:59:32.0	189.870	-0.220	0.250	2.310
2020/01/31 22:59:32.1	189.880	-0.190	0.270	2.290
2020/01/31 22:59:32.2	189.880	-0.160	0.280	2.280
2020/01/31 22:59:32.3	189.880	-0.130	0.290	2.250
2020/01/31 22:59:32.4	189.880	-0.110	0.290	2.230
2020/01/31 22:59:32.5	189.880	-0.080	0.290	2.210
2020/01/31 22:59:32.6	189.880	-0.060	0.280	2.180
2020/01/31 22:59:32.7	189.880	-0.040	0.270	2.150
2020/01/31 22:59:32.8	189.880	-0.020	0.260	2.120
2020/01/31 22:59:32.9	189.880	0.000	0.240	2.080
2020/01/31 22:59:33.0	189.880	0.020	0.210	2.050
2020/01/31 22:59:33.1	189.880	0.030	0.180	2.010
2020/01/31 22:59:33.2	189.880	0.040	0.150	1.970
2020/01/31 22:59:33.3	189.880	0.060	0.110	1.940
2020/01/31 22:59:33.4	189.880	0.070	0.070	1.900
2020/01/31 22:59:33.5	189.880	0.080	0.030	1.860
2020/01/31 22:59:33.6	189.870	0.080	-0.020	1.820
2020/01/31 22:59:33.7	189.870	0.090	-0.060	1.780
2020/01/31 22:59:33.8	189.870	0.100	-0.110	1.750
2020/01/31 22:59:33.9	189.870	0.100	-0.160	1.720
2020/01/31 22:59:34.0	189.860	0.110	-0.210	1.690
2020/01/31 22:59:34.1	189.840	0.110	-0.250	1.660
2020/01/31 22:59:34.2	189.840	0.120	-0.300	1.630
2020/01/31 22:59:34.3	189.830	0.120	-0.350	1.610
2020/01/31 22:59:34.4	189.820	0.130	-0.390	1.590
2020/01/31 22:59:34.5	189.810	0.140	-0.440	1.570
2020/01/31 22:59:34.6	189.800	0.140	-0.480	1.560
2020/01/31 22:59:34.7	189.780	0.150	-0.520	1.550
2020/01/31 22:59:34.8	189.770	0.160	-0.560	1.540
2020/01/31 22:59:34.9	189.750	0.170	-0.590	1.540
2020/01/31 22:59:35.0	189.730	0.180	-0.620	1.540
2020/01/31 22:59:35.1	189.710	0.190	-0.650	1.540
2020/01/31 22:59:35.2	189.680	0.200	-0.670	1.540
2020/01/31 22:59:35.3	189.660	0.220	-0.690	1.540
2020/01/31 22:59:35.4	189.630	0.230	-0.710	1.550
2020/01/31 22:59:35.5	189.610	0.250	-0.710	1.550
2020/01/31 22:59:35.6	189.580	0.260	-0.720	1.560
2020/01/31 22:59:35.7	189.550	0.280	-0.720	1.560
2020/01/31 22:59:35.8	189.520	0.290	-0.710	1.570
2020/01/31 22:59:35.9	189.500	0.310	-0.710	1.570
2020/01/31 22:59:36.0	189.470	0.330	-0.690	1.570
2020/01/31 22:59:36.1	189.450	0.340	-0.670	1.580
2020/01/31 22:59:36.2	189.430	0.360	-0.650	1.580
2020/01/31 22:59:36.3	189.400	0.370	-0.620	1.570
2020/01/31 22:59:36.4	189.380	0.380	-0.590	1.570
2020/01/31 22:59:36.5	189.360	0.400	-0.560	1.560
2020/01/31 22:59:36.6	189.340	0.410	-0.530	1.550
2020/01/31 22:59:36.7	189.330	0.420	-0.490	1.530
2020/01/31 22:59:36.8	189.310	0.420	-0.450	1.520
2020/01/31 22:59:36.9	189.300	0.430	-0.410	1.500
2020/01/31 22:59:37.0	189.290	0.430	-0.360	1.470
2020/01/31 22:59:37.1	189.300	0.430	-0.330	1.450
2020/01/31 22:59:37.2	189.290	0.420	-0.280	1.420
2020/01/31 22:59:37.3	189.300	0.420	-0.240	1.390
2020/01/31 22:59:37.4	189.300	0.410	-0.200	1.350
2020/01/31 22:59:37.5	189.310	0.390	-0.160	1.320
2020/01/31 22:59:37.6	189.330	0.380	-0.120	1.280
2020/01/31 22:59:37.7	189.350	0.360	-0.080	1.240
2020/01/31 22:59:37.8	189.370	0.340	-0.040	1.200
2020/01/31 22:59:37.9	189.390	0.310	-0.010	1.150
2020/01/31 22:59:38.0	189.420	0.280	0.020	1.110
2020/01/31 22:59:38.1	189.430	0.250	0.060	1.070
2020/01/31 22:59:38.2	189.470	0.220	0.080	1.030
2020/01/31 22:59:38.3	189.500	0.180	0.100	1.000
2020/01/31 22:59:38.4	189.540	0.140	0.110	0.960
2020/01/31 22:59:38.5	189.580	0.110	0.120	0.930
2020/01/31 22:59:38.6	189.620	0.070	0.130	0.910
2020/01/31 22:59:38.7	189.660	0.030	0.130	0.880
2020/01/31 22:59:38.8	189.700	-0.010	0.120	0.860
2020/01/31 22:59:38.9	189.740	-0.060	0.110	0.850
2020/01/31 22:59:39.0	189.780	-0.100	0.100	0.840
2020/01/31 22:59:39.1	189.830	-0.130	0.070	0.830
2020/01/31 22:59:39.2	189.870	-0.170	0.050	0.820
2020/01/31 22:59:39.3	189.910	-0.210	0.020	0.820
2020/01/31 22:59:39.4	189.940	-0.240	-0.020	0.830
2020/01/31 22:59:39.5	189.980	-0.270	-0.060	0.840
2020/01/31 22:59:39.6	190.010	-0.300	-0.100	0.850
2020/01/31 22:59:39.7	190.040	-0.330	-0.150	0.860
2020/01/31 22:59:39.8	190.070	-0.350	-0.200	0.880
2020/01/31 22:59:39.9	190.090	-0.360	-0.250	0.900
2020/01/31 22:59:40.0	190.110	-0.380	-0.310	0.920
2020/01/31 22:59:40.1	190.110	-0.390	-0.370	0.950
2020/01/31 22:59:40.2	190.120	-0.390	-0.430	0.970
2020/01/31 22:59:40.3	190.130	-0.390	-0.490	1.000
2020/01/31 22:59:40.4	190.140	-0.390	-0.550	1.030
2020/01/31 22:59:40.5	190.140	-0.380	-0.620	1.060
2020/01/31 22:59:40.6	190.140	-0.370	-0.680	1.090
2020/01/31 22:59:40.7	190.140	-0.350	-0.740	1.120
2020/01/31 22:59:40.8	190.140	-0.330	-0.790	1.150
2020/01/31 22:59:40.9	190.130	-0.310	-0.850	1.180
2020/01/31 22:59:41.0	190.120	-0.290	-0.900	1.210
2020/01/31 22:59:41.1	190.110	-0.260	-0.950	1.240
2020/01/31 22:59:41.2	190.090	-0.230	-0.990	1.270
2020/01/31 22:59:41.3	190.080	-0.200	-1.030	1.300
2020/01/31 22:59:41.4	190.070	-0.170	-1.060	1.330
2020/01/31 22:59:41.5	190.050	-0.140	-1.080	1.360
2020/01/31 22:59:41.6	190.030	-0.110	-1.100	1.390
2020/01/31 22:59:41.7	190.020	-0.080	-1.110	1.420
2020/01/31 22:59:41.8	190.000	-0.050	-1.110	1.450
2020/01/31 22:59:41.9	189.990	-0.020	-1.110	1.480
2020/01/31 22:59:42.0	189.970	0.010	-1.090	1.510
2020/01/31 22:59:42.1	189.960	0.030	-1.070	1.540
2020/01/31 22:59:42.2	189.940	0.050	-1.040	1.570
2020/01/31 22:59:42.3	189.930	0.070	-1.010	1.590
2020/01/31 22:59:42.4	189.920	0.080	-0.970	1.620
2020/01/31 22:59:42.5	189.910	0.100	-0.920	1.650
2020/01/31 22:59:42.6	189.900	0.100	-0.860	1.680
2020/01/31 22:59:42.7	189.890	0.110	-0.800	1.700
2020/01/31 22:59:42.8	189.880	0.110	-0.740	1.730
2020/01/31 22:59:42.9	189.880	0.110	-0.670	1.750
2020/01/31 22:59:43.0	189.870	0.100	-0.600	1.770
2020/01/31 22:59:43.1	189.870	0.090	-0.520	1.800
2020/01/31 22:59:43.2	189.870	0.080	-0.450	1.820
2020/01/31 22:59:43.3	189.870	0.070	-0.360	1.840
2020/01/31 22:59:43.4	189.870	0.050	-0.280	1.850
2020/01/31 22:59:43.5	189.870	0.030	-0.200	1.870
2020/01/31 22:59:43.6	189.870	0.000	-0.120	1.880
2020/01/31 22:59:43.7	189.870	-0.020	-0.030	1.890
2020/01/31 22:59:43.8	189.870	-0.050	0.050	1.900
2020/01/31 22:59:43.9	189.880	-0.080	0.130	1.900
2020/01/31 22:59:44.0	189.890	-0.110	0.210	1.900
2020/01/31 22:59:44.1	189.900	-0.140	0.280	1.900
2020/01/31 22:59:44.2	189.900	-0.170	0.360	1.900
2020/01/31 22:59:44.3	189.910	-0.200	0.420	1.890
2020/01/31 22:59:44.4	189.920	-0.230	0.490	1.880
2020/01/31 22:59:44.5	189.930	-0.260	0.550	1.870
2020/01/31 22:59:44.6	189.940	-0.290	0.610	1.860
2020/01/31 22:59:44.7	189.950	-0.320	0.660	1.850
2020/01/31 22:59:44.8	189.950	-0.350	0.710	1.830
2020/01/31 22:59:44.9	189.960	-0.370	0.750	1.820
2020/01/31 22:59:45.0	189.970	-0.390	0.790	1.810
2020/01/31 22:59:45.1	189.970	-0.410	0.820	1.800
2020/01/31 22:59:45.2	189.980	-0.430	0.840	1.790
2020/01/31 22:59:45.3	189.980	-0.440	0.860	1.780
2020/01/31 22:59:45.4	189.980	-0.450	0.860	1.770
2020/01/31 22:59:45.5	189.970	-0.450	0.860	1.770
2020/01/31 22:59:45.6	189.970	-0.450	0.850	1.760
2020/01/31 22:59:45.7	189.960	-0.450	0.830	1.760
2020/01/31 22:59:45.8	189.940	-0.440	0.800	1.760
2020/01/31 22:59:45.9	189.930	-0.430	0.770	1.770
2020/01/31 22:59:46.0	189.910	-0.410	0.720	1.770
2020/01/31 22:59:46.1	189.890	-0.390	0.670	1.780
2020/01/31 22:59:46.2	189.870	-0.360	0.610	1.780
2020/01/31 22:59:46.3	189.840	-0.330	0.550	1.790
2020/01/31 22:59:46.4	189.820	-0.300	0.480	1.800
2020/01/31 22:59:46.5	189.790	-0.260	0.400	1.810
2020/01/31 22:59:46.6	189.760	-0.220	0.320	1.820
2020/01/31 22:59:46.7	189.740	-0.180	0.240	1.830
2020/01/31 22:59:46.8	189.710	-0.130	0.150	1.830
2020/01/31 22:59:46.9	189.680	-0.090	0.070	1.840
2020/01/31 22:59:47.0	189.650	-0.040	-0.020	1.850
2020/01/31 22:59:47.1	189.640	0.010	-0.110	1.860
2020/01/31 22:59:47.2	189.620	0.060	-0.190	1.860
2020/01/31 22:59:47.3	189.590	0.110	-0.270	1.860
2020/01/31 22:59:47.4	189.570	0.160	-0.350	1.860
2020/01/31 22:59:47.5	189.550	0.200	-0.430	1.860
2020/01/31 22:59:47.6	189.530	0.250	-0.500	1.860
2020/01/31 22:59:47.7	189.510	0.290	-0.560	1.860
2020/01/31 22:59:47.8	189.490	0.340	-0.620	1.860
2020/01/31 22:59:47.9	189.470	0.370	-0.680	1.850
2020/01/31 22:59:48.0	189.460	0.410	-0.730	1.850
2020/01/31 22:59:48.1	189.450	0.440	-0.770	1.850
2020/01/31 22:59:48.2	189.440	0.470	-0.810	1.840
2020/01/31 22:59:48.3	189.430	0.500	-0.840	1.840
2020/01/31 22:59:48.4	189.420	0.520	-0.860	1.830
2020/01/31 22:59:48.5	189.420	0.530	-0.880	1.830
2020/01/31 22:59:48.6	189.410	0.550	-0.890	1.820
2020/01/31 22:59:48.7	189.410	0.560	-0.890	1.810
2020/01/31 22:59:48.8	189.410	0.560	-0.890	1.810
2020/01/31 22:59:48.9	189.400	0.560	-0.890	1.800
2020/01/31 22:59:49.0	189.400	0.560	-0.880	1.790
2020/01/31 22:59:49.1	189.410	0.550	-0.870	1.780
2020/01/31 22:59:49.2	189.410	0.540	-0.850	1.780
2020/01/31 22:59:49.3	189.410	0.530	-0.840	1.770
2020/01/31 22:59:49.4	189.410	0.510	-0.820	1.760
2020/01/31 22:59:49.5	189.410	0.490	-0.800	1.750
2020/01/31 22:59:49.6	189.410	0.470	-0.770	1.740
2020/01/31 22:59:49.7	189.410	0.440	-0.750	1.730
2020/01/31 22:59:49.8	189.420	0.420	-0.730	1.720
2020/01/31 22:59:49.9	189.420	0.390	-0.700	1.710
2020/01/31 22:59:50.0	189.420	0.360	-0.680	1.690
2020/01/31 22:59:50.1	189.420	0.320	-0.650	1.670
2020/01/31 22:59:50.2	189.430	0.290	-0.630	1.660
2020/01/31 22:59:50.3	189.430	0.260	-0.600	1.640
2020/01/31 22:59:50.4	189.440	0.230	-0.570	1.630
2020/01/31 22:59:50.5	189.460	0.190	-0.550	1.610
2020/01/31 22:59:50.6	189.470	0.160	-0.520	1.590
2020/01/31 22:59:50.7	189.490	0.120	-0.500	1.570
2020/01/31 22:59:50.8	189.500	0.090	-0.470	1.540
2020/01/31 22:59:50.9	189.530	0.060	-0.450	1.520
2020/01/31 22:59:51.0	189.550	0.020	-0.420	1.490
2020/01/31 22:59:51.1	189.570	-0.010	-0.390	1.470
2020/01/31 22:59:51.2	189.600	-0.040	-0.370	1.440
2020/01/31 22:59:51.3	189.630	-0.070	-0.340	1.420
2020/01/31 22:59:51.4	189.660	-0.090	-0.320	1.390
2020/01/31 22:59:51.5	189.690	-0.120	-0.290	1.360
2020/01/31 22:59:51.6	189.720	-0.140	-0.270	1.340
2020/01/31 22:59:51.7	189.760	-0.160	-0.250	1.310
2020/01/31 22:59:51.8	189.800	-0.180	-0.230	1.280
2020/01/31 22:59:51.9	189.830	-0.200	-0.200	1.260
2020/01/31 22:59:52.0	189.870	-0.210	-0.180	1.230
2020/01/31 22:59:52.1	189.900	-0.230	-0.170	1.200
2020/01/31 22:59:52.2	189.940	-0.240	-0.150	1.180
2020/01/31 22:59:52.3	189.970	-0.250	-0.130	1.160
2020/01/31 22:59:52.4	190.010	-0.260	-0.110	1.140
2020/01/31 22:59:52.5	190.040	-0.260	-0.100	1.120
2020/01/31 22:59:52.6	190.080	-0.270	-0.090	1.110
2020/01/31 22:59:52.7	190.110	-0.270	-0.070	1.090
2020/01/31 22:59:52.8	190.130	-0.270	-0.060	1.090
2020/01/31 22:59:52.9	190.160	-0.270	-0.050	1.080
2020/01/31 22:59:53.0	190.180	-0.270	-0.050	1.080
2020/01/31 22:59:53.1	190.210	-0.260	-0.040	1.080
2020/01/31 22:59:53.2	190.230	-0.260	-0.040	1.080
2020/01/31 22:59:53.3	190.240	-0.250	-0.040	1.090
2020/01/31 22:59:53.4	190.250	-0.250	-0.040	1.090
2020/01/31 22:59:53.5	190.260	-0.240	-0.040	1.110
2020/01/31 22:59:53.6	190.270	-0.230	-0.040	1.120
2020/01/31 22:59:53.7	190.270	-0.220	-0.040	1.140
2020/01/31 22:59:53.8	190.270	-0.210	-0.050	1.150
2020/01/31 22:59:53.9	190.270	-0.210	-0.060	1.170
2020/01/31 22:59:54.0	190.270	-0.200	-0.060	1.200
2020/01/31 22:59:54.1	190.270	-0.190	-0.070	1.220
2020/01/31 22:59:54.2	190.260	-0.180	-0.080	1.240
2020/01/31 22:59:54.3	190.250	-0.170	-0.090	1.260
2020/01/31 22:59:54.4	190.240	-0.160	-0.100	1.290
2020/01/31 22:59:54.5	190.240	-0.150	-0.120	1.310
2020/01/31 22:59:54.6	190.230	-0.140	-0.130	1.330
2020/01/31 22:59:54.7	190.220	-0.140	-0.140	1.360
2020/01/31 22:59:54.8	190.200	-0.130	-0.150	1.380
2020/01/31 22:59:54.9	190.190	-0.120	-0.160	1.400
2020/01/31 22:59:55.0	190.180	-0.120	-0.170	1.420
2020/01/31 22:59:55.1	190.160	-0.110	-0.170	1.440
2020/01/31 22:59:55.2	190.150	-0.110	-0.180	1.460
2020/01/31 22:59:55.3	190.140	-0.100	-0.190	1.480
2020/01/31 22:59:55.4	190.130	-0.100	-0.200	1.500
2020/01/31 22:59:55.5	190.110	-0.090	-0.210	1.520
2020/01/31 22:59:55.6	190.100	-0.090	-0.220	1.530
2020/01/31 22:59:55.7	190.090	-0.090	-0.220	1.550
2020/01/31 22:59:55.8	190.080	-0.080	-0.230	1.570
2020/01/31 22:59:55.9	190.060	-0.080	-0.240	1.580
2020/01/31 22:59:56.0	190.050	-0.070	-0.250	1.600
2020/01/31 22:59:56.1	190.040	-0.060	-0.270	1.610
2020/01/31 22:59:56.2	190.020	-0.060	-0.280	1.630
2020/01/31 22:59:56.3	190.000	-0.050	-0.290	1.640
2020/01/31 22:59:56.4	189.990	-0.040	-0.300	1.650
2020/01/31 22:59:56.5	189.970	-0.030	-0.310	1.660
2020/01/31 22:59:56.6	189.950	-0.020	-0.330	1.670
2020/01/31 22:59:56.7	189.930	-0.000	-0.340	1.680
2020/01/31 22:59:56.8	189.910	0.010	-0.360	1.690
2020/01/31 22:59:56.9	189.890	0.030	-0.380	1.700
2020/01/31 22:59:57.0	189.860	0.040	-0.400	1.710
2020/01/31 22:59:57.1	189.830	0.060	-0.420	1.720
2020/01/31 22:59:57.2	189.810	0.080	-0.440	1.730
2020/01/31 22:59:57.3	189.780	0.100	-0.460	1.730
2020/01/31 22:59:57.4	189.750	0.120	-0.490	1.730
2020/01/31 22:59:57.5	189.730	0.140	-0.510	1.740
2020/01/31 22:59:57.6	189.700	0.160	-0.540	1.740
2020/01/31 22:59:57.7	189.670	0.180	-0.570	1.740
2020/01/31 22:59:57.8	189.640	0.200	-0.600	1.740
2020/01/31 22:59:57.9	189.610	0.220	-0.620	1.750
2020/01/31 22:59:58.0	189.580	0.240	-0.650	1.750
2020/01/31 22:59:58.1	189.550	0.260	-0.680	1.740
2020/01/31 22:59:58.2	189.530	0.280	-0.700	1.750
2020/01/31 22:59:58.3	189.500	0.290	-0.720	1.750
2020/01/31 22:59:58.4	189.470	0.310	-0.740	1.750
2020/01/31 22:59:58.5	189.450	0.320	-0.760	1.750
2020/01/31 22:59:58.6	189.420	0.320	-0.770	1.750
2020/01/31 22:59:58.7	189.400	0.330	-0.780	1.760
2020/01/31 22:59:58.8	189.380	0.330	-0.780	1.760
2020/01/31 22:59:58.9	189.360	0.330	-0.780	1.770
2020/01/31 22:59:59.0	189.350	0.320	-0.780	1.770
2020/01/31 22:59:59.1	189.340	0.310	-0.770	1.780
2020/01/31 22:59:59.2	189.340	0.290	-0.750	1.790
2020/01/31 22:59:59.3	189.330	0.270	-0.730	1.790
2020/01/31 22:59:59.4	189.320	0.250	-0.700	1.800
2020/01/31 22:59:59.5	189.320	0.220	-0.660	1.810
2020/01/31 22:59:59.6	189.330	0.190	-0.620	1.820
2020/01/31 22:59:59.7	189.330	0.160	-0.570	1.820
2020/01/31 22:59:59.8	189.340	0.120	-0.520	1.830
2020/01/31 22:59:59.9	189.360	0.070	-0.460	1.840
2020/01/31 23:00:00.0	189.370	0.030	-0.400	1.850
2020/01/31 23:00:00.1	189.400	-0.020	-0.330	1.860
2020/01/31 23:00:00.2	189.420	-0.070	-0.260	1.860
2020/01/31 23:00:00.3	189.440	-0.120	-0.190	1.870
2020/01/31 23:00:00.4	189.470	-0.180	-0.110	1.870
2020/01/31 23:00:00.5	189.500	-0.230	-0.030	1.870
2020/01/31 23:00:00.6	189.530	-0.290	0.050	1.870
2020/01/31 23:00:00.7	189.570	-0.350	0.120	1.870
2020/01/31 23:00:00.8	189.610	-0.400	0.200	1.870
2020/01/31 23:00:00.9	189.650	-0.450	0.280	1.870
2020/01/31 23:00:01.0	189.690	-0.510	0.350	1.860
2020/01/31 23:00:01.1	189.730	-0.560	0.420	1.850
2020/01/31 23:00:01.2	189.770	-0.600	0.480	1.840
2020/01/31 23:00:01.3	189.820	-0.650	0.540	1.830
2020/01/31 23:00:01.4	189.860	-0.690	0.590	1.810
2020/01/31 23:00:01.5	189.900	-0.720	0.640	1.790
2020/01/31 23:00:01.6	189.940	-0.750	0.670	1.770
2020/01/31 23:00:01.7	189.980	-0.780	0.700	1.750
2020/01/31 23:00:01.8	190.020	-0.790	0.720	1.730
2020/01/31 23:00:01.9	190.050	-0.810	0.740	1.710
2020/01/31 23:00:02.0	190.090	-0.810	0.740	1.690
2020/01/31 23:00:02.1	190.120	-0.810	0.740	1.660
2020/01/31 23:00:02.2	190.150	-0.800	0.720	1.630
2020/01/31 23:00:02.3	190.180	-0.790	0.700	1.610
2020/01/31 23:00:02.4	190.200	-0.760	0.660	1.580
2020/01/31 23:00:02.5	190.220	-0.740	0.620	1.560
2020/01/31 23:00:02.6	190.230	-0.700	0.570	1.540
2020/01/31 23:00:02.7	190.250	-0.660	0.520	1.520
2020/01/31 23:00:02.8	190.250	-0.620	0.450	1.500
2020/01/31 23:00:02.9	190.260	-0.560	0.390	1.480
2020/01/31 23:00:03.0	190.260	-0.510	0.310	1.460
2020/01/31 23:00:03.1	190.260	-0.450	0.230	1.450
2020/01/31 23:00:03.2	190.250	-0.380	0.150	1.440
2020/01/31 23:00:03.3	190.250	-0.310	0.070	1.430
2020/01/31 23:00:03.4	190.240	-0.240	-0.010	1.420
2020/01/31 23:00:03.5	190.230	-0.170	-0.100	1.410
2020/01/31 23:00:03.6	190.220	-0.100	-0.180	1.410
2020/01/31 23:00:03.7	190.200	-0.020	-0.260	1.410
2020/01/31 23:00:03.8	190.180	0.050	-0.340	1.410
2020/01/31 23:00:03.9	190.170	0.120	-0.410	1.410
2020/01/31 23:00:04.0	190.150	0.190	-0.480	1.410
2020/01/31 23:00:04.1	190.120	0.270	-0.540	1.410
2020/01/31 23:00:04.2	190.100	0.330	-0.600	1.410
2020/01/31 23:00:04.3	190.080	0.400	-0.660	1.410
2020/01/31 23:00:04.4	190.070	0.460	-0.700	1.420
2020/01/31 23:00:04.5	190.050	0.520	-0.750	1.420
2020/01/31 23:00:04.6	190.030	0.570	-0.780	1.420
2020/01/31 23:00:04.7	190.010	0.620	-0.810	1.410
2020/01/31 23:00:04.8	190.000	0.660	-0.820	1.410
2020/01/31 23:00:04.9	189.980	0.700	-0.840	1.410
2020/01/31 23:00:05.0	189.970	0.740	-0.840	1.400
2020/01/31 23:00:05.1	189.950	0.760	-0.840	1.400
2020/01/31 23:00:05.2	189.940	0.790	-0.830	1.390
2020/01/31 23:00:05.3	189.930	0.800	-0.820	1.380
2020/01/31 23:00:05.4	189.920	0.810	-0.790	1.370
2020/01/31 23:00:05.5	189.910	0.820	-0.770	1.360
2020/01/31 23:00:05.6	189.900	0.820	-0.730	1.350
2020/01/31 23:00:05.7	189.890	0.810	-0.700	1.340
2020/01/31 23:00:05.8	189.890	0.800	-0.660	1.330
2020/01/31 23:00:05.9	189.880	0.780	-0.610	1.320
2020/01/31 23:00:06.0	189.870	0.760	-0.570	1.310
2020/01/31 23:00:06.1	189.860	0.740	-0.520	1.300
2020/01/31 23:00:06.2	189.850	0.710	-0.470	1.290
2020/01/31 23:00:06.3	189.850	0.680	-0.430	1.290
2020/01/31 23:00:06.4	189.840	0.640	-0.380	1.280
2020/01/31 23:00:06.5	189.830	0.600	-0.340	1.280
2020/01/31 23:00:06.6	189.830	0.560	-0.290	1.280
2020/01/31 23:00:06.7	189.820	0.520	-0.250	1.280
2020/01/31 23:00:06.8	189.810	0.470	-0.210	1.290
2020/01/31 23:00:06.9	189.810	0.420	-0.170	1.300
2020/01/31 23:00:07.0	189.800	0.380	-0.140	1.310
2020/01/31 23:00:07.1	189.800	0.320	-0.110	1.330
2020/01/31 23:00:07.2	189.800	0.270	-0.080	1.340
2020/01/31 23:00:07.3	189.790	0.220	-0.060	1.370
2020/01/31 23:00:07.4	189.790	0.170	-0.040	1.390
2020/01/31 23:00:07.5	189.790	0.110	-0.020	1.420
2020/01/31 23:00:07.6	189.790	0.060	-0.000	1.450
2020/01/31 23:00:07.7	189.790	0.010	0.010	1.480
2020/01/31 23:00:07.8	189.790	-0.040	0.020	1.510
2020/01/31 23:00:07.9	189.800	-0.090	0.030	1.550
2020/01/31 23:00:08.0	189.800	-0.140	0.030	1.590
2020/01/31 23:00:08.1	189.820	-0.190	0.030	1.620
2020/01/31 23:00:08.2	189.820	-0.230	0.030	1.660
2020/01/31 23:00:08.3	189.830	-0.280	0.020	1.690
2020/01/31 23:00:08.4	189.840	-0.320	0.010	1.730
2020/01/31 23:00:08.5	189.850	-0.350	-0.010	1.760
2020/01/31 23:00:08.6	189.850	-0.390	-0.020	1.790
2020/01/31 23:00:08.7	189.860	-0.420	-0.040	1.810
2020/01/31 23:00:08.8	189.870	-0.440	-0.060	1.840
2020/01/31 23:00:08.9	189.890	-0.470	-0.090	1.860
2020/01/31 23:00:09.0	189.900	-0.490	-0.110	1.870
2020/01/31 23:00:09.1	189.900	-0.500	-0.140	1.890
2020/01/31 23:00:09.2	189.910	-0.510	-0.170	1.900
2020/01/31 23:00:09.3	189.930	-0.520	-0.200	1.900
2020/01/31 23:00:09.4	189.940	-0.520	-0.230	1.910
2020/01/31 23:00:09.5	189.950	-0.520	-0.260	1.900
2020/01/31 23:00:09.6	189.970	-0.520	-0.300	1.900
2020/01/31 23:00:09.7	189.980	-0.510	-0.330	1.890
2020/01/31 23:00:09.8	190.000	-0.490	-0.360	1.870
2020/01/31 23:00:09.9	190.010	-0.470	-0.390	1.850
2020/01/31 23:00:10.0	190.030	-0.450	-0.420	1.830
2020/01/31 23:00:10.1	190.050	-0.420	-0.450	1.810
2020/01/31 23:00:10.2	190.060	-0.390	-0.480	1.780
2020/01/31 23:00:10.3	190.070	-0.360	-0.500	1.750
2020/01/31 23:00:10.4	190.090	-0.330	-0.530	1.720
2020/01/31 23:00:10.5	190.100	-0.290	-0.550	1.680
2020/01/31 23:00:10.6	190.110	-0.240	-0.570	1.650
2020/01/31 23:00:10.7	190.130	-0.200	-0.590	1.610
2020/01/31 23:00:10.8	190.140	-0.160	-0.610	1.570
2020/01/31 23:00:10.9	190.150	-0.110	-0.620	1.540
2020/01/31 23:00:11.0	190.160	-0.060	-0.640	1.500
2020/01/31 23:00:11.1	190.170	-0.010	-0.640	1.460
2020/01/31 23:00:11.2	190.180	0.040	-0.650	1.430
2020/01/31 23:00:11.3	190.190	0.080	-0.650	1.390
2020/01/31 23:00:11.4	190.200	0.130	-0.660	1.360
2020/01/31 23:00:11.5	190.210	0.180	-0.660	1.330
2020/01/31 23:00:11.6	190.210	0.220	-0.650	1.300
2020/01/31 23:00:11.7	190.220	0.260	-0.650	1.270
2020/01/31 23:00:11.8	190.220	0.300	-0.640	1.240
2020/01/31 23:00:11.9	190.220	0.340	-0.630	1.220
2020/01/31 23:00:12.0	190.220	0.370	-0.630	1.200
2020/01/31 23:00:12.1	190.200	0.410	-0.620	1.170
2020/01/31 23:00:12.2	190.200	0.430	-0.610	1.160
2020/01/31 23:00:12.3	190.190	0.460	-0.600	1.140
2020/01/31 23:00:12.4	190.180	0.480	-0.580	1.120
2020/01/31 23:00:12.5	190.170	0.500	-0.570	1.110
2020/01/31 23:00:12.6	190.150	0.510	-0.550	1.100
2020/01/31 23:00:12.7	190.130	0.520	-0.540	1.080
2020/01/31 23:00:12.8	190.120	0.530	-0.530	1.070
2020/01/31 23:00:12.9	190.100	0.530	-0.510	1.060
2020/01/31 23:00:13.0	190.080	0.530	-0.500	1.050
2020/01/31 23:00:13.1	190.050	0.520	-0.480	1.050
2020/01/31 23:00:13.2	190.030	0.510	-0.460	1.040
2020/01/31 23:00:13.3	190.010	0.490	-0.440	1.030
2020/01/31 23:00:13.4	189.990	0.470	-0.430	1.030
2020/01/31 23:00:13.5	189.970	0.450	-0.410	1.030
2020/01/31 23:00:13.6	189.950	0.420	-0.390	1.030
2020/01/31 23:00:13.7	189.940	0.390	-0.360	1.030
2020/01/31 23:00:13.8	189.920	0.350	-0.340	1.040
2020/01/31 23:00:13.9	189.900	0.310	-0.320	1.050
2020/01/31 23:00:14.0	189.890	0.270	-0.290	1.060
2020/01/31 23:00:14.1	189.890	0.220	-0.260	1.080
2020/01/31 23:00:14.2	189.880	0.170	-0.240	1.100
2020/01/31 23:00:14.3	189.870	0.110	-0.210	1.120
2020/01/31 23:00:14.4	189.870	0.050	-0.180	1.150
2020/01/31 23:00:14.5	189.870	-0.010	-0.150	1.180
2020/01/31 23:00:14.6	189.870	-0.070	-0.120	1.220
2020/01/31 23:00:14.7	189.870	-0.130	-0.080	1.260
2020/01/31 23:00:14.8	189.880	-0.190	-0.050	1.300
2020/01/31 23:00:14.9	189.890	-0.260	-0.020	1.340
2020/01/31 23:00:15.0	189.900	-0.320	0.010	1.380
2020/01/31 23:00:15.1	189.920	-0.390	0.040	1.430
2020/01/31 23:00:15.2	189.940	-0.450	0.070	1.480
2020/01/31 23:00:15.3	189.960	-0.510	0.100	1.520
2020/01/31 23:00:15.4	189.980	-0.580	0.130	1.560
2020/01/31 23:00:15.5	190.000	-0.630	0.160	1.600
2020/01/31 23:00:15.6	190.030	-0.690	0.180	1.640
2020/01/31 23:00:15.7	190.060	-0.740	0.210	1.670
2020/01/31 23:00:15.8	190.080	-0.790	0.230	1.710
2020/01/31 23:00:15.9	190.110	-0.840	0.250	1.740
2020/01/31 23:00:16.0	190.140	-0.880	0.270	1.770
2020/01/31 23:00:16.1	190.170	-0.920	0.290	1.790
2020/01/31 23:00:16.2	190.190	-0.950	0.300	1.810
2020/01/31 23:00:16.3	190.220	-0.980	0.310	1.840
2020/01/31 23:00:16.4	190.240	-1.000	0.310	1.860
2020/01/31 23:00:16.5	190.260	-1.010	0.310	1.880
2020/01/31 23:00:16.6	190.280	-1.020	0.300	1.900
2020/01/31 23:00:16.7	190.300	-1.020	0.290	1.920
2020/01/31 23:00:16.8	190.310	-1.020	0.270	1.930
2020/01/31 23:00:16.9	190.320	-1.010	0.250	1.950
2020/01/31 23:00:17.0	190.330	-0.990	0.220	1.960
2020/01/31 23:00:17.1	190.340	-0.970	0.190	1.980
2020/01/31 23:00:17.2	190.340	-0.940	0.150	1.990
2020/01/31 23:00:17.3	190.330	-0.900	0.100	2.010
2020/01/31 23:00:17.4	190.330	-0.850	0.050	2.020
2020/01/31 23:00:17.5	190.320	-0.800	0.000	2.030
2020/01/31 23:00:17.6	190.300	-0.750	-0.060	2.040
2020/01/31 23:00:17.7	190.290	-0.680	-0.120	2.050
2020/01/31 23:00:17.8	190.270	-0.620	-0.180	2.060
2020/01/31 23:00:17.9	190.250	-0.540	-0.250	2.070
2020/01/31 23:00:18.0	190.230	-0.460	-0.310	2.070
2020/01/31 23:00:18.1	190.200	-0.380	-0.380	2.080
2020/01/31 23:00:18.2	190.170	-0.300	-0.450	2.080
2020/01/31 23:00:18.3	190.140	-0.210	-0.510	2.080
2020/01/31 23:00:18.4	190.110	-0.120	-0.580	2.080
2020/01/31 23:00:18.5	190.080	-0.030	-0.640	2.070
2020/01/31 23:00:18.6	190.050	0.060	-0.700	2.060
2020/01/31 23:00:18.7	190.010	0.150	-0.750	2.050
2020/01/31 23:00:18.8	189.980	0.250	-0.800	2.030
2020/01/31 23:00:18.9	189.940	0.340	-0.840	2.010
2020/01/31 23:00:19.0	189.900	0.420	-0.880	1.980
2020/01/31 23:00:19.1	189.880	0.510	-0.910	1.950
2020/01/31 23:00:19.2	189.840	0.590	-0.930	1.920
2020/01/31 23:00:19.3	189.810	0.670	-0.950	1.880
2020/01/31 23:00:19.4	189.780	0.740	-0.960	1.840
2020/01/31 23:00:19.5	189.750	0.800	-0.960	1.800
2020/01/31 23:00:19.6	189.720	0.860	-0.950	1.750
2020/01/31 23:00:19.7	189.690	0.920	-0.940	1.710
2020/01/31 23:00:19.8	189.660	0.960	-0.910	1.660
2020/01/31 23:00:19.9	189.640	1.000	-0.880	1.610
2020/01/31 23:00:20.0	189.620	1.030	-0.850	1.560
2020/01/31 23:00:20.1	189.600	1.050	-0.800	1.500
2020/01/31 23:00:20.2	189.580	1.070	-0.760	1.440
2020/01/31 23:00:20.3	189.560	1.080	-0.700	1.390
2020/01/31 23:00:20.4	189.550	1.070	-0.650	1.340
2020/01/31 23:00:20.5	189.530	1.060	-0.590	1.290
2020/01/31 23:00:20.6	189.520	1.040	-0.520	1.240
2020/01/31 23:00:20.7	189.510	1.020	-0.460	1.200
2020/01/31 23:00:20.8	189.510	0.980	-0.390	1.160
2020/01/31 23:00:20.9	189.500	0.940	-0.320	1.110
2020/01/31 23:00:21.0	189.500	0.900	-0.260	1.080
2020/01/31 23:00:21.1	189.490	0.840	-0.190	1.040
2020/01/31 23:00:21.2	189.490	0.780	-0.130	1.010
2020/01/31 23:00:21.3	189.490	0.720	-0.070	0.990
2020/01/31 23:00:21.4	189.490	0.640	-0.010	0.970
2020/01/31 23:00:21.5	189.490	0.570	0.050	0.950
2020/01/31 23:00:21.6	189.500	0.490	0.110	0.940
2020/01/31 23:00:21.7	189.510	0.410	0.160	0.930
2020/01/31 23:00:21.8	189.520	0.330	0.210	0.920
2020/01/31 23:00:21.9	189.530	0.240	0.250	0.920
2020/01/31 23:00:22.0	189.540	0.150	0.290	0.920
2020/01/31 23:00:22.1	189.560	0.060	0.330	0.930
2020/01/31 23:00:22.2	189.570	-0.020	0.360	0.940
2020/01/31 23:00:22.3	189.590	-0.110	0.390	0.960
2020/01/31 23:00:22.4	189.600	-0.200	0.410	0.980
2020/01/31 23:00:22.5	189.620	-0.280	0.430	1.000
2020/01/31 23:00:22.6	189.640	-0.360	0.440	1.030
2020/01/31 23:00:22.7	189.660	-0.440	0.450	1.060
2020/01/31 23:00:22.8	189.670	-0.510	0.450	1.090
2020/01/31 23:00:22.9	189.690	-0.580	0.450	1.130
2020/01/31 23:00:23.0	189.710	-0.640	0.440	1.170
2020/01/31 23:00:23.1	189.710	-0.700	0.430	1.210
2020/01/31 23:00:23.2	189.730	-0.750	0.420	1.260
2020/01/31 23:00:23.3	189.750	-0.800	0.400	1.310
2020/01/31 23:00:23.4	189.760	-0.840	0.370	1.360
2020/01/31 23:00:23.5	189.770	-0.870	0.350	1.410
2020/01/31 23:00:23.6	189.790	-0.890	0.320	1.460
2020/01/31 23:00:23.7	189.800	-0.910	0.290	1.510
2020/01/31 23:00:23.8	189.810	-0.920	0.250	1.560
2020/01/31 23:00:23.9	189.820	-0.930	0.220	1.610
2020/01/31 23:00:24.0	189.830	-0.920	0.180	1.660
2020/01/31 23:00:24.1	189.840	-0.910	0.140	1.710
2020/01/31 23:00:24.2	189.850	-0.890	0.100	1.760
2020/01/31 23:00:24.3	189.860	-0.870	0.060	1.810
2020/01/31 23:00:24.4	189.860	-0.830	0.020	1.850
2020/01/31 23:00:24.5	189.870	-0.800	-0.020	1.890
2020/01/31 23:00:24.6	189.870	-0.750	-0.060	1.920
2020/01/31 23:00:24.7	189.880	-0.700	-0.100	1.950
2020/01/31 23:00:24.8	189.880	-0.650	-0.140	1.970
2020/01/31 23:00:24.9	189.880	-0.590	-0.180	1.990
2020/01/31 23:00:25.0	189.880	-0.520	-0.220	2.010
2020/01/31 23:00:25.1	189.880	-0.460	-0.250	2.020
2020/01/31 23:00:25.2	189.880	-0.390	-0.290	2.020
2020/01/31 23:00:25.3	189.870	-0.320	-0.320	2.020
2020/01/31 23:00:25.4	189.870	-0.240	-0.350	2.020
2020/01/31 23:00:25.5	189.860	-0.170	-0.380	2.000
2020/01/31 23:00:25.6	189.860	-0.090	-0.400	1.990
2020/01/31 23:00:25.7	189.850	-0.020	-0.430	1.970
2020/01/31 23:00:25.8	189.840	0.050	-0.450	1.950
2020/01/31 23:00:25.9	189.830	0.130	-0.470	1.920
2020/01/31 23:00:26.0	189.830	0.200	-0.480	1.900
2020/01/31 23:00:26.1	189.830	0.270	-0.500	1.870
2020/01/31 23:00:26.2	189.820	0.330	-0.510	1.840
2020/01/31 23:00:26.3	189.810	0.400	-0.520	1.800
2020/01/31 23:00:26.4	189.800	0.450	-0.530	1.770
2020/01/31 23:00:26.5	189.790	0.510	-0.530	1.740
2020/01/31 23:00:26.6	189.780	0.560	-0.540	1.700
2020/01/31 23:00:26.7	189.770	0.610	-0.540	1.670
2020/01/31 23:00:26.8	189.770	0.650	-0.540	1.630
2020/01/31 23:00:26.9	189.760	0.690	-0.540	1.590
2020/01/31 23:00:27.0	189.760	0.720	-0.530	1.550
2020/01/31 23:00:27.1	189.750	0.750	-0.520	1.510
2020/01/31 23:00:27.2	189.750	0.770	-0.520	1.470
2020/01/31 23:00:27.3	189.750	0.790	-0.510	1.430
2020/01/31 23:00:27.4	189.750	0.800	-0.490	1.380
2020/01/31 23:00:27.5	189.750	0.810	-0.480	1.340
2020/01/31 23:00:27.6	189.760	0.810	-0.470	1.300
2020/01/31 23:00:27.7	189.760	0.810	-0.450	1.260
2020/01/31 23:00:27.8	189.770	0.800	-0.430	1.210
2020/01/31 23:00:27.9	189.780	0.790	-0.410	1.170
2020/01/31 23:00:28.0	189.780	0.770	-0.390	1.130
2020/01/31 23:00:28.1	189.800	0.750	-0.370	1.100
2020/01/31 23:00:28.2	189.810	0.720	-0.360	1.060
2020/01/31 23:00:28.3	189.810	0.700	-0.340	1.030
2020/01/31 23:00:28.4	189.820	0.660	-0.320	1.010
2020/01/31 23:00:28.5	189.820	0.630	-0.300	0.980
2020/01/31 23:00:28.6	189.820	0.590	-0.290	0.960
2020/01/31 23:00:28.7	189.820	0.550	-0.270	0.950
2020/01/31 23:00:28.8	189.820	0.510	-0.260	0.940
2020/01/31 23:00:28.9	189.820	0.470	-0.250	0.940
2020/01/31 23:00:29.0	189.810	0.420	-0.240	0.940
2020/01/31 23:00:29.1	189.790	0.380	-0.240	0.950
2020/01/31 23:00:29.2	189.780	0.330	-0.240	0.960
2020/01/31 23:00:29.3	189.770	0.290	-0.240	0.980
2020/01/31 23:00:29.4	189.750	0.240	-0.250	1.010
2020/01/31 23:00:29.5	189.740	0.190	-0.260	1.040
2020/01/31 23:00:29.6	189.720	0.150	-0.270	1.070
2020/01/31 23:00:29.7	189.700	0.100	-0.280	1.110
2020/01/31 23:00:29.8	189.680	0.060	-0.300	1.150
2020/01/31 23:00:29.9	189.660	0.020	-0.320	1.200
2020/01/31 23:00:30.0	189.640	-0.020	-0.350	1.250
2020/01/31 23:00:30.1	189.620	-0.060	-0.370	1.300
2020/01/31 23:00:30.2	189.590	-0.090	-0.400	1.350
2020/01/31 23:00:30.3	189.570	-0.130	-0.430	1.400
2020/01/31 23:00:30.4	189.540	-0.160	-0.470	1.460
2020/01/31 23:00:30.5	189.520	-0.180	-0.500	1.510
2020/01/31 23:00:30.6	189.490	-0.210	-0.530	1.560
2020/01/31 23:00:30.7	189.460	-0.230	-0.570	1.610
2020/01/31 23:00:30.8	189.440	-0.250	-0.600	1.650
2020/01/31 23:00:30.9	189.410	-0.270	-0.630	1.700
2020/01/31 23:00:31.0	189.390	-0.280	-0.660	1.740
2020/01/31 23:00:31.1	189.360	-0.290	-0.690	1.790
2020/01/31 23:00:31.2	189.340	-0.300	-0.720	1.830
2020/01/31 23:00:31.3	189.310	-0.300	-0.740	1.860
2020/01/31 23:00:31.4	189.290	-0.300	-0.760	1.900
2020/01/31 23:00:31.5	189.270	-0.300	-0.770	1.930
2020/01/31 23:00:31.6	189.240	-0.290	-0.790	1.960
2020/01/31 23:00:31.7	189.230	-0.290	-0.800	1.990
2020/01/31 23:00:31.8	189.210	-0.280	-0.800	2.020
2020/01/31 23:00:31.9	189.190	-0.260	-0.800	2.040
2020/01/31 23:00:32.0	189.170	-0.250	-0.800	2.060
2020/01/31 23:00:32.1	189.160	-0.230	-0.790	2.080
2020/01/31 23:00:32.2	189.150	-0.210	-0.770	2.100
2020/01/31 23:00:32.3	189.130	-0.190	-0.760	2.110
2020/01/31 23:00:32.4	189.120	-0.170	-0.740	2.110
2020/01/31 23:00:32.5	189.120	-0.140	-0.720	2.120
2020/01/31 23:00:32.6	189.110	-0.120	-0.690	2.110
2020/01/31 23:00:32.7	189.100	-0.100	-0.660	2.110
2020/01/31 23:00:32.8	189.100	-0.070	-0.630	2.100
2020/01/31 23:00:32.9	189.090	-0.050	-0.600	2.080
2020/01/31 23:00:33.0	189.090	-0.020	-0.560	2.060
2020/01/31 23:00:33.1	189.090	0.000	-0.520	2.040
2020/01/31 23:00:33.2	189.090	0.030	-0.490	2.010
2020/01/31 23:00:33.3	189.100	0.050	-0.450	1.980
2020/01/31 23:00:33.4	189.100	0.070	-0.410	1.940
2020/01/31 23:00:33.5	189.110	0.090	-0.370	1.910
2020/01/31 23:00:33.6	189.120	0.100	-0.340	1.870
2020/01/31 23:00:33.7	189.140	0.120	-0.300	1.830
2020/01/31 23:00:33.8	189.150	0.130	-0.260	1.780
2020/01/31 23:00:33.9	189.160	0.140	-0.230	1.740
2020/01/31 23:00:34.0	189.180	0.140	-0.190	1.700
2020/01/31 23:00:34.1	189.200	0.140	-0.160	1.660
2020/01/31 23:00:34.2	189.220	0.140	-0.130	1.620
2020/01/31 23:00:34.3	189.240	0.140	-0.100	1.580
2020/01/31 23:00:34.4	189.260	0.130	-0.070	1.540
2020/01/31 23:00:34.5	189.280	0.120	-0.040	1.510
2020/01/31 23:00:34.6	189.310	0.110	-0.020	1.480
2020/01/31 23:00:34.7	189.330	0.090	0.010	1.450
2020/01/31 23:00:34.8	189.350	0.070	0.030	1.420
2020/01/31 23:00:34.9	189.380	0.050	0.050	1.400
2020/01/31 23:00:35.0	189.400	0.020	0.060	1.380
2020/01/31 23:00:35.1	189.410	-0.010	0.070	1.370
2020/01/31 23:00:35.2	189.430	-0.040	0.080	1.360
2020/01/31 23:00:35.3	189.450	-0.070	0.100	1.350
2020/01/31 23:00:35.4	189.470	-0.100	0.110	1.340
2020/01/31 23:00:35.5	189.490	-0.140	0.110	1.340
2020/01/31 23:00:35.6	189.510	-0.170	0.120	1.340
2020/01/31 23:00:35.7	189.530	-0.210	0.120	1.340
2020/01/31 23:00:35.8	189.550	-0.240	0.120	1.350
2020/01/31 23:00:35.9	189.560	-0.280	0.120	1.360
2020/01/31 23:00:36.0	189.570	-0.320	0.120	1.370
2020/01/31 23:00:36.1	189.580	-0.350	0.130	1.380
2020/01/31 23:00:36.2	189.590	-0.380	0.120	1.400
2020/01/31 23:00:36.3	189.600	-0.410	0.120	1.420
2020/01/31 23:00:36.4	189.600	-0.440	0.110	1.440
2020/01/31 23:00:36.5	189.600	-0.470	0.100	1.460
2020/01/31 23:00:36.6	189.600	-0.490	0.090	1.490
2020/01/31 23:00:36.7	189.590	-0.520	0.080	1.520
2020/01/31 23:00:36.8	189.590	-0.530	0.060	1.550
2020/01/31 23:00:36.9	189.570	-0.550	0.050	1.580
2020/01/31 23:00:37.0	189.560	-0.560	0.030	1.620
2020/01/31 23:00:37.1	189.530	-0.570	0.010	1.650
2020/01/31 23:00:37.2	189.520	-0.570	-0.010	1.690
2020/01/31 23:00:37.3	189.500	-0.570	-0.030	1.730
2020/01/31 23:00:37.4	189.470	-0.560	-0.060	1.770
2020/01/31 23:00:37.5	189.450	-0.550	-0.080	1.810
2020/01/31 23:00:37.6	189.420	-0.540	-0.100	1.850
2020/01/31 23:00:37.7	189.400	-0.520	-0.120	1.900
2020/01/31 23:00:37.8	189.370	-0.500	-0.140	1.940
2020/01/31 23:00:37.9	189.340	-0.480	-0.170	1.980
2020/01/31 23:00:38.0	189.320	-0.450	-0.190	2.010
2020/01/31 23:00:38.1	189.290	-0.430	-0.200	2.050
2020/01/31 23:00:38.2	189.260	-0.390	-0.220	2.090
2020/01/31 23:00:38.3	189.240	-0.360	-0.230	2.120
2020/01/31 23:00:38.4	189.220	-0.320	-0.250	2.140
2020/01/31 23:00:38.5	189.200	-0.280	-0.260	2.160
2020/01/31 23:00:38.6	189.180	-0.240	-0.270	2.180
2020/01/31 23:00:38.7	189.170	-0.200	-0.280	2.190
2020/01/31 23:00:38.8	189.150	-0.160	-0.280	2.190
2020/01/31 23:00:38.9	189.140	-0.120	-0.280	2.200
2020/01/31 23:00:39.0	189.130	-0.080	-0.280	2.190
2020/01/31 23:00:39.1	189.130	-0.030	-0.280	2.180
2020/01/31 23:00:39.2	189.120	0.010	-0.270	2.170
2020/01/31 23:00:39.3	189.110	0.050	-0.260	2.150
2020/01/31 23:00:39.4	189.100	0.090	-0.250	2.130
2020/01/31 23:00:39.5	189.100	0.130	-0.240	2.100
2020/01/31 23:00:39.6	189.090	0.170	-0.220	2.070
2020/01/31 23:00:39.7	189.090	0.210	-0.200	2.040
2020/01/31 23:00:39.8	189.090	0.250	-0.190	2.010
2020/01/31 23:00:39.9	189.080	0.280	-0.170	1.970
2020/01/31 23:00:40.0	189.080	0.310	-0.160	1.930
2020/01/31 23:00:40.1	189.070	0.350	-0.140	1.890
2020/01/31 23:00:40.2	189.060	0.380	-0.120	1.850
2020/01/31 23:00:40.3	189.060	0.400	-0.110	1.810
2020/01/31 23:00:40.4	189.060	0.430	-0.100	1.760
2020/01/31 23:00:40.5	189.050	0.450	-0.090	1.720
2020/01/31 23:00:40.6	189.050	0.470	-0.090	1.680
2020/01/31 23:00:40.7	189.040	0.490	-0.090	1.640
2020/01/31 23:00:40.8	189.040	0.510	-0.090	1.600
2020/01/31 23:00:40.9	189.030	0.520	-0.090	1.560
2020/01/31 23:00:41.0	189.020	0.540	-0.090	1.530
2020/01/31 23:00:41.1	189.020	0.550	-0.100	1.490
2020/01/31 23:00:41.2	189.010	0.560	-0.110	1.460
2020/01/31 23:00:41.3	189.010	0.570	-0.120	1.430
2020/01/31 23:00:41.4	189.000	0.570	-0.140	1.390
2020/01/31 23:00:41.5	189.000	0.580	-0.150	1.360
2020/01/31 23:00:41.6	188.990	0.580	-0.170	1.340
2020/01/31 23:00:41.7	188.990	0.570	-0.180	1.310
2020/01/31 23:00:41.8	188.990	0.570	-0.200	1.280
2020/01/31 23:00:41.9	188.990	0.560	-0.210	1.260
2020/01/31 23:00:42.0	189.000	0.550	-0.220	1.230
2020/01/31 23:00:42.1	189.010	0.540	-0.230	1.210
2020/01/31 23:00:42.2	189.020	0.520	-0.240	1.190
2020/01/31 23:00:42.3	189.030	0.500	-0.240	1.170
2020/01/31 23:00:42.4	189.050	0.480	-0.240	1.150
2020/01/31 23:00:42.5	189.060	0.460	-0.240	1.140
2020/01/31 23:00:42.6	189.080	0.430	-0.230	1.120
2020/01/31 23:00:42.7	189.110	0.390	-0.220	1.110
2020/01/31 23:00:42.8	189.130	0.360	-0.210	1.110
2020/01/31 23:00:42.9	189.160	0.320	-0.190	1.100
2020/01/31 23:00:43.0	189.190	0.280	-0.170	1.100
2020/01/31 23:00:43.1	189.210	0.230	-0.150	1.100
2020/01/31 23:00:43.2	189.250	0.180	-0.130	1.110
2020/01/31 23:00:43.3	189.280	0.140	-0.110	1.120
2020/01/31 23:00:43.4	189.310	0.090	-0.080	1.130
2020/01/31 23:00:43.5	189.350	0.030	-0.060	1.150
2020/01/31 23:00:43.6	189.380	-0.020	-0.030	1.170
2020/01/31 23:00:43.7	189.420	-0.070	-0.010	1.200
2020/01/31 23:00:43.8	189.460	-0.120	0.010	1.230
2020/01/31 23:00:43.9	189.490	-0.170	0.030	1.260
2020/01/31 23:00:44.0	189.530	-0.220	0.050	1.290
2020/01/31 23:00:44.1	189.570	-0.270	0.070	1.340
2020/01/31 23:00:44.2	189.600	-0.310	0.080	1.380
2020/01/31 23:00:44.3	189.630	-0.350	0.080	1.420
2020/01/31 23:00:44.4	189.660	-0.390	0.080	1.460
2020/01/31 23:00:44.5	189.680	-0.430	0.080	1.500
2020/01/31 23:00:44.6	189.710	-0.460	0.070	1.550
2020/01/31 23:00:44.7	189.730	-0.480	0.050	1.590
2020/01/31 23:00:44.8	189.750	-0.500	0.030	1.630
2020/01/31 23:00:44.9	189.770	-0.510	0.000	1.670
2020/01/31 23:00:45.0	189.780	-0.520	-0.030	1.710
2020/01/31 23:00:45.1	189.790	-0.520	-0.080	1.740
2020/01/31 23:00:45.2	189.800	-0.510	-0.120	1.780
2020/01/31 23:00:45.3	189.800	-0.490	-0.170	1.810
2020/01/31 23:00:45.4	189.800	-0.470	-0.230	1.840
2020/01/31 23:00:45.5	189.790	-0.440	-0.290	1.870
2020/01/31 23:00:45.6	189.780	-0.410	-0.360	1.900
2020/01/31 23:00:45.7	189.770	-0.370	-0.430	1.920
2020/01/31 23:00:45.8	189.760	-0.320	-0.500	1.940
2020/01/31 23:00:45.9	189.740	-0.260	-0.580	1.960
2020/01/31 23:00:46.0	189.720	-0.210	-0.650	1.970
2020/01/31 23:00:46.1	189.690	-0.140	-0.730	1.990
2020/01/31 23:00:46.2	189.670	-0.070	-0.800	2.000
2020/01/31 23:00:46.3	189.640	-0.000	-0.870	2.010
2020/01/31 23:00:46.4	189.620	0.070	-0.940	2.010
2020/01/31 23:00:46.5	189.590	0.140	-1.000	2.020
2020/01/31 23:00:46.6	189.570	0.220	-1.060	2.020
2020/01/31 23:00:46.7	189.540	0.290	-1.110	2.010
2020/01/31 23:00:46.8	189.520	0.370	-1.150	2.010
2020/01/31 23:00:46.9	189.500	0.440	-1.190	2.000
2020/01/31 23:00:47.0	189.480	0.510	-1.210	1.990
2020/01/31 23:00:47.1	189.480	0.580	-1.230	1.970
2020/01/31 23:00:47.2	189.470	0.640	-1.240	1.960
2020/01/31 23:00:47.3	189.450	0.690	-1.240	1.950
2020/01/31 23:00:47.4	189.450	0.750	-1.230	1.930
2020/01/31 23:00:47.5	189.440	0.790	-1.220	1.910
2020/01/31 23:00:47.6	189.440	0.830	-1.190	1.890
2020/01/31 23:00:47.7	189.440	0.870	-1.160	1.870
2020/01/31 23:00:47.8	189.440	0.890	-1.120	1.850
2020/01/31 23:00:47.9	189.440	0.910	-1.070	1.830
2020/01/31 23:00:48.0	189.450	0.920	-1.010	1.800
2020/01/31 23:00:48.1	189.450	0.930	-0.950	1.770
2020/01/31 23:00:48.2	189.460	0.930	-0.890	1.750
2020/01/31 23:00:48.3	189.480	0.920	-0.820	1.720
2020/01/31 23:00:48.4	189.490	0.900	-0.740	1.690
2020/01/31 23:00:48.5	189.500	0.880	-0.670	1.660
2020/01/31 23:00:48.6	189.510	0.850	-0.590	1.630
2020/01/31 23:00:48.7	189.530	0.810	-0.510	1.600
2020/01/31 23:00:48.8	189.540	0.770	-0.440	1.570
2020/01/31 23:00:48.9	189.550	0.720	-0.360	1.540
2020/01/31 23:00:49.0	189.570	0.670	-0.290	1.510
2020/01/31 23:00:49.1	189.580	0.610	-0.210	1.480
2020/01/31 23:00:49.2	189.590	0.550	-0.140	1.450
2020/01/31 23:00:49.3	189.600	0.490	-0.070	1.420
2020/01/31 23:00:49.4	189.600	0.430	-0.010	1.400
2020/01/31 23:00:49.5	189.610	0.360	0.050	1.380
2020/01/31 23:00:49.6	189.620	0.290	0.110	1.360
2020/01/31 23:00:49.7	189.620	0.220	0.160	1.340
2020/01/31 23:00:49.8	189.630	0.150	0.210	1.330
2020/01/31 23:00:49.9	189.630	0.080	0.250	1.320
2020/01/31 23:00:50.0	189.630	0.010	0.290	1.310
2020/01/31 23:00:50.1	189.630	-0.060	0.320	1.310
2020/01/31 23:00:50.2	189.630	-0.130	0.350	1.310
2020/01/31 23:00:50.3	189.630	-0.190	0.370	1.310
2020/01/31 23:00:50.4	189.630	-0.260	0.390	1.320
2020/01/31 23:00:50.5	189.630	-0.320	0.400	1.330
2020/01/31 23:00:50.6	189.620	-0.370	0.410	1.350
2020/01/31 23:00:50.7	189.620	-0.430	0.420	1.370
2020/01/31 23:00:50.8	189.610	-0.480	0.420	1.390
2020/01/31 23:00:50.9	189.610	-0.520	0.420	1.420
2020/01/31 23:00:51.0	189.600	-0.570	0.410	1.450
2020/01/31 23:00:51.1	189.600	-0.610	0.400	1.480
2020/01/31 23:00:51.2	189.600	-0.640	0.380	1.510
2020/01/31 23:00:51.3	189.590	-0.670	0.360	1.550
2020/01/31 23:00:51.4	189.590	-0.690	0.340	1.580
2020/01/31 23:00:51.5	189.580	-0.720	0.310	1.620
2020/01/31 23:00:51.6	189.580	-0.730	0.280	1.660
2020/01/31 23:00:51.7	189.570	-0.750	0.240	1.690
2020/01/31 23:00:51.8	189.560	-0.750	0.200	1.730
2020/01/31 23:00:51.9	189.560	-0.760	0.160	1.760
2020/01/31 23:00:52.0	189.550	-0.760	0.120	1.800
2020/01/31 23:00:52.1	189.540	-0.750	0.060	1.830
2020/01/31 23:00:52.2	189.540	-0.750	0.010	1.860
2020/01/31 23:00:52.3	189.530	-0.740	-0.040	1.890
2020/01/31 23:00:52.4	189.520	-0.720	-0.090	1.920
2020/01/31 23:00:52.5	189.510	-0.710	-0.140	1.950
2020/01/31 23:00:52.6	189.500	-0.690	-0.190	1.970
2020/01/31 23:00:52.7	189.490	-0.660	-0.250	1.990
2020/01/31 23:00:52.8	189.480	-0.640	-0.300	2.010
2020/01/31 23:00:52.9	189.470	-0.610	-0.350	2.020
2020/01/31 23:00:53.0	189.450	-0.580	-0.400	2.040
2020/01/31 23:00:53.1	189.430	-0.550	-0.450	2.050
2020/01/31 23:00:53.2	189.420	-0.520	-0.500	2.060
2020/01/31 23:00:53.3	189.400	-0.490	-0.540	2.070
2020/01/31 23:00:53.4	189.390	-0.460	-0.590	2.080
2020/01/31 23:00:53.5	189.370	-0.420	-0.630	2.080
2020/01/31 23:00:53.6	189.360	-0.390	-0.660	2.090
2020/01/31 23:00:53.7	189.340	-0.350	-0.700	2.090
2020/01/31 23:00:53.8	189.330	-0.320	-0.720	2.090
2020/01/31 23:00:53.9	189.310	-0.280	-0.750	2.090
2020/01/31 23:00:54.0	189.290	-0.250	-0.760	2.090
2020/01/31 23:00:54.1	189.280	-0.210	-0.780	2.090
2020/01/31 23:00:54.2	189.260	-0.180	-0.790	2.090
2020/01/31 23:00:54.3	189.240	-0.150	-0.790	2.080
2020/01/31 23:00:54.4	189.230	-0.110	-0.790	2.080
2020/01/31 23:00:54.5	189.210	-0.080	-0.780	2.070
2020/01/31 23:00:54.6	189.200	-0.050	-0.770	2.060
2020/01/31 23:00:54.7	189.190	-0.020	-0.760	2.040
2020/01/31 23:00:54.8	189.170	0.010	-0.740	2.020
2020/01/31 23:00:54.9	189.160	0.040	-0.710	2.000
2020/01/31 23:00:55.0	189.150	0.070	-0.680	1.980
2020/01/31 23:00:55.1	189.140	0.090	-0.650	1.950
2020/01/31 23:00:55.2	189.130	0.120	-0.610	1.910
2020/01/31 23:00:55.3	189.120	0.150	-0.570	1.870
2020/01/31 23:00:55.4	189.120	0.170	-0.530	1.830
2020/01/31 23:00:55.5	189.120	0.190	-0.480	1.780
2020/01/31 23:00:55.6	189.120	0.220	-0.430	1.730
2020/01/31 23:00:55.7	189.120	0.240	-0.380	1.670
2020/01/31 23:00:55.8	189.120	0.250	-0.330	1.610
2020/01/31 23:00:55.9	189.130	0.270	-0.280	1.540
2020/01/31 23:00:56.0	189.140	0.290	-0.220	1.480
2020/01/31 23:00:56.1	189.160	0.300	-0.170	1.400
2020/01/31 23:00:56.2	189.170	0.310	-0.120	1.330
2020/01/31 23:00:56.3	189.190	0.320	-0.070	1.260
2020/01/31 23:00:56.4	189.210	0.330	-0.020	1.190
2020/01/31 23:00:56.5	189.230	0.330	0.030	1.120
2020/01/31 23:00:56.6	189.260	0.340	0.080	1.050
2020/01/31 23:00:56.7	189.280	0.340	0.120	0.980
2020/01/31 23:00:56.8	189.310	0.330	0.160	0.920
2020/01/31 23:00:56.9	189.340	0.330	0.190	0.860
2020/01/31 23:00:57.0	189.370	0.320	0.220	0.800
2020/01/31 23:00:57.1	189.400	0.320	0.250	0.750
2020/01/31 23:00:57.2	189.440	0.310	0.260	0.700
2020/01/31 23:00:57.3	189.470	0.290	0.280	0.660
2020/01/31 23:00:57.4	189.500	0.280	0.290	0.620
2020/01/31 23:00:57.5	189.530	0.260	0.290	0.590
2020/01/31 23:00:57.6	189.570	0.250	0.290	0.560
2020/01/31 23:00:57.7	189.600	0.230	0.280	0.540
2020/01/31 23:00:57.8	189.630	0.200	0.270	0.520
2020/01/31 23:00:57.9	189.660	0.180	0.260	0.510
2020/01/31 23:00:58.0	189.690	0.160	0.240	0.500
2020/01/31 23:00:58.1	189.730	0.130	0.210	0.490
2020/01/31 23:00:58.2	189.760	0.110	0.180	0.500
2020/01/31 23:00:58.3	189.790	0.080	0.150	0.500
2020/01/31 23:00:58.4	189.820	0.050	0.120	0.510
2020/01/31 23:00:58.5	189.840	0.020	0.080	0.530
2020/01/31 23:00:58.6	189.860	-0.010	0.040	0.550
2020/01/31 23:00:58.7	189.880	-0.030	0.000	0.580
2020/01/31 23:00:58.8	189.900	-0.060	-0.040	0.610
2020/01/31 23:00:58.9	189.910	-0.090	-0.080	0.640
2020/01/31 23:00:59.0	189.920	-0.110	-0.130	0.690
2020/01/31 23:00:59.1	189.930	-0.140	-0.170	0.730
2020/01/31 23:00:59.2	189.930	-0.160	-0.220	0.790
2020/01/31 23:00:59.3	189.930	-0.180	-0.270	0.840
2020/01/31 23:00:59.4	189.920	-0.200	-0.320	0.910
2020/01/31 23:00:59.5	189.910	-0.220	-0.360	0.970
2020/01/31 23:00:59.6	189.900	-0.230	-0.410	1.040
2020/01/31 23:00:59.7	189.880	-0.240	-0.460	1.120
2020/01/31 23:00:59.8	189.860	-0.250	-0.510	1.190
2020/01/31 23:00:59.9	189.840	-0.260	-0.560	1.270
2020/01/31 23:01:00.0	189.810	-0.260	-0.610	1.350
2020/01/31 23:01:00.1	189.780	-0.260	-0.650	1.440
2020/01/31 23:01:00.2	189.740	-0.260	-0.690	1.520
2020/01/31 23:01:00.3	189.710	-0.250	-0.730	1.600
2020/01/31 23:01:00.4	189.670	-0.240	-0.770	1.670
2020/01/31 23:01:00.5	189.640	-0.230	-0.810	1.750
2020/01/31 23:01:00.6	189.600	-0.220	-0.830	1.820
2020/01/31 23:01:00.7	189.560	-0.200	-0.860	1.890
2020/01/31 23:01:00.8	189.530	-0.180	-0.880	1.950
2020/01/31 23:01:00.9	189.490	-0.160	-0.890	2.020
2020/01/31 23:01:01.0	189.450	-0.140	-0.900	2.070
2020/01/31 23:01:01.1	189.420	-0.120	-0.910	2.130
2020/01/31 23:01:01.2	189.380	-0.100	-0.900	2.180
2020/01/31 23:01:01.3	189.350	-0.080	-0.890	2.230
2020/01/31 23:01:01.4	189.310	-0.060	-0.870	2.280
2020/01/31 23:01:01.5	189.280	-0.040	-0.850	2.320
2020/01/31 23:01:01.6	189.250	-0.020	-0.820	2.360
2020/01/31 23:01:01.7	189.220	0.010	-0.780	2.390
2020/01/31 23:01:01.8	189.190	0.020	-0.740	2.430
2020/01/31 23:01:01.9	189.160	0.040	-0.690	2.450
2020/01/31 23:01:02.0	189.130	0.060	-0.640	2.480
2020/01/31 23:01:02.1	189.110	0.080	-0.590	2.500
2020/01/31 23:01:02.2	189.080	0.090	-0.530	2.520
2020/01/31 23:01:02.3	189.060	0.100	-0.460	2.530
2020/01/31 23:01:02.4	189.040	0.110	-0.400	2.540
2020/01/31 23:01:02.5	189.030	0.120	-0.330	2.540
2020/01/31 23:01:02.6	189.010	0.130	-0.260	2.540
2020/01/31 23:01:02.7	189.000	0.140	-0.190	2.540
2020/01/31 23:01:02.8	189.000	0.140	-0.120	2.530
2020/01/31 23:01:02.9	188.990	0.140	-0.040	2.510
2020/01/31 23:01:03.0	188.990	0.140	0.030	2.490
2020/01/31 23:01:03.1	188.990	0.150	0.100	2.470
2020/01/31 23:01:03.2	188.990	0.140	0.160	2.440
2020/01/31 23:01:03.3	189.000	0.140	0.230	2.410
2020/01/31 23:01:03.4	189.000	0.140	0.290	2.370
2020/01/31 23:01:03.5	189.020	0.140	0.360	2.330
2020/01/31 23:01:03.6	189.030	0.130	0.410	2.280
2020/01/31 23:01:03.7	189.040	0.130	0.470	2.230
2020/01/31 23:01:03.8	189.060	0.130	0.520	2.180
2020/01/31 23:01:03.9	189.080	0.130	0.560	2.120
2020/01/31 23:01:04.0	189.110	0.120	0.600	2.060
2020/01/31 23:01:04.1	189.130	0.120	0.640	1.990
2020/01/31 23:01:04.2	189.150	0.120	0.670	1.930
2020/01/31 23:01:04.3	189.180	0.120	0.690	1.860
2020/01/31 23:01:04.4	189.210	0.120	0.710	1.790
2020/01/31 23:01:04.5	189.240	0.120	0.720	1.720
2020/01/31 23:01:04.6	189.260	0.120	0.730	1.650
2020/01/31 23:01:04.7	189.290	0.130	0.730	1.580
2020/01/31 23:01:04.8	189.320	0.130	0.720	1.510
2020/01/31 23:01:04.9	189.350	0.140	0.700	1.450
2020/01/31 23:01:05.0	189.380	0.150	0.680	1.380
2020/01/31 23:01:05.1	189.400	0.150	0.660	1.310
2020/01/31 23:01:05.2	189.430	0.170	0.620	1.250
2020/01/31 23:01:05.3	189.450	0.180	0.570	1.190
2020/01/31 23:01:05.4	189.470	0.190	0.520	1.140
2020/01/31 23:01:05.5	189.490	0.210	0.470	1.090
2020/01/31 23:01:05.6	189.510	0.220	0.400	1.040
2020/01/31 23:01:05.7	189.530	0.240	0.330	1.000
2020/01/31 23:01:05.8	189.540	0.260	0.260	0.960
2020/01/31 23:01:05.9	189.550	0.270	0.170	0.930
2020/01/31 23:01:06.0	189.560	0.290	0.090	0.910
2020/01/31 23:01:06.1	189.570	0.310	-0.000	0.880
2020/01/31 23:01:06.2	189.580	0.330	-0.100	0.870
2020/01/31 23:01:06.3	189.580	0.350	-0.190	0.860
2020/01/31 23:01:06.4	189.580	0.370	-0.290	0.850
2020/01/31 23:01:06.5	189.580	0.390	-0.380	0.850
2020/01/31 23:01:06.6	189.580	0.410	-0.480	0.850
2020/01/31 23:01:06.7	189.570	0.420	-0.580	0.850
2020/01/31 23:01:06.8	189.570	0.440	-0.670	0.860
2020/01/31 23:01:06.9	189.560	0.450	-0.760	0.870
2020/01/31 23:01:07.0	189.550	0.460	-0.850	0.890
2020/01/31 23:01:07.1	189.540	0.470	-0.930	0.910
2020/01/31 23:01:07.2	189.530	0.480	-1.020	0.940
2020/01/31 23:01:07.3	189.520	0.480	-1.090	0.960
2020/01/31 23:01:07.4	189.510	0.480	-1.160	0.990
2020/01/31 23:01:07.5	189.500	0.470	-1.220	1.020
2020/01/31 23:01:07.6	189.480	0.470	-1.280	1.050
2020/01/31 23:01:07.7	189.470	0.460	-1.330	1.090
2020/01/31 23:01:07.8	189.460	0.440	-1.370	1.120
2020/01/31 23:01:07.9	189.440	0.420	-1.410	1.160
2020/01/31 23:01:08.0	189.430	0.400	-1.440	1.200
2020/01/31 23:01:08.1	189.430	0.380	-1.450	1.240
2020/01/31 23:01:08.2	189.420	0.350	-1.470	1.280
2020/01/31 23:01:08.3	189.410	0.320	-1.470	1.320
2020/01/31 23:01:08.4	189.400	0.280	-1.470	1.360
2020/01/31 23:01:08.5	189.400	0.240	-1.460	1.410
2020/01/31 23:01:08.6	189.390	0.200	-1.440	1.450
2020/01/31 23:01:08.7	189.390	0.160	-1.420	1.490
2020/01/31 23:01:08.8	189.380	0.110	-1.390	1.540
2020/01/31 23:01:08.9	189.380	0.070	-1.350	1.580
2020/01/31 23:01:09.0	189.370	0.020	-1.310	1.630
2020/01/31 23:01:09.1	189.380	-0.030	-1.270	1.670
2020/01/31 23:01:09.2	189.380	-0.080	-1.220	1.710
2020/01/31 23:01:09.3	189.370	-0.130	-1.170	1.750
2020/01/31 23:01:09.4	189.370	-0.180	-1.110	1.800
2020/01/31 23:01:09.5	189.360	-0.230	-1.050	1.840
2020/01/31 23:01:09.6	189.360	-0.280	-0.990	1.880
2020/01/31 23:01:09.7	189.350	-0.320	-0.930	1.920
2020/01/31 23:01:09.8	189.350	-0.370	-0.870	1.950
2020/01/31 23:01:09.9	189.340	-0.410	-0.810	1.990
2020/01/31 23:01:10.0	189.330	-0.440	-0.750	2.030
2020/01/31 23:01:10.1	189.320	-0.480	-0.700	2.060
2020/01/31 23:01:10.2	189.310	-0.510	-0.640	2.090
2020/01/31 23:01:10.3	189.300	-0.530	-0.590	2.120
2020/01/31 23:01:10.4	189.280	-0.560	-0.530	2.150
2020/01/31 23:01:10.5	189.270	-0.570	-0.480	2.170
2020/01/31 23:01:10.6	189.260	-0.590	-0.430	2.200
2020/01/31 23:01:10.7	189.250	-0.590	-0.390	2.210
2020/01/31 23:01:10.8	189.240	-0.600	-0.340	2.230
2020/01/31 23:01:10.9	189.230	-0.600	-0.300	2.230
2020/01/31 23:01:11.0	189.220	-0.590	-0.260	2.240
2020/01/31 23:01:11.1	189.220	-0.580	-0.210	2.240
2020/01/31 23:01:11.2	189.210	-0.570	-0.170	2.230
2020/01/31 23:01:11.3	189.210	-0.550	-0.130	2.220
2020/01/31 23:01:11.4	189.210	-0.530	-0.090	2.200
2020/01/31 23:01:11.5	189.210	-0.510	-0.060	2.180
2020/01/31 23:01:11.6	189.220	-0.480	-0.020	2.160
2020/01/31 23:01:11.7	189.220	-0.450	0.020	2.130
2020/01/31 23:01:11.8	189.230	-0.430	0.060	2.090
2020/01/31 23:01:11.9	189.250	-0.400	0.100	2.060
2020/01/31 23:01:12.0	189.260	-0.370	0.150	2.020
2020/01/31 23:01:12.1	189.280	-0.340	0.180	1.980
2020/01/31 23:01:12.2	189.300	-0.310	0.230	1.940
2020/01/31 23:01:12.3	189.320	-0.280	0.270	1.890
2020/01/31 23:01:12.4	189.350	-0.250	0.310	1.850
2020/01/31 23:01:12.5	189.370	-0.220	0.350	1.800
2020/01/31 23:01:12.6	189.400	-0.200	0.400	1.750
2020/01/31 23:01:12.7	189.430	-0.170	0.440	1.710
2020/01/31 23:01:12.8	189.470	-0.150	0.480	1.660
2020/01/31 23:01:12.9	189.500	-0.130	0.520	1.610
2020/01/31 23:01:13.0	189.530	-0.120	0.550	1.560
2020/01/31 23:01:13.1	189.570	-0.100	0.590	1.510
2020/01/31 23:01:13.2	189.610	-0.090	0.620	1.470
2020/01/31 23:01:13.3	189.640	-0.080	0.650	1.420
2020/01/31 23:01:13.4	189.680	-0.080	0.680	1.380
2020/01/31 23:01:13.5	189.710	-0.070	0.700	1.330
2020/01/31 23:01:13.6	189.740	-0.070	0.710	1.290
2020/01/31 23:01:13.7	189.770	-0.070	0.720	1.250
2020/01/31 23:01:13.8	189.800	-0.070	0.730	1.220
2020/01/31 23:01:13.9	189.820	-0.080	0.730	1.180
2020/01/31 23:01:14.0	189.840	-0.080	0.730	1.150
2020/01/31 23:01:14.1	189.850	-0.090	0.710	1.120
2020/01/31 23:01:14.2	189.870	-0.090	0.700	1.100
2020/01/31 23:01:14.3	189.880	-0.100	0.670	1.080
2020/01/31 23:01:14.4	189.900	-0.100	0.650	1.060
2020/01/31 23:01:14.5	189.910	-0.110	0.610	1.050
2020/01/31 23:01:14.6	189.910	-0.110	0.570	1.040
2020/01/31 23:01:14.7	189.920	-0.120	0.530	1.030
2020/01/31 23:01:14.8	189.920	-0.120	0.480	1.030
2020/01/31 23:01:14.9	189.920	-0.120	0.420	1.030
2020/01/31 23:01:15.0	189.920	-0.120	0.360	1.030
2020/01/31 23:01:15.1	189.910	-0.120	0.300	1.040
2020/01/31 23:01:15.2	189.900	-0.120	0.230	1.060
2020/01/31 23:01:15.3	189.890	-0.110	0.160	1.070
2020/01/31 23:01:15.4	189.880	-0.100	0.090	1.090
2020/01/31 23:01:15.5	189.860	-0.090	0.010	1.120
2020/01/31 23:01:15.6	189.840	-0.070	-0.070	1.150
2020/01/31 23:01:15.7	189.820	-0.060	-0.140	1.180
2020/01/31 23:01:15.8	189.800	-0.040	-0.220	1.210
2020/01/31 23:01:15.9	189.770	-0.020	-0.300	1.250
2020/01/31 23:01:16.0	189.740	0.010	-0.380	1.290
2020/01/31 23:01:16.1	189.720	0.040	-0.460	1.340
2020/01/31 23:01:16.2	189.690	0.060	-0.540	1.380
2020/01/31 23:01:16.3	189.650	0.100	-0.610	1.420
2020/01/31 23:01:16.4	189.620	0.130	-0.670	1.470
2020/01/31 23:01:16.5	189.580	0.160	-0.740	1.510
2020/01/31 23:01:16.6	189.550	0.190	-0.800	1.560
2020/01/31 23:01:16.7	189.520	0.230	-0.850	1.600
2020/01/31 23:01:16.8	189.480	0.260	-0.900	1.640
2020/01/31 23:01:16.9	189.450	0.290	-0.950	1.680
2020/01/31 23:01:17.0	189.420	0.330	-0.990	1.720
2020/01/31 23:01:17.1	189.380	0.360	-1.020	1.750
2020/01/31 23:01:17.2	189.350	0.390	-1.040	1.780
2020/01/31 23:01:17.3	189.320	0.410	-1.060	1.810
2020/01/31 23:01:17.4	189.300	0.440	-1.080	1.840
2020/01/31 23:01:17.5	189.270	0.460	-1.080	1.860
2020/01/31 23:01:17.6	189.250	0.480	-1.080	1.880
2020/01/31 23:01:17.7	189.220	0.490	-1.080	1.890
2020/01/31 23:01:17.8	189.200	0.500	-1.070	1.900
2020/01/31 23:01:17.9	189.180	0.510	-1.050	1.910
2020/01/31 23:01:18.0	189.160	0.510	-1.030	1.920
2020/01/31 23:01:18.1	189.130	0.510	-1.010	1.920
2020/01/31 23:01:18.2	189.120	0.510	-0.980	1.920
2020/01/31 23:01:18.3	189.100	0.500	-0.940	1.920
2020/01/31 23:01:18.4	189.090	0.480	-0.900	1.920
2020/01/31 23:01:18.5	189.080	0.460	-0.860	1.920
2020/01/31 23:01:18.6	189.080	0.440	-0.810	1.910
2020/01/31 23:01:18.7	189.080	0.420	-0.760	1.900
2020/01/31 23:01:18.8	189.080	0.390	-0.710	1.900
2020/01/31 23:01:18.9	189.080	0.350	-0.650	1.890
2020/01/31 23:01:19.0	189.090	0.310	-0.590	1.880
2020/01/31 23:01:19.1	189.100	0.270	-0.530	1.860
2020/01/31 23:01:19.2	189.110	0.230	-0.470	1.850
2020/01/31 23:01:19.3	189.130	0.180	-0.410	1.830
2020/01/31 23:01:19.4	189.150	0.140	-0.350	1.820
2020/01/31 23:01:19.5	189.180	0.090	-0.280	1.800
2020/01/31 23:01:19.6	189.210	0.040	-0.220	1.780
2020/01/31 23:01:19.7	189.240	-0.020	-0.150	1.760
2020/01/31 23:01:19.8	189.280	-0.070	-0.090	1.740
2020/01/31 23:01:19.9	189.320	-0.120	-0.030	1.720
2020/01/31 23:01:20.0	189.360	-0.180	0.040	1.700
2020/01/31 23:01:20.1	189.400	-0.230	0.100	1.680
2020/01/31 23:01:20.2	189.450	-0.280	0.150	1.660
2020/01/31 23:01:20.3	189.500	-0.330	0.210	1.630
2020/01/31 23:01:20.4	189.550	-0.370	0.260	1.610
2020/01/31 23:01:20.5	189.600	-0.420	0.310	1.590
2020/01/31 23:01:20.6	189.650	-0.460	0.350	1.560
2020/01/31 23:01:20.7	189.700	-0.500	0.390	1.540
2020/01/31 23:01:20.8	189.750	-0.540	0.420	1.520
2020/01/31 23:01:20.9	189.800	-0.570	0.440	1.490
2020/01/31 23:01:21.0	189.850	-0.590	0.460	1.470
2020/01/31 23:01:21.1	189.900	-0.620	0.470	1.440
2020/01/31 23:01:21.2	189.940	-0.630	0.480	1.420
2020/01/31 23:01:21.3	189.990	-0.650	0.480	1.400
2020/01/31 23:01:21.4	190.030	-0.650	0.470	1.380
2020/01/31 23:01:21.5	190.070	-0.650	0.450	1.360
2020/01/31 23:01:21.6	190.100	-0.650	0.430	1.340
2020/01/31 23:01:21.7	190.130	-0.640	0.400	1.330
2020/01/31 23:01:21.8	190.160	-0.630	0.360	1.310
2020/01/31 23:01:21.9	190.190	-0.610	0.310	1.300
2020/01/31 23:01:22.0	190.210	-0.580	0.260	1.280
2020/01/31 23:01:22.1	190.230	-0.550	0.210	1.270
2020/01/31 23:01:22.2	190.250	-0.520	0.140	1.260
2020/01/31 23:01:22.3	190.260	-0.480	0.080	1.250
2020/01/31 23:01:22.4	190.280	-0.430	0.010	1.240
2020/01/31 23:01:22.5	190.290	-0.390	-0.060	1.230
2020/01/31 23:01:22.6	190.290	-0.340	-0.140	1.220
2020/01/31 23:01:22.7	190.300	-0.280	-0.210	1.210
2020/01/31 23:01:22.8	190.300	-0.230	-0.290	1.210
2020/01/31 23:01:22.9	190.300	-0.170	-0.360	1.200
2020/01/31 23:01:23.0	190.290	-0.110	-0.440	1.200
2020/01/31 23:01:23.1	190.290	-0.050	-0.510	1.200
2020/01/31 23:01:23.2	190.290	0.010	-0.580	1.200
2020/01/31 23:01:23.3	190.280	0.070	-0.650	1.200
2020/01/31 23:01:23.4	190.260	0.140	-0.710	1.200
2020/01/31 23:01:23.5	190.250	0.200	-0.770	1.200
2020/01/31 23:01:23.6	190.230	0.250	-0.820	1.200
2020/01/31 23:01:23.7	190.210	0.310	-0.870	1.210
2020/01/31 23:01:23.8	190.190	0.370	-0.910	1.210
2020/01/31 23:01:23.9	190.170	0.420	-0.940	1.220
2020/01/31 23:01:24.0	190.150	0.470	-0.970	1.230
2020/01/31 23:01:24.1	190.140	0.510	-0.990	1.240
2020/01/31 23:01:24.2	190.110	0.560	-1.000	1.250
2020/01/31 23:01:24.3	190.090	0.600	-1.010	1.260
2020/01/31 23:01:24.4	190.060	0.630	-1.010	1.260
2020/01/31 23:01:24.5	190.030	0.670	-1.010	1.270
2020/01/31 23:01:24.6	190.000	0.690	-0.990	1.280
2020/01/31 23:01:24.7	189.980	0.720	-0.970	1.290
2020/01/31 23:01:24.8	189.950	0.740	-0.950	1.300
2020/01/31 23:01:24.9	189.920	0.750	-0.920	1.310
2020/01/31 23:01:25.0	189.890	0.760	-0.880	1.310
2020/01/31 23:01:25.1	189.870	0.760	-0.840	1.320
2020/01/31 23:01:25.2	189.850	0.760	-0.790	1.320
2020/01/31 23:01:25.3	189.820	0.760	-0.740	1.330
2020/01/31 23:01:25.4	189.800	0.750	-0.690	1.330
2020/01/31 23:01:25.5	189.780	0.740	-0.630	1.330
2020/01/31 23:01:25.6	189.760	0.720	-0.570	1.330
2020/01/31 23:01:25.7	189.740	0.690	-0.510	1.330
2020/01/31 23:01:25.8	189.720	0.670	-0.450	1.330
2020/01/31 23:01:25.9	189.710	0.630	-0.390	1.330
2020/01/31 23:01:26.0	189.700	0.600	-0.330	1.330
2020/01/31 23:01:26.1	189.680	0.560	-0.270	1.320
2020/01/31 23:01:26.2	189.670	0.510	-0.210	1.320
2020/01/31 23:01:26.3	189.660	0.470	-0.160	1.320
2020/01/31 23:01:26.4	189.650	0.410	-0.100	1.320
2020/01/31 23:01:26.5	189.650	0.360	-0.060	1.330
2020/01/31 23:01:26.6	189.640	0.310	-0.010	1.330
2020/01/31 23:01:26.7	189.640	0.250	0.030	1.330
2020/01/31 23:01:26.8	189.630	0.190	0.070	1.340
2020/01/31 23:01:26.9	189.630	0.130	0.100	1.350
2020/01/31 23:01:27.0	189.630	0.070	0.130	1.360
2020/01/31 23:01:27.1	189.630	0.010	0.160	1.370
2020/01/31 23:01:27.2	189.620	-0.060	0.180	1.390
2020/01/31 23:01:27.3	189.620	-0.120	0.190	1.410
2020/01/31 23:01:27.4	189.620	-0.180	0.200	1.430
2020/01/31 23:01:27.5	189.620	-0.240	0.210	1.460
2020/01/31 23:01:27.6	189.630	-0.300	0.210	1.480
2020/01/31 23:01:27.7	189.630	-0.360	0.210	1.510
2020/01/31 23:01:27.8	189.630	-0.410	0.210	1.550
2020/01/31 23:01:27.9	189.630	-0.460	0.200	1.580
2020/01/31 23:01:28.0	189.640	-0.510	0.190	1.620
2020/01/31 23:01:28.1	189.640	-0.560	0.180	1.660
2020/01/31 23:01:28.2	189.640	-0.600	0.160	1.700
2020/01/31 23:01:28.3	189.650	-0.640	0.150	1.730
2020/01/31 23:01:28.4	189.660	-0.680	0.130	1.770
2020/01/31 23:01:28.5	189.660	-0.710	0.110	1.810
2020/01/31 23:01:28.6	189.670	-0.740	0.090	1.850
2020/01/31 23:01:28.7	189.670	-0.760	0.060	1.890
2020/01/31 23:01:28.8	189.680	-0.780	0.040	1.920
2020/01/31 23:01:28.9	189.680	-0.790	0.010	1.950
2020/01/31 23:01:29.0	189.690	-0.800	-0.010	1.990
2020/01/31 23:01:29.1	189.690	-0.810	-0.030	2.010
2020/01/31 23:01:29.2	189.690	-0.800	-0.060	2.040
2020/01/31 23:01:29.3	189.700	-0.800	-0.080	2.060
2020/01/31 23:01:29.4	189.700	-0.790	-0.110	2.070
2020/01/31 23:01:29.5	189.710	-0.770	-0.130	2.090
2020/01/31 23:01:29.6	189.710	-0.750	-0.160	2.100
2020/01/31 23:01:29.7	189.720	-0.720	-0.180	2.100
2020/01/31 23:01:29.8	189.720	-0.690	-0.200	2.100
2020/01/31 23:01:29.9	189.730	-0.660	-0.220	2.100
2020/01/31 23:01:30.0	189.730	-0.620	-0.240	2.090
2020/01/31 23:01:30.1	189.740	-0.580	-0.260	2.080
2020/01/31 23:01:30.2	189.740	-0.540	-0.270	2.070
2020/01/31 23:01:30.3	189.740	-0.490	-0.290	2.050
2020/01/31 23:01:30.4	189.750	-0.440	-0.300	2.030
2020/01/31 23:01:30.5	189.750	-0.390	-0.310	2.000
2020/01/31 23:01:30.6	189.750	-0.340	-0.320	1.980
2020/01/31 23:01:30.7	189.760	-0.290	-0.330	1.950
2020/01/31 23:01:30.8	189.760	-0.230	-0.330	1.920
2020/01/31 23:01:30.9	189.770	-0.170	-0.340	1.880
2020/01/31 23:01:31.0	189.770	-0.120	-0.340	1.850
2020/01/31 23:01:31.1	189.780	-0.060	-0.340	1.810
2020/01/31 23:01:31.2	189.790	-0.010	-0.330	1.770
2020/01/31 23:01:31.3	189.800	0.050	-0.330	1.720
2020/01/31 23:01:31.4	189.810	0.100	-0.330	1.680
2020/01/31 23:01:31.5	189.830	0.150	-0.320	1.630
2020/01/31 23:01:31.6	189.850	0.200	-0.310	1.580
2020/01/31 23:01:31.7	189.870	0.250	-0.300	1.530
2020/01/31 23:01:31.8	189.890	0.290	-0.280	1.470
2020/01/31 23:01:31.9	189.910	0.330	-0.270	1.410
2020/01/31 23:01:32.0	189.940	0.370	-0.250	1.360
2020/01/31 23:01:32.1	189.970	0.410	-0.240	1.300
2020/01/31 23:01:32.2	190.000	0.440	-0.220	1.240
2020/01/31 23:01:32.3	190.030	0.470	-0.200	1.180
2020/01/31 23:01:32.4	190.060	0.490	-0.180	1.120
2020/01/31 23:01:32.5	190.100	0.510	-0.160	1.060
2020/01/31 23:01:32.6	190.130	0.530	-0.140	1.000
2020/01/31 23:01:32.7	190.160	0.540	-0.120	0.940
2020/01/31 23:01:32.8	190.190	0.550	-0.100	0.880
2020/01/31 23:01:32.9	190.220	0.550	-0.080	0.830
2020/01/31 23:01:33.0	190.250	0.550	-0.060	0.780
2020/01/31 23:01:33.1	190.280	0.550	-0.040	0.720
2020/01/31 23:01:33.2	190.310	0.550	-0.030	0.670
2020/01/31 23:01:33.3	190.330	0.540	-0.020	0.630
2020/01/31 23:01:33.4	190.350	0.530	-0.010	0.590
2020/01/31 23:01:33.5	190.370	0.510	0.000	0.560
2020/01/31 23:01:33.6	190.390	0.500	0.000	0.520
2020/01/31 23:01:33.7	190.400	0.480	0.000	0.500
2020/01/31 23:01:33.8	190.410	0.460	0.000	0.480
2020/01/31 23:01:33.9	190.420	0.440	-0.010	0.460
2020/01/31 23:01:34.0	190.420	0.420	-0.020	0.450
2020/01/31 23:01:34.1	190.420	0.390	-0.040	0.450
2020/01/31 23:01:34.2	190.420	0.370	-0.060	0.450
2020/01/31 23:01:34.3	190.410	0.350	-0.090	0.460
2020/01/31 23:01:34.4	190.390	0.320	-0.120	0.480
2020/01/31 23:01:34.5	190.380	0.300	-0.150	0.510
2020/01/31 23:01:34.6	190.350	0.280	-0.190	0.540
2020/01/31 23:01:34.7	190.330	0.260	-0.240	0.580
2020/01/31 23:01:34.8	190.300	0.240	-0.290	0.620
2020/01/31 23:01:34.9	190.270	0.220	-0.340	0.670
2020/01/31 23:01:35.0	190.230	0.200	-0.400	0.730
2020/01/31 23:01:35.1	190.180	0.180	-0.460	0.790
2020/01/31 23:01:35.2	190.140	0.160	-0.520	0.860
2020/01/31 23:01:35.3	190.090	0.150	-0.580	0.930
2020/01/31 23:01:35.4	190.050	0.130	-0.650	1.000
2020/01/31 23:01:35.5	190.000	0.120	-0.710	1.080
2020/01/31 23:01:35.6	189.950	0.110	-0.780	1.160
2020/01/31 23:01:35.7	189.900	0.100	-0.840	1.240
2020/01/31 23:01:35.8	189.860	0.090	-0.900	1.320
2020/01/31 23:01:35.9	189.810	0.080	-0.960	1.400
2020/01/31 23:01:36.0	189.760	0.070	-1.010	1.480
2020/01/31 23:01:36.1	189.710	0.060	-1.060	1.560
2020/01/31 23:01:36.2	189.670	0.050	-1.110	1.630
2020/01/31 23:01:36.3	189.630	0.040	-1.140	1.710
2020/01/31 23:01:36.4	189.590	0.030	-1.180	1.790
2020/01/31 23:01:36.5	189.550	0.020	-1.200	1.860
2020/01/31 23:01:36.6	189.510	0.010	-1.220	1.930
2020/01/31 23:01:36.7	189.480	-0.010	-1.230	1.990
2020/01/31 23:01:36.8	189.450	-0.020	-1.240	2.060
2020/01/31 23:01:36.9	189.420	-0.030	-1.230	2.120
2020/01/31 23:01:37.0	189.400	-0.050	-1.220	2.170
2020/01/31 23:01:37.1	189.370	-0.070	-1.190	2.220
2020/01/31 23:01:37.2	189.360	-0.090	-1.160	2.270
2020/01/31 23:01:37.3	189.350	-0.110	-1.130	2.310
2020/01/31 23:01:37.4	189.340	-0.130	-1.080	2.350
2020/01/31 23:01:37.5	189.330	-0.160	-1.020	2.380
2020/01/31 23:01:37.6	189.330	-0.180	-0.960	2.400
2020/01/31 23:01:37.7	189.340	-0.210	-0.890	2.430
2020/01/31 23:01:37.8	189.340	-0.240	-0.820	2.440
2020/01/31 23:01:37.9	189.360	-0.270	-0.740	2.460
2020/01/31 23:01:38.0	189.370	-0.300	-0.650	2.470
2020/01/31 23:01:38.1	189.380	-0.330	-0.570	2.470
2020/01/31 23:01:38.2	189.400	-0.360	-0.470	2.470
2020/01/31 23:01:38.3	189.420	-0.390	-0.380	2.470
2020/01/31 23:01:38.4	189.450	-0.420	-0.290	2.470
2020/01/31 23:01:38.5	189.480	-0.440	-0.190	2.460
2020/01/31 23:01:38.6	189.510	-0.470	-0.100	2.440
2020/01/31 23:01:38.7	189.540	-0.500	-0.010	2.420
2020/01/31 23:01:38.8	189.570	-0.520	0.080	2.400
2020/01/31 23:01:38.9	189.600	-0.540	0.170	2.380
2020/01/31 23:01:39.0	189.630	-0.560	0.250	2.350
2020/01/31 23:01:39.1	189.670	-0.570	0.320	2.320
2020/01/31 23:01:39.2	189.700	-0.580	0.390	2.280
2020/01/31 23:01:39.3	189.740	-0.580	0.450	2.240
2020/01/31 23:01:39.4	189.770	-0.590	0.510	2.200
2020/01/31 23:01:39.5	189.800	-0.580	0.550	2.150
2020/01/31 23:01:39.6	189.830	-0.570	0.590	2.110
2020/01/31 23:01:39.7	189.850	-0.560	0.620	2.050
2020/01/31 23:01:39.8	189.880	-0.540	0.650	2.000
2020/01/31 23:01:39.9	189.910	-0.520	0.660	1.940
2020/01/31 23:01:40.0	189.930	-0.490	0.670	1.890
2020/01/31 23:01:40.1	189.950	-0.460	0.670	1.820
2020/01/31 23:01:40.2	189.980	-0.430	0.660	1.760
2020/01/31 23:01:40.3	190.000	-0.390	0.650	1.700
2020/01/31 23:01:40.4	190.020	-0.350	0.630	1.640
2020/01/31 23:01:40.5	190.040	-0.300	0.600	1.580
2020/01/31 23:01:40.6	190.060	-0.260	0.570	1.520
2020/01/31 23:01:40.7	190.070	-0.210	0.540	1.460
2020/01/31 23:01:40.8	190.090	-0.160	0.500	1.400
2020/01/31 23:01:40.9	190.100	-0.110	0.460	1.350
2020/01/31 23:01:41.0	190.120	-0.060	0.410	1.290
2020/01/31 23:01:41.1	190.120	-0.010	0.360	1.240
2020/01/31 23:01:41.2	190.130	0.040	0.310	1.200
2020/01/31 23:01:41.3	190.140	0.090	0.260	1.160
2020/01/31 23:01:41.4	190.140	0.130	0.210	1.120
2020/01/31 23:01:41.5	190.140	0.180	0.150	1.090
2020/01/31 23:01:41.6	190.150	0.220	0.100	1.060
2020/01/31 23:01:41.7	190.150	0.260	0.050	1.040
2020/01/31 23:01:41.8	190.150	0.300	-0.010	1.020
2020/01/31 23:01:41.9	190.150	0.330	-0.060	1.000
2020/01/31 23:01:42.0	190.150	0.360	-0.110	0.990
2020/01/31 23:01:42.1	190.140	0.380	-0.150	0.980
2020/01/31 23:01:42.2	190.140	0.400	-0.200	0.970
2020/01/31 23:01:42.3	190.140	0.420	-0.240	0.970
2020/01/31 23:01:42.4	190.140	0.430	-0.280	0.960
2020/01/31 23:01:42.5	190.140	0.440	-0.320	0.960
2020/01/31 23:01:42.6	190.130	0.440	-0.350	0.970
2020/01/31 23:01:42.7	190.130	0.440	-0.380	0.970
2020/01/31 23:01:42.8	190.140	0.440	-0.400	0.980
2020/01/31 23:01:42.9	190.140	0.430	-0.420	0.990
2020/01/31 23:01:43.0	190.140	0.410	-0.440	1.000
2020/01/31 23:01:43.1	190.140	0.390	-0.450	1.010
2020/01/31 23:01:43.2	190.140	0.370	-0.460	1.030
2020/01/31 23:01:43.3	190.150	0.350	-0.460	1.040
2020/01/31 23:01:43.4	190.150	0.320	-0.460	1.060
2020/01/31 23:01:43.5	190.150	0.290	-0.460	1.090
2020/01/31 23:01:43.6	190.160	0.260	-0.450	1.110
2020/01/31 23:01:43.7	190.160	0.230	-0.440	1.140
2020/01/31 23:01:43.8	190.170	0.190	-0.420	1.160
2020/01/31 23:01:43.9	190.170	0.160	-0.410	1.190
2020/01/31 23:01:44.0	190.170	0.120	-0.390	1.230
2020/01/31 23:01:44.1	190.180	0.080	-0.370	1.260
2020/01/31 23:01:44.2	190.180	0.050	-0.350	1.290
2020/01/31 23:01:44.3	190.180	0.020	-0.330	1.330
2020/01/31 23:01:44.4	190.180	-0.020	-0.310	1.370
2020/01/31 23:01:44.5	190.180	-0.050	-0.300	1.410
2020/01/31 23:01:44.6	190.170	-0.070	-0.280	1.450
2020/01/31 23:01:44.7	190.170	-0.100	-0.270	1.490
2020/01/31 23:01:44.8	190.160	-0.120	-0.260	1.530
2020/01/31 23:01:44.9	190.150	-0.140	-0.250	1.570
2020/01/31 23:01:45.0	190.140	-0.150	-0.250	1.610
2020/01/31 23:01:45.1	190.130	-0.160	-0.250	1.650
2020/01/31 23:01:45.2	190.120	-0.170	-0.250	1.680
2020/01/31 23:01:45.3	190.100	-0.170	-0.260	1.720
2020/01/31 23:01:45.4	190.090	-0.170	-0.270	1.750
2020/01/31 23:01:45.5	190.070	-0.170	-0.280	1.780
2020/01/31 23:01:45.6	190.060	-0.160	-0.300	1.810
2020/01/31 23:01:45.7	190.040	-0.150	-0.320	1.830
2020/01/31 23:01:45.8	190.030	-0.130	-0.340	1.850
2020/01/31 23:01:45.9	190.010	-0.110	-0.370	1.870
2020/01/31 23:01:46.0	190.000	-0.090	-0.390	1.880
2020/01/31 23:01:46.1	190.000	-0.070	-0.410	1.890
2020/01/31 23:01:46.2	189.990	-0.040	-0.440	1.900
2020/01/31 23:01:46.3	189.980	-0.010	-0.460	1.900
2020/01/31 23:01:46.4	189.970	0.020	-0.490	1.900
2020/01/31 23:01:46.5	189.970	0.050	-0.510	1.890
2020/01/31 23:01:46.6	189.960	0.080	-0.530	1.880
2020/01/31 23:01:46.7	189.970	0.110	-0.550	1.870
2020/01/31 23:01:46.8	189.970	0.140	-0.570	1.860
2020/01/31 23:01:46.9	189.970	0.170	-0.580	1.840
2020/01/31 23:01:47.0	189.980	0.200	-0.590	1.820
2020/01/31 23:01:47.1	189.980	0.220	-0.610	1.790
2020/01/31 23:01:47.2	190.000	0.250	-0.610	1.770
2020/01/31 23:01:47.3	190.010	0.270	-0.610	1.740
2020/01/31 23:01:47.4	190.030	0.290	-0.610	1.710
2020/01/31 23:01:47.5	190.050	0.300	-0.600	1.680
2020/01/31 23:01:47.6	190.070	0.320	-0.590	1.640
2020/01/31 23:01:47.7	190.090	0.330	-0.580	1.610
2020/01/31 23:01:47.8	190.110	0.330	-0.570	1.570
2020/01/31 23:01:47.9	190.140	0.340	-0.550	1.530
2020/01/31 23:01:48.0	190.160	0.340	-0.530	1.490
2020/01/31 23:01:48.1	190.180	0.330	-0.500	1.450
2020/01/31 23:01:48.2	190.210	0.320	-0.480	1.410
2020/01/31 23:01:48.3	190.230	0.310	-0.460	1.380
2020/01/31 23:01:48.4	190.250	0.290	-0.440	1.340
2020/01/31 23:01:48.5	190.270	0.270	-0.410	1.310
2020/01/31 23:01:48.6	190.290	0.250	-0.390	1.280
2020/01/31 23:01:48.7	190.310	0.230	-0.370	1.260
2020/01/31 23:01:48.8	190.330	0.200	-0.350	1.230
2020/01/31 23:01:48.9	190.350	0.160	-0.330	1.210
2020/01/31 23:01:49.0	190.360	0.130	-0.310	1.190
2020/01/31 23:01:49.1	190.360	0.100	-0.300	1.180
2020/01/31 23:01:49.2	190.370	0.060	-0.290	1.170
2020/01/31 23:01:49.3	190.380	0.020	-0.280	1.160
2020/01/31 23:01:49.4	190.390	-0.020	-0.270	1.160
2020/01/31 23:01:49.5	190.400	-0.060	-0.260	1.150
2020/01/31 23:01:49.6	190.410	-0.100	-0.250	1.160
2020/01/31 23:01:49.7	190.410	-0.140	-0.250	1.160
2020/01/31 23:01:49.8	190.410	-0.180	-0.250	1.170
2020/01/31 23:01:49.9	190.420	-0.220	-0.250	1.180
2020/01/31 23:01:50.0	190.420	-0.250	-0.250	1.190
2020/01/31 23:01:50.1	190.410	-0.290	-0.250	1.200
2020/01/31 23:01:50.2	190.410	-0.320	-0.260	1.220
2020/01/31 23:01:50.3	190.410	-0.350	-0.270	1.230
2020/01/31 23:01:50.4	190.400	-0.370	-0.270	1.250
2020/01/31 23:01:50.5	190.400	-0.400	-0.280	1.270
2020/01/31 23:01:50.6	190.390	-0.410	-0.290	1.290
2020/01/31 23:01:50.7	190.390	-0.430	-0.300	1.310
2020/01/31 23:01:50.8	190.380	-0.440	-0.310	1.320
2020/01/31 23:01:50.9	190.380	-0.450	-0.310	1.340
2020/01/31 23:01:51.0	190.370	-0.450	-0.320	1.360
2020/01/31 23:01:51.1	190.360	-0.440	-0.330	1.380
2020/01/31 23:01:51.2	190.350	-0.440	-0.340	1.390
2020/01/31 23:01:51.3	190.340	-0.420	-0.350	1.410
2020/01/31 23:01:51.4	190.330	-0.410	-0.360	1.420
2020/01/31 23:01:51.5	190.320	-0.390	-0.370	1.430
2020/01/31 23:01:51.6	190.310	-0.360	-0.380	1.450
2020/01/31 23:01:51.7	190.300	-0.330	-0.390	1.460
2020/01/31 23:01:51.8	190.290	-0.300	-0.400	1.470
2020/01/31 23:01:51.9	190.280	-0.260	-0.410	1.470
2020/01/31 23:01:52.0	190.270	-0.220	-0.420	1.480
2020/01/31 23:01:52.1	190.270	-0.180	-0.430	1.480
2020/01/31 23:01:52.2	190.260	-0.140	-0.430	1.490
2020/01/31 23:01:52.3	190.250	-0.090	-0.440	1.490
2020/01/31 23:01:52.4	190.240	-0.050	-0.440	1.490
2020/01/31 23:01:52.5	190.240	0.000	-0.440	1.480
2020/01/31 23:01:52.6	190.230	0.050	-0.450	1.480
2020/01/31 23:01:52.7	190.230	0.090	-0.450	1.470
2020/01/31 23:01:52.8	190.230	0.140	-0.440	1.470
2020/01/31 23:01:52.9	190.230	0.180	-0.440	1.460
2020/01/31 23:01:53.0	190.230	0.220	-0.430	1.440
2020/01/31 23:01:53.1	190.230	0.260	-0.420	1.430
2020/01/31 23:01:53.2	190.240	0.290	-0.410	1.410
2020/01/31 23:01:53.3	190.250	0.320	-0.390	1.400
2020/01/31 23:01:53.4	190.260	0.340	-0.360	1.380
2020/01/31 23:01:53.5	190.280	0.360	-0.340	1.360
2020/01/31 23:01:53.6	190.290	0.380	-0.300	1.340
2020/01/31 23:01:53.7	190.310	0.390	-0.270	1.330
2020/01/31 23:01:53.8	190.330	0.390	-0.220	1.310
2020/01/31 23:01:53.9	190.360	0.390	-0.180	1.290
2020/01/31 23:01:54.0	190.390	0.380	-0.130	1.280
2020/01/31 23:01:54.1	190.410	0.370	-0.070	1.260
2020/01/31 23:01:54.2	190.440	0.350	-0.020	1.250
2020/01/31 23:01:54.3	190.470	0.320	0.050	1.240
2020/01/31 23:01:54.4	190.510	0.290	0.110	1.230
2020/01/31 23:01:54.5	190.540	0.260	0.180	1.230
2020/01/31 23:01:54.6	190.580	0.220	0.250	1.220
2020/01/31 23:01:54.7	190.620	0.180	0.320	1.220
2020/01/31 23:01:54.8	190.650	0.130	0.390	1.220
2020/01/31 23:01:54.9	190.690	0.080	0.460	1.230
2020/01/31 23:01:55.0	190.730	0.030	0.530	1.230
2020/01/31 23:01:55.1	190.760	-0.030	0.590	1.230
2020/01/31 23:01:55.2	190.790	-0.080	0.650	1.240
2020/01/31 23:01:55.3	190.820	-0.140	0.710	1.250
2020/01/31 23:01:55.4	190.850	-0.200	0.760	1.270
2020/01/31 23:01:55.5	190.880	-0.250	0.800	1.280
2020/01/31 23:01:55.6	190.900	-0.300	0.840	1.300
2020/01/31 23:01:55.7	190.920	-0.360	0.860	1.320
2020/01/31 23:01:55.8	190.930	-0.410	0.880	1.340
2020/01/31 23:01:55.9	190.940	-0.450	0.890	1.360
2020/01/31 23:01:56.0	190.950	-0.490	0.890	1.390
2020/01/31 23:01:56.1	190.950	-0.530	0.870	1.420
2020/01/31 23:01:56.2	190.940	-0.560	0.840	1.450
2020/01/31 23:01:56.3	190.930	-0.580	0.810	1.490
2020/01/31 23:01:56.4	190.910	-0.600	0.760	1.530
2020/01/31 23:01:56.5	190.890	-0.610	0.700	1.570
2020/01/31 23:01:56.6	190.860	-0.610	0.630	1.610
2020/01/31 23:01:56.7	190.830	-0.600	0.550	1.660
2020/01/31 23:01:56.8	190.790	-0.590	0.460	1.720
2020/01/31 23:01:56.9	190.740	-0.570	0.360	1.770
2020/01/31 23:01:57.0	190.690	-0.540	0.240	1.830
2020/01/31 23:01:57.1	190.630	-0.500	0.130	1.890
2020/01/31 23:01:57.2	190.570	-0.460	0.000	1.960
2020/01/31 23:01:57.3	190.500	-0.410	-0.130	2.020
2020/01/31 23:01:57.4	190.440	-0.350	-0.260	2.090
2020/01/31 23:01:57.5	190.370	-0.290	-0.400	2.150
2020/01/31 23:01:57.6	190.300	-0.220	-0.540	2.220
2020/01/31 23:01:57.7	190.220	-0.150	-0.680	2.280
2020/01/31 23:01:57.8	190.150	-0.070	-0.820	2.340
2020/01/31 23:01:57.9	190.080	0.010	-0.950	2.390
2020/01/31 23:01:58.0	190.010	0.090	-1.070	2.440
2020/01/31 23:01:58.1	189.950	0.170	-1.190	2.490
2020/01/31 23:01:58.2	189.880	0.250	-1.290	2.530
2020/01/31 23:01:58.3	189.820	0.330	-1.390	2.560
2020/01/31 23:01:58.4	189.770	0.410	-1.470	2.580
2020/01/31 23:01:58.5	189.720	0.480	-1.530	2.590
2020/01/31 23:01:58.6	189.680	0.550	-1.580	2.600
2020/01/31 23:01:58.7	189.650	0.620	-1.620	2.590
2020/01/31 23:01:58.8	189.630	0.670	-1.630	2.580
2020/01/31 23:01:58.9	189.610	0.730	-1.630	2.560
2020/01/31 23:01:59.0	189.610	0.770	-1.620	2.520
2020/01/31 23:01:59.1	189.620	0.810	-1.580	2.480
2020/01/31 23:01:59.2	189.630	0.840	-1.530	2.430
2020/01/31 23:01:59.3	189.650	0.860	-1.460	2.380
2020/01/31 23:01:59.4	189.690	0.870	-1.380	2.320
2020/01/31 23:01:59.5	189.730	0.870	-1.290	2.260
2020/01/31 23:01:59.6	189.770	0.870	-1.180	2.190
2020/01/31 23:01:59.7	189.830	0.850	-1.060	2.120
2020/01/31 23:01:59.8	189.890	0.830	-0.930	2.040
2020/01/31 23:01:59.9	189.950	0.800	-0.800	1.960
2020/01/31 23:02:00.0	190.020	0.760	-0.660	1.880
2020/01/31 23:02:00.1	190.090	0.710	-0.520	1.790
2020/01/31 23:02:00.2	190.170	0.660	-0.380	1.710
2020/01/31 23:02:00.3	190.250	0.600	-0.240	1.630
2020/01/31 23:02:00.4	190.330	0.540	-0.100	1.540
2020/01/31 23:02:00.5	190.410	0.470	0.030	1.460
2020/01/31 23:02:00.6	190.490	0.400	0.160	1.390
2020/01/31 23:02:00.7	190.570	0.320	0.270	1.320
2020/01/31 23:02:00.8	190.650	0.250	0.380	1.250
2020/01/31 23:02:00.9	190.730	0.170	0.470	1.190
2020/01/31 23:02:01.0	190.800	0.090	0.550	1.130
2020/01/31 23:02:01.1	190.860	0.020	0.610	1.070
2020/01/31 23:02:01.2	190.930	-0.050	0.660	1.030
2020/01/31 23:02:01.3	190.990	-0.120	0.690	0.990
2020/01/31 23:02:01.4	191.040	-0.190	0.710	0.970
2020/01/31 23:02:01.5	191.080	-0.250	0.700	0.940
2020/01/31 23:02:01.6	191.130	-0.300	0.690	0.930
2020/01/31 23:02:01.7	191.160	-0.350	0.650	0.920
2020/01/31 23:02:01.8	191.190	-0.390	0.600	0.920
2020/01/31 23:02:01.9	191.210	-0.420	0.530	0.920
2020/01/31 23:02:02.0	191.230	-0.440	0.450	0.920
2020/01/31 23:02:02.1	191.250	-0.460	0.350	0.930
2020/01/31 23:02:02.2	191.260	-0.470	0.240	0.950
2020/01/31 23:02:02.3	191.260	-0.470	0.130	0.960
2020/01/31 23:02:02.4	191.260	-0.470	0.000	0.980
2020/01/31 23:02:02.5	191.250	-0.460	-0.130	1.000
2020/01/31 23:02:02.6	191.240	-0.440	-0.270	1.020
2020/01/31 23:02:02.7	191.230	-0.420	-0.400	1.050
2020/01/31 23:02:02.8	191.210	-0.390	-0.540	1.070
2020/01/31 23:02:02.9	191.180	-0.360	-0.680	1.100
2020/01/31 23:02:03.0	191.160	-0.320	-0.810	1.140
2020/01/31 23:02:03.1	191.130	-0.280	-0.940	1.170
2020/01/31 23:02:03.2	191.100	-0.240	-1.060	1.210
2020/01/31 23:02:03.3	191.070	-0.200	-1.170	1.250
2020/01/31 23:02:03.4	191.040	-0.160	-1.280	1.300
2020/01/31 23:02:03.5	191.010	-0.120	-1.370	1.350
2020/01/31 23:02:03.6	190.980	-0.090	-1.440	1.400
2020/01/31 23:02:03.7	190.950	-0.050	-1.510	1.450
2020/01/31 23:02:03.8	190.920	-0.020	-1.560	1.510
2020/01/31 23:02:03.9	190.890	0.010	-1.590	1.570
2020/01/31 23:02:04.0	190.860	0.030	-1.610	1.630
2020/01/31 23:02:04.1	190.840	0.060	-1.620	1.690
2020/01/31 23:02:04.2	190.810	0.070	-1.610	1.740
2020/01/31 23:02:04.3	190.790	0.080	-1.580	1.800
2020/01/31 23:02:04.4	190.780	0.090	-1.540	1.860
2020/01/31 23:02:04.5	190.760	0.090	-1.490	1.920
2020/01/31 23:02:04.6	190.750	0.080	-1.420	1.970
2020/01/31 23:02:04.7	190.740	0.070	-1.340	2.020
2020/01/31 23:02:04.8	190.730	0.050	-1.250	2.060
2020/01/31 23:02:04.9	190.720	0.030	-1.140	2.110
2020/01/31 23:02:05.0	190.720	0.000	-1.030	2.140
2020/01/31 23:02:05.1	190.720	-0.030	-0.910	2.170
2020/01/31 23:02:05.2	190.720	-0.070	-0.790	2.200
2020/01/31 23:02:05.3	190.720	-0.110	-0.660	2.220
2020/01/31 23:02:05.4	190.730	-0.150	-0.530	2.240
2020/01/31 23:02:05.5	190.730	-0.190	-0.390	2.250
2020/01/31 23:02:05.6	190.740	-0.240	-0.260	2.260
2020/01/31 23:02:05.7	190.750	-0.290	-0.120	2.260
2020/01/31 23:02:05.8	190.750	-0.340	0.010	2.260
2020/01/31 23:02:05.9	190.760	-0.380	0.140	2.250
2020/01/31 23:02:06.0	190.770	-0.430	0.260	2.240
2020/01/31 23:02:06.1	190.770	-0.480	0.370	2.220
2020/01/31 23:02:06.2	190.780	-0.520	0.480	2.210
2020/01/31 23:02:06.3	190.780	-0.560	0.580	2.190
2020/01/31 23:02:06.4	190.780	-0.590	0.660	2.170
2020/01/31 23:02:06.5	190.790	-0.620	0.740	2.150
2020/01/31 23:02:06.6	190.790	-0.650	0.810	2.130
2020/01/31 23:02:06.7	190.790	-0.670	0.870	2.110
2020/01/31 23:02:06.8	190.790	-0.680	0.910	2.090
2020/01/31 23:02:06.9	190.780	-0.690	0.950	2.060
2020/01/31 23:02:07.0	190.780	-0.690	0.970	2.040
2020/01/31 23:02:07.1	190.770	-0.690	0.980	2.020
2020/01/31 23:02:07.2	190.770	-0.680	0.980	1.990
2020/01/31 23:02:07.3	190.760	-0.660	0.980	1.960
2020/01/31 23:02:07.4	190.750	-0.630	0.960	1.940
2020/01/31 23:02:07.5	190.740	-0.600	0.930	1.910
2020/01/31 23:02:07.6	190.720	-0.570	0.900	1.880
2020/01/31 23:02:07.7	190.710	-0.520	0.860	1.860
2020/01/31 23:02:07.8	190.700	-0.480	0.810	1.830
2020/01/31 23:02:07.9	190.680	-0.430	0.760	1.810
2020/01/31 23:02:08.0	190.660	-0.370	0.700	1.780
2020/01/31 23:02:08.1	190.640	-0.310	0.640	1.750
2020/01/31 23:02:08.2	190.620	-0.250	0.580	1.730
2020/01/31 23:02:08.3	190.600	-0.190	0.520	1.710
2020/01/31 23:02:08.4	190.580	-0.130	0.450	1.690
2020/01/31 23:02:08.5	190.560	-0.060	0.390	1.660
2020/01/31 23:02:08.6	190.540	0.000	0.320	1.640
2020/01/31 23:02:08.7	190.520	0.070	0.260	1.620
2020/01/31 23:02:08.8	190.510	0.130	0.200	1.600
2020/01/31 23:02:08.9	190.490	0.190	0.140	1.580
2020/01/31 23:02:09.0	190.470	0.250	0.080	1.560
2020/01/31 23:02:09.1	190.460	0.310	0.040	1.530
2020/01/31 23:02:09.2	190.440	0.360	-0.010	1.510
2020/01/31 23:02:09.3	190.430	0.410	-0.060	1.490
2020/01/31 23:02:09.4	190.420	0.450	-0.100	1.460
2020/01/31 23:02:09.5	190.410	0.490	-0.140	1.440
2020/01/31 23:02:09.6	190.410	0.520	-0.170	1.420
2020/01/31 23:02:09.7	190.400	0.550	-0.200	1.390
2020/01/31 23:02:09.8	190.390	0.570	-0.230	1.370
2020/01/31 23:02:09.9	190.390	0.590	-0.250	1.350
2020/01/31 23:02:10.0	190.380	0.610	-0.270	1.330
2020/01/31 23:02:10.1	190.380	0.610	-0.290	1.310
2020/01/31 23:02:10.2	190.380	0.620	-0.300	1.290
2020/01/31 23:02:10.3	190.380	0.610	-0.310	1.270
2020/01/31 23:02:10.4	190.370	0.610	-0.320	1.250
2020/01/31 23:02:10.5	190.370	0.600	-0.330	1.230
2020/01/31 23:02:10.6	190.370	0.580	-0.340	1.220
2020/01/31 23:02:10.7	190.370	0.560	-0.350	1.200
2020/01/31 23:02:10.8	190.370	0.540	-0.350	1.190
2020/01/31 23:02:10.9	190.370	0.520	-0.360	1.180
2020/01/31 23:02:11.0	190.370	0.490	-0.360	1.170
2020/01/31 23:02:11.1	190.370	0.460	-0.360	1.160
2020/01/31 23:02:11.2	190.380	0.430	-0.360	1.150
2020/01/31 23:02:11.3	190.380	0.400	-0.370	1.150
2020/01/31 23:02:11.4	190.390	0.370	-0.370	1.140
2020/01/31 23:02:11.5	190.390	0.330	-0.370	1.140
2020/01/31 23:02:11.6	190.400	0.300	-0.380	1.140
2020/01/31 23:02:11.7	190.400	0.270	-0.380	1.140
2020/01/31 23:02:11.8	190.410	0.240	-0.390	1.150
2020/01/31 23:02:11.9	190.420	0.210	-0.390	1.150
2020/01/31 23:02:12.0	190.430	0.180	-0.400	1.150
2020/01/31 23:02:12.1	190.430	0.160	-0.410	1.160
2020/01/31 23:02:12.2	190.440	0.140	-0.420	1.170
2020/01/31 23:02:12.3	190.450	0.120	-0.430	1.180
2020/01/31 23:02:12.4	190.460	0.100	-0.440	1.180
2020/01/31 23:02:12.5	190.470	0.090	-0.460	1.190
2020/01/31 23:02:12.6	190.480	0.080	-0.470	1.200
2020/01/31 23:02:12.7	190.490	0.070	-0.490	1.200
2020/01/31 23:02:12.8	190.500	0.060	-0.510	1.210
2020/01/31 23:02:12.9	190.520	0.050	-0.520	1.220
2020/01/31 23:02:13.0	190.530	0.050	-0.540	1.220
2020/01/31 23:02:13.1	190.540	0.050	-0.560	1.220
2020/01/31 23:02:13.2	190.560	0.050	-0.580	1.230
2020/01/31 23:02:13.3	190.580	0.050	-0.600	1.230
2020/01/31 23:02:13.4	190.600	0.050	-0.610	1.230
2020/01/31 23:02:13.5	190.620	0.060	-0.630	1.240
2020/01/31 23:02:13.6	190.640	0.060	-0.650	1.250
2020/01/31 23:02:13.7	190.660	0.070	-0.660	1.260
2020/01/31 23:02:13.8	190.690	0.070	-0.680	1.270
2020/01/31 23:02:13.9	190.710	0.070	-0.690	1.280
2020/01/31 23:02:14.0	190.720	0.080	-0.710	1.300
2020/01/31 23:02:14.1	190.760	0.080	-0.720	1.320
2020/01/31 23:02:14.2	190.770	0.090	-0.730	1.350
2020/01/31 23:02:14.3	190.790	0.090	-0.740	1.370
2020/01/31 23:02:14.4	190.800	0.090	-0.750	1.410
2020/01/31 23:02:14.5	190.810	0.090	-0.750	1.440
2020/01/31 23:02:14.6	190.820	0.090	-0.760	1.480
2020/01/31 23:02:14.7	190.830	0.090	-0.760	1.520
2020/01/31 23:02:14.8	190.830	0.090	-0.770	1.560
2020/01/31 23:02:14.9	190.830	0.080	-0.770	1.610
2020/01/31 23:02:15.0	190.830	0.080	-0.770	1.660
2020/01/31 23:02:15.1	190.820	0.080	-0.780	1.710
2020/01/31 23:02:15.2	190.810	0.070	-0.780	1.760
2020/01/31 23:02:15.3	190.800	0.070	-0.780	1.820
2020/01/31 23:02:15.4	190.790	0.060	-0.780	1.870
2020/01/31 23:02:15.5	190.770	0.050	-0.770	1.930
2020/01/31 23:02:15.6	190.750	0.040	-0.770	1.990
2020/01/31 23:02:15.7	190.720	0.030	-0.760	2.050
2020/01/31 23:02:15.8	190.690	0.020	-0.750	2.100
2020/01/31 23:02:15.9	190.670	0.010	-0.740	2.160
2020/01/31 23:02:16.0	190.640	-0.000	-0.730	2.220
2020/01/31 23:02:16.1	190.600	-0.010	-0.710	2.270
2020/01/31 23:02:16.2	190.570	-0.030	-0.690	2.320
2020/01/31 23:02:16.3	190.540	-0.040	-0.670	2.370
2020/01/31 23:02:16.4	190.500	-0.060	-0.650	2.420
2020/01/31 23:02:16.5	190.470	-0.080	-0.620	2.470
2020/01/31 23:02:16.6	190.440	-0.100	-0.580	2.510
2020/01/31 23:02:16.7	190.410	-0.120	-0.550	2.550
2020/01/31 23:02:16.8	190.380	-0.140	-0.510	2.590
2020/01/31 23:02:16.9	190.350	-0.160	-0.460	2.630
2020/01/31 23:02:17.0	190.320	-0.180	-0.420	2.660
2020/01/31 23:02:17.1	190.290	-0.200	-0.370	2.690
2020/01/31 23:02:17.2	190.260	-0.220	-0.320	2.710
2020/01/31 23:02:17.3	190.230	-0.240	-0.260	2.740
2020/01/31 23:02:17.4	190.210	-0.260	-0.210	2.760
2020/01/31 23:02:17.5	190.180	-0.290	-0.150	2.780
2020/01/31 23:02:17.6	190.160	-0.300	-0.090	2.790
2020/01/31 23:02:17.7	190.130	-0.320	-0.030	2.800
2020/01/31 23:02:17.8	190.110	-0.340	0.030	2.810
2020/01/31 23:02:17.9	190.090	-0.350	0.090	2.810
2020/01/31 23:02:18.0	190.060	-0.370	0.150	2.810
2020/01/31 23:02:18.1	190.040	-0.380	0.210	2.810
2020/01/31 23:02:18.2	190.020	-0.380	0.260	2.800
2020/01/31 23:02:18.3	190.000	-0.390	0.310	2.790
2020/01/31 23:02:18.4	189.980	-0.390	0.360	2.770
2020/01/31 23:02:18.5	189.960	-0.390	0.410	2.750
2020/01/31 23:02:18.6	189.940	-0.380	0.450	2.720
2020/01/31 23:02:18.7	189.930	-0.370	0.480	2.680
2020/01/31 23:02:18.8	189.910	-0.360	0.510	2.640
2020/01/31 23:02:18.9	189.900	-0.340	0.540	2.600
2020/01/31 23:02:19.0	189.880	-0.320	0.560	2.550
2020/01/31 23:02:19.1	189.880	-0.290	0.570	2.490
2020/01/31 23:02:19.2	189.870	-0.270	0.580	2.430
2020/01/31 23:02:19.3	189.860	-0.240	0.590	2.370
2020/01/31 23:02:19.4	189.860	-0.200	0.590	2.310
2020/01/31 23:02:19.5	189.860	-0.170	0.580	2.240
2020/01/31 23:02:19.6	189.850	-0.130	0.570	2.170
2020/01/31 23:02:19.7	189.850	-0.090	0.550	2.090
2020/01/31 23:02:19.8	189.850	-0.050	0.530	2.020
2020/01/31 23:02:19.9	189.850	-0.010	0.500	1.950
2020/01/31 23:02:20.0	189.860	0.030	0.470	1.880
2020/01/31 23:02:20.1	189.860	0.080	0.440	1.810
2020/01/31 23:02:20.2	189.870	0.120	0.400	1.740
2020/01/31 23:02:20.3	189.870	0.160	0.360	1.670
2020/01/31 23:02:20.4	189.880	0.200	0.310	1.610
2020/01/31 23:02:20.5	189.890	0.240	0.260	1.540
2020/01/31 23:02:20.6	189.890	0.280	0.210	1.490
2020/01/31 23:02:20.7	189.900	0.320	0.150	1.430
2020/01/31 23:02:20.8	189.910	0.350	0.100	1.380
2020/01/31 23:02:20.9	189.920	0.380	0.040	1.340
2020/01/31 23:02:21.0	189.920	0.410	-0.020	1.290
2020/01/31 23:02:21.1	189.930	0.440	-0.080	1.250
2020/01/31 23:02:21.2	189.940	0.460	-0.140	1.220
2020/01/31 23:02:21.3	189.940	0.480	-0.200	1.190
2020/01/31 23:02:21.4	189.950	0.490	-0.260	1.160
2020/01/31 23:02:21.5	189.960	0.500	-0.320	1.140
2020/01/31 23:02:21.6	189.970	0.510	-0.380	1.120
2020/01/31 23:02:21.7	189.970	0.510	-0.440	1.110
2020/01/31 23:02:21.8	189.980	0.510	-0.490	1.100
2020/01/31 23:02:21.9	189.980	0.500	-0.550	1.090
2020/01/31 23:02:22.0	189.990	0.490	-0.600	1.080
2020/01/31 23:02:22.1	189.990	0.480	-0.640	1.080
2020/01/31 23:02:22.2	189.990	0.460	-0.690	1.080
2020/01/31 23:02:22.3	189.990	0.440	-0.730	1.090
2020/01/31 23:02:22.4	189.990	0.410	-0.760	1.100
2020/01/31 23:02:22.5	189.980	0.380	-0.800	1.110
2020/01/31 23:02:22.6	189.980	0.350	-0.830	1.130
2020/01/31 23:02:22.7	189.980	0.320	-0.850	1.140
2020/01/31 23:02:22.8	189.970	0.280	-0.870	1.170
2020/01/31 23:02:22.9	189.970	0.240	-0.890	1.190
2020/01/31 23:02:23.0	189.960	0.200	-0.900	1.220
2020/01/31 23:02:23.1	189.950	0.150	-0.910	1.260
2020/01/31 23:02:23.2	189.940	0.110	-0.920	1.290
2020/01/31 23:02:23.3	189.930	0.070	-0.920	1.330
2020/01/31 23:02:23.4	189.920	0.020	-0.910	1.370
2020/01/31 23:02:23.5	189.910	-0.020	-0.910	1.410
2020/01/31 23:02:23.6	189.900	-0.070	-0.900	1.460
2020/01/31 23:02:23.7	189.880	-0.110	-0.880	1.500
2020/01/31 23:02:23.8	189.870	-0.160	-0.870	1.550
2020/01/31 23:02:23.9	189.860	-0.200	-0.850	1.590
2020/01/31 23:02:24.0	189.850	-0.240	-0.830	1.640
2020/01/31 23:02:24.1	189.840	-0.280	-0.810	1.690
2020/01/31 23:02:24.2	189.830	-0.310	-0.780	1.730
2020/01/31 23:02:24.3	189.820	-0.350	-0.760	1.770
2020/01/31 23:02:24.4	189.810	-0.380	-0.730	1.810
2020/01/31 23:02:24.5	189.800	-0.410	-0.700	1.840
2020/01/31 23:02:24.6	189.790	-0.430	-0.670	1.870
2020/01/31 23:02:24.7	189.790	-0.450	-0.640	1.890
2020/01/31 23:02:24.8	189.780	-0.470	-0.610	1.910
2020/01/31 23:02:24.9	189.780	-0.490	-0.570	1.930
2020/01/31 23:02:25.0	189.780	-0.500	-0.540	1.940
2020/01/31 23:02:25.1	189.780	-0.510	-0.500	1.940
2020/01/31 23:02:25.2	189.780	-0.510	-0.470	1.940
2020/01/31 23:02:25.3	189.790	-0.520	-0.430	1.930
2020/01/31 23:02:25.4	189.790	-0.520	-0.390	1.920
2020/01/31 23:02:25.5	189.800	-0.510	-0.350	1.910
2020/01/31 23:02:25.6	189.820	-0.510	-0.310	1.890
2020/01/31 23:02:25.7	189.830	-0.500	-0.280	1.870
2020/01/31 23:02:25.8	189.850	-0.480	-0.240	1.840
2020/01/31 23:02:25.9	189.870	-0.470	-0.210	1.820
2020/01/31 23:02:26.0	189.890	-0.450	-0.170	1.790
2020/01/31 23:02:26.1	189.910	-0.430	-0.140	1.760
2020/01/31 23:02:26.2	189.930	-0.410	-0.110	1.730
2020/01/31 23:02:26.3	189.960	-0.390	-0.090	1.690
2020/01/31 23:02:26.4	189.980	-0.360	-0.070	1.660
2020/01/31 23:02:26.5	190.000	-0.330	-0.050	1.630
2020/01/31 23:02:26.6	190.020	-0.300	-0.030	1.600
2020/01/31 23:02:26.7	190.040	-0.270	-0.020	1.570
2020/01/31 23:02:26.8	190.060	-0.230	-0.010	1.550
2020/01/31 23:02:26.9	190.080	-0.200	-0.010	1.520
2020/01/31 23:02:27.0	190.100	-0.160	-0.010	1.500
2020/01/31 23:02:27.1	190.110	-0.130	-0.010	1.470
2020/01/31 23:02:27.2	190.120	-0.090	-0.020	1.450
2020/01/31 23:02:27.3	190.130	-0.050	-0.030	1.430
2020/01/31 23:02:27.4	190.140	-0.010	-0.050	1.410
2020/01/31 23:02:27.5	190.140	0.030	-0.070	1.390
2020/01/31 23:02:27.6	190.140	0.060	-0.090	1.380
2020/01/31 23:02:27.7	190.140	0.100	-0.110	1.360
2020/01/31 23:02:27.8	190.140	0.140	-0.140	1.350
2020/01/31 23:02:27.9	190.130	0.170	-0.160	1.340
2020/01/31 23:02:28.0	190.120	0.210	-0.190	1.330
2020/01/31 23:02:28.1	190.110	0.240	-0.220	1.320
2020/01/31 23:02:28.2	190.100	0.270	-0.250	1.310
2020/01/31 23:02:28.3	190.090	0.300	-0.270	1.300
2020/01/31 23:02:28.4	190.080	0.320	-0.290	1.300
2020/01/31 23:02:28.5	190.070	0.340	-0.310	1.300
2020/01/31 23:02:28.6	190.060	0.360	-0.330	1.300
2020/01/31 23:02:28.7	190.050	0.370	-0.340	1.300
2020/01/31 23:02:28.8	190.040	0.380	-0.350	1.310
2020/01/31 23:02:28.9	190.030	0.380	-0.350	1.320
2020/01/31 23:02:29.0	190.030	0.380	-0.350	1.330
2020/01/31 23:02:29.1	190.030	0.370	-0.340	1.350
2020/01/31 23:02:29.2	190.020	0.360	-0.320	1.370
2020/01/31 23:02:29.3	190.020	0.340	-0.300	1.390
2020/01/31 23:02:29.4	190.030	0.320	-0.280	1.420
2020/01/31 23:02:29.5	190.030	0.300	-0.250	1.440
2020/01/31 23:02:29.6	190.040	0.270	-0.220	1.480
2020/01/31 23:02:29.7	190.050	0.240	-0.180	1.510
2020/01/31 23:02:29.8	190.060	0.200	-0.140	1.550
2020/01/31 23:02:29.9	190.070	0.160	-0.090	1.590
2020/01/31 23:02:30.0	190.080	0.110	-0.040	1.620
2020/01/31 23:02:30.1	190.090	0.070	0.010	1.660
2020/01/31 23:02:30.2	190.110	0.020	0.060	1.700
2020/01/31 23:02:30.3	190.130	-0.030	0.120	1.740
2020/01/31 23:02:30.4	190.150	-0.080	0.170	1.780
2020/01/31 23:02:30.5	190.170	-0.140	0.230	1.820
2020/01/31 23:02:30.6	190.180	-0.190	0.280	1.850
2020/01/31 23:02:30.7	190.200	-0.240	0.330	1.890
2020/01/31 23:02:30.8	190.220	-0.290	0.380	1.930
2020/01/31 23:02:30.9	190.230	-0.330	0.420	1.960
2020/01/31 23:02:31.0	190.240	-0.380	0.460	2.000
2020/01/31 23:02:31.1	190.250	-0.420	0.500	2.030
2020/01/31 23:02:31.2	190.250	-0.460	0.520	2.070
2020/01/31 23:02:31.3	190.250	-0.490	0.550	2.100
2020/01/31 23:02:31.4	190.250	-0.520	0.560	2.140
2020/01/31 23:02:31.5	190.250	-0.540	0.570	2.170
2020/01/31 23:02:31.6	190.240	-0.550	0.570	2.200
2020/01/31 23:02:31.7	190.220	-0.560	0.560	2.240
2020/01/31 23:02:31.8	190.210	-0.570	0.540	2.270
2020/01/31 23:02:31.9	190.190	-0.560	0.510	2.300
2020/01/31 23:02:32.0	190.160	-0.550	0.480	2.330
2020/01/31 23:02:32.1	190.130	-0.540	0.430	2.370
2020/01/31 23:02:32.2	190.100	-0.510	0.380	2.400
2020/01/31 23:02:32.3	190.070	-0.480	0.320	2.430
2020/01/31 23:02:32.4	190.040	-0.450	0.260	2.460
2020/01/31 23:02:32.5	190.000	-0.400	0.190	2.490
2020/01/31 23:02:32.6	189.970	-0.360	0.120	2.510
2020/01/31 23:02:32.7	189.930	-0.300	0.040	2.540
2020/01/31 23:02:32.8	189.890	-0.240	-0.040	2.560
2020/01/31 23:02:32.9	189.850	-0.180	-0.120	2.580
2020/01/31 23:02:33.0	189.810	-0.120	-0.200	2.590
2020/01/31 23:02:33.1	189.760	-0.050	-0.280	2.610
2020/01/31 23:02:33.2	189.720	0.020	-0.360	2.620
2020/01/31 23:02:33.3	189.680	0.090	-0.430	2.620
2020/01/31 23:02:33.4	189.640	0.170	-0.500	2.620
2020/01/31 23:02:33.5	189.610	0.240	-0.570	2.620
2020/01/31 23:02:33.6	189.580	0.310	-0.630	2.610
2020/01/31 23:02:33.7	189.550	0.380	-0.690	2.590
2020/01/31 23:02:33.8	189.530	0.450	-0.740	2.570
2020/01/31 23:02:33.9	189.510	0.510	-0.780	2.550
2020/01/31 23:02:34.0	189.490	0.570	-0.810	2.520
2020/01/31 23:02:34.1	189.480	0.630	-0.840	2.480
2020/01/31 23:02:34.2	189.480	0.680	-0.860	2.430
2020/01/31 23:02:34.3	189.470	0.730	-0.870	2.390
2020/01/31 23:02:34.4	189.470	0.770	-0.870	2.330
2020/01/31 23:02:34.5	189.480	0.800	-0.870	2.280
2020/01/31 23:02:34.6	189.480	0.830	-0.860	2.220
2020/01/31 23:02:34.7	189.490	0.860	-0.850	2.150
2020/01/31 23:02:34.8	189.510	0.870	-0.830	2.080
2020/01/31 23:02:34.9	189.530	0.880	-0.800	2.010
2020/01/31 23:02:35.0	189.540	0.890	-0.770	1.940
2020/01/31 23:02:35.1	189.570	0.880	-0.740	1.860
2020/01/31 23:02:35.2	189.590	0.870	-0.700	1.780
2020/01/31 23:02:35.3	189.610	0.860	-0.660	1.700
2020/01/31 23:02:35.4	189.640	0.840	-0.630	1.630
2020/01/31 23:02:35.5	189.660	0.810	-0.590	1.550
2020/01/31 23:02:35.6	189.690	0.780	-0.550	1.470
2020/01/31 23:02:35.7	189.710	0.740	-0.510	1.400
2020/01/31 23:02:35.8	189.740	0.700	-0.480	1.330
2020/01/31 23:02:35.9	189.760	0.660	-0.440	1.260
2020/01/31 23:02:36.0	189.780	0.610	-0.410	1.190
2020/01/31 23:02:36.1	189.810	0.560	-0.390	1.130
2020/01/31 23:02:36.2	189.830	0.510	-0.360	1.070
2020/01/31 23:02:36.3	189.850	0.450	-0.340	1.010
2020/01/31 23:02:36.4	189.870	0.400	-0.320	0.960
2020/01/31 23:02:36.5	189.880	0.340	-0.300	0.920
2020/01/31 23:02:36.6	189.900	0.290	-0.290	0.880
2020/01/31 23:02:36.7	189.910	0.230	-0.280	0.840
2020/01/31 23:02:36.8	189.930	0.170	-0.270	0.810
2020/01/31 23:02:36.9	189.940	0.120	-0.270	0.790
2020/01/31 23:02:37.0	189.950	0.070	-0.260	0.770
2020/01/31 23:02:37.1	189.960	0.020	-0.260	0.760
2020/01/31 23:02:37.2	189.970	-0.030	-0.260	0.740
2020/01/31 23:02:37.3	189.980	-0.080	-0.270	0.740
2020/01/31 23:02:37.4	190.000	-0.120	-0.270	0.740
2020/01/31 23:02:37.5	190.010	-0.170	-0.280	0.740
2020/01/31 23:02:37.6	190.020	-0.210	-0.280	0.740
2020/01/31 23:02:37.7	190.040	-0.240	-0.290	0.750
2020/01/31 23:02:37.8	190.060	-0.280	-0.290	0.750
2020/01/31 23:02:37.9	190.070	-0.310	-0.300	0.760
2020/01/31 23:02:38.0	190.090	-0.340	-0.310	0.780
2020/01/31 23:02:38.1	190.120	-0.370	-0.310	0.790
2020/01/31 23:02:38.2	190.140	-0.400	-0.320	0.810
2020/01/31 23:02:38.3	190.160	-0.420	-0.330	0.830
2020/01/31 23:02:38.4	190.190	-0.440	-0.330	0.860
2020/01/31 23:02:38.5	190.210	-0.460	-0.340	0.880
2020/01/31 23:02:38.6	190.230	-0.480	-0.350	0.910
2020/01/31 23:02:38.7	190.250	-0.490	-0.360	0.940
2020/01/31 23:02:38.8	190.270	-0.500	-0.370	0.970
2020/01/31 23:02:38.9	190.280	-0.510	-0.380	1.010
2020/01/31 23:02:39.0	190.300	-0.520	-0.390	1.040
2020/01/31 23:02:39.1	190.310	-0.520	-0.410	1.080
2020/01/31 23:02:39.2	190.320	-0.530	-0.420	1.120
2020/01/31 23:02:39.3	190.320	-0.530	-0.440	1.160
2020/01/31 23:02:39.4	190.320	-0.520	-0.460	1.200
2020/01/31 23:02:39.5	190.320	-0.520	-0.490	1.250
2020/01/31 23:02:39.6	190.320	-0.510	-0.510	1.290
2020/01/31 23:02:39.7	190.310	-0.500	-0.540	1.340
2020/01/31 23:02:39.8	190.300	-0.490	-0.570	1.390
2020/01/31 23:02:39.9	190.280	-0.480	-0.590	1.440
2020/01/31 23:02:40.0	190.260	-0.460	-0.630	1.490
2020/01/31 23:02:40.1	190.250	-0.450	-0.660	1.540
2020/01/31 23:02:40.2	190.230	-0.430	-0.690	1.590
2020/01/31 23:02:40.3	190.200	-0.410	-0.720	1.640
2020/01/31 23:02:40.4	190.170	-0.390	-0.750	1.700
2020/01/31 23:02:40.5	190.140	-0.360	-0.780	1.750
2020/01/31 23:02:40.6	190.110	-0.340	-0.800	1.800
2020/01/31 23:02:40.7	190.080	-0.320	-0.820	1.850
2020/01/31 23:02:40.8	190.050	-0.290	-0.840	1.900
2020/01/31 23:02:40.9	190.020	-0.270	-0.860	1.940
2020/01/31 23:02:41.0	189.990	-0.240	-0.870	1.990
2020/01/31 23:02:41.1	189.950	-0.220	-0.870	2.040
2020/01/31 23:02:41.2	189.920	-0.190	-0.870	2.080
2020/01/31 23:02:41.3	189.880	-0.170	-0.860	2.110
2020/01/31 23:02:41.4	189.860	-0.140	-0.850	2.140
2020/01/31 23:02:41.5	189.830	-0.120	-0.830	2.170
2020/01/31 23:02:41.6	189.800	-0.100	-0.800	2.190
2020/01/31 23:02:41.7	189.770	-0.080	-0.760	2.210
2020/01/31 23:02:41.8	189.750	-0.060	-0.720	2.230
2020/01/31 23:02:41.9	189.730	-0.040	-0.670	2.240
2020/01/31 23:02:42.0	189.700	-0.030	-0.620	2.240
2020/01/31 23:02:42.1	189.680	-0.010	-0.560	2.240
2020/01/31 23:02:42.2	189.670	-0.000	-0.490	2.240
2020/01/31 23:02:42.3	189.650	0.010	-0.420	2.230
2020/01/31 23:02:42.4	189.630	0.010	-0.350	2.220
2020/01/31 23:02:42.5	189.620	0.020	-0.270	2.210
2020/01/31 23:02:42.6	189.610	0.020	-0.190	2.190
2020/01/31 23:02:42.7	189.600	0.020	-0.100	2.170
2020/01/31 23:02:42.8	189.590	0.020	-0.020	2.150
2020/01/31 23:02:42.9	189.580	0.010	0.070	2.120
2020/01/31 23:02:43.0	189.580	0.010	0.150	2.090
2020/01/31 23:02:43.1	189.570	-0.000	0.230	2.060
2020/01/31 23:02:43.2	189.570	-0.010	0.320	2.030
2020/01/31 23:02:43.3	189.570	-0.030	0.390	1.990
2020/01/31 23:02:43.4	189.570	-0.040	0.470	1.950
2020/01/31 23:02:43.5	189.580	-0.060	0.540	1.910
2020/01/31 23:02:43.6	189.580	-0.070	0.610	1.880
2020/01/31 23:02:43.7	189.590	-0.090	0.670	1.830
2020/01/31 23:02:43.8	189.600	-0.110	0.720	1.790
2020/01/31 23:02:43.9	189.610	-0.130	0.770	1.750
2020/01/31 23:02:44.0	189.620	-0.150	0.810	1.700
2020/01/31 23:02:44.1	189.630	-0.170	0.850	1.660
2020/01/31 23:02:44.2	189.650	-0.180	0.880	1.610
2020/01/31 23:02:44.3	189.660	-0.200	0.900	1.570
2020/01/31 23:02:44.4	189.680	-0.220	0.910	1.520
2020/01/31 23:02:44.5	189.700	-0.240	0.910	1.480
2020/01/31 23:02:44.6	189.720	-0.250	0.910	1.440
2020/01/31 23:02:44.7	189.750	-0.270	0.900	1.400
2020/01/31 23:02:44.8	189.770	-0.280	0.880	1.360
2020/01/31 23:02:44.9	189.790	-0.290	0.860	1.320
2020/01/31 23:02:45.0	189.810	-0.300	0.830	1.290
2020/01/31 23:02:45.1	189.830	-0.300	0.780	1.260
2020/01/31 23:02:45.2	189.840	-0.300	0.730	1.240
2020/01/31 23:02:45.3	189.860	-0.300	0.680	1.220
2020/01/31 23:02:45.4	189.870	-0.300	0.620	1.200
2020/01/31 23:02:45.5	189.880	-0.290	0.550	1.190
2020/01/31 23:02:45.6	189.890	-0.280	0.480	1.190
2020/01/31 23:02:45.7	189.900	-0.270	0.400	1.190
2020/01/31 23:02:45.8	189.900	-0.250	0.320	1.190
2020/01/31 23:02:45.9	189.900	-0.230	0.230	1.200
2020/01/31 23:02:46.0	189.900	-0.200	0.140	1.210
2020/01/31 23:02:46.1	189.890	-0.180	0.050	1.220
2020/01/31 23:02:46.2	189.890	-0.150	-0.040	1.240
2020/01/31 23:02:46.3	189.880	-0.110	-0.130	1.250
2020/01/31 23:02:46.4	189.860	-0.080	-0.230	1.270
2020/01/31 23:02:46.5	189.850	-0.040	-0.320	1.290
2020/01/31 23:02:46.6	189.840	-0.000	-0.400	1.300
2020/01/31 23:02:46.7	189.820	0.040	-0.490	1.320
2020/01/31 23:02:46.8	189.810	0.080	-0.570	1.340
2020/01/31 23:02:46.9	189.790	0.130	-0.650	1.350
2020/01/31 23:02:47.0	189.780	0.170	-0.720	1.370
2020/01/31 23:02:47.1	189.760	0.210	-0.790	1.390
2020/01/31 23:02:47.2	189.740	0.250	-0.850	1.400
2020/01/31 23:02:47.3	189.720	0.300	-0.900	1.410
2020/01/31 23:02:47.4	189.710	0.340	-0.950	1.420
2020/01/31 23:02:47.5	189.690	0.380	-0.990	1.440
2020/01/31 23:02:47.6	189.680	0.410	-1.020	1.450
2020/01/31 23:02:47.7	189.670	0.450	-1.050	1.450
2020/01/31 23:02:47.8	189.660	0.480	-1.060	1.460
2020/01/31 23:02:47.9	189.650	0.500	-1.070	1.470
2020/01/31 23:02:48.0	189.640	0.530	-1.080	1.480
2020/01/31 23:02:48.1	189.620	0.550	-1.070	1.490
2020/01/31 23:02:48.2	189.610	0.570	-1.060	1.500
2020/01/31 23:02:48.3	189.610	0.580	-1.050	1.510
2020/01/31 23:02:48.4	189.600	0.590	-1.030	1.520
2020/01/31 23:02:48.5	189.600	0.590	-1.000	1.530
2020/01/31 23:02:48.6	189.600	0.590	-0.970	1.540
2020/01/31 23:02:48.7	189.590	0.580	-0.940	1.560
2020/01/31 23:02:48.8	189.590	0.580	-0.900	1.580
2020/01/31 23:02:48.9	189.580	0.560	-0.860	1.590
2020/01/31 23:02:49.0	189.580	0.550	-0.820	1.610
2020/01/31 23:02:49.1	189.570	0.530	-0.770	1.630
2020/01/31 23:02:49.2	189.570	0.500	-0.730	1.650
2020/01/31 23:02:49.3	189.560	0.480	-0.680	1.670
2020/01/31 23:02:49.4	189.560	0.450	-0.630	1.690
2020/01/31 23:02:49.5	189.550	0.420	-0.590	1.720
2020/01/31 23:02:49.6	189.540	0.380	-0.540	1.740
2020/01/31 23:02:49.7	189.540	0.350	-0.500	1.760
2020/01/31 23:02:49.8	189.530	0.310	-0.450	1.780
2020/01/31 23:02:49.9	189.520	0.270	-0.410	1.800
2020/01/31 23:02:50.0	189.510	0.230	-0.360	1.820
2020/01/31 23:02:50.1	189.510	0.190	-0.320	1.840
2020/01/31 23:02:50.2	189.510	0.150	-0.280	1.850
2020/01/31 23:02:50.3	189.500	0.110	-0.240	1.870
2020/01/31 23:02:50.4	189.490	0.070	-0.200	1.880
2020/01/31 23:02:50.5	189.490	0.040	-0.150	1.890
2020/01/31 23:02:50.6	189.480	-0.000	-0.110	1.910
2020/01/31 23:02:50.7	189.480	-0.040	-0.070	1.910
2020/01/31 23:02:50.8	189.480	-0.080	-0.030	1.920
2020/01/31 23:02:50.9	189.480	-0.110	0.010	1.930
2020/01/31 23:02:51.0	189.480	-0.150	0.050	1.930
2020/01/31 23:02:51.1	189.470	-0.180	0.090	1.940
2020/01/31 23:02:51.2	189.480	-0.210	0.130	1.940
2020/01/31 23:02:51.3	189.480	-0.230	0.160	1.940
2020/01/31 23:02:51.4	189.490	-0.260	0.200	1.930
2020/01/31 23:02:51.5	189.500	-0.280	0.230	1.930
2020/01/31 23:02:51.6	189.510	-0.300	0.260	1.920
2020/01/31 23:02:51.7	189.520	-0.310	0.290	1.910
2020/01/31 23:02:51.8	189.540	-0.330	0.310	1.890
2020/01/31 23:02:51.9	189.550	-0.330	0.330	1.880
2020/01/31 23:02:52.0	189.570	-0.340	0.350	1.860
2020/01/31 23:02:52.1	189.590	-0.340	0.360	1.840
2020/01/31 23:02:52.2	189.610	-0.340	0.370	1.810
2020/01/31 23:02:52.3	189.630	-0.330	0.380	1.780
2020/01/31 23:02:52.4	189.650	-0.330	0.380	1.750
2020/01/31 23:02:52.5	189.670	-0.310	0.380	1.720
2020/01/31 23:02:52.6	189.690	-0.300	0.370	1.690
2020/01/31 23:02:52.7	189.710	-0.280	0.360	1.650
2020/01/31 23:02:52.8	189.730	-0.260	0.340	1.610
2020/01/31 23:02:52.9	189.750	-0.230	0.320	1.570
2020/01/31 23:02:53.0	189.770	-0.200	0.300	1.530
2020/01/31 23:02:53.1	189.790	-0.170	0.270	1.480
2020/01/31 23:02:53.2	189.800	-0.140	0.230	1.440
2020/01/31 23:02:53.3	189.820	-0.100	0.200	1.390
2020/01/31 23:02:53.4	189.840	-0.060	0.150	1.350
2020/01/31 23:02:53.5	189.850	-0.020	0.110	1.300
2020/01/31 23:02:53.6	189.860	0.020	0.060	1.260
2020/01/31 23:02:53.7	189.870	0.060	0.010	1.220
2020/01/31 23:02:53.8	189.880	0.110	-0.040	1.170
2020/01/31 23:02:53.9	189.890	0.150	-0.100	1.130
2020/01/31 23:02:54.0	189.900	0.200	-0.160	1.100
2020/01/31 23:02:54.1	189.910	0.240	-0.220	1.060
2020/01/31 23:02:54.2	189.910	0.280	-0.280	1.030
2020/01/31 23:02:54.3	189.920	0.320	-0.330	1.000
2020/01/31 23:02:54.4	189.920	0.360	-0.390	0.980
2020/01/31 23:02:54.5	189.920	0.400	-0.450	0.960
2020/01/31 23:02:54.6	189.920	0.430	-0.510	0.940
2020/01/31 23:02:54.7	189.930	0.460	-0.570	0.930
2020/01/31 23:02:54.8	189.930	0.490	-0.620	0.920
2020/01/31 23:02:54.9	189.930	0.520	-0.670	0.920
2020/01/31 23:02:55.0	189.920	0.540	-0.730	0.920
2020/01/31 23:02:55.1	189.930	0.550	-0.780	0.930
2020/01/31 23:02:55.2	189.920	0.560	-0.820	0.940
2020/01/31 23:02:55.3	189.920	0.570	-0.860	0.960
2020/01/31 23:02:55.4	189.910	0.570	-0.900	0.990
2020/01/31 23:02:55.5	189.900	0.570	-0.940	1.020
2020/01/31 23:02:55.6	189.890	0.570	-0.970	1.050
2020/01/31 23:02:55.7	189.880	0.550	-1.000	1.090
2020/01/31 23:02:55.8	189.860	0.540	-1.020	1.140
2020/01/31 23:02:55.9	189.840	0.520	-1.040	1.180
2020/01/31 23:02:56.0	189.820	0.500	-1.060	1.240
2020/01/31 23:02:56.1	189.790	0.470	-1.070	1.290
2020/01/31 23:02:56.2	189.770	0.440	-1.080	1.350
2020/01/31 23:02:56.3	189.730	0.400	-1.080	1.420
2020/01/31 23:02:56.4	189.700	0.370	-1.080	1.480
2020/01/31 23:02:56.5	189.660	0.330	-1.080	1.550
2020/01/31 23:02:56.6	189.630	0.290	-1.080	1.620
2020/01/31 23:02:56.7	189.590	0.240	-1.070	1.690
2020/01/31 23:02:56.8	189.550	0.200	-1.060	1.760
2020/01/31 23:02:56.9	189.500	0.150	-1.040	1.830
2020/01/31 23:02:57.0	189.460	0.100	-1.020	1.900
2020/01/31 23:02:57.1	189.410	0.060	-1.010	1.970
2020/01/31 23:02:57.2	189.370	0.010	-0.980	2.040
2020/01/31 23:02:57.3	189.330	-0.040	-0.940	2.100
2020/01/31 23:02:57.4	189.280	-0.090	-0.910	2.170
2020/01/31 23:02:57.5	189.240	-0.140	-0.870	2.230
2020/01/31 23:02:57.6	189.210	-0.180	-0.830	2.290
2020/01/31 23:02:57.7	189.170	-0.230	-0.780	2.350
2020/01/31 23:02:57.8	189.130	-0.280	-0.730	2.410
2020/01/31 23:02:57.9	189.100	-0.320	-0.680	2.460
2020/01/31 23:02:58.0	189.070	-0.360	-0.620	2.510
2020/01/31 23:02:58.1	189.050	-0.400	-0.560	2.550
2020/01/31 23:02:58.2	189.020	-0.440	-0.500	2.590
2020/01/31 23:02:58.3	189.000	-0.470	-0.450	2.630
2020/01/31 23:02:58.4	188.990	-0.500	-0.380	2.660
2020/01/31 23:02:58.5	188.970	-0.530	-0.320	2.690
2020/01/31 23:02:58.6	188.960	-0.560	-0.260	2.710
2020/01/31 23:02:58.7	188.950	-0.580	-0.200	2.720
2020/01/31 23:02:58.8	188.950	-0.600	-0.140	2.730
2020/01/31 23:02:58.9	188.940	-0.620	-0.080	2.740
2020/01/31 23:02:59.0	188.940	-0.640	-0.020	2.740
2020/01/31 23:02:59.1	188.950	-0.650	0.040	2.730
2020/01/31 23:02:59.2	188.950	-0.660	0.100	2.720
2020/01/31 23:02:59.3	188.960	-0.670	0.150	2.700
2020/01/31 23:02:59.4	188.970	-0.680	0.200	2.680
2020/01/31 23:02:59.5	188.990	-0.680	0.260	2.650
2020/01/31 23:02:59.6	189.000	-0.680	0.300	2.620
2020/01/31 23:02:59.7	189.020	-0.680	0.350	2.580
2020/01/31 23:02:59.8	189.050	-0.670	0.390	2.540
2020/01/31 23:02:59.9	189.070	-0.660	0.430	2.490
2020/01/31 23:03:00.0	189.100	-0.650	0.460	2.440
2020/01/31 23:03:00.1	189.120	-0.640	0.490	2.390
2020/01/31 23:03:00.2	189.160	-0.630	0.520	2.330
2020/01/31 23:03:00.3	189.190	-0.620	0.540	2.270
2020/01/31 23:03:00.4	189.220	-0.600	0.560	2.200
2020/01/31 23:03:00.5	189.260	-0.580	0.570	2.140
2020/01/31 23:03:00.6	189.300	-0.560	0.580	2.070
2020/01/31 23:03:00.7	189.330	-0.540	0.580	2.010
2020/01/31 23:03:00.8	189.370	-0.510	0.570	1.940
2020/01/31 23:03:00.9	189.400	-0.490	0.560	1.880
2020/01/31 23:03:01.0	189.440	-0.460	0.540	1.820
2020/01/31 23:03:01.1	189.460	-0.430	0.520	1.760
2020/01/31 23:03:01.2	189.490	-0.400	0.490	1.700
2020/01/31 23:03:01.3	189.520	-0.370	0.460	1.650
2020/01/31 23:03:01.4	189.540	-0.340	0.420	1.600
2020/01/31 23:03:01.5	189.560	-0.300	0.370	1.550
2020/01/31 23:03:01.6	189.570	-0.260	0.320	1.510
2020/01/31 23:03:01.7	189.580	-0.230	0.260	1.480
2020/01/31 23:03:01.8	189.590	-0.190	0.200	1.440
2020/01/31 23:03:01.9	189.600	-0.150	0.140	1.420
2020/01/31 23:03:02.0	189.600	-0.100	0.070	1.390
2020/01/31 23:03:02.1	189.600	-0.060	-0.000	1.370
2020/01/31 23:03:02.2	189.600	-0.020	-0.080	1.350
2020/01/31 23:03:02.3	189.590	0.020	-0.150	1.330
2020/01/31 23:03:02.4	189.590	0.070	-0.230	1.310
2020/01/31 23:03:02.5	189.580	0.110	-0.300	1.300
2020/01/31 23:03:02.6	189.560	0.150	-0.380	1.290
2020/01/31 23:03:02.7	189.550	0.200	-0.450	1.280
2020/01/31 23:03:02.8	189.540	0.240	-0.510	1.270
2020/01/31 23:03:02.9	189.520	0.280	-0.580	1.260
2020/01/31 23:03:03.0	189.510	0.320	-0.640	1.250
2020/01/31 23:03:03.1	189.510	0.350	-0.700	1.240
2020/01/31 23:03:03.2	189.500	0.390	-0.740	1.230
2020/01/31 23:03:03.3	189.490	0.420	-0.780	1.220
2020/01/31 23:03:03.4	189.470	0.450	-0.820	1.210
2020/01/31 23:03:03.5	189.470	0.470	-0.840	1.210
2020/01/31 23:03:03.6	189.460	0.490	-0.860	1.200
2020/01/31 23:03:03.7	189.450	0.510	-0.860	1.190
2020/01/31 23:03:03.8	189.450	0.530	-0.860	1.180
2020/01/31 23:03:03.9	189.450	0.540	-0.850	1.170
2020/01/31 23:03:04.0	189.450	0.550	-0.840	1.160
2020/01/31 23:03:04.1	189.460	0.550	-0.810	1.150
2020/01/31 23:03:04.2	189.460	0.550	-0.780	1.150
2020/01/31 23:03:04.3	189.470	0.540	-0.740	1.140
2020/01/31 23:03:04.4	189.480	0.530	-0.690	1.130
2020/01/31 23:03:04.5	189.490	0.520	-0.640	1.130
2020/01/31 23:03:04.6	189.500	0.500	-0.590	1.130
2020/01/31 23:03:04.7	189.520	0.480	-0.530	1.120
2020/01/31 23:03:04.8	189.530	0.460	-0.470	1.120
2020/01/31 23:03:04.9	189.550	0.430	-0.410	1.120
2020/01/31 23:03:05.0	189.570	0.400	-0.340	1.120
2020/01/31 23:03:05.1	189.590	0.370	-0.280	1.130
2020/01/31 23:03:05.2	189.600	0.340	-0.220	1.130
2020/01/31 23:03:05.3	189.620	0.300	-0.150	1.130
2020/01/31 23:03:05.4	189.640	0.260	-0.090	1.140
2020/01/31 23:03:05.5	189.660	0.220	-0.030	1.150
2020/01/31 23:03:05.6	189.680	0.180	0.030	1.150
2020/01/31 23:03:05.7	189.690	0.140	0.080	1.160
2020/01/31 23:03:05.8	189.710	0.100	0.130	1.170
2020/01/31 23:03:05.9	189.730	0.060	0.180	1.180
2020/01/31 23:03:06.0	189.750	0.010	0.220	1.190
2020/01/31 23:03:06.1	189.770	-0.030	0.270	1.200
2020/01/31 23:03:06.2	189.790	-0.070	0.300	1.220
2020/01/31 23:03:06.3	189.810	-0.110	0.330	1.230
2020/01/31 23:03:06.4	189.830	-0.140	0.350	1.240
2020/01/31 23:03:06.5	189.850	-0.180	0.370	1.250
2020/01/31 23:03:06.6	189.870	-0.210	0.380	1.270
2020/01/31 23:03:06.7	189.890	-0.240	0.390	1.280
2020/01/31 23:03:06.8	189.910	-0.270	0.390	1.290
2020/01/31 23:03:06.9	189.930	-0.290	0.380	1.310
2020/01/31 23:03:07.0	189.950	-0.310	0.370	1.320
2020/01/31 23:03:07.1	189.950	-0.330	0.340	1.340
2020/01/31 23:03:07.2	189.970	-0.340	0.320	1.360
2020/01/31 23:03:07.3	189.980	-0.350	0.290	1.380
2020/01/31 23:03:07.4	189.990	-0.350	0.260	1.400
2020/01/31 23:03:07.5	190.000	-0.350	0.230	1.420
2020/01/31 23:03:07.6	190.010	-0.350	0.180	1.440
2020/01/31 23:03:07.7	190.010	-0.340	0.140	1.470
2020/01/31 23:03:07.8	190.010	-0.330	0.080	1.490
2020/01/31 23:03:07.9	190.010	-0.310	0.030	1.520
2020/01/31 23:03:08.0	190.000	-0.290	-0.030	1.550
2020/01/31 23:03:08.1	189.990	-0.270	-0.080	1.580
2020/01/31 23:03:08.2	189.970	-0.240	-0.140	1.610
2020/01/31 23:03:08.3	189.960	-0.210	-0.200	1.640
2020/01/31 23:03:08.4	189.940	-0.180	-0.270	1.680
2020/01/31 23:03:08.5	189.920	-0.140	-0.330	1.710
2020/01/31 23:03:08.6	189.900	-0.110	-0.390	1.740
2020/01/31 23:03:08.7	189.870	-0.070	-0.450	1.770
2020/01/31 23:03:08.8	189.850	-0.030	-0.510	1.800
2020/01/31 23:03:08.9	189.820	0.010	-0.560	1.830
2020/01/31 23:03:09.0	189.800	0.050	-0.610	1.850
2020/01/31 23:03:09.1	189.780	0.090	-0.660	1.880
2020/01/31 23:03:09.2	189.750	0.130	-0.700	1.900
2020/01/31 23:03:09.3	189.730	0.170	-0.740	1.920
2020/01/31 23:03:09.4	189.700	0.210	-0.770	1.930
2020/01/31 23:03:09.5	189.680	0.240	-0.790	1.940
2020/01/31 23:03:09.6	189.660	0.280	-0.810	1.950
2020/01/31 23:03:09.7	189.640	0.310	-0.820	1.960
2020/01/31 23:03:09.8	189.620	0.340	-0.830	1.960
2020/01/31 23:03:09.9	189.610	0.360	-0.830	1.960
2020/01/31 23:03:10.0	189.590	0.380	-0.820	1.960
2020/01/31 23:03:10.1	189.580	0.400	-0.810	1.950
2020/01/31 23:03:10.2	189.570	0.420	-0.800	1.940
2020/01/31 23:03:10.3	189.560	0.430	-0.780	1.930
2020/01/31 23:03:10.4	189.550	0.440	-0.760	1.920
2020/01/31 23:03:10.5	189.550	0.450	-0.730	1.910
2020/01/31 23:03:10.6	189.540	0.460	-0.700	1.890
2020/01/31 23:03:10.7	189.540	0.460	-0.670	1.880
2020/01/31 23:03:10.8	189.540	0.460	-0.630	1.860
2020/01/31 23:03:10.9	189.540	0.450	-0.600	1.830
2020/01/31 23:03:11.0	189.540	0.450	-0.560	1.810
2020/01/31 23:03:11.1	189.530	0.440	-0.520	1.790
2020/01/31 23:03:11.2	189.530	0.430	-0.480	1.760
2020/01/31 23:03:11.3	189.530	0.420	-0.440	1.740
2020/01/31 23:03:11.4	189.540	0.410	-0.400	1.710
2020/01/31 23:03:11.5	189.540	0.390	-0.370	1.680
2020/01/31 23:03:11.6	189.540	0.380	-0.330	1.650
2020/01/31 23:03:11.7	189.540	0.360	-0.300	1.620
2020/01/31 23:03:11.8	189.550	0.350	-0.260	1.590
2020/01/31 23:03:11.9	189.550	0.330	-0.230	1.560
2020/01/31 23:03:12.0	189.550	0.310	-0.210	1.540
2020/01/31 23:03:12.1	189.540	0.300	-0.190	1.500
2020/01/31 23:03:12.2	189.550	0.280	-0.170	1.480
2020/01/31 23:03:12.3	189.550	0.260	-0.150	1.450
2020/01/31 23:03:12.4	189.550	0.240	-0.130	1.430
2020/01/31 23:03:12.5	189.550	0.230	-0.120	1.410
2020/01/31 23:03:12.6	189.550	0.210	-0.120	1.390
2020/01/31 23:03:12.7	189.550	0.200	-0.110	1.370
2020/01/31 23:03:12.8	189.540	0.180	-0.110	1.360
2020/01/31 23:03:12.9	189.540	0.170	-0.110	1.340
2020/01/31 23:03:13.0	189.550	0.150	-0.120	1.330
2020/01/31 23:03:13.1	189.550	0.140	-0.130	1.320
2020/01/31 23:03:13.2	189.550	0.120	-0.140	1.310
2020/01/31 23:03:13.3	189.550	0.110	-0.150	1.300
2020/01/31 23:03:13.4	189.560	0.090	-0.160	1.290
2020/01/31 23:03:13.5	189.560	0.080	-0.170	1.290
2020/01/31 23:03:13.6	189.570	0.060	-0.190	1.280
2020/01/31 23:03:13.7	189.570	0.050	-0.200	1.280
2020/01/31 23:03:13.8	189.580	0.030	-0.210	1.280
2020/01/31 23:03:13.9	189.590	0.010	-0.230	1.280
2020/01/31 23:03:14.0	189.600	-0.010	-0.240	1.290
2020/01/31 23:03:14.1	189.610	-0.030	-0.250	1.290
2020/01/31 23:03:14.2	189.620	-0.050	-0.260	1.300
2020/01/31 23:03:14.3	189.630	-0.070	-0.270	1.320
2020/01/31 23:03:14.4	189.640	-0.100	-0.280	1.330
2020/01/31 23:03:14.5	189.650	-0.120	-0.280	1.350
2020/01/31 23:03:14.6	189.660	-0.140	-0.290	1.370
2020/01/31 23:03:14.7	189.670	-0.170	-0.290	1.390
2020/01/31 23:03:14.8	189.680	-0.200	-0.290	1.420
2020/01/31 23:03:14.9	189.690	-0.220	-0.300	1.450
2020/01/31 23:03:15.0	189.700	-0.250	-0.300	1.480
2020/01/31 23:03:15.1	189.700	-0.280	-0.300	1.510
2020/01/31 23:03:15.2	189.710	-0.300	-0.300	1.550
2020/01/31 23:03:15.3	189.710	-0.330	-0.290	1.590
2020/01/31 23:03:15.4	189.720	-0.360	-0.290	1.630
2020/01/31 23:03:15.5	189.720	-0.380	-0.290	1.670
2020/01/31 23:03:15.6	189.720	-0.410	-0.280	1.700
2020/01/31 23:03:15.7	189.720	-0.430	-0.280	1.740
2020/01/31 23:03:15.8	189.720	-0.450	-0.280	1.780
2020/01/31 23:03:15.9	189.710	-0.470	-0.270	1.820
2020/01/31 23:03:16.0	189.710	-0.490	-0.270	1.850
2020/01/31 23:03:16.1	189.710	-0.500	-0.270	1.880
2020/01/31 23:03:16.2	189.700	-0.510	-0.280	1.910
2020/01/31 23:03:16.3	189.690	-0.520	-0.280	1.930
2020/01/31 23:03:16.4	189.680	-0.530	-0.280	1.960
2020/01/31 23:03:16.5	189.670	-0.530	-0.280	1.980
2020/01/31 23:03:16.6	189.650	-0.530	-0.290	1.990
2020/01/31 23:03:16.7	189.640	-0.530	-0.290	2.010
2020/01/31 23:03:16.8	189.630	-0.520	-0.300	2.010
2020/01/31 23:03:16.9	189.610	-0.510	-0.300	2.020
2020/01/31 23:03:17.0	189.600	-0.500	-0.310	2.020
2020/01/31 23:03:17.1	189.600	-0.490	-0.310	2.020
2020/01/31 23:03:17.2	189.590	-0.480	-0.310	2.020
2020/01/31 23:03:17.3	189.580	-0.460	-0.320	2.010
2020/01/31 23:03:17.4	189.570	-0.440	-0.320	2.000
2020/01/31 23:03:17.5	189.560	-0.420	-0.320	1.990
2020/01/31 23:03:17.6	189.560	-0.390	-0.320	1.980
2020/01/31 23:03:17.7	189.550	-0.370	-0.320	1.960
2020/01/31 23:03:17.8	189.550	-0.340	-0.320	1.950
2020/01/31 23:03:17.9	189.550	-0.310	-0.320	1.930
2020/01/31 23:03:18.0	189.550	-0.280	-0.310	1.910
2020/01/31 23:03:18.1	189.540	-0.250	-0.310	1.890
2020/01/31 23:03:18.2	189.540	-0.220	-0.300	1.870
2020/01/31 23:03:18.3	189.550	-0.190	-0.300	1.840
2020/01/31 23:03:18.4	189.560	-0.150	-0.290	1.820
2020/01/31 23:03:18.5	189.560	-0.120	-0.280	1.790
2020/01/31 23:03:18.6	189.570	-0.090	-0.270	1.760
2020/01/31 23:03:18.7	189.580	-0.050	-0.270	1.740
2020/01/31 23:03:18.8	189.590	-0.020	-0.260	1.710
2020/01/31 23:03:18.9	189.600	0.010	-0.250	1.670
2020/01/31 23:03:19.0	189.610	0.040	-0.250	1.640
2020/01/31 23:03:19.1	189.620	0.070	-0.240	1.610
2020/01/31 23:03:19.2	189.630	0.100	-0.240	1.580
2020/01/31 23:03:19.3	189.640	0.130	-0.230	1.540
2020/01/31 23:03:19.4	189.650	0.160	-0.230	1.510
2020/01/31 23:03:19.5	189.660	0.190	-0.220	1.480
2020/01/31 23:03:19.6	189.660	0.210	-0.220	1.450
2020/01/31 23:03:19.7	189.670	0.240	-0.220	1.410
2020/01/31 23:03:19.8	189.670	0.260	-0.220	1.390
2020/01/31 23:03:19.9	189.670	0.280	-0.220	1.360
2020/01/31 23:03:20.0	189.670	0.300	-0.230	1.330
2020/01/31 23:03:20.1	189.670	0.320	-0.230	1.310
2020/01/31 23:03:20.2	189.670	0.340	-0.240	1.290
2020/01/31 23:03:20.3	189.660	0.350	-0.250	1.270
2020/01/31 23:03:20.4	189.650	0.370	-0.250	1.250
2020/01/31 23:03:20.5	189.630	0.380	-0.260	1.240
2020/01/31 23:03:20.6	189.620	0.390	-0.270	1.230
2020/01/31 23:03:20.7	189.600	0.390	-0.280	1.220
2020/01/31 23:03:20.8	189.580	0.400	-0.290	1.220
2020/01/31 23:03:20.9	189.560	0.400	-0.300	1.220
2020/01/31 23:03:21.0	189.540	0.400	-0.310	1.230
2020/01/31 23:03:21.1	189.510	0.400	-0.320	1.230
2020/01/31 23:03:21.2	189.490	0.400	-0.330	1.240
2020/01/31 23:03:21.3	189.470	0.390	-0.340	1.250
2020/01/31 23:03:21.4	189.440	0.380	-0.340	1.260
2020/01/31 23:03:21.5	189.430	0.370	-0.340	1.270
2020/01/31 23:03:21.6	189.410	0.360	-0.340	1.290
2020/01/31 23:03:21.7	189.390	0.340	-0.340	1.300
2020/01/31 23:03:21.8	189.380	0.320	-0.330	1.320
2020/01/31 23:03:21.9	189.370	0.300	-0.320	1.330
2020/01/31 23:03:22.0	189.370	0.270	-0.310	1.350
2020/01/31 23:03:22.1	189.360	0.240	-0.290	1.370
2020/01/31 23:03:22.2	189.360	0.210	-0.270	1.380
2020/01/31 23:03:22.3	189.360	0.180	-0.240	1.400
2020/01/31 23:03:22.4	189.370	0.140	-0.210	1.410
2020/01/31 23:03:22.5	189.390	0.100	-0.180	1.430
2020/01/31 23:03:22.6	189.400	0.060	-0.140	1.440
2020/01/31 23:03:22.7	189.420	0.020	-0.100	1.460
2020/01/31 23:03:22.8	189.450	-0.020	-0.060	1.470
2020/01/31 23:03:22.9	189.480	-0.070	-0.010	1.480
2020/01/31 23:03:23.0	189.510	-0.110	0.030	1.490
2020/01/31 23:03:23.1	189.550	-0.160	0.080	1.500
2020/01/31 23:03:23.2	189.590	-0.210	0.130	1.510
2020/01/31 23:03:23.3	189.630	-0.250	0.180	1.510
2020/01/31 23:03:23.4	189.670	-0.290	0.220	1.520
2020/01/31 23:03:23.5	189.720	-0.340	0.260	1.520
2020/01/31 23:03:23.6	189.770	-0.380	0.300	1.520
2020/01/31 23:03:23.7	189.820	-0.420	0.340	1.520
2020/01/31 23:03:23.8	189.870	-0.460	0.370	1.520
2020/01/31 23:03:23.9	189.920	-0.490	0.400	1.520
2020/01/31 23:03:24.0	189.960	-0.520	0.420	1.520
2020/01/31 23:03:24.1	190.010	-0.550	0.430	1.510
2020/01/31 23:03:24.2	190.060	-0.570	0.430	1.510
2020/01/31 23:03:24.3	190.100	-0.580	0.430	1.510
2020/01/31 23:03:24.4	190.140	-0.600	0.420	1.510
2020/01/31 23:03:24.5	190.170	-0.600	0.400	1.510
2020/01/31 23:03:24.6	190.210	-0.600	0.370	1.510
2020/01/31 23:03:24.7	190.230	-0.590	0.330	1.510
2020/01/31 23:03:24.8	190.260	-0.580	0.280	1.510
2020/01/31 23:03:24.9	190.280	-0.560	0.220	1.510
2020/01/31 23:03:25.0	190.290	-0.540	0.160	1.520
2020/01/31 23:03:25.1	190.300	-0.500	0.090	1.530
2020/01/31 23:03:25.2	190.310	-0.470	0.010	1.540
2020/01/31 23:03:25.3	190.310	-0.420	-0.080	1.550
2020/01/31 23:03:25.4	190.310	-0.370	-0.170	1.560
2020/01/31 23:03:25.5	190.300	-0.320	-0.270	1.570
2020/01/31 23:03:25.6	190.290	-0.260	-0.370	1.590
2020/01/31 23:03:25.7	190.280	-0.190	-0.470	1.610
2020/01/31 23:03:25.8	190.270	-0.130	-0.570	1.620
2020/01/31 23:03:25.9	190.250	-0.060	-0.680	1.640
2020/01/31 23:03:26.0	190.230	0.020	-0.780	1.660
2020/01/31 23:03:26.1	190.210	0.090	-0.880	1.680
2020/01/31 23:03:26.2	190.190	0.160	-0.970	1.690
2020/01/31 23:03:26.3	190.160	0.240	-1.060	1.710
2020/01/31 23:03:26.4	190.140	0.310	-1.140	1.730
2020/01/31 23:03:26.5	190.110	0.380	-1.210	1.740
2020/01/31 23:03:26.6	190.090	0.450	-1.270	1.750
2020/01/31 23:03:26.7	190.070	0.510	-1.320	1.760
2020/01/31 23:03:26.8	190.050	0.570	-1.360	1.770
2020/01/31 23:03:26.9	190.030	0.630	-1.390	1.780
2020/01/31 23:03:27.0	190.010	0.670	-1.410	1.780
2020/01/31 23:03:27.1	190.010	0.720	-1.410	1.780
2020/01/31 23:03:27.2	190.000	0.750	-1.400	1.790
2020/01/31 23:03:27.3	189.990	0.780	-1.370	1.790
2020/01/31 23:03:27.4	189.990	0.790	-1.330	1.790
2020/01/31 23:03:27.5	189.990	0.800	-1.280	1.790
2020/01/31 23:03:27.6	189.990	0.810	-1.220	1.790
2020/01/31 23:03:27.7	190.000	0.800	-1.140	1.790
2020/01/31 23:03:27.8	190.000	0.790	-1.060	1.790
2020/01/31 23:03:27.9	190.010	0.760	-0.960	1.790
2020/01/31 23:03:28.0	190.020	0.730	-0.860	1.790
2020/01/31 23:03:28.1	190.030	0.690	-0.740	1.790
2020/01/31 23:03:28.2	190.050	0.650	-0.630	1.790
2020/01/31 23:03:28.3	190.070	0.590	-0.500	1.780
2020/01/31 23:03:28.4	190.080	0.540	-0.380	1.780
2020/01/31 23:03:28.5	190.100	0.470	-0.250	1.770
2020/01/31 23:03:28.6	190.120	0.400	-0.120	1.770
2020/01/31 23:03:28.7	190.140	0.330	0.010	1.760
2020/01/31 23:03:28.8	190.160	0.250	0.130	1.750
2020/01/31 23:03:28.9	190.180	0.180	0.260	1.740
2020/01/31 23:03:29.0	190.200	0.100	0.380	1.730
2020/01/31 23:03:29.1	190.210	0.020	0.480	1.720
2020/01/31 23:03:29.2	190.230	-0.060	0.590	1.710
2020/01/31 23:03:29.3	190.240	-0.140	0.690	1.690
2020/01/31 23:03:29.4	190.260	-0.220	0.770	1.680
2020/01/31 23:03:29.5	190.270	-0.290	0.850	1.670
2020/01/31 23:03:29.6	190.280	-0.360	0.920	1.650
2020/01/31 23:03:29.7	190.290	-0.430	0.980	1.640
2020/01/31 23:03:29.8	190.300	-0.490	1.020	1.630
2020/01/31 23:03:29.9	190.300	-0.540	1.050	1.620
2020/01/31 23:03:30.0	190.310	-0.590	1.070	1.600
2020/01/31 23:03:30.1	190.300	-0.630	1.080	1.590
2020/01/31 23:03:30.2	190.300	-0.660	1.070	1.580
2020/01/31 23:03:30.3	190.290	-0.680	1.050	1.570
2020/01/31 23:03:30.4	190.290	-0.700	1.020	1.570
2020/01/31 23:03:30.5	190.280	-0.700	0.970	1.560
2020/01/31 23:03:30.6	190.270	-0.700	0.920	1.550
2020/01/31 23:03:30.7	190.260	-0.690	0.850	1.550
2020/01/31 23:03:30.8	190.240	-0.670	0.770	1.550
2020/01/31 23:03:30.9	190.230	-0.650	0.680	1.540
2020/01/31 23:03:31.0	190.210	-0.610	0.590	1.540
2020/01/31 23:03:31.1	190.190	-0.570	0.480	1.540
2020/01/31 23:03:31.2	190.170	-0.520	0.370	1.540
2020/01/31 23:03:31.3	190.150	-0.460	0.260	1.540
2020/01/31 23:03:31.4	190.130	-0.400	0.140	1.550
2020/01/31 23:03:31.5	190.110	-0.330	0.020	1.550
2020/01/31 23:03:31.6	190.090	-0.260	-0.100	1.550
2020/01/31 23:03:31.7	190.070	-0.180	-0.210	1.550
2020/01/31 23:03:31.8	190.040	-0.100	-0.330	1.550
2020/01/31 23:03:31.9	190.020	-0.020	-0.440	1.550
2020/01/31 23:03:32.0	190.000	0.070	-0.550	1.550
2020/01/31 23:03:32.1	189.970	0.150	-0.650	1.550
2020/01/31 23:03:32.2	189.950	0.240	-0.750	1.550
2020/01/31 23:03:32.3	189.930	0.320	-0.850	1.540
2020/01/31 23:03:32.4	189.910	0.400	-0.930	1.530
2020/01/31 23:03:32.5	189.890	0.480	-1.010	1.530
2020/01/31 23:03:32.6	189.870	0.560	-1.070	1.520
2020/01/31 23:03:32.7	189.850	0.630	-1.130	1.510
2020/01/31 23:03:32.8	189.840	0.690	-1.180	1.490
2020/01/31 23:03:32.9	189.830	0.750	-1.220	1.480
2020/01/31 23:03:33.0	189.810	0.800	-1.250	1.460
2020/01/31 23:03:33.1	189.810	0.850	-1.270	1.440
2020/01/31 23:03:33.2	189.800	0.890	-1.280	1.430
2020/01/31 23:03:33.3	189.800	0.920	-1.280	1.410
2020/01/31 23:03:33.4	189.800	0.940	-1.270	1.390
2020/01/31 23:03:33.5	189.800	0.950	-1.250	1.370
2020/01/31 23:03:33.6	189.810	0.950	-1.220	1.350
2020/01/31 23:03:33.7	189.820	0.950	-1.180	1.330
2020/01/31 23:03:33.8	189.830	0.930	-1.130	1.310
2020/01/31 23:03:33.9	189.850	0.910	-1.080	1.300
2020/01/31 23:03:34.0	189.870	0.870	-1.020	1.290
2020/01/31 23:03:34.1	189.890	0.830	-0.950	1.270
2020/01/31 23:03:34.2	189.910	0.780	-0.880	1.270
2020/01/31 23:03:34.3	189.940	0.720	-0.800	1.260
2020/01/31 23:03:34.4	189.970	0.660	-0.720	1.270
2020/01/31 23:03:34.5	190.000	0.580	-0.640	1.270
2020/01/31 23:03:34.6	190.030	0.500	-0.550	1.280
2020/01/31 23:03:34.7	190.060	0.420	-0.470	1.290
2020/01/31 23:03:34.8	190.100	0.330	-0.380	1.300
2020/01/31 23:03:34.9	190.130	0.240	-0.290	1.320
2020/01/31 23:03:35.0	190.170	0.140	-0.210	1.340
2020/01/31 23:03:35.1	190.200	0.040	-0.130	1.360
2020/01/31 23:03:35.2	190.240	-0.060	-0.050	1.390
2020/01/31 23:03:35.3	190.270	-0.160	0.020	1.420
2020/01/31 23:03:35.4	190.310	-0.260	0.090	1.450
2020/01/31 23:03:35.5	190.340	-0.360	0.150	1.490
2020/01/31 23:03:35.6	190.370	-0.460	0.210	1.520
2020/01/31 23:03:35.7	190.400	-0.550	0.250	1.570
2020/01/31 23:03:35.8	190.420	-0.640	0.290	1.610
2020/01/31 23:03:35.9	190.450	-0.730	0.320	1.660
2020/01/31 23:03:36.0	190.470	-0.810	0.350	1.700
2020/01/31 23:03:36.1	190.490	-0.880	0.360	1.760
2020/01/31 23:03:36.2	190.500	-0.950	0.370	1.810
2020/01/31 23:03:36.3	190.510	-1.010	0.360	1.860
2020/01/31 23:03:36.4	190.520	-1.060	0.350	1.920
2020/01/31 23:03:36.5	190.530	-1.110	0.330	1.970
2020/01/31 23:03:36.6	190.540	-1.150	0.290	2.020
2020/01/31 23:03:36.7	190.540	-1.170	0.260	2.070
2020/01/31 23:03:36.8	190.540	-1.190	0.210	2.120
2020/01/31 23:03:36.9	190.540	-1.200	0.150	2.160
2020/01/31 23:03:37.0	190.540	-1.200	0.090	2.200
2020/01/31 23:03:37.1	190.530	-1.190	0.020	2.240
2020/01/31 23:03:37.2	190.530	-1.180	-0.050	2.280
2020/01/31 23:03:37.3	190.520	-1.150	-0.130	2.320
2020/01/31 23:03:37.4	190.500	-1.110	-0.210	2.350
2020/01/31 23:03:37.5	190.490	-1.070	-0.290	2.380
2020/01/31 23:03:37.6	190.470	-1.020	-0.380	2.400
2020/01/31 23:03:37.7	190.450	-0.960	-0.460	2.420
2020/01/31 23:03:37.8	190.430	-0.890	-0.550	2.440
2020/01/31 23:03:37.9	190.410	-0.820	-0.640	2.460
2020/01/31 23:03:38.0	190.380	-0.740	-0.720	2.470
2020/01/31 23:03:38.1	190.350	-0.650	-0.800	2.480
2020/01/31 23:03:38.2	190.320	-0.560	-0.880	2.480
2020/01/31 23:03:38.3	190.290	-0.470	-0.950	2.480
2020/01/31 23:03:38.4	190.270	-0.380	-1.010	2.470
2020/01/31 23:03:38.5	190.240	-0.280	-1.070	2.460
2020/01/31 23:03:38.6	190.210	-0.190	-1.120	2.450
2020/01/31 23:03:38.7	190.180	-0.090	-1.160	2.430
2020/01/31 23:03:38.8	190.150	0.000	-1.190	2.410
2020/01/31 23:03:38.9	190.130	0.100	-1.220	2.380
2020/01/31 23:03:39.0	190.100	0.190	-1.230	2.350
2020/01/31 23:03:39.1	190.080	0.270	-1.230	2.300
2020/01/31 23:03:39.2	190.060	0.360	-1.220	2.260
2020/01/31 23:03:39.3	190.050	0.430	-1.210	2.220
2020/01/31 23:03:39.4	190.040	0.500	-1.180	2.170
2020/01/31 23:03:39.5	190.030	0.570	-1.140	2.110
2020/01/31 23:03:39.6	190.020	0.630	-1.090	2.060
2020/01/31 23:03:39.7	190.020	0.680	-1.020	1.990
2020/01/31 23:03:39.8	190.030	0.720	-0.950	1.930
2020/01/31 23:03:39.9	190.040	0.760	-0.870	1.860
2020/01/31 23:03:40.0	190.050	0.780	-0.790	1.790
2020/01/31 23:03:40.1	190.060	0.800	-0.690	1.710
2020/01/31 23:03:40.2	190.080	0.810	-0.590	1.640
2020/01/31 23:03:40.3	190.100	0.810	-0.480	1.560
2020/01/31 23:03:40.4	190.130	0.800	-0.370	1.480
2020/01/31 23:03:40.5	190.160	0.790	-0.260	1.410
2020/01/31 23:03:40.6	190.190	0.770	-0.140	1.330
2020/01/31 23:03:40.7	190.220	0.740	-0.020	1.260
2020/01/31 23:03:40.8	190.260	0.700	0.090	1.180
2020/01/31 23:03:40.9	190.300	0.660	0.210	1.110
2020/01/31 23:03:41.0	190.340	0.610	0.320	1.050
2020/01/31 23:03:41.1	190.390	0.560	0.430	0.970
2020/01/31 23:03:41.2	190.430	0.500	0.540	0.920
2020/01/31 23:03:41.3	190.470	0.440	0.640	0.860
2020/01/31 23:03:41.4	190.520	0.370	0.730	0.810
2020/01/31 23:03:41.5	190.560	0.300	0.810	0.770
2020/01/31 23:03:41.6	190.600	0.230	0.880	0.730
2020/01/31 23:03:41.7	190.630	0.160	0.950	0.700
2020/01/31 23:03:41.8	190.670	0.090	1.000	0.680
2020/01/31 23:03:41.9	190.700	0.020	1.050	0.660
2020/01/31 23:03:42.0	190.730	-0.040	1.080	0.650
2020/01/31 23:03:42.1	190.740	-0.110	1.090	0.650
2020/01/31 23:03:42.2	190.760	-0.170	1.100	0.660
2020/01/31 23:03:42.3	190.780	-0.230	1.090	0.670
2020/01/31 23:03:42.4	190.790	-0.280	1.080	0.690
2020/01/31 23:03:42.5	190.800	-0.330	1.050	0.720
2020/01/31 23:03:42.6	190.800	-0.380	1.010	0.760
2020/01/31 23:03:42.7	190.790	-0.420	0.960	0.800
2020/01/31 23:03:42.8	190.790	-0.460	0.900	0.850
2020/01/31 23:03:42.9	190.780	-0.490	0.830	0.900
2020/01/31 23:03:43.0	190.760	-0.510	0.760	0.960
2020/01/31 23:03:43.1	190.740	-0.530	0.680	1.020
2020/01/31 23:03:43.2	190.710	-0.540	0.590	1.090
2020/01/31 23:03:43.3	190.690	-0.550	0.490	1.160
2020/01/31 23:03:43.4	190.660	-0.550	0.390	1.230
2020/01/31 23:03:43.5	190.640	-0.550	0.290	1.300
2020/01/31 23:03:43.6	190.600	-0.540	0.190	1.380
2020/01/31 23:03:43.7	190.570	-0.520	0.090	1.460
2020/01/31 23:03:43.8	190.530	-0.500	-0.010	1.540
2020/01/31 23:03:43.9	190.500	-0.480	-0.110	1.620
2020/01/31 23:03:44.0	190.460	-0.450	-0.210	1.700
2020/01/31 23:03:44.1	190.430	-0.420	-0.300	1.780
2020/01/31 23:03:44.2	190.390	-0.390	-0.390	1.850
2020/01/31 23:03:44.3	190.350	-0.350	-0.470	1.930
2020/01/31 23:03:44.4	190.300	-0.310	-0.550	2.000
2020/01/31 23:03:44.5	190.260	-0.260	-0.620	2.070
2020/01/31 23:03:44.6	190.220	-0.220	-0.680	2.140
2020/01/31 23:03:44.7	190.170	-0.170	-0.740	2.200
2020/01/31 23:03:44.8	190.130	-0.130	-0.780	2.260
2020/01/31 23:03:44.9	190.080	-0.080	-0.820	2.320
2020/01/31 23:03:45.0	190.040	-0.030	-0.850	2.370
2020/01/31 23:03:45.1	190.000	0.020	-0.870	2.420
2020/01/31 23:03:45.2	189.960	0.070	-0.890	2.470
2020/01/31 23:03:45.3	189.910	0.110	-0.890	2.500
2020/01/31 23:03:45.4	189.870	0.160	-0.890	2.530
2020/01/31 23:03:45.5	189.830	0.200	-0.890	2.560
2020/01/31 23:03:45.6	189.790	0.250	-0.870	2.580
2020/01/31 23:03:45.7	189.750	0.290	-0.860	2.590
2020/01/31 23:03:45.8	189.720	0.330	-0.830	2.600
2020/01/31 23:03:45.9	189.680	0.360	-0.800	2.600
2020/01/31 23:03:46.0	189.650	0.400	-0.770	2.600
2020/01/31 23:03:46.1	189.620	0.430	-0.740	2.580
2020/01/31 23:03:46.2	189.590	0.460	-0.700	2.560
2020/01/31 23:03:46.3	189.560	0.490	-0.670	2.540
2020/01/31 23:03:46.4	189.530	0.510	-0.630	2.510
2020/01/31 23:03:46.5	189.500	0.540	-0.590	2.480
2020/01/31 23:03:46.6	189.480	0.560	-0.550	2.440
2020/01/31 23:03:46.7	189.460	0.570	-0.510	2.400
2020/01/31 23:03:46.8	189.440	0.590	-0.470	2.350
2020/01/31 23:03:46.9	189.420	0.600	-0.430	2.300
2020/01/31 23:03:47.0	189.400	0.610	-0.400	2.250
2020/01/31 23:03:47.1	189.390	0.610	-0.370	2.190
2020/01/31 23:03:47.2	189.370	0.610	-0.330	2.130
2020/01/31 23:03:47.3	189.360	0.610	-0.300	2.070
2020/01/31 23:03:47.4	189.360	0.610	-0.280	2.010
2020/01/31 23:03:47.5	189.350	0.600	-0.250	1.940
2020/01/31 23:03:47.6	189.350	0.590	-0.230	1.880
2020/01/31 23:03:47.7	189.350	0.580	-0.210	1.810
2020/01/31 23:03:47.8	189.350	0.560	-0.190	1.750
2020/01/31 23:03:47.9	189.350	0.550	-0.170	1.680
2020/01/31 23:03:48.0	189.360	0.530	-0.150	1.620
2020/01/31 23:03:48.1	189.370	0.500	-0.140	1.550
2020/01/31 23:03:48.2	189.380	0.480	-0.120	1.490
2020/01/31 23:03:48.3	189.390	0.450	-0.110	1.430
2020/01/31 23:03:48.4	189.410	0.420	-0.100	1.380
2020/01/31 23:03:48.5	189.420	0.390	-0.100	1.320
2020/01/31 23:03:48.6	189.440	0.360	-0.090	1.270
2020/01/31 23:03:48.7	189.460	0.330	-0.090	1.220
2020/01/31 23:03:48.8	189.490	0.290	-0.080	1.180
2020/01/31 23:03:48.9	189.510	0.250	-0.080	1.140
2020/01/31 23:03:49.0	189.530	0.220	-0.080	1.100
2020/01/31 23:03:49.1	189.570	0.180	-0.080	1.070
2020/01/31 23:03:49.2	189.600	0.140	-0.080	1.030
2020/01/31 23:03:49.3	189.620	0.110	-0.080	1.010
2020/01/31 23:03:49.4	189.650	0.070	-0.090	0.980
2020/01/31 23:03:49.5	189.680	0.030	-0.090	0.960
2020/01/31 23:03:49.6	189.710	-0.000	-0.100	0.940
2020/01/31 23:03:49.7	189.740	-0.040	-0.110	0.920
2020/01/31 23:03:49.8	189.780	-0.070	-0.120	0.910
2020/01/31 23:03:49.9	189.810	-0.100	-0.130	0.900
2020/01/31 23:03:50.0	189.840	-0.140	-0.150	0.900
2020/01/31 23:03:50.1	189.860	-0.170	-0.160	0.890
2020/01/31 23:03:50.2	189.890	-0.190	-0.180	0.890
2020/01/31 23:03:50.3	189.910	-0.220	-0.200	0.890
2020/01/31 23:03:50.4	189.940	-0.240	-0.220	0.900
2020/01/31 23:03:50.5	189.970	-0.270	-0.240	0.910
2020/01/31 23:03:50.6	189.990	-0.290	-0.270	0.920
2020/01/31 23:03:50.7	190.010	-0.300	-0.300	0.930
2020/01/31 23:03:50.8	190.030	-0.320	-0.330	0.950
2020/01/31 23:03:50.9	190.050	-0.330	-0.360	0.970
2020/01/31 23:03:51.0	190.060	-0.340	-0.390	0.990
2020/01/31 23:03:51.1	190.070	-0.350	-0.430	1.020
2020/01/31 23:03:51.2	190.080	-0.350	-0.470	1.040
2020/01/31 23:03:51.3	190.090	-0.350	-0.500	1.070
2020/01/31 23:03:51.4	190.100	-0.350	-0.540	1.100
2020/01/31 23:03:51.5	190.100	-0.350	-0.580	1.130
2020/01/31 23:03:51.6	190.100	-0.340	-0.630	1.160
2020/01/31 23:03:51.7	190.100	-0.330	-0.670	1.200
2020/01/31 23:03:51.8	190.100	-0.320	-0.710	1.230
2020/01/31 23:03:51.9	190.100	-0.300	-0.760	1.270
2020/01/31 23:03:52.0	190.090	-0.280	-0.800	1.300
2020/01/31 23:03:52.1	190.080	-0.260	-0.840	1.350
2020/01/31 23:03:52.2	190.070	-0.240	-0.880	1.380
2020/01/31 23:03:52.3	190.060	-0.220	-0.920	1.420
2020/01/31 23:03:52.4	190.050	-0.190	-0.960	1.460
2020/01/31 23:03:52.5	190.030	-0.160	-1.000	1.490
2020/01/31 23:03:52.6	190.020	-0.130	-1.040	1.530
2020/01/31 23:03:52.7	190.000	-0.100	-1.070	1.560
2020/01/31 23:03:52.8	189.980	-0.070	-1.100	1.600
2020/01/31 23:03:52.9	189.960	-0.040	-1.120	1.630
2020/01/31 23:03:53.0	189.940	-0.010	-1.140	1.650
2020/01/31 23:03:53.1	189.920	0.020	-1.160	1.680
2020/01/31 23:03:53.2	189.900	0.060	-1.170	1.710
2020/01/31 23:03:53.3	189.870	0.090	-1.180	1.730
2020/01/31 23:03:53.4	189.850	0.120	-1.180	1.740
2020/01/31 23:03:53.5	189.830	0.150	-1.180	1.760
2020/01/31 23:03:53.6	189.800	0.170	-1.170	1.770
2020/01/31 23:03:53.7	189.780	0.200	-1.150	1.780
2020/01/31 23:03:53.8	189.750	0.220	-1.120	1.790
2020/01/31 23:03:53.9	189.730	0.230	-1.090	1.790
2020/01/31 23:03:54.0	189.710	0.250	-1.060	1.790
2020/01/31 23:03:54.1	189.690	0.260	-1.010	1.780
2020/01/31 23:03:54.2	189.670	0.260	-0.960	1.770
2020/01/31 23:03:54.3	189.650	0.270	-0.910	1.770
2020/01/31 23:03:54.4	189.640	0.260	-0.850	1.760
2020/01/31 23:03:54.5	189.630	0.260	-0.780	1.750
2020/01/31 23:03:54.6	189.620	0.240	-0.710	1.730
2020/01/31 23:03:54.7	189.610	0.230	-0.640	1.720
2020/01/31 23:03:54.8	189.610	0.210	-0.560	1.710
2020/01/31 23:03:54.9	189.610	0.180	-0.480	1.690
2020/01/31 23:03:55.0	189.610	0.150	-0.390	1.680
2020/01/31 23:03:55.1	189.610	0.110	-0.310	1.660
2020/01/31 23:03:55.2	189.620	0.070	-0.220	1.650
2020/01/31 23:03:55.3	189.630	0.030	-0.130	1.640
2020/01/31 23:03:55.4	189.640	-0.010	-0.050	1.620
2020/01/31 23:03:55.5	189.650	-0.060	0.040	1.610
2020/01/31 23:03:55.6	189.670	-0.110	0.120	1.600
2020/01/31 23:03:55.7	189.690	-0.170	0.210	1.590
2020/01/31 23:03:55.8	189.710	-0.220	0.290	1.590
2020/01/31 23:03:55.9	189.730	-0.280	0.360	1.580
2020/01/31 23:03:56.0	189.750	-0.330	0.440	1.580
2020/01/31 23:03:56.1	189.780	-0.390	0.510	1.570
2020/01/31 23:03:56.2	189.800	-0.440	0.570	1.570
2020/01/31 23:03:56.3	189.830	-0.500	0.640	1.560
2020/01/31 23:03:56.4	189.860	-0.550	0.690	1.560
2020/01/31 23:03:56.5	189.880	-0.600	0.740	1.560
2020/01/31 23:03:56.6	189.910	-0.650	0.790	1.560
2020/01/31 23:03:56.7	189.930	-0.690	0.830	1.560
2020/01/31 23:03:56.8	189.960	-0.730	0.860	1.560
2020/01/31 23:03:56.9	189.990	-0.760	0.890	1.560
2020/01/31 23:03:57.0	190.010	-0.790	0.910	1.560
2020/01/31 23:03:57.1	190.030	-0.820	0.920	1.560
2020/01/31 23:03:57.2	190.050	-0.840	0.930	1.560
2020/01/31 23:03:57.3	190.080	-0.850	0.940	1.550
2020/01/31 23:03:57.4	190.100	-0.860	0.930	1.550
2020/01/31 23:03:57.5	190.120	-0.860	0.930	1.550
2020/01/31 23:03:57.6	190.140	-0.860	0.910	1.550
2020/01/31 23:03:57.7	190.160	-0.840	0.890	1.550
2020/01/31 23:03:57.8	190.170	-0.820	0.860	1.540
2020/01/31 23:03:57.9	190.190	-0.800	0.830	1.540
2020/01/31 23:03:58.0	190.200	-0.770	0.790	1.540
2020/01/31 23:03:58.1	190.210	-0.730	0.750	1.540
2020/01/31 23:03:58.2	190.210	-0.680	0.700	1.540
2020/01/31 23:03:58.3	190.220	-0.630	0.640	1.540
2020/01/31 23:03:58.4	190.220	-0.570	0.580	1.550
2020/01/31 23:03:58.5	190.210	-0.510	0.510	1.550
2020/01/31 23:03:58.6	190.210	-0.440	0.440	1.560
2020/01/31 23:03:58.7	190.200	-0.360	0.360	1.560
2020/01/31 23:03:58.8	190.190	-0.280	0.280	1.570
2020/01/31 23:03:58.9	190.170	-0.200	0.200	1.570
2020/01/31 23:03:59.0	190.150	-0.120	0.120	1.580
2020/01/31 23:03:59.1	190.130	-0.030	0.030	1.590
2020/01/31 23:03:59.2	190.100	0.060	-0.060	1.600
2020/01/31 23:03:59.3	190.070	0.150	-0.140	1.610
2020/01/31 23:03:59.4	190.050	0.240	-0.230	1.610
2020/01/31 23:03:59.5	190.020	0.330	-0.310	1.620
2020/01/31 23:03:59.6	189.980	0.410	-0.390	1.620
2020/01/31 23:03:59.7	189.950	0.500	-0.460	1.630
2020/01/31 23:03:59.8	189.920	0.580	-0.530	1.630
2020/01/31 23:03:59.9	189.890	0.650	-0.590	1.630
2020/01/31 23:04:00.0	189.860	0.720	-0.640	1.630
2020/01/31 23:04:00.1	189.830	0.780	-0.690	1.620
2020/01/31 23:04:00.2	189.810	0.840	-0.730	1.620
2020/01/31 23:04:00.3	189.790	0.890	-0.760	1.610
2020/01/31 23:04:00.4	189.770	0.930	-0.770	1.600
2020/01/31 23:04:00.5	189.760	0.970	-0.780	1.600
2020/01/31 23:04:00.6	189.760	0.990	-0.780	1.590
2020/01/31 23:04:00.7	189.750	1.010	-0.770	1.580
2020/01/31 23:04:00.8	189.760	1.010	-0.750	1.580
2020/01/31 23:04:00.9	189.760	1.010	-0.730	1.570
2020/01/31 23:04:01.0	189.780	1.000	-0.690	1.570
2020/01/31 23:04:01.1	189.790	0.970	-0.640	1.560
2020/01/31 23:04:01.2	189.810	0.940	-0.590	1.560
2020/01/31 23:04:01.3	189.830	0.910	-0.530	1.560
2020/01/31 23:04:01.4	189.860	0.860	-0.470	1.570
2020/01/31 23:04:01.5	189.890	0.810	-0.410	1.570
2020/01/31 23:04:01.6	189.930	0.750	-0.340	1.570
2020/01/31 23:04:01.7	189.970	0.680	-0.270	1.580
2020/01/31 23:04:01.8	190.010	0.610	-0.200	1.590
2020/01/31 23:04:01.9	190.050	0.540	-0.130	1.600
2020/01/31 23:04:02.0	190.090	0.460	-0.060	1.610
2020/01/31 23:04:02.1	190.130	0.380	0.010	1.630
2020/01/31 23:04:02.2	190.180	0.300	0.070	1.650
2020/01/31 23:04:02.3	190.220	0.210	0.130	1.660
2020/01/31 23:04:02.4	190.260	0.130	0.190	1.680
2020/01/31 23:04:02.5	190.300	0.050	0.240	1.700
2020/01/31 23:04:02.6	190.340	-0.030	0.280	1.720
2020/01/31 23:04:02.7	190.380	-0.110	0.320	1.740
2020/01/31 23:04:02.8	190.410	-0.180	0.340	1.760
2020/01/31 23:04:02.9	190.440	-0.250	0.360	1.780
2020/01/31 23:04:03.0	190.470	-0.310	0.380	1.800
2020/01/31 23:04:03.1	190.500	-0.360	0.380	1.830
2020/01/31 23:04:03.2	190.520	-0.410	0.370	1.850
2020/01/31 23:04:03.3	190.540	-0.450	0.360	1.870
2020/01/31 23:04:03.4	190.560	-0.480	0.340	1.900
2020/01/31 23:04:03.5	190.570	-0.510	0.300	1.920
2020/01/31 23:04:03.6	190.580	-0.520	0.260	1.940
2020/01/31 23:04:03.7	190.590	-0.520	0.210	1.960
2020/01/31 23:04:03.8	190.590	-0.520	0.160	1.980
2020/01/31 23:04:03.9	190.590	-0.500	0.090	2.000
2020/01/31 23:04:04.0	190.580	-0.480	0.020	2.010
2020/01/31 23:04:04.1	190.570	-0.450	-0.060	2.030
2020/01/31 23:04:04.2	190.560	-0.410	-0.150	2.040
2020/01/31 23:04:04.3	190.550	-0.360	-0.240	2.050
2020/01/31 23:04:04.4	190.540	-0.300	-0.330	2.060
2020/01/31 23:04:04.5	190.520	-0.240	-0.430	2.060
2020/01/31 23:04:04.6	190.500	-0.170	-0.520	2.060
2020/01/31 23:04:04.7	190.480	-0.100	-0.620	2.060
2020/01/31 23:04:04.8	190.460	-0.020	-0.720	2.060
2020/01/31 23:04:04.9	190.430	0.060	-0.820	2.060
2020/01/31 23:04:05.0	190.410	0.140	-0.920	2.050
2020/01/31 23:04:05.1	190.370	0.220	-1.010	2.040
2020/01/31 23:04:05.2	190.340	0.310	-1.100	2.030
2020/01/31 23:04:05.3	190.320	0.390	-1.180	2.020
2020/01/31 23:04:05.4	190.290	0.470	-1.260	2.000
2020/01/31 23:04:05.5	190.260	0.550	-1.330	1.990
2020/01/31 23:04:05.6	190.240	0.620	-1.390	1.970
2020/01/31 23:04:05.7	190.220	0.690	-1.440	1.950
2020/01/31 23:04:05.8	190.200	0.750	-1.480	1.920
2020/01/31 23:04:05.9	190.180	0.810	-1.520	1.900
2020/01/31 23:04:06.0	190.160	0.860	-1.540	1.870
2020/01/31 23:04:06.1	190.150	0.900	-1.550	1.840
2020/01/31 23:04:06.2	190.130	0.940	-1.560	1.810
2020/01/31 23:04:06.3	190.130	0.960	-1.550	1.780
2020/01/31 23:04:06.4	190.120	0.980	-1.540	1.740
2020/01/31 23:04:06.5	190.120	0.990	-1.510	1.700
2020/01/31 23:04:06.6	190.120	0.990	-1.470	1.660
2020/01/31 23:04:06.7	190.130	0.980	-1.430	1.610
2020/01/31 23:04:06.8	190.140	0.960	-1.370	1.560
2020/01/31 23:04:06.9	190.150	0.930	-1.310	1.520
2020/01/31 23:04:07.0	190.160	0.900	-1.240	1.470
2020/01/31 23:04:07.1	190.190	0.850	-1.170	1.410
2020/01/31 23:04:07.2	190.210	0.800	-1.090	1.360
2020/01/31 23:04:07.3	190.230	0.740	-1.000	1.300
2020/01/31 23:04:07.4	190.260	0.670	-0.910	1.250
2020/01/31 23:04:07.5	190.280	0.600	-0.820	1.200
2020/01/31 23:04:07.6	190.310	0.520	-0.720	1.150
2020/01/31 23:04:07.7	190.330	0.440	-0.630	1.110
2020/01/31 23:04:07.8	190.360	0.350	-0.530	1.060
2020/01/31 23:04:07.9	190.390	0.260	-0.440	1.020
2020/01/31 23:04:08.0	190.420	0.160	-0.350	0.980
2020/01/31 23:04:08.1	190.460	0.060	-0.250	0.950
2020/01/31 23:04:08.2	190.490	-0.030	-0.170	0.920
2020/01/31 23:04:08.3	190.510	-0.130	-0.090	0.900
2020/01/31 23:04:08.4	190.540	-0.230	-0.010	0.880
2020/01/31 23:04:08.5	190.570	-0.330	0.060	0.870
2020/01/31 23:04:08.6	190.600	-0.430	0.130	0.860
2020/01/31 23:04:08.7	190.620	-0.520	0.190	0.860
2020/01/31 23:04:08.8	190.650	-0.610	0.240	0.870
2020/01/31 23:04:08.9	190.670	-0.700	0.290	0.880
2020/01/31 23:04:09.0	190.690	-0.780	0.320	0.890
2020/01/31 23:04:09.1	190.710	-0.850	0.350	0.910
2020/01/31 23:04:09.2	190.730	-0.920	0.370	0.940
2020/01/31 23:04:09.3	190.740	-0.990	0.390	0.970
2020/01/31 23:04:09.4	190.760	-1.040	0.400	1.000
2020/01/31 23:04:09.5	190.780	-1.090	0.400	1.030
2020/01/31 23:04:09.6	190.790	-1.140	0.390	1.070
2020/01/31 23:04:09.7	190.800	-1.170	0.380	1.110
2020/01/31 23:04:09.8	190.810	-1.200	0.360	1.150
2020/01/31 23:04:09.9	190.820	-1.220	0.340	1.190
2020/01/31 23:04:10.0	190.820	-1.230	0.310	1.230
2020/01/31 23:04:10.1	190.830	-1.230	0.270	1.280
2020/01/31 23:04:10.2	190.830	-1.220	0.230	1.320
2020/01/31 23:04:10.3	190.820	-1.210	0.190	1.360
2020/01/31 23:04:10.4	190.820	-1.180	0.140	1.400
2020/01/31 23:04:10.5	190.810	-1.150	0.090	1.440
2020/01/31 23:04:10.6	190.800	-1.120	0.040	1.480
2020/01/31 23:04:10.7	190.780	-1.070	-0.010	1.520
2020/01/31 23:04:10.8	190.760	-1.020	-0.060	1.560
2020/01/31 23:04:10.9	190.740	-0.970	-0.110	1.590
2020/01/31 23:04:11.0	190.720	-0.910	-0.170	1.630
2020/01/31 23:04:11.1	190.700	-0.840	-0.220	1.660
2020/01/31 23:04:11.2	190.670	-0.780	-0.260	1.700
2020/01/31 23:04:11.3	190.640	-0.700	-0.310	1.730
2020/01/31 23:04:11.4	190.610	-0.630	-0.340	1.760
2020/01/31 23:04:11.5	190.580	-0.550	-0.380	1.790
2020/01/31 23:04:11.6	190.540	-0.480	-0.410	1.820
2020/01/31 23:04:11.7	190.500	-0.400	-0.430	1.840
2020/01/31 23:04:11.8	190.470	-0.320	-0.450	1.860
2020/01/31 23:04:11.9	190.430	-0.250	-0.460	1.890
2020/01/31 23:04:12.0	190.400	-0.170	-0.460	1.900
2020/01/31 23:04:12.1	190.360	-0.100	-0.460	1.920
2020/01/31 23:04:12.2	190.330	-0.030	-0.450	1.930
2020/01/31 23:04:12.3	190.300	0.030	-0.430	1.940
2020/01/31 23:04:12.4	190.270	0.100	-0.410	1.940
2020/01/31 23:04:12.5	190.240	0.150	-0.380	1.940
2020/01/31 23:04:12.6	190.220	0.210	-0.340	1.930
2020/01/31 23:04:12.7	190.200	0.250	-0.300	1.920
2020/01/31 23:04:12.8	190.180	0.300	-0.250	1.900
2020/01/31 23:04:12.9	190.170	0.330	-0.190	1.880
2020/01/31 23:04:13.0	190.160	0.360	-0.130	1.860
2020/01/31 23:04:13.1	190.160	0.390	-0.070	1.830
2020/01/31 23:04:13.2	190.160	0.410	-0.010	1.800
2020/01/31 23:04:13.3	190.160	0.420	0.060	1.760
2020/01/31 23:04:13.4	190.170	0.430	0.130	1.720
2020/01/31 23:04:13.5	190.170	0.440	0.200	1.680
2020/01/31 23:04:13.6	190.190	0.430	0.270	1.640
2020/01/31 23:04:13.7	190.200	0.430	0.330	1.600
2020/01/31 23:04:13.8	190.210	0.420	0.400	1.560
2020/01/31 23:04:13.9	190.230	0.400	0.460	1.520
2020/01/31 23:04:14.0	190.240	0.380	0.520	1.480
2020/01/31 23:04:14.1	190.260	0.360	0.570	1.440
2020/01/31 23:04:14.2	190.280	0.340	0.620	1.400
2020/01/31 23:04:14.3	190.290	0.310	0.650	1.370
2020/01/31 23:04:14.4	190.310	0.280	0.680	1.340
2020/01/31 23:04:14.5	190.320	0.250	0.710	1.310
2020/01/31 23:04:14.6	190.330	0.220	0.720	1.290
2020/01/31 23:04:14.7	190.340	0.190	0.730	1.270
2020/01/31 23:04:14.8	190.340	0.160	0.720	1.260
2020/01/31 23:04:14.9	190.350	0.140	0.710	1.250
2020/01/31 23:04:15.0	190.350	0.110	0.690	1.250
2020/01/31 23:04:15.1	190.350	0.080	0.650	1.240
2020/01/31 23:04:15.2	190.350	0.060	0.610	1.250
2020/01/31 23:04:15.3	190.340	0.040	0.560	1.260
2020/01/31 23:04:15.4	190.330	0.020	0.500	1.280
2020/01/31 23:04:15.5	190.320	0.010	0.430	1.300
2020/01/31 23:04:15.6	190.310	-0.010	0.360	1.320
2020/01/31 23:04:15.7	190.300	-0.020	0.280	1.350
2020/01/31 23:04:15.8	190.280	-0.020	0.200	1.370
2020/01/31 23:04:15.9	190.260	-0.030	0.110	1.400
2020/01/31 23:04:16.0	190.250	-0.030	0.020	1.440
2020/01/31 23:04:16.1	190.230	-0.030	-0.080	1.470
2020/01/31 23:04:16.2	190.210	-0.020	-0.170	1.500
2020/01/31 23:04:16.3	190.190	-0.010	-0.270	1.540
2020/01/31 23:04:16.4	190.170	-0.000	-0.360	1.570
2020/01/31 23:04:16.5	190.150	0.010	-0.450	1.600
2020/01/31 23:04:16.6	190.130	0.030	-0.540	1.630
2020/01/31 23:04:16.7	190.110	0.050	-0.620	1.650
2020/01/31 23:04:16.8	190.090	0.070	-0.700	1.680
2020/01/31 23:04:16.9	190.070	0.090	-0.780	1.710
2020/01/31 23:04:17.0	190.050	0.110	-0.840	1.730
2020/01/31 23:04:17.1	190.030	0.130	-0.900	1.750
2020/01/31 23:04:17.2	190.010	0.160	-0.950	1.770
2020/01/31 23:04:17.3	190.000	0.180	-0.990	1.780
2020/01/31 23:04:17.4	189.990	0.210	-1.020	1.800
2020/01/31 23:04:17.5	189.980	0.240	-1.050	1.810
2020/01/31 23:04:17.6	189.970	0.260	-1.060	1.810
2020/01/31 23:04:17.7	189.960	0.290	-1.070	1.820
2020/01/31 23:04:17.8	189.950	0.310	-1.070	1.810
2020/01/31 23:04:17.9	189.950	0.340	-1.060	1.810
2020/01/31 23:04:18.0	189.940	0.360	-1.040	1.800
2020/01/31 23:04:18.1	189.940	0.390	-1.020	1.790
2020/01/31 23:04:18.2	189.940	0.410	-0.990	1.770
2020/01/31 23:04:18.3	189.950	0.430	-0.950	1.750
2020/01/31 23:04:18.4	189.950	0.440	-0.900	1.730
2020/01/31 23:04:18.5	189.960	0.460	-0.850	1.700
2020/01/31 23:04:18.6	189.960	0.480	-0.800	1.670
2020/01/31 23:04:18.7	189.970	0.490	-0.750	1.640
2020/01/31 23:04:18.8	189.980	0.500	-0.690	1.600
2020/01/31 23:04:18.9	189.990	0.510	-0.630	1.560
2020/01/31 23:04:19.0	190.000	0.510	-0.570	1.520
2020/01/31 23:04:19.1	190.010	0.510	-0.510	1.470
2020/01/31 23:04:19.2	190.020	0.520	-0.450	1.430
2020/01/31 23:04:19.3	190.030	0.510	-0.400	1.380
2020/01/31 23:04:19.4	190.040	0.510	-0.340	1.330
2020/01/31 23:04:19.5	190.040	0.500	-0.290	1.290
2020/01/31 23:04:19.6	190.050	0.500	-0.250	1.240
2020/01/31 23:04:19.7	190.060	0.480	-0.210	1.200
2020/01/31 23:04:19.8	190.060	0.470	-0.170	1.160
2020/01/31 23:04:19.9	190.070	0.460	-0.140	1.120
2020/01/31 23:04:20.0	190.070	0.440	-0.120	1.080
2020/01/31 23:04:20.1	190.060	0.420	-0.100	1.040
2020/01/31 23:04:20.2	190.060	0.400	-0.090	1.010
2020/01/31 23:04:20.3	190.070	0.380	-0.080	0.980
2020/01/31 23:04:20.4	190.060	0.350	-0.090	0.950
2020/01/31 23:04:20.5	190.060	0.330	-0.090	0.930
2020/01/31 23:04:20.6	190.060	0.300	-0.110	0.920
2020/01/31 23:04:20.7	190.060	0.270	-0.130	0.900
2020/01/31 23:04:20.8	190.060	0.240	-0.150	0.900
2020/01/31 23:04:20.9	190.060	0.210	-0.180	0.890
2020/01/31 23:04:21.0	190.060	0.180	-0.210	0.890
2020/01/31 23:04:21.1	190.070	0.150	-0.250	0.890
2020/01/31 23:04:21.2	190.080	0.120	-0.280	0.900
2020/01/31 23:04:21.3	190.080	0.080	-0.320	0.910
2020/01/31 23:04:21.4	190.080	0.050	-0.360	0.920
2020/01/31 23:04:21.5	190.090	0.020	-0.400	0.940
2020/01/31 23:04:21.6	190.100	-0.020	-0.440	0.960
2020/01/31 23:04:21.7	190.100	-0.050	-0.480	0.990
2020/01/31 23:04:21.8	190.110	-0.090	-0.520	1.010
2020/01/31 23:04:21.9	190.120	-0.120	-0.560	1.050
2020/01/31 23:04:22.0	190.130	-0.160	-0.590	1.080
2020/01/31 23:04:22.1	190.140	-0.190	-0.630	1.120
2020/01/31 23:04:22.2	190.150	-0.220	-0.660	1.160
2020/01/31 23:04:22.3	190.160	-0.250	-0.680	1.200
2020/01/31 23:04:22.4	190.160	-0.280	-0.710	1.250
2020/01/31 23:04:22.5	190.170	-0.310	-0.720	1.290
2020/01/31 23:04:22.6	190.180	-0.340	-0.740	1.340
2020/01/31 23:04:22.7	190.190	-0.360	-0.750	1.390
2020/01/31 23:04:22.8	190.200	-0.390	-0.750	1.440
2020/01/31 23:04:22.9	190.210	-0.410	-0.750	1.490
2020/01/31 23:04:23.0	190.220	-0.430	-0.750	1.540
2020/01/31 23:04:23.1	190.220	-0.440	-0.750	1.600
2020/01/31 23:04:23.2	190.220	-0.460	-0.730	1.650
2020/01/31 23:04:23.3	190.230	-0.470	-0.720	1.700
2020/01/31 23:04:23.4	190.230	-0.480	-0.700	1.750
2020/01/31 23:04:23.5	190.230	-0.490	-0.670	1.800
2020/01/31 23:04:23.6	190.230	-0.490	-0.640	1.840
2020/01/31 23:04:23.7	190.230	-0.490	-0.610	1.890
2020/01/31 23:04:23.8	190.230	-0.490	-0.580	1.930
2020/01/31 23:04:23.9	190.230	-0.480	-0.540	1.970
2020/01/31 23:04:24.0	190.220	-0.470	-0.500	2.010
2020/01/31 23:04:24.1	190.220	-0.460	-0.450	2.050
2020/01/31 23:04:24.2	190.210	-0.450	-0.400	2.080
2020/01/31 23:04:24.3	190.200	-0.430	-0.350	2.110
2020/01/31 23:04:24.4	190.190	-0.410	-0.300	2.140
2020/01/31 23:04:24.5	190.180	-0.390	-0.250	2.160
2020/01/31 23:04:24.6	190.170	-0.370	-0.190	2.180
2020/01/31 23:04:24.7	190.150	-0.350	-0.140	2.200
2020/01/31 23:04:24.8	190.140	-0.320	-0.090	2.210
2020/01/31 23:04:24.9	190.120	-0.290	-0.030	2.220
2020/01/31 23:04:25.0	190.100	-0.260	0.020	2.230
2020/01/31 23:04:25.1	190.090	-0.240	0.070	2.230
2020/01/31 23:04:25.2	190.070	-0.200	0.120	2.240
2020/01/31 23:04:25.3	190.050	-0.170	0.170	2.240
2020/01/31 23:04:25.4	190.030	-0.140	0.210	2.230
2020/01/31 23:04:25.5	190.010	-0.110	0.250	2.230
2020/01/31 23:04:25.6	189.990	-0.080	0.290	2.220
2020/01/31 23:04:25.7	189.960	-0.050	0.320	2.210
2020/01/31 23:04:25.8	189.940	-0.020	0.340	2.200
2020/01/31 23:04:25.9	189.920	0.020	0.360	2.180
2020/01/31 23:04:26.0	189.900	0.050	0.380	2.160
2020/01/31 23:04:26.1	189.870	0.080	0.380	2.140
2020/01/31 23:04:26.2	189.850	0.100	0.380	2.110
2020/01/31 23:04:26.3	189.820	0.130	0.380	2.090
2020/01/31 23:04:26.4	189.800	0.160	0.370	2.060
2020/01/31 23:04:26.5	189.780	0.180	0.360	2.030
2020/01/31 23:04:26.6	189.750	0.210	0.340	2.000
2020/01/31 23:04:26.7	189.730	0.230	0.310	1.970
2020/01/31 23:04:26.8	189.710	0.250	0.280	1.940
2020/01/31 23:04:26.9	189.690	0.260	0.250	1.910
2020/01/31 23:04:27.0	189.660	0.280	0.210	1.880
2020/01/31 23:04:27.1	189.640	0.290	0.170	1.850
2020/01/31 23:04:27.2	189.620	0.300	0.120	1.820
2020/01/31 23:04:27.3	189.600	0.310	0.070	1.790
2020/01/31 23:04:27.4	189.580	0.310	0.020	1.770
2020/01/31 23:04:27.5	189.550	0.320	-0.030	1.750
2020/01/31 23:04:27.6	189.530	0.310	-0.080	1.730
2020/01/31 23:04:27.7	189.510	0.310	-0.140	1.710
2020/01/31 23:04:27.8	189.490	0.310	-0.190	1.690
2020/01/31 23:04:27.9	189.470	0.300	-0.240	1.670
2020/01/31 23:04:28.0	189.450	0.290	-0.290	1.660
2020/01/31 23:04:28.1	189.430	0.280	-0.340	1.650
2020/01/31 23:04:28.2	189.420	0.260	-0.380	1.640
2020/01/31 23:04:28.3	189.400	0.240	-0.410	1.630
2020/01/31 23:04:28.4	189.390	0.230	-0.450	1.620
2020/01/31 23:04:28.5	189.380	0.200	-0.470	1.610
2020/01/31 23:04:28.6	189.380	0.180	-0.500	1.600
2020/01/31 23:04:28.7	189.380	0.160	-0.510	1.590
2020/01/31 23:04:28.8	189.380	0.130	-0.520	1.580
2020/01/31 23:04:28.9	189.390	0.110	-0.530	1.570
2020/01/31 23:04:29.0	189.390	0.080	-0.530	1.560
2020/01/31 23:04:29.1	189.400	0.050	-0.520	1.550
2020/01/31 23:04:29.2	189.420	0.020	-0.510	1.530
2020/01/31 23:04:29.3	189.440	-0.010	-0.490	1.520
2020/01/31 23:04:29.4	189.460	-0.040	-0.470	1.500
2020/01/31 23:04:29.5	189.490	-0.070	-0.440	1.490
2020/01/31 23:04:29.6	189.510	-0.100	-0.410	1.470
2020/01/31 23:04:29.7	189.550	-0.140	-0.380	1.450
2020/01/31 23:04:29.8	189.580	-0.170	-0.350	1.440
2020/01/31 23:04:29.9	189.610	-0.200	-0.310	1.420
2020/01/31 23:04:30.0	189.650	-0.230	-0.270	1.400
2020/01/31 23:04:30.1	189.680	-0.260	-0.240	1.380
2020/01/31 23:04:30.2	189.720	-0.290	-0.210	1.370
2020/01/31 23:04:30.3	189.760	-0.320	-0.170	1.350
2020/01/31 23:04:30.4	189.800	-0.350	-0.140	1.340
2020/01/31 23:04:30.5	189.840	-0.370	-0.110	1.320
2020/01/31 23:04:30.6	189.880	-0.400	-0.080	1.310
2020/01/31 23:04:30.7	189.920	-0.420	-0.060	1.300
2020/01/31 23:04:30.8	189.960	-0.440	-0.040	1.290
2020/01/31 23:04:30.9	189.990	-0.450	-0.030	1.280
2020/01/31 23:04:31.0	190.020	-0.460	-0.020	1.270
2020/01/31 23:04:31.1	190.060	-0.470	-0.020	1.270
2020/01/31 23:04:31.2	190.080	-0.480	-0.020	1.270
2020/01/31 23:04:31.3	190.110	-0.480	-0.030	1.270
2020/01/31 23:04:31.4	190.140	-0.470	-0.040	1.270
2020/01/31 23:04:31.5	190.160	-0.470	-0.060	1.270
2020/01/31 23:04:31.6	190.180	-0.450	-0.080	1.280
2020/01/31 23:04:31.7	190.200	-0.440	-0.110	1.290
2020/01/31 23:04:31.8	190.210	-0.420	-0.150	1.290
2020/01/31 23:04:31.9	190.220	-0.390	-0.190	1.300
2020/01/31 23:04:32.0	190.230	-0.360	-0.230	1.320
2020/01/31 23:04:32.1	190.240	-0.330	-0.280	1.330
2020/01/31 23:04:32.2	190.240	-0.290	-0.330	1.350
2020/01/31 23:04:32.3	190.250	-0.250	-0.380	1.360
2020/01/31 23:04:32.4	190.250	-0.200	-0.430	1.370
2020/01/31 23:04:32.5	190.250	-0.160	-0.490	1.380
2020/01/31 23:04:32.6	190.260	-0.110	-0.540	1.390
2020/01/31 23:04:32.7	190.260	-0.050	-0.590	1.390
2020/01/31 23:04:32.8	190.260	0.000	-0.640	1.400
2020/01/31 23:04:32.9	190.250	0.060	-0.680	1.400
2020/01/31 23:04:33.0	190.250	0.110	-0.730	1.400
2020/01/31 23:04:33.1	190.250	0.170	-0.760	1.410
2020/01/31 23:04:33.2	190.250	0.220	-0.790	1.400
2020/01/31 23:04:33.3	190.250	0.280	-0.820	1.400
2020/01/31 23:04:33.4	190.240	0.330	-0.840	1.390
2020/01/31 23:04:33.5	190.240	0.380	-0.850	1.390
2020/01/31 23:04:33.6	190.230	0.430	-0.860	1.380
2020/01/31 23:04:33.7	190.230	0.470	-0.860	1.370
2020/01/31 23:04:33.8	190.220	0.510	-0.850	1.360
2020/01/31 23:04:33.9	190.210	0.550	-0.840	1.360
2020/01/31 23:04:34.0	190.210	0.580	-0.820	1.350
2020/01/31 23:04:34.1	190.190	0.610	-0.800	1.340
2020/01/31 23:04:34.2	190.190	0.630	-0.780	1.330
2020/01/31 23:04:34.3	190.170	0.650	-0.740	1.330
2020/01/31 23:04:34.4	190.170	0.660	-0.710	1.320
2020/01/31 23:04:34.5	190.150	0.670	-0.670	1.310
2020/01/31 23:04:34.6	190.140	0.670	-0.620	1.310
2020/01/31 23:04:34.7	190.130	0.660	-0.580	1.310
2020/01/31 23:04:34.8	190.120	0.650	-0.530	1.300
2020/01/31 23:04:34.9	190.110	0.640	-0.480	1.300
2020/01/31 23:04:35.0	190.100	0.610	-0.420	1.290
2020/01/31 23:04:35.1	190.100	0.590	-0.370	1.290
2020/01/31 23:04:35.2	190.090	0.550	-0.320	1.290
2020/01/31 23:04:35.3	190.080	0.520	-0.260	1.290
2020/01/31 23:04:35.4	190.080	0.470	-0.210	1.290
2020/01/31 23:04:35.5	190.080	0.430	-0.150	1.290
2020/01/31 23:04:35.6	190.070	0.380	-0.100	1.290
2020/01/31 23:04:35.7	190.070	0.320	-0.050	1.300
2020/01/31 23:04:35.8	190.070	0.260	0.010	1.310
2020/01/31 23:04:35.9	190.080	0.200	0.060	1.310
2020/01/31 23:04:36.0	190.080	0.140	0.110	1.330
2020/01/31 23:04:36.1	190.080	0.070	0.150	1.340
2020/01/31 23:04:36.2	190.090	0.010	0.200	1.360
2020/01/31 23:04:36.3	190.090	-0.060	0.250	1.370
2020/01/31 23:04:36.4	190.100	-0.130	0.290	1.400
2020/01/31 23:04:36.5	190.100	-0.200	0.330	1.420
2020/01/31 23:04:36.6	190.110	-0.260	0.370	1.440
2020/01/31 23:04:36.7	190.110	-0.330	0.400	1.470
2020/01/31 23:04:36.8	190.120	-0.390	0.430	1.500
2020/01/31 23:04:36.9	190.130	-0.450	0.460	1.530
2020/01/31 23:04:37.0	190.130	-0.500	0.480	1.560
2020/01/31 23:04:37.1	190.130	-0.550	0.510	1.600
2020/01/31 23:04:37.2	190.130	-0.600	0.530	1.630
2020/01/31 23:04:37.3	190.140	-0.640	0.540	1.670
2020/01/31 23:04:37.4	190.140	-0.680	0.550	1.710
2020/01/31 23:04:37.5	190.140	-0.710	0.550	1.740
2020/01/31 23:04:37.6	190.150	-0.730	0.550	1.780
2020/01/31 23:04:37.7	190.150	-0.750	0.540	1.820
2020/01/31 23:04:37.8	190.150	-0.760	0.530	1.850
2020/01/31 23:04:37.9	190.140	-0.760	0.510	1.880
2020/01/31 23:04:38.0	190.140	-0.760	0.490	1.910
2020/01/31 23:04:38.1	190.140	-0.750	0.450	1.940
2020/01/31 23:04:38.2	190.130	-0.730	0.420	1.970
2020/01/31 23:04:38.3	190.130	-0.710	0.390	1.990
2020/01/31 23:04:38.4	190.120	-0.680	0.340	2.010
2020/01/31 23:04:38.5	190.110	-0.640	0.300	2.020
2020/01/31 23:04:38.6	190.100	-0.600	0.250	2.030
2020/01/31 23:04:38.7	190.090	-0.550	0.200	2.040
2020/01/31 23:04:38.8	190.080	-0.490	0.140	2.040
2020/01/31 23:04:38.9	190.070	-0.440	0.080	2.040
2020/01/31 23:04:39.0	190.050	-0.370	0.020	2.040
2020/01/31 23:04:39.1	190.030	-0.310	-0.040	2.040
2020/01/31 23:04:39.2	190.010	-0.240	-0.110	2.030
2020/01/31 23:04:39.3	190.000	-0.160	-0.170	2.020
2020/01/31 23:04:39.4	189.980	-0.090	-0.240	2.010
2020/01/31 23:04:39.5	189.960	-0.010	-0.300	1.990
2020/01/31 23:04:39.6	189.940	0.060	-0.370	1.980
2020/01/31 23:04:39.7	189.920	0.140	-0.430	1.960
2020/01/31 23:04:39.8	189.900	0.210	-0.490	1.950
2020/01/31 23:04:39.9	189.870	0.280	-0.550	1.930
2020/01/31 23:04:40.0	189.850	0.360	-0.600	1.910
2020/01/31 23:04:40.1	189.830	0.420	-0.650	1.900
2020/01/31 23:04:40.2	189.810	0.490	-0.700	1.880
2020/01/31 23:04:40.3	189.790	0.550	-0.740	1.860
2020/01/31 23:04:40.4	189.770	0.600	-0.780	1.840
2020/01/31 23:04:40.5	189.740	0.660	-0.810	1.820
2020/01/31 23:04:40.6	189.720	0.700	-0.840	1.800
2020/01/31 23:04:40.7	189.700	0.740	-0.860	1.770
2020/01/31 23:04:40.8	189.680	0.780	-0.880	1.750
2020/01/31 23:04:40.9	189.670	0.810	-0.890	1.720
2020/01/31 23:04:41.0	189.650	0.830	-0.900	1.700
2020/01/31 23:04:41.1	189.640	0.850	-0.900	1.670
2020/01/31 23:04:41.2	189.630	0.860	-0.900	1.630
2020/01/31 23:04:41.3	189.620	0.870	-0.890	1.600
2020/01/31 23:04:41.4	189.610	0.870	-0.880	1.560
2020/01/31 23:04:41.5	189.610	0.860	-0.860	1.530
2020/01/31 23:04:41.6	189.610	0.840	-0.830	1.490
2020/01/31 23:04:41.7	189.610	0.820	-0.810	1.440
2020/01/31 23:04:41.8	189.610	0.800	-0.770	1.400
2020/01/31 23:04:41.9	189.610	0.770	-0.740	1.360
2020/01/31 23:04:42.0	189.620	0.730	-0.700	1.310
2020/01/31 23:04:42.1	189.640	0.690	-0.660	1.260
2020/01/31 23:04:42.2	189.640	0.650	-0.620	1.220
2020/01/31 23:04:42.3	189.660	0.600	-0.580	1.180
2020/01/31 23:04:42.4	189.670	0.550	-0.540	1.140
2020/01/31 23:04:42.5	189.680	0.490	-0.490	1.100
2020/01/31 23:04:42.6	189.690	0.440	-0.450	1.070
2020/01/31 23:04:42.7	189.700	0.380	-0.410	1.040
2020/01/31 23:04:42.8	189.710	0.320	-0.370	1.010
2020/01/31 23:04:42.9	189.720	0.260	-0.340	0.980
2020/01/31 23:04:43.0	189.730	0.210	-0.300	0.960
2020/01/31 23:04:43.1	189.740	0.150	-0.270	0.950
2020/01/31 23:04:43.2	189.740	0.090	-0.240	0.940
2020/01/31 23:04:43.3	189.750	0.030	-0.220	0.930
2020/01/31 23:04:43.4	189.760	-0.020	-0.200	0.930
2020/01/31 23:04:43.5	189.770	-0.070	-0.190	0.930
2020/01/31 23:04:43.6	189.770	-0.120	-0.170	0.930
2020/01/31 23:04:43.7	189.780	-0.170	-0.170	0.940
2020/01/31 23:04:43.8	189.780	-0.220	-0.160	0.960
2020/01/31 23:04:43.9	189.790	-0.260	-0.160	0.970
2020/01/31 23:04:44.0	189.790	-0.300	-0.160	0.990
2020/01/31 23:04:44.1	189.790	-0.330	-0.170	1.010
2020/01/31 23:04:44.2	189.800	-0.370	-0.180	1.030
2020/01/31 23:04:44.3	189.800	-0.400	-0.190	1.060
2020/01/31 23:04:44.4	189.800	-0.430	-0.210	1.080
2020/01/31 23:04:44.5	189.810	-0.450	-0.220	1.110
2020/01/31 23:04:44.6	189.810	-0.470	-0.240	1.130
2020/01/31 23:04:44.7	189.820	-0.490	-0.260	1.160
2020/01/31 23:04:44.8	189.820	-0.510	-0.280	1.190
2020/01/31 23:04:44.9	189.820	-0.520	-0.300	1.220
2020/01/31 23:04:45.0	189.830	-0.530	-0.320	1.240
2020/01/31 23:04:45.1	189.830	-0.540	-0.340	1.270
2020/01/31 23:04:45.2	189.830	-0.540	-0.360	1.300
2020/01/31 23:04:45.3	189.830	-0.540	-0.380	1.320
2020/01/31 23:04:45.4	189.840	-0.550	-0.400	1.350
2020/01/31 23:04:45.5	189.850	-0.550	-0.420	1.370
2020/01/31 23:04:45.6	189.850	-0.540	-0.430	1.400
2020/01/31 23:04:45.7	189.860	-0.540	-0.450	1.420
2020/01/31 23:04:45.8	189.860	-0.530	-0.460	1.440
2020/01/31 23:04:45.9	189.870	-0.530	-0.470	1.470
2020/01/31 23:04:46.0	189.870	-0.520	-0.480	1.490
2020/01/31 23:04:46.1	189.870	-0.510	-0.490	1.510
2020/01/31 23:04:46.2	189.880	-0.500	-0.490	1.530
2020/01/31 23:04:46.3	189.880	-0.490	-0.500	1.550
2020/01/31 23:04:46.4	189.890	-0.480	-0.500	1.570
2020/01/31 23:04:46.5	189.890	-0.470	-0.500	1.590
2020/01/31 23:04:46.6	189.900	-0.460	-0.490	1.610
2020/01/31 23:04:46.7	189.900	-0.450	-0.490	1.630
2020/01/31 23:04:46.8	189.910	-0.440	-0.480	1.640
2020/01/31 23:04:46.9	189.920	-0.420	-0.470	1.660
2020/01/31 23:04:47.0	189.920	-0.410	-0.460	1.670
2020/01/31 23:04:47.1	189.940	-0.400	-0.450	1.690
2020/01/31 23:04:47.2	189.940	-0.380	-0.430	1.700
2020/01/31 23:04:47.3	189.950	-0.370	-0.420	1.710
2020/01/31 23:04:47.4	189.950	-0.360	-0.400	1.720
2020/01/31 23:04:47.5	189.960	-0.340	-0.380	1.730
2020/01/31 23:04:47.6	189.970	-0.330	-0.360	1.730
2020/01/31 23:04:47.7	189.970	-0.310	-0.340	1.740
2020/01/31 23:04:47.8	189.970	-0.300	-0.320	1.740
2020/01/31 23:04:47.9	189.980	-0.280	-0.300	1.740
2020/01/31 23:04:48.0	189.980	-0.260	-0.270	1.740
2020/01/31 23:04:48.1	189.990	-0.250	-0.250	1.740
2020/01/31 23:04:48.2	189.990	-0.230	-0.230	1.730
2020/01/31 23:04:48.3	190.000	-0.210	-0.210	1.730
2020/01/31 23:04:48.4	190.000	-0.200	-0.180	1.720
2020/01/31 23:04:48.5	190.000	-0.180	-0.160	1.710
2020/01/31 23:04:48.6	190.010	-0.160	-0.140	1.690
2020/01/31 23:04:48.7	190.010	-0.150	-0.110	1.680
2020/01/31 23:04:48.8	190.010	-0.130	-0.090	1.660
2020/01/31 23:04:48.9	190.010	-0.110	-0.070	1.640
2020/01/31 23:04:49.0	190.020	-0.090	-0.040	1.620
2020/01/31 23:04:49.1	190.020	-0.070	-0.020	1.600
2020/01/31 23:04:49.2	190.020	-0.060	0.010	1.580
2020/01/31 23:04:49.3	190.020	-0.040	0.030	1.560
2020/01/31 23:04:49.4	190.020	-0.020	0.050	1.540
2020/01/31 23:04:49.5	190.020	-0.000	0.080	1.520
2020/01/31 23:04:49.6	190.020	0.010	0.100	1.500
2020/01/31 23:04:49.7	190.020	0.030	0.120	1.480
2020/01/31 23:04:49.8	190.010	0.050	0.140	1.470
2020/01/31 23:04:49.9	190.010	0.060	0.160	1.450
2020/01/31 23:04:50.0	190.000	0.080	0.180	1.430
2020/01/31 23:04:50.1	189.990	0.100	0.200	1.420
2020/01/31 23:04:50.2	189.990	0.110	0.210	1.400
2020/01/31 23:04:50.3	189.980	0.130	0.230	1.390
2020/01/31 23:04:50.4	189.970	0.150	0.240	1.380
2020/01/31 23:04:50.5	189.950	0.170	0.250	1.360
2020/01/31 23:04:50.6	189.940	0.180	0.260	1.350
2020/01/31 23:04:50.7	189.920	0.200	0.260	1.340
2020/01/31 23:04:50.8	189.900	0.220	0.260	1.330
2020/01/31 23:04:50.9	189.880	0.240	0.260	1.320
2020/01/31 23:04:51.0	189.850	0.260	0.250	1.320
2020/01/31 23:04:51.1	189.830	0.270	0.240	1.310
2020/01/31 23:04:51.2	189.800	0.290	0.230	1.310
2020/01/31 23:04:51.3	189.770	0.310	0.210	1.310
2020/01/31 23:04:51.4	189.740	0.330	0.190	1.300
2020/01/31 23:04:51.5	189.710	0.340	0.170	1.300
2020/01/31 23:04:51.6	189.680	0.360	0.140	1.300
2020/01/31 23:04:51.7	189.640	0.370	0.110	1.310
2020/01/31 23:04:51.8	189.610	0.390	0.080	1.310
2020/01/31 23:04:51.9	189.580	0.400	0.050	1.320
2020/01/31 23:04:52.0	189.550	0.410	0.010	1.330
2020/01/31 23:04:52.1	189.510	0.420	-0.030	1.330
2020/01/31 23:04:52.2	189.480	0.420	-0.060	1.340
2020/01/31 23:04:52.3	189.460	0.430	-0.100	1.350
2020/01/31 23:04:52.4	189.430	0.430	-0.140	1.370
2020/01/31 23:04:52.5	189.410	0.430	-0.170	1.380
2020/01/31 23:04:52.6	189.390	0.420	-0.200	1.400
2020/01/31 23:04:52.7	189.370	0.420	-0.230	1.420
2020/01/31 23:04:52.8	189.360	0.410	-0.270	1.440
2020/01/31 23:04:52.9	189.340	0.400	-0.290	1.460
2020/01/31 23:04:53.0	189.330	0.380	-0.320	1.480
2020/01/31 23:04:53.1	189.330	0.370	-0.340	1.520
2020/01/31 23:04:53.2	189.330	0.350	-0.360	1.550
2020/01/31 23:04:53.3	189.330	0.320	-0.380	1.580
2020/01/31 23:04:53.4	189.320	0.300	-0.400	1.620
2020/01/31 23:04:53.5	189.330	0.270	-0.410	1.650
2020/01/31 23:04:53.6	189.330	0.250	-0.420	1.690
2020/01/31 23:04:53.7	189.330	0.220	-0.430	1.730
2020/01/31 23:04:53.8	189.340	0.180	-0.430	1.780
2020/01/31 23:04:53.9	189.350	0.150	-0.430	1.820
2020/01/31 23:04:54.0	189.350	0.120	-0.430	1.860
2020/01/31 23:04:54.1	189.360	0.080	-0.440	1.910
2020/01/31 23:04:54.2	189.370	0.050	-0.430	1.960
2020/01/31 23:04:54.3	189.390	0.010	-0.430	2.000
2020/01/31 23:04:54.4	189.400	-0.020	-0.420	2.050
2020/01/31 23:04:54.5	189.410	-0.060	-0.410	2.090
2020/01/31 23:04:54.6	189.420	-0.090	-0.400	2.130
2020/01/31 23:04:54.7	189.440	-0.120	-0.390	2.170
2020/01/31 23:04:54.8	189.450	-0.150	-0.380	2.210
2020/01/31 23:04:54.9	189.470	-0.180	-0.370	2.240
2020/01/31 23:04:55.0	189.480	-0.210	-0.360	2.270
2020/01/31 23:04:55.1	189.510	-0.240	-0.350	2.300
2020/01/31 23:04:55.2	189.520	-0.260	-0.340	2.330
2020/01/31 23:04:55.3	189.540	-0.280	-0.320	2.350
2020/01/31 23:04:55.4	189.550	-0.300	-0.310	2.370
2020/01/31 23:04:55.5	189.570	-0.320	-0.300	2.380
2020/01/31 23:04:55.6	189.580	-0.330	-0.290	2.390
2020/01/31 23:04:55.7	189.600	-0.340	-0.280	2.400
2020/01/31 23:04:55.8	189.610	-0.350	-0.270	2.400
2020/01/31 23:04:55.9	189.630	-0.350	-0.260	2.400
2020/01/31 23:04:56.0	189.640	-0.350	-0.250	2.390
2020/01/31 23:04:56.1	189.660	-0.350	-0.250	2.370
2020/01/31 23:04:56.2	189.670	-0.340	-0.240	2.360
2020/01/31 23:04:56.3	189.680	-0.330	-0.240	2.330
2020/01/31 23:04:56.4	189.700	-0.320	-0.240	2.300
2020/01/31 23:04:56.5	189.710	-0.300	-0.240	2.270
2020/01/31 23:04:56.6	189.730	-0.280	-0.240	2.230
2020/01/31 23:04:56.7	189.750	-0.260	-0.240	2.190
2020/01/31 23:04:56.8	189.760	-0.240	-0.240	2.140
2020/01/31 23:04:56.9	189.780	-0.210	-0.240	2.090
2020/01/31 23:04:57.0	189.800	-0.180	-0.250	2.030
2020/01/31 23:04:57.1	189.830	-0.150	-0.250	1.970
2020/01/31 23:04:57.2	189.850	-0.120	-0.260	1.910
2020/01/31 23:04:57.3	189.870	-0.090	-0.270	1.840
2020/01/31 23:04:57.4	189.890	-0.060	-0.270	1.770
2020/01/31 23:04:57.5	189.910	-0.030	-0.280	1.690
2020/01/31 23:04:57.6	189.940	0.010	-0.290	1.620
2020/01/31 23:04:57.7	189.960	0.040	-0.290	1.540
2020/01/31 23:04:57.8	189.980	0.070	-0.300	1.460
2020/01/31 23:04:57.9	190.010	0.100	-0.310	1.380
2020/01/31 23:04:58.0	190.030	0.130	-0.320	1.310
2020/01/31 23:04:58.1	190.060	0.160	-0.330	1.220
2020/01/31 23:04:58.2	190.080	0.190	-0.340	1.150
2020/01/31 23:04:58.3	190.100	0.220	-0.340	1.070
2020/01/31 23:04:58.4	190.130	0.250	-0.350	1.000
2020/01/31 23:04:58.5	190.150	0.270	-0.360	0.930
2020/01/31 23:04:58.6	190.170	0.290	-0.370	0.870
2020/01/31 23:04:58.7	190.190	0.310	-0.380	0.800
2020/01/31 23:04:58.8	190.210	0.330	-0.390	0.750
2020/01/31 23:04:58.9	190.220	0.350	-0.410	0.690
2020/01/31 23:04:59.0	190.240	0.360	-0.420	0.640
2020/01/31 23:04:59.1	190.250	0.370	-0.430	0.600
2020/01/31 23:04:59.2	190.260	0.380	-0.450	0.560
2020/01/31 23:04:59.3	190.260	0.390	-0.470	0.530
2020/01/31 23:04:59.4	190.270	0.400	-0.480	0.500
2020/01/31 23:04:59.5	190.270	0.400	-0.510	0.480
2020/01/31 23:04:59.6	190.270	0.400	-0.530	0.460
2020/01/31 23:04:59.7	190.260	0.400	-0.550	0.450
2020/01/31 23:04:59.8	190.250	0.400	-0.580	0.450
2020/01/31 23:04:59.9	190.240	0.390	-0.600	0.450
2020/01/31 23:05:00.0	190.230	0.390	-0.630	0.460
2020/01/31 23:05:00.1	190.210	0.380	-0.660	0.460
2020/01/31 23:05:00.2	190.190	0.370	-0.690	0.480
2020/01/31 23:05:00.3	190.170	0.360	-0.720	0.500
2020/01/31 23:05:00.4	190.140	0.340	-0.760	0.520
2020/01/31 23:05:00.5	190.110	0.330	-0.790	0.550
2020/01/31 23:05:00.6	190.080	0.310	-0.820	0.590
2020/01/31 23:05:00.7	190.050	0.290	-0.840	0.630
2020/01/31 23:05:00.8	190.020	0.270	-0.870	0.670
2020/01/31 23:05:00.9	189.980	0.250	-0.890	0.710
2020/01/31 23:05:01.0	189.950	0.220	-0.910	0.760
2020/01/31 23:05:01.1	189.920	0.200	-0.930	0.810
2020/01/31 23:05:01.2	189.890	0.170	-0.940	0.860
2020/01/31 23:05:01.3	189.860	0.140	-0.940	0.920
2020/01/31 23:05:01.4	189.830	0.100	-0.940	0.970
2020/01/31 23:05:01.5	189.810	0.070	-0.930	1.030
2020/01/31 23:05:01.6	189.790	0.030	-0.920	1.090
2020/01/31 23:05:01.7	189.770	-0.010	-0.900	1.160
2020/01/31 23:05:01.8	189.760	-0.050	-0.870	1.220
2020/01/31 23:05:01.9	189.750	-0.100	-0.830	1.290
2020/01/31 23:05:02.0	189.740	-0.140	-0.790	1.350
2020/01/31 23:05:02.1	189.740	-0.190	-0.730	1.420
2020/01/31 23:05:02.2	189.740	-0.240	-0.670	1.490
2020/01/31 23:05:02.3	189.740	-0.290	-0.610	1.550
2020/01/31 23:05:02.4	189.750	-0.340	-0.530	1.620
2020/01/31 23:05:02.5	189.760	-0.390	-0.450	1.680
2020/01/31 23:05:02.6	189.770	-0.440	-0.360	1.740
2020/01/31 23:05:02.7	189.780	-0.490	-0.270	1.800
2020/01/31 23:05:02.8	189.800	-0.530	-0.180	1.860
2020/01/31 23:05:02.9	189.820	-0.580	-0.080	1.910
2020/01/31 23:05:03.0	189.840	-0.630	0.020	1.960
2020/01/31 23:05:03.1	189.860	-0.670	0.120	2.010
2020/01/31 23:05:03.2	189.880	-0.710	0.210	2.060
2020/01/31 23:05:03.3	189.900	-0.750	0.310	2.090
2020/01/31 23:05:03.4	189.920	-0.790	0.400	2.130
2020/01/31 23:05:03.5	189.940	-0.820	0.490	2.160
2020/01/31 23:05:03.6	189.960	-0.840	0.570	2.190
2020/01/31 23:05:03.7	189.980	-0.870	0.640	2.220
2020/01/31 23:05:03.8	190.000	-0.880	0.700	2.240
2020/01/31 23:05:03.9	190.010	-0.890	0.760	2.260
2020/01/31 23:05:04.0	190.020	-0.900	0.800	2.270
2020/01/31 23:05:04.1	190.030	-0.900	0.840	2.290
2020/01/31 23:05:04.2	190.040	-0.890	0.860	2.290
2020/01/31 23:05:04.3	190.040	-0.880	0.870	2.300
2020/01/31 23:05:04.4	190.040	-0.860	0.860	2.300
2020/01/31 23:05:04.5	190.040	-0.830	0.850	2.300
2020/01/31 23:05:04.6	190.040	-0.790	0.820	2.300
2020/01/31 23:05:04.7	190.030	-0.750	0.780	2.290
2020/01/31 23:05:04.8	190.020	-0.710	0.740	2.280
2020/01/31 23:05:04.9	190.010	-0.660	0.680	2.260
2020/01/31 23:05:05.0	190.000	-0.600	0.610	2.250
2020/01/31 23:05:05.1	189.990	-0.530	0.540	2.240
2020/01/31 23:05:05.2	189.970	-0.470	0.460	2.220
2020/01/31 23:05:05.3	189.950	-0.400	0.370	2.200
2020/01/31 23:05:05.4	189.940	-0.320	0.280	2.180
2020/01/31 23:05:05.5	189.920	-0.240	0.190	2.150
2020/01/31 23:05:05.6	189.900	-0.160	0.090	2.130
2020/01/31 23:05:05.7	189.880	-0.080	0.000	2.100
2020/01/31 23:05:05.8	189.860	0.000	-0.090	2.070
2020/01/31 23:05:05.9	189.840	0.080	-0.180	2.040
2020/01/31 23:05:06.0	189.820	0.170	-0.270	2.000
2020/01/31 23:05:06.1	189.800	0.250	-0.350	1.960
2020/01/31 23:05:06.2	189.790	0.320	-0.420	1.920
2020/01/31 23:05:06.3	189.780	0.400	-0.500	1.880
2020/01/31 23:05:06.4	189.760	0.470	-0.560	1.840
2020/01/31 23:05:06.5	189.760	0.540	-0.610	1.800
2020/01/31 23:05:06.6	189.750	0.600	-0.660	1.750
2020/01/31 23:05:06.7	189.750	0.660	-0.700	1.710
2020/01/31 23:05:06.8	189.740	0.710	-0.730	1.660
2020/01/31 23:05:06.9	189.740	0.760	-0.750	1.610
2020/01/31 23:05:07.0	189.750	0.800	-0.760	1.560
2020/01/31 23:05:07.1	189.760	0.830	-0.760	1.510
2020/01/31 23:05:07.2	189.770	0.860	-0.760	1.460
2020/01/31 23:05:07.3	189.780	0.870	-0.750	1.410
2020/01/31 23:05:07.4	189.790	0.890	-0.720	1.350
2020/01/31 23:05:07.5	189.800	0.890	-0.700	1.300
2020/01/31 23:05:07.6	189.820	0.890	-0.670	1.250
2020/01/31 23:05:07.7	189.830	0.880	-0.630	1.200
2020/01/31 23:05:07.8	189.850	0.860	-0.590	1.150
2020/01/31 23:05:07.9	189.870	0.840	-0.540	1.100
2020/01/31 23:05:08.0	189.890	0.810	-0.490	1.050
2020/01/31 23:05:08.1	189.910	0.770	-0.440	1.000
2020/01/31 23:05:08.2	189.930	0.730	-0.390	0.960
2020/01/31 23:05:08.3	189.950	0.680	-0.340	0.920
2020/01/31 23:05:08.4	189.970	0.630	-0.290	0.880
2020/01/31 23:05:08.5	189.990	0.570	-0.240	0.850
2020/01/31 23:05:08.6	190.010	0.510	-0.190	0.820
2020/01/31 23:05:08.7	190.030	0.450	-0.140	0.790
2020/01/31 23:05:08.8	190.050	0.390	-0.100	0.770
2020/01/31 23:05:08.9	190.070	0.320	-0.050	0.750
2020/01/31 23:05:09.0	190.090	0.250	-0.010	0.740
2020/01/31 23:05:09.1	190.130	0.180	0.020	0.730
2020/01/31 23:05:09.2	190.150	0.110	0.060	0.730
2020/01/31 23:05:09.3	190.170	0.040	0.090	0.730
2020/01/31 23:05:09.4	190.200	-0.030	0.110	0.730
2020/01/31 23:05:09.5	190.220	-0.100	0.130	0.740
2020/01/31 23:05:09.6	190.250	-0.160	0.150	0.750
2020/01/31 23:05:09.7	190.270	-0.230	0.170	0.770
2020/01/31 23:05:09.8	190.300	-0.290	0.180	0.780
2020/01/31 23:05:09.9	190.320	-0.340	0.190	0.800
2020/01/31 23:05:10.0	190.350	-0.400	0.190	0.820
2020/01/31 23:05:10.1	190.370	-0.450	0.180	0.850
2020/01/31 23:05:10.2	190.400	-0.490	0.180	0.870
2020/01/31 23:05:10.3	190.420	-0.530	0.170	0.890
2020/01/31 23:05:10.4	190.450	-0.570	0.160	0.920
2020/01/31 23:05:10.5	190.470	-0.600	0.140	0.940
2020/01/31 23:05:10.6	190.490	-0.620	0.120	0.970
2020/01/31 23:05:10.7	190.520	-0.640	0.100	0.990
2020/01/31 23:05:10.8	190.540	-0.660	0.070	1.020
2020/01/31 23:05:10.9	190.550	-0.670	0.040	1.040
2020/01/31 23:05:11.0	190.570	-0.670	0.000	1.070
2020/01/31 23:05:11.1	190.570	-0.660	-0.040	1.090
2020/01/31 23:05:11.2	190.580	-0.650	-0.080	1.120
2020/01/31 23:05:11.3	190.590	-0.630	-0.130	1.150
2020/01/31 23:05:11.4	190.590	-0.610	-0.190	1.180
2020/01/31 23:05:11.5	190.580	-0.580	-0.250	1.210
2020/01/31 23:05:11.6	190.580	-0.550	-0.310	1.250
2020/01/31 23:05:11.7	190.570	-0.510	-0.380	1.280
2020/01/31 23:05:11.8	190.550	-0.460	-0.440	1.310
2020/01/31 23:05:11.9	190.530	-0.410	-0.520	1.350
2020/01/31 23:05:12.0	190.510	-0.360	-0.590	1.390
2020/01/31 23:05:12.1	190.480	-0.300	-0.660	1.430
2020/01/31 23:05:12.2	190.450	-0.240	-0.730	1.470
2020/01/31 23:05:12.3	190.420	-0.180	-0.810	1.510
2020/01/31 23:05:12.4	190.380	-0.110	-0.880	1.550
2020/01/31 23:05:12.5	190.350	-0.050	-0.940	1.580
2020/01/31 23:05:12.6	190.310	0.020	-1.010	1.620
2020/01/31 23:05:12.7	190.270	0.080	-1.060	1.660
2020/01/31 23:05:12.8	190.230	0.150	-1.120	1.690
2020/01/31 23:05:12.9	190.190	0.210	-1.160	1.720
2020/01/31 23:05:13.0	190.160	0.270	-1.200	1.750
2020/01/31 23:05:13.1	190.130	0.330	-1.230	1.780
2020/01/31 23:05:13.2	190.090	0.380	-1.250	1.800
2020/01/31 23:05:13.3	190.060	0.430	-1.260	1.820
2020/01/31 23:05:13.4	190.040	0.470	-1.260	1.830
2020/01/31 23:05:13.5	190.010	0.510	-1.250	1.840
2020/01/31 23:05:13.6	189.990	0.540	-1.220	1.850
2020/01/31 23:05:13.7	189.970	0.560	-1.190	1.860
2020/01/31 23:05:13.8	189.960	0.580	-1.150	1.860
2020/01/31 23:05:13.9	189.950	0.600	-1.100	1.860
2020/01/31 23:05:14.0	189.950	0.600	-1.040	1.860
2020/01/31 23:05:14.1	189.950	0.600	-0.970	1.850
2020/01/31 23:05:14.2	189.960	0.590	-0.900	1.840
2020/01/31 23:05:14.3	189.970	0.580	-0.820	1.830
2020/01/31 23:05:14.4	189.980	0.560	-0.730	1.820
2020/01/31 23:05:14.5	189.990	0.530	-0.640	1.810
2020/01/31 23:05:14.6	190.010	0.500	-0.540	1.800
2020/01/31 23:05:14.7	190.030	0.460	-0.440	1.780
2020/01/31 23:05:14.8	190.060	0.420	-0.340	1.770
2020/01/31 23:05:14.9	190.080	0.370	-0.240	1.750
2020/01/31 23:05:15.0	190.110	0.320	-0.140	1.740
2020/01/31 23:05:15.1	190.130	0.270	-0.040	1.720
2020/01/31 23:05:15.2	190.160	0.220	0.050	1.710
2020/01/31 23:05:15.3	190.190	0.160	0.150	1.690
2020/01/31 23:05:15.4	190.220	0.100	0.230	1.680
2020/01/31 23:05:15.5	190.240	0.050	0.320	1.660
2020/01/31 23:05:15.6	190.270	-0.010	0.390	1.640
2020/01/31 23:05:15.7	190.300	-0.070	0.460	1.630
2020/01/31 23:05:15.8	190.320	-0.120	0.530	1.610
2020/01/31 23:05:15.9	190.340	-0.170	0.580	1.600
2020/01/31 23:05:16.0	190.360	-0.220	0.620	1.580
2020/01/31 23:05:16.1	190.380	-0.260	0.660	1.570
2020/01/31 23:05:16.2	190.390	-0.300	0.690	1.550
2020/01/31 23:05:16.3	190.410	-0.340	0.700	1.540
2020/01/31 23:05:16.4	190.420	-0.370	0.710	1.520
2020/01/31 23:05:16.5	190.420	-0.390	0.710	1.510
2020/01/31 23:05:16.6	190.430	-0.410	0.690	1.500
2020/01/31 23:05:16.7	190.430	-0.420	0.670	1.490
2020/01/31 23:05:16.8	190.430	-0.420	0.640	1.490
2020/01/31 23:05:16.9	190.430	-0.420	0.600	1.480
2020/01/31 23:05:17.0	190.430	-0.420	0.560	1.480
2020/01/31 23:05:17.1	190.420	-0.410	0.500	1.480
2020/01/31 23:05:17.2	190.410	-0.390	0.450	1.480
2020/01/31 23:05:17.3	190.400	-0.370	0.390	1.480
2020/01/31 23:05:17.4	190.390	-0.340	0.320	1.480
2020/01/31 23:05:17.5	190.380	-0.320	0.250	1.490
2020/01/31 23:05:17.6	190.370	-0.280	0.180	1.500
2020/01/31 23:05:17.7	190.360	-0.250	0.110	1.510
2020/01/31 23:05:17.8	190.350	-0.220	0.040	1.520
2020/01/31 23:05:17.9	190.330	-0.180	-0.030	1.530
2020/01/31 23:05:18.0	190.320	-0.140	-0.100	1.540
2020/01/31 23:05:18.1	190.310	-0.100	-0.170	1.550
2020/01/31 23:05:18.2	190.300	-0.070	-0.240	1.560
2020/01/31 23:05:18.3	190.300	-0.030	-0.300	1.570
2020/01/31 23:05:18.4	190.290	0.000	-0.360	1.570
2020/01/31 23:05:18.5	190.280	0.040	-0.420	1.580
2020/01/31 23:05:18.6	190.280	0.070	-0.470	1.590
2020/01/31 23:05:18.7	190.270	0.100	-0.520	1.590
2020/01/31 23:05:18.8	190.270	0.120	-0.560	1.590
2020/01/31 23:05:18.9	190.260	0.150	-0.600	1.600
2020/01/31 23:05:19.0	190.260	0.170	-0.640	1.600
2020/01/31 23:05:19.1	190.260	0.190	-0.660	1.600
2020/01/31 23:05:19.2	190.260	0.200	-0.690	1.600
2020/01/31 23:05:19.3	190.250	0.210	-0.710	1.600
2020/01/31 23:05:19.4	190.250	0.220	-0.730	1.600
2020/01/31 23:05:19.5	190.240	0.220	-0.750	1.600
2020/01/31 23:05:19.6	190.240	0.220	-0.760	1.600
2020/01/31 23:05:19.7	190.230	0.220	-0.760	1.600
2020/01/31 23:05:19.8	190.230	0.210	-0.770	1.610
2020/01/31 23:05:19.9	190.220	0.200	-0.770	1.610
2020/01/31 23:05:20.0	190.210	0.190	-0.760	1.610
2020/01/31 23:05:20.1	190.210	0.180	-0.760	1.620
2020/01/31 23:05:20.2	190.200	0.160	-0.760	1.620
2020/01/31 23:05:20.3	190.190	0.150	-0.750	1.630
2020/01/31 23:05:20.4	190.180	0.130	-0.730	1.640
2020/01/31 23:05:20.5	190.170	0.110	-0.720	1.640
2020/01/31 23:05:20.6	190.160	0.090	-0.700	1.650
2020/01/31 23:05:20.7	190.150	0.060	-0.680	1.660
2020/01/31 23:05:20.8	190.140	0.040	-0.660	1.670
2020/01/31 23:05:20.9	190.130	0.020	-0.630	1.670
2020/01/31 23:05:21.0	190.130	-0.000	-0.610	1.680
2020/01/31 23:05:21.1	190.120	-0.020	-0.570	1.690
2020/01/31 23:05:21.2	190.110	-0.040	-0.540	1.690
2020/01/31 23:05:21.3	190.110	-0.060	-0.510	1.700
2020/01/31 23:05:21.4	190.100	-0.080	-0.480	1.710
2020/01/31 23:05:21.5	190.100	-0.100	-0.440	1.710
2020/01/31 23:05:21.6	190.100	-0.120	-0.410	1.720
2020/01/31 23:05:21.7	190.090	-0.130	-0.370	1.720
2020/01/31 23:05:21.8	190.090	-0.140	-0.330	1.730
2020/01/31 23:05:21.9	190.090	-0.150	-0.300	1.740
2020/01/31 23:05:22.0	190.090	-0.160	-0.260	1.740
2020/01/31 23:05:22.1	190.090	-0.170	-0.230	1.750
2020/01/31 23:05:22.2	190.090	-0.170	-0.200	1.760
2020/01/31 23:05:22.3	190.090	-0.180	-0.170	1.760
2020/01/31 23:05:22.4	190.080	-0.180	-0.140	1.760
2020/01/31 23:05:22.5	190.080	-0.180	-0.110	1.760
2020/01/31 23:05:22.6	190.080	-0.170	-0.090	1.760
2020/01/31 23:05:22.7	190.080	-0.170	-0.070	1.760
2020/01/31 23:05:22.8	190.080	-0.160	-0.060	1.760
2020/01/31 23:05:22.9	190.080	-0.150	-0.040	1.750
2020/01/31 23:05:23.0	190.080	-0.140	-0.030	1.750
2020/01/31 23:05:23.1	190.070	-0.130	-0.020	1.730
2020/01/31 23:05:23.2	190.070	-0.120	-0.020	1.720
2020/01/31 23:05:23.3	190.060	-0.110	-0.020	1.710
2020/01/31 23:05:23.4	190.060	-0.090	-0.030	1.700
2020/01/31 23:05:23.5	190.050	-0.070	-0.030	1.680
2020/01/31 23:05:23.6	190.040	-0.060	-0.040	1.670
2020/01/31 23:05:23.7	190.040	-0.040	-0.050	1.650
2020/01/31 23:05:23.8	190.030	-0.020	-0.070	1.630
2020/01/31 23:05:23.9	190.020	-0.010	-0.080	1.610
2020/01/31 23:05:24.0	190.010	0.010	-0.100	1.590
2020/01/31 23:05:24.1	190.010	0.020	-0.110	1.580
2020/01/31 23:05:24.2	190.010	0.040	-0.130	1.550
2020/01/31 23:05:24.3	190.000	0.050	-0.150	1.530
2020/01/31 23:05:24.4	190.000	0.060	-0.170	1.510
2020/01/31 23:05:24.5	190.000	0.080	-0.180	1.480
2020/01/31 23:05:24.6	190.000	0.080	-0.200	1.460
2020/01/31 23:05:24.7	190.000	0.090	-0.210	1.430
2020/01/31 23:05:24.8	190.000	0.100	-0.220	1.400
2020/01/31 23:05:24.9	190.010	0.100	-0.230	1.380
2020/01/31 23:05:25.0	190.020	0.100	-0.240	1.350
2020/01/31 23:05:25.1	190.030	0.100	-0.240	1.320
2020/01/31 23:05:25.2	190.040	0.100	-0.240	1.300
2020/01/31 23:05:25.3	190.050	0.090	-0.240	1.270
2020/01/31 23:05:25.4	190.070	0.080	-0.240	1.240
2020/01/31 23:05:25.5	190.080	0.080	-0.230	1.220
2020/01/31 23:05:25.6	190.100	0.060	-0.220	1.190
2020/01/31 23:05:25.7	190.120	0.050	-0.210	1.170
2020/01/31 23:05:25.8	190.140	0.040	-0.200	1.140
2020/01/31 23:05:25.9	190.160	0.020	-0.180	1.120
2020/01/31 23:05:26.0	190.180	0.000	-0.160	1.100
2020/01/31 23:05:26.1	190.200	-0.020	-0.140	1.080
2020/01/31 23:05:26.2	190.220	-0.030	-0.130	1.060
2020/01/31 23:05:26.3	190.240	-0.050	-0.110	1.040
2020/01/31 23:05:26.4	190.260	-0.070	-0.090	1.030
2020/01/31 23:05:26.5	190.280	-0.090	-0.070	1.020
2020/01/31 23:05:26.6	190.300	-0.110	-0.060	1.010
2020/01/31 23:05:26.7	190.310	-0.130	-0.050	1.000
2020/01/31 23:05:26.8	190.330	-0.140	-0.040	0.990
2020/01/31 23:05:26.9	190.340	-0.160	-0.030	0.990
2020/01/31 23:05:27.0	190.350	-0.170	-0.030	0.990
2020/01/31 23:05:27.1	190.350	-0.180	-0.030	1.000
2020/01/31 23:05:27.2	190.350	-0.190	-0.040	1.000
2020/01/31 23:05:27.3	190.350	-0.190	-0.050	1.020
2020/01/31 23:05:27.4	190.340	-0.200	-0.060	1.030
2020/01/31 23:05:27.5	190.330	-0.200	-0.070	1.050
2020/01/31 23:05:27.6	190.320	-0.190	-0.090	1.070
2020/01/31 23:05:27.7	190.310	-0.190	-0.120	1.100
2020/01/31 23:05:27.8	190.290	-0.180	-0.150	1.130
2020/01/31 23:05:27.9	190.270	-0.160	-0.180	1.160
2020/01/31 23:05:28.0	190.250	-0.150	-0.210	1.190
2020/01/31 23:05:28.1	190.220	-0.130	-0.240	1.230
2020/01/31 23:05:28.2	190.190	-0.110	-0.280	1.260
2020/01/31 23:05:28.3	190.160	-0.090	-0.320	1.300
2020/01/31 23:05:28.4	190.130	-0.070	-0.360	1.340
2020/01/31 23:05:28.5	190.100	-0.040	-0.400	1.370
2020/01/31 23:05:28.6	190.080	-0.010	-0.430	1.410
2020/01/31 23:05:28.7	190.050	0.020	-0.470	1.440
2020/01/31 23:05:28.8	190.020	0.050	-0.500	1.470
2020/01/31 23:05:28.9	189.990	0.080	-0.540	1.500
2020/01/31 23:05:29.0	189.970	0.110	-0.560	1.530
2020/01/31 23:05:29.1	189.940	0.140	-0.590	1.560
2020/01/31 23:05:29.2	189.920	0.170	-0.610	1.580
2020/01/31 23:05:29.3	189.900	0.200	-0.620	1.590
2020/01/31 23:05:29.4	189.890	0.220	-0.630	1.610
2020/01/31 23:05:29.5	189.880	0.250	-0.640	1.610
2020/01/31 23:05:29.6	189.870	0.270	-0.630	1.620
2020/01/31 23:05:29.7	189.870	0.290	-0.620	1.620
2020/01/31 23:05:29.8	189.870	0.310	-0.610	1.610
2020/01/31 23:05:29.9	189.880	0.320	-0.590	1.610
2020/01/31 23:05:30.0	189.890	0.330	-0.560	1.590
2020/01/31 23:05:30.1	189.910	0.340	-0.530	1.580
2020/01/31 23:05:30.2	189.920	0.340	-0.490	1.560
2020/01/31 23:05:30.3	189.940	0.340	-0.450	1.540
2020/01/31 23:05:30.4	189.960	0.330	-0.410	1.520
2020/01/31 23:05:30.5	189.990	0.320	-0.360	1.490
2020/01/31 23:05:30.6	190.010	0.310	-0.310	1.470
2020/01/31 23:05:30.7	190.040	0.290	-0.260	1.450
2020/01/31 23:05:30.8	190.060	0.270	-0.210	1.430
2020/01/31 23:05:30.9	190.090	0.250	-0.150	1.410
2020/01/31 23:05:31.0	190.120	0.220	-0.100	1.390
2020/01/31 23:05:31.1	190.150	0.190	-0.050	1.370
2020/01/31 23:05:31.2	190.180	0.160	-0.010	1.360
2020/01/31 23:05:31.3	190.200	0.120	0.040	1.350
2020/01/31 23:05:31.4	190.230	0.080	0.080	1.340
2020/01/31 23:05:31.5	190.250	0.040	0.120	1.340
2020/01/31 23:05:31.6	190.270	-0.000	0.150	1.350
2020/01/31 23:05:31.7	190.290	-0.040	0.170	1.360
2020/01/31 23:05:31.8	190.310	-0.080	0.200	1.370
2020/01/31 23:05:31.9	190.320	-0.120	0.210	1.390
2020/01/31 23:05:32.0	190.330	-0.160	0.220	1.410
2020/01/31 23:05:32.1	190.330	-0.200	0.220	1.440
2020/01/31 23:05:32.2	190.330	-0.240	0.220	1.470
2020/01/31 23:05:32.3	190.330	-0.270	0.210	1.500
2020/01/31 23:05:32.4	190.330	-0.310	0.200	1.540
2020/01/31 23:05:32.5	190.320	-0.330	0.180	1.580
2020/01/31 23:05:32.6	190.310	-0.360	0.150	1.620
2020/01/31 23:05:32.7	190.300	-0.380	0.120	1.660
2020/01/31 23:05:32.8	190.290	-0.400	0.080	1.700
2020/01/31 23:05:32.9	190.270	-0.410	0.040	1.740
2020/01/31 23:05:33.0	190.260	-0.420	-0.000	1.790
2020/01/31 23:05:33.1	190.240	-0.420	-0.050	1.830
2020/01/31 23:05:33.2	190.220	-0.420	-0.100	1.870
2020/01/31 23:05:33.3	190.200	-0.420	-0.150	1.900
2020/01/31 23:05:33.4	190.180	-0.410	-0.200	1.940
2020/01/31 23:05:33.5	190.160	-0.400	-0.250	1.970
2020/01/31 23:05:33.6	190.140	-0.380	-0.290	2.000
2020/01/31 23:05:33.7	190.120	-0.360	-0.340	2.020
2020/01/31 23:05:33.8	190.100	-0.340	-0.390	2.050
2020/01/31 23:05:33.9	190.080	-0.310	-0.430	2.070
2020/01/31 23:05:34.0	190.060	-0.280	-0.460	2.080
2020/01/31 23:05:34.1	190.040	-0.250	-0.500	2.100
2020/01/31 23:05:34.2	190.020	-0.220	-0.530	2.110
2020/01/31 23:05:34.3	190.010	-0.190	-0.550	2.120
2020/01/31 23:05:34.4	189.990	-0.150	-0.580	2.120
2020/01/31 23:05:34.5	189.980	-0.110	-0.590	2.120
2020/01/31 23:05:34.6	189.970	-0.080	-0.610	2.120
2020/01/31 23:05:34.7	189.950	-0.040	-0.620	2.110
2020/01/31 23:05:34.8	189.940	0.000	-0.620	2.100
2020/01/31 23:05:34.9	189.940	0.040	-0.620	2.090
2020/01/31 23:05:35.0	189.930	0.070	-0.620	2.070
2020/01/31 23:05:35.1	189.920	0.110	-0.610	2.050
2020/01/31 23:05:35.2	189.920	0.140	-0.600	2.030
2020/01/31 23:05:35.3	189.920	0.180	-0.580	2.010
2020/01/31 23:05:35.4	189.910	0.210	-0.570	1.980
2020/01/31 23:05:35.5	189.910	0.240	-0.550	1.950
2020/01/31 23:05:35.6	189.910	0.270	-0.530	1.920
2020/01/31 23:05:35.7	189.910	0.290	-0.500	1.890
2020/01/31 23:05:35.8	189.910	0.320	-0.480	1.850
2020/01/31 23:05:35.9	189.910	0.340	-0.450	1.810
2020/01/31 23:05:36.0	189.910	0.360	-0.430	1.770
2020/01/31 23:05:36.1	189.920	0.380	-0.400	1.730
2020/01/31 23:05:36.2	189.930	0.390	-0.370	1.690
2020/01/31 23:05:36.3	189.930	0.400	-0.340	1.650
2020/01/31 23:05:36.4	189.940	0.410	-0.320	1.600
2020/01/31 23:05:36.5	189.940	0.420	-0.290	1.550
2020/01/31 23:05:36.6	189.950	0.430	-0.260	1.500
2020/01/31 23:05:36.7	189.960	0.430	-0.240	1.450
2020/01/31 23:05:36.8	189.960	0.440	-0.220	1.400
2020/01/31 23:05:36.9	189.970	0.440	-0.190	1.350
2020/01/31 23:05:37.0	189.980	0.430	-0.180	1.300
2020/01/31 23:05:37.1	189.990	0.430	-0.160	1.250
2020/01/31 23:05:37.2	189.990	0.430	-0.150	1.200
2020/01/31 23:05:37.3	190.000	0.420	-0.140	1.160
2020/01/31 23:05:37.4	190.000	0.410	-0.130	1.110
2020/01/31 23:05:37.5	190.010	0.400	-0.120	1.070
2020/01/31 23:05:37.6	190.010	0.390	-0.120	1.040
2020/01/31 23:05:37.7	190.010	0.380	-0.120	1.000
2020/01/31 23:05:37.8	190.010	0.360	-0.130	0.970
2020/01/31 23:05:37.9	190.010	0.350	-0.140	0.940
2020/01/31 23:05:38.0	190.010	0.330	-0.150	0.920
2020/01/31 23:05:38.1	190.010	0.310	-0.160	0.900
2020/01/31 23:05:38.2	190.000	0.300	-0.180	0.880
2020/01/31 23:05:38.3	190.000	0.280	-0.200	0.870
2020/01/31 23:05:38.4	189.990	0.250	-0.230	0.870
2020/01/31 23:05:38.5	189.990	0.230	-0.250	0.870
2020/01/31 23:05:38.6	189.980	0.210	-0.280	0.870
2020/01/31 23:05:38.7	189.970	0.180	-0.310	0.880
2020/01/31 23:05:38.8	189.960	0.160	-0.340	0.890
2020/01/31 23:05:38.9	189.950	0.130	-0.370	0.910
2020/01/31 23:05:39.0	189.940	0.110	-0.390	0.920
2020/01/31 23:05:39.1	189.940	0.080	-0.430	0.950
2020/01/31 23:05:39.2	189.940	0.050	-0.450	0.970
2020/01/31 23:05:39.3	189.930	0.020	-0.480	1.000
2020/01/31 23:05:39.4	189.920	-0.010	-0.510	1.030
2020/01/31 23:05:39.5	189.910	-0.040	-0.530	1.060
2020/01/31 23:05:39.6	189.910	-0.080	-0.550	1.100
2020/01/31 23:05:39.7	189.910	-0.110	-0.570	1.130
2020/01/31 23:05:39.8	189.900	-0.140	-0.580	1.170
2020/01/31 23:05:39.9	189.900	-0.170	-0.590	1.210
2020/01/31 23:05:40.0	189.900	-0.210	-0.600	1.250
2020/01/31 23:05:40.1	189.900	-0.240	-0.610	1.290
2020/01/31 23:05:40.2	189.900	-0.270	-0.610	1.330
2020/01/31 23:05:40.3	189.900	-0.300	-0.610	1.370
2020/01/31 23:05:40.4	189.910	-0.330	-0.600	1.420
2020/01/31 23:05:40.5	189.910	-0.360	-0.590	1.460
2020/01/31 23:05:40.6	189.910	-0.390	-0.580	1.500
2020/01/31 23:05:40.7	189.920	-0.420	-0.560	1.540
2020/01/31 23:05:40.8	189.920	-0.440	-0.540	1.580
2020/01/31 23:05:40.9	189.920	-0.470	-0.520	1.620
2020/01/31 23:05:41.0	189.930	-0.490	-0.490	1.660
2020/01/31 23:05:41.1	189.930	-0.500	-0.470	1.700
2020/01/31 23:05:41.2	189.940	-0.520	-0.440	1.740
2020/01/31 23:05:41.3	189.940	-0.530	-0.410	1.780
2020/01/31 23:05:41.4	189.940	-0.540	-0.380	1.810
2020/01/31 23:05:41.5	189.940	-0.550	-0.350	1.850
2020/01/31 23:05:41.6	189.940	-0.550	-0.320	1.880
2020/01/31 23:05:41.7	189.940	-0.550	-0.290	1.910
2020/01/31 23:05:41.8	189.940	-0.550	-0.260	1.940
2020/01/31 23:05:41.9	189.930	-0.540	-0.240	1.970
2020/01/31 23:05:42.0	189.930	-0.540	-0.210	1.990
2020/01/31 23:05:42.1	189.930	-0.530	-0.180	2.020
2020/01/31 23:05:42.2	189.930	-0.510	-0.160	2.040
2020/01/31 23:05:42.3	189.920	-0.490	-0.130	2.050
2020/01/31 23:05:42.4	189.920	-0.480	-0.110	2.070
2020/01/31 23:05:42.5	189.910	-0.450	-0.090	2.080
2020/01/31 23:05:42.6	189.910	-0.430	-0.080	2.090
2020/01/31 23:05:42.7	189.900	-0.400	-0.060	2.100
2020/01/31 23:05:42.8	189.900	-0.380	-0.040	2.100
2020/01/31 23:05:42.9	189.890	-0.350	-0.030	2.100
2020/01/31 23:05:43.0	189.880	-0.320	-0.020	2.100
2020/01/31 23:05:43.1	189.870	-0.290	-0.010	2.100
2020/01/31 23:05:43.2	189.860	-0.260	0.000	2.090
2020/01/31 23:05:43.3	189.860	-0.220	0.010	2.080
2020/01/31 23:05:43.4	189.850	-0.190	0.020	2.070
2020/01/31 23:05:43.5	189.850	-0.160	0.030	2.050
2020/01/31 23:05:43.6	189.840	-0.130	0.030	2.040
2020/01/31 23:05:43.7	189.840	-0.090	0.040	2.020
2020/01/31 23:05:43.8	189.840	-0.060	0.050	1.990
2020/01/31 23:05:43.9	189.840	-0.030	0.060	1.970
2020/01/31 23:05:44.0	189.840	-0.010	0.070	1.940
2020/01/31 23:05:44.1	189.840	0.020	0.090	1.910
2020/01/31 23:05:44.2	189.840	0.050	0.100	1.870
2020/01/31 23:05:44.3	189.840	0.070	0.120	1.840
2020/01/31 23:05:44.4	189.850	0.090	0.130	1.800
2020/01/31 23:05:44.5	189.860	0.110	0.150	1.760
2020/01/31 23:05:44.6	189.860	0.120	0.170	1.720
2020/01/31 23:05:44.7	189.870	0.140	0.190	1.670
2020/01/31 23:05:44.8	189.890	0.150	0.210	1.630
2020/01/31 23:05:44.9	189.900	0.160	0.230	1.580
2020/01/31 23:05:45.0	189.910	0.170	0.250	1.530
2020/01/31 23:05:45.1	189.930	0.170	0.270	1.480
2020/01/31 23:05:45.2	189.950	0.170	0.290	1.430
2020/01/31 23:05:45.3	189.960	0.180	0.300	1.380
2020/01/31 23:05:45.4	189.970	0.170	0.320	1.330
2020/01/31 23:05:45.5	189.980	0.170	0.330	1.280
2020/01/31 23:05:45.6	189.990	0.170	0.330	1.230
2020/01/31 23:05:45.7	190.000	0.160	0.340	1.190
2020/01/31 23:05:45.8	190.010	0.160	0.340	1.140
2020/01/31 23:05:45.9	190.020	0.150	0.330	1.100
2020/01/31 23:05:46.0	190.030	0.150	0.320	1.060
2020/01/31 23:05:46.1	190.030	0.140	0.300	1.020
2020/01/31 23:05:46.2	190.030	0.130	0.280	0.980
2020/01/31 23:05:46.3	190.030	0.130	0.250	0.950
2020/01/31 23:05:46.4	190.030	0.120	0.210	0.930
2020/01/31 23:05:46.5	190.030	0.120	0.170	0.910
2020/01/31 23:05:46.6	190.020	0.120	0.120	0.890
2020/01/31 23:05:46.7	190.020	0.120	0.070	0.880
2020/01/31 23:05:46.8	190.010	0.120	0.020	0.870
2020/01/31 23:05:46.9	190.000	0.120	-0.050	0.870
2020/01/31 23:05:47.0	189.990	0.120	-0.110	0.870
2020/01/31 23:05:47.1	189.970	0.130	-0.180	0.870
2020/01/31 23:05:47.2	189.960	0.130	-0.250	0.880
2020/01/31 23:05:47.3	189.950	0.140	-0.330	0.880
2020/01/31 23:05:47.4	189.930	0.150	-0.400	0.900
2020/01/31 23:05:47.5	189.920	0.160	-0.470	0.910
2020/01/31 23:05:47.6	189.910	0.170	-0.550	0.920
2020/01/31 23:05:47.7	189.890	0.180	-0.620	0.940
2020/01/31 23:05:47.8	189.880	0.190	-0.690	0.960
2020/01/31 23:05:47.9	189.870	0.210	-0.750	0.970
2020/01/31 23:05:48.0	189.860	0.220	-0.810	0.990
2020/01/31 23:05:48.1	189.850	0.230	-0.870	1.010
2020/01/31 23:05:48.2	189.840	0.240	-0.930	1.030
2020/01/31 23:05:48.3	189.840	0.250	-0.970	1.050
2020/01/31 23:05:48.4	189.830	0.260	-1.020	1.070
2020/01/31 23:05:48.5	189.830	0.270	-1.050	1.090
2020/01/31 23:05:48.6	189.830	0.280	-1.080	1.110
2020/01/31 23:05:48.7	189.830	0.290	-1.110	1.130
2020/01/31 23:05:48.8	189.840	0.290	-1.120	1.150
2020/01/31 23:05:48.9	189.840	0.290	-1.130	1.170
2020/01/31 23:05:49.0	189.850	0.290	-1.140	1.190
2020/01/31 23:05:49.1	189.860	0.290	-1.140	1.220
2020/01/31 23:05:49.2	189.870	0.280	-1.130	1.240
2020/01/31 23:05:49.3	189.890	0.270	-1.110	1.260
2020/01/31 23:05:49.4	189.900	0.260	-1.090	1.280
2020/01/31 23:05:49.5	189.920	0.250	-1.060	1.300
2020/01/31 23:05:49.6	189.930	0.230	-1.030	1.320
2020/01/31 23:05:49.7	189.950	0.210	-0.990	1.340
2020/01/31 23:05:49.8	189.970	0.190	-0.950	1.360
2020/01/31 23:05:49.9	189.980	0.170	-0.900	1.380
2020/01/31 23:05:50.0	190.000	0.150	-0.860	1.410
2020/01/31 23:05:50.1	190.020	0.120	-0.810	1.430
2020/01/31 23:05:50.2	190.030	0.100	-0.760	1.450
2020/01/31 23:05:50.3	190.040	0.070	-0.700	1.470
2020/01/31 23:05:50.4	190.050	0.040	-0.650	1.500
2020/01/31 23:05:50.5	190.060	0.020	-0.600	1.520
2020/01/31 23:05:50.6	190.070	-0.010	-0.550	1.550
2020/01/31 23:05:50.7	190.070	-0.040	-0.500	1.570
2020/01/31 23:05:50.8	190.070	-0.060	-0.450	1.600
2020/01/31 23:05:50.9	190.070	-0.080	-0.400	1.620
2020/01/31 23:05:51.0	190.060	-0.100	-0.360	1.650
2020/01/31 23:05:51.1	190.060	-0.120	-0.320	1.670
2020/01/31 23:05:51.2	190.050	-0.140	-0.280	1.700
2020/01/31 23:05:51.3	190.040	-0.160	-0.250	1.730
2020/01/31 23:05:51.4	190.030	-0.170	-0.210	1.750
2020/01/31 23:05:51.5	190.020	-0.180	-0.190	1.770
2020/01/31 23:05:51.6	190.000	-0.190	-0.160	1.790
2020/01/31 23:05:51.7	189.990	-0.200	-0.140	1.810
2020/01/31 23:05:51.8	189.970	-0.200	-0.120	1.830
2020/01/31 23:05:51.9	189.960	-0.200	-0.100	1.840
2020/01/31 23:05:52.0	189.950	-0.200	-0.080	1.860
2020/01/31 23:05:52.1	189.940	-0.200	-0.070	1.870
2020/01/31 23:05:52.2	189.930	-0.200	-0.050	1.870
2020/01/31 23:05:52.3	189.920	-0.200	-0.040	1.880
2020/01/31 23:05:52.4	189.910	-0.200	-0.030	1.890
2020/01/31 23:05:52.5	189.910	-0.190	-0.020	1.890
2020/01/31 23:05:52.6	189.900	-0.190	-0.010	1.900
2020/01/31 23:05:52.7	189.900	-0.180	0.010	1.900
2020/01/31 23:05:52.8	189.900	-0.170	0.020	1.900
2020/01/31 23:05:52.9	189.900	-0.170	0.030	1.900
2020/01/31 23:05:53.0	189.900	-0.160	0.050	1.890
2020/01/31 23:05:53.1	189.900	-0.160	0.060	1.890
2020/01/31 23:05:53.2	189.910	-0.150	0.070	1.880
2020/01/31 23:05:53.3	189.920	-0.150	0.090	1.870
2020/01/31 23:05:53.4	189.930	-0.150	0.100	1.860
2020/01/31 23:05:53.5	189.940	-0.150	0.120	1.840
2020/01/31 23:05:53.6	189.950	-0.140	0.140	1.830
2020/01/31 23:05:53.7	189.970	-0.140	0.160	1.810
2020/01/31 23:05:53.8	189.990	-0.150	0.170	1.790
2020/01/31 23:05:53.9	190.010	-0.150	0.190	1.760
2020/01/31 23:05:54.0	190.030	-0.150	0.210	1.740
2020/01/31 23:05:54.1	190.060	-0.160	0.220	1.710
2020/01/31 23:05:54.2	190.090	-0.160	0.240	1.680
2020/01/31 23:05:54.3	190.110	-0.170	0.250	1.660
2020/01/31 23:05:54.4	190.140	-0.180	0.270	1.630
2020/01/31 23:05:54.5	190.170	-0.190	0.280	1.600
2020/01/31 23:05:54.6	190.200	-0.190	0.290	1.570
2020/01/31 23:05:54.7	190.230	-0.200	0.290	1.530
2020/01/31 23:05:54.8	190.250	-0.210	0.290	1.500
2020/01/31 23:05:54.9	190.280	-0.220	0.290	1.470
2020/01/31 23:05:55.0	190.310	-0.230	0.290	1.440
2020/01/31 23:05:55.1	190.330	-0.240	0.280	1.420
2020/01/31 23:05:55.2	190.350	-0.250	0.270	1.390
2020/01/31 23:05:55.3	190.370	-0.250	0.260	1.370
2020/01/31 23:05:55.4	190.390	-0.260	0.240	1.350
2020/01/31 23:05:55.5	190.410	-0.260	0.220	1.330
2020/01/31 23:05:55.6	190.420	-0.260	0.200	1.320
2020/01/31 23:05:55.7	190.430	-0.260	0.170	1.310
2020/01/31 23:05:55.8	190.430	-0.260	0.140	1.300
2020/01/31 23:05:55.9	190.440	-0.260	0.110	1.300
2020/01/31 23:05:56.0	190.440	-0.250	0.070	1.290
2020/01/31 23:05:56.1	190.440	-0.250	0.030	1.300
2020/01/31 23:05:56.2	190.430	-0.230	-0.010	1.300
2020/01/31 23:05:56.3	190.420	-0.220	-0.050	1.310
2020/01/31 23:05:56.4	190.410	-0.200	-0.090	1.320
2020/01/31 23:05:56.5	190.400	-0.180	-0.130	1.340
2020/01/31 23:05:56.6	190.380	-0.160	-0.180	1.350
2020/01/31 23:05:56.7	190.360	-0.140	-0.220	1.370
2020/01/31 23:05:56.8	190.340	-0.110	-0.270	1.390
2020/01/31 23:05:56.9	190.310	-0.080	-0.320	1.400
2020/01/31 23:05:57.0	190.290	-0.050	-0.360	1.420
2020/01/31 23:05:57.1	190.270	-0.010	-0.410	1.440
2020/01/31 23:05:57.2	190.250	0.020	-0.450	1.460
2020/01/31 23:05:57.3	190.220	0.060	-0.490	1.470
2020/01/31 23:05:57.4	190.200	0.100	-0.530	1.480
2020/01/31 23:05:57.5	190.170	0.130	-0.570	1.490
2020/01/31 23:05:57.6	190.150	0.170	-0.600	1.500
2020/01/31 23:05:57.7	190.130	0.210	-0.630	1.500
2020/01/31 23:05:57.8	190.110	0.250	-0.660	1.500
2020/01/31 23:05:57.9	190.090	0.290	-0.680	1.500
2020/01/31 23:05:58.0	190.070	0.320	-0.700	1.490
2020/01/31 23:05:58.1	190.060	0.350	-0.720	1.480
2020/01/31 23:05:58.2	190.050	0.380	-0.730	1.470
2020/01/31 23:05:58.3	190.040	0.410	-0.730	1.460
2020/01/31 23:05:58.4	190.030	0.430	-0.730	1.450
2020/01/31 23:05:58.5	190.030	0.450	-0.730	1.430
2020/01/31 23:05:58.6	190.030	0.470	-0.720	1.420
2020/01/31 23:05:58.7	190.030	0.480	-0.710	1.400
2020/01/31 23:05:58.8	190.040	0.490	-0.690	1.380
2020/01/31 23:05:58.9	190.050	0.500	-0.670	1.360
2020/01/31 23:05:59.0	190.060	0.500	-0.650	1.340
2020/01/31 23:05:59.1	190.080	0.500	-0.620	1.330
2020/01/31 23:05:59.2	190.090	0.490	-0.590	1.310
2020/01/31 23:05:59.3	190.110	0.480	-0.560	1.280
2020/01/31 23:05:59.4	190.120	0.460	-0.530	1.260
2020/01/31 23:05:59.5	190.140	0.440	-0.500	1.240
2020/01/31 23:05:59.6	190.160	0.420	-0.460	1.230
2020/01/31 23:05:59.7	190.180	0.390	-0.430	1.210
2020/01/31 23:05:59.8	190.190	0.360	-0.400	1.190
2020/01/31 23:05:59.9	190.210	0.330	-0.380	1.180
2020/01/31 23:06:00.0	190.230	0.290	-0.350	1.160
2020/01/31 23:06:00.1	190.250	0.260	-0.330	1.150
2020/01/31 23:06:00.2	190.260	0.220	-0.310	1.140
2020/01/31 23:06:00.3	190.280	0.180	-0.290	1.130
2020/01/31 23:06:00.4	190.290	0.140	-0.280	1.120
2020/01/31 23:06:00.5	190.300	0.090	-0.270	1.120
2020/01/31 23:06:00.6	190.310	0.050	-0.260	1.110
2020/01/31 23:06:00.7	190.320	0.010	-0.260	1.110
2020/01/31 23:06:00.8	190.320	-0.030	-0.260	1.120
2020/01/31 23:06:00.9	190.330	-0.070	-0.270	1.120
2020/01/31 23:06:01.0	190.330	-0.100	-0.280	1.130
2020/01/31 23:06:01.1	190.340	-0.140	-0.280	1.140
2020/01/31 23:06:01.2	190.340	-0.170	-0.300	1.160
2020/01/31 23:06:01.3	190.340	-0.200	-0.310	1.180
2020/01/31 23:06:01.4	190.340	-0.230	-0.330	1.200
2020/01/31 23:06:01.5	190.330	-0.250	-0.350	1.220
2020/01/31 23:06:01.6	190.330	-0.270	-0.370	1.240
2020/01/31 23:06:01.7	190.320	-0.290	-0.390	1.270
2020/01/31 23:06:01.8	190.310	-0.300	-0.410	1.300
2020/01/31 23:06:01.9	190.300	-0.310	-0.430	1.340
2020/01/31 23:06:02.0	190.290	-0.310	-0.450	1.370
2020/01/31 23:06:02.1	190.290	-0.320	-0.470	1.410
2020/01/31 23:06:02.2	190.280	-0.310	-0.480	1.440
2020/01/31 23:06:02.3	190.270	-0.310	-0.490	1.480
2020/01/31 23:06:02.4	190.260	-0.300	-0.500	1.510
2020/01/31 23:06:02.5	190.250	-0.290	-0.500	1.550
2020/01/31 23:06:02.6	190.240	-0.280	-0.500	1.580
2020/01/31 23:06:02.7	190.240	-0.260	-0.500	1.610
2020/01/31 23:06:02.8	190.230	-0.240	-0.490	1.630
2020/01/31 23:06:02.9	190.230	-0.220	-0.470	1.660
2020/01/31 23:06:03.0	190.220	-0.200	-0.450	1.680
2020/01/31 23:06:03.1	190.220	-0.180	-0.430	1.700
2020/01/31 23:06:03.2	190.220	-0.160	-0.400	1.710
2020/01/31 23:06:03.3	190.220	-0.130	-0.370	1.720
2020/01/31 23:06:03.4	190.230	-0.110	-0.330	1.730
2020/01/31 23:06:03.5	190.240	-0.090	-0.290	1.730
2020/01/31 23:06:03.6	190.250	-0.070	-0.250	1.730
2020/01/31 23:06:03.7	190.260	-0.050	-0.200	1.720
2020/01/31 23:06:03.8	190.280	-0.030	-0.160	1.710
2020/01/31 23:06:03.9	190.290	-0.010	-0.110	1.700
2020/01/31 23:06:04.0	190.310	0.000	-0.060	1.690
2020/01/31 23:06:04.1	190.320	0.020	-0.010	1.670
2020/01/31 23:06:04.2	190.340	0.030	0.030	1.650
2020/01/31 23:06:04.3	190.360	0.040	0.080	1.630
2020/01/31 23:06:04.4	190.380	0.050	0.120	1.600
2020/01/31 23:06:04.5	190.400	0.060	0.160	1.580
2020/01/31 23:06:04.6	190.420	0.060	0.200	1.560
2020/01/31 23:06:04.7	190.440	0.060	0.230	1.530
2020/01/31 23:06:04.8	190.460	0.060	0.260	1.510
2020/01/31 23:06:04.9	190.470	0.060	0.280	1.490
2020/01/31 23:06:05.0	190.490	0.060	0.300	1.480
2020/01/31 23:06:05.1	190.490	0.060	0.310	1.460
2020/01/31 23:06:05.2	190.500	0.060	0.310	1.450
2020/01/31 23:06:05.3	190.500	0.050	0.310	1.440
2020/01/31 23:06:05.4	190.510	0.050	0.300	1.430
2020/01/31 23:06:05.5	190.500	0.050	0.280	1.430
2020/01/31 23:06:05.6	190.500	0.040	0.260	1.430
2020/01/31 23:06:05.7	190.490	0.040	0.230	1.440
2020/01/31 23:06:05.8	190.480	0.030	0.200	1.440
2020/01/31 23:06:05.9	190.470	0.030	0.160	1.450
2020/01/31 23:06:06.0	190.450	0.020	0.110	1.470
2020/01/31 23:06:06.1	190.440	0.020	0.070	1.480
2020/01/31 23:06:06.2	190.420	0.020	0.020	1.500
2020/01/31 23:06:06.3	190.400	0.020	-0.040	1.520
2020/01/31 23:06:06.4	190.380	0.010	-0.090	1.540
2020/01/31 23:06:06.5	190.360	0.010	-0.140	1.560
2020/01/31 23:06:06.6	190.340	0.010	-0.200	1.590
2020/01/31 23:06:06.7	190.320	0.010	-0.250	1.610
2020/01/31 23:06:06.8	190.300	0.010	-0.300	1.640
2020/01/31 23:06:06.9	190.280	0.010	-0.350	1.660
2020/01/31 23:06:07.0	190.260	0.010	-0.400	1.690
2020/01/31 23:06:07.1	190.240	0.010	-0.440	1.710
2020/01/31 23:06:07.2	190.220	0.010	-0.480	1.740
2020/01/31 23:06:07.3	190.200	0.010	-0.510	1.760
2020/01/31 23:06:07.4	190.190	0.010	-0.540	1.790
2020/01/31 23:06:07.5	190.170	0.010	-0.570	1.810
2020/01/31 23:06:07.6	190.150	0.000	-0.590	1.830
2020/01/31 23:06:07.7	190.140	0.000	-0.610	1.850
2020/01/31 23:06:07.8	190.130	0.000	-0.620	1.870
2020/01/31 23:06:07.9	190.110	-0.000	-0.630	1.890
2020/01/31 23:06:08.0	190.100	-0.000	-0.630	1.900
2020/01/31 23:06:08.1	190.090	-0.010	-0.630	1.910
2020/01/31 23:06:08.2	190.080	-0.010	-0.630	1.920
2020/01/31 23:06:08.3	190.060	-0.010	-0.620	1.930
2020/01/31 23:06:08.4	190.050	-0.020	-0.620	1.940
2020/01/31 23:06:08.5	190.030	-0.020	-0.600	1.950
2020/01/31 23:06:08.6	190.020	-0.030	-0.590	1.950
2020/01/31 23:06:08.7	190.010	-0.030	-0.580	1.960
2020/01/31 23:06:08.8	189.990	-0.040	-0.560	1.960
2020/01/31 23:06:08.9	189.980	-0.050	-0.540	1.960
2020/01/31 23:06:09.0	189.960	-0.050	-0.530	1.960
2020/01/31 23:06:09.1	189.950	-0.060	-0.510	1.950
2020/01/31 23:06:09.2	189.940	-0.070	-0.490	1.950
2020/01/31 23:06:09.3	189.930	-0.080	-0.480	1.940
2020/01/31 23:06:09.4	189.920	-0.080	-0.460	1.930
2020/01/31 23:06:09.5	189.910	-0.090	-0.440	1.920
2020/01/31 23:06:09.6	189.910	-0.100	-0.420	1.910
2020/01/31 23:06:09.7	189.900	-0.110	-0.410	1.900
2020/01/31 23:06:09.8	189.900	-0.120	-0.390	1.890
2020/01/31 23:06:09.9	189.890	-0.120	-0.380	1.870
2020/01/31 23:06:10.0	189.890	-0.130	-0.360	1.860
2020/01/31 23:06:10.1	189.900	-0.140	-0.350	1.840
2020/01/31 23:06:10.2	189.900	-0.140	-0.340	1.820
2020/01/31 23:06:10.3	189.900	-0.140	-0.330	1.800
2020/01/31 23:06:10.4	189.910	-0.150	-0.330	1.780
2020/01/31 23:06:10.5	189.910	-0.150	-0.320	1.760
2020/01/31 23:06:10.6	189.920	-0.150	-0.320	1.740
2020/01/31 23:06:10.7	189.930	-0.150	-0.320	1.710
2020/01/31 23:06:10.8	189.930	-0.150	-0.310	1.680
2020/01/31 23:06:10.9	189.950	-0.150	-0.310	1.650
2020/01/31 23:06:11.0	189.960	-0.140	-0.310	1.620
2020/01/31 23:06:11.1	189.970	-0.140	-0.320	1.590
2020/01/31 23:06:11.2	189.990	-0.130	-0.320	1.560
2020/01/31 23:06:11.3	190.010	-0.130	-0.320	1.520
2020/01/31 23:06:11.4	190.030	-0.120	-0.310	1.480
2020/01/31 23:06:11.5	190.050	-0.110	-0.310	1.440
2020/01/31 23:06:11.6	190.070	-0.100	-0.310	1.400
2020/01/31 23:06:11.7	190.090	-0.100	-0.300	1.360
2020/01/31 23:06:11.8	190.120	-0.090	-0.290	1.320
2020/01/31 23:06:11.9	190.140	-0.080	-0.280	1.280
2020/01/31 23:06:12.0	190.170	-0.070	-0.270	1.250
2020/01/31 23:06:12.1	190.190	-0.060	-0.260	1.210
2020/01/31 23:06:12.2	190.220	-0.060	-0.240	1.170
2020/01/31 23:06:12.3	190.240	-0.050	-0.230	1.140
2020/01/31 23:06:12.4	190.270	-0.040	-0.210	1.110
2020/01/31 23:06:12.5	190.300	-0.040	-0.190	1.080
2020/01/31 23:06:12.6	190.320	-0.030	-0.170	1.060
2020/01/31 23:06:12.7	190.350	-0.030	-0.150	1.030
2020/01/31 23:06:12.8	190.370	-0.020	-0.130	1.020
2020/01/31 23:06:12.9	190.390	-0.020	-0.110	1.000
2020/01/31 23:06:13.0	190.420	-0.020	-0.090	0.990
2020/01/31 23:06:13.1	190.430	-0.010	-0.070	0.990
2020/01/31 23:06:13.2	190.450	-0.010	-0.050	0.990
2020/01/31 23:06:13.3	190.470	-0.010	-0.040	0.990
2020/01/31 23:06:13.4	190.480	-0.010	-0.020	0.990
2020/01/31 23:06:13.5	190.490	-0.000	-0.010	1.000
2020/01/31 23:06:13.6	190.490	-0.000	0.000	1.010
2020/01/31 23:06:13.7	190.500	0.000	0.010	1.020
2020/01/31 23:06:13.8	190.500	0.010	0.020	1.040
2020/01/31 23:06:13.9	190.500	0.010	0.020	1.050
2020/01/31 23:06:14.0	190.490	0.020	0.020	1.070
2020/01/31 23:06:14.1	190.480	0.020	0.030	1.090
2020/01/31 23:06:14.2	190.470	0.030	0.020	1.100
2020/01/31 23:06:14.3	190.460	0.030	0.020	1.120
2020/01/31 23:06:14.4	190.450	0.040	0.010	1.140
2020/01/31 23:06:14.5	190.440	0.040	0.010	1.150
2020/01/31 23:06:14.6	190.420	0.050	-0.000	1.170
2020/01/31 23:06:14.7	190.410	0.060	-0.010	1.180
2020/01/31 23:06:14.8	190.400	0.060	-0.020	1.200
2020/01/31 23:06:14.9	190.380	0.070	-0.030	1.210
2020/01/31 23:06:15.0	190.360	0.070	-0.050	1.230
2020/01/31 23:06:15.1	190.350	0.080	-0.060	1.240
2020/01/31 23:06:15.2	190.330	0.080	-0.080	1.260
2020/01/31 23:06:15.3	190.310	0.090	-0.090	1.280
2020/01/31 23:06:15.4	190.300	0.090	-0.110	1.300
2020/01/31 23:06:15.5	190.280	0.090	-0.120	1.320
2020/01/31 23:06:15.6	190.270	0.100	-0.140	1.340
2020/01/31 23:06:15.7	190.250	0.100	-0.150	1.370
2020/01/31 23:06:15.8	190.240	0.100	-0.170	1.400
2020/01/31 23:06:15.9	190.220	0.090	-0.180	1.430
2020/01/31 23:06:16.0	190.210	0.090	-0.190	1.460
2020/01/31 23:06:16.1	190.190	0.090	-0.200	1.490
2020/01/31 23:06:16.2	190.170	0.090	-0.210	1.520
2020/01/31 23:06:16.3	190.160	0.080	-0.220	1.560
2020/01/31 23:06:16.4	190.150	0.080	-0.230	1.590
2020/01/31 23:06:16.5	190.140	0.070	-0.240	1.630
2020/01/31 23:06:16.6	190.130	0.060	-0.250	1.670
2020/01/31 23:06:16.7	190.120	0.050	-0.250	1.700
2020/01/31 23:06:16.8	190.110	0.050	-0.250	1.730
2020/01/31 23:06:16.9	190.100	0.040	-0.260	1.760
2020/01/31 23:06:17.0	190.100	0.030	-0.260	1.790
2020/01/31 23:06:17.1	190.100	0.020	-0.260	1.820
2020/01/31 23:06:17.2	190.100	0.010	-0.260	1.840
2020/01/31 23:06:17.3	190.100	-0.010	-0.250	1.860
2020/01/31 23:06:17.4	190.110	-0.020	-0.240	1.880
2020/01/31 23:06:17.5	190.110	-0.030	-0.230	1.890
2020/01/31 23:06:17.6	190.120	-0.040	-0.220	1.900
2020/01/31 23:06:17.7	190.120	-0.050	-0.210	1.910
2020/01/31 23:06:17.8	190.130	-0.060	-0.200	1.910
2020/01/31 23:06:17.9	190.140	-0.070	-0.190	1.910
2020/01/31 23:06:18.0	190.150	-0.080	-0.180	1.910
2020/01/31 23:06:18.1	190.160	-0.090	-0.150	1.900
2020/01/31 23:06:18.2	190.170	-0.100	-0.140	1.900
2020/01/31 23:06:18.3	190.170	-0.100	-0.130	1.890
2020/01/31 23:06:18.4	190.180	-0.110	-0.120	1.890
2020/01/31 23:06:18.5	190.190	-0.110	-0.110	1.880
2020/01/31 23:06:18.6	190.200	-0.110	-0.100	1.870
2020/01/31 23:06:18.7	190.200	-0.110	-0.100	1.860
2020/01/31 23:06:18.8	190.210	-0.100	-0.100	1.850
2020/01/31 23:06:18.9	190.210	-0.090	-0.100	1.840
2020/01/31 23:06:19.0	190.210	-0.080	-0.100	1.820
2020/01/31 23:06:19.1	190.210	-0.070	-0.120	1.810
2020/01/31 23:06:19.2	190.210	-0.060	-0.130	1.800
2020/01/31 23:06:19.3	190.210	-0.040	-0.140	1.780
2020/01/31 23:06:19.4	190.200	-0.020	-0.160	1.770
2020/01/31 23:06:19.5	190.200	0.010	-0.180	1.750
2020/01/31 23:06:19.6	190.200	0.030	-0.200	1.740
2020/01/31 23:06:19.7	190.200	0.060	-0.230	1.720
2020/01/31 23:06:19.8	190.190	0.090	-0.260	1.710
2020/01/31 23:06:19.9	190.180	0.130	-0.290	1.690
2020/01/31 23:06:20.0	190.180	0.160	-0.320	1.670
2020/01/31 23:06:20.1	190.180	0.200	-0.350	1.650
2020/01/31 23:06:20.2	190.170	0.240	-0.390	1.630
2020/01/31 23:06:20.3	190.160	0.280	-0.420	1.610
2020/01/31 23:06:20.4	190.140	0.310	-0.460	1.600
2020/01/31 23:06:20.5	190.130	0.350	-0.500	1.580
2020/01/31 23:06:20.6	190.110	0.390	-0.540	1.570
2020/01/31 23:06:20.7	190.100	0.430	-0.580	1.560
2020/01/31 23:06:20.8	190.080	0.460	-0.620	1.540
2020/01/31 23:06:20.9	190.060	0.490	-0.650	1.530
2020/01/31 23:06:21.0	190.040	0.520	-0.690	1.520
2020/01/31 23:06:21.1	190.030	0.550	-0.720	1.510
2020/01/31 23:06:21.2	190.010	0.570	-0.750	1.510
2020/01/31 23:06:21.3	189.990	0.590	-0.770	1.510
2020/01/31 23:06:21.4	189.970	0.600	-0.790	1.500
2020/01/31 23:06:21.5	189.950	0.610	-0.810	1.500
2020/01/31 23:06:21.6	189.930	0.610	-0.820	1.510
2020/01/31 23:06:21.7	189.910	0.610	-0.830	1.510
2020/01/31 23:06:21.8	189.900	0.600	-0.840	1.520
2020/01/31 23:06:21.9	189.880	0.590	-0.840	1.520
2020/01/31 23:06:22.0	189.870	0.570	-0.830	1.530
2020/01/31 23:06:22.1	189.860	0.540	-0.820	1.540
2020/01/31 23:06:22.2	189.850	0.510	-0.810	1.550
2020/01/31 23:06:22.3	189.840	0.470	-0.790	1.570
2020/01/31 23:06:22.4	189.830	0.430	-0.770	1.580
2020/01/31 23:06:22.5	189.820	0.380	-0.750	1.600
2020/01/31 23:06:22.6	189.820	0.330	-0.720	1.620
2020/01/31 23:06:22.7	189.820	0.270	-0.690	1.630
2020/01/31 23:06:22.8	189.820	0.210	-0.650	1.650
2020/01/31 23:06:22.9	189.820	0.140	-0.610	1.670
2020/01/31 23:06:23.0	189.820	0.080	-0.580	1.700
2020/01/31 23:06:23.1	189.830	0.000	-0.540	1.720
2020/01/31 23:06:23.2	189.830	-0.070	-0.500	1.740
2020/01/31 23:06:23.3	189.840	-0.140	-0.450	1.770
2020/01/31 23:06:23.4	189.850	-0.220	-0.410	1.790
2020/01/31 23:06:23.5	189.870	-0.300	-0.370	1.820
2020/01/31 23:06:23.6	189.880	-0.370	-0.320	1.840
2020/01/31 23:06:23.7	189.900	-0.450	-0.280	1.870
2020/01/31 23:06:23.8	189.920	-0.520	-0.230	1.900
2020/01/31 23:06:23.9	189.930	-0.590	-0.190	1.920
2020/01/31 23:06:24.0	189.960	-0.660	-0.150	1.950
2020/01/31 23:06:24.1	189.970	-0.730	-0.110	1.970
2020/01/31 23:06:24.2	189.990	-0.790	-0.070	1.990
2020/01/31 23:06:24.3	190.010	-0.850	-0.030	2.020
2020/01/31 23:06:24.4	190.040	-0.900	0.000	2.040
2020/01/31 23:06:24.5	190.060	-0.950	0.040	2.060
2020/01/31 23:06:24.6	190.080	-0.990	0.070	2.080
2020/01/31 23:06:24.7	190.110	-1.020	0.090	2.090
2020/01/31 23:06:24.8	190.130	-1.050	0.120	2.110
2020/01/31 23:06:24.9	190.150	-1.080	0.140	2.120
2020/01/31 23:06:25.0	190.170	-1.090	0.150	2.130
2020/01/31 23:06:25.1	190.190	-1.100	0.170	2.130
2020/01/31 23:06:25.2	190.210	-1.100	0.180	2.140
2020/01/31 23:06:25.3	190.230	-1.090	0.180	2.140
2020/01/31 23:06:25.4	190.250	-1.080	0.180	2.130
2020/01/31 23:06:25.5	190.260	-1.050	0.180	2.120
2020/01/31 23:06:25.6	190.280	-1.030	0.170	2.110
2020/01/31 23:06:25.7	190.300	-0.990	0.160	2.100
2020/01/31 23:06:25.8	190.310	-0.950	0.150	2.080
2020/01/31 23:06:25.9	190.330	-0.900	0.130	2.050
2020/01/31 23:06:26.0	190.340	-0.850	0.110	2.030
2020/01/31 23:06:26.1	190.350	-0.790	0.080	1.990
2020/01/31 23:06:26.2	190.360	-0.720	0.050	1.960
2020/01/31 23:06:26.3	190.370	-0.650	0.020	1.920
2020/01/31 23:06:26.4	190.380	-0.580	-0.010	1.880
2020/01/31 23:06:26.5	190.390	-0.500	-0.040	1.840
2020/01/31 23:06:26.6	190.390	-0.430	-0.080	1.800
2020/01/31 23:06:26.7	190.400	-0.340	-0.120	1.750
2020/01/31 23:06:26.8	190.400	-0.260	-0.160	1.710
2020/01/31 23:06:26.9	190.400	-0.180	-0.200	1.660
2020/01/31 23:06:27.0	190.400	-0.090	-0.240	1.610
2020/01/31 23:06:27.1	190.400	-0.010	-0.280	1.560
2020/01/31 23:06:27.2	190.400	0.070	-0.320	1.510
2020/01/31 23:06:27.3	190.400	0.160	-0.360	1.470
2020/01/31 23:06:27.4	190.390	0.240	-0.400	1.420
2020/01/31 23:06:27.5	190.380	0.310	-0.430	1.370
2020/01/31 23:06:27.6	190.380	0.390	-0.460	1.330
2020/01/31 23:06:27.7	190.370	0.460	-0.500	1.280
2020/01/31 23:06:27.8	190.360	0.520	-0.520	1.240
2020/01/31 23:06:27.9	190.350	0.580	-0.550	1.200
2020/01/31 23:06:28.0	190.340	0.640	-0.570	1.150
2020/01/31 23:06:28.1	190.330	0.690	-0.580	1.110
2020/01/31 23:06:28.2	190.330	0.730	-0.600	1.070
2020/01/31 23:06:28.3	190.320	0.760	-0.610	1.030
2020/01/31 23:06:28.4	190.310	0.790	-0.610	1.000
2020/01/31 23:06:28.5	190.310	0.820	-0.610	0.960
2020/01/31 23:06:28.6	190.310	0.830	-0.610	0.930
2020/01/31 23:06:28.7	190.300	0.840	-0.600	0.910
2020/01/31 23:06:28.8	190.300	0.840	-0.590	0.880
2020/01/31 23:06:28.9	190.300	0.840	-0.570	0.860
2020/01/31 23:06:29.0	190.300	0.820	-0.550	0.850
2020/01/31 23:06:29.1	190.300	0.800	-0.540	0.830
2020/01/31 23:06:29.2	190.310	0.780	-0.510	0.820
2020/01/31 23:06:29.3	190.310	0.740	-0.480	0.820
2020/01/31 23:06:29.4	190.310	0.700	-0.450	0.830
2020/01/31 23:06:29.5	190.320	0.660	-0.420	0.840
2020/01/31 23:06:29.6	190.320	0.610	-0.390	0.850
2020/01/31 23:06:29.7	190.320	0.550	-0.350	0.870
2020/01/31 23:06:29.8	190.330	0.490	-0.320	0.900
2020/01/31 23:06:29.9	190.330	0.430	-0.280	0.930
2020/01/31 23:06:30.0	190.340	0.360	-0.250	0.970
2020/01/31 23:06:30.1	190.340	0.290	-0.210	1.010
2020/01/31 23:06:30.2	190.340	0.220	-0.170	1.050
2020/01/31 23:06:30.3	190.350	0.140	-0.140	1.100
2020/01/31 23:06:30.4	190.360	0.070	-0.100	1.150
2020/01/31 23:06:30.5	190.370	-0.010	-0.060	1.200
2020/01/31 23:06:30.6	190.380	-0.090	-0.030	1.250
2020/01/31 23:06:30.7	190.390	-0.160	0.010	1.310
2020/01/31 23:06:30.8	190.400	-0.240	0.040	1.370
2020/01/31 23:06:30.9	190.410	-0.310	0.070	1.430
2020/01/31 23:06:31.0	190.430	-0.380	0.110	1.490
2020/01/31 23:06:31.1	190.430	-0.450	0.140	1.550
2020/01/31 23:06:31.2	190.450	-0.510	0.170	1.610
2020/01/31 23:06:31.3	190.460	-0.580	0.200	1.680
2020/01/31 23:06:31.4	190.480	-0.630	0.230	1.740
2020/01/31 23:06:31.5	190.490	-0.690	0.260	1.800
2020/01/31 23:06:31.6	190.510	-0.740	0.280	1.870
2020/01/31 23:06:31.7	190.520	-0.780	0.310	1.930
2020/01/31 23:06:31.8	190.530	-0.820	0.330	1.990
2020/01/31 23:06:31.9	190.540	-0.850	0.350	2.050
2020/01/31 23:06:32.0	190.550	-0.880	0.370	2.110
2020/01/31 23:06:32.1	190.570	-0.900	0.380	2.170
2020/01/31 23:06:32.2	190.570	-0.910	0.390	2.220
2020/01/31 23:06:32.3	190.580	-0.920	0.400	2.270
2020/01/31 23:06:32.4	190.580	-0.920	0.400	2.320
2020/01/31 23:06:32.5	190.590	-0.920	0.400	2.370
2020/01/31 23:06:32.6	190.590	-0.910	0.400	2.410
2020/01/31 23:06:32.7	190.590	-0.890	0.390	2.450
2020/01/31 23:06:32.8	190.580	-0.860	0.370	2.480
2020/01/31 23:06:32.9	190.580	-0.830	0.360	2.510
2020/01/31 23:06:33.0	190.570	-0.790	0.330	2.530
2020/01/31 23:06:33.1	190.560	-0.750	0.300	2.550
2020/01/31 23:06:33.2	190.550	-0.700	0.270	2.570
2020/01/31 23:06:33.3	190.530	-0.650	0.230	2.580
2020/01/31 23:06:33.4	190.510	-0.590	0.190	2.590
2020/01/31 23:06:33.5	190.500	-0.520	0.140	2.590
2020/01/31 23:06:33.6	190.470	-0.450	0.090	2.580
2020/01/31 23:06:33.7	190.450	-0.380	0.040	2.570
2020/01/31 23:06:33.8	190.420	-0.300	-0.010	2.560
2020/01/31 23:06:33.9	190.390	-0.220	-0.070	2.540
2020/01/31 23:06:34.0	190.360	-0.140	-0.130	2.520
2020/01/31 23:06:34.1	190.330	-0.050	-0.190	2.500
2020/01/31 23:06:34.2	190.300	0.030	-0.250	2.480
2020/01/31 23:06:34.3	190.260	0.120	-0.320	2.450
2020/01/31 23:06:34.4	190.220	0.210	-0.380	2.410
2020/01/31 23:06:34.5	190.180	0.300	-0.440	2.380
2020/01/31 23:06:34.6	190.140	0.380	-0.490	2.340
2020/01/31 23:06:34.7	190.100	0.470	-0.550	2.300
2020/01/31 23:06:34.8	190.060	0.550	-0.600	2.260
2020/01/31 23:06:34.9	190.020	0.630	-0.650	2.210
2020/01/31 23:06:35.0	189.980	0.710	-0.700	2.160
2020/01/31 23:06:35.1	189.950	0.780	-0.740	2.100
2020/01/31 23:06:35.2	189.920	0.850	-0.770	2.040
2020/01/31 23:06:35.3	189.890	0.920	-0.800	1.980
2020/01/31 23:06:35.4	189.860	0.980	-0.820	1.920
2020/01/31 23:06:35.5	189.830	1.030	-0.830	1.850
2020/01/31 23:06:35.6	189.810	1.080	-0.840	1.780
2020/01/31 23:06:35.7	189.790	1.120	-0.840	1.710
2020/01/31 23:06:35.8	189.780	1.160	-0.830	1.640
2020/01/31 23:06:35.9	189.770	1.180	-0.820	1.560
2020/01/31 23:06:36.0	189.770	1.200	-0.800	1.490
2020/01/31 23:06:36.1	189.770	1.220	-0.770	1.410
2020/01/31 23:06:36.2	189.770	1.230	-0.740	1.330
2020/01/31 23:06:36.3	189.780	1.230	-0.710	1.250
2020/01/31 23:06:36.4	189.780	1.220	-0.660	1.180
2020/01/31 23:06:36.5	189.800	1.210	-0.620	1.100
2020/01/31 23:06:36.6	189.810	1.190	-0.570	1.030
2020/01/31 23:06:36.7	189.830	1.160	-0.520	0.950
2020/01/31 23:06:36.8	189.850	1.130	-0.470	0.880
2020/01/31 23:06:36.9	189.870	1.090	-0.420	0.820
2020/01/31 23:06:37.0	189.890	1.040	-0.360	0.750
2020/01/31 23:06:37.1	189.910	0.990	-0.310	0.680
2020/01/31 23:06:37.2	189.940	0.940	-0.250	0.630
2020/01/31 23:06:37.3	189.970	0.870	-0.200	0.570
2020/01/31 23:06:37.4	190.000	0.810	-0.150	0.520
2020/01/31 23:06:37.5	190.040	0.740	-0.100	0.480
2020/01/31 23:06:37.6	190.070	0.670	-0.050	0.440
2020/01/31 23:06:37.7	190.110	0.600	-0.010	0.410
2020/01/31 23:06:37.8	190.140	0.520	0.020	0.380
2020/01/31 23:06:37.9	190.180	0.450	0.060	0.350
2020/01/31 23:06:38.0	190.210	0.370	0.090	0.340
2020/01/31 23:06:38.1	190.240	0.290	0.100	0.320
2020/01/31 23:06:38.2	190.280	0.210	0.120	0.320
2020/01/31 23:06:38.3	190.310	0.130	0.130	0.320
2020/01/31 23:06:38.4	190.350	0.060	0.140	0.320
2020/01/31 23:06:38.5	190.380	-0.020	0.140	0.330
2020/01/31 23:06:38.6	190.410	-0.090	0.130	0.350
2020/01/31 23:06:38.7	190.440	-0.160	0.110	0.370
2020/01/31 23:06:38.8	190.470	-0.230	0.100	0.400
2020/01/31 23:06:38.9	190.500	-0.300	0.070	0.430
2020/01/31 23:06:39.0	190.520	-0.360	0.040	0.460
2020/01/31 23:06:39.1	190.550	-0.420	0.010	0.510
2020/01/31 23:06:39.2	190.570	-0.470	-0.030	0.550
2020/01/31 23:06:39.3	190.590	-0.520	-0.080	0.600
2020/01/31 23:06:39.4	190.610	-0.570	-0.130	0.650
2020/01/31 23:06:39.5	190.630	-0.610	-0.190	0.710
2020/01/31 23:06:39.6	190.650	-0.640	-0.250	0.770
2020/01/31 23:06:39.7	190.660	-0.670	-0.310	0.830
2020/01/31 23:06:39.8	190.670	-0.700	-0.370	0.900
2020/01/31 23:06:39.9	190.680	-0.720	-0.440	0.960
2020/01/31 23:06:40.0	190.690	-0.740	-0.510	1.030
2020/01/31 23:06:40.1	190.690	-0.750	-0.580	1.110
2020/01/31 23:06:40.2	190.690	-0.760	-0.650	1.180
2020/01/31 23:06:40.3	190.690	-0.760	-0.720	1.250
2020/01/31 23:06:40.4	190.690	-0.760	-0.790	1.320
2020/01/31 23:06:40.5	190.680	-0.750	-0.860	1.390
2020/01/31 23:06:40.6	190.670	-0.740	-0.920	1.460
2020/01/31 23:06:40.7	190.670	-0.730	-0.990	1.530
2020/01/31 23:06:40.8	190.660	-0.720	-1.040	1.590
2020/01/31 23:06:40.9	190.640	-0.700	-1.090	1.650
2020/01/31 23:06:41.0	190.630	-0.670	-1.140	1.710
2020/01/31 23:06:41.1	190.620	-0.650	-1.180	1.770
2020/01/31 23:06:41.2	190.600	-0.630	-1.220	1.820
2020/01/31 23:06:41.3	190.590	-0.600	-1.250	1.870
2020/01/31 23:06:41.4	190.570	-0.570	-1.270	1.910
2020/01/31 23:06:41.5	190.550	-0.540	-1.280	1.950
2020/01/31 23:06:41.6	190.530	-0.510	-1.290	1.990
2020/01/31 23:06:41.7	190.510	-0.480	-1.290	2.020
2020/01/31 23:06:41.8	190.500	-0.450	-1.280	2.040
2020/01/31 23:06:41.9	190.480	-0.420	-1.260	2.060
2020/01/31 23:06:42.0	190.460	-0.390	-1.240	2.080
2020/01/31 23:06:42.1	190.440	-0.360	-1.200	2.100
2020/01/31 23:06:42.2	190.420	-0.330	-1.160	2.110
2020/01/31 23:06:42.3	190.400	-0.300	-1.120	2.110
2020/01/31 23:06:42.4	190.380	-0.280	-1.070	2.120
2020/01/31 23:06:42.5	190.360	-0.250	-1.010	2.120
2020/01/31 23:06:42.6	190.340	-0.230	-0.950	2.120
2020/01/31 23:06:42.7	190.320	-0.200	-0.880	2.120
2020/01/31 23:06:42.8	190.300	-0.180	-0.810	2.120
2020/01/31 23:06:42.9	190.280	-0.160	-0.730	2.110
2020/01/31 23:06:43.0	190.260	-0.150	-0.660	2.100
2020/01/31 23:06:43.1	190.240	-0.130	-0.580	2.090
2020/01/31 23:06:43.2	190.220	-0.120	-0.500	2.070
2020/01/31 23:06:43.3	190.200	-0.100	-0.420	2.060
2020/01/31 23:06:43.4	190.190	-0.090	-0.340	2.040
2020/01/31 23:06:43.5	190.170	-0.080	-0.260	2.020
2020/01/31 23:06:43.6	190.150	-0.080	-0.180	1.990
2020/01/31 23:06:43.7	190.130	-0.070	-0.110	1.970
2020/01/31 23:06:43.8	190.120	-0.070	-0.030	1.940
2020/01/31 23:06:43.9	190.100	-0.060	0.040	1.910
2020/01/31 23:06:44.0	190.080	-0.060	0.100	1.880
2020/01/31 23:06:44.1	190.080	-0.060	0.170	1.850
2020/01/31 23:06:44.2	190.060	-0.060	0.230	1.820
2020/01/31 23:06:44.3	190.050	-0.060	0.280	1.780
2020/01/31 23:06:44.4	190.030	-0.060	0.330	1.750
2020/01/31 23:06:44.5	190.020	-0.060	0.370	1.720
2020/01/31 23:06:44.6	190.010	-0.060	0.410	1.680
2020/01/31 23:06:44.7	190.000	-0.070	0.440	1.650
2020/01/31 23:06:44.8	189.990	-0.070	0.460	1.610
2020/01/31 23:06:44.9	189.980	-0.070	0.480	1.580
2020/01/31 23:06:45.0	189.970	-0.080	0.490	1.540
2020/01/31 23:06:45.1	189.960	-0.080	0.500	1.510
2020/01/31 23:06:45.2	189.950	-0.080	0.490	1.480
2020/01/31 23:06:45.3	189.940	-0.080	0.480	1.450
2020/01/31 23:06:45.4	189.940	-0.080	0.470	1.420
2020/01/31 23:06:45.5	189.930	-0.080	0.450	1.390
2020/01/31 23:06:45.6	189.930	-0.080	0.420	1.370
2020/01/31 23:06:45.7	189.920	-0.080	0.390	1.350
2020/01/31 23:06:45.8	189.920	-0.080	0.360	1.330
2020/01/31 23:06:45.9	189.910	-0.070	0.320	1.320
2020/01/31 23:06:46.0	189.910	-0.070	0.280	1.300
2020/01/31 23:06:46.1	189.890	-0.060	0.230	1.290
2020/01/31 23:06:46.2	189.890	-0.050	0.180	1.280
2020/01/31 23:06:46.3	189.880	-0.050	0.140	1.280
2020/01/31 23:06:46.4	189.870	-0.040	0.090	1.280
2020/01/31 23:06:46.5	189.870	-0.020	0.040	1.270
2020/01/31 23:06:46.6	189.870	-0.010	-0.010	1.270
2020/01/31 23:06:46.7	189.860	0.000	-0.060	1.270
2020/01/31 23:06:46.8	189.860	0.010	-0.100	1.280
2020/01/31 23:06:46.9	189.860	0.030	-0.150	1.280
2020/01/31 23:06:47.0	189.870	0.040	-0.180	1.280
2020/01/31 23:06:47.1	189.870	0.060	-0.220	1.280
2020/01/31 23:06:47.2	189.880	0.070	-0.240	1.280
2020/01/31 23:06:47.3	189.890	0.080	-0.260	1.290
2020/01/31 23:06:47.4	189.900	0.090	-0.280	1.290
2020/01/31 23:06:47.5	189.920	0.100	-0.280	1.290
2020/01/31 23:06:47.6	189.940	0.110	-0.280	1.290
2020/01/31 23:06:47.7	189.960	0.120	-0.280	1.290
2020/01/31 23:06:47.8	189.980	0.130	-0.270	1.290
2020/01/31 23:06:47.9	190.010	0.130	-0.250	1.290
2020/01/31 23:06:48.0	190.040	0.140	-0.220	1.290
2020/01/31 23:06:48.1	190.070	0.140	-0.190	1.300
2020/01/31 23:06:48.2	190.100	0.140	-0.160	1.300
2020/01/31 23:06:48.3	190.130	0.140	-0.120	1.300
2020/01/31 23:06:48.4	190.160	0.140	-0.070	1.290
2020/01/31 23:06:48.5	190.200	0.140	-0.030	1.290
2020/01/31 23:06:48.6	190.230	0.130	0.020	1.290
2020/01/31 23:06:48.7	190.260	0.120	0.080	1.290
2020/01/31 23:06:48.8	190.300	0.120	0.130	1.280
2020/01/31 23:06:48.9	190.330	0.110	0.180	1.280
2020/01/31 23:06:49.0	190.360	0.100	0.230	1.280
2020/01/31 23:06:49.1	190.390	0.090	0.270	1.270
2020/01/31 23:06:49.2	190.410	0.080	0.320	1.270
2020/01/31 23:06:49.3	190.440	0.070	0.360	1.260
2020/01/31 23:06:49.4	190.470	0.060	0.400	1.250
2020/01/31 23:06:49.5	190.490	0.040	0.430	1.250
2020/01/31 23:06:49.6	190.520	0.030	0.460	1.240
2020/01/31 23:06:49.7	190.540	0.020	0.490	1.240
2020/01/31 23:06:49.8	190.560	0.010	0.500	1.230
2020/01/31 23:06:49.9	190.580	0.000	0.510	1.220
2020/01/31 23:06:50.0	190.600	-0.010	0.520	1.220
2020/01/31 23:06:50.1	190.610	-0.010	0.510	1.220
2020/01/31 23:06:50.2	190.620	-0.020	0.500	1.220
2020/01/31 23:06:50.3	190.630	-0.020	0.480	1.220
2020/01/31 23:06:50.4	190.640	-0.030	0.460	1.230
2020/01/31 23:06:50.5	190.650	-0.030	0.420	1.240
2020/01/31 23:06:50.6	190.650	-0.030	0.380	1.260
2020/01/31 23:06:50.7	190.660	-0.030	0.340	1.270
2020/01/31 23:06:50.8	190.660	-0.020	0.290	1.300
2020/01/31 23:06:50.9	190.660	-0.020	0.230	1.320
2020/01/31 23:06:51.0	190.650	-0.010	0.170	1.350
2020/01/31 23:06:51.1	190.650	-0.000	0.100	1.380
2020/01/31 23:06:51.2	190.650	0.010	0.030	1.410
2020/01/31 23:06:51.3	190.640	0.020	-0.050	1.450
2020/01/31 23:06:51.4	190.640	0.030	-0.120	1.480
2020/01/31 23:06:51.5	190.630	0.040	-0.200	1.510
2020/01/31 23:06:51.6	190.630	0.060	-0.280	1.550
2020/01/31 23:06:51.7	190.620	0.070	-0.360	1.580
2020/01/31 23:06:51.8	190.620	0.090	-0.430	1.610
2020/01/31 23:06:51.9	190.610	0.110	-0.510	1.650
2020/01/31 23:06:52.0	190.610	0.120	-0.580	1.680
2020/01/31 23:06:52.1	190.610	0.140	-0.640	1.710
2020/01/31 23:06:52.2	190.600	0.160	-0.710	1.740
2020/01/31 23:06:52.3	190.600	0.180	-0.770	1.770
2020/01/31 23:06:52.4	190.590	0.190	-0.830	1.800
2020/01/31 23:06:52.5	190.590	0.210	-0.880	1.820
2020/01/31 23:06:52.6	190.580	0.230	-0.930	1.840
2020/01/31 23:06:52.7	190.570	0.250	-0.970	1.870
2020/01/31 23:06:52.8	190.560	0.260	-1.010	1.880
2020/01/31 23:06:52.9	190.550	0.280	-1.040	1.900
2020/01/31 23:06:53.0	190.540	0.290	-1.070	1.910
2020/01/31 23:06:53.1	190.540	0.310	-1.100	1.930
2020/01/31 23:06:53.2	190.520	0.320	-1.120	1.940
2020/01/31 23:06:53.3	190.510	0.330	-1.130	1.950
2020/01/31 23:06:53.4	190.490	0.340	-1.140	1.950
2020/01/31 23:06:53.5	190.470	0.350	-1.150	1.960
2020/01/31 23:06:53.6	190.460	0.360	-1.150	1.960
2020/01/31 23:06:53.7	190.440	0.370	-1.150	1.960
2020/01/31 23:06:53.8	190.410	0.380	-1.150	1.970
2020/01/31 23:06:53.9	190.390	0.380	-1.140	1.970
2020/01/31 23:06:54.0	190.370	0.390	-1.140	1.960
2020/01/31 23:06:54.1	190.340	0.390	-1.120	1.960
2020/01/31 23:06:54.2	190.320	0.400	-1.110	1.960
2020/01/31 23:06:54.3	190.290	0.400	-1.090	1.950
2020/01/31 23:06:54.4	190.260	0.400	-1.070	1.950
2020/01/31 23:06:54.5	190.240	0.400	-1.040	1.940
2020/01/31 23:06:54.6	190.210	0.400	-1.020	1.930
2020/01/31 23:06:54.7	190.180	0.400	-0.990	1.920
2020/01/31 23:06:54.8	190.150	0.400	-0.950	1.910
2020/01/31 23:06:54.9	190.130	0.390	-0.920	1.900
2020/01/31 23:06:55.0	190.110	0.390	-0.880	1.890
2020/01/31 23:06:55.1	190.090	0.380	-0.840	1.870
2020/01/31 23:06:55.2	190.070	0.370	-0.790	1.860
2020/01/31 23:06:55.3	190.060	0.360	-0.750	1.840
2020/01/31 23:06:55.4	190.040	0.350	-0.700	1.820
2020/01/31 23:06:55.5	190.030	0.340	-0.640	1.800
2020/01/31 23:06:55.6	190.020	0.320	-0.590	1.770
2020/01/31 23:06:55.7	190.010	0.310	-0.530	1.750
2020/01/31 23:06:55.8	190.000	0.290	-0.480	1.720
2020/01/31 23:06:55.9	190.000	0.270	-0.420	1.690
2020/01/31 23:06:56.0	190.000	0.260	-0.360	1.660
2020/01/31 23:06:56.1	190.000	0.240	-0.300	1.620
2020/01/31 23:06:56.2	190.010	0.220	-0.240	1.580
2020/01/31 23:06:56.3	190.010	0.190	-0.180	1.550
2020/01/31 23:06:56.4	190.020	0.170	-0.120	1.510
2020/01/31 23:06:56.5	190.030	0.150	-0.060	1.470
2020/01/31 23:06:56.6	190.050	0.130	-0.010	1.430
2020/01/31 23:06:56.7	190.060	0.110	0.040	1.380
2020/01/31 23:06:56.8	190.080	0.090	0.090	1.340
2020/01/31 23:06:56.9	190.090	0.060	0.140	1.300
2020/01/31 23:06:57.0	190.110	0.040	0.180	1.260
2020/01/31 23:06:57.1	190.110	0.020	0.220	1.210
2020/01/31 23:06:57.2	190.130	-0.000	0.250	1.170
2020/01/31 23:06:57.3	190.140	-0.020	0.280	1.130
2020/01/31 23:06:57.4	190.160	-0.040	0.310	1.100
2020/01/31 23:06:57.5	190.170	-0.060	0.330	1.060
2020/01/31 23:06:57.6	190.180	-0.070	0.350	1.030
2020/01/31 23:06:57.7	190.190	-0.090	0.360	1.010
2020/01/31 23:06:57.8	190.200	-0.100	0.360	0.980
2020/01/31 23:06:57.9	190.220	-0.120	0.360	0.960
2020/01/31 23:06:58.0	190.230	-0.130	0.360	0.940
2020/01/31 23:06:58.1	190.240	-0.140	0.350	0.930
2020/01/31 23:06:58.2	190.250	-0.150	0.340	0.920
2020/01/31 23:06:58.3	190.260	-0.160	0.320	0.910
2020/01/31 23:06:58.4	190.270	-0.160	0.300	0.900
2020/01/31 23:06:58.5	190.280	-0.170	0.280	0.900
2020/01/31 23:06:58.6	190.290	-0.170	0.250	0.890
2020/01/31 23:06:58.7	190.310	-0.180	0.230	0.890
2020/01/31 23:06:58.8	190.320	-0.180	0.190	0.890
2020/01/31 23:06:58.9	190.330	-0.180	0.160	0.890
2020/01/31 23:06:59.0	190.350	-0.180	0.130	0.890
2020/01/31 23:06:59.1	190.360	-0.180	0.090	0.890
2020/01/31 23:06:59.2	190.380	-0.180	0.050	0.890
2020/01/31 23:06:59.3	190.400	-0.180	0.010	0.890
2020/01/31 23:06:59.4	190.420	-0.180	-0.020	0.890
2020/01/31 23:06:59.5	190.440	-0.180	-0.060	0.900
2020/01/31 23:06:59.6	190.460	-0.180	-0.100	0.900
2020/01/31 23:06:59.7	190.480	-0.180	-0.130	0.910
2020/01/31 23:06:59.8	190.490	-0.180	-0.160	0.920
2020/01/31 23:06:59.9	190.510	-0.180	-0.200	0.930
2020/01/31 23:07:00.0	190.530	-0.190	-0.230	0.940
2020/01/31 23:07:00.1	190.550	-0.190	-0.250	0.960
2020/01/31 23:07:00.2	190.560	-0.190	-0.280	0.970
2020/01/31 23:07:00.3	190.580	-0.190	-0.300	0.990
2020/01/31 23:07:00.4	190.590	-0.200	-0.330	1.020
2020/01/31 23:07:00.5	190.600	-0.200	-0.350	1.040
2020/01/31 23:07:00.6	190.610	-0.210	-0.370	1.070
2020/01/31 23:07:00.7	190.620	-0.210	-0.390	1.100
2020/01/31 23:07:00.8	190.630	-0.220	-0.410	1.140
2020/01/31 23:07:00.9	190.630	-0.220	-0.430	1.180
2020/01/31 23:07:01.0	190.630	-0.230	-0.450	1.220
2020/01/31 23:07:01.1	190.630	-0.230	-0.470	1.260
2020/01/31 23:07:01.2	190.620	-0.240	-0.490	1.300
2020/01/31 23:07:01.3	190.620	-0.240	-0.500	1.340
2020/01/31 23:07:01.4	190.610	-0.240	-0.520	1.390
2020/01/31 23:07:01.5	190.590	-0.250	-0.540	1.440
2020/01/31 23:07:01.6	190.580	-0.250	-0.560	1.480
2020/01/31 23:07:01.7	190.560	-0.250	-0.570	1.530
2020/01/31 23:07:01.8	190.540	-0.240	-0.590	1.570
2020/01/31 23:07:01.9	190.510	-0.240	-0.610	1.610
2020/01/31 23:07:02.0	190.490	-0.240	-0.630	1.660
2020/01/31 23:07:02.1	190.450	-0.230	-0.650	1.700
2020/01/31 23:07:02.2	190.420	-0.220	-0.670	1.740
2020/01/31 23:07:02.3	190.390	-0.210	-0.690	1.780
2020/01/31 23:07:02.4	190.360	-0.200	-0.710	1.820
2020/01/31 23:07:02.5	190.330	-0.190	-0.730	1.850
2020/01/31 23:07:02.6	190.290	-0.170	-0.750	1.880
2020/01/31 23:07:02.7	190.260	-0.160	-0.770	1.910
2020/01/31 23:07:02.8	190.230	-0.140	-0.790	1.940
2020/01/31 23:07:02.9	190.190	-0.130	-0.800	1.960
2020/01/31 23:07:03.0	190.160	-0.110	-0.820	1.990
2020/01/31 23:07:03.1	190.120	-0.090	-0.830	2.000
2020/01/31 23:07:03.2	190.090	-0.070	-0.840	2.020
2020/01/31 23:07:03.3	190.060	-0.050	-0.840	2.040
2020/01/31 23:07:03.4	190.030	-0.030	-0.840	2.050
2020/01/31 23:07:03.5	190.000	-0.010	-0.830	2.070
2020/01/31 23:07:03.6	189.980	0.000	-0.820	2.080
2020/01/31 23:07:03.7	189.960	0.020	-0.810	2.080
2020/01/31 23:07:03.8	189.940	0.040	-0.790	2.080
2020/01/31 23:07:03.9	189.920	0.050	-0.760	2.080
2020/01/31 23:07:04.0	189.910	0.070	-0.730	2.070
2020/01/31 23:07:04.1	189.910	0.080	-0.700	2.060
2020/01/31 23:07:04.2	189.900	0.090	-0.660	2.050
2020/01/31 23:07:04.3	189.900	0.100	-0.610	2.030
2020/01/31 23:07:04.4	189.900	0.110	-0.560	2.000
2020/01/31 23:07:04.5	189.910	0.120	-0.510	1.980
2020/01/31 23:07:04.6	189.920	0.120	-0.450	1.940
2020/01/31 23:07:04.7	189.930	0.120	-0.390	1.910
2020/01/31 23:07:04.8	189.940	0.120	-0.330	1.870
2020/01/31 23:07:04.9	189.960	0.120	-0.260	1.820
2020/01/31 23:07:05.0	189.990	0.110	-0.200	1.780
2020/01/31 23:07:05.1	190.010	0.110	-0.130	1.720
2020/01/31 23:07:05.2	190.040	0.100	-0.060	1.670
2020/01/31 23:07:05.3	190.070	0.090	0.000	1.620
2020/01/31 23:07:05.4	190.100	0.070	0.070	1.560
2020/01/31 23:07:05.5	190.140	0.060	0.130	1.510
2020/01/31 23:07:05.6	190.170	0.040	0.190	1.460
2020/01/31 23:07:05.7	190.210	0.030	0.240	1.400
2020/01/31 23:07:05.8	190.240	0.010	0.290	1.350
2020/01/31 23:07:05.9	190.270	-0.010	0.340	1.300
2020/01/31 23:07:06.0	190.310	-0.030	0.380	1.260
2020/01/31 23:07:06.1	190.340	-0.050	0.410	1.220
2020/01/31 23:07:06.2	190.370	-0.070	0.440	1.180
2020/01/31 23:07:06.3	190.400	-0.090	0.460	1.140
2020/01/31 23:07:06.4	190.420	-0.110	0.470	1.110
2020/01/31 23:07:06.5	190.440	-0.130	0.470	1.080
2020/01/31 23:07:06.6	190.470	-0.140	0.470	1.060
2020/01/31 23:07:06.7	190.480	-0.160	0.460	1.040
2020/01/31 23:07:06.8	190.500	-0.170	0.450	1.020
2020/01/31 23:07:06.9	190.510	-0.180	0.420	1.020
2020/01/31 23:07:07.0	190.520	-0.190	0.390	1.010
2020/01/31 23:07:07.1	190.520	-0.200	0.360	1.010
2020/01/31 23:07:07.2	190.520	-0.210	0.320	1.010
2020/01/31 23:07:07.3	190.520	-0.210	0.270	1.020
2020/01/31 23:07:07.4	190.520	-0.210	0.220	1.030
2020/01/31 23:07:07.5	190.520	-0.210	0.170	1.040
2020/01/31 23:07:07.6	190.510	-0.210	0.120	1.060
2020/01/31 23:07:07.7	190.500	-0.210	0.060	1.080
2020/01/31 23:07:07.8	190.490	-0.200	0.000	1.100
2020/01/31 23:07:07.9	190.480	-0.190	-0.050	1.120
2020/01/31 23:07:08.0	190.460	-0.180	-0.110	1.140
2020/01/31 23:07:08.1	190.450	-0.170	-0.160	1.160
2020/01/31 23:07:08.2	190.440	-0.160	-0.210	1.190
2020/01/31 23:07:08.3	190.430	-0.150	-0.260	1.210
2020/01/31 23:07:08.4	190.410	-0.130	-0.300	1.240
2020/01/31 23:07:08.5	190.400	-0.120	-0.340	1.260
2020/01/31 23:07:08.6	190.390	-0.100	-0.370	1.280
2020/01/31 23:07:08.7	190.380	-0.090	-0.400	1.300
2020/01/31 23:07:08.8	190.380	-0.070	-0.420	1.320
2020/01/31 23:07:08.9	190.370	-0.060	-0.440	1.340
2020/01/31 23:07:09.0	190.370	-0.040	-0.440	1.350
2020/01/31 23:07:09.1	190.370	-0.030	-0.450	1.370
2020/01/31 23:07:09.2	190.370	-0.020	-0.450	1.390
2020/01/31 23:07:09.3	190.370	-0.000	-0.440	1.400
2020/01/31 23:07:09.4	190.380	0.010	-0.420	1.400
2020/01/31 23:07:09.5	190.380	0.020	-0.400	1.410
2020/01/31 23:07:09.6	190.390	0.030	-0.380	1.410
2020/01/31 23:07:09.7	190.400	0.040	-0.350	1.410
2020/01/31 23:07:09.8	190.410	0.050	-0.320	1.410
2020/01/31 23:07:09.9	190.430	0.060	-0.290	1.410
2020/01/31 23:07:10.0	190.440	0.070	-0.250	1.400
2020/01/31 23:07:10.1	190.450	0.080	-0.220	1.390
2020/01/31 23:07:10.2	190.460	0.080	-0.180	1.380
2020/01/31 23:07:10.3	190.470	0.090	-0.140	1.370
2020/01/31 23:07:10.4	190.480	0.100	-0.110	1.360
2020/01/31 23:07:10.5	190.490	0.100	-0.080	1.350
2020/01/31 23:07:10.6	190.500	0.110	-0.050	1.340
2020/01/31 23:07:10.7	190.510	0.110	-0.020	1.320
2020/01/31 23:07:10.8	190.520	0.120	-0.000	1.310
2020/01/31 23:07:10.9	190.530	0.120	0.020	1.300
2020/01/31 23:07:11.0	190.530	0.130	0.040	1.280
2020/01/31 23:07:11.1	190.540	0.130	0.050	1.270
2020/01/31 23:07:11.2	190.540	0.140	0.060	1.260
2020/01/31 23:07:11.3	190.550	0.140	0.060	1.250
2020/01/31 23:07:11.4	190.550	0.150	0.070	1.240
2020/01/31 23:07:11.5	190.550	0.150	0.070	1.230
2020/01/31 23:07:11.6	190.550	0.150	0.060	1.220
2020/01/31 23:07:11.7	190.550	0.160	0.060	1.220
2020/01/31 23:07:11.8	190.550	0.160	0.050	1.210
2020/01/31 23:07:11.9	190.550	0.160	0.040	1.210
2020/01/31 23:07:12.0	190.550	0.160	0.020	1.210
2020/01/31 23:07:12.1	190.550	0.170	0.010	1.210
2020/01/31 23:07:12.2	190.540	0.170	-0.010	1.210
2020/01/31 23:07:12.3	190.540	0.170	-0.030	1.210
2020/01/31 23:07:12.4	190.540	0.170	-0.050	1.220
2020/01/31 23:07:12.5	190.530	0.170	-0.070	1.230
2020/01/31 23:07:12.6	190.530	0.170	-0.090	1.240
2020/01/31 23:07:12.7	190.520	0.170	-0.110	1.250
2020/01/31 23:07:12.8	190.520	0.160	-0.130	1.270
2020/01/31 23:07:12.9	190.510	0.160	-0.150	1.290
2020/01/31 23:07:13.0	190.500	0.160	-0.170	1.310
2020/01/31 23:07:13.1	190.490	0.160	-0.190	1.330
2020/01/31 23:07:13.2	190.480	0.160	-0.210	1.350
2020/01/31 23:07:13.3	190.460	0.160	-0.240	1.380
2020/01/31 23:07:13.4	190.440	0.160	-0.260	1.410
2020/01/31 23:07:13.5	190.430	0.160	-0.280	1.430
2020/01/31 23:07:13.6	190.410	0.160	-0.300	1.460
2020/01/31 23:07:13.7	190.390	0.170	-0.320	1.490
2020/01/31 23:07:13.8	190.370	0.170	-0.340	1.510
2020/01/31 23:07:13.9	190.350	0.180	-0.360	1.540
2020/01/31 23:07:14.0	190.330	0.180	-0.380	1.560
2020/01/31 23:07:14.1	190.300	0.190	-0.400	1.580
2020/01/31 23:07:14.2	190.280	0.200	-0.410	1.600
2020/01/31 23:07:14.3	190.260	0.210	-0.430	1.620
2020/01/31 23:07:14.4	190.230	0.220	-0.440	1.640
2020/01/31 23:07:14.5	190.210	0.240	-0.450	1.650
2020/01/31 23:07:14.6	190.190	0.250	-0.460	1.660
2020/01/31 23:07:14.7	190.170	0.270	-0.470	1.670
2020/01/31 23:07:14.8	190.150	0.290	-0.480	1.670
2020/01/31 23:07:14.9	190.130	0.310	-0.490	1.680
2020/01/31 23:07:15.0	190.110	0.330	-0.490	1.680
2020/01/31 23:07:15.1	190.100	0.350	-0.490	1.680
2020/01/31 23:07:15.2	190.080	0.370	-0.500	1.670
2020/01/31 23:07:15.3	190.070	0.390	-0.500	1.670
2020/01/31 23:07:15.4	190.050	0.410	-0.510	1.660
2020/01/31 23:07:15.5	190.040	0.420	-0.510	1.650
2020/01/31 23:07:15.6	190.030	0.440	-0.510	1.640
2020/01/31 23:07:15.7	190.020	0.460	-0.510	1.620
2020/01/31 23:07:15.8	190.010	0.470	-0.510	1.600
2020/01/31 23:07:15.9	190.000	0.490	-0.510	1.590
2020/01/31 23:07:16.0	190.000	0.500	-0.510	1.570
2020/01/31 23:07:16.1	189.990	0.510	-0.520	1.550
2020/01/31 23:07:16.2	189.990	0.510	-0.520	1.530
2020/01/31 23:07:16.3	189.990	0.520	-0.520	1.510
2020/01/31 23:07:16.4	189.990	0.520	-0.530	1.490
2020/01/31 23:07:16.5	189.990	0.520	-0.530	1.470
2020/01/31 23:07:16.6	189.990	0.510	-0.540	1.450
2020/01/31 23:07:16.7	189.990	0.510	-0.550	1.430
2020/01/31 23:07:16.8	190.000	0.500	-0.560	1.410
2020/01/31 23:07:16.9	190.000	0.480	-0.570	1.390
2020/01/31 23:07:17.0	190.010	0.460	-0.590	1.370
2020/01/31 23:07:17.1	190.010	0.450	-0.600	1.350
2020/01/31 23:07:17.2	190.010	0.420	-0.620	1.330
2020/01/31 23:07:17.3	190.020	0.400	-0.630	1.320
2020/01/31 23:07:17.4	190.030	0.370	-0.650	1.300
2020/01/31 23:07:17.5	190.040	0.340	-0.670	1.290
2020/01/31 23:07:17.6	190.050	0.300	-0.690	1.280
2020/01/31 23:07:17.7	190.060	0.270	-0.710	1.280
2020/01/31 23:07:17.8	190.070	0.230	-0.730	1.280
2020/01/31 23:07:17.9	190.080	0.190	-0.750	1.280
2020/01/31 23:07:18.0	190.090	0.150	-0.760	1.280
2020/01/31 23:07:18.1	190.110	0.100	-0.780	1.290
2020/01/31 23:07:18.2	190.120	0.060	-0.790	1.300
2020/01/31 23:07:18.3	190.130	0.010	-0.800	1.320
2020/01/31 23:07:18.4	190.140	-0.030	-0.810	1.340
2020/01/31 23:07:18.5	190.150	-0.080	-0.810	1.370
2020/01/31 23:07:18.6	190.160	-0.120	-0.810	1.390
2020/01/31 23:07:18.7	190.170	-0.170	-0.800	1.420
2020/01/31 23:07:18.8	190.180	-0.220	-0.800	1.460
2020/01/31 23:07:18.9	190.190	-0.260	-0.790	1.490
2020/01/31 23:07:19.0	190.190	-0.300	-0.770	1.530
2020/01/31 23:07:19.1	190.190	-0.340	-0.750	1.570
2020/01/31 23:07:19.2	190.200	-0.380	-0.730	1.600
2020/01/31 23:07:19.3	190.200	-0.420	-0.710	1.640
2020/01/31 23:07:19.4	190.200	-0.450	-0.680	1.680
2020/01/31 23:07:19.5	190.200	-0.480	-0.650	1.720
2020/01/31 23:07:19.6	190.190	-0.510	-0.620	1.750
2020/01/31 23:07:19.7	190.190	-0.540	-0.580	1.790
2020/01/31 23:07:19.8	190.190	-0.560	-0.540	1.820
2020/01/31 23:07:19.9	190.180	-0.580	-0.510	1.850
2020/01/31 23:07:20.0	190.180	-0.590	-0.460	1.880
2020/01/31 23:07:20.1	190.170	-0.600	-0.420	1.900
2020/01/31 23:07:20.2	190.160	-0.610	-0.380	1.930
2020/01/31 23:07:20.3	190.150	-0.620	-0.340	1.950
2020/01/31 23:07:20.4	190.140	-0.620	-0.300	1.970
2020/01/31 23:07:20.5	190.130	-0.620	-0.250	1.990
2020/01/31 23:07:20.6	190.120	-0.610	-0.210	2.000
2020/01/31 23:07:20.7	190.110	-0.610	-0.170	2.010
2020/01/31 23:07:20.8	190.090	-0.600	-0.130	2.020
2020/01/31 23:07:20.9	190.080	-0.580	-0.100	2.030
2020/01/31 23:07:21.0	190.070	-0.570	-0.060	2.040
2020/01/31 23:07:21.1	190.050	-0.550	-0.030	2.040
2020/01/31 23:07:21.2	190.030	-0.530	0.000	2.040
2020/01/31 23:07:21.3	190.020	-0.500	0.030	2.030
2020/01/31 23:07:21.4	190.010	-0.480	0.060	2.020
2020/01/31 23:07:21.5	190.000	-0.450	0.080	2.010
2020/01/31 23:07:21.6	190.000	-0.430	0.100	1.990
2020/01/31 23:07:21.7	189.990	-0.400	0.120	1.970
2020/01/31 23:07:21.8	189.990	-0.370	0.140	1.950
2020/01/31 23:07:21.9	190.000	-0.350	0.160	1.930
2020/01/31 23:07:22.0	190.000	-0.320	0.170	1.900
2020/01/31 23:07:22.1	190.000	-0.290	0.180	1.870
2020/01/31 23:07:22.2	190.010	-0.270	0.190	1.830
2020/01/31 23:07:22.3	190.020	-0.240	0.200	1.800
2020/01/31 23:07:22.4	190.040	-0.220	0.210	1.760
2020/01/31 23:07:22.5	190.060	-0.200	0.220	1.720
2020/01/31 23:07:22.6	190.090	-0.180	0.220	1.690
2020/01/31 23:07:22.7	190.110	-0.160	0.230	1.650
2020/01/31 23:07:22.8	190.140	-0.140	0.240	1.600
2020/01/31 23:07:22.9	190.170	-0.130	0.250	1.560
2020/01/31 23:07:23.0	190.210	-0.110	0.250	1.520
2020/01/31 23:07:23.1	190.250	-0.100	0.260	1.470
2020/01/31 23:07:23.2	190.290	-0.090	0.270	1.430
2020/01/31 23:07:23.3	190.330	-0.080	0.280	1.380
2020/01/31 23:07:23.4	190.360	-0.080	0.290	1.340
2020/01/31 23:07:23.5	190.400	-0.070	0.300	1.290
2020/01/31 23:07:23.6	190.440	-0.070	0.300	1.250
2020/01/31 23:07:23.7	190.480	-0.070	0.310	1.200
2020/01/31 23:07:23.8	190.520	-0.070	0.310	1.160
2020/01/31 23:07:23.9	190.550	-0.070	0.310	1.120
2020/01/31 23:07:24.0	190.580	-0.070	0.310	1.080
2020/01/31 23:07:24.1	190.610	-0.070	0.300	1.040
2020/01/31 23:07:24.2	190.630	-0.070	0.300	1.010
2020/01/31 23:07:24.3	190.650	-0.080	0.280	0.980
2020/01/31 23:07:24.4	190.670	-0.080	0.270	0.950
2020/01/31 23:07:24.5	190.680	-0.080	0.250	0.930
2020/01/31 23:07:24.6	190.690	-0.080	0.220	0.920
2020/01/31 23:07:24.7	190.700	-0.080	0.190	0.910
2020/01/31 23:07:24.8	190.700	-0.080	0.160	0.910
2020/01/31 23:07:24.9	190.690	-0.070	0.120	0.910
2020/01/31 23:07:25.0	190.680	-0.070	0.080	0.920
2020/01/31 23:07:25.1	190.660	-0.060	0.030	0.930
2020/01/31 23:07:25.2	190.640	-0.050	-0.020	0.950
2020/01/31 23:07:25.3	190.610	-0.050	-0.080	0.970
2020/01/31 23:07:25.4	190.580	-0.030	-0.140	1.000
2020/01/31 23:07:25.5	190.550	-0.020	-0.200	1.040
2020/01/31 23:07:25.6	190.510	-0.010	-0.270	1.080
2020/01/31 23:07:25.7	190.460	0.010	-0.330	1.120
2020/01/31 23:07:25.8	190.420	0.020	-0.400	1.170
2020/01/31 23:07:25.9	190.370	0.040	-0.470	1.220
2020/01/31 23:07:26.0	190.310	0.050	-0.530	1.270
2020/01/31 23:07:26.1	190.270	0.070	-0.600	1.330
2020/01/31 23:07:26.2	190.210	0.090	-0.660	1.390
2020/01/31 23:07:26.3	190.150	0.110	-0.720	1.450
2020/01/31 23:07:26.4	190.090	0.130	-0.770	1.500
2020/01/31 23:07:26.5	190.030	0.140	-0.820	1.560
2020/01/31 23:07:26.6	189.970	0.160	-0.860	1.620
2020/01/31 23:07:26.7	189.910	0.170	-0.900	1.670
2020/01/31 23:07:26.8	189.860	0.190	-0.920	1.720
2020/01/31 23:07:26.9	189.810	0.200	-0.940	1.770
2020/01/31 23:07:27.0	189.760	0.210	-0.950	1.820
2020/01/31 23:07:27.1	189.730	0.210	-0.950	1.860
2020/01/31 23:07:27.2	189.690	0.210	-0.950	1.900
2020/01/31 23:07:27.3	189.650	0.210	-0.930	1.940
2020/01/31 23:07:27.4	189.620	0.210	-0.900	1.960
2020/01/31 23:07:27.5	189.600	0.210	-0.860	1.990
2020/01/31 23:07:27.6	189.580	0.200	-0.820	2.010
2020/01/31 23:07:27.7	189.570	0.190	-0.760	2.020
2020/01/31 23:07:27.8	189.560	0.170	-0.700	2.030
2020/01/31 23:07:27.9	189.550	0.150	-0.640	2.040
2020/01/31 23:07:28.0	189.550	0.130	-0.560	2.040
2020/01/31 23:07:28.1	189.560	0.110	-0.490	2.040
2020/01/31 23:07:28.2	189.570	0.080	-0.410	2.030
2020/01/31 23:07:28.3	189.580	0.050	-0.330	2.020
2020/01/31 23:07:28.4	189.590	0.030	-0.240	2.010
2020/01/31 23:07:28.5	189.610	-0.010	-0.160	2.000
2020/01/31 23:07:28.6	189.630	-0.040	-0.080	1.980
2020/01/31 23:07:28.7	189.650	-0.070	0.000	1.970
2020/01/31 23:07:28.8	189.670	-0.100	0.080	1.950
2020/01/31 23:07:28.9	189.700	-0.130	0.150	1.930
2020/01/31 23:07:29.0	189.720	-0.160	0.220	1.910
2020/01/31 23:07:29.1	189.730	-0.190	0.280	1.880
2020/01/31 23:07:29.2	189.760	-0.220	0.330	1.860
2020/01/31 23:07:29.3	189.790	-0.240	0.370	1.830
2020/01/31 23:07:29.4	189.810	-0.270	0.410	1.810
2020/01/31 23:07:29.5	189.830	-0.280	0.430	1.780
2020/01/31 23:07:29.6	189.860	-0.300	0.450	1.750
2020/01/31 23:07:29.7	189.880	-0.310	0.460	1.720
2020/01/31 23:07:29.8	189.900	-0.310	0.450	1.690
2020/01/31 23:07:29.9	189.920	-0.320	0.440	1.660
2020/01/31 23:07:30.0	189.940	-0.310	0.410	1.630
2020/01/31 23:07:30.1	189.950	-0.300	0.380	1.590
2020/01/31 23:07:30.2	189.960	-0.290	0.340	1.560
2020/01/31 23:07:30.3	189.980	-0.270	0.290	1.520
2020/01/31 23:07:30.4	189.990	-0.250	0.240	1.490
2020/01/31 23:07:30.5	190.000	-0.220	0.170	1.450
2020/01/31 23:07:30.6	190.010	-0.180	0.110	1.420
2020/01/31 23:07:30.7	190.020	-0.150	0.030	1.390
2020/01/31 23:07:30.8	190.020	-0.110	-0.040	1.360
2020/01/31 23:07:30.9	190.030	-0.060	-0.120	1.330
2020/01/31 23:07:31.0	190.030	-0.020	-0.200	1.300
2020/01/31 23:07:31.1	190.040	0.030	-0.270	1.280
2020/01/31 23:07:31.2	190.040	0.080	-0.350	1.260
2020/01/31 23:07:31.3	190.040	0.130	-0.420	1.240
2020/01/31 23:07:31.4	190.050	0.180	-0.490	1.220
2020/01/31 23:07:31.5	190.050	0.230	-0.560	1.210
2020/01/31 23:07:31.6	190.050	0.280	-0.620	1.200
2020/01/31 23:07:31.7	190.060	0.330	-0.670	1.200
2020/01/31 23:07:31.8	190.060	0.370	-0.720	1.190
2020/01/31 23:07:31.9	190.070	0.410	-0.760	1.190
2020/01/31 23:07:32.0	190.070	0.450	-0.790	1.190
2020/01/31 23:07:32.1	190.090	0.490	-0.820	1.190
2020/01/31 23:07:32.2	190.100	0.520	-0.830	1.190
2020/01/31 23:07:32.3	190.100	0.550	-0.840	1.200
2020/01/31 23:07:32.4	190.110	0.570	-0.840	1.200
2020/01/31 23:07:32.5	190.120	0.590	-0.840	1.200
2020/01/31 23:07:32.6	190.130	0.600	-0.820	1.200
2020/01/31 23:07:32.7	190.140	0.610	-0.810	1.200
2020/01/31 23:07:32.8	190.150	0.610	-0.780	1.200
2020/01/31 23:07:32.9	190.160	0.610	-0.750	1.190
2020/01/31 23:07:33.0	190.170	0.600	-0.710	1.190
2020/01/31 23:07:33.1	190.190	0.590	-0.670	1.190
2020/01/31 23:07:33.2	190.190	0.570	-0.630	1.190
2020/01/31 23:07:33.3	190.200	0.550	-0.580	1.180
2020/01/31 23:07:33.4	190.210	0.530	-0.530	1.180
2020/01/31 23:07:33.5	190.220	0.500	-0.480	1.180
2020/01/31 23:07:33.6	190.220	0.470	-0.430	1.180
2020/01/31 23:07:33.7	190.220	0.430	-0.390	1.170
2020/01/31 23:07:33.8	190.230	0.390	-0.340	1.170
2020/01/31 23:07:33.9	190.230	0.350	-0.290	1.170
2020/01/31 23:07:34.0	190.230	0.310	-0.250	1.170
2020/01/31 23:07:34.1	190.230	0.270	-0.210	1.170
2020/01/31 23:07:34.2	190.220	0.220	-0.170	1.180
2020/01/31 23:07:34.3	190.220	0.180	-0.140	1.190
2020/01/31 23:07:34.4	190.220	0.130	-0.110	1.200
2020/01/31 23:07:34.5	190.210	0.090	-0.080	1.210
2020/01/31 23:07:34.6	190.200	0.040	-0.060	1.230
2020/01/31 23:07:34.7	190.200	0.000	-0.040	1.250
2020/01/31 23:07:34.8	190.190	-0.040	-0.030	1.270
2020/01/31 23:07:34.9	190.190	-0.080	-0.010	1.290
2020/01/31 23:07:35.0	190.190	-0.120	-0.010	1.310
2020/01/31 23:07:35.1	190.180	-0.150	0.000	1.340
2020/01/31 23:07:35.2	190.180	-0.190	0.000	1.360
2020/01/31 23:07:35.3	190.180	-0.220	0.000	1.390
2020/01/31 23:07:35.4	190.180	-0.250	0.000	1.410
2020/01/31 23:07:35.5	190.180	-0.270	-0.000	1.430
2020/01/31 23:07:35.6	190.190	-0.300	-0.010	1.460
2020/01/31 23:07:35.7	190.200	-0.320	-0.010	1.480
2020/01/31 23:07:35.8	190.210	-0.330	-0.020	1.500
2020/01/31 23:07:35.9	190.220	-0.350	-0.020	1.520
2020/01/31 23:07:36.0	190.230	-0.360	-0.030	1.540
2020/01/31 23:07:36.1	190.240	-0.370	-0.040	1.550
2020/01/31 23:07:36.2	190.260	-0.370	-0.040	1.560
2020/01/31 23:07:36.3	190.270	-0.370	-0.050	1.580
2020/01/31 23:07:36.4	190.290	-0.370	-0.050	1.590
2020/01/31 23:07:36.5	190.300	-0.370	-0.060	1.600
2020/01/31 23:07:36.6	190.320	-0.360	-0.060	1.610
2020/01/31 23:07:36.7	190.340	-0.350	-0.060	1.620
2020/01/31 23:07:36.8	190.350	-0.340	-0.070	1.620
2020/01/31 23:07:36.9	190.370	-0.330	-0.070	1.620
2020/01/31 23:07:37.0	190.380	-0.310	-0.080	1.620
2020/01/31 23:07:37.1	190.390	-0.290	-0.080	1.630
2020/01/31 23:07:37.2	190.400	-0.270	-0.090	1.620
2020/01/31 23:07:37.3	190.410	-0.250	-0.100	1.620
2020/01/31 23:07:37.4	190.420	-0.220	-0.110	1.610
2020/01/31 23:07:37.5	190.420	-0.200	-0.130	1.600
2020/01/31 23:07:37.6	190.430	-0.170	-0.140	1.590
2020/01/31 23:07:37.7	190.430	-0.140	-0.160	1.580
2020/01/31 23:07:37.8	190.430	-0.120	-0.180	1.570
2020/01/31 23:07:37.9	190.430	-0.090	-0.210	1.560
2020/01/31 23:07:38.0	190.430	-0.060	-0.230	1.550
2020/01/31 23:07:38.1	190.410	-0.030	-0.260	1.530
2020/01/31 23:07:38.2	190.410	0.000	-0.300	1.510
2020/01/31 23:07:38.3	190.400	0.030	-0.330	1.500
2020/01/31 23:07:38.4	190.390	0.060	-0.370	1.480
2020/01/31 23:07:38.5	190.380	0.090	-0.410	1.470
2020/01/31 23:07:38.6	190.370	0.120	-0.450	1.450
2020/01/31 23:07:38.7	190.360	0.140	-0.490	1.440
2020/01/31 23:07:38.8	190.350	0.170	-0.530	1.420
2020/01/31 23:07:38.9	190.340	0.190	-0.580	1.410
2020/01/31 23:07:39.0	190.330	0.210	-0.620	1.400
2020/01/31 23:07:39.1	190.320	0.230	-0.660	1.380
2020/01/31 23:07:39.2	190.300	0.240	-0.700	1.370
2020/01/31 23:07:39.3	190.290	0.260	-0.730	1.360
2020/01/31 23:07:39.4	190.270	0.270	-0.770	1.360
2020/01/31 23:07:39.5	190.260	0.280	-0.800	1.350
2020/01/31 23:07:39.6	190.250	0.280	-0.830	1.340
2020/01/31 23:07:39.7	190.230	0.290	-0.850	1.340
2020/01/31 23:07:39.8	190.220	0.290	-0.870	1.340
2020/01/31 23:07:39.9	190.200	0.290	-0.890	1.340
2020/01/31 23:07:40.0	190.190	0.280	-0.900	1.340
2020/01/31 23:07:40.1	190.170	0.270	-0.900	1.330
2020/01/31 23:07:40.2	190.160	0.260	-0.900	1.340
2020/01/31 23:07:40.3	190.150	0.250	-0.890	1.340
2020/01/31 23:07:40.4	190.130	0.240	-0.880	1.340
2020/01/31 23:07:40.5	190.120	0.220	-0.860	1.350
2020/01/31 23:07:40.6	190.110	0.200	-0.840	1.350
2020/01/31 23:07:40.7	190.100	0.180	-0.820	1.360
2020/01/31 23:07:40.8	190.090	0.150	-0.780	1.360
2020/01/31 23:07:40.9	190.080	0.130	-0.750	1.360
2020/01/31 23:07:41.0	190.070	0.100	-0.710	1.370
2020/01/31 23:07:41.1	190.060	0.070	-0.670	1.370
2020/01/31 23:07:41.2	190.050	0.040	-0.620	1.380
2020/01/31 23:07:41.3	190.040	0.010	-0.570	1.380
2020/01/31 23:07:41.4	190.030	-0.030	-0.520	1.380
2020/01/31 23:07:41.5	190.020	-0.060	-0.460	1.380
2020/01/31 23:07:41.6	190.010	-0.090	-0.410	1.380
2020/01/31 23:07:41.7	190.000	-0.130	-0.360	1.380
2020/01/31 23:07:41.8	189.990	-0.160	-0.300	1.380
2020/01/31 23:07:41.9	189.980	-0.200	-0.250	1.380
2020/01/31 23:07:42.0	189.970	-0.230	-0.190	1.380
2020/01/31 23:07:42.1	189.960	-0.270	-0.140	1.370
2020/01/31 23:07:42.2	189.950	-0.300	-0.090	1.360
2020/01/31 23:07:42.3	189.940	-0.330	-0.040	1.360
2020/01/31 23:07:42.4	189.930	-0.360	-0.000	1.350
2020/01/31 23:07:42.5	189.920	-0.390	0.040	1.340
2020/01/31 23:07:42.6	189.920	-0.420	0.080	1.330
2020/01/31 23:07:42.7	189.910	-0.450	0.110	1.320
2020/01/31 23:07:42.8	189.910	-0.480	0.140	1.300
2020/01/31 23:07:42.9	189.910	-0.500	0.160	1.290
2020/01/31 23:07:43.0	189.910	-0.520	0.180	1.270
2020/01/31 23:07:43.1	189.900	-0.540	0.200	1.260
2020/01/31 23:07:43.2	189.910	-0.560	0.210	1.250
2020/01/31 23:07:43.3	189.910	-0.570	0.220	1.230
2020/01/31 23:07:43.4	189.910	-0.580	0.230	1.210
2020/01/31 23:07:43.5	189.920	-0.590	0.230	1.200
2020/01/31 23:07:43.6	189.930	-0.600	0.230	1.180
2020/01/31 23:07:43.7	189.940	-0.610	0.230	1.160
2020/01/31 23:07:43.8	189.960	-0.610	0.220	1.150
2020/01/31 23:07:43.9	189.970	-0.610	0.220	1.130
2020/01/31 23:07:44.0	189.990	-0.610	0.210	1.120
2020/01/31 23:07:44.1	190.010	-0.600	0.200	1.110
2020/01/31 23:07:44.2	190.030	-0.600	0.190	1.090
2020/01/31 23:07:44.3	190.050	-0.590	0.170	1.080
2020/01/31 23:07:44.4	190.080	-0.580	0.160	1.070
2020/01/31 23:07:44.5	190.100	-0.560	0.150	1.060
2020/01/31 23:07:44.6	190.130	-0.550	0.130	1.060
2020/01/31 23:07:44.7	190.150	-0.530	0.120	1.050
2020/01/31 23:07:44.8	190.180	-0.510	0.110	1.040
2020/01/31 23:07:44.9	190.200	-0.490	0.090	1.040
2020/01/31 23:07:45.0	190.230	-0.460	0.080	1.030
2020/01/31 23:07:45.1	190.240	-0.440	0.060	1.030
2020/01/31 23:07:45.2	190.270	-0.410	0.050	1.030
2020/01/31 23:07:45.3	190.290	-0.380	0.040	1.020
2020/01/31 23:07:45.4	190.310	-0.350	0.020	1.020
2020/01/31 23:07:45.5	190.330	-0.320	0.010	1.020
2020/01/31 23:07:45.6	190.350	-0.290	-0.010	1.020
2020/01/31 23:07:45.7	190.360	-0.250	-0.020	1.020
2020/01/31 23:07:45.8	190.370	-0.220	-0.040	1.020
2020/01/31 23:07:45.9	190.380	-0.180	-0.050	1.020
2020/01/31 23:07:46.0	190.390	-0.140	-0.070	1.020
2020/01/31 23:07:46.1	190.390	-0.100	-0.090	1.020
2020/01/31 23:07:46.2	190.400	-0.060	-0.110	1.020
2020/01/31 23:07:46.3	190.400	-0.020	-0.130	1.020
2020/01/31 23:07:46.4	190.400	0.020	-0.150	1.020
2020/01/31 23:07:46.5	190.390	0.060	-0.170	1.020
2020/01/31 23:07:46.6	190.390	0.100	-0.200	1.020
2020/01/31 23:07:46.7	190.380	0.140	-0.220	1.020
2020/01/31 23:07:46.8	190.380	0.170	-0.240	1.020
2020/01/31 23:07:46.9	190.370	0.210	-0.260	1.030
2020/01/31 23:07:47.0	190.360	0.250	-0.290	1.030
2020/01/31 23:07:47.1	190.350	0.290	-0.310	1.040
2020/01/31 23:07:47.2	190.330	0.330	-0.340	1.050
2020/01/31 23:07:47.3	190.320	0.360	-0.360	1.070
2020/01/31 23:07:47.4	190.310	0.400	-0.380	1.080
2020/01/31 23:07:47.5	190.290	0.430	-0.400	1.100
2020/01/31 23:07:47.6	190.270	0.460	-0.410	1.120
2020/01/31 23:07:47.7	190.260	0.490	-0.430	1.150
2020/01/31 23:07:47.8	190.240	0.520	-0.440	1.170
2020/01/31 23:07:47.9	190.230	0.540	-0.450	1.190
2020/01/31 23:07:48.0	190.210	0.560	-0.460	1.220
2020/01/31 23:07:48.1	190.200	0.590	-0.470	1.240
2020/01/31 23:07:48.2	190.180	0.600	-0.470	1.270
2020/01/31 23:07:48.3	190.170	0.620	-0.470	1.290
2020/01/31 23:07:48.4	190.160	0.630	-0.470	1.310
2020/01/31 23:07:48.5	190.150	0.650	-0.460	1.330
2020/01/31 23:07:48.6	190.130	0.650	-0.460	1.350
2020/01/31 23:07:48.7	190.120	0.660	-0.450	1.360
2020/01/31 23:07:48.8	190.120	0.660	-0.430	1.380
2020/01/31 23:07:48.9	190.110	0.660	-0.420	1.390
2020/01/31 23:07:49.0	190.100	0.660	-0.400	1.400
2020/01/31 23:07:49.1	190.100	0.650	-0.390	1.410
2020/01/31 23:07:49.2	190.100	0.640	-0.370	1.410
2020/01/31 23:07:49.3	190.090	0.630	-0.350	1.420
2020/01/31 23:07:49.4	190.090	0.610	-0.330	1.430
2020/01/31 23:07:49.5	190.090	0.590	-0.310	1.440
2020/01/31 23:07:49.6	190.090	0.570	-0.280	1.440
2020/01/31 23:07:49.7	190.090	0.550	-0.260	1.450
2020/01/31 23:07:49.8	190.090	0.520	-0.240	1.460
2020/01/31 23:07:49.9	190.090	0.480	-0.220	1.470
2020/01/31 23:07:50.0	190.100	0.450	-0.200	1.480
2020/01/31 23:07:50.1	190.100	0.410	-0.170	1.490
2020/01/31 23:07:50.2	190.100	0.370	-0.150	1.500
2020/01/31 23:07:50.3	190.110	0.330	-0.130	1.520
2020/01/31 23:07:50.4	190.120	0.280	-0.120	1.540
2020/01/31 23:07:50.5	190.130	0.240	-0.100	1.560
2020/01/31 23:07:50.6	190.140	0.190	-0.090	1.580
2020/01/31 23:07:50.7	190.150	0.140	-0.080	1.610
2020/01/31 23:07:50.8	190.160	0.090	-0.070	1.630
2020/01/31 23:07:50.9	190.170	0.040	-0.060	1.670
2020/01/31 23:07:51.0	190.180	-0.020	-0.050	1.700
2020/01/31 23:07:51.1	190.190	-0.070	-0.050	1.740
2020/01/31 23:07:51.2	190.200	-0.120	-0.050	1.770
2020/01/31 23:07:51.3	190.210	-0.170	-0.050	1.810
2020/01/31 23:07:51.4	190.220	-0.220	-0.050	1.850
2020/01/31 23:07:51.5	190.220	-0.270	-0.060	1.900
2020/01/31 23:07:51.6	190.230	-0.320	-0.060	1.940
2020/01/31 23:07:51.7	190.240	-0.360	-0.070	1.980
2020/01/31 23:07:51.8	190.240	-0.400	-0.080	2.020
2020/01/31 23:07:51.9	190.250	-0.440	-0.090	2.060
2020/01/31 23:07:52.0	190.250	-0.480	-0.100	2.100
2020/01/31 23:07:52.1	190.260	-0.510	-0.110	2.140
2020/01/31 23:07:52.2	190.260	-0.540	-0.130	2.170
2020/01/31 23:07:52.3	190.260	-0.560	-0.140	2.210
2020/01/31 23:07:52.4	190.250	-0.580	-0.160	2.240
2020/01/31 23:07:52.5	190.250	-0.590	-0.180	2.260
2020/01/31 23:07:52.6	190.250	-0.600	-0.200	2.290
2020/01/31 23:07:52.7	190.240	-0.610	-0.210	2.310
2020/01/31 23:07:52.8	190.230	-0.610	-0.230	2.330
2020/01/31 23:07:52.9	190.230	-0.610	-0.250	2.340
2020/01/31 23:07:53.0	190.220	-0.600	-0.270	2.350
2020/01/31 23:07:53.1	190.210	-0.580	-0.290	2.350
2020/01/31 23:07:53.2	190.200	-0.560	-0.310	2.350
2020/01/31 23:07:53.3	190.190	-0.530	-0.330	2.340
2020/01/31 23:07:53.4	190.180	-0.500	-0.350	2.330
2020/01/31 23:07:53.5	190.160	-0.470	-0.370	2.310
2020/01/31 23:07:53.6	190.150	-0.430	-0.390	2.290
2020/01/31 23:07:53.7	190.140	-0.390	-0.410	2.260
2020/01/31 23:07:53.8	190.130	-0.340	-0.430	2.230
2020/01/31 23:07:53.9	190.120	-0.290	-0.450	2.200
2020/01/31 23:07:54.0	190.100	-0.230	-0.460	2.160
2020/01/31 23:07:54.1	190.100	-0.170	-0.480	2.110
2020/01/31 23:07:54.2	190.090	-0.110	-0.490	2.060
2020/01/31 23:07:54.3	190.080	-0.050	-0.510	2.010
2020/01/31 23:07:54.4	190.070	0.010	-0.520	1.960
2020/01/31 23:07:54.5	190.060	0.080	-0.540	1.910
2020/01/31 23:07:54.6	190.040	0.150	-0.550	1.850
2020/01/31 23:07:54.7	190.030	0.210	-0.570	1.800
2020/01/31 23:07:54.8	190.020	0.280	-0.580	1.740
2020/01/31 23:07:54.9	190.010	0.340	-0.600	1.680
2020/01/31 23:07:55.0	190.000	0.400	-0.610	1.620
2020/01/31 23:07:55.1	189.980	0.460	-0.620	1.550
2020/01/31 23:07:55.2	189.970	0.520	-0.630	1.490
2020/01/31 23:07:55.3	189.960	0.580	-0.640	1.430
2020/01/31 23:07:55.4	189.950	0.630	-0.650	1.370
2020/01/31 23:07:55.5	189.940	0.670	-0.650	1.310
2020/01/31 23:07:55.6	189.930	0.720	-0.660	1.240
2020/01/31 23:07:55.7	189.920	0.750	-0.660	1.180
2020/01/31 23:07:55.8	189.910	0.780	-0.660	1.120
2020/01/31 23:07:55.9	189.900	0.810	-0.660	1.060
2020/01/31 23:07:56.0	189.890	0.830	-0.650	1.000
2020/01/31 23:07:56.1	189.890	0.840	-0.650	0.940
2020/01/31 23:07:56.2	189.890	0.840	-0.640	0.880
2020/01/31 23:07:56.3	189.890	0.840	-0.620	0.830
2020/01/31 23:07:56.4	189.890	0.830	-0.610	0.780
2020/01/31 23:07:56.5	189.890	0.810	-0.590	0.740
2020/01/31 23:07:56.6	189.900	0.790	-0.560	0.700
2020/01/31 23:07:56.7	189.910	0.760	-0.530	0.660
2020/01/31 23:07:56.8	189.920	0.720	-0.500	0.640
2020/01/31 23:07:56.9	189.930	0.680	-0.470	0.610
2020/01/31 23:07:57.0	189.940	0.630	-0.440	0.600
2020/01/31 23:07:57.1	189.950	0.570	-0.390	0.590
2020/01/31 23:07:57.2	189.970	0.510	-0.360	0.580
2020/01/31 23:07:57.3	189.980	0.450	-0.320	0.590
2020/01/31 23:07:57.4	190.000	0.380	-0.270	0.600
2020/01/31 23:07:57.5	190.020	0.300	-0.230	0.610
2020/01/31 23:07:57.6	190.040	0.220	-0.190	0.630
2020/01/31 23:07:57.7	190.060	0.150	-0.140	0.650
2020/01/31 23:07:57.8	190.080	0.060	-0.100	0.670
2020/01/31 23:07:57.9	190.110	-0.020	-0.060	0.700
2020/01/31 23:07:58.0	190.130	-0.100	-0.020	0.730
2020/01/31 23:07:58.1	190.150	-0.180	0.020	0.760
2020/01/31 23:07:58.2	190.170	-0.270	0.060	0.800
2020/01/31 23:07:58.3	190.200	-0.350	0.090	0.830
2020/01/31 23:07:58.4	190.230	-0.420	0.130	0.860
2020/01/31 23:07:58.5	190.250	-0.500	0.160	0.900
2020/01/31 23:07:58.6	190.280	-0.570	0.190	0.930
2020/01/31 23:07:58.7	190.300	-0.640	0.210	0.960
2020/01/31 23:07:58.8	190.330	-0.700	0.230	1.000
2020/01/31 23:07:58.9	190.350	-0.760	0.250	1.030
2020/01/31 23:07:59.0	190.380	-0.810	0.260	1.070
2020/01/31 23:07:59.1	190.390	-0.860	0.270	1.100
2020/01/31 23:07:59.2	190.410	-0.900	0.270	1.140
2020/01/31 23:07:59.3	190.420	-0.930	0.260	1.170
2020/01/31 23:07:59.4	190.440	-0.950	0.250	1.210
2020/01/31 23:07:59.5	190.450	-0.970	0.230	1.250
2020/01/31 23:07:59.6	190.460	-0.980	0.200	1.290
2020/01/31 23:07:59.7	190.460	-0.980	0.170	1.330
2020/01/31 23:07:59.8	190.460	-0.980	0.140	1.370
2020/01/31 23:07:59.9	190.460	-0.960	0.090	1.420
2020/01/31 23:08:00.0	190.460	-0.940	0.040	1.460
2020/01/31 23:08:00.1	190.450	-0.910	-0.010	1.510
2020/01/31 23:08:00.2	190.430	-0.870	-0.080	1.560
2020/01/31 23:08:00.3	190.420	-0.820	-0.140	1.600
2020/01/31 23:08:00.4	190.400	-0.770	-0.210	1.650
2020/01/31 23:08:00.5	190.380	-0.710	-0.280	1.690
2020/01/31 23:08:00.6	190.360	-0.650	-0.360	1.730
2020/01/31 23:08:00.7	190.330	-0.570	-0.430	1.770
2020/01/31 23:08:00.8	190.300	-0.500	-0.510	1.810
2020/01/31 23:08:00.9	190.270	-0.420	-0.580	1.850
2020/01/31 23:08:01.0	190.240	-0.340	-0.650	1.880
2020/01/31 23:08:01.1	190.210	-0.260	-0.720	1.910
2020/01/31 23:08:01.2	190.180	-0.170	-0.780	1.940
2020/01/31 23:08:01.3	190.150	-0.080	-0.840	1.960
2020/01/31 23:08:01.4	190.110	0.000	-0.890	1.980
2020/01/31 23:08:01.5	190.080	0.090	-0.940	1.990
2020/01/31 23:08:01.6	190.050	0.170	-0.980	2.000
2020/01/31 23:08:01.7	190.020	0.250	-1.010	2.000
2020/01/31 23:08:01.8	190.000	0.330	-1.030	2.010
2020/01/31 23:08:01.9	189.970	0.400	-1.040	2.000
2020/01/31 23:08:02.0	189.950	0.470	-1.040	2.000
2020/01/31 23:08:02.1	189.940	0.540	-1.030	1.990
2020/01/31 23:08:02.2	189.920	0.600	-1.010	1.980
2020/01/31 23:08:02.3	189.900	0.650	-0.980	1.960
2020/01/31 23:08:02.4	189.890	0.690	-0.950	1.940
2020/01/31 23:08:02.5	189.880	0.730	-0.900	1.920
2020/01/31 23:08:02.6	189.870	0.770	-0.850	1.890
2020/01/31 23:08:02.7	189.860	0.790	-0.790	1.860
2020/01/31 23:08:02.8	189.860	0.810	-0.720	1.830
2020/01/31 23:08:02.9	189.860	0.820	-0.640	1.790
2020/01/31 23:08:03.0	189.860	0.830	-0.560	1.760
2020/01/31 23:08:03.1	189.870	0.820	-0.470	1.710
2020/01/31 23:08:03.2	189.880	0.810	-0.380	1.670
2020/01/31 23:08:03.3	189.890	0.790	-0.290	1.620
2020/01/31 23:08:03.4	189.900	0.770	-0.190	1.570
2020/01/31 23:08:03.5	189.920	0.740	-0.090	1.530
2020/01/31 23:08:03.6	189.940	0.700	0.010	1.480
2020/01/31 23:08:03.7	189.960	0.660	0.100	1.430
2020/01/31 23:08:03.8	189.980	0.610	0.200	1.370
2020/01/31 23:08:03.9	190.010	0.560	0.290	1.320
2020/01/31 23:08:04.0	190.030	0.500	0.380	1.280
2020/01/31 23:08:04.1	190.060	0.440	0.460	1.220
2020/01/31 23:08:04.2	190.090	0.370	0.540	1.170
2020/01/31 23:08:04.3	190.120	0.310	0.610	1.130
2020/01/31 23:08:04.4	190.150	0.240	0.680	1.080
2020/01/31 23:08:04.5	190.180	0.170	0.730	1.040
2020/01/31 23:08:04.6	190.210	0.100	0.780	1.010
2020/01/31 23:08:04.7	190.250	0.030	0.820	0.970
2020/01/31 23:08:04.8	190.280	-0.030	0.860	0.940
2020/01/31 23:08:04.9	190.310	-0.100	0.880	0.920
2020/01/31 23:08:05.0	190.350	-0.170	0.900	0.890
2020/01/31 23:08:05.1	190.370	-0.230	0.910	0.870
2020/01/31 23:08:05.2	190.400	-0.290	0.910	0.860
2020/01/31 23:08:05.3	190.430	-0.350	0.910	0.860
2020/01/31 23:08:05.4	190.460	-0.410	0.890	0.860
2020/01/31 23:08:05.5	190.490	-0.460	0.860	0.860
2020/01/31 23:08:05.6	190.510	-0.500	0.830	0.880
2020/01/31 23:08:05.7	190.540	-0.540	0.790	0.890
2020/01/31 23:08:05.8	190.560	-0.580	0.740	0.920
2020/01/31 23:08:05.9	190.570	-0.610	0.690	0.950
2020/01/31 23:08:06.0	190.590	-0.630	0.630	0.980
2020/01/31 23:08:06.1	190.600	-0.650	0.560	1.020
2020/01/31 23:08:06.2	190.610	-0.660	0.490	1.060
2020/01/31 23:08:06.3	190.610	-0.670	0.410	1.100
2020/01/31 23:08:06.4	190.620	-0.670	0.320	1.140
2020/01/31 23:08:06.5	190.610	-0.660	0.230	1.190
2020/01/31 23:08:06.6	190.610	-0.650	0.140	1.230
2020/01/31 23:08:06.7	190.600	-0.630	0.040	1.280
2020/01/31 23:08:06.8	190.590	-0.600	-0.050	1.320
2020/01/31 23:08:06.9	190.580	-0.570	-0.160	1.360
2020/01/31 23:08:07.0	190.560	-0.530	-0.260	1.400
2020/01/31 23:08:07.1	190.550	-0.490	-0.360	1.440
2020/01/31 23:08:07.2	190.530	-0.440	-0.460	1.480
2020/01/31 23:08:07.3	190.510	-0.390	-0.560	1.510
2020/01/31 23:08:07.4	190.480	-0.340	-0.660	1.540
2020/01/31 23:08:07.5	190.450	-0.280	-0.760	1.570
2020/01/31 23:08:07.6	190.420	-0.220	-0.860	1.600
2020/01/31 23:08:07.7	190.390	-0.150	-0.950	1.630
2020/01/31 23:08:07.8	190.350	-0.090	-1.040	1.650
2020/01/31 23:08:07.9	190.310	-0.020	-1.130	1.680
2020/01/31 23:08:08.0	190.270	0.050	-1.200	1.700
2020/01/31 23:08:08.1	190.230	0.120	-1.280	1.720
2020/01/31 23:08:08.2	190.190	0.180	-1.340	1.740
2020/01/31 23:08:08.3	190.140	0.250	-1.400	1.760
2020/01/31 23:08:08.4	190.100	0.310	-1.460	1.780
2020/01/31 23:08:08.5	190.060	0.370	-1.500	1.800
2020/01/31 23:08:08.6	190.020	0.430	-1.540	1.820
2020/01/31 23:08:08.7	189.990	0.480	-1.570	1.840
2020/01/31 23:08:08.8	189.950	0.530	-1.580	1.850
2020/01/31 23:08:08.9	189.920	0.570	-1.590	1.860
2020/01/31 23:08:09.0	189.890	0.610	-1.590	1.880
2020/01/31 23:08:09.1	189.860	0.640	-1.590	1.880
2020/01/31 23:08:09.2	189.830	0.670	-1.570	1.890
2020/01/31 23:08:09.3	189.810	0.690	-1.540	1.900
2020/01/31 23:08:09.4	189.790	0.700	-1.500	1.900
2020/01/31 23:08:09.5	189.780	0.710	-1.460	1.900
2020/01/31 23:08:09.6	189.760	0.710	-1.410	1.890
2020/01/31 23:08:09.7	189.760	0.700	-1.340	1.890
2020/01/31 23:08:09.8	189.750	0.690	-1.280	1.880
2020/01/31 23:08:09.9	189.750	0.670	-1.200	1.860
2020/01/31 23:08:10.0	189.750	0.650	-1.120	1.850
2020/01/31 23:08:10.1	189.760	0.620	-1.020	1.830
2020/01/31 23:08:10.2	189.770	0.580	-0.930	1.800
2020/01/31 23:08:10.3	189.780	0.540	-0.830	1.780
2020/01/31 23:08:10.4	189.800	0.490	-0.730	1.760
2020/01/31 23:08:10.5	189.820	0.440	-0.630	1.730
2020/01/31 23:08:10.6	189.840	0.390	-0.520	1.700
2020/01/31 23:08:10.7	189.870	0.330	-0.410	1.670
2020/01/31 23:08:10.8	189.900	0.270	-0.310	1.640
2020/01/31 23:08:10.9	189.930	0.210	-0.200	1.610
2020/01/31 23:08:11.0	189.960	0.150	-0.090	1.570
2020/01/31 23:08:11.1	189.990	0.080	0.000	1.540
2020/01/31 23:08:11.2	190.030	0.010	0.110	1.500
2020/01/31 23:08:11.3	190.060	-0.050	0.200	1.470
2020/01/31 23:08:11.4	190.100	-0.120	0.300	1.440
2020/01/31 23:08:11.5	190.140	-0.180	0.380	1.410
2020/01/31 23:08:11.6	190.170	-0.240	0.470	1.380
2020/01/31 23:08:11.7	190.210	-0.300	0.540	1.360
2020/01/31 23:08:11.8	190.250	-0.360	0.610	1.330
2020/01/31 23:08:11.9	190.280	-0.410	0.670	1.310
2020/01/31 23:08:12.0	190.320	-0.460	0.720	1.290
2020/01/31 23:08:12.1	190.340	-0.500	0.770	1.260
2020/01/31 23:08:12.2	190.380	-0.540	0.800	1.250
2020/01/31 23:08:12.3	190.400	-0.580	0.820	1.230
2020/01/31 23:08:12.4	190.430	-0.600	0.830	1.220
2020/01/31 23:08:12.5	190.450	-0.630	0.830	1.200
2020/01/31 23:08:12.6	190.480	-0.640	0.820	1.190
2020/01/31 23:08:12.7	190.490	-0.650	0.800	1.190
2020/01/31 23:08:12.8	190.510	-0.650	0.770	1.180
2020/01/31 23:08:12.9	190.520	-0.650	0.730	1.170
2020/01/31 23:08:13.0	190.530	-0.640	0.680	1.170
2020/01/31 23:08:13.1	190.540	-0.620	0.620	1.170
2020/01/31 23:08:13.2	190.550	-0.600	0.560	1.170
2020/01/31 23:08:13.3	190.550	-0.570	0.490	1.170
2020/01/31 23:08:13.4	190.550	-0.540	0.410	1.170
2020/01/31 23:08:13.5	190.550	-0.500	0.330	1.170
2020/01/31 23:08:13.6	190.550	-0.460	0.250	1.170
2020/01/31 23:08:13.7	190.550	-0.420	0.160	1.170
2020/01/31 23:08:13.8	190.550	-0.370	0.070	1.170
2020/01/31 23:08:13.9	190.540	-0.320	-0.020	1.170
2020/01/31 23:08:14.0	190.540	-0.260	-0.110	1.170
2020/01/31 23:08:14.1	190.530	-0.210	-0.190	1.180
2020/01/31 23:08:14.2	190.520	-0.160	-0.270	1.190
2020/01/31 23:08:14.3	190.510	-0.100	-0.350	1.190
2020/01/31 23:08:14.4	190.500	-0.050	-0.430	1.200
2020/01/31 23:08:14.5	190.490	0.010	-0.500	1.210
2020/01/31 23:08:14.6	190.490	0.060	-0.570	1.210
2020/01/31 23:08:14.7	190.480	0.110	-0.630	1.220
2020/01/31 23:08:14.8	190.470	0.160	-0.690	1.230
2020/01/31 23:08:14.9	190.460	0.200	-0.730	1.240
2020/01/31 23:08:15.0	190.450	0.250	-0.770	1.250
2020/01/31 23:08:15.1	190.450	0.280	-0.810	1.260
2020/01/31 23:08:15.2	190.440	0.320	-0.830	1.270
2020/01/31 23:08:15.3	190.430	0.350	-0.850	1.270
2020/01/31 23:08:15.4	190.430	0.370	-0.850	1.280
2020/01/31 23:08:15.5	190.430	0.400	-0.850	1.290
2020/01/31 23:08:15.6	190.420	0.410	-0.840	1.300
2020/01/31 23:08:15.7	190.420	0.420	-0.830	1.300
2020/01/31 23:08:15.8	190.420	0.430	-0.800	1.310
2020/01/31 23:08:15.9	190.420	0.430	-0.770	1.310
2020/01/31 23:08:16.0	190.420	0.430	-0.740	1.320
2020/01/31 23:08:16.1	190.420	0.430	-0.690	1.330
2020/01/31 23:08:16.2	190.410	0.420	-0.650	1.330
2020/01/31 23:08:16.3	190.410	0.400	-0.590	1.330
2020/01/31 23:08:16.4	190.410	0.390	-0.540	1.340
2020/01/31 23:08:16.5	190.410	0.370	-0.490	1.340
2020/01/31 23:08:16.6	190.400	0.350	-0.430	1.340
2020/01/31 23:08:16.7	190.400	0.320	-0.370	1.350
2020/01/31 23:08:16.8	190.390	0.300	-0.310	1.350
2020/01/31 23:08:16.9	190.390	0.270	-0.260	1.360
2020/01/31 23:08:17.0	190.380	0.240	-0.200	1.360
2020/01/31 23:08:17.1	190.380	0.220	-0.150	1.360
2020/01/31 23:08:17.2	190.370	0.190	-0.100	1.370
2020/01/31 23:08:17.3	190.360	0.160	-0.060	1.380
2020/01/31 23:08:17.4	190.350	0.130	-0.010	1.390
2020/01/31 23:08:17.5	190.340	0.110	0.020	1.400
2020/01/31 23:08:17.6	190.330	0.080	0.050	1.410
2020/01/31 23:08:17.7	190.320	0.060	0.080	1.430
2020/01/31 23:08:17.8	190.300	0.040	0.100	1.440
2020/01/31 23:08:17.9	190.290	0.020	0.120	1.450
2020/01/31 23:08:18.0	190.280	0.000	0.130	1.470
2020/01/31 23:08:18.1	190.270	-0.010	0.140	1.480
2020/01/31 23:08:18.2	190.250	-0.020	0.140	1.490
2020/01/31 23:08:18.3	190.240	-0.030	0.140	1.510
2020/01/31 23:08:18.4	190.230	-0.040	0.130	1.520
2020/01/31 23:08:18.5	190.220	-0.050	0.120	1.530
2020/01/31 23:08:18.6	190.210	-0.050	0.100	1.530
2020/01/31 23:08:18.7	190.200	-0.050	0.080	1.540
2020/01/31 23:08:18.8	190.190	-0.050	0.060	1.550
2020/01/31 23:08:18.9	190.180	-0.040	0.040	1.550
2020/01/31 23:08:19.0	190.170	-0.040	0.010	1.560
2020/01/31 23:08:19.1	190.160	-0.030	-0.020	1.560
2020/01/31 23:08:19.2	190.150	-0.020	-0.050	1.570
2020/01/31 23:08:19.3	190.140	-0.020	-0.080	1.570
2020/01/31 23:08:19.4	190.130	-0.010	-0.120	1.580
2020/01/31 23:08:19.5	190.120	0.010	-0.150	1.580
2020/01/31 23:08:19.6	190.110	0.020	-0.190	1.590
2020/01/31 23:08:19.7	190.100	0.030	-0.220	1.600
2020/01/31 23:08:19.8	190.080	0.040	-0.260	1.610
2020/01/31 23:08:19.9	190.070	0.060	-0.290	1.620
2020/01/31 23:08:20.0	190.060	0.070	-0.330	1.630
2020/01/31 23:08:20.1	190.040	0.080	-0.360	1.650
2020/01/31 23:08:20.2	190.030	0.100	-0.390	1.660
2020/01/31 23:08:20.3	190.010	0.110	-0.420	1.670
2020/01/31 23:08:20.4	190.000	0.120	-0.440	1.690
2020/01/31 23:08:20.5	189.980	0.130	-0.470	1.710
2020/01/31 23:08:20.6	189.970	0.140	-0.490	1.720
2020/01/31 23:08:20.7	189.950	0.150	-0.500	1.730
2020/01/31 23:08:20.8	189.940	0.160	-0.510	1.750
2020/01/31 23:08:20.9	189.920	0.160	-0.520	1.760
2020/01/31 23:08:21.0	189.910	0.170	-0.530	1.770
2020/01/31 23:08:21.1	189.910	0.170	-0.530	1.780
2020/01/31 23:08:21.2	189.900	0.170	-0.520	1.780
2020/01/31 23:08:21.3	189.890	0.170	-0.510	1.790
2020/01/31 23:08:21.4	189.880	0.170	-0.500	1.790
2020/01/31 23:08:21.5	189.880	0.160	-0.480	1.790
2020/01/31 23:08:21.6	189.880	0.160	-0.470	1.790
2020/01/31 23:08:21.7	189.870	0.150	-0.440	1.790
2020/01/31 23:08:21.8	189.870	0.140	-0.410	1.780
2020/01/31 23:08:21.9	189.870	0.130	-0.390	1.780
2020/01/31 23:08:22.0	189.870	0.120	-0.360	1.770
2020/01/31 23:08:22.1	189.880	0.100	-0.330	1.760
2020/01/31 23:08:22.2	189.880	0.090	-0.290	1.750
2020/01/31 23:08:22.3	189.880	0.070	-0.260	1.740
2020/01/31 23:08:22.4	189.890	0.050	-0.230	1.730
2020/01/31 23:08:22.5	189.890	0.040	-0.200	1.720
2020/01/31 23:08:22.6	189.890	0.020	-0.170	1.710
2020/01/31 23:08:22.7	189.900	-0.000	-0.140	1.690
2020/01/31 23:08:22.8	189.900	-0.020	-0.110	1.680
2020/01/31 23:08:22.9	189.910	-0.040	-0.080	1.670
2020/01/31 23:08:23.0	189.910	-0.050	-0.060	1.650
2020/01/31 23:08:23.1	189.910	-0.070	-0.040	1.630
2020/01/31 23:08:23.2	189.910	-0.090	-0.020	1.610
2020/01/31 23:08:23.3	189.920	-0.100	-0.010	1.590
2020/01/31 23:08:23.4	189.930	-0.120	-0.000	1.570
2020/01/31 23:08:23.5	189.930	-0.130	0.010	1.550
2020/01/31 23:08:23.6	189.940	-0.140	0.010	1.530
2020/01/31 23:08:23.7	189.950	-0.150	0.010	1.500
2020/01/31 23:08:23.8	189.960	-0.160	0.010	1.480
2020/01/31 23:08:23.9	189.970	-0.170	0.010	1.450
2020/01/31 23:08:24.0	189.980	-0.180	0.000	1.430
2020/01/31 23:08:24.1	189.980	-0.180	-0.000	1.400
2020/01/31 23:08:24.2	189.990	-0.180	-0.010	1.370
2020/01/31 23:08:24.3	190.010	-0.180	-0.020	1.340
2020/01/31 23:08:24.4	190.020	-0.180	-0.040	1.310
2020/01/31 23:08:24.5	190.040	-0.180	-0.050	1.290
2020/01/31 23:08:24.6	190.050	-0.170	-0.070	1.260
2020/01/31 23:08:24.7	190.070	-0.160	-0.080	1.230
2020/01/31 23:08:24.8	190.080	-0.160	-0.100	1.200
2020/01/31 23:08:24.9	190.100	-0.150	-0.110	1.170
2020/01/31 23:08:25.0	190.120	-0.140	-0.130	1.150
2020/01/31 23:08:25.1	190.130	-0.130	-0.140	1.120
2020/01/31 23:08:25.2	190.140	-0.110	-0.160	1.090
2020/01/31 23:08:25.3	190.160	-0.100	-0.170	1.070
2020/01/31 23:08:25.4	190.170	-0.090	-0.190	1.050
2020/01/31 23:08:25.5	190.180	-0.070	-0.200	1.020
2020/01/31 23:08:25.6	190.200	-0.060	-0.220	1.010
2020/01/31 23:08:25.7	190.210	-0.040	-0.240	0.990
2020/01/31 23:08:25.8	190.210	-0.030	-0.250	0.980
2020/01/31 23:08:25.9	190.220	-0.020	-0.270	0.970
2020/01/31 23:08:26.0	190.220	-0.000	-0.290	0.960
2020/01/31 23:08:26.1	190.220	0.010	-0.310	0.960
2020/01/31 23:08:26.2	190.220	0.030	-0.330	0.950
2020/01/31 23:08:26.3	190.220	0.040	-0.360	0.960
2020/01/31 23:08:26.4	190.210	0.060	-0.380	0.960
2020/01/31 23:08:26.5	190.200	0.070	-0.410	0.970
2020/01/31 23:08:26.6	190.190	0.090	-0.430	0.980
2020/01/31 23:08:26.7	190.180	0.100	-0.460	0.990
2020/01/31 23:08:26.8	190.170	0.110	-0.490	1.010
2020/01/31 23:08:26.9	190.150	0.130	-0.530	1.030
2020/01/31 23:08:27.0	190.140	0.140	-0.560	1.050
2020/01/31 23:08:27.1	190.110	0.150	-0.590	1.080
2020/01/31 23:08:27.2	190.090	0.160	-0.630	1.100
2020/01/31 23:08:27.3	190.070	0.170	-0.660	1.130
2020/01/31 23:08:27.4	190.050	0.170	-0.690	1.150
2020/01/31 23:08:27.5	190.030	0.180	-0.720	1.180
2020/01/31 23:08:27.6	190.010	0.190	-0.750	1.200
2020/01/31 23:08:27.7	189.990	0.190	-0.780	1.230
2020/01/31 23:08:27.8	189.960	0.200	-0.800	1.260
2020/01/31 23:08:27.9	189.940	0.200	-0.830	1.280
2020/01/31 23:08:28.0	189.920	0.200	-0.850	1.310
2020/01/31 23:08:28.1	189.900	0.200	-0.860	1.330
2020/01/31 23:08:28.2	189.880	0.200	-0.880	1.360
2020/01/31 23:08:28.3	189.850	0.200	-0.880	1.390
2020/01/31 23:08:28.4	189.830	0.200	-0.890	1.410
2020/01/31 23:08:28.5	189.810	0.200	-0.890	1.440
2020/01/31 23:08:28.6	189.790	0.190	-0.890	1.460
2020/01/31 23:08:28.7	189.770	0.190	-0.880	1.480
2020/01/31 23:08:28.8	189.750	0.180	-0.870	1.510
2020/01/31 23:08:28.9	189.740	0.170	-0.860	1.530
2020/01/31 23:08:29.0	189.720	0.170	-0.840	1.560
2020/01/31 23:08:29.1	189.700	0.160	-0.820	1.580
2020/01/31 23:08:29.2	189.690	0.150	-0.800	1.600
2020/01/31 23:08:29.3	189.680	0.140	-0.770	1.620
2020/01/31 23:08:29.4	189.660	0.130	-0.740	1.640
2020/01/31 23:08:29.5	189.650	0.120	-0.710	1.660
2020/01/31 23:08:29.6	189.640	0.110	-0.670	1.670
2020/01/31 23:08:29.7	189.630	0.090	-0.640	1.690
2020/01/31 23:08:29.8	189.630	0.080	-0.600	1.700
2020/01/31 23:08:29.9	189.620	0.070	-0.560	1.710
2020/01/31 23:08:30.0	189.620	0.050	-0.520	1.720
2020/01/31 23:08:30.1	189.610	0.040	-0.470	1.730
2020/01/31 23:08:30.2	189.610	0.020	-0.430	1.730
2020/01/31 23:08:30.3	189.610	0.000	-0.380	1.730
2020/01/31 23:08:30.4	189.610	-0.020	-0.330	1.720
2020/01/31 23:08:30.5	189.620	-0.040	-0.280	1.720
2020/01/31 23:08:30.6	189.630	-0.060	-0.230	1.710
2020/01/31 23:08:30.7	189.650	-0.080	-0.180	1.700
2020/01/31 23:08:30.8	189.660	-0.110	-0.130	1.680
2020/01/31 23:08:30.9	189.680	-0.130	-0.080	1.670
2020/01/31 23:08:31.0	189.710	-0.160	-0.030	1.660
2020/01/31 23:08:31.1	189.730	-0.190	0.030	1.630
2020/01/31 23:08:31.2	189.760	-0.220	0.080	1.620
2020/01/31 23:08:31.3	189.790	-0.240	0.130	1.610
2020/01/31 23:08:31.4	189.820	-0.270	0.170	1.600
2020/01/31 23:08:31.5	189.850	-0.300	0.220	1.590
2020/01/31 23:08:31.6	189.880	-0.340	0.270	1.580
2020/01/31 23:08:31.7	189.920	-0.370	0.310	1.570
2020/01/31 23:08:31.8	189.950	-0.400	0.350	1.560
2020/01/31 23:08:31.9	189.980	-0.430	0.380	1.560
2020/01/31 23:08:32.0	190.020	-0.450	0.410	1.560
2020/01/31 23:08:32.1	190.040	-0.480	0.440	1.560
2020/01/31 23:08:32.2	190.070	-0.510	0.470	1.560
2020/01/31 23:08:32.3	190.100	-0.530	0.490	1.560
2020/01/31 23:08:32.4	190.130	-0.550	0.500	1.570
2020/01/31 23:08:32.5	190.160	-0.570	0.510	1.570
2020/01/31 23:08:32.6	190.190	-0.590	0.520	1.580
2020/01/31 23:08:32.7	190.210	-0.600	0.520	1.590
2020/01/31 23:08:32.8	190.240	-0.610	0.520	1.590
2020/01/31 23:08:32.9	190.260	-0.620	0.510	1.600
2020/01/31 23:08:33.0	190.280	-0.630	0.500	1.610
2020/01/31 23:08:33.1	190.300	-0.630	0.480	1.620
2020/01/31 23:08:33.2	190.310	-0.620	0.460	1.630
2020/01/31 23:08:33.3	190.320	-0.610	0.430	1.640
2020/01/31 23:08:33.4	190.330	-0.600	0.400	1.640
2020/01/31 23:08:33.5	190.340	-0.590	0.360	1.650
2020/01/31 23:08:33.6	190.340	-0.570	0.320	1.660
2020/01/31 23:08:33.7	190.340	-0.540	0.270	1.660
2020/01/31 23:08:33.8	190.340	-0.510	0.230	1.660
2020/01/31 23:08:33.9	190.340	-0.480	0.180	1.670
2020/01/31 23:08:34.0	190.330	-0.440	0.130	1.670
2020/01/31 23:08:34.1	190.320	-0.400	0.070	1.670
2020/01/31 23:08:34.2	190.310	-0.360	0.020	1.670
2020/01/31 23:08:34.3	190.300	-0.310	-0.040	1.670
2020/01/31 23:08:34.4	190.290	-0.260	-0.090	1.670
2020/01/31 23:08:34.5	190.280	-0.210	-0.150	1.670
2020/01/31 23:08:34.6	190.260	-0.160	-0.200	1.670
2020/01/31 23:08:34.7	190.240	-0.100	-0.250	1.670
2020/01/31 23:08:34.8	190.230	-0.050	-0.300	1.670
2020/01/31 23:08:34.9	190.210	0.010	-0.350	1.660
2020/01/31 23:08:35.0	190.190	0.070	-0.390	1.660
2020/01/31 23:08:35.1	190.170	0.130	-0.430	1.660
2020/01/31 23:08:35.2	190.150	0.190	-0.470	1.660
2020/01/31 23:08:35.3	190.130	0.240	-0.500	1.650
2020/01/31 23:08:35.4	190.110	0.300	-0.530	1.650
2020/01/31 23:08:35.5	190.090	0.350	-0.550	1.640
2020/01/31 23:08:35.6	190.060	0.400	-0.570	1.640
2020/01/31 23:08:35.7	190.040	0.450	-0.590	1.630
2020/01/31 23:08:35.8	190.020	0.500	-0.600	1.620
2020/01/31 23:08:35.9	190.000	0.550	-0.610	1.610
2020/01/31 23:08:36.0	189.980	0.590	-0.610	1.600
2020/01/31 23:08:36.1	189.960	0.630	-0.610	1.580
2020/01/31 23:08:36.2	189.940	0.660	-0.600	1.570
2020/01/31 23:08:36.3	189.910	0.690	-0.590	1.560
2020/01/31 23:08:36.4	189.890	0.720	-0.580	1.540
2020/01/31 23:08:36.5	189.870	0.740	-0.560	1.520
2020/01/31 23:08:36.6	189.850	0.760	-0.550	1.510
2020/01/31 23:08:36.7	189.830	0.780	-0.520	1.490
2020/01/31 23:08:36.8	189.810	0.790	-0.500	1.470
2020/01/31 23:08:36.9	189.790	0.800	-0.470	1.450
2020/01/31 23:08:37.0	189.770	0.800	-0.440	1.430
2020/01/31 23:08:37.1	189.750	0.800	-0.410	1.410
2020/01/31 23:08:37.2	189.740	0.800	-0.380	1.390
2020/01/31 23:08:37.3	189.720	0.790	-0.350	1.380
2020/01/31 23:08:37.4	189.710	0.780	-0.320	1.360
2020/01/31 23:08:37.5	189.700	0.760	-0.290	1.340
2020/01/31 23:08:37.6	189.690	0.740	-0.260	1.320
2020/01/31 23:08:37.7	189.680	0.720	-0.230	1.300
2020/01/31 23:08:37.8	189.670	0.690	-0.200	1.280
2020/01/31 23:08:37.9	189.670	0.660	-0.180	1.260
2020/01/31 23:08:38.0	189.670	0.630	-0.150	1.250
2020/01/31 23:08:38.1	189.670	0.590	-0.130	1.230
2020/01/31 23:08:38.2	189.670	0.560	-0.100	1.220
2020/01/31 23:08:38.3	189.680	0.520	-0.080	1.210
2020/01/31 23:08:38.4	189.680	0.480	-0.070	1.200
2020/01/31 23:08:38.5	189.690	0.440	-0.050	1.190
2020/01/31 23:08:38.6	189.700	0.400	-0.030	1.190
2020/01/31 23:08:38.7	189.720	0.350	-0.020	1.190
2020/01/31 23:08:38.8	189.730	0.310	-0.010	1.180
2020/01/31 23:08:38.9	189.740	0.260	-0.000	1.180
2020/01/31 23:08:39.0	189.760	0.220	0.000	1.180
2020/01/31 23:08:39.1	189.770	0.180	0.010	1.190
2020/01/31 23:08:39.2	189.790	0.130	0.010	1.190
2020/01/31 23:08:39.3	189.810	0.090	0.010	1.200
2020/01/31 23:08:39.4	189.830	0.050	0.010	1.210
2020/01/31 23:08:39.5	189.850	0.010	0.000	1.220
2020/01/31 23:08:39.6	189.870	-0.030	-0.000	1.240
2020/01/31 23:08:39.7	189.890	-0.070	-0.010	1.250
2020/01/31 23:08:39.8	189.910	-0.100	-0.020	1.270
2020/01/31 23:08:39.9	189.940	-0.140	-0.030	1.290
2020/01/31 23:08:40.0	189.960	-0.170	-0.040	1.310
2020/01/31 23:08:40.1	189.980	-0.200	-0.050	1.340
2020/01/31 23:08:40.2	190.010	-0.230	-0.060	1.360
2020/01/31 23:08:40.3	190.030	-0.260	-0.080	1.390
2020/01/31 23:08:40.4	190.050	-0.280	-0.090	1.420
2020/01/31 23:08:40.5	190.070	-0.310	-0.110	1.460
2020/01/31 23:08:40.6	190.090	-0.330	-0.120	1.490
2020/01/31 23:08:40.7	190.110	-0.350	-0.140	1.530
2020/01/31 23:08:40.8	190.130	-0.370	-0.160	1.570
2020/01/31 23:08:40.9	190.150	-0.380	-0.180	1.600
2020/01/31 23:08:41.0	190.160	-0.390	-0.210	1.650
2020/01/31 23:08:41.1	190.170	-0.400	-0.230	1.690
2020/01/31 23:08:41.2	190.180	-0.410	-0.250	1.730
2020/01/31 23:08:41.3	190.190	-0.420	-0.280	1.770
2020/01/31 23:08:41.4	190.200	-0.420	-0.310	1.810
2020/01/31 23:08:41.5	190.210	-0.420	-0.340	1.860
2020/01/31 23:08:41.6	190.210	-0.420	-0.370	1.900
2020/01/31 23:08:41.7	190.210	-0.410	-0.410	1.940
2020/01/31 23:08:41.8	190.200	-0.410	-0.440	1.980
2020/01/31 23:08:41.9	190.200	-0.400	-0.480	2.010
2020/01/31 23:08:42.0	190.190	-0.380	-0.520	2.050
2020/01/31 23:08:42.1	190.170	-0.370	-0.560	2.090
2020/01/31 23:08:42.2	190.160	-0.350	-0.600	2.120
2020/01/31 23:08:42.3	190.140	-0.330	-0.640	2.150
2020/01/31 23:08:42.4	190.120	-0.300	-0.690	2.180
2020/01/31 23:08:42.5	190.090	-0.280	-0.730	2.200
2020/01/31 23:08:42.6	190.070	-0.250	-0.770	2.220
2020/01/31 23:08:42.7	190.040	-0.220	-0.820	2.240
2020/01/31 23:08:42.8	190.010	-0.180	-0.860	2.250
2020/01/31 23:08:42.9	189.980	-0.150	-0.900	2.260
2020/01/31 23:08:43.0	189.950	-0.110	-0.940	2.260
2020/01/31 23:08:43.1	189.920	-0.070	-0.970	2.270
2020/01/31 23:08:43.2	189.890	-0.030	-1.000	2.260
2020/01/31 23:08:43.3	189.850	0.010	-1.030	2.250
2020/01/31 23:08:43.4	189.820	0.050	-1.050	2.240
2020/01/31 23:08:43.5	189.790	0.080	-1.060	2.220
2020/01/31 23:08:43.6	189.760	0.120	-1.080	2.200
2020/01/31 23:08:43.7	189.730	0.160	-1.080	2.170
2020/01/31 23:08:43.8	189.700	0.200	-1.080	2.140
2020/01/31 23:08:43.9	189.680	0.230	-1.080	2.110
2020/01/31 23:08:44.0	189.660	0.270	-1.070	2.070
2020/01/31 23:08:44.1	189.640	0.300	-1.050	2.030
2020/01/31 23:08:44.2	189.620	0.320	-1.020	1.990
2020/01/31 23:08:44.3	189.600	0.350	-0.990	1.950
2020/01/31 23:08:44.4	189.590	0.370	-0.960	1.900
2020/01/31 23:08:44.5	189.580	0.390	-0.920	1.860
2020/01/31 23:08:44.6	189.560	0.400	-0.870	1.810
2020/01/31 23:08:44.7	189.560	0.410	-0.820	1.760
2020/01/31 23:08:44.8	189.550	0.410	-0.770	1.720
2020/01/31 23:08:44.9	189.540	0.410	-0.720	1.670
2020/01/31 23:08:45.0	189.540	0.410	-0.660	1.620
2020/01/31 23:08:45.1	189.540	0.400	-0.590	1.570
2020/01/31 23:08:45.2	189.540	0.380	-0.530	1.520
2020/01/31 23:08:45.3	189.540	0.360	-0.470	1.480
2020/01/31 23:08:45.4	189.540	0.340	-0.400	1.430
2020/01/31 23:08:45.5	189.540	0.310	-0.340	1.390
2020/01/31 23:08:45.6	189.550	0.280	-0.280	1.360
2020/01/31 23:08:45.7	189.550	0.240	-0.210	1.320
2020/01/31 23:08:45.8	189.560	0.200	-0.150	1.290
2020/01/31 23:08:45.9	189.560	0.160	-0.090	1.260
2020/01/31 23:08:46.0	189.570	0.110	-0.040	1.230
2020/01/31 23:08:46.1	189.570	0.060	0.010	1.200
2020/01/31 23:08:46.2	189.580	0.010	0.060	1.180
2020/01/31 23:08:46.3	189.590	-0.040	0.110	1.160
2020/01/31 23:08:46.4	189.600	-0.100	0.150	1.150
2020/01/31 23:08:46.5	189.610	-0.150	0.190	1.130
2020/01/31 23:08:46.6	189.620	-0.210	0.220	1.130
2020/01/31 23:08:46.7	189.620	-0.260	0.250	1.120
2020/01/31 23:08:46.8	189.630	-0.320	0.270	1.120
2020/01/31 23:08:46.9	189.640	-0.370	0.290	1.120
2020/01/31 23:08:47.0	189.650	-0.420	0.300	1.120
2020/01/31 23:08:47.1	189.640	-0.470	0.310	1.120
2020/01/31 23:08:47.2	189.650	-0.520	0.320	1.130
2020/01/31 23:08:47.3	189.660	-0.570	0.310	1.150
2020/01/31 23:08:47.4	189.660	-0.610	0.310	1.160
2020/01/31 23:08:47.5	189.660	-0.640	0.300	1.180
2020/01/31 23:08:47.6	189.670	-0.670	0.280	1.210
2020/01/31 23:08:47.7	189.670	-0.700	0.270	1.230
2020/01/31 23:08:47.8	189.670	-0.720	0.250	1.260
2020/01/31 23:08:47.9	189.670	-0.740	0.220	1.290
2020/01/31 23:08:48.0	189.670	-0.750	0.200	1.320
2020/01/31 23:08:48.1	189.670	-0.760	0.170	1.350
2020/01/31 23:08:48.2	189.670	-0.760	0.140	1.380
2020/01/31 23:08:48.3	189.670	-0.760	0.120	1.410
2020/01/31 23:08:48.4	189.670	-0.750	0.090	1.440
2020/01/31 23:08:48.5	189.670	-0.740	0.060	1.460
2020/01/31 23:08:48.6	189.680	-0.720	0.030	1.480
2020/01/31 23:08:48.7	189.680	-0.700	0.010	1.490
2020/01/31 23:08:48.8	189.690	-0.670	-0.010	1.510
2020/01/31 23:08:48.9	189.700	-0.640	-0.030	1.520
2020/01/31 23:08:49.0	189.710	-0.600	-0.050	1.520
2020/01/31 23:08:49.1	189.720	-0.560	-0.070	1.520
2020/01/31 23:08:49.2	189.740	-0.520	-0.080	1.510
2020/01/31 23:08:49.3	189.760	-0.480	-0.090	1.510
2020/01/31 23:08:49.4	189.780	-0.430	-0.090	1.500
2020/01/31 23:08:49.5	189.800	-0.390	-0.100	1.480
2020/01/31 23:08:49.6	189.820	-0.340	-0.100	1.460
2020/01/31 23:08:49.7	189.850	-0.290	-0.100	1.440
2020/01/31 23:08:49.8	189.880	-0.240	-0.090	1.410
2020/01/31 23:08:49.9	189.900	-0.190	-0.090	1.380
2020/01/31 23:08:50.0	189.930	-0.140	-0.080	1.350
2020/01/31 23:08:50.1	189.960	-0.090	-0.060	1.320
2020/01/31 23:08:50.2	189.990	-0.040	-0.050	1.290
2020/01/31 23:08:50.3	190.010	0.000	-0.040	1.260
2020/01/31 23:08:50.4	190.040	0.050	-0.030	1.220
2020/01/31 23:08:50.5	190.070	0.090	-0.020	1.190
2020/01/31 23:08:50.6	190.100	0.130	-0.010	1.150
2020/01/31 23:08:50.7	190.130	0.170	0.000	1.120
2020/01/31 23:08:50.8	190.150	0.210	0.010	1.090
2020/01/31 23:08:50.9	190.180	0.240	0.020	1.050
2020/01/31 23:08:51.0	190.200	0.270	0.020	1.020
2020/01/31 23:08:51.1	190.230	0.300	0.020	0.990
2020/01/31 23:08:51.2	190.250	0.330	0.020	0.960
2020/01/31 23:08:51.3	190.270	0.350	0.020	0.930
2020/01/31 23:08:51.4	190.290	0.370	0.020	0.910
2020/01/31 23:08:51.5	190.300	0.390	0.010	0.880
2020/01/31 23:08:51.6	190.320	0.400	0.000	0.860
2020/01/31 23:08:51.7	190.330	0.410	-0.010	0.840
2020/01/31 23:08:51.8	190.340	0.420	-0.020	0.820
2020/01/31 23:08:51.9	190.350	0.430	-0.040	0.810
2020/01/31 23:08:52.0	190.360	0.430	-0.060	0.790
2020/01/31 23:08:52.1	190.370	0.430	-0.070	0.780
2020/01/31 23:08:52.2	190.370	0.430	-0.100	0.770
2020/01/31 23:08:52.3	190.370	0.430	-0.120	0.770
2020/01/31 23:08:52.4	190.360	0.420	-0.150	0.770
2020/01/31 23:08:52.5	190.360	0.420	-0.170	0.770
2020/01/31 23:08:52.6	190.350	0.410	-0.200	0.780
2020/01/31 23:08:52.7	190.340	0.400	-0.230	0.790
2020/01/31 23:08:52.8	190.330	0.390	-0.260	0.810
2020/01/31 23:08:52.9	190.310	0.370	-0.290	0.830
2020/01/31 23:08:53.0	190.290	0.360	-0.320	0.860
2020/01/31 23:08:53.1	190.280	0.350	-0.340	0.900
2020/01/31 23:08:53.2	190.260	0.330	-0.370	0.940
2020/01/31 23:08:53.3	190.240	0.320	-0.400	0.980
2020/01/31 23:08:53.4	190.210	0.300	-0.430	1.020
2020/01/31 23:08:53.5	190.190	0.280	-0.460	1.070
2020/01/31 23:08:53.6	190.160	0.260	-0.490	1.120
2020/01/31 23:08:53.7	190.140	0.250	-0.520	1.170
2020/01/31 23:08:53.8	190.110	0.230	-0.540	1.220
2020/01/31 23:08:53.9	190.090	0.210	-0.570	1.280
2020/01/31 23:08:54.0	190.060	0.190	-0.590	1.330
2020/01/31 23:08:54.1	190.040	0.170	-0.610	1.380
2020/01/31 23:08:54.2	190.010	0.150	-0.630	1.430
2020/01/31 23:08:54.3	189.990	0.140	-0.650	1.480
2020/01/31 23:08:54.4	189.960	0.120	-0.670	1.530
2020/01/31 23:08:54.5	189.940	0.100	-0.680	1.580
2020/01/31 23:08:54.6	189.910	0.080	-0.690	1.620
2020/01/31 23:08:54.7	189.890	0.070	-0.700	1.660
2020/01/31 23:08:54.8	189.870	0.050	-0.710	1.710
2020/01/31 23:08:54.9	189.850	0.040	-0.710	1.740
2020/01/31 23:08:55.0	189.830	0.020	-0.710	1.780
2020/01/31 23:08:55.1	189.800	0.010	-0.710	1.810
2020/01/31 23:08:55.2	189.790	-0.000	-0.710	1.840
2020/01/31 23:08:55.3	189.770	-0.020	-0.700	1.870
2020/01/31 23:08:55.4	189.750	-0.030	-0.700	1.890
2020/01/31 23:08:55.5	189.730	-0.040	-0.690	1.910
2020/01/31 23:08:55.6	189.720	-0.050	-0.680	1.930
2020/01/31 23:08:55.7	189.700	-0.060	-0.670	1.940
2020/01/31 23:08:55.8	189.690	-0.070	-0.650	1.950
2020/01/31 23:08:55.9	189.670	-0.080	-0.640	1.960
2020/01/31 23:08:56.0	189.660	-0.080	-0.620	1.970
2020/01/31 23:08:56.1	189.640	-0.090	-0.600	1.970
2020/01/31 23:08:56.2	189.630	-0.090	-0.580	1.970
2020/01/31 23:08:56.3	189.620	-0.100	-0.560	1.970
2020/01/31 23:08:56.4	189.610	-0.100	-0.530	1.960
2020/01/31 23:08:56.5	189.600	-0.100	-0.510	1.950
2020/01/31 23:08:56.6	189.590	-0.100	-0.480	1.950
2020/01/31 23:08:56.7	189.590	-0.100	-0.460	1.930
2020/01/31 23:08:56.8	189.580	-0.090	-0.430	1.920
2020/01/31 23:08:56.9	189.580	-0.090	-0.400	1.910
2020/01/31 23:08:57.0	189.570	-0.090	-0.370	1.890
2020/01/31 23:08:57.1	189.560	-0.080	-0.340	1.870
2020/01/31 23:08:57.2	189.560	-0.070	-0.310	1.840
2020/01/31 23:08:57.3	189.560	-0.070	-0.280	1.820
2020/01/31 23:08:57.4	189.560	-0.060	-0.250	1.790
2020/01/31 23:08:57.5	189.560	-0.050	-0.220	1.760
2020/01/31 23:08:57.6	189.560	-0.040	-0.180	1.720
2020/01/31 23:08:57.7	189.560	-0.030	-0.150	1.690
2020/01/31 23:08:57.8	189.560	-0.020	-0.120	1.650
2020/01/31 23:08:57.9	189.570	-0.010	-0.090	1.620
2020/01/31 23:08:58.0	189.570	-0.000	-0.060	1.580
2020/01/31 23:08:58.1	189.560	0.010	-0.030	1.530
2020/01/31 23:08:58.2	189.570	0.020	-0.010	1.490
2020/01/31 23:08:58.3	189.570	0.030	0.020	1.450
2020/01/31 23:08:58.4	189.580	0.030	0.040	1.410
2020/01/31 23:08:58.5	189.590	0.040	0.060	1.370
2020/01/31 23:08:58.6	189.600	0.050	0.080	1.330
2020/01/31 23:08:58.7	189.610	0.050	0.100	1.290
2020/01/31 23:08:58.8	189.620	0.050	0.120	1.250
2020/01/31 23:08:58.9	189.630	0.050	0.130	1.220
2020/01/31 23:08:59.0	189.640	0.050	0.140	1.190
2020/01/31 23:08:59.1	189.650	0.050	0.150	1.150
2020/01/31 23:08:59.2	189.670	0.050	0.160	1.120
2020/01/31 23:08:59.3	189.680	0.040	0.160	1.100
2020/01/31 23:08:59.4	189.700	0.030	0.160	1.080
2020/01/31 23:08:59.5	189.710	0.020	0.150	1.060
2020/01/31 23:08:59.6	189.730	0.010	0.150	1.040
2020/01/31 23:08:59.7	189.740	0.000	0.140	1.030
2020/01/31 23:08:59.8	189.760	-0.010	0.130	1.020
2020/01/31 23:08:59.9	189.780	-0.030	0.110	1.020
2020/01/31 23:09:00.0	189.800	-0.050	0.090	1.010
2020/01/31 23:09:00.1	189.820	-0.060	0.070	1.010
2020/01/31 23:09:00.2	189.840	-0.080	0.050	1.010
2020/01/31 23:09:00.3	189.860	-0.100	0.020	1.020
2020/01/31 23:09:00.4	189.870	-0.120	-0.010	1.020
2020/01/31 23:09:00.5	189.890	-0.150	-0.040	1.030
2020/01/31 23:09:00.6	189.910	-0.170	-0.070	1.040
2020/01/31 23:09:00.7	189.930	-0.190	-0.110	1.050
2020/01/31 23:09:00.8	189.940	-0.210	-0.140	1.060
2020/01/31 23:09:00.9	189.960	-0.230	-0.180	1.080
2020/01/31 23:09:01.0	189.980	-0.250	-0.220	1.100
2020/01/31 23:09:01.1	189.990	-0.270	-0.260	1.110
2020/01/31 23:09:01.2	190.000	-0.280	-0.290	1.130
2020/01/31 23:09:01.3	190.020	-0.300	-0.330	1.150
2020/01/31 23:09:01.4	190.030	-0.310	-0.370	1.180
2020/01/31 23:09:01.5	190.040	-0.330	-0.400	1.200
2020/01/31 23:09:01.6	190.050	-0.330	-0.440	1.230
2020/01/31 23:09:01.7	190.050	-0.340	-0.470	1.250
2020/01/31 23:09:01.8	190.060	-0.350	-0.500	1.280
2020/01/31 23:09:01.9	190.060	-0.350	-0.530	1.310
2020/01/31 23:09:02.0	190.060	-0.350	-0.550	1.340
2020/01/31 23:09:02.1	190.070	-0.340	-0.570	1.370
2020/01/31 23:09:02.2	190.060	-0.340	-0.590	1.400
2020/01/31 23:09:02.3	190.060	-0.330	-0.610	1.430
2020/01/31 23:09:02.4	190.060	-0.310	-0.620	1.450
2020/01/31 23:09:02.5	190.050	-0.300	-0.620	1.480
2020/01/31 23:09:02.6	190.040	-0.280	-0.630	1.500
2020/01/31 23:09:02.7	190.030	-0.250	-0.630	1.530
2020/01/31 23:09:02.8	190.020	-0.220	-0.620	1.550
2020/01/31 23:09:02.9	190.010	-0.190	-0.620	1.570
2020/01/31 23:09:03.0	189.990	-0.160	-0.600	1.590
2020/01/31 23:09:03.1	189.980	-0.120	-0.590	1.610
2020/01/31 23:09:03.2	189.960	-0.080	-0.570	1.620
2020/01/31 23:09:03.3	189.950	-0.040	-0.550	1.630
2020/01/31 23:09:03.4	189.930	0.000	-0.520	1.640
2020/01/31 23:09:03.5	189.920	0.050	-0.490	1.640
2020/01/31 23:09:03.6	189.900	0.090	-0.460	1.640
2020/01/31 23:09:03.7	189.890	0.140	-0.430	1.630
2020/01/31 23:09:03.8	189.870	0.190	-0.400	1.630
2020/01/31 23:09:03.9	189.860	0.230	-0.370	1.610
2020/01/31 23:09:04.0	189.850	0.280	-0.340	1.600
2020/01/31 23:09:04.1	189.830	0.330	-0.310	1.580
2020/01/31 23:09:04.2	189.810	0.370	-0.280	1.550
2020/01/31 23:09:04.3	189.800	0.410	-0.250	1.530
2020/01/31 23:09:04.4	189.800	0.450	-0.230	1.500
2020/01/31 23:09:04.5	189.790	0.480	-0.200	1.460
2020/01/31 23:09:04.6	189.780	0.520	-0.180	1.430
2020/01/31 23:09:04.7	189.770	0.540	-0.160	1.390
2020/01/31 23:09:04.8	189.770	0.570	-0.140	1.360
2020/01/31 23:09:04.9	189.770	0.590	-0.130	1.320
2020/01/31 23:09:05.0	189.770	0.600	-0.120	1.280
2020/01/31 23:09:05.1	189.760	0.610	-0.110	1.230
2020/01/31 23:09:05.2	189.770	0.610	-0.110	1.190
2020/01/31 23:09:05.3	189.770	0.610	-0.110	1.150
2020/01/31 23:09:05.4	189.770	0.610	-0.110	1.120
2020/01/31 23:09:05.5	189.780	0.600	-0.120	1.080
2020/01/31 23:09:05.6	189.790	0.580	-0.130	1.050
2020/01/31 23:09:05.7	189.800	0.560	-0.140	1.020
2020/01/31 23:09:05.8	189.800	0.530	-0.160	0.990
2020/01/31 23:09:05.9	189.820	0.500	-0.170	0.970
2020/01/31 23:09:06.0	189.830	0.460	-0.190	0.960
2020/01/31 23:09:06.1	189.840	0.420	-0.220	0.940
2020/01/31 23:09:06.2	189.850	0.380	-0.240	0.930
2020/01/31 23:09:06.3	189.870	0.330	-0.260	0.930
2020/01/31 23:09:06.4	189.880	0.270	-0.290	0.940
2020/01/31 23:09:06.5	189.900	0.220	-0.310	0.950
2020/01/31 23:09:06.6	189.920	0.160	-0.340	0.960
2020/01/31 23:09:06.7	189.930	0.100	-0.370	0.990
2020/01/31 23:09:06.8	189.950	0.040	-0.390	1.020
2020/01/31 23:09:06.9	189.960	-0.020	-0.410	1.050
2020/01/31 23:09:07.0	189.980	-0.090	-0.440	1.090
2020/01/31 23:09:07.1	189.990	-0.150	-0.460	1.140
2020/01/31 23:09:07.2	190.000	-0.210	-0.480	1.180
2020/01/31 23:09:07.3	190.010	-0.280	-0.500	1.240
2020/01/31 23:09:07.4	190.020	-0.340	-0.510	1.290
2020/01/31 23:09:07.5	190.030	-0.400	-0.520	1.350
2020/01/31 23:09:07.6	190.030	-0.460	-0.540	1.410
2020/01/31 23:09:07.7	190.030	-0.510	-0.540	1.470
2020/01/31 23:09:07.8	190.040	-0.560	-0.550	1.530
2020/01/31 23:09:07.9	190.030	-0.610	-0.550	1.590
2020/01/31 23:09:08.0	190.030	-0.650	-0.550	1.660
2020/01/31 23:09:08.1	190.040	-0.690	-0.550	1.730
2020/01/31 23:09:08.2	190.030	-0.730	-0.540	1.790
2020/01/31 23:09:08.3	190.020	-0.760	-0.530	1.850
2020/01/31 23:09:08.4	190.000	-0.780	-0.520	1.920
2020/01/31 23:09:08.5	189.990	-0.800	-0.500	1.980
2020/01/31 23:09:08.6	189.970	-0.820	-0.490	2.040
2020/01/31 23:09:08.7	189.950	-0.820	-0.470	2.100
2020/01/31 23:09:08.8	189.930	-0.830	-0.460	2.160
2020/01/31 23:09:08.9	189.910	-0.820	-0.440	2.210
2020/01/31 23:09:09.0	189.880	-0.810	-0.420	2.270
2020/01/31 23:09:09.1	189.850	-0.790	-0.410	2.320
2020/01/31 23:09:09.2	189.820	-0.770	-0.390	2.360
2020/01/31 23:09:09.3	189.800	-0.740	-0.380	2.400
2020/01/31 23:09:09.4	189.770	-0.710	-0.370	2.430
2020/01/31 23:09:09.5	189.740	-0.670	-0.350	2.460
2020/01/31 23:09:09.6	189.710	-0.630	-0.340	2.480
2020/01/31 23:09:09.7	189.680	-0.580	-0.340	2.500
2020/01/31 23:09:09.8	189.650	-0.530	-0.330	2.510
2020/01/31 23:09:09.9	189.620	-0.470	-0.330	2.520
2020/01/31 23:09:10.0	189.590	-0.410	-0.320	2.520
2020/01/31 23:09:10.1	189.560	-0.350	-0.320	2.510
2020/01/31 23:09:10.2	189.530	-0.290	-0.320	2.500
2020/01/31 23:09:10.3	189.500	-0.220	-0.320	2.490
2020/01/31 23:09:10.4	189.470	-0.150	-0.330	2.470
2020/01/31 23:09:10.5	189.450	-0.090	-0.330	2.450
2020/01/31 23:09:10.6	189.420	-0.020	-0.330	2.420
2020/01/31 23:09:10.7	189.400	0.040	-0.330	2.390
2020/01/31 23:09:10.8	189.380	0.110	-0.330	2.350
2020/01/31 23:09:10.9	189.370	0.170	-0.320	2.310
2020/01/31 23:09:11.0	189.360	0.230	-0.310	2.260
2020/01/31 23:09:11.1	189.350	0.280	-0.300	2.220
2020/01/31 23:09:11.2	189.350	0.340	-0.290	2.160
2020/01/31 23:09:11.3	189.350	0.380	-0.270	2.110
2020/01/31 23:09:11.4	189.350	0.430	-0.240	2.050
2020/01/31 23:09:11.5	189.370	0.460	-0.210	1.980
2020/01/31 23:09:11.6	189.380	0.500	-0.180	1.920
2020/01/31 23:09:11.7	189.410	0.520	-0.140	1.850
2020/01/31 23:09:11.8	189.440	0.540	-0.090	1.770
2020/01/31 23:09:11.9	189.470	0.560	-0.040	1.700
2020/01/31 23:09:12.0	189.510	0.570	0.010	1.620
2020/01/31 23:09:12.1	189.570	0.570	0.070	1.530
2020/01/31 23:09:12.2	189.620	0.570	0.140	1.460
2020/01/31 23:09:12.3	189.680	0.560	0.200	1.380
2020/01/31 23:09:12.4	189.730	0.540	0.270	1.300
2020/01/31 23:09:12.5	189.790	0.530	0.340	1.220
2020/01/31 23:09:12.6	189.860	0.500	0.410	1.140
2020/01/31 23:09:12.7	189.920	0.470	0.480	1.070
2020/01/31 23:09:12.8	189.980	0.440	0.550	0.990
2020/01/31 23:09:12.9	190.050	0.400	0.620	0.920
2020/01/31 23:09:13.0	190.110	0.360	0.680	0.860
2020/01/31 23:09:13.1	190.170	0.320	0.730	0.790
2020/01/31 23:09:13.2	190.230	0.280	0.780	0.740
2020/01/31 23:09:13.3	190.280	0.240	0.820	0.690
2020/01/31 23:09:13.4	190.340	0.190	0.850	0.650
2020/01/31 23:09:13.5	190.380	0.150	0.870	0.610
2020/01/31 23:09:13.6	190.430	0.110	0.880	0.590
2020/01/31 23:09:13.7	190.470	0.070	0.880	0.570
2020/01/31 23:09:13.8	190.500	0.030	0.870	0.560
2020/01/31 23:09:13.9	190.520	-0.000	0.850	0.560
2020/01/31 23:09:14.0	190.540	-0.030	0.810	0.560
2020/01/31 23:09:14.1	190.550	-0.060	0.770	0.580
2020/01/31 23:09:14.2	190.560	-0.080	0.710	0.600
2020/01/31 23:09:14.3	190.560	-0.100	0.640	0.630
2020/01/31 23:09:14.4	190.550	-0.110	0.560	0.670
2020/01/31 23:09:14.5	190.540	-0.120	0.460	0.720
2020/01/31 23:09:14.6	190.520	-0.120	0.360	0.780
2020/01/31 23:09:14.7	190.490	-0.120	0.260	0.840
2020/01/31 23:09:14.8	190.460	-0.110	0.140	0.900
2020/01/31 23:09:14.9	190.420	-0.100	0.020	0.980
2020/01/31 23:09:15.0	190.380	-0.080	-0.100	1.050
2020/01/31 23:09:15.1	190.340	-0.060	-0.230	1.140
2020/01/31 23:09:15.2	190.290	-0.030	-0.350	1.220
2020/01/31 23:09:15.3	190.240	-0.010	-0.480	1.310
2020/01/31 23:09:15.4	190.190	0.030	-0.600	1.390
2020/01/31 23:09:15.5	190.140	0.060	-0.720	1.480
2020/01/31 23:09:15.6	190.080	0.090	-0.830	1.560
2020/01/31 23:09:15.7	190.030	0.130	-0.940	1.650
2020/01/31 23:09:15.8	189.980	0.170	-1.040	1.730
2020/01/31 23:09:15.9	189.920	0.210	-1.130	1.810
2020/01/31 23:09:16.0	189.870	0.240	-1.210	1.880
2020/01/31 23:09:16.1	189.820	0.280	-1.280	1.960
2020/01/31 23:09:16.2	189.780	0.310	-1.340	2.030
2020/01/31 23:09:16.3	189.730	0.340	-1.400	2.090
2020/01/31 23:09:16.4	189.690	0.370	-1.430	2.140
2020/01/31 23:09:16.5	189.650	0.400	-1.460	2.200
2020/01/31 23:09:16.6	189.620	0.420	-1.480	2.240
2020/01/31 23:09:16.7	189.590	0.440	-1.480	2.280
2020/01/31 23:09:16.8	189.560	0.450	-1.480	2.310
2020/01/31 23:09:16.9	189.540	0.460	-1.460	2.340
2020/01/31 23:09:17.0	189.520	0.460	-1.430	2.360
2020/01/31 23:09:17.1	189.520	0.460	-1.400	2.370
2020/01/31 23:09:17.2	189.510	0.460	-1.350	2.380
2020/01/31 23:09:17.3	189.510	0.450	-1.290	2.380
2020/01/31 23:09:17.4	189.510	0.430	-1.230	2.380
2020/01/31 23:09:17.5	189.510	0.410	-1.160	2.370
2020/01/31 23:09:17.6	189.520	0.390	-1.080	2.350
2020/01/31 23:09:17.7	189.540	0.360	-1.000	2.330
2020/01/31 23:09:17.8	189.550	0.320	-0.910	2.310
2020/01/31 23:09:17.9	189.580	0.290	-0.820	2.280
2020/01/31 23:09:18.0	189.600	0.250	-0.730	2.250
2020/01/31 23:09:18.1	189.620	0.210	-0.630	2.210
2020/01/31 23:09:18.2	189.650	0.160	-0.540	2.180
2020/01/31 23:09:18.3	189.680	0.120	-0.450	2.130
2020/01/31 23:09:18.4	189.720	0.070	-0.360	2.090
2020/01/31 23:09:18.5	189.760	0.020	-0.270	2.040
2020/01/31 23:09:18.6	189.800	-0.030	-0.190	2.000
2020/01/31 23:09:18.7	189.840	-0.080	-0.110	1.950
2020/01/31 23:09:18.8	189.880	-0.130	-0.040	1.900
2020/01/31 23:09:18.9	189.920	-0.170	0.030	1.850
2020/01/31 23:09:19.0	189.960	-0.220	0.090	1.790
2020/01/31 23:09:19.1	189.990	-0.260	0.140	1.740
2020/01/31 23:09:19.2	190.030	-0.300	0.180	1.690
2020/01/31 23:09:19.3	190.060	-0.330	0.220	1.640
2020/01/31 23:09:19.4	190.100	-0.360	0.240	1.590
2020/01/31 23:09:19.5	190.130	-0.390	0.250	1.540
2020/01/31 23:09:19.6	190.160	-0.410	0.260	1.490
2020/01/31 23:09:19.7	190.180	-0.430	0.250	1.450
2020/01/31 23:09:19.8	190.210	-0.440	0.240	1.400
2020/01/31 23:09:19.9	190.230	-0.450	0.210	1.360
2020/01/31 23:09:20.0	190.240	-0.450	0.180	1.320
2020/01/31 23:09:20.1	190.240	-0.450	0.140	1.290
2020/01/31 23:09:20.2	190.260	-0.440	0.090	1.250
2020/01/31 23:09:20.3	190.270	-0.430	0.030	1.220
2020/01/31 23:09:20.4	190.270	-0.420	-0.030	1.190
2020/01/31 23:09:20.5	190.280	-0.400	-0.100	1.160
2020/01/31 23:09:20.6	190.280	-0.370	-0.180	1.140
2020/01/31 23:09:20.7	190.280	-0.350	-0.250	1.110
2020/01/31 23:09:20.8	190.280	-0.320	-0.330	1.090
2020/01/31 23:09:20.9	190.270	-0.290	-0.410	1.080
2020/01/31 23:09:21.0	190.270	-0.260	-0.500	1.060
2020/01/31 23:09:21.1	190.270	-0.220	-0.580	1.050
2020/01/31 23:09:21.2	190.260	-0.190	-0.660	1.040
2020/01/31 23:09:21.3	190.250	-0.150	-0.730	1.040
2020/01/31 23:09:21.4	190.240	-0.120	-0.800	1.040
2020/01/31 23:09:21.5	190.230	-0.080	-0.870	1.040
2020/01/31 23:09:21.6	190.220	-0.050	-0.930	1.050
2020/01/31 23:09:21.7	190.200	-0.020	-0.990	1.060
2020/01/31 23:09:21.8	190.190	0.010	-1.030	1.070
2020/01/31 23:09:21.9	190.180	0.040	-1.070	1.090
2020/01/31 23:09:22.0	190.160	0.070	-1.100	1.100
2020/01/31 23:09:22.1	190.160	0.090	-1.130	1.120
2020/01/31 23:09:22.2	190.140	0.110	-1.140	1.140
2020/01/31 23:09:22.3	190.130	0.130	-1.140	1.150
2020/01/31 23:09:22.4	190.120	0.140	-1.130	1.170
2020/01/31 23:09:22.5	190.120	0.150	-1.110	1.200
2020/01/31 23:09:22.6	190.110	0.150	-1.080	1.220
2020/01/31 23:09:22.7	190.100	0.150	-1.040	1.240
2020/01/31 23:09:22.8	190.100	0.150	-0.990	1.260
2020/01/31 23:09:22.9	190.090	0.140	-0.930	1.290
2020/01/31 23:09:23.0	190.090	0.130	-0.860	1.310
2020/01/31 23:09:23.1	190.080	0.120	-0.780	1.340
2020/01/31 23:09:23.2	190.080	0.100	-0.700	1.360
2020/01/31 23:09:23.3	190.080	0.080	-0.610	1.390
2020/01/31 23:09:23.4	190.090	0.050	-0.510	1.410
2020/01/31 23:09:23.5	190.090	0.030	-0.410	1.440
2020/01/31 23:09:23.6	190.090	-0.000	-0.300	1.460
2020/01/31 23:09:23.7	190.100	-0.040	-0.200	1.490
2020/01/31 23:09:23.8	190.100	-0.070	-0.090	1.520
2020/01/31 23:09:23.9	190.110	-0.100	0.020	1.540
2020/01/31 23:09:24.0	190.120	-0.140	0.130	1.560
2020/01/31 23:09:24.1	190.120	-0.170	0.230	1.580
2020/01/31 23:09:24.2	190.130	-0.210	0.340	1.610
2020/01/31 23:09:24.3	190.140	-0.240	0.440	1.630
2020/01/31 23:09:24.4	190.150	-0.280	0.530	1.640
2020/01/31 23:09:24.5	190.160	-0.310	0.620	1.660
2020/01/31 23:09:24.6	190.170	-0.340	0.710	1.670
2020/01/31 23:09:24.7	190.180	-0.370	0.790	1.690
2020/01/31 23:09:24.8	190.200	-0.390	0.850	1.700
2020/01/31 23:09:24.9	190.210	-0.420	0.920	1.700
2020/01/31 23:09:25.0	190.220	-0.440	0.970	1.710
2020/01/31 23:09:25.1	190.220	-0.450	1.010	1.720
2020/01/31 23:09:25.2	190.230	-0.460	1.050	1.720
2020/01/31 23:09:25.3	190.240	-0.470	1.070	1.720
2020/01/31 23:09:25.4	190.240	-0.480	1.080	1.730
2020/01/31 23:09:25.5	190.250	-0.470	1.090	1.730
2020/01/31 23:09:25.6	190.260	-0.470	1.080	1.730
2020/01/31 23:09:25.7	190.260	-0.460	1.070	1.730
2020/01/31 23:09:25.8	190.270	-0.450	1.040	1.730
2020/01/31 23:09:25.9	190.270	-0.430	1.010	1.730
2020/01/31 23:09:26.0	190.270	-0.410	0.970	1.730
2020/01/31 23:09:26.1	190.260	-0.380	0.910	1.720
2020/01/31 23:09:26.2	190.260	-0.350	0.850	1.730
2020/01/31 23:09:26.3	190.260	-0.320	0.790	1.730
2020/01/31 23:09:26.4	190.250	-0.280	0.720	1.730
2020/01/31 23:09:26.5	190.250	-0.240	0.640	1.730
2020/01/31 23:09:26.6	190.240	-0.200	0.560	1.740
2020/01/31 23:09:26.7	190.230	-0.160	0.470	1.740
2020/01/31 23:09:26.8	190.220	-0.110	0.380	1.740
2020/01/31 23:09:26.9	190.210	-0.060	0.290	1.750
2020/01/31 23:09:27.0	190.190	-0.010	0.190	1.750
2020/01/31 23:09:27.1	190.180	0.040	0.100	1.750
2020/01/31 23:09:27.2	190.160	0.090	0.010	1.760
2020/01/31 23:09:27.3	190.140	0.150	-0.090	1.760
2020/01/31 23:09:27.4	190.120	0.200	-0.180	1.760
2020/01/31 23:09:27.5	190.110	0.250	-0.260	1.760
2020/01/31 23:09:27.6	190.090	0.300	-0.350	1.750
2020/01/31 23:09:27.7	190.070	0.350	-0.430	1.750
2020/01/31 23:09:27.8	190.050	0.400	-0.500	1.740
2020/01/31 23:09:27.9	190.030	0.440	-0.570	1.730
2020/01/31 23:09:28.0	190.010	0.490	-0.630	1.710
2020/01/31 23:09:28.1	190.000	0.530	-0.690	1.700
2020/01/31 23:09:28.2	189.980	0.570	-0.740	1.680
2020/01/31 23:09:28.3	189.960	0.600	-0.780	1.660
2020/01/31 23:09:28.4	189.950	0.630	-0.820	1.630
2020/01/31 23:09:28.5	189.940	0.660	-0.840	1.610
2020/01/31 23:09:28.6	189.930	0.680	-0.860	1.580
2020/01/31 23:09:28.7	189.920	0.700	-0.870	1.550
2020/01/31 23:09:28.8	189.910	0.720	-0.880	1.520
2020/01/31 23:09:28.9	189.910	0.730	-0.870	1.490
2020/01/31 23:09:29.0	189.900	0.730	-0.860	1.450
2020/01/31 23:09:29.1	189.900	0.740	-0.850	1.410
2020/01/31 23:09:29.2	189.900	0.730	-0.830	1.380
2020/01/31 23:09:29.3	189.900	0.730	-0.800	1.340
2020/01/31 23:09:29.4	189.900	0.710	-0.770	1.310
2020/01/31 23:09:29.5	189.900	0.700	-0.740	1.270
2020/01/31 23:09:29.6	189.910	0.680	-0.710	1.240
2020/01/31 23:09:29.7	189.910	0.660	-0.670	1.200
2020/01/31 23:09:29.8	189.910	0.630	-0.630	1.170
2020/01/31 23:09:29.9	189.920	0.600	-0.600	1.140
2020/01/31 23:09:30.0	189.930	0.570	-0.560	1.110
2020/01/31 23:09:30.1	189.940	0.530	-0.520	1.080
2020/01/31 23:09:30.2	189.950	0.500	-0.490	1.050
2020/01/31 23:09:30.3	189.950	0.460	-0.460	1.030
2020/01/31 23:09:30.4	189.960	0.420	-0.420	1.000
2020/01/31 23:09:30.5	189.960	0.380	-0.400	0.980
2020/01/31 23:09:30.6	189.970	0.330	-0.370	0.960
2020/01/31 23:09:30.7	189.970	0.290	-0.360	0.950
2020/01/31 23:09:30.8	189.970	0.250	-0.340	0.930
2020/01/31 23:09:30.9	189.970	0.210	-0.330	0.920
2020/01/31 23:09:31.0	189.970	0.170	-0.330	0.910
2020/01/31 23:09:31.1	189.980	0.130	-0.320	0.910
2020/01/31 23:09:31.2	189.970	0.090	-0.330	0.910
2020/01/31 23:09:31.3	189.970	0.050	-0.330	0.910
2020/01/31 23:09:31.4	189.960	0.010	-0.350	0.920
2020/01/31 23:09:31.5	189.960	-0.020	-0.360	0.920
2020/01/31 23:09:31.6	189.950	-0.050	-0.380	0.930
2020/01/31 23:09:31.7	189.950	-0.080	-0.400	0.950
2020/01/31 23:09:31.8	189.940	-0.110	-0.430	0.960
2020/01/31 23:09:31.9	189.930	-0.140	-0.460	0.980
2020/01/31 23:09:32.0	189.920	-0.160	-0.490	1.000
2020/01/31 23:09:32.1	189.910	-0.180	-0.510	1.020
2020/01/31 23:09:32.2	189.910	-0.200	-0.540	1.050
2020/01/31 23:09:32.3	189.900	-0.220	-0.580	1.070
2020/01/31 23:09:32.4	189.890	-0.240	-0.610	1.100
2020/01/31 23:09:32.5	189.890	-0.250	-0.630	1.120
2020/01/31 23:09:32.6	189.880	-0.270	-0.660	1.150
2020/01/31 23:09:32.7	189.880	-0.280	-0.690	1.180
2020/01/31 23:09:32.8	189.880	-0.290	-0.710	1.210
2020/01/31 23:09:32.9	189.880	-0.300	-0.730	1.240
2020/01/31 23:09:33.0	189.880	-0.300	-0.740	1.260
2020/01/31 23:09:33.1	189.880	-0.310	-0.760	1.290
2020/01/31 23:09:33.2	189.890	-0.320	-0.770	1.320
2020/01/31 23:09:33.3	189.890	-0.320	-0.770	1.350
2020/01/31 23:09:33.4	189.900	-0.330	-0.770	1.370
2020/01/31 23:09:33.5	189.900	-0.330	-0.760	1.400
2020/01/31 23:09:33.6	189.910	-0.340	-0.750	1.430
2020/01/31 23:09:33.7	189.920	-0.340	-0.740	1.450
2020/01/31 23:09:33.8	189.930	-0.340	-0.720	1.480
2020/01/31 23:09:33.9	189.930	-0.340	-0.700	1.500
2020/01/31 23:09:34.0	189.940	-0.350	-0.680	1.520
2020/01/31 23:09:34.1	189.950	-0.350	-0.640	1.550
2020/01/31 23:09:34.2	189.960	-0.350	-0.610	1.570
2020/01/31 23:09:34.3	189.970	-0.350	-0.580	1.590
2020/01/31 23:09:34.4	189.980	-0.350	-0.540	1.620
2020/01/31 23:09:34.5	189.990	-0.350	-0.500	1.640
2020/01/31 23:09:34.6	190.000	-0.350	-0.460	1.650
2020/01/31 23:09:34.7	190.010	-0.340	-0.420	1.670
2020/01/31 23:09:34.8	190.010	-0.340	-0.380	1.690
2020/01/31 23:09:34.9	190.020	-0.340	-0.340	1.710
2020/01/31 23:09:35.0	190.030	-0.330	-0.300	1.720
2020/01/31 23:09:35.1	190.030	-0.330	-0.260	1.740
2020/01/31 23:09:35.2	190.030	-0.320	-0.220	1.750
2020/01/31 23:09:35.3	190.040	-0.310	-0.180	1.760
2020/01/31 23:09:35.4	190.040	-0.300	-0.150	1.770
2020/01/31 23:09:35.5	190.040	-0.290	-0.110	1.780
2020/01/31 23:09:35.6	190.040	-0.280	-0.080	1.790
2020/01/31 23:09:35.7	190.040	-0.270	-0.050	1.800
2020/01/31 23:09:35.8	190.040	-0.250	-0.020	1.800
2020/01/31 23:09:35.9	190.030	-0.240	0.000	1.800
2020/01/31 23:09:36.0	190.020	-0.220	0.030	1.810
2020/01/31 23:09:36.1	190.010	-0.210	0.060	1.810
2020/01/31 23:09:36.2	190.000	-0.190	0.080	1.810
2020/01/31 23:09:36.3	189.980	-0.170	0.100	1.800
2020/01/31 23:09:36.4	189.970	-0.150	0.110	1.800
2020/01/31 23:09:36.5	189.950	-0.130	0.130	1.800
2020/01/31 23:09:36.6	189.930	-0.110	0.140	1.800
2020/01/31 23:09:36.7	189.910	-0.090	0.150	1.790
2020/01/31 23:09:36.8	189.880	-0.070	0.160	1.790
2020/01/31 23:09:36.9	189.860	-0.050	0.160	1.790
2020/01/31 23:09:37.0	189.830	-0.020	0.170	1.780
2020/01/31 23:09:37.1	189.800	-0.000	0.160	1.780
2020/01/31 23:09:37.2	189.770	0.020	0.160	1.780
2020/01/31 23:09:37.3	189.730	0.040	0.160	1.770
2020/01/31 23:09:37.4	189.700	0.060	0.150	1.770
2020/01/31 23:09:37.5	189.670	0.080	0.150	1.760
2020/01/31 23:09:37.6	189.640	0.100	0.140	1.760
2020/01/31 23:09:37.7	189.610	0.120	0.130	1.750
2020/01/31 23:09:37.8	189.580	0.140	0.120	1.740
2020/01/31 23:09:37.9	189.560	0.150	0.100	1.730
2020/01/31 23:09:38.0	189.530	0.170	0.090	1.720
2020/01/31 23:09:38.1	189.510	0.180	0.070	1.710
2020/01/31 23:09:38.2	189.480	0.190	0.060	1.700
2020/01/31 23:09:38.3	189.460	0.200	0.040	1.680
2020/01/31 23:09:38.4	189.440	0.210	0.020	1.670
2020/01/31 23:09:38.5	189.430	0.210	0.000	1.660
2020/01/31 23:09:38.6	189.420	0.210	-0.010	1.640
2020/01/31 23:09:38.7	189.410	0.210	-0.030	1.630
2020/01/31 23:09:38.8	189.400	0.210	-0.040	1.610
2020/01/31 23:09:38.9	189.400	0.200	-0.060	1.590
2020/01/31 23:09:39.0	189.400	0.200	-0.070	1.570
2020/01/31 23:09:39.1	189.410	0.190	-0.080	1.550
2020/01/31 23:09:39.2	189.410	0.180	-0.090	1.530
2020/01/31 23:09:39.3	189.420	0.160	-0.100	1.510
2020/01/31 23:09:39.4	189.430	0.150	-0.110	1.500
2020/01/31 23:09:39.5	189.450	0.130	-0.110	1.480
2020/01/31 23:09:39.6	189.460	0.110	-0.110	1.470
2020/01/31 23:09:39.7	189.480	0.090	-0.110	1.460
2020/01/31 23:09:39.8	189.500	0.070	-0.110	1.450
2020/01/31 23:09:39.9	189.530	0.050	-0.100	1.440
2020/01/31 23:09:40.0	189.550	0.030	-0.090	1.440
2020/01/31 23:09:40.1	189.580	0.000	-0.080	1.430
2020/01/31 23:09:40.2	189.610	-0.020	-0.070	1.430
2020/01/31 23:09:40.3	189.630	-0.040	-0.060	1.440
2020/01/31 23:09:40.4	189.660	-0.070	-0.050	1.440
2020/01/31 23:09:40.5	189.690	-0.090	-0.040	1.450
2020/01/31 23:09:40.6	189.720	-0.110	-0.030	1.460
2020/01/31 23:09:40.7	189.740	-0.130	-0.020	1.470
2020/01/31 23:09:40.8	189.770	-0.150	-0.010	1.480
2020/01/31 23:09:40.9	189.790	-0.170	-0.000	1.490
2020/01/31 23:09:41.0	189.820	-0.180	0.010	1.510
2020/01/31 23:09:41.1	189.830	-0.200	0.010	1.520
2020/01/31 23:09:41.2	189.850	-0.210	0.010	1.540
2020/01/31 23:09:41.3	189.860	-0.210	0.010	1.560
2020/01/31 23:09:41.4	189.870	-0.220	0.000	1.570
2020/01/31 23:09:41.5	189.880	-0.220	-0.010	1.590
2020/01/31 23:09:41.6	189.890	-0.220	-0.020	1.610
2020/01/31 23:09:41.7	189.890	-0.210	-0.030	1.630
2020/01/31 23:09:41.8	189.890	-0.200	-0.060	1.640
2020/01/31 23:09:41.9	189.890	-0.190	-0.080	1.660
2020/01/31 23:09:42.0	189.880	-0.170	-0.110	1.680
2020/01/31 23:09:42.1	189.870	-0.150	-0.140	1.700
2020/01/31 23:09:42.2	189.860	-0.130	-0.170	1.720
2020/01/31 23:09:42.3	189.850	-0.110	-0.210	1.730
2020/01/31 23:09:42.4	189.830	-0.080	-0.250	1.750
2020/01/31 23:09:42.5	189.810	-0.050	-0.300	1.760
2020/01/31 23:09:42.6	189.790	-0.010	-0.340	1.770
2020/01/31 23:09:42.7	189.770	0.020	-0.390	1.790
2020/01/31 23:09:42.8	189.750	0.060	-0.430	1.800
2020/01/31 23:09:42.9	189.730	0.100	-0.480	1.810
2020/01/31 23:09:43.0	189.700	0.140	-0.530	1.820
2020/01/31 23:09:43.1	189.680	0.170	-0.570	1.820
2020/01/31 23:09:43.2	189.660	0.210	-0.610	1.830
2020/01/31 23:09:43.3	189.640	0.250	-0.650	1.840
2020/01/31 23:09:43.4	189.620	0.290	-0.690	1.840
2020/01/31 23:09:43.5	189.600	0.330	-0.730	1.840
2020/01/31 23:09:43.6	189.580	0.360	-0.760	1.840
2020/01/31 23:09:43.7	189.570	0.390	-0.780	1.830
2020/01/31 23:09:43.8	189.550	0.430	-0.800	1.820
2020/01/31 23:09:43.9	189.540	0.450	-0.820	1.810
2020/01/31 23:09:44.0	189.530	0.480	-0.830	1.800
2020/01/31 23:09:44.1	189.520	0.500	-0.840	1.780
2020/01/31 23:09:44.2	189.520	0.520	-0.850	1.760
2020/01/31 23:09:44.3	189.520	0.540	-0.840	1.730
2020/01/31 23:09:44.4	189.520	0.550	-0.830	1.700
2020/01/31 23:09:44.5	189.530	0.560	-0.820	1.660
2020/01/31 23:09:44.6	189.530	0.560	-0.800	1.620
2020/01/31 23:09:44.7	189.550	0.560	-0.780	1.570
2020/01/31 23:09:44.8	189.560	0.560	-0.760	1.530
2020/01/31 23:09:44.9	189.580	0.550	-0.730	1.480
2020/01/31 23:09:45.0	189.590	0.540	-0.700	1.420
2020/01/31 23:09:45.1	189.620	0.530	-0.660	1.360
2020/01/31 23:09:45.2	189.640	0.510	-0.630	1.310
2020/01/31 23:09:45.3	189.660	0.490	-0.600	1.260
2020/01/31 23:09:45.4	189.680	0.460	-0.560	1.200
2020/01/31 23:09:45.5	189.710	0.430	-0.530	1.150
2020/01/31 23:09:45.6	189.730	0.400	-0.490	1.100
2020/01/31 23:09:45.7	189.760	0.360	-0.460	1.050
2020/01/31 23:09:45.8	189.780	0.330	-0.430	1.010
2020/01/31 23:09:45.9	189.810	0.290	-0.400	0.970
2020/01/31 23:09:46.0	189.830	0.250	-0.370	0.930
2020/01/31 23:09:46.1	189.850	0.200	-0.350	0.900
2020/01/31 23:09:46.2	189.870	0.160	-0.330	0.880
2020/01/31 23:09:46.3	189.890	0.120	-0.310	0.860
2020/01/31 23:09:46.4	189.910	0.070	-0.300	0.840
2020/01/31 23:09:46.5	189.930	0.020	-0.280	0.840
2020/01/31 23:09:46.6	189.940	-0.030	-0.280	0.840
2020/01/31 23:09:46.7	189.960	-0.070	-0.270	0.840
2020/01/31 23:09:46.8	189.970	-0.120	-0.270	0.850
2020/01/31 23:09:46.9	189.980	-0.170	-0.270	0.870
2020/01/31 23:09:47.0	189.990	-0.210	-0.270	0.900
2020/01/31 23:09:47.1	189.980	-0.260	-0.270	0.920
2020/01/31 23:09:47.2	189.990	-0.300	-0.280	0.960
2020/01/31 23:09:47.3	189.990	-0.340	-0.280	1.000
2020/01/31 23:09:47.4	190.000	-0.380	-0.290	1.040
2020/01/31 23:09:47.5	190.000	-0.420	-0.290	1.080
2020/01/31 23:09:47.6	190.000	-0.460	-0.300	1.130
2020/01/31 23:09:47.7	190.000	-0.490	-0.310	1.180
2020/01/31 23:09:47.8	190.000	-0.520	-0.310	1.230
2020/01/31 23:09:47.9	189.990	-0.550	-0.320	1.290
2020/01/31 23:09:48.0	189.990	-0.570	-0.320	1.340
2020/01/31 23:09:48.1	189.990	-0.600	-0.310	1.400
2020/01/31 23:09:48.2	189.980	-0.620	-0.310	1.450
2020/01/31 23:09:48.3	189.980	-0.630	-0.300	1.500
2020/01/31 23:09:48.4	189.970	-0.650	-0.290	1.540
2020/01/31 23:09:48.5	189.970	-0.660	-0.280	1.590
2020/01/31 23:09:48.6	189.960	-0.660	-0.270	1.630
2020/01/31 23:09:48.7	189.950	-0.670	-0.250	1.670
2020/01/31 23:09:48.8	189.940	-0.660	-0.230	1.710
2020/01/31 23:09:48.9	189.940	-0.660	-0.210	1.750
2020/01/31 23:09:49.0	189.930	-0.650	-0.180	1.780
2020/01/31 23:09:49.1	189.920	-0.640	-0.160	1.810
2020/01/31 23:09:49.2	189.910	-0.620	-0.130	1.830
2020/01/31 23:09:49.3	189.890	-0.600	-0.100	1.860
2020/01/31 23:09:49.4	189.880	-0.580	-0.070	1.880
2020/01/31 23:09:49.5	189.860	-0.550	-0.040	1.900
2020/01/31 23:09:49.6	189.850	-0.520	-0.010	1.910
2020/01/31 23:09:49.7	189.830	-0.480	0.020	1.920
2020/01/31 23:09:49.8	189.810	-0.450	0.040	1.940
2020/01/31 23:09:49.9	189.790	-0.410	0.070	1.940
2020/01/31 23:09:50.0	189.770	-0.360	0.090	1.950
2020/01/31 23:09:50.1	189.740	-0.320	0.110	1.950
2020/01/31 23:09:50.2	189.720	-0.270	0.130	1.950
2020/01/31 23:09:50.3	189.700	-0.220	0.140	1.950
2020/01/31 23:09:50.4	189.670	-0.170	0.160	1.940
2020/01/31 23:09:50.5	189.650	-0.120	0.170	1.940
2020/01/31 23:09:50.6	189.630	-0.060	0.170	1.930
2020/01/31 23:09:50.7	189.610	-0.010	0.170	1.920
2020/01/31 23:09:50.8	189.580	0.050	0.170	1.910
2020/01/31 23:09:50.9	189.560	0.100	0.170	1.890
2020/01/31 23:09:51.0	189.540	0.160	0.170	1.870
2020/01/31 23:09:51.1	189.520	0.210	0.160	1.860
2020/01/31 23:09:51.2	189.500	0.260	0.150	1.830
2020/01/31 23:09:51.3	189.490	0.310	0.140	1.810
2020/01/31 23:09:51.4	189.470	0.350	0.120	1.790
2020/01/31 23:09:51.5	189.460	0.400	0.110	1.760
2020/01/31 23:09:51.6	189.440	0.440	0.090	1.730
2020/01/31 23:09:51.7	189.430	0.480	0.080	1.700
2020/01/31 23:09:51.8	189.430	0.510	0.060	1.670
2020/01/31 23:09:51.9	189.420	0.540	0.050	1.640
2020/01/31 23:09:52.0	189.420	0.560	0.030	1.610
2020/01/31 23:09:52.1	189.430	0.580	0.010	1.570
2020/01/31 23:09:52.2	189.430	0.600	-0.000	1.540
2020/01/31 23:09:52.3	189.430	0.610	-0.010	1.500
2020/01/31 23:09:52.4	189.440	0.620	-0.030	1.470
2020/01/31 23:09:52.5	189.450	0.620	-0.040	1.440
2020/01/31 23:09:52.6	189.460	0.610	-0.050	1.410
2020/01/31 23:09:52.7	189.470	0.610	-0.060	1.380
2020/01/31 23:09:52.8	189.480	0.590	-0.070	1.350
2020/01/31 23:09:52.9	189.490	0.570	-0.080	1.330
2020/01/31 23:09:53.0	189.510	0.550	-0.080	1.310
2020/01/31 23:09:53.1	189.530	0.520	-0.090	1.290
2020/01/31 23:09:53.2	189.540	0.490	-0.100	1.270
2020/01/31 23:09:53.3	189.550	0.460	-0.110	1.260
2020/01/31 23:09:53.4	189.560	0.420	-0.120	1.260
2020/01/31 23:09:53.5	189.570	0.380	-0.130	1.260
2020/01/31 23:09:53.6	189.580	0.340	-0.150	1.260
2020/01/31 23:09:53.7	189.590	0.290	-0.160	1.270
2020/01/31 23:09:53.8	189.590	0.250	-0.180	1.280
2020/01/31 23:09:53.9	189.600	0.200	-0.190	1.290
2020/01/31 23:09:54.0	189.600	0.150	-0.210	1.310
2020/01/31 23:09:54.1	189.600	0.100	-0.230	1.330
2020/01/31 23:09:54.2	189.600	0.050	-0.240	1.360
2020/01/31 23:09:54.3	189.610	-0.000	-0.260	1.390
2020/01/31 23:09:54.4	189.610	-0.050	-0.280	1.420
2020/01/31 23:09:54.5	189.610	-0.100	-0.290	1.450
2020/01/31 23:09:54.6	189.620	-0.150	-0.310	1.480
2020/01/31 23:09:54.7	189.620	-0.190	-0.320	1.510
2020/01/31 23:09:54.8	189.620	-0.240	-0.330	1.550
2020/01/31 23:09:54.9	189.630	-0.280	-0.340	1.580
2020/01/31 23:09:55.0	189.630	-0.320	-0.350	1.610
2020/01/31 23:09:55.1	189.640	-0.360	-0.360	1.640
2020/01/31 23:09:55.2	189.640	-0.390	-0.370	1.680
2020/01/31 23:09:55.3	189.650	-0.420	-0.380	1.710
2020/01/31 23:09:55.4	189.650	-0.450	-0.400	1.740
2020/01/31 23:09:55.5	189.660	-0.470	-0.410	1.760
2020/01/31 23:09:55.6	189.660	-0.490	-0.420	1.790
2020/01/31 23:09:55.7	189.660	-0.510	-0.430	1.820
2020/01/31 23:09:55.8	189.660	-0.520	-0.450	1.850
2020/01/31 23:09:55.9	189.670	-0.530	-0.460	1.870
2020/01/31 23:09:56.0	189.670	-0.530	-0.480	1.900
2020/01/31 23:09:56.1	189.660	-0.530	-0.500	1.920
2020/01/31 23:09:56.2	189.660	-0.520	-0.520	1.940
2020/01/31 23:09:56.3	189.660	-0.510	-0.550	1.970
2020/01/31 23:09:56.4	189.650	-0.500	-0.580	1.980
2020/01/31 23:09:56.5	189.640	-0.480	-0.610	2.000
2020/01/31 23:09:56.6	189.630	-0.450	-0.640	2.020
2020/01/31 23:09:56.7	189.620	-0.430	-0.670	2.030
2020/01/31 23:09:56.8	189.610	-0.400	-0.710	2.040
2020/01/31 23:09:56.9	189.600	-0.360	-0.740	2.050
2020/01/31 23:09:57.0	189.580	-0.320	-0.780	2.060
2020/01/31 23:09:57.1	189.560	-0.280	-0.820	2.060
2020/01/31 23:09:57.2	189.550	-0.240	-0.860	2.070
2020/01/31 23:09:57.3	189.530	-0.190	-0.890	2.070
2020/01/31 23:09:57.4	189.510	-0.150	-0.930	2.060
2020/01/31 23:09:57.5	189.490	-0.100	-0.960	2.060
2020/01/31 23:09:57.6	189.470	-0.050	-0.990	2.050
2020/01/31 23:09:57.7	189.440	-0.000	-1.020	2.040
2020/01/31 23:09:57.8	189.420	0.050	-1.040	2.030
2020/01/31 23:09:57.9	189.400	0.090	-1.060	2.020
2020/01/31 23:09:58.0	189.380	0.140	-1.080	2.000
2020/01/31 23:09:58.1	189.370	0.180	-1.090	1.980
2020/01/31 23:09:58.2	189.350	0.230	-1.090	1.960
2020/01/31 23:09:58.3	189.340	0.270	-1.090	1.930
2020/01/31 23:09:58.4	189.320	0.300	-1.080	1.900
2020/01/31 23:09:58.5	189.310	0.340	-1.070	1.860
2020/01/31 23:09:58.6	189.310	0.370	-1.050	1.830
2020/01/31 23:09:58.7	189.300	0.400	-1.020	1.790
2020/01/31 23:09:58.8	189.300	0.420	-0.990	1.740
2020/01/31 23:09:58.9	189.310	0.440	-0.950	1.700
2020/01/31 23:09:59.0	189.310	0.460	-0.900	1.650
2020/01/31 23:09:59.1	189.330	0.470	-0.850	1.590
2020/01/31 23:09:59.2	189.340	0.480	-0.790	1.540
2020/01/31 23:09:59.3	189.350	0.480	-0.730	1.490
2020/01/31 23:09:59.4	189.370	0.480	-0.670	1.430
2020/01/31 23:09:59.5	189.380	0.480	-0.600	1.380
2020/01/31 23:09:59.6	189.400	0.470	-0.530	1.330
2020/01/31 23:09:59.7	189.420	0.460	-0.460	1.280
2020/01/31 23:09:59.8	189.450	0.450	-0.380	1.230
2020/01/31 23:09:59.9	189.470	0.430	-0.310	1.170
2020/01/31 23:10:00.0	189.490	0.410	-0.240	1.130
2020/01/31 23:10:00.1	189.520	0.390	-0.170	1.080
2020/01/31 23:10:00.2	189.550	0.370	-0.090	1.030
2020/01/31 23:10:00.3	189.570	0.340	-0.020	0.990
2020/01/31 23:10:00.4	189.600	0.310	0.050	0.940
2020/01/31 23:10:00.5	189.620	0.280	0.110	0.900
2020/01/31 23:10:00.6	189.650	0.250	0.170	0.860
2020/01/31 23:10:00.7	189.680	0.220	0.240	0.830
2020/01/31 23:10:00.8	189.710	0.190	0.290	0.790
2020/01/31 23:10:00.9	189.730	0.160	0.350	0.760
2020/01/31 23:10:01.0	189.760	0.120	0.400	0.730
2020/01/31 23:10:01.1	189.790	0.090	0.450	0.710
2020/01/31 23:10:01.2	189.820	0.050	0.490	0.680
2020/01/31 23:10:01.3	189.850	0.010	0.530	0.670
2020/01/31 23:10:01.4	189.880	-0.020	0.570	0.660
2020/01/31 23:10:01.5	189.910	-0.060	0.600	0.650
2020/01/31 23:10:01.6	189.950	-0.100	0.630	0.650
2020/01/31 23:10:01.7	189.980	-0.140	0.660	0.650
2020/01/31 23:10:01.8	190.010	-0.180	0.680	0.660
2020/01/31 23:10:01.9	190.040	-0.220	0.690	0.680
2020/01/31 23:10:02.0	190.070	-0.250	0.710	0.700
2020/01/31 23:10:02.1	190.090	-0.290	0.710	0.730
2020/01/31 23:10:02.2	190.110	-0.330	0.710	0.760
2020/01/31 23:10:02.3	190.140	-0.360	0.710	0.800
2020/01/31 23:10:02.4	190.160	-0.390	0.700	0.840
2020/01/31 23:10:02.5	190.180	-0.420	0.690	0.890
2020/01/31 23:10:02.6	190.200	-0.450	0.670	0.940
2020/01/31 23:10:02.7	190.210	-0.480	0.650	0.990
2020/01/31 23:10:02.8	190.230	-0.500	0.620	1.050
2020/01/31 23:10:02.9	190.240	-0.520	0.590	1.110
2020/01/31 23:10:03.0	190.240	-0.540	0.550	1.180
2020/01/31 23:10:03.1	190.240	-0.550	0.510	1.240
2020/01/31 23:10:03.2	190.240	-0.560	0.470	1.310
2020/01/31 23:10:03.3	190.230	-0.570	0.420	1.370
2020/01/31 23:10:03.4	190.230	-0.570	0.370	1.440
2020/01/31 23:10:03.5	190.220	-0.570	0.310	1.500
2020/01/31 23:10:03.6	190.200	-0.560	0.250	1.570
2020/01/31 23:10:03.7	190.190	-0.550	0.190	1.630
2020/01/31 23:10:03.8	190.170	-0.530	0.130	1.690
2020/01/31 23:10:03.9	190.140	-0.510	0.070	1.740
2020/01/31 23:10:04.0	190.120	-0.490	0.010	1.800
2020/01/31 23:10:04.1	190.100	-0.460	-0.050	1.850
2020/01/31 23:10:04.2	190.080	-0.430	-0.110	1.890
2020/01/31 23:10:04.3	190.050	-0.400	-0.170	1.940
2020/01/31 23:10:04.4	190.020	-0.370	-0.220	1.970
2020/01/31 23:10:04.5	190.000	-0.330	-0.270	2.010
2020/01/31 23:10:04.6	189.970	-0.290	-0.320	2.040
2020/01/31 23:10:04.7	189.950	-0.250	-0.360	2.070
2020/01/31 23:10:04.8	189.930	-0.210	-0.400	2.090
2020/01/31 23:10:04.9	189.900	-0.170	-0.440	2.110
2020/01/31 23:10:05.0	189.880	-0.120	-0.470	2.120
2020/01/31 23:10:05.1	189.870	-0.080	-0.500	2.140
2020/01/31 23:10:05.2	189.850	-0.040	-0.520	2.150
2020/01/31 23:10:05.3	189.830	0.000	-0.530	2.160
2020/01/31 23:10:05.4	189.820	0.040	-0.540	2.160
2020/01/31 23:10:05.5	189.800	0.080	-0.550	2.160
2020/01/31 23:10:05.6	189.790	0.120	-0.560	2.160
2020/01/31 23:10:05.7	189.770	0.160	-0.560	2.150
2020/01/31 23:10:05.8	189.760	0.200	-0.550	2.140
2020/01/31 23:10:05.9	189.740	0.230	-0.550	2.130
2020/01/31 23:10:06.0	189.730	0.270	-0.540	2.120
2020/01/31 23:10:06.1	189.720	0.300	-0.530	2.100
2020/01/31 23:10:06.2	189.710	0.330	-0.520	2.080
2020/01/31 23:10:06.3	189.700	0.360	-0.510	2.050
2020/01/31 23:10:06.4	189.680	0.390	-0.500	2.030
2020/01/31 23:10:06.5	189.670	0.420	-0.490	2.010
2020/01/31 23:10:06.6	189.660	0.440	-0.480	1.980
2020/01/31 23:10:06.7	189.640	0.470	-0.470	1.950
2020/01/31 23:10:06.8	189.620	0.490	-0.470	1.920
2020/01/31 23:10:06.9	189.610	0.520	-0.470	1.890
2020/01/31 23:10:07.0	189.590	0.540	-0.460	1.860
2020/01/31 23:10:07.1	189.560	0.560	-0.470	1.830
2020/01/31 23:10:07.2	189.540	0.580	-0.470	1.790
2020/01/31 23:10:07.3	189.520	0.600	-0.480	1.760
2020/01/31 23:10:07.4	189.500	0.620	-0.490	1.720
2020/01/31 23:10:07.5	189.480	0.630	-0.500	1.680
2020/01/31 23:10:07.6	189.460	0.650	-0.510	1.640
2020/01/31 23:10:07.7	189.440	0.670	-0.520	1.600
2020/01/31 23:10:07.8	189.420	0.680	-0.540	1.560
2020/01/31 23:10:07.9	189.400	0.690	-0.550	1.510
2020/01/31 23:10:08.0	189.390	0.700	-0.570	1.470
2020/01/31 23:10:08.1	189.370	0.710	-0.570	1.410
2020/01/31 23:10:08.2	189.360	0.710	-0.590	1.370
2020/01/31 23:10:08.3	189.350	0.710	-0.600	1.330
2020/01/31 23:10:08.4	189.350	0.710	-0.610	1.280
2020/01/31 23:10:08.5	189.340	0.710	-0.630	1.240
2020/01/31 23:10:08.6	189.340	0.700	-0.640	1.200
2020/01/31 23:10:08.7	189.340	0.690	-0.640	1.170
2020/01/31 23:10:08.8	189.340	0.680	-0.650	1.130
2020/01/31 23:10:08.9	189.350	0.660	-0.650	1.100
2020/01/31 23:10:09.0	189.350	0.640	-0.650	1.080
2020/01/31 23:10:09.1	189.350	0.610	-0.660	1.060
2020/01/31 23:10:09.2	189.360	0.580	-0.660	1.040
2020/01/31 23:10:09.3	189.380	0.550	-0.650	1.030
2020/01/31 23:10:09.4	189.390	0.510	-0.640	1.020
2020/01/31 23:10:09.5	189.400	0.470	-0.630	1.010
2020/01/31 23:10:09.6	189.420	0.430	-0.620	1.010
2020/01/31 23:10:09.7	189.440	0.380	-0.610	1.020
2020/01/31 23:10:09.8	189.460	0.330	-0.590	1.020
2020/01/31 23:10:09.9	189.470	0.270	-0.570	1.030
2020/01/31 23:10:10.0	189.490	0.220	-0.550	1.050
2020/01/31 23:10:10.1	189.520	0.150	-0.520	1.070
2020/01/31 23:10:10.2	189.540	0.090	-0.500	1.090
2020/01/31 23:10:10.3	189.560	0.030	-0.480	1.120
2020/01/31 23:10:10.4	189.580	-0.040	-0.450	1.140
2020/01/31 23:10:10.5	189.600	-0.110	-0.420	1.170
2020/01/31 23:10:10.6	189.620	-0.170	-0.390	1.210
2020/01/31 23:10:10.7	189.640	-0.240	-0.360	1.240
2020/01/31 23:10:10.8	189.660	-0.310	-0.330	1.270
2020/01/31 23:10:10.9	189.680	-0.380	-0.300	1.300
2020/01/31 23:10:11.0	189.700	-0.440	-0.270	1.340
2020/01/31 23:10:11.1	189.730	-0.510	-0.240	1.370
2020/01/31 23:10:11.2	189.750	-0.570	-0.210	1.410
2020/01/31 23:10:11.3	189.770	-0.630	-0.180	1.440
2020/01/31 23:10:11.4	189.790	-0.690	-0.150	1.470
2020/01/31 23:10:11.5	189.810	-0.740	-0.120	1.500
2020/01/31 23:10:11.6	189.830	-0.790	-0.090	1.530
2020/01/31 23:10:11.7	189.850	-0.840	-0.060	1.560
2020/01/31 23:10:11.8	189.870	-0.880	-0.040	1.580
2020/01/31 23:10:11.9	189.890	-0.920	-0.010	1.610
2020/01/31 23:10:12.0	189.910	-0.950	0.010	1.630
2020/01/31 23:10:12.1	189.930	-0.980	0.020	1.650
2020/01/31 23:10:12.2	189.950	-1.000	0.040	1.670
2020/01/31 23:10:12.3	189.970	-1.020	0.050	1.690
2020/01/31 23:10:12.4	189.980	-1.030	0.050	1.700
2020/01/31 23:10:12.5	190.000	-1.030	0.060	1.720
2020/01/31 23:10:12.6	190.020	-1.030	0.050	1.730
2020/01/31 23:10:12.7	190.040	-1.020	0.050	1.740
2020/01/31 23:10:12.8	190.050	-1.000	0.040	1.740
2020/01/31 23:10:12.9	190.070	-0.980	0.020	1.740
2020/01/31 23:10:13.0	190.090	-0.960	0.010	1.740
2020/01/31 23:10:13.1	190.090	-0.920	-0.020	1.740
2020/01/31 23:10:13.2	190.110	-0.890	-0.050	1.730
2020/01/31 23:10:13.3	190.120	-0.840	-0.080	1.730
2020/01/31 23:10:13.4	190.130	-0.790	-0.110	1.710
2020/01/31 23:10:13.5	190.140	-0.740	-0.150	1.700
2020/01/31 23:10:13.6	190.150	-0.690	-0.190	1.680
2020/01/31 23:10:13.7	190.160	-0.620	-0.240	1.660
2020/01/31 23:10:13.8	190.170	-0.560	-0.280	1.640
2020/01/31 23:10:13.9	190.180	-0.490	-0.330	1.610
2020/01/31 23:10:14.0	190.180	-0.420	-0.380	1.590
2020/01/31 23:10:14.1	190.190	-0.350	-0.420	1.560
2020/01/31 23:10:14.2	190.190	-0.280	-0.470	1.530
2020/01/31 23:10:14.3	190.200	-0.210	-0.520	1.500
2020/01/31 23:10:14.4	190.190	-0.140	-0.570	1.470
2020/01/31 23:10:14.5	190.190	-0.070	-0.610	1.450
2020/01/31 23:10:14.6	190.190	0.000	-0.650	1.420
2020/01/31 23:10:14.7	190.190	0.070	-0.690	1.390
2020/01/31 23:10:14.8	190.180	0.140	-0.720	1.370
2020/01/31 23:10:14.9	190.170	0.200	-0.750	1.340
2020/01/31 23:10:15.0	190.160	0.270	-0.780	1.320
2020/01/31 23:10:15.1	190.160	0.320	-0.800	1.290
2020/01/31 23:10:15.2	190.150	0.380	-0.820	1.270
2020/01/31 23:10:15.3	190.130	0.420	-0.830	1.240
2020/01/31 23:10:15.4	190.120	0.470	-0.830	1.220
2020/01/31 23:10:15.5	190.110	0.510	-0.830	1.190
2020/01/31 23:10:15.6	190.100	0.540	-0.820	1.170
2020/01/31 23:10:15.7	190.090	0.570	-0.800	1.140
2020/01/31 23:10:15.8	190.070	0.590	-0.770	1.120
2020/01/31 23:10:15.9	190.060	0.610	-0.740	1.090
2020/01/31 23:10:16.0	190.050	0.620	-0.710	1.060
2020/01/31 23:10:16.1	190.050	0.620	-0.660	1.040
2020/01/31 23:10:16.2	190.050	0.620	-0.610	1.010
2020/01/31 23:10:16.3	190.040	0.610	-0.560	0.990
2020/01/31 23:10:16.4	190.030	0.600	-0.500	0.970
2020/01/31 23:10:16.5	190.030	0.580	-0.430	0.950
2020/01/31 23:10:16.6	190.020	0.550	-0.360	0.930
2020/01/31 23:10:16.7	190.020	0.520	-0.290	0.920
2020/01/31 23:10:16.8	190.020	0.490	-0.220	0.910
2020/01/31 23:10:16.9	190.010	0.450	-0.150	0.900
2020/01/31 23:10:17.0	190.010	0.410	-0.070	0.890
2020/01/31 23:10:17.1	190.000	0.360	-0.000	0.880
2020/01/31 23:10:17.2	190.000	0.320	0.070	0.880
2020/01/31 23:10:17.3	189.990	0.270	0.140	0.880
2020/01/31 23:10:17.4	189.990	0.210	0.200	0.890
2020/01/31 23:10:17.5	189.980	0.160	0.260	0.900
2020/01/31 23:10:17.6	189.980	0.110	0.320	0.910
2020/01/31 23:10:17.7	189.970	0.050	0.370	0.930
2020/01/31 23:10:17.8	189.960	-0.000	0.420	0.940
2020/01/31 23:10:17.9	189.950	-0.050	0.460	0.960
2020/01/31 23:10:18.0	189.950	-0.110	0.490	0.990
2020/01/31 23:10:18.1	189.940	-0.160	0.520	1.010
2020/01/31 23:10:18.2	189.930	-0.200	0.550	1.040
2020/01/31 23:10:18.3	189.930	-0.250	0.560	1.070
2020/01/31 23:10:18.4	189.920	-0.290	0.570	1.100
2020/01/31 23:10:18.5	189.910	-0.330	0.580	1.130
2020/01/31 23:10:18.6	189.910	-0.360	0.580	1.160
2020/01/31 23:10:18.7	189.910	-0.400	0.570	1.200
2020/01/31 23:10:18.8	189.910	-0.420	0.560	1.230
2020/01/31 23:10:18.9	189.910	-0.440	0.540	1.270
2020/01/31 23:10:19.0	189.910	-0.460	0.520	1.300
2020/01/31 23:10:19.1	189.910	-0.480	0.490	1.340
2020/01/31 23:10:19.2	189.920	-0.480	0.460	1.370
2020/01/31 23:10:19.3	189.920	-0.490	0.420	1.410
2020/01/31 23:10:19.4	189.930	-0.490	0.390	1.440
2020/01/31 23:10:19.5	189.940	-0.480	0.350	1.470
2020/01/31 23:10:19.6	189.950	-0.470	0.310	1.500
2020/01/31 23:10:19.7	189.960	-0.460	0.270	1.530
2020/01/31 23:10:19.8	189.970	-0.440	0.220	1.550
2020/01/31 23:10:19.9	189.980	-0.410	0.180	1.570
2020/01/31 23:10:20.0	189.990	-0.390	0.140	1.590
2020/01/31 23:10:20.1	190.000	-0.350	0.090	1.610
2020/01/31 23:10:20.2	190.010	-0.320	0.050	1.630
2020/01/31 23:10:20.3	190.020	-0.280	0.010	1.640
2020/01/31 23:10:20.4	190.040	-0.240	-0.020	1.650
2020/01/31 23:10:20.5	190.050	-0.200	-0.060	1.650
2020/01/31 23:10:20.6	190.060	-0.150	-0.090	1.660
2020/01/31 23:10:20.7	190.060	-0.110	-0.120	1.660
2020/01/31 23:10:20.8	190.070	-0.060	-0.150	1.650
2020/01/31 23:10:20.9	190.080	-0.010	-0.170	1.650
2020/01/31 23:10:21.0	190.080	0.040	-0.190	1.640
2020/01/31 23:10:21.1	190.090	0.090	-0.210	1.620
2020/01/31 23:10:21.2	190.090	0.140	-0.220	1.610
2020/01/31 23:10:21.3	190.090	0.180	-0.240	1.590
2020/01/31 23:10:21.4	190.100	0.230	-0.250	1.570
2020/01/31 23:10:21.5	190.100	0.270	-0.250	1.550
2020/01/31 23:10:21.6	190.100	0.320	-0.260	1.530
2020/01/31 23:10:21.7	190.100	0.360	-0.260	1.510
2020/01/31 23:10:21.8	190.100	0.390	-0.260	1.490
2020/01/31 23:10:21.9	190.100	0.430	-0.260	1.470
2020/01/31 23:10:22.0	190.100	0.460	-0.260	1.450
2020/01/31 23:10:22.1	190.100	0.490	-0.260	1.430
2020/01/31 23:10:22.2	190.100	0.510	-0.250	1.410
2020/01/31 23:10:22.3	190.100	0.530	-0.250	1.390
2020/01/31 23:10:22.4	190.090	0.550	-0.250	1.370
2020/01/31 23:10:22.5	190.080	0.560	-0.240	1.360
2020/01/31 23:10:22.6	190.080	0.570	-0.240	1.340
2020/01/31 23:10:22.7	190.070	0.580	-0.240	1.330
2020/01/31 23:10:22.8	190.060	0.580	-0.250	1.320
2020/01/31 23:10:22.9	190.050	0.580	-0.250	1.310
2020/01/31 23:10:23.0	190.030	0.580	-0.260	1.300
2020/01/31 23:10:23.1	190.020	0.570	-0.260	1.280
2020/01/31 23:10:23.2	190.000	0.560	-0.270	1.270
2020/01/31 23:10:23.3	189.980	0.550	-0.290	1.260
2020/01/31 23:10:23.4	189.960	0.530	-0.300	1.260
2020/01/31 23:10:23.5	189.950	0.520	-0.320	1.250
2020/01/31 23:10:23.6	189.930	0.500	-0.330	1.240
2020/01/31 23:10:23.7	189.900	0.480	-0.350	1.240
2020/01/31 23:10:23.8	189.880	0.450	-0.370	1.230
2020/01/31 23:10:23.9	189.860	0.430	-0.400	1.230
2020/01/31 23:10:24.0	189.840	0.400	-0.420	1.220
2020/01/31 23:10:24.1	189.820	0.380	-0.440	1.220
2020/01/31 23:10:24.2	189.790	0.350	-0.460	1.220
2020/01/31 23:10:24.3	189.770	0.320	-0.480	1.220
2020/01/31 23:10:24.4	189.750	0.290	-0.510	1.230
2020/01/31 23:10:24.5	189.730	0.260	-0.530	1.230
2020/01/31 23:10:24.6	189.700	0.230	-0.550	1.240
2020/01/31 23:10:24.7	189.680	0.200	-0.570	1.260
2020/01/31 23:10:24.8	189.660	0.170	-0.590	1.270
2020/01/31 23:10:24.9	189.640	0.140	-0.600	1.290
2020/01/31 23:10:25.0	189.630	0.110	-0.620	1.310
2020/01/31 23:10:25.1	189.600	0.090	-0.630	1.330
2020/01/31 23:10:25.2	189.590	0.060	-0.640	1.350
2020/01/31 23:10:25.3	189.570	0.030	-0.650	1.370
2020/01/31 23:10:25.4	189.560	0.010	-0.660	1.390
2020/01/31 23:10:25.5	189.550	-0.010	-0.670	1.420
2020/01/31 23:10:25.6	189.550	-0.030	-0.670	1.440
2020/01/31 23:10:25.7	189.540	-0.050	-0.670	1.460
2020/01/31 23:10:25.8	189.540	-0.070	-0.670	1.480
2020/01/31 23:10:25.9	189.540	-0.090	-0.670	1.500
2020/01/31 23:10:26.0	189.540	-0.100	-0.660	1.510
2020/01/31 23:10:26.1	189.530	-0.110	-0.650	1.520
2020/01/31 23:10:26.2	189.540	-0.120	-0.640	1.530
2020/01/31 23:10:26.3	189.550	-0.130	-0.640	1.540
2020/01/31 23:10:26.4	189.560	-0.130	-0.620	1.540
2020/01/31 23:10:26.5	189.570	-0.140	-0.610	1.540
2020/01/31 23:10:26.6	189.580	-0.140	-0.600	1.540
2020/01/31 23:10:26.7	189.590	-0.140	-0.590	1.540
2020/01/31 23:10:26.8	189.600	-0.140	-0.570	1.540
2020/01/31 23:10:26.9	189.610	-0.140	-0.560	1.530
2020/01/31 23:10:27.0	189.630	-0.130	-0.550	1.520
2020/01/31 23:10:27.1	189.640	-0.130	-0.540	1.520
2020/01/31 23:10:27.2	189.650	-0.120	-0.530	1.510
2020/01/31 23:10:27.3	189.670	-0.120	-0.520	1.500
2020/01/31 23:10:27.4	189.680	-0.110	-0.510	1.490
2020/01/31 23:10:27.5	189.690	-0.100	-0.500	1.480
2020/01/31 23:10:27.6	189.700	-0.090	-0.490	1.470
2020/01/31 23:10:27.7	189.710	-0.080	-0.490	1.460
2020/01/31 23:10:27.8	189.710	-0.070	-0.490	1.460
2020/01/31 23:10:27.9	189.720	-0.060	-0.490	1.450
2020/01/31 23:10:28.0	189.720	-0.050	-0.490	1.450
2020/01/31 23:10:28.1	189.730	-0.040	-0.480	1.450
2020/01/31 23:10:28.2	189.730	-0.030	-0.490	1.440
2020/01/31 23:10:28.3	189.740	-0.020	-0.490	1.440
2020/01/31 23:10:28.4	189.740	-0.010	-0.500	1.440
2020/01/31 23:10:28.5	189.740	0.000	-0.510	1.440
2020/01/31 23:10:28.6	189.730	0.010	-0.520	1.450
2020/01/31 23:10:28.7	189.730	0.020	-0.530	1.450
2020/01/31 23:10:28.8	189.730	0.030	-0.540	1.450
2020/01/31 23:10:28.9	189.720	0.030	-0.550	1.460
2020/01/31 23:10:29.0	189.720	0.040	-0.560	1.460
2020/01/31 23:10:29.1	189.700	0.040	-0.570	1.460
2020/01/31 23:10:29.2	189.700	0.050	-0.580	1.460
2020/01/31 23:10:29.3	189.690	0.050	-0.580	1.470
2020/01/31 23:10:29.4	189.680	0.050	-0.590	1.470
2020/01/31 23:10:29.5	189.680	0.050	-0.590	1.480
2020/01/31 23:10:29.6	189.670	0.040	-0.600	1.480
2020/01/31 23:10:29.7	189.670	0.040	-0.590	1.480
2020/01/31 23:10:29.8	189.660	0.030	-0.590	1.480
2020/01/31 23:10:29.9	189.660	0.020	-0.580	1.480
2020/01/31 23:10:30.0	189.660	0.010	-0.570	1.480
2020/01/31 23:10:30.1	189.660	-0.000	-0.550	1.470
2020/01/31 23:10:30.2	189.660	-0.020	-0.530	1.470
2020/01/31 23:10:30.3	189.670	-0.030	-0.510	1.470
2020/01/31 23:10:30.4	189.670	-0.050	-0.480	1.470
2020/01/31 23:10:30.5	189.680	-0.070	-0.450	1.470
2020/01/31 23:10:30.6	189.690	-0.090	-0.420	1.470
2020/01/31 23:10:30.7	189.700	-0.110	-0.390	1.470
2020/01/31 23:10:30.8	189.710	-0.130	-0.350	1.470
2020/01/31 23:10:30.9	189.720	-0.160	-0.310	1.470
2020/01/31 23:10:31.0	189.730	-0.180	-0.270	1.470
2020/01/31 23:10:31.1	189.750	-0.210	-0.230	1.480
2020/01/31 23:10:31.2	189.770	-0.230	-0.190	1.480
2020/01/31 23:10:31.3	189.780	-0.260	-0.150	1.490
2020/01/31 23:10:31.4	189.790	-0.280	-0.120	1.500
2020/01/31 23:10:31.5	189.800	-0.310	-0.080	1.510
2020/01/31 23:10:31.6	189.810	-0.330	-0.050	1.520
2020/01/31 23:10:31.7	189.820	-0.360	-0.020	1.540
2020/01/31 23:10:31.8	189.820	-0.380	0.010	1.550
2020/01/31 23:10:31.9	189.830	-0.400	0.030	1.570
2020/01/31 23:10:32.0	189.830	-0.420	0.050	1.590
2020/01/31 23:10:32.1	189.840	-0.430	0.060	1.620
2020/01/31 23:10:32.2	189.830	-0.450	0.070	1.640
2020/01/31 23:10:32.3	189.830	-0.460	0.070	1.670
2020/01/31 23:10:32.4	189.820	-0.470	0.080	1.700
2020/01/31 23:10:32.5	189.810	-0.480	0.070	1.740
2020/01/31 23:10:32.6	189.790	-0.480	0.070	1.780
2020/01/31 23:10:32.7	189.770	-0.490	0.060	1.820
2020/01/31 23:10:32.8	189.750	-0.490	0.040	1.860
2020/01/31 23:10:32.9	189.730	-0.490	0.030	1.900
2020/01/31 23:10:33.0	189.710	-0.480	0.010	1.950
2020/01/31 23:10:33.1	189.680	-0.480	-0.010	1.990
2020/01/31 23:10:33.2	189.650	-0.470	-0.030	2.040
2020/01/31 23:10:33.3	189.620	-0.460	-0.050	2.080
2020/01/31 23:10:33.4	189.590	-0.440	-0.070	2.130
2020/01/31 23:10:33.5	189.560	-0.430	-0.090	2.180
2020/01/31 23:10:33.6	189.530	-0.410	-0.110	2.220
2020/01/31 23:10:33.7	189.500	-0.400	-0.130	2.270
2020/01/31 23:10:33.8	189.460	-0.380	-0.150	2.310
2020/01/31 23:10:33.9	189.430	-0.360	-0.160	2.350
2020/01/31 23:10:34.0	189.400	-0.340	-0.160	2.390
2020/01/31 23:10:34.1	189.390	-0.320	-0.170	2.430
2020/01/31 23:10:34.2	189.360	-0.300	-0.170	2.460
2020/01/31 23:10:34.3	189.340	-0.280	-0.170	2.490
2020/01/31 23:10:34.4	189.320	-0.260	-0.160	2.510
2020/01/31 23:10:34.5	189.300	-0.240	-0.140	2.520
2020/01/31 23:10:34.6	189.290	-0.220	-0.120	2.530
2020/01/31 23:10:34.7	189.280	-0.200	-0.100	2.540
2020/01/31 23:10:34.8	189.270	-0.180	-0.070	2.540
2020/01/31 23:10:34.9	189.270	-0.160	-0.030	2.530
2020/01/31 23:10:35.0	189.270	-0.140	0.010	2.510
2020/01/31 23:10:35.1	189.290	-0.130	0.060	2.480
2020/01/31 23:10:35.2	189.300	-0.110	0.100	2.450
2020/01/31 23:10:35.3	189.320	-0.100	0.150	2.420
2020/01/31 23:10:35.4	189.330	-0.090	0.210	2.370
2020/01/31 23:10:35.5	189.360	-0.070	0.260	2.320
2020/01/31 23:10:35.6	189.390	-0.060	0.320	2.270
2020/01/31 23:10:35.7	189.420	-0.050	0.370	2.210
2020/01/31 23:10:35.8	189.450	-0.040	0.430	2.140
2020/01/31 23:10:35.9	189.480	-0.030	0.480	2.070
2020/01/31 23:10:36.0	189.520	-0.020	0.530	2.000
2020/01/31 23:10:36.1	189.570	-0.010	0.580	1.930
2020/01/31 23:10:36.2	189.610	-0.000	0.620	1.850
2020/01/31 23:10:36.3	189.650	0.010	0.660	1.770
2020/01/31 23:10:36.4	189.690	0.020	0.690	1.690
2020/01/31 23:10:36.5	189.730	0.030	0.720	1.610
2020/01/31 23:10:36.6	189.770	0.050	0.740	1.530
2020/01/31 23:10:36.7	189.810	0.060	0.750	1.450
2020/01/31 23:10:36.8	189.840	0.080	0.760	1.370
2020/01/31 23:10:36.9	189.880	0.100	0.750	1.300
2020/01/31 23:10:37.0	189.910	0.120	0.740	1.220
2020/01/31 23:10:37.1	189.930	0.140	0.710	1.140
2020/01/31 23:10:37.2	189.960	0.170	0.680	1.080
2020/01/31 23:10:37.3	189.980	0.190	0.630	1.010
2020/01/31 23:10:37.4	190.000	0.220	0.580	0.960
2020/01/31 23:10:37.5	190.010	0.250	0.520	0.900
2020/01/31 23:10:37.6	190.020	0.290	0.440	0.860
2020/01/31 23:10:37.7	190.020	0.320	0.360	0.820
2020/01/31 23:10:37.8	190.030	0.360	0.270	0.780
2020/01/31 23:10:37.9	190.020	0.400	0.180	0.750
2020/01/31 23:10:38.0	190.020	0.430	0.080	0.730
2020/01/31 23:10:38.1	190.000	0.470	-0.030	0.720
2020/01/31 23:10:38.2	189.980	0.510	-0.140	0.710
2020/01/31 23:10:38.3	189.970	0.550	-0.260	0.700
2020/01/31 23:10:38.4	189.950	0.590	-0.370	0.700
2020/01/31 23:10:38.5	189.920	0.630	-0.490	0.700
2020/01/31 23:10:38.6	189.900	0.670	-0.600	0.710
2020/01/31 23:10:38.7	189.870	0.700	-0.720	0.720
2020/01/31 23:10:38.8	189.850	0.740	-0.820	0.740
2020/01/31 23:10:38.9	189.820	0.770	-0.930	0.750
2020/01/31 23:10:39.0	189.800	0.790	-1.020	0.780
2020/01/31 23:10:39.1	189.770	0.810	-1.120	0.790
2020/01/31 23:10:39.2	189.740	0.830	-1.200	0.820
2020/01/31 23:10:39.3	189.720	0.850	-1.270	0.850
2020/01/31 23:10:39.4	189.700	0.850	-1.340	0.890
2020/01/31 23:10:39.5	189.670	0.860	-1.390	0.920
2020/01/31 23:10:39.6	189.650	0.860	-1.430	0.960
2020/01/31 23:10:39.7	189.630	0.850	-1.470	1.000
2020/01/31 23:10:39.8	189.620	0.840	-1.490	1.040
2020/01/31 23:10:39.9	189.600	0.820	-1.500	1.080
2020/01/31 23:10:40.0	189.590	0.800	-1.500	1.130
2020/01/31 23:10:40.1	189.570	0.780	-1.490	1.170
2020/01/31 23:10:40.2	189.560	0.740	-1.470	1.210
2020/01/31 23:10:40.3	189.550	0.710	-1.440	1.260
2020/01/31 23:10:40.4	189.550	0.670	-1.400	1.300
2020/01/31 23:10:40.5	189.550	0.620	-1.360	1.340
2020/01/31 23:10:40.6	189.550	0.570	-1.310	1.380
2020/01/31 23:10:40.7	189.550	0.520	-1.250	1.420
2020/01/31 23:10:40.8	189.560	0.470	-1.180	1.460
2020/01/31 23:10:40.9	189.570	0.410	-1.110	1.490
2020/01/31 23:10:41.0	189.580	0.350	-1.040	1.520
2020/01/31 23:10:41.1	189.590	0.280	-0.960	1.560
2020/01/31 23:10:41.2	189.610	0.220	-0.890	1.590
2020/01/31 23:10:41.3	189.630	0.150	-0.800	1.610
2020/01/31 23:10:41.4	189.650	0.090	-0.720	1.640
2020/01/31 23:10:41.5	189.670	0.020	-0.640	1.660
2020/01/31 23:10:41.6	189.690	-0.040	-0.560	1.670
2020/01/31 23:10:41.7	189.710	-0.110	-0.480	1.690
2020/01/31 23:10:41.8	189.740	-0.170	-0.400	1.700
2020/01/31 23:10:41.9	189.770	-0.230	-0.320	1.720
2020/01/31 23:10:42.0	189.790	-0.290	-0.250	1.720
2020/01/31 23:10:42.1	189.820	-0.340	-0.180	1.730
2020/01/31 23:10:42.2	189.850	-0.400	-0.110	1.730
2020/01/31 23:10:42.3	189.880	-0.440	-0.050	1.730
2020/01/31 23:10:42.4	189.910	-0.490	0.010	1.730
2020/01/31 23:10:42.5	189.940	-0.530	0.060	1.730
2020/01/31 23:10:42.6	189.970	-0.560	0.110	1.720
2020/01/31 23:10:42.7	190.000	-0.590	0.150	1.720
2020/01/31 23:10:42.8	190.030	-0.620	0.190	1.710
2020/01/31 23:10:42.9	190.060	-0.640	0.220	1.690
2020/01/31 23:10:43.0	190.090	-0.650	0.240	1.680
2020/01/31 23:10:43.1	190.100	-0.660	0.270	1.670
2020/01/31 23:10:43.2	190.130	-0.660	0.280	1.660
2020/01/31 23:10:43.3	190.160	-0.660	0.290	1.640
2020/01/31 23:10:43.4	190.180	-0.660	0.300	1.630
2020/01/31 23:10:43.5	190.210	-0.650	0.300	1.610
2020/01/31 23:10:43.6	190.230	-0.630	0.300	1.600
2020/01/31 23:10:43.7	190.250	-0.610	0.290	1.580
2020/01/31 23:10:43.8	190.280	-0.580	0.280	1.570
2020/01/31 23:10:43.9	190.290	-0.560	0.260	1.550
2020/01/31 23:10:44.0	190.310	-0.520	0.240	1.540
2020/01/31 23:10:44.1	190.330	-0.490	0.220	1.520
2020/01/31 23:10:44.2	190.340	-0.450	0.190	1.510
2020/01/31 23:10:44.3	190.350	-0.410	0.160	1.490
2020/01/31 23:10:44.4	190.360	-0.360	0.120	1.480
2020/01/31 23:10:44.5	190.360	-0.320	0.080	1.470
2020/01/31 23:10:44.6	190.370	-0.270	0.040	1.450
2020/01/31 23:10:44.7	190.370	-0.220	-0.000	1.440
2020/01/31 23:10:44.8	190.360	-0.170	-0.050	1.430
2020/01/31 23:10:44.9	190.360	-0.120	-0.100	1.410
2020/01/31 23:10:45.0	190.350	-0.070	-0.150	1.400
2020/01/31 23:10:45.1	190.330	-0.030	-0.210	1.390
2020/01/31 23:10:45.2	190.320	0.020	-0.260	1.380
2020/01/31 23:10:45.3	190.300	0.070	-0.320	1.370
2020/01/31 23:10:45.4	190.280	0.120	-0.380	1.370
2020/01/31 23:10:45.5	190.250	0.160	-0.440	1.370
2020/01/31 23:10:45.6	190.220	0.200	-0.500	1.370
2020/01/31 23:10:45.7	190.190	0.240	-0.550	1.370
2020/01/31 23:10:45.8	190.160	0.280	-0.610	1.380
2020/01/31 23:10:45.9	190.130	0.320	-0.660	1.390
2020/01/31 23:10:46.0	190.090	0.350	-0.710	1.410
2020/01/31 23:10:46.1	190.050	0.380	-0.760	1.420
2020/01/31 23:10:46.2	190.010	0.400	-0.810	1.440
2020/01/31 23:10:46.3	189.970	0.430	-0.850	1.470
2020/01/31 23:10:46.4	189.930	0.440	-0.880	1.490
2020/01/31 23:10:46.5	189.880	0.460	-0.910	1.520
2020/01/31 23:10:46.6	189.840	0.470	-0.940	1.550
2020/01/31 23:10:46.7	189.790	0.480	-0.950	1.580
2020/01/31 23:10:46.8	189.750	0.480	-0.960	1.600
2020/01/31 23:10:46.9	189.710	0.480	-0.960	1.630
2020/01/31 23:10:47.0	189.670	0.470	-0.960	1.660
2020/01/31 23:10:47.1	189.630	0.460	-0.940	1.680
2020/01/31 23:10:47.2	189.600	0.440	-0.920	1.710
2020/01/31 23:10:47.3	189.570	0.420	-0.880	1.730
2020/01/31 23:10:47.4	189.540	0.400	-0.840	1.750
2020/01/31 23:10:47.5	189.520	0.370	-0.780	1.760
2020/01/31 23:10:47.6	189.500	0.340	-0.720	1.770
2020/01/31 23:10:47.7	189.490	0.300	-0.650	1.780
2020/01/31 23:10:47.8	189.480	0.260	-0.580	1.790
2020/01/31 23:10:47.9	189.470	0.210	-0.490	1.790
2020/01/31 23:10:48.0	189.480	0.170	-0.400	1.790
2020/01/31 23:10:48.1	189.480	0.110	-0.300	1.790
2020/01/31 23:10:48.2	189.490	0.060	-0.200	1.780
2020/01/31 23:10:48.3	189.500	-0.000	-0.100	1.780
2020/01/31 23:10:48.4	189.520	-0.060	0.000	1.770
2020/01/31 23:10:48.5	189.550	-0.120	0.110	1.770
2020/01/31 23:10:48.6	189.570	-0.180	0.220	1.760
2020/01/31 23:10:48.7	189.600	-0.250	0.320	1.750
2020/01/31 23:10:48.8	189.640	-0.310	0.420	1.740
2020/01/31 23:10:48.9	189.670	-0.380	0.520	1.720
2020/01/31 23:10:49.0	189.710	-0.440	0.610	1.710
2020/01/31 23:10:49.1	189.760	-0.500	0.700	1.700
2020/01/31 23:10:49.2	189.800	-0.560	0.780	1.680
2020/01/31 23:10:49.3	189.840	-0.620	0.850	1.670
2020/01/31 23:10:49.4	189.890	-0.670	0.910	1.650
2020/01/31 23:10:49.5	189.930	-0.720	0.960	1.640
2020/01/31 23:10:49.6	189.970	-0.760	1.000	1.620
2020/01/31 23:10:49.7	190.010	-0.800	1.030	1.600
2020/01/31 23:10:49.8	190.050	-0.840	1.050	1.590
2020/01/31 23:10:49.9	190.080	-0.870	1.060	1.570
2020/01/31 23:10:50.0	190.120	-0.890	1.050	1.560
2020/01/31 23:10:50.1	190.160	-0.910	1.030	1.540
2020/01/31 23:10:50.2	190.190	-0.920	1.000	1.520
2020/01/31 23:10:50.3	190.210	-0.920	0.950	1.510
2020/01/31 23:10:50.4	190.240	-0.920	0.900	1.490
2020/01/31 23:10:50.5	190.260	-0.910	0.830	1.480
2020/01/31 23:10:50.6	190.280	-0.890	0.750	1.460
2020/01/31 23:10:50.7	190.290	-0.870	0.670	1.450
2020/01/31 23:10:50.8	190.310	-0.840	0.580	1.440
2020/01/31 23:10:50.9	190.320	-0.800	0.470	1.420
2020/01/31 23:10:51.0	190.320	-0.760	0.370	1.410
2020/01/31 23:10:51.1	190.330	-0.700	0.250	1.400
2020/01/31 23:10:51.2	190.330	-0.650	0.130	1.400
2020/01/31 23:10:51.3	190.330	-0.590	0.010	1.390
2020/01/31 23:10:51.4	190.320	-0.520	-0.110	1.380
2020/01/31 23:10:51.5	190.310	-0.450	-0.230	1.380
2020/01/31 23:10:51.6	190.310	-0.380	-0.350	1.370
2020/01/31 23:10:51.7	190.300	-0.300	-0.470	1.370
2020/01/31 23:10:51.8	190.290	-0.220	-0.590	1.360
2020/01/31 23:10:51.9	190.280	-0.130	-0.710	1.360
2020/01/31 23:10:52.0	190.260	-0.050	-0.810	1.350
2020/01/31 23:10:52.1	190.250	0.040	-0.920	1.340
2020/01/31 23:10:52.2	190.240	0.120	-1.020	1.330
2020/01/31 23:10:52.3	190.230	0.210	-1.110	1.320
2020/01/31 23:10:52.4	190.220	0.290	-1.190	1.310
2020/01/31 23:10:52.5	190.210	0.370	-1.270	1.300
2020/01/31 23:10:52.6	190.200	0.450	-1.330	1.280
2020/01/31 23:10:52.7	190.200	0.530	-1.390	1.260
2020/01/31 23:10:52.8	190.190	0.600	-1.440	1.250
2020/01/31 23:10:52.9	190.190	0.670	-1.480	1.230
2020/01/31 23:10:53.0	190.180	0.730	-1.500	1.200
2020/01/31 23:10:53.1	190.180	0.790	-1.520	1.180
2020/01/31 23:10:53.2	190.180	0.840	-1.530	1.150
2020/01/31 23:10:53.3	190.180	0.890	-1.530	1.130
2020/01/31 23:10:53.4	190.180	0.930	-1.520	1.100
2020/01/31 23:10:53.5	190.190	0.960	-1.500	1.080
2020/01/31 23:10:53.6	190.190	0.990	-1.480	1.050
2020/01/31 23:10:53.7	190.200	1.010	-1.440	1.020
2020/01/31 23:10:53.8	190.200	1.020	-1.400	1.000
2020/01/31 23:10:53.9	190.210	1.030	-1.350	0.980
2020/01/31 23:10:54.0	190.220	1.020	-1.290	0.960
2020/01/31 23:10:54.1	190.220	1.010	-1.220	0.940
2020/01/31 23:10:54.2	190.220	1.000	-1.150	0.920
2020/01/31 23:10:54.3	190.230	0.970	-1.080	0.910
2020/01/31 23:10:54.4	190.240	0.940	-1.000	0.910
2020/01/31 23:10:54.5	190.250	0.910	-0.920	0.910
2020/01/31 23:10:54.6	190.260	0.860	-0.830	0.910
2020/01/31 23:10:54.7	190.260	0.820	-0.750	0.920
2020/01/31 23:10:54.8	190.270	0.760	-0.660	0.930
2020/01/31 23:10:54.9	190.270	0.700	-0.570	0.950
2020/01/31 23:10:55.0	190.280	0.640	-0.480	0.980
2020/01/31 23:10:55.1	190.280	0.580	-0.400	1.000
2020/01/31 23:10:55.2	190.280	0.510	-0.310	1.040
2020/01/31 23:10:55.3	190.280	0.430	-0.220	1.070
2020/01/31 23:10:55.4	190.280	0.360	-0.140	1.110
2020/01/31 23:10:55.5	190.280	0.280	-0.060	1.150
2020/01/31 23:10:55.6	190.280	0.210	0.020	1.200
2020/01/31 23:10:55.7	190.270	0.130	0.100	1.240
2020/01/31 23:10:55.8	190.270	0.050	0.170	1.290
2020/01/31 23:10:55.9	190.270	-0.030	0.240	1.340
2020/01/31 23:10:56.0	190.270	-0.110	0.300	1.380
2020/01/31 23:10:56.1	190.260	-0.190	0.360	1.430
2020/01/31 23:10:56.2	190.260	-0.260	0.420	1.480
2020/01/31 23:10:56.3	190.250	-0.340	0.470	1.530
2020/01/31 23:10:56.4	190.250	-0.410	0.520	1.570
2020/01/31 23:10:56.5	190.250	-0.480	0.560	1.620
2020/01/31 23:10:56.6	190.250	-0.550	0.590	1.660
2020/01/31 23:10:56.7	190.240	-0.610	0.620	1.700
2020/01/31 23:10:56.8	190.240	-0.670	0.650	1.740
2020/01/31 23:10:56.9	190.240	-0.730	0.670	1.790
2020/01/31 23:10:57.0	190.240	-0.780	0.690	1.820
2020/01/31 23:10:57.1	190.250	-0.820	0.690	1.860
2020/01/31 23:10:57.2	190.250	-0.860	0.700	1.900
2020/01/31 23:10:57.3	190.250	-0.900	0.700	1.930
2020/01/31 23:10:57.4	190.250	-0.930	0.700	1.970
2020/01/31 23:10:57.5	190.250	-0.950	0.690	2.000
2020/01/31 23:10:57.6	190.250	-0.970	0.670	2.030
2020/01/31 23:10:57.7	190.250	-0.990	0.650	2.060
2020/01/31 23:10:57.8	190.250	-1.000	0.630	2.090
2020/01/31 23:10:57.9	190.250	-1.000	0.600	2.120
2020/01/31 23:10:58.0	190.250	-0.990	0.570	2.140
2020/01/31 23:10:58.1	190.260	-0.980	0.530	2.170
2020/01/31 23:10:58.2	190.250	-0.970	0.490	2.200
2020/01/31 23:10:58.3	190.250	-0.940	0.450	2.220
2020/01/31 23:10:58.4	190.240	-0.920	0.400	2.230
2020/01/31 23:10:58.5	190.240	-0.880	0.350	2.250
2020/01/31 23:10:58.6	190.230	-0.840	0.300	2.260
2020/01/31 23:10:58.7	190.220	-0.800	0.240	2.270
2020/01/31 23:10:58.8	190.220	-0.750	0.180	2.280
2020/01/31 23:10:58.9	190.210	-0.700	0.120	2.280
2020/01/31 23:10:59.0	190.190	-0.640	0.060	2.280
2020/01/31 23:10:59.1	190.180	-0.580	0.010	2.280
2020/01/31 23:10:59.2	190.170	-0.520	-0.060	2.280
2020/01/31 23:10:59.3	190.150	-0.450	-0.120	2.270
2020/01/31 23:10:59.4	190.130	-0.380	-0.180	2.250
2020/01/31 23:10:59.5	190.110	-0.300	-0.240	2.230
2020/01/31 23:10:59.6	190.090	-0.230	-0.300	2.210
2020/01/31 23:10:59.7	190.060	-0.150	-0.360	2.180
2020/01/31 23:10:59.8	190.040	-0.070	-0.420	2.150
2020/01/31 23:10:59.9	190.010	0.010	-0.470	2.120
2020/01/31 23:11:00.0	189.980	0.090	-0.520	2.080
2020/01/31 23:11:00.1	189.930	0.170	-0.570	2.040
2020/01/31 23:11:00.2	189.900	0.250	-0.610	1.990
2020/01/31 23:11:00.3	189.860	0.320	-0.650	1.950
2020/01/31 23:11:00.4	189.830	0.400	-0.680	1.900
2020/01/31 23:11:00.5	189.790	0.470	-0.700	1.840
2020/01/31 23:11:00.6	189.760	0.540	-0.720	1.790
2020/01/31 23:11:00.7	189.720	0.610	-0.740	1.730
2020/01/31 23:11:00.8	189.690	0.670	-0.750	1.670
2020/01/31 23:11:00.9	189.650	0.720	-0.760	1.620
2020/01/31 23:11:01.0	189.620	0.780	-0.750	1.560
2020/01/31 23:11:01.1	189.590	0.820	-0.750	1.490
2020/01/31 23:11:01.2	189.560	0.860	-0.730	1.430
2020/01/31 23:11:01.3	189.530	0.900	-0.720	1.370
2020/01/31 23:11:01.4	189.500	0.930	-0.700	1.310
2020/01/31 23:11:01.5	189.470	0.950	-0.670	1.250
2020/01/31 23:11:01.6	189.450	0.970	-0.640	1.190
2020/01/31 23:11:01.7	189.430	0.980	-0.610	1.130
2020/01/31 23:11:01.8	189.410	0.990	-0.570	1.070
2020/01/31 23:11:01.9	189.400	0.980	-0.530	1.020
2020/01/31 23:11:02.0	189.380	0.970	-0.490	0.960
2020/01/31 23:11:02.1	189.370	0.960	-0.440	0.900
2020/01/31 23:11:02.2	189.360	0.940	-0.400	0.850
2020/01/31 23:11:02.3	189.350	0.910	-0.360	0.800
2020/01/31 23:11:02.4	189.350	0.880	-0.310	0.760
2020/01/31 23:11:02.5	189.350	0.840	-0.270	0.710
2020/01/31 23:11:02.6	189.350	0.800	-0.220	0.670
2020/01/31 23:11:02.7	189.360	0.750	-0.180	0.630
2020/01/31 23:11:02.8	189.370	0.700	-0.140	0.600
2020/01/31 23:11:02.9	189.380	0.640	-0.110	0.570
2020/01/31 23:11:03.0	189.390	0.580	-0.070	0.540
2020/01/31 23:11:03.1	189.400	0.520	-0.050	0.520
2020/01/31 23:11:03.2	189.410	0.460	-0.020	0.500
2020/01/31 23:11:03.3	189.430	0.390	0.000	0.480
2020/01/31 23:11:03.4	189.450	0.320	0.020	0.470
2020/01/31 23:11:03.5	189.470	0.250	0.040	0.470
2020/01/31 23:11:03.6	189.490	0.180	0.050	0.470
2020/01/31 23:11:03.7	189.510	0.110	0.060	0.470
2020/01/31 23:11:03.8	189.530	0.030	0.060	0.480
2020/01/31 23:11:03.9	189.550	-0.040	0.050	0.500
2020/01/31 23:11:04.0	189.580	-0.100	0.050	0.520
2020/01/31 23:11:04.1	189.590	-0.170	0.030	0.540
2020/01/31 23:11:04.2	189.620	-0.240	0.020	0.570
2020/01/31 23:11:04.3	189.640	-0.300	-0.010	0.610
2020/01/31 23:11:04.4	189.660	-0.360	-0.030	0.650
2020/01/31 23:11:04.5	189.680	-0.410	-0.070	0.690
2020/01/31 23:11:04.6	189.700	-0.460	-0.100	0.740
2020/01/31 23:11:04.7	189.720	-0.510	-0.140	0.790
2020/01/31 23:11:04.8	189.740	-0.550	-0.190	0.850
2020/01/31 23:11:04.9	189.760	-0.580	-0.230	0.900
2020/01/31 23:11:05.0	189.770	-0.610	-0.280	0.960
2020/01/31 23:11:05.1	189.790	-0.640	-0.340	1.030
2020/01/31 23:11:05.2	189.800	-0.660	-0.390	1.090
2020/01/31 23:11:05.3	189.820	-0.670	-0.450	1.160
2020/01/31 23:11:05.4	189.830	-0.680	-0.510	1.220
2020/01/31 23:11:05.5	189.850	-0.680	-0.560	1.280
2020/01/31 23:11:05.6	189.860	-0.670	-0.620	1.340
2020/01/31 23:11:05.7	189.870	-0.660	-0.680	1.400
2020/01/31 23:11:05.8	189.880	-0.650	-0.740	1.450
2020/01/31 23:11:05.9	189.890	-0.620	-0.790	1.510
2020/01/31 23:11:06.0	189.900	-0.600	-0.850	1.560
2020/01/31 23:11:06.1	189.900	-0.570	-0.890	1.610
2020/01/31 23:11:06.2	189.900	-0.530	-0.940	1.660
2020/01/31 23:11:06.3	189.910	-0.490	-0.990	1.700
2020/01/31 23:11:06.4	189.910	-0.450	-1.030	1.750
2020/01/31 23:11:06.5	189.910	-0.410	-1.070	1.790
2020/01/31 23:11:06.6	189.910	-0.360	-1.100	1.820
2020/01/31 23:11:06.7	189.910	-0.310	-1.130	1.860
2020/01/31 23:11:06.8	189.910	-0.250	-1.150	1.890
2020/01/31 23:11:06.9	189.900	-0.200	-1.170	1.920
2020/01/31 23:11:07.0	189.890	-0.150	-1.190	1.950
2020/01/31 23:11:07.1	189.890	-0.090	-1.200	1.980
2020/01/31 23:11:07.2	189.870	-0.040	-1.200	2.000
2020/01/31 23:11:07.3	189.860	0.010	-1.190	2.020
2020/01/31 23:11:07.4	189.850	0.060	-1.180	2.040
2020/01/31 23:11:07.5	189.830	0.110	-1.160	2.050
2020/01/31 23:11:07.6	189.820	0.160	-1.130	2.070
2020/01/31 23:11:07.7	189.810	0.200	-1.100	2.070
2020/01/31 23:11:07.8	189.790	0.240	-1.060	2.080
2020/01/31 23:11:07.9	189.770	0.270	-1.020	2.080
2020/01/31 23:11:08.0	189.760	0.300	-0.960	2.080
2020/01/31 23:11:08.1	189.750	0.320	-0.900	2.080
2020/01/31 23:11:08.2	189.740	0.340	-0.840	2.070
2020/01/31 23:11:08.3	189.720	0.350	-0.770	2.070
2020/01/31 23:11:08.4	189.710	0.360	-0.690	2.050
2020/01/31 23:11:08.5	189.700	0.360	-0.610	2.040
2020/01/31 23:11:08.6	189.690	0.360	-0.520	2.020
2020/01/31 23:11:08.7	189.690	0.350	-0.430	2.000
2020/01/31 23:11:08.8	189.680	0.330	-0.340	1.970
2020/01/31 23:11:08.9	189.680	0.310	-0.240	1.940
2020/01/31 23:11:09.0	189.680	0.290	-0.140	1.910
2020/01/31 23:11:09.1	189.680	0.260	-0.050	1.870
2020/01/31 23:11:09.2	189.690	0.230	0.050	1.830
2020/01/31 23:11:09.3	189.690	0.190	0.160	1.790
2020/01/31 23:11:09.4	189.700	0.150	0.260	1.740
2020/01/31 23:11:09.5	189.710	0.100	0.360	1.700
2020/01/31 23:11:09.6	189.730	0.060	0.450	1.650
2020/01/31 23:11:09.7	189.740	0.010	0.550	1.600
2020/01/31 23:11:09.8	189.760	-0.040	0.640	1.550
2020/01/31 23:11:09.9	189.790	-0.090	0.720	1.500
2020/01/31 23:11:10.0	189.810	-0.140	0.800	1.440
2020/01/31 23:11:10.1	189.840	-0.190	0.870	1.390
2020/01/31 23:11:10.2	189.870	-0.240	0.930	1.330
2020/01/31 23:11:10.3	189.900	-0.290	0.990	1.270
2020/01/31 23:11:10.4	189.930	-0.340	1.040	1.220
2020/01/31 23:11:10.5	189.960	-0.380	1.070	1.170
2020/01/31 23:11:10.6	189.990	-0.420	1.100	1.110
2020/01/31 23:11:10.7	190.020	-0.460	1.120	1.070
2020/01/31 23:11:10.8	190.050	-0.490	1.120	1.020
2020/01/31 23:11:10.9	190.070	-0.510	1.110	0.980
2020/01/31 23:11:11.0	190.100	-0.540	1.090	0.940
2020/01/31 23:11:11.1	190.120	-0.550	1.060	0.900
2020/01/31 23:11:11.2	190.140	-0.560	1.020	0.880
2020/01/31 23:11:11.3	190.160	-0.570	0.960	0.860
2020/01/31 23:11:11.4	190.170	-0.570	0.900	0.840
2020/01/31 23:11:11.5	190.180	-0.560	0.820	0.830
2020/01/31 23:11:11.6	190.190	-0.540	0.730	0.830
2020/01/31 23:11:11.7	190.190	-0.520	0.640	0.830
2020/01/31 23:11:11.8	190.190	-0.490	0.540	0.840
2020/01/31 23:11:11.9	190.180	-0.460	0.430	0.860
2020/01/31 23:11:12.0	190.170	-0.420	0.310	0.880
2020/01/31 23:11:12.1	190.140	-0.380	0.200	0.910
2020/01/31 23:11:12.2	190.120	-0.330	0.080	0.930
2020/01/31 23:11:12.3	190.100	-0.280	-0.050	0.970
2020/01/31 23:11:12.4	190.070	-0.220	-0.170	1.000
2020/01/31 23:11:12.5	190.040	-0.160	-0.300	1.030
2020/01/31 23:11:12.6	190.010	-0.090	-0.420	1.070
2020/01/31 23:11:12.7	189.980	-0.030	-0.530	1.100
2020/01/31 23:11:12.8	189.940	0.040	-0.650	1.130
2020/01/31 23:11:12.9	189.910	0.110	-0.750	1.170
2020/01/31 23:11:13.0	189.870	0.180	-0.850	1.200
2020/01/31 23:11:13.1	189.830	0.240	-0.940	1.230
2020/01/31 23:11:13.2	189.800	0.310	-1.020	1.250
2020/01/31 23:11:13.3	189.760	0.370	-1.090	1.280
2020/01/31 23:11:13.4	189.730	0.430	-1.140	1.300
2020/01/31 23:11:13.5	189.700	0.490	-1.190	1.320
2020/01/31 23:11:13.6	189.670	0.540	-1.220	1.330
2020/01/31 23:11:13.7	189.640	0.590	-1.240	1.350
2020/01/31 23:11:13.8	189.620	0.630	-1.250	1.360
2020/01/31 23:11:13.9	189.600	0.660	-1.240	1.370
2020/01/31 23:11:14.0	189.580	0.690	-1.230	1.390
2020/01/31 23:11:14.1	189.570	0.710	-1.190	1.390
2020/01/31 23:11:14.2	189.550	0.730	-1.150	1.400
2020/01/31 23:11:14.3	189.540	0.730	-1.100	1.410
2020/01/31 23:11:14.4	189.540	0.730	-1.040	1.420
2020/01/31 23:11:14.5	189.530	0.720	-0.970	1.430
2020/01/31 23:11:14.6	189.540	0.710	-0.890	1.440
2020/01/31 23:11:14.7	189.540	0.690	-0.810	1.450
2020/01/31 23:11:14.8	189.550	0.660	-0.720	1.460
2020/01/31 23:11:14.9	189.560	0.620	-0.620	1.460
2020/01/31 23:11:15.0	189.570	0.580	-0.520	1.470
2020/01/31 23:11:15.1	189.570	0.530	-0.420	1.480
2020/01/31 23:11:15.2	189.590	0.480	-0.320	1.490
2020/01/31 23:11:15.3	189.610	0.420	-0.220	1.500
2020/01/31 23:11:15.4	189.630	0.360	-0.120	1.510
2020/01/31 23:11:15.5	189.650	0.300	-0.030	1.520
2020/01/31 23:11:15.6	189.670	0.230	0.060	1.530
2020/01/31 23:11:15.7	189.700	0.170	0.150	1.530
2020/01/31 23:11:15.8	189.720	0.100	0.230	1.540
2020/01/31 23:11:15.9	189.750	0.030	0.300	1.550
2020/01/31 23:11:16.0	189.770	-0.040	0.370	1.550
2020/01/31 23:11:16.1	189.790	-0.100	0.420	1.560
2020/01/31 23:11:16.2	189.810	-0.170	0.470	1.560
2020/01/31 23:11:16.3	189.830	-0.230	0.510	1.570
2020/01/31 23:11:16.4	189.850	-0.280	0.540	1.570
2020/01/31 23:11:16.5	189.870	-0.340	0.560	1.580
2020/01/31 23:11:16.6	189.890	-0.380	0.570	1.580
2020/01/31 23:11:16.7	189.900	-0.430	0.570	1.590
2020/01/31 23:11:16.8	189.920	-0.470	0.560	1.590
2020/01/31 23:11:16.9	189.930	-0.500	0.540	1.590
2020/01/31 23:11:17.0	189.950	-0.530	0.520	1.600
2020/01/31 23:11:17.1	189.970	-0.550	0.490	1.590
2020/01/31 23:11:17.2	189.980	-0.560	0.440	1.600
2020/01/31 23:11:17.3	189.990	-0.570	0.390	1.600
2020/01/31 23:11:17.4	190.000	-0.570	0.340	1.610
2020/01/31 23:11:17.5	190.020	-0.570	0.270	1.610
2020/01/31 23:11:17.6	190.030	-0.560	0.210	1.620
2020/01/31 23:11:17.7	190.040	-0.550	0.140	1.620
2020/01/31 23:11:17.8	190.050	-0.520	0.060	1.630
2020/01/31 23:11:17.9	190.060	-0.500	-0.020	1.640
2020/01/31 23:11:18.0	190.070	-0.470	-0.100	1.640
2020/01/31 23:11:18.1	190.080	-0.430	-0.170	1.650
2020/01/31 23:11:18.2	190.090	-0.390	-0.250	1.660
2020/01/31 23:11:18.3	190.100	-0.340	-0.330	1.660
2020/01/31 23:11:18.4	190.100	-0.290	-0.410	1.660
2020/01/31 23:11:18.5	190.110	-0.240	-0.480	1.660
2020/01/31 23:11:18.6	190.120	-0.190	-0.550	1.660
2020/01/31 23:11:18.7	190.130	-0.130	-0.610	1.650
2020/01/31 23:11:18.8	190.130	-0.070	-0.670	1.650
2020/01/31 23:11:18.9	190.140	-0.010	-0.730	1.640
2020/01/31 23:11:19.0	190.140	0.050	-0.780	1.630
2020/01/31 23:11:19.1	190.150	0.100	-0.830	1.610
2020/01/31 23:11:19.2	190.150	0.160	-0.860	1.600
2020/01/31 23:11:19.3	190.150	0.220	-0.900	1.580
2020/01/31 23:11:19.4	190.160	0.270	-0.930	1.560
2020/01/31 23:11:19.5	190.160	0.320	-0.950	1.530
2020/01/31 23:11:19.6	190.160	0.370	-0.960	1.510
2020/01/31 23:11:19.7	190.160	0.420	-0.970	1.480
2020/01/31 23:11:19.8	190.170	0.460	-0.980	1.460
2020/01/31 23:11:19.9	190.170	0.500	-0.980	1.430
2020/01/31 23:11:20.0	190.170	0.530	-0.970	1.400
2020/01/31 23:11:20.1	190.170	0.560	-0.960	1.360
2020/01/31 23:11:20.2	190.170	0.580	-0.940	1.330
2020/01/31 23:11:20.3	190.180	0.600	-0.920	1.300
2020/01/31 23:11:20.4	190.180	0.610	-0.900	1.260
2020/01/31 23:11:20.5	190.190	0.620	-0.870	1.230
2020/01/31 23:11:20.6	190.190	0.620	-0.840	1.200
2020/01/31 23:11:20.7	190.200	0.620	-0.810	1.170
2020/01/31 23:11:20.8	190.200	0.610	-0.780	1.140
2020/01/31 23:11:20.9	190.210	0.600	-0.750	1.120
2020/01/31 23:11:21.0	190.210	0.580	-0.710	1.100
2020/01/31 23:11:21.1	190.220	0.560	-0.680	1.080
2020/01/31 23:11:21.2	190.220	0.540	-0.640	1.060
2020/01/31 23:11:21.3	190.230	0.510	-0.610	1.050
2020/01/31 23:11:21.4	190.230	0.480	-0.570	1.040
2020/01/31 23:11:21.5	190.240	0.440	-0.540	1.030
2020/01/31 23:11:21.6	190.240	0.400	-0.510	1.030
2020/01/31 23:11:21.7	190.240	0.360	-0.480	1.030
2020/01/31 23:11:21.8	190.240	0.320	-0.450	1.040
2020/01/31 23:11:21.9	190.240	0.280	-0.430	1.050
2020/01/31 23:11:22.0	190.240	0.240	-0.400	1.070
2020/01/31 23:11:22.1	190.230	0.190	-0.380	1.080
2020/01/31 23:11:22.2	190.220	0.150	-0.360	1.110
2020/01/31 23:11:22.3	190.210	0.110	-0.340	1.140
2020/01/31 23:11:22.4	190.200	0.070	-0.320	1.160
2020/01/31 23:11:22.5	190.190	0.030	-0.310	1.200
2020/01/31 23:11:22.6	190.180	-0.010	-0.290	1.230
2020/01/31 23:11:22.7	190.160	-0.050	-0.280	1.270
2020/01/31 23:11:22.8	190.150	-0.080	-0.270	1.310
2020/01/31 23:11:22.9	190.130	-0.110	-0.250	1.340
2020/01/31 23:11:23.0	190.110	-0.140	-0.240	1.380
2020/01/31 23:11:23.1	190.080	-0.170	-0.230	1.420
2020/01/31 23:11:23.2	190.060	-0.190	-0.220	1.450
2020/01/31 23:11:23.3	190.030	-0.210	-0.210	1.490
2020/01/31 23:11:23.4	190.010	-0.230	-0.200	1.530
2020/01/31 23:11:23.5	189.990	-0.250	-0.190	1.560
2020/01/31 23:11:23.6	189.960	-0.260	-0.170	1.600
2020/01/31 23:11:23.7	189.940	-0.270	-0.160	1.630
2020/01/31 23:11:23.8	189.920	-0.280	-0.140	1.660
2020/01/31 23:11:23.9	189.890	-0.290	-0.130	1.690
2020/01/31 23:11:24.0	189.870	-0.300	-0.110	1.720
2020/01/31 23:11:24.1	189.850	-0.300	-0.090	1.740
2020/01/31 23:11:24.2	189.830	-0.310	-0.070	1.770
2020/01/31 23:11:24.3	189.810	-0.310	-0.050	1.790
2020/01/31 23:11:24.4	189.800	-0.310	-0.030	1.810
2020/01/31 23:11:24.5	189.780	-0.310	-0.010	1.830
2020/01/31 23:11:24.6	189.760	-0.310	0.010	1.840
2020/01/31 23:11:24.7	189.750	-0.310	0.030	1.860
2020/01/31 23:11:24.8	189.740	-0.310	0.060	1.870
2020/01/31 23:11:24.9	189.730	-0.310	0.080	1.880
2020/01/31 23:11:25.0	189.720	-0.310	0.110	1.890
2020/01/31 23:11:25.1	189.710	-0.300	0.130	1.900
2020/01/31 23:11:25.2	189.700	-0.300	0.150	1.900
2020/01/31 23:11:25.3	189.700	-0.300	0.180	1.900
2020/01/31 23:11:25.4	189.700	-0.300	0.200	1.900
2020/01/31 23:11:25.5	189.690	-0.300	0.220	1.900
2020/01/31 23:11:25.6	189.690	-0.300	0.250	1.890
2020/01/31 23:11:25.7	189.690	-0.290	0.260	1.890
2020/01/31 23:11:25.8	189.690	-0.290	0.280	1.880
2020/01/31 23:11:25.9	189.690	-0.290	0.300	1.870
2020/01/31 23:11:26.0	189.690	-0.290	0.310	1.860
2020/01/31 23:11:26.1	189.690	-0.290	0.320	1.850
2020/01/31 23:11:26.2	189.690	-0.290	0.330	1.840
2020/01/31 23:11:26.3	189.690	-0.280	0.330	1.830
2020/01/31 23:11:26.4	189.690	-0.280	0.330	1.810
2020/01/31 23:11:26.5	189.690	-0.280	0.330	1.800
2020/01/31 23:11:26.6	189.680	-0.270	0.330	1.790
2020/01/31 23:11:26.7	189.680	-0.270	0.320	1.770
2020/01/31 23:11:26.8	189.680	-0.260	0.300	1.760
2020/01/31 23:11:26.9	189.670	-0.260	0.290	1.740
2020/01/31 23:11:27.0	189.670	-0.250	0.270	1.730
2020/01/31 23:11:27.1	189.670	-0.240	0.240	1.710
2020/01/31 23:11:27.2	189.660	-0.230	0.220	1.690
2020/01/31 23:11:27.3	189.660	-0.220	0.190	1.670
2020/01/31 23:11:27.4	189.660	-0.200	0.160	1.650
2020/01/31 23:11:27.5	189.660	-0.190	0.130	1.630
2020/01/31 23:11:27.6	189.660	-0.180	0.090	1.600
2020/01/31 23:11:27.7	189.660	-0.160	0.060	1.580
2020/01/31 23:11:27.8	189.660	-0.140	0.020	1.550
2020/01/31 23:11:27.9	189.670	-0.130	-0.020	1.520
2020/01/31 23:11:28.0	189.670	-0.110	-0.060	1.490
2020/01/31 23:11:28.1	189.690	-0.090	-0.090	1.460
2020/01/31 23:11:28.2	189.690	-0.070	-0.130	1.430
2020/01/31 23:11:28.3	189.700	-0.050	-0.170	1.400
2020/01/31 23:11:28.4	189.710	-0.030	-0.210	1.370
2020/01/31 23:11:28.5	189.730	-0.010	-0.250	1.340
2020/01/31 23:11:28.6	189.740	0.020	-0.290	1.310
2020/01/31 23:11:28.7	189.750	0.040	-0.330	1.280
2020/01/31 23:11:28.8	189.760	0.060	-0.360	1.260
2020/01/31 23:11:28.9	189.780	0.080	-0.400	1.230
2020/01/31 23:11:29.0	189.790	0.100	-0.430	1.210
2020/01/31 23:11:29.1	189.800	0.120	-0.470	1.180
2020/01/31 23:11:29.2	189.820	0.150	-0.500	1.160
2020/01/31 23:11:29.3	189.830	0.170	-0.530	1.140
2020/01/31 23:11:29.4	189.840	0.190	-0.560	1.130
2020/01/31 23:11:29.5	189.850	0.210	-0.590	1.110
2020/01/31 23:11:29.6	189.860	0.230	-0.620	1.100
2020/01/31 23:11:29.7	189.860	0.240	-0.650	1.100
2020/01/31 23:11:29.8	189.870	0.260	-0.680	1.090
2020/01/31 23:11:29.9	189.870	0.280	-0.700	1.090
2020/01/31 23:11:30.0	189.880	0.300	-0.720	1.090
2020/01/31 23:11:30.1	189.880	0.310	-0.740	1.080
2020/01/31 23:11:30.2	189.880	0.330	-0.760	1.090
2020/01/31 23:11:30.3	189.880	0.340	-0.780	1.090
2020/01/31 23:11:30.4	189.880	0.350	-0.790	1.100
2020/01/31 23:11:30.5	189.880	0.360	-0.800	1.110
2020/01/31 23:11:30.6	189.880	0.370	-0.810	1.120
2020/01/31 23:11:30.7	189.880	0.380	-0.820	1.130
2020/01/31 23:11:30.8	189.870	0.390	-0.830	1.150
2020/01/31 23:11:30.9	189.870	0.400	-0.830	1.160
2020/01/31 23:11:31.0	189.860	0.400	-0.830	1.180
2020/01/31 23:11:31.1	189.860	0.400	-0.820	1.190
2020/01/31 23:11:31.2	189.860	0.410	-0.820	1.210
2020/01/31 23:11:31.3	189.860	0.410	-0.810	1.220
2020/01/31 23:11:31.4	189.850	0.400	-0.790	1.240
2020/01/31 23:11:31.5	189.850	0.400	-0.780	1.250
2020/01/31 23:11:31.6	189.840	0.400	-0.760	1.260
2020/01/31 23:11:31.7	189.840	0.390	-0.740	1.280
2020/01/31 23:11:31.8	189.840	0.380	-0.710	1.290
2020/01/31 23:11:31.9	189.840	0.370	-0.680	1.300
2020/01/31 23:11:32.0	189.840	0.360	-0.650	1.310
2020/01/31 23:11:32.1	189.830	0.340	-0.610	1.320
2020/01/31 23:11:32.2	189.840	0.330	-0.570	1.330
2020/01/31 23:11:32.3	189.840	0.310	-0.530	1.330
2020/01/31 23:11:32.4	189.850	0.290	-0.490	1.340
2020/01/31 23:11:32.5	189.850	0.270	-0.440	1.350
2020/01/31 23:11:32.6	189.860	0.240	-0.390	1.360
2020/01/31 23:11:32.7	189.870	0.220	-0.350	1.370
2020/01/31 23:11:32.8	189.890	0.190	-0.300	1.380
2020/01/31 23:11:32.9	189.900	0.170	-0.250	1.390
2020/01/31 23:11:33.0	189.910	0.140	-0.210	1.400
2020/01/31 23:11:33.1	189.920	0.110	-0.160	1.410
2020/01/31 23:11:33.2	189.930	0.080	-0.120	1.420
2020/01/31 23:11:33.3	189.950	0.050	-0.080	1.430
2020/01/31 23:11:33.4	189.970	0.010	-0.040	1.440
2020/01/31 23:11:33.5	189.980	-0.020	-0.010	1.460
2020/01/31 23:11:33.6	190.000	-0.050	0.020	1.470
2020/01/31 23:11:33.7	190.010	-0.080	0.040	1.490
2020/01/31 23:11:33.8	190.020	-0.110	0.060	1.510
2020/01/31 23:11:33.9	190.030	-0.140	0.070	1.530
2020/01/31 23:11:34.0	190.040	-0.170	0.080	1.550
2020/01/31 23:11:34.1	190.060	-0.190	0.080	1.570
2020/01/31 23:11:34.2	190.060	-0.220	0.080	1.600
2020/01/31 23:11:34.3	190.070	-0.240	0.070	1.620
2020/01/31 23:11:34.4	190.070	-0.260	0.060	1.650
2020/01/31 23:11:34.5	190.070	-0.280	0.040	1.670
2020/01/31 23:11:34.6	190.070	-0.300	0.020	1.700
2020/01/31 23:11:34.7	190.070	-0.320	-0.000	1.730
2020/01/31 23:11:34.8	190.060	-0.330	-0.030	1.760
2020/01/31 23:11:34.9	190.060	-0.340	-0.060	1.780
2020/01/31 23:11:35.0	190.050	-0.350	-0.090	1.810
2020/01/31 23:11:35.1	190.040	-0.350	-0.120	1.850
2020/01/31 23:11:35.2	190.030	-0.360	-0.160	1.870
2020/01/31 23:11:35.3	190.010	-0.360	-0.200	1.900
2020/01/31 23:11:35.4	189.990	-0.350	-0.230	1.930
2020/01/31 23:11:35.5	189.970	-0.350	-0.270	1.960
2020/01/31 23:11:35.6	189.950	-0.340	-0.310	1.990
2020/01/31 23:11:35.7	189.920	-0.320	-0.340	2.030
2020/01/31 23:11:35.8	189.890	-0.310	-0.380	2.060
2020/01/31 23:11:35.9	189.860	-0.290	-0.410	2.090
2020/01/31 23:11:36.0	189.820	-0.270	-0.440	2.120
2020/01/31 23:11:36.1	189.780	-0.250	-0.470	2.150
2020/01/31 23:11:36.2	189.740	-0.230	-0.500	2.180
2020/01/31 23:11:36.3	189.710	-0.200	-0.520	2.220
2020/01/31 23:11:36.4	189.670	-0.170	-0.540	2.250
2020/01/31 23:11:36.5	189.630	-0.140	-0.550	2.270
2020/01/31 23:11:36.6	189.590	-0.110	-0.560	2.300
2020/01/31 23:11:36.7	189.560	-0.080	-0.560	2.320
2020/01/31 23:11:36.8	189.520	-0.050	-0.560	2.340
2020/01/31 23:11:36.9	189.490	-0.020	-0.540	2.350
2020/01/31 23:11:37.0	189.470	0.000	-0.530	2.350
2020/01/31 23:11:37.1	189.450	0.030	-0.500	2.360
2020/01/31 23:11:37.2	189.430	0.060	-0.470	2.350
2020/01/31 23:11:37.3	189.410	0.090	-0.430	2.340
2020/01/31 23:11:37.4	189.400	0.110	-0.380	2.320
2020/01/31 23:11:37.5	189.400	0.130	-0.330	2.290
2020/01/31 23:11:37.6	189.400	0.150	-0.270	2.260
2020/01/31 23:11:37.7	189.400	0.170	-0.200	2.220
2020/01/31 23:11:37.8	189.410	0.180	-0.130	2.180
2020/01/31 23:11:37.9	189.430	0.190	-0.050	2.130
2020/01/31 23:11:38.0	189.450	0.200	0.030	2.080
2020/01/31 23:11:38.1	189.470	0.210	0.110	2.010
2020/01/31 23:11:38.2	189.500	0.210	0.190	1.950
2020/01/31 23:11:38.3	189.530	0.210	0.270	1.880
2020/01/31 23:11:38.4	189.570	0.200	0.350	1.820
2020/01/31 23:11:38.5	189.600	0.200	0.430	1.750
2020/01/31 23:11:38.6	189.640	0.190	0.500	1.680
2020/01/31 23:11:38.7	189.680	0.180	0.570	1.610
2020/01/31 23:11:38.8	189.720	0.160	0.630	1.540
2020/01/31 23:11:38.9	189.760	0.150	0.680	1.470
2020/01/31 23:11:39.0	189.790	0.130	0.730	1.400
2020/01/31 23:11:39.1	189.840	0.120	0.760	1.340
2020/01/31 23:11:39.2	189.870	0.100	0.780	1.280
2020/01/31 23:11:39.3	189.900	0.080	0.800	1.230
2020/01/31 23:11:39.4	189.930	0.070	0.800	1.180
2020/01/31 23:11:39.5	189.950	0.060	0.790	1.130
2020/01/31 23:11:39.6	189.970	0.040	0.770	1.100
2020/01/31 23:11:39.7	189.990	0.030	0.740	1.060
2020/01/31 23:11:39.8	190.000	0.020	0.690	1.040
2020/01/31 23:11:39.9	190.010	0.020	0.630	1.020
2020/01/31 23:11:40.0	190.010	0.020	0.570	1.010
2020/01/31 23:11:40.1	190.010	0.020	0.490	1.000
2020/01/31 23:11:40.2	190.000	0.020	0.410	1.000
2020/01/31 23:11:40.3	190.000	0.030	0.310	1.000
2020/01/31 23:11:40.4	189.990	0.030	0.210	1.000
2020/01/31 23:11:40.5	189.990	0.050	0.110	1.010
2020/01/31 23:11:40.6	189.970	0.060	-0.000	1.020
2020/01/31 23:11:40.7	189.960	0.070	-0.110	1.040
2020/01/31 23:11:40.8	189.950	0.090	-0.230	1.050
2020/01/31 23:11:40.9	189.940	0.110	-0.340	1.070
2020/01/31 23:11:41.0	189.920	0.130	-0.450	1.090
2020/01/31 23:11:41.1	189.900	0.150	-0.560	1.110
2020/01/31 23:11:41.2	189.890	0.170	-0.670	1.130
2020/01/31 23:11:41.3	189.870	0.190	-0.770	1.160
2020/01/31 23:11:41.4	189.850	0.210	-0.860	1.180
2020/01/31 23:11:41.5	189.830	0.230	-0.950	1.210
2020/01/31 23:11:41.6	189.810	0.250	-1.030	1.240
2020/01/31 23:11:41.7	189.790	0.260	-1.100	1.270
2020/01/31 23:11:41.8	189.770	0.280	-1.160	1.300
2020/01/31 23:11:41.9	189.750	0.290	-1.220	1.330
2020/01/31 23:11:42.0	189.730	0.300	-1.260	1.370
2020/01/31 23:11:42.1	189.710	0.310	-1.300	1.400
2020/01/31 23:11:42.2	189.690	0.310	-1.330	1.440
2020/01/31 23:11:42.3	189.670	0.320	-1.350	1.470
2020/01/31 23:11:42.4	189.650	0.310	-1.360	1.500
2020/01/31 23:11:42.5	189.620	0.310	-1.360	1.540
2020/01/31 23:11:42.6	189.600	0.300	-1.350	1.570
2020/01/31 23:11:42.7	189.580	0.290	-1.340	1.600
2020/01/31 23:11:42.8	189.560	0.270	-1.310	1.630
2020/01/31 23:11:42.9	189.550	0.250	-1.280	1.660
2020/01/31 23:11:43.0	189.530	0.230	-1.250	1.690
2020/01/31 23:11:43.1	189.510	0.210	-1.210	1.720
2020/01/31 23:11:43.2	189.500	0.180	-1.160	1.740
2020/01/31 23:11:43.3	189.490	0.150	-1.110	1.760
2020/01/31 23:11:43.4	189.480	0.110	-1.050	1.780
2020/01/31 23:11:43.5	189.470	0.080	-0.990	1.800
2020/01/31 23:11:43.6	189.470	0.040	-0.930	1.820
2020/01/31 23:11:43.7	189.470	-0.000	-0.870	1.830
2020/01/31 23:11:43.8	189.470	-0.040	-0.800	1.840
2020/01/31 23:11:43.9	189.470	-0.090	-0.730	1.850
2020/01/31 23:11:44.0	189.480	-0.130	-0.660	1.850
2020/01/31 23:11:44.1	189.490	-0.180	-0.590	1.850
2020/01/31 23:11:44.2	189.500	-0.220	-0.530	1.850
2020/01/31 23:11:44.3	189.520	-0.270	-0.460	1.850
2020/01/31 23:11:44.4	189.540	-0.310	-0.400	1.850
2020/01/31 23:11:44.5	189.560	-0.360	-0.340	1.840
2020/01/31 23:11:44.6	189.580	-0.400	-0.280	1.830
2020/01/31 23:11:44.7	189.600	-0.440	-0.220	1.820
2020/01/31 23:11:44.8	189.630	-0.480	-0.170	1.800
2020/01/31 23:11:44.9	189.660	-0.520	-0.130	1.790
2020/01/31 23:11:45.0	189.680	-0.550	-0.080	1.770
2020/01/31 23:11:45.1	189.710	-0.580	-0.040	1.750
2020/01/31 23:11:45.2	189.740	-0.610	-0.010	1.730
2020/01/31 23:11:45.3	189.780	-0.630	0.020	1.710
2020/01/31 23:11:45.4	189.810	-0.650	0.050	1.690
2020/01/31 23:11:45.5	189.840	-0.670	0.070	1.670
2020/01/31 23:11:45.6	189.870	-0.680	0.090	1.640
2020/01/31 23:11:45.7	189.900	-0.680	0.100	1.620
2020/01/31 23:11:45.8	189.930	-0.690	0.100	1.590
2020/01/31 23:11:45.9	189.960	-0.680	0.100	1.560
2020/01/31 23:11:46.0	189.990	-0.670	0.100	1.530
2020/01/31 23:11:46.1	190.010	-0.660	0.090	1.500
2020/01/31 23:11:46.2	190.040	-0.640	0.070	1.470
2020/01/31 23:11:46.3	190.060	-0.610	0.060	1.440
2020/01/31 23:11:46.4	190.080	-0.580	0.040	1.410
2020/01/31 23:11:46.5	190.100	-0.550	0.010	1.380
2020/01/31 23:11:46.6	190.110	-0.510	-0.020	1.350
2020/01/31 23:11:46.7	190.120	-0.460	-0.050	1.320
2020/01/31 23:11:46.8	190.130	-0.410	-0.080	1.280
2020/01/31 23:11:46.9	190.140	-0.360	-0.120	1.250
2020/01/31 23:11:47.0	190.150	-0.300	-0.150	1.220
2020/01/31 23:11:47.1	190.140	-0.240	-0.190	1.190
2020/01/31 23:11:47.2	190.140	-0.180	-0.230	1.170
2020/01/31 23:11:47.3	190.140	-0.120	-0.270	1.140
2020/01/31 23:11:47.4	190.130	-0.050	-0.310	1.110
2020/01/31 23:11:47.5	190.130	0.010	-0.340	1.090
2020/01/31 23:11:47.6	190.120	0.080	-0.380	1.060
2020/01/31 23:11:47.7	190.110	0.140	-0.410	1.040
2020/01/31 23:11:47.8	190.100	0.200	-0.440	1.020
2020/01/31 23:11:47.9	190.090	0.260	-0.470	1.000
2020/01/31 23:11:48.0	190.070	0.320	-0.490	0.990
2020/01/31 23:11:48.1	190.060	0.370	-0.510	0.970
2020/01/31 23:11:48.2	190.040	0.420	-0.530	0.960
2020/01/31 23:11:48.3	190.030	0.470	-0.540	0.950
2020/01/31 23:11:48.4	190.010	0.510	-0.550	0.940
2020/01/31 23:11:48.5	190.000	0.550	-0.550	0.930
2020/01/31 23:11:48.6	189.980	0.580	-0.540	0.930
2020/01/31 23:11:48.7	189.970	0.600	-0.530	0.930
2020/01/31 23:11:48.8	189.960	0.620	-0.520	0.930
2020/01/31 23:11:48.9	189.950	0.630	-0.490	0.930
2020/01/31 23:11:49.0	189.950	0.630	-0.470	0.930
2020/01/31 23:11:49.1	189.950	0.630	-0.430	0.940
2020/01/31 23:11:49.2	189.940	0.620	-0.400	0.940
2020/01/31 23:11:49.3	189.950	0.600	-0.350	0.950
2020/01/31 23:11:49.4	189.950	0.580	-0.300	0.960
2020/01/31 23:11:49.5	189.960	0.550	-0.250	0.970
2020/01/31 23:11:49.6	189.970	0.520	-0.190	0.990
2020/01/31 23:11:49.7	189.980	0.480	-0.120	1.000
2020/01/31 23:11:49.8	190.000	0.430	-0.060	1.020
2020/01/31 23:11:49.9	190.010	0.380	0.010	1.050
2020/01/31 23:11:50.0	190.030	0.320	0.090	1.070
2020/01/31 23:11:50.1	190.050	0.260	0.160	1.100
2020/01/31 23:11:50.2	190.070	0.200	0.230	1.130
2020/01/31 23:11:50.3	190.090	0.130	0.310	1.160
2020/01/31 23:11:50.4	190.120	0.070	0.390	1.200
2020/01/31 23:11:50.5	190.150	-0.000	0.460	1.250
2020/01/31 23:11:50.6	190.170	-0.070	0.540	1.290
2020/01/31 23:11:50.7	190.200	-0.140	0.610	1.340
2020/01/31 23:11:50.8	190.230	-0.210	0.670	1.390
2020/01/31 23:11:50.9	190.260	-0.280	0.730	1.440
2020/01/31 23:11:51.0	190.280	-0.340	0.790	1.490
2020/01/31 23:11:51.1	190.310	-0.400	0.840	1.550
2020/01/31 23:11:51.2	190.330	-0.460	0.890	1.610
2020/01/31 23:11:51.3	190.350	-0.520	0.920	1.670
2020/01/31 23:11:51.4	190.370	-0.570	0.950	1.730
2020/01/31 23:11:51.5	190.380	-0.620	0.970	1.790
2020/01/31 23:11:51.6	190.390	-0.660	0.970	1.850
2020/01/31 23:11:51.7	190.400	-0.690	0.970	1.910
2020/01/31 23:11:51.8	190.410	-0.720	0.960	1.970
2020/01/31 23:11:51.9	190.410	-0.750	0.940	2.030
2020/01/31 23:11:52.0	190.400	-0.760	0.900	2.090
2020/01/31 23:11:52.1	190.410	-0.770	0.860	2.160
2020/01/31 23:11:52.2	190.400	-0.770	0.810	2.210
2020/01/31 23:11:52.3	190.380	-0.770	0.740	2.270
2020/01/31 23:11:52.4	190.360	-0.750	0.670	2.330
2020/01/31 23:11:52.5	190.330	-0.730	0.590	2.390
2020/01/31 23:11:52.6	190.300	-0.710	0.490	2.450
2020/01/31 23:11:52.7	190.270	-0.670	0.390	2.500
2020/01/31 23:11:52.8	190.230	-0.630	0.290	2.550
2020/01/31 23:11:52.9	190.190	-0.580	0.170	2.600
2020/01/31 23:11:53.0	190.150	-0.530	0.050	2.650
2020/01/31 23:11:53.1	190.100	-0.470	-0.070	2.700
2020/01/31 23:11:53.2	190.050	-0.400	-0.190	2.740
2020/01/31 23:11:53.3	190.000	-0.340	-0.320	2.780
2020/01/31 23:11:53.4	189.940	-0.260	-0.450	2.810
2020/01/31 23:11:53.5	189.890	-0.190	-0.570	2.840
2020/01/31 23:11:53.6	189.840	-0.110	-0.700	2.870
2020/01/31 23:11:53.7	189.780	-0.030	-0.810	2.890
2020/01/31 23:11:53.8	189.730	0.050	-0.930	2.900
2020/01/31 23:11:53.9	189.690	0.130	-1.030	2.910
2020/01/31 23:11:54.0	189.640	0.210	-1.130	2.910
2020/01/31 23:11:54.1	189.610	0.290	-1.220	2.900
2020/01/31 23:11:54.2	189.570	0.370	-1.300	2.890
2020/01/31 23:11:54.3	189.540	0.440	-1.360	2.870
2020/01/31 23:11:54.4	189.510	0.510	-1.420	2.840
2020/01/31 23:11:54.5	189.490	0.580	-1.460	2.800
2020/01/31 23:11:54.6	189.470	0.640	-1.490	2.760
2020/01/31 23:11:54.7	189.460	0.700	-1.510	2.710
2020/01/31 23:11:54.8	189.460	0.750	-1.510	2.660
2020/01/31 23:11:54.9	189.460	0.790	-1.500	2.590
2020/01/31 23:11:55.0	189.460	0.830	-1.480	2.530
2020/01/31 23:11:55.1	189.470	0.860	-1.450	2.450
2020/01/31 23:11:55.2	189.490	0.880	-1.400	2.370
2020/01/31 23:11:55.3	189.510	0.900	-1.340	2.280
2020/01/31 23:11:55.4	189.540	0.910	-1.280	2.190
2020/01/31 23:11:55.5	189.570	0.910	-1.200	2.100
2020/01/31 23:11:55.6	189.610	0.910	-1.120	2.000
2020/01/31 23:11:55.7	189.650	0.900	-1.030	1.900
2020/01/31 23:11:55.8	189.690	0.880	-0.930	1.800
2020/01/31 23:11:55.9	189.740	0.850	-0.830	1.700
2020/01/31 23:11:56.0	189.790	0.820	-0.730	1.590
2020/01/31 23:11:56.1	189.830	0.790	-0.620	1.480
2020/01/31 23:11:56.2	189.890	0.750	-0.520	1.380
2020/01/31 23:11:56.3	189.940	0.700	-0.420	1.280
2020/01/31 23:11:56.4	189.990	0.650	-0.320	1.180
2020/01/31 23:11:56.5	190.050	0.600	-0.230	1.090
2020/01/31 23:11:56.6	190.100	0.540	-0.140	1.000
2020/01/31 23:11:56.7	190.150	0.480	-0.070	0.920
2020/01/31 23:11:56.8	190.200	0.420	0.010	0.840
2020/01/31 23:11:56.9	190.240	0.360	0.070	0.770
2020/01/31 23:11:57.0	190.280	0.290	0.120	0.710
2020/01/31 23:11:57.1	190.320	0.230	0.160	0.650
2020/01/31 23:11:57.2	190.350	0.170	0.190	0.600
2020/01/31 23:11:57.3	190.380	0.110	0.210	0.560
2020/01/31 23:11:57.4	190.410	0.050	0.220	0.530
2020/01/31 23:11:57.5	190.430	-0.010	0.220	0.510
2020/01/31 23:11:57.6	190.450	-0.070	0.210	0.500
2020/01/31 23:11:57.7	190.460	-0.120	0.190	0.490
2020/01/31 23:11:57.8	190.470	-0.170	0.160	0.490
2020/01/31 23:11:57.9	190.480	-0.220	0.120	0.500
2020/01/31 23:11:58.0	190.480	-0.260	0.070	0.510
2020/01/31 23:11:58.1	190.470	-0.300	0.020	0.530
2020/01/31 23:11:58.2	190.470	-0.340	-0.040	0.550
2020/01/31 23:11:58.3	190.460	-0.380	-0.110	0.580
2020/01/31 23:11:58.4	190.450	-0.400	-0.180	0.610
2020/01/31 23:11:58.5	190.440	-0.430	-0.260	0.640
2020/01/31 23:11:58.6	190.420	-0.450	-0.340	0.680
2020/01/31 23:11:58.7	190.410	-0.470	-0.420	0.720
2020/01/31 23:11:58.8	190.390	-0.480	-0.500	0.760
2020/01/31 23:11:58.9	190.370	-0.490	-0.580	0.810
2020/01/31 23:11:59.0	190.350	-0.500	-0.660	0.850
2020/01/31 23:11:59.1	190.330	-0.500	-0.730	0.900
2020/01/31 23:11:59.2	190.300	-0.500	-0.800	0.950
2020/01/31 23:11:59.3	190.280	-0.500	-0.860	1.000
2020/01/31 23:11:59.4	190.260	-0.490	-0.920	1.050
2020/01/31 23:11:59.5	190.240	-0.490	-0.970	1.100
2020/01/31 23:11:59.6	190.220	-0.480	-1.010	1.150
2020/01/31 23:11:59.7	190.190	-0.460	-1.050	1.210
2020/01/31 23:11:59.8	190.170	-0.450	-1.070	1.260
2020/01/31 23:11:59.9	190.150	-0.430	-1.090	1.310
2020/01/31 23:12:00.0	190.130	-0.410	-1.090	1.350
2020/01/31 23:12:00.1	190.120	-0.390	-1.090	1.400
2020/01/31 23:12:00.2	190.110	-0.370	-1.080	1.440
2020/01/31 23:12:00.3	190.090	-0.350	-1.050	1.480
2020/01/31 23:12:00.4	190.080	-0.320	-1.020	1.520
2020/01/31 23:12:00.5	190.070	-0.300	-0.980	1.550
2020/01/31 23:12:00.6	190.060	-0.280	-0.920	1.570
2020/01/31 23:12:00.7	190.050	-0.260	-0.860	1.600
2020/01/31 23:12:00.8	190.040	-0.230	-0.800	1.620
2020/01/31 23:12:00.9	190.030	-0.210	-0.720	1.630
2020/01/31 23:12:01.0	190.030	-0.190	-0.640	1.640
2020/01/31 23:12:01.1	190.020	-0.170	-0.550	1.650
2020/01/31 23:12:01.2	190.010	-0.150	-0.460	1.650
2020/01/31 23:12:01.3	190.010	-0.130	-0.370	1.660
2020/01/31 23:12:01.4	190.000	-0.120	-0.280	1.660
2020/01/31 23:12:01.5	190.000	-0.100	-0.180	1.660
2020/01/31 23:12:01.6	189.990	-0.090	-0.090	1.650
2020/01/31 23:12:01.7	189.980	-0.080	-0.000	1.650
2020/01/31 23:12:01.8	189.980	-0.070	0.090	1.640
2020/01/31 23:12:01.9	189.970	-0.060	0.170	1.630
2020/01/31 23:12:02.0	189.960	-0.060	0.250	1.620
2020/01/31 23:12:02.1	189.950	-0.050	0.320	1.610
2020/01/31 23:12:02.2	189.950	-0.050	0.400	1.600
2020/01/31 23:12:02.3	189.940	-0.050	0.460	1.580
2020/01/31 23:12:02.4	189.930	-0.050	0.520	1.560
2020/01/31 23:12:02.5	189.920	-0.050	0.570	1.550
2020/01/31 23:12:02.6	189.920	-0.050	0.620	1.530
2020/01/31 23:12:02.7	189.920	-0.060	0.660	1.510
2020/01/31 23:12:02.8	189.910	-0.060	0.690	1.490
2020/01/31 23:12:02.9	189.910	-0.070	0.720	1.470
2020/01/31 23:12:03.0	189.920	-0.080	0.740	1.450
2020/01/31 23:12:03.1	189.910	-0.090	0.760	1.420
2020/01/31 23:12:03.2	189.920	-0.100	0.770	1.410
2020/01/31 23:12:03.3	189.930	-0.120	0.780	1.390
2020/01/31 23:12:03.4	189.940	-0.130	0.770	1.380
2020/01/31 23:12:03.5	189.950	-0.150	0.770	1.370
2020/01/31 23:12:03.6	189.960	-0.160	0.760	1.360
2020/01/31 23:12:03.7	189.980	-0.180	0.750	1.360
2020/01/31 23:12:03.8	189.990	-0.190	0.730	1.360
2020/01/31 23:12:03.9	190.010	-0.210	0.710	1.360
2020/01/31 23:12:04.0	190.030	-0.220	0.680	1.360
2020/01/31 23:12:04.1	190.060	-0.240	0.660	1.360
2020/01/31 23:12:04.2	190.070	-0.250	0.630	1.370
2020/01/31 23:12:04.3	190.090	-0.270	0.590	1.380
2020/01/31 23:12:04.4	190.110	-0.280	0.560	1.390
2020/01/31 23:12:04.5	190.120	-0.290	0.520	1.410
2020/01/31 23:12:04.6	190.140	-0.300	0.490	1.420
2020/01/31 23:12:04.7	190.150	-0.300	0.450	1.440
2020/01/31 23:12:04.8	190.160	-0.310	0.400	1.460
2020/01/31 23:12:04.9	190.170	-0.310	0.360	1.480
2020/01/31 23:12:05.0	190.180	-0.310	0.310	1.500
2020/01/31 23:12:05.1	190.170	-0.310	0.260	1.520
2020/01/31 23:12:05.2	190.170	-0.300	0.210	1.540
2020/01/31 23:12:05.3	190.170	-0.300	0.150	1.560
2020/01/31 23:12:05.4	190.160	-0.280	0.100	1.580
2020/01/31 23:12:05.5	190.150	-0.270	0.040	1.610
2020/01/31 23:12:05.6	190.140	-0.250	-0.030	1.630
2020/01/31 23:12:05.7	190.130	-0.230	-0.090	1.650
2020/01/31 23:12:05.8	190.110	-0.200	-0.160	1.670
2020/01/31 23:12:05.9	190.090	-0.170	-0.220	1.700
2020/01/31 23:12:06.0	190.070	-0.140	-0.290	1.720
2020/01/31 23:12:06.1	190.040	-0.110	-0.360	1.740
2020/01/31 23:12:06.2	190.010	-0.070	-0.440	1.760
2020/01/31 23:12:06.3	189.990	-0.030	-0.510	1.790
2020/01/31 23:12:06.4	189.950	0.020	-0.580	1.810
2020/01/31 23:12:06.5	189.920	0.060	-0.660	1.830
2020/01/31 23:12:06.6	189.890	0.110	-0.730	1.840
2020/01/31 23:12:06.7	189.850	0.160	-0.810	1.860
2020/01/31 23:12:06.8	189.820	0.220	-0.880	1.880
2020/01/31 23:12:06.9	189.780	0.270	-0.950	1.890
2020/01/31 23:12:07.0	189.750	0.320	-1.010	1.910
2020/01/31 23:12:07.1	189.720	0.370	-1.070	1.910
2020/01/31 23:12:07.2	189.680	0.430	-1.130	1.920
2020/01/31 23:12:07.3	189.650	0.480	-1.190	1.930
2020/01/31 23:12:07.4	189.620	0.520	-1.230	1.940
2020/01/31 23:12:07.5	189.580	0.570	-1.280	1.940
2020/01/31 23:12:07.6	189.550	0.620	-1.310	1.940
2020/01/31 23:12:07.7	189.530	0.660	-1.340	1.940
2020/01/31 23:12:07.8	189.500	0.690	-1.360	1.940
2020/01/31 23:12:07.9	189.480	0.730	-1.380	1.940
2020/01/31 23:12:08.0	189.450	0.750	-1.380	1.930
2020/01/31 23:12:08.1	189.440	0.780	-1.380	1.920
2020/01/31 23:12:08.2	189.420	0.800	-1.370	1.910
2020/01/31 23:12:08.3	189.400	0.810	-1.360	1.900
2020/01/31 23:12:08.4	189.390	0.810	-1.330	1.890
2020/01/31 23:12:08.5	189.390	0.810	-1.300	1.870
2020/01/31 23:12:08.6	189.380	0.810	-1.250	1.850
2020/01/31 23:12:08.7	189.380	0.790	-1.210	1.830
2020/01/31 23:12:08.8	189.380	0.780	-1.150	1.810
2020/01/31 23:12:08.9	189.380	0.750	-1.090	1.780
2020/01/31 23:12:09.0	189.390	0.720	-1.020	1.750
2020/01/31 23:12:09.1	189.410	0.680	-0.940	1.720
2020/01/31 23:12:09.2	189.430	0.640	-0.860	1.680
2020/01/31 23:12:09.3	189.450	0.590	-0.780	1.650
2020/01/31 23:12:09.4	189.470	0.530	-0.690	1.610
2020/01/31 23:12:09.5	189.500	0.470	-0.600	1.580
2020/01/31 23:12:09.6	189.530	0.410	-0.510	1.540
2020/01/31 23:12:09.7	189.570	0.340	-0.410	1.510
2020/01/31 23:12:09.8	189.600	0.270	-0.320	1.470
2020/01/31 23:12:09.9	189.640	0.200	-0.220	1.440
2020/01/31 23:12:10.0	189.680	0.120	-0.130	1.410
2020/01/31 23:12:10.1	189.720	0.040	-0.040	1.380
2020/01/31 23:12:10.2	189.760	-0.040	0.050	1.350
2020/01/31 23:12:10.3	189.800	-0.110	0.130	1.330
2020/01/31 23:12:10.4	189.850	-0.190	0.210	1.310
2020/01/31 23:12:10.5	189.890	-0.270	0.280	1.290
2020/01/31 23:12:10.6	189.930	-0.340	0.350	1.280
2020/01/31 23:12:10.7	189.970	-0.410	0.410	1.270
2020/01/31 23:12:10.8	190.010	-0.480	0.460	1.260
2020/01/31 23:12:10.9	190.050	-0.540	0.500	1.260
2020/01/31 23:12:11.0	190.090	-0.600	0.540	1.260
2020/01/31 23:12:11.1	190.120	-0.650	0.570	1.260
2020/01/31 23:12:11.2	190.150	-0.690	0.580	1.270
2020/01/31 23:12:11.3	190.180	-0.730	0.590	1.280
2020/01/31 23:12:11.4	190.210	-0.760	0.590	1.290
2020/01/31 23:12:11.5	190.240	-0.790	0.580	1.310
2020/01/31 23:12:11.6	190.260	-0.810	0.570	1.320
2020/01/31 23:12:11.7	190.280	-0.820	0.540	1.340
2020/01/31 23:12:11.8	190.300	-0.820	0.500	1.360
2020/01/31 23:12:11.9	190.310	-0.810	0.460	1.390
2020/01/31 23:12:12.0	190.330	-0.800	0.410	1.410
2020/01/31 23:12:12.1	190.330	-0.780	0.350	1.440
2020/01/31 23:12:12.2	190.330	-0.750	0.280	1.460
2020/01/31 23:12:12.3	190.330	-0.710	0.210	1.490
2020/01/31 23:12:12.4	190.330	-0.670	0.140	1.520
2020/01/31 23:12:12.5	190.320	-0.620	0.060	1.550
2020/01/31 23:12:12.6	190.310	-0.570	-0.030	1.580
2020/01/31 23:12:12.7	190.290	-0.510	-0.110	1.610
2020/01/31 23:12:12.8	190.270	-0.440	-0.200	1.630
2020/01/31 23:12:12.9	190.250	-0.370	-0.280	1.660
2020/01/31 23:12:13.0	190.220	-0.300	-0.360	1.690
2020/01/31 23:12:13.1	190.190	-0.230	-0.440	1.720
2020/01/31 23:12:13.2	190.160	-0.160	-0.520	1.750
2020/01/31 23:12:13.3	190.130	-0.090	-0.590	1.780
2020/01/31 23:12:13.4	190.100	-0.020	-0.650	1.810
2020/01/31 23:12:13.5	190.060	0.050	-0.710	1.830
2020/01/31 23:12:13.6	190.020	0.120	-0.760	1.860
2020/01/31 23:12:13.7	189.990	0.190	-0.790	1.880
2020/01/31 23:12:13.8	189.950	0.250	-0.820	1.910
2020/01/31 23:12:13.9	189.920	0.300	-0.840	1.930
2020/01/31 23:12:14.0	189.890	0.350	-0.850	1.950
2020/01/31 23:12:14.1	189.860	0.390	-0.850	1.960
2020/01/31 23:12:14.2	189.830	0.430	-0.830	1.970
2020/01/31 23:12:14.3	189.810	0.460	-0.810	1.990
2020/01/31 23:12:14.4	189.790	0.480	-0.780	2.000
2020/01/31 23:12:14.5	189.770	0.490	-0.730	2.000
2020/01/31 23:12:14.6	189.760	0.500	-0.680	2.010
2020/01/31 23:12:14.7	189.750	0.500	-0.620	2.010
2020/01/31 23:12:14.8	189.740	0.490	-0.550	2.000
2020/01/31 23:12:14.9	189.740	0.470	-0.470	2.000
2020/01/31 23:12:15.0	189.740	0.450	-0.390	1.980
2020/01/31 23:12:15.1	189.750	0.420	-0.310	1.970
2020/01/31 23:12:15.2	189.760	0.380	-0.220	1.950
2020/01/31 23:12:15.3	189.770	0.340	-0.130	1.930
2020/01/31 23:12:15.4	189.790	0.290	-0.040	1.910
2020/01/31 23:12:15.5	189.810	0.240	0.040	1.880
2020/01/31 23:12:15.6	189.830	0.180	0.130	1.850
2020/01/31 23:12:15.7	189.850	0.120	0.210	1.830
2020/01/31 23:12:15.8	189.870	0.060	0.280	1.800
2020/01/31 23:12:15.9	189.900	-0.010	0.350	1.780
2020/01/31 23:12:16.0	189.920	-0.070	0.410	1.750
2020/01/31 23:12:16.1	189.930	-0.130	0.460	1.720
2020/01/31 23:12:16.2	189.960	-0.200	0.510	1.700
2020/01/31 23:12:16.3	189.980	-0.260	0.550	1.680
2020/01/31 23:12:16.4	190.000	-0.320	0.570	1.660
2020/01/31 23:12:16.5	190.020	-0.370	0.590	1.650
2020/01/31 23:12:16.6	190.040	-0.430	0.600	1.640
2020/01/31 23:12:16.7	190.050	-0.470	0.590	1.630
2020/01/31 23:12:16.8	190.070	-0.510	0.580	1.620
2020/01/31 23:12:16.9	190.080	-0.540	0.550	1.610
2020/01/31 23:12:17.0	190.080	-0.570	0.520	1.610
2020/01/31 23:12:17.1	190.090	-0.590	0.480	1.610
2020/01/31 23:12:17.2	190.090	-0.600	0.430	1.610
2020/01/31 23:12:17.3	190.090	-0.600	0.370	1.610
2020/01/31 23:12:17.4	190.090	-0.590	0.300	1.610
2020/01/31 23:12:17.5	190.090	-0.580	0.230	1.620
2020/01/31 23:12:17.6	190.080	-0.560	0.150	1.620
2020/01/31 23:12:17.7	190.070	-0.530	0.070	1.620
2020/01/31 23:12:17.8	190.060	-0.490	-0.010	1.620
2020/01/31 23:12:17.9	190.050	-0.450	-0.090	1.620
2020/01/31 23:12:18.0	190.030	-0.400	-0.180	1.620
2020/01/31 23:12:18.1	190.020	-0.340	-0.270	1.620
2020/01/31 23:12:18.2	190.010	-0.280	-0.350	1.610
2020/01/31 23:12:18.3	189.990	-0.210	-0.430	1.610
2020/01/31 23:12:18.4	189.980	-0.140	-0.510	1.600
2020/01/31 23:12:18.5	189.960	-0.070	-0.590	1.590
2020/01/31 23:12:18.6	189.940	0.000	-0.660	1.580
2020/01/31 23:12:18.7	189.920	0.080	-0.730	1.570
2020/01/31 23:12:18.8	189.900	0.150	-0.790	1.560
2020/01/31 23:12:18.9	189.890	0.230	-0.850	1.550
2020/01/31 23:12:19.0	189.870	0.300	-0.900	1.540
2020/01/31 23:12:19.1	189.850	0.380	-0.940	1.520
2020/01/31 23:12:19.2	189.840	0.450	-0.980	1.500
2020/01/31 23:12:19.3	189.820	0.510	-1.010	1.490
2020/01/31 23:12:19.4	189.810	0.580	-1.040	1.470
2020/01/31 23:12:19.5	189.790	0.640	-1.050	1.450
2020/01/31 23:12:19.6	189.780	0.690	-1.060	1.420
2020/01/31 23:12:19.7	189.770	0.740	-1.070	1.400
2020/01/31 23:12:19.8	189.760	0.780	-1.060	1.380
2020/01/31 23:12:19.9	189.750	0.810	-1.050	1.350
2020/01/31 23:12:20.0	189.740	0.840	-1.040	1.320
2020/01/31 23:12:20.1	189.740	0.860	-1.020	1.290
2020/01/31 23:12:20.2	189.730	0.870	-0.990	1.270
2020/01/31 23:12:20.3	189.730	0.880	-0.960	1.240
2020/01/31 23:12:20.4	189.720	0.880	-0.920	1.210
2020/01/31 23:12:20.5	189.720	0.870	-0.870	1.170
2020/01/31 23:12:20.6	189.720	0.850	-0.820	1.140
2020/01/31 23:12:20.7	189.730	0.830	-0.770	1.110
2020/01/31 23:12:20.8	189.730	0.800	-0.710	1.080
2020/01/31 23:12:20.9	189.740	0.760	-0.650	1.050
2020/01/31 23:12:21.0	189.740	0.720	-0.590	1.020
2020/01/31 23:12:21.1	189.740	0.670	-0.520	1.000
2020/01/31 23:12:21.2	189.760	0.610	-0.460	0.970
2020/01/31 23:12:21.3	189.770	0.550	-0.390	0.950
2020/01/31 23:12:21.4	189.790	0.490	-0.320	0.930
2020/01/31 23:12:21.5	189.810	0.420	-0.250	0.910
2020/01/31 23:12:21.6	189.830	0.350	-0.190	0.900
2020/01/31 23:12:21.7	189.850	0.270	-0.120	0.890
2020/01/31 23:12:21.8	189.870	0.190	-0.060	0.880
2020/01/31 23:12:21.9	189.900	0.120	-0.000	0.880
2020/01/31 23:12:22.0	189.920	0.040	0.060	0.880
2020/01/31 23:12:22.1	189.940	-0.040	0.110	0.880
2020/01/31 23:12:22.2	189.970	-0.120	0.160	0.880
2020/01/31 23:12:22.3	189.990	-0.200	0.200	0.890
2020/01/31 23:12:22.4	190.020	-0.270	0.240	0.900
2020/01/31 23:12:22.5	190.040	-0.340	0.270	0.910
2020/01/31 23:12:22.6	190.070	-0.410	0.290	0.930
2020/01/31 23:12:22.7	190.090	-0.480	0.310	0.950
2020/01/31 23:12:22.8	190.110	-0.530	0.320	0.970
2020/01/31 23:12:22.9	190.130	-0.590	0.330	1.000
2020/01/31 23:12:23.0	190.150	-0.630	0.330	1.020
2020/01/31 23:12:23.1	190.160	-0.670	0.310	1.050
2020/01/31 23:12:23.2	190.180	-0.710	0.300	1.070
2020/01/31 23:12:23.3	190.190	-0.740	0.280	1.100
2020/01/31 23:12:23.4	190.200	-0.760	0.250	1.130
2020/01/31 23:12:23.5	190.210	-0.770	0.220	1.160
2020/01/31 23:12:23.6	190.210	-0.780	0.190	1.190
2020/01/31 23:12:23.7	190.220	-0.780	0.150	1.220
2020/01/31 23:12:23.8	190.220	-0.770	0.100	1.250
2020/01/31 23:12:23.9	190.210	-0.750	0.060	1.280
2020/01/31 23:12:24.0	190.210	-0.730	0.010	1.310
2020/01/31 23:12:24.1	190.210	-0.710	-0.040	1.350
2020/01/31 23:12:24.2	190.200	-0.680	-0.090	1.380
2020/01/31 23:12:24.3	190.180	-0.640	-0.150	1.410
2020/01/31 23:12:24.4	190.170	-0.600	-0.200	1.450
2020/01/31 23:12:24.5	190.150	-0.550	-0.250	1.480
2020/01/31 23:12:24.6	190.130	-0.500	-0.310	1.520
2020/01/31 23:12:24.7	190.110	-0.450	-0.360	1.550
2020/01/31 23:12:24.8	190.090	-0.400	-0.410	1.580
2020/01/31 23:12:24.9	190.070	-0.340	-0.450	1.620
2020/01/31 23:12:25.0	190.040	-0.280	-0.490	1.650
2020/01/31 23:12:25.1	190.020	-0.220	-0.540	1.680
2020/01/31 23:12:25.2	190.000	-0.170	-0.570	1.710
2020/01/31 23:12:25.3	189.970	-0.110	-0.600	1.740
2020/01/31 23:12:25.4	189.950	-0.050	-0.630	1.770
2020/01/31 23:12:25.5	189.930	0.000	-0.640	1.790
2020/01/31 23:12:25.6	189.910	0.060	-0.660	1.810
2020/01/31 23:12:25.7	189.900	0.100	-0.660	1.830
2020/01/31 23:12:25.8	189.880	0.150	-0.660	1.840
2020/01/31 23:12:25.9	189.870	0.190	-0.660	1.860
2020/01/31 23:12:26.0	189.860	0.230	-0.640	1.870
2020/01/31 23:12:26.1	189.850	0.260	-0.620	1.870
2020/01/31 23:12:26.2	189.840	0.290	-0.600	1.880
2020/01/31 23:12:26.3	189.830	0.320	-0.570	1.880
2020/01/31 23:12:26.4	189.830	0.340	-0.540	1.880
2020/01/31 23:12:26.5	189.820	0.350	-0.500	1.880
2020/01/31 23:12:26.6	189.820	0.360	-0.460	1.870
2020/01/31 23:12:26.7	189.820	0.370	-0.420	1.870
2020/01/31 23:12:26.8	189.810	0.370	-0.370	1.860
2020/01/31 23:12:26.9	189.810	0.370	-0.320	1.850
2020/01/31 23:12:27.0	189.810	0.360	-0.270	1.840
2020/01/31 23:12:27.1	189.820	0.350	-0.220	1.820
2020/01/31 23:12:27.2	189.820	0.340	-0.170	1.810
2020/01/31 23:12:27.3	189.810	0.320	-0.120	1.800
2020/01/31 23:12:27.4	189.810	0.300	-0.070	1.790
2020/01/31 23:12:27.5	189.810	0.280	-0.020	1.780
2020/01/31 23:12:27.6	189.800	0.260	0.030	1.770
2020/01/31 23:12:27.7	189.790	0.230	0.070	1.760
2020/01/31 23:12:27.8	189.790	0.210	0.110	1.750
2020/01/31 23:12:27.9	189.780	0.190	0.140	1.740
2020/01/31 23:12:28.0	189.770	0.160	0.170	1.730
2020/01/31 23:12:28.1	189.750	0.140	0.190	1.720
2020/01/31 23:12:28.2	189.740	0.110	0.210	1.720
2020/01/31 23:12:28.3	189.720	0.090	0.230	1.710
2020/01/31 23:12:28.4	189.710	0.070	0.240	1.710
2020/01/31 23:12:28.5	189.690	0.060	0.240	1.700
2020/01/31 23:12:28.6	189.670	0.040	0.240	1.690
2020/01/31 23:12:28.7	189.650	0.030	0.230	1.690
2020/01/31 23:12:28.8	189.630	0.020	0.220	1.680
2020/01/31 23:12:28.9	189.600	0.020	0.200	1.680
2020/01/31 23:12:29.0	189.580	0.010	0.180	1.670
2020/01/31 23:12:29.1	189.550	0.010	0.160	1.660
2020/01/31 23:12:29.2	189.530	0.020	0.130	1.650
2020/01/31 23:12:29.3	189.510	0.020	0.100	1.640
2020/01/31 23:12:29.4	189.480	0.030	0.060	1.630
2020/01/31 23:12:29.5	189.460	0.050	0.020	1.620
2020/01/31 23:12:29.6	189.440	0.060	-0.020	1.600
2020/01/31 23:12:29.7	189.420	0.080	-0.060	1.590
2020/01/31 23:12:29.8	189.400	0.090	-0.100	1.570
2020/01/31 23:12:29.9	189.380	0.110	-0.140	1.560
2020/01/31 23:12:30.0	189.360	0.130	-0.180	1.540
2020/01/31 23:12:30.1	189.340	0.160	-0.220	1.520
2020/01/31 23:12:30.2	189.330	0.180	-0.260	1.500
2020/01/31 23:12:30.3	189.320	0.200	-0.300	1.490
2020/01/31 23:12:30.4	189.310	0.220	-0.330	1.470
2020/01/31 23:12:30.5	189.300	0.240	-0.370	1.460
2020/01/31 23:12:30.6	189.290	0.260	-0.400	1.450
2020/01/31 23:12:30.7	189.290	0.280	-0.420	1.430
2020/01/31 23:12:30.8	189.290	0.290	-0.440	1.420
2020/01/31 23:12:30.9	189.290	0.300	-0.460	1.420
2020/01/31 23:12:31.0	189.290	0.310	-0.480	1.410
2020/01/31 23:12:31.1	189.290	0.320	-0.490	1.400
2020/01/31 23:12:31.2	189.290	0.320	-0.500	1.400
2020/01/31 23:12:31.3	189.300	0.330	-0.500	1.390
2020/01/31 23:12:31.4	189.310	0.320	-0.500	1.390
2020/01/31 23:12:31.5	189.320	0.320	-0.500	1.390
2020/01/31 23:12:31.6	189.340	0.300	-0.500	1.380
2020/01/31 23:12:31.7	189.350	0.290	-0.490	1.380
2020/01/31 23:12:31.8	189.370	0.270	-0.480	1.380
2020/01/31 23:12:31.9	189.380	0.250	-0.480	1.370
2020/01/31 23:12:32.0	189.400	0.230	-0.460	1.370
2020/01/31 23:12:32.1	189.430	0.200	-0.450	1.370
2020/01/31 23:12:32.2	189.440	0.170	-0.440	1.360
2020/01/31 23:12:32.3	189.460	0.130	-0.430	1.360
2020/01/31 23:12:32.4	189.480	0.100	-0.420	1.360
2020/01/31 23:12:32.5	189.500	0.060	-0.410	1.360
2020/01/31 23:12:32.6	189.510	0.020	-0.400	1.360
2020/01/31 23:12:32.7	189.530	-0.020	-0.390	1.360
2020/01/31 23:12:32.8	189.540	-0.060	-0.390	1.370
2020/01/31 23:12:32.9	189.560	-0.110	-0.380	1.370
2020/01/31 23:12:33.0	189.570	-0.150	-0.380	1.380
2020/01/31 23:12:33.1	189.580	-0.190	-0.380	1.390
2020/01/31 23:12:33.2	189.590	-0.240	-0.380	1.400
2020/01/31 23:12:33.3	189.600	-0.280	-0.390	1.420
2020/01/31 23:12:33.4	189.610	-0.320	-0.400	1.440
2020/01/31 23:12:33.5	189.620	-0.350	-0.410	1.460
2020/01/31 23:12:33.6	189.620	-0.390	-0.420	1.490
2020/01/31 23:12:33.7	189.620	-0.420	-0.440	1.510
2020/01/31 23:12:33.8	189.620	-0.450	-0.450	1.540
2020/01/31 23:12:33.9	189.620	-0.470	-0.470	1.570
2020/01/31 23:12:34.0	189.620	-0.490	-0.490	1.610
2020/01/31 23:12:34.1	189.610	-0.510	-0.520	1.640
2020/01/31 23:12:34.2	189.600	-0.520	-0.540	1.680
2020/01/31 23:12:34.3	189.590	-0.530	-0.560	1.710
2020/01/31 23:12:34.4	189.580	-0.530	-0.590	1.740
2020/01/31 23:12:34.5	189.570	-0.530	-0.610	1.780
2020/01/31 23:12:34.6	189.560	-0.520	-0.630	1.810
2020/01/31 23:12:34.7	189.540	-0.510	-0.650	1.840
2020/01/31 23:12:34.8	189.530	-0.490	-0.670	1.870
2020/01/31 23:12:34.9	189.510	-0.470	-0.690	1.890
2020/01/31 23:12:35.0	189.490	-0.450	-0.700	1.920
2020/01/31 23:12:35.1	189.470	-0.420	-0.710	1.940
2020/01/31 23:12:35.2	189.450	-0.390	-0.720	1.950
2020/01/31 23:12:35.3	189.430	-0.350	-0.720	1.960
2020/01/31 23:12:35.4	189.420	-0.310	-0.720	1.970
2020/01/31 23:12:35.5	189.400	-0.270	-0.720	1.980
2020/01/31 23:12:35.6	189.390	-0.230	-0.710	1.980
2020/01/31 23:12:35.7	189.380	-0.190	-0.700	1.980
2020/01/31 23:12:35.8	189.360	-0.140	-0.680	1.970
2020/01/31 23:12:35.9	189.350	-0.100	-0.660	1.960
2020/01/31 23:12:36.0	189.340	-0.060	-0.640	1.950
2020/01/31 23:12:36.1	189.340	-0.020	-0.610	1.930
2020/01/31 23:12:36.2	189.330	0.020	-0.580	1.910
2020/01/31 23:12:36.3	189.320	0.060	-0.550	1.880
2020/01/31 23:12:36.4	189.310	0.100	-0.510	1.860
2020/01/31 23:12:36.5	189.310	0.130	-0.480	1.830
2020/01/31 23:12:36.6	189.310	0.160	-0.440	1.800
2020/01/31 23:12:36.7	189.300	0.190	-0.400	1.770
2020/01/31 23:12:36.8	189.300	0.210	-0.350	1.740
2020/01/31 23:12:36.9	189.300	0.230	-0.310	1.700
2020/01/31 23:12:37.0	189.310	0.240	-0.270	1.670
2020/01/31 23:12:37.1	189.300	0.260	-0.220	1.630
2020/01/31 23:12:37.2	189.300	0.270	-0.180	1.600
2020/01/31 23:12:37.3	189.310	0.270	-0.140	1.570
2020/01/31 23:12:37.4	189.310	0.270	-0.100	1.540
2020/01/31 23:12:37.5	189.320	0.270	-0.060	1.510
2020/01/31 23:12:37.6	189.330	0.260	-0.020	1.490
2020/01/31 23:12:37.7	189.340	0.250	0.020	1.460
2020/01/31 23:12:37.8	189.340	0.240	0.050	1.440
2020/01/31 23:12:37.9	189.350	0.230	0.090	1.420
2020/01/31 23:12:38.0	189.360	0.210	0.120	1.410
2020/01/31 23:12:38.1	189.370	0.190	0.150	1.380
2020/01/31 23:12:38.2	189.380	0.170	0.180	1.370
2020/01/31 23:12:38.3	189.390	0.150	0.210	1.360
2020/01/31 23:12:38.4	189.400	0.120	0.240	1.350
2020/01/31 23:12:38.5	189.410	0.100	0.260	1.340
2020/01/31 23:12:38.6	189.420	0.070	0.280	1.330
2020/01/31 23:12:38.7	189.440	0.050	0.310	1.330
2020/01/31 23:12:38.8	189.450	0.020	0.330	1.320
2020/01/31 23:12:38.9	189.470	-0.000	0.350	1.320
2020/01/31 23:12:39.0	189.480	-0.030	0.370	1.320
2020/01/31 23:12:39.1	189.490	-0.050	0.380	1.310
2020/01/31 23:12:39.2	189.510	-0.070	0.400	1.310
2020/01/31 23:12:39.3	189.530	-0.100	0.410	1.310
2020/01/31 23:12:39.4	189.540	-0.120	0.420	1.320
2020/01/31 23:12:39.5	189.560	-0.140	0.430	1.320
2020/01/31 23:12:39.6	189.570	-0.150	0.440	1.330
2020/01/31 23:12:39.7	189.580	-0.170	0.440	1.340
2020/01/31 23:12:39.8	189.590	-0.180	0.440	1.360
2020/01/31 23:12:39.9	189.600	-0.200	0.430	1.370
2020/01/31 23:12:40.0	189.610	-0.210	0.420	1.400
2020/01/31 23:12:40.1	189.610	-0.210	0.410	1.420
2020/01/31 23:12:40.2	189.610	-0.220	0.390	1.450
2020/01/31 23:12:40.3	189.600	-0.220	0.370	1.490
2020/01/31 23:12:40.4	189.600	-0.220	0.350	1.530
2020/01/31 23:12:40.5	189.590	-0.220	0.320	1.570
2020/01/31 23:12:40.6	189.580	-0.220	0.280	1.620
2020/01/31 23:12:40.7	189.560	-0.210	0.240	1.670
2020/01/31 23:12:40.8	189.540	-0.200	0.200	1.720
2020/01/31 23:12:40.9	189.520	-0.190	0.150	1.770
2020/01/31 23:12:41.0	189.500	-0.170	0.110	1.830
2020/01/31 23:12:41.1	189.470	-0.160	0.060	1.890
2020/01/31 23:12:41.2	189.450	-0.140	0.010	1.940
2020/01/31 23:12:41.3	189.420	-0.120	-0.050	2.000
2020/01/31 23:12:41.4	189.390	-0.090	-0.100	2.050
2020/01/31 23:12:41.5	189.350	-0.070	-0.160	2.100
2020/01/31 23:12:41.6	189.320	-0.050	-0.210	2.140
2020/01/31 23:12:41.7	189.290	-0.020	-0.260	2.190
2020/01/31 23:12:41.8	189.250	0.010	-0.310	2.230
2020/01/31 23:12:41.9	189.220	0.040	-0.360	2.260
2020/01/31 23:12:42.0	189.190	0.070	-0.400	2.290
2020/01/31 23:12:42.1	189.150	0.100	-0.440	2.320
2020/01/31 23:12:42.2	189.120	0.130	-0.480	2.350
2020/01/31 23:12:42.3	189.090	0.160	-0.510	2.370
2020/01/31 23:12:42.4	189.060	0.200	-0.530	2.380
2020/01/31 23:12:42.5	189.030	0.230	-0.550	2.390
2020/01/31 23:12:42.6	189.000	0.260	-0.570	2.390
2020/01/31 23:12:42.7	188.980	0.290	-0.580	2.390
2020/01/31 23:12:42.8	188.950	0.320	-0.580	2.390
2020/01/31 23:12:42.9	188.930	0.360	-0.580	2.380
2020/01/31 23:12:43.0	188.910	0.390	-0.570	2.360
2020/01/31 23:12:43.1	188.900	0.420	-0.560	2.340
2020/01/31 23:12:43.2	188.880	0.450	-0.540	2.310
2020/01/31 23:12:43.3	188.870	0.470	-0.530	2.280
2020/01/31 23:12:43.4	188.850	0.500	-0.500	2.250
2020/01/31 23:12:43.5	188.840	0.530	-0.480	2.210
2020/01/31 23:12:43.6	188.840	0.550	-0.450	2.160
2020/01/31 23:12:43.7	188.830	0.570	-0.420	2.120
2020/01/31 23:12:43.8	188.830	0.590	-0.390	2.070
2020/01/31 23:12:43.9	188.830	0.610	-0.350	2.010
2020/01/31 23:12:44.0	188.830	0.630	-0.320	1.950
2020/01/31 23:12:44.1	188.840	0.640	-0.290	1.890
2020/01/31 23:12:44.2	188.850	0.650	-0.260	1.830
2020/01/31 23:12:44.3	188.860	0.660	-0.230	1.760
2020/01/31 23:12:44.4	188.870	0.660	-0.200	1.690
2020/01/31 23:12:44.5	188.880	0.670	-0.180	1.630
2020/01/31 23:12:44.6	188.900	0.670	-0.150	1.560
2020/01/31 23:12:44.7	188.910	0.660	-0.140	1.490
2020/01/31 23:12:44.8	188.930	0.660	-0.120	1.420
2020/01/31 23:12:44.9	188.960	0.650	-0.110	1.350
2020/01/31 23:12:45.0	188.980	0.640	-0.100	1.290
2020/01/31 23:12:45.1	189.000	0.620	-0.090	1.220
2020/01/31 23:12:45.2	189.030	0.600	-0.090	1.160
2020/01/31 23:12:45.3	189.050	0.580	-0.090	1.100
2020/01/31 23:12:45.4	189.070	0.550	-0.100	1.050
2020/01/31 23:12:45.5	189.100	0.530	-0.110	1.000
2020/01/31 23:12:45.6	189.120	0.490	-0.130	0.950
2020/01/31 23:12:45.7	189.140	0.460	-0.150	0.910
2020/01/31 23:12:45.8	189.160	0.430	-0.170	0.880
2020/01/31 23:12:45.9	189.180	0.390	-0.200	0.850
2020/01/31 23:12:46.0	189.200	0.350	-0.230	0.830
2020/01/31 23:12:46.1	189.230	0.300	-0.260	0.810
2020/01/31 23:12:46.2	189.240	0.260	-0.300	0.790
2020/01/31 23:12:46.3	189.260	0.210	-0.340	0.790
2020/01/31 23:12:46.4	189.270	0.170	-0.380	0.790
2020/01/31 23:12:46.5	189.280	0.120	-0.420	0.800
2020/01/31 23:12:46.6	189.290	0.070	-0.470	0.810
2020/01/31 23:12:46.7	189.300	0.020	-0.520	0.830
2020/01/31 23:12:46.8	189.310	-0.030	-0.570	0.850
2020/01/31 23:12:46.9	189.310	-0.080	-0.620	0.880
2020/01/31 23:12:47.0	189.310	-0.130	-0.670	0.910
2020/01/31 23:12:47.1	189.300	-0.180	-0.710	0.950
2020/01/31 23:12:47.2	189.300	-0.230	-0.760	0.990
2020/01/31 23:12:47.3	189.300	-0.270	-0.810	1.030
2020/01/31 23:12:47.4	189.290	-0.320	-0.850	1.070
2020/01/31 23:12:47.5	189.290	-0.360	-0.900	1.120
2020/01/31 23:12:47.6	189.280	-0.400	-0.940	1.170
2020/01/31 23:12:47.7	189.270	-0.440	-0.980	1.220
2020/01/31 23:12:47.8	189.260	-0.480	-1.020	1.270
2020/01/31 23:12:47.9	189.240	-0.510	-1.050	1.330
2020/01/31 23:12:48.0	189.230	-0.540	-1.080	1.380
2020/01/31 23:12:48.1	189.210	-0.570	-1.110	1.440
2020/01/31 23:12:48.2	189.190	-0.590	-1.130	1.500
2020/01/31 23:12:48.3	189.180	-0.610	-1.150	1.560
2020/01/31 23:12:48.4	189.160	-0.630	-1.160	1.620
2020/01/31 23:12:48.5	189.130	-0.640	-1.170	1.680
2020/01/31 23:12:48.6	189.110	-0.650	-1.180	1.730
2020/01/31 23:12:48.7	189.090	-0.660	-1.180	1.790
2020/01/31 23:12:48.8	189.070	-0.660	-1.180	1.840
2020/01/31 23:12:48.9	189.040	-0.660	-1.180	1.890
2020/01/31 23:12:49.0	189.020	-0.650	-1.170	1.940
2020/01/31 23:12:49.1	189.000	-0.640	-1.150	1.990
2020/01/31 23:12:49.2	188.980	-0.630	-1.140	2.040
2020/01/31 23:12:49.3	188.950	-0.620	-1.120	2.080
2020/01/31 23:12:49.4	188.920	-0.600	-1.100	2.120
2020/01/31 23:12:49.5	188.900	-0.580	-1.070	2.150
2020/01/31 23:12:49.6	188.870	-0.550	-1.050	2.180
2020/01/31 23:12:49.7	188.850	-0.530	-1.020	2.200
2020/01/31 23:12:49.8	188.820	-0.500	-0.990	2.220
2020/01/31 23:12:49.9	188.800	-0.470	-0.950	2.230
2020/01/31 23:12:50.0	188.780	-0.440	-0.920	2.240
2020/01/31 23:12:50.1	188.750	-0.410	-0.880	2.240
2020/01/31 23:12:50.2	188.730	-0.380	-0.840	2.240
2020/01/31 23:12:50.3	188.720	-0.350	-0.790	2.230
2020/01/31 23:12:50.4	188.700	-0.320	-0.750	2.210
2020/01/31 23:12:50.5	188.690	-0.290	-0.700	2.190
2020/01/31 23:12:50.6	188.680	-0.270	-0.650	2.160
2020/01/31 23:12:50.7	188.680	-0.240	-0.590	2.130
2020/01/31 23:12:50.8	188.680	-0.210	-0.540	2.090
2020/01/31 23:12:50.9	188.680	-0.190	-0.480	2.050
2020/01/31 23:12:51.0	188.680	-0.170	-0.420	2.010
2020/01/31 23:12:51.1	188.690	-0.150	-0.360	1.950
2020/01/31 23:12:51.2	188.700	-0.140	-0.290	1.900
2020/01/31 23:12:51.3	188.720	-0.130	-0.230	1.840
2020/01/31 23:12:51.4	188.740	-0.120	-0.160	1.780
2020/01/31 23:12:51.5	188.760	-0.110	-0.100	1.720
2020/01/31 23:12:51.6	188.780	-0.110	-0.030	1.660
2020/01/31 23:12:51.7	188.810	-0.110	0.040	1.600
2020/01/31 23:12:51.8	188.840	-0.110	0.110	1.540
2020/01/31 23:12:51.9	188.870	-0.120	0.180	1.490
2020/01/31 23:12:52.0	188.910	-0.130	0.250	1.430
2020/01/31 23:12:52.1	188.950	-0.140	0.310	1.370
2020/01/31 23:12:52.2	188.990	-0.150	0.380	1.320
2020/01/31 23:12:52.3	189.030	-0.170	0.440	1.270
2020/01/31 23:12:52.4	189.070	-0.190	0.490	1.230
2020/01/31 23:12:52.5	189.110	-0.210	0.550	1.180
2020/01/31 23:12:52.6	189.160	-0.230	0.600	1.140
2020/01/31 23:12:52.7	189.200	-0.250	0.650	1.100
2020/01/31 23:12:52.8	189.240	-0.270	0.700	1.070
2020/01/31 23:12:52.9	189.290	-0.290	0.730	1.030
2020/01/31 23:12:53.0	189.330	-0.310	0.770	1.000
2020/01/31 23:12:53.1	189.370	-0.330	0.800	0.970
2020/01/31 23:12:53.2	189.410	-0.350	0.830	0.950
2020/01/31 23:12:53.3	189.450	-0.370	0.850	0.920
2020/01/31 23:12:53.4	189.480	-0.390	0.870	0.910
2020/01/31 23:12:53.5	189.520	-0.400	0.870	0.890
2020/01/31 23:12:53.6	189.550	-0.410	0.880	0.880
2020/01/31 23:12:53.7	189.580	-0.420	0.880	0.870
2020/01/31 23:12:53.8	189.610	-0.420	0.870	0.870
2020/01/31 23:12:53.9	189.630	-0.420	0.850	0.880
2020/01/31 23:12:54.0	189.650	-0.420	0.830	0.890
2020/01/31 23:12:54.1	189.650	-0.420	0.810	0.900
2020/01/31 23:12:54.2	189.660	-0.410	0.780	0.920
2020/01/31 23:12:54.3	189.670	-0.390	0.740	0.940
2020/01/31 23:12:54.4	189.680	-0.380	0.700	0.970
2020/01/31 23:12:54.5	189.680	-0.360	0.660	1.010
2020/01/31 23:12:54.6	189.670	-0.330	0.610	1.040
2020/01/31 23:12:54.7	189.660	-0.300	0.560	1.090
2020/01/31 23:12:54.8	189.650	-0.270	0.510	1.130
2020/01/31 23:12:54.9	189.640	-0.240	0.460	1.180
2020/01/31 23:12:55.0	189.620	-0.200	0.400	1.240
2020/01/31 23:12:55.1	189.590	-0.170	0.340	1.290
2020/01/31 23:12:55.2	189.570	-0.120	0.280	1.350
2020/01/31 23:12:55.3	189.540	-0.080	0.220	1.410
2020/01/31 23:12:55.4	189.510	-0.040	0.160	1.470
2020/01/31 23:12:55.5	189.480	0.010	0.100	1.530
2020/01/31 23:12:55.6	189.440	0.050	0.040	1.580
2020/01/31 23:12:55.7	189.410	0.100	-0.020	1.640
2020/01/31 23:12:55.8	189.380	0.150	-0.080	1.690
2020/01/31 23:12:55.9	189.340	0.200	-0.130	1.740
2020/01/31 23:12:56.0	189.310	0.240	-0.190	1.790
2020/01/31 23:12:56.1	189.280	0.290	-0.240	1.840
2020/01/31 23:12:56.2	189.250	0.330	-0.280	1.880
2020/01/31 23:12:56.3	189.220	0.380	-0.320	1.910
2020/01/31 23:12:56.4	189.190	0.420	-0.360	1.940
2020/01/31 23:12:56.5	189.160	0.460	-0.390	1.970
2020/01/31 23:12:56.6	189.130	0.490	-0.420	1.990
2020/01/31 23:12:56.7	189.110	0.530	-0.440	2.010
2020/01/31 23:12:56.8	189.090	0.560	-0.460	2.020
2020/01/31 23:12:56.9	189.070	0.580	-0.470	2.030
2020/01/31 23:12:57.0	189.050	0.610	-0.480	2.030
2020/01/31 23:12:57.1	189.060	0.630	-0.470	2.030
2020/01/31 23:12:57.2	189.050	0.640	-0.470	2.020
2020/01/31 23:12:57.3	189.040	0.660	-0.460	2.010
2020/01/31 23:12:57.4	189.040	0.670	-0.450	2.000
2020/01/31 23:12:57.5	189.040	0.670	-0.430	1.990
2020/01/31 23:12:57.6	189.040	0.670	-0.410	1.970
2020/01/31 23:12:57.7	189.050	0.670	-0.390	1.950
2020/01/31 23:12:57.8	189.050	0.670	-0.360	1.920
2020/01/31 23:12:57.9	189.070	0.660	-0.330	1.900
2020/01/31 23:12:58.0	189.080	0.650	-0.300	1.870
2020/01/31 23:12:58.1	189.110	0.640	-0.270	1.840
2020/01/31 23:12:58.2	189.130	0.620	-0.240	1.810
2020/01/31 23:12:58.3	189.150	0.600	-0.210	1.780
2020/01/31 23:12:58.4	189.170	0.580	-0.180	1.740
2020/01/31 23:12:58.5	189.190	0.560	-0.150	1.700
2020/01/31 23:12:58.6	189.210	0.540	-0.120	1.670
2020/01/31 23:12:58.7	189.230	0.510	-0.100	1.630
2020/01/31 23:12:58.8	189.250	0.490	-0.080	1.590
2020/01/31 23:12:58.9	189.270	0.460	-0.060	1.550
2020/01/31 23:12:59.0	189.290	0.440	-0.050	1.510
2020/01/31 23:12:59.1	189.310	0.410	-0.030	1.470
2020/01/31 23:12:59.2	189.330	0.390	-0.030	1.430
2020/01/31 23:12:59.3	189.350	0.360	-0.030	1.390
2020/01/31 23:12:59.4	189.360	0.340	-0.040	1.360
2020/01/31 23:12:59.5	189.380	0.320	-0.050	1.320
2020/01/31 23:12:59.6	189.400	0.300	-0.070	1.280
2020/01/31 23:12:59.7	189.410	0.280	-0.090	1.240
2020/01/31 23:12:59.8	189.420	0.260	-0.120	1.210
2020/01/31 23:12:59.9	189.440	0.250	-0.150	1.170
2020/01/31 23:13:00.0	189.450	0.230	-0.190	1.140
2020/01/31 23:13:00.1	189.450	0.220	-0.230	1.100
2020/01/31 23:13:00.2	189.460	0.210	-0.270	1.070
2020/01/31 23:13:00.3	189.480	0.200	-0.320	1.040
2020/01/31 23:13:00.4	189.490	0.200	-0.370	1.010
2020/01/31 23:13:00.5	189.500	0.190	-0.420	0.980
2020/01/31 23:13:00.6	189.520	0.190	-0.470	0.960
2020/01/31 23:13:00.7	189.530	0.190	-0.520	0.930
2020/01/31 23:13:00.8	189.550	0.190	-0.580	0.910
2020/01/31 23:13:00.9	189.560	0.190	-0.630	0.890
2020/01/31 23:13:01.0	189.580	0.190	-0.680	0.870
2020/01/31 23:13:01.1	189.600	0.190	-0.730	0.850
2020/01/31 23:13:01.2	189.620	0.190	-0.790	0.840
2020/01/31 23:13:01.3	189.640	0.190	-0.830	0.820
2020/01/31 23:13:01.4	189.660	0.200	-0.880	0.810
2020/01/31 23:13:01.5	189.680	0.200	-0.930	0.800
2020/01/31 23:13:01.6	189.700	0.200	-0.970	0.790
2020/01/31 23:13:01.7	189.720	0.200	-1.000	0.780
2020/01/31 23:13:01.8	189.730	0.200	-1.040	0.770
2020/01/31 23:13:01.9	189.750	0.200	-1.070	0.770
2020/01/31 23:13:02.0	189.770	0.200	-1.100	0.760
2020/01/31 23:13:02.1	189.790	0.200	-1.130	0.760
2020/01/31 23:13:02.2	189.810	0.200	-1.150	0.760
2020/01/31 23:13:02.3	189.820	0.200	-1.170	0.760
2020/01/31 23:13:02.4	189.830	0.190	-1.190	0.760
2020/01/31 23:13:02.5	189.840	0.190	-1.200	0.770
2020/01/31 23:13:02.6	189.850	0.180	-1.210	0.770
2020/01/31 23:13:02.7	189.860	0.170	-1.220	0.780
2020/01/31 23:13:02.8	189.860	0.160	-1.230	0.790
2020/01/31 23:13:02.9	189.860	0.140	-1.230	0.810
2020/01/31 23:13:03.0	189.870	0.130	-1.230	0.830
2020/01/31 23:13:03.1	189.870	0.110	-1.230	0.850
2020/01/31 23:13:03.2	189.870	0.090	-1.220	0.870
2020/01/31 23:13:03.3	189.860	0.070	-1.220	0.900
2020/01/31 23:13:03.4	189.860	0.050	-1.210	0.930
2020/01/31 23:13:03.5	189.850	0.020	-1.190	0.960
2020/01/31 23:13:03.6	189.840	-0.000	-1.180	0.990
2020/01/31 23:13:03.7	189.830	-0.030	-1.160	1.030
2020/01/31 23:13:03.8	189.820	-0.060	-1.140	1.070
2020/01/31 23:13:03.9	189.800	-0.090	-1.120	1.110
2020/01/31 23:13:04.0	189.790	-0.120	-1.100	1.160
2020/01/31 23:13:04.1	189.770	-0.160	-1.080	1.200
2020/01/31 23:13:04.2	189.760	-0.190	-1.050	1.250
2020/01/31 23:13:04.3	189.740	-0.230	-1.020	1.290
2020/01/31 23:13:04.4	189.720	-0.260	-0.980	1.340
2020/01/31 23:13:04.5	189.700	-0.300	-0.940	1.390
2020/01/31 23:13:04.6	189.690	-0.330	-0.900	1.440
2020/01/31 23:13:04.7	189.670	-0.370	-0.860	1.480
2020/01/31 23:13:04.8	189.650	-0.400	-0.820	1.530
2020/01/31 23:13:04.9	189.630	-0.430	-0.770	1.570
2020/01/31 23:13:05.0	189.610	-0.470	-0.720	1.610
2020/01/31 23:13:05.1	189.590	-0.500	-0.660	1.650
2020/01/31 23:13:05.2	189.580	-0.530	-0.610	1.690
2020/01/31 23:13:05.3	189.560	-0.560	-0.550	1.730
2020/01/31 23:13:05.4	189.540	-0.590	-0.490	1.770
2020/01/31 23:13:05.5	189.530	-0.620	-0.430	1.800
2020/01/31 23:13:05.6	189.510	-0.640	-0.370	1.830
2020/01/31 23:13:05.7	189.500	-0.660	-0.310	1.860
2020/01/31 23:13:05.8	189.490	-0.690	-0.240	1.880
2020/01/31 23:13:05.9	189.470	-0.700	-0.170	1.910
2020/01/31 23:13:06.0	189.460	-0.720	-0.110	1.930
2020/01/31 23:13:06.1	189.450	-0.740	-0.040	1.950
2020/01/31 23:13:06.2	189.440	-0.750	0.030	1.960
2020/01/31 23:13:06.3	189.430	-0.760	0.100	1.980
2020/01/31 23:13:06.4	189.420	-0.770	0.160	1.990
2020/01/31 23:13:06.5	189.410	-0.770	0.230	2.000
2020/01/31 23:13:06.6	189.410	-0.770	0.290	2.010
2020/01/31 23:13:06.7	189.400	-0.770	0.360	2.010
2020/01/31 23:13:06.8	189.390	-0.770	0.420	2.020
2020/01/31 23:13:06.9	189.390	-0.760	0.480	2.020
2020/01/31 23:13:07.0	189.390	-0.760	0.530	2.010
2020/01/31 23:13:07.1	189.380	-0.740	0.580	2.010
2020/01/31 23:13:07.2	189.380	-0.730	0.630	2.010
2020/01/31 23:13:07.3	189.380	-0.710	0.680	2.000
2020/01/31 23:13:07.4	189.380	-0.690	0.720	1.990
2020/01/31 23:13:07.5	189.380	-0.670	0.750	1.970
2020/01/31 23:13:07.6	189.380	-0.650	0.780	1.960
2020/01/31 23:13:07.7	189.380	-0.620	0.810	1.940
2020/01/31 23:13:07.8	189.380	-0.590	0.830	1.920
2020/01/31 23:13:07.9	189.380	-0.560	0.850	1.900
2020/01/31 23:13:08.0	189.380	-0.530	0.870	1.880
2020/01/31 23:13:08.1	189.380	-0.490	0.880	1.850
2020/01/31 23:13:08.2	189.380	-0.460	0.880	1.820
2020/01/31 23:13:08.3	189.390	-0.420	0.880	1.780
2020/01/31 23:13:08.4	189.390	-0.380	0.880	1.750
2020/01/31 23:13:08.5	189.400	-0.340	0.880	1.710
2020/01/31 23:13:08.6	189.410	-0.300	0.870	1.670
2020/01/31 23:13:08.7	189.420	-0.260	0.860	1.630
2020/01/31 23:13:08.8	189.440	-0.220	0.840	1.590
2020/01/31 23:13:08.9	189.450	-0.180	0.820	1.540
2020/01/31 23:13:09.0	189.470	-0.140	0.800	1.500
2020/01/31 23:13:09.1	189.470	-0.110	0.780	1.450
2020/01/31 23:13:09.2	189.490	-0.070	0.760	1.400
2020/01/31 23:13:09.3	189.510	-0.030	0.740	1.350
2020/01/31 23:13:09.4	189.530	0.000	0.710	1.300
2020/01/31 23:13:09.5	189.550	0.040	0.680	1.250
2020/01/31 23:13:09.6	189.570	0.070	0.650	1.200
2020/01/31 23:13:09.7	189.590	0.100	0.620	1.150
2020/01/31 23:13:09.8	189.610	0.130	0.590	1.100
2020/01/31 23:13:09.9	189.630	0.160	0.550	1.050
2020/01/31 23:13:10.0	189.660	0.180	0.520	1.010
2020/01/31 23:13:10.1	189.680	0.210	0.480	0.960
2020/01/31 23:13:10.2	189.700	0.230	0.450	0.930
2020/01/31 23:13:10.3	189.720	0.250	0.410	0.890
2020/01/31 23:13:10.4	189.750	0.270	0.360	0.860
2020/01/31 23:13:10.5	189.770	0.280	0.320	0.830
2020/01/31 23:13:10.6	189.790	0.300	0.280	0.810
2020/01/31 23:13:10.7	189.810	0.310	0.230	0.790
2020/01/31 23:13:10.8	189.820	0.320	0.180	0.770
2020/01/31 23:13:10.9	189.840	0.330	0.130	0.760
2020/01/31 23:13:11.0	189.850	0.340	0.080	0.750
2020/01/31 23:13:11.1	189.870	0.350	0.030	0.750
2020/01/31 23:13:11.2	189.880	0.360	-0.030	0.750
2020/01/31 23:13:11.3	189.890	0.370	-0.080	0.750
2020/01/31 23:13:11.4	189.890	0.370	-0.140	0.760
2020/01/31 23:13:11.5	189.890	0.380	-0.200	0.780
2020/01/31 23:13:11.6	189.890	0.390	-0.260	0.790
2020/01/31 23:13:11.7	189.880	0.390	-0.320	0.810
2020/01/31 23:13:11.8	189.870	0.400	-0.380	0.840
2020/01/31 23:13:11.9	189.860	0.410	-0.440	0.860
2020/01/31 23:13:12.0	189.850	0.410	-0.500	0.890
2020/01/31 23:13:12.1	189.840	0.420	-0.560	0.930
2020/01/31 23:13:12.2	189.820	0.430	-0.620	0.960
2020/01/31 23:13:12.3	189.810	0.440	-0.680	0.990
2020/01/31 23:13:12.4	189.790	0.440	-0.740	1.020
2020/01/31 23:13:12.5	189.770	0.450	-0.790	1.060
2020/01/31 23:13:12.6	189.750	0.460	-0.850	1.090
2020/01/31 23:13:12.7	189.730	0.470	-0.900	1.120
2020/01/31 23:13:12.8	189.710	0.480	-0.950	1.150
2020/01/31 23:13:12.9	189.690	0.480	-0.990	1.180
2020/01/31 23:13:13.0	189.680	0.490	-1.030	1.210
2020/01/31 23:13:13.1	189.650	0.500	-1.070	1.230
2020/01/31 23:13:13.2	189.640	0.500	-1.100	1.260
2020/01/31 23:13:13.3	189.620	0.510	-1.130	1.280
2020/01/31 23:13:13.4	189.610	0.510	-1.150	1.300
2020/01/31 23:13:13.5	189.600	0.520	-1.170	1.320
2020/01/31 23:13:13.6	189.590	0.520	-1.180	1.340
2020/01/31 23:13:13.7	189.590	0.520	-1.190	1.360
2020/01/31 23:13:13.8	189.580	0.520	-1.190	1.370
2020/01/31 23:13:13.9	189.580	0.520	-1.190	1.390
2020/01/31 23:13:14.0	189.570	0.520	-1.190	1.400
2020/01/31 23:13:14.1	189.580	0.510	-1.170	1.410
2020/01/31 23:13:14.2	189.580	0.500	-1.160	1.420
2020/01/31 23:13:14.3	189.580	0.500	-1.140	1.430
2020/01/31 23:13:14.4	189.580	0.490	-1.120	1.430
2020/01/31 23:13:14.5	189.580	0.480	-1.090	1.430
2020/01/31 23:13:14.6	189.590	0.460	-1.060	1.430
2020/01/31 23:13:14.7	189.600	0.450	-1.030	1.430
2020/01/31 23:13:14.8	189.610	0.430	-1.000	1.420
2020/01/31 23:13:14.9	189.620	0.410	-0.960	1.410
2020/01/31 23:13:15.0	189.630	0.390	-0.920	1.400
2020/01/31 23:13:15.1	189.640	0.370	-0.880	1.380
2020/01/31 23:13:15.2	189.660	0.350	-0.840	1.370
2020/01/31 23:13:15.3	189.670	0.320	-0.790	1.350
2020/01/31 23:13:15.4	189.690	0.290	-0.740	1.330
2020/01/31 23:13:15.5	189.710	0.270	-0.700	1.310
2020/01/31 23:13:15.6	189.730	0.230	-0.650	1.290
2020/01/31 23:13:15.7	189.750	0.200	-0.600	1.270
2020/01/31 23:13:15.8	189.770	0.170	-0.560	1.240
2020/01/31 23:13:15.9	189.790	0.130	-0.510	1.220
2020/01/31 23:13:16.0	189.810	0.100	-0.470	1.200
2020/01/31 23:13:16.1	189.830	0.060	-0.420	1.180
2020/01/31 23:13:16.2	189.860	0.020	-0.380	1.160
2020/01/31 23:13:16.3	189.870	-0.010	-0.340	1.140
2020/01/31 23:13:16.4	189.890	-0.050	-0.300	1.120
2020/01/31 23:13:16.5	189.910	-0.090	-0.260	1.110
2020/01/31 23:13:16.6	189.930	-0.130	-0.230	1.100
2020/01/31 23:13:16.7	189.940	-0.170	-0.200	1.090
2020/01/31 23:13:16.8	189.960	-0.210	-0.170	1.080
2020/01/31 23:13:16.9	189.970	-0.250	-0.150	1.080
2020/01/31 23:13:17.0	189.980	-0.280	-0.130	1.070
2020/01/31 23:13:17.1	190.000	-0.320	-0.110	1.070
2020/01/31 23:13:17.2	190.000	-0.350	-0.090	1.080
2020/01/31 23:13:17.3	190.010	-0.390	-0.080	1.080
2020/01/31 23:13:17.4	190.010	-0.420	-0.080	1.090
2020/01/31 23:13:17.5	190.020	-0.440	-0.080	1.110
2020/01/31 23:13:17.6	190.020	-0.470	-0.080	1.120
2020/01/31 23:13:17.7	190.020	-0.490	-0.090	1.140
2020/01/31 23:13:17.8	190.010	-0.520	-0.100	1.170
2020/01/31 23:13:17.9	190.000	-0.530	-0.110	1.190
2020/01/31 23:13:18.0	189.990	-0.550	-0.130	1.220
2020/01/31 23:13:18.1	189.990	-0.560	-0.150	1.260
2020/01/31 23:13:18.2	189.970	-0.570	-0.180	1.300
2020/01/31 23:13:18.3	189.950	-0.580	-0.210	1.340
2020/01/31 23:13:18.4	189.930	-0.580	-0.240	1.380
2020/01/31 23:13:18.5	189.910	-0.580	-0.270	1.420
2020/01/31 23:13:18.6	189.880	-0.580	-0.310	1.470
2020/01/31 23:13:18.7	189.860	-0.570	-0.340	1.520
2020/01/31 23:13:18.8	189.830	-0.560	-0.380	1.570
2020/01/31 23:13:18.9	189.800	-0.550	-0.410	1.610
2020/01/31 23:13:19.0	189.770	-0.540	-0.450	1.660
2020/01/31 23:13:19.1	189.730	-0.520	-0.480	1.710
2020/01/31 23:13:19.2	189.690	-0.500	-0.510	1.760
2020/01/31 23:13:19.3	189.660	-0.480	-0.530	1.800
2020/01/31 23:13:19.4	189.630	-0.450	-0.560	1.840
2020/01/31 23:13:19.5	189.590	-0.430	-0.570	1.880
2020/01/31 23:13:19.6	189.560	-0.400	-0.590	1.920
2020/01/31 23:13:19.7	189.530	-0.380	-0.600	1.960
2020/01/31 23:13:19.8	189.500	-0.350	-0.600	1.990
2020/01/31 23:13:19.9	189.470	-0.320	-0.590	2.010
2020/01/31 23:13:20.0	189.440	-0.290	-0.580	2.040
2020/01/31 23:13:20.1	189.430	-0.260	-0.570	2.060
2020/01/31 23:13:20.2	189.410	-0.240	-0.540	2.070
2020/01/31 23:13:20.3	189.390	-0.210	-0.510	2.080
2020/01/31 23:13:20.4	189.380	-0.180	-0.470	2.080
2020/01/31 23:13:20.5	189.370	-0.160	-0.420	2.080
2020/01/31 23:13:20.6	189.370	-0.140	-0.360	2.070
2020/01/31 23:13:20.7	189.370	-0.120	-0.300	2.050
2020/01/31 23:13:20.8	189.370	-0.100	-0.230	2.040
2020/01/31 23:13:20.9	189.380	-0.090	-0.160	2.010
2020/01/31 23:13:21.0	189.390	-0.070	-0.080	1.990
2020/01/31 23:13:21.1	189.410	-0.060	0.010	1.950
2020/01/31 23:13:21.2	189.430	-0.050	0.090	1.920
2020/01/31 23:13:21.3	189.460	-0.050	0.180	1.880
2020/01/31 23:13:21.4	189.480	-0.040	0.270	1.840
2020/01/31 23:13:21.5	189.510	-0.040	0.360	1.800
2020/01/31 23:13:21.6	189.540	-0.040	0.450	1.750
2020/01/31 23:13:21.7	189.570	-0.040	0.530	1.710
2020/01/31 23:13:21.8	189.600	-0.040	0.620	1.660
2020/01/31 23:13:21.9	189.630	-0.040	0.690	1.610
2020/01/31 23:13:22.0	189.660	-0.040	0.770	1.560
2020/01/31 23:13:22.1	189.680	-0.050	0.820	1.500
2020/01/31 23:13:22.2	189.710	-0.050	0.880	1.450
2020/01/31 23:13:22.3	189.740	-0.060	0.930	1.400
2020/01/31 23:13:22.4	189.770	-0.060	0.970	1.350
2020/01/31 23:13:22.5	189.790	-0.060	1.000	1.300
2020/01/31 23:13:22.6	189.810	-0.060	1.010	1.260
2020/01/31 23:13:22.7	189.830	-0.060	1.020	1.210
2020/01/31 23:13:22.8	189.850	-0.060	1.020	1.160
2020/01/31 23:13:22.9	189.870	-0.060	1.000	1.120
2020/01/31 23:13:23.0	189.890	-0.060	0.970	1.070
2020/01/31 23:13:23.1	189.900	-0.050	0.940	1.020
2020/01/31 23:13:23.2	189.920	-0.040	0.890	0.980
2020/01/31 23:13:23.3	189.930	-0.030	0.830	0.940
2020/01/31 23:13:23.4	189.940	-0.020	0.760	0.900
2020/01/31 23:13:23.5	189.950	-0.000	0.690	0.870
2020/01/31 23:13:23.6	189.960	0.010	0.600	0.840
2020/01/31 23:13:23.7	189.960	0.030	0.510	0.810
2020/01/31 23:13:23.8	189.970	0.060	0.410	0.780
2020/01/31 23:13:23.9	189.980	0.080	0.300	0.760
2020/01/31 23:13:24.0	189.980	0.100	0.190	0.740
2020/01/31 23:13:24.1	190.000	0.130	0.080	0.720
2020/01/31 23:13:24.2	190.000	0.160	-0.040	0.720
2020/01/31 23:13:24.3	190.010	0.190	-0.160	0.710
2020/01/31 23:13:24.4	190.010	0.220	-0.270	0.710
2020/01/31 23:13:24.5	190.010	0.250	-0.390	0.720
2020/01/31 23:13:24.6	190.020	0.280	-0.500	0.730
2020/01/31 23:13:24.7	190.020	0.310	-0.610	0.740
2020/01/31 23:13:24.8	190.020	0.340	-0.720	0.760
2020/01/31 23:13:24.9	190.030	0.370	-0.820	0.780
2020/01/31 23:13:25.0	190.030	0.400	-0.910	0.810
2020/01/31 23:13:25.1	190.030	0.420	-1.000	0.840
2020/01/31 23:13:25.2	190.030	0.450	-1.080	0.870
2020/01/31 23:13:25.3	190.030	0.470	-1.150	0.900
2020/01/31 23:13:25.4	190.020	0.490	-1.210	0.940
2020/01/31 23:13:25.5	190.020	0.510	-1.270	0.970
2020/01/31 23:13:25.6	190.010	0.520	-1.320	1.010
2020/01/31 23:13:25.7	190.010	0.530	-1.350	1.050
2020/01/31 23:13:25.8	190.000	0.540	-1.380	1.090
2020/01/31 23:13:25.9	189.990	0.550	-1.400	1.130
2020/01/31 23:13:26.0	189.980	0.550	-1.410	1.180
2020/01/31 23:13:26.1	189.970	0.540	-1.410	1.220
2020/01/31 23:13:26.2	189.950	0.540	-1.400	1.260
2020/01/31 23:13:26.3	189.940	0.520	-1.380	1.300
2020/01/31 23:13:26.4	189.930	0.510	-1.350	1.340
2020/01/31 23:13:26.5	189.920	0.490	-1.320	1.370
2020/01/31 23:13:26.6	189.910	0.460	-1.280	1.410
2020/01/31 23:13:26.7	189.900	0.440	-1.220	1.450
2020/01/31 23:13:26.8	189.890	0.400	-1.170	1.480
2020/01/31 23:13:26.9	189.880	0.370	-1.100	1.510
2020/01/31 23:13:27.0	189.870	0.330	-1.030	1.540
2020/01/31 23:13:27.1	189.870	0.290	-0.960	1.570
2020/01/31 23:13:27.2	189.870	0.240	-0.870	1.600
2020/01/31 23:13:27.3	189.860	0.190	-0.790	1.620
2020/01/31 23:13:27.4	189.860	0.140	-0.700	1.650
2020/01/31 23:13:27.5	189.860	0.090	-0.610	1.670
2020/01/31 23:13:27.6	189.870	0.040	-0.520	1.690
2020/01/31 23:13:27.7	189.870	-0.010	-0.430	1.710
2020/01/31 23:13:27.8	189.880	-0.070	-0.340	1.730
2020/01/31 23:13:27.9	189.890	-0.120	-0.240	1.740
2020/01/31 23:13:28.0	189.890	-0.170	-0.150	1.760
2020/01/31 23:13:28.1	189.910	-0.220	-0.060	1.770
2020/01/31 23:13:28.2	189.920	-0.270	0.020	1.780
2020/01/31 23:13:28.3	189.930	-0.320	0.100	1.780
2020/01/31 23:13:28.4	189.940	-0.360	0.180	1.780
2020/01/31 23:13:28.5	189.960	-0.400	0.250	1.780
2020/01/31 23:13:28.6	189.970	-0.430	0.320	1.780
2020/01/31 23:13:28.7	189.980	-0.460	0.380	1.770
2020/01/31 23:13:28.8	190.000	-0.480	0.440	1.760
2020/01/31 23:13:28.9	190.010	-0.500	0.480	1.750
2020/01/31 23:13:29.0	190.020	-0.510	0.520	1.730
2020/01/31 23:13:29.1	190.040	-0.520	0.550	1.720
2020/01/31 23:13:29.2	190.050	-0.520	0.570	1.700
2020/01/31 23:13:29.3	190.060	-0.520	0.580	1.670
2020/01/31 23:13:29.4	190.070	-0.500	0.580	1.650
2020/01/31 23:13:29.5	190.080	-0.490	0.580	1.620
2020/01/31 23:13:29.6	190.090	-0.460	0.560	1.590
2020/01/31 23:13:29.7	190.090	-0.430	0.530	1.560
2020/01/31 23:13:29.8	190.100	-0.400	0.490	1.530
2020/01/31 23:13:29.9	190.100	-0.360	0.450	1.490
2020/01/31 23:13:30.0	190.110	-0.310	0.390	1.460
2020/01/31 23:13:30.1	190.110	-0.260	0.330	1.420
2020/01/31 23:13:30.2	190.110	-0.210	0.260	1.380
2020/01/31 23:13:30.3	190.100	-0.160	0.190	1.350
2020/01/31 23:13:30.4	190.100	-0.100	0.110	1.310
2020/01/31 23:13:30.5	190.100	-0.040	0.020	1.280
2020/01/31 23:13:30.6	190.090	0.010	-0.060	1.240
2020/01/31 23:13:30.7	190.090	0.070	-0.150	1.210
2020/01/31 23:13:30.8	190.080	0.130	-0.240	1.180
2020/01/31 23:13:30.9	190.080	0.180	-0.320	1.150
2020/01/31 23:13:31.0	190.080	0.230	-0.410	1.120
2020/01/31 23:13:31.1	190.080	0.280	-0.490	1.090
2020/01/31 23:13:31.2	190.090	0.320	-0.560	1.070
2020/01/31 23:13:31.3	190.090	0.360	-0.630	1.050
2020/01/31 23:13:31.4	190.100	0.390	-0.690	1.040
2020/01/31 23:13:31.5	190.110	0.420	-0.750	1.030
2020/01/31 23:13:31.6	190.120	0.440	-0.790	1.020
2020/01/31 23:13:31.7	190.140	0.450	-0.830	1.020
2020/01/31 23:13:31.8	190.150	0.460	-0.860	1.020
2020/01/31 23:13:31.9	190.170	0.460	-0.890	1.030
2020/01/31 23:13:32.0	190.190	0.460	-0.900	1.050
2020/01/31 23:13:32.1	190.220	0.450	-0.900	1.070
2020/01/31 23:13:32.2	190.250	0.430	-0.900	1.090
2020/01/31 23:13:32.3	190.280	0.410	-0.890	1.110
2020/01/31 23:13:32.4	190.310	0.380	-0.860	1.140
2020/01/31 23:13:32.5	190.340	0.350	-0.840	1.170
2020/01/31 23:13:32.6	190.380	0.310	-0.800	1.190
2020/01/31 23:13:32.7	190.410	0.270	-0.760	1.220
2020/01/31 23:13:32.8	190.450	0.220	-0.710	1.250
2020/01/31 23:13:32.9	190.490	0.170	-0.660	1.280
2020/01/31 23:13:33.0	190.530	0.120	-0.600	1.310
2020/01/31 23:13:33.1	190.570	0.070	-0.540	1.330
2020/01/31 23:13:33.2	190.610	0.020	-0.480	1.350
2020/01/31 23:13:33.3	190.640	-0.030	-0.420	1.380
2020/01/31 23:13:33.4	190.670	-0.090	-0.360	1.400
2020/01/31 23:13:33.5	190.700	-0.140	-0.300	1.420
2020/01/31 23:13:33.6	190.730	-0.180	-0.240	1.440
2020/01/31 23:13:33.7	190.750	-0.230	-0.190	1.470
2020/01/31 23:13:33.8	190.770	-0.270	-0.140	1.480
2020/01/31 23:13:33.9	190.780	-0.300	-0.100	1.500
2020/01/31 23:13:34.0	190.800	-0.330	-0.070	1.520
2020/01/31 23:13:34.1	190.810	-0.360	-0.050	1.540
2020/01/31 23:13:34.2	190.820	-0.380	-0.030	1.560
2020/01/31 23:13:34.3	190.820	-0.390	-0.020	1.580
2020/01/31 23:13:34.4	190.810	-0.400	-0.020	1.590
2020/01/31 23:13:34.5	190.800	-0.400	-0.020	1.610
2020/01/31 23:13:34.6	190.790	-0.400	-0.040	1.630
2020/01/31 23:13:34.7	190.780	-0.390	-0.060	1.650
2020/01/31 23:13:34.8	190.760	-0.380	-0.080	1.670
2020/01/31 23:13:34.9	190.740	-0.360	-0.120	1.700
2020/01/31 23:13:35.0	190.720	-0.340	-0.150	1.720
2020/01/31 23:13:35.1	190.700	-0.310	-0.190	1.750
2020/01/31 23:13:35.2	190.670	-0.280	-0.230	1.780
2020/01/31 23:13:35.3	190.650	-0.250	-0.280	1.810
2020/01/31 23:13:35.4	190.620	-0.220	-0.320	1.840
2020/01/31 23:13:35.5	190.590	-0.180	-0.370	1.870
2020/01/31 23:13:35.6	190.570	-0.140	-0.410	1.900
2020/01/31 23:13:35.7	190.540	-0.110	-0.450	1.930
2020/01/31 23:13:35.8	190.510	-0.070	-0.490	1.960
2020/01/31 23:13:35.9	190.490	-0.030	-0.530	1.980
2020/01/31 23:13:36.0	190.470	0.000	-0.560	2.000
2020/01/31 23:13:36.1	190.460	0.040	-0.590	2.020
2020/01/31 23:13:36.2	190.440	0.070	-0.610	2.030
2020/01/31 23:13:36.3	190.420	0.100	-0.630	2.040
2020/01/31 23:13:36.4	190.410	0.130	-0.640	2.050
2020/01/31 23:13:36.5	190.400	0.150	-0.650	2.040
2020/01/31 23:13:36.6	190.390	0.170	-0.640	2.040
2020/01/31 23:13:36.7	190.390	0.190	-0.630	2.030
2020/01/31 23:13:36.8	190.380	0.200	-0.620	2.010
2020/01/31 23:13:36.9	190.380	0.210	-0.600	1.990
2020/01/31 23:13:37.0	190.380	0.220	-0.570	1.970
2020/01/31 23:13:37.1	190.390	0.220	-0.540	1.940
2020/01/31 23:13:37.2	190.390	0.210	-0.500	1.910
2020/01/31 23:13:37.3	190.400	0.210	-0.460	1.880
2020/01/31 23:13:37.4	190.410	0.200	-0.420	1.850
2020/01/31 23:13:37.5	190.420	0.180	-0.370	1.810
2020/01/31 23:13:37.6	190.430	0.160	-0.320	1.780
2020/01/31 23:13:37.7	190.450	0.140	-0.260	1.740
2020/01/31 23:13:37.8	190.460	0.120	-0.210	1.710
2020/01/31 23:13:37.9	190.470	0.090	-0.150	1.680
2020/01/31 23:13:38.0	190.490	0.060	-0.100	1.640
2020/01/31 23:13:38.1	190.490	0.030	-0.040	1.610
2020/01/31 23:13:38.2	190.500	-0.000	0.010	1.580
2020/01/31 23:13:38.3	190.510	-0.030	0.060	1.560
2020/01/31 23:13:38.4	190.530	-0.070	0.110	1.540
2020/01/31 23:13:38.5	190.540	-0.100	0.160	1.530
2020/01/31 23:13:38.6	190.550	-0.140	0.200	1.520
2020/01/31 23:13:38.7	190.560	-0.170	0.240	1.510
2020/01/31 23:13:38.8	190.570	-0.200	0.280	1.500
2020/01/31 23:13:38.9	190.580	-0.230	0.310	1.500
2020/01/31 23:13:39.0	190.580	-0.260	0.330	1.500
2020/01/31 23:13:39.1	190.580	-0.290	0.350	1.500
2020/01/31 23:13:39.2	190.580	-0.310	0.370	1.510
2020/01/31 23:13:39.3	190.590	-0.330	0.390	1.520
2020/01/31 23:13:39.4	190.590	-0.350	0.390	1.530
2020/01/31 23:13:39.5	190.600	-0.370	0.400	1.530
2020/01/31 23:13:39.6	190.600	-0.380	0.400	1.540
2020/01/31 23:13:39.7	190.600	-0.390	0.400	1.550
2020/01/31 23:13:39.8	190.600	-0.390	0.400	1.560
2020/01/31 23:13:39.9	190.600	-0.390	0.390	1.570
2020/01/31 23:13:40.0	190.610	-0.390	0.380	1.570
2020/01/31 23:13:40.1	190.600	-0.390	0.370	1.580
2020/01/31 23:13:40.2	190.600	-0.380	0.360	1.580
2020/01/31 23:13:40.3	190.600	-0.370	0.340	1.580
2020/01/31 23:13:40.4	190.600	-0.360	0.320	1.580
2020/01/31 23:13:40.5	190.600	-0.340	0.300	1.580
2020/01/31 23:13:40.6	190.600	-0.320	0.280	1.580
2020/01/31 23:13:40.7	190.600	-0.300	0.260	1.570
2020/01/31 23:13:40.8	190.600	-0.270	0.240	1.570
2020/01/31 23:13:40.9	190.590	-0.250	0.210	1.560
2020/01/31 23:13:41.0	190.590	-0.220	0.190	1.550
2020/01/31 23:13:41.1	190.580	-0.190	0.160	1.540
2020/01/31 23:13:41.2	190.580	-0.150	0.140	1.520
2020/01/31 23:13:41.3	190.580	-0.120	0.120	1.510
2020/01/31 23:13:41.4	190.580	-0.090	0.090	1.490
2020/01/31 23:13:41.5	190.580	-0.050	0.060	1.470
2020/01/31 23:13:41.6	190.580	-0.020	0.040	1.440
2020/01/31 23:13:41.7	190.580	0.020	0.010	1.420
2020/01/31 23:13:41.8	190.580	0.050	-0.010	1.390
2020/01/31 23:13:41.9	190.580	0.090	-0.040	1.370
2020/01/31 23:13:42.0	190.580	0.120	-0.070	1.340
2020/01/31 23:13:42.1	190.580	0.160	-0.100	1.300
2020/01/31 23:13:42.2	190.580	0.190	-0.130	1.280
2020/01/31 23:13:42.3	190.580	0.220	-0.160	1.250
2020/01/31 23:13:42.4	190.570	0.260	-0.190	1.220
2020/01/31 23:13:42.5	190.570	0.290	-0.220	1.190
2020/01/31 23:13:42.6	190.570	0.310	-0.260	1.160
2020/01/31 23:13:42.7	190.560	0.340	-0.290	1.130
2020/01/31 23:13:42.8	190.550	0.370	-0.330	1.100
2020/01/31 23:13:42.9	190.540	0.390	-0.370	1.080
2020/01/31 23:13:43.0	190.530	0.410	-0.410	1.050
2020/01/31 23:13:43.1	190.530	0.430	-0.450	1.030
2020/01/31 23:13:43.2	190.520	0.450	-0.490	1.010
2020/01/31 23:13:43.3	190.510	0.460	-0.530	0.990
2020/01/31 23:13:43.4	190.500	0.470	-0.570	0.970
2020/01/31 23:13:43.5	190.480	0.480	-0.610	0.960
2020/01/31 23:13:43.6	190.460	0.480	-0.650	0.950
2020/01/31 23:13:43.7	190.450	0.490	-0.690	0.940
2020/01/31 23:13:43.8	190.430	0.490	-0.730	0.940
2020/01/31 23:13:43.9	190.420	0.490	-0.760	0.940
2020/01/31 23:13:44.0	190.400	0.480	-0.800	0.940
2020/01/31 23:13:44.1	190.390	0.470	-0.830	0.940
2020/01/31 23:13:44.2	190.380	0.460	-0.870	0.940
2020/01/31 23:13:44.3	190.370	0.450	-0.900	0.950
2020/01/31 23:13:44.4	190.360	0.430	-0.920	0.970
2020/01/31 23:13:44.5	190.350	0.410	-0.950	0.980
2020/01/31 23:13:44.6	190.350	0.390	-0.970	1.000
2020/01/31 23:13:44.7	190.340	0.370	-0.980	1.010
2020/01/31 23:13:44.8	190.340	0.340	-0.990	1.040
2020/01/31 23:13:44.9	190.340	0.310	-1.000	1.060
2020/01/31 23:13:45.0	190.350	0.280	-1.010	1.080
2020/01/31 23:13:45.1	190.340	0.250	-1.010	1.110
2020/01/31 23:13:45.2	190.340	0.220	-1.000	1.130
2020/01/31 23:13:45.3	190.350	0.180	-0.990	1.160
2020/01/31 23:13:45.4	190.360	0.150	-0.970	1.190
2020/01/31 23:13:45.5	190.370	0.120	-0.960	1.210
2020/01/31 23:13:45.6	190.370	0.080	-0.930	1.240
2020/01/31 23:13:45.7	190.380	0.050	-0.910	1.270
2020/01/31 23:13:45.8	190.390	0.010	-0.880	1.310
2020/01/31 23:13:45.9	190.400	-0.020	-0.840	1.340
2020/01/31 23:13:46.0	190.400	-0.050	-0.810	1.370
2020/01/31 23:13:46.1	190.420	-0.080	-0.770	1.400
2020/01/31 23:13:46.2	190.420	-0.110	-0.730	1.440
2020/01/31 23:13:46.3	190.420	-0.140	-0.690	1.470
2020/01/31 23:13:46.4	190.420	-0.160	-0.650	1.510
2020/01/31 23:13:46.5	190.420	-0.180	-0.610	1.540
2020/01/31 23:13:46.6	190.410	-0.200	-0.570	1.580
2020/01/31 23:13:46.7	190.400	-0.220	-0.520	1.610
2020/01/31 23:13:46.8	190.390	-0.240	-0.480	1.640
2020/01/31 23:13:46.9	190.380	-0.250	-0.440	1.670
2020/01/31 23:13:47.0	190.370	-0.260	-0.400	1.710
2020/01/31 23:13:47.1	190.360	-0.260	-0.360	1.730
2020/01/31 23:13:47.2	190.350	-0.270	-0.320	1.760
2020/01/31 23:13:47.3	190.330	-0.270	-0.280	1.790
2020/01/31 23:13:47.4	190.320	-0.260	-0.250	1.810
2020/01/31 23:13:47.5	190.300	-0.260	-0.220	1.830
2020/01/31 23:13:47.6	190.280	-0.250	-0.190	1.850
2020/01/31 23:13:47.7	190.270	-0.240	-0.160	1.870
2020/01/31 23:13:47.8	190.250	-0.230	-0.130	1.880
2020/01/31 23:13:47.9	190.240	-0.210	-0.110	1.890
2020/01/31 23:13:48.0	190.220	-0.200	-0.090	1.900
2020/01/31 23:13:48.1	190.200	-0.180	-0.070	1.910
2020/01/31 23:13:48.2	190.190	-0.160	-0.060	1.910
2020/01/31 23:13:48.3	190.170	-0.130	-0.050	1.910
2020/01/31 23:13:48.4	190.160	-0.110	-0.030	1.910
2020/01/31 23:13:48.5	190.140	-0.090	-0.030	1.910
2020/01/31 23:13:48.6	190.130	-0.070	-0.020	1.900
2020/01/31 23:13:48.7	190.120	-0.040	-0.020	1.880
2020/01/31 23:13:48.8	190.100	-0.020	-0.010	1.870
2020/01/31 23:13:48.9	190.100	0.000	-0.010	1.850
2020/01/31 23:13:49.0	190.090	0.030	-0.010	1.830
2020/01/31 23:13:49.1	190.070	0.050	-0.010	1.810
2020/01/31 23:13:49.2	190.070	0.070	-0.010	1.790
2020/01/31 23:13:49.3	190.070	0.090	-0.020	1.760
2020/01/31 23:13:49.4	190.070	0.100	-0.020	1.740
2020/01/31 23:13:49.5	190.070	0.120	-0.020	1.710
2020/01/31 23:13:49.6	190.070	0.130	-0.020	1.690
2020/01/31 23:13:49.7	190.070	0.140	-0.020	1.670
2020/01/31 23:13:49.8	190.080	0.150	-0.020	1.640
2020/01/31 23:13:49.9	190.080	0.150	-0.020	1.620
2020/01/31 23:13:50.0	190.090	0.160	-0.020	1.600
2020/01/31 23:13:50.1	190.090	0.160	-0.010	1.580
2020/01/31 23:13:50.2	190.110	0.160	-0.010	1.560
2020/01/31 23:13:50.3	190.120	0.150	-0.000	1.540
2020/01/31 23:13:50.4	190.130	0.150	0.000	1.530
2020/01/31 23:13:50.5	190.140	0.140	0.010	1.520
2020/01/31 23:13:50.6	190.160	0.130	0.020	1.500
2020/01/31 23:13:50.7	190.180	0.110	0.040	1.490
2020/01/31 23:13:50.8	190.190	0.100	0.050	1.480
2020/01/31 23:13:50.9	190.210	0.080	0.060	1.470
2020/01/31 23:13:51.0	190.230	0.060	0.080	1.470
2020/01/31 23:13:51.1	190.260	0.050	0.090	1.460
2020/01/31 23:13:51.2	190.270	0.030	0.110	1.460
2020/01/31 23:13:51.3	190.280	0.000	0.120	1.450
2020/01/31 23:13:51.4	190.300	-0.020	0.130	1.450
2020/01/31 23:13:51.5	190.310	-0.040	0.140	1.450
2020/01/31 23:13:51.6	190.320	-0.060	0.150	1.450
2020/01/31 23:13:51.7	190.330	-0.080	0.160	1.450
2020/01/31 23:13:51.8	190.330	-0.100	0.160	1.450
2020/01/31 23:13:51.9	190.330	-0.120	0.160	1.460
2020/01/31 23:13:52.0	190.330	-0.140	0.160	1.460
2020/01/31 23:13:52.1	190.330	-0.160	0.160	1.460
2020/01/31 23:13:52.2	190.330	-0.170	0.150	1.470
2020/01/31 23:13:52.3	190.320	-0.190	0.140	1.480
2020/01/31 23:13:52.4	190.310	-0.200	0.130	1.490
2020/01/31 23:13:52.5	190.300	-0.210	0.110	1.500
2020/01/31 23:13:52.6	190.290	-0.210	0.090	1.510
2020/01/31 23:13:52.7	190.280	-0.220	0.070	1.520
2020/01/31 23:13:52.8	190.270	-0.220	0.050	1.540
2020/01/31 23:13:52.9	190.250	-0.230	0.020	1.550
2020/01/31 23:13:53.0	190.240	-0.230	-0.000	1.570
2020/01/31 23:13:53.1	190.210	-0.220	-0.030	1.590
2020/01/31 23:13:53.2	190.200	-0.220	-0.060	1.610
2020/01/31 23:13:53.3	190.180	-0.220	-0.090	1.640
2020/01/31 23:13:53.4	190.170	-0.210	-0.110	1.660
2020/01/31 23:13:53.5	190.160	-0.200	-0.140	1.690
2020/01/31 23:13:53.6	190.150	-0.200	-0.160	1.710
2020/01/31 23:13:53.7	190.150	-0.190	-0.180	1.740
2020/01/31 23:13:53.8	190.140	-0.180	-0.200	1.770
2020/01/31 23:13:53.9	190.130	-0.170	-0.210	1.790
2020/01/31 23:13:54.0	190.130	-0.160	-0.230	1.810
2020/01/31 23:13:54.1	190.130	-0.150	-0.240	1.840
2020/01/31 23:13:54.2	190.130	-0.140	-0.250	1.860
2020/01/31 23:13:54.3	190.130	-0.120	-0.250	1.870
2020/01/31 23:13:54.4	190.130	-0.110	-0.250	1.890
2020/01/31 23:13:54.5	190.140	-0.100	-0.250	1.890
2020/01/31 23:13:54.6	190.140	-0.090	-0.250	1.900
2020/01/31 23:13:54.7	190.140	-0.080	-0.240	1.900
2020/01/31 23:13:54.8	190.150	-0.070	-0.230	1.900
2020/01/31 23:13:54.9	190.150	-0.060	-0.230	1.900
2020/01/31 23:13:55.0	190.150	-0.040	-0.220	1.890
2020/01/31 23:13:55.1	190.150	-0.030	-0.210	1.880
2020/01/31 23:13:55.2	190.150	-0.020	-0.200	1.870
2020/01/31 23:13:55.3	190.150	-0.010	-0.200	1.850
2020/01/31 23:13:55.4	190.140	0.010	-0.200	1.840
2020/01/31 23:13:55.5	190.140	0.020	-0.210	1.820
2020/01/31 23:13:55.6	190.130	0.030	-0.220	1.800
2020/01/31 23:13:55.7	190.120	0.050	-0.230	1.780
2020/01/31 23:13:55.8	190.110	0.060	-0.250	1.770
2020/01/31 23:13:55.9	190.090	0.070	-0.270	1.750
2020/01/31 23:13:56.0	190.070	0.090	-0.300	1.730
2020/01/31 23:13:56.1	190.050	0.100	-0.330	1.710
2020/01/31 23:13:56.2	190.030	0.120	-0.370	1.700
2020/01/31 23:13:56.3	190.000	0.140	-0.410	1.690
2020/01/31 23:13:56.4	189.970	0.150	-0.450	1.680
2020/01/31 23:13:56.5	189.950	0.170	-0.500	1.670
2020/01/31 23:13:56.6	189.920	0.180	-0.550	1.660
2020/01/31 23:13:56.7	189.890	0.200	-0.610	1.660
2020/01/31 23:13:56.8	189.850	0.220	-0.660	1.660
2020/01/31 23:13:56.9	189.820	0.230	-0.720	1.660
2020/01/31 23:13:57.0	189.790	0.250	-0.780	1.660
2020/01/31 23:13:57.1	189.760	0.260	-0.830	1.660
2020/01/31 23:13:57.2	189.740	0.280	-0.890	1.660
2020/01/31 23:13:57.3	189.710	0.290	-0.940	1.670
2020/01/31 23:13:57.4	189.680	0.300	-0.990	1.670
2020/01/31 23:13:57.5	189.660	0.310	-1.030	1.670
2020/01/31 23:13:57.6	189.640	0.320	-1.070	1.670
2020/01/31 23:13:57.7	189.620	0.320	-1.100	1.680
2020/01/31 23:13:57.8	189.610	0.330	-1.130	1.680
2020/01/31 23:13:57.9	189.600	0.330	-1.150	1.680
2020/01/31 23:13:58.0	189.590	0.330	-1.160	1.680
2020/01/31 23:13:58.1	189.590	0.320	-1.160	1.680
2020/01/31 23:13:58.2	189.590	0.320	-1.150	1.680
2020/01/31 23:13:58.3	189.590	0.310	-1.140	1.670
2020/01/31 23:13:58.4	189.600	0.300	-1.120	1.660
2020/01/31 23:13:58.5	189.600	0.290	-1.090	1.650
2020/01/31 23:13:58.6	189.620	0.270	-1.050	1.640
2020/01/31 23:13:58.7	189.630	0.260	-1.000	1.620
2020/01/31 23:13:58.8	189.650	0.240	-0.940	1.600
2020/01/31 23:13:58.9	189.670	0.210	-0.880	1.570
2020/01/31 23:13:59.0	189.700	0.190	-0.810	1.540
2020/01/31 23:13:59.1	189.720	0.160	-0.740	1.510
2020/01/31 23:13:59.2	189.750	0.130	-0.660	1.470
2020/01/31 23:13:59.3	189.780	0.100	-0.570	1.440
2020/01/31 23:13:59.4	189.810	0.070	-0.480	1.400
2020/01/31 23:13:59.5	189.850	0.030	-0.390	1.360
2020/01/31 23:13:59.6	189.880	-0.000	-0.290	1.320
2020/01/31 23:13:59.7	189.920	-0.040	-0.190	1.280
2020/01/31 23:13:59.8	189.960	-0.070	-0.100	1.250
2020/01/31 23:13:59.9	189.990	-0.110	-0.000	1.210
2020/01/31 23:14:00.0	190.030	-0.150	0.090	1.170
2020/01/31 23:14:00.1	190.060	-0.190	0.180	1.140
2020/01/31 23:14:00.2	190.090	-0.220	0.270	1.100
2020/01/31 23:14:00.3	190.130	-0.260	0.350	1.070
2020/01/31 23:14:00.4	190.160	-0.290	0.420	1.050
2020/01/31 23:14:00.5	190.190	-0.320	0.490	1.020
2020/01/31 23:14:00.6	190.230	-0.350	0.550	1.000
2020/01/31 23:14:00.7	190.250	-0.380	0.600	0.990
2020/01/31 23:14:00.8	190.280	-0.410	0.650	0.970
2020/01/31 23:14:00.9	190.310	-0.430	0.680	0.960
2020/01/31 23:14:01.0	190.330	-0.450	0.710	0.960
2020/01/31 23:14:01.1	190.360	-0.460	0.720	0.950
2020/01/31 23:14:01.2	190.380	-0.480	0.720	0.950
2020/01/31 23:14:01.3	190.390	-0.480	0.720	0.950
2020/01/31 23:14:01.4	190.410	-0.490	0.700	0.960
2020/01/31 23:14:01.5	190.410	-0.490	0.680	0.970
2020/01/31 23:14:01.6	190.420	-0.480	0.640	0.980
2020/01/31 23:14:01.7	190.420	-0.470	0.590	1.000
2020/01/31 23:14:01.8	190.420	-0.460	0.540	1.020
2020/01/31 23:14:01.9	190.420	-0.440	0.470	1.040
2020/01/31 23:14:02.0	190.410	-0.420	0.400	1.070
2020/01/31 23:14:02.1	190.410	-0.390	0.320	1.100
2020/01/31 23:14:02.2	190.390	-0.360	0.240	1.130
2020/01/31 23:14:02.3	190.370	-0.320	0.150	1.160
2020/01/31 23:14:02.4	190.350	-0.290	0.050	1.200
2020/01/31 23:14:02.5	190.330	-0.250	-0.040	1.230
2020/01/31 23:14:02.6	190.300	-0.200	-0.140	1.270
2020/01/31 23:14:02.7	190.270	-0.160	-0.240	1.310
2020/01/31 23:14:02.8	190.240	-0.110	-0.340	1.350
2020/01/31 23:14:02.9	190.200	-0.070	-0.440	1.380
2020/01/31 23:14:03.0	190.170	-0.020	-0.530	1.420
2020/01/31 23:14:03.1	190.130	0.030	-0.620	1.460
2020/01/31 23:14:03.2	190.100	0.070	-0.710	1.500
2020/01/31 23:14:03.3	190.070	0.110	-0.780	1.530
2020/01/31 23:14:03.4	190.030	0.160	-0.860	1.570
2020/01/31 23:14:03.5	190.000	0.190	-0.920	1.610
2020/01/31 23:14:03.6	189.970	0.230	-0.970	1.640
2020/01/31 23:14:03.7	189.940	0.260	-1.020	1.680
2020/01/31 23:14:03.8	189.910	0.290	-1.050	1.720
2020/01/31 23:14:03.9	189.880	0.310	-1.080	1.750
2020/01/31 23:14:04.0	189.860	0.330	-1.090	1.790
2020/01/31 23:14:04.1	189.840	0.340	-1.090	1.820
2020/01/31 23:14:04.2	189.820	0.350	-1.090	1.850
2020/01/31 23:14:04.3	189.800	0.350	-1.070	1.880
2020/01/31 23:14:04.4	189.790	0.340	-1.040	1.920
2020/01/31 23:14:04.5	189.770	0.330	-1.010	1.940
2020/01/31 23:14:04.6	189.770	0.320	-0.960	1.970
2020/01/31 23:14:04.7	189.760	0.290	-0.910	2.000
2020/01/31 23:14:04.8	189.760	0.270	-0.850	2.020
2020/01/31 23:14:04.9	189.760	0.240	-0.780	2.040
2020/01/31 23:14:05.0	189.760	0.200	-0.700	2.050
2020/01/31 23:14:05.1	189.780	0.160	-0.610	2.060
2020/01/31 23:14:05.2	189.790	0.120	-0.530	2.070
2020/01/31 23:14:05.3	189.800	0.070	-0.430	2.070
2020/01/31 23:14:05.4	189.820	0.020	-0.330	2.070
2020/01/31 23:14:05.5	189.840	-0.030	-0.230	2.070
2020/01/31 23:14:05.6	189.870	-0.090	-0.130	2.060
2020/01/31 23:14:05.7	189.900	-0.140	-0.030	2.040
2020/01/31 23:14:05.8	189.940	-0.200	0.080	2.030
2020/01/31 23:14:05.9	189.970	-0.250	0.180	2.010
2020/01/31 23:14:06.0	190.010	-0.310	0.280	1.980
2020/01/31 23:14:06.1	190.050	-0.360	0.370	1.950
2020/01/31 23:14:06.2	190.090	-0.410	0.460	1.920
2020/01/31 23:14:06.3	190.130	-0.460	0.550	1.900
2020/01/31 23:14:06.4	190.170	-0.510	0.630	1.870
2020/01/31 23:14:06.5	190.210	-0.550	0.700	1.840
2020/01/31 23:14:06.6	190.260	-0.590	0.760	1.810
2020/01/31 23:14:06.7	190.290	-0.620	0.810	1.780
2020/01/31 23:14:06.8	190.330	-0.640	0.850	1.750
2020/01/31 23:14:06.9	190.370	-0.660	0.870	1.730
2020/01/31 23:14:07.0	190.400	-0.670	0.890	1.700
2020/01/31 23:14:07.1	190.420	-0.680	0.900	1.680
2020/01/31 23:14:07.2	190.440	-0.670	0.890	1.660
2020/01/31 23:14:07.3	190.460	-0.660	0.860	1.640
2020/01/31 23:14:07.4	190.480	-0.650	0.830	1.630
2020/01/31 23:14:07.5	190.490	-0.620	0.780	1.610
2020/01/31 23:14:07.6	190.500	-0.590	0.720	1.600
2020/01/31 23:14:07.7	190.500	-0.550	0.650	1.590
2020/01/31 23:14:07.8	190.500	-0.500	0.570	1.580
2020/01/31 23:14:07.9	190.500	-0.450	0.480	1.570
2020/01/31 23:14:08.0	190.490	-0.390	0.380	1.560
2020/01/31 23:14:08.1	190.480	-0.330	0.280	1.550
2020/01/31 23:14:08.2	190.460	-0.260	0.160	1.550
2020/01/31 23:14:08.3	190.440	-0.180	0.050	1.550
2020/01/31 23:14:08.4	190.410	-0.110	-0.070	1.550
2020/01/31 23:14:08.5	190.390	-0.030	-0.190	1.540
2020/01/31 23:14:08.6	190.360	0.060	-0.310	1.540
2020/01/31 23:14:08.7	190.330	0.140	-0.420	1.540
2020/01/31 23:14:08.8	190.300	0.220	-0.540	1.540
2020/01/31 23:14:08.9	190.260	0.300	-0.650	1.540
2020/01/31 23:14:09.0	190.230	0.380	-0.750	1.540
2020/01/31 23:14:09.1	190.190	0.460	-0.840	1.530
2020/01/31 23:14:09.2	190.160	0.530	-0.930	1.520
2020/01/31 23:14:09.3	190.130	0.600	-1.010	1.520
2020/01/31 23:14:09.4	190.110	0.670	-1.080	1.510
2020/01/31 23:14:09.5	190.080	0.720	-1.130	1.500
2020/01/31 23:14:09.6	190.060	0.780	-1.180	1.500
2020/01/31 23:14:09.7	190.040	0.820	-1.220	1.490
2020/01/31 23:14:09.8	190.020	0.860	-1.240	1.480
2020/01/31 23:14:09.9	190.010	0.890	-1.250	1.470
2020/01/31 23:14:10.0	190.000	0.910	-1.250	1.460
2020/01/31 23:14:10.1	189.970	0.930	-1.250	1.450
2020/01/31 23:14:10.2	189.970	0.930	-1.230	1.440
2020/01/31 23:14:10.3	189.960	0.930	-1.200	1.430
2020/01/31 23:14:10.4	189.960	0.920	-1.160	1.420
2020/01/31 23:14:10.5	189.960	0.900	-1.110	1.410
2020/01/31 23:14:10.6	189.960	0.870	-1.050	1.400
2020/01/31 23:14:10.7	189.960	0.840	-0.980	1.390
2020/01/31 23:14:10.8	189.970	0.800	-0.910	1.380
2020/01/31 23:14:10.9	189.970	0.750	-0.840	1.380
2020/01/31 23:14:11.0	189.980	0.700	-0.760	1.370
2020/01/31 23:14:11.1	189.990	0.640	-0.670	1.360
2020/01/31 23:14:11.2	190.000	0.570	-0.580	1.350
2020/01/31 23:14:11.3	190.010	0.510	-0.490	1.350
2020/01/31 23:14:11.4	190.030	0.430	-0.410	1.340
2020/01/31 23:14:11.5	190.040	0.360	-0.320	1.340
2020/01/31 23:14:11.6	190.050	0.280	-0.240	1.340
2020/01/31 23:14:11.7	190.070	0.210	-0.150	1.340
2020/01/31 23:14:11.8	190.090	0.130	-0.070	1.340
2020/01/31 23:14:11.9	190.110	0.050	0.000	1.340
2020/01/31 23:14:12.0	190.130	-0.030	0.070	1.340
2020/01/31 23:14:12.1	190.160	-0.100	0.130	1.340
2020/01/31 23:14:12.2	190.180	-0.180	0.190	1.350
2020/01/31 23:14:12.3	190.200	-0.250	0.250	1.360
2020/01/31 23:14:12.4	190.220	-0.310	0.290	1.370
2020/01/31 23:14:12.5	190.240	-0.380	0.340	1.380
2020/01/31 23:14:12.6	190.260	-0.430	0.370	1.390
2020/01/31 23:14:12.7	190.280	-0.490	0.400	1.400
2020/01/31 23:14:12.8	190.290	-0.530	0.420	1.420
2020/01/31 23:14:12.9	190.310	-0.580	0.440	1.430
2020/01/31 23:14:13.0	190.330	-0.610	0.450	1.450
2020/01/31 23:14:13.1	190.350	-0.640	0.460	1.470
2020/01/31 23:14:13.2	190.360	-0.660	0.460	1.480
2020/01/31 23:14:13.3	190.380	-0.670	0.450	1.500
2020/01/31 23:14:13.4	190.390	-0.680	0.440	1.520
2020/01/31 23:14:13.5	190.400	-0.680	0.420	1.530
2020/01/31 23:14:13.6	190.410	-0.680	0.390	1.550
2020/01/31 23:14:13.7	190.420	-0.660	0.360	1.560
2020/01/31 23:14:13.8	190.420	-0.640	0.330	1.570
2020/01/31 23:14:13.9	190.430	-0.620	0.290	1.580
2020/01/31 23:14:14.0	190.430	-0.590	0.250	1.590
2020/01/31 23:14:14.1	190.430	-0.550	0.200	1.600
2020/01/31 23:14:14.2	190.430	-0.510	0.150	1.610
2020/01/31 23:14:14.3	190.430	-0.470	0.100	1.610
2020/01/31 23:14:14.4	190.430	-0.420	0.050	1.620
2020/01/31 23:14:14.5	190.430	-0.360	-0.010	1.620
2020/01/31 23:14:14.6	190.420	-0.310	-0.060	1.620
2020/01/31 23:14:14.7	190.420	-0.250	-0.120	1.620
2020/01/31 23:14:14.8	190.420	-0.190	-0.180	1.610
2020/01/31 23:14:14.9	190.410	-0.130	-0.230	1.610
2020/01/31 23:14:15.0	190.410	-0.070	-0.290	1.600
2020/01/31 23:14:15.1	190.420	-0.010	-0.350	1.590
2020/01/31 23:14:15.2	190.420	0.050	-0.400	1.570
2020/01/31 23:14:15.3	190.410	0.110	-0.450	1.560
2020/01/31 23:14:15.4	190.410	0.160	-0.500	1.540
2020/01/31 23:14:15.5	190.410	0.220	-0.550	1.530
2020/01/31 23:14:15.6	190.400	0.270	-0.600	1.510
2020/01/31 23:14:15.7	190.390	0.310	-0.640	1.490
2020/01/31 23:14:15.8	190.390	0.350	-0.680	1.480
2020/01/31 23:14:15.9	190.380	0.390	-0.720	1.460
2020/01/31 23:14:16.0	190.370	0.430	-0.750	1.450
2020/01/31 23:14:16.1	190.380	0.460	-0.780	1.430
2020/01/31 23:14:16.2	190.370	0.480	-0.810	1.420
2020/01/31 23:14:16.3	190.360	0.500	-0.830	1.410
2020/01/31 23:14:16.4	190.340	0.520	-0.850	1.410
2020/01/31 23:14:16.5	190.330	0.530	-0.870	1.400
2020/01/31 23:14:16.6	190.310	0.530	-0.880	1.400
2020/01/31 23:14:16.7	190.300	0.530	-0.890	1.400
2020/01/31 23:14:16.8	190.280	0.530	-0.890	1.400
2020/01/31 23:14:16.9	190.250	0.520	-0.900	1.410
2020/01/31 23:14:17.0	190.230	0.510	-0.900	1.420
2020/01/31 23:14:17.1	190.180	0.490	-0.890	1.430
2020/01/31 23:14:17.2	190.160	0.470	-0.880	1.440
2020/01/31 23:14:17.3	190.140	0.450	-0.870	1.450
2020/01/31 23:14:17.4	190.110	0.420	-0.850	1.460
2020/01/31 23:14:17.5	190.090	0.390	-0.830	1.480
2020/01/31 23:14:17.6	190.070	0.350	-0.810	1.490
2020/01/31 23:14:17.7	190.060	0.310	-0.780	1.500
2020/01/31 23:14:17.8	190.040	0.270	-0.740	1.510
2020/01/31 23:14:17.9	190.030	0.230	-0.710	1.530
2020/01/31 23:14:18.0	190.030	0.180	-0.660	1.540
2020/01/31 23:14:18.1	190.030	0.130	-0.610	1.540
2020/01/31 23:14:18.2	190.030	0.080	-0.560	1.550
2020/01/31 23:14:18.3	190.030	0.030	-0.510	1.560
2020/01/31 23:14:18.4	190.030	-0.030	-0.450	1.570
2020/01/31 23:14:18.5	190.040	-0.080	-0.390	1.580
2020/01/31 23:14:18.6	190.040	-0.130	-0.330	1.590
2020/01/31 23:14:18.7	190.050	-0.190	-0.270	1.600
2020/01/31 23:14:18.8	190.060	-0.240	-0.210	1.600
2020/01/31 23:14:18.9	190.070	-0.290	-0.140	1.610
2020/01/31 23:14:19.0	190.080	-0.340	-0.080	1.620
2020/01/31 23:14:19.1	190.090	-0.390	-0.020	1.620
2020/01/31 23:14:19.2	190.110	-0.430	0.030	1.630
2020/01/31 23:14:19.3	190.120	-0.480	0.090	1.640
2020/01/31 23:14:19.4	190.130	-0.510	0.140	1.640
2020/01/31 23:14:19.5	190.140	-0.550	0.180	1.650
2020/01/31 23:14:19.6	190.150	-0.580	0.220	1.660
2020/01/31 23:14:19.7	190.160	-0.610	0.260	1.660
2020/01/31 23:14:19.8	190.170	-0.630	0.290	1.670
2020/01/31 23:14:19.9	190.170	-0.650	0.320	1.680
2020/01/31 23:14:20.0	190.180	-0.660	0.340	1.680
2020/01/31 23:14:20.1	190.170	-0.660	0.350	1.690
2020/01/31 23:14:20.2	190.180	-0.660	0.360	1.690
2020/01/31 23:14:20.3	190.180	-0.660	0.360	1.700
2020/01/31 23:14:20.4	190.180	-0.650	0.350	1.700
2020/01/31 23:14:20.5	190.180	-0.630	0.340	1.700
2020/01/31 23:14:20.6	190.170	-0.610	0.320	1.700
2020/01/31 23:14:20.7	190.160	-0.580	0.300	1.710
2020/01/31 23:14:20.8	190.160	-0.550	0.270	1.700
2020/01/31 23:14:20.9	190.150	-0.510	0.230	1.700
2020/01/31 23:14:21.0	190.130	-0.470	0.190	1.700
2020/01/31 23:14:21.1	190.110	-0.420	0.150	1.700
2020/01/31 23:14:21.2	190.090	-0.370	0.100	1.690
2020/01/31 23:14:21.3	190.070	-0.310	0.040	1.690
2020/01/31 23:14:21.4	190.050	-0.250	-0.010	1.680
2020/01/31 23:14:21.5	190.020	-0.190	-0.070	1.680
2020/01/31 23:14:21.6	190.000	-0.120	-0.130	1.670
2020/01/31 23:14:21.7	189.980	-0.060	-0.190	1.660
2020/01/31 23:14:21.8	189.950	0.010	-0.250	1.640
2020/01/31 23:14:21.9	189.930	0.080	-0.310	1.630
2020/01/31 23:14:22.0	189.910	0.150	-0.360	1.610
2020/01/31 23:14:22.1	189.900	0.210	-0.420	1.590
2020/01/31 23:14:22.2	189.880	0.280	-0.460	1.570
2020/01/31 23:14:22.3	189.870	0.340	-0.510	1.540
2020/01/31 23:14:22.4	189.860	0.400	-0.540	1.520
2020/01/31 23:14:22.5	189.860	0.450	-0.570	1.490
2020/01/31 23:14:22.6	189.860	0.500	-0.600	1.460
2020/01/31 23:14:22.7	189.860	0.540	-0.610	1.430
2020/01/31 23:14:22.8	189.870	0.580	-0.620	1.400
2020/01/31 23:14:22.9	189.880	0.620	-0.620	1.370
2020/01/31 23:14:23.0	189.890	0.650	-0.610	1.340
2020/01/31 23:14:23.1	189.890	0.670	-0.590	1.300
2020/01/31 23:14:23.2	189.910	0.680	-0.570	1.270
2020/01/31 23:14:23.3	189.930	0.690	-0.540	1.240
2020/01/31 23:14:23.4	189.960	0.700	-0.500	1.210
2020/01/31 23:14:23.5	189.990	0.690	-0.450	1.180
2020/01/31 23:14:23.6	190.010	0.680	-0.390	1.150
2020/01/31 23:14:23.7	190.040	0.660	-0.340	1.110
2020/01/31 23:14:23.8	190.080	0.640	-0.270	1.080
2020/01/31 23:14:23.9	190.110	0.610	-0.210	1.050
2020/01/31 23:14:24.0	190.140	0.570	-0.140	1.030
2020/01/31 23:14:24.1	190.180	0.530	-0.060	0.990
2020/01/31 23:14:24.2	190.220	0.480	0.010	0.970
2020/01/31 23:14:24.3	190.250	0.430	0.080	0.950
2020/01/31 23:14:24.4	190.270	0.380	0.150	0.930
2020/01/31 23:14:24.5	190.300	0.320	0.210	0.910
2020/01/31 23:14:24.6	190.330	0.260	0.270	0.900
2020/01/31 23:14:24.7	190.350	0.200	0.330	0.890
2020/01/31 23:14:24.8	190.380	0.140	0.380	0.880
2020/01/31 23:14:24.9	190.400	0.080	0.420	0.870
2020/01/31 23:14:25.0	190.420	0.010	0.460	0.870
2020/01/31 23:14:25.1	190.410	-0.050	0.480	0.880
2020/01/31 23:14:25.2	190.430	-0.120	0.500	0.890
2020/01/31 23:14:25.3	190.440	-0.180	0.520	0.900
2020/01/31 23:14:25.4	190.450	-0.240	0.520	0.910
2020/01/31 23:14:25.5	190.460	-0.300	0.510	0.940
2020/01/31 23:14:25.6	190.460	-0.350	0.500	0.960
2020/01/31 23:14:25.7	190.460	-0.400	0.470	0.990
2020/01/31 23:14:25.8	190.470	-0.450	0.440	1.020
2020/01/31 23:14:25.9	190.460	-0.500	0.390	1.060
2020/01/31 23:14:26.0	190.460	-0.540	0.340	1.110
2020/01/31 23:14:26.1	190.460	-0.570	0.290	1.150
2020/01/31 23:14:26.2	190.450	-0.600	0.220	1.200
2020/01/31 23:14:26.3	190.440	-0.620	0.140	1.260
2020/01/31 23:14:26.4	190.430	-0.640	0.060	1.310
2020/01/31 23:14:26.5	190.410	-0.650	-0.030	1.370
2020/01/31 23:14:26.6	190.400	-0.660	-0.130	1.430
2020/01/31 23:14:26.7	190.380	-0.660	-0.230	1.490
2020/01/31 23:14:26.8	190.360	-0.660	-0.330	1.560
2020/01/31 23:14:26.9	190.330	-0.650	-0.430	1.620
2020/01/31 23:14:27.0	190.310	-0.640	-0.540	1.690
2020/01/31 23:14:27.1	190.290	-0.620	-0.650	1.760
2020/01/31 23:14:27.2	190.260	-0.590	-0.750	1.830
2020/01/31 23:14:27.3	190.230	-0.570	-0.850	1.900
2020/01/31 23:14:27.4	190.200	-0.530	-0.950	1.960
2020/01/31 23:14:27.5	190.160	-0.500	-1.040	2.030
2020/01/31 23:14:27.6	190.130	-0.460	-1.120	2.090
2020/01/31 23:14:27.7	190.090	-0.410	-1.210	2.160
2020/01/31 23:14:27.8	190.050	-0.370	-1.280	2.220
2020/01/31 23:14:27.9	190.010	-0.320	-1.340	2.280
2020/01/31 23:14:28.0	189.970	-0.270	-1.400	2.330
2020/01/31 23:14:28.1	189.940	-0.220	-1.450	2.390
2020/01/31 23:14:28.2	189.900	-0.160	-1.490	2.440
2020/01/31 23:14:28.3	189.860	-0.110	-1.520	2.480
2020/01/31 23:14:28.4	189.810	-0.050	-1.540	2.520
2020/01/31 23:14:28.5	189.770	-0.000	-1.550	2.560
2020/01/31 23:14:28.6	189.730	0.050	-1.550	2.590
2020/01/31 23:14:28.7	189.690	0.110	-1.540	2.610
2020/01/31 23:14:28.8	189.650	0.160	-1.520	2.630
2020/01/31 23:14:28.9	189.610	0.210	-1.490	2.640
2020/01/31 23:14:29.0	189.570	0.250	-1.460	2.650
2020/01/31 23:14:29.1	189.540	0.300	-1.410	2.650
2020/01/31 23:14:29.2	189.510	0.340	-1.350	2.640
2020/01/31 23:14:29.3	189.480	0.380	-1.290	2.620
2020/01/31 23:14:29.4	189.450	0.420	-1.220	2.600
2020/01/31 23:14:29.5	189.420	0.450	-1.140	2.570
2020/01/31 23:14:29.6	189.400	0.480	-1.060	2.540
2020/01/31 23:14:29.7	189.380	0.510	-0.970	2.500
2020/01/31 23:14:29.8	189.360	0.530	-0.880	2.460
2020/01/31 23:14:29.9	189.350	0.550	-0.780	2.400
2020/01/31 23:14:30.0	189.340	0.560	-0.680	2.350
2020/01/31 23:14:30.1	189.320	0.570	-0.580	2.280
2020/01/31 23:14:30.2	189.320	0.570	-0.480	2.210
2020/01/31 23:14:30.3	189.320	0.570	-0.370	2.140
2020/01/31 23:14:30.4	189.320	0.570	-0.270	2.070
2020/01/31 23:14:30.5	189.330	0.560	-0.160	2.000
2020/01/31 23:14:30.6	189.340	0.550	-0.060	1.920
2020/01/31 23:14:30.7	189.350	0.530	0.050	1.840
2020/01/31 23:14:30.8	189.370	0.510	0.150	1.760
2020/01/31 23:14:30.9	189.380	0.480	0.240	1.680
2020/01/31 23:14:31.0	189.400	0.450	0.340	1.600
2020/01/31 23:14:31.1	189.410	0.420	0.430	1.520
2020/01/31 23:14:31.2	189.430	0.380	0.510	1.440
2020/01/31 23:14:31.3	189.460	0.340	0.590	1.370
2020/01/31 23:14:31.4	189.490	0.300	0.670	1.300
2020/01/31 23:14:31.5	189.530	0.250	0.730	1.230
2020/01/31 23:14:31.6	189.560	0.200	0.800	1.170
2020/01/31 23:14:31.7	189.590	0.150	0.850	1.110
2020/01/31 23:14:31.8	189.630	0.100	0.900	1.050
2020/01/31 23:14:31.9	189.670	0.050	0.940	1.000
2020/01/31 23:14:32.0	189.710	-0.010	0.970	0.950
2020/01/31 23:14:32.1	189.740	-0.060	1.000	0.900
2020/01/31 23:14:32.2	189.780	-0.120	1.020	0.870
2020/01/31 23:14:32.3	189.820	-0.170	1.030	0.830
2020/01/31 23:14:32.4	189.860	-0.220	1.030	0.810
2020/01/31 23:14:32.5	189.900	-0.270	1.020	0.780
2020/01/31 23:14:32.6	189.940	-0.320	1.010	0.760
2020/01/31 23:14:32.7	189.970	-0.360	0.990	0.750
2020/01/31 23:14:32.8	190.010	-0.400	0.960	0.740
2020/01/31 23:14:32.9	190.040	-0.440	0.930	0.740
2020/01/31 23:14:33.0	190.070	-0.470	0.880	0.740
2020/01/31 23:14:33.1	190.080	-0.500	0.830	0.740
2020/01/31 23:14:33.2	190.110	-0.520	0.780	0.750
2020/01/31 23:14:33.3	190.130	-0.540	0.710	0.760
2020/01/31 23:14:33.4	190.150	-0.550	0.640	0.780
2020/01/31 23:14:33.5	190.160	-0.560	0.570	0.800
2020/01/31 23:14:33.6	190.170	-0.560	0.490	0.820
2020/01/31 23:14:33.7	190.180	-0.560	0.400	0.840
2020/01/31 23:14:33.8	190.180	-0.540	0.310	0.870
2020/01/31 23:14:33.9	190.180	-0.530	0.220	0.900
2020/01/31 23:14:34.0	190.180	-0.500	0.120	0.940
2020/01/31 23:14:34.1	190.180	-0.470	0.030	0.980
2020/01/31 23:14:34.2	190.170	-0.440	-0.070	1.020
2020/01/31 23:14:34.3	190.150	-0.400	-0.180	1.060
2020/01/31 23:14:34.4	190.130	-0.350	-0.280	1.110
2020/01/31 23:14:34.5	190.100	-0.300	-0.390	1.160
2020/01/31 23:14:34.6	190.070	-0.250	-0.490	1.210
2020/01/31 23:14:34.7	190.040	-0.190	-0.590	1.260
2020/01/31 23:14:34.8	190.000	-0.130	-0.690	1.310
2020/01/31 23:14:34.9	189.960	-0.070	-0.790	1.370
2020/01/31 23:14:35.0	189.920	-0.010	-0.880	1.420
2020/01/31 23:14:35.1	189.860	0.050	-0.970	1.490
2020/01/31 23:14:35.2	189.820	0.120	-1.050	1.540
2020/01/31 23:14:35.3	189.770	0.180	-1.120	1.600
2020/01/31 23:14:35.4	189.720	0.240	-1.190	1.660
2020/01/31 23:14:35.5	189.680	0.300	-1.250	1.710
2020/01/31 23:14:35.6	189.630	0.360	-1.300	1.770
2020/01/31 23:14:35.7	189.580	0.410	-1.340	1.820
2020/01/31 23:14:35.8	189.540	0.460	-1.370	1.880
2020/01/31 23:14:35.9	189.490	0.500	-1.390	1.930
2020/01/31 23:14:36.0	189.450	0.540	-1.400	1.980
2020/01/31 23:14:36.1	189.410	0.580	-1.410	2.030
2020/01/31 23:14:36.2	189.380	0.610	-1.400	2.070
2020/01/31 23:14:36.3	189.340	0.630	-1.380	2.110
2020/01/31 23:14:36.4	189.300	0.650	-1.350	2.150
2020/01/31 23:14:36.5	189.270	0.660	-1.310	2.190
2020/01/31 23:14:36.6	189.240	0.660	-1.270	2.220
2020/01/31 23:14:36.7	189.220	0.660	-1.210	2.240
2020/01/31 23:14:36.8	189.190	0.660	-1.150	2.260
2020/01/31 23:14:36.9	189.170	0.640	-1.080	2.280
2020/01/31 23:14:37.0	189.150	0.620	-1.000	2.290
2020/01/31 23:14:37.1	189.150	0.600	-0.910	2.300
2020/01/31 23:14:37.2	189.140	0.570	-0.820	2.300
2020/01/31 23:14:37.3	189.130	0.540	-0.730	2.300
2020/01/31 23:14:37.4	189.120	0.500	-0.630	2.300
2020/01/31 23:14:37.5	189.120	0.460	-0.530	2.280
2020/01/31 23:14:37.6	189.120	0.410	-0.430	2.270
2020/01/31 23:14:37.7	189.120	0.370	-0.320	2.250
2020/01/31 23:14:37.8	189.130	0.320	-0.220	2.220
2020/01/31 23:14:37.9	189.130	0.270	-0.120	2.190
2020/01/31 23:14:38.0	189.140	0.210	-0.010	2.150
2020/01/31 23:14:38.1	189.160	0.160	0.080	2.110
2020/01/31 23:14:38.2	189.180	0.110	0.180	2.070
2020/01/31 23:14:38.3	189.190	0.050	0.270	2.020
2020/01/31 23:14:38.4	189.210	0.000	0.360	1.970
2020/01/31 23:14:38.5	189.240	-0.050	0.440	1.920
2020/01/31 23:14:38.6	189.260	-0.100	0.520	1.860
2020/01/31 23:14:38.7	189.290	-0.150	0.590	1.810
2020/01/31 23:14:38.8	189.320	-0.190	0.660	1.750
2020/01/31 23:14:38.9	189.350	-0.230	0.720	1.690
2020/01/31 23:14:39.0	189.390	-0.270	0.770	1.620
2020/01/31 23:14:39.1	189.410	-0.300	0.810	1.560
2020/01/31 23:14:39.2	189.450	-0.330	0.850	1.490
2020/01/31 23:14:39.3	189.490	-0.360	0.870	1.430
2020/01/31 23:14:39.4	189.530	-0.380	0.890	1.360
2020/01/31 23:14:39.5	189.570	-0.400	0.890	1.300
2020/01/31 23:14:39.6	189.620	-0.410	0.890	1.240
2020/01/31 23:14:39.7	189.660	-0.420	0.880	1.170
2020/01/31 23:14:39.8	189.700	-0.420	0.860	1.110
2020/01/31 23:14:39.9	189.750	-0.420	0.830	1.060
2020/01/31 23:14:40.0	189.790	-0.420	0.790	1.000
2020/01/31 23:14:40.1	189.810	-0.410	0.740	0.940
2020/01/31 23:14:40.2	189.860	-0.390	0.690	0.890
2020/01/31 23:14:40.3	189.900	-0.370	0.630	0.850
2020/01/31 23:14:40.4	189.940	-0.350	0.560	0.800
2020/01/31 23:14:40.5	189.980	-0.320	0.480	0.760
2020/01/31 23:14:40.6	190.020	-0.280	0.400	0.720
2020/01/31 23:14:40.7	190.060	-0.250	0.310	0.690
2020/01/31 23:14:40.8	190.090	-0.210	0.210	0.660
2020/01/31 23:14:40.9	190.120	-0.170	0.110	0.630
2020/01/31 23:14:41.0	190.150	-0.120	0.010	0.610
2020/01/31 23:14:41.1	190.180	-0.070	-0.090	0.590
2020/01/31 23:14:41.2	190.200	-0.020	-0.200	0.580
2020/01/31 23:14:41.3	190.220	0.030	-0.310	0.570
2020/01/31 23:14:41.4	190.230	0.080	-0.430	0.560
2020/01/31 23:14:41.5	190.240	0.140	-0.540	0.560
2020/01/31 23:14:41.6	190.240	0.190	-0.650	0.560
2020/01/31 23:14:41.7	190.240	0.240	-0.760	0.570
2020/01/31 23:14:41.8	190.240	0.300	-0.870	0.580
2020/01/31 23:14:41.9	190.230	0.350	-0.980	0.600
2020/01/31 23:14:42.0	190.210	0.400	-1.090	0.620
2020/01/31 23:14:42.1	190.200	0.450	-1.190	0.650
2020/01/31 23:14:42.2	190.180	0.500	-1.290	0.680
2020/01/31 23:14:42.3	190.150	0.540	-1.380	0.710
2020/01/31 23:14:42.4	190.120	0.580	-1.460	0.750
2020/01/31 23:14:42.5	190.080	0.620	-1.540	0.790
2020/01/31 23:14:42.6	190.050	0.650	-1.620	0.830
2020/01/31 23:14:42.7	190.010	0.680	-1.680	0.880
2020/01/31 23:14:42.8	189.970	0.700	-1.730	0.930
2020/01/31 23:14:42.9	189.930	0.720	-1.780	0.990
2020/01/31 23:14:43.0	189.890	0.730	-1.810	1.050
2020/01/31 23:14:43.1	189.850	0.740	-1.840	1.110
2020/01/31 23:14:43.2	189.810	0.730	-1.850	1.180
2020/01/31 23:14:43.3	189.770	0.730	-1.850	1.250
2020/01/31 23:14:43.4	189.740	0.710	-1.840	1.320
2020/01/31 23:14:43.5	189.700	0.690	-1.820	1.400
2020/01/31 23:14:43.6	189.670	0.660	-1.780	1.470
2020/01/31 23:14:43.7	189.640	0.630	-1.730	1.550
2020/01/31 23:14:43.8	189.610	0.590	-1.670	1.630
2020/01/31 23:14:43.9	189.580	0.540	-1.600	1.700
2020/01/31 23:14:44.0	189.560	0.490	-1.520	1.780
2020/01/31 23:14:44.1	189.570	0.440	-1.420	1.860
2020/01/31 23:14:44.2	189.560	0.370	-1.320	1.930
2020/01/31 23:14:44.3	189.550	0.310	-1.200	1.990
2020/01/31 23:14:44.4	189.540	0.240	-1.080	2.050
2020/01/31 23:14:44.5	189.540	0.170	-0.950	2.110
2020/01/31 23:14:44.6	189.540	0.090	-0.810	2.160
2020/01/31 23:14:44.7	189.540	0.010	-0.670	2.210
2020/01/31 23:14:44.8	189.550	-0.070	-0.520	2.250
2020/01/31 23:14:44.9	189.560	-0.150	-0.370	2.280
2020/01/31 23:14:45.0	189.570	-0.220	-0.220	2.310
2020/01/31 23:14:45.1	189.590	-0.300	-0.080	2.330
2020/01/31 23:14:45.2	189.600	-0.380	0.070	2.350
2020/01/31 23:14:45.3	189.620	-0.460	0.220	2.360
2020/01/31 23:14:45.4	189.640	-0.530	0.360	2.370
2020/01/31 23:14:45.5	189.660	-0.600	0.490	2.380
2020/01/31 23:14:45.6	189.680	-0.670	0.610	2.390
2020/01/31 23:14:45.7	189.690	-0.730	0.730	2.390
2020/01/31 23:14:45.8	189.710	-0.790	0.830	2.400
2020/01/31 23:14:45.9	189.720	-0.840	0.920	2.400
2020/01/31 23:14:46.0	189.740	-0.890	1.000	2.400
2020/01/31 23:14:46.1	189.740	-0.930	1.070	2.410
2020/01/31 23:14:46.2	189.750	-0.960	1.120	2.410
2020/01/31 23:14:46.3	189.750	-0.980	1.160	2.410
2020/01/31 23:14:46.4	189.760	-1.000	1.180	2.420
2020/01/31 23:14:46.5	189.760	-1.010	1.190	2.430
2020/01/31 23:14:46.6	189.750	-1.020	1.180	2.430
2020/01/31 23:14:46.7	189.740	-1.010	1.160	2.440
2020/01/31 23:14:46.8	189.730	-1.000	1.120	2.450
2020/01/31 23:14:46.9	189.720	-0.980	1.070	2.460
2020/01/31 23:14:47.0	189.700	-0.960	1.010	2.470
2020/01/31 23:14:47.1	189.680	-0.930	0.940	2.480
2020/01/31 23:14:47.2	189.660	-0.890	0.860	2.490
2020/01/31 23:14:47.3	189.640	-0.850	0.770	2.490
2020/01/31 23:14:47.4	189.620	-0.800	0.680	2.500
2020/01/31 23:14:47.5	189.590	-0.750	0.580	2.490
2020/01/31 23:14:47.6	189.570	-0.690	0.470	2.490
2020/01/31 23:14:47.7	189.550	-0.640	0.370	2.480
2020/01/31 23:14:47.8	189.530	-0.580	0.270	2.470
2020/01/31 23:14:47.9	189.520	-0.520	0.160	2.450
2020/01/31 23:14:48.0	189.500	-0.450	0.070	2.430
2020/01/31 23:14:48.1	189.490	-0.390	-0.030	2.410
2020/01/31 23:14:48.2	189.480	-0.330	-0.120	2.380
2020/01/31 23:14:48.3	189.470	-0.270	-0.200	2.350
2020/01/31 23:14:48.4	189.460	-0.210	-0.280	2.310
2020/01/31 23:14:48.5	189.460	-0.150	-0.340	2.280
2020/01/31 23:14:48.6	189.460	-0.100	-0.400	2.240
2020/01/31 23:14:48.7	189.460	-0.040	-0.450	2.190
2020/01/31 23:14:48.8	189.470	0.000	-0.490	2.150
2020/01/31 23:14:48.9	189.480	0.050	-0.520	2.100
2020/01/31 23:14:49.0	189.490	0.090	-0.530	2.050
2020/01/31 23:14:49.1	189.510	0.130	-0.540	2.000
2020/01/31 23:14:49.2	189.530	0.170	-0.540	1.940
2020/01/31 23:14:49.3	189.550	0.200	-0.530	1.880
2020/01/31 23:14:49.4	189.580	0.230	-0.510	1.820
2020/01/31 23:14:49.5	189.600	0.250	-0.490	1.760
2020/01/31 23:14:49.6	189.630	0.280	-0.460	1.690
2020/01/31 23:14:49.7	189.650	0.290	-0.420	1.620
2020/01/31 23:14:49.8	189.680	0.310	-0.380	1.550
2020/01/31 23:14:49.9	189.710	0.320	-0.340	1.480
2020/01/31 23:14:50.0	189.740	0.330	-0.290	1.410
2020/01/31 23:14:50.1	189.770	0.340	-0.240	1.340
2020/01/31 23:14:50.2	189.790	0.350	-0.200	1.270
2020/01/31 23:14:50.3	189.820	0.350	-0.150	1.190
2020/01/31 23:14:50.4	189.840	0.350	-0.110	1.120
2020/01/31 23:14:50.5	189.860	0.350	-0.070	1.050
2020/01/31 23:14:50.6	189.880	0.360	-0.030	0.980
2020/01/31 23:14:50.7	189.900	0.360	-0.000	0.910
2020/01/31 23:14:50.8	189.920	0.360	0.020	0.850
2020/01/31 23:14:50.9	189.930	0.360	0.040	0.780
2020/01/31 23:14:51.0	189.950	0.360	0.060	0.720
2020/01/31 23:14:51.1	189.960	0.360	0.060	0.660
2020/01/31 23:14:51.2	189.970	0.360	0.060	0.600
2020/01/31 23:14:51.3	189.980	0.360	0.060	0.550
2020/01/31 23:14:51.4	189.980	0.370	0.040	0.510
2020/01/31 23:14:51.5	189.990	0.370	0.020	0.470
2020/01/31 23:14:51.6	189.990	0.370	-0.010	0.430
2020/01/31 23:14:51.7	190.000	0.380	-0.040	0.400
2020/01/31 23:14:51.8	190.000	0.380	-0.080	0.370
2020/01/31 23:14:51.9	190.000	0.390	-0.130	0.350
2020/01/31 23:14:52.0	190.000	0.400	-0.170	0.340
2020/01/31 23:14:52.1	190.010	0.400	-0.230	0.340
2020/01/31 23:14:52.2	190.020	0.410	-0.280	0.330
2020/01/31 23:14:52.3	190.020	0.410	-0.340	0.330
2020/01/31 23:14:52.4	190.020	0.410	-0.400	0.340
2020/01/31 23:14:52.5	190.020	0.420	-0.460	0.350
2020/01/31 23:14:52.6	190.020	0.420	-0.520	0.370
2020/01/31 23:14:52.7	190.020	0.420	-0.580	0.400
2020/01/31 23:14:52.8	190.020	0.420	-0.640	0.420
2020/01/31 23:14:52.9	190.020	0.420	-0.690	0.460
2020/01/31 23:14:53.0	190.020	0.420	-0.740	0.490
2020/01/31 23:14:53.1	190.020	0.410	-0.790	0.530
2020/01/31 23:14:53.2	190.020	0.400	-0.840	0.580
2020/01/31 23:14:53.3	190.010	0.400	-0.880	0.630
2020/01/31 23:14:53.4	190.010	0.390	-0.910	0.680
2020/01/31 23:14:53.5	190.000	0.370	-0.940	0.730
2020/01/31 23:14:53.6	189.990	0.360	-0.960	0.790
2020/01/31 23:14:53.7	189.990	0.340	-0.980	0.850
2020/01/31 23:14:53.8	189.980	0.320	-0.990	0.910
2020/01/31 23:14:53.9	189.970	0.310	-0.990	0.970
2020/01/31 23:14:54.0	189.960	0.280	-0.990	1.030
2020/01/31 23:14:54.1	189.960	0.260	-0.980	1.090
2020/01/31 23:14:54.2	189.950	0.240	-0.960	1.150
2020/01/31 23:14:54.3	189.940	0.210	-0.940	1.200
2020/01/31 23:14:54.4	189.940	0.180	-0.910	1.260
2020/01/31 23:14:54.5	189.940	0.160	-0.870	1.310
2020/01/31 23:14:54.6	189.930	0.130	-0.830	1.350
2020/01/31 23:14:54.7	189.930	0.100	-0.780	1.400
2020/01/31 23:14:54.8	189.930	0.070	-0.730	1.440
2020/01/31 23:14:54.9	189.940	0.040	-0.670	1.480
2020/01/31 23:14:55.0	189.940	0.010	-0.610	1.510
2020/01/31 23:14:55.1	189.950	-0.020	-0.540	1.550
2020/01/31 23:14:55.2	189.950	-0.040	-0.480	1.570
2020/01/31 23:14:55.3	189.960	-0.070	-0.410	1.600
2020/01/31 23:14:55.4	189.970	-0.100	-0.340	1.620
2020/01/31 23:14:55.5	189.970	-0.120	-0.270	1.640
2020/01/31 23:14:55.6	189.980	-0.150	-0.200	1.650
2020/01/31 23:14:55.7	189.990	-0.170	-0.130	1.660
2020/01/31 23:14:55.8	190.000	-0.190	-0.060	1.670
2020/01/31 23:14:55.9	190.010	-0.210	0.010	1.680
2020/01/31 23:14:56.0	190.020	-0.230	0.080	1.680
2020/01/31 23:14:56.1	190.020	-0.250	0.140	1.690
2020/01/31 23:14:56.2	190.030	-0.260	0.200	1.690
2020/01/31 23:14:56.3	190.040	-0.270	0.260	1.690
2020/01/31 23:14:56.4	190.050	-0.280	0.310	1.700
2020/01/31 23:14:56.5	190.060	-0.290	0.350	1.700
2020/01/31 23:14:56.6	190.070	-0.290	0.400	1.700
2020/01/31 23:14:56.7	190.080	-0.300	0.430	1.710
2020/01/31 23:14:56.8	190.090	-0.300	0.470	1.710
2020/01/31 23:14:56.9	190.100	-0.290	0.490	1.720
2020/01/31 23:14:57.0	190.100	-0.290	0.510	1.720
2020/01/31 23:14:57.1	190.120	-0.280	0.530	1.730
2020/01/31 23:14:57.2	190.120	-0.270	0.540	1.730
2020/01/31 23:14:57.3	190.130	-0.260	0.550	1.740
2020/01/31 23:14:57.4	190.140	-0.250	0.550	1.750
2020/01/31 23:14:57.5	190.140	-0.230	0.550	1.760
2020/01/31 23:14:57.6	190.150	-0.220	0.540	1.760
2020/01/31 23:14:57.7	190.150	-0.200	0.530	1.770
2020/01/31 23:14:57.8	190.150	-0.180	0.520	1.770
2020/01/31 23:14:57.9	190.150	-0.160	0.500	1.780
2020/01/31 23:14:58.0	190.150	-0.130	0.480	1.780
2020/01/31 23:14:58.1	190.160	-0.110	0.460	1.780
2020/01/31 23:14:58.2	190.150	-0.080	0.430	1.780
2020/01/31 23:14:58.3	190.150	-0.060	0.400	1.780
2020/01/31 23:14:58.4	190.150	-0.030	0.370	1.780
2020/01/31 23:14:58.5	190.140	-0.000	0.340	1.770
2020/01/31 23:14:58.6	190.140	0.020	0.300	1.760
2020/01/31 23:14:58.7	190.130	0.050	0.260	1.750
2020/01/31 23:14:58.8	190.120	0.080	0.220	1.740
2020/01/31 23:14:58.9	190.110	0.100	0.180	1.730
2020/01/31 23:14:59.0	190.100	0.130	0.130	1.720
2020/01/31 23:14:59.1	190.080	0.160	0.080	1.700
2020/01/31 23:14:59.2	190.070	0.180	0.030	1.690
2020/01/31 23:14:59.3	190.050	0.210	-0.010	1.670
2020/01/31 23:14:59.4	190.030	0.230	-0.060	1.660
2020/01/31 23:14:59.5	190.010	0.260	-0.110	1.640
2020/01/31 23:14:59.6	189.990	0.280	-0.160	1.630
2020/01/31 23:14:59.7	189.970	0.300	-0.210	1.610
2020/01/31 23:14:59.8	189.950	0.320	-0.260	1.600
2020/01/31 23:14:59.9	189.930	0.340	-0.310	1.590
2020/01/31 23:15:00.0	189.910	0.360	-0.360	1.580
2020/01/31 23:15:00.1	189.880	0.380	-0.410	1.570
2020/01/31 23:15:00.2	189.860	0.390	-0.450	1.560
2020/01/31 23:15:00.3	189.840	0.400	-0.500	1.550
2020/01/31 23:15:00.4	189.820	0.410	-0.540	1.550
2020/01/31 23:15:00.5	189.800	0.420	-0.580	1.540
2020/01/31 23:15:00.6	189.780	0.430	-0.620	1.540
2020/01/31 23:15:00.7	189.750	0.440	-0.660	1.530
2020/01/31 23:15:00.8	189.730	0.450	-0.690	1.530
2020/01/31 23:15:00.9	189.710	0.450	-0.730	1.520
2020/01/31 23:15:01.0	189.680	0.450	-0.760	1.520
2020/01/31 23:15:01.1	189.650	0.460	-0.790	1.520
2020/01/31 23:15:01.2	189.620	0.460	-0.820	1.510
2020/01/31 23:15:01.3	189.590	0.460	-0.850	1.510
2020/01/31 23:15:01.4	189.570	0.460	-0.870	1.510
2020/01/31 23:15:01.5	189.540	0.450	-0.900	1.500
2020/01/31 23:15:01.6	189.500	0.450	-0.920	1.500
2020/01/31 23:15:01.7	189.470	0.450	-0.940	1.500
2020/01/31 23:15:01.8	189.440	0.440	-0.960	1.490
2020/01/31 23:15:01.9	189.400	0.440	-0.980	1.490
2020/01/31 23:15:02.0	189.370	0.430	-1.000	1.480
2020/01/31 23:15:02.1	189.340	0.420	-1.010	1.480
2020/01/31 23:15:02.2	189.310	0.410	-1.020	1.470
2020/01/31 23:15:02.3	189.280	0.400	-1.030	1.470
2020/01/31 23:15:02.4	189.250	0.380	-1.040	1.460
2020/01/31 23:15:02.5	189.220	0.370	-1.040	1.460
2020/01/31 23:15:02.6	189.190	0.350	-1.040	1.450
2020/01/31 23:15:02.7	189.170	0.330	-1.030	1.450
2020/01/31 23:15:02.8	189.150	0.310	-1.030	1.440
2020/01/31 23:15:02.9	189.130	0.280	-1.020	1.440
2020/01/31 23:15:03.0	189.120	0.250	-1.000	1.440
2020/01/31 23:15:03.1	189.110	0.220	-0.980	1.430
2020/01/31 23:15:03.2	189.100	0.190	-0.960	1.430
2020/01/31 23:15:03.3	189.090	0.160	-0.930	1.430
2020/01/31 23:15:03.4	189.090	0.120	-0.910	1.430
2020/01/31 23:15:03.5	189.090	0.080	-0.880	1.430
2020/01/31 23:15:03.6	189.100	0.040	-0.840	1.430
2020/01/31 23:15:03.7	189.100	-0.000	-0.810	1.430
2020/01/31 23:15:03.8	189.110	-0.050	-0.770	1.440
2020/01/31 23:15:03.9	189.120	-0.090	-0.730	1.440
2020/01/31 23:15:04.0	189.140	-0.140	-0.690	1.440
2020/01/31 23:15:04.1	189.150	-0.190	-0.650	1.450
2020/01/31 23:15:04.2	189.160	-0.240	-0.610	1.450
2020/01/31 23:15:04.3	189.190	-0.290	-0.570	1.450
2020/01/31 23:15:04.4	189.210	-0.340	-0.530	1.450
2020/01/31 23:15:04.5	189.230	-0.400	-0.490	1.450
2020/01/31 23:15:04.6	189.260	-0.450	-0.450	1.460
2020/01/31 23:15:04.7	189.290	-0.500	-0.410	1.460
2020/01/31 23:15:04.8	189.320	-0.550	-0.370	1.460
2020/01/31 23:15:04.9	189.340	-0.600	-0.340	1.470
2020/01/31 23:15:05.0	189.370	-0.650	-0.310	1.470
2020/01/31 23:15:05.1	189.390	-0.700	-0.280	1.470
2020/01/31 23:15:05.2	189.420	-0.750	-0.250	1.480
2020/01/31 23:15:05.3	189.450	-0.790	-0.230	1.490
2020/01/31 23:15:05.4	189.470	-0.830	-0.210	1.500
2020/01/31 23:15:05.5	189.500	-0.870	-0.200	1.510
2020/01/31 23:15:05.6	189.520	-0.910	-0.190	1.520
2020/01/31 23:15:05.7	189.550	-0.940	-0.180	1.540
2020/01/31 23:15:05.8	189.570	-0.970	-0.180	1.550
2020/01/31 23:15:05.9	189.590	-1.000	-0.190	1.570
2020/01/31 23:15:06.0	189.610	-1.020	-0.190	1.590
2020/01/31 23:15:06.1	189.630	-1.040	-0.200	1.610
2020/01/31 23:15:06.2	189.650	-1.050	-0.220	1.630
2020/01/31 23:15:06.3	189.670	-1.060	-0.230	1.650
2020/01/31 23:15:06.4	189.690	-1.060	-0.250	1.670
2020/01/31 23:15:06.5	189.700	-1.060	-0.270	1.690
2020/01/31 23:15:06.6	189.710	-1.060	-0.290	1.710
2020/01/31 23:15:06.7	189.730	-1.050	-0.310	1.740
2020/01/31 23:15:06.8	189.740	-1.040	-0.340	1.760
2020/01/31 23:15:06.9	189.750	-1.020	-0.360	1.780
2020/01/31 23:15:07.0	189.760	-1.000	-0.380	1.810
2020/01/31 23:15:07.1	189.770	-0.970	-0.400	1.830
2020/01/31 23:15:07.2	189.780	-0.940	-0.410	1.860
2020/01/31 23:15:07.3	189.790	-0.910	-0.430	1.880
2020/01/31 23:15:07.4	189.790	-0.870	-0.440	1.900
2020/01/31 23:15:07.5	189.800	-0.830	-0.440	1.920
2020/01/31 23:15:07.6	189.800	-0.790	-0.440	1.940
2020/01/31 23:15:07.7	189.810	-0.740	-0.440	1.960
2020/01/31 23:15:07.8	189.810	-0.700	-0.430	1.970
2020/01/31 23:15:07.9	189.810	-0.650	-0.420	1.990
2020/01/31 23:15:08.0	189.810	-0.590	-0.400	2.000
2020/01/31 23:15:08.1	189.820	-0.540	-0.380	2.000
2020/01/31 23:15:08.2	189.820	-0.480	-0.340	2.010
2020/01/31 23:15:08.3	189.830	-0.430	-0.310	2.010
2020/01/31 23:15:08.4	189.830	-0.370	-0.270	2.010
2020/01/31 23:15:08.5	189.820	-0.310	-0.220	2.000
2020/01/31 23:15:08.6	189.820	-0.260	-0.170	1.990
2020/01/31 23:15:08.7	189.820	-0.200	-0.120	1.970
2020/01/31 23:15:08.8	189.820	-0.140	-0.060	1.950
2020/01/31 23:15:08.9	189.820	-0.090	0.000	1.930
2020/01/31 23:15:09.0	189.820	-0.030	0.060	1.910
2020/01/31 23:15:09.1	189.830	0.020	0.130	1.870
2020/01/31 23:15:09.2	189.830	0.080	0.200	1.840
2020/01/31 23:15:09.3	189.830	0.130	0.260	1.800
2020/01/31 23:15:09.4	189.820	0.180	0.330	1.760
2020/01/31 23:15:09.5	189.820	0.230	0.390	1.720
2020/01/31 23:15:09.6	189.820	0.280	0.450	1.680
2020/01/31 23:15:09.7	189.820	0.320	0.510	1.630
2020/01/31 23:15:09.8	189.810	0.360	0.570	1.580
2020/01/31 23:15:09.9	189.810	0.400	0.620	1.540
2020/01/31 23:15:10.0	189.800	0.440	0.670	1.490
2020/01/31 23:15:10.1	189.790	0.480	0.720	1.430
2020/01/31 23:15:10.2	189.790	0.510	0.760	1.390
2020/01/31 23:15:10.3	189.780	0.550	0.800	1.340
2020/01/31 23:15:10.4	189.780	0.580	0.830	1.290
2020/01/31 23:15:10.5	189.770	0.600	0.850	1.250
2020/01/31 23:15:10.6	189.760	0.630	0.870	1.200
2020/01/31 23:15:10.7	189.760	0.650	0.890	1.160
2020/01/31 23:15:10.8	189.750	0.660	0.900	1.120
2020/01/31 23:15:10.9	189.740	0.680	0.900	1.090
2020/01/31 23:15:11.0	189.730	0.690	0.910	1.060
2020/01/31 23:15:11.1	189.710	0.700	0.900	1.030
2020/01/31 23:15:11.2	189.710	0.710	0.890	1.010
2020/01/31 23:15:11.3	189.700	0.710	0.880	0.980
2020/01/31 23:15:11.4	189.690	0.710	0.860	0.970
2020/01/31 23:15:11.5	189.690	0.700	0.840	0.950
2020/01/31 23:15:11.6	189.690	0.690	0.820	0.940
2020/01/31 23:15:11.7	189.690	0.680	0.800	0.930
2020/01/31 23:15:11.8	189.690	0.670	0.770	0.930
2020/01/31 23:15:11.9	189.690	0.650	0.740	0.930
2020/01/31 23:15:12.0	189.690	0.630	0.710	0.930
2020/01/31 23:15:12.1	189.680	0.600	0.680	0.930
2020/01/31 23:15:12.2	189.690	0.570	0.650	0.940
2020/01/31 23:15:12.3	189.690	0.540	0.610	0.950
2020/01/31 23:15:12.4	189.700	0.510	0.580	0.970
2020/01/31 23:15:12.5	189.700	0.470	0.540	0.980
2020/01/31 23:15:12.6	189.710	0.440	0.500	1.000
2020/01/31 23:15:12.7	189.710	0.400	0.460	1.020
2020/01/31 23:15:12.8	189.720	0.360	0.420	1.050
2020/01/31 23:15:12.9	189.730	0.310	0.380	1.070
2020/01/31 23:15:13.0	189.740	0.270	0.330	1.100
2020/01/31 23:15:13.1	189.740	0.230	0.290	1.130
2020/01/31 23:15:13.2	189.740	0.180	0.240	1.160
2020/01/31 23:15:13.3	189.750	0.140	0.190	1.200
2020/01/31 23:15:13.4	189.750	0.100	0.130	1.230
2020/01/31 23:15:13.5	189.760	0.050	0.080	1.270
2020/01/31 23:15:13.6	189.760	0.010	0.020	1.310
2020/01/31 23:15:13.7	189.760	-0.020	-0.050	1.360
2020/01/31 23:15:13.8	189.760	-0.060	-0.110	1.410
2020/01/31 23:15:13.9	189.760	-0.090	-0.180	1.460
2020/01/31 23:15:14.0	189.760	-0.120	-0.250	1.520
2020/01/31 23:15:14.1	189.750	-0.150	-0.320	1.580
2020/01/31 23:15:14.2	189.740	-0.170	-0.400	1.640
2020/01/31 23:15:14.3	189.730	-0.190	-0.480	1.700
2020/01/31 23:15:14.4	189.720	-0.200	-0.560	1.760
2020/01/31 23:15:14.5	189.700	-0.210	-0.640	1.820
2020/01/31 23:15:14.6	189.690	-0.210	-0.720	1.880
2020/01/31 23:15:14.7	189.670	-0.210	-0.800	1.940
2020/01/31 23:15:14.8	189.650	-0.200	-0.880	2.000
2020/01/31 23:15:14.9	189.620	-0.180	-0.960	2.050
2020/01/31 23:15:15.0	189.600	-0.160	-1.040	2.100
2020/01/31 23:15:15.1	189.590	-0.130	-1.120	2.150
2020/01/31 23:15:15.2	189.560	-0.100	-1.190	2.200
2020/01/31 23:15:15.3	189.530	-0.070	-1.260	2.230
2020/01/31 23:15:15.4	189.500	-0.020	-1.330	2.270
2020/01/31 23:15:15.5	189.460	0.020	-1.400	2.290
2020/01/31 23:15:15.6	189.430	0.080	-1.460	2.310
2020/01/31 23:15:15.7	189.390	0.130	-1.510	2.320
2020/01/31 23:15:15.8	189.360	0.190	-1.560	2.320
2020/01/31 23:15:15.9	189.330	0.250	-1.600	2.320
2020/01/31 23:15:16.0	189.290	0.310	-1.630	2.310
2020/01/31 23:15:16.1	189.270	0.370	-1.670	2.290
2020/01/31 23:15:16.2	189.240	0.430	-1.680	2.270
2020/01/31 23:15:16.3	189.220	0.490	-1.690	2.240
2020/01/31 23:15:16.4	189.190	0.550	-1.700	2.200
2020/01/31 23:15:16.5	189.170	0.610	-1.690	2.160
2020/01/31 23:15:16.6	189.150	0.660	-1.680	2.110
2020/01/31 23:15:16.7	189.130	0.710	-1.660	2.060
2020/01/31 23:15:16.8	189.110	0.760	-1.630	2.000
2020/01/31 23:15:16.9	189.100	0.790	-1.590	1.950
2020/01/31 23:15:17.0	189.090	0.830	-1.550	1.890
2020/01/31 23:15:17.1	189.090	0.860	-1.490	1.820
2020/01/31 23:15:17.2	189.080	0.880	-1.430	1.760
2020/01/31 23:15:17.3	189.080	0.890	-1.370	1.690
2020/01/31 23:15:17.4	189.080	0.900	-1.300	1.630
2020/01/31 23:15:17.5	189.090	0.890	-1.230	1.570
2020/01/31 23:15:17.6	189.100	0.890	-1.160	1.500
2020/01/31 23:15:17.7	189.110	0.870	-1.080	1.440
2020/01/31 23:15:17.8	189.120	0.850	-1.000	1.380
2020/01/31 23:15:17.9	189.130	0.810	-0.920	1.310
2020/01/31 23:15:18.0	189.150	0.780	-0.840	1.250
2020/01/31 23:15:18.1	189.170	0.730	-0.770	1.190
2020/01/31 23:15:18.2	189.180	0.680	-0.690	1.130
2020/01/31 23:15:18.3	189.200	0.620	-0.610	1.080
2020/01/31 23:15:18.4	189.220	0.560	-0.530	1.020
2020/01/31 23:15:18.5	189.250	0.490	-0.460	0.970
2020/01/31 23:15:18.6	189.270	0.420	-0.390	0.930
2020/01/31 23:15:18.7	189.290	0.340	-0.320	0.880
2020/01/31 23:15:18.8	189.310	0.260	-0.260	0.840
2020/01/31 23:15:18.9	189.340	0.180	-0.200	0.800
2020/01/31 23:15:19.0	189.360	0.100	-0.150	0.770
2020/01/31 23:15:19.1	189.380	0.010	-0.100	0.730
2020/01/31 23:15:19.2	189.400	-0.070	-0.050	0.710
2020/01/31 23:15:19.3	189.420	-0.150	-0.010	0.690
2020/01/31 23:15:19.4	189.440	-0.240	0.020	0.670
2020/01/31 23:15:19.5	189.470	-0.320	0.050	0.660
2020/01/31 23:15:19.6	189.490	-0.400	0.070	0.650
2020/01/31 23:15:19.7	189.510	-0.470	0.090	0.640
2020/01/31 23:15:19.8	189.530	-0.550	0.100	0.640
2020/01/31 23:15:19.9	189.550	-0.610	0.110	0.650
2020/01/31 23:15:20.0	189.580	-0.680	0.110	0.650
2020/01/31 23:15:20.1	189.570	-0.740	0.120	0.660
2020/01/31 23:15:20.2	189.590	-0.790	0.110	0.670
2020/01/31 23:15:20.3	189.610	-0.840	0.100	0.690
2020/01/31 23:15:20.4	189.630	-0.880	0.090	0.710
2020/01/31 23:15:20.5	189.650	-0.910	0.070	0.730
2020/01/31 23:15:20.6	189.670	-0.940	0.050	0.760
2020/01/31 23:15:20.7	189.690	-0.960	0.030	0.780
2020/01/31 23:15:20.8	189.700	-0.970	0.010	0.810
2020/01/31 23:15:20.9	189.720	-0.980	-0.020	0.840
2020/01/31 23:15:21.0	189.730	-0.980	-0.050	0.870
2020/01/31 23:15:21.1	189.750	-0.970	-0.090	0.900
2020/01/31 23:15:21.2	189.760	-0.960	-0.120	0.940
2020/01/31 23:15:21.3	189.760	-0.940	-0.150	0.970
2020/01/31 23:15:21.4	189.770	-0.910	-0.190	1.010
2020/01/31 23:15:21.5	189.770	-0.880	-0.230	1.040
2020/01/31 23:15:21.6	189.760	-0.850	-0.270	1.080
2020/01/31 23:15:21.7	189.750	-0.800	-0.310	1.120
2020/01/31 23:15:21.8	189.740	-0.760	-0.350	1.160
2020/01/31 23:15:21.9	189.730	-0.710	-0.390	1.200
2020/01/31 23:15:22.0	189.710	-0.650	-0.430	1.240
2020/01/31 23:15:22.1	189.690	-0.600	-0.460	1.290
2020/01/31 23:15:22.2	189.670	-0.540	-0.500	1.330
2020/01/31 23:15:22.3	189.650	-0.480	-0.530	1.370
2020/01/31 23:15:22.4	189.620	-0.420	-0.560	1.410
2020/01/31 23:15:22.5	189.600	-0.360	-0.590	1.450
2020/01/31 23:15:22.6	189.570	-0.300	-0.610	1.490
2020/01/31 23:15:22.7	189.550	-0.240	-0.630	1.520
2020/01/31 23:15:22.8	189.520	-0.180	-0.650	1.560
2020/01/31 23:15:22.9	189.500	-0.130	-0.660	1.590
2020/01/31 23:15:23.0	189.480	-0.080	-0.660	1.620
2020/01/31 23:15:23.1	189.460	-0.030	-0.650	1.650
2020/01/31 23:15:23.2	189.450	0.010	-0.640	1.680
2020/01/31 23:15:23.3	189.430	0.050	-0.620	1.700
2020/01/31 23:15:23.4	189.410	0.080	-0.600	1.720
2020/01/31 23:15:23.5	189.400	0.100	-0.570	1.740
2020/01/31 23:15:23.6	189.390	0.120	-0.530	1.760
2020/01/31 23:15:23.7	189.380	0.140	-0.490	1.770
2020/01/31 23:15:23.8	189.380	0.140	-0.430	1.790
2020/01/31 23:15:23.9	189.380	0.140	-0.380	1.800
2020/01/31 23:15:24.0	189.380	0.140	-0.320	1.810
2020/01/31 23:15:24.1	189.390	0.130	-0.260	1.820
2020/01/31 23:15:24.2	189.390	0.110	-0.190	1.820
2020/01/31 23:15:24.3	189.400	0.090	-0.110	1.830
2020/01/31 23:15:24.4	189.410	0.060	-0.030	1.830
2020/01/31 23:15:24.5	189.420	0.030	0.050	1.840
2020/01/31 23:15:24.6	189.440	-0.000	0.130	1.840
2020/01/31 23:15:24.7	189.450	-0.040	0.210	1.840
2020/01/31 23:15:24.8	189.470	-0.080	0.290	1.840
2020/01/31 23:15:24.9	189.490	-0.130	0.370	1.840
2020/01/31 23:15:25.0	189.510	-0.170	0.450	1.830
2020/01/31 23:15:25.1	189.520	-0.220	0.530	1.820
2020/01/31 23:15:25.2	189.540	-0.270	0.600	1.820
2020/01/31 23:15:25.3	189.560	-0.320	0.670	1.810
2020/01/31 23:15:25.4	189.580	-0.360	0.730	1.800
2020/01/31 23:15:25.5	189.600	-0.410	0.780	1.790
2020/01/31 23:15:25.6	189.620	-0.450	0.830	1.780
2020/01/31 23:15:25.7	189.640	-0.480	0.870	1.770
2020/01/31 23:15:25.8	189.660	-0.520	0.900	1.760
2020/01/31 23:15:25.9	189.670	-0.550	0.920	1.740
2020/01/31 23:15:26.0	189.680	-0.570	0.940	1.730
2020/01/31 23:15:26.1	189.680	-0.590	0.930	1.720
2020/01/31 23:15:26.2	189.690	-0.600	0.930	1.700
2020/01/31 23:15:26.3	189.700	-0.610	0.910	1.680
2020/01/31 23:15:26.4	189.700	-0.610	0.880	1.670
2020/01/31 23:15:26.5	189.710	-0.600	0.850	1.650
2020/01/31 23:15:26.6	189.710	-0.590	0.810	1.630
2020/01/31 23:15:26.7	189.710	-0.570	0.760	1.620
2020/01/31 23:15:26.8	189.710	-0.550	0.700	1.600
2020/01/31 23:15:26.9	189.710	-0.520	0.640	1.580
2020/01/31 23:15:27.0	189.710	-0.480	0.570	1.560
2020/01/31 23:15:27.1	189.720	-0.440	0.500	1.540
2020/01/31 23:15:27.2	189.710	-0.400	0.420	1.520
2020/01/31 23:15:27.3	189.710	-0.350	0.340	1.500
2020/01/31 23:15:27.4	189.710	-0.300	0.260	1.490
2020/01/31 23:15:27.5	189.700	-0.250	0.180	1.480
2020/01/31 23:15:27.6	189.690	-0.190	0.100	1.460
2020/01/31 23:15:27.7	189.690	-0.130	0.020	1.450
2020/01/31 23:15:27.8	189.680	-0.080	-0.060	1.440
2020/01/31 23:15:27.9	189.670	-0.020	-0.140	1.430
2020/01/31 23:15:28.0	189.670	0.040	-0.210	1.420
2020/01/31 23:15:28.1	189.660	0.090	-0.290	1.420
2020/01/31 23:15:28.2	189.650	0.150	-0.350	1.410
2020/01/31 23:15:28.3	189.640	0.200	-0.410	1.410
2020/01/31 23:15:28.4	189.640	0.250	-0.460	1.400
2020/01/31 23:15:28.5	189.630	0.300	-0.510	1.400
2020/01/31 23:15:28.6	189.630	0.350	-0.550	1.390
2020/01/31 23:15:28.7	189.630	0.390	-0.580	1.390
2020/01/31 23:15:28.8	189.630	0.430	-0.610	1.380
2020/01/31 23:15:28.9	189.630	0.460	-0.630	1.370
2020/01/31 23:15:29.0	189.630	0.490	-0.650	1.370
2020/01/31 23:15:29.1	189.630	0.520	-0.650	1.360
2020/01/31 23:15:29.2	189.630	0.540	-0.660	1.350
2020/01/31 23:15:29.3	189.630	0.550	-0.650	1.340
2020/01/31 23:15:29.4	189.630	0.570	-0.650	1.320
2020/01/31 23:15:29.5	189.640	0.580	-0.630	1.310
2020/01/31 23:15:29.6	189.640	0.580	-0.620	1.290
2020/01/31 23:15:29.7	189.650	0.580	-0.600	1.280
2020/01/31 23:15:29.8	189.660	0.580	-0.570	1.260
2020/01/31 23:15:29.9	189.670	0.580	-0.540	1.240
2020/01/31 23:15:30.0	189.680	0.570	-0.510	1.220
2020/01/31 23:15:30.1	189.680	0.560	-0.490	1.190
2020/01/31 23:15:30.2	189.690	0.550	-0.450	1.170
2020/01/31 23:15:30.3	189.700	0.530	-0.420	1.140
2020/01/31 23:15:30.4	189.720	0.510	-0.380	1.120
2020/01/31 23:15:30.5	189.730	0.500	-0.350	1.100
2020/01/31 23:15:30.6	189.750	0.480	-0.310	1.070
2020/01/31 23:15:30.7	189.770	0.460	-0.280	1.050
2020/01/31 23:15:30.8	189.780	0.430	-0.250	1.030
2020/01/31 23:15:30.9	189.800	0.410	-0.220	1.000
2020/01/31 23:15:31.0	189.820	0.390	-0.190	0.980
2020/01/31 23:15:31.1	189.840	0.370	-0.170	0.960
2020/01/31 23:15:31.2	189.860	0.360	-0.150	0.950
2020/01/31 23:15:31.3	189.880	0.340	-0.130	0.940
2020/01/31 23:15:31.4	189.900	0.320	-0.120	0.930
2020/01/31 23:15:31.5	189.910	0.310	-0.110	0.920
2020/01/31 23:15:31.6	189.930	0.300	-0.100	0.910
2020/01/31 23:15:31.7	189.940	0.290	-0.100	0.910
2020/01/31 23:15:31.8	189.950	0.280	-0.110	0.900
2020/01/31 23:15:31.9	189.970	0.270	-0.110	0.900
2020/01/31 23:15:32.0	189.980	0.270	-0.130	0.900
2020/01/31 23:15:32.1	190.000	0.270	-0.140	0.910
2020/01/31 23:15:32.2	190.020	0.270	-0.160	0.910
2020/01/31 23:15:32.3	190.030	0.270	-0.180	0.910
2020/01/31 23:15:32.4	190.040	0.270	-0.200	0.910
2020/01/31 23:15:32.5	190.060	0.280	-0.230	0.920
2020/01/31 23:15:32.6	190.070	0.280	-0.260	0.920
2020/01/31 23:15:32.7	190.080	0.290	-0.280	0.930
2020/01/31 23:15:32.8	190.090	0.290	-0.310	0.940
2020/01/31 23:15:32.9	190.100	0.300	-0.340	0.950
2020/01/31 23:15:33.0	190.120	0.310	-0.370	0.960
2020/01/31 23:15:33.1	190.140	0.310	-0.400	0.960
2020/01/31 23:15:33.2	190.150	0.320	-0.430	0.980
2020/01/31 23:15:33.3	190.150	0.330	-0.460	0.990
2020/01/31 23:15:33.4	190.160	0.330	-0.490	1.010
2020/01/31 23:15:33.5	190.170	0.330	-0.510	1.020
2020/01/31 23:15:33.6	190.180	0.330	-0.540	1.040
2020/01/31 23:15:33.7	190.180	0.330	-0.560	1.060
2020/01/31 23:15:33.8	190.190	0.330	-0.580	1.080
2020/01/31 23:15:33.9	190.190	0.320	-0.600	1.100
2020/01/31 23:15:34.0	190.200	0.310	-0.610	1.120
2020/01/31 23:15:34.1	190.210	0.310	-0.630	1.150
2020/01/31 23:15:34.2	190.210	0.290	-0.640	1.170
2020/01/31 23:15:34.3	190.210	0.280	-0.650	1.190
2020/01/31 23:15:34.4	190.210	0.270	-0.660	1.210
2020/01/31 23:15:34.5	190.210	0.250	-0.670	1.230
2020/01/31 23:15:34.6	190.210	0.230	-0.670	1.250
2020/01/31 23:15:34.7	190.210	0.210	-0.670	1.270
2020/01/31 23:15:34.8	190.210	0.190	-0.680	1.290
2020/01/31 23:15:34.9	190.210	0.160	-0.680	1.300
2020/01/31 23:15:35.0	190.210	0.140	-0.680	1.320
2020/01/31 23:15:35.1	190.200	0.110	-0.680	1.340
2020/01/31 23:15:35.2	190.200	0.090	-0.680	1.360
2020/01/31 23:15:35.3	190.200	0.060	-0.670	1.370
2020/01/31 23:15:35.4	190.190	0.040	-0.670	1.390
2020/01/31 23:15:35.5	190.190	0.010	-0.660	1.410
2020/01/31 23:15:35.6	190.190	-0.010	-0.660	1.430
2020/01/31 23:15:35.7	190.180	-0.040	-0.650	1.440
2020/01/31 23:15:35.8	190.180	-0.060	-0.650	1.460
2020/01/31 23:15:35.9	190.170	-0.080	-0.640	1.480
2020/01/31 23:15:36.0	190.160	-0.100	-0.640	1.500
2020/01/31 23:15:36.1	190.160	-0.110	-0.630	1.520
2020/01/31 23:15:36.2	190.150	-0.130	-0.630	1.540
2020/01/31 23:15:36.3	190.140	-0.140	-0.620	1.550
2020/01/31 23:15:36.4	190.130	-0.150	-0.610	1.570
2020/01/31 23:15:36.5	190.120	-0.150	-0.610	1.590
2020/01/31 23:15:36.6	190.100	-0.160	-0.610	1.610
2020/01/31 23:15:36.7	190.090	-0.160	-0.600	1.630
2020/01/31 23:15:36.8	190.070	-0.160	-0.600	1.640
2020/01/31 23:15:36.9	190.050	-0.150	-0.600	1.660
2020/01/31 23:15:37.0	190.030	-0.140	-0.590	1.680
2020/01/31 23:15:37.1	189.990	-0.130	-0.590	1.700
2020/01/31 23:15:37.2	189.970	-0.120	-0.590	1.710
2020/01/31 23:15:37.3	189.940	-0.110	-0.580	1.720
2020/01/31 23:15:37.4	189.920	-0.100	-0.580	1.740
2020/01/31 23:15:37.5	189.900	-0.080	-0.570	1.750
2020/01/31 23:15:37.6	189.870	-0.070	-0.560	1.760
2020/01/31 23:15:37.7	189.850	-0.060	-0.550	1.770
2020/01/31 23:15:37.8	189.830	-0.050	-0.540	1.770
2020/01/31 23:15:37.9	189.820	-0.040	-0.530	1.770
2020/01/31 23:15:38.0	189.800	-0.030	-0.520	1.770
2020/01/31 23:15:38.1	189.770	-0.030	-0.500	1.770
2020/01/31 23:15:38.2	189.760	-0.030	-0.480	1.770
2020/01/31 23:15:38.3	189.750	-0.030	-0.460	1.760
2020/01/31 23:15:38.4	189.740	-0.030	-0.440	1.760
2020/01/31 23:15:38.5	189.740	-0.040	-0.420	1.750
2020/01/31 23:15:38.6	189.740	-0.060	-0.390	1.750
2020/01/31 23:15:38.7	189.730	-0.070	-0.360	1.750
2020/01/31 23:15:38.8	189.730	-0.090	-0.330	1.740
2020/01/31 23:15:38.9	189.730	-0.110	-0.300	1.740
2020/01/31 23:15:39.0	189.740	-0.140	-0.270	1.740
2020/01/31 23:15:39.1	189.740	-0.170	-0.240	1.730
2020/01/31 23:15:39.2	189.740	-0.200	-0.210	1.730
2020/01/31 23:15:39.3	189.740	-0.230	-0.180	1.730
2020/01/31 23:15:39.4	189.750	-0.270	-0.150	1.730
2020/01/31 23:15:39.5	189.750	-0.300	-0.110	1.730
2020/01/31 23:15:39.6	189.760	-0.340	-0.080	1.730
2020/01/31 23:15:39.7	189.760	-0.380	-0.060	1.730
2020/01/31 23:15:39.8	189.760	-0.420	-0.030	1.740
2020/01/31 23:15:39.9	189.770	-0.460	-0.000	1.740
2020/01/31 23:15:40.0	189.770	-0.500	0.020	1.740
2020/01/31 23:15:40.1	189.770	-0.530	0.040	1.750
2020/01/31 23:15:40.2	189.770	-0.570	0.060	1.750
2020/01/31 23:15:40.3	189.770	-0.600	0.080	1.750
2020/01/31 23:15:40.4	189.760	-0.630	0.090	1.760
2020/01/31 23:15:40.5	189.760	-0.660	0.100	1.760
2020/01/31 23:15:40.6	189.760	-0.680	0.110	1.760
2020/01/31 23:15:40.7	189.750	-0.700	0.120	1.760
2020/01/31 23:15:40.8	189.740	-0.710	0.120	1.760
2020/01/31 23:15:40.9	189.740	-0.720	0.120	1.760
2020/01/31 23:15:41.0	189.730	-0.720	0.120	1.760
2020/01/31 23:15:41.1	189.720	-0.720	0.110	1.750
2020/01/31 23:15:41.2	189.710	-0.720	0.110	1.750
2020/01/31 23:15:41.3	189.700	-0.710	0.100	1.740
2020/01/31 23:15:41.4	189.690	-0.690	0.090	1.730
2020/01/31 23:15:41.5	189.680	-0.670	0.080	1.710
2020/01/31 23:15:41.6	189.670	-0.640	0.060	1.690
2020/01/31 23:15:41.7	189.660	-0.610	0.050	1.680
2020/01/31 23:15:41.8	189.650	-0.570	0.030	1.660
2020/01/31 23:15:41.9	189.640	-0.540	0.020	1.630
2020/01/31 23:15:42.0	189.640	-0.490	0.000	1.610
2020/01/31 23:15:42.1	189.620	-0.450	-0.010	1.580
2020/01/31 23:15:42.2	189.620	-0.400	-0.020	1.550
2020/01/31 23:15:42.3	189.620	-0.350	-0.030	1.520
2020/01/31 23:15:42.4	189.620	-0.300	-0.040	1.480
2020/01/31 23:15:42.5	189.620	-0.250	-0.050	1.450
2020/01/31 23:15:42.6	189.620	-0.200	-0.060	1.420
2020/01/31 23:15:42.7	189.620	-0.150	-0.070	1.390
2020/01/31 23:15:42.8	189.630	-0.100	-0.070	1.360
2020/01/31 23:15:42.9	189.630	-0.050	-0.070	1.330
2020/01/31 23:15:43.0	189.640	-0.000	-0.070	1.290
2020/01/31 23:15:43.1	189.650	0.050	-0.070	1.260
2020/01/31 23:15:43.2	189.660	0.090	-0.060	1.230
2020/01/31 23:15:43.3	189.670	0.130	-0.060	1.210
2020/01/31 23:15:43.4	189.680	0.170	-0.050	1.180
2020/01/31 23:15:43.5	189.690	0.200	-0.040	1.150
2020/01/31 23:15:43.6	189.700	0.230	-0.030	1.120
2020/01/31 23:15:43.7	189.710	0.260	-0.020	1.100
2020/01/31 23:15:43.8	189.720	0.290	-0.010	1.070
2020/01/31 23:15:43.9	189.740	0.310	0.000	1.040
2020/01/31 23:15:44.0	189.750	0.320	0.020	1.020
2020/01/31 23:15:44.1	189.770	0.340	0.030	0.990
2020/01/31 23:15:44.2	189.780	0.350	0.040	0.970
2020/01/31 23:15:44.3	189.800	0.360	0.050	0.940
2020/01/31 23:15:44.4	189.810	0.360	0.070	0.910
2020/01/31 23:15:44.5	189.830	0.360	0.080	0.890
2020/01/31 23:15:44.6	189.850	0.360	0.090	0.860
2020/01/31 23:15:44.7	189.870	0.360	0.100	0.840
2020/01/31 23:15:44.8	189.880	0.350	0.110	0.810
2020/01/31 23:15:44.9	189.900	0.340	0.120	0.790
2020/01/31 23:15:45.0	189.920	0.330	0.130	0.770
2020/01/31 23:15:45.1	189.930	0.320	0.130	0.750
2020/01/31 23:15:45.2	189.950	0.300	0.130	0.730
2020/01/31 23:15:45.3	189.970	0.290	0.140	0.720
2020/01/31 23:15:45.4	189.980	0.270	0.140	0.710
2020/01/31 23:15:45.5	190.000	0.260	0.140	0.710
2020/01/31 23:15:45.6	190.010	0.240	0.140	0.710
2020/01/31 23:15:45.7	190.030	0.220	0.130	0.710
2020/01/31 23:15:45.8	190.040	0.210	0.120	0.720
2020/01/31 23:15:45.9	190.050	0.190	0.110	0.730
2020/01/31 23:15:46.0	190.060	0.180	0.100	0.740
2020/01/31 23:15:46.1	190.070	0.160	0.080	0.770
2020/01/31 23:15:46.2	190.070	0.150	0.060	0.790
2020/01/31 23:15:46.3	190.080	0.140	0.040	0.820
2020/01/31 23:15:46.4	190.080	0.130	0.010	0.850
2020/01/31 23:15:46.5	190.080	0.120	-0.020	0.890
2020/01/31 23:15:46.6	190.080	0.110	-0.060	0.930
2020/01/31 23:15:46.7	190.080	0.100	-0.090	0.970
2020/01/31 23:15:46.8	190.070	0.100	-0.130	1.020
2020/01/31 23:15:46.9	190.070	0.090	-0.180	1.070
2020/01/31 23:15:47.0	190.060	0.090	-0.220	1.120
2020/01/31 23:15:47.1	190.040	0.090	-0.270	1.170
2020/01/31 23:15:47.2	190.030	0.090	-0.310	1.220
2020/01/31 23:15:47.3	190.020	0.100	-0.360	1.270
2020/01/31 23:15:47.4	190.000	0.100	-0.410	1.320
2020/01/31 23:15:47.5	189.990	0.100	-0.450	1.370
2020/01/31 23:15:47.6	189.980	0.100	-0.500	1.430
2020/01/31 23:15:47.7	189.960	0.110	-0.540	1.480
2020/01/31 23:15:47.8	189.950	0.110	-0.580	1.530
2020/01/31 23:15:47.9	189.930	0.120	-0.610	1.580
2020/01/31 23:15:48.0	189.910	0.120	-0.640	1.630
2020/01/31 23:15:48.1	189.900	0.120	-0.670	1.680
2020/01/31 23:15:48.2	189.880	0.130	-0.700	1.720
2020/01/31 23:15:48.3	189.870	0.130	-0.720	1.770
2020/01/31 23:15:48.4	189.850	0.130	-0.730	1.810
2020/01/31 23:15:48.5	189.840	0.130	-0.750	1.850
2020/01/31 23:15:48.6	189.830	0.130	-0.750	1.890
2020/01/31 23:15:48.7	189.810	0.130	-0.760	1.930
2020/01/31 23:15:48.8	189.800	0.130	-0.760	1.960
2020/01/31 23:15:48.9	189.790	0.130	-0.750	1.980
2020/01/31 23:15:49.0	189.780	0.120	-0.740	2.010
2020/01/31 23:15:49.1	189.780	0.120	-0.740	2.030
2020/01/31 23:15:49.2	189.770	0.120	-0.720	2.050
2020/01/31 23:15:49.3	189.760	0.110	-0.700	2.060
2020/01/31 23:15:49.4	189.760	0.110	-0.680	2.060
2020/01/31 23:15:49.5	189.750	0.100	-0.660	2.060
2020/01/31 23:15:49.6	189.740	0.100	-0.630	2.060
2020/01/31 23:15:49.7	189.740	0.090	-0.600	2.050
2020/01/31 23:15:49.8	189.740	0.090	-0.570	2.040
2020/01/31 23:15:49.9	189.740	0.080	-0.540	2.030
2020/01/31 23:15:50.0	189.740	0.080	-0.510	2.010
2020/01/31 23:15:50.1	189.740	0.070	-0.470	1.980
2020/01/31 23:15:50.2	189.740	0.070	-0.430	1.950
2020/01/31 23:15:50.3	189.750	0.060	-0.400	1.930
2020/01/31 23:15:50.4	189.750	0.060	-0.370	1.900
2020/01/31 23:15:50.5	189.760	0.060	-0.340	1.860
2020/01/31 23:15:50.6	189.770	0.060	-0.310	1.830
2020/01/31 23:15:50.7	189.780	0.060	-0.280	1.790
2020/01/31 23:15:50.8	189.790	0.060	-0.250	1.750
2020/01/31 23:15:50.9	189.800	0.060	-0.220	1.720
2020/01/31 23:15:51.0	189.810	0.060	-0.200	1.680
2020/01/31 23:15:51.1	189.820	0.070	-0.180	1.630
2020/01/31 23:15:51.2	189.840	0.070	-0.160	1.590
2020/01/31 23:15:51.3	189.850	0.080	-0.150	1.550
2020/01/31 23:15:51.4	189.860	0.080	-0.140	1.510
2020/01/31 23:15:51.5	189.870	0.090	-0.130	1.470
2020/01/31 23:15:51.6	189.890	0.090	-0.120	1.440
2020/01/31 23:15:51.7	189.900	0.100	-0.120	1.400
2020/01/31 23:15:51.8	189.910	0.100	-0.120	1.360
2020/01/31 23:15:51.9	189.920	0.110	-0.120	1.330
2020/01/31 23:15:52.0	189.930	0.110	-0.130	1.290
2020/01/31 23:15:52.1	189.960	0.120	-0.140	1.260
2020/01/31 23:15:52.2	189.970	0.120	-0.150	1.230
2020/01/31 23:15:52.3	189.980	0.130	-0.170	1.200
2020/01/31 23:15:52.4	189.990	0.130	-0.190	1.170
2020/01/31 23:15:52.5	190.000	0.130	-0.210	1.140
2020/01/31 23:15:52.6	190.010	0.140	-0.230	1.110
2020/01/31 23:15:52.7	190.010	0.140	-0.260	1.090
2020/01/31 23:15:52.8	190.020	0.140	-0.280	1.060
2020/01/31 23:15:52.9	190.020	0.140	-0.310	1.040
2020/01/31 23:15:53.0	190.020	0.140	-0.340	1.020
2020/01/31 23:15:53.1	190.020	0.130	-0.370	1.000
2020/01/31 23:15:53.2	190.020	0.130	-0.390	0.990
2020/01/31 23:15:53.3	190.020	0.130	-0.420	0.990
2020/01/31 23:15:53.4	190.010	0.120	-0.450	0.980
2020/01/31 23:15:53.5	190.000	0.120	-0.480	0.990
2020/01/31 23:15:53.6	189.990	0.110	-0.510	0.990
2020/01/31 23:15:53.7	189.980	0.100	-0.530	1.000
2020/01/31 23:15:53.8	189.960	0.100	-0.560	1.020
2020/01/31 23:15:53.9	189.940	0.090	-0.580	1.040
2020/01/31 23:15:54.0	189.930	0.080	-0.600	1.060
2020/01/31 23:15:54.1	189.890	0.070	-0.620	1.090
2020/01/31 23:15:54.2	189.870	0.060	-0.640	1.120
2020/01/31 23:15:54.3	189.850	0.050	-0.650	1.160
2020/01/31 23:15:54.4	189.830	0.040	-0.660	1.190
2020/01/31 23:15:54.5	189.810	0.030	-0.670	1.230
2020/01/31 23:15:54.6	189.780	0.030	-0.680	1.270
2020/01/31 23:15:54.7	189.760	0.020	-0.680	1.310
2020/01/31 23:15:54.8	189.740	0.010	-0.680	1.350
2020/01/31 23:15:54.9	189.720	0.000	-0.680	1.380
2020/01/31 23:15:55.0	189.700	-0.010	-0.680	1.420
2020/01/31 23:15:55.1	189.700	-0.010	-0.670	1.460
2020/01/31 23:15:55.2	189.680	-0.020	-0.660	1.500
2020/01/31 23:15:55.3	189.660	-0.030	-0.640	1.530
2020/01/31 23:15:55.4	189.640	-0.030	-0.630	1.560
2020/01/31 23:15:55.5	189.620	-0.040	-0.610	1.600
2020/01/31 23:15:55.6	189.610	-0.050	-0.590	1.620
2020/01/31 23:15:55.7	189.590	-0.050	-0.570	1.650
2020/01/31 23:15:55.8	189.570	-0.060	-0.540	1.680
2020/01/31 23:15:55.9	189.550	-0.060	-0.520	1.700
2020/01/31 23:15:56.0	189.530	-0.060	-0.490	1.720
2020/01/31 23:15:56.1	189.520	-0.070	-0.460	1.740
2020/01/31 23:15:56.2	189.500	-0.070	-0.430	1.750
2020/01/31 23:15:56.3	189.490	-0.080	-0.400	1.770
2020/01/31 23:15:56.4	189.470	-0.080	-0.370	1.790
2020/01/31 23:15:56.5	189.450	-0.090	-0.330	1.800
2020/01/31 23:15:56.6	189.430	-0.090	-0.300	1.810
2020/01/31 23:15:56.7	189.420	-0.100	-0.270	1.820
2020/01/31 23:15:56.8	189.400	-0.100	-0.230	1.830
2020/01/31 23:15:56.9	189.390	-0.110	-0.200	1.840
2020/01/31 23:15:57.0	189.380	-0.120	-0.170	1.840
2020/01/31 23:15:57.1	189.350	-0.130	-0.130	1.840
2020/01/31 23:15:57.2	189.340	-0.130	-0.090	1.840
2020/01/31 23:15:57.3	189.340	-0.150	-0.060	1.840
2020/01/31 23:15:57.4	189.330	-0.160	-0.020	1.830
2020/01/31 23:15:57.5	189.330	-0.170	0.010	1.830
2020/01/31 23:15:57.6	189.330	-0.180	0.050	1.810
2020/01/31 23:15:57.7	189.330	-0.200	0.090	1.800
2020/01/31 23:15:57.8	189.340	-0.210	0.120	1.790
2020/01/31 23:15:57.9	189.350	-0.230	0.160	1.770
2020/01/31 23:15:58.0	189.360	-0.250	0.200	1.750
2020/01/31 23:15:58.1	189.360	-0.260	0.230	1.730
2020/01/31 23:15:58.2	189.380	-0.280	0.270	1.700
2020/01/31 23:15:58.3	189.390	-0.300	0.300	1.680
2020/01/31 23:15:58.4	189.410	-0.320	0.340	1.650
2020/01/31 23:15:58.5	189.430	-0.340	0.370	1.620
2020/01/31 23:15:58.6	189.460	-0.360	0.390	1.590
2020/01/31 23:15:58.7	189.480	-0.370	0.420	1.560
2020/01/31 23:15:58.8	189.510	-0.390	0.440	1.530
2020/01/31 23:15:58.9	189.530	-0.410	0.460	1.500
2020/01/31 23:15:59.0	189.560	-0.420	0.470	1.460
2020/01/31 23:15:59.1	189.590	-0.440	0.480	1.420
2020/01/31 23:15:59.2	189.620	-0.450	0.490	1.390
2020/01/31 23:15:59.3	189.650	-0.470	0.490	1.350
2020/01/31 23:15:59.4	189.680	-0.480	0.490	1.310
2020/01/31 23:15:59.5	189.710	-0.490	0.480	1.280
2020/01/31 23:15:59.6	189.740	-0.490	0.460	1.240
2020/01/31 23:15:59.7	189.770	-0.500	0.440	1.210
2020/01/31 23:15:59.8	189.800	-0.500	0.420	1.180
2020/01/31 23:15:59.9	189.820	-0.500	0.390	1.150
2020/01/31 23:16:00.0	189.850	-0.490	0.350	1.130
2020/01/31 23:16:00.1	189.870	-0.490	0.310	1.110
2020/01/31 23:16:00.2	189.890	-0.480	0.270	1.090
2020/01/31 23:16:00.3	189.900	-0.460	0.220	1.070
2020/01/31 23:16:00.4	189.920	-0.450	0.170	1.060
2020/01/31 23:16:00.5	189.920	-0.430	0.110	1.050
2020/01/31 23:16:00.6	189.930	-0.400	0.050	1.050
2020/01/31 23:16:00.7	189.930	-0.380	-0.010	1.050
2020/01/31 23:16:00.8	189.930	-0.350	-0.070	1.050
2020/01/31 23:16:00.9	189.920	-0.310	-0.140	1.060
2020/01/31 23:16:01.0	189.920	-0.280	-0.200	1.070
2020/01/31 23:16:01.1	189.920	-0.240	-0.260	1.080
2020/01/31 23:16:01.2	189.910	-0.200	-0.330	1.100
2020/01/31 23:16:01.3	189.890	-0.160	-0.390	1.110
2020/01/31 23:16:01.4	189.880	-0.110	-0.440	1.130
2020/01/31 23:16:01.5	189.870	-0.070	-0.500	1.150
2020/01/31 23:16:01.6	189.860	-0.020	-0.540	1.170
2020/01/31 23:16:01.7	189.840	0.030	-0.590	1.180
2020/01/31 23:16:01.8	189.830	0.070	-0.630	1.200
2020/01/31 23:16:01.9	189.820	0.120	-0.660	1.210
2020/01/31 23:16:02.0	189.800	0.160	-0.680	1.220
2020/01/31 23:16:02.1	189.790	0.210	-0.710	1.240
2020/01/31 23:16:02.2	189.780	0.250	-0.720	1.240
2020/01/31 23:16:02.3	189.770	0.290	-0.730	1.250
2020/01/31 23:16:02.4	189.760	0.330	-0.730	1.250
2020/01/31 23:16:02.5	189.750	0.370	-0.730	1.250
2020/01/31 23:16:02.6	189.750	0.400	-0.720	1.250
2020/01/31 23:16:02.7	189.740	0.440	-0.710	1.240
2020/01/31 23:16:02.8	189.740	0.460	-0.690	1.230
2020/01/31 23:16:02.9	189.740	0.490	-0.670	1.220
2020/01/31 23:16:03.0	189.740	0.510	-0.650	1.210
2020/01/31 23:16:03.1	189.740	0.530	-0.620	1.190
2020/01/31 23:16:03.2	189.750	0.540	-0.590	1.170
2020/01/31 23:16:03.3	189.750	0.550	-0.560	1.150
2020/01/31 23:16:03.4	189.750	0.560	-0.530	1.130
2020/01/31 23:16:03.5	189.760	0.560	-0.500	1.110
2020/01/31 23:16:03.6	189.760	0.560	-0.470	1.090
2020/01/31 23:16:03.7	189.770	0.560	-0.440	1.070
2020/01/31 23:16:03.8	189.780	0.550	-0.410	1.050
2020/01/31 23:16:03.9	189.780	0.540	-0.380	1.030
2020/01/31 23:16:04.0	189.790	0.520	-0.360	1.010
2020/01/31 23:16:04.1	189.800	0.510	-0.340	0.990
2020/01/31 23:16:04.2	189.800	0.490	-0.320	0.980
2020/01/31 23:16:04.3	189.810	0.470	-0.300	0.960
2020/01/31 23:16:04.4	189.810	0.450	-0.290	0.950
2020/01/31 23:16:04.5	189.820	0.420	-0.280	0.940
2020/01/31 23:16:04.6	189.820	0.390	-0.270	0.940
2020/01/31 23:16:04.7	189.830	0.370	-0.270	0.930
2020/01/31 23:16:04.8	189.830	0.340	-0.270	0.930
2020/01/31 23:16:04.9	189.840	0.310	-0.270	0.930
2020/01/31 23:16:05.0	189.840	0.280	-0.270	0.930
2020/01/31 23:16:05.1	189.850	0.240	-0.280	0.940
2020/01/31 23:16:05.2	189.860	0.210	-0.280	0.950
2020/01/31 23:16:05.3	189.860	0.180	-0.290	0.960
2020/01/31 23:16:05.4	189.870	0.150	-0.300	0.980
2020/01/31 23:16:05.5	189.870	0.110	-0.300	1.000
2020/01/31 23:16:05.6	189.880	0.080	-0.310	1.030
2020/01/31 23:16:05.7	189.880	0.050	-0.320	1.060
2020/01/31 23:16:05.8	189.880	0.020	-0.330	1.090
2020/01/31 23:16:05.9	189.880	-0.010	-0.340	1.130
2020/01/31 23:16:06.0	189.880	-0.040	-0.340	1.170
2020/01/31 23:16:06.1	189.860	-0.060	-0.350	1.220
2020/01/31 23:16:06.2	189.860	-0.090	-0.360	1.270
2020/01/31 23:16:06.3	189.850	-0.110	-0.360	1.310
2020/01/31 23:16:06.4	189.840	-0.130	-0.370	1.360
2020/01/31 23:16:06.5	189.830	-0.150	-0.370	1.410
2020/01/31 23:16:06.6	189.820	-0.170	-0.380	1.460
2020/01/31 23:16:06.7	189.800	-0.190	-0.380	1.510
2020/01/31 23:16:06.8	189.780	-0.200	-0.380	1.560
2020/01/31 23:16:06.9	189.760	-0.210	-0.380	1.610
2020/01/31 23:16:07.0	189.740	-0.220	-0.390	1.660
2020/01/31 23:16:07.1	189.730	-0.230	-0.390	1.710
2020/01/31 23:16:07.2	189.700	-0.240	-0.390	1.760
2020/01/31 23:16:07.3	189.680	-0.240	-0.390	1.810
2020/01/31 23:16:07.4	189.650	-0.240	-0.390	1.860
2020/01/31 23:16:07.5	189.620	-0.240	-0.390	1.910
2020/01/31 23:16:07.6	189.590	-0.240	-0.390	1.950
2020/01/31 23:16:07.7	189.560	-0.240	-0.390	1.990
2020/01/31 23:16:07.8	189.530	-0.240	-0.390	2.030
2020/01/31 23:16:07.9	189.510	-0.240	-0.380	2.060
2020/01/31 23:16:08.0	189.480	-0.230	-0.380	2.090
2020/01/31 23:16:08.1	189.470	-0.230	-0.380	2.120
2020/01/31 23:16:08.2	189.450	-0.220	-0.370	2.140
2020/01/31 23:16:08.3	189.440	-0.220	-0.360	2.150
2020/01/31 23:16:08.4	189.430	-0.210	-0.350	2.160
2020/01/31 23:16:08.5	189.420	-0.210	-0.340	2.160
2020/01/31 23:16:08.6	189.420	-0.200	-0.320	2.160
2020/01/31 23:16:08.7	189.420	-0.200	-0.310	2.150
2020/01/31 23:16:08.8	189.430	-0.190	-0.290	2.140
2020/01/31 23:16:08.9	189.440	-0.190	-0.270	2.120
2020/01/31 23:16:09.0	189.450	-0.180	-0.250	2.110
2020/01/31 23:16:09.1	189.460	-0.180	-0.230	2.080
2020/01/31 23:16:09.2	189.480	-0.170	-0.210	2.050
2020/01/31 23:16:09.3	189.500	-0.170	-0.180	2.030
2020/01/31 23:16:09.4	189.520	-0.170	-0.160	1.990
2020/01/31 23:16:09.5	189.540	-0.160	-0.130	1.960
2020/01/31 23:16:09.6	189.570	-0.160	-0.110	1.930
2020/01/31 23:16:09.7	189.590	-0.160	-0.080	1.890
2020/01/31 23:16:09.8	189.620	-0.150	-0.060	1.850
2020/01/31 23:16:09.9	189.650	-0.150	-0.030	1.810
2020/01/31 23:16:10.0	189.670	-0.150	-0.010	1.770
2020/01/31 23:16:10.1	189.710	-0.140	0.020	1.730
2020/01/31 23:16:10.2	189.740	-0.140	0.040	1.680
2020/01/31 23:16:10.3	189.770	-0.130	0.060	1.640
2020/01/31 23:16:10.4	189.790	-0.120	0.080	1.590
2020/01/31 23:16:10.5	189.820	-0.120	0.090	1.550
2020/01/31 23:16:10.6	189.840	-0.110	0.100	1.510
2020/01/31 23:16:10.7	189.860	-0.100	0.110	1.460
2020/01/31 23:16:10.8	189.880	-0.090	0.120	1.420
2020/01/31 23:16:10.9	189.900	-0.070	0.120	1.380
2020/01/31 23:16:11.0	189.920	-0.060	0.130	1.340
2020/01/31 23:16:11.1	189.940	-0.050	0.130	1.300
2020/01/31 23:16:11.2	189.950	-0.030	0.130	1.260
2020/01/31 23:16:11.3	189.960	-0.010	0.120	1.220
2020/01/31 23:16:11.4	189.970	0.000	0.110	1.190
2020/01/31 23:16:11.5	189.970	0.020	0.100	1.160
2020/01/31 23:16:11.6	189.980	0.040	0.080	1.140
2020/01/31 23:16:11.7	189.980	0.060	0.070	1.110
2020/01/31 23:16:11.8	189.980	0.080	0.050	1.090
2020/01/31 23:16:11.9	189.970	0.100	0.030	1.080
2020/01/31 23:16:12.0	189.970	0.120	0.010	1.060
2020/01/31 23:16:12.1	189.960	0.140	-0.020	1.050
2020/01/31 23:16:12.2	189.950	0.160	-0.040	1.040
2020/01/31 23:16:12.3	189.940	0.170	-0.070	1.040
2020/01/31 23:16:12.4	189.930	0.190	-0.100	1.040
2020/01/31 23:16:12.5	189.920	0.210	-0.130	1.030
2020/01/31 23:16:12.6	189.900	0.220	-0.160	1.030
2020/01/31 23:16:12.7	189.890	0.240	-0.200	1.030
2020/01/31 23:16:12.8	189.880	0.250	-0.230	1.030
2020/01/31 23:16:12.9	189.870	0.260	-0.270	1.030
2020/01/31 23:16:13.0	189.860	0.260	-0.300	1.030
2020/01/31 23:16:13.1	189.840	0.270	-0.330	1.020
2020/01/31 23:16:13.2	189.830	0.270	-0.370	1.020
2020/01/31 23:16:13.3	189.830	0.270	-0.400	1.020
2020/01/31 23:16:13.4	189.830	0.260	-0.430	1.030
2020/01/31 23:16:13.5	189.830	0.260	-0.460	1.030
2020/01/31 23:16:13.6	189.830	0.240	-0.490	1.040
2020/01/31 23:16:13.7	189.830	0.230	-0.520	1.050
2020/01/31 23:16:13.8	189.840	0.220	-0.540	1.070
2020/01/31 23:16:13.9	189.840	0.200	-0.570	1.090
2020/01/31 23:16:14.0	189.840	0.180	-0.590	1.110
2020/01/31 23:16:14.1	189.860	0.150	-0.620	1.140
2020/01/31 23:16:14.2	189.860	0.130	-0.640	1.170
2020/01/31 23:16:14.3	189.870	0.100	-0.660	1.210
2020/01/31 23:16:14.4	189.870	0.070	-0.680	1.250
2020/01/31 23:16:14.5	189.880	0.040	-0.690	1.290
2020/01/31 23:16:14.6	189.880	0.010	-0.710	1.340
2020/01/31 23:16:14.7	189.890	-0.020	-0.720	1.380
2020/01/31 23:16:14.8	189.900	-0.050	-0.720	1.430
2020/01/31 23:16:14.9	189.900	-0.080	-0.730	1.480
2020/01/31 23:16:15.0	189.910	-0.100	-0.730	1.530
2020/01/31 23:16:15.1	189.910	-0.130	-0.730	1.580
2020/01/31 23:16:15.2	189.910	-0.160	-0.730	1.620
2020/01/31 23:16:15.3	189.920	-0.180	-0.720	1.660
2020/01/31 23:16:15.4	189.930	-0.210	-0.710	1.710
2020/01/31 23:16:15.5	189.930	-0.230	-0.700	1.740
2020/01/31 23:16:15.6	189.940	-0.240	-0.680	1.780
2020/01/31 23:16:15.7	189.950	-0.260	-0.660	1.810
2020/01/31 23:16:15.8	189.950	-0.270	-0.630	1.830
2020/01/31 23:16:15.9	189.960	-0.280	-0.600	1.850
2020/01/31 23:16:16.0	189.960	-0.280	-0.570	1.870
2020/01/31 23:16:16.1	189.970	-0.290	-0.540	1.890
2020/01/31 23:16:16.2	189.980	-0.290	-0.510	1.890
2020/01/31 23:16:16.3	189.980	-0.280	-0.470	1.900
2020/01/31 23:16:16.4	189.990	-0.280	-0.440	1.900
2020/01/31 23:16:16.5	189.990	-0.270	-0.400	1.900
2020/01/31 23:16:16.6	190.000	-0.260	-0.360	1.890
2020/01/31 23:16:16.7	190.000	-0.250	-0.320	1.880
2020/01/31 23:16:16.8	190.010	-0.240	-0.280	1.870
2020/01/31 23:16:16.9	190.010	-0.220	-0.250	1.850
2020/01/31 23:16:17.0	190.010	-0.210	-0.210	1.840
2020/01/31 23:16:17.1	190.010	-0.190	-0.180	1.820
2020/01/31 23:16:17.2	190.010	-0.170	-0.140	1.800
2020/01/31 23:16:17.3	190.010	-0.160	-0.110	1.780
2020/01/31 23:16:17.4	190.020	-0.140	-0.080	1.760
2020/01/31 23:16:17.5	190.020	-0.120	-0.060	1.740
2020/01/31 23:16:17.6	190.020	-0.100	-0.030	1.720
2020/01/31 23:16:17.7	190.020	-0.090	-0.020	1.710
2020/01/31 23:16:17.8	190.020	-0.070	0.000	1.690
2020/01/31 23:16:17.9	190.020	-0.050	0.010	1.670
2020/01/31 23:16:18.0	190.020	-0.040	0.020	1.650
2020/01/31 23:16:18.1	190.030	-0.030	0.030	1.630
2020/01/31 23:16:18.2	190.030	-0.020	0.040	1.620
2020/01/31 23:16:18.3	190.030	-0.010	0.040	1.600
2020/01/31 23:16:18.4	190.030	-0.000	0.040	1.580
2020/01/31 23:16:18.5	190.040	0.000	0.030	1.570
2020/01/31 23:16:18.6	190.040	0.010	0.030	1.550
2020/01/31 23:16:18.7	190.040	0.010	0.020	1.530
2020/01/31 23:16:18.8	190.040	0.010	0.010	1.510
2020/01/31 23:16:18.9	190.040	0.010	-0.010	1.500
2020/01/31 23:16:19.0	190.040	0.000	-0.020	1.480
2020/01/31 23:16:19.1	190.060	-0.000	-0.040	1.460
2020/01/31 23:16:19.2	190.060	-0.010	-0.050	1.440
2020/01/31 23:16:19.3	190.060	-0.020	-0.070	1.420
2020/01/31 23:16:19.4	190.050	-0.030	-0.080	1.410
2020/01/31 23:16:19.5	190.050	-0.040	-0.100	1.390
2020/01/31 23:16:19.6	190.050	-0.060	-0.120	1.380
2020/01/31 23:16:19.7	190.040	-0.070	-0.140	1.360
2020/01/31 23:16:19.8	190.040	-0.080	-0.150	1.350
2020/01/31 23:16:19.9	190.030	-0.100	-0.170	1.350
2020/01/31 23:16:20.0	190.030	-0.110	-0.180	1.340
2020/01/31 23:16:20.1	190.000	-0.130	-0.200	1.330
2020/01/31 23:16:20.2	189.990	-0.150	-0.210	1.330
2020/01/31 23:16:20.3	189.990	-0.160	-0.220	1.340
2020/01/31 23:16:20.4	189.980	-0.180	-0.230	1.340
2020/01/31 23:16:20.5	189.980	-0.190	-0.230	1.350
2020/01/31 23:16:20.6	189.970	-0.200	-0.240	1.360
2020/01/31 23:16:20.7	189.960	-0.220	-0.240	1.370
2020/01/31 23:16:20.8	189.960	-0.230	-0.240	1.380
2020/01/31 23:16:20.9	189.960	-0.240	-0.240	1.390
2020/01/31 23:16:21.0	189.960	-0.250	-0.230	1.400
2020/01/31 23:16:21.1	189.950	-0.260	-0.220	1.420
2020/01/31 23:16:21.2	189.960	-0.260	-0.210	1.430
2020/01/31 23:16:21.3	189.960	-0.270	-0.200	1.450
2020/01/31 23:16:21.4	189.960	-0.270	-0.190	1.470
2020/01/31 23:16:21.5	189.970	-0.270	-0.170	1.480
2020/01/31 23:16:21.6	189.980	-0.270	-0.150	1.500
2020/01/31 23:16:21.7	189.980	-0.270	-0.140	1.510
2020/01/31 23:16:21.8	189.990	-0.260	-0.120	1.520
2020/01/31 23:16:21.9	190.000	-0.260	-0.100	1.530
2020/01/31 23:16:22.0	190.010	-0.250	-0.080	1.550
2020/01/31 23:16:22.1	190.020	-0.240	-0.060	1.550
2020/01/31 23:16:22.2	190.030	-0.220	-0.040	1.560
2020/01/31 23:16:22.3	190.030	-0.210	-0.030	1.560
2020/01/31 23:16:22.4	190.040	-0.190	-0.010	1.560
2020/01/31 23:16:22.5	190.050	-0.170	0.010	1.560
2020/01/31 23:16:22.6	190.050	-0.140	0.020	1.560
2020/01/31 23:16:22.7	190.060	-0.120	0.030	1.550
2020/01/31 23:16:22.8	190.060	-0.090	0.040	1.550
2020/01/31 23:16:22.9	190.060	-0.060	0.050	1.540
2020/01/31 23:16:23.0	190.060	-0.030	0.050	1.530
2020/01/31 23:16:23.1	190.070	0.000	0.060	1.520
2020/01/31 23:16:23.2	190.070	0.040	0.050	1.510
2020/01/31 23:16:23.3	190.060	0.070	0.050	1.500
2020/01/31 23:16:23.4	190.060	0.110	0.040	1.490
2020/01/31 23:16:23.5	190.050	0.150	0.020	1.470
2020/01/31 23:16:23.6	190.050	0.190	0.010	1.460
2020/01/31 23:16:23.7	190.040	0.230	-0.010	1.440
2020/01/31 23:16:23.8	190.030	0.260	-0.030	1.430
2020/01/31 23:16:23.9	190.020	0.300	-0.060	1.410
2020/01/31 23:16:24.0	190.010	0.340	-0.080	1.390
2020/01/31 23:16:24.1	189.990	0.380	-0.110	1.380
2020/01/31 23:16:24.2	189.980	0.410	-0.140	1.360
2020/01/31 23:16:24.3	189.970	0.450	-0.180	1.350
2020/01/31 23:16:24.4	189.960	0.480	-0.210	1.330
2020/01/31 23:16:24.5	189.940	0.510	-0.250	1.320
2020/01/31 23:16:24.6	189.930	0.530	-0.280	1.310
2020/01/31 23:16:24.7	189.920	0.560	-0.320	1.300
2020/01/31 23:16:24.8	189.910	0.580	-0.350	1.290
2020/01/31 23:16:24.9	189.890	0.590	-0.390	1.290
2020/01/31 23:16:25.0	189.880	0.610	-0.420	1.280
2020/01/31 23:16:25.1	189.850	0.610	-0.450	1.280
2020/01/31 23:16:25.2	189.840	0.620	-0.480	1.270
2020/01/31 23:16:25.3	189.830	0.620	-0.510	1.270
2020/01/31 23:16:25.4	189.820	0.610	-0.530	1.270
2020/01/31 23:16:25.5	189.810	0.610	-0.550	1.270
2020/01/31 23:16:25.6	189.800	0.590	-0.570	1.270
2020/01/31 23:16:25.7	189.790	0.580	-0.590	1.270
2020/01/31 23:16:25.8	189.790	0.560	-0.600	1.280
2020/01/31 23:16:25.9	189.780	0.530	-0.610	1.280
2020/01/31 23:16:26.0	189.780	0.510	-0.620	1.280
2020/01/31 23:16:26.1	189.770	0.470	-0.620	1.280
2020/01/31 23:16:26.2	189.770	0.440	-0.630	1.280
2020/01/31 23:16:26.3	189.770	0.400	-0.630	1.290
2020/01/31 23:16:26.4	189.770	0.360	-0.620	1.290
2020/01/31 23:16:26.5	189.770	0.310	-0.620	1.300
2020/01/31 23:16:26.6	189.780	0.270	-0.610	1.300
2020/01/31 23:16:26.7	189.780	0.220	-0.610	1.310
2020/01/31 23:16:26.8	189.780	0.170	-0.600	1.320
2020/01/31 23:16:26.9	189.780	0.120	-0.590	1.330
2020/01/31 23:16:27.0	189.780	0.070	-0.580	1.340
2020/01/31 23:16:27.1	189.770	0.020	-0.570	1.350
2020/01/31 23:16:27.2	189.780	-0.030	-0.560	1.370
2020/01/31 23:16:27.3	189.780	-0.090	-0.550	1.380
2020/01/31 23:16:27.4	189.780	-0.140	-0.530	1.400
2020/01/31 23:16:27.5	189.780	-0.190	-0.520	1.420
2020/01/31 23:16:27.6	189.780	-0.230	-0.510	1.440
2020/01/31 23:16:27.7	189.780	-0.280	-0.490	1.460
2020/01/31 23:16:27.8	189.780	-0.320	-0.480	1.490
2020/01/31 23:16:27.9	189.780	-0.370	-0.460	1.510
2020/01/31 23:16:28.0	189.790	-0.410	-0.450	1.540
2020/01/31 23:16:28.1	189.790	-0.440	-0.430	1.560
2020/01/31 23:16:28.2	189.790	-0.470	-0.410	1.590
2020/01/31 23:16:28.3	189.800	-0.500	-0.400	1.610
2020/01/31 23:16:28.4	189.800	-0.530	-0.380	1.630
2020/01/31 23:16:28.5	189.810	-0.550	-0.360	1.650
2020/01/31 23:16:28.6	189.820	-0.570	-0.340	1.670
2020/01/31 23:16:28.7	189.820	-0.580	-0.320	1.690
2020/01/31 23:16:28.8	189.830	-0.590	-0.310	1.700
2020/01/31 23:16:28.9	189.840	-0.600	-0.290	1.720
2020/01/31 23:16:29.0	189.850	-0.600	-0.270	1.730
2020/01/31 23:16:29.1	189.860	-0.590	-0.250	1.740
2020/01/31 23:16:29.2	189.870	-0.580	-0.230	1.740
2020/01/31 23:16:29.3	189.880	-0.570	-0.210	1.740
2020/01/31 23:16:29.4	189.890	-0.560	-0.200	1.740
2020/01/31 23:16:29.5	189.900	-0.540	-0.180	1.740
2020/01/31 23:16:29.6	189.910	-0.510	-0.160	1.730
2020/01/31 23:16:29.7	189.920	-0.490	-0.140	1.720
2020/01/31 23:16:29.8	189.930	-0.460	-0.130	1.710
2020/01/31 23:16:29.9	189.940	-0.420	-0.120	1.700
2020/01/31 23:16:30.0	189.950	-0.390	-0.100	1.680
2020/01/31 23:16:30.1	189.970	-0.350	-0.090	1.660
2020/01/31 23:16:30.2	189.980	-0.310	-0.080	1.640
2020/01/31 23:16:30.3	189.980	-0.270	-0.070	1.610
2020/01/31 23:16:30.4	189.990	-0.230	-0.060	1.590
2020/01/31 23:16:30.5	189.990	-0.190	-0.060	1.560
2020/01/31 23:16:30.6	190.000	-0.150	-0.060	1.530
2020/01/31 23:16:30.7	190.000	-0.110	-0.060	1.500
2020/01/31 23:16:30.8	190.000	-0.060	-0.060	1.470
2020/01/31 23:16:30.9	190.010	-0.020	-0.060	1.440
2020/01/31 23:16:31.0	190.010	0.020	-0.060	1.410
2020/01/31 23:16:31.1	190.020	0.060	-0.070	1.380
2020/01/31 23:16:31.2	190.020	0.090	-0.080	1.350
2020/01/31 23:16:31.3	190.010	0.130	-0.090	1.330
2020/01/31 23:16:31.4	190.010	0.160	-0.100	1.300
2020/01/31 23:16:31.5	190.010	0.190	-0.110	1.290
2020/01/31 23:16:31.6	190.000	0.220	-0.120	1.270
2020/01/31 23:16:31.7	189.990	0.240	-0.130	1.250
2020/01/31 23:16:31.8	189.990	0.260	-0.140	1.240
2020/01/31 23:16:31.9	189.980	0.280	-0.150	1.230
2020/01/31 23:16:32.0	189.960	0.300	-0.170	1.230
2020/01/31 23:16:32.1	189.960	0.310	-0.180	1.220
2020/01/31 23:16:32.2	189.940	0.330	-0.190	1.220
2020/01/31 23:16:32.3	189.930	0.330	-0.200	1.220
2020/01/31 23:16:32.4	189.920	0.340	-0.220	1.220
2020/01/31 23:16:32.5	189.900	0.340	-0.230	1.210
2020/01/31 23:16:32.6	189.890	0.340	-0.240	1.210
2020/01/31 23:16:32.7	189.870	0.340	-0.260	1.210
2020/01/31 23:16:32.8	189.860	0.340	-0.270	1.210
2020/01/31 23:16:32.9	189.850	0.330	-0.280	1.210
2020/01/31 23:16:33.0	189.840	0.320	-0.280	1.210
2020/01/31 23:16:33.1	189.820	0.310	-0.290	1.200
2020/01/31 23:16:33.2	189.810	0.300	-0.290	1.200
2020/01/31 23:16:33.3	189.800	0.280	-0.290	1.190
2020/01/31 23:16:33.4	189.790	0.270	-0.290	1.190
2020/01/31 23:16:33.5	189.790	0.250	-0.290	1.180
2020/01/31 23:16:33.6	189.780	0.230	-0.280	1.180
2020/01/31 23:16:33.7	189.780	0.210	-0.280	1.170
2020/01/31 23:16:33.8	189.770	0.180	-0.270	1.170
2020/01/31 23:16:33.9	189.770	0.160	-0.260	1.170
2020/01/31 23:16:34.0	189.770	0.130	-0.250	1.160
2020/01/31 23:16:34.1	189.780	0.100	-0.240	1.160
2020/01/31 23:16:34.2	189.780	0.080	-0.230	1.160
2020/01/31 23:16:34.3	189.780	0.050	-0.210	1.170
2020/01/31 23:16:34.4	189.780	0.020	-0.200	1.170
2020/01/31 23:16:34.5	189.780	-0.010	-0.190	1.180
2020/01/31 23:16:34.6	189.780	-0.040	-0.170	1.190
2020/01/31 23:16:34.7	189.790	-0.070	-0.160	1.210
2020/01/31 23:16:34.8	189.790	-0.100	-0.150	1.230
2020/01/31 23:16:34.9	189.800	-0.130	-0.140	1.250
2020/01/31 23:16:35.0	189.800	-0.160	-0.140	1.270
2020/01/31 23:16:35.1	189.800	-0.180	-0.130	1.290
2020/01/31 23:16:35.2	189.810	-0.210	-0.130	1.320
2020/01/31 23:16:35.3	189.820	-0.240	-0.130	1.350
2020/01/31 23:16:35.4	189.830	-0.260	-0.140	1.380
2020/01/31 23:16:35.5	189.840	-0.280	-0.140	1.420
2020/01/31 23:16:35.6	189.850	-0.300	-0.160	1.450
2020/01/31 23:16:35.7	189.860	-0.320	-0.170	1.480
2020/01/31 23:16:35.8	189.870	-0.340	-0.190	1.520
2020/01/31 23:16:35.9	189.880	-0.350	-0.210	1.550
2020/01/31 23:16:36.0	189.890	-0.370	-0.230	1.590
2020/01/31 23:16:36.1	189.890	-0.380	-0.260	1.620
2020/01/31 23:16:36.2	189.900	-0.380	-0.280	1.650
2020/01/31 23:16:36.3	189.910	-0.390	-0.310	1.690
2020/01/31 23:16:36.4	189.910	-0.390	-0.350	1.720
2020/01/31 23:16:36.5	189.920	-0.390	-0.380	1.750
2020/01/31 23:16:36.6	189.920	-0.390	-0.420	1.780
2020/01/31 23:16:36.7	189.920	-0.390	-0.450	1.810
2020/01/31 23:16:36.8	189.910	-0.380	-0.490	1.840
2020/01/31 23:16:36.9	189.910	-0.370	-0.530	1.870
2020/01/31 23:16:37.0	189.900	-0.350	-0.560	1.900
2020/01/31 23:16:37.1	189.870	-0.340	-0.600	1.930
2020/01/31 23:16:37.2	189.860	-0.320	-0.630	1.960
2020/01/31 23:16:37.3	189.840	-0.300	-0.660	1.980
2020/01/31 23:16:37.4	189.820	-0.280	-0.690	2.010
2020/01/31 23:16:37.5	189.790	-0.260	-0.720	2.040
2020/01/31 23:16:37.6	189.770	-0.230	-0.750	2.060
2020/01/31 23:16:37.7	189.740	-0.200	-0.770	2.090
2020/01/31 23:16:37.8	189.710	-0.180	-0.790	2.110
2020/01/31 23:16:37.9	189.670	-0.150	-0.810	2.130
2020/01/31 23:16:38.0	189.640	-0.120	-0.820	2.150
2020/01/31 23:16:38.1	189.610	-0.090	-0.830	2.170
2020/01/31 23:16:38.2	189.570	-0.060	-0.830	2.190
2020/01/31 23:16:38.3	189.540	-0.030	-0.830	2.210
2020/01/31 23:16:38.4	189.510	-0.010	-0.820	2.220
2020/01/31 23:16:38.5	189.470	0.020	-0.810	2.230
2020/01/31 23:16:38.6	189.440	0.050	-0.790	2.230
2020/01/31 23:16:38.7	189.410	0.070	-0.770	2.240
2020/01/31 23:16:38.8	189.380	0.090	-0.740	2.240
2020/01/31 23:16:38.9	189.360	0.110	-0.700	2.240
2020/01/31 23:16:39.0	189.330	0.120	-0.660	2.230
2020/01/31 23:16:39.1	189.320	0.140	-0.620	2.220
2020/01/31 23:16:39.2	189.300	0.150	-0.570	2.210
2020/01/31 23:16:39.3	189.280	0.150	-0.520	2.200
2020/01/31 23:16:39.4	189.270	0.160	-0.470	2.180
2020/01/31 23:16:39.5	189.250	0.160	-0.410	2.160
2020/01/31 23:16:39.6	189.250	0.160	-0.350	2.140
2020/01/31 23:16:39.7	189.240	0.160	-0.290	2.110
2020/01/31 23:16:39.8	189.240	0.150	-0.230	2.080
2020/01/31 23:16:39.9	189.250	0.140	-0.160	2.050
2020/01/31 23:16:40.0	189.250	0.130	-0.090	2.010
2020/01/31 23:16:40.1	189.260	0.120	-0.030	1.970
2020/01/31 23:16:40.2	189.280	0.100	0.030	1.920
2020/01/31 23:16:40.3	189.300	0.080	0.100	1.870
2020/01/31 23:16:40.4	189.320	0.060	0.170	1.820
2020/01/31 23:16:40.5	189.350	0.040	0.230	1.760
2020/01/31 23:16:40.6	189.380	0.020	0.290	1.700
2020/01/31 23:16:40.7	189.410	-0.000	0.350	1.640
2020/01/31 23:16:40.8	189.440	-0.020	0.400	1.580
2020/01/31 23:16:40.9	189.480	-0.050	0.450	1.520
2020/01/31 23:16:41.0	189.520	-0.070	0.490	1.460
2020/01/31 23:16:41.1	189.550	-0.090	0.540	1.390
2020/01/31 23:16:41.2	189.580	-0.110	0.570	1.330
2020/01/31 23:16:41.3	189.620	-0.130	0.600	1.270
2020/01/31 23:16:41.4	189.660	-0.140	0.620	1.210
2020/01/31 23:16:41.5	189.690	-0.160	0.630	1.160
2020/01/31 23:16:41.6	189.720	-0.170	0.630	1.110
2020/01/31 23:16:41.7	189.750	-0.180	0.630	1.060
2020/01/31 23:16:41.8	189.780	-0.190	0.620	1.020
2020/01/31 23:16:41.9	189.800	-0.190	0.600	0.980
2020/01/31 23:16:42.0	189.830	-0.190	0.570	0.950
2020/01/31 23:16:42.1	189.850	-0.190	0.530	0.930
2020/01/31 23:16:42.2	189.860	-0.180	0.490	0.910
2020/01/31 23:16:42.3	189.870	-0.170	0.440	0.900
2020/01/31 23:16:42.4	189.880	-0.160	0.380	0.900
2020/01/31 23:16:42.5	189.880	-0.150	0.310	0.900
2020/01/31 23:16:42.6	189.880	-0.130	0.250	0.900
2020/01/31 23:16:42.7	189.870	-0.110	0.170	0.910
2020/01/31 23:16:42.8	189.860	-0.080	0.090	0.930
2020/01/31 23:16:42.9	189.850	-0.060	0.020	0.950
2020/01/31 23:16:43.0	189.840	-0.030	-0.060	0.970
2020/01/31 23:16:43.1	189.820	0.000	-0.150	0.990
2020/01/31 23:16:43.2	189.790	0.030	-0.230	1.020
2020/01/31 23:16:43.3	189.770	0.070	-0.300	1.040
2020/01/31 23:16:43.4	189.750	0.100	-0.380	1.070
2020/01/31 23:16:43.5	189.720	0.130	-0.450	1.100
2020/01/31 23:16:43.6	189.690	0.170	-0.520	1.130
2020/01/31 23:16:43.7	189.670	0.200	-0.580	1.160
2020/01/31 23:16:43.8	189.640	0.230	-0.630	1.190
2020/01/31 23:16:43.9	189.610	0.260	-0.670	1.220
2020/01/31 23:16:44.0	189.580	0.290	-0.710	1.250
2020/01/31 23:16:44.1	189.570	0.320	-0.740	1.280
2020/01/31 23:16:44.2	189.540	0.340	-0.760	1.310
2020/01/31 23:16:44.3	189.520	0.360	-0.770	1.330
2020/01/31 23:16:44.4	189.500	0.380	-0.770	1.360
2020/01/31 23:16:44.5	189.490	0.400	-0.770	1.380
2020/01/31 23:16:44.6	189.470	0.410	-0.750	1.400
2020/01/31 23:16:44.7	189.460	0.420	-0.730	1.420
2020/01/31 23:16:44.8	189.450	0.420	-0.700	1.440
2020/01/31 23:16:44.9	189.450	0.430	-0.660	1.460
2020/01/31 23:16:45.0	189.450	0.430	-0.620	1.470
2020/01/31 23:16:45.1	189.450	0.420	-0.580	1.480
2020/01/31 23:16:45.2	189.460	0.410	-0.520	1.490
2020/01/31 23:16:45.3	189.460	0.400	-0.470	1.500
2020/01/31 23:16:45.4	189.470	0.390	-0.410	1.500
2020/01/31 23:16:45.5	189.480	0.370	-0.350	1.500
2020/01/31 23:16:45.6	189.500	0.350	-0.290	1.500
2020/01/31 23:16:45.7	189.510	0.330	-0.220	1.490
2020/01/31 23:16:45.8	189.530	0.310	-0.160	1.480
2020/01/31 23:16:45.9	189.550	0.280	-0.100	1.470
2020/01/31 23:16:46.0	189.570	0.260	-0.050	1.460
2020/01/31 23:16:46.1	189.600	0.230	0.010	1.440
2020/01/31 23:16:46.2	189.620	0.200	0.060	1.430
2020/01/31 23:16:46.3	189.650	0.170	0.110	1.410
2020/01/31 23:16:46.4	189.670	0.140	0.150	1.390
2020/01/31 23:16:46.5	189.700	0.110	0.190	1.370
2020/01/31 23:16:46.6	189.730	0.080	0.220	1.340
2020/01/31 23:16:46.7	189.760	0.050	0.250	1.320
2020/01/31 23:16:46.8	189.790	0.020	0.270	1.290
2020/01/31 23:16:46.9	189.820	-0.000	0.290	1.270
2020/01/31 23:16:47.0	189.850	-0.030	0.300	1.240
2020/01/31 23:16:47.1	189.870	-0.050	0.300	1.220
2020/01/31 23:16:47.2	189.900	-0.070	0.300	1.190
2020/01/31 23:16:47.3	189.930	-0.090	0.290	1.170
2020/01/31 23:16:47.4	189.950	-0.110	0.280	1.150
2020/01/31 23:16:47.5	189.980	-0.120	0.260	1.130
2020/01/31 23:16:47.6	190.010	-0.140	0.240	1.110
2020/01/31 23:16:47.7	190.030	-0.140	0.210	1.090
2020/01/31 23:16:47.8	190.050	-0.150	0.180	1.080
2020/01/31 23:16:47.9	190.070	-0.160	0.140	1.070
2020/01/31 23:16:48.0	190.090	-0.160	0.100	1.060
2020/01/31 23:16:48.1	190.090	-0.150	0.050	1.050
2020/01/31 23:16:48.2	190.100	-0.150	-0.000	1.050
2020/01/31 23:16:48.3	190.100	-0.140	-0.060	1.060
2020/01/31 23:16:48.4	190.110	-0.130	-0.120	1.070
2020/01/31 23:16:48.5	190.110	-0.120	-0.190	1.080
2020/01/31 23:16:48.6	190.110	-0.100	-0.260	1.090
2020/01/31 23:16:48.7	190.100	-0.080	-0.330	1.110
2020/01/31 23:16:48.8	190.090	-0.060	-0.400	1.130
2020/01/31 23:16:48.9	190.070	-0.030	-0.480	1.160
2020/01/31 23:16:49.0	190.060	-0.010	-0.550	1.190
2020/01/31 23:16:49.1	190.050	0.020	-0.630	1.220
2020/01/31 23:16:49.2	190.020	0.050	-0.710	1.250
2020/01/31 23:16:49.3	189.990	0.090	-0.790	1.290
2020/01/31 23:16:49.4	189.960	0.120	-0.860	1.320
2020/01/31 23:16:49.5	189.930	0.160	-0.940	1.350
2020/01/31 23:16:49.6	189.900	0.190	-1.010	1.380
2020/01/31 23:16:49.7	189.860	0.230	-1.080	1.410
2020/01/31 23:16:49.8	189.820	0.260	-1.150	1.440
2020/01/31 23:16:49.9	189.790	0.300	-1.210	1.460
2020/01/31 23:16:50.0	189.750	0.330	-1.270	1.490
2020/01/31 23:16:50.1	189.700	0.360	-1.330	1.500
2020/01/31 23:16:50.2	189.660	0.390	-1.370	1.520
2020/01/31 23:16:50.3	189.630	0.420	-1.410	1.540
2020/01/31 23:16:50.4	189.590	0.440	-1.440	1.560
2020/01/31 23:16:50.5	189.560	0.460	-1.460	1.570
2020/01/31 23:16:50.6	189.520	0.480	-1.470	1.580
2020/01/31 23:16:50.7	189.490	0.480	-1.480	1.590
2020/01/31 23:16:50.8	189.470	0.490	-1.470	1.600
2020/01/31 23:16:50.9	189.440	0.490	-1.460	1.600
2020/01/31 23:16:51.0	189.420	0.480	-1.440	1.610
2020/01/31 23:16:51.1	189.410	0.470	-1.400	1.610
2020/01/31 23:16:51.2	189.400	0.450	-1.360	1.610
2020/01/31 23:16:51.3	189.390	0.420	-1.310	1.610
2020/01/31 23:16:51.4	189.380	0.390	-1.250	1.610
2020/01/31 23:16:51.5	189.380	0.360	-1.190	1.610
2020/01/31 23:16:51.6	189.380	0.310	-1.120	1.610
2020/01/31 23:16:51.7	189.380	0.270	-1.040	1.610
2020/01/31 23:16:51.8	189.390	0.210	-0.950	1.600
2020/01/31 23:16:51.9	189.410	0.160	-0.860	1.600
2020/01/31 23:16:52.0	189.430	0.100	-0.770	1.590
2020/01/31 23:16:52.1	189.440	0.030	-0.670	1.580
2020/01/31 23:16:52.2	189.470	-0.040	-0.570	1.570
2020/01/31 23:16:52.3	189.500	-0.110	-0.470	1.570
2020/01/31 23:16:52.4	189.530	-0.180	-0.360	1.560
2020/01/31 23:16:52.5	189.570	-0.250	-0.250	1.550
2020/01/31 23:16:52.6	189.600	-0.330	-0.150	1.540
2020/01/31 23:16:52.7	189.640	-0.400	-0.040	1.530
2020/01/31 23:16:52.8	189.690	-0.480	0.060	1.530
2020/01/31 23:16:52.9	189.730	-0.550	0.160	1.520
2020/01/31 23:16:53.0	189.780	-0.620	0.260	1.510
2020/01/31 23:16:53.1	189.820	-0.690	0.350	1.500
2020/01/31 23:16:53.2	189.860	-0.750	0.440	1.490
2020/01/31 23:16:53.3	189.910	-0.810	0.520	1.490
2020/01/31 23:16:53.4	189.950	-0.870	0.590	1.480
2020/01/31 23:16:53.5	189.990	-0.920	0.650	1.480
2020/01/31 23:16:53.6	190.030	-0.960	0.700	1.470
2020/01/31 23:16:53.7	190.060	-1.000	0.740	1.470
2020/01/31 23:16:53.8	190.090	-1.030	0.770	1.470
2020/01/31 23:16:53.9	190.120	-1.050	0.790	1.470
2020/01/31 23:16:54.0	190.140	-1.070	0.800	1.480
2020/01/31 23:16:54.1	190.160	-1.070	0.790	1.480
2020/01/31 23:16:54.2	190.180	-1.070	0.780	1.490
2020/01/31 23:16:54.3	190.190	-1.060	0.750	1.500
2020/01/31 23:16:54.4	190.200	-1.040	0.720	1.510
2020/01/31 23:16:54.5	190.200	-1.020	0.670	1.510
2020/01/31 23:16:54.6	190.200	-0.980	0.620	1.530
2020/01/31 23:16:54.7	190.200	-0.940	0.550	1.540
2020/01/31 23:16:54.8	190.190	-0.900	0.480	1.550
2020/01/31 23:16:54.9	190.190	-0.850	0.410	1.560
2020/01/31 23:16:55.0	190.180	-0.790	0.330	1.580
2020/01/31 23:16:55.1	190.160	-0.730	0.240	1.590
2020/01/31 23:16:55.2	190.140	-0.660	0.150	1.610
2020/01/31 23:16:55.3	190.130	-0.590	0.060	1.630
2020/01/31 23:16:55.4	190.110	-0.510	-0.030	1.650
2020/01/31 23:16:55.5	190.090	-0.440	-0.120	1.670
2020/01/31 23:16:55.6	190.060	-0.360	-0.210	1.690
2020/01/31 23:16:55.7	190.040	-0.280	-0.300	1.710
2020/01/31 23:16:55.8	190.020	-0.200	-0.390	1.730
2020/01/31 23:16:55.9	189.990	-0.120	-0.470	1.750
2020/01/31 23:16:56.0	189.970	-0.050	-0.540	1.770
2020/01/31 23:16:56.1	189.940	0.030	-0.610	1.790
2020/01/31 23:16:56.2	189.910	0.100	-0.680	1.800
2020/01/31 23:16:56.3	189.890	0.170	-0.730	1.810
2020/01/31 23:16:56.4	189.870	0.230	-0.780	1.820
2020/01/31 23:16:56.5	189.850	0.290	-0.810	1.830
2020/01/31 23:16:56.6	189.840	0.350	-0.840	1.830
2020/01/31 23:16:56.7	189.820	0.400	-0.860	1.830
2020/01/31 23:16:56.8	189.810	0.450	-0.870	1.830
2020/01/31 23:16:56.9	189.800	0.490	-0.870	1.820
2020/01/31 23:16:57.0	189.790	0.520	-0.860	1.800
2020/01/31 23:16:57.1	189.790	0.550	-0.840	1.790
2020/01/31 23:16:57.2	189.780	0.570	-0.810	1.760
2020/01/31 23:16:57.3	189.790	0.580	-0.770	1.740
2020/01/31 23:16:57.4	189.790	0.590	-0.720	1.710
2020/01/31 23:16:57.5	189.800	0.590	-0.660	1.680
2020/01/31 23:16:57.6	189.810	0.590	-0.600	1.650
2020/01/31 23:16:57.7	189.820	0.580	-0.540	1.610
2020/01/31 23:16:57.8	189.840	0.560	-0.460	1.580
2020/01/31 23:16:57.9	189.850	0.540	-0.390	1.540
2020/01/31 23:16:58.0	189.870	0.510	-0.310	1.500
2020/01/31 23:16:58.1	189.900	0.480	-0.230	1.460
2020/01/31 23:16:58.2	189.930	0.450	-0.140	1.430
2020/01/31 23:16:58.3	189.950	0.410	-0.060	1.390
2020/01/31 23:16:58.4	189.970	0.370	0.020	1.360
2020/01/31 23:16:58.5	190.000	0.320	0.090	1.330
2020/01/31 23:16:58.6	190.020	0.270	0.170	1.300
2020/01/31 23:16:58.7	190.040	0.230	0.240	1.280
2020/01/31 23:16:58.8	190.070	0.180	0.300	1.260
2020/01/31 23:16:58.9	190.090	0.130	0.360	1.240
2020/01/31 23:16:59.0	190.110	0.080	0.420	1.220
2020/01/31 23:16:59.1	190.130	0.030	0.460	1.220
2020/01/31 23:16:59.2	190.140	-0.020	0.500	1.210
2020/01/31 23:16:59.3	190.160	-0.060	0.530	1.210
2020/01/31 23:16:59.4	190.170	-0.110	0.560	1.210
2020/01/31 23:16:59.5	190.180	-0.150	0.580	1.210
2020/01/31 23:16:59.6	190.190	-0.190	0.590	1.220
2020/01/31 23:16:59.7	190.200	-0.220	0.600	1.230
2020/01/31 23:16:59.8	190.200	-0.250	0.600	1.240
2020/01/31 23:16:59.9	190.210	-0.280	0.590	1.260
2020/01/31 23:17:00.0	190.210	-0.300	0.580	1.270
2020/01/31 23:17:00.1	190.230	-0.320	0.570	1.290
2020/01/31 23:17:00.2	190.230	-0.340	0.550	1.310
2020/01/31 23:17:00.3	190.230	-0.350	0.530	1.330
2020/01/31 23:17:00.4	190.220	-0.350	0.500	1.350
2020/01/31 23:17:00.5	190.220	-0.360	0.460	1.370
2020/01/31 23:17:00.6	190.220	-0.350	0.430	1.390
2020/01/31 23:17:00.7	190.220	-0.350	0.390	1.410
2020/01/31 23:17:00.8	190.210	-0.330	0.350	1.430
2020/01/31 23:17:00.9	190.210	-0.320	0.310	1.450
2020/01/31 23:17:01.0	190.200	-0.300	0.270	1.470
2020/01/31 23:17:01.1	190.190	-0.280	0.220	1.490
2020/01/31 23:17:01.2	190.190	-0.250	0.170	1.500
2020/01/31 23:17:01.3	190.180	-0.220	0.130	1.520
2020/01/31 23:17:01.4	190.180	-0.180	0.080	1.530
2020/01/31 23:17:01.5	190.170	-0.150	0.030	1.540
2020/01/31 23:17:01.6	190.160	-0.110	-0.010	1.550
2020/01/31 23:17:01.7	190.150	-0.070	-0.060	1.560
2020/01/31 23:17:01.8	190.150	-0.020	-0.110	1.570
2020/01/31 23:17:01.9	190.140	0.020	-0.150	1.570
2020/01/31 23:17:02.0	190.130	0.070	-0.200	1.570
2020/01/31 23:17:02.1	190.140	0.110	-0.240	1.570
2020/01/31 23:17:02.2	190.130	0.160	-0.280	1.560
2020/01/31 23:17:02.3	190.120	0.200	-0.320	1.560
2020/01/31 23:17:02.4	190.110	0.250	-0.360	1.550
2020/01/31 23:17:02.5	190.100	0.290	-0.400	1.540
2020/01/31 23:17:02.6	190.090	0.340	-0.430	1.520
2020/01/31 23:17:02.7	190.080	0.380	-0.460	1.510
2020/01/31 23:17:02.8	190.080	0.420	-0.490	1.490
2020/01/31 23:17:02.9	190.070	0.450	-0.520	1.470
2020/01/31 23:17:03.0	190.060	0.480	-0.550	1.450
2020/01/31 23:17:03.1	190.050	0.510	-0.570	1.430
2020/01/31 23:17:03.2	190.040	0.540	-0.590	1.410
2020/01/31 23:17:03.3	190.040	0.560	-0.610	1.390
2020/01/31 23:17:03.4	190.030	0.580	-0.620	1.370
2020/01/31 23:17:03.5	190.020	0.600	-0.630	1.350
2020/01/31 23:17:03.6	190.010	0.610	-0.640	1.330
2020/01/31 23:17:03.7	190.010	0.620	-0.650	1.320
2020/01/31 23:17:03.8	190.000	0.620	-0.660	1.300
2020/01/31 23:17:03.9	189.990	0.620	-0.660	1.290
2020/01/31 23:17:04.0	189.980	0.620	-0.660	1.280
2020/01/31 23:17:04.1	189.970	0.610	-0.660	1.270
2020/01/31 23:17:04.2	189.970	0.600	-0.650	1.260
2020/01/31 23:17:04.3	189.960	0.590	-0.650	1.250
2020/01/31 23:17:04.4	189.950	0.570	-0.640	1.250
2020/01/31 23:17:04.5	189.950	0.550	-0.630	1.240
2020/01/31 23:17:04.6	189.940	0.530	-0.620	1.240
2020/01/31 23:17:04.7	189.930	0.510	-0.610	1.240
2020/01/31 23:17:04.8	189.930	0.480	-0.600	1.240
2020/01/31 23:17:04.9	189.920	0.450	-0.590	1.240
2020/01/31 23:17:05.0	189.920	0.420	-0.570	1.240
2020/01/31 23:17:05.1	189.910	0.390	-0.560	1.230
2020/01/31 23:17:05.2	189.910	0.360	-0.540	1.230
2020/01/31 23:17:05.3	189.910	0.320	-0.530	1.240
2020/01/31 23:17:05.4	189.900	0.290	-0.510	1.240
2020/01/31 23:17:05.5	189.900	0.250	-0.490	1.240
2020/01/31 23:17:05.6	189.900	0.220	-0.480	1.240
2020/01/31 23:17:05.7	189.900	0.180	-0.460	1.240
2020/01/31 23:17:05.8	189.910	0.150	-0.450	1.240
2020/01/31 23:17:05.9	189.910	0.110	-0.430	1.250
2020/01/31 23:17:06.0	189.910	0.080	-0.420	1.250
2020/01/31 23:17:06.1	189.910	0.050	-0.400	1.250
2020/01/31 23:17:06.2	189.920	0.020	-0.400	1.250
2020/01/31 23:17:06.3	189.920	-0.010	-0.390	1.260
2020/01/31 23:17:06.4	189.920	-0.030	-0.380	1.270
2020/01/31 23:17:06.5	189.920	-0.060	-0.380	1.270
2020/01/31 23:17:06.6	189.910	-0.080	-0.380	1.280
2020/01/31 23:17:06.7	189.910	-0.100	-0.390	1.290
2020/01/31 23:17:06.8	189.910	-0.120	-0.390	1.300
2020/01/31 23:17:06.9	189.910	-0.130	-0.400	1.310
2020/01/31 23:17:07.0	189.910	-0.150	-0.410	1.320
2020/01/31 23:17:07.1	189.910	-0.160	-0.430	1.330
2020/01/31 23:17:07.2	189.920	-0.160	-0.440	1.340
2020/01/31 23:17:07.3	189.920	-0.170	-0.450	1.350
2020/01/31 23:17:07.4	189.930	-0.170	-0.470	1.350
2020/01/31 23:17:07.5	189.930	-0.180	-0.490	1.350
2020/01/31 23:17:07.6	189.940	-0.180	-0.500	1.350
2020/01/31 23:17:07.7	189.960	-0.180	-0.520	1.350
2020/01/31 23:17:07.8	189.970	-0.170	-0.530	1.350
2020/01/31 23:17:07.9	189.990	-0.170	-0.540	1.340
2020/01/31 23:17:08.0	190.010	-0.170	-0.550	1.340
2020/01/31 23:17:08.1	190.020	-0.160	-0.560	1.320
2020/01/31 23:17:08.2	190.040	-0.150	-0.560	1.310
2020/01/31 23:17:08.3	190.070	-0.140	-0.570	1.300
2020/01/31 23:17:08.4	190.090	-0.140	-0.570	1.290
2020/01/31 23:17:08.5	190.120	-0.130	-0.570	1.270
2020/01/31 23:17:08.6	190.150	-0.120	-0.560	1.250
2020/01/31 23:17:08.7	190.180	-0.110	-0.560	1.240
2020/01/31 23:17:08.8	190.210	-0.100	-0.550	1.220
2020/01/31 23:17:08.9	190.240	-0.090	-0.540	1.200
2020/01/31 23:17:09.0	190.270	-0.080	-0.520	1.180
2020/01/31 23:17:09.1	190.320	-0.070	-0.510	1.170
2020/01/31 23:17:09.2	190.350	-0.060	-0.490	1.150
2020/01/31 23:17:09.3	190.370	-0.060	-0.480	1.140
2020/01/31 23:17:09.4	190.390	-0.050	-0.460	1.130
2020/01/31 23:17:09.5	190.410	-0.040	-0.450	1.120
2020/01/31 23:17:09.6	190.420	-0.030	-0.430	1.110
2020/01/31 23:17:09.7	190.430	-0.020	-0.420	1.100
2020/01/31 23:17:09.8	190.440	-0.010	-0.400	1.100
2020/01/31 23:17:09.9	190.450	-0.000	-0.390	1.100
2020/01/31 23:17:10.0	190.450	0.010	-0.390	1.110
2020/01/31 23:17:10.1	190.450	0.020	-0.380	1.120
2020/01/31 23:17:10.2	190.440	0.030	-0.380	1.120
2020/01/31 23:17:10.3	190.440	0.040	-0.380	1.140
2020/01/31 23:17:10.4	190.430	0.040	-0.380	1.150
2020/01/31 23:17:10.5	190.420	0.050	-0.380	1.160
2020/01/31 23:17:10.6	190.410	0.060	-0.380	1.180
2020/01/31 23:17:10.7	190.390	0.070	-0.390	1.200
2020/01/31 23:17:10.8	190.380	0.070	-0.400	1.220
2020/01/31 23:17:10.9	190.360	0.080	-0.410	1.240
2020/01/31 23:17:11.0	190.340	0.080	-0.420	1.260
2020/01/31 23:17:11.1	190.300	0.090	-0.430	1.280
2020/01/31 23:17:11.2	190.280	0.090	-0.440	1.310
2020/01/31 23:17:11.3	190.260	0.090	-0.460	1.330
2020/01/31 23:17:11.4	190.240	0.090	-0.470	1.360
2020/01/31 23:17:11.5	190.210	0.090	-0.480	1.390
2020/01/31 23:17:11.6	190.190	0.090	-0.490	1.420
2020/01/31 23:17:11.7	190.160	0.080	-0.500	1.460
2020/01/31 23:17:11.8	190.140	0.080	-0.510	1.490
2020/01/31 23:17:11.9	190.110	0.070	-0.520	1.530
2020/01/31 23:17:12.0	190.080	0.060	-0.520	1.570
2020/01/31 23:17:12.1	190.050	0.050	-0.530	1.610
2020/01/31 23:17:12.2	190.020	0.040	-0.530	1.650
2020/01/31 23:17:12.3	189.990	0.020	-0.530	1.690
2020/01/31 23:17:12.4	189.960	0.010	-0.520	1.740
2020/01/31 23:17:12.5	189.930	-0.010	-0.520	1.790
2020/01/31 23:17:12.6	189.900	-0.030	-0.510	1.840
2020/01/31 23:17:12.7	189.870	-0.050	-0.500	1.890
2020/01/31 23:17:12.8	189.840	-0.080	-0.490	1.940
2020/01/31 23:17:12.9	189.810	-0.100	-0.480	1.990
2020/01/31 23:17:13.0	189.780	-0.130	-0.460	2.040
2020/01/31 23:17:13.1	189.760	-0.150	-0.440	2.090
2020/01/31 23:17:13.2	189.730	-0.180	-0.420	2.150
2020/01/31 23:17:13.3	189.700	-0.210	-0.400	2.200
2020/01/31 23:17:13.4	189.670	-0.230	-0.370	2.250
2020/01/31 23:17:13.5	189.650	-0.260	-0.350	2.300
2020/01/31 23:17:13.6	189.620	-0.290	-0.310	2.350
2020/01/31 23:17:13.7	189.600	-0.320	-0.280	2.400
2020/01/31 23:17:13.8	189.580	-0.350	-0.250	2.440
2020/01/31 23:17:13.9	189.560	-0.370	-0.210	2.480
2020/01/31 23:17:14.0	189.540	-0.400	-0.170	2.520
2020/01/31 23:17:14.1	189.530	-0.420	-0.120	2.560
2020/01/31 23:17:14.2	189.520	-0.450	-0.080	2.590
2020/01/31 23:17:14.3	189.500	-0.470	-0.030	2.610
2020/01/31 23:17:14.4	189.490	-0.490	0.020	2.630
2020/01/31 23:17:14.5	189.480	-0.500	0.070	2.640
2020/01/31 23:17:14.6	189.480	-0.520	0.120	2.650
2020/01/31 23:17:14.7	189.470	-0.530	0.180	2.660
2020/01/31 23:17:14.8	189.470	-0.540	0.230	2.650
2020/01/31 23:17:14.9	189.470	-0.540	0.290	2.650
2020/01/31 23:17:15.0	189.470	-0.550	0.350	2.630
2020/01/31 23:17:15.1	189.450	-0.550	0.400	2.610
2020/01/31 23:17:15.2	189.460	-0.550	0.460	2.590
2020/01/31 23:17:15.3	189.460	-0.540	0.510	2.560
2020/01/31 23:17:15.4	189.470	-0.540	0.560	2.520
2020/01/31 23:17:15.5	189.480	-0.530	0.610	2.480
2020/01/31 23:17:15.6	189.500	-0.520	0.660	2.430
2020/01/31 23:17:15.7	189.520	-0.500	0.710	2.380
2020/01/31 23:17:15.8	189.540	-0.480	0.750	2.330
2020/01/31 23:17:15.9	189.560	-0.470	0.790	2.270
2020/01/31 23:17:16.0	189.580	-0.450	0.830	2.200
2020/01/31 23:17:16.1	189.610	-0.420	0.860	2.130
2020/01/31 23:17:16.2	189.640	-0.400	0.890	2.060
2020/01/31 23:17:16.3	189.670	-0.380	0.910	1.990
2020/01/31 23:17:16.4	189.700	-0.350	0.930	1.910
2020/01/31 23:17:16.5	189.730	-0.320	0.940	1.840
2020/01/31 23:17:16.6	189.770	-0.290	0.950	1.760
2020/01/31 23:17:16.7	189.800	-0.270	0.950	1.680
2020/01/31 23:17:16.8	189.830	-0.240	0.940	1.600
2020/01/31 23:17:16.9	189.870	-0.210	0.930	1.520
2020/01/31 23:17:17.0	189.900	-0.180	0.910	1.450
2020/01/31 23:17:17.1	189.930	-0.150	0.890	1.360
2020/01/31 23:17:17.2	189.970	-0.120	0.860	1.290
2020/01/31 23:17:17.3	190.000	-0.090	0.820	1.220
2020/01/31 23:17:17.4	190.030	-0.060	0.770	1.150
2020/01/31 23:17:17.5	190.060	-0.030	0.720	1.090
2020/01/31 23:17:17.6	190.090	0.000	0.670	1.020
2020/01/31 23:17:17.7	190.120	0.030	0.600	0.960
2020/01/31 23:17:17.8	190.140	0.060	0.540	0.910
2020/01/31 23:17:17.9	190.170	0.090	0.460	0.850
2020/01/31 23:17:18.0	190.190	0.120	0.390	0.800
2020/01/31 23:17:18.1	190.200	0.150	0.300	0.750
2020/01/31 23:17:18.2	190.220	0.180	0.220	0.710
2020/01/31 23:17:18.3	190.240	0.210	0.130	0.660
2020/01/31 23:17:18.4	190.250	0.240	0.040	0.630
2020/01/31 23:17:18.5	190.260	0.270	-0.050	0.590
2020/01/31 23:17:18.6	190.270	0.290	-0.150	0.560
2020/01/31 23:17:18.7	190.280	0.320	-0.240	0.540
2020/01/31 23:17:18.8	190.280	0.350	-0.340	0.520
2020/01/31 23:17:18.9	190.280	0.380	-0.440	0.500
2020/01/31 23:17:19.0	190.280	0.400	-0.540	0.490
2020/01/31 23:17:19.1	190.280	0.430	-0.630	0.480
2020/01/31 23:17:19.2	190.280	0.460	-0.730	0.480
2020/01/31 23:17:19.3	190.270	0.490	-0.820	0.480
2020/01/31 23:17:19.4	190.250	0.510	-0.910	0.490
2020/01/31 23:17:19.5	190.240	0.540	-1.000	0.500
2020/01/31 23:17:19.6	190.220	0.560	-1.090	0.510
2020/01/31 23:17:19.7	190.210	0.590	-1.160	0.530
2020/01/31 23:17:19.8	190.190	0.610	-1.240	0.540
2020/01/31 23:17:19.9	190.180	0.630	-1.300	0.560
2020/01/31 23:17:20.0	190.160	0.650	-1.360	0.590
2020/01/31 23:17:20.1	190.150	0.670	-1.420	0.610
2020/01/31 23:17:20.2	190.140	0.680	-1.460	0.640
2020/01/31 23:17:20.3	190.130	0.700	-1.490	0.670
2020/01/31 23:17:20.4	190.120	0.710	-1.520	0.690
2020/01/31 23:17:20.5	190.110	0.710	-1.530	0.720
2020/01/31 23:17:20.6	190.110	0.720	-1.530	0.750
2020/01/31 23:17:20.7	190.110	0.720	-1.520	0.770
2020/01/31 23:17:20.8	190.110	0.720	-1.500	0.800
2020/01/31 23:17:20.9	190.110	0.710	-1.480	0.830
2020/01/31 23:17:21.0	190.110	0.700	-1.440	0.860
2020/01/31 23:17:21.1	190.110	0.690	-1.390	0.890
2020/01/31 23:17:21.2	190.110	0.670	-1.340	0.910
2020/01/31 23:17:21.3	190.120	0.650	-1.270	0.940
2020/01/31 23:17:21.4	190.130	0.630	-1.200	0.970
2020/01/31 23:17:21.5	190.150	0.600	-1.120	1.000
2020/01/31 23:17:21.6	190.160	0.570	-1.030	1.030
2020/01/31 23:17:21.7	190.170	0.540	-0.940	1.060
2020/01/31 23:17:21.8	190.190	0.500	-0.850	1.080
2020/01/31 23:17:21.9	190.210	0.470	-0.750	1.110
2020/01/31 23:17:22.0	190.220	0.430	-0.650	1.130
2020/01/31 23:17:22.1	190.240	0.390	-0.550	1.160
2020/01/31 23:17:22.2	190.250	0.340	-0.450	1.190
2020/01/31 23:17:22.3	190.270	0.300	-0.360	1.210
2020/01/31 23:17:22.4	190.280	0.260	-0.260	1.230
2020/01/31 23:17:22.5	190.290	0.220	-0.170	1.250
2020/01/31 23:17:22.6	190.310	0.170	-0.090	1.270
2020/01/31 23:17:22.7	190.320	0.130	-0.010	1.290
2020/01/31 23:17:22.8	190.330	0.090	0.060	1.310
2020/01/31 23:17:22.9	190.330	0.050	0.120	1.320
2020/01/31 23:17:23.0	190.340	0.020	0.180	1.340
2020/01/31 23:17:23.1	190.340	-0.010	0.220	1.350
2020/01/31 23:17:23.2	190.340	-0.050	0.260	1.370
2020/01/31 23:17:23.3	190.340	-0.070	0.290	1.380
2020/01/31 23:17:23.4	190.340	-0.100	0.310	1.390
2020/01/31 23:17:23.5	190.340	-0.120	0.320	1.400
2020/01/31 23:17:23.6	190.340	-0.140	0.330	1.410
2020/01/31 23:17:23.7	190.340	-0.150	0.320	1.420
2020/01/31 23:17:23.8	190.330	-0.170	0.310	1.430
2020/01/31 23:17:23.9	190.330	-0.180	0.290	1.440
2020/01/31 23:17:24.0	190.330	-0.180	0.260	1.450
2020/01/31 23:17:24.1	190.340	-0.190	0.240	1.450
2020/01/31 23:17:24.2	190.340	-0.190	0.200	1.460
2020/01/31 23:17:24.3	190.340	-0.190	0.160	1.480
2020/01/31 23:17:24.4	190.340	-0.190	0.110	1.490
2020/01/31 23:17:24.5	190.340	-0.180	0.060	1.510
2020/01/31 23:17:24.6	190.340	-0.180	0.010	1.530
2020/01/31 23:17:24.7	190.330	-0.170	-0.040	1.550
2020/01/31 23:17:24.8	190.330	-0.160	-0.100	1.570
2020/01/31 23:17:24.9	190.330	-0.150	-0.160	1.590
2020/01/31 23:17:25.0	190.330	-0.140	-0.210	1.620
2020/01/31 23:17:25.1	190.320	-0.130	-0.270	1.650
2020/01/31 23:17:25.2	190.310	-0.120	-0.320	1.680
2020/01/31 23:17:25.3	190.310	-0.100	-0.380	1.710
2020/01/31 23:17:25.4	190.300	-0.090	-0.430	1.740
2020/01/31 23:17:25.5	190.290	-0.080	-0.480	1.770
2020/01/31 23:17:25.6	190.280	-0.070	-0.530	1.800
2020/01/31 23:17:25.7	190.260	-0.050	-0.580	1.830
2020/01/31 23:17:25.8	190.250	-0.040	-0.620	1.860
2020/01/31 23:17:25.9	190.230	-0.030	-0.660	1.890
2020/01/31 23:17:26.0	190.210	-0.020	-0.700	1.920
2020/01/31 23:17:26.1	190.200	-0.010	-0.730	1.940
2020/01/31 23:17:26.2	190.180	0.000	-0.760	1.970
2020/01/31 23:17:26.3	190.150	0.010	-0.780	1.990
2020/01/31 23:17:26.4	190.130	0.020	-0.800	2.010
2020/01/31 23:17:26.5	190.100	0.030	-0.820	2.030
2020/01/31 23:17:26.6	190.080	0.030	-0.840	2.050
2020/01/31 23:17:26.7	190.050	0.040	-0.850	2.060
2020/01/31 23:17:26.8	190.020	0.050	-0.850	2.070
2020/01/31 23:17:26.9	189.990	0.050	-0.860	2.080
2020/01/31 23:17:27.0	189.960	0.050	-0.850	2.080
2020/01/31 23:17:27.1	189.940	0.060	-0.850	2.090
2020/01/31 23:17:27.2	189.920	0.060	-0.840	2.080
2020/01/31 23:17:27.3	189.890	0.060	-0.830	2.080
2020/01/31 23:17:27.4	189.870	0.060	-0.810	2.070
2020/01/31 23:17:27.5	189.840	0.060	-0.790	2.060
2020/01/31 23:17:27.6	189.820	0.050	-0.770	2.050
2020/01/31 23:17:27.7	189.800	0.050	-0.740	2.030
2020/01/31 23:17:27.8	189.790	0.050	-0.710	2.010
2020/01/31 23:17:27.9	189.770	0.040	-0.670	1.990
2020/01/31 23:17:28.0	189.760	0.030	-0.630	1.960
2020/01/31 23:17:28.1	189.760	0.020	-0.590	1.930
2020/01/31 23:17:28.2	189.750	0.010	-0.540	1.900
2020/01/31 23:17:28.3	189.750	0.000	-0.490	1.870
2020/01/31 23:17:28.4	189.740	-0.010	-0.450	1.830
2020/01/31 23:17:28.5	189.740	-0.020	-0.390	1.800
2020/01/31 23:17:28.6	189.740	-0.040	-0.340	1.760
2020/01/31 23:17:28.7	189.750	-0.060	-0.290	1.720
2020/01/31 23:17:28.8	189.750	-0.070	-0.230	1.680
2020/01/31 23:17:28.9	189.760	-0.090	-0.180	1.640
2020/01/31 23:17:29.0	189.770	-0.110	-0.120	1.590
2020/01/31 23:17:29.1	189.770	-0.140	-0.070	1.550
2020/01/31 23:17:29.2	189.780	-0.160	-0.020	1.500
2020/01/31 23:17:29.3	189.790	-0.180	0.030	1.460
2020/01/31 23:17:29.4	189.810	-0.210	0.080	1.410
2020/01/31 23:17:29.5	189.830	-0.230	0.130	1.360
2020/01/31 23:17:29.6	189.840	-0.260	0.170	1.320
2020/01/31 23:17:29.7	189.860	-0.280	0.210	1.270
2020/01/31 23:17:29.8	189.880	-0.310	0.250	1.230
2020/01/31 23:17:29.9	189.900	-0.340	0.280	1.180
2020/01/31 23:17:30.0	189.920	-0.360	0.310	1.140
2020/01/31 23:17:30.1	189.940	-0.390	0.330	1.090
2020/01/31 23:17:30.2	189.960	-0.410	0.350	1.040
2020/01/31 23:17:30.3	189.980	-0.440	0.370	1.000
2020/01/31 23:17:30.4	190.010	-0.460	0.380	0.970
2020/01/31 23:17:30.5	190.030	-0.480	0.380	0.930
2020/01/31 23:17:30.6	190.050	-0.510	0.390	0.890
2020/01/31 23:17:30.7	190.080	-0.530	0.380	0.860
2020/01/31 23:17:30.8	190.100	-0.550	0.370	0.830
2020/01/31 23:17:30.9	190.130	-0.560	0.360	0.810
2020/01/31 23:17:31.0	190.150	-0.580	0.350	0.780
2020/01/31 23:17:31.1	190.160	-0.590	0.320	0.760
2020/01/31 23:17:31.2	190.190	-0.600	0.300	0.740
2020/01/31 23:17:31.3	190.210	-0.610	0.270	0.720
2020/01/31 23:17:31.4	190.230	-0.610	0.240	0.710
2020/01/31 23:17:31.5	190.250	-0.620	0.200	0.700
2020/01/31 23:17:31.6	190.270	-0.620	0.160	0.690
2020/01/31 23:17:31.7	190.290	-0.610	0.120	0.690
2020/01/31 23:17:31.8	190.310	-0.600	0.080	0.690
2020/01/31 23:17:31.9	190.330	-0.590	0.030	0.690
2020/01/31 23:17:32.0	190.340	-0.580	-0.010	0.700
2020/01/31 23:17:32.1	190.360	-0.560	-0.060	0.710
2020/01/31 23:17:32.2	190.370	-0.540	-0.110	0.730
2020/01/31 23:17:32.3	190.380	-0.520	-0.150	0.740
2020/01/31 23:17:32.4	190.390	-0.490	-0.200	0.760
2020/01/31 23:17:32.5	190.390	-0.460	-0.250	0.780
2020/01/31 23:17:32.6	190.400	-0.430	-0.300	0.800
2020/01/31 23:17:32.7	190.400	-0.390	-0.340	0.820
2020/01/31 23:17:32.8	190.400	-0.350	-0.380	0.840
2020/01/31 23:17:32.9	190.400	-0.310	-0.420	0.860
2020/01/31 23:17:33.0	190.400	-0.270	-0.460	0.880
2020/01/31 23:17:33.1	190.380	-0.220	-0.490	0.900
2020/01/31 23:17:33.2	190.370	-0.170	-0.520	0.910
2020/01/31 23:17:33.3	190.360	-0.130	-0.540	0.930
2020/01/31 23:17:33.4	190.360	-0.080	-0.560	0.940
2020/01/31 23:17:33.5	190.350	-0.020	-0.570	0.950
2020/01/31 23:17:33.6	190.340	0.030	-0.580	0.970
2020/01/31 23:17:33.7	190.340	0.080	-0.590	0.980
2020/01/31 23:17:33.8	190.330	0.130	-0.580	0.980
2020/01/31 23:17:33.9	190.320	0.180	-0.570	0.990
2020/01/31 23:17:34.0	190.320	0.230	-0.560	1.000
2020/01/31 23:17:34.1	190.320	0.270	-0.540	1.000
2020/01/31 23:17:34.2	190.320	0.320	-0.510	1.000
2020/01/31 23:17:34.3	190.310	0.360	-0.480	1.000
2020/01/31 23:17:34.4	190.310	0.400	-0.450	1.010
2020/01/31 23:17:34.5	190.310	0.430	-0.410	1.010
2020/01/31 23:17:34.6	190.310	0.470	-0.370	1.010
2020/01/31 23:17:34.7	190.320	0.500	-0.320	1.000
2020/01/31 23:17:34.8	190.320	0.520	-0.270	1.000
2020/01/31 23:17:34.9	190.320	0.540	-0.220	1.000
2020/01/31 23:17:35.0	190.330	0.560	-0.160	1.000
2020/01/31 23:17:35.1	190.350	0.570	-0.110	0.990
2020/01/31 23:17:35.2	190.360	0.580	-0.060	0.990
2020/01/31 23:17:35.3	190.370	0.580	0.000	0.990
2020/01/31 23:17:35.4	190.380	0.580	0.060	0.980
2020/01/31 23:17:35.5	190.390	0.570	0.110	0.980
2020/01/31 23:17:35.6	190.400	0.560	0.160	0.980
2020/01/31 23:17:35.7	190.410	0.540	0.210	0.980
2020/01/31 23:17:35.8	190.420	0.520	0.250	0.980
2020/01/31 23:17:35.9	190.430	0.500	0.290	0.980
2020/01/31 23:17:36.0	190.430	0.470	0.320	0.980
2020/01/31 23:17:36.1	190.430	0.440	0.350	0.980
2020/01/31 23:17:36.2	190.440	0.410	0.380	0.990
2020/01/31 23:17:36.3	190.440	0.370	0.390	1.000
2020/01/31 23:17:36.4	190.450	0.340	0.410	1.010
2020/01/31 23:17:36.5	190.450	0.300	0.410	1.030
2020/01/31 23:17:36.6	190.460	0.250	0.410	1.040
2020/01/31 23:17:36.7	190.460	0.210	0.410	1.070
2020/01/31 23:17:36.8	190.460	0.170	0.400	1.090
2020/01/31 23:17:36.9	190.460	0.120	0.380	1.120
2020/01/31 23:17:37.0	190.460	0.080	0.360	1.150
2020/01/31 23:17:37.1	190.440	0.040	0.330	1.190
2020/01/31 23:17:37.2	190.440	-0.000	0.300	1.230
2020/01/31 23:17:37.3	190.430	-0.040	0.270	1.270
2020/01/31 23:17:37.4	190.430	-0.080	0.230	1.310
2020/01/31 23:17:37.5	190.420	-0.120	0.180	1.360
2020/01/31 23:17:37.6	190.410	-0.150	0.140	1.410
2020/01/31 23:17:37.7	190.400	-0.180	0.090	1.460
2020/01/31 23:17:37.8	190.390	-0.210	0.040	1.510
2020/01/31 23:17:37.9	190.380	-0.230	-0.010	1.560
2020/01/31 23:17:38.0	190.360	-0.250	-0.070	1.610
2020/01/31 23:17:38.1	190.360	-0.260	-0.120	1.660
2020/01/31 23:17:38.2	190.350	-0.270	-0.170	1.710
2020/01/31 23:17:38.3	190.330	-0.270	-0.220	1.750
2020/01/31 23:17:38.4	190.320	-0.270	-0.270	1.800
2020/01/31 23:17:38.5	190.300	-0.270	-0.310	1.840
2020/01/31 23:17:38.6	190.280	-0.250	-0.360	1.880
2020/01/31 23:17:38.7	190.270	-0.240	-0.400	1.910
2020/01/31 23:17:38.8	190.250	-0.220	-0.440	1.950
2020/01/31 23:17:38.9	190.230	-0.190	-0.480	1.980
2020/01/31 23:17:39.0	190.200	-0.160	-0.520	2.000
2020/01/31 23:17:39.1	190.180	-0.120	-0.560	2.030
2020/01/31 23:17:39.2	190.150	-0.080	-0.590	2.050
2020/01/31 23:17:39.3	190.120	-0.040	-0.620	2.070
2020/01/31 23:17:39.4	190.090	0.010	-0.650	2.090
2020/01/31 23:17:39.5	190.060	0.060	-0.680	2.100
2020/01/31 23:17:39.6	190.030	0.120	-0.710	2.110
2020/01/31 23:17:39.7	190.000	0.170	-0.740	2.120
2020/01/31 23:17:39.8	189.970	0.230	-0.770	2.130
2020/01/31 23:17:39.9	189.930	0.280	-0.790	2.130
2020/01/31 23:17:40.0	189.900	0.340	-0.820	2.130
2020/01/31 23:17:40.1	189.870	0.400	-0.840	2.110
2020/01/31 23:17:40.2	189.840	0.450	-0.860	2.110
2020/01/31 23:17:40.3	189.810	0.510	-0.880	2.090
2020/01/31 23:17:40.4	189.780	0.560	-0.890	2.080
2020/01/31 23:17:40.5	189.750	0.610	-0.910	2.060
2020/01/31 23:17:40.6	189.720	0.650	-0.920	2.050
2020/01/31 23:17:40.7	189.690	0.690	-0.930	2.020
2020/01/31 23:17:40.8	189.670	0.730	-0.930	2.000
2020/01/31 23:17:40.9	189.640	0.760	-0.940	1.970
2020/01/31 23:17:41.0	189.620	0.790	-0.940	1.940
2020/01/31 23:17:41.1	189.600	0.810	-0.940	1.910
2020/01/31 23:17:41.2	189.590	0.830	-0.930	1.880
2020/01/31 23:17:41.3	189.580	0.830	-0.920	1.840
2020/01/31 23:17:41.4	189.570	0.840	-0.910	1.810
2020/01/31 23:17:41.5	189.560	0.840	-0.890	1.770
2020/01/31 23:17:41.6	189.560	0.830	-0.870	1.720
2020/01/31 23:17:41.7	189.560	0.810	-0.840	1.680
2020/01/31 23:17:41.8	189.570	0.790	-0.810	1.640
2020/01/31 23:17:41.9	189.570	0.760	-0.780	1.590
2020/01/31 23:17:42.0	189.580	0.730	-0.750	1.550
2020/01/31 23:17:42.1	189.590	0.690	-0.710	1.490
2020/01/31 23:17:42.2	189.610	0.640	-0.670	1.450
2020/01/31 23:17:42.3	189.630	0.590	-0.620	1.400
2020/01/31 23:17:42.4	189.650	0.540	-0.580	1.360
2020/01/31 23:17:42.5	189.680	0.480	-0.530	1.320
2020/01/31 23:17:42.6	189.700	0.420	-0.480	1.290
2020/01/31 23:17:42.7	189.730	0.350	-0.430	1.250
2020/01/31 23:17:42.8	189.760	0.280	-0.380	1.220
2020/01/31 23:17:42.9	189.790	0.210	-0.330	1.200
2020/01/31 23:17:43.0	189.820	0.140	-0.280	1.170
2020/01/31 23:17:43.1	189.850	0.070	-0.240	1.150
2020/01/31 23:17:43.2	189.880	-0.010	-0.190	1.140
2020/01/31 23:17:43.3	189.910	-0.080	-0.140	1.120
2020/01/31 23:17:43.4	189.940	-0.150	-0.100	1.110
2020/01/31 23:17:43.5	189.970	-0.220	-0.050	1.100
2020/01/31 23:17:43.6	190.000	-0.290	-0.010	1.100
2020/01/31 23:17:43.7	190.020	-0.350	0.020	1.100
2020/01/31 23:17:43.8	190.050	-0.420	0.050	1.100
2020/01/31 23:17:43.9	190.070	-0.480	0.080	1.100
2020/01/31 23:17:44.0	190.090	-0.530	0.100	1.110
2020/01/31 23:17:44.1	190.120	-0.580	0.120	1.110
2020/01/31 23:17:44.2	190.130	-0.630	0.130	1.120
2020/01/31 23:17:44.3	190.140	-0.670	0.140	1.130
2020/01/31 23:17:44.4	190.150	-0.700	0.140	1.150
2020/01/31 23:17:44.5	190.160	-0.730	0.130	1.160
2020/01/31 23:17:44.6	190.170	-0.750	0.120	1.180
2020/01/31 23:17:44.7	190.180	-0.770	0.100	1.190
2020/01/31 23:17:44.8	190.180	-0.790	0.080	1.210
2020/01/31 23:17:44.9	190.180	-0.800	0.050	1.230
2020/01/31 23:17:45.0	190.190	-0.800	0.020	1.240
2020/01/31 23:17:45.1	190.190	-0.800	-0.030	1.260
2020/01/31 23:17:45.2	190.190	-0.800	-0.070	1.280
2020/01/31 23:17:45.3	190.190	-0.790	-0.110	1.300
2020/01/31 23:17:45.4	190.190	-0.780	-0.160	1.320
2020/01/31 23:17:45.5	190.180	-0.770	-0.210	1.350
2020/01/31 23:17:45.6	190.180	-0.750	-0.260	1.370
2020/01/31 23:17:45.7	190.180	-0.720	-0.320	1.400
2020/01/31 23:17:45.8	190.170	-0.700	-0.380	1.430
2020/01/31 23:17:45.9	190.160	-0.670	-0.430	1.460
2020/01/31 23:17:46.0	190.160	-0.640	-0.490	1.480
2020/01/31 23:17:46.1	190.150	-0.610	-0.540	1.510
2020/01/31 23:17:46.2	190.140	-0.580	-0.590	1.540
2020/01/31 23:17:46.3	190.130	-0.540	-0.650	1.570
2020/01/31 23:17:46.4	190.130	-0.510	-0.690	1.590
2020/01/31 23:17:46.5	190.120	-0.470	-0.740	1.620
2020/01/31 23:17:46.6	190.110	-0.440	-0.780	1.640
2020/01/31 23:17:46.7	190.100	-0.400	-0.820	1.660
2020/01/31 23:17:46.8	190.100	-0.370	-0.850	1.680
2020/01/31 23:17:46.9	190.090	-0.330	-0.880	1.700
2020/01/31 23:17:47.0	190.080	-0.300	-0.900	1.720
2020/01/31 23:17:47.1	190.080	-0.260	-0.920	1.730
2020/01/31 23:17:47.2	190.070	-0.230	-0.930	1.740
2020/01/31 23:17:47.3	190.070	-0.200	-0.930	1.750
2020/01/31 23:17:47.4	190.060	-0.170	-0.920	1.750
2020/01/31 23:17:47.5	190.060	-0.140	-0.910	1.760
2020/01/31 23:17:47.6	190.050	-0.110	-0.890	1.750
2020/01/31 23:17:47.7	190.050	-0.090	-0.860	1.750
2020/01/31 23:17:47.8	190.040	-0.070	-0.830	1.740
2020/01/31 23:17:47.9	190.040	-0.040	-0.790	1.730
2020/01/31 23:17:48.0	190.040	-0.020	-0.750	1.710
2020/01/31 23:17:48.1	190.050	-0.010	-0.690	1.700
2020/01/31 23:17:48.2	190.050	0.010	-0.630	1.680
2020/01/31 23:17:48.3	190.050	0.020	-0.570	1.650
2020/01/31 23:17:48.4	190.050	0.030	-0.510	1.630
2020/01/31 23:17:48.5	190.050	0.050	-0.440	1.610
2020/01/31 23:17:48.6	190.050	0.050	-0.370	1.580
2020/01/31 23:17:48.7	190.040	0.060	-0.290	1.560
2020/01/31 23:17:48.8	190.040	0.070	-0.220	1.530
2020/01/31 23:17:48.9	190.040	0.070	-0.140	1.500
2020/01/31 23:17:49.0	190.040	0.080	-0.060	1.480
2020/01/31 23:17:49.1	190.030	0.080	0.010	1.450
2020/01/31 23:17:49.2	190.020	0.080	0.080	1.420
2020/01/31 23:17:49.3	190.020	0.080	0.160	1.400
2020/01/31 23:17:49.4	190.020	0.080	0.230	1.380
2020/01/31 23:17:49.5	190.020	0.080	0.300	1.350
2020/01/31 23:17:49.6	190.010	0.080	0.360	1.330
2020/01/31 23:17:49.7	190.010	0.080	0.420	1.310
2020/01/31 23:17:49.8	190.010	0.080	0.480	1.290
2020/01/31 23:17:49.9	190.010	0.080	0.530	1.270
2020/01/31 23:17:50.0	190.010	0.080	0.580	1.250
2020/01/31 23:17:50.1	189.990	0.070	0.620	1.230
2020/01/31 23:17:50.2	189.990	0.070	0.660	1.220
2020/01/31 23:17:50.3	189.980	0.070	0.690	1.200
2020/01/31 23:17:50.4	189.980	0.060	0.720	1.190
2020/01/31 23:17:50.5	189.980	0.060	0.740	1.180
2020/01/31 23:17:50.6	189.980	0.050	0.750	1.170
2020/01/31 23:17:50.7	189.970	0.050	0.760	1.160
2020/01/31 23:17:50.8	189.970	0.050	0.760	1.150
2020/01/31 23:17:50.9	189.970	0.040	0.760	1.150
2020/01/31 23:17:51.0	189.970	0.030	0.760	1.140
2020/01/31 23:17:51.1	189.960	0.030	0.740	1.140
2020/01/31 23:17:51.2	189.960	0.020	0.730	1.140
2020/01/31 23:17:51.3	189.960	0.010	0.710	1.150
2020/01/31 23:17:51.4	189.960	0.000	0.690	1.150
2020/01/31 23:17:51.5	189.970	-0.010	0.670	1.160
2020/01/31 23:17:51.6	189.970	-0.020	0.650	1.170
2020/01/31 23:17:51.7	189.980	-0.030	0.620	1.190
2020/01/31 23:17:51.8	189.990	-0.040	0.590	1.210
2020/01/31 23:17:51.9	189.990	-0.050	0.560	1.230
2020/01/31 23:17:52.0	190.000	-0.070	0.530	1.250
2020/01/31 23:17:52.1	190.000	-0.080	0.500	1.280
2020/01/31 23:17:52.2	190.010	-0.090	0.460	1.310
2020/01/31 23:17:52.3	190.010	-0.100	0.420	1.340
2020/01/31 23:17:52.4	190.020	-0.110	0.380	1.380
2020/01/31 23:17:52.5	190.020	-0.120	0.340	1.420
2020/01/31 23:17:52.6	190.020	-0.130	0.300	1.460
2020/01/31 23:17:52.7	190.030	-0.130	0.250	1.500
2020/01/31 23:17:52.8	190.020	-0.140	0.200	1.540
2020/01/31 23:17:52.9	190.020	-0.140	0.150	1.590
2020/01/31 23:17:53.0	190.020	-0.140	0.100	1.630
2020/01/31 23:17:53.1	190.010	-0.140	0.040	1.680
2020/01/31 23:17:53.2	190.000	-0.140	-0.010	1.730
2020/01/31 23:17:53.3	189.990	-0.130	-0.070	1.770
2020/01/31 23:17:53.4	189.970	-0.120	-0.130	1.820
2020/01/31 23:17:53.5	189.960	-0.110	-0.180	1.860
2020/01/31 23:17:53.6	189.940	-0.090	-0.240	1.910
2020/01/31 23:17:53.7	189.910	-0.070	-0.300	1.950
2020/01/31 23:17:53.8	189.890	-0.050	-0.360	1.990
2020/01/31 23:17:53.9	189.870	-0.030	-0.420	2.030
2020/01/31 23:17:54.0	189.840	0.000	-0.480	2.060
2020/01/31 23:17:54.1	189.820	0.030	-0.530	2.090
2020/01/31 23:17:54.2	189.790	0.070	-0.580	2.120
2020/01/31 23:17:54.3	189.760	0.110	-0.630	2.150
2020/01/31 23:17:54.4	189.730	0.150	-0.680	2.170
2020/01/31 23:17:54.5	189.700	0.190	-0.730	2.180
2020/01/31 23:17:54.6	189.680	0.230	-0.770	2.190
2020/01/31 23:17:54.7	189.650	0.280	-0.800	2.200
2020/01/31 23:17:54.8	189.620	0.330	-0.840	2.200
2020/01/31 23:17:54.9	189.600	0.380	-0.860	2.190
2020/01/31 23:17:55.0	189.570	0.420	-0.880	2.180
2020/01/31 23:17:55.1	189.570	0.470	-0.900	2.160
2020/01/31 23:17:55.2	189.550	0.520	-0.910	2.140
2020/01/31 23:17:55.3	189.530	0.570	-0.910	2.110
2020/01/31 23:17:55.4	189.520	0.610	-0.910	2.080
2020/01/31 23:17:55.5	189.500	0.650	-0.900	2.040
2020/01/31 23:17:55.6	189.490	0.690	-0.880	2.000
2020/01/31 23:17:55.7	189.480	0.730	-0.860	1.950
2020/01/31 23:17:55.8	189.480	0.760	-0.840	1.900
2020/01/31 23:17:55.9	189.470	0.790	-0.800	1.850
2020/01/31 23:17:56.0	189.470	0.820	-0.770	1.790
2020/01/31 23:17:56.1	189.480	0.840	-0.720	1.730
2020/01/31 23:17:56.2	189.490	0.850	-0.670	1.670
2020/01/31 23:17:56.3	189.490	0.860	-0.620	1.610
2020/01/31 23:17:56.4	189.500	0.870	-0.570	1.550
2020/01/31 23:17:56.5	189.510	0.870	-0.520	1.480
2020/01/31 23:17:56.6	189.530	0.860	-0.460	1.420
2020/01/31 23:17:56.7	189.550	0.850	-0.410	1.350
2020/01/31 23:17:56.8	189.560	0.830	-0.360	1.290
2020/01/31 23:17:56.9	189.590	0.810	-0.300	1.230
2020/01/31 23:17:57.0	189.610	0.780	-0.250	1.160
2020/01/31 23:17:57.1	189.640	0.750	-0.210	1.090
2020/01/31 23:17:57.2	189.660	0.710	-0.170	1.030
2020/01/31 23:17:57.3	189.690	0.670	-0.130	0.970
2020/01/31 23:17:57.4	189.710	0.630	-0.100	0.920
2020/01/31 23:17:57.5	189.740	0.580	-0.070	0.860
2020/01/31 23:17:57.6	189.760	0.530	-0.050	0.810
2020/01/31 23:17:57.7	189.790	0.480	-0.040	0.760
2020/01/31 23:17:57.8	189.810	0.430	-0.040	0.720
2020/01/31 23:17:57.9	189.830	0.380	-0.040	0.680
2020/01/31 23:17:58.0	189.850	0.330	-0.050	0.640
2020/01/31 23:17:58.1	189.870	0.280	-0.070	0.610
2020/01/31 23:17:58.2	189.890	0.230	-0.090	0.580
2020/01/31 23:17:58.3	189.900	0.180	-0.130	0.570
2020/01/31 23:17:58.4	189.900	0.130	-0.170	0.550
2020/01/31 23:17:58.5	189.900	0.080	-0.220	0.550
2020/01/31 23:17:58.6	189.910	0.040	-0.270	0.550
2020/01/31 23:17:58.7	189.900	-0.000	-0.340	0.560
2020/01/31 23:17:58.8	189.900	-0.040	-0.400	0.570
2020/01/31 23:17:58.9	189.890	-0.070	-0.470	0.590
2020/01/31 23:17:59.0	189.880	-0.110	-0.550	0.610
2020/01/31 23:17:59.1	189.860	-0.130	-0.620	0.650
2020/01/31 23:17:59.2	189.850	-0.160	-0.700	0.680
2020/01/31 23:17:59.3	189.830	-0.180	-0.780	0.720
2020/01/31 23:17:59.4	189.820	-0.200	-0.850	0.760
2020/01/31 23:17:59.5	189.800	-0.210	-0.930	0.800
2020/01/31 23:17:59.6	189.790	-0.220	-1.000	0.840
2020/01/31 23:17:59.7	189.780	-0.230	-1.070	0.890
2020/01/31 23:17:59.8	189.760	-0.240	-1.130	0.940
2020/01/31 23:17:59.9	189.750	-0.250	-1.190	0.980
2020/01/31 23:18:00.0	189.750	-0.250	-1.240	1.030
2020/01/31 23:18:00.1	189.730	-0.250	-1.290	1.080
2020/01/31 23:18:00.2	189.730	-0.260	-1.320	1.120
2020/01/31 23:18:00.3	189.730	-0.260	-1.340	1.170
2020/01/31 23:18:00.4	189.730	-0.260	-1.360	1.210
2020/01/31 23:18:00.5	189.730	-0.260	-1.360	1.250
2020/01/31 23:18:00.6	189.740	-0.260	-1.360	1.280
2020/01/31 23:18:00.7	189.750	-0.260	-1.340	1.320
2020/01/31 23:18:00.8	189.760	-0.270	-1.310	1.350
2020/01/31 23:18:00.9	189.780	-0.270	-1.280	1.380
2020/01/31 23:18:01.0	189.790	-0.280	-1.230	1.410
2020/01/31 23:18:01.1	189.830	-0.280	-1.170	1.430
2020/01/31 23:18:01.2	189.840	-0.290	-1.110	1.450
2020/01/31 23:18:01.3	189.860	-0.300	-1.030	1.470
2020/01/31 23:18:01.4	189.880	-0.320	-0.960	1.490
2020/01/31 23:18:01.5	189.900	-0.330	-0.870	1.510
2020/01/31 23:18:01.6	189.920	-0.350	-0.780	1.520
2020/01/31 23:18:01.7	189.950	-0.370	-0.690	1.530
2020/01/31 23:18:01.8	189.970	-0.380	-0.600	1.540
2020/01/31 23:18:01.9	189.980	-0.410	-0.500	1.550
2020/01/31 23:18:02.0	190.000	-0.430	-0.410	1.560
2020/01/31 23:18:02.1	190.030	-0.450	-0.320	1.570
2020/01/31 23:18:02.2	190.040	-0.470	-0.220	1.580
2020/01/31 23:18:02.3	190.050	-0.500	-0.130	1.590
2020/01/31 23:18:02.4	190.070	-0.520	-0.040	1.590
2020/01/31 23:18:02.5	190.080	-0.540	0.040	1.600
2020/01/31 23:18:02.6	190.090	-0.560	0.110	1.610
2020/01/31 23:18:02.7	190.090	-0.580	0.180	1.610
2020/01/31 23:18:02.8	190.100	-0.600	0.250	1.620
2020/01/31 23:18:02.9	190.100	-0.620	0.300	1.630
2020/01/31 23:18:03.0	190.100	-0.640	0.350	1.640
2020/01/31 23:18:03.1	190.090	-0.650	0.400	1.640
2020/01/31 23:18:03.2	190.090	-0.660	0.430	1.650
2020/01/31 23:18:03.3	190.090	-0.670	0.450	1.660
2020/01/31 23:18:03.4	190.090	-0.680	0.470	1.670
2020/01/31 23:18:03.5	190.080	-0.680	0.480	1.680
2020/01/31 23:18:03.6	190.070	-0.680	0.480	1.690
2020/01/31 23:18:03.7	190.060	-0.680	0.480	1.710
2020/01/31 23:18:03.8	190.050	-0.670	0.470	1.730
2020/01/31 23:18:03.9	190.040	-0.670	0.450	1.750
2020/01/31 23:18:04.0	190.030	-0.650	0.420	1.770
2020/01/31 23:18:04.1	190.010	-0.640	0.390	1.790
2020/01/31 23:18:04.2	190.000	-0.620	0.350	1.810
2020/01/31 23:18:04.3	189.980	-0.590	0.310	1.830
2020/01/31 23:18:04.4	189.960	-0.570	0.260	1.860
2020/01/31 23:18:04.5	189.940	-0.540	0.220	1.880
2020/01/31 23:18:04.6	189.910	-0.510	0.170	1.900
2020/01/31 23:18:04.7	189.890	-0.470	0.120	1.920
2020/01/31 23:18:04.8	189.870	-0.430	0.070	1.930
2020/01/31 23:18:04.9	189.840	-0.390	0.010	1.950
2020/01/31 23:18:05.0	189.820	-0.350	-0.040	1.960
2020/01/31 23:18:05.1	189.790	-0.310	-0.080	1.970
2020/01/31 23:18:05.2	189.770	-0.260	-0.130	1.980
2020/01/31 23:18:05.3	189.750	-0.220	-0.170	1.980
2020/01/31 23:18:05.4	189.730	-0.170	-0.210	1.980
2020/01/31 23:18:05.5	189.710	-0.120	-0.240	1.980
2020/01/31 23:18:05.6	189.690	-0.080	-0.270	1.970
2020/01/31 23:18:05.7	189.680	-0.030	-0.290	1.960
2020/01/31 23:18:05.8	189.660	0.010	-0.310	1.950
2020/01/31 23:18:05.9	189.650	0.060	-0.320	1.930
2020/01/31 23:18:06.0	189.640	0.100	-0.320	1.910
2020/01/31 23:18:06.1	189.630	0.140	-0.320	1.890
2020/01/31 23:18:06.2	189.620	0.180	-0.310	1.870
2020/01/31 23:18:06.3	189.620	0.220	-0.290	1.840
2020/01/31 23:18:06.4	189.610	0.250	-0.270	1.810
2020/01/31 23:18:06.5	189.610	0.290	-0.240	1.790
2020/01/31 23:18:06.6	189.600	0.320	-0.210	1.750
2020/01/31 23:18:06.7	189.600	0.340	-0.180	1.720
2020/01/31 23:18:06.8	189.600	0.370	-0.140	1.690
2020/01/31 23:18:06.9	189.600	0.390	-0.090	1.660
2020/01/31 23:18:07.0	189.600	0.410	-0.050	1.620
2020/01/31 23:18:07.1	189.590	0.420	0.000	1.580
2020/01/31 23:18:07.2	189.590	0.430	0.050	1.550
2020/01/31 23:18:07.3	189.590	0.440	0.100	1.510
2020/01/31 23:18:07.4	189.590	0.450	0.150	1.480
2020/01/31 23:18:07.5	189.590	0.450	0.200	1.440
2020/01/31 23:18:07.6	189.590	0.450	0.240	1.410
2020/01/31 23:18:07.7	189.590	0.440	0.280	1.370
2020/01/31 23:18:07.8	189.590	0.440	0.330	1.340
2020/01/31 23:18:07.9	189.590	0.430	0.360	1.310
2020/01/31 23:18:08.0	189.590	0.410	0.400	1.280
2020/01/31 23:18:08.1	189.590	0.400	0.430	1.250
2020/01/31 23:18:08.2	189.600	0.380	0.460	1.220
2020/01/31 23:18:08.3	189.600	0.360	0.480	1.190
2020/01/31 23:18:08.4	189.610	0.340	0.500	1.170
2020/01/31 23:18:08.5	189.620	0.310	0.520	1.140
2020/01/31 23:18:08.6	189.630	0.290	0.530	1.120
2020/01/31 23:18:08.7	189.640	0.260	0.550	1.100
2020/01/31 23:18:08.8	189.650	0.230	0.550	1.080
2020/01/31 23:18:08.9	189.670	0.200	0.560	1.070
2020/01/31 23:18:09.0	189.680	0.160	0.550	1.060
2020/01/31 23:18:09.1	189.700	0.130	0.560	1.040
2020/01/31 23:18:09.2	189.720	0.100	0.550	1.030
2020/01/31 23:18:09.3	189.740	0.060	0.530	1.030
2020/01/31 23:18:09.4	189.770	0.030	0.510	1.030
2020/01/31 23:18:09.5	189.790	-0.010	0.490	1.030
2020/01/31 23:18:09.6	189.810	-0.040	0.460	1.030
2020/01/31 23:18:09.7	189.840	-0.070	0.430	1.040
2020/01/31 23:18:09.8	189.870	-0.100	0.390	1.050
2020/01/31 23:18:09.9	189.890	-0.130	0.350	1.060
2020/01/31 23:18:10.0	189.920	-0.150	0.300	1.070
2020/01/31 23:18:10.1	189.930	-0.180	0.250	1.090
2020/01/31 23:18:10.2	189.950	-0.200	0.190	1.110
2020/01/31 23:18:10.3	189.980	-0.220	0.130	1.130
2020/01/31 23:18:10.4	190.000	-0.230	0.070	1.160
2020/01/31 23:18:10.5	190.020	-0.240	0.000	1.190
2020/01/31 23:18:10.6	190.040	-0.240	-0.070	1.210
2020/01/31 23:18:10.7	190.050	-0.250	-0.140	1.240
2020/01/31 23:18:10.8	190.070	-0.240	-0.220	1.270
2020/01/31 23:18:10.9	190.080	-0.230	-0.300	1.310
2020/01/31 23:18:11.0	190.090	-0.220	-0.380	1.340
2020/01/31 23:18:11.1	190.100	-0.200	-0.460	1.370
2020/01/31 23:18:11.2	190.100	-0.180	-0.540	1.400
2020/01/31 23:18:11.3	190.100	-0.150	-0.630	1.430
2020/01/31 23:18:11.4	190.100	-0.120	-0.710	1.460
2020/01/31 23:18:11.5	190.100	-0.090	-0.790	1.490
2020/01/31 23:18:11.6	190.100	-0.050	-0.880	1.520
2020/01/31 23:18:11.7	190.090	-0.010	-0.960	1.540
2020/01/31 23:18:11.8	190.090	0.030	-1.030	1.560
2020/01/31 23:18:11.9	190.080	0.080	-1.110	1.580
2020/01/31 23:18:12.0	190.070	0.130	-1.170	1.600
2020/01/31 23:18:12.1	190.070	0.180	-1.240	1.620
2020/01/31 23:18:12.2	190.060	0.230	-1.290	1.630
2020/01/31 23:18:12.3	190.050	0.280	-1.340	1.640
2020/01/31 23:18:12.4	190.040	0.330	-1.380	1.650
2020/01/31 23:18:12.5	190.040	0.370	-1.420	1.660
2020/01/31 23:18:12.6	190.030	0.420	-1.440	1.660
2020/01/31 23:18:12.7	190.020	0.460	-1.460	1.670
2020/01/31 23:18:12.8	190.010	0.500	-1.460	1.660
2020/01/31 23:18:12.9	190.000	0.540	-1.460	1.660
2020/01/31 23:18:13.0	190.000	0.580	-1.450	1.660
2020/01/31 23:18:13.1	189.960	0.610	-1.430	1.640
2020/01/31 23:18:13.2	189.950	0.630	-1.400	1.640
2020/01/31 23:18:13.3	189.950	0.650	-1.360	1.620
2020/01/31 23:18:13.4	189.940	0.670	-1.310	1.610
2020/01/31 23:18:13.5	189.940	0.680	-1.260	1.590
2020/01/31 23:18:13.6	189.940	0.680	-1.190	1.570
2020/01/31 23:18:13.7	189.930	0.690	-1.130	1.550
2020/01/31 23:18:13.8	189.930	0.680	-1.050	1.530
2020/01/31 23:18:13.9	189.930	0.670	-0.970	1.510
2020/01/31 23:18:14.0	189.930	0.660	-0.890	1.480
2020/01/31 23:18:14.1	189.940	0.640	-0.810	1.460
2020/01/31 23:18:14.2	189.940	0.610	-0.720	1.440
2020/01/31 23:18:14.3	189.940	0.580	-0.630	1.410
2020/01/31 23:18:14.4	189.950	0.550	-0.550	1.380
2020/01/31 23:18:14.5	189.950	0.510	-0.460	1.360
2020/01/31 23:18:14.6	189.950	0.470	-0.380	1.340
2020/01/31 23:18:14.7	189.960	0.430	-0.300	1.320
2020/01/31 23:18:14.8	189.960	0.380	-0.220	1.290
2020/01/31 23:18:14.9	189.970	0.330	-0.150	1.280
2020/01/31 23:18:15.0	189.970	0.280	-0.080	1.260
2020/01/31 23:18:15.1	189.990	0.230	-0.020	1.240
2020/01/31 23:18:15.2	189.990	0.170	0.030	1.230
2020/01/31 23:18:15.3	190.000	0.120	0.080	1.220
2020/01/31 23:18:15.4	190.010	0.060	0.120	1.220
2020/01/31 23:18:15.5	190.010	0.010	0.160	1.220
2020/01/31 23:18:15.6	190.020	-0.040	0.180	1.220
2020/01/31 23:18:15.7	190.020	-0.090	0.200	1.230
2020/01/31 23:18:15.8	190.020	-0.140	0.220	1.240
2020/01/31 23:18:15.9	190.020	-0.190	0.220	1.260
2020/01/31 23:18:16.0	190.020	-0.240	0.220	1.280
2020/01/31 23:18:16.1	190.020	-0.280	0.210	1.310
2020/01/31 23:18:16.2	190.010	-0.320	0.190	1.330
2020/01/31 23:18:16.3	190.000	-0.350	0.170	1.360
2020/01/31 23:18:16.4	190.000	-0.380	0.140	1.400
2020/01/31 23:18:16.5	189.990	-0.410	0.110	1.430
2020/01/31 23:18:16.6	189.970	-0.430	0.070	1.470
2020/01/31 23:18:16.7	189.960	-0.450	0.030	1.510
2020/01/31 23:18:16.8	189.940	-0.460	-0.020	1.560
2020/01/31 23:18:16.9	189.920	-0.460	-0.070	1.600
2020/01/31 23:18:17.0	189.890	-0.470	-0.120	1.640
2020/01/31 23:18:17.1	189.880	-0.460	-0.170	1.690
2020/01/31 23:18:17.2	189.850	-0.460	-0.220	1.730
2020/01/31 23:18:17.3	189.830	-0.450	-0.270	1.770
2020/01/31 23:18:17.4	189.800	-0.430	-0.320	1.800
2020/01/31 23:18:17.5	189.770	-0.410	-0.360	1.840
2020/01/31 23:18:17.6	189.750	-0.390	-0.400	1.870
2020/01/31 23:18:17.7	189.720	-0.360	-0.440	1.890
2020/01/31 23:18:17.8	189.700	-0.340	-0.470	1.920
2020/01/31 23:18:17.9	189.670	-0.310	-0.500	1.940
2020/01/31 23:18:18.0	189.650	-0.270	-0.520	1.950
2020/01/31 23:18:18.1	189.640	-0.240	-0.530	1.960
2020/01/31 23:18:18.2	189.620	-0.210	-0.540	1.960
2020/01/31 23:18:18.3	189.600	-0.170	-0.540	1.960
2020/01/31 23:18:18.4	189.590	-0.140	-0.530	1.960
2020/01/31 23:18:18.5	189.570	-0.110	-0.520	1.950
2020/01/31 23:18:18.6	189.560	-0.080	-0.500	1.930
2020/01/31 23:18:18.7	189.560	-0.050	-0.470	1.920
2020/01/31 23:18:18.8	189.550	-0.030	-0.440	1.900
2020/01/31 23:18:18.9	189.550	-0.000	-0.400	1.870
2020/01/31 23:18:19.0	189.550	0.020	-0.360	1.850
2020/01/31 23:18:19.1	189.570	0.040	-0.310	1.820
2020/01/31 23:18:19.2	189.570	0.050	-0.260	1.790
2020/01/31 23:18:19.3	189.580	0.060	-0.210	1.760
2020/01/31 23:18:19.4	189.590	0.070	-0.160	1.720
2020/01/31 23:18:19.5	189.610	0.070	-0.110	1.690
2020/01/31 23:18:19.6	189.620	0.070	-0.050	1.660
2020/01/31 23:18:19.7	189.640	0.070	0.000	1.630
2020/01/31 23:18:19.8	189.660	0.060	0.050	1.590
2020/01/31 23:18:19.9	189.680	0.060	0.100	1.560
2020/01/31 23:18:20.0	189.700	0.040	0.150	1.530
2020/01/31 23:18:20.1	189.720	0.030	0.190	1.500
2020/01/31 23:18:20.2	189.740	0.010	0.230	1.470
2020/01/31 23:18:20.3	189.760	-0.010	0.260	1.440
2020/01/31 23:18:20.4	189.770	-0.030	0.280	1.420
2020/01/31 23:18:20.5	189.790	-0.050	0.300	1.390
2020/01/31 23:18:20.6	189.800	-0.070	0.310	1.370
2020/01/31 23:18:20.7	189.810	-0.090	0.320	1.350
2020/01/31 23:18:20.8	189.820	-0.120	0.320	1.340
2020/01/31 23:18:20.9	189.830	-0.140	0.310	1.320
2020/01/31 23:18:21.0	189.840	-0.160	0.290	1.310
2020/01/31 23:18:21.1	189.830	-0.180	0.270	1.300
2020/01/31 23:18:21.2	189.830	-0.200	0.240	1.300
2020/01/31 23:18:21.3	189.830	-0.220	0.200	1.290
2020/01/31 23:18:21.4	189.820	-0.230	0.160	1.290
2020/01/31 23:18:21.5	189.820	-0.240	0.110	1.290
2020/01/31 23:18:21.6	189.810	-0.260	0.060	1.290
2020/01/31 23:18:21.7	189.810	-0.260	0.010	1.290
2020/01/31 23:18:21.8	189.800	-0.270	-0.050	1.290
2020/01/31 23:18:21.9	189.800	-0.270	-0.110	1.290
2020/01/31 23:18:22.0	189.790	-0.280	-0.160	1.300
2020/01/31 23:18:22.1	189.780	-0.270	-0.230	1.300
2020/01/31 23:18:22.2	189.770	-0.270	-0.280	1.300
2020/01/31 23:18:22.3	189.770	-0.270	-0.340	1.300
2020/01/31 23:18:22.4	189.760	-0.260	-0.390	1.300
2020/01/31 23:18:22.5	189.760	-0.250	-0.430	1.290
2020/01/31 23:18:22.6	189.760	-0.240	-0.480	1.290
2020/01/31 23:18:22.7	189.760	-0.220	-0.520	1.290
2020/01/31 23:18:22.8	189.760	-0.210	-0.550	1.290
2020/01/31 23:18:22.9	189.760	-0.190	-0.580	1.290
2020/01/31 23:18:23.0	189.760	-0.180	-0.600	1.290
2020/01/31 23:18:23.1	189.780	-0.160	-0.610	1.290
2020/01/31 23:18:23.2	189.790	-0.140	-0.620	1.300
2020/01/31 23:18:23.3	189.800	-0.130	-0.630	1.300
2020/01/31 23:18:23.4	189.800	-0.110	-0.630	1.300
2020/01/31 23:18:23.5	189.810	-0.090	-0.620	1.300
2020/01/31 23:18:23.6	189.820	-0.070	-0.610	1.300
2020/01/31 23:18:23.7	189.830	-0.060	-0.600	1.300
2020/01/31 23:18:23.8	189.840	-0.040	-0.580	1.300
2020/01/31 23:18:23.9	189.860	-0.030	-0.560	1.300
2020/01/31 23:18:24.0	189.870	-0.010	-0.530	1.290
2020/01/31 23:18:24.1	189.890	0.000	-0.510	1.290
2020/01/31 23:18:24.2	189.910	0.010	-0.480	1.280
2020/01/31 23:18:24.3	189.920	0.030	-0.440	1.280
2020/01/31 23:18:24.4	189.940	0.040	-0.410	1.270
2020/01/31 23:18:24.5	189.950	0.050	-0.380	1.260
2020/01/31 23:18:24.6	189.970	0.050	-0.340	1.250
2020/01/31 23:18:24.7	189.990	0.060	-0.310	1.240
2020/01/31 23:18:24.8	190.000	0.070	-0.280	1.230
2020/01/31 23:18:24.9	190.020	0.080	-0.250	1.220
2020/01/31 23:18:25.0	190.040	0.080	-0.230	1.210
2020/01/31 23:18:25.1	190.060	0.090	-0.200	1.200
2020/01/31 23:18:25.2	190.080	0.090	-0.180	1.190
2020/01/31 23:18:25.3	190.090	0.090	-0.170	1.190
2020/01/31 23:18:25.4	190.110	0.100	-0.160	1.180
2020/01/31 23:18:25.5	190.120	0.100	-0.160	1.180
2020/01/31 23:18:25.6	190.130	0.110	-0.160	1.170
2020/01/31 23:18:25.7	190.140	0.110	-0.160	1.180
2020/01/31 23:18:25.8	190.150	0.120	-0.170	1.180
2020/01/31 23:18:25.9	190.150	0.120	-0.190	1.190
2020/01/31 23:18:26.0	190.160	0.130	-0.210	1.200
2020/01/31 23:18:26.1	190.160	0.140	-0.230	1.210
2020/01/31 23:18:26.2	190.160	0.150	-0.260	1.230
2020/01/31 23:18:26.3	190.150	0.150	-0.290	1.250
2020/01/31 23:18:26.4	190.150	0.160	-0.320	1.270
2020/01/31 23:18:26.5	190.140	0.170	-0.350	1.300
2020/01/31 23:18:26.6	190.130	0.180	-0.390	1.320
2020/01/31 23:18:26.7	190.120	0.190	-0.420	1.350
2020/01/31 23:18:26.8	190.110	0.200	-0.450	1.380
2020/01/31 23:18:26.9	190.100	0.210	-0.480	1.400
2020/01/31 23:18:27.0	190.080	0.220	-0.510	1.430
2020/01/31 23:18:27.1	190.070	0.230	-0.530	1.460
2020/01/31 23:18:27.2	190.060	0.240	-0.550	1.480
2020/01/31 23:18:27.3	190.050	0.250	-0.560	1.510
2020/01/31 23:18:27.4	190.040	0.250	-0.570	1.530
2020/01/31 23:18:27.5	190.030	0.260	-0.570	1.550
2020/01/31 23:18:27.6	190.020	0.260	-0.560	1.570
2020/01/31 23:18:27.7	190.010	0.260	-0.550	1.590
2020/01/31 23:18:27.8	190.000	0.250	-0.530	1.610
2020/01/31 23:18:27.9	190.000	0.250	-0.510	1.620
2020/01/31 23:18:28.0	189.990	0.240	-0.470	1.640
2020/01/31 23:18:28.1	189.980	0.230	-0.430	1.660
2020/01/31 23:18:28.2	189.980	0.220	-0.380	1.680
2020/01/31 23:18:28.3	189.980	0.200	-0.330	1.700
2020/01/31 23:18:28.4	189.980	0.180	-0.280	1.720
2020/01/31 23:18:28.5	189.980	0.160	-0.220	1.730
2020/01/31 23:18:28.6	189.980	0.130	-0.160	1.750
2020/01/31 23:18:28.7	189.980	0.110	-0.090	1.770
2020/01/31 23:18:28.8	189.980	0.080	-0.020	1.780
2020/01/31 23:18:28.9	189.990	0.040	0.050	1.800
2020/01/31 23:18:29.0	189.990	0.010	0.110	1.810
2020/01/31 23:18:29.1	189.990	-0.020	0.180	1.830
2020/01/31 23:18:29.2	189.990	-0.060	0.240	1.840
2020/01/31 23:18:29.3	189.990	-0.090	0.300	1.850
2020/01/31 23:18:29.4	189.990	-0.130	0.360	1.860
2020/01/31 23:18:29.5	189.990	-0.160	0.410	1.870
2020/01/31 23:18:29.6	189.980	-0.200	0.460	1.890
2020/01/31 23:18:29.7	189.980	-0.230	0.500	1.900
2020/01/31 23:18:29.8	189.970	-0.260	0.530	1.900
2020/01/31 23:18:29.9	189.960	-0.290	0.550	1.910
2020/01/31 23:18:30.0	189.950	-0.320	0.570	1.920
2020/01/31 23:18:30.1	189.920	-0.350	0.580	1.930
2020/01/31 23:18:30.2	189.910	-0.370	0.580	1.940
2020/01/31 23:18:30.3	189.890	-0.390	0.560	1.940
2020/01/31 23:18:30.4	189.860	-0.400	0.540	1.950
2020/01/31 23:18:30.5	189.840	-0.420	0.510	1.960
2020/01/31 23:18:30.6	189.810	-0.420	0.480	1.970
2020/01/31 23:18:30.7	189.780	-0.430	0.430	1.980
2020/01/31 23:18:30.8	189.760	-0.430	0.380	1.980
2020/01/31 23:18:30.9	189.730	-0.420	0.310	1.990
2020/01/31 23:18:31.0	189.700	-0.410	0.250	2.000
2020/01/31 23:18:31.1	189.670	-0.400	0.170	2.000
2020/01/31 23:18:31.2	189.640	-0.380	0.090	2.000
2020/01/31 23:18:31.3	189.610	-0.360	0.010	2.010
2020/01/31 23:18:31.4	189.580	-0.340	-0.070	2.010
2020/01/31 23:18:31.5	189.550	-0.310	-0.160	2.010
2020/01/31 23:18:31.6	189.520	-0.280	-0.240	2.000
2020/01/31 23:18:31.7	189.500	-0.250	-0.330	2.000
2020/01/31 23:18:31.8	189.470	-0.210	-0.410	1.990
2020/01/31 23:18:31.9	189.450	-0.170	-0.480	1.980
2020/01/31 23:18:32.0	189.430	-0.130	-0.560	1.960
2020/01/31 23:18:32.1	189.380	-0.090	-0.630	1.950
2020/01/31 23:18:32.2	189.370	-0.050	-0.690	1.930
2020/01/31 23:18:32.3	189.350	-0.000	-0.740	1.900
2020/01/31 23:18:32.4	189.340	0.040	-0.790	1.870
2020/01/31 23:18:32.5	189.330	0.080	-0.830	1.840
2020/01/31 23:18:32.6	189.320	0.130	-0.860	1.800
2020/01/31 23:18:32.7	189.320	0.170	-0.880	1.760
2020/01/31 23:18:32.8	189.320	0.210	-0.890	1.720
2020/01/31 23:18:32.9	189.320	0.240	-0.890	1.670
2020/01/31 23:18:33.0	189.320	0.280	-0.880	1.620
2020/01/31 23:18:33.1	189.320	0.310	-0.870	1.560
2020/01/31 23:18:33.2	189.330	0.340	-0.840	1.510
2020/01/31 23:18:33.3	189.340	0.370	-0.810	1.450
2020/01/31 23:18:33.4	189.360	0.390	-0.770	1.380
2020/01/31 23:18:33.5	189.390	0.410	-0.720	1.320
2020/01/31 23:18:33.6	189.410	0.430	-0.670	1.250
2020/01/31 23:18:33.7	189.440	0.440	-0.620	1.190
2020/01/31 23:18:33.8	189.470	0.450	-0.560	1.120
2020/01/31 23:18:33.9	189.500	0.450	-0.500	1.050
2020/01/31 23:18:34.0	189.530	0.460	-0.440	0.980
2020/01/31 23:18:34.1	189.570	0.450	-0.370	0.910
2020/01/31 23:18:34.2	189.610	0.450	-0.320	0.840
2020/01/31 23:18:34.3	189.640	0.440	-0.260	0.780
2020/01/31 23:18:34.4	189.680	0.430	-0.210	0.720
2020/01/31 23:18:34.5	189.720	0.420	-0.160	0.660
2020/01/31 23:18:34.6	189.750	0.410	-0.120	0.600
2020/01/31 23:18:34.7	189.790	0.390	-0.090	0.540
2020/01/31 23:18:34.8	189.830	0.380	-0.060	0.490
2020/01/31 23:18:34.9	189.860	0.360	-0.050	0.440
2020/01/31 23:18:35.0	189.890	0.340	-0.040	0.390
2020/01/31 23:18:35.1	189.910	0.320	-0.040	0.350
2020/01/31 23:18:35.2	189.940	0.310	-0.040	0.310
2020/01/31 23:18:35.3	189.970	0.290	-0.060	0.270
2020/01/31 23:18:35.4	190.000	0.270	-0.080	0.240
2020/01/31 23:18:35.5	190.020	0.250	-0.100	0.210
2020/01/31 23:18:35.6	190.040	0.240	-0.140	0.190
2020/01/31 23:18:35.7	190.060	0.220	-0.180	0.170
2020/01/31 23:18:35.8	190.080	0.210	-0.230	0.160
2020/01/31 23:18:35.9	190.100	0.190	-0.270	0.160
2020/01/31 23:18:36.0	190.120	0.180	-0.330	0.160
2020/01/31 23:18:36.1	190.140	0.170	-0.390	0.170
2020/01/31 23:18:36.2	190.150	0.160	-0.440	0.190
2020/01/31 23:18:36.3	190.160	0.150	-0.500	0.210
2020/01/31 23:18:36.4	190.170	0.140	-0.560	0.240
2020/01/31 23:18:36.5	190.180	0.130	-0.620	0.270
2020/01/31 23:18:36.6	190.180	0.120	-0.680	0.310
2020/01/31 23:18:36.7	190.180	0.120	-0.730	0.350
2020/01/31 23:18:36.8	190.180	0.110	-0.780	0.400
2020/01/31 23:18:36.9	190.180	0.100	-0.830	0.450
2020/01/31 23:18:37.0	190.180	0.100	-0.870	0.500
2020/01/31 23:18:37.1	190.170	0.090	-0.910	0.570
2020/01/31 23:18:37.2	190.170	0.090	-0.940	0.630
2020/01/31 23:18:37.3	190.160	0.080	-0.960	0.700
2020/01/31 23:18:37.4	190.150	0.070	-0.980	0.760
2020/01/31 23:18:37.5	190.140	0.060	-0.990	0.830
2020/01/31 23:18:37.6	190.140	0.050	-0.990	0.890
2020/01/31 23:18:37.7	190.130	0.040	-0.990	0.960
2020/01/31 23:18:37.8	190.120	0.030	-0.980	1.030
2020/01/31 23:18:37.9	190.110	0.020	-0.970	1.090
2020/01/31 23:18:38.0	190.100	0.000	-0.940	1.150
2020/01/31 23:18:38.1	190.110	-0.010	-0.910	1.210
2020/01/31 23:18:38.2	190.100	-0.030	-0.880	1.270
2020/01/31 23:18:38.3	190.090	-0.050	-0.840	1.320
2020/01/31 23:18:38.4	190.080	-0.070	-0.790	1.370
2020/01/31 23:18:38.5	190.080	-0.100	-0.740	1.420
2020/01/31 23:18:38.6	190.070	-0.120	-0.690	1.470
2020/01/31 23:18:38.7	190.060	-0.150	-0.630	1.510
2020/01/31 23:18:38.8	190.060	-0.180	-0.570	1.550
2020/01/31 23:18:38.9	190.060	-0.210	-0.510	1.590
2020/01/31 23:18:39.0	190.060	-0.240	-0.440	1.620
2020/01/31 23:18:39.1	190.080	-0.280	-0.370	1.650
2020/01/31 23:18:39.2	190.080	-0.320	-0.310	1.680
2020/01/31 23:18:39.3	190.080	-0.350	-0.240	1.700
2020/01/31 23:18:39.4	190.090	-0.390	-0.170	1.730
2020/01/31 23:18:39.5	190.090	-0.430	-0.100	1.750
2020/01/31 23:18:39.6	190.100	-0.470	-0.030	1.780
2020/01/31 23:18:39.7	190.100	-0.510	0.030	1.800
2020/01/31 23:18:39.8	190.110	-0.540	0.090	1.820
2020/01/31 23:18:39.9	190.110	-0.580	0.150	1.850
2020/01/31 23:18:40.0	190.120	-0.620	0.200	1.870
2020/01/31 23:18:40.1	190.110	-0.650	0.250	1.900
2020/01/31 23:18:40.2	190.120	-0.680	0.290	1.920
2020/01/31 23:18:40.3	190.120	-0.710	0.330	1.950
2020/01/31 23:18:40.4	190.130	-0.740	0.370	1.970
2020/01/31 23:18:40.5	190.130	-0.760	0.400	1.990
2020/01/31 23:18:40.6	190.130	-0.780	0.420	2.020
2020/01/31 23:18:40.7	190.130	-0.790	0.440	2.040
2020/01/31 23:18:40.8	190.140	-0.800	0.450	2.050
2020/01/31 23:18:40.9	190.140	-0.810	0.460	2.070
2020/01/31 23:18:41.0	190.140	-0.810	0.460	2.090
2020/01/31 23:18:41.1	190.130	-0.810	0.460	2.090
2020/01/31 23:18:41.2	190.140	-0.800	0.460	2.100
2020/01/31 23:18:41.3	190.140	-0.790	0.450	2.110
2020/01/31 23:18:41.4	190.130	-0.770	0.440	2.110
2020/01/31 23:18:41.5	190.130	-0.750	0.420	2.100
2020/01/31 23:18:41.6	190.130	-0.720	0.400	2.100
2020/01/31 23:18:41.7	190.120	-0.680	0.380	2.090
2020/01/31 23:18:41.8	190.120	-0.640	0.350	2.080
2020/01/31 23:18:41.9	190.110	-0.590	0.320	2.060
2020/01/31 23:18:42.0	190.100	-0.540	0.290	2.050
2020/01/31 23:18:42.1	190.100	-0.490	0.260	2.030
2020/01/31 23:18:42.2	190.090	-0.430	0.230	2.010
2020/01/31 23:18:42.3	190.070	-0.360	0.190	1.990
2020/01/31 23:18:42.4	190.050	-0.300	0.150	1.970
2020/01/31 23:18:42.5	190.030	-0.230	0.120	1.950
2020/01/31 23:18:42.6	190.000	-0.150	0.080	1.930
2020/01/31 23:18:42.7	189.970	-0.080	0.040	1.910
2020/01/31 23:18:42.8	189.940	0.000	-0.000	1.890
2020/01/31 23:18:42.9	189.910	0.080	-0.040	1.870
2020/01/31 23:18:43.0	189.880	0.160	-0.080	1.850
2020/01/31 23:18:43.1	189.840	0.230	-0.120	1.820
2020/01/31 23:18:43.2	189.810	0.310	-0.150	1.800
2020/01/31 23:18:43.3	189.780	0.380	-0.190	1.770
2020/01/31 23:18:43.4	189.740	0.460	-0.220	1.750
2020/01/31 23:18:43.5	189.710	0.520	-0.250	1.720
2020/01/31 23:18:43.6	189.680	0.590	-0.280	1.690
2020/01/31 23:18:43.7	189.650	0.650	-0.300	1.670
2020/01/31 23:18:43.8	189.620	0.700	-0.320	1.640
2020/01/31 23:18:43.9	189.590	0.750	-0.340	1.600
2020/01/31 23:18:44.0	189.570	0.800	-0.360	1.570
2020/01/31 23:18:44.1	189.540	0.840	-0.370	1.540
2020/01/31 23:18:44.2	189.520	0.870	-0.380	1.500
2020/01/31 23:18:44.3	189.500	0.890	-0.380	1.480
2020/01/31 23:18:44.4	189.490	0.910	-0.380	1.450
2020/01/31 23:18:44.5	189.480	0.920	-0.370	1.420
2020/01/31 23:18:44.6	189.470	0.920	-0.360	1.390
2020/01/31 23:18:44.7	189.460	0.920	-0.350	1.360
2020/01/31 23:18:44.8	189.450	0.910	-0.340	1.340
2020/01/31 23:18:44.9	189.450	0.900	-0.320	1.310
2020/01/31 23:18:45.0	189.450	0.870	-0.290	1.290
2020/01/31 23:18:45.1	189.450	0.840	-0.270	1.270
2020/01/31 23:18:45.2	189.460	0.810	-0.240	1.240
2020/01/31 23:18:45.3	189.470	0.770	-0.210	1.220
2020/01/31 23:18:45.4	189.490	0.720	-0.170	1.200
2020/01/31 23:18:45.5	189.500	0.680	-0.140	1.170
2020/01/31 23:18:45.6	189.530	0.620	-0.100	1.150
2020/01/31 23:18:45.7	189.550	0.560	-0.070	1.130
2020/01/31 23:18:45.8	189.580	0.500	-0.030	1.100
2020/01/31 23:18:45.9	189.610	0.440	0.010	1.080
2020/01/31 23:18:46.0	189.640	0.370	0.040	1.060
2020/01/31 23:18:46.1	189.670	0.310	0.080	1.030
2020/01/31 23:18:46.2	189.710	0.240	0.120	1.000
2020/01/31 23:18:46.3	189.760	0.170	0.150	0.980
2020/01/31 23:18:46.4	189.800	0.100	0.180	0.960
2020/01/31 23:18:46.5	189.850	0.030	0.210	0.940
2020/01/31 23:18:46.6	189.890	-0.030	0.230	0.920
2020/01/31 23:18:46.7	189.940	-0.100	0.250	0.900
2020/01/31 23:18:46.8	189.990	-0.160	0.260	0.890
2020/01/31 23:18:46.9	190.030	-0.220	0.270	0.880
2020/01/31 23:18:47.0	190.080	-0.270	0.270	0.880
2020/01/31 23:18:47.1	190.130	-0.320	0.260	0.880
2020/01/31 23:18:47.2	190.170	-0.370	0.250	0.880
2020/01/31 23:18:47.3	190.200	-0.410	0.230	0.890
2020/01/31 23:18:47.4	190.240	-0.450	0.190	0.900
2020/01/31 23:18:47.5	190.260	-0.470	0.150	0.920
2020/01/31 23:18:47.6	190.290	-0.500	0.100	0.940
2020/01/31 23:18:47.7	190.310	-0.510	0.040	0.970
2020/01/31 23:18:47.8	190.320	-0.520	-0.020	1.000
2020/01/31 23:18:47.9	190.330	-0.520	-0.100	1.040
2020/01/31 23:18:48.0	190.340	-0.520	-0.190	1.080
2020/01/31 23:18:48.1	190.340	-0.510	-0.280	1.120
2020/01/31 23:18:48.2	190.340	-0.490	-0.380	1.160
2020/01/31 23:18:48.3	190.330	-0.460	-0.490	1.210
2020/01/31 23:18:48.4	190.320	-0.430	-0.600	1.260
2020/01/31 23:18:48.5	190.300	-0.400	-0.710	1.300
2020/01/31 23:18:48.6	190.280	-0.360	-0.830	1.350
2020/01/31 23:18:48.7	190.260	-0.310	-0.940	1.400
2020/01/31 23:18:48.8	190.240	-0.270	-1.060	1.450
2020/01/31 23:18:48.9	190.210	-0.220	-1.170	1.500
2020/01/31 23:18:49.0	190.190	-0.160	-1.280	1.540
2020/01/31 23:18:49.1	190.160	-0.110	-1.390	1.590
2020/01/31 23:18:49.2	190.130	-0.050	-1.490	1.630
2020/01/31 23:18:49.3	190.100	0.000	-1.580	1.670
2020/01/31 23:18:49.4	190.070	0.050	-1.660	1.710
2020/01/31 23:18:49.5	190.040	0.110	-1.740	1.750
2020/01/31 23:18:49.6	190.010	0.160	-1.800	1.780
2020/01/31 23:18:49.7	189.990	0.200	-1.840	1.810
2020/01/31 23:18:49.8	189.960	0.250	-1.880	1.840
2020/01/31 23:18:49.9	189.940	0.280	-1.900	1.870
2020/01/31 23:18:50.0	189.920	0.320	-1.910	1.890
2020/01/31 23:18:50.1	189.890	0.340	-1.900	1.910
2020/01/31 23:18:50.2	189.870	0.370	-1.880	1.930
2020/01/31 23:18:50.3	189.860	0.380	-1.850	1.940
2020/01/31 23:18:50.4	189.850	0.390	-1.800	1.950
2020/01/31 23:18:50.5	189.840	0.400	-1.740	1.970
2020/01/31 23:18:50.6	189.840	0.400	-1.670	1.970
2020/01/31 23:18:50.7	189.840	0.390	-1.590	1.980
2020/01/31 23:18:50.8	189.840	0.370	-1.490	1.980
2020/01/31 23:18:50.9	189.840	0.350	-1.380	1.980
2020/01/31 23:18:51.0	189.850	0.320	-1.270	1.980
2020/01/31 23:18:51.1	189.860	0.290	-1.140	1.970
2020/01/31 23:18:51.2	189.870	0.250	-1.010	1.960
2020/01/31 23:18:51.3	189.890	0.210	-0.870	1.950
2020/01/31 23:18:51.4	189.910	0.160	-0.730	1.930
2020/01/31 23:18:51.5	189.930	0.110	-0.580	1.920
2020/01/31 23:18:51.6	189.950	0.060	-0.430	1.890
2020/01/31 23:18:51.7	189.970	-0.000	-0.280	1.870
2020/01/31 23:18:51.8	190.000	-0.060	-0.130	1.840
2020/01/31 23:18:51.9	190.030	-0.120	0.020	1.810
2020/01/31 23:18:52.0	190.060	-0.180	0.170	1.780
2020/01/31 23:18:52.1	190.100	-0.240	0.310	1.740
2020/01/31 23:18:52.2	190.130	-0.300	0.450	1.700
2020/01/31 23:18:52.3	190.160	-0.360	0.580	1.660
2020/01/31 23:18:52.4	190.200	-0.420	0.710	1.620
2020/01/31 23:18:52.5	190.230	-0.470	0.820	1.580
2020/01/31 23:18:52.6	190.260	-0.520	0.930	1.540
2020/01/31 23:18:52.7	190.280	-0.570	1.030	1.490
2020/01/31 23:18:52.8	190.310	-0.610	1.110	1.450
2020/01/31 23:18:52.9	190.330	-0.650	1.180	1.410
2020/01/31 23:18:53.0	190.360	-0.680	1.240	1.370
2020/01/31 23:18:53.1	190.350	-0.700	1.290	1.320
2020/01/31 23:18:53.2	190.370	-0.720	1.330	1.290
2020/01/31 23:18:53.3	190.380	-0.730	1.350	1.250
2020/01/31 23:18:53.4	190.390	-0.730	1.360	1.220
2020/01/31 23:18:53.5	190.400	-0.730	1.360	1.190
2020/01/31 23:18:53.6	190.410	-0.720	1.340	1.160
2020/01/31 23:18:53.7	190.410	-0.710	1.310	1.140
2020/01/31 23:18:53.8	190.410	-0.690	1.270	1.110
2020/01/31 23:18:53.9	190.410	-0.660	1.220	1.090
2020/01/31 23:18:54.0	190.420	-0.630	1.170	1.080
2020/01/31 23:18:54.1	190.400	-0.590	1.100	1.060
2020/01/31 23:18:54.2	190.400	-0.550	1.020	1.050
2020/01/31 23:18:54.3	190.400	-0.500	0.940	1.040
2020/01/31 23:18:54.4	190.400	-0.450	0.850	1.030
2020/01/31 23:18:54.5	190.400	-0.400	0.760	1.030
2020/01/31 23:18:54.6	190.390	-0.340	0.660	1.030
2020/01/31 23:18:54.7	190.390	-0.280	0.560	1.030
2020/01/31 23:18:54.8	190.380	-0.220	0.460	1.040
2020/01/31 23:18:54.9	190.370	-0.160	0.350	1.050
2020/01/31 23:18:55.0	190.370	-0.100	0.250	1.060
2020/01/31 23:18:55.1	190.370	-0.030	0.150	1.070
2020/01/31 23:18:55.2	190.360	0.030	0.040	1.090
2020/01/31 23:18:55.3	190.350	0.090	-0.060	1.100
2020/01/31 23:18:55.4	190.340	0.150	-0.150	1.120
2020/01/31 23:18:55.5	190.330	0.200	-0.250	1.140
2020/01/31 23:18:55.6	190.320	0.260	-0.340	1.150
2020/01/31 23:18:55.7	190.300	0.310	-0.420	1.170
2020/01/31 23:18:55.8	190.290	0.360	-0.490	1.190
2020/01/31 23:18:55.9	190.270	0.400	-0.570	1.200
2020/01/31 23:18:56.0	190.260	0.450	-0.630	1.220
2020/01/31 23:18:56.1	190.230	0.490	-0.680	1.230
2020/01/31 23:18:56.2	190.210	0.520	-0.730	1.250
2020/01/31 23:18:56.3	190.190	0.550	-0.770	1.260
2020/01/31 23:18:56.4	190.170	0.580	-0.810	1.270
2020/01/31 23:18:56.5	190.150	0.600	-0.840	1.280
2020/01/31 23:18:56.6	190.130	0.620	-0.860	1.290
2020/01/31 23:18:56.7	190.110	0.630	-0.870	1.300
2020/01/31 23:18:56.8	190.090	0.640	-0.880	1.300
2020/01/31 23:18:56.9	190.070	0.640	-0.880	1.310
2020/01/31 23:18:57.0	190.040	0.640	-0.870	1.320
2020/01/31 23:18:57.1	190.020	0.640	-0.870	1.330
2020/01/31 23:18:57.2	190.000	0.630	-0.850	1.340
2020/01/31 23:18:57.3	189.970	0.620	-0.830	1.350
2020/01/31 23:18:57.4	189.950	0.610	-0.810	1.360
2020/01/31 23:18:57.5	189.930	0.590	-0.790	1.370
2020/01/31 23:18:57.6	189.910	0.570	-0.760	1.380
2020/01/31 23:18:57.7	189.890	0.550	-0.730	1.400
2020/01/31 23:18:57.8	189.870	0.530	-0.710	1.410
2020/01/31 23:18:57.9	189.850	0.500	-0.680	1.430
2020/01/31 23:18:58.0	189.830	0.470	-0.650	1.450
2020/01/31 23:18:58.1	189.810	0.450	-0.620	1.460
2020/01/31 23:18:58.2	189.790	0.420	-0.590	1.480
2020/01/31 23:18:58.3	189.780	0.390	-0.570	1.500
2020/01/31 23:18:58.4	189.760	0.360	-0.540	1.520
2020/01/31 23:18:58.5	189.750	0.340	-0.510	1.540
2020/01/31 23:18:58.6	189.740	0.310	-0.490	1.560
2020/01/31 23:18:58.7	189.730	0.280	-0.470	1.570
2020/01/31 23:18:58.8	189.720	0.260	-0.450	1.590
2020/01/31 23:18:58.9	189.710	0.230	-0.430	1.600
2020/01/31 23:18:59.0	189.710	0.210	-0.410	1.610
2020/01/31 23:18:59.1	189.710	0.180	-0.390	1.620
2020/01/31 23:18:59.2	189.710	0.160	-0.370	1.620
2020/01/31 23:18:59.3	189.710	0.140	-0.350	1.630
2020/01/31 23:18:59.4	189.710	0.120	-0.340	1.620
2020/01/31 23:18:59.5	189.720	0.100	-0.320	1.620
2020/01/31 23:18:59.6	189.730	0.080	-0.300	1.610
2020/01/31 23:18:59.7	189.740	0.060	-0.280	1.590
2020/01/31 23:18:59.8	189.760	0.040	-0.260	1.580
2020/01/31 23:18:59.9	189.780	0.020	-0.240	1.550
2020/01/31 23:19:00.0	189.810	-0.000	-0.210	1.530
2020/01/31 23:19:00.1	189.850	-0.020	-0.190	1.500
2020/01/31 23:19:00.2	189.880	-0.050	-0.170	1.470
2020/01/31 23:19:00.3	189.920	-0.070	-0.140	1.430
2020/01/31 23:19:00.4	189.960	-0.090	-0.110	1.400
2020/01/31 23:19:00.5	190.010	-0.120	-0.080	1.360
2020/01/31 23:19:00.6	190.060	-0.150	-0.050	1.320
2020/01/31 23:19:00.7	190.110	-0.170	-0.020	1.280
2020/01/31 23:19:00.8	190.170	-0.200	0.010	1.240
2020/01/31 23:19:00.9	190.230	-0.230	0.040	1.200
2020/01/31 23:19:01.0	190.280	-0.260	0.070	1.160
2020/01/31 23:19:01.1	190.350	-0.290	0.100	1.120
2020/01/31 23:19:01.2	190.410	-0.320	0.120	1.090
2020/01/31 23:19:01.3	190.470	-0.340	0.140	1.060
2020/01/31 23:19:01.4	190.520	-0.370	0.150	1.030
2020/01/31 23:19:01.5	190.580	-0.400	0.160	1.010
2020/01/31 23:19:01.6	190.640	-0.430	0.170	0.980
2020/01/31 23:19:01.7	190.690	-0.450	0.170	0.970
2020/01/31 23:19:01.8	190.740	-0.470	0.170	0.960
2020/01/31 23:19:01.9	190.780	-0.490	0.160	0.950
2020/01/31 23:19:02.0	190.820	-0.510	0.140	0.940
2020/01/31 23:19:02.1	190.850	-0.520	0.120	0.950
2020/01/31 23:19:02.2	190.880	-0.530	0.090	0.950
2020/01/31 23:19:02.3	190.900	-0.540	0.050	0.960
2020/01/31 23:19:02.4	190.920	-0.540	0.010	0.970
2020/01/31 23:19:02.5	190.940	-0.540	-0.040	0.990
2020/01/31 23:19:02.6	190.940	-0.530	-0.090	1.010
2020/01/31 23:19:02.7	190.940	-0.510	-0.150	1.030
2020/01/31 23:19:02.8	190.940	-0.490	-0.220	1.060
2020/01/31 23:19:02.9	190.930	-0.470	-0.290	1.080
2020/01/31 23:19:03.0	190.910	-0.430	-0.360	1.110
2020/01/31 23:19:03.1	190.870	-0.400	-0.430	1.140
2020/01/31 23:19:03.2	190.840	-0.350	-0.510	1.170
2020/01/31 23:19:03.3	190.800	-0.300	-0.590	1.210
2020/01/31 23:19:03.4	190.770	-0.250	-0.660	1.240
2020/01/31 23:19:03.5	190.720	-0.200	-0.740	1.270
2020/01/31 23:19:03.6	190.680	-0.140	-0.810	1.300
2020/01/31 23:19:03.7	190.640	-0.070	-0.870	1.330
2020/01/31 23:19:03.8	190.590	-0.010	-0.930	1.360
2020/01/31 23:19:03.9	190.540	0.060	-0.990	1.380
2020/01/31 23:19:04.0	190.500	0.120	-1.030	1.400
2020/01/31 23:19:04.1	190.470	0.190	-1.070	1.430
2020/01/31 23:19:04.2	190.430	0.250	-1.100	1.450
2020/01/31 23:19:04.3	190.400	0.320	-1.120	1.460
2020/01/31 23:19:04.4	190.360	0.380	-1.130	1.470
2020/01/31 23:19:04.5	190.330	0.430	-1.120	1.480
2020/01/31 23:19:04.6	190.300	0.480	-1.110	1.490
2020/01/31 23:19:04.7	190.270	0.530	-1.090	1.500
2020/01/31 23:19:04.8	190.260	0.570	-1.060	1.500
2020/01/31 23:19:04.9	190.240	0.610	-1.020	1.500
2020/01/31 23:19:05.0	190.230	0.640	-0.970	1.500
2020/01/31 23:19:05.1	190.210	0.660	-0.910	1.500
2020/01/31 23:19:05.2	190.210	0.680	-0.840	1.500
2020/01/31 23:19:05.3	190.210	0.690	-0.770	1.490
2020/01/31 23:19:05.4	190.220	0.690	-0.690	1.490
2020/01/31 23:19:05.5	190.230	0.680	-0.610	1.490
2020/01/31 23:19:05.6	190.240	0.670	-0.520	1.490
2020/01/31 23:19:05.7	190.260	0.650	-0.430	1.480
2020/01/31 23:19:05.8	190.280	0.620	-0.340	1.480
2020/01/31 23:19:05.9	190.300	0.590	-0.250	1.470
2020/01/31 23:19:06.0	190.320	0.550	-0.150	1.470
2020/01/31 23:19:06.1	190.350	0.510	-0.060	1.460
2020/01/31 23:19:06.2	190.370	0.460	0.030	1.460
2020/01/31 23:19:06.3	190.400	0.400	0.120	1.450
2020/01/31 23:19:06.4	190.420	0.340	0.210	1.450
2020/01/31 23:19:06.5	190.450	0.280	0.280	1.450
2020/01/31 23:19:06.6	190.470	0.220	0.360	1.450
2020/01/31 23:19:06.7	190.490	0.150	0.430	1.460
2020/01/31 23:19:06.8	190.510	0.080	0.490	1.460
2020/01/31 23:19:06.9	190.530	0.020	0.540	1.470
2020/01/31 23:19:07.0	190.550	-0.050	0.590	1.480
2020/01/31 23:19:07.1	190.550	-0.120	0.630	1.490
2020/01/31 23:19:07.2	190.560	-0.180	0.650	1.510
2020/01/31 23:19:07.3	190.570	-0.250	0.670	1.530
2020/01/31 23:19:07.4	190.570	-0.310	0.680	1.550
2020/01/31 23:19:07.5	190.570	-0.360	0.680	1.580
2020/01/31 23:19:07.6	190.560	-0.410	0.670	1.610
2020/01/31 23:19:07.7	190.550	-0.460	0.650	1.650
2020/01/31 23:19:07.8	190.540	-0.500	0.630	1.690
2020/01/31 23:19:07.9	190.520	-0.530	0.590	1.730
2020/01/31 23:19:08.0	190.500	-0.560	0.550	1.770
2020/01/31 23:19:08.1	190.470	-0.580	0.500	1.820
2020/01/31 23:19:08.2	190.450	-0.600	0.440	1.870
2020/01/31 23:19:08.3	190.420	-0.610	0.380	1.920
2020/01/31 23:19:08.4	190.390	-0.620	0.310	1.980
2020/01/31 23:19:08.5	190.350	-0.620	0.240	2.030
2020/01/31 23:19:08.6	190.320	-0.610	0.170	2.090
2020/01/31 23:19:08.7	190.280	-0.600	0.100	2.140
2020/01/31 23:19:08.8	190.250	-0.590	0.030	2.200
2020/01/31 23:19:08.9	190.210	-0.570	-0.050	2.250
2020/01/31 23:19:09.0	190.170	-0.540	-0.120	2.310
2020/01/31 23:19:09.1	190.130	-0.510	-0.190	2.360
2020/01/31 23:19:09.2	190.100	-0.480	-0.260	2.410
2020/01/31 23:19:09.3	190.060	-0.450	-0.320	2.460
2020/01/31 23:19:09.4	190.030	-0.420	-0.390	2.500
2020/01/31 23:19:09.5	190.000	-0.380	-0.440	2.530
2020/01/31 23:19:09.6	189.970	-0.340	-0.490	2.570
2020/01/31 23:19:09.7	189.940	-0.310	-0.540	2.590
2020/01/31 23:19:09.8	189.920	-0.270	-0.580	2.610
2020/01/31 23:19:09.9	189.900	-0.230	-0.620	2.630
2020/01/31 23:19:10.0	189.880	-0.200	-0.650	2.640
2020/01/31 23:19:10.1	189.870	-0.160	-0.680	2.640
2020/01/31 23:19:10.2	189.860	-0.130	-0.700	2.640
2020/01/31 23:19:10.3	189.850	-0.090	-0.710	2.630
2020/01/31 23:19:10.4	189.840	-0.060	-0.720	2.620
2020/01/31 23:19:10.5	189.830	-0.030	-0.730	2.600
2020/01/31 23:19:10.6	189.820	-0.000	-0.730	2.570
2020/01/31 23:19:10.7	189.820	0.020	-0.720	2.540
2020/01/31 23:19:10.8	189.820	0.040	-0.710	2.510
2020/01/31 23:19:10.9	189.820	0.060	-0.700	2.470
2020/01/31 23:19:11.0	189.820	0.080	-0.680	2.420
2020/01/31 23:19:11.1	189.830	0.100	-0.660	2.370
2020/01/31 23:19:11.2	189.840	0.110	-0.630	2.320
2020/01/31 23:19:11.3	189.850	0.120	-0.610	2.270
2020/01/31 23:19:11.4	189.850	0.140	-0.580	2.210
2020/01/31 23:19:11.5	189.860	0.150	-0.550	2.150
2020/01/31 23:19:11.6	189.870	0.150	-0.520	2.080
2020/01/31 23:19:11.7	189.880	0.160	-0.490	2.020
2020/01/31 23:19:11.8	189.890	0.170	-0.460	1.950
2020/01/31 23:19:11.9	189.900	0.170	-0.420	1.880
2020/01/31 23:19:12.0	189.920	0.180	-0.390	1.810
2020/01/31 23:19:12.1	189.920	0.190	-0.360	1.730
2020/01/31 23:19:12.2	189.940	0.190	-0.330	1.660
2020/01/31 23:19:12.3	189.950	0.200	-0.310	1.580
2020/01/31 23:19:12.4	189.960	0.200	-0.280	1.510
2020/01/31 23:19:12.5	189.970	0.210	-0.260	1.440
2020/01/31 23:19:12.6	189.980	0.220	-0.240	1.360
2020/01/31 23:19:12.7	190.000	0.230	-0.220	1.290
2020/01/31 23:19:12.8	190.010	0.230	-0.200	1.220
2020/01/31 23:19:12.9	190.020	0.240	-0.190	1.140
2020/01/31 23:19:13.0	190.040	0.250	-0.170	1.070
2020/01/31 23:19:13.1	190.030	0.260	-0.160	1.000
2020/01/31 23:19:13.2	190.050	0.270	-0.160	0.940
2020/01/31 23:19:13.3	190.060	0.270	-0.150	0.870
2020/01/31 23:19:13.4	190.080	0.280	-0.150	0.810
2020/01/31 23:19:13.5	190.090	0.290	-0.150	0.750
2020/01/31 23:19:13.6	190.110	0.290	-0.150	0.700
2020/01/31 23:19:13.7	190.120	0.300	-0.150	0.650
2020/01/31 23:19:13.8	190.130	0.300	-0.150	0.600
2020/01/31 23:19:13.9	190.150	0.310	-0.160	0.550
2020/01/31 23:19:14.0	190.160	0.310	-0.170	0.510
2020/01/31 23:19:14.1	190.180	0.310	-0.170	0.480
2020/01/31 23:19:14.2	190.190	0.300	-0.180	0.440
2020/01/31 23:19:14.3	190.210	0.300	-0.190	0.410
2020/01/31 23:19:14.4	190.220	0.290	-0.210	0.390
2020/01/31 23:19:14.5	190.240	0.280	-0.220	0.370
2020/01/31 23:19:14.6	190.250	0.280	-0.230	0.360
2020/01/31 23:19:14.7	190.260	0.260	-0.240	0.350
2020/01/31 23:19:14.8	190.270	0.250	-0.260	0.350
2020/01/31 23:19:14.9	190.290	0.230	-0.270	0.350
2020/01/31 23:19:15.0	190.300	0.220	-0.290	0.350
2020/01/31 23:19:15.1	190.300	0.200	-0.310	0.360
2020/01/31 23:19:15.2	190.310	0.180	-0.330	0.380
2020/01/31 23:19:15.3	190.310	0.160	-0.350	0.400
2020/01/31 23:19:15.4	190.310	0.140	-0.360	0.420
2020/01/31 23:19:15.5	190.320	0.120	-0.380	0.450
2020/01/31 23:19:15.6	190.320	0.090	-0.400	0.490
2020/01/31 23:19:15.7	190.310	0.070	-0.420	0.520
2020/01/31 23:19:15.8	190.310	0.050	-0.440	0.570
2020/01/31 23:19:15.9	190.300	0.030	-0.460	0.610
2020/01/31 23:19:16.0	190.300	0.000	-0.480	0.660
2020/01/31 23:19:16.1	190.300	-0.020	-0.500	0.710
2020/01/31 23:19:16.2	190.290	-0.040	-0.520	0.760
2020/01/31 23:19:16.3	190.280	-0.060	-0.540	0.820
2020/01/31 23:19:16.4	190.270	-0.080	-0.550	0.870
2020/01/31 23:19:16.5	190.260	-0.100	-0.570	0.930
2020/01/31 23:19:16.6	190.250	-0.120	-0.580	0.980
2020/01/31 23:19:16.7	190.240	-0.140	-0.580	1.040
2020/01/31 23:19:16.8	190.230	-0.150	-0.580	1.090
2020/01/31 23:19:16.9	190.220	-0.170	-0.580	1.150
2020/01/31 23:19:17.0	190.210	-0.180	-0.580	1.210
2020/01/31 23:19:17.1	190.210	-0.200	-0.570	1.260
2020/01/31 23:19:17.2	190.200	-0.210	-0.550	1.320
2020/01/31 23:19:17.3	190.190	-0.220	-0.530	1.380
2020/01/31 23:19:17.4	190.190	-0.230	-0.510	1.430
2020/01/31 23:19:17.5	190.180	-0.230	-0.480	1.490
2020/01/31 23:19:17.6	190.180	-0.240	-0.450	1.540
2020/01/31 23:19:17.7	190.170	-0.250	-0.410	1.590
2020/01/31 23:19:17.8	190.170	-0.250	-0.370	1.650
2020/01/31 23:19:17.9	190.160	-0.250	-0.320	1.700
2020/01/31 23:19:18.0	190.160	-0.250	-0.280	1.750
2020/01/31 23:19:18.1	190.160	-0.250	-0.230	1.800
2020/01/31 23:19:18.2	190.150	-0.250	-0.180	1.850
2020/01/31 23:19:18.3	190.140	-0.250	-0.130	1.890
2020/01/31 23:19:18.4	190.140	-0.240	-0.080	1.930
2020/01/31 23:19:18.5	190.130	-0.240	-0.030	1.970
2020/01/31 23:19:18.6	190.110	-0.230	0.020	2.010
2020/01/31 23:19:18.7	190.100	-0.220	0.060	2.050
2020/01/31 23:19:18.8	190.080	-0.210	0.100	2.080
2020/01/31 23:19:18.9	190.070	-0.200	0.140	2.110
2020/01/31 23:19:19.0	190.050	-0.180	0.180	2.130
2020/01/31 23:19:19.1	190.030	-0.170	0.210	2.150
2020/01/31 23:19:19.2	190.010	-0.150	0.240	2.170
2020/01/31 23:19:19.3	189.980	-0.140	0.260	2.180
2020/01/31 23:19:19.4	189.960	-0.120	0.280	2.190
2020/01/31 23:19:19.5	189.930	-0.110	0.290	2.200
2020/01/31 23:19:19.6	189.900	-0.090	0.300	2.210
2020/01/31 23:19:19.7	189.880	-0.070	0.310	2.210
2020/01/31 23:19:19.8	189.850	-0.050	0.310	2.210
2020/01/31 23:19:19.9	189.820	-0.030	0.300	2.200
2020/01/31 23:19:20.0	189.790	-0.020	0.290	2.200
2020/01/31 23:19:20.1	189.760	0.000	0.280	2.190
2020/01/31 23:19:20.2	189.730	0.020	0.270	2.180
2020/01/31 23:19:20.3	189.700	0.040	0.250	2.170
2020/01/31 23:19:20.4	189.670	0.050	0.230	2.150
2020/01/31 23:19:20.5	189.640	0.070	0.200	2.140
2020/01/31 23:19:20.6	189.610	0.080	0.170	2.120
2020/01/31 23:19:20.7	189.590	0.100	0.150	2.100
2020/01/31 23:19:20.8	189.570	0.110	0.120	2.080
2020/01/31 23:19:20.9	189.540	0.120	0.080	2.060
2020/01/31 23:19:21.0	189.530	0.130	0.050	2.040
2020/01/31 23:19:21.1	189.510	0.140	0.020	2.010
2020/01/31 23:19:21.2	189.490	0.150	-0.010	1.990
2020/01/31 23:19:21.3	189.480	0.150	-0.050	1.960
2020/01/31 23:19:21.4	189.470	0.160	-0.080	1.930
2020/01/31 23:19:21.5	189.460	0.160	-0.110	1.910
2020/01/31 23:19:21.6	189.460	0.160	-0.140	1.880
2020/01/31 23:19:21.7	189.450	0.160	-0.160	1.850
2020/01/31 23:19:21.8	189.450	0.150	-0.190	1.820
2020/01/31 23:19:21.9	189.450	0.150	-0.220	1.800
2020/01/31 23:19:22.0	189.450	0.140	-0.240	1.770
2020/01/31 23:19:22.1	189.450	0.130	-0.260	1.740
2020/01/31 23:19:22.2	189.450	0.130	-0.280	1.710
2020/01/31 23:19:22.3	189.450	0.110	-0.290	1.680
2020/01/31 23:19:22.4	189.460	0.100	-0.310	1.660
2020/01/31 23:19:22.5	189.470	0.090	-0.320	1.630
2020/01/31 23:19:22.6	189.470	0.070	-0.330	1.600
2020/01/31 23:19:22.7	189.480	0.060	-0.340	1.570
2020/01/31 23:19:22.8	189.490	0.040	-0.350	1.550
2020/01/31 23:19:22.9	189.500	0.030	-0.360	1.520
2020/01/31 23:19:23.0	189.510	0.010	-0.360	1.500
2020/01/31 23:19:23.1	189.530	-0.010	-0.370	1.470
2020/01/31 23:19:23.2	189.540	-0.030	-0.370	1.450
2020/01/31 23:19:23.3	189.560	-0.040	-0.370	1.430
2020/01/31 23:19:23.4	189.570	-0.060	-0.370	1.410
2020/01/31 23:19:23.5	189.590	-0.080	-0.370	1.400
2020/01/31 23:19:23.6	189.610	-0.090	-0.380	1.380
2020/01/31 23:19:23.7	189.620	-0.110	-0.380	1.370
2020/01/31 23:19:23.8	189.640	-0.120	-0.380	1.360
2020/01/31 23:19:23.9	189.660	-0.140	-0.380	1.350
2020/01/31 23:19:24.0	189.680	-0.150	-0.380	1.340
2020/01/31 23:19:24.1	189.700	-0.160	-0.380	1.340
2020/01/31 23:19:24.2	189.720	-0.170	-0.390	1.330
2020/01/31 23:19:24.3	189.740	-0.180	-0.390	1.330
2020/01/31 23:19:24.4	189.760	-0.190	-0.400	1.320
2020/01/31 23:19:24.5	189.780	-0.190	-0.410	1.320
2020/01/31 23:19:24.6	189.800	-0.200	-0.420	1.320
2020/01/31 23:19:24.7	189.810	-0.200	-0.430	1.320
2020/01/31 23:19:24.8	189.830	-0.200	-0.440	1.330
2020/01/31 23:19:24.9	189.840	-0.190	-0.450	1.330
2020/01/31 23:19:25.0	189.860	-0.180	-0.470	1.340
2020/01/31 23:19:25.1	189.870	-0.180	-0.490	1.350
2020/01/31 23:19:25.2	189.880	-0.160	-0.510	1.360
2020/01/31 23:19:25.3	189.880	-0.150	-0.530	1.370
2020/01/31 23:19:25.4	189.880	-0.130	-0.560	1.380
2020/01/31 23:19:25.5	189.880	-0.110	-0.580	1.400
2020/01/31 23:19:25.6	189.870	-0.090	-0.610	1.410
2020/01/31 23:19:25.7	189.860	-0.060	-0.640	1.430
2020/01/31 23:19:25.8	189.840	-0.040	-0.680	1.460
2020/01/31 23:19:25.9	189.820	-0.010	-0.710	1.480
2020/01/31 23:19:26.0	189.800	0.020	-0.750	1.500
2020/01/31 23:19:26.1	189.780	0.060	-0.780	1.530
2020/01/31 23:19:26.2	189.750	0.090	-0.820	1.560
2020/01/31 23:19:26.3	189.720	0.130	-0.850	1.580
2020/01/31 23:19:26.4	189.680	0.160	-0.880	1.600
2020/01/31 23:19:26.5	189.650	0.200	-0.910	1.630
2020/01/31 23:19:26.6	189.620	0.240	-0.940	1.650
2020/01/31 23:19:26.7	189.580	0.270	-0.970	1.670
2020/01/31 23:19:26.8	189.550	0.310	-0.990	1.680
2020/01/31 23:19:26.9	189.510	0.340	-1.000	1.690
2020/01/31 23:19:27.0	189.480	0.370	-1.010	1.700
2020/01/31 23:19:27.1	189.430	0.400	-1.020	1.710
2020/01/31 23:19:27.2	189.400	0.430	-1.010	1.710
2020/01/31 23:19:27.3	189.370	0.450	-1.000	1.710
2020/01/31 23:19:27.4	189.350	0.470	-0.980	1.700
2020/01/31 23:19:27.5	189.330	0.480	-0.950	1.690
2020/01/31 23:19:27.6	189.320	0.490	-0.920	1.680
2020/01/31 23:19:27.7	189.310	0.490	-0.870	1.660
2020/01/31 23:19:27.8	189.310	0.480	-0.820	1.650
2020/01/31 23:19:27.9	189.320	0.470	-0.750	1.630
2020/01/31 23:19:28.0	189.330	0.460	-0.680	1.600
2020/01/31 23:19:28.1	189.330	0.440	-0.600	1.570
2020/01/31 23:19:28.2	189.350	0.410	-0.510	1.550
2020/01/31 23:19:28.3	189.380	0.370	-0.420	1.520
2020/01/31 23:19:28.4	189.420	0.340	-0.320	1.500
2020/01/31 23:19:28.5	189.460	0.290	-0.210	1.470
2020/01/31 23:19:28.6	189.500	0.240	-0.100	1.440
2020/01/31 23:19:28.7	189.550	0.190	0.010	1.420
2020/01/31 23:19:28.8	189.610	0.130	0.120	1.390
2020/01/31 23:19:28.9	189.670	0.070	0.230	1.360
2020/01/31 23:19:29.0	189.730	0.000	0.340	1.340
2020/01/31 23:19:29.1	189.790	-0.060	0.450	1.310
2020/01/31 23:19:29.2	189.860	-0.130	0.550	1.280
2020/01/31 23:19:29.3	189.930	-0.200	0.650	1.250
2020/01/31 23:19:29.4	190.000	-0.270	0.750	1.230
2020/01/31 23:19:29.5	190.080	-0.340	0.830	1.200
2020/01/31 23:19:29.6	190.150	-0.400	0.910	1.180
2020/01/31 23:19:29.7	190.220	-0.470	0.970	1.150
2020/01/31 23:19:29.8	190.290	-0.530	1.020	1.130
2020/01/31 23:19:29.9	190.360	-0.590	1.070	1.110
2020/01/31 23:19:30.0	190.420	-0.640	1.090	1.090
2020/01/31 23:19:30.1	190.470	-0.680	1.110	1.070
2020/01/31 23:19:30.2	190.520	-0.720	1.110	1.060
2020/01/31 23:19:30.3	190.570	-0.750	1.090	1.040
2020/01/31 23:19:30.4	190.610	-0.780	1.050	1.030
2020/01/31 23:19:30.5	190.640	-0.790	1.000	1.030
2020/01/31 23:19:30.6	190.670	-0.800	0.930	1.030
2020/01/31 23:19:30.7	190.690	-0.800	0.850	1.030
2020/01/31 23:19:30.8	190.700	-0.780	0.750	1.040
2020/01/31 23:19:30.9	190.710	-0.760	0.640	1.050
2020/01/31 23:19:31.0	190.700	-0.730	0.510	1.070
2020/01/31 23:19:31.1	190.700	-0.690	0.370	1.090
2020/01/31 23:19:31.2	190.690	-0.640	0.230	1.120
2020/01/31 23:19:31.3	190.670	-0.590	0.080	1.140
2020/01/31 23:19:31.4	190.650	-0.530	-0.070	1.170
2020/01/31 23:19:31.5	190.620	-0.460	-0.230	1.210
2020/01/31 23:19:31.6	190.590	-0.390	-0.380	1.240
2020/01/31 23:19:31.7	190.560	-0.310	-0.540	1.280
2020/01/31 23:19:31.8	190.520	-0.240	-0.680	1.320
2020/01/31 23:19:31.9	190.490	-0.160	-0.820	1.360
2020/01/31 23:19:32.0	190.460	-0.080	-0.950	1.410
2020/01/31 23:19:32.1	190.430	0.000	-1.070	1.450
2020/01/31 23:19:32.2	190.400	0.080	-1.170	1.500
2020/01/31 23:19:32.3	190.370	0.150	-1.270	1.550
2020/01/31 23:19:32.4	190.350	0.220	-1.340	1.590
2020/01/31 23:19:32.5	190.320	0.290	-1.400	1.640
2020/01/31 23:19:32.6	190.310	0.350	-1.450	1.680
2020/01/31 23:19:32.7	190.290	0.400	-1.470	1.720
2020/01/31 23:19:32.8	190.280	0.450	-1.480	1.760
2020/01/31 23:19:32.9	190.270	0.490	-1.480	1.800
2020/01/31 23:19:33.0	190.270	0.520	-1.450	1.830
2020/01/31 23:19:33.1	190.270	0.550	-1.420	1.860
2020/01/31 23:19:33.2	190.270	0.560	-1.360	1.890
2020/01/31 23:19:33.3	190.280	0.570	-1.290	1.910
2020/01/31 23:19:33.4	190.290	0.570	-1.210	1.930
2020/01/31 23:19:33.5	190.300	0.570	-1.120	1.940
2020/01/31 23:19:33.6	190.310	0.550	-1.020	1.950
2020/01/31 23:19:33.7	190.330	0.530	-0.910	1.950
2020/01/31 23:19:33.8	190.350	0.500	-0.790	1.950
2020/01/31 23:19:33.9	190.360	0.470	-0.670	1.940
2020/01/31 23:19:34.0	190.380	0.430	-0.540	1.930
2020/01/31 23:19:34.1	190.400	0.380	-0.420	1.910
2020/01/31 23:19:34.2	190.420	0.330	-0.290	1.890
2020/01/31 23:19:34.3	190.430	0.280	-0.170	1.880
2020/01/31 23:19:34.4	190.440	0.230	-0.050	1.860
2020/01/31 23:19:34.5	190.450	0.170	0.060	1.840
2020/01/31 23:19:34.6	190.450	0.120	0.160	1.820
2020/01/31 23:19:34.7	190.450	0.060	0.260	1.800
2020/01/31 23:19:34.8	190.450	0.010	0.340	1.780
2020/01/31 23:19:34.9	190.440	-0.040	0.410	1.770
2020/01/31 23:19:35.0	190.430	-0.080	0.470	1.760
2020/01/31 23:19:35.1	190.400	-0.130	0.520	1.750
2020/01/31 23:19:35.2	190.380	-0.160	0.550	1.740
2020/01/31 23:19:35.3	190.360	-0.200	0.570	1.740
2020/01/31 23:19:35.4	190.330	-0.220	0.570	1.740
2020/01/31 23:19:35.5	190.300	-0.240	0.570	1.740
2020/01/31 23:19:35.6	190.270	-0.260	0.550	1.730
2020/01/31 23:19:35.7	190.240	-0.270	0.520	1.730
2020/01/31 23:19:35.8	190.210	-0.270	0.480	1.730
2020/01/31 23:19:35.9	190.180	-0.270	0.440	1.730
2020/01/31 23:19:36.0	190.160	-0.260	0.390	1.720
2020/01/31 23:19:36.1	190.140	-0.250	0.330	1.710
2020/01/31 23:19:36.2	190.120	-0.240	0.270	1.700
2020/01/31 23:19:36.3	190.100	-0.220	0.210	1.690
2020/01/31 23:19:36.4	190.090	-0.190	0.150	1.670
2020/01/31 23:19:36.5	190.080	-0.170	0.090	1.650
2020/01/31 23:19:36.6	190.080	-0.140	0.030	1.630
2020/01/31 23:19:36.7	190.080	-0.110	-0.020	1.610
2020/01/31 23:19:36.8	190.090	-0.080	-0.070	1.590
2020/01/31 23:19:36.9	190.100	-0.050	-0.120	1.570
2020/01/31 23:19:37.0	190.110	-0.020	-0.150	1.550
2020/01/31 23:19:37.1	190.130	0.010	-0.180	1.530
2020/01/31 23:19:37.2	190.150	0.040	-0.200	1.510
2020/01/31 23:19:37.3	190.170	0.060	-0.220	1.480
2020/01/31 23:19:37.4	190.200	0.090	-0.230	1.460
2020/01/31 23:19:37.5	190.230	0.110	-0.230	1.440
2020/01/31 23:19:37.6	190.260	0.130	-0.220	1.410
2020/01/31 23:19:37.7	190.290	0.140	-0.210	1.380
2020/01/31 23:19:37.8	190.330	0.160	-0.190	1.350
2020/01/31 23:19:37.9	190.370	0.170	-0.160	1.330
2020/01/31 23:19:38.0	190.410	0.170	-0.140	1.300
2020/01/31 23:19:38.1	190.430	0.170	-0.110	1.260
2020/01/31 23:19:38.2	190.470	0.170	-0.070	1.230
2020/01/31 23:19:38.3	190.510	0.160	-0.040	1.200
2020/01/31 23:19:38.4	190.550	0.150	-0.000	1.170
2020/01/31 23:19:38.5	190.590	0.140	0.030	1.140
2020/01/31 23:19:38.6	190.620	0.120	0.060	1.110
2020/01/31 23:19:38.7	190.650	0.110	0.090	1.080
2020/01/31 23:19:38.8	190.680	0.080	0.120	1.050
2020/01/31 23:19:38.9	190.710	0.060	0.140	1.030
2020/01/31 23:19:39.0	190.730	0.040	0.150	1.010
2020/01/31 23:19:39.1	190.760	0.010	0.170	0.990
2020/01/31 23:19:39.2	190.780	-0.020	0.170	0.970
2020/01/31 23:19:39.3	190.790	-0.040	0.160	0.960
2020/01/31 23:19:39.4	190.800	-0.070	0.150	0.960
2020/01/31 23:19:39.5	190.800	-0.090	0.130	0.960
2020/01/31 23:19:39.6	190.800	-0.120	0.100	0.970
2020/01/31 23:19:39.7	190.790	-0.140	0.060	0.980
2020/01/31 23:19:39.8	190.780	-0.160	0.020	0.990
2020/01/31 23:19:39.9	190.770	-0.180	-0.040	1.020
2020/01/31 23:19:40.0	190.760	-0.200	-0.100	1.040
2020/01/31 23:19:40.1	190.720	-0.210	-0.170	1.080
2020/01/31 23:19:40.2	190.700	-0.220	-0.240	1.110
2020/01/31 23:19:40.3	190.670	-0.230	-0.320	1.150
2020/01/31 23:19:40.4	190.650	-0.230	-0.400	1.200
2020/01/31 23:19:40.5	190.620	-0.240	-0.480	1.250
2020/01/31 23:19:40.6	190.580	-0.230	-0.570	1.300
2020/01/31 23:19:40.7	190.550	-0.230	-0.650	1.360
2020/01/31 23:19:40.8	190.520	-0.220	-0.740	1.410
2020/01/31 23:19:40.9	190.480	-0.210	-0.830	1.470
2020/01/31 23:19:41.0	190.450	-0.200	-0.910	1.520
2020/01/31 23:19:41.1	190.420	-0.180	-0.980	1.580
2020/01/31 23:19:41.2	190.390	-0.160	-1.060	1.640
2020/01/31 23:19:41.3	190.360	-0.140	-1.130	1.690
2020/01/31 23:19:41.4	190.330	-0.120	-1.190	1.740
2020/01/31 23:19:41.5	190.300	-0.090	-1.240	1.790
2020/01/31 23:19:41.6	190.270	-0.070	-1.290	1.830
2020/01/31 23:19:41.7	190.250	-0.040	-1.330	1.870
2020/01/31 23:19:41.8	190.220	-0.020	-1.350	1.900
2020/01/31 23:19:41.9	190.200	0.010	-1.370	1.930
2020/01/31 23:19:42.0	190.190	0.030	-1.380	1.960
2020/01/31 23:19:42.1	190.180	0.060	-1.390	1.980
2020/01/31 23:19:42.2	190.160	0.080	-1.380	1.990
2020/01/31 23:19:42.3	190.160	0.110	-1.360	2.000
2020/01/31 23:19:42.4	190.150	0.130	-1.330	2.000
2020/01/31 23:19:42.5	190.140	0.150	-1.290	1.990
2020/01/31 23:19:42.6	190.140	0.160	-1.250	1.990
2020/01/31 23:19:42.7	190.140	0.180	-1.200	1.970
2020/01/31 23:19:42.8	190.150	0.190	-1.140	1.950
2020/01/31 23:19:42.9	190.150	0.200	-1.080	1.930
2020/01/31 23:19:43.0	190.160	0.210	-1.010	1.900
2020/01/31 23:19:43.1	190.180	0.220	-0.930	1.870
2020/01/31 23:19:43.2	190.180	0.220	-0.850	1.840
2020/01/31 23:19:43.3	190.190	0.220	-0.770	1.800
2020/01/31 23:19:43.4	190.200	0.220	-0.690	1.760
2020/01/31 23:19:43.5	190.210	0.220	-0.610	1.720
2020/01/31 23:19:43.6	190.220	0.220	-0.530	1.680
2020/01/31 23:19:43.7	190.230	0.210	-0.450	1.640
2020/01/31 23:19:43.8	190.240	0.200	-0.370	1.600
2020/01/31 23:19:43.9	190.250	0.190	-0.300	1.560
2020/01/31 23:19:44.0	190.260	0.180	-0.230	1.520
2020/01/31 23:19:44.1	190.260	0.170	-0.160	1.480
2020/01/31 23:19:44.2	190.270	0.160	-0.090	1.440
2020/01/31 23:19:44.3	190.270	0.140	-0.030	1.410
2020/01/31 23:19:44.4	190.280	0.130	0.020	1.370
2020/01/31 23:19:44.5	190.280	0.110	0.070	1.340
2020/01/31 23:19:44.6	190.290	0.090	0.120	1.310
2020/01/31 23:19:44.7	190.290	0.080	0.160	1.280
2020/01/31 23:19:44.8	190.300	0.060	0.200	1.260
2020/01/31 23:19:44.9	190.300	0.040	0.230	1.240
2020/01/31 23:19:45.0	190.300	0.030	0.250	1.220
2020/01/31 23:19:45.1	190.300	0.010	0.270	1.200
2020/01/31 23:19:45.2	190.300	-0.010	0.290	1.180
2020/01/31 23:19:45.3	190.300	-0.020	0.300	1.170
2020/01/31 23:19:45.4	190.300	-0.040	0.310	1.160
2020/01/31 23:19:45.5	190.300	-0.050	0.310	1.150
2020/01/31 23:19:45.6	190.300	-0.070	0.310	1.140
2020/01/31 23:19:45.7	190.300	-0.080	0.310	1.140
2020/01/31 23:19:45.8	190.290	-0.090	0.300	1.130
2020/01/31 23:19:45.9	190.290	-0.100	0.290	1.130
2020/01/31 23:19:46.0	190.290	-0.120	0.270	1.130
2020/01/31 23:19:46.1	190.300	-0.120	0.260	1.140
2020/01/31 23:19:46.2	190.300	-0.130	0.240	1.140
2020/01/31 23:19:46.3	190.290	-0.140	0.220	1.150
2020/01/31 23:19:46.4	190.290	-0.140	0.200	1.160
2020/01/31 23:19:46.5	190.280	-0.150	0.170	1.170
2020/01/31 23:19:46.6	190.280	-0.150	0.150	1.190
2020/01/31 23:19:46.7	190.270	-0.150	0.120	1.200
2020/01/31 23:19:46.8	190.260	-0.150	0.090	1.230
2020/01/31 23:19:46.9	190.240	-0.150	0.060	1.250
2020/01/31 23:19:47.0	190.230	-0.150	0.030	1.280
2020/01/31 23:19:47.1	190.220	-0.150	0.000	1.300
2020/01/31 23:19:47.2	190.200	-0.140	-0.030	1.330
2020/01/31 23:19:47.3	190.190	-0.130	-0.060	1.360
2020/01/31 23:19:47.4	190.170	-0.130	-0.080	1.390
2020/01/31 23:19:47.5	190.150	-0.120	-0.110	1.420
2020/01/31 23:19:47.6	190.130	-0.110	-0.130	1.450
2020/01/31 23:19:47.7	190.120	-0.100	-0.160	1.480
2020/01/31 23:19:47.8	190.100	-0.090	-0.170	1.520
2020/01/31 23:19:47.9	190.080	-0.080	-0.190	1.550
2020/01/31 23:19:48.0	190.070	-0.070	-0.200	1.580
2020/01/31 23:19:48.1	190.060	-0.070	-0.200	1.610
2020/01/31 23:19:48.2	190.040	-0.060	-0.210	1.640
2020/01/31 23:19:48.3	190.030	-0.050	-0.210	1.670
2020/01/31 23:19:48.4	190.020	-0.040	-0.200	1.700
2020/01/31 23:19:48.5	190.010	-0.040	-0.190	1.720
2020/01/31 23:19:48.6	190.000	-0.030	-0.180	1.750
2020/01/31 23:19:48.7	189.990	-0.030	-0.160	1.780
2020/01/31 23:19:48.8	189.980	-0.030	-0.140	1.810
2020/01/31 23:19:48.9	189.970	-0.020	-0.110	1.830
2020/01/31 23:19:49.0	189.950	-0.020	-0.090	1.860
2020/01/31 23:19:49.1	189.950	-0.020	-0.060	1.880
2020/01/31 23:19:49.2	189.940	-0.030	-0.030	1.910
2020/01/31 23:19:49.3	189.930	-0.030	0.000	1.930
2020/01/31 23:19:49.4	189.920	-0.030	0.040	1.950
2020/01/31 23:19:49.5	189.910	-0.040	0.070	1.970
2020/01/31 23:19:49.6	189.900	-0.040	0.100	1.990
2020/01/31 23:19:49.7	189.880	-0.050	0.130	2.010
2020/01/31 23:19:49.8	189.870	-0.050	0.160	2.030
2020/01/31 23:19:49.9	189.850	-0.060	0.190	2.040
2020/01/31 23:19:50.0	189.840	-0.060	0.220	2.050
2020/01/31 23:19:50.1	189.820	-0.070	0.240	2.070
2020/01/31 23:19:50.2	189.800	-0.070	0.260	2.080
2020/01/31 23:19:50.3	189.780	-0.080	0.270	2.080
2020/01/31 23:19:50.4	189.760	-0.080	0.280	2.090
2020/01/31 23:19:50.5	189.730	-0.090	0.280	2.090
2020/01/31 23:19:50.6	189.710	-0.090	0.280	2.100
2020/01/31 23:19:50.7	189.680	-0.090	0.280	2.100
2020/01/31 23:19:50.8	189.660	-0.090	0.270	2.090
2020/01/31 23:19:50.9	189.630	-0.090	0.260	2.090
2020/01/31 23:19:51.0	189.600	-0.080	0.240	2.090
2020/01/31 23:19:51.1	189.570	-0.080	0.210	2.070
2020/01/31 23:19:51.2	189.540	-0.080	0.180	2.070
2020/01/31 23:19:51.3	189.510	-0.070	0.150	2.060
2020/01/31 23:19:51.4	189.480	-0.060	0.120	2.050
2020/01/31 23:19:51.5	189.450	-0.050	0.080	2.040
2020/01/31 23:19:51.6	189.420	-0.040	0.030	2.030
2020/01/31 23:19:51.7	189.390	-0.030	-0.020	2.010
2020/01/31 23:19:51.8	189.350	-0.020	-0.070	2.000
2020/01/31 23:19:51.9	189.320	-0.010	-0.120	1.990
2020/01/31 23:19:52.0	189.290	0.010	-0.170	1.980
2020/01/31 23:19:52.1	189.250	0.020	-0.230	1.960
2020/01/31 23:19:52.2	189.230	0.040	-0.290	1.950
2020/01/31 23:19:52.3	189.200	0.060	-0.340	1.930
2020/01/31 23:19:52.4	189.180	0.070	-0.400	1.910
2020/01/31 23:19:52.5	189.160	0.090	-0.460	1.890
2020/01/31 23:19:52.6	189.140	0.110	-0.510	1.870
2020/01/31 23:19:52.7	189.130	0.130	-0.570	1.850
2020/01/31 23:19:52.8	189.120	0.150	-0.620	1.820
2020/01/31 23:19:52.9	189.110	0.160	-0.670	1.790
2020/01/31 23:19:53.0	189.100	0.180	-0.710	1.760
2020/01/31 23:19:53.1	189.100	0.200	-0.760	1.730
2020/01/31 23:19:53.2	189.100	0.210	-0.790	1.690
2020/01/31 23:19:53.3	189.110	0.220	-0.820	1.660
2020/01/31 23:19:53.4	189.110	0.240	-0.850	1.620
2020/01/31 23:19:53.5	189.120	0.250	-0.880	1.580
2020/01/31 23:19:53.6	189.130	0.260	-0.890	1.540
2020/01/31 23:19:53.7	189.150	0.270	-0.910	1.500
2020/01/31 23:19:53.8	189.160	0.270	-0.920	1.450
2020/01/31 23:19:53.9	189.180	0.280	-0.920	1.410
2020/01/31 23:19:54.0	189.200	0.280	-0.920	1.360
2020/01/31 23:19:54.1	189.210	0.280	-0.910	1.310
2020/01/31 23:19:54.2	189.230	0.280	-0.900	1.270
2020/01/31 23:19:54.3	189.250	0.280	-0.890	1.220
2020/01/31 23:19:54.4	189.270	0.270	-0.870	1.170
2020/01/31 23:19:54.5	189.300	0.270	-0.850	1.130
2020/01/31 23:19:54.6	189.320	0.260	-0.830	1.080
2020/01/31 23:19:54.7	189.350	0.250	-0.800	1.040
2020/01/31 23:19:54.8	189.370	0.240	-0.780	1.000
2020/01/31 23:19:54.9	189.400	0.230	-0.750	0.960
2020/01/31 23:19:55.0	189.420	0.220	-0.720	0.920
2020/01/31 23:19:55.1	189.430	0.200	-0.700	0.880
2020/01/31 23:19:55.2	189.460	0.190	-0.670	0.850
2020/01/31 23:19:55.3	189.480	0.170	-0.640	0.830
2020/01/31 23:19:55.4	189.500	0.150	-0.620	0.800
2020/01/31 23:19:55.5	189.520	0.140	-0.590	0.780
2020/01/31 23:19:55.6	189.550	0.120	-0.570	0.760
2020/01/31 23:19:55.7	189.570	0.100	-0.540	0.750
2020/01/31 23:19:55.8	189.590	0.080	-0.520	0.740
2020/01/31 23:19:55.9	189.610	0.060	-0.500	0.730
2020/01/31 23:19:56.0	189.630	0.040	-0.480	0.730
2020/01/31 23:19:56.1	189.640	0.020	-0.460	0.730
2020/01/31 23:19:56.2	189.660	-0.000	-0.450	0.730
2020/01/31 23:19:56.3	189.680	-0.020	-0.430	0.740
2020/01/31 23:19:56.4	189.700	-0.040	-0.420	0.750
2020/01/31 23:19:56.5	189.710	-0.060	-0.420	0.770
2020/01/31 23:19:56.6	189.730	-0.090	-0.410	0.780
2020/01/31 23:19:56.7	189.740	-0.110	-0.400	0.810
2020/01/31 23:19:56.8	189.750	-0.130	-0.400	0.830
2020/01/31 23:19:56.9	189.760	-0.150	-0.400	0.860
2020/01/31 23:19:57.0	189.770	-0.170	-0.400	0.890
2020/01/31 23:19:57.1	189.790	-0.190	-0.400	0.920
2020/01/31 23:19:57.2	189.800	-0.210	-0.410	0.960
2020/01/31 23:19:57.3	189.810	-0.230	-0.410	0.990
2020/01/31 23:19:57.4	189.810	-0.250	-0.410	1.030
2020/01/31 23:19:57.5	189.810	-0.270	-0.420	1.070
2020/01/31 23:19:57.6	189.820	-0.280	-0.420	1.120
2020/01/31 23:19:57.7	189.820	-0.300	-0.430	1.160
2020/01/31 23:19:57.8	189.820	-0.320	-0.440	1.210
2020/01/31 23:19:57.9	189.810	-0.330	-0.440	1.260
2020/01/31 23:19:58.0	189.810	-0.340	-0.450	1.310
2020/01/31 23:19:58.1	189.800	-0.360	-0.450	1.370
2020/01/31 23:19:58.2	189.790	-0.370	-0.460	1.420
2020/01/31 23:19:58.3	189.790	-0.380	-0.460	1.470
2020/01/31 23:19:58.4	189.780	-0.380	-0.470	1.520
2020/01/31 23:19:58.5	189.770	-0.390	-0.470	1.580
2020/01/31 23:19:58.6	189.760	-0.390	-0.470	1.630
2020/01/31 23:19:58.7	189.740	-0.390	-0.470	1.680
2020/01/31 23:19:58.8	189.730	-0.390	-0.470	1.730
2020/01/31 23:19:58.9	189.720	-0.390	-0.460	1.770
2020/01/31 23:19:59.0	189.700	-0.380	-0.460	1.820
2020/01/31 23:19:59.1	189.690	-0.380	-0.450	1.860
2020/01/31 23:19:59.2	189.670	-0.370	-0.440	1.900
2020/01/31 23:19:59.3	189.660	-0.360	-0.430	1.940
2020/01/31 23:19:59.4	189.640	-0.340	-0.420	1.970
2020/01/31 23:19:59.5	189.620	-0.330	-0.400	2.000
2020/01/31 23:19:59.6	189.610	-0.310	-0.380	2.030
2020/01/31 23:19:59.7	189.590	-0.290	-0.360	2.050
2020/01/31 23:19:59.8	189.570	-0.270	-0.340	2.070
2020/01/31 23:19:59.9	189.560	-0.250	-0.310	2.080
2020/01/31 23:20:00.0	189.540	-0.230	-0.280	2.090
2020/01/31 23:20:00.1	189.530	-0.210	-0.260	2.100
2020/01/31 23:20:00.2	189.520	-0.180	-0.220	2.100
2020/01/31 23:20:00.3	189.510	-0.160	-0.180	2.100
2020/01/31 23:20:00.4	189.500	-0.140	-0.140	2.090
2020/01/31 23:20:00.5	189.490	-0.110	-0.100	2.080
2020/01/31 23:20:00.6	189.480	-0.090	-0.050	2.070
2020/01/31 23:20:00.7	189.480	-0.070	-0.000	2.050
2020/01/31 23:20:00.8	189.470	-0.050	0.050	2.040
2020/01/31 23:20:00.9	189.460	-0.030	0.100	2.020
2020/01/31 23:20:01.0	189.460	-0.010	0.150	1.990
2020/01/31 23:20:01.1	189.460	0.010	0.210	1.970
2020/01/31 23:20:01.2	189.460	0.020	0.260	1.940
2020/01/31 23:20:01.3	189.460	0.030	0.320	1.920
2020/01/31 23:20:01.4	189.450	0.050	0.370	1.890
2020/01/31 23:20:01.5	189.450	0.060	0.420	1.860
2020/01/31 23:20:01.6	189.450	0.060	0.470	1.830
2020/01/31 23:20:01.7	189.450	0.070	0.520	1.800
2020/01/31 23:20:01.8	189.450	0.080	0.560	1.780
2020/01/31 23:20:01.9	189.450	0.080	0.610	1.750
2020/01/31 23:20:02.0	189.450	0.080	0.640	1.720
2020/01/31 23:20:02.1	189.450	0.080	0.680	1.680
2020/01/31 23:20:02.2	189.460	0.080	0.710	1.650
2020/01/31 23:20:02.3	189.460	0.080	0.730	1.620
2020/01/31 23:20:02.4	189.460	0.070	0.750	1.590
2020/01/31 23:20:02.5	189.470	0.070	0.760	1.560
2020/01/31 23:20:02.6	189.480	0.070	0.770	1.520
2020/01/31 23:20:02.7	189.480	0.060	0.780	1.490
2020/01/31 23:20:02.8	189.490	0.060	0.770	1.450
2020/01/31 23:20:02.9	189.500	0.050	0.760	1.410
2020/01/31 23:20:03.0	189.510	0.050	0.750	1.380
2020/01/31 23:20:03.1	189.520	0.040	0.730	1.340
2020/01/31 23:20:03.2	189.530	0.040	0.700	1.300
2020/01/31 23:20:03.3	189.540	0.040	0.670	1.260
2020/01/31 23:20:03.4	189.540	0.040	0.630	1.230
2020/01/31 23:20:03.5	189.550	0.030	0.580	1.200
2020/01/31 23:20:03.6	189.550	0.040	0.530	1.170
2020/01/31 23:20:03.7	189.560	0.040	0.470	1.140
2020/01/31 23:20:03.8	189.560	0.040	0.410	1.120
2020/01/31 23:20:03.9	189.560	0.050	0.350	1.100
2020/01/31 23:20:04.0	189.560	0.050	0.280	1.080
2020/01/31 23:20:04.1	189.570	0.060	0.210	1.070
2020/01/31 23:20:04.2	189.570	0.070	0.140	1.060
2020/01/31 23:20:04.3	189.570	0.080	0.060	1.050
2020/01/31 23:20:04.4	189.570	0.090	-0.010	1.050
2020/01/31 23:20:04.5	189.560	0.100	-0.090	1.050
2020/01/31 23:20:04.6	189.560	0.110	-0.160	1.060
2020/01/31 23:20:04.7	189.560	0.130	-0.230	1.070
2020/01/31 23:20:04.8	189.550	0.140	-0.300	1.090
2020/01/31 23:20:04.9	189.550	0.150	-0.360	1.110
2020/01/31 23:20:05.0	189.550	0.160	-0.420	1.130
2020/01/31 23:20:05.1	189.550	0.170	-0.480	1.150
2020/01/31 23:20:05.2	189.550	0.180	-0.530	1.180
2020/01/31 23:20:05.3	189.540	0.190	-0.580	1.210
2020/01/31 23:20:05.4	189.540	0.200	-0.620	1.230
2020/01/31 23:20:05.5	189.540	0.210	-0.650	1.260
2020/01/31 23:20:05.6	189.530	0.210	-0.680	1.290
2020/01/31 23:20:05.7	189.530	0.220	-0.710	1.320
2020/01/31 23:20:05.8	189.520	0.220	-0.730	1.350
2020/01/31 23:20:05.9	189.520	0.230	-0.740	1.380
2020/01/31 23:20:06.0	189.510	0.230	-0.750	1.410
2020/01/31 23:20:06.1	189.500	0.230	-0.760	1.440
2020/01/31 23:20:06.2	189.490	0.230	-0.770	1.460
2020/01/31 23:20:06.3	189.490	0.230	-0.770	1.480
2020/01/31 23:20:06.4	189.480	0.230	-0.760	1.500
2020/01/31 23:20:06.5	189.470	0.230	-0.750	1.520
2020/01/31 23:20:06.6	189.460	0.230	-0.750	1.540
2020/01/31 23:20:06.7	189.450	0.230	-0.740	1.550
2020/01/31 23:20:06.8	189.430	0.220	-0.730	1.560
2020/01/31 23:20:06.9	189.420	0.220	-0.720	1.570
2020/01/31 23:20:07.0	189.410	0.220	-0.700	1.570
2020/01/31 23:20:07.1	189.380	0.220	-0.690	1.570
2020/01/31 23:20:07.2	189.370	0.220	-0.680	1.570
2020/01/31 23:20:07.3	189.350	0.210	-0.670	1.570
2020/01/31 23:20:07.4	189.340	0.210	-0.670	1.570
2020/01/31 23:20:07.5	189.320	0.210	-0.660	1.560
2020/01/31 23:20:07.6	189.310	0.210	-0.660	1.550
2020/01/31 23:20:07.7	189.290	0.210	-0.660	1.540
2020/01/31 23:20:07.8	189.280	0.220	-0.670	1.530
2020/01/31 23:20:07.9	189.260	0.220	-0.670	1.520
2020/01/31 23:20:08.0	189.250	0.220	-0.680	1.500
2020/01/31 23:20:08.1	189.240	0.220	-0.690	1.480
2020/01/31 23:20:08.2	189.230	0.220	-0.700	1.470
2020/01/31 23:20:08.3	189.220	0.220	-0.700	1.450
2020/01/31 23:20:08.4	189.210	0.230	-0.710	1.420
2020/01/31 23:20:08.5	189.210	0.230	-0.720	1.400
2020/01/31 23:20:08.6	189.210	0.230	-0.730	1.380
2020/01/31 23:20:08.7	189.220	0.230	-0.730	1.350
2020/01/31 23:20:08.8	189.220	0.220	-0.740	1.320
2020/01/31 23:20:08.9	189.230	0.220	-0.740	1.290
2020/01/31 23:20:09.0	189.250	0.220	-0.740	1.260
2020/01/31 23:20:09.1	189.260	0.210	-0.730	1.220
2020/01/31 23:20:09.2	189.290	0.200	-0.730	1.190
2020/01/31 23:20:09.3	189.310	0.190	-0.720	1.150
2020/01/31 23:20:09.4	189.340	0.180	-0.710	1.120
2020/01/31 23:20:09.5	189.370	0.160	-0.690	1.080
2020/01/31 23:20:09.6	189.410	0.150	-0.680	1.050
2020/01/31 23:20:09.7	189.440	0.130	-0.660	1.020
2020/01/31 23:20:09.8	189.480	0.110	-0.630	0.990
2020/01/31 23:20:09.9	189.520	0.080	-0.610	0.960
2020/01/31 23:20:10.0	189.560	0.060	-0.580	0.930
2020/01/31 23:20:10.1	189.600	0.030	-0.560	0.910
2020/01/31 23:20:10.2	189.650	0.000	-0.530	0.890
2020/01/31 23:20:10.3	189.690	-0.030	-0.500	0.870
2020/01/31 23:20:10.4	189.730	-0.060	-0.470	0.850
2020/01/31 23:20:10.5	189.760	-0.090	-0.440	0.830
2020/01/31 23:20:10.6	189.800	-0.120	-0.410	0.820
2020/01/31 23:20:10.7	189.840	-0.150	-0.380	0.810
2020/01/31 23:20:10.8	189.870	-0.190	-0.350	0.810
2020/01/31 23:20:10.9	189.900	-0.220	-0.330	0.800
2020/01/31 23:20:11.0	189.930	-0.250	-0.300	0.810
2020/01/31 23:20:11.1	189.940	-0.280	-0.280	0.810
2020/01/31 23:20:11.2	189.970	-0.310	-0.260	0.820
2020/01/31 23:20:11.3	189.990	-0.340	-0.250	0.830
2020/01/31 23:20:11.4	190.000	-0.370	-0.240	0.850
2020/01/31 23:20:11.5	190.020	-0.390	-0.230	0.870
2020/01/31 23:20:11.6	190.030	-0.410	-0.220	0.890
2020/01/31 23:20:11.7	190.040	-0.430	-0.220	0.920
2020/01/31 23:20:11.8	190.050	-0.450	-0.220	0.950
2020/01/31 23:20:11.9	190.050	-0.470	-0.220	0.980
2020/01/31 23:20:12.0	190.060	-0.480	-0.220	1.010
2020/01/31 23:20:12.1	190.070	-0.490	-0.230	1.060
2020/01/31 23:20:12.2	190.070	-0.490	-0.240	1.100
2020/01/31 23:20:12.3	190.060	-0.500	-0.250	1.140
2020/01/31 23:20:12.4	190.060	-0.500	-0.270	1.180
2020/01/31 23:20:12.5	190.050	-0.490	-0.280	1.230
2020/01/31 23:20:12.6	190.050	-0.490	-0.300	1.280
2020/01/31 23:20:12.7	190.030	-0.480	-0.320	1.320
2020/01/31 23:20:12.8	190.020	-0.460	-0.330	1.370
2020/01/31 23:20:12.9	190.000	-0.450	-0.350	1.430
2020/01/31 23:20:13.0	189.990	-0.430	-0.370	1.480
2020/01/31 23:20:13.1	189.970	-0.410	-0.390	1.530
2020/01/31 23:20:13.2	189.940	-0.380	-0.410	1.580
2020/01/31 23:20:13.3	189.920	-0.350	-0.420	1.630
2020/01/31 23:20:13.4	189.890	-0.330	-0.440	1.680
2020/01/31 23:20:13.5	189.860	-0.300	-0.450	1.730
2020/01/31 23:20:13.6	189.830	-0.260	-0.470	1.780
2020/01/31 23:20:13.7	189.800	-0.230	-0.470	1.830
2020/01/31 23:20:13.8	189.770	-0.190	-0.480	1.870
2020/01/31 23:20:13.9	189.740	-0.160	-0.480	1.920
2020/01/31 23:20:14.0	189.700	-0.120	-0.480	1.950
2020/01/31 23:20:14.1	189.670	-0.090	-0.480	1.990
2020/01/31 23:20:14.2	189.640	-0.050	-0.470	2.020
2020/01/31 23:20:14.3	189.610	-0.020	-0.450	2.050
2020/01/31 23:20:14.4	189.580	0.010	-0.430	2.070
2020/01/31 23:20:14.5	189.550	0.040	-0.400	2.090
2020/01/31 23:20:14.6	189.530	0.070	-0.370	2.100
2020/01/31 23:20:14.7	189.500	0.100	-0.340	2.110
2020/01/31 23:20:14.8	189.480	0.120	-0.290	2.110
2020/01/31 23:20:14.9	189.460	0.140	-0.250	2.100
2020/01/31 23:20:15.0	189.450	0.160	-0.200	2.090
2020/01/31 23:20:15.1	189.450	0.170	-0.140	2.070
2020/01/31 23:20:15.2	189.440	0.180	-0.080	2.050
2020/01/31 23:20:15.3	189.430	0.190	-0.020	2.030
2020/01/31 23:20:15.4	189.430	0.190	0.040	2.000
2020/01/31 23:20:15.5	189.430	0.190	0.110	1.970
2020/01/31 23:20:15.6	189.440	0.190	0.180	1.930
2020/01/31 23:20:15.7	189.450	0.180	0.250	1.900
2020/01/31 23:20:15.8	189.460	0.170	0.310	1.860
2020/01/31 23:20:15.9	189.470	0.150	0.380	1.820
2020/01/31 23:20:16.0	189.490	0.140	0.450	1.770
2020/01/31 23:20:16.1	189.490	0.120	0.510	1.730
2020/01/31 23:20:16.2	189.510	0.090	0.560	1.690
2020/01/31 23:20:16.3	189.540	0.070	0.620	1.640
2020/01/31 23:20:16.4	189.560	0.040	0.670	1.600
2020/01/31 23:20:16.5	189.580	0.010	0.720	1.560
2020/01/31 23:20:16.6	189.600	-0.020	0.760	1.520
2020/01/31 23:20:16.7	189.630	-0.050	0.790	1.490
2020/01/31 23:20:16.8	189.650	-0.080	0.820	1.450
2020/01/31 23:20:16.9	189.670	-0.110	0.840	1.420
2020/01/31 23:20:17.0	189.690	-0.150	0.850	1.390
2020/01/31 23:20:17.1	189.710	-0.180	0.850	1.360
2020/01/31 23:20:17.2	189.730	-0.210	0.850	1.340
2020/01/31 23:20:17.3	189.750	-0.230	0.840	1.320
2020/01/31 23:20:17.4	189.760	-0.260	0.820	1.300
2020/01/31 23:20:17.5	189.780	-0.280	0.790	1.290
2020/01/31 23:20:17.6	189.790	-0.300	0.750	1.280
2020/01/31 23:20:17.7	189.810	-0.320	0.710	1.270
2020/01/31 23:20:17.8	189.820	-0.340	0.660	1.270
2020/01/31 23:20:17.9	189.830	-0.350	0.610	1.270
2020/01/31 23:20:18.0	189.840	-0.360	0.550	1.270
2020/01/31 23:20:18.1	189.850	-0.370	0.480	1.280
2020/01/31 23:20:18.2	189.860	-0.370	0.410	1.290
2020/01/31 23:20:18.3	189.860	-0.370	0.340	1.300
2020/01/31 23:20:18.4	189.870	-0.370	0.260	1.310
2020/01/31 23:20:18.5	189.870	-0.370	0.180	1.320
2020/01/31 23:20:18.6	189.880	-0.360	0.100	1.330
2020/01/31 23:20:18.7	189.880	-0.340	0.010	1.340
2020/01/31 23:20:18.8	189.880	-0.330	-0.070	1.350
2020/01/31 23:20:18.9	189.880	-0.310	-0.150	1.370
2020/01/31 23:20:19.0	189.880	-0.280	-0.240	1.380
2020/01/31 23:20:19.1	189.880	-0.260	-0.320	1.390
2020/01/31 23:20:19.2	189.870	-0.230	-0.400	1.410
2020/01/31 23:20:19.3	189.860	-0.200	-0.480	1.430
2020/01/31 23:20:19.4	189.850	-0.160	-0.560	1.440
2020/01/31 23:20:19.5	189.840	-0.130	-0.640	1.460
2020/01/31 23:20:19.6	189.820	-0.090	-0.720	1.480
2020/01/31 23:20:19.7	189.810	-0.050	-0.790	1.500
2020/01/31 23:20:19.8	189.780	-0.010	-0.860	1.520
2020/01/31 23:20:19.9	189.760	0.040	-0.930	1.540
2020/01/31 23:20:20.0	189.730	0.080	-0.990	1.560
2020/01/31 23:20:20.1	189.700	0.130	-1.060	1.580
2020/01/31 23:20:20.2	189.670	0.170	-1.120	1.600
2020/01/31 23:20:20.3	189.640	0.220	-1.170	1.620
2020/01/31 23:20:20.4	189.600	0.270	-1.220	1.640
2020/01/31 23:20:20.5	189.570	0.310	-1.260	1.660
2020/01/31 23:20:20.6	189.530	0.360	-1.300	1.670
2020/01/31 23:20:20.7	189.490	0.400	-1.330	1.680
2020/01/31 23:20:20.8	189.460	0.450	-1.350	1.690
2020/01/31 23:20:20.9	189.430	0.490	-1.360	1.690
2020/01/31 23:20:21.0	189.390	0.520	-1.370	1.700
2020/01/31 23:20:21.1	189.360	0.560	-1.370	1.690
2020/01/31 23:20:21.2	189.330	0.590	-1.360	1.680
2020/01/31 23:20:21.3	189.310	0.620	-1.340	1.670
2020/01/31 23:20:21.4	189.280	0.640	-1.310	1.660
2020/01/31 23:20:21.5	189.270	0.660	-1.280	1.640
2020/01/31 23:20:21.6	189.250	0.680	-1.240	1.610
2020/01/31 23:20:21.7	189.240	0.690	-1.180	1.580
2020/01/31 23:20:21.8	189.240	0.690	-1.120	1.550
2020/01/31 23:20:21.9	189.240	0.690	-1.050	1.510
2020/01/31 23:20:22.0	189.240	0.690	-0.980	1.470
2020/01/31 23:20:22.1	189.270	0.680	-0.900	1.430
2020/01/31 23:20:22.2	189.280	0.670	-0.810	1.380
2020/01/31 23:20:22.3	189.300	0.650	-0.720	1.340
2020/01/31 23:20:22.4	189.320	0.620	-0.620	1.290
2020/01/31 23:20:22.5	189.350	0.600	-0.530	1.240
2020/01/31 23:20:22.6	189.390	0.560	-0.430	1.190
2020/01/31 23:20:22.7	189.420	0.530	-0.320	1.150
2020/01/31 23:20:22.8	189.460	0.490	-0.220	1.100
2020/01/31 23:20:22.9	189.510	0.440	-0.120	1.050
2020/01/31 23:20:23.0	189.550	0.400	-0.030	1.000
2020/01/31 23:20:23.1	189.580	0.350	0.070	0.950
2020/01/31 23:20:23.2	189.630	0.300	0.160	0.900
2020/01/31 23:20:23.3	189.690	0.250	0.240	0.850
2020/01/31 23:20:23.4	189.740	0.200	0.320	0.800
2020/01/31 23:20:23.5	189.790	0.140	0.390	0.760
2020/01/31 23:20:23.6	189.850	0.090	0.450	0.720
2020/01/31 23:20:23.7	189.900	0.040	0.510	0.680
2020/01/31 23:20:23.8	189.960	-0.010	0.550	0.640
2020/01/31 23:20:23.9	190.010	-0.060	0.590	0.610
2020/01/31 23:20:24.0	190.060	-0.110	0.620	0.580
2020/01/31 23:20:24.1	190.110	-0.150	0.640	0.550
2020/01/31 23:20:24.2	190.160	-0.190	0.640	0.530
2020/01/31 23:20:24.3	190.200	-0.230	0.640	0.510
2020/01/31 23:20:24.4	190.240	-0.260	0.630	0.500
2020/01/31 23:20:24.5	190.270	-0.290	0.610	0.500
2020/01/31 23:20:24.6	190.310	-0.320	0.570	0.500
2020/01/31 23:20:24.7	190.330	-0.340	0.530	0.510
2020/01/31 23:20:24.8	190.350	-0.360	0.480	0.530
2020/01/31 23:20:24.9	190.370	-0.370	0.420	0.550
2020/01/31 23:20:25.0	190.380	-0.380	0.360	0.580
2020/01/31 23:20:25.1	190.380	-0.380	0.290	0.620
2020/01/31 23:20:25.2	190.380	-0.380	0.210	0.660
2020/01/31 23:20:25.3	190.370	-0.370	0.120	0.710
2020/01/31 23:20:25.4	190.360	-0.360	0.030	0.770
2020/01/31 23:20:25.5	190.340	-0.340	-0.060	0.820
2020/01/31 23:20:25.6	190.320	-0.320	-0.150	0.890
2020/01/31 23:20:25.7	190.290	-0.300	-0.250	0.950
2020/01/31 23:20:25.8	190.260	-0.270	-0.350	1.020
2020/01/31 23:20:25.9	190.230	-0.250	-0.440	1.100
2020/01/31 23:20:26.0	190.200	-0.220	-0.530	1.170
2020/01/31 23:20:26.1	190.180	-0.190	-0.620	1.250
2020/01/31 23:20:26.2	190.140	-0.160	-0.710	1.330
2020/01/31 23:20:26.3	190.110	-0.120	-0.780	1.400
2020/01/31 23:20:26.4	190.070	-0.090	-0.850	1.480
2020/01/31 23:20:26.5	190.040	-0.060	-0.920	1.550
2020/01/31 23:20:26.6	190.000	-0.030	-0.970	1.630
2020/01/31 23:20:26.7	189.970	-0.010	-1.010	1.700
2020/01/31 23:20:26.8	189.940	0.020	-1.050	1.770
2020/01/31 23:20:26.9	189.910	0.040	-1.070	1.830
2020/01/31 23:20:27.0	189.880	0.060	-1.090	1.900
2020/01/31 23:20:27.1	189.860	0.070	-1.090	1.960
2020/01/31 23:20:27.2	189.830	0.090	-1.080	2.010
2020/01/31 23:20:27.3	189.810	0.100	-1.060	2.070
2020/01/31 23:20:27.4	189.780	0.100	-1.040	2.120
2020/01/31 23:20:27.5	189.770	0.100	-1.000	2.160
2020/01/31 23:20:27.6	189.750	0.100	-0.950	2.200
2020/01/31 23:20:27.7	189.730	0.090	-0.900	2.240
2020/01/31 23:20:27.8	189.720	0.080	-0.840	2.270
2020/01/31 23:20:27.9	189.710	0.070	-0.770	2.290
2020/01/31 23:20:28.0	189.700	0.050	-0.700	2.310
2020/01/31 23:20:28.1	189.720	0.030	-0.620	2.330
2020/01/31 23:20:28.2	189.710	0.010	-0.540	2.340
2020/01/31 23:20:28.3	189.710	-0.020	-0.460	2.350
2020/01/31 23:20:28.4	189.710	-0.050	-0.370	2.350
2020/01/31 23:20:28.5	189.710	-0.080	-0.290	2.350
2020/01/31 23:20:28.6	189.720	-0.110	-0.200	2.340
2020/01/31 23:20:28.7	189.720	-0.140	-0.110	2.330
2020/01/31 23:20:28.8	189.730	-0.170	-0.030	2.320
2020/01/31 23:20:28.9	189.740	-0.200	0.050	2.300
2020/01/31 23:20:29.0	189.740	-0.240	0.120	2.280
2020/01/31 23:20:29.1	189.750	-0.270	0.190	2.260
2020/01/31 23:20:29.2	189.760	-0.290	0.250	2.230
2020/01/31 23:20:29.3	189.770	-0.320	0.310	2.210
2020/01/31 23:20:29.4	189.770	-0.340	0.350	2.170
2020/01/31 23:20:29.5	189.780	-0.370	0.390	2.140
2020/01/31 23:20:29.6	189.780	-0.380	0.430	2.100
2020/01/31 23:20:29.7	189.790	-0.400	0.450	2.070
2020/01/31 23:20:29.8	189.790	-0.410	0.460	2.030
2020/01/31 23:20:29.9	189.790	-0.410	0.470	1.990
2020/01/31 23:20:30.0	189.790	-0.410	0.470	1.950
2020/01/31 23:20:30.1	189.800	-0.410	0.450	1.900
2020/01/31 23:20:30.2	189.790	-0.400	0.430	1.860
2020/01/31 23:20:30.3	189.790	-0.380	0.410	1.810
2020/01/31 23:20:30.4	189.790	-0.360	0.370	1.770
2020/01/31 23:20:30.5	189.780	-0.340	0.330	1.720
2020/01/31 23:20:30.6	189.770	-0.310	0.290	1.680
2020/01/31 23:20:30.7	189.770	-0.280	0.240	1.630
2020/01/31 23:20:30.8	189.760	-0.250	0.180	1.590
2020/01/31 23:20:30.9	189.750	-0.210	0.120	1.540
2020/01/31 23:20:31.0	189.750	-0.170	0.060	1.490
2020/01/31 23:20:31.1	189.740	-0.120	0.010	1.440
2020/01/31 23:20:31.2	189.730	-0.080	-0.060	1.400
2020/01/31 23:20:31.3	189.730	-0.030	-0.120	1.350
2020/01/31 23:20:31.4	189.730	0.010	-0.180	1.300
2020/01/31 23:20:31.5	189.740	0.060	-0.240	1.250
2020/01/31 23:20:31.6	189.740	0.100	-0.300	1.200
2020/01/31 23:20:31.7	189.750	0.150	-0.360	1.160
2020/01/31 23:20:31.8	189.760	0.190	-0.410	1.110
2020/01/31 23:20:31.9	189.770	0.230	-0.460	1.060
2020/01/31 23:20:32.0	189.780	0.270	-0.500	1.020
2020/01/31 23:20:32.1	189.790	0.310	-0.540	0.980
2020/01/31 23:20:32.2	189.800	0.340	-0.580	0.930
2020/01/31 23:20:32.3	189.820	0.370	-0.610	0.890
2020/01/31 23:20:32.4	189.840	0.390	-0.630	0.860
2020/01/31 23:20:32.5	189.860	0.420	-0.660	0.820
2020/01/31 23:20:32.6	189.880	0.430	-0.670	0.780
2020/01/31 23:20:32.7	189.900	0.440	-0.680	0.750
2020/01/31 23:20:32.8	189.920	0.450	-0.690	0.710
2020/01/31 23:20:32.9	189.940	0.450	-0.690	0.680
2020/01/31 23:20:33.0	189.960	0.450	-0.690	0.650
2020/01/31 23:20:33.1	189.970	0.450	-0.690	0.620
2020/01/31 23:20:33.2	189.980	0.440	-0.680	0.600
2020/01/31 23:20:33.3	190.000	0.430	-0.670	0.570
2020/01/31 23:20:33.4	190.010	0.410	-0.660	0.560
2020/01/31 23:20:33.5	190.030	0.390	-0.650	0.540
2020/01/31 23:20:33.6	190.040	0.370	-0.640	0.530
2020/01/31 23:20:33.7	190.040	0.340	-0.620	0.520
2020/01/31 23:20:33.8	190.050	0.310	-0.610	0.520
2020/01/31 23:20:33.9	190.050	0.280	-0.600	0.520
2020/01/31 23:20:34.0	190.060	0.250	-0.580	0.520
2020/01/31 23:20:34.1	190.050	0.220	-0.570	0.530
2020/01/31 23:20:34.2	190.050	0.180	-0.560	0.550
2020/01/31 23:20:34.3	190.050	0.150	-0.550	0.570
2020/01/31 23:20:34.4	190.050	0.110	-0.540	0.600
2020/01/31 23:20:34.5	190.040	0.070	-0.530	0.630
2020/01/31 23:20:34.6	190.040	0.040	-0.520	0.660
2020/01/31 23:20:34.7	190.040	-0.000	-0.510	0.700
2020/01/31 23:20:34.8	190.030	-0.040	-0.500	0.740
2020/01/31 23:20:34.9	190.030	-0.070	-0.490	0.790
2020/01/31 23:20:35.0	190.020	-0.110	-0.480	0.840
2020/01/31 23:20:35.1	190.010	-0.140	-0.470	0.890
2020/01/31 23:20:35.2	190.010	-0.170	-0.460	0.940
2020/01/31 23:20:35.3	190.010	-0.200	-0.450	0.990
2020/01/31 23:20:35.4	190.010	-0.220	-0.430	1.040
2020/01/31 23:20:35.5	190.010	-0.250	-0.410	1.090
2020/01/31 23:20:35.6	190.010	-0.270	-0.400	1.130
2020/01/31 23:20:35.7	190.010	-0.290	-0.370	1.180
2020/01/31 23:20:35.8	190.010	-0.310	-0.350	1.220
2020/01/31 23:20:35.9	190.020	-0.330	-0.330	1.260
2020/01/31 23:20:36.0	190.020	-0.340	-0.300	1.300
2020/01/31 23:20:36.1	190.050	-0.350	-0.270	1.340
2020/01/31 23:20:36.2	190.050	-0.360	-0.240	1.370
2020/01/31 23:20:36.3	190.060	-0.370	-0.210	1.400
2020/01/31 23:20:36.4	190.070	-0.370	-0.170	1.430
2020/01/31 23:20:36.5	190.080	-0.380	-0.140	1.460
2020/01/31 23:20:36.6	190.090	-0.380	-0.100	1.490
2020/01/31 23:20:36.7	190.100	-0.380	-0.070	1.520
2020/01/31 23:20:36.8	190.110	-0.380	-0.040	1.540
2020/01/31 23:20:36.9	190.130	-0.370	-0.000	1.560
2020/01/31 23:20:37.0	190.140	-0.370	0.030	1.590
2020/01/31 23:20:37.1	190.150	-0.360	0.060	1.610
2020/01/31 23:20:37.2	190.160	-0.350	0.090	1.640
2020/01/31 23:20:37.3	190.170	-0.350	0.110	1.660
2020/01/31 23:20:37.4	190.180	-0.330	0.140	1.670
2020/01/31 23:20:37.5	190.180	-0.320	0.160	1.690
2020/01/31 23:20:37.6	190.190	-0.310	0.170	1.710
2020/01/31 23:20:37.7	190.200	-0.300	0.190	1.720
2020/01/31 23:20:37.8	190.200	-0.280	0.200	1.740
2020/01/31 23:20:37.9	190.200	-0.260	0.210	1.750
2020/01/31 23:20:38.0	190.210	-0.250	0.210	1.760
2020/01/31 23:20:38.1	190.220	-0.230	0.210	1.770
2020/01/31 23:20:38.2	190.210	-0.210	0.200	1.780
2020/01/31 23:20:38.3	190.210	-0.190	0.200	1.780
2020/01/31 23:20:38.4	190.210	-0.170	0.190	1.790
2020/01/31 23:20:38.5	190.200	-0.150	0.170	1.790
2020/01/31 23:20:38.6	190.190	-0.130	0.160	1.790
2020/01/31 23:20:38.7	190.180	-0.110	0.140	1.790
2020/01/31 23:20:38.8	190.170	-0.090	0.120	1.790
2020/01/31 23:20:38.9	190.160	-0.070	0.090	1.790
2020/01/31 23:20:39.0	190.140	-0.050	0.070	1.790
2020/01/31 23:20:39.1	190.110	-0.020	0.040	1.790
2020/01/31 23:20:39.2	190.090	-0.000	0.020	1.780
2020/01/31 23:20:39.3	190.060	0.020	-0.010	1.780
2020/01/31 23:20:39.4	190.040	0.050	-0.040	1.780
2020/01/31 23:20:39.5	190.010	0.070	-0.070	1.780
2020/01/31 23:20:39.6	189.980	0.090	-0.100	1.780
2020/01/31 23:20:39.7	189.950	0.120	-0.140	1.790
2020/01/31 23:20:39.8	189.920	0.140	-0.170	1.790
2020/01/31 23:20:39.9	189.890	0.160	-0.200	1.790
2020/01/31 23:20:40.0	189.850	0.190	-0.220	1.790
2020/01/31 23:20:40.1	189.830	0.210	-0.250	1.800
2020/01/31 23:20:40.2	189.790	0.240	-0.280	1.800
2020/01/31 23:20:40.3	189.760	0.260	-0.300	1.810
2020/01/31 23:20:40.4	189.730	0.280	-0.320	1.810
2020/01/31 23:20:40.5	189.690	0.300	-0.340	1.810
2020/01/31 23:20:40.6	189.670	0.320	-0.360	1.810
2020/01/31 23:20:40.7	189.640	0.340	-0.370	1.810
2020/01/31 23:20:40.8	189.610	0.360	-0.380	1.800
2020/01/31 23:20:40.9	189.590	0.380	-0.390	1.800
2020/01/31 23:20:41.0	189.570	0.400	-0.390	1.780
2020/01/31 23:20:41.1	189.560	0.410	-0.400	1.770
2020/01/31 23:20:41.2	189.550	0.420	-0.400	1.750
2020/01/31 23:20:41.3	189.540	0.430	-0.390	1.730
2020/01/31 23:20:41.4	189.530	0.440	-0.380	1.710
2020/01/31 23:20:41.5	189.530	0.440	-0.370	1.680
2020/01/31 23:20:41.6	189.530	0.450	-0.350	1.660
2020/01/31 23:20:41.7	189.530	0.450	-0.330	1.630
2020/01/31 23:20:41.8	189.540	0.440	-0.310	1.590
2020/01/31 23:20:41.9	189.550	0.440	-0.290	1.560
2020/01/31 23:20:42.0	189.560	0.430	-0.260	1.530
2020/01/31 23:20:42.1	189.580	0.420	-0.230	1.490
2020/01/31 23:20:42.2	189.600	0.410	-0.200	1.450
2020/01/31 23:20:42.3	189.620	0.390	-0.170	1.410
2020/01/31 23:20:42.4	189.650	0.370	-0.140	1.380
2020/01/31 23:20:42.5	189.670	0.350	-0.110	1.340
2020/01/31 23:20:42.6	189.700	0.330	-0.080	1.310
2020/01/31 23:20:42.7	189.730	0.300	-0.050	1.270
2020/01/31 23:20:42.8	189.760	0.280	-0.020	1.240
2020/01/31 23:20:42.9	189.790	0.250	0.000	1.200
2020/01/31 23:20:43.0	189.820	0.220	0.030	1.170
2020/01/31 23:20:43.1	189.850	0.190	0.050	1.140
2020/01/31 23:20:43.2	189.890	0.160	0.070	1.120
2020/01/31 23:20:43.3	189.920	0.130	0.090	1.090
2020/01/31 23:20:43.4	189.960	0.090	0.110	1.070
2020/01/31 23:20:43.5	189.990	0.060	0.120	1.050
2020/01/31 23:20:43.6	190.030	0.030	0.130	1.030
2020/01/31 23:20:43.7	190.060	0.000	0.130	1.010
2020/01/31 23:20:43.8	190.100	-0.030	0.130	1.000
2020/01/31 23:20:43.9	190.130	-0.050	0.130	0.990
2020/01/31 23:20:44.0	190.160	-0.080	0.120	0.980
2020/01/31 23:20:44.1	190.180	-0.100	0.110	0.970
2020/01/31 23:20:44.2	190.200	-0.120	0.090	0.970
2020/01/31 23:20:44.3	190.220	-0.140	0.070	0.970
2020/01/31 23:20:44.4	190.240	-0.150	0.040	0.970
2020/01/31 23:20:44.5	190.250	-0.170	0.010	0.980
2020/01/31 23:20:44.6	190.260	-0.170	-0.030	0.990
2020/01/31 23:20:44.7	190.270	-0.180	-0.080	1.000
2020/01/31 23:20:44.8	190.270	-0.180	-0.120	1.020
2020/01/31 23:20:44.9	190.260	-0.170	-0.170	1.040
2020/01/31 23:20:45.0	190.250	-0.160	-0.230	1.070
2020/01/31 23:20:45.1	190.230	-0.150	-0.290	1.100
2020/01/31 23:20:45.2	190.210	-0.140	-0.350	1.130
2020/01/31 23:20:45.3	190.200	-0.120	-0.410	1.160
2020/01/31 23:20:45.4	190.170	-0.100	-0.480	1.190
2020/01/31 23:20:45.5	190.150	-0.070	-0.550	1.230
2020/01/31 23:20:45.6	190.120	-0.040	-0.610	1.260
2020/01/31 23:20:45.7	190.100	-0.010	-0.680	1.300
2020/01/31 23:20:45.8	190.070	0.020	-0.740	1.330
2020/01/31 23:20:45.9	190.040	0.050	-0.800	1.370
2020/01/31 23:20:46.0	190.010	0.090	-0.860	1.400
2020/01/31 23:20:46.1	189.970	0.120	-0.920	1.440
2020/01/31 23:20:46.2	189.940	0.150	-0.970	1.470
2020/01/31 23:20:46.3	189.920	0.190	-1.010	1.500
2020/01/31 23:20:46.4	189.900	0.220	-1.050	1.530
2020/01/31 23:20:46.5	189.870	0.250	-1.090	1.560
2020/01/31 23:20:46.6	189.860	0.280	-1.120	1.590
2020/01/31 23:20:46.7	189.840	0.300	-1.140	1.610
2020/01/31 23:20:46.8	189.830	0.330	-1.160	1.630
2020/01/31 23:20:46.9	189.820	0.350	-1.170	1.650
2020/01/31 23:20:47.0	189.820	0.360	-1.170	1.670
2020/01/31 23:20:47.1	189.820	0.380	-1.160	1.680
2020/01/31 23:20:47.2	189.820	0.380	-1.150	1.690
2020/01/31 23:20:47.3	189.830	0.390	-1.130	1.700
2020/01/31 23:20:47.4	189.830	0.390	-1.100	1.710
2020/01/31 23:20:47.5	189.840	0.380	-1.070	1.710
2020/01/31 23:20:47.6	189.850	0.370	-1.030	1.710
2020/01/31 23:20:47.7	189.870	0.360	-0.990	1.710
2020/01/31 23:20:47.8	189.880	0.340	-0.940	1.710
2020/01/31 23:20:47.9	189.900	0.310	-0.880	1.700
2020/01/31 23:20:48.0	189.920	0.290	-0.820	1.690
2020/01/31 23:20:48.1	189.940	0.260	-0.750	1.690
2020/01/31 23:20:48.2	189.960	0.220	-0.680	1.680
2020/01/31 23:20:48.3	189.980	0.180	-0.610	1.660
2020/01/31 23:20:48.4	190.000	0.140	-0.540	1.650
2020/01/31 23:20:48.5	190.030	0.100	-0.460	1.640
2020/01/31 23:20:48.6	190.050	0.050	-0.380	1.630
2020/01/31 23:20:48.7	190.080	0.010	-0.310	1.610
2020/01/31 23:20:48.8	190.100	-0.040	-0.230	1.600
2020/01/31 23:20:48.9	190.120	-0.090	-0.160	1.590
2020/01/31 23:20:49.0	190.150	-0.140	-0.080	1.570
2020/01/31 23:20:49.1	190.170	-0.180	-0.010	1.560
2020/01/31 23:20:49.2	190.200	-0.230	0.060	1.550
2020/01/31 23:20:49.3	190.220	-0.270	0.120	1.530
2020/01/31 23:20:49.4	190.240	-0.320	0.180	1.520
2020/01/31 23:20:49.5	190.270	-0.360	0.230	1.510
2020/01/31 23:20:49.6	190.290	-0.390	0.280	1.500
2020/01/31 23:20:49.7	190.310	-0.430	0.330	1.490
2020/01/31 23:20:49.8	190.330	-0.460	0.370	1.480
2020/01/31 23:20:49.9	190.350	-0.480	0.400	1.470
2020/01/31 23:20:50.0	190.370	-0.510	0.430	1.460
2020/01/31 23:20:50.1	190.390	-0.530	0.450	1.450
2020/01/31 23:20:50.2	190.410	-0.540	0.470	1.440
2020/01/31 23:20:50.3	190.420	-0.550	0.480	1.430
2020/01/31 23:20:50.4	190.430	-0.560	0.480	1.430
2020/01/31 23:20:50.5	190.440	-0.560	0.480	1.430
2020/01/31 23:20:50.6	190.450	-0.550	0.460	1.420
2020/01/31 23:20:50.7	190.450	-0.550	0.450	1.430
2020/01/31 23:20:50.8	190.450	-0.530	0.420	1.430
2020/01/31 23:20:50.9	190.450	-0.520	0.390	1.430
2020/01/31 23:20:51.0	190.440	-0.500	0.350	1.440
2020/01/31 23:20:51.1	190.440	-0.470	0.310	1.450
2020/01/31 23:20:51.2	190.430	-0.440	0.250	1.460
2020/01/31 23:20:51.3	190.420	-0.410	0.200	1.470
2020/01/31 23:20:51.4	190.400	-0.380	0.140	1.480
2020/01/31 23:20:51.5	190.390	-0.340	0.070	1.490
2020/01/31 23:20:51.6	190.370	-0.300	0.000	1.500
2020/01/31 23:20:51.7	190.350	-0.260	-0.070	1.510
2020/01/31 23:20:51.8	190.330	-0.210	-0.140	1.520
2020/01/31 23:20:51.9	190.310	-0.170	-0.220	1.530
2020/01/31 23:20:52.0	190.290	-0.120	-0.300	1.540
2020/01/31 23:20:52.1	190.250	-0.080	-0.370	1.550
2020/01/31 23:20:52.2	190.230	-0.030	-0.440	1.560
2020/01/31 23:20:52.3	190.210	0.010	-0.510	1.560
2020/01/31 23:20:52.4	190.190	0.060	-0.580	1.570
2020/01/31 23:20:52.5	190.170	0.100	-0.640	1.580
2020/01/31 23:20:52.6	190.150	0.140	-0.700	1.580
2020/01/31 23:20:52.7	190.130	0.170	-0.750	1.590
2020/01/31 23:20:52.8	190.110	0.210	-0.790	1.590
2020/01/31 23:20:52.9	190.090	0.240	-0.830	1.600
2020/01/31 23:20:53.0	190.080	0.270	-0.860	1.600
2020/01/31 23:20:53.1	190.070	0.290	-0.880	1.610
2020/01/31 23:20:53.2	190.060	0.310	-0.890	1.610
2020/01/31 23:20:53.3	190.050	0.330	-0.890	1.610
2020/01/31 23:20:53.4	190.050	0.340	-0.880	1.610
2020/01/31 23:20:53.5	190.050	0.350	-0.870	1.610
2020/01/31 23:20:53.6	190.050	0.350	-0.840	1.610
2020/01/31 23:20:53.7	190.050	0.350	-0.810	1.610
2020/01/31 23:20:53.8	190.060	0.350	-0.770	1.610
2020/01/31 23:20:53.9	190.070	0.340	-0.720	1.600
2020/01/31 23:20:54.0	190.090	0.320	-0.670	1.590
2020/01/31 23:20:54.1	190.080	0.310	-0.600	1.580
2020/01/31 23:20:54.2	190.100	0.290	-0.540	1.570
2020/01/31 23:20:54.3	190.120	0.260	-0.470	1.560
2020/01/31 23:20:54.4	190.140	0.230	-0.390	1.550
2020/01/31 23:20:54.5	190.160	0.200	-0.320	1.540
2020/01/31 23:20:54.6	190.190	0.170	-0.240	1.520
2020/01/31 23:20:54.7	190.210	0.130	-0.160	1.500
2020/01/31 23:20:54.8	190.240	0.100	-0.090	1.480
2020/01/31 23:20:54.9	190.260	0.060	-0.010	1.470
2020/01/31 23:20:55.0	190.290	0.020	0.060	1.450
2020/01/31 23:20:55.1	190.320	-0.020	0.130	1.420
2020/01/31 23:20:55.2	190.350	-0.060	0.200	1.400
2020/01/31 23:20:55.3	190.370	-0.100	0.260	1.390
2020/01/31 23:20:55.4	190.400	-0.140	0.320	1.370
2020/01/31 23:20:55.5	190.420	-0.180	0.370	1.350
2020/01/31 23:20:55.6	190.440	-0.220	0.420	1.330
2020/01/31 23:20:55.7	190.460	-0.250	0.460	1.310
2020/01/31 23:20:55.8	190.480	-0.280	0.490	1.300
2020/01/31 23:20:55.9	190.500	-0.310	0.510	1.280
2020/01/31 23:20:56.0	190.510	-0.340	0.530	1.270
2020/01/31 23:20:56.1	190.530	-0.360	0.550	1.250
2020/01/31 23:20:56.2	190.540	-0.380	0.550	1.240
2020/01/31 23:20:56.3	190.550	-0.400	0.540	1.240
2020/01/31 23:20:56.4	190.560	-0.410	0.530	1.230
2020/01/31 23:20:56.5	190.570	-0.420	0.510	1.230
2020/01/31 23:20:56.6	190.570	-0.420	0.490	1.230
2020/01/31 23:20:56.7	190.570	-0.420	0.460	1.240
2020/01/31 23:20:56.8	190.570	-0.420	0.420	1.240
2020/01/31 23:20:56.9	190.570	-0.410	0.380	1.250
2020/01/31 23:20:57.0	190.570	-0.400	0.340	1.260
2020/01/31 23:20:57.1	190.560	-0.380	0.290	1.280
2020/01/31 23:20:57.2	190.560	-0.360	0.230	1.290
2020/01/31 23:20:57.3	190.550	-0.330	0.180	1.300
2020/01/31 23:20:57.4	190.550	-0.310	0.120	1.320
2020/01/31 23:20:57.5	190.540	-0.270	0.070	1.330
2020/01/31 23:20:57.6	190.530	-0.240	0.010	1.350
2020/01/31 23:20:57.7	190.530	-0.200	-0.040	1.360
2020/01/31 23:20:57.8	190.520	-0.160	-0.100	1.370
2020/01/31 23:20:57.9	190.510	-0.120	-0.150	1.380
2020/01/31 23:20:58.0	190.500	-0.070	-0.200	1.390
2020/01/31 23:20:58.1	190.490	-0.020	-0.250	1.400
2020/01/31 23:20:58.2	190.490	0.030	-0.300	1.400
2020/01/31 23:20:58.3	190.480	0.080	-0.340	1.400
2020/01/31 23:20:58.4	190.470	0.130	-0.370	1.400
2020/01/31 23:20:58.5	190.460	0.180	-0.410	1.400
2020/01/31 23:20:58.6	190.450	0.230	-0.440	1.400
2020/01/31 23:20:58.7	190.450	0.280	-0.470	1.390
2020/01/31 23:20:58.8	190.440	0.330	-0.490	1.380
2020/01/31 23:20:58.9	190.430	0.380	-0.510	1.370
2020/01/31 23:20:59.0	190.420	0.430	-0.530	1.350
2020/01/31 23:20:59.1	190.430	0.470	-0.540	1.330
2020/01/31 23:20:59.2	190.420	0.510	-0.550	1.310
2020/01/31 23:20:59.3	190.410	0.550	-0.560	1.290
2020/01/31 23:20:59.4	190.410	0.590	-0.570	1.270
2020/01/31 23:20:59.5	190.400	0.620	-0.570	1.250
2020/01/31 23:20:59.6	190.390	0.650	-0.580	1.220
2020/01/31 23:20:59.7	190.390	0.670	-0.580	1.200
2020/01/31 23:20:59.8	190.380	0.690	-0.590	1.170
2020/01/31 23:20:59.9	190.370	0.700	-0.590	1.150
2020/01/31 23:21:00.0	190.370	0.720	-0.590	1.130
2020/01/31 23:21:00.1	190.360	0.720	-0.600	1.110
2020/01/31 23:21:00.2	190.350	0.720	-0.600	1.090
2020/01/31 23:21:00.3	190.340	0.720	-0.600	1.080
2020/01/31 23:21:00.4	190.340	0.710	-0.600	1.070
2020/01/31 23:21:00.5	190.330	0.700	-0.610	1.060
2020/01/31 23:21:00.6	190.320	0.690	-0.610	1.060
2020/01/31 23:21:00.7	190.310	0.670	-0.610	1.050
2020/01/31 23:21:00.8	190.300	0.640	-0.610	1.060
2020/01/31 23:21:00.9	190.290	0.610	-0.610	1.060
2020/01/31 23:21:01.0	190.290	0.580	-0.610	1.070
2020/01/31 23:21:01.1	190.280	0.550	-0.610	1.090
2020/01/31 23:21:01.2	190.270	0.510	-0.600	1.100
2020/01/31 23:21:01.3	190.270	0.470	-0.600	1.120
2020/01/31 23:21:01.4	190.260	0.420	-0.590	1.150
2020/01/31 23:21:01.5	190.250	0.370	-0.590	1.170
2020/01/31 23:21:01.6	190.250	0.320	-0.570	1.200
2020/01/31 23:21:01.7	190.240	0.270	-0.560	1.230
2020/01/31 23:21:01.8	190.240	0.220	-0.550	1.260
2020/01/31 23:21:01.9	190.240	0.160	-0.520	1.290
2020/01/31 23:21:02.0	190.230	0.110	-0.500	1.320
2020/01/31 23:21:02.1	190.240	0.050	-0.480	1.360
2020/01/31 23:21:02.2	190.240	-0.010	-0.450	1.390
2020/01/31 23:21:02.3	190.250	-0.070	-0.420	1.420
2020/01/31 23:21:02.4	190.250	-0.120	-0.380	1.460
2020/01/31 23:21:02.5	190.250	-0.180	-0.350	1.490
2020/01/31 23:21:02.6	190.260	-0.240	-0.310	1.530
2020/01/31 23:21:02.7	190.260	-0.290	-0.260	1.560
2020/01/31 23:21:02.8	190.270	-0.350	-0.220	1.600
2020/01/31 23:21:02.9	190.270	-0.400	-0.180	1.630
2020/01/31 23:21:03.0	190.280	-0.440	-0.140	1.660
2020/01/31 23:21:03.1	190.280	-0.490	-0.100	1.690
2020/01/31 23:21:03.2	190.280	-0.530	-0.060	1.720
2020/01/31 23:21:03.3	190.290	-0.570	-0.030	1.750
2020/01/31 23:21:03.4	190.290	-0.600	0.000	1.780
2020/01/31 23:21:03.5	190.290	-0.630	0.030	1.810
2020/01/31 23:21:03.6	190.300	-0.660	0.050	1.830
2020/01/31 23:21:03.7	190.300	-0.680	0.070	1.860
2020/01/31 23:21:03.8	190.300	-0.690	0.080	1.880
2020/01/31 23:21:03.9	190.300	-0.700	0.080	1.910
2020/01/31 23:21:04.0	190.300	-0.710	0.080	1.930
2020/01/31 23:21:04.1	190.310	-0.710	0.070	1.950
2020/01/31 23:21:04.2	190.300	-0.700	0.060	1.970
2020/01/31 23:21:04.3	190.290	-0.690	0.040	1.990
2020/01/31 23:21:04.4	190.290	-0.670	0.010	2.010
2020/01/31 23:21:04.5	190.270	-0.650	-0.030	2.040
2020/01/31 23:21:04.6	190.260	-0.620	-0.070	2.060
2020/01/31 23:21:04.7	190.240	-0.590	-0.110	2.080
2020/01/31 23:21:04.8	190.230	-0.560	-0.160	2.100
2020/01/31 23:21:04.9	190.200	-0.510	-0.220	2.120
2020/01/31 23:21:05.0	190.180	-0.470	-0.280	2.130
2020/01/31 23:21:05.1	190.160	-0.420	-0.340	2.150
2020/01/31 23:21:05.2	190.130	-0.370	-0.400	2.170
2020/01/31 23:21:05.3	190.110	-0.310	-0.460	2.180
2020/01/31 23:21:05.4	190.080	-0.250	-0.530	2.190
2020/01/31 23:21:05.5	190.050	-0.200	-0.590	2.200
2020/01/31 23:21:05.6	190.020	-0.140	-0.640	2.210
2020/01/31 23:21:05.7	189.990	-0.080	-0.700	2.210
2020/01/31 23:21:05.8	189.960	-0.020	-0.750	2.210
2020/01/31 23:21:05.9	189.930	0.040	-0.790	2.200
2020/01/31 23:21:06.0	189.910	0.100	-0.830	2.190
2020/01/31 23:21:06.1	189.890	0.160	-0.860	2.170
2020/01/31 23:21:06.2	189.870	0.210	-0.880	2.150
2020/01/31 23:21:06.3	189.850	0.270	-0.890	2.130
2020/01/31 23:21:06.4	189.830	0.310	-0.900	2.100
2020/01/31 23:21:06.5	189.820	0.360	-0.890	2.060
2020/01/31 23:21:06.6	189.810	0.400	-0.880	2.020
2020/01/31 23:21:06.7	189.810	0.430	-0.850	1.980
2020/01/31 23:21:06.8	189.810	0.460	-0.820	1.930
2020/01/31 23:21:06.9	189.820	0.490	-0.770	1.880
2020/01/31 23:21:07.0	189.830	0.510	-0.720	1.830
2020/01/31 23:21:07.1	189.840	0.520	-0.660	1.760
2020/01/31 23:21:07.2	189.860	0.530	-0.600	1.700
2020/01/31 23:21:07.3	189.880	0.540	-0.520	1.640
2020/01/31 23:21:07.4	189.900	0.540	-0.440	1.580
2020/01/31 23:21:07.5	189.930	0.530	-0.360	1.510
2020/01/31 23:21:07.6	189.960	0.520	-0.270	1.450
2020/01/31 23:21:07.7	189.990	0.500	-0.190	1.380
2020/01/31 23:21:07.8	190.020	0.480	-0.100	1.310
2020/01/31 23:21:07.9	190.060	0.460	-0.010	1.250
2020/01/31 23:21:08.0	190.090	0.430	0.080	1.190
2020/01/31 23:21:08.1	190.130	0.400	0.160	1.120
2020/01/31 23:21:08.2	190.170	0.360	0.240	1.060
2020/01/31 23:21:08.3	190.200	0.330	0.310	1.000
2020/01/31 23:21:08.4	190.240	0.290	0.380	0.950
2020/01/31 23:21:08.5	190.270	0.250	0.440	0.900
2020/01/31 23:21:08.6	190.300	0.210	0.500	0.860
2020/01/31 23:21:08.7	190.330	0.170	0.540	0.820
2020/01/31 23:21:08.8	190.350	0.130	0.580	0.780
2020/01/31 23:21:08.9	190.370	0.100	0.610	0.750
2020/01/31 23:21:09.0	190.390	0.060	0.630	0.720
2020/01/31 23:21:09.1	190.400	0.030	0.640	0.700
2020/01/31 23:21:09.2	190.410	-0.010	0.640	0.690
2020/01/31 23:21:09.3	190.420	-0.040	0.630	0.680
2020/01/31 23:21:09.4	190.430	-0.060	0.610	0.680
2020/01/31 23:21:09.5	190.430	-0.090	0.580	0.680
2020/01/31 23:21:09.6	190.430	-0.110	0.540	0.690
2020/01/31 23:21:09.7	190.430	-0.130	0.490	0.710
2020/01/31 23:21:09.8	190.430	-0.140	0.440	0.730
2020/01/31 23:21:09.9	190.430	-0.150	0.380	0.750
2020/01/31 23:21:10.0	190.420	-0.160	0.320	0.770
2020/01/31 23:21:10.1	190.410	-0.170	0.250	0.800
2020/01/31 23:21:10.2	190.400	-0.170	0.180	0.830
2020/01/31 23:21:10.3	190.400	-0.180	0.100	0.870
2020/01/31 23:21:10.4	190.390	-0.170	0.030	0.900
2020/01/31 23:21:10.5	190.390	-0.170	-0.040	0.930
2020/01/31 23:21:10.6	190.390	-0.170	-0.110	0.970
2020/01/31 23:21:10.7	190.390	-0.160	-0.190	1.000
2020/01/31 23:21:10.8	190.390	-0.160	-0.250	1.040
2020/01/31 23:21:10.9	190.390	-0.150	-0.320	1.070
2020/01/31 23:21:11.0	190.390	-0.140	-0.380	1.110
2020/01/31 23:21:11.1	190.400	-0.140	-0.430	1.150
2020/01/31 23:21:11.2	190.400	-0.130	-0.480	1.190
2020/01/31 23:21:11.3	190.410	-0.120	-0.530	1.230
2020/01/31 23:21:11.4	190.420	-0.120	-0.570	1.270
2020/01/31 23:21:11.5	190.430	-0.110	-0.610	1.300
2020/01/31 23:21:11.6	190.430	-0.110	-0.640	1.340
2020/01/31 23:21:11.7	190.440	-0.110	-0.670	1.380
2020/01/31 23:21:11.8	190.450	-0.100	-0.690	1.420
2020/01/31 23:21:11.9	190.460	-0.100	-0.700	1.460
2020/01/31 23:21:12.0	190.470	-0.100	-0.710	1.490
2020/01/31 23:21:12.1	190.470	-0.110	-0.720	1.530
2020/01/31 23:21:12.2	190.480	-0.110	-0.720	1.570
2020/01/31 23:21:12.3	190.490	-0.110	-0.710	1.600
2020/01/31 23:21:12.4	190.490	-0.110	-0.700	1.630
2020/01/31 23:21:12.5	190.490	-0.120	-0.690	1.670
2020/01/31 23:21:12.6	190.490	-0.120	-0.680	1.700
2020/01/31 23:21:12.7	190.490	-0.130	-0.660	1.730
2020/01/31 23:21:12.8	190.490	-0.130	-0.640	1.760
2020/01/31 23:21:12.9	190.480	-0.140	-0.620	1.790
2020/01/31 23:21:13.0	190.470	-0.140	-0.600	1.810
2020/01/31 23:21:13.1	190.460	-0.140	-0.580	1.840
2020/01/31 23:21:13.2	190.450	-0.140	-0.550	1.870
2020/01/31 23:21:13.3	190.440	-0.140	-0.530	1.890
2020/01/31 23:21:13.4	190.420	-0.140	-0.510	1.910
2020/01/31 23:21:13.5	190.400	-0.140	-0.490	1.930
2020/01/31 23:21:13.6	190.380	-0.130	-0.480	1.940
2020/01/31 23:21:13.7	190.360	-0.120	-0.460	1.950
2020/01/31 23:21:13.8	190.340	-0.110	-0.440	1.960
2020/01/31 23:21:13.9	190.320	-0.100	-0.430	1.970
2020/01/31 23:21:14.0	190.300	-0.090	-0.410	1.970
2020/01/31 23:21:14.1	190.300	-0.080	-0.400	1.960
2020/01/31 23:21:14.2	190.280	-0.060	-0.390	1.950
2020/01/31 23:21:14.3	190.270	-0.040	-0.380	1.940
2020/01/31 23:21:14.4	190.260	-0.020	-0.370	1.920
2020/01/31 23:21:14.5	190.250	-0.000	-0.350	1.900
2020/01/31 23:21:14.6	190.250	0.020	-0.340	1.870
2020/01/31 23:21:14.7	190.240	0.040	-0.330	1.840
2020/01/31 23:21:14.8	190.240	0.060	-0.320	1.810
2020/01/31 23:21:14.9	190.240	0.080	-0.300	1.780
2020/01/31 23:21:15.0	190.240	0.100	-0.290	1.740
2020/01/31 23:21:15.1	190.230	0.110	-0.270	1.700
2020/01/31 23:21:15.2	190.240	0.130	-0.260	1.670
2020/01/31 23:21:15.3	190.240	0.150	-0.240	1.630
2020/01/31 23:21:15.4	190.240	0.170	-0.230	1.600
2020/01/31 23:21:15.5	190.240	0.180	-0.210	1.560
2020/01/31 23:21:15.6	190.250	0.190	-0.200	1.530
2020/01/31 23:21:15.7	190.250	0.200	-0.190	1.500
2020/01/31 23:21:15.8	190.250	0.210	-0.170	1.470
2020/01/31 23:21:15.9	190.250	0.220	-0.160	1.440
2020/01/31 23:21:16.0	190.250	0.230	-0.150	1.410
2020/01/31 23:21:16.1	190.240	0.230	-0.140	1.380
2020/01/31 23:21:16.2	190.240	0.240	-0.130	1.360
2020/01/31 23:21:16.3	190.230	0.240	-0.120	1.340
2020/01/31 23:21:16.4	190.230	0.240	-0.120	1.320
2020/01/31 23:21:16.5	190.230	0.230	-0.110	1.300
2020/01/31 23:21:16.6	190.220	0.230	-0.110	1.280
2020/01/31 23:21:16.7	190.220	0.220	-0.110	1.270
2020/01/31 23:21:16.8	190.210	0.210	-0.110	1.250
2020/01/31 23:21:16.9	190.200	0.210	-0.110	1.240
2020/01/31 23:21:17.0	190.190	0.200	-0.120	1.230
2020/01/31 23:21:17.1	190.170	0.180	-0.120	1.220
2020/01/31 23:21:17.2	190.160	0.170	-0.130	1.210
2020/01/31 23:21:17.3	190.150	0.160	-0.140	1.200
2020/01/31 23:21:17.4	190.140	0.150	-0.150	1.200
2020/01/31 23:21:17.5	190.140	0.130	-0.160	1.190
2020/01/31 23:21:17.6	190.130	0.120	-0.180	1.180
2020/01/31 23:21:17.7	190.120	0.100	-0.190	1.180
2020/01/31 23:21:17.8	190.120	0.090	-0.210	1.170
2020/01/31 23:21:17.9	190.110	0.070	-0.220	1.170
2020/01/31 23:21:18.0	190.110	0.060	-0.230	1.170
2020/01/31 23:21:18.1	190.120	0.040	-0.250	1.160
2020/01/31 23:21:18.2	190.120	0.020	-0.260	1.160
2020/01/31 23:21:18.3	190.130	0.010	-0.270	1.160
2020/01/31 23:21:18.4	190.140	-0.010	-0.280	1.160
2020/01/31 23:21:18.5	190.150	-0.020	-0.290	1.160
2020/01/31 23:21:18.6	190.170	-0.040	-0.300	1.170
2020/01/31 23:21:18.7	190.190	-0.050	-0.300	1.180
2020/01/31 23:21:18.8	190.200	-0.070	-0.310	1.190
2020/01/31 23:21:18.9	190.220	-0.080	-0.310	1.200
2020/01/31 23:21:19.0	190.250	-0.090	-0.310	1.210
2020/01/31 23:21:19.1	190.270	-0.110	-0.310	1.220
2020/01/31 23:21:19.2	190.290	-0.120	-0.310	1.240
2020/01/31 23:21:19.3	190.320	-0.130	-0.320	1.260
2020/01/31 23:21:19.4	190.340	-0.130	-0.320	1.280
2020/01/31 23:21:19.5	190.360	-0.140	-0.320	1.300
2020/01/31 23:21:19.6	190.380	-0.150	-0.320	1.320
2020/01/31 23:21:19.7	190.400	-0.150	-0.320	1.350
2020/01/31 23:21:19.8	190.420	-0.160	-0.330	1.370
2020/01/31 23:21:19.9	190.440	-0.160	-0.330	1.400
2020/01/31 23:21:20.0	190.450	-0.160	-0.340	1.430
2020/01/31 23:21:20.1	190.450	-0.150	-0.340	1.460
2020/01/31 23:21:20.2	190.460	-0.150	-0.350	1.480
2020/01/31 23:21:20.3	190.460	-0.140	-0.360	1.510
2020/01/31 23:21:20.4	190.460	-0.130	-0.370	1.540
2020/01/31 23:21:20.5	190.460	-0.120	-0.380	1.570
2020/01/31 23:21:20.6	190.460	-0.110	-0.400	1.590
2020/01/31 23:21:20.7	190.450	-0.100	-0.410	1.620
2020/01/31 23:21:20.8	190.440	-0.080	-0.420	1.640
2020/01/31 23:21:20.9	190.430	-0.060	-0.430	1.660
2020/01/31 23:21:21.0	190.420	-0.040	-0.440	1.680
2020/01/31 23:21:21.1	190.410	-0.020	-0.460	1.700
2020/01/31 23:21:21.2	190.390	-0.000	-0.460	1.710
2020/01/31 23:21:21.3	190.380	0.020	-0.470	1.730
2020/01/31 23:21:21.4	190.360	0.040	-0.470	1.740
2020/01/31 23:21:21.5	190.340	0.060	-0.470	1.740
2020/01/31 23:21:21.6	190.320	0.080	-0.470	1.750
2020/01/31 23:21:21.7	190.310	0.100	-0.460	1.750
2020/01/31 23:21:21.8	190.290	0.110	-0.450	1.750
2020/01/31 23:21:21.9	190.280	0.130	-0.430	1.740
2020/01/31 23:21:22.0	190.260	0.140	-0.410	1.730
2020/01/31 23:21:22.1	190.250	0.150	-0.390	1.720
2020/01/31 23:21:22.2	190.250	0.160	-0.360	1.710
2020/01/31 23:21:22.3	190.240	0.170	-0.330	1.690
2020/01/31 23:21:22.4	190.230	0.170	-0.300	1.680
2020/01/31 23:21:22.5	190.230	0.170	-0.260	1.660
2020/01/31 23:21:22.6	190.230	0.170	-0.220	1.630
2020/01/31 23:21:22.7	190.230	0.160	-0.180	1.610
2020/01/31 23:21:22.8	190.230	0.150	-0.130	1.590
2020/01/31 23:21:22.9	190.240	0.140	-0.090	1.560
2020/01/31 23:21:23.0	190.240	0.130	-0.040	1.540
2020/01/31 23:21:23.1	190.240	0.110	0.000	1.520
2020/01/31 23:21:23.2	190.250	0.090	0.050	1.490
2020/01/31 23:21:23.3	190.260	0.070	0.090	1.470
2020/01/31 23:21:23.4	190.280	0.050	0.130	1.450
2020/01/31 23:21:23.5	190.290	0.020	0.170	1.420
2020/01/31 23:21:23.6	190.300	-0.000	0.210	1.400
2020/01/31 23:21:23.7	190.320	-0.030	0.250	1.380
2020/01/31 23:21:23.8	190.330	-0.060	0.280	1.370
2020/01/31 23:21:23.9	190.350	-0.090	0.310	1.350
2020/01/31 23:21:24.0	190.360	-0.110	0.340	1.330
2020/01/31 23:21:24.1	190.390	-0.140	0.360	1.320
2020/01/31 23:21:24.2	190.410	-0.170	0.380	1.300
2020/01/31 23:21:24.3	190.430	-0.190	0.400	1.290
2020/01/31 23:21:24.4	190.440	-0.220	0.410	1.280
2020/01/31 23:21:24.5	190.460	-0.240	0.420	1.270
2020/01/31 23:21:24.6	190.480	-0.260	0.420	1.260
2020/01/31 23:21:24.7	190.490	-0.280	0.420	1.260
2020/01/31 23:21:24.8	190.500	-0.290	0.420	1.250
2020/01/31 23:21:24.9	190.520	-0.300	0.410	1.240
2020/01/31 23:21:25.0	190.530	-0.310	0.400	1.240
2020/01/31 23:21:25.1	190.530	-0.310	0.390	1.240
2020/01/31 23:21:25.2	190.540	-0.310	0.370	1.240
2020/01/31 23:21:25.3	190.550	-0.310	0.340	1.240
2020/01/31 23:21:25.4	190.550	-0.300	0.320	1.240
2020/01/31 23:21:25.5	190.550	-0.290	0.290	1.240
2020/01/31 23:21:25.6	190.550	-0.270	0.250	1.240
2020/01/31 23:21:25.7	190.550	-0.250	0.220	1.250
2020/01/31 23:21:25.8	190.550	-0.230	0.180	1.260
2020/01/31 23:21:25.9	190.540	-0.210	0.130	1.260
2020/01/31 23:21:26.0	190.530	-0.180	0.080	1.280
2020/01/31 23:21:26.1	190.520	-0.140	0.030	1.290
2020/01/31 23:21:26.2	190.510	-0.110	-0.020	1.300
2020/01/31 23:21:26.3	190.490	-0.070	-0.080	1.320
2020/01/31 23:21:26.4	190.470	-0.030	-0.140	1.340
2020/01/31 23:21:26.5	190.450	0.010	-0.200	1.360
2020/01/31 23:21:26.6	190.420	0.060	-0.270	1.380
2020/01/31 23:21:26.7	190.390	0.110	-0.340	1.410
2020/01/31 23:21:26.8	190.350	0.150	-0.410	1.430
2020/01/31 23:21:26.9	190.320	0.200	-0.490	1.460
2020/01/31 23:21:27.0	190.280	0.250	-0.560	1.490
2020/01/31 23:21:27.1	190.230	0.300	-0.640	1.520
2020/01/31 23:21:27.2	190.180	0.350	-0.720	1.550
2020/01/31 23:21:27.3	190.140	0.390	-0.800	1.580
2020/01/31 23:21:27.4	190.090	0.440	-0.870	1.610
2020/01/31 23:21:27.5	190.050	0.490	-0.950	1.640
2020/01/31 23:21:27.6	190.000	0.530	-1.020	1.670
2020/01/31 23:21:27.7	189.950	0.570	-1.080	1.700
2020/01/31 23:21:27.8	189.910	0.600	-1.150	1.730
2020/01/31 23:21:27.9	189.860	0.640	-1.200	1.760
2020/01/31 23:21:28.0	189.820	0.670	-1.260	1.780
2020/01/31 23:21:28.1	189.780	0.690	-1.300	1.810
2020/01/31 23:21:28.2	189.740	0.710	-1.340	1.830
2020/01/31 23:21:28.3	189.710	0.730	-1.360	1.850
2020/01/31 23:21:28.4	189.680	0.740	-1.380	1.870
2020/01/31 23:21:28.5	189.660	0.750	-1.400	1.880
2020/01/31 23:21:28.6	189.640	0.750	-1.400	1.890
2020/01/31 23:21:28.7	189.620	0.740	-1.390	1.900
2020/01/31 23:21:28.8	189.610	0.730	-1.370	1.910
2020/01/31 23:21:28.9	189.600	0.720	-1.340	1.910
2020/01/31 23:21:29.0	189.600	0.700	-1.300	1.910
2020/01/31 23:21:29.1	189.600	0.670	-1.260	1.900
2020/01/31 23:21:29.2	189.600	0.640	-1.200	1.900
2020/01/31 23:21:29.3	189.620	0.600	-1.130	1.890
2020/01/31 23:21:29.4	189.640	0.560	-1.050	1.880
2020/01/31 23:21:29.5	189.660	0.510	-0.970	1.860
2020/01/31 23:21:29.6	189.690	0.460	-0.880	1.840
2020/01/31 23:21:29.7	189.720	0.410	-0.780	1.820
2020/01/31 23:21:29.8	189.750	0.350	-0.680	1.800
2020/01/31 23:21:29.9	189.790	0.290	-0.570	1.770
2020/01/31 23:21:30.0	189.820	0.220	-0.460	1.740
2020/01/31 23:21:30.1	189.870	0.160	-0.350	1.710
2020/01/31 23:21:30.2	189.910	0.090	-0.240	1.680
2020/01/31 23:21:30.3	189.950	0.020	-0.130	1.650
2020/01/31 23:21:30.4	189.990	-0.050	-0.020	1.620
2020/01/31 23:21:30.5	190.030	-0.130	0.090	1.590
2020/01/31 23:21:30.6	190.070	-0.200	0.190	1.560
2020/01/31 23:21:30.7	190.120	-0.270	0.280	1.530
2020/01/31 23:21:30.8	190.160	-0.340	0.370	1.500
2020/01/31 23:21:30.9	190.200	-0.400	0.450	1.480
2020/01/31 23:21:31.0	190.240	-0.470	0.530	1.450
2020/01/31 23:21:31.1	190.290	-0.530	0.600	1.420
2020/01/31 23:21:31.2	190.330	-0.590	0.650	1.400
2020/01/31 23:21:31.3	190.360	-0.650	0.700	1.380
2020/01/31 23:21:31.4	190.400	-0.700	0.740	1.360
2020/01/31 23:21:31.5	190.430	-0.740	0.770	1.340
2020/01/31 23:21:31.6	190.460	-0.790	0.790	1.330
2020/01/31 23:21:31.7	190.490	-0.820	0.800	1.320
2020/01/31 23:21:31.8	190.520	-0.860	0.800	1.310
2020/01/31 23:21:31.9	190.550	-0.880	0.790	1.310
2020/01/31 23:21:32.0	190.570	-0.900	0.770	1.300
2020/01/31 23:21:32.1	190.590	-0.920	0.740	1.310
2020/01/31 23:21:32.2	190.610	-0.930	0.700	1.310
2020/01/31 23:21:32.3	190.630	-0.940	0.650	1.310
2020/01/31 23:21:32.4	190.650	-0.930	0.600	1.320
2020/01/31 23:21:32.5	190.660	-0.930	0.540	1.330
2020/01/31 23:21:32.6	190.680	-0.910	0.470	1.350
2020/01/31 23:21:32.7	190.690	-0.900	0.390	1.370
2020/01/31 23:21:32.8	190.700	-0.870	0.310	1.380
2020/01/31 23:21:32.9	190.710	-0.840	0.230	1.410
2020/01/31 23:21:33.0	190.710	-0.810	0.140	1.430
2020/01/31 23:21:33.1	190.720	-0.770	0.050	1.460
2020/01/31 23:21:33.2	190.720	-0.720	-0.040	1.480
2020/01/31 23:21:33.3	190.710	-0.670	-0.140	1.510
2020/01/31 23:21:33.4	190.710	-0.620	-0.240	1.540
2020/01/31 23:21:33.5	190.700	-0.560	-0.340	1.570
2020/01/31 23:21:33.6	190.680	-0.500	-0.430	1.610
2020/01/31 23:21:33.7	190.660	-0.430	-0.530	1.640
2020/01/31 23:21:33.8	190.640	-0.370	-0.620	1.670
2020/01/31 23:21:33.9	190.620	-0.300	-0.710	1.700
2020/01/31 23:21:34.0	190.600	-0.230	-0.800	1.720
2020/01/31 23:21:34.1	190.560	-0.150	-0.880	1.750
2020/01/31 23:21:34.2	190.530	-0.080	-0.950	1.780
2020/01/31 23:21:34.3	190.490	-0.010	-1.020	1.800
2020/01/31 23:21:34.4	190.460	0.060	-1.080	1.810
2020/01/31 23:21:34.5	190.420	0.140	-1.130	1.830
2020/01/31 23:21:34.6	190.390	0.200	-1.170	1.840
2020/01/31 23:21:34.7	190.350	0.270	-1.200	1.850
2020/01/31 23:21:34.8	190.310	0.340	-1.230	1.850
2020/01/31 23:21:34.9	190.280	0.400	-1.240	1.850
2020/01/31 23:21:35.0	190.240	0.460	-1.250	1.850
2020/01/31 23:21:35.1	190.200	0.510	-1.240	1.840
2020/01/31 23:21:35.2	190.170	0.560	-1.220	1.830
2020/01/31 23:21:35.3	190.130	0.600	-1.190	1.820
2020/01/31 23:21:35.4	190.100	0.640	-1.160	1.800
2020/01/31 23:21:35.5	190.070	0.670	-1.110	1.780
2020/01/31 23:21:35.6	190.050	0.690	-1.060	1.760
2020/01/31 23:21:35.7	190.020	0.710	-1.000	1.740
2020/01/31 23:21:35.8	190.000	0.730	-0.930	1.720
2020/01/31 23:21:35.9	189.980	0.730	-0.860	1.690
2020/01/31 23:21:36.0	189.970	0.730	-0.780	1.660
2020/01/31 23:21:36.1	189.960	0.730	-0.690	1.630
2020/01/31 23:21:36.2	189.940	0.720	-0.600	1.600
2020/01/31 23:21:36.3	189.940	0.700	-0.500	1.570
2020/01/31 23:21:36.4	189.930	0.680	-0.410	1.530
2020/01/31 23:21:36.5	189.930	0.650	-0.310	1.500
2020/01/31 23:21:36.6	189.930	0.620	-0.210	1.470
2020/01/31 23:21:36.7	189.930	0.580	-0.120	1.430
2020/01/31 23:21:36.8	189.930	0.540	-0.020	1.390
2020/01/31 23:21:36.9	189.940	0.490	0.070	1.360
2020/01/31 23:21:37.0	189.950	0.440	0.160	1.320
2020/01/31 23:21:37.1	189.960	0.390	0.240	1.280
2020/01/31 23:21:37.2	189.970	0.340	0.320	1.240
2020/01/31 23:21:37.3	189.980	0.280	0.390	1.210
2020/01/31 23:21:37.4	190.000	0.230	0.460	1.170
2020/01/31 23:21:37.5	190.010	0.170	0.520	1.130
2020/01/31 23:21:37.6	190.030	0.110	0.570	1.100
2020/01/31 23:21:37.7	190.050	0.050	0.620	1.070
2020/01/31 23:21:37.8	190.060	-0.000	0.660	1.040
2020/01/31 23:21:37.9	190.080	-0.060	0.680	1.010
2020/01/31 23:21:38.0	190.100	-0.120	0.700	0.980
2020/01/31 23:21:38.1	190.120	-0.170	0.720	0.950
2020/01/31 23:21:38.2	190.130	-0.230	0.730	0.930
2020/01/31 23:21:38.3	190.150	-0.280	0.720	0.910
2020/01/31 23:21:38.4	190.170	-0.330	0.710	0.900
2020/01/31 23:21:38.5	190.190	-0.380	0.690	0.890
2020/01/31 23:21:38.6	190.210	-0.420	0.670	0.880
2020/01/31 23:21:38.7	190.220	-0.460	0.630	0.880
2020/01/31 23:21:38.8	190.240	-0.500	0.590	0.890
2020/01/31 23:21:38.9	190.260	-0.540	0.550	0.890
2020/01/31 23:21:39.0	190.270	-0.570	0.500	0.910
2020/01/31 23:21:39.1	190.280	-0.600	0.440	0.920
2020/01/31 23:21:39.2	190.300	-0.620	0.380	0.950
2020/01/31 23:21:39.3	190.310	-0.640	0.310	0.970
2020/01/31 23:21:39.4	190.330	-0.660	0.250	1.000
2020/01/31 23:21:39.5	190.340	-0.670	0.180	1.040
2020/01/31 23:21:39.6	190.350	-0.680	0.120	1.070
2020/01/31 23:21:39.7	190.360	-0.680	0.050	1.110
2020/01/31 23:21:39.8	190.370	-0.680	-0.020	1.150
2020/01/31 23:21:39.9	190.390	-0.670	-0.090	1.190
2020/01/31 23:21:40.0	190.400	-0.670	-0.160	1.230
2020/01/31 23:21:40.1	190.420	-0.650	-0.210	1.270
2020/01/31 23:21:40.2	190.430	-0.630	-0.280	1.310
2020/01/31 23:21:40.3	190.440	-0.610	-0.340	1.340
2020/01/31 23:21:40.4	190.440	-0.580	-0.390	1.380
2020/01/31 23:21:40.5	190.450	-0.550	-0.450	1.410
2020/01/31 23:21:40.6	190.450	-0.520	-0.500	1.440
2020/01/31 23:21:40.7	190.450	-0.480	-0.540	1.470
2020/01/31 23:21:40.8	190.450	-0.440	-0.590	1.490
2020/01/31 23:21:40.9	190.450	-0.400	-0.630	1.510
2020/01/31 23:21:41.0	190.440	-0.350	-0.660	1.530
2020/01/31 23:21:41.1	190.440	-0.300	-0.700	1.560
2020/01/31 23:21:41.2	190.430	-0.250	-0.720	1.570
2020/01/31 23:21:41.3	190.420	-0.200	-0.740	1.580
2020/01/31 23:21:41.4	190.400	-0.150	-0.760	1.590
2020/01/31 23:21:41.5	190.390	-0.090	-0.770	1.590
2020/01/31 23:21:41.6	190.380	-0.040	-0.770	1.590
2020/01/31 23:21:41.7	190.360	0.010	-0.770	1.590
2020/01/31 23:21:41.8	190.350	0.070	-0.770	1.590
2020/01/31 23:21:41.9	190.330	0.120	-0.760	1.580
2020/01/31 23:21:42.0	190.320	0.170	-0.750	1.570
2020/01/31 23:21:42.1	190.320	0.220	-0.730	1.550
2020/01/31 23:21:42.2	190.310	0.260	-0.710	1.530
2020/01/31 23:21:42.3	190.300	0.310	-0.680	1.510
2020/01/31 23:21:42.4	190.290	0.350	-0.650	1.480
2020/01/31 23:21:42.5	190.290	0.380	-0.620	1.460
2020/01/31 23:21:42.6	190.290	0.410	-0.580	1.430
2020/01/31 23:21:42.7	190.290	0.440	-0.540	1.400
2020/01/31 23:21:42.8	190.300	0.460	-0.500	1.360
2020/01/31 23:21:42.9	190.310	0.480	-0.450	1.330
2020/01/31 23:21:43.0	190.320	0.490	-0.410	1.290
2020/01/31 23:21:43.1	190.330	0.500	-0.360	1.250
2020/01/31 23:21:43.2	190.340	0.500	-0.310	1.210
2020/01/31 23:21:43.3	190.370	0.500	-0.270	1.170
2020/01/31 23:21:43.4	190.390	0.500	-0.220	1.140
2020/01/31 23:21:43.5	190.410	0.490	-0.180	1.100
2020/01/31 23:21:43.6	190.430	0.480	-0.130	1.070
2020/01/31 23:21:43.7	190.460	0.470	-0.090	1.040
2020/01/31 23:21:43.8	190.480	0.450	-0.060	1.010
2020/01/31 23:21:43.9	190.500	0.430	-0.020	0.980
2020/01/31 23:21:44.0	190.530	0.410	0.000	0.960
2020/01/31 23:21:44.1	190.530	0.390	0.030	0.940
2020/01/31 23:21:44.2	190.550	0.360	0.050	0.920
2020/01/31 23:21:44.3	190.570	0.340	0.070	0.910
2020/01/31 23:21:44.4	190.580	0.310	0.080	0.900
2020/01/31 23:21:44.5	190.590	0.290	0.080	0.900
2020/01/31 23:21:44.6	190.590	0.270	0.080	0.900
2020/01/31 23:21:44.7	190.600	0.240	0.080	0.900
2020/01/31 23:21:44.8	190.590	0.220	0.070	0.910
2020/01/31 23:21:44.9	190.590	0.210	0.050	0.930
2020/01/31 23:21:45.0	190.580	0.190	0.030	0.940
2020/01/31 23:21:45.1	190.550	0.180	0.010	0.970
2020/01/31 23:21:45.2	190.530	0.170	-0.020	0.990
2020/01/31 23:21:45.3	190.510	0.170	-0.060	1.020
2020/01/31 23:21:45.4	190.480	0.160	-0.100	1.060
2020/01/31 23:21:45.5	190.450	0.160	-0.140	1.090
2020/01/31 23:21:45.6	190.420	0.170	-0.180	1.130
2020/01/31 23:21:45.7	190.380	0.170	-0.230	1.170
2020/01/31 23:21:45.8	190.340	0.180	-0.280	1.210
2020/01/31 23:21:45.9	190.300	0.190	-0.330	1.250
2020/01/31 23:21:46.0	190.260	0.200	-0.380	1.280
2020/01/31 23:21:46.1	190.220	0.210	-0.430	1.320
2020/01/31 23:21:46.2	190.170	0.230	-0.480	1.360
2020/01/31 23:21:46.3	190.130	0.240	-0.530	1.400
2020/01/31 23:21:46.4	190.090	0.250	-0.570	1.440
2020/01/31 23:21:46.5	190.050	0.270	-0.610	1.480
2020/01/31 23:21:46.6	190.010	0.280	-0.650	1.510
2020/01/31 23:21:46.7	189.970	0.290	-0.690	1.550
2020/01/31 23:21:46.8	189.930	0.300	-0.720	1.590
2020/01/31 23:21:46.9	189.890	0.300	-0.750	1.620
2020/01/31 23:21:47.0	189.860	0.300	-0.770	1.660
2020/01/31 23:21:47.1	189.810	0.300	-0.790	1.690
2020/01/31 23:21:47.2	189.780	0.300	-0.810	1.730
2020/01/31 23:21:47.3	189.750	0.300	-0.810	1.770
2020/01/31 23:21:47.4	189.720	0.290	-0.820	1.800
2020/01/31 23:21:47.5	189.700	0.270	-0.810	1.840
2020/01/31 23:21:47.6	189.670	0.250	-0.800	1.870
2020/01/31 23:21:47.7	189.650	0.230	-0.790	1.910
2020/01/31 23:21:47.8	189.640	0.210	-0.770	1.940
2020/01/31 23:21:47.9	189.620	0.180	-0.740	1.970
2020/01/31 23:21:48.0	189.620	0.150	-0.710	2.000
2020/01/31 23:21:48.1	189.620	0.110	-0.680	2.020
2020/01/31 23:21:48.2	189.620	0.070	-0.640	2.050
2020/01/31 23:21:48.3	189.620	0.030	-0.600	2.070
2020/01/31 23:21:48.4	189.630	-0.020	-0.550	2.090
2020/01/31 23:21:48.5	189.630	-0.060	-0.500	2.100
2020/01/31 23:21:48.6	189.650	-0.110	-0.450	2.110
2020/01/31 23:21:48.7	189.660	-0.160	-0.400	2.120
2020/01/31 23:21:48.8	189.680	-0.220	-0.340	2.130
2020/01/31 23:21:48.9	189.700	-0.270	-0.290	2.130
2020/01/31 23:21:49.0	189.720	-0.320	-0.230	2.130
2020/01/31 23:21:49.1	189.750	-0.370	-0.180	2.120
2020/01/31 23:21:49.2	189.780	-0.430	-0.120	2.120
2020/01/31 23:21:49.3	189.810	-0.480	-0.070	2.100
2020/01/31 23:21:49.4	189.840	-0.530	-0.010	2.090
2020/01/31 23:21:49.5	189.870	-0.570	0.040	2.070
2020/01/31 23:21:49.6	189.910	-0.620	0.080	2.050
2020/01/31 23:21:49.7	189.940	-0.660	0.130	2.030
2020/01/31 23:21:49.8	189.980	-0.690	0.170	2.000
2020/01/31 23:21:49.9	190.010	-0.730	0.210	1.980
2020/01/31 23:21:50.0	190.050	-0.760	0.240	1.950
2020/01/31 23:21:50.1	190.090	-0.780	0.270	1.910
2020/01/31 23:21:50.2	190.120	-0.800	0.290	1.880
2020/01/31 23:21:50.3	190.160	-0.810	0.310	1.850
2020/01/31 23:21:50.4	190.190	-0.820	0.330	1.810
2020/01/31 23:21:50.5	190.230	-0.830	0.340	1.770
2020/01/31 23:21:50.6	190.260	-0.820	0.350	1.740
2020/01/31 23:21:50.7	190.290	-0.810	0.350	1.700
2020/01/31 23:21:50.8	190.320	-0.800	0.350	1.660
2020/01/31 23:21:50.9	190.350	-0.780	0.340	1.610
2020/01/31 23:21:51.0	190.380	-0.750	0.330	1.570
2020/01/31 23:21:51.1	190.410	-0.720	0.320	1.530
2020/01/31 23:21:51.2	190.440	-0.680	0.300	1.480
2020/01/31 23:21:51.3	190.470	-0.640	0.270	1.440
2020/01/31 23:21:51.4	190.490	-0.590	0.240	1.390
2020/01/31 23:21:51.5	190.510	-0.530	0.210	1.340
2020/01/31 23:21:51.6	190.530	-0.480	0.170	1.300
2020/01/31 23:21:51.7	190.550	-0.410	0.130	1.250
2020/01/31 23:21:51.8	190.570	-0.350	0.090	1.200
2020/01/31 23:21:51.9	190.580	-0.270	0.040	1.160
2020/01/31 23:21:52.0	190.600	-0.200	-0.010	1.110
2020/01/31 23:21:52.1	190.610	-0.130	-0.060	1.070
2020/01/31 23:21:52.2	190.610	-0.050	-0.120	1.020
2020/01/31 23:21:52.3	190.620	0.030	-0.170	0.980
2020/01/31 23:21:52.4	190.620	0.110	-0.230	0.940
2020/01/31 23:21:52.5	190.620	0.190	-0.290	0.900
2020/01/31 23:21:52.6	190.620	0.270	-0.350	0.860
2020/01/31 23:21:52.7	190.610	0.350	-0.400	0.820
2020/01/31 23:21:52.8	190.600	0.430	-0.460	0.790
2020/01/31 23:21:52.9	190.590	0.510	-0.520	0.760
2020/01/31 23:21:53.0	190.580	0.580	-0.570	0.730
2020/01/31 23:21:53.1	190.570	0.650	-0.630	0.700
2020/01/31 23:21:53.2	190.550	0.710	-0.670	0.670
2020/01/31 23:21:53.3	190.540	0.770	-0.720	0.650
2020/01/31 23:21:53.4	190.520	0.830	-0.760	0.630
2020/01/31 23:21:53.5	190.500	0.870	-0.790	0.610
2020/01/31 23:21:53.6	190.480	0.920	-0.820	0.600
2020/01/31 23:21:53.7	190.460	0.950	-0.850	0.590
2020/01/31 23:21:53.8	190.440	0.980	-0.870	0.590
2020/01/31 23:21:53.9	190.420	1.000	-0.890	0.590
2020/01/31 23:21:54.0	190.400	1.020	-0.900	0.590
2020/01/31 23:21:54.1	190.380	1.020	-0.890	0.590
2020/01/31 23:21:54.2	190.360	1.020	-0.890	0.600
2020/01/31 23:21:54.3	190.340	1.010	-0.880	0.610
2020/01/31 23:21:54.4	190.320	0.990	-0.870	0.630
2020/01/31 23:21:54.5	190.310	0.970	-0.850	0.650
2020/01/31 23:21:54.6	190.290	0.930	-0.820	0.670
2020/01/31 23:21:54.7	190.280	0.890	-0.790	0.700
2020/01/31 23:21:54.8	190.270	0.840	-0.750	0.720
2020/01/31 23:21:54.9	190.260	0.790	-0.710	0.760
2020/01/31 23:21:55.0	190.250	0.720	-0.660	0.790
2020/01/31 23:21:55.1	190.240	0.650	-0.610	0.830
2020/01/31 23:21:55.2	190.240	0.580	-0.550	0.870
2020/01/31 23:21:55.3	190.240	0.490	-0.480	0.910
2020/01/31 23:21:55.4	190.240	0.410	-0.420	0.960
2020/01/31 23:21:55.5	190.250	0.310	-0.350	1.010
2020/01/31 23:21:55.6	190.260	0.220	-0.280	1.060
2020/01/31 23:21:55.7	190.280	0.120	-0.200	1.110
2020/01/31 23:21:55.8	190.290	0.010	-0.120	1.170
2020/01/31 23:21:55.9	190.310	-0.090	-0.050	1.230
2020/01/31 23:21:56.0	190.340	-0.200	0.030	1.290
2020/01/31 23:21:56.1	190.340	-0.300	0.110	1.350
2020/01/31 23:21:56.2	190.370	-0.410	0.180	1.410
2020/01/31 23:21:56.3	190.400	-0.510	0.260	1.470
2020/01/31 23:21:56.4	190.430	-0.610	0.330	1.540
2020/01/31 23:21:56.5	190.460	-0.710	0.400	1.600
2020/01/31 23:21:56.6	190.490	-0.810	0.460	1.670
2020/01/31 23:21:56.7	190.520	-0.900	0.520	1.740
2020/01/31 23:21:56.8	190.550	-0.980	0.570	1.800
2020/01/31 23:21:56.9	190.590	-1.060	0.620	1.870
2020/01/31 23:21:57.0	190.620	-1.140	0.660	1.930
2020/01/31 23:21:57.1	190.650	-1.200	0.690	2.010
2020/01/31 23:21:57.2	190.680	-1.260	0.710	2.070
2020/01/31 23:21:57.3	190.710	-1.310	0.730	2.130
2020/01/31 23:21:57.4	190.730	-1.340	0.730	2.190
2020/01/31 23:21:57.5	190.750	-1.370	0.730	2.250
2020/01/31 23:21:57.6	190.770	-1.390	0.710	2.300
2020/01/31 23:21:57.7	190.790	-1.400	0.690	2.350
2020/01/31 23:21:57.8	190.800	-1.400	0.660	2.390
2020/01/31 23:21:57.9	190.810	-1.380	0.610	2.430
2020/01/31 23:21:58.0	190.820	-1.360	0.560	2.460
2020/01/31 23:21:58.1	190.840	-1.320	0.500	2.490
2020/01/31 23:21:58.2	190.840	-1.270	0.430	2.510
2020/01/31 23:21:58.3	190.840	-1.220	0.350	2.520
2020/01/31 23:21:58.4	190.840	-1.150	0.270	2.530
2020/01/31 23:21:58.5	190.830	-1.070	0.180	2.530
2020/01/31 23:21:58.6	190.820	-0.990	0.080	2.530
2020/01/31 23:21:58.7	190.810	-0.890	-0.020	2.510
2020/01/31 23:21:58.8	190.800	-0.790	-0.130	2.500
2020/01/31 23:21:58.9	190.780	-0.690	-0.230	2.470
2020/01/31 23:21:59.0	190.760	-0.570	-0.340	2.450
2020/01/31 23:21:59.1	190.740	-0.460	-0.450	2.410
2020/01/31 23:21:59.2	190.710	-0.330	-0.560	2.380
2020/01/31 23:21:59.3	190.690	-0.210	-0.660	2.340
2020/01/31 23:21:59.4	190.660	-0.080	-0.770	2.300
2020/01/31 23:21:59.5	190.630	0.040	-0.870	2.260
2020/01/31 23:21:59.6	190.600	0.170	-0.960	2.210
2020/01/31 23:21:59.7	190.570	0.300	-1.050	2.170
2020/01/31 23:21:59.8	190.540	0.420	-1.130	2.120
2020/01/31 23:21:59.9	190.510	0.540	-1.210	2.070
2020/01/31 23:22:00.0	190.480	0.650	-1.270	2.020
2020/01/31 23:22:00.1	190.470	0.760	-1.330	1.970
2020/01/31 23:22:00.2	190.440	0.860	-1.370	1.910
2020/01/31 23:22:00.3	190.410	0.960	-1.400	1.850
2020/01/31 23:22:00.4	190.390	1.050	-1.430	1.790
2020/01/31 23:22:00.5	190.370	1.120	-1.440	1.730
2020/01/31 23:22:00.6	190.340	1.190	-1.440	1.660
2020/01/31 23:22:00.7	190.330	1.250	-1.430	1.590
2020/01/31 23:22:00.8	190.310	1.300	-1.400	1.520
2020/01/31 23:22:00.9	190.300	1.340	-1.370	1.450
2020/01/31 23:22:01.0	190.290	1.360	-1.320	1.380
2020/01/31 23:22:01.1	190.290	1.380	-1.260	1.290
2020/01/31 23:22:01.2	190.290	1.380	-1.190	1.210
2020/01/31 23:22:01.3	190.290	1.370	-1.110	1.140
2020/01/31 23:22:01.4	190.300	1.350	-1.030	1.060
2020/01/31 23:22:01.5	190.310	1.320	-0.930	0.980
2020/01/31 23:22:01.6	190.320	1.280	-0.830	0.900
2020/01/31 23:22:01.7	190.340	1.230	-0.720	0.830
2020/01/31 23:22:01.8	190.360	1.170	-0.610	0.760
2020/01/31 23:22:01.9	190.380	1.100	-0.490	0.690
2020/01/31 23:22:02.0	190.410	1.030	-0.370	0.620
2020/01/31 23:22:02.1	190.420	0.940	-0.250	0.560
2020/01/31 23:22:02.2	190.450	0.850	-0.130	0.500
2020/01/31 23:22:02.3	190.490	0.760	-0.000	0.450
2020/01/31 23:22:02.4	190.520	0.660	0.120	0.410
2020/01/31 23:22:02.5	190.560	0.550	0.240	0.370
2020/01/31 23:22:02.6	190.590	0.450	0.360	0.340
2020/01/31 23:22:02.7	190.630	0.340	0.470	0.310
2020/01/31 23:22:02.8	190.670	0.230	0.580	0.300
2020/01/31 23:22:02.9	190.700	0.120	0.680	0.290
2020/01/31 23:22:03.0	190.740	0.020	0.770	0.280
2020/01/31 23:22:03.1	190.780	-0.090	0.860	0.280
2020/01/31 23:22:03.2	190.820	-0.190	0.940	0.290
2020/01/31 23:22:03.3	190.860	-0.290	1.000	0.300
2020/01/31 23:22:03.4	190.890	-0.380	1.060	0.320
2020/01/31 23:22:03.5	190.920	-0.460	1.100	0.350
2020/01/31 23:22:03.6	190.950	-0.550	1.140	0.370
2020/01/31 23:22:03.7	190.980	-0.620	1.160	0.400
2020/01/31 23:22:03.8	191.010	-0.680	1.170	0.440
2020/01/31 23:22:03.9	191.030	-0.740	1.160	0.480
2020/01/31 23:22:04.0	191.050	-0.790	1.140	0.520
2020/01/31 23:22:04.1	191.050	-0.830	1.110	0.570
2020/01/31 23:22:04.2	191.070	-0.860	1.070	0.620
2020/01/31 23:22:04.3	191.070	-0.880	1.010	0.670
2020/01/31 23:22:04.4	191.080	-0.890	0.940	0.730
2020/01/31 23:22:04.5	191.080	-0.890	0.860	0.790
2020/01/31 23:22:04.6	191.070	-0.880	0.770	0.850
2020/01/31 23:22:04.7	191.060	-0.870	0.670	0.910
2020/01/31 23:22:04.8	191.050	-0.840	0.560	0.970
2020/01/31 23:22:04.9	191.040	-0.810	0.440	1.040
2020/01/31 23:22:05.0	191.020	-0.770	0.320	1.100
2020/01/31 23:22:05.1	190.990	-0.720	0.190	1.170
2020/01/31 23:22:05.2	190.970	-0.660	0.060	1.240
2020/01/31 23:22:05.3	190.940	-0.610	-0.070	1.300
2020/01/31 23:22:05.4	190.910	-0.540	-0.200	1.360
2020/01/31 23:22:05.5	190.890	-0.480	-0.340	1.430
2020/01/31 23:22:05.6	190.860	-0.410	-0.470	1.490
2020/01/31 23:22:05.7	190.820	-0.340	-0.590	1.550
2020/01/31 23:22:05.8	190.790	-0.260	-0.720	1.620
2020/01/31 23:22:05.9	190.760	-0.190	-0.830	1.680
2020/01/31 23:22:06.0	190.730	-0.120	-0.940	1.740
2020/01/31 23:22:06.1	190.690	-0.050	-1.040	1.800
2020/01/31 23:22:06.2	190.660	0.020	-1.120	1.860
2020/01/31 23:22:06.3	190.630	0.080	-1.200	1.920
2020/01/31 23:22:06.4	190.600	0.140	-1.270	1.970
2020/01/31 23:22:06.5	190.570	0.200	-1.330	2.020
2020/01/31 23:22:06.6	190.540	0.250	-1.370	2.070
2020/01/31 23:22:06.7	190.510	0.300	-1.400	2.110
2020/01/31 23:22:06.8	190.480	0.340	-1.420	2.150
2020/01/31 23:22:06.9	190.460	0.380	-1.420	2.180
2020/01/31 23:22:07.0	190.430	0.410	-1.420	2.210
2020/01/31 23:22:07.1	190.420	0.440	-1.400	2.240
2020/01/31 23:22:07.2	190.400	0.460	-1.370	2.250
2020/01/31 23:22:07.3	190.380	0.470	-1.330	2.260
2020/01/31 23:22:07.4	190.360	0.480	-1.280	2.270
2020/01/31 23:22:07.5	190.350	0.480	-1.210	2.260
2020/01/31 23:22:07.6	190.330	0.480	-1.140	2.250
2020/01/31 23:22:07.7	190.320	0.480	-1.070	2.230
2020/01/31 23:22:07.8	190.310	0.470	-0.980	2.210
2020/01/31 23:22:07.9	190.300	0.450	-0.890	2.180
2020/01/31 23:22:08.0	190.290	0.430	-0.790	2.150
2020/01/31 23:22:08.1	190.280	0.410	-0.690	2.110
2020/01/31 23:22:08.2	190.270	0.390	-0.590	2.060
2020/01/31 23:22:08.3	190.270	0.370	-0.490	2.010
2020/01/31 23:22:08.4	190.270	0.340	-0.390	1.960
2020/01/31 23:22:08.5	190.270	0.310	-0.280	1.900
2020/01/31 23:22:08.6	190.270	0.290	-0.190	1.840
2020/01/31 23:22:08.7	190.270	0.260	-0.090	1.770
2020/01/31 23:22:08.8	190.280	0.230	-0.000	1.700
2020/01/31 23:22:08.9	190.290	0.210	0.080	1.630
2020/01/31 23:22:09.0	190.290	0.180	0.160	1.560
2020/01/31 23:22:09.1	190.300	0.160	0.220	1.480
2020/01/31 23:22:09.2	190.310	0.140	0.280	1.400
2020/01/31 23:22:09.3	190.320	0.120	0.330	1.320
2020/01/31 23:22:09.4	190.330	0.110	0.370	1.240
2020/01/31 23:22:09.5	190.340	0.090	0.410	1.160
2020/01/31 23:22:09.6	190.350	0.080	0.430	1.070
2020/01/31 23:22:09.7	190.370	0.080	0.440	0.990
2020/01/31 23:22:09.8	190.380	0.070	0.440	0.910
2020/01/31 23:22:09.9	190.400	0.070	0.430	0.830
2020/01/31 23:22:10.0	190.410	0.070	0.410	0.750
2020/01/31 23:22:10.1	190.420	0.070	0.390	0.670
2020/01/31 23:22:10.2	190.430	0.070	0.350	0.590
2020/01/31 23:22:10.3	190.450	0.080	0.310	0.520
2020/01/31 23:22:10.4	190.460	0.090	0.250	0.460
2020/01/31 23:22:10.5	190.480	0.090	0.200	0.400
2020/01/31 23:22:10.6	190.490	0.100	0.130	0.350
2020/01/31 23:22:10.7	190.500	0.110	0.070	0.300
2020/01/31 23:22:10.8	190.510	0.120	-0.000	0.260
2020/01/31 23:22:10.9	190.520	0.130	-0.080	0.230
2020/01/31 23:22:11.0	190.530	0.130	-0.150	0.200
2020/01/31 23:22:11.1	190.540	0.140	-0.230	0.180
2020/01/31 23:22:11.2	190.540	0.140	-0.310	0.170
2020/01/31 23:22:11.3	190.550	0.140	-0.390	0.170
2020/01/31 23:22:11.4	190.550	0.140	-0.460	0.170
2020/01/31 23:22:11.5	190.550	0.140	-0.540	0.180
2020/01/31 23:22:11.6	190.550	0.140	-0.610	0.190
2020/01/31 23:22:11.7	190.550	0.130	-0.680	0.210
2020/01/31 23:22:11.8	190.540	0.120	-0.740	0.230
2020/01/31 23:22:11.9	190.530	0.100	-0.800	0.260
2020/01/31 23:22:12.0	190.520	0.090	-0.850	0.290
2020/01/31 23:22:12.1	190.500	0.070	-0.890	0.330
2020/01/31 23:22:12.2	190.490	0.050	-0.930	0.370
2020/01/31 23:22:12.3	190.480	0.020	-0.970	0.410
2020/01/31 23:22:12.4	190.460	-0.010	-0.990	0.450
2020/01/31 23:22:12.5	190.450	-0.040	-1.010	0.500
2020/01/31 23:22:12.6	190.430	-0.070	-1.020	0.540
2020/01/31 23:22:12.7	190.410	-0.100	-1.030	0.590
2020/01/31 23:22:12.8	190.390	-0.140	-1.030	0.640
2020/01/31 23:22:12.9	190.380	-0.180	-1.010	0.690
2020/01/31 23:22:13.0	190.360	-0.220	-1.000	0.740
2020/01/31 23:22:13.1	190.330	-0.260	-0.980	0.800
2020/01/31 23:22:13.2	190.320	-0.300	-0.950	0.850
2020/01/31 23:22:13.3	190.300	-0.340	-0.910	0.900
2020/01/31 23:22:13.4	190.290	-0.380	-0.870	0.960
2020/01/31 23:22:13.5	190.270	-0.420	-0.820	1.010
2020/01/31 23:22:13.6	190.260	-0.460	-0.760	1.070
2020/01/31 23:22:13.7	190.240	-0.500	-0.700	1.120
2020/01/31 23:22:13.8	190.230	-0.540	-0.640	1.180
2020/01/31 23:22:13.9	190.210	-0.570	-0.580	1.230
2020/01/31 23:22:14.0	190.200	-0.600	-0.510	1.280
2020/01/31 23:22:14.1	190.190	-0.630	-0.440	1.340
2020/01/31 23:22:14.2	190.180	-0.650	-0.370	1.390
2020/01/31 23:22:14.3	190.160	-0.680	-0.300	1.440
2020/01/31 23:22:14.4	190.140	-0.690	-0.230	1.490
2020/01/31 23:22:14.5	190.120	-0.710	-0.170	1.530
2020/01/31 23:22:14.6	190.100	-0.710	-0.110	1.580
2020/01/31 23:22:14.7	190.080	-0.720	-0.050	1.620
2020/01/31 23:22:14.8	190.060	-0.720	0.010	1.660
2020/01/31 23:22:14.9	190.030	-0.710	0.060	1.700
2020/01/31 23:22:15.0	190.000	-0.700	0.110	1.730
2020/01/31 23:22:15.1	189.960	-0.680	0.150	1.770
2020/01/31 23:22:15.2	189.930	-0.650	0.180	1.800
2020/01/31 23:22:15.3	189.890	-0.620	0.210	1.820
2020/01/31 23:22:15.4	189.850	-0.590	0.230	1.850
2020/01/31 23:22:15.5	189.810	-0.550	0.250	1.870
2020/01/31 23:22:15.6	189.770	-0.510	0.260	1.880
2020/01/31 23:22:15.7	189.730	-0.460	0.270	1.890
2020/01/31 23:22:15.8	189.690	-0.410	0.270	1.900
2020/01/31 23:22:15.9	189.640	-0.360	0.270	1.900
2020/01/31 23:22:16.0	189.600	-0.310	0.260	1.900
2020/01/31 23:22:16.1	189.570	-0.250	0.260	1.900
2020/01/31 23:22:16.2	189.530	-0.190	0.250	1.890
2020/01/31 23:22:16.3	189.490	-0.140	0.230	1.870
2020/01/31 23:22:16.4	189.450	-0.080	0.220	1.860
2020/01/31 23:22:16.5	189.400	-0.020	0.200	1.840
2020/01/31 23:22:16.6	189.360	0.040	0.180	1.820
2020/01/31 23:22:16.7	189.320	0.090	0.160	1.800
2020/01/31 23:22:16.8	189.280	0.140	0.140	1.780
2020/01/31 23:22:16.9	189.250	0.190	0.130	1.750
2020/01/31 23:22:17.0	189.210	0.240	0.110	1.730
2020/01/31 23:22:17.1	189.170	0.290	0.090	1.710
2020/01/31 23:22:17.2	189.130	0.330	0.070	1.690
2020/01/31 23:22:17.3	189.100	0.370	0.060	1.660
2020/01/31 23:22:17.4	189.060	0.400	0.050	1.640
2020/01/31 23:22:17.5	189.020	0.430	0.030	1.620
2020/01/31 23:22:17.6	188.980	0.460	0.030	1.600
2020/01/31 23:22:17.7	188.950	0.480	0.020	1.580
2020/01/31 23:22:17.8	188.910	0.500	0.010	1.560
2020/01/31 23:22:17.9	188.870	0.510	0.010	1.550
2020/01/31 23:22:18.0	188.830	0.520	0.010	1.530
2020/01/31 23:22:18.1	188.790	0.520	0.010	1.510
2020/01/31 23:22:18.2	188.750	0.520	0.020	1.500
2020/01/31 23:22:18.3	188.710	0.520	0.020	1.490
2020/01/31 23:22:18.4	188.670	0.510	0.030	1.480
2020/01/31 23:22:18.5	188.630	0.500	0.040	1.460
2020/01/31 23:22:18.6	188.590	0.480	0.050	1.450
2020/01/31 23:22:18.7	188.550	0.460	0.060	1.440
2020/01/31 23:22:18.8	188.510	0.440	0.080	1.430
2020/01/31 23:22:18.9	188.470	0.420	0.090	1.420
2020/01/31 23:22:19.0	188.430	0.390	0.110	1.410
2020/01/31 23:22:19.1	188.380	0.370	0.120	1.390
2020/01/31 23:22:19.2	188.350	0.340	0.140	1.380
2020/01/31 23:22:19.3	188.310	0.310	0.160	1.370
2020/01/31 23:22:19.4	188.280	0.280	0.170	1.360
2020/01/31 23:22:19.5	188.240	0.240	0.190	1.350
2020/01/31 23:22:19.6	188.200	0.210	0.200	1.340
2020/01/31 23:22:19.7	188.170	0.180	0.220	1.330
2020/01/31 23:22:19.8	188.140	0.150	0.230	1.320
2020/01/31 23:22:19.9	188.110	0.120	0.240	1.320
2020/01/31 23:22:20.0	188.070	0.090	0.250	1.320
2020/01/31 23:22:20.1	188.040	0.070	0.260	1.320
2020/01/31 23:22:20.2	188.010	0.040	0.260	1.320
2020/01/31 23:22:20.3	187.980	0.020	0.260	1.320
2020/01/31 23:22:20.4	187.950	-0.000	0.260	1.320
2020/01/31 23:22:20.5	187.920	-0.020	0.250	1.330
2020/01/31 23:22:20.6	187.890	-0.030	0.240	1.340
2020/01/31 23:22:20.7	187.860	-0.040	0.230	1.350
2020/01/31 23:22:20.8	187.840	-0.050	0.210	1.360
2020/01/31 23:22:20.9	187.810	-0.060	0.190	1.370
2020/01/31 23:22:21.0	187.780	-0.060	0.160	1.390
2020/01/31 23:22:21.1	187.740	-0.050	0.130	1.400
2020/01/31 23:22:21.2	187.710	-0.040	0.090	1.410
2020/01/31 23:22:21.3	187.680	-0.030	0.050	1.420
2020/01/31 23:22:21.4	187.660	-0.020	0.010	1.430
2020/01/31 23:22:21.5	187.630	0.000	-0.040	1.440
2020/01/31 23:22:21.6	187.600	0.020	-0.090	1.450
2020/01/31 23:22:21.7	187.580	0.050	-0.140	1.450
2020/01/31 23:22:21.8	187.550	0.080	-0.200	1.460
2020/01/31 23:22:21.9	187.520	0.110	-0.250	1.460
2020/01/31 23:22:22.0	187.500	0.140	-0.310	1.460
2020/01/31 23:22:22.1	187.450	0.170	-0.370	1.450
2020/01/31 23:22:22.2	187.420	0.210	-0.430	1.440
2020/01/31 23:22:22.3	187.400	0.240	-0.500	1.440
2020/01/31 23:22:22.4	187.370	0.280	-0.560	1.430
2020/01/31 23:22:22.5	187.350	0.320	-0.630	1.420
2020/01/31 23:22:22.6	187.320	0.360	-0.690	1.410
2020/01/31 23:22:22.7	187.300	0.390	-0.760	1.400
2020/01/31 23:22:22.8	187.270	0.430	-0.820	1.390
2020/01/31 23:22:22.9	187.240	0.470	-0.880	1.380
2020/01/31 23:22:23.0	187.220	0.500	-0.940	1.380
2020/01/31 23:22:23.1	187.200	0.530	-1.000	1.370
2020/01/31 23:22:23.2	187.170	0.560	-1.050	1.370
2020/01/31 23:22:23.3	187.140	0.590	-1.100	1.370
2020/01/31 23:22:23.4	187.110	0.610	-1.150	1.370
2020/01/31 23:22:23.5	187.090	0.630	-1.200	1.370
2020/01/31 23:22:23.6	187.060	0.650	-1.240	1.380
2020/01/31 23:22:23.7	187.030	0.660	-1.270	1.390
2020/01/31 23:22:23.8	187.000	0.670	-1.300	1.400
2020/01/31 23:22:23.9	186.970	0.680	-1.320	1.410
2020/01/31 23:22:24.0	186.950	0.680	-1.340	1.430
2020/01/31 23:22:24.1	186.910	0.670	-1.350	1.450
2020/01/31 23:22:24.2	186.880	0.670	-1.360	1.470
2020/01/31 23:22:24.3	186.860	0.650	-1.360	1.490
2020/01/31 23:22:24.4	186.830	0.640	-1.350	1.510
2020/01/31 23:22:24.5	186.810	0.620	-1.340	1.530
2020/01/31 23:22:24.6	186.790	0.590	-1.320	1.550
2020/01/31 23:22:24.7	186.760	0.560	-1.290	1.580
2020/01/31 23:22:24.8	186.740	0.530	-1.260	1.600
2020/01/31 23:22:24.9	186.720	0.490	-1.220	1.630
2020/01/31 23:22:25.0	186.700	0.450	-1.180	1.650
2020/01/31 23:22:25.1	186.670	0.400	-1.130	1.670
2020/01/31 23:22:25.2	186.660	0.350	-1.070	1.700
2020/01/31 23:22:25.3	186.640	0.300	-1.010	1.720
2020/01/31 23:22:25.4	186.620	0.250	-0.940	1.740
2020/01/31 23:22:25.5	186.610	0.190	-0.870	1.760
2020/01/31 23:22:25.6	186.590	0.130	-0.790	1.780
2020/01/31 23:22:25.7	186.580	0.070	-0.710	1.800
2020/01/31 23:22:25.8	186.560	0.010	-0.620	1.820
2020/01/31 23:22:25.9	186.550	-0.060	-0.540	1.840
2020/01/31 23:22:26.0	186.530	-0.120	-0.450	1.860
2020/01/31 23:22:26.1	186.530	-0.180	-0.360	1.890
2020/01/31 23:22:26.2	186.510	-0.250	-0.280	1.910
2020/01/31 23:22:26.3	186.500	-0.310	-0.190	1.930
2020/01/31 23:22:26.4	186.480	-0.370	-0.110	1.950
2020/01/31 23:22:26.5	186.470	-0.430	-0.030	1.970
2020/01/31 23:22:26.6	186.450	-0.480	0.050	1.990
2020/01/31 23:22:26.7	186.430	-0.530	0.120	2.010
2020/01/31 23:22:26.8	186.410	-0.580	0.190	2.030
2020/01/31 23:22:26.9	186.390	-0.630	0.250	2.060
2020/01/31 23:22:27.0	186.360	-0.670	0.310	2.080
2020/01/31 23:22:27.1	186.350	-0.700	0.360	2.100
2020/01/31 23:22:27.2	186.320	-0.730	0.400	2.120
2020/01/31 23:22:27.3	186.290	-0.760	0.440	2.140
2020/01/31 23:22:27.4	186.260	-0.780	0.460	2.160
2020/01/31 23:22:27.5	186.230	-0.790	0.480	2.180
2020/01/31 23:22:27.6	186.190	-0.800	0.490	2.200
2020/01/31 23:22:27.7	186.150	-0.800	0.490	2.210
2020/01/31 23:22:27.8	186.110	-0.790	0.490	2.230
2020/01/31 23:22:27.9	186.070	-0.780	0.470	2.240
2020/01/31 23:22:28.0	186.030	-0.760	0.450	2.250
2020/01/31 23:22:28.1	185.990	-0.740	0.430	2.260
2020/01/31 23:22:28.2	185.940	-0.710	0.390	2.270
2020/01/31 23:22:28.3	185.890	-0.670	0.360	2.280
2020/01/31 23:22:28.4	185.840	-0.630	0.310	2.280
2020/01/31 23:22:28.5	185.790	-0.590	0.260	2.280
2020/01/31 23:22:28.6	185.740	-0.540	0.210	2.280
2020/01/31 23:22:28.7	185.680	-0.480	0.160	2.280
2020/01/31 23:22:28.8	185.630	-0.430	0.100	2.280
2020/01/31 23:22:28.9	185.570	-0.370	0.040	2.280
2020/01/31 23:22:29.0	185.520	-0.310	-0.020	2.270
2020/01/31 23:22:29.1	185.470	-0.250	-0.080	2.270
2020/01/31 23:22:29.2	185.420	-0.190	-0.130	2.260
2020/01/31 23:22:29.3	185.360	-0.120	-0.190	2.250
2020/01/31 23:22:29.4	185.310	-0.060	-0.250	2.240
2020/01/31 23:22:29.5	185.250	-0.000	-0.300	2.220
2020/01/31 23:22:29.6	185.200	0.060	-0.350	2.210
2020/01/31 23:22:29.7	185.140	0.110	-0.390	2.190
2020/01/31 23:22:29.8	185.090	0.170	-0.430	2.180
2020/01/31 23:22:29.9	185.030	0.210	-0.470	2.160
2020/01/31 23:22:30.0	184.980	0.260	-0.500	2.140
2020/01/31 23:22:30.1	184.950	0.300	-0.530	2.120
2020/01/31 23:22:30.2	184.900	0.330	-0.550	2.110
2020/01/31 23:22:30.3	184.850	0.360	-0.560	2.090
2020/01/31 23:22:30.4	184.800	0.380	-0.570	2.070
2020/01/31 23:22:30.5	184.760	0.400	-0.570	2.060
2020/01/31 23:22:30.6	184.710	0.410	-0.570	2.050
2020/01/31 23:22:30.7	184.670	0.420	-0.570	2.040
2020/01/31 23:22:30.8	184.630	0.420	-0.550	2.030
2020/01/31 23:22:30.9	184.590	0.410	-0.540	2.020
2020/01/31 23:22:31.0	184.560	0.400	-0.520	2.020
2020/01/31 23:22:31.1	184.540	0.380	-0.490	2.020
2020/01/31 23:22:31.2	184.500	0.360	-0.450	2.020
2020/01/31 23:22:31.3	184.470	0.330	-0.420	2.020
2020/01/31 23:22:31.4	184.440	0.290	-0.380	2.030
2020/01/31 23:22:31.5	184.410	0.250	-0.340	2.040
2020/01/31 23:22:31.6	184.380	0.210	-0.290	2.050
2020/01/31 23:22:31.7	184.360	0.160	-0.250	2.070
2020/01/31 23:22:31.8	184.330	0.120	-0.200	2.080
2020/01/31 23:22:31.9	184.310	0.060	-0.140	2.100
2020/01/31 23:22:32.0	184.290	0.010	-0.090	2.120
2020/01/31 23:22:32.1	184.280	-0.040	-0.040	2.140
2020/01/31 23:22:32.2	184.250	-0.100	0.010	2.150
2020/01/31 23:22:32.3	184.240	-0.160	0.060	2.170
2020/01/31 23:22:32.4	184.220	-0.210	0.110	2.190
2020/01/31 23:22:32.5	184.200	-0.260	0.160	2.210
2020/01/31 23:22:32.6	184.180	-0.320	0.210	2.230
2020/01/31 23:22:32.7	184.170	-0.360	0.260	2.240
2020/01/31 23:22:32.8	184.150	-0.410	0.300	2.260
2020/01/31 23:22:32.9	184.140	-0.450	0.340	2.270
2020/01/31 23:22:33.0	184.120	-0.490	0.380	2.280
2020/01/31 23:22:33.1	184.130	-0.530	0.410	2.290
2020/01/31 23:22:33.2	184.120	-0.560	0.440	2.290
2020/01/31 23:22:33.3	184.110	-0.580	0.460	2.300
2020/01/31 23:22:33.4	184.100	-0.600	0.480	2.290
2020/01/31 23:22:33.5	184.100	-0.620	0.500	2.290
2020/01/31 23:22:33.6	184.090	-0.620	0.510	2.280
2020/01/31 23:22:33.7	184.080	-0.630	0.520	2.270
2020/01/31 23:22:33.8	184.080	-0.620	0.520	2.260
2020/01/31 23:22:33.9	184.080	-0.610	0.520	2.240
2020/01/31 23:22:34.0	184.070	-0.600	0.510	2.220
2020/01/31 23:22:34.1	184.080	-0.570	0.490	2.200
2020/01/31 23:22:34.2	184.080	-0.550	0.470	2.170
2020/01/31 23:22:34.3	184.070	-0.510	0.450	2.140
2020/01/31 23:22:34.4	184.070	-0.470	0.420	2.110
2020/01/31 23:22:34.5	184.070	-0.430	0.380	2.080
2020/01/31 23:22:34.6	184.060	-0.370	0.340	2.040
2020/01/31 23:22:34.7	184.060	-0.320	0.300	2.000
2020/01/31 23:22:34.8	184.050	-0.260	0.250	1.960
2020/01/31 23:22:34.9	184.050	-0.190	0.190	1.920
2020/01/31 23:22:35.0	184.040	-0.120	0.130	1.870
2020/01/31 23:22:35.1	184.020	-0.050	0.070	1.820
2020/01/31 23:22:35.2	184.020	0.030	-0.000	1.780
2020/01/31 23:22:35.3	184.010	0.100	-0.070	1.730
2020/01/31 23:22:35.4	184.000	0.180	-0.150	1.680
2020/01/31 23:22:35.5	183.980	0.260	-0.220	1.620
2020/01/31 23:22:35.6	183.970	0.340	-0.300	1.570
2020/01/31 23:22:35.7	183.960	0.420	-0.380	1.520
2020/01/31 23:22:35.8	183.940	0.500	-0.450	1.470
2020/01/31 23:22:35.9	183.930	0.580	-0.530	1.420
2020/01/31 23:22:36.0	183.910	0.650	-0.600	1.370
2020/01/31 23:22:36.1	183.900	0.720	-0.670	1.320
2020/01/31 23:22:36.2	183.890	0.790	-0.740	1.270
2020/01/31 23:22:36.3	183.880	0.850	-0.800	1.220
2020/01/31 23:22:36.4	183.860	0.900	-0.850	1.170
2020/01/31 23:22:36.5	183.850	0.950	-0.900	1.130
2020/01/31 23:22:36.6	183.840	0.990	-0.940	1.090
2020/01/31 23:22:36.7	183.840	1.020	-0.970	1.050
2020/01/31 23:22:36.8	183.830	1.050	-0.990	1.020
2020/01/31 23:22:36.9	183.820	1.070	-1.010	0.990
2020/01/31 23:22:37.0	183.820	1.080	-1.010	0.960
2020/01/31 23:22:37.1	183.830	1.080	-1.010	0.950
2020/01/31 23:22:37.2	183.830	1.080	-0.990	0.930
2020/01/31 23:22:37.3	183.830	1.060	-0.980	0.920
2020/01/31 23:22:37.4	183.830	1.040	-0.950	0.920
2020/01/31 23:22:37.5	183.830	1.010	-0.920	0.920
2020/01/31 23:22:37.6	183.830	0.980	-0.880	0.920
2020/01/31 23:22:37.7	183.830	0.930	-0.830	0.940
2020/01/31 23:22:37.8	183.830	0.880	-0.780	0.950
2020/01/31 23:22:37.9	183.840	0.820	-0.720	0.980
2020/01/31 23:22:38.0	183.840	0.760	-0.660	1.000
2020/01/31 23:22:38.1	183.830	0.690	-0.600	1.030
2020/01/31 23:22:38.2	183.830	0.620	-0.540	1.060
2020/01/31 23:22:38.3	183.840	0.540	-0.470	1.100
2020/01/31 23:22:38.4	183.840	0.460	-0.400	1.140
2020/01/31 23:22:38.5	183.840	0.380	-0.340	1.180
2020/01/31 23:22:38.6	183.840	0.300	-0.270	1.220
2020/01/31 23:22:38.7	183.850	0.210	-0.210	1.270
2020/01/31 23:22:38.8	183.850	0.130	-0.150	1.310
2020/01/31 23:22:38.9	183.850	0.040	-0.090	1.360
2020/01/31 23:22:39.0	183.850	-0.040	-0.040	1.400
2020/01/31 23:22:39.1	183.850	-0.120	0.020	1.460
2020/01/31 23:22:39.2	183.850	-0.200	0.060	1.510
2020/01/31 23:22:39.3	183.840	-0.280	0.100	1.550
2020/01/31 23:22:39.4	183.830	-0.350	0.130	1.600
2020/01/31 23:22:39.5	183.820	-0.420	0.160	1.650
2020/01/31 23:22:39.6	183.800	-0.490	0.170	1.700
2020/01/31 23:22:39.7	183.790	-0.550	0.190	1.750
2020/01/31 23:22:39.8	183.770	-0.600	0.190	1.810
2020/01/31 23:22:39.9	183.740	-0.650	0.180	1.860
2020/01/31 23:22:40.0	183.710	-0.690	0.170	1.920
2020/01/31 23:22:40.1	183.670	-0.720	0.140	1.980
2020/01/31 23:22:40.2	183.630	-0.750	0.120	2.040
2020/01/31 23:22:40.3	183.590	-0.770	0.080	2.100
2020/01/31 23:22:40.4	183.550	-0.790	0.040	2.170
2020/01/31 23:22:40.5	183.500	-0.790	-0.010	2.240
2020/01/31 23:22:40.6	183.460	-0.790	-0.060	2.310
2020/01/31 23:22:40.7	183.400	-0.790	-0.120	2.380
2020/01/31 23:22:40.8	183.350	-0.780	-0.180	2.450
2020/01/31 23:22:40.9	183.300	-0.760	-0.250	2.520
2020/01/31 23:22:41.0	183.240	-0.740	-0.310	2.590
2020/01/31 23:22:41.1	183.170	-0.710	-0.380	2.660
2020/01/31 23:22:41.2	183.110	-0.670	-0.450	2.720
2020/01/31 23:22:41.3	183.060	-0.640	-0.520	2.780
2020/01/31 23:22:41.4	183.000	-0.590	-0.590	2.830
2020/01/31 23:22:41.5	182.950	-0.550	-0.660	2.870
2020/01/31 23:22:41.6	182.900	-0.500	-0.720	2.910
2020/01/31 23:22:41.7	182.850	-0.450	-0.780	2.940
2020/01/31 23:22:41.8	182.810	-0.400	-0.830	2.960
2020/01/31 23:22:41.9	182.760	-0.340	-0.870	2.980
2020/01/31 23:22:42.0	182.720	-0.290	-0.910	2.980
2020/01/31 23:22:42.1	182.680	-0.230	-0.940	2.980
2020/01/31 23:22:42.2	182.650	-0.170	-0.960	2.970
2020/01/31 23:22:42.3	182.610	-0.120	-0.970	2.950
2020/01/31 23:22:42.4	182.580	-0.060	-0.970	2.920
2020/01/31 23:22:42.5	182.560	-0.010	-0.960	2.890
2020/01/31 23:22:42.6	182.530	0.040	-0.940	2.850
2020/01/31 23:22:42.7	182.510	0.090	-0.920	2.800
2020/01/31 23:22:42.8	182.490	0.130	-0.880	2.750
2020/01/31 23:22:42.9	182.470	0.170	-0.840	2.700
2020/01/31 23:22:43.0	182.460	0.210	-0.790	2.640
2020/01/31 23:22:43.1	182.440	0.250	-0.740	2.570
2020/01/31 23:22:43.2	182.420	0.280	-0.680	2.510
2020/01/31 23:22:43.3	182.410	0.310	-0.610	2.440
2020/01/31 23:22:43.4	182.400	0.330	-0.550	2.370
2020/01/31 23:22:43.5	182.390	0.350	-0.480	2.300
2020/01/31 23:22:43.6	182.380	0.370	-0.410	2.240
2020/01/31 23:22:43.7	182.370	0.380	-0.340	2.170
2020/01/31 23:22:43.8	182.360	0.390	-0.270	2.100
2020/01/31 23:22:43.9	182.350	0.400	-0.200	2.030
2020/01/31 23:22:44.0	182.330	0.400	-0.140	1.960
2020/01/31 23:22:44.1	182.310	0.400	-0.080	1.890
2020/01/31 23:22:44.2	182.300	0.400	-0.020	1.830
2020/01/31 23:22:44.3	182.280	0.400	0.030	1.770
2020/01/31 23:22:44.4	182.260	0.390	0.070	1.710
2020/01/31 23:22:44.5	182.250	0.380	0.110	1.650
2020/01/31 23:22:44.6	182.230	0.370	0.150	1.590
2020/01/31 23:22:44.7	182.210	0.360	0.170	1.540
2020/01/31 23:22:44.8	182.190	0.350	0.200	1.480
2020/01/31 23:22:44.9	182.170	0.330	0.210	1.430
2020/01/31 23:22:45.0	182.150	0.310	0.220	1.380
2020/01/31 23:22:45.1	182.120	0.300	0.230	1.340
2020/01/31 23:22:45.2	182.100	0.280	0.230	1.300
2020/01/31 23:22:45.3	182.080	0.260	0.230	1.250
2020/01/31 23:22:45.4	182.070	0.240	0.220	1.220
2020/01/31 23:22:45.5	182.060	0.220	0.210	1.180
2020/01/31 23:22:45.6	182.040	0.200	0.190	1.140
2020/01/31 23:22:45.7	182.040	0.180	0.180	1.110
2020/01/31 23:22:45.8	182.030	0.150	0.160	1.080
2020/01/31 23:22:45.9	182.030	0.130	0.150	1.060
2020/01/31 23:22:46.0	182.020	0.100	0.130	1.030
2020/01/31 23:22:46.1	182.030	0.080	0.110	1.010
2020/01/31 23:22:46.2	182.040	0.050	0.100	1.000
2020/01/31 23:22:46.3	182.040	0.030	0.080	0.980
2020/01/31 23:22:46.4	182.040	-0.000	0.060	0.970
2020/01/31 23:22:46.5	182.050	-0.030	0.050	0.970
2020/01/31 23:22:46.6	182.060	-0.060	0.030	0.970
2020/01/31 23:22:46.7	182.070	-0.090	0.020	0.970
2020/01/31 23:22:46.8	182.080	-0.120	0.000	0.980
2020/01/31 23:22:46.9	182.090	-0.150	-0.010	0.990
2020/01/31 23:22:47.0	182.100	-0.180	-0.020	1.010
2020/01/31 23:22:47.1	182.090	-0.210	-0.030	1.030
2020/01/31 23:22:47.2	182.110	-0.250	-0.040	1.050
2020/01/31 23:22:47.3	182.120	-0.280	-0.040	1.070
2020/01/31 23:22:47.4	182.130	-0.310	-0.050	1.100
2020/01/31 23:22:47.5	182.150	-0.340	-0.060	1.130
2020/01/31 23:22:47.6	182.160	-0.370	-0.070	1.160
2020/01/31 23:22:47.7	182.170	-0.400	-0.080	1.200
2020/01/31 23:22:47.8	182.180	-0.430	-0.090	1.230
2020/01/31 23:22:47.9	182.200	-0.460	-0.100	1.270
2020/01/31 23:22:48.0	182.210	-0.480	-0.110	1.310
2020/01/31 23:22:48.1	182.210	-0.510	-0.120	1.360
2020/01/31 23:22:48.2	182.210	-0.530	-0.140	1.400
2020/01/31 23:22:48.3	182.220	-0.550	-0.150	1.440
2020/01/31 23:22:48.4	182.220	-0.570	-0.170	1.480
2020/01/31 23:22:48.5	182.230	-0.580	-0.180	1.520
2020/01/31 23:22:48.6	182.230	-0.590	-0.210	1.560
2020/01/31 23:22:48.7	182.220	-0.600	-0.230	1.600
2020/01/31 23:22:48.8	182.220	-0.600	-0.250	1.650
2020/01/31 23:22:48.9	182.210	-0.600	-0.280	1.690
2020/01/31 23:22:49.0	182.200	-0.600	-0.300	1.730
2020/01/31 23:22:49.1	182.170	-0.590	-0.330	1.770
2020/01/31 23:22:49.2	182.150	-0.580	-0.360	1.820
2020/01/31 23:22:49.3	182.130	-0.560	-0.400	1.860
2020/01/31 23:22:49.4	182.100	-0.540	-0.430	1.900
2020/01/31 23:22:49.5	182.070	-0.510	-0.460	1.940
2020/01/31 23:22:49.6	182.040	-0.480	-0.500	1.990
2020/01/31 23:22:49.7	182.000	-0.440	-0.540	2.030
2020/01/31 23:22:49.8	181.960	-0.400	-0.580	2.070
2020/01/31 23:22:49.9	181.910	-0.360	-0.620	2.110
2020/01/31 23:22:50.0	181.870	-0.310	-0.650	2.150
2020/01/31 23:22:50.1	181.800	-0.260	-0.690	2.190
2020/01/31 23:22:50.2	181.750	-0.200	-0.720	2.220
2020/01/31 23:22:50.3	181.690	-0.140	-0.760	2.250
2020/01/31 23:22:50.4	181.640	-0.080	-0.790	2.280
2020/01/31 23:22:50.5	181.580	-0.020	-0.810	2.300
2020/01/31 23:22:50.6	181.520	0.050	-0.840	2.320
2020/01/31 23:22:50.7	181.460	0.110	-0.860	2.330
2020/01/31 23:22:50.8	181.410	0.180	-0.870	2.350
2020/01/31 23:22:50.9	181.350	0.240	-0.880	2.350
2020/01/31 23:22:51.0	181.300	0.310	-0.880	2.350
2020/01/31 23:22:51.1	181.270	0.370	-0.880	2.350
2020/01/31 23:22:51.2	181.220	0.420	-0.870	2.340
2020/01/31 23:22:51.3	181.170	0.480	-0.850	2.330
2020/01/31 23:22:51.4	181.130	0.530	-0.830	2.310
2020/01/31 23:22:51.5	181.090	0.580	-0.800	2.280
2020/01/31 23:22:51.6	181.050	0.620	-0.760	2.250
2020/01/31 23:22:51.7	181.020	0.650	-0.720	2.220
2020/01/31 23:22:51.8	180.990	0.680	-0.670	2.190
2020/01/31 23:22:51.9	180.970	0.700	-0.610	2.150
2020/01/31 23:22:52.0	180.950	0.710	-0.550	2.110
2020/01/31 23:22:52.1	180.940	0.720	-0.480	2.060
2020/01/31 23:22:52.2	180.930	0.720	-0.410	2.020
2020/01/31 23:22:52.3	180.930	0.710	-0.340	1.970
2020/01/31 23:22:52.4	180.930	0.690	-0.260	1.930
2020/01/31 23:22:52.5	180.930	0.670	-0.180	1.880
2020/01/31 23:22:52.6	180.940	0.640	-0.090	1.840
2020/01/31 23:22:52.7	180.950	0.600	-0.010	1.800
2020/01/31 23:22:52.8	180.970	0.560	0.080	1.760
2020/01/31 23:22:52.9	180.990	0.500	0.160	1.720
2020/01/31 23:22:53.0	181.010	0.450	0.240	1.690
2020/01/31 23:22:53.1	181.050	0.390	0.320	1.660
2020/01/31 23:22:53.2	181.080	0.320	0.390	1.640
2020/01/31 23:22:53.3	181.110	0.250	0.460	1.610
2020/01/31 23:22:53.4	181.140	0.180	0.530	1.600
2020/01/31 23:22:53.5	181.170	0.100	0.590	1.580
2020/01/31 23:22:53.6	181.200	0.020	0.640	1.580
2020/01/31 23:22:53.7	181.230	-0.060	0.690	1.570
2020/01/31 23:22:53.8	181.260	-0.130	0.730	1.570
2020/01/31 23:22:53.9	181.290	-0.210	0.760	1.580
2020/01/31 23:22:54.0	181.310	-0.290	0.780	1.590
2020/01/31 23:22:54.1	181.340	-0.360	0.800	1.610
2020/01/31 23:22:54.2	181.360	-0.430	0.800	1.620
2020/01/31 23:22:54.3	181.380	-0.500	0.800	1.650
2020/01/31 23:22:54.4	181.400	-0.560	0.780	1.670
2020/01/31 23:22:54.5	181.410	-0.620	0.760	1.700
2020/01/31 23:22:54.6	181.420	-0.670	0.720	1.740
2020/01/31 23:22:54.7	181.420	-0.710	0.680	1.770
2020/01/31 23:22:54.8	181.420	-0.750	0.630	1.810
2020/01/31 23:22:54.9	181.420	-0.770	0.560	1.840
2020/01/31 23:22:55.0	181.410	-0.800	0.490	1.880
2020/01/31 23:22:55.1	181.400	-0.810	0.410	1.920
2020/01/31 23:22:55.2	181.380	-0.810	0.330	1.960
2020/01/31 23:22:55.3	181.360	-0.810	0.230	2.000
2020/01/31 23:22:55.4	181.340	-0.790	0.130	2.040
2020/01/31 23:22:55.5	181.320	-0.770	0.030	2.080
2020/01/31 23:22:55.6	181.290	-0.740	-0.080	2.110
2020/01/31 23:22:55.7	181.250	-0.700	-0.190	2.150
2020/01/31 23:22:55.8	181.220	-0.650	-0.300	2.180
2020/01/31 23:22:55.9	181.180	-0.600	-0.410	2.220
2020/01/31 23:22:56.0	181.140	-0.540	-0.520	2.250
2020/01/31 23:22:56.1	181.130	-0.470	-0.630	2.280
2020/01/31 23:22:56.2	181.080	-0.400	-0.730	2.300
2020/01/31 23:22:56.3	181.040	-0.330	-0.830	2.330
2020/01/31 23:22:56.4	181.000	-0.240	-0.920	2.350
2020/01/31 23:22:56.5	180.960	-0.160	-1.010	2.360
2020/01/31 23:22:56.6	180.910	-0.080	-1.090	2.370
2020/01/31 23:22:56.7	180.880	0.010	-1.160	2.370
2020/01/31 23:22:56.8	180.840	0.090	-1.220	2.370
2020/01/31 23:22:56.9	180.810	0.180	-1.260	2.360
2020/01/31 23:22:57.0	180.770	0.260	-1.300	2.350
2020/01/31 23:22:57.1	180.730	0.340	-1.320	2.340
2020/01/31 23:22:57.2	180.700	0.420	-1.340	2.310
2020/01/31 23:22:57.3	180.680	0.490	-1.330	2.280
2020/01/31 23:22:57.4	180.670	0.550	-1.320	2.250
2020/01/31 23:22:57.5	180.660	0.610	-1.300	2.200
2020/01/31 23:22:57.6	180.650	0.670	-1.260	2.160
2020/01/31 23:22:57.7	180.650	0.720	-1.210	2.110
2020/01/31 23:22:57.8	180.650	0.750	-1.150	2.050
2020/01/31 23:22:57.9	180.650	0.790	-1.090	2.000
2020/01/31 23:22:58.0	180.660	0.810	-1.010	1.940
2020/01/31 23:22:58.1	180.690	0.820	-0.930	1.870
2020/01/31 23:22:58.2	180.710	0.830	-0.840	1.800
2020/01/31 23:22:58.3	180.730	0.830	-0.750	1.730
2020/01/31 23:22:58.4	180.750	0.820	-0.650	1.660
2020/01/31 23:22:58.5	180.770	0.800	-0.560	1.590
2020/01/31 23:22:58.6	180.790	0.780	-0.460	1.520
2020/01/31 23:22:58.7	180.810	0.750	-0.360	1.450
2020/01/31 23:22:58.8	180.830	0.710	-0.270	1.380
2020/01/31 23:22:58.9	180.860	0.660	-0.180	1.310
2020/01/31 23:22:59.0	180.880	0.610	-0.090	1.250
2020/01/31 23:22:59.1	180.910	0.560	-0.010	1.190
2020/01/31 23:22:59.2	180.930	0.500	0.060	1.130
2020/01/31 23:22:59.3	180.960	0.440	0.130	1.070
2020/01/31 23:22:59.4	180.980	0.370	0.190	1.020
2020/01/31 23:22:59.5	180.990	0.310	0.250	0.970
2020/01/31 23:22:59.6	181.010	0.240	0.290	0.930
2020/01/31 23:22:59.7	181.020	0.170	0.330	0.900
2020/01/31 23:22:59.8	181.040	0.100	0.350	0.870
2020/01/31 23:22:59.9	181.050	0.030	0.370	0.850
2020/01/31 23:23:00.0	181.060	-0.040	0.370	0.830
2020/01/31 23:23:00.1	181.040	-0.100	0.370	0.820
2020/01/31 23:23:00.2	181.040	-0.170	0.360	0.820
2020/01/31 23:23:00.3	181.050	-0.230	0.340	0.820
2020/01/31 23:23:00.4	181.040	-0.280	0.310	0.840
2020/01/31 23:23:00.5	181.040	-0.330	0.280	0.860
2020/01/31 23:23:00.6	181.030	-0.380	0.230	0.880
2020/01/31 23:23:00.7	181.010	-0.430	0.190	0.910
2020/01/31 23:23:00.8	181.000	-0.460	0.130	0.950
2020/01/31 23:23:00.9	180.980	-0.500	0.070	0.990
2020/01/31 23:23:01.0	180.960	-0.520	0.010	1.040
2020/01/31 23:23:01.1	180.930	-0.540	-0.050	1.100
2020/01/31 23:23:01.2	180.900	-0.560	-0.120	1.150
2020/01/31 23:23:01.3	180.880	-0.570	-0.180	1.200
2020/01/31 23:23:01.4	180.850	-0.580	-0.250	1.260
2020/01/31 23:23:01.5	180.820	-0.580	-0.320	1.320
2020/01/31 23:23:01.6	180.790	-0.570	-0.380	1.380
2020/01/31 23:23:01.7	180.760	-0.560	-0.450	1.440
2020/01/31 23:23:01.8	180.730	-0.550	-0.510	1.500
2020/01/31 23:23:01.9	180.700	-0.530	-0.560	1.550
2020/01/31 23:23:02.0	180.680	-0.510	-0.620	1.610
2020/01/31 23:23:02.1	180.640	-0.480	-0.670	1.660
2020/01/31 23:23:02.2	180.610	-0.460	-0.710	1.710
2020/01/31 23:23:02.3	180.590	-0.430	-0.750	1.760
2020/01/31 23:23:02.4	180.570	-0.390	-0.780	1.800
2020/01/31 23:23:02.5	180.560	-0.360	-0.800	1.840
2020/01/31 23:23:02.6	180.540	-0.330	-0.820	1.870
2020/01/31 23:23:02.7	180.530	-0.290	-0.840	1.900
2020/01/31 23:23:02.8	180.520	-0.260	-0.850	1.920
2020/01/31 23:23:02.9	180.520	-0.220	-0.850	1.940
2020/01/31 23:23:03.0	180.510	-0.190	-0.840	1.950
2020/01/31 23:23:03.1	180.530	-0.150	-0.830	1.960
2020/01/31 23:23:03.2	180.530	-0.120	-0.820	1.970
2020/01/31 23:23:03.3	180.540	-0.090	-0.790	1.960
2020/01/31 23:23:03.4	180.540	-0.060	-0.770	1.960
2020/01/31 23:23:03.5	180.550	-0.040	-0.730	1.950
2020/01/31 23:23:03.6	180.570	-0.010	-0.690	1.940
2020/01/31 23:23:03.7	180.580	0.010	-0.650	1.920
2020/01/31 23:23:03.8	180.600	0.030	-0.600	1.900
2020/01/31 23:23:03.9	180.610	0.040	-0.550	1.880
2020/01/31 23:23:04.0	180.630	0.050	-0.490	1.860
2020/01/31 23:23:04.1	180.660	0.060	-0.440	1.840
2020/01/31 23:23:04.2	180.680	0.070	-0.380	1.810
2020/01/31 23:23:04.3	180.700	0.070	-0.310	1.780
2020/01/31 23:23:04.4	180.730	0.080	-0.250	1.750
2020/01/31 23:23:04.5	180.750	0.080	-0.180	1.720
2020/01/31 23:23:04.6	180.770	0.070	-0.120	1.680
2020/01/31 23:23:04.7	180.790	0.070	-0.050	1.650
2020/01/31 23:23:04.8	180.820	0.060	0.020	1.620
2020/01/31 23:23:04.9	180.840	0.050	0.080	1.580
2020/01/31 23:23:05.0	180.860	0.040	0.140	1.550
2020/01/31 23:23:05.1	180.890	0.030	0.200	1.510
2020/01/31 23:23:05.2	180.910	0.020	0.260	1.480
2020/01/31 23:23:05.3	180.930	0.010	0.310	1.450
2020/01/31 23:23:05.4	180.950	-0.000	0.360	1.410
2020/01/31 23:23:05.5	180.960	-0.010	0.400	1.380
2020/01/31 23:23:05.6	180.980	-0.020	0.440	1.340
2020/01/31 23:23:05.7	180.990	-0.030	0.470	1.310
2020/01/31 23:23:05.8	181.000	-0.040	0.490	1.280
2020/01/31 23:23:05.9	181.010	-0.040	0.510	1.250
2020/01/31 23:23:06.0	181.020	-0.050	0.520	1.220
2020/01/31 23:23:06.1	181.030	-0.050	0.530	1.190
2020/01/31 23:23:06.2	181.030	-0.050	0.530	1.170
2020/01/31 23:23:06.3	181.030	-0.050	0.520	1.150
2020/01/31 23:23:06.4	181.030	-0.050	0.500	1.130
2020/01/31 23:23:06.5	181.030	-0.040	0.480	1.110
2020/01/31 23:23:06.6	181.020	-0.040	0.450	1.090
2020/01/31 23:23:06.7	181.010	-0.030	0.410	1.080
2020/01/31 23:23:06.8	181.000	-0.020	0.370	1.070
2020/01/31 23:23:06.9	180.990	-0.000	0.320	1.060
2020/01/31 23:23:07.0	180.980	0.010	0.270	1.050
2020/01/31 23:23:07.1	180.970	0.020	0.210	1.050
2020/01/31 23:23:07.2	180.960	0.030	0.160	1.050
2020/01/31 23:23:07.3	180.950	0.050	0.090	1.050
2020/01/31 23:23:07.4	180.940	0.060	0.030	1.050
2020/01/31 23:23:07.5	180.930	0.070	-0.030	1.060
2020/01/31 23:23:07.6	180.920	0.080	-0.100	1.070
2020/01/31 23:23:07.7	180.910	0.090	-0.170	1.090
2020/01/31 23:23:07.8	180.910	0.090	-0.230	1.110
2020/01/31 23:23:07.9	180.900	0.100	-0.300	1.130
2020/01/31 23:23:08.0	180.890	0.100	-0.360	1.160
2020/01/31 23:23:08.1	180.880	0.100	-0.420	1.190
2020/01/31 23:23:08.2	180.870	0.100	-0.480	1.230
2020/01/31 23:23:08.3	180.870	0.100	-0.540	1.270
2020/01/31 23:23:08.4	180.860	0.090	-0.590	1.310
2020/01/31 23:23:08.5	180.850	0.080	-0.640	1.360
2020/01/31 23:23:08.6	180.850	0.070	-0.690	1.410
2020/01/31 23:23:08.7	180.840	0.060	-0.740	1.460
2020/01/31 23:23:08.8	180.840	0.050	-0.780	1.510
2020/01/31 23:23:08.9	180.830	0.030	-0.820	1.570
2020/01/31 23:23:09.0	180.820	0.020	-0.850	1.620
2020/01/31 23:23:09.1	180.820	-0.000	-0.880	1.680
2020/01/31 23:23:09.2	180.810	-0.020	-0.900	1.740
2020/01/31 23:23:09.3	180.800	-0.040	-0.920	1.790
2020/01/31 23:23:09.4	180.790	-0.060	-0.940	1.840
2020/01/31 23:23:09.5	180.780	-0.080	-0.940	1.900
2020/01/31 23:23:09.6	180.770	-0.110	-0.950	1.950
2020/01/31 23:23:09.7	180.760	-0.130	-0.950	2.000
2020/01/31 23:23:09.8	180.750	-0.150	-0.940	2.040
2020/01/31 23:23:09.9	180.740	-0.170	-0.930	2.090
2020/01/31 23:23:10.0	180.720	-0.180	-0.920	2.130
2020/01/31 23:23:10.1	180.700	-0.200	-0.900	2.170
2020/01/31 23:23:10.2	180.690	-0.210	-0.870	2.210
2020/01/31 23:23:10.3	180.680	-0.230	-0.840	2.240
2020/01/31 23:23:10.4	180.670	-0.240	-0.810	2.270
2020/01/31 23:23:10.5	180.650	-0.240	-0.780	2.290
2020/01/31 23:23:10.6	180.640	-0.250	-0.740	2.310
2020/01/31 23:23:10.7	180.630	-0.250	-0.700	2.330
2020/01/31 23:23:10.8	180.620	-0.250	-0.660	2.340
2020/01/31 23:23:10.9	180.600	-0.240	-0.620	2.350
2020/01/31 23:23:11.0	180.590	-0.240	-0.570	2.360
2020/01/31 23:23:11.1	180.590	-0.230	-0.520	2.360
2020/01/31 23:23:11.2	180.580	-0.210	-0.480	2.350
2020/01/31 23:23:11.3	180.570	-0.200	-0.430	2.340
2020/01/31 23:23:11.4	180.560	-0.180	-0.370	2.330
2020/01/31 23:23:11.5	180.560	-0.160	-0.320	2.310
2020/01/31 23:23:11.6	180.560	-0.140	-0.270	2.290
2020/01/31 23:23:11.7	180.560	-0.120	-0.210	2.260
2020/01/31 23:23:11.8	180.560	-0.100	-0.160	2.230
2020/01/31 23:23:11.9	180.570	-0.080	-0.100	2.200
2020/01/31 23:23:12.0	180.570	-0.060	-0.050	2.160
2020/01/31 23:23:12.1	180.590	-0.040	0.010	2.120
2020/01/31 23:23:12.2	180.600	-0.010	0.060	2.080
2020/01/31 23:23:12.3	180.620	0.010	0.120	2.040
2020/01/31 23:23:12.4	180.640	0.030	0.170	1.990
2020/01/31 23:23:12.5	180.660	0.040	0.220	1.950
2020/01/31 23:23:12.6	180.680	0.060	0.270	1.900
2020/01/31 23:23:12.7	180.700	0.080	0.310	1.850
2020/01/31 23:23:12.8	180.730	0.090	0.360	1.800
2020/01/31 23:23:12.9	180.760	0.110	0.400	1.740
2020/01/31 23:23:13.0	180.780	0.120	0.440	1.690
2020/01/31 23:23:13.1	180.800	0.130	0.470	1.630
2020/01/31 23:23:13.2	180.830	0.130	0.500	1.570
2020/01/31 23:23:13.3	180.860	0.140	0.520	1.520
2020/01/31 23:23:13.4	180.890	0.140	0.540	1.460
2020/01/31 23:23:13.5	180.920	0.150	0.560	1.400
2020/01/31 23:23:13.6	180.940	0.150	0.570	1.340
2020/01/31 23:23:13.7	180.970	0.150	0.570	1.280
2020/01/31 23:23:13.8	181.000	0.150	0.570	1.220
2020/01/31 23:23:13.9	181.020	0.150	0.560	1.160
2020/01/31 23:23:14.0	181.040	0.140	0.540	1.100
2020/01/31 23:23:14.1	181.070	0.140	0.520	1.040
2020/01/31 23:23:14.2	181.090	0.140	0.490	0.990
2020/01/31 23:23:14.3	181.110	0.130	0.460	0.940
2020/01/31 23:23:14.4	181.120	0.130	0.420	0.890
2020/01/31 23:23:14.5	181.140	0.130	0.380	0.850
2020/01/31 23:23:14.6	181.150	0.120	0.330	0.810
2020/01/31 23:23:14.7	181.170	0.120	0.270	0.770
2020/01/31 23:23:14.8	181.180	0.110	0.220	0.740
2020/01/31 23:23:14.9	181.200	0.110	0.160	0.710
2020/01/31 23:23:15.0	181.210	0.100	0.090	0.690
2020/01/31 23:23:15.1	181.230	0.100	0.030	0.670
2020/01/31 23:23:15.2	181.240	0.090	-0.040	0.660
2020/01/31 23:23:15.3	181.240	0.090	-0.100	0.660
2020/01/31 23:23:15.4	181.250	0.080	-0.170	0.670
2020/01/31 23:23:15.5	181.260	0.080	-0.240	0.680
2020/01/31 23:23:15.6	181.260	0.070	-0.310	0.700
2020/01/31 23:23:15.7	181.260	0.070	-0.380	0.720
2020/01/31 23:23:15.8	181.260	0.070	-0.440	0.750
2020/01/31 23:23:15.9	181.260	0.070	-0.510	0.790
2020/01/31 23:23:16.0	181.260	0.070	-0.570	0.830
2020/01/31 23:23:16.1	181.230	0.070	-0.630	0.880
2020/01/31 23:23:16.2	181.220	0.070	-0.680	0.920
2020/01/31 23:23:16.3	181.200	0.070	-0.740	0.970
2020/01/31 23:23:16.4	181.190	0.070	-0.790	1.030
2020/01/31 23:23:16.5	181.170	0.080	-0.830	1.080
2020/01/31 23:23:16.6	181.150	0.080	-0.870	1.140
2020/01/31 23:23:16.7	181.130	0.090	-0.910	1.190
2020/01/31 23:23:16.8	181.110	0.090	-0.940	1.250
2020/01/31 23:23:16.9	181.080	0.100	-0.970	1.300
2020/01/31 23:23:17.0	181.060	0.110	-0.990	1.360
2020/01/31 23:23:17.1	181.030	0.110	-1.020	1.410
2020/01/31 23:23:17.2	181.000	0.120	-1.030	1.460
2020/01/31 23:23:17.3	180.980	0.130	-1.030	1.500
2020/01/31 23:23:17.4	180.960	0.130	-1.030	1.550
2020/01/31 23:23:17.5	180.940	0.140	-1.020	1.590
2020/01/31 23:23:17.6	180.920	0.140	-1.010	1.620
2020/01/31 23:23:17.7	180.900	0.150	-0.990	1.650
2020/01/31 23:23:17.8	180.880	0.150	-0.970	1.680
2020/01/31 23:23:17.9	180.870	0.150	-0.930	1.700
2020/01/31 23:23:18.0	180.860	0.150	-0.900	1.720
2020/01/31 23:23:18.1	180.870	0.140	-0.850	1.740
2020/01/31 23:23:18.2	180.870	0.140	-0.810	1.750
2020/01/31 23:23:18.3	180.870	0.130	-0.760	1.760
2020/01/31 23:23:18.4	180.870	0.120	-0.700	1.760
2020/01/31 23:23:18.5	180.880	0.110	-0.650	1.770
2020/01/31 23:23:18.6	180.890	0.100	-0.590	1.770
2020/01/31 23:23:18.7	180.900	0.090	-0.530	1.760
2020/01/31 23:23:18.8	180.920	0.070	-0.470	1.760
2020/01/31 23:23:18.9	180.940	0.050	-0.400	1.750
2020/01/31 23:23:19.0	180.960	0.030	-0.340	1.740
2020/01/31 23:23:19.1	180.980	0.010	-0.290	1.730
2020/01/31 23:23:19.2	181.000	-0.010	-0.230	1.720
2020/01/31 23:23:19.3	181.030	-0.030	-0.170	1.710
2020/01/31 23:23:19.4	181.060	-0.060	-0.120	1.700
2020/01/31 23:23:19.5	181.090	-0.080	-0.070	1.680
2020/01/31 23:23:19.6	181.120	-0.100	-0.030	1.670
2020/01/31 23:23:19.7	181.150	-0.130	0.010	1.650
2020/01/31 23:23:19.8	181.180	-0.150	0.040	1.640
2020/01/31 23:23:19.9	181.200	-0.170	0.070	1.620
2020/01/31 23:23:20.0	181.230	-0.200	0.080	1.600
2020/01/31 23:23:20.1	181.250	-0.210	0.100	1.590
2020/01/31 23:23:20.2	181.280	-0.230	0.100	1.580
2020/01/31 23:23:20.3	181.300	-0.250	0.090	1.560
2020/01/31 23:23:20.4	181.330	-0.260	0.080	1.540
2020/01/31 23:23:20.5	181.350	-0.270	0.060	1.520
2020/01/31 23:23:20.6	181.360	-0.280	0.040	1.500
2020/01/31 23:23:20.7	181.380	-0.280	0.000	1.490
2020/01/31 23:23:20.8	181.400	-0.290	-0.030	1.470
2020/01/31 23:23:20.9	181.410	-0.290	-0.080	1.450
2020/01/31 23:23:21.0	181.420	-0.280	-0.130	1.430
2020/01/31 23:23:21.1	181.430	-0.280	-0.180	1.410
2020/01/31 23:23:21.2	181.440	-0.270	-0.230	1.390
2020/01/31 23:23:21.3	181.450	-0.260	-0.290	1.380
2020/01/31 23:23:21.4	181.450	-0.250	-0.340	1.360
2020/01/31 23:23:21.5	181.460	-0.230	-0.400	1.350
2020/01/31 23:23:21.6	181.460	-0.210	-0.450	1.330
2020/01/31 23:23:21.7	181.460	-0.200	-0.500	1.320
2020/01/31 23:23:21.8	181.470	-0.180	-0.550	1.310
2020/01/31 23:23:21.9	181.470	-0.160	-0.590	1.300
2020/01/31 23:23:22.0	181.470	-0.140	-0.630	1.300
2020/01/31 23:23:22.1	181.460	-0.120	-0.660	1.290
2020/01/31 23:23:22.2	181.470	-0.100	-0.680	1.290
2020/01/31 23:23:22.3	181.470	-0.090	-0.700	1.290
2020/01/31 23:23:22.4	181.480	-0.070	-0.710	1.280
2020/01/31 23:23:22.5	181.480	-0.050	-0.710	1.280
2020/01/31 23:23:22.6	181.490	-0.030	-0.700	1.280
2020/01/31 23:23:22.7	181.500	-0.020	-0.690	1.280
2020/01/31 23:23:22.8	181.510	-0.010	-0.670	1.270
2020/01/31 23:23:22.9	181.530	0.010	-0.630	1.260
2020/01/31 23:23:23.0	181.540	0.020	-0.600	1.260
2020/01/31 23:23:23.1	181.560	0.020	-0.550	1.250
2020/01/31 23:23:23.2	181.580	0.030	-0.500	1.240
2020/01/31 23:23:23.3	181.600	0.030	-0.450	1.230
2020/01/31 23:23:23.4	181.610	0.040	-0.380	1.210
2020/01/31 23:23:23.5	181.630	0.040	-0.320	1.190
2020/01/31 23:23:23.6	181.650	0.030	-0.250	1.170
2020/01/31 23:23:23.7	181.670	0.030	-0.180	1.150
2020/01/31 23:23:23.8	181.700	0.020	-0.110	1.120
2020/01/31 23:23:23.9	181.720	0.020	-0.040	1.090
2020/01/31 23:23:24.0	181.740	0.010	0.030	1.070
2020/01/31 23:23:24.1	181.750	-0.000	0.100	1.040
2020/01/31 23:23:24.2	181.780	-0.020	0.170	1.010
2020/01/31 23:23:24.3	181.800	-0.030	0.230	0.970
2020/01/31 23:23:24.4	181.820	-0.040	0.290	0.940
2020/01/31 23:23:24.5	181.840	-0.060	0.340	0.910
2020/01/31 23:23:24.6	181.850	-0.070	0.390	0.890
2020/01/31 23:23:24.7	181.870	-0.080	0.430	0.860
2020/01/31 23:23:24.8	181.880	-0.100	0.460	0.830
2020/01/31 23:23:24.9	181.900	-0.110	0.480	0.810
2020/01/31 23:23:25.0	181.910	-0.120	0.500	0.790
2020/01/31 23:23:25.1	181.910	-0.130	0.510	0.770
2020/01/31 23:23:25.2	181.910	-0.140	0.510	0.760
2020/01/31 23:23:25.3	181.920	-0.150	0.510	0.750
2020/01/31 23:23:25.4	181.930	-0.160	0.490	0.750
2020/01/31 23:23:25.5	181.930	-0.160	0.470	0.750
2020/01/31 23:23:25.6	181.930	-0.160	0.440	0.760
2020/01/31 23:23:25.7	181.930	-0.160	0.400	0.770
2020/01/31 23:23:25.8	181.930	-0.160	0.360	0.780
2020/01/31 23:23:25.9	181.920	-0.160	0.310	0.800
2020/01/31 23:23:26.0	181.910	-0.150	0.260	0.820
2020/01/31 23:23:26.1	181.900	-0.140	0.200	0.850
2020/01/31 23:23:26.2	181.890	-0.130	0.140	0.890
2020/01/31 23:23:26.3	181.870	-0.120	0.070	0.920
2020/01/31 23:23:26.4	181.860	-0.110	0.000	0.960
2020/01/31 23:23:26.5	181.840	-0.100	-0.070	1.010
2020/01/31 23:23:26.6	181.820	-0.080	-0.140	1.060
2020/01/31 23:23:26.7	181.800	-0.060	-0.210	1.110
2020/01/31 23:23:26.8	181.780	-0.050	-0.280	1.160
2020/01/31 23:23:26.9	181.750	-0.030	-0.350	1.210
2020/01/31 23:23:27.0	181.720	-0.020	-0.410	1.270
2020/01/31 23:23:27.1	181.710	0.000	-0.480	1.320
2020/01/31 23:23:27.2	181.680	0.020	-0.530	1.380
2020/01/31 23:23:27.3	181.650	0.030	-0.590	1.440
2020/01/31 23:23:27.4	181.620	0.050	-0.640	1.500
2020/01/31 23:23:27.5	181.590	0.060	-0.680	1.560
2020/01/31 23:23:27.6	181.560	0.070	-0.720	1.620
2020/01/31 23:23:27.7	181.530	0.080	-0.750	1.670
2020/01/31 23:23:27.8	181.500	0.090	-0.770	1.730
2020/01/31 23:23:27.9	181.470	0.090	-0.790	1.780
2020/01/31 23:23:28.0	181.440	0.100	-0.800	1.830
2020/01/31 23:23:28.1	181.420	0.100	-0.800	1.890
2020/01/31 23:23:28.2	181.400	0.100	-0.790	1.930
2020/01/31 23:23:28.3	181.390	0.090	-0.770	1.970
2020/01/31 23:23:28.4	181.380	0.090	-0.750	2.010
2020/01/31 23:23:28.5	181.370	0.080	-0.720	2.040
2020/01/31 23:23:28.6	181.370	0.070	-0.680	2.070
2020/01/31 23:23:28.7	181.370	0.060	-0.630	2.090
2020/01/31 23:23:28.8	181.380	0.040	-0.580	2.110
2020/01/31 23:23:28.9	181.390	0.030	-0.520	2.120
2020/01/31 23:23:29.0	181.400	0.010	-0.460	2.130
2020/01/31 23:23:29.1	181.430	-0.010	-0.390	2.130
2020/01/31 23:23:29.2	181.450	-0.030	-0.310	2.130
2020/01/31 23:23:29.3	181.480	-0.050	-0.240	2.120
2020/01/31 23:23:29.4	181.510	-0.070	-0.170	2.110
2020/01/31 23:23:29.5	181.540	-0.090	-0.090	2.090
2020/01/31 23:23:29.6	181.570	-0.100	-0.020	2.070
2020/01/31 23:23:29.7	181.610	-0.120	0.060	2.050
2020/01/31 23:23:29.8	181.650	-0.140	0.130	2.020
2020/01/31 23:23:29.9	181.690	-0.150	0.190	1.990
2020/01/31 23:23:30.0	181.730	-0.160	0.260	1.960
2020/01/31 23:23:30.1	181.760	-0.170	0.310	1.930
2020/01/31 23:23:30.2	181.800	-0.170	0.360	1.890
2020/01/31 23:23:30.3	181.840	-0.170	0.410	1.840
2020/01/31 23:23:30.4	181.880	-0.170	0.440	1.800
2020/01/31 23:23:30.5	181.920	-0.160	0.470	1.750
2020/01/31 23:23:30.6	181.960	-0.150	0.490	1.700
2020/01/31 23:23:30.7	182.000	-0.140	0.500	1.650
2020/01/31 23:23:30.8	182.030	-0.120	0.500	1.600
2020/01/31 23:23:30.9	182.070	-0.090	0.500	1.540
2020/01/31 23:23:31.0	182.100	-0.060	0.480	1.490
2020/01/31 23:23:31.1	182.130	-0.030	0.460	1.430
2020/01/31 23:23:31.2	182.160	0.010	0.430	1.370
2020/01/31 23:23:31.3	182.190	0.050	0.390	1.310
2020/01/31 23:23:31.4	182.220	0.100	0.340	1.250
2020/01/31 23:23:31.5	182.250	0.150	0.290	1.200
2020/01/31 23:23:31.6	182.270	0.200	0.230	1.140
2020/01/31 23:23:31.7	182.290	0.260	0.160	1.090
2020/01/31 23:23:31.8	182.310	0.310	0.090	1.030
2020/01/31 23:23:31.9	182.330	0.370	0.010	0.980
2020/01/31 23:23:32.0	182.340	0.430	-0.060	0.930
2020/01/31 23:23:32.1	182.360	0.480	-0.140	0.880
2020/01/31 23:23:32.2	182.380	0.540	-0.230	0.840
2020/01/31 23:23:32.3	182.390	0.600	-0.310	0.800
2020/01/31 23:23:32.4	182.410	0.650	-0.390	0.760
2020/01/31 23:23:32.5	182.420	0.700	-0.470	0.720
2020/01/31 23:23:32.6	182.430	0.750	-0.550	0.690
2020/01/31 23:23:32.7	182.440	0.790	-0.630	0.660
2020/01/31 23:23:32.8	182.450	0.820	-0.700	0.640
2020/01/31 23:23:32.9	182.470	0.860	-0.770	0.620
2020/01/31 23:23:33.0	182.480	0.880	-0.840	0.600
2020/01/31 23:23:33.1	182.510	0.900	-0.900	0.590
2020/01/31 23:23:33.2	182.520	0.910	-0.950	0.580
2020/01/31 23:23:33.3	182.530	0.920	-0.990	0.570
2020/01/31 23:23:33.4	182.540	0.910	-1.030	0.570
2020/01/31 23:23:33.5	182.560	0.900	-1.050	0.570
2020/01/31 23:23:33.6	182.570	0.890	-1.070	0.580
2020/01/31 23:23:33.7	182.580	0.860	-1.080	0.580
2020/01/31 23:23:33.8	182.600	0.830	-1.090	0.590
2020/01/31 23:23:33.9	182.610	0.790	-1.080	0.610
2020/01/31 23:23:34.0	182.630	0.740	-1.070	0.620
2020/01/31 23:23:34.1	182.650	0.680	-1.040	0.640
2020/01/31 23:23:34.2	182.670	0.620	-1.020	0.660
2020/01/31 23:23:34.3	182.690	0.550	-0.980	0.680
2020/01/31 23:23:34.4	182.700	0.480	-0.940	0.710
2020/01/31 23:23:34.5	182.720	0.400	-0.900	0.740
2020/01/31 23:23:34.6	182.750	0.320	-0.850	0.770
2020/01/31 23:23:34.7	182.770	0.230	-0.800	0.800
2020/01/31 23:23:34.8	182.790	0.140	-0.740	0.830
2020/01/31 23:23:34.9	182.810	0.050	-0.680	0.870
2020/01/31 23:23:35.0	182.840	-0.050	-0.620	0.910
2020/01/31 23:23:35.1	182.860	-0.140	-0.570	0.950
2020/01/31 23:23:35.2	182.890	-0.240	-0.510	0.990
2020/01/31 23:23:35.3	182.910	-0.330	-0.450	1.040
2020/01/31 23:23:35.4	182.940	-0.430	-0.400	1.090
2020/01/31 23:23:35.5	182.970	-0.520	-0.350	1.130
2020/01/31 23:23:35.6	182.990	-0.600	-0.300	1.180
2020/01/31 23:23:35.7	183.020	-0.690	-0.250	1.230
2020/01/31 23:23:35.8	183.040	-0.770	-0.210	1.290
2020/01/31 23:23:35.9	183.060	-0.840	-0.170	1.340
2020/01/31 23:23:36.0	183.080	-0.910	-0.140	1.390
2020/01/31 23:23:36.1	183.090	-0.970	-0.100	1.450
2020/01/31 23:23:36.2	183.110	-1.020	-0.080	1.500
2020/01/31 23:23:36.3	183.120	-1.060	-0.060	1.550
2020/01/31 23:23:36.4	183.130	-1.100	-0.050	1.600
2020/01/31 23:23:36.5	183.130	-1.130	-0.040	1.650
2020/01/31 23:23:36.6	183.130	-1.140	-0.040	1.700
2020/01/31 23:23:36.7	183.130	-1.150	-0.040	1.750
2020/01/31 23:23:36.8	183.130	-1.150	-0.050	1.790
2020/01/31 23:23:36.9	183.120	-1.150	-0.060	1.840
2020/01/31 23:23:37.0	183.110	-1.130	-0.080	1.870
2020/01/31 23:23:37.1	183.110	-1.100	-0.100	1.910
2020/01/31 23:23:37.2	183.100	-1.070	-0.120	1.940
2020/01/31 23:23:37.3	183.080	-1.020	-0.150	1.970
2020/01/31 23:23:37.4	183.070	-0.970	-0.180	1.990
2020/01/31 23:23:37.5	183.050	-0.920	-0.210	2.010
2020/01/31 23:23:37.6	183.030	-0.850	-0.240	2.030
2020/01/31 23:23:37.7	183.010	-0.780	-0.270	2.040
2020/01/31 23:23:37.8	182.990	-0.700	-0.300	2.050
2020/01/31 23:23:37.9	182.970	-0.620	-0.330	2.060
2020/01/31 23:23:38.0	182.940	-0.540	-0.370	2.060
2020/01/31 23:23:38.1	182.930	-0.450	-0.390	2.060
2020/01/31 23:23:38.2	182.910	-0.360	-0.420	2.050
2020/01/31 23:23:38.3	182.880	-0.260	-0.450	2.030
2020/01/31 23:23:38.4	182.860	-0.170	-0.470	2.020
2020/01/31 23:23:38.5	182.840	-0.080	-0.490	2.000
2020/01/31 23:23:38.6	182.820	0.010	-0.510	1.970
2020/01/31 23:23:38.7	182.800	0.100	-0.530	1.950
2020/01/31 23:23:38.8	182.780	0.190	-0.540	1.910
2020/01/31 23:23:38.9	182.760	0.270	-0.540	1.880
2020/01/31 23:23:39.0	182.750	0.350	-0.540	1.840
2020/01/31 23:23:39.1	182.740	0.420	-0.540	1.790
2020/01/31 23:23:39.2	182.730	0.490	-0.530	1.740
2020/01/31 23:23:39.3	182.730	0.550	-0.520	1.690
2020/01/31 23:23:39.4	182.730	0.600	-0.500	1.640
2020/01/31 23:23:39.5	182.730	0.650	-0.480	1.590
2020/01/31 23:23:39.6	182.740	0.680	-0.450	1.540
2020/01/31 23:23:39.7	182.750	0.710	-0.420	1.490
2020/01/31 23:23:39.8	182.770	0.730	-0.390	1.430
2020/01/31 23:23:39.9	182.780	0.740	-0.350	1.380
2020/01/31 23:23:40.0	182.800	0.740	-0.310	1.330
2020/01/31 23:23:40.1	182.810	0.730	-0.260	1.280
2020/01/31 23:23:40.2	182.830	0.720	-0.220	1.240
2020/01/31 23:23:40.3	182.850	0.700	-0.180	1.190
2020/01/31 23:23:40.4	182.870	0.670	-0.140	1.160
2020/01/31 23:23:40.5	182.890	0.630	-0.090	1.120
2020/01/31 23:23:40.6	182.910	0.580	-0.050	1.090
2020/01/31 23:23:40.7	182.940	0.530	-0.010	1.060
2020/01/31 23:23:40.8	182.960	0.480	0.030	1.040
2020/01/31 23:23:40.9	182.980	0.420	0.060	1.020
2020/01/31 23:23:41.0	183.000	0.350	0.100	1.010
2020/01/31 23:23:41.1	183.000	0.280	0.120	1.000
2020/01/31 23:23:41.2	183.020	0.210	0.150	0.990
2020/01/31 23:23:41.3	183.040	0.140	0.180	0.990
2020/01/31 23:23:41.4	183.050	0.060	0.200	1.000
2020/01/31 23:23:41.5	183.070	-0.010	0.210	1.000
2020/01/31 23:23:41.6	183.090	-0.080	0.230	1.020
2020/01/31 23:23:41.7	183.100	-0.160	0.240	1.030
2020/01/31 23:23:41.8	183.120	-0.230	0.240	1.050
2020/01/31 23:23:41.9	183.130	-0.290	0.250	1.060
2020/01/31 23:23:42.0	183.150	-0.360	0.250	1.080
2020/01/31 23:23:42.1	183.160	-0.420	0.250	1.100
2020/01/31 23:23:42.2	183.180	-0.470	0.250	1.120
2020/01/31 23:23:42.3	183.190	-0.530	0.240	1.140
2020/01/31 23:23:42.4	183.210	-0.570	0.240	1.160
2020/01/31 23:23:42.5	183.230	-0.610	0.240	1.180
2020/01/31 23:23:42.6	183.250	-0.650	0.230	1.190
2020/01/31 23:23:42.7	183.280	-0.680	0.230	1.210
2020/01/31 23:23:42.8	183.300	-0.700	0.220	1.230
2020/01/31 23:23:42.9	183.320	-0.720	0.210	1.240
2020/01/31 23:23:43.0	183.350	-0.730	0.210	1.260
2020/01/31 23:23:43.1	183.380	-0.730	0.200	1.280
2020/01/31 23:23:43.2	183.410	-0.730	0.190	1.290
2020/01/31 23:23:43.3	183.430	-0.720	0.180	1.310
2020/01/31 23:23:43.4	183.450	-0.710	0.170	1.320
2020/01/31 23:23:43.5	183.470	-0.690	0.160	1.340
2020/01/31 23:23:43.6	183.490	-0.670	0.150	1.350
2020/01/31 23:23:43.7	183.510	-0.640	0.140	1.370
2020/01/31 23:23:43.8	183.530	-0.600	0.120	1.390
2020/01/31 23:23:43.9	183.550	-0.560	0.100	1.400
2020/01/31 23:23:44.0	183.560	-0.520	0.080	1.420
2020/01/31 23:23:44.1	183.570	-0.480	0.070	1.440
2020/01/31 23:23:44.2	183.590	-0.430	0.040	1.460
2020/01/31 23:23:44.3	183.600	-0.380	0.010	1.470
2020/01/31 23:23:44.4	183.610	-0.320	-0.020	1.490
2020/01/31 23:23:44.5	183.620	-0.270	-0.050	1.500
2020/01/31 23:23:44.6	183.630	-0.210	-0.090	1.500
2020/01/31 23:23:44.7	183.640	-0.150	-0.120	1.510
2020/01/31 23:23:44.8	183.650	-0.090	-0.160	1.510
2020/01/31 23:23:44.9	183.660	-0.030	-0.200	1.510
2020/01/31 23:23:45.0	183.670	0.030	-0.250	1.500
2020/01/31 23:23:45.1	183.680	0.080	-0.290	1.490
2020/01/31 23:23:45.2	183.690	0.140	-0.330	1.480
2020/01/31 23:23:45.3	183.700	0.200	-0.380	1.460
2020/01/31 23:23:45.4	183.710	0.250	-0.420	1.440
2020/01/31 23:23:45.5	183.720	0.300	-0.460	1.420
2020/01/31 23:23:45.6	183.720	0.350	-0.500	1.390
2020/01/31 23:23:45.7	183.730	0.390	-0.540	1.360
2020/01/31 23:23:45.8	183.740	0.440	-0.580	1.330
2020/01/31 23:23:45.9	183.750	0.470	-0.610	1.300
2020/01/31 23:23:46.0	183.760	0.510	-0.640	1.270
2020/01/31 23:23:46.1	183.800	0.540	-0.670	1.240
2020/01/31 23:23:46.2	183.810	0.560	-0.690	1.210
2020/01/31 23:23:46.3	183.820	0.580	-0.710	1.180
2020/01/31 23:23:46.4	183.840	0.600	-0.730	1.140
2020/01/31 23:23:46.5	183.850	0.610	-0.730	1.120
2020/01/31 23:23:46.6	183.870	0.620	-0.740	1.090
2020/01/31 23:23:46.7	183.880	0.630	-0.740	1.070
2020/01/31 23:23:46.8	183.900	0.620	-0.730	1.050
2020/01/31 23:23:46.9	183.910	0.620	-0.720	1.030
2020/01/31 23:23:47.0	183.930	0.610	-0.700	1.020
2020/01/31 23:23:47.1	183.970	0.590	-0.680	1.000
2020/01/31 23:23:47.2	183.990	0.580	-0.650	1.000
2020/01/31 23:23:47.3	184.010	0.550	-0.620	0.990
2020/01/31 23:23:47.4	184.020	0.530	-0.590	0.990
2020/01/31 23:23:47.5	184.040	0.500	-0.560	0.990
2020/01/31 23:23:47.6	184.060	0.470	-0.520	1.000
2020/01/31 23:23:47.7	184.080	0.440	-0.480	1.000
2020/01/31 23:23:47.8	184.090	0.400	-0.430	1.010
2020/01/31 23:23:47.9	184.110	0.360	-0.390	1.020
2020/01/31 23:23:48.0	184.120	0.330	-0.340	1.040
2020/01/31 23:23:48.1	184.130	0.290	-0.300	1.050
2020/01/31 23:23:48.2	184.140	0.240	-0.260	1.060
2020/01/31 23:23:48.3	184.150	0.200	-0.210	1.080
2020/01/31 23:23:48.4	184.160	0.160	-0.170	1.090
2020/01/31 23:23:48.5	184.170	0.120	-0.130	1.110
2020/01/31 23:23:48.6	184.180	0.080	-0.090	1.130
2020/01/31 23:23:48.7	184.180	0.050	-0.060	1.140
2020/01/31 23:23:48.8	184.180	0.010	-0.020	1.160
2020/01/31 23:23:48.9	184.190	-0.020	0.010	1.180
2020/01/31 23:23:49.0	184.190	-0.060	0.030	1.200
2020/01/31 23:23:49.1	184.180	-0.090	0.050	1.210
2020/01/31 23:23:49.2	184.180	-0.110	0.070	1.230
2020/01/31 23:23:49.3	184.170	-0.140	0.080	1.250
2020/01/31 23:23:49.4	184.170	-0.160	0.090	1.270
2020/01/31 23:23:49.5	184.160	-0.180	0.100	1.290
2020/01/31 23:23:49.6	184.160	-0.190	0.100	1.310
2020/01/31 23:23:49.7	184.150	-0.200	0.100	1.340
2020/01/31 23:23:49.8	184.140	-0.210	0.090	1.360
2020/01/31 23:23:49.9	184.120	-0.210	0.080	1.390
2020/01/31 23:23:50.0	184.110	-0.210	0.060	1.410
2020/01/31 23:23:50.1	184.100	-0.210	0.040	1.440
2020/01/31 23:23:50.2	184.080	-0.200	0.020	1.460
2020/01/31 23:23:50.3	184.060	-0.190	-0.010	1.490
2020/01/31 23:23:50.4	184.050	-0.180	-0.040	1.520
2020/01/31 23:23:50.5	184.030	-0.160	-0.070	1.550
2020/01/31 23:23:50.6	184.010	-0.140	-0.100	1.580
2020/01/31 23:23:50.7	183.980	-0.120	-0.130	1.610
2020/01/31 23:23:50.8	183.960	-0.100	-0.170	1.630
2020/01/31 23:23:50.9	183.940	-0.070	-0.200	1.660
2020/01/31 23:23:51.0	183.920	-0.050	-0.240	1.690
2020/01/31 23:23:51.1	183.900	-0.020	-0.270	1.720
2020/01/31 23:23:51.2	183.870	0.010	-0.310	1.740
2020/01/31 23:23:51.3	183.850	0.040	-0.340	1.770
2020/01/31 23:23:51.4	183.830	0.070	-0.380	1.790
2020/01/31 23:23:51.5	183.810	0.100	-0.410	1.810
2020/01/31 23:23:51.6	183.790	0.130	-0.440	1.830
2020/01/31 23:23:51.7	183.770	0.160	-0.470	1.840
2020/01/31 23:23:51.8	183.750	0.190	-0.500	1.850
2020/01/31 23:23:51.9	183.730	0.220	-0.520	1.860
2020/01/31 23:23:52.0	183.720	0.240	-0.550	1.870
2020/01/31 23:23:52.1	183.700	0.270	-0.560	1.870
2020/01/31 23:23:52.2	183.690	0.290	-0.580	1.870
2020/01/31 23:23:52.3	183.680	0.310	-0.590	1.860
2020/01/31 23:23:52.4	183.670	0.320	-0.600	1.850
2020/01/31 23:23:52.5	183.670	0.340	-0.610	1.840
2020/01/31 23:23:52.6	183.670	0.350	-0.610	1.820
2020/01/31 23:23:52.7	183.680	0.350	-0.610	1.800
2020/01/31 23:23:52.8	183.690	0.360	-0.600	1.770
2020/01/31 23:23:52.9	183.700	0.350	-0.590	1.750
2020/01/31 23:23:53.0	183.710	0.350	-0.580	1.720
2020/01/31 23:23:53.1	183.720	0.340	-0.570	1.690
2020/01/31 23:23:53.2	183.740	0.330	-0.550	1.660
2020/01/31 23:23:53.3	183.760	0.320	-0.520	1.630
2020/01/31 23:23:53.4	183.790	0.300	-0.500	1.600
2020/01/31 23:23:53.5	183.820	0.270	-0.470	1.570
2020/01/31 23:23:53.6	183.840	0.250	-0.440	1.550
2020/01/31 23:23:53.7	183.880	0.220	-0.400	1.520
2020/01/31 23:23:53.8	183.910	0.190	-0.370	1.490
2020/01/31 23:23:53.9	183.940	0.160	-0.330	1.470
2020/01/31 23:23:54.0	183.970	0.120	-0.300	1.450
2020/01/31 23:23:54.1	184.010	0.090	-0.260	1.430
2020/01/31 23:23:54.2	184.040	0.050	-0.220	1.410
2020/01/31 23:23:54.3	184.070	0.010	-0.190	1.390
2020/01/31 23:23:54.4	184.110	-0.030	-0.160	1.380
2020/01/31 23:23:54.5	184.140	-0.070	-0.120	1.360
2020/01/31 23:23:54.6	184.160	-0.110	-0.090	1.350
2020/01/31 23:23:54.7	184.190	-0.150	-0.070	1.340
2020/01/31 23:23:54.8	184.220	-0.190	-0.040	1.340
2020/01/31 23:23:54.9	184.240	-0.230	-0.030	1.330
2020/01/31 23:23:55.0	184.260	-0.260	-0.010	1.330
2020/01/31 23:23:55.1	184.290	-0.300	0.010	1.330
2020/01/31 23:23:55.2	184.310	-0.330	0.010	1.330
2020/01/31 23:23:55.3	184.330	-0.350	0.010	1.330
2020/01/31 23:23:55.4	184.340	-0.380	0.010	1.330
2020/01/31 23:23:55.5	184.350	-0.400	0.000	1.330
2020/01/31 23:23:55.6	184.360	-0.420	-0.010	1.330
2020/01/31 23:23:55.7	184.370	-0.430	-0.020	1.340
2020/01/31 23:23:55.8	184.380	-0.440	-0.040	1.340
2020/01/31 23:23:55.9	184.380	-0.450	-0.070	1.340
2020/01/31 23:23:56.0	184.380	-0.450	-0.100	1.350
2020/01/31 23:23:56.1	184.390	-0.450	-0.130	1.350
2020/01/31 23:23:56.2	184.390	-0.440	-0.170	1.360
2020/01/31 23:23:56.3	184.390	-0.430	-0.210	1.360
2020/01/31 23:23:56.4	184.380	-0.410	-0.250	1.370
2020/01/31 23:23:56.5	184.380	-0.400	-0.290	1.380
2020/01/31 23:23:56.6	184.370	-0.370	-0.330	1.380
2020/01/31 23:23:56.7	184.360	-0.350	-0.380	1.390
2020/01/31 23:23:56.8	184.350	-0.320	-0.420	1.390
2020/01/31 23:23:56.9	184.340	-0.290	-0.460	1.400
2020/01/31 23:23:57.0	184.330	-0.250	-0.510	1.410
2020/01/31 23:23:57.1	184.310	-0.220	-0.540	1.410
2020/01/31 23:23:57.2	184.300	-0.180	-0.580	1.420
2020/01/31 23:23:57.3	184.290	-0.140	-0.620	1.420
2020/01/31 23:23:57.4	184.270	-0.100	-0.650	1.430
2020/01/31 23:23:57.5	184.260	-0.060	-0.690	1.430
2020/01/31 23:23:57.6	184.250	-0.020	-0.720	1.440
2020/01/31 23:23:57.7	184.250	0.020	-0.740	1.440
2020/01/31 23:23:57.8	184.240	0.060	-0.760	1.430
2020/01/31 23:23:57.9	184.230	0.100	-0.780	1.430
2020/01/31 23:23:58.0	184.230	0.140	-0.790	1.420
2020/01/31 23:23:58.1	184.250	0.170	-0.800	1.410
2020/01/31 23:23:58.2	184.250	0.200	-0.800	1.400
2020/01/31 23:23:58.3	184.260	0.230	-0.800	1.380
2020/01/31 23:23:58.4	184.270	0.250	-0.790	1.360
2020/01/31 23:23:58.5	184.280	0.270	-0.770	1.340
2020/01/31 23:23:58.6	184.300	0.290	-0.760	1.320
2020/01/31 23:23:58.7	184.320	0.300	-0.730	1.290
2020/01/31 23:23:58.8	184.340	0.310	-0.700	1.270
2020/01/31 23:23:58.9	184.360	0.310	-0.670	1.240
2020/01/31 23:23:59.0	184.390	0.310	-0.630	1.220
2020/01/31 23:23:59.1	184.420	0.300	-0.590	1.200
2020/01/31 23:23:59.2	184.440	0.290	-0.550	1.180
2020/01/31 23:23:59.3	184.470	0.270	-0.500	1.160
2020/01/31 23:23:59.4	184.500	0.250	-0.450	1.140
2020/01/31 23:23:59.5	184.530	0.230	-0.390	1.120
2020/01/31 23:23:59.6	184.550	0.200	-0.340	1.110
2020/01/31 23:23:59.7	184.580	0.160	-0.280	1.100
2020/01/31 23:23:59.8	184.600	0.130	-0.220	1.100
2020/01/31 23:23:59.9	184.630	0.090	-0.160	1.100
2020/01/31 23:24:00.0	184.650	0.050	-0.100	1.100
2020/01/31 23:24:00.1	184.660	0.010	-0.040	1.110
2020/01/31 23:24:00.2	184.670	-0.040	0.010	1.120
2020/01/31 23:24:00.3	184.690	-0.080	0.070	1.130
2020/01/31 23:24:00.4	184.700	-0.130	0.120	1.140
2020/01/31 23:24:00.5	184.710	-0.170	0.170	1.160
2020/01/31 23:24:00.6	184.720	-0.210	0.220	1.190
2020/01/31 23:24:00.7	184.720	-0.260	0.270	1.210
2020/01/31 23:24:00.8	184.730	-0.300	0.310	1.240
2020/01/31 23:24:00.9	184.730	-0.340	0.350	1.260
2020/01/31 23:24:01.0	184.730	-0.370	0.380	1.290
2020/01/31 23:24:01.1	184.710	-0.410	0.410	1.320
2020/01/31 23:24:01.2	184.710	-0.440	0.440	1.350
2020/01/31 23:24:01.3	184.710	-0.460	0.470	1.380
2020/01/31 23:24:01.4	184.700	-0.480	0.490	1.410
2020/01/31 23:24:01.5	184.690	-0.500	0.510	1.430
2020/01/31 23:24:01.6	184.690	-0.520	0.520	1.450
2020/01/31 23:24:01.7	184.680	-0.530	0.530	1.470
2020/01/31 23:24:01.8	184.680	-0.530	0.540	1.490
2020/01/31 23:24:01.9	184.670	-0.540	0.550	1.510
2020/01/31 23:24:02.0	184.670	-0.530	0.550	1.520
2020/01/31 23:24:02.1	184.670	-0.530	0.550	1.530
2020/01/31 23:24:02.2	184.660	-0.520	0.540	1.540
2020/01/31 23:24:02.3	184.660	-0.500	0.530	1.540
2020/01/31 23:24:02.4	184.660	-0.480	0.520	1.540
2020/01/31 23:24:02.5	184.670	-0.460	0.510	1.540
2020/01/31 23:24:02.6	184.670	-0.430	0.490	1.530
2020/01/31 23:24:02.7	184.670	-0.400	0.470	1.520
2020/01/31 23:24:02.8	184.680	-0.370	0.440	1.510
2020/01/31 23:24:02.9	184.680	-0.330	0.410	1.490
2020/01/31 23:24:03.0	184.690	-0.290	0.380	1.480
2020/01/31 23:24:03.1	184.690	-0.250	0.340	1.460
2020/01/31 23:24:03.2	184.700	-0.210	0.300	1.450
2020/01/31 23:24:03.3	184.710	-0.160	0.260	1.430
2020/01/31 23:24:03.4	184.710	-0.120	0.220	1.410
2020/01/31 23:24:03.5	184.720	-0.070	0.170	1.400
2020/01/31 23:24:03.6	184.730	-0.020	0.120	1.380
2020/01/31 23:24:03.7	184.730	0.020	0.070	1.360
2020/01/31 23:24:03.8	184.740	0.070	0.020	1.350
2020/01/31 23:24:03.9	184.740	0.120	-0.040	1.330
2020/01/31 23:24:04.0	184.750	0.160	-0.100	1.320
2020/01/31 23:24:04.1	184.740	0.210	-0.150	1.300
2020/01/31 23:24:04.2	184.740	0.250	-0.200	1.290
2020/01/31 23:24:04.3	184.740	0.290	-0.260	1.280
2020/01/31 23:24:04.4	184.740	0.330	-0.320	1.260
2020/01/31 23:24:04.5	184.750	0.370	-0.380	1.250
2020/01/31 23:24:04.6	184.750	0.410	-0.440	1.240
2020/01/31 23:24:04.7	184.740	0.440	-0.490	1.230
2020/01/31 23:24:04.8	184.740	0.470	-0.540	1.230
2020/01/31 23:24:04.9	184.740	0.500	-0.590	1.220
2020/01/31 23:24:05.0	184.730	0.530	-0.640	1.210
2020/01/31 23:24:05.1	184.710	0.550	-0.690	1.200
2020/01/31 23:24:05.2	184.710	0.570	-0.730	1.200
2020/01/31 23:24:05.3	184.700	0.580	-0.770	1.190
2020/01/31 23:24:05.4	184.690	0.600	-0.800	1.190
2020/01/31 23:24:05.5	184.680	0.610	-0.840	1.180
2020/01/31 23:24:05.6	184.660	0.610	-0.860	1.180
2020/01/31 23:24:05.7	184.650	0.620	-0.890	1.180
2020/01/31 23:24:05.8	184.630	0.620	-0.910	1.180
2020/01/31 23:24:05.9	184.620	0.620	-0.920	1.180
2020/01/31 23:24:06.0	184.600	0.610	-0.940	1.180
2020/01/31 23:24:06.1	184.580	0.600	-0.940	1.180
2020/01/31 23:24:06.2	184.560	0.600	-0.940	1.180
2020/01/31 23:24:06.3	184.540	0.580	-0.940	1.190
2020/01/31 23:24:06.4	184.520	0.570	-0.940	1.200
2020/01/31 23:24:06.5	184.500	0.560	-0.930	1.200
2020/01/31 23:24:06.6	184.480	0.540	-0.910	1.210
2020/01/31 23:24:06.7	184.460	0.520	-0.900	1.220
2020/01/31 23:24:06.8	184.440	0.500	-0.870	1.220
2020/01/31 23:24:06.9	184.420	0.480	-0.850	1.230
2020/01/31 23:24:07.0	184.400	0.460	-0.820	1.240
2020/01/31 23:24:07.1	184.380	0.430	-0.790	1.240
2020/01/31 23:24:07.2	184.370	0.410	-0.750	1.250
2020/01/31 23:24:07.3	184.360	0.380	-0.710	1.250
2020/01/31 23:24:07.4	184.350	0.360	-0.660	1.260
2020/01/31 23:24:07.5	184.340	0.330	-0.610	1.260
2020/01/31 23:24:07.6	184.330	0.300	-0.560	1.260
2020/01/31 23:24:07.7	184.330	0.270	-0.510	1.260
2020/01/31 23:24:07.8	184.330	0.240	-0.460	1.260
2020/01/31 23:24:07.9	184.330	0.220	-0.400	1.260
2020/01/31 23:24:08.0	184.330	0.190	-0.350	1.260
2020/01/31 23:24:08.1	184.330	0.160	-0.290	1.250
2020/01/31 23:24:08.2	184.340	0.130	-0.230	1.250
2020/01/31 23:24:08.3	184.340	0.100	-0.170	1.240
2020/01/31 23:24:08.4	184.350	0.070	-0.120	1.230
2020/01/31 23:24:08.5	184.360	0.040	-0.070	1.230
2020/01/31 23:24:08.6	184.370	0.010	-0.010	1.220
2020/01/31 23:24:08.7	184.390	-0.020	0.030	1.200
2020/01/31 23:24:08.8	184.400	-0.050	0.080	1.190
2020/01/31 23:24:08.9	184.420	-0.080	0.120	1.180
2020/01/31 23:24:09.0	184.440	-0.110	0.160	1.160
2020/01/31 23:24:09.1	184.460	-0.140	0.200	1.150
2020/01/31 23:24:09.2	184.480	-0.160	0.230	1.130
2020/01/31 23:24:09.3	184.500	-0.190	0.250	1.120
2020/01/31 23:24:09.4	184.520	-0.210	0.270	1.100
2020/01/31 23:24:09.5	184.550	-0.230	0.280	1.080
2020/01/31 23:24:09.6	184.570	-0.250	0.290	1.060
2020/01/31 23:24:09.7	184.600	-0.270	0.290	1.040
2020/01/31 23:24:09.8	184.630	-0.280	0.280	1.020
2020/01/31 23:24:09.9	184.650	-0.290	0.270	1.000
2020/01/31 23:24:10.0	184.680	-0.310	0.250	0.980
2020/01/31 23:24:10.1	184.700	-0.320	0.230	0.960
2020/01/31 23:24:10.2	184.730	-0.320	0.200	0.940
2020/01/31 23:24:10.3	184.750	-0.330	0.160	0.920
2020/01/31 23:24:10.4	184.770	-0.330	0.130	0.910
2020/01/31 23:24:10.5	184.800	-0.330	0.080	0.890
2020/01/31 23:24:10.6	184.820	-0.330	0.040	0.880
2020/01/31 23:24:10.7	184.840	-0.330	-0.010	0.880
2020/01/31 23:24:10.8	184.860	-0.320	-0.060	0.870
2020/01/31 23:24:10.9	184.870	-0.320	-0.120	0.870
2020/01/31 23:24:11.0	184.890	-0.310	-0.170	0.870
2020/01/31 23:24:11.1	184.900	-0.300	-0.220	0.880
2020/01/31 23:24:11.2	184.910	-0.290	-0.280	0.890
2020/01/31 23:24:11.3	184.920	-0.280	-0.340	0.910
2020/01/31 23:24:11.4	184.920	-0.260	-0.400	0.930
2020/01/31 23:24:11.5	184.920	-0.250	-0.450	0.950
2020/01/31 23:24:11.6	184.910	-0.230	-0.510	0.980
2020/01/31 23:24:11.7	184.910	-0.220	-0.560	1.010
2020/01/31 23:24:11.8	184.900	-0.200	-0.610	1.050
2020/01/31 23:24:11.9	184.880	-0.180	-0.660	1.090
2020/01/31 23:24:12.0	184.870	-0.170	-0.710	1.140
2020/01/31 23:24:12.1	184.860	-0.150	-0.750	1.180
2020/01/31 23:24:12.2	184.830	-0.130	-0.790	1.230
2020/01/31 23:24:12.3	184.810	-0.110	-0.830	1.280
2020/01/31 23:24:12.4	184.790	-0.090	-0.860	1.330
2020/01/31 23:24:12.5	184.760	-0.070	-0.890	1.380
2020/01/31 23:24:12.6	184.740	-0.060	-0.920	1.430
2020/01/31 23:24:12.7	184.710	-0.040	-0.930	1.480
2020/01/31 23:24:12.8	184.680	-0.020	-0.950	1.530
2020/01/31 23:24:12.9	184.650	-0.000	-0.960	1.580
2020/01/31 23:24:13.0	184.620	0.010	-0.960	1.620
2020/01/31 23:24:13.1	184.610	0.030	-0.960	1.670
2020/01/31 23:24:13.2	184.580	0.040	-0.950	1.700
2020/01/31 23:24:13.3	184.550	0.060	-0.930	1.740
2020/01/31 23:24:13.4	184.530	0.070	-0.910	1.770
2020/01/31 23:24:13.5	184.500	0.080	-0.890	1.800
2020/01/31 23:24:13.6	184.480	0.090	-0.860	1.820
2020/01/31 23:24:13.7	184.450	0.100	-0.820	1.840
2020/01/31 23:24:13.8	184.430	0.110	-0.780	1.850
2020/01/31 23:24:13.9	184.410	0.120	-0.730	1.860
2020/01/31 23:24:14.0	184.400	0.130	-0.680	1.860
2020/01/31 23:24:14.1	184.390	0.130	-0.630	1.860
2020/01/31 23:24:14.2	184.380	0.140	-0.570	1.860
2020/01/31 23:24:14.3	184.370	0.140	-0.510	1.850
2020/01/31 23:24:14.4	184.360	0.150	-0.440	1.840
2020/01/31 23:24:14.5	184.360	0.150	-0.380	1.820
2020/01/31 23:24:14.6	184.350	0.150	-0.310	1.810
2020/01/31 23:24:14.7	184.360	0.140	-0.240	1.790
2020/01/31 23:24:14.8	184.360	0.140	-0.170	1.760
2020/01/31 23:24:14.9	184.370	0.140	-0.100	1.740
2020/01/31 23:24:15.0	184.380	0.130	-0.020	1.710
2020/01/31 23:24:15.1	184.370	0.120	0.040	1.680
2020/01/31 23:24:15.2	184.390	0.110	0.120	1.650
2020/01/31 23:24:15.3	184.410	0.100	0.190	1.620
2020/01/31 23:24:15.4	184.430	0.090	0.260	1.590
2020/01/31 23:24:15.5	184.460	0.080	0.330	1.550
2020/01/31 23:24:15.6	184.480	0.060	0.400	1.520
2020/01/31 23:24:15.7	184.510	0.050	0.460	1.480
2020/01/31 23:24:15.8	184.540	0.030	0.520	1.450
2020/01/31 23:24:15.9	184.570	0.010	0.580	1.410
2020/01/31 23:24:16.0	184.610	-0.010	0.630	1.380
2020/01/31 23:24:16.1	184.640	-0.030	0.670	1.340
2020/01/31 23:24:16.2	184.670	-0.050	0.710	1.300
2020/01/31 23:24:16.3	184.700	-0.070	0.750	1.270
2020/01/31 23:24:16.4	184.740	-0.090	0.770	1.230
2020/01/31 23:24:16.5	184.770	-0.110	0.790	1.200
2020/01/31 23:24:16.6	184.800	-0.120	0.800	1.170
2020/01/31 23:24:16.7	184.830	-0.140	0.800	1.140
2020/01/31 23:24:16.8	184.860	-0.160	0.790	1.110
2020/01/31 23:24:16.9	184.880	-0.170	0.770	1.090
2020/01/31 23:24:17.0	184.900	-0.180	0.740	1.060
2020/01/31 23:24:17.1	184.920	-0.190	0.710	1.040
2020/01/31 23:24:17.2	184.930	-0.200	0.660	1.020
2020/01/31 23:24:17.3	184.950	-0.200	0.610	1.010
2020/01/31 23:24:17.4	184.960	-0.200	0.550	1.000
2020/01/31 23:24:17.5	184.970	-0.200	0.480	0.990
2020/01/31 23:24:17.6	184.970	-0.190	0.410	0.980
2020/01/31 23:24:17.7	184.980	-0.180	0.330	0.970
2020/01/31 23:24:17.8	184.980	-0.170	0.240	0.970
2020/01/31 23:24:17.9	184.980	-0.160	0.150	0.980
2020/01/31 23:24:18.0	184.970	-0.140	0.060	0.980
2020/01/31 23:24:18.1	184.980	-0.120	-0.030	0.990
2020/01/31 23:24:18.2	184.980	-0.100	-0.120	1.000
2020/01/31 23:24:18.3	184.970	-0.070	-0.220	1.010
2020/01/31 23:24:18.4	184.960	-0.040	-0.320	1.020
2020/01/31 23:24:18.5	184.960	-0.020	-0.420	1.040
2020/01/31 23:24:18.6	184.950	0.010	-0.510	1.050
2020/01/31 23:24:18.7	184.940	0.040	-0.600	1.070
2020/01/31 23:24:18.8	184.930	0.080	-0.690	1.090
2020/01/31 23:24:18.9	184.930	0.110	-0.770	1.100
2020/01/31 23:24:19.0	184.920	0.140	-0.850	1.120
2020/01/31 23:24:19.1	184.930	0.170	-0.920	1.140
2020/01/31 23:24:19.2	184.920	0.200	-0.990	1.160
2020/01/31 23:24:19.3	184.920	0.230	-1.050	1.180
2020/01/31 23:24:19.4	184.920	0.260	-1.100	1.200
2020/01/31 23:24:19.5	184.910	0.280	-1.150	1.210
2020/01/31 23:24:19.6	184.910	0.310	-1.190	1.230
2020/01/31 23:24:19.7	184.910	0.330	-1.220	1.240
2020/01/31 23:24:19.8	184.920	0.340	-1.240	1.260
2020/01/31 23:24:19.9	184.920	0.360	-1.250	1.270
2020/01/31 23:24:20.0	184.920	0.370	-1.250	1.280
2020/01/31 23:24:20.1	184.910	0.380	-1.250	1.290
2020/01/31 23:24:20.2	184.920	0.380	-1.240	1.300
2020/01/31 23:24:20.3	184.930	0.380	-1.210	1.310
2020/01/31 23:24:20.4	184.930	0.370	-1.190	1.320
2020/01/31 23:24:20.5	184.940	0.370	-1.150	1.320
2020/01/31 23:24:20.6	184.950	0.350	-1.110	1.330
2020/01/31 23:24:20.7	184.960	0.340	-1.060	1.330
2020/01/31 23:24:20.8	184.970	0.320	-1.000	1.330
2020/01/31 23:24:20.9	184.990	0.290	-0.940	1.330
2020/01/31 23:24:21.0	185.000	0.270	-0.880	1.340
2020/01/31 23:24:21.1	185.010	0.240	-0.810	1.330
2020/01/31 23:24:21.2	185.020	0.200	-0.740	1.330
2020/01/31 23:24:21.3	185.040	0.160	-0.660	1.330
2020/01/31 23:24:21.4	185.060	0.120	-0.580	1.330
2020/01/31 23:24:21.5	185.080	0.080	-0.510	1.330
2020/01/31 23:24:21.6	185.100	0.040	-0.430	1.320
2020/01/31 23:24:21.7	185.120	-0.010	-0.350	1.320
2020/01/31 23:24:21.8	185.150	-0.050	-0.270	1.320
2020/01/31 23:24:21.9	185.170	-0.100	-0.190	1.310
2020/01/31 23:24:22.0	185.200	-0.150	-0.120	1.300
2020/01/31 23:24:22.1	185.230	-0.200	-0.050	1.300
2020/01/31 23:24:22.2	185.260	-0.240	0.020	1.290
2020/01/31 23:24:22.3	185.280	-0.290	0.080	1.290
2020/01/31 23:24:22.4	185.310	-0.330	0.140	1.280
2020/01/31 23:24:22.5	185.330	-0.370	0.200	1.270
2020/01/31 23:24:22.6	185.360	-0.410	0.240	1.260
2020/01/31 23:24:22.7	185.380	-0.450	0.280	1.260
2020/01/31 23:24:22.8	185.400	-0.480	0.310	1.250
2020/01/31 23:24:22.9	185.410	-0.510	0.340	1.250
2020/01/31 23:24:23.0	185.430	-0.540	0.350	1.250
2020/01/31 23:24:23.1	185.420	-0.560	0.360	1.250
2020/01/31 23:24:23.2	185.430	-0.570	0.360	1.250
2020/01/31 23:24:23.3	185.440	-0.580	0.350	1.250
2020/01/31 23:24:23.4	185.440	-0.590	0.340	1.250
2020/01/31 23:24:23.5	185.430	-0.590	0.310	1.260
2020/01/31 23:24:23.6	185.430	-0.580	0.280	1.260
2020/01/31 23:24:23.7	185.420	-0.570	0.240	1.270
2020/01/31 23:24:23.8	185.400	-0.550	0.200	1.290
2020/01/31 23:24:23.9	185.380	-0.530	0.150	1.300
2020/01/31 23:24:24.0	185.360	-0.500	0.090	1.310
2020/01/31 23:24:24.1	185.330	-0.470	0.040	1.330
2020/01/31 23:24:24.2	185.310	-0.430	-0.020	1.350
2020/01/31 23:24:24.3	185.280	-0.390	-0.090	1.360
2020/01/31 23:24:24.4	185.240	-0.340	-0.150	1.380
2020/01/31 23:24:24.5	185.210	-0.300	-0.210	1.400
2020/01/31 23:24:24.6	185.180	-0.250	-0.270	1.420
2020/01/31 23:24:24.7	185.140	-0.200	-0.330	1.440
2020/01/31 23:24:24.8	185.110	-0.140	-0.380	1.450
2020/01/31 23:24:24.9	185.080	-0.090	-0.430	1.470
2020/01/31 23:24:25.0	185.050	-0.030	-0.470	1.480
2020/01/31 23:24:25.1	185.030	0.020	-0.510	1.490
2020/01/31 23:24:25.2	185.000	0.070	-0.530	1.490
2020/01/31 23:24:25.3	184.980	0.120	-0.550	1.500
2020/01/31 23:24:25.4	184.960	0.170	-0.550	1.490
2020/01/31 23:24:25.5	184.940	0.210	-0.550	1.490
2020/01/31 23:24:25.6	184.930	0.260	-0.540	1.480
2020/01/31 23:24:25.7	184.930	0.290	-0.520	1.470
2020/01/31 23:24:25.8	184.930	0.330	-0.480	1.460
2020/01/31 23:24:25.9	184.930	0.350	-0.440	1.440
2020/01/31 23:24:26.0	184.940	0.370	-0.390	1.410
2020/01/31 23:24:26.1	184.960	0.390	-0.330	1.390
2020/01/31 23:24:26.2	184.980	0.400	-0.270	1.360
2020/01/31 23:24:26.3	185.000	0.410	-0.200	1.330
2020/01/31 23:24:26.4	185.030	0.410	-0.130	1.300
2020/01/31 23:24:26.5	185.060	0.400	-0.060	1.270
2020/01/31 23:24:26.6	185.090	0.390	0.020	1.230
2020/01/31 23:24:26.7	185.120	0.380	0.100	1.200
2020/01/31 23:24:26.8	185.160	0.360	0.170	1.160
2020/01/31 23:24:26.9	185.200	0.330	0.250	1.130
2020/01/31 23:24:27.0	185.240	0.310	0.320	1.090
2020/01/31 23:24:27.1	185.290	0.270	0.380	1.050
2020/01/31 23:24:27.2	185.330	0.240	0.440	1.020
2020/01/31 23:24:27.3	185.370	0.200	0.490	0.990
2020/01/31 23:24:27.4	185.400	0.160	0.540	0.970
2020/01/31 23:24:27.5	185.440	0.120	0.570	0.940
2020/01/31 23:24:27.6	185.470	0.080	0.600	0.920
2020/01/31 23:24:27.7	185.500	0.050	0.610	0.910
2020/01/31 23:24:27.8	185.520	0.010	0.610	0.900
2020/01/31 23:24:27.9	185.540	-0.030	0.600	0.890
2020/01/31 23:24:28.0	185.560	-0.060	0.580	0.880
2020/01/31 23:24:28.1	185.570	-0.100	0.550	0.890
2020/01/31 23:24:28.2	185.580	-0.120	0.500	0.890
2020/01/31 23:24:28.3	185.580	-0.150	0.440	0.900
2020/01/31 23:24:28.4	185.580	-0.170	0.370	0.910
2020/01/31 23:24:28.5	185.580	-0.190	0.290	0.920
2020/01/31 23:24:28.6	185.570	-0.200	0.200	0.940
2020/01/31 23:24:28.7	185.560	-0.200	0.100	0.960
2020/01/31 23:24:28.8	185.540	-0.200	-0.010	0.980
2020/01/31 23:24:28.9	185.520	-0.200	-0.120	1.010
2020/01/31 23:24:29.0	185.500	-0.190	-0.240	1.040
2020/01/31 23:24:29.1	185.490	-0.180	-0.360	1.070
2020/01/31 23:24:29.2	185.460	-0.160	-0.480	1.110
2020/01/31 23:24:29.3	185.430	-0.140	-0.600	1.140
2020/01/31 23:24:29.4	185.390	-0.110	-0.720	1.180
2020/01/31 23:24:29.5	185.360	-0.080	-0.840	1.220
2020/01/31 23:24:29.6	185.320	-0.050	-0.950	1.260
2020/01/31 23:24:29.7	185.280	-0.010	-1.060	1.300
2020/01/31 23:24:29.8	185.250	0.020	-1.160	1.340
2020/01/31 23:24:29.9	185.210	0.060	-1.250	1.380
2020/01/31 23:24:30.0	185.180	0.100	-1.330	1.410
2020/01/31 23:24:30.1	185.150	0.140	-1.410	1.450
2020/01/31 23:24:30.2	185.120	0.180	-1.460	1.480
2020/01/31 23:24:30.3	185.100	0.210	-1.510	1.510
2020/01/31 23:24:30.4	185.070	0.250	-1.540	1.530
2020/01/31 23:24:30.5	185.050	0.280	-1.550	1.550
2020/01/31 23:24:30.6	185.040	0.310	-1.550	1.560
2020/01/31 23:24:30.7	185.030	0.340	-1.540	1.570
2020/01/31 23:24:30.8	185.030	0.360	-1.510	1.580
2020/01/31 23:24:30.9	185.030	0.380	-1.470	1.570
2020/01/31 23:24:31.0	185.040	0.390	-1.410	1.560
2020/01/31 23:24:31.1	185.060	0.400	-1.340	1.560
2020/01/31 23:24:31.2	185.080	0.400	-1.250	1.540
2020/01/31 23:24:31.3	185.100	0.400	-1.150	1.510
2020/01/31 23:24:31.4	185.130	0.390	-1.050	1.490
2020/01/31 23:24:31.5	185.160	0.380	-0.930	1.460
2020/01/31 23:24:31.6	185.200	0.360	-0.810	1.420
2020/01/31 23:24:31.7	185.240	0.340	-0.680	1.390
2020/01/31 23:24:31.8	185.280	0.310	-0.550	1.350
2020/01/31 23:24:31.9	185.320	0.280	-0.410	1.310
2020/01/31 23:24:32.0	185.370	0.250	-0.270	1.260
2020/01/31 23:24:32.1	185.410	0.210	-0.130	1.210
2020/01/31 23:24:32.2	185.460	0.170	0.000	1.170
2020/01/31 23:24:32.3	185.520	0.120	0.130	1.120
2020/01/31 23:24:32.4	185.570	0.080	0.260	1.080
2020/01/31 23:24:32.5	185.620	0.030	0.380	1.030
2020/01/31 23:24:32.6	185.670	-0.020	0.490	0.990
2020/01/31 23:24:32.7	185.720	-0.060	0.590	0.950
2020/01/31 23:24:32.8	185.770	-0.110	0.680	0.910
2020/01/31 23:24:32.9	185.810	-0.150	0.760	0.880
2020/01/31 23:24:33.0	185.850	-0.190	0.820	0.840
2020/01/31 23:24:33.1	185.880	-0.220	0.870	0.820
2020/01/31 23:24:33.2	185.910	-0.250	0.900	0.800
2020/01/31 23:24:33.3	185.940	-0.280	0.920	0.780
2020/01/31 23:24:33.4	185.960	-0.300	0.920	0.760
2020/01/31 23:24:33.5	185.980	-0.310	0.900	0.760
2020/01/31 23:24:33.6	185.990	-0.320	0.870	0.750
2020/01/31 23:24:33.7	185.990	-0.320	0.820	0.750
2020/01/31 23:24:33.8	186.000	-0.310	0.760	0.760
2020/01/31 23:24:33.9	185.990	-0.300	0.690	0.770
2020/01/31 23:24:34.0	185.990	-0.280	0.600	0.780
2020/01/31 23:24:34.1	185.980	-0.260	0.500	0.800
2020/01/31 23:24:34.2	185.970	-0.230	0.390	0.820
2020/01/31 23:24:34.3	185.950	-0.200	0.280	0.840
2020/01/31 23:24:34.4	185.930	-0.170	0.150	0.860
2020/01/31 23:24:34.5	185.910	-0.130	0.030	0.890
2020/01/31 23:24:34.6	185.890	-0.090	-0.100	0.930
2020/01/31 23:24:34.7	185.870	-0.040	-0.230	0.960
2020/01/31 23:24:34.8	185.840	0.000	-0.360	1.000
2020/01/31 23:24:34.9	185.810	0.050	-0.480	1.040
2020/01/31 23:24:35.0	185.780	0.090	-0.610	1.090
2020/01/31 23:24:35.1	185.760	0.140	-0.720	1.140
2020/01/31 23:24:35.2	185.730	0.180	-0.830	1.190
2020/01/31 23:24:35.3	185.700	0.220	-0.940	1.250
2020/01/31 23:24:35.4	185.670	0.260	-1.030	1.300
2020/01/31 23:24:35.5	185.640	0.290	-1.120	1.360
2020/01/31 23:24:35.6	185.610	0.320	-1.200	1.430
2020/01/31 23:24:35.7	185.580	0.340	-1.260	1.490
2020/01/31 23:24:35.8	185.550	0.360	-1.320	1.550
2020/01/31 23:24:35.9	185.530	0.380	-1.360	1.610
2020/01/31 23:24:36.0	185.500	0.390	-1.390	1.680
2020/01/31 23:24:36.1	185.470	0.390	-1.410	1.740
2020/01/31 23:24:36.2	185.450	0.390	-1.410	1.800
2020/01/31 23:24:36.3	185.440	0.380	-1.400	1.850
2020/01/31 23:24:36.4	185.420	0.370	-1.380	1.910
2020/01/31 23:24:36.5	185.410	0.350	-1.340	1.970
2020/01/31 23:24:36.6	185.400	0.320	-1.300	2.020
2020/01/31 23:24:36.7	185.390	0.290	-1.240	2.060
2020/01/31 23:24:36.8	185.380	0.250	-1.170	2.110
2020/01/31 23:24:36.9	185.380	0.210	-1.090	2.150
2020/01/31 23:24:37.0	185.380	0.160	-1.000	2.190
2020/01/31 23:24:37.1	185.370	0.110	-0.900	2.220
2020/01/31 23:24:37.2	185.380	0.050	-0.800	2.250
2020/01/31 23:24:37.3	185.380	-0.000	-0.690	2.270
2020/01/31 23:24:37.4	185.390	-0.060	-0.570	2.290
2020/01/31 23:24:37.5	185.410	-0.130	-0.450	2.310
2020/01/31 23:24:37.6	185.420	-0.190	-0.320	2.320
2020/01/31 23:24:37.7	185.440	-0.250	-0.200	2.330
2020/01/31 23:24:37.8	185.450	-0.320	-0.070	2.330
2020/01/31 23:24:37.9	185.470	-0.380	0.060	2.330
2020/01/31 23:24:38.0	185.490	-0.450	0.180	2.320
2020/01/31 23:24:38.1	185.510	-0.510	0.310	2.310
2020/01/31 23:24:38.2	185.530	-0.570	0.430	2.300
2020/01/31 23:24:38.3	185.550	-0.620	0.540	2.290
2020/01/31 23:24:38.4	185.570	-0.670	0.650	2.270
2020/01/31 23:24:38.5	185.600	-0.720	0.750	2.250
2020/01/31 23:24:38.6	185.620	-0.760	0.840	2.230
2020/01/31 23:24:38.7	185.640	-0.800	0.930	2.200
2020/01/31 23:24:38.8	185.660	-0.830	1.000	2.170
2020/01/31 23:24:38.9	185.680	-0.850	1.070	2.140
2020/01/31 23:24:39.0	185.700	-0.870	1.120	2.110
2020/01/31 23:24:39.1	185.710	-0.870	1.160	2.080
2020/01/31 23:24:39.2	185.720	-0.870	1.180	2.040
2020/01/31 23:24:39.3	185.730	-0.860	1.200	2.010
2020/01/31 23:24:39.4	185.750	-0.850	1.200	1.970
2020/01/31 23:24:39.5	185.760	-0.820	1.190	1.930
2020/01/31 23:24:39.6	185.760	-0.790	1.170	1.890
2020/01/31 23:24:39.7	185.770	-0.750	1.130	1.840
2020/01/31 23:24:39.8	185.770	-0.700	1.090	1.800
2020/01/31 23:24:39.9	185.770	-0.640	1.030	1.760
2020/01/31 23:24:40.0	185.770	-0.580	0.960	1.710
2020/01/31 23:24:40.1	185.770	-0.510	0.880	1.660
2020/01/31 23:24:40.2	185.770	-0.440	0.790	1.620
2020/01/31 23:24:40.3	185.760	-0.360	0.690	1.570
2020/01/31 23:24:40.4	185.760	-0.280	0.590	1.520
2020/01/31 23:24:40.5	185.750	-0.190	0.480	1.470
2020/01/31 23:24:40.6	185.740	-0.100	0.370	1.420
2020/01/31 23:24:40.7	185.730	-0.010	0.250	1.370
2020/01/31 23:24:40.8	185.720	0.080	0.140	1.320
2020/01/31 23:24:40.9	185.710	0.170	0.020	1.280
2020/01/31 23:24:41.0	185.710	0.260	-0.100	1.230
2020/01/31 23:24:41.1	185.710	0.350	-0.210	1.180
2020/01/31 23:24:41.2	185.710	0.430	-0.320	1.130
2020/01/31 23:24:41.3	185.700	0.510	-0.430	1.090
2020/01/31 23:24:41.4	185.700	0.590	-0.530	1.050
2020/01/31 23:24:41.5	185.700	0.660	-0.620	1.010
2020/01/31 23:24:41.6	185.700	0.720	-0.710	0.970
2020/01/31 23:24:41.7	185.700	0.780	-0.780	0.930
2020/01/31 23:24:41.8	185.710	0.830	-0.850	0.890
2020/01/31 23:24:41.9	185.720	0.870	-0.920	0.860
2020/01/31 23:24:42.0	185.730	0.910	-0.970	0.830
2020/01/31 23:24:42.1	185.740	0.940	-1.010	0.800
2020/01/31 23:24:42.2	185.750	0.950	-1.040	0.780
2020/01/31 23:24:42.3	185.770	0.960	-1.060	0.760
2020/01/31 23:24:42.4	185.790	0.970	-1.080	0.740
2020/01/31 23:24:42.5	185.810	0.960	-1.080	0.720
2020/01/31 23:24:42.6	185.830	0.950	-1.080	0.710
2020/01/31 23:24:42.7	185.850	0.920	-1.060	0.700
2020/01/31 23:24:42.8	185.880	0.890	-1.040	0.690
2020/01/31 23:24:42.9	185.900	0.860	-1.020	0.690
2020/01/31 23:24:43.0	185.930	0.810	-0.980	0.690
2020/01/31 23:24:43.1	185.950	0.770	-0.940	0.680
2020/01/31 23:24:43.2	185.980	0.710	-0.900	0.690
2020/01/31 23:24:43.3	186.000	0.650	-0.850	0.690
2020/01/31 23:24:43.4	186.030	0.590	-0.790	0.700
2020/01/31 23:24:43.5	186.050	0.530	-0.740	0.710
2020/01/31 23:24:43.6	186.080	0.460	-0.680	0.720
2020/01/31 23:24:43.7	186.100	0.390	-0.620	0.740
2020/01/31 23:24:43.8	186.120	0.320	-0.570	0.760
2020/01/31 23:24:43.9	186.140	0.250	-0.510	0.780
2020/01/31 23:24:44.0	186.160	0.180	-0.460	0.810
2020/01/31 23:24:44.1	186.170	0.110	-0.410	0.840
2020/01/31 23:24:44.2	186.190	0.050	-0.360	0.870
2020/01/31 23:24:44.3	186.190	-0.020	-0.320	0.910
2020/01/31 23:24:44.4	186.200	-0.080	-0.280	0.950
2020/01/31 23:24:44.5	186.200	-0.140	-0.250	1.000
2020/01/31 23:24:44.6	186.200	-0.190	-0.230	1.050
2020/01/31 23:24:44.7	186.200	-0.240	-0.210	1.100
2020/01/31 23:24:44.8	186.190	-0.290	-0.200	1.150
2020/01/31 23:24:44.9	186.180	-0.330	-0.200	1.210
2020/01/31 23:24:45.0	186.160	-0.360	-0.210	1.270
2020/01/31 23:24:45.1	186.140	-0.390	-0.220	1.330
2020/01/31 23:24:45.2	186.120	-0.420	-0.240	1.400
2020/01/31 23:24:45.3	186.090	-0.440	-0.260	1.460
2020/01/31 23:24:45.4	186.070	-0.450	-0.300	1.520
2020/01/31 23:24:45.5	186.040	-0.460	-0.340	1.580
2020/01/31 23:24:45.6	186.010	-0.460	-0.380	1.650
2020/01/31 23:24:45.7	185.980	-0.450	-0.430	1.710
2020/01/31 23:24:45.8	185.950	-0.450	-0.480	1.770
2020/01/31 23:24:45.9	185.920	-0.430	-0.540	1.820
2020/01/31 23:24:46.0	185.880	-0.420	-0.600	1.880
2020/01/31 23:24:46.1	185.850	-0.390	-0.660	1.940
2020/01/31 23:24:46.2	185.820	-0.370	-0.720	1.990
2020/01/31 23:24:46.3	185.780	-0.340	-0.780	2.040
2020/01/31 23:24:46.4	185.740	-0.310	-0.840	2.080
2020/01/31 23:24:46.5	185.710	-0.280	-0.890	2.130
2020/01/31 23:24:46.6	185.670	-0.240	-0.950	2.170
2020/01/31 23:24:46.7	185.630	-0.210	-0.990	2.210
2020/01/31 23:24:46.8	185.600	-0.170	-1.040	2.250
2020/01/31 23:24:46.9	185.560	-0.140	-1.070	2.280
2020/01/31 23:24:47.0	185.530	-0.100	-1.100	2.310
2020/01/31 23:24:47.1	185.500	-0.070	-1.120	2.340
2020/01/31 23:24:47.2	185.470	-0.040	-1.130	2.360
2020/01/31 23:24:47.3	185.440	-0.010	-1.130	2.380
2020/01/31 23:24:47.4	185.410	0.020	-1.130	2.400
2020/01/31 23:24:47.5	185.390	0.050	-1.110	2.400
2020/01/31 23:24:47.6	185.380	0.070	-1.080	2.410
2020/01/31 23:24:47.7	185.360	0.080	-1.040	2.410
2020/01/31 23:24:47.8	185.360	0.100	-0.990	2.400
2020/01/31 23:24:47.9	185.350	0.100	-0.930	2.380
2020/01/31 23:24:48.0	185.360	0.110	-0.860	2.360
2020/01/31 23:24:48.1	185.380	0.110	-0.780	2.340
2020/01/31 23:24:48.2	185.390	0.100	-0.700	2.310
2020/01/31 23:24:48.3	185.410	0.090	-0.600	2.270
2020/01/31 23:24:48.4	185.440	0.070	-0.490	2.230
2020/01/31 23:24:48.5	185.470	0.050	-0.380	2.190
2020/01/31 23:24:48.6	185.500	0.030	-0.260	2.140
2020/01/31 23:24:48.7	185.540	-0.000	-0.140	2.090
2020/01/31 23:24:48.8	185.590	-0.040	-0.020	2.030
2020/01/31 23:24:48.9	185.640	-0.080	0.110	1.970
2020/01/31 23:24:49.0	185.690	-0.120	0.240	1.910
2020/01/31 23:24:49.1	185.740	-0.160	0.370	1.840
2020/01/31 23:24:49.2	185.790	-0.210	0.490	1.780
2020/01/31 23:24:49.3	185.850	-0.260	0.610	1.720
2020/01/31 23:24:49.4	185.900	-0.300	0.730	1.650
2020/01/31 23:24:49.5	185.960	-0.350	0.840	1.590
2020/01/31 23:24:49.6	186.010	-0.400	0.940	1.530
2020/01/31 23:24:49.7	186.070	-0.450	1.030	1.480
2020/01/31 23:24:49.8	186.120	-0.500	1.120	1.420
2020/01/31 23:24:49.9	186.160	-0.540	1.190	1.370
2020/01/31 23:24:50.0	186.210	-0.580	1.250	1.330
2020/01/31 23:24:50.1	186.250	-0.620	1.300	1.290
2020/01/31 23:24:50.2	186.280	-0.650	1.330	1.250
2020/01/31 23:24:50.3	186.310	-0.670	1.350	1.220
2020/01/31 23:24:50.4	186.340	-0.690	1.360	1.190
2020/01/31 23:24:50.5	186.350	-0.710	1.350	1.170
2020/01/31 23:24:50.6	186.370	-0.710	1.330	1.160
2020/01/31 23:24:50.7	186.370	-0.710	1.300	1.150
2020/01/31 23:24:50.8	186.370	-0.700	1.240	1.140
2020/01/31 23:24:50.9	186.370	-0.690	1.180	1.140
2020/01/31 23:24:51.0	186.350	-0.660	1.100	1.150
2020/01/31 23:24:51.1	186.320	-0.630	1.010	1.160
2020/01/31 23:24:51.2	186.300	-0.590	0.910	1.170
2020/01/31 23:24:51.3	186.270	-0.540	0.800	1.180
2020/01/31 23:24:51.4	186.240	-0.490	0.680	1.190
2020/01/31 23:24:51.5	186.200	-0.420	0.560	1.210
2020/01/31 23:24:51.6	186.150	-0.360	0.430	1.230
2020/01/31 23:24:51.7	186.110	-0.290	0.300	1.250
2020/01/31 23:24:51.8	186.060	-0.210	0.160	1.270
2020/01/31 23:24:51.9	186.010	-0.130	0.030	1.290
2020/01/31 23:24:52.0	185.960	-0.050	-0.110	1.310
2020/01/31 23:24:52.1	185.900	0.030	-0.240	1.330
2020/01/31 23:24:52.2	185.850	0.110	-0.360	1.350
2020/01/31 23:24:52.3	185.800	0.190	-0.480	1.370
2020/01/31 23:24:52.4	185.740	0.280	-0.600	1.390
2020/01/31 23:24:52.5	185.690	0.350	-0.710	1.410
2020/01/31 23:24:52.6	185.640	0.430	-0.800	1.430
2020/01/31 23:24:52.7	185.590	0.500	-0.890	1.450
2020/01/31 23:24:52.8	185.550	0.570	-0.970	1.460
2020/01/31 23:24:52.9	185.500	0.630	-1.040	1.480
2020/01/31 23:24:53.0	185.460	0.690	-1.100	1.490
2020/01/31 23:24:53.1	185.410	0.740	-1.140	1.500
2020/01/31 23:24:53.2	185.370	0.780	-1.170	1.520
2020/01/31 23:24:53.3	185.340	0.810	-1.200	1.520
2020/01/31 23:24:53.4	185.310	0.840	-1.210	1.530
2020/01/31 23:24:53.5	185.280	0.860	-1.200	1.530
2020/01/31 23:24:53.6	185.250	0.870	-1.190	1.530
2020/01/31 23:24:53.7	185.230	0.880	-1.170	1.530
2020/01/31 23:24:53.8	185.210	0.870	-1.130	1.530
2020/01/31 23:24:53.9	185.190	0.860	-1.090	1.520
2020/01/31 23:24:54.0	185.180	0.850	-1.040	1.510
2020/01/31 23:24:54.1	185.180	0.820	-0.980	1.500
2020/01/31 23:24:54.2	185.170	0.790	-0.910	1.490
2020/01/31 23:24:54.3	185.170	0.750	-0.840	1.470
2020/01/31 23:24:54.4	185.160	0.700	-0.760	1.460
2020/01/31 23:24:54.5	185.160	0.660	-0.680	1.440
2020/01/31 23:24:54.6	185.170	0.600	-0.600	1.420
2020/01/31 23:24:54.7	185.170	0.540	-0.510	1.400
2020/01/31 23:24:54.8	185.180	0.480	-0.430	1.380
2020/01/31 23:24:54.9	185.190	0.420	-0.350	1.360
2020/01/31 23:24:55.0	185.200	0.350	-0.260	1.340
2020/01/31 23:24:55.1	185.220	0.290	-0.190	1.320
2020/01/31 23:24:55.2	185.240	0.220	-0.110	1.300
2020/01/31 23:24:55.3	185.250	0.150	-0.040	1.280
2020/01/31 23:24:55.4	185.270	0.090	0.030	1.260
2020/01/31 23:24:55.5	185.280	0.020	0.090	1.240
2020/01/31 23:24:55.6	185.300	-0.040	0.140	1.220
2020/01/31 23:24:55.7	185.320	-0.100	0.180	1.200
2020/01/31 23:24:55.8	185.330	-0.150	0.220	1.190
2020/01/31 23:24:55.9	185.350	-0.210	0.250	1.170
2020/01/31 23:24:56.0	185.360	-0.250	0.270	1.160
2020/01/31 23:24:56.1	185.370	-0.300	0.290	1.150
2020/01/31 23:24:56.2	185.380	-0.330	0.290	1.140
2020/01/31 23:24:56.3	185.390	-0.370	0.290	1.140
2020/01/31 23:24:56.4	185.400	-0.400	0.280	1.130
2020/01/31 23:24:56.5	185.400	-0.420	0.260	1.130
2020/01/31 23:24:56.6	185.410	-0.430	0.230	1.130
2020/01/31 23:24:56.7	185.410	-0.440	0.190	1.130
2020/01/31 23:24:56.8	185.410	-0.450	0.150	1.140
2020/01/31 23:24:56.9	185.400	-0.450	0.100	1.140
2020/01/31 23:24:57.0	185.400	-0.440	0.040	1.150
2020/01/31 23:24:57.1	185.400	-0.430	-0.020	1.170
2020/01/31 23:24:57.2	185.380	-0.410	-0.090	1.190
2020/01/31 23:24:57.3	185.370	-0.380	-0.160	1.210
2020/01/31 23:24:57.4	185.350	-0.360	-0.230	1.230
2020/01/31 23:24:57.5	185.330	-0.320	-0.310	1.250
2020/01/31 23:24:57.6	185.310	-0.290	-0.380	1.280
2020/01/31 23:24:57.7	185.280	-0.250	-0.460	1.310
2020/01/31 23:24:57.8	185.250	-0.200	-0.540	1.340
2020/01/31 23:24:57.9	185.220	-0.160	-0.610	1.370
2020/01/31 23:24:58.0	185.190	-0.110	-0.690	1.400
2020/01/31 23:24:58.1	185.160	-0.060	-0.760	1.440
2020/01/31 23:24:58.2	185.130	-0.010	-0.820	1.470
2020/01/31 23:24:58.3	185.090	0.040	-0.880	1.500
2020/01/31 23:24:58.4	185.060	0.080	-0.930	1.530
2020/01/31 23:24:58.5	185.030	0.130	-0.980	1.550
2020/01/31 23:24:58.6	185.000	0.170	-1.020	1.570
2020/01/31 23:24:58.7	184.970	0.220	-1.050	1.590
2020/01/31 23:24:58.8	184.940	0.250	-1.070	1.610
2020/01/31 23:24:58.9	184.920	0.290	-1.080	1.620
2020/01/31 23:24:59.0	184.900	0.320	-1.080	1.630
2020/01/31 23:24:59.1	184.910	0.340	-1.070	1.640
2020/01/31 23:24:59.2	184.900	0.360	-1.050	1.650
2020/01/31 23:24:59.3	184.900	0.370	-1.020	1.650
2020/01/31 23:24:59.4	184.890	0.380	-0.980	1.650
2020/01/31 23:24:59.5	184.890	0.390	-0.930	1.660
2020/01/31 23:24:59.6	184.900	0.380	-0.870	1.660
2020/01/31 23:24:59.7	184.910	0.370	-0.800	1.650
2020/01/31 23:24:59.8	184.910	0.360	-0.730	1.650
2020/01/31 23:24:59.9	184.930	0.340	-0.650	1.650
2020/01/31 23:25:00.0	184.940	0.320	-0.570	1.650
2020/01/31 23:25:00.1	184.960	0.290	-0.480	1.650
2020/01/31 23:25:00.2	184.970	0.260	-0.380	1.650
2020/01/31 23:25:00.3	184.990	0.220	-0.290	1.640
2020/01/31 23:25:00.4	185.010	0.180	-0.200	1.650
2020/01/31 23:25:00.5	185.020	0.140	-0.110	1.650
2020/01/31 23:25:00.6	185.040	0.100	-0.010	1.650
2020/01/31 23:25:00.7	185.050	0.050	0.070	1.650
2020/01/31 23:25:00.8	185.060	0.010	0.160	1.660
2020/01/31 23:25:00.9	185.070	-0.040	0.240	1.660
2020/01/31 23:25:01.0	185.080	-0.080	0.310	1.670
2020/01/31 23:25:01.1	185.090	-0.120	0.380	1.680
2020/01/31 23:25:01.2	185.090	-0.160	0.440	1.690
2020/01/31 23:25:01.3	185.080	-0.200	0.490	1.700
2020/01/31 23:25:01.4	185.080	-0.230	0.530	1.710
2020/01/31 23:25:01.5	185.060	-0.260	0.560	1.720
2020/01/31 23:25:01.6	185.050	-0.290	0.580	1.730
2020/01/31 23:25:01.7	185.030	-0.310	0.600	1.740
2020/01/31 23:25:01.8	185.010	-0.320	0.600	1.750
2020/01/31 23:25:01.9	184.980	-0.330	0.600	1.770
2020/01/31 23:25:02.0	184.950	-0.330	0.580	1.780
2020/01/31 23:25:02.1	184.920	-0.330	0.560	1.790
2020/01/31 23:25:02.2	184.880	-0.320	0.530	1.800
2020/01/31 23:25:02.3	184.850	-0.310	0.490	1.810
2020/01/31 23:25:02.4	184.810	-0.290	0.440	1.810
2020/01/31 23:25:02.5	184.770	-0.270	0.390	1.820
2020/01/31 23:25:02.6	184.730	-0.240	0.340	1.830
2020/01/31 23:25:02.7	184.680	-0.210	0.280	1.840
2020/01/31 23:25:02.8	184.640	-0.180	0.220	1.840
2020/01/31 23:25:02.9	184.590	-0.140	0.150	1.850
2020/01/31 23:25:03.0	184.550	-0.090	0.080	1.860
2020/01/31 23:25:03.1	184.500	-0.050	0.010	1.860
2020/01/31 23:25:03.2	184.450	-0.000	-0.060	1.870
2020/01/31 23:25:03.3	184.400	0.040	-0.120	1.880
2020/01/31 23:25:03.4	184.360	0.090	-0.190	1.890
2020/01/31 23:25:03.5	184.310	0.140	-0.260	1.890
2020/01/31 23:25:03.6	184.270	0.190	-0.320	1.900
2020/01/31 23:25:03.7	184.220	0.230	-0.380	1.910
2020/01/31 23:25:03.8	184.180	0.280	-0.430	1.910
2020/01/31 23:25:03.9	184.140	0.320	-0.480	1.920
2020/01/31 23:25:04.0	184.100	0.360	-0.530	1.920
2020/01/31 23:25:04.1	184.060	0.400	-0.560	1.920
2020/01/31 23:25:04.2	184.030	0.430	-0.600	1.920
2020/01/31 23:25:04.3	183.990	0.460	-0.620	1.910
2020/01/31 23:25:04.4	183.970	0.480	-0.640	1.910
2020/01/31 23:25:04.5	183.940	0.500	-0.650	1.900
2020/01/31 23:25:04.6	183.920	0.510	-0.660	1.890
2020/01/31 23:25:04.7	183.900	0.520	-0.660	1.880
2020/01/31 23:25:04.8	183.880	0.520	-0.650	1.870
2020/01/31 23:25:04.9	183.870	0.510	-0.630	1.860
2020/01/31 23:25:05.0	183.860	0.500	-0.620	1.840
2020/01/31 23:25:05.1	183.850	0.490	-0.590	1.820
2020/01/31 23:25:05.2	183.840	0.470	-0.560	1.810
2020/01/31 23:25:05.3	183.840	0.440	-0.530	1.790
2020/01/31 23:25:05.4	183.840	0.410	-0.500	1.780
2020/01/31 23:25:05.5	183.840	0.370	-0.460	1.760
2020/01/31 23:25:05.6	183.840	0.330	-0.420	1.750
2020/01/31 23:25:05.7	183.840	0.280	-0.380	1.730
2020/01/31 23:25:05.8	183.840	0.230	-0.340	1.720
2020/01/31 23:25:05.9	183.840	0.180	-0.300	1.710
2020/01/31 23:25:06.0	183.840	0.120	-0.270	1.710
2020/01/31 23:25:06.1	183.820	0.060	-0.230	1.700
2020/01/31 23:25:06.2	183.820	0.010	-0.200	1.700
2020/01/31 23:25:06.3	183.820	-0.050	-0.170	1.700
2020/01/31 23:25:06.4	183.810	-0.110	-0.150	1.710
2020/01/31 23:25:06.5	183.800	-0.170	-0.130	1.720
2020/01/31 23:25:06.6	183.790	-0.230	-0.120	1.730
2020/01/31 23:25:06.7	183.780	-0.290	-0.110	1.750
2020/01/31 23:25:06.8	183.760	-0.340	-0.110	1.760
2020/01/31 23:25:06.9	183.740	-0.390	-0.110	1.780
2020/01/31 23:25:07.0	183.720	-0.440	-0.120	1.810
2020/01/31 23:25:07.1	183.700	-0.490	-0.130	1.830
2020/01/31 23:25:07.2	183.680	-0.530	-0.150	1.860
2020/01/31 23:25:07.3	183.660	-0.570	-0.170	1.880
2020/01/31 23:25:07.4	183.630	-0.600	-0.200	1.910
2020/01/31 23:25:07.5	183.600	-0.620	-0.230	1.940
2020/01/31 23:25:07.6	183.570	-0.650	-0.270	1.970
2020/01/31 23:25:07.7	183.550	-0.660	-0.310	1.990
2020/01/31 23:25:07.8	183.520	-0.670	-0.350	2.020
2020/01/31 23:25:07.9	183.490	-0.680	-0.390	2.050
2020/01/31 23:25:08.0	183.460	-0.680	-0.430	2.070
2020/01/31 23:25:08.1	183.420	-0.670	-0.470	2.090
2020/01/31 23:25:08.2	183.390	-0.660	-0.520	2.110
2020/01/31 23:25:08.3	183.370	-0.640	-0.560	2.130
2020/01/31 23:25:08.4	183.340	-0.620	-0.600	2.150
2020/01/31 23:25:08.5	183.310	-0.590	-0.630	2.160
2020/01/31 23:25:08.6	183.290	-0.560	-0.670	2.170
2020/01/31 23:25:08.7	183.260	-0.520	-0.700	2.170
2020/01/31 23:25:08.8	183.240	-0.480	-0.720	2.170
2020/01/31 23:25:08.9	183.220	-0.430	-0.750	2.170
2020/01/31 23:25:09.0	183.200	-0.380	-0.760	2.160
2020/01/31 23:25:09.1	183.180	-0.330	-0.780	2.150
2020/01/31 23:25:09.2	183.160	-0.280	-0.780	2.130
2020/01/31 23:25:09.3	183.140	-0.230	-0.780	2.100
2020/01/31 23:25:09.4	183.130	-0.170	-0.770	2.080
2020/01/31 23:25:09.5	183.120	-0.110	-0.760	2.040
2020/01/31 23:25:09.6	183.110	-0.060	-0.750	2.010
2020/01/31 23:25:09.7	183.100	-0.000	-0.730	1.960
2020/01/31 23:25:09.8	183.090	0.050	-0.700	1.920
2020/01/31 23:25:09.9	183.090	0.100	-0.670	1.870
2020/01/31 23:25:10.0	183.080	0.150	-0.630	1.820
2020/01/31 23:25:10.1	183.080	0.200	-0.590	1.770
2020/01/31 23:25:10.2	183.080	0.240	-0.550	1.710
2020/01/31 23:25:10.3	183.080	0.280	-0.500	1.660
2020/01/31 23:25:10.4	183.090	0.310	-0.450	1.600
2020/01/31 23:25:10.5	183.090	0.340	-0.410	1.540
2020/01/31 23:25:10.6	183.100	0.370	-0.360	1.490
2020/01/31 23:25:10.7	183.110	0.390	-0.300	1.430
2020/01/31 23:25:10.8	183.120	0.410	-0.250	1.380
2020/01/31 23:25:10.9	183.130	0.420	-0.200	1.320
2020/01/31 23:25:11.0	183.140	0.420	-0.150	1.270
2020/01/31 23:25:11.1	183.150	0.420	-0.100	1.220
2020/01/31 23:25:11.2	183.160	0.420	-0.050	1.170
2020/01/31 23:25:11.3	183.180	0.410	0.000	1.130
2020/01/31 23:25:11.4	183.190	0.390	0.050	1.090
2020/01/31 23:25:11.5	183.210	0.370	0.100	1.060
2020/01/31 23:25:11.6	183.230	0.340	0.140	1.030
2020/01/31 23:25:11.7	183.240	0.310	0.180	1.010
2020/01/31 23:25:11.8	183.260	0.280	0.220	0.990
2020/01/31 23:25:11.9	183.270	0.240	0.250	0.980
2020/01/31 23:25:12.0	183.280	0.200	0.280	0.970
2020/01/31 23:25:12.1	183.270	0.160	0.310	0.960
2020/01/31 23:25:12.2	183.280	0.120	0.340	0.970
2020/01/31 23:25:12.3	183.280	0.070	0.350	0.980
2020/01/31 23:25:12.4	183.280	0.020	0.370	1.000
2020/01/31 23:25:12.5	183.280	-0.020	0.380	1.030
2020/01/31 23:25:12.6	183.270	-0.070	0.380	1.060
2020/01/31 23:25:12.7	183.260	-0.110	0.380	1.090
2020/01/31 23:25:12.8	183.240	-0.160	0.370	1.130
2020/01/31 23:25:12.9	183.220	-0.200	0.360	1.180
2020/01/31 23:25:13.0	183.200	-0.240	0.350	1.230
2020/01/31 23:25:13.1	183.180	-0.270	0.330	1.280
2020/01/31 23:25:13.2	183.150	-0.300	0.300	1.340
2020/01/31 23:25:13.3	183.110	-0.330	0.280	1.400
2020/01/31 23:25:13.4	183.080	-0.360	0.240	1.460
2020/01/31 23:25:13.5	183.040	-0.380	0.210	1.520
2020/01/31 23:25:13.6	183.000	-0.390	0.170	1.580
2020/01/31 23:25:13.7	182.950	-0.400	0.130	1.640
2020/01/31 23:25:13.8	182.910	-0.400	0.090	1.710
2020/01/31 23:25:13.9	182.860	-0.400	0.040	1.770
2020/01/31 23:25:14.0	182.810	-0.400	0.000	1.830
2020/01/31 23:25:14.1	182.770	-0.390	-0.040	1.890
2020/01/31 23:25:14.2	182.720	-0.370	-0.090	1.940
2020/01/31 23:25:14.3	182.670	-0.350	-0.130	2.000
2020/01/31 23:25:14.4	182.620	-0.330	-0.170	2.050
2020/01/31 23:25:14.5	182.580	-0.300	-0.210	2.090
2020/01/31 23:25:14.6	182.530	-0.270	-0.240	2.140
2020/01/31 23:25:14.7	182.490	-0.240	-0.270	2.180
2020/01/31 23:25:14.8	182.440	-0.200	-0.300	2.210
2020/01/31 23:25:14.9	182.400	-0.170	-0.330	2.250
2020/01/31 23:25:15.0	182.360	-0.130	-0.360	2.270
2020/01/31 23:25:15.1	182.330	-0.090	-0.380	2.300
2020/01/31 23:25:15.2	182.300	-0.040	-0.390	2.320
2020/01/31 23:25:15.3	182.270	-0.000	-0.400	2.330
2020/01/31 23:25:15.4	182.240	0.040	-0.410	2.350
2020/01/31 23:25:15.5	182.210	0.080	-0.410	2.350
2020/01/31 23:25:15.6	182.190	0.120	-0.400	2.350
2020/01/31 23:25:15.7	182.160	0.160	-0.390	2.350
2020/01/31 23:25:15.8	182.150	0.200	-0.380	2.350
2020/01/31 23:25:15.9	182.130	0.240	-0.360	2.330
2020/01/31 23:25:16.0	182.110	0.270	-0.340	2.320
2020/01/31 23:25:16.1	182.110	0.310	-0.310	2.300
2020/01/31 23:25:16.2	182.100	0.340	-0.280	2.270
2020/01/31 23:25:16.3	182.090	0.360	-0.250	2.240
2020/01/31 23:25:16.4	182.090	0.390	-0.210	2.210
2020/01/31 23:25:16.5	182.080	0.410	-0.170	2.170
2020/01/31 23:25:16.6	182.080	0.420	-0.130	2.130
2020/01/31 23:25:16.7	182.080	0.440	-0.080	2.080
2020/01/31 23:25:16.8	182.080	0.450	-0.040	2.030
2020/01/31 23:25:16.9	182.080	0.460	0.010	1.980
2020/01/31 23:25:17.0	182.080	0.460	0.050	1.920
2020/01/31 23:25:17.1	182.080	0.460	0.090	1.860
2020/01/31 23:25:17.2	182.090	0.460	0.130	1.790
2020/01/31 23:25:17.3	182.090	0.460	0.170	1.730
2020/01/31 23:25:17.4	182.090	0.450	0.200	1.660
2020/01/31 23:25:17.5	182.090	0.440	0.220	1.600
2020/01/31 23:25:17.6	182.090	0.430	0.240	1.540
2020/01/31 23:25:17.7	182.090	0.410	0.250	1.470
2020/01/31 23:25:17.8	182.090	0.400	0.260	1.410
2020/01/31 23:25:17.9	182.080	0.380	0.260	1.350
2020/01/31 23:25:18.0	182.080	0.360	0.260	1.300
2020/01/31 23:25:18.1	182.050	0.340	0.240	1.240
2020/01/31 23:25:18.2	182.040	0.320	0.220	1.190
2020/01/31 23:25:18.3	182.020	0.300	0.190	1.150
2020/01/31 23:25:18.4	182.010	0.280	0.150	1.110
2020/01/31 23:25:18.5	181.980	0.260	0.110	1.080
2020/01/31 23:25:18.6	181.960	0.240	0.060	1.050
2020/01/31 23:25:18.7	181.930	0.230	-0.000	1.030
2020/01/31 23:25:18.8	181.900	0.210	-0.070	1.010
2020/01/31 23:25:18.9	181.870	0.190	-0.140	1.000
2020/01/31 23:25:19.0	181.840	0.180	-0.210	0.990
2020/01/31 23:25:19.1	181.790	0.160	-0.290	0.990
2020/01/31 23:25:19.2	181.750	0.150	-0.380	0.990
2020/01/31 23:25:19.3	181.710	0.140	-0.460	0.990
2020/01/31 23:25:19.4	181.670	0.130	-0.550	1.000
2020/01/31 23:25:19.5	181.630	0.120	-0.630	1.010
2020/01/31 23:25:19.6	181.590	0.110	-0.720	1.020
2020/01/31 23:25:19.7	181.550	0.110	-0.800	1.030
2020/01/31 23:25:19.8	181.520	0.110	-0.880	1.040
2020/01/31 23:25:19.9	181.480	0.100	-0.960	1.050
2020/01/31 23:25:20.0	181.440	0.100	-1.030	1.070
2020/01/31 23:25:20.1	181.400	0.100	-1.090	1.080
2020/01/31 23:25:20.2	181.370	0.100	-1.150	1.090
2020/01/31 23:25:20.3	181.340	0.100	-1.200	1.110
2020/01/31 23:25:20.4	181.310	0.100	-1.240	1.120
2020/01/31 23:25:20.5	181.280	0.100	-1.280	1.130
2020/01/31 23:25:20.6	181.260	0.110	-1.300	1.140
2020/01/31 23:25:20.7	181.240	0.110	-1.320	1.150
2020/01/31 23:25:20.8	181.220	0.110	-1.330	1.170
2020/01/31 23:25:20.9	181.200	0.110	-1.330	1.180
2020/01/31 23:25:21.0	181.190	0.110	-1.320	1.190
2020/01/31 23:25:21.1	181.180	0.110	-1.300	1.200
2020/01/31 23:25:21.2	181.170	0.110	-1.280	1.210
2020/01/31 23:25:21.3	181.160	0.110	-1.250	1.220
2020/01/31 23:25:21.4	181.150	0.110	-1.210	1.220
2020/01/31 23:25:21.5	181.140	0.110	-1.160	1.230
2020/01/31 23:25:21.6	181.140	0.100	-1.110	1.240
2020/01/31 23:25:21.7	181.130	0.100	-1.060	1.250
2020/01/31 23:25:21.8	181.130	0.090	-1.000	1.260
2020/01/31 23:25:21.9	181.130	0.080	-0.940	1.270
2020/01/31 23:25:22.0	181.130	0.070	-0.870	1.280
2020/01/31 23:25:22.1	181.120	0.050	-0.800	1.280
2020/01/31 23:25:22.2	181.120	0.040	-0.740	1.290
2020/01/31 23:25:22.3	181.120	0.020	-0.670	1.300
2020/01/31 23:25:22.4	181.120	0.000	-0.600	1.310
2020/01/31 23:25:22.5	181.120	-0.020	-0.530	1.320
2020/01/31 23:25:22.6	181.120	-0.040	-0.460	1.330
2020/01/31 23:25:22.7	181.120	-0.070	-0.400	1.340
2020/01/31 23:25:22.8	181.120	-0.090	-0.340	1.350
2020/01/31 23:25:22.9	181.120	-0.120	-0.280	1.360
2020/01/31 23:25:23.0	181.120	-0.150	-0.220	1.360
2020/01/31 23:25:23.1	181.120	-0.180	-0.160	1.380
2020/01/31 23:25:23.2	181.120	-0.210	-0.110	1.390
2020/01/31 23:25:23.3	181.120	-0.240	-0.070	1.400
2020/01/31 23:25:23.4	181.110	-0.270	-0.020	1.410
2020/01/31 23:25:23.5	181.110	-0.310	0.020	1.420
2020/01/31 23:25:23.6	181.110	-0.340	0.050	1.430
2020/01/31 23:25:23.7	181.100	-0.370	0.080	1.450
2020/01/31 23:25:23.8	181.090	-0.400	0.110	1.460
2020/01/31 23:25:23.9	181.090	-0.440	0.130	1.480
2020/01/31 23:25:24.0	181.080	-0.470	0.150	1.500
2020/01/31 23:25:24.1	181.060	-0.500	0.170	1.520
2020/01/31 23:25:24.2	181.050	-0.530	0.180	1.540
2020/01/31 23:25:24.3	181.040	-0.550	0.190	1.560
2020/01/31 23:25:24.4	181.030	-0.580	0.190	1.590
2020/01/31 23:25:24.5	181.010	-0.600	0.190	1.620
2020/01/31 23:25:24.6	181.000	-0.620	0.180	1.650
2020/01/31 23:25:24.7	180.980	-0.640	0.180	1.680
2020/01/31 23:25:24.8	180.960	-0.650	0.170	1.720
2020/01/31 23:25:24.9	180.940	-0.660	0.160	1.750
2020/01/31 23:25:25.0	180.920	-0.670	0.150	1.790
2020/01/31 23:25:25.1	180.880	-0.680	0.130	1.830
2020/01/31 23:25:25.2	180.860	-0.680	0.110	1.870
2020/01/31 23:25:25.3	180.830	-0.670	0.100	1.900
2020/01/31 23:25:25.4	180.800	-0.670	0.080	1.940
2020/01/31 23:25:25.5	180.760	-0.660	0.060	1.970
2020/01/31 23:25:25.6	180.730	-0.640	0.050	2.000
2020/01/31 23:25:25.7	180.690	-0.620	0.030	2.040
2020/01/31 23:25:25.8	180.650	-0.600	0.010	2.070
2020/01/31 23:25:25.9	180.610	-0.580	-0.010	2.100
2020/01/31 23:25:26.0	180.560	-0.550	-0.030	2.130
2020/01/31 23:25:26.1	180.520	-0.520	-0.040	2.150
2020/01/31 23:25:26.2	180.470	-0.480	-0.060	2.180
2020/01/31 23:25:26.3	180.420	-0.440	-0.080	2.200
2020/01/31 23:25:26.4	180.370	-0.400	-0.100	2.230
2020/01/31 23:25:26.5	180.320	-0.360	-0.110	2.250
2020/01/31 23:25:26.6	180.260	-0.320	-0.130	2.270
2020/01/31 23:25:26.7	180.210	-0.280	-0.140	2.290
2020/01/31 23:25:26.8	180.150	-0.230	-0.150	2.310
2020/01/31 23:25:26.9	180.100	-0.190	-0.160	2.330
2020/01/31 23:25:27.0	180.040	-0.140	-0.170	2.350
2020/01/31 23:25:27.1	180.000	-0.100	-0.180	2.370
2020/01/31 23:25:27.2	179.940	-0.060	-0.190	2.380
2020/01/31 23:25:27.3	179.890	-0.010	-0.190	2.400
2020/01/31 23:25:27.4	179.830	0.030	-0.190	2.410
2020/01/31 23:25:27.5	179.780	0.070	-0.190	2.420
2020/01/31 23:25:27.6	179.730	0.100	-0.190	2.420
2020/01/31 23:25:27.7	179.680	0.140	-0.180	2.420
2020/01/31 23:25:27.8	179.630	0.170	-0.170	2.420
2020/01/31 23:25:27.9	179.580	0.190	-0.160	2.420
2020/01/31 23:25:28.0	179.540	0.220	-0.150	2.410
2020/01/31 23:25:28.1	179.510	0.240	-0.130	2.390
2020/01/31 23:25:28.2	179.470	0.260	-0.110	2.370
2020/01/31 23:25:28.3	179.440	0.270	-0.090	2.350
2020/01/31 23:25:28.4	179.410	0.290	-0.060	2.330
2020/01/31 23:25:28.5	179.380	0.290	-0.030	2.300
2020/01/31 23:25:28.6	179.360	0.300	-0.000	2.260
2020/01/31 23:25:28.7	179.340	0.300	0.030	2.220
2020/01/31 23:25:28.8	179.320	0.300	0.070	2.180
2020/01/31 23:25:28.9	179.310	0.300	0.110	2.140
2020/01/31 23:25:29.0	179.300	0.290	0.140	2.090
2020/01/31 23:25:29.1	179.290	0.280	0.180	2.040
2020/01/31 23:25:29.2	179.280	0.270	0.220	1.990
2020/01/31 23:25:29.3	179.280	0.250	0.260	1.940
2020/01/31 23:25:29.4	179.280	0.240	0.300	1.880
2020/01/31 23:25:29.5	179.280	0.220	0.330	1.830
2020/01/31 23:25:29.6	179.280	0.200	0.360	1.770
2020/01/31 23:25:29.7	179.290	0.180	0.390	1.720
2020/01/31 23:25:29.8	179.290	0.160	0.420	1.660
2020/01/31 23:25:29.9	179.300	0.150	0.430	1.610
2020/01/31 23:25:30.0	179.300	0.130	0.450	1.560
2020/01/31 23:25:30.1	179.310	0.110	0.460	1.500
2020/01/31 23:25:30.2	179.320	0.090	0.460	1.450
2020/01/31 23:25:30.3	179.320	0.080	0.460	1.410
2020/01/31 23:25:30.4	179.330	0.060	0.450	1.360
2020/01/31 23:25:30.5	179.330	0.050	0.430	1.320
2020/01/31 23:25:30.6	179.330	0.040	0.400	1.290
2020/01/31 23:25:30.7	179.330	0.040	0.370	1.260
2020/01/31 23:25:30.8	179.320	0.040	0.320	1.230
2020/01/31 23:25:30.9	179.320	0.040	0.270	1.200
2020/01/31 23:25:31.0	179.310	0.040	0.220	1.190
2020/01/31 23:25:31.1	179.280	0.050	0.150	1.180
2020/01/31 23:25:31.2	179.260	0.060	0.080	1.170
2020/01/31 23:25:31.3	179.240	0.070	0.000	1.170
2020/01/31 23:25:31.4	179.210	0.090	-0.080	1.170
2020/01/31 23:25:31.5	179.180	0.110	-0.170	1.180
2020/01/31 23:25:31.6	179.150	0.130	-0.260	1.190
2020/01/31 23:25:31.7	179.110	0.150	-0.360	1.210
2020/01/31 23:25:31.8	179.070	0.180	-0.460	1.230
2020/01/31 23:25:31.9	179.030	0.210	-0.550	1.250
2020/01/31 23:25:32.0	178.990	0.240	-0.650	1.270
2020/01/31 23:25:32.1	178.920	0.270	-0.750	1.290
2020/01/31 23:25:32.2	178.880	0.300	-0.840	1.320
2020/01/31 23:25:32.3	178.840	0.330	-0.930	1.350
2020/01/31 23:25:32.4	178.800	0.360	-1.010	1.380
2020/01/31 23:25:32.5	178.760	0.390	-1.080	1.400
2020/01/31 23:25:32.6	178.720	0.410	-1.150	1.430
2020/01/31 23:25:32.7	178.680	0.430	-1.210	1.460
2020/01/31 23:25:32.8	178.640	0.450	-1.260	1.490
2020/01/31 23:25:32.9	178.610	0.470	-1.300	1.510
2020/01/31 23:25:33.0	178.580	0.480	-1.320	1.540
2020/01/31 23:25:33.1	178.550	0.490	-1.340	1.570
2020/01/31 23:25:33.2	178.520	0.500	-1.350	1.590
2020/01/31 23:25:33.3	178.500	0.500	-1.340	1.620
2020/01/31 23:25:33.4	178.470	0.500	-1.330	1.640
2020/01/31 23:25:33.5	178.460	0.490	-1.310	1.660
2020/01/31 23:25:33.6	178.440	0.480	-1.270	1.680
2020/01/31 23:25:33.7	178.430	0.460	-1.230	1.700
2020/01/31 23:25:33.8	178.410	0.440	-1.180	1.720
2020/01/31 23:25:33.9	178.410	0.420	-1.120	1.740
2020/01/31 23:25:34.0	178.400	0.390	-1.060	1.750
2020/01/31 23:25:34.1	178.400	0.360	-0.990	1.770
2020/01/31 23:25:34.2	178.400	0.330	-0.910	1.780
2020/01/31 23:25:34.3	178.400	0.290	-0.830	1.790
2020/01/31 23:25:34.4	178.400	0.250	-0.750	1.800
2020/01/31 23:25:34.5	178.400	0.210	-0.660	1.810
2020/01/31 23:25:34.6	178.410	0.160	-0.580	1.810
2020/01/31 23:25:34.7	178.420	0.120	-0.490	1.810
2020/01/31 23:25:34.8	178.430	0.070	-0.410	1.810
2020/01/31 23:25:34.9	178.440	0.020	-0.320	1.810
2020/01/31 23:25:35.0	178.450	-0.030	-0.240	1.810
2020/01/31 23:25:35.1	178.440	-0.070	-0.160	1.810
2020/01/31 23:25:35.2	178.460	-0.120	-0.090	1.800
2020/01/31 23:25:35.3	178.470	-0.170	-0.020	1.800
2020/01/31 23:25:35.4	178.480	-0.210	0.040	1.790
2020/01/31 23:25:35.5	178.490	-0.260	0.100	1.780
2020/01/31 23:25:35.6	178.510	-0.300	0.160	1.780
2020/01/31 23:25:35.7	178.520	-0.330	0.200	1.770
2020/01/31 23:25:35.8	178.530	-0.370	0.240	1.770
2020/01/31 23:25:35.9	178.530	-0.400	0.270	1.760
2020/01/31 23:25:36.0	178.540	-0.430	0.300	1.760
2020/01/31 23:25:36.1	178.550	-0.450	0.310	1.760
2020/01/31 23:25:36.2	178.550	-0.470	0.320	1.760
2020/01/31 23:25:36.3	178.550	-0.490	0.330	1.770
2020/01/31 23:25:36.4	178.550	-0.500	0.320	1.770
2020/01/31 23:25:36.5	178.540	-0.500	0.310	1.780
2020/01/31 23:25:36.6	178.530	-0.510	0.290	1.790
2020/01/31 23:25:36.7	178.520	-0.500	0.260	1.810
2020/01/31 23:25:36.8	178.510	-0.500	0.230	1.830
2020/01/31 23:25:36.9	178.490	-0.490	0.200	1.850
2020/01/31 23:25:37.0	178.470	-0.470	0.160	1.880
2020/01/31 23:25:37.1	178.430	-0.450	0.110	1.910
2020/01/31 23:25:37.2	178.410	-0.430	0.070	1.940
2020/01/31 23:25:37.3	178.380	-0.410	0.020	1.970
2020/01/31 23:25:37.4	178.350	-0.380	-0.030	2.000
2020/01/31 23:25:37.5	178.320	-0.340	-0.070	2.040
2020/01/31 23:25:37.6	178.290	-0.310	-0.120	2.070
2020/01/31 23:25:37.7	178.260	-0.270	-0.170	2.100
2020/01/31 23:25:37.8	178.220	-0.240	-0.210	2.130
2020/01/31 23:25:37.9	178.180	-0.200	-0.250	2.160
2020/01/31 23:25:38.0	178.150	-0.160	-0.280	2.180
2020/01/31 23:25:38.1	178.110	-0.120	-0.310	2.210
2020/01/31 23:25:38.2	178.070	-0.080	-0.330	2.230
2020/01/31 23:25:38.3	178.040	-0.040	-0.350	2.240
2020/01/31 23:25:38.4	178.000	-0.000	-0.370	2.250
2020/01/31 23:25:38.5	177.960	0.030	-0.370	2.260
2020/01/31 23:25:38.6	177.930	0.070	-0.380	2.270
2020/01/31 23:25:38.7	177.890	0.100	-0.370	2.270
2020/01/31 23:25:38.8	177.860	0.130	-0.360	2.260
2020/01/31 23:25:38.9	177.830	0.150	-0.340	2.260
2020/01/31 23:25:39.0	177.800	0.180	-0.320	2.250
2020/01/31 23:25:39.1	177.770	0.200	-0.300	2.230
2020/01/31 23:25:39.2	177.750	0.220	-0.270	2.220
2020/01/31 23:25:39.3	177.720	0.230	-0.240	2.200
2020/01/31 23:25:39.4	177.700	0.240	-0.200	2.180
2020/01/31 23:25:39.5	177.670	0.250	-0.170	2.160
2020/01/31 23:25:39.6	177.650	0.250	-0.130	2.140
2020/01/31 23:25:39.7	177.630	0.250	-0.100	2.110
2020/01/31 23:25:39.8	177.610	0.250	-0.060	2.090
2020/01/31 23:25:39.9	177.590	0.240	-0.030	2.060
2020/01/31 23:25:40.0	177.570	0.240	0.000	2.030
2020/01/31 23:25:40.1	177.550	0.230	0.030	2.000
2020/01/31 23:25:40.2	177.530	0.220	0.050	1.980
2020/01/31 23:25:40.3	177.520	0.200	0.070	1.950
2020/01/31 23:25:40.4	177.500	0.190	0.090	1.920
2020/01/31 23:25:40.5	177.480	0.170	0.100	1.900
2020/01/31 23:25:40.6	177.460	0.160	0.100	1.880
2020/01/31 23:25:40.7	177.450	0.140	0.100	1.850
2020/01/31 23:25:40.8	177.430	0.130	0.090	1.830
2020/01/31 23:25:40.9	177.410	0.110	0.080	1.810
2020/01/31 23:25:41.0	177.390	0.100	0.060	1.790
2020/01/31 23:25:41.1	177.370	0.080	0.040	1.770
2020/01/31 23:25:41.2	177.350	0.070	0.010	1.760
2020/01/31 23:25:41.3	177.330	0.060	-0.020	1.750
2020/01/31 23:25:41.4	177.310	0.050	-0.060	1.740
2020/01/31 23:25:41.5	177.290	0.040	-0.100	1.730
2020/01/31 23:25:41.6	177.260	0.030	-0.150	1.720
2020/01/31 23:25:41.7	177.240	0.030	-0.200	1.720
2020/01/31 23:25:41.8	177.210	0.030	-0.250	1.720
2020/01/31 23:25:41.9	177.180	0.030	-0.300	1.720
2020/01/31 23:25:42.0	177.150	0.030	-0.350	1.720
2020/01/31 23:25:42.1	177.140	0.030	-0.410	1.720
2020/01/31 23:25:42.2	177.110	0.040	-0.460	1.730
2020/01/31 23:25:42.3	177.080	0.050	-0.510	1.730
2020/01/31 23:25:42.4	177.050	0.060	-0.560	1.740
2020/01/31 23:25:42.5	177.020	0.070	-0.610	1.750
2020/01/31 23:25:42.6	176.980	0.080	-0.650	1.750
2020/01/31 23:25:42.7	176.950	0.090	-0.690	1.760
2020/01/31 23:25:42.8	176.920	0.110	-0.730	1.780
2020/01/31 23:25:42.9	176.880	0.120	-0.760	1.790
2020/01/31 23:25:43.0	176.850	0.130	-0.790	1.800
2020/01/31 23:25:43.1	176.850	0.150	-0.820	1.810
2020/01/31 23:25:43.2	176.820	0.160	-0.840	1.820
2020/01/31 23:25:43.3	176.780	0.170	-0.860	1.830
2020/01/31 23:25:43.4	176.750	0.180	-0.870	1.840
2020/01/31 23:25:43.5	176.710	0.190	-0.880	1.850
2020/01/31 23:25:43.6	176.680	0.200	-0.880	1.860
2020/01/31 23:25:43.7	176.640	0.210	-0.880	1.870
2020/01/31 23:25:43.8	176.610	0.210	-0.870	1.870
2020/01/31 23:25:43.9	176.580	0.220	-0.860	1.870
2020/01/31 23:25:44.0	176.550	0.220	-0.840	1.870
2020/01/31 23:25:44.1	176.540	0.210	-0.820	1.880
2020/01/31 23:25:44.2	176.510	0.200	-0.790	1.870
2020/01/31 23:25:44.3	176.490	0.190	-0.760	1.870
2020/01/31 23:25:44.4	176.470	0.180	-0.720	1.860
2020/01/31 23:25:44.5	176.460	0.160	-0.680	1.850
2020/01/31 23:25:44.6	176.450	0.140	-0.640	1.840
2020/01/31 23:25:44.7	176.440	0.120	-0.590	1.830
2020/01/31 23:25:44.8	176.440	0.090	-0.530	1.820
2020/01/31 23:25:44.9	176.440	0.060	-0.480	1.800
2020/01/31 23:25:45.0	176.440	0.030	-0.420	1.790
2020/01/31 23:25:45.1	176.460	-0.010	-0.360	1.770
2020/01/31 23:25:45.2	176.470	-0.050	-0.290	1.750
2020/01/31 23:25:45.3	176.480	-0.090	-0.230	1.740
2020/01/31 23:25:45.4	176.500	-0.140	-0.160	1.730
2020/01/31 23:25:45.5	176.520	-0.180	-0.090	1.710
2020/01/31 23:25:45.6	176.540	-0.230	-0.020	1.700
2020/01/31 23:25:45.7	176.560	-0.270	0.050	1.690
2020/01/31 23:25:45.8	176.580	-0.320	0.120	1.680
2020/01/31 23:25:45.9	176.600	-0.370	0.180	1.680
2020/01/31 23:25:46.0	176.620	-0.410	0.250	1.670
2020/01/31 23:25:46.1	176.650	-0.460	0.300	1.670
2020/01/31 23:25:46.2	176.680	-0.500	0.360	1.670
2020/01/31 23:25:46.3	176.700	-0.540	0.410	1.660
2020/01/31 23:25:46.4	176.720	-0.580	0.450	1.660
2020/01/31 23:25:46.5	176.730	-0.620	0.490	1.660
2020/01/31 23:25:46.6	176.750	-0.650	0.520	1.660
2020/01/31 23:25:46.7	176.760	-0.670	0.540	1.660
2020/01/31 23:25:46.8	176.770	-0.690	0.550	1.660
2020/01/31 23:25:46.9	176.780	-0.710	0.560	1.670
2020/01/31 23:25:47.0	176.780	-0.720	0.550	1.670
2020/01/31 23:25:47.1	176.770	-0.730	0.540	1.670
2020/01/31 23:25:47.2	176.770	-0.720	0.520	1.680
2020/01/31 23:25:47.3	176.770	-0.720	0.480	1.680
2020/01/31 23:25:47.4	176.760	-0.700	0.440	1.680
2020/01/31 23:25:47.5	176.750	-0.680	0.390	1.680
2020/01/31 23:25:47.6	176.740	-0.660	0.330	1.680
2020/01/31 23:25:47.7	176.720	-0.630	0.270	1.690
2020/01/31 23:25:47.8	176.700	-0.590	0.200	1.690
2020/01/31 23:25:47.9	176.680	-0.550	0.120	1.690
2020/01/31 23:25:48.0	176.660	-0.500	0.040	1.690
2020/01/31 23:25:48.1	176.640	-0.450	-0.040	1.690
2020/01/31 23:25:48.2	176.610	-0.390	-0.120	1.700
2020/01/31 23:25:48.3	176.580	-0.330	-0.210	1.700
2020/01/31 23:25:48.4	176.550	-0.270	-0.290	1.710
2020/01/31 23:25:48.5	176.510	-0.200	-0.380	1.710
2020/01/31 23:25:48.6	176.480	-0.140	-0.460	1.720
2020/01/31 23:25:48.7	176.440	-0.070	-0.530	1.730
2020/01/31 23:25:48.8	176.410	0.000	-0.610	1.740
2020/01/31 23:25:48.9	176.370	0.070	-0.670	1.750
2020/01/31 23:25:49.0	176.330	0.140	-0.730	1.760
2020/01/31 23:25:49.1	176.300	0.200	-0.780	1.770
2020/01/31 23:25:49.2	176.270	0.260	-0.820	1.780
2020/01/31 23:25:49.3	176.230	0.320	-0.860	1.790
2020/01/31 23:25:49.4	176.200	0.380	-0.880	1.800
2020/01/31 23:25:49.5	176.170	0.430	-0.890	1.800
2020/01/31 23:25:49.6	176.140	0.480	-0.900	1.810
2020/01/31 23:25:49.7	176.110	0.520	-0.890	1.810
2020/01/31 23:25:49.8	176.090	0.560	-0.870	1.810
2020/01/31 23:25:49.9	176.060	0.590	-0.840	1.810
2020/01/31 23:25:50.0	176.040	0.610	-0.810	1.810
2020/01/31 23:25:50.1	176.040	0.630	-0.760	1.810
2020/01/31 23:25:50.2	176.030	0.640	-0.710	1.800
2020/01/31 23:25:50.3	176.010	0.650	-0.650	1.790
2020/01/31 23:25:50.4	176.000	0.650	-0.590	1.780
2020/01/31 23:25:50.5	175.990	0.640	-0.510	1.770
2020/01/31 23:25:50.6	175.990	0.630	-0.440	1.750
2020/01/31 23:25:50.7	175.980	0.610	-0.360	1.730
2020/01/31 23:25:50.8	175.980	0.590	-0.280	1.710
2020/01/31 23:25:50.9	175.970	0.560	-0.200	1.690
2020/01/31 23:25:51.0	175.970	0.530	-0.120	1.660
2020/01/31 23:25:51.1	175.960	0.490	-0.040	1.630
2020/01/31 23:25:51.2	175.960	0.450	0.030	1.610
2020/01/31 23:25:51.3	175.960	0.410	0.110	1.580
2020/01/31 23:25:51.4	175.950	0.360	0.180	1.550
2020/01/31 23:25:51.5	175.950	0.310	0.240	1.520
2020/01/31 23:25:51.6	175.940	0.270	0.300	1.490
2020/01/31 23:25:51.7	175.940	0.220	0.350	1.460
2020/01/31 23:25:51.8	175.930	0.170	0.390	1.440
2020/01/31 23:25:51.9	175.920	0.120	0.430	1.420
2020/01/31 23:25:52.0	175.910	0.070	0.450	1.400
2020/01/31 23:25:52.1	175.900	0.030	0.470	1.380
2020/01/31 23:25:52.2	175.890	-0.020	0.480	1.370
2020/01/31 23:25:52.3	175.870	-0.060	0.480	1.360
2020/01/31 23:25:52.4	175.860	-0.100	0.470	1.350
2020/01/31 23:25:52.5	175.840	-0.130	0.450	1.360
2020/01/31 23:25:52.6	175.820	-0.160	0.430	1.360
2020/01/31 23:25:52.7	175.800	-0.190	0.400	1.370
2020/01/31 23:25:52.8	175.770	-0.220	0.360	1.390
2020/01/31 23:25:52.9	175.750	-0.240	0.320	1.400
2020/01/31 23:25:53.0	175.730	-0.250	0.270	1.430
2020/01/31 23:25:53.1	175.720	-0.270	0.220	1.450
2020/01/31 23:25:53.2	175.700	-0.280	0.160	1.480
2020/01/31 23:25:53.3	175.680	-0.280	0.110	1.510
2020/01/31 23:25:53.4	175.660	-0.290	0.050	1.540
2020/01/31 23:25:53.5	175.640	-0.290	-0.000	1.570
2020/01/31 23:25:53.6	175.630	-0.280	-0.050	1.590
2020/01/31 23:25:53.7	175.620	-0.280	-0.110	1.620
2020/01/31 23:25:53.8	175.610	-0.270	-0.150	1.640
2020/01/31 23:25:53.9	175.610	-0.260	-0.200	1.670
2020/01/31 23:25:54.0	175.610	-0.250	-0.240	1.690
2020/01/31 23:25:54.1	175.610	-0.240	-0.280	1.710
2020/01/31 23:25:54.2	175.620	-0.230	-0.310	1.740
2020/01/31 23:25:54.3	175.620	-0.220	-0.340	1.750
2020/01/31 23:25:54.4	175.630	-0.200	-0.360	1.770
2020/01/31 23:25:54.5	175.640	-0.190	-0.390	1.790
2020/01/31 23:25:54.6	175.640	-0.170	-0.400	1.800
2020/01/31 23:25:54.7	175.650	-0.160	-0.410	1.810
2020/01/31 23:25:54.8	175.660	-0.150	-0.420	1.830
2020/01/31 23:25:54.9	175.670	-0.130	-0.430	1.830
2020/01/31 23:25:55.0	175.680	-0.120	-0.440	1.840
2020/01/31 23:25:55.1	175.710	-0.110	-0.440	1.850
2020/01/31 23:25:55.2	175.720	-0.100	-0.440	1.850
2020/01/31 23:25:55.3	175.720	-0.090	-0.440	1.860
2020/01/31 23:25:55.4	175.730	-0.070	-0.450	1.860
2020/01/31 23:25:55.5	175.730	-0.060	-0.450	1.860
2020/01/31 23:25:55.6	175.730	-0.050	-0.460	1.870
2020/01/31 23:25:55.7	175.720	-0.040	-0.470	1.870
2020/01/31 23:25:55.8	175.720	-0.020	-0.480	1.870
2020/01/31 23:25:55.9	175.710	-0.010	-0.500	1.860
2020/01/31 23:25:56.0	175.700	0.000	-0.520	1.860
2020/01/31 23:25:56.1	175.690	0.020	-0.540	1.860
2020/01/31 23:25:56.2	175.670	0.040	-0.570	1.860
2020/01/31 23:25:56.3	175.650	0.060	-0.600	1.850
2020/01/31 23:25:56.4	175.620	0.080	-0.630	1.840
2020/01/31 23:25:56.5	175.590	0.100	-0.670	1.840
2020/01/31 23:25:56.6	175.560	0.120	-0.710	1.830
2020/01/31 23:25:56.7	175.530	0.140	-0.760	1.820
2020/01/31 23:25:56.8	175.490	0.170	-0.800	1.810
2020/01/31 23:25:56.9	175.450	0.190	-0.850	1.800
2020/01/31 23:25:57.0	175.410	0.220	-0.900	1.790
2020/01/31 23:25:57.1	175.370	0.250	-0.940	1.780
2020/01/31 23:25:57.2	175.320	0.280	-0.990	1.770
2020/01/31 23:25:57.3	175.270	0.310	-1.030	1.760
2020/01/31 23:25:57.4	175.220	0.330	-1.070	1.750
2020/01/31 23:25:57.5	175.170	0.360	-1.110	1.750
2020/01/31 23:25:57.6	175.120	0.390	-1.150	1.740
2020/01/31 23:25:57.7	175.070	0.420	-1.180	1.730
2020/01/31 23:25:57.8	175.020	0.440	-1.200	1.730
2020/01/31 23:25:57.9	174.970	0.460	-1.220	1.720
2020/01/31 23:25:58.0	174.920	0.480	-1.220	1.710
2020/01/31 23:25:58.1	174.890	0.500	-1.220	1.700
2020/01/31 23:25:58.2	174.850	0.510	-1.220	1.690
2020/01/31 23:25:58.3	174.820	0.520	-1.200	1.680
2020/01/31 23:25:58.4	174.790	0.520	-1.170	1.670
2020/01/31 23:25:58.5	174.760	0.520	-1.130	1.660
2020/01/31 23:25:58.6	174.740	0.520	-1.080	1.640
2020/01/31 23:25:58.7	174.720	0.510	-1.020	1.630
2020/01/31 23:25:58.8	174.710	0.490	-0.960	1.610
2020/01/31 23:25:58.9	174.700	0.470	-0.880	1.590
2020/01/31 23:25:59.0	174.700	0.440	-0.800	1.570
2020/01/31 23:25:59.1	174.710	0.410	-0.710	1.550
2020/01/31 23:25:59.2	174.720	0.370	-0.610	1.530
2020/01/31 23:25:59.3	174.730	0.330	-0.510	1.510
2020/01/31 23:25:59.4	174.750	0.290	-0.400	1.480
2020/01/31 23:25:59.5	174.770	0.230	-0.290	1.460
2020/01/31 23:25:59.6	174.790	0.180	-0.180	1.440
2020/01/31 23:25:59.7	174.820	0.120	-0.060	1.410
2020/01/31 23:25:59.8	174.840	0.060	0.060	1.390
2020/01/31 23:25:59.9	174.870	-0.010	0.170	1.370
2020/01/31 23:26:00.0	174.900	-0.080	0.280	1.350
2020/01/31 23:26:00.1	174.940	-0.150	0.390	1.330
2020/01/31 23:26:00.2	174.980	-0.220	0.500	1.310
2020/01/31 23:26:00.3	175.010	-0.290	0.600	1.290
2020/01/31 23:26:00.4	175.040	-0.360	0.690	1.280
2020/01/31 23:26:00.5	175.070	-0.430	0.770	1.260
2020/01/31 23:26:00.6	175.100	-0.510	0.850	1.250
2020/01/31 23:26:00.7	175.120	-0.570	0.910	1.250
2020/01/31 23:26:00.8	175.150	-0.640	0.970	1.240
2020/01/31 23:26:00.9	175.170	-0.700	1.010	1.240
2020/01/31 23:26:01.0	175.190	-0.760	1.040	1.250
2020/01/31 23:26:01.1	175.220	-0.820	1.060	1.250
2020/01/31 23:26:01.2	175.230	-0.870	1.070	1.260
2020/01/31 23:26:01.3	175.240	-0.910	1.070	1.270
2020/01/31 23:26:01.4	175.250	-0.950	1.060	1.290
2020/01/31 23:26:01.5	175.260	-0.990	1.030	1.310
2020/01/31 23:26:01.6	175.270	-1.020	1.000	1.340
2020/01/31 23:26:01.7	175.270	-1.040	0.950	1.370
2020/01/31 23:26:01.8	175.260	-1.050	0.900	1.400
2020/01/31 23:26:01.9	175.260	-1.060	0.830	1.440
2020/01/31 23:26:02.0	175.250	-1.060	0.750	1.480
2020/01/31 23:26:02.1	175.220	-1.060	0.670	1.530
2020/01/31 23:26:02.2	175.210	-1.050	0.570	1.580
2020/01/31 23:26:02.3	175.190	-1.030	0.470	1.630
2020/01/31 23:26:02.4	175.160	-1.000	0.370	1.680
2020/01/31 23:26:02.5	175.130	-0.970	0.250	1.740
2020/01/31 23:26:02.6	175.100	-0.920	0.140	1.800
2020/01/31 23:26:02.7	175.070	-0.880	0.020	1.860
2020/01/31 23:26:02.8	175.040	-0.830	-0.100	1.920
2020/01/31 23:26:02.9	175.000	-0.770	-0.220	1.990
2020/01/31 23:26:03.0	174.960	-0.710	-0.340	2.050
2020/01/31 23:26:03.1	174.900	-0.640	-0.460	2.110
2020/01/31 23:26:03.2	174.860	-0.570	-0.570	2.170
2020/01/31 23:26:03.3	174.820	-0.500	-0.680	2.220
2020/01/31 23:26:03.4	174.780	-0.420	-0.780	2.270
2020/01/31 23:26:03.5	174.750	-0.350	-0.870	2.310
2020/01/31 23:26:03.6	174.710	-0.270	-0.950	2.350
2020/01/31 23:26:03.7	174.670	-0.190	-1.020	2.390
2020/01/31 23:26:03.8	174.630	-0.110	-1.080	2.420
2020/01/31 23:26:03.9	174.600	-0.030	-1.130	2.440
2020/01/31 23:26:04.0	174.570	0.040	-1.160	2.460
2020/01/31 23:26:04.1	174.540	0.120	-1.180	2.470
2020/01/31 23:26:04.2	174.510	0.190	-1.190	2.470
2020/01/31 23:26:04.3	174.490	0.260	-1.180	2.460
2020/01/31 23:26:04.4	174.470	0.320	-1.170	2.450
2020/01/31 23:26:04.5	174.450	0.390	-1.140	2.430
2020/01/31 23:26:04.6	174.440	0.440	-1.100	2.410
2020/01/31 23:26:04.7	174.420	0.500	-1.040	2.370
2020/01/31 23:26:04.8	174.420	0.540	-0.980	2.340
2020/01/31 23:26:04.9	174.410	0.580	-0.910	2.290
2020/01/31 23:26:05.0	174.410	0.620	-0.830	2.250
2020/01/31 23:26:05.1	174.410	0.650	-0.740	2.200
2020/01/31 23:26:05.2	174.410	0.680	-0.650	2.140
2020/01/31 23:26:05.3	174.420	0.700	-0.550	2.080
2020/01/31 23:26:05.4	174.420	0.710	-0.450	2.020
2020/01/31 23:26:05.5	174.430	0.720	-0.340	1.960
2020/01/31 23:26:05.6	174.440	0.720	-0.240	1.890
2020/01/31 23:26:05.7	174.450	0.720	-0.130	1.820
2020/01/31 23:26:05.8	174.460	0.720	-0.030	1.750
2020/01/31 23:26:05.9	174.480	0.710	0.070	1.680
2020/01/31 23:26:06.0	174.490	0.690	0.160	1.610
2020/01/31 23:26:06.1	174.520	0.680	0.260	1.540
2020/01/31 23:26:06.2	174.530	0.660	0.340	1.470
2020/01/31 23:26:06.3	174.550	0.630	0.420	1.400
2020/01/31 23:26:06.4	174.560	0.610	0.490	1.340
2020/01/31 23:26:06.5	174.570	0.580	0.550	1.270
2020/01/31 23:26:06.6	174.590	0.550	0.600	1.200
2020/01/31 23:26:06.7	174.600	0.520	0.640	1.140
2020/01/31 23:26:06.8	174.610	0.490	0.670	1.080
2020/01/31 23:26:06.9	174.620	0.460	0.690	1.030
2020/01/31 23:26:07.0	174.640	0.420	0.700	0.970
2020/01/31 23:26:07.1	174.650	0.390	0.700	0.920
2020/01/31 23:26:07.2	174.660	0.360	0.700	0.870
2020/01/31 23:26:07.3	174.670	0.330	0.680	0.830
2020/01/31 23:26:07.4	174.670	0.300	0.660	0.790
2020/01/31 23:26:07.5	174.680	0.280	0.620	0.760
2020/01/31 23:26:07.6	174.680	0.250	0.580	0.730
2020/01/31 23:26:07.7	174.680	0.230	0.530	0.710
2020/01/31 23:26:07.8	174.680	0.210	0.480	0.690
2020/01/31 23:26:07.9	174.680	0.190	0.420	0.680
2020/01/31 23:26:08.0	174.680	0.170	0.360	0.670
2020/01/31 23:26:08.1	174.680	0.160	0.290	0.670
2020/01/31 23:26:08.2	174.670	0.140	0.220	0.670
2020/01/31 23:26:08.3	174.670	0.130	0.140	0.680
2020/01/31 23:26:08.4	174.660	0.120	0.060	0.690
2020/01/31 23:26:08.5	174.660	0.110	-0.020	0.700
2020/01/31 23:26:08.6	174.650	0.110	-0.100	0.720
2020/01/31 23:26:08.7	174.640	0.100	-0.180	0.740
2020/01/31 23:26:08.8	174.640	0.100	-0.260	0.760
2020/01/31 23:26:08.9	174.630	0.100	-0.340	0.790
2020/01/31 23:26:09.0	174.620	0.090	-0.420	0.820
2020/01/31 23:26:09.1	174.610	0.090	-0.500	0.850
2020/01/31 23:26:09.2	174.600	0.090	-0.570	0.890
2020/01/31 23:26:09.3	174.590	0.090	-0.640	0.930
2020/01/31 23:26:09.4	174.580	0.090	-0.710	0.970
2020/01/31 23:26:09.5	174.560	0.090	-0.780	1.020
2020/01/31 23:26:09.6	174.540	0.090	-0.840	1.070
2020/01/31 23:26:09.7	174.530	0.080	-0.900	1.120
2020/01/31 23:26:09.8	174.510	0.080	-0.960	1.170
2020/01/31 23:26:09.9	174.490	0.080	-1.010	1.230
2020/01/31 23:26:10.0	174.470	0.080	-1.050	1.290
2020/01/31 23:26:10.1	174.450	0.070	-1.100	1.350
2020/01/31 23:26:10.2	174.420	0.070	-1.130	1.410
2020/01/31 23:26:10.3	174.400	0.060	-1.160	1.480
2020/01/31 23:26:10.4	174.370	0.050	-1.190	1.540
2020/01/31 23:26:10.5	174.350	0.050	-1.210	1.600
2020/01/31 23:26:10.6	174.320	0.040	-1.220	1.670
2020/01/31 23:26:10.7	174.290	0.030	-1.230	1.730
2020/01/31 23:26:10.8	174.260	0.020	-1.240	1.790
2020/01/31 23:26:10.9	174.230	0.010	-1.230	1.850
2020/01/31 23:26:11.0	174.200	0.000	-1.230	1.900
2020/01/31 23:26:11.1	174.180	-0.010	-1.210	1.950
2020/01/31 23:26:11.2	174.160	-0.020	-1.190	2.000
2020/01/31 23:26:11.3	174.130	-0.030	-1.170	2.040
2020/01/31 23:26:11.4	174.110	-0.040	-1.140	2.080
2020/01/31 23:26:11.5	174.090	-0.060	-1.100	2.110
2020/01/31 23:26:11.6	174.070	-0.070	-1.060	2.140
2020/01/31 23:26:11.7	174.060	-0.080	-1.010	2.160
2020/01/31 23:26:11.8	174.050	-0.100	-0.960	2.170
2020/01/31 23:26:11.9	174.040	-0.110	-0.910	2.190
2020/01/31 23:26:12.0	174.030	-0.130	-0.850	2.190
2020/01/31 23:26:12.1	174.040	-0.140	-0.780	2.200
2020/01/31 23:26:12.2	174.040	-0.160	-0.720	2.200
2020/01/31 23:26:12.3	174.040	-0.180	-0.650	2.200
2020/01/31 23:26:12.4	174.040	-0.190	-0.580	2.200
2020/01/31 23:26:12.5	174.040	-0.210	-0.520	2.190
2020/01/31 23:26:12.6	174.050	-0.220	-0.450	2.180
2020/01/31 23:26:12.7	174.050	-0.240	-0.380	2.170
2020/01/31 23:26:12.8	174.060	-0.250	-0.310	2.160
2020/01/31 23:26:12.9	174.070	-0.270	-0.250	2.150
2020/01/31 23:26:13.0	174.080	-0.280	-0.190	2.140
2020/01/31 23:26:13.1	174.080	-0.290	-0.130	2.130
2020/01/31 23:26:13.2	174.090	-0.300	-0.070	2.120
2020/01/31 23:26:13.3	174.100	-0.310	-0.020	2.110
2020/01/31 23:26:13.4	174.100	-0.310	0.020	2.100
2020/01/31 23:26:13.5	174.110	-0.320	0.070	2.090
2020/01/31 23:26:13.6	174.110	-0.320	0.100	2.080
2020/01/31 23:26:13.7	174.110	-0.320	0.140	2.060
2020/01/31 23:26:13.8	174.110	-0.320	0.160	2.050
2020/01/31 23:26:13.9	174.110	-0.320	0.180	2.040
2020/01/31 23:26:14.0	174.100	-0.310	0.200	2.030
2020/01/31 23:26:14.1	174.110	-0.300	0.210	2.020
2020/01/31 23:26:14.2	174.100	-0.290	0.210	2.010
2020/01/31 23:26:14.3	174.090	-0.280	0.210	2.000
2020/01/31 23:26:14.4	174.080	-0.260	0.210	1.990
2020/01/31 23:26:14.5	174.060	-0.250	0.200	1.980
2020/01/31 23:26:14.6	174.040	-0.230	0.190	1.960
2020/01/31 23:26:14.7	174.020	-0.200	0.170	1.950
2020/01/31 23:26:14.8	174.000	-0.180	0.150	1.930
2020/01/31 23:26:14.9	173.980	-0.160	0.130	1.920
2020/01/31 23:26:15.0	173.960	-0.130	0.100	1.900
2020/01/31 23:26:15.1	173.940	-0.100	0.080	1.890
2020/01/31 23:26:15.2	173.920	-0.080	0.050	1.870
2020/01/31 23:26:15.3	173.890	-0.050	0.030	1.850
2020/01/31 23:26:15.4	173.860	-0.020	0.000	1.830
2020/01/31 23:26:15.5	173.840	0.000	-0.020	1.810
2020/01/31 23:26:15.6	173.810	0.030	-0.050	1.790
2020/01/31 23:26:15.7	173.790	0.050	-0.070	1.770
2020/01/31 23:26:15.8	173.770	0.070	-0.080	1.750
2020/01/31 23:26:15.9	173.750	0.090	-0.100	1.720
2020/01/31 23:26:16.0	173.730	0.110	-0.110	1.700
2020/01/31 23:26:16.1	173.700	0.130	-0.120	1.660
2020/01/31 23:26:16.2	173.690	0.140	-0.120	1.640
2020/01/31 23:26:16.3	173.670	0.160	-0.130	1.610
2020/01/31 23:26:16.4	173.660	0.170	-0.130	1.580
2020/01/31 23:26:16.5	173.650	0.170	-0.120	1.550
2020/01/31 23:26:16.6	173.650	0.170	-0.110	1.520
2020/01/31 23:26:16.7	173.650	0.180	-0.100	1.490
2020/01/31 23:26:16.8	173.650	0.170	-0.090	1.470
2020/01/31 23:26:16.9	173.650	0.170	-0.070	1.440
2020/01/31 23:26:17.0	173.650	0.160	-0.050	1.420
2020/01/31 23:26:17.1	173.650	0.150	-0.040	1.390
2020/01/31 23:26:17.2	173.660	0.140	-0.020	1.370
2020/01/31 23:26:17.3	173.670	0.130	0.010	1.350
2020/01/31 23:26:17.4	173.690	0.110	0.030	1.330
2020/01/31 23:26:17.5	173.700	0.100	0.050	1.310
2020/01/31 23:26:17.6	173.720	0.080	0.070	1.290
2020/01/31 23:26:17.7	173.740	0.060	0.100	1.280
2020/01/31 23:26:17.8	173.760	0.040	0.120	1.260
2020/01/31 23:26:17.9	173.780	0.020	0.140	1.250
2020/01/31 23:26:18.0	173.810	0.000	0.160	1.240
2020/01/31 23:26:18.1	173.830	-0.020	0.170	1.230
2020/01/31 23:26:18.2	173.850	-0.030	0.190	1.220
2020/01/31 23:26:18.3	173.880	-0.050	0.200	1.210
2020/01/31 23:26:18.4	173.900	-0.070	0.210	1.200
2020/01/31 23:26:18.5	173.930	-0.090	0.210	1.200
2020/01/31 23:26:18.6	173.950	-0.100	0.210	1.190
2020/01/31 23:26:18.7	173.970	-0.110	0.210	1.190
2020/01/31 23:26:18.8	173.990	-0.120	0.200	1.190
2020/01/31 23:26:18.9	174.010	-0.130	0.190	1.190
2020/01/31 23:26:19.0	174.030	-0.140	0.180	1.200
2020/01/31 23:26:19.1	174.030	-0.140	0.160	1.200
2020/01/31 23:26:19.2	174.040	-0.140	0.130	1.210
2020/01/31 23:26:19.3	174.050	-0.140	0.100	1.230
2020/01/31 23:26:19.4	174.050	-0.140	0.060	1.240
2020/01/31 23:26:19.5	174.050	-0.130	0.020	1.260
2020/01/31 23:26:19.6	174.050	-0.120	-0.020	1.280
2020/01/31 23:26:19.7	174.050	-0.110	-0.070	1.300
2020/01/31 23:26:19.8	174.040	-0.100	-0.120	1.320
2020/01/31 23:26:19.9	174.030	-0.090	-0.170	1.350
2020/01/31 23:26:20.0	174.020	-0.070	-0.230	1.380
2020/01/31 23:26:20.1	174.010	-0.060	-0.290	1.420
2020/01/31 23:26:20.2	174.000	-0.040	-0.340	1.450
2020/01/31 23:26:20.3	173.980	-0.030	-0.400	1.490
2020/01/31 23:26:20.4	173.960	-0.010	-0.460	1.530
2020/01/31 23:26:20.5	173.950	0.010	-0.510	1.580
2020/01/31 23:26:20.6	173.930	0.020	-0.570	1.620
2020/01/31 23:26:20.7	173.910	0.040	-0.620	1.670
2020/01/31 23:26:20.8	173.890	0.050	-0.660	1.720
2020/01/31 23:26:20.9	173.870	0.060	-0.710	1.770
2020/01/31 23:26:21.0	173.860	0.070	-0.750	1.810
2020/01/31 23:26:21.1	173.830	0.080	-0.780	1.860
2020/01/31 23:26:21.2	173.810	0.080	-0.810	1.910
2020/01/31 23:26:21.3	173.790	0.090	-0.830	1.950
2020/01/31 23:26:21.4	173.780	0.090	-0.850	1.990
2020/01/31 23:26:21.5	173.770	0.090	-0.860	2.030
2020/01/31 23:26:21.6	173.750	0.090	-0.870	2.070
2020/01/31 23:26:21.7	173.740	0.080	-0.870	2.100
2020/01/31 23:26:21.8	173.740	0.080	-0.870	2.120
2020/01/31 23:26:21.9	173.730	0.070	-0.850	2.140
2020/01/31 23:26:22.0	173.730	0.060	-0.840	2.160
2020/01/31 23:26:22.1	173.720	0.050	-0.820	2.170
2020/01/31 23:26:22.2	173.720	0.040	-0.790	2.180
2020/01/31 23:26:22.3	173.720	0.020	-0.760	2.180
2020/01/31 23:26:22.4	173.720	0.010	-0.730	2.180
2020/01/31 23:26:22.5	173.730	-0.010	-0.690	2.170
2020/01/31 23:26:22.6	173.740	-0.030	-0.650	2.160
2020/01/31 23:26:22.7	173.740	-0.040	-0.610	2.150
2020/01/31 23:26:22.8	173.750	-0.060	-0.560	2.140
2020/01/31 23:26:22.9	173.760	-0.070	-0.520	2.120
2020/01/31 23:26:23.0	173.770	-0.090	-0.480	2.100
2020/01/31 23:26:23.1	173.770	-0.100	-0.430	2.080
2020/01/31 23:26:23.2	173.780	-0.110	-0.390	2.050
2020/01/31 23:26:23.3	173.790	-0.120	-0.350	2.030
2020/01/31 23:26:23.4	173.790	-0.130	-0.320	2.000
2020/01/31 23:26:23.5	173.800	-0.130	-0.290	1.970
2020/01/31 23:26:23.6	173.810	-0.130	-0.260	1.940
2020/01/31 23:26:23.7	173.810	-0.130	-0.240	1.910
2020/01/31 23:26:23.8	173.810	-0.130	-0.220	1.880
2020/01/31 23:26:23.9	173.820	-0.120	-0.210	1.850
2020/01/31 23:26:24.0	173.820	-0.110	-0.200	1.810
2020/01/31 23:26:24.1	173.820	-0.100	-0.190	1.780
2020/01/31 23:26:24.2	173.820	-0.090	-0.190	1.740
2020/01/31 23:26:24.3	173.820	-0.070	-0.190	1.710
2020/01/31 23:26:24.4	173.820	-0.050	-0.190	1.670
2020/01/31 23:26:24.5	173.820	-0.030	-0.200	1.630
2020/01/31 23:26:24.6	173.830	-0.010	-0.210	1.600
2020/01/31 23:26:24.7	173.830	0.020	-0.220	1.560
2020/01/31 23:26:24.8	173.840	0.040	-0.230	1.520
2020/01/31 23:26:24.9	173.840	0.060	-0.250	1.480
2020/01/31 23:26:25.0	173.860	0.090	-0.260	1.440
2020/01/31 23:26:25.1	173.880	0.110	-0.270	1.390
2020/01/31 23:26:25.2	173.900	0.130	-0.280	1.350
2020/01/31 23:26:25.3	173.920	0.150	-0.290	1.320
2020/01/31 23:26:25.4	173.940	0.170	-0.300	1.280
2020/01/31 23:26:25.5	173.960	0.180	-0.300	1.240
2020/01/31 23:26:25.6	173.980	0.200	-0.300	1.210
2020/01/31 23:26:25.7	174.000	0.210	-0.300	1.180
2020/01/31 23:26:25.8	174.030	0.210	-0.300	1.150
2020/01/31 23:26:25.9	174.060	0.220	-0.290	1.120
2020/01/31 23:26:26.0	174.080	0.220	-0.280	1.100
2020/01/31 23:26:26.1	174.110	0.220	-0.260	1.070
2020/01/31 23:26:26.2	174.140	0.210	-0.240	1.050
2020/01/31 23:26:26.3	174.160	0.210	-0.220	1.040
2020/01/31 23:26:26.4	174.190	0.200	-0.200	1.020
2020/01/31 23:26:26.5	174.210	0.180	-0.180	1.020
2020/01/31 23:26:26.6	174.230	0.170	-0.160	1.010
2020/01/31 23:26:26.7	174.250	0.150	-0.140	1.010
2020/01/31 23:26:26.8	174.270	0.130	-0.110	1.010
2020/01/31 23:26:26.9	174.290	0.110	-0.090	1.020
2020/01/31 23:26:27.0	174.300	0.080	-0.070	1.030
2020/01/31 23:26:27.1	174.310	0.060	-0.050	1.050
2020/01/31 23:26:27.2	174.320	0.030	-0.030	1.070
2020/01/31 23:26:27.3	174.320	0.010	-0.010	1.090
2020/01/31 23:26:27.4	174.330	-0.020	-0.000	1.120
2020/01/31 23:26:27.5	174.330	-0.040	0.010	1.150
2020/01/31 23:26:27.6	174.330	-0.060	0.020	1.190
2020/01/31 23:26:27.7	174.320	-0.090	0.020	1.220
2020/01/31 23:26:27.8	174.320	-0.110	0.020	1.270
2020/01/31 23:26:27.9	174.310	-0.120	0.020	1.310
2020/01/31 23:26:28.0	174.300	-0.140	0.010	1.350
2020/01/31 23:26:28.1	174.290	-0.150	0.000	1.400
2020/01/31 23:26:28.2	174.270	-0.160	-0.010	1.450
2020/01/31 23:26:28.3	174.260	-0.170	-0.030	1.500
2020/01/31 23:26:28.4	174.240	-0.170	-0.050	1.540
2020/01/31 23:26:28.5	174.220	-0.170	-0.080	1.580
2020/01/31 23:26:28.6	174.200	-0.170	-0.110	1.620
2020/01/31 23:26:28.7	174.180	-0.160	-0.140	1.660
2020/01/31 23:26:28.8	174.160	-0.150	-0.170	1.700
2020/01/31 23:26:28.9	174.140	-0.140	-0.200	1.730
2020/01/31 23:26:29.0	174.120	-0.120	-0.230	1.760
2020/01/31 23:26:29.1	174.100	-0.100	-0.270	1.780
2020/01/31 23:26:29.2	174.080	-0.080	-0.300	1.810
2020/01/31 23:26:29.3	174.070	-0.050	-0.330	1.830
2020/01/31 23:26:29.4	174.050	-0.030	-0.350	1.850
2020/01/31 23:26:29.5	174.040	0.000	-0.380	1.860
2020/01/31 23:26:29.6	174.030	0.030	-0.400	1.870
2020/01/31 23:26:29.7	174.030	0.060	-0.410	1.880
2020/01/31 23:26:29.8	174.020	0.090	-0.420	1.890
2020/01/31 23:26:29.9	174.020	0.110	-0.420	1.890
2020/01/31 23:26:30.0	174.020	0.140	-0.420	1.890
2020/01/31 23:26:30.1	174.020	0.170	-0.410	1.890
2020/01/31 23:26:30.2	174.030	0.190	-0.390	1.880
2020/01/31 23:26:30.3	174.040	0.220	-0.370	1.870
2020/01/31 23:26:30.4	174.060	0.240	-0.350	1.860
2020/01/31 23:26:30.5	174.080	0.250	-0.320	1.840
2020/01/31 23:26:30.6	174.100	0.270	-0.280	1.820
2020/01/31 23:26:30.7	174.130	0.280	-0.240	1.800
2020/01/31 23:26:30.8	174.160	0.290	-0.190	1.770
2020/01/31 23:26:30.9	174.190	0.300	-0.140	1.740
2020/01/31 23:26:31.0	174.230	0.300	-0.080	1.710
2020/01/31 23:26:31.1	174.270	0.300	-0.030	1.660
2020/01/31 23:26:31.2	174.310	0.300	0.030	1.620
2020/01/31 23:26:31.3	174.350	0.290	0.090	1.580
2020/01/31 23:26:31.4	174.400	0.280	0.150	1.530
2020/01/31 23:26:31.5	174.440	0.260	0.210	1.480
2020/01/31 23:26:31.6	174.490	0.250	0.270	1.430
2020/01/31 23:26:31.7	174.540	0.230	0.320	1.380
2020/01/31 23:26:31.8	174.590	0.210	0.370	1.320
2020/01/31 23:26:31.9	174.640	0.180	0.420	1.260
2020/01/31 23:26:32.0	174.690	0.150	0.460	1.210
2020/01/31 23:26:32.1	174.730	0.130	0.500	1.150
2020/01/31 23:26:32.2	174.780	0.100	0.520	1.100
2020/01/31 23:26:32.3	174.830	0.070	0.550	1.040
2020/01/31 23:26:32.4	174.870	0.040	0.560	0.990
2020/01/31 23:26:32.5	174.910	0.010	0.570	0.940
2020/01/31 23:26:32.6	174.960	-0.020	0.570	0.890
2020/01/31 23:26:32.7	174.990	-0.050	0.560	0.850
2020/01/31 23:26:32.8	175.030	-0.080	0.540	0.810
2020/01/31 23:26:32.9	175.060	-0.110	0.510	0.770
2020/01/31 23:26:33.0	175.080	-0.130	0.480	0.740
2020/01/31 23:26:33.1	175.100	-0.150	0.440	0.720
2020/01/31 23:26:33.2	175.120	-0.170	0.390	0.700
2020/01/31 23:26:33.3	175.130	-0.190	0.330	0.690
2020/01/31 23:26:33.4	175.140	-0.200	0.260	0.680
2020/01/31 23:26:33.5	175.140	-0.210	0.190	0.680
2020/01/31 23:26:33.6	175.130	-0.210	0.110	0.690
2020/01/31 23:26:33.7	175.120	-0.210	0.020	0.700
2020/01/31 23:26:33.8	175.110	-0.210	-0.070	0.720
2020/01/31 23:26:33.9	175.090	-0.200	-0.170	0.750
2020/01/31 23:26:34.0	175.070	-0.190	-0.270	0.780
2020/01/31 23:26:34.1	175.030	-0.180	-0.380	0.820
2020/01/31 23:26:34.2	175.000	-0.160	-0.480	0.860
2020/01/31 23:26:34.3	174.970	-0.140	-0.590	0.900
2020/01/31 23:26:34.4	174.930	-0.110	-0.700	0.950
2020/01/31 23:26:34.5	174.890	-0.080	-0.800	0.990
2020/01/31 23:26:34.6	174.850	-0.050	-0.910	1.040
2020/01/31 23:26:34.7	174.800	-0.020	-1.010	1.090
2020/01/31 23:26:34.8	174.760	0.010	-1.110	1.140
2020/01/31 23:26:34.9	174.710	0.050	-1.200	1.180
2020/01/31 23:26:35.0	174.670	0.080	-1.280	1.230
2020/01/31 23:26:35.1	174.620	0.120	-1.350	1.270
2020/01/31 23:26:35.2	174.580	0.160	-1.420	1.310
2020/01/31 23:26:35.3	174.530	0.190	-1.480	1.340
2020/01/31 23:26:35.4	174.500	0.230	-1.530	1.370
2020/01/31 23:26:35.5	174.460	0.260	-1.560	1.400
2020/01/31 23:26:35.6	174.430	0.290	-1.590	1.420
2020/01/31 23:26:35.7	174.400	0.310	-1.600	1.430
2020/01/31 23:26:35.8	174.370	0.340	-1.600	1.450
2020/01/31 23:26:35.9	174.350	0.350	-1.590	1.450
2020/01/31 23:26:36.0	174.330	0.370	-1.560	1.460
2020/01/31 23:26:36.1	174.310	0.380	-1.520	1.460
2020/01/31 23:26:36.2	174.300	0.380	-1.480	1.450
2020/01/31 23:26:36.3	174.290	0.380	-1.420	1.450
2020/01/31 23:26:36.4	174.290	0.380	-1.350	1.440
2020/01/31 23:26:36.5	174.290	0.360	-1.270	1.430
2020/01/31 23:26:36.6	174.300	0.350	-1.180	1.420
2020/01/31 23:26:36.7	174.300	0.320	-1.090	1.410
2020/01/31 23:26:36.8	174.320	0.300	-0.990	1.390
2020/01/31 23:26:36.9	174.330	0.260	-0.890	1.380
2020/01/31 23:26:37.0	174.340	0.230	-0.780	1.370
2020/01/31 23:26:37.1	174.360	0.180	-0.660	1.350
2020/01/31 23:26:37.2	174.380	0.140	-0.550	1.340
2020/01/31 23:26:37.3	174.400	0.090	-0.440	1.330
2020/01/31 23:26:37.4	174.420	0.030	-0.330	1.310
2020/01/31 23:26:37.5	174.450	-0.020	-0.220	1.300
2020/01/31 23:26:37.6	174.470	-0.080	-0.120	1.290
2020/01/31 23:26:37.7	174.490	-0.140	-0.020	1.280
2020/01/31 23:26:37.8	174.520	-0.200	0.080	1.280
2020/01/31 23:26:37.9	174.540	-0.260	0.160	1.280
2020/01/31 23:26:38.0	174.560	-0.320	0.240	1.270
2020/01/31 23:26:38.1	174.580	-0.380	0.300	1.270
2020/01/31 23:26:38.2	174.600	-0.440	0.360	1.270
2020/01/31 23:26:38.3	174.610	-0.490	0.400	1.280
2020/01/31 23:26:38.4	174.630	-0.540	0.440	1.290
2020/01/31 23:26:38.5	174.650	-0.590	0.460	1.290
2020/01/31 23:26:38.6	174.660	-0.630	0.470	1.310
2020/01/31 23:26:38.7	174.670	-0.670	0.470	1.320
2020/01/31 23:26:38.8	174.680	-0.710	0.460	1.330
2020/01/31 23:26:38.9	174.690	-0.730	0.440	1.350
2020/01/31 23:26:39.0	174.690	-0.760	0.410	1.370
2020/01/31 23:26:39.1	174.700	-0.770	0.370	1.400
2020/01/31 23:26:39.2	174.700	-0.780	0.320	1.420
2020/01/31 23:26:39.3	174.700	-0.790	0.260	1.440
2020/01/31 23:26:39.4	174.690	-0.780	0.190	1.470
2020/01/31 23:26:39.5	174.690	-0.780	0.120	1.490
2020/01/31 23:26:39.6	174.680	-0.760	0.040	1.520
2020/01/31 23:26:39.7	174.670	-0.740	-0.030	1.550
2020/01/31 23:26:39.8	174.670	-0.720	-0.110	1.580
2020/01/31 23:26:39.9	174.660	-0.690	-0.190	1.610
2020/01/31 23:26:40.0	174.650	-0.660	-0.270	1.640
2020/01/31 23:26:40.1	174.630	-0.620	-0.340	1.660
2020/01/31 23:26:40.2	174.620	-0.580	-0.410	1.690
2020/01/31 23:26:40.3	174.610	-0.530	-0.480	1.720
2020/01/31 23:26:40.4	174.600	-0.490	-0.530	1.750
2020/01/31 23:26:40.5	174.590	-0.440	-0.580	1.770
2020/01/31 23:26:40.6	174.580	-0.390	-0.630	1.800
2020/01/31 23:26:40.7	174.570	-0.340	-0.660	1.820
2020/01/31 23:26:40.8	174.550	-0.280	-0.690	1.840
2020/01/31 23:26:40.9	174.550	-0.230	-0.710	1.860
2020/01/31 23:26:41.0	174.540	-0.180	-0.720	1.870
2020/01/31 23:26:41.1	174.530	-0.130	-0.710	1.880
2020/01/31 23:26:41.2	174.520	-0.080	-0.700	1.890
2020/01/31 23:26:41.3	174.510	-0.030	-0.690	1.890
2020/01/31 23:26:41.4	174.510	0.010	-0.660	1.890
2020/01/31 23:26:41.5	174.510	0.060	-0.620	1.890
2020/01/31 23:26:41.6	174.500	0.100	-0.580	1.880
2020/01/31 23:26:41.7	174.500	0.140	-0.530	1.870
2020/01/31 23:26:41.8	174.500	0.170	-0.480	1.850
2020/01/31 23:26:41.9	174.500	0.200	-0.420	1.830
2020/01/31 23:26:42.0	174.510	0.230	-0.360	1.810
2020/01/31 23:26:42.1	174.520	0.250	-0.290	1.780
2020/01/31 23:26:42.2	174.530	0.270	-0.220	1.750
2020/01/31 23:26:42.3	174.530	0.290	-0.150	1.720
2020/01/31 23:26:42.4	174.540	0.300	-0.070	1.680
2020/01/31 23:26:42.5	174.560	0.310	0.000	1.640
2020/01/31 23:26:42.6	174.570	0.310	0.080	1.590
2020/01/31 23:26:42.7	174.590	0.310	0.150	1.550
2020/01/31 23:26:42.8	174.600	0.310	0.220	1.500
2020/01/31 23:26:42.9	174.620	0.300	0.290	1.450
2020/01/31 23:26:43.0	174.640	0.290	0.350	1.410
2020/01/31 23:26:43.1	174.650	0.280	0.410	1.350
2020/01/31 23:26:43.2	174.670	0.270	0.470	1.310
2020/01/31 23:26:43.3	174.690	0.250	0.520	1.260
2020/01/31 23:26:43.4	174.710	0.230	0.560	1.220
2020/01/31 23:26:43.5	174.720	0.210	0.600	1.180
2020/01/31 23:26:43.6	174.740	0.180	0.630	1.150
2020/01/31 23:26:43.7	174.760	0.160	0.650	1.120
2020/01/31 23:26:43.8	174.770	0.140	0.670	1.090
2020/01/31 23:26:43.9	174.780	0.110	0.670	1.070
2020/01/31 23:26:44.0	174.790	0.080	0.670	1.060
2020/01/31 23:26:44.1	174.800	0.060	0.670	1.050
2020/01/31 23:26:44.2	174.800	0.030	0.650	1.050
2020/01/31 23:26:44.3	174.810	0.010	0.630	1.050
2020/01/31 23:26:44.4	174.810	-0.010	0.590	1.060
2020/01/31 23:26:44.5	174.810	-0.040	0.560	1.070
2020/01/31 23:26:44.6	174.800	-0.060	0.510	1.090
2020/01/31 23:26:44.7	174.800	-0.070	0.460	1.110
2020/01/31 23:26:44.8	174.790	-0.090	0.400	1.130
2020/01/31 23:26:44.9	174.780	-0.100	0.340	1.160
2020/01/31 23:26:45.0	174.780	-0.110	0.270	1.190
2020/01/31 23:26:45.1	174.760	-0.120	0.200	1.220
2020/01/31 23:26:45.2	174.750	-0.120	0.130	1.250
2020/01/31 23:26:45.3	174.740	-0.130	0.060	1.280
2020/01/31 23:26:45.4	174.730	-0.120	-0.020	1.300
2020/01/31 23:26:45.5	174.720	-0.120	-0.100	1.330
2020/01/31 23:26:45.6	174.710	-0.110	-0.180	1.350
2020/01/31 23:26:45.7	174.690	-0.100	-0.250	1.380
2020/01/31 23:26:45.8	174.680	-0.090	-0.330	1.400
2020/01/31 23:26:45.9	174.670	-0.070	-0.400	1.420
2020/01/31 23:26:46.0	174.660	-0.060	-0.460	1.430
2020/01/31 23:26:46.1	174.660	-0.040	-0.530	1.450
2020/01/31 23:26:46.2	174.650	-0.010	-0.580	1.460
2020/01/31 23:26:46.3	174.640	0.010	-0.630	1.480
2020/01/31 23:26:46.4	174.640	0.030	-0.680	1.490
2020/01/31 23:26:46.5	174.640	0.060	-0.710	1.500
2020/01/31 23:26:46.6	174.630	0.080	-0.740	1.500
2020/01/31 23:26:46.7	174.630	0.100	-0.760	1.510
2020/01/31 23:26:46.8	174.630	0.130	-0.770	1.520
2020/01/31 23:26:46.9	174.640	0.150	-0.770	1.520
2020/01/31 23:26:47.0	174.640	0.170	-0.770	1.530
2020/01/31 23:26:47.1	174.630	0.190	-0.750	1.530
2020/01/31 23:26:47.2	174.640	0.210	-0.730	1.530
2020/01/31 23:26:47.3	174.650	0.230	-0.700	1.530
2020/01/31 23:26:47.4	174.660	0.240	-0.660	1.520
2020/01/31 23:26:47.5	174.670	0.250	-0.620	1.520
2020/01/31 23:26:47.6	174.680	0.260	-0.570	1.510
2020/01/31 23:26:47.7	174.690	0.270	-0.520	1.510
2020/01/31 23:26:47.8	174.700	0.270	-0.460	1.500
2020/01/31 23:26:47.9	174.710	0.280	-0.400	1.480
2020/01/31 23:26:48.0	174.720	0.280	-0.340	1.470
2020/01/31 23:26:48.1	174.730	0.270	-0.280	1.460
2020/01/31 23:26:48.2	174.740	0.270	-0.220	1.440
2020/01/31 23:26:48.3	174.750	0.260	-0.170	1.430
2020/01/31 23:26:48.4	174.760	0.260	-0.110	1.410
2020/01/31 23:26:48.5	174.780	0.250	-0.060	1.400
2020/01/31 23:26:48.6	174.790	0.240	-0.020	1.380
2020/01/31 23:26:48.7	174.790	0.230	0.020	1.370
2020/01/31 23:26:48.8	174.800	0.210	0.050	1.360
2020/01/31 23:26:48.9	174.810	0.200	0.070	1.340
2020/01/31 23:26:49.0	174.810	0.190	0.090	1.330
2020/01/31 23:26:49.1	174.810	0.180	0.100	1.320
2020/01/31 23:26:49.2	174.810	0.170	0.100	1.310
2020/01/31 23:26:49.3	174.810	0.160	0.090	1.300
2020/01/31 23:26:49.4	174.810	0.150	0.070	1.290
2020/01/31 23:26:49.5	174.800	0.140	0.050	1.290
2020/01/31 23:26:49.6	174.800	0.140	0.010	1.280
2020/01/31 23:26:49.7	174.790	0.130	-0.030	1.280
2020/01/31 23:26:49.8	174.780	0.130	-0.080	1.280
2020/01/31 23:26:49.9	174.760	0.130	-0.130	1.280
2020/01/31 23:26:50.0	174.750	0.140	-0.190	1.280
2020/01/31 23:26:50.1	174.740	0.140	-0.260	1.290
2020/01/31 23:26:50.2	174.720	0.150	-0.330	1.300
2020/01/31 23:26:50.3	174.700	0.160	-0.400	1.310
2020/01/31 23:26:50.4	174.670	0.170	-0.480	1.320
2020/01/31 23:26:50.5	174.650	0.180	-0.560	1.330
2020/01/31 23:26:50.6	174.630	0.200	-0.640	1.340
2020/01/31 23:26:50.7	174.600	0.210	-0.720	1.360
2020/01/31 23:26:50.8	174.570	0.230	-0.790	1.380
2020/01/31 23:26:50.9	174.550	0.250	-0.870	1.390
2020/01/31 23:26:51.0	174.520	0.270	-0.940	1.410
2020/01/31 23:26:51.1	174.490	0.290	-1.000	1.430
2020/01/31 23:26:51.2	174.470	0.310	-1.060	1.450
2020/01/31 23:26:51.3	174.440	0.330	-1.110	1.470
2020/01/31 23:26:51.4	174.420	0.350	-1.160	1.490
2020/01/31 23:26:51.5	174.400	0.360	-1.200	1.500
2020/01/31 23:26:51.6	174.390	0.380	-1.220	1.520
2020/01/31 23:26:51.7	174.380	0.390	-1.240	1.530
2020/01/31 23:26:51.8	174.370	0.400	-1.240	1.540
2020/01/31 23:26:51.9	174.370	0.410	-1.240	1.550
2020/01/31 23:26:52.0	174.370	0.420	-1.220	1.560
2020/01/31 23:26:52.1	174.380	0.420	-1.190	1.560
2020/01/31 23:26:52.2	174.390	0.420	-1.150	1.560
2020/01/31 23:26:52.3	174.400	0.410	-1.100	1.560
2020/01/31 23:26:52.4	174.420	0.400	-1.040	1.550
2020/01/31 23:26:52.5	174.450	0.390	-0.970	1.540
2020/01/31 23:26:52.6	174.480	0.370	-0.880	1.520
2020/01/31 23:26:52.7	174.510	0.350	-0.800	1.500
2020/01/31 23:26:52.8	174.540	0.320	-0.700	1.480
2020/01/31 23:26:52.9	174.580	0.290	-0.600	1.460
2020/01/31 23:26:53.0	174.630	0.260	-0.490	1.440
2020/01/31 23:26:53.1	174.660	0.220	-0.380	1.410
2020/01/31 23:26:53.2	174.710	0.180	-0.270	1.390
2020/01/31 23:26:53.3	174.760	0.140	-0.160	1.360
2020/01/31 23:26:53.4	174.810	0.090	-0.050	1.340
2020/01/31 23:26:53.5	174.860	0.040	0.060	1.310
2020/01/31 23:26:53.6	174.910	-0.020	0.170	1.290
2020/01/31 23:26:53.7	174.950	-0.070	0.270	1.270
2020/01/31 23:26:53.8	175.000	-0.130	0.360	1.250
2020/01/31 23:26:53.9	175.050	-0.190	0.450	1.240
2020/01/31 23:26:54.0	175.090	-0.250	0.530	1.230
2020/01/31 23:26:54.1	175.120	-0.310	0.600	1.220
2020/01/31 23:26:54.2	175.160	-0.370	0.660	1.220
2020/01/31 23:26:54.3	175.200	-0.430	0.710	1.220
2020/01/31 23:26:54.4	175.230	-0.490	0.750	1.220
2020/01/31 23:26:54.5	175.260	-0.540	0.780	1.230
2020/01/31 23:26:54.6	175.290	-0.590	0.790	1.240
2020/01/31 23:26:54.7	175.310	-0.640	0.800	1.260
2020/01/31 23:26:54.8	175.320	-0.690	0.790	1.290
2020/01/31 23:26:54.9	175.340	-0.730	0.770	1.310
2020/01/31 23:26:55.0	175.340	-0.770	0.730	1.350
2020/01/31 23:26:55.1	175.340	-0.800	0.690	1.380
2020/01/31 23:26:55.2	175.340	-0.830	0.640	1.430
2020/01/31 23:26:55.3	175.340	-0.850	0.570	1.470
2020/01/31 23:26:55.4	175.330	-0.870	0.500	1.520
2020/01/31 23:26:55.5	175.330	-0.880	0.410	1.570
2020/01/31 23:26:55.6	175.320	-0.890	0.330	1.620
2020/01/31 23:26:55.7	175.300	-0.890	0.230	1.680
2020/01/31 23:26:55.8	175.290	-0.880	0.130	1.730
2020/01/31 23:26:55.9	175.280	-0.870	0.030	1.780
2020/01/31 23:26:56.0	175.260	-0.860	-0.080	1.830
2020/01/31 23:26:56.1	175.250	-0.830	-0.180	1.880
2020/01/31 23:26:56.2	175.230	-0.810	-0.290	1.930
2020/01/31 23:26:56.3	175.220	-0.780	-0.390	1.970
2020/01/31 23:26:56.4	175.200	-0.740	-0.490	2.010
2020/01/31 23:26:56.5	175.180	-0.690	-0.590	2.050
2020/01/31 23:26:56.6	175.160	-0.650	-0.680	2.080
2020/01/31 23:26:56.7	175.140	-0.600	-0.770	2.110
2020/01/31 23:26:56.8	175.120	-0.540	-0.840	2.130
2020/01/31 23:26:56.9	175.100	-0.480	-0.910	2.150
2020/01/31 23:26:57.0	175.090	-0.420	-0.970	2.170
2020/01/31 23:26:57.1	175.070	-0.350	-1.030	2.180
2020/01/31 23:26:57.2	175.050	-0.290	-1.070	2.190
2020/01/31 23:26:57.3	175.030	-0.220	-1.110	2.200
2020/01/31 23:26:57.4	175.010	-0.150	-1.130	2.200
2020/01/31 23:26:57.5	174.990	-0.080	-1.150	2.190
2020/01/31 23:26:57.6	174.970	-0.010	-1.160	2.180
2020/01/31 23:26:57.7	174.960	0.060	-1.160	2.170
2020/01/31 23:26:57.8	174.940	0.130	-1.150	2.150
2020/01/31 23:26:57.9	174.920	0.200	-1.130	2.130
2020/01/31 23:26:58.0	174.900	0.270	-1.110	2.110
2020/01/31 23:26:58.1	174.880	0.330	-1.080	2.080
2020/01/31 23:26:58.2	174.870	0.390	-1.040	2.040
2020/01/31 23:26:58.3	174.850	0.450	-1.000	2.010
2020/01/31 23:26:58.4	174.840	0.510	-0.950	1.970
2020/01/31 23:26:58.5	174.820	0.560	-0.890	1.920
2020/01/31 23:26:58.6	174.810	0.610	-0.840	1.880
2020/01/31 23:26:58.7	174.800	0.650	-0.780	1.820
2020/01/31 23:26:58.8	174.790	0.690	-0.710	1.770
2020/01/31 23:26:58.9	174.780	0.720	-0.650	1.710
2020/01/31 23:26:59.0	174.770	0.750	-0.580	1.650
2020/01/31 23:26:59.1	174.780	0.770	-0.510	1.590
2020/01/31 23:26:59.2	174.770	0.790	-0.440	1.530
2020/01/31 23:26:59.3	174.770	0.800	-0.360	1.460
2020/01/31 23:26:59.4	174.780	0.800	-0.290	1.390
2020/01/31 23:26:59.5	174.780	0.800	-0.220	1.330
2020/01/31 23:26:59.6	174.790	0.800	-0.140	1.260
2020/01/31 23:26:59.7	174.800	0.780	-0.070	1.190
2020/01/31 23:26:59.8	174.810	0.770	0.010	1.120
2020/01/31 23:26:59.9	174.820	0.740	0.080	1.060
2020/01/31 23:27:00.0	174.840	0.710	0.150	0.990
2020/01/31 23:27:00.1	174.850	0.680	0.210	0.920
2020/01/31 23:27:00.2	174.870	0.640	0.280	0.860
2020/01/31 23:27:00.3	174.890	0.600	0.340	0.810
2020/01/31 23:27:00.4	174.910	0.550	0.400	0.750
2020/01/31 23:27:00.5	174.930	0.500	0.450	0.700
2020/01/31 23:27:00.6	174.950	0.440	0.500	0.660
2020/01/31 23:27:00.7	174.970	0.380	0.550	0.620
2020/01/31 23:27:00.8	174.990	0.320	0.580	0.580
2020/01/31 23:27:00.9	175.020	0.260	0.620	0.550
2020/01/31 23:27:01.0	175.040	0.190	0.650	0.520
2020/01/31 23:27:01.1	175.070	0.130	0.670	0.510
2020/01/31 23:27:01.2	175.090	0.060	0.680	0.490
2020/01/31 23:27:01.3	175.110	-0.010	0.690	0.490
2020/01/31 23:27:01.4	175.140	-0.080	0.690	0.480
2020/01/31 23:27:01.5	175.160	-0.150	0.690	0.490
2020/01/31 23:27:01.6	175.180	-0.220	0.680	0.500
2020/01/31 23:27:01.7	175.210	-0.290	0.660	0.520
2020/01/31 23:27:01.8	175.230	-0.360	0.630	0.540
2020/01/31 23:27:01.9	175.250	-0.430	0.600	0.570
2020/01/31 23:27:02.0	175.280	-0.490	0.560	0.600
2020/01/31 23:27:02.1	175.300	-0.550	0.520	0.630
2020/01/31 23:27:02.2	175.320	-0.610	0.470	0.670
2020/01/31 23:27:02.3	175.340	-0.660	0.410	0.710
2020/01/31 23:27:02.4	175.360	-0.710	0.350	0.760
2020/01/31 23:27:02.5	175.380	-0.760	0.290	0.810
2020/01/31 23:27:02.6	175.400	-0.800	0.220	0.850
2020/01/31 23:27:02.7	175.420	-0.830	0.150	0.910
2020/01/31 23:27:02.8	175.440	-0.860	0.080	0.960
2020/01/31 23:27:02.9	175.450	-0.890	0.000	1.010
2020/01/31 23:27:03.0	175.470	-0.910	-0.070	1.070
2020/01/31 23:27:03.1	175.480	-0.920	-0.150	1.130
2020/01/31 23:27:03.2	175.490	-0.930	-0.230	1.190
2020/01/31 23:27:03.3	175.500	-0.940	-0.310	1.240
2020/01/31 23:27:03.4	175.510	-0.930	-0.390	1.300
2020/01/31 23:27:03.5	175.520	-0.930	-0.460	1.350
2020/01/31 23:27:03.6	175.520	-0.910	-0.540	1.410
2020/01/31 23:27:03.7	175.520	-0.890	-0.610	1.460
2020/01/31 23:27:03.8	175.520	-0.860	-0.680	1.510
2020/01/31 23:27:03.9	175.520	-0.830	-0.740	1.560
2020/01/31 23:27:04.0	175.510	-0.800	-0.810	1.610
2020/01/31 23:27:04.1	175.490	-0.750	-0.870	1.660
2020/01/31 23:27:04.2	175.480	-0.710	-0.920	1.700
2020/01/31 23:27:04.3	175.470	-0.650	-0.970	1.750
2020/01/31 23:27:04.4	175.450	-0.600	-1.010	1.790
2020/01/31 23:27:04.5	175.430	-0.530	-1.050	1.830
2020/01/31 23:27:04.6	175.410	-0.470	-1.090	1.870
2020/01/31 23:27:04.7	175.390	-0.400	-1.110	1.900
2020/01/31 23:27:04.8	175.370	-0.330	-1.130	1.930
2020/01/31 23:27:04.9	175.340	-0.250	-1.140	1.950
2020/01/31 23:27:05.0	175.310	-0.180	-1.150	1.970
2020/01/31 23:27:05.1	175.290	-0.100	-1.150	1.990
2020/01/31 23:27:05.2	175.260	-0.020	-1.140	2.000
2020/01/31 23:27:05.3	175.240	0.060	-1.130	2.000
2020/01/31 23:27:05.4	175.210	0.140	-1.110	2.000
2020/01/31 23:27:05.5	175.180	0.220	-1.080	1.990
2020/01/31 23:27:05.6	175.160	0.300	-1.040	1.980
2020/01/31 23:27:05.7	175.130	0.370	-1.000	1.950
2020/01/31 23:27:05.8	175.110	0.450	-0.950	1.920
2020/01/31 23:27:05.9	175.090	0.520	-0.900	1.890
2020/01/31 23:27:06.0	175.080	0.590	-0.840	1.850
2020/01/31 23:27:06.1	175.060	0.650	-0.780	1.800
2020/01/31 23:27:06.2	175.050	0.720	-0.710	1.740
2020/01/31 23:27:06.3	175.040	0.770	-0.640	1.680
2020/01/31 23:27:06.4	175.030	0.820	-0.570	1.620
2020/01/31 23:27:06.5	175.030	0.870	-0.500	1.550
2020/01/31 23:27:06.6	175.030	0.910	-0.430	1.480
2020/01/31 23:27:06.7	175.030	0.940	-0.350	1.400
2020/01/31 23:27:06.8	175.040	0.970	-0.280	1.320
2020/01/31 23:27:06.9	175.050	0.990	-0.210	1.240
2020/01/31 23:27:07.0	175.060	1.010	-0.130	1.160
2020/01/31 23:27:07.1	175.060	1.020	-0.070	1.070
2020/01/31 23:27:07.2	175.080	1.020	0.000	0.990
2020/01/31 23:27:07.3	175.100	1.010	0.070	0.910
2020/01/31 23:27:07.4	175.120	1.000	0.130	0.830
2020/01/31 23:27:07.5	175.140	0.980	0.190	0.760
2020/01/31 23:27:07.6	175.160	0.950	0.240	0.690
2020/01/31 23:27:07.7	175.190	0.920	0.290	0.620
2020/01/31 23:27:07.8	175.210	0.880	0.340	0.560
2020/01/31 23:27:07.9	175.240	0.830	0.380	0.510
2020/01/31 23:27:08.0	175.270	0.780	0.420	0.470
2020/01/31 23:27:08.1	175.310	0.720	0.460	0.430
2020/01/31 23:27:08.2	175.340	0.660	0.490	0.400
2020/01/31 23:27:08.3	175.370	0.600	0.510	0.380
2020/01/31 23:27:08.4	175.390	0.530	0.530	0.370
2020/01/31 23:27:08.5	175.420	0.460	0.540	0.370
2020/01/31 23:27:08.6	175.450	0.380	0.540	0.370
2020/01/31 23:27:08.7	175.470	0.310	0.540	0.380
2020/01/31 23:27:08.8	175.500	0.230	0.530	0.400
2020/01/31 23:27:08.9	175.520	0.150	0.520	0.430
2020/01/31 23:27:09.0	175.540	0.070	0.500	0.460
2020/01/31 23:27:09.1	175.550	-0.000	0.470	0.490
2020/01/31 23:27:09.2	175.570	-0.070	0.440	0.530
2020/01/31 23:27:09.3	175.580	-0.140	0.400	0.570
2020/01/31 23:27:09.4	175.600	-0.210	0.360	0.620
2020/01/31 23:27:09.5	175.610	-0.280	0.310	0.670
2020/01/31 23:27:09.6	175.610	-0.340	0.260	0.720
2020/01/31 23:27:09.7	175.620	-0.390	0.200	0.770
2020/01/31 23:27:09.8	175.620	-0.440	0.140	0.820
2020/01/31 23:27:09.9	175.620	-0.480	0.080	0.880
2020/01/31 23:27:10.0	175.620	-0.520	0.020	0.930
2020/01/31 23:27:10.1	175.610	-0.550	-0.050	0.990
2020/01/31 23:27:10.2	175.610	-0.580	-0.120	1.040
2020/01/31 23:27:10.3	175.600	-0.600	-0.180	1.090
2020/01/31 23:27:10.4	175.600	-0.610	-0.250	1.150
2020/01/31 23:27:10.5	175.590	-0.620	-0.310	1.200
2020/01/31 23:27:10.6	175.570	-0.620	-0.370	1.260
2020/01/31 23:27:10.7	175.560	-0.610	-0.430	1.310
2020/01/31 23:27:10.8	175.550	-0.600	-0.490	1.370
2020/01/31 23:27:10.9	175.530	-0.580	-0.550	1.420
2020/01/31 23:27:11.0	175.510	-0.550	-0.600	1.470
2020/01/31 23:27:11.1	175.490	-0.520	-0.650	1.530
2020/01/31 23:27:11.2	175.470	-0.490	-0.700	1.580
2020/01/31 23:27:11.3	175.450	-0.450	-0.740	1.630
2020/01/31 23:27:11.4	175.430	-0.410	-0.780	1.680
2020/01/31 23:27:11.5	175.410	-0.360	-0.820	1.720
2020/01/31 23:27:11.6	175.390	-0.310	-0.850	1.770
2020/01/31 23:27:11.7	175.370	-0.260	-0.870	1.810
2020/01/31 23:27:11.8	175.350	-0.210	-0.890	1.840
2020/01/31 23:27:11.9	175.330	-0.150	-0.910	1.870
2020/01/31 23:27:12.0	175.310	-0.090	-0.910	1.900
2020/01/31 23:27:12.1	175.290	-0.040	-0.920	1.930
2020/01/31 23:27:12.2	175.280	0.020	-0.910	1.940
2020/01/31 23:27:12.3	175.260	0.070	-0.910	1.960
2020/01/31 23:27:12.4	175.250	0.120	-0.890	1.960
2020/01/31 23:27:12.5	175.240	0.170	-0.870	1.960
2020/01/31 23:27:12.6	175.230	0.220	-0.850	1.960
2020/01/31 23:27:12.7	175.230	0.270	-0.820	1.950
2020/01/31 23:27:12.8	175.230	0.310	-0.790	1.930
2020/01/31 23:27:12.9	175.230	0.350	-0.750	1.900
2020/01/31 23:27:13.0	175.230	0.380	-0.710	1.880
2020/01/31 23:27:13.1	175.240	0.410	-0.670	1.840
2020/01/31 23:27:13.2	175.250	0.440	-0.620	1.800
2020/01/31 23:27:13.3	175.270	0.460	-0.570	1.760
2020/01/31 23:27:13.4	175.280	0.470	-0.520	1.710
2020/01/31 23:27:13.5	175.300	0.490	-0.460	1.660
2020/01/31 23:27:13.6	175.320	0.490	-0.410	1.600
2020/01/31 23:27:13.7	175.340	0.490	-0.350	1.550
2020/01/31 23:27:13.8	175.360	0.490	-0.290	1.490
2020/01/31 23:27:13.9	175.390	0.480	-0.240	1.430
2020/01/31 23:27:14.0	175.420	0.470	-0.180	1.380
2020/01/31 23:27:14.1	175.440	0.450	-0.130	1.320
2020/01/31 23:27:14.2	175.470	0.430	-0.080	1.260
2020/01/31 23:27:14.3	175.490	0.400	-0.030	1.210
2020/01/31 23:27:14.4	175.520	0.380	0.010	1.160
2020/01/31 23:27:14.5	175.550	0.340	0.050	1.110
2020/01/31 23:27:14.6	175.570	0.310	0.080	1.070
2020/01/31 23:27:14.7	175.590	0.270	0.100	1.030
2020/01/31 23:27:14.8	175.620	0.230	0.130	1.000
2020/01/31 23:27:14.9	175.640	0.190	0.140	0.970
2020/01/31 23:27:15.0	175.660	0.150	0.150	0.950
2020/01/31 23:27:15.1	175.680	0.110	0.150	0.920
2020/01/31 23:27:15.2	175.690	0.070	0.150	0.910
2020/01/31 23:27:15.3	175.710	0.020	0.150	0.900
2020/01/31 23:27:15.4	175.720	-0.020	0.140	0.900
2020/01/31 23:27:15.5	175.740	-0.060	0.120	0.900
2020/01/31 23:27:15.6	175.750	-0.100	0.100	0.910
2020/01/31 23:27:15.7	175.760	-0.140	0.070	0.920
2020/01/31 23:27:15.8	175.770	-0.180	0.050	0.940
2020/01/31 23:27:15.9	175.780	-0.220	0.010	0.960
2020/01/31 23:27:16.0	175.780	-0.250	-0.020	0.980
2020/01/31 23:27:16.1	175.790	-0.280	-0.060	1.000
2020/01/31 23:27:16.2	175.790	-0.310	-0.100	1.030
2020/01/31 23:27:16.3	175.790	-0.340	-0.140	1.060
2020/01/31 23:27:16.4	175.800	-0.360	-0.180	1.080
2020/01/31 23:27:16.5	175.800	-0.380	-0.230	1.110
2020/01/31 23:27:16.6	175.800	-0.390	-0.280	1.140
2020/01/31 23:27:16.7	175.800	-0.400	-0.320	1.170
2020/01/31 23:27:16.8	175.790	-0.410	-0.370	1.200
2020/01/31 23:27:16.9	175.790	-0.410	-0.420	1.230
2020/01/31 23:27:17.0	175.790	-0.410	-0.470	1.250
2020/01/31 23:27:17.1	175.780	-0.410	-0.520	1.280
2020/01/31 23:27:17.2	175.770	-0.400	-0.570	1.310
2020/01/31 23:27:17.3	175.760	-0.390	-0.610	1.330
2020/01/31 23:27:17.4	175.740	-0.370	-0.660	1.360
2020/01/31 23:27:17.5	175.730	-0.350	-0.700	1.380
2020/01/31 23:27:17.6	175.720	-0.330	-0.740	1.410
2020/01/31 23:27:17.7	175.700	-0.300	-0.780	1.430
2020/01/31 23:27:17.8	175.680	-0.270	-0.820	1.450
2020/01/31 23:27:17.9	175.660	-0.240	-0.850	1.470
2020/01/31 23:27:18.0	175.630	-0.210	-0.880	1.490
2020/01/31 23:27:18.1	175.610	-0.170	-0.900	1.520
2020/01/31 23:27:18.2	175.580	-0.130	-0.920	1.540
2020/01/31 23:27:18.3	175.560	-0.090	-0.940	1.550
2020/01/31 23:27:18.4	175.530	-0.050	-0.950	1.570
2020/01/31 23:27:18.5	175.500	-0.010	-0.960	1.580
2020/01/31 23:27:18.6	175.480	0.020	-0.960	1.590
2020/01/31 23:27:18.7	175.450	0.060	-0.950	1.600
2020/01/31 23:27:18.8	175.420	0.100	-0.940	1.610
2020/01/31 23:27:18.9	175.400	0.140	-0.920	1.610
2020/01/31 23:27:19.0	175.380	0.170	-0.900	1.610
2020/01/31 23:27:19.1	175.360	0.200	-0.870	1.610
2020/01/31 23:27:19.2	175.340	0.220	-0.830	1.610
2020/01/31 23:27:19.3	175.320	0.250	-0.790	1.600
2020/01/31 23:27:19.4	175.310	0.270	-0.740	1.590
2020/01/31 23:27:19.5	175.300	0.280	-0.680	1.570
2020/01/31 23:27:19.6	175.300	0.290	-0.620	1.560
2020/01/31 23:27:19.7	175.300	0.300	-0.550	1.540
2020/01/31 23:27:19.8	175.300	0.300	-0.480	1.520
2020/01/31 23:27:19.9	175.310	0.290	-0.410	1.490
2020/01/31 23:27:20.0	175.320	0.280	-0.330	1.470
2020/01/31 23:27:20.1	175.340	0.270	-0.250	1.440
2020/01/31 23:27:20.2	175.360	0.250	-0.160	1.410
2020/01/31 23:27:20.3	175.390	0.230	-0.080	1.380
2020/01/31 23:27:20.4	175.410	0.200	0.000	1.350
2020/01/31 23:27:20.5	175.440	0.170	0.080	1.320
2020/01/31 23:27:20.6	175.480	0.130	0.160	1.290
2020/01/31 23:27:20.7	175.510	0.090	0.240	1.270
2020/01/31 23:27:20.8	175.550	0.050	0.320	1.240
2020/01/31 23:27:20.9	175.590	0.010	0.390	1.210
2020/01/31 23:27:21.0	175.630	-0.040	0.460	1.180
2020/01/31 23:27:21.1	175.670	-0.090	0.520	1.150
2020/01/31 23:27:21.2	175.710	-0.130	0.580	1.130
2020/01/31 23:27:21.3	175.750	-0.180	0.630	1.100
2020/01/31 23:27:21.4	175.790	-0.230	0.680	1.080
2020/01/31 23:27:21.5	175.840	-0.280	0.720	1.060
2020/01/31 23:27:21.6	175.880	-0.320	0.750	1.040
2020/01/31 23:27:21.7	175.920	-0.370	0.780	1.030
2020/01/31 23:27:21.8	175.960	-0.410	0.790	1.010
2020/01/31 23:27:21.9	176.000	-0.450	0.800	1.000
2020/01/31 23:27:22.0	176.030	-0.480	0.810	0.990
2020/01/31 23:27:22.1	176.070	-0.510	0.810	0.990
2020/01/31 23:27:22.2	176.100	-0.540	0.790	0.990
2020/01/31 23:27:22.3	176.130	-0.560	0.770	0.990
2020/01/31 23:27:22.4	176.160	-0.580	0.740	0.990
2020/01/31 23:27:22.5	176.190	-0.590	0.700	0.990
2020/01/31 23:27:22.6	176.210	-0.600	0.660	1.000
2020/01/31 23:27:22.7	176.230	-0.600	0.610	1.010
2020/01/31 23:27:22.8	176.250	-0.600	0.560	1.020
2020/01/31 23:27:22.9	176.270	-0.590	0.500	1.030
2020/01/31 23:27:23.0	176.280	-0.570	0.430	1.040
2020/01/31 23:27:23.1	176.300	-0.550	0.370	1.050
2020/01/31 23:27:23.2	176.310	-0.530	0.300	1.070
2020/01/31 23:27:23.3	176.320	-0.500	0.230	1.080
2020/01/31 23:27:23.4	176.330	-0.460	0.160	1.100
2020/01/31 23:27:23.5	176.340	-0.420	0.090	1.110
2020/01/31 23:27:23.6	176.350	-0.370	0.020	1.130
2020/01/31 23:27:23.7	176.350	-0.330	-0.050	1.140
2020/01/31 23:27:23.8	176.360	-0.270	-0.110	1.150
2020/01/31 23:27:23.9	176.370	-0.220	-0.180	1.170
2020/01/31 23:27:24.0	176.370	-0.160	-0.240	1.170
2020/01/31 23:27:24.1	176.390	-0.110	-0.290	1.180
2020/01/31 23:27:24.2	176.400	-0.050	-0.340	1.190
2020/01/31 23:27:24.3	176.410	0.020	-0.390	1.200
2020/01/31 23:27:24.4	176.420	0.080	-0.430	1.200
2020/01/31 23:27:24.5	176.430	0.140	-0.470	1.200
2020/01/31 23:27:24.6	176.440	0.200	-0.510	1.210
2020/01/31 23:27:24.7	176.450	0.260	-0.540	1.210
2020/01/31 23:27:24.8	176.460	0.310	-0.560	1.210
2020/01/31 23:27:24.9	176.470	0.370	-0.580	1.200
2020/01/31 23:27:25.0	176.490	0.420	-0.590	1.200
2020/01/31 23:27:25.1	176.500	0.470	-0.610	1.200
2020/01/31 23:27:25.2	176.510	0.520	-0.610	1.190
2020/01/31 23:27:25.3	176.530	0.560	-0.610	1.180
2020/01/31 23:27:25.4	176.540	0.600	-0.610	1.170
2020/01/31 23:27:25.5	176.560	0.630	-0.610	1.160
2020/01/31 23:27:25.6	176.580	0.660	-0.600	1.150
2020/01/31 23:27:25.7	176.590	0.690	-0.580	1.140
2020/01/31 23:27:25.8	176.610	0.710	-0.570	1.120
2020/01/31 23:27:25.9	176.620	0.730	-0.550	1.110
2020/01/31 23:27:26.0	176.630	0.740	-0.530	1.090
2020/01/31 23:27:26.1	176.640	0.750	-0.510	1.080
2020/01/31 23:27:26.2	176.650	0.750	-0.490	1.060
2020/01/31 23:27:26.3	176.660	0.750	-0.470	1.040
2020/01/31 23:27:26.4	176.670	0.740	-0.450	1.030
2020/01/31 23:27:26.5	176.680	0.730	-0.430	1.010
2020/01/31 23:27:26.6	176.690	0.720	-0.410	1.000
2020/01/31 23:27:26.7	176.690	0.710	-0.390	0.990
2020/01/31 23:27:26.8	176.690	0.690	-0.370	0.980
2020/01/31 23:27:26.9	176.700	0.670	-0.360	0.970
2020/01/31 23:27:27.0	176.700	0.640	-0.340	0.960
2020/01/31 23:27:27.1	176.690	0.610	-0.330	0.950
2020/01/31 23:27:27.2	176.690	0.590	-0.320	0.950
2020/01/31 23:27:27.3	176.680	0.560	-0.320	0.950
2020/01/31 23:27:27.4	176.680	0.530	-0.310	0.950
2020/01/31 23:27:27.5	176.670	0.500	-0.310	0.950
2020/01/31 23:27:27.6	176.660	0.470	-0.320	0.960
2020/01/31 23:27:27.7	176.650	0.440	-0.320	0.970
2020/01/31 23:27:27.8	176.650	0.410	-0.330	0.970
2020/01/31 23:27:27.9	176.640	0.380	-0.340	0.980
2020/01/31 23:27:28.0	176.630	0.350	-0.360	1.000
2020/01/31 23:27:28.1	176.600	0.330	-0.380	1.010
2020/01/31 23:27:28.2	176.590	0.310	-0.400	1.020
2020/01/31 23:27:28.3	176.570	0.290	-0.420	1.030
2020/01/31 23:27:28.4	176.560	0.270	-0.440	1.040
2020/01/31 23:27:28.5	176.550	0.250	-0.470	1.050
2020/01/31 23:27:28.6	176.540	0.230	-0.490	1.060
2020/01/31 23:27:28.7	176.530	0.220	-0.520	1.070
2020/01/31 23:27:28.8	176.530	0.210	-0.540	1.070
2020/01/31 23:27:28.9	176.520	0.200	-0.560	1.080
2020/01/31 23:27:29.0	176.510	0.180	-0.580	1.080
2020/01/31 23:27:29.1	176.500	0.170	-0.600	1.080
2020/01/31 23:27:29.2	176.500	0.170	-0.620	1.080
2020/01/31 23:27:29.3	176.500	0.160	-0.630	1.080
2020/01/31 23:27:29.4	176.500	0.150	-0.640	1.080
2020/01/31 23:27:29.5	176.500	0.140	-0.650	1.080
2020/01/31 23:27:29.6	176.500	0.120	-0.650	1.080
2020/01/31 23:27:29.7	176.510	0.110	-0.640	1.090
2020/01/31 23:27:29.8	176.520	0.100	-0.640	1.090
2020/01/31 23:27:29.9	176.530	0.080	-0.630	1.090
2020/01/31 23:27:30.0	176.540	0.070	-0.610	1.100
2020/01/31 23:27:30.1	176.550	0.050	-0.590	1.110
2020/01/31 23:27:30.2	176.570	0.030	-0.570	1.110
2020/01/31 23:27:30.3	176.590	0.000	-0.540	1.120
2020/01/31 23:27:30.4	176.610	-0.020	-0.510	1.130
2020/01/31 23:27:30.5	176.630	-0.050	-0.480	1.140
2020/01/31 23:27:30.6	176.650	-0.080	-0.440	1.160
2020/01/31 23:27:30.7	176.680	-0.110	-0.400	1.170
2020/01/31 23:27:30.8	176.700	-0.140	-0.360	1.180
2020/01/31 23:27:30.9	176.730	-0.170	-0.320	1.200
2020/01/31 23:27:31.0	176.760	-0.210	-0.280	1.210
2020/01/31 23:27:31.1	176.780	-0.240	-0.230	1.230
2020/01/31 23:27:31.2	176.810	-0.280	-0.190	1.240
2020/01/31 23:27:31.3	176.840	-0.320	-0.150	1.260
2020/01/31 23:27:31.4	176.870	-0.350	-0.100	1.270
2020/01/31 23:27:31.5	176.910	-0.390	-0.060	1.280
2020/01/31 23:27:31.6	176.940	-0.430	-0.020	1.290
2020/01/31 23:27:31.7	176.970	-0.460	0.010	1.300
2020/01/31 23:27:31.8	177.010	-0.490	0.050	1.300
2020/01/31 23:27:31.9	177.040	-0.520	0.080	1.310
2020/01/31 23:27:32.0	177.070	-0.550	0.110	1.310
2020/01/31 23:27:32.1	177.100	-0.580	0.130	1.310
2020/01/31 23:27:32.2	177.130	-0.600	0.150	1.310
2020/01/31 23:27:32.3	177.150	-0.620	0.170	1.310
2020/01/31 23:27:32.4	177.180	-0.630	0.180	1.300
2020/01/31 23:27:32.5	177.200	-0.650	0.180	1.290
2020/01/31 23:27:32.6	177.230	-0.650	0.180	1.280
2020/01/31 23:27:32.7	177.240	-0.650	0.170	1.270
2020/01/31 23:27:32.8	177.260	-0.650	0.150	1.260
2020/01/31 23:27:32.9	177.270	-0.640	0.130	1.250
2020/01/31 23:27:33.0	177.280	-0.620	0.100	1.240
2020/01/31 23:27:33.1	177.270	-0.600	0.070	1.240
2020/01/31 23:27:33.2	177.270	-0.580	0.030	1.230
2020/01/31 23:27:33.3	177.270	-0.550	-0.020	1.220
2020/01/31 23:27:33.4	177.270	-0.510	-0.080	1.220
2020/01/31 23:27:33.5	177.260	-0.470	-0.140	1.210
2020/01/31 23:27:33.6	177.250	-0.420	-0.200	1.210
2020/01/31 23:27:33.7	177.240	-0.380	-0.270	1.210
2020/01/31 23:27:33.8	177.220	-0.320	-0.340	1.210
2020/01/31 23:27:33.9	177.200	-0.270	-0.420	1.210
2020/01/31 23:27:34.0	177.180	-0.210	-0.490	1.210
2020/01/31 23:27:34.1	177.160	-0.150	-0.570	1.210
2020/01/31 23:27:34.2	177.140	-0.090	-0.640	1.220
2020/01/31 23:27:34.3	177.110	-0.030	-0.710	1.220
2020/01/31 23:27:34.4	177.090	0.030	-0.780	1.230
2020/01/31 23:27:34.5	177.060	0.100	-0.850	1.240
2020/01/31 23:27:34.6	177.030	0.160	-0.910	1.250
2020/01/31 23:27:34.7	177.010	0.220	-0.960	1.250
2020/01/31 23:27:34.8	176.980	0.270	-1.010	1.260
2020/01/31 23:27:34.9	176.950	0.330	-1.050	1.270
2020/01/31 23:27:35.0	176.930	0.380	-1.080	1.280
2020/01/31 23:27:35.1	176.900	0.420	-1.110	1.280
2020/01/31 23:27:35.2	176.880	0.470	-1.120	1.290
2020/01/31 23:27:35.3	176.860	0.500	-1.120	1.290
2020/01/31 23:27:35.4	176.840	0.540	-1.110	1.290
2020/01/31 23:27:35.5	176.820	0.560	-1.100	1.290
2020/01/31 23:27:35.6	176.800	0.590	-1.070	1.290
2020/01/31 23:27:35.7	176.790	0.600	-1.030	1.290
2020/01/31 23:27:35.8	176.780	0.610	-0.980	1.280
2020/01/31 23:27:35.9	176.770	0.610	-0.920	1.280
2020/01/31 23:27:36.0	176.760	0.610	-0.850	1.270
2020/01/31 23:27:36.1	176.750	0.590	-0.770	1.250
2020/01/31 23:27:36.2	176.760	0.580	-0.680	1.240
2020/01/31 23:27:36.3	176.760	0.550	-0.580	1.220
2020/01/31 23:27:36.4	176.770	0.520	-0.470	1.210
2020/01/31 23:27:36.5	176.780	0.480	-0.360	1.190
2020/01/31 23:27:36.6	176.790	0.440	-0.240	1.170
2020/01/31 23:27:36.7	176.810	0.390	-0.120	1.150
2020/01/31 23:27:36.8	176.830	0.330	0.000	1.120
2020/01/31 23:27:36.9	176.850	0.280	0.130	1.100
2020/01/31 23:27:37.0	176.870	0.210	0.250	1.080
2020/01/31 23:27:37.1	176.880	0.150	0.380	1.060
2020/01/31 23:27:37.2	176.900	0.080	0.500	1.040
2020/01/31 23:27:37.3	176.930	0.000	0.620	1.020
2020/01/31 23:27:37.4	176.960	-0.070	0.730	1.000
2020/01/31 23:27:37.5	176.990	-0.140	0.830	0.990
2020/01/31 23:27:37.6	177.020	-0.220	0.930	0.970
2020/01/31 23:27:37.7	177.050	-0.290	1.020	0.960
2020/01/31 23:27:37.8	177.080	-0.360	1.090	0.950
2020/01/31 23:27:37.9	177.110	-0.430	1.160	0.940
2020/01/31 23:27:38.0	177.140	-0.500	1.220	0.930
2020/01/31 23:27:38.1	177.150	-0.560	1.260	0.920
2020/01/31 23:27:38.2	177.180	-0.620	1.280	0.920
2020/01/31 23:27:38.3	177.210	-0.680	1.300	0.920
2020/01/31 23:27:38.4	177.230	-0.730	1.300	0.930
2020/01/31 23:27:38.5	177.260	-0.770	1.290	0.940
2020/01/31 23:27:38.6	177.280	-0.810	1.270	0.950
2020/01/31 23:27:38.7	177.300	-0.840	1.230	0.960
2020/01/31 23:27:38.8	177.310	-0.860	1.180	0.980
2020/01/31 23:27:38.9	177.330	-0.870	1.110	0.990
2020/01/31 23:27:39.0	177.340	-0.880	1.040	1.020
2020/01/31 23:27:39.1	177.350	-0.880	0.950	1.040
2020/01/31 23:27:39.2	177.360	-0.870	0.850	1.060
2020/01/31 23:27:39.3	177.360	-0.850	0.750	1.090
2020/01/31 23:27:39.4	177.360	-0.830	0.630	1.120
2020/01/31 23:27:39.5	177.360	-0.800	0.510	1.150
2020/01/31 23:27:39.6	177.360	-0.760	0.390	1.180
2020/01/31 23:27:39.7	177.350	-0.720	0.260	1.210
2020/01/31 23:27:39.8	177.350	-0.670	0.120	1.240
2020/01/31 23:27:39.9	177.340	-0.610	-0.010	1.270
2020/01/31 23:27:40.0	177.330	-0.550	-0.150	1.290
2020/01/31 23:27:40.1	177.340	-0.490	-0.290	1.330
2020/01/31 23:27:40.2	177.330	-0.420	-0.420	1.350
2020/01/31 23:27:40.3	177.310	-0.350	-0.550	1.380
2020/01/31 23:27:40.4	177.300	-0.270	-0.670	1.410
2020/01/31 23:27:40.5	177.280	-0.200	-0.790	1.440
2020/01/31 23:27:40.6	177.260	-0.120	-0.910	1.460
2020/01/31 23:27:40.7	177.240	-0.050	-1.010	1.490
2020/01/31 23:27:40.8	177.220	0.030	-1.110	1.520
2020/01/31 23:27:40.9	177.200	0.100	-1.200	1.540
2020/01/31 23:27:41.0	177.180	0.180	-1.270	1.570
2020/01/31 23:27:41.1	177.160	0.240	-1.340	1.590
2020/01/31 23:27:41.2	177.130	0.310	-1.400	1.620
2020/01/31 23:27:41.3	177.110	0.370	-1.440	1.640
2020/01/31 23:27:41.4	177.090	0.430	-1.470	1.660
2020/01/31 23:27:41.5	177.070	0.490	-1.490	1.670
2020/01/31 23:27:41.6	177.050	0.540	-1.500	1.680
2020/01/31 23:27:41.7	177.040	0.580	-1.500	1.690
2020/01/31 23:27:41.8	177.020	0.620	-1.480	1.700
2020/01/31 23:27:41.9	177.010	0.650	-1.460	1.710
2020/01/31 23:27:42.0	176.990	0.680	-1.420	1.710
2020/01/31 23:27:42.1	177.000	0.700	-1.370	1.700
2020/01/31 23:27:42.2	176.990	0.720	-1.320	1.690
2020/01/31 23:27:42.3	176.980	0.730	-1.250	1.680
2020/01/31 23:27:42.4	176.980	0.730	-1.180	1.660
2020/01/31 23:27:42.5	176.980	0.730	-1.100	1.640
2020/01/31 23:27:42.6	176.970	0.730	-1.010	1.620
2020/01/31 23:27:42.7	176.970	0.720	-0.910	1.590
2020/01/31 23:27:42.8	176.980	0.710	-0.820	1.560
2020/01/31 23:27:42.9	176.980	0.690	-0.710	1.520
2020/01/31 23:27:43.0	176.990	0.670	-0.610	1.480
2020/01/31 23:27:43.1	176.990	0.640	-0.500	1.440
2020/01/31 23:27:43.2	177.000	0.620	-0.400	1.400
2020/01/31 23:27:43.3	177.010	0.590	-0.290	1.350
2020/01/31 23:27:43.4	177.010	0.560	-0.190	1.310
2020/01/31 23:27:43.5	177.020	0.530	-0.090	1.260
2020/01/31 23:27:43.6	177.030	0.500	0.010	1.210
2020/01/31 23:27:43.7	177.040	0.470	0.100	1.160
2020/01/31 23:27:43.8	177.060	0.440	0.180	1.110
2020/01/31 23:27:43.9	177.070	0.410	0.260	1.060
2020/01/31 23:27:44.0	177.080	0.380	0.330	1.010
2020/01/31 23:27:44.1	177.080	0.360	0.400	0.960
2020/01/31 23:27:44.2	177.090	0.330	0.460	0.920
2020/01/31 23:27:44.3	177.100	0.310	0.500	0.870
2020/01/31 23:27:44.4	177.110	0.280	0.540	0.830
2020/01/31 23:27:44.5	177.120	0.260	0.580	0.790
2020/01/31 23:27:44.6	177.140	0.240	0.600	0.750
2020/01/31 23:27:44.7	177.150	0.220	0.610	0.720
2020/01/31 23:27:44.8	177.160	0.210	0.610	0.690
2020/01/31 23:27:44.9	177.170	0.190	0.610	0.660
2020/01/31 23:27:45.0	177.180	0.180	0.590	0.640
2020/01/31 23:27:45.1	177.190	0.170	0.570	0.610
2020/01/31 23:27:45.2	177.200	0.160	0.540	0.600
2020/01/31 23:27:45.3	177.210	0.150	0.500	0.590
2020/01/31 23:27:45.4	177.220	0.140	0.460	0.590
2020/01/31 23:27:45.5	177.230	0.130	0.410	0.590
2020/01/31 23:27:45.6	177.240	0.120	0.350	0.590
2020/01/31 23:27:45.7	177.250	0.110	0.300	0.600
2020/01/31 23:27:45.8	177.250	0.110	0.230	0.620
2020/01/31 23:27:45.9	177.260	0.100	0.170	0.640
2020/01/31 23:27:46.0	177.260	0.090	0.100	0.660
2020/01/31 23:27:46.1	177.270	0.080	0.040	0.690
2020/01/31 23:27:46.2	177.270	0.070	-0.030	0.720
2020/01/31 23:27:46.3	177.270	0.050	-0.100	0.750
2020/01/31 23:27:46.4	177.270	0.040	-0.160	0.780
2020/01/31 23:27:46.5	177.270	0.020	-0.230	0.820
2020/01/31 23:27:46.6	177.270	0.010	-0.290	0.860
2020/01/31 23:27:46.7	177.270	-0.010	-0.350	0.910
2020/01/31 23:27:46.8	177.270	-0.030	-0.410	0.950
2020/01/31 23:27:46.9	177.270	-0.050	-0.460	1.000
2020/01/31 23:27:47.0	177.270	-0.070	-0.500	1.050
2020/01/31 23:27:47.1	177.270	-0.090	-0.550	1.100
2020/01/31 23:27:47.2	177.260	-0.120	-0.590	1.160
2020/01/31 23:27:47.3	177.260	-0.140	-0.620	1.210
2020/01/31 23:27:47.4	177.260	-0.170	-0.650	1.260
2020/01/31 23:27:47.5	177.260	-0.190	-0.670	1.310
2020/01/31 23:27:47.6	177.250	-0.220	-0.690	1.370
2020/01/31 23:27:47.7	177.250	-0.240	-0.710	1.420
2020/01/31 23:27:47.8	177.240	-0.270	-0.720	1.470
2020/01/31 23:27:47.9	177.240	-0.290	-0.720	1.520
2020/01/31 23:27:48.0	177.230	-0.320	-0.730	1.570
2020/01/31 23:27:48.1	177.230	-0.340	-0.720	1.610
2020/01/31 23:27:48.2	177.230	-0.360	-0.720	1.660
2020/01/31 23:27:48.3	177.220	-0.380	-0.720	1.700
2020/01/31 23:27:48.4	177.210	-0.400	-0.710	1.750
2020/01/31 23:27:48.5	177.200	-0.410	-0.700	1.790
2020/01/31 23:27:48.6	177.200	-0.420	-0.700	1.820
2020/01/31 23:27:48.7	177.190	-0.430	-0.690	1.860
2020/01/31 23:27:48.8	177.180	-0.430	-0.680	1.890
2020/01/31 23:27:48.9	177.170	-0.430	-0.670	1.920
2020/01/31 23:27:49.0	177.160	-0.430	-0.660	1.950
2020/01/31 23:27:49.1	177.140	-0.420	-0.660	1.980
2020/01/31 23:27:49.2	177.120	-0.410	-0.660	2.010
2020/01/31 23:27:49.3	177.110	-0.400	-0.660	2.030
2020/01/31 23:27:49.4	177.090	-0.380	-0.660	2.060
2020/01/31 23:27:49.5	177.070	-0.360	-0.660	2.080
2020/01/31 23:27:49.6	177.050	-0.330	-0.660	2.100
2020/01/31 23:27:49.7	177.030	-0.300	-0.670	2.120
2020/01/31 23:27:49.8	177.000	-0.270	-0.680	2.140
2020/01/31 23:27:49.9	176.970	-0.240	-0.690	2.160
2020/01/31 23:27:50.0	176.940	-0.200	-0.700	2.170
2020/01/31 23:27:50.1	176.920	-0.160	-0.710	2.190
2020/01/31 23:27:50.2	176.880	-0.120	-0.720	2.200
2020/01/31 23:27:50.3	176.850	-0.080	-0.730	2.220
2020/01/31 23:27:50.4	176.810	-0.040	-0.740	2.230
2020/01/31 23:27:50.5	176.770	-0.000	-0.750	2.240
2020/01/31 23:27:50.6	176.730	0.040	-0.760	2.250
2020/01/31 23:27:50.7	176.690	0.080	-0.770	2.250
2020/01/31 23:27:50.8	176.650	0.120	-0.780	2.260
2020/01/31 23:27:50.9	176.610	0.160	-0.780	2.250
2020/01/31 23:27:51.0	176.570	0.190	-0.780	2.250
2020/01/31 23:27:51.1	176.550	0.220	-0.780	2.240
2020/01/31 23:27:51.2	176.510	0.250	-0.780	2.230
2020/01/31 23:27:51.3	176.470	0.280	-0.770	2.220
2020/01/31 23:27:51.4	176.430	0.300	-0.750	2.200
2020/01/31 23:27:51.5	176.400	0.320	-0.730	2.180
2020/01/31 23:27:51.6	176.370	0.330	-0.710	2.150
2020/01/31 23:27:51.7	176.340	0.340	-0.680	2.120
2020/01/31 23:27:51.8	176.310	0.350	-0.640	2.090
2020/01/31 23:27:51.9	176.290	0.350	-0.600	2.060
2020/01/31 23:27:52.0	176.270	0.350	-0.550	2.020
2020/01/31 23:27:52.1	176.270	0.340	-0.500	1.970
2020/01/31 23:27:52.2	176.260	0.320	-0.450	1.930
2020/01/31 23:27:52.3	176.260	0.300	-0.390	1.880
2020/01/31 23:27:52.4	176.260	0.280	-0.320	1.830
2020/01/31 23:27:52.5	176.260	0.250	-0.260	1.780
2020/01/31 23:27:52.6	176.270	0.220	-0.180	1.730
2020/01/31 23:27:52.7	176.290	0.180	-0.110	1.670
2020/01/31 23:27:52.8	176.310	0.140	-0.030	1.620
2020/01/31 23:27:52.9	176.330	0.090	0.040	1.560
2020/01/31 23:27:53.0	176.360	0.040	0.120	1.510
2020/01/31 23:27:53.1	176.390	-0.010	0.200	1.450
2020/01/31 23:27:53.2	176.420	-0.060	0.280	1.400
2020/01/31 23:27:53.3	176.460	-0.120	0.350	1.350
2020/01/31 23:27:53.4	176.500	-0.180	0.430	1.300
2020/01/31 23:27:53.5	176.540	-0.230	0.490	1.260
2020/01/31 23:27:53.6	176.580	-0.290	0.560	1.210
2020/01/31 23:27:53.7	176.620	-0.350	0.620	1.170
2020/01/31 23:27:53.8	176.670	-0.410	0.670	1.130
2020/01/31 23:27:53.9	176.710	-0.460	0.720	1.100
2020/01/31 23:27:54.0	176.760	-0.510	0.760	1.060
2020/01/31 23:27:54.1	176.810	-0.560	0.790	1.030
2020/01/31 23:27:54.2	176.850	-0.610	0.810	1.010
2020/01/31 23:27:54.3	176.900	-0.650	0.830	0.980
2020/01/31 23:27:54.4	176.940	-0.690	0.840	0.960
2020/01/31 23:27:54.5	176.990	-0.730	0.840	0.950
2020/01/31 23:27:54.6	177.030	-0.750	0.830	0.930
2020/01/31 23:27:54.7	177.070	-0.780	0.820	0.920
2020/01/31 23:27:54.8	177.110	-0.790	0.790	0.920
2020/01/31 23:27:54.9	177.150	-0.800	0.760	0.910
2020/01/31 23:27:55.0	177.180	-0.810	0.720	0.910
2020/01/31 23:27:55.1	177.210	-0.800	0.670	0.920
2020/01/31 23:27:55.2	177.240	-0.800	0.620	0.920
2020/01/31 23:27:55.3	177.260	-0.780	0.560	0.930
2020/01/31 23:27:55.4	177.290	-0.760	0.490	0.940
2020/01/31 23:27:55.5	177.300	-0.730	0.420	0.960
2020/01/31 23:27:55.6	177.320	-0.690	0.340	0.970
2020/01/31 23:27:55.7	177.330	-0.650	0.260	0.990
2020/01/31 23:27:55.8	177.340	-0.600	0.170	1.010
2020/01/31 23:27:55.9	177.350	-0.540	0.080	1.030
2020/01/31 23:27:56.0	177.350	-0.480	-0.000	1.060
2020/01/31 23:27:56.1	177.350	-0.420	-0.100	1.080
2020/01/31 23:27:56.2	177.340	-0.350	-0.190	1.110
2020/01/31 23:27:56.3	177.330	-0.270	-0.280	1.130
2020/01/31 23:27:56.4	177.320	-0.200	-0.360	1.160
2020/01/31 23:27:56.5	177.300	-0.120	-0.450	1.190
2020/01/31 23:27:56.6	177.280	-0.040	-0.530	1.220
2020/01/31 23:27:56.7	177.260	0.040	-0.600	1.250
2020/01/31 23:27:56.8	177.240	0.120	-0.670	1.280
2020/01/31 23:27:56.9	177.210	0.200	-0.740	1.300
2020/01/31 23:27:57.0	177.180	0.280	-0.790	1.330
2020/01/31 23:27:57.1	177.140	0.360	-0.840	1.360
2020/01/31 23:27:57.2	177.110	0.430	-0.880	1.380
2020/01/31 23:27:57.3	177.080	0.500	-0.910	1.400
2020/01/31 23:27:57.4	177.050	0.570	-0.940	1.420
2020/01/31 23:27:57.5	177.020	0.620	-0.950	1.430
2020/01/31 23:27:57.6	176.990	0.680	-0.950	1.440
2020/01/31 23:27:57.7	176.970	0.730	-0.940	1.450
2020/01/31 23:27:57.8	176.950	0.770	-0.930	1.460
2020/01/31 23:27:57.9	176.930	0.800	-0.900	1.460
2020/01/31 23:27:58.0	176.910	0.820	-0.860	1.460
2020/01/31 23:27:58.1	176.910	0.840	-0.820	1.450
2020/01/31 23:27:58.2	176.900	0.850	-0.760	1.440
2020/01/31 23:27:58.3	176.900	0.860	-0.700	1.430
2020/01/31 23:27:58.4	176.900	0.850	-0.630	1.420
2020/01/31 23:27:58.5	176.910	0.840	-0.560	1.410
2020/01/31 23:27:58.6	176.920	0.820	-0.480	1.390
2020/01/31 23:27:58.7	176.930	0.790	-0.390	1.370
2020/01/31 23:27:58.8	176.950	0.760	-0.300	1.350
2020/01/31 23:27:58.9	176.980	0.720	-0.210	1.340
2020/01/31 23:27:59.0	177.010	0.680	-0.120	1.320
2020/01/31 23:27:59.1	177.020	0.630	-0.030	1.300
2020/01/31 23:27:59.2	177.060	0.580	0.060	1.270
2020/01/31 23:27:59.3	177.090	0.520	0.150	1.250
2020/01/31 23:27:59.4	177.130	0.460	0.240	1.230
2020/01/31 23:27:59.5	177.170	0.400	0.330	1.200
2020/01/31 23:27:59.6	177.220	0.340	0.400	1.180
2020/01/31 23:27:59.7	177.260	0.270	0.480	1.160
2020/01/31 23:27:59.8	177.300	0.210	0.540	1.140
2020/01/31 23:27:59.9	177.350	0.150	0.600	1.110
2020/01/31 23:28:00.0	177.390	0.090	0.640	1.100
2020/01/31 23:28:00.1	177.440	0.030	0.680	1.070
2020/01/31 23:28:00.2	177.480	-0.030	0.710	1.050
2020/01/31 23:28:00.3	177.510	-0.080	0.720	1.040
2020/01/31 23:28:00.4	177.540	-0.130	0.730	1.030
2020/01/31 23:28:00.5	177.570	-0.180	0.720	1.020
2020/01/31 23:28:00.6	177.600	-0.220	0.700	1.020
2020/01/31 23:28:00.7	177.630	-0.260	0.670	1.010
2020/01/31 23:28:00.8	177.640	-0.290	0.620	1.010
2020/01/31 23:28:00.9	177.660	-0.310	0.570	1.020
2020/01/31 23:28:01.0	177.670	-0.330	0.510	1.020
2020/01/31 23:28:01.1	177.670	-0.350	0.430	1.040
2020/01/31 23:28:01.2	177.670	-0.350	0.350	1.050
2020/01/31 23:28:01.3	177.670	-0.350	0.250	1.070
2020/01/31 23:28:01.4	177.670	-0.350	0.160	1.090
2020/01/31 23:28:01.5	177.650	-0.340	0.050	1.120
2020/01/31 23:28:01.6	177.640	-0.320	-0.060	1.150
2020/01/31 23:28:01.7	177.620	-0.300	-0.170	1.180
2020/01/31 23:28:01.8	177.590	-0.270	-0.290	1.220
2020/01/31 23:28:01.9	177.570	-0.240	-0.410	1.260
2020/01/31 23:28:02.0	177.540	-0.200	-0.530	1.300
2020/01/31 23:28:02.1	177.500	-0.160	-0.640	1.340
2020/01/31 23:28:02.2	177.460	-0.110	-0.750	1.380
2020/01/31 23:28:02.3	177.430	-0.070	-0.860	1.420
2020/01/31 23:28:02.4	177.390	-0.010	-0.960	1.460
2020/01/31 23:28:02.5	177.350	0.040	-1.060	1.500
2020/01/31 23:28:02.6	177.320	0.090	-1.150	1.540
2020/01/31 23:28:02.7	177.280	0.140	-1.230	1.570
2020/01/31 23:28:02.8	177.250	0.200	-1.290	1.600
2020/01/31 23:28:02.9	177.220	0.250	-1.350	1.620
2020/01/31 23:28:03.0	177.190	0.300	-1.400	1.640
2020/01/31 23:28:03.1	177.170	0.350	-1.430	1.660
2020/01/31 23:28:03.2	177.150	0.390	-1.450	1.670
2020/01/31 23:28:03.3	177.120	0.440	-1.460	1.680
2020/01/31 23:28:03.4	177.100	0.480	-1.450	1.690
2020/01/31 23:28:03.5	177.090	0.510	-1.440	1.690
2020/01/31 23:28:03.6	177.070	0.540	-1.410	1.680
2020/01/31 23:28:03.7	177.060	0.570	-1.370	1.670
2020/01/31 23:28:03.8	177.050	0.580	-1.320	1.660
2020/01/31 23:28:03.9	177.040	0.600	-1.260	1.640
2020/01/31 23:28:04.0	177.030	0.610	-1.200	1.630
2020/01/31 23:28:04.1	177.040	0.610	-1.130	1.600
2020/01/31 23:28:04.2	177.030	0.610	-1.050	1.570
2020/01/31 23:28:04.3	177.030	0.600	-0.970	1.550
2020/01/31 23:28:04.4	177.020	0.580	-0.890	1.520
2020/01/31 23:28:04.5	177.020	0.560	-0.800	1.490
2020/01/31 23:28:04.6	177.010	0.540	-0.720	1.460
2020/01/31 23:28:04.7	177.010	0.510	-0.630	1.430
2020/01/31 23:28:04.8	177.000	0.470	-0.550	1.400
2020/01/31 23:28:04.9	177.000	0.440	-0.470	1.370
2020/01/31 23:28:05.0	176.990	0.390	-0.400	1.350
2020/01/31 23:28:05.1	176.980	0.350	-0.330	1.310
2020/01/31 23:28:05.2	176.970	0.300	-0.260	1.280
2020/01/31 23:28:05.3	176.970	0.250	-0.200	1.260
2020/01/31 23:28:05.4	176.960	0.200	-0.150	1.230
2020/01/31 23:28:05.5	176.950	0.140	-0.110	1.210
2020/01/31 23:28:05.6	176.940	0.090	-0.070	1.190
2020/01/31 23:28:05.7	176.920	0.030	-0.040	1.170
2020/01/31 23:28:05.8	176.910	-0.020	-0.020	1.160
2020/01/31 23:28:05.9	176.900	-0.080	-0.000	1.150
2020/01/31 23:28:06.0	176.880	-0.130	0.000	1.140
2020/01/31 23:28:06.1	176.860	-0.190	0.010	1.140
2020/01/31 23:28:06.2	176.840	-0.240	-0.000	1.140
2020/01/31 23:28:06.3	176.820	-0.280	-0.020	1.140
2020/01/31 23:28:06.4	176.800	-0.330	-0.040	1.150
2020/01/31 23:28:06.5	176.770	-0.370	-0.060	1.170
2020/01/31 23:28:06.6	176.740	-0.410	-0.090	1.190
2020/01/31 23:28:06.7	176.710	-0.440	-0.130	1.210
2020/01/31 23:28:06.8	176.680	-0.480	-0.160	1.240
2020/01/31 23:28:06.9	176.640	-0.500	-0.200	1.270
2020/01/31 23:28:07.0	176.600	-0.530	-0.240	1.300
2020/01/31 23:28:07.1	176.580	-0.550	-0.290	1.330
2020/01/31 23:28:07.2	176.540	-0.560	-0.330	1.370
2020/01/31 23:28:07.3	176.500	-0.570	-0.360	1.410
2020/01/31 23:28:07.4	176.460	-0.580	-0.400	1.450
2020/01/31 23:28:07.5	176.420	-0.580	-0.430	1.490
2020/01/31 23:28:07.6	176.380	-0.580	-0.460	1.530
2020/01/31 23:28:07.7	176.340	-0.570	-0.490	1.570
2020/01/31 23:28:07.8	176.290	-0.570	-0.500	1.610
2020/01/31 23:28:07.9	176.250	-0.550	-0.520	1.650
2020/01/31 23:28:08.0	176.210	-0.540	-0.520	1.690
2020/01/31 23:28:08.1	176.180	-0.520	-0.530	1.720
2020/01/31 23:28:08.2	176.140	-0.510	-0.520	1.760
2020/01/31 23:28:08.3	176.100	-0.490	-0.510	1.790
2020/01/31 23:28:08.4	176.060	-0.460	-0.490	1.810
2020/01/31 23:28:08.5	176.030	-0.440	-0.470	1.840
2020/01/31 23:28:08.6	175.990	-0.420	-0.440	1.860
2020/01/31 23:28:08.7	175.960	-0.400	-0.400	1.870
2020/01/31 23:28:08.8	175.930	-0.370	-0.360	1.880
2020/01/31 23:28:08.9	175.910	-0.350	-0.320	1.890
2020/01/31 23:28:09.0	175.880	-0.330	-0.270	1.890
2020/01/31 23:28:09.1	175.890	-0.310	-0.220	1.890
2020/01/31 23:28:09.2	175.870	-0.290	-0.160	1.880
2020/01/31 23:28:09.3	175.860	-0.270	-0.100	1.870
2020/01/31 23:28:09.4	175.850	-0.260	-0.050	1.850
2020/01/31 23:28:09.5	175.840	-0.250	0.010	1.830
2020/01/31 23:28:09.6	175.840	-0.230	0.070	1.810
2020/01/31 23:28:09.7	175.840	-0.220	0.130	1.780
2020/01/31 23:28:09.8	175.840	-0.220	0.180	1.750
2020/01/31 23:28:09.9	175.850	-0.210	0.240	1.720
2020/01/31 23:28:10.0	175.850	-0.210	0.280	1.690
2020/01/31 23:28:10.1	175.880	-0.200	0.330	1.660
2020/01/31 23:28:10.2	175.890	-0.200	0.370	1.630
2020/01/31 23:28:10.3	175.900	-0.210	0.400	1.590
2020/01/31 23:28:10.4	175.910	-0.210	0.430	1.560
2020/01/31 23:28:10.5	175.930	-0.210	0.450	1.530
2020/01/31 23:28:10.6	175.940	-0.210	0.470	1.500
2020/01/31 23:28:10.7	175.950	-0.220	0.470	1.470
2020/01/31 23:28:10.8	175.960	-0.220	0.480	1.450
2020/01/31 23:28:10.9	175.980	-0.230	0.470	1.420
2020/01/31 23:28:11.0	175.990	-0.230	0.460	1.400
2020/01/31 23:28:11.1	176.020	-0.230	0.440	1.380
2020/01/31 23:28:11.2	176.030	-0.240	0.410	1.370
2020/01/31 23:28:11.3	176.030	-0.240	0.380	1.360
2020/01/31 23:28:11.4	176.040	-0.240	0.340	1.350
2020/01/31 23:28:11.5	176.040	-0.240	0.300	1.340
2020/01/31 23:28:11.6	176.050	-0.240	0.250	1.340
2020/01/31 23:28:11.7	176.050	-0.230	0.200	1.330
2020/01/31 23:28:11.8	176.050	-0.230	0.140	1.330
2020/01/31 23:28:11.9	176.050	-0.220	0.080	1.340
2020/01/31 23:28:12.0	176.050	-0.210	0.020	1.340
2020/01/31 23:28:12.1	176.060	-0.200	-0.040	1.350
2020/01/31 23:28:12.2	176.060	-0.190	-0.100	1.350
2020/01/31 23:28:12.3	176.050	-0.180	-0.160	1.360
2020/01/31 23:28:12.4	176.050	-0.160	-0.220	1.370
2020/01/31 23:28:12.5	176.040	-0.140	-0.280	1.380
2020/01/31 23:28:12.6	176.040	-0.130	-0.340	1.390
2020/01/31 23:28:12.7	176.030	-0.110	-0.390	1.400
2020/01/31 23:28:12.8	176.030	-0.090	-0.440	1.420
2020/01/31 23:28:12.9	176.020	-0.070	-0.480	1.430
2020/01/31 23:28:13.0	176.020	-0.040	-0.520	1.440
2020/01/31 23:28:13.1	176.030	-0.020	-0.550	1.440
2020/01/31 23:28:13.2	176.020	0.000	-0.570	1.450
2020/01/31 23:28:13.3	176.020	0.030	-0.590	1.460
2020/01/31 23:28:13.4	176.020	0.050	-0.600	1.470
2020/01/31 23:28:13.5	176.010	0.070	-0.610	1.470
2020/01/31 23:28:13.6	176.010	0.100	-0.600	1.480
2020/01/31 23:28:13.7	176.010	0.120	-0.590	1.480
2020/01/31 23:28:13.8	176.020	0.140	-0.580	1.490
2020/01/31 23:28:13.9	176.020	0.170	-0.550	1.490
2020/01/31 23:28:14.0	176.020	0.190	-0.520	1.490
2020/01/31 23:28:14.1	176.040	0.210	-0.490	1.490
2020/01/31 23:28:14.2	176.050	0.230	-0.450	1.490
2020/01/31 23:28:14.3	176.050	0.250	-0.400	1.490
2020/01/31 23:28:14.4	176.060	0.260	-0.350	1.480
2020/01/31 23:28:14.5	176.060	0.280	-0.300	1.480
2020/01/31 23:28:14.6	176.070	0.290	-0.240	1.470
2020/01/31 23:28:14.7	176.080	0.310	-0.190	1.460
2020/01/31 23:28:14.8	176.080	0.320	-0.130	1.450
2020/01/31 23:28:14.9	176.090	0.330	-0.070	1.440
2020/01/31 23:28:15.0	176.090	0.340	-0.020	1.430
2020/01/31 23:28:15.1	176.100	0.350	0.030	1.420
2020/01/31 23:28:15.2	176.100	0.360	0.090	1.410
2020/01/31 23:28:15.3	176.110	0.360	0.130	1.400
2020/01/31 23:28:15.4	176.110	0.360	0.180	1.390
2020/01/31 23:28:15.5	176.120	0.370	0.220	1.380
2020/01/31 23:28:15.6	176.120	0.370	0.250	1.370
2020/01/31 23:28:15.7	176.120	0.370	0.280	1.360
2020/01/31 23:28:15.8	176.130	0.360	0.300	1.350
2020/01/31 23:28:15.9	176.130	0.360	0.320	1.340
2020/01/31 23:28:16.0	176.130	0.350	0.330	1.330
2020/01/31 23:28:16.1	176.120	0.350	0.330	1.330
2020/01/31 23:28:16.2	176.130	0.340	0.330	1.320
2020/01/31 23:28:16.3	176.130	0.330	0.320	1.320
2020/01/31 23:28:16.4	176.130	0.320	0.300	1.320
2020/01/31 23:28:16.5	176.120	0.310	0.270	1.330
2020/01/31 23:28:16.6	176.120	0.310	0.240	1.330
2020/01/31 23:28:16.7	176.120	0.300	0.200	1.340
2020/01/31 23:28:16.8	176.110	0.290	0.150	1.350
2020/01/31 23:28:16.9	176.110	0.280	0.100	1.360
2020/01/31 23:28:17.0	176.100	0.270	0.040	1.380
2020/01/31 23:28:17.1	176.080	0.260	-0.020	1.400
2020/01/31 23:28:17.2	176.070	0.250	-0.090	1.420
2020/01/31 23:28:17.3	176.060	0.240	-0.160	1.440
2020/01/31 23:28:17.4	176.040	0.240	-0.230	1.470
2020/01/31 23:28:17.5	176.020	0.230	-0.300	1.490
2020/01/31 23:28:17.6	176.000	0.230	-0.380	1.520
2020/01/31 23:28:17.7	175.980	0.230	-0.450	1.550
2020/01/31 23:28:17.8	175.950	0.220	-0.520	1.590
2020/01/31 23:28:17.9	175.920	0.220	-0.590	1.620
2020/01/31 23:28:18.0	175.900	0.220	-0.660	1.650
2020/01/31 23:28:18.1	175.870	0.220	-0.720	1.690
2020/01/31 23:28:18.2	175.850	0.220	-0.780	1.720
2020/01/31 23:28:18.3	175.820	0.220	-0.840	1.750
2020/01/31 23:28:18.4	175.790	0.230	-0.890	1.790
2020/01/31 23:28:18.5	175.770	0.230	-0.930	1.820
2020/01/31 23:28:18.6	175.750	0.230	-0.960	1.850
2020/01/31 23:28:18.7	175.720	0.230	-0.980	1.880
2020/01/31 23:28:18.8	175.700	0.230	-1.000	1.910
2020/01/31 23:28:18.9	175.690	0.230	-1.010	1.940
2020/01/31 23:28:19.0	175.670	0.230	-1.010	1.960
2020/01/31 23:28:19.1	175.650	0.230	-1.000	1.980
2020/01/31 23:28:19.2	175.640	0.230	-0.980	2.000
2020/01/31 23:28:19.3	175.630	0.230	-0.960	2.020
2020/01/31 23:28:19.4	175.620	0.220	-0.920	2.030
2020/01/31 23:28:19.5	175.610	0.220	-0.880	2.050
2020/01/31 23:28:19.6	175.610	0.210	-0.830	2.060
2020/01/31 23:28:19.7	175.600	0.210	-0.780	2.060
2020/01/31 23:28:19.8	175.600	0.200	-0.720	2.060
2020/01/31 23:28:19.9	175.600	0.190	-0.660	2.060
2020/01/31 23:28:20.0	175.600	0.180	-0.590	2.060
2020/01/31 23:28:20.1	175.610	0.170	-0.520	2.060
2020/01/31 23:28:20.2	175.620	0.160	-0.450	2.050
2020/01/31 23:28:20.3	175.620	0.150	-0.380	2.040
2020/01/31 23:28:20.4	175.620	0.130	-0.310	2.020
2020/01/31 23:28:20.5	175.620	0.120	-0.240	2.010
2020/01/31 23:28:20.6	175.630	0.100	-0.170	1.990
2020/01/31 23:28:20.7	175.630	0.090	-0.100	1.970
2020/01/31 23:28:20.8	175.630	0.080	-0.040	1.950
2020/01/31 23:28:20.9	175.640	0.060	0.010	1.920
2020/01/31 23:28:21.0	175.640	0.050	0.070	1.900
2020/01/31 23:28:21.1	175.650	0.040	0.110	1.870
2020/01/31 23:28:21.2	175.650	0.020	0.150	1.840
2020/01/31 23:28:21.3	175.660	0.010	0.180	1.810
2020/01/31 23:28:21.4	175.660	0.000	0.210	1.780
2020/01/31 23:28:21.5	175.660	-0.010	0.220	1.750
2020/01/31 23:28:21.6	175.660	-0.020	0.230	1.720
2020/01/31 23:28:21.7	175.650	-0.030	0.240	1.690
2020/01/31 23:28:21.8	175.650	-0.030	0.230	1.660
2020/01/31 23:28:21.9	175.650	-0.040	0.220	1.630
2020/01/31 23:28:22.0	175.640	-0.050	0.200	1.590
2020/01/31 23:28:22.1	175.640	-0.050	0.170	1.560
2020/01/31 23:28:22.2	175.640	-0.050	0.140	1.530
2020/01/31 23:28:22.3	175.630	-0.060	0.100	1.500
2020/01/31 23:28:22.4	175.620	-0.060	0.060	1.470
2020/01/31 23:28:22.5	175.610	-0.060	0.010	1.440
2020/01/31 23:28:22.6	175.600	-0.060	-0.050	1.410
2020/01/31 23:28:22.7	175.590	-0.060	-0.100	1.390
2020/01/31 23:28:22.8	175.580	-0.070	-0.160	1.370
2020/01/31 23:28:22.9	175.570	-0.070	-0.220	1.340
2020/01/31 23:28:23.0	175.560	-0.070	-0.280	1.320
2020/01/31 23:28:23.1	175.560	-0.070	-0.340	1.300
2020/01/31 23:28:23.2	175.550	-0.080	-0.400	1.290
2020/01/31 23:28:23.3	175.540	-0.080	-0.470	1.270
2020/01/31 23:28:23.4	175.530	-0.090	-0.520	1.260
2020/01/31 23:28:23.5	175.510	-0.090	-0.580	1.250
2020/01/31 23:28:23.6	175.500	-0.100	-0.640	1.250
2020/01/31 23:28:23.7	175.490	-0.110	-0.690	1.240
2020/01/31 23:28:23.8	175.480	-0.120	-0.740	1.240
2020/01/31 23:28:23.9	175.470	-0.130	-0.780	1.240
2020/01/31 23:28:24.0	175.470	-0.140	-0.820	1.250
2020/01/31 23:28:24.1	175.480	-0.150	-0.860	1.250
2020/01/31 23:28:24.2	175.470	-0.160	-0.890	1.260
2020/01/31 23:28:24.3	175.460	-0.170	-0.920	1.270
2020/01/31 23:28:24.4	175.460	-0.180	-0.940	1.280
2020/01/31 23:28:24.5	175.450	-0.200	-0.960	1.290
2020/01/31 23:28:24.6	175.440	-0.210	-0.970	1.300
2020/01/31 23:28:24.7	175.440	-0.220	-0.980	1.320
2020/01/31 23:28:24.8	175.430	-0.230	-0.980	1.330
2020/01/31 23:28:24.9	175.430	-0.250	-0.980	1.350
2020/01/31 23:28:25.0	175.430	-0.260	-0.970	1.360
2020/01/31 23:28:25.1	175.430	-0.270	-0.960	1.380
2020/01/31 23:28:25.2	175.430	-0.280	-0.950	1.390
2020/01/31 23:28:25.3	175.430	-0.290	-0.920	1.410
2020/01/31 23:28:25.4	175.420	-0.300	-0.900	1.420
2020/01/31 23:28:25.5	175.420	-0.310	-0.870	1.440
2020/01/31 23:28:25.6	175.420	-0.320	-0.830	1.450
2020/01/31 23:28:25.7	175.420	-0.330	-0.790	1.460
2020/01/31 23:28:25.8	175.430	-0.330	-0.750	1.470
2020/01/31 23:28:25.9	175.430	-0.340	-0.710	1.470
2020/01/31 23:28:26.0	175.430	-0.340	-0.660	1.480
2020/01/31 23:28:26.1	175.430	-0.350	-0.610	1.480
2020/01/31 23:28:26.2	175.440	-0.350	-0.550	1.490
2020/01/31 23:28:26.3	175.440	-0.350	-0.500	1.490
2020/01/31 23:28:26.4	175.450	-0.350	-0.440	1.490
2020/01/31 23:28:26.5	175.460	-0.350	-0.390	1.490
2020/01/31 23:28:26.6	175.470	-0.350	-0.330	1.490
2020/01/31 23:28:26.7	175.480	-0.350	-0.270	1.480
2020/01/31 23:28:26.8	175.490	-0.340	-0.210	1.480
2020/01/31 23:28:26.9	175.510	-0.340	-0.160	1.480
2020/01/31 23:28:27.0	175.520	-0.330	-0.100	1.470
2020/01/31 23:28:27.1	175.550	-0.330	-0.040	1.470
2020/01/31 23:28:27.2	175.570	-0.320	0.010	1.460
2020/01/31 23:28:27.3	175.590	-0.320	0.060	1.450
2020/01/31 23:28:27.4	175.610	-0.320	0.110	1.440
2020/01/31 23:28:27.5	175.640	-0.310	0.160	1.430
2020/01/31 23:28:27.6	175.660	-0.310	0.200	1.420
2020/01/31 23:28:27.7	175.690	-0.300	0.240	1.410
2020/01/31 23:28:27.8	175.720	-0.300	0.270	1.400
2020/01/31 23:28:27.9	175.750	-0.290	0.310	1.380
2020/01/31 23:28:28.0	175.780	-0.290	0.330	1.370
2020/01/31 23:28:28.1	175.790	-0.290	0.360	1.340
2020/01/31 23:28:28.2	175.830	-0.290	0.380	1.330
2020/01/31 23:28:28.3	175.860	-0.280	0.390	1.310
2020/01/31 23:28:28.4	175.900	-0.280	0.400	1.290
2020/01/31 23:28:28.5	175.930	-0.280	0.410	1.270
2020/01/31 23:28:28.6	175.970	-0.280	0.410	1.250
2020/01/31 23:28:28.7	176.010	-0.280	0.410	1.230
2020/01/31 23:28:28.8	176.040	-0.280	0.400	1.200
2020/01/31 23:28:28.9	176.080	-0.270	0.390	1.180
2020/01/31 23:28:29.0	176.110	-0.270	0.380	1.160
2020/01/31 23:28:29.1	176.130	-0.270	0.360	1.140
2020/01/31 23:28:29.2	176.160	-0.270	0.340	1.120
2020/01/31 23:28:29.3	176.190	-0.260	0.310	1.100
2020/01/31 23:28:29.4	176.210	-0.260	0.280	1.090
2020/01/31 23:28:29.5	176.240	-0.260	0.250	1.080
2020/01/31 23:28:29.6	176.250	-0.250	0.220	1.070
2020/01/31 23:28:29.7	176.270	-0.250	0.180	1.060
2020/01/31 23:28:29.8	176.280	-0.240	0.140	1.060
2020/01/31 23:28:29.9	176.290	-0.230	0.100	1.060
2020/01/31 23:28:30.0	176.290	-0.220	0.060	1.060
2020/01/31 23:28:30.1	176.290	-0.210	0.020	1.070
2020/01/31 23:28:30.2	176.280	-0.200	-0.020	1.080
2020/01/31 23:28:30.3	176.280	-0.190	-0.060	1.100
2020/01/31 23:28:30.4	176.270	-0.180	-0.110	1.120
2020/01/31 23:28:30.5	176.250	-0.160	-0.150	1.140
2020/01/31 23:28:30.6	176.230	-0.140	-0.190	1.170
2020/01/31 23:28:30.7	176.210	-0.130	-0.220	1.200
2020/01/31 23:28:30.8	176.190	-0.110	-0.260	1.220
2020/01/31 23:28:30.9	176.170	-0.090	-0.290	1.250
2020/01/31 23:28:31.0	176.140	-0.070	-0.310	1.280
2020/01/31 23:28:31.1	176.110	-0.050	-0.340	1.310
2020/01/31 23:28:31.2	176.090	-0.030	-0.350	1.340
2020/01/31 23:28:31.3	176.060	-0.010	-0.360	1.360
2020/01/31 23:28:31.4	176.040	0.010	-0.370	1.390
2020/01/31 23:28:31.5	176.020	0.030	-0.370	1.410
2020/01/31 23:28:31.6	176.000	0.060	-0.360	1.420
2020/01/31 23:28:31.7	175.980	0.080	-0.350	1.440
2020/01/31 23:28:31.8	175.960	0.100	-0.330	1.450
2020/01/31 23:28:31.9	175.940	0.120	-0.300	1.460
2020/01/31 23:28:32.0	175.930	0.140	-0.280	1.460
2020/01/31 23:28:32.1	175.920	0.160	-0.240	1.470
2020/01/31 23:28:32.2	175.910	0.170	-0.200	1.470
2020/01/31 23:28:32.3	175.900	0.190	-0.160	1.470
2020/01/31 23:28:32.4	175.890	0.210	-0.120	1.460
2020/01/31 23:28:32.5	175.880	0.220	-0.070	1.460
2020/01/31 23:28:32.6	175.870	0.230	-0.030	1.450
2020/01/31 23:28:32.7	175.870	0.250	0.020	1.440
2020/01/31 23:28:32.8	175.860	0.260	0.070	1.420
2020/01/31 23:28:32.9	175.860	0.270	0.110	1.410
2020/01/31 23:28:33.0	175.860	0.280	0.150	1.390
2020/01/31 23:28:33.1	175.860	0.290	0.190	1.370
2020/01/31 23:28:33.2	175.860	0.290	0.230	1.350
2020/01/31 23:28:33.3	175.850	0.300	0.260	1.330
2020/01/31 23:28:33.4	175.850	0.300	0.290	1.310
2020/01/31 23:28:33.5	175.850	0.310	0.310	1.290
2020/01/31 23:28:33.6	175.850	0.310	0.320	1.270
2020/01/31 23:28:33.7	175.850	0.310	0.330	1.240
2020/01/31 23:28:33.8	175.850	0.320	0.330	1.220
2020/01/31 23:28:33.9	175.850	0.320	0.330	1.200
2020/01/31 23:28:34.0	175.850	0.320	0.320	1.180
2020/01/31 23:28:34.1	175.850	0.320	0.300	1.160
2020/01/31 23:28:34.2	175.850	0.320	0.280	1.140
2020/01/31 23:28:34.3	175.850	0.310	0.250	1.130
2020/01/31 23:28:34.4	175.850	0.310	0.210	1.110
2020/01/31 23:28:34.5	175.840	0.310	0.160	1.100
2020/01/31 23:28:34.6	175.840	0.310	0.110	1.090
2020/01/31 23:28:34.7	175.840	0.300	0.060	1.080
2020/01/31 23:28:34.8	175.830	0.300	-0.000	1.070
2020/01/31 23:28:34.9	175.830	0.300	-0.060	1.060
2020/01/31 23:28:35.0	175.820	0.300	-0.130	1.060
2020/01/31 23:28:35.1	175.800	0.290	-0.200	1.060
2020/01/31 23:28:35.2	175.790	0.290	-0.270	1.060
2020/01/31 23:28:35.3	175.780	0.290	-0.340	1.060
2020/01/31 23:28:35.4	175.770	0.290	-0.420	1.070
2020/01/31 23:28:35.5	175.760	0.290	-0.490	1.080
2020/01/31 23:28:35.6	175.750	0.280	-0.560	1.090
2020/01/31 23:28:35.7	175.730	0.280	-0.630	1.100
2020/01/31 23:28:35.8	175.720	0.280	-0.700	1.120
2020/01/31 23:28:35.9	175.700	0.280	-0.770	1.130
2020/01/31 23:28:36.0	175.690	0.280	-0.830	1.150
2020/01/31 23:28:36.1	175.680	0.280	-0.880	1.170
2020/01/31 23:28:36.2	175.670	0.280	-0.940	1.190
2020/01/31 23:28:36.3	175.660	0.280	-0.980	1.210
2020/01/31 23:28:36.4	175.640	0.290	-1.020	1.230
2020/01/31 23:28:36.5	175.630	0.290	-1.050	1.250
2020/01/31 23:28:36.6	175.620	0.290	-1.080	1.270
2020/01/31 23:28:36.7	175.610	0.290	-1.100	1.290
2020/01/31 23:28:36.8	175.600	0.290	-1.120	1.310
2020/01/31 23:28:36.9	175.590	0.290	-1.120	1.330
2020/01/31 23:28:37.0	175.590	0.290	-1.120	1.350
2020/01/31 23:28:37.1	175.570	0.290	-1.120	1.360
2020/01/31 23:28:37.2	175.560	0.280	-1.100	1.380
2020/01/31 23:28:37.3	175.560	0.280	-1.080	1.390
2020/01/31 23:28:37.4	175.550	0.280	-1.060	1.410
2020/01/31 23:28:37.5	175.550	0.270	-1.030	1.420
2020/01/31 23:28:37.6	175.550	0.260	-0.990	1.430
2020/01/31 23:28:37.7	175.550	0.250	-0.950	1.430
2020/01/31 23:28:37.8	175.550	0.240	-0.910	1.440
2020/01/31 23:28:37.9	175.550	0.230	-0.860	1.440
2020/01/31 23:28:38.0	175.560	0.220	-0.810	1.440
2020/01/31 23:28:38.1	175.570	0.200	-0.760	1.440
2020/01/31 23:28:38.2	175.580	0.180	-0.700	1.430
2020/01/31 23:28:38.3	175.590	0.160	-0.650	1.430
2020/01/31 23:28:38.4	175.610	0.140	-0.590	1.420
2020/01/31 23:28:38.5	175.620	0.120	-0.530	1.410
2020/01/31 23:28:38.6	175.640	0.090	-0.470	1.390
2020/01/31 23:28:38.7	175.670	0.060	-0.410	1.380
2020/01/31 23:28:38.8	175.690	0.030	-0.360	1.370
2020/01/31 23:28:38.9	175.720	-0.000	-0.310	1.350
2020/01/31 23:28:39.0	175.750	-0.030	-0.250	1.340
2020/01/31 23:28:39.1	175.770	-0.070	-0.210	1.330
2020/01/31 23:28:39.2	175.800	-0.110	-0.170	1.310
2020/01/31 23:28:39.3	175.830	-0.140	-0.130	1.300
2020/01/31 23:28:39.4	175.870	-0.180	-0.090	1.290
2020/01/31 23:28:39.5	175.900	-0.220	-0.070	1.280
2020/01/31 23:28:39.6	175.930	-0.260	-0.040	1.270
2020/01/31 23:28:39.7	175.960	-0.300	-0.020	1.270
2020/01/31 23:28:39.8	175.990	-0.340	-0.010	1.260
2020/01/31 23:28:39.9	176.010	-0.370	-0.010	1.260
2020/01/31 23:28:40.0	176.030	-0.410	-0.000	1.270
2020/01/31 23:28:40.1	176.050	-0.440	-0.000	1.270
2020/01/31 23:28:40.2	176.070	-0.470	-0.010	1.280
2020/01/31 23:28:40.3	176.080	-0.500	-0.030	1.290
2020/01/31 23:28:40.4	176.100	-0.530	-0.050	1.300
2020/01/31 23:28:40.5	176.100	-0.550	-0.080	1.310
2020/01/31 23:28:40.6	176.110	-0.570	-0.110	1.330
2020/01/31 23:28:40.7	176.110	-0.580	-0.150	1.350
2020/01/31 23:28:40.8	176.110	-0.590	-0.190	1.370
2020/01/31 23:28:40.9	176.100	-0.600	-0.230	1.390
2020/01/31 23:28:41.0	176.100	-0.600	-0.280	1.410
2020/01/31 23:28:41.1	176.090	-0.600	-0.330	1.430
2020/01/31 23:28:41.2	176.070	-0.590	-0.380	1.450
2020/01/31 23:28:41.3	176.060	-0.580	-0.430	1.480
2020/01/31 23:28:41.4	176.040	-0.570	-0.470	1.500
2020/01/31 23:28:41.5	176.020	-0.550	-0.520	1.520
2020/01/31 23:28:41.6	175.990	-0.520	-0.570	1.550
2020/01/31 23:28:41.7	175.970	-0.500	-0.610	1.570
2020/01/31 23:28:41.8	175.940	-0.460	-0.650	1.590
2020/01/31 23:28:41.9	175.910	-0.430	-0.680	1.610
2020/01/31 23:28:42.0	175.880	-0.390	-0.710	1.630
2020/01/31 23:28:42.1	175.850	-0.360	-0.730	1.650
2020/01/31 23:28:42.2	175.820	-0.320	-0.740	1.670
2020/01/31 23:28:42.3	175.790	-0.280	-0.750	1.690
2020/01/31 23:28:42.4	175.760	-0.230	-0.750	1.700
2020/01/31 23:28:42.5	175.740	-0.190	-0.740	1.710
2020/01/31 23:28:42.6	175.710	-0.150	-0.720	1.720
2020/01/31 23:28:42.7	175.690	-0.110	-0.700	1.720
2020/01/31 23:28:42.8	175.670	-0.070	-0.660	1.720
2020/01/31 23:28:42.9	175.650	-0.040	-0.620	1.720
2020/01/31 23:28:43.0	175.630	-0.000	-0.570	1.720
2020/01/31 23:28:43.1	175.620	0.030	-0.510	1.710
2020/01/31 23:28:43.2	175.610	0.060	-0.450	1.700
2020/01/31 23:28:43.3	175.610	0.090	-0.380	1.690
2020/01/31 23:28:43.4	175.600	0.110	-0.300	1.670
2020/01/31 23:28:43.5	175.600	0.130	-0.220	1.650
2020/01/31 23:28:43.6	175.600	0.140	-0.140	1.630
2020/01/31 23:28:43.7	175.600	0.150	-0.060	1.600
2020/01/31 23:28:43.8	175.600	0.160	0.030	1.580
2020/01/31 23:28:43.9	175.610	0.160	0.110	1.550
2020/01/31 23:28:44.0	175.620	0.160	0.200	1.520
2020/01/31 23:28:44.1	175.630	0.160	0.280	1.480
2020/01/31 23:28:44.2	175.640	0.150	0.360	1.450
2020/01/31 23:28:44.3	175.650	0.130	0.440	1.420
2020/01/31 23:28:44.4	175.660	0.120	0.510	1.390
2020/01/31 23:28:44.5	175.670	0.100	0.580	1.360
2020/01/31 23:28:44.6	175.680	0.080	0.630	1.330
2020/01/31 23:28:44.7	175.680	0.050	0.690	1.300
2020/01/31 23:28:44.8	175.690	0.030	0.730	1.270
2020/01/31 23:28:44.9	175.700	0.000	0.770	1.240
2020/01/31 23:28:45.0	175.700	-0.030	0.800	1.210
2020/01/31 23:28:45.1	175.680	-0.060	0.820	1.190
2020/01/31 23:28:45.2	175.680	-0.090	0.830	1.170
2020/01/31 23:28:45.3	175.680	-0.120	0.840	1.150
2020/01/31 23:28:45.4	175.680	-0.150	0.840	1.130
2020/01/31 23:28:45.5	175.680	-0.170	0.820	1.120
2020/01/31 23:28:45.6	175.680	-0.200	0.810	1.100
2020/01/31 23:28:45.7	175.670	-0.230	0.780	1.100
2020/01/31 23:28:45.8	175.670	-0.260	0.750	1.090
2020/01/31 23:28:45.9	175.660	-0.280	0.710	1.090
2020/01/31 23:28:46.0	175.650	-0.300	0.670	1.100
2020/01/31 23:28:46.1	175.630	-0.320	0.620	1.100
2020/01/31 23:28:46.2	175.620	-0.340	0.560	1.110
2020/01/31 23:28:46.3	175.610	-0.350	0.510	1.120
2020/01/31 23:28:46.4	175.600	-0.360	0.450	1.140
2020/01/31 23:28:46.5	175.600	-0.370	0.380	1.160
2020/01/31 23:28:46.6	175.590	-0.380	0.320	1.190
2020/01/31 23:28:46.7	175.580	-0.380	0.250	1.210
2020/01/31 23:28:46.8	175.570	-0.380	0.180	1.240
2020/01/31 23:28:46.9	175.560	-0.370	0.120	1.260
2020/01/31 23:28:47.0	175.550	-0.360	0.050	1.290
2020/01/31 23:28:47.1	175.560	-0.350	-0.010	1.320
2020/01/31 23:28:47.2	175.550	-0.340	-0.080	1.340
2020/01/31 23:28:47.3	175.550	-0.320	-0.150	1.370
2020/01/31 23:28:47.4	175.540	-0.300	-0.210	1.390
2020/01/31 23:28:47.5	175.540	-0.270	-0.270	1.410
2020/01/31 23:28:47.6	175.530	-0.240	-0.340	1.420
2020/01/31 23:28:47.7	175.530	-0.210	-0.400	1.440
2020/01/31 23:28:47.8	175.530	-0.180	-0.460	1.450
2020/01/31 23:28:47.9	175.520	-0.140	-0.510	1.460
2020/01/31 23:28:48.0	175.520	-0.110	-0.570	1.460
2020/01/31 23:28:48.1	175.520	-0.070	-0.630	1.460
2020/01/31 23:28:48.2	175.520	-0.030	-0.690	1.470
2020/01/31 23:28:48.3	175.510	0.020	-0.740	1.470
2020/01/31 23:28:48.4	175.500	0.060	-0.790	1.470
2020/01/31 23:28:48.5	175.500	0.110	-0.840	1.460
2020/01/31 23:28:48.6	175.490	0.150	-0.890	1.460
2020/01/31 23:28:48.7	175.480	0.200	-0.940	1.450
2020/01/31 23:28:48.8	175.470	0.240	-0.990	1.440
2020/01/31 23:28:48.9	175.450	0.290	-1.030	1.430
2020/01/31 23:28:49.0	175.440	0.330	-1.080	1.420
2020/01/31 23:28:49.1	175.420	0.370	-1.110	1.410
2020/01/31 23:28:49.2	175.410	0.410	-1.150	1.390
2020/01/31 23:28:49.3	175.400	0.450	-1.180	1.370
2020/01/31 23:28:49.4	175.380	0.490	-1.210	1.350
2020/01/31 23:28:49.5	175.370	0.520	-1.240	1.330
2020/01/31 23:28:49.6	175.360	0.550	-1.260	1.310
2020/01/31 23:28:49.7	175.350	0.580	-1.270	1.280
2020/01/31 23:28:49.8	175.340	0.600	-1.280	1.260
2020/01/31 23:28:49.9	175.330	0.610	-1.280	1.230
2020/01/31 23:28:50.0	175.330	0.630	-1.280	1.200
2020/01/31 23:28:50.1	175.340	0.640	-1.270	1.180
2020/01/31 23:28:50.2	175.350	0.640	-1.250	1.150
2020/01/31 23:28:50.3	175.360	0.640	-1.220	1.120
2020/01/31 23:28:50.4	175.370	0.630	-1.190	1.100
2020/01/31 23:28:50.5	175.390	0.620	-1.140	1.070
2020/01/31 23:28:50.6	175.410	0.600	-1.090	1.040
2020/01/31 23:28:50.7	175.440	0.570	-1.030	1.010
2020/01/31 23:28:50.8	175.470	0.550	-0.970	0.990
2020/01/31 23:28:50.9	175.500	0.510	-0.890	0.960
2020/01/31 23:28:51.0	175.540	0.470	-0.810	0.940
2020/01/31 23:28:51.1	175.590	0.430	-0.730	0.910
2020/01/31 23:28:51.2	175.640	0.380	-0.640	0.880
2020/01/31 23:28:51.3	175.680	0.330	-0.540	0.860
2020/01/31 23:28:51.4	175.730	0.280	-0.440	0.830
2020/01/31 23:28:51.5	175.790	0.220	-0.340	0.810
2020/01/31 23:28:51.6	175.840	0.160	-0.240	0.780
2020/01/31 23:28:51.7	175.890	0.100	-0.140	0.760
2020/01/31 23:28:51.8	175.950	0.040	-0.030	0.740
2020/01/31 23:28:51.9	176.000	-0.030	0.070	0.720
2020/01/31 23:28:52.0	176.060	-0.100	0.160	0.700
2020/01/31 23:28:52.1	176.110	-0.160	0.250	0.680
2020/01/31 23:28:52.2	176.160	-0.230	0.340	0.660
2020/01/31 23:28:52.3	176.210	-0.290	0.420	0.650
2020/01/31 23:28:52.4	176.260	-0.350	0.500	0.640
2020/01/31 23:28:52.5	176.300	-0.410	0.570	0.640
2020/01/31 23:28:52.6	176.350	-0.470	0.620	0.640
2020/01/31 23:28:52.7	176.380	-0.520	0.670	0.640
2020/01/31 23:28:52.8	176.420	-0.570	0.710	0.650
2020/01/31 23:28:52.9	176.450	-0.610	0.740	0.660
2020/01/31 23:28:53.0	176.470	-0.650	0.750	0.670
2020/01/31 23:28:53.1	176.480	-0.680	0.760	0.690
2020/01/31 23:28:53.2	176.500	-0.700	0.750	0.710
2020/01/31 23:28:53.3	176.510	-0.720	0.720	0.730
2020/01/31 23:28:53.4	176.520	-0.740	0.690	0.760
2020/01/31 23:28:53.5	176.530	-0.740	0.650	0.790
2020/01/31 23:28:53.6	176.530	-0.740	0.590	0.820
2020/01/31 23:28:53.7	176.520	-0.730	0.520	0.850
2020/01/31 23:28:53.8	176.510	-0.720	0.440	0.890
2020/01/31 23:28:53.9	176.500	-0.690	0.360	0.930
2020/01/31 23:28:54.0	176.480	-0.660	0.260	0.970
2020/01/31 23:28:54.1	176.450	-0.630	0.160	1.020
2020/01/31 23:28:54.2	176.430	-0.590	0.060	1.060
2020/01/31 23:28:54.3	176.400	-0.540	-0.050	1.110
2020/01/31 23:28:54.4	176.360	-0.490	-0.160	1.170
2020/01/31 23:28:54.5	176.330	-0.430	-0.280	1.220
2020/01/31 23:28:54.6	176.290	-0.380	-0.390	1.280
2020/01/31 23:28:54.7	176.250	-0.310	-0.500	1.340
2020/01/31 23:28:54.8	176.210	-0.250	-0.600	1.400
2020/01/31 23:28:54.9	176.160	-0.180	-0.710	1.460
2020/01/31 23:28:55.0	176.110	-0.120	-0.800	1.520
2020/01/31 23:28:55.1	176.070	-0.050	-0.890	1.580
2020/01/31 23:28:55.2	176.020	0.010	-0.970	1.650
2020/01/31 23:28:55.3	175.970	0.080	-1.040	1.710
2020/01/31 23:28:55.4	175.930	0.140	-1.100	1.760
2020/01/31 23:28:55.5	175.880	0.200	-1.140	1.820
2020/01/31 23:28:55.6	175.840	0.250	-1.180	1.870
2020/01/31 23:28:55.7	175.790	0.300	-1.210	1.920
2020/01/31 23:28:55.8	175.750	0.350	-1.220	1.970
2020/01/31 23:28:55.9	175.710	0.390	-1.210	2.010
2020/01/31 23:28:56.0	175.680	0.430	-1.200	2.040
2020/01/31 23:28:56.1	175.650	0.460	-1.170	2.080
2020/01/31 23:28:56.2	175.630	0.480	-1.130	2.110
2020/01/31 23:28:56.3	175.600	0.500	-1.070	2.130
2020/01/31 23:28:56.4	175.580	0.510	-1.010	2.140
2020/01/31 23:28:56.5	175.570	0.520	-0.930	2.150
2020/01/31 23:28:56.6	175.550	0.510	-0.840	2.150
2020/01/31 23:28:56.7	175.540	0.510	-0.750	2.150
2020/01/31 23:28:56.8	175.540	0.490	-0.640	2.150
2020/01/31 23:28:56.9	175.540	0.470	-0.530	2.140
2020/01/31 23:28:57.0	175.540	0.450	-0.410	2.120
2020/01/31 23:28:57.1	175.540	0.420	-0.290	2.100
2020/01/31 23:28:57.2	175.540	0.380	-0.160	2.080
2020/01/31 23:28:57.3	175.550	0.340	-0.040	2.050
2020/01/31 23:28:57.4	175.570	0.300	0.090	2.020
2020/01/31 23:28:57.5	175.580	0.260	0.210	1.990
2020/01/31 23:28:57.6	175.600	0.210	0.330	1.950
2020/01/31 23:28:57.7	175.620	0.160	0.450	1.910
2020/01/31 23:28:57.8	175.640	0.110	0.560	1.870
2020/01/31 23:28:57.9	175.660	0.060	0.660	1.830
2020/01/31 23:28:58.0	175.680	0.010	0.750	1.790
2020/01/31 23:28:58.1	175.680	-0.040	0.840	1.750
2020/01/31 23:28:58.2	175.700	-0.090	0.910	1.710
2020/01/31 23:28:58.3	175.720	-0.140	0.980	1.670
2020/01/31 23:28:58.4	175.740	-0.180	1.030	1.630
2020/01/31 23:28:58.5	175.760	-0.220	1.070	1.600
2020/01/31 23:28:58.6	175.770	-0.260	1.090	1.560
2020/01/31 23:28:58.7	175.790	-0.290	1.100	1.530
2020/01/31 23:28:58.8	175.800	-0.320	1.090	1.490
2020/01/31 23:28:58.9	175.810	-0.340	1.080	1.470
2020/01/31 23:28:59.0	175.820	-0.360	1.040	1.440
2020/01/31 23:28:59.1	175.830	-0.370	1.000	1.410
2020/01/31 23:28:59.2	175.830	-0.380	0.940	1.390
2020/01/31 23:28:59.3	175.840	-0.380	0.870	1.370
2020/01/31 23:28:59.4	175.840	-0.370	0.790	1.350
2020/01/31 23:28:59.5	175.840	-0.360	0.690	1.340
2020/01/31 23:28:59.6	175.830	-0.350	0.590	1.330
2020/01/31 23:28:59.7	175.830	-0.330	0.490	1.320
2020/01/31 23:28:59.8	175.830	-0.310	0.370	1.310
2020/01/31 23:28:59.9	175.820	-0.280	0.250	1.310
2020/01/31 23:29:00.0	175.810	-0.260	0.130	1.310
2020/01/31 23:29:00.1	175.810	-0.220	0.020	1.300
2020/01/31 23:29:00.2	175.800	-0.190	-0.110	1.300
2020/01/31 23:29:00.3	175.800	-0.160	-0.230	1.300
2020/01/31 23:29:00.4	175.790	-0.120	-0.340	1.300
2020/01/31 23:29:00.5	175.790	-0.080	-0.460	1.300
2020/01/31 23:29:00.6	175.790	-0.050	-0.570	1.300
2020/01/31 23:29:00.7	175.780	-0.010	-0.670	1.300
2020/01/31 23:29:00.8	175.780	0.030	-0.760	1.300
2020/01/31 23:29:00.9	175.780	0.060	-0.850	1.300
2020/01/31 23:29:01.0	175.780	0.090	-0.930	1.300
2020/01/31 23:29:01.1	175.790	0.120	-1.010	1.300
2020/01/31 23:29:01.2	175.790	0.150	-1.070	1.290
2020/01/31 23:29:01.3	175.790	0.180	-1.120	1.290
2020/01/31 23:29:01.4	175.800	0.200	-1.160	1.280
2020/01/31 23:29:01.5	175.800	0.220	-1.190	1.280
2020/01/31 23:29:01.6	175.810	0.240	-1.210	1.270
2020/01/31 23:29:01.7	175.810	0.260	-1.230	1.260
2020/01/31 23:29:01.8	175.820	0.270	-1.230	1.250
2020/01/31 23:29:01.9	175.820	0.270	-1.230	1.230
2020/01/31 23:29:02.0	175.830	0.280	-1.220	1.220
2020/01/31 23:29:02.1	175.850	0.280	-1.190	1.200
2020/01/31 23:29:02.2	175.850	0.280	-1.170	1.190
2020/01/31 23:29:02.3	175.860	0.280	-1.130	1.170
2020/01/31 23:29:02.4	175.870	0.280	-1.100	1.150
2020/01/31 23:29:02.5	175.870	0.270	-1.060	1.130
2020/01/31 23:29:02.6	175.880	0.260	-1.010	1.110
2020/01/31 23:29:02.7	175.880	0.250	-0.960	1.090
2020/01/31 23:29:02.8	175.890	0.240	-0.910	1.060
2020/01/31 23:29:02.9	175.890	0.220	-0.860	1.040
2020/01/31 23:29:03.0	175.890	0.210	-0.810	1.020
2020/01/31 23:29:03.1	175.900	0.200	-0.770	1.000
2020/01/31 23:29:03.2	175.900	0.180	-0.720	0.980
2020/01/31 23:29:03.3	175.900	0.170	-0.670	0.960
2020/01/31 23:29:03.4	175.900	0.150	-0.620	0.940
2020/01/31 23:29:03.5	175.900	0.140	-0.580	0.920
2020/01/31 23:29:03.6	175.900	0.120	-0.540	0.900
2020/01/31 23:29:03.7	175.900	0.110	-0.500	0.890
2020/01/31 23:29:03.8	175.900	0.100	-0.470	0.870
2020/01/31 23:29:03.9	175.900	0.090	-0.450	0.860
2020/01/31 23:29:04.0	175.900	0.080	-0.420	0.850
2020/01/31 23:29:04.1	175.900	0.070	-0.400	0.830
2020/01/31 23:29:04.2	175.900	0.060	-0.380	0.820
2020/01/31 23:29:04.3	175.900	0.050	-0.370	0.810
2020/01/31 23:29:04.4	175.900	0.040	-0.370	0.800
2020/01/31 23:29:04.5	175.900	0.040	-0.360	0.800
2020/01/31 23:29:04.6	175.900	0.030	-0.360	0.790
2020/01/31 23:29:04.7	175.900	0.020	-0.360	0.790
2020/01/31 23:29:04.8	175.910	0.020	-0.370	0.790
2020/01/31 23:29:04.9	175.910	0.010	-0.370	0.780
2020/01/31 23:29:05.0	175.920	0.010	-0.370	0.780
2020/01/31 23:29:05.1	175.920	-0.000	-0.380	0.780
2020/01/31 23:29:05.2	175.930	-0.010	-0.380	0.780
2020/01/31 23:29:05.3	175.940	-0.020	-0.380	0.780
2020/01/31 23:29:05.4	175.960	-0.030	-0.380	0.780
2020/01/31 23:29:05.5	175.980	-0.040	-0.380	0.780
2020/01/31 23:29:05.6	176.000	-0.050	-0.370	0.790
2020/01/31 23:29:05.7	176.020	-0.070	-0.370	0.800
2020/01/31 23:29:05.8	176.040	-0.080	-0.350	0.810
2020/01/31 23:29:05.9	176.060	-0.100	-0.340	0.820
2020/01/31 23:29:06.0	176.090	-0.120	-0.320	0.830
2020/01/31 23:29:06.1	176.110	-0.150	-0.290	0.850
2020/01/31 23:29:06.2	176.140	-0.170	-0.260	0.870
2020/01/31 23:29:06.3	176.160	-0.190	-0.230	0.890
2020/01/31 23:29:06.4	176.190	-0.220	-0.190	0.920
2020/01/31 23:29:06.5	176.210	-0.250	-0.150	0.950
2020/01/31 23:29:06.6	176.240	-0.280	-0.110	0.980
2020/01/31 23:29:06.7	176.260	-0.310	-0.060	1.020
2020/01/31 23:29:06.8	176.290	-0.340	-0.010	1.050
2020/01/31 23:29:06.9	176.310	-0.370	0.040	1.090
2020/01/31 23:29:07.0	176.330	-0.400	0.090	1.130
2020/01/31 23:29:07.1	176.340	-0.430	0.150	1.170
2020/01/31 23:29:07.2	176.360	-0.460	0.200	1.210
2020/01/31 23:29:07.3	176.380	-0.490	0.250	1.250
2020/01/31 23:29:07.4	176.390	-0.520	0.300	1.290
2020/01/31 23:29:07.5	176.410	-0.540	0.350	1.320
2020/01/31 23:29:07.6	176.420	-0.560	0.390	1.360
2020/01/31 23:29:07.7	176.420	-0.580	0.430	1.400
2020/01/31 23:29:07.8	176.430	-0.590	0.470	1.430
2020/01/31 23:29:07.9	176.430	-0.600	0.490	1.470
2020/01/31 23:29:08.0	176.430	-0.610	0.520	1.500
2020/01/31 23:29:08.1	176.410	-0.610	0.530	1.530
2020/01/31 23:29:08.2	176.410	-0.610	0.540	1.560
2020/01/31 23:29:08.3	176.400	-0.600	0.540	1.590
2020/01/31 23:29:08.4	176.380	-0.580	0.530	1.610
2020/01/31 23:29:08.5	176.370	-0.560	0.520	1.630
2020/01/31 23:29:08.6	176.350	-0.530	0.500	1.650
2020/01/31 23:29:08.7	176.330	-0.500	0.470	1.670
2020/01/31 23:29:08.8	176.310	-0.470	0.430	1.690
2020/01/31 23:29:08.9	176.280	-0.420	0.390	1.700
2020/01/31 23:29:09.0	176.260	-0.380	0.340	1.720
2020/01/31 23:29:09.1	176.230	-0.320	0.280	1.730
2020/01/31 23:29:09.2	176.200	-0.270	0.220	1.740
2020/01/31 23:29:09.3	176.170	-0.210	0.160	1.750
2020/01/31 23:29:09.4	176.130	-0.150	0.090	1.760
2020/01/31 23:29:09.5	176.100	-0.080	0.020	1.760
2020/01/31 23:29:09.6	176.070	-0.020	-0.050	1.770
2020/01/31 23:29:09.7	176.040	0.050	-0.120	1.770
2020/01/31 23:29:09.8	176.010	0.120	-0.200	1.770
2020/01/31 23:29:09.9	175.980	0.190	-0.270	1.770
2020/01/31 23:29:10.0	175.950	0.260	-0.330	1.770
2020/01/31 23:29:10.1	175.930	0.320	-0.390	1.770
2020/01/31 23:29:10.2	175.900	0.390	-0.450	1.760
2020/01/31 23:29:10.3	175.880	0.450	-0.510	1.750
2020/01/31 23:29:10.4	175.860	0.510	-0.560	1.750
2020/01/31 23:29:10.5	175.850	0.570	-0.600	1.730
2020/01/31 23:29:10.6	175.830	0.620	-0.640	1.720
2020/01/31 23:29:10.7	175.820	0.660	-0.670	1.710
2020/01/31 23:29:10.8	175.820	0.700	-0.690	1.690
2020/01/31 23:29:10.9	175.810	0.740	-0.700	1.670
2020/01/31 23:29:11.0	175.810	0.770	-0.700	1.650
2020/01/31 23:29:11.1	175.820	0.790	-0.700	1.630
2020/01/31 23:29:11.2	175.820	0.810	-0.680	1.610
2020/01/31 23:29:11.3	175.830	0.820	-0.660	1.580
2020/01/31 23:29:11.4	175.840	0.820	-0.630	1.550
2020/01/31 23:29:11.5	175.860	0.820	-0.600	1.520
2020/01/31 23:29:11.6	175.870	0.810	-0.560	1.490
2020/01/31 23:29:11.7	175.880	0.790	-0.510	1.460
2020/01/31 23:29:11.8	175.900	0.770	-0.450	1.420
2020/01/31 23:29:11.9	175.920	0.740	-0.400	1.390
2020/01/31 23:29:12.0	175.930	0.710	-0.340	1.350
2020/01/31 23:29:12.1	175.950	0.670	-0.270	1.310
2020/01/31 23:29:12.2	175.970	0.630	-0.210	1.280
2020/01/31 23:29:12.3	175.990	0.580	-0.140	1.250
2020/01/31 23:29:12.4	176.000	0.530	-0.080	1.210
2020/01/31 23:29:12.5	176.020	0.480	-0.020	1.180
2020/01/31 23:29:12.6	176.030	0.430	0.050	1.160
2020/01/31 23:29:12.7	176.050	0.370	0.100	1.130
2020/01/31 23:29:12.8	176.060	0.310	0.160	1.110
2020/01/31 23:29:12.9	176.070	0.250	0.210	1.090
2020/01/31 23:29:13.0	176.080	0.200	0.250	1.080
2020/01/31 23:29:13.1	176.080	0.140	0.290	1.060
2020/01/31 23:29:13.2	176.090	0.090	0.310	1.060
2020/01/31 23:29:13.3	176.090	0.030	0.330	1.050
2020/01/31 23:29:13.4	176.090	-0.020	0.340	1.050
2020/01/31 23:29:13.5	176.090	-0.060	0.350	1.060
2020/01/31 23:29:13.6	176.090	-0.100	0.340	1.070
2020/01/31 23:29:13.7	176.080	-0.140	0.320	1.080
2020/01/31 23:29:13.8	176.070	-0.170	0.300	1.100
2020/01/31 23:29:13.9	176.070	-0.200	0.260	1.110
2020/01/31 23:29:14.0	176.060	-0.220	0.220	1.130
2020/01/31 23:29:14.1	176.050	-0.230	0.170	1.160
2020/01/31 23:29:14.2	176.040	-0.240	0.120	1.180
2020/01/31 23:29:14.3	176.030	-0.250	0.050	1.200
2020/01/31 23:29:14.4	176.020	-0.250	-0.010	1.230
2020/01/31 23:29:14.5	176.010	-0.250	-0.080	1.250
2020/01/31 23:29:14.6	176.000	-0.240	-0.150	1.270
2020/01/31 23:29:14.7	175.990	-0.230	-0.230	1.280
2020/01/31 23:29:14.8	175.990	-0.220	-0.300	1.300
2020/01/31 23:29:14.9	175.980	-0.210	-0.370	1.320
2020/01/31 23:29:15.0	175.980	-0.190	-0.440	1.330
2020/01/31 23:29:15.1	175.990	-0.170	-0.510	1.340
2020/01/31 23:29:15.2	175.990	-0.150	-0.580	1.360
2020/01/31 23:29:15.3	175.990	-0.130	-0.640	1.370
2020/01/31 23:29:15.4	175.990	-0.110	-0.700	1.380
2020/01/31 23:29:15.5	176.000	-0.090	-0.750	1.400
2020/01/31 23:29:15.6	176.000	-0.080	-0.800	1.410
2020/01/31 23:29:15.7	176.010	-0.060	-0.840	1.430
2020/01/31 23:29:15.8	176.020	-0.040	-0.880	1.450
2020/01/31 23:29:15.9	176.030	-0.030	-0.910	1.470
2020/01/31 23:29:16.0	176.040	-0.010	-0.930	1.490
2020/01/31 23:29:16.1	176.050	-0.000	-0.950	1.510
2020/01/31 23:29:16.2	176.060	0.010	-0.960	1.530
2020/01/31 23:29:16.3	176.070	0.010	-0.970	1.550
2020/01/31 23:29:16.4	176.080	0.020	-0.970	1.570
2020/01/31 23:29:16.5	176.090	0.020	-0.960	1.600
2020/01/31 23:29:16.6	176.100	0.020	-0.950	1.620
2020/01/31 23:29:16.7	176.110	0.020	-0.940	1.640
2020/01/31 23:29:16.8	176.120	0.010	-0.910	1.650
2020/01/31 23:29:16.9	176.130	0.010	-0.890	1.670
2020/01/31 23:29:17.0	176.140	0.000	-0.860	1.680
2020/01/31 23:29:17.1	176.150	-0.010	-0.830	1.700
2020/01/31 23:29:17.2	176.150	-0.010	-0.790	1.700
2020/01/31 23:29:17.3	176.160	-0.020	-0.750	1.710
2020/01/31 23:29:17.4	176.160	-0.030	-0.710	1.700
2020/01/31 23:29:17.5	176.170	-0.040	-0.670	1.700
2020/01/31 23:29:17.6	176.170	-0.050	-0.630	1.690
2020/01/31 23:29:17.7	176.170	-0.060	-0.590	1.680
2020/01/31 23:29:17.8	176.170	-0.070	-0.540	1.660
2020/01/31 23:29:17.9	176.170	-0.080	-0.500	1.640
2020/01/31 23:29:18.0	176.170	-0.080	-0.460	1.610
2020/01/31 23:29:18.1	176.160	-0.090	-0.420	1.580
2020/01/31 23:29:18.2	176.160	-0.090	-0.380	1.550
2020/01/31 23:29:18.3	176.160	-0.090	-0.340	1.520
2020/01/31 23:29:18.4	176.160	-0.090	-0.300	1.480
2020/01/31 23:29:18.5	176.160	-0.090	-0.270	1.450
2020/01/31 23:29:18.6	176.150	-0.090	-0.240	1.410
2020/01/31 23:29:18.7	176.150	-0.080	-0.210	1.370
2020/01/31 23:29:18.8	176.150	-0.080	-0.180	1.340
2020/01/31 23:29:18.9	176.140	-0.070	-0.160	1.300
2020/01/31 23:29:19.0	176.140	-0.060	-0.140	1.270
2020/01/31 23:29:19.1	176.140	-0.050	-0.120	1.230
2020/01/31 23:29:19.2	176.140	-0.040	-0.110	1.200
2020/01/31 23:29:19.3	176.140	-0.020	-0.090	1.170
2020/01/31 23:29:19.4	176.140	-0.010	-0.080	1.140
2020/01/31 23:29:19.5	176.140	0.010	-0.070	1.110
2020/01/31 23:29:19.6	176.150	0.020	-0.070	1.090
2020/01/31 23:29:19.7	176.160	0.030	-0.060	1.060
2020/01/31 23:29:19.8	176.170	0.050	-0.060	1.040
2020/01/31 23:29:19.9	176.180	0.060	-0.050	1.020
2020/01/31 23:29:20.0	176.190	0.070	-0.050	0.990
2020/01/31 23:29:20.1	176.200	0.080	-0.050	0.970
2020/01/31 23:29:20.2	176.220	0.090	-0.050	0.960
2020/01/31 23:29:20.3	176.230	0.100	-0.050	0.940
2020/01/31 23:29:20.4	176.250	0.100	-0.050	0.920
2020/01/31 23:29:20.5	176.260	0.110	-0.050	0.910
2020/01/31 23:29:20.6	176.280	0.110	-0.050	0.900
2020/01/31 23:29:20.7	176.300	0.110	-0.050	0.890
2020/01/31 23:29:20.8	176.310	0.100	-0.050	0.880
2020/01/31 23:29:20.9	176.330	0.100	-0.050	0.870
2020/01/31 23:29:21.0	176.340	0.090	-0.060	0.870
2020/01/31 23:29:21.1	176.350	0.080	-0.060	0.870
2020/01/31 23:29:21.2	176.360	0.070	-0.070	0.880
2020/01/31 23:29:21.3	176.370	0.060	-0.070	0.880
2020/01/31 23:29:21.4	176.370	0.040	-0.080	0.900
2020/01/31 23:29:21.5	176.380	0.020	-0.080	0.910
2020/01/31 23:29:21.6	176.380	0.000	-0.090	0.930
2020/01/31 23:29:21.7	176.380	-0.020	-0.090	0.950
2020/01/31 23:29:21.8	176.380	-0.040	-0.100	0.980
2020/01/31 23:29:21.9	176.380	-0.060	-0.110	1.010
2020/01/31 23:29:22.0	176.370	-0.080	-0.120	1.050
2020/01/31 23:29:22.1	176.370	-0.100	-0.120	1.080
2020/01/31 23:29:22.2	176.350	-0.130	-0.130	1.120
2020/01/31 23:29:22.3	176.340	-0.150	-0.150	1.170
2020/01/31 23:29:22.4	176.320	-0.170	-0.160	1.210
2020/01/31 23:29:22.5	176.300	-0.190	-0.170	1.260
2020/01/31 23:29:22.6	176.280	-0.220	-0.190	1.310
2020/01/31 23:29:22.7	176.250	-0.230	-0.200	1.370
2020/01/31 23:29:22.8	176.230	-0.250	-0.220	1.420
2020/01/31 23:29:22.9	176.200	-0.270	-0.230	1.470
2020/01/31 23:29:23.0	176.170	-0.290	-0.250	1.520
2020/01/31 23:29:23.1	176.130	-0.300	-0.270	1.580
2020/01/31 23:29:23.2	176.100	-0.310	-0.280	1.630
2020/01/31 23:29:23.3	176.070	-0.330	-0.290	1.680
2020/01/31 23:29:23.4	176.040	-0.340	-0.300	1.730
2020/01/31 23:29:23.5	176.020	-0.340	-0.310	1.780
2020/01/31 23:29:23.6	175.990	-0.350	-0.310	1.820
2020/01/31 23:29:23.7	175.960	-0.350	-0.310	1.870
2020/01/31 23:29:23.8	175.940	-0.350	-0.310	1.920
2020/01/31 23:29:23.9	175.910	-0.350	-0.310	1.960
2020/01/31 23:29:24.0	175.890	-0.350	-0.310	2.010
2020/01/31 23:29:24.1	175.850	-0.340	-0.300	2.050
2020/01/31 23:29:24.2	175.820	-0.340	-0.290	2.090
2020/01/31 23:29:24.3	175.800	-0.330	-0.270	2.130
2020/01/31 23:29:24.4	175.780	-0.320	-0.260	2.170
2020/01/31 23:29:24.5	175.760	-0.300	-0.240	2.200
2020/01/31 23:29:24.6	175.740	-0.290	-0.220	2.230
2020/01/31 23:29:24.7	175.720	-0.270	-0.200	2.260
2020/01/31 23:29:24.8	175.700	-0.250	-0.180	2.280
2020/01/31 23:29:24.9	175.680	-0.230	-0.150	2.300
2020/01/31 23:29:25.0	175.670	-0.200	-0.130	2.310
2020/01/31 23:29:25.1	175.670	-0.180	-0.110	2.320
2020/01/31 23:29:25.2	175.650	-0.150	-0.080	2.330
2020/01/31 23:29:25.3	175.630	-0.120	-0.060	2.320
2020/01/31 23:29:25.4	175.620	-0.090	-0.030	2.320
2020/01/31 23:29:25.5	175.600	-0.060	-0.010	2.310
2020/01/31 23:29:25.6	175.580	-0.020	0.010	2.290
2020/01/31 23:29:25.7	175.560	0.010	0.030	2.270
2020/01/31 23:29:25.8	175.550	0.050	0.050	2.240
2020/01/31 23:29:25.9	175.530	0.080	0.060	2.210
2020/01/31 23:29:26.0	175.510	0.120	0.080	2.170
2020/01/31 23:29:26.1	175.500	0.150	0.090	2.140
2020/01/31 23:29:26.2	175.490	0.190	0.100	2.100
2020/01/31 23:29:26.3	175.470	0.230	0.110	2.050
2020/01/31 23:29:26.4	175.460	0.260	0.110	2.000
2020/01/31 23:29:26.5	175.440	0.290	0.110	1.960
2020/01/31 23:29:26.6	175.430	0.330	0.110	1.900
2020/01/31 23:29:26.7	175.420	0.360	0.110	1.850
2020/01/31 23:29:26.8	175.420	0.380	0.110	1.800
2020/01/31 23:29:26.9	175.410	0.410	0.110	1.740
2020/01/31 23:29:27.0	175.410	0.430	0.100	1.690
2020/01/31 23:29:27.1	175.410	0.460	0.090	1.630
2020/01/31 23:29:27.2	175.410	0.470	0.080	1.580
2020/01/31 23:29:27.3	175.410	0.490	0.070	1.530
2020/01/31 23:29:27.4	175.420	0.500	0.070	1.480
2020/01/31 23:29:27.5	175.430	0.510	0.060	1.440
2020/01/31 23:29:27.6	175.440	0.520	0.050	1.400
2020/01/31 23:29:27.7	175.450	0.520	0.040	1.360
2020/01/31 23:29:27.8	175.470	0.520	0.030	1.320
2020/01/31 23:29:27.9	175.480	0.520	0.020	1.290
2020/01/31 23:29:28.0	175.500	0.510	0.010	1.260
2020/01/31 23:29:28.1	175.520	0.500	0.000	1.230
2020/01/31 23:29:28.2	175.540	0.490	-0.010	1.200
2020/01/31 23:29:28.3	175.560	0.480	-0.020	1.180
2020/01/31 23:29:28.4	175.580	0.460	-0.030	1.160
2020/01/31 23:29:28.5	175.600	0.440	-0.040	1.140
2020/01/31 23:29:28.6	175.620	0.430	-0.060	1.130
2020/01/31 23:29:28.7	175.640	0.410	-0.070	1.110
2020/01/31 23:29:28.8	175.650	0.390	-0.090	1.100
2020/01/31 23:29:28.9	175.670	0.360	-0.110	1.090
2020/01/31 23:29:29.0	175.690	0.340	-0.130	1.090
2020/01/31 23:29:29.1	175.710	0.320	-0.150	1.080
2020/01/31 23:29:29.2	175.720	0.300	-0.180	1.070
2020/01/31 23:29:29.3	175.730	0.280	-0.200	1.070
2020/01/31 23:29:29.4	175.750	0.260	-0.230	1.060
2020/01/31 23:29:29.5	175.760	0.240	-0.260	1.060
2020/01/31 23:29:29.6	175.770	0.220	-0.290	1.060
2020/01/31 23:29:29.7	175.780	0.210	-0.330	1.060
2020/01/31 23:29:29.8	175.780	0.190	-0.360	1.050
2020/01/31 23:29:29.9	175.790	0.180	-0.400	1.060
2020/01/31 23:29:30.0	175.800	0.170	-0.440	1.060
2020/01/31 23:29:30.1	175.810	0.160	-0.480	1.060
2020/01/31 23:29:30.2	175.810	0.150	-0.520	1.060
2020/01/31 23:29:30.3	175.820	0.140	-0.560	1.070
2020/01/31 23:29:30.4	175.820	0.140	-0.610	1.080
2020/01/31 23:29:30.5	175.820	0.130	-0.650	1.090
2020/01/31 23:29:30.6	175.820	0.130	-0.690	1.100
2020/01/31 23:29:30.7	175.810	0.120	-0.730	1.110
2020/01/31 23:29:30.8	175.810	0.120	-0.770	1.130
2020/01/31 23:29:30.9	175.810	0.120	-0.810	1.150
2020/01/31 23:29:31.0	175.800	0.120	-0.850	1.170
2020/01/31 23:29:31.1	175.780	0.120	-0.890	1.200
2020/01/31 23:29:31.2	175.770	0.120	-0.920	1.230
2020/01/31 23:29:31.3	175.760	0.130	-0.950	1.260
2020/01/31 23:29:31.4	175.750	0.130	-0.980	1.300
2020/01/31 23:29:31.5	175.740	0.130	-1.000	1.330
2020/01/31 23:29:31.6	175.730	0.130	-1.010	1.370
2020/01/31 23:29:31.7	175.720	0.130	-1.030	1.410
2020/01/31 23:29:31.8	175.710	0.130	-1.030	1.450
2020/01/31 23:29:31.9	175.700	0.140	-1.030	1.490
2020/01/31 23:29:32.0	175.680	0.140	-1.030	1.520
2020/01/31 23:29:32.1	175.670	0.140	-1.020	1.560
2020/01/31 23:29:32.2	175.660	0.140	-1.000	1.590
2020/01/31 23:29:32.3	175.650	0.130	-0.980	1.620
2020/01/31 23:29:32.4	175.650	0.130	-0.950	1.640
2020/01/31 23:29:32.5	175.640	0.130	-0.910	1.660
2020/01/31 23:29:32.6	175.640	0.120	-0.870	1.680
2020/01/31 23:29:32.7	175.640	0.110	-0.820	1.690
2020/01/31 23:29:32.8	175.640	0.100	-0.760	1.700
2020/01/31 23:29:32.9	175.650	0.090	-0.700	1.710
2020/01/31 23:29:33.0	175.650	0.080	-0.640	1.710
2020/01/31 23:29:33.1	175.660	0.060	-0.570	1.710
2020/01/31 23:29:33.2	175.670	0.040	-0.500	1.710
2020/01/31 23:29:33.3	175.680	0.020	-0.430	1.700
2020/01/31 23:29:33.4	175.700	-0.000	-0.350	1.690
2020/01/31 23:29:33.5	175.710	-0.030	-0.270	1.680
2020/01/31 23:29:33.6	175.730	-0.050	-0.190	1.670
2020/01/31 23:29:33.7	175.750	-0.080	-0.110	1.650
2020/01/31 23:29:33.8	175.760	-0.110	-0.040	1.640
2020/01/31 23:29:33.9	175.780	-0.140	0.030	1.620
2020/01/31 23:29:34.0	175.790	-0.170	0.100	1.610
2020/01/31 23:29:34.1	175.820	-0.200	0.170	1.600
2020/01/31 23:29:34.2	175.830	-0.230	0.230	1.580
2020/01/31 23:29:34.3	175.840	-0.260	0.290	1.570
2020/01/31 23:29:34.4	175.850	-0.300	0.340	1.560
2020/01/31 23:29:34.5	175.860	-0.330	0.380	1.540
2020/01/31 23:29:34.6	175.870	-0.360	0.410	1.540
2020/01/31 23:29:34.7	175.870	-0.380	0.430	1.530
2020/01/31 23:29:34.8	175.870	-0.410	0.450	1.520
2020/01/31 23:29:34.9	175.870	-0.440	0.460	1.520
2020/01/31 23:29:35.0	175.870	-0.460	0.460	1.520
2020/01/31 23:29:35.1	175.860	-0.480	0.440	1.520
2020/01/31 23:29:35.2	175.860	-0.500	0.430	1.520
2020/01/31 23:29:35.3	175.850	-0.510	0.400	1.530
2020/01/31 23:29:35.4	175.840	-0.530	0.370	1.540
2020/01/31 23:29:35.5	175.830	-0.540	0.330	1.550
2020/01/31 23:29:35.6	175.810	-0.540	0.290	1.560
2020/01/31 23:29:35.7	175.800	-0.540	0.240	1.570
2020/01/31 23:29:35.8	175.780	-0.540	0.180	1.580
2020/01/31 23:29:35.9	175.760	-0.540	0.120	1.600
2020/01/31 23:29:36.0	175.740	-0.530	0.060	1.620
2020/01/31 23:29:36.1	175.710	-0.520	-0.000	1.630
2020/01/31 23:29:36.2	175.690	-0.500	-0.070	1.650
2020/01/31 23:29:36.3	175.660	-0.480	-0.140	1.670
2020/01/31 23:29:36.4	175.640	-0.460	-0.220	1.680
2020/01/31 23:29:36.5	175.610	-0.430	-0.290	1.700
2020/01/31 23:29:36.6	175.580	-0.400	-0.360	1.720
2020/01/31 23:29:36.7	175.550	-0.360	-0.420	1.730
2020/01/31 23:29:36.8	175.520	-0.330	-0.490	1.750
2020/01/31 23:29:36.9	175.480	-0.290	-0.550	1.770
2020/01/31 23:29:37.0	175.450	-0.250	-0.610	1.780
2020/01/31 23:29:37.1	175.430	-0.200	-0.660	1.800
2020/01/31 23:29:37.2	175.390	-0.160	-0.710	1.810
2020/01/31 23:29:37.3	175.360	-0.110	-0.760	1.820
2020/01/31 23:29:37.4	175.320	-0.070	-0.790	1.830
2020/01/31 23:29:37.5	175.280	-0.020	-0.830	1.840
2020/01/31 23:29:37.6	175.250	0.030	-0.850	1.840
2020/01/31 23:29:37.7	175.220	0.070	-0.870	1.840
2020/01/31 23:29:37.8	175.180	0.120	-0.880	1.840
2020/01/31 23:29:37.9	175.150	0.160	-0.880	1.840
2020/01/31 23:29:38.0	175.120	0.200	-0.880	1.840
2020/01/31 23:29:38.1	175.110	0.240	-0.870	1.840
2020/01/31 23:29:38.2	175.080	0.280	-0.850	1.830
2020/01/31 23:29:38.3	175.060	0.310	-0.830	1.820
2020/01/31 23:29:38.4	175.040	0.340	-0.800	1.810
2020/01/31 23:29:38.5	175.020	0.370	-0.770	1.790
2020/01/31 23:29:38.6	175.000	0.390	-0.730	1.780
2020/01/31 23:29:38.7	174.990	0.410	-0.680	1.760
2020/01/31 23:29:38.8	174.980	0.420	-0.640	1.750
2020/01/31 23:29:38.9	174.970	0.430	-0.580	1.730
2020/01/31 23:29:39.0	174.970	0.430	-0.530	1.710
2020/01/31 23:29:39.1	174.960	0.430	-0.470	1.690
2020/01/31 23:29:39.2	174.970	0.430	-0.410	1.670
2020/01/31 23:29:39.3	174.970	0.420	-0.350	1.650
2020/01/31 23:29:39.4	174.980	0.400	-0.290	1.620
2020/01/31 23:29:39.5	175.000	0.380	-0.220	1.600
2020/01/31 23:29:39.6	175.010	0.360	-0.160	1.580
2020/01/31 23:29:39.7	175.040	0.330	-0.100	1.560
2020/01/31 23:29:39.8	175.060	0.300	-0.030	1.540
2020/01/31 23:29:39.9	175.090	0.270	0.030	1.510
2020/01/31 23:29:40.0	175.120	0.230	0.090	1.490
2020/01/31 23:29:40.1	175.140	0.190	0.140	1.470
2020/01/31 23:29:40.2	175.180	0.140	0.190	1.450
2020/01/31 23:29:40.3	175.210	0.100	0.240	1.430
2020/01/31 23:29:40.4	175.240	0.050	0.290	1.400
2020/01/31 23:29:40.5	175.270	0.010	0.330	1.380
2020/01/31 23:29:40.6	175.310	-0.040	0.360	1.360
2020/01/31 23:29:40.7	175.340	-0.090	0.390	1.350
2020/01/31 23:29:40.8	175.370	-0.140	0.420	1.330
2020/01/31 23:29:40.9	175.390	-0.180	0.440	1.310
2020/01/31 23:29:41.0	175.420	-0.230	0.460	1.300
2020/01/31 23:29:41.1	175.440	-0.270	0.470	1.290
2020/01/31 23:29:41.2	175.460	-0.310	0.470	1.280
2020/01/31 23:29:41.3	175.480	-0.340	0.470	1.270
2020/01/31 23:29:41.4	175.500	-0.370	0.460	1.260
2020/01/31 23:29:41.5	175.510	-0.400	0.450	1.260
2020/01/31 23:29:41.6	175.520	-0.430	0.430	1.270
2020/01/31 23:29:41.7	175.530	-0.450	0.410	1.270
2020/01/31 23:29:41.8	175.530	-0.460	0.380	1.280
2020/01/31 23:29:41.9	175.530	-0.470	0.350	1.290
2020/01/31 23:29:42.0	175.530	-0.480	0.310	1.310
2020/01/31 23:29:42.1	175.530	-0.480	0.260	1.330
2020/01/31 23:29:42.2	175.520	-0.480	0.220	1.350
2020/01/31 23:29:42.3	175.520	-0.470	0.170	1.370
2020/01/31 23:29:42.4	175.510	-0.460	0.110	1.390
2020/01/31 23:29:42.5	175.500	-0.440	0.060	1.420
2020/01/31 23:29:42.6	175.490	-0.420	0.000	1.440
2020/01/31 23:29:42.7	175.480	-0.390	-0.060	1.470
2020/01/31 23:29:42.8	175.470	-0.360	-0.120	1.490
2020/01/31 23:29:42.9	175.460	-0.330	-0.170	1.510
2020/01/31 23:29:43.0	175.450	-0.300	-0.230	1.530
2020/01/31 23:29:43.1	175.440	-0.270	-0.280	1.550
2020/01/31 23:29:43.2	175.430	-0.230	-0.340	1.570
2020/01/31 23:29:43.3	175.420	-0.200	-0.390	1.580
2020/01/31 23:29:43.4	175.410	-0.160	-0.440	1.600
2020/01/31 23:29:43.5	175.400	-0.130	-0.480	1.610
2020/01/31 23:29:43.6	175.400	-0.090	-0.520	1.620
2020/01/31 23:29:43.7	175.390	-0.060	-0.560	1.630
2020/01/31 23:29:43.8	175.390	-0.030	-0.590	1.640
2020/01/31 23:29:43.9	175.390	0.000	-0.620	1.650
2020/01/31 23:29:44.0	175.390	0.030	-0.650	1.660
2020/01/31 23:29:44.1	175.390	0.060	-0.670	1.670
2020/01/31 23:29:44.2	175.390	0.080	-0.690	1.680
2020/01/31 23:29:44.3	175.390	0.100	-0.700	1.690
2020/01/31 23:29:44.4	175.390	0.120	-0.710	1.700
2020/01/31 23:29:44.5	175.390	0.140	-0.710	1.700
2020/01/31 23:29:44.6	175.390	0.150	-0.710	1.710
2020/01/31 23:29:44.7	175.400	0.160	-0.700	1.720
2020/01/31 23:29:44.8	175.400	0.170	-0.700	1.730
2020/01/31 23:29:44.9	175.400	0.180	-0.680	1.740
2020/01/31 23:29:45.0	175.410	0.190	-0.670	1.750
2020/01/31 23:29:45.1	175.420	0.190	-0.650	1.760
2020/01/31 23:29:45.2	175.420	0.190	-0.630	1.770
2020/01/31 23:29:45.3	175.420	0.200	-0.610	1.780
2020/01/31 23:29:45.4	175.430	0.200	-0.580	1.780
2020/01/31 23:29:45.5	175.430	0.200	-0.560	1.790
2020/01/31 23:29:45.6	175.430	0.200	-0.530	1.790
2020/01/31 23:29:45.7	175.430	0.200	-0.500	1.780
2020/01/31 23:29:45.8	175.430	0.200	-0.470	1.780
2020/01/31 23:29:45.9	175.430	0.200	-0.440	1.770
2020/01/31 23:29:46.0	175.430	0.200	-0.400	1.760
2020/01/31 23:29:46.1	175.430	0.210	-0.370	1.740
2020/01/31 23:29:46.2	175.430	0.210	-0.340	1.720
2020/01/31 23:29:46.3	175.430	0.220	-0.300	1.700
2020/01/31 23:29:46.4	175.430	0.220	-0.270	1.670
2020/01/31 23:29:46.5	175.430	0.230	-0.230	1.640
2020/01/31 23:29:46.6	175.430	0.240	-0.200	1.600
2020/01/31 23:29:46.7	175.430	0.250	-0.160	1.570
2020/01/31 23:29:46.8	175.430	0.260	-0.130	1.530
2020/01/31 23:29:46.9	175.430	0.270	-0.090	1.490
2020/01/31 23:29:47.0	175.430	0.280	-0.060	1.460
2020/01/31 23:29:47.1	175.420	0.300	-0.020	1.410
2020/01/31 23:29:47.2	175.420	0.310	0.010	1.370
2020/01/31 23:29:47.3	175.420	0.320	0.040	1.340
2020/01/31 23:29:47.4	175.420	0.330	0.060	1.300
2020/01/31 23:29:47.5	175.420	0.340	0.090	1.260
2020/01/31 23:29:47.6	175.420	0.350	0.110	1.230
2020/01/31 23:29:47.7	175.420	0.360	0.140	1.200
2020/01/31 23:29:47.8	175.420	0.370	0.160	1.170
2020/01/31 23:29:47.9	175.420	0.370	0.170	1.140
2020/01/31 23:29:48.0	175.420	0.370	0.190	1.110
2020/01/31 23:29:48.1	175.420	0.380	0.200	1.090
2020/01/31 23:29:48.2	175.420	0.370	0.210	1.070
2020/01/31 23:29:48.3	175.420	0.370	0.220	1.050
2020/01/31 23:29:48.4	175.420	0.370	0.220	1.040
2020/01/31 23:29:48.5	175.430	0.360	0.230	1.030
2020/01/31 23:29:48.6	175.430	0.350	0.230	1.020
2020/01/31 23:29:48.7	175.440	0.330	0.230	1.010
2020/01/31 23:29:48.8	175.440	0.320	0.220	1.010
2020/01/31 23:29:48.9	175.440	0.300	0.220	1.020
2020/01/31 23:29:49.0	175.450	0.280	0.200	1.030
2020/01/31 23:29:49.1	175.440	0.260	0.190	1.030
2020/01/31 23:29:49.2	175.440	0.240	0.180	1.050
2020/01/31 23:29:49.3	175.440	0.210	0.150	1.070
2020/01/31 23:29:49.4	175.440	0.190	0.130	1.100
2020/01/31 23:29:49.5	175.440	0.160	0.100	1.120
2020/01/31 23:29:49.6	175.440	0.140	0.070	1.150
2020/01/31 23:29:49.7	175.440	0.110	0.040	1.190
2020/01/31 23:29:49.8	175.430	0.080	0.000	1.220
2020/01/31 23:29:49.9	175.430	0.060	-0.030	1.260
2020/01/31 23:29:50.0	175.420	0.030	-0.070	1.300
2020/01/31 23:29:50.1	175.400	0.010	-0.120	1.340
2020/01/31 23:29:50.2	175.400	-0.010	-0.160	1.380
2020/01/31 23:29:50.3	175.380	-0.030	-0.210	1.420
2020/01/31 23:29:50.4	175.370	-0.050	-0.250	1.450
2020/01/31 23:29:50.5	175.360	-0.070	-0.300	1.490
2020/01/31 23:29:50.6	175.350	-0.090	-0.350	1.530
2020/01/31 23:29:50.7	175.330	-0.100	-0.390	1.560
2020/01/31 23:29:50.8	175.320	-0.110	-0.440	1.590
2020/01/31 23:29:50.9	175.300	-0.120	-0.490	1.620
2020/01/31 23:29:51.0	175.280	-0.130	-0.540	1.650
2020/01/31 23:29:51.1	175.260	-0.140	-0.580	1.680
2020/01/31 23:29:51.2	175.240	-0.140	-0.630	1.710
2020/01/31 23:29:51.3	175.220	-0.140	-0.680	1.740
2020/01/31 23:29:51.4	175.190	-0.140	-0.720	1.770
2020/01/31 23:29:51.5	175.170	-0.150	-0.760	1.800
2020/01/31 23:29:51.6	175.140	-0.140	-0.800	1.830
2020/01/31 23:29:51.7	175.120	-0.140	-0.840	1.850
2020/01/31 23:29:51.8	175.090	-0.140	-0.880	1.880
2020/01/31 23:29:51.9	175.060	-0.140	-0.910	1.910
2020/01/31 23:29:52.0	175.030	-0.140	-0.940	1.940
2020/01/31 23:29:52.1	175.010	-0.130	-0.970	1.970
2020/01/31 23:29:52.2	174.990	-0.130	-0.990	2.000
2020/01/31 23:29:52.3	174.960	-0.130	-1.010	2.030
2020/01/31 23:29:52.4	174.930	-0.130	-1.020	2.060
2020/01/31 23:29:52.5	174.910	-0.120	-1.030	2.080
2020/01/31 23:29:52.6	174.890	-0.120	-1.030	2.110
2020/01/31 23:29:52.7	174.870	-0.120	-1.030	2.130
2020/01/31 23:29:52.8	174.850	-0.120	-1.020	2.150
2020/01/31 23:29:52.9	174.840	-0.130	-1.010	2.170
2020/01/31 23:29:53.0	174.830	-0.130	-0.990	2.190
2020/01/31 23:29:53.1	174.840	-0.130	-0.950	2.200
2020/01/31 23:29:53.2	174.830	-0.140	-0.920	2.210
2020/01/31 23:29:53.3	174.830	-0.140	-0.880	2.210
2020/01/31 23:29:53.4	174.840	-0.150	-0.830	2.210
2020/01/31 23:29:53.5	174.850	-0.150	-0.780	2.200
2020/01/31 23:29:53.6	174.860	-0.160	-0.730	2.190
2020/01/31 23:29:53.7	174.870	-0.170	-0.670	2.170
2020/01/31 23:29:53.8	174.890	-0.170	-0.600	2.140
2020/01/31 23:29:53.9	174.910	-0.180	-0.540	2.120
2020/01/31 23:29:54.0	174.930	-0.190	-0.470	2.080
2020/01/31 23:29:54.1	174.950	-0.200	-0.410	2.050
2020/01/31 23:29:54.2	174.970	-0.200	-0.340	2.010
2020/01/31 23:29:54.3	174.990	-0.210	-0.270	1.970
2020/01/31 23:29:54.4	175.010	-0.220	-0.200	1.920
2020/01/31 23:29:54.5	175.030	-0.220	-0.140	1.880
2020/01/31 23:29:54.6	175.050	-0.220	-0.080	1.830
2020/01/31 23:29:54.7	175.070	-0.220	-0.030	1.790
2020/01/31 23:29:54.8	175.090	-0.220	0.020	1.740
2020/01/31 23:29:54.9	175.100	-0.220	0.070	1.690
2020/01/31 23:29:55.0	175.110	-0.220	0.110	1.640
2020/01/31 23:29:55.1	175.120	-0.210	0.140	1.600
2020/01/31 23:29:55.2	175.130	-0.210	0.170	1.550
2020/01/31 23:29:55.3	175.140	-0.200	0.180	1.510
2020/01/31 23:29:55.4	175.140	-0.190	0.190	1.470
2020/01/31 23:29:55.5	175.150	-0.170	0.200	1.420
2020/01/31 23:29:55.6	175.150	-0.160	0.190	1.380
2020/01/31 23:29:55.7	175.160	-0.150	0.180	1.340
2020/01/31 23:29:55.8	175.160	-0.130	0.160	1.300
2020/01/31 23:29:55.9	175.160	-0.110	0.140	1.270
2020/01/31 23:29:56.0	175.170	-0.100	0.110	1.230
2020/01/31 23:29:56.1	175.180	-0.080	0.070	1.200
2020/01/31 23:29:56.2	175.180	-0.060	0.030	1.170
2020/01/31 23:29:56.3	175.180	-0.050	-0.010	1.140
2020/01/31 23:29:56.4	175.190	-0.030	-0.050	1.110
2020/01/31 23:29:56.5	175.190	-0.010	-0.100	1.090
2020/01/31 23:29:56.6	175.200	0.000	-0.140	1.070
2020/01/31 23:29:56.7	175.200	0.010	-0.190	1.050
2020/01/31 23:29:56.8	175.200	0.030	-0.240	1.040
2020/01/31 23:29:56.9	175.210	0.040	-0.290	1.030
2020/01/31 23:29:57.0	175.210	0.050	-0.330	1.030
2020/01/31 23:29:57.1	175.210	0.050	-0.370	1.020
2020/01/31 23:29:57.2	175.220	0.060	-0.410	1.020
2020/01/31 23:29:57.3	175.220	0.060	-0.450	1.030
2020/01/31 23:29:57.4	175.220	0.060	-0.490	1.030
2020/01/31 23:29:57.5	175.220	0.070	-0.520	1.040
2020/01/31 23:29:57.6	175.220	0.060	-0.540	1.060
2020/01/31 23:29:57.7	175.210	0.060	-0.570	1.070
2020/01/31 23:29:57.8	175.210	0.060	-0.580	1.090
2020/01/31 23:29:57.9	175.200	0.050	-0.600	1.110
2020/01/31 23:29:58.0	175.190	0.040	-0.610	1.130
2020/01/31 23:29:58.1	175.190	0.030	-0.620	1.160
2020/01/31 23:29:58.2	175.180	0.020	-0.620	1.190
2020/01/31 23:29:58.3	175.160	0.010	-0.620	1.210
2020/01/31 23:29:58.4	175.150	0.000	-0.610	1.240
2020/01/31 23:29:58.5	175.130	-0.010	-0.610	1.270
2020/01/31 23:29:58.6	175.110	-0.020	-0.590	1.310
2020/01/31 23:29:58.7	175.100	-0.040	-0.580	1.340
2020/01/31 23:29:58.8	175.080	-0.050	-0.560	1.380
2020/01/31 23:29:58.9	175.050	-0.060	-0.540	1.410
2020/01/31 23:29:59.0	175.030	-0.080	-0.520	1.450
2020/01/31 23:29:59.1	175.020	-0.090	-0.500	1.480
2020/01/31 23:29:59.2	175.000	-0.100	-0.470	1.520
2020/01/31 23:29:59.3	174.970	-0.120	-0.440	1.560
2020/01/31 23:29:59.4	174.950	-0.130	-0.410	1.590
2020/01/31 23:29:59.5	174.930	-0.140	-0.380	1.630
2020/01/31 23:29:59.6	174.910	-0.150	-0.340	1.670
2020/01/31 23:29:59.7	174.890	-0.160	-0.310	1.700
2020/01/31 23:29:59.8	174.870	-0.170	-0.270	1.740
2020/01/31 23:29:59.9	174.850	-0.180	-0.230	1.770
2020/01/31 23:30:00.0	174.830	-0.190	-0.190	1.810
2020/01/31 23:30:00.1	174.840	-0.200	-0.140	1.850
2020/01/31 23:30:00.2	174.820	-0.210	-0.100	1.880
2020/01/31 23:30:00.3	174.810	-0.220	-0.060	1.900
2020/01/31 23:30:00.4	174.810	-0.220	-0.010	1.930
2020/01/31 23:30:00.5	174.800	-0.230	0.030	1.950
2020/01/31 23:30:00.6	174.800	-0.240	0.080	1.970
2020/01/31 23:30:00.7	174.800	-0.240	0.120	1.990
2020/01/31 23:30:00.8	174.800	-0.250	0.170	2.000
2020/01/31 23:30:00.9	174.810	-0.260	0.220	2.010
2020/01/31 23:30:01.0	174.820	-0.260	0.260	2.010
2020/01/31 23:30:01.1	174.830	-0.270	0.300	2.010
2020/01/31 23:30:01.2	174.840	-0.270	0.350	2.010
2020/01/31 23:30:01.3	174.860	-0.280	0.390	2.000
2020/01/31 23:30:01.4	174.880	-0.280	0.440	1.980
2020/01/31 23:30:01.5	174.900	-0.290	0.480	1.970
2020/01/31 23:30:01.6	174.920	-0.290	0.520	1.940
2020/01/31 23:30:01.7	174.950	-0.290	0.560	1.920
2020/01/31 23:30:01.8	174.980	-0.300	0.600	1.890
2020/01/31 23:30:01.9	175.010	-0.300	0.640	1.860
2020/01/31 23:30:02.0	175.040	-0.300	0.670	1.820
2020/01/31 23:30:02.1	175.060	-0.300	0.700	1.780
2020/01/31 23:30:02.2	175.090	-0.290	0.730	1.740
2020/01/31 23:30:02.3	175.120	-0.290	0.750	1.700
2020/01/31 23:30:02.4	175.160	-0.280	0.760	1.660
2020/01/31 23:30:02.5	175.190	-0.280	0.770	1.610
2020/01/31 23:30:02.6	175.220	-0.270	0.780	1.570
2020/01/31 23:30:02.7	175.250	-0.250	0.780	1.530
2020/01/31 23:30:02.8	175.270	-0.240	0.770	1.480
2020/01/31 23:30:02.9	175.300	-0.220	0.750	1.440
2020/01/31 23:30:03.0	175.320	-0.200	0.730	1.400
2020/01/31 23:30:03.1	175.320	-0.180	0.700	1.370
2020/01/31 23:30:03.2	175.330	-0.150	0.660	1.330
2020/01/31 23:30:03.3	175.350	-0.120	0.620	1.290
2020/01/31 23:30:03.4	175.360	-0.090	0.570	1.260
2020/01/31 23:30:03.5	175.360	-0.050	0.510	1.230
2020/01/31 23:30:03.6	175.370	-0.010	0.450	1.210
2020/01/31 23:30:03.7	175.370	0.030	0.380	1.180
2020/01/31 23:30:03.8	175.370	0.080	0.310	1.160
2020/01/31 23:30:03.9	175.370	0.120	0.230	1.140
2020/01/31 23:30:04.0	175.360	0.170	0.150	1.120
2020/01/31 23:30:04.1	175.350	0.220	0.060	1.100
2020/01/31 23:30:04.2	175.340	0.270	-0.020	1.080
2020/01/31 23:30:04.3	175.330	0.320	-0.110	1.070
2020/01/31 23:30:04.4	175.320	0.370	-0.190	1.060
2020/01/31 23:30:04.5	175.310	0.420	-0.280	1.050
2020/01/31 23:30:04.6	175.300	0.470	-0.360	1.040
2020/01/31 23:30:04.7	175.290	0.520	-0.450	1.030
2020/01/31 23:30:04.8	175.270	0.570	-0.520	1.030
2020/01/31 23:30:04.9	175.260	0.610	-0.600	1.020
2020/01/31 23:30:05.0	175.250	0.650	-0.670	1.020
2020/01/31 23:30:05.1	175.240	0.680	-0.740	1.010
2020/01/31 23:30:05.2	175.230	0.720	-0.790	1.000
2020/01/31 23:30:05.3	175.230	0.740	-0.850	1.000
2020/01/31 23:30:05.4	175.220	0.770	-0.900	1.000
2020/01/31 23:30:05.5	175.220	0.790	-0.940	0.990
2020/01/31 23:30:05.6	175.210	0.800	-0.970	0.990
2020/01/31 23:30:05.7	175.210	0.810	-1.000	0.990
2020/01/31 23:30:05.8	175.210	0.810	-1.020	0.990
2020/01/31 23:30:05.9	175.210	0.810	-1.040	0.990
2020/01/31 23:30:06.0	175.210	0.800	-1.050	0.990
2020/01/31 23:30:06.1	175.210	0.790	-1.050	0.990
2020/01/31 23:30:06.2	175.210	0.770	-1.050	0.990
2020/01/31 23:30:06.3	175.220	0.750	-1.050	1.000
2020/01/31 23:30:06.4	175.220	0.730	-1.040	1.010
2020/01/31 23:30:06.5	175.230	0.700	-1.030	1.020
2020/01/31 23:30:06.6	175.230	0.660	-1.010	1.030
2020/01/31 23:30:06.7	175.240	0.620	-1.000	1.040
2020/01/31 23:30:06.8	175.240	0.580	-0.980	1.060
2020/01/31 23:30:06.9	175.240	0.540	-0.950	1.080
2020/01/31 23:30:07.0	175.250	0.490	-0.930	1.090
2020/01/31 23:30:07.1	175.250	0.450	-0.910	1.120
2020/01/31 23:30:07.2	175.250	0.400	-0.880	1.140
2020/01/31 23:30:07.3	175.250	0.350	-0.860	1.160
2020/01/31 23:30:07.4	175.250	0.300	-0.840	1.190
2020/01/31 23:30:07.5	175.240	0.250	-0.810	1.210
2020/01/31 23:30:07.6	175.240	0.200	-0.790	1.230
2020/01/31 23:30:07.7	175.230	0.160	-0.770	1.260
2020/01/31 23:30:07.8	175.220	0.110	-0.750	1.280
2020/01/31 23:30:07.9	175.210	0.070	-0.730	1.310
2020/01/31 23:30:08.0	175.200	0.030	-0.710	1.330
2020/01/31 23:30:08.1	175.190	-0.010	-0.690	1.360
2020/01/31 23:30:08.2	175.180	-0.040	-0.670	1.380
2020/01/31 23:30:08.3	175.170	-0.080	-0.650	1.410
2020/01/31 23:30:08.4	175.160	-0.100	-0.630	1.430
2020/01/31 23:30:08.5	175.140	-0.130	-0.610	1.450
2020/01/31 23:30:08.6	175.130	-0.150	-0.590	1.470
2020/01/31 23:30:08.7	175.120	-0.170	-0.560	1.500
2020/01/31 23:30:08.8	175.100	-0.190	-0.540	1.520
2020/01/31 23:30:08.9	175.090	-0.200	-0.520	1.540
2020/01/31 23:30:09.0	175.080	-0.210	-0.490	1.560
2020/01/31 23:30:09.1	175.060	-0.220	-0.460	1.590
2020/01/31 23:30:09.2	175.050	-0.220	-0.430	1.610
2020/01/31 23:30:09.3	175.030	-0.220	-0.400	1.630
2020/01/31 23:30:09.4	175.020	-0.220	-0.380	1.650
2020/01/31 23:30:09.5	175.010	-0.210	-0.350	1.670
2020/01/31 23:30:09.6	175.000	-0.210	-0.330	1.690
2020/01/31 23:30:09.7	174.980	-0.200	-0.310	1.710
2020/01/31 23:30:09.8	174.970	-0.190	-0.290	1.730
2020/01/31 23:30:09.9	174.960	-0.170	-0.270	1.740
2020/01/31 23:30:10.0	174.950	-0.160	-0.250	1.760
2020/01/31 23:30:10.1	174.950	-0.140	-0.240	1.770
2020/01/31 23:30:10.2	174.940	-0.130	-0.230	1.780
2020/01/31 23:30:10.3	174.930	-0.110	-0.230	1.780
2020/01/31 23:30:10.4	174.920	-0.090	-0.220	1.790
2020/01/31 23:30:10.5	174.910	-0.080	-0.220	1.790
2020/01/31 23:30:10.6	174.900	-0.060	-0.220	1.790
2020/01/31 23:30:10.7	174.890	-0.050	-0.220	1.790
2020/01/31 23:30:10.8	174.880	-0.040	-0.220	1.780
2020/01/31 23:30:10.9	174.880	-0.030	-0.230	1.770
2020/01/31 23:30:11.0	174.880	-0.030	-0.230	1.760
2020/01/31 23:30:11.1	174.880	-0.020	-0.230	1.750
2020/01/31 23:30:11.2	174.880	-0.020	-0.240	1.740
2020/01/31 23:30:11.3	174.880	-0.030	-0.240	1.720
2020/01/31 23:30:11.4	174.880	-0.030	-0.250	1.710
2020/01/31 23:30:11.5	174.880	-0.040	-0.250	1.700
2020/01/31 23:30:11.6	174.890	-0.050	-0.250	1.690
2020/01/31 23:30:11.7	174.900	-0.070	-0.260	1.670
2020/01/31 23:30:11.8	174.910	-0.090	-0.260	1.670
2020/01/31 23:30:11.9	174.920	-0.110	-0.250	1.660
2020/01/31 23:30:12.0	174.930	-0.140	-0.250	1.650
2020/01/31 23:30:12.1	174.940	-0.160	-0.250	1.650
2020/01/31 23:30:12.2	174.960	-0.190	-0.240	1.650
2020/01/31 23:30:12.3	174.970	-0.230	-0.230	1.650
2020/01/31 23:30:12.4	174.980	-0.260	-0.220	1.650
2020/01/31 23:30:12.5	175.000	-0.290	-0.200	1.660
2020/01/31 23:30:12.6	175.020	-0.330	-0.190	1.660
2020/01/31 23:30:12.7	175.030	-0.360	-0.170	1.670
2020/01/31 23:30:12.8	175.050	-0.390	-0.140	1.670
2020/01/31 23:30:12.9	175.060	-0.430	-0.120	1.680
2020/01/31 23:30:13.0	175.080	-0.460	-0.090	1.680
2020/01/31 23:30:13.1	175.100	-0.490	-0.060	1.690
2020/01/31 23:30:13.2	175.110	-0.520	-0.030	1.690
2020/01/31 23:30:13.3	175.130	-0.540	0.000	1.700
2020/01/31 23:30:13.4	175.140	-0.560	0.030	1.690
2020/01/31 23:30:13.5	175.160	-0.580	0.070	1.690
2020/01/31 23:30:13.6	175.170	-0.590	0.100	1.690
2020/01/31 23:30:13.7	175.180	-0.600	0.130	1.680
2020/01/31 23:30:13.8	175.190	-0.610	0.160	1.670
2020/01/31 23:30:13.9	175.200	-0.610	0.190	1.660
2020/01/31 23:30:14.0	175.210	-0.610	0.220	1.640
2020/01/31 23:30:14.1	175.230	-0.600	0.250	1.630
2020/01/31 23:30:14.2	175.240	-0.580	0.270	1.610
2020/01/31 23:30:14.3	175.250	-0.560	0.290	1.590
2020/01/31 23:30:14.4	175.250	-0.540	0.300	1.570
2020/01/31 23:30:14.5	175.260	-0.510	0.310	1.540
2020/01/31 23:30:14.6	175.260	-0.480	0.320	1.520
2020/01/31 23:30:14.7	175.270	-0.450	0.320	1.490
2020/01/31 23:30:14.8	175.270	-0.410	0.310	1.460
2020/01/31 23:30:14.9	175.270	-0.370	0.310	1.440
2020/01/31 23:30:15.0	175.270	-0.320	0.290	1.410
2020/01/31 23:30:15.1	175.270	-0.270	0.280	1.390
2020/01/31 23:30:15.2	175.270	-0.230	0.250	1.370
2020/01/31 23:30:15.3	175.260	-0.180	0.230	1.350
2020/01/31 23:30:15.4	175.260	-0.120	0.190	1.330
2020/01/31 23:30:15.5	175.250	-0.070	0.160	1.320
2020/01/31 23:30:15.6	175.240	-0.020	0.120	1.310
2020/01/31 23:30:15.7	175.240	0.030	0.070	1.300
2020/01/31 23:30:15.8	175.230	0.080	0.030	1.300
2020/01/31 23:30:15.9	175.210	0.140	-0.030	1.300
2020/01/31 23:30:16.0	175.200	0.180	-0.080	1.300
2020/01/31 23:30:16.1	175.190	0.230	-0.130	1.310
2020/01/31 23:30:16.2	175.170	0.280	-0.190	1.320
2020/01/31 23:30:16.3	175.150	0.320	-0.250	1.330
2020/01/31 23:30:16.4	175.140	0.360	-0.300	1.350
2020/01/31 23:30:16.5	175.120	0.400	-0.360	1.370
2020/01/31 23:30:16.6	175.100	0.430	-0.420	1.380
2020/01/31 23:30:16.7	175.070	0.460	-0.470	1.400
2020/01/31 23:30:16.8	175.060	0.490	-0.520	1.420
2020/01/31 23:30:16.9	175.030	0.510	-0.570	1.430
2020/01/31 23:30:17.0	175.020	0.530	-0.620	1.450
2020/01/31 23:30:17.1	175.000	0.540	-0.660	1.460
2020/01/31 23:30:17.2	174.980	0.550	-0.700	1.480
2020/01/31 23:30:17.3	174.970	0.550	-0.730	1.490
2020/01/31 23:30:17.4	174.950	0.550	-0.750	1.500
2020/01/31 23:30:17.5	174.940	0.550	-0.770	1.510
2020/01/31 23:30:17.6	174.930	0.530	-0.780	1.520
2020/01/31 23:30:17.7	174.920	0.520	-0.790	1.520
2020/01/31 23:30:17.8	174.910	0.500	-0.790	1.530
2020/01/31 23:30:17.9	174.900	0.470	-0.780	1.540
2020/01/31 23:30:18.0	174.890	0.440	-0.770	1.550
2020/01/31 23:30:18.1	174.890	0.410	-0.750	1.560
2020/01/31 23:30:18.2	174.890	0.370	-0.720	1.570
2020/01/31 23:30:18.3	174.890	0.330	-0.690	1.580
2020/01/31 23:30:18.4	174.890	0.290	-0.650	1.590
2020/01/31 23:30:18.5	174.890	0.240	-0.610	1.610
2020/01/31 23:30:18.6	174.890	0.190	-0.570	1.620
2020/01/31 23:30:18.7	174.900	0.140	-0.520	1.630
2020/01/31 23:30:18.8	174.900	0.090	-0.470	1.650
2020/01/31 23:30:18.9	174.910	0.040	-0.420	1.660
2020/01/31 23:30:19.0	174.920	-0.020	-0.370	1.680
2020/01/31 23:30:19.1	174.920	-0.070	-0.310	1.690
2020/01/31 23:30:19.2	174.940	-0.120	-0.260	1.710
2020/01/31 23:30:19.3	174.950	-0.180	-0.210	1.720
2020/01/31 23:30:19.4	174.960	-0.230	-0.150	1.740
2020/01/31 23:30:19.5	174.980	-0.280	-0.100	1.750
2020/01/31 23:30:19.6	174.990	-0.320	-0.060	1.760
2020/01/31 23:30:19.7	175.010	-0.370	-0.010	1.770
2020/01/31 23:30:19.8	175.030	-0.410	0.030	1.780
2020/01/31 23:30:19.9	175.040	-0.440	0.070	1.790
2020/01/31 23:30:20.0	175.060	-0.480	0.100	1.800
2020/01/31 23:30:20.1	175.080	-0.500	0.130	1.810
2020/01/31 23:30:20.2	175.100	-0.530	0.150	1.820
2020/01/31 23:30:20.3	175.120	-0.550	0.170	1.830
2020/01/31 23:30:20.4	175.130	-0.560	0.180	1.830
2020/01/31 23:30:20.5	175.140	-0.570	0.190	1.830
2020/01/31 23:30:20.6	175.150	-0.570	0.190	1.840
2020/01/31 23:30:20.7	175.160	-0.570	0.180	1.840
2020/01/31 23:30:20.8	175.170	-0.570	0.170	1.840
2020/01/31 23:30:20.9	175.180	-0.550	0.150	1.840
2020/01/31 23:30:21.0	175.180	-0.540	0.130	1.850
2020/01/31 23:30:21.1	175.190	-0.510	0.100	1.850
2020/01/31 23:30:21.2	175.190	-0.490	0.070	1.850
2020/01/31 23:30:21.3	175.180	-0.460	0.040	1.850
2020/01/31 23:30:21.4	175.180	-0.420	-0.000	1.850
2020/01/31 23:30:21.5	175.170	-0.380	-0.040	1.850
2020/01/31 23:30:21.6	175.160	-0.340	-0.090	1.850
2020/01/31 23:30:21.7	175.150	-0.290	-0.130	1.850
2020/01/31 23:30:21.8	175.130	-0.250	-0.180	1.850
2020/01/31 23:30:21.9	175.120	-0.200	-0.230	1.850
2020/01/31 23:30:22.0	175.100	-0.150	-0.280	1.850
2020/01/31 23:30:22.1	175.060	-0.090	-0.320	1.850
2020/01/31 23:30:22.2	175.040	-0.040	-0.370	1.840
2020/01/31 23:30:22.3	175.020	0.010	-0.410	1.840
2020/01/31 23:30:22.4	175.000	0.060	-0.450	1.830
2020/01/31 23:30:22.5	174.990	0.120	-0.490	1.820
2020/01/31 23:30:22.6	174.970	0.170	-0.530	1.810
2020/01/31 23:30:22.7	174.950	0.210	-0.550	1.790
2020/01/31 23:30:22.8	174.940	0.260	-0.580	1.770
2020/01/31 23:30:22.9	174.920	0.300	-0.600	1.750
2020/01/31 23:30:23.0	174.910	0.340	-0.610	1.730
2020/01/31 23:30:23.1	174.900	0.380	-0.620	1.700
2020/01/31 23:30:23.2	174.890	0.410	-0.630	1.670
2020/01/31 23:30:23.3	174.880	0.440	-0.620	1.640
2020/01/31 23:30:23.4	174.870	0.470	-0.610	1.600
2020/01/31 23:30:23.5	174.860	0.490	-0.600	1.560
2020/01/31 23:30:23.6	174.850	0.510	-0.580	1.520
2020/01/31 23:30:23.7	174.850	0.530	-0.560	1.480
2020/01/31 23:30:23.8	174.840	0.540	-0.530	1.440
2020/01/31 23:30:23.9	174.830	0.540	-0.490	1.390
2020/01/31 23:30:24.0	174.830	0.550	-0.460	1.350
2020/01/31 23:30:24.1	174.820	0.550	-0.410	1.310
2020/01/31 23:30:24.2	174.820	0.540	-0.370	1.260
2020/01/31 23:30:24.3	174.810	0.540	-0.330	1.220
2020/01/31 23:30:24.4	174.810	0.520	-0.280	1.180
2020/01/31 23:30:24.5	174.820	0.510	-0.230	1.130
2020/01/31 23:30:24.6	174.820	0.490	-0.180	1.090
2020/01/31 23:30:24.7	174.820	0.470	-0.130	1.050
2020/01/31 23:30:24.8	174.830	0.450	-0.080	1.010
2020/01/31 23:30:24.9	174.840	0.430	-0.030	0.970
2020/01/31 23:30:25.0	174.850	0.400	0.020	0.940
2020/01/31 23:30:25.1	174.850	0.370	0.070	0.900
2020/01/31 23:30:25.2	174.870	0.340	0.120	0.870
2020/01/31 23:30:25.3	174.890	0.300	0.170	0.840
2020/01/31 23:30:25.4	174.910	0.270	0.210	0.810
2020/01/31 23:30:25.5	174.930	0.230	0.250	0.790
2020/01/31 23:30:25.6	174.950	0.190	0.290	0.770
2020/01/31 23:30:25.7	174.980	0.150	0.330	0.750
2020/01/31 23:30:25.8	175.010	0.110	0.360	0.730
2020/01/31 23:30:25.9	175.030	0.070	0.390	0.720
2020/01/31 23:30:26.0	175.060	0.030	0.420	0.710
2020/01/31 23:30:26.1	175.080	-0.010	0.430	0.710
2020/01/31 23:30:26.2	175.110	-0.050	0.450	0.700
2020/01/31 23:30:26.3	175.140	-0.090	0.460	0.710
2020/01/31 23:30:26.4	175.170	-0.130	0.460	0.710
2020/01/31 23:30:26.5	175.200	-0.160	0.460	0.720
2020/01/31 23:30:26.6	175.230	-0.200	0.450	0.740
2020/01/31 23:30:26.7	175.250	-0.230	0.440	0.760
2020/01/31 23:30:26.8	175.280	-0.270	0.430	0.780
2020/01/31 23:30:26.9	175.300	-0.300	0.400	0.810
2020/01/31 23:30:27.0	175.320	-0.320	0.370	0.840
2020/01/31 23:30:27.1	175.330	-0.350	0.340	0.880
2020/01/31 23:30:27.2	175.340	-0.370	0.300	0.920
2020/01/31 23:30:27.3	175.360	-0.390	0.250	0.960
2020/01/31 23:30:27.4	175.370	-0.410	0.200	1.000
2020/01/31 23:30:27.5	175.380	-0.420	0.140	1.050
2020/01/31 23:30:27.6	175.390	-0.430	0.070	1.100
2020/01/31 23:30:27.7	175.400	-0.430	0.000	1.150
2020/01/31 23:30:27.8	175.400	-0.430	-0.070	1.200
2020/01/31 23:30:27.9	175.400	-0.430	-0.140	1.260
2020/01/31 23:30:28.0	175.400	-0.420	-0.220	1.310
2020/01/31 23:30:28.1	175.400	-0.410	-0.310	1.370
2020/01/31 23:30:28.2	175.400	-0.390	-0.390	1.420
2020/01/31 23:30:28.3	175.390	-0.370	-0.470	1.470
2020/01/31 23:30:28.4	175.380	-0.350	-0.560	1.520
2020/01/31 23:30:28.5	175.370	-0.320	-0.640	1.570
2020/01/31 23:30:28.6	175.350	-0.290	-0.720	1.620
2020/01/31 23:30:28.7	175.340	-0.260	-0.800	1.670
2020/01/31 23:30:28.8	175.320	-0.220	-0.880	1.710
2020/01/31 23:30:28.9	175.300	-0.190	-0.950	1.750
2020/01/31 23:30:29.0	175.280	-0.140	-1.020	1.790
2020/01/31 23:30:29.1	175.240	-0.100	-1.080	1.830
2020/01/31 23:30:29.2	175.210	-0.060	-1.140	1.860
2020/01/31 23:30:29.3	175.190	-0.010	-1.190	1.890
2020/01/31 23:30:29.4	175.160	0.040	-1.230	1.920
2020/01/31 23:30:29.5	175.130	0.080	-1.270	1.940
2020/01/31 23:30:29.6	175.110	0.130	-1.300	1.960
2020/01/31 23:30:29.7	175.080	0.180	-1.320	1.970
2020/01/31 23:30:29.8	175.050	0.230	-1.330	1.980
2020/01/31 23:30:29.9	175.030	0.280	-1.330	1.990
2020/01/31 23:30:30.0	175.000	0.320	-1.330	1.990
2020/01/31 23:30:30.1	174.980	0.370	-1.310	1.980
2020/01/31 23:30:30.2	174.960	0.410	-1.290	1.970
2020/01/31 23:30:30.3	174.930	0.460	-1.260	1.960
2020/01/31 23:30:30.4	174.910	0.500	-1.220	1.940
2020/01/31 23:30:30.5	174.890	0.540	-1.180	1.920
2020/01/31 23:30:30.6	174.870	0.570	-1.130	1.890
2020/01/31 23:30:30.7	174.860	0.610	-1.070	1.860
2020/01/31 23:30:30.8	174.850	0.640	-1.010	1.820
2020/01/31 23:30:30.9	174.840	0.660	-0.940	1.780
2020/01/31 23:30:31.0	174.830	0.690	-0.860	1.730
2020/01/31 23:30:31.1	174.840	0.710	-0.790	1.680
2020/01/31 23:30:31.2	174.830	0.720	-0.710	1.630
2020/01/31 23:30:31.3	174.830	0.730	-0.630	1.570
2020/01/31 23:30:31.4	174.840	0.730	-0.550	1.510
2020/01/31 23:30:31.5	174.840	0.730	-0.460	1.450
2020/01/31 23:30:31.6	174.850	0.730	-0.380	1.390
2020/01/31 23:30:31.7	174.860	0.720	-0.300	1.330
2020/01/31 23:30:31.8	174.880	0.700	-0.210	1.270
2020/01/31 23:30:31.9	174.890	0.680	-0.130	1.210
2020/01/31 23:30:32.0	174.910	0.650	-0.060	1.160
2020/01/31 23:30:32.1	174.940	0.620	0.020	1.100
2020/01/31 23:30:32.2	174.950	0.590	0.090	1.050
2020/01/31 23:30:32.3	174.970	0.550	0.150	1.010
2020/01/31 23:30:32.4	174.990	0.500	0.210	0.960
2020/01/31 23:30:32.5	175.010	0.450	0.260	0.930
2020/01/31 23:30:32.6	175.020	0.390	0.310	0.900
2020/01/31 23:30:32.7	175.040	0.340	0.350	0.870
2020/01/31 23:30:32.8	175.050	0.280	0.390	0.850
2020/01/31 23:30:32.9	175.060	0.210	0.420	0.840
2020/01/31 23:30:33.0	175.070	0.150	0.440	0.830
2020/01/31 23:30:33.1	175.100	0.080	0.460	0.820
2020/01/31 23:30:33.2	175.100	0.010	0.470	0.830
2020/01/31 23:30:33.3	175.100	-0.060	0.470	0.840
2020/01/31 23:30:33.4	175.100	-0.130	0.460	0.850
2020/01/31 23:30:33.5	175.100	-0.210	0.450	0.880
2020/01/31 23:30:33.6	175.100	-0.280	0.430	0.900
2020/01/31 23:30:33.7	175.090	-0.350	0.400	0.930
2020/01/31 23:30:33.8	175.080	-0.410	0.370	0.970
2020/01/31 23:30:33.9	175.070	-0.480	0.330	1.000
2020/01/31 23:30:34.0	175.060	-0.540	0.290	1.050
2020/01/31 23:30:34.1	175.050	-0.600	0.240	1.090
2020/01/31 23:30:34.2	175.030	-0.660	0.190	1.140
2020/01/31 23:30:34.3	175.020	-0.710	0.140	1.190
2020/01/31 23:30:34.4	175.000	-0.760	0.080	1.240
2020/01/31 23:30:34.5	174.970	-0.800	0.020	1.290
2020/01/31 23:30:34.6	174.950	-0.840	-0.040	1.350
2020/01/31 23:30:34.7	174.930	-0.880	-0.100	1.410
2020/01/31 23:30:34.8	174.900	-0.900	-0.160	1.470
2020/01/31 23:30:34.9	174.870	-0.920	-0.220	1.530
2020/01/31 23:30:35.0	174.840	-0.940	-0.280	1.590
2020/01/31 23:30:35.1	174.820	-0.950	-0.340	1.650
2020/01/31 23:30:35.2	174.780	-0.950	-0.400	1.720
2020/01/31 23:30:35.3	174.750	-0.950	-0.450	1.780
2020/01/31 23:30:35.4	174.710	-0.930	-0.510	1.840
2020/01/31 23:30:35.5	174.680	-0.920	-0.550	1.900
2020/01/31 23:30:35.6	174.640	-0.900	-0.600	1.960
2020/01/31 23:30:35.7	174.600	-0.870	-0.640	2.020
2020/01/31 23:30:35.8	174.570	-0.830	-0.680	2.070
2020/01/31 23:30:35.9	174.530	-0.790	-0.710	2.120
2020/01/31 23:30:36.0	174.500	-0.750	-0.740	2.170
2020/01/31 23:30:36.1	174.460	-0.700	-0.760	2.210
2020/01/31 23:30:36.2	174.430	-0.650	-0.780	2.240
2020/01/31 23:30:36.3	174.400	-0.600	-0.790	2.270
2020/01/31 23:30:36.4	174.370	-0.540	-0.800	2.300
2020/01/31 23:30:36.5	174.340	-0.480	-0.800	2.310
2020/01/31 23:30:36.6	174.310	-0.420	-0.800	2.330
2020/01/31 23:30:36.7	174.290	-0.360	-0.790	2.330
2020/01/31 23:30:36.8	174.260	-0.290	-0.770	2.330
2020/01/31 23:30:36.9	174.240	-0.230	-0.760	2.320
2020/01/31 23:30:37.0	174.230	-0.170	-0.730	2.310
2020/01/31 23:30:37.1	174.240	-0.110	-0.700	2.300
2020/01/31 23:30:37.2	174.220	-0.050	-0.670	2.280
2020/01/31 23:30:37.3	174.220	0.000	-0.640	2.250
2020/01/31 23:30:37.4	174.210	0.050	-0.600	2.220
2020/01/31 23:30:37.5	174.200	0.100	-0.560	2.190
2020/01/31 23:30:37.6	174.200	0.150	-0.510	2.150
2020/01/31 23:30:37.7	174.200	0.190	-0.470	2.110
2020/01/31 23:30:37.8	174.210	0.230	-0.420	2.070
2020/01/31 23:30:37.9	174.210	0.260	-0.370	2.020
2020/01/31 23:30:38.0	174.220	0.290	-0.310	1.980
2020/01/31 23:30:38.1	174.270	0.310	-0.260	1.930
2020/01/31 23:30:38.2	174.280	0.330	-0.210	1.870
2020/01/31 23:30:38.3	174.300	0.340	-0.160	1.820
2020/01/31 23:30:38.4	174.320	0.350	-0.100	1.760
2020/01/31 23:30:38.5	174.350	0.350	-0.050	1.710
2020/01/31 23:30:38.6	174.370	0.350	0.000	1.650
2020/01/31 23:30:38.7	174.400	0.340	0.050	1.590
2020/01/31 23:30:38.8	174.430	0.340	0.100	1.540
2020/01/31 23:30:38.9	174.460	0.320	0.140	1.480
2020/01/31 23:30:39.0	174.490	0.310	0.180	1.420
2020/01/31 23:30:39.1	174.520	0.290	0.230	1.370
2020/01/31 23:30:39.2	174.550	0.260	0.260	1.310
2020/01/31 23:30:39.3	174.580	0.240	0.290	1.260
2020/01/31 23:30:39.4	174.620	0.210	0.320	1.210
2020/01/31 23:30:39.5	174.650	0.180	0.350	1.170
2020/01/31 23:30:39.6	174.680	0.150	0.370	1.120
2020/01/31 23:30:39.7	174.710	0.120	0.380	1.080
2020/01/31 23:30:39.8	174.740	0.090	0.400	1.050
2020/01/31 23:30:39.9	174.770	0.060	0.410	1.010
2020/01/31 23:30:40.0	174.800	0.030	0.410	0.980
2020/01/31 23:30:40.1	174.800	-0.000	0.420	0.940
2020/01/31 23:30:40.2	174.830	-0.030	0.410	0.920
2020/01/31 23:30:40.3	174.860	-0.060	0.410	0.900
2020/01/31 23:30:40.4	174.880	-0.090	0.400	0.880
2020/01/31 23:30:40.5	174.910	-0.110	0.390	0.860
2020/01/31 23:30:40.6	174.940	-0.130	0.370	0.850
2020/01/31 23:30:40.7	174.970	-0.150	0.350	0.840
2020/01/31 23:30:40.8	175.000	-0.170	0.330	0.840
2020/01/31 23:30:40.9	175.020	-0.190	0.310	0.840
2020/01/31 23:30:41.0	175.050	-0.200	0.280	0.840
2020/01/31 23:30:41.1	175.050	-0.210	0.250	0.840
2020/01/31 23:30:41.2	175.080	-0.210	0.210	0.850
2020/01/31 23:30:41.3	175.100	-0.210	0.180	0.860
2020/01/31 23:30:41.4	175.120	-0.210	0.140	0.880
2020/01/31 23:30:41.5	175.140	-0.210	0.100	0.890
2020/01/31 23:30:41.6	175.160	-0.210	0.060	0.910
2020/01/31 23:30:41.7	175.180	-0.200	0.010	0.930
2020/01/31 23:30:41.8	175.200	-0.180	-0.030	0.960
2020/01/31 23:30:41.9	175.210	-0.170	-0.080	0.980
2020/01/31 23:30:42.0	175.220	-0.150	-0.120	1.010
2020/01/31 23:30:42.1	175.210	-0.130	-0.170	1.040
2020/01/31 23:30:42.2	175.220	-0.110	-0.220	1.070
2020/01/31 23:30:42.3	175.220	-0.090	-0.270	1.100
2020/01/31 23:30:42.4	175.220	-0.060	-0.310	1.130
2020/01/31 23:30:42.5	175.210	-0.040	-0.360	1.170
2020/01/31 23:30:42.6	175.210	-0.010	-0.410	1.210
2020/01/31 23:30:42.7	175.200	0.020	-0.450	1.240
2020/01/31 23:30:42.8	175.180	0.050	-0.500	1.280
2020/01/31 23:30:42.9	175.170	0.090	-0.540	1.320
2020/01/31 23:30:43.0	175.150	0.120	-0.580	1.360
2020/01/31 23:30:43.1	175.120	0.150	-0.620	1.400
2020/01/31 23:30:43.2	175.090	0.190	-0.660	1.440
2020/01/31 23:30:43.3	175.070	0.220	-0.700	1.470
2020/01/31 23:30:43.4	175.040	0.260	-0.730	1.510
2020/01/31 23:30:43.5	175.010	0.290	-0.760	1.540
2020/01/31 23:30:43.6	174.980	0.330	-0.790	1.570
2020/01/31 23:30:43.7	174.950	0.360	-0.820	1.600
2020/01/31 23:30:43.8	174.920	0.390	-0.840	1.630
2020/01/31 23:30:43.9	174.890	0.420	-0.860	1.660
2020/01/31 23:30:44.0	174.860	0.450	-0.870	1.680
2020/01/31 23:30:44.1	174.830	0.480	-0.880	1.690
2020/01/31 23:30:44.2	174.800	0.500	-0.890	1.700
2020/01/31 23:30:44.3	174.770	0.530	-0.890	1.710
2020/01/31 23:30:44.4	174.750	0.550	-0.890	1.720
2020/01/31 23:30:44.5	174.730	0.570	-0.880	1.720
2020/01/31 23:30:44.6	174.710	0.580	-0.870	1.710
2020/01/31 23:30:44.7	174.690	0.590	-0.850	1.710
2020/01/31 23:30:44.8	174.680	0.600	-0.820	1.700
2020/01/31 23:30:44.9	174.670	0.600	-0.800	1.680
2020/01/31 23:30:45.0	174.670	0.610	-0.760	1.660
2020/01/31 23:30:45.1	174.690	0.600	-0.730	1.640
2020/01/31 23:30:45.2	174.700	0.600	-0.680	1.620
2020/01/31 23:30:45.3	174.710	0.590	-0.640	1.600
2020/01/31 23:30:45.4	174.730	0.570	-0.590	1.570
2020/01/31 23:30:45.5	174.750	0.550	-0.540	1.550
2020/01/31 23:30:45.6	174.780	0.530	-0.480	1.520
2020/01/31 23:30:45.7	174.810	0.510	-0.420	1.500
2020/01/31 23:30:45.8	174.840	0.480	-0.360	1.480
2020/01/31 23:30:45.9	174.870	0.450	-0.300	1.450
2020/01/31 23:30:46.0	174.910	0.420	-0.240	1.430
2020/01/31 23:30:46.1	174.950	0.380	-0.170	1.410
2020/01/31 23:30:46.2	174.990	0.340	-0.110	1.400
2020/01/31 23:30:46.3	175.030	0.300	-0.050	1.380
2020/01/31 23:30:46.4	175.080	0.260	0.010	1.360
2020/01/31 23:30:46.5	175.120	0.220	0.070	1.350
2020/01/31 23:30:46.6	175.160	0.170	0.120	1.340
2020/01/31 23:30:46.7	175.200	0.130	0.170	1.330
2020/01/31 23:30:46.8	175.250	0.080	0.220	1.320
2020/01/31 23:30:46.9	175.280	0.040	0.260	1.310
2020/01/31 23:30:47.0	175.320	-0.000	0.300	1.300
2020/01/31 23:30:47.1	175.340	-0.050	0.320	1.300
2020/01/31 23:30:47.2	175.370	-0.090	0.350	1.290
2020/01/31 23:30:47.3	175.400	-0.120	0.370	1.290
2020/01/31 23:30:47.4	175.420	-0.160	0.380	1.290
2020/01/31 23:30:47.5	175.440	-0.190	0.380	1.290
2020/01/31 23:30:47.6	175.460	-0.220	0.380	1.300
2020/01/31 23:30:47.7	175.470	-0.240	0.380	1.300
2020/01/31 23:30:47.8	175.480	-0.270	0.360	1.310
2020/01/31 23:30:47.9	175.480	-0.280	0.340	1.320
2020/01/31 23:30:48.0	175.480	-0.300	0.310	1.330
2020/01/31 23:30:48.1	175.480	-0.310	0.280	1.350
2020/01/31 23:30:48.2	175.470	-0.310	0.240	1.360
2020/01/31 23:30:48.3	175.460	-0.310	0.200	1.380
2020/01/31 23:30:48.4	175.440	-0.310	0.150	1.400
2020/01/31 23:30:48.5	175.420	-0.300	0.090	1.430
2020/01/31 23:30:48.6	175.390	-0.290	0.030	1.450
2020/01/31 23:30:48.7	175.370	-0.280	-0.030	1.480
2020/01/31 23:30:48.8	175.340	-0.260	-0.100	1.510
2020/01/31 23:30:48.9	175.300	-0.230	-0.170	1.550
2020/01/31 23:30:49.0	175.270	-0.210	-0.240	1.580
2020/01/31 23:30:49.1	175.240	-0.180	-0.310	1.610
2020/01/31 23:30:49.2	175.200	-0.150	-0.380	1.650
2020/01/31 23:30:49.3	175.160	-0.110	-0.450	1.680
2020/01/31 23:30:49.4	175.120	-0.080	-0.520	1.710
2020/01/31 23:30:49.5	175.080	-0.040	-0.590	1.750
2020/01/31 23:30:49.6	175.040	-0.000	-0.650	1.780
2020/01/31 23:30:49.7	175.000	0.040	-0.710	1.810
2020/01/31 23:30:49.8	174.960	0.070	-0.760	1.830
2020/01/31 23:30:49.9	174.930	0.110	-0.810	1.860
2020/01/31 23:30:50.0	174.900	0.150	-0.850	1.880
2020/01/31 23:30:50.1	174.860	0.190	-0.890	1.890
2020/01/31 23:30:50.2	174.830	0.220	-0.910	1.900
2020/01/31 23:30:50.3	174.810	0.250	-0.930	1.910
2020/01/31 23:30:50.4	174.790	0.280	-0.940	1.920
2020/01/31 23:30:50.5	174.770	0.300	-0.940	1.920
2020/01/31 23:30:50.6	174.760	0.320	-0.940	1.910
2020/01/31 23:30:50.7	174.750	0.340	-0.920	1.900
2020/01/31 23:30:50.8	174.740	0.350	-0.900	1.890
2020/01/31 23:30:50.9	174.740	0.360	-0.880	1.870
2020/01/31 23:30:51.0	174.740	0.370	-0.840	1.840
2020/01/31 23:30:51.1	174.750	0.360	-0.800	1.810
2020/01/31 23:30:51.2	174.760	0.360	-0.750	1.780
2020/01/31 23:30:51.3	174.780	0.350	-0.700	1.740
2020/01/31 23:30:51.4	174.800	0.330	-0.640	1.700
2020/01/31 23:30:51.5	174.820	0.310	-0.580	1.660
2020/01/31 23:30:51.6	174.850	0.280	-0.520	1.620
2020/01/31 23:30:51.7	174.880	0.250	-0.450	1.570
2020/01/31 23:30:51.8	174.910	0.220	-0.380	1.520
2020/01/31 23:30:51.9	174.950	0.180	-0.320	1.470
2020/01/31 23:30:52.0	174.990	0.140	-0.250	1.430
2020/01/31 23:30:52.1	175.020	0.100	-0.180	1.380
2020/01/31 23:30:52.2	175.060	0.050	-0.120	1.330
2020/01/31 23:30:52.3	175.100	0.000	-0.060	1.290
2020/01/31 23:30:52.4	175.140	-0.050	-0.000	1.250
2020/01/31 23:30:52.5	175.190	-0.090	0.050	1.210
2020/01/31 23:30:52.6	175.230	-0.140	0.090	1.170
2020/01/31 23:30:52.7	175.270	-0.190	0.130	1.140
2020/01/31 23:30:52.8	175.310	-0.240	0.170	1.110
2020/01/31 23:30:52.9	175.350	-0.280	0.200	1.080
2020/01/31 23:30:53.0	175.390	-0.330	0.220	1.060
2020/01/31 23:30:53.1	175.410	-0.370	0.240	1.040
2020/01/31 23:30:53.2	175.440	-0.400	0.250	1.030
2020/01/31 23:30:53.3	175.470	-0.430	0.250	1.020
2020/01/31 23:30:53.4	175.500	-0.460	0.240	1.010
2020/01/31 23:30:53.5	175.520	-0.490	0.230	1.000
2020/01/31 23:30:53.6	175.540	-0.500	0.210	1.000
2020/01/31 23:30:53.7	175.560	-0.520	0.190	1.010
2020/01/31 23:30:53.8	175.580	-0.530	0.160	1.010
2020/01/31 23:30:53.9	175.590	-0.530	0.120	1.020
2020/01/31 23:30:54.0	175.600	-0.530	0.080	1.030
2020/01/31 23:30:54.1	175.590	-0.520	0.040	1.040
2020/01/31 23:30:54.2	175.590	-0.510	-0.010	1.050
2020/01/31 23:30:54.3	175.590	-0.490	-0.070	1.070
2020/01/31 23:30:54.4	175.590	-0.470	-0.120	1.090
2020/01/31 23:30:54.5	175.590	-0.450	-0.180	1.110
2020/01/31 23:30:54.6	175.580	-0.420	-0.240	1.120
2020/01/31 23:30:54.7	175.570	-0.390	-0.310	1.140
2020/01/31 23:30:54.8	175.560	-0.360	-0.370	1.170
2020/01/31 23:30:54.9	175.550	-0.320	-0.430	1.190
2020/01/31 23:30:55.0	175.530	-0.290	-0.490	1.210
2020/01/31 23:30:55.1	175.530	-0.250	-0.540	1.240
2020/01/31 23:30:55.2	175.520	-0.210	-0.600	1.260
2020/01/31 23:30:55.3	175.500	-0.180	-0.650	1.280
2020/01/31 23:30:55.4	175.490	-0.140	-0.690	1.300
2020/01/31 23:30:55.5	175.470	-0.110	-0.740	1.320
2020/01/31 23:30:55.6	175.460	-0.070	-0.770	1.340
2020/01/31 23:30:55.7	175.450	-0.040	-0.810	1.360
2020/01/31 23:30:55.8	175.430	-0.020	-0.830	1.380
2020/01/31 23:30:55.9	175.420	0.010	-0.850	1.390
2020/01/31 23:30:56.0	175.410	0.030	-0.870	1.410
2020/01/31 23:30:56.1	175.410	0.050	-0.880	1.420
2020/01/31 23:30:56.2	175.400	0.060	-0.880	1.430
2020/01/31 23:30:56.3	175.390	0.080	-0.880	1.450
2020/01/31 23:30:56.4	175.390	0.080	-0.870	1.460
2020/01/31 23:30:56.5	175.390	0.090	-0.860	1.470
2020/01/31 23:30:56.6	175.390	0.090	-0.840	1.480
2020/01/31 23:30:56.7	175.390	0.080	-0.820	1.490
2020/01/31 23:30:56.8	175.390	0.080	-0.790	1.500
2020/01/31 23:30:56.9	175.390	0.070	-0.750	1.500
2020/01/31 23:30:57.0	175.400	0.050	-0.720	1.510
2020/01/31 23:30:57.1	175.410	0.040	-0.680	1.520
2020/01/31 23:30:57.2	175.410	0.020	-0.630	1.520
2020/01/31 23:30:57.3	175.420	0.000	-0.590	1.510
2020/01/31 23:30:57.4	175.430	-0.020	-0.540	1.510
2020/01/31 23:30:57.5	175.430	-0.050	-0.480	1.500
2020/01/31 23:30:57.6	175.440	-0.070	-0.430	1.500
2020/01/31 23:30:57.7	175.450	-0.100	-0.380	1.490
2020/01/31 23:30:57.8	175.460	-0.120	-0.320	1.480
2020/01/31 23:30:57.9	175.470	-0.150	-0.270	1.470
2020/01/31 23:30:58.0	175.470	-0.180	-0.210	1.460
2020/01/31 23:30:58.1	175.490	-0.200	-0.160	1.440
2020/01/31 23:30:58.2	175.490	-0.220	-0.110	1.430
2020/01/31 23:30:58.3	175.500	-0.250	-0.060	1.420
2020/01/31 23:30:58.4	175.500	-0.270	-0.010	1.410
2020/01/31 23:30:58.5	175.500	-0.280	0.030	1.400
2020/01/31 23:30:58.6	175.500	-0.300	0.070	1.390
2020/01/31 23:30:58.7	175.500	-0.310	0.110	1.380
2020/01/31 23:30:58.8	175.500	-0.320	0.140	1.370
2020/01/31 23:30:58.9	175.490	-0.330	0.170	1.370
2020/01/31 23:30:59.0	175.490	-0.330	0.200	1.360
2020/01/31 23:30:59.1	175.470	-0.330	0.220	1.360
2020/01/31 23:30:59.2	175.460	-0.320	0.230	1.350
2020/01/31 23:30:59.3	175.450	-0.320	0.250	1.350
2020/01/31 23:30:59.4	175.450	-0.310	0.260	1.350
2020/01/31 23:30:59.5	175.430	-0.290	0.270	1.350
2020/01/31 23:30:59.6	175.420	-0.280	0.270	1.350
2020/01/31 23:30:59.7	175.410	-0.260	0.280	1.350
2020/01/31 23:30:59.8	175.400	-0.230	0.280	1.350
2020/01/31 23:30:59.9	175.390	-0.210	0.270	1.350
2020/01/31 23:31:00.0	175.380	-0.180	0.270	1.350
2020/01/31 23:31:00.1	175.380	-0.160	0.270	1.350
2020/01/31 23:31:00.2	175.370	-0.130	0.260	1.350
2020/01/31 23:31:00.3	175.370	-0.100	0.260	1.350
2020/01/31 23:31:00.4	175.360	-0.060	0.250	1.340
2020/01/31 23:31:00.5	175.360	-0.030	0.240	1.340
2020/01/31 23:31:00.6	175.360	-0.000	0.240	1.340
2020/01/31 23:31:00.7	175.360	0.030	0.230	1.340
2020/01/31 23:31:00.8	175.360	0.060	0.230	1.330
2020/01/31 23:31:00.9	175.370	0.090	0.220	1.330
2020/01/31 23:31:01.0	175.370	0.120	0.220	1.320
2020/01/31 23:31:01.1	175.380	0.140	0.220	1.320
2020/01/31 23:31:01.2	175.390	0.170	0.210	1.320
2020/01/31 23:31:01.3	175.400	0.190	0.210	1.310
2020/01/31 23:31:01.4	175.410	0.210	0.210	1.310
2020/01/31 23:31:01.5	175.420	0.230	0.210	1.300
2020/01/31 23:31:01.6	175.440	0.240	0.220	1.300
2020/01/31 23:31:01.7	175.450	0.250	0.220	1.290
2020/01/31 23:31:01.8	175.470	0.260	0.220	1.280
2020/01/31 23:31:01.9	175.480	0.270	0.230	1.280
2020/01/31 23:31:02.0	175.500	0.270	0.240	1.270
2020/01/31 23:31:02.1	175.520	0.270	0.240	1.260
2020/01/31 23:31:02.2	175.540	0.270	0.250	1.250
2020/01/31 23:31:02.3	175.560	0.260	0.260	1.240
2020/01/31 23:31:02.4	175.590	0.250	0.270	1.240
2020/01/31 23:31:02.5	175.610	0.240	0.280	1.230
2020/01/31 23:31:02.6	175.630	0.230	0.290	1.230
2020/01/31 23:31:02.7	175.650	0.220	0.290	1.220
2020/01/31 23:31:02.8	175.680	0.200	0.300	1.220
2020/01/31 23:31:02.9	175.700	0.190	0.300	1.210
2020/01/31 23:31:03.0	175.720	0.180	0.310	1.210
2020/01/31 23:31:03.1	175.740	0.160	0.300	1.220
2020/01/31 23:31:03.2	175.760	0.150	0.290	1.220
2020/01/31 23:31:03.3	175.780	0.140	0.290	1.220
2020/01/31 23:31:03.4	175.800	0.120	0.280	1.220
2020/01/31 23:31:03.5	175.820	0.120	0.270	1.220
2020/01/31 23:31:03.6	175.840	0.110	0.250	1.230
2020/01/31 23:31:03.7	175.850	0.110	0.240	1.230
2020/01/31 23:31:03.8	175.870	0.110	0.210	1.240
2020/01/31 23:31:03.9	175.880	0.110	0.190	1.240
2020/01/31 23:31:04.0	175.890	0.120	0.160	1.250
2020/01/31 23:31:04.1	175.870	0.130	0.130	1.250
2020/01/31 23:31:04.2	175.880	0.140	0.090	1.260
2020/01/31 23:31:04.3	175.880	0.160	0.050	1.260
2020/01/31 23:31:04.4	175.880	0.180	-0.000	1.270
2020/01/31 23:31:04.5	175.870	0.210	-0.060	1.280
2020/01/31 23:31:04.6	175.860	0.240	-0.120	1.290
2020/01/31 23:31:04.7	175.850	0.270	-0.180	1.300
2020/01/31 23:31:04.8	175.840	0.310	-0.240	1.310
2020/01/31 23:31:04.9	175.820	0.350	-0.310	1.310
2020/01/31 23:31:05.0	175.810	0.390	-0.380	1.320
2020/01/31 23:31:05.1	175.790	0.430	-0.450	1.330
2020/01/31 23:31:05.2	175.770	0.470	-0.520	1.330
2020/01/31 23:31:05.3	175.750	0.520	-0.590	1.340
2020/01/31 23:31:05.4	175.740	0.560	-0.660	1.340
2020/01/31 23:31:05.5	175.720	0.610	-0.730	1.340
2020/01/31 23:31:05.6	175.710	0.650	-0.800	1.340
2020/01/31 23:31:05.7	175.690	0.690	-0.860	1.330
2020/01/31 23:31:05.8	175.680	0.730	-0.910	1.330
2020/01/31 23:31:05.9	175.660	0.760	-0.970	1.330
2020/01/31 23:31:06.0	175.650	0.790	-1.010	1.330
2020/01/31 23:31:06.1	175.630	0.820	-1.060	1.320
2020/01/31 23:31:06.2	175.620	0.840	-1.100	1.320
2020/01/31 23:31:06.3	175.610	0.860	-1.130	1.320
2020/01/31 23:31:06.4	175.600	0.870	-1.150	1.320
2020/01/31 23:31:06.5	175.590	0.880	-1.170	1.320
2020/01/31 23:31:06.6	175.580	0.880	-1.180	1.320
2020/01/31 23:31:06.7	175.570	0.870	-1.190	1.320
2020/01/31 23:31:06.8	175.560	0.860	-1.190	1.330
2020/01/31 23:31:06.9	175.550	0.850	-1.180	1.330
2020/01/31 23:31:07.0	175.540	0.830	-1.170	1.340
2020/01/31 23:31:07.1	175.530	0.800	-1.140	1.350
2020/01/31 23:31:07.2	175.530	0.770	-1.120	1.360
2020/01/31 23:31:07.3	175.520	0.730	-1.100	1.370
2020/01/31 23:31:07.4	175.510	0.690	-1.070	1.380
2020/01/31 23:31:07.5	175.500	0.640	-1.030	1.390
2020/01/31 23:31:07.6	175.500	0.590	-1.000	1.400
2020/01/31 23:31:07.7	175.490	0.530	-0.960	1.410
2020/01/31 23:31:07.8	175.480	0.470	-0.920	1.430
2020/01/31 23:31:07.9	175.480	0.410	-0.880	1.440
2020/01/31 23:31:08.0	175.470	0.340	-0.840	1.450
2020/01/31 23:31:08.1	175.470	0.280	-0.800	1.470
2020/01/31 23:31:08.2	175.460	0.210	-0.760	1.480
2020/01/31 23:31:08.3	175.450	0.140	-0.710	1.490
2020/01/31 23:31:08.4	175.450	0.070	-0.680	1.500
2020/01/31 23:31:08.5	175.440	-0.000	-0.640	1.510
2020/01/31 23:31:08.6	175.430	-0.080	-0.600	1.520
2020/01/31 23:31:08.7	175.420	-0.150	-0.570	1.530
2020/01/31 23:31:08.8	175.410	-0.220	-0.540	1.550
2020/01/31 23:31:08.9	175.400	-0.280	-0.510	1.560
2020/01/31 23:31:09.0	175.400	-0.350	-0.490	1.570
2020/01/31 23:31:09.1	175.380	-0.410	-0.460	1.580
2020/01/31 23:31:09.2	175.370	-0.470	-0.450	1.590
2020/01/31 23:31:09.3	175.360	-0.530	-0.430	1.600
2020/01/31 23:31:09.4	175.350	-0.580	-0.420	1.610
2020/01/31 23:31:09.5	175.350	-0.630	-0.420	1.630
2020/01/31 23:31:09.6	175.340	-0.670	-0.420	1.640
2020/01/31 23:31:09.7	175.330	-0.710	-0.420	1.660
2020/01/31 23:31:09.8	175.330	-0.750	-0.420	1.670
2020/01/31 23:31:09.9	175.320	-0.780	-0.420	1.690
2020/01/31 23:31:10.0	175.320	-0.800	-0.430	1.700
2020/01/31 23:31:10.1	175.320	-0.820	-0.440	1.720
2020/01/31 23:31:10.2	175.320	-0.840	-0.450	1.740
2020/01/31 23:31:10.3	175.320	-0.850	-0.470	1.760
2020/01/31 23:31:10.4	175.310	-0.860	-0.480	1.780
2020/01/31 23:31:10.5	175.310	-0.860	-0.490	1.790
2020/01/31 23:31:10.6	175.310	-0.860	-0.500	1.810
2020/01/31 23:31:10.7	175.310	-0.860	-0.520	1.820
2020/01/31 23:31:10.8	175.310	-0.850	-0.530	1.840
2020/01/31 23:31:10.9	175.310	-0.830	-0.530	1.850
2020/01/31 23:31:11.0	175.310	-0.820	-0.540	1.860
2020/01/31 23:31:11.1	175.320	-0.800	-0.550	1.870
2020/01/31 23:31:11.2	175.320	-0.780	-0.550	1.880
2020/01/31 23:31:11.3	175.330	-0.750	-0.550	1.890
2020/01/31 23:31:11.4	175.330	-0.730	-0.550	1.890
2020/01/31 23:31:11.5	175.330	-0.700	-0.540	1.890
2020/01/31 23:31:11.6	175.340	-0.670	-0.530	1.890
2020/01/31 23:31:11.7	175.340	-0.640	-0.510	1.880
2020/01/31 23:31:11.8	175.350	-0.610	-0.490	1.870
2020/01/31 23:31:11.9	175.350	-0.580	-0.470	1.860
2020/01/31 23:31:12.0	175.360	-0.540	-0.450	1.850
2020/01/31 23:31:12.1	175.360	-0.510	-0.410	1.830
2020/01/31 23:31:12.2	175.370	-0.480	-0.380	1.810
2020/01/31 23:31:12.3	175.380	-0.450	-0.350	1.790
2020/01/31 23:31:12.4	175.380	-0.420	-0.310	1.770
2020/01/31 23:31:12.5	175.390	-0.390	-0.280	1.750
2020/01/31 23:31:12.6	175.400	-0.360	-0.240	1.720
2020/01/31 23:31:12.7	175.400	-0.330	-0.200	1.690
2020/01/31 23:31:12.8	175.410	-0.310	-0.150	1.670
2020/01/31 23:31:12.9	175.410	-0.280	-0.110	1.640
2020/01/31 23:31:13.0	175.420	-0.260	-0.070	1.610
2020/01/31 23:31:13.1	175.430	-0.240	-0.030	1.580
2020/01/31 23:31:13.2	175.430	-0.220	0.010	1.550
2020/01/31 23:31:13.3	175.430	-0.200	0.050	1.520
2020/01/31 23:31:13.4	175.430	-0.180	0.080	1.500
2020/01/31 23:31:13.5	175.430	-0.160	0.120	1.470
2020/01/31 23:31:13.6	175.430	-0.140	0.150	1.450
2020/01/31 23:31:13.7	175.420	-0.130	0.180	1.420
2020/01/31 23:31:13.8	175.420	-0.120	0.210	1.400
2020/01/31 23:31:13.9	175.410	-0.100	0.230	1.380
2020/01/31 23:31:14.0	175.400	-0.090	0.260	1.360
2020/01/31 23:31:14.1	175.390	-0.080	0.280	1.340
2020/01/31 23:31:14.2	175.380	-0.070	0.290	1.320
2020/01/31 23:31:14.3	175.370	-0.060	0.300	1.310
2020/01/31 23:31:14.4	175.360	-0.050	0.310	1.300
2020/01/31 23:31:14.5	175.350	-0.040	0.320	1.290
2020/01/31 23:31:14.6	175.340	-0.030	0.320	1.280
2020/01/31 23:31:14.7	175.340	-0.030	0.320	1.260
2020/01/31 23:31:14.8	175.330	-0.020	0.320	1.250
2020/01/31 23:31:14.9	175.320	-0.020	0.320	1.240
2020/01/31 23:31:15.0	175.310	-0.010	0.320	1.240
2020/01/31 23:31:15.1	175.300	-0.010	0.310	1.230
2020/01/31 23:31:15.2	175.300	-0.000	0.310	1.220
2020/01/31 23:31:15.3	175.300	0.000	0.310	1.210
2020/01/31 23:31:15.4	175.300	0.000	0.310	1.200
2020/01/31 23:31:15.5	175.300	0.000	0.310	1.190
2020/01/31 23:31:15.6	175.310	0.000	0.310	1.180
2020/01/31 23:31:15.7	175.320	0.000	0.320	1.170
2020/01/31 23:31:15.8	175.320	0.000	0.320	1.160
2020/01/31 23:31:15.9	175.330	0.000	0.330	1.150
2020/01/31 23:31:16.0	175.340	0.000	0.330	1.140
2020/01/31 23:31:16.1	175.350	-0.000	0.340	1.130
2020/01/31 23:31:16.2	175.370	-0.010	0.350	1.130
2020/01/31 23:31:16.3	175.380	-0.010	0.360	1.120
2020/01/31 23:31:16.4	175.390	-0.010	0.370	1.110
2020/01/31 23:31:16.5	175.410	-0.020	0.380	1.110
2020/01/31 23:31:16.6	175.430	-0.020	0.400	1.110
2020/01/31 23:31:16.7	175.440	-0.030	0.410	1.100
2020/01/31 23:31:16.8	175.460	-0.030	0.420	1.100
2020/01/31 23:31:16.9	175.470	-0.030	0.430	1.100
2020/01/31 23:31:17.0	175.490	-0.040	0.430	1.100
2020/01/31 23:31:17.1	175.510	-0.040	0.440	1.100
2020/01/31 23:31:17.2	175.520	-0.040	0.440	1.100
2020/01/31 23:31:17.3	175.540	-0.050	0.440	1.100
2020/01/31 23:31:17.4	175.550	-0.050	0.440	1.100
2020/01/31 23:31:17.5	175.570	-0.050	0.440	1.110
2020/01/31 23:31:17.6	175.580	-0.050	0.430	1.110
2020/01/31 23:31:17.7	175.600	-0.050	0.420	1.120
2020/01/31 23:31:17.8	175.610	-0.040	0.410	1.120
2020/01/31 23:31:17.9	175.630	-0.040	0.390	1.130
2020/01/31 23:31:18.0	175.640	-0.040	0.370	1.140
2020/01/31 23:31:18.1	175.640	-0.030	0.350	1.150
2020/01/31 23:31:18.2	175.650	-0.020	0.320	1.170
2020/01/31 23:31:18.3	175.660	-0.020	0.290	1.180
2020/01/31 23:31:18.4	175.670	-0.010	0.260	1.200
2020/01/31 23:31:18.5	175.680	0.000	0.220	1.210
2020/01/31 23:31:18.6	175.680	0.010	0.180	1.230
2020/01/31 23:31:18.7	175.690	0.030	0.140	1.250
2020/01/31 23:31:18.8	175.690	0.040	0.090	1.270
2020/01/31 23:31:18.9	175.690	0.050	0.040	1.300
2020/01/31 23:31:19.0	175.690	0.070	-0.010	1.320
2020/01/31 23:31:19.1	175.700	0.090	-0.060	1.350
2020/01/31 23:31:19.2	175.700	0.110	-0.120	1.370
2020/01/31 23:31:19.3	175.700	0.120	-0.170	1.400
2020/01/31 23:31:19.4	175.690	0.140	-0.230	1.430
2020/01/31 23:31:19.5	175.690	0.160	-0.290	1.450
2020/01/31 23:31:19.6	175.680	0.190	-0.340	1.480
2020/01/31 23:31:19.7	175.670	0.210	-0.400	1.500
2020/01/31 23:31:19.8	175.670	0.230	-0.450	1.520
2020/01/31 23:31:19.9	175.660	0.250	-0.500	1.540
2020/01/31 23:31:20.0	175.650	0.270	-0.550	1.560
2020/01/31 23:31:20.1	175.650	0.290	-0.600	1.580
2020/01/31 23:31:20.2	175.640	0.320	-0.640	1.600
2020/01/31 23:31:20.3	175.640	0.340	-0.680	1.610
2020/01/31 23:31:20.4	175.630	0.360	-0.720	1.620
2020/01/31 23:31:20.5	175.630	0.380	-0.750	1.630
2020/01/31 23:31:20.6	175.630	0.400	-0.780	1.640
2020/01/31 23:31:20.7	175.630	0.420	-0.800	1.650
2020/01/31 23:31:20.8	175.630	0.440	-0.820	1.650
2020/01/31 23:31:20.9	175.630	0.460	-0.840	1.650
2020/01/31 23:31:21.0	175.640	0.480	-0.850	1.640
2020/01/31 23:31:21.1	175.640	0.490	-0.860	1.630
2020/01/31 23:31:21.2	175.650	0.510	-0.860	1.620
2020/01/31 23:31:21.3	175.650	0.520	-0.860	1.610
2020/01/31 23:31:21.4	175.660	0.540	-0.860	1.590
2020/01/31 23:31:21.5	175.660	0.550	-0.860	1.570
2020/01/31 23:31:21.6	175.670	0.560	-0.850	1.550
2020/01/31 23:31:21.7	175.670	0.570	-0.840	1.530
2020/01/31 23:31:21.8	175.670	0.580	-0.830	1.500
2020/01/31 23:31:21.9	175.680	0.590	-0.820	1.470
2020/01/31 23:31:22.0	175.680	0.600	-0.820	1.440
2020/01/31 23:31:22.1	175.690	0.610	-0.810	1.410
2020/01/31 23:31:22.2	175.690	0.620	-0.800	1.380
2020/01/31 23:31:22.3	175.680	0.620	-0.800	1.350
2020/01/31 23:31:22.4	175.680	0.630	-0.800	1.320
2020/01/31 23:31:22.5	175.670	0.630	-0.790	1.290
2020/01/31 23:31:22.6	175.660	0.640	-0.790	1.260
2020/01/31 23:31:22.7	175.650	0.640	-0.800	1.230
2020/01/31 23:31:22.8	175.640	0.640	-0.800	1.210
2020/01/31 23:31:22.9	175.620	0.640	-0.810	1.180
2020/01/31 23:31:23.0	175.610	0.640	-0.810	1.160
2020/01/31 23:31:23.1	175.600	0.640	-0.820	1.140
2020/01/31 23:31:23.2	175.580	0.640	-0.830	1.120
2020/01/31 23:31:23.3	175.570	0.630	-0.840	1.100
2020/01/31 23:31:23.4	175.550	0.620	-0.850	1.080
2020/01/31 23:31:23.5	175.530	0.610	-0.860	1.070
2020/01/31 23:31:23.6	175.520	0.600	-0.860	1.060
2020/01/31 23:31:23.7	175.510	0.590	-0.870	1.050
2020/01/31 23:31:23.8	175.490	0.570	-0.870	1.040
2020/01/31 23:31:23.9	175.480	0.550	-0.880	1.030
2020/01/31 23:31:24.0	175.480	0.530	-0.880	1.030
2020/01/31 23:31:24.1	175.480	0.500	-0.880	1.030
2020/01/31 23:31:24.2	175.470	0.480	-0.870	1.020
2020/01/31 23:31:24.3	175.470	0.450	-0.860	1.030
2020/01/31 23:31:24.4	175.470	0.410	-0.850	1.030
2020/01/31 23:31:24.5	175.470	0.380	-0.830	1.030
2020/01/31 23:31:24.6	175.470	0.340	-0.810	1.040
2020/01/31 23:31:24.7	175.470	0.300	-0.780	1.050
2020/01/31 23:31:24.8	175.480	0.260	-0.760	1.060
2020/01/31 23:31:24.9	175.490	0.220	-0.720	1.070
2020/01/31 23:31:25.0	175.490	0.170	-0.690	1.090
2020/01/31 23:31:25.1	175.510	0.130	-0.650	1.110
2020/01/31 23:31:25.2	175.520	0.080	-0.600	1.130
2020/01/31 23:31:25.3	175.530	0.030	-0.560	1.150
2020/01/31 23:31:25.4	175.530	-0.020	-0.510	1.180
2020/01/31 23:31:25.5	175.540	-0.080	-0.470	1.200
2020/01/31 23:31:25.6	175.550	-0.130	-0.420	1.230
2020/01/31 23:31:25.7	175.560	-0.180	-0.370	1.260
2020/01/31 23:31:25.8	175.560	-0.230	-0.320	1.300
2020/01/31 23:31:25.9	175.570	-0.280	-0.270	1.330
2020/01/31 23:31:26.0	175.570	-0.330	-0.230	1.370
2020/01/31 23:31:26.1	175.570	-0.380	-0.180	1.410
2020/01/31 23:31:26.2	175.570	-0.430	-0.130	1.450
2020/01/31 23:31:26.3	175.570	-0.480	-0.090	1.490
2020/01/31 23:31:26.4	175.570	-0.520	-0.050	1.530
2020/01/31 23:31:26.5	175.570	-0.560	-0.020	1.570
2020/01/31 23:31:26.6	175.570	-0.600	0.020	1.610
2020/01/31 23:31:26.7	175.560	-0.640	0.050	1.650
2020/01/31 23:31:26.8	175.560	-0.680	0.080	1.690
2020/01/31 23:31:26.9	175.550	-0.710	0.100	1.730
2020/01/31 23:31:27.0	175.550	-0.740	0.120	1.760
2020/01/31 23:31:27.1	175.530	-0.760	0.150	1.800
2020/01/31 23:31:27.2	175.530	-0.790	0.160	1.830
2020/01/31 23:31:27.3	175.520	-0.810	0.180	1.870
2020/01/31 23:31:27.4	175.520	-0.830	0.190	1.900
2020/01/31 23:31:27.5	175.510	-0.840	0.200	1.920
2020/01/31 23:31:27.6	175.510	-0.860	0.210	1.950
2020/01/31 23:31:27.7	175.510	-0.860	0.220	1.970
2020/01/31 23:31:27.8	175.500	-0.870	0.220	1.990
2020/01/31 23:31:27.9	175.500	-0.870	0.230	2.010
2020/01/31 23:31:28.0	175.490	-0.870	0.230	2.020
2020/01/31 23:31:28.1	175.480	-0.870	0.230	2.040
2020/01/31 23:31:28.2	175.470	-0.870	0.220	2.050
2020/01/31 23:31:28.3	175.470	-0.860	0.220	2.060
2020/01/31 23:31:28.4	175.460	-0.850	0.210	2.060
2020/01/31 23:31:28.5	175.460	-0.830	0.200	2.070
2020/01/31 23:31:28.6	175.450	-0.810	0.190	2.070
2020/01/31 23:31:28.7	175.440	-0.790	0.180	2.060
2020/01/31 23:31:28.8	175.440	-0.770	0.170	2.060
2020/01/31 23:31:28.9	175.430	-0.740	0.160	2.050
2020/01/31 23:31:29.0	175.430	-0.720	0.140	2.030
2020/01/31 23:31:29.1	175.420	-0.690	0.130	2.020
2020/01/31 23:31:29.2	175.420	-0.650	0.110	2.000
2020/01/31 23:31:29.3	175.420	-0.620	0.090	1.980
2020/01/31 23:31:29.4	175.410	-0.580	0.080	1.950
2020/01/31 23:31:29.5	175.410	-0.540	0.060	1.920
2020/01/31 23:31:29.6	175.410	-0.500	0.040	1.880
2020/01/31 23:31:29.7	175.410	-0.460	0.020	1.850
2020/01/31 23:31:29.8	175.410	-0.410	0.010	1.810
2020/01/31 23:31:29.9	175.420	-0.370	-0.010	1.760
2020/01/31 23:31:30.0	175.420	-0.320	-0.030	1.720
2020/01/31 23:31:30.1	175.440	-0.280	-0.050	1.660
2020/01/31 23:31:30.2	175.450	-0.230	-0.070	1.610
2020/01/31 23:31:30.3	175.460	-0.180	-0.080	1.560
2020/01/31 23:31:30.4	175.470	-0.140	-0.100	1.510
2020/01/31 23:31:30.5	175.480	-0.090	-0.120	1.460
2020/01/31 23:31:30.6	175.490	-0.050	-0.140	1.400
2020/01/31 23:31:30.7	175.500	-0.000	-0.150	1.350
2020/01/31 23:31:30.8	175.510	0.040	-0.170	1.290
2020/01/31 23:31:30.9	175.520	0.080	-0.180	1.240
2020/01/31 23:31:31.0	175.530	0.120	-0.200	1.180
2020/01/31 23:31:31.1	175.530	0.160	-0.210	1.130
2020/01/31 23:31:31.2	175.540	0.200	-0.230	1.080
2020/01/31 23:31:31.3	175.550	0.230	-0.240	1.030
2020/01/31 23:31:31.4	175.560	0.260	-0.250	0.970
2020/01/31 23:31:31.5	175.560	0.290	-0.260	0.930
2020/01/31 23:31:31.6	175.570	0.320	-0.270	0.880
2020/01/31 23:31:31.7	175.580	0.340	-0.270	0.830
2020/01/31 23:31:31.8	175.590	0.360	-0.280	0.790
2020/01/31 23:31:31.9	175.600	0.380	-0.280	0.750
2020/01/31 23:31:32.0	175.610	0.390	-0.280	0.710
2020/01/31 23:31:32.1	175.610	0.400	-0.280	0.680
2020/01/31 23:31:32.2	175.620	0.400	-0.270	0.650
2020/01/31 23:31:32.3	175.630	0.410	-0.270	0.620
2020/01/31 23:31:32.4	175.640	0.400	-0.260	0.590
2020/01/31 23:31:32.5	175.650	0.400	-0.250	0.570
2020/01/31 23:31:32.6	175.670	0.390	-0.240	0.550
2020/01/31 23:31:32.7	175.680	0.380	-0.220	0.540
2020/01/31 23:31:32.8	175.690	0.360	-0.210	0.530
2020/01/31 23:31:32.9	175.710	0.340	-0.190	0.520
2020/01/31 23:31:33.0	175.720	0.320	-0.180	0.520
2020/01/31 23:31:33.1	175.750	0.300	-0.160	0.520
2020/01/31 23:31:33.2	175.760	0.270	-0.150	0.520
2020/01/31 23:31:33.3	175.780	0.240	-0.130	0.530
2020/01/31 23:31:33.4	175.800	0.210	-0.110	0.540
2020/01/31 23:31:33.5	175.820	0.180	-0.100	0.550
2020/01/31 23:31:33.6	175.840	0.140	-0.080	0.570
2020/01/31 23:31:33.7	175.850	0.110	-0.070	0.590
2020/01/31 23:31:33.8	175.870	0.070	-0.050	0.620
2020/01/31 23:31:33.9	175.890	0.040	-0.040	0.650
2020/01/31 23:31:34.0	175.900	0.010	-0.040	0.670
2020/01/31 23:31:34.1	175.910	-0.030	-0.030	0.710
2020/01/31 23:31:34.2	175.920	-0.060	-0.030	0.740
2020/01/31 23:31:34.3	175.930	-0.090	-0.030	0.770
2020/01/31 23:31:34.4	175.940	-0.110	-0.030	0.810
2020/01/31 23:31:34.5	175.950	-0.140	-0.040	0.850
2020/01/31 23:31:34.6	175.950	-0.160	-0.050	0.890
2020/01/31 23:31:34.7	175.960	-0.180	-0.060	0.930
2020/01/31 23:31:34.8	175.960	-0.190	-0.080	0.970
2020/01/31 23:31:34.9	175.960	-0.200	-0.100	1.020
2020/01/31 23:31:35.0	175.950	-0.200	-0.120	1.060
2020/01/31 23:31:35.1	175.950	-0.210	-0.150	1.120
2020/01/31 23:31:35.2	175.940	-0.200	-0.180	1.160
2020/01/31 23:31:35.3	175.930	-0.200	-0.210	1.210
2020/01/31 23:31:35.4	175.920	-0.180	-0.250	1.260
2020/01/31 23:31:35.5	175.900	-0.170	-0.290	1.310
2020/01/31 23:31:35.6	175.880	-0.150	-0.330	1.360
2020/01/31 23:31:35.7	175.860	-0.120	-0.370	1.410
2020/01/31 23:31:35.8	175.830	-0.090	-0.410	1.460
2020/01/31 23:31:35.9	175.810	-0.060	-0.450	1.510
2020/01/31 23:31:36.0	175.780	-0.020	-0.490	1.550
2020/01/31 23:31:36.1	175.760	0.010	-0.540	1.600
2020/01/31 23:31:36.2	175.730	0.050	-0.580	1.640
2020/01/31 23:31:36.3	175.710	0.100	-0.620	1.680
2020/01/31 23:31:36.4	175.680	0.140	-0.650	1.720
2020/01/31 23:31:36.5	175.650	0.190	-0.690	1.750
2020/01/31 23:31:36.6	175.620	0.230	-0.720	1.780
2020/01/31 23:31:36.7	175.600	0.280	-0.750	1.800
2020/01/31 23:31:36.8	175.570	0.320	-0.770	1.820
2020/01/31 23:31:36.9	175.550	0.360	-0.790	1.840
2020/01/31 23:31:37.0	175.530	0.400	-0.810	1.850
2020/01/31 23:31:37.1	175.520	0.440	-0.810	1.860
2020/01/31 23:31:37.2	175.500	0.470	-0.820	1.870
2020/01/31 23:31:37.3	175.480	0.500	-0.820	1.870
2020/01/31 23:31:37.4	175.470	0.530	-0.820	1.870
2020/01/31 23:31:37.5	175.460	0.550	-0.810	1.870
2020/01/31 23:31:37.6	175.450	0.570	-0.800	1.870
2020/01/31 23:31:37.7	175.450	0.580	-0.780	1.870
2020/01/31 23:31:37.8	175.440	0.590	-0.760	1.860
2020/01/31 23:31:37.9	175.440	0.590	-0.730	1.850
2020/01/31 23:31:38.0	175.440	0.590	-0.700	1.850
2020/01/31 23:31:38.1	175.470	0.580	-0.670	1.840
2020/01/31 23:31:38.2	175.470	0.560	-0.630	1.840
2020/01/31 23:31:38.3	175.480	0.540	-0.590	1.830
2020/01/31 23:31:38.4	175.490	0.520	-0.540	1.820
2020/01/31 23:31:38.5	175.500	0.490	-0.490	1.810
2020/01/31 23:31:38.6	175.510	0.460	-0.440	1.810
2020/01/31 23:31:38.7	175.530	0.420	-0.380	1.800
2020/01/31 23:31:38.8	175.550	0.370	-0.320	1.790
2020/01/31 23:31:38.9	175.570	0.330	-0.260	1.780
2020/01/31 23:31:39.0	175.590	0.280	-0.200	1.780
2020/01/31 23:31:39.1	175.610	0.220	-0.130	1.770
2020/01/31 23:31:39.2	175.640	0.170	-0.070	1.760
2020/01/31 23:31:39.3	175.660	0.110	-0.000	1.750
2020/01/31 23:31:39.4	175.690	0.050	0.060	1.750
2020/01/31 23:31:39.5	175.720	-0.010	0.130	1.740
2020/01/31 23:31:39.6	175.750	-0.070	0.190	1.740
2020/01/31 23:31:39.7	175.780	-0.130	0.250	1.730
2020/01/31 23:31:39.8	175.810	-0.190	0.300	1.730
2020/01/31 23:31:39.9	175.840	-0.250	0.360	1.730
2020/01/31 23:31:40.0	175.860	-0.310	0.410	1.720
2020/01/31 23:31:40.1	175.890	-0.360	0.450	1.720
2020/01/31 23:31:40.2	175.910	-0.420	0.490	1.720
2020/01/31 23:31:40.3	175.940	-0.460	0.530	1.720
2020/01/31 23:31:40.4	175.960	-0.510	0.550	1.720
2020/01/31 23:31:40.5	175.980	-0.550	0.580	1.720
2020/01/31 23:31:40.6	176.000	-0.590	0.600	1.720
2020/01/31 23:31:40.7	176.020	-0.620	0.610	1.720
2020/01/31 23:31:40.8	176.040	-0.650	0.620	1.720
2020/01/31 23:31:40.9	176.050	-0.670	0.620	1.720
2020/01/31 23:31:41.0	176.060	-0.690	0.610	1.720
2020/01/31 23:31:41.1	176.050	-0.700	0.600	1.720
2020/01/31 23:31:41.2	176.060	-0.700	0.580	1.730
2020/01/31 23:31:41.3	176.070	-0.700	0.560	1.730
2020/01/31 23:31:41.4	176.070	-0.700	0.520	1.730
2020/01/31 23:31:41.5	176.080	-0.690	0.490	1.730
2020/01/31 23:31:41.6	176.080	-0.670	0.440	1.730
2020/01/31 23:31:41.7	176.070	-0.650	0.390	1.730
2020/01/31 23:31:41.8	176.070	-0.620	0.340	1.730
2020/01/31 23:31:41.9	176.060	-0.580	0.280	1.730
2020/01/31 23:31:42.0	176.050	-0.540	0.220	1.720
2020/01/31 23:31:42.1	176.030	-0.500	0.150	1.720
2020/01/31 23:31:42.2	176.020	-0.450	0.080	1.710
2020/01/31 23:31:42.3	176.010	-0.390	0.000	1.700
2020/01/31 23:31:42.4	175.990	-0.340	-0.080	1.690
2020/01/31 23:31:42.5	175.980	-0.280	-0.160	1.670
2020/01/31 23:31:42.6	175.960	-0.210	-0.240	1.660
2020/01/31 23:31:42.7	175.950	-0.140	-0.320	1.640
2020/01/31 23:31:42.8	175.930	-0.070	-0.400	1.620
2020/01/31 23:31:42.9	175.910	-0.000	-0.480	1.590
2020/01/31 23:31:43.0	175.900	0.070	-0.560	1.570
2020/01/31 23:31:43.1	175.890	0.140	-0.640	1.540
2020/01/31 23:31:43.2	175.870	0.220	-0.710	1.520
2020/01/31 23:31:43.3	175.860	0.290	-0.780	1.490
2020/01/31 23:31:43.4	175.840	0.360	-0.850	1.460
2020/01/31 23:31:43.5	175.830	0.430	-0.910	1.420
2020/01/31 23:31:43.6	175.810	0.500	-0.970	1.390
2020/01/31 23:31:43.7	175.800	0.560	-1.020	1.360
2020/01/31 23:31:43.8	175.790	0.620	-1.070	1.320
2020/01/31 23:31:43.9	175.780	0.680	-1.110	1.290
2020/01/31 23:31:44.0	175.770	0.730	-1.140	1.250
2020/01/31 23:31:44.1	175.790	0.770	-1.170	1.210
2020/01/31 23:31:44.2	175.780	0.810	-1.190	1.180
2020/01/31 23:31:44.3	175.780	0.850	-1.210	1.140
2020/01/31 23:31:44.4	175.770	0.880	-1.210	1.110
2020/01/31 23:31:44.5	175.770	0.900	-1.210	1.080
2020/01/31 23:31:44.6	175.770	0.910	-1.210	1.050
2020/01/31 23:31:44.7	175.770	0.920	-1.200	1.020
2020/01/31 23:31:44.8	175.770	0.930	-1.180	0.990
2020/01/31 23:31:44.9	175.770	0.920	-1.160	0.970
2020/01/31 23:31:45.0	175.780	0.910	-1.130	0.950
2020/01/31 23:31:45.1	175.770	0.890	-1.090	0.930
2020/01/31 23:31:45.2	175.770	0.870	-1.060	0.910
2020/01/31 23:31:45.3	175.770	0.840	-1.010	0.900
2020/01/31 23:31:45.4	175.780	0.800	-0.960	0.890
2020/01/31 23:31:45.5	175.780	0.760	-0.910	0.890
2020/01/31 23:31:45.6	175.790	0.710	-0.860	0.890
2020/01/31 23:31:45.7	175.800	0.660	-0.800	0.890
2020/01/31 23:31:45.8	175.810	0.610	-0.740	0.890
2020/01/31 23:31:45.9	175.810	0.550	-0.680	0.900
2020/01/31 23:31:46.0	175.830	0.480	-0.610	0.910
2020/01/31 23:31:46.1	175.840	0.420	-0.540	0.920
2020/01/31 23:31:46.2	175.850	0.350	-0.480	0.930
2020/01/31 23:31:46.3	175.870	0.280	-0.410	0.950
2020/01/31 23:31:46.4	175.880	0.210	-0.340	0.970
2020/01/31 23:31:46.5	175.900	0.130	-0.270	0.980
2020/01/31 23:31:46.6	175.910	0.060	-0.210	1.010
2020/01/31 23:31:46.7	175.930	-0.010	-0.140	1.030
2020/01/31 23:31:46.8	175.940	-0.080	-0.080	1.050
2020/01/31 23:31:46.9	175.960	-0.150	-0.010	1.080
2020/01/31 23:31:47.0	175.980	-0.220	0.040	1.100
2020/01/31 23:31:47.1	176.000	-0.290	0.100	1.130
2020/01/31 23:31:47.2	176.020	-0.350	0.150	1.160
2020/01/31 23:31:47.3	176.030	-0.410	0.200	1.190
2020/01/31 23:31:47.4	176.050	-0.470	0.240	1.220
2020/01/31 23:31:47.5	176.060	-0.520	0.280	1.250
2020/01/31 23:31:47.6	176.070	-0.570	0.310	1.280
2020/01/31 23:31:47.7	176.080	-0.620	0.340	1.320
2020/01/31 23:31:47.8	176.100	-0.660	0.360	1.350
2020/01/31 23:31:47.9	176.110	-0.690	0.380	1.380
2020/01/31 23:31:48.0	176.120	-0.720	0.400	1.410
2020/01/31 23:31:48.1	176.100	-0.750	0.410	1.440
2020/01/31 23:31:48.2	176.110	-0.780	0.410	1.470
2020/01/31 23:31:48.3	176.130	-0.800	0.410	1.500
2020/01/31 23:31:48.4	176.140	-0.810	0.400	1.520
2020/01/31 23:31:48.5	176.150	-0.820	0.390	1.550
2020/01/31 23:31:48.6	176.160	-0.830	0.380	1.570
2020/01/31 23:31:48.7	176.180	-0.830	0.360	1.600
2020/01/31 23:31:48.8	176.190	-0.830	0.340	1.620
2020/01/31 23:31:48.9	176.200	-0.830	0.310	1.640
2020/01/31 23:31:49.0	176.220	-0.820	0.280	1.660
2020/01/31 23:31:49.1	176.200	-0.810	0.240	1.680
2020/01/31 23:31:49.2	176.220	-0.790	0.200	1.700
2020/01/31 23:31:49.3	176.230	-0.770	0.160	1.710
2020/01/31 23:31:49.4	176.240	-0.750	0.110	1.730
2020/01/31 23:31:49.5	176.260	-0.720	0.060	1.740
2020/01/31 23:31:49.6	176.270	-0.700	0.010	1.760
2020/01/31 23:31:49.7	176.270	-0.660	-0.040	1.770
2020/01/31 23:31:49.8	176.280	-0.630	-0.090	1.780
2020/01/31 23:31:49.9	176.290	-0.590	-0.150	1.780
2020/01/31 23:31:50.0	176.290	-0.550	-0.200	1.790
2020/01/31 23:31:50.1	176.290	-0.510	-0.260	1.800
2020/01/31 23:31:50.2	176.290	-0.470	-0.310	1.800
2020/01/31 23:31:50.3	176.290	-0.430	-0.370	1.810
2020/01/31 23:31:50.4	176.280	-0.380	-0.420	1.810
2020/01/31 23:31:50.5	176.280	-0.330	-0.470	1.800
2020/01/31 23:31:50.6	176.270	-0.280	-0.520	1.800
2020/01/31 23:31:50.7	176.260	-0.240	-0.560	1.800
2020/01/31 23:31:50.8	176.250	-0.190	-0.600	1.790
2020/01/31 23:31:50.9	176.240	-0.140	-0.630	1.780
2020/01/31 23:31:51.0	176.220	-0.090	-0.660	1.770
2020/01/31 23:31:51.1	176.230	-0.050	-0.690	1.760
2020/01/31 23:31:51.2	176.210	-0.000	-0.710	1.750
2020/01/31 23:31:51.3	176.200	0.040	-0.720	1.730
2020/01/31 23:31:51.4	176.190	0.090	-0.730	1.720
2020/01/31 23:31:51.5	176.170	0.120	-0.730	1.700
2020/01/31 23:31:51.6	176.160	0.160	-0.720	1.690
2020/01/31 23:31:51.7	176.150	0.200	-0.710	1.670
2020/01/31 23:31:51.8	176.140	0.230	-0.690	1.650
2020/01/31 23:31:51.9	176.130	0.250	-0.670	1.630
2020/01/31 23:31:52.0	176.120	0.280	-0.640	1.610
2020/01/31 23:31:52.1	176.120	0.300	-0.610	1.590
2020/01/31 23:31:52.2	176.120	0.320	-0.570	1.570
2020/01/31 23:31:52.3	176.110	0.330	-0.520	1.550
2020/01/31 23:31:52.4	176.110	0.340	-0.480	1.530
2020/01/31 23:31:52.5	176.110	0.350	-0.430	1.500
2020/01/31 23:31:52.6	176.100	0.350	-0.380	1.480
2020/01/31 23:31:52.7	176.100	0.350	-0.330	1.460
2020/01/31 23:31:52.8	176.100	0.350	-0.270	1.430
2020/01/31 23:31:52.9	176.110	0.340	-0.220	1.410
2020/01/31 23:31:53.0	176.110	0.340	-0.170	1.380
2020/01/31 23:31:53.1	176.110	0.320	-0.120	1.360
2020/01/31 23:31:53.2	176.110	0.310	-0.070	1.330
2020/01/31 23:31:53.3	176.120	0.300	-0.020	1.310
2020/01/31 23:31:53.4	176.120	0.280	0.030	1.280
2020/01/31 23:31:53.5	176.130	0.260	0.070	1.250
2020/01/31 23:31:53.6	176.130	0.240	0.110	1.230
2020/01/31 23:31:53.7	176.130	0.220	0.150	1.200
2020/01/31 23:31:53.8	176.140	0.190	0.180	1.180
2020/01/31 23:31:53.9	176.140	0.170	0.210	1.150
2020/01/31 23:31:54.0	176.150	0.150	0.240	1.130
2020/01/31 23:31:54.1	176.140	0.120	0.260	1.110
2020/01/31 23:31:54.2	176.150	0.100	0.280	1.090
2020/01/31 23:31:54.3	176.150	0.080	0.290	1.070
2020/01/31 23:31:54.4	176.150	0.050	0.310	1.050
2020/01/31 23:31:54.5	176.150	0.030	0.310	1.040
2020/01/31 23:31:54.6	176.150	0.010	0.320	1.020
2020/01/31 23:31:54.7	176.150	-0.010	0.320	1.010
2020/01/31 23:31:54.8	176.150	-0.030	0.320	1.010
2020/01/31 23:31:54.9	176.140	-0.050	0.320	1.000
2020/01/31 23:31:55.0	176.140	-0.070	0.310	1.000
2020/01/31 23:31:55.1	176.140	-0.080	0.300	1.000
2020/01/31 23:31:55.2	176.130	-0.100	0.290	1.000
2020/01/31 23:31:55.3	176.120	-0.110	0.280	1.000
2020/01/31 23:31:55.4	176.120	-0.120	0.260	1.010
2020/01/31 23:31:55.5	176.110	-0.130	0.240	1.020
2020/01/31 23:31:55.6	176.100	-0.130	0.220	1.030
2020/01/31 23:31:55.7	176.090	-0.140	0.200	1.040
2020/01/31 23:31:55.8	176.080	-0.140	0.180	1.050
2020/01/31 23:31:55.9	176.070	-0.140	0.160	1.060
2020/01/31 23:31:56.0	176.070	-0.140	0.130	1.080
2020/01/31 23:31:56.1	176.060	-0.140	0.110	1.090
2020/01/31 23:31:56.2	176.060	-0.140	0.080	1.100
2020/01/31 23:31:56.3	176.060	-0.130	0.050	1.110
2020/01/31 23:31:56.4	176.060	-0.120	0.020	1.120
2020/01/31 23:31:56.5	176.060	-0.110	-0.010	1.130
2020/01/31 23:31:56.6	176.060	-0.100	-0.040	1.130
2020/01/31 23:31:56.7	176.070	-0.090	-0.070	1.140
2020/01/31 23:31:56.8	176.070	-0.080	-0.100	1.150
2020/01/31 23:31:56.9	176.070	-0.060	-0.130	1.160
2020/01/31 23:31:57.0	176.080	-0.040	-0.170	1.170
2020/01/31 23:31:57.1	176.070	-0.030	-0.210	1.180
2020/01/31 23:31:57.2	176.070	-0.010	-0.240	1.190
2020/01/31 23:31:57.3	176.080	0.010	-0.280	1.210
2020/01/31 23:31:57.4	176.080	0.040	-0.320	1.220
2020/01/31 23:31:57.5	176.090	0.060	-0.360	1.240
2020/01/31 23:31:57.6	176.090	0.080	-0.390	1.260
2020/01/31 23:31:57.7	176.090	0.110	-0.430	1.280
2020/01/31 23:31:57.8	176.090	0.130	-0.470	1.300
2020/01/31 23:31:57.9	176.090	0.160	-0.510	1.320
2020/01/31 23:31:58.0	176.090	0.180	-0.550	1.340
2020/01/31 23:31:58.1	176.100	0.210	-0.580	1.360
2020/01/31 23:31:58.2	176.100	0.240	-0.620	1.380
2020/01/31 23:31:58.3	176.100	0.260	-0.650	1.400
2020/01/31 23:31:58.4	176.100	0.290	-0.690	1.420
2020/01/31 23:31:58.5	176.100	0.310	-0.720	1.430
2020/01/31 23:31:58.6	176.100	0.340	-0.740	1.450
2020/01/31 23:31:58.7	176.100	0.360	-0.770	1.460
2020/01/31 23:31:58.8	176.090	0.380	-0.790	1.470
2020/01/31 23:31:58.9	176.090	0.400	-0.810	1.480
2020/01/31 23:31:59.0	176.090	0.420	-0.820	1.490
2020/01/31 23:31:59.1	176.080	0.440	-0.840	1.490
2020/01/31 23:31:59.2	176.080	0.450	-0.850	1.490
2020/01/31 23:31:59.3	176.080	0.460	-0.850	1.500
2020/01/31 23:31:59.4	176.070	0.480	-0.850	1.490
2020/01/31 23:31:59.5	176.070	0.480	-0.840	1.490
2020/01/31 23:31:59.6	176.070	0.490	-0.830	1.490
2020/01/31 23:31:59.7	176.060	0.490	-0.820	1.480
2020/01/31 23:31:59.8	176.060	0.500	-0.800	1.480
2020/01/31 23:31:59.9	176.050	0.500	-0.780	1.470
2020/01/31 23:32:00.0	176.050	0.490	-0.750	1.460
2020/01/31 23:32:00.1	176.060	0.490	-0.720	1.450
2020/01/31 23:32:00.2	176.050	0.480	-0.690	1.440
2020/01/31 23:32:00.3	176.050	0.470	-0.660	1.430
2020/01/31 23:32:00.4	176.040	0.460	-0.620	1.420
2020/01/31 23:32:00.5	176.030	0.450	-0.580	1.410
2020/01/31 23:32:00.6	176.030	0.430	-0.540	1.400
2020/01/31 23:32:00.7	176.020	0.420	-0.500	1.380
2020/01/31 23:32:00.8	176.020	0.400	-0.460	1.370
2020/01/31 23:32:00.9	176.020	0.380	-0.410	1.350
2020/01/31 23:32:01.0	176.020	0.350	-0.370	1.330
2020/01/31 23:32:01.1	176.010	0.330	-0.330	1.320
2020/01/31 23:32:01.2	176.020	0.300	-0.290	1.300
2020/01/31 23:32:01.3	176.020	0.280	-0.240	1.270
2020/01/31 23:32:01.4	176.020	0.250	-0.200	1.250
2020/01/31 23:32:01.5	176.030	0.220	-0.160	1.230
2020/01/31 23:32:01.6	176.040	0.190	-0.130	1.210
2020/01/31 23:32:01.7	176.050	0.160	-0.090	1.180
2020/01/31 23:32:01.8	176.060	0.130	-0.060	1.160
2020/01/31 23:32:01.9	176.070	0.100	-0.030	1.140
2020/01/31 23:32:02.0	176.090	0.070	-0.000	1.110
2020/01/31 23:32:02.1	176.100	0.030	0.020	1.090
2020/01/31 23:32:02.2	176.120	-0.000	0.040	1.070
2020/01/31 23:32:02.3	176.140	-0.030	0.060	1.050
2020/01/31 23:32:02.4	176.150	-0.070	0.070	1.030
2020/01/31 23:32:02.5	176.170	-0.100	0.080	1.010
2020/01/31 23:32:02.6	176.180	-0.130	0.080	1.000
2020/01/31 23:32:02.7	176.200	-0.170	0.080	0.980
2020/01/31 23:32:02.8	176.220	-0.200	0.080	0.970
2020/01/31 23:32:02.9	176.230	-0.230	0.080	0.960
2020/01/31 23:32:03.0	176.250	-0.260	0.070	0.960
2020/01/31 23:32:03.1	176.270	-0.290	0.060	0.950
2020/01/31 23:32:03.2	176.280	-0.310	0.040	0.950
2020/01/31 23:32:03.3	176.290	-0.340	0.020	0.950
2020/01/31 23:32:03.4	176.300	-0.370	-0.000	0.950
2020/01/31 23:32:03.5	176.320	-0.390	-0.030	0.960
2020/01/31 23:32:03.6	176.320	-0.410	-0.060	0.970
2020/01/31 23:32:03.7	176.330	-0.430	-0.090	0.980
2020/01/31 23:32:03.8	176.340	-0.450	-0.120	1.000
2020/01/31 23:32:03.9	176.350	-0.470	-0.160	1.020
2020/01/31 23:32:04.0	176.350	-0.480	-0.200	1.040
2020/01/31 23:32:04.1	176.350	-0.490	-0.240	1.070
2020/01/31 23:32:04.2	176.340	-0.500	-0.280	1.100
2020/01/31 23:32:04.3	176.340	-0.510	-0.320	1.130
2020/01/31 23:32:04.4	176.340	-0.510	-0.370	1.160
2020/01/31 23:32:04.5	176.330	-0.510	-0.420	1.200
2020/01/31 23:32:04.6	176.320	-0.510	-0.460	1.240
2020/01/31 23:32:04.7	176.300	-0.510	-0.510	1.280
2020/01/31 23:32:04.8	176.290	-0.500	-0.560	1.320
2020/01/31 23:32:04.9	176.270	-0.490	-0.610	1.360
2020/01/31 23:32:05.0	176.250	-0.470	-0.650	1.410
2020/01/31 23:32:05.1	176.230	-0.450	-0.700	1.450
2020/01/31 23:32:05.2	176.200	-0.430	-0.740	1.500
2020/01/31 23:32:05.3	176.180	-0.410	-0.780	1.540
2020/01/31 23:32:05.4	176.150	-0.390	-0.820	1.590
2020/01/31 23:32:05.5	176.120	-0.360	-0.850	1.630
2020/01/31 23:32:05.6	176.090	-0.330	-0.880	1.670
2020/01/31 23:32:05.7	176.060	-0.300	-0.900	1.720
2020/01/31 23:32:05.8	176.030	-0.270	-0.920	1.760
2020/01/31 23:32:05.9	176.000	-0.240	-0.930	1.800
2020/01/31 23:32:06.0	175.970	-0.200	-0.930	1.840
2020/01/31 23:32:06.1	175.940	-0.170	-0.930	1.870
2020/01/31 23:32:06.2	175.900	-0.140	-0.920	1.910
2020/01/31 23:32:06.3	175.870	-0.100	-0.910	1.940
2020/01/31 23:32:06.4	175.840	-0.070	-0.890	1.970
2020/01/31 23:32:06.5	175.810	-0.040	-0.860	1.990
2020/01/31 23:32:06.6	175.780	-0.010	-0.820	2.010
2020/01/31 23:32:06.7	175.760	0.020	-0.780	2.020
2020/01/31 23:32:06.8	175.730	0.040	-0.730	2.040
2020/01/31 23:32:06.9	175.700	0.060	-0.680	2.040
2020/01/31 23:32:07.0	175.680	0.090	-0.620	2.050
2020/01/31 23:32:07.1	175.670	0.100	-0.550	2.040
2020/01/31 23:32:07.2	175.650	0.120	-0.480	2.030
2020/01/31 23:32:07.3	175.630	0.130	-0.410	2.020
2020/01/31 23:32:07.4	175.620	0.140	-0.330	2.010
2020/01/31 23:32:07.5	175.610	0.140	-0.240	1.980
2020/01/31 23:32:07.6	175.600	0.140	-0.150	1.960
2020/01/31 23:32:07.7	175.590	0.140	-0.070	1.930
2020/01/31 23:32:07.8	175.590	0.130	0.020	1.900
2020/01/31 23:32:07.9	175.590	0.120	0.110	1.870
2020/01/31 23:32:08.0	175.590	0.110	0.200	1.830
2020/01/31 23:32:08.1	175.600	0.090	0.290	1.790
2020/01/31 23:32:08.2	175.610	0.070	0.380	1.750
2020/01/31 23:32:08.3	175.620	0.050	0.460	1.710
2020/01/31 23:32:08.4	175.640	0.030	0.540	1.670
2020/01/31 23:32:08.5	175.650	0.000	0.610	1.620
2020/01/31 23:32:08.6	175.670	-0.030	0.680	1.580
2020/01/31 23:32:08.7	175.690	-0.050	0.740	1.530
2020/01/31 23:32:08.8	175.710	-0.080	0.790	1.490
2020/01/31 23:32:08.9	175.730	-0.110	0.840	1.440
2020/01/31 23:32:09.0	175.750	-0.140	0.880	1.390
2020/01/31 23:32:09.1	175.760	-0.160	0.900	1.350
2020/01/31 23:32:09.2	175.780	-0.190	0.920	1.310
2020/01/31 23:32:09.3	175.800	-0.210	0.930	1.260
2020/01/31 23:32:09.4	175.820	-0.230	0.930	1.220
2020/01/31 23:32:09.5	175.830	-0.250	0.910	1.180
2020/01/31 23:32:09.6	175.850	-0.270	0.890	1.140
2020/01/31 23:32:09.7	175.860	-0.280	0.860	1.100
2020/01/31 23:32:09.8	175.870	-0.290	0.820	1.070
2020/01/31 23:32:09.9	175.880	-0.290	0.770	1.040
2020/01/31 23:32:10.0	175.890	-0.300	0.710	1.010
2020/01/31 23:32:10.1	175.880	-0.290	0.650	0.980
2020/01/31 23:32:10.2	175.880	-0.290	0.580	0.960
2020/01/31 23:32:10.3	175.880	-0.280	0.500	0.940
2020/01/31 23:32:10.4	175.880	-0.260	0.420	0.920
2020/01/31 23:32:10.5	175.880	-0.240	0.330	0.910
2020/01/31 23:32:10.6	175.870	-0.220	0.240	0.900
2020/01/31 23:32:10.7	175.870	-0.200	0.140	0.900
2020/01/31 23:32:10.8	175.860	-0.170	0.050	0.900
2020/01/31 23:32:10.9	175.850	-0.140	-0.040	0.900
2020/01/31 23:32:11.0	175.850	-0.110	-0.140	0.900
2020/01/31 23:32:11.1	175.840	-0.070	-0.220	0.920
2020/01/31 23:32:11.2	175.840	-0.040	-0.310	0.930
2020/01/31 23:32:11.3	175.830	-0.000	-0.400	0.950
2020/01/31 23:32:11.4	175.820	0.030	-0.480	0.960
2020/01/31 23:32:11.5	175.810	0.070	-0.550	0.980
2020/01/31 23:32:11.6	175.810	0.110	-0.620	1.000
2020/01/31 23:32:11.7	175.800	0.140	-0.690	1.020
2020/01/31 23:32:11.8	175.800	0.180	-0.740	1.040
2020/01/31 23:32:11.9	175.790	0.210	-0.790	1.060
2020/01/31 23:32:12.0	175.790	0.240	-0.830	1.080
2020/01/31 23:32:12.1	175.800	0.270	-0.860	1.100
2020/01/31 23:32:12.2	175.800	0.290	-0.890	1.120
2020/01/31 23:32:12.3	175.810	0.320	-0.910	1.140
2020/01/31 23:32:12.4	175.810	0.340	-0.910	1.150
2020/01/31 23:32:12.5	175.820	0.360	-0.910	1.160
2020/01/31 23:32:12.6	175.830	0.370	-0.910	1.170
2020/01/31 23:32:12.7	175.840	0.390	-0.890	1.180
2020/01/31 23:32:12.8	175.860	0.400	-0.870	1.180
2020/01/31 23:32:12.9	175.870	0.400	-0.840	1.180
2020/01/31 23:32:13.0	175.890	0.400	-0.810	1.180
2020/01/31 23:32:13.1	175.910	0.400	-0.780	1.180
2020/01/31 23:32:13.2	175.930	0.400	-0.740	1.180
2020/01/31 23:32:13.3	175.950	0.390	-0.690	1.170
2020/01/31 23:32:13.4	175.970	0.380	-0.650	1.170
2020/01/31 23:32:13.5	175.990	0.370	-0.600	1.160
2020/01/31 23:32:13.6	176.020	0.350	-0.550	1.150
2020/01/31 23:32:13.7	176.040	0.330	-0.500	1.140
2020/01/31 23:32:13.8	176.060	0.310	-0.450	1.130
2020/01/31 23:32:13.9	176.090	0.290	-0.400	1.120
2020/01/31 23:32:14.0	176.110	0.270	-0.360	1.110
2020/01/31 23:32:14.1	176.130	0.240	-0.320	1.110
2020/01/31 23:32:14.2	176.160	0.210	-0.280	1.100
2020/01/31 23:32:14.3	176.180	0.180	-0.240	1.100
2020/01/31 23:32:14.4	176.190	0.150	-0.210	1.100
2020/01/31 23:32:14.5	176.210	0.120	-0.180	1.100
2020/01/31 23:32:14.6	176.230	0.090	-0.160	1.100
2020/01/31 23:32:14.7	176.240	0.060	-0.140	1.110
2020/01/31 23:32:14.8	176.250	0.030	-0.120	1.120
2020/01/31 23:32:14.9	176.260	0.010	-0.120	1.140
2020/01/31 23:32:15.0	176.270	-0.020	-0.120	1.150
2020/01/31 23:32:15.1	176.250	-0.050	-0.120	1.170
2020/01/31 23:32:15.2	176.260	-0.070	-0.130	1.190
2020/01/31 23:32:15.3	176.260	-0.090	-0.140	1.210
2020/01/31 23:32:15.4	176.250	-0.110	-0.160	1.240
2020/01/31 23:32:15.5	176.250	-0.130	-0.190	1.260
2020/01/31 23:32:15.6	176.250	-0.140	-0.210	1.290
2020/01/31 23:32:15.7	176.240	-0.150	-0.250	1.310
2020/01/31 23:32:15.8	176.240	-0.160	-0.280	1.340
2020/01/31 23:32:15.9	176.230	-0.160	-0.320	1.360
2020/01/31 23:32:16.0	176.230	-0.160	-0.360	1.390
2020/01/31 23:32:16.1	176.240	-0.160	-0.400	1.420
2020/01/31 23:32:16.2	176.240	-0.160	-0.430	1.440
2020/01/31 23:32:16.3	176.230	-0.150	-0.470	1.460
2020/01/31 23:32:16.4	176.220	-0.140	-0.510	1.480
2020/01/31 23:32:16.5	176.210	-0.130	-0.540	1.500
2020/01/31 23:32:16.6	176.210	-0.120	-0.570	1.520
2020/01/31 23:32:16.7	176.200	-0.100	-0.600	1.530
2020/01/31 23:32:16.8	176.200	-0.090	-0.620	1.540
2020/01/31 23:32:16.9	176.200	-0.070	-0.640	1.540
2020/01/31 23:32:17.0	176.190	-0.050	-0.650	1.550
2020/01/31 23:32:17.1	176.190	-0.030	-0.660	1.540
2020/01/31 23:32:17.2	176.190	-0.010	-0.670	1.540
2020/01/31 23:32:17.3	176.190	0.010	-0.670	1.530
2020/01/31 23:32:17.4	176.190	0.030	-0.660	1.520
2020/01/31 23:32:17.5	176.190	0.050	-0.650	1.510
2020/01/31 23:32:17.6	176.190	0.070	-0.640	1.500
2020/01/31 23:32:17.7	176.200	0.090	-0.630	1.480
2020/01/31 23:32:17.8	176.200	0.110	-0.610	1.460
2020/01/31 23:32:17.9	176.200	0.120	-0.580	1.440
2020/01/31 23:32:18.0	176.200	0.130	-0.560	1.420
2020/01/31 23:32:18.1	176.220	0.150	-0.530	1.400
2020/01/31 23:32:18.2	176.220	0.150	-0.500	1.380
2020/01/31 23:32:18.3	176.220	0.160	-0.480	1.360
2020/01/31 23:32:18.4	176.230	0.170	-0.450	1.340
2020/01/31 23:32:18.5	176.230	0.170	-0.420	1.320
2020/01/31 23:32:18.6	176.230	0.170	-0.390	1.310
2020/01/31 23:32:18.7	176.230	0.170	-0.360	1.300
2020/01/31 23:32:18.8	176.230	0.170	-0.330	1.290
2020/01/31 23:32:18.9	176.230	0.160	-0.300	1.280
2020/01/31 23:32:19.0	176.220	0.160	-0.270	1.270
2020/01/31 23:32:19.1	176.230	0.150	-0.250	1.270
2020/01/31 23:32:19.2	176.230	0.140	-0.230	1.270
2020/01/31 23:32:19.3	176.230	0.120	-0.210	1.270
2020/01/31 23:32:19.4	176.220	0.110	-0.190	1.270
2020/01/31 23:32:19.5	176.210	0.100	-0.170	1.280
2020/01/31 23:32:19.6	176.210	0.080	-0.150	1.290
2020/01/31 23:32:19.7	176.200	0.070	-0.140	1.290
2020/01/31 23:32:19.8	176.190	0.050	-0.130	1.300
2020/01/31 23:32:19.9	176.180	0.040	-0.110	1.310
2020/01/31 23:32:20.0	176.180	0.020	-0.100	1.330
2020/01/31 23:32:20.1	176.160	0.010	-0.090	1.340
2020/01/31 23:32:20.2	176.150	-0.010	-0.080	1.350
2020/01/31 23:32:20.3	176.150	-0.030	-0.070	1.360
2020/01/31 23:32:20.4	176.140	-0.040	-0.060	1.370
2020/01/31 23:32:20.5	176.130	-0.050	-0.050	1.380
2020/01/31 23:32:20.6	176.120	-0.070	-0.040	1.390
2020/01/31 23:32:20.7	176.120	-0.080	-0.030	1.400
2020/01/31 23:32:20.8	176.110	-0.090	-0.020	1.410
2020/01/31 23:32:20.9	176.100	-0.100	-0.010	1.420
2020/01/31 23:32:21.0	176.100	-0.110	-0.000	1.420
2020/01/31 23:32:21.1	176.080	-0.120	0.000	1.430
2020/01/31 23:32:21.2	176.080	-0.130	0.020	1.440
2020/01/31 23:32:21.3	176.080	-0.130	0.030	1.440
2020/01/31 23:32:21.4	176.080	-0.140	0.040	1.450
2020/01/31 23:32:21.5	176.080	-0.140	0.050	1.450
2020/01/31 23:32:21.6	176.080	-0.150	0.060	1.460
2020/01/31 23:32:21.7	176.080	-0.150	0.070	1.460
2020/01/31 23:32:21.8	176.090	-0.150	0.080	1.460
2020/01/31 23:32:21.9	176.090	-0.150	0.090	1.470
2020/01/31 23:32:22.0	176.090	-0.150	0.100	1.470
2020/01/31 23:32:22.1	176.100	-0.150	0.110	1.480
2020/01/31 23:32:22.2	176.110	-0.150	0.110	1.480
2020/01/31 23:32:22.3	176.110	-0.150	0.110	1.490
2020/01/31 23:32:22.4	176.110	-0.140	0.110	1.500
2020/01/31 23:32:22.5	176.110	-0.140	0.100	1.500
2020/01/31 23:32:22.6	176.110	-0.140	0.090	1.510
2020/01/31 23:32:22.7	176.110	-0.130	0.080	1.520
2020/01/31 23:32:22.8	176.100	-0.130	0.070	1.530
2020/01/31 23:32:22.9	176.100	-0.120	0.050	1.540
2020/01/31 23:32:23.0	176.100	-0.120	0.040	1.550
2020/01/31 23:32:23.1	176.080	-0.110	0.010	1.570
2020/01/31 23:32:23.2	176.080	-0.110	-0.010	1.580
2020/01/31 23:32:23.3	176.070	-0.100	-0.040	1.590
2020/01/31 23:32:23.4	176.070	-0.100	-0.060	1.600
2020/01/31 23:32:23.5	176.060	-0.090	-0.090	1.610
2020/01/31 23:32:23.6	176.050	-0.090	-0.110	1.620
2020/01/31 23:32:23.7	176.050	-0.080	-0.140	1.620
2020/01/31 23:32:23.8	176.050	-0.080	-0.160	1.630
2020/01/31 23:32:23.9	176.040	-0.080	-0.180	1.630
2020/01/31 23:32:24.0	176.040	-0.080	-0.200	1.630
2020/01/31 23:32:24.1	176.030	-0.080	-0.210	1.630
2020/01/31 23:32:24.2	176.030	-0.080	-0.220	1.630
2020/01/31 23:32:24.3	176.030	-0.080	-0.230	1.630
2020/01/31 23:32:24.4	176.040	-0.080	-0.240	1.620
2020/01/31 23:32:24.5	176.050	-0.090	-0.240	1.620
2020/01/31 23:32:24.6	176.060	-0.090	-0.240	1.610
2020/01/31 23:32:24.7	176.070	-0.090	-0.240	1.610
2020/01/31 23:32:24.8	176.080	-0.100	-0.230	1.610
2020/01/31 23:32:24.9	176.090	-0.100	-0.230	1.600
2020/01/31 23:32:25.0	176.110	-0.110	-0.220	1.600
2020/01/31 23:32:25.1	176.110	-0.110	-0.210	1.590
2020/01/31 23:32:25.2	176.130	-0.120	-0.200	1.590
2020/01/31 23:32:25.3	176.140	-0.120	-0.190	1.580
2020/01/31 23:32:25.4	176.150	-0.120	-0.180	1.580
2020/01/31 23:32:25.5	176.170	-0.120	-0.170	1.570
2020/01/31 23:32:25.6	176.180	-0.120	-0.170	1.570
2020/01/31 23:32:25.7	176.190	-0.120	-0.160	1.570
2020/01/31 23:32:25.8	176.200	-0.120	-0.160	1.560
2020/01/31 23:32:25.9	176.210	-0.110	-0.160	1.560
2020/01/31 23:32:26.0	176.220	-0.110	-0.160	1.560
2020/01/31 23:32:26.1	176.220	-0.100	-0.170	1.550
2020/01/31 23:32:26.2	176.220	-0.080	-0.180	1.550
2020/01/31 23:32:26.3	176.220	-0.070	-0.190	1.540
2020/01/31 23:32:26.4	176.220	-0.050	-0.210	1.540
2020/01/31 23:32:26.5	176.220	-0.040	-0.240	1.530
2020/01/31 23:32:26.6	176.220	-0.020	-0.260	1.530
2020/01/31 23:32:26.7	176.210	0.010	-0.300	1.520
2020/01/31 23:32:26.8	176.210	0.030	-0.340	1.510
2020/01/31 23:32:26.9	176.200	0.060	-0.370	1.500
2020/01/31 23:32:27.0	176.190	0.080	-0.420	1.490
2020/01/31 23:32:27.1	176.170	0.110	-0.460	1.480
2020/01/31 23:32:27.2	176.160	0.140	-0.510	1.470
2020/01/31 23:32:27.3	176.150	0.160	-0.550	1.460
2020/01/31 23:32:27.4	176.140	0.190	-0.600	1.450
2020/01/31 23:32:27.5	176.130	0.220	-0.640	1.430
2020/01/31 23:32:27.6	176.120	0.240	-0.690	1.420
2020/01/31 23:32:27.7	176.110	0.260	-0.730	1.400
2020/01/31 23:32:27.8	176.100	0.280	-0.760	1.390
2020/01/31 23:32:27.9	176.090	0.290	-0.790	1.370
2020/01/31 23:32:28.0	176.090	0.310	-0.810	1.360
2020/01/31 23:32:28.1	176.100	0.320	-0.830	1.350
2020/01/31 23:32:28.2	176.100	0.320	-0.840	1.330
2020/01/31 23:32:28.3	176.110	0.320	-0.850	1.320
2020/01/31 23:32:28.4	176.110	0.320	-0.850	1.300
2020/01/31 23:32:28.5	176.120	0.310	-0.840	1.290
2020/01/31 23:32:28.6	176.130	0.300	-0.830	1.280
2020/01/31 23:32:28.7	176.140	0.280	-0.810	1.270
2020/01/31 23:32:28.8	176.160	0.260	-0.780	1.260
2020/01/31 23:32:28.9	176.170	0.240	-0.750	1.250
2020/01/31 23:32:29.0	176.190	0.210	-0.710	1.250
2020/01/31 23:32:29.1	176.220	0.180	-0.670	1.240
2020/01/31 23:32:29.2	176.240	0.150	-0.620	1.240
2020/01/31 23:32:29.3	176.260	0.110	-0.570	1.230
2020/01/31 23:32:29.4	176.280	0.070	-0.510	1.230
2020/01/31 23:32:29.5	176.300	0.030	-0.460	1.230
2020/01/31 23:32:29.6	176.320	-0.010	-0.400	1.230
2020/01/31 23:32:29.7	176.350	-0.060	-0.340	1.230
2020/01/31 23:32:29.8	176.370	-0.100	-0.280	1.230
2020/01/31 23:32:29.9	176.390	-0.140	-0.220	1.240
2020/01/31 23:32:30.0	176.410	-0.190	-0.160	1.240
2020/01/31 23:32:30.1	176.420	-0.230	-0.110	1.250
2020/01/31 23:32:30.2	176.440	-0.270	-0.050	1.250
2020/01/31 23:32:30.3	176.450	-0.300	-0.010	1.260
2020/01/31 23:32:30.4	176.460	-0.340	0.040	1.260
2020/01/31 23:32:30.5	176.470	-0.370	0.080	1.270
2020/01/31 23:32:30.6	176.470	-0.400	0.110	1.280
2020/01/31 23:32:30.7	176.470	-0.420	0.130	1.290
2020/01/31 23:32:30.8	176.470	-0.440	0.150	1.300
2020/01/31 23:32:30.9	176.470	-0.450	0.160	1.320
2020/01/31 23:32:31.0	176.460	-0.460	0.170	1.330
2020/01/31 23:32:31.1	176.460	-0.460	0.170	1.340
2020/01/31 23:32:31.2	176.450	-0.460	0.160	1.360
2020/01/31 23:32:31.3	176.430	-0.450	0.140	1.370
2020/01/31 23:32:31.4	176.420	-0.440	0.120	1.390
2020/01/31 23:32:31.5	176.400	-0.420	0.090	1.410
2020/01/31 23:32:31.6	176.380	-0.400	0.060	1.430
2020/01/31 23:32:31.7	176.360	-0.380	0.020	1.440
2020/01/31 23:32:31.8	176.330	-0.350	-0.020	1.460
2020/01/31 23:32:31.9	176.310	-0.320	-0.070	1.480
2020/01/31 23:32:32.0	176.290	-0.280	-0.120	1.500
2020/01/31 23:32:32.1	176.280	-0.240	-0.170	1.510
2020/01/31 23:32:32.2	176.260	-0.200	-0.220	1.530
2020/01/31 23:32:32.3	176.240	-0.160	-0.270	1.540
2020/01/31 23:32:32.4	176.230	-0.110	-0.320	1.550
2020/01/31 23:32:32.5	176.220	-0.070	-0.370	1.560
2020/01/31 23:32:32.6	176.210	-0.020	-0.410	1.560
2020/01/31 23:32:32.7	176.200	0.020	-0.450	1.570
2020/01/31 23:32:32.8	176.190	0.060	-0.480	1.570
2020/01/31 23:32:32.9	176.190	0.100	-0.510	1.570
2020/01/31 23:32:33.0	176.190	0.140	-0.530	1.560
2020/01/31 23:32:33.1	176.200	0.180	-0.540	1.560
2020/01/31 23:32:33.2	176.210	0.210	-0.540	1.550
2020/01/31 23:32:33.3	176.220	0.240	-0.540	1.540
2020/01/31 23:32:33.4	176.230	0.270	-0.530	1.530
2020/01/31 23:32:33.5	176.240	0.290	-0.520	1.510
2020/01/31 23:32:33.6	176.260	0.310	-0.490	1.500
2020/01/31 23:32:33.7	176.280	0.320	-0.460	1.480
2020/01/31 23:32:33.8	176.300	0.330	-0.420	1.460
2020/01/31 23:32:33.9	176.320	0.340	-0.380	1.440
2020/01/31 23:32:34.0	176.350	0.340	-0.330	1.420
2020/01/31 23:32:34.1	176.370	0.330	-0.270	1.400
2020/01/31 23:32:34.2	176.400	0.320	-0.210	1.380
2020/01/31 23:32:34.3	176.430	0.310	-0.150	1.350
2020/01/31 23:32:34.4	176.460	0.290	-0.080	1.320
2020/01/31 23:32:34.5	176.490	0.270	-0.010	1.300
2020/01/31 23:32:34.6	176.520	0.250	0.060	1.270
2020/01/31 23:32:34.7	176.560	0.220	0.140	1.240
2020/01/31 23:32:34.8	176.590	0.190	0.210	1.220
2020/01/31 23:32:34.9	176.620	0.160	0.280	1.190
2020/01/31 23:32:35.0	176.660	0.130	0.340	1.170
2020/01/31 23:32:35.1	176.680	0.090	0.410	1.140
2020/01/31 23:32:35.2	176.710	0.050	0.470	1.120
2020/01/31 23:32:35.3	176.740	0.020	0.520	1.100
2020/01/31 23:32:35.4	176.770	-0.020	0.560	1.090
2020/01/31 23:32:35.5	176.790	-0.050	0.600	1.080
2020/01/31 23:32:35.6	176.810	-0.080	0.640	1.060
2020/01/31 23:32:35.7	176.820	-0.120	0.660	1.060
2020/01/31 23:32:35.8	176.830	-0.140	0.670	1.060
2020/01/31 23:32:35.9	176.840	-0.170	0.680	1.060
2020/01/31 23:32:36.0	176.850	-0.190	0.670	1.060
2020/01/31 23:32:36.1	176.850	-0.210	0.660	1.070
2020/01/31 23:32:36.2	176.850	-0.220	0.630	1.090
2020/01/31 23:32:36.3	176.840	-0.230	0.600	1.100
2020/01/31 23:32:36.4	176.830	-0.240	0.560	1.120
2020/01/31 23:32:36.5	176.820	-0.230	0.500	1.140
2020/01/31 23:32:36.6	176.800	-0.230	0.440	1.170
2020/01/31 23:32:36.7	176.780	-0.220	0.370	1.190
2020/01/31 23:32:36.8	176.760	-0.200	0.290	1.220
2020/01/31 23:32:36.9	176.730	-0.180	0.210	1.250
2020/01/31 23:32:37.0	176.700	-0.160	0.120	1.280
2020/01/31 23:32:37.1	176.660	-0.130	0.030	1.310
2020/01/31 23:32:37.2	176.630	-0.100	-0.070	1.350
2020/01/31 23:32:37.3	176.590	-0.060	-0.170	1.380
2020/01/31 23:32:37.4	176.550	-0.020	-0.270	1.410
2020/01/31 23:32:37.5	176.510	0.020	-0.370	1.440
2020/01/31 23:32:37.6	176.470	0.060	-0.480	1.470
2020/01/31 23:32:37.7	176.430	0.100	-0.580	1.500
2020/01/31 23:32:37.8	176.390	0.150	-0.670	1.520
2020/01/31 23:32:37.9	176.340	0.190	-0.770	1.550
2020/01/31 23:32:38.0	176.300	0.240	-0.860	1.570
2020/01/31 23:32:38.1	176.270	0.280	-0.940	1.590
2020/01/31 23:32:38.2	176.230	0.320	-1.010	1.610
2020/01/31 23:32:38.3	176.200	0.360	-1.080	1.620
2020/01/31 23:32:38.4	176.170	0.390	-1.140	1.630
2020/01/31 23:32:38.5	176.150	0.420	-1.200	1.640
2020/01/31 23:32:38.6	176.130	0.450	-1.240	1.640
2020/01/31 23:32:38.7	176.110	0.470	-1.270	1.650
2020/01/31 23:32:38.8	176.100	0.490	-1.300	1.650
2020/01/31 23:32:38.9	176.090	0.500	-1.310	1.650
2020/01/31 23:32:39.0	176.080	0.500	-1.310	1.650
2020/01/31 23:32:39.1	176.090	0.500	-1.310	1.640
2020/01/31 23:32:39.2	176.090	0.490	-1.290	1.640
2020/01/31 23:32:39.3	176.100	0.480	-1.260	1.630
2020/01/31 23:32:39.4	176.110	0.460	-1.220	1.630
2020/01/31 23:32:39.5	176.130	0.440	-1.180	1.620
2020/01/31 23:32:39.6	176.150	0.410	-1.120	1.610
2020/01/31 23:32:39.7	176.170	0.370	-1.060	1.600
2020/01/31 23:32:39.8	176.200	0.330	-0.990	1.600
2020/01/31 23:32:39.9	176.230	0.280	-0.920	1.590
2020/01/31 23:32:40.0	176.260	0.240	-0.840	1.570
2020/01/31 23:32:40.1	176.290	0.180	-0.760	1.560
2020/01/31 23:32:40.2	176.320	0.130	-0.670	1.550
2020/01/31 23:32:40.3	176.360	0.070	-0.580	1.530
2020/01/31 23:32:40.4	176.400	0.010	-0.490	1.520
2020/01/31 23:32:40.5	176.440	-0.050	-0.400	1.500
2020/01/31 23:32:40.6	176.470	-0.100	-0.310	1.480
2020/01/31 23:32:40.7	176.510	-0.160	-0.230	1.470
2020/01/31 23:32:40.8	176.540	-0.220	-0.140	1.450
2020/01/31 23:32:40.9	176.580	-0.270	-0.070	1.430
2020/01/31 23:32:41.0	176.610	-0.330	0.000	1.420
2020/01/31 23:32:41.1	176.640	-0.370	0.060	1.410
2020/01/31 23:32:41.2	176.660	-0.420	0.120	1.390
2020/01/31 23:32:41.3	176.680	-0.460	0.160	1.380
2020/01/31 23:32:41.4	176.700	-0.490	0.200	1.370
2020/01/31 23:32:41.5	176.710	-0.520	0.230	1.360
2020/01/31 23:32:41.6	176.730	-0.540	0.240	1.350
2020/01/31 23:32:41.7	176.730	-0.550	0.250	1.350
2020/01/31 23:32:41.8	176.740	-0.560	0.240	1.340
2020/01/31 23:32:41.9	176.740	-0.560	0.230	1.340
2020/01/31 23:32:42.0	176.740	-0.560	0.210	1.330
2020/01/31 23:32:42.1	176.740	-0.550	0.170	1.330
2020/01/31 23:32:42.2	176.730	-0.530	0.130	1.330
2020/01/31 23:32:42.3	176.720	-0.500	0.080	1.320
2020/01/31 23:32:42.4	176.710	-0.480	0.020	1.330
2020/01/31 23:32:42.5	176.700	-0.440	-0.040	1.330
2020/01/31 23:32:42.6	176.680	-0.400	-0.100	1.330
2020/01/31 23:32:42.7	176.670	-0.360	-0.170	1.330
2020/01/31 23:32:42.8	176.650	-0.310	-0.240	1.340
2020/01/31 23:32:42.9	176.640	-0.270	-0.320	1.340
2020/01/31 23:32:43.0	176.620	-0.220	-0.380	1.340
2020/01/31 23:32:43.1	176.620	-0.170	-0.450	1.350
2020/01/31 23:32:43.2	176.610	-0.120	-0.510	1.350
2020/01/31 23:32:43.3	176.600	-0.070	-0.570	1.350
2020/01/31 23:32:43.4	176.590	-0.030	-0.620	1.350
2020/01/31 23:32:43.5	176.590	0.010	-0.660	1.360
2020/01/31 23:32:43.6	176.590	0.050	-0.690	1.360
2020/01/31 23:32:43.7	176.600	0.090	-0.720	1.360
2020/01/31 23:32:43.8	176.610	0.120	-0.730	1.360
2020/01/31 23:32:43.9	176.620	0.140	-0.740	1.360
2020/01/31 23:32:44.0	176.630	0.160	-0.730	1.370
2020/01/31 23:32:44.1	176.630	0.180	-0.720	1.370
2020/01/31 23:32:44.2	176.650	0.190	-0.700	1.370
2020/01/31 23:32:44.3	176.670	0.190	-0.660	1.380
2020/01/31 23:32:44.4	176.690	0.190	-0.620	1.380
2020/01/31 23:32:44.5	176.720	0.180	-0.570	1.390
2020/01/31 23:32:44.6	176.740	0.170	-0.510	1.400
2020/01/31 23:32:44.7	176.770	0.150	-0.450	1.400
2020/01/31 23:32:44.8	176.800	0.130	-0.380	1.410
2020/01/31 23:32:44.9	176.830	0.100	-0.300	1.420
2020/01/31 23:32:45.0	176.860	0.070	-0.220	1.420
2020/01/31 23:32:45.1	176.900	0.040	-0.140	1.430
2020/01/31 23:32:45.2	176.930	-0.000	-0.060	1.430
2020/01/31 23:32:45.3	176.960	-0.040	0.020	1.440
2020/01/31 23:32:45.4	176.990	-0.080	0.100	1.440
2020/01/31 23:32:45.5	177.010	-0.120	0.180	1.450
2020/01/31 23:32:45.6	177.040	-0.160	0.260	1.450
2020/01/31 23:32:45.7	177.060	-0.200	0.330	1.460
2020/01/31 23:32:45.8	177.080	-0.240	0.400	1.460
2020/01/31 23:32:45.9	177.100	-0.280	0.460	1.470
2020/01/31 23:32:46.0	177.110	-0.310	0.510	1.480
2020/01/31 23:32:46.1	177.120	-0.340	0.550	1.490
2020/01/31 23:32:46.2	177.120	-0.370	0.590	1.500
2020/01/31 23:32:46.3	177.120	-0.390	0.610	1.510
2020/01/31 23:32:46.4	177.120	-0.410	0.630	1.520
2020/01/31 23:32:46.5	177.110	-0.420	0.630	1.540
2020/01/31 23:32:46.6	177.100	-0.430	0.630	1.550
2020/01/31 23:32:46.7	177.080	-0.430	0.610	1.570
2020/01/31 23:32:46.8	177.060	-0.420	0.590	1.590
2020/01/31 23:32:46.9	177.040	-0.410	0.560	1.600
2020/01/31 23:32:47.0	177.020	-0.390	0.510	1.620
2020/01/31 23:32:47.1	176.990	-0.370	0.460	1.640
2020/01/31 23:32:47.2	176.960	-0.340	0.400	1.660
2020/01/31 23:32:47.3	176.930	-0.310	0.340	1.680
2020/01/31 23:32:47.4	176.900	-0.280	0.280	1.700
2020/01/31 23:32:47.5	176.870	-0.240	0.210	1.710
2020/01/31 23:32:47.6	176.840	-0.190	0.140	1.730
2020/01/31 23:32:47.7	176.800	-0.150	0.060	1.750
2020/01/31 23:32:47.8	176.770	-0.100	-0.010	1.770
2020/01/31 23:32:47.9	176.740	-0.050	-0.080	1.790
2020/01/31 23:32:48.0	176.700	0.000	-0.150	1.810
2020/01/31 23:32:48.1	176.670	0.060	-0.210	1.820
2020/01/31 23:32:48.2	176.640	0.110	-0.270	1.840
2020/01/31 23:32:48.3	176.610	0.150	-0.330	1.850
2020/01/31 23:32:48.4	176.590	0.200	-0.380	1.860
2020/01/31 23:32:48.5	176.560	0.250	-0.430	1.870
2020/01/31 23:32:48.6	176.540	0.290	-0.460	1.870
2020/01/31 23:32:48.7	176.520	0.330	-0.490	1.880
2020/01/31 23:32:48.8	176.500	0.360	-0.510	1.870
2020/01/31 23:32:48.9	176.480	0.390	-0.520	1.870
2020/01/31 23:32:49.0	176.470	0.420	-0.530	1.860
2020/01/31 23:32:49.1	176.460	0.440	-0.530	1.840
2020/01/31 23:32:49.2	176.450	0.450	-0.510	1.830
2020/01/31 23:32:49.3	176.450	0.460	-0.500	1.800
2020/01/31 23:32:49.4	176.450	0.470	-0.470	1.780
2020/01/31 23:32:49.5	176.450	0.460	-0.440	1.750
2020/01/31 23:32:49.6	176.460	0.460	-0.400	1.720
2020/01/31 23:32:49.7	176.470	0.450	-0.360	1.680
2020/01/31 23:32:49.8	176.480	0.430	-0.320	1.640
2020/01/31 23:32:49.9	176.490	0.410	-0.280	1.600
2020/01/31 23:32:50.0	176.500	0.380	-0.230	1.560
2020/01/31 23:32:50.1	176.510	0.350	-0.190	1.520
2020/01/31 23:32:50.2	176.530	0.320	-0.140	1.470
2020/01/31 23:32:50.3	176.540	0.290	-0.100	1.430
2020/01/31 23:32:50.4	176.560	0.250	-0.060	1.390
2020/01/31 23:32:50.5	176.580	0.210	-0.020	1.350
2020/01/31 23:32:50.6	176.590	0.170	0.010	1.310
2020/01/31 23:32:50.7	176.610	0.130	0.040	1.270
2020/01/31 23:32:50.8	176.620	0.090	0.060	1.230
2020/01/31 23:32:50.9	176.630	0.050	0.080	1.190
2020/01/31 23:32:51.0	176.640	0.010	0.090	1.160
2020/01/31 23:32:51.1	176.670	-0.030	0.100	1.130
2020/01/31 23:32:51.2	176.680	-0.060	0.090	1.100
2020/01/31 23:32:51.3	176.690	-0.100	0.080	1.070
2020/01/31 23:32:51.4	176.690	-0.130	0.060	1.040
2020/01/31 23:32:51.5	176.700	-0.150	0.040	1.020
2020/01/31 23:32:51.6	176.700	-0.170	0.010	1.000
2020/01/31 23:32:51.7	176.700	-0.190	-0.030	0.980
2020/01/31 23:32:51.8	176.700	-0.200	-0.070	0.970
2020/01/31 23:32:51.9	176.700	-0.210	-0.120	0.950
2020/01/31 23:32:52.0	176.700	-0.210	-0.170	0.940
2020/01/31 23:32:52.1	176.700	-0.210	-0.230	0.940
2020/01/31 23:32:52.2	176.690	-0.210	-0.290	0.930
2020/01/31 23:32:52.3	176.690	-0.200	-0.340	0.930
2020/01/31 23:32:52.4	176.680	-0.180	-0.400	0.920
2020/01/31 23:32:52.5	176.680	-0.160	-0.460	0.920
2020/01/31 23:32:52.6	176.670	-0.140	-0.520	0.920
2020/01/31 23:32:52.7	176.670	-0.120	-0.570	0.920
2020/01/31 23:32:52.8	176.660	-0.090	-0.630	0.930
2020/01/31 23:32:52.9	176.650	-0.060	-0.680	0.930
2020/01/31 23:32:53.0	176.650	-0.030	-0.730	0.940
2020/01/31 23:32:53.1	176.650	0.010	-0.770	0.940
2020/01/31 23:32:53.2	176.650	0.050	-0.810	0.950
2020/01/31 23:32:53.3	176.640	0.080	-0.850	0.950
2020/01/31 23:32:53.4	176.640	0.120	-0.880	0.960
2020/01/31 23:32:53.5	176.640	0.160	-0.910	0.960
2020/01/31 23:32:53.6	176.640	0.200	-0.930	0.970
2020/01/31 23:32:53.7	176.630	0.230	-0.950	0.970
2020/01/31 23:32:53.8	176.630	0.270	-0.970	0.980
2020/01/31 23:32:53.9	176.630	0.300	-0.980	0.980
2020/01/31 23:32:54.0	176.630	0.330	-0.980	0.980
2020/01/31 23:32:54.1	176.640	0.360	-0.980	0.990
2020/01/31 23:32:54.2	176.640	0.390	-0.980	0.990
2020/01/31 23:32:54.3	176.640	0.410	-0.980	0.990
2020/01/31 23:32:54.4	176.640	0.430	-0.970	0.980
2020/01/31 23:32:54.5	176.640	0.440	-0.950	0.980
2020/01/31 23:32:54.6	176.640	0.460	-0.940	0.980
2020/01/31 23:32:54.7	176.640	0.460	-0.920	0.980
2020/01/31 23:32:54.8	176.640	0.470	-0.890	0.980
2020/01/31 23:32:54.9	176.630	0.460	-0.870	0.980
2020/01/31 23:32:55.0	176.630	0.460	-0.840	0.980
2020/01/31 23:32:55.1	176.630	0.450	-0.810	0.980
2020/01/31 23:32:55.2	176.620	0.430	-0.780	0.980
2020/01/31 23:32:55.3	176.620	0.410	-0.750	0.990
2020/01/31 23:32:55.4	176.620	0.380	-0.710	1.000
2020/01/31 23:32:55.5	176.610	0.350	-0.680	1.010
2020/01/31 23:32:55.6	176.610	0.320	-0.640	1.020
2020/01/31 23:32:55.7	176.610	0.280	-0.600	1.030
2020/01/31 23:32:55.8	176.600	0.230	-0.560	1.050
2020/01/31 23:32:55.9	176.600	0.190	-0.520	1.070
2020/01/31 23:32:56.0	176.590	0.140	-0.470	1.090
2020/01/31 23:32:56.1	176.580	0.090	-0.440	1.120
2020/01/31 23:32:56.2	176.570	0.030	-0.400	1.150
2020/01/31 23:32:56.3	176.570	-0.020	-0.350	1.180
2020/01/31 23:32:56.4	176.560	-0.080	-0.310	1.220
2020/01/31 23:32:56.5	176.560	-0.140	-0.280	1.250
2020/01/31 23:32:56.6	176.550	-0.190	-0.240	1.290
2020/01/31 23:32:56.7	176.550	-0.250	-0.200	1.330
2020/01/31 23:32:56.8	176.540	-0.310	-0.170	1.370
2020/01/31 23:32:56.9	176.540	-0.360	-0.130	1.410
2020/01/31 23:32:57.0	176.540	-0.410	-0.100	1.450
2020/01/31 23:32:57.1	176.530	-0.460	-0.060	1.500
2020/01/31 23:32:57.2	176.530	-0.510	-0.030	1.530
2020/01/31 23:32:57.3	176.520	-0.560	-0.000	1.570
2020/01/31 23:32:57.4	176.520	-0.600	0.030	1.610
2020/01/31 23:32:57.5	176.520	-0.630	0.050	1.640
2020/01/31 23:32:57.6	176.510	-0.670	0.080	1.670
2020/01/31 23:32:57.7	176.510	-0.700	0.100	1.700
2020/01/31 23:32:57.8	176.510	-0.720	0.120	1.730
2020/01/31 23:32:57.9	176.500	-0.740	0.140	1.760
2020/01/31 23:32:58.0	176.500	-0.750	0.160	1.780
2020/01/31 23:32:58.1	176.490	-0.760	0.180	1.800
2020/01/31 23:32:58.2	176.480	-0.760	0.200	1.820
2020/01/31 23:32:58.3	176.470	-0.760	0.210	1.840
2020/01/31 23:32:58.4	176.460	-0.750	0.220	1.860
2020/01/31 23:32:58.5	176.450	-0.740	0.230	1.880
2020/01/31 23:32:58.6	176.440	-0.720	0.240	1.890
2020/01/31 23:32:58.7	176.430	-0.700	0.250	1.900
2020/01/31 23:32:58.8	176.420	-0.670	0.250	1.910
2020/01/31 23:32:58.9	176.400	-0.640	0.250	1.920
2020/01/31 23:32:59.0	176.390	-0.600	0.250	1.930
2020/01/31 23:32:59.1	176.380	-0.560	0.250	1.930
2020/01/31 23:32:59.2	176.360	-0.520	0.240	1.940
2020/01/31 23:32:59.3	176.340	-0.470	0.230	1.940
2020/01/31 23:32:59.4	176.320	-0.420	0.220	1.940
2020/01/31 23:32:59.5	176.300	-0.370	0.200	1.940
2020/01/31 23:32:59.6	176.280	-0.310	0.190	1.930
2020/01/31 23:32:59.7	176.250	-0.250	0.170	1.930
2020/01/31 23:32:59.8	176.220	-0.190	0.140	1.920
2020/01/31 23:32:59.9	176.200	-0.130	0.120	1.910
2020/01/31 23:33:00.0	176.170	-0.070	0.090	1.890
2020/01/31 23:33:00.1	176.140	-0.010	0.070	1.880
2020/01/31 23:33:00.2	176.110	0.050	0.040	1.860
2020/01/31 23:33:00.3	176.080	0.110	0.010	1.840
2020/01/31 23:33:00.4	176.050	0.170	-0.020	1.820
2020/01/31 23:33:00.5	176.020	0.230	-0.050	1.790
2020/01/31 23:33:00.6	175.990	0.280	-0.080	1.760
2020/01/31 23:33:00.7	175.970	0.330	-0.110	1.730
2020/01/31 23:33:00.8	175.940	0.380	-0.130	1.700
2020/01/31 23:33:00.9	175.920	0.420	-0.150	1.670
2020/01/31 23:33:01.0	175.890	0.460	-0.170	1.630
2020/01/31 23:33:01.1	175.880	0.490	-0.180	1.590
2020/01/31 23:33:01.2	175.860	0.520	-0.200	1.560
2020/01/31 23:33:01.3	175.850	0.540	-0.210	1.530
2020/01/31 23:33:01.4	175.830	0.560	-0.210	1.490
2020/01/31 23:33:01.5	175.820	0.570	-0.210	1.460
2020/01/31 23:33:01.6	175.810	0.580	-0.210	1.430
2020/01/31 23:33:01.7	175.800	0.570	-0.200	1.400
2020/01/31 23:33:01.8	175.790	0.570	-0.180	1.380
2020/01/31 23:33:01.9	175.790	0.550	-0.170	1.350
2020/01/31 23:33:02.0	175.790	0.530	-0.150	1.330
2020/01/31 23:33:02.1	175.790	0.510	-0.130	1.310
2020/01/31 23:33:02.2	175.790	0.480	-0.100	1.300
2020/01/31 23:33:02.3	175.790	0.440	-0.080	1.280
2020/01/31 23:33:02.4	175.780	0.400	-0.050	1.270
2020/01/31 23:33:02.5	175.780	0.360	-0.020	1.270
2020/01/31 23:33:02.6	175.790	0.310	0.010	1.260
2020/01/31 23:33:02.7	175.790	0.260	0.030	1.260
2020/01/31 23:33:02.8	175.790	0.210	0.060	1.260
2020/01/31 23:33:02.9	175.790	0.160	0.090	1.260
2020/01/31 23:33:03.0	175.790	0.100	0.110	1.260
2020/01/31 23:33:03.1	175.800	0.040	0.130	1.270
2020/01/31 23:33:03.2	175.800	-0.010	0.150	1.270
2020/01/31 23:33:03.3	175.800	-0.070	0.170	1.280
2020/01/31 23:33:03.4	175.800	-0.120	0.180	1.290
2020/01/31 23:33:03.5	175.810	-0.180	0.190	1.290
2020/01/31 23:33:03.6	175.810	-0.220	0.190	1.300
2020/01/31 23:33:03.7	175.810	-0.270	0.190	1.300
2020/01/31 23:33:03.8	175.820	-0.310	0.180	1.310
2020/01/31 23:33:03.9	175.820	-0.350	0.170	1.320
2020/01/31 23:33:04.0	175.820	-0.390	0.150	1.320
2020/01/31 23:33:04.1	175.820	-0.420	0.130	1.330
2020/01/31 23:33:04.2	175.830	-0.440	0.100	1.330
2020/01/31 23:33:04.3	175.830	-0.460	0.070	1.340
2020/01/31 23:33:04.4	175.830	-0.470	0.040	1.340
2020/01/31 23:33:04.5	175.840	-0.480	-0.000	1.350
2020/01/31 23:33:04.6	175.840	-0.480	-0.050	1.350
2020/01/31 23:33:04.7	175.850	-0.470	-0.100	1.350
2020/01/31 23:33:04.8	175.850	-0.460	-0.150	1.360
2020/01/31 23:33:04.9	175.850	-0.440	-0.200	1.370
2020/01/31 23:33:05.0	175.850	-0.420	-0.260	1.380
2020/01/31 23:33:05.1	175.860	-0.390	-0.310	1.380
2020/01/31 23:33:05.2	175.860	-0.360	-0.370	1.400
2020/01/31 23:33:05.3	175.860	-0.330	-0.430	1.410
2020/01/31 23:33:05.4	175.860	-0.290	-0.490	1.420
2020/01/31 23:33:05.5	175.870	-0.250	-0.540	1.440
2020/01/31 23:33:05.6	175.870	-0.200	-0.600	1.450
2020/01/31 23:33:05.7	175.870	-0.150	-0.650	1.470
2020/01/31 23:33:05.8	175.870	-0.100	-0.700	1.480
2020/01/31 23:33:05.9	175.870	-0.050	-0.750	1.500
2020/01/31 23:33:06.0	175.880	-0.000	-0.790	1.510
2020/01/31 23:33:06.1	175.880	0.050	-0.830	1.530
2020/01/31 23:33:06.2	175.880	0.100	-0.870	1.540
2020/01/31 23:33:06.3	175.880	0.150	-0.900	1.550
2020/01/31 23:33:06.4	175.890	0.190	-0.930	1.550
2020/01/31 23:33:06.5	175.890	0.240	-0.950	1.550
2020/01/31 23:33:06.6	175.900	0.280	-0.960	1.550
2020/01/31 23:33:06.7	175.900	0.320	-0.970	1.540
2020/01/31 23:33:06.8	175.910	0.350	-0.970	1.540
2020/01/31 23:33:06.9	175.910	0.380	-0.970	1.530
2020/01/31 23:33:07.0	175.910	0.410	-0.970	1.510
2020/01/31 23:33:07.1	175.910	0.440	-0.960	1.490
2020/01/31 23:33:07.2	175.910	0.450	-0.940	1.480
2020/01/31 23:33:07.3	175.910	0.470	-0.920	1.460
2020/01/31 23:33:07.4	175.910	0.480	-0.900	1.440
2020/01/31 23:33:07.5	175.910	0.490	-0.870	1.420
2020/01/31 23:33:07.6	175.910	0.490	-0.840	1.400
2020/01/31 23:33:07.7	175.910	0.490	-0.810	1.380
2020/01/31 23:33:07.8	175.900	0.490	-0.780	1.360
2020/01/31 23:33:07.9	175.900	0.480	-0.740	1.340
2020/01/31 23:33:08.0	175.890	0.470	-0.710	1.320
2020/01/31 23:33:08.1	175.880	0.460	-0.670	1.310
2020/01/31 23:33:08.2	175.870	0.440	-0.640	1.300
2020/01/31 23:33:08.3	175.860	0.430	-0.610	1.290
2020/01/31 23:33:08.4	175.840	0.410	-0.580	1.280
2020/01/31 23:33:08.5	175.830	0.390	-0.550	1.280
2020/01/31 23:33:08.6	175.810	0.370	-0.530	1.270
2020/01/31 23:33:08.7	175.790	0.360	-0.510	1.270
2020/01/31 23:33:08.8	175.760	0.340	-0.490	1.280
2020/01/31 23:33:08.9	175.740	0.320	-0.480	1.280
2020/01/31 23:33:09.0	175.710	0.300	-0.470	1.290
2020/01/31 23:33:09.1	175.690	0.290	-0.460	1.300
2020/01/31 23:33:09.2	175.660	0.270	-0.460	1.300
2020/01/31 23:33:09.3	175.630	0.260	-0.460	1.310
2020/01/31 23:33:09.4	175.600	0.250	-0.460	1.320
2020/01/31 23:33:09.5	175.570	0.230	-0.460	1.330
2020/01/31 23:33:09.6	175.550	0.220	-0.470	1.340
2020/01/31 23:33:09.7	175.520	0.210	-0.470	1.350
2020/01/31 23:33:09.8	175.490	0.200	-0.480	1.360
2020/01/31 23:33:09.9	175.470	0.190	-0.480	1.370
2020/01/31 23:33:10.0	175.450	0.180	-0.480	1.380
2020/01/31 23:33:10.1	175.430	0.170	-0.480	1.400
2020/01/31 23:33:10.2	175.410	0.160	-0.470	1.410
2020/01/31 23:33:10.3	175.390	0.150	-0.460	1.420
2020/01/31 23:33:10.4	175.380	0.140	-0.450	1.430
2020/01/31 23:33:10.5	175.370	0.130	-0.440	1.450
2020/01/31 23:33:10.6	175.360	0.110	-0.420	1.460
2020/01/31 23:33:10.7	175.350	0.100	-0.390	1.480
2020/01/31 23:33:10.8	175.340	0.080	-0.360	1.500
2020/01/31 23:33:10.9	175.340	0.060	-0.330	1.510
2020/01/31 23:33:11.0	175.340	0.040	-0.290	1.540
2020/01/31 23:33:11.1	175.340	0.010	-0.240	1.560
2020/01/31 23:33:11.2	175.340	-0.010	-0.200	1.580
2020/01/31 23:33:11.3	175.340	-0.040	-0.150	1.600
2020/01/31 23:33:11.4	175.350	-0.060	-0.100	1.620
2020/01/31 23:33:11.5	175.360	-0.090	-0.040	1.650
2020/01/31 23:33:11.6	175.370	-0.120	0.020	1.670
2020/01/31 23:33:11.7	175.380	-0.160	0.070	1.690
2020/01/31 23:33:11.8	175.390	-0.190	0.130	1.710
2020/01/31 23:33:11.9	175.410	-0.220	0.190	1.730
2020/01/31 23:33:12.0	175.430	-0.260	0.250	1.740
2020/01/31 23:33:12.1	175.440	-0.290	0.310	1.760
2020/01/31 23:33:12.2	175.450	-0.320	0.360	1.770
2020/01/31 23:33:12.3	175.470	-0.360	0.420	1.780
2020/01/31 23:33:12.4	175.500	-0.390	0.470	1.790
2020/01/31 23:33:12.5	175.520	-0.420	0.520	1.790
2020/01/31 23:33:12.6	175.540	-0.460	0.570	1.790
2020/01/31 23:33:12.7	175.570	-0.490	0.610	1.800
2020/01/31 23:33:12.8	175.590	-0.510	0.650	1.790
2020/01/31 23:33:12.9	175.610	-0.540	0.680	1.790
2020/01/31 23:33:13.0	175.640	-0.560	0.710	1.790
2020/01/31 23:33:13.1	175.660	-0.580	0.740	1.790
2020/01/31 23:33:13.2	175.680	-0.600	0.760	1.780
2020/01/31 23:33:13.3	175.700	-0.610	0.770	1.780
2020/01/31 23:33:13.4	175.720	-0.620	0.770	1.770
2020/01/31 23:33:13.5	175.740	-0.620	0.770	1.760
2020/01/31 23:33:13.6	175.750	-0.620	0.760	1.760
2020/01/31 23:33:13.7	175.770	-0.620	0.740	1.750
2020/01/31 23:33:13.8	175.780	-0.610	0.710	1.750
2020/01/31 23:33:13.9	175.790	-0.600	0.680	1.740
2020/01/31 23:33:14.0	175.790	-0.580	0.640	1.740
2020/01/31 23:33:14.1	175.800	-0.560	0.600	1.740
2020/01/31 23:33:14.2	175.810	-0.530	0.540	1.730
2020/01/31 23:33:14.3	175.810	-0.500	0.490	1.730
2020/01/31 23:33:14.4	175.800	-0.470	0.420	1.730
2020/01/31 23:33:14.5	175.800	-0.430	0.350	1.740
2020/01/31 23:33:14.6	175.790	-0.380	0.280	1.740
2020/01/31 23:33:14.7	175.780	-0.340	0.200	1.740
2020/01/31 23:33:14.8	175.760	-0.290	0.110	1.750
2020/01/31 23:33:14.9	175.750	-0.240	0.020	1.750
2020/01/31 23:33:15.0	175.730	-0.180	-0.070	1.760
2020/01/31 23:33:15.1	175.720	-0.130	-0.150	1.770
2020/01/31 23:33:15.2	175.700	-0.070	-0.240	1.770
2020/01/31 23:33:15.3	175.680	-0.010	-0.340	1.780
2020/01/31 23:33:15.4	175.650	0.050	-0.430	1.790
2020/01/31 23:33:15.5	175.630	0.100	-0.510	1.790
2020/01/31 23:33:15.6	175.610	0.160	-0.600	1.790
2020/01/31 23:33:15.7	175.580	0.220	-0.680	1.800
2020/01/31 23:33:15.8	175.560	0.270	-0.750	1.800
2020/01/31 23:33:15.9	175.530	0.320	-0.820	1.800
2020/01/31 23:33:16.0	175.510	0.370	-0.880	1.800
2020/01/31 23:33:16.1	175.480	0.410	-0.940	1.800
2020/01/31 23:33:16.2	175.460	0.450	-0.990	1.800
2020/01/31 23:33:16.3	175.430	0.490	-1.030	1.800
2020/01/31 23:33:16.4	175.410	0.520	-1.060	1.800
2020/01/31 23:33:16.5	175.390	0.550	-1.080	1.800
2020/01/31 23:33:16.6	175.360	0.570	-1.100	1.790
2020/01/31 23:33:16.7	175.340	0.590	-1.100	1.790
2020/01/31 23:33:16.8	175.320	0.600	-1.100	1.790
2020/01/31 23:33:16.9	175.300	0.610	-1.090	1.780
2020/01/31 23:33:17.0	175.280	0.620	-1.070	1.780
2020/01/31 23:33:17.1	175.280	0.620	-1.050	1.770
2020/01/31 23:33:17.2	175.260	0.610	-1.020	1.770
2020/01/31 23:33:17.3	175.240	0.600	-0.980	1.760
2020/01/31 23:33:17.4	175.230	0.580	-0.940	1.760
2020/01/31 23:33:17.5	175.220	0.560	-0.890	1.750
2020/01/31 23:33:17.6	175.210	0.540	-0.840	1.740
2020/01/31 23:33:17.7	175.200	0.510	-0.780	1.730
2020/01/31 23:33:17.8	175.190	0.480	-0.730	1.720
2020/01/31 23:33:17.9	175.180	0.450	-0.670	1.700
2020/01/31 23:33:18.0	175.180	0.410	-0.610	1.690
2020/01/31 23:33:18.1	175.170	0.380	-0.550	1.670
2020/01/31 23:33:18.2	175.170	0.340	-0.490	1.650
2020/01/31 23:33:18.3	175.170	0.300	-0.430	1.630
2020/01/31 23:33:18.4	175.180	0.260	-0.370	1.610
2020/01/31 23:33:18.5	175.180	0.220	-0.310	1.580
2020/01/31 23:33:18.6	175.190	0.180	-0.250	1.550
2020/01/31 23:33:18.7	175.200	0.130	-0.200	1.520
2020/01/31 23:33:18.8	175.210	0.090	-0.150	1.490
2020/01/31 23:33:18.9	175.220	0.060	-0.100	1.460
2020/01/31 23:33:19.0	175.240	0.020	-0.060	1.430
2020/01/31 23:33:19.1	175.240	-0.020	-0.020	1.390
2020/01/31 23:33:19.2	175.250	-0.050	0.020	1.350
2020/01/31 23:33:19.3	175.270	-0.090	0.050	1.320
2020/01/31 23:33:19.4	175.280	-0.120	0.080	1.290
2020/01/31 23:33:19.5	175.300	-0.150	0.100	1.260
2020/01/31 23:33:19.6	175.310	-0.180	0.120	1.230
2020/01/31 23:33:19.7	175.330	-0.200	0.130	1.200
2020/01/31 23:33:19.8	175.340	-0.220	0.140	1.180
2020/01/31 23:33:19.9	175.350	-0.240	0.150	1.160
2020/01/31 23:33:20.0	175.360	-0.260	0.150	1.140
2020/01/31 23:33:20.1	175.380	-0.280	0.140	1.130
2020/01/31 23:33:20.2	175.390	-0.290	0.130	1.120
2020/01/31 23:33:20.3	175.400	-0.300	0.110	1.110
2020/01/31 23:33:20.4	175.400	-0.310	0.100	1.110
2020/01/31 23:33:20.5	175.400	-0.310	0.070	1.110
2020/01/31 23:33:20.6	175.410	-0.320	0.050	1.120
2020/01/31 23:33:20.7	175.410	-0.320	0.020	1.120
2020/01/31 23:33:20.8	175.410	-0.320	-0.010	1.130
2020/01/31 23:33:20.9	175.410	-0.310	-0.040	1.150
2020/01/31 23:33:21.0	175.410	-0.310	-0.080	1.160
2020/01/31 23:33:21.1	175.420	-0.300	-0.110	1.190
2020/01/31 23:33:21.2	175.410	-0.300	-0.140	1.210
2020/01/31 23:33:21.3	175.410	-0.290	-0.180	1.220
2020/01/31 23:33:21.4	175.410	-0.270	-0.220	1.240
2020/01/31 23:33:21.5	175.410	-0.260	-0.250	1.260
2020/01/31 23:33:21.6	175.400	-0.250	-0.290	1.270
2020/01/31 23:33:21.7	175.400	-0.230	-0.320	1.290
2020/01/31 23:33:21.8	175.400	-0.210	-0.350	1.300
2020/01/31 23:33:21.9	175.400	-0.190	-0.390	1.310
2020/01/31 23:33:22.0	175.400	-0.170	-0.410	1.320
2020/01/31 23:33:22.1	175.390	-0.150	-0.440	1.330
2020/01/31 23:33:22.2	175.390	-0.130	-0.470	1.340
2020/01/31 23:33:22.3	175.400	-0.100	-0.490	1.340
2020/01/31 23:33:22.4	175.400	-0.080	-0.510	1.340
2020/01/31 23:33:22.5	175.400	-0.060	-0.520	1.340
2020/01/31 23:33:22.6	175.400	-0.030	-0.530	1.340
2020/01/31 23:33:22.7	175.410	-0.000	-0.540	1.330
2020/01/31 23:33:22.8	175.410	0.020	-0.550	1.320
2020/01/31 23:33:22.9	175.420	0.050	-0.550	1.310
2020/01/31 23:33:23.0	175.420	0.070	-0.550	1.300
2020/01/31 23:33:23.1	175.430	0.100	-0.540	1.300
2020/01/31 23:33:23.2	175.430	0.120	-0.540	1.280
2020/01/31 23:33:23.3	175.440	0.150	-0.530	1.270
2020/01/31 23:33:23.4	175.450	0.170	-0.510	1.250
2020/01/31 23:33:23.5	175.460	0.190	-0.500	1.240
2020/01/31 23:33:23.6	175.460	0.210	-0.480	1.230
2020/01/31 23:33:23.7	175.470	0.230	-0.460	1.210
2020/01/31 23:33:23.8	175.480	0.250	-0.440	1.200
2020/01/31 23:33:23.9	175.490	0.270	-0.420	1.190
2020/01/31 23:33:24.0	175.490	0.280	-0.400	1.180
2020/01/31 23:33:24.1	175.500	0.290	-0.370	1.170
2020/01/31 23:33:24.2	175.500	0.300	-0.350	1.170
2020/01/31 23:33:24.3	175.510	0.310	-0.330	1.170
2020/01/31 23:33:24.4	175.510	0.310	-0.300	1.170
2020/01/31 23:33:24.5	175.520	0.310	-0.280	1.170
2020/01/31 23:33:24.6	175.520	0.310	-0.260	1.170
2020/01/31 23:33:24.7	175.520	0.310	-0.240	1.180
2020/01/31 23:33:24.8	175.520	0.300	-0.220	1.180
2020/01/31 23:33:24.9	175.520	0.290	-0.200	1.190
2020/01/31 23:33:25.0	175.520	0.280	-0.180	1.200
2020/01/31 23:33:25.1	175.490	0.270	-0.170	1.210
2020/01/31 23:33:25.2	175.480	0.250	-0.150	1.220
2020/01/31 23:33:25.3	175.480	0.240	-0.140	1.220
2020/01/31 23:33:25.4	175.470	0.220	-0.130	1.230
2020/01/31 23:33:25.5	175.470	0.200	-0.120	1.240
2020/01/31 23:33:25.6	175.460	0.180	-0.110	1.250
2020/01/31 23:33:25.7	175.460	0.150	-0.100	1.250
2020/01/31 23:33:25.8	175.450	0.130	-0.090	1.260
2020/01/31 23:33:25.9	175.450	0.100	-0.080	1.270
2020/01/31 23:33:26.0	175.440	0.080	-0.070	1.270
2020/01/31 23:33:26.1	175.440	0.050	-0.060	1.280
2020/01/31 23:33:26.2	175.440	0.020	-0.060	1.280
2020/01/31 23:33:26.3	175.430	-0.010	-0.050	1.290
2020/01/31 23:33:26.4	175.430	-0.030	-0.040	1.290
2020/01/31 23:33:26.5	175.430	-0.060	-0.030	1.300
2020/01/31 23:33:26.6	175.420	-0.090	-0.020	1.310
2020/01/31 23:33:26.7	175.420	-0.120	-0.010	1.320
2020/01/31 23:33:26.8	175.410	-0.140	0.000	1.330
2020/01/31 23:33:26.9	175.410	-0.170	0.010	1.340
2020/01/31 23:33:27.0	175.400	-0.190	0.020	1.350
2020/01/31 23:33:27.1	175.390	-0.210	0.040	1.370
2020/01/31 23:33:27.2	175.390	-0.230	0.050	1.380
2020/01/31 23:33:27.3	175.380	-0.240	0.060	1.400
2020/01/31 23:33:27.4	175.370	-0.260	0.080	1.420
2020/01/31 23:33:27.5	175.360	-0.270	0.090	1.430
2020/01/31 23:33:27.6	175.360	-0.280	0.100	1.450
2020/01/31 23:33:27.7	175.350	-0.290	0.110	1.470
2020/01/31 23:33:27.8	175.330	-0.290	0.120	1.490
2020/01/31 23:33:27.9	175.320	-0.290	0.130	1.510
2020/01/31 23:33:28.0	175.310	-0.290	0.140	1.520
2020/01/31 23:33:28.1	175.280	-0.280	0.140	1.550
2020/01/31 23:33:28.2	175.270	-0.270	0.140	1.560
2020/01/31 23:33:28.3	175.250	-0.260	0.140	1.570
2020/01/31 23:33:28.4	175.240	-0.250	0.140	1.580
2020/01/31 23:33:28.5	175.230	-0.230	0.130	1.590
2020/01/31 23:33:28.6	175.220	-0.220	0.120	1.590
2020/01/31 23:33:28.7	175.210	-0.200	0.110	1.590
2020/01/31 23:33:28.8	175.200	-0.170	0.090	1.590
2020/01/31 23:33:28.9	175.190	-0.150	0.070	1.590
2020/01/31 23:33:29.0	175.180	-0.130	0.050	1.580
2020/01/31 23:33:29.1	175.180	-0.100	0.030	1.580
2020/01/31 23:33:29.2	175.170	-0.070	-0.000	1.570
2020/01/31 23:33:29.3	175.160	-0.050	-0.040	1.550
2020/01/31 23:33:29.4	175.150	-0.020	-0.080	1.540
2020/01/31 23:33:29.5	175.140	0.010	-0.120	1.520
2020/01/31 23:33:29.6	175.130	0.040	-0.160	1.510
2020/01/31 23:33:29.7	175.120	0.070	-0.210	1.490
2020/01/31 23:33:29.8	175.110	0.090	-0.260	1.470
2020/01/31 23:33:29.9	175.100	0.120	-0.310	1.450
2020/01/31 23:33:30.0	175.090	0.150	-0.370	1.430
2020/01/31 23:33:30.1	175.090	0.170	-0.420	1.410
2020/01/31 23:33:30.2	175.070	0.190	-0.470	1.400
2020/01/31 23:33:30.3	175.060	0.210	-0.530	1.380
2020/01/31 23:33:30.4	175.050	0.230	-0.580	1.370
2020/01/31 23:33:30.5	175.040	0.250	-0.630	1.360
2020/01/31 23:33:30.6	175.030	0.260	-0.680	1.350
2020/01/31 23:33:30.7	175.020	0.280	-0.730	1.340
2020/01/31 23:33:30.8	175.010	0.290	-0.770	1.340
2020/01/31 23:33:30.9	175.000	0.290	-0.810	1.340
2020/01/31 23:33:31.0	174.990	0.300	-0.850	1.340
2020/01/31 23:33:31.1	174.990	0.300	-0.880	1.350
2020/01/31 23:33:31.2	174.980	0.290	-0.900	1.360
2020/01/31 23:33:31.3	174.970	0.290	-0.920	1.360
2020/01/31 23:33:31.4	174.970	0.280	-0.930	1.370
2020/01/31 23:33:31.5	174.960	0.270	-0.940	1.380
2020/01/31 23:33:31.6	174.950	0.250	-0.940	1.390
2020/01/31 23:33:31.7	174.950	0.240	-0.930	1.400
2020/01/31 23:33:31.8	174.950	0.220	-0.920	1.410
2020/01/31 23:33:31.9	174.950	0.200	-0.890	1.420
2020/01/31 23:33:32.0	174.950	0.180	-0.870	1.430
2020/01/31 23:33:32.1	174.960	0.150	-0.830	1.430
2020/01/31 23:33:32.2	174.960	0.130	-0.790	1.440
2020/01/31 23:33:32.3	174.970	0.100	-0.750	1.450
2020/01/31 23:33:32.4	174.970	0.070	-0.700	1.450
2020/01/31 23:33:32.5	174.980	0.040	-0.640	1.460
2020/01/31 23:33:32.6	174.990	0.010	-0.580	1.460
2020/01/31 23:33:32.7	175.000	-0.020	-0.520	1.460
2020/01/31 23:33:32.8	175.010	-0.050	-0.460	1.460
2020/01/31 23:33:32.9	175.020	-0.080	-0.400	1.460
2020/01/31 23:33:33.0	175.020	-0.100	-0.340	1.460
2020/01/31 23:33:33.1	175.020	-0.130	-0.270	1.460
2020/01/31 23:33:33.2	175.030	-0.160	-0.210	1.460
2020/01/31 23:33:33.3	175.030	-0.180	-0.160	1.470
2020/01/31 23:33:33.4	175.040	-0.200	-0.110	1.470
2020/01/31 23:33:33.5	175.040	-0.220	-0.060	1.470
2020/01/31 23:33:33.6	175.030	-0.240	-0.020	1.470
2020/01/31 23:33:33.7	175.030	-0.250	0.020	1.470
2020/01/31 23:33:33.8	175.020	-0.260	0.050	1.470
2020/01/31 23:33:33.9	175.010	-0.270	0.070	1.480
2020/01/31 23:33:34.0	175.000	-0.270	0.090	1.480
2020/01/31 23:33:34.1	174.980	-0.280	0.100	1.480
2020/01/31 23:33:34.2	174.970	-0.280	0.100	1.490
2020/01/31 23:33:34.3	174.950	-0.280	0.100	1.500
2020/01/31 23:33:34.4	174.940	-0.270	0.090	1.500
2020/01/31 23:33:34.5	174.920	-0.260	0.080	1.510
2020/01/31 23:33:34.6	174.900	-0.250	0.060	1.510
2020/01/31 23:33:34.7	174.890	-0.240	0.030	1.520
2020/01/31 23:33:34.8	174.870	-0.230	0.010	1.520
2020/01/31 23:33:34.9	174.860	-0.210	-0.030	1.520
2020/01/31 23:33:35.0	174.850	-0.200	-0.060	1.520
2020/01/31 23:33:35.1	174.850	-0.180	-0.090	1.520
2020/01/31 23:33:35.2	174.840	-0.160	-0.120	1.520
2020/01/31 23:33:35.3	174.840	-0.150	-0.150	1.510
2020/01/31 23:33:35.4	174.850	-0.130	-0.190	1.510
2020/01/31 23:33:35.5	174.850	-0.110	-0.210	1.500
2020/01/31 23:33:35.6	174.860	-0.090	-0.240	1.500
2020/01/31 23:33:35.7	174.870	-0.080	-0.260	1.490
2020/01/31 23:33:35.8	174.890	-0.060	-0.280	1.480
2020/01/31 23:33:35.9	174.900	-0.050	-0.300	1.470
2020/01/31 23:33:36.0	174.920	-0.040	-0.310	1.460
2020/01/31 23:33:36.1	174.940	-0.030	-0.320	1.450
2020/01/31 23:33:36.2	174.970	-0.020	-0.320	1.440
2020/01/31 23:33:36.3	174.990	-0.010	-0.310	1.430
2020/01/31 23:33:36.4	175.020	-0.010	-0.300	1.420
2020/01/31 23:33:36.5	175.040	-0.000	-0.290	1.410
2020/01/31 23:33:36.6	175.070	-0.000	-0.270	1.400
2020/01/31 23:33:36.7	175.100	-0.000	-0.250	1.390
2020/01/31 23:33:36.8	175.120	-0.010	-0.220	1.370
2020/01/31 23:33:36.9	175.150	-0.010	-0.200	1.360
2020/01/31 23:33:37.0	175.170	-0.010	-0.160	1.350
2020/01/31 23:33:37.1	175.200	-0.020	-0.130	1.330
2020/01/31 23:33:37.2	175.220	-0.030	-0.100	1.320
2020/01/31 23:33:37.3	175.240	-0.040	-0.070	1.310
2020/01/31 23:33:37.4	175.260	-0.050	-0.030	1.290
2020/01/31 23:33:37.5	175.280	-0.060	-0.000	1.280
2020/01/31 23:33:37.6	175.290	-0.070	0.030	1.260
2020/01/31 23:33:37.7	175.300	-0.080	0.060	1.250
2020/01/31 23:33:37.8	175.310	-0.090	0.080	1.240
2020/01/31 23:33:37.9	175.320	-0.100	0.100	1.230
2020/01/31 23:33:38.0	175.330	-0.110	0.110	1.220
2020/01/31 23:33:38.1	175.320	-0.110	0.130	1.210
2020/01/31 23:33:38.2	175.320	-0.120	0.130	1.200
2020/01/31 23:33:38.3	175.320	-0.120	0.130	1.190
2020/01/31 23:33:38.4	175.320	-0.130	0.130	1.180
2020/01/31 23:33:38.5	175.310	-0.130	0.120	1.180
2020/01/31 23:33:38.6	175.300	-0.130	0.100	1.170
2020/01/31 23:33:38.7	175.290	-0.120	0.080	1.170
2020/01/31 23:33:38.8	175.280	-0.120	0.050	1.170
2020/01/31 23:33:38.9	175.260	-0.110	0.020	1.170
2020/01/31 23:33:39.0	175.250	-0.100	-0.020	1.180
2020/01/31 23:33:39.1	175.230	-0.090	-0.070	1.180
2020/01/31 23:33:39.2	175.210	-0.080	-0.110	1.190
2020/01/31 23:33:39.3	175.200	-0.060	-0.160	1.200
2020/01/31 23:33:39.4	175.180	-0.040	-0.220	1.210
2020/01/31 23:33:39.5	175.170	-0.020	-0.270	1.220
2020/01/31 23:33:39.6	175.150	0.000	-0.330	1.240
2020/01/31 23:33:39.7	175.130	0.020	-0.380	1.250
2020/01/31 23:33:39.8	175.120	0.050	-0.440	1.270
2020/01/31 23:33:39.9	175.100	0.080	-0.500	1.290
2020/01/31 23:33:40.0	175.080	0.100	-0.550	1.320
2020/01/31 23:33:40.1	175.050	0.130	-0.600	1.340
2020/01/31 23:33:40.2	175.030	0.160	-0.650	1.370
2020/01/31 23:33:40.3	175.020	0.190	-0.700	1.400
2020/01/31 23:33:40.4	175.000	0.220	-0.740	1.430
2020/01/31 23:33:40.5	174.980	0.240	-0.780	1.460
2020/01/31 23:33:40.6	174.960	0.270	-0.810	1.500
2020/01/31 23:33:40.7	174.940	0.300	-0.840	1.530
2020/01/31 23:33:40.8	174.930	0.320	-0.860	1.560
2020/01/31 23:33:40.9	174.910	0.350	-0.880	1.590
2020/01/31 23:33:41.0	174.890	0.370	-0.880	1.620
2020/01/31 23:33:41.1	174.880	0.390	-0.880	1.660
2020/01/31 23:33:41.2	174.870	0.400	-0.870	1.690
2020/01/31 23:33:41.3	174.850	0.420	-0.860	1.710
2020/01/31 23:33:41.4	174.840	0.430	-0.830	1.730
2020/01/31 23:33:41.5	174.840	0.440	-0.800	1.740
2020/01/31 23:33:41.6	174.830	0.440	-0.760	1.760
2020/01/31 23:33:41.7	174.830	0.440	-0.710	1.760
2020/01/31 23:33:41.8	174.830	0.440	-0.650	1.770
2020/01/31 23:33:41.9	174.830	0.430	-0.590	1.770
2020/01/31 23:33:42.0	174.840	0.420	-0.520	1.760
2020/01/31 23:33:42.1	174.850	0.410	-0.450	1.750
2020/01/31 23:33:42.2	174.870	0.390	-0.370	1.740
2020/01/31 23:33:42.3	174.880	0.370	-0.280	1.720
2020/01/31 23:33:42.4	174.900	0.350	-0.190	1.700
2020/01/31 23:33:42.5	174.930	0.320	-0.100	1.680
2020/01/31 23:33:42.6	174.950	0.280	-0.000	1.650
2020/01/31 23:33:42.7	174.980	0.250	0.090	1.620
2020/01/31 23:33:42.8	175.010	0.210	0.190	1.590
2020/01/31 23:33:42.9	175.040	0.170	0.280	1.560
2020/01/31 23:33:43.0	175.070	0.120	0.380	1.530
2020/01/31 23:33:43.1	175.120	0.080	0.470	1.500
2020/01/31 23:33:43.2	175.150	0.030	0.560	1.470
2020/01/31 23:33:43.3	175.190	-0.020	0.640	1.450
2020/01/31 23:33:43.4	175.220	-0.070	0.710	1.420
2020/01/31 23:33:43.5	175.260	-0.120	0.780	1.390
2020/01/31 23:33:43.6	175.300	-0.170	0.840	1.370
2020/01/31 23:33:43.7	175.330	-0.220	0.890	1.350
2020/01/31 23:33:43.8	175.370	-0.260	0.930	1.340
2020/01/31 23:33:43.9	175.400	-0.310	0.960	1.320
2020/01/31 23:33:44.0	175.440	-0.350	0.980	1.310
2020/01/31 23:33:44.1	175.470	-0.400	0.990	1.300
2020/01/31 23:33:44.2	175.500	-0.430	0.990	1.300
2020/01/31 23:33:44.3	175.530	-0.470	0.980	1.290
2020/01/31 23:33:44.4	175.560	-0.500	0.960	1.290
2020/01/31 23:33:44.5	175.590	-0.520	0.920	1.290
2020/01/31 23:33:44.6	175.610	-0.550	0.880	1.300
2020/01/31 23:33:44.7	175.640	-0.560	0.820	1.300
2020/01/31 23:33:44.8	175.660	-0.570	0.760	1.310
2020/01/31 23:33:44.9	175.670	-0.570	0.680	1.320
2020/01/31 23:33:45.0	175.690	-0.570	0.600	1.320
2020/01/31 23:33:45.1	175.700	-0.560	0.510	1.340
2020/01/31 23:33:45.2	175.710	-0.550	0.410	1.350
2020/01/31 23:33:45.3	175.720	-0.530	0.300	1.360
2020/01/31 23:33:45.4	175.720	-0.500	0.180	1.380
2020/01/31 23:33:45.5	175.720	-0.470	0.060	1.400
2020/01/31 23:33:45.6	175.720	-0.430	-0.060	1.420
2020/01/31 23:33:45.7	175.720	-0.390	-0.190	1.440
2020/01/31 23:33:45.8	175.710	-0.340	-0.320	1.460
2020/01/31 23:33:45.9	175.690	-0.290	-0.450	1.480
2020/01/31 23:33:46.0	175.680	-0.230	-0.580	1.500
2020/01/31 23:33:46.1	175.670	-0.170	-0.710	1.530
2020/01/31 23:33:46.2	175.650	-0.110	-0.840	1.560
2020/01/31 23:33:46.3	175.620	-0.040	-0.960	1.580
2020/01/31 23:33:46.4	175.590	0.030	-1.080	1.610
2020/01/31 23:33:46.5	175.550	0.090	-1.200	1.640
2020/01/31 23:33:46.6	175.520	0.160	-1.300	1.670
2020/01/31 23:33:46.7	175.480	0.230	-1.400	1.700
2020/01/31 23:33:46.8	175.430	0.300	-1.490	1.720
2020/01/31 23:33:46.9	175.390	0.370	-1.570	1.750
2020/01/31 23:33:47.0	175.350	0.430	-1.640	1.780
2020/01/31 23:33:47.1	175.300	0.490	-1.700	1.810
2020/01/31 23:33:47.2	175.260	0.550	-1.750	1.840
2020/01/31 23:33:47.3	175.210	0.600	-1.790	1.860
2020/01/31 23:33:47.4	175.160	0.650	-1.810	1.880
2020/01/31 23:33:47.5	175.110	0.690	-1.830	1.910
2020/01/31 23:33:47.6	175.070	0.730	-1.830	1.920
2020/01/31 23:33:47.7	175.020	0.770	-1.820	1.940
2020/01/31 23:33:47.8	174.970	0.790	-1.790	1.950
2020/01/31 23:33:47.9	174.930	0.810	-1.760	1.970
2020/01/31 23:33:48.0	174.890	0.820	-1.710	1.970
2020/01/31 23:33:48.1	174.860	0.830	-1.650	1.970
2020/01/31 23:33:48.2	174.820	0.830	-1.590	1.970
2020/01/31 23:33:48.3	174.790	0.820	-1.510	1.970
2020/01/31 23:33:48.4	174.760	0.810	-1.420	1.960
2020/01/31 23:33:48.5	174.730	0.790	-1.330	1.940
2020/01/31 23:33:48.6	174.710	0.760	-1.230	1.920
2020/01/31 23:33:48.7	174.700	0.730	-1.120	1.890
2020/01/31 23:33:48.8	174.680	0.690	-1.010	1.860
2020/01/31 23:33:48.9	174.680	0.640	-0.890	1.830
2020/01/31 23:33:49.0	174.670	0.590	-0.760	1.790
2020/01/31 23:33:49.1	174.670	0.540	-0.640	1.750
2020/01/31 23:33:49.2	174.680	0.480	-0.510	1.700
2020/01/31 23:33:49.3	174.690	0.410	-0.380	1.650
2020/01/31 23:33:49.4	174.700	0.340	-0.250	1.600
2020/01/31 23:33:49.5	174.720	0.270	-0.120	1.540
2020/01/31 23:33:49.6	174.740	0.200	0.010	1.490
2020/01/31 23:33:49.7	174.760	0.130	0.130	1.430
2020/01/31 23:33:49.8	174.790	0.050	0.250	1.370
2020/01/31 23:33:49.9	174.820	-0.030	0.360	1.310
2020/01/31 23:33:50.0	174.850	-0.100	0.470	1.250
2020/01/31 23:33:50.1	174.900	-0.180	0.580	1.190
2020/01/31 23:33:50.2	174.930	-0.250	0.680	1.130
2020/01/31 23:33:50.3	174.970	-0.330	0.760	1.080
2020/01/31 23:33:50.4	175.010	-0.400	0.840	1.020
2020/01/31 23:33:50.5	175.050	-0.470	0.910	0.970
2020/01/31 23:33:50.6	175.100	-0.530	0.960	0.920
2020/01/31 23:33:50.7	175.140	-0.590	1.010	0.880
2020/01/31 23:33:50.8	175.190	-0.650	1.040	0.840
2020/01/31 23:33:50.9	175.230	-0.700	1.060	0.800
2020/01/31 23:33:51.0	175.280	-0.750	1.070	0.760
2020/01/31 23:33:51.1	175.300	-0.790	1.070	0.730
2020/01/31 23:33:51.2	175.350	-0.830	1.050	0.700
2020/01/31 23:33:51.3	175.390	-0.860	1.030	0.680
2020/01/31 23:33:51.4	175.430	-0.880	0.990	0.660
2020/01/31 23:33:51.5	175.470	-0.900	0.940	0.640
2020/01/31 23:33:51.6	175.510	-0.920	0.880	0.630
2020/01/31 23:33:51.7	175.550	-0.930	0.810	0.630
2020/01/31 23:33:51.8	175.590	-0.930	0.730	0.630
2020/01/31 23:33:51.9	175.620	-0.930	0.640	0.630
2020/01/31 23:33:52.0	175.650	-0.920	0.550	0.640
2020/01/31 23:33:52.1	175.660	-0.900	0.450	0.650
2020/01/31 23:33:52.2	175.680	-0.880	0.340	0.670
2020/01/31 23:33:52.3	175.700	-0.860	0.220	0.690
2020/01/31 23:33:52.4	175.710	-0.830	0.100	0.720
2020/01/31 23:33:52.5	175.720	-0.800	-0.020	0.750
2020/01/31 23:33:52.6	175.730	-0.760	-0.150	0.790
2020/01/31 23:33:52.7	175.730	-0.720	-0.270	0.830
2020/01/31 23:33:52.8	175.730	-0.670	-0.400	0.880
2020/01/31 23:33:52.9	175.730	-0.620	-0.520	0.920
2020/01/31 23:33:53.0	175.720	-0.570	-0.640	0.970
2020/01/31 23:33:53.1	175.710	-0.510	-0.750	1.030
2020/01/31 23:33:53.2	175.700	-0.450	-0.870	1.080
2020/01/31 23:33:53.3	175.690	-0.400	-0.970	1.130
2020/01/31 23:33:53.4	175.670	-0.340	-1.070	1.190
2020/01/31 23:33:53.5	175.650	-0.280	-1.160	1.240
2020/01/31 23:33:53.6	175.640	-0.210	-1.240	1.290
2020/01/31 23:33:53.7	175.620	-0.150	-1.310	1.330
2020/01/31 23:33:53.8	175.600	-0.090	-1.360	1.380
2020/01/31 23:33:53.9	175.590	-0.040	-1.410	1.420
2020/01/31 23:33:54.0	175.570	0.020	-1.450	1.450
2020/01/31 23:33:54.1	175.570	0.070	-1.470	1.490
2020/01/31 23:33:54.2	175.560	0.120	-1.480	1.510
2020/01/31 23:33:54.3	175.550	0.170	-1.480	1.540
2020/01/31 23:33:54.4	175.540	0.220	-1.460	1.550
2020/01/31 23:33:54.5	175.530	0.260	-1.430	1.570
2020/01/31 23:33:54.6	175.520	0.290	-1.390	1.580
2020/01/31 23:33:54.7	175.520	0.320	-1.330	1.580
2020/01/31 23:33:54.8	175.520	0.350	-1.270	1.580
2020/01/31 23:33:54.9	175.520	0.370	-1.200	1.580
2020/01/31 23:33:55.0	175.520	0.390	-1.110	1.580
2020/01/31 23:33:55.1	175.520	0.400	-1.020	1.570
2020/01/31 23:33:55.2	175.530	0.410	-0.920	1.560
2020/01/31 23:33:55.3	175.530	0.410	-0.820	1.550
2020/01/31 23:33:55.4	175.530	0.410	-0.710	1.540
2020/01/31 23:33:55.5	175.530	0.400	-0.590	1.530
2020/01/31 23:33:55.6	175.540	0.390	-0.480	1.520
2020/01/31 23:33:55.7	175.540	0.380	-0.360	1.510
2020/01/31 23:33:55.8	175.540	0.360	-0.240	1.500
2020/01/31 23:33:55.9	175.540	0.340	-0.120	1.490
2020/01/31 23:33:56.0	175.540	0.320	-0.010	1.470
2020/01/31 23:33:56.1	175.520	0.290	0.110	1.460
2020/01/31 23:33:56.2	175.520	0.270	0.220	1.450
2020/01/31 23:33:56.3	175.520	0.240	0.320	1.440
2020/01/31 23:33:56.4	175.520	0.210	0.420	1.430
2020/01/31 23:33:56.5	175.520	0.180	0.520	1.420
2020/01/31 23:33:56.6	175.510	0.150	0.600	1.410
2020/01/31 23:33:56.7	175.510	0.120	0.680	1.390
2020/01/31 23:33:56.8	175.510	0.090	0.760	1.380
2020/01/31 23:33:56.9	175.500	0.070	0.820	1.360
2020/01/31 23:33:57.0	175.500	0.040	0.880	1.340
2020/01/31 23:33:57.1	175.480	0.020	0.920	1.320
2020/01/31 23:33:57.2	175.470	-0.000	0.960	1.300
2020/01/31 23:33:57.3	175.470	-0.020	0.990	1.280
2020/01/31 23:33:57.4	175.460	-0.040	1.010	1.260
2020/01/31 23:33:57.5	175.460	-0.060	1.030	1.240
2020/01/31 23:33:57.6	175.450	-0.070	1.030	1.220
2020/01/31 23:33:57.7	175.440	-0.080	1.020	1.190
2020/01/31 23:33:57.8	175.440	-0.090	1.010	1.170
2020/01/31 23:33:57.9	175.430	-0.100	0.990	1.150
2020/01/31 23:33:58.0	175.430	-0.100	0.960	1.130
2020/01/31 23:33:58.1	175.410	-0.110	0.930	1.110
2020/01/31 23:33:58.2	175.410	-0.110	0.880	1.090
2020/01/31 23:33:58.3	175.410	-0.110	0.840	1.070
2020/01/31 23:33:58.4	175.400	-0.110	0.780	1.060
2020/01/31 23:33:58.5	175.400	-0.100	0.720	1.040
2020/01/31 23:33:58.6	175.400	-0.100	0.660	1.030
2020/01/31 23:33:58.7	175.400	-0.090	0.590	1.030
2020/01/31 23:33:58.8	175.390	-0.080	0.520	1.030
2020/01/31 23:33:58.9	175.390	-0.070	0.450	1.030
2020/01/31 23:33:59.0	175.390	-0.060	0.370	1.030
2020/01/31 23:33:59.1	175.380	-0.050	0.290	1.040
2020/01/31 23:33:59.2	175.370	-0.040	0.210	1.050
2020/01/31 23:33:59.3	175.370	-0.030	0.130	1.070
2020/01/31 23:33:59.4	175.370	-0.020	0.050	1.090
2020/01/31 23:33:59.5	175.360	-0.000	-0.040	1.110
2020/01/31 23:33:59.6	175.360	0.010	-0.120	1.130
2020/01/31 23:33:59.7	175.350	0.020	-0.200	1.160
2020/01/31 23:33:59.8	175.350	0.040	-0.270	1.190
2020/01/31 23:33:59.9	175.340	0.050	-0.350	1.220
2020/01/31 23:34:00.0	175.330	0.070	-0.420	1.250
2020/01/31 23:34:00.1	175.320	0.080	-0.490	1.290
2020/01/31 23:34:00.2	175.320	0.100	-0.550	1.320
2020/01/31 23:34:00.3	175.310	0.110	-0.610	1.350
2020/01/31 23:34:00.4	175.300	0.130	-0.670	1.380
2020/01/31 23:34:00.5	175.300	0.140	-0.720	1.410
2020/01/31 23:34:00.6	175.300	0.160	-0.760	1.430
2020/01/31 23:34:00.7	175.290	0.170	-0.800	1.450
2020/01/31 23:34:00.8	175.290	0.190	-0.830	1.460
2020/01/31 23:34:00.9	175.300	0.200	-0.860	1.470
2020/01/31 23:34:01.0	175.300	0.220	-0.880	1.480
2020/01/31 23:34:01.1	175.310	0.230	-0.890	1.490
2020/01/31 23:34:01.2	175.320	0.240	-0.900	1.490
2020/01/31 23:34:01.3	175.330	0.250	-0.900	1.480
2020/01/31 23:34:01.4	175.340	0.260	-0.890	1.480
2020/01/31 23:34:01.5	175.360	0.270	-0.880	1.470
2020/01/31 23:34:01.6	175.380	0.280	-0.870	1.460
2020/01/31 23:34:01.7	175.390	0.280	-0.850	1.450
2020/01/31 23:34:01.8	175.410	0.290	-0.830	1.440
2020/01/31 23:34:01.9	175.430	0.290	-0.800	1.430
2020/01/31 23:34:02.0	175.450	0.300	-0.780	1.420
2020/01/31 23:34:02.1	175.480	0.300	-0.740	1.410
2020/01/31 23:34:02.2	175.500	0.300	-0.710	1.400
2020/01/31 23:34:02.3	175.520	0.300	-0.680	1.390
2020/01/31 23:34:02.4	175.530	0.300	-0.650	1.380
2020/01/31 23:34:02.5	175.540	0.300	-0.620	1.370
2020/01/31 23:34:02.6	175.550	0.290	-0.590	1.370
2020/01/31 23:34:02.7	175.560	0.290	-0.570	1.360
2020/01/31 23:34:02.8	175.560	0.290	-0.550	1.360
2020/01/31 23:34:02.9	175.560	0.280	-0.530	1.360
2020/01/31 23:34:03.0	175.560	0.280	-0.510	1.350
2020/01/31 23:34:03.1	175.550	0.270	-0.500	1.350
2020/01/31 23:34:03.2	175.540	0.270	-0.490	1.350
2020/01/31 23:34:03.3	175.530	0.260	-0.480	1.350
2020/01/31 23:34:03.4	175.520	0.260	-0.470	1.350
2020/01/31 23:34:03.5	175.510	0.250	-0.470	1.350
2020/01/31 23:34:03.6	175.490	0.250	-0.480	1.350
2020/01/31 23:34:03.7	175.480	0.240	-0.480	1.350
2020/01/31 23:34:03.8	175.460	0.230	-0.490	1.350
2020/01/31 23:34:03.9	175.440	0.230	-0.510	1.350
2020/01/31 23:34:04.0	175.420	0.220	-0.520	1.340
2020/01/31 23:34:04.1	175.390	0.210	-0.530	1.340
2020/01/31 23:34:04.2	175.370	0.210	-0.550	1.340
2020/01/31 23:34:04.3	175.360	0.200	-0.560	1.330
2020/01/31 23:34:04.4	175.340	0.190	-0.580	1.330
2020/01/31 23:34:04.5	175.320	0.180	-0.600	1.330
2020/01/31 23:34:04.6	175.310	0.170	-0.620	1.330
2020/01/31 23:34:04.7	175.300	0.160	-0.630	1.320
2020/01/31 23:34:04.8	175.280	0.150	-0.650	1.320
2020/01/31 23:34:04.9	175.270	0.140	-0.660	1.320
2020/01/31 23:34:05.0	175.260	0.130	-0.670	1.320
2020/01/31 23:34:05.1	175.260	0.110	-0.680	1.320
2020/01/31 23:34:05.2	175.250	0.100	-0.680	1.320
2020/01/31 23:34:05.3	175.250	0.080	-0.680	1.320
2020/01/31 23:34:05.4	175.240	0.070	-0.680	1.330
2020/01/31 23:34:05.5	175.240	0.050	-0.670	1.330
2020/01/31 23:34:05.6	175.240	0.030	-0.650	1.330
2020/01/31 23:34:05.7	175.240	0.010	-0.640	1.330
2020/01/31 23:34:05.8	175.240	-0.010	-0.620	1.330
2020/01/31 23:34:05.9	175.250	-0.040	-0.590	1.330
2020/01/31 23:34:06.0	175.250	-0.060	-0.560	1.330
2020/01/31 23:34:06.1	175.280	-0.080	-0.530	1.340
2020/01/31 23:34:06.2	175.290	-0.110	-0.500	1.340
2020/01/31 23:34:06.3	175.300	-0.140	-0.460	1.340
2020/01/31 23:34:06.4	175.310	-0.160	-0.420	1.330
2020/01/31 23:34:06.5	175.320	-0.190	-0.380	1.330
2020/01/31 23:34:06.6	175.330	-0.220	-0.340	1.330
2020/01/31 23:34:06.7	175.350	-0.250	-0.300	1.320
2020/01/31 23:34:06.8	175.360	-0.280	-0.260	1.320
2020/01/31 23:34:06.9	175.370	-0.300	-0.230	1.320
2020/01/31 23:34:07.0	175.380	-0.330	-0.190	1.310
2020/01/31 23:34:07.1	175.400	-0.360	-0.160	1.310
2020/01/31 23:34:07.2	175.410	-0.380	-0.130	1.310
2020/01/31 23:34:07.3	175.420	-0.410	-0.100	1.310
2020/01/31 23:34:07.4	175.420	-0.430	-0.070	1.300
2020/01/31 23:34:07.5	175.430	-0.450	-0.050	1.300
2020/01/31 23:34:07.6	175.430	-0.460	-0.030	1.300
2020/01/31 23:34:07.7	175.440	-0.480	-0.010	1.300
2020/01/31 23:34:07.8	175.440	-0.490	-0.000	1.300
2020/01/31 23:34:07.9	175.440	-0.500	0.000	1.300
2020/01/31 23:34:08.0	175.430	-0.510	0.010	1.300
2020/01/31 23:34:08.1	175.440	-0.510	0.010	1.300
2020/01/31 23:34:08.2	175.430	-0.510	0.010	1.300
2020/01/31 23:34:08.3	175.430	-0.510	0.000	1.310
2020/01/31 23:34:08.4	175.420	-0.500	-0.010	1.320
2020/01/31 23:34:08.5	175.410	-0.490	-0.020	1.330
2020/01/31 23:34:08.6	175.400	-0.480	-0.030	1.340
2020/01/31 23:34:08.7	175.390	-0.470	-0.040	1.360
2020/01/31 23:34:08.8	175.370	-0.450	-0.060	1.370
2020/01/31 23:34:08.9	175.360	-0.430	-0.080	1.390
2020/01/31 23:34:09.0	175.350	-0.400	-0.090	1.410
2020/01/31 23:34:09.1	175.340	-0.380	-0.110	1.420
2020/01/31 23:34:09.2	175.320	-0.350	-0.120	1.440
2020/01/31 23:34:09.3	175.300	-0.320	-0.140	1.460
2020/01/31 23:34:09.4	175.290	-0.290	-0.150	1.480
2020/01/31 23:34:09.5	175.270	-0.250	-0.160	1.490
2020/01/31 23:34:09.6	175.260	-0.220	-0.170	1.510
2020/01/31 23:34:09.7	175.240	-0.190	-0.180	1.520
2020/01/31 23:34:09.8	175.230	-0.150	-0.180	1.530
2020/01/31 23:34:09.9	175.220	-0.120	-0.180	1.530
2020/01/31 23:34:10.0	175.210	-0.080	-0.180	1.540
2020/01/31 23:34:10.1	175.200	-0.050	-0.170	1.540
2020/01/31 23:34:10.2	175.190	-0.020	-0.160	1.540
2020/01/31 23:34:10.3	175.190	0.020	-0.150	1.540
2020/01/31 23:34:10.4	175.180	0.050	-0.140	1.530
2020/01/31 23:34:10.5	175.180	0.070	-0.130	1.520
2020/01/31 23:34:10.6	175.180	0.100	-0.110	1.500
2020/01/31 23:34:10.7	175.180	0.120	-0.090	1.490
2020/01/31 23:34:10.8	175.190	0.140	-0.080	1.470
2020/01/31 23:34:10.9	175.190	0.160	-0.060	1.450
2020/01/31 23:34:11.0	175.190	0.170	-0.040	1.430
2020/01/31 23:34:11.1	175.190	0.180	-0.020	1.410
2020/01/31 23:34:11.2	175.200	0.190	-0.000	1.390
2020/01/31 23:34:11.3	175.200	0.200	0.020	1.370
2020/01/31 23:34:11.4	175.210	0.200	0.030	1.360
2020/01/31 23:34:11.5	175.220	0.200	0.050	1.340
2020/01/31 23:34:11.6	175.220	0.200	0.060	1.320
2020/01/31 23:34:11.7	175.230	0.200	0.070	1.310
2020/01/31 23:34:11.8	175.230	0.200	0.080	1.300
2020/01/31 23:34:11.9	175.230	0.190	0.090	1.300
2020/01/31 23:34:12.0	175.240	0.180	0.090	1.290
2020/01/31 23:34:12.1	175.220	0.170	0.100	1.290
2020/01/31 23:34:12.2	175.220	0.160	0.090	1.290
2020/01/31 23:34:12.3	175.220	0.150	0.090	1.290
2020/01/31 23:34:12.4	175.220	0.140	0.090	1.300
2020/01/31 23:34:12.5	175.220	0.120	0.080	1.300
2020/01/31 23:34:12.6	175.220	0.110	0.070	1.310
2020/01/31 23:34:12.7	175.220	0.100	0.060	1.320
2020/01/31 23:34:12.8	175.220	0.080	0.050	1.320
2020/01/31 23:34:12.9	175.210	0.070	0.040	1.330
2020/01/31 23:34:13.0	175.210	0.060	0.030	1.340
2020/01/31 23:34:13.1	175.210	0.040	0.020	1.340
2020/01/31 23:34:13.2	175.210	0.030	0.010	1.340
2020/01/31 23:34:13.3	175.210	0.020	-0.000	1.350
2020/01/31 23:34:13.4	175.220	0.000	-0.010	1.350
2020/01/31 23:34:13.5	175.220	-0.010	-0.010	1.350
2020/01/31 23:34:13.6	175.230	-0.020	-0.020	1.340
2020/01/31 23:34:13.7	175.240	-0.030	-0.020	1.340
2020/01/31 23:34:13.8	175.260	-0.050	-0.020	1.340
2020/01/31 23:34:13.9	175.270	-0.060	-0.020	1.330
2020/01/31 23:34:14.0	175.290	-0.070	-0.010	1.330
2020/01/31 23:34:14.1	175.320	-0.080	-0.010	1.330
2020/01/31 23:34:14.2	175.340	-0.090	-0.000	1.320
2020/01/31 23:34:14.3	175.360	-0.110	0.010	1.320
2020/01/31 23:34:14.4	175.390	-0.120	0.010	1.320
2020/01/31 23:34:14.5	175.410	-0.130	0.020	1.320
2020/01/31 23:34:14.6	175.440	-0.140	0.030	1.330
2020/01/31 23:34:14.7	175.470	-0.150	0.040	1.330
2020/01/31 23:34:14.8	175.490	-0.160	0.050	1.340
2020/01/31 23:34:14.9	175.520	-0.170	0.060	1.350
2020/01/31 23:34:15.0	175.550	-0.180	0.060	1.370
2020/01/31 23:34:15.1	175.590	-0.190	0.060	1.380
2020/01/31 23:34:15.2	175.620	-0.200	0.070	1.400
2020/01/31 23:34:15.3	175.650	-0.200	0.070	1.410
2020/01/31 23:34:15.4	175.670	-0.210	0.060	1.430
2020/01/31 23:34:15.5	175.700	-0.210	0.060	1.450
2020/01/31 23:34:15.6	175.720	-0.210	0.050	1.460
2020/01/31 23:34:15.7	175.750	-0.210	0.040	1.480
2020/01/31 23:34:15.8	175.770	-0.210	0.020	1.490
2020/01/31 23:34:15.9	175.790	-0.200	0.000	1.500
2020/01/31 23:34:16.0	175.800	-0.200	-0.020	1.510
2020/01/31 23:34:16.1	175.810	-0.190	-0.050	1.520
2020/01/31 23:34:16.2	175.820	-0.180	-0.080	1.530
2020/01/31 23:34:16.3	175.830	-0.160	-0.110	1.530
2020/01/31 23:34:16.4	175.840	-0.140	-0.150	1.530
2020/01/31 23:34:16.5	175.840	-0.120	-0.200	1.530
2020/01/31 23:34:16.6	175.850	-0.100	-0.240	1.530
2020/01/31 23:34:16.7	175.840	-0.070	-0.290	1.530
2020/01/31 23:34:16.8	175.840	-0.040	-0.350	1.530
2020/01/31 23:34:16.9	175.830	-0.010	-0.410	1.530
2020/01/31 23:34:17.0	175.820	0.030	-0.470	1.520
2020/01/31 23:34:17.1	175.810	0.070	-0.530	1.520
2020/01/31 23:34:17.2	175.790	0.110	-0.590	1.520
2020/01/31 23:34:17.3	175.770	0.160	-0.660	1.510
2020/01/31 23:34:17.4	175.760	0.200	-0.720	1.510
2020/01/31 23:34:17.5	175.730	0.250	-0.790	1.500
2020/01/31 23:34:17.6	175.710	0.300	-0.850	1.500
2020/01/31 23:34:17.7	175.690	0.350	-0.910	1.500
2020/01/31 23:34:17.8	175.670	0.400	-0.970	1.500
2020/01/31 23:34:17.9	175.640	0.450	-1.020	1.500
2020/01/31 23:34:18.0	175.620	0.500	-1.070	1.500
2020/01/31 23:34:18.1	175.580	0.540	-1.110	1.490
2020/01/31 23:34:18.2	175.560	0.590	-1.150	1.490
2020/01/31 23:34:18.3	175.540	0.630	-1.180	1.490
2020/01/31 23:34:18.4	175.520	0.670	-1.200	1.490
2020/01/31 23:34:18.5	175.500	0.710	-1.210	1.490
2020/01/31 23:34:18.6	175.490	0.740	-1.210	1.490
2020/01/31 23:34:18.7	175.480	0.760	-1.210	1.490
2020/01/31 23:34:18.8	175.470	0.780	-1.190	1.480
2020/01/31 23:34:18.9	175.460	0.800	-1.170	1.480
2020/01/31 23:34:19.0	175.460	0.810	-1.140	1.470
2020/01/31 23:34:19.1	175.480	0.810	-1.090	1.470
2020/01/31 23:34:19.2	175.480	0.810	-1.040	1.460
2020/01/31 23:34:19.3	175.490	0.790	-0.980	1.450
2020/01/31 23:34:19.4	175.500	0.780	-0.920	1.430
2020/01/31 23:34:19.5	175.510	0.750	-0.850	1.420
2020/01/31 23:34:19.6	175.530	0.720	-0.770	1.400
2020/01/31 23:34:19.7	175.550	0.680	-0.680	1.380
2020/01/31 23:34:19.8	175.570	0.640	-0.590	1.360
2020/01/31 23:34:19.9	175.600	0.590	-0.500	1.340
2020/01/31 23:34:20.0	175.620	0.540	-0.410	1.310
2020/01/31 23:34:20.1	175.640	0.480	-0.320	1.280
2020/01/31 23:34:20.2	175.670	0.410	-0.220	1.260
2020/01/31 23:34:20.3	175.700	0.350	-0.130	1.230
2020/01/31 23:34:20.4	175.720	0.270	-0.040	1.210
2020/01/31 23:34:20.5	175.750	0.200	0.040	1.180
2020/01/31 23:34:20.6	175.780	0.130	0.130	1.160
2020/01/31 23:34:20.7	175.810	0.050	0.200	1.140
2020/01/31 23:34:20.8	175.840	-0.030	0.270	1.120
2020/01/31 23:34:20.9	175.860	-0.100	0.330	1.100
2020/01/31 23:34:21.0	175.890	-0.180	0.380	1.090
2020/01/31 23:34:21.1	175.910	-0.250	0.420	1.080
2020/01/31 23:34:21.2	175.930	-0.320	0.460	1.070
2020/01/31 23:34:21.3	175.950	-0.380	0.480	1.070
2020/01/31 23:34:21.4	175.960	-0.450	0.490	1.070
2020/01/31 23:34:21.5	175.980	-0.500	0.490	1.070
2020/01/31 23:34:21.6	175.980	-0.550	0.480	1.080
2020/01/31 23:34:21.7	175.990	-0.600	0.460	1.090
2020/01/31 23:34:21.8	175.990	-0.640	0.430	1.100
2020/01/31 23:34:21.9	175.990	-0.670	0.390	1.110
2020/01/31 23:34:22.0	175.990	-0.690	0.340	1.130
2020/01/31 23:34:22.1	175.990	-0.710	0.280	1.160
2020/01/31 23:34:22.2	175.980	-0.720	0.220	1.180
2020/01/31 23:34:22.3	175.970	-0.720	0.140	1.210
2020/01/31 23:34:22.4	175.950	-0.720	0.060	1.240
2020/01/31 23:34:22.5	175.940	-0.710	-0.020	1.270
2020/01/31 23:34:22.6	175.920	-0.690	-0.100	1.300
2020/01/31 23:34:22.7	175.900	-0.660	-0.190	1.340
2020/01/31 23:34:22.8	175.880	-0.630	-0.280	1.370
2020/01/31 23:34:22.9	175.860	-0.590	-0.370	1.400
2020/01/31 23:34:23.0	175.840	-0.550	-0.450	1.440
2020/01/31 23:34:23.1	175.820	-0.510	-0.540	1.470
2020/01/31 23:34:23.2	175.790	-0.460	-0.620	1.500
2020/01/31 23:34:23.3	175.770	-0.410	-0.690	1.530
2020/01/31 23:34:23.4	175.750	-0.350	-0.760	1.560
2020/01/31 23:34:23.5	175.730	-0.300	-0.820	1.580
2020/01/31 23:34:23.6	175.720	-0.250	-0.870	1.600
2020/01/31 23:34:23.7	175.700	-0.190	-0.910	1.620
2020/01/31 23:34:23.8	175.690	-0.140	-0.950	1.640
2020/01/31 23:34:23.9	175.670	-0.090	-0.980	1.650
2020/01/31 23:34:24.0	175.660	-0.040	-0.990	1.660
2020/01/31 23:34:24.1	175.640	0.010	-1.000	1.660
2020/01/31 23:34:24.2	175.630	0.050	-1.000	1.660
2020/01/31 23:34:24.3	175.630	0.090	-0.990	1.660
2020/01/31 23:34:24.4	175.630	0.130	-0.970	1.660
2020/01/31 23:34:24.5	175.630	0.160	-0.940	1.650
2020/01/31 23:34:24.6	175.630	0.180	-0.900	1.640
2020/01/31 23:34:24.7	175.640	0.210	-0.850	1.630
2020/01/31 23:34:24.8	175.650	0.220	-0.800	1.610
2020/01/31 23:34:24.9	175.660	0.230	-0.740	1.600
2020/01/31 23:34:25.0	175.680	0.240	-0.670	1.580
2020/01/31 23:34:25.1	175.700	0.240	-0.600	1.560
2020/01/31 23:34:25.2	175.720	0.230	-0.520	1.540
2020/01/31 23:34:25.3	175.740	0.230	-0.440	1.520
2020/01/31 23:34:25.4	175.760	0.210	-0.350	1.500
2020/01/31 23:34:25.5	175.780	0.200	-0.260	1.480
2020/01/31 23:34:25.6	175.800	0.180	-0.180	1.460
2020/01/31 23:34:25.7	175.820	0.150	-0.090	1.440
2020/01/31 23:34:25.8	175.850	0.130	0.000	1.420
2020/01/31 23:34:25.9	175.870	0.100	0.090	1.400
2020/01/31 23:34:26.0	175.890	0.070	0.180	1.390
2020/01/31 23:34:26.1	175.900	0.040	0.250	1.370
2020/01/31 23:34:26.2	175.920	0.000	0.330	1.350
2020/01/31 23:34:26.3	175.940	-0.030	0.400	1.330
2020/01/31 23:34:26.4	175.960	-0.060	0.470	1.320
2020/01/31 23:34:26.5	175.970	-0.090	0.530	1.300
2020/01/31 23:34:26.6	175.990	-0.120	0.580	1.290
2020/01/31 23:34:26.7	176.000	-0.150	0.630	1.280
2020/01/31 23:34:26.8	176.010	-0.170	0.670	1.260
2020/01/31 23:34:26.9	176.020	-0.200	0.700	1.250
2020/01/31 23:34:27.0	176.030	-0.220	0.720	1.230
2020/01/31 23:34:27.1	176.030	-0.240	0.740	1.210
2020/01/31 23:34:27.2	176.040	-0.250	0.750	1.200
2020/01/31 23:34:27.3	176.050	-0.260	0.740	1.180
2020/01/31 23:34:27.4	176.060	-0.270	0.740	1.170
2020/01/31 23:34:27.5	176.060	-0.280	0.720	1.150
2020/01/31 23:34:27.6	176.070	-0.280	0.700	1.140
2020/01/31 23:34:27.7	176.070	-0.280	0.670	1.120
2020/01/31 23:34:27.8	176.080	-0.280	0.630	1.110
2020/01/31 23:34:27.9	176.080	-0.270	0.590	1.100
2020/01/31 23:34:28.0	176.090	-0.260	0.550	1.080
2020/01/31 23:34:28.1	176.110	-0.250	0.500	1.080
2020/01/31 23:34:28.2	176.110	-0.240	0.450	1.070
2020/01/31 23:34:28.3	176.120	-0.220	0.390	1.060
2020/01/31 23:34:28.4	176.120	-0.200	0.330	1.050
2020/01/31 23:34:28.5	176.130	-0.180	0.270	1.050
2020/01/31 23:34:28.6	176.130	-0.160	0.210	1.040
2020/01/31 23:34:28.7	176.140	-0.140	0.150	1.040
2020/01/31 23:34:28.8	176.140	-0.120	0.090	1.040
2020/01/31 23:34:28.9	176.150	-0.090	0.030	1.050
2020/01/31 23:34:29.0	176.150	-0.070	-0.030	1.050
2020/01/31 23:34:29.1	176.160	-0.050	-0.090	1.060
2020/01/31 23:34:29.2	176.160	-0.020	-0.140	1.070
2020/01/31 23:34:29.3	176.170	0.000	-0.200	1.080
2020/01/31 23:34:29.4	176.170	0.020	-0.250	1.090
2020/01/31 23:34:29.5	176.170	0.050	-0.290	1.110
2020/01/31 23:34:29.6	176.180	0.070	-0.340	1.120
2020/01/31 23:34:29.7	176.180	0.090	-0.380	1.140
2020/01/31 23:34:29.8	176.180	0.100	-0.410	1.150
2020/01/31 23:34:29.9	176.180	0.120	-0.450	1.170
2020/01/31 23:34:30.0	176.180	0.140	-0.480	1.190
2020/01/31 23:34:30.1	176.170	0.150	-0.500	1.210
2020/01/31 23:34:30.2	176.170	0.160	-0.530	1.220
2020/01/31 23:34:30.3	176.170	0.170	-0.550	1.240
2020/01/31 23:34:30.4	176.170	0.180	-0.570	1.260
2020/01/31 23:34:30.5	176.160	0.190	-0.580	1.270
2020/01/31 23:34:30.6	176.160	0.200	-0.600	1.280
2020/01/31 23:34:30.7	176.150	0.200	-0.610	1.290
2020/01/31 23:34:30.8	176.150	0.210	-0.620	1.300
2020/01/31 23:34:30.9	176.140	0.210	-0.630	1.310
2020/01/31 23:34:31.0	176.140	0.210	-0.640	1.320
2020/01/31 23:34:31.1	176.130	0.210	-0.640	1.330
2020/01/31 23:34:31.2	176.130	0.210	-0.650	1.340
2020/01/31 23:34:31.3	176.120	0.210	-0.660	1.340
2020/01/31 23:34:31.4	176.110	0.210	-0.660	1.350
2020/01/31 23:34:31.5	176.110	0.200	-0.660	1.350
2020/01/31 23:34:31.6	176.100	0.200	-0.670	1.350
2020/01/31 23:34:31.7	176.090	0.200	-0.670	1.360
2020/01/31 23:34:31.8	176.090	0.190	-0.680	1.360
2020/01/31 23:34:31.9	176.080	0.190	-0.680	1.360
2020/01/31 23:34:32.0	176.080	0.180	-0.680	1.360
2020/01/31 23:34:32.1	176.070	0.180	-0.680	1.370
2020/01/31 23:34:32.2	176.060	0.170	-0.690	1.370
2020/01/31 23:34:32.3	176.060	0.170	-0.690	1.370
2020/01/31 23:34:32.4	176.060	0.160	-0.680	1.380
2020/01/31 23:34:32.5	176.060	0.150	-0.680	1.380
2020/01/31 23:34:32.6	176.060	0.150	-0.680	1.380
2020/01/31 23:34:32.7	176.060	0.140	-0.670	1.390
2020/01/31 23:34:32.8	176.070	0.130	-0.660	1.390
2020/01/31 23:34:32.9	176.080	0.130	-0.650	1.400
2020/01/31 23:34:33.0	176.080	0.120	-0.630	1.400
2020/01/31 23:34:33.1	176.120	0.110	-0.610	1.410
2020/01/31 23:34:33.2	176.130	0.100	-0.600	1.410
2020/01/31 23:34:33.3	176.140	0.090	-0.580	1.420
2020/01/31 23:34:33.4	176.150	0.080	-0.560	1.420
2020/01/31 23:34:33.5	176.170	0.070	-0.530	1.420
2020/01/31 23:34:33.6	176.180	0.060	-0.510	1.430
2020/01/31 23:34:33.7	176.200	0.050	-0.480	1.430
2020/01/31 23:34:33.8	176.220	0.040	-0.460	1.430
2020/01/31 23:34:33.9	176.230	0.030	-0.430	1.440
2020/01/31 23:34:34.0	176.250	0.020	-0.410	1.440
2020/01/31 23:34:34.1	176.250	0.010	-0.390	1.440
2020/01/31 23:34:34.2	176.260	-0.000	-0.370	1.440
2020/01/31 23:34:34.3	176.280	-0.010	-0.350	1.450
2020/01/31 23:34:34.4	176.290	-0.020	-0.330	1.450
2020/01/31 23:34:34.5	176.300	-0.030	-0.320	1.460
2020/01/31 23:34:34.6	176.300	-0.030	-0.310	1.460
2020/01/31 23:34:34.7	176.300	-0.030	-0.300	1.470
2020/01/31 23:34:34.8	176.310	-0.040	-0.300	1.480
2020/01/31 23:34:34.9	176.300	-0.040	-0.300	1.490
2020/01/31 23:34:35.0	176.300	-0.040	-0.310	1.510
2020/01/31 23:34:35.1	176.290	-0.030	-0.320	1.520
2020/01/31 23:34:35.2	176.280	-0.030	-0.340	1.530
2020/01/31 23:34:35.3	176.270	-0.020	-0.360	1.550
2020/01/31 23:34:35.4	176.250	-0.020	-0.390	1.570
2020/01/31 23:34:35.5	176.240	-0.010	-0.420	1.590
2020/01/31 23:34:35.6	176.220	0.000	-0.450	1.610
2020/01/31 23:34:35.7	176.190	0.020	-0.480	1.630
2020/01/31 23:34:35.8	176.170	0.030	-0.520	1.650
2020/01/31 23:34:35.9	176.140	0.040	-0.550	1.680
2020/01/31 23:34:36.0	176.110	0.050	-0.590	1.700
2020/01/31 23:34:36.1	176.100	0.070	-0.630	1.730
2020/01/31 23:34:36.2	176.070	0.080	-0.660	1.750
2020/01/31 23:34:36.3	176.040	0.090	-0.690	1.780
2020/01/31 23:34:36.4	176.010	0.100	-0.720	1.810
2020/01/31 23:34:36.5	175.980	0.110	-0.750	1.830
2020/01/31 23:34:36.6	175.950	0.120	-0.770	1.860
2020/01/31 23:34:36.7	175.930	0.130	-0.780	1.880
2020/01/31 23:34:36.8	175.900	0.130	-0.790	1.900
2020/01/31 23:34:36.9	175.880	0.130	-0.800	1.930
2020/01/31 23:34:37.0	175.870	0.130	-0.790	1.950
2020/01/31 23:34:37.1	175.850	0.130	-0.790	1.970
2020/01/31 23:34:37.2	175.840	0.120	-0.770	1.990
2020/01/31 23:34:37.3	175.840	0.110	-0.750	2.000
2020/01/31 23:34:37.4	175.830	0.100	-0.720	2.020
2020/01/31 23:34:37.5	175.840	0.090	-0.680	2.030
2020/01/31 23:34:37.6	175.850	0.070	-0.630	2.050
2020/01/31 23:34:37.7	175.860	0.050	-0.580	2.060
2020/01/31 23:34:37.8	175.870	0.030	-0.530	2.060
2020/01/31 23:34:37.9	175.900	0.000	-0.460	2.070
2020/01/31 23:34:38.0	175.920	-0.020	-0.390	2.060
2020/01/31 23:34:38.1	175.940	-0.050	-0.310	2.070
2020/01/31 23:34:38.2	175.980	-0.080	-0.240	2.060
2020/01/31 23:34:38.3	176.010	-0.120	-0.150	2.040
2020/01/31 23:34:38.4	176.050	-0.150	-0.070	2.020
2020/01/31 23:34:38.5	176.100	-0.180	0.020	2.000
2020/01/31 23:34:38.6	176.140	-0.220	0.110	1.980
2020/01/31 23:34:38.7	176.180	-0.250	0.200	1.950
2020/01/31 23:34:38.8	176.230	-0.290	0.290	1.910
2020/01/31 23:34:38.9	176.280	-0.320	0.380	1.880
2020/01/31 23:34:39.0	176.330	-0.360	0.470	1.840
2020/01/31 23:34:39.1	176.370	-0.390	0.550	1.790
2020/01/31 23:34:39.2	176.420	-0.420	0.630	1.750
2020/01/31 23:34:39.3	176.470	-0.450	0.710	1.700
2020/01/31 23:34:39.4	176.520	-0.480	0.780	1.660
2020/01/31 23:34:39.5	176.570	-0.500	0.850	1.610
2020/01/31 23:34:39.6	176.620	-0.530	0.910	1.560
2020/01/31 23:34:39.7	176.670	-0.550	0.960	1.510
2020/01/31 23:34:39.8	176.720	-0.570	1.010	1.470
2020/01/31 23:34:39.9	176.770	-0.580	1.050	1.420
2020/01/31 23:34:40.0	176.810	-0.590	1.080	1.370
2020/01/31 23:34:40.1	176.880	-0.600	1.110	1.330
2020/01/31 23:34:40.2	176.920	-0.600	1.120	1.290
2020/01/31 23:34:40.3	176.960	-0.600	1.130	1.250
2020/01/31 23:34:40.4	176.990	-0.600	1.120	1.210
2020/01/31 23:34:40.5	177.030	-0.590	1.110	1.180
2020/01/31 23:34:40.6	177.060	-0.580	1.080	1.150
2020/01/31 23:34:40.7	177.080	-0.560	1.040	1.120
2020/01/31 23:34:40.8	177.100	-0.540	1.000	1.100
2020/01/31 23:34:40.9	177.120	-0.520	0.940	1.080
2020/01/31 23:34:41.0	177.130	-0.490	0.880	1.060
2020/01/31 23:34:41.1	177.140	-0.460	0.800	1.050
2020/01/31 23:34:41.2	177.140	-0.420	0.720	1.040
2020/01/31 23:34:41.3	177.150	-0.380	0.630	1.030
2020/01/31 23:34:41.4	177.140	-0.330	0.540	1.030
2020/01/31 23:34:41.5	177.140	-0.280	0.440	1.030
2020/01/31 23:34:41.6	177.130	-0.230	0.340	1.030
2020/01/31 23:34:41.7	177.120	-0.180	0.230	1.030
2020/01/31 23:34:41.8	177.100	-0.120	0.120	1.040
2020/01/31 23:34:41.9	177.090	-0.070	0.010	1.040
2020/01/31 23:34:42.0	177.070	-0.010	-0.100	1.050
2020/01/31 23:34:42.1	177.050	0.050	-0.210	1.060
2020/01/31 23:34:42.2	177.020	0.110	-0.310	1.060
2020/01/31 23:34:42.3	177.000	0.170	-0.410	1.070
2020/01/31 23:34:42.4	176.980	0.230	-0.510	1.080
2020/01/31 23:34:42.5	176.950	0.290	-0.610	1.090
2020/01/31 23:34:42.6	176.930	0.340	-0.690	1.090
2020/01/31 23:34:42.7	176.900	0.400	-0.770	1.100
2020/01/31 23:34:42.8	176.880	0.450	-0.850	1.110
2020/01/31 23:34:42.9	176.850	0.500	-0.920	1.120
2020/01/31 23:34:43.0	176.830	0.540	-0.970	1.120
2020/01/31 23:34:43.1	176.800	0.580	-1.020	1.130
2020/01/31 23:34:43.2	176.780	0.620	-1.060	1.140
2020/01/31 23:34:43.3	176.770	0.650	-1.100	1.140
2020/01/31 23:34:43.4	176.750	0.680	-1.120	1.150
2020/01/31 23:34:43.5	176.740	0.700	-1.140	1.150
2020/01/31 23:34:43.6	176.730	0.710	-1.140	1.150
2020/01/31 23:34:43.7	176.720	0.730	-1.140	1.150
2020/01/31 23:34:43.8	176.710	0.730	-1.130	1.150
2020/01/31 23:34:43.9	176.710	0.730	-1.110	1.140
2020/01/31 23:34:44.0	176.710	0.730	-1.090	1.140
2020/01/31 23:34:44.1	176.690	0.720	-1.060	1.130
2020/01/31 23:34:44.2	176.700	0.710	-1.020	1.120
2020/01/31 23:34:44.3	176.700	0.690	-0.970	1.110
2020/01/31 23:34:44.4	176.710	0.660	-0.920	1.100
2020/01/31 23:34:44.5	176.720	0.640	-0.870	1.090
2020/01/31 23:34:44.6	176.730	0.610	-0.810	1.080
2020/01/31 23:34:44.7	176.740	0.570	-0.760	1.060
2020/01/31 23:34:44.8	176.750	0.540	-0.690	1.050
2020/01/31 23:34:44.9	176.770	0.500	-0.630	1.040
2020/01/31 23:34:45.0	176.780	0.460	-0.570	1.030
2020/01/31 23:34:45.1	176.770	0.420	-0.510	1.010
2020/01/31 23:34:45.2	176.780	0.370	-0.450	1.000
2020/01/31 23:34:45.3	176.800	0.330	-0.400	0.990
2020/01/31 23:34:45.4	176.810	0.290	-0.340	0.970
2020/01/31 23:34:45.5	176.830	0.240	-0.290	0.960
2020/01/31 23:34:45.6	176.840	0.200	-0.250	0.950
2020/01/31 23:34:45.7	176.850	0.160	-0.200	0.940
2020/01/31 23:34:45.8	176.860	0.120	-0.170	0.920
2020/01/31 23:34:45.9	176.870	0.080	-0.140	0.910
2020/01/31 23:34:46.0	176.880	0.050	-0.110	0.900
2020/01/31 23:34:46.1	176.900	0.020	-0.090	0.890
2020/01/31 23:34:46.2	176.900	-0.010	-0.080	0.880
2020/01/31 23:34:46.3	176.910	-0.040	-0.080	0.870
2020/01/31 23:34:46.4	176.910	-0.060	-0.080	0.860
2020/01/31 23:34:46.5	176.910	-0.080	-0.090	0.860
2020/01/31 23:34:46.6	176.910	-0.100	-0.110	0.850
2020/01/31 23:34:46.7	176.920	-0.110	-0.130	0.840
2020/01/31 23:34:46.8	176.910	-0.120	-0.160	0.840
2020/01/31 23:34:46.9	176.910	-0.130	-0.190	0.840
2020/01/31 23:34:47.0	176.910	-0.130	-0.220	0.840
2020/01/31 23:34:47.1	176.920	-0.130	-0.260	0.840
2020/01/31 23:34:47.2	176.920	-0.130	-0.300	0.840
2020/01/31 23:34:47.3	176.920	-0.130	-0.340	0.850
2020/01/31 23:34:47.4	176.920	-0.130	-0.390	0.850
2020/01/31 23:34:47.5	176.920	-0.130	-0.430	0.860
2020/01/31 23:34:47.6	176.910	-0.130	-0.470	0.870
2020/01/31 23:34:47.7	176.910	-0.120	-0.510	0.890
2020/01/31 23:34:47.8	176.910	-0.120	-0.550	0.900
2020/01/31 23:34:47.9	176.910	-0.120	-0.580	0.920
2020/01/31 23:34:48.0	176.910	-0.110	-0.610	0.940
2020/01/31 23:34:48.1	176.920	-0.110	-0.640	0.960
2020/01/31 23:34:48.2	176.930	-0.110	-0.660	0.980
2020/01/31 23:34:48.3	176.930	-0.110	-0.680	1.010
2020/01/31 23:34:48.4	176.930	-0.120	-0.690	1.030
2020/01/31 23:34:48.5	176.930	-0.120	-0.700	1.060
2020/01/31 23:34:48.6	176.930	-0.130	-0.700	1.090
2020/01/31 23:34:48.7	176.940	-0.130	-0.700	1.120
2020/01/31 23:34:48.8	176.940	-0.140	-0.690	1.150
2020/01/31 23:34:48.9	176.940	-0.150	-0.680	1.180
2020/01/31 23:34:49.0	176.940	-0.160	-0.660	1.210
2020/01/31 23:34:49.1	176.940	-0.180	-0.640	1.240
2020/01/31 23:34:49.2	176.940	-0.190	-0.620	1.270
2020/01/31 23:34:49.3	176.940	-0.200	-0.590	1.300
2020/01/31 23:34:49.4	176.940	-0.220	-0.560	1.330
2020/01/31 23:34:49.5	176.940	-0.230	-0.530	1.360
2020/01/31 23:34:49.6	176.930	-0.240	-0.490	1.390
2020/01/31 23:34:49.7	176.930	-0.260	-0.460	1.420
2020/01/31 23:34:49.8	176.920	-0.270	-0.420	1.440
2020/01/31 23:34:49.9	176.920	-0.280	-0.390	1.460
2020/01/31 23:34:50.0	176.910	-0.290	-0.350	1.480
2020/01/31 23:34:50.1	176.900	-0.300	-0.330	1.500
2020/01/31 23:34:50.2	176.890	-0.310	-0.300	1.520
2020/01/31 23:34:50.3	176.870	-0.310	-0.270	1.530
2020/01/31 23:34:50.4	176.860	-0.310	-0.240	1.540
2020/01/31 23:34:50.5	176.850	-0.310	-0.220	1.550
2020/01/31 23:34:50.6	176.840	-0.310	-0.200	1.560
2020/01/31 23:34:50.7	176.830	-0.300	-0.180	1.560
2020/01/31 23:34:50.8	176.810	-0.290	-0.170	1.570
2020/01/31 23:34:50.9	176.800	-0.280	-0.160	1.570
2020/01/31 23:34:51.0	176.790	-0.270	-0.150	1.570
2020/01/31 23:34:51.1	176.780	-0.250	-0.130	1.560
2020/01/31 23:34:51.2	176.770	-0.230	-0.130	1.560
2020/01/31 23:34:51.3	176.760	-0.210	-0.130	1.560
2020/01/31 23:34:51.4	176.750	-0.190	-0.130	1.550
2020/01/31 23:34:51.5	176.740	-0.170	-0.130	1.540
2020/01/31 23:34:51.6	176.740	-0.150	-0.130	1.530
2020/01/31 23:34:51.7	176.740	-0.120	-0.130	1.520
2020/01/31 23:34:51.8	176.740	-0.100	-0.120	1.510
2020/01/31 23:34:51.9	176.750	-0.080	-0.120	1.490
2020/01/31 23:34:52.0	176.750	-0.050	-0.120	1.480
2020/01/31 23:34:52.1	176.750	-0.030	-0.110	1.460
2020/01/31 23:34:52.2	176.760	-0.010	-0.100	1.440
2020/01/31 23:34:52.3	176.770	0.000	-0.090	1.430
2020/01/31 23:34:52.4	176.780	0.020	-0.070	1.410
2020/01/31 23:34:52.5	176.800	0.030	-0.050	1.390
2020/01/31 23:34:52.6	176.820	0.040	-0.030	1.370
2020/01/31 23:34:52.7	176.840	0.050	-0.000	1.360
2020/01/31 23:34:52.8	176.860	0.050	0.030	1.340
2020/01/31 23:34:52.9	176.880	0.060	0.060	1.310
2020/01/31 23:34:53.0	176.910	0.060	0.090	1.290
2020/01/31 23:34:53.1	176.940	0.050	0.130	1.270
2020/01/31 23:34:53.2	176.970	0.050	0.170	1.250
2020/01/31 23:34:53.3	176.990	0.040	0.200	1.230
2020/01/31 23:34:53.4	177.020	0.030	0.240	1.200
2020/01/31 23:34:53.5	177.040	0.010	0.280	1.180
2020/01/31 23:34:53.6	177.060	-0.000	0.310	1.160
2020/01/31 23:34:53.7	177.080	-0.020	0.340	1.140
2020/01/31 23:34:53.8	177.100	-0.030	0.370	1.120
2020/01/31 23:34:53.9	177.120	-0.050	0.400	1.100
2020/01/31 23:34:54.0	177.130	-0.070	0.420	1.090
2020/01/31 23:34:54.1	177.130	-0.090	0.440	1.070
2020/01/31 23:34:54.2	177.140	-0.100	0.450	1.060
2020/01/31 23:34:54.3	177.140	-0.120	0.450	1.050
2020/01/31 23:34:54.4	177.140	-0.130	0.450	1.050
2020/01/31 23:34:54.5	177.140	-0.150	0.440	1.050
2020/01/31 23:34:54.6	177.130	-0.160	0.430	1.050
2020/01/31 23:34:54.7	177.120	-0.170	0.410	1.050
2020/01/31 23:34:54.8	177.110	-0.170	0.380	1.060
2020/01/31 23:34:54.9	177.090	-0.170	0.350	1.070
2020/01/31 23:34:55.0	177.070	-0.170	0.310	1.080
2020/01/31 23:34:55.1	177.040	-0.170	0.260	1.090
2020/01/31 23:34:55.2	177.010	-0.160	0.210	1.110
2020/01/31 23:34:55.3	176.980	-0.150	0.160	1.140
2020/01/31 23:34:55.4	176.940	-0.140	0.100	1.160
2020/01/31 23:34:55.5	176.910	-0.120	0.030	1.190
2020/01/31 23:34:55.6	176.870	-0.100	-0.030	1.220
2020/01/31 23:34:55.7	176.840	-0.080	-0.100	1.250
2020/01/31 23:34:55.8	176.800	-0.060	-0.170	1.270
2020/01/31 23:34:55.9	176.770	-0.030	-0.240	1.300
2020/01/31 23:34:56.0	176.740	-0.010	-0.300	1.330
2020/01/31 23:34:56.1	176.720	0.020	-0.360	1.350
2020/01/31 23:34:56.2	176.700	0.040	-0.420	1.370
2020/01/31 23:34:56.3	176.680	0.070	-0.480	1.390
2020/01/31 23:34:56.4	176.660	0.090	-0.530	1.400
2020/01/31 23:34:56.5	176.650	0.110	-0.570	1.420
2020/01/31 23:34:56.6	176.650	0.130	-0.610	1.420
2020/01/31 23:34:56.7	176.650	0.150	-0.640	1.430
2020/01/31 23:34:56.8	176.650	0.170	-0.660	1.430
2020/01/31 23:34:56.9	176.660	0.180	-0.680	1.430
2020/01/31 23:34:57.0	176.680	0.190	-0.680	1.430
2020/01/31 23:34:57.1	176.690	0.200	-0.690	1.420
2020/01/31 23:34:57.2	176.710	0.200	-0.680	1.410
2020/01/31 23:34:57.3	176.740	0.200	-0.670	1.400
2020/01/31 23:34:57.4	176.760	0.200	-0.650	1.390
2020/01/31 23:34:57.5	176.800	0.190	-0.630	1.380
2020/01/31 23:34:57.6	176.830	0.180	-0.600	1.370
2020/01/31 23:34:57.7	176.870	0.170	-0.560	1.360
2020/01/31 23:34:57.8	176.900	0.150	-0.530	1.340
2020/01/31 23:34:57.9	176.940	0.130	-0.490	1.330
2020/01/31 23:34:58.0	176.980	0.110	-0.440	1.320
2020/01/31 23:34:58.1	177.020	0.090	-0.390	1.300
2020/01/31 23:34:58.2	177.060	0.060	-0.350	1.290
2020/01/31 23:34:58.3	177.100	0.030	-0.300	1.280
2020/01/31 23:34:58.4	177.140	0.010	-0.260	1.270
2020/01/31 23:34:58.5	177.170	-0.020	-0.220	1.270
2020/01/31 23:34:58.6	177.210	-0.050	-0.190	1.260
2020/01/31 23:34:58.7	177.240	-0.080	-0.150	1.260
2020/01/31 23:34:58.8	177.260	-0.100	-0.130	1.260
2020/01/31 23:34:58.9	177.280	-0.130	-0.100	1.260
2020/01/31 23:34:59.0	177.300	-0.150	-0.090	1.260
2020/01/31 23:34:59.1	177.330	-0.170	-0.080	1.280
2020/01/31 23:34:59.2	177.330	-0.180	-0.080	1.290
2020/01/31 23:34:59.3	177.340	-0.200	-0.090	1.300
2020/01/31 23:34:59.4	177.340	-0.210	-0.100	1.320
2020/01/31 23:34:59.5	177.330	-0.210	-0.120	1.330
2020/01/31 23:34:59.6	177.320	-0.210	-0.140	1.350
2020/01/31 23:34:59.7	177.310	-0.210	-0.170	1.360
2020/01/31 23:34:59.8	177.300	-0.200	-0.210	1.380
2020/01/31 23:34:59.9	177.280	-0.190	-0.250	1.390
2020/01/31 23:35:00.0	177.260	-0.180	-0.290	1.410
2020/01/31 23:35:00.1	177.250	-0.160	-0.330	1.430
2020/01/31 23:35:00.2	177.230	-0.140	-0.380	1.440
2020/01/31 23:35:00.3	177.200	-0.120	-0.430	1.460
2020/01/31 23:35:00.4	177.180	-0.090	-0.480	1.470
2020/01/31 23:35:00.5	177.160	-0.060	-0.530	1.480
2020/01/31 23:35:00.6	177.130	-0.030	-0.580	1.500
2020/01/31 23:35:00.7	177.110	-0.000	-0.630	1.510
2020/01/31 23:35:00.8	177.080	0.030	-0.670	1.530
2020/01/31 23:35:00.9	177.060	0.070	-0.710	1.540
2020/01/31 23:35:01.0	177.040	0.100	-0.750	1.560
2020/01/31 23:35:01.1	177.010	0.140	-0.780	1.570
2020/01/31 23:35:01.2	176.990	0.170	-0.810	1.590
2020/01/31 23:35:01.3	176.970	0.200	-0.840	1.600
2020/01/31 23:35:01.4	176.950	0.230	-0.860	1.620
2020/01/31 23:35:01.5	176.930	0.270	-0.870	1.630
2020/01/31 23:35:01.6	176.920	0.290	-0.880	1.640
2020/01/31 23:35:01.7	176.900	0.320	-0.890	1.650
2020/01/31 23:35:01.8	176.890	0.340	-0.880	1.660
2020/01/31 23:35:01.9	176.880	0.360	-0.880	1.670
2020/01/31 23:35:02.0	176.870	0.380	-0.870	1.680
2020/01/31 23:35:02.1	176.880	0.400	-0.850	1.690
2020/01/31 23:35:02.2	176.870	0.410	-0.830	1.690
2020/01/31 23:35:02.3	176.870	0.410	-0.800	1.690
2020/01/31 23:35:02.4	176.860	0.420	-0.760	1.690
2020/01/31 23:35:02.5	176.860	0.420	-0.730	1.690
2020/01/31 23:35:02.6	176.860	0.410	-0.680	1.690
2020/01/31 23:35:02.7	176.860	0.410	-0.640	1.680
2020/01/31 23:35:02.8	176.860	0.390	-0.590	1.670
2020/01/31 23:35:02.9	176.870	0.380	-0.540	1.660
2020/01/31 23:35:03.0	176.880	0.360	-0.480	1.640
2020/01/31 23:35:03.1	176.880	0.340	-0.420	1.630
2020/01/31 23:35:03.2	176.890	0.310	-0.360	1.610
2020/01/31 23:35:03.3	176.910	0.280	-0.300	1.590
2020/01/31 23:35:03.4	176.920	0.250	-0.240	1.570
2020/01/31 23:35:03.5	176.940	0.220	-0.180	1.540
2020/01/31 23:35:03.6	176.960	0.180	-0.120	1.520
2020/01/31 23:35:03.7	176.980	0.140	-0.050	1.500
2020/01/31 23:35:03.8	177.000	0.100	0.010	1.480
2020/01/31 23:35:03.9	177.020	0.060	0.070	1.460
2020/01/31 23:35:04.0	177.040	0.020	0.120	1.440
2020/01/31 23:35:04.1	177.070	-0.020	0.180	1.420
2020/01/31 23:35:04.2	177.090	-0.060	0.230	1.400
2020/01/31 23:35:04.3	177.110	-0.100	0.280	1.380
2020/01/31 23:35:04.4	177.130	-0.130	0.320	1.370
2020/01/31 23:35:04.5	177.150	-0.170	0.360	1.360
2020/01/31 23:35:04.6	177.170	-0.210	0.400	1.350
2020/01/31 23:35:04.7	177.180	-0.240	0.420	1.350
2020/01/31 23:35:04.8	177.200	-0.270	0.450	1.350
2020/01/31 23:35:04.9	177.210	-0.290	0.470	1.350
2020/01/31 23:35:05.0	177.230	-0.320	0.480	1.350
2020/01/31 23:35:05.1	177.240	-0.340	0.490	1.360
2020/01/31 23:35:05.2	177.250	-0.350	0.490	1.370
2020/01/31 23:35:05.3	177.260	-0.370	0.490	1.380
2020/01/31 23:35:05.4	177.260	-0.380	0.480	1.390
2020/01/31 23:35:05.5	177.260	-0.380	0.460	1.410
2020/01/31 23:35:05.6	177.260	-0.380	0.440	1.420
2020/01/31 23:35:05.7	177.260	-0.370	0.410	1.440
2020/01/31 23:35:05.8	177.250	-0.370	0.380	1.460
2020/01/31 23:35:05.9	177.250	-0.350	0.350	1.480
2020/01/31 23:35:06.0	177.240	-0.340	0.310	1.490
2020/01/31 23:35:06.1	177.230	-0.320	0.270	1.510
2020/01/31 23:35:06.2	177.220	-0.290	0.230	1.520
2020/01/31 23:35:06.3	177.210	-0.270	0.180	1.530
2020/01/31 23:35:06.4	177.200	-0.240	0.140	1.530
2020/01/31 23:35:06.5	177.190	-0.210	0.090	1.540
2020/01/31 23:35:06.6	177.180	-0.170	0.040	1.540
2020/01/31 23:35:06.7	177.170	-0.140	-0.000	1.540
2020/01/31 23:35:06.8	177.150	-0.110	-0.040	1.540
2020/01/31 23:35:06.9	177.140	-0.070	-0.090	1.540
2020/01/31 23:35:07.0	177.130	-0.030	-0.130	1.540
2020/01/31 23:35:07.1	177.110	-0.000	-0.170	1.530
2020/01/31 23:35:07.2	177.090	0.030	-0.210	1.530
2020/01/31 23:35:07.3	177.080	0.070	-0.240	1.520
2020/01/31 23:35:07.4	177.070	0.100	-0.270	1.520
2020/01/31 23:35:07.5	177.060	0.130	-0.300	1.510
2020/01/31 23:35:07.6	177.050	0.160	-0.330	1.510
2020/01/31 23:35:07.7	177.040	0.180	-0.350	1.510
2020/01/31 23:35:07.8	177.030	0.200	-0.370	1.510
2020/01/31 23:35:07.9	177.030	0.220	-0.390	1.510
2020/01/31 23:35:08.0	177.020	0.240	-0.400	1.510
2020/01/31 23:35:08.1	177.020	0.260	-0.410	1.510
2020/01/31 23:35:08.2	177.020	0.270	-0.420	1.510
2020/01/31 23:35:08.3	177.010	0.280	-0.430	1.510
2020/01/31 23:35:08.4	177.000	0.280	-0.440	1.520
2020/01/31 23:35:08.5	177.000	0.280	-0.440	1.520
2020/01/31 23:35:08.6	177.000	0.280	-0.440	1.520
2020/01/31 23:35:08.7	176.990	0.280	-0.440	1.520
2020/01/31 23:35:08.8	176.990	0.270	-0.430	1.520
2020/01/31 23:35:08.9	176.990	0.260	-0.420	1.520
2020/01/31 23:35:09.0	176.990	0.250	-0.420	1.520
2020/01/31 23:35:09.1	177.000	0.230	-0.410	1.510
2020/01/31 23:35:09.2	177.010	0.220	-0.400	1.510
2020/01/31 23:35:09.3	177.010	0.200	-0.380	1.500
2020/01/31 23:35:09.4	177.020	0.180	-0.370	1.490
2020/01/31 23:35:09.5	177.030	0.150	-0.350	1.480
2020/01/31 23:35:09.6	177.030	0.130	-0.330	1.470
2020/01/31 23:35:09.7	177.050	0.100	-0.310	1.460
2020/01/31 23:35:09.8	177.060	0.080	-0.290	1.450
2020/01/31 23:35:09.9	177.070	0.050	-0.260	1.430
2020/01/31 23:35:10.0	177.080	0.020	-0.240	1.420
2020/01/31 23:35:10.1	177.090	-0.000	-0.220	1.400
2020/01/31 23:35:10.2	177.100	-0.030	-0.200	1.390
2020/01/31 23:35:10.3	177.110	-0.060	-0.180	1.370
2020/01/31 23:35:10.4	177.130	-0.080	-0.160	1.360
2020/01/31 23:35:10.5	177.140	-0.110	-0.140	1.340
2020/01/31 23:35:10.6	177.150	-0.130	-0.130	1.330
2020/01/31 23:35:10.7	177.150	-0.150	-0.120	1.310
2020/01/31 23:35:10.8	177.160	-0.170	-0.110	1.300
2020/01/31 23:35:10.9	177.160	-0.180	-0.110	1.290
2020/01/31 23:35:11.0	177.160	-0.200	-0.110	1.280
2020/01/31 23:35:11.1	177.140	-0.210	-0.110	1.270
2020/01/31 23:35:11.2	177.130	-0.210	-0.120	1.270
2020/01/31 23:35:11.3	177.120	-0.220	-0.140	1.270
2020/01/31 23:35:11.4	177.110	-0.220	-0.160	1.270
2020/01/31 23:35:11.5	177.100	-0.210	-0.180	1.270
2020/01/31 23:35:11.6	177.080	-0.210	-0.210	1.270
2020/01/31 23:35:11.7	177.060	-0.200	-0.240	1.280
2020/01/31 23:35:11.8	177.040	-0.180	-0.280	1.290
2020/01/31 23:35:11.9	177.020	-0.170	-0.320	1.300
2020/01/31 23:35:12.0	176.990	-0.150	-0.360	1.310
2020/01/31 23:35:12.1	176.950	-0.130	-0.410	1.330
2020/01/31 23:35:12.2	176.920	-0.100	-0.460	1.350
2020/01/31 23:35:12.3	176.880	-0.080	-0.510	1.370
2020/01/31 23:35:12.4	176.850	-0.050	-0.560	1.390
2020/01/31 23:35:12.5	176.810	-0.020	-0.610	1.410
2020/01/31 23:35:12.6	176.770	0.010	-0.660	1.430
2020/01/31 23:35:12.7	176.740	0.040	-0.710	1.460
2020/01/31 23:35:12.8	176.700	0.070	-0.760	1.480
2020/01/31 23:35:12.9	176.660	0.100	-0.810	1.510
2020/01/31 23:35:13.0	176.610	0.130	-0.850	1.530
2020/01/31 23:35:13.1	176.560	0.150	-0.890	1.560
2020/01/31 23:35:13.2	176.520	0.180	-0.920	1.580
2020/01/31 23:35:13.3	176.480	0.200	-0.950	1.600
2020/01/31 23:35:13.4	176.440	0.220	-0.980	1.630
2020/01/31 23:35:13.5	176.410	0.240	-1.000	1.640
2020/01/31 23:35:13.6	176.380	0.260	-1.010	1.660
2020/01/31 23:35:13.7	176.350	0.270	-1.010	1.680
2020/01/31 23:35:13.8	176.320	0.280	-1.010	1.700
2020/01/31 23:35:13.9	176.290	0.280	-1.000	1.710
2020/01/31 23:35:14.0	176.270	0.280	-0.980	1.720
2020/01/31 23:35:14.1	176.270	0.270	-0.950	1.740
2020/01/31 23:35:14.2	176.250	0.270	-0.920	1.740
2020/01/31 23:35:14.3	176.240	0.250	-0.880	1.750
2020/01/31 23:35:14.4	176.220	0.240	-0.840	1.750
2020/01/31 23:35:14.5	176.220	0.220	-0.780	1.750
2020/01/31 23:35:14.6	176.210	0.190	-0.720	1.750
2020/01/31 23:35:14.7	176.200	0.160	-0.660	1.750
2020/01/31 23:35:14.8	176.200	0.130	-0.590	1.740
2020/01/31 23:35:14.9	176.200	0.100	-0.520	1.730
2020/01/31 23:35:15.0	176.200	0.060	-0.440	1.720
2020/01/31 23:35:15.1	176.210	0.030	-0.370	1.710
2020/01/31 23:35:15.2	176.210	-0.010	-0.290	1.700
2020/01/31 23:35:15.3	176.210	-0.050	-0.210	1.680
2020/01/31 23:35:15.4	176.220	-0.090	-0.130	1.660
2020/01/31 23:35:15.5	176.230	-0.140	-0.050	1.640
2020/01/31 23:35:15.6	176.240	-0.180	0.030	1.610
2020/01/31 23:35:15.7	176.240	-0.220	0.110	1.590
2020/01/31 23:35:15.8	176.250	-0.260	0.180	1.560
2020/01/31 23:35:15.9	176.260	-0.300	0.250	1.540
2020/01/31 23:35:16.0	176.270	-0.330	0.310	1.510
2020/01/31 23:35:16.1	176.290	-0.370	0.380	1.480
2020/01/31 23:35:16.2	176.300	-0.400	0.430	1.460
2020/01/31 23:35:16.3	176.310	-0.430	0.490	1.440
2020/01/31 23:35:16.4	176.320	-0.450	0.530	1.420
2020/01/31 23:35:16.5	176.330	-0.470	0.570	1.400
2020/01/31 23:35:16.6	176.340	-0.490	0.590	1.380
2020/01/31 23:35:16.7	176.340	-0.500	0.620	1.360
2020/01/31 23:35:16.8	176.350	-0.510	0.630	1.340
2020/01/31 23:35:16.9	176.350	-0.510	0.630	1.330
2020/01/31 23:35:17.0	176.350	-0.510	0.630	1.320
2020/01/31 23:35:17.1	176.360	-0.500	0.610	1.310
2020/01/31 23:35:17.2	176.360	-0.490	0.590	1.300
2020/01/31 23:35:17.3	176.350	-0.470	0.560	1.290
2020/01/31 23:35:17.4	176.350	-0.440	0.530	1.280
2020/01/31 23:35:17.5	176.340	-0.420	0.480	1.270
2020/01/31 23:35:17.6	176.330	-0.380	0.430	1.270
2020/01/31 23:35:17.7	176.320	-0.340	0.370	1.260
2020/01/31 23:35:17.8	176.310	-0.300	0.300	1.260
2020/01/31 23:35:17.9	176.290	-0.260	0.230	1.250
2020/01/31 23:35:18.0	176.280	-0.210	0.150	1.250
2020/01/31 23:35:18.1	176.270	-0.150	0.070	1.250
2020/01/31 23:35:18.2	176.250	-0.100	-0.010	1.250
2020/01/31 23:35:18.3	176.230	-0.040	-0.100	1.250
2020/01/31 23:35:18.4	176.210	0.010	-0.190	1.250
2020/01/31 23:35:18.5	176.190	0.070	-0.270	1.260
2020/01/31 23:35:18.6	176.170	0.130	-0.360	1.270
2020/01/31 23:35:18.7	176.140	0.190	-0.450	1.280
2020/01/31 23:35:18.8	176.120	0.240	-0.530	1.290
2020/01/31 23:35:18.9	176.100	0.290	-0.600	1.300
2020/01/31 23:35:19.0	176.080	0.340	-0.680	1.320
2020/01/31 23:35:19.1	176.050	0.390	-0.750	1.340
2020/01/31 23:35:19.2	176.030	0.430	-0.810	1.360
2020/01/31 23:35:19.3	176.010	0.470	-0.860	1.380
2020/01/31 23:35:19.4	176.000	0.500	-0.900	1.410
2020/01/31 23:35:19.5	175.980	0.530	-0.940	1.430
2020/01/31 23:35:19.6	175.970	0.550	-0.970	1.460
2020/01/31 23:35:19.7	175.960	0.560	-0.980	1.490
2020/01/31 23:35:19.8	175.950	0.570	-0.990	1.530
2020/01/31 23:35:19.9	175.940	0.570	-0.990	1.560
2020/01/31 23:35:20.0	175.930	0.570	-0.980	1.600
2020/01/31 23:35:20.1	175.930	0.560	-0.950	1.630
2020/01/31 23:35:20.2	175.930	0.550	-0.920	1.660
2020/01/31 23:35:20.3	175.930	0.520	-0.880	1.700
2020/01/31 23:35:20.4	175.940	0.490	-0.840	1.730
2020/01/31 23:35:20.5	175.950	0.460	-0.780	1.770
2020/01/31 23:35:20.6	175.960	0.420	-0.720	1.800
2020/01/31 23:35:20.7	175.970	0.380	-0.640	1.840
2020/01/31 23:35:20.8	175.990	0.330	-0.570	1.870
2020/01/31 23:35:20.9	176.010	0.280	-0.480	1.890
2020/01/31 23:35:21.0	176.030	0.220	-0.400	1.920
2020/01/31 23:35:21.1	176.060	0.160	-0.310	1.950
2020/01/31 23:35:21.2	176.080	0.100	-0.220	1.970
2020/01/31 23:35:21.3	176.100	0.040	-0.120	1.990
2020/01/31 23:35:21.4	176.130	-0.020	-0.030	2.010
2020/01/31 23:35:21.5	176.150	-0.090	0.070	2.030
2020/01/31 23:35:21.6	176.180	-0.150	0.160	2.050
2020/01/31 23:35:21.7	176.210	-0.210	0.260	2.060
2020/01/31 23:35:21.8	176.230	-0.270	0.340	2.070
2020/01/31 23:35:21.9	176.260	-0.330	0.430	2.080
2020/01/31 23:35:22.0	176.280	-0.380	0.510	2.080
2020/01/31 23:35:22.1	176.320	-0.430	0.580	2.090
2020/01/31 23:35:22.2	176.340	-0.480	0.650	2.090
2020/01/31 23:35:22.3	176.360	-0.520	0.710	2.090
2020/01/31 23:35:22.4	176.380	-0.560	0.760	2.090
2020/01/31 23:35:22.5	176.400	-0.590	0.800	2.090
2020/01/31 23:35:22.6	176.410	-0.610	0.830	2.090
2020/01/31 23:35:22.7	176.420	-0.630	0.860	2.090
2020/01/31 23:35:22.8	176.430	-0.640	0.870	2.080
2020/01/31 23:35:22.9	176.440	-0.640	0.870	2.080
2020/01/31 23:35:23.0	176.440	-0.640	0.860	2.070
2020/01/31 23:35:23.1	176.440	-0.630	0.840	2.070
2020/01/31 23:35:23.2	176.430	-0.610	0.810	2.060
2020/01/31 23:35:23.3	176.430	-0.590	0.770	2.050
2020/01/31 23:35:23.4	176.420	-0.560	0.720	2.040
2020/01/31 23:35:23.5	176.420	-0.530	0.660	2.040
2020/01/31 23:35:23.6	176.410	-0.490	0.600	2.020
2020/01/31 23:35:23.7	176.390	-0.440	0.520	2.010
2020/01/31 23:35:23.8	176.380	-0.390	0.440	2.000
2020/01/31 23:35:23.9	176.370	-0.330	0.350	1.980
2020/01/31 23:35:24.0	176.350	-0.270	0.260	1.960
2020/01/31 23:35:24.1	176.340	-0.210	0.170	1.950
2020/01/31 23:35:24.2	176.320	-0.150	0.070	1.920
2020/01/31 23:35:24.3	176.310	-0.080	-0.030	1.900
2020/01/31 23:35:24.4	176.290	-0.010	-0.130	1.870
2020/01/31 23:35:24.5	176.270	0.060	-0.230	1.850
2020/01/31 23:35:24.6	176.250	0.120	-0.330	1.820
2020/01/31 23:35:24.7	176.230	0.190	-0.420	1.790
2020/01/31 23:35:24.8	176.220	0.260	-0.520	1.760
2020/01/31 23:35:24.9	176.200	0.320	-0.610	1.720
2020/01/31 23:35:25.0	176.190	0.390	-0.690	1.690
2020/01/31 23:35:25.1	176.150	0.440	-0.770	1.650
2020/01/31 23:35:25.2	176.140	0.500	-0.840	1.610
2020/01/31 23:35:25.3	176.130	0.550	-0.900	1.570
2020/01/31 23:35:25.4	176.120	0.600	-0.960	1.530
2020/01/31 23:35:25.5	176.110	0.640	-1.000	1.490
2020/01/31 23:35:25.6	176.110	0.680	-1.040	1.450
2020/01/31 23:35:25.7	176.110	0.710	-1.070	1.410
2020/01/31 23:35:25.8	176.110	0.740	-1.100	1.380
2020/01/31 23:35:25.9	176.110	0.760	-1.110	1.340
2020/01/31 23:35:26.0	176.110	0.770	-1.120	1.300
2020/01/31 23:35:26.1	176.120	0.780	-1.120	1.270
2020/01/31 23:35:26.2	176.130	0.780	-1.110	1.230
2020/01/31 23:35:26.3	176.140	0.780	-1.090	1.200
2020/01/31 23:35:26.4	176.150	0.770	-1.070	1.170
2020/01/31 23:35:26.5	176.160	0.760	-1.040	1.140
2020/01/31 23:35:26.6	176.170	0.750	-1.000	1.110
2020/01/31 23:35:26.7	176.180	0.720	-0.970	1.090
2020/01/31 23:35:26.8	176.190	0.700	-0.920	1.070
2020/01/31 23:35:26.9	176.200	0.670	-0.880	1.040
2020/01/31 23:35:27.0	176.210	0.630	-0.830	1.030
2020/01/31 23:35:27.1	176.220	0.600	-0.780	1.010
2020/01/31 23:35:27.2	176.230	0.560	-0.720	1.000
2020/01/31 23:35:27.3	176.240	0.520	-0.670	0.990
2020/01/31 23:35:27.4	176.250	0.470	-0.620	0.980
2020/01/31 23:35:27.5	176.260	0.430	-0.570	0.970
2020/01/31 23:35:27.6	176.270	0.380	-0.510	0.970
2020/01/31 23:35:27.7	176.280	0.340	-0.460	0.970
2020/01/31 23:35:27.8	176.290	0.290	-0.420	0.970
2020/01/31 23:35:27.9	176.290	0.240	-0.370	0.980
2020/01/31 23:35:28.0	176.300	0.200	-0.330	0.980
2020/01/31 23:35:28.1	176.290	0.150	-0.290	0.990
2020/01/31 23:35:28.2	176.290	0.100	-0.250	1.000
2020/01/31 23:35:28.3	176.300	0.060	-0.220	1.010
2020/01/31 23:35:28.4	176.300	0.010	-0.190	1.020
2020/01/31 23:35:28.5	176.310	-0.030	-0.160	1.040
2020/01/31 23:35:28.6	176.310	-0.070	-0.130	1.060
2020/01/31 23:35:28.7	176.310	-0.110	-0.110	1.070
2020/01/31 23:35:28.8	176.320	-0.150	-0.090	1.100
2020/01/31 23:35:28.9	176.320	-0.190	-0.080	1.120
2020/01/31 23:35:29.0	176.330	-0.220	-0.070	1.140
2020/01/31 23:35:29.1	176.340	-0.260	-0.060	1.160
2020/01/31 23:35:29.2	176.340	-0.290	-0.050	1.190
2020/01/31 23:35:29.3	176.350	-0.330	-0.050	1.220
2020/01/31 23:35:29.4	176.350	-0.360	-0.050	1.240
2020/01/31 23:35:29.5	176.360	-0.380	-0.050	1.270
2020/01/31 23:35:29.6	176.370	-0.410	-0.060	1.300
2020/01/31 23:35:29.7	176.380	-0.440	-0.070	1.330
2020/01/31 23:35:29.8	176.390	-0.460	-0.090	1.360
2020/01/31 23:35:29.9	176.400	-0.480	-0.100	1.390
2020/01/31 23:35:30.0	176.400	-0.500	-0.120	1.420
2020/01/31 23:35:30.1	176.420	-0.510	-0.150	1.460
2020/01/31 23:35:30.2	176.420	-0.520	-0.170	1.490
2020/01/31 23:35:30.3	176.430	-0.530	-0.200	1.530
2020/01/31 23:35:30.4	176.430	-0.540	-0.230	1.560
2020/01/31 23:35:30.5	176.430	-0.550	-0.270	1.600
2020/01/31 23:35:30.6	176.420	-0.550	-0.300	1.640
2020/01/31 23:35:30.7	176.420	-0.540	-0.340	1.670
2020/01/31 23:35:30.8	176.410	-0.540	-0.370	1.710
2020/01/31 23:35:30.9	176.400	-0.530	-0.410	1.740
2020/01/31 23:35:31.0	176.390	-0.520	-0.450	1.780
2020/01/31 23:35:31.1	176.360	-0.500	-0.490	1.810
2020/01/31 23:35:31.2	176.340	-0.480	-0.530	1.840
2020/01/31 23:35:31.3	176.320	-0.460	-0.560	1.870
2020/01/31 23:35:31.4	176.290	-0.440	-0.600	1.900
2020/01/31 23:35:31.5	176.260	-0.410	-0.630	1.930
2020/01/31 23:35:31.6	176.230	-0.380	-0.660	1.950
2020/01/31 23:35:31.7	176.200	-0.350	-0.690	1.970
2020/01/31 23:35:31.8	176.160	-0.310	-0.710	1.990
2020/01/31 23:35:31.9	176.130	-0.280	-0.730	2.000
2020/01/31 23:35:32.0	176.090	-0.240	-0.740	2.020
2020/01/31 23:35:32.1	176.060	-0.200	-0.750	2.030
2020/01/31 23:35:32.2	176.020	-0.160	-0.750	2.040
2020/01/31 23:35:32.3	175.990	-0.130	-0.750	2.040
2020/01/31 23:35:32.4	175.950	-0.090	-0.740	2.040
2020/01/31 23:35:32.5	175.920	-0.050	-0.720	2.030
2020/01/31 23:35:32.6	175.890	-0.010	-0.700	2.020
2020/01/31 23:35:32.7	175.860	0.020	-0.670	2.010
2020/01/31 23:35:32.8	175.840	0.050	-0.640	2.000
2020/01/31 23:35:32.9	175.810	0.080	-0.600	1.980
2020/01/31 23:35:33.0	175.790	0.110	-0.550	1.960
2020/01/31 23:35:33.1	175.780	0.140	-0.490	1.930
2020/01/31 23:35:33.2	175.760	0.160	-0.440	1.910
2020/01/31 23:35:33.3	175.750	0.180	-0.370	1.880
2020/01/31 23:35:33.4	175.740	0.190	-0.310	1.850
2020/01/31 23:35:33.5	175.740	0.200	-0.240	1.820
2020/01/31 23:35:33.6	175.730	0.210	-0.170	1.790
2020/01/31 23:35:33.7	175.730	0.210	-0.090	1.760
2020/01/31 23:35:33.8	175.730	0.210	-0.020	1.730
2020/01/31 23:35:33.9	175.740	0.210	0.050	1.690
2020/01/31 23:35:34.0	175.740	0.200	0.120	1.660
2020/01/31 23:35:34.1	175.750	0.190	0.190	1.620
2020/01/31 23:35:34.2	175.760	0.170	0.260	1.590
2020/01/31 23:35:34.3	175.770	0.160	0.320	1.550
2020/01/31 23:35:34.4	175.780	0.140	0.380	1.520
2020/01/31 23:35:34.5	175.790	0.120	0.440	1.480
2020/01/31 23:35:34.6	175.800	0.090	0.490	1.450
2020/01/31 23:35:34.7	175.820	0.070	0.540	1.420
2020/01/31 23:35:34.8	175.830	0.040	0.580	1.380
2020/01/31 23:35:34.9	175.840	0.010	0.610	1.350
2020/01/31 23:35:35.0	175.850	-0.020	0.640	1.310
2020/01/31 23:35:35.1	175.860	-0.050	0.670	1.280
2020/01/31 23:35:35.2	175.870	-0.070	0.690	1.250
2020/01/31 23:35:35.3	175.880	-0.100	0.700	1.220
2020/01/31 23:35:35.4	175.890	-0.130	0.700	1.190
2020/01/31 23:35:35.5	175.900	-0.150	0.700	1.160
2020/01/31 23:35:35.6	175.910	-0.180	0.690	1.130
2020/01/31 23:35:35.7	175.920	-0.200	0.670	1.100
2020/01/31 23:35:35.8	175.920	-0.220	0.650	1.080
2020/01/31 23:35:35.9	175.930	-0.240	0.630	1.060
2020/01/31 23:35:36.0	175.930	-0.250	0.590	1.040
2020/01/31 23:35:36.1	175.950	-0.270	0.550	1.020
2020/01/31 23:35:36.2	175.950	-0.270	0.510	1.010
2020/01/31 23:35:36.3	175.950	-0.280	0.470	1.000
2020/01/31 23:35:36.4	175.950	-0.290	0.420	1.000
2020/01/31 23:35:36.5	175.950	-0.290	0.370	1.000
2020/01/31 23:35:36.6	175.950	-0.280	0.320	1.000
2020/01/31 23:35:36.7	175.950	-0.280	0.270	1.000
2020/01/31 23:35:36.8	175.950	-0.270	0.220	1.010
2020/01/31 23:35:36.9	175.950	-0.260	0.160	1.020
2020/01/31 23:35:37.0	175.950	-0.250	0.110	1.030
2020/01/31 23:35:37.1	175.940	-0.230	0.060	1.040
2020/01/31 23:35:37.2	175.940	-0.220	0.010	1.060
2020/01/31 23:35:37.3	175.940	-0.200	-0.040	1.070
2020/01/31 23:35:37.4	175.940	-0.180	-0.080	1.090
2020/01/31 23:35:37.5	175.940	-0.150	-0.130	1.110
2020/01/31 23:35:37.6	175.950	-0.130	-0.170	1.120
2020/01/31 23:35:37.7	175.950	-0.100	-0.210	1.140
2020/01/31 23:35:37.8	175.950	-0.080	-0.250	1.160
2020/01/31 23:35:37.9	175.960	-0.050	-0.290	1.170
2020/01/31 23:35:38.0	175.960	-0.020	-0.320	1.190
2020/01/31 23:35:38.1	175.960	0.000	-0.360	1.210
2020/01/31 23:35:38.2	175.960	0.030	-0.390	1.220
2020/01/31 23:35:38.3	175.970	0.060	-0.420	1.230
2020/01/31 23:35:38.4	175.970	0.080	-0.450	1.240
2020/01/31 23:35:38.5	175.970	0.110	-0.470	1.250
2020/01/31 23:35:38.6	175.970	0.140	-0.500	1.260
2020/01/31 23:35:38.7	175.970	0.160	-0.520	1.270
2020/01/31 23:35:38.8	175.970	0.190	-0.550	1.280
2020/01/31 23:35:38.9	175.960	0.210	-0.570	1.290
2020/01/31 23:35:39.0	175.960	0.230	-0.590	1.290
2020/01/31 23:35:39.1	175.970	0.260	-0.620	1.300
2020/01/31 23:35:39.2	175.960	0.280	-0.640	1.300
2020/01/31 23:35:39.3	175.950	0.300	-0.660	1.310
2020/01/31 23:35:39.4	175.940	0.310	-0.680	1.310
2020/01/31 23:35:39.5	175.930	0.330	-0.700	1.310
2020/01/31 23:35:39.6	175.910	0.340	-0.720	1.310
2020/01/31 23:35:39.7	175.900	0.360	-0.730	1.320
2020/01/31 23:35:39.8	175.880	0.370	-0.750	1.320
2020/01/31 23:35:39.9	175.860	0.380	-0.770	1.320
2020/01/31 23:35:40.0	175.850	0.390	-0.780	1.320
2020/01/31 23:35:40.1	175.830	0.400	-0.790	1.330
2020/01/31 23:35:40.2	175.810	0.400	-0.800	1.330
2020/01/31 23:35:40.3	175.800	0.410	-0.800	1.340
2020/01/31 23:35:40.4	175.780	0.410	-0.810	1.340
2020/01/31 23:35:40.5	175.770	0.410	-0.800	1.340
2020/01/31 23:35:40.6	175.760	0.410	-0.800	1.340
2020/01/31 23:35:40.7	175.740	0.410	-0.790	1.350
2020/01/31 23:35:40.8	175.740	0.410	-0.780	1.350
2020/01/31 23:35:40.9	175.730	0.400	-0.760	1.350
2020/01/31 23:35:41.0	175.720	0.390	-0.740	1.350
2020/01/31 23:35:41.1	175.740	0.380	-0.720	1.360
2020/01/31 23:35:41.2	175.740	0.370	-0.690	1.360
2020/01/31 23:35:41.3	175.740	0.360	-0.650	1.350
2020/01/31 23:35:41.4	175.740	0.350	-0.620	1.350
2020/01/31 23:35:41.5	175.750	0.330	-0.580	1.350
2020/01/31 23:35:41.6	175.750	0.320	-0.530	1.340
2020/01/31 23:35:41.7	175.760	0.300	-0.490	1.340
2020/01/31 23:35:41.8	175.770	0.280	-0.440	1.330
2020/01/31 23:35:41.9	175.780	0.260	-0.400	1.320
2020/01/31 23:35:42.0	175.790	0.240	-0.350	1.310
2020/01/31 23:35:42.1	175.800	0.220	-0.300	1.300
2020/01/31 23:35:42.2	175.820	0.200	-0.250	1.290
2020/01/31 23:35:42.3	175.830	0.170	-0.210	1.270
2020/01/31 23:35:42.4	175.840	0.150	-0.170	1.260
2020/01/31 23:35:42.5	175.850	0.130	-0.130	1.240
2020/01/31 23:35:42.6	175.860	0.110	-0.100	1.230
2020/01/31 23:35:42.7	175.860	0.090	-0.070	1.210
2020/01/31 23:35:42.8	175.870	0.060	-0.050	1.200
2020/01/31 23:35:42.9	175.870	0.050	-0.030	1.190
2020/01/31 23:35:43.0	175.870	0.030	-0.020	1.170
2020/01/31 23:35:43.1	175.880	0.010	-0.020	1.160
2020/01/31 23:35:43.2	175.870	-0.000	-0.020	1.160
2020/01/31 23:35:43.3	175.860	-0.020	-0.030	1.150
2020/01/31 23:35:43.4	175.850	-0.030	-0.050	1.150
2020/01/31 23:35:43.5	175.830	-0.040	-0.070	1.160
2020/01/31 23:35:43.6	175.810	-0.050	-0.100	1.170
2020/01/31 23:35:43.7	175.790	-0.050	-0.140	1.180
2020/01/31 23:35:43.8	175.760	-0.060	-0.180	1.200
2020/01/31 23:35:43.9	175.730	-0.060	-0.230	1.230
2020/01/31 23:35:44.0	175.700	-0.060	-0.280	1.260
2020/01/31 23:35:44.1	175.670	-0.050	-0.340	1.290
2020/01/31 23:35:44.2	175.630	-0.050	-0.400	1.330
2020/01/31 23:35:44.3	175.590	-0.050	-0.460	1.380
2020/01/31 23:35:44.4	175.550	-0.040	-0.520	1.430
2020/01/31 23:35:44.5	175.510	-0.030	-0.580	1.480
2020/01/31 23:35:44.6	175.470	-0.030	-0.640	1.530
2020/01/31 23:35:44.7	175.430	-0.020	-0.690	1.580
2020/01/31 23:35:44.8	175.390	-0.010	-0.740	1.640
2020/01/31 23:35:44.9	175.340	-0.000	-0.790	1.690
2020/01/31 23:35:45.0	175.300	0.000	-0.830	1.740
2020/01/31 23:35:45.1	175.260	0.010	-0.860	1.790
2020/01/31 23:35:45.2	175.220	0.010	-0.890	1.840
2020/01/31 23:35:45.3	175.180	0.020	-0.910	1.880
2020/01/31 23:35:45.4	175.150	0.020	-0.910	1.920
2020/01/31 23:35:45.5	175.110	0.020	-0.920	1.960
2020/01/31 23:35:45.6	175.090	0.020	-0.910	1.990
2020/01/31 23:35:45.7	175.060	0.010	-0.890	2.010
2020/01/31 23:35:45.8	175.030	0.000	-0.860	2.040
2020/01/31 23:35:45.9	175.010	-0.010	-0.820	2.050
2020/01/31 23:35:46.0	174.990	-0.020	-0.770	2.060
2020/01/31 23:35:46.1	174.980	-0.040	-0.720	2.070
2020/01/31 23:35:46.2	174.970	-0.050	-0.660	2.070
2020/01/31 23:35:46.3	174.970	-0.070	-0.590	2.070
2020/01/31 23:35:46.4	174.960	-0.100	-0.510	2.060
2020/01/31 23:35:46.5	174.960	-0.120	-0.430	2.050
2020/01/31 23:35:46.6	174.970	-0.150	-0.340	2.040
2020/01/31 23:35:46.7	174.980	-0.180	-0.250	2.020
2020/01/31 23:35:46.8	174.990	-0.210	-0.160	2.000
2020/01/31 23:35:46.9	175.000	-0.240	-0.070	1.980
2020/01/31 23:35:47.0	175.020	-0.280	0.030	1.960
2020/01/31 23:35:47.1	175.020	-0.310	0.130	1.920
2020/01/31 23:35:47.2	175.050	-0.350	0.220	1.900
2020/01/31 23:35:47.3	175.070	-0.380	0.300	1.870
2020/01/31 23:35:47.4	175.090	-0.410	0.380	1.840
2020/01/31 23:35:47.5	175.110	-0.440	0.460	1.820
2020/01/31 23:35:47.6	175.140	-0.470	0.530	1.790
2020/01/31 23:35:47.7	175.160	-0.500	0.590	1.760
2020/01/31 23:35:47.8	175.190	-0.530	0.650	1.740
2020/01/31 23:35:47.9	175.210	-0.550	0.690	1.710
2020/01/31 23:35:48.0	175.230	-0.570	0.730	1.690
2020/01/31 23:35:48.1	175.240	-0.590	0.750	1.670
2020/01/31 23:35:48.2	175.260	-0.600	0.770	1.660
2020/01/31 23:35:48.3	175.280	-0.610	0.780	1.640
2020/01/31 23:35:48.4	175.300	-0.610	0.780	1.620
2020/01/31 23:35:48.5	175.310	-0.610	0.760	1.610
2020/01/31 23:35:48.6	175.330	-0.600	0.740	1.590
2020/01/31 23:35:48.7	175.340	-0.600	0.710	1.580
2020/01/31 23:35:48.8	175.350	-0.580	0.670	1.560
2020/01/31 23:35:48.9	175.360	-0.560	0.630	1.550
2020/01/31 23:35:49.0	175.370	-0.540	0.570	1.540
2020/01/31 23:35:49.1	175.360	-0.510	0.520	1.520
2020/01/31 23:35:49.2	175.370	-0.480	0.450	1.500
2020/01/31 23:35:49.3	175.380	-0.450	0.380	1.480
2020/01/31 23:35:49.4	175.390	-0.410	0.300	1.470
2020/01/31 23:35:49.5	175.390	-0.360	0.220	1.450
2020/01/31 23:35:49.6	175.400	-0.320	0.140	1.430
2020/01/31 23:35:49.7	175.400	-0.270	0.050	1.410
2020/01/31 23:35:49.8	175.400	-0.220	-0.030	1.400
2020/01/31 23:35:49.9	175.400	-0.170	-0.110	1.380
2020/01/31 23:35:50.0	175.400	-0.120	-0.190	1.360
2020/01/31 23:35:50.1	175.400	-0.070	-0.270	1.350
2020/01/31 23:35:50.2	175.390	-0.020	-0.340	1.340
2020/01/31 23:35:50.3	175.390	0.030	-0.410	1.330
2020/01/31 23:35:50.4	175.390	0.080	-0.480	1.320
2020/01/31 23:35:50.5	175.390	0.130	-0.540	1.310
2020/01/31 23:35:50.6	175.380	0.170	-0.590	1.300
2020/01/31 23:35:50.7	175.380	0.210	-0.640	1.300
2020/01/31 23:35:50.8	175.380	0.250	-0.680	1.300
2020/01/31 23:35:50.9	175.370	0.290	-0.710	1.300
2020/01/31 23:35:51.0	175.370	0.320	-0.740	1.300
2020/01/31 23:35:51.1	175.370	0.350	-0.760	1.300
2020/01/31 23:35:51.2	175.370	0.380	-0.770	1.310
2020/01/31 23:35:51.3	175.370	0.400	-0.780	1.320
2020/01/31 23:35:51.4	175.370	0.420	-0.780	1.320
2020/01/31 23:35:51.5	175.370	0.430	-0.770	1.330
2020/01/31 23:35:51.6	175.370	0.440	-0.760	1.340
2020/01/31 23:35:51.7	175.370	0.450	-0.750	1.340
2020/01/31 23:35:51.8	175.370	0.450	-0.730	1.350
2020/01/31 23:35:51.9	175.370	0.450	-0.700	1.360
2020/01/31 23:35:52.0	175.370	0.440	-0.670	1.370
2020/01/31 23:35:52.1	175.370	0.430	-0.640	1.380
2020/01/31 23:35:52.2	175.370	0.420	-0.610	1.390
2020/01/31 23:35:52.3	175.380	0.410	-0.570	1.390
2020/01/31 23:35:52.4	175.380	0.390	-0.530	1.400
2020/01/31 23:35:52.5	175.380	0.370	-0.490	1.410
2020/01/31 23:35:52.6	175.380	0.350	-0.450	1.420
2020/01/31 23:35:52.7	175.390	0.320	-0.410	1.430
2020/01/31 23:35:52.8	175.390	0.300	-0.370	1.440
2020/01/31 23:35:52.9	175.390	0.270	-0.330	1.450
2020/01/31 23:35:53.0	175.380	0.250	-0.300	1.460
2020/01/31 23:35:53.1	175.380	0.220	-0.260	1.480
2020/01/31 23:35:53.2	175.380	0.200	-0.230	1.490
2020/01/31 23:35:53.3	175.380	0.170	-0.200	1.500
2020/01/31 23:35:53.4	175.370	0.150	-0.170	1.520
2020/01/31 23:35:53.5	175.370	0.130	-0.140	1.530
2020/01/31 23:35:53.6	175.360	0.110	-0.120	1.550
2020/01/31 23:35:53.7	175.360	0.090	-0.100	1.560
2020/01/31 23:35:53.8	175.350	0.080	-0.080	1.580
2020/01/31 23:35:53.9	175.350	0.060	-0.060	1.590
2020/01/31 23:35:54.0	175.340	0.050	-0.050	1.610
2020/01/31 23:35:54.1	175.350	0.050	-0.040	1.620
2020/01/31 23:35:54.2	175.350	0.040	-0.030	1.640
2020/01/31 23:35:54.3	175.340	0.040	-0.020	1.650
2020/01/31 23:35:54.4	175.340	0.030	-0.020	1.660
2020/01/31 23:35:54.5	175.330	0.030	-0.010	1.680
2020/01/31 23:35:54.6	175.330	0.040	-0.010	1.690
2020/01/31 23:35:54.7	175.330	0.040	-0.010	1.700
2020/01/31 23:35:54.8	175.330	0.050	-0.010	1.700
2020/01/31 23:35:54.9	175.330	0.050	-0.020	1.710
2020/01/31 23:35:55.0	175.330	0.060	-0.020	1.710
2020/01/31 23:35:55.1	175.320	0.070	-0.030	1.710
2020/01/31 23:35:55.2	175.320	0.080	-0.040	1.710
2020/01/31 23:35:55.3	175.320	0.090	-0.040	1.710
2020/01/31 23:35:55.4	175.330	0.100	-0.050	1.710
2020/01/31 23:35:55.5	175.330	0.110	-0.060	1.710
2020/01/31 23:35:55.6	175.330	0.120	-0.070	1.700
2020/01/31 23:35:55.7	175.330	0.130	-0.090	1.700
2020/01/31 23:35:55.8	175.340	0.130	-0.100	1.690
2020/01/31 23:35:55.9	175.340	0.140	-0.110	1.690
2020/01/31 23:35:56.0	175.340	0.150	-0.130	1.680
2020/01/31 23:35:56.1	175.340	0.150	-0.140	1.680
2020/01/31 23:35:56.2	175.340	0.160	-0.160	1.670
2020/01/31 23:35:56.3	175.340	0.160	-0.180	1.660
2020/01/31 23:35:56.4	175.340	0.160	-0.200	1.660
2020/01/31 23:35:56.5	175.340	0.160	-0.230	1.650
2020/01/31 23:35:56.6	175.330	0.160	-0.250	1.650
2020/01/31 23:35:56.7	175.330	0.160	-0.270	1.650
2020/01/31 23:35:56.8	175.320	0.150	-0.300	1.650
2020/01/31 23:35:56.9	175.310	0.150	-0.320	1.650
2020/01/31 23:35:57.0	175.300	0.140	-0.350	1.650
2020/01/31 23:35:57.1	175.290	0.140	-0.380	1.640
2020/01/31 23:35:57.2	175.280	0.130	-0.400	1.640
2020/01/31 23:35:57.3	175.270	0.120	-0.430	1.640
2020/01/31 23:35:57.4	175.260	0.110	-0.450	1.640
2020/01/31 23:35:57.5	175.250	0.100	-0.480	1.640
2020/01/31 23:35:57.6	175.240	0.090	-0.500	1.650
2020/01/31 23:35:57.7	175.230	0.080	-0.520	1.650
2020/01/31 23:35:57.8	175.220	0.070	-0.540	1.650
2020/01/31 23:35:57.9	175.210	0.050	-0.550	1.650
2020/01/31 23:35:58.0	175.200	0.040	-0.570	1.650
2020/01/31 23:35:58.1	175.190	0.030	-0.580	1.650
2020/01/31 23:35:58.2	175.180	0.020	-0.580	1.650
2020/01/31 23:35:58.3	175.180	0.010	-0.590	1.650
2020/01/31 23:35:58.4	175.170	-0.010	-0.590	1.640
2020/01/31 23:35:58.5	175.170	-0.020	-0.580	1.640
2020/01/31 23:35:58.6	175.170	-0.030	-0.580	1.630
2020/01/31 23:35:58.7	175.170	-0.040	-0.570	1.620
2020/01/31 23:35:58.8	175.180	-0.050	-0.550	1.610
2020/01/31 23:35:58.9	175.180	-0.060	-0.540	1.590
2020/01/31 23:35:59.0	175.190	-0.070	-0.510	1.570
2020/01/31 23:35:59.1	175.220	-0.070	-0.490	1.550
2020/01/31 23:35:59.2	175.230	-0.080	-0.470	1.530
2020/01/31 23:35:59.3	175.250	-0.090	-0.440	1.510
2020/01/31 23:35:59.4	175.270	-0.100	-0.400	1.480
2020/01/31 23:35:59.5	175.290	-0.100	-0.370	1.460
2020/01/31 23:35:59.6	175.310	-0.110	-0.340	1.430
2020/01/31 23:35:59.7	175.330	-0.120	-0.300	1.400
2020/01/31 23:35:59.8	175.350	-0.120	-0.260	1.370
2020/01/31 23:35:59.9	175.380	-0.130	-0.230	1.340
2020/01/31 23:36:00.0	175.400	-0.130	-0.190	1.310
2020/01/31 23:36:00.1	175.430	-0.140	-0.160	1.290
2020/01/31 23:36:00.2	175.450	-0.140	-0.130	1.260
2020/01/31 23:36:00.3	175.480	-0.140	-0.100	1.240
2020/01/31 23:36:00.4	175.500	-0.150	-0.070	1.210
2020/01/31 23:36:00.5	175.520	-0.150	-0.040	1.190
2020/01/31 23:36:00.6	175.550	-0.150	-0.020	1.170
2020/01/31 23:36:00.7	175.560	-0.150	-0.000	1.150
2020/01/31 23:36:00.8	175.580	-0.150	0.010	1.130
2020/01/31 23:36:00.9	175.600	-0.150	0.020	1.110
2020/01/31 23:36:01.0	175.610	-0.150	0.030	1.100
2020/01/31 23:36:01.1	175.610	-0.150	0.030	1.080
2020/01/31 23:36:01.2	175.620	-0.140	0.020	1.070
2020/01/31 23:36:01.3	175.620	-0.140	0.020	1.060
2020/01/31 23:36:01.4	175.620	-0.130	0.000	1.050
2020/01/31 23:36:01.5	175.620	-0.130	-0.010	1.050
2020/01/31 23:36:01.6	175.610	-0.120	-0.040	1.040
2020/01/31 23:36:01.7	175.600	-0.110	-0.060	1.040
2020/01/31 23:36:01.8	175.590	-0.100	-0.090	1.040
2020/01/31 23:36:01.9	175.580	-0.090	-0.120	1.040
2020/01/31 23:36:02.0	175.560	-0.080	-0.160	1.040
2020/01/31 23:36:02.1	175.530	-0.060	-0.190	1.050
2020/01/31 23:36:02.2	175.510	-0.050	-0.230	1.050
2020/01/31 23:36:02.3	175.490	-0.040	-0.280	1.060
2020/01/31 23:36:02.4	175.470	-0.030	-0.320	1.070
2020/01/31 23:36:02.5	175.440	-0.010	-0.360	1.080
2020/01/31 23:36:02.6	175.420	0.000	-0.400	1.090
2020/01/31 23:36:02.7	175.390	0.020	-0.440	1.100
2020/01/31 23:36:02.8	175.370	0.030	-0.480	1.110
2020/01/31 23:36:02.9	175.340	0.040	-0.510	1.130
2020/01/31 23:36:03.0	175.320	0.050	-0.540	1.140
2020/01/31 23:36:03.1	175.290	0.070	-0.580	1.160
2020/01/31 23:36:03.2	175.270	0.080	-0.600	1.170
2020/01/31 23:36:03.3	175.240	0.090	-0.620	1.190
2020/01/31 23:36:03.4	175.220	0.100	-0.640	1.210
2020/01/31 23:36:03.5	175.200	0.100	-0.650	1.220
2020/01/31 23:36:03.6	175.190	0.110	-0.660	1.240
2020/01/31 23:36:03.7	175.170	0.110	-0.660	1.250
2020/01/31 23:36:03.8	175.160	0.120	-0.660	1.260
2020/01/31 23:36:03.9	175.150	0.120	-0.650	1.280
2020/01/31 23:36:04.0	175.140	0.120	-0.640	1.290
2020/01/31 23:36:04.1	175.140	0.110	-0.620	1.300
2020/01/31 23:36:04.2	175.140	0.110	-0.590	1.310
2020/01/31 23:36:04.3	175.140	0.100	-0.560	1.310
2020/01/31 23:36:04.4	175.140	0.090	-0.530	1.320
2020/01/31 23:36:04.5	175.150	0.080	-0.490	1.320
2020/01/31 23:36:04.6	175.160	0.060	-0.450	1.330
2020/01/31 23:36:04.7	175.170	0.050	-0.400	1.330
2020/01/31 23:36:04.8	175.180	0.030	-0.360	1.330
2020/01/31 23:36:04.9	175.190	0.010	-0.310	1.340
2020/01/31 23:36:05.0	175.210	-0.010	-0.260	1.340
2020/01/31 23:36:05.1	175.230	-0.040	-0.210	1.340
2020/01/31 23:36:05.2	175.240	-0.060	-0.160	1.340
2020/01/31 23:36:05.3	175.260	-0.090	-0.110	1.340
2020/01/31 23:36:05.4	175.280	-0.120	-0.060	1.350
2020/01/31 23:36:05.5	175.300	-0.140	-0.020	1.350
2020/01/31 23:36:05.6	175.310	-0.170	0.030	1.350
2020/01/31 23:36:05.7	175.330	-0.200	0.070	1.350
2020/01/31 23:36:05.8	175.350	-0.230	0.100	1.360
2020/01/31 23:36:05.9	175.360	-0.250	0.140	1.360
2020/01/31 23:36:06.0	175.380	-0.280	0.170	1.360
2020/01/31 23:36:06.1	175.400	-0.300	0.190	1.370
2020/01/31 23:36:06.2	175.420	-0.320	0.220	1.370
2020/01/31 23:36:06.3	175.430	-0.340	0.230	1.380
2020/01/31 23:36:06.4	175.450	-0.360	0.240	1.390
2020/01/31 23:36:06.5	175.460	-0.380	0.250	1.390
2020/01/31 23:36:06.6	175.470	-0.390	0.250	1.400
2020/01/31 23:36:06.7	175.480	-0.400	0.240	1.410
2020/01/31 23:36:06.8	175.480	-0.410	0.240	1.430
2020/01/31 23:36:06.9	175.490	-0.410	0.220	1.440
2020/01/31 23:36:07.0	175.490	-0.410	0.210	1.450
2020/01/31 23:36:07.1	175.500	-0.410	0.180	1.470
2020/01/31 23:36:07.2	175.500	-0.400	0.160	1.490
2020/01/31 23:36:07.3	175.500	-0.390	0.130	1.510
2020/01/31 23:36:07.4	175.490	-0.380	0.100	1.520
2020/01/31 23:36:07.5	175.480	-0.360	0.070	1.540
2020/01/31 23:36:07.6	175.470	-0.350	0.040	1.560
2020/01/31 23:36:07.7	175.460	-0.320	0.000	1.580
2020/01/31 23:36:07.8	175.450	-0.300	-0.040	1.600
2020/01/31 23:36:07.9	175.430	-0.270	-0.070	1.610
2020/01/31 23:36:08.0	175.420	-0.250	-0.110	1.630
2020/01/31 23:36:08.1	175.400	-0.220	-0.150	1.650
2020/01/31 23:36:08.2	175.380	-0.190	-0.180	1.670
2020/01/31 23:36:08.3	175.360	-0.160	-0.220	1.690
2020/01/31 23:36:08.4	175.340	-0.120	-0.260	1.710
2020/01/31 23:36:08.5	175.320	-0.090	-0.290	1.730
2020/01/31 23:36:08.6	175.300	-0.060	-0.320	1.740
2020/01/31 23:36:08.7	175.280	-0.030	-0.350	1.760
2020/01/31 23:36:08.8	175.270	0.000	-0.380	1.770
2020/01/31 23:36:08.9	175.250	0.030	-0.400	1.790
2020/01/31 23:36:09.0	175.230	0.060	-0.430	1.800
2020/01/31 23:36:09.1	175.220	0.090	-0.450	1.810
2020/01/31 23:36:09.2	175.200	0.120	-0.460	1.810
2020/01/31 23:36:09.3	175.190	0.140	-0.480	1.820
2020/01/31 23:36:09.4	175.180	0.170	-0.490	1.820
2020/01/31 23:36:09.5	175.170	0.190	-0.500	1.820
2020/01/31 23:36:09.6	175.160	0.210	-0.510	1.820
2020/01/31 23:36:09.7	175.150	0.230	-0.510	1.810
2020/01/31 23:36:09.8	175.140	0.250	-0.510	1.800
2020/01/31 23:36:09.9	175.130	0.260	-0.510	1.790
2020/01/31 23:36:10.0	175.120	0.270	-0.500	1.780
2020/01/31 23:36:10.1	175.120	0.290	-0.500	1.760
2020/01/31 23:36:10.2	175.120	0.300	-0.490	1.740
2020/01/31 23:36:10.3	175.110	0.300	-0.480	1.720
2020/01/31 23:36:10.4	175.110	0.310	-0.460	1.690
2020/01/31 23:36:10.5	175.110	0.320	-0.450	1.670
2020/01/31 23:36:10.6	175.100	0.320	-0.430	1.640
2020/01/31 23:36:10.7	175.100	0.320	-0.410	1.610
2020/01/31 23:36:10.8	175.100	0.330	-0.390	1.570
2020/01/31 23:36:10.9	175.100	0.330	-0.370	1.540
2020/01/31 23:36:11.0	175.110	0.330	-0.350	1.510
2020/01/31 23:36:11.1	175.110	0.330	-0.330	1.470
2020/01/31 23:36:11.2	175.120	0.330	-0.300	1.440
2020/01/31 23:36:11.3	175.120	0.330	-0.280	1.400
2020/01/31 23:36:11.4	175.120	0.330	-0.260	1.370
2020/01/31 23:36:11.5	175.130	0.330	-0.240	1.340
2020/01/31 23:36:11.6	175.130	0.340	-0.220	1.300
2020/01/31 23:36:11.7	175.140	0.340	-0.200	1.270
2020/01/31 23:36:11.8	175.140	0.340	-0.190	1.240
2020/01/31 23:36:11.9	175.150	0.340	-0.170	1.220
2020/01/31 23:36:12.0	175.160	0.330	-0.150	1.190
2020/01/31 23:36:12.1	175.180	0.330	-0.140	1.160
2020/01/31 23:36:12.2	175.180	0.330	-0.130	1.140
2020/01/31 23:36:12.3	175.190	0.330	-0.120	1.110
2020/01/31 23:36:12.4	175.200	0.320	-0.100	1.090
2020/01/31 23:36:12.5	175.210	0.320	-0.090	1.080
2020/01/31 23:36:12.6	175.220	0.310	-0.080	1.060
2020/01/31 23:36:12.7	175.230	0.300	-0.070	1.050
2020/01/31 23:36:12.8	175.240	0.290	-0.060	1.040
2020/01/31 23:36:12.9	175.250	0.280	-0.050	1.030
2020/01/31 23:36:13.0	175.270	0.260	-0.040	1.030
2020/01/31 23:36:13.1	175.290	0.240	-0.020	1.020
2020/01/31 23:36:13.2	175.300	0.220	-0.010	1.020
2020/01/31 23:36:13.3	175.310	0.200	-0.000	1.030
2020/01/31 23:36:13.4	175.330	0.180	0.010	1.040
2020/01/31 23:36:13.5	175.340	0.150	0.020	1.050
2020/01/31 23:36:13.6	175.350	0.120	0.030	1.060
2020/01/31 23:36:13.7	175.370	0.090	0.040	1.080
2020/01/31 23:36:13.8	175.380	0.060	0.050	1.100
2020/01/31 23:36:13.9	175.390	0.030	0.060	1.120
2020/01/31 23:36:14.0	175.410	-0.000	0.070	1.150
2020/01/31 23:36:14.1	175.420	-0.040	0.070	1.170
2020/01/31 23:36:14.2	175.440	-0.070	0.070	1.200
2020/01/31 23:36:14.3	175.450	-0.100	0.070	1.230
2020/01/31 23:36:14.4	175.460	-0.140	0.070	1.260
2020/01/31 23:36:14.5	175.470	-0.170	0.060	1.300
2020/01/31 23:36:14.6	175.480	-0.200	0.060	1.330
2020/01/31 23:36:14.7	175.490	-0.230	0.050	1.360
2020/01/31 23:36:14.8	175.500	-0.260	0.030	1.390
2020/01/31 23:36:14.9	175.510	-0.290	0.010	1.430
2020/01/31 23:36:15.0	175.520	-0.310	-0.010	1.460
2020/01/31 23:36:15.1	175.520	-0.330	-0.030	1.490
2020/01/31 23:36:15.2	175.530	-0.350	-0.060	1.520
2020/01/31 23:36:15.3	175.530	-0.370	-0.090	1.550
2020/01/31 23:36:15.4	175.540	-0.380	-0.120	1.570
2020/01/31 23:36:15.5	175.550	-0.390	-0.160	1.600
2020/01/31 23:36:15.6	175.550	-0.390	-0.200	1.620
2020/01/31 23:36:15.7	175.560	-0.390	-0.250	1.650
2020/01/31 23:36:15.8	175.560	-0.390	-0.290	1.670
2020/01/31 23:36:15.9	175.570	-0.380	-0.340	1.690
2020/01/31 23:36:16.0	175.570	-0.370	-0.390	1.710
2020/01/31 23:36:16.1	175.570	-0.360	-0.440	1.720
2020/01/31 23:36:16.2	175.570	-0.340	-0.490	1.740
2020/01/31 23:36:16.3	175.570	-0.320	-0.540	1.750
2020/01/31 23:36:16.4	175.570	-0.300	-0.590	1.770
2020/01/31 23:36:16.5	175.570	-0.270	-0.630	1.790
2020/01/31 23:36:16.6	175.560	-0.250	-0.670	1.800
2020/01/31 23:36:16.7	175.560	-0.220	-0.710	1.810
2020/01/31 23:36:16.8	175.550	-0.190	-0.750	1.830
2020/01/31 23:36:16.9	175.550	-0.160	-0.780	1.840
2020/01/31 23:36:17.0	175.540	-0.120	-0.800	1.850
2020/01/31 23:36:17.1	175.530	-0.090	-0.830	1.860
2020/01/31 23:36:17.2	175.530	-0.060	-0.840	1.870
2020/01/31 23:36:17.3	175.520	-0.030	-0.850	1.870
2020/01/31 23:36:17.4	175.520	0.000	-0.860	1.870
2020/01/31 23:36:17.5	175.510	0.030	-0.860	1.880
2020/01/31 23:36:17.6	175.500	0.060	-0.850	1.870
2020/01/31 23:36:17.7	175.500	0.090	-0.840	1.870
2020/01/31 23:36:17.8	175.490	0.110	-0.820	1.860
2020/01/31 23:36:17.9	175.490	0.130	-0.800	1.840
2020/01/31 23:36:18.0	175.480	0.150	-0.770	1.830
2020/01/31 23:36:18.1	175.470	0.170	-0.740	1.810
2020/01/31 23:36:18.2	175.460	0.180	-0.700	1.790
2020/01/31 23:36:18.3	175.460	0.200	-0.670	1.770
2020/01/31 23:36:18.4	175.450	0.210	-0.630	1.740
2020/01/31 23:36:18.5	175.450	0.210	-0.580	1.710
2020/01/31 23:36:18.6	175.440	0.220	-0.540	1.680
2020/01/31 23:36:18.7	175.440	0.220	-0.500	1.640
2020/01/31 23:36:18.8	175.440	0.220	-0.450	1.610
2020/01/31 23:36:18.9	175.430	0.210	-0.410	1.580
2020/01/31 23:36:19.0	175.420	0.210	-0.360	1.540
2020/01/31 23:36:19.1	175.430	0.200	-0.330	1.510
2020/01/31 23:36:19.2	175.430	0.190	-0.290	1.470
2020/01/31 23:36:19.3	175.420	0.190	-0.250	1.440
2020/01/31 23:36:19.4	175.420	0.180	-0.210	1.400
2020/01/31 23:36:19.5	175.410	0.160	-0.180	1.370
2020/01/31 23:36:19.6	175.410	0.150	-0.150	1.340
2020/01/31 23:36:19.7	175.400	0.140	-0.120	1.300
2020/01/31 23:36:19.8	175.390	0.130	-0.100	1.270
2020/01/31 23:36:19.9	175.390	0.120	-0.080	1.240
2020/01/31 23:36:20.0	175.380	0.110	-0.070	1.220
2020/01/31 23:36:20.1	175.370	0.100	-0.060	1.190
2020/01/31 23:36:20.2	175.370	0.090	-0.050	1.170
2020/01/31 23:36:20.3	175.360	0.080	-0.040	1.150
2020/01/31 23:36:20.4	175.350	0.070	-0.040	1.130
2020/01/31 23:36:20.5	175.340	0.060	-0.050	1.110
2020/01/31 23:36:20.6	175.330	0.050	-0.050	1.100
2020/01/31 23:36:20.7	175.320	0.050	-0.060	1.090
2020/01/31 23:36:20.8	175.310	0.040	-0.070	1.080
2020/01/31 23:36:20.9	175.300	0.040	-0.080	1.070
2020/01/31 23:36:21.0	175.290	0.030	-0.090	1.060
2020/01/31 23:36:21.1	175.290	0.030	-0.110	1.060
2020/01/31 23:36:21.2	175.280	0.030	-0.120	1.060
2020/01/31 23:36:21.3	175.280	0.030	-0.140	1.060
2020/01/31 23:36:21.4	175.270	0.030	-0.150	1.060
2020/01/31 23:36:21.5	175.270	0.020	-0.160	1.060
2020/01/31 23:36:21.6	175.260	0.020	-0.170	1.060
2020/01/31 23:36:21.7	175.260	0.020	-0.180	1.060
2020/01/31 23:36:21.8	175.270	0.020	-0.190	1.060
2020/01/31 23:36:21.9	175.270	0.010	-0.200	1.070
2020/01/31 23:36:22.0	175.280	0.010	-0.200	1.070
2020/01/31 23:36:22.1	175.280	0.000	-0.200	1.070
2020/01/31 23:36:22.2	175.300	-0.000	-0.200	1.080
2020/01/31 23:36:22.3	175.310	-0.010	-0.190	1.090
2020/01/31 23:36:22.4	175.330	-0.020	-0.180	1.090
2020/01/31 23:36:22.5	175.350	-0.030	-0.170	1.100
2020/01/31 23:36:22.6	175.370	-0.040	-0.160	1.110
2020/01/31 23:36:22.7	175.400	-0.050	-0.140	1.120
2020/01/31 23:36:22.8	175.420	-0.070	-0.130	1.140
2020/01/31 23:36:22.9	175.450	-0.080	-0.110	1.150
2020/01/31 23:36:23.0	175.480	-0.100	-0.090	1.160
2020/01/31 23:36:23.1	175.510	-0.110	-0.070	1.170
2020/01/31 23:36:23.2	175.540	-0.130	-0.050	1.190
2020/01/31 23:36:23.3	175.560	-0.150	-0.040	1.200
2020/01/31 23:36:23.4	175.590	-0.170	-0.020	1.210
2020/01/31 23:36:23.5	175.610	-0.180	0.000	1.220
2020/01/31 23:36:23.6	175.640	-0.200	0.020	1.230
2020/01/31 23:36:23.7	175.660	-0.220	0.030	1.250
2020/01/31 23:36:23.8	175.680	-0.240	0.040	1.260
2020/01/31 23:36:23.9	175.700	-0.260	0.050	1.270
2020/01/31 23:36:24.0	175.720	-0.270	0.050	1.280
2020/01/31 23:36:24.1	175.730	-0.290	0.060	1.300
2020/01/31 23:36:24.2	175.750	-0.300	0.050	1.320
2020/01/31 23:36:24.3	175.760	-0.310	0.050	1.330
2020/01/31 23:36:24.4	175.770	-0.320	0.040	1.350
2020/01/31 23:36:24.5	175.780	-0.330	0.030	1.370
2020/01/31 23:36:24.6	175.790	-0.340	0.010	1.390
2020/01/31 23:36:24.7	175.800	-0.350	-0.010	1.410
2020/01/31 23:36:24.8	175.810	-0.350	-0.030	1.440
2020/01/31 23:36:24.9	175.810	-0.350	-0.050	1.460
2020/01/31 23:36:25.0	175.810	-0.350	-0.080	1.490
2020/01/31 23:36:25.1	175.810	-0.350	-0.120	1.520
2020/01/31 23:36:25.2	175.810	-0.350	-0.150	1.550
2020/01/31 23:36:25.3	175.810	-0.340	-0.190	1.580
2020/01/31 23:36:25.4	175.810	-0.330	-0.230	1.610
2020/01/31 23:36:25.5	175.800	-0.320	-0.270	1.650
2020/01/31 23:36:25.6	175.800	-0.310	-0.320	1.680
2020/01/31 23:36:25.7	175.790	-0.290	-0.360	1.710
2020/01/31 23:36:25.8	175.780	-0.270	-0.410	1.750
2020/01/31 23:36:25.9	175.770	-0.250	-0.450	1.780
2020/01/31 23:36:26.0	175.760	-0.230	-0.500	1.810
2020/01/31 23:36:26.1	175.760	-0.210	-0.540	1.840
2020/01/31 23:36:26.2	175.750	-0.180	-0.590	1.860
2020/01/31 23:36:26.3	175.730	-0.150	-0.630	1.890
2020/01/31 23:36:26.4	175.720	-0.120	-0.670	1.910
2020/01/31 23:36:26.5	175.700	-0.090	-0.700	1.930
2020/01/31 23:36:26.6	175.680	-0.060	-0.740	1.940
2020/01/31 23:36:26.7	175.660	-0.030	-0.770	1.960
2020/01/31 23:36:26.8	175.640	-0.000	-0.790	1.960
2020/01/31 23:36:26.9	175.630	0.030	-0.810	1.970
2020/01/31 23:36:27.0	175.610	0.060	-0.820	1.970
2020/01/31 23:36:27.1	175.600	0.080	-0.830	1.970
2020/01/31 23:36:27.2	175.590	0.110	-0.820	1.960
2020/01/31 23:36:27.3	175.570	0.130	-0.810	1.950
2020/01/31 23:36:27.4	175.560	0.150	-0.800	1.940
2020/01/31 23:36:27.5	175.560	0.170	-0.770	1.920
2020/01/31 23:36:27.6	175.550	0.180	-0.740	1.900
2020/01/31 23:36:27.7	175.550	0.190	-0.700	1.880
2020/01/31 23:36:27.8	175.550	0.200	-0.650	1.850
2020/01/31 23:36:27.9	175.560	0.200	-0.600	1.830
2020/01/31 23:36:28.0	175.560	0.200	-0.550	1.800
2020/01/31 23:36:28.1	175.580	0.200	-0.480	1.770
2020/01/31 23:36:28.2	175.590	0.190	-0.420	1.740
2020/01/31 23:36:28.3	175.610	0.180	-0.350	1.710
2020/01/31 23:36:28.4	175.620	0.170	-0.280	1.690
2020/01/31 23:36:28.5	175.640	0.150	-0.210	1.660
2020/01/31 23:36:28.6	175.660	0.130	-0.140	1.630
2020/01/31 23:36:28.7	175.680	0.110	-0.080	1.610
2020/01/31 23:36:28.8	175.700	0.090	-0.010	1.590
2020/01/31 23:36:28.9	175.720	0.060	0.060	1.560
2020/01/31 23:36:29.0	175.740	0.030	0.120	1.540
2020/01/31 23:36:29.1	175.770	0.010	0.170	1.530
2020/01/31 23:36:29.2	175.790	-0.020	0.220	1.510
2020/01/31 23:36:29.3	175.810	-0.050	0.260	1.500
2020/01/31 23:36:29.4	175.820	-0.080	0.300	1.480
2020/01/31 23:36:29.5	175.840	-0.110	0.330	1.470
2020/01/31 23:36:29.6	175.850	-0.130	0.360	1.470
2020/01/31 23:36:29.7	175.860	-0.150	0.370	1.460
2020/01/31 23:36:29.8	175.870	-0.180	0.380	1.450
2020/01/31 23:36:29.9	175.870	-0.190	0.380	1.450
2020/01/31 23:36:30.0	175.870	-0.210	0.370	1.450
2020/01/31 23:36:30.1	175.880	-0.220	0.360	1.450
2020/01/31 23:36:30.2	175.880	-0.230	0.340	1.450
2020/01/31 23:36:30.3	175.870	-0.230	0.310	1.450
2020/01/31 23:36:30.4	175.860	-0.230	0.280	1.450
2020/01/31 23:36:30.5	175.850	-0.220	0.230	1.460
2020/01/31 23:36:30.6	175.830	-0.210	0.190	1.460
2020/01/31 23:36:30.7	175.820	-0.200	0.140	1.470
2020/01/31 23:36:30.8	175.800	-0.180	0.080	1.480
2020/01/31 23:36:30.9	175.780	-0.160	0.020	1.480
2020/01/31 23:36:31.0	175.760	-0.130	-0.040	1.490
2020/01/31 23:36:31.1	175.720	-0.100	-0.110	1.500
2020/01/31 23:36:31.2	175.690	-0.070	-0.170	1.520
2020/01/31 23:36:31.3	175.670	-0.030	-0.230	1.530
2020/01/31 23:36:31.4	175.640	0.010	-0.280	1.540
2020/01/31 23:36:31.5	175.620	0.050	-0.340	1.550
2020/01/31 23:36:31.6	175.590	0.090	-0.390	1.570
2020/01/31 23:36:31.7	175.570	0.130	-0.430	1.580
2020/01/31 23:36:31.8	175.540	0.170	-0.470	1.590
2020/01/31 23:36:31.9	175.520	0.210	-0.510	1.610
2020/01/31 23:36:32.0	175.500	0.250	-0.540	1.620
2020/01/31 23:36:32.1	175.470	0.290	-0.550	1.620
2020/01/31 23:36:32.2	175.450	0.330	-0.570	1.630
2020/01/31 23:36:32.3	175.440	0.360	-0.570	1.640
2020/01/31 23:36:32.4	175.430	0.390	-0.570	1.640
2020/01/31 23:36:32.5	175.420	0.410	-0.560	1.630
2020/01/31 23:36:32.6	175.420	0.430	-0.540	1.630
2020/01/31 23:36:32.7	175.420	0.450	-0.510	1.620
2020/01/31 23:36:32.8	175.430	0.460	-0.480	1.610
2020/01/31 23:36:32.9	175.430	0.470	-0.440	1.600
2020/01/31 23:36:33.0	175.450	0.470	-0.400	1.580
2020/01/31 23:36:33.1	175.460	0.470	-0.350	1.560
2020/01/31 23:36:33.2	175.480	0.460	-0.290	1.540
2020/01/31 23:36:33.3	175.500	0.440	-0.230	1.520
2020/01/31 23:36:33.4	175.530	0.420	-0.170	1.500
2020/01/31 23:36:33.5	175.560	0.400	-0.110	1.470
2020/01/31 23:36:33.6	175.590	0.370	-0.050	1.450
2020/01/31 23:36:33.7	175.620	0.340	0.020	1.420
2020/01/31 23:36:33.8	175.650	0.300	0.080	1.400
2020/01/31 23:36:33.9	175.690	0.260	0.140	1.370
2020/01/31 23:36:34.0	175.730	0.220	0.200	1.350
2020/01/31 23:36:34.1	175.770	0.170	0.260	1.320
2020/01/31 23:36:34.2	175.800	0.130	0.310	1.300
2020/01/31 23:36:34.3	175.850	0.080	0.360	1.280
2020/01/31 23:36:34.4	175.890	0.030	0.400	1.260
2020/01/31 23:36:34.5	175.930	-0.010	0.440	1.240
2020/01/31 23:36:34.6	175.970	-0.060	0.470	1.220
2020/01/31 23:36:34.7	176.010	-0.100	0.490	1.210
2020/01/31 23:36:34.8	176.040	-0.150	0.500	1.190
2020/01/31 23:36:34.9	176.080	-0.190	0.510	1.180
2020/01/31 23:36:35.0	176.110	-0.220	0.500	1.170
2020/01/31 23:36:35.1	176.160	-0.250	0.490	1.160
2020/01/31 23:36:35.2	176.190	-0.280	0.470	1.150
2020/01/31 23:36:35.3	176.210	-0.310	0.440	1.140
2020/01/31 23:36:35.4	176.230	-0.320	0.400	1.130
2020/01/31 23:36:35.5	176.250	-0.340	0.350	1.130
2020/01/31 23:36:35.6	176.270	-0.340	0.290	1.130
2020/01/31 23:36:35.7	176.280	-0.350	0.220	1.120
2020/01/31 23:36:35.8	176.290	-0.340	0.150	1.120
2020/01/31 23:36:35.9	176.300	-0.340	0.060	1.120
2020/01/31 23:36:36.0	176.310	-0.320	-0.020	1.130
2020/01/31 23:36:36.1	176.310	-0.300	-0.120	1.140
2020/01/31 23:36:36.2	176.310	-0.280	-0.220	1.150
2020/01/31 23:36:36.3	176.310	-0.250	-0.320	1.150
2020/01/31 23:36:36.4	176.310	-0.220	-0.420	1.170
2020/01/31 23:36:36.5	176.300	-0.190	-0.530	1.180
2020/01/31 23:36:36.6	176.290	-0.150	-0.630	1.200
2020/01/31 23:36:36.7	176.290	-0.110	-0.740	1.220
2020/01/31 23:36:36.8	176.280	-0.070	-0.840	1.240
2020/01/31 23:36:36.9	176.260	-0.020	-0.940	1.260
2020/01/31 23:36:37.0	176.250	0.020	-1.030	1.290
2020/01/31 23:36:37.1	176.240	0.070	-1.120	1.310
2020/01/31 23:36:37.2	176.220	0.120	-1.200	1.340
2020/01/31 23:36:37.3	176.210	0.160	-1.280	1.360
2020/01/31 23:36:37.4	176.200	0.210	-1.350	1.390
2020/01/31 23:36:37.5	176.180	0.250	-1.410	1.410
2020/01/31 23:36:37.6	176.170	0.290	-1.460	1.440
2020/01/31 23:36:37.7	176.160	0.330	-1.490	1.460
2020/01/31 23:36:37.8	176.150	0.370	-1.520	1.470
2020/01/31 23:36:37.9	176.140	0.400	-1.540	1.490
2020/01/31 23:36:38.0	176.130	0.430	-1.550	1.500
2020/01/31 23:36:38.1	176.090	0.460	-1.540	1.510
2020/01/31 23:36:38.2	176.090	0.480	-1.530	1.520
2020/01/31 23:36:38.3	176.080	0.500	-1.500	1.520
2020/01/31 23:36:38.4	176.070	0.510	-1.460	1.510
2020/01/31 23:36:38.5	176.070	0.520	-1.420	1.500
2020/01/31 23:36:38.6	176.060	0.520	-1.360	1.490
2020/01/31 23:36:38.7	176.060	0.520	-1.300	1.480
2020/01/31 23:36:38.8	176.060	0.510	-1.220	1.460
2020/01/31 23:36:38.9	176.060	0.490	-1.140	1.440
2020/01/31 23:36:39.0	176.060	0.470	-1.060	1.410
2020/01/31 23:36:39.1	176.040	0.450	-0.970	1.380
2020/01/31 23:36:39.2	176.050	0.420	-0.880	1.350
2020/01/31 23:36:39.3	176.050	0.390	-0.780	1.330
2020/01/31 23:36:39.4	176.060	0.350	-0.680	1.300
2020/01/31 23:36:39.5	176.060	0.310	-0.590	1.270
2020/01/31 23:36:39.6	176.070	0.270	-0.490	1.240
2020/01/31 23:36:39.7	176.080	0.220	-0.390	1.220
2020/01/31 23:36:39.8	176.080	0.170	-0.300	1.190
2020/01/31 23:36:39.9	176.090	0.120	-0.210	1.170
2020/01/31 23:36:40.0	176.100	0.070	-0.120	1.150
2020/01/31 23:36:40.1	176.120	0.010	-0.030	1.130
2020/01/31 23:36:40.2	176.120	-0.040	0.040	1.120
2020/01/31 23:36:40.3	176.130	-0.100	0.110	1.100
2020/01/31 23:36:40.4	176.130	-0.150	0.170	1.090
2020/01/31 23:36:40.5	176.130	-0.200	0.230	1.080
2020/01/31 23:36:40.6	176.130	-0.250	0.280	1.080
2020/01/31 23:36:40.7	176.130	-0.300	0.310	1.080
2020/01/31 23:36:40.8	176.130	-0.350	0.350	1.080
2020/01/31 23:36:40.9	176.130	-0.390	0.370	1.090
2020/01/31 23:36:41.0	176.120	-0.430	0.380	1.090
2020/01/31 23:36:41.1	176.110	-0.470	0.390	1.100
2020/01/31 23:36:41.2	176.100	-0.500	0.380	1.120
2020/01/31 23:36:41.3	176.100	-0.530	0.370	1.130
2020/01/31 23:36:41.4	176.090	-0.560	0.360	1.150
2020/01/31 23:36:41.5	176.080	-0.580	0.330	1.170
2020/01/31 23:36:41.6	176.070	-0.600	0.300	1.190
2020/01/31 23:36:41.7	176.060	-0.610	0.270	1.210
2020/01/31 23:36:41.8	176.040	-0.610	0.230	1.230
2020/01/31 23:36:41.9	176.030	-0.620	0.180	1.250
2020/01/31 23:36:42.0	176.020	-0.620	0.140	1.270
2020/01/31 23:36:42.1	175.980	-0.610	0.090	1.300
2020/01/31 23:36:42.2	175.970	-0.600	0.040	1.320
2020/01/31 23:36:42.3	175.950	-0.590	-0.010	1.340
2020/01/31 23:36:42.4	175.940	-0.570	-0.060	1.360
2020/01/31 23:36:42.5	175.920	-0.550	-0.110	1.380
2020/01/31 23:36:42.6	175.910	-0.530	-0.160	1.410
2020/01/31 23:36:42.7	175.890	-0.510	-0.210	1.430
2020/01/31 23:36:42.8	175.870	-0.480	-0.250	1.450
2020/01/31 23:36:42.9	175.860	-0.450	-0.290	1.470
2020/01/31 23:36:43.0	175.840	-0.430	-0.330	1.490
2020/01/31 23:36:43.1	175.830	-0.400	-0.370	1.510
2020/01/31 23:36:43.2	175.810	-0.370	-0.400	1.540
2020/01/31 23:36:43.3	175.800	-0.340	-0.420	1.560
2020/01/31 23:36:43.4	175.780	-0.310	-0.440	1.590
2020/01/31 23:36:43.5	175.770	-0.280	-0.460	1.620
2020/01/31 23:36:43.6	175.750	-0.250	-0.460	1.650
2020/01/31 23:36:43.7	175.730	-0.230	-0.470	1.670
2020/01/31 23:36:43.8	175.720	-0.210	-0.460	1.700
2020/01/31 23:36:43.9	175.700	-0.180	-0.460	1.740
2020/01/31 23:36:44.0	175.690	-0.160	-0.440	1.770
2020/01/31 23:36:44.1	175.690	-0.150	-0.420	1.800
2020/01/31 23:36:44.2	175.680	-0.130	-0.390	1.830
2020/01/31 23:36:44.3	175.670	-0.120	-0.360	1.850
2020/01/31 23:36:44.4	175.660	-0.110	-0.330	1.880
2020/01/31 23:36:44.5	175.650	-0.100	-0.290	1.900
2020/01/31 23:36:44.6	175.650	-0.100	-0.250	1.920
2020/01/31 23:36:44.7	175.640	-0.100	-0.200	1.940
2020/01/31 23:36:44.8	175.640	-0.100	-0.150	1.950
2020/01/31 23:36:44.9	175.640	-0.100	-0.100	1.960
2020/01/31 23:36:45.0	175.650	-0.110	-0.040	1.970
2020/01/31 23:36:45.1	175.650	-0.120	0.010	1.970
2020/01/31 23:36:45.2	175.660	-0.130	0.070	1.970
2020/01/31 23:36:45.3	175.670	-0.140	0.130	1.970
2020/01/31 23:36:45.4	175.680	-0.160	0.190	1.960
2020/01/31 23:36:45.5	175.690	-0.170	0.260	1.940
2020/01/31 23:36:45.6	175.710	-0.190	0.320	1.920
2020/01/31 23:36:45.7	175.730	-0.210	0.380	1.900
2020/01/31 23:36:45.8	175.750	-0.220	0.430	1.880
2020/01/31 23:36:45.9	175.770	-0.240	0.490	1.850
2020/01/31 23:36:46.0	175.790	-0.260	0.540	1.820
2020/01/31 23:36:46.1	175.810	-0.270	0.590	1.790
2020/01/31 23:36:46.2	175.830	-0.290	0.630	1.750
2020/01/31 23:36:46.3	175.860	-0.300	0.670	1.710
2020/01/31 23:36:46.4	175.880	-0.310	0.700	1.670
2020/01/31 23:36:46.5	175.910	-0.320	0.720	1.630
2020/01/31 23:36:46.6	175.940	-0.330	0.730	1.590
2020/01/31 23:36:46.7	175.960	-0.330	0.740	1.540
2020/01/31 23:36:46.8	175.990	-0.330	0.740	1.500
2020/01/31 23:36:46.9	176.010	-0.330	0.730	1.460
2020/01/31 23:36:47.0	176.030	-0.320	0.710	1.410
2020/01/31 23:36:47.1	176.070	-0.310	0.680	1.370
2020/01/31 23:36:47.2	176.090	-0.290	0.640	1.330
2020/01/31 23:36:47.3	176.100	-0.270	0.600	1.290
2020/01/31 23:36:47.4	176.120	-0.250	0.550	1.250
2020/01/31 23:36:47.5	176.130	-0.220	0.490	1.220
2020/01/31 23:36:47.6	176.150	-0.180	0.420	1.180
2020/01/31 23:36:47.7	176.160	-0.140	0.350	1.150
2020/01/31 23:36:47.8	176.170	-0.100	0.270	1.120
2020/01/31 23:36:47.9	176.170	-0.050	0.190	1.080
2020/01/31 23:36:48.0	176.180	-0.000	0.100	1.050
2020/01/31 23:36:48.1	176.190	0.050	0.010	1.030
2020/01/31 23:36:48.2	176.190	0.110	-0.080	1.000
2020/01/31 23:36:48.3	176.190	0.170	-0.180	0.970
2020/01/31 23:36:48.4	176.190	0.230	-0.270	0.940
2020/01/31 23:36:48.5	176.190	0.300	-0.370	0.920
2020/01/31 23:36:48.6	176.180	0.360	-0.460	0.890
2020/01/31 23:36:48.7	176.170	0.430	-0.560	0.870
2020/01/31 23:36:48.8	176.160	0.500	-0.650	0.850
2020/01/31 23:36:48.9	176.150	0.570	-0.730	0.830
2020/01/31 23:36:49.0	176.140	0.630	-0.820	0.810
2020/01/31 23:36:49.1	176.110	0.700	-0.900	0.790
2020/01/31 23:36:49.2	176.100	0.760	-0.970	0.780
2020/01/31 23:36:49.3	176.080	0.820	-1.040	0.770
2020/01/31 23:36:49.4	176.060	0.880	-1.100	0.760
2020/01/31 23:36:49.5	176.040	0.930	-1.150	0.750
2020/01/31 23:36:49.6	176.030	0.980	-1.200	0.750
2020/01/31 23:36:49.7	176.010	1.020	-1.240	0.750
2020/01/31 23:36:49.8	176.000	1.050	-1.270	0.750
2020/01/31 23:36:49.9	175.980	1.080	-1.290	0.750
2020/01/31 23:36:50.0	175.970	1.100	-1.300	0.760
2020/01/31 23:36:50.1	175.950	1.120	-1.290	0.770
2020/01/31 23:36:50.2	175.940	1.120	-1.280	0.780
2020/01/31 23:36:50.3	175.940	1.120	-1.270	0.800
2020/01/31 23:36:50.4	175.940	1.110	-1.240	0.820
2020/01/31 23:36:50.5	175.940	1.090	-1.210	0.840
2020/01/31 23:36:50.6	175.950	1.060	-1.160	0.870
2020/01/31 23:36:50.7	175.960	1.030	-1.110	0.890
2020/01/31 23:36:50.8	175.970	0.980	-1.050	0.930
2020/01/31 23:36:50.9	175.980	0.930	-0.980	0.960
2020/01/31 23:36:51.0	176.000	0.870	-0.910	1.000
2020/01/31 23:36:51.1	176.000	0.810	-0.840	1.040
2020/01/31 23:36:51.2	176.020	0.730	-0.750	1.080
2020/01/31 23:36:51.3	176.050	0.660	-0.670	1.120
2020/01/31 23:36:51.4	176.070	0.570	-0.570	1.160
2020/01/31 23:36:51.5	176.100	0.490	-0.480	1.200
2020/01/31 23:36:51.6	176.130	0.390	-0.380	1.250
2020/01/31 23:36:51.7	176.160	0.300	-0.290	1.290
2020/01/31 23:36:51.8	176.190	0.200	-0.190	1.330
2020/01/31 23:36:51.9	176.220	0.110	-0.090	1.370
2020/01/31 23:36:52.0	176.250	0.010	-0.000	1.400
2020/01/31 23:36:52.1	176.310	-0.090	0.090	1.440
2020/01/31 23:36:52.2	176.340	-0.190	0.180	1.480
2020/01/31 23:36:52.3	176.370	-0.280	0.260	1.510
2020/01/31 23:36:52.4	176.400	-0.380	0.330	1.550
2020/01/31 23:36:52.5	176.440	-0.460	0.400	1.580
2020/01/31 23:36:52.6	176.470	-0.550	0.460	1.610
2020/01/31 23:36:52.7	176.490	-0.630	0.510	1.640
2020/01/31 23:36:52.8	176.520	-0.700	0.550	1.660
2020/01/31 23:36:52.9	176.550	-0.770	0.570	1.690
2020/01/31 23:36:53.0	176.570	-0.820	0.590	1.710
2020/01/31 23:36:53.1	176.600	-0.880	0.600	1.740
2020/01/31 23:36:53.2	176.620	-0.920	0.600	1.770
2020/01/31 23:36:53.3	176.640	-0.960	0.590	1.790
2020/01/31 23:36:53.4	176.660	-0.980	0.560	1.810
2020/01/31 23:36:53.5	176.680	-1.000	0.530	1.830
2020/01/31 23:36:53.6	176.690	-1.010	0.480	1.840
2020/01/31 23:36:53.7	176.700	-1.010	0.430	1.860
2020/01/31 23:36:53.8	176.710	-1.000	0.370	1.880
2020/01/31 23:36:53.9	176.720	-0.980	0.300	1.890
2020/01/31 23:36:54.0	176.720	-0.950	0.220	1.910
2020/01/31 23:36:54.1	176.730	-0.920	0.140	1.920
2020/01/31 23:36:54.2	176.730	-0.870	0.050	1.930
2020/01/31 23:36:54.3	176.730	-0.820	-0.040	1.950
2020/01/31 23:36:54.4	176.720	-0.760	-0.140	1.960
2020/01/31 23:36:54.5	176.710	-0.700	-0.240	1.980
2020/01/31 23:36:54.6	176.690	-0.630	-0.340	2.000
2020/01/31 23:36:54.7	176.670	-0.550	-0.440	2.010
2020/01/31 23:36:54.8	176.650	-0.470	-0.540	2.030
2020/01/31 23:36:54.9	176.630	-0.390	-0.640	2.040
2020/01/31 23:36:55.0	176.600	-0.300	-0.740	2.060
2020/01/31 23:36:55.1	176.560	-0.210	-0.830	2.080
2020/01/31 23:36:55.2	176.530	-0.120	-0.910	2.090
2020/01/31 23:36:55.3	176.490	-0.030	-0.990	2.100
2020/01/31 23:36:55.4	176.450	0.060	-1.060	2.110
2020/01/31 23:36:55.5	176.420	0.150	-1.130	2.120
2020/01/31 23:36:55.6	176.380	0.240	-1.180	2.120
2020/01/31 23:36:55.7	176.340	0.320	-1.230	2.120
2020/01/31 23:36:55.8	176.310	0.400	-1.270	2.120
2020/01/31 23:36:55.9	176.270	0.470	-1.300	2.110
2020/01/31 23:36:56.0	176.230	0.540	-1.320	2.100
2020/01/31 23:36:56.1	176.200	0.600	-1.320	2.080
2020/01/31 23:36:56.2	176.160	0.660	-1.320	2.060
2020/01/31 23:36:56.3	176.130	0.710	-1.310	2.050
2020/01/31 23:36:56.4	176.100	0.750	-1.290	2.020
2020/01/31 23:36:56.5	176.070	0.790	-1.260	2.000
2020/01/31 23:36:56.6	176.040	0.810	-1.220	1.970
2020/01/31 23:36:56.7	176.010	0.830	-1.180	1.940
2020/01/31 23:36:56.8	175.990	0.850	-1.120	1.910
2020/01/31 23:36:56.9	175.960	0.850	-1.060	1.880
2020/01/31 23:36:57.0	175.940	0.850	-1.000	1.850
2020/01/31 23:36:57.1	175.900	0.840	-0.930	1.810
2020/01/31 23:36:57.2	175.880	0.820	-0.850	1.770
2020/01/31 23:36:57.3	175.870	0.790	-0.780	1.730
2020/01/31 23:36:57.4	175.850	0.760	-0.690	1.690
2020/01/31 23:36:57.5	175.840	0.720	-0.610	1.650
2020/01/31 23:36:57.6	175.830	0.680	-0.520	1.610
2020/01/31 23:36:57.7	175.830	0.630	-0.440	1.570
2020/01/31 23:36:57.8	175.820	0.570	-0.350	1.520
2020/01/31 23:36:57.9	175.820	0.510	-0.260	1.480
2020/01/31 23:36:58.0	175.820	0.450	-0.180	1.440
2020/01/31 23:36:58.1	175.820	0.380	-0.090	1.400
2020/01/31 23:36:58.2	175.820	0.310	-0.010	1.360
2020/01/31 23:36:58.3	175.830	0.240	0.070	1.310
2020/01/31 23:36:58.4	175.840	0.170	0.150	1.270
2020/01/31 23:36:58.5	175.860	0.090	0.220	1.240
2020/01/31 23:36:58.6	175.880	0.020	0.300	1.200
2020/01/31 23:36:58.7	175.900	-0.060	0.370	1.160
2020/01/31 23:36:58.8	175.920	-0.130	0.430	1.130
2020/01/31 23:36:58.9	175.950	-0.210	0.490	1.090
2020/01/31 23:36:59.0	175.980	-0.280	0.550	1.060
2020/01/31 23:36:59.1	176.030	-0.360	0.610	1.030
2020/01/31 23:36:59.2	176.070	-0.430	0.650	1.000
2020/01/31 23:36:59.3	176.110	-0.490	0.700	0.980
2020/01/31 23:36:59.4	176.150	-0.560	0.740	0.950
2020/01/31 23:36:59.5	176.200	-0.620	0.780	0.930
2020/01/31 23:36:59.6	176.240	-0.680	0.810	0.920
2020/01/31 23:36:59.7	176.290	-0.730	0.830	0.900
2020/01/31 23:36:59.8	176.340	-0.780	0.860	0.880
2020/01/31 23:36:59.9	176.390	-0.820	0.880	0.870
2020/01/31 23:37:00.0	176.440	-0.860	0.890	0.860
2020/01/31 23:37:00.1	176.490	-0.890	0.890	0.850
2020/01/31 23:37:00.2	176.540	-0.920	0.900	0.840
2020/01/31 23:37:00.3	176.590	-0.940	0.900	0.830
2020/01/31 23:37:00.4	176.650	-0.950	0.890	0.830
2020/01/31 23:37:00.5	176.700	-0.960	0.890	0.820
2020/01/31 23:37:00.6	176.750	-0.960	0.870	0.810
2020/01/31 23:37:00.7	176.800	-0.960	0.850	0.810
2020/01/31 23:37:00.8	176.850	-0.950	0.830	0.810
2020/01/31 23:37:00.9	176.900	-0.930	0.800	0.800
2020/01/31 23:37:01.0	176.950	-0.910	0.760	0.800
2020/01/31 23:37:01.1	176.990	-0.880	0.730	0.800
2020/01/31 23:37:01.2	177.030	-0.850	0.680	0.810
2020/01/31 23:37:01.3	177.070	-0.810	0.620	0.810
2020/01/31 23:37:01.4	177.110	-0.760	0.560	0.810
2020/01/31 23:37:01.5	177.140	-0.710	0.490	0.820
2020/01/31 23:37:01.6	177.170	-0.650	0.420	0.830
2020/01/31 23:37:01.7	177.190	-0.590	0.340	0.840
2020/01/31 23:37:01.8	177.210	-0.530	0.250	0.850
2020/01/31 23:37:01.9	177.220	-0.460	0.160	0.860
2020/01/31 23:37:02.0	177.230	-0.380	0.060	0.880
2020/01/31 23:37:02.1	177.230	-0.310	-0.050	0.890
2020/01/31 23:37:02.2	177.230	-0.230	-0.150	0.910
2020/01/31 23:37:02.3	177.230	-0.150	-0.260	0.930
2020/01/31 23:37:02.4	177.220	-0.060	-0.370	0.950
2020/01/31 23:37:02.5	177.210	0.020	-0.490	0.970
2020/01/31 23:37:02.6	177.190	0.100	-0.600	1.000
2020/01/31 23:37:02.7	177.170	0.190	-0.710	1.020
2020/01/31 23:37:02.8	177.140	0.270	-0.820	1.050
2020/01/31 23:37:02.9	177.120	0.350	-0.930	1.080
2020/01/31 23:37:03.0	177.090	0.430	-1.030	1.110
2020/01/31 23:37:03.1	177.040	0.510	-1.120	1.150
2020/01/31 23:37:03.2	177.010	0.580	-1.210	1.180
2020/01/31 23:37:03.3	176.970	0.650	-1.300	1.220
2020/01/31 23:37:03.4	176.940	0.710	-1.370	1.250
2020/01/31 23:37:03.5	176.900	0.770	-1.440	1.290
2020/01/31 23:37:03.6	176.860	0.820	-1.490	1.320
2020/01/31 23:37:03.7	176.830	0.870	-1.540	1.360
2020/01/31 23:37:03.8	176.800	0.910	-1.570	1.390
2020/01/31 23:37:03.9	176.770	0.940	-1.590	1.420
2020/01/31 23:37:04.0	176.740	0.970	-1.600	1.450
2020/01/31 23:37:04.1	176.730	0.990	-1.600	1.480
2020/01/31 23:37:04.2	176.710	1.000	-1.580	1.500
2020/01/31 23:37:04.3	176.690	1.010	-1.540	1.520
2020/01/31 23:37:04.4	176.670	1.010	-1.500	1.540
2020/01/31 23:37:04.5	176.660	1.000	-1.440	1.550
2020/01/31 23:37:04.6	176.650	0.980	-1.370	1.560
2020/01/31 23:37:04.7	176.640	0.960	-1.280	1.560
2020/01/31 23:37:04.8	176.640	0.930	-1.190	1.570
2020/01/31 23:37:04.9	176.640	0.890	-1.090	1.560
2020/01/31 23:37:05.0	176.640	0.850	-0.980	1.560
2020/01/31 23:37:05.1	176.640	0.800	-0.860	1.550
2020/01/31 23:37:05.2	176.650	0.750	-0.740	1.540
2020/01/31 23:37:05.3	176.660	0.690	-0.620	1.530
2020/01/31 23:37:05.4	176.670	0.630	-0.490	1.510
2020/01/31 23:37:05.5	176.680	0.560	-0.360	1.500
2020/01/31 23:37:05.6	176.690	0.490	-0.230	1.480
2020/01/31 23:37:05.7	176.710	0.420	-0.110	1.460
2020/01/31 23:37:05.8	176.720	0.350	0.010	1.440
2020/01/31 23:37:05.9	176.740	0.270	0.130	1.430
2020/01/31 23:37:06.0	176.750	0.200	0.240	1.410
2020/01/31 23:37:06.1	176.780	0.130	0.340	1.390
2020/01/31 23:37:06.2	176.790	0.050	0.440	1.370
2020/01/31 23:37:06.3	176.800	-0.020	0.520	1.360
2020/01/31 23:37:06.4	176.810	-0.090	0.600	1.350
2020/01/31 23:37:06.5	176.820	-0.160	0.670	1.340
2020/01/31 23:37:06.6	176.830	-0.220	0.720	1.330
2020/01/31 23:37:06.7	176.830	-0.280	0.770	1.320
2020/01/31 23:37:06.8	176.840	-0.340	0.800	1.320
2020/01/31 23:37:06.9	176.840	-0.390	0.820	1.310
2020/01/31 23:37:07.0	176.830	-0.440	0.830	1.320
2020/01/31 23:37:07.1	176.840	-0.480	0.830	1.320
2020/01/31 23:37:07.2	176.830	-0.520	0.810	1.330
2020/01/31 23:37:07.3	176.820	-0.540	0.790	1.340
2020/01/31 23:37:07.4	176.800	-0.570	0.750	1.360
2020/01/31 23:37:07.5	176.780	-0.590	0.700	1.380
2020/01/31 23:37:07.6	176.760	-0.600	0.650	1.400
2020/01/31 23:37:07.7	176.740	-0.600	0.580	1.420
2020/01/31 23:37:07.8	176.710	-0.600	0.510	1.450
2020/01/31 23:37:07.9	176.690	-0.600	0.430	1.480
2020/01/31 23:37:08.0	176.660	-0.590	0.350	1.510
2020/01/31 23:37:08.1	176.640	-0.570	0.260	1.540
2020/01/31 23:37:08.2	176.610	-0.550	0.170	1.570
2020/01/31 23:37:08.3	176.570	-0.530	0.080	1.600
2020/01/31 23:37:08.4	176.540	-0.500	-0.010	1.640
2020/01/31 23:37:08.5	176.500	-0.460	-0.110	1.670
2020/01/31 23:37:08.6	176.470	-0.430	-0.200	1.700
2020/01/31 23:37:08.7	176.430	-0.390	-0.280	1.730
2020/01/31 23:37:08.8	176.390	-0.350	-0.370	1.760
2020/01/31 23:37:08.9	176.360	-0.310	-0.450	1.780
2020/01/31 23:37:09.0	176.320	-0.270	-0.530	1.800
2020/01/31 23:37:09.1	176.290	-0.230	-0.590	1.830
2020/01/31 23:37:09.2	176.260	-0.190	-0.660	1.840
2020/01/31 23:37:09.3	176.230	-0.140	-0.720	1.860
2020/01/31 23:37:09.4	176.200	-0.100	-0.770	1.870
2020/01/31 23:37:09.5	176.170	-0.060	-0.810	1.870
2020/01/31 23:37:09.6	176.150	-0.030	-0.850	1.870
2020/01/31 23:37:09.7	176.130	0.010	-0.880	1.870
2020/01/31 23:37:09.8	176.110	0.040	-0.890	1.870
2020/01/31 23:37:09.9	176.100	0.070	-0.910	1.860
2020/01/31 23:37:10.0	176.080	0.100	-0.910	1.840
2020/01/31 23:37:10.1	176.070	0.120	-0.910	1.820
2020/01/31 23:37:10.2	176.060	0.150	-0.900	1.800
2020/01/31 23:37:10.3	176.050	0.160	-0.880	1.780
2020/01/31 23:37:10.4	176.050	0.180	-0.860	1.760
2020/01/31 23:37:10.5	176.050	0.190	-0.830	1.730
2020/01/31 23:37:10.6	176.050	0.200	-0.790	1.700
2020/01/31 23:37:10.7	176.050	0.210	-0.750	1.670
2020/01/31 23:37:10.8	176.050	0.210	-0.710	1.640
2020/01/31 23:37:10.9	176.050	0.210	-0.660	1.610
2020/01/31 23:37:11.0	176.060	0.210	-0.610	1.570
2020/01/31 23:37:11.1	176.060	0.200	-0.550	1.540
2020/01/31 23:37:11.2	176.070	0.200	-0.500	1.510
2020/01/31 23:37:11.3	176.070	0.190	-0.450	1.480
2020/01/31 23:37:11.4	176.080	0.180	-0.390	1.440
2020/01/31 23:37:11.5	176.080	0.170	-0.340	1.410
2020/01/31 23:37:11.6	176.080	0.160	-0.290	1.380
2020/01/31 23:37:11.7	176.090	0.140	-0.240	1.350
2020/01/31 23:37:11.8	176.090	0.130	-0.200	1.320
2020/01/31 23:37:11.9	176.090	0.120	-0.150	1.290
2020/01/31 23:37:12.0	176.090	0.110	-0.120	1.260
2020/01/31 23:37:12.1	176.100	0.100	-0.080	1.230
2020/01/31 23:37:12.2	176.100	0.090	-0.050	1.200
2020/01/31 23:37:12.3	176.100	0.080	-0.030	1.170
2020/01/31 23:37:12.4	176.100	0.070	-0.010	1.150
2020/01/31 23:37:12.5	176.100	0.060	0.010	1.120
2020/01/31 23:37:12.6	176.100	0.060	0.020	1.100
2020/01/31 23:37:12.7	176.090	0.050	0.020	1.070
2020/01/31 23:37:12.8	176.090	0.050	0.030	1.050
2020/01/31 23:37:12.9	176.090	0.050	0.020	1.020
2020/01/31 23:37:13.0	176.080	0.050	0.020	1.000
2020/01/31 23:37:13.1	176.090	0.050	0.010	0.970
2020/01/31 23:37:13.2	176.090	0.050	-0.010	0.950
2020/01/31 23:37:13.3	176.090	0.060	-0.020	0.930
2020/01/31 23:37:13.4	176.090	0.060	-0.040	0.910
2020/01/31 23:37:13.5	176.080	0.070	-0.060	0.890
2020/01/31 23:37:13.6	176.080	0.070	-0.080	0.870
2020/01/31 23:37:13.7	176.080	0.080	-0.100	0.860
2020/01/31 23:37:13.8	176.080	0.080	-0.120	0.850
2020/01/31 23:37:13.9	176.090	0.090	-0.140	0.840
2020/01/31 23:37:14.0	176.090	0.090	-0.160	0.830
2020/01/31 23:37:14.1	176.080	0.100	-0.190	0.830
2020/01/31 23:37:14.2	176.080	0.100	-0.210	0.820
2020/01/31 23:37:14.3	176.080	0.100	-0.230	0.820
2020/01/31 23:37:14.4	176.090	0.110	-0.250	0.820
2020/01/31 23:37:14.5	176.090	0.110	-0.270	0.830
2020/01/31 23:37:14.6	176.090	0.110	-0.280	0.840
2020/01/31 23:37:14.7	176.090	0.100	-0.300	0.850
2020/01/31 23:37:14.8	176.090	0.100	-0.310	0.860
2020/01/31 23:37:14.9	176.090	0.090	-0.320	0.880
2020/01/31 23:37:15.0	176.100	0.090	-0.330	0.900
2020/01/31 23:37:15.1	176.090	0.080	-0.340	0.920
2020/01/31 23:37:15.2	176.090	0.070	-0.340	0.940
2020/01/31 23:37:15.3	176.100	0.050	-0.350	0.960
2020/01/31 23:37:15.4	176.100	0.040	-0.350	0.990
2020/01/31 23:37:15.5	176.100	0.030	-0.350	1.020
2020/01/31 23:37:15.6	176.100	0.010	-0.340	1.040
2020/01/31 23:37:15.7	176.100	-0.010	-0.340	1.070
2020/01/31 23:37:15.8	176.100	-0.020	-0.330	1.100
2020/01/31 23:37:15.9	176.100	-0.040	-0.320	1.130
2020/01/31 23:37:16.0	176.100	-0.060	-0.310	1.160
2020/01/31 23:37:16.1	176.120	-0.080	-0.300	1.200
2020/01/31 23:37:16.2	176.120	-0.100	-0.290	1.230
2020/01/31 23:37:16.3	176.120	-0.120	-0.270	1.260
2020/01/31 23:37:16.4	176.120	-0.140	-0.250	1.300
2020/01/31 23:37:16.5	176.110	-0.150	-0.240	1.330
2020/01/31 23:37:16.6	176.110	-0.170	-0.220	1.360
2020/01/31 23:37:16.7	176.110	-0.190	-0.200	1.400
2020/01/31 23:37:16.8	176.110	-0.200	-0.180	1.430
2020/01/31 23:37:16.9	176.110	-0.210	-0.170	1.470
2020/01/31 23:37:17.0	176.110	-0.220	-0.150	1.500
2020/01/31 23:37:17.1	176.110	-0.230	-0.130	1.540
2020/01/31 23:37:17.2	176.110	-0.240	-0.120	1.570
2020/01/31 23:37:17.3	176.110	-0.240	-0.100	1.600
2020/01/31 23:37:17.4	176.110	-0.250	-0.090	1.630
2020/01/31 23:37:17.5	176.110	-0.250	-0.070	1.660
2020/01/31 23:37:17.6	176.110	-0.240	-0.060	1.690
2020/01/31 23:37:17.7	176.110	-0.240	-0.050	1.720
2020/01/31 23:37:17.8	176.110	-0.230	-0.050	1.740
2020/01/31 23:37:17.9	176.110	-0.220	-0.040	1.760
2020/01/31 23:37:18.0	176.110	-0.210	-0.040	1.790
2020/01/31 23:37:18.1	176.090	-0.190	-0.040	1.810
2020/01/31 23:37:18.2	176.090	-0.170	-0.050	1.820
2020/01/31 23:37:18.3	176.080	-0.150	-0.050	1.840
2020/01/31 23:37:18.4	176.070	-0.130	-0.060	1.860
2020/01/31 23:37:18.5	176.050	-0.100	-0.080	1.880
2020/01/31 23:37:18.6	176.040	-0.080	-0.090	1.890
2020/01/31 23:37:18.7	176.020	-0.050	-0.110	1.910
2020/01/31 23:37:18.8	175.990	-0.020	-0.140	1.930
2020/01/31 23:37:18.9	175.970	0.010	-0.160	1.940
2020/01/31 23:37:19.0	175.940	0.050	-0.190	1.960
2020/01/31 23:37:19.1	175.910	0.080	-0.220	1.970
2020/01/31 23:37:19.2	175.880	0.120	-0.250	1.980
2020/01/31 23:37:19.3	175.840	0.150	-0.280	2.000
2020/01/31 23:37:19.4	175.810	0.190	-0.310	2.010
2020/01/31 23:37:19.5	175.770	0.220	-0.340	2.020
2020/01/31 23:37:19.6	175.730	0.260	-0.370	2.040
2020/01/31 23:37:19.7	175.690	0.290	-0.400	2.050
2020/01/31 23:37:19.8	175.650	0.320	-0.430	2.050
2020/01/31 23:37:19.9	175.620	0.350	-0.450	2.060
2020/01/31 23:37:20.0	175.580	0.380	-0.480	2.060
2020/01/31 23:37:20.1	175.550	0.410	-0.500	2.060
2020/01/31 23:37:20.2	175.510	0.440	-0.510	2.060
2020/01/31 23:37:20.3	175.480	0.460	-0.520	2.050
2020/01/31 23:37:20.4	175.450	0.480	-0.530	2.040
2020/01/31 23:37:20.5	175.420	0.500	-0.530	2.020
2020/01/31 23:37:20.6	175.400	0.510	-0.530	2.000
2020/01/31 23:37:20.7	175.370	0.520	-0.530	1.980
2020/01/31 23:37:20.8	175.360	0.530	-0.510	1.950
2020/01/31 23:37:20.9	175.340	0.530	-0.500	1.920
2020/01/31 23:37:21.0	175.330	0.530	-0.480	1.880
2020/01/31 23:37:21.1	175.320	0.520	-0.450	1.840
2020/01/31 23:37:21.2	175.320	0.510	-0.420	1.800
2020/01/31 23:37:21.3	175.320	0.490	-0.390	1.760
2020/01/31 23:37:21.4	175.320	0.480	-0.350	1.720
2020/01/31 23:37:21.5	175.330	0.450	-0.310	1.670
2020/01/31 23:37:21.6	175.330	0.420	-0.260	1.630
2020/01/31 23:37:21.7	175.350	0.390	-0.210	1.580
2020/01/31 23:37:21.8	175.360	0.360	-0.170	1.540
2020/01/31 23:37:21.9	175.380	0.320	-0.120	1.490
2020/01/31 23:37:22.0	175.400	0.280	-0.070	1.450
2020/01/31 23:37:22.1	175.400	0.230	-0.020	1.420
2020/01/31 23:37:22.2	175.430	0.190	0.030	1.380
2020/01/31 23:37:22.3	175.450	0.140	0.070	1.340
2020/01/31 23:37:22.4	175.480	0.090	0.110	1.300
2020/01/31 23:37:22.5	175.500	0.040	0.150	1.270
2020/01/31 23:37:22.6	175.530	-0.010	0.190	1.240
2020/01/31 23:37:22.7	175.550	-0.070	0.220	1.210
2020/01/31 23:37:22.8	175.570	-0.120	0.240	1.190
2020/01/31 23:37:22.9	175.600	-0.170	0.260	1.170
2020/01/31 23:37:23.0	175.610	-0.220	0.270	1.150
2020/01/31 23:37:23.1	175.630	-0.260	0.270	1.130
2020/01/31 23:37:23.2	175.650	-0.300	0.270	1.130
2020/01/31 23:37:23.3	175.660	-0.340	0.260	1.130
2020/01/31 23:37:23.4	175.660	-0.380	0.240	1.130
2020/01/31 23:37:23.5	175.660	-0.410	0.210	1.140
2020/01/31 23:37:23.6	175.660	-0.440	0.170	1.160
2020/01/31 23:37:23.7	175.660	-0.460	0.130	1.180
2020/01/31 23:37:23.8	175.650	-0.470	0.070	1.200
2020/01/31 23:37:23.9	175.630	-0.490	0.010	1.220
2020/01/31 23:37:24.0	175.620	-0.490	-0.050	1.250
2020/01/31 23:37:24.1	175.610	-0.490	-0.120	1.290
2020/01/31 23:37:24.2	175.580	-0.490	-0.200	1.320
2020/01/31 23:37:24.3	175.560	-0.480	-0.280	1.360
2020/01/31 23:37:24.4	175.540	-0.470	-0.360	1.390
2020/01/31 23:37:24.5	175.510	-0.450	-0.440	1.430
2020/01/31 23:37:24.6	175.490	-0.430	-0.510	1.460
2020/01/31 23:37:24.7	175.460	-0.410	-0.590	1.490
2020/01/31 23:37:24.8	175.440	-0.380	-0.670	1.520
2020/01/31 23:37:24.9	175.410	-0.350	-0.740	1.560
2020/01/31 23:37:25.0	175.390	-0.320	-0.800	1.580
2020/01/31 23:37:25.1	175.360	-0.290	-0.860	1.610
2020/01/31 23:37:25.2	175.340	-0.250	-0.910	1.640
2020/01/31 23:37:25.3	175.330	-0.220	-0.960	1.660
2020/01/31 23:37:25.4	175.310	-0.180	-1.000	1.690
2020/01/31 23:37:25.5	175.300	-0.150	-1.020	1.710
2020/01/31 23:37:25.6	175.280	-0.110	-1.040	1.730
2020/01/31 23:37:25.7	175.270	-0.080	-1.050	1.740
2020/01/31 23:37:25.8	175.270	-0.050	-1.060	1.760
2020/01/31 23:37:25.9	175.260	-0.010	-1.050	1.770
2020/01/31 23:37:26.0	175.250	0.020	-1.030	1.780
2020/01/31 23:37:26.1	175.230	0.040	-1.010	1.790
2020/01/31 23:37:26.2	175.230	0.070	-0.980	1.800
2020/01/31 23:37:26.3	175.230	0.090	-0.940	1.800
2020/01/31 23:37:26.4	175.230	0.110	-0.890	1.800
2020/01/31 23:37:26.5	175.230	0.130	-0.840	1.800
2020/01/31 23:37:26.6	175.240	0.150	-0.780	1.790
2020/01/31 23:37:26.7	175.250	0.160	-0.720	1.780
2020/01/31 23:37:26.8	175.250	0.170	-0.650	1.760
2020/01/31 23:37:26.9	175.260	0.180	-0.580	1.750
2020/01/31 23:37:27.0	175.280	0.190	-0.510	1.720
2020/01/31 23:37:27.1	175.290	0.190	-0.430	1.700
2020/01/31 23:37:27.2	175.310	0.190	-0.360	1.670
2020/01/31 23:37:27.3	175.330	0.190	-0.290	1.640
2020/01/31 23:37:27.4	175.340	0.190	-0.210	1.610
2020/01/31 23:37:27.5	175.360	0.190	-0.140	1.570
2020/01/31 23:37:27.6	175.390	0.190	-0.080	1.530
2020/01/31 23:37:27.7	175.410	0.180	-0.010	1.490
2020/01/31 23:37:27.8	175.430	0.180	0.050	1.440
2020/01/31 23:37:27.9	175.450	0.170	0.100	1.400
2020/01/31 23:37:28.0	175.480	0.170	0.150	1.350
2020/01/31 23:37:28.1	175.510	0.160	0.200	1.310
2020/01/31 23:37:28.2	175.540	0.150	0.240	1.260
2020/01/31 23:37:28.3	175.560	0.140	0.270	1.220
2020/01/31 23:37:28.4	175.590	0.140	0.300	1.180
2020/01/31 23:37:28.5	175.620	0.130	0.330	1.140
2020/01/31 23:37:28.6	175.650	0.120	0.340	1.100
2020/01/31 23:37:28.7	175.670	0.110	0.360	1.070
2020/01/31 23:37:28.8	175.700	0.100	0.360	1.030
2020/01/31 23:37:28.9	175.730	0.090	0.370	1.010
2020/01/31 23:37:29.0	175.760	0.080	0.360	0.980
2020/01/31 23:37:29.1	175.800	0.070	0.360	0.960
2020/01/31 23:37:29.2	175.830	0.060	0.350	0.940
2020/01/31 23:37:29.3	175.860	0.040	0.330	0.930
2020/01/31 23:37:29.4	175.890	0.030	0.310	0.920
2020/01/31 23:37:29.5	175.920	0.020	0.290	0.910
2020/01/31 23:37:29.6	175.940	0.010	0.260	0.900
2020/01/31 23:37:29.7	175.970	0.000	0.230	0.900
2020/01/31 23:37:29.8	175.990	-0.010	0.200	0.910
2020/01/31 23:37:29.9	176.010	-0.020	0.170	0.910
2020/01/31 23:37:30.0	176.030	-0.030	0.130	0.920
2020/01/31 23:37:30.1	176.090	-0.040	0.090	0.940
2020/01/31 23:37:30.2	176.110	-0.050	0.060	0.950
2020/01/31 23:37:30.3	176.120	-0.060	0.020	0.970
2020/01/31 23:37:30.4	176.130	-0.070	-0.020	0.990
2020/01/31 23:37:30.5	176.140	-0.080	-0.060	1.010
2020/01/31 23:37:30.6	176.150	-0.080	-0.100	1.040
2020/01/31 23:37:30.7	176.150	-0.090	-0.140	1.070
2020/01/31 23:37:30.8	176.160	-0.100	-0.180	1.100
2020/01/31 23:37:30.9	176.160	-0.100	-0.220	1.130
2020/01/31 23:37:31.0	176.150	-0.110	-0.250	1.160
2020/01/31 23:37:31.1	176.150	-0.110	-0.290	1.190
2020/01/31 23:37:31.2	176.140	-0.110	-0.320	1.230
2020/01/31 23:37:31.3	176.130	-0.120	-0.360	1.270
2020/01/31 23:37:31.4	176.120	-0.120	-0.390	1.310
2020/01/31 23:37:31.5	176.110	-0.110	-0.420	1.350
2020/01/31 23:37:31.6	176.090	-0.110	-0.450	1.390
2020/01/31 23:37:31.7	176.070	-0.110	-0.470	1.430
2020/01/31 23:37:31.8	176.050	-0.110	-0.500	1.470
2020/01/31 23:37:31.9	176.030	-0.100	-0.520	1.520
2020/01/31 23:37:32.0	176.010	-0.090	-0.540	1.560
2020/01/31 23:37:32.1	175.990	-0.090	-0.550	1.600
2020/01/31 23:37:32.2	175.970	-0.080	-0.570	1.640
2020/01/31 23:37:32.3	175.940	-0.070	-0.580	1.680
2020/01/31 23:37:32.4	175.920	-0.060	-0.590	1.720
2020/01/31 23:37:32.5	175.900	-0.040	-0.600	1.760
2020/01/31 23:37:32.6	175.880	-0.030	-0.600	1.800
2020/01/31 23:37:32.7	175.850	-0.020	-0.600	1.830
2020/01/31 23:37:32.8	175.830	-0.010	-0.600	1.860
2020/01/31 23:37:32.9	175.810	0.000	-0.600	1.890
2020/01/31 23:37:33.0	175.800	0.020	-0.590	1.920
2020/01/31 23:37:33.1	175.770	0.030	-0.580	1.940
2020/01/31 23:37:33.2	175.760	0.040	-0.570	1.960
2020/01/31 23:37:33.3	175.740	0.050	-0.560	1.970
2020/01/31 23:37:33.4	175.730	0.070	-0.550	1.980
2020/01/31 23:37:33.5	175.720	0.080	-0.530	1.990
2020/01/31 23:37:33.6	175.700	0.090	-0.510	1.980
2020/01/31 23:37:33.7	175.700	0.090	-0.490	1.980
2020/01/31 23:37:33.8	175.690	0.100	-0.470	1.970
2020/01/31 23:37:33.9	175.680	0.110	-0.440	1.950
2020/01/31 23:37:34.0	175.680	0.110	-0.420	1.940
2020/01/31 23:37:34.1	175.680	0.110	-0.390	1.920
2020/01/31 23:37:34.2	175.680	0.110	-0.360	1.890
2020/01/31 23:37:34.3	175.680	0.110	-0.330	1.870
2020/01/31 23:37:34.4	175.690	0.100	-0.300	1.840
2020/01/31 23:37:34.5	175.690	0.100	-0.270	1.820
2020/01/31 23:37:34.6	175.700	0.090	-0.240	1.790
2020/01/31 23:37:34.7	175.710	0.080	-0.210	1.760
2020/01/31 23:37:34.8	175.720	0.070	-0.180	1.740
2020/01/31 23:37:34.9	175.730	0.060	-0.150	1.710
2020/01/31 23:37:35.0	175.740	0.050	-0.120	1.690
2020/01/31 23:37:35.1	175.750	0.030	-0.100	1.660
2020/01/31 23:37:35.2	175.760	0.020	-0.070	1.640
2020/01/31 23:37:35.3	175.780	0.000	-0.050	1.620
2020/01/31 23:37:35.4	175.790	-0.010	-0.030	1.600
2020/01/31 23:37:35.5	175.810	-0.020	-0.010	1.580
2020/01/31 23:37:35.6	175.820	-0.040	0.000	1.560
2020/01/31 23:37:35.7	175.840	-0.050	0.010	1.540
2020/01/31 23:37:35.8	175.850	-0.060	0.020	1.520
2020/01/31 23:37:35.9	175.860	-0.070	0.030	1.510
2020/01/31 23:37:36.0	175.870	-0.080	0.030	1.490
2020/01/31 23:37:36.1	175.880	-0.090	0.030	1.470
2020/01/31 23:37:36.2	175.890	-0.090	0.020	1.450
2020/01/31 23:37:36.3	175.890	-0.090	0.010	1.440
2020/01/31 23:37:36.4	175.900	-0.090	-0.010	1.420
2020/01/31 23:37:36.5	175.900	-0.090	-0.030	1.400
2020/01/31 23:37:36.6	175.900	-0.080	-0.060	1.380
2020/01/31 23:37:36.7	175.900	-0.070	-0.090	1.360
2020/01/31 23:37:36.8	175.890	-0.060	-0.120	1.340
2020/01/31 23:37:36.9	175.890	-0.040	-0.150	1.320
2020/01/31 23:37:37.0	175.880	-0.020	-0.190	1.290
2020/01/31 23:37:37.1	175.860	-0.000	-0.240	1.270
2020/01/31 23:37:37.2	175.850	0.020	-0.280	1.250
2020/01/31 23:37:37.3	175.840	0.050	-0.320	1.230
2020/01/31 23:37:37.4	175.830	0.080	-0.370	1.210
2020/01/31 23:37:37.5	175.810	0.110	-0.410	1.190
2020/01/31 23:37:37.6	175.800	0.140	-0.450	1.170
2020/01/31 23:37:37.7	175.790	0.170	-0.490	1.150
2020/01/31 23:37:37.8	175.770	0.200	-0.530	1.130
2020/01/31 23:37:37.9	175.760	0.230	-0.560	1.110
2020/01/31 23:37:38.0	175.750	0.260	-0.590	1.100
2020/01/31 23:37:38.1	175.740	0.290	-0.610	1.080
2020/01/31 23:37:38.2	175.730	0.310	-0.630	1.070
2020/01/31 23:37:38.3	175.720	0.330	-0.640	1.050
2020/01/31 23:37:38.4	175.720	0.350	-0.650	1.040
2020/01/31 23:37:38.5	175.720	0.370	-0.640	1.040
2020/01/31 23:37:38.6	175.720	0.380	-0.640	1.030
2020/01/31 23:37:38.7	175.720	0.390	-0.620	1.020
2020/01/31 23:37:38.8	175.730	0.390	-0.600	1.020
2020/01/31 23:37:38.9	175.740	0.390	-0.560	1.010
2020/01/31 23:37:39.0	175.750	0.380	-0.530	1.010
2020/01/31 23:37:39.1	175.750	0.370	-0.490	1.010
2020/01/31 23:37:39.2	175.770	0.350	-0.430	1.010
2020/01/31 23:37:39.3	175.800	0.330	-0.380	1.000
2020/01/31 23:37:39.4	175.820	0.310	-0.320	1.000
2020/01/31 23:37:39.5	175.850	0.280	-0.250	1.000
2020/01/31 23:37:39.6	175.880	0.240	-0.180	1.000
2020/01/31 23:37:39.7	175.910	0.210	-0.110	1.000
2020/01/31 23:37:39.8	175.950	0.170	-0.040	1.000
2020/01/31 23:37:39.9	175.990	0.120	0.030	1.000
2020/01/31 23:37:40.0	176.020	0.080	0.100	1.000
2020/01/31 23:37:40.1	176.080	0.030	0.170	1.000
2020/01/31 23:37:40.2	176.110	-0.020	0.240	1.000
2020/01/31 23:37:40.3	176.150	-0.070	0.310	1.010
2020/01/31 23:37:40.4	176.190	-0.120	0.370	1.010
2020/01/31 23:37:40.5	176.220	-0.170	0.420	1.020
2020/01/31 23:37:40.6	176.260	-0.220	0.470	1.030
2020/01/31 23:37:40.7	176.290	-0.260	0.510	1.040
2020/01/31 23:37:40.8	176.320	-0.310	0.550	1.050
2020/01/31 23:37:40.9	176.350	-0.350	0.570	1.060
2020/01/31 23:37:41.0	176.370	-0.390	0.590	1.080
2020/01/31 23:37:41.1	176.390	-0.420	0.590	1.100
2020/01/31 23:37:41.2	176.410	-0.450	0.580	1.120
2020/01/31 23:37:41.3	176.420	-0.480	0.570	1.150
2020/01/31 23:37:41.4	176.430	-0.500	0.540	1.170
2020/01/31 23:37:41.5	176.440	-0.510	0.500	1.200
2020/01/31 23:37:41.6	176.440	-0.520	0.460	1.240
2020/01/31 23:37:41.7	176.430	-0.520	0.400	1.270
2020/01/31 23:37:41.8	176.420	-0.510	0.330	1.310
2020/01/31 23:37:41.9	176.410	-0.500	0.250	1.360
2020/01/31 23:37:42.0	176.390	-0.480	0.170	1.400
2020/01/31 23:37:42.1	176.370	-0.460	0.080	1.450
2020/01/31 23:37:42.2	176.350	-0.430	-0.020	1.500
2020/01/31 23:37:42.3	176.320	-0.400	-0.120	1.550
2020/01/31 23:37:42.4	176.290	-0.360	-0.220	1.600
2020/01/31 23:37:42.5	176.260	-0.310	-0.330	1.640
2020/01/31 23:37:42.6	176.220	-0.260	-0.430	1.690
2020/01/31 23:37:42.7	176.180	-0.210	-0.540	1.740
2020/01/31 23:37:42.8	176.150	-0.160	-0.640	1.790
2020/01/31 23:37:42.9	176.110	-0.100	-0.730	1.830
2020/01/31 23:37:43.0	176.080	-0.050	-0.830	1.870
2020/01/31 23:37:43.1	176.050	0.010	-0.910	1.910
2020/01/31 23:37:43.2	176.020	0.070	-0.990	1.940
2020/01/31 23:37:43.3	175.990	0.130	-1.060	1.970
2020/01/31 23:37:43.4	175.960	0.180	-1.120	1.990
2020/01/31 23:37:43.5	175.940	0.240	-1.160	2.010
2020/01/31 23:37:43.6	175.920	0.290	-1.200	2.020
2020/01/31 23:37:43.7	175.900	0.340	-1.220	2.030
2020/01/31 23:37:43.8	175.890	0.380	-1.230	2.030
2020/01/31 23:37:43.9	175.880	0.420	-1.230	2.020
2020/01/31 23:37:44.0	175.880	0.460	-1.220	2.010
2020/01/31 23:37:44.1	175.850	0.490	-1.190	2.000
2020/01/31 23:37:44.2	175.850	0.520	-1.160	1.980
2020/01/31 23:37:44.3	175.850	0.540	-1.110	1.950
2020/01/31 23:37:44.4	175.860	0.550	-1.050	1.920
2020/01/31 23:37:44.5	175.870	0.560	-0.980	1.890
2020/01/31 23:37:44.6	175.890	0.570	-0.910	1.860
2020/01/31 23:37:44.7	175.900	0.560	-0.820	1.820
2020/01/31 23:37:44.8	175.920	0.560	-0.730	1.780
2020/01/31 23:37:44.9	175.940	0.540	-0.640	1.730
2020/01/31 23:37:45.0	175.960	0.520	-0.540	1.690
2020/01/31 23:37:45.1	175.980	0.500	-0.430	1.640
2020/01/31 23:37:45.2	176.000	0.470	-0.330	1.590
2020/01/31 23:37:45.3	176.020	0.430	-0.230	1.540
2020/01/31 23:37:45.4	176.030	0.400	-0.130	1.500
2020/01/31 23:37:45.5	176.050	0.350	-0.030	1.450
2020/01/31 23:37:45.6	176.060	0.310	0.060	1.400
2020/01/31 23:37:45.7	176.080	0.260	0.140	1.360
2020/01/31 23:37:45.8	176.090	0.210	0.220	1.320
2020/01/31 23:37:45.9	176.100	0.160	0.300	1.280
2020/01/31 23:37:46.0	176.110	0.110	0.360	1.240
2020/01/31 23:37:46.1	176.120	0.060	0.410	1.210
2020/01/31 23:37:46.2	176.130	0.010	0.460	1.180
2020/01/31 23:37:46.3	176.130	-0.040	0.490	1.150
2020/01/31 23:37:46.4	176.130	-0.090	0.520	1.120
2020/01/31 23:37:46.5	176.130	-0.140	0.530	1.100
2020/01/31 23:37:46.6	176.130	-0.190	0.540	1.090
2020/01/31 23:37:46.7	176.130	-0.230	0.530	1.070
2020/01/31 23:37:46.8	176.120	-0.270	0.510	1.070
2020/01/31 23:37:46.9	176.120	-0.310	0.480	1.060
2020/01/31 23:37:47.0	176.110	-0.340	0.440	1.060
2020/01/31 23:37:47.1	176.100	-0.370	0.390	1.060
2020/01/31 23:37:47.2	176.080	-0.400	0.330	1.070
2020/01/31 23:37:47.3	176.070	-0.420	0.270	1.080
2020/01/31 23:37:47.4	176.050	-0.440	0.190	1.090
2020/01/31 23:37:47.5	176.030	-0.460	0.110	1.110
2020/01/31 23:37:47.6	176.010	-0.470	0.030	1.140
2020/01/31 23:37:47.7	175.990	-0.470	-0.060	1.160
2020/01/31 23:37:47.8	175.970	-0.480	-0.150	1.190
2020/01/31 23:37:47.9	175.950	-0.480	-0.250	1.220
2020/01/31 23:37:48.0	175.930	-0.470	-0.340	1.250
2020/01/31 23:37:48.1	175.910	-0.470	-0.440	1.290
2020/01/31 23:37:48.2	175.880	-0.460	-0.530	1.320
2020/01/31 23:37:48.3	175.860	-0.450	-0.620	1.360
2020/01/31 23:37:48.4	175.830	-0.430	-0.710	1.390
2020/01/31 23:37:48.5	175.810	-0.420	-0.790	1.430
2020/01/31 23:37:48.6	175.780	-0.400	-0.870	1.470
2020/01/31 23:37:48.7	175.760	-0.390	-0.940	1.510
2020/01/31 23:37:48.8	175.730	-0.370	-1.010	1.550
2020/01/31 23:37:48.9	175.700	-0.350	-1.060	1.580
2020/01/31 23:37:49.0	175.670	-0.330	-1.110	1.620
2020/01/31 23:37:49.1	175.650	-0.310	-1.160	1.660
2020/01/31 23:37:49.2	175.620	-0.290	-1.190	1.700
2020/01/31 23:37:49.3	175.590	-0.280	-1.210	1.730
2020/01/31 23:37:49.4	175.560	-0.260	-1.230	1.770
2020/01/31 23:37:49.5	175.540	-0.240	-1.240	1.800
2020/01/31 23:37:49.6	175.510	-0.230	-1.230	1.830
2020/01/31 23:37:49.7	175.490	-0.210	-1.220	1.850
2020/01/31 23:37:49.8	175.470	-0.200	-1.200	1.880
2020/01/31 23:37:49.9	175.440	-0.190	-1.170	1.900
2020/01/31 23:37:50.0	175.420	-0.180	-1.130	1.910
2020/01/31 23:37:50.1	175.390	-0.170	-1.090	1.920
2020/01/31 23:37:50.2	175.370	-0.160	-1.040	1.930
2020/01/31 23:37:50.3	175.360	-0.160	-0.980	1.940
2020/01/31 23:37:50.4	175.340	-0.150	-0.920	1.940
2020/01/31 23:37:50.5	175.320	-0.150	-0.850	1.930
2020/01/31 23:37:50.6	175.310	-0.150	-0.780	1.930
2020/01/31 23:37:50.7	175.300	-0.150	-0.710	1.910
2020/01/31 23:37:50.8	175.290	-0.150	-0.630	1.900
2020/01/31 23:37:50.9	175.280	-0.150	-0.550	1.880
2020/01/31 23:37:51.0	175.270	-0.150	-0.470	1.860
2020/01/31 23:37:51.1	175.250	-0.150	-0.390	1.840
2020/01/31 23:37:51.2	175.250	-0.150	-0.300	1.810
2020/01/31 23:37:51.3	175.250	-0.150	-0.220	1.780
2020/01/31 23:37:51.4	175.240	-0.160	-0.140	1.750
2020/01/31 23:37:51.5	175.240	-0.160	-0.060	1.720
2020/01/31 23:37:51.6	175.250	-0.160	0.010	1.680
2020/01/31 23:37:51.7	175.250	-0.160	0.090	1.650
2020/01/31 23:37:51.8	175.260	-0.170	0.160	1.610
2020/01/31 23:37:51.9	175.260	-0.170	0.230	1.570
2020/01/31 23:37:52.0	175.270	-0.170	0.290	1.530
2020/01/31 23:37:52.1	175.290	-0.170	0.350	1.490
2020/01/31 23:37:52.2	175.310	-0.180	0.410	1.450
2020/01/31 23:37:52.3	175.320	-0.180	0.460	1.410
2020/01/31 23:37:52.4	175.340	-0.180	0.500	1.370
2020/01/31 23:37:52.5	175.360	-0.180	0.550	1.330
2020/01/31 23:37:52.6	175.380	-0.180	0.580	1.300
2020/01/31 23:37:52.7	175.400	-0.180	0.620	1.260
2020/01/31 23:37:52.8	175.420	-0.170	0.650	1.220
2020/01/31 23:37:52.9	175.450	-0.170	0.670	1.180
2020/01/31 23:37:53.0	175.470	-0.160	0.690	1.150
2020/01/31 23:37:53.1	175.500	-0.160	0.700	1.110
2020/01/31 23:37:53.2	175.530	-0.150	0.710	1.080
2020/01/31 23:37:53.3	175.550	-0.140	0.710	1.040
2020/01/31 23:37:53.4	175.580	-0.130	0.710	1.000
2020/01/31 23:37:53.5	175.610	-0.120	0.700	0.970
2020/01/31 23:37:53.6	175.640	-0.110	0.690	0.930
2020/01/31 23:37:53.7	175.670	-0.100	0.670	0.900
2020/01/31 23:37:53.8	175.690	-0.080	0.650	0.870
2020/01/31 23:37:53.9	175.720	-0.070	0.630	0.840
2020/01/31 23:37:54.0	175.740	-0.050	0.600	0.810
2020/01/31 23:37:54.1	175.770	-0.030	0.560	0.790
2020/01/31 23:37:54.2	175.790	-0.010	0.530	0.770
2020/01/31 23:37:54.3	175.810	0.010	0.490	0.750
2020/01/31 23:37:54.4	175.830	0.030	0.440	0.730
2020/01/31 23:37:54.5	175.840	0.060	0.400	0.710
2020/01/31 23:37:54.6	175.850	0.080	0.350	0.700
2020/01/31 23:37:54.7	175.860	0.100	0.310	0.700
2020/01/31 23:37:54.8	175.870	0.130	0.260	0.690
2020/01/31 23:37:54.9	175.880	0.150	0.210	0.690
2020/01/31 23:37:55.0	175.890	0.180	0.160	0.700
2020/01/31 23:37:55.1	175.900	0.200	0.110	0.710
2020/01/31 23:37:55.2	175.910	0.230	0.060	0.720
2020/01/31 23:37:55.3	175.910	0.250	0.020	0.740
2020/01/31 23:37:55.4	175.910	0.270	-0.030	0.760
2020/01/31 23:37:55.5	175.900	0.300	-0.080	0.780
2020/01/31 23:37:55.6	175.900	0.320	-0.120	0.810
2020/01/31 23:37:55.7	175.900	0.340	-0.160	0.840
2020/01/31 23:37:55.8	175.890	0.360	-0.200	0.870
2020/01/31 23:37:55.9	175.890	0.380	-0.240	0.900
2020/01/31 23:37:56.0	175.880	0.400	-0.280	0.940
2020/01/31 23:37:56.1	175.870	0.410	-0.310	0.970
2020/01/31 23:37:56.2	175.870	0.430	-0.340	1.010
2020/01/31 23:37:56.3	175.860	0.440	-0.370	1.050
2020/01/31 23:37:56.4	175.850	0.460	-0.400	1.080
2020/01/31 23:37:56.5	175.840	0.470	-0.430	1.120
2020/01/31 23:37:56.6	175.830	0.480	-0.460	1.160
2020/01/31 23:37:56.7	175.820	0.490	-0.490	1.200
2020/01/31 23:37:56.8	175.810	0.490	-0.510	1.230
2020/01/31 23:37:56.9	175.800	0.500	-0.530	1.270
2020/01/31 23:37:57.0	175.790	0.510	-0.560	1.310
2020/01/31 23:37:57.1	175.780	0.510	-0.580	1.340
2020/01/31 23:37:57.2	175.760	0.510	-0.600	1.370
2020/01/31 23:37:57.3	175.750	0.520	-0.620	1.410
2020/01/31 23:37:57.4	175.730	0.520	-0.640	1.430
2020/01/31 23:37:57.5	175.720	0.510	-0.650	1.460
2020/01/31 23:37:57.6	175.710	0.510	-0.670	1.490
2020/01/31 23:37:57.7	175.690	0.510	-0.680	1.510
2020/01/31 23:37:57.8	175.680	0.500	-0.690	1.530
2020/01/31 23:37:57.9	175.670	0.490	-0.690	1.550
2020/01/31 23:37:58.0	175.670	0.490	-0.700	1.570
2020/01/31 23:37:58.1	175.650	0.480	-0.700	1.580
2020/01/31 23:37:58.2	175.650	0.460	-0.700	1.600
2020/01/31 23:37:58.3	175.650	0.450	-0.690	1.610
2020/01/31 23:37:58.4	175.650	0.440	-0.680	1.620
2020/01/31 23:37:58.5	175.650	0.420	-0.670	1.620
2020/01/31 23:37:58.6	175.660	0.400	-0.650	1.630
2020/01/31 23:37:58.7	175.670	0.380	-0.630	1.640
2020/01/31 23:37:58.8	175.670	0.360	-0.610	1.640
2020/01/31 23:37:58.9	175.690	0.340	-0.580	1.640
2020/01/31 23:37:59.0	175.700	0.310	-0.550	1.650
2020/01/31 23:37:59.1	175.720	0.290	-0.520	1.650
2020/01/31 23:37:59.2	175.740	0.260	-0.480	1.650
2020/01/31 23:37:59.3	175.750	0.230	-0.440	1.650
2020/01/31 23:37:59.4	175.770	0.210	-0.400	1.650
2020/01/31 23:37:59.5	175.790	0.180	-0.350	1.640
2020/01/31 23:37:59.6	175.820	0.150	-0.310	1.640
2020/01/31 23:37:59.7	175.840	0.120	-0.260	1.640
2020/01/31 23:37:59.8	175.860	0.090	-0.210	1.630
2020/01/31 23:37:59.9	175.880	0.050	-0.170	1.630
2020/01/31 23:38:00.0	175.900	0.020	-0.120	1.620
2020/01/31 23:38:00.1	175.910	-0.010	-0.080	1.610
2020/01/31 23:38:00.2	175.930	-0.040	-0.040	1.610
2020/01/31 23:38:00.3	175.950	-0.070	-0.010	1.610
2020/01/31 23:38:00.4	175.960	-0.090	0.020	1.600
2020/01/31 23:38:00.5	175.970	-0.120	0.040	1.600
2020/01/31 23:38:00.6	175.980	-0.150	0.060	1.600
2020/01/31 23:38:00.7	175.990	-0.170	0.070	1.600
2020/01/31 23:38:00.8	175.990	-0.200	0.070	1.590
2020/01/31 23:38:00.9	175.990	-0.220	0.070	1.600
2020/01/31 23:38:01.0	175.990	-0.240	0.060	1.600
2020/01/31 23:38:01.1	176.000	-0.250	0.040	1.600
2020/01/31 23:38:01.2	175.990	-0.270	0.010	1.600
2020/01/31 23:38:01.3	175.980	-0.280	-0.020	1.610
2020/01/31 23:38:01.4	175.970	-0.290	-0.060	1.610
2020/01/31 23:38:01.5	175.950	-0.300	-0.100	1.620
2020/01/31 23:38:01.6	175.930	-0.310	-0.150	1.620
2020/01/31 23:38:01.7	175.910	-0.310	-0.210	1.630
2020/01/31 23:38:01.8	175.880	-0.320	-0.270	1.630
2020/01/31 23:38:01.9	175.860	-0.320	-0.330	1.640
2020/01/31 23:38:02.0	175.830	-0.320	-0.400	1.650
2020/01/31 23:38:02.1	175.790	-0.310	-0.470	1.660
2020/01/31 23:38:02.2	175.760	-0.310	-0.540	1.670
2020/01/31 23:38:02.3	175.730	-0.310	-0.610	1.680
2020/01/31 23:38:02.4	175.700	-0.300	-0.670	1.690
2020/01/31 23:38:02.5	175.670	-0.290	-0.740	1.700
2020/01/31 23:38:02.6	175.640	-0.290	-0.810	1.720
2020/01/31 23:38:02.7	175.600	-0.280	-0.870	1.730
2020/01/31 23:38:02.8	175.570	-0.270	-0.940	1.750
2020/01/31 23:38:02.9	175.540	-0.260	-1.000	1.770
2020/01/31 23:38:03.0	175.510	-0.250	-1.050	1.790
2020/01/31 23:38:03.1	175.480	-0.240	-1.100	1.810
2020/01/31 23:38:03.2	175.450	-0.220	-1.150	1.830
2020/01/31 23:38:03.3	175.420	-0.210	-1.200	1.850
2020/01/31 23:38:03.4	175.390	-0.200	-1.230	1.870
2020/01/31 23:38:03.5	175.360	-0.180	-1.270	1.900
2020/01/31 23:38:03.6	175.320	-0.170	-1.290	1.920
2020/01/31 23:38:03.7	175.290	-0.160	-1.320	1.940
2020/01/31 23:38:03.8	175.260	-0.140	-1.330	1.960
2020/01/31 23:38:03.9	175.240	-0.130	-1.340	1.980
2020/01/31 23:38:04.0	175.210	-0.120	-1.340	1.990
2020/01/31 23:38:04.1	175.180	-0.100	-1.340	2.000
2020/01/31 23:38:04.2	175.160	-0.090	-1.330	2.010
2020/01/31 23:38:04.3	175.140	-0.080	-1.310	2.020
2020/01/31 23:38:04.4	175.120	-0.070	-1.280	2.020
2020/01/31 23:38:04.5	175.100	-0.060	-1.250	2.010
2020/01/31 23:38:04.6	175.080	-0.050	-1.210	2.000
2020/01/31 23:38:04.7	175.070	-0.040	-1.160	1.990
2020/01/31 23:38:04.8	175.060	-0.040	-1.100	1.970
2020/01/31 23:38:04.9	175.050	-0.040	-1.040	1.950
2020/01/31 23:38:05.0	175.050	-0.030	-0.970	1.930
2020/01/31 23:38:05.1	175.050	-0.040	-0.890	1.900
2020/01/31 23:38:05.2	175.050	-0.040	-0.810	1.870
2020/01/31 23:38:05.3	175.050	-0.040	-0.720	1.840
2020/01/31 23:38:05.4	175.060	-0.050	-0.630	1.810
2020/01/31 23:38:05.5	175.060	-0.060	-0.530	1.780
2020/01/31 23:38:05.6	175.080	-0.070	-0.440	1.740
2020/01/31 23:38:05.7	175.090	-0.090	-0.330	1.710
2020/01/31 23:38:05.8	175.110	-0.100	-0.230	1.670
2020/01/31 23:38:05.9	175.120	-0.120	-0.130	1.640
2020/01/31 23:38:06.0	175.140	-0.140	-0.020	1.600
2020/01/31 23:38:06.1	175.180	-0.170	0.080	1.570
2020/01/31 23:38:06.2	175.200	-0.190	0.180	1.540
2020/01/31 23:38:06.3	175.230	-0.210	0.280	1.510
2020/01/31 23:38:06.4	175.250	-0.240	0.370	1.480
2020/01/31 23:38:06.5	175.280	-0.270	0.470	1.450
2020/01/31 23:38:06.6	175.310	-0.290	0.550	1.420
2020/01/31 23:38:06.7	175.340	-0.320	0.640	1.400
2020/01/31 23:38:06.8	175.370	-0.350	0.710	1.370
2020/01/31 23:38:06.9	175.410	-0.370	0.780	1.340
2020/01/31 23:38:07.0	175.440	-0.400	0.850	1.320
2020/01/31 23:38:07.1	175.470	-0.420	0.900	1.290
2020/01/31 23:38:07.2	175.500	-0.450	0.950	1.270
2020/01/31 23:38:07.3	175.540	-0.470	0.990	1.240
2020/01/31 23:38:07.4	175.570	-0.490	1.030	1.210
2020/01/31 23:38:07.5	175.610	-0.510	1.050	1.180
2020/01/31 23:38:07.6	175.650	-0.520	1.070	1.150
2020/01/31 23:38:07.7	175.680	-0.530	1.080	1.130
2020/01/31 23:38:07.8	175.720	-0.540	1.080	1.100
2020/01/31 23:38:07.9	175.760	-0.550	1.080	1.080
2020/01/31 23:38:08.0	175.790	-0.560	1.060	1.050
2020/01/31 23:38:08.1	175.820	-0.560	1.040	1.030
2020/01/31 23:38:08.2	175.850	-0.560	1.010	1.010
2020/01/31 23:38:08.3	175.880	-0.550	0.980	0.990
2020/01/31 23:38:08.4	175.910	-0.540	0.940	0.980
2020/01/31 23:38:08.5	175.940	-0.530	0.890	0.970
2020/01/31 23:38:08.6	175.970	-0.520	0.840	0.960
2020/01/31 23:38:08.7	175.990	-0.510	0.780	0.960
2020/01/31 23:38:08.8	176.020	-0.490	0.720	0.960
2020/01/31 23:38:08.9	176.040	-0.470	0.660	0.960
2020/01/31 23:38:09.0	176.060	-0.450	0.590	0.970
2020/01/31 23:38:09.1	176.070	-0.420	0.520	0.980
2020/01/31 23:38:09.2	176.090	-0.390	0.440	1.000
2020/01/31 23:38:09.3	176.100	-0.370	0.370	1.010
2020/01/31 23:38:09.4	176.110	-0.340	0.290	1.040
2020/01/31 23:38:09.5	176.120	-0.300	0.210	1.060
2020/01/31 23:38:09.6	176.130	-0.270	0.130	1.090
2020/01/31 23:38:09.7	176.140	-0.240	0.050	1.120
2020/01/31 23:38:09.8	176.150	-0.210	-0.020	1.150
2020/01/31 23:38:09.9	176.160	-0.170	-0.100	1.180
2020/01/31 23:38:10.0	176.160	-0.140	-0.170	1.210
2020/01/31 23:38:10.1	176.160	-0.100	-0.250	1.240
2020/01/31 23:38:10.2	176.170	-0.070	-0.320	1.270
2020/01/31 23:38:10.3	176.170	-0.030	-0.380	1.300
2020/01/31 23:38:10.4	176.170	0.000	-0.440	1.330
2020/01/31 23:38:10.5	176.170	0.040	-0.500	1.350
2020/01/31 23:38:10.6	176.180	0.070	-0.550	1.370
2020/01/31 23:38:10.7	176.180	0.100	-0.590	1.390
2020/01/31 23:38:10.8	176.180	0.140	-0.630	1.400
2020/01/31 23:38:10.9	176.180	0.170	-0.670	1.420
2020/01/31 23:38:11.0	176.190	0.200	-0.690	1.430
2020/01/31 23:38:11.1	176.200	0.220	-0.720	1.430
2020/01/31 23:38:11.2	176.200	0.250	-0.740	1.440
2020/01/31 23:38:11.3	176.210	0.270	-0.750	1.440
2020/01/31 23:38:11.4	176.210	0.300	-0.750	1.440
2020/01/31 23:38:11.5	176.220	0.320	-0.750	1.430
2020/01/31 23:38:11.6	176.220	0.340	-0.750	1.430
2020/01/31 23:38:11.7	176.230	0.350	-0.740	1.420
2020/01/31 23:38:11.8	176.240	0.370	-0.720	1.410
2020/01/31 23:38:11.9	176.250	0.380	-0.700	1.400
2020/01/31 23:38:12.0	176.250	0.390	-0.680	1.390
2020/01/31 23:38:12.1	176.270	0.400	-0.650	1.380
2020/01/31 23:38:12.2	176.280	0.410	-0.620	1.360
2020/01/31 23:38:12.3	176.280	0.420	-0.590	1.350
2020/01/31 23:38:12.4	176.290	0.430	-0.560	1.340
2020/01/31 23:38:12.5	176.290	0.430	-0.520	1.330
2020/01/31 23:38:12.6	176.300	0.430	-0.490	1.320
2020/01/31 23:38:12.7	176.300	0.440	-0.450	1.310
2020/01/31 23:38:12.8	176.300	0.440	-0.420	1.300
2020/01/31 23:38:12.9	176.300	0.440	-0.390	1.290
2020/01/31 23:38:13.0	176.310	0.440	-0.350	1.280
2020/01/31 23:38:13.1	176.310	0.450	-0.330	1.280
2020/01/31 23:38:13.2	176.310	0.450	-0.300	1.270
2020/01/31 23:38:13.3	176.300	0.450	-0.270	1.260
2020/01/31 23:38:13.4	176.300	0.450	-0.250	1.250
2020/01/31 23:38:13.5	176.290	0.460	-0.230	1.240
2020/01/31 23:38:13.6	176.290	0.460	-0.210	1.230
2020/01/31 23:38:13.7	176.280	0.460	-0.200	1.220
2020/01/31 23:38:13.8	176.270	0.470	-0.180	1.210
2020/01/31 23:38:13.9	176.250	0.470	-0.170	1.200
2020/01/31 23:38:14.0	176.240	0.480	-0.170	1.190
2020/01/31 23:38:14.1	176.230	0.490	-0.160	1.190
2020/01/31 23:38:14.2	176.220	0.490	-0.160	1.180
2020/01/31 23:38:14.3	176.200	0.500	-0.160	1.170
2020/01/31 23:38:14.4	176.190	0.500	-0.160	1.160
2020/01/31 23:38:14.5	176.170	0.510	-0.160	1.140
2020/01/31 23:38:14.6	176.160	0.510	-0.170	1.130
2020/01/31 23:38:14.7	176.150	0.520	-0.170	1.120
2020/01/31 23:38:14.8	176.130	0.520	-0.170	1.110
2020/01/31 23:38:14.9	176.120	0.520	-0.180	1.090
2020/01/31 23:38:15.0	176.110	0.520	-0.180	1.080
2020/01/31 23:38:15.1	176.090	0.520	-0.180	1.060
2020/01/31 23:38:15.2	176.090	0.510	-0.190	1.050
2020/01/31 23:38:15.3	176.080	0.500	-0.190	1.040
2020/01/31 23:38:15.4	176.080	0.490	-0.180	1.030
2020/01/31 23:38:15.5	176.070	0.480	-0.180	1.030
2020/01/31 23:38:15.6	176.070	0.460	-0.180	1.020
2020/01/31 23:38:15.7	176.070	0.450	-0.180	1.020
2020/01/31 23:38:15.8	176.070	0.430	-0.170	1.020
2020/01/31 23:38:15.9	176.070	0.400	-0.170	1.020
2020/01/31 23:38:16.0	176.070	0.380	-0.170	1.030
2020/01/31 23:38:16.1	176.060	0.350	-0.160	1.040
2020/01/31 23:38:16.2	176.070	0.320	-0.160	1.050
2020/01/31 23:38:16.3	176.070	0.290	-0.160	1.060
2020/01/31 23:38:16.4	176.070	0.260	-0.160	1.080
2020/01/31 23:38:16.5	176.070	0.220	-0.160	1.090
2020/01/31 23:38:16.6	176.060	0.180	-0.170	1.120
2020/01/31 23:38:16.7	176.060	0.150	-0.170	1.140
2020/01/31 23:38:16.8	176.050	0.110	-0.180	1.160
2020/01/31 23:38:16.9	176.050	0.070	-0.200	1.190
2020/01/31 23:38:17.0	176.040	0.030	-0.210	1.220
2020/01/31 23:38:17.1	176.030	-0.000	-0.230	1.260
2020/01/31 23:38:17.2	176.010	-0.040	-0.250	1.290
2020/01/31 23:38:17.3	176.000	-0.080	-0.280	1.330
2020/01/31 23:38:17.4	175.980	-0.110	-0.310	1.370
2020/01/31 23:38:17.5	175.960	-0.140	-0.340	1.410
2020/01/31 23:38:17.6	175.930	-0.170	-0.380	1.450
2020/01/31 23:38:17.7	175.910	-0.200	-0.410	1.500
2020/01/31 23:38:17.8	175.890	-0.230	-0.450	1.540
2020/01/31 23:38:17.9	175.860	-0.250	-0.500	1.590
2020/01/31 23:38:18.0	175.830	-0.270	-0.540	1.640
2020/01/31 23:38:18.1	175.790	-0.290	-0.580	1.690
2020/01/31 23:38:18.2	175.760	-0.300	-0.630	1.730
2020/01/31 23:38:18.3	175.740	-0.320	-0.670	1.770
2020/01/31 23:38:18.4	175.710	-0.320	-0.710	1.810
2020/01/31 23:38:18.5	175.690	-0.330	-0.760	1.850
2020/01/31 23:38:18.6	175.670	-0.330	-0.800	1.890
2020/01/31 23:38:18.7	175.650	-0.330	-0.830	1.920
2020/01/31 23:38:18.8	175.630	-0.320	-0.860	1.950
2020/01/31 23:38:18.9	175.620	-0.310	-0.890	1.970
2020/01/31 23:38:19.0	175.600	-0.300	-0.920	1.990
2020/01/31 23:38:19.1	175.600	-0.290	-0.940	2.010
2020/01/31 23:38:19.2	175.590	-0.270	-0.950	2.020
2020/01/31 23:38:19.3	175.580	-0.260	-0.960	2.030
2020/01/31 23:38:19.4	175.580	-0.240	-0.960	2.030
2020/01/31 23:38:19.5	175.570	-0.220	-0.960	2.030
2020/01/31 23:38:19.6	175.570	-0.200	-0.950	2.020
2020/01/31 23:38:19.7	175.570	-0.170	-0.930	2.010
2020/01/31 23:38:19.8	175.570	-0.150	-0.910	1.990
2020/01/31 23:38:19.9	175.580	-0.130	-0.890	1.970
2020/01/31 23:38:20.0	175.590	-0.100	-0.860	1.950
2020/01/31 23:38:20.1	175.590	-0.080	-0.830	1.920
2020/01/31 23:38:20.2	175.600	-0.060	-0.790	1.890
2020/01/31 23:38:20.3	175.610	-0.040	-0.750	1.850
2020/01/31 23:38:20.4	175.620	-0.020	-0.710	1.820
2020/01/31 23:38:20.5	175.630	-0.010	-0.660	1.780
2020/01/31 23:38:20.6	175.640	0.010	-0.610	1.730
2020/01/31 23:38:20.7	175.660	0.020	-0.570	1.690
2020/01/31 23:38:20.8	175.670	0.030	-0.520	1.650
2020/01/31 23:38:20.9	175.680	0.040	-0.480	1.600
2020/01/31 23:38:21.0	175.690	0.050	-0.430	1.560
2020/01/31 23:38:21.1	175.710	0.060	-0.390	1.510
2020/01/31 23:38:21.2	175.720	0.060	-0.350	1.470
2020/01/31 23:38:21.3	175.730	0.060	-0.310	1.430
2020/01/31 23:38:21.4	175.740	0.060	-0.270	1.390
2020/01/31 23:38:21.5	175.740	0.050	-0.240	1.350
2020/01/31 23:38:21.6	175.750	0.040	-0.210	1.310
2020/01/31 23:38:21.7	175.760	0.040	-0.180	1.270
2020/01/31 23:38:21.8	175.760	0.020	-0.160	1.240
2020/01/31 23:38:21.9	175.770	0.010	-0.140	1.210
2020/01/31 23:38:22.0	175.770	-0.000	-0.120	1.180
2020/01/31 23:38:22.1	175.780	-0.020	-0.110	1.150
2020/01/31 23:38:22.2	175.790	-0.040	-0.100	1.130
2020/01/31 23:38:22.3	175.790	-0.060	-0.090	1.110
2020/01/31 23:38:22.4	175.790	-0.080	-0.080	1.100
2020/01/31 23:38:22.5	175.800	-0.100	-0.080	1.080
2020/01/31 23:38:22.6	175.800	-0.120	-0.080	1.070
2020/01/31 23:38:22.7	175.800	-0.150	-0.080	1.070
2020/01/31 23:38:22.8	175.810	-0.170	-0.090	1.060
2020/01/31 23:38:22.9	175.810	-0.200	-0.090	1.060
2020/01/31 23:38:23.0	175.820	-0.230	-0.090	1.070
2020/01/31 23:38:23.1	175.840	-0.260	-0.100	1.080
2020/01/31 23:38:23.2	175.840	-0.290	-0.100	1.090
2020/01/31 23:38:23.3	175.850	-0.320	-0.110	1.100
2020/01/31 23:38:23.4	175.850	-0.350	-0.110	1.120
2020/01/31 23:38:23.5	175.850	-0.380	-0.110	1.140
2020/01/31 23:38:23.6	175.850	-0.410	-0.110	1.160
2020/01/31 23:38:23.7	175.860	-0.440	-0.110	1.190
2020/01/31 23:38:23.8	175.860	-0.470	-0.110	1.220
2020/01/31 23:38:23.9	175.860	-0.500	-0.110	1.250
2020/01/31 23:38:24.0	175.860	-0.530	-0.100	1.280
2020/01/31 23:38:24.1	175.860	-0.560	-0.100	1.320
2020/01/31 23:38:24.2	175.860	-0.590	-0.090	1.360
2020/01/31 23:38:24.3	175.860	-0.620	-0.080	1.400
2020/01/31 23:38:24.4	175.860	-0.650	-0.060	1.440
2020/01/31 23:38:24.5	175.850	-0.680	-0.050	1.480
2020/01/31 23:38:24.6	175.850	-0.700	-0.030	1.520
2020/01/31 23:38:24.7	175.840	-0.720	-0.010	1.560
2020/01/31 23:38:24.8	175.830	-0.740	0.010	1.600
2020/01/31 23:38:24.9	175.820	-0.760	0.030	1.650
2020/01/31 23:38:25.0	175.810	-0.780	0.050	1.690
2020/01/31 23:38:25.1	175.810	-0.790	0.070	1.730
2020/01/31 23:38:25.2	175.800	-0.800	0.090	1.770
2020/01/31 23:38:25.3	175.790	-0.800	0.110	1.810
2020/01/31 23:38:25.4	175.780	-0.810	0.130	1.840
2020/01/31 23:38:25.5	175.770	-0.810	0.150	1.870
2020/01/31 23:38:25.6	175.760	-0.800	0.170	1.900
2020/01/31 23:38:25.7	175.750	-0.790	0.190	1.920
2020/01/31 23:38:25.8	175.740	-0.780	0.210	1.940
2020/01/31 23:38:25.9	175.730	-0.760	0.220	1.960
2020/01/31 23:38:26.0	175.730	-0.740	0.230	1.970
2020/01/31 23:38:26.1	175.740	-0.720	0.240	1.980
2020/01/31 23:38:26.2	175.730	-0.690	0.250	1.990
2020/01/31 23:38:26.3	175.720	-0.650	0.250	1.990
2020/01/31 23:38:26.4	175.720	-0.610	0.260	1.980
2020/01/31 23:38:26.5	175.710	-0.570	0.260	1.970
2020/01/31 23:38:26.6	175.710	-0.530	0.260	1.960
2020/01/31 23:38:26.7	175.710	-0.470	0.250	1.940
2020/01/31 23:38:26.8	175.700	-0.420	0.250	1.910
2020/01/31 23:38:26.9	175.700	-0.360	0.240	1.880
2020/01/31 23:38:27.0	175.700	-0.300	0.230	1.850
2020/01/31 23:38:27.1	175.690	-0.240	0.210	1.820
2020/01/31 23:38:27.2	175.690	-0.170	0.200	1.780
2020/01/31 23:38:27.3	175.690	-0.110	0.180	1.740
2020/01/31 23:38:27.4	175.690	-0.040	0.170	1.700
2020/01/31 23:38:27.5	175.690	0.030	0.150	1.650
2020/01/31 23:38:27.6	175.690	0.100	0.130	1.610
2020/01/31 23:38:27.7	175.690	0.170	0.100	1.560
2020/01/31 23:38:27.8	175.690	0.240	0.080	1.520
2020/01/31 23:38:27.9	175.690	0.310	0.060	1.470
2020/01/31 23:38:28.0	175.680	0.380	0.030	1.430
2020/01/31 23:38:28.1	175.680	0.450	0.010	1.380
2020/01/31 23:38:28.2	175.680	0.510	-0.020	1.340
2020/01/31 23:38:28.3	175.670	0.570	-0.040	1.300
2020/01/31 23:38:28.4	175.670	0.630	-0.070	1.260
2020/01/31 23:38:28.5	175.670	0.680	-0.090	1.220
2020/01/31 23:38:28.6	175.670	0.730	-0.120	1.180
2020/01/31 23:38:28.7	175.670	0.780	-0.140	1.140
2020/01/31 23:38:28.8	175.670	0.810	-0.160	1.100
2020/01/31 23:38:28.9	175.670	0.850	-0.180	1.060
2020/01/31 23:38:29.0	175.680	0.880	-0.190	1.030
2020/01/31 23:38:29.1	175.690	0.900	-0.200	0.990
2020/01/31 23:38:29.2	175.690	0.920	-0.210	0.960
2020/01/31 23:38:29.3	175.700	0.930	-0.220	0.930
2020/01/31 23:38:29.4	175.710	0.930	-0.230	0.900
2020/01/31 23:38:29.5	175.730	0.930	-0.230	0.870
2020/01/31 23:38:29.6	175.740	0.920	-0.230	0.840
2020/01/31 23:38:29.7	175.760	0.910	-0.230	0.820
2020/01/31 23:38:29.8	175.780	0.890	-0.220	0.800
2020/01/31 23:38:29.9	175.790	0.860	-0.220	0.780
2020/01/31 23:38:30.0	175.810	0.830	-0.210	0.770
2020/01/31 23:38:30.1	175.840	0.800	-0.200	0.760
2020/01/31 23:38:30.2	175.860	0.760	-0.190	0.760
2020/01/31 23:38:30.3	175.880	0.720	-0.180	0.750
2020/01/31 23:38:30.4	175.900	0.680	-0.160	0.750
2020/01/31 23:38:30.5	175.920	0.630	-0.150	0.750
2020/01/31 23:38:30.6	175.940	0.580	-0.140	0.760
2020/01/31 23:38:30.7	175.960	0.540	-0.130	0.770
2020/01/31 23:38:30.8	175.980	0.490	-0.120	0.780
2020/01/31 23:38:30.9	176.000	0.440	-0.120	0.790
2020/01/31 23:38:31.0	176.010	0.390	-0.110	0.810
2020/01/31 23:38:31.1	176.020	0.340	-0.110	0.830
2020/01/31 23:38:31.2	176.030	0.290	-0.120	0.850
2020/01/31 23:38:31.3	176.040	0.250	-0.120	0.880
2020/01/31 23:38:31.4	176.040	0.210	-0.140	0.910
2020/01/31 23:38:31.5	176.040	0.170	-0.150	0.950
2020/01/31 23:38:31.6	176.040	0.130	-0.170	0.980
2020/01/31 23:38:31.7	176.040	0.100	-0.200	1.020
2020/01/31 23:38:31.8	176.030	0.080	-0.230	1.060
2020/01/31 23:38:31.9	176.030	0.060	-0.260	1.100
2020/01/31 23:38:32.0	176.020	0.040	-0.300	1.140
2020/01/31 23:38:32.1	176.020	0.030	-0.340	1.180
2020/01/31 23:38:32.2	176.010	0.020	-0.390	1.220
2020/01/31 23:38:32.3	175.990	0.010	-0.430	1.260
2020/01/31 23:38:32.4	175.980	0.010	-0.480	1.290
2020/01/31 23:38:32.5	175.970	0.020	-0.530	1.330
2020/01/31 23:38:32.6	175.950	0.020	-0.590	1.360
2020/01/31 23:38:32.7	175.940	0.030	-0.640	1.390
2020/01/31 23:38:32.8	175.930	0.050	-0.690	1.420
2020/01/31 23:38:32.9	175.920	0.060	-0.740	1.450
2020/01/31 23:38:33.0	175.910	0.070	-0.780	1.480
2020/01/31 23:38:33.1	175.910	0.090	-0.820	1.500
2020/01/31 23:38:33.2	175.900	0.110	-0.860	1.530
2020/01/31 23:38:33.3	175.900	0.120	-0.890	1.550
2020/01/31 23:38:33.4	175.900	0.140	-0.920	1.570
2020/01/31 23:38:33.5	175.900	0.160	-0.950	1.590
2020/01/31 23:38:33.6	175.900	0.170	-0.960	1.610
2020/01/31 23:38:33.7	175.910	0.180	-0.980	1.630
2020/01/31 23:38:33.8	175.910	0.190	-0.980	1.650
2020/01/31 23:38:33.9	175.910	0.200	-0.980	1.660
2020/01/31 23:38:34.0	175.920	0.210	-0.980	1.680
2020/01/31 23:38:34.1	175.900	0.210	-0.970	1.690
2020/01/31 23:38:34.2	175.910	0.210	-0.960	1.710
2020/01/31 23:38:34.3	175.920	0.210	-0.940	1.720
2020/01/31 23:38:34.4	175.920	0.200	-0.910	1.730
2020/01/31 23:38:34.5	175.930	0.190	-0.880	1.740
2020/01/31 23:38:34.6	175.940	0.180	-0.850	1.750
2020/01/31 23:38:34.7	175.940	0.170	-0.810	1.760
2020/01/31 23:38:34.8	175.950	0.150	-0.780	1.760
2020/01/31 23:38:34.9	175.950	0.130	-0.740	1.770
2020/01/31 23:38:35.0	175.960	0.110	-0.690	1.770
2020/01/31 23:38:35.1	175.960	0.090	-0.650	1.770
2020/01/31 23:38:35.2	175.960	0.060	-0.600	1.770
2020/01/31 23:38:35.3	175.970	0.040	-0.560	1.770
2020/01/31 23:38:35.4	175.970	0.010	-0.510	1.760
2020/01/31 23:38:35.5	175.970	-0.010	-0.470	1.760
2020/01/31 23:38:35.6	175.970	-0.040	-0.430	1.750
2020/01/31 23:38:35.7	175.960	-0.070	-0.390	1.740
2020/01/31 23:38:35.8	175.960	-0.090	-0.350	1.730
2020/01/31 23:38:35.9	175.950	-0.120	-0.310	1.720
2020/01/31 23:38:36.0	175.950	-0.140	-0.280	1.710
2020/01/31 23:38:36.1	175.950	-0.160	-0.250	1.700
2020/01/31 23:38:36.2	175.940	-0.180	-0.230	1.690
2020/01/31 23:38:36.3	175.920	-0.200	-0.210	1.690
2020/01/31 23:38:36.4	175.910	-0.210	-0.190	1.680
2020/01/31 23:38:36.5	175.890	-0.220	-0.180	1.670
2020/01/31 23:38:36.6	175.870	-0.230	-0.170	1.670
2020/01/31 23:38:36.7	175.850	-0.240	-0.170	1.670
2020/01/31 23:38:36.8	175.830	-0.240	-0.170	1.660
2020/01/31 23:38:36.9	175.810	-0.240	-0.180	1.660
2020/01/31 23:38:37.0	175.790	-0.240	-0.190	1.660
2020/01/31 23:38:37.1	175.760	-0.230	-0.200	1.650
2020/01/31 23:38:37.2	175.740	-0.220	-0.220	1.650
2020/01/31 23:38:37.3	175.720	-0.210	-0.240	1.640
2020/01/31 23:38:37.4	175.700	-0.200	-0.260	1.640
2020/01/31 23:38:37.5	175.680	-0.180	-0.280	1.630
2020/01/31 23:38:37.6	175.660	-0.170	-0.300	1.620
2020/01/31 23:38:37.7	175.640	-0.150	-0.320	1.620
2020/01/31 23:38:37.8	175.630	-0.130	-0.340	1.610
2020/01/31 23:38:37.9	175.620	-0.110	-0.360	1.600
2020/01/31 23:38:38.0	175.600	-0.090	-0.380	1.590
2020/01/31 23:38:38.1	175.590	-0.070	-0.390	1.570
2020/01/31 23:38:38.2	175.580	-0.060	-0.400	1.550
2020/01/31 23:38:38.3	175.570	-0.040	-0.410	1.540
2020/01/31 23:38:38.4	175.570	-0.030	-0.410	1.520
2020/01/31 23:38:38.5	175.580	-0.020	-0.410	1.510
2020/01/31 23:38:38.6	175.580	-0.010	-0.400	1.490
2020/01/31 23:38:38.7	175.590	-0.000	-0.390	1.470
2020/01/31 23:38:38.8	175.600	0.000	-0.370	1.450
2020/01/31 23:38:38.9	175.620	0.000	-0.350	1.440
2020/01/31 23:38:39.0	175.630	-0.000	-0.320	1.420
2020/01/31 23:38:39.1	175.660	-0.010	-0.290	1.400
2020/01/31 23:38:39.2	175.680	-0.020	-0.250	1.380
2020/01/31 23:38:39.3	175.710	-0.040	-0.210	1.360
2020/01/31 23:38:39.4	175.740	-0.060	-0.160	1.340
2020/01/31 23:38:39.5	175.770	-0.080	-0.110	1.320
2020/01/31 23:38:39.6	175.800	-0.110	-0.060	1.310
2020/01/31 23:38:39.7	175.840	-0.140	0.000	1.290
2020/01/31 23:38:39.8	175.870	-0.170	0.060	1.270
2020/01/31 23:38:39.9	175.910	-0.200	0.120	1.260
2020/01/31 23:38:40.0	175.950	-0.240	0.170	1.240
2020/01/31 23:38:40.1	176.000	-0.280	0.230	1.230
2020/01/31 23:38:40.2	176.030	-0.320	0.290	1.220
2020/01/31 23:38:40.3	176.070	-0.360	0.340	1.210
2020/01/31 23:38:40.4	176.110	-0.400	0.390	1.210
2020/01/31 23:38:40.5	176.140	-0.430	0.440	1.200
2020/01/31 23:38:40.6	176.170	-0.470	0.480	1.200
2020/01/31 23:38:40.7	176.200	-0.510	0.510	1.200
2020/01/31 23:38:40.8	176.230	-0.540	0.540	1.210
2020/01/31 23:38:40.9	176.260	-0.570	0.560	1.210
2020/01/31 23:38:41.0	176.280	-0.600	0.580	1.220
2020/01/31 23:38:41.1	176.290	-0.630	0.590	1.230
2020/01/31 23:38:41.2	176.300	-0.650	0.590	1.250
2020/01/31 23:38:41.3	176.320	-0.660	0.590	1.260
2020/01/31 23:38:41.4	176.330	-0.670	0.570	1.280
2020/01/31 23:38:41.5	176.330	-0.680	0.550	1.300
2020/01/31 23:38:41.6	176.340	-0.680	0.530	1.320
2020/01/31 23:38:41.7	176.340	-0.680	0.490	1.350
2020/01/31 23:38:41.8	176.330	-0.670	0.450	1.370
2020/01/31 23:38:41.9	176.330	-0.650	0.400	1.400
2020/01/31 23:38:42.0	176.320	-0.630	0.350	1.430
2020/01/31 23:38:42.1	176.310	-0.600	0.290	1.470
2020/01/31 23:38:42.2	176.290	-0.570	0.230	1.500
2020/01/31 23:38:42.3	176.280	-0.540	0.160	1.530
2020/01/31 23:38:42.4	176.260	-0.500	0.090	1.560
2020/01/31 23:38:42.5	176.240	-0.450	0.010	1.590
2020/01/31 23:38:42.6	176.220	-0.400	-0.070	1.620
2020/01/31 23:38:42.7	176.200	-0.350	-0.150	1.650
2020/01/31 23:38:42.8	176.170	-0.300	-0.230	1.680
2020/01/31 23:38:42.9	176.150	-0.240	-0.300	1.700
2020/01/31 23:38:43.0	176.130	-0.180	-0.380	1.730
2020/01/31 23:38:43.1	176.110	-0.120	-0.460	1.750
2020/01/31 23:38:43.2	176.090	-0.050	-0.530	1.770
2020/01/31 23:38:43.3	176.070	0.010	-0.600	1.780
2020/01/31 23:38:43.4	176.050	0.070	-0.670	1.790
2020/01/31 23:38:43.5	176.030	0.130	-0.730	1.800
2020/01/31 23:38:43.6	176.000	0.200	-0.790	1.810
2020/01/31 23:38:43.7	175.990	0.250	-0.840	1.810
2020/01/31 23:38:43.8	175.970	0.310	-0.880	1.810
2020/01/31 23:38:43.9	175.950	0.370	-0.920	1.810
2020/01/31 23:38:44.0	175.930	0.420	-0.950	1.800
2020/01/31 23:38:44.1	175.920	0.470	-0.970	1.800
2020/01/31 23:38:44.2	175.910	0.510	-0.990	1.780
2020/01/31 23:38:44.3	175.900	0.550	-0.990	1.770
2020/01/31 23:38:44.4	175.890	0.580	-0.990	1.750
2020/01/31 23:38:44.5	175.880	0.610	-0.990	1.740
2020/01/31 23:38:44.6	175.870	0.640	-0.970	1.720
2020/01/31 23:38:44.7	175.860	0.660	-0.950	1.690
2020/01/31 23:38:44.8	175.860	0.670	-0.920	1.670
2020/01/31 23:38:44.9	175.850	0.680	-0.890	1.650
2020/01/31 23:38:45.0	175.850	0.690	-0.850	1.620
2020/01/31 23:38:45.1	175.860	0.690	-0.800	1.590
2020/01/31 23:38:45.2	175.860	0.680	-0.750	1.560
2020/01/31 23:38:45.3	175.860	0.670	-0.700	1.530
2020/01/31 23:38:45.4	175.870	0.660	-0.640	1.500
2020/01/31 23:38:45.5	175.880	0.640	-0.580	1.470
2020/01/31 23:38:45.6	175.880	0.610	-0.520	1.430
2020/01/31 23:38:45.7	175.900	0.580	-0.450	1.400
2020/01/31 23:38:45.8	175.910	0.550	-0.380	1.360
2020/01/31 23:38:45.9	175.920	0.520	-0.310	1.330
2020/01/31 23:38:46.0	175.940	0.480	-0.240	1.290
2020/01/31 23:38:46.1	175.980	0.440	-0.170	1.260
2020/01/31 23:38:46.2	175.990	0.390	-0.100	1.220
2020/01/31 23:38:46.3	176.010	0.350	-0.040	1.180
2020/01/31 23:38:46.4	176.040	0.300	0.030	1.150
2020/01/31 23:38:46.5	176.060	0.250	0.100	1.110
2020/01/31 23:38:46.6	176.080	0.200	0.160	1.070
2020/01/31 23:38:46.7	176.110	0.160	0.220	1.040
2020/01/31 23:38:46.8	176.130	0.110	0.270	1.000
2020/01/31 23:38:46.9	176.160	0.060	0.320	0.970
2020/01/31 23:38:47.0	176.190	0.010	0.370	0.940
2020/01/31 23:38:47.1	176.220	-0.030	0.410	0.910
2020/01/31 23:38:47.2	176.240	-0.070	0.450	0.880
2020/01/31 23:38:47.3	176.270	-0.110	0.480	0.850
2020/01/31 23:38:47.4	176.300	-0.150	0.500	0.830
2020/01/31 23:38:47.5	176.320	-0.180	0.510	0.810
2020/01/31 23:38:47.6	176.350	-0.210	0.520	0.790
2020/01/31 23:38:47.7	176.370	-0.240	0.520	0.780
2020/01/31 23:38:47.8	176.400	-0.260	0.520	0.770
2020/01/31 23:38:47.9	176.420	-0.280	0.510	0.760
2020/01/31 23:38:48.0	176.440	-0.300	0.490	0.760
2020/01/31 23:38:48.1	176.470	-0.310	0.460	0.760
2020/01/31 23:38:48.2	176.480	-0.320	0.430	0.770
2020/01/31 23:38:48.3	176.500	-0.320	0.390	0.780
2020/01/31 23:38:48.4	176.510	-0.320	0.350	0.790
2020/01/31 23:38:48.5	176.520	-0.320	0.300	0.810
2020/01/31 23:38:48.6	176.530	-0.310	0.250	0.830
2020/01/31 23:38:48.7	176.530	-0.300	0.200	0.850
2020/01/31 23:38:48.8	176.530	-0.290	0.140	0.870
2020/01/31 23:38:48.9	176.530	-0.270	0.080	0.900
2020/01/31 23:38:49.0	176.530	-0.250	0.020	0.930
2020/01/31 23:38:49.1	176.530	-0.220	-0.050	0.960
2020/01/31 23:38:49.2	176.520	-0.200	-0.110	0.990
2020/01/31 23:38:49.3	176.520	-0.170	-0.180	1.020
2020/01/31 23:38:49.4	176.510	-0.140	-0.240	1.050
2020/01/31 23:38:49.5	176.500	-0.110	-0.300	1.090
2020/01/31 23:38:49.6	176.480	-0.080	-0.370	1.120
2020/01/31 23:38:49.7	176.470	-0.050	-0.430	1.150
2020/01/31 23:38:49.8	176.460	-0.010	-0.480	1.180
2020/01/31 23:38:49.9	176.440	0.020	-0.540	1.210
2020/01/31 23:38:50.0	176.430	0.050	-0.590	1.250
2020/01/31 23:38:50.1	176.390	0.080	-0.630	1.280
2020/01/31 23:38:50.2	176.380	0.110	-0.670	1.310
2020/01/31 23:38:50.3	176.360	0.140	-0.710	1.340
2020/01/31 23:38:50.4	176.340	0.170	-0.750	1.380
2020/01/31 23:38:50.5	176.330	0.200	-0.770	1.410
2020/01/31 23:38:50.6	176.310	0.220	-0.800	1.430
2020/01/31 23:38:50.7	176.290	0.240	-0.820	1.460
2020/01/31 23:38:50.8	176.270	0.260	-0.830	1.490
2020/01/31 23:38:50.9	176.260	0.280	-0.840	1.520
2020/01/31 23:38:51.0	176.240	0.290	-0.850	1.550
2020/01/31 23:38:51.1	176.220	0.300	-0.850	1.570
2020/01/31 23:38:51.2	176.200	0.310	-0.850	1.600
2020/01/31 23:38:51.3	176.180	0.320	-0.840	1.620
2020/01/31 23:38:51.4	176.160	0.320	-0.830	1.650
2020/01/31 23:38:51.5	176.140	0.320	-0.820	1.670
2020/01/31 23:38:51.6	176.120	0.320	-0.810	1.700
2020/01/31 23:38:51.7	176.100	0.320	-0.790	1.720
2020/01/31 23:38:51.8	176.080	0.310	-0.760	1.740
2020/01/31 23:38:51.9	176.060	0.300	-0.740	1.760
2020/01/31 23:38:52.0	176.040	0.300	-0.710	1.770
2020/01/31 23:38:52.1	176.030	0.280	-0.690	1.800
2020/01/31 23:38:52.2	176.010	0.270	-0.660	1.810
2020/01/31 23:38:52.3	175.990	0.260	-0.630	1.830
2020/01/31 23:38:52.4	175.970	0.250	-0.590	1.840
2020/01/31 23:38:52.5	175.950	0.230	-0.560	1.840
2020/01/31 23:38:52.6	175.930	0.220	-0.520	1.850
2020/01/31 23:38:52.7	175.910	0.210	-0.490	1.850
2020/01/31 23:38:52.8	175.890	0.190	-0.460	1.850
2020/01/31 23:38:52.9	175.870	0.180	-0.420	1.850
2020/01/31 23:38:53.0	175.850	0.170	-0.390	1.840
2020/01/31 23:38:53.1	175.830	0.150	-0.350	1.830
2020/01/31 23:38:53.2	175.810	0.140	-0.310	1.820
2020/01/31 23:38:53.3	175.800	0.130	-0.280	1.800
2020/01/31 23:38:53.4	175.790	0.120	-0.250	1.790
2020/01/31 23:38:53.5	175.780	0.110	-0.220	1.770
2020/01/31 23:38:53.6	175.770	0.100	-0.190	1.740
2020/01/31 23:38:53.7	175.760	0.100	-0.160	1.720
2020/01/31 23:38:53.8	175.760	0.090	-0.130	1.690
2020/01/31 23:38:53.9	175.760	0.080	-0.100	1.660
2020/01/31 23:38:54.0	175.760	0.070	-0.080	1.630
2020/01/31 23:38:54.1	175.750	0.070	-0.060	1.600
2020/01/31 23:38:54.2	175.760	0.060	-0.040	1.570
2020/01/31 23:38:54.3	175.760	0.050	-0.020	1.540
2020/01/31 23:38:54.4	175.770	0.040	0.000	1.500
2020/01/31 23:38:54.5	175.770	0.030	0.020	1.470
2020/01/31 23:38:54.6	175.780	0.020	0.030	1.440
2020/01/31 23:38:54.7	175.790	0.010	0.040	1.410
2020/01/31 23:38:54.8	175.800	0.000	0.050	1.380
2020/01/31 23:38:54.9	175.810	-0.010	0.050	1.350
2020/01/31 23:38:55.0	175.830	-0.020	0.050	1.330
2020/01/31 23:38:55.1	175.820	-0.030	0.060	1.300
2020/01/31 23:38:55.2	175.840	-0.040	0.050	1.280
2020/01/31 23:38:55.3	175.850	-0.060	0.040	1.270
2020/01/31 23:38:55.4	175.860	-0.070	0.030	1.260
2020/01/31 23:38:55.5	175.870	-0.080	0.010	1.250
2020/01/31 23:38:55.6	175.880	-0.100	-0.000	1.250
2020/01/31 23:38:55.7	175.880	-0.110	-0.030	1.250
2020/01/31 23:38:55.8	175.890	-0.120	-0.050	1.250
2020/01/31 23:38:55.9	175.890	-0.130	-0.080	1.260
2020/01/31 23:38:56.0	175.890	-0.150	-0.110	1.270
2020/01/31 23:38:56.1	175.870	-0.160	-0.150	1.300
2020/01/31 23:38:56.2	175.870	-0.170	-0.190	1.320
2020/01/31 23:38:56.3	175.860	-0.170	-0.230	1.340
2020/01/31 23:38:56.4	175.850	-0.180	-0.270	1.370
2020/01/31 23:38:56.5	175.830	-0.190	-0.310	1.400
2020/01/31 23:38:56.6	175.820	-0.190	-0.360	1.430
2020/01/31 23:38:56.7	175.800	-0.200	-0.400	1.470
2020/01/31 23:38:56.8	175.780	-0.200	-0.440	1.500
2020/01/31 23:38:56.9	175.760	-0.200	-0.480	1.530
2020/01/31 23:38:57.0	175.740	-0.200	-0.520	1.570
2020/01/31 23:38:57.1	175.720	-0.200	-0.550	1.600
2020/01/31 23:38:57.2	175.700	-0.200	-0.580	1.630
2020/01/31 23:38:57.3	175.680	-0.190	-0.610	1.660
2020/01/31 23:38:57.4	175.660	-0.190	-0.630	1.690
2020/01/31 23:38:57.5	175.640	-0.180	-0.650	1.710
2020/01/31 23:38:57.6	175.630	-0.180	-0.660	1.730
2020/01/31 23:38:57.7	175.610	-0.170	-0.670	1.750
2020/01/31 23:38:57.8	175.600	-0.170	-0.670	1.770
2020/01/31 23:38:57.9	175.590	-0.160	-0.660	1.790
2020/01/31 23:38:58.0	175.580	-0.160	-0.650	1.800
2020/01/31 23:38:58.1	175.550	-0.150	-0.630	1.820
2020/01/31 23:38:58.2	175.540	-0.150	-0.610	1.830
2020/01/31 23:38:58.3	175.540	-0.150	-0.580	1.840
2020/01/31 23:38:58.4	175.530	-0.140	-0.540	1.850
2020/01/31 23:38:58.5	175.530	-0.140	-0.500	1.860
2020/01/31 23:38:58.6	175.530	-0.140	-0.460	1.860
2020/01/31 23:38:58.7	175.530	-0.140	-0.410	1.870
2020/01/31 23:38:58.8	175.530	-0.140	-0.360	1.870
2020/01/31 23:38:58.9	175.540	-0.140	-0.310	1.870
2020/01/31 23:38:59.0	175.540	-0.150	-0.260	1.870
2020/01/31 23:38:59.1	175.550	-0.150	-0.200	1.870
2020/01/31 23:38:59.2	175.560	-0.150	-0.140	1.860
2020/01/31 23:38:59.3	175.570	-0.160	-0.090	1.850
2020/01/31 23:38:59.4	175.580	-0.170	-0.030	1.840
2020/01/31 23:38:59.5	175.590	-0.170	0.020	1.820
2020/01/31 23:38:59.6	175.600	-0.180	0.070	1.800
2020/01/31 23:38:59.7	175.610	-0.180	0.120	1.780
2020/01/31 23:38:59.8	175.630	-0.190	0.170	1.750
2020/01/31 23:38:59.9	175.640	-0.200	0.210	1.720
2020/01/31 23:39:00.0	175.660	-0.200	0.250	1.690
2020/01/31 23:39:00.1	175.660	-0.210	0.280	1.660
2020/01/31 23:39:00.2	175.680	-0.210	0.310	1.620
2020/01/31 23:39:00.3	175.690	-0.210	0.330	1.580
2020/01/31 23:39:00.4	175.710	-0.210	0.350	1.540
2020/01/31 23:39:00.5	175.730	-0.210	0.370	1.500
2020/01/31 23:39:00.6	175.740	-0.210	0.380	1.450
2020/01/31 23:39:00.7	175.760	-0.200	0.380	1.410
2020/01/31 23:39:00.8	175.770	-0.200	0.380	1.360
2020/01/31 23:39:00.9	175.790	-0.190	0.370	1.320
2020/01/31 23:39:01.0	175.800	-0.180	0.360	1.280
2020/01/31 23:39:01.1	175.810	-0.160	0.350	1.240
2020/01/31 23:39:01.2	175.820	-0.150	0.330	1.200
2020/01/31 23:39:01.3	175.830	-0.130	0.300	1.160
2020/01/31 23:39:01.4	175.840	-0.110	0.270	1.120
2020/01/31 23:39:01.5	175.850	-0.090	0.230	1.090
2020/01/31 23:39:01.6	175.850	-0.070	0.190	1.060
2020/01/31 23:39:01.7	175.850	-0.040	0.150	1.030
2020/01/31 23:39:01.8	175.850	-0.010	0.100	1.010
2020/01/31 23:39:01.9	175.850	0.020	0.050	0.990
2020/01/31 23:39:02.0	175.850	0.050	-0.000	0.970
2020/01/31 23:39:02.1	175.870	0.080	-0.060	0.950
2020/01/31 23:39:02.2	175.860	0.110	-0.120	0.940
2020/01/31 23:39:02.3	175.850	0.140	-0.170	0.930
2020/01/31 23:39:02.4	175.850	0.180	-0.230	0.920
2020/01/31 23:39:02.5	175.840	0.210	-0.290	0.920
2020/01/31 23:39:02.6	175.830	0.240	-0.350	0.920
2020/01/31 23:39:02.7	175.820	0.270	-0.400	0.920
2020/01/31 23:39:02.8	175.810	0.300	-0.460	0.920
2020/01/31 23:39:02.9	175.800	0.330	-0.510	0.930
2020/01/31 23:39:03.0	175.790	0.350	-0.560	0.940
2020/01/31 23:39:03.1	175.780	0.380	-0.600	0.960
2020/01/31 23:39:03.2	175.770	0.400	-0.640	0.970
2020/01/31 23:39:03.3	175.760	0.420	-0.680	0.990
2020/01/31 23:39:03.4	175.750	0.430	-0.720	1.010
2020/01/31 23:39:03.5	175.750	0.450	-0.740	1.030
2020/01/31 23:39:03.6	175.740	0.450	-0.770	1.050
2020/01/31 23:39:03.7	175.740	0.460	-0.780	1.080
2020/01/31 23:39:03.8	175.730	0.460	-0.800	1.100
2020/01/31 23:39:03.9	175.730	0.460	-0.800	1.120
2020/01/31 23:39:04.0	175.730	0.450	-0.810	1.150
2020/01/31 23:39:04.1	175.740	0.440	-0.800	1.180
2020/01/31 23:39:04.2	175.750	0.420	-0.790	1.210
2020/01/31 23:39:04.3	175.750	0.400	-0.780	1.230
2020/01/31 23:39:04.4	175.760	0.380	-0.760	1.260
2020/01/31 23:39:04.5	175.760	0.350	-0.740	1.290
2020/01/31 23:39:04.6	175.770	0.320	-0.710	1.320
2020/01/31 23:39:04.7	175.780	0.290	-0.680	1.350
2020/01/31 23:39:04.8	175.790	0.250	-0.640	1.380
2020/01/31 23:39:04.9	175.800	0.210	-0.600	1.410
2020/01/31 23:39:05.0	175.810	0.170	-0.560	1.440
2020/01/31 23:39:05.1	175.830	0.130	-0.520	1.480
2020/01/31 23:39:05.2	175.840	0.080	-0.470	1.510
2020/01/31 23:39:05.3	175.860	0.030	-0.420	1.550
2020/01/31 23:39:05.4	175.870	-0.010	-0.370	1.580
2020/01/31 23:39:05.5	175.890	-0.060	-0.310	1.610
2020/01/31 23:39:05.6	175.900	-0.110	-0.260	1.640
2020/01/31 23:39:05.7	175.920	-0.160	-0.200	1.680
2020/01/31 23:39:05.8	175.940	-0.210	-0.140	1.710
2020/01/31 23:39:05.9	175.950	-0.250	-0.090	1.740
2020/01/31 23:39:06.0	175.970	-0.290	-0.030	1.770
2020/01/31 23:39:06.1	175.990	-0.340	0.020	1.800
2020/01/31 23:39:06.2	176.000	-0.380	0.070	1.830
2020/01/31 23:39:06.3	176.020	-0.410	0.120	1.850
2020/01/31 23:39:06.4	176.040	-0.440	0.170	1.880
2020/01/31 23:39:06.5	176.050	-0.470	0.210	1.900
2020/01/31 23:39:06.6	176.070	-0.490	0.240	1.920
2020/01/31 23:39:06.7	176.080	-0.510	0.280	1.940
2020/01/31 23:39:06.8	176.100	-0.530	0.300	1.960
2020/01/31 23:39:06.9	176.110	-0.540	0.320	1.970
2020/01/31 23:39:07.0	176.120	-0.540	0.340	1.980
2020/01/31 23:39:07.1	176.120	-0.540	0.340	1.990
2020/01/31 23:39:07.2	176.130	-0.530	0.340	1.990
2020/01/31 23:39:07.3	176.130	-0.520	0.330	1.990
2020/01/31 23:39:07.4	176.140	-0.500	0.320	1.990
2020/01/31 23:39:07.5	176.140	-0.480	0.300	1.980
2020/01/31 23:39:07.6	176.150	-0.450	0.270	1.980
2020/01/31 23:39:07.7	176.150	-0.410	0.240	1.970
2020/01/31 23:39:07.8	176.140	-0.380	0.200	1.950
2020/01/31 23:39:07.9	176.140	-0.330	0.150	1.940
2020/01/31 23:39:08.0	176.130	-0.290	0.100	1.920
2020/01/31 23:39:08.1	176.130	-0.240	0.040	1.890
2020/01/31 23:39:08.2	176.120	-0.190	-0.010	1.880
2020/01/31 23:39:08.3	176.100	-0.130	-0.080	1.860
2020/01/31 23:39:08.4	176.090	-0.080	-0.140	1.840
2020/01/31 23:39:08.5	176.070	-0.020	-0.210	1.820
2020/01/31 23:39:08.6	176.050	0.040	-0.280	1.800
2020/01/31 23:39:08.7	176.030	0.090	-0.340	1.780
2020/01/31 23:39:08.8	176.010	0.150	-0.410	1.760
2020/01/31 23:39:08.9	175.980	0.210	-0.480	1.740
2020/01/31 23:39:09.0	175.960	0.260	-0.540	1.730
2020/01/31 23:39:09.1	175.930	0.310	-0.600	1.720
2020/01/31 23:39:09.2	175.910	0.360	-0.650	1.710
2020/01/31 23:39:09.3	175.880	0.410	-0.710	1.690
2020/01/31 23:39:09.4	175.850	0.460	-0.750	1.680
2020/01/31 23:39:09.5	175.830	0.500	-0.800	1.660
2020/01/31 23:39:09.6	175.810	0.530	-0.830	1.650
2020/01/31 23:39:09.7	175.790	0.570	-0.860	1.630
2020/01/31 23:39:09.8	175.770	0.590	-0.880	1.620
2020/01/31 23:39:09.9	175.750	0.620	-0.900	1.600
2020/01/31 23:39:10.0	175.740	0.630	-0.900	1.580
2020/01/31 23:39:10.1	175.730	0.650	-0.900	1.560
2020/01/31 23:39:10.2	175.720	0.650	-0.900	1.540
2020/01/31 23:39:10.3	175.720	0.650	-0.880	1.520
2020/01/31 23:39:10.4	175.710	0.650	-0.860	1.500
2020/01/31 23:39:10.5	175.710	0.640	-0.830	1.480
2020/01/31 23:39:10.6	175.710	0.630	-0.790	1.450
2020/01/31 23:39:10.7	175.710	0.610	-0.750	1.430
2020/01/31 23:39:10.8	175.720	0.590	-0.700	1.400
2020/01/31 23:39:10.9	175.720	0.560	-0.650	1.380
2020/01/31 23:39:11.0	175.740	0.530	-0.590	1.350
2020/01/31 23:39:11.1	175.750	0.490	-0.530	1.330
2020/01/31 23:39:11.2	175.760	0.450	-0.460	1.300
2020/01/31 23:39:11.3	175.770	0.410	-0.400	1.280
2020/01/31 23:39:11.4	175.780	0.360	-0.330	1.260
2020/01/31 23:39:11.5	175.790	0.310	-0.270	1.240
2020/01/31 23:39:11.6	175.800	0.260	-0.200	1.220
2020/01/31 23:39:11.7	175.810	0.210	-0.140	1.210
2020/01/31 23:39:11.8	175.810	0.150	-0.070	1.200
2020/01/31 23:39:11.9	175.820	0.100	-0.010	1.190
2020/01/31 23:39:12.0	175.830	0.050	0.040	1.180
2020/01/31 23:39:12.1	175.850	-0.010	0.090	1.180
2020/01/31 23:39:12.2	175.850	-0.060	0.140	1.170
2020/01/31 23:39:12.3	175.860	-0.110	0.180	1.170
2020/01/31 23:39:12.4	175.860	-0.160	0.220	1.180
2020/01/31 23:39:12.5	175.870	-0.210	0.260	1.180
2020/01/31 23:39:12.6	175.880	-0.250	0.290	1.190
2020/01/31 23:39:12.7	175.880	-0.300	0.310	1.200
2020/01/31 23:39:12.8	175.890	-0.340	0.330	1.220
2020/01/31 23:39:12.9	175.890	-0.370	0.340	1.230
2020/01/31 23:39:13.0	175.900	-0.400	0.350	1.250
2020/01/31 23:39:13.1	175.890	-0.430	0.350	1.260
2020/01/31 23:39:13.2	175.900	-0.460	0.350	1.280
2020/01/31 23:39:13.3	175.910	-0.480	0.350	1.300
2020/01/31 23:39:13.4	175.910	-0.500	0.330	1.320
2020/01/31 23:39:13.5	175.920	-0.510	0.320	1.350
2020/01/31 23:39:13.6	175.940	-0.520	0.300	1.370
2020/01/31 23:39:13.7	175.950	-0.530	0.280	1.390
2020/01/31 23:39:13.8	175.960	-0.530	0.250	1.410
2020/01/31 23:39:13.9	175.970	-0.520	0.220	1.420
2020/01/31 23:39:14.0	175.980	-0.520	0.190	1.440
2020/01/31 23:39:14.1	175.990	-0.500	0.160	1.460
2020/01/31 23:39:14.2	176.000	-0.490	0.120	1.480
2020/01/31 23:39:14.3	176.010	-0.470	0.080	1.490
2020/01/31 23:39:14.4	176.020	-0.450	0.040	1.500
2020/01/31 23:39:14.5	176.030	-0.420	0.000	1.510
2020/01/31 23:39:14.6	176.030	-0.390	-0.040	1.510
2020/01/31 23:39:14.7	176.040	-0.360	-0.090	1.520
2020/01/31 23:39:14.8	176.050	-0.330	-0.130	1.520
2020/01/31 23:39:14.9	176.050	-0.290	-0.180	1.520
2020/01/31 23:39:15.0	176.050	-0.250	-0.220	1.520
2020/01/31 23:39:15.1	176.050	-0.210	-0.270	1.520
2020/01/31 23:39:15.2	176.040	-0.160	-0.320	1.520
2020/01/31 23:39:15.3	176.040	-0.120	-0.370	1.520
2020/01/31 23:39:15.4	176.030	-0.070	-0.420	1.510
2020/01/31 23:39:15.5	176.020	-0.030	-0.470	1.510
2020/01/31 23:39:15.6	176.010	0.020	-0.520	1.500
2020/01/31 23:39:15.7	176.000	0.070	-0.570	1.500
2020/01/31 23:39:15.8	175.980	0.120	-0.620	1.490
2020/01/31 23:39:15.9	175.970	0.170	-0.660	1.480
2020/01/31 23:39:16.0	175.950	0.210	-0.710	1.470
2020/01/31 23:39:16.1	175.920	0.260	-0.760	1.470
2020/01/31 23:39:16.2	175.900	0.300	-0.800	1.460
2020/01/31 23:39:16.3	175.880	0.340	-0.850	1.450
2020/01/31 23:39:16.4	175.860	0.380	-0.890	1.440
2020/01/31 23:39:16.5	175.840	0.410	-0.920	1.440
2020/01/31 23:39:16.6	175.820	0.440	-0.960	1.430
2020/01/31 23:39:16.7	175.800	0.470	-0.990	1.430
2020/01/31 23:39:16.8	175.790	0.490	-1.020	1.420
2020/01/31 23:39:16.9	175.770	0.510	-1.040	1.420
2020/01/31 23:39:17.0	175.750	0.520	-1.060	1.410
2020/01/31 23:39:17.1	175.720	0.530	-1.070	1.410
2020/01/31 23:39:17.2	175.710	0.530	-1.080	1.410
2020/01/31 23:39:17.3	175.690	0.530	-1.080	1.410
2020/01/31 23:39:17.4	175.680	0.520	-1.080	1.410
2020/01/31 23:39:17.5	175.670	0.510	-1.070	1.410
2020/01/31 23:39:17.6	175.660	0.490	-1.050	1.410
2020/01/31 23:39:17.7	175.650	0.460	-1.030	1.410
2020/01/31 23:39:17.8	175.650	0.430	-1.000	1.410
2020/01/31 23:39:17.9	175.640	0.400	-0.960	1.420
2020/01/31 23:39:18.0	175.640	0.360	-0.920	1.420
2020/01/31 23:39:18.1	175.650	0.310	-0.870	1.430
2020/01/31 23:39:18.2	175.650	0.270	-0.810	1.430
2020/01/31 23:39:18.3	175.660	0.210	-0.750	1.430
2020/01/31 23:39:18.4	175.670	0.160	-0.690	1.430
2020/01/31 23:39:18.5	175.680	0.100	-0.620	1.430
2020/01/31 23:39:18.6	175.700	0.040	-0.550	1.430
2020/01/31 23:39:18.7	175.720	-0.020	-0.470	1.430
2020/01/31 23:39:18.8	175.740	-0.090	-0.390	1.420
2020/01/31 23:39:18.9	175.760	-0.150	-0.300	1.410
2020/01/31 23:39:19.0	175.790	-0.220	-0.220	1.400
2020/01/31 23:39:19.1	175.830	-0.280	-0.140	1.400
2020/01/31 23:39:19.2	175.860	-0.350	-0.050	1.380
2020/01/31 23:39:19.3	175.900	-0.410	0.040	1.370
2020/01/31 23:39:19.4	175.940	-0.470	0.120	1.350
2020/01/31 23:39:19.5	175.970	-0.530	0.210	1.330
2020/01/31 23:39:19.6	176.010	-0.590	0.290	1.310
2020/01/31 23:39:19.7	176.060	-0.640	0.370	1.290
2020/01/31 23:39:19.8	176.100	-0.690	0.440	1.270
2020/01/31 23:39:19.9	176.140	-0.730	0.510	1.250
2020/01/31 23:39:20.0	176.180	-0.770	0.580	1.230
2020/01/31 23:39:20.1	176.230	-0.800	0.640	1.210
2020/01/31 23:39:20.2	176.270	-0.830	0.690	1.190
2020/01/31 23:39:20.3	176.310	-0.850	0.740	1.180
2020/01/31 23:39:20.4	176.350	-0.870	0.770	1.160
2020/01/31 23:39:20.5	176.380	-0.880	0.810	1.160
2020/01/31 23:39:20.6	176.420	-0.890	0.830	1.150
2020/01/31 23:39:20.7	176.440	-0.880	0.840	1.150
2020/01/31 23:39:20.8	176.470	-0.870	0.850	1.140
2020/01/31 23:39:20.9	176.490	-0.860	0.840	1.150
2020/01/31 23:39:21.0	176.510	-0.840	0.830	1.150
2020/01/31 23:39:21.1	176.520	-0.810	0.810	1.170
2020/01/31 23:39:21.2	176.530	-0.770	0.780	1.180
2020/01/31 23:39:21.3	176.540	-0.730	0.740	1.190
2020/01/31 23:39:21.4	176.540	-0.680	0.690	1.210
2020/01/31 23:39:21.5	176.540	-0.630	0.640	1.230
2020/01/31 23:39:21.6	176.530	-0.580	0.570	1.250
2020/01/31 23:39:21.7	176.520	-0.510	0.500	1.280
2020/01/31 23:39:21.8	176.510	-0.450	0.430	1.300
2020/01/31 23:39:21.9	176.490	-0.380	0.350	1.330
2020/01/31 23:39:22.0	176.470	-0.300	0.260	1.360
2020/01/31 23:39:22.1	176.440	-0.230	0.170	1.390
2020/01/31 23:39:22.2	176.410	-0.150	0.080	1.420
2020/01/31 23:39:22.3	176.380	-0.070	-0.010	1.450
2020/01/31 23:39:22.4	176.340	0.010	-0.100	1.480
2020/01/31 23:39:22.5	176.300	0.090	-0.200	1.520
2020/01/31 23:39:22.6	176.260	0.170	-0.290	1.550
2020/01/31 23:39:22.7	176.210	0.250	-0.370	1.580
2020/01/31 23:39:22.8	176.170	0.320	-0.460	1.610
2020/01/31 23:39:22.9	176.120	0.400	-0.540	1.640
2020/01/31 23:39:23.0	176.070	0.470	-0.610	1.670
2020/01/31 23:39:23.1	176.030	0.540	-0.680	1.700
2020/01/31 23:39:23.2	175.980	0.600	-0.740	1.730
2020/01/31 23:39:23.3	175.940	0.650	-0.790	1.750
2020/01/31 23:39:23.4	175.890	0.710	-0.830	1.780
2020/01/31 23:39:23.5	175.850	0.750	-0.870	1.800
2020/01/31 23:39:23.6	175.810	0.790	-0.890	1.820
2020/01/31 23:39:23.7	175.770	0.830	-0.910	1.840
2020/01/31 23:39:23.8	175.730	0.850	-0.920	1.850
2020/01/31 23:39:23.9	175.700	0.870	-0.910	1.870
2020/01/31 23:39:24.0	175.670	0.890	-0.900	1.880
2020/01/31 23:39:24.1	175.630	0.890	-0.880	1.880
2020/01/31 23:39:24.2	175.600	0.890	-0.850	1.890
2020/01/31 23:39:24.3	175.580	0.890	-0.810	1.890
2020/01/31 23:39:24.4	175.560	0.870	-0.760	1.900
2020/01/31 23:39:24.5	175.550	0.850	-0.710	1.890
2020/01/31 23:39:24.6	175.540	0.830	-0.640	1.890
2020/01/31 23:39:24.7	175.530	0.800	-0.580	1.890
2020/01/31 23:39:24.8	175.520	0.760	-0.510	1.880
2020/01/31 23:39:24.9	175.520	0.720	-0.430	1.870
2020/01/31 23:39:25.0	175.520	0.670	-0.350	1.860
2020/01/31 23:39:25.1	175.510	0.620	-0.280	1.850
2020/01/31 23:39:25.2	175.510	0.570	-0.200	1.840
2020/01/31 23:39:25.3	175.520	0.510	-0.120	1.830
2020/01/31 23:39:25.4	175.520	0.450	-0.040	1.810
2020/01/31 23:39:25.5	175.530	0.390	0.030	1.790
2020/01/31 23:39:25.6	175.540	0.330	0.110	1.780
2020/01/31 23:39:25.7	175.550	0.270	0.170	1.760
2020/01/31 23:39:25.8	175.570	0.200	0.240	1.740
2020/01/31 23:39:25.9	175.580	0.140	0.300	1.720
2020/01/31 23:39:26.0	175.590	0.080	0.350	1.700
2020/01/31 23:39:26.1	175.630	0.020	0.400	1.680
2020/01/31 23:39:26.2	175.640	-0.040	0.440	1.660
2020/01/31 23:39:26.3	175.660	-0.090	0.470	1.640
2020/01/31 23:39:26.4	175.670	-0.140	0.490	1.620
2020/01/31 23:39:26.5	175.690	-0.190	0.500	1.600
2020/01/31 23:39:26.6	175.710	-0.240	0.510	1.580
2020/01/31 23:39:26.7	175.730	-0.280	0.510	1.560
2020/01/31 23:39:26.8	175.750	-0.320	0.500	1.540
2020/01/31 23:39:26.9	175.770	-0.350	0.490	1.520
2020/01/31 23:39:27.0	175.790	-0.380	0.470	1.500
2020/01/31 23:39:27.1	175.820	-0.400	0.430	1.480
2020/01/31 23:39:27.2	175.840	-0.420	0.390	1.460
2020/01/31 23:39:27.3	175.860	-0.430	0.350	1.430
2020/01/31 23:39:27.4	175.880	-0.440	0.300	1.410
2020/01/31 23:39:27.5	175.900	-0.450	0.240	1.390
2020/01/31 23:39:27.6	175.920	-0.440	0.180	1.370
2020/01/31 23:39:27.7	175.940	-0.440	0.110	1.350
2020/01/31 23:39:27.8	175.960	-0.430	0.030	1.330
2020/01/31 23:39:27.9	175.970	-0.410	-0.050	1.310
2020/01/31 23:39:28.0	175.990	-0.390	-0.140	1.300
2020/01/31 23:39:28.1	176.000	-0.370	-0.220	1.290
2020/01/31 23:39:28.2	176.000	-0.340	-0.310	1.280
2020/01/31 23:39:28.3	176.010	-0.300	-0.410	1.270
2020/01/31 23:39:28.4	176.010	-0.270	-0.510	1.270
2020/01/31 23:39:28.5	176.000	-0.230	-0.610	1.270
2020/01/31 23:39:28.6	175.990	-0.180	-0.710	1.270
2020/01/31 23:39:28.7	175.980	-0.140	-0.810	1.270
2020/01/31 23:39:28.8	175.970	-0.090	-0.900	1.280
2020/01/31 23:39:28.9	175.960	-0.040	-1.000	1.290
2020/01/31 23:39:29.0	175.940	0.010	-1.090	1.300
2020/01/31 23:39:29.1	175.910	0.060	-1.180	1.300
2020/01/31 23:39:29.2	175.890	0.110	-1.260	1.310
2020/01/31 23:39:29.3	175.870	0.160	-1.340	1.320
2020/01/31 23:39:29.4	175.850	0.200	-1.410	1.330
2020/01/31 23:39:29.5	175.830	0.250	-1.470	1.330
2020/01/31 23:39:29.6	175.820	0.290	-1.520	1.340
2020/01/31 23:39:29.7	175.800	0.330	-1.570	1.340
2020/01/31 23:39:29.8	175.780	0.370	-1.600	1.340
2020/01/31 23:39:29.9	175.770	0.400	-1.620	1.340
2020/01/31 23:39:30.0	175.760	0.430	-1.630	1.340
2020/01/31 23:39:30.1	175.740	0.460	-1.630	1.340
2020/01/31 23:39:30.2	175.720	0.480	-1.620	1.340
2020/01/31 23:39:30.3	175.710	0.490	-1.600	1.340
2020/01/31 23:39:30.4	175.700	0.500	-1.570	1.340
2020/01/31 23:39:30.5	175.700	0.500	-1.530	1.330
2020/01/31 23:39:30.6	175.690	0.500	-1.470	1.330
2020/01/31 23:39:30.7	175.690	0.500	-1.410	1.330
2020/01/31 23:39:30.8	175.690	0.490	-1.330	1.320
2020/01/31 23:39:30.9	175.690	0.470	-1.250	1.320
2020/01/31 23:39:31.0	175.690	0.450	-1.160	1.320
2020/01/31 23:39:31.1	175.690	0.430	-1.070	1.320
2020/01/31 23:39:31.2	175.690	0.400	-0.970	1.310
2020/01/31 23:39:31.3	175.700	0.360	-0.860	1.300
2020/01/31 23:39:31.4	175.710	0.320	-0.750	1.300
2020/01/31 23:39:31.5	175.730	0.280	-0.640	1.290
2020/01/31 23:39:31.6	175.740	0.240	-0.520	1.280
2020/01/31 23:39:31.7	175.760	0.190	-0.410	1.270
2020/01/31 23:39:31.8	175.780	0.140	-0.300	1.260
2020/01/31 23:39:31.9	175.800	0.090	-0.190	1.240
2020/01/31 23:39:32.0	175.830	0.040	-0.080	1.230
2020/01/31 23:39:32.1	175.840	-0.010	0.020	1.210
2020/01/31 23:39:32.2	175.860	-0.070	0.110	1.190
2020/01/31 23:39:32.3	175.890	-0.120	0.200	1.170
2020/01/31 23:39:32.4	175.910	-0.170	0.280	1.160
2020/01/31 23:39:32.5	175.930	-0.220	0.360	1.140
2020/01/31 23:39:32.6	175.960	-0.270	0.430	1.120
2020/01/31 23:39:32.7	175.980	-0.320	0.480	1.100
2020/01/31 23:39:32.8	176.000	-0.370	0.530	1.090
2020/01/31 23:39:32.9	176.020	-0.410	0.570	1.080
2020/01/31 23:39:33.0	176.030	-0.450	0.610	1.070
2020/01/31 23:39:33.1	176.060	-0.490	0.630	1.060
2020/01/31 23:39:33.2	176.080	-0.530	0.640	1.060
2020/01/31 23:39:33.3	176.090	-0.560	0.650	1.060
2020/01/31 23:39:33.4	176.090	-0.590	0.650	1.070
2020/01/31 23:39:33.5	176.100	-0.610	0.630	1.080
2020/01/31 23:39:33.6	176.100	-0.630	0.620	1.090
2020/01/31 23:39:33.7	176.100	-0.640	0.590	1.120
2020/01/31 23:39:33.8	176.100	-0.660	0.560	1.140
2020/01/31 23:39:33.9	176.090	-0.660	0.520	1.170
2020/01/31 23:39:34.0	176.090	-0.670	0.480	1.210
2020/01/31 23:39:34.1	176.080	-0.660	0.430	1.250
2020/01/31 23:39:34.2	176.060	-0.660	0.380	1.300
2020/01/31 23:39:34.3	176.050	-0.650	0.330	1.340
2020/01/31 23:39:34.4	176.030	-0.640	0.270	1.390
2020/01/31 23:39:34.5	176.020	-0.620	0.220	1.450
2020/01/31 23:39:34.6	176.000	-0.600	0.160	1.500
2020/01/31 23:39:34.7	175.970	-0.580	0.110	1.560
2020/01/31 23:39:34.8	175.950	-0.550	0.060	1.610
2020/01/31 23:39:34.9	175.930	-0.520	0.010	1.660
2020/01/31 23:39:35.0	175.900	-0.490	-0.030	1.720
2020/01/31 23:39:35.1	175.890	-0.460	-0.070	1.770
2020/01/31 23:39:35.2	175.860	-0.420	-0.110	1.820
2020/01/31 23:39:35.3	175.840	-0.390	-0.140	1.860
2020/01/31 23:39:35.4	175.810	-0.350	-0.160	1.900
2020/01/31 23:39:35.5	175.790	-0.310	-0.180	1.940
2020/01/31 23:39:35.6	175.770	-0.270	-0.200	1.970
2020/01/31 23:39:35.7	175.740	-0.230	-0.210	2.000
2020/01/31 23:39:35.8	175.720	-0.190	-0.220	2.030
2020/01/31 23:39:35.9	175.700	-0.160	-0.220	2.050
2020/01/31 23:39:36.0	175.670	-0.120	-0.210	2.070
2020/01/31 23:39:36.1	175.660	-0.080	-0.200	2.080
2020/01/31 23:39:36.2	175.640	-0.050	-0.190	2.080
2020/01/31 23:39:36.3	175.610	-0.010	-0.180	2.090
2020/01/31 23:39:36.4	175.590	0.020	-0.160	2.090
2020/01/31 23:39:36.5	175.570	0.050	-0.130	2.090
2020/01/31 23:39:36.6	175.550	0.080	-0.110	2.080
2020/01/31 23:39:36.7	175.530	0.100	-0.080	2.080
2020/01/31 23:39:36.8	175.510	0.120	-0.050	2.070
2020/01/31 23:39:36.9	175.490	0.140	-0.020	2.050
2020/01/31 23:39:37.0	175.470	0.160	0.010	2.030
2020/01/31 23:39:37.1	175.450	0.180	0.040	2.020
2020/01/31 23:39:37.2	175.440	0.190	0.070	2.000
2020/01/31 23:39:37.3	175.420	0.200	0.100	1.970
2020/01/31 23:39:37.4	175.410	0.210	0.130	1.950
2020/01/31 23:39:37.5	175.400	0.220	0.160	1.920
2020/01/31 23:39:37.6	175.380	0.220	0.190	1.890
2020/01/31 23:39:37.7	175.380	0.220	0.210	1.860
2020/01/31 23:39:37.8	175.370	0.230	0.230	1.820
2020/01/31 23:39:37.9	175.360	0.220	0.250	1.790
2020/01/31 23:39:38.0	175.360	0.220	0.260	1.750
2020/01/31 23:39:38.1	175.340	0.220	0.270	1.710
2020/01/31 23:39:38.2	175.340	0.210	0.280	1.670
2020/01/31 23:39:38.3	175.340	0.210	0.280	1.640
2020/01/31 23:39:38.4	175.330	0.200	0.280	1.600
2020/01/31 23:39:38.5	175.330	0.190	0.270	1.560
2020/01/31 23:39:38.6	175.330	0.190	0.260	1.520
2020/01/31 23:39:38.7	175.320	0.180	0.240	1.490
2020/01/31 23:39:38.8	175.320	0.180	0.220	1.450
2020/01/31 23:39:38.9	175.310	0.170	0.190	1.420
2020/01/31 23:39:39.0	175.300	0.170	0.160	1.380
2020/01/31 23:39:39.1	175.310	0.170	0.120	1.350
2020/01/31 23:39:39.2	175.300	0.170	0.080	1.320
2020/01/31 23:39:39.3	175.280	0.170	0.030	1.290
2020/01/31 23:39:39.4	175.270	0.170	-0.030	1.270
2020/01/31 23:39:39.5	175.250	0.180	-0.080	1.240
2020/01/31 23:39:39.6	175.240	0.180	-0.150	1.220
2020/01/31 23:39:39.7	175.220	0.190	-0.210	1.200
2020/01/31 23:39:39.8	175.200	0.200	-0.280	1.190
2020/01/31 23:39:39.9	175.170	0.210	-0.350	1.180
2020/01/31 23:39:40.0	175.150	0.220	-0.420	1.170
2020/01/31 23:39:40.1	175.100	0.230	-0.500	1.160
2020/01/31 23:39:40.2	175.080	0.240	-0.570	1.150
2020/01/31 23:39:40.3	175.060	0.250	-0.650	1.150
2020/01/31 23:39:40.4	175.030	0.260	-0.720	1.160
2020/01/31 23:39:40.5	175.010	0.270	-0.790	1.160
2020/01/31 23:39:40.6	174.990	0.270	-0.850	1.170
2020/01/31 23:39:40.7	174.960	0.280	-0.920	1.190
2020/01/31 23:39:40.8	174.940	0.290	-0.980	1.200
2020/01/31 23:39:40.9	174.920	0.290	-1.030	1.220
2020/01/31 23:39:41.0	174.910	0.290	-1.080	1.240
2020/01/31 23:39:41.1	174.890	0.290	-1.120	1.270
2020/01/31 23:39:41.2	174.870	0.290	-1.160	1.290
2020/01/31 23:39:41.3	174.860	0.290	-1.190	1.310
2020/01/31 23:39:41.4	174.860	0.280	-1.210	1.340
2020/01/31 23:39:41.5	174.850	0.280	-1.230	1.360
2020/01/31 23:39:41.6	174.850	0.270	-1.240	1.390
2020/01/31 23:39:41.7	174.860	0.250	-1.240	1.410
2020/01/31 23:39:41.8	174.870	0.240	-1.230	1.440
2020/01/31 23:39:41.9	174.880	0.220	-1.220	1.460
2020/01/31 23:39:42.0	174.900	0.200	-1.200	1.480
2020/01/31 23:39:42.1	174.930	0.180	-1.170	1.500
2020/01/31 23:39:42.2	174.950	0.160	-1.140	1.510
2020/01/31 23:39:42.3	174.990	0.130	-1.090	1.520
2020/01/31 23:39:42.4	175.020	0.100	-1.050	1.540
2020/01/31 23:39:42.5	175.060	0.080	-0.990	1.550
2020/01/31 23:39:42.6	175.100	0.050	-0.930	1.550
2020/01/31 23:39:42.7	175.140	0.020	-0.870	1.560
2020/01/31 23:39:42.8	175.190	-0.010	-0.810	1.560
2020/01/31 23:39:42.9	175.230	-0.040	-0.740	1.560
2020/01/31 23:39:43.0	175.280	-0.070	-0.670	1.560
2020/01/31 23:39:43.1	175.330	-0.100	-0.600	1.560
2020/01/31 23:39:43.2	175.380	-0.130	-0.530	1.550
2020/01/31 23:39:43.3	175.420	-0.150	-0.460	1.550
2020/01/31 23:39:43.4	175.470	-0.180	-0.400	1.540
2020/01/31 23:39:43.5	175.520	-0.200	-0.330	1.530
2020/01/31 23:39:43.6	175.560	-0.220	-0.270	1.520
2020/01/31 23:39:43.7	175.600	-0.240	-0.210	1.510
2020/01/31 23:39:43.8	175.650	-0.260	-0.160	1.500
2020/01/31 23:39:43.9	175.690	-0.270	-0.110	1.490
2020/01/31 23:39:44.0	175.720	-0.280	-0.060	1.480
2020/01/31 23:39:44.1	175.760	-0.290	-0.020	1.470
2020/01/31 23:39:44.2	175.790	-0.290	0.020	1.460
2020/01/31 23:39:44.3	175.820	-0.290	0.050	1.460
2020/01/31 23:39:44.4	175.850	-0.290	0.070	1.450
2020/01/31 23:39:44.5	175.870	-0.280	0.100	1.450
2020/01/31 23:39:44.6	175.890	-0.270	0.110	1.450
2020/01/31 23:39:44.7	175.910	-0.260	0.130	1.450
2020/01/31 23:39:44.8	175.930	-0.240	0.130	1.450
2020/01/31 23:39:44.9	175.940	-0.220	0.140	1.460
2020/01/31 23:39:45.0	175.950	-0.200	0.140	1.460
2020/01/31 23:39:45.1	175.960	-0.180	0.140	1.470
2020/01/31 23:39:45.2	175.960	-0.150	0.140	1.480
2020/01/31 23:39:45.3	175.960	-0.120	0.130	1.500
2020/01/31 23:39:45.4	175.960	-0.100	0.120	1.510
2020/01/31 23:39:45.5	175.960	-0.070	0.110	1.520
2020/01/31 23:39:45.6	175.950	-0.040	0.090	1.530
2020/01/31 23:39:45.7	175.940	-0.010	0.080	1.550
2020/01/31 23:39:45.8	175.930	0.030	0.070	1.560
2020/01/31 23:39:45.9	175.920	0.060	0.050	1.580
2020/01/31 23:39:46.0	175.910	0.080	0.040	1.590
2020/01/31 23:39:46.1	175.900	0.110	0.020	1.610
2020/01/31 23:39:46.2	175.880	0.140	0.010	1.620
2020/01/31 23:39:46.3	175.870	0.170	0.000	1.630
2020/01/31 23:39:46.4	175.860	0.190	-0.010	1.640
2020/01/31 23:39:46.5	175.840	0.210	-0.020	1.650
2020/01/31 23:39:46.6	175.830	0.230	-0.020	1.660
2020/01/31 23:39:46.7	175.820	0.250	-0.030	1.670
2020/01/31 23:39:46.8	175.810	0.260	-0.030	1.670
2020/01/31 23:39:46.9	175.800	0.270	-0.030	1.680
2020/01/31 23:39:47.0	175.780	0.280	-0.030	1.680
2020/01/31 23:39:47.1	175.770	0.290	-0.020	1.690
2020/01/31 23:39:47.2	175.760	0.290	-0.020	1.690
2020/01/31 23:39:47.3	175.750	0.290	-0.010	1.690
2020/01/31 23:39:47.4	175.740	0.290	-0.000	1.690
2020/01/31 23:39:47.5	175.720	0.290	0.010	1.690
2020/01/31 23:39:47.6	175.710	0.280	0.020	1.690
2020/01/31 23:39:47.7	175.700	0.270	0.020	1.690
2020/01/31 23:39:47.8	175.690	0.260	0.030	1.690
2020/01/31 23:39:47.9	175.680	0.250	0.040	1.690
2020/01/31 23:39:48.0	175.670	0.240	0.050	1.690
2020/01/31 23:39:48.1	175.650	0.220	0.060	1.680
2020/01/31 23:39:48.2	175.640	0.210	0.060	1.680
2020/01/31 23:39:48.3	175.620	0.190	0.070	1.680
2020/01/31 23:39:48.4	175.610	0.180	0.070	1.690
2020/01/31 23:39:48.5	175.600	0.160	0.070	1.690
2020/01/31 23:39:48.6	175.580	0.140	0.070	1.700
2020/01/31 23:39:48.7	175.560	0.130	0.060	1.700
2020/01/31 23:39:48.8	175.550	0.110	0.050	1.710
2020/01/31 23:39:48.9	175.530	0.100	0.050	1.720
2020/01/31 23:39:49.0	175.510	0.080	0.040	1.730
2020/01/31 23:39:49.1	175.510	0.070	0.020	1.740
2020/01/31 23:39:49.2	175.490	0.050	0.010	1.750
2020/01/31 23:39:49.3	175.470	0.040	-0.010	1.760
2020/01/31 23:39:49.4	175.460	0.030	-0.030	1.770
2020/01/31 23:39:49.5	175.440	0.020	-0.040	1.770
2020/01/31 23:39:49.6	175.420	0.020	-0.060	1.780
2020/01/31 23:39:49.7	175.410	0.010	-0.080	1.790
2020/01/31 23:39:49.8	175.390	0.010	-0.100	1.790
2020/01/31 23:39:49.9	175.370	0.000	-0.120	1.790
2020/01/31 23:39:50.0	175.360	0.000	-0.140	1.790
2020/01/31 23:39:50.1	175.340	-0.000	-0.160	1.800
2020/01/31 23:39:50.2	175.330	-0.000	-0.180	1.800
2020/01/31 23:39:50.3	175.310	0.000	-0.200	1.790
2020/01/31 23:39:50.4	175.290	0.000	-0.220	1.790
2020/01/31 23:39:50.5	175.280	0.000	-0.230	1.780
2020/01/31 23:39:50.6	175.260	0.010	-0.250	1.770
2020/01/31 23:39:50.7	175.250	0.010	-0.260	1.760
2020/01/31 23:39:50.8	175.230	0.020	-0.270	1.750
2020/01/31 23:39:50.9	175.220	0.020	-0.280	1.730
2020/01/31 23:39:51.0	175.200	0.020	-0.290	1.720
2020/01/31 23:39:51.1	175.200	0.030	-0.310	1.700
2020/01/31 23:39:51.2	175.180	0.030	-0.320	1.690
2020/01/31 23:39:51.3	175.170	0.030	-0.320	1.670
2020/01/31 23:39:51.4	175.160	0.040	-0.330	1.650
2020/01/31 23:39:51.5	175.150	0.040	-0.340	1.630
2020/01/31 23:39:51.6	175.140	0.040	-0.350	1.620
2020/01/31 23:39:51.7	175.130	0.040	-0.360	1.600
2020/01/31 23:39:51.8	175.130	0.040	-0.370	1.580
2020/01/31 23:39:51.9	175.120	0.040	-0.380	1.560
2020/01/31 23:39:52.0	175.110	0.040	-0.400	1.540
2020/01/31 23:39:52.1	175.110	0.040	-0.410	1.520
2020/01/31 23:39:52.2	175.110	0.040	-0.420	1.490
2020/01/31 23:39:52.3	175.110	0.030	-0.440	1.470
2020/01/31 23:39:52.4	175.110	0.030	-0.460	1.450
2020/01/31 23:39:52.5	175.120	0.020	-0.470	1.430
2020/01/31 23:39:52.6	175.130	0.010	-0.490	1.400
2020/01/31 23:39:52.7	175.130	0.000	-0.510	1.380
2020/01/31 23:39:52.8	175.150	-0.010	-0.530	1.360
2020/01/31 23:39:52.9	175.160	-0.020	-0.550	1.340
2020/01/31 23:39:53.0	175.170	-0.030	-0.570	1.320
2020/01/31 23:39:53.1	175.170	-0.040	-0.590	1.300
2020/01/31 23:39:53.2	175.190	-0.060	-0.610	1.280
2020/01/31 23:39:53.3	175.210	-0.070	-0.630	1.260
2020/01/31 23:39:53.4	175.230	-0.090	-0.640	1.240
2020/01/31 23:39:53.5	175.250	-0.100	-0.660	1.220
2020/01/31 23:39:53.6	175.270	-0.110	-0.680	1.200
2020/01/31 23:39:53.7	175.290	-0.130	-0.700	1.190
2020/01/31 23:39:53.8	175.320	-0.140	-0.710	1.170
2020/01/31 23:39:53.9	175.340	-0.150	-0.720	1.160
2020/01/31 23:39:54.0	175.360	-0.170	-0.730	1.140
2020/01/31 23:39:54.1	175.380	-0.180	-0.740	1.130
2020/01/31 23:39:54.2	175.400	-0.190	-0.750	1.120
2020/01/31 23:39:54.3	175.430	-0.200	-0.760	1.100
2020/01/31 23:39:54.4	175.450	-0.210	-0.760	1.090
2020/01/31 23:39:54.5	175.470	-0.210	-0.760	1.080
2020/01/31 23:39:54.6	175.490	-0.220	-0.760	1.060
2020/01/31 23:39:54.7	175.510	-0.220	-0.760	1.050
2020/01/31 23:39:54.8	175.530	-0.220	-0.760	1.040
2020/01/31 23:39:54.9	175.550	-0.220	-0.750	1.020
2020/01/31 23:39:55.0	175.570	-0.220	-0.740	1.010
2020/01/31 23:39:55.1	175.590	-0.220	-0.730	1.000
2020/01/31 23:39:55.2	175.610	-0.220	-0.710	0.980
2020/01/31 23:39:55.3	175.630	-0.210	-0.700	0.970
2020/01/31 23:39:55.4	175.640	-0.210	-0.680	0.960
2020/01/31 23:39:55.5	175.660	-0.200	-0.660	0.940
2020/01/31 23:39:55.6	175.670	-0.190	-0.640	0.940
2020/01/31 23:39:55.7	175.680	-0.180	-0.620	0.930
2020/01/31 23:39:55.8	175.700	-0.170	-0.600	0.920
2020/01/31 23:39:55.9	175.710	-0.160	-0.580	0.920
2020/01/31 23:39:56.0	175.720	-0.150	-0.550	0.920
2020/01/31 23:39:56.1	175.710	-0.140	-0.530	0.920
2020/01/31 23:39:56.2	175.720	-0.130	-0.500	0.920
2020/01/31 23:39:56.3	175.730	-0.120	-0.480	0.920
2020/01/31 23:39:56.4	175.730	-0.110	-0.450	0.930
2020/01/31 23:39:56.5	175.740	-0.090	-0.420	0.940
2020/01/31 23:39:56.6	175.740	-0.080	-0.400	0.950
2020/01/31 23:39:56.7	175.750	-0.070	-0.370	0.960
2020/01/31 23:39:56.8	175.750	-0.060	-0.340	0.980
2020/01/31 23:39:56.9	175.750	-0.050	-0.320	0.990
2020/01/31 23:39:57.0	175.760	-0.040	-0.290	1.010
2020/01/31 23:39:57.1	175.760	-0.030	-0.270	1.030
2020/01/31 23:39:57.2	175.760	-0.030	-0.240	1.050
2020/01/31 23:39:57.3	175.760	-0.020	-0.210	1.070
2020/01/31 23:39:57.4	175.760	-0.020	-0.190	1.090
2020/01/31 23:39:57.5	175.760	-0.010	-0.160	1.110
2020/01/31 23:39:57.6	175.760	-0.010	-0.130	1.130
2020/01/31 23:39:57.7	175.760	-0.010	-0.100	1.150
2020/01/31 23:39:57.8	175.760	-0.010	-0.080	1.180
2020/01/31 23:39:57.9	175.760	-0.010	-0.050	1.200
2020/01/31 23:39:58.0	175.760	-0.020	-0.020	1.230
2020/01/31 23:39:58.1	175.760	-0.020	0.010	1.260
2020/01/31 23:39:58.2	175.760	-0.030	0.030	1.280
2020/01/31 23:39:58.3	175.760	-0.040	0.060	1.310
2020/01/31 23:39:58.4	175.760	-0.050	0.090	1.340
2020/01/31 23:39:58.5	175.760	-0.060	0.110	1.380
2020/01/31 23:39:58.6	175.750	-0.070	0.140	1.410
2020/01/31 23:39:58.7	175.750	-0.090	0.160	1.440
2020/01/31 23:39:58.8	175.750	-0.100	0.180	1.480
2020/01/31 23:39:58.9	175.740	-0.120	0.200	1.520
2020/01/31 23:39:59.0	175.730	-0.130	0.220	1.560
2020/01/31 23:39:59.1	175.740	-0.150	0.240	1.600
2020/01/31 23:39:59.2	175.730	-0.160	0.250	1.650
2020/01/31 23:39:59.3	175.720	-0.180	0.260	1.690
2020/01/31 23:39:59.4	175.700	-0.190	0.270	1.730
2020/01/31 23:39:59.5	175.680	-0.200	0.280	1.780
2020/01/31 23:39:59.6	175.660	-0.210	0.280	1.820
2020/01/31 23:39:59.7	175.640	-0.220	0.290	1.870
2020/01/31 23:39:59.8	175.610	-0.230	0.290	1.910
2020/01/31 23:39:59.9	175.580	-0.240	0.280	1.960
2020/01/31 23:40:00.0	175.550	-0.240	0.280	2.010
2020/01/31 23:40:00.1	175.520	-0.240	0.260	2.050
2020/01/31 23:40:00.2	175.490	-0.240	0.260	2.090
2020/01/31 23:40:00.3	175.450	-0.240	0.250	2.140
2020/01/31 23:40:00.4	175.420	-0.230	0.230	2.180
2020/01/31 23:40:00.5	175.380	-0.220	0.220	2.210
2020/01/31 23:40:00.6	175.340	-0.210	0.210	2.250
2020/01/31 23:40:00.7	175.300	-0.200	0.200	2.280
2020/01/31 23:40:00.8	175.270	-0.180	0.180	2.310
2020/01/31 23:40:00.9	175.240	-0.170	0.170	2.330
2020/01/31 23:40:01.0	175.200	-0.150	0.160	2.350
2020/01/31 23:40:01.1	175.180	-0.130	0.150	2.370
2020/01/31 23:40:01.2	175.150	-0.100	0.130	2.380
2020/01/31 23:40:01.3	175.120	-0.080	0.120	2.380
2020/01/31 23:40:01.4	175.100	-0.050	0.110	2.380
2020/01/31 23:40:01.5	175.070	-0.020	0.100	2.380
2020/01/31 23:40:01.6	175.050	0.010	0.090	2.360
2020/01/31 23:40:01.7	175.040	0.040	0.080	2.350
2020/01/31 23:40:01.8	175.020	0.080	0.070	2.330
2020/01/31 23:40:01.9	175.010	0.110	0.070	2.300
2020/01/31 23:40:02.0	175.000	0.140	0.060	2.270
2020/01/31 23:40:02.1	174.990	0.170	0.050	2.240
2020/01/31 23:40:02.2	174.980	0.210	0.050	2.200
2020/01/31 23:40:02.3	174.970	0.240	0.040	2.160
2020/01/31 23:40:02.4	174.970	0.270	0.040	2.120
2020/01/31 23:40:02.5	174.960	0.300	0.030	2.080
2020/01/31 23:40:02.6	174.960	0.330	0.030	2.030
2020/01/31 23:40:02.7	174.960	0.360	0.020	1.990
2020/01/31 23:40:02.8	174.960	0.390	0.020	1.940
2020/01/31 23:40:02.9	174.960	0.410	0.010	1.890
2020/01/31 23:40:03.0	174.960	0.430	0.000	1.840
2020/01/31 23:40:03.1	174.970	0.450	0.000	1.790
2020/01/31 23:40:03.2	174.970	0.470	-0.010	1.740
2020/01/31 23:40:03.3	174.980	0.480	-0.010	1.690
2020/01/31 23:40:03.4	174.980	0.500	-0.020	1.640
2020/01/31 23:40:03.5	174.990	0.510	-0.020	1.590
2020/01/31 23:40:03.6	175.000	0.510	-0.030	1.540
2020/01/31 23:40:03.7	175.020	0.520	-0.040	1.490
2020/01/31 23:40:03.8	175.030	0.520	-0.050	1.440
2020/01/31 23:40:03.9	175.050	0.510	-0.060	1.400
2020/01/31 23:40:04.0	175.060	0.510	-0.070	1.350
2020/01/31 23:40:04.1	175.070	0.500	-0.080	1.300
2020/01/31 23:40:04.2	175.090	0.490	-0.090	1.250
2020/01/31 23:40:04.3	175.120	0.470	-0.100	1.210
2020/01/31 23:40:04.4	175.140	0.460	-0.120	1.160
2020/01/31 23:40:04.5	175.160	0.440	-0.130	1.120
2020/01/31 23:40:04.6	175.180	0.420	-0.150	1.080
2020/01/31 23:40:04.7	175.200	0.400	-0.170	1.050
2020/01/31 23:40:04.8	175.220	0.370	-0.190	1.020
2020/01/31 23:40:04.9	175.240	0.350	-0.210	0.990
2020/01/31 23:40:05.0	175.260	0.320	-0.230	0.970
2020/01/31 23:40:05.1	175.290	0.300	-0.260	0.950
2020/01/31 23:40:05.2	175.300	0.270	-0.290	0.940
2020/01/31 23:40:05.3	175.320	0.250	-0.330	0.930
2020/01/31 23:40:05.4	175.330	0.220	-0.360	0.920
2020/01/31 23:40:05.5	175.330	0.190	-0.400	0.930
2020/01/31 23:40:05.6	175.340	0.170	-0.440	0.930
2020/01/31 23:40:05.7	175.340	0.150	-0.480	0.950
2020/01/31 23:40:05.8	175.340	0.120	-0.530	0.960
2020/01/31 23:40:05.9	175.340	0.100	-0.570	0.980
2020/01/31 23:40:06.0	175.340	0.080	-0.620	1.010
2020/01/31 23:40:06.1	175.330	0.070	-0.670	1.040
2020/01/31 23:40:06.2	175.330	0.050	-0.720	1.070
2020/01/31 23:40:06.3	175.320	0.040	-0.760	1.100
2020/01/31 23:40:06.4	175.310	0.020	-0.810	1.130
2020/01/31 23:40:06.5	175.300	0.010	-0.860	1.160
2020/01/31 23:40:06.6	175.300	0.000	-0.900	1.190
2020/01/31 23:40:06.7	175.290	-0.000	-0.940	1.220
2020/01/31 23:40:06.8	175.280	-0.010	-0.980	1.240
2020/01/31 23:40:06.9	175.280	-0.010	-1.020	1.270
2020/01/31 23:40:07.0	175.270	-0.020	-1.050	1.290
2020/01/31 23:40:07.1	175.270	-0.020	-1.080	1.320
2020/01/31 23:40:07.2	175.270	-0.020	-1.100	1.340
2020/01/31 23:40:07.3	175.270	-0.020	-1.120	1.350
2020/01/31 23:40:07.4	175.270	-0.020	-1.130	1.370
2020/01/31 23:40:07.5	175.270	-0.020	-1.140	1.380
2020/01/31 23:40:07.6	175.280	-0.020	-1.140	1.390
2020/01/31 23:40:07.7	175.280	-0.020	-1.140	1.400
2020/01/31 23:40:07.8	175.290	-0.020	-1.140	1.400
2020/01/31 23:40:07.9	175.290	-0.020	-1.120	1.410
2020/01/31 23:40:08.0	175.300	-0.020	-1.110	1.410
2020/01/31 23:40:08.1	175.320	-0.020	-1.090	1.420
2020/01/31 23:40:08.2	175.320	-0.030	-1.060	1.420
2020/01/31 23:40:08.3	175.330	-0.030	-1.030	1.420
2020/01/31 23:40:08.4	175.340	-0.040	-1.000	1.430
2020/01/31 23:40:08.5	175.350	-0.050	-0.960	1.430
2020/01/31 23:40:08.6	175.360	-0.060	-0.920	1.440
2020/01/31 23:40:08.7	175.360	-0.070	-0.880	1.440
2020/01/31 23:40:08.8	175.370	-0.080	-0.840	1.450
2020/01/31 23:40:08.9	175.380	-0.090	-0.790	1.450
2020/01/31 23:40:09.0	175.380	-0.110	-0.750	1.460
2020/01/31 23:40:09.1	175.380	-0.120	-0.700	1.470
2020/01/31 23:40:09.2	175.390	-0.140	-0.660	1.470
2020/01/31 23:40:09.3	175.390	-0.150	-0.610	1.480
2020/01/31 23:40:09.4	175.390	-0.170	-0.570	1.490
2020/01/31 23:40:09.5	175.390	-0.190	-0.530	1.500
2020/01/31 23:40:09.6	175.390	-0.200	-0.490	1.500
2020/01/31 23:40:09.7	175.390	-0.220	-0.450	1.510
2020/01/31 23:40:09.8	175.390	-0.240	-0.410	1.520
2020/01/31 23:40:09.9	175.380	-0.260	-0.380	1.520
2020/01/31 23:40:10.0	175.380	-0.270	-0.350	1.530
2020/01/31 23:40:10.1	175.360	-0.290	-0.310	1.540
2020/01/31 23:40:10.2	175.350	-0.300	-0.290	1.540
2020/01/31 23:40:10.3	175.340	-0.310	-0.270	1.550
2020/01/31 23:40:10.4	175.330	-0.320	-0.250	1.560
2020/01/31 23:40:10.5	175.320	-0.330	-0.240	1.570
2020/01/31 23:40:10.6	175.310	-0.340	-0.220	1.580
2020/01/31 23:40:10.7	175.290	-0.340	-0.220	1.590
2020/01/31 23:40:10.8	175.270	-0.340	-0.210	1.600
2020/01/31 23:40:10.9	175.250	-0.340	-0.210	1.610
2020/01/31 23:40:11.0	175.230	-0.340	-0.210	1.620
2020/01/31 23:40:11.1	175.210	-0.330	-0.220	1.640
2020/01/31 23:40:11.2	175.190	-0.330	-0.220	1.660
2020/01/31 23:40:11.3	175.160	-0.320	-0.230	1.680
2020/01/31 23:40:11.4	175.140	-0.310	-0.230	1.690
2020/01/31 23:40:11.5	175.110	-0.300	-0.240	1.710
2020/01/31 23:40:11.6	175.090	-0.280	-0.250	1.730
2020/01/31 23:40:11.7	175.060	-0.270	-0.250	1.740
2020/01/31 23:40:11.8	175.040	-0.250	-0.260	1.760
2020/01/31 23:40:11.9	175.020	-0.240	-0.260	1.770
2020/01/31 23:40:12.0	175.000	-0.230	-0.260	1.780
2020/01/31 23:40:12.1	174.970	-0.210	-0.250	1.790
2020/01/31 23:40:12.2	174.960	-0.200	-0.240	1.800
2020/01/31 23:40:12.3	174.960	-0.190	-0.230	1.800
2020/01/31 23:40:12.4	174.950	-0.180	-0.210	1.810
2020/01/31 23:40:12.5	174.950	-0.170	-0.190	1.810
2020/01/31 23:40:12.6	174.950	-0.160	-0.160	1.810
2020/01/31 23:40:12.7	174.960	-0.160	-0.130	1.810
2020/01/31 23:40:12.8	174.970	-0.160	-0.090	1.800
2020/01/31 23:40:12.9	174.980	-0.160	-0.050	1.790
2020/01/31 23:40:13.0	175.000	-0.160	0.000	1.780
2020/01/31 23:40:13.1	175.030	-0.170	0.060	1.770
2020/01/31 23:40:13.2	175.050	-0.180	0.120	1.760
2020/01/31 23:40:13.3	175.080	-0.190	0.180	1.740
2020/01/31 23:40:13.4	175.110	-0.200	0.240	1.720
2020/01/31 23:40:13.5	175.140	-0.210	0.310	1.700
2020/01/31 23:40:13.6	175.170	-0.230	0.380	1.670
2020/01/31 23:40:13.7	175.210	-0.250	0.450	1.640
2020/01/31 23:40:13.8	175.250	-0.270	0.520	1.610
2020/01/31 23:40:13.9	175.280	-0.290	0.590	1.580
2020/01/31 23:40:14.0	175.320	-0.310	0.660	1.550
2020/01/31 23:40:14.1	175.370	-0.330	0.720	1.520
2020/01/31 23:40:14.2	175.410	-0.350	0.780	1.480
2020/01/31 23:40:14.3	175.440	-0.370	0.840	1.450
2020/01/31 23:40:14.4	175.480	-0.390	0.890	1.420
2020/01/31 23:40:14.5	175.510	-0.400	0.930	1.390
2020/01/31 23:40:14.6	175.540	-0.420	0.970	1.350
2020/01/31 23:40:14.7	175.570	-0.430	1.000	1.320
2020/01/31 23:40:14.8	175.600	-0.440	1.020	1.300
2020/01/31 23:40:14.9	175.620	-0.440	1.020	1.270
2020/01/31 23:40:15.0	175.640	-0.440	1.020	1.240
2020/01/31 23:40:15.1	175.670	-0.440	1.010	1.220
2020/01/31 23:40:15.2	175.680	-0.430	0.980	1.200
2020/01/31 23:40:15.3	175.690	-0.420	0.950	1.180
2020/01/31 23:40:15.4	175.690	-0.410	0.900	1.170
2020/01/31 23:40:15.5	175.690	-0.390	0.840	1.150
2020/01/31 23:40:15.6	175.690	-0.360	0.780	1.140
2020/01/31 23:40:15.7	175.690	-0.330	0.700	1.140
2020/01/31 23:40:15.8	175.680	-0.290	0.610	1.130
2020/01/31 23:40:15.9	175.670	-0.250	0.520	1.130
2020/01/31 23:40:16.0	175.650	-0.210	0.410	1.130
2020/01/31 23:40:16.1	175.630	-0.160	0.310	1.140
2020/01/31 23:40:16.2	175.610	-0.110	0.190	1.150
2020/01/31 23:40:16.3	175.590	-0.050	0.080	1.160
2020/01/31 23:40:16.4	175.560	0.000	-0.040	1.170
2020/01/31 23:40:16.5	175.540	0.060	-0.170	1.190
2020/01/31 23:40:16.6	175.510	0.120	-0.290	1.210
2020/01/31 23:40:16.7	175.490	0.190	-0.410	1.230
2020/01/31 23:40:16.8	175.460	0.250	-0.520	1.250
2020/01/31 23:40:16.9	175.440	0.310	-0.640	1.280
2020/01/31 23:40:17.0	175.420	0.370	-0.740	1.300
2020/01/31 23:40:17.1	175.380	0.430	-0.850	1.320
2020/01/31 23:40:17.2	175.360	0.490	-0.940	1.350
2020/01/31 23:40:17.3	175.340	0.540	-1.030	1.370
2020/01/31 23:40:17.4	175.330	0.590	-1.100	1.400
2020/01/31 23:40:17.5	175.310	0.640	-1.160	1.420
2020/01/31 23:40:17.6	175.300	0.680	-1.220	1.440
2020/01/31 23:40:17.7	175.290	0.720	-1.260	1.460
2020/01/31 23:40:17.8	175.290	0.750	-1.280	1.470
2020/01/31 23:40:17.9	175.290	0.770	-1.300	1.480
2020/01/31 23:40:18.0	175.300	0.790	-1.300	1.490
2020/01/31 23:40:18.1	175.320	0.800	-1.280	1.500
2020/01/31 23:40:18.2	175.330	0.800	-1.260	1.510
2020/01/31 23:40:18.3	175.350	0.800	-1.220	1.510
2020/01/31 23:40:18.4	175.370	0.790	-1.170	1.510
2020/01/31 23:40:18.5	175.390	0.770	-1.110	1.500
2020/01/31 23:40:18.6	175.410	0.740	-1.050	1.500
2020/01/31 23:40:18.7	175.440	0.710	-0.970	1.490
2020/01/31 23:40:18.8	175.470	0.670	-0.890	1.480
2020/01/31 23:40:18.9	175.510	0.630	-0.800	1.480
2020/01/31 23:40:19.0	175.540	0.580	-0.710	1.470
2020/01/31 23:40:19.1	175.580	0.520	-0.620	1.450
2020/01/31 23:40:19.2	175.620	0.460	-0.520	1.450
2020/01/31 23:40:19.3	175.650	0.400	-0.420	1.440
2020/01/31 23:40:19.4	175.690	0.340	-0.330	1.430
2020/01/31 23:40:19.5	175.720	0.270	-0.230	1.430
2020/01/31 23:40:19.6	175.760	0.200	-0.150	1.430
2020/01/31 23:40:19.7	175.790	0.130	-0.060	1.430
2020/01/31 23:40:19.8	175.820	0.060	0.020	1.430
2020/01/31 23:40:19.9	175.840	-0.010	0.090	1.440
2020/01/31 23:40:20.0	175.870	-0.080	0.160	1.450
2020/01/31 23:40:20.1	175.890	-0.150	0.210	1.470
2020/01/31 23:40:20.2	175.910	-0.210	0.260	1.480
2020/01/31 23:40:20.3	175.920	-0.270	0.290	1.500
2020/01/31 23:40:20.4	175.940	-0.320	0.320	1.510
2020/01/31 23:40:20.5	175.950	-0.370	0.340	1.530
2020/01/31 23:40:20.6	175.960	-0.420	0.350	1.550
2020/01/31 23:40:20.7	175.970	-0.460	0.350	1.570
2020/01/31 23:40:20.8	175.970	-0.490	0.350	1.590
2020/01/31 23:40:20.9	175.970	-0.520	0.330	1.610
2020/01/31 23:40:21.0	175.980	-0.540	0.300	1.630
2020/01/31 23:40:21.1	175.970	-0.550	0.270	1.660
2020/01/31 23:40:21.2	175.970	-0.560	0.230	1.670
2020/01/31 23:40:21.3	175.970	-0.560	0.180	1.690
2020/01/31 23:40:21.4	175.960	-0.550	0.130	1.710
2020/01/31 23:40:21.5	175.960	-0.540	0.070	1.730
2020/01/31 23:40:21.6	175.950	-0.520	0.000	1.750
2020/01/31 23:40:21.7	175.940	-0.500	-0.070	1.760
2020/01/31 23:40:21.8	175.930	-0.470	-0.140	1.780
2020/01/31 23:40:21.9	175.920	-0.440	-0.220	1.790
2020/01/31 23:40:22.0	175.910	-0.400	-0.290	1.810
2020/01/31 23:40:22.1	175.890	-0.360	-0.370	1.820
2020/01/31 23:40:22.2	175.880	-0.310	-0.450	1.840
2020/01/31 23:40:22.3	175.860	-0.260	-0.530	1.850
2020/01/31 23:40:22.4	175.850	-0.210	-0.610	1.860
2020/01/31 23:40:22.5	175.840	-0.160	-0.680	1.870
2020/01/31 23:40:22.6	175.830	-0.110	-0.750	1.880
2020/01/31 23:40:22.7	175.810	-0.060	-0.820	1.890
2020/01/31 23:40:22.8	175.800	-0.010	-0.890	1.890
2020/01/31 23:40:22.9	175.790	0.040	-0.940	1.900
2020/01/31 23:40:23.0	175.780	0.090	-1.000	1.910
2020/01/31 23:40:23.1	175.780	0.140	-1.040	1.910
2020/01/31 23:40:23.2	175.770	0.190	-1.090	1.920
2020/01/31 23:40:23.3	175.760	0.230	-1.120	1.930
2020/01/31 23:40:23.4	175.750	0.270	-1.150	1.940
2020/01/31 23:40:23.5	175.740	0.300	-1.170	1.940
2020/01/31 23:40:23.6	175.730	0.340	-1.180	1.950
2020/01/31 23:40:23.7	175.720	0.360	-1.190	1.960
2020/01/31 23:40:23.8	175.710	0.390	-1.190	1.960
2020/01/31 23:40:23.9	175.700	0.410	-1.180	1.970
2020/01/31 23:40:24.0	175.700	0.420	-1.160	1.970
2020/01/31 23:40:24.1	175.690	0.430	-1.140	1.970
2020/01/31 23:40:24.2	175.690	0.440	-1.100	1.970
2020/01/31 23:40:24.3	175.680	0.440	-1.060	1.970
2020/01/31 23:40:24.4	175.680	0.440	-1.010	1.960
2020/01/31 23:40:24.5	175.680	0.430	-0.960	1.950
2020/01/31 23:40:24.6	175.670	0.420	-0.900	1.950
2020/01/31 23:40:24.7	175.670	0.410	-0.830	1.930
2020/01/31 23:40:24.8	175.670	0.390	-0.750	1.920
2020/01/31 23:40:24.9	175.670	0.360	-0.680	1.900
2020/01/31 23:40:25.0	175.670	0.340	-0.590	1.880
2020/01/31 23:40:25.1	175.680	0.310	-0.500	1.870
2020/01/31 23:40:25.2	175.680	0.280	-0.420	1.850
2020/01/31 23:40:25.3	175.680	0.240	-0.320	1.820
2020/01/31 23:40:25.4	175.690	0.210	-0.230	1.800
2020/01/31 23:40:25.5	175.690	0.170	-0.140	1.770
2020/01/31 23:40:25.6	175.700	0.130	-0.050	1.740
2020/01/31 23:40:25.7	175.700	0.080	0.040	1.720
2020/01/31 23:40:25.8	175.710	0.040	0.130	1.690
2020/01/31 23:40:25.9	175.720	-0.000	0.220	1.670
2020/01/31 23:40:26.0	175.730	-0.050	0.300	1.640
2020/01/31 23:40:26.1	175.750	-0.090	0.370	1.620
2020/01/31 23:40:26.2	175.760	-0.130	0.440	1.600
2020/01/31 23:40:26.3	175.760	-0.180	0.510	1.580
2020/01/31 23:40:26.4	175.770	-0.220	0.570	1.560
2020/01/31 23:40:26.5	175.790	-0.260	0.620	1.550
2020/01/31 23:40:26.6	175.800	-0.300	0.660	1.530
2020/01/31 23:40:26.7	175.810	-0.330	0.700	1.520
2020/01/31 23:40:26.8	175.820	-0.360	0.720	1.500
2020/01/31 23:40:26.9	175.830	-0.390	0.740	1.490
2020/01/31 23:40:27.0	175.840	-0.420	0.750	1.470
2020/01/31 23:40:27.1	175.850	-0.440	0.760	1.460
2020/01/31 23:40:27.2	175.860	-0.470	0.750	1.450
2020/01/31 23:40:27.3	175.870	-0.480	0.730	1.440
2020/01/31 23:40:27.4	175.890	-0.500	0.710	1.420
2020/01/31 23:40:27.5	175.900	-0.510	0.680	1.410
2020/01/31 23:40:27.6	175.910	-0.510	0.650	1.400
2020/01/31 23:40:27.7	175.920	-0.520	0.600	1.390
2020/01/31 23:40:27.8	175.930	-0.520	0.550	1.380
2020/01/31 23:40:27.9	175.940	-0.510	0.500	1.380
2020/01/31 23:40:28.0	175.950	-0.510	0.440	1.370
2020/01/31 23:40:28.1	175.930	-0.490	0.380	1.360
2020/01/31 23:40:28.2	175.940	-0.480	0.310	1.360
2020/01/31 23:40:28.3	175.940	-0.460	0.240	1.360
2020/01/31 23:40:28.4	175.940	-0.440	0.170	1.360
2020/01/31 23:40:28.5	175.930	-0.420	0.100	1.370
2020/01/31 23:40:28.6	175.930	-0.390	0.020	1.370
2020/01/31 23:40:28.7	175.920	-0.360	-0.050	1.380
2020/01/31 23:40:28.8	175.910	-0.330	-0.120	1.390
2020/01/31 23:40:28.9	175.900	-0.290	-0.190	1.400
2020/01/31 23:40:29.0	175.890	-0.260	-0.260	1.410
2020/01/31 23:40:29.1	175.870	-0.220	-0.330	1.420
2020/01/31 23:40:29.2	175.850	-0.180	-0.400	1.440
2020/01/31 23:40:29.3	175.830	-0.140	-0.460	1.450
2020/01/31 23:40:29.4	175.810	-0.100	-0.520	1.470
2020/01/31 23:40:29.5	175.780	-0.050	-0.570	1.480
2020/01/31 23:40:29.6	175.760	-0.010	-0.620	1.500
2020/01/31 23:40:29.7	175.730	0.030	-0.660	1.510
2020/01/31 23:40:29.8	175.710	0.070	-0.700	1.530
2020/01/31 23:40:29.9	175.680	0.110	-0.730	1.540
2020/01/31 23:40:30.0	175.660	0.150	-0.750	1.550
2020/01/31 23:40:30.1	175.640	0.190	-0.770	1.560
2020/01/31 23:40:30.2	175.620	0.230	-0.780	1.570
2020/01/31 23:40:30.3	175.590	0.260	-0.790	1.580
2020/01/31 23:40:30.4	175.580	0.290	-0.790	1.580
2020/01/31 23:40:30.5	175.560	0.320	-0.790	1.580
2020/01/31 23:40:30.6	175.550	0.350	-0.770	1.580
2020/01/31 23:40:30.7	175.540	0.370	-0.760	1.570
2020/01/31 23:40:30.8	175.530	0.390	-0.740	1.560
2020/01/31 23:40:30.9	175.520	0.400	-0.710	1.550
2020/01/31 23:40:31.0	175.520	0.410	-0.680	1.540
2020/01/31 23:40:31.1	175.510	0.410	-0.650	1.530
2020/01/31 23:40:31.2	175.510	0.420	-0.610	1.510
2020/01/31 23:40:31.3	175.520	0.410	-0.580	1.500
2020/01/31 23:40:31.4	175.520	0.410	-0.540	1.480
2020/01/31 23:40:31.5	175.530	0.400	-0.500	1.470
2020/01/31 23:40:31.6	175.530	0.380	-0.460	1.460
2020/01/31 23:40:31.7	175.540	0.370	-0.420	1.440
2020/01/31 23:40:31.8	175.550	0.340	-0.380	1.430
2020/01/31 23:40:31.9	175.560	0.320	-0.340	1.420
2020/01/31 23:40:32.0	175.570	0.300	-0.310	1.420
2020/01/31 23:40:32.1	175.590	0.270	-0.270	1.420
2020/01/31 23:40:32.2	175.600	0.240	-0.240	1.420
2020/01/31 23:40:32.3	175.600	0.200	-0.210	1.420
2020/01/31 23:40:32.4	175.610	0.170	-0.190	1.430
2020/01/31 23:40:32.5	175.610	0.140	-0.160	1.440
2020/01/31 23:40:32.6	175.610	0.100	-0.140	1.450
2020/01/31 23:40:32.7	175.620	0.070	-0.130	1.470
2020/01/31 23:40:32.8	175.610	0.030	-0.120	1.490
2020/01/31 23:40:32.9	175.610	0.000	-0.110	1.520
2020/01/31 23:40:33.0	175.610	-0.030	-0.100	1.540
2020/01/31 23:40:33.1	175.600	-0.060	-0.100	1.570
2020/01/31 23:40:33.2	175.590	-0.090	-0.110	1.600
2020/01/31 23:40:33.3	175.580	-0.120	-0.110	1.630
2020/01/31 23:40:33.4	175.570	-0.150	-0.120	1.670
2020/01/31 23:40:33.5	175.550	-0.170	-0.130	1.700
2020/01/31 23:40:33.6	175.540	-0.190	-0.150	1.730
2020/01/31 23:40:33.7	175.520	-0.210	-0.160	1.760
2020/01/31 23:40:33.8	175.500	-0.220	-0.180	1.790
2020/01/31 23:40:33.9	175.490	-0.230	-0.210	1.820
2020/01/31 23:40:34.0	175.470	-0.240	-0.230	1.840
2020/01/31 23:40:34.1	175.450	-0.250	-0.250	1.870
2020/01/31 23:40:34.2	175.430	-0.250	-0.280	1.890
2020/01/31 23:40:34.3	175.410	-0.250	-0.300	1.900
2020/01/31 23:40:34.4	175.390	-0.240	-0.330	1.920
2020/01/31 23:40:34.5	175.380	-0.240	-0.350	1.920
2020/01/31 23:40:34.6	175.360	-0.230	-0.380	1.930
2020/01/31 23:40:34.7	175.340	-0.210	-0.400	1.930
2020/01/31 23:40:34.8	175.330	-0.200	-0.420	1.930
2020/01/31 23:40:34.9	175.310	-0.180	-0.440	1.930
2020/01/31 23:40:35.0	175.300	-0.160	-0.460	1.920
2020/01/31 23:40:35.1	175.280	-0.140	-0.470	1.910
2020/01/31 23:40:35.2	175.270	-0.120	-0.490	1.900
2020/01/31 23:40:35.3	175.270	-0.100	-0.500	1.890
2020/01/31 23:40:35.4	175.260	-0.070	-0.500	1.870
2020/01/31 23:40:35.5	175.260	-0.050	-0.510	1.860
2020/01/31 23:40:35.6	175.250	-0.020	-0.510	1.840
2020/01/31 23:40:35.7	175.250	0.000	-0.500	1.830
2020/01/31 23:40:35.8	175.250	0.030	-0.500	1.810
2020/01/31 23:40:35.9	175.260	0.060	-0.490	1.790
2020/01/31 23:40:36.0	175.260	0.080	-0.480	1.770
2020/01/31 23:40:36.1	175.260	0.100	-0.460	1.750
2020/01/31 23:40:36.2	175.270	0.130	-0.440	1.730
2020/01/31 23:40:36.3	175.280	0.150	-0.420	1.710
2020/01/31 23:40:36.4	175.300	0.170	-0.400	1.680
2020/01/31 23:40:36.5	175.320	0.180	-0.370	1.660
2020/01/31 23:40:36.6	175.330	0.200	-0.340	1.640
2020/01/31 23:40:36.7	175.350	0.210	-0.310	1.610
2020/01/31 23:40:36.8	175.370	0.220	-0.280	1.590
2020/01/31 23:40:36.9	175.400	0.230	-0.250	1.570
2020/01/31 23:40:37.0	175.420	0.230	-0.220	1.550
2020/01/31 23:40:37.1	175.420	0.240	-0.190	1.520
2020/01/31 23:40:37.2	175.450	0.240	-0.160	1.500
2020/01/31 23:40:37.3	175.470	0.230	-0.130	1.470
2020/01/31 23:40:37.4	175.490	0.230	-0.090	1.450
2020/01/31 23:40:37.5	175.520	0.220	-0.060	1.430
2020/01/31 23:40:37.6	175.540	0.210	-0.030	1.410
2020/01/31 23:40:37.7	175.560	0.200	-0.000	1.390
2020/01/31 23:40:37.8	175.580	0.190	0.030	1.370
2020/01/31 23:40:37.9	175.600	0.170	0.060	1.350
2020/01/31 23:40:38.0	175.620	0.150	0.080	1.330
2020/01/31 23:40:38.1	175.620	0.130	0.110	1.320
2020/01/31 23:40:38.2	175.640	0.110	0.130	1.300
2020/01/31 23:40:38.3	175.650	0.090	0.150	1.290
2020/01/31 23:40:38.4	175.670	0.060	0.170	1.270
2020/01/31 23:40:38.5	175.680	0.040	0.180	1.260
2020/01/31 23:40:38.6	175.690	0.010	0.200	1.250
2020/01/31 23:40:38.7	175.710	-0.020	0.210	1.240
2020/01/31 23:40:38.8	175.720	-0.050	0.220	1.240
2020/01/31 23:40:38.9	175.730	-0.070	0.230	1.230
2020/01/31 23:40:39.0	175.740	-0.100	0.240	1.230
2020/01/31 23:40:39.1	175.760	-0.130	0.240	1.230
2020/01/31 23:40:39.2	175.780	-0.160	0.240	1.240
2020/01/31 23:40:39.3	175.790	-0.190	0.240	1.250
2020/01/31 23:40:39.4	175.800	-0.220	0.240	1.270
2020/01/31 23:40:39.5	175.810	-0.250	0.240	1.290
2020/01/31 23:40:39.6	175.820	-0.280	0.240	1.320
2020/01/31 23:40:39.7	175.830	-0.300	0.230	1.350
2020/01/31 23:40:39.8	175.840	-0.330	0.220	1.380
2020/01/31 23:40:39.9	175.840	-0.350	0.210	1.420
2020/01/31 23:40:40.0	175.850	-0.370	0.190	1.460
2020/01/31 23:40:40.1	175.850	-0.390	0.180	1.510
2020/01/31 23:40:40.2	175.860	-0.410	0.160	1.560
2020/01/31 23:40:40.3	175.860	-0.420	0.130	1.600
2020/01/31 23:40:40.4	175.860	-0.430	0.110	1.650
2020/01/31 23:40:40.5	175.860	-0.440	0.080	1.700
2020/01/31 23:40:40.6	175.860	-0.440	0.050	1.750
2020/01/31 23:40:40.7	175.860	-0.440	0.020	1.800
2020/01/31 23:40:40.8	175.860	-0.440	-0.020	1.840
2020/01/31 23:40:40.9	175.850	-0.430	-0.050	1.890
2020/01/31 23:40:41.0	175.850	-0.420	-0.090	1.930
2020/01/31 23:40:41.1	175.830	-0.400	-0.140	1.970
2020/01/31 23:40:41.2	175.830	-0.380	-0.190	2.010
2020/01/31 23:40:41.3	175.820	-0.360	-0.230	2.050
2020/01/31 23:40:41.4	175.800	-0.340	-0.280	2.080
2020/01/31 23:40:41.5	175.790	-0.310	-0.330	2.120
2020/01/31 23:40:41.6	175.780	-0.270	-0.380	2.140
2020/01/31 23:40:41.7	175.760	-0.240	-0.440	2.170
2020/01/31 23:40:41.8	175.740	-0.200	-0.490	2.190
2020/01/31 23:40:41.9	175.720	-0.160	-0.540	2.210
2020/01/31 23:40:42.0	175.700	-0.120	-0.600	2.230
2020/01/31 23:40:42.1	175.660	-0.070	-0.650	2.250
2020/01/31 23:40:42.2	175.640	-0.030	-0.700	2.260
2020/01/31 23:40:42.3	175.620	0.020	-0.750	2.260
2020/01/31 23:40:42.4	175.590	0.060	-0.800	2.270
2020/01/31 23:40:42.5	175.570	0.110	-0.840	2.270
2020/01/31 23:40:42.6	175.540	0.150	-0.880	2.270
2020/01/31 23:40:42.7	175.510	0.200	-0.920	2.260
2020/01/31 23:40:42.8	175.490	0.240	-0.960	2.260
2020/01/31 23:40:42.9	175.460	0.280	-0.990	2.250
2020/01/31 23:40:43.0	175.440	0.320	-1.010	2.240
2020/01/31 23:40:43.1	175.430	0.360	-1.040	2.220
2020/01/31 23:40:43.2	175.410	0.400	-1.050	2.210
2020/01/31 23:40:43.3	175.390	0.430	-1.060	2.190
2020/01/31 23:40:43.4	175.370	0.460	-1.070	2.180
2020/01/31 23:40:43.5	175.350	0.490	-1.070	2.160
2020/01/31 23:40:43.6	175.340	0.520	-1.060	2.130
2020/01/31 23:40:43.7	175.330	0.540	-1.050	2.110
2020/01/31 23:40:43.8	175.320	0.560	-1.030	2.080
2020/01/31 23:40:43.9	175.320	0.580	-1.010	2.050
2020/01/31 23:40:44.0	175.320	0.590	-0.980	2.010
2020/01/31 23:40:44.1	175.330	0.600	-0.940	1.970
2020/01/31 23:40:44.2	175.340	0.610	-0.900	1.930
2020/01/31 23:40:44.3	175.340	0.610	-0.850	1.880
2020/01/31 23:40:44.4	175.350	0.610	-0.790	1.840
2020/01/31 23:40:44.5	175.370	0.610	-0.740	1.780
2020/01/31 23:40:44.6	175.380	0.610	-0.670	1.730
2020/01/31 23:40:44.7	175.400	0.600	-0.610	1.670
2020/01/31 23:40:44.8	175.420	0.580	-0.540	1.620
2020/01/31 23:40:44.9	175.440	0.570	-0.470	1.550
2020/01/31 23:40:45.0	175.470	0.550	-0.390	1.490
2020/01/31 23:40:45.1	175.510	0.530	-0.320	1.430
2020/01/31 23:40:45.2	175.530	0.510	-0.240	1.370
2020/01/31 23:40:45.3	175.560	0.480	-0.160	1.300
2020/01/31 23:40:45.4	175.590	0.460	-0.090	1.240
2020/01/31 23:40:45.5	175.620	0.430	-0.020	1.170
2020/01/31 23:40:45.6	175.650	0.400	0.050	1.110
2020/01/31 23:40:45.7	175.680	0.360	0.120	1.050
2020/01/31 23:40:45.8	175.710	0.330	0.190	0.990
2020/01/31 23:40:45.9	175.750	0.290	0.250	0.940
2020/01/31 23:40:46.0	175.780	0.260	0.300	0.880
2020/01/31 23:40:46.1	175.810	0.220	0.350	0.830
2020/01/31 23:40:46.2	175.840	0.180	0.390	0.780
2020/01/31 23:40:46.3	175.870	0.140	0.430	0.740
2020/01/31 23:40:46.4	175.900	0.110	0.460	0.700
2020/01/31 23:40:46.5	175.940	0.070	0.490	0.670
2020/01/31 23:40:46.6	175.970	0.030	0.500	0.650
2020/01/31 23:40:46.7	176.000	-0.010	0.510	0.630
2020/01/31 23:40:46.8	176.020	-0.040	0.510	0.610
2020/01/31 23:40:46.9	176.050	-0.080	0.510	0.610
2020/01/31 23:40:47.0	176.060	-0.120	0.490	0.610
2020/01/31 23:40:47.1	176.080	-0.150	0.470	0.620
2020/01/31 23:40:47.2	176.100	-0.180	0.450	0.640
2020/01/31 23:40:47.3	176.120	-0.210	0.410	0.660
2020/01/31 23:40:47.4	176.130	-0.240	0.370	0.690
2020/01/31 23:40:47.5	176.140	-0.270	0.330	0.720
2020/01/31 23:40:47.6	176.150	-0.290	0.280	0.750
2020/01/31 23:40:47.7	176.150	-0.320	0.220	0.790
2020/01/31 23:40:47.8	176.160	-0.340	0.160	0.840
2020/01/31 23:40:47.9	176.160	-0.360	0.100	0.890
2020/01/31 23:40:48.0	176.160	-0.370	0.030	0.930
2020/01/31 23:40:48.1	176.180	-0.390	-0.030	0.990
2020/01/31 23:40:48.2	176.170	-0.400	-0.100	1.040
2020/01/31 23:40:48.3	176.170	-0.410	-0.170	1.100
2020/01/31 23:40:48.4	176.160	-0.410	-0.240	1.150
2020/01/31 23:40:48.5	176.150	-0.420	-0.300	1.210
2020/01/31 23:40:48.6	176.130	-0.420	-0.370	1.270
2020/01/31 23:40:48.7	176.120	-0.420	-0.430	1.330
2020/01/31 23:40:48.8	176.110	-0.420	-0.490	1.380
2020/01/31 23:40:48.9	176.090	-0.420	-0.550	1.440
2020/01/31 23:40:49.0	176.070	-0.420	-0.610	1.500
2020/01/31 23:40:49.1	176.050	-0.410	-0.660	1.570
2020/01/31 23:40:49.2	176.030	-0.400	-0.700	1.630
2020/01/31 23:40:49.3	176.010	-0.390	-0.750	1.690
2020/01/31 23:40:49.4	175.990	-0.380	-0.780	1.750
2020/01/31 23:40:49.5	175.960	-0.370	-0.820	1.800
2020/01/31 23:40:49.6	175.940	-0.350	-0.840	1.860
2020/01/31 23:40:49.7	175.920	-0.340	-0.860	1.910
2020/01/31 23:40:49.8	175.900	-0.320	-0.880	1.960
2020/01/31 23:40:49.9	175.870	-0.300	-0.890	2.010
2020/01/31 23:40:50.0	175.850	-0.280	-0.890	2.050
2020/01/31 23:40:50.1	175.830	-0.260	-0.890	2.090
2020/01/31 23:40:50.2	175.810	-0.240	-0.880	2.130
2020/01/31 23:40:50.3	175.790	-0.220	-0.870	2.160
2020/01/31 23:40:50.4	175.760	-0.200	-0.850	2.190
2020/01/31 23:40:50.5	175.740	-0.180	-0.820	2.210
2020/01/31 23:40:50.6	175.730	-0.160	-0.790	2.230
2020/01/31 23:40:50.7	175.710	-0.140	-0.760	2.240
2020/01/31 23:40:50.8	175.690	-0.120	-0.720	2.240
2020/01/31 23:40:50.9	175.680	-0.100	-0.680	2.240
2020/01/31 23:40:51.0	175.660	-0.080	-0.640	2.240
2020/01/31 23:40:51.1	175.640	-0.060	-0.590	2.240
2020/01/31 23:40:51.2	175.630	-0.040	-0.540	2.220
2020/01/31 23:40:51.3	175.620	-0.020	-0.490	2.200
2020/01/31 23:40:51.4	175.610	-0.010	-0.440	2.180
2020/01/31 23:40:51.5	175.610	0.010	-0.380	2.150
2020/01/31 23:40:51.6	175.610	0.020	-0.330	2.120
2020/01/31 23:40:51.7	175.610	0.040	-0.270	2.080
2020/01/31 23:40:51.8	175.610	0.050	-0.210	2.030
2020/01/31 23:40:51.9	175.610	0.060	-0.160	1.980
2020/01/31 23:40:52.0	175.620	0.070	-0.100	1.930
2020/01/31 23:40:52.1	175.620	0.080	-0.050	1.870
2020/01/31 23:40:52.2	175.630	0.090	0.000	1.820
2020/01/31 23:40:52.3	175.650	0.090	0.060	1.750
2020/01/31 23:40:52.4	175.660	0.100	0.100	1.690
2020/01/31 23:40:52.5	175.670	0.100	0.150	1.620
2020/01/31 23:40:52.6	175.690	0.100	0.200	1.550
2020/01/31 23:40:52.7	175.710	0.100	0.240	1.480
2020/01/31 23:40:52.8	175.730	0.100	0.270	1.410
2020/01/31 23:40:52.9	175.750	0.100	0.310	1.340
2020/01/31 23:40:53.0	175.780	0.100	0.340	1.270
2020/01/31 23:40:53.1	175.800	0.090	0.360	1.200
2020/01/31 23:40:53.2	175.820	0.090	0.380	1.140
2020/01/31 23:40:53.3	175.850	0.080	0.390	1.070
2020/01/31 23:40:53.4	175.870	0.070	0.400	1.010
2020/01/31 23:40:53.5	175.900	0.060	0.410	0.960
2020/01/31 23:40:53.6	175.920	0.050	0.410	0.900
2020/01/31 23:40:53.7	175.950	0.040	0.400	0.850
2020/01/31 23:40:53.8	175.970	0.030	0.390	0.810
2020/01/31 23:40:53.9	175.990	0.020	0.370	0.770
2020/01/31 23:40:54.0	176.010	0.010	0.340	0.740
2020/01/31 23:40:54.1	176.030	0.000	0.320	0.720
2020/01/31 23:40:54.2	176.040	-0.010	0.280	0.700
2020/01/31 23:40:54.3	176.060	-0.010	0.240	0.690
2020/01/31 23:40:54.4	176.060	-0.020	0.200	0.680
2020/01/31 23:40:54.5	176.070	-0.030	0.150	0.680
2020/01/31 23:40:54.6	176.070	-0.040	0.100	0.680
2020/01/31 23:40:54.7	176.070	-0.040	0.050	0.690
2020/01/31 23:40:54.8	176.070	-0.050	-0.010	0.700
2020/01/31 23:40:54.9	176.070	-0.050	-0.060	0.720
2020/01/31 23:40:55.0	176.060	-0.060	-0.120	0.740
2020/01/31 23:40:55.1	176.070	-0.060	-0.190	0.760
2020/01/31 23:40:55.2	176.060	-0.060	-0.250	0.780
2020/01/31 23:40:55.3	176.050	-0.060	-0.310	0.810
2020/01/31 23:40:55.4	176.040	-0.060	-0.360	0.840
2020/01/31 23:40:55.5	176.020	-0.060	-0.420	0.870
2020/01/31 23:40:55.6	176.010	-0.060	-0.470	0.900
2020/01/31 23:40:55.7	176.000	-0.060	-0.520	0.930
2020/01/31 23:40:55.8	175.980	-0.060	-0.570	0.970
2020/01/31 23:40:55.9	175.970	-0.060	-0.610	1.000
2020/01/31 23:40:56.0	175.960	-0.060	-0.640	1.040
2020/01/31 23:40:56.1	175.960	-0.060	-0.670	1.080
2020/01/31 23:40:56.2	175.940	-0.060	-0.690	1.120
2020/01/31 23:40:56.3	175.930	-0.060	-0.710	1.170
2020/01/31 23:40:56.4	175.910	-0.060	-0.720	1.210
2020/01/31 23:40:56.5	175.900	-0.050	-0.720	1.250
2020/01/31 23:40:56.6	175.880	-0.050	-0.720	1.300
2020/01/31 23:40:56.7	175.870	-0.050	-0.710	1.340
2020/01/31 23:40:56.8	175.850	-0.050	-0.700	1.380
2020/01/31 23:40:56.9	175.840	-0.050	-0.680	1.430
2020/01/31 23:40:57.0	175.820	-0.050	-0.650	1.470
2020/01/31 23:40:57.1	175.800	-0.050	-0.630	1.510
2020/01/31 23:40:57.2	175.780	-0.050	-0.600	1.550
2020/01/31 23:40:57.3	175.770	-0.050	-0.570	1.590
2020/01/31 23:40:57.4	175.750	-0.050	-0.530	1.620
2020/01/31 23:40:57.5	175.740	-0.050	-0.500	1.650
2020/01/31 23:40:57.6	175.720	-0.040	-0.460	1.680
2020/01/31 23:40:57.7	175.710	-0.040	-0.420	1.700
2020/01/31 23:40:57.8	175.690	-0.040	-0.390	1.720
2020/01/31 23:40:57.9	175.670	-0.030	-0.350	1.740
2020/01/31 23:40:58.0	175.660	-0.020	-0.320	1.750
2020/01/31 23:40:58.1	175.660	-0.020	-0.280	1.760
2020/01/31 23:40:58.2	175.640	-0.010	-0.260	1.770
2020/01/31 23:40:58.3	175.620	0.000	-0.230	1.780
2020/01/31 23:40:58.4	175.600	0.020	-0.210	1.780
2020/01/31 23:40:58.5	175.580	0.030	-0.200	1.790
2020/01/31 23:40:58.6	175.560	0.040	-0.190	1.790
2020/01/31 23:40:58.7	175.540	0.060	-0.180	1.790
2020/01/31 23:40:58.8	175.520	0.080	-0.180	1.790
2020/01/31 23:40:58.9	175.500	0.100	-0.180	1.780
2020/01/31 23:40:59.0	175.480	0.120	-0.190	1.780
2020/01/31 23:40:59.1	175.450	0.140	-0.200	1.770
2020/01/31 23:40:59.2	175.430	0.160	-0.210	1.770
2020/01/31 23:40:59.3	175.410	0.180	-0.230	1.760
2020/01/31 23:40:59.4	175.400	0.210	-0.250	1.760
2020/01/31 23:40:59.5	175.380	0.230	-0.270	1.750
2020/01/31 23:40:59.6	175.370	0.250	-0.290	1.740
2020/01/31 23:40:59.7	175.350	0.280	-0.310	1.740
2020/01/31 23:40:59.8	175.340	0.300	-0.330	1.730
2020/01/31 23:40:59.9	175.330	0.320	-0.360	1.720
2020/01/31 23:41:00.0	175.320	0.340	-0.380	1.710
2020/01/31 23:41:00.1	175.310	0.360	-0.390	1.700
2020/01/31 23:41:00.2	175.300	0.370	-0.410	1.680
2020/01/31 23:41:00.3	175.300	0.380	-0.420	1.670
2020/01/31 23:41:00.4	175.300	0.390	-0.430	1.650
2020/01/31 23:41:00.5	175.300	0.400	-0.440	1.630
2020/01/31 23:41:00.6	175.310	0.410	-0.440	1.620
2020/01/31 23:41:00.7	175.310	0.410	-0.440	1.600
2020/01/31 23:41:00.8	175.320	0.410	-0.430	1.580
2020/01/31 23:41:00.9	175.340	0.400	-0.420	1.550
2020/01/31 23:41:01.0	175.360	0.390	-0.400	1.530
2020/01/31 23:41:01.1	175.380	0.370	-0.380	1.510
2020/01/31 23:41:01.2	175.400	0.360	-0.350	1.490
2020/01/31 23:41:01.3	175.430	0.330	-0.310	1.470
2020/01/31 23:41:01.4	175.460	0.310	-0.280	1.460
2020/01/31 23:41:01.5	175.490	0.280	-0.230	1.440
2020/01/31 23:41:01.6	175.530	0.250	-0.190	1.430
2020/01/31 23:41:01.7	175.560	0.210	-0.140	1.410
2020/01/31 23:41:01.8	175.600	0.170	-0.090	1.400
2020/01/31 23:41:01.9	175.640	0.130	-0.040	1.390
2020/01/31 23:41:02.0	175.680	0.090	0.010	1.380
2020/01/31 23:41:02.1	175.720	0.040	0.050	1.380
2020/01/31 23:41:02.2	175.760	0.000	0.100	1.380
2020/01/31 23:41:02.3	175.800	-0.050	0.150	1.380
2020/01/31 23:41:02.4	175.840	-0.090	0.190	1.380
2020/01/31 23:41:02.5	175.880	-0.140	0.230	1.380
2020/01/31 23:41:02.6	175.920	-0.180	0.260	1.380
2020/01/31 23:41:02.7	175.960	-0.220	0.290	1.390
2020/01/31 23:41:02.8	175.990	-0.260	0.320	1.400
2020/01/31 23:41:02.9	176.020	-0.300	0.330	1.410
2020/01/31 23:41:03.0	176.040	-0.330	0.340	1.420
2020/01/31 23:41:03.1	176.070	-0.360	0.340	1.440
2020/01/31 23:41:03.2	176.090	-0.390	0.340	1.460
2020/01/31 23:41:03.3	176.110	-0.410	0.320	1.470
2020/01/31 23:41:03.4	176.120	-0.430	0.300	1.490
2020/01/31 23:41:03.5	176.130	-0.440	0.270	1.510
2020/01/31 23:41:03.6	176.130	-0.450	0.230	1.540
2020/01/31 23:41:03.7	176.140	-0.460	0.180	1.560
2020/01/31 23:41:03.8	176.140	-0.460	0.130	1.580
2020/01/31 23:41:03.9	176.130	-0.450	0.070	1.610
2020/01/31 23:41:04.0	176.130	-0.440	0.000	1.630
2020/01/31 23:41:04.1	176.120	-0.420	-0.070	1.660
2020/01/31 23:41:04.2	176.110	-0.400	-0.140	1.690
2020/01/31 23:41:04.3	176.090	-0.380	-0.220	1.720
2020/01/31 23:41:04.4	176.080	-0.360	-0.300	1.750
2020/01/31 23:41:04.5	176.060	-0.330	-0.380	1.770
2020/01/31 23:41:04.6	176.050	-0.290	-0.460	1.800
2020/01/31 23:41:04.7	176.030	-0.260	-0.540	1.830
2020/01/31 23:41:04.8	176.010	-0.230	-0.620	1.860
2020/01/31 23:41:04.9	175.990	-0.190	-0.690	1.890
2020/01/31 23:41:05.0	175.970	-0.150	-0.760	1.930
2020/01/31 23:41:05.1	175.960	-0.120	-0.820	1.960
2020/01/31 23:41:05.2	175.940	-0.080	-0.880	1.990
2020/01/31 23:41:05.3	175.920	-0.050	-0.930	2.020
2020/01/31 23:41:05.4	175.910	-0.010	-0.980	2.050
2020/01/31 23:41:05.5	175.890	0.020	-1.020	2.080
2020/01/31 23:41:05.6	175.880	0.050	-1.050	2.110
2020/01/31 23:41:05.7	175.860	0.080	-1.070	2.130
2020/01/31 23:41:05.8	175.850	0.110	-1.090	2.160
2020/01/31 23:41:05.9	175.840	0.130	-1.090	2.180
2020/01/31 23:41:06.0	175.830	0.150	-1.090	2.200
2020/01/31 23:41:06.1	175.810	0.170	-1.090	2.210
2020/01/31 23:41:06.2	175.800	0.190	-1.070	2.220
2020/01/31 23:41:06.3	175.800	0.200	-1.050	2.230
2020/01/31 23:41:06.4	175.790	0.210	-1.020	2.240
2020/01/31 23:41:06.5	175.780	0.220	-0.990	2.240
2020/01/31 23:41:06.6	175.770	0.230	-0.950	2.230
2020/01/31 23:41:06.7	175.770	0.230	-0.900	2.230
2020/01/31 23:41:06.8	175.770	0.230	-0.850	2.210
2020/01/31 23:41:06.9	175.760	0.230	-0.800	2.190
2020/01/31 23:41:07.0	175.760	0.220	-0.740	2.170
2020/01/31 23:41:07.1	175.760	0.220	-0.690	2.150
2020/01/31 23:41:07.2	175.760	0.210	-0.630	2.120
2020/01/31 23:41:07.3	175.760	0.200	-0.560	2.090
2020/01/31 23:41:07.4	175.760	0.190	-0.500	2.050
2020/01/31 23:41:07.5	175.760	0.180	-0.430	2.020
2020/01/31 23:41:07.6	175.760	0.160	-0.370	1.980
2020/01/31 23:41:07.7	175.770	0.150	-0.310	1.940
2020/01/31 23:41:07.8	175.770	0.140	-0.240	1.900
2020/01/31 23:41:07.9	175.780	0.130	-0.180	1.860
2020/01/31 23:41:08.0	175.780	0.110	-0.120	1.810
2020/01/31 23:41:08.1	175.800	0.100	-0.070	1.780
2020/01/31 23:41:08.2	175.810	0.090	-0.010	1.730
2020/01/31 23:41:08.3	175.820	0.080	0.040	1.690
2020/01/31 23:41:08.4	175.830	0.070	0.090	1.640
2020/01/31 23:41:08.5	175.840	0.060	0.130	1.590
2020/01/31 23:41:08.6	175.850	0.060	0.180	1.550
2020/01/31 23:41:08.7	175.860	0.050	0.220	1.500
2020/01/31 23:41:08.8	175.880	0.040	0.260	1.450
2020/01/31 23:41:08.9	175.900	0.040	0.290	1.400
2020/01/31 23:41:09.0	175.920	0.030	0.320	1.350
2020/01/31 23:41:09.1	175.940	0.030	0.360	1.300
2020/01/31 23:41:09.2	175.970	0.020	0.390	1.250
2020/01/31 23:41:09.3	175.990	0.020	0.420	1.200
2020/01/31 23:41:09.4	176.020	0.010	0.440	1.150
2020/01/31 23:41:09.5	176.060	0.000	0.460	1.090
2020/01/31 23:41:09.6	176.090	-0.000	0.480	1.040
2020/01/31 23:41:09.7	176.130	-0.010	0.500	0.990
2020/01/31 23:41:09.8	176.170	-0.020	0.520	0.950
2020/01/31 23:41:09.9	176.210	-0.030	0.540	0.900
2020/01/31 23:41:10.0	176.250	-0.050	0.550	0.850
2020/01/31 23:41:10.1	176.300	-0.060	0.550	0.810
2020/01/31 23:41:10.2	176.350	-0.080	0.560	0.780
2020/01/31 23:41:10.3	176.400	-0.090	0.560	0.740
2020/01/31 23:41:10.4	176.440	-0.110	0.560	0.710
2020/01/31 23:41:10.5	176.490	-0.130	0.550	0.680
2020/01/31 23:41:10.6	176.540	-0.150	0.540	0.650
2020/01/31 23:41:10.7	176.580	-0.170	0.530	0.630
2020/01/31 23:41:10.8	176.620	-0.190	0.500	0.620
2020/01/31 23:41:10.9	176.660	-0.210	0.480	0.610
2020/01/31 23:41:11.0	176.700	-0.220	0.440	0.600
2020/01/31 23:41:11.1	176.730	-0.240	0.400	0.600
2020/01/31 23:41:11.2	176.760	-0.260	0.350	0.610
2020/01/31 23:41:11.3	176.790	-0.280	0.300	0.620
2020/01/31 23:41:11.4	176.810	-0.290	0.240	0.640
2020/01/31 23:41:11.5	176.830	-0.300	0.170	0.660
2020/01/31 23:41:11.6	176.840	-0.310	0.100	0.690
2020/01/31 23:41:11.7	176.850	-0.320	0.030	0.730
2020/01/31 23:41:11.8	176.850	-0.330	-0.060	0.770
2020/01/31 23:41:11.9	176.850	-0.330	-0.140	0.810
2020/01/31 23:41:12.0	176.840	-0.330	-0.230	0.860
2020/01/31 23:41:12.1	176.840	-0.320	-0.320	0.920
2020/01/31 23:41:12.2	176.820	-0.320	-0.420	0.980
2020/01/31 23:41:12.3	176.790	-0.310	-0.510	1.050
2020/01/31 23:41:12.4	176.770	-0.290	-0.610	1.110
2020/01/31 23:41:12.5	176.740	-0.280	-0.700	1.180
2020/01/31 23:41:12.6	176.700	-0.260	-0.800	1.250
2020/01/31 23:41:12.7	176.660	-0.230	-0.890	1.320
2020/01/31 23:41:12.8	176.620	-0.210	-0.970	1.390
2020/01/31 23:41:12.9	176.580	-0.180	-1.050	1.470
2020/01/31 23:41:13.0	176.530	-0.150	-1.130	1.540
2020/01/31 23:41:13.1	176.480	-0.120	-1.200	1.620
2020/01/31 23:41:13.2	176.440	-0.090	-1.260	1.690
2020/01/31 23:41:13.3	176.390	-0.050	-1.310	1.760
2020/01/31 23:41:13.4	176.340	-0.020	-1.340	1.820
2020/01/31 23:41:13.5	176.300	0.020	-1.370	1.890
2020/01/31 23:41:13.6	176.250	0.060	-1.390	1.950
2020/01/31 23:41:13.7	176.210	0.090	-1.400	2.000
2020/01/31 23:41:13.8	176.170	0.130	-1.390	2.060
2020/01/31 23:41:13.9	176.130	0.160	-1.380	2.110
2020/01/31 23:41:14.0	176.090	0.200	-1.350	2.150
2020/01/31 23:41:14.1	176.050	0.230	-1.310	2.190
2020/01/31 23:41:14.2	176.020	0.260	-1.260	2.230
2020/01/31 23:41:14.3	175.990	0.290	-1.200	2.260
2020/01/31 23:41:14.4	175.960	0.310	-1.130	2.280
2020/01/31 23:41:14.5	175.940	0.330	-1.060	2.300
2020/01/31 23:41:14.6	175.920	0.350	-0.970	2.310
2020/01/31 23:41:14.7	175.900	0.370	-0.880	2.310
2020/01/31 23:41:14.8	175.890	0.380	-0.790	2.310
2020/01/31 23:41:14.9	175.880	0.390	-0.680	2.310
2020/01/31 23:41:15.0	175.870	0.390	-0.580	2.290
2020/01/31 23:41:15.1	175.870	0.390	-0.470	2.270
2020/01/31 23:41:15.2	175.860	0.390	-0.370	2.250
2020/01/31 23:41:15.3	175.860	0.380	-0.260	2.230
2020/01/31 23:41:15.4	175.860	0.370	-0.150	2.190
2020/01/31 23:41:15.5	175.870	0.350	-0.050	2.160
2020/01/31 23:41:15.6	175.870	0.340	0.050	2.120
2020/01/31 23:41:15.7	175.880	0.320	0.150	2.070
2020/01/31 23:41:15.8	175.890	0.290	0.240	2.020
2020/01/31 23:41:15.9	175.900	0.270	0.330	1.970
2020/01/31 23:41:16.0	175.920	0.240	0.400	1.920
2020/01/31 23:41:16.1	175.940	0.210	0.470	1.870
2020/01/31 23:41:16.2	175.950	0.170	0.540	1.810
2020/01/31 23:41:16.3	175.970	0.140	0.590	1.750
2020/01/31 23:41:16.4	175.990	0.110	0.640	1.690
2020/01/31 23:41:16.5	176.000	0.070	0.670	1.630
2020/01/31 23:41:16.6	176.020	0.040	0.700	1.570
2020/01/31 23:41:16.7	176.040	0.000	0.710	1.510
2020/01/31 23:41:16.8	176.060	-0.030	0.720	1.450
2020/01/31 23:41:16.9	176.080	-0.060	0.720	1.390
2020/01/31 23:41:17.0	176.100	-0.090	0.700	1.330
2020/01/31 23:41:17.1	176.130	-0.120	0.680	1.280
2020/01/31 23:41:17.2	176.150	-0.150	0.650	1.230
2020/01/31 23:41:17.3	176.170	-0.170	0.610	1.180
2020/01/31 23:41:17.4	176.190	-0.190	0.560	1.140
2020/01/31 23:41:17.5	176.200	-0.210	0.500	1.100
2020/01/31 23:41:17.6	176.220	-0.230	0.440	1.060
2020/01/31 23:41:17.7	176.240	-0.240	0.370	1.030
2020/01/31 23:41:17.8	176.250	-0.250	0.300	1.000
2020/01/31 23:41:17.9	176.260	-0.250	0.230	0.970
2020/01/31 23:41:18.0	176.270	-0.250	0.150	0.950
2020/01/31 23:41:18.1	176.270	-0.250	0.070	0.930
2020/01/31 23:41:18.2	176.280	-0.240	-0.020	0.920
2020/01/31 23:41:18.3	176.290	-0.240	-0.100	0.900
2020/01/31 23:41:18.4	176.290	-0.220	-0.180	0.890
2020/01/31 23:41:18.5	176.290	-0.210	-0.260	0.880
2020/01/31 23:41:18.6	176.290	-0.190	-0.330	0.880
2020/01/31 23:41:18.7	176.290	-0.170	-0.410	0.870
2020/01/31 23:41:18.8	176.290	-0.150	-0.480	0.870
2020/01/31 23:41:18.9	176.290	-0.130	-0.540	0.870
2020/01/31 23:41:19.0	176.280	-0.110	-0.600	0.870
2020/01/31 23:41:19.1	176.270	-0.090	-0.660	0.880
2020/01/31 23:41:19.2	176.270	-0.060	-0.710	0.880
2020/01/31 23:41:19.3	176.260	-0.040	-0.750	0.890
2020/01/31 23:41:19.4	176.260	-0.010	-0.790	0.900
2020/01/31 23:41:19.5	176.250	0.010	-0.820	0.910
2020/01/31 23:41:19.6	176.240	0.030	-0.850	0.920
2020/01/31 23:41:19.7	176.240	0.050	-0.870	0.940
2020/01/31 23:41:19.8	176.230	0.070	-0.890	0.960
2020/01/31 23:41:19.9	176.220	0.090	-0.900	0.970
2020/01/31 23:41:20.0	176.220	0.110	-0.900	0.990
2020/01/31 23:41:20.1	176.220	0.120	-0.900	1.010
2020/01/31 23:41:20.2	176.220	0.140	-0.890	1.030
2020/01/31 23:41:20.3	176.210	0.150	-0.880	1.050
2020/01/31 23:41:20.4	176.210	0.160	-0.870	1.070
2020/01/31 23:41:20.5	176.210	0.160	-0.850	1.090
2020/01/31 23:41:20.6	176.210	0.160	-0.830	1.110
2020/01/31 23:41:20.7	176.210	0.160	-0.800	1.130
2020/01/31 23:41:20.8	176.210	0.160	-0.770	1.150
2020/01/31 23:41:20.9	176.220	0.150	-0.740	1.170
2020/01/31 23:41:21.0	176.230	0.140	-0.700	1.190
2020/01/31 23:41:21.1	176.220	0.130	-0.670	1.220
2020/01/31 23:41:21.2	176.230	0.120	-0.630	1.240
2020/01/31 23:41:21.3	176.240	0.100	-0.590	1.260
2020/01/31 23:41:21.4	176.250	0.080	-0.550	1.290
2020/01/31 23:41:21.5	176.260	0.060	-0.510	1.310
2020/01/31 23:41:21.6	176.270	0.040	-0.460	1.340
2020/01/31 23:41:21.7	176.280	0.010	-0.420	1.370
2020/01/31 23:41:21.8	176.290	-0.010	-0.380	1.400
2020/01/31 23:41:21.9	176.300	-0.040	-0.340	1.430
2020/01/31 23:41:22.0	176.310	-0.060	-0.300	1.460
2020/01/31 23:41:22.1	176.320	-0.090	-0.260	1.490
2020/01/31 23:41:22.2	176.330	-0.110	-0.220	1.520
2020/01/31 23:41:22.3	176.340	-0.140	-0.190	1.550
2020/01/31 23:41:22.4	176.350	-0.160	-0.160	1.580
2020/01/31 23:41:22.5	176.350	-0.180	-0.140	1.610
2020/01/31 23:41:22.6	176.360	-0.200	-0.110	1.640
2020/01/31 23:41:22.7	176.360	-0.220	-0.090	1.670
2020/01/31 23:41:22.8	176.360	-0.230	-0.080	1.700
2020/01/31 23:41:22.9	176.360	-0.240	-0.070	1.720
2020/01/31 23:41:23.0	176.360	-0.250	-0.060	1.750
2020/01/31 23:41:23.1	176.360	-0.250	-0.060	1.780
2020/01/31 23:41:23.2	176.360	-0.250	-0.060	1.800
2020/01/31 23:41:23.3	176.350	-0.250	-0.060	1.810
2020/01/31 23:41:23.4	176.340	-0.250	-0.070	1.830
2020/01/31 23:41:23.5	176.340	-0.240	-0.070	1.840
2020/01/31 23:41:23.6	176.330	-0.220	-0.090	1.850
2020/01/31 23:41:23.7	176.320	-0.210	-0.100	1.860
2020/01/31 23:41:23.8	176.310	-0.190	-0.120	1.870
2020/01/31 23:41:23.9	176.300	-0.160	-0.140	1.870
2020/01/31 23:41:24.0	176.290	-0.140	-0.150	1.870
2020/01/31 23:41:24.1	176.270	-0.110	-0.170	1.870
2020/01/31 23:41:24.2	176.250	-0.080	-0.190	1.870
2020/01/31 23:41:24.3	176.240	-0.050	-0.210	1.860
2020/01/31 23:41:24.4	176.230	-0.020	-0.230	1.860
2020/01/31 23:41:24.5	176.220	0.010	-0.240	1.850
2020/01/31 23:41:24.6	176.200	0.050	-0.260	1.840
2020/01/31 23:41:24.7	176.190	0.080	-0.270	1.830
2020/01/31 23:41:24.8	176.170	0.120	-0.290	1.820
2020/01/31 23:41:24.9	176.160	0.150	-0.300	1.810
2020/01/31 23:41:25.0	176.150	0.180	-0.300	1.800
2020/01/31 23:41:25.1	176.130	0.210	-0.310	1.790
2020/01/31 23:41:25.2	176.120	0.240	-0.310	1.780
2020/01/31 23:41:25.3	176.100	0.260	-0.310	1.770
2020/01/31 23:41:25.4	176.090	0.290	-0.310	1.760
2020/01/31 23:41:25.5	176.080	0.310	-0.300	1.740
2020/01/31 23:41:25.6	176.070	0.330	-0.290	1.730
2020/01/31 23:41:25.7	176.070	0.340	-0.280	1.710
2020/01/31 23:41:25.8	176.060	0.350	-0.270	1.700
2020/01/31 23:41:25.9	176.060	0.360	-0.250	1.680
2020/01/31 23:41:26.0	176.060	0.360	-0.230	1.660
2020/01/31 23:41:26.1	176.050	0.360	-0.210	1.650
2020/01/31 23:41:26.2	176.050	0.350	-0.180	1.630
2020/01/31 23:41:26.3	176.060	0.340	-0.160	1.610
2020/01/31 23:41:26.4	176.060	0.330	-0.130	1.590
2020/01/31 23:41:26.5	176.070	0.310	-0.100	1.580
2020/01/31 23:41:26.6	176.080	0.290	-0.070	1.560
2020/01/31 23:41:26.7	176.090	0.260	-0.040	1.550
2020/01/31 23:41:26.8	176.100	0.240	-0.010	1.530
2020/01/31 23:41:26.9	176.110	0.210	0.020	1.520
2020/01/31 23:41:27.0	176.130	0.170	0.050	1.520
2020/01/31 23:41:27.1	176.140	0.140	0.080	1.510
2020/01/31 23:41:27.2	176.150	0.100	0.100	1.500
2020/01/31 23:41:27.3	176.160	0.060	0.130	1.500
2020/01/31 23:41:27.4	176.170	0.020	0.150	1.500
2020/01/31 23:41:27.5	176.180	-0.020	0.170	1.500
2020/01/31 23:41:27.6	176.180	-0.060	0.190	1.510
2020/01/31 23:41:27.7	176.180	-0.090	0.210	1.520
2020/01/31 23:41:27.8	176.180	-0.130	0.220	1.530
2020/01/31 23:41:27.9	176.180	-0.160	0.230	1.540
2020/01/31 23:41:28.0	176.170	-0.200	0.230	1.560
2020/01/31 23:41:28.1	176.170	-0.230	0.230	1.580
2020/01/31 23:41:28.2	176.160	-0.250	0.230	1.600
2020/01/31 23:41:28.3	176.140	-0.280	0.220	1.630
2020/01/31 23:41:28.4	176.120	-0.290	0.210	1.650
2020/01/31 23:41:28.5	176.100	-0.310	0.200	1.680
2020/01/31 23:41:28.6	176.080	-0.320	0.180	1.710
2020/01/31 23:41:28.7	176.060	-0.330	0.150	1.740
2020/01/31 23:41:28.8	176.030	-0.330	0.130	1.760
2020/01/31 23:41:28.9	176.010	-0.330	0.100	1.790
2020/01/31 23:41:29.0	175.980	-0.320	0.070	1.810
2020/01/31 23:41:29.1	175.950	-0.310	0.040	1.840
2020/01/31 23:41:29.2	175.920	-0.300	0.010	1.860
2020/01/31 23:41:29.3	175.900	-0.290	-0.030	1.870
2020/01/31 23:41:29.4	175.880	-0.270	-0.060	1.890
2020/01/31 23:41:29.5	175.870	-0.250	-0.090	1.890
2020/01/31 23:41:29.6	175.850	-0.220	-0.120	1.900
2020/01/31 23:41:29.7	175.830	-0.200	-0.150	1.910
2020/01/31 23:41:29.8	175.820	-0.170	-0.180	1.910
2020/01/31 23:41:29.9	175.810	-0.140	-0.210	1.900
2020/01/31 23:41:30.0	175.800	-0.110	-0.240	1.900
2020/01/31 23:41:30.1	175.790	-0.080	-0.260	1.890
2020/01/31 23:41:30.2	175.790	-0.050	-0.290	1.880
2020/01/31 23:41:30.3	175.780	-0.020	-0.310	1.870
2020/01/31 23:41:30.4	175.780	0.010	-0.330	1.860
2020/01/31 23:41:30.5	175.780	0.030	-0.360	1.850
2020/01/31 23:41:30.6	175.780	0.060	-0.380	1.830
2020/01/31 23:41:30.7	175.790	0.090	-0.400	1.810
2020/01/31 23:41:30.8	175.790	0.110	-0.420	1.800
2020/01/31 23:41:30.9	175.790	0.130	-0.430	1.780
2020/01/31 23:41:31.0	175.790	0.150	-0.450	1.770
2020/01/31 23:41:31.1	175.800	0.170	-0.470	1.740
2020/01/31 23:41:31.2	175.800	0.190	-0.490	1.730
2020/01/31 23:41:31.3	175.810	0.210	-0.500	1.710
2020/01/31 23:41:31.4	175.820	0.220	-0.520	1.680
2020/01/31 23:41:31.5	175.820	0.230	-0.540	1.660
2020/01/31 23:41:31.6	175.830	0.240	-0.560	1.640
2020/01/31 23:41:31.7	175.830	0.250	-0.570	1.620
2020/01/31 23:41:31.8	175.840	0.250	-0.590	1.600
2020/01/31 23:41:31.9	175.840	0.260	-0.610	1.580
2020/01/31 23:41:32.0	175.840	0.260	-0.630	1.550
2020/01/31 23:41:32.1	175.830	0.260	-0.650	1.530
2020/01/31 23:41:32.2	175.830	0.260	-0.670	1.510
2020/01/31 23:41:32.3	175.830	0.260	-0.690	1.490
2020/01/31 23:41:32.4	175.830	0.250	-0.710	1.470
2020/01/31 23:41:32.5	175.830	0.250	-0.730	1.440
2020/01/31 23:41:32.6	175.820	0.240	-0.740	1.420
2020/01/31 23:41:32.7	175.820	0.230	-0.760	1.400
2020/01/31 23:41:32.8	175.820	0.230	-0.770	1.380
2020/01/31 23:41:32.9	175.810	0.220	-0.790	1.360
2020/01/31 23:41:33.0	175.810	0.200	-0.790	1.340
2020/01/31 23:41:33.1	175.800	0.190	-0.800	1.330
2020/01/31 23:41:33.2	175.800	0.180	-0.800	1.320
2020/01/31 23:41:33.3	175.800	0.160	-0.800	1.300
2020/01/31 23:41:33.4	175.790	0.150	-0.800	1.300
2020/01/31 23:41:33.5	175.790	0.130	-0.790	1.290
2020/01/31 23:41:33.6	175.790	0.110	-0.770	1.290
2020/01/31 23:41:33.7	175.790	0.090	-0.760	1.290
2020/01/31 23:41:33.8	175.780	0.070	-0.730	1.300
2020/01/31 23:41:33.9	175.780	0.050	-0.710	1.300
2020/01/31 23:41:34.0	175.780	0.030	-0.680	1.310
2020/01/31 23:41:34.1	175.770	0.010	-0.640	1.330
2020/01/31 23:41:34.2	175.770	-0.010	-0.610	1.340
2020/01/31 23:41:34.3	175.760	-0.040	-0.570	1.360
2020/01/31 23:41:34.4	175.760	-0.060	-0.530	1.380
2020/01/31 23:41:34.5	175.760	-0.080	-0.480	1.390
2020/01/31 23:41:34.6	175.750	-0.110	-0.440	1.410
2020/01/31 23:41:34.7	175.750	-0.130	-0.390	1.430
2020/01/31 23:41:34.8	175.750	-0.150	-0.340	1.450
2020/01/31 23:41:34.9	175.750	-0.170	-0.300	1.470
2020/01/31 23:41:35.0	175.750	-0.200	-0.250	1.480
2020/01/31 23:41:35.1	175.740	-0.220	-0.200	1.500
2020/01/31 23:41:35.2	175.740	-0.240	-0.160	1.520
2020/01/31 23:41:35.3	175.740	-0.260	-0.120	1.530
2020/01/31 23:41:35.4	175.750	-0.270	-0.070	1.540
2020/01/31 23:41:35.5	175.750	-0.290	-0.030	1.550
2020/01/31 23:41:35.6	175.760	-0.300	0.010	1.550
2020/01/31 23:41:35.7	175.770	-0.320	0.040	1.560
2020/01/31 23:41:35.8	175.780	-0.330	0.080	1.560
2020/01/31 23:41:35.9	175.800	-0.340	0.110	1.560
2020/01/31 23:41:36.0	175.810	-0.340	0.130	1.560
2020/01/31 23:41:36.1	175.840	-0.350	0.160	1.560
2020/01/31 23:41:36.2	175.860	-0.350	0.180	1.550
2020/01/31 23:41:36.3	175.870	-0.350	0.190	1.540
2020/01/31 23:41:36.4	175.890	-0.350	0.200	1.530
2020/01/31 23:41:36.5	175.910	-0.350	0.210	1.520
2020/01/31 23:41:36.6	175.930	-0.350	0.210	1.510
2020/01/31 23:41:36.7	175.950	-0.340	0.210	1.500
2020/01/31 23:41:36.8	175.960	-0.330	0.200	1.500
2020/01/31 23:41:36.9	175.980	-0.320	0.190	1.490
2020/01/31 23:41:37.0	175.990	-0.310	0.170	1.490
2020/01/31 23:41:37.1	175.990	-0.300	0.140	1.480
2020/01/31 23:41:37.2	176.000	-0.280	0.120	1.480
2020/01/31 23:41:37.3	176.000	-0.270	0.090	1.490
2020/01/31 23:41:37.4	176.010	-0.250	0.050	1.490
2020/01/31 23:41:37.5	176.000	-0.240	0.010	1.500
2020/01/31 23:41:37.6	176.000	-0.220	-0.030	1.510
2020/01/31 23:41:37.7	175.980	-0.200	-0.080	1.530
2020/01/31 23:41:37.8	175.970	-0.180	-0.130	1.550
2020/01/31 23:41:37.9	175.950	-0.160	-0.180	1.570
2020/01/31 23:41:38.0	175.930	-0.140	-0.230	1.600
2020/01/31 23:41:38.1	175.910	-0.120	-0.280	1.630
2020/01/31 23:41:38.2	175.870	-0.100	-0.340	1.670
2020/01/31 23:41:38.3	175.840	-0.080	-0.400	1.710
2020/01/31 23:41:38.4	175.800	-0.050	-0.450	1.750
2020/01/31 23:41:38.5	175.760	-0.030	-0.510	1.790
2020/01/31 23:41:38.6	175.720	-0.010	-0.560	1.840
2020/01/31 23:41:38.7	175.670	0.010	-0.610	1.880
2020/01/31 23:41:38.8	175.630	0.040	-0.660	1.930
2020/01/31 23:41:38.9	175.580	0.060	-0.700	1.970
2020/01/31 23:41:39.0	175.540	0.080	-0.740	2.010
2020/01/31 23:41:39.1	175.510	0.100	-0.780	2.060
2020/01/31 23:41:39.2	175.470	0.120	-0.810	2.100
2020/01/31 23:41:39.3	175.430	0.130	-0.820	2.130
2020/01/31 23:41:39.4	175.390	0.150	-0.830	2.170
2020/01/31 23:41:39.5	175.360	0.170	-0.830	2.200
2020/01/31 23:41:39.6	175.330	0.180	-0.820	2.220
2020/01/31 23:41:39.7	175.300	0.200	-0.800	2.240
2020/01/31 23:41:39.8	175.270	0.210	-0.770	2.260
2020/01/31 23:41:39.9	175.250	0.220	-0.730	2.270
2020/01/31 23:41:40.0	175.240	0.220	-0.680	2.270
2020/01/31 23:41:40.1	175.220	0.230	-0.620	2.280
2020/01/31 23:41:40.2	175.220	0.230	-0.550	2.280
2020/01/31 23:41:40.3	175.210	0.230	-0.470	2.270
2020/01/31 23:41:40.4	175.210	0.230	-0.390	2.260
2020/01/31 23:41:40.5	175.220	0.230	-0.300	2.240
2020/01/31 23:41:40.6	175.230	0.220	-0.200	2.220
2020/01/31 23:41:40.7	175.240	0.210	-0.100	2.200
2020/01/31 23:41:40.8	175.260	0.200	0.010	2.170
2020/01/31 23:41:40.9	175.280	0.180	0.110	2.150
2020/01/31 23:41:41.0	175.300	0.170	0.220	2.110
2020/01/31 23:41:41.1	175.350	0.150	0.320	2.080
2020/01/31 23:41:41.2	175.370	0.130	0.420	2.050
2020/01/31 23:41:41.3	175.410	0.110	0.520	2.010
2020/01/31 23:41:41.4	175.440	0.080	0.610	1.970
2020/01/31 23:41:41.5	175.470	0.060	0.700	1.920
2020/01/31 23:41:41.6	175.510	0.030	0.770	1.880
2020/01/31 23:41:41.7	175.540	0.010	0.840	1.840
2020/01/31 23:41:41.8	175.580	-0.020	0.900	1.790
2020/01/31 23:41:41.9	175.610	-0.040	0.950	1.750
2020/01/31 23:41:42.0	175.650	-0.060	0.980	1.700
2020/01/31 23:41:42.1	175.680	-0.090	1.010	1.650
2020/01/31 23:41:42.2	175.710	-0.110	1.020	1.610
2020/01/31 23:41:42.3	175.740	-0.130	1.020	1.570
2020/01/31 23:41:42.4	175.770	-0.150	1.000	1.530
2020/01/31 23:41:42.5	175.800	-0.160	0.970	1.490
2020/01/31 23:41:42.6	175.830	-0.170	0.930	1.460
2020/01/31 23:41:42.7	175.850	-0.180	0.870	1.420
2020/01/31 23:41:42.8	175.870	-0.180	0.810	1.400
2020/01/31 23:41:42.9	175.890	-0.180	0.730	1.370
2020/01/31 23:41:43.0	175.900	-0.180	0.640	1.350
2020/01/31 23:41:43.1	175.910	-0.170	0.540	1.330
2020/01/31 23:41:43.2	175.920	-0.160	0.440	1.320
2020/01/31 23:41:43.3	175.930	-0.150	0.320	1.310
2020/01/31 23:41:43.4	175.930	-0.130	0.200	1.300
2020/01/31 23:41:43.5	175.930	-0.100	0.080	1.300
2020/01/31 23:41:43.6	175.930	-0.080	-0.050	1.300
2020/01/31 23:41:43.7	175.930	-0.050	-0.190	1.310
2020/01/31 23:41:43.8	175.920	-0.010	-0.320	1.320
2020/01/31 23:41:43.9	175.910	0.030	-0.450	1.330
2020/01/31 23:41:44.0	175.900	0.070	-0.580	1.350
2020/01/31 23:41:44.1	175.870	0.110	-0.710	1.370
2020/01/31 23:41:44.2	175.860	0.150	-0.840	1.380
2020/01/31 23:41:44.3	175.840	0.200	-0.960	1.400
2020/01/31 23:41:44.4	175.820	0.250	-1.070	1.420
2020/01/31 23:41:44.5	175.800	0.300	-1.170	1.440
2020/01/31 23:41:44.6	175.780	0.350	-1.270	1.460
2020/01/31 23:41:44.7	175.760	0.390	-1.360	1.470
2020/01/31 23:41:44.8	175.740	0.440	-1.430	1.490
2020/01/31 23:41:44.9	175.720	0.490	-1.500	1.510
2020/01/31 23:41:45.0	175.710	0.530	-1.550	1.520
2020/01/31 23:41:45.1	175.690	0.570	-1.590	1.530
2020/01/31 23:41:45.2	175.670	0.610	-1.610	1.540
2020/01/31 23:41:45.3	175.660	0.640	-1.630	1.550
2020/01/31 23:41:45.4	175.650	0.670	-1.630	1.560
2020/01/31 23:41:45.5	175.630	0.700	-1.620	1.570
2020/01/31 23:41:45.6	175.620	0.720	-1.600	1.580
2020/01/31 23:41:45.7	175.610	0.730	-1.560	1.580
2020/01/31 23:41:45.8	175.600	0.740	-1.520	1.590
2020/01/31 23:41:45.9	175.590	0.750	-1.460	1.590
2020/01/31 23:41:46.0	175.590	0.740	-1.390	1.600
2020/01/31 23:41:46.1	175.570	0.730	-1.320	1.610
2020/01/31 23:41:46.2	175.570	0.720	-1.240	1.610
2020/01/31 23:41:46.3	175.560	0.700	-1.150	1.620
2020/01/31 23:41:46.4	175.560	0.670	-1.050	1.620
2020/01/31 23:41:46.5	175.560	0.640	-0.950	1.620
2020/01/31 23:41:46.6	175.550	0.600	-0.850	1.630
2020/01/31 23:41:46.7	175.550	0.550	-0.740	1.630
2020/01/31 23:41:46.8	175.550	0.500	-0.630	1.640
2020/01/31 23:41:46.9	175.550	0.450	-0.520	1.640
2020/01/31 23:41:47.0	175.550	0.390	-0.410	1.650
2020/01/31 23:41:47.1	175.560	0.320	-0.300	1.650
2020/01/31 23:41:47.2	175.560	0.260	-0.200	1.660
2020/01/31 23:41:47.3	175.560	0.180	-0.090	1.660
2020/01/31 23:41:47.4	175.560	0.110	0.010	1.670
2020/01/31 23:41:47.5	175.560	0.040	0.100	1.680
2020/01/31 23:41:47.6	175.560	-0.040	0.190	1.680
2020/01/31 23:41:47.7	175.560	-0.110	0.270	1.690
2020/01/31 23:41:47.8	175.570	-0.190	0.350	1.690
2020/01/31 23:41:47.9	175.570	-0.270	0.420	1.700
2020/01/31 23:41:48.0	175.570	-0.340	0.480	1.710
2020/01/31 23:41:48.1	175.590	-0.410	0.530	1.720
2020/01/31 23:41:48.2	175.600	-0.480	0.580	1.720
2020/01/31 23:41:48.3	175.600	-0.550	0.620	1.720
2020/01/31 23:41:48.4	175.610	-0.610	0.650	1.720
2020/01/31 23:41:48.5	175.620	-0.670	0.670	1.720
2020/01/31 23:41:48.6	175.630	-0.730	0.690	1.720
2020/01/31 23:41:48.7	175.640	-0.780	0.690	1.720
2020/01/31 23:41:48.8	175.660	-0.820	0.690	1.710
2020/01/31 23:41:48.9	175.670	-0.860	0.680	1.710
2020/01/31 23:41:49.0	175.690	-0.900	0.670	1.700
2020/01/31 23:41:49.1	175.700	-0.930	0.640	1.690
2020/01/31 23:41:49.2	175.710	-0.950	0.620	1.680
2020/01/31 23:41:49.3	175.730	-0.960	0.580	1.670
2020/01/31 23:41:49.4	175.750	-0.970	0.540	1.660
2020/01/31 23:41:49.5	175.760	-0.970	0.490	1.650
2020/01/31 23:41:49.6	175.780	-0.960	0.440	1.630
2020/01/31 23:41:49.7	175.790	-0.950	0.390	1.620
2020/01/31 23:41:49.8	175.800	-0.930	0.330	1.610
2020/01/31 23:41:49.9	175.810	-0.910	0.270	1.600
2020/01/31 23:41:50.0	175.820	-0.880	0.200	1.590
2020/01/31 23:41:50.1	175.850	-0.840	0.140	1.580
2020/01/31 23:41:50.2	175.850	-0.800	0.070	1.570
2020/01/31 23:41:50.3	175.860	-0.750	-0.000	1.560
2020/01/31 23:41:50.4	175.860	-0.700	-0.080	1.550
2020/01/31 23:41:50.5	175.860	-0.640	-0.150	1.540
2020/01/31 23:41:50.6	175.860	-0.580	-0.220	1.530
2020/01/31 23:41:50.7	175.850	-0.520	-0.290	1.530
2020/01/31 23:41:50.8	175.850	-0.450	-0.360	1.520
2020/01/31 23:41:50.9	175.840	-0.380	-0.430	1.510
2020/01/31 23:41:51.0	175.830	-0.310	-0.490	1.500
2020/01/31 23:41:51.1	175.820	-0.230	-0.560	1.500
2020/01/31 23:41:51.2	175.810	-0.160	-0.620	1.490
2020/01/31 23:41:51.3	175.790	-0.090	-0.680	1.480
2020/01/31 23:41:51.4	175.780	-0.010	-0.730	1.470
2020/01/31 23:41:51.5	175.760	0.060	-0.780	1.460
2020/01/31 23:41:51.6	175.740	0.130	-0.830	1.450
2020/01/31 23:41:51.7	175.720	0.200	-0.870	1.440
2020/01/31 23:41:51.8	175.700	0.270	-0.910	1.420
2020/01/31 23:41:51.9	175.670	0.330	-0.940	1.410
2020/01/31 23:41:52.0	175.650	0.390	-0.970	1.400
2020/01/31 23:41:52.1	175.620	0.450	-0.990	1.380
2020/01/31 23:41:52.2	175.600	0.500	-1.000	1.370
2020/01/31 23:41:52.3	175.580	0.540	-1.010	1.360
2020/01/31 23:41:52.4	175.560	0.580	-1.010	1.340
2020/01/31 23:41:52.5	175.540	0.620	-1.010	1.330
2020/01/31 23:41:52.6	175.520	0.650	-1.000	1.330
2020/01/31 23:41:52.7	175.510	0.670	-0.980	1.320
2020/01/31 23:41:52.8	175.490	0.690	-0.960	1.310
2020/01/31 23:41:52.9	175.480	0.700	-0.930	1.310
2020/01/31 23:41:53.0	175.470	0.700	-0.900	1.310
2020/01/31 23:41:53.1	175.460	0.700	-0.860	1.320
2020/01/31 23:41:53.2	175.450	0.700	-0.810	1.320
2020/01/31 23:41:53.3	175.450	0.680	-0.760	1.330
2020/01/31 23:41:53.4	175.450	0.660	-0.700	1.330
2020/01/31 23:41:53.5	175.450	0.640	-0.640	1.340
2020/01/31 23:41:53.6	175.460	0.610	-0.580	1.360
2020/01/31 23:41:53.7	175.470	0.570	-0.510	1.370
2020/01/31 23:41:53.8	175.480	0.530	-0.440	1.380
2020/01/31 23:41:53.9	175.490	0.490	-0.370	1.400
2020/01/31 23:41:54.0	175.510	0.440	-0.290	1.420
2020/01/31 23:41:54.1	175.530	0.390	-0.220	1.440
2020/01/31 23:41:54.2	175.550	0.340	-0.140	1.460
2020/01/31 23:41:54.3	175.570	0.280	-0.060	1.480
2020/01/31 23:41:54.4	175.590	0.220	0.010	1.490
2020/01/31 23:41:54.5	175.610	0.170	0.080	1.510
2020/01/31 23:41:54.6	175.630	0.110	0.150	1.530
2020/01/31 23:41:54.7	175.660	0.050	0.220	1.550
2020/01/31 23:41:54.8	175.680	-0.000	0.280	1.570
2020/01/31 23:41:54.9	175.700	-0.060	0.340	1.580
2020/01/31 23:41:55.0	175.730	-0.110	0.390	1.600
2020/01/31 23:41:55.1	175.750	-0.160	0.440	1.620
2020/01/31 23:41:55.2	175.770	-0.200	0.480	1.630
2020/01/31 23:41:55.3	175.790	-0.250	0.510	1.650
2020/01/31 23:41:55.4	175.810	-0.280	0.530	1.660
2020/01/31 23:41:55.5	175.830	-0.320	0.550	1.680
2020/01/31 23:41:55.6	175.850	-0.350	0.550	1.690
2020/01/31 23:41:55.7	175.860	-0.370	0.550	1.710
2020/01/31 23:41:55.8	175.870	-0.390	0.540	1.720
2020/01/31 23:41:55.9	175.880	-0.400	0.520	1.740
2020/01/31 23:41:56.0	175.890	-0.410	0.500	1.760
2020/01/31 23:41:56.1	175.910	-0.410	0.460	1.780
2020/01/31 23:41:56.2	175.920	-0.410	0.420	1.800
2020/01/31 23:41:56.3	175.920	-0.400	0.370	1.820
2020/01/31 23:41:56.4	175.920	-0.390	0.320	1.840
2020/01/31 23:41:56.5	175.910	-0.370	0.260	1.860
2020/01/31 23:41:56.6	175.910	-0.350	0.190	1.880
2020/01/31 23:41:56.7	175.900	-0.320	0.120	1.910
2020/01/31 23:41:56.8	175.890	-0.290	0.050	1.930
2020/01/31 23:41:56.9	175.880	-0.260	-0.020	1.960
2020/01/31 23:41:57.0	175.870	-0.230	-0.100	1.980
2020/01/31 23:41:57.1	175.860	-0.190	-0.170	2.010
2020/01/31 23:41:57.2	175.850	-0.150	-0.250	2.030
2020/01/31 23:41:57.3	175.840	-0.110	-0.320	2.060
2020/01/31 23:41:57.4	175.830	-0.080	-0.390	2.080
2020/01/31 23:41:57.5	175.810	-0.040	-0.460	2.100
2020/01/31 23:41:57.6	175.800	-0.000	-0.530	2.120
2020/01/31 23:41:57.7	175.800	0.030	-0.590	2.140
2020/01/31 23:41:57.8	175.790	0.070	-0.640	2.150
2020/01/31 23:41:57.9	175.780	0.100	-0.690	2.160
2020/01/31 23:41:58.0	175.780	0.130	-0.740	2.180
2020/01/31 23:41:58.1	175.780	0.160	-0.780	2.190
2020/01/31 23:41:58.2	175.780	0.180	-0.800	2.200
2020/01/31 23:41:58.3	175.780	0.200	-0.830	2.200
2020/01/31 23:41:58.4	175.780	0.210	-0.840	2.210
2020/01/31 23:41:58.5	175.780	0.220	-0.850	2.210
2020/01/31 23:41:58.6	175.790	0.230	-0.850	2.210
2020/01/31 23:41:58.7	175.790	0.240	-0.840	2.210
2020/01/31 23:41:58.8	175.800	0.240	-0.830	2.210
2020/01/31 23:41:58.9	175.810	0.230	-0.810	2.200
2020/01/31 23:41:59.0	175.820	0.220	-0.780	2.200
2020/01/31 23:41:59.1	175.800	0.210	-0.740	2.190
2020/01/31 23:41:59.2	175.810	0.200	-0.700	2.170
2020/01/31 23:41:59.3	175.820	0.180	-0.660	2.160
2020/01/31 23:41:59.4	175.830	0.160	-0.610	2.140
2020/01/31 23:41:59.5	175.840	0.140	-0.550	2.120
2020/01/31 23:41:59.6	175.850	0.110	-0.490	2.100
2020/01/31 23:41:59.7	175.870	0.090	-0.430	2.080
2020/01/31 23:41:59.8	175.880	0.060	-0.370	2.050
2020/01/31 23:41:59.9	175.890	0.040	-0.300	2.020
2020/01/31 23:42:00.0	175.900	0.010	-0.230	1.990
2020/01/31 23:42:00.1	175.900	-0.020	-0.170	1.950
2020/01/31 23:42:00.2	175.920	-0.040	-0.100	1.920
2020/01/31 23:42:00.3	175.930	-0.070	-0.040	1.880
2020/01/31 23:42:00.4	175.940	-0.090	0.020	1.840
2020/01/31 23:42:00.5	175.950	-0.110	0.080	1.800
2020/01/31 23:42:00.6	175.960	-0.130	0.130	1.760
2020/01/31 23:42:00.7	175.960	-0.150	0.180	1.710
2020/01/31 23:42:00.8	175.970	-0.160	0.230	1.670
2020/01/31 23:42:00.9	175.980	-0.170	0.270	1.630
2020/01/31 23:42:01.0	175.980	-0.180	0.300	1.580
2020/01/31 23:42:01.1	176.010	-0.180	0.330	1.540
2020/01/31 23:42:01.2	176.010	-0.190	0.350	1.500
2020/01/31 23:42:01.3	176.020	-0.190	0.360	1.460
2020/01/31 23:42:01.4	176.020	-0.180	0.370	1.430
2020/01/31 23:42:01.5	176.010	-0.180	0.370	1.390
2020/01/31 23:42:01.6	176.010	-0.170	0.360	1.360
2020/01/31 23:42:01.7	176.010	-0.150	0.350	1.330
2020/01/31 23:42:01.8	176.010	-0.140	0.330	1.300
2020/01/31 23:42:01.9	176.000	-0.120	0.310	1.270
2020/01/31 23:42:02.0	176.010	-0.110	0.280	1.250
2020/01/31 23:42:02.1	176.000	-0.090	0.240	1.230
2020/01/31 23:42:02.2	176.000	-0.070	0.200	1.220
2020/01/31 23:42:02.3	175.990	-0.040	0.160	1.200
2020/01/31 23:42:02.4	175.980	-0.020	0.110	1.200
2020/01/31 23:42:02.5	175.970	0.000	0.060	1.190
2020/01/31 23:42:02.6	175.960	0.020	0.010	1.190
2020/01/31 23:42:02.7	175.950	0.050	-0.040	1.190
2020/01/31 23:42:02.8	175.940	0.070	-0.100	1.190
2020/01/31 23:42:02.9	175.930	0.090	-0.150	1.200
2020/01/31 23:42:03.0	175.920	0.110	-0.200	1.210
2020/01/31 23:42:03.1	175.910	0.130	-0.250	1.220
2020/01/31 23:42:03.2	175.900	0.150	-0.310	1.230
2020/01/31 23:42:03.3	175.880	0.170	-0.360	1.250
2020/01/31 23:42:03.4	175.870	0.190	-0.410	1.270
2020/01/31 23:42:03.5	175.850	0.200	-0.450	1.280
2020/01/31 23:42:03.6	175.840	0.220	-0.500	1.300
2020/01/31 23:42:03.7	175.820	0.230	-0.540	1.320
2020/01/31 23:42:03.8	175.800	0.240	-0.580	1.350
2020/01/31 23:42:03.9	175.780	0.250	-0.610	1.370
2020/01/31 23:42:04.0	175.760	0.260	-0.640	1.390
2020/01/31 23:42:04.1	175.730	0.260	-0.680	1.410
2020/01/31 23:42:04.2	175.710	0.270	-0.700	1.440
2020/01/31 23:42:04.3	175.680	0.270	-0.730	1.460
2020/01/31 23:42:04.4	175.660	0.270	-0.750	1.490
2020/01/31 23:42:04.5	175.640	0.270	-0.770	1.510
2020/01/31 23:42:04.6	175.610	0.270	-0.780	1.530
2020/01/31 23:42:04.7	175.590	0.270	-0.790	1.550
2020/01/31 23:42:04.8	175.570	0.260	-0.800	1.570
2020/01/31 23:42:04.9	175.550	0.260	-0.800	1.590
2020/01/31 23:42:05.0	175.530	0.250	-0.800	1.610
2020/01/31 23:42:05.1	175.510	0.240	-0.790	1.630
2020/01/31 23:42:05.2	175.500	0.230	-0.780	1.650
2020/01/31 23:42:05.3	175.490	0.220	-0.770	1.660
2020/01/31 23:42:05.4	175.470	0.200	-0.760	1.680
2020/01/31 23:42:05.5	175.460	0.190	-0.740	1.700
2020/01/31 23:42:05.6	175.450	0.180	-0.720	1.710
2020/01/31 23:42:05.7	175.450	0.160	-0.700	1.730
2020/01/31 23:42:05.8	175.440	0.140	-0.670	1.750
2020/01/31 23:42:05.9	175.440	0.130	-0.640	1.760
2020/01/31 23:42:06.0	175.430	0.110	-0.610	1.780
2020/01/31 23:42:06.1	175.410	0.090	-0.580	1.800
2020/01/31 23:42:06.2	175.410	0.070	-0.540	1.820
2020/01/31 23:42:06.3	175.410	0.050	-0.500	1.830
2020/01/31 23:42:06.4	175.410	0.030	-0.460	1.850
2020/01/31 23:42:06.5	175.410	0.010	-0.420	1.860
2020/01/31 23:42:06.6	175.410	-0.010	-0.370	1.870
2020/01/31 23:42:06.7	175.410	-0.030	-0.330	1.890
2020/01/31 23:42:06.8	175.410	-0.050	-0.280	1.900
2020/01/31 23:42:06.9	175.420	-0.070	-0.230	1.900
2020/01/31 23:42:07.0	175.420	-0.090	-0.190	1.910
2020/01/31 23:42:07.1	175.410	-0.110	-0.140	1.920
2020/01/31 23:42:07.2	175.420	-0.130	-0.100	1.920
2020/01/31 23:42:07.3	175.420	-0.150	-0.060	1.920
2020/01/31 23:42:07.4	175.430	-0.160	-0.020	1.920
2020/01/31 23:42:07.5	175.430	-0.180	0.020	1.910
2020/01/31 23:42:07.6	175.440	-0.200	0.050	1.910
2020/01/31 23:42:07.7	175.440	-0.210	0.080	1.900
2020/01/31 23:42:07.8	175.450	-0.230	0.110	1.890
2020/01/31 23:42:07.9	175.450	-0.240	0.130	1.870
2020/01/31 23:42:08.0	175.460	-0.250	0.150	1.860
2020/01/31 23:42:08.1	175.480	-0.260	0.160	1.840
2020/01/31 23:42:08.2	175.480	-0.270	0.170	1.820
2020/01/31 23:42:08.3	175.490	-0.280	0.170	1.810
2020/01/31 23:42:08.4	175.490	-0.280	0.170	1.790
2020/01/31 23:42:08.5	175.490	-0.290	0.160	1.770
2020/01/31 23:42:08.6	175.500	-0.290	0.150	1.760
2020/01/31 23:42:08.7	175.500	-0.290	0.130	1.740
2020/01/31 23:42:08.8	175.500	-0.290	0.100	1.730
2020/01/31 23:42:08.9	175.490	-0.290	0.080	1.720
2020/01/31 23:42:09.0	175.500	-0.280	0.040	1.710
2020/01/31 23:42:09.1	175.490	-0.270	0.010	1.700
2020/01/31 23:42:09.2	175.480	-0.260	-0.030	1.690
2020/01/31 23:42:09.3	175.480	-0.250	-0.080	1.690
2020/01/31 23:42:09.4	175.470	-0.240	-0.120	1.690
2020/01/31 23:42:09.5	175.460	-0.230	-0.170	1.690
2020/01/31 23:42:09.6	175.440	-0.210	-0.220	1.690
2020/01/31 23:42:09.7	175.430	-0.190	-0.270	1.700
2020/01/31 23:42:09.8	175.420	-0.180	-0.320	1.700
2020/01/31 23:42:09.9	175.400	-0.160	-0.370	1.710
2020/01/31 23:42:10.0	175.390	-0.140	-0.420	1.720
2020/01/31 23:42:10.1	175.360	-0.120	-0.470	1.730
2020/01/31 23:42:10.2	175.340	-0.100	-0.520	1.740
2020/01/31 23:42:10.3	175.320	-0.070	-0.560	1.750
2020/01/31 23:42:10.4	175.310	-0.050	-0.590	1.760
2020/01/31 23:42:10.5	175.290	-0.030	-0.630	1.770
2020/01/31 23:42:10.6	175.270	-0.010	-0.660	1.780
2020/01/31 23:42:10.7	175.260	0.010	-0.680	1.790
2020/01/31 23:42:10.8	175.240	0.030	-0.690	1.800
2020/01/31 23:42:10.9	175.230	0.050	-0.710	1.800
2020/01/31 23:42:11.0	175.220	0.070	-0.710	1.810
2020/01/31 23:42:11.1	175.200	0.090	-0.710	1.810
2020/01/31 23:42:11.2	175.190	0.100	-0.700	1.810
2020/01/31 23:42:11.3	175.180	0.120	-0.690	1.810
2020/01/31 23:42:11.4	175.180	0.130	-0.670	1.800
2020/01/31 23:42:11.5	175.170	0.140	-0.640	1.800
2020/01/31 23:42:11.6	175.170	0.150	-0.610	1.790
2020/01/31 23:42:11.7	175.170	0.160	-0.570	1.780
2020/01/31 23:42:11.8	175.170	0.160	-0.530	1.760
2020/01/31 23:42:11.9	175.180	0.170	-0.480	1.740
2020/01/31 23:42:12.0	175.180	0.170	-0.430	1.720
2020/01/31 23:42:12.1	175.190	0.170	-0.380	1.700
2020/01/31 23:42:12.2	175.200	0.170	-0.320	1.670
2020/01/31 23:42:12.3	175.210	0.160	-0.260	1.640
2020/01/31 23:42:12.4	175.220	0.160	-0.200	1.610
2020/01/31 23:42:12.5	175.230	0.150	-0.140	1.580
2020/01/31 23:42:12.6	175.250	0.140	-0.080	1.550
2020/01/31 23:42:12.7	175.260	0.130	-0.020	1.510
2020/01/31 23:42:12.8	175.280	0.120	0.030	1.480
2020/01/31 23:42:12.9	175.300	0.110	0.090	1.440
2020/01/31 23:42:13.0	175.320	0.100	0.140	1.410
2020/01/31 23:42:13.1	175.360	0.090	0.190	1.370
2020/01/31 23:42:13.2	175.380	0.070	0.240	1.340
2020/01/31 23:42:13.3	175.400	0.060	0.280	1.310
2020/01/31 23:42:13.4	175.430	0.050	0.320	1.270
2020/01/31 23:42:13.5	175.450	0.030	0.360	1.240
2020/01/31 23:42:13.6	175.480	0.020	0.390	1.210
2020/01/31 23:42:13.7	175.500	0.010	0.410	1.180
2020/01/31 23:42:13.8	175.530	-0.000	0.430	1.160
2020/01/31 23:42:13.9	175.560	-0.020	0.440	1.130
2020/01/31 23:42:14.0	175.580	-0.030	0.450	1.110
2020/01/31 23:42:14.1	175.610	-0.030	0.460	1.090
2020/01/31 23:42:14.2	175.640	-0.040	0.460	1.070
2020/01/31 23:42:14.3	175.660	-0.050	0.450	1.060
2020/01/31 23:42:14.4	175.690	-0.050	0.440	1.040
2020/01/31 23:42:14.5	175.710	-0.060	0.420	1.030
2020/01/31 23:42:14.6	175.730	-0.060	0.400	1.020
2020/01/31 23:42:14.7	175.760	-0.060	0.380	1.010
2020/01/31 23:42:14.8	175.780	-0.060	0.350	1.010
2020/01/31 23:42:14.9	175.790	-0.060	0.320	1.010
2020/01/31 23:42:15.0	175.810	-0.060	0.280	1.010
2020/01/31 23:42:15.1	175.820	-0.060	0.240	1.010
2020/01/31 23:42:15.2	175.830	-0.050	0.200	1.020
2020/01/31 23:42:15.3	175.850	-0.050	0.160	1.030
2020/01/31 23:42:15.4	175.860	-0.050	0.120	1.050
2020/01/31 23:42:15.5	175.870	-0.040	0.070	1.070
2020/01/31 23:42:15.6	175.880	-0.040	0.030	1.090
2020/01/31 23:42:15.7	175.880	-0.040	-0.020	1.120
2020/01/31 23:42:15.8	175.890	-0.030	-0.070	1.150
2020/01/31 23:42:15.9	175.890	-0.030	-0.110	1.180
2020/01/31 23:42:16.0	175.890	-0.030	-0.160	1.220
2020/01/31 23:42:16.1	175.900	-0.020	-0.200	1.260
2020/01/31 23:42:16.2	175.890	-0.020	-0.240	1.300
2020/01/31 23:42:16.3	175.890	-0.020	-0.290	1.350
2020/01/31 23:42:16.4	175.880	-0.020	-0.330	1.390
2020/01/31 23:42:16.5	175.860	-0.020	-0.380	1.440
2020/01/31 23:42:16.6	175.850	-0.020	-0.420	1.500
2020/01/31 23:42:16.7	175.830	-0.020	-0.470	1.550
2020/01/31 23:42:16.8	175.810	-0.020	-0.510	1.600
2020/01/31 23:42:16.9	175.780	-0.020	-0.560	1.660
2020/01/31 23:42:17.0	175.760	-0.020	-0.600	1.710
2020/01/31 23:42:17.1	175.730	-0.020	-0.640	1.770
2020/01/31 23:42:17.2	175.700	-0.010	-0.690	1.830
2020/01/31 23:42:17.3	175.670	-0.010	-0.730	1.880
2020/01/31 23:42:17.4	175.630	-0.010	-0.770	1.940
2020/01/31 23:42:17.5	175.590	-0.000	-0.810	1.990
2020/01/31 23:42:17.6	175.560	0.010	-0.850	2.050
2020/01/31 23:42:17.7	175.520	0.010	-0.890	2.100
2020/01/31 23:42:17.8	175.470	0.020	-0.920	2.150
2020/01/31 23:42:17.9	175.430	0.030	-0.960	2.200
2020/01/31 23:42:18.0	175.390	0.050	-0.990	2.250
2020/01/31 23:42:18.1	175.330	0.060	-1.020	2.300
2020/01/31 23:42:18.2	175.290	0.080	-1.050	2.350
2020/01/31 23:42:18.3	175.240	0.100	-1.070	2.390
2020/01/31 23:42:18.4	175.200	0.120	-1.100	2.420
2020/01/31 23:42:18.5	175.150	0.140	-1.110	2.460
2020/01/31 23:42:18.6	175.110	0.160	-1.130	2.490
2020/01/31 23:42:18.7	175.060	0.190	-1.140	2.510
2020/01/31 23:42:18.8	175.020	0.220	-1.140	2.530
2020/01/31 23:42:18.9	174.980	0.240	-1.140	2.550
2020/01/31 23:42:19.0	174.940	0.270	-1.140	2.560
2020/01/31 23:42:19.1	174.900	0.300	-1.120	2.560
2020/01/31 23:42:19.2	174.870	0.330	-1.110	2.560
2020/01/31 23:42:19.3	174.840	0.360	-1.080	2.550
2020/01/31 23:42:19.4	174.820	0.390	-1.050	2.530
2020/01/31 23:42:19.5	174.800	0.410	-1.010	2.500
2020/01/31 23:42:19.6	174.780	0.440	-0.970	2.470
2020/01/31 23:42:19.7	174.770	0.460	-0.920	2.430
2020/01/31 23:42:19.8	174.770	0.480	-0.860	2.390
2020/01/31 23:42:19.9	174.770	0.500	-0.800	2.340
2020/01/31 23:42:20.0	174.770	0.520	-0.730	2.290
2020/01/31 23:42:20.1	174.790	0.530	-0.660	2.230
2020/01/31 23:42:20.2	174.800	0.530	-0.580	2.170
2020/01/31 23:42:20.3	174.820	0.540	-0.500	2.100
2020/01/31 23:42:20.4	174.850	0.540	-0.410	2.040
2020/01/31 23:42:20.5	174.870	0.530	-0.330	1.980
2020/01/31 23:42:20.6	174.910	0.520	-0.240	1.910
2020/01/31 23:42:20.7	174.940	0.500	-0.150	1.840
2020/01/31 23:42:20.8	174.980	0.480	-0.060	1.780
2020/01/31 23:42:20.9	175.020	0.460	0.030	1.710
2020/01/31 23:42:21.0	175.060	0.430	0.110	1.650
2020/01/31 23:42:21.1	175.090	0.390	0.190	1.590
2020/01/31 23:42:21.2	175.140	0.350	0.270	1.530
2020/01/31 23:42:21.3	175.180	0.310	0.350	1.470
2020/01/31 23:42:21.4	175.220	0.260	0.420	1.420
2020/01/31 23:42:21.5	175.260	0.210	0.480	1.360
2020/01/31 23:42:21.6	175.310	0.160	0.540	1.320
2020/01/31 23:42:21.7	175.350	0.100	0.590	1.270
2020/01/31 23:42:21.8	175.380	0.050	0.630	1.230
2020/01/31 23:42:21.9	175.420	-0.010	0.670	1.200
2020/01/31 23:42:22.0	175.450	-0.070	0.700	1.160
2020/01/31 23:42:22.1	175.480	-0.130	0.710	1.140
2020/01/31 23:42:22.2	175.510	-0.200	0.720	1.110
2020/01/31 23:42:22.3	175.540	-0.260	0.720	1.100
2020/01/31 23:42:22.4	175.560	-0.310	0.720	1.090
2020/01/31 23:42:22.5	175.580	-0.370	0.700	1.080
2020/01/31 23:42:22.6	175.590	-0.430	0.670	1.080
2020/01/31 23:42:22.7	175.600	-0.480	0.640	1.090
2020/01/31 23:42:22.8	175.610	-0.530	0.600	1.100
2020/01/31 23:42:22.9	175.610	-0.580	0.550	1.120
2020/01/31 23:42:23.0	175.610	-0.620	0.490	1.140
2020/01/31 23:42:23.1	175.610	-0.660	0.420	1.170
2020/01/31 23:42:23.2	175.600	-0.690	0.360	1.200
2020/01/31 23:42:23.3	175.590	-0.720	0.280	1.240
2020/01/31 23:42:23.4	175.580	-0.750	0.210	1.280
2020/01/31 23:42:23.5	175.570	-0.770	0.130	1.320
2020/01/31 23:42:23.6	175.550	-0.780	0.040	1.370
2020/01/31 23:42:23.7	175.530	-0.790	-0.040	1.420
2020/01/31 23:42:23.8	175.510	-0.800	-0.120	1.470
2020/01/31 23:42:23.9	175.490	-0.800	-0.210	1.520
2020/01/31 23:42:24.0	175.470	-0.790	-0.290	1.570
2020/01/31 23:42:24.1	175.470	-0.780	-0.360	1.630
2020/01/31 23:42:24.2	175.440	-0.770	-0.440	1.680
2020/01/31 23:42:24.3	175.420	-0.750	-0.520	1.730
2020/01/31 23:42:24.4	175.400	-0.730	-0.590	1.780
2020/01/31 23:42:24.5	175.370	-0.700	-0.660	1.830
2020/01/31 23:42:24.6	175.350	-0.670	-0.720	1.880
2020/01/31 23:42:24.7	175.320	-0.640	-0.780	1.920
2020/01/31 23:42:24.8	175.300	-0.600	-0.840	1.960
2020/01/31 23:42:24.9	175.270	-0.560	-0.890	2.000
2020/01/31 23:42:25.0	175.240	-0.520	-0.930	2.040
2020/01/31 23:42:25.1	175.220	-0.470	-0.970	2.070
2020/01/31 23:42:25.2	175.200	-0.420	-1.000	2.100
2020/01/31 23:42:25.3	175.170	-0.370	-1.030	2.130
2020/01/31 23:42:25.4	175.150	-0.320	-1.050	2.150
2020/01/31 23:42:25.5	175.120	-0.270	-1.070	2.160
2020/01/31 23:42:25.6	175.090	-0.220	-1.080	2.180
2020/01/31 23:42:25.7	175.070	-0.160	-1.080	2.190
2020/01/31 23:42:25.8	175.040	-0.110	-1.080	2.200
2020/01/31 23:42:25.9	175.010	-0.060	-1.070	2.200
2020/01/31 23:42:26.0	174.990	-0.000	-1.060	2.200
2020/01/31 23:42:26.1	174.960	0.050	-1.040	2.200
2020/01/31 23:42:26.2	174.930	0.100	-1.010	2.190
2020/01/31 23:42:26.3	174.900	0.150	-0.980	2.180
2020/01/31 23:42:26.4	174.880	0.200	-0.950	2.170
2020/01/31 23:42:26.5	174.860	0.240	-0.910	2.150
2020/01/31 23:42:26.6	174.840	0.280	-0.870	2.130
2020/01/31 23:42:26.7	174.810	0.320	-0.820	2.110
2020/01/31 23:42:26.8	174.800	0.360	-0.760	2.080
2020/01/31 23:42:26.9	174.780	0.390	-0.710	2.050
2020/01/31 23:42:27.0	174.770	0.420	-0.650	2.020
2020/01/31 23:42:27.1	174.750	0.440	-0.590	1.980
2020/01/31 23:42:27.2	174.740	0.460	-0.520	1.940
2020/01/31 23:42:27.3	174.740	0.480	-0.450	1.900
2020/01/31 23:42:27.4	174.730	0.490	-0.370	1.860
2020/01/31 23:42:27.5	174.730	0.500	-0.300	1.820
2020/01/31 23:42:27.6	174.740	0.500	-0.220	1.770
2020/01/31 23:42:27.7	174.740	0.490	-0.140	1.730
2020/01/31 23:42:27.8	174.750	0.490	-0.070	1.680
2020/01/31 23:42:27.9	174.770	0.480	0.010	1.640
2020/01/31 23:42:28.0	174.780	0.460	0.090	1.590
2020/01/31 23:42:28.1	174.810	0.440	0.170	1.550
2020/01/31 23:42:28.2	174.830	0.420	0.240	1.500
2020/01/31 23:42:28.3	174.850	0.390	0.310	1.460
2020/01/31 23:42:28.4	174.870	0.360	0.380	1.420
2020/01/31 23:42:28.5	174.900	0.330	0.450	1.380
2020/01/31 23:42:28.6	174.920	0.290	0.510	1.350
2020/01/31 23:42:28.7	174.950	0.250	0.560	1.310
2020/01/31 23:42:28.8	174.980	0.210	0.610	1.280
2020/01/31 23:42:28.9	175.000	0.170	0.650	1.250
2020/01/31 23:42:29.0	175.030	0.130	0.690	1.220
2020/01/31 23:42:29.1	175.070	0.090	0.720	1.200
2020/01/31 23:42:29.2	175.100	0.050	0.740	1.170
2020/01/31 23:42:29.3	175.120	0.000	0.750	1.150
2020/01/31 23:42:29.4	175.150	-0.040	0.760	1.130
2020/01/31 23:42:29.5	175.170	-0.080	0.760	1.120
2020/01/31 23:42:29.6	175.200	-0.110	0.750	1.110
2020/01/31 23:42:29.7	175.220	-0.150	0.730	1.100
2020/01/31 23:42:29.8	175.240	-0.180	0.700	1.100
2020/01/31 23:42:29.9	175.260	-0.220	0.670	1.100
2020/01/31 23:42:30.0	175.280	-0.240	0.630	1.100
2020/01/31 23:42:30.1	175.300	-0.270	0.580	1.110
2020/01/31 23:42:30.2	175.310	-0.290	0.520	1.130
2020/01/31 23:42:30.3	175.320	-0.310	0.460	1.140
2020/01/31 23:42:30.4	175.330	-0.320	0.400	1.160
2020/01/31 23:42:30.5	175.340	-0.330	0.330	1.180
2020/01/31 23:42:30.6	175.340	-0.340	0.250	1.200
2020/01/31 23:42:30.7	175.340	-0.340	0.180	1.230
2020/01/31 23:42:30.8	175.340	-0.340	0.090	1.260
2020/01/31 23:42:30.9	175.340	-0.340	0.010	1.290
2020/01/31 23:42:31.0	175.330	-0.330	-0.070	1.320
2020/01/31 23:42:31.1	175.330	-0.310	-0.160	1.360
2020/01/31 23:42:31.2	175.320	-0.290	-0.240	1.390
2020/01/31 23:42:31.3	175.310	-0.270	-0.330	1.430
2020/01/31 23:42:31.4	175.300	-0.250	-0.410	1.460
2020/01/31 23:42:31.5	175.290	-0.220	-0.490	1.500
2020/01/31 23:42:31.6	175.280	-0.190	-0.570	1.540
2020/01/31 23:42:31.7	175.270	-0.160	-0.640	1.580
2020/01/31 23:42:31.8	175.250	-0.120	-0.710	1.610
2020/01/31 23:42:31.9	175.240	-0.080	-0.780	1.650
2020/01/31 23:42:32.0	175.220	-0.050	-0.840	1.690
2020/01/31 23:42:32.1	175.210	-0.010	-0.900	1.720
2020/01/31 23:42:32.2	175.190	0.030	-0.950	1.760
2020/01/31 23:42:32.3	175.180	0.070	-0.990	1.790
2020/01/31 23:42:32.4	175.160	0.110	-1.020	1.810
2020/01/31 23:42:32.5	175.150	0.150	-1.050	1.830
2020/01/31 23:42:32.6	175.140	0.180	-1.080	1.850
2020/01/31 23:42:32.7	175.130	0.220	-1.090	1.870
2020/01/31 23:42:32.8	175.120	0.250	-1.100	1.880
2020/01/31 23:42:32.9	175.120	0.280	-1.100	1.890
2020/01/31 23:42:33.0	175.120	0.300	-1.090	1.890
2020/01/31 23:42:33.1	175.110	0.330	-1.070	1.890
2020/01/31 23:42:33.2	175.110	0.350	-1.050	1.890
2020/01/31 23:42:33.3	175.110	0.360	-1.030	1.890
2020/01/31 23:42:33.4	175.110	0.380	-1.000	1.880
2020/01/31 23:42:33.5	175.110	0.390	-0.960	1.870
2020/01/31 23:42:33.6	175.120	0.400	-0.920	1.860
2020/01/31 23:42:33.7	175.120	0.400	-0.880	1.840
2020/01/31 23:42:33.8	175.120	0.400	-0.830	1.830
2020/01/31 23:42:33.9	175.130	0.400	-0.780	1.810
2020/01/31 23:42:34.0	175.130	0.390	-0.730	1.790
2020/01/31 23:42:34.1	175.130	0.380	-0.680	1.780
2020/01/31 23:42:34.2	175.130	0.370	-0.620	1.760
2020/01/31 23:42:34.3	175.140	0.360	-0.570	1.740
2020/01/31 23:42:34.4	175.140	0.340	-0.510	1.730
2020/01/31 23:42:34.5	175.140	0.320	-0.460	1.710
2020/01/31 23:42:34.6	175.140	0.300	-0.410	1.690
2020/01/31 23:42:34.7	175.140	0.280	-0.360	1.680
2020/01/31 23:42:34.8	175.140	0.260	-0.310	1.660
2020/01/31 23:42:34.9	175.140	0.240	-0.260	1.650
2020/01/31 23:42:35.0	175.140	0.210	-0.220	1.640
2020/01/31 23:42:35.1	175.150	0.190	-0.180	1.630
2020/01/31 23:42:35.2	175.150	0.170	-0.140	1.610
2020/01/31 23:42:35.3	175.140	0.140	-0.100	1.600
2020/01/31 23:42:35.4	175.140	0.120	-0.070	1.590
2020/01/31 23:42:35.5	175.140	0.100	-0.040	1.570
2020/01/31 23:42:35.6	175.130	0.070	-0.010	1.560
2020/01/31 23:42:35.7	175.130	0.050	0.010	1.550
2020/01/31 23:42:35.8	175.120	0.030	0.030	1.530
2020/01/31 23:42:35.9	175.120	0.010	0.050	1.520
2020/01/31 23:42:36.0	175.110	-0.010	0.070	1.510
2020/01/31 23:42:36.1	175.100	-0.030	0.080	1.510
2020/01/31 23:42:36.2	175.100	-0.040	0.080	1.500
2020/01/31 23:42:36.3	175.090	-0.060	0.090	1.490
2020/01/31 23:42:36.4	175.080	-0.070	0.090	1.490
2020/01/31 23:42:36.5	175.080	-0.090	0.090	1.490
2020/01/31 23:42:36.6	175.070	-0.100	0.080	1.490
2020/01/31 23:42:36.7	175.060	-0.110	0.070	1.490
2020/01/31 23:42:36.8	175.050	-0.110	0.060	1.500
2020/01/31 23:42:36.9	175.040	-0.120	0.040	1.500
2020/01/31 23:42:37.0	175.030	-0.120	0.020	1.510
2020/01/31 23:42:37.1	175.010	-0.130	-0.000	1.520
2020/01/31 23:42:37.2	175.000	-0.130	-0.030	1.530
2020/01/31 23:42:37.3	174.980	-0.130	-0.060	1.550
2020/01/31 23:42:37.4	174.970	-0.130	-0.090	1.560
2020/01/31 23:42:37.5	174.950	-0.120	-0.120	1.580
2020/01/31 23:42:37.6	174.940	-0.120	-0.160	1.600
2020/01/31 23:42:37.7	174.920	-0.120	-0.190	1.620
2020/01/31 23:42:37.8	174.910	-0.110	-0.220	1.630
2020/01/31 23:42:37.9	174.900	-0.110	-0.260	1.650
2020/01/31 23:42:38.0	174.880	-0.100	-0.290	1.670
2020/01/31 23:42:38.1	174.860	-0.100	-0.320	1.690
2020/01/31 23:42:38.2	174.850	-0.090	-0.350	1.700
2020/01/31 23:42:38.3	174.850	-0.090	-0.380	1.720
2020/01/31 23:42:38.4	174.840	-0.090	-0.400	1.730
2020/01/31 23:42:38.5	174.840	-0.080	-0.420	1.750
2020/01/31 23:42:38.6	174.840	-0.080	-0.430	1.760
2020/01/31 23:42:38.7	174.840	-0.080	-0.440	1.770
2020/01/31 23:42:38.8	174.840	-0.080	-0.450	1.780
2020/01/31 23:42:38.9	174.840	-0.080	-0.450	1.790
2020/01/31 23:42:39.0	174.850	-0.080	-0.450	1.800
2020/01/31 23:42:39.1	174.850	-0.080	-0.440	1.810
2020/01/31 23:42:39.2	174.860	-0.090	-0.430	1.820
2020/01/31 23:42:39.3	174.880	-0.090	-0.410	1.830
2020/01/31 23:42:39.4	174.900	-0.100	-0.390	1.830
2020/01/31 23:42:39.5	174.920	-0.100	-0.360	1.840
2020/01/31 23:42:39.6	174.940	-0.110	-0.330	1.840
2020/01/31 23:42:39.7	174.960	-0.120	-0.300	1.840
2020/01/31 23:42:39.8	174.990	-0.130	-0.260	1.840
2020/01/31 23:42:39.9	175.010	-0.140	-0.220	1.840
2020/01/31 23:42:40.0	175.040	-0.150	-0.180	1.840
2020/01/31 23:42:40.1	175.070	-0.160	-0.130	1.840
2020/01/31 23:42:40.2	175.100	-0.170	-0.090	1.830
2020/01/31 23:42:40.3	175.130	-0.170	-0.040	1.830
2020/01/31 23:42:40.4	175.160	-0.180	-0.000	1.820
2020/01/31 23:42:40.5	175.190	-0.190	0.040	1.810
2020/01/31 23:42:40.6	175.220	-0.200	0.080	1.810
2020/01/31 23:42:40.7	175.240	-0.200	0.120	1.800
2020/01/31 23:42:40.8	175.270	-0.210	0.150	1.790
2020/01/31 23:42:40.9	175.290	-0.210	0.180	1.780
2020/01/31 23:42:41.0	175.310	-0.210	0.210	1.780
2020/01/31 23:42:41.1	175.330	-0.210	0.230	1.770
2020/01/31 23:42:41.2	175.350	-0.200	0.240	1.770
2020/01/31 23:42:41.3	175.360	-0.200	0.250	1.760
2020/01/31 23:42:41.4	175.370	-0.190	0.250	1.760
2020/01/31 23:42:41.5	175.380	-0.180	0.250	1.760
2020/01/31 23:42:41.6	175.390	-0.170	0.240	1.760
2020/01/31 23:42:41.7	175.390	-0.160	0.220	1.760
2020/01/31 23:42:41.8	175.390	-0.140	0.200	1.760
2020/01/31 23:42:41.9	175.380	-0.120	0.180	1.760
2020/01/31 23:42:42.0	175.380	-0.100	0.150	1.760
2020/01/31 23:42:42.1	175.400	-0.080	0.110	1.770
2020/01/31 23:42:42.2	175.390	-0.060	0.070	1.770
2020/01/31 23:42:42.3	175.380	-0.030	0.030	1.770
2020/01/31 23:42:42.4	175.360	-0.010	-0.020	1.770
2020/01/31 23:42:42.5	175.350	0.020	-0.070	1.780
2020/01/31 23:42:42.6	175.330	0.050	-0.120	1.780
2020/01/31 23:42:42.7	175.310	0.070	-0.170	1.790
2020/01/31 23:42:42.8	175.290	0.100	-0.220	1.790
2020/01/31 23:42:42.9	175.260	0.130	-0.280	1.800
2020/01/31 23:42:43.0	175.240	0.150	-0.330	1.800
2020/01/31 23:42:43.1	175.200	0.180	-0.380	1.820
2020/01/31 23:42:43.2	175.180	0.200	-0.430	1.820
2020/01/31 23:42:43.3	175.150	0.220	-0.480	1.830
2020/01/31 23:42:43.4	175.130	0.240	-0.520	1.840
2020/01/31 23:42:43.5	175.100	0.260	-0.560	1.850
2020/01/31 23:42:43.6	175.070	0.280	-0.600	1.850
2020/01/31 23:42:43.7	175.050	0.290	-0.640	1.860
2020/01/31 23:42:43.8	175.030	0.300	-0.670	1.870
2020/01/31 23:42:43.9	175.010	0.310	-0.700	1.880
2020/01/31 23:42:44.0	174.990	0.310	-0.720	1.880
2020/01/31 23:42:44.1	174.970	0.310	-0.730	1.880
2020/01/31 23:42:44.2	174.960	0.310	-0.750	1.890
2020/01/31 23:42:44.3	174.950	0.300	-0.760	1.890
2020/01/31 23:42:44.4	174.940	0.290	-0.760	1.890
2020/01/31 23:42:44.5	174.930	0.280	-0.760	1.900
2020/01/31 23:42:44.6	174.930	0.260	-0.760	1.900
2020/01/31 23:42:44.7	174.930	0.240	-0.750	1.910
2020/01/31 23:42:44.8	174.930	0.220	-0.740	1.910
2020/01/31 23:42:44.9	174.930	0.190	-0.730	1.920
2020/01/31 23:42:45.0	174.930	0.160	-0.710	1.920
2020/01/31 23:42:45.1	174.930	0.130	-0.690	1.930
2020/01/31 23:42:45.2	174.930	0.100	-0.670	1.940
2020/01/31 23:42:45.3	174.940	0.060	-0.640	1.940
2020/01/31 23:42:45.4	174.940	0.030	-0.610	1.950
2020/01/31 23:42:45.5	174.950	-0.010	-0.580	1.960
2020/01/31 23:42:45.6	174.950	-0.050	-0.550	1.970
2020/01/31 23:42:45.7	174.950	-0.080	-0.520	1.980
2020/01/31 23:42:45.8	174.960	-0.120	-0.490	1.990
2020/01/31 23:42:45.9	174.960	-0.160	-0.460	2.000
2020/01/31 23:42:46.0	174.960	-0.190	-0.430	2.010
2020/01/31 23:42:46.1	174.960	-0.230	-0.400	2.020
2020/01/31 23:42:46.2	174.960	-0.260	-0.370	2.040
2020/01/31 23:42:46.3	174.960	-0.290	-0.350	2.050
2020/01/31 23:42:46.4	174.960	-0.310	-0.330	2.060
2020/01/31 23:42:46.5	174.960	-0.340	-0.300	2.070
2020/01/31 23:42:46.6	174.960	-0.360	-0.290	2.070
2020/01/31 23:42:46.7	174.960	-0.370	-0.270	2.080
2020/01/31 23:42:46.8	174.960	-0.390	-0.250	2.080
2020/01/31 23:42:46.9	174.960	-0.400	-0.240	2.080
2020/01/31 23:42:47.0	174.970	-0.410	-0.220	2.090
2020/01/31 23:42:47.1	174.970	-0.410	-0.210	2.080
2020/01/31 23:42:47.2	174.980	-0.420	-0.200	2.080
2020/01/31 23:42:47.3	174.990	-0.420	-0.190	2.070
2020/01/31 23:42:47.4	175.000	-0.410	-0.170	2.060
2020/01/31 23:42:47.5	175.010	-0.410	-0.160	2.050
2020/01/31 23:42:47.6	175.020	-0.400	-0.150	2.030
2020/01/31 23:42:47.7	175.030	-0.390	-0.140	2.010
2020/01/31 23:42:47.8	175.040	-0.370	-0.130	2.000
2020/01/31 23:42:47.9	175.060	-0.360	-0.120	1.980
2020/01/31 23:42:48.0	175.070	-0.340	-0.100	1.950
2020/01/31 23:42:48.1	175.100	-0.320	-0.090	1.930
2020/01/31 23:42:48.2	175.110	-0.300	-0.080	1.900
2020/01/31 23:42:48.3	175.130	-0.280	-0.070	1.880
2020/01/31 23:42:48.4	175.140	-0.260	-0.050	1.850
2020/01/31 23:42:48.5	175.160	-0.230	-0.040	1.820
2020/01/31 23:42:48.6	175.180	-0.210	-0.020	1.780
2020/01/31 23:42:48.7	175.190	-0.180	-0.010	1.750
2020/01/31 23:42:48.8	175.210	-0.160	0.000	1.720
2020/01/31 23:42:48.9	175.230	-0.130	0.010	1.680
2020/01/31 23:42:49.0	175.240	-0.110	0.020	1.650
2020/01/31 23:42:49.1	175.250	-0.080	0.030	1.620
2020/01/31 23:42:49.2	175.260	-0.050	0.040	1.580
2020/01/31 23:42:49.3	175.270	-0.020	0.040	1.550
2020/01/31 23:42:49.4	175.280	0.010	0.040	1.520
2020/01/31 23:42:49.5	175.280	0.030	0.040	1.490
2020/01/31 23:42:49.6	175.290	0.060	0.040	1.460
2020/01/31 23:42:49.7	175.290	0.090	0.030	1.430
2020/01/31 23:42:49.8	175.290	0.120	0.010	1.400
2020/01/31 23:42:49.9	175.290	0.150	-0.010	1.370
2020/01/31 23:42:50.0	175.290	0.180	-0.030	1.350
2020/01/31 23:42:50.1	175.290	0.210	-0.050	1.320
2020/01/31 23:42:50.2	175.280	0.240	-0.080	1.300
2020/01/31 23:42:50.3	175.270	0.270	-0.110	1.280
2020/01/31 23:42:50.4	175.260	0.300	-0.140	1.260
2020/01/31 23:42:50.5	175.240	0.330	-0.170	1.250
2020/01/31 23:42:50.6	175.230	0.360	-0.210	1.230
2020/01/31 23:42:50.7	175.210	0.380	-0.250	1.220
2020/01/31 23:42:50.8	175.190	0.410	-0.280	1.210
2020/01/31 23:42:50.9	175.170	0.440	-0.320	1.200
2020/01/31 23:42:51.0	175.150	0.460	-0.360	1.190
2020/01/31 23:42:51.1	175.130	0.480	-0.390	1.180
2020/01/31 23:42:51.2	175.110	0.500	-0.420	1.170
2020/01/31 23:42:51.3	175.090	0.520	-0.440	1.170
2020/01/31 23:42:51.4	175.080	0.530	-0.470	1.160
2020/01/31 23:42:51.5	175.060	0.540	-0.480	1.160
2020/01/31 23:42:51.6	175.050	0.550	-0.490	1.150
2020/01/31 23:42:51.7	175.040	0.560	-0.500	1.150
2020/01/31 23:42:51.8	175.030	0.560	-0.500	1.140
2020/01/31 23:42:51.9	175.020	0.550	-0.490	1.140
2020/01/31 23:42:52.0	175.020	0.550	-0.480	1.140
2020/01/31 23:42:52.1	175.010	0.540	-0.460	1.130
2020/01/31 23:42:52.2	175.020	0.520	-0.430	1.130
2020/01/31 23:42:52.3	175.030	0.500	-0.400	1.130
2020/01/31 23:42:52.4	175.050	0.470	-0.360	1.130
2020/01/31 23:42:52.5	175.070	0.450	-0.310	1.130
2020/01/31 23:42:52.6	175.090	0.410	-0.260	1.140
2020/01/31 23:42:52.7	175.120	0.370	-0.210	1.140
2020/01/31 23:42:52.8	175.150	0.330	-0.150	1.150
2020/01/31 23:42:52.9	175.190	0.290	-0.090	1.160
2020/01/31 23:42:53.0	175.230	0.240	-0.030	1.180
2020/01/31 23:42:53.1	175.280	0.190	0.040	1.200
2020/01/31 23:42:53.2	175.320	0.130	0.100	1.220
2020/01/31 23:42:53.3	175.360	0.080	0.160	1.240
2020/01/31 23:42:53.4	175.410	0.020	0.220	1.270
2020/01/31 23:42:53.5	175.450	-0.040	0.280	1.300
2020/01/31 23:42:53.6	175.490	-0.100	0.330	1.330
2020/01/31 23:42:53.7	175.530	-0.150	0.380	1.360
2020/01/31 23:42:53.8	175.570	-0.210	0.420	1.390
2020/01/31 23:42:53.9	175.610	-0.270	0.460	1.430
2020/01/31 23:42:54.0	175.670	-0.320	0.490	1.470
2020/01/31 23:42:54.1	175.700	-0.370	0.510	1.510
2020/01/31 23:42:54.2	175.730	-0.420	0.530	1.550
2020/01/31 23:42:54.3	175.760	-0.460	0.530	1.590
2020/01/31 23:42:54.4	175.780	-0.500	0.530	1.640
2020/01/31 23:42:54.5	175.800	-0.530	0.520	1.680
2020/01/31 23:42:54.6	175.810	-0.560	0.500	1.730
2020/01/31 23:42:54.7	175.820	-0.580	0.470	1.770
2020/01/31 23:42:54.8	175.820	-0.600	0.430	1.820
2020/01/31 23:42:54.9	175.820	-0.610	0.380	1.860
2020/01/31 23:42:55.0	175.810	-0.610	0.320	1.910
2020/01/31 23:42:55.1	175.800	-0.600	0.250	1.960
2020/01/31 23:42:55.2	175.790	-0.580	0.170	2.010
2020/01/31 23:42:55.3	175.760	-0.560	0.090	2.050
2020/01/31 23:42:55.4	175.740	-0.530	0.000	2.100
2020/01/31 23:42:55.5	175.710	-0.500	-0.090	2.140
2020/01/31 23:42:55.6	175.680	-0.450	-0.190	2.190
2020/01/31 23:42:55.7	175.640	-0.410	-0.300	2.230
2020/01/31 23:42:55.8	175.600	-0.350	-0.400	2.270
2020/01/31 23:42:55.9	175.560	-0.290	-0.510	2.300
2020/01/31 23:42:56.0	175.520	-0.230	-0.620	2.340
2020/01/31 23:42:56.1	175.490	-0.160	-0.720	2.370
2020/01/31 23:42:56.2	175.440	-0.090	-0.820	2.400
2020/01/31 23:42:56.3	175.400	-0.010	-0.920	2.420
2020/01/31 23:42:56.4	175.360	0.060	-1.010	2.430
2020/01/31 23:42:56.5	175.330	0.140	-1.090	2.450
2020/01/31 23:42:56.6	175.290	0.210	-1.170	2.450
2020/01/31 23:42:56.7	175.260	0.280	-1.230	2.450
2020/01/31 23:42:56.8	175.230	0.360	-1.290	2.450
2020/01/31 23:42:56.9	175.200	0.420	-1.330	2.440
2020/01/31 23:42:57.0	175.180	0.490	-1.360	2.420
2020/01/31 23:42:57.1	175.140	0.540	-1.380	2.400
2020/01/31 23:42:57.2	175.120	0.600	-1.390	2.370
2020/01/31 23:42:57.3	175.110	0.640	-1.380	2.340
2020/01/31 23:42:57.4	175.100	0.680	-1.370	2.310
2020/01/31 23:42:57.5	175.100	0.710	-1.340	2.270
2020/01/31 23:42:57.6	175.100	0.740	-1.300	2.230
2020/01/31 23:42:57.7	175.110	0.750	-1.240	2.190
2020/01/31 23:42:57.8	175.110	0.760	-1.180	2.140
2020/01/31 23:42:57.9	175.120	0.760	-1.110	2.100
2020/01/31 23:42:58.0	175.140	0.750	-1.030	2.050
2020/01/31 23:42:58.1	175.150	0.730	-0.950	2.000
2020/01/31 23:42:58.2	175.170	0.710	-0.860	1.950
2020/01/31 23:42:58.3	175.190	0.670	-0.760	1.900
2020/01/31 23:42:58.4	175.210	0.630	-0.660	1.850
2020/01/31 23:42:58.5	175.240	0.580	-0.560	1.800
2020/01/31 23:42:58.6	175.260	0.530	-0.450	1.750
2020/01/31 23:42:58.7	175.290	0.470	-0.350	1.700
2020/01/31 23:42:58.8	175.320	0.400	-0.250	1.660
2020/01/31 23:42:58.9	175.350	0.330	-0.150	1.620
2020/01/31 23:42:59.0	175.380	0.260	-0.050	1.570
2020/01/31 23:42:59.1	175.410	0.180	0.040	1.540
2020/01/31 23:42:59.2	175.440	0.100	0.130	1.500
2020/01/31 23:42:59.3	175.460	0.020	0.210	1.470
2020/01/31 23:42:59.4	175.490	-0.060	0.280	1.440
2020/01/31 23:42:59.5	175.510	-0.140	0.340	1.410
2020/01/31 23:42:59.6	175.530	-0.220	0.400	1.390
2020/01/31 23:42:59.7	175.550	-0.300	0.450	1.370
2020/01/31 23:42:59.8	175.560	-0.370	0.480	1.360
2020/01/31 23:42:59.9	175.570	-0.440	0.510	1.350
2020/01/31 23:43:00.0	175.580	-0.510	0.520	1.340
2020/01/31 23:43:00.1	175.600	-0.570	0.530	1.330
2020/01/31 23:43:00.2	175.600	-0.620	0.520	1.340
2020/01/31 23:43:00.3	175.610	-0.670	0.510	1.340
2020/01/31 23:43:00.4	175.610	-0.720	0.490	1.350
2020/01/31 23:43:00.5	175.600	-0.750	0.450	1.360
2020/01/31 23:43:00.6	175.600	-0.780	0.410	1.380
2020/01/31 23:43:00.7	175.590	-0.800	0.360	1.400
2020/01/31 23:43:00.8	175.580	-0.820	0.300	1.420
2020/01/31 23:43:00.9	175.570	-0.820	0.240	1.440
2020/01/31 23:43:01.0	175.560	-0.820	0.160	1.470
2020/01/31 23:43:01.1	175.540	-0.810	0.090	1.500
2020/01/31 23:43:01.2	175.520	-0.800	0.010	1.530
2020/01/31 23:43:01.3	175.500	-0.780	-0.080	1.560
2020/01/31 23:43:01.4	175.480	-0.750	-0.170	1.590
2020/01/31 23:43:01.5	175.460	-0.710	-0.260	1.620
2020/01/31 23:43:01.6	175.440	-0.670	-0.350	1.650
2020/01/31 23:43:01.7	175.420	-0.630	-0.430	1.690
2020/01/31 23:43:01.8	175.390	-0.580	-0.520	1.720
2020/01/31 23:43:01.9	175.370	-0.530	-0.600	1.750
2020/01/31 23:43:02.0	175.350	-0.470	-0.680	1.780
2020/01/31 23:43:02.1	175.310	-0.420	-0.750	1.810
2020/01/31 23:43:02.2	175.290	-0.360	-0.820	1.830
2020/01/31 23:43:02.3	175.270	-0.300	-0.880	1.860
2020/01/31 23:43:02.4	175.250	-0.240	-0.930	1.880
2020/01/31 23:43:02.5	175.230	-0.180	-0.980	1.910
2020/01/31 23:43:02.6	175.210	-0.120	-1.020	1.920
2020/01/31 23:43:02.7	175.190	-0.060	-1.040	1.940
2020/01/31 23:43:02.8	175.170	-0.010	-1.060	1.950
2020/01/31 23:43:02.9	175.160	0.050	-1.070	1.950
2020/01/31 23:43:03.0	175.150	0.100	-1.070	1.950
2020/01/31 23:43:03.1	175.120	0.140	-1.060	1.950
2020/01/31 23:43:03.2	175.110	0.190	-1.040	1.950
2020/01/31 23:43:03.3	175.100	0.230	-1.010	1.930
2020/01/31 23:43:03.4	175.100	0.260	-0.980	1.920
2020/01/31 23:43:03.5	175.090	0.290	-0.930	1.900
2020/01/31 23:43:03.6	175.090	0.310	-0.880	1.880
2020/01/31 23:43:03.7	175.090	0.340	-0.820	1.850
2020/01/31 23:43:03.8	175.090	0.350	-0.750	1.830
2020/01/31 23:43:03.9	175.080	0.360	-0.680	1.800
2020/01/31 23:43:04.0	175.080	0.370	-0.610	1.770
2020/01/31 23:43:04.1	175.070	0.370	-0.520	1.730
2020/01/31 23:43:04.2	175.070	0.370	-0.440	1.700
2020/01/31 23:43:04.3	175.060	0.360	-0.360	1.670
2020/01/31 23:43:04.4	175.060	0.350	-0.280	1.650
2020/01/31 23:43:04.5	175.060	0.340	-0.190	1.620
2020/01/31 23:43:04.6	175.050	0.330	-0.110	1.590
2020/01/31 23:43:04.7	175.050	0.310	-0.030	1.560
2020/01/31 23:43:04.8	175.040	0.290	0.040	1.540
2020/01/31 23:43:04.9	175.030	0.260	0.120	1.510
2020/01/31 23:43:05.0	175.030	0.240	0.190	1.490
2020/01/31 23:43:05.1	175.030	0.210	0.250	1.470
2020/01/31 23:43:05.2	175.030	0.190	0.320	1.440
2020/01/31 23:43:05.3	175.020	0.160	0.370	1.420
2020/01/31 23:43:05.4	175.010	0.130	0.420	1.400
2020/01/31 23:43:05.5	175.000	0.100	0.470	1.370
2020/01/31 23:43:05.6	175.000	0.070	0.510	1.350
2020/01/31 23:43:05.7	174.990	0.050	0.550	1.330
2020/01/31 23:43:05.8	174.990	0.020	0.580	1.310
2020/01/31 23:43:05.9	174.990	-0.010	0.600	1.280
2020/01/31 23:43:06.0	174.990	-0.040	0.620	1.260
2020/01/31 23:43:06.1	175.000	-0.060	0.640	1.240
2020/01/31 23:43:06.2	175.000	-0.090	0.650	1.210
2020/01/31 23:43:06.3	175.010	-0.120	0.660	1.190
2020/01/31 23:43:06.4	175.020	-0.140	0.660	1.170
2020/01/31 23:43:06.5	175.020	-0.160	0.660	1.150
2020/01/31 23:43:06.6	175.040	-0.190	0.650	1.130
2020/01/31 23:43:06.7	175.050	-0.210	0.640	1.120
2020/01/31 23:43:06.8	175.070	-0.230	0.630	1.100
2020/01/31 23:43:06.9	175.080	-0.250	0.610	1.090
2020/01/31 23:43:07.0	175.100	-0.260	0.600	1.080
2020/01/31 23:43:07.1	175.130	-0.280	0.580	1.070
2020/01/31 23:43:07.2	175.150	-0.290	0.550	1.060
2020/01/31 23:43:07.3	175.170	-0.310	0.530	1.060
2020/01/31 23:43:07.4	175.200	-0.320	0.500	1.060
2020/01/31 23:43:07.5	175.220	-0.330	0.460	1.060
2020/01/31 23:43:07.6	175.250	-0.340	0.430	1.060
2020/01/31 23:43:07.7	175.270	-0.340	0.390	1.070
2020/01/31 23:43:07.8	175.300	-0.350	0.360	1.080
2020/01/31 23:43:07.9	175.320	-0.350	0.320	1.090
2020/01/31 23:43:08.0	175.350	-0.350	0.270	1.100
2020/01/31 23:43:08.1	175.380	-0.340	0.230	1.120
2020/01/31 23:43:08.2	175.400	-0.340	0.180	1.140
2020/01/31 23:43:08.3	175.420	-0.330	0.130	1.160
2020/01/31 23:43:08.4	175.450	-0.320	0.080	1.170
2020/01/31 23:43:08.5	175.470	-0.310	0.030	1.190
2020/01/31 23:43:08.6	175.490	-0.300	-0.020	1.210
2020/01/31 23:43:08.7	175.510	-0.280	-0.080	1.230
2020/01/31 23:43:08.8	175.520	-0.260	-0.140	1.260
2020/01/31 23:43:08.9	175.540	-0.240	-0.200	1.280
2020/01/31 23:43:09.0	175.550	-0.220	-0.260	1.300
2020/01/31 23:43:09.1	175.560	-0.190	-0.330	1.320
2020/01/31 23:43:09.2	175.570	-0.160	-0.400	1.350
2020/01/31 23:43:09.3	175.580	-0.130	-0.460	1.370
2020/01/31 23:43:09.4	175.580	-0.100	-0.530	1.400
2020/01/31 23:43:09.5	175.580	-0.070	-0.600	1.420
2020/01/31 23:43:09.6	175.580	-0.030	-0.670	1.450
2020/01/31 23:43:09.7	175.580	0.010	-0.740	1.480
2020/01/31 23:43:09.8	175.570	0.040	-0.810	1.510
2020/01/31 23:43:09.9	175.560	0.080	-0.880	1.540
2020/01/31 23:43:10.0	175.550	0.120	-0.950	1.570
2020/01/31 23:43:10.1	175.530	0.160	-1.010	1.600
2020/01/31 23:43:10.2	175.510	0.200	-1.080	1.640
2020/01/31 23:43:10.3	175.490	0.250	-1.140	1.670
2020/01/31 23:43:10.4	175.470	0.290	-1.190	1.710
2020/01/31 23:43:10.5	175.450	0.330	-1.240	1.740
2020/01/31 23:43:10.6	175.420	0.360	-1.290	1.780
2020/01/31 23:43:10.7	175.400	0.400	-1.330	1.820
2020/01/31 23:43:10.8	175.370	0.440	-1.370	1.860
2020/01/31 23:43:10.9	175.350	0.470	-1.400	1.900
2020/01/31 23:43:11.0	175.320	0.500	-1.420	1.940
2020/01/31 23:43:11.1	175.300	0.530	-1.430	1.980
2020/01/31 23:43:11.2	175.270	0.560	-1.440	2.010
2020/01/31 23:43:11.3	175.240	0.580	-1.440	2.050
2020/01/31 23:43:11.4	175.220	0.600	-1.430	2.080
2020/01/31 23:43:11.5	175.190	0.620	-1.410	2.110
2020/01/31 23:43:11.6	175.170	0.630	-1.390	2.130
2020/01/31 23:43:11.7	175.150	0.640	-1.350	2.160
2020/01/31 23:43:11.8	175.130	0.650	-1.310	2.180
2020/01/31 23:43:11.9	175.110	0.650	-1.250	2.190
2020/01/31 23:43:12.0	175.090	0.640	-1.190	2.210
2020/01/31 23:43:12.1	175.080	0.640	-1.120	2.220
2020/01/31 23:43:12.2	175.070	0.620	-1.040	2.220
2020/01/31 23:43:12.3	175.060	0.610	-0.960	2.220
2020/01/31 23:43:12.4	175.050	0.590	-0.870	2.210
2020/01/31 23:43:12.5	175.050	0.560	-0.770	2.200
2020/01/31 23:43:12.6	175.040	0.530	-0.670	2.190
2020/01/31 23:43:12.7	175.040	0.500	-0.560	2.170
2020/01/31 23:43:12.8	175.040	0.460	-0.450	2.150
2020/01/31 23:43:12.9	175.040	0.420	-0.340	2.130
2020/01/31 23:43:13.0	175.050	0.380	-0.230	2.100
2020/01/31 23:43:13.1	175.060	0.330	-0.110	2.070
2020/01/31 23:43:13.2	175.070	0.280	-0.000	2.040
2020/01/31 23:43:13.3	175.080	0.230	0.100	2.010
2020/01/31 23:43:13.4	175.090	0.180	0.210	1.980
2020/01/31 23:43:13.5	175.100	0.130	0.310	1.950
2020/01/31 23:43:13.6	175.110	0.070	0.400	1.920
2020/01/31 23:43:13.7	175.120	0.020	0.490	1.890
2020/01/31 23:43:13.8	175.130	-0.030	0.570	1.870
2020/01/31 23:43:13.9	175.140	-0.090	0.640	1.840
2020/01/31 23:43:14.0	175.170	-0.140	0.700	1.820
2020/01/31 23:43:14.1	175.180	-0.190	0.760	1.800
2020/01/31 23:43:14.2	175.190	-0.240	0.800	1.780
2020/01/31 23:43:14.3	175.200	-0.280	0.830	1.770
2020/01/31 23:43:14.4	175.210	-0.330	0.850	1.750
2020/01/31 23:43:14.5	175.210	-0.360	0.860	1.740
2020/01/31 23:43:14.6	175.220	-0.400	0.860	1.740
2020/01/31 23:43:14.7	175.220	-0.430	0.850	1.730
2020/01/31 23:43:14.8	175.230	-0.460	0.830	1.730
2020/01/31 23:43:14.9	175.230	-0.480	0.800	1.730
2020/01/31 23:43:15.0	175.230	-0.500	0.760	1.730
2020/01/31 23:43:15.1	175.220	-0.510	0.710	1.730
2020/01/31 23:43:15.2	175.210	-0.520	0.650	1.730
2020/01/31 23:43:15.3	175.210	-0.530	0.590	1.740
2020/01/31 23:43:15.4	175.210	-0.530	0.530	1.740
2020/01/31 23:43:15.5	175.210	-0.530	0.460	1.750
2020/01/31 23:43:15.6	175.200	-0.520	0.380	1.750
2020/01/31 23:43:15.7	175.200	-0.510	0.310	1.760
2020/01/31 23:43:15.8	175.200	-0.500	0.230	1.760
2020/01/31 23:43:15.9	175.190	-0.490	0.160	1.770
2020/01/31 23:43:16.0	175.190	-0.470	0.080	1.770
2020/01/31 23:43:16.1	175.180	-0.450	0.010	1.780
2020/01/31 23:43:16.2	175.180	-0.420	-0.060	1.780
2020/01/31 23:43:16.3	175.180	-0.400	-0.130	1.790
2020/01/31 23:43:16.4	175.170	-0.370	-0.200	1.800
2020/01/31 23:43:16.5	175.170	-0.340	-0.270	1.810
2020/01/31 23:43:16.6	175.160	-0.310	-0.330	1.820
2020/01/31 23:43:16.7	175.150	-0.280	-0.380	1.830
2020/01/31 23:43:16.8	175.150	-0.250	-0.440	1.840
2020/01/31 23:43:16.9	175.140	-0.220	-0.490	1.850
2020/01/31 23:43:17.0	175.130	-0.180	-0.530	1.870
2020/01/31 23:43:17.1	175.120	-0.150	-0.580	1.880
2020/01/31 23:43:17.2	175.110	-0.120	-0.620	1.900
2020/01/31 23:43:17.3	175.100	-0.090	-0.650	1.920
2020/01/31 23:43:17.4	175.090	-0.060	-0.680	1.930
2020/01/31 23:43:17.5	175.070	-0.030	-0.710	1.950
2020/01/31 23:43:17.6	175.060	0.000	-0.740	1.960
2020/01/31 23:43:17.7	175.040	0.030	-0.760	1.980
2020/01/31 23:43:17.8	175.030	0.060	-0.780	1.990
2020/01/31 23:43:17.9	175.010	0.090	-0.790	2.000
2020/01/31 23:43:18.0	174.980	0.110	-0.800	2.010
2020/01/31 23:43:18.1	174.960	0.140	-0.820	2.010
2020/01/31 23:43:18.2	174.940	0.160	-0.820	2.020
2020/01/31 23:43:18.3	174.920	0.180	-0.830	2.020
2020/01/31 23:43:18.4	174.900	0.200	-0.830	2.010
2020/01/31 23:43:18.5	174.890	0.220	-0.830	2.010
2020/01/31 23:43:18.6	174.870	0.240	-0.830	2.000
2020/01/31 23:43:18.7	174.850	0.250	-0.820	1.980
2020/01/31 23:43:18.8	174.830	0.270	-0.810	1.970
2020/01/31 23:43:18.9	174.820	0.280	-0.800	1.950
2020/01/31 23:43:19.0	174.810	0.290	-0.780	1.930
2020/01/31 23:43:19.1	174.780	0.290	-0.770	1.900
2020/01/31 23:43:19.2	174.770	0.290	-0.750	1.870
2020/01/31 23:43:19.3	174.760	0.290	-0.720	1.850
2020/01/31 23:43:19.4	174.760	0.290	-0.700	1.820
2020/01/31 23:43:19.5	174.750	0.290	-0.670	1.790
2020/01/31 23:43:19.6	174.750	0.280	-0.640	1.760
2020/01/31 23:43:19.7	174.750	0.270	-0.610	1.740
2020/01/31 23:43:19.8	174.750	0.260	-0.570	1.710
2020/01/31 23:43:19.9	174.750	0.250	-0.530	1.690
2020/01/31 23:43:20.0	174.750	0.230	-0.490	1.670
2020/01/31 23:43:20.1	174.770	0.210	-0.450	1.650
2020/01/31 23:43:20.2	174.770	0.190	-0.410	1.630
2020/01/31 23:43:20.3	174.780	0.170	-0.370	1.620
2020/01/31 23:43:20.4	174.790	0.150	-0.330	1.610
2020/01/31 23:43:20.5	174.800	0.120	-0.290	1.600
2020/01/31 23:43:20.6	174.810	0.100	-0.250	1.590
2020/01/31 23:43:20.7	174.820	0.070	-0.210	1.580
2020/01/31 23:43:20.8	174.830	0.040	-0.170	1.570
2020/01/31 23:43:20.9	174.850	0.020	-0.130	1.560
2020/01/31 23:43:21.0	174.860	-0.010	-0.090	1.560
2020/01/31 23:43:21.1	174.880	-0.040	-0.060	1.550
2020/01/31 23:43:21.2	174.900	-0.060	-0.020	1.540
2020/01/31 23:43:21.3	174.910	-0.090	0.010	1.520
2020/01/31 23:43:21.4	174.930	-0.120	0.040	1.510
2020/01/31 23:43:21.5	174.950	-0.140	0.070	1.490
2020/01/31 23:43:21.6	174.970	-0.160	0.100	1.480
2020/01/31 23:43:21.7	175.000	-0.180	0.130	1.460
2020/01/31 23:43:21.8	175.020	-0.200	0.150	1.430
2020/01/31 23:43:21.9	175.040	-0.220	0.170	1.410
2020/01/31 23:43:22.0	175.070	-0.240	0.200	1.380
2020/01/31 23:43:22.1	175.090	-0.250	0.210	1.360
2020/01/31 23:43:22.2	175.110	-0.260	0.230	1.330
2020/01/31 23:43:22.3	175.140	-0.270	0.240	1.300
2020/01/31 23:43:22.4	175.160	-0.280	0.250	1.280
2020/01/31 23:43:22.5	175.180	-0.280	0.260	1.250
2020/01/31 23:43:22.6	175.210	-0.280	0.260	1.230
2020/01/31 23:43:22.7	175.230	-0.280	0.260	1.200
2020/01/31 23:43:22.8	175.250	-0.280	0.260	1.180
2020/01/31 23:43:22.9	175.270	-0.270	0.250	1.160
2020/01/31 23:43:23.0	175.290	-0.270	0.240	1.140
2020/01/31 23:43:23.1	175.310	-0.250	0.230	1.130
2020/01/31 23:43:23.2	175.330	-0.240	0.210	1.120
2020/01/31 23:43:23.3	175.350	-0.230	0.180	1.110
2020/01/31 23:43:23.4	175.360	-0.210	0.160	1.110
2020/01/31 23:43:23.5	175.370	-0.190	0.120	1.110
2020/01/31 23:43:23.6	175.380	-0.170	0.080	1.120
2020/01/31 23:43:23.7	175.390	-0.140	0.040	1.130
2020/01/31 23:43:23.8	175.390	-0.120	-0.000	1.140
2020/01/31 23:43:23.9	175.400	-0.090	-0.050	1.150
2020/01/31 23:43:24.0	175.400	-0.060	-0.100	1.170
2020/01/31 23:43:24.1	175.410	-0.030	-0.160	1.200
2020/01/31 23:43:24.2	175.400	-0.000	-0.210	1.220
2020/01/31 23:43:24.3	175.400	0.030	-0.270	1.250
2020/01/31 23:43:24.4	175.390	0.060	-0.330	1.280
2020/01/31 23:43:24.5	175.380	0.100	-0.390	1.310
2020/01/31 23:43:24.6	175.370	0.130	-0.440	1.340
2020/01/31 23:43:24.7	175.360	0.160	-0.500	1.360
2020/01/31 23:43:24.8	175.350	0.190	-0.550	1.390
2020/01/31 23:43:24.9	175.340	0.220	-0.600	1.420
2020/01/31 23:43:25.0	175.330	0.250	-0.650	1.450
2020/01/31 23:43:25.1	175.320	0.270	-0.680	1.480
2020/01/31 23:43:25.2	175.300	0.290	-0.720	1.510
2020/01/31 23:43:25.3	175.290	0.310	-0.750	1.540
2020/01/31 23:43:25.4	175.280	0.330	-0.770	1.560
2020/01/31 23:43:25.5	175.270	0.340	-0.780	1.590
2020/01/31 23:43:25.6	175.270	0.360	-0.790	1.620
2020/01/31 23:43:25.7	175.260	0.360	-0.790	1.640
2020/01/31 23:43:25.8	175.250	0.370	-0.790	1.670
2020/01/31 23:43:25.9	175.240	0.370	-0.770	1.700
2020/01/31 23:43:26.0	175.240	0.360	-0.750	1.720
2020/01/31 23:43:26.1	175.240	0.350	-0.730	1.740
2020/01/31 23:43:26.2	175.240	0.340	-0.700	1.770
2020/01/31 23:43:26.3	175.230	0.330	-0.660	1.790
2020/01/31 23:43:26.4	175.230	0.310	-0.620	1.810
2020/01/31 23:43:26.5	175.230	0.290	-0.570	1.840
2020/01/31 23:43:26.6	175.230	0.270	-0.520	1.860
2020/01/31 23:43:26.7	175.230	0.240	-0.470	1.880
2020/01/31 23:43:26.8	175.240	0.210	-0.410	1.900
2020/01/31 23:43:26.9	175.240	0.180	-0.350	1.920
2020/01/31 23:43:27.0	175.240	0.150	-0.290	1.930
2020/01/31 23:43:27.1	175.240	0.120	-0.230	1.950
2020/01/31 23:43:27.2	175.240	0.080	-0.170	1.970
2020/01/31 23:43:27.3	175.250	0.050	-0.110	1.980
2020/01/31 23:43:27.4	175.250	0.010	-0.050	2.000
2020/01/31 23:43:27.5	175.250	-0.030	0.000	2.010
2020/01/31 23:43:27.6	175.250	-0.060	0.050	2.020
2020/01/31 23:43:27.7	175.250	-0.100	0.100	2.040
2020/01/31 23:43:27.8	175.250	-0.130	0.150	2.050
2020/01/31 23:43:27.9	175.250	-0.160	0.190	2.060
2020/01/31 23:43:28.0	175.240	-0.200	0.220	2.070
2020/01/31 23:43:28.1	175.250	-0.220	0.250	2.070
2020/01/31 23:43:28.2	175.250	-0.250	0.270	2.080
2020/01/31 23:43:28.3	175.240	-0.280	0.290	2.090
2020/01/31 23:43:28.4	175.240	-0.300	0.300	2.090
2020/01/31 23:43:28.5	175.230	-0.320	0.310	2.090
2020/01/31 23:43:28.6	175.230	-0.330	0.310	2.090
2020/01/31 23:43:28.7	175.220	-0.350	0.310	2.090
2020/01/31 23:43:28.8	175.210	-0.350	0.300	2.090
2020/01/31 23:43:28.9	175.200	-0.360	0.280	2.090
2020/01/31 23:43:29.0	175.190	-0.360	0.260	2.080
2020/01/31 23:43:29.1	175.190	-0.360	0.240	2.080
2020/01/31 23:43:29.2	175.180	-0.360	0.200	2.070
2020/01/31 23:43:29.3	175.170	-0.350	0.170	2.060
2020/01/31 23:43:29.4	175.160	-0.340	0.130	2.050
2020/01/31 23:43:29.5	175.150	-0.330	0.090	2.030
2020/01/31 23:43:29.6	175.140	-0.310	0.050	2.010
2020/01/31 23:43:29.7	175.130	-0.290	-0.000	1.990
2020/01/31 23:43:29.8	175.120	-0.270	-0.050	1.970
2020/01/31 23:43:29.9	175.120	-0.250	-0.100	1.950
2020/01/31 23:43:30.0	175.110	-0.220	-0.150	1.920
2020/01/31 23:43:30.1	175.090	-0.200	-0.190	1.890
2020/01/31 23:43:30.2	175.090	-0.170	-0.240	1.860
2020/01/31 23:43:30.3	175.080	-0.140	-0.290	1.830
2020/01/31 23:43:30.4	175.080	-0.110	-0.330	1.790
2020/01/31 23:43:30.5	175.070	-0.080	-0.380	1.760
2020/01/31 23:43:30.6	175.070	-0.050	-0.420	1.720
2020/01/31 23:43:30.7	175.070	-0.020	-0.450	1.680
2020/01/31 23:43:30.8	175.070	0.010	-0.490	1.640
2020/01/31 23:43:30.9	175.070	0.040	-0.520	1.610
2020/01/31 23:43:31.0	175.070	0.070	-0.550	1.570
2020/01/31 23:43:31.1	175.060	0.100	-0.570	1.530
2020/01/31 23:43:31.2	175.070	0.130	-0.590	1.500
2020/01/31 23:43:31.3	175.070	0.150	-0.610	1.460
2020/01/31 23:43:31.4	175.080	0.180	-0.630	1.430
2020/01/31 23:43:31.5	175.090	0.200	-0.640	1.400
2020/01/31 23:43:31.6	175.100	0.230	-0.650	1.370
2020/01/31 23:43:31.7	175.110	0.250	-0.660	1.340
2020/01/31 23:43:31.8	175.110	0.270	-0.660	1.320
2020/01/31 23:43:31.9	175.120	0.290	-0.660	1.290
2020/01/31 23:43:32.0	175.130	0.300	-0.660	1.270
2020/01/31 23:43:32.1	175.130	0.320	-0.650	1.250
2020/01/31 23:43:32.2	175.140	0.330	-0.640	1.240
2020/01/31 23:43:32.3	175.150	0.340	-0.640	1.220
2020/01/31 23:43:32.4	175.160	0.350	-0.630	1.210
2020/01/31 23:43:32.5	175.160	0.360	-0.620	1.200
2020/01/31 23:43:32.6	175.170	0.370	-0.610	1.200
2020/01/31 23:43:32.7	175.170	0.370	-0.590	1.190
2020/01/31 23:43:32.8	175.170	0.370	-0.580	1.190
2020/01/31 23:43:32.9	175.170	0.370	-0.570	1.190
2020/01/31 23:43:33.0	175.170	0.370	-0.560	1.190
2020/01/31 23:43:33.1	175.180	0.370	-0.550	1.200
2020/01/31 23:43:33.2	175.170	0.360	-0.530	1.200
2020/01/31 23:43:33.3	175.170	0.360	-0.520	1.210
2020/01/31 23:43:33.4	175.170	0.350	-0.500	1.210
2020/01/31 23:43:33.5	175.170	0.340	-0.490	1.220
2020/01/31 23:43:33.6	175.170	0.330	-0.470	1.220
2020/01/31 23:43:33.7	175.170	0.310	-0.450	1.230
2020/01/31 23:43:33.8	175.170	0.300	-0.430	1.240
2020/01/31 23:43:33.9	175.170	0.280	-0.410	1.250
2020/01/31 23:43:34.0	175.180	0.260	-0.380	1.250
2020/01/31 23:43:34.1	175.190	0.240	-0.360	1.270
2020/01/31 23:43:34.2	175.200	0.210	-0.340	1.280
2020/01/31 23:43:34.3	175.210	0.190	-0.310	1.290
2020/01/31 23:43:34.4	175.210	0.160	-0.280	1.300
2020/01/31 23:43:34.5	175.220	0.140	-0.250	1.320
2020/01/31 23:43:34.6	175.230	0.110	-0.220	1.340
2020/01/31 23:43:34.7	175.250	0.080	-0.180	1.350
2020/01/31 23:43:34.8	175.260	0.050	-0.150	1.370
2020/01/31 23:43:34.9	175.270	0.010	-0.110	1.390
2020/01/31 23:43:35.0	175.290	-0.020	-0.080	1.410
2020/01/31 23:43:35.1	175.320	-0.050	-0.040	1.440
2020/01/31 23:43:35.2	175.330	-0.080	-0.000	1.460
2020/01/31 23:43:35.3	175.350	-0.110	0.030	1.480
2020/01/31 23:43:35.4	175.370	-0.150	0.070	1.510
2020/01/31 23:43:35.5	175.390	-0.180	0.100	1.530
2020/01/31 23:43:35.6	175.410	-0.210	0.140	1.550
2020/01/31 23:43:35.7	175.420	-0.230	0.170	1.580
2020/01/31 23:43:35.8	175.440	-0.260	0.200	1.600
2020/01/31 23:43:35.9	175.460	-0.280	0.220	1.630
2020/01/31 23:43:36.0	175.480	-0.310	0.250	1.650
2020/01/31 23:43:36.1	175.480	-0.330	0.260	1.680
2020/01/31 23:43:36.2	175.500	-0.340	0.280	1.700
2020/01/31 23:43:36.3	175.510	-0.360	0.290	1.720
2020/01/31 23:43:36.4	175.530	-0.370	0.300	1.750
2020/01/31 23:43:36.5	175.540	-0.370	0.310	1.770
2020/01/31 23:43:36.6	175.540	-0.380	0.310	1.790
2020/01/31 23:43:36.7	175.550	-0.370	0.300	1.810
2020/01/31 23:43:36.8	175.560	-0.370	0.290	1.820
2020/01/31 23:43:36.9	175.560	-0.360	0.280	1.840
2020/01/31 23:43:37.0	175.560	-0.350	0.260	1.850
2020/01/31 23:43:37.1	175.550	-0.330	0.230	1.860
2020/01/31 23:43:37.2	175.540	-0.310	0.200	1.870
2020/01/31 23:43:37.3	175.540	-0.280	0.160	1.870
2020/01/31 23:43:37.4	175.540	-0.250	0.120	1.870
2020/01/31 23:43:37.5	175.530	-0.220	0.080	1.870
2020/01/31 23:43:37.6	175.520	-0.180	0.030	1.860
2020/01/31 23:43:37.7	175.510	-0.150	-0.030	1.860
2020/01/31 23:43:37.8	175.510	-0.110	-0.080	1.850
2020/01/31 23:43:37.9	175.500	-0.060	-0.140	1.840
2020/01/31 23:43:38.0	175.490	-0.020	-0.200	1.820
2020/01/31 23:43:38.1	175.470	0.020	-0.260	1.810
2020/01/31 23:43:38.2	175.460	0.060	-0.310	1.790
2020/01/31 23:43:38.3	175.450	0.110	-0.370	1.780
2020/01/31 23:43:38.4	175.440	0.150	-0.430	1.760
2020/01/31 23:43:38.5	175.430	0.190	-0.480	1.750
2020/01/31 23:43:38.6	175.420	0.220	-0.530	1.740
2020/01/31 23:43:38.7	175.410	0.260	-0.570	1.730
2020/01/31 23:43:38.8	175.410	0.290	-0.620	1.720
2020/01/31 23:43:38.9	175.400	0.320	-0.650	1.710
2020/01/31 23:43:39.0	175.400	0.340	-0.690	1.700
2020/01/31 23:43:39.1	175.390	0.370	-0.710	1.700
2020/01/31 23:43:39.2	175.390	0.380	-0.740	1.700
2020/01/31 23:43:39.3	175.380	0.390	-0.760	1.700
2020/01/31 23:43:39.4	175.370	0.400	-0.770	1.700
2020/01/31 23:43:39.5	175.370	0.410	-0.780	1.700
2020/01/31 23:43:39.6	175.360	0.400	-0.780	1.700
2020/01/31 23:43:39.7	175.360	0.400	-0.780	1.710
2020/01/31 23:43:39.8	175.350	0.390	-0.770	1.720
2020/01/31 23:43:39.9	175.350	0.370	-0.750	1.720
2020/01/31 23:43:40.0	175.340	0.350	-0.740	1.730
2020/01/31 23:43:40.1	175.320	0.330	-0.710	1.740
2020/01/31 23:43:40.2	175.320	0.300	-0.680	1.740
2020/01/31 23:43:40.3	175.310	0.270	-0.650	1.750
2020/01/31 23:43:40.4	175.310	0.240	-0.610	1.750
2020/01/31 23:43:40.5	175.310	0.200	-0.570	1.750
2020/01/31 23:43:40.6	175.310	0.160	-0.530	1.750
2020/01/31 23:43:40.7	175.310	0.120	-0.480	1.750
2020/01/31 23:43:40.8	175.310	0.080	-0.430	1.750
2020/01/31 23:43:40.9	175.310	0.040	-0.380	1.740
2020/01/31 23:43:41.0	175.310	-0.010	-0.320	1.730
2020/01/31 23:43:41.1	175.310	-0.050	-0.270	1.720
2020/01/31 23:43:41.2	175.320	-0.100	-0.220	1.710
2020/01/31 23:43:41.3	175.320	-0.140	-0.170	1.690
2020/01/31 23:43:41.4	175.320	-0.180	-0.120	1.680
2020/01/31 23:43:41.5	175.320	-0.230	-0.070	1.660
2020/01/31 23:43:41.6	175.320	-0.260	-0.030	1.640
2020/01/31 23:43:41.7	175.320	-0.300	0.010	1.620
2020/01/31 23:43:41.8	175.320	-0.330	0.040	1.600
2020/01/31 23:43:41.9	175.320	-0.370	0.070	1.580
2020/01/31 23:43:42.0	175.330	-0.390	0.090	1.560
2020/01/31 23:43:42.1	175.330	-0.420	0.110	1.540
2020/01/31 23:43:42.2	175.330	-0.430	0.120	1.530
2020/01/31 23:43:42.3	175.320	-0.450	0.130	1.510
2020/01/31 23:43:42.4	175.320	-0.460	0.120	1.500
2020/01/31 23:43:42.5	175.310	-0.470	0.120	1.490
2020/01/31 23:43:42.6	175.300	-0.470	0.100	1.490
2020/01/31 23:43:42.7	175.300	-0.470	0.080	1.490
2020/01/31 23:43:42.8	175.290	-0.470	0.060	1.480
2020/01/31 23:43:42.9	175.280	-0.460	0.030	1.490
2020/01/31 23:43:43.0	175.280	-0.450	-0.000	1.490
2020/01/31 23:43:43.1	175.280	-0.430	-0.040	1.500
2020/01/31 23:43:43.2	175.270	-0.410	-0.080	1.510
2020/01/31 23:43:43.3	175.260	-0.390	-0.120	1.520
2020/01/31 23:43:43.4	175.260	-0.370	-0.170	1.530
2020/01/31 23:43:43.5	175.250	-0.340	-0.210	1.540
2020/01/31 23:43:43.6	175.240	-0.310	-0.260	1.550
2020/01/31 23:43:43.7	175.240	-0.280	-0.300	1.560
2020/01/31 23:43:43.8	175.230	-0.250	-0.350	1.570
2020/01/31 23:43:43.9	175.230	-0.220	-0.390	1.570
2020/01/31 23:43:44.0	175.220	-0.180	-0.430	1.580
2020/01/31 23:43:44.1	175.220	-0.150	-0.460	1.590
2020/01/31 23:43:44.2	175.210	-0.120	-0.500	1.590
2020/01/31 23:43:44.3	175.210	-0.090	-0.530	1.590
2020/01/31 23:43:44.4	175.210	-0.050	-0.550	1.590
2020/01/31 23:43:44.5	175.210	-0.020	-0.580	1.580
2020/01/31 23:43:44.6	175.210	0.010	-0.590	1.580
2020/01/31 23:43:44.7	175.210	0.040	-0.610	1.570
2020/01/31 23:43:44.8	175.210	0.060	-0.620	1.560
2020/01/31 23:43:44.9	175.210	0.090	-0.620	1.550
2020/01/31 23:43:45.0	175.210	0.110	-0.620	1.540
2020/01/31 23:43:45.1	175.200	0.130	-0.620	1.520
2020/01/31 23:43:45.2	175.200	0.150	-0.620	1.510
2020/01/31 23:43:45.3	175.190	0.170	-0.610	1.510
2020/01/31 23:43:45.4	175.190	0.180	-0.600	1.500
2020/01/31 23:43:45.5	175.190	0.190	-0.590	1.490
2020/01/31 23:43:45.6	175.180	0.200	-0.570	1.490
2020/01/31 23:43:45.7	175.180	0.210	-0.560	1.490
2020/01/31 23:43:45.8	175.170	0.220	-0.540	1.490
2020/01/31 23:43:45.9	175.160	0.220	-0.520	1.490
2020/01/31 23:43:46.0	175.150	0.230	-0.500	1.500
2020/01/31 23:43:46.1	175.130	0.230	-0.490	1.500
2020/01/31 23:43:46.2	175.120	0.230	-0.470	1.510
2020/01/31 23:43:46.3	175.110	0.230	-0.460	1.520
2020/01/31 23:43:46.4	175.090	0.220	-0.440	1.540
2020/01/31 23:43:46.5	175.080	0.220	-0.430	1.550
2020/01/31 23:43:46.6	175.070	0.220	-0.410	1.560
2020/01/31 23:43:46.7	175.060	0.210	-0.400	1.580
2020/01/31 23:43:46.8	175.050	0.200	-0.390	1.590
2020/01/31 23:43:46.9	175.040	0.190	-0.370	1.610
2020/01/31 23:43:47.0	175.030	0.180	-0.360	1.620
2020/01/31 23:43:47.1	175.020	0.170	-0.340	1.630
2020/01/31 23:43:47.2	175.020	0.150	-0.320	1.650
2020/01/31 23:43:47.3	175.020	0.130	-0.300	1.660
2020/01/31 23:43:47.4	175.020	0.120	-0.280	1.670
2020/01/31 23:43:47.5	175.030	0.100	-0.250	1.680
2020/01/31 23:43:47.6	175.040	0.080	-0.220	1.690
2020/01/31 23:43:47.7	175.050	0.050	-0.190	1.700
2020/01/31 23:43:47.8	175.060	0.030	-0.160	1.710
2020/01/31 23:43:47.9	175.070	0.000	-0.130	1.720
2020/01/31 23:43:48.0	175.090	-0.020	-0.090	1.730
2020/01/31 23:43:48.1	175.110	-0.050	-0.060	1.740
2020/01/31 23:43:48.2	175.130	-0.080	-0.030	1.750
2020/01/31 23:43:48.3	175.150	-0.100	0.010	1.760
2020/01/31 23:43:48.4	175.170	-0.130	0.050	1.770
2020/01/31 23:43:48.5	175.190	-0.160	0.080	1.790
2020/01/31 23:43:48.6	175.220	-0.190	0.120	1.800
2020/01/31 23:43:48.7	175.240	-0.210	0.150	1.810
2020/01/31 23:43:48.8	175.260	-0.240	0.180	1.830
2020/01/31 23:43:48.9	175.280	-0.260	0.210	1.840
2020/01/31 23:43:49.0	175.310	-0.290	0.230	1.860
2020/01/31 23:43:49.1	175.330	-0.310	0.250	1.880
2020/01/31 23:43:49.2	175.350	-0.330	0.270	1.900
2020/01/31 23:43:49.3	175.360	-0.340	0.280	1.920
2020/01/31 23:43:49.4	175.370	-0.360	0.290	1.940
2020/01/31 23:43:49.5	175.380	-0.370	0.300	1.960
2020/01/31 23:43:49.6	175.390	-0.370	0.290	1.980
2020/01/31 23:43:49.7	175.390	-0.380	0.290	2.010
2020/01/31 23:43:49.8	175.390	-0.380	0.280	2.030
2020/01/31 23:43:49.9	175.380	-0.380	0.270	2.060
2020/01/31 23:43:50.0	175.380	-0.370	0.250	2.080
2020/01/31 23:43:50.1	175.360	-0.360	0.220	2.110
2020/01/31 23:43:50.2	175.350	-0.350	0.200	2.130
2020/01/31 23:43:50.3	175.330	-0.330	0.170	2.150
2020/01/31 23:43:50.4	175.320	-0.310	0.140	2.170
2020/01/31 23:43:50.5	175.300	-0.280	0.110	2.190
2020/01/31 23:43:50.6	175.270	-0.250	0.080	2.200
2020/01/31 23:43:50.7	175.250	-0.220	0.050	2.210
2020/01/31 23:43:50.8	175.220	-0.190	0.020	2.220
2020/01/31 23:43:50.9	175.200	-0.150	-0.010	2.220
2020/01/31 23:43:51.0	175.170	-0.110	-0.050	2.220
2020/01/31 23:43:51.1	175.140	-0.070	-0.080	2.220
2020/01/31 23:43:51.2	175.110	-0.030	-0.100	2.210
2020/01/31 23:43:51.3	175.090	0.010	-0.130	2.200
2020/01/31 23:43:51.4	175.070	0.050	-0.150	2.190
2020/01/31 23:43:51.5	175.040	0.100	-0.180	2.170
2020/01/31 23:43:51.6	175.030	0.140	-0.190	2.150
2020/01/31 23:43:51.7	175.010	0.180	-0.210	2.120
2020/01/31 23:43:51.8	175.000	0.220	-0.220	2.090
2020/01/31 23:43:51.9	174.990	0.260	-0.230	2.050
2020/01/31 23:43:52.0	174.990	0.290	-0.240	2.010
2020/01/31 23:43:52.1	174.980	0.330	-0.240	1.970
2020/01/31 23:43:52.2	174.990	0.360	-0.240	1.920
2020/01/31 23:43:52.3	175.000	0.380	-0.240	1.880
2020/01/31 23:43:52.4	175.010	0.400	-0.240	1.830
2020/01/31 23:43:52.5	175.030	0.420	-0.240	1.780
2020/01/31 23:43:52.6	175.050	0.440	-0.230	1.730
2020/01/31 23:43:52.7	175.080	0.450	-0.230	1.680
2020/01/31 23:43:52.8	175.100	0.450	-0.230	1.630
2020/01/31 23:43:52.9	175.130	0.450	-0.220	1.580
2020/01/31 23:43:53.0	175.160	0.450	-0.220	1.540
2020/01/31 23:43:53.1	175.220	0.440	-0.210	1.490
2020/01/31 23:43:53.2	175.250	0.430	-0.210	1.460
2020/01/31 23:43:53.3	175.280	0.410	-0.210	1.420
2020/01/31 23:43:53.4	175.310	0.390	-0.210	1.390
2020/01/31 23:43:53.5	175.340	0.370	-0.210	1.360
2020/01/31 23:43:53.6	175.370	0.350	-0.220	1.340
2020/01/31 23:43:53.7	175.400	0.320	-0.220	1.320
2020/01/31 23:43:53.8	175.420	0.290	-0.230	1.310
2020/01/31 23:43:53.9	175.440	0.260	-0.240	1.300
2020/01/31 23:43:54.0	175.460	0.230	-0.260	1.290
2020/01/31 23:43:54.1	175.480	0.190	-0.280	1.290
2020/01/31 23:43:54.2	175.490	0.160	-0.300	1.300
2020/01/31 23:43:54.3	175.500	0.130	-0.320	1.310
2020/01/31 23:43:54.4	175.500	0.100	-0.350	1.320
2020/01/31 23:43:54.5	175.490	0.070	-0.380	1.340
2020/01/31 23:43:54.6	175.490	0.040	-0.410	1.370
2020/01/31 23:43:54.7	175.480	0.010	-0.440	1.400
2020/01/31 23:43:54.8	175.460	-0.020	-0.480	1.430
2020/01/31 23:43:54.9	175.440	-0.040	-0.510	1.470
2020/01/31 23:43:55.0	175.410	-0.060	-0.550	1.520
2020/01/31 23:43:55.1	175.380	-0.070	-0.590	1.560
2020/01/31 23:43:55.2	175.360	-0.090	-0.630	1.600
2020/01/31 23:43:55.3	175.330	-0.100	-0.670	1.650
2020/01/31 23:43:55.4	175.300	-0.100	-0.710	1.690
2020/01/31 23:43:55.5	175.270	-0.110	-0.740	1.730
2020/01/31 23:43:55.6	175.240	-0.110	-0.780	1.780
2020/01/31 23:43:55.7	175.210	-0.110	-0.810	1.820
2020/01/31 23:43:55.8	175.180	-0.100	-0.840	1.850
2020/01/31 23:43:55.9	175.150	-0.090	-0.870	1.890
2020/01/31 23:43:56.0	175.100	-0.080	-0.900	1.920
2020/01/31 23:43:56.1	175.070	-0.070	-0.910	1.950
2020/01/31 23:43:56.2	175.050	-0.060	-0.930	1.970
2020/01/31 23:43:56.3	175.020	-0.040	-0.940	2.000
2020/01/31 23:43:56.4	175.000	-0.020	-0.940	2.020
2020/01/31 23:43:56.5	174.980	-0.010	-0.940	2.030
2020/01/31 23:43:56.6	174.960	0.010	-0.930	2.050
2020/01/31 23:43:56.7	174.950	0.030	-0.920	2.060
2020/01/31 23:43:56.8	174.940	0.050	-0.900	2.060
2020/01/31 23:43:56.9	174.930	0.070	-0.880	2.070
2020/01/31 23:43:57.0	174.920	0.080	-0.840	2.060
2020/01/31 23:43:57.1	174.920	0.100	-0.800	2.060
2020/01/31 23:43:57.2	174.920	0.120	-0.760	2.050
2020/01/31 23:43:57.3	174.920	0.130	-0.710	2.040
2020/01/31 23:43:57.4	174.920	0.140	-0.650	2.020
2020/01/31 23:43:57.5	174.930	0.150	-0.590	2.000
2020/01/31 23:43:57.6	174.940	0.150	-0.530	1.980
2020/01/31 23:43:57.7	174.960	0.160	-0.460	1.960
2020/01/31 23:43:57.8	174.970	0.160	-0.390	1.930
2020/01/31 23:43:57.9	174.990	0.160	-0.320	1.900
2020/01/31 23:43:58.0	175.010	0.160	-0.250	1.860
2020/01/31 23:43:58.1	175.050	0.150	-0.180	1.830
2020/01/31 23:43:58.2	175.070	0.140	-0.110	1.790
2020/01/31 23:43:58.3	175.100	0.130	-0.030	1.750
2020/01/31 23:43:58.4	175.120	0.120	0.040	1.710
2020/01/31 23:43:58.5	175.150	0.110	0.100	1.670
2020/01/31 23:43:58.6	175.170	0.090	0.170	1.630
2020/01/31 23:43:58.7	175.200	0.070	0.230	1.580
2020/01/31 23:43:58.8	175.220	0.050	0.280	1.540
2020/01/31 23:43:58.9	175.250	0.030	0.320	1.500
2020/01/31 23:43:59.0	175.270	0.010	0.360	1.460
2020/01/31 23:43:59.1	175.300	-0.010	0.400	1.420
2020/01/31 23:43:59.2	175.320	-0.030	0.420	1.380
2020/01/31 23:43:59.3	175.340	-0.050	0.440	1.350
2020/01/31 23:43:59.4	175.350	-0.070	0.450	1.320
2020/01/31 23:43:59.5	175.360	-0.090	0.450	1.290
2020/01/31 23:43:59.6	175.370	-0.110	0.440	1.270
2020/01/31 23:43:59.7	175.370	-0.120	0.420	1.260
2020/01/31 23:43:59.8	175.370	-0.140	0.390	1.240
2020/01/31 23:43:59.9	175.370	-0.150	0.360	1.240
2020/01/31 23:44:00.0	175.360	-0.160	0.320	1.230
2020/01/31 23:44:00.1	175.360	-0.170	0.270	1.240
2020/01/31 23:44:00.2	175.350	-0.180	0.220	1.240
2020/01/31 23:44:00.3	175.340	-0.190	0.160	1.250
2020/01/31 23:44:00.4	175.320	-0.190	0.090	1.270
2020/01/31 23:44:00.5	175.310	-0.190	0.030	1.280
2020/01/31 23:44:00.6	175.290	-0.190	-0.040	1.300
2020/01/31 23:44:00.7	175.270	-0.190	-0.110	1.320
2020/01/31 23:44:00.8	175.250	-0.190	-0.180	1.350
2020/01/31 23:44:00.9	175.230	-0.180	-0.250	1.370
2020/01/31 23:44:01.0	175.210	-0.180	-0.310	1.390
2020/01/31 23:44:01.1	175.180	-0.170	-0.370	1.420
2020/01/31 23:44:01.2	175.160	-0.170	-0.430	1.450
2020/01/31 23:44:01.3	175.150	-0.160	-0.490	1.480
2020/01/31 23:44:01.4	175.130	-0.150	-0.540	1.510
2020/01/31 23:44:01.5	175.110	-0.140	-0.580	1.540
2020/01/31 23:44:01.6	175.100	-0.130	-0.620	1.570
2020/01/31 23:44:01.7	175.080	-0.130	-0.650	1.590
2020/01/31 23:44:01.8	175.070	-0.120	-0.680	1.620
2020/01/31 23:44:01.9	175.050	-0.110	-0.700	1.650
2020/01/31 23:44:02.0	175.040	-0.110	-0.710	1.680
2020/01/31 23:44:02.1	175.030	-0.110	-0.710	1.710
2020/01/31 23:44:02.2	175.010	-0.100	-0.710	1.740
2020/01/31 23:44:02.3	175.000	-0.100	-0.710	1.760
2020/01/31 23:44:02.4	175.000	-0.100	-0.700	1.790
2020/01/31 23:44:02.5	174.990	-0.100	-0.680	1.810
2020/01/31 23:44:02.6	174.980	-0.110	-0.660	1.840
2020/01/31 23:44:02.7	174.980	-0.110	-0.630	1.860
2020/01/31 23:44:02.8	174.980	-0.120	-0.600	1.870
2020/01/31 23:44:02.9	174.980	-0.130	-0.560	1.890
2020/01/31 23:44:03.0	174.980	-0.140	-0.520	1.910
2020/01/31 23:44:03.1	174.980	-0.160	-0.480	1.930
2020/01/31 23:44:03.2	174.980	-0.170	-0.440	1.940
2020/01/31 23:44:03.3	174.990	-0.190	-0.390	1.960
2020/01/31 23:44:03.4	175.000	-0.200	-0.340	1.970
2020/01/31 23:44:03.5	175.010	-0.220	-0.290	1.980
2020/01/31 23:44:03.6	175.020	-0.240	-0.240	1.980
2020/01/31 23:44:03.7	175.040	-0.260	-0.180	1.990
2020/01/31 23:44:03.8	175.050	-0.280	-0.130	1.990
2020/01/31 23:44:03.9	175.070	-0.300	-0.080	1.990
2020/01/31 23:44:04.0	175.080	-0.320	-0.040	1.990
2020/01/31 23:44:04.1	175.110	-0.340	0.010	1.990
2020/01/31 23:44:04.2	175.120	-0.360	0.050	1.980
2020/01/31 23:44:04.3	175.140	-0.370	0.080	1.970
2020/01/31 23:44:04.4	175.150	-0.380	0.120	1.960
2020/01/31 23:44:04.5	175.160	-0.400	0.150	1.950
2020/01/31 23:44:04.6	175.180	-0.400	0.170	1.940
2020/01/31 23:44:04.7	175.190	-0.410	0.180	1.920
2020/01/31 23:44:04.8	175.200	-0.410	0.200	1.900
2020/01/31 23:44:04.9	175.200	-0.410	0.200	1.880
2020/01/31 23:44:05.0	175.210	-0.410	0.200	1.850
2020/01/31 23:44:05.1	175.210	-0.400	0.190	1.830
2020/01/31 23:44:05.2	175.220	-0.390	0.180	1.810
2020/01/31 23:44:05.3	175.220	-0.370	0.160	1.780
2020/01/31 23:44:05.4	175.220	-0.350	0.140	1.750
2020/01/31 23:44:05.5	175.220	-0.320	0.110	1.710
2020/01/31 23:44:05.6	175.220	-0.300	0.070	1.680
2020/01/31 23:44:05.7	175.220	-0.270	0.040	1.650
2020/01/31 23:44:05.8	175.220	-0.230	-0.000	1.610
2020/01/31 23:44:05.9	175.210	-0.190	-0.040	1.570
2020/01/31 23:44:06.0	175.220	-0.160	-0.090	1.540
2020/01/31 23:44:06.1	175.220	-0.110	-0.130	1.500
2020/01/31 23:44:06.2	175.210	-0.070	-0.180	1.460
2020/01/31 23:44:06.3	175.210	-0.030	-0.230	1.420
2020/01/31 23:44:06.4	175.210	0.020	-0.270	1.380
2020/01/31 23:44:06.5	175.210	0.070	-0.320	1.350
2020/01/31 23:44:06.6	175.200	0.110	-0.360	1.310
2020/01/31 23:44:06.7	175.200	0.160	-0.410	1.270
2020/01/31 23:44:06.8	175.200	0.200	-0.450	1.240
2020/01/31 23:44:06.9	175.200	0.240	-0.480	1.210
2020/01/31 23:44:07.0	175.180	0.280	-0.520	1.170
2020/01/31 23:44:07.1	175.180	0.320	-0.550	1.140
2020/01/31 23:44:07.2	175.180	0.360	-0.580	1.110
2020/01/31 23:44:07.3	175.180	0.390	-0.610	1.090
2020/01/31 23:44:07.4	175.180	0.420	-0.620	1.060
2020/01/31 23:44:07.5	175.180	0.450	-0.640	1.040
2020/01/31 23:44:07.6	175.190	0.470	-0.650	1.010
2020/01/31 23:44:07.7	175.190	0.490	-0.660	0.990
2020/01/31 23:44:07.8	175.200	0.500	-0.660	0.970
2020/01/31 23:44:07.9	175.200	0.520	-0.660	0.960
2020/01/31 23:44:08.0	175.210	0.520	-0.650	0.940
2020/01/31 23:44:08.1	175.220	0.530	-0.630	0.920
2020/01/31 23:44:08.2	175.220	0.530	-0.620	0.910
2020/01/31 23:44:08.3	175.230	0.520	-0.600	0.900
2020/01/31 23:44:08.4	175.240	0.510	-0.580	0.890
2020/01/31 23:44:08.5	175.240	0.500	-0.560	0.890
2020/01/31 23:44:08.6	175.250	0.480	-0.530	0.880
2020/01/31 23:44:08.7	175.260	0.460	-0.500	0.880
2020/01/31 23:44:08.8	175.260	0.440	-0.470	0.880
2020/01/31 23:44:08.9	175.270	0.420	-0.440	0.890
2020/01/31 23:44:09.0	175.280	0.390	-0.410	0.900
2020/01/31 23:44:09.1	175.300	0.360	-0.380	0.910
2020/01/31 23:44:09.2	175.300	0.320	-0.350	0.920
2020/01/31 23:44:09.3	175.310	0.290	-0.320	0.940
2020/01/31 23:44:09.4	175.320	0.250	-0.290	0.960
2020/01/31 23:44:09.5	175.330	0.220	-0.260	0.990
2020/01/31 23:44:09.6	175.330	0.180	-0.240	1.010
2020/01/31 23:44:09.7	175.340	0.140	-0.210	1.040
2020/01/31 23:44:09.8	175.350	0.100	-0.190	1.070
2020/01/31 23:44:09.9	175.350	0.060	-0.170	1.110
2020/01/31 23:44:10.0	175.360	0.020	-0.150	1.140
2020/01/31 23:44:10.1	175.380	-0.020	-0.120	1.180
2020/01/31 23:44:10.2	175.380	-0.060	-0.110	1.220
2020/01/31 23:44:10.3	175.390	-0.100	-0.100	1.270
2020/01/31 23:44:10.4	175.390	-0.130	-0.090	1.310
2020/01/31 23:44:10.5	175.400	-0.170	-0.080	1.350
2020/01/31 23:44:10.6	175.400	-0.200	-0.070	1.400
2020/01/31 23:44:10.7	175.410	-0.240	-0.060	1.450
2020/01/31 23:44:10.8	175.410	-0.270	-0.060	1.500
2020/01/31 23:44:10.9	175.410	-0.300	-0.050	1.550
2020/01/31 23:44:11.0	175.410	-0.320	-0.050	1.610
2020/01/31 23:44:11.1	175.410	-0.350	-0.060	1.660
2020/01/31 23:44:11.2	175.410	-0.370	-0.060	1.720
2020/01/31 23:44:11.3	175.410	-0.390	-0.060	1.780
2020/01/31 23:44:11.4	175.410	-0.410	-0.060	1.830
2020/01/31 23:44:11.5	175.410	-0.420	-0.060	1.890
2020/01/31 23:44:11.6	175.410	-0.430	-0.060	1.940
2020/01/31 23:44:11.7	175.400	-0.440	-0.070	2.000
2020/01/31 23:44:11.8	175.400	-0.440	-0.070	2.050
2020/01/31 23:44:11.9	175.400	-0.450	-0.070	2.100
2020/01/31 23:44:12.0	175.400	-0.440	-0.070	2.150
2020/01/31 23:44:12.1	175.400	-0.440	-0.070	2.200
2020/01/31 23:44:12.2	175.390	-0.440	-0.070	2.240
2020/01/31 23:44:12.3	175.390	-0.430	-0.070	2.280
2020/01/31 23:44:12.4	175.390	-0.410	-0.070	2.320
2020/01/31 23:44:12.5	175.380	-0.400	-0.060	2.350
2020/01/31 23:44:12.6	175.380	-0.390	-0.050	2.380
2020/01/31 23:44:12.7	175.380	-0.370	-0.040	2.400
2020/01/31 23:44:12.8	175.380	-0.350	-0.030	2.420
2020/01/31 23:44:12.9	175.380	-0.330	-0.020	2.430
2020/01/31 23:44:13.0	175.380	-0.300	-0.000	2.440
2020/01/31 23:44:13.1	175.380	-0.280	0.010	2.440
2020/01/31 23:44:13.2	175.380	-0.260	0.030	2.430
2020/01/31 23:44:13.3	175.390	-0.230	0.050	2.430
2020/01/31 23:44:13.4	175.390	-0.200	0.070	2.410
2020/01/31 23:44:13.5	175.390	-0.180	0.090	2.400
2020/01/31 23:44:13.6	175.390	-0.150	0.110	2.380
2020/01/31 23:44:13.7	175.400	-0.120	0.130	2.360
2020/01/31 23:44:13.8	175.400	-0.090	0.140	2.330
2020/01/31 23:44:13.9	175.400	-0.060	0.160	2.310
2020/01/31 23:44:14.0	175.400	-0.030	0.170	2.280
2020/01/31 23:44:14.1	175.400	-0.000	0.180	2.250
2020/01/31 23:44:14.2	175.400	0.030	0.190	2.220
2020/01/31 23:44:14.3	175.390	0.060	0.190	2.180
2020/01/31 23:44:14.4	175.390	0.090	0.190	2.150
2020/01/31 23:44:14.5	175.380	0.120	0.180	2.110
2020/01/31 23:44:14.6	175.370	0.150	0.170	2.070
2020/01/31 23:44:14.7	175.360	0.180	0.160	2.040
2020/01/31 23:44:14.8	175.350	0.210	0.140	2.000
2020/01/31 23:44:14.9	175.340	0.250	0.110	1.960
2020/01/31 23:44:15.0	175.320	0.280	0.080	1.920
2020/01/31 23:44:15.1	175.300	0.310	0.040	1.870
2020/01/31 23:44:15.2	175.280	0.340	-0.000	1.830
2020/01/31 23:44:15.3	175.260	0.380	-0.050	1.790
2020/01/31 23:44:15.4	175.240	0.410	-0.100	1.740
2020/01/31 23:44:15.5	175.210	0.440	-0.160	1.700
2020/01/31 23:44:15.6	175.180	0.470	-0.220	1.650
2020/01/31 23:44:15.7	175.160	0.510	-0.280	1.610
2020/01/31 23:44:15.8	175.130	0.530	-0.340	1.560
2020/01/31 23:44:15.9	175.100	0.560	-0.400	1.510
2020/01/31 23:44:16.0	175.080	0.590	-0.460	1.470
2020/01/31 23:44:16.1	175.040	0.610	-0.530	1.420
2020/01/31 23:44:16.2	175.020	0.640	-0.590	1.370
2020/01/31 23:44:16.3	175.000	0.660	-0.640	1.330
2020/01/31 23:44:16.4	174.980	0.670	-0.700	1.280
2020/01/31 23:44:16.5	174.960	0.680	-0.750	1.240
2020/01/31 23:44:16.6	174.950	0.690	-0.790	1.200
2020/01/31 23:44:16.7	174.940	0.700	-0.830	1.170
2020/01/31 23:44:16.8	174.930	0.700	-0.860	1.130
2020/01/31 23:44:16.9	174.920	0.700	-0.890	1.100
2020/01/31 23:44:17.0	174.920	0.690	-0.910	1.080
2020/01/31 23:44:17.1	174.900	0.680	-0.920	1.050
2020/01/31 23:44:17.2	174.900	0.670	-0.930	1.030
2020/01/31 23:44:17.3	174.910	0.640	-0.930	1.010
2020/01/31 23:44:17.4	174.910	0.620	-0.930	1.000
2020/01/31 23:44:17.5	174.910	0.590	-0.910	0.990
2020/01/31 23:44:17.6	174.920	0.560	-0.890	0.980
2020/01/31 23:44:17.7	174.930	0.520	-0.870	0.980
2020/01/31 23:44:17.8	174.940	0.480	-0.840	0.980
2020/01/31 23:44:17.9	174.950	0.430	-0.810	0.990
2020/01/31 23:44:18.0	174.970	0.380	-0.770	0.990
2020/01/31 23:44:18.1	174.980	0.330	-0.720	1.000
2020/01/31 23:44:18.2	175.000	0.270	-0.680	1.010
2020/01/31 23:44:18.3	175.020	0.220	-0.630	1.020
2020/01/31 23:44:18.4	175.040	0.160	-0.580	1.040
2020/01/31 23:44:18.5	175.060	0.090	-0.530	1.050
2020/01/31 23:44:18.6	175.080	0.030	-0.470	1.070
2020/01/31 23:44:18.7	175.110	-0.030	-0.420	1.090
2020/01/31 23:44:18.8	175.130	-0.100	-0.370	1.100
2020/01/31 23:44:18.9	175.150	-0.160	-0.320	1.120
2020/01/31 23:44:19.0	175.180	-0.230	-0.270	1.150
2020/01/31 23:44:19.1	175.200	-0.290	-0.220	1.170
2020/01/31 23:44:19.2	175.230	-0.350	-0.170	1.200
2020/01/31 23:44:19.3	175.250	-0.410	-0.130	1.220
2020/01/31 23:44:19.4	175.270	-0.470	-0.100	1.250
2020/01/31 23:44:19.5	175.290	-0.520	-0.060	1.280
2020/01/31 23:44:19.6	175.310	-0.570	-0.040	1.300
2020/01/31 23:44:19.7	175.330	-0.620	-0.020	1.330
2020/01/31 23:44:19.8	175.340	-0.660	0.000	1.370
2020/01/31 23:44:19.9	175.360	-0.690	0.010	1.400
2020/01/31 23:44:20.0	175.370	-0.720	0.010	1.430
2020/01/31 23:44:20.1	175.380	-0.750	0.010	1.470
2020/01/31 23:44:20.2	175.390	-0.770	0.000	1.500
2020/01/31 23:44:20.3	175.400	-0.780	-0.010	1.540
2020/01/31 23:44:20.4	175.410	-0.790	-0.030	1.570
2020/01/31 23:44:20.5	175.410	-0.790	-0.060	1.610
2020/01/31 23:44:20.6	175.410	-0.780	-0.090	1.640
2020/01/31 23:44:20.7	175.410	-0.770	-0.120	1.670
2020/01/31 23:44:20.8	175.410	-0.750	-0.160	1.710
2020/01/31 23:44:20.9	175.410	-0.720	-0.210	1.740
2020/01/31 23:44:21.0	175.400	-0.690	-0.250	1.760
2020/01/31 23:44:21.1	175.390	-0.660	-0.300	1.790
2020/01/31 23:44:21.2	175.390	-0.610	-0.350	1.820
2020/01/31 23:44:21.3	175.380	-0.570	-0.400	1.840
2020/01/31 23:44:21.4	175.370	-0.510	-0.450	1.850
2020/01/31 23:44:21.5	175.370	-0.460	-0.500	1.870
2020/01/31 23:44:21.6	175.360	-0.400	-0.540	1.880
2020/01/31 23:44:21.7	175.350	-0.340	-0.580	1.890
2020/01/31 23:44:21.8	175.350	-0.280	-0.620	1.890
2020/01/31 23:44:21.9	175.340	-0.210	-0.650	1.890
2020/01/31 23:44:22.0	175.340	-0.150	-0.680	1.890
2020/01/31 23:44:22.1	175.340	-0.080	-0.700	1.890
2020/01/31 23:44:22.2	175.330	-0.020	-0.720	1.880
2020/01/31 23:44:22.3	175.330	0.040	-0.730	1.870
2020/01/31 23:44:22.4	175.330	0.100	-0.730	1.860
2020/01/31 23:44:22.5	175.320	0.160	-0.730	1.840
2020/01/31 23:44:22.6	175.320	0.210	-0.720	1.830
2020/01/31 23:44:22.7	175.320	0.260	-0.710	1.810
2020/01/31 23:44:22.8	175.320	0.310	-0.690	1.800
2020/01/31 23:44:22.9	175.330	0.350	-0.660	1.780
2020/01/31 23:44:23.0	175.330	0.380	-0.630	1.760
2020/01/31 23:44:23.1	175.330	0.410	-0.600	1.740
2020/01/31 23:44:23.2	175.340	0.440	-0.550	1.730
2020/01/31 23:44:23.3	175.340	0.460	-0.510	1.710
2020/01/31 23:44:23.4	175.350	0.470	-0.460	1.690
2020/01/31 23:44:23.5	175.350	0.470	-0.410	1.680
2020/01/31 23:44:23.6	175.360	0.470	-0.350	1.660
2020/01/31 23:44:23.7	175.370	0.470	-0.300	1.650
2020/01/31 23:44:23.8	175.380	0.460	-0.240	1.630
2020/01/31 23:44:23.9	175.390	0.440	-0.180	1.620
2020/01/31 23:44:24.0	175.400	0.420	-0.120	1.610
2020/01/31 23:44:24.1	175.400	0.390	-0.070	1.600
2020/01/31 23:44:24.2	175.410	0.360	-0.010	1.590
2020/01/31 23:44:24.3	175.420	0.320	0.040	1.580
2020/01/31 23:44:24.4	175.430	0.280	0.100	1.580
2020/01/31 23:44:24.5	175.440	0.240	0.150	1.570
2020/01/31 23:44:24.6	175.450	0.190	0.200	1.570
2020/01/31 23:44:24.7	175.450	0.140	0.240	1.570
2020/01/31 23:44:24.8	175.460	0.090	0.280	1.560
2020/01/31 23:44:24.9	175.460	0.040	0.320	1.560
2020/01/31 23:44:25.0	175.470	-0.010	0.360	1.570
2020/01/31 23:44:25.1	175.480	-0.060	0.390	1.570
2020/01/31 23:44:25.2	175.480	-0.110	0.420	1.570
2020/01/31 23:44:25.3	175.480	-0.160	0.440	1.580
2020/01/31 23:44:25.4	175.480	-0.200	0.460	1.580
2020/01/31 23:44:25.5	175.470	-0.240	0.470	1.590
2020/01/31 23:44:25.6	175.460	-0.280	0.480	1.590
2020/01/31 23:44:25.7	175.450	-0.320	0.490	1.600
2020/01/31 23:44:25.8	175.440	-0.350	0.490	1.610
2020/01/31 23:44:25.9	175.430	-0.380	0.480	1.620
2020/01/31 23:44:26.0	175.410	-0.400	0.470	1.640
2020/01/31 23:44:26.1	175.410	-0.420	0.460	1.650
2020/01/31 23:44:26.2	175.390	-0.440	0.440	1.660
2020/01/31 23:44:26.3	175.370	-0.450	0.420	1.680
2020/01/31 23:44:26.4	175.350	-0.450	0.390	1.700
2020/01/31 23:44:26.5	175.330	-0.450	0.360	1.720
2020/01/31 23:44:26.6	175.310	-0.450	0.330	1.730
2020/01/31 23:44:26.7	175.300	-0.440	0.300	1.750
2020/01/31 23:44:26.8	175.280	-0.430	0.260	1.770
2020/01/31 23:44:26.9	175.260	-0.410	0.220	1.790
2020/01/31 23:44:27.0	175.240	-0.390	0.180	1.810
2020/01/31 23:44:27.1	175.220	-0.370	0.130	1.830
2020/01/31 23:44:27.2	175.210	-0.340	0.090	1.850
2020/01/31 23:44:27.3	175.200	-0.310	0.040	1.870
2020/01/31 23:44:27.4	175.190	-0.280	-0.000	1.880
2020/01/31 23:44:27.5	175.180	-0.250	-0.050	1.890
2020/01/31 23:44:27.6	175.170	-0.220	-0.090	1.900
2020/01/31 23:44:27.7	175.170	-0.190	-0.140	1.910
2020/01/31 23:44:27.8	175.160	-0.150	-0.180	1.920
2020/01/31 23:44:27.9	175.160	-0.120	-0.220	1.920
2020/01/31 23:44:28.0	175.160	-0.080	-0.260	1.920
2020/01/31 23:44:28.1	175.160	-0.050	-0.300	1.920
2020/01/31 23:44:28.2	175.160	-0.020	-0.340	1.910
2020/01/31 23:44:28.3	175.170	0.010	-0.370	1.900
2020/01/31 23:44:28.4	175.180	0.040	-0.400	1.890
2020/01/31 23:44:28.5	175.180	0.070	-0.430	1.880
2020/01/31 23:44:28.6	175.190	0.090	-0.460	1.870
2020/01/31 23:44:28.7	175.190	0.120	-0.490	1.850
2020/01/31 23:44:28.8	175.200	0.140	-0.510	1.840
2020/01/31 23:44:28.9	175.210	0.160	-0.530	1.820
2020/01/31 23:44:29.0	175.210	0.170	-0.550	1.810
2020/01/31 23:44:29.1	175.220	0.190	-0.570	1.790
2020/01/31 23:44:29.2	175.220	0.200	-0.580	1.780
2020/01/31 23:44:29.3	175.220	0.210	-0.600	1.770
2020/01/31 23:44:29.4	175.220	0.220	-0.620	1.750
2020/01/31 23:44:29.5	175.220	0.230	-0.630	1.740
2020/01/31 23:44:29.6	175.210	0.230	-0.640	1.730
2020/01/31 23:44:29.7	175.200	0.230	-0.660	1.720
2020/01/31 23:44:29.8	175.190	0.240	-0.670	1.710
2020/01/31 23:44:29.9	175.180	0.240	-0.680	1.710
2020/01/31 23:44:30.0	175.160	0.240	-0.690	1.700
2020/01/31 23:44:30.1	175.140	0.240	-0.710	1.700
2020/01/31 23:44:30.2	175.120	0.240	-0.720	1.690
2020/01/31 23:44:30.3	175.100	0.240	-0.730	1.690
2020/01/31 23:44:30.4	175.080	0.240	-0.730	1.680
2020/01/31 23:44:30.5	175.060	0.240	-0.740	1.680
2020/01/31 23:44:30.6	175.040	0.250	-0.740	1.670
2020/01/31 23:44:30.7	175.020	0.250	-0.740	1.670
2020/01/31 23:44:30.8	175.000	0.250	-0.740	1.660
2020/01/31 23:44:30.9	174.980	0.250	-0.740	1.650
2020/01/31 23:44:31.0	174.960	0.250	-0.730	1.640
2020/01/31 23:44:31.1	174.950	0.250	-0.720	1.620
2020/01/31 23:44:31.2	174.940	0.250	-0.700	1.600
2020/01/31 23:44:31.3	174.930	0.250	-0.680	1.580
2020/01/31 23:44:31.4	174.930	0.250	-0.650	1.560
2020/01/31 23:44:31.5	174.930	0.250	-0.620	1.530
2020/01/31 23:44:31.6	174.930	0.250	-0.580	1.500
2020/01/31 23:44:31.7	174.930	0.250	-0.540	1.470
2020/01/31 23:44:31.8	174.940	0.250	-0.500	1.430
2020/01/31 23:44:31.9	174.960	0.240	-0.450	1.400
2020/01/31 23:44:32.0	174.970	0.240	-0.400	1.360
2020/01/31 23:44:32.1	174.990	0.230	-0.340	1.320
2020/01/31 23:44:32.2	175.010	0.220	-0.290	1.280
2020/01/31 23:44:32.3	175.040	0.210	-0.230	1.240
2020/01/31 23:44:32.4	175.070	0.200	-0.170	1.200
2020/01/31 23:44:32.5	175.100	0.190	-0.110	1.160
2020/01/31 23:44:32.6	175.140	0.180	-0.060	1.130
2020/01/31 23:44:32.7	175.170	0.160	-0.010	1.090
2020/01/31 23:44:32.8	175.210	0.150	0.040	1.060
2020/01/31 23:44:32.9	175.240	0.130	0.090	1.030
2020/01/31 23:44:33.0	175.280	0.110	0.130	1.000
2020/01/31 23:44:33.1	175.320	0.100	0.160	0.970
2020/01/31 23:44:33.2	175.350	0.080	0.190	0.950
2020/01/31 23:44:33.3	175.380	0.060	0.210	0.930
2020/01/31 23:44:33.4	175.410	0.040	0.230	0.920
2020/01/31 23:44:33.5	175.440	0.020	0.240	0.920
2020/01/31 23:44:33.6	175.460	0.010	0.240	0.910
2020/01/31 23:44:33.7	175.480	-0.010	0.230	0.920
2020/01/31 23:44:33.8	175.500	-0.030	0.220	0.920
2020/01/31 23:44:33.9	175.520	-0.040	0.190	0.930
2020/01/31 23:44:34.0	175.530	-0.050	0.160	0.950
2020/01/31 23:44:34.1	175.560	-0.070	0.130	0.980
2020/01/31 23:44:34.2	175.570	-0.080	0.090	1.000
2020/01/31 23:44:34.3	175.570	-0.090	0.040	1.030
2020/01/31 23:44:34.4	175.570	-0.090	-0.010	1.060
2020/01/31 23:44:34.5	175.570	-0.100	-0.070	1.100
2020/01/31 23:44:34.6	175.570	-0.110	-0.130	1.140
2020/01/31 23:44:34.7	175.570	-0.110	-0.190	1.180
2020/01/31 23:44:34.8	175.560	-0.110	-0.250	1.220
2020/01/31 23:44:34.9	175.550	-0.110	-0.310	1.260
2020/01/31 23:44:35.0	175.540	-0.110	-0.370	1.310
2020/01/31 23:44:35.1	175.530	-0.110	-0.440	1.350
2020/01/31 23:44:35.2	175.520	-0.100	-0.490	1.400
2020/01/31 23:44:35.3	175.510	-0.100	-0.550	1.440
2020/01/31 23:44:35.4	175.500	-0.100	-0.600	1.490
2020/01/31 23:44:35.5	175.490	-0.090	-0.640	1.530
2020/01/31 23:44:35.6	175.470	-0.090	-0.680	1.570
2020/01/31 23:44:35.7	175.460	-0.080	-0.700	1.610
2020/01/31 23:44:35.8	175.450	-0.080	-0.730	1.650
2020/01/31 23:44:35.9	175.440	-0.070	-0.740	1.690
2020/01/31 23:44:36.0	175.430	-0.070	-0.740	1.730
2020/01/31 23:44:36.1	175.390	-0.060	-0.740	1.770
2020/01/31 23:44:36.2	175.380	-0.060	-0.730	1.800
2020/01/31 23:44:36.3	175.370	-0.060	-0.710	1.830
2020/01/31 23:44:36.4	175.360	-0.060	-0.690	1.860
2020/01/31 23:44:36.5	175.360	-0.060	-0.650	1.890
2020/01/31 23:44:36.6	175.350	-0.060	-0.610	1.920
2020/01/31 23:44:36.7	175.350	-0.060	-0.570	1.950
2020/01/31 23:44:36.8	175.340	-0.060	-0.520	1.970
2020/01/31 23:44:36.9	175.340	-0.060	-0.460	1.990
2020/01/31 23:44:37.0	175.340	-0.070	-0.410	2.010
2020/01/31 23:44:37.1	175.340	-0.070	-0.350	2.020
2020/01/31 23:44:37.2	175.340	-0.080	-0.280	2.030
2020/01/31 23:44:37.3	175.340	-0.080	-0.220	2.040
2020/01/31 23:44:37.4	175.340	-0.090	-0.160	2.050
2020/01/31 23:44:37.5	175.340	-0.100	-0.100	2.050
2020/01/31 23:44:37.6	175.340	-0.100	-0.040	2.050
2020/01/31 23:44:37.7	175.340	-0.110	0.020	2.050
2020/01/31 23:44:37.8	175.340	-0.120	0.070	2.040
2020/01/31 23:44:37.9	175.340	-0.120	0.120	2.030
2020/01/31 23:44:38.0	175.340	-0.130	0.160	2.020
2020/01/31 23:44:38.1	175.340	-0.130	0.200	2.010
2020/01/31 23:44:38.2	175.340	-0.140	0.230	2.000
2020/01/31 23:44:38.3	175.340	-0.140	0.250	1.980
2020/01/31 23:44:38.4	175.340	-0.140	0.270	1.970
2020/01/31 23:44:38.5	175.340	-0.140	0.280	1.950
2020/01/31 23:44:38.6	175.330	-0.140	0.280	1.930
2020/01/31 23:44:38.7	175.320	-0.130	0.280	1.910
2020/01/31 23:44:38.8	175.310	-0.120	0.260	1.900
2020/01/31 23:44:38.9	175.300	-0.110	0.240	1.880
2020/01/31 23:44:39.0	175.290	-0.100	0.200	1.870
2020/01/31 23:44:39.1	175.280	-0.080	0.170	1.860
2020/01/31 23:44:39.2	175.260	-0.070	0.120	1.840
2020/01/31 23:44:39.3	175.240	-0.050	0.070	1.830
2020/01/31 23:44:39.4	175.220	-0.020	0.010	1.820
2020/01/31 23:44:39.5	175.200	0.000	-0.060	1.810
2020/01/31 23:44:39.6	175.170	0.030	-0.130	1.800
2020/01/31 23:44:39.7	175.150	0.050	-0.200	1.790
2020/01/31 23:44:39.8	175.130	0.080	-0.270	1.780
2020/01/31 23:44:39.9	175.110	0.110	-0.340	1.780
2020/01/31 23:44:40.0	175.080	0.140	-0.420	1.770
2020/01/31 23:44:40.1	175.060	0.160	-0.490	1.760
2020/01/31 23:44:40.2	175.040	0.190	-0.560	1.760
2020/01/31 23:44:40.3	175.030	0.220	-0.620	1.750
2020/01/31 23:44:40.4	175.010	0.250	-0.680	1.740
2020/01/31 23:44:40.5	175.000	0.270	-0.740	1.740
2020/01/31 23:44:40.6	174.980	0.290	-0.790	1.730
2020/01/31 23:44:40.7	174.970	0.310	-0.830	1.730
2020/01/31 23:44:40.8	174.960	0.330	-0.870	1.720
2020/01/31 23:44:40.9	174.960	0.350	-0.900	1.720
2020/01/31 23:44:41.0	174.960	0.360	-0.920	1.710
2020/01/31 23:44:41.1	174.970	0.370	-0.930	1.710
2020/01/31 23:44:41.2	174.970	0.370	-0.930	1.700
2020/01/31 23:44:41.3	174.980	0.380	-0.920	1.690
2020/01/31 23:44:41.4	174.990	0.380	-0.900	1.680
2020/01/31 23:44:41.5	175.000	0.370	-0.870	1.670
2020/01/31 23:44:41.6	175.010	0.370	-0.830	1.660
2020/01/31 23:44:41.7	175.020	0.350	-0.780	1.650
2020/01/31 23:44:41.8	175.040	0.340	-0.730	1.640
2020/01/31 23:44:41.9	175.050	0.320	-0.670	1.630
2020/01/31 23:44:42.0	175.070	0.300	-0.600	1.610
2020/01/31 23:44:42.1	175.080	0.280	-0.530	1.600
2020/01/31 23:44:42.2	175.100	0.250	-0.450	1.580
2020/01/31 23:44:42.3	175.120	0.230	-0.380	1.570
2020/01/31 23:44:42.4	175.130	0.200	-0.300	1.550
2020/01/31 23:44:42.5	175.150	0.170	-0.220	1.540
2020/01/31 23:44:42.6	175.170	0.140	-0.140	1.530
2020/01/31 23:44:42.7	175.180	0.100	-0.060	1.510
2020/01/31 23:44:42.8	175.200	0.070	0.020	1.500
2020/01/31 23:44:42.9	175.210	0.040	0.090	1.490
2020/01/31 23:44:43.0	175.230	0.000	0.160	1.480
2020/01/31 23:44:43.1	175.250	-0.030	0.210	1.480
2020/01/31 23:44:43.2	175.260	-0.060	0.270	1.470
2020/01/31 23:44:43.3	175.270	-0.090	0.320	1.460
2020/01/31 23:44:43.4	175.280	-0.120	0.370	1.460
2020/01/31 23:44:43.5	175.290	-0.140	0.400	1.460
2020/01/31 23:44:43.6	175.300	-0.170	0.430	1.450
2020/01/31 23:44:43.7	175.310	-0.190	0.460	1.450
2020/01/31 23:44:43.8	175.320	-0.210	0.470	1.450
2020/01/31 23:44:43.9	175.330	-0.230	0.480	1.450
2020/01/31 23:44:44.0	175.340	-0.240	0.490	1.450
2020/01/31 23:44:44.1	175.350	-0.260	0.490	1.450
2020/01/31 23:44:44.2	175.370	-0.270	0.480	1.450
2020/01/31 23:44:44.3	175.380	-0.280	0.460	1.450
2020/01/31 23:44:44.4	175.390	-0.280	0.440	1.440
2020/01/31 23:44:44.5	175.410	-0.290	0.420	1.440
2020/01/31 23:44:44.6	175.420	-0.290	0.390	1.440
2020/01/31 23:44:44.7	175.440	-0.290	0.360	1.430
2020/01/31 23:44:44.8	175.450	-0.290	0.330	1.430
2020/01/31 23:44:44.9	175.470	-0.280	0.300	1.420
2020/01/31 23:44:45.0	175.480	-0.280	0.260	1.420
2020/01/31 23:44:45.1	175.480	-0.270	0.210	1.410
2020/01/31 23:44:45.2	175.490	-0.260	0.170	1.410
2020/01/31 23:44:45.3	175.510	-0.260	0.130	1.400
2020/01/31 23:44:45.4	175.520	-0.250	0.090	1.400
2020/01/31 23:44:45.5	175.530	-0.240	0.040	1.400
2020/01/31 23:44:45.6	175.540	-0.230	-0.000	1.400
2020/01/31 23:44:45.7	175.550	-0.220	-0.050	1.410
2020/01/31 23:44:45.8	175.560	-0.200	-0.100	1.410
2020/01/31 23:44:45.9	175.570	-0.190	-0.140	1.410
2020/01/31 23:44:46.0	175.570	-0.180	-0.190	1.420
2020/01/31 23:44:46.1	175.570	-0.170	-0.230	1.430
2020/01/31 23:44:46.2	175.570	-0.150	-0.280	1.440
2020/01/31 23:44:46.3	175.570	-0.140	-0.330	1.460
2020/01/31 23:44:46.4	175.570	-0.130	-0.380	1.470
2020/01/31 23:44:46.5	175.560	-0.110	-0.430	1.490
2020/01/31 23:44:46.6	175.560	-0.100	-0.480	1.510
2020/01/31 23:44:46.7	175.550	-0.090	-0.530	1.540
2020/01/31 23:44:46.8	175.540	-0.080	-0.580	1.560
2020/01/31 23:44:46.9	175.530	-0.060	-0.630	1.580
2020/01/31 23:44:47.0	175.520	-0.050	-0.680	1.610
2020/01/31 23:44:47.1	175.510	-0.040	-0.720	1.640
2020/01/31 23:44:47.2	175.500	-0.030	-0.760	1.680
2020/01/31 23:44:47.3	175.490	-0.020	-0.800	1.710
2020/01/31 23:44:47.4	175.470	-0.010	-0.840	1.740
2020/01/31 23:44:47.5	175.460	0.000	-0.870	1.770
2020/01/31 23:44:47.6	175.440	0.010	-0.890	1.810
2020/01/31 23:44:47.7	175.430	0.020	-0.920	1.840
2020/01/31 23:44:47.8	175.420	0.020	-0.930	1.870
2020/01/31 23:44:47.9	175.400	0.030	-0.950	1.900
2020/01/31 23:44:48.0	175.390	0.030	-0.950	1.940
2020/01/31 23:44:48.1	175.380	0.040	-0.960	1.970
2020/01/31 23:44:48.2	175.370	0.040	-0.960	2.000
2020/01/31 23:44:48.3	175.350	0.040	-0.950	2.030
2020/01/31 23:44:48.4	175.340	0.040	-0.940	2.060
2020/01/31 23:44:48.5	175.330	0.040	-0.920	2.080
2020/01/31 23:44:48.6	175.320	0.040	-0.900	2.110
2020/01/31 23:44:48.7	175.310	0.050	-0.870	2.130
2020/01/31 23:44:48.8	175.290	0.050	-0.840	2.150
2020/01/31 23:44:48.9	175.280	0.050	-0.810	2.170
2020/01/31 23:44:49.0	175.270	0.050	-0.770	2.180
2020/01/31 23:44:49.1	175.250	0.050	-0.740	2.200
2020/01/31 23:44:49.2	175.240	0.050	-0.690	2.210
2020/01/31 23:44:49.3	175.220	0.050	-0.650	2.210
2020/01/31 23:44:49.4	175.200	0.060	-0.610	2.220
2020/01/31 23:44:49.5	175.180	0.060	-0.560	2.220
2020/01/31 23:44:49.6	175.170	0.070	-0.520	2.220
2020/01/31 23:44:49.7	175.150	0.070	-0.470	2.220
2020/01/31 23:44:49.8	175.130	0.080	-0.430	2.220
2020/01/31 23:44:49.9	175.110	0.090	-0.380	2.210
2020/01/31 23:44:50.0	175.090	0.100	-0.340	2.200
2020/01/31 23:44:50.1	175.060	0.110	-0.300	2.180
2020/01/31 23:44:50.2	175.050	0.120	-0.260	2.160
2020/01/31 23:44:50.3	175.030	0.130	-0.220	2.140
2020/01/31 23:44:50.4	175.010	0.140	-0.180	2.110
2020/01/31 23:44:50.5	175.000	0.150	-0.150	2.080
2020/01/31 23:44:50.6	174.990	0.160	-0.110	2.040
2020/01/31 23:44:50.7	174.990	0.170	-0.080	2.000
2020/01/31 23:44:50.8	174.980	0.180	-0.050	1.960
2020/01/31 23:44:50.9	174.980	0.180	-0.020	1.910
2020/01/31 23:44:51.0	174.970	0.190	0.010	1.860
2020/01/31 23:44:51.1	174.970	0.200	0.040	1.810
2020/01/31 23:44:51.2	174.980	0.200	0.060	1.750
2020/01/31 23:44:51.3	174.990	0.200	0.080	1.700
2020/01/31 23:44:51.4	175.000	0.200	0.090	1.640
2020/01/31 23:44:51.5	175.020	0.200	0.100	1.590
2020/01/31 23:44:51.6	175.030	0.200	0.110	1.530
2020/01/31 23:44:51.7	175.050	0.200	0.120	1.480
2020/01/31 23:44:51.8	175.070	0.190	0.120	1.430
2020/01/31 23:44:51.9	175.080	0.180	0.120	1.380
2020/01/31 23:44:52.0	175.100	0.170	0.110	1.340
2020/01/31 23:44:52.1	175.120	0.160	0.110	1.290
2020/01/31 23:44:52.2	175.130	0.150	0.090	1.260
2020/01/31 23:44:52.3	175.150	0.140	0.070	1.220
2020/01/31 23:44:52.4	175.160	0.120	0.050	1.200
2020/01/31 23:44:52.5	175.180	0.110	0.030	1.170
2020/01/31 23:44:52.6	175.190	0.090	0.000	1.160
2020/01/31 23:44:52.7	175.200	0.070	-0.030	1.150
2020/01/31 23:44:52.8	175.210	0.050	-0.060	1.140
2020/01/31 23:44:52.9	175.210	0.030	-0.100	1.140
2020/01/31 23:44:53.0	175.220	0.020	-0.130	1.150
2020/01/31 23:44:53.1	175.240	-0.000	-0.170	1.160
2020/01/31 23:44:53.2	175.240	-0.020	-0.210	1.170
2020/01/31 23:44:53.3	175.240	-0.040	-0.250	1.190
2020/01/31 23:44:53.4	175.240	-0.060	-0.280	1.200
2020/01/31 23:44:53.5	175.230	-0.080	-0.320	1.220
2020/01/31 23:44:53.6	175.230	-0.100	-0.350	1.240
2020/01/31 23:44:53.7	175.230	-0.120	-0.380	1.260
2020/01/31 23:44:53.8	175.220	-0.140	-0.410	1.280
2020/01/31 23:44:53.9	175.220	-0.160	-0.430	1.300
2020/01/31 23:44:54.0	175.210	-0.170	-0.450	1.320
2020/01/31 23:44:54.1	175.210	-0.190	-0.470	1.340
2020/01/31 23:44:54.2	175.210	-0.200	-0.480	1.360
2020/01/31 23:44:54.3	175.200	-0.220	-0.490	1.380
2020/01/31 23:44:54.4	175.200	-0.230	-0.490	1.400
2020/01/31 23:44:54.5	175.190	-0.240	-0.490	1.420
2020/01/31 23:44:54.6	175.190	-0.250	-0.490	1.440
2020/01/31 23:44:54.7	175.190	-0.260	-0.480	1.470
2020/01/31 23:44:54.8	175.180	-0.270	-0.460	1.490
2020/01/31 23:44:54.9	175.180	-0.280	-0.450	1.510
2020/01/31 23:44:55.0	175.180	-0.290	-0.430	1.530
2020/01/31 23:44:55.1	175.170	-0.290	-0.400	1.550
2020/01/31 23:44:55.2	175.170	-0.300	-0.370	1.570
2020/01/31 23:44:55.3	175.170	-0.300	-0.340	1.590
2020/01/31 23:44:55.4	175.170	-0.300	-0.310	1.610
2020/01/31 23:44:55.5	175.170	-0.310	-0.270	1.630
2020/01/31 23:44:55.6	175.170	-0.310	-0.230	1.650
2020/01/31 23:44:55.7	175.180	-0.310	-0.190	1.670
2020/01/31 23:44:55.8	175.180	-0.310	-0.150	1.690
2020/01/31 23:44:55.9	175.190	-0.300	-0.110	1.700
2020/01/31 23:44:56.0	175.200	-0.300	-0.060	1.710
2020/01/31 23:44:56.1	175.210	-0.300	-0.020	1.730
2020/01/31 23:44:56.2	175.220	-0.290	0.030	1.730
2020/01/31 23:44:56.3	175.230	-0.290	0.070	1.740
2020/01/31 23:44:56.4	175.250	-0.280	0.120	1.740
2020/01/31 23:44:56.5	175.260	-0.270	0.160	1.740
2020/01/31 23:44:56.6	175.280	-0.260	0.200	1.740
2020/01/31 23:44:56.7	175.290	-0.250	0.230	1.740
2020/01/31 23:44:56.8	175.310	-0.240	0.270	1.740
2020/01/31 23:44:56.9	175.320	-0.230	0.300	1.730
2020/01/31 23:44:57.0	175.340	-0.210	0.320	1.720
2020/01/31 23:44:57.1	175.360	-0.200	0.340	1.710
2020/01/31 23:44:57.2	175.370	-0.180	0.360	1.690
2020/01/31 23:44:57.3	175.390	-0.160	0.370	1.680
2020/01/31 23:44:57.4	175.400	-0.130	0.380	1.670
2020/01/31 23:44:57.5	175.410	-0.110	0.380	1.650
2020/01/31 23:44:57.6	175.420	-0.090	0.380	1.630
2020/01/31 23:44:57.7	175.430	-0.060	0.360	1.620
2020/01/31 23:44:57.8	175.440	-0.030	0.350	1.600
2020/01/31 23:44:57.9	175.450	0.000	0.320	1.580
2020/01/31 23:44:58.0	175.450	0.040	0.290	1.560
2020/01/31 23:44:58.1	175.460	0.070	0.260	1.550
2020/01/31 23:44:58.2	175.460	0.110	0.220	1.530
2020/01/31 23:44:58.3	175.470	0.140	0.170	1.510
2020/01/31 23:44:58.4	175.470	0.180	0.130	1.490
2020/01/31 23:44:58.5	175.470	0.220	0.070	1.470
2020/01/31 23:44:58.6	175.470	0.250	0.010	1.450
2020/01/31 23:44:58.7	175.470	0.290	-0.040	1.430
2020/01/31 23:44:58.8	175.470	0.330	-0.100	1.410
2020/01/31 23:44:58.9	175.460	0.360	-0.170	1.390
2020/01/31 23:44:59.0	175.460	0.390	-0.230	1.380
2020/01/31 23:44:59.1	175.470	0.430	-0.290	1.360
2020/01/31 23:44:59.2	175.470	0.460	-0.350	1.340
2020/01/31 23:44:59.3	175.460	0.480	-0.400	1.330
2020/01/31 23:44:59.4	175.460	0.510	-0.460	1.320
2020/01/31 23:44:59.5	175.450	0.530	-0.500	1.310
2020/01/31 23:44:59.6	175.450	0.540	-0.550	1.310
2020/01/31 23:44:59.7	175.440	0.550	-0.590	1.300
2020/01/31 23:44:59.8	175.440	0.560	-0.620	1.300
2020/01/31 23:44:59.9	175.430	0.570	-0.650	1.310
2020/01/31 23:45:00.0	175.430	0.570	-0.680	1.310
2020/01/31 23:45:00.1	175.400	0.560	-0.700	1.320
2020/01/31 23:45:00.2	175.400	0.550	-0.710	1.330
2020/01/31 23:45:00.3	175.390	0.540	-0.710	1.350
2020/01/31 23:45:00.4	175.380	0.520	-0.710	1.370
2020/01/31 23:45:00.5	175.370	0.500	-0.710	1.390
2020/01/31 23:45:00.6	175.370	0.470	-0.690	1.410
2020/01/31 23:45:00.7	175.360	0.440	-0.680	1.430
2020/01/31 23:45:00.8	175.350	0.410	-0.650	1.450
2020/01/31 23:45:00.9	175.340	0.370	-0.630	1.480
2020/01/31 23:45:01.0	175.340	0.330	-0.600	1.510
2020/01/31 23:45:01.1	175.330	0.290	-0.560	1.530
2020/01/31 23:45:01.2	175.330	0.240	-0.530	1.550
2020/01/31 23:45:01.3	175.330	0.190	-0.490	1.580
2020/01/31 23:45:01.4	175.320	0.140	-0.450	1.600
2020/01/31 23:45:01.5	175.320	0.090	-0.400	1.620
2020/01/31 23:45:01.6	175.320	0.040	-0.360	1.630
2020/01/31 23:45:01.7	175.330	-0.010	-0.320	1.650
2020/01/31 23:45:01.8	175.330	-0.060	-0.280	1.660
2020/01/31 23:45:01.9	175.340	-0.110	-0.240	1.670
2020/01/31 23:45:02.0	175.340	-0.160	-0.200	1.670
2020/01/31 23:45:02.1	175.350	-0.210	-0.170	1.680
2020/01/31 23:45:02.2	175.360	-0.250	-0.130	1.680
2020/01/31 23:45:02.3	175.360	-0.300	-0.110	1.690
2020/01/31 23:45:02.4	175.370	-0.340	-0.080	1.690
2020/01/31 23:45:02.5	175.380	-0.370	-0.060	1.680
2020/01/31 23:45:02.6	175.380	-0.410	-0.050	1.680
2020/01/31 23:45:02.7	175.390	-0.430	-0.040	1.680
2020/01/31 23:45:02.8	175.390	-0.460	-0.040	1.680
2020/01/31 23:45:02.9	175.400	-0.480	-0.040	1.680
2020/01/31 23:45:03.0	175.400	-0.490	-0.050	1.670
2020/01/31 23:45:03.1	175.410	-0.500	-0.070	1.670
2020/01/31 23:45:03.2	175.410	-0.500	-0.090	1.670
2020/01/31 23:45:03.3	175.400	-0.500	-0.120	1.670
2020/01/31 23:45:03.4	175.400	-0.490	-0.160	1.660
2020/01/31 23:45:03.5	175.390	-0.480	-0.200	1.660
2020/01/31 23:45:03.6	175.390	-0.460	-0.240	1.660
2020/01/31 23:45:03.7	175.380	-0.440	-0.290	1.660
2020/01/31 23:45:03.8	175.370	-0.410	-0.350	1.650
2020/01/31 23:45:03.9	175.360	-0.380	-0.410	1.650
2020/01/31 23:45:04.0	175.350	-0.340	-0.470	1.650
2020/01/31 23:45:04.1	175.350	-0.300	-0.530	1.650
2020/01/31 23:45:04.2	175.340	-0.260	-0.590	1.650
2020/01/31 23:45:04.3	175.320	-0.210	-0.660	1.640
2020/01/31 23:45:04.4	175.310	-0.160	-0.720	1.630
2020/01/31 23:45:04.5	175.300	-0.110	-0.780	1.620
2020/01/31 23:45:04.6	175.290	-0.060	-0.830	1.620
2020/01/31 23:45:04.7	175.270	-0.000	-0.890	1.600
2020/01/31 23:45:04.8	175.260	0.050	-0.930	1.590
2020/01/31 23:45:04.9	175.250	0.100	-0.970	1.580
2020/01/31 23:45:05.0	175.220	0.160	-1.010	1.560
2020/01/31 23:45:05.1	175.210	0.210	-1.040	1.540
2020/01/31 23:45:05.2	175.200	0.250	-1.050	1.520
2020/01/31 23:45:05.3	175.200	0.300	-1.060	1.490
2020/01/31 23:45:05.4	175.190	0.340	-1.070	1.470
2020/01/31 23:45:05.5	175.190	0.380	-1.060	1.440
2020/01/31 23:45:05.6	175.180	0.410	-1.040	1.410
2020/01/31 23:45:05.7	175.180	0.430	-1.020	1.380
2020/01/31 23:45:05.8	175.180	0.460	-0.980	1.340
2020/01/31 23:45:05.9	175.180	0.470	-0.940	1.310
2020/01/31 23:45:06.0	175.190	0.480	-0.890	1.280
2020/01/31 23:45:06.1	175.190	0.490	-0.830	1.240
2020/01/31 23:45:06.2	175.200	0.490	-0.770	1.210
2020/01/31 23:45:06.3	175.200	0.480	-0.700	1.170
2020/01/31 23:45:06.4	175.210	0.460	-0.620	1.140
2020/01/31 23:45:06.5	175.220	0.440	-0.540	1.110
2020/01/31 23:45:06.6	175.220	0.420	-0.460	1.080
2020/01/31 23:45:06.7	175.230	0.390	-0.380	1.060
2020/01/31 23:45:06.8	175.240	0.350	-0.290	1.030
2020/01/31 23:45:06.9	175.250	0.310	-0.210	1.010
2020/01/31 23:45:07.0	175.270	0.260	-0.120	1.000
2020/01/31 23:45:07.1	175.290	0.220	-0.040	0.980
2020/01/31 23:45:07.2	175.300	0.160	0.030	0.970
2020/01/31 23:45:07.3	175.310	0.110	0.110	0.960
2020/01/31 23:45:07.4	175.330	0.050	0.170	0.960
2020/01/31 23:45:07.5	175.340	-0.010	0.240	0.960
2020/01/31 23:45:07.6	175.360	-0.070	0.290	0.960
2020/01/31 23:45:07.7	175.370	-0.130	0.340	0.970
2020/01/31 23:45:07.8	175.390	-0.190	0.380	0.980
2020/01/31 23:45:07.9	175.400	-0.250	0.410	0.990
2020/01/31 23:45:08.0	175.420	-0.310	0.440	1.010
2020/01/31 23:45:08.1	175.420	-0.360	0.460	1.040
2020/01/31 23:45:08.2	175.440	-0.420	0.460	1.060
2020/01/31 23:45:08.3	175.450	-0.470	0.460	1.090
2020/01/31 23:45:08.4	175.460	-0.510	0.450	1.120
2020/01/31 23:45:08.5	175.470	-0.560	0.440	1.160
2020/01/31 23:45:08.6	175.480	-0.590	0.410	1.200
2020/01/31 23:45:08.7	175.480	-0.630	0.380	1.240
2020/01/31 23:45:08.8	175.490	-0.650	0.340	1.290
2020/01/31 23:45:08.9	175.490	-0.680	0.290	1.340
2020/01/31 23:45:09.0	175.490	-0.690	0.240	1.390
2020/01/31 23:45:09.1	175.480	-0.700	0.190	1.440
2020/01/31 23:45:09.2	175.480	-0.710	0.130	1.500
2020/01/31 23:45:09.3	175.470	-0.710	0.070	1.550
2020/01/31 23:45:09.4	175.460	-0.700	0.010	1.610
2020/01/31 23:45:09.5	175.450	-0.690	-0.050	1.670
2020/01/31 23:45:09.6	175.440	-0.670	-0.110	1.720
2020/01/31 23:45:09.7	175.420	-0.650	-0.180	1.780
2020/01/31 23:45:09.8	175.410	-0.620	-0.230	1.830
2020/01/31 23:45:09.9	175.390	-0.590	-0.290	1.880
2020/01/31 23:45:10.0	175.380	-0.550	-0.340	1.930
2020/01/31 23:45:10.1	175.360	-0.510	-0.390	1.970
2020/01/31 23:45:10.2	175.340	-0.470	-0.430	2.010
2020/01/31 23:45:10.3	175.330	-0.420	-0.460	2.040
2020/01/31 23:45:10.4	175.310	-0.380	-0.490	2.070
2020/01/31 23:45:10.5	175.300	-0.330	-0.510	2.090
2020/01/31 23:45:10.6	175.290	-0.280	-0.520	2.110
2020/01/31 23:45:10.7	175.280	-0.240	-0.530	2.120
2020/01/31 23:45:10.8	175.270	-0.190	-0.530	2.130
2020/01/31 23:45:10.9	175.270	-0.140	-0.520	2.130
2020/01/31 23:45:11.0	175.270	-0.100	-0.500	2.120
2020/01/31 23:45:11.1	175.260	-0.060	-0.480	2.110
2020/01/31 23:45:11.2	175.260	-0.020	-0.440	2.090
2020/01/31 23:45:11.3	175.260	0.020	-0.400	2.070
2020/01/31 23:45:11.4	175.270	0.050	-0.360	2.050
2020/01/31 23:45:11.5	175.280	0.080	-0.310	2.020
2020/01/31 23:45:11.6	175.290	0.110	-0.250	1.990
2020/01/31 23:45:11.7	175.310	0.130	-0.190	1.960
2020/01/31 23:45:11.8	175.330	0.150	-0.130	1.920
2020/01/31 23:45:11.9	175.350	0.160	-0.070	1.890
2020/01/31 23:45:12.0	175.380	0.180	-0.010	1.850
2020/01/31 23:45:12.1	175.400	0.180	0.060	1.810
2020/01/31 23:45:12.2	175.420	0.190	0.120	1.760
2020/01/31 23:45:12.3	175.450	0.190	0.180	1.720
2020/01/31 23:45:12.4	175.470	0.190	0.240	1.680
2020/01/31 23:45:12.5	175.500	0.190	0.290	1.640
2020/01/31 23:45:12.6	175.530	0.180	0.340	1.590
2020/01/31 23:45:12.7	175.550	0.180	0.380	1.550
2020/01/31 23:45:12.8	175.570	0.170	0.410	1.510
2020/01/31 23:45:12.9	175.600	0.160	0.440	1.470
2020/01/31 23:45:13.0	175.620	0.150	0.460	1.440
2020/01/31 23:45:13.1	175.650	0.140	0.470	1.400
2020/01/31 23:45:13.2	175.670	0.140	0.480	1.370
2020/01/31 23:45:13.3	175.680	0.130	0.470	1.330
2020/01/31 23:45:13.4	175.690	0.130	0.450	1.300
2020/01/31 23:45:13.5	175.700	0.120	0.430	1.280
2020/01/31 23:45:13.6	175.700	0.120	0.400	1.250
2020/01/31 23:45:13.7	175.700	0.120	0.350	1.230
2020/01/31 23:45:13.8	175.700	0.130	0.300	1.220
2020/01/31 23:45:13.9	175.690	0.130	0.240	1.200
2020/01/31 23:45:14.0	175.680	0.140	0.180	1.190
2020/01/31 23:45:14.1	175.660	0.150	0.110	1.190
2020/01/31 23:45:14.2	175.650	0.170	0.030	1.180
2020/01/31 23:45:14.3	175.630	0.180	-0.050	1.190
2020/01/31 23:45:14.4	175.610	0.200	-0.140	1.190
2020/01/31 23:45:14.5	175.580	0.220	-0.230	1.200
2020/01/31 23:45:14.6	175.560	0.240	-0.310	1.210
2020/01/31 23:45:14.7	175.530	0.270	-0.400	1.230
2020/01/31 23:45:14.8	175.500	0.290	-0.490	1.250
2020/01/31 23:45:14.9	175.470	0.310	-0.580	1.270
2020/01/31 23:45:15.0	175.440	0.340	-0.660	1.280
2020/01/31 23:45:15.1	175.410	0.360	-0.740	1.310
2020/01/31 23:45:15.2	175.380	0.380	-0.810	1.330
2020/01/31 23:45:15.3	175.360	0.400	-0.880	1.360
2020/01/31 23:45:15.4	175.330	0.420	-0.940	1.390
2020/01/31 23:45:15.5	175.310	0.440	-0.990	1.410
2020/01/31 23:45:15.6	175.290	0.460	-1.030	1.440
2020/01/31 23:45:15.7	175.270	0.470	-1.070	1.470
2020/01/31 23:45:15.8	175.250	0.480	-1.090	1.500
2020/01/31 23:45:15.9	175.230	0.490	-1.110	1.520
2020/01/31 23:45:16.0	175.220	0.490	-1.120	1.550
2020/01/31 23:45:16.1	175.200	0.490	-1.110	1.580
2020/01/31 23:45:16.2	175.190	0.480	-1.100	1.610
2020/01/31 23:45:16.3	175.180	0.470	-1.080	1.630
2020/01/31 23:45:16.4	175.170	0.460	-1.040	1.660
2020/01/31 23:45:16.5	175.160	0.450	-1.000	1.680
2020/01/31 23:45:16.6	175.160	0.430	-0.950	1.700
2020/01/31 23:45:16.7	175.160	0.400	-0.890	1.720
2020/01/31 23:45:16.8	175.160	0.370	-0.830	1.730
2020/01/31 23:45:16.9	175.160	0.340	-0.760	1.750
2020/01/31 23:45:17.0	175.170	0.300	-0.680	1.770
2020/01/31 23:45:17.1	175.170	0.270	-0.600	1.780
2020/01/31 23:45:17.2	175.180	0.220	-0.510	1.790
2020/01/31 23:45:17.3	175.190	0.180	-0.430	1.800
2020/01/31 23:45:17.4	175.200	0.130	-0.340	1.810
2020/01/31 23:45:17.5	175.210	0.090	-0.250	1.820
2020/01/31 23:45:17.6	175.230	0.040	-0.160	1.820
2020/01/31 23:45:17.7	175.250	-0.010	-0.070	1.830
2020/01/31 23:45:17.8	175.270	-0.060	0.020	1.830
2020/01/31 23:45:17.9	175.290	-0.110	0.100	1.830
2020/01/31 23:45:18.0	175.310	-0.160	0.180	1.830
2020/01/31 23:45:18.1	175.330	-0.210	0.250	1.830
2020/01/31 23:45:18.2	175.350	-0.250	0.320	1.820
2020/01/31 23:45:18.3	175.380	-0.300	0.380	1.820
2020/01/31 23:45:18.4	175.400	-0.340	0.440	1.810
2020/01/31 23:45:18.5	175.420	-0.370	0.480	1.800
2020/01/31 23:45:18.6	175.450	-0.410	0.520	1.790
2020/01/31 23:45:18.7	175.470	-0.440	0.550	1.780
2020/01/31 23:45:18.8	175.490	-0.460	0.570	1.770
2020/01/31 23:45:18.9	175.510	-0.480	0.580	1.760
2020/01/31 23:45:19.0	175.530	-0.500	0.580	1.750
2020/01/31 23:45:19.1	175.560	-0.510	0.570	1.740
2020/01/31 23:45:19.2	175.580	-0.510	0.550	1.720
2020/01/31 23:45:19.3	175.590	-0.510	0.520	1.710
2020/01/31 23:45:19.4	175.610	-0.500	0.480	1.700
2020/01/31 23:45:19.5	175.620	-0.490	0.430	1.690
2020/01/31 23:45:19.6	175.620	-0.470	0.380	1.680
2020/01/31 23:45:19.7	175.630	-0.450	0.310	1.670
2020/01/31 23:45:19.8	175.630	-0.420	0.240	1.660
2020/01/31 23:45:19.9	175.630	-0.390	0.160	1.650
2020/01/31 23:45:20.0	175.630	-0.360	0.070	1.650
2020/01/31 23:45:20.1	175.640	-0.320	-0.010	1.640
2020/01/31 23:45:20.2	175.630	-0.270	-0.110	1.640
2020/01/31 23:45:20.3	175.620	-0.230	-0.200	1.640
2020/01/31 23:45:20.4	175.610	-0.180	-0.300	1.640
2020/01/31 23:45:20.5	175.600	-0.130	-0.400	1.640
2020/01/31 23:45:20.6	175.590	-0.070	-0.500	1.640
2020/01/31 23:45:20.7	175.570	-0.020	-0.590	1.650
2020/01/31 23:45:20.8	175.560	0.030	-0.680	1.650
2020/01/31 23:45:20.9	175.540	0.080	-0.770	1.660
2020/01/31 23:45:21.0	175.520	0.130	-0.860	1.670
2020/01/31 23:45:21.1	175.490	0.180	-0.940	1.670
2020/01/31 23:45:21.2	175.480	0.230	-1.010	1.680
2020/01/31 23:45:21.3	175.460	0.280	-1.080	1.690
2020/01/31 23:45:21.4	175.450	0.320	-1.140	1.700
2020/01/31 23:45:21.5	175.430	0.360	-1.190	1.700
2020/01/31 23:45:21.6	175.420	0.390	-1.230	1.710
2020/01/31 23:45:21.7	175.400	0.420	-1.260	1.720
2020/01/31 23:45:21.8	175.390	0.450	-1.290	1.720
2020/01/31 23:45:21.9	175.380	0.470	-1.300	1.720
2020/01/31 23:45:22.0	175.350	0.490	-1.310	1.720
2020/01/31 23:45:22.1	175.340	0.500	-1.300	1.720
2020/01/31 23:45:22.2	175.340	0.500	-1.290	1.720
2020/01/31 23:45:22.3	175.340	0.510	-1.260	1.710
2020/01/31 23:45:22.4	175.330	0.500	-1.230	1.710
2020/01/31 23:45:22.5	175.330	0.490	-1.190	1.700
2020/01/31 23:45:22.6	175.330	0.480	-1.140	1.690
2020/01/31 23:45:22.7	175.340	0.460	-1.090	1.680
2020/01/31 23:45:22.8	175.340	0.440	-1.020	1.670
2020/01/31 23:45:22.9	175.340	0.410	-0.950	1.660
2020/01/31 23:45:23.0	175.350	0.390	-0.880	1.650
2020/01/31 23:45:23.1	175.370	0.350	-0.800	1.640
2020/01/31 23:45:23.2	175.380	0.320	-0.710	1.630
2020/01/31 23:45:23.3	175.390	0.280	-0.630	1.620
2020/01/31 23:45:23.4	175.390	0.240	-0.540	1.600
2020/01/31 23:45:23.5	175.400	0.190	-0.450	1.590
2020/01/31 23:45:23.6	175.410	0.150	-0.360	1.580
2020/01/31 23:45:23.7	175.420	0.100	-0.270	1.570
2020/01/31 23:45:23.8	175.430	0.060	-0.190	1.570
2020/01/31 23:45:23.9	175.440	0.010	-0.100	1.560
2020/01/31 23:45:24.0	175.450	-0.040	-0.020	1.550
2020/01/31 23:45:24.1	175.470	-0.080	0.050	1.550
2020/01/31 23:45:24.2	175.480	-0.120	0.120	1.550
2020/01/31 23:45:24.3	175.490	-0.170	0.180	1.550
2020/01/31 23:45:24.4	175.500	-0.210	0.240	1.550
2020/01/31 23:45:24.5	175.510	-0.250	0.290	1.550
2020/01/31 23:45:24.6	175.510	-0.280	0.330	1.550
2020/01/31 23:45:24.7	175.520	-0.320	0.360	1.550
2020/01/31 23:45:24.8	175.530	-0.350	0.390	1.550
2020/01/31 23:45:24.9	175.540	-0.380	0.400	1.550
2020/01/31 23:45:25.0	175.550	-0.410	0.420	1.560
2020/01/31 23:45:25.1	175.560	-0.430	0.420	1.560
2020/01/31 23:45:25.2	175.570	-0.450	0.410	1.560
2020/01/31 23:45:25.3	175.580	-0.470	0.400	1.560
2020/01/31 23:45:25.4	175.590	-0.490	0.390	1.560
2020/01/31 23:45:25.5	175.600	-0.500	0.370	1.570
2020/01/31 23:45:25.6	175.610	-0.510	0.340	1.570
2020/01/31 23:45:25.7	175.610	-0.520	0.310	1.570
2020/01/31 23:45:25.8	175.620	-0.530	0.280	1.570
2020/01/31 23:45:25.9	175.630	-0.530	0.240	1.580
2020/01/31 23:45:26.0	175.640	-0.530	0.200	1.580
2020/01/31 23:45:26.1	175.640	-0.530	0.160	1.580
2020/01/31 23:45:26.2	175.650	-0.530	0.120	1.590
2020/01/31 23:45:26.3	175.660	-0.520	0.070	1.590
2020/01/31 23:45:26.4	175.670	-0.510	0.030	1.590
2020/01/31 23:45:26.5	175.680	-0.500	-0.010	1.590
2020/01/31 23:45:26.6	175.690	-0.490	-0.040	1.600
2020/01/31 23:45:26.7	175.700	-0.480	-0.080	1.600
2020/01/31 23:45:26.8	175.710	-0.470	-0.110	1.610
2020/01/31 23:45:26.9	175.720	-0.450	-0.140	1.610
2020/01/31 23:45:27.0	175.730	-0.430	-0.160	1.620
2020/01/31 23:45:27.1	175.750	-0.410	-0.180	1.630
2020/01/31 23:45:27.2	175.750	-0.400	-0.200	1.630
2020/01/31 23:45:27.3	175.760	-0.380	-0.210	1.640
2020/01/31 23:45:27.4	175.760	-0.350	-0.210	1.650
2020/01/31 23:45:27.5	175.760	-0.330	-0.210	1.660
2020/01/31 23:45:27.6	175.760	-0.310	-0.210	1.670
2020/01/31 23:45:27.7	175.760	-0.290	-0.200	1.680
2020/01/31 23:45:27.8	175.760	-0.260	-0.190	1.690
2020/01/31 23:45:27.9	175.750	-0.240	-0.170	1.700
2020/01/31 23:45:28.0	175.750	-0.210	-0.150	1.700
2020/01/31 23:45:28.1	175.740	-0.180	-0.130	1.720
2020/01/31 23:45:28.2	175.730	-0.150	-0.110	1.730
2020/01/31 23:45:28.3	175.720	-0.130	-0.090	1.740
2020/01/31 23:45:28.4	175.700	-0.100	-0.060	1.740
2020/01/31 23:45:28.5	175.680	-0.070	-0.040	1.750
2020/01/31 23:45:28.6	175.670	-0.040	-0.010	1.750
2020/01/31 23:45:28.7	175.650	-0.010	0.010	1.760
2020/01/31 23:45:28.8	175.630	0.020	0.040	1.760
2020/01/31 23:45:28.9	175.610	0.050	0.060	1.760
2020/01/31 23:45:29.0	175.580	0.080	0.080	1.760
2020/01/31 23:45:29.1	175.550	0.110	0.100	1.750
2020/01/31 23:45:29.2	175.530	0.140	0.120	1.750
2020/01/31 23:45:29.3	175.510	0.170	0.130	1.740
2020/01/31 23:45:29.4	175.490	0.200	0.140	1.730
2020/01/31 23:45:29.5	175.480	0.230	0.140	1.720
2020/01/31 23:45:29.6	175.460	0.260	0.140	1.710
2020/01/31 23:45:29.7	175.440	0.280	0.140	1.690
2020/01/31 23:45:29.8	175.420	0.310	0.130	1.670
2020/01/31 23:45:29.9	175.410	0.340	0.120	1.650
2020/01/31 23:45:30.0	175.390	0.360	0.110	1.630
2020/01/31 23:45:30.1	175.370	0.390	0.090	1.610
2020/01/31 23:45:30.2	175.360	0.410	0.070	1.590
2020/01/31 23:45:30.3	175.340	0.430	0.040	1.570
2020/01/31 23:45:30.4	175.330	0.460	0.010	1.550
2020/01/31 23:45:30.5	175.320	0.470	-0.020	1.530
2020/01/31 23:45:30.6	175.310	0.490	-0.060	1.510
2020/01/31 23:45:30.7	175.300	0.510	-0.100	1.490
2020/01/31 23:45:30.8	175.290	0.520	-0.140	1.480
2020/01/31 23:45:30.9	175.280	0.530	-0.170	1.460
2020/01/31 23:45:31.0	175.270	0.540	-0.220	1.450
2020/01/31 23:45:31.1	175.260	0.540	-0.260	1.430
2020/01/31 23:45:31.2	175.250	0.550	-0.300	1.420
2020/01/31 23:45:31.3	175.250	0.550	-0.340	1.420
2020/01/31 23:45:31.4	175.240	0.540	-0.370	1.410
2020/01/31 23:45:31.5	175.240	0.540	-0.410	1.410
2020/01/31 23:45:31.6	175.240	0.530	-0.450	1.410
2020/01/31 23:45:31.7	175.240	0.520	-0.480	1.410
2020/01/31 23:45:31.8	175.240	0.510	-0.510	1.410
2020/01/31 23:45:31.9	175.240	0.500	-0.540	1.410
2020/01/31 23:45:32.0	175.220	0.480	-0.560	1.420
2020/01/31 23:45:32.1	175.220	0.470	-0.590	1.420
2020/01/31 23:45:32.2	175.230	0.450	-0.610	1.430
2020/01/31 23:45:32.3	175.230	0.430	-0.630	1.440
2020/01/31 23:45:32.4	175.240	0.410	-0.640	1.450
2020/01/31 23:45:32.5	175.240	0.380	-0.650	1.460
2020/01/31 23:45:32.6	175.250	0.360	-0.660	1.460
2020/01/31 23:45:32.7	175.260	0.330	-0.670	1.470
2020/01/31 23:45:32.8	175.270	0.310	-0.680	1.490
2020/01/31 23:45:32.9	175.280	0.280	-0.680	1.500
2020/01/31 23:45:33.0	175.290	0.260	-0.680	1.510
2020/01/31 23:45:33.1	175.300	0.230	-0.690	1.520
2020/01/31 23:45:33.2	175.310	0.200	-0.680	1.530
2020/01/31 23:45:33.3	175.320	0.180	-0.680	1.540
2020/01/31 23:45:33.4	175.330	0.150	-0.670	1.550
2020/01/31 23:45:33.5	175.340	0.130	-0.670	1.560
2020/01/31 23:45:33.6	175.360	0.100	-0.660	1.570
2020/01/31 23:45:33.7	175.370	0.080	-0.650	1.580
2020/01/31 23:45:33.8	175.380	0.050	-0.640	1.600
2020/01/31 23:45:33.9	175.400	0.030	-0.620	1.610
2020/01/31 23:45:34.0	175.410	0.010	-0.610	1.620
2020/01/31 23:45:34.1	175.420	-0.010	-0.600	1.640
2020/01/31 23:45:34.2	175.430	-0.030	-0.580	1.650
2020/01/31 23:45:34.3	175.440	-0.050	-0.560	1.670
2020/01/31 23:45:34.4	175.450	-0.070	-0.540	1.690
2020/01/31 23:45:34.5	175.460	-0.090	-0.520	1.710
2020/01/31 23:45:34.6	175.470	-0.110	-0.500	1.730
2020/01/31 23:45:34.7	175.470	-0.120	-0.480	1.750
2020/01/31 23:45:34.8	175.480	-0.140	-0.460	1.770
2020/01/31 23:45:34.9	175.480	-0.150	-0.440	1.800
2020/01/31 23:45:35.0	175.480	-0.170	-0.420	1.830
2020/01/31 23:45:35.1	175.490	-0.180	-0.400	1.860
2020/01/31 23:45:35.2	175.490	-0.190	-0.380	1.890
2020/01/31 23:45:35.3	175.480	-0.200	-0.360	1.920
2020/01/31 23:45:35.4	175.480	-0.210	-0.340	1.950
2020/01/31 23:45:35.5	175.470	-0.230	-0.330	1.990
2020/01/31 23:45:35.6	175.470	-0.240	-0.310	2.020
2020/01/31 23:45:35.7	175.460	-0.240	-0.300	2.050
2020/01/31 23:45:35.8	175.450	-0.250	-0.290	2.080
2020/01/31 23:45:35.9	175.450	-0.260	-0.280	2.110
2020/01/31 23:45:36.0	175.440	-0.270	-0.270	2.130
2020/01/31 23:45:36.1	175.440	-0.280	-0.250	2.160
2020/01/31 23:45:36.2	175.430	-0.290	-0.250	2.180
2020/01/31 23:45:36.3	175.430	-0.290	-0.240	2.200
2020/01/31 23:45:36.4	175.430	-0.300	-0.240	2.210
2020/01/31 23:45:36.5	175.420	-0.300	-0.230	2.220
2020/01/31 23:45:36.6	175.420	-0.310	-0.230	2.230
2020/01/31 23:45:36.7	175.430	-0.310	-0.220	2.230
2020/01/31 23:45:36.8	175.430	-0.310	-0.220	2.220
2020/01/31 23:45:36.9	175.430	-0.320	-0.220	2.220
2020/01/31 23:45:37.0	175.440	-0.320	-0.220	2.210
2020/01/31 23:45:37.1	175.450	-0.320	-0.220	2.190
2020/01/31 23:45:37.2	175.460	-0.320	-0.220	2.180
2020/01/31 23:45:37.3	175.470	-0.310	-0.220	2.160
2020/01/31 23:45:37.4	175.470	-0.310	-0.220	2.140
2020/01/31 23:45:37.5	175.480	-0.310	-0.220	2.120
2020/01/31 23:45:37.6	175.490	-0.300	-0.210	2.090
2020/01/31 23:45:37.7	175.500	-0.290	-0.210	2.070
2020/01/31 23:45:37.8	175.510	-0.290	-0.210	2.050
2020/01/31 23:45:37.9	175.520	-0.280	-0.210	2.020
2020/01/31 23:45:38.0	175.530	-0.270	-0.210	2.000
2020/01/31 23:45:38.1	175.530	-0.260	-0.210	1.980
2020/01/31 23:45:38.2	175.540	-0.240	-0.210	1.960
2020/01/31 23:45:38.3	175.540	-0.230	-0.210	1.940
2020/01/31 23:45:38.4	175.550	-0.220	-0.210	1.920
2020/01/31 23:45:38.5	175.550	-0.200	-0.220	1.900
2020/01/31 23:45:38.6	175.550	-0.180	-0.230	1.890
2020/01/31 23:45:38.7	175.550	-0.160	-0.230	1.880
2020/01/31 23:45:38.8	175.540	-0.150	-0.240	1.870
2020/01/31 23:45:38.9	175.530	-0.130	-0.260	1.860
2020/01/31 23:45:39.0	175.530	-0.110	-0.270	1.850
2020/01/31 23:45:39.1	175.510	-0.080	-0.290	1.850
2020/01/31 23:45:39.2	175.500	-0.060	-0.300	1.840
2020/01/31 23:45:39.3	175.480	-0.040	-0.320	1.840
2020/01/31 23:45:39.4	175.460	-0.020	-0.340	1.840
2020/01/31 23:45:39.5	175.440	0.000	-0.360	1.840
2020/01/31 23:45:39.6	175.410	0.030	-0.380	1.840
2020/01/31 23:45:39.7	175.390	0.050	-0.400	1.840
2020/01/31 23:45:39.8	175.360	0.070	-0.420	1.840
2020/01/31 23:45:39.9	175.330	0.090	-0.440	1.840
2020/01/31 23:45:40.0	175.300	0.110	-0.460	1.840
2020/01/31 23:45:40.1	175.250	0.120	-0.470	1.840
2020/01/31 23:45:40.2	175.220	0.140	-0.490	1.850
2020/01/31 23:45:40.3	175.180	0.150	-0.500	1.850
2020/01/31 23:45:40.4	175.150	0.170	-0.500	1.850
2020/01/31 23:45:40.5	175.120	0.180	-0.510	1.850
2020/01/31 23:45:40.6	175.080	0.180	-0.510	1.850
2020/01/31 23:45:40.7	175.050	0.190	-0.500	1.850
2020/01/31 23:45:40.8	175.020	0.190	-0.490	1.850
2020/01/31 23:45:40.9	174.990	0.190	-0.470	1.850
2020/01/31 23:45:41.0	174.970	0.180	-0.450	1.860
2020/01/31 23:45:41.1	174.950	0.180	-0.430	1.860
2020/01/31 23:45:41.2	174.920	0.170	-0.400	1.860
2020/01/31 23:45:41.3	174.910	0.160	-0.360	1.860
2020/01/31 23:45:41.4	174.890	0.140	-0.320	1.870
2020/01/31 23:45:41.5	174.880	0.120	-0.270	1.870
2020/01/31 23:45:41.6	174.870	0.100	-0.220	1.870
2020/01/31 23:45:41.7	174.870	0.080	-0.170	1.870
2020/01/31 23:45:41.8	174.870	0.050	-0.110	1.870
2020/01/31 23:45:41.9	174.870	0.030	-0.050	1.870
2020/01/31 23:45:42.0	174.880	-0.000	0.010	1.860
2020/01/31 23:45:42.1	174.890	-0.030	0.070	1.860
2020/01/31 23:45:42.2	174.900	-0.060	0.140	1.850
2020/01/31 23:45:42.3	174.920	-0.090	0.200	1.840
2020/01/31 23:45:42.4	174.940	-0.120	0.270	1.820
2020/01/31 23:45:42.5	174.970	-0.150	0.330	1.810
2020/01/31 23:45:42.6	174.990	-0.190	0.400	1.790
2020/01/31 23:45:42.7	175.020	-0.220	0.460	1.760
2020/01/31 23:45:42.8	175.050	-0.240	0.510	1.740
2020/01/31 23:45:42.9	175.090	-0.270	0.560	1.710
2020/01/31 23:45:43.0	175.120	-0.300	0.610	1.680
2020/01/31 23:45:43.1	175.170	-0.320	0.650	1.650
2020/01/31 23:45:43.2	175.200	-0.340	0.680	1.620
2020/01/31 23:45:43.3	175.240	-0.360	0.710	1.590
2020/01/31 23:45:43.4	175.280	-0.370	0.730	1.560
2020/01/31 23:45:43.5	175.310	-0.380	0.740	1.530
2020/01/31 23:45:43.6	175.340	-0.390	0.740	1.500
2020/01/31 23:45:43.7	175.380	-0.390	0.730	1.470
2020/01/31 23:45:43.8	175.400	-0.390	0.720	1.440
2020/01/31 23:45:43.9	175.430	-0.380	0.690	1.410
2020/01/31 23:45:44.0	175.450	-0.370	0.660	1.390
2020/01/31 23:45:44.1	175.480	-0.350	0.610	1.370
2020/01/31 23:45:44.2	175.500	-0.330	0.560	1.350
2020/01/31 23:45:44.3	175.510	-0.310	0.500	1.340
2020/01/31 23:45:44.4	175.520	-0.280	0.430	1.330
2020/01/31 23:45:44.5	175.520	-0.250	0.360	1.330
2020/01/31 23:45:44.6	175.520	-0.210	0.270	1.330
2020/01/31 23:45:44.7	175.520	-0.170	0.180	1.330
2020/01/31 23:45:44.8	175.510	-0.130	0.090	1.340
2020/01/31 23:45:44.9	175.500	-0.080	-0.000	1.360
2020/01/31 23:45:45.0	175.490	-0.040	-0.100	1.380
2020/01/31 23:45:45.1	175.480	0.010	-0.200	1.400
2020/01/31 23:45:45.2	175.470	0.060	-0.300	1.430
2020/01/31 23:45:45.3	175.450	0.110	-0.390	1.460
2020/01/31 23:45:45.4	175.430	0.160	-0.490	1.500
2020/01/31 23:45:45.5	175.410	0.210	-0.580	1.530
2020/01/31 23:45:45.6	175.390	0.260	-0.670	1.570
2020/01/31 23:45:45.7	175.360	0.310	-0.750	1.600
2020/01/31 23:45:45.8	175.340	0.350	-0.830	1.640
2020/01/31 23:45:45.9	175.320	0.390	-0.900	1.680
2020/01/31 23:45:46.0	175.300	0.430	-0.960	1.710
2020/01/31 23:45:46.1	175.280	0.470	-1.030	1.740
2020/01/31 23:45:46.2	175.270	0.500	-1.070	1.770
2020/01/31 23:45:46.3	175.250	0.530	-1.110	1.800
2020/01/31 23:45:46.4	175.250	0.560	-1.140	1.820
2020/01/31 23:45:46.5	175.240	0.580	-1.160	1.840
2020/01/31 23:45:46.6	175.240	0.590	-1.170	1.860
2020/01/31 23:45:46.7	175.240	0.610	-1.170	1.870
2020/01/31 23:45:46.8	175.240	0.610	-1.160	1.880
2020/01/31 23:45:46.9	175.240	0.610	-1.140	1.890
2020/01/31 23:45:47.0	175.250	0.610	-1.120	1.890
2020/01/31 23:45:47.1	175.260	0.610	-1.080	1.890
2020/01/31 23:45:47.2	175.270	0.590	-1.040	1.880
2020/01/31 23:45:47.3	175.280	0.580	-0.990	1.880
2020/01/31 23:45:47.4	175.300	0.560	-0.940	1.870
2020/01/31 23:45:47.5	175.310	0.540	-0.880	1.860
2020/01/31 23:45:47.6	175.330	0.510	-0.810	1.840
2020/01/31 23:45:47.7	175.350	0.490	-0.750	1.820
2020/01/31 23:45:47.8	175.370	0.460	-0.680	1.810
2020/01/31 23:45:47.9	175.390	0.420	-0.600	1.790
2020/01/31 23:45:48.0	175.410	0.390	-0.530	1.770
2020/01/31 23:45:48.1	175.420	0.350	-0.460	1.750
2020/01/31 23:45:48.2	175.440	0.320	-0.380	1.730
2020/01/31 23:45:48.3	175.460	0.280	-0.310	1.710
2020/01/31 23:45:48.4	175.480	0.250	-0.240	1.690
2020/01/31 23:45:48.5	175.510	0.220	-0.180	1.670
2020/01/31 23:45:48.6	175.530	0.180	-0.120	1.650
2020/01/31 23:45:48.7	175.550	0.150	-0.060	1.630
2020/01/31 23:45:48.8	175.570	0.120	-0.010	1.610
2020/01/31 23:45:48.9	175.580	0.100	0.040	1.590
2020/01/31 23:45:49.0	175.600	0.070	0.090	1.580
2020/01/31 23:45:49.1	175.620	0.050	0.130	1.560
2020/01/31 23:45:49.2	175.640	0.030	0.160	1.540
2020/01/31 23:45:49.3	175.660	0.010	0.190	1.520
2020/01/31 23:45:49.4	175.680	-0.000	0.210	1.510
2020/01/31 23:45:49.5	175.700	-0.020	0.230	1.490
2020/01/31 23:45:49.6	175.710	-0.030	0.240	1.480
2020/01/31 23:45:49.7	175.730	-0.030	0.250	1.460
2020/01/31 23:45:49.8	175.750	-0.040	0.250	1.450
2020/01/31 23:45:49.9	175.770	-0.040	0.250	1.440
2020/01/31 23:45:50.0	175.780	-0.040	0.240	1.430
2020/01/31 23:45:50.1	175.790	-0.040	0.230	1.420
2020/01/31 23:45:50.2	175.800	-0.040	0.210	1.410
2020/01/31 23:45:50.3	175.810	-0.040	0.190	1.410
2020/01/31 23:45:50.4	175.810	-0.030	0.160	1.410
2020/01/31 23:45:50.5	175.820	-0.030	0.130	1.410
2020/01/31 23:45:50.6	175.820	-0.020	0.100	1.410
2020/01/31 23:45:50.7	175.820	-0.010	0.060	1.420
2020/01/31 23:45:50.8	175.810	-0.010	0.020	1.430
2020/01/31 23:45:50.9	175.810	0.000	-0.030	1.440
2020/01/31 23:45:51.0	175.800	0.010	-0.070	1.450
2020/01/31 23:45:51.1	175.780	0.020	-0.120	1.470
2020/01/31 23:45:51.2	175.770	0.030	-0.170	1.490
2020/01/31 23:45:51.3	175.750	0.030	-0.220	1.510
2020/01/31 23:45:51.4	175.730	0.040	-0.280	1.530
2020/01/31 23:45:51.5	175.710	0.050	-0.330	1.560
2020/01/31 23:45:51.6	175.690	0.050	-0.380	1.580
2020/01/31 23:45:51.7	175.670	0.050	-0.430	1.610
2020/01/31 23:45:51.8	175.650	0.060	-0.480	1.640
2020/01/31 23:45:51.9	175.630	0.060	-0.530	1.670
2020/01/31 23:45:52.0	175.610	0.050	-0.570	1.700
2020/01/31 23:45:52.1	175.590	0.050	-0.620	1.730
2020/01/31 23:45:52.2	175.570	0.050	-0.650	1.760
2020/01/31 23:45:52.3	175.550	0.040	-0.690	1.800
2020/01/31 23:45:52.4	175.530	0.030	-0.720	1.830
2020/01/31 23:45:52.5	175.510	0.020	-0.740	1.860
2020/01/31 23:45:52.6	175.490	0.010	-0.760	1.900
2020/01/31 23:45:52.7	175.470	-0.010	-0.780	1.930
2020/01/31 23:45:52.8	175.460	-0.020	-0.790	1.960
2020/01/31 23:45:52.9	175.440	-0.040	-0.790	1.990
2020/01/31 23:45:53.0	175.430	-0.060	-0.790	2.020
2020/01/31 23:45:53.1	175.420	-0.080	-0.780	2.050
2020/01/31 23:45:53.2	175.400	-0.100	-0.770	2.080
2020/01/31 23:45:53.3	175.390	-0.120	-0.750	2.100
2020/01/31 23:45:53.4	175.380	-0.140	-0.720	2.120
2020/01/31 23:45:53.5	175.380	-0.170	-0.690	2.150
2020/01/31 23:45:53.6	175.370	-0.190	-0.650	2.160
2020/01/31 23:45:53.7	175.370	-0.210	-0.610	2.180
2020/01/31 23:45:53.8	175.360	-0.240	-0.570	2.190
2020/01/31 23:45:53.9	175.360	-0.260	-0.520	2.200
2020/01/31 23:45:54.0	175.360	-0.290	-0.470	2.200
2020/01/31 23:45:54.1	175.370	-0.310	-0.420	2.210
2020/01/31 23:45:54.2	175.370	-0.330	-0.370	2.210
2020/01/31 23:45:54.3	175.370	-0.350	-0.320	2.200
2020/01/31 23:45:54.4	175.370	-0.370	-0.260	2.200
2020/01/31 23:45:54.5	175.380	-0.390	-0.210	2.180
2020/01/31 23:45:54.6	175.380	-0.400	-0.160	2.170
2020/01/31 23:45:54.7	175.390	-0.420	-0.110	2.150
2020/01/31 23:45:54.8	175.390	-0.430	-0.060	2.140
2020/01/31 23:45:54.9	175.390	-0.440	-0.020	2.110
2020/01/31 23:45:55.0	175.400	-0.450	0.020	2.090
2020/01/31 23:45:55.1	175.400	-0.450	0.050	2.060
2020/01/31 23:45:55.2	175.400	-0.460	0.080	2.040
2020/01/31 23:45:55.3	175.400	-0.460	0.110	2.010
2020/01/31 23:45:55.4	175.410	-0.450	0.130	1.980
2020/01/31 23:45:55.5	175.410	-0.450	0.140	1.940
2020/01/31 23:45:55.6	175.410	-0.440	0.150	1.910
2020/01/31 23:45:55.7	175.410	-0.420	0.150	1.880
2020/01/31 23:45:55.8	175.410	-0.410	0.140	1.840
2020/01/31 23:45:55.9	175.400	-0.390	0.130	1.810
2020/01/31 23:45:56.0	175.400	-0.360	0.100	1.770
2020/01/31 23:45:56.1	175.400	-0.340	0.070	1.740
2020/01/31 23:45:56.2	175.390	-0.310	0.040	1.700
2020/01/31 23:45:56.3	175.380	-0.270	0.000	1.670
2020/01/31 23:45:56.4	175.370	-0.240	-0.050	1.640
2020/01/31 23:45:56.5	175.360	-0.200	-0.100	1.610
2020/01/31 23:45:56.6	175.350	-0.160	-0.150	1.580
2020/01/31 23:45:56.7	175.330	-0.120	-0.210	1.560
2020/01/31 23:45:56.8	175.310	-0.070	-0.270	1.540
2020/01/31 23:45:56.9	175.280	-0.030	-0.340	1.520
2020/01/31 23:45:57.0	175.260	0.020	-0.410	1.510
2020/01/31 23:45:57.1	175.230	0.060	-0.470	1.490
2020/01/31 23:45:57.2	175.200	0.110	-0.540	1.480
2020/01/31 23:45:57.3	175.170	0.150	-0.600	1.480
2020/01/31 23:45:57.4	175.140	0.200	-0.670	1.480
2020/01/31 23:45:57.5	175.110	0.240	-0.730	1.480
2020/01/31 23:45:57.6	175.080	0.270	-0.780	1.480
2020/01/31 23:45:57.7	175.050	0.310	-0.830	1.490
2020/01/31 23:45:57.8	175.020	0.340	-0.870	1.500
2020/01/31 23:45:57.9	174.990	0.360	-0.910	1.510
2020/01/31 23:45:58.0	174.960	0.390	-0.930	1.520
2020/01/31 23:45:58.1	174.950	0.400	-0.960	1.530
2020/01/31 23:45:58.2	174.930	0.410	-0.970	1.540
2020/01/31 23:45:58.3	174.910	0.420	-0.970	1.550
2020/01/31 23:45:58.4	174.900	0.420	-0.960	1.560
2020/01/31 23:45:58.5	174.900	0.420	-0.940	1.570
2020/01/31 23:45:58.6	174.900	0.400	-0.910	1.580
2020/01/31 23:45:58.7	174.900	0.390	-0.870	1.580
2020/01/31 23:45:58.8	174.910	0.360	-0.820	1.590
2020/01/31 23:45:58.9	174.930	0.330	-0.760	1.590
2020/01/31 23:45:59.0	174.940	0.300	-0.690	1.590
2020/01/31 23:45:59.1	174.970	0.260	-0.610	1.590
2020/01/31 23:45:59.2	175.000	0.210	-0.530	1.590
2020/01/31 23:45:59.3	175.030	0.160	-0.440	1.580
2020/01/31 23:45:59.4	175.070	0.110	-0.340	1.580
2020/01/31 23:45:59.5	175.110	0.050	-0.240	1.570
2020/01/31 23:45:59.6	175.150	-0.010	-0.140	1.570
2020/01/31 23:45:59.7	175.200	-0.080	-0.030	1.560
2020/01/31 23:45:59.8	175.250	-0.140	0.070	1.550
2020/01/31 23:45:59.9	175.300	-0.210	0.180	1.550
2020/01/31 23:46:00.0	175.350	-0.280	0.290	1.540
2020/01/31 23:46:00.1	175.400	-0.350	0.390	1.530
2020/01/31 23:46:00.2	175.460	-0.410	0.480	1.530
2020/01/31 23:46:00.3	175.510	-0.480	0.580	1.530
2020/01/31 23:46:00.4	175.570	-0.540	0.670	1.520
2020/01/31 23:46:00.5	175.620	-0.600	0.750	1.520
2020/01/31 23:46:00.6	175.670	-0.660	0.820	1.520
2020/01/31 23:46:00.7	175.730	-0.710	0.890	1.520
2020/01/31 23:46:00.8	175.780	-0.760	0.940	1.530
2020/01/31 23:46:00.9	175.820	-0.800	0.990	1.540
2020/01/31 23:46:01.0	175.870	-0.830	1.020	1.540
2020/01/31 23:46:01.1	175.920	-0.860	1.040	1.560
2020/01/31 23:46:01.2	175.960	-0.880	1.050	1.570
2020/01/31 23:46:01.3	175.990	-0.900	1.050	1.590
2020/01/31 23:46:01.4	176.020	-0.900	1.040	1.600
2020/01/31 23:46:01.5	176.050	-0.900	1.010	1.620
2020/01/31 23:46:01.6	176.080	-0.890	0.980	1.640
2020/01/31 23:46:01.7	176.100	-0.870	0.930	1.660
2020/01/31 23:46:01.8	176.120	-0.840	0.870	1.680
2020/01/31 23:46:01.9	176.130	-0.800	0.810	1.700
2020/01/31 23:46:02.0	176.140	-0.760	0.730	1.720
2020/01/31 23:46:02.1	176.150	-0.710	0.640	1.740
2020/01/31 23:46:02.2	176.150	-0.650	0.560	1.760
2020/01/31 23:46:02.3	176.150	-0.590	0.460	1.780
2020/01/31 23:46:02.4	176.150	-0.520	0.360	1.790
2020/01/31 23:46:02.5	176.140	-0.440	0.260	1.810
2020/01/31 23:46:02.6	176.130	-0.360	0.150	1.820
2020/01/31 23:46:02.7	176.110	-0.280	0.050	1.830
2020/01/31 23:46:02.8	176.100	-0.190	-0.060	1.840
2020/01/31 23:46:02.9	176.080	-0.100	-0.170	1.850
2020/01/31 23:46:03.0	176.060	-0.010	-0.270	1.850
2020/01/31 23:46:03.1	176.040	0.080	-0.370	1.860
2020/01/31 23:46:03.2	176.020	0.170	-0.460	1.860
2020/01/31 23:46:03.3	175.990	0.260	-0.550	1.860
2020/01/31 23:46:03.4	175.960	0.350	-0.640	1.860
2020/01/31 23:46:03.5	175.940	0.430	-0.720	1.860
2020/01/31 23:46:03.6	175.910	0.520	-0.790	1.860
2020/01/31 23:46:03.7	175.880	0.600	-0.850	1.850
2020/01/31 23:46:03.8	175.850	0.670	-0.910	1.850
2020/01/31 23:46:03.9	175.820	0.740	-0.960	1.840
2020/01/31 23:46:04.0	175.790	0.810	-1.000	1.830
2020/01/31 23:46:04.1	175.770	0.870	-1.030	1.810
2020/01/31 23:46:04.2	175.740	0.920	-1.050	1.800
2020/01/31 23:46:04.3	175.720	0.970	-1.070	1.790
2020/01/31 23:46:04.4	175.690	1.010	-1.080	1.770
2020/01/31 23:46:04.5	175.670	1.050	-1.070	1.750
2020/01/31 23:46:04.6	175.640	1.070	-1.070	1.730
2020/01/31 23:46:04.7	175.620	1.100	-1.050	1.700
2020/01/31 23:46:04.8	175.600	1.110	-1.030	1.680
2020/01/31 23:46:04.9	175.590	1.110	-1.000	1.650
2020/01/31 23:46:05.0	175.570	1.110	-0.960	1.630
2020/01/31 23:46:05.1	175.560	1.100	-0.920	1.600
2020/01/31 23:46:05.2	175.550	1.090	-0.870	1.570
2020/01/31 23:46:05.3	175.540	1.070	-0.820	1.540
2020/01/31 23:46:05.4	175.540	1.040	-0.760	1.510
2020/01/31 23:46:05.5	175.530	1.010	-0.700	1.480
2020/01/31 23:46:05.6	175.530	0.960	-0.640	1.450
2020/01/31 23:46:05.7	175.530	0.920	-0.570	1.420
2020/01/31 23:46:05.8	175.530	0.870	-0.500	1.390
2020/01/31 23:46:05.9	175.540	0.810	-0.430	1.360
2020/01/31 23:46:06.0	175.550	0.750	-0.370	1.340
2020/01/31 23:46:06.1	175.560	0.690	-0.300	1.320
2020/01/31 23:46:06.2	175.560	0.630	-0.230	1.300
2020/01/31 23:46:06.3	175.570	0.560	-0.160	1.280
2020/01/31 23:46:06.4	175.580	0.490	-0.100	1.270
2020/01/31 23:46:06.5	175.590	0.420	-0.040	1.260
2020/01/31 23:46:06.6	175.600	0.340	0.020	1.250
2020/01/31 23:46:06.7	175.610	0.270	0.070	1.240
2020/01/31 23:46:06.8	175.620	0.200	0.120	1.240
2020/01/31 23:46:06.9	175.630	0.130	0.160	1.240
2020/01/31 23:46:07.0	175.640	0.060	0.200	1.240
2020/01/31 23:46:07.1	175.660	-0.010	0.230	1.240
2020/01/31 23:46:07.2	175.670	-0.080	0.250	1.250
2020/01/31 23:46:07.3	175.690	-0.140	0.270	1.260
2020/01/31 23:46:07.4	175.700	-0.200	0.280	1.270
2020/01/31 23:46:07.5	175.710	-0.250	0.280	1.280
2020/01/31 23:46:07.6	175.720	-0.300	0.280	1.290
2020/01/31 23:46:07.7	175.740	-0.350	0.270	1.310
2020/01/31 23:46:07.8	175.750	-0.390	0.250	1.330
2020/01/31 23:46:07.9	175.760	-0.420	0.230	1.350
2020/01/31 23:46:08.0	175.770	-0.450	0.200	1.370
2020/01/31 23:46:08.1	175.770	-0.480	0.170	1.400
2020/01/31 23:46:08.2	175.770	-0.500	0.130	1.420
2020/01/31 23:46:08.3	175.780	-0.510	0.090	1.450
2020/01/31 23:46:08.4	175.780	-0.520	0.040	1.470
2020/01/31 23:46:08.5	175.790	-0.520	-0.010	1.500
2020/01/31 23:46:08.6	175.790	-0.520	-0.060	1.530
2020/01/31 23:46:08.7	175.790	-0.510	-0.120	1.550
2020/01/31 23:46:08.8	175.790	-0.500	-0.170	1.580
2020/01/31 23:46:08.9	175.790	-0.480	-0.230	1.610
2020/01/31 23:46:09.0	175.790	-0.460	-0.290	1.630
2020/01/31 23:46:09.1	175.780	-0.430	-0.340	1.650
2020/01/31 23:46:09.2	175.770	-0.400	-0.400	1.680
2020/01/31 23:46:09.3	175.770	-0.370	-0.450	1.700
2020/01/31 23:46:09.4	175.760	-0.340	-0.500	1.730
2020/01/31 23:46:09.5	175.750	-0.300	-0.550	1.750
2020/01/31 23:46:09.6	175.740	-0.260	-0.600	1.780
2020/01/31 23:46:09.7	175.730	-0.220	-0.640	1.800
2020/01/31 23:46:09.8	175.720	-0.180	-0.680	1.820
2020/01/31 23:46:09.9	175.700	-0.140	-0.720	1.850
2020/01/31 23:46:10.0	175.680	-0.100	-0.750	1.870
2020/01/31 23:46:10.1	175.660	-0.050	-0.780	1.900
2020/01/31 23:46:10.2	175.640	-0.010	-0.800	1.920
2020/01/31 23:46:10.3	175.610	0.030	-0.820	1.940
2020/01/31 23:46:10.4	175.590	0.070	-0.840	1.960
2020/01/31 23:46:10.5	175.560	0.110	-0.850	1.990
2020/01/31 23:46:10.6	175.530	0.150	-0.860	2.010
2020/01/31 23:46:10.7	175.510	0.180	-0.860	2.030
2020/01/31 23:46:10.8	175.480	0.210	-0.870	2.050
2020/01/31 23:46:10.9	175.450	0.250	-0.860	2.060
2020/01/31 23:46:11.0	175.420	0.270	-0.860	2.070
2020/01/31 23:46:11.1	175.400	0.300	-0.840	2.090
2020/01/31 23:46:11.2	175.370	0.320	-0.830	2.090
2020/01/31 23:46:11.3	175.350	0.340	-0.810	2.100
2020/01/31 23:46:11.4	175.320	0.360	-0.790	2.100
2020/01/31 23:46:11.5	175.300	0.370	-0.770	2.100
2020/01/31 23:46:11.6	175.280	0.380	-0.740	2.090
2020/01/31 23:46:11.7	175.260	0.380	-0.710	2.080
2020/01/31 23:46:11.8	175.240	0.380	-0.680	2.070
2020/01/31 23:46:11.9	175.230	0.380	-0.650	2.050
2020/01/31 23:46:12.0	175.220	0.380	-0.610	2.030
2020/01/31 23:46:12.1	175.210	0.370	-0.570	2.000
2020/01/31 23:46:12.2	175.200	0.360	-0.530	1.970
2020/01/31 23:46:12.3	175.200	0.340	-0.480	1.950
2020/01/31 23:46:12.4	175.200	0.320	-0.440	1.910
2020/01/31 23:46:12.5	175.200	0.300	-0.390	1.880
2020/01/31 23:46:12.6	175.200	0.270	-0.340	1.850
2020/01/31 23:46:12.7	175.210	0.250	-0.290	1.810
2020/01/31 23:46:12.8	175.220	0.220	-0.240	1.770
2020/01/31 23:46:12.9	175.230	0.180	-0.190	1.740
2020/01/31 23:46:13.0	175.230	0.150	-0.130	1.700
2020/01/31 23:46:13.1	175.250	0.110	-0.080	1.660
2020/01/31 23:46:13.2	175.270	0.070	-0.030	1.630
2020/01/31 23:46:13.3	175.290	0.030	0.020	1.590
2020/01/31 23:46:13.4	175.310	-0.010	0.060	1.560
2020/01/31 23:46:13.5	175.340	-0.060	0.110	1.520
2020/01/31 23:46:13.6	175.360	-0.100	0.150	1.490
2020/01/31 23:46:13.7	175.390	-0.140	0.190	1.460
2020/01/31 23:46:13.8	175.410	-0.190	0.220	1.430
2020/01/31 23:46:13.9	175.440	-0.230	0.250	1.410
2020/01/31 23:46:14.0	175.480	-0.270	0.270	1.380
2020/01/31 23:46:14.1	175.500	-0.310	0.300	1.360
2020/01/31 23:46:14.2	175.530	-0.350	0.310	1.340
2020/01/31 23:46:14.3	175.550	-0.390	0.320	1.330
2020/01/31 23:46:14.4	175.570	-0.430	0.330	1.320
2020/01/31 23:46:14.5	175.590	-0.460	0.330	1.310
2020/01/31 23:46:14.6	175.610	-0.490	0.330	1.310
2020/01/31 23:46:14.7	175.630	-0.520	0.320	1.300
2020/01/31 23:46:14.8	175.640	-0.540	0.310	1.310
2020/01/31 23:46:14.9	175.660	-0.570	0.290	1.310
2020/01/31 23:46:15.0	175.670	-0.580	0.260	1.320
2020/01/31 23:46:15.1	175.680	-0.600	0.240	1.330
2020/01/31 23:46:15.2	175.690	-0.610	0.210	1.340
2020/01/31 23:46:15.3	175.690	-0.610	0.170	1.360
2020/01/31 23:46:15.4	175.700	-0.620	0.140	1.370
2020/01/31 23:46:15.5	175.700	-0.610	0.100	1.390
2020/01/31 23:46:15.6	175.700	-0.610	0.050	1.410
2020/01/31 23:46:15.7	175.700	-0.600	0.010	1.430
2020/01/31 23:46:15.8	175.690	-0.590	-0.040	1.440
2020/01/31 23:46:15.9	175.690	-0.570	-0.090	1.460
2020/01/31 23:46:16.0	175.680	-0.550	-0.140	1.480
2020/01/31 23:46:16.1	175.680	-0.530	-0.190	1.500
2020/01/31 23:46:16.2	175.670	-0.500	-0.240	1.510
2020/01/31 23:46:16.3	175.660	-0.470	-0.290	1.530
2020/01/31 23:46:16.4	175.650	-0.440	-0.340	1.540
2020/01/31 23:46:16.5	175.630	-0.410	-0.390	1.560
2020/01/31 23:46:16.6	175.620	-0.370	-0.450	1.570
2020/01/31 23:46:16.7	175.600	-0.340	-0.500	1.580
2020/01/31 23:46:16.8	175.580	-0.300	-0.540	1.600
2020/01/31 23:46:16.9	175.560	-0.260	-0.590	1.610
2020/01/31 23:46:17.0	175.550	-0.220	-0.630	1.620
2020/01/31 23:46:17.1	175.530	-0.190	-0.670	1.630
2020/01/31 23:46:17.2	175.510	-0.150	-0.710	1.650
2020/01/31 23:46:17.3	175.490	-0.110	-0.740	1.660
2020/01/31 23:46:17.4	175.470	-0.080	-0.770	1.670
2020/01/31 23:46:17.5	175.450	-0.040	-0.800	1.670
2020/01/31 23:46:17.6	175.430	-0.010	-0.820	1.680
2020/01/31 23:46:17.7	175.420	0.020	-0.830	1.690
2020/01/31 23:46:17.8	175.400	0.040	-0.840	1.700
2020/01/31 23:46:17.9	175.380	0.070	-0.840	1.710
2020/01/31 23:46:18.0	175.370	0.090	-0.840	1.720
2020/01/31 23:46:18.1	175.340	0.100	-0.830	1.730
2020/01/31 23:46:18.2	175.330	0.120	-0.820	1.730
2020/01/31 23:46:18.3	175.320	0.130	-0.800	1.740
2020/01/31 23:46:18.4	175.310	0.130	-0.780	1.750
2020/01/31 23:46:18.5	175.300	0.140	-0.750	1.750
2020/01/31 23:46:18.6	175.290	0.140	-0.720	1.760
2020/01/31 23:46:18.7	175.280	0.130	-0.680	1.760
2020/01/31 23:46:18.8	175.280	0.130	-0.640	1.760
2020/01/31 23:46:18.9	175.270	0.120	-0.600	1.760
2020/01/31 23:46:19.0	175.270	0.110	-0.550	1.760
2020/01/31 23:46:19.1	175.280	0.090	-0.500	1.760
2020/01/31 23:46:19.2	175.270	0.080	-0.450	1.760
2020/01/31 23:46:19.3	175.270	0.060	-0.400	1.750
2020/01/31 23:46:19.4	175.270	0.040	-0.350	1.740
2020/01/31 23:46:19.5	175.270	0.020	-0.300	1.730
2020/01/31 23:46:19.6	175.270	0.000	-0.240	1.720
2020/01/31 23:46:19.7	175.260	-0.020	-0.190	1.710
2020/01/31 23:46:19.8	175.260	-0.040	-0.140	1.700
2020/01/31 23:46:19.9	175.250	-0.050	-0.100	1.690
2020/01/31 23:46:20.0	175.250	-0.070	-0.050	1.680
2020/01/31 23:46:20.1	175.240	-0.090	-0.010	1.660
2020/01/31 23:46:20.2	175.240	-0.110	0.030	1.650
2020/01/31 23:46:20.3	175.230	-0.120	0.060	1.640
2020/01/31 23:46:20.4	175.220	-0.130	0.090	1.620
2020/01/31 23:46:20.5	175.210	-0.140	0.120	1.610
2020/01/31 23:46:20.6	175.210	-0.140	0.140	1.590
2020/01/31 23:46:20.7	175.200	-0.150	0.160	1.580
2020/01/31 23:46:20.8	175.190	-0.150	0.170	1.560
2020/01/31 23:46:20.9	175.190	-0.140	0.180	1.550
2020/01/31 23:46:21.0	175.180	-0.140	0.190	1.540
2020/01/31 23:46:21.1	175.170	-0.130	0.190	1.520
2020/01/31 23:46:21.2	175.170	-0.120	0.190	1.500
2020/01/31 23:46:21.3	175.160	-0.100	0.190	1.480
2020/01/31 23:46:21.4	175.160	-0.080	0.180	1.470
2020/01/31 23:46:21.5	175.160	-0.060	0.180	1.450
2020/01/31 23:46:21.6	175.160	-0.040	0.170	1.430
2020/01/31 23:46:21.7	175.160	-0.010	0.160	1.410
2020/01/31 23:46:21.8	175.160	0.020	0.150	1.390
2020/01/31 23:46:21.9	175.160	0.050	0.140	1.370
2020/01/31 23:46:22.0	175.170	0.080	0.130	1.350
2020/01/31 23:46:22.1	175.180	0.110	0.120	1.330
2020/01/31 23:46:22.2	175.190	0.140	0.120	1.300
2020/01/31 23:46:22.3	175.200	0.180	0.110	1.280
2020/01/31 23:46:22.4	175.200	0.210	0.100	1.260
2020/01/31 23:46:22.5	175.210	0.240	0.100	1.240
2020/01/31 23:46:22.6	175.230	0.270	0.100	1.210
2020/01/31 23:46:22.7	175.240	0.300	0.100	1.190
2020/01/31 23:46:22.8	175.250	0.330	0.100	1.170
2020/01/31 23:46:22.9	175.270	0.360	0.100	1.150
2020/01/31 23:46:23.0	175.280	0.380	0.100	1.130
2020/01/31 23:46:23.1	175.300	0.400	0.110	1.120
2020/01/31 23:46:23.2	175.320	0.420	0.110	1.100
2020/01/31 23:46:23.3	175.330	0.440	0.110	1.090
2020/01/31 23:46:23.4	175.340	0.450	0.110	1.080
2020/01/31 23:46:23.5	175.360	0.460	0.110	1.070
2020/01/31 23:46:23.6	175.370	0.470	0.110	1.060
2020/01/31 23:46:23.7	175.380	0.470	0.110	1.060
2020/01/31 23:46:23.8	175.390	0.480	0.100	1.050
2020/01/31 23:46:23.9	175.400	0.470	0.090	1.050
2020/01/31 23:46:24.0	175.410	0.470	0.090	1.050
2020/01/31 23:46:24.1	175.410	0.460	0.070	1.060
2020/01/31 23:46:24.2	175.410	0.450	0.060	1.060
2020/01/31 23:46:24.3	175.420	0.440	0.050	1.070
2020/01/31 23:46:24.4	175.420	0.420	0.030	1.080
2020/01/31 23:46:24.5	175.430	0.400	0.020	1.100
2020/01/31 23:46:24.6	175.430	0.380	0.000	1.120
2020/01/31 23:46:24.7	175.430	0.360	-0.020	1.140
2020/01/31 23:46:24.8	175.430	0.330	-0.030	1.170
2020/01/31 23:46:24.9	175.430	0.300	-0.050	1.200
2020/01/31 23:46:25.0	175.440	0.270	-0.070	1.230
2020/01/31 23:46:25.1	175.440	0.240	-0.090	1.270
2020/01/31 23:46:25.2	175.440	0.210	-0.110	1.320
2020/01/31 23:46:25.3	175.440	0.180	-0.130	1.370
2020/01/31 23:46:25.4	175.440	0.150	-0.150	1.420
2020/01/31 23:46:25.5	175.440	0.120	-0.160	1.470
2020/01/31 23:46:25.6	175.440	0.090	-0.180	1.530
2020/01/31 23:46:25.7	175.440	0.050	-0.200	1.590
2020/01/31 23:46:25.8	175.440	0.020	-0.210	1.660
2020/01/31 23:46:25.9	175.450	-0.010	-0.220	1.720
2020/01/31 23:46:26.0	175.450	-0.030	-0.230	1.780
2020/01/31 23:46:26.1	175.450	-0.060	-0.240	1.850
2020/01/31 23:46:26.2	175.460	-0.080	-0.250	1.900
2020/01/31 23:46:26.3	175.460	-0.100	-0.250	1.960
2020/01/31 23:46:26.4	175.470	-0.120	-0.250	2.020
2020/01/31 23:46:26.5	175.470	-0.140	-0.250	2.070
2020/01/31 23:46:26.6	175.480	-0.150	-0.250	2.120
2020/01/31 23:46:26.7	175.490	-0.160	-0.250	2.170
2020/01/31 23:46:26.8	175.490	-0.170	-0.240	2.210
2020/01/31 23:46:26.9	175.500	-0.170	-0.240	2.250
2020/01/31 23:46:27.0	175.510	-0.170	-0.240	2.290
2020/01/31 23:46:27.1	175.510	-0.170	-0.240	2.320
2020/01/31 23:46:27.2	175.520	-0.160	-0.240	2.350
2020/01/31 23:46:27.3	175.520	-0.150	-0.230	2.370
2020/01/31 23:46:27.4	175.510	-0.140	-0.240	2.380
2020/01/31 23:46:27.5	175.510	-0.120	-0.240	2.400
2020/01/31 23:46:27.6	175.500	-0.110	-0.250	2.400
2020/01/31 23:46:27.7	175.500	-0.080	-0.250	2.410
2020/01/31 23:46:27.8	175.490	-0.060	-0.270	2.400
2020/01/31 23:46:27.9	175.480	-0.030	-0.280	2.390
2020/01/31 23:46:28.0	175.470	-0.010	-0.300	2.380
2020/01/31 23:46:28.1	175.460	0.020	-0.320	2.360
2020/01/31 23:46:28.2	175.450	0.050	-0.350	2.340
2020/01/31 23:46:28.3	175.440	0.090	-0.380	2.320
2020/01/31 23:46:28.4	175.420	0.120	-0.410	2.290
2020/01/31 23:46:28.5	175.410	0.150	-0.450	2.260
2020/01/31 23:46:28.6	175.390	0.190	-0.490	2.220
2020/01/31 23:46:28.7	175.370	0.220	-0.530	2.190
2020/01/31 23:46:28.8	175.350	0.260	-0.580	2.150
2020/01/31 23:46:28.9	175.330	0.290	-0.630	2.120
2020/01/31 23:46:29.0	175.310	0.320	-0.680	2.080
2020/01/31 23:46:29.1	175.290	0.360	-0.730	2.040
2020/01/31 23:46:29.2	175.270	0.390	-0.780	2.000
2020/01/31 23:46:29.3	175.250	0.410	-0.830	1.960
2020/01/31 23:46:29.4	175.230	0.440	-0.880	1.930
2020/01/31 23:46:29.5	175.200	0.460	-0.930	1.890
2020/01/31 23:46:29.6	175.180	0.490	-0.980	1.860
2020/01/31 23:46:29.7	175.150	0.510	-1.030	1.830
2020/01/31 23:46:29.8	175.130	0.520	-1.080	1.800
2020/01/31 23:46:29.9	175.100	0.530	-1.120	1.780
2020/01/31 23:46:30.0	175.040	0.540	-1.160	1.750
2020/01/31 23:46:30.1	175.020	0.550	-1.190	1.730
2020/01/31 23:46:30.2	174.990	0.550	-1.220	1.710
2020/01/31 23:46:30.3	174.960	0.550	-1.240	1.690
2020/01/31 23:46:30.4	174.940	0.550	-1.260	1.670
2020/01/31 23:46:30.5	174.910	0.540	-1.270	1.660
2020/01/31 23:46:30.6	174.890	0.520	-1.270	1.640
2020/01/31 23:46:30.7	174.860	0.510	-1.270	1.620
2020/01/31 23:46:30.8	174.840	0.480	-1.260	1.610
2020/01/31 23:46:30.9	174.820	0.460	-1.240	1.590
2020/01/31 23:46:31.0	174.810	0.430	-1.210	1.570
2020/01/31 23:46:31.1	174.790	0.400	-1.180	1.550
2020/01/31 23:46:31.2	174.790	0.360	-1.140	1.530
2020/01/31 23:46:31.3	174.780	0.320	-1.090	1.510
2020/01/31 23:46:31.4	174.780	0.270	-1.040	1.490
2020/01/31 23:46:31.5	174.790	0.220	-0.980	1.470
2020/01/31 23:46:31.6	174.790	0.170	-0.920	1.450
2020/01/31 23:46:31.7	174.810	0.120	-0.840	1.430
2020/01/31 23:46:31.8	174.820	0.060	-0.770	1.400
2020/01/31 23:46:31.9	174.850	-0.000	-0.690	1.380
2020/01/31 23:46:32.0	174.870	-0.060	-0.610	1.360
2020/01/31 23:46:32.1	174.880	-0.130	-0.530	1.340
2020/01/31 23:46:32.2	174.910	-0.190	-0.450	1.320
2020/01/31 23:46:32.3	174.950	-0.250	-0.360	1.300
2020/01/31 23:46:32.4	174.980	-0.320	-0.280	1.280
2020/01/31 23:46:32.5	175.020	-0.380	-0.200	1.270
2020/01/31 23:46:32.6	175.050	-0.440	-0.130	1.250
2020/01/31 23:46:32.7	175.090	-0.500	-0.050	1.240
2020/01/31 23:46:32.8	175.120	-0.560	0.010	1.230
2020/01/31 23:46:32.9	175.160	-0.620	0.070	1.230
2020/01/31 23:46:33.0	175.180	-0.670	0.130	1.230
2020/01/31 23:46:33.1	175.220	-0.720	0.180	1.230
2020/01/31 23:46:33.2	175.240	-0.760	0.220	1.230
2020/01/31 23:46:33.3	175.270	-0.800	0.250	1.250
2020/01/31 23:46:33.4	175.290	-0.830	0.270	1.260
2020/01/31 23:46:33.5	175.310	-0.860	0.290	1.280
2020/01/31 23:46:33.6	175.320	-0.880	0.300	1.300
2020/01/31 23:46:33.7	175.330	-0.900	0.290	1.330
2020/01/31 23:46:33.8	175.330	-0.910	0.290	1.350
2020/01/31 23:46:33.9	175.340	-0.910	0.270	1.390
2020/01/31 23:46:34.0	175.330	-0.910	0.250	1.420
2020/01/31 23:46:34.1	175.330	-0.900	0.220	1.460
2020/01/31 23:46:34.2	175.320	-0.880	0.180	1.500
2020/01/31 23:46:34.3	175.310	-0.860	0.140	1.540
2020/01/31 23:46:34.4	175.290	-0.840	0.100	1.570
2020/01/31 23:46:34.5	175.270	-0.810	0.050	1.610
2020/01/31 23:46:34.6	175.260	-0.770	-0.000	1.650
2020/01/31 23:46:34.7	175.230	-0.730	-0.050	1.700
2020/01/31 23:46:34.8	175.210	-0.690	-0.100	1.740
2020/01/31 23:46:34.9	175.190	-0.640	-0.160	1.780
2020/01/31 23:46:35.0	175.160	-0.590	-0.210	1.820
2020/01/31 23:46:35.1	175.140	-0.540	-0.260	1.860
2020/01/31 23:46:35.2	175.110	-0.490	-0.300	1.900
2020/01/31 23:46:35.3	175.090	-0.430	-0.340	1.940
2020/01/31 23:46:35.4	175.060	-0.380	-0.380	1.970
2020/01/31 23:46:35.5	175.040	-0.320	-0.410	2.000
2020/01/31 23:46:35.6	175.020	-0.270	-0.440	2.030
2020/01/31 23:46:35.7	175.000	-0.210	-0.460	2.060
2020/01/31 23:46:35.8	174.980	-0.160	-0.470	2.080
2020/01/31 23:46:35.9	174.970	-0.110	-0.470	2.100
2020/01/31 23:46:36.0	174.960	-0.060	-0.470	2.120
2020/01/31 23:46:36.1	174.960	-0.020	-0.460	2.130
2020/01/31 23:46:36.2	174.950	0.020	-0.440	2.140
2020/01/31 23:46:36.3	174.950	0.060	-0.410	2.140
2020/01/31 23:46:36.4	174.950	0.090	-0.380	2.140
2020/01/31 23:46:36.5	174.950	0.120	-0.330	2.140
2020/01/31 23:46:36.6	174.960	0.150	-0.280	2.130
2020/01/31 23:46:36.7	174.970	0.170	-0.220	2.110
2020/01/31 23:46:36.8	174.980	0.180	-0.150	2.100
2020/01/31 23:46:36.9	175.000	0.190	-0.070	2.080
2020/01/31 23:46:37.0	175.010	0.200	0.010	2.050
2020/01/31 23:46:37.1	175.040	0.200	0.090	2.030
2020/01/31 23:46:37.2	175.060	0.200	0.180	2.000
2020/01/31 23:46:37.3	175.090	0.200	0.280	1.970
2020/01/31 23:46:37.4	175.120	0.190	0.370	1.930
2020/01/31 23:46:37.5	175.140	0.170	0.470	1.890
2020/01/31 23:46:37.6	175.170	0.150	0.560	1.860
2020/01/31 23:46:37.7	175.200	0.140	0.660	1.820
2020/01/31 23:46:37.8	175.240	0.110	0.750	1.780
2020/01/31 23:46:37.9	175.270	0.090	0.840	1.740
2020/01/31 23:46:38.0	175.300	0.060	0.930	1.700
2020/01/31 23:46:38.1	175.330	0.040	1.000	1.660
2020/01/31 23:46:38.2	175.360	0.010	1.080	1.620
2020/01/31 23:46:38.3	175.400	-0.020	1.140	1.580
2020/01/31 23:46:38.4	175.420	-0.050	1.200	1.540
2020/01/31 23:46:38.5	175.450	-0.070	1.240	1.510
2020/01/31 23:46:38.6	175.480	-0.100	1.280	1.480
2020/01/31 23:46:38.7	175.500	-0.120	1.300	1.450
2020/01/31 23:46:38.8	175.530	-0.140	1.320	1.420
2020/01/31 23:46:38.9	175.550	-0.160	1.320	1.400
2020/01/31 23:46:39.0	175.560	-0.180	1.310	1.380
2020/01/31 23:46:39.1	175.580	-0.190	1.290	1.360
2020/01/31 23:46:39.2	175.590	-0.190	1.260	1.350
2020/01/31 23:46:39.3	175.600	-0.200	1.220	1.340
2020/01/31 23:46:39.4	175.610	-0.200	1.170	1.330
2020/01/31 23:46:39.5	175.620	-0.190	1.100	1.320
2020/01/31 23:46:39.6	175.620	-0.180	1.030	1.320
2020/01/31 23:46:39.7	175.620	-0.170	0.950	1.320
2020/01/31 23:46:39.8	175.620	-0.150	0.850	1.330
2020/01/31 23:46:39.9	175.620	-0.120	0.750	1.340
2020/01/31 23:46:40.0	175.620	-0.100	0.650	1.350
2020/01/31 23:46:40.1	175.610	-0.070	0.530	1.360
2020/01/31 23:46:40.2	175.600	-0.030	0.420	1.370
2020/01/31 23:46:40.3	175.590	0.000	0.290	1.390
2020/01/31 23:46:40.4	175.580	0.040	0.170	1.410
2020/01/31 23:46:40.5	175.560	0.090	0.040	1.430
2020/01/31 23:46:40.6	175.550	0.130	-0.090	1.450
2020/01/31 23:46:40.7	175.530	0.180	-0.220	1.470
2020/01/31 23:46:40.8	175.510	0.230	-0.350	1.500
2020/01/31 23:46:40.9	175.490	0.280	-0.480	1.520
2020/01/31 23:46:41.0	175.470	0.330	-0.610	1.550
2020/01/31 23:46:41.1	175.470	0.380	-0.730	1.580
2020/01/31 23:46:41.2	175.440	0.430	-0.850	1.610
2020/01/31 23:46:41.3	175.410	0.480	-0.970	1.640
2020/01/31 23:46:41.4	175.390	0.530	-1.080	1.660
2020/01/31 23:46:41.5	175.360	0.580	-1.190	1.690
2020/01/31 23:46:41.6	175.330	0.620	-1.290	1.720
2020/01/31 23:46:41.7	175.300	0.670	-1.380	1.750
2020/01/31 23:46:41.8	175.260	0.710	-1.470	1.780
2020/01/31 23:46:41.9	175.230	0.740	-1.550	1.810
2020/01/31 23:46:42.0	175.200	0.780	-1.620	1.830
2020/01/31 23:46:42.1	175.160	0.810	-1.690	1.860
2020/01/31 23:46:42.2	175.120	0.840	-1.750	1.880
2020/01/31 23:46:42.3	175.080	0.870	-1.800	1.910
2020/01/31 23:46:42.4	175.040	0.890	-1.850	1.930
2020/01/31 23:46:42.5	175.010	0.900	-1.880	1.940
2020/01/31 23:46:42.6	174.970	0.920	-1.910	1.960
2020/01/31 23:46:42.7	174.930	0.920	-1.930	1.970
2020/01/31 23:46:42.8	174.900	0.930	-1.950	1.980
2020/01/31 23:46:42.9	174.870	0.930	-1.950	1.990
2020/01/31 23:46:43.0	174.830	0.920	-1.940	2.000
2020/01/31 23:46:43.1	174.800	0.910	-1.930	2.000
2020/01/31 23:46:43.2	174.770	0.900	-1.910	2.000
2020/01/31 23:46:43.3	174.740	0.880	-1.880	2.000
2020/01/31 23:46:43.4	174.720	0.860	-1.850	1.990
2020/01/31 23:46:43.5	174.700	0.830	-1.800	1.990
2020/01/31 23:46:43.6	174.680	0.800	-1.750	1.980
2020/01/31 23:46:43.7	174.660	0.760	-1.690	1.970
2020/01/31 23:46:43.8	174.650	0.730	-1.620	1.950
2020/01/31 23:46:43.9	174.630	0.680	-1.550	1.940
2020/01/31 23:46:44.0	174.630	0.640	-1.470	1.920
2020/01/31 23:46:44.1	174.610	0.590	-1.380	1.900
2020/01/31 23:46:44.2	174.610	0.540	-1.290	1.880
2020/01/31 23:46:44.3	174.610	0.480	-1.190	1.860
2020/01/31 23:46:44.4	174.620	0.420	-1.080	1.840
2020/01/31 23:46:44.5	174.630	0.360	-0.970	1.820
2020/01/31 23:46:44.6	174.640	0.300	-0.850	1.790
2020/01/31 23:46:44.7	174.660	0.240	-0.740	1.770
2020/01/31 23:46:44.8	174.680	0.170	-0.620	1.740
2020/01/31 23:46:44.9	174.700	0.100	-0.500	1.710
2020/01/31 23:46:45.0	174.730	0.030	-0.370	1.680
2020/01/31 23:46:45.1	174.750	-0.040	-0.250	1.650
2020/01/31 23:46:45.2	174.790	-0.110	-0.130	1.620
2020/01/31 23:46:45.3	174.820	-0.180	-0.010	1.590
2020/01/31 23:46:45.4	174.860	-0.260	0.100	1.560
2020/01/31 23:46:45.5	174.900	-0.330	0.210	1.530
2020/01/31 23:46:45.6	174.940	-0.400	0.310	1.490
2020/01/31 23:46:45.7	174.980	-0.470	0.410	1.460
2020/01/31 23:46:45.8	175.030	-0.540	0.500	1.430
2020/01/31 23:46:45.9	175.070	-0.610	0.580	1.390
2020/01/31 23:46:46.0	175.120	-0.670	0.650	1.360
2020/01/31 23:46:46.1	175.160	-0.730	0.710	1.320
2020/01/31 23:46:46.2	175.200	-0.790	0.770	1.290
2020/01/31 23:46:46.3	175.250	-0.850	0.810	1.260
2020/01/31 23:46:46.4	175.290	-0.900	0.840	1.230
2020/01/31 23:46:46.5	175.340	-0.940	0.860	1.200
2020/01/31 23:46:46.6	175.380	-0.980	0.870	1.170
2020/01/31 23:46:46.7	175.420	-1.020	0.860	1.140
2020/01/31 23:46:46.8	175.460	-1.040	0.850	1.120
2020/01/31 23:46:46.9	175.490	-1.070	0.820	1.100
2020/01/31 23:46:47.0	175.540	-1.080	0.790	1.080
2020/01/31 23:46:47.1	175.570	-1.090	0.740	1.070
2020/01/31 23:46:47.2	175.590	-1.090	0.680	1.060
2020/01/31 23:46:47.3	175.610	-1.090	0.610	1.050
2020/01/31 23:46:47.4	175.630	-1.080	0.540	1.050
2020/01/31 23:46:47.5	175.640	-1.060	0.450	1.060
2020/01/31 23:46:47.6	175.650	-1.030	0.360	1.070
2020/01/31 23:46:47.7	175.660	-1.000	0.260	1.080
2020/01/31 23:46:47.8	175.660	-0.960	0.160	1.100
2020/01/31 23:46:47.9	175.650	-0.910	0.050	1.130
2020/01/31 23:46:48.0	175.640	-0.860	-0.060	1.160
2020/01/31 23:46:48.1	175.620	-0.800	-0.170	1.200
2020/01/31 23:46:48.2	175.600	-0.740	-0.280	1.230
2020/01/31 23:46:48.3	175.580	-0.670	-0.390	1.280
2020/01/31 23:46:48.4	175.550	-0.590	-0.490	1.320
2020/01/31 23:46:48.5	175.520	-0.510	-0.590	1.370
2020/01/31 23:46:48.6	175.490	-0.430	-0.690	1.410
2020/01/31 23:46:48.7	175.450	-0.350	-0.780	1.460
2020/01/31 23:46:48.8	175.410	-0.260	-0.860	1.500
2020/01/31 23:46:48.9	175.370	-0.180	-0.930	1.540
2020/01/31 23:46:49.0	175.330	-0.090	-0.990	1.580
2020/01/31 23:46:49.1	175.300	-0.010	-1.040	1.620
2020/01/31 23:46:49.2	175.260	0.070	-1.070	1.650
2020/01/31 23:46:49.3	175.230	0.150	-1.090	1.670
2020/01/31 23:46:49.4	175.200	0.230	-1.100	1.690
2020/01/31 23:46:49.5	175.170	0.300	-1.090	1.710
2020/01/31 23:46:49.6	175.140	0.370	-1.070	1.720
2020/01/31 23:46:49.7	175.120	0.430	-1.040	1.730
2020/01/31 23:46:49.8	175.100	0.480	-0.990	1.730
2020/01/31 23:46:49.9	175.080	0.530	-0.930	1.720
2020/01/31 23:46:50.0	175.080	0.570	-0.850	1.710
2020/01/31 23:46:50.1	175.070	0.600	-0.770	1.710
2020/01/31 23:46:50.2	175.060	0.630	-0.670	1.690
2020/01/31 23:46:50.3	175.060	0.650	-0.570	1.680
2020/01/31 23:46:50.4	175.060	0.650	-0.450	1.660
2020/01/31 23:46:50.5	175.060	0.650	-0.330	1.650
2020/01/31 23:46:50.6	175.070	0.650	-0.200	1.630
2020/01/31 23:46:50.7	175.070	0.630	-0.070	1.610
2020/01/31 23:46:50.8	175.090	0.610	0.060	1.590
2020/01/31 23:46:50.9	175.100	0.580	0.200	1.570
2020/01/31 23:46:51.0	175.110	0.550	0.330	1.560
2020/01/31 23:46:51.1	175.130	0.510	0.460	1.540
2020/01/31 23:46:51.2	175.150	0.460	0.590	1.520
2020/01/31 23:46:51.3	175.170	0.410	0.720	1.510
2020/01/31 23:46:51.4	175.190	0.360	0.840	1.500
2020/01/31 23:46:51.5	175.200	0.310	0.950	1.490
2020/01/31 23:46:51.6	175.220	0.250	1.050	1.480
2020/01/31 23:46:51.7	175.240	0.190	1.150	1.480
2020/01/31 23:46:51.8	175.260	0.130	1.230	1.470
2020/01/31 23:46:51.9	175.280	0.070	1.310	1.470
2020/01/31 23:46:52.0	175.300	0.010	1.370	1.470
2020/01/31 23:46:52.1	175.310	-0.050	1.420	1.470
2020/01/31 23:46:52.2	175.330	-0.110	1.460	1.480
2020/01/31 23:46:52.3	175.350	-0.160	1.480	1.480
2020/01/31 23:46:52.4	175.370	-0.210	1.490	1.480
2020/01/31 23:46:52.5	175.380	-0.260	1.490	1.490
2020/01/31 23:46:52.6	175.400	-0.300	1.470	1.500
2020/01/31 23:46:52.7	175.410	-0.340	1.440	1.500
2020/01/31 23:46:52.8	175.420	-0.360	1.400	1.510
2020/01/31 23:46:52.9	175.430	-0.390	1.340	1.520
2020/01/31 23:46:53.0	175.440	-0.400	1.270	1.530
2020/01/31 23:46:53.1	175.440	-0.410	1.180	1.540
2020/01/31 23:46:53.2	175.450	-0.410	1.080	1.550
2020/01/31 23:46:53.3	175.450	-0.410	0.970	1.560
2020/01/31 23:46:53.4	175.450	-0.400	0.840	1.580
2020/01/31 23:46:53.5	175.440	-0.380	0.710	1.590
2020/01/31 23:46:53.6	175.430	-0.350	0.570	1.610
2020/01/31 23:46:53.7	175.420	-0.310	0.410	1.630
2020/01/31 23:46:53.8	175.410	-0.270	0.250	1.640
2020/01/31 23:46:53.9	175.390	-0.230	0.090	1.670
2020/01/31 23:46:54.0	175.380	-0.170	-0.080	1.690
2020/01/31 23:46:54.1	175.350	-0.120	-0.260	1.720
2020/01/31 23:46:54.2	175.330	-0.060	-0.440	1.740
2020/01/31 23:46:54.3	175.300	0.010	-0.610	1.770
2020/01/31 23:46:54.4	175.270	0.080	-0.790	1.800
2020/01/31 23:46:54.5	175.230	0.140	-0.960	1.830
2020/01/31 23:46:54.6	175.200	0.210	-1.130	1.860
2020/01/31 23:46:54.7	175.160	0.280	-1.290	1.890
2020/01/31 23:46:54.8	175.130	0.350	-1.440	1.920
2020/01/31 23:46:54.9	175.090	0.410	-1.580	1.960
2020/01/31 23:46:55.0	175.040	0.480	-1.710	1.990
2020/01/31 23:46:55.1	175.000	0.530	-1.830	2.020
2020/01/31 23:46:55.2	174.970	0.590	-1.930	2.050
2020/01/31 23:46:55.3	174.940	0.640	-2.020	2.080
2020/01/31 23:46:55.4	174.910	0.680	-2.090	2.110
2020/01/31 23:46:55.5	174.880	0.710	-2.140	2.140
2020/01/31 23:46:55.6	174.850	0.740	-2.180	2.160
2020/01/31 23:46:55.7	174.830	0.760	-2.200	2.180
2020/01/31 23:46:55.8	174.810	0.770	-2.200	2.200
2020/01/31 23:46:55.9	174.790	0.780	-2.190	2.220
2020/01/31 23:46:56.0	174.780	0.780	-2.160	2.230
2020/01/31 23:46:56.1	174.770	0.760	-2.110	2.240
2020/01/31 23:46:56.2	174.760	0.740	-2.040	2.250
2020/01/31 23:46:56.3	174.760	0.720	-1.960	2.250
2020/01/31 23:46:56.4	174.760	0.680	-1.870	2.250
2020/01/31 23:46:56.5	174.770	0.640	-1.760	2.240
2020/01/31 23:46:56.6	174.770	0.590	-1.650	2.220
2020/01/31 23:46:56.7	174.780	0.530	-1.520	2.210
2020/01/31 23:46:56.8	174.800	0.470	-1.390	2.190
2020/01/31 23:46:56.9	174.820	0.410	-1.250	2.160
2020/01/31 23:46:57.0	174.820	0.340	-1.100	2.130
2020/01/31 23:46:57.1	174.840	0.260	-0.960	2.100
2020/01/31 23:46:57.2	174.870	0.190	-0.810	2.070
2020/01/31 23:46:57.3	174.890	0.110	-0.660	2.030
2020/01/31 23:46:57.4	174.920	0.030	-0.520	1.990
2020/01/31 23:46:57.5	174.950	-0.050	-0.380	1.950
2020/01/31 23:46:57.6	174.980	-0.130	-0.240	1.910
2020/01/31 23:46:57.7	175.010	-0.210	-0.110	1.870
2020/01/31 23:46:57.8	175.040	-0.290	0.000	1.830
2020/01/31 23:46:57.9	175.070	-0.360	0.110	1.790
2020/01/31 23:46:58.0	175.100	-0.430	0.210	1.750
2020/01/31 23:46:58.1	175.130	-0.490	0.300	1.710
2020/01/31 23:46:58.2	175.160	-0.550	0.370	1.670
2020/01/31 23:46:58.3	175.180	-0.610	0.430	1.630
2020/01/31 23:46:58.4	175.210	-0.650	0.480	1.600
2020/01/31 23:46:58.5	175.230	-0.700	0.520	1.560
2020/01/31 23:46:58.6	175.250	-0.730	0.540	1.530
2020/01/31 23:46:58.7	175.270	-0.760	0.550	1.500
2020/01/31 23:46:58.8	175.290	-0.780	0.550	1.470
2020/01/31 23:46:58.9	175.310	-0.800	0.540	1.450
2020/01/31 23:46:59.0	175.330	-0.800	0.510	1.430
2020/01/31 23:46:59.1	175.350	-0.800	0.480	1.410
2020/01/31 23:46:59.2	175.360	-0.800	0.440	1.390
2020/01/31 23:46:59.3	175.380	-0.790	0.390	1.370
2020/01/31 23:46:59.4	175.390	-0.770	0.330	1.360
2020/01/31 23:46:59.5	175.400	-0.750	0.260	1.340
2020/01/31 23:46:59.6	175.420	-0.720	0.200	1.340
2020/01/31 23:46:59.7	175.430	-0.690	0.120	1.330
2020/01/31 23:46:59.8	175.440	-0.650	0.050	1.330
2020/01/31 23:46:59.9	175.450	-0.610	-0.030	1.330
2020/01/31 23:47:00.0	175.460	-0.570	-0.110	1.330
2020/01/31 23:47:00.1	175.470	-0.520	-0.180	1.340
2020/01/31 23:47:00.2	175.480	-0.470	-0.250	1.340
2020/01/31 23:47:00.3	175.490	-0.420	-0.320	1.350
2020/01/31 23:47:00.4	175.490	-0.370	-0.390	1.360
2020/01/31 23:47:00.5	175.490	-0.320	-0.450	1.380
2020/01/31 23:47:00.6	175.490	-0.260	-0.510	1.390
2020/01/31 23:47:00.7	175.490	-0.210	-0.560	1.410
2020/01/31 23:47:00.8	175.490	-0.160	-0.600	1.430
2020/01/31 23:47:00.9	175.490	-0.110	-0.630	1.450
2020/01/31 23:47:01.0	175.480	-0.060	-0.660	1.460
2020/01/31 23:47:01.1	175.480	-0.020	-0.680	1.480
2020/01/31 23:47:01.2	175.470	0.030	-0.690	1.500
2020/01/31 23:47:01.3	175.470	0.070	-0.690	1.510
2020/01/31 23:47:01.4	175.460	0.100	-0.690	1.530
2020/01/31 23:47:01.5	175.450	0.140	-0.670	1.540
2020/01/31 23:47:01.6	175.430	0.170	-0.650	1.550
2020/01/31 23:47:01.7	175.420	0.200	-0.620	1.560
2020/01/31 23:47:01.8	175.410	0.220	-0.580	1.570
2020/01/31 23:47:01.9	175.400	0.240	-0.540	1.580
2020/01/31 23:47:02.0	175.390	0.260	-0.490	1.580
2020/01/31 23:47:02.1	175.370	0.270	-0.430	1.580
2020/01/31 23:47:02.2	175.360	0.280	-0.370	1.590
2020/01/31 23:47:02.3	175.350	0.280	-0.300	1.590
2020/01/31 23:47:02.4	175.340	0.280	-0.220	1.590
2020/01/31 23:47:02.5	175.330	0.280	-0.150	1.590
2020/01/31 23:47:02.6	175.320	0.270	-0.070	1.590
2020/01/31 23:47:02.7	175.320	0.260	0.010	1.580
2020/01/31 23:47:02.8	175.310	0.250	0.090	1.580
2020/01/31 23:47:02.9	175.300	0.240	0.170	1.570
2020/01/31 23:47:03.0	175.290	0.220	0.260	1.570
2020/01/31 23:47:03.1	175.290	0.200	0.330	1.570
2020/01/31 23:47:03.2	175.280	0.180	0.410	1.560
2020/01/31 23:47:03.3	175.280	0.160	0.480	1.560
2020/01/31 23:47:03.4	175.270	0.130	0.550	1.550
2020/01/31 23:47:03.5	175.260	0.110	0.620	1.540
2020/01/31 23:47:03.6	175.260	0.080	0.680	1.530
2020/01/31 23:47:03.7	175.250	0.060	0.730	1.530
2020/01/31 23:47:03.8	175.250	0.040	0.770	1.520
2020/01/31 23:47:03.9	175.240	0.010	0.810	1.510
2020/01/31 23:47:04.0	175.250	-0.010	0.850	1.500
2020/01/31 23:47:04.1	175.240	-0.030	0.870	1.490
2020/01/31 23:47:04.2	175.240	-0.050	0.880	1.480
2020/01/31 23:47:04.3	175.230	-0.070	0.890	1.470
2020/01/31 23:47:04.4	175.220	-0.080	0.880	1.460
2020/01/31 23:47:04.5	175.220	-0.100	0.870	1.460
2020/01/31 23:47:04.6	175.210	-0.110	0.850	1.450
2020/01/31 23:47:04.7	175.210	-0.120	0.820	1.440
2020/01/31 23:47:04.8	175.200	-0.120	0.790	1.430
2020/01/31 23:47:04.9	175.200	-0.130	0.750	1.430
2020/01/31 23:47:05.0	175.190	-0.130	0.700	1.420
2020/01/31 23:47:05.1	175.170	-0.120	0.640	1.410
2020/01/31 23:47:05.2	175.170	-0.120	0.580	1.410
2020/01/31 23:47:05.3	175.160	-0.110	0.510	1.410
2020/01/31 23:47:05.4	175.160	-0.100	0.440	1.400
2020/01/31 23:47:05.5	175.150	-0.090	0.370	1.400
2020/01/31 23:47:05.6	175.140	-0.080	0.300	1.400
2020/01/31 23:47:05.7	175.140	-0.060	0.220	1.400
2020/01/31 23:47:05.8	175.130	-0.040	0.140	1.400
2020/01/31 23:47:05.9	175.120	-0.020	0.060	1.410
2020/01/31 23:47:06.0	175.110	0.000	-0.020	1.410
2020/01/31 23:47:06.1	175.100	0.030	-0.090	1.420
2020/01/31 23:47:06.2	175.080	0.050	-0.170	1.430
2020/01/31 23:47:06.3	175.070	0.080	-0.250	1.440
2020/01/31 23:47:06.4	175.060	0.110	-0.320	1.450
2020/01/31 23:47:06.5	175.040	0.130	-0.400	1.460
2020/01/31 23:47:06.6	175.020	0.160	-0.470	1.480
2020/01/31 23:47:06.7	175.000	0.190	-0.540	1.500
2020/01/31 23:47:06.8	174.980	0.220	-0.600	1.510
2020/01/31 23:47:06.9	174.950	0.250	-0.670	1.540
2020/01/31 23:47:07.0	174.930	0.280	-0.730	1.560
2020/01/31 23:47:07.1	174.900	0.310	-0.790	1.580
2020/01/31 23:47:07.2	174.870	0.340	-0.840	1.610
2020/01/31 23:47:07.3	174.840	0.370	-0.890	1.630
2020/01/31 23:47:07.4	174.800	0.390	-0.940	1.650
2020/01/31 23:47:07.5	174.770	0.420	-0.980	1.670
2020/01/31 23:47:07.6	174.740	0.440	-1.010	1.700
2020/01/31 23:47:07.7	174.710	0.460	-1.040	1.720
2020/01/31 23:47:07.8	174.680	0.480	-1.070	1.740
2020/01/31 23:47:07.9	174.640	0.490	-1.090	1.760
2020/01/31 23:47:08.0	174.610	0.510	-1.110	1.770
2020/01/31 23:47:08.1	174.590	0.520	-1.120	1.790
2020/01/31 23:47:08.2	174.560	0.520	-1.130	1.800
2020/01/31 23:47:08.3	174.540	0.530	-1.130	1.820
2020/01/31 23:47:08.4	174.510	0.530	-1.120	1.830
2020/01/31 23:47:08.5	174.490	0.520	-1.110	1.840
2020/01/31 23:47:08.6	174.480	0.520	-1.100	1.850
2020/01/31 23:47:08.7	174.460	0.510	-1.080	1.850
2020/01/31 23:47:08.8	174.450	0.490	-1.060	1.860
2020/01/31 23:47:08.9	174.440	0.480	-1.030	1.860
2020/01/31 23:47:09.0	174.440	0.460	-0.990	1.860
2020/01/31 23:47:09.1	174.450	0.430	-0.960	1.860
2020/01/31 23:47:09.2	174.450	0.410	-0.920	1.850
2020/01/31 23:47:09.3	174.460	0.380	-0.880	1.850
2020/01/31 23:47:09.4	174.470	0.340	-0.830	1.840
2020/01/31 23:47:09.5	174.490	0.310	-0.780	1.830
2020/01/31 23:47:09.6	174.510	0.270	-0.730	1.810
2020/01/31 23:47:09.7	174.540	0.240	-0.670	1.800
2020/01/31 23:47:09.8	174.570	0.200	-0.620	1.780
2020/01/31 23:47:09.9	174.600	0.150	-0.560	1.750
2020/01/31 23:47:10.0	174.640	0.110	-0.500	1.730
2020/01/31 23:47:10.1	174.650	0.070	-0.440	1.700
2020/01/31 23:47:10.2	174.690	0.020	-0.390	1.670
2020/01/31 23:47:10.3	174.730	-0.020	-0.330	1.650
2020/01/31 23:47:10.4	174.780	-0.060	-0.270	1.610
2020/01/31 23:47:10.5	174.830	-0.100	-0.220	1.580
2020/01/31 23:47:10.6	174.880	-0.150	-0.160	1.550
2020/01/31 23:47:10.7	174.920	-0.190	-0.110	1.520
2020/01/31 23:47:10.8	174.970	-0.220	-0.070	1.490
2020/01/31 23:47:10.9	175.020	-0.260	-0.020	1.460
2020/01/31 23:47:11.0	175.070	-0.290	0.010	1.430
2020/01/31 23:47:11.1	175.110	-0.320	0.050	1.410
2020/01/31 23:47:11.2	175.160	-0.350	0.070	1.380
2020/01/31 23:47:11.3	175.200	-0.370	0.100	1.360
2020/01/31 23:47:11.4	175.240	-0.390	0.110	1.340
2020/01/31 23:47:11.5	175.270	-0.410	0.120	1.330
2020/01/31 23:47:11.6	175.300	-0.420	0.130	1.320
2020/01/31 23:47:11.7	175.330	-0.430	0.120	1.310
2020/01/31 23:47:11.8	175.350	-0.440	0.110	1.310
2020/01/31 23:47:11.9	175.370	-0.440	0.100	1.310
2020/01/31 23:47:12.0	175.380	-0.430	0.080	1.320
2020/01/31 23:47:12.1	175.410	-0.430	0.050	1.330
2020/01/31 23:47:12.2	175.420	-0.410	0.020	1.340
2020/01/31 23:47:12.3	175.420	-0.400	-0.020	1.360
2020/01/31 23:47:12.4	175.420	-0.380	-0.060	1.380
2020/01/31 23:47:12.5	175.420	-0.360	-0.110	1.410
2020/01/31 23:47:12.6	175.410	-0.330	-0.160	1.430
2020/01/31 23:47:12.7	175.400	-0.300	-0.210	1.460
2020/01/31 23:47:12.8	175.380	-0.270	-0.270	1.500
2020/01/31 23:47:12.9	175.360	-0.240	-0.320	1.530
2020/01/31 23:47:13.0	175.350	-0.210	-0.380	1.570
2020/01/31 23:47:13.1	175.320	-0.170	-0.440	1.600
2020/01/31 23:47:13.2	175.300	-0.130	-0.500	1.640
2020/01/31 23:47:13.3	175.270	-0.100	-0.550	1.670
2020/01/31 23:47:13.4	175.250	-0.060	-0.600	1.710
2020/01/31 23:47:13.5	175.220	-0.020	-0.640	1.740
2020/01/31 23:47:13.6	175.190	0.020	-0.680	1.770
2020/01/31 23:47:13.7	175.160	0.060	-0.720	1.810
2020/01/31 23:47:13.8	175.130	0.090	-0.750	1.840
2020/01/31 23:47:13.9	175.100	0.130	-0.780	1.870
2020/01/31 23:47:14.0	175.070	0.160	-0.800	1.900
2020/01/31 23:47:14.1	175.030	0.190	-0.810	1.930
2020/01/31 23:47:14.2	175.000	0.220	-0.820	1.960
2020/01/31 23:47:14.3	174.970	0.250	-0.820	1.980
2020/01/31 23:47:14.4	174.930	0.270	-0.810	2.010
2020/01/31 23:47:14.5	174.900	0.290	-0.800	2.030
2020/01/31 23:47:14.6	174.860	0.310	-0.780	2.050
2020/01/31 23:47:14.7	174.830	0.330	-0.750	2.070
2020/01/31 23:47:14.8	174.790	0.340	-0.720	2.090
2020/01/31 23:47:14.9	174.750	0.350	-0.680	2.110
2020/01/31 23:47:15.0	174.720	0.350	-0.640	2.130
2020/01/31 23:47:15.1	174.680	0.350	-0.600	2.140
2020/01/31 23:47:15.2	174.640	0.350	-0.540	2.160
2020/01/31 23:47:15.3	174.610	0.340	-0.490	2.180
2020/01/31 23:47:15.4	174.580	0.340	-0.430	2.190
2020/01/31 23:47:15.5	174.550	0.320	-0.360	2.210
2020/01/31 23:47:15.6	174.520	0.310	-0.300	2.220
2020/01/31 23:47:15.7	174.500	0.290	-0.230	2.230
2020/01/31 23:47:15.8	174.480	0.260	-0.160	2.230
2020/01/31 23:47:15.9	174.460	0.240	-0.080	2.240
2020/01/31 23:47:16.0	174.440	0.210	-0.010	2.240
2020/01/31 23:47:16.1	174.430	0.180	0.070	2.230
2020/01/31 23:47:16.2	174.430	0.140	0.150	2.220
2020/01/31 23:47:16.3	174.430	0.110	0.220	2.210
2020/01/31 23:47:16.4	174.430	0.070	0.300	2.200
2020/01/31 23:47:16.5	174.440	0.020	0.370	2.180
2020/01/31 23:47:16.6	174.460	-0.020	0.440	2.150
2020/01/31 23:47:16.7	174.480	-0.060	0.510	2.130
2020/01/31 23:47:16.8	174.500	-0.110	0.580	2.100
2020/01/31 23:47:16.9	174.530	-0.150	0.650	2.060
2020/01/31 23:47:17.0	174.560	-0.200	0.700	2.030
2020/01/31 23:47:17.1	174.590	-0.240	0.760	1.990
2020/01/31 23:47:17.2	174.630	-0.290	0.810	1.960
2020/01/31 23:47:17.3	174.670	-0.330	0.850	1.920
2020/01/31 23:47:17.4	174.710	-0.370	0.890	1.880
2020/01/31 23:47:17.5	174.750	-0.410	0.910	1.840
2020/01/31 23:47:17.6	174.790	-0.450	0.940	1.800
2020/01/31 23:47:17.7	174.830	-0.480	0.950	1.760
2020/01/31 23:47:17.8	174.870	-0.510	0.950	1.720
2020/01/31 23:47:17.9	174.910	-0.540	0.950	1.680
2020/01/31 23:47:18.0	174.950	-0.560	0.930	1.640
2020/01/31 23:47:18.1	174.990	-0.580	0.910	1.610
2020/01/31 23:47:18.2	175.020	-0.600	0.880	1.570
2020/01/31 23:47:18.3	175.060	-0.600	0.850	1.540
2020/01/31 23:47:18.4	175.090	-0.610	0.800	1.520
2020/01/31 23:47:18.5	175.110	-0.610	0.740	1.490
2020/01/31 23:47:18.6	175.140	-0.600	0.680	1.470
2020/01/31 23:47:18.7	175.160	-0.590	0.610	1.450
2020/01/31 23:47:18.8	175.180	-0.570	0.530	1.430
2020/01/31 23:47:18.9	175.190	-0.550	0.450	1.420
2020/01/31 23:47:19.0	175.200	-0.520	0.360	1.410
2020/01/31 23:47:19.1	175.210	-0.490	0.270	1.410
2020/01/31 23:47:19.2	175.210	-0.450	0.170	1.400
2020/01/31 23:47:19.3	175.220	-0.410	0.070	1.400
2020/01/31 23:47:19.4	175.210	-0.370	-0.040	1.410
2020/01/31 23:47:19.5	175.210	-0.320	-0.140	1.410
2020/01/31 23:47:19.6	175.200	-0.270	-0.250	1.420
2020/01/31 23:47:19.7	175.190	-0.210	-0.360	1.440
2020/01/31 23:47:19.8	175.180	-0.160	-0.460	1.450
2020/01/31 23:47:19.9	175.160	-0.100	-0.570	1.470
2020/01/31 23:47:20.0	175.140	-0.040	-0.670	1.490
2020/01/31 23:47:20.1	175.140	0.010	-0.770	1.510
2020/01/31 23:47:20.2	175.120	0.070	-0.860	1.530
2020/01/31 23:47:20.3	175.090	0.130	-0.950	1.550
2020/01/31 23:47:20.4	175.070	0.190	-1.030	1.570
2020/01/31 23:47:20.5	175.050	0.240	-1.110	1.590
2020/01/31 23:47:20.6	175.020	0.300	-1.180	1.610
2020/01/31 23:47:20.7	175.000	0.350	-1.250	1.630
2020/01/31 23:47:20.8	174.970	0.400	-1.300	1.650
2020/01/31 23:47:20.9	174.950	0.450	-1.350	1.670
2020/01/31 23:47:21.0	174.930	0.490	-1.390	1.680
2020/01/31 23:47:21.1	174.900	0.530	-1.420	1.700
2020/01/31 23:47:21.2	174.880	0.570	-1.450	1.710
2020/01/31 23:47:21.3	174.860	0.600	-1.460	1.730
2020/01/31 23:47:21.4	174.830	0.630	-1.470	1.740
2020/01/31 23:47:21.5	174.810	0.650	-1.460	1.740
2020/01/31 23:47:21.6	174.790	0.670	-1.450	1.750
2020/01/31 23:47:21.7	174.770	0.690	-1.440	1.760
2020/01/31 23:47:21.8	174.750	0.700	-1.410	1.760
2020/01/31 23:47:21.9	174.730	0.710	-1.380	1.760
2020/01/31 23:47:22.0	174.710	0.710	-1.340	1.760
2020/01/31 23:47:22.1	174.710	0.700	-1.290	1.760
2020/01/31 23:47:22.2	174.700	0.690	-1.230	1.750
2020/01/31 23:47:22.3	174.690	0.680	-1.170	1.740
2020/01/31 23:47:22.4	174.680	0.660	-1.110	1.730
2020/01/31 23:47:22.5	174.680	0.640	-1.040	1.720
2020/01/31 23:47:22.6	174.670	0.610	-0.960	1.710
2020/01/31 23:47:22.7	174.680	0.580	-0.880	1.690
2020/01/31 23:47:22.8	174.680	0.540	-0.800	1.680
2020/01/31 23:47:22.9	174.690	0.500	-0.710	1.670
2020/01/31 23:47:23.0	174.700	0.450	-0.620	1.650
2020/01/31 23:47:23.1	174.710	0.410	-0.530	1.630
2020/01/31 23:47:23.2	174.720	0.360	-0.430	1.610
2020/01/31 23:47:23.3	174.740	0.300	-0.340	1.590
2020/01/31 23:47:23.4	174.760	0.240	-0.240	1.580
2020/01/31 23:47:23.5	174.790	0.190	-0.150	1.560
2020/01/31 23:47:23.6	174.820	0.120	-0.060	1.550
2020/01/31 23:47:23.7	174.850	0.060	0.030	1.540
2020/01/31 23:47:23.8	174.880	0.000	0.120	1.520
2020/01/31 23:47:23.9	174.910	-0.060	0.200	1.510
2020/01/31 23:47:24.0	174.950	-0.130	0.280	1.500
2020/01/31 23:47:24.1	174.980	-0.190	0.360	1.500
2020/01/31 23:47:24.2	175.020	-0.250	0.420	1.490
2020/01/31 23:47:24.3	175.060	-0.310	0.490	1.480
2020/01/31 23:47:24.4	175.100	-0.360	0.540	1.470
2020/01/31 23:47:24.5	175.140	-0.420	0.590	1.460
2020/01/31 23:47:24.6	175.180	-0.470	0.630	1.450
2020/01/31 23:47:24.7	175.220	-0.510	0.660	1.450
2020/01/31 23:47:24.8	175.260	-0.550	0.680	1.440
2020/01/31 23:47:24.9	175.300	-0.590	0.690	1.430
2020/01/31 23:47:25.0	175.320	-0.620	0.700	1.430
2020/01/31 23:47:25.1	175.360	-0.650	0.690	1.430
2020/01/31 23:47:25.2	175.390	-0.670	0.670	1.420
2020/01/31 23:47:25.3	175.420	-0.680	0.650	1.420
2020/01/31 23:47:25.4	175.440	-0.690	0.620	1.430
2020/01/31 23:47:25.5	175.460	-0.690	0.570	1.430
2020/01/31 23:47:25.6	175.480	-0.690	0.520	1.440
2020/01/31 23:47:25.7	175.490	-0.670	0.460	1.450
2020/01/31 23:47:25.8	175.500	-0.660	0.390	1.460
2020/01/31 23:47:25.9	175.500	-0.630	0.320	1.480
2020/01/31 23:47:26.0	175.490	-0.600	0.240	1.500
2020/01/31 23:47:26.1	175.480	-0.560	0.150	1.520
2020/01/31 23:47:26.2	175.470	-0.520	0.060	1.550
2020/01/31 23:47:26.3	175.450	-0.470	-0.040	1.570
2020/01/31 23:47:26.4	175.420	-0.410	-0.140	1.600
2020/01/31 23:47:26.5	175.390	-0.350	-0.230	1.630
2020/01/31 23:47:26.6	175.360	-0.290	-0.330	1.670
2020/01/31 23:47:26.7	175.320	-0.230	-0.430	1.700
2020/01/31 23:47:26.8	175.280	-0.160	-0.530	1.740
2020/01/31 23:47:26.9	175.240	-0.100	-0.620	1.770
2020/01/31 23:47:27.0	175.190	-0.030	-0.710	1.810
2020/01/31 23:47:27.1	175.170	0.040	-0.790	1.850
2020/01/31 23:47:27.2	175.120	0.110	-0.870	1.880
2020/01/31 23:47:27.3	175.080	0.170	-0.940	1.920
2020/01/31 23:47:27.4	175.030	0.240	-1.000	1.950
2020/01/31 23:47:27.5	174.990	0.300	-1.050	1.980
2020/01/31 23:47:27.6	174.950	0.360	-1.090	2.010
2020/01/31 23:47:27.7	174.910	0.410	-1.120	2.040
2020/01/31 23:47:27.8	174.870	0.460	-1.140	2.060
2020/01/31 23:47:27.9	174.840	0.500	-1.150	2.080
2020/01/31 23:47:28.0	174.800	0.540	-1.150	2.100
2020/01/31 23:47:28.1	174.780	0.570	-1.130	2.110
2020/01/31 23:47:28.2	174.760	0.590	-1.110	2.110
2020/01/31 23:47:28.3	174.740	0.610	-1.070	2.110
2020/01/31 23:47:28.4	174.730	0.620	-1.030	2.110
2020/01/31 23:47:28.5	174.720	0.630	-0.970	2.100
2020/01/31 23:47:28.6	174.720	0.630	-0.910	2.090
2020/01/31 23:47:28.7	174.720	0.620	-0.840	2.070
2020/01/31 23:47:28.8	174.720	0.600	-0.760	2.050
2020/01/31 23:47:28.9	174.730	0.580	-0.670	2.020
2020/01/31 23:47:29.0	174.740	0.560	-0.580	2.000
2020/01/31 23:47:29.1	174.750	0.520	-0.490	1.970
2020/01/31 23:47:29.2	174.770	0.490	-0.390	1.940
2020/01/31 23:47:29.3	174.790	0.440	-0.290	1.910
2020/01/31 23:47:29.4	174.810	0.400	-0.180	1.880
2020/01/31 23:47:29.5	174.830	0.350	-0.080	1.850
2020/01/31 23:47:29.6	174.860	0.290	0.010	1.820
2020/01/31 23:47:29.7	174.880	0.240	0.110	1.790
2020/01/31 23:47:29.8	174.900	0.180	0.200	1.770
2020/01/31 23:47:29.9	174.930	0.120	0.290	1.740
2020/01/31 23:47:30.0	174.950	0.060	0.370	1.720
2020/01/31 23:47:30.1	174.960	0.000	0.440	1.700
2020/01/31 23:47:30.2	174.980	-0.060	0.510	1.690
2020/01/31 23:47:30.3	175.000	-0.110	0.570	1.680
2020/01/31 23:47:30.4	175.010	-0.170	0.620	1.670
2020/01/31 23:47:30.5	175.020	-0.220	0.660	1.660
2020/01/31 23:47:30.6	175.030	-0.260	0.690	1.660
2020/01/31 23:47:30.7	175.040	-0.310	0.710	1.660
2020/01/31 23:47:30.8	175.040	-0.350	0.720	1.670
2020/01/31 23:47:30.9	175.040	-0.380	0.720	1.680
2020/01/31 23:47:31.0	175.030	-0.420	0.710	1.690
2020/01/31 23:47:31.1	175.020	-0.440	0.690	1.700
2020/01/31 23:47:31.2	175.020	-0.460	0.670	1.710
2020/01/31 23:47:31.3	175.020	-0.480	0.630	1.730
2020/01/31 23:47:31.4	175.010	-0.490	0.600	1.740
2020/01/31 23:47:31.5	175.010	-0.500	0.550	1.760
2020/01/31 23:47:31.6	175.010	-0.500	0.500	1.770
2020/01/31 23:47:31.7	175.000	-0.500	0.440	1.790
2020/01/31 23:47:31.8	175.000	-0.500	0.380	1.800
2020/01/31 23:47:31.9	175.000	-0.490	0.320	1.820
2020/01/31 23:47:32.0	174.990	-0.480	0.250	1.830
2020/01/31 23:47:32.1	174.990	-0.460	0.190	1.840
2020/01/31 23:47:32.2	174.990	-0.440	0.120	1.850
2020/01/31 23:47:32.3	174.990	-0.420	0.050	1.860
2020/01/31 23:47:32.4	175.000	-0.400	-0.010	1.880
2020/01/31 23:47:32.5	175.000	-0.370	-0.080	1.890
2020/01/31 23:47:32.6	175.000	-0.350	-0.140	1.900
2020/01/31 23:47:32.7	175.000	-0.320	-0.190	1.910
2020/01/31 23:47:32.8	175.010	-0.290	-0.250	1.930
2020/01/31 23:47:32.9	175.010	-0.260	-0.300	1.940
2020/01/31 23:47:33.0	175.010	-0.230	-0.340	1.950
2020/01/31 23:47:33.1	175.040	-0.190	-0.380	1.960
2020/01/31 23:47:33.2	175.040	-0.160	-0.420	1.960
2020/01/31 23:47:33.3	175.040	-0.130	-0.450	1.970
2020/01/31 23:47:33.4	175.040	-0.100	-0.470	1.970
2020/01/31 23:47:33.5	175.040	-0.070	-0.490	1.970
2020/01/31 23:47:33.6	175.040	-0.040	-0.500	1.970
2020/01/31 23:47:33.7	175.040	-0.010	-0.510	1.970
2020/01/31 23:47:33.8	175.030	0.020	-0.520	1.970
2020/01/31 23:47:33.9	175.030	0.040	-0.520	1.960
2020/01/31 23:47:34.0	175.020	0.070	-0.510	1.950
2020/01/31 23:47:34.1	175.020	0.090	-0.510	1.940
2020/01/31 23:47:34.2	175.010	0.120	-0.500	1.930
2020/01/31 23:47:34.3	175.000	0.140	-0.490	1.910
2020/01/31 23:47:34.4	175.000	0.160	-0.470	1.890
2020/01/31 23:47:34.5	174.990	0.180	-0.450	1.870
2020/01/31 23:47:34.6	174.980	0.190	-0.430	1.850
2020/01/31 23:47:34.7	174.970	0.210	-0.410	1.830
2020/01/31 23:47:34.8	174.960	0.220	-0.390	1.800
2020/01/31 23:47:34.9	174.950	0.240	-0.360	1.770
2020/01/31 23:47:35.0	174.940	0.250	-0.340	1.740
2020/01/31 23:47:35.1	174.930	0.260	-0.320	1.710
2020/01/31 23:47:35.2	174.920	0.270	-0.300	1.680
2020/01/31 23:47:35.3	174.910	0.280	-0.290	1.650
2020/01/31 23:47:35.4	174.890	0.280	-0.280	1.620
2020/01/31 23:47:35.5	174.880	0.290	-0.260	1.590
2020/01/31 23:47:35.6	174.870	0.290	-0.260	1.550
2020/01/31 23:47:35.7	174.850	0.300	-0.250	1.520
2020/01/31 23:47:35.8	174.840	0.300	-0.250	1.500
2020/01/31 23:47:35.9	174.820	0.310	-0.250	1.470
2020/01/31 23:47:36.0	174.810	0.310	-0.250	1.440
2020/01/31 23:47:36.1	174.790	0.310	-0.260	1.420
2020/01/31 23:47:36.2	174.770	0.310	-0.270	1.390
2020/01/31 23:47:36.3	174.760	0.320	-0.290	1.370
2020/01/31 23:47:36.4	174.740	0.320	-0.300	1.350
2020/01/31 23:47:36.5	174.730	0.320	-0.320	1.330
2020/01/31 23:47:36.6	174.710	0.320	-0.340	1.320
2020/01/31 23:47:36.7	174.700	0.320	-0.360	1.310
2020/01/31 23:47:36.8	174.690	0.320	-0.380	1.290
2020/01/31 23:47:36.9	174.670	0.320	-0.410	1.280
2020/01/31 23:47:37.0	174.670	0.320	-0.430	1.270
2020/01/31 23:47:37.1	174.660	0.320	-0.460	1.260
2020/01/31 23:47:37.2	174.650	0.320	-0.490	1.260
2020/01/31 23:47:37.3	174.640	0.320	-0.520	1.250
2020/01/31 23:47:37.4	174.630	0.320	-0.550	1.240
2020/01/31 23:47:37.5	174.620	0.320	-0.570	1.240
2020/01/31 23:47:37.6	174.620	0.320	-0.600	1.230
2020/01/31 23:47:37.7	174.620	0.310	-0.630	1.220
2020/01/31 23:47:37.8	174.610	0.310	-0.650	1.220
2020/01/31 23:47:37.9	174.610	0.300	-0.680	1.210
2020/01/31 23:47:38.0	174.610	0.300	-0.700	1.210
2020/01/31 23:47:38.1	174.620	0.290	-0.720	1.200
2020/01/31 23:47:38.2	174.620	0.280	-0.740	1.200
2020/01/31 23:47:38.3	174.630	0.270	-0.760	1.190
2020/01/31 23:47:38.4	174.640	0.260	-0.770	1.190
2020/01/31 23:47:38.5	174.650	0.250	-0.780	1.180
2020/01/31 23:47:38.6	174.660	0.240	-0.790	1.180
2020/01/31 23:47:38.7	174.670	0.220	-0.790	1.190
2020/01/31 23:47:38.8	174.680	0.200	-0.790	1.190
2020/01/31 23:47:38.9	174.700	0.180	-0.790	1.190
2020/01/31 23:47:39.0	174.720	0.160	-0.790	1.200
2020/01/31 23:47:39.1	174.730	0.140	-0.780	1.210
2020/01/31 23:47:39.2	174.740	0.110	-0.770	1.220
2020/01/31 23:47:39.3	174.760	0.080	-0.760	1.240
2020/01/31 23:47:39.4	174.770	0.060	-0.740	1.270
2020/01/31 23:47:39.5	174.780	0.030	-0.720	1.290
2020/01/31 23:47:39.6	174.800	-0.010	-0.700	1.320
2020/01/31 23:47:39.7	174.810	-0.040	-0.680	1.360
2020/01/31 23:47:39.8	174.820	-0.070	-0.660	1.400
2020/01/31 23:47:39.9	174.820	-0.100	-0.630	1.440
2020/01/31 23:47:40.0	174.830	-0.140	-0.600	1.480
2020/01/31 23:47:40.1	174.830	-0.170	-0.570	1.540
2020/01/31 23:47:40.2	174.830	-0.210	-0.540	1.590
2020/01/31 23:47:40.3	174.840	-0.240	-0.500	1.650
2020/01/31 23:47:40.4	174.830	-0.270	-0.470	1.700
2020/01/31 23:47:40.5	174.830	-0.300	-0.440	1.760
2020/01/31 23:47:40.6	174.820	-0.330	-0.400	1.820
2020/01/31 23:47:40.7	174.810	-0.360	-0.370	1.880
2020/01/31 23:47:40.8	174.800	-0.390	-0.340	1.950
2020/01/31 23:47:40.9	174.790	-0.410	-0.310	2.010
2020/01/31 23:47:41.0	174.770	-0.430	-0.280	2.080
2020/01/31 23:47:41.1	174.750	-0.450	-0.250	2.140
2020/01/31 23:47:41.2	174.730	-0.460	-0.230	2.210
2020/01/31 23:47:41.3	174.700	-0.470	-0.210	2.270
2020/01/31 23:47:41.4	174.680	-0.480	-0.190	2.330
2020/01/31 23:47:41.5	174.650	-0.480	-0.170	2.390
2020/01/31 23:47:41.6	174.620	-0.480	-0.150	2.440
2020/01/31 23:47:41.7	174.590	-0.480	-0.140	2.490
2020/01/31 23:47:41.8	174.560	-0.470	-0.130	2.540
2020/01/31 23:47:41.9	174.530	-0.460	-0.120	2.580
2020/01/31 23:47:42.0	174.500	-0.450	-0.110	2.610
2020/01/31 23:47:42.1	174.460	-0.440	-0.110	2.650
2020/01/31 23:47:42.2	174.440	-0.430	-0.100	2.670
2020/01/31 23:47:42.3	174.410	-0.410	-0.100	2.690
2020/01/31 23:47:42.4	174.390	-0.390	-0.090	2.700
2020/01/31 23:47:42.5	174.370	-0.370	-0.090	2.710
2020/01/31 23:47:42.6	174.350	-0.350	-0.080	2.720
2020/01/31 23:47:42.7	174.340	-0.330	-0.080	2.720
2020/01/31 23:47:42.8	174.320	-0.310	-0.070	2.720
2020/01/31 23:47:42.9	174.310	-0.290	-0.070	2.720
2020/01/31 23:47:43.0	174.290	-0.270	-0.060	2.720
2020/01/31 23:47:43.1	174.280	-0.250	-0.060	2.710
2020/01/31 23:47:43.2	174.270	-0.230	-0.050	2.710
2020/01/31 23:47:43.3	174.260	-0.210	-0.040	2.700
2020/01/31 23:47:43.4	174.250	-0.200	-0.040	2.690
2020/01/31 23:47:43.5	174.250	-0.180	-0.030	2.680
2020/01/31 23:47:43.6	174.240	-0.170	-0.020	2.680
2020/01/31 23:47:43.7	174.240	-0.150	-0.010	2.670
2020/01/31 23:47:43.8	174.230	-0.140	-0.000	2.660
2020/01/31 23:47:43.9	174.230	-0.130	0.000	2.650
2020/01/31 23:47:44.0	174.230	-0.120	0.010	2.640
2020/01/31 23:47:44.1	174.220	-0.120	0.030	2.630
2020/01/31 23:47:44.2	174.220	-0.110	0.040	2.610
2020/01/31 23:47:44.3	174.220	-0.110	0.050	2.600
2020/01/31 23:47:44.4	174.220	-0.110	0.060	2.580
2020/01/31 23:47:44.5	174.230	-0.100	0.070	2.560
2020/01/31 23:47:44.6	174.230	-0.110	0.090	2.540
2020/01/31 23:47:44.7	174.240	-0.110	0.110	2.510
2020/01/31 23:47:44.8	174.260	-0.110	0.120	2.480
2020/01/31 23:47:44.9	174.270	-0.120	0.140	2.450
2020/01/31 23:47:45.0	174.270	-0.120	0.160	2.420
2020/01/31 23:47:45.1	174.290	-0.130	0.180	2.380
2020/01/31 23:47:45.2	174.310	-0.140	0.200	2.350
2020/01/31 23:47:45.3	174.330	-0.150	0.220	2.310
2020/01/31 23:47:45.4	174.360	-0.150	0.250	2.270
2020/01/31 23:47:45.5	174.380	-0.160	0.270	2.220
2020/01/31 23:47:45.6	174.410	-0.170	0.290	2.180
2020/01/31 23:47:45.7	174.430	-0.180	0.310	2.130
2020/01/31 23:47:45.8	174.460	-0.190	0.340	2.080
2020/01/31 23:47:45.9	174.490	-0.190	0.360	2.040
2020/01/31 23:47:46.0	174.510	-0.200	0.370	1.990
2020/01/31 23:47:46.1	174.550	-0.210	0.390	1.940
2020/01/31 23:47:46.2	174.580	-0.210	0.410	1.890
2020/01/31 23:47:46.3	174.610	-0.210	0.420	1.840
2020/01/31 23:47:46.4	174.630	-0.210	0.420	1.800
2020/01/31 23:47:46.5	174.650	-0.210	0.430	1.750
2020/01/31 23:47:46.6	174.670	-0.200	0.430	1.710
2020/01/31 23:47:46.7	174.690	-0.200	0.420	1.680
2020/01/31 23:47:46.8	174.710	-0.190	0.420	1.640
2020/01/31 23:47:46.9	174.720	-0.180	0.400	1.610
2020/01/31 23:47:47.0	174.730	-0.160	0.380	1.580
2020/01/31 23:47:47.1	174.750	-0.150	0.360	1.550
2020/01/31 23:47:47.2	174.760	-0.130	0.330	1.530
2020/01/31 23:47:47.3	174.760	-0.110	0.300	1.510
2020/01/31 23:47:47.4	174.760	-0.080	0.270	1.500
2020/01/31 23:47:47.5	174.760	-0.060	0.230	1.480
2020/01/31 23:47:47.6	174.760	-0.030	0.180	1.470
2020/01/31 23:47:47.7	174.750	-0.000	0.140	1.470
2020/01/31 23:47:47.8	174.750	0.030	0.090	1.460
2020/01/31 23:47:47.9	174.740	0.060	0.040	1.450
2020/01/31 23:47:48.0	174.740	0.100	-0.010	1.450
2020/01/31 23:47:48.1	174.730	0.130	-0.060	1.440
2020/01/31 23:47:48.2	174.720	0.170	-0.110	1.440
2020/01/31 23:47:48.3	174.710	0.200	-0.160	1.430
2020/01/31 23:47:48.4	174.710	0.240	-0.210	1.420
2020/01/31 23:47:48.5	174.700	0.270	-0.260	1.410
2020/01/31 23:47:48.6	174.700	0.310	-0.300	1.390
2020/01/31 23:47:48.7	174.690	0.340	-0.350	1.380
2020/01/31 23:47:48.8	174.690	0.380	-0.390	1.360
2020/01/31 23:47:48.9	174.690	0.410	-0.420	1.340
2020/01/31 23:47:49.0	174.680	0.440	-0.460	1.330
2020/01/31 23:47:49.1	174.680	0.470	-0.490	1.310
2020/01/31 23:47:49.2	174.680	0.500	-0.520	1.280
2020/01/31 23:47:49.3	174.680	0.520	-0.550	1.260
2020/01/31 23:47:49.4	174.680	0.540	-0.570	1.240
2020/01/31 23:47:49.5	174.690	0.560	-0.590	1.210
2020/01/31 23:47:49.6	174.690	0.580	-0.600	1.190
2020/01/31 23:47:49.7	174.700	0.600	-0.620	1.170
2020/01/31 23:47:49.8	174.700	0.610	-0.630	1.140
2020/01/31 23:47:49.9	174.710	0.620	-0.640	1.120
2020/01/31 23:47:50.0	174.710	0.620	-0.650	1.100
2020/01/31 23:47:50.1	174.730	0.630	-0.650	1.080
2020/01/31 23:47:50.2	174.740	0.630	-0.660	1.060
2020/01/31 23:47:50.3	174.740	0.620	-0.660	1.050
2020/01/31 23:47:50.4	174.750	0.620	-0.660	1.040
2020/01/31 23:47:50.5	174.750	0.610	-0.670	1.030
2020/01/31 23:47:50.6	174.750	0.590	-0.670	1.030
2020/01/31 23:47:50.7	174.760	0.580	-0.670	1.030
2020/01/31 23:47:50.8	174.760	0.560	-0.680	1.040
2020/01/31 23:47:50.9	174.760	0.540	-0.680	1.050
2020/01/31 23:47:51.0	174.760	0.520	-0.680	1.070
2020/01/31 23:47:51.1	174.770	0.490	-0.690	1.090
2020/01/31 23:47:51.2	174.770	0.460	-0.690	1.110
2020/01/31 23:47:51.3	174.760	0.430	-0.700	1.140
2020/01/31 23:47:51.4	174.760	0.400	-0.700	1.170
2020/01/31 23:47:51.5	174.750	0.370	-0.700	1.210
2020/01/31 23:47:51.6	174.740	0.330	-0.710	1.250
2020/01/31 23:47:51.7	174.740	0.300	-0.710	1.290
2020/01/31 23:47:51.8	174.730	0.260	-0.710	1.340
2020/01/31 23:47:51.9	174.710	0.230	-0.720	1.380
2020/01/31 23:47:52.0	174.700	0.190	-0.710	1.430
2020/01/31 23:47:52.1	174.690	0.160	-0.720	1.480
2020/01/31 23:47:52.2	174.680	0.120	-0.720	1.530
2020/01/31 23:47:52.3	174.660	0.090	-0.720	1.580
2020/01/31 23:47:52.4	174.650	0.060	-0.720	1.620
2020/01/31 23:47:52.5	174.630	0.030	-0.720	1.670
2020/01/31 23:47:52.6	174.620	-0.000	-0.720	1.710
2020/01/31 23:47:52.7	174.600	-0.030	-0.720	1.750
2020/01/31 23:47:52.8	174.590	-0.050	-0.720	1.790
2020/01/31 23:47:52.9	174.570	-0.080	-0.710	1.830
2020/01/31 23:47:53.0	174.560	-0.100	-0.710	1.860
2020/01/31 23:47:53.1	174.540	-0.120	-0.710	1.890
2020/01/31 23:47:53.2	174.530	-0.130	-0.700	1.930
2020/01/31 23:47:53.3	174.510	-0.150	-0.690	1.950
2020/01/31 23:47:53.4	174.500	-0.160	-0.680	1.980
2020/01/31 23:47:53.5	174.490	-0.170	-0.670	2.010
2020/01/31 23:47:53.6	174.470	-0.180	-0.650	2.030
2020/01/31 23:47:53.7	174.460	-0.190	-0.640	2.050
2020/01/31 23:47:53.8	174.450	-0.200	-0.630	2.070
2020/01/31 23:47:53.9	174.440	-0.200	-0.610	2.090
2020/01/31 23:47:54.0	174.430	-0.200	-0.590	2.110
2020/01/31 23:47:54.1	174.420	-0.200	-0.570	2.130
2020/01/31 23:47:54.2	174.410	-0.200	-0.550	2.150
2020/01/31 23:47:54.3	174.400	-0.200	-0.530	2.160
2020/01/31 23:47:54.4	174.390	-0.200	-0.500	2.170
2020/01/31 23:47:54.5	174.390	-0.200	-0.480	2.180
2020/01/31 23:47:54.6	174.380	-0.200	-0.460	2.190
2020/01/31 23:47:54.7	174.370	-0.190	-0.430	2.200
2020/01/31 23:47:54.8	174.370	-0.190	-0.400	2.200
2020/01/31 23:47:54.9	174.360	-0.190	-0.380	2.210
2020/01/31 23:47:55.0	174.350	-0.180	-0.350	2.210
2020/01/31 23:47:55.1	174.350	-0.180	-0.320	2.200
2020/01/31 23:47:55.2	174.350	-0.180	-0.290	2.200
2020/01/31 23:47:55.3	174.340	-0.170	-0.260	2.190
2020/01/31 23:47:55.4	174.340	-0.170	-0.230	2.170
2020/01/31 23:47:55.5	174.340	-0.170	-0.200	2.160
2020/01/31 23:47:55.6	174.350	-0.170	-0.160	2.140
2020/01/31 23:47:55.7	174.350	-0.170	-0.130	2.120
2020/01/31 23:47:55.8	174.350	-0.170	-0.100	2.090
2020/01/31 23:47:55.9	174.360	-0.170	-0.070	2.060
2020/01/31 23:47:56.0	174.360	-0.180	-0.040	2.030
2020/01/31 23:47:56.1	174.370	-0.180	-0.010	2.000
2020/01/31 23:47:56.2	174.380	-0.180	0.020	1.970
2020/01/31 23:47:56.3	174.390	-0.190	0.050	1.940
2020/01/31 23:47:56.4	174.400	-0.190	0.070	1.900
2020/01/31 23:47:56.5	174.400	-0.190	0.100	1.860
2020/01/31 23:47:56.6	174.410	-0.200	0.110	1.820
2020/01/31 23:47:56.7	174.420	-0.200	0.130	1.780
2020/01/31 23:47:56.8	174.440	-0.210	0.150	1.740
2020/01/31 23:47:56.9	174.450	-0.210	0.160	1.710
2020/01/31 23:47:57.0	174.460	-0.210	0.160	1.670
2020/01/31 23:47:57.1	174.480	-0.220	0.170	1.620
2020/01/31 23:47:57.2	174.490	-0.220	0.170	1.590
2020/01/31 23:47:57.3	174.500	-0.220	0.170	1.550
2020/01/31 23:47:57.4	174.510	-0.220	0.160	1.520
2020/01/31 23:47:57.5	174.520	-0.220	0.150	1.490
2020/01/31 23:47:57.6	174.520	-0.220	0.130	1.460
2020/01/31 23:47:57.7	174.530	-0.220	0.120	1.440
2020/01/31 23:47:57.8	174.530	-0.210	0.090	1.410
2020/01/31 23:47:57.9	174.540	-0.210	0.070	1.390
2020/01/31 23:47:58.0	174.540	-0.200	0.040	1.380
2020/01/31 23:47:58.1	174.540	-0.190	0.010	1.370
2020/01/31 23:47:58.2	174.540	-0.180	-0.020	1.350
2020/01/31 23:47:58.3	174.530	-0.170	-0.050	1.350
2020/01/31 23:47:58.4	174.530	-0.160	-0.090	1.340
2020/01/31 23:47:58.5	174.520	-0.150	-0.120	1.340
2020/01/31 23:47:58.6	174.510	-0.140	-0.160	1.340
2020/01/31 23:47:58.7	174.500	-0.130	-0.190	1.340
2020/01/31 23:47:58.8	174.490	-0.120	-0.220	1.340
2020/01/31 23:47:58.9	174.480	-0.100	-0.250	1.350
2020/01/31 23:47:59.0	174.460	-0.090	-0.290	1.350
2020/01/31 23:47:59.1	174.450	-0.080	-0.310	1.360
2020/01/31 23:47:59.2	174.440	-0.070	-0.340	1.370
2020/01/31 23:47:59.3	174.430	-0.070	-0.360	1.380
2020/01/31 23:47:59.4	174.420	-0.060	-0.370	1.390
2020/01/31 23:47:59.5	174.410	-0.060	-0.380	1.400
2020/01/31 23:47:59.6	174.390	-0.050	-0.390	1.410
2020/01/31 23:47:59.7	174.380	-0.050	-0.390	1.430
2020/01/31 23:47:59.8	174.370	-0.050	-0.390	1.440
2020/01/31 23:47:59.9	174.360	-0.060	-0.390	1.460
2020/01/31 23:48:00.0	174.360	-0.060	-0.380	1.480
2020/01/31 23:48:00.1	174.350	-0.070	-0.370	1.500
2020/01/31 23:48:00.2	174.340	-0.080	-0.350	1.530
2020/01/31 23:48:00.3	174.330	-0.090	-0.330	1.550
2020/01/31 23:48:00.4	174.320	-0.110	-0.310	1.580
2020/01/31 23:48:00.5	174.320	-0.120	-0.290	1.610
2020/01/31 23:48:00.6	174.310	-0.140	-0.260	1.640
2020/01/31 23:48:00.7	174.300	-0.150	-0.230	1.670
2020/01/31 23:48:00.8	174.290	-0.170	-0.200	1.710
2020/01/31 23:48:00.9	174.280	-0.190	-0.170	1.740
2020/01/31 23:48:01.0	174.280	-0.210	-0.140	1.770
2020/01/31 23:48:01.1	174.280	-0.230	-0.100	1.810
2020/01/31 23:48:01.2	174.270	-0.250	-0.070	1.840
2020/01/31 23:48:01.3	174.270	-0.260	-0.040	1.870
2020/01/31 23:48:01.4	174.260	-0.280	-0.010	1.890
2020/01/31 23:48:01.5	174.260	-0.300	0.020	1.920
2020/01/31 23:48:01.6	174.260	-0.310	0.060	1.940
2020/01/31 23:48:01.7	174.260	-0.320	0.090	1.960
2020/01/31 23:48:01.8	174.260	-0.330	0.120	1.970
2020/01/31 23:48:01.9	174.260	-0.340	0.150	1.980
2020/01/31 23:48:02.0	174.270	-0.350	0.170	2.000
2020/01/31 23:48:02.1	174.280	-0.360	0.190	2.000
2020/01/31 23:48:02.2	174.290	-0.360	0.210	2.010
2020/01/31 23:48:02.3	174.290	-0.360	0.230	2.010
2020/01/31 23:48:02.4	174.300	-0.360	0.250	2.010
2020/01/31 23:48:02.5	174.310	-0.350	0.260	2.010
2020/01/31 23:48:02.6	174.320	-0.350	0.270	2.000
2020/01/31 23:48:02.7	174.330	-0.340	0.280	2.000
2020/01/31 23:48:02.8	174.340	-0.320	0.280	1.990
2020/01/31 23:48:02.9	174.350	-0.310	0.280	1.980
2020/01/31 23:48:03.0	174.350	-0.290	0.270	1.970
2020/01/31 23:48:03.1	174.360	-0.270	0.260	1.960
2020/01/31 23:48:03.2	174.370	-0.250	0.240	1.940
2020/01/31 23:48:03.3	174.380	-0.220	0.220	1.930
2020/01/31 23:48:03.4	174.380	-0.190	0.190	1.920
2020/01/31 23:48:03.5	174.390	-0.160	0.160	1.900
2020/01/31 23:48:03.6	174.400	-0.130	0.120	1.890
2020/01/31 23:48:03.7	174.400	-0.100	0.080	1.880
2020/01/31 23:48:03.8	174.400	-0.060	0.030	1.860
2020/01/31 23:48:03.9	174.410	-0.030	-0.020	1.850
2020/01/31 23:48:04.0	174.410	0.010	-0.080	1.830
2020/01/31 23:48:04.1	174.390	0.050	-0.140	1.820
2020/01/31 23:48:04.2	174.390	0.090	-0.200	1.800
2020/01/31 23:48:04.3	174.390	0.130	-0.260	1.790
2020/01/31 23:48:04.4	174.380	0.170	-0.330	1.770
2020/01/31 23:48:04.5	174.380	0.200	-0.390	1.760
2020/01/31 23:48:04.6	174.370	0.240	-0.450	1.750
2020/01/31 23:48:04.7	174.370	0.280	-0.520	1.730
2020/01/31 23:48:04.8	174.360	0.310	-0.580	1.720
2020/01/31 23:48:04.9	174.360	0.350	-0.640	1.700
2020/01/31 23:48:05.0	174.340	0.380	-0.690	1.680
2020/01/31 23:48:05.1	174.340	0.410	-0.740	1.670
2020/01/31 23:48:05.2	174.340	0.430	-0.790	1.660
2020/01/31 23:48:05.3	174.330	0.460	-0.830	1.640
2020/01/31 23:48:05.4	174.330	0.480	-0.870	1.630
2020/01/31 23:48:05.5	174.330	0.500	-0.900	1.610
2020/01/31 23:48:05.6	174.330	0.510	-0.920	1.590
2020/01/31 23:48:05.7	174.340	0.520	-0.940	1.580
2020/01/31 23:48:05.8	174.340	0.530	-0.950	1.560
2020/01/31 23:48:05.9	174.350	0.530	-0.950	1.540
2020/01/31 23:48:06.0	174.360	0.530	-0.950	1.520
2020/01/31 23:48:06.1	174.370	0.530	-0.930	1.500
2020/01/31 23:48:06.2	174.380	0.520	-0.910	1.480
2020/01/31 23:48:06.3	174.390	0.510	-0.880	1.460
2020/01/31 23:48:06.4	174.400	0.500	-0.850	1.440
2020/01/31 23:48:06.5	174.410	0.480	-0.810	1.420
2020/01/31 23:48:06.6	174.420	0.460	-0.760	1.410
2020/01/31 23:48:06.7	174.430	0.440	-0.710	1.390
2020/01/31 23:48:06.8	174.440	0.410	-0.660	1.370
2020/01/31 23:48:06.9	174.450	0.380	-0.600	1.360
2020/01/31 23:48:07.0	174.460	0.350	-0.540	1.340
2020/01/31 23:48:07.1	174.470	0.310	-0.470	1.330
2020/01/31 23:48:07.2	174.480	0.280	-0.410	1.320
2020/01/31 23:48:07.3	174.490	0.240	-0.340	1.320
2020/01/31 23:48:07.4	174.500	0.200	-0.280	1.320
2020/01/31 23:48:07.5	174.500	0.160	-0.220	1.320
2020/01/31 23:48:07.6	174.500	0.120	-0.170	1.320
2020/01/31 23:48:07.7	174.500	0.080	-0.110	1.320
2020/01/31 23:48:07.8	174.500	0.040	-0.060	1.330
2020/01/31 23:48:07.9	174.500	0.000	-0.020	1.340
2020/01/31 23:48:08.0	174.500	-0.030	0.020	1.350
2020/01/31 23:48:08.1	174.500	-0.070	0.050	1.360
2020/01/31 23:48:08.2	174.490	-0.100	0.070	1.370
2020/01/31 23:48:08.3	174.490	-0.130	0.090	1.390
2020/01/31 23:48:08.4	174.480	-0.160	0.100	1.400
2020/01/31 23:48:08.5	174.480	-0.180	0.100	1.410
2020/01/31 23:48:08.6	174.470	-0.200	0.100	1.420
2020/01/31 23:48:08.7	174.460	-0.220	0.090	1.430
2020/01/31 23:48:08.8	174.450	-0.230	0.080	1.450
2020/01/31 23:48:08.9	174.440	-0.240	0.050	1.460
2020/01/31 23:48:09.0	174.440	-0.250	0.030	1.470
2020/01/31 23:48:09.1	174.430	-0.250	-0.010	1.480
2020/01/31 23:48:09.2	174.410	-0.250	-0.040	1.500
2020/01/31 23:48:09.3	174.400	-0.250	-0.080	1.520
2020/01/31 23:48:09.4	174.390	-0.240	-0.120	1.530
2020/01/31 23:48:09.5	174.380	-0.230	-0.170	1.550
2020/01/31 23:48:09.6	174.360	-0.220	-0.210	1.570
2020/01/31 23:48:09.7	174.350	-0.200	-0.260	1.580
2020/01/31 23:48:09.8	174.340	-0.180	-0.300	1.600
2020/01/31 23:48:09.9	174.330	-0.160	-0.340	1.620
2020/01/31 23:48:10.0	174.320	-0.140	-0.380	1.640
2020/01/31 23:48:10.1	174.320	-0.120	-0.410	1.660
2020/01/31 23:48:10.2	174.310	-0.100	-0.440	1.670
2020/01/31 23:48:10.3	174.310	-0.080	-0.460	1.680
2020/01/31 23:48:10.4	174.320	-0.060	-0.480	1.690
2020/01/31 23:48:10.5	174.320	-0.040	-0.490	1.700
2020/01/31 23:48:10.6	174.340	-0.020	-0.500	1.710
2020/01/31 23:48:10.7	174.350	-0.000	-0.500	1.720
2020/01/31 23:48:10.8	174.370	0.010	-0.490	1.720
2020/01/31 23:48:10.9	174.390	0.030	-0.470	1.720
2020/01/31 23:48:11.0	174.410	0.040	-0.450	1.720
2020/01/31 23:48:11.1	174.440	0.050	-0.420	1.710
2020/01/31 23:48:11.2	174.470	0.050	-0.390	1.700
2020/01/31 23:48:11.3	174.500	0.060	-0.350	1.700
2020/01/31 23:48:11.4	174.540	0.060	-0.310	1.680
2020/01/31 23:48:11.5	174.570	0.050	-0.270	1.670
2020/01/31 23:48:11.6	174.610	0.050	-0.220	1.650
2020/01/31 23:48:11.7	174.650	0.040	-0.170	1.640
2020/01/31 23:48:11.8	174.680	0.030	-0.120	1.620
2020/01/31 23:48:11.9	174.720	0.010	-0.070	1.600
2020/01/31 23:48:12.0	174.760	-0.000	-0.030	1.570
2020/01/31 23:48:12.1	174.800	-0.020	0.020	1.550
2020/01/31 23:48:12.2	174.830	-0.040	0.060	1.530
2020/01/31 23:48:12.3	174.860	-0.060	0.100	1.510
2020/01/31 23:48:12.4	174.880	-0.080	0.130	1.500
2020/01/31 23:48:12.5	174.910	-0.100	0.160	1.480
2020/01/31 23:48:12.6	174.930	-0.130	0.180	1.460
2020/01/31 23:48:12.7	174.950	-0.150	0.200	1.450
2020/01/31 23:48:12.8	174.970	-0.170	0.210	1.440
2020/01/31 23:48:12.9	174.980	-0.200	0.210	1.430
2020/01/31 23:48:13.0	174.970	-0.220	0.210	1.430
2020/01/31 23:48:13.1	174.980	-0.240	0.200	1.430
2020/01/31 23:48:13.2	174.980	-0.260	0.180	1.430
2020/01/31 23:48:13.3	174.990	-0.270	0.160	1.430
2020/01/31 23:48:13.4	174.980	-0.290	0.130	1.440
2020/01/31 23:48:13.5	174.980	-0.300	0.090	1.450
2020/01/31 23:48:13.6	174.970	-0.310	0.050	1.470
2020/01/31 23:48:13.7	174.960	-0.310	-0.000	1.490
2020/01/31 23:48:13.8	174.950	-0.320	-0.050	1.520
2020/01/31 23:48:13.9	174.940	-0.320	-0.110	1.550
2020/01/31 23:48:14.0	174.920	-0.310	-0.170	1.580
2020/01/31 23:48:14.1	174.900	-0.310	-0.240	1.610
2020/01/31 23:48:14.2	174.880	-0.300	-0.300	1.650
2020/01/31 23:48:14.3	174.860	-0.280	-0.370	1.700
2020/01/31 23:48:14.4	174.830	-0.270	-0.430	1.740
2020/01/31 23:48:14.5	174.810	-0.250	-0.500	1.780
2020/01/31 23:48:14.6	174.780	-0.220	-0.560	1.830
2020/01/31 23:48:14.7	174.750	-0.200	-0.630	1.870
2020/01/31 23:48:14.8	174.710	-0.170	-0.690	1.920
2020/01/31 23:48:14.9	174.680	-0.130	-0.740	1.960
2020/01/31 23:48:15.0	174.650	-0.100	-0.790	2.000
2020/01/31 23:48:15.1	174.620	-0.060	-0.840	2.040
2020/01/31 23:48:15.2	174.580	-0.020	-0.890	2.080
2020/01/31 23:48:15.3	174.550	0.020	-0.920	2.120
2020/01/31 23:48:15.4	174.510	0.060	-0.960	2.150
2020/01/31 23:48:15.5	174.480	0.100	-0.980	2.180
2020/01/31 23:48:15.6	174.440	0.150	-1.000	2.200
2020/01/31 23:48:15.7	174.410	0.190	-1.010	2.230
2020/01/31 23:48:15.8	174.380	0.230	-1.020	2.240
2020/01/31 23:48:15.9	174.350	0.270	-1.020	2.260
2020/01/31 23:48:16.0	174.330	0.310	-1.010	2.260
2020/01/31 23:48:16.1	174.300	0.350	-0.990	2.270
2020/01/31 23:48:16.2	174.280	0.390	-0.970	2.260
2020/01/31 23:48:16.3	174.260	0.420	-0.940	2.260
2020/01/31 23:48:16.4	174.250	0.450	-0.900	2.240
2020/01/31 23:48:16.5	174.240	0.470	-0.860	2.230
2020/01/31 23:48:16.6	174.230	0.490	-0.810	2.200
2020/01/31 23:48:16.7	174.230	0.500	-0.750	2.180
2020/01/31 23:48:16.8	174.230	0.510	-0.690	2.150
2020/01/31 23:48:16.9	174.230	0.520	-0.620	2.120
2020/01/31 23:48:17.0	174.240	0.520	-0.550	2.080
2020/01/31 23:48:17.1	174.260	0.510	-0.480	2.040
2020/01/31 23:48:17.2	174.280	0.500	-0.400	2.000
2020/01/31 23:48:17.3	174.290	0.480	-0.320	1.960
2020/01/31 23:48:17.4	174.310	0.460	-0.240	1.920
2020/01/31 23:48:17.5	174.340	0.430	-0.160	1.880
2020/01/31 23:48:17.6	174.360	0.400	-0.080	1.830
2020/01/31 23:48:17.7	174.390	0.360	0.000	1.790
2020/01/31 23:48:17.8	174.420	0.320	0.090	1.750
2020/01/31 23:48:17.9	174.450	0.270	0.170	1.710
2020/01/31 23:48:18.0	174.480	0.220	0.240	1.680
2020/01/31 23:48:18.1	174.520	0.170	0.320	1.640
2020/01/31 23:48:18.2	174.550	0.110	0.390	1.610
2020/01/31 23:48:18.3	174.590	0.050	0.460	1.580
2020/01/31 23:48:18.4	174.630	-0.010	0.520	1.550
2020/01/31 23:48:18.5	174.660	-0.070	0.580	1.530
2020/01/31 23:48:18.6	174.700	-0.130	0.630	1.500
2020/01/31 23:48:18.7	174.730	-0.200	0.670	1.490
2020/01/31 23:48:18.8	174.770	-0.260	0.710	1.470
2020/01/31 23:48:18.9	174.800	-0.320	0.740	1.460
2020/01/31 23:48:19.0	174.820	-0.370	0.770	1.450
2020/01/31 23:48:19.1	174.850	-0.430	0.780	1.450
2020/01/31 23:48:19.2	174.870	-0.480	0.790	1.460
2020/01/31 23:48:19.3	174.900	-0.530	0.780	1.460
2020/01/31 23:48:19.4	174.920	-0.570	0.770	1.470
2020/01/31 23:48:19.5	174.930	-0.610	0.750	1.490
2020/01/31 23:48:19.6	174.950	-0.650	0.720	1.510
2020/01/31 23:48:19.7	174.960	-0.670	0.680	1.530
2020/01/31 23:48:19.8	174.960	-0.700	0.630	1.550
2020/01/31 23:48:19.9	174.970	-0.710	0.570	1.580
2020/01/31 23:48:20.0	174.960	-0.720	0.510	1.600
2020/01/31 23:48:20.1	174.960	-0.730	0.440	1.630
2020/01/31 23:48:20.2	174.960	-0.730	0.360	1.660
2020/01/31 23:48:20.3	174.950	-0.720	0.280	1.680
2020/01/31 23:48:20.4	174.950	-0.710	0.190	1.710
2020/01/31 23:48:20.5	174.940	-0.690	0.100	1.740
2020/01/31 23:48:20.6	174.930	-0.660	0.010	1.760
2020/01/31 23:48:20.7	174.910	-0.630	-0.090	1.790
2020/01/31 23:48:20.8	174.900	-0.600	-0.180	1.820
2020/01/31 23:48:20.9	174.880	-0.560	-0.280	1.840
2020/01/31 23:48:21.0	174.870	-0.520	-0.380	1.870
2020/01/31 23:48:21.1	174.840	-0.470	-0.470	1.890
2020/01/31 23:48:21.2	174.830	-0.420	-0.560	1.910
2020/01/31 23:48:21.3	174.810	-0.370	-0.650	1.930
2020/01/31 23:48:21.4	174.790	-0.310	-0.740	1.960
2020/01/31 23:48:21.5	174.770	-0.260	-0.820	1.980
2020/01/31 23:48:21.6	174.750	-0.200	-0.890	1.990
2020/01/31 23:48:21.7	174.730	-0.140	-0.960	2.010
2020/01/31 23:48:21.8	174.710	-0.080	-1.020	2.020
2020/01/31 23:48:21.9	174.690	-0.030	-1.070	2.040
2020/01/31 23:48:22.0	174.680	0.030	-1.110	2.040
2020/01/31 23:48:22.1	174.660	0.080	-1.140	2.060
2020/01/31 23:48:22.2	174.650	0.130	-1.170	2.060
2020/01/31 23:48:22.3	174.630	0.180	-1.180	2.060
2020/01/31 23:48:22.4	174.620	0.230	-1.190	2.050
2020/01/31 23:48:22.5	174.600	0.270	-1.180	2.040
2020/01/31 23:48:22.6	174.590	0.310	-1.170	2.030
2020/01/31 23:48:22.7	174.580	0.350	-1.150	2.010
2020/01/31 23:48:22.8	174.570	0.380	-1.120	1.980
2020/01/31 23:48:22.9	174.560	0.410	-1.080	1.960
2020/01/31 23:48:23.0	174.550	0.430	-1.030	1.920
2020/01/31 23:48:23.1	174.540	0.450	-0.980	1.890
2020/01/31 23:48:23.2	174.530	0.470	-0.920	1.850
2020/01/31 23:48:23.3	174.530	0.480	-0.860	1.800
2020/01/31 23:48:23.4	174.530	0.480	-0.790	1.760
2020/01/31 23:48:23.5	174.530	0.490	-0.720	1.710
2020/01/31 23:48:23.6	174.530	0.490	-0.650	1.650
2020/01/31 23:48:23.7	174.540	0.480	-0.570	1.600
2020/01/31 23:48:23.8	174.540	0.480	-0.500	1.540
2020/01/31 23:48:23.9	174.550	0.470	-0.420	1.490
2020/01/31 23:48:24.0	174.550	0.450	-0.350	1.430
2020/01/31 23:48:24.1	174.560	0.440	-0.270	1.380
2020/01/31 23:48:24.2	174.570	0.420	-0.200	1.330
2020/01/31 23:48:24.3	174.590	0.400	-0.130	1.280
2020/01/31 23:48:24.4	174.600	0.370	-0.070	1.230
2020/01/31 23:48:24.5	174.610	0.350	-0.010	1.190
2020/01/31 23:48:24.6	174.620	0.320	0.040	1.150
2020/01/31 23:48:24.7	174.630	0.290	0.090	1.110
2020/01/31 23:48:24.8	174.650	0.270	0.130	1.080
2020/01/31 23:48:24.9	174.660	0.240	0.170	1.050
2020/01/31 23:48:25.0	174.670	0.210	0.190	1.030
2020/01/31 23:48:25.1	174.690	0.180	0.220	1.000
2020/01/31 23:48:25.2	174.700	0.150	0.230	0.990
2020/01/31 23:48:25.3	174.710	0.130	0.240	0.980
2020/01/31 23:48:25.4	174.720	0.100	0.240	0.980
2020/01/31 23:48:25.5	174.730	0.070	0.240	0.980
2020/01/31 23:48:25.6	174.740	0.050	0.230	0.980
2020/01/31 23:48:25.7	174.750	0.030	0.210	0.990
2020/01/31 23:48:25.8	174.750	0.010	0.190	1.000
2020/01/31 23:48:25.9	174.760	-0.010	0.160	1.020
2020/01/31 23:48:26.0	174.760	-0.030	0.120	1.040
2020/01/31 23:48:26.1	174.760	-0.050	0.090	1.060
2020/01/31 23:48:26.2	174.760	-0.060	0.050	1.090
2020/01/31 23:48:26.3	174.760	-0.070	0.010	1.120
2020/01/31 23:48:26.4	174.760	-0.080	-0.040	1.150
2020/01/31 23:48:26.5	174.750	-0.090	-0.080	1.180
2020/01/31 23:48:26.6	174.750	-0.100	-0.130	1.210
2020/01/31 23:48:26.7	174.750	-0.110	-0.170	1.250
2020/01/31 23:48:26.8	174.750	-0.110	-0.210	1.280
2020/01/31 23:48:26.9	174.750	-0.120	-0.260	1.320
2020/01/31 23:48:27.0	174.740	-0.120	-0.300	1.350
2020/01/31 23:48:27.1	174.750	-0.120	-0.330	1.390
2020/01/31 23:48:27.2	174.750	-0.120	-0.360	1.430
2020/01/31 23:48:27.3	174.750	-0.120	-0.390	1.470
2020/01/31 23:48:27.4	174.750	-0.120	-0.420	1.510
2020/01/31 23:48:27.5	174.740	-0.120	-0.440	1.540
2020/01/31 23:48:27.6	174.740	-0.120	-0.460	1.580
2020/01/31 23:48:27.7	174.740	-0.120	-0.470	1.620
2020/01/31 23:48:27.8	174.730	-0.120	-0.470	1.660
2020/01/31 23:48:27.9	174.730	-0.120	-0.470	1.690
2020/01/31 23:48:28.0	174.730	-0.120	-0.470	1.730
2020/01/31 23:48:28.1	174.720	-0.120	-0.470	1.760
2020/01/31 23:48:28.2	174.720	-0.120	-0.450	1.800
2020/01/31 23:48:28.3	174.720	-0.120	-0.440	1.830
2020/01/31 23:48:28.4	174.720	-0.120	-0.420	1.860
2020/01/31 23:48:28.5	174.710	-0.120	-0.390	1.880
2020/01/31 23:48:28.6	174.710	-0.120	-0.370	1.910
2020/01/31 23:48:28.7	174.710	-0.120	-0.340	1.930
2020/01/31 23:48:28.8	174.710	-0.120	-0.310	1.940
2020/01/31 23:48:28.9	174.700	-0.120	-0.280	1.960
2020/01/31 23:48:29.0	174.700	-0.120	-0.250	1.980
2020/01/31 23:48:29.1	174.690	-0.120	-0.220	1.990
2020/01/31 23:48:29.2	174.690	-0.120	-0.190	2.000
2020/01/31 23:48:29.3	174.680	-0.120	-0.160	2.000
2020/01/31 23:48:29.4	174.670	-0.120	-0.140	2.010
2020/01/31 23:48:29.5	174.670	-0.120	-0.120	2.010
2020/01/31 23:48:29.6	174.660	-0.120	-0.090	2.010
2020/01/31 23:48:29.7	174.650	-0.120	-0.080	2.010
2020/01/31 23:48:29.8	174.640	-0.120	-0.060	2.010
2020/01/31 23:48:29.9	174.630	-0.120	-0.050	2.000
2020/01/31 23:48:30.0	174.610	-0.110	-0.040	1.990
2020/01/31 23:48:30.1	174.600	-0.110	-0.030	1.990
2020/01/31 23:48:30.2	174.590	-0.110	-0.020	1.980
2020/01/31 23:48:30.3	174.580	-0.100	-0.020	1.970
2020/01/31 23:48:30.4	174.570	-0.100	-0.020	1.960
2020/01/31 23:48:30.5	174.560	-0.100	-0.020	1.950
2020/01/31 23:48:30.6	174.550	-0.090	-0.030	1.940
2020/01/31 23:48:30.7	174.540	-0.090	-0.030	1.930
2020/01/31 23:48:30.8	174.530	-0.080	-0.040	1.910
2020/01/31 23:48:30.9	174.520	-0.080	-0.050	1.900
2020/01/31 23:48:31.0	174.520	-0.070	-0.060	1.890
2020/01/31 23:48:31.1	174.510	-0.060	-0.060	1.870
2020/01/31 23:48:31.2	174.510	-0.060	-0.070	1.850
2020/01/31 23:48:31.3	174.510	-0.050	-0.080	1.840
2020/01/31 23:48:31.4	174.510	-0.050	-0.090	1.820
2020/01/31 23:48:31.5	174.510	-0.040	-0.100	1.800
2020/01/31 23:48:31.6	174.520	-0.030	-0.100	1.780
2020/01/31 23:48:31.7	174.520	-0.030	-0.110	1.760
2020/01/31 23:48:31.8	174.530	-0.020	-0.120	1.730
2020/01/31 23:48:31.9	174.540	-0.020	-0.120	1.700
2020/01/31 23:48:32.0	174.560	-0.010	-0.130	1.680
2020/01/31 23:48:32.1	174.590	-0.010	-0.130	1.650
2020/01/31 23:48:32.2	174.600	-0.000	-0.140	1.610
2020/01/31 23:48:32.3	174.620	0.000	-0.140	1.580
2020/01/31 23:48:32.4	174.640	0.010	-0.140	1.540
2020/01/31 23:48:32.5	174.650	0.010	-0.140	1.500
2020/01/31 23:48:32.6	174.670	0.020	-0.150	1.460
2020/01/31 23:48:32.7	174.690	0.020	-0.150	1.430
2020/01/31 23:48:32.8	174.710	0.020	-0.150	1.390
2020/01/31 23:48:32.9	174.730	0.030	-0.150	1.350
2020/01/31 23:48:33.0	174.750	0.030	-0.160	1.310
2020/01/31 23:48:33.1	174.760	0.030	-0.170	1.280
2020/01/31 23:48:33.2	174.780	0.040	-0.170	1.240
2020/01/31 23:48:33.3	174.790	0.040	-0.180	1.210
2020/01/31 23:48:33.4	174.800	0.050	-0.190	1.180
2020/01/31 23:48:33.5	174.810	0.050	-0.200	1.160
2020/01/31 23:48:33.6	174.810	0.060	-0.210	1.130
2020/01/31 23:48:33.7	174.820	0.060	-0.230	1.120
2020/01/31 23:48:33.8	174.820	0.070	-0.250	1.100
2020/01/31 23:48:33.9	174.820	0.080	-0.270	1.090
2020/01/31 23:48:34.0	174.810	0.090	-0.290	1.090
2020/01/31 23:48:34.1	174.810	0.090	-0.310	1.090
2020/01/31 23:48:34.2	174.800	0.100	-0.340	1.090
2020/01/31 23:48:34.3	174.790	0.120	-0.370	1.100
2020/01/31 23:48:34.4	174.780	0.130	-0.410	1.120
2020/01/31 23:48:34.5	174.760	0.140	-0.440	1.140
2020/01/31 23:48:34.6	174.740	0.150	-0.480	1.160
2020/01/31 23:48:34.7	174.720	0.170	-0.520	1.180
2020/01/31 23:48:34.8	174.710	0.180	-0.560	1.200
2020/01/31 23:48:34.9	174.690	0.200	-0.600	1.230
2020/01/31 23:48:35.0	174.670	0.210	-0.630	1.260
2020/01/31 23:48:35.1	174.650	0.230	-0.680	1.280
2020/01/31 23:48:35.2	174.630	0.240	-0.710	1.310
2020/01/31 23:48:35.3	174.620	0.250	-0.750	1.330
2020/01/31 23:48:35.4	174.600	0.270	-0.780	1.360
2020/01/31 23:48:35.5	174.590	0.280	-0.810	1.380
2020/01/31 23:48:35.6	174.580	0.290	-0.840	1.400
2020/01/31 23:48:35.7	174.580	0.300	-0.860	1.430
2020/01/31 23:48:35.8	174.570	0.300	-0.880	1.450
2020/01/31 23:48:35.9	174.570	0.310	-0.890	1.470
2020/01/31 23:48:36.0	174.570	0.310	-0.900	1.480
2020/01/31 23:48:36.1	174.570	0.310	-0.900	1.500
2020/01/31 23:48:36.2	174.580	0.310	-0.890	1.520
2020/01/31 23:48:36.3	174.590	0.300	-0.880	1.540
2020/01/31 23:48:36.4	174.610	0.290	-0.860	1.550
2020/01/31 23:48:36.5	174.620	0.280	-0.830	1.570
2020/01/31 23:48:36.6	174.640	0.260	-0.800	1.590
2020/01/31 23:48:36.7	174.660	0.240	-0.760	1.610
2020/01/31 23:48:36.8	174.690	0.210	-0.710	1.630
2020/01/31 23:48:36.9	174.710	0.190	-0.660	1.640
2020/01/31 23:48:37.0	174.740	0.160	-0.600	1.660
2020/01/31 23:48:37.1	174.770	0.130	-0.540	1.680
2020/01/31 23:48:37.2	174.800	0.090	-0.480	1.700
2020/01/31 23:48:37.3	174.840	0.060	-0.410	1.720
2020/01/31 23:48:37.4	174.880	0.020	-0.340	1.730
2020/01/31 23:48:37.5	174.920	-0.020	-0.270	1.750
2020/01/31 23:48:37.6	174.960	-0.060	-0.200	1.760
2020/01/31 23:48:37.7	175.000	-0.100	-0.130	1.780
2020/01/31 23:48:37.8	175.040	-0.150	-0.060	1.790
2020/01/31 23:48:37.9	175.080	-0.190	0.010	1.800
2020/01/31 23:48:38.0	175.120	-0.230	0.080	1.810
2020/01/31 23:48:38.1	175.160	-0.270	0.140	1.820
2020/01/31 23:48:38.2	175.200	-0.310	0.200	1.830
2020/01/31 23:48:38.3	175.240	-0.340	0.250	1.830
2020/01/31 23:48:38.4	175.270	-0.380	0.300	1.840
2020/01/31 23:48:38.5	175.310	-0.410	0.350	1.840
2020/01/31 23:48:38.6	175.350	-0.440	0.390	1.840
2020/01/31 23:48:38.7	175.380	-0.460	0.420	1.830
2020/01/31 23:48:38.8	175.410	-0.480	0.440	1.830
2020/01/31 23:48:38.9	175.440	-0.500	0.460	1.820
2020/01/31 23:48:39.0	175.460	-0.510	0.480	1.820
2020/01/31 23:48:39.1	175.490	-0.520	0.480	1.810
2020/01/31 23:48:39.2	175.510	-0.530	0.480	1.800
2020/01/31 23:48:39.3	175.530	-0.530	0.470	1.790
2020/01/31 23:48:39.4	175.540	-0.520	0.460	1.780
2020/01/31 23:48:39.5	175.550	-0.520	0.440	1.770
2020/01/31 23:48:39.6	175.560	-0.500	0.410	1.760
2020/01/31 23:48:39.7	175.560	-0.490	0.370	1.750
2020/01/31 23:48:39.8	175.560	-0.470	0.340	1.750
2020/01/31 23:48:39.9	175.560	-0.450	0.290	1.750
2020/01/31 23:48:40.0	175.540	-0.420	0.240	1.740
2020/01/31 23:48:40.1	175.530	-0.390	0.180	1.750
2020/01/31 23:48:40.2	175.510	-0.360	0.120	1.750
2020/01/31 23:48:40.3	175.500	-0.320	0.060	1.760
2020/01/31 23:48:40.4	175.470	-0.280	-0.010	1.770
2020/01/31 23:48:40.5	175.450	-0.240	-0.080	1.790
2020/01/31 23:48:40.6	175.420	-0.200	-0.150	1.810
2020/01/31 23:48:40.7	175.400	-0.160	-0.220	1.830
2020/01/31 23:48:40.8	175.370	-0.110	-0.300	1.850
2020/01/31 23:48:40.9	175.340	-0.070	-0.370	1.870
2020/01/31 23:48:41.0	175.310	-0.020	-0.440	1.890
2020/01/31 23:48:41.1	175.280	0.020	-0.510	1.910
2020/01/31 23:48:41.2	175.250	0.060	-0.580	1.930
2020/01/31 23:48:41.3	175.230	0.100	-0.640	1.950
2020/01/31 23:48:41.4	175.210	0.140	-0.700	1.970
2020/01/31 23:48:41.5	175.190	0.180	-0.760	1.980
2020/01/31 23:48:41.6	175.180	0.210	-0.810	1.990
2020/01/31 23:48:41.7	175.170	0.240	-0.850	2.000
2020/01/31 23:48:41.8	175.160	0.270	-0.880	2.000
2020/01/31 23:48:41.9	175.160	0.290	-0.900	2.000
2020/01/31 23:48:42.0	175.160	0.310	-0.920	2.000
2020/01/31 23:48:42.1	175.160	0.330	-0.930	1.990
2020/01/31 23:48:42.2	175.170	0.340	-0.920	1.980
2020/01/31 23:48:42.3	175.180	0.340	-0.910	1.970
2020/01/31 23:48:42.4	175.200	0.350	-0.890	1.950
2020/01/31 23:48:42.5	175.220	0.340	-0.860	1.930
2020/01/31 23:48:42.6	175.250	0.340	-0.820	1.910
2020/01/31 23:48:42.7	175.280	0.330	-0.770	1.890
2020/01/31 23:48:42.8	175.310	0.310	-0.720	1.860
2020/01/31 23:48:42.9	175.340	0.290	-0.660	1.830
2020/01/31 23:48:43.0	175.380	0.270	-0.590	1.810
2020/01/31 23:48:43.1	175.420	0.240	-0.510	1.780
2020/01/31 23:48:43.2	175.460	0.210	-0.430	1.750
2020/01/31 23:48:43.3	175.490	0.180	-0.350	1.730
2020/01/31 23:48:43.4	175.530	0.150	-0.260	1.700
2020/01/31 23:48:43.5	175.570	0.110	-0.170	1.670
2020/01/31 23:48:43.6	175.610	0.080	-0.080	1.650
2020/01/31 23:48:43.7	175.650	0.040	0.010	1.630
2020/01/31 23:48:43.8	175.680	0.000	0.090	1.610
2020/01/31 23:48:43.9	175.720	-0.030	0.180	1.590
2020/01/31 23:48:44.0	175.750	-0.070	0.260	1.570
2020/01/31 23:48:44.1	175.780	-0.100	0.330	1.550
2020/01/31 23:48:44.2	175.810	-0.140	0.410	1.530
2020/01/31 23:48:44.3	175.830	-0.160	0.470	1.520
2020/01/31 23:48:44.4	175.850	-0.190	0.530	1.500
2020/01/31 23:48:44.5	175.870	-0.210	0.580	1.490
2020/01/31 23:48:44.6	175.890	-0.230	0.620	1.480
2020/01/31 23:48:44.7	175.910	-0.250	0.660	1.470
2020/01/31 23:48:44.8	175.920	-0.260	0.680	1.460
2020/01/31 23:48:44.9	175.930	-0.260	0.700	1.450
2020/01/31 23:48:45.0	175.940	-0.260	0.700	1.440
2020/01/31 23:48:45.1	175.940	-0.260	0.700	1.430
2020/01/31 23:48:45.2	175.950	-0.250	0.680	1.420
2020/01/31 23:48:45.3	175.950	-0.240	0.660	1.420
2020/01/31 23:48:45.4	175.950	-0.230	0.620	1.410
2020/01/31 23:48:45.5	175.940	-0.210	0.580	1.410
2020/01/31 23:48:45.6	175.940	-0.180	0.520	1.410
2020/01/31 23:48:45.7	175.930	-0.150	0.460	1.410
2020/01/31 23:48:45.8	175.930	-0.120	0.390	1.410
2020/01/31 23:48:45.9	175.920	-0.090	0.310	1.410
2020/01/31 23:48:46.0	175.910	-0.050	0.220	1.410
2020/01/31 23:48:46.1	175.900	-0.010	0.130	1.420
2020/01/31 23:48:46.2	175.890	0.030	0.040	1.430
2020/01/31 23:48:46.3	175.880	0.070	-0.060	1.440
2020/01/31 23:48:46.4	175.860	0.110	-0.160	1.450
2020/01/31 23:48:46.5	175.850	0.150	-0.270	1.470
2020/01/31 23:48:46.6	175.830	0.190	-0.370	1.490
2020/01/31 23:48:46.7	175.820	0.230	-0.470	1.500
2020/01/31 23:48:46.8	175.800	0.270	-0.570	1.520
2020/01/31 23:48:46.9	175.790	0.300	-0.660	1.540
2020/01/31 23:48:47.0	175.780	0.340	-0.750	1.570
2020/01/31 23:48:47.1	175.770	0.370	-0.840	1.590
2020/01/31 23:48:47.2	175.760	0.390	-0.920	1.610
2020/01/31 23:48:47.3	175.750	0.410	-0.990	1.630
2020/01/31 23:48:47.4	175.750	0.430	-1.050	1.650
2020/01/31 23:48:47.5	175.740	0.440	-1.100	1.670
2020/01/31 23:48:47.6	175.740	0.450	-1.140	1.690
2020/01/31 23:48:47.7	175.740	0.450	-1.180	1.710
2020/01/31 23:48:47.8	175.740	0.450	-1.200	1.730
2020/01/31 23:48:47.9	175.740	0.440	-1.210	1.750
2020/01/31 23:48:48.0	175.760	0.430	-1.210	1.770
2020/01/31 23:48:48.1	175.770	0.410	-1.200	1.780
2020/01/31 23:48:48.2	175.780	0.390	-1.180	1.800
2020/01/31 23:48:48.3	175.800	0.370	-1.150	1.810
2020/01/31 23:48:48.4	175.820	0.340	-1.110	1.820
2020/01/31 23:48:48.5	175.840	0.310	-1.060	1.820
2020/01/31 23:48:48.6	175.860	0.270	-1.000	1.830
2020/01/31 23:48:48.7	175.890	0.230	-0.940	1.820
2020/01/31 23:48:48.8	175.910	0.190	-0.860	1.820
2020/01/31 23:48:48.9	175.940	0.150	-0.780	1.810
2020/01/31 23:48:49.0	175.980	0.100	-0.700	1.800
2020/01/31 23:48:49.1	176.020	0.060	-0.610	1.780
2020/01/31 23:48:49.2	176.060	0.010	-0.510	1.760
2020/01/31 23:48:49.3	176.090	-0.030	-0.420	1.740
2020/01/31 23:48:49.4	176.130	-0.070	-0.320	1.710
2020/01/31 23:48:49.5	176.160	-0.120	-0.230	1.680
2020/01/31 23:48:49.6	176.200	-0.160	-0.130	1.650
2020/01/31 23:48:49.7	176.230	-0.200	-0.040	1.610
2020/01/31 23:48:49.8	176.270	-0.230	0.050	1.570
2020/01/31 23:48:49.9	176.300	-0.270	0.130	1.540
2020/01/31 23:48:50.0	176.330	-0.300	0.200	1.490
2020/01/31 23:48:50.1	176.360	-0.330	0.270	1.450
2020/01/31 23:48:50.2	176.400	-0.350	0.330	1.410
2020/01/31 23:48:50.3	176.430	-0.370	0.380	1.370
2020/01/31 23:48:50.4	176.460	-0.380	0.420	1.330
2020/01/31 23:48:50.5	176.480	-0.390	0.450	1.290
2020/01/31 23:48:50.6	176.510	-0.400	0.470	1.260
2020/01/31 23:48:50.7	176.540	-0.400	0.480	1.220
2020/01/31 23:48:50.8	176.560	-0.400	0.480	1.190
2020/01/31 23:48:50.9	176.580	-0.400	0.460	1.160
2020/01/31 23:48:51.0	176.600	-0.390	0.440	1.130
2020/01/31 23:48:51.1	176.630	-0.380	0.410	1.110
2020/01/31 23:48:51.2	176.650	-0.360	0.370	1.090
2020/01/31 23:48:51.3	176.660	-0.340	0.310	1.080
2020/01/31 23:48:51.4	176.670	-0.320	0.250	1.070
2020/01/31 23:48:51.5	176.680	-0.300	0.190	1.070
2020/01/31 23:48:51.6	176.690	-0.270	0.120	1.070
2020/01/31 23:48:51.7	176.690	-0.250	0.040	1.070
2020/01/31 23:48:51.8	176.690	-0.220	-0.040	1.080
2020/01/31 23:48:51.9	176.690	-0.190	-0.120	1.090
2020/01/31 23:48:52.0	176.690	-0.160	-0.210	1.110
2020/01/31 23:48:52.1	176.680	-0.130	-0.290	1.130
2020/01/31 23:48:52.2	176.680	-0.100	-0.380	1.150
2020/01/31 23:48:52.3	176.670	-0.070	-0.460	1.180
2020/01/31 23:48:52.4	176.660	-0.050	-0.540	1.200
2020/01/31 23:48:52.5	176.650	-0.020	-0.610	1.230
2020/01/31 23:48:52.6	176.640	0.010	-0.680	1.250
2020/01/31 23:48:52.7	176.630	0.030	-0.740	1.280
2020/01/31 23:48:52.8	176.620	0.050	-0.800	1.310
2020/01/31 23:48:52.9	176.610	0.070	-0.850	1.330
2020/01/31 23:48:53.0	176.600	0.090	-0.890	1.360
2020/01/31 23:48:53.1	176.590	0.110	-0.920	1.390
2020/01/31 23:48:53.2	176.580	0.120	-0.940	1.410
2020/01/31 23:48:53.3	176.560	0.130	-0.950	1.430
2020/01/31 23:48:53.4	176.550	0.140	-0.960	1.450
2020/01/31 23:48:53.5	176.540	0.150	-0.950	1.470
2020/01/31 23:48:53.6	176.520	0.150	-0.940	1.490
2020/01/31 23:48:53.7	176.510	0.160	-0.920	1.510
2020/01/31 23:48:53.8	176.490	0.160	-0.890	1.530
2020/01/31 23:48:53.9	176.480	0.160	-0.850	1.540
2020/01/31 23:48:54.0	176.450	0.160	-0.810	1.560
2020/01/31 23:48:54.1	176.430	0.160	-0.760	1.570
2020/01/31 23:48:54.2	176.420	0.160	-0.710	1.590
2020/01/31 23:48:54.3	176.400	0.150	-0.650	1.600
2020/01/31 23:48:54.4	176.380	0.150	-0.590	1.610
2020/01/31 23:48:54.5	176.360	0.140	-0.520	1.620
2020/01/31 23:48:54.6	176.340	0.140	-0.460	1.630
2020/01/31 23:48:54.7	176.320	0.130	-0.390	1.640
2020/01/31 23:48:54.8	176.300	0.120	-0.330	1.650
2020/01/31 23:48:54.9	176.280	0.120	-0.260	1.650
2020/01/31 23:48:55.0	176.260	0.110	-0.200	1.660
2020/01/31 23:48:55.1	176.240	0.110	-0.140	1.660
2020/01/31 23:48:55.2	176.220	0.100	-0.090	1.670
2020/01/31 23:48:55.3	176.200	0.100	-0.040	1.670
2020/01/31 23:48:55.4	176.180	0.090	0.010	1.670
2020/01/31 23:48:55.5	176.170	0.090	0.060	1.670
2020/01/31 23:48:55.6	176.150	0.090	0.090	1.670
2020/01/31 23:48:55.7	176.130	0.080	0.130	1.670
2020/01/31 23:48:55.8	176.120	0.080	0.160	1.670
2020/01/31 23:48:55.9	176.110	0.080	0.180	1.660
2020/01/31 23:48:56.0	176.120	0.080	0.200	1.660
2020/01/31 23:48:56.1	176.110	0.080	0.220	1.660
2020/01/31 23:48:56.2	176.100	0.080	0.230	1.650
2020/01/31 23:48:56.3	176.090	0.070	0.240	1.650
2020/01/31 23:48:56.4	176.090	0.070	0.250	1.650
2020/01/31 23:48:56.5	176.090	0.070	0.250	1.640
2020/01/31 23:48:56.6	176.090	0.070	0.250	1.630
2020/01/31 23:48:56.7	176.080	0.060	0.250	1.630
2020/01/31 23:48:56.8	176.080	0.060	0.250	1.630
2020/01/31 23:48:56.9	176.080	0.060	0.250	1.620
2020/01/31 23:48:57.0	176.070	0.050	0.240	1.620
2020/01/31 23:48:57.1	176.070	0.040	0.240	1.610
2020/01/31 23:48:57.2	176.070	0.040	0.230	1.610
2020/01/31 23:48:57.3	176.080	0.030	0.230	1.610
2020/01/31 23:48:57.4	176.080	0.020	0.220	1.600
2020/01/31 23:48:57.5	176.080	0.010	0.220	1.600
2020/01/31 23:48:57.6	176.080	-0.000	0.210	1.600
2020/01/31 23:48:57.7	176.080	-0.010	0.200	1.600
2020/01/31 23:48:57.8	176.080	-0.030	0.200	1.590
2020/01/31 23:48:57.9	176.080	-0.040	0.190	1.590
2020/01/31 23:48:58.0	176.070	-0.050	0.190	1.590
2020/01/31 23:48:58.1	176.070	-0.060	0.190	1.580
2020/01/31 23:48:58.2	176.060	-0.080	0.180	1.580
2020/01/31 23:48:58.3	176.050	-0.090	0.170	1.580
2020/01/31 23:48:58.4	176.050	-0.100	0.160	1.580
2020/01/31 23:48:58.5	176.040	-0.120	0.150	1.580
2020/01/31 23:48:58.6	176.030	-0.130	0.140	1.580
2020/01/31 23:48:58.7	176.020	-0.140	0.120	1.570
2020/01/31 23:48:58.8	176.010	-0.150	0.100	1.570
2020/01/31 23:48:58.9	176.000	-0.160	0.090	1.570
2020/01/31 23:48:59.0	175.990	-0.170	0.070	1.570
2020/01/31 23:48:59.1	175.980	-0.180	0.040	1.570
2020/01/31 23:48:59.2	175.970	-0.180	0.010	1.560
2020/01/31 23:48:59.3	175.960	-0.190	-0.010	1.560
2020/01/31 23:48:59.4	175.940	-0.190	-0.040	1.560
2020/01/31 23:48:59.5	175.920	-0.190	-0.080	1.560
2020/01/31 23:48:59.6	175.900	-0.190	-0.110	1.560
2020/01/31 23:48:59.7	175.880	-0.190	-0.150	1.560
2020/01/31 23:48:59.8	175.860	-0.190	-0.180	1.560
2020/01/31 23:48:59.9	175.840	-0.180	-0.220	1.570
2020/01/31 23:49:00.0	175.830	-0.180	-0.260	1.570
2020/01/31 23:49:00.1	175.810	-0.170	-0.300	1.580
2020/01/31 23:49:00.2	175.790	-0.160	-0.340	1.580
2020/01/31 23:49:00.3	175.760	-0.150	-0.380	1.590
2020/01/31 23:49:00.4	175.740	-0.140	-0.420	1.590
2020/01/31 23:49:00.5	175.720	-0.130	-0.460	1.600
2020/01/31 23:49:00.6	175.690	-0.110	-0.500	1.610
2020/01/31 23:49:00.7	175.670	-0.100	-0.540	1.610
2020/01/31 23:49:00.8	175.650	-0.090	-0.570	1.620
2020/01/31 23:49:00.9	175.630	-0.070	-0.600	1.620
2020/01/31 23:49:01.0	175.590	-0.060	-0.630	1.630
2020/01/31 23:49:01.1	175.580	-0.040	-0.660	1.630
2020/01/31 23:49:01.2	175.560	-0.030	-0.680	1.630
2020/01/31 23:49:01.3	175.550	-0.010	-0.700	1.630
2020/01/31 23:49:01.4	175.540	-0.000	-0.720	1.630
2020/01/31 23:49:01.5	175.530	0.010	-0.730	1.630
2020/01/31 23:49:01.6	175.520	0.030	-0.740	1.620
2020/01/31 23:49:01.7	175.520	0.040	-0.750	1.620
2020/01/31 23:49:01.8	175.520	0.050	-0.760	1.610
2020/01/31 23:49:01.9	175.510	0.060	-0.770	1.600
2020/01/31 23:49:02.0	175.510	0.080	-0.780	1.590
2020/01/31 23:49:02.1	175.500	0.090	-0.780	1.580
2020/01/31 23:49:02.2	175.510	0.100	-0.790	1.570
2020/01/31 23:49:02.3	175.510	0.110	-0.790	1.560
2020/01/31 23:49:02.4	175.510	0.120	-0.800	1.550
2020/01/31 23:49:02.5	175.510	0.140	-0.810	1.540
2020/01/31 23:49:02.6	175.510	0.150	-0.820	1.530
2020/01/31 23:49:02.7	175.510	0.160	-0.820	1.520
2020/01/31 23:49:02.8	175.510	0.170	-0.830	1.510
2020/01/31 23:49:02.9	175.510	0.190	-0.840	1.500
2020/01/31 23:49:03.0	175.520	0.200	-0.860	1.490
2020/01/31 23:49:03.1	175.520	0.210	-0.860	1.480
2020/01/31 23:49:03.2	175.520	0.220	-0.870	1.470
2020/01/31 23:49:03.3	175.520	0.230	-0.880	1.460
2020/01/31 23:49:03.4	175.530	0.240	-0.880	1.460
2020/01/31 23:49:03.5	175.530	0.250	-0.890	1.450
2020/01/31 23:49:03.6	175.540	0.260	-0.890	1.440
2020/01/31 23:49:03.7	175.550	0.260	-0.880	1.440
2020/01/31 23:49:03.8	175.560	0.260	-0.870	1.430
2020/01/31 23:49:03.9	175.570	0.260	-0.860	1.430
2020/01/31 23:49:04.0	175.580	0.260	-0.840	1.430
2020/01/31 23:49:04.1	175.600	0.260	-0.810	1.430
2020/01/31 23:49:04.2	175.620	0.250	-0.780	1.440
2020/01/31 23:49:04.3	175.640	0.240	-0.740	1.440
2020/01/31 23:49:04.4	175.660	0.230	-0.700	1.440
2020/01/31 23:49:04.5	175.680	0.210	-0.650	1.450
2020/01/31 23:49:04.6	175.700	0.190	-0.590	1.460
2020/01/31 23:49:04.7	175.730	0.170	-0.530	1.470
2020/01/31 23:49:04.8	175.760	0.150	-0.460	1.480
2020/01/31 23:49:04.9	175.790	0.120	-0.390	1.480
2020/01/31 23:49:05.0	175.820	0.090	-0.310	1.490
2020/01/31 23:49:05.1	175.850	0.060	-0.220	1.500
2020/01/31 23:49:05.2	175.890	0.030	-0.140	1.510
2020/01/31 23:49:05.3	175.920	-0.000	-0.050	1.520
2020/01/31 23:49:05.4	175.960	-0.040	0.040	1.520
2020/01/31 23:49:05.5	176.000	-0.080	0.140	1.530
2020/01/31 23:49:05.6	176.030	-0.110	0.230	1.530
2020/01/31 23:49:05.7	176.070	-0.150	0.320	1.530
2020/01/31 23:49:05.8	176.110	-0.180	0.410	1.530
2020/01/31 23:49:05.9	176.140	-0.220	0.500	1.530
2020/01/31 23:49:06.0	176.180	-0.250	0.580	1.520
2020/01/31 23:49:06.1	176.200	-0.280	0.660	1.520
2020/01/31 23:49:06.2	176.230	-0.310	0.730	1.510
2020/01/31 23:49:06.3	176.260	-0.340	0.790	1.510
2020/01/31 23:49:06.4	176.290	-0.360	0.850	1.500
2020/01/31 23:49:06.5	176.310	-0.380	0.890	1.490
2020/01/31 23:49:06.6	176.330	-0.400	0.930	1.480
2020/01/31 23:49:06.7	176.340	-0.410	0.960	1.480
2020/01/31 23:49:06.8	176.350	-0.420	0.970	1.470
2020/01/31 23:49:06.9	176.360	-0.420	0.970	1.470
2020/01/31 23:49:07.0	176.370	-0.410	0.970	1.480
2020/01/31 23:49:07.1	176.360	-0.400	0.950	1.480
2020/01/31 23:49:07.2	176.360	-0.390	0.910	1.480
2020/01/31 23:49:07.3	176.350	-0.370	0.870	1.490
2020/01/31 23:49:07.4	176.330	-0.340	0.810	1.500
2020/01/31 23:49:07.5	176.320	-0.310	0.750	1.510
2020/01/31 23:49:07.6	176.290	-0.280	0.670	1.530
2020/01/31 23:49:07.7	176.270	-0.240	0.580	1.550
2020/01/31 23:49:07.8	176.240	-0.200	0.490	1.570
2020/01/31 23:49:07.9	176.210	-0.150	0.390	1.600
2020/01/31 23:49:08.0	176.180	-0.100	0.280	1.630
2020/01/31 23:49:08.1	176.150	-0.050	0.170	1.660
2020/01/31 23:49:08.2	176.110	-0.000	0.060	1.700
2020/01/31 23:49:08.3	176.070	0.050	-0.050	1.730
2020/01/31 23:49:08.4	176.040	0.100	-0.160	1.770
2020/01/31 23:49:08.5	176.000	0.160	-0.270	1.810
2020/01/31 23:49:08.6	175.970	0.210	-0.380	1.850
2020/01/31 23:49:08.7	175.930	0.250	-0.480	1.880
2020/01/31 23:49:08.8	175.900	0.300	-0.580	1.920
2020/01/31 23:49:08.9	175.870	0.340	-0.660	1.960
2020/01/31 23:49:09.0	175.840	0.380	-0.740	1.990
2020/01/31 23:49:09.1	175.820	0.410	-0.820	2.030
2020/01/31 23:49:09.2	175.800	0.440	-0.880	2.060
2020/01/31 23:49:09.3	175.780	0.470	-0.930	2.090
2020/01/31 23:49:09.4	175.770	0.490	-0.970	2.130
2020/01/31 23:49:09.5	175.750	0.500	-1.010	2.150
2020/01/31 23:49:09.6	175.740	0.510	-1.030	2.180
2020/01/31 23:49:09.7	175.730	0.510	-1.040	2.210
2020/01/31 23:49:09.8	175.730	0.510	-1.040	2.230
2020/01/31 23:49:09.9	175.720	0.500	-1.030	2.250
2020/01/31 23:49:10.0	175.730	0.490	-1.010	2.270
2020/01/31 23:49:10.1	175.730	0.470	-0.980	2.290
2020/01/31 23:49:10.2	175.740	0.450	-0.950	2.300
2020/01/31 23:49:10.3	175.740	0.420	-0.900	2.310
2020/01/31 23:49:10.4	175.750	0.390	-0.850	2.320
2020/01/31 23:49:10.5	175.760	0.350	-0.800	2.330
2020/01/31 23:49:10.6	175.770	0.310	-0.740	2.330
2020/01/31 23:49:10.7	175.780	0.270	-0.670	2.330
2020/01/31 23:49:10.8	175.800	0.230	-0.600	2.320
2020/01/31 23:49:10.9	175.810	0.180	-0.530	2.320
2020/01/31 23:49:11.0	175.820	0.140	-0.470	2.300
2020/01/31 23:49:11.1	175.830	0.090	-0.400	2.290
2020/01/31 23:49:11.2	175.840	0.040	-0.330	2.270
2020/01/31 23:49:11.3	175.860	-0.000	-0.260	2.250
2020/01/31 23:49:11.4	175.870	-0.050	-0.200	2.230
2020/01/31 23:49:11.5	175.880	-0.090	-0.140	2.210
2020/01/31 23:49:11.6	175.890	-0.130	-0.090	2.180
2020/01/31 23:49:11.7	175.900	-0.160	-0.040	2.150
2020/01/31 23:49:11.8	175.910	-0.200	-0.000	2.120
2020/01/31 23:49:11.9	175.910	-0.230	0.030	2.090
2020/01/31 23:49:12.0	175.920	-0.250	0.060	2.050
2020/01/31 23:49:12.1	175.910	-0.270	0.080	2.010
2020/01/31 23:49:12.2	175.910	-0.290	0.090	1.980
2020/01/31 23:49:12.3	175.910	-0.300	0.090	1.940
2020/01/31 23:49:12.4	175.900	-0.300	0.080	1.900
2020/01/31 23:49:12.5	175.900	-0.300	0.060	1.870
2020/01/31 23:49:12.6	175.890	-0.300	0.040	1.830
2020/01/31 23:49:12.7	175.880	-0.290	0.010	1.790
2020/01/31 23:49:12.8	175.860	-0.280	-0.030	1.760
2020/01/31 23:49:12.9	175.850	-0.270	-0.080	1.730
2020/01/31 23:49:13.0	175.830	-0.250	-0.130	1.700
2020/01/31 23:49:13.1	175.810	-0.220	-0.180	1.670
2020/01/31 23:49:13.2	175.790	-0.200	-0.240	1.640
2020/01/31 23:49:13.3	175.770	-0.170	-0.300	1.620
2020/01/31 23:49:13.4	175.750	-0.140	-0.360	1.600
2020/01/31 23:49:13.5	175.730	-0.120	-0.420	1.580
2020/01/31 23:49:13.6	175.710	-0.090	-0.490	1.570
2020/01/31 23:49:13.7	175.690	-0.060	-0.540	1.560
2020/01/31 23:49:13.8	175.670	-0.030	-0.600	1.550
2020/01/31 23:49:13.9	175.650	-0.000	-0.650	1.550
2020/01/31 23:49:14.0	175.630	0.020	-0.700	1.550
2020/01/31 23:49:14.1	175.610	0.040	-0.750	1.550
2020/01/31 23:49:14.2	175.590	0.060	-0.780	1.550
2020/01/31 23:49:14.3	175.580	0.070	-0.820	1.550
2020/01/31 23:49:14.4	175.560	0.080	-0.840	1.560
2020/01/31 23:49:14.5	175.550	0.090	-0.860	1.570
2020/01/31 23:49:14.6	175.540	0.090	-0.870	1.570
2020/01/31 23:49:14.7	175.530	0.090	-0.870	1.580
2020/01/31 23:49:14.8	175.530	0.090	-0.870	1.580
2020/01/31 23:49:14.9	175.530	0.080	-0.850	1.580
2020/01/31 23:49:15.0	175.510	0.060	-0.830	1.590
2020/01/31 23:49:15.1	175.510	0.040	-0.800	1.590
2020/01/31 23:49:15.2	175.520	0.020	-0.760	1.590
2020/01/31 23:49:15.3	175.520	-0.010	-0.720	1.580
2020/01/31 23:49:15.4	175.530	-0.040	-0.670	1.580
2020/01/31 23:49:15.5	175.550	-0.070	-0.610	1.570
2020/01/31 23:49:15.6	175.560	-0.110	-0.550	1.560
2020/01/31 23:49:15.7	175.580	-0.150	-0.480	1.550
2020/01/31 23:49:15.8	175.600	-0.190	-0.410	1.540
2020/01/31 23:49:15.9	175.620	-0.240	-0.330	1.530
2020/01/31 23:49:16.0	175.640	-0.280	-0.260	1.510
2020/01/31 23:49:16.1	175.670	-0.320	-0.180	1.490
2020/01/31 23:49:16.2	175.700	-0.370	-0.100	1.480
2020/01/31 23:49:16.3	175.730	-0.410	-0.030	1.460
2020/01/31 23:49:16.4	175.750	-0.450	0.050	1.450
2020/01/31 23:49:16.5	175.780	-0.490	0.120	1.440
2020/01/31 23:49:16.6	175.800	-0.530	0.180	1.430
2020/01/31 23:49:16.7	175.830	-0.560	0.250	1.420
2020/01/31 23:49:16.8	175.860	-0.590	0.300	1.410
2020/01/31 23:49:16.9	175.880	-0.620	0.350	1.400
2020/01/31 23:49:17.0	175.900	-0.640	0.400	1.400
2020/01/31 23:49:17.1	175.930	-0.660	0.440	1.400
2020/01/31 23:49:17.2	175.950	-0.670	0.470	1.390
2020/01/31 23:49:17.3	175.960	-0.670	0.490	1.390
2020/01/31 23:49:17.4	175.980	-0.670	0.510	1.380
2020/01/31 23:49:17.5	176.000	-0.660	0.510	1.380
2020/01/31 23:49:17.6	176.010	-0.640	0.510	1.370
2020/01/31 23:49:17.7	176.020	-0.620	0.510	1.370
2020/01/31 23:49:17.8	176.030	-0.590	0.490	1.360
2020/01/31 23:49:17.9	176.040	-0.550	0.470	1.360
2020/01/31 23:49:18.0	176.070	-0.510	0.440	1.350
2020/01/31 23:49:18.1	176.070	-0.460	0.410	1.350
2020/01/31 23:49:18.2	176.070	-0.400	0.370	1.340
2020/01/31 23:49:18.3	176.070	-0.340	0.320	1.330
2020/01/31 23:49:18.4	176.060	-0.270	0.270	1.320
2020/01/31 23:49:18.5	176.060	-0.200	0.220	1.310
2020/01/31 23:49:18.6	176.040	-0.120	0.160	1.300
2020/01/31 23:49:18.7	176.030	-0.040	0.100	1.290
2020/01/31 23:49:18.8	176.020	0.040	0.030	1.280
2020/01/31 23:49:18.9	176.000	0.130	-0.040	1.270
2020/01/31 23:49:19.0	175.970	0.210	-0.110	1.260
2020/01/31 23:49:19.1	175.950	0.300	-0.180	1.250
2020/01/31 23:49:19.2	175.930	0.390	-0.240	1.240
2020/01/31 23:49:19.3	175.910	0.470	-0.310	1.230
2020/01/31 23:49:19.4	175.890	0.550	-0.380	1.220
2020/01/31 23:49:19.5	175.860	0.630	-0.440	1.210
2020/01/31 23:49:19.6	175.840	0.710	-0.490	1.210
2020/01/31 23:49:19.7	175.820	0.780	-0.540	1.200
2020/01/31 23:49:19.8	175.800	0.850	-0.590	1.190
2020/01/31 23:49:19.9	175.780	0.900	-0.630	1.190
2020/01/31 23:49:20.0	175.760	0.960	-0.660	1.180
2020/01/31 23:49:20.1	175.750	1.000	-0.680	1.180
2020/01/31 23:49:20.2	175.730	1.030	-0.690	1.170
2020/01/31 23:49:20.3	175.720	1.060	-0.700	1.170
2020/01/31 23:49:20.4	175.720	1.080	-0.690	1.170
2020/01/31 23:49:20.5	175.710	1.090	-0.680	1.180
2020/01/31 23:49:20.6	175.710	1.090	-0.660	1.180
2020/01/31 23:49:20.7	175.710	1.080	-0.630	1.190
2020/01/31 23:49:20.8	175.710	1.060	-0.590	1.200
2020/01/31 23:49:20.9	175.710	1.030	-0.550	1.210
2020/01/31 23:49:21.0	175.720	1.000	-0.500	1.220
2020/01/31 23:49:21.1	175.720	0.950	-0.440	1.240
2020/01/31 23:49:21.2	175.730	0.900	-0.380	1.260
2020/01/31 23:49:21.3	175.750	0.840	-0.310	1.280
2020/01/31 23:49:21.4	175.760	0.780	-0.240	1.300
2020/01/31 23:49:21.5	175.770	0.700	-0.160	1.320
2020/01/31 23:49:21.6	175.790	0.630	-0.090	1.350
2020/01/31 23:49:21.7	175.800	0.550	-0.010	1.380
2020/01/31 23:49:21.8	175.810	0.460	0.070	1.400
2020/01/31 23:49:21.9	175.830	0.380	0.140	1.440
2020/01/31 23:49:22.0	175.840	0.290	0.220	1.470
2020/01/31 23:49:22.1	175.850	0.200	0.290	1.510
2020/01/31 23:49:22.2	175.860	0.110	0.350	1.540
2020/01/31 23:49:22.3	175.870	0.030	0.410	1.580
2020/01/31 23:49:22.4	175.880	-0.060	0.460	1.620
2020/01/31 23:49:22.5	175.880	-0.140	0.500	1.660
2020/01/31 23:49:22.6	175.880	-0.220	0.540	1.700
2020/01/31 23:49:22.7	175.870	-0.290	0.560	1.750
2020/01/31 23:49:22.8	175.860	-0.360	0.580	1.800
2020/01/31 23:49:22.9	175.850	-0.420	0.580	1.840
2020/01/31 23:49:23.0	175.840	-0.480	0.580	1.890
2020/01/31 23:49:23.1	175.830	-0.530	0.560	1.940
2020/01/31 23:49:23.2	175.810	-0.570	0.540	1.990
2020/01/31 23:49:23.3	175.790	-0.610	0.500	2.040
2020/01/31 23:49:23.4	175.760	-0.640	0.460	2.090
2020/01/31 23:49:23.5	175.740	-0.660	0.400	2.140
2020/01/31 23:49:23.6	175.710	-0.670	0.340	2.190
2020/01/31 23:49:23.7	175.680	-0.680	0.270	2.240
2020/01/31 23:49:23.8	175.660	-0.680	0.200	2.290
2020/01/31 23:49:23.9	175.630	-0.680	0.120	2.330
2020/01/31 23:49:24.0	175.610	-0.670	0.030	2.370
2020/01/31 23:49:24.1	175.580	-0.650	-0.060	2.420
2020/01/31 23:49:24.2	175.560	-0.630	-0.150	2.460
2020/01/31 23:49:24.3	175.530	-0.600	-0.240	2.490
2020/01/31 23:49:24.4	175.510	-0.570	-0.340	2.530
2020/01/31 23:49:24.5	175.480	-0.530	-0.430	2.560
2020/01/31 23:49:24.6	175.460	-0.500	-0.520	2.590
2020/01/31 23:49:24.7	175.440	-0.450	-0.610	2.620
2020/01/31 23:49:24.8	175.420	-0.410	-0.700	2.650
2020/01/31 23:49:24.9	175.400	-0.360	-0.790	2.680
2020/01/31 23:49:25.0	175.380	-0.320	-0.870	2.700
2020/01/31 23:49:25.1	175.360	-0.270	-0.950	2.720
2020/01/31 23:49:25.2	175.340	-0.220	-1.020	2.740
2020/01/31 23:49:25.3	175.320	-0.170	-1.090	2.750
2020/01/31 23:49:25.4	175.310	-0.120	-1.150	2.760
2020/01/31 23:49:25.5	175.290	-0.080	-1.200	2.760
2020/01/31 23:49:25.6	175.280	-0.030	-1.250	2.760
2020/01/31 23:49:25.7	175.260	0.010	-1.290	2.760
2020/01/31 23:49:25.8	175.250	0.060	-1.330	2.750
2020/01/31 23:49:25.9	175.240	0.100	-1.360	2.740
2020/01/31 23:49:26.0	175.220	0.130	-1.370	2.730
2020/01/31 23:49:26.1	175.210	0.170	-1.390	2.700
2020/01/31 23:49:26.2	175.200	0.200	-1.390	2.680
2020/01/31 23:49:26.3	175.190	0.230	-1.390	2.650
2020/01/31 23:49:26.4	175.180	0.260	-1.380	2.620
2020/01/31 23:49:26.5	175.170	0.280	-1.360	2.580
2020/01/31 23:49:26.6	175.160	0.300	-1.340	2.540
2020/01/31 23:49:26.7	175.150	0.320	-1.300	2.500
2020/01/31 23:49:26.8	175.140	0.330	-1.270	2.450
2020/01/31 23:49:26.9	175.130	0.340	-1.220	2.400
2020/01/31 23:49:27.0	175.110	0.350	-1.180	2.350
2020/01/31 23:49:27.1	175.100	0.350	-1.120	2.300
2020/01/31 23:49:27.2	175.090	0.350	-1.060	2.240
2020/01/31 23:49:27.3	175.080	0.350	-1.000	2.190
2020/01/31 23:49:27.4	175.060	0.350	-0.940	2.130
2020/01/31 23:49:27.5	175.050	0.340	-0.870	2.080
2020/01/31 23:49:27.6	175.040	0.330	-0.800	2.020
2020/01/31 23:49:27.7	175.030	0.320	-0.720	1.970
2020/01/31 23:49:27.8	175.010	0.300	-0.650	1.920
2020/01/31 23:49:27.9	175.000	0.290	-0.580	1.860
2020/01/31 23:49:28.0	174.990	0.270	-0.500	1.810
2020/01/31 23:49:28.1	174.980	0.250	-0.430	1.760
2020/01/31 23:49:28.2	174.960	0.230	-0.360	1.720
2020/01/31 23:49:28.3	174.950	0.210	-0.290	1.670
2020/01/31 23:49:28.4	174.940	0.190	-0.220	1.630
2020/01/31 23:49:28.5	174.920	0.170	-0.150	1.590
2020/01/31 23:49:28.6	174.910	0.140	-0.090	1.550
2020/01/31 23:49:28.7	174.900	0.120	-0.020	1.520
2020/01/31 23:49:28.8	174.890	0.090	0.040	1.480
2020/01/31 23:49:28.9	174.880	0.070	0.090	1.450
2020/01/31 23:49:29.0	174.870	0.040	0.150	1.420
2020/01/31 23:49:29.1	174.860	0.020	0.200	1.390
2020/01/31 23:49:29.2	174.860	-0.010	0.240	1.370
2020/01/31 23:49:29.3	174.850	-0.030	0.280	1.340
2020/01/31 23:49:29.4	174.850	-0.060	0.320	1.320
2020/01/31 23:49:29.5	174.850	-0.080	0.360	1.290
2020/01/31 23:49:29.6	174.850	-0.110	0.390	1.270
2020/01/31 23:49:29.7	174.850	-0.130	0.420	1.250
2020/01/31 23:49:29.8	174.860	-0.160	0.440	1.230
2020/01/31 23:49:29.9	174.860	-0.180	0.460	1.210
2020/01/31 23:49:30.0	174.870	-0.210	0.480	1.200
2020/01/31 23:49:30.1	174.880	-0.240	0.500	1.180
2020/01/31 23:49:30.2	174.890	-0.260	0.510	1.170
2020/01/31 23:49:30.3	174.900	-0.290	0.520	1.160
2020/01/31 23:49:30.4	174.910	-0.310	0.520	1.160
2020/01/31 23:49:30.5	174.920	-0.330	0.520	1.160
2020/01/31 23:49:30.6	174.930	-0.360	0.520	1.160
2020/01/31 23:49:30.7	174.950	-0.380	0.520	1.170
2020/01/31 23:49:30.8	174.960	-0.400	0.510	1.180
2020/01/31 23:49:30.9	174.970	-0.420	0.500	1.200
2020/01/31 23:49:31.0	174.970	-0.440	0.480	1.220
2020/01/31 23:49:31.1	174.980	-0.460	0.460	1.250
2020/01/31 23:49:31.2	174.980	-0.480	0.440	1.280
2020/01/31 23:49:31.3	174.990	-0.490	0.420	1.310
2020/01/31 23:49:31.4	174.990	-0.510	0.390	1.350
2020/01/31 23:49:31.5	174.990	-0.520	0.360	1.390
2020/01/31 23:49:31.6	175.000	-0.530	0.330	1.440
2020/01/31 23:49:31.7	175.000	-0.540	0.290	1.480
2020/01/31 23:49:31.8	174.990	-0.540	0.250	1.530
2020/01/31 23:49:31.9	174.990	-0.540	0.210	1.580
2020/01/31 23:49:32.0	174.980	-0.540	0.170	1.640
2020/01/31 23:49:32.1	174.980	-0.540	0.120	1.690
2020/01/31 23:49:32.2	174.970	-0.530	0.080	1.740
2020/01/31 23:49:32.3	174.970	-0.520	0.040	1.780
2020/01/31 23:49:32.4	174.960	-0.510	-0.010	1.830
2020/01/31 23:49:32.5	174.950	-0.500	-0.050	1.880
2020/01/31 23:49:32.6	174.950	-0.480	-0.090	1.920
2020/01/31 23:49:32.7	174.940	-0.460	-0.130	1.960
2020/01/31 23:49:32.8	174.940	-0.440	-0.170	2.000
2020/01/31 23:49:32.9	174.930	-0.410	-0.210	2.030
2020/01/31 23:49:33.0	174.930	-0.380	-0.250	2.060
2020/01/31 23:49:33.1	174.900	-0.350	-0.280	2.100
2020/01/31 23:49:33.2	174.890	-0.320	-0.310	2.120
2020/01/31 23:49:33.3	174.890	-0.290	-0.340	2.150
2020/01/31 23:49:33.4	174.880	-0.250	-0.370	2.170
2020/01/31 23:49:33.5	174.880	-0.210	-0.390	2.190
2020/01/31 23:49:33.6	174.870	-0.170	-0.410	2.210
2020/01/31 23:49:33.7	174.870	-0.130	-0.430	2.220
2020/01/31 23:49:33.8	174.860	-0.090	-0.450	2.230
2020/01/31 23:49:33.9	174.850	-0.050	-0.460	2.240
2020/01/31 23:49:34.0	174.860	-0.010	-0.480	2.250
2020/01/31 23:49:34.1	174.850	0.030	-0.490	2.260
2020/01/31 23:49:34.2	174.840	0.080	-0.500	2.260
2020/01/31 23:49:34.3	174.830	0.120	-0.510	2.260
2020/01/31 23:49:34.4	174.810	0.170	-0.520	2.260
2020/01/31 23:49:34.5	174.800	0.210	-0.530	2.260
2020/01/31 23:49:34.6	174.780	0.250	-0.540	2.260
2020/01/31 23:49:34.7	174.760	0.290	-0.550	2.250
2020/01/31 23:49:34.8	174.740	0.330	-0.560	2.250
2020/01/31 23:49:34.9	174.710	0.370	-0.570	2.240
2020/01/31 23:49:35.0	174.690	0.410	-0.580	2.240
2020/01/31 23:49:35.1	174.660	0.450	-0.580	2.230
2020/01/31 23:49:35.2	174.630	0.490	-0.590	2.220
2020/01/31 23:49:35.3	174.600	0.520	-0.590	2.210
2020/01/31 23:49:35.4	174.560	0.550	-0.600	2.200
2020/01/31 23:49:35.5	174.530	0.580	-0.600	2.190
2020/01/31 23:49:35.6	174.490	0.610	-0.600	2.180
2020/01/31 23:49:35.7	174.450	0.630	-0.600	2.170
2020/01/31 23:49:35.8	174.420	0.650	-0.600	2.150
2020/01/31 23:49:35.9	174.380	0.670	-0.590	2.130
2020/01/31 23:49:36.0	174.350	0.680	-0.580	2.110
2020/01/31 23:49:36.1	174.320	0.690	-0.570	2.100
2020/01/31 23:49:36.2	174.290	0.700	-0.550	2.080
2020/01/31 23:49:36.3	174.260	0.700	-0.530	2.060
2020/01/31 23:49:36.4	174.230	0.700	-0.510	2.040
2020/01/31 23:49:36.5	174.210	0.690	-0.480	2.010
2020/01/31 23:49:36.6	174.190	0.680	-0.450	1.990
2020/01/31 23:49:36.7	174.180	0.670	-0.410	1.970
2020/01/31 23:49:36.8	174.170	0.650	-0.370	1.950
2020/01/31 23:49:36.9	174.160	0.620	-0.330	1.920
2020/01/31 23:49:37.0	174.160	0.600	-0.280	1.900
2020/01/31 23:49:37.1	174.170	0.570	-0.230	1.870
2020/01/31 23:49:37.2	174.180	0.530	-0.180	1.840
2020/01/31 23:49:37.3	174.190	0.500	-0.120	1.820
2020/01/31 23:49:37.4	174.200	0.460	-0.070	1.790
2020/01/31 23:49:37.5	174.210	0.420	-0.010	1.760
2020/01/31 23:49:37.6	174.230	0.370	0.050	1.740
2020/01/31 23:49:37.7	174.240	0.320	0.100	1.710
2020/01/31 23:49:37.8	174.260	0.280	0.160	1.680
2020/01/31 23:49:37.9	174.290	0.230	0.210	1.650
2020/01/31 23:49:38.0	174.320	0.180	0.260	1.630
2020/01/31 23:49:38.1	174.340	0.130	0.310	1.600
2020/01/31 23:49:38.2	174.360	0.080	0.350	1.580
2020/01/31 23:49:38.3	174.390	0.040	0.380	1.550
2020/01/31 23:49:38.4	174.410	-0.010	0.410	1.530
2020/01/31 23:49:38.5	174.430	-0.060	0.440	1.510
2020/01/31 23:49:38.6	174.460	-0.100	0.450	1.490
2020/01/31 23:49:38.7	174.480	-0.140	0.460	1.470
2020/01/31 23:49:38.8	174.500	-0.170	0.470	1.450
2020/01/31 23:49:38.9	174.520	-0.210	0.460	1.440
2020/01/31 23:49:39.0	174.530	-0.240	0.450	1.430
2020/01/31 23:49:39.1	174.550	-0.270	0.430	1.420
2020/01/31 23:49:39.2	174.570	-0.290	0.400	1.420
2020/01/31 23:49:39.3	174.580	-0.310	0.360	1.420
2020/01/31 23:49:39.4	174.590	-0.320	0.320	1.420
2020/01/31 23:49:39.5	174.600	-0.330	0.270	1.430
2020/01/31 23:49:39.6	174.610	-0.330	0.210	1.440
2020/01/31 23:49:39.7	174.610	-0.330	0.140	1.450
2020/01/31 23:49:39.8	174.610	-0.330	0.070	1.470
2020/01/31 23:49:39.9	174.610	-0.320	-0.010	1.490
2020/01/31 23:49:40.0	174.600	-0.310	-0.090	1.510
2020/01/31 23:49:40.1	174.580	-0.290	-0.180	1.540
2020/01/31 23:49:40.2	174.570	-0.270	-0.270	1.570
2020/01/31 23:49:40.3	174.550	-0.240	-0.360	1.610
2020/01/31 23:49:40.4	174.540	-0.210	-0.450	1.640
2020/01/31 23:49:40.5	174.520	-0.180	-0.540	1.680
2020/01/31 23:49:40.6	174.500	-0.150	-0.630	1.710
2020/01/31 23:49:40.7	174.470	-0.120	-0.720	1.750
2020/01/31 23:49:40.8	174.450	-0.080	-0.800	1.790
2020/01/31 23:49:40.9	174.420	-0.050	-0.880	1.820
2020/01/31 23:49:41.0	174.400	-0.010	-0.950	1.860
2020/01/31 23:49:41.1	174.370	0.030	-1.010	1.890
2020/01/31 23:49:41.2	174.350	0.060	-1.070	1.920
2020/01/31 23:49:41.3	174.320	0.100	-1.120	1.950
2020/01/31 23:49:41.4	174.300	0.130	-1.150	1.980
2020/01/31 23:49:41.5	174.280	0.160	-1.180	2.010
2020/01/31 23:49:41.6	174.260	0.180	-1.200	2.030
2020/01/31 23:49:41.7	174.240	0.210	-1.210	2.050
2020/01/31 23:49:41.8	174.220	0.230	-1.210	2.070
2020/01/31 23:49:41.9	174.210	0.240	-1.190	2.090
2020/01/31 23:49:42.0	174.200	0.260	-1.170	2.100
2020/01/31 23:49:42.1	174.190	0.270	-1.140	2.110
2020/01/31 23:49:42.2	174.190	0.270	-1.090	2.120
2020/01/31 23:49:42.3	174.190	0.270	-1.040	2.120
2020/01/31 23:49:42.4	174.190	0.270	-0.980	2.120
2020/01/31 23:49:42.5	174.200	0.260	-0.910	2.110
2020/01/31 23:49:42.6	174.210	0.250	-0.840	2.100
2020/01/31 23:49:42.7	174.220	0.240	-0.760	2.090
2020/01/31 23:49:42.8	174.230	0.220	-0.680	2.070
2020/01/31 23:49:42.9	174.250	0.200	-0.590	2.050
2020/01/31 23:49:43.0	174.270	0.170	-0.500	2.030
2020/01/31 23:49:43.1	174.290	0.150	-0.410	2.000
2020/01/31 23:49:43.2	174.300	0.120	-0.330	1.970
2020/01/31 23:49:43.3	174.320	0.090	-0.240	1.950
2020/01/31 23:49:43.4	174.340	0.060	-0.160	1.920
2020/01/31 23:49:43.5	174.360	0.030	-0.080	1.890
2020/01/31 23:49:43.6	174.370	-0.000	-0.010	1.860
2020/01/31 23:49:43.7	174.390	-0.030	0.050	1.820
2020/01/31 23:49:43.8	174.400	-0.060	0.110	1.790
2020/01/31 23:49:43.9	174.410	-0.090	0.160	1.770
2020/01/31 23:49:44.0	174.420	-0.120	0.200	1.740
2020/01/31 23:49:44.1	174.410	-0.150	0.230	1.710
2020/01/31 23:49:44.2	174.420	-0.170	0.260	1.690
2020/01/31 23:49:44.3	174.420	-0.190	0.270	1.670
2020/01/31 23:49:44.4	174.420	-0.210	0.280	1.650
2020/01/31 23:49:44.5	174.420	-0.230	0.280	1.630
2020/01/31 23:49:44.6	174.410	-0.240	0.270	1.610
2020/01/31 23:49:44.7	174.410	-0.250	0.250	1.600
2020/01/31 23:49:44.8	174.400	-0.250	0.220	1.590
2020/01/31 23:49:44.9	174.380	-0.250	0.190	1.580
2020/01/31 23:49:45.0	174.370	-0.250	0.150	1.570
2020/01/31 23:49:45.1	174.350	-0.250	0.100	1.570
2020/01/31 23:49:45.2	174.330	-0.240	0.050	1.570
2020/01/31 23:49:45.3	174.310	-0.230	-0.000	1.570
2020/01/31 23:49:45.4	174.290	-0.220	-0.060	1.580
2020/01/31 23:49:45.5	174.270	-0.200	-0.110	1.580
2020/01/31 23:49:45.6	174.250	-0.180	-0.170	1.590
2020/01/31 23:49:45.7	174.230	-0.160	-0.230	1.590
2020/01/31 23:49:45.8	174.220	-0.140	-0.290	1.600
2020/01/31 23:49:45.9	174.200	-0.110	-0.350	1.610
2020/01/31 23:49:46.0	174.190	-0.090	-0.400	1.620
2020/01/31 23:49:46.1	174.170	-0.060	-0.450	1.630
2020/01/31 23:49:46.2	174.160	-0.040	-0.500	1.640
2020/01/31 23:49:46.3	174.140	-0.010	-0.540	1.650
2020/01/31 23:49:46.4	174.130	0.020	-0.580	1.660
2020/01/31 23:49:46.5	174.120	0.040	-0.610	1.680
2020/01/31 23:49:46.6	174.110	0.070	-0.640	1.690
2020/01/31 23:49:46.7	174.100	0.090	-0.660	1.700
2020/01/31 23:49:46.8	174.090	0.110	-0.670	1.700
2020/01/31 23:49:46.9	174.080	0.130	-0.680	1.710
2020/01/31 23:49:47.0	174.070	0.150	-0.690	1.720
2020/01/31 23:49:47.1	174.060	0.170	-0.680	1.730
2020/01/31 23:49:47.2	174.060	0.180	-0.680	1.730
2020/01/31 23:49:47.3	174.050	0.190	-0.660	1.740
2020/01/31 23:49:47.4	174.050	0.200	-0.640	1.740
2020/01/31 23:49:47.5	174.040	0.200	-0.620	1.740
2020/01/31 23:49:47.6	174.040	0.210	-0.590	1.740
2020/01/31 23:49:47.7	174.040	0.200	-0.560	1.740
2020/01/31 23:49:47.8	174.040	0.200	-0.520	1.740
2020/01/31 23:49:47.9	174.040	0.190	-0.480	1.730
2020/01/31 23:49:48.0	174.050	0.180	-0.430	1.730
2020/01/31 23:49:48.1	174.050	0.160	-0.390	1.730
2020/01/31 23:49:48.2	174.050	0.150	-0.340	1.720
2020/01/31 23:49:48.3	174.050	0.130	-0.300	1.720
2020/01/31 23:49:48.4	174.050	0.100	-0.250	1.720
2020/01/31 23:49:48.5	174.050	0.080	-0.200	1.720
2020/01/31 23:49:48.6	174.050	0.050	-0.150	1.720
2020/01/31 23:49:48.7	174.050	0.020	-0.110	1.720
2020/01/31 23:49:48.8	174.040	-0.000	-0.060	1.720
2020/01/31 23:49:48.9	174.040	-0.040	-0.020	1.730
2020/01/31 23:49:49.0	174.040	-0.070	0.020	1.740
2020/01/31 23:49:49.1	174.030	-0.100	0.060	1.750
2020/01/31 23:49:49.2	174.030	-0.130	0.090	1.760
2020/01/31 23:49:49.3	174.020	-0.160	0.130	1.770
2020/01/31 23:49:49.4	174.020	-0.190	0.160	1.790
2020/01/31 23:49:49.5	174.010	-0.220	0.180	1.810
2020/01/31 23:49:49.6	174.010	-0.250	0.210	1.830
2020/01/31 23:49:49.7	174.000	-0.280	0.230	1.850
2020/01/31 23:49:49.8	174.000	-0.310	0.250	1.870
2020/01/31 23:49:49.9	173.990	-0.330	0.270	1.890
2020/01/31 23:49:50.0	173.980	-0.350	0.280	1.910
2020/01/31 23:49:50.1	173.980	-0.370	0.290	1.940
2020/01/31 23:49:50.2	173.970	-0.390	0.300	1.960
2020/01/31 23:49:50.3	173.970	-0.400	0.310	1.970
2020/01/31 23:49:50.4	173.970	-0.420	0.320	1.990
2020/01/31 23:49:50.5	173.970	-0.430	0.320	2.010
2020/01/31 23:49:50.6	173.970	-0.430	0.320	2.030
2020/01/31 23:49:50.7	173.970	-0.440	0.320	2.040
2020/01/31 23:49:50.8	173.970	-0.440	0.320	2.050
2020/01/31 23:49:50.9	173.970	-0.440	0.310	2.060
2020/01/31 23:49:51.0	173.970	-0.430	0.300	2.070
2020/01/31 23:49:51.1	173.970	-0.420	0.290	2.070
2020/01/31 23:49:51.2	173.970	-0.410	0.280	2.080
2020/01/31 23:49:51.3	173.970	-0.400	0.260	2.080
2020/01/31 23:49:51.4	173.970	-0.380	0.240	2.090
2020/01/31 23:49:51.5	173.960	-0.360	0.220	2.090
2020/01/31 23:49:51.6	173.950	-0.330	0.200	2.090
2020/01/31 23:49:51.7	173.940	-0.310	0.170	2.090
2020/01/31 23:49:51.8	173.930	-0.280	0.130	2.090
2020/01/31 23:49:51.9	173.910	-0.250	0.100	2.090
2020/01/31 23:49:52.0	173.890	-0.210	0.060	2.090
2020/01/31 23:49:52.1	173.870	-0.170	0.020	2.090
2020/01/31 23:49:52.2	173.840	-0.130	-0.030	2.090
2020/01/31 23:49:52.3	173.810	-0.090	-0.080	2.090
2020/01/31 23:49:52.4	173.780	-0.050	-0.130	2.090
2020/01/31 23:49:52.5	173.740	-0.000	-0.180	2.100
2020/01/31 23:49:52.6	173.700	0.040	-0.240	2.100
2020/01/31 23:49:52.7	173.660	0.090	-0.290	2.100
2020/01/31 23:49:52.8	173.620	0.140	-0.350	2.100
2020/01/31 23:49:52.9	173.580	0.190	-0.410	2.110
2020/01/31 23:49:53.0	173.520	0.240	-0.470	2.110
2020/01/31 23:49:53.1	173.480	0.290	-0.520	2.110
2020/01/31 23:49:53.2	173.440	0.330	-0.580	2.110
2020/01/31 23:49:53.3	173.390	0.380	-0.630	2.110
2020/01/31 23:49:53.4	173.350	0.420	-0.680	2.110
2020/01/31 23:49:53.5	173.310	0.460	-0.720	2.100
2020/01/31 23:49:53.6	173.270	0.500	-0.760	2.100
2020/01/31 23:49:53.7	173.230	0.540	-0.800	2.090
2020/01/31 23:49:53.8	173.190	0.570	-0.830	2.090
2020/01/31 23:49:53.9	173.160	0.600	-0.860	2.080
2020/01/31 23:49:54.0	173.120	0.630	-0.870	2.060
2020/01/31 23:49:54.1	173.090	0.650	-0.890	2.050
2020/01/31 23:49:54.2	173.070	0.660	-0.890	2.040
2020/01/31 23:49:54.3	173.050	0.680	-0.890	2.020
2020/01/31 23:49:54.4	173.040	0.680	-0.890	2.000
2020/01/31 23:49:54.5	173.030	0.680	-0.870	1.980
2020/01/31 23:49:54.6	173.030	0.680	-0.850	1.950
2020/01/31 23:49:54.7	173.030	0.670	-0.820	1.930
2020/01/31 23:49:54.8	173.040	0.650	-0.790	1.900
2020/01/31 23:49:54.9	173.050	0.630	-0.740	1.870
2020/01/31 23:49:55.0	173.080	0.600	-0.690	1.830
2020/01/31 23:49:55.1	173.100	0.570	-0.630	1.790
2020/01/31 23:49:55.2	173.130	0.530	-0.570	1.760
2020/01/31 23:49:55.3	173.160	0.490	-0.500	1.720
2020/01/31 23:49:55.4	173.200	0.440	-0.430	1.680
2020/01/31 23:49:55.5	173.240	0.390	-0.350	1.640
2020/01/31 23:49:55.6	173.290	0.330	-0.270	1.610
2020/01/31 23:49:55.7	173.340	0.270	-0.190	1.570
2020/01/31 23:49:55.8	173.400	0.210	-0.110	1.530
2020/01/31 23:49:55.9	173.450	0.140	-0.030	1.490
2020/01/31 23:49:56.0	173.520	0.080	0.060	1.460
2020/01/31 23:49:56.1	173.580	0.010	0.140	1.430
2020/01/31 23:49:56.2	173.640	-0.060	0.220	1.390
2020/01/31 23:49:56.3	173.710	-0.130	0.290	1.360
2020/01/31 23:49:56.4	173.770	-0.200	0.360	1.330
2020/01/31 23:49:56.5	173.830	-0.270	0.420	1.300
2020/01/31 23:49:56.6	173.890	-0.340	0.470	1.280
2020/01/31 23:49:56.7	173.950	-0.400	0.520	1.250
2020/01/31 23:49:56.8	174.010	-0.460	0.550	1.230
2020/01/31 23:49:56.9	174.070	-0.510	0.580	1.220
2020/01/31 23:49:57.0	174.120	-0.560	0.590	1.200
2020/01/31 23:49:57.1	174.170	-0.610	0.600	1.190
2020/01/31 23:49:57.2	174.210	-0.650	0.590	1.180
2020/01/31 23:49:57.3	174.250	-0.680	0.580	1.180
2020/01/31 23:49:57.4	174.290	-0.700	0.550	1.180
2020/01/31 23:49:57.5	174.320	-0.720	0.510	1.190
2020/01/31 23:49:57.6	174.350	-0.730	0.450	1.200
2020/01/31 23:49:57.7	174.370	-0.730	0.390	1.220
2020/01/31 23:49:57.8	174.380	-0.720	0.310	1.240
2020/01/31 23:49:57.9	174.390	-0.700	0.220	1.270
2020/01/31 23:49:58.0	174.400	-0.670	0.120	1.300
2020/01/31 23:49:58.1	174.400	-0.640	0.020	1.340
2020/01/31 23:49:58.2	174.390	-0.600	-0.090	1.370
2020/01/31 23:49:58.3	174.380	-0.550	-0.210	1.410
2020/01/31 23:49:58.4	174.370	-0.490	-0.330	1.450
2020/01/31 23:49:58.5	174.350	-0.430	-0.460	1.490
2020/01/31 23:49:58.6	174.320	-0.370	-0.590	1.530
2020/01/31 23:49:58.7	174.300	-0.300	-0.710	1.580
2020/01/31 23:49:58.8	174.270	-0.220	-0.830	1.620
2020/01/31 23:49:58.9	174.230	-0.140	-0.950	1.660
2020/01/31 23:49:59.0	174.200	-0.070	-1.070	1.710
2020/01/31 23:49:59.1	174.160	0.010	-1.180	1.750
2020/01/31 23:49:59.2	174.120	0.090	-1.280	1.790
2020/01/31 23:49:59.3	174.080	0.170	-1.360	1.840
2020/01/31 23:49:59.4	174.040	0.250	-1.440	1.880
2020/01/31 23:49:59.5	174.000	0.320	-1.510	1.920
2020/01/31 23:49:59.6	173.960	0.390	-1.560	1.970
2020/01/31 23:49:59.7	173.920	0.450	-1.610	2.010
2020/01/31 23:49:59.8	173.880	0.520	-1.630	2.040
2020/01/31 23:49:59.9	173.850	0.570	-1.650	2.080
2020/01/31 23:50:00.0	173.820	0.620	-1.650	2.120
2020/01/31 23:50:00.1	173.790	0.660	-1.640	2.150
2020/01/31 23:50:00.2	173.760	0.690	-1.610	2.180
2020/01/31 23:50:00.3	173.740	0.720	-1.570	2.210
2020/01/31 23:50:00.4	173.710	0.740	-1.510	2.240
2020/01/31 23:50:00.5	173.690	0.750	-1.440	2.270
2020/01/31 23:50:00.6	173.670	0.760	-1.360	2.290
2020/01/31 23:50:00.7	173.660	0.750	-1.270	2.310
2020/01/31 23:50:00.8	173.640	0.740	-1.170	2.330
2020/01/31 23:50:00.9	173.630	0.720	-1.060	2.340
2020/01/31 23:50:01.0	173.610	0.700	-0.930	2.350
2020/01/31 23:50:01.1	173.610	0.670	-0.810	2.350
2020/01/31 23:50:01.2	173.610	0.630	-0.670	2.350
2020/01/31 23:50:01.3	173.610	0.580	-0.530	2.350
2020/01/31 23:50:01.4	173.620	0.530	-0.390	2.340
2020/01/31 23:50:01.5	173.630	0.480	-0.240	2.330
2020/01/31 23:50:01.6	173.640	0.420	-0.100	2.310
2020/01/31 23:50:01.7	173.650	0.360	0.040	2.300
2020/01/31 23:50:01.8	173.670	0.300	0.180	2.270
2020/01/31 23:50:01.9	173.680	0.240	0.320	2.250
2020/01/31 23:50:02.0	173.700	0.170	0.450	2.220
2020/01/31 23:50:02.1	173.730	0.110	0.580	2.190
2020/01/31 23:50:02.2	173.750	0.040	0.700	2.150
2020/01/31 23:50:02.3	173.770	-0.020	0.800	2.110
2020/01/31 23:50:02.4	173.790	-0.080	0.900	2.080
2020/01/31 23:50:02.5	173.810	-0.140	0.990	2.040
2020/01/31 23:50:02.6	173.830	-0.200	1.070	2.000
2020/01/31 23:50:02.7	173.850	-0.260	1.140	1.960
2020/01/31 23:50:02.8	173.870	-0.310	1.190	1.920
2020/01/31 23:50:02.9	173.890	-0.350	1.230	1.890
2020/01/31 23:50:03.0	173.910	-0.390	1.260	1.850
2020/01/31 23:50:03.1	173.930	-0.430	1.280	1.820
2020/01/31 23:50:03.2	173.950	-0.460	1.280	1.800
2020/01/31 23:50:03.3	173.960	-0.490	1.270	1.780
2020/01/31 23:50:03.4	173.970	-0.510	1.250	1.760
2020/01/31 23:50:03.5	173.980	-0.530	1.220	1.750
2020/01/31 23:50:03.6	173.990	-0.540	1.180	1.740
2020/01/31 23:50:03.7	174.000	-0.550	1.130	1.730
2020/01/31 23:50:03.8	174.010	-0.550	1.070	1.740
2020/01/31 23:50:03.9	174.010	-0.550	1.000	1.740
2020/01/31 23:50:04.0	174.020	-0.550	0.920	1.760
2020/01/31 23:50:04.1	174.030	-0.540	0.840	1.770
2020/01/31 23:50:04.2	174.030	-0.520	0.750	1.790
2020/01/31 23:50:04.3	174.030	-0.510	0.650	1.810
2020/01/31 23:50:04.4	174.020	-0.480	0.550	1.830
2020/01/31 23:50:04.5	174.020	-0.460	0.440	1.850
2020/01/31 23:50:04.6	174.020	-0.430	0.340	1.870
2020/01/31 23:50:04.7	174.010	-0.400	0.230	1.900
2020/01/31 23:50:04.8	174.000	-0.370	0.120	1.920
2020/01/31 23:50:04.9	173.990	-0.330	0.000	1.940
2020/01/31 23:50:05.0	173.980	-0.300	-0.110	1.960
2020/01/31 23:50:05.1	173.960	-0.260	-0.220	1.980
2020/01/31 23:50:05.2	173.950	-0.220	-0.320	1.990
2020/01/31 23:50:05.3	173.930	-0.180	-0.430	2.010
2020/01/31 23:50:05.4	173.910	-0.140	-0.530	2.020
2020/01/31 23:50:05.5	173.900	-0.090	-0.630	2.030
2020/01/31 23:50:05.6	173.880	-0.050	-0.730	2.040
2020/01/31 23:50:05.7	173.860	-0.010	-0.820	2.050
2020/01/31 23:50:05.8	173.830	0.040	-0.900	2.050
2020/01/31 23:50:05.9	173.810	0.080	-0.980	2.060
2020/01/31 23:50:06.0	173.790	0.120	-1.060	2.050
2020/01/31 23:50:06.1	173.770	0.160	-1.120	2.050
2020/01/31 23:50:06.2	173.740	0.200	-1.190	2.050
2020/01/31 23:50:06.3	173.720	0.240	-1.240	2.050
2020/01/31 23:50:06.4	173.690	0.270	-1.290	2.050
2020/01/31 23:50:06.5	173.660	0.310	-1.330	2.050
2020/01/31 23:50:06.6	173.630	0.340	-1.360	2.040
2020/01/31 23:50:06.7	173.600	0.370	-1.380	2.040
2020/01/31 23:50:06.8	173.570	0.400	-1.400	2.030
2020/01/31 23:50:06.9	173.550	0.420	-1.410	2.020
2020/01/31 23:50:07.0	173.500	0.440	-1.400	2.020
2020/01/31 23:50:07.1	173.470	0.460	-1.390	2.010
2020/01/31 23:50:07.2	173.450	0.480	-1.380	1.990
2020/01/31 23:50:07.3	173.430	0.490	-1.350	1.980
2020/01/31 23:50:07.4	173.410	0.500	-1.320	1.960
2020/01/31 23:50:07.5	173.390	0.500	-1.270	1.940
2020/01/31 23:50:07.6	173.380	0.510	-1.230	1.920
2020/01/31 23:50:07.7	173.360	0.500	-1.170	1.900
2020/01/31 23:50:07.8	173.350	0.500	-1.110	1.870
2020/01/31 23:50:07.9	173.340	0.490	-1.040	1.840
2020/01/31 23:50:08.0	173.340	0.480	-0.960	1.810
2020/01/31 23:50:08.1	173.340	0.460	-0.890	1.780
2020/01/31 23:50:08.2	173.340	0.440	-0.800	1.750
2020/01/31 23:50:08.3	173.340	0.410	-0.720	1.710
2020/01/31 23:50:08.4	173.350	0.380	-0.630	1.670
2020/01/31 23:50:08.5	173.360	0.350	-0.540	1.640
2020/01/31 23:50:08.6	173.370	0.320	-0.440	1.600
2020/01/31 23:50:08.7	173.380	0.280	-0.350	1.560
2020/01/31 23:50:08.8	173.400	0.240	-0.260	1.520
2020/01/31 23:50:08.9	173.420	0.200	-0.170	1.490
2020/01/31 23:50:09.0	173.440	0.150	-0.080	1.450
2020/01/31 23:50:09.1	173.460	0.110	0.000	1.420
2020/01/31 23:50:09.2	173.490	0.060	0.080	1.380
2020/01/31 23:50:09.3	173.510	0.010	0.160	1.340
2020/01/31 23:50:09.4	173.540	-0.040	0.230	1.310
2020/01/31 23:50:09.5	173.570	-0.090	0.300	1.280
2020/01/31 23:50:09.6	173.610	-0.140	0.350	1.240
2020/01/31 23:50:09.7	173.640	-0.190	0.410	1.210
2020/01/31 23:50:09.8	173.680	-0.230	0.450	1.180
2020/01/31 23:50:09.9	173.710	-0.280	0.490	1.150
2020/01/31 23:50:10.0	173.750	-0.320	0.520	1.120
2020/01/31 23:50:10.1	173.790	-0.360	0.540	1.100
2020/01/31 23:50:10.2	173.820	-0.400	0.550	1.080
2020/01/31 23:50:10.3	173.850	-0.440	0.560	1.070
2020/01/31 23:50:10.4	173.890	-0.470	0.560	1.050
2020/01/31 23:50:10.5	173.920	-0.500	0.550	1.050
2020/01/31 23:50:10.6	173.950	-0.520	0.530	1.040
2020/01/31 23:50:10.7	173.970	-0.540	0.500	1.040
2020/01/31 23:50:10.8	174.000	-0.560	0.470	1.050
2020/01/31 23:50:10.9	174.020	-0.570	0.430	1.060
2020/01/31 23:50:11.0	174.030	-0.580	0.380	1.080
2020/01/31 23:50:11.1	174.050	-0.580	0.330	1.090
2020/01/31 23:50:11.2	174.060	-0.570	0.280	1.110
2020/01/31 23:50:11.3	174.070	-0.560	0.210	1.140
2020/01/31 23:50:11.4	174.070	-0.550	0.150	1.160
2020/01/31 23:50:11.5	174.070	-0.530	0.080	1.190
2020/01/31 23:50:11.6	174.070	-0.510	0.010	1.220
2020/01/31 23:50:11.7	174.070	-0.490	-0.060	1.250
2020/01/31 23:50:11.8	174.060	-0.460	-0.130	1.280
2020/01/31 23:50:11.9	174.050	-0.420	-0.210	1.310
2020/01/31 23:50:12.0	174.050	-0.390	-0.280	1.350
2020/01/31 23:50:12.1	174.030	-0.350	-0.350	1.380
2020/01/31 23:50:12.2	174.020	-0.310	-0.420	1.420
2020/01/31 23:50:12.3	174.000	-0.270	-0.480	1.450
2020/01/31 23:50:12.4	173.990	-0.220	-0.540	1.490
2020/01/31 23:50:12.5	173.970	-0.180	-0.600	1.530
2020/01/31 23:50:12.6	173.950	-0.130	-0.650	1.570
2020/01/31 23:50:12.7	173.930	-0.090	-0.690	1.600
2020/01/31 23:50:12.8	173.910	-0.040	-0.730	1.640
2020/01/31 23:50:12.9	173.890	-0.000	-0.760	1.680
2020/01/31 23:50:13.0	173.880	0.040	-0.780	1.720
2020/01/31 23:50:13.1	173.860	0.080	-0.800	1.750
2020/01/31 23:50:13.2	173.840	0.120	-0.810	1.780
2020/01/31 23:50:13.3	173.820	0.150	-0.810	1.810
2020/01/31 23:50:13.4	173.800	0.180	-0.810	1.840
2020/01/31 23:50:13.5	173.780	0.210	-0.800	1.860
2020/01/31 23:50:13.6	173.760	0.240	-0.780	1.890
2020/01/31 23:50:13.7	173.740	0.260	-0.760	1.910
2020/01/31 23:50:13.8	173.730	0.280	-0.720	1.920
2020/01/31 23:50:13.9	173.710	0.290	-0.690	1.940
2020/01/31 23:50:14.0	173.680	0.300	-0.650	1.940
2020/01/31 23:50:14.1	173.670	0.310	-0.600	1.950
2020/01/31 23:50:14.2	173.660	0.310	-0.550	1.960
2020/01/31 23:50:14.3	173.650	0.310	-0.500	1.960
2020/01/31 23:50:14.4	173.640	0.310	-0.440	1.960
2020/01/31 23:50:14.5	173.630	0.300	-0.380	1.950
2020/01/31 23:50:14.6	173.630	0.290	-0.320	1.940
2020/01/31 23:50:14.7	173.620	0.280	-0.260	1.940
2020/01/31 23:50:14.8	173.610	0.260	-0.200	1.920
2020/01/31 23:50:14.9	173.610	0.240	-0.140	1.910
2020/01/31 23:50:15.0	173.610	0.220	-0.090	1.900
2020/01/31 23:50:15.1	173.610	0.200	-0.030	1.890
2020/01/31 23:50:15.2	173.600	0.170	0.020	1.870
2020/01/31 23:50:15.3	173.600	0.150	0.060	1.860
2020/01/31 23:50:15.4	173.600	0.120	0.100	1.850
2020/01/31 23:50:15.5	173.600	0.100	0.140	1.830
2020/01/31 23:50:15.6	173.590	0.070	0.170	1.820
2020/01/31 23:50:15.7	173.590	0.050	0.190	1.810
2020/01/31 23:50:15.8	173.590	0.020	0.210	1.800
2020/01/31 23:50:15.9	173.580	-0.000	0.220	1.790
2020/01/31 23:50:16.0	173.580	-0.020	0.220	1.790
2020/01/31 23:50:16.1	173.570	-0.040	0.220	1.790
2020/01/31 23:50:16.2	173.570	-0.060	0.210	1.780
2020/01/31 23:50:16.3	173.560	-0.080	0.200	1.790
2020/01/31 23:50:16.4	173.550	-0.090	0.180	1.790
2020/01/31 23:50:16.5	173.540	-0.110	0.150	1.800
2020/01/31 23:50:16.6	173.530	-0.120	0.130	1.800
2020/01/31 23:50:16.7	173.520	-0.120	0.090	1.820
2020/01/31 23:50:16.8	173.510	-0.130	0.050	1.830
2020/01/31 23:50:16.9	173.490	-0.130	0.010	1.840
2020/01/31 23:50:17.0	173.470	-0.130	-0.030	1.860
2020/01/31 23:50:17.1	173.460	-0.130	-0.070	1.880
2020/01/31 23:50:17.2	173.440	-0.120	-0.120	1.900
2020/01/31 23:50:17.3	173.430	-0.110	-0.170	1.920
2020/01/31 23:50:17.4	173.410	-0.100	-0.210	1.940
2020/01/31 23:50:17.5	173.390	-0.090	-0.260	1.960
2020/01/31 23:50:17.6	173.380	-0.080	-0.300	1.980
2020/01/31 23:50:17.7	173.360	-0.060	-0.350	2.000
2020/01/31 23:50:17.8	173.350	-0.050	-0.390	2.020
2020/01/31 23:50:17.9	173.330	-0.030	-0.420	2.030
2020/01/31 23:50:18.0	173.320	-0.010	-0.460	2.050
2020/01/31 23:50:18.1	173.300	0.000	-0.490	2.070
2020/01/31 23:50:18.2	173.290	0.020	-0.510	2.090
2020/01/31 23:50:18.3	173.280	0.040	-0.540	2.110
2020/01/31 23:50:18.4	173.270	0.060	-0.550	2.120
2020/01/31 23:50:18.5	173.250	0.070	-0.570	2.130
2020/01/31 23:50:18.6	173.240	0.090	-0.580	2.150
2020/01/31 23:50:18.7	173.240	0.110	-0.580	2.160
2020/01/31 23:50:18.8	173.230	0.120	-0.590	2.160
2020/01/31 23:50:18.9	173.220	0.130	-0.590	2.170
2020/01/31 23:50:19.0	173.210	0.140	-0.580	2.180
2020/01/31 23:50:19.1	173.210	0.150	-0.570	2.180
2020/01/31 23:50:19.2	173.210	0.160	-0.560	2.180
2020/01/31 23:50:19.3	173.200	0.160	-0.550	2.180
2020/01/31 23:50:19.4	173.200	0.170	-0.530	2.180
2020/01/31 23:50:19.5	173.200	0.170	-0.510	2.180
2020/01/31 23:50:19.6	173.200	0.170	-0.490	2.170
2020/01/31 23:50:19.7	173.190	0.170	-0.470	2.170
2020/01/31 23:50:19.8	173.190	0.170	-0.440	2.160
2020/01/31 23:50:19.9	173.200	0.170	-0.420	2.150
2020/01/31 23:50:20.0	173.210	0.160	-0.390	2.140
2020/01/31 23:50:20.1	173.210	0.150	-0.370	2.130
2020/01/31 23:50:20.2	173.210	0.150	-0.340	2.120
2020/01/31 23:50:20.3	173.220	0.140	-0.310	2.110
2020/01/31 23:50:20.4	173.220	0.130	-0.290	2.100
2020/01/31 23:50:20.5	173.230	0.120	-0.260	2.080
2020/01/31 23:50:20.6	173.230	0.110	-0.230	2.070
2020/01/31 23:50:20.7	173.240	0.110	-0.210	2.050
2020/01/31 23:50:20.8	173.240	0.100	-0.180	2.030
2020/01/31 23:50:20.9	173.250	0.090	-0.160	2.020
2020/01/31 23:50:21.0	173.260	0.080	-0.130	2.000
2020/01/31 23:50:21.1	173.270	0.070	-0.110	1.970
2020/01/31 23:50:21.2	173.280	0.060	-0.090	1.950
2020/01/31 23:50:21.3	173.300	0.060	-0.060	1.920
2020/01/31 23:50:21.4	173.310	0.050	-0.040	1.890
2020/01/31 23:50:21.5	173.330	0.040	-0.020	1.860
2020/01/31 23:50:21.6	173.350	0.040	0.010	1.830
2020/01/31 23:50:21.7	173.370	0.030	0.030	1.800
2020/01/31 23:50:21.8	173.400	0.030	0.050	1.760
2020/01/31 23:50:21.9	173.420	0.020	0.070	1.730
2020/01/31 23:50:22.0	173.440	0.020	0.090	1.690
2020/01/31 23:50:22.1	173.470	0.010	0.110	1.650
2020/01/31 23:50:22.2	173.500	0.010	0.130	1.620
2020/01/31 23:50:22.3	173.530	0.010	0.150	1.590
2020/01/31 23:50:22.4	173.560	0.000	0.170	1.550
2020/01/31 23:50:22.5	173.590	-0.000	0.180	1.520
2020/01/31 23:50:22.6	173.620	-0.010	0.200	1.490
2020/01/31 23:50:22.7	173.640	-0.010	0.210	1.460
2020/01/31 23:50:22.8	173.670	-0.010	0.220	1.440
2020/01/31 23:50:22.9	173.700	-0.020	0.220	1.410
2020/01/31 23:50:23.0	173.730	-0.020	0.230	1.390
2020/01/31 23:50:23.1	173.790	-0.030	0.230	1.370
2020/01/31 23:50:23.2	173.810	-0.030	0.220	1.360
2020/01/31 23:50:23.3	173.840	-0.030	0.220	1.350
2020/01/31 23:50:23.4	173.870	-0.030	0.210	1.330
2020/01/31 23:50:23.5	173.890	-0.040	0.190	1.330
2020/01/31 23:50:23.6	173.910	-0.040	0.170	1.320
2020/01/31 23:50:23.7	173.930	-0.040	0.150	1.320
2020/01/31 23:50:23.8	173.950	-0.040	0.120	1.320
2020/01/31 23:50:23.9	173.970	-0.030	0.090	1.320
2020/01/31 23:50:24.0	173.990	-0.030	0.050	1.330
2020/01/31 23:50:24.1	174.000	-0.030	0.010	1.340
2020/01/31 23:50:24.2	174.010	-0.020	-0.030	1.350
2020/01/31 23:50:24.3	174.020	-0.010	-0.080	1.370
2020/01/31 23:50:24.4	174.030	-0.000	-0.130	1.380
2020/01/31 23:50:24.5	174.030	0.010	-0.180	1.400
2020/01/31 23:50:24.6	174.030	0.020	-0.230	1.420
2020/01/31 23:50:24.7	174.030	0.040	-0.290	1.430
2020/01/31 23:50:24.8	174.020	0.050	-0.350	1.450
2020/01/31 23:50:24.9	174.020	0.070	-0.400	1.480
2020/01/31 23:50:25.0	174.020	0.090	-0.460	1.500
2020/01/31 23:50:25.1	174.000	0.110	-0.520	1.520
2020/01/31 23:50:25.2	173.990	0.130	-0.580	1.540
2020/01/31 23:50:25.3	173.970	0.150	-0.640	1.560
2020/01/31 23:50:25.4	173.950	0.170	-0.690	1.590
2020/01/31 23:50:25.5	173.930	0.190	-0.750	1.610
2020/01/31 23:50:25.6	173.910	0.220	-0.800	1.640
2020/01/31 23:50:25.7	173.890	0.240	-0.850	1.660
2020/01/31 23:50:25.8	173.860	0.260	-0.890	1.690
2020/01/31 23:50:25.9	173.840	0.280	-0.930	1.710
2020/01/31 23:50:26.0	173.810	0.300	-0.960	1.740
2020/01/31 23:50:26.1	173.770	0.310	-0.990	1.770
2020/01/31 23:50:26.2	173.750	0.330	-1.010	1.800
2020/01/31 23:50:26.3	173.720	0.340	-1.030	1.820
2020/01/31 23:50:26.4	173.700	0.350	-1.040	1.850
2020/01/31 23:50:26.5	173.680	0.360	-1.040	1.880
2020/01/31 23:50:26.6	173.660	0.360	-1.040	1.900
2020/01/31 23:50:26.7	173.640	0.360	-1.020	1.930
2020/01/31 23:50:26.8	173.620	0.360	-1.010	1.950
2020/01/31 23:50:26.9	173.610	0.360	-0.980	1.980
2020/01/31 23:50:27.0	173.600	0.350	-0.950	1.990
2020/01/31 23:50:27.1	173.590	0.340	-0.910	2.010
2020/01/31 23:50:27.2	173.590	0.320	-0.870	2.020
2020/01/31 23:50:27.3	173.590	0.310	-0.820	2.040
2020/01/31 23:50:27.4	173.590	0.290	-0.760	2.040
2020/01/31 23:50:27.5	173.590	0.260	-0.700	2.050
2020/01/31 23:50:27.6	173.600	0.230	-0.640	2.050
2020/01/31 23:50:27.7	173.610	0.210	-0.570	2.050
2020/01/31 23:50:27.8	173.630	0.170	-0.500	2.040
2020/01/31 23:50:27.9	173.640	0.140	-0.430	2.030
2020/01/31 23:50:28.0	173.670	0.100	-0.360	2.020
2020/01/31 23:50:28.1	173.690	0.070	-0.280	2.000
2020/01/31 23:50:28.2	173.720	0.030	-0.210	1.980
2020/01/31 23:50:28.3	173.740	-0.010	-0.140	1.960
2020/01/31 23:50:28.4	173.760	-0.060	-0.070	1.930
2020/01/31 23:50:28.5	173.790	-0.100	-0.000	1.910
2020/01/31 23:50:28.6	173.820	-0.140	0.060	1.880
2020/01/31 23:50:28.7	173.840	-0.180	0.120	1.850
2020/01/31 23:50:28.8	173.870	-0.220	0.170	1.810
2020/01/31 23:50:28.9	173.900	-0.260	0.220	1.780
2020/01/31 23:50:29.0	173.920	-0.300	0.260	1.750
2020/01/31 23:50:29.1	173.950	-0.340	0.290	1.720
2020/01/31 23:50:29.2	173.970	-0.370	0.320	1.690
2020/01/31 23:50:29.3	173.990	-0.410	0.340	1.660
2020/01/31 23:50:29.4	174.010	-0.440	0.350	1.630
2020/01/31 23:50:29.5	174.030	-0.460	0.360	1.600
2020/01/31 23:50:29.6	174.040	-0.490	0.350	1.580
2020/01/31 23:50:29.7	174.060	-0.510	0.340	1.560
2020/01/31 23:50:29.8	174.060	-0.520	0.320	1.540
2020/01/31 23:50:29.9	174.070	-0.530	0.300	1.520
2020/01/31 23:50:30.0	174.070	-0.540	0.270	1.510
2020/01/31 23:50:30.1	174.070	-0.550	0.230	1.500
2020/01/31 23:50:30.2	174.070	-0.550	0.180	1.500
2020/01/31 23:50:30.3	174.060	-0.550	0.130	1.500
2020/01/31 23:50:30.4	174.050	-0.540	0.070	1.510
2020/01/31 23:50:30.5	174.040	-0.530	0.010	1.520
2020/01/31 23:50:30.6	174.030	-0.510	-0.050	1.530
2020/01/31 23:50:30.7	174.020	-0.490	-0.120	1.550
2020/01/31 23:50:30.8	174.000	-0.470	-0.190	1.560
2020/01/31 23:50:30.9	173.990	-0.440	-0.270	1.580
2020/01/31 23:50:31.0	173.980	-0.410	-0.340	1.610
2020/01/31 23:50:31.1	173.960	-0.380	-0.410	1.630
2020/01/31 23:50:31.2	173.940	-0.350	-0.480	1.650
2020/01/31 23:50:31.3	173.920	-0.310	-0.550	1.670
2020/01/31 23:50:31.4	173.900	-0.270	-0.610	1.690
2020/01/31 23:50:31.5	173.880	-0.230	-0.670	1.710
2020/01/31 23:50:31.6	173.860	-0.190	-0.720	1.730
2020/01/31 23:50:31.7	173.840	-0.140	-0.770	1.740
2020/01/31 23:50:31.8	173.820	-0.100	-0.820	1.760
2020/01/31 23:50:31.9	173.800	-0.050	-0.850	1.770
2020/01/31 23:50:32.0	173.780	-0.010	-0.880	1.780
2020/01/31 23:50:32.1	173.760	0.040	-0.900	1.790
2020/01/31 23:50:32.2	173.750	0.080	-0.920	1.790
2020/01/31 23:50:32.3	173.730	0.120	-0.920	1.790
2020/01/31 23:50:32.4	173.710	0.160	-0.920	1.790
2020/01/31 23:50:32.5	173.700	0.200	-0.900	1.780
2020/01/31 23:50:32.6	173.690	0.240	-0.880	1.770
2020/01/31 23:50:32.7	173.680	0.270	-0.850	1.760
2020/01/31 23:50:32.8	173.670	0.300	-0.820	1.750
2020/01/31 23:50:32.9	173.670	0.320	-0.770	1.730
2020/01/31 23:50:33.0	173.670	0.350	-0.720	1.710
2020/01/31 23:50:33.1	173.670	0.360	-0.660	1.680
2020/01/31 23:50:33.2	173.670	0.380	-0.590	1.660
2020/01/31 23:50:33.3	173.680	0.390	-0.520	1.630
2020/01/31 23:50:33.4	173.690	0.390	-0.450	1.600
2020/01/31 23:50:33.5	173.710	0.390	-0.370	1.570
2020/01/31 23:50:33.6	173.720	0.390	-0.280	1.540
2020/01/31 23:50:33.7	173.740	0.380	-0.200	1.500
2020/01/31 23:50:33.8	173.770	0.370	-0.110	1.470
2020/01/31 23:50:33.9	173.790	0.360	-0.020	1.440
2020/01/31 23:50:34.0	173.820	0.340	0.070	1.400
2020/01/31 23:50:34.1	173.850	0.310	0.150	1.370
2020/01/31 23:50:34.2	173.880	0.290	0.240	1.340
2020/01/31 23:50:34.3	173.920	0.260	0.320	1.310
2020/01/31 23:50:34.4	173.950	0.230	0.400	1.280
2020/01/31 23:50:34.5	173.990	0.190	0.470	1.250
2020/01/31 23:50:34.6	174.030	0.150	0.540	1.220
2020/01/31 23:50:34.7	174.080	0.110	0.610	1.200
2020/01/31 23:50:34.8	174.120	0.070	0.660	1.180
2020/01/31 23:50:34.9	174.160	0.030	0.720	1.160
2020/01/31 23:50:35.0	174.220	-0.010	0.760	1.140
2020/01/31 23:50:35.1	174.260	-0.050	0.800	1.130
2020/01/31 23:50:35.2	174.300	-0.090	0.830	1.120
2020/01/31 23:50:35.3	174.340	-0.130	0.850	1.120
2020/01/31 23:50:35.4	174.380	-0.170	0.870	1.120
2020/01/31 23:50:35.5	174.420	-0.210	0.880	1.120
2020/01/31 23:50:35.6	174.450	-0.250	0.870	1.130
2020/01/31 23:50:35.7	174.490	-0.280	0.870	1.140
2020/01/31 23:50:35.8	174.520	-0.310	0.850	1.160
2020/01/31 23:50:35.9	174.540	-0.340	0.820	1.180
2020/01/31 23:50:36.0	174.550	-0.360	0.790	1.210
2020/01/31 23:50:36.1	174.580	-0.380	0.750	1.230
2020/01/31 23:50:36.2	174.590	-0.400	0.700	1.260
2020/01/31 23:50:36.3	174.610	-0.410	0.640	1.290
2020/01/31 23:50:36.4	174.620	-0.420	0.570	1.330
2020/01/31 23:50:36.5	174.630	-0.420	0.500	1.360
2020/01/31 23:50:36.6	174.630	-0.420	0.430	1.390
2020/01/31 23:50:36.7	174.630	-0.420	0.340	1.430
2020/01/31 23:50:36.8	174.630	-0.410	0.260	1.470
2020/01/31 23:50:36.9	174.620	-0.400	0.160	1.510
2020/01/31 23:50:37.0	174.610	-0.380	0.070	1.540
2020/01/31 23:50:37.1	174.600	-0.360	-0.030	1.580
2020/01/31 23:50:37.2	174.590	-0.330	-0.130	1.620
2020/01/31 23:50:37.3	174.580	-0.310	-0.230	1.660
2020/01/31 23:50:37.4	174.560	-0.280	-0.330	1.710
2020/01/31 23:50:37.5	174.550	-0.240	-0.430	1.750
2020/01/31 23:50:37.6	174.530	-0.210	-0.520	1.790
2020/01/31 23:50:37.7	174.510	-0.170	-0.620	1.840
2020/01/31 23:50:37.8	174.480	-0.130	-0.710	1.880
2020/01/31 23:50:37.9	174.460	-0.090	-0.800	1.920
2020/01/31 23:50:38.0	174.440	-0.050	-0.880	1.970
2020/01/31 23:50:38.1	174.410	-0.010	-0.960	2.010
2020/01/31 23:50:38.2	174.390	0.040	-1.040	2.050
2020/01/31 23:50:38.3	174.370	0.080	-1.100	2.090
2020/01/31 23:50:38.4	174.350	0.120	-1.160	2.120
2020/01/31 23:50:38.5	174.320	0.160	-1.220	2.150
2020/01/31 23:50:38.6	174.300	0.210	-1.260	2.180
2020/01/31 23:50:38.7	174.280	0.250	-1.300	2.200
2020/01/31 23:50:38.8	174.260	0.290	-1.330	2.220
2020/01/31 23:50:38.9	174.250	0.320	-1.350	2.230
2020/01/31 23:50:39.0	174.210	0.360	-1.360	2.240
2020/01/31 23:50:39.1	174.190	0.390	-1.360	2.240
2020/01/31 23:50:39.2	174.180	0.430	-1.360	2.240
2020/01/31 23:50:39.3	174.170	0.460	-1.340	2.230
2020/01/31 23:50:39.4	174.150	0.480	-1.320	2.210
2020/01/31 23:50:39.5	174.140	0.510	-1.300	2.190
2020/01/31 23:50:39.6	174.140	0.530	-1.260	2.170
2020/01/31 23:50:39.7	174.130	0.540	-1.230	2.140
2020/01/31 23:50:39.8	174.120	0.560	-1.180	2.100
2020/01/31 23:50:39.9	174.120	0.570	-1.140	2.070
2020/01/31 23:50:40.0	174.110	0.570	-1.090	2.030
2020/01/31 23:50:40.1	174.120	0.570	-1.030	1.980
2020/01/31 23:50:40.2	174.110	0.570	-0.980	1.930
2020/01/31 23:50:40.3	174.110	0.570	-0.920	1.890
2020/01/31 23:50:40.4	174.100	0.560	-0.860	1.840
2020/01/31 23:50:40.5	174.100	0.550	-0.800	1.790
2020/01/31 23:50:40.6	174.100	0.530	-0.740	1.750
2020/01/31 23:50:40.7	174.090	0.510	-0.680	1.700
2020/01/31 23:50:40.8	174.090	0.490	-0.630	1.660
2020/01/31 23:50:40.9	174.090	0.470	-0.570	1.610
2020/01/31 23:50:41.0	174.100	0.440	-0.510	1.570
2020/01/31 23:50:41.1	174.100	0.410	-0.460	1.530
2020/01/31 23:50:41.2	174.100	0.370	-0.410	1.500
2020/01/31 23:50:41.3	174.100	0.330	-0.360	1.470
2020/01/31 23:50:41.4	174.110	0.290	-0.310	1.440
2020/01/31 23:50:41.5	174.120	0.250	-0.260	1.410
2020/01/31 23:50:41.6	174.130	0.210	-0.210	1.390
2020/01/31 23:50:41.7	174.140	0.160	-0.170	1.370
2020/01/31 23:50:41.8	174.150	0.110	-0.130	1.360
2020/01/31 23:50:41.9	174.170	0.060	-0.090	1.350
2020/01/31 23:50:42.0	174.190	0.010	-0.050	1.340
2020/01/31 23:50:42.1	174.210	-0.040	-0.010	1.340
2020/01/31 23:50:42.2	174.230	-0.090	0.020	1.340
2020/01/31 23:50:42.3	174.250	-0.140	0.060	1.340
2020/01/31 23:50:42.4	174.270	-0.190	0.090	1.340
2020/01/31 23:50:42.5	174.300	-0.240	0.120	1.350
2020/01/31 23:50:42.6	174.320	-0.300	0.150	1.350
2020/01/31 23:50:42.7	174.350	-0.350	0.190	1.370
2020/01/31 23:50:42.8	174.370	-0.400	0.220	1.380
2020/01/31 23:50:42.9	174.400	-0.440	0.250	1.390
2020/01/31 23:50:43.0	174.430	-0.490	0.270	1.410
2020/01/31 23:50:43.1	174.460	-0.530	0.300	1.420
2020/01/31 23:50:43.2	174.490	-0.580	0.320	1.440
2020/01/31 23:50:43.3	174.510	-0.620	0.350	1.460
2020/01/31 23:50:43.4	174.540	-0.660	0.370	1.480
2020/01/31 23:50:43.5	174.560	-0.690	0.390	1.500
2020/01/31 23:50:43.6	174.590	-0.720	0.400	1.520
2020/01/31 23:50:43.7	174.610	-0.750	0.420	1.540
2020/01/31 23:50:43.8	174.640	-0.780	0.430	1.550
2020/01/31 23:50:43.9	174.660	-0.800	0.430	1.580
2020/01/31 23:50:44.0	174.670	-0.810	0.440	1.600
2020/01/31 23:50:44.1	174.690	-0.820	0.430	1.620
2020/01/31 23:50:44.2	174.700	-0.830	0.430	1.640
2020/01/31 23:50:44.3	174.720	-0.830	0.410	1.670
2020/01/31 23:50:44.4	174.730	-0.830	0.390	1.690
2020/01/31 23:50:44.5	174.730	-0.820	0.370	1.710
2020/01/31 23:50:44.6	174.740	-0.800	0.340	1.740
2020/01/31 23:50:44.7	174.740	-0.780	0.300	1.760
2020/01/31 23:50:44.8	174.740	-0.760	0.260	1.790
2020/01/31 23:50:44.9	174.730	-0.720	0.210	1.820
2020/01/31 23:50:45.0	174.720	-0.680	0.150	1.850
2020/01/31 23:50:45.1	174.710	-0.640	0.090	1.880
2020/01/31 23:50:45.2	174.700	-0.590	0.030	1.910
2020/01/31 23:50:45.3	174.680	-0.530	-0.040	1.940
2020/01/31 23:50:45.4	174.660	-0.480	-0.110	1.970
2020/01/31 23:50:45.5	174.630	-0.410	-0.190	2.000
2020/01/31 23:50:45.6	174.610	-0.340	-0.270	2.020
2020/01/31 23:50:45.7	174.580	-0.270	-0.340	2.050
2020/01/31 23:50:45.8	174.550	-0.200	-0.420	2.070
2020/01/31 23:50:45.9	174.520	-0.120	-0.490	2.090
2020/01/31 23:50:46.0	174.490	-0.040	-0.560	2.110
2020/01/31 23:50:46.1	174.460	0.040	-0.630	2.130
2020/01/31 23:50:46.2	174.430	0.110	-0.690	2.140
2020/01/31 23:50:46.3	174.400	0.190	-0.750	2.150
2020/01/31 23:50:46.4	174.370	0.270	-0.800	2.160
2020/01/31 23:50:46.5	174.330	0.340	-0.850	2.160
2020/01/31 23:50:46.6	174.300	0.410	-0.880	2.160
2020/01/31 23:50:46.7	174.280	0.480	-0.910	2.160
2020/01/31 23:50:46.8	174.250	0.550	-0.930	2.160
2020/01/31 23:50:46.9	174.220	0.610	-0.940	2.150
2020/01/31 23:50:47.0	174.200	0.660	-0.940	2.140
2020/01/31 23:50:47.1	174.190	0.710	-0.930	2.120
2020/01/31 23:50:47.2	174.170	0.750	-0.910	2.100
2020/01/31 23:50:47.3	174.160	0.790	-0.880	2.080
2020/01/31 23:50:47.4	174.150	0.820	-0.850	2.050
2020/01/31 23:50:47.5	174.140	0.850	-0.800	2.020
2020/01/31 23:50:47.6	174.130	0.870	-0.750	1.990
2020/01/31 23:50:47.7	174.130	0.880	-0.690	1.960
2020/01/31 23:50:47.8	174.130	0.890	-0.620	1.920
2020/01/31 23:50:47.9	174.140	0.890	-0.540	1.870
2020/01/31 23:50:48.0	174.160	0.880	-0.460	1.830
2020/01/31 23:50:48.1	174.170	0.870	-0.380	1.780
2020/01/31 23:50:48.2	174.190	0.850	-0.290	1.730
2020/01/31 23:50:48.3	174.210	0.820	-0.200	1.670
2020/01/31 23:50:48.4	174.230	0.790	-0.110	1.620
2020/01/31 23:50:48.5	174.260	0.760	-0.020	1.560
2020/01/31 23:50:48.6	174.290	0.720	0.080	1.500
2020/01/31 23:50:48.7	174.320	0.670	0.170	1.450
2020/01/31 23:50:48.8	174.350	0.630	0.250	1.390
2020/01/31 23:50:48.9	174.380	0.570	0.340	1.330
2020/01/31 23:50:49.0	174.410	0.520	0.410	1.270
2020/01/31 23:50:49.1	174.440	0.460	0.490	1.210
2020/01/31 23:50:49.2	174.480	0.400	0.560	1.150
2020/01/31 23:50:49.3	174.520	0.340	0.620	1.100
2020/01/31 23:50:49.4	174.560	0.280	0.670	1.050
2020/01/31 23:50:49.5	174.590	0.210	0.710	1.000
2020/01/31 23:50:49.6	174.630	0.150	0.750	0.960
2020/01/31 23:50:49.7	174.670	0.090	0.780	0.920
2020/01/31 23:50:49.8	174.710	0.020	0.790	0.880
2020/01/31 23:50:49.9	174.740	-0.040	0.800	0.850
2020/01/31 23:50:50.0	174.780	-0.100	0.800	0.830
2020/01/31 23:50:50.1	174.830	-0.160	0.790	0.810
2020/01/31 23:50:50.2	174.860	-0.220	0.770	0.800
2020/01/31 23:50:50.3	174.890	-0.270	0.740	0.790
2020/01/31 23:50:50.4	174.920	-0.330	0.700	0.790
2020/01/31 23:50:50.5	174.950	-0.380	0.650	0.800
2020/01/31 23:50:50.6	174.980	-0.430	0.590	0.820
2020/01/31 23:50:50.7	175.000	-0.470	0.530	0.840
2020/01/31 23:50:50.8	175.030	-0.510	0.450	0.870
2020/01/31 23:50:50.9	175.050	-0.550	0.370	0.900
2020/01/31 23:50:51.0	175.080	-0.580	0.290	0.950
2020/01/31 23:50:51.1	175.100	-0.610	0.200	0.990
2020/01/31 23:50:51.2	175.120	-0.630	0.100	1.030
2020/01/31 23:50:51.3	175.130	-0.650	0.000	1.080
2020/01/31 23:50:51.4	175.140	-0.660	-0.100	1.130
2020/01/31 23:50:51.5	175.150	-0.670	-0.210	1.180
2020/01/31 23:50:51.6	175.160	-0.670	-0.320	1.230
2020/01/31 23:50:51.7	175.160	-0.670	-0.420	1.290
2020/01/31 23:50:51.8	175.160	-0.660	-0.530	1.340
2020/01/31 23:50:51.9	175.150	-0.650	-0.640	1.390
2020/01/31 23:50:52.0	175.140	-0.630	-0.750	1.450
2020/01/31 23:50:52.1	175.120	-0.610	-0.850	1.500
2020/01/31 23:50:52.2	175.110	-0.580	-0.950	1.550
2020/01/31 23:50:52.3	175.090	-0.550	-1.050	1.600
2020/01/31 23:50:52.4	175.070	-0.520	-1.140	1.650
2020/01/31 23:50:52.5	175.040	-0.480	-1.220	1.700
2020/01/31 23:50:52.6	175.020	-0.440	-1.300	1.740
2020/01/31 23:50:52.7	174.990	-0.390	-1.380	1.790
2020/01/31 23:50:52.8	174.960	-0.350	-1.440	1.830
2020/01/31 23:50:52.9	174.920	-0.300	-1.500	1.870
2020/01/31 23:50:53.0	174.900	-0.250	-1.540	1.900
2020/01/31 23:50:53.1	174.870	-0.190	-1.590	1.940
2020/01/31 23:50:53.2	174.840	-0.140	-1.620	1.970
2020/01/31 23:50:53.3	174.810	-0.090	-1.640	1.990
2020/01/31 23:50:53.4	174.780	-0.040	-1.660	2.020
2020/01/31 23:50:53.5	174.750	0.010	-1.670	2.040
2020/01/31 23:50:53.6	174.720	0.060	-1.660	2.050
2020/01/31 23:50:53.7	174.690	0.100	-1.650	2.070
2020/01/31 23:50:53.8	174.670	0.150	-1.630	2.080
2020/01/31 23:50:53.9	174.650	0.190	-1.600	2.080
2020/01/31 23:50:54.0	174.620	0.230	-1.570	2.090
2020/01/31 23:50:54.1	174.600	0.270	-1.520	2.090
2020/01/31 23:50:54.2	174.580	0.300	-1.470	2.080
2020/01/31 23:50:54.3	174.570	0.330	-1.410	2.080
2020/01/31 23:50:54.4	174.550	0.350	-1.350	2.070
2020/01/31 23:50:54.5	174.540	0.380	-1.280	2.060
2020/01/31 23:50:54.6	174.530	0.400	-1.200	2.050
2020/01/31 23:50:54.7	174.520	0.410	-1.120	2.030
2020/01/31 23:50:54.8	174.520	0.420	-1.040	2.010
2020/01/31 23:50:54.9	174.510	0.430	-0.950	1.990
2020/01/31 23:50:55.0	174.510	0.440	-0.860	1.970
2020/01/31 23:50:55.1	174.510	0.440	-0.770	1.940
2020/01/31 23:50:55.2	174.520	0.440	-0.680	1.910
2020/01/31 23:50:55.3	174.520	0.430	-0.580	1.880
2020/01/31 23:50:55.4	174.530	0.430	-0.490	1.840
2020/01/31 23:50:55.5	174.540	0.420	-0.400	1.810
2020/01/31 23:50:55.6	174.550	0.400	-0.310	1.770
2020/01/31 23:50:55.7	174.560	0.390	-0.220	1.720
2020/01/31 23:50:55.8	174.570	0.370	-0.130	1.680
2020/01/31 23:50:55.9	174.590	0.350	-0.050	1.630
2020/01/31 23:50:56.0	174.610	0.330	0.030	1.590
2020/01/31 23:50:56.1	174.620	0.310	0.110	1.540
2020/01/31 23:50:56.2	174.640	0.280	0.180	1.490
2020/01/31 23:50:56.3	174.660	0.260	0.250	1.450
2020/01/31 23:50:56.4	174.670	0.230	0.310	1.400
2020/01/31 23:50:56.5	174.690	0.210	0.370	1.360
2020/01/31 23:50:56.6	174.700	0.180	0.420	1.320
2020/01/31 23:50:56.7	174.720	0.150	0.470	1.280
2020/01/31 23:50:56.8	174.730	0.120	0.510	1.250
2020/01/31 23:50:56.9	174.740	0.090	0.540	1.220
2020/01/31 23:50:57.0	174.760	0.060	0.580	1.190
2020/01/31 23:50:57.1	174.780	0.030	0.600	1.170
2020/01/31 23:50:57.2	174.790	-0.010	0.630	1.160
2020/01/31 23:50:57.3	174.800	-0.040	0.640	1.150
2020/01/31 23:50:57.4	174.810	-0.070	0.660	1.150
2020/01/31 23:50:57.5	174.820	-0.110	0.670	1.150
2020/01/31 23:50:57.6	174.830	-0.140	0.670	1.160
2020/01/31 23:50:57.7	174.830	-0.170	0.680	1.180
2020/01/31 23:50:57.8	174.830	-0.210	0.680	1.210
2020/01/31 23:50:57.9	174.840	-0.240	0.670	1.240
2020/01/31 23:50:58.0	174.840	-0.270	0.660	1.270
2020/01/31 23:50:58.1	174.840	-0.310	0.660	1.320
2020/01/31 23:50:58.2	174.840	-0.340	0.650	1.360
2020/01/31 23:50:58.3	174.830	-0.370	0.630	1.410
2020/01/31 23:50:58.4	174.830	-0.400	0.620	1.470
2020/01/31 23:50:58.5	174.820	-0.430	0.600	1.530
2020/01/31 23:50:58.6	174.820	-0.460	0.580	1.590
2020/01/31 23:50:58.7	174.810	-0.490	0.560	1.650
2020/01/31 23:50:58.8	174.800	-0.520	0.540	1.720
2020/01/31 23:50:58.9	174.790	-0.540	0.520	1.790
2020/01/31 23:50:59.0	174.780	-0.560	0.500	1.860
2020/01/31 23:50:59.1	174.770	-0.580	0.480	1.920
2020/01/31 23:50:59.2	174.760	-0.600	0.460	1.980
2020/01/31 23:50:59.3	174.750	-0.610	0.440	2.050
2020/01/31 23:50:59.4	174.740	-0.620	0.410	2.100
2020/01/31 23:50:59.5	174.730	-0.630	0.390	2.160
2020/01/31 23:50:59.6	174.720	-0.630	0.370	2.210
2020/01/31 23:50:59.7	174.710	-0.630	0.340	2.260
2020/01/31 23:50:59.8	174.690	-0.620	0.320	2.300
2020/01/31 23:50:59.9	174.680	-0.620	0.290	2.340
2020/01/31 23:51:00.0	174.680	-0.600	0.270	2.370
2020/01/31 23:51:00.1	174.660	-0.580	0.240	2.400
2020/01/31 23:51:00.2	174.650	-0.560	0.210	2.430
2020/01/31 23:51:00.3	174.630	-0.530	0.170	2.450
2020/01/31 23:51:00.4	174.610	-0.500	0.140	2.460
2020/01/31 23:51:00.5	174.590	-0.470	0.100	2.480
2020/01/31 23:51:00.6	174.570	-0.430	0.060	2.490
2020/01/31 23:51:00.7	174.540	-0.380	0.010	2.490
2020/01/31 23:51:00.8	174.520	-0.330	-0.030	2.490
2020/01/31 23:51:00.9	174.490	-0.280	-0.080	2.490
2020/01/31 23:51:01.0	174.460	-0.230	-0.140	2.490
2020/01/31 23:51:01.1	174.430	-0.170	-0.190	2.490
2020/01/31 23:51:01.2	174.400	-0.110	-0.250	2.480
2020/01/31 23:51:01.3	174.370	-0.040	-0.300	2.460
2020/01/31 23:51:01.4	174.350	0.020	-0.360	2.450
2020/01/31 23:51:01.5	174.320	0.080	-0.420	2.430
2020/01/31 23:51:01.6	174.300	0.150	-0.480	2.410
2020/01/31 23:51:01.7	174.280	0.210	-0.540	2.390
2020/01/31 23:51:01.8	174.260	0.280	-0.600	2.360
2020/01/31 23:51:01.9	174.240	0.340	-0.650	2.330
2020/01/31 23:51:02.0	174.220	0.400	-0.710	2.290
2020/01/31 23:51:02.1	174.210	0.460	-0.760	2.260
2020/01/31 23:51:02.2	174.200	0.520	-0.810	2.220
2020/01/31 23:51:02.3	174.190	0.570	-0.850	2.170
2020/01/31 23:51:02.4	174.190	0.620	-0.890	2.130
2020/01/31 23:51:02.5	174.190	0.670	-0.930	2.080
2020/01/31 23:51:02.6	174.190	0.710	-0.960	2.030
2020/01/31 23:51:02.7	174.200	0.740	-0.990	1.980
2020/01/31 23:51:02.8	174.210	0.770	-1.010	1.930
2020/01/31 23:51:02.9	174.230	0.800	-1.030	1.870
2020/01/31 23:51:03.0	174.240	0.820	-1.040	1.820
2020/01/31 23:51:03.1	174.260	0.830	-1.050	1.760
2020/01/31 23:51:03.2	174.290	0.840	-1.040	1.700
2020/01/31 23:51:03.3	174.310	0.840	-1.030	1.640
2020/01/31 23:51:03.4	174.340	0.830	-1.020	1.580
2020/01/31 23:51:03.5	174.380	0.820	-0.990	1.520
2020/01/31 23:51:03.6	174.410	0.800	-0.970	1.460
2020/01/31 23:51:03.7	174.450	0.780	-0.930	1.400
2020/01/31 23:51:03.8	174.490	0.750	-0.890	1.340
2020/01/31 23:51:03.9	174.530	0.720	-0.850	1.290
2020/01/31 23:51:04.0	174.570	0.680	-0.800	1.230
2020/01/31 23:51:04.1	174.610	0.640	-0.740	1.170
2020/01/31 23:51:04.2	174.660	0.590	-0.690	1.120
2020/01/31 23:51:04.3	174.700	0.540	-0.630	1.070
2020/01/31 23:51:04.4	174.750	0.490	-0.570	1.020
2020/01/31 23:51:04.5	174.790	0.430	-0.510	0.980
2020/01/31 23:51:04.6	174.840	0.370	-0.460	0.940
2020/01/31 23:51:04.7	174.880	0.310	-0.400	0.900
2020/01/31 23:51:04.8	174.930	0.250	-0.340	0.860
2020/01/31 23:51:04.9	174.970	0.190	-0.290	0.830
2020/01/31 23:51:05.0	175.020	0.130	-0.240	0.810
2020/01/31 23:51:05.1	175.060	0.060	-0.190	0.790
2020/01/31 23:51:05.2	175.110	0.000	-0.150	0.770
2020/01/31 23:51:05.3	175.150	-0.060	-0.110	0.760
2020/01/31 23:51:05.4	175.190	-0.110	-0.070	0.750
2020/01/31 23:51:05.5	175.230	-0.170	-0.050	0.750
2020/01/31 23:51:05.6	175.270	-0.220	-0.020	0.750
2020/01/31 23:51:05.7	175.310	-0.270	-0.010	0.760
2020/01/31 23:51:05.8	175.350	-0.320	-0.000	0.770
2020/01/31 23:51:05.9	175.380	-0.360	-0.000	0.790
2020/01/31 23:51:06.0	175.410	-0.400	-0.000	0.810
2020/01/31 23:51:06.1	175.440	-0.430	-0.020	0.840
2020/01/31 23:51:06.2	175.470	-0.460	-0.030	0.870
2020/01/31 23:51:06.3	175.500	-0.480	-0.060	0.900
2020/01/31 23:51:06.4	175.530	-0.500	-0.080	0.930
2020/01/31 23:51:06.5	175.550	-0.510	-0.120	0.970
2020/01/31 23:51:06.6	175.570	-0.520	-0.150	1.010
2020/01/31 23:51:06.7	175.590	-0.530	-0.190	1.050
2020/01/31 23:51:06.8	175.600	-0.530	-0.230	1.090
2020/01/31 23:51:06.9	175.620	-0.530	-0.280	1.130
2020/01/31 23:51:07.0	175.640	-0.520	-0.320	1.180
2020/01/31 23:51:07.1	175.650	-0.510	-0.370	1.220
2020/01/31 23:51:07.2	175.650	-0.490	-0.410	1.260
2020/01/31 23:51:07.3	175.660	-0.470	-0.460	1.300
2020/01/31 23:51:07.4	175.660	-0.450	-0.500	1.350
2020/01/31 23:51:07.5	175.660	-0.420	-0.540	1.390
2020/01/31 23:51:07.6	175.660	-0.400	-0.580	1.430
2020/01/31 23:51:07.7	175.660	-0.360	-0.610	1.480
2020/01/31 23:51:07.8	175.660	-0.330	-0.640	1.520
2020/01/31 23:51:07.9	175.650	-0.300	-0.670	1.560
2020/01/31 23:51:08.0	175.640	-0.260	-0.690	1.610
2020/01/31 23:51:08.1	175.630	-0.230	-0.710	1.650
2020/01/31 23:51:08.2	175.620	-0.190	-0.730	1.690
2020/01/31 23:51:08.3	175.610	-0.160	-0.750	1.740
2020/01/31 23:51:08.4	175.590	-0.120	-0.760	1.780
2020/01/31 23:51:08.5	175.580	-0.090	-0.760	1.820
2020/01/31 23:51:08.6	175.560	-0.050	-0.770	1.860
2020/01/31 23:51:08.7	175.550	-0.020	-0.770	1.900
2020/01/31 23:51:08.8	175.530	0.020	-0.760	1.940
2020/01/31 23:51:08.9	175.510	0.050	-0.750	1.980
2020/01/31 23:51:09.0	175.480	0.080	-0.740	2.020
2020/01/31 23:51:09.1	175.460	0.100	-0.730	2.050
2020/01/31 23:51:09.2	175.430	0.130	-0.710	2.080
2020/01/31 23:51:09.3	175.410	0.150	-0.690	2.110
2020/01/31 23:51:09.4	175.380	0.170	-0.660	2.140
2020/01/31 23:51:09.5	175.360	0.190	-0.640	2.160
2020/01/31 23:51:09.6	175.330	0.200	-0.600	2.180
2020/01/31 23:51:09.7	175.310	0.210	-0.570	2.200
2020/01/31 23:51:09.8	175.280	0.220	-0.530	2.220
2020/01/31 23:51:09.9	175.260	0.220	-0.490	2.230
2020/01/31 23:51:10.0	175.250	0.220	-0.440	2.240
2020/01/31 23:51:10.1	175.230	0.220	-0.390	2.250
2020/01/31 23:51:10.2	175.210	0.210	-0.340	2.250
2020/01/31 23:51:10.3	175.200	0.200	-0.290	2.250
2020/01/31 23:51:10.4	175.190	0.180	-0.230	2.250
2020/01/31 23:51:10.5	175.190	0.160	-0.170	2.250
2020/01/31 23:51:10.6	175.190	0.140	-0.100	2.240
2020/01/31 23:51:10.7	175.190	0.110	-0.030	2.240
2020/01/31 23:51:10.8	175.200	0.080	0.040	2.230
2020/01/31 23:51:10.9	175.210	0.050	0.110	2.220
2020/01/31 23:51:11.0	175.230	0.020	0.180	2.200
2020/01/31 23:51:11.1	175.250	-0.010	0.260	2.190
2020/01/31 23:51:11.2	175.270	-0.050	0.330	2.180
2020/01/31 23:51:11.3	175.290	-0.090	0.410	2.160
2020/01/31 23:51:11.4	175.320	-0.130	0.480	2.140
2020/01/31 23:51:11.5	175.350	-0.170	0.560	2.120
2020/01/31 23:51:11.6	175.380	-0.210	0.630	2.100
2020/01/31 23:51:11.7	175.410	-0.250	0.700	2.070
2020/01/31 23:51:11.8	175.450	-0.280	0.770	2.050
2020/01/31 23:51:11.9	175.480	-0.320	0.840	2.020
2020/01/31 23:51:12.0	175.540	-0.350	0.900	1.990
2020/01/31 23:51:12.1	175.580	-0.390	0.950	1.960
2020/01/31 23:51:12.2	175.620	-0.420	1.000	1.920
2020/01/31 23:51:12.3	175.650	-0.440	1.040	1.880
2020/01/31 23:51:12.4	175.690	-0.470	1.070	1.840
2020/01/31 23:51:12.5	175.720	-0.490	1.100	1.810
2020/01/31 23:51:12.6	175.760	-0.500	1.110	1.770
2020/01/31 23:51:12.7	175.790	-0.510	1.120	1.730
2020/01/31 23:51:12.8	175.810	-0.520	1.110	1.690
2020/01/31 23:51:12.9	175.830	-0.520	1.090	1.650
2020/01/31 23:51:13.0	175.860	-0.520	1.070	1.610
2020/01/31 23:51:13.1	175.870	-0.510	1.030	1.570
2020/01/31 23:51:13.2	175.880	-0.490	0.980	1.530
2020/01/31 23:51:13.3	175.890	-0.470	0.920	1.500
2020/01/31 23:51:13.4	175.890	-0.450	0.850	1.470
2020/01/31 23:51:13.5	175.890	-0.420	0.770	1.440
2020/01/31 23:51:13.6	175.890	-0.380	0.680	1.420
2020/01/31 23:51:13.7	175.880	-0.340	0.580	1.390
2020/01/31 23:51:13.8	175.870	-0.290	0.480	1.380
2020/01/31 23:51:13.9	175.850	-0.240	0.360	1.360
2020/01/31 23:51:14.0	175.830	-0.180	0.240	1.350
2020/01/31 23:51:14.1	175.790	-0.120	0.120	1.340
2020/01/31 23:51:14.2	175.760	-0.060	-0.010	1.340
2020/01/31 23:51:14.3	175.730	0.010	-0.150	1.340
2020/01/31 23:51:14.4	175.700	0.080	-0.280	1.340
2020/01/31 23:51:14.5	175.670	0.150	-0.410	1.340
2020/01/31 23:51:14.6	175.630	0.220	-0.550	1.350
2020/01/31 23:51:14.7	175.590	0.290	-0.680	1.360
2020/01/31 23:51:14.8	175.560	0.360	-0.810	1.360
2020/01/31 23:51:14.9	175.520	0.430	-0.930	1.370
2020/01/31 23:51:15.0	175.480	0.490	-1.040	1.380
2020/01/31 23:51:15.1	175.450	0.560	-1.150	1.380
2020/01/31 23:51:15.2	175.420	0.620	-1.250	1.390
2020/01/31 23:51:15.3	175.390	0.670	-1.340	1.400
2020/01/31 23:51:15.4	175.360	0.720	-1.420	1.400
2020/01/31 23:51:15.5	175.340	0.770	-1.490	1.410
2020/01/31 23:51:15.6	175.320	0.810	-1.540	1.410
2020/01/31 23:51:15.7	175.310	0.840	-1.580	1.410
2020/01/31 23:51:15.8	175.300	0.860	-1.610	1.410
2020/01/31 23:51:15.9	175.290	0.880	-1.630	1.400
2020/01/31 23:51:16.0	175.300	0.890	-1.640	1.400
2020/01/31 23:51:16.1	175.300	0.890	-1.630	1.400
2020/01/31 23:51:16.2	175.310	0.890	-1.600	1.390
2020/01/31 23:51:16.3	175.320	0.880	-1.570	1.380
2020/01/31 23:51:16.4	175.340	0.850	-1.520	1.370
2020/01/31 23:51:16.5	175.360	0.830	-1.460	1.360
2020/01/31 23:51:16.6	175.390	0.790	-1.400	1.350
2020/01/31 23:51:16.7	175.420	0.750	-1.320	1.340
2020/01/31 23:51:16.8	175.450	0.700	-1.230	1.330
2020/01/31 23:51:16.9	175.490	0.640	-1.140	1.310
2020/01/31 23:51:17.0	175.540	0.580	-1.040	1.300
2020/01/31 23:51:17.1	175.580	0.510	-0.940	1.290
2020/01/31 23:51:17.2	175.630	0.440	-0.830	1.270
2020/01/31 23:51:17.3	175.680	0.370	-0.720	1.250
2020/01/31 23:51:17.4	175.730	0.290	-0.610	1.230
2020/01/31 23:51:17.5	175.780	0.210	-0.490	1.210
2020/01/31 23:51:17.6	175.830	0.130	-0.380	1.190
2020/01/31 23:51:17.7	175.890	0.040	-0.270	1.170
2020/01/31 23:51:17.8	175.940	-0.040	-0.160	1.150
2020/01/31 23:51:17.9	176.000	-0.130	-0.060	1.120
2020/01/31 23:51:18.0	176.060	-0.210	0.040	1.110
2020/01/31 23:51:18.1	176.120	-0.290	0.140	1.090
2020/01/31 23:51:18.2	176.170	-0.370	0.230	1.070
2020/01/31 23:51:18.3	176.230	-0.440	0.310	1.050
2020/01/31 23:51:18.4	176.290	-0.510	0.380	1.030
2020/01/31 23:51:18.5	176.340	-0.580	0.450	1.010
2020/01/31 23:51:18.6	176.400	-0.640	0.510	1.000
2020/01/31 23:51:18.7	176.450	-0.690	0.560	0.980
2020/01/31 23:51:18.8	176.500	-0.740	0.600	0.970
2020/01/31 23:51:18.9	176.550	-0.780	0.630	0.970
2020/01/31 23:51:19.0	176.600	-0.810	0.660	0.960
2020/01/31 23:51:19.1	176.640	-0.840	0.670	0.960
2020/01/31 23:51:19.2	176.680	-0.860	0.670	0.960
2020/01/31 23:51:19.3	176.710	-0.870	0.660	0.960
2020/01/31 23:51:19.4	176.740	-0.870	0.630	0.970
2020/01/31 23:51:19.5	176.770	-0.860	0.600	0.980
2020/01/31 23:51:19.6	176.790	-0.850	0.550	1.000
2020/01/31 23:51:19.7	176.810	-0.820	0.500	1.020
2020/01/31 23:51:19.8	176.820	-0.790	0.430	1.040
2020/01/31 23:51:19.9	176.820	-0.750	0.350	1.070
2020/01/31 23:51:20.0	176.820	-0.700	0.260	1.100
2020/01/31 23:51:20.1	176.820	-0.650	0.170	1.140
2020/01/31 23:51:20.2	176.820	-0.580	0.070	1.180
2020/01/31 23:51:20.3	176.800	-0.520	-0.040	1.220
2020/01/31 23:51:20.4	176.790	-0.440	-0.150	1.260
2020/01/31 23:51:20.5	176.770	-0.370	-0.270	1.300
2020/01/31 23:51:20.6	176.750	-0.290	-0.380	1.340
2020/01/31 23:51:20.7	176.730	-0.200	-0.500	1.390
2020/01/31 23:51:20.8	176.710	-0.120	-0.610	1.430
2020/01/31 23:51:20.9	176.680	-0.040	-0.720	1.470
2020/01/31 23:51:21.0	176.650	0.050	-0.830	1.520
2020/01/31 23:51:21.1	176.620	0.130	-0.920	1.560
2020/01/31 23:51:21.2	176.590	0.210	-1.010	1.600
2020/01/31 23:51:21.3	176.560	0.280	-1.100	1.640
2020/01/31 23:51:21.4	176.530	0.350	-1.170	1.680
2020/01/31 23:51:21.5	176.500	0.420	-1.230	1.720
2020/01/31 23:51:21.6	176.470	0.480	-1.280	1.760
2020/01/31 23:51:21.7	176.440	0.530	-1.320	1.800
2020/01/31 23:51:21.8	176.410	0.580	-1.350	1.840
2020/01/31 23:51:21.9	176.380	0.620	-1.360	1.880
2020/01/31 23:51:22.0	176.340	0.650	-1.370	1.920
2020/01/31 23:51:22.1	176.320	0.680	-1.360	1.950
2020/01/31 23:51:22.2	176.290	0.690	-1.340	1.990
2020/01/31 23:51:22.3	176.260	0.700	-1.300	2.030
2020/01/31 23:51:22.4	176.240	0.700	-1.260	2.070
2020/01/31 23:51:22.5	176.220	0.690	-1.200	2.100
2020/01/31 23:51:22.6	176.190	0.670	-1.140	2.140
2020/01/31 23:51:22.7	176.170	0.650	-1.060	2.180
2020/01/31 23:51:22.8	176.150	0.620	-0.970	2.220
2020/01/31 23:51:22.9	176.140	0.580	-0.880	2.250
2020/01/31 23:51:23.0	176.130	0.540	-0.780	2.280
2020/01/31 23:51:23.1	176.110	0.490	-0.670	2.320
2020/01/31 23:51:23.2	176.100	0.430	-0.560	2.350
2020/01/31 23:51:23.3	176.090	0.380	-0.440	2.370
2020/01/31 23:51:23.4	176.090	0.310	-0.320	2.400
2020/01/31 23:51:23.5	176.080	0.250	-0.200	2.420
2020/01/31 23:51:23.6	176.080	0.180	-0.070	2.430
2020/01/31 23:51:23.7	176.080	0.110	0.050	2.440
2020/01/31 23:51:23.8	176.080	0.040	0.180	2.450
2020/01/31 23:51:23.9	176.080	-0.030	0.300	2.450
2020/01/31 23:51:24.0	176.090	-0.100	0.420	2.440
2020/01/31 23:51:24.1	176.090	-0.170	0.530	2.430
2020/01/31 23:51:24.2	176.100	-0.230	0.640	2.420
2020/01/31 23:51:24.3	176.100	-0.290	0.740	2.400
2020/01/31 23:51:24.4	176.110	-0.350	0.840	2.370
2020/01/31 23:51:24.5	176.120	-0.400	0.920	2.350
2020/01/31 23:51:24.6	176.130	-0.450	1.000	2.320
2020/01/31 23:51:24.7	176.140	-0.500	1.070	2.290
2020/01/31 23:51:24.8	176.150	-0.540	1.130	2.250
2020/01/31 23:51:24.9	176.160	-0.570	1.180	2.210
2020/01/31 23:51:25.0	176.170	-0.600	1.220	2.180
2020/01/31 23:51:25.1	176.180	-0.620	1.250	2.140
2020/01/31 23:51:25.2	176.190	-0.640	1.270	2.100
2020/01/31 23:51:25.3	176.200	-0.650	1.280	2.060
2020/01/31 23:51:25.4	176.210	-0.650	1.280	2.020
2020/01/31 23:51:25.5	176.220	-0.650	1.270	1.990
2020/01/31 23:51:25.6	176.220	-0.650	1.240	1.950
2020/01/31 23:51:25.7	176.230	-0.630	1.210	1.910
2020/01/31 23:51:25.8	176.240	-0.620	1.170	1.880
2020/01/31 23:51:25.9	176.250	-0.590	1.110	1.840
2020/01/31 23:51:26.0	176.250	-0.570	1.050	1.810
2020/01/31 23:51:26.1	176.260	-0.540	0.980	1.780
2020/01/31 23:51:26.2	176.270	-0.500	0.900	1.740
2020/01/31 23:51:26.3	176.270	-0.460	0.820	1.710
2020/01/31 23:51:26.4	176.280	-0.420	0.730	1.680
2020/01/31 23:51:26.5	176.280	-0.370	0.630	1.650
2020/01/31 23:51:26.6	176.290	-0.330	0.520	1.630
2020/01/31 23:51:26.7	176.290	-0.270	0.420	1.600
2020/01/31 23:51:26.8	176.290	-0.220	0.310	1.570
2020/01/31 23:51:26.9	176.300	-0.170	0.190	1.550
2020/01/31 23:51:27.0	176.300	-0.110	0.080	1.520
2020/01/31 23:51:27.1	176.300	-0.060	-0.030	1.500
2020/01/31 23:51:27.2	176.300	-0.000	-0.150	1.470
2020/01/31 23:51:27.3	176.290	0.050	-0.260	1.450
2020/01/31 23:51:27.4	176.290	0.110	-0.370	1.430
2020/01/31 23:51:27.5	176.280	0.160	-0.480	1.410
2020/01/31 23:51:27.6	176.270	0.220	-0.590	1.390
2020/01/31 23:51:27.7	176.260	0.270	-0.690	1.380
2020/01/31 23:51:27.8	176.240	0.320	-0.790	1.360
2020/01/31 23:51:27.9	176.220	0.370	-0.880	1.350
2020/01/31 23:51:28.0	176.220	0.410	-0.970	1.350
2020/01/31 23:51:28.1	176.190	0.460	-1.060	1.340
2020/01/31 23:51:28.2	176.170	0.500	-1.130	1.340
2020/01/31 23:51:28.3	176.150	0.530	-1.200	1.330
2020/01/31 23:51:28.4	176.120	0.570	-1.270	1.330
2020/01/31 23:51:28.5	176.090	0.600	-1.330	1.340
2020/01/31 23:51:28.6	176.060	0.620	-1.380	1.340
2020/01/31 23:51:28.7	176.040	0.640	-1.420	1.350
2020/01/31 23:51:28.8	176.010	0.660	-1.460	1.360
2020/01/31 23:51:28.9	175.980	0.670	-1.490	1.370
2020/01/31 23:51:29.0	175.940	0.680	-1.510	1.380
2020/01/31 23:51:29.1	175.910	0.690	-1.520	1.390
2020/01/31 23:51:29.2	175.890	0.690	-1.530	1.410
2020/01/31 23:51:29.3	175.860	0.690	-1.530	1.420
2020/01/31 23:51:29.4	175.840	0.680	-1.520	1.440
2020/01/31 23:51:29.5	175.820	0.660	-1.510	1.460
2020/01/31 23:51:29.6	175.810	0.650	-1.490	1.480
2020/01/31 23:51:29.7	175.800	0.620	-1.460	1.490
2020/01/31 23:51:29.8	175.790	0.600	-1.420	1.510
2020/01/31 23:51:29.9	175.780	0.570	-1.380	1.520
2020/01/31 23:51:30.0	175.760	0.540	-1.330	1.540
2020/01/31 23:51:30.1	175.760	0.500	-1.280	1.550
2020/01/31 23:51:30.2	175.770	0.460	-1.220	1.570
2020/01/31 23:51:30.3	175.770	0.420	-1.150	1.580
2020/01/31 23:51:30.4	175.780	0.370	-1.080	1.590
2020/01/31 23:51:30.5	175.790	0.330	-1.000	1.600
2020/01/31 23:51:30.6	175.810	0.280	-0.920	1.610
2020/01/31 23:51:30.7	175.820	0.230	-0.840	1.610
2020/01/31 23:51:30.8	175.840	0.170	-0.750	1.620
2020/01/31 23:51:30.9	175.860	0.120	-0.670	1.630
2020/01/31 23:51:31.0	175.880	0.070	-0.580	1.640
2020/01/31 23:51:31.1	175.900	0.010	-0.500	1.640
2020/01/31 23:51:31.2	175.920	-0.040	-0.410	1.650
2020/01/31 23:51:31.3	175.940	-0.090	-0.330	1.660
2020/01/31 23:51:31.4	175.960	-0.140	-0.250	1.660
2020/01/31 23:51:31.5	175.980	-0.190	-0.180	1.670
2020/01/31 23:51:31.6	176.000	-0.240	-0.110	1.680
2020/01/31 23:51:31.7	176.010	-0.280	-0.040	1.690
2020/01/31 23:51:31.8	176.030	-0.320	0.020	1.710
2020/01/31 23:51:31.9	176.040	-0.360	0.070	1.720
2020/01/31 23:51:32.0	176.050	-0.400	0.120	1.730
2020/01/31 23:51:32.1	176.070	-0.430	0.160	1.750
2020/01/31 23:51:32.2	176.070	-0.460	0.190	1.760
2020/01/31 23:51:32.3	176.080	-0.480	0.220	1.780
2020/01/31 23:51:32.4	176.090	-0.500	0.240	1.800
2020/01/31 23:51:32.5	176.090	-0.520	0.260	1.810
2020/01/31 23:51:32.6	176.100	-0.530	0.260	1.830
2020/01/31 23:51:32.7	176.100	-0.540	0.270	1.850
2020/01/31 23:51:32.8	176.090	-0.550	0.260	1.870
2020/01/31 23:51:32.9	176.090	-0.550	0.250	1.890
2020/01/31 23:51:33.0	176.080	-0.550	0.240	1.920
2020/01/31 23:51:33.1	176.070	-0.540	0.220	1.940
2020/01/31 23:51:33.2	176.060	-0.540	0.200	1.960
2020/01/31 23:51:33.3	176.050	-0.520	0.180	1.980
2020/01/31 23:51:33.4	176.040	-0.510	0.150	2.000
2020/01/31 23:51:33.5	176.030	-0.490	0.130	2.010
2020/01/31 23:51:33.6	176.010	-0.470	0.100	2.030
2020/01/31 23:51:33.7	176.000	-0.450	0.080	2.040
2020/01/31 23:51:33.8	175.980	-0.420	0.050	2.060
2020/01/31 23:51:33.9	175.970	-0.390	0.030	2.070
2020/01/31 23:51:34.0	175.940	-0.370	0.010	2.080
2020/01/31 23:51:34.1	175.930	-0.330	-0.010	2.090
2020/01/31 23:51:34.2	175.910	-0.300	-0.030	2.090
2020/01/31 23:51:34.3	175.890	-0.270	-0.050	2.100
2020/01/31 23:51:34.4	175.880	-0.240	-0.060	2.100
2020/01/31 23:51:34.5	175.860	-0.200	-0.070	2.100
2020/01/31 23:51:34.6	175.840	-0.170	-0.080	2.100
2020/01/31 23:51:34.7	175.830	-0.130	-0.080	2.090
2020/01/31 23:51:34.8	175.810	-0.100	-0.080	2.080
2020/01/31 23:51:34.9	175.800	-0.070	-0.070	2.070
2020/01/31 23:51:35.0	175.780	-0.040	-0.060	2.060
2020/01/31 23:51:35.1	175.770	-0.010	-0.060	2.040
2020/01/31 23:51:35.2	175.760	0.020	-0.040	2.030
2020/01/31 23:51:35.3	175.750	0.050	-0.030	2.010
2020/01/31 23:51:35.4	175.740	0.070	-0.010	1.980
2020/01/31 23:51:35.5	175.730	0.090	0.010	1.960
2020/01/31 23:51:35.6	175.720	0.110	0.040	1.930
2020/01/31 23:51:35.7	175.720	0.130	0.060	1.910
2020/01/31 23:51:35.8	175.710	0.150	0.080	1.880
2020/01/31 23:51:35.9	175.710	0.160	0.110	1.850
2020/01/31 23:51:36.0	175.710	0.170	0.130	1.820
2020/01/31 23:51:36.1	175.700	0.170	0.160	1.790
2020/01/31 23:51:36.2	175.700	0.180	0.180	1.760
2020/01/31 23:51:36.3	175.700	0.180	0.210	1.730
2020/01/31 23:51:36.4	175.700	0.180	0.230	1.700
2020/01/31 23:51:36.5	175.700	0.180	0.250	1.680
2020/01/31 23:51:36.6	175.710	0.170	0.270	1.650
2020/01/31 23:51:36.7	175.710	0.170	0.290	1.630
2020/01/31 23:51:36.8	175.710	0.160	0.300	1.610
2020/01/31 23:51:36.9	175.710	0.150	0.310	1.590
2020/01/31 23:51:37.0	175.720	0.140	0.320	1.570
2020/01/31 23:51:37.1	175.720	0.130	0.330	1.560
2020/01/31 23:51:37.2	175.720	0.120	0.330	1.540
2020/01/31 23:51:37.3	175.720	0.110	0.320	1.530
2020/01/31 23:51:37.4	175.720	0.090	0.320	1.520
2020/01/31 23:51:37.5	175.720	0.080	0.300	1.520
2020/01/31 23:51:37.6	175.720	0.070	0.290	1.510
2020/01/31 23:51:37.7	175.710	0.060	0.270	1.510
2020/01/31 23:51:37.8	175.710	0.060	0.240	1.500
2020/01/31 23:51:37.9	175.700	0.050	0.210	1.500
2020/01/31 23:51:38.0	175.690	0.040	0.180	1.500
2020/01/31 23:51:38.1	175.670	0.040	0.140	1.500
2020/01/31 23:51:38.2	175.660	0.040	0.100	1.510
2020/01/31 23:51:38.3	175.640	0.040	0.060	1.510
2020/01/31 23:51:38.4	175.630	0.040	0.010	1.520
2020/01/31 23:51:38.5	175.610	0.050	-0.040	1.520
2020/01/31 23:51:38.6	175.590	0.050	-0.100	1.530
2020/01/31 23:51:38.7	175.570	0.060	-0.150	1.540
2020/01/31 23:51:38.8	175.550	0.070	-0.210	1.550
2020/01/31 23:51:38.9	175.530	0.090	-0.270	1.560
2020/01/31 23:51:39.0	175.510	0.100	-0.330	1.570
2020/01/31 23:51:39.1	175.480	0.120	-0.390	1.580
2020/01/31 23:51:39.2	175.460	0.140	-0.450	1.590
2020/01/31 23:51:39.3	175.430	0.170	-0.510	1.610
2020/01/31 23:51:39.4	175.400	0.190	-0.560	1.620
2020/01/31 23:51:39.5	175.370	0.210	-0.620	1.630
2020/01/31 23:51:39.6	175.340	0.240	-0.670	1.650
2020/01/31 23:51:39.7	175.310	0.270	-0.720	1.670
2020/01/31 23:51:39.8	175.280	0.290	-0.770	1.680
2020/01/31 23:51:39.9	175.250	0.320	-0.820	1.700
2020/01/31 23:51:40.0	175.210	0.350	-0.860	1.720
2020/01/31 23:51:40.1	175.180	0.370	-0.900	1.730
2020/01/31 23:51:40.2	175.150	0.400	-0.930	1.750
2020/01/31 23:51:40.3	175.120	0.420	-0.950	1.760
2020/01/31 23:51:40.4	175.100	0.440	-0.980	1.770
2020/01/31 23:51:40.5	175.070	0.460	-0.990	1.780
2020/01/31 23:51:40.6	175.050	0.470	-1.000	1.790
2020/01/31 23:51:40.7	175.030	0.480	-1.000	1.800
2020/01/31 23:51:40.8	175.020	0.490	-1.000	1.810
2020/01/31 23:51:40.9	175.000	0.500	-0.990	1.810
2020/01/31 23:51:41.0	174.980	0.500	-0.980	1.810
2020/01/31 23:51:41.1	174.970	0.490	-0.960	1.820
2020/01/31 23:51:41.2	174.970	0.480	-0.930	1.820
2020/01/31 23:51:41.3	174.960	0.470	-0.900	1.820
2020/01/31 23:51:41.4	174.960	0.460	-0.870	1.820
2020/01/31 23:51:41.5	174.950	0.430	-0.830	1.820
2020/01/31 23:51:41.6	174.950	0.410	-0.780	1.820
2020/01/31 23:51:41.7	174.950	0.380	-0.740	1.820
2020/01/31 23:51:41.8	174.950	0.350	-0.690	1.820
2020/01/31 23:51:41.9	174.950	0.310	-0.640	1.820
2020/01/31 23:51:42.0	174.950	0.270	-0.590	1.820
2020/01/31 23:51:42.1	174.950	0.230	-0.540	1.810
2020/01/31 23:51:42.2	174.950	0.190	-0.490	1.810
2020/01/31 23:51:42.3	174.950	0.140	-0.440	1.800
2020/01/31 23:51:42.4	174.950	0.090	-0.390	1.800
2020/01/31 23:51:42.5	174.960	0.040	-0.350	1.800
2020/01/31 23:51:42.6	174.960	-0.010	-0.300	1.790
2020/01/31 23:51:42.7	174.960	-0.050	-0.260	1.780
2020/01/31 23:51:42.8	174.950	-0.100	-0.220	1.780
2020/01/31 23:51:42.9	174.950	-0.150	-0.190	1.770
2020/01/31 23:51:43.0	174.950	-0.190	-0.160	1.770
2020/01/31 23:51:43.1	174.950	-0.240	-0.130	1.760
2020/01/31 23:51:43.2	174.940	-0.280	-0.110	1.750
2020/01/31 23:51:43.3	174.940	-0.320	-0.090	1.740
2020/01/31 23:51:43.4	174.940	-0.350	-0.070	1.730
2020/01/31 23:51:43.5	174.940	-0.390	-0.060	1.720
2020/01/31 23:51:43.6	174.930	-0.410	-0.060	1.720
2020/01/31 23:51:43.7	174.930	-0.440	-0.060	1.710
2020/01/31 23:51:43.8	174.930	-0.460	-0.060	1.700
2020/01/31 23:51:43.9	174.920	-0.470	-0.060	1.700
2020/01/31 23:51:44.0	174.930	-0.480	-0.070	1.690
2020/01/31 23:51:44.1	174.920	-0.490	-0.080	1.690
2020/01/31 23:51:44.2	174.920	-0.490	-0.100	1.680
2020/01/31 23:51:44.3	174.920	-0.490	-0.120	1.680
2020/01/31 23:51:44.4	174.910	-0.480	-0.140	1.670
2020/01/31 23:51:44.5	174.910	-0.470	-0.160	1.660
2020/01/31 23:51:44.6	174.910	-0.450	-0.180	1.650
2020/01/31 23:51:44.7	174.910	-0.430	-0.200	1.640
2020/01/31 23:51:44.8	174.910	-0.410	-0.220	1.630
2020/01/31 23:51:44.9	174.910	-0.390	-0.240	1.620
2020/01/31 23:51:45.0	174.910	-0.360	-0.270	1.600
2020/01/31 23:51:45.1	174.920	-0.330	-0.290	1.590
2020/01/31 23:51:45.2	174.920	-0.290	-0.310	1.570
2020/01/31 23:51:45.3	174.920	-0.260	-0.320	1.550
2020/01/31 23:51:45.4	174.920	-0.220	-0.340	1.540
2020/01/31 23:51:45.5	174.920	-0.190	-0.350	1.520
2020/01/31 23:51:45.6	174.920	-0.150	-0.360	1.500
2020/01/31 23:51:45.7	174.920	-0.120	-0.370	1.480
2020/01/31 23:51:45.8	174.920	-0.080	-0.380	1.470
2020/01/31 23:51:45.9	174.920	-0.040	-0.390	1.450
2020/01/31 23:51:46.0	174.910	-0.010	-0.390	1.430
2020/01/31 23:51:46.1	174.910	0.020	-0.390	1.420
2020/01/31 23:51:46.2	174.900	0.050	-0.390	1.400
2020/01/31 23:51:46.3	174.900	0.080	-0.390	1.390
2020/01/31 23:51:46.4	174.890	0.110	-0.380	1.380
2020/01/31 23:51:46.5	174.880	0.130	-0.380	1.380
2020/01/31 23:51:46.6	174.870	0.150	-0.370	1.370
2020/01/31 23:51:46.7	174.860	0.170	-0.360	1.360
2020/01/31 23:51:46.8	174.860	0.190	-0.360	1.360
2020/01/31 23:51:46.9	174.850	0.200	-0.350	1.360
2020/01/31 23:51:47.0	174.830	0.210	-0.330	1.360
2020/01/31 23:51:47.1	174.820	0.220	-0.320	1.370
2020/01/31 23:51:47.2	174.800	0.220	-0.310	1.370
2020/01/31 23:51:47.3	174.790	0.220	-0.300	1.370
2020/01/31 23:51:47.4	174.780	0.220	-0.280	1.380
2020/01/31 23:51:47.5	174.760	0.210	-0.270	1.390
2020/01/31 23:51:47.6	174.750	0.200	-0.260	1.400
2020/01/31 23:51:47.7	174.730	0.190	-0.250	1.410
2020/01/31 23:51:47.8	174.710	0.180	-0.240	1.420
2020/01/31 23:51:47.9	174.700	0.160	-0.230	1.440
2020/01/31 23:51:48.0	174.680	0.140	-0.220	1.460
2020/01/31 23:51:48.1	174.660	0.120	-0.220	1.470
2020/01/31 23:51:48.2	174.640	0.100	-0.210	1.490
2020/01/31 23:51:48.3	174.620	0.070	-0.200	1.520
2020/01/31 23:51:48.4	174.600	0.050	-0.200	1.540
2020/01/31 23:51:48.5	174.580	0.020	-0.190	1.570
2020/01/31 23:51:48.6	174.560	-0.010	-0.180	1.590
2020/01/31 23:51:48.7	174.540	-0.040	-0.180	1.620
2020/01/31 23:51:48.8	174.530	-0.070	-0.170	1.650
2020/01/31 23:51:48.9	174.510	-0.100	-0.160	1.680
2020/01/31 23:51:49.0	174.500	-0.140	-0.150	1.720
2020/01/31 23:51:49.1	174.490	-0.170	-0.140	1.750
2020/01/31 23:51:49.2	174.480	-0.200	-0.120	1.780
2020/01/31 23:51:49.3	174.480	-0.240	-0.110	1.810
2020/01/31 23:51:49.4	174.480	-0.270	-0.090	1.850
2020/01/31 23:51:49.5	174.470	-0.300	-0.080	1.880
2020/01/31 23:51:49.6	174.480	-0.340	-0.060	1.920
2020/01/31 23:51:49.7	174.480	-0.370	-0.030	1.960
2020/01/31 23:51:49.8	174.490	-0.400	-0.010	1.990
2020/01/31 23:51:49.9	174.490	-0.430	0.010	2.030
2020/01/31 23:51:50.0	174.510	-0.450	0.040	2.060
2020/01/31 23:51:50.1	174.520	-0.480	0.070	2.090
2020/01/31 23:51:50.2	174.530	-0.500	0.090	2.130
2020/01/31 23:51:50.3	174.540	-0.520	0.120	2.160
2020/01/31 23:51:50.4	174.560	-0.540	0.150	2.190
2020/01/31 23:51:50.5	174.570	-0.560	0.180	2.230
2020/01/31 23:51:50.6	174.580	-0.570	0.200	2.260
2020/01/31 23:51:50.7	174.600	-0.580	0.230	2.280
2020/01/31 23:51:50.8	174.610	-0.580	0.250	2.310
2020/01/31 23:51:50.9	174.630	-0.580	0.270	2.330
2020/01/31 23:51:51.0	174.630	-0.580	0.290	2.360
2020/01/31 23:51:51.1	174.650	-0.570	0.310	2.380
2020/01/31 23:51:51.2	174.660	-0.560	0.320	2.390
2020/01/31 23:51:51.3	174.670	-0.540	0.330	2.400
2020/01/31 23:51:51.4	174.680	-0.520	0.330	2.410
2020/01/31 23:51:51.5	174.690	-0.490	0.330	2.420
2020/01/31 23:51:51.6	174.690	-0.460	0.320	2.420
2020/01/31 23:51:51.7	174.700	-0.420	0.310	2.420
2020/01/31 23:51:51.8	174.700	-0.380	0.290	2.410
2020/01/31 23:51:51.9	174.710	-0.340	0.270	2.400
2020/01/31 23:51:52.0	174.710	-0.290	0.250	2.380
2020/01/31 23:51:52.1	174.720	-0.240	0.210	2.360
2020/01/31 23:51:52.2	174.720	-0.180	0.180	2.330
2020/01/31 23:51:52.3	174.720	-0.120	0.140	2.300
2020/01/31 23:51:52.4	174.710	-0.060	0.090	2.270
2020/01/31 23:51:52.5	174.710	0.010	0.050	2.230
2020/01/31 23:51:52.6	174.710	0.070	-0.000	2.190
2020/01/31 23:51:52.7	174.700	0.140	-0.060	2.150
2020/01/31 23:51:52.8	174.690	0.210	-0.110	2.110
2020/01/31 23:51:52.9	174.680	0.270	-0.170	2.070
2020/01/31 23:51:53.0	174.670	0.340	-0.220	2.030
2020/01/31 23:51:53.1	174.660	0.410	-0.270	1.990
2020/01/31 23:51:53.2	174.650	0.470	-0.330	1.950
2020/01/31 23:51:53.3	174.640	0.540	-0.380	1.910
2020/01/31 23:51:53.4	174.630	0.600	-0.430	1.870
2020/01/31 23:51:53.5	174.610	0.650	-0.480	1.840
2020/01/31 23:51:53.6	174.600	0.710	-0.530	1.810
2020/01/31 23:51:53.7	174.590	0.760	-0.570	1.770
2020/01/31 23:51:53.8	174.580	0.800	-0.610	1.740
2020/01/31 23:51:53.9	174.570	0.840	-0.640	1.710
2020/01/31 23:51:54.0	174.560	0.880	-0.670	1.670
2020/01/31 23:51:54.1	174.550	0.910	-0.700	1.640
2020/01/31 23:51:54.2	174.540	0.930	-0.720	1.600
2020/01/31 23:51:54.3	174.540	0.950	-0.730	1.570
2020/01/31 23:51:54.4	174.530	0.960	-0.740	1.530
2020/01/31 23:51:54.5	174.530	0.970	-0.750	1.500
2020/01/31 23:51:54.6	174.530	0.970	-0.740	1.460
2020/01/31 23:51:54.7	174.540	0.960	-0.740	1.420
2020/01/31 23:51:54.8	174.540	0.950	-0.720	1.380
2020/01/31 23:51:54.9	174.550	0.930	-0.700	1.340
2020/01/31 23:51:55.0	174.560	0.900	-0.680	1.290
2020/01/31 23:51:55.1	174.570	0.870	-0.650	1.250
2020/01/31 23:51:55.2	174.590	0.840	-0.620	1.210
2020/01/31 23:51:55.3	174.610	0.790	-0.590	1.170
2020/01/31 23:51:55.4	174.630	0.750	-0.550	1.130
2020/01/31 23:51:55.5	174.650	0.690	-0.500	1.100
2020/01/31 23:51:55.6	174.670	0.640	-0.460	1.060
2020/01/31 23:51:55.7	174.700	0.580	-0.410	1.030
2020/01/31 23:51:55.8	174.720	0.510	-0.360	1.000
2020/01/31 23:51:55.9	174.750	0.450	-0.310	0.970
2020/01/31 23:51:56.0	174.800	0.380	-0.260	0.940
2020/01/31 23:51:56.1	174.830	0.300	-0.210	0.920
2020/01/31 23:51:56.2	174.860	0.230	-0.170	0.900
2020/01/31 23:51:56.3	174.890	0.160	-0.120	0.890
2020/01/31 23:51:56.4	174.920	0.080	-0.080	0.890
2020/01/31 23:51:56.5	174.950	0.010	-0.040	0.880
2020/01/31 23:51:56.6	174.980	-0.060	-0.000	0.890
2020/01/31 23:51:56.7	175.000	-0.130	0.030	0.900
2020/01/31 23:51:56.8	175.030	-0.200	0.060	0.910
2020/01/31 23:51:56.9	175.050	-0.270	0.080	0.930
2020/01/31 23:51:57.0	175.060	-0.330	0.090	0.960
2020/01/31 23:51:57.1	175.080	-0.390	0.100	1.000
2020/01/31 23:51:57.2	175.090	-0.440	0.110	1.030
2020/01/31 23:51:57.3	175.110	-0.490	0.110	1.080
2020/01/31 23:51:57.4	175.120	-0.540	0.100	1.120
2020/01/31 23:51:57.5	175.130	-0.580	0.080	1.170
2020/01/31 23:51:57.6	175.130	-0.610	0.060	1.230
2020/01/31 23:51:57.7	175.140	-0.640	0.030	1.280
2020/01/31 23:51:57.8	175.140	-0.660	-0.000	1.340
2020/01/31 23:51:57.9	175.140	-0.680	-0.040	1.400
2020/01/31 23:51:58.0	175.130	-0.690	-0.090	1.460
2020/01/31 23:51:58.1	175.120	-0.690	-0.140	1.520
2020/01/31 23:51:58.2	175.110	-0.690	-0.200	1.580
2020/01/31 23:51:58.3	175.100	-0.680	-0.260	1.640
2020/01/31 23:51:58.4	175.090	-0.660	-0.320	1.690
2020/01/31 23:51:58.5	175.080	-0.640	-0.390	1.750
2020/01/31 23:51:58.6	175.060	-0.620	-0.460	1.800
2020/01/31 23:51:58.7	175.040	-0.590	-0.530	1.860
2020/01/31 23:51:58.8	175.020	-0.550	-0.590	1.910
2020/01/31 23:51:58.9	175.000	-0.510	-0.660	1.950
2020/01/31 23:51:59.0	174.980	-0.470	-0.730	2.000
2020/01/31 23:51:59.1	174.960	-0.420	-0.790	2.040
2020/01/31 23:51:59.2	174.930	-0.370	-0.850	2.080
2020/01/31 23:51:59.3	174.910	-0.320	-0.910	2.120
2020/01/31 23:51:59.4	174.880	-0.270	-0.960	2.150
2020/01/31 23:51:59.5	174.860	-0.210	-1.010	2.180
2020/01/31 23:51:59.6	174.830	-0.160	-1.050	2.200
2020/01/31 23:51:59.7	174.800	-0.100	-1.080	2.230
2020/01/31 23:51:59.8	174.780	-0.050	-1.100	2.250
2020/01/31 23:51:59.9	174.750	0.010	-1.120	2.270
2020/01/31 23:52:00.0	174.710	0.060	-1.130	2.280
2020/01/31 23:52:00.1	174.690	0.110	-1.140	2.290
2020/01/31 23:52:00.2	174.660	0.150	-1.130	2.300
2020/01/31 23:52:00.3	174.630	0.200	-1.120	2.310
2020/01/31 23:52:00.4	174.610	0.240	-1.090	2.320
2020/01/31 23:52:00.5	174.590	0.270	-1.070	2.320
2020/01/31 23:52:00.6	174.570	0.310	-1.030	2.320
2020/01/31 23:52:00.7	174.540	0.330	-0.990	2.320
2020/01/31 23:52:00.8	174.530	0.360	-0.940	2.310
2020/01/31 23:52:00.9	174.510	0.380	-0.880	2.300
2020/01/31 23:52:01.0	174.480	0.390	-0.820	2.290
2020/01/31 23:52:01.1	174.460	0.400	-0.750	2.270
2020/01/31 23:52:01.2	174.450	0.400	-0.680	2.260
2020/01/31 23:52:01.3	174.440	0.400	-0.610	2.240
2020/01/31 23:52:01.4	174.440	0.390	-0.530	2.210
2020/01/31 23:52:01.5	174.430	0.380	-0.450	2.190
2020/01/31 23:52:01.6	174.430	0.370	-0.360	2.160
2020/01/31 23:52:01.7	174.430	0.350	-0.270	2.130
2020/01/31 23:52:01.8	174.430	0.330	-0.190	2.090
2020/01/31 23:52:01.9	174.430	0.300	-0.100	2.060
2020/01/31 23:52:02.0	174.450	0.270	-0.010	2.010
2020/01/31 23:52:02.1	174.460	0.240	0.070	1.980
2020/01/31 23:52:02.2	174.470	0.200	0.160	1.940
2020/01/31 23:52:02.3	174.470	0.160	0.240	1.900
2020/01/31 23:52:02.4	174.480	0.120	0.310	1.870
2020/01/31 23:52:02.5	174.490	0.080	0.380	1.830
2020/01/31 23:52:02.6	174.500	0.030	0.450	1.800
2020/01/31 23:52:02.7	174.500	-0.010	0.510	1.770
2020/01/31 23:52:02.8	174.510	-0.050	0.560	1.740
2020/01/31 23:52:02.9	174.510	-0.100	0.600	1.720
2020/01/31 23:52:03.0	174.520	-0.140	0.630	1.700
2020/01/31 23:52:03.1	174.520	-0.180	0.660	1.690
2020/01/31 23:52:03.2	174.520	-0.220	0.680	1.680
2020/01/31 23:52:03.3	174.510	-0.260	0.690	1.670
2020/01/31 23:52:03.4	174.510	-0.290	0.690	1.670
2020/01/31 23:52:03.5	174.500	-0.330	0.680	1.680
2020/01/31 23:52:03.6	174.490	-0.360	0.660	1.690
2020/01/31 23:52:03.7	174.470	-0.380	0.630	1.700
2020/01/31 23:52:03.8	174.460	-0.410	0.600	1.720
2020/01/31 23:52:03.9	174.440	-0.430	0.550	1.740
2020/01/31 23:52:04.0	174.440	-0.440	0.510	1.760
2020/01/31 23:52:04.1	174.420	-0.460	0.450	1.790
2020/01/31 23:52:04.2	174.400	-0.460	0.390	1.810
2020/01/31 23:52:04.3	174.380	-0.470	0.330	1.840
2020/01/31 23:52:04.4	174.350	-0.470	0.260	1.870
2020/01/31 23:52:04.5	174.330	-0.470	0.190	1.900
2020/01/31 23:52:04.6	174.310	-0.470	0.120	1.930
2020/01/31 23:52:04.7	174.290	-0.460	0.040	1.960
2020/01/31 23:52:04.8	174.260	-0.450	-0.030	1.980
2020/01/31 23:52:04.9	174.240	-0.440	-0.100	2.010
2020/01/31 23:52:05.0	174.220	-0.420	-0.180	2.030
2020/01/31 23:52:05.1	174.200	-0.400	-0.240	2.050
2020/01/31 23:52:05.2	174.180	-0.380	-0.300	2.070
2020/01/31 23:52:05.3	174.160	-0.360	-0.360	2.090
2020/01/31 23:52:05.4	174.150	-0.340	-0.410	2.100
2020/01/31 23:52:05.5	174.130	-0.320	-0.450	2.110
2020/01/31 23:52:05.6	174.120	-0.290	-0.490	2.110
2020/01/31 23:52:05.7	174.110	-0.270	-0.520	2.110
2020/01/31 23:52:05.8	174.100	-0.240	-0.540	2.110
2020/01/31 23:52:05.9	174.100	-0.220	-0.550	2.100
2020/01/31 23:52:06.0	174.100	-0.190	-0.560	2.090
2020/01/31 23:52:06.1	174.100	-0.170	-0.560	2.070
2020/01/31 23:52:06.2	174.100	-0.140	-0.550	2.050
2020/01/31 23:52:06.3	174.110	-0.120	-0.530	2.020
2020/01/31 23:52:06.4	174.110	-0.090	-0.510	2.000
2020/01/31 23:52:06.5	174.120	-0.070	-0.480	1.960
2020/01/31 23:52:06.6	174.130	-0.050	-0.440	1.930
2020/01/31 23:52:06.7	174.140	-0.030	-0.410	1.890
2020/01/31 23:52:06.8	174.160	-0.020	-0.360	1.850
2020/01/31 23:52:06.9	174.170	0.000	-0.320	1.800
2020/01/31 23:52:07.0	174.180	0.020	-0.270	1.760
2020/01/31 23:52:07.1	174.200	0.030	-0.220	1.710
2020/01/31 23:52:07.2	174.210	0.040	-0.180	1.660
2020/01/31 23:52:07.3	174.230	0.060	-0.130	1.610
2020/01/31 23:52:07.4	174.250	0.070	-0.090	1.560
2020/01/31 23:52:07.5	174.260	0.080	-0.040	1.510
2020/01/31 23:52:07.6	174.280	0.090	-0.000	1.460
2020/01/31 23:52:07.7	174.290	0.100	0.030	1.410
2020/01/31 23:52:07.8	174.310	0.110	0.060	1.360
2020/01/31 23:52:07.9	174.320	0.110	0.080	1.310
2020/01/31 23:52:08.0	174.330	0.120	0.100	1.260
2020/01/31 23:52:08.1	174.340	0.130	0.110	1.220
2020/01/31 23:52:08.2	174.350	0.140	0.110	1.180
2020/01/31 23:52:08.3	174.360	0.150	0.110	1.150
2020/01/31 23:52:08.4	174.360	0.160	0.090	1.120
2020/01/31 23:52:08.5	174.360	0.170	0.070	1.090
2020/01/31 23:52:08.6	174.360	0.180	0.040	1.070
2020/01/31 23:52:08.7	174.360	0.190	0.010	1.050
2020/01/31 23:52:08.8	174.350	0.200	-0.040	1.030
2020/01/31 23:52:08.9	174.340	0.210	-0.090	1.020
2020/01/31 23:52:09.0	174.330	0.230	-0.140	1.010
2020/01/31 23:52:09.1	174.310	0.240	-0.200	1.010
2020/01/31 23:52:09.2	174.300	0.250	-0.270	1.000
2020/01/31 23:52:09.3	174.290	0.270	-0.340	1.000
2020/01/31 23:52:09.4	174.280	0.280	-0.400	1.000
2020/01/31 23:52:09.5	174.270	0.290	-0.470	1.010
2020/01/31 23:52:09.6	174.260	0.310	-0.540	1.010
2020/01/31 23:52:09.7	174.250	0.320	-0.610	1.020
2020/01/31 23:52:09.8	174.240	0.330	-0.670	1.030
2020/01/31 23:52:09.9	174.240	0.330	-0.730	1.040
2020/01/31 23:52:10.0	174.240	0.340	-0.790	1.060
2020/01/31 23:52:10.1	174.240	0.350	-0.840	1.070
2020/01/31 23:52:10.2	174.230	0.350	-0.880	1.090
2020/01/31 23:52:10.3	174.230	0.350	-0.920	1.120
2020/01/31 23:52:10.4	174.230	0.350	-0.950	1.140
2020/01/31 23:52:10.5	174.230	0.350	-0.970	1.170
2020/01/31 23:52:10.6	174.240	0.350	-0.990	1.200
2020/01/31 23:52:10.7	174.240	0.340	-1.000	1.240
2020/01/31 23:52:10.8	174.240	0.330	-1.000	1.270
2020/01/31 23:52:10.9	174.250	0.320	-0.990	1.310
2020/01/31 23:52:11.0	174.240	0.310	-0.980	1.360
2020/01/31 23:52:11.1	174.250	0.290	-0.960	1.400
2020/01/31 23:52:11.2	174.260	0.270	-0.930	1.450
2020/01/31 23:52:11.3	174.260	0.250	-0.890	1.490
2020/01/31 23:52:11.4	174.270	0.230	-0.850	1.530
2020/01/31 23:52:11.5	174.280	0.210	-0.810	1.580
2020/01/31 23:52:11.6	174.280	0.190	-0.750	1.620
2020/01/31 23:52:11.7	174.290	0.160	-0.690	1.660
2020/01/31 23:52:11.8	174.300	0.130	-0.630	1.700
2020/01/31 23:52:11.9	174.310	0.100	-0.560	1.730
2020/01/31 23:52:12.0	174.330	0.080	-0.490	1.760
2020/01/31 23:52:12.1	174.340	0.050	-0.420	1.800
2020/01/31 23:52:12.2	174.350	0.010	-0.350	1.830
2020/01/31 23:52:12.3	174.370	-0.020	-0.270	1.860
2020/01/31 23:52:12.4	174.380	-0.050	-0.190	1.880
2020/01/31 23:52:12.5	174.390	-0.080	-0.120	1.900
2020/01/31 23:52:12.6	174.400	-0.110	-0.050	1.930
2020/01/31 23:52:12.7	174.410	-0.140	0.030	1.950
2020/01/31 23:52:12.8	174.410	-0.170	0.090	1.970
2020/01/31 23:52:12.9	174.420	-0.200	0.160	1.980
2020/01/31 23:52:13.0	174.430	-0.220	0.220	2.000
2020/01/31 23:52:13.1	174.440	-0.250	0.270	2.020
2020/01/31 23:52:13.2	174.440	-0.270	0.320	2.030
2020/01/31 23:52:13.3	174.440	-0.290	0.360	2.050
2020/01/31 23:52:13.4	174.430	-0.310	0.400	2.060
2020/01/31 23:52:13.5	174.430	-0.330	0.430	2.070
2020/01/31 23:52:13.6	174.420	-0.340	0.450	2.080
2020/01/31 23:52:13.7	174.410	-0.350	0.460	2.100
2020/01/31 23:52:13.8	174.400	-0.350	0.470	2.110
2020/01/31 23:52:13.9	174.380	-0.360	0.470	2.120
2020/01/31 23:52:14.0	174.370	-0.360	0.460	2.130
2020/01/31 23:52:14.1	174.350	-0.350	0.440	2.150
2020/01/31 23:52:14.2	174.330	-0.350	0.420	2.160
2020/01/31 23:52:14.3	174.300	-0.330	0.390	2.170
2020/01/31 23:52:14.4	174.280	-0.320	0.350	2.180
2020/01/31 23:52:14.5	174.250	-0.300	0.300	2.190
2020/01/31 23:52:14.6	174.220	-0.280	0.250	2.200
2020/01/31 23:52:14.7	174.190	-0.260	0.200	2.210
2020/01/31 23:52:14.8	174.160	-0.230	0.140	2.220
2020/01/31 23:52:14.9	174.130	-0.200	0.080	2.230
2020/01/31 23:52:15.0	174.090	-0.170	0.020	2.240
2020/01/31 23:52:15.1	174.060	-0.140	-0.050	2.240
2020/01/31 23:52:15.2	174.030	-0.100	-0.120	2.250
2020/01/31 23:52:15.3	174.000	-0.070	-0.180	2.250
2020/01/31 23:52:15.4	173.970	-0.030	-0.250	2.250
2020/01/31 23:52:15.5	173.940	0.000	-0.310	2.240
2020/01/31 23:52:15.6	173.910	0.040	-0.370	2.240
2020/01/31 23:52:15.7	173.880	0.070	-0.420	2.230
2020/01/31 23:52:15.8	173.850	0.100	-0.470	2.230
2020/01/31 23:52:15.9	173.830	0.130	-0.520	2.220
2020/01/31 23:52:16.0	173.800	0.160	-0.560	2.210
2020/01/31 23:52:16.1	173.780	0.190	-0.600	2.200
2020/01/31 23:52:16.2	173.760	0.220	-0.630	2.180
2020/01/31 23:52:16.3	173.740	0.240	-0.660	2.170
2020/01/31 23:52:16.4	173.720	0.260	-0.680	2.160
2020/01/31 23:52:16.5	173.700	0.270	-0.690	2.140
2020/01/31 23:52:16.6	173.680	0.290	-0.700	2.120
2020/01/31 23:52:16.7	173.670	0.300	-0.700	2.100
2020/01/31 23:52:16.8	173.660	0.310	-0.700	2.080
2020/01/31 23:52:16.9	173.650	0.310	-0.690	2.060
2020/01/31 23:52:17.0	173.650	0.310	-0.680	2.040
2020/01/31 23:52:17.1	173.650	0.310	-0.660	2.020
2020/01/31 23:52:17.2	173.640	0.310	-0.640	1.990
2020/01/31 23:52:17.3	173.640	0.300	-0.610	1.960
2020/01/31 23:52:17.4	173.640	0.290	-0.580	1.940
2020/01/31 23:52:17.5	173.650	0.280	-0.540	1.910
2020/01/31 23:52:17.6	173.650	0.260	-0.500	1.880
2020/01/31 23:52:17.7	173.660	0.240	-0.460	1.850
2020/01/31 23:52:17.8	173.660	0.220	-0.420	1.820
2020/01/31 23:52:17.9	173.670	0.200	-0.380	1.790
2020/01/31 23:52:18.0	173.690	0.180	-0.340	1.750
2020/01/31 23:52:18.1	173.700	0.150	-0.300	1.720
2020/01/31 23:52:18.2	173.720	0.130	-0.250	1.690
2020/01/31 23:52:18.3	173.730	0.100	-0.220	1.650
2020/01/31 23:52:18.4	173.750	0.070	-0.180	1.620
2020/01/31 23:52:18.5	173.770	0.040	-0.140	1.590
2020/01/31 23:52:18.6	173.790	0.010	-0.110	1.550
2020/01/31 23:52:18.7	173.810	-0.020	-0.080	1.520
2020/01/31 23:52:18.8	173.830	-0.040	-0.050	1.490
2020/01/31 23:52:18.9	173.860	-0.070	-0.030	1.460
2020/01/31 23:52:19.0	173.880	-0.100	-0.010	1.430
2020/01/31 23:52:19.1	173.910	-0.130	0.000	1.410
2020/01/31 23:52:19.2	173.930	-0.160	0.010	1.390
2020/01/31 23:52:19.3	173.960	-0.180	0.020	1.370
2020/01/31 23:52:19.4	173.990	-0.210	0.020	1.350
2020/01/31 23:52:19.5	174.010	-0.230	0.020	1.330
2020/01/31 23:52:19.6	174.040	-0.260	0.020	1.320
2020/01/31 23:52:19.7	174.070	-0.280	0.010	1.310
2020/01/31 23:52:19.8	174.090	-0.300	0.000	1.310
2020/01/31 23:52:19.9	174.120	-0.320	-0.010	1.310
2020/01/31 23:52:20.0	174.140	-0.330	-0.030	1.310
2020/01/31 23:52:20.1	174.160	-0.340	-0.050	1.310
2020/01/31 23:52:20.2	174.190	-0.350	-0.070	1.320
2020/01/31 23:52:20.3	174.210	-0.360	-0.090	1.330
2020/01/31 23:52:20.4	174.220	-0.370	-0.120	1.340
2020/01/31 23:52:20.5	174.240	-0.370	-0.150	1.360
2020/01/31 23:52:20.6	174.260	-0.370	-0.180	1.370
2020/01/31 23:52:20.7	174.270	-0.360	-0.210	1.390
2020/01/31 23:52:20.8	174.280	-0.350	-0.240	1.410
2020/01/31 23:52:20.9	174.290	-0.340	-0.280	1.430
2020/01/31 23:52:21.0	174.290	-0.330	-0.320	1.440
2020/01/31 23:52:21.1	174.290	-0.310	-0.350	1.460
2020/01/31 23:52:21.2	174.290	-0.290	-0.390	1.480
2020/01/31 23:52:21.3	174.290	-0.270	-0.420	1.500
2020/01/31 23:52:21.4	174.290	-0.240	-0.460	1.520
2020/01/31 23:52:21.5	174.280	-0.210	-0.490	1.540
2020/01/31 23:52:21.6	174.280	-0.180	-0.520	1.560
2020/01/31 23:52:21.7	174.260	-0.150	-0.550	1.580
2020/01/31 23:52:21.8	174.250	-0.110	-0.590	1.590
2020/01/31 23:52:21.9	174.240	-0.080	-0.610	1.610
2020/01/31 23:52:22.0	174.210	-0.040	-0.640	1.640
2020/01/31 23:52:22.1	174.190	0.000	-0.670	1.650
2020/01/31 23:52:22.2	174.170	0.040	-0.690	1.670
2020/01/31 23:52:22.3	174.150	0.080	-0.710	1.690
2020/01/31 23:52:22.4	174.120	0.120	-0.730	1.710
2020/01/31 23:52:22.5	174.100	0.160	-0.740	1.730
2020/01/31 23:52:22.6	174.080	0.200	-0.760	1.750
2020/01/31 23:52:22.7	174.050	0.230	-0.760	1.770
2020/01/31 23:52:22.8	174.030	0.270	-0.770	1.790
2020/01/31 23:52:22.9	174.010	0.300	-0.770	1.800
2020/01/31 23:52:23.0	173.980	0.320	-0.760	1.820
2020/01/31 23:52:23.1	173.960	0.350	-0.750	1.830
2020/01/31 23:52:23.2	173.940	0.370	-0.740	1.850
2020/01/31 23:52:23.3	173.930	0.390	-0.720	1.870
2020/01/31 23:52:23.4	173.920	0.400	-0.700	1.880
2020/01/31 23:52:23.5	173.910	0.410	-0.670	1.900
2020/01/31 23:52:23.6	173.900	0.410	-0.640	1.910
2020/01/31 23:52:23.7	173.900	0.410	-0.610	1.930
2020/01/31 23:52:23.8	173.900	0.400	-0.570	1.940
2020/01/31 23:52:23.9	173.900	0.390	-0.520	1.960
2020/01/31 23:52:24.0	173.910	0.380	-0.480	1.970
2020/01/31 23:52:24.1	173.920	0.360	-0.430	1.980
2020/01/31 23:52:24.2	173.930	0.340	-0.370	1.990
2020/01/31 23:52:24.3	173.940	0.310	-0.320	2.000
2020/01/31 23:52:24.4	173.950	0.280	-0.260	2.000
2020/01/31 23:52:24.5	173.970	0.240	-0.190	2.010
2020/01/31 23:52:24.6	173.980	0.200	-0.130	2.010
2020/01/31 23:52:24.7	174.000	0.160	-0.070	2.020
2020/01/31 23:52:24.8	174.020	0.120	-0.000	2.020
2020/01/31 23:52:24.9	174.040	0.070	0.060	2.010
2020/01/31 23:52:25.0	174.070	0.030	0.130	2.020
2020/01/31 23:52:25.1	174.090	-0.020	0.190	2.010
2020/01/31 23:52:25.2	174.100	-0.070	0.250	2.010
2020/01/31 23:52:25.3	174.120	-0.120	0.300	2.000
2020/01/31 23:52:25.4	174.140	-0.170	0.360	2.000
2020/01/31 23:52:25.5	174.150	-0.220	0.410	1.990
2020/01/31 23:52:25.6	174.170	-0.270	0.450	1.990
2020/01/31 23:52:25.7	174.180	-0.310	0.500	1.980
2020/01/31 23:52:25.8	174.190	-0.350	0.540	1.980
2020/01/31 23:52:25.9	174.210	-0.390	0.570	1.970
2020/01/31 23:52:26.0	174.220	-0.430	0.590	1.960
2020/01/31 23:52:26.1	174.240	-0.470	0.620	1.950
2020/01/31 23:52:26.2	174.250	-0.500	0.640	1.950
2020/01/31 23:52:26.3	174.260	-0.520	0.650	1.940
2020/01/31 23:52:26.4	174.270	-0.550	0.660	1.930
2020/01/31 23:52:26.5	174.290	-0.570	0.670	1.920
2020/01/31 23:52:26.6	174.300	-0.580	0.670	1.910
2020/01/31 23:52:26.7	174.310	-0.590	0.660	1.900
2020/01/31 23:52:26.8	174.330	-0.590	0.650	1.890
2020/01/31 23:52:26.9	174.340	-0.590	0.640	1.880
2020/01/31 23:52:27.0	174.350	-0.590	0.620	1.870
2020/01/31 23:52:27.1	174.370	-0.580	0.600	1.850
2020/01/31 23:52:27.2	174.380	-0.570	0.580	1.830
2020/01/31 23:52:27.3	174.400	-0.550	0.560	1.810
2020/01/31 23:52:27.4	174.410	-0.520	0.530	1.790
2020/01/31 23:52:27.5	174.420	-0.500	0.490	1.770
2020/01/31 23:52:27.6	174.430	-0.470	0.460	1.750
2020/01/31 23:52:27.7	174.440	-0.430	0.420	1.730
2020/01/31 23:52:27.8	174.450	-0.390	0.380	1.710
2020/01/31 23:52:27.9	174.450	-0.350	0.330	1.690
2020/01/31 23:52:28.0	174.440	-0.310	0.290	1.660
2020/01/31 23:52:28.1	174.450	-0.260	0.230	1.650
2020/01/31 23:52:28.2	174.440	-0.210	0.180	1.630
2020/01/31 23:52:28.3	174.440	-0.160	0.120	1.610
2020/01/31 23:52:28.4	174.430	-0.110	0.060	1.600
2020/01/31 23:52:28.5	174.420	-0.050	-0.000	1.580
2020/01/31 23:52:28.6	174.400	0.000	-0.070	1.570
2020/01/31 23:52:28.7	174.390	0.060	-0.140	1.560
2020/01/31 23:52:28.8	174.360	0.110	-0.210	1.550
2020/01/31 23:52:28.9	174.340	0.170	-0.290	1.550
2020/01/31 23:52:29.0	174.320	0.230	-0.370	1.540
2020/01/31 23:52:29.1	174.290	0.280	-0.450	1.540
2020/01/31 23:52:29.2	174.250	0.340	-0.530	1.540
2020/01/31 23:52:29.3	174.220	0.390	-0.610	1.540
2020/01/31 23:52:29.4	174.180	0.440	-0.690	1.540
2020/01/31 23:52:29.5	174.140	0.490	-0.770	1.550
2020/01/31 23:52:29.6	174.100	0.540	-0.850	1.560
2020/01/31 23:52:29.7	174.060	0.590	-0.930	1.560
2020/01/31 23:52:29.8	174.020	0.630	-1.010	1.570
2020/01/31 23:52:29.9	173.980	0.670	-1.080	1.580
2020/01/31 23:52:30.0	173.930	0.710	-1.150	1.590
2020/01/31 23:52:30.1	173.890	0.740	-1.210	1.590
2020/01/31 23:52:30.2	173.860	0.770	-1.270	1.600
2020/01/31 23:52:30.3	173.820	0.790	-1.320	1.610
2020/01/31 23:52:30.4	173.790	0.810	-1.360	1.610
2020/01/31 23:52:30.5	173.770	0.830	-1.400	1.610
2020/01/31 23:52:30.6	173.750	0.840	-1.420	1.610
2020/01/31 23:52:30.7	173.730	0.840	-1.440	1.610
2020/01/31 23:52:30.8	173.720	0.840	-1.440	1.610
2020/01/31 23:52:30.9	173.710	0.840	-1.440	1.610
2020/01/31 23:52:31.0	173.720	0.830	-1.420	1.600
2020/01/31 23:52:31.1	173.720	0.810	-1.400	1.600
2020/01/31 23:52:31.2	173.730	0.790	-1.360	1.590
2020/01/31 23:52:31.3	173.740	0.770	-1.310	1.580
2020/01/31 23:52:31.4	173.760	0.730	-1.250	1.570
2020/01/31 23:52:31.5	173.780	0.700	-1.190	1.560
2020/01/31 23:52:31.6	173.800	0.660	-1.110	1.540
2020/01/31 23:52:31.7	173.830	0.610	-1.030	1.530
2020/01/31 23:52:31.8	173.860	0.560	-0.940	1.520
2020/01/31 23:52:31.9	173.900	0.510	-0.840	1.510
2020/01/31 23:52:32.0	173.940	0.450	-0.750	1.490
2020/01/31 23:52:32.1	173.980	0.390	-0.640	1.480
2020/01/31 23:52:32.2	174.020	0.320	-0.540	1.470
2020/01/31 23:52:32.3	174.070	0.260	-0.430	1.460
2020/01/31 23:52:32.4	174.110	0.190	-0.320	1.460
2020/01/31 23:52:32.5	174.160	0.120	-0.220	1.450
2020/01/31 23:52:32.6	174.200	0.050	-0.120	1.450
2020/01/31 23:52:32.7	174.250	-0.030	-0.020	1.450
2020/01/31 23:52:32.8	174.290	-0.100	0.080	1.450
2020/01/31 23:52:32.9	174.330	-0.170	0.170	1.450
2020/01/31 23:52:33.0	174.370	-0.240	0.250	1.460
2020/01/31 23:52:33.1	174.410	-0.310	0.320	1.470
2020/01/31 23:52:33.2	174.450	-0.370	0.390	1.480
2020/01/31 23:52:33.3	174.480	-0.430	0.440	1.500
2020/01/31 23:52:33.4	174.510	-0.490	0.490	1.520
2020/01/31 23:52:33.5	174.540	-0.550	0.530	1.540
2020/01/31 23:52:33.6	174.570	-0.600	0.560	1.570
2020/01/31 23:52:33.7	174.590	-0.650	0.570	1.590
2020/01/31 23:52:33.8	174.610	-0.690	0.580	1.620
2020/01/31 23:52:33.9	174.630	-0.720	0.570	1.650
2020/01/31 23:52:34.0	174.640	-0.760	0.560	1.690
2020/01/31 23:52:34.1	174.650	-0.780	0.530	1.720
2020/01/31 23:52:34.2	174.660	-0.800	0.500	1.760
2020/01/31 23:52:34.3	174.660	-0.820	0.460	1.800
2020/01/31 23:52:34.4	174.660	-0.830	0.410	1.840
2020/01/31 23:52:34.5	174.650	-0.830	0.350	1.880
2020/01/31 23:52:34.6	174.650	-0.830	0.290	1.920
2020/01/31 23:52:34.7	174.640	-0.830	0.220	1.960
2020/01/31 23:52:34.8	174.630	-0.810	0.150	2.000
2020/01/31 23:52:34.9	174.610	-0.800	0.080	2.040
2020/01/31 23:52:35.0	174.590	-0.780	0.000	2.090
2020/01/31 23:52:35.1	174.570	-0.750	-0.080	2.130
2020/01/31 23:52:35.2	174.540	-0.720	-0.160	2.170
2020/01/31 23:52:35.3	174.520	-0.680	-0.250	2.210
2020/01/31 23:52:35.4	174.490	-0.650	-0.330	2.260
2020/01/31 23:52:35.5	174.460	-0.600	-0.410	2.300
2020/01/31 23:52:35.6	174.430	-0.560	-0.490	2.340
2020/01/31 23:52:35.7	174.400	-0.510	-0.570	2.380
2020/01/31 23:52:35.8	174.360	-0.460	-0.640	2.420
2020/01/31 23:52:35.9	174.330	-0.410	-0.710	2.450
2020/01/31 23:52:36.0	174.290	-0.360	-0.780	2.490
2020/01/31 23:52:36.1	174.260	-0.300	-0.840	2.520
2020/01/31 23:52:36.2	174.220	-0.250	-0.900	2.550
2020/01/31 23:52:36.3	174.190	-0.190	-0.950	2.580
2020/01/31 23:52:36.4	174.150	-0.140	-0.990	2.600
2020/01/31 23:52:36.5	174.120	-0.080	-1.030	2.620
2020/01/31 23:52:36.6	174.080	-0.030	-1.060	2.640
2020/01/31 23:52:36.7	174.050	0.020	-1.080	2.650
2020/01/31 23:52:36.8	174.020	0.070	-1.100	2.660
2020/01/31 23:52:36.9	173.990	0.120	-1.110	2.660
2020/01/31 23:52:37.0	173.950	0.160	-1.110	2.660
2020/01/31 23:52:37.1	173.930	0.200	-1.100	2.660
2020/01/31 23:52:37.2	173.900	0.240	-1.090	2.660
2020/01/31 23:52:37.3	173.870	0.280	-1.070	2.650
2020/01/31 23:52:37.4	173.850	0.310	-1.040	2.630
2020/01/31 23:52:37.5	173.830	0.340	-1.010	2.620
2020/01/31 23:52:37.6	173.810	0.370	-0.970	2.600
2020/01/31 23:52:37.7	173.790	0.390	-0.920	2.570
2020/01/31 23:52:37.8	173.770	0.410	-0.870	2.550
2020/01/31 23:52:37.9	173.760	0.420	-0.800	2.520
2020/01/31 23:52:38.0	173.750	0.430	-0.740	2.480
2020/01/31 23:52:38.1	173.740	0.440	-0.670	2.450
2020/01/31 23:52:38.2	173.730	0.440	-0.590	2.410
2020/01/31 23:52:38.3	173.720	0.430	-0.510	2.370
2020/01/31 23:52:38.4	173.720	0.430	-0.430	2.330
2020/01/31 23:52:38.5	173.710	0.420	-0.340	2.290
2020/01/31 23:52:38.6	173.710	0.410	-0.250	2.240
2020/01/31 23:52:38.7	173.710	0.390	-0.160	2.200
2020/01/31 23:52:38.8	173.720	0.370	-0.070	2.150
2020/01/31 23:52:38.9	173.720	0.340	0.020	2.100
2020/01/31 23:52:39.0	173.730	0.320	0.110	2.050
2020/01/31 23:52:39.1	173.740	0.290	0.200	2.010
2020/01/31 23:52:39.2	173.750	0.260	0.290	1.960
2020/01/31 23:52:39.3	173.760	0.220	0.370	1.910
2020/01/31 23:52:39.4	173.770	0.190	0.450	1.870
2020/01/31 23:52:39.5	173.780	0.150	0.530	1.830
2020/01/31 23:52:39.6	173.790	0.110	0.610	1.780
2020/01/31 23:52:39.7	173.800	0.070	0.670	1.750
2020/01/31 23:52:39.8	173.820	0.030	0.740	1.710
2020/01/31 23:52:39.9	173.830	-0.010	0.800	1.680
2020/01/31 23:52:40.0	173.850	-0.050	0.850	1.650
2020/01/31 23:52:40.1	173.860	-0.090	0.890	1.620
2020/01/31 23:52:40.2	173.880	-0.130	0.930	1.590
2020/01/31 23:52:40.3	173.890	-0.170	0.970	1.570
2020/01/31 23:52:40.4	173.910	-0.210	0.990	1.550
2020/01/31 23:52:40.5	173.930	-0.250	1.010	1.530
2020/01/31 23:52:40.6	173.940	-0.290	1.030	1.520
2020/01/31 23:52:40.7	173.960	-0.320	1.030	1.510
2020/01/31 23:52:40.8	173.970	-0.350	1.030	1.500
2020/01/31 23:52:40.9	173.990	-0.380	1.030	1.490
2020/01/31 23:52:41.0	174.010	-0.410	1.020	1.490
2020/01/31 23:52:41.1	174.020	-0.440	1.000	1.480
2020/01/31 23:52:41.2	174.040	-0.460	0.980	1.480
2020/01/31 23:52:41.3	174.060	-0.480	0.950	1.480
2020/01/31 23:52:41.4	174.080	-0.500	0.910	1.470
2020/01/31 23:52:41.5	174.090	-0.510	0.870	1.470
2020/01/31 23:52:41.6	174.110	-0.530	0.820	1.470
2020/01/31 23:52:41.7	174.130	-0.530	0.770	1.470
2020/01/31 23:52:41.8	174.150	-0.540	0.710	1.470
2020/01/31 23:52:41.9	174.160	-0.540	0.650	1.470
2020/01/31 23:52:42.0	174.160	-0.540	0.580	1.470
2020/01/31 23:52:42.1	174.180	-0.540	0.510	1.470
2020/01/31 23:52:42.2	174.190	-0.530	0.430	1.470
2020/01/31 23:52:42.3	174.200	-0.510	0.350	1.470
2020/01/31 23:52:42.4	174.210	-0.500	0.270	1.480
2020/01/31 23:52:42.5	174.210	-0.480	0.180	1.480
2020/01/31 23:52:42.6	174.220	-0.460	0.090	1.490
2020/01/31 23:52:42.7	174.220	-0.430	-0.000	1.500
2020/01/31 23:52:42.8	174.220	-0.400	-0.100	1.510
2020/01/31 23:52:42.9	174.220	-0.370	-0.200	1.520
2020/01/31 23:52:43.0	174.210	-0.330	-0.300	1.530
2020/01/31 23:52:43.1	174.200	-0.290	-0.400	1.550
2020/01/31 23:52:43.2	174.190	-0.240	-0.500	1.560
2020/01/31 23:52:43.3	174.180	-0.190	-0.610	1.580
2020/01/31 23:52:43.4	174.170	-0.140	-0.710	1.600
2020/01/31 23:52:43.5	174.150	-0.090	-0.810	1.610
2020/01/31 23:52:43.6	174.130	-0.030	-0.920	1.630
2020/01/31 23:52:43.7	174.110	0.020	-1.020	1.650
2020/01/31 23:52:43.8	174.090	0.080	-1.110	1.670
2020/01/31 23:52:43.9	174.070	0.150	-1.210	1.690
2020/01/31 23:52:44.0	174.050	0.210	-1.290	1.710
2020/01/31 23:52:44.1	174.030	0.270	-1.380	1.720
2020/01/31 23:52:44.2	174.010	0.340	-1.450	1.740
2020/01/31 23:52:44.3	173.980	0.400	-1.520	1.750
2020/01/31 23:52:44.4	173.960	0.460	-1.580	1.760
2020/01/31 23:52:44.5	173.940	0.520	-1.630	1.760
2020/01/31 23:52:44.6	173.930	0.580	-1.660	1.770
2020/01/31 23:52:44.7	173.910	0.640	-1.690	1.760
2020/01/31 23:52:44.8	173.900	0.690	-1.710	1.760
2020/01/31 23:52:44.9	173.880	0.740	-1.710	1.750
2020/01/31 23:52:45.0	173.870	0.790	-1.700	1.730
2020/01/31 23:52:45.1	173.860	0.830	-1.680	1.710
2020/01/31 23:52:45.2	173.860	0.870	-1.650	1.690
2020/01/31 23:52:45.3	173.860	0.900	-1.600	1.660
2020/01/31 23:52:45.4	173.860	0.920	-1.550	1.630
2020/01/31 23:52:45.5	173.860	0.940	-1.480	1.590
2020/01/31 23:52:45.6	173.870	0.950	-1.400	1.560
2020/01/31 23:52:45.7	173.880	0.950	-1.320	1.520
2020/01/31 23:52:45.8	173.890	0.950	-1.220	1.480
2020/01/31 23:52:45.9	173.900	0.940	-1.120	1.440
2020/01/31 23:52:46.0	173.920	0.920	-1.020	1.400
2020/01/31 23:52:46.1	173.940	0.890	-0.900	1.370
2020/01/31 23:52:46.2	173.960	0.860	-0.790	1.330
2020/01/31 23:52:46.3	173.980	0.820	-0.670	1.300
2020/01/31 23:52:46.4	174.000	0.770	-0.550	1.270
2020/01/31 23:52:46.5	174.020	0.720	-0.440	1.240
2020/01/31 23:52:46.6	174.040	0.660	-0.320	1.220
2020/01/31 23:52:46.7	174.060	0.600	-0.210	1.200
2020/01/31 23:52:46.8	174.090	0.530	-0.100	1.180
2020/01/31 23:52:46.9	174.110	0.460	0.010	1.170
2020/01/31 23:52:47.0	174.120	0.380	0.100	1.160
2020/01/31 23:52:47.1	174.150	0.310	0.190	1.160
2020/01/31 23:52:47.2	174.170	0.230	0.280	1.160
2020/01/31 23:52:47.3	174.190	0.140	0.350	1.170
2020/01/31 23:52:47.4	174.210	0.060	0.420	1.170
2020/01/31 23:52:47.5	174.230	-0.020	0.470	1.190
2020/01/31 23:52:47.6	174.250	-0.110	0.520	1.200
2020/01/31 23:52:47.7	174.270	-0.190	0.560	1.220
2020/01/31 23:52:47.8	174.280	-0.270	0.580	1.250
2020/01/31 23:52:47.9	174.300	-0.350	0.600	1.270
2020/01/31 23:52:48.0	174.310	-0.420	0.610	1.310
2020/01/31 23:52:48.1	174.330	-0.490	0.600	1.340
2020/01/31 23:52:48.2	174.340	-0.560	0.590	1.370
2020/01/31 23:52:48.3	174.340	-0.620	0.570	1.410
2020/01/31 23:52:48.4	174.350	-0.670	0.540	1.450
2020/01/31 23:52:48.5	174.350	-0.720	0.500	1.500
2020/01/31 23:52:48.6	174.350	-0.760	0.450	1.540
2020/01/31 23:52:48.7	174.340	-0.800	0.400	1.590
2020/01/31 23:52:48.8	174.330	-0.820	0.330	1.650
2020/01/31 23:52:48.9	174.320	-0.840	0.260	1.700
2020/01/31 23:52:49.0	174.300	-0.850	0.190	1.760
2020/01/31 23:52:49.1	174.280	-0.860	0.110	1.820
2020/01/31 23:52:49.2	174.250	-0.850	0.030	1.880
2020/01/31 23:52:49.3	174.220	-0.840	-0.060	1.950
2020/01/31 23:52:49.4	174.190	-0.820	-0.150	2.010
2020/01/31 23:52:49.5	174.150	-0.800	-0.240	2.080
2020/01/31 23:52:49.6	174.110	-0.760	-0.340	2.150
2020/01/31 23:52:49.7	174.070	-0.720	-0.430	2.220
2020/01/31 23:52:49.8	174.030	-0.680	-0.520	2.290
2020/01/31 23:52:49.9	173.980	-0.630	-0.610	2.350
2020/01/31 23:52:50.0	173.940	-0.570	-0.700	2.420
2020/01/31 23:52:50.1	173.890	-0.510	-0.780	2.480
2020/01/31 23:52:50.2	173.840	-0.440	-0.860	2.540
2020/01/31 23:52:50.3	173.790	-0.380	-0.930	2.590
2020/01/31 23:52:50.4	173.740	-0.310	-0.990	2.630
2020/01/31 23:52:50.5	173.700	-0.240	-1.040	2.670
2020/01/31 23:52:50.6	173.660	-0.160	-1.090	2.690
2020/01/31 23:52:50.7	173.620	-0.090	-1.120	2.720
2020/01/31 23:52:50.8	173.580	-0.020	-1.140	2.730
2020/01/31 23:52:50.9	173.550	0.040	-1.160	2.740
2020/01/31 23:52:51.0	173.530	0.110	-1.160	2.740
2020/01/31 23:52:51.1	173.510	0.170	-1.150	2.740
2020/01/31 23:52:51.2	173.490	0.220	-1.130	2.720
2020/01/31 23:52:51.3	173.480	0.280	-1.100	2.710
2020/01/31 23:52:51.4	173.470	0.320	-1.050	2.680
2020/01/31 23:52:51.5	173.470	0.360	-0.990	2.650
2020/01/31 23:52:51.6	173.470	0.400	-0.930	2.610
2020/01/31 23:52:51.7	173.470	0.420	-0.850	2.570
2020/01/31 23:52:51.8	173.480	0.440	-0.770	2.530
2020/01/31 23:52:51.9	173.500	0.460	-0.680	2.480
2020/01/31 23:52:52.0	173.520	0.470	-0.570	2.420
2020/01/31 23:52:52.1	173.540	0.460	-0.470	2.360
2020/01/31 23:52:52.2	173.570	0.460	-0.360	2.300
2020/01/31 23:52:52.3	173.600	0.440	-0.250	2.240
2020/01/31 23:52:52.4	173.630	0.420	-0.140	2.180
2020/01/31 23:52:52.5	173.670	0.400	-0.030	2.110
2020/01/31 23:52:52.6	173.700	0.360	0.080	2.050
2020/01/31 23:52:52.7	173.740	0.320	0.190	1.980
2020/01/31 23:52:52.8	173.780	0.280	0.300	1.920
2020/01/31 23:52:52.9	173.820	0.240	0.400	1.860
2020/01/31 23:52:53.0	173.880	0.190	0.490	1.790
2020/01/31 23:52:53.1	173.910	0.130	0.580	1.730
2020/01/31 23:52:53.2	173.950	0.080	0.660	1.680
2020/01/31 23:52:53.3	173.990	0.020	0.730	1.630
2020/01/31 23:52:53.4	174.020	-0.030	0.790	1.580
2020/01/31 23:52:53.5	174.060	-0.090	0.840	1.540
2020/01/31 23:52:53.6	174.090	-0.150	0.880	1.500
2020/01/31 23:52:53.7	174.110	-0.200	0.910	1.470
2020/01/31 23:52:53.8	174.140	-0.250	0.930	1.450
2020/01/31 23:52:53.9	174.160	-0.300	0.940	1.420
2020/01/31 23:52:54.0	174.180	-0.350	0.940	1.410
2020/01/31 23:52:54.1	174.190	-0.390	0.930	1.400
2020/01/31 23:52:54.2	174.210	-0.430	0.910	1.400
2020/01/31 23:52:54.3	174.210	-0.460	0.880	1.400
2020/01/31 23:52:54.4	174.220	-0.490	0.840	1.400
2020/01/31 23:52:54.5	174.220	-0.510	0.790	1.410
2020/01/31 23:52:54.6	174.220	-0.520	0.730	1.430
2020/01/31 23:52:54.7	174.210	-0.530	0.660	1.450
2020/01/31 23:52:54.8	174.200	-0.530	0.590	1.470
2020/01/31 23:52:54.9	174.190	-0.530	0.500	1.490
2020/01/31 23:52:55.0	174.170	-0.520	0.410	1.520
2020/01/31 23:52:55.1	174.150	-0.500	0.320	1.550
2020/01/31 23:52:55.2	174.130	-0.480	0.220	1.570
2020/01/31 23:52:55.3	174.110	-0.450	0.120	1.600
2020/01/31 23:52:55.4	174.080	-0.410	0.020	1.630
2020/01/31 23:52:55.5	174.060	-0.370	-0.090	1.660
2020/01/31 23:52:55.6	174.030	-0.330	-0.190	1.690
2020/01/31 23:52:55.7	174.010	-0.280	-0.290	1.710
2020/01/31 23:52:55.8	173.990	-0.230	-0.390	1.730
2020/01/31 23:52:55.9	173.960	-0.180	-0.480	1.750
2020/01/31 23:52:56.0	173.940	-0.130	-0.570	1.760
2020/01/31 23:52:56.1	173.920	-0.070	-0.660	1.780
2020/01/31 23:52:56.2	173.910	-0.020	-0.740	1.790
2020/01/31 23:52:56.3	173.890	0.040	-0.800	1.800
2020/01/31 23:52:56.4	173.880	0.090	-0.870	1.800
2020/01/31 23:52:56.5	173.870	0.140	-0.920	1.810
2020/01/31 23:52:56.6	173.870	0.190	-0.960	1.810
2020/01/31 23:52:56.7	173.860	0.240	-1.000	1.820
2020/01/31 23:52:56.8	173.870	0.280	-1.020	1.820
2020/01/31 23:52:56.9	173.870	0.320	-1.040	1.820
2020/01/31 23:52:57.0	173.870	0.360	-1.050	1.820
2020/01/31 23:52:57.1	173.880	0.390	-1.040	1.810
2020/01/31 23:52:57.2	173.890	0.410	-1.030	1.810
2020/01/31 23:52:57.3	173.910	0.440	-1.010	1.810
2020/01/31 23:52:57.4	173.920	0.450	-0.980	1.800
2020/01/31 23:52:57.5	173.940	0.470	-0.950	1.800
2020/01/31 23:52:57.6	173.970	0.480	-0.910	1.790
2020/01/31 23:52:57.7	173.990	0.480	-0.860	1.790
2020/01/31 23:52:57.8	174.020	0.480	-0.810	1.780
2020/01/31 23:52:57.9	174.040	0.470	-0.750	1.770
2020/01/31 23:52:58.0	174.060	0.460	-0.700	1.760
2020/01/31 23:52:58.1	174.080	0.450	-0.630	1.750
2020/01/31 23:52:58.2	174.110	0.440	-0.570	1.730
2020/01/31 23:52:58.3	174.140	0.420	-0.510	1.720
2020/01/31 23:52:58.4	174.170	0.400	-0.440	1.710
2020/01/31 23:52:58.5	174.190	0.370	-0.380	1.700
2020/01/31 23:52:58.6	174.220	0.350	-0.320	1.690
2020/01/31 23:52:58.7	174.240	0.320	-0.260	1.680
2020/01/31 23:52:58.8	174.260	0.300	-0.210	1.660
2020/01/31 23:52:58.9	174.280	0.270	-0.160	1.650
2020/01/31 23:52:59.0	174.300	0.250	-0.120	1.640
2020/01/31 23:52:59.1	174.310	0.230	-0.080	1.630
2020/01/31 23:52:59.2	174.330	0.200	-0.040	1.620
2020/01/31 23:52:59.3	174.340	0.180	-0.020	1.600
2020/01/31 23:52:59.4	174.350	0.160	0.010	1.590
2020/01/31 23:52:59.5	174.360	0.140	0.020	1.570
2020/01/31 23:52:59.6	174.370	0.130	0.040	1.560
2020/01/31 23:52:59.7	174.370	0.110	0.040	1.540
2020/01/31 23:52:59.8	174.380	0.100	0.040	1.530
2020/01/31 23:52:59.9	174.380	0.090	0.040	1.510
2020/01/31 23:53:00.0	174.390	0.070	0.040	1.500
2020/01/31 23:53:00.1	174.390	0.070	0.030	1.480
2020/01/31 23:53:00.2	174.390	0.060	0.010	1.470
2020/01/31 23:53:00.3	174.390	0.050	-0.000	1.470
2020/01/31 23:53:00.4	174.390	0.040	-0.020	1.460
2020/01/31 23:53:00.5	174.390	0.040	-0.040	1.460
2020/01/31 23:53:00.6	174.390	0.030	-0.060	1.470
2020/01/31 23:53:00.7	174.380	0.020	-0.080	1.480
2020/01/31 23:53:00.8	174.380	0.020	-0.110	1.490
2020/01/31 23:53:00.9	174.370	0.010	-0.130	1.500
2020/01/31 23:53:01.0	174.360	0.010	-0.160	1.520
2020/01/31 23:53:01.1	174.360	0.000	-0.180	1.540
2020/01/31 23:53:01.2	174.350	-0.000	-0.210	1.570
2020/01/31 23:53:01.3	174.330	-0.010	-0.230	1.600
2020/01/31 23:53:01.4	174.320	-0.010	-0.260	1.630
2020/01/31 23:53:01.5	174.310	-0.020	-0.280	1.670
2020/01/31 23:53:01.6	174.300	-0.030	-0.300	1.700
2020/01/31 23:53:01.7	174.280	-0.040	-0.330	1.740
2020/01/31 23:53:01.8	174.270	-0.040	-0.340	1.770
2020/01/31 23:53:01.9	174.260	-0.050	-0.360	1.810
2020/01/31 23:53:02.0	174.240	-0.060	-0.380	1.850
2020/01/31 23:53:02.1	174.230	-0.070	-0.390	1.880
2020/01/31 23:53:02.2	174.220	-0.080	-0.400	1.910
2020/01/31 23:53:02.3	174.200	-0.090	-0.410	1.940
2020/01/31 23:53:02.4	174.190	-0.100	-0.410	1.970
2020/01/31 23:53:02.5	174.170	-0.110	-0.410	1.990
2020/01/31 23:53:02.6	174.160	-0.120	-0.420	2.010
2020/01/31 23:53:02.7	174.150	-0.130	-0.420	2.030
2020/01/31 23:53:02.8	174.140	-0.140	-0.410	2.050
2020/01/31 23:53:02.9	174.120	-0.150	-0.410	2.060
2020/01/31 23:53:03.0	174.110	-0.150	-0.410	2.070
2020/01/31 23:53:03.1	174.100	-0.160	-0.400	2.080
2020/01/31 23:53:03.2	174.080	-0.160	-0.400	2.080
2020/01/31 23:53:03.3	174.070	-0.160	-0.390	2.090
2020/01/31 23:53:03.4	174.060	-0.160	-0.390	2.090
2020/01/31 23:53:03.5	174.050	-0.160	-0.380	2.080
2020/01/31 23:53:03.6	174.040	-0.160	-0.370	2.080
2020/01/31 23:53:03.7	174.030	-0.160	-0.370	2.070
2020/01/31 23:53:03.8	174.030	-0.150	-0.370	2.070
2020/01/31 23:53:03.9	174.020	-0.150	-0.360	2.060
2020/01/31 23:53:04.0	174.020	-0.140	-0.360	2.050
2020/01/31 23:53:04.1	174.020	-0.130	-0.350	2.040
2020/01/31 23:53:04.2	174.020	-0.120	-0.350	2.030
2020/01/31 23:53:04.3	174.020	-0.110	-0.350	2.010
2020/01/31 23:53:04.4	174.020	-0.100	-0.350	1.990
2020/01/31 23:53:04.5	174.030	-0.080	-0.340	1.980
2020/01/31 23:53:04.6	174.030	-0.070	-0.340	1.960
2020/01/31 23:53:04.7	174.040	-0.060	-0.340	1.940
2020/01/31 23:53:04.8	174.050	-0.040	-0.330	1.920
2020/01/31 23:53:04.9	174.060	-0.030	-0.330	1.900
2020/01/31 23:53:05.0	174.060	-0.020	-0.330	1.880
2020/01/31 23:53:05.1	174.070	-0.010	-0.320	1.860
2020/01/31 23:53:05.2	174.080	0.000	-0.320	1.840
2020/01/31 23:53:05.3	174.100	0.010	-0.310	1.820
2020/01/31 23:53:05.4	174.110	0.020	-0.300	1.800
2020/01/31 23:53:05.5	174.130	0.030	-0.300	1.780
2020/01/31 23:53:05.6	174.150	0.040	-0.290	1.750
2020/01/31 23:53:05.7	174.170	0.040	-0.280	1.730
2020/01/31 23:53:05.8	174.190	0.040	-0.270	1.700
2020/01/31 23:53:05.9	174.210	0.050	-0.260	1.680
2020/01/31 23:53:06.0	174.220	0.050	-0.240	1.650
2020/01/31 23:53:06.1	174.250	0.050	-0.230	1.630
2020/01/31 23:53:06.2	174.270	0.050	-0.220	1.600
2020/01/31 23:53:06.3	174.290	0.040	-0.210	1.580
2020/01/31 23:53:06.4	174.310	0.040	-0.200	1.550
2020/01/31 23:53:06.5	174.330	0.040	-0.200	1.530
2020/01/31 23:53:06.6	174.360	0.030	-0.190	1.510
2020/01/31 23:53:06.7	174.380	0.020	-0.180	1.490
2020/01/31 23:53:06.8	174.400	0.020	-0.180	1.470
2020/01/31 23:53:06.9	174.420	0.010	-0.170	1.450
2020/01/31 23:53:07.0	174.440	0.000	-0.170	1.440
2020/01/31 23:53:07.1	174.450	-0.000	-0.170	1.420
2020/01/31 23:53:07.2	174.470	-0.010	-0.170	1.410
2020/01/31 23:53:07.3	174.480	-0.020	-0.170	1.400
2020/01/31 23:53:07.4	174.490	-0.030	-0.170	1.390
2020/01/31 23:53:07.5	174.500	-0.030	-0.170	1.380
2020/01/31 23:53:07.6	174.510	-0.040	-0.180	1.380
2020/01/31 23:53:07.7	174.510	-0.040	-0.180	1.370
2020/01/31 23:53:07.8	174.520	-0.050	-0.180	1.370
2020/01/31 23:53:07.9	174.520	-0.050	-0.180	1.380
2020/01/31 23:53:08.0	174.520	-0.060	-0.180	1.380
2020/01/31 23:53:08.1	174.520	-0.060	-0.190	1.390
2020/01/31 23:53:08.2	174.510	-0.060	-0.190	1.390
2020/01/31 23:53:08.3	174.510	-0.070	-0.190	1.410
2020/01/31 23:53:08.4	174.500	-0.070	-0.190	1.420
2020/01/31 23:53:08.5	174.490	-0.070	-0.190	1.430
2020/01/31 23:53:08.6	174.490	-0.070	-0.190	1.450
2020/01/31 23:53:08.7	174.480	-0.070	-0.180	1.470
2020/01/31 23:53:08.8	174.470	-0.070	-0.180	1.480
2020/01/31 23:53:08.9	174.460	-0.070	-0.180	1.500
2020/01/31 23:53:09.0	174.460	-0.070	-0.180	1.530
2020/01/31 23:53:09.1	174.450	-0.070	-0.180	1.550
2020/01/31 23:53:09.2	174.440	-0.060	-0.180	1.570
2020/01/31 23:53:09.3	174.430	-0.060	-0.180	1.590
2020/01/31 23:53:09.4	174.420	-0.060	-0.180	1.610
2020/01/31 23:53:09.5	174.410	-0.050	-0.190	1.630
2020/01/31 23:53:09.6	174.400	-0.050	-0.190	1.650
2020/01/31 23:53:09.7	174.390	-0.040	-0.200	1.670
2020/01/31 23:53:09.8	174.380	-0.030	-0.200	1.680
2020/01/31 23:53:09.9	174.370	-0.030	-0.210	1.700
2020/01/31 23:53:10.0	174.350	-0.020	-0.220	1.710
2020/01/31 23:53:10.1	174.340	-0.010	-0.230	1.720
2020/01/31 23:53:10.2	174.340	-0.010	-0.240	1.730
2020/01/31 23:53:10.3	174.330	0.000	-0.250	1.740
2020/01/31 23:53:10.4	174.320	0.010	-0.260	1.750
2020/01/31 23:53:10.5	174.310	0.020	-0.280	1.760
2020/01/31 23:53:10.6	174.300	0.030	-0.290	1.770
2020/01/31 23:53:10.7	174.290	0.040	-0.300	1.770
2020/01/31 23:53:10.8	174.280	0.040	-0.310	1.780
2020/01/31 23:53:10.9	174.270	0.050	-0.330	1.780
2020/01/31 23:53:11.0	174.260	0.060	-0.330	1.780
2020/01/31 23:53:11.1	174.250	0.070	-0.340	1.780
2020/01/31 23:53:11.2	174.240	0.080	-0.350	1.790
2020/01/31 23:53:11.3	174.230	0.090	-0.360	1.790
2020/01/31 23:53:11.4	174.220	0.100	-0.370	1.790
2020/01/31 23:53:11.5	174.220	0.110	-0.380	1.790
2020/01/31 23:53:11.6	174.210	0.120	-0.380	1.790
2020/01/31 23:53:11.7	174.210	0.120	-0.380	1.780
2020/01/31 23:53:11.8	174.200	0.130	-0.380	1.780
2020/01/31 23:53:11.9	174.200	0.130	-0.380	1.780
2020/01/31 23:53:12.0	174.200	0.140	-0.380	1.770
2020/01/31 23:53:12.1	174.200	0.140	-0.370	1.770
2020/01/31 23:53:12.2	174.200	0.140	-0.360	1.760
2020/01/31 23:53:12.3	174.210	0.140	-0.350	1.750
2020/01/31 23:53:12.4	174.210	0.140	-0.340	1.740
2020/01/31 23:53:12.5	174.220	0.140	-0.320	1.730
2020/01/31 23:53:12.6	174.230	0.140	-0.300	1.720
2020/01/31 23:53:12.7	174.240	0.140	-0.280	1.700
2020/01/31 23:53:12.8	174.250	0.130	-0.260	1.690
2020/01/31 23:53:12.9	174.260	0.120	-0.230	1.670
2020/01/31 23:53:13.0	174.270	0.120	-0.210	1.660
2020/01/31 23:53:13.1	174.280	0.110	-0.180	1.640
2020/01/31 23:53:13.2	174.300	0.100	-0.160	1.630
2020/01/31 23:53:13.3	174.310	0.080	-0.130	1.610
2020/01/31 23:53:13.4	174.330	0.070	-0.100	1.600
2020/01/31 23:53:13.5	174.340	0.060	-0.080	1.590
2020/01/31 23:53:13.6	174.350	0.040	-0.050	1.570
2020/01/31 23:53:13.7	174.360	0.030	-0.030	1.560
2020/01/31 23:53:13.8	174.380	0.010	-0.010	1.550
2020/01/31 23:53:13.9	174.390	-0.000	0.010	1.540
2020/01/31 23:53:14.0	174.390	-0.020	0.030	1.530
2020/01/31 23:53:14.1	174.390	-0.030	0.040	1.530
2020/01/31 23:53:14.2	174.400	-0.050	0.060	1.530
2020/01/31 23:53:14.3	174.410	-0.060	0.070	1.530
2020/01/31 23:53:14.4	174.410	-0.080	0.070	1.530
2020/01/31 23:53:14.5	174.410	-0.090	0.080	1.530
2020/01/31 23:53:14.6	174.410	-0.100	0.080	1.540
2020/01/31 23:53:14.7	174.410	-0.110	0.080	1.540
2020/01/31 23:53:14.8	174.410	-0.120	0.070	1.550
2020/01/31 23:53:14.9	174.400	-0.130	0.070	1.560
2020/01/31 23:53:15.0	174.410	-0.140	0.060	1.580
2020/01/31 23:53:15.1	174.410	-0.150	0.050	1.590
2020/01/31 23:53:15.2	174.400	-0.150	0.030	1.600
2020/01/31 23:53:15.3	174.390	-0.160	0.020	1.620
2020/01/31 23:53:15.4	174.390	-0.160	0.010	1.630
2020/01/31 23:53:15.5	174.380	-0.160	-0.010	1.640
2020/01/31 23:53:15.6	174.370	-0.160	-0.030	1.650
2020/01/31 23:53:15.7	174.360	-0.160	-0.050	1.670
2020/01/31 23:53:15.8	174.360	-0.160	-0.070	1.680
2020/01/31 23:53:15.9	174.350	-0.160	-0.090	1.690
2020/01/31 23:53:16.0	174.330	-0.150	-0.110	1.700
2020/01/31 23:53:16.1	174.330	-0.150	-0.130	1.720
2020/01/31 23:53:16.2	174.320	-0.140	-0.150	1.730
2020/01/31 23:53:16.3	174.310	-0.130	-0.170	1.740
2020/01/31 23:53:16.4	174.300	-0.120	-0.200	1.750
2020/01/31 23:53:16.5	174.290	-0.110	-0.220	1.760
2020/01/31 23:53:16.6	174.270	-0.100	-0.240	1.770
2020/01/31 23:53:16.7	174.260	-0.080	-0.260	1.770
2020/01/31 23:53:16.8	174.250	-0.070	-0.290	1.780
2020/01/31 23:53:16.9	174.230	-0.050	-0.310	1.790
2020/01/31 23:53:17.0	174.210	-0.040	-0.330	1.800
2020/01/31 23:53:17.1	174.200	-0.020	-0.350	1.800
2020/01/31 23:53:17.2	174.180	-0.000	-0.370	1.810
2020/01/31 23:53:17.3	174.170	0.020	-0.400	1.820
2020/01/31 23:53:17.4	174.150	0.040	-0.420	1.820
2020/01/31 23:53:17.5	174.140	0.050	-0.440	1.830
2020/01/31 23:53:17.6	174.130	0.070	-0.460	1.830
2020/01/31 23:53:17.7	174.110	0.090	-0.470	1.840
2020/01/31 23:53:17.8	174.100	0.110	-0.490	1.840
2020/01/31 23:53:17.9	174.090	0.130	-0.500	1.840
2020/01/31 23:53:18.0	174.100	0.140	-0.520	1.840
2020/01/31 23:53:18.1	174.090	0.160	-0.530	1.850
2020/01/31 23:53:18.2	174.090	0.180	-0.540	1.850
2020/01/31 23:53:18.3	174.080	0.190	-0.550	1.840
2020/01/31 23:53:18.4	174.080	0.200	-0.550	1.840
2020/01/31 23:53:18.5	174.080	0.220	-0.560	1.840
2020/01/31 23:53:18.6	174.080	0.230	-0.560	1.840
2020/01/31 23:53:18.7	174.080	0.240	-0.560	1.830
2020/01/31 23:53:18.8	174.080	0.250	-0.560	1.830
2020/01/31 23:53:18.9	174.090	0.260	-0.560	1.820
2020/01/31 23:53:19.0	174.090	0.260	-0.550	1.810
2020/01/31 23:53:19.1	174.100	0.270	-0.540	1.800
2020/01/31 23:53:19.2	174.110	0.270	-0.530	1.790
2020/01/31 23:53:19.3	174.110	0.280	-0.520	1.780
2020/01/31 23:53:19.4	174.120	0.280	-0.510	1.760
2020/01/31 23:53:19.5	174.130	0.280	-0.500	1.750
2020/01/31 23:53:19.6	174.130	0.280	-0.490	1.730
2020/01/31 23:53:19.7	174.140	0.280	-0.470	1.710
2020/01/31 23:53:19.8	174.140	0.280	-0.460	1.690
2020/01/31 23:53:19.9	174.150	0.280	-0.440	1.670
2020/01/31 23:53:20.0	174.140	0.280	-0.430	1.650
2020/01/31 23:53:20.1	174.140	0.270	-0.410	1.630
2020/01/31 23:53:20.2	174.140	0.270	-0.400	1.610
2020/01/31 23:53:20.3	174.140	0.260	-0.380	1.590
2020/01/31 23:53:20.4	174.130	0.260	-0.370	1.570
2020/01/31 23:53:20.5	174.130	0.250	-0.350	1.550
2020/01/31 23:53:20.6	174.130	0.250	-0.330	1.530
2020/01/31 23:53:20.7	174.120	0.240	-0.320	1.510
2020/01/31 23:53:20.8	174.120	0.230	-0.300	1.490
2020/01/31 23:53:20.9	174.120	0.220	-0.280	1.470
2020/01/31 23:53:21.0	174.110	0.210	-0.270	1.440
2020/01/31 23:53:21.1	174.110	0.200	-0.250	1.420
2020/01/31 23:53:21.2	174.110	0.180	-0.230	1.400
2020/01/31 23:53:21.3	174.110	0.170	-0.210	1.380
2020/01/31 23:53:21.4	174.120	0.150	-0.190	1.360
2020/01/31 23:53:21.5	174.120	0.130	-0.170	1.340
2020/01/31 23:53:21.6	174.130	0.110	-0.140	1.320
2020/01/31 23:53:21.7	174.140	0.090	-0.120	1.300
2020/01/31 23:53:21.8	174.150	0.070	-0.100	1.280
2020/01/31 23:53:21.9	174.160	0.050	-0.070	1.260
2020/01/31 23:53:22.0	174.180	0.030	-0.050	1.240
2020/01/31 23:53:22.1	174.200	0.000	-0.030	1.220
2020/01/31 23:53:22.2	174.220	-0.020	-0.000	1.200
2020/01/31 23:53:22.3	174.240	-0.050	0.020	1.190
2020/01/31 23:53:22.4	174.270	-0.080	0.050	1.170
2020/01/31 23:53:22.5	174.290	-0.100	0.070	1.150
2020/01/31 23:53:22.6	174.320	-0.130	0.090	1.140
2020/01/31 23:53:22.7	174.350	-0.160	0.110	1.120
2020/01/31 23:53:22.8	174.380	-0.190	0.130	1.110
2020/01/31 23:53:22.9	174.420	-0.220	0.150	1.100
2020/01/31 23:53:23.0	174.450	-0.250	0.170	1.090
2020/01/31 23:53:23.1	174.480	-0.270	0.180	1.080
2020/01/31 23:53:23.2	174.520	-0.300	0.190	1.080
2020/01/31 23:53:23.3	174.550	-0.330	0.190	1.070
2020/01/31 23:53:23.4	174.580	-0.350	0.190	1.070
2020/01/31 23:53:23.5	174.620	-0.370	0.190	1.070
2020/01/31 23:53:23.6	174.650	-0.390	0.180	1.080
2020/01/31 23:53:23.7	174.680	-0.410	0.170	1.080
2020/01/31 23:53:23.8	174.710	-0.430	0.160	1.090
2020/01/31 23:53:23.9	174.730	-0.440	0.130	1.110
2020/01/31 23:53:24.0	174.760	-0.460	0.110	1.130
2020/01/31 23:53:24.1	174.780	-0.460	0.070	1.150
2020/01/31 23:53:24.2	174.790	-0.470	0.040	1.180
2020/01/31 23:53:24.3	174.810	-0.470	-0.010	1.200
2020/01/31 23:53:24.4	174.810	-0.470	-0.060	1.240
2020/01/31 23:53:24.5	174.820	-0.460	-0.110	1.270
2020/01/31 23:53:24.6	174.820	-0.450	-0.170	1.310
2020/01/31 23:53:24.7	174.810	-0.440	-0.240	1.350
2020/01/31 23:53:24.8	174.800	-0.420	-0.310	1.400
2020/01/31 23:53:24.9	174.790	-0.400	-0.380	1.450
2020/01/31 23:53:25.0	174.760	-0.370	-0.450	1.490
2020/01/31 23:53:25.1	174.730	-0.350	-0.520	1.540
2020/01/31 23:53:25.2	174.710	-0.320	-0.600	1.590
2020/01/31 23:53:25.3	174.680	-0.280	-0.680	1.640
2020/01/31 23:53:25.4	174.650	-0.250	-0.750	1.680
2020/01/31 23:53:25.5	174.620	-0.210	-0.820	1.730
2020/01/31 23:53:25.6	174.590	-0.170	-0.890	1.780
2020/01/31 23:53:25.7	174.560	-0.130	-0.960	1.820
2020/01/31 23:53:25.8	174.520	-0.090	-1.010	1.860
2020/01/31 23:53:25.9	174.490	-0.040	-1.070	1.900
2020/01/31 23:53:26.0	174.450	-0.000	-1.110	1.940
2020/01/31 23:53:26.1	174.410	0.040	-1.150	1.970
2020/01/31 23:53:26.2	174.380	0.080	-1.180	2.000
2020/01/31 23:53:26.3	174.340	0.110	-1.200	2.030
2020/01/31 23:53:26.4	174.310	0.150	-1.220	2.050
2020/01/31 23:53:26.5	174.280	0.180	-1.230	2.070
2020/01/31 23:53:26.6	174.250	0.210	-1.220	2.090
2020/01/31 23:53:26.7	174.230	0.240	-1.210	2.110
2020/01/31 23:53:26.8	174.210	0.260	-1.190	2.120
2020/01/31 23:53:26.9	174.180	0.280	-1.170	2.130
2020/01/31 23:53:27.0	174.180	0.290	-1.140	2.140
2020/01/31 23:53:27.1	174.160	0.310	-1.090	2.140
2020/01/31 23:53:27.2	174.150	0.310	-1.040	2.150
2020/01/31 23:53:27.3	174.140	0.310	-0.990	2.150
2020/01/31 23:53:27.4	174.130	0.310	-0.920	2.150
2020/01/31 23:53:27.5	174.120	0.310	-0.860	2.150
2020/01/31 23:53:27.6	174.120	0.300	-0.780	2.140
2020/01/31 23:53:27.7	174.120	0.280	-0.710	2.140
2020/01/31 23:53:27.8	174.120	0.260	-0.630	2.130
2020/01/31 23:53:27.9	174.120	0.240	-0.540	2.120
2020/01/31 23:53:28.0	174.140	0.220	-0.450	2.120
2020/01/31 23:53:28.1	174.150	0.190	-0.370	2.110
2020/01/31 23:53:28.2	174.160	0.160	-0.290	2.090
2020/01/31 23:53:28.3	174.170	0.130	-0.200	2.080
2020/01/31 23:53:28.4	174.180	0.090	-0.120	2.070
2020/01/31 23:53:28.5	174.190	0.050	-0.040	2.050
2020/01/31 23:53:28.6	174.200	0.020	0.030	2.030
2020/01/31 23:53:28.7	174.210	-0.020	0.100	2.020
2020/01/31 23:53:28.8	174.220	-0.060	0.170	2.000
2020/01/31 23:53:28.9	174.230	-0.100	0.230	1.980
2020/01/31 23:53:29.0	174.250	-0.140	0.290	1.960
2020/01/31 23:53:29.1	174.260	-0.170	0.340	1.940
2020/01/31 23:53:29.2	174.270	-0.210	0.390	1.920
2020/01/31 23:53:29.3	174.270	-0.240	0.420	1.900
2020/01/31 23:53:29.4	174.280	-0.280	0.460	1.890
2020/01/31 23:53:29.5	174.290	-0.310	0.480	1.870
2020/01/31 23:53:29.6	174.290	-0.330	0.500	1.860
2020/01/31 23:53:29.7	174.290	-0.360	0.520	1.840
2020/01/31 23:53:29.8	174.290	-0.380	0.520	1.830
2020/01/31 23:53:29.9	174.300	-0.400	0.530	1.820
2020/01/31 23:53:30.0	174.290	-0.420	0.520	1.820
2020/01/31 23:53:30.1	174.290	-0.430	0.510	1.810
2020/01/31 23:53:30.2	174.290	-0.440	0.500	1.810
2020/01/31 23:53:30.3	174.290	-0.450	0.490	1.800
2020/01/31 23:53:30.4	174.300	-0.460	0.470	1.800
2020/01/31 23:53:30.5	174.300	-0.460	0.450	1.790
2020/01/31 23:53:30.6	174.310	-0.460	0.430	1.790
2020/01/31 23:53:30.7	174.320	-0.450	0.410	1.790
2020/01/31 23:53:30.8	174.330	-0.450	0.380	1.780
2020/01/31 23:53:30.9	174.340	-0.440	0.350	1.780
2020/01/31 23:53:31.0	174.350	-0.430	0.330	1.770
2020/01/31 23:53:31.1	174.370	-0.410	0.310	1.760
2020/01/31 23:53:31.2	174.390	-0.390	0.280	1.750
2020/01/31 23:53:31.3	174.410	-0.370	0.250	1.740
2020/01/31 23:53:31.4	174.440	-0.350	0.230	1.730
2020/01/31 23:53:31.5	174.460	-0.330	0.200	1.710
2020/01/31 23:53:31.6	174.490	-0.300	0.180	1.700
2020/01/31 23:53:31.7	174.520	-0.270	0.160	1.680
2020/01/31 23:53:31.8	174.540	-0.240	0.130	1.660
2020/01/31 23:53:31.9	174.570	-0.210	0.110	1.640
2020/01/31 23:53:32.0	174.580	-0.180	0.090	1.620
2020/01/31 23:53:32.1	174.610	-0.150	0.060	1.600
2020/01/31 23:53:32.2	174.630	-0.110	0.040	1.580
2020/01/31 23:53:32.3	174.660	-0.080	0.020	1.560
2020/01/31 23:53:32.4	174.680	-0.040	-0.000	1.540
2020/01/31 23:53:32.5	174.700	-0.000	-0.020	1.520
2020/01/31 23:53:32.6	174.720	0.030	-0.050	1.500
2020/01/31 23:53:32.7	174.730	0.070	-0.070	1.480
2020/01/31 23:53:32.8	174.740	0.110	-0.090	1.460
2020/01/31 23:53:32.9	174.760	0.150	-0.110	1.440
2020/01/31 23:53:33.0	174.760	0.190	-0.130	1.420
2020/01/31 23:53:33.1	174.770	0.230	-0.150	1.400
2020/01/31 23:53:33.2	174.770	0.260	-0.170	1.380
2020/01/31 23:53:33.3	174.780	0.300	-0.190	1.350
2020/01/31 23:53:33.4	174.780	0.340	-0.210	1.330
2020/01/31 23:53:33.5	174.780	0.370	-0.230	1.310
2020/01/31 23:53:33.6	174.790	0.410	-0.250	1.290
2020/01/31 23:53:33.7	174.790	0.440	-0.260	1.260
2020/01/31 23:53:33.8	174.790	0.470	-0.280	1.240
2020/01/31 23:53:33.9	174.800	0.490	-0.290	1.220
2020/01/31 23:53:34.0	174.800	0.520	-0.300	1.190
2020/01/31 23:53:34.1	174.800	0.540	-0.310	1.170
2020/01/31 23:53:34.2	174.810	0.560	-0.320	1.150
2020/01/31 23:53:34.3	174.810	0.580	-0.330	1.130
2020/01/31 23:53:34.4	174.820	0.600	-0.340	1.110
2020/01/31 23:53:34.5	174.820	0.610	-0.350	1.100
2020/01/31 23:53:34.6	174.830	0.620	-0.350	1.080
2020/01/31 23:53:34.7	174.840	0.630	-0.360	1.060
2020/01/31 23:53:34.8	174.840	0.630	-0.360	1.050
2020/01/31 23:53:34.9	174.850	0.630	-0.360	1.040
2020/01/31 23:53:35.0	174.840	0.630	-0.370	1.030
2020/01/31 23:53:35.1	174.850	0.620	-0.370	1.020
2020/01/31 23:53:35.2	174.850	0.610	-0.380	1.010
2020/01/31 23:53:35.3	174.850	0.600	-0.380	1.010
2020/01/31 23:53:35.4	174.850	0.580	-0.380	1.010
2020/01/31 23:53:35.5	174.850	0.560	-0.380	1.010
2020/01/31 23:53:35.6	174.850	0.540	-0.390	1.010
2020/01/31 23:53:35.7	174.850	0.520	-0.390	1.020
2020/01/31 23:53:35.8	174.850	0.490	-0.390	1.030
2020/01/31 23:53:35.9	174.840	0.460	-0.400	1.040
2020/01/31 23:53:36.0	174.830	0.430	-0.400	1.060
2020/01/31 23:53:36.1	174.820	0.400	-0.410	1.070
2020/01/31 23:53:36.2	174.810	0.370	-0.410	1.090
2020/01/31 23:53:36.3	174.800	0.330	-0.420	1.120
2020/01/31 23:53:36.4	174.790	0.300	-0.420	1.150
2020/01/31 23:53:36.5	174.780	0.260	-0.430	1.180
2020/01/31 23:53:36.6	174.770	0.220	-0.430	1.210
2020/01/31 23:53:36.7	174.760	0.180	-0.440	1.240
2020/01/31 23:53:36.8	174.750	0.140	-0.440	1.280
2020/01/31 23:53:36.9	174.740	0.100	-0.440	1.320
2020/01/31 23:53:37.0	174.740	0.060	-0.450	1.360
2020/01/31 23:53:37.1	174.730	0.020	-0.450	1.400
2020/01/31 23:53:37.2	174.720	-0.020	-0.450	1.450
2020/01/31 23:53:37.3	174.720	-0.060	-0.450	1.490
2020/01/31 23:53:37.4	174.710	-0.100	-0.450	1.530
2020/01/31 23:53:37.5	174.710	-0.130	-0.450	1.570
2020/01/31 23:53:37.6	174.710	-0.170	-0.450	1.610
2020/01/31 23:53:37.7	174.710	-0.200	-0.440	1.640
2020/01/31 23:53:37.8	174.710	-0.230	-0.440	1.680
2020/01/31 23:53:37.9	174.710	-0.260	-0.440	1.710
2020/01/31 23:53:38.0	174.720	-0.290	-0.440	1.750
2020/01/31 23:53:38.1	174.720	-0.310	-0.430	1.780
2020/01/31 23:53:38.2	174.730	-0.330	-0.430	1.800
2020/01/31 23:53:38.3	174.730	-0.350	-0.430	1.830
2020/01/31 23:53:38.4	174.740	-0.360	-0.430	1.850
2020/01/31 23:53:38.5	174.740	-0.380	-0.430	1.880
2020/01/31 23:53:38.6	174.750	-0.380	-0.430	1.900
2020/01/31 23:53:38.7	174.750	-0.390	-0.430	1.920
2020/01/31 23:53:38.8	174.750	-0.390	-0.440	1.940
2020/01/31 23:53:38.9	174.750	-0.390	-0.440	1.960
2020/01/31 23:53:39.0	174.740	-0.390	-0.450	1.970
2020/01/31 23:53:39.1	174.740	-0.380	-0.460	1.990
2020/01/31 23:53:39.2	174.740	-0.370	-0.470	2.000
2020/01/31 23:53:39.3	174.740	-0.350	-0.480	2.020
2020/01/31 23:53:39.4	174.730	-0.340	-0.500	2.030
2020/01/31 23:53:39.5	174.730	-0.320	-0.520	2.050
2020/01/31 23:53:39.6	174.720	-0.300	-0.530	2.060
2020/01/31 23:53:39.7	174.710	-0.270	-0.550	2.080
2020/01/31 23:53:39.8	174.700	-0.250	-0.570	2.090
2020/01/31 23:53:39.9	174.680	-0.220	-0.590	2.100
2020/01/31 23:53:40.0	174.660	-0.200	-0.610	2.110
2020/01/31 23:53:40.1	174.650	-0.170	-0.630	2.120
2020/01/31 23:53:40.2	174.630	-0.140	-0.650	2.130
2020/01/31 23:53:40.3	174.610	-0.110	-0.670	2.140
2020/01/31 23:53:40.4	174.590	-0.080	-0.690	2.150
2020/01/31 23:53:40.5	174.570	-0.050	-0.710	2.150
2020/01/31 23:53:40.6	174.550	-0.020	-0.720	2.160
2020/01/31 23:53:40.7	174.520	0.000	-0.740	2.160
2020/01/31 23:53:40.8	174.500	0.030	-0.750	2.160
2020/01/31 23:53:40.9	174.480	0.060	-0.760	2.160
2020/01/31 23:53:41.0	174.470	0.080	-0.770	2.160
2020/01/31 23:53:41.1	174.440	0.100	-0.780	2.160
2020/01/31 23:53:41.2	174.420	0.120	-0.780	2.160
2020/01/31 23:53:41.3	174.400	0.140	-0.770	2.150
2020/01/31 23:53:41.4	174.380	0.160	-0.770	2.150
2020/01/31 23:53:41.5	174.360	0.170	-0.760	2.140
2020/01/31 23:53:41.6	174.350	0.180	-0.740	2.130
2020/01/31 23:53:41.7	174.340	0.190	-0.720	2.120
2020/01/31 23:53:41.8	174.330	0.200	-0.700	2.100
2020/01/31 23:53:41.9	174.320	0.200	-0.670	2.080
2020/01/31 23:53:42.0	174.330	0.200	-0.630	2.060
2020/01/31 23:53:42.1	174.330	0.200	-0.590	2.030
2020/01/31 23:53:42.2	174.330	0.200	-0.550	2.010
2020/01/31 23:53:42.3	174.340	0.190	-0.500	1.980
2020/01/31 23:53:42.4	174.350	0.180	-0.450	1.940
2020/01/31 23:53:42.5	174.360	0.160	-0.390	1.910
2020/01/31 23:53:42.6	174.380	0.150	-0.340	1.870
2020/01/31 23:53:42.7	174.400	0.130	-0.280	1.840
2020/01/31 23:53:42.8	174.420	0.110	-0.220	1.800
2020/01/31 23:53:42.9	174.440	0.080	-0.160	1.760
2020/01/31 23:53:43.0	174.470	0.060	-0.090	1.720
2020/01/31 23:53:43.1	174.500	0.030	-0.030	1.680
2020/01/31 23:53:43.2	174.520	-0.000	0.030	1.640
2020/01/31 23:53:43.3	174.550	-0.030	0.080	1.600
2020/01/31 23:53:43.4	174.580	-0.060	0.140	1.560
2020/01/31 23:53:43.5	174.600	-0.090	0.190	1.530
2020/01/31 23:53:43.6	174.630	-0.130	0.240	1.500
2020/01/31 23:53:43.7	174.660	-0.160	0.280	1.470
2020/01/31 23:53:43.8	174.680	-0.190	0.320	1.440
2020/01/31 23:53:43.9	174.710	-0.230	0.350	1.420
2020/01/31 23:53:44.0	174.730	-0.260	0.380	1.400
2020/01/31 23:53:44.1	174.750	-0.290	0.400	1.390
2020/01/31 23:53:44.2	174.770	-0.320	0.420	1.380
2020/01/31 23:53:44.3	174.780	-0.350	0.430	1.370
2020/01/31 23:53:44.4	174.800	-0.370	0.430	1.370
2020/01/31 23:53:44.5	174.810	-0.400	0.430	1.370
2020/01/31 23:53:44.6	174.830	-0.420	0.420	1.370
2020/01/31 23:53:44.7	174.840	-0.440	0.400	1.380
2020/01/31 23:53:44.8	174.850	-0.460	0.380	1.390
2020/01/31 23:53:44.9	174.860	-0.470	0.360	1.410
2020/01/31 23:53:45.0	174.840	-0.480	0.330	1.420
2020/01/31 23:53:45.1	174.850	-0.490	0.300	1.440
2020/01/31 23:53:45.2	174.850	-0.500	0.260	1.460
2020/01/31 23:53:45.3	174.850	-0.500	0.220	1.490
2020/01/31 23:53:45.4	174.860	-0.500	0.180	1.510
2020/01/31 23:53:45.5	174.860	-0.500	0.140	1.530
2020/01/31 23:53:45.6	174.860	-0.490	0.100	1.560
2020/01/31 23:53:45.7	174.860	-0.490	0.060	1.580
2020/01/31 23:53:45.8	174.860	-0.480	0.020	1.610
2020/01/31 23:53:45.9	174.860	-0.460	-0.010	1.630
2020/01/31 23:53:46.0	174.860	-0.450	-0.050	1.650
2020/01/31 23:53:46.1	174.860	-0.430	-0.080	1.670
2020/01/31 23:53:46.2	174.850	-0.420	-0.110	1.690
2020/01/31 23:53:46.3	174.850	-0.390	-0.140	1.710
2020/01/31 23:53:46.4	174.840	-0.370	-0.170	1.730
2020/01/31 23:53:46.5	174.840	-0.350	-0.190	1.750
2020/01/31 23:53:46.6	174.830	-0.320	-0.210	1.760
2020/01/31 23:53:46.7	174.830	-0.290	-0.230	1.780
2020/01/31 23:53:46.8	174.820	-0.270	-0.240	1.800
2020/01/31 23:53:46.9	174.810	-0.240	-0.250	1.810
2020/01/31 23:53:47.0	174.810	-0.200	-0.260	1.820
2020/01/31 23:53:47.1	174.800	-0.170	-0.270	1.830
2020/01/31 23:53:47.2	174.790	-0.140	-0.270	1.840
2020/01/31 23:53:47.3	174.790	-0.110	-0.270	1.840
2020/01/31 23:53:47.4	174.780	-0.070	-0.270	1.840
2020/01/31 23:53:47.5	174.780	-0.040	-0.260	1.840
2020/01/31 23:53:47.6	174.770	-0.010	-0.260	1.830
2020/01/31 23:53:47.7	174.770	0.020	-0.250	1.830
2020/01/31 23:53:47.8	174.770	0.060	-0.250	1.820
2020/01/31 23:53:47.9	174.770	0.090	-0.240	1.800
2020/01/31 23:53:48.0	174.780	0.120	-0.230	1.790
2020/01/31 23:53:48.1	174.780	0.150	-0.220	1.770
2020/01/31 23:53:48.2	174.790	0.170	-0.200	1.750
2020/01/31 23:53:48.3	174.790	0.200	-0.190	1.730
2020/01/31 23:53:48.4	174.800	0.220	-0.180	1.700
2020/01/31 23:53:48.5	174.810	0.250	-0.170	1.680
2020/01/31 23:53:48.6	174.820	0.270	-0.160	1.650
2020/01/31 23:53:48.7	174.840	0.290	-0.140	1.620
2020/01/31 23:53:48.8	174.850	0.310	-0.130	1.600
2020/01/31 23:53:48.9	174.870	0.320	-0.120	1.570
2020/01/31 23:53:49.0	174.890	0.340	-0.110	1.540
2020/01/31 23:53:49.1	174.910	0.350	-0.100	1.510
2020/01/31 23:53:49.2	174.930	0.360	-0.080	1.480
2020/01/31 23:53:49.3	174.950	0.360	-0.070	1.450
2020/01/31 23:53:49.4	174.970	0.370	-0.060	1.420
2020/01/31 23:53:49.5	175.000	0.370	-0.040	1.390
2020/01/31 23:53:49.6	175.020	0.370	-0.030	1.350
2020/01/31 23:53:49.7	175.050	0.370	-0.020	1.320
2020/01/31 23:53:49.8	175.070	0.360	-0.010	1.290
2020/01/31 23:53:49.9	175.100	0.360	0.000	1.260
2020/01/31 23:53:50.0	175.130	0.350	0.010	1.230
2020/01/31 23:53:50.1	175.150	0.340	0.020	1.200
2020/01/31 23:53:50.2	175.180	0.330	0.030	1.180
2020/01/31 23:53:50.3	175.210	0.320	0.030	1.150
2020/01/31 23:53:50.4	175.240	0.300	0.040	1.130
2020/01/31 23:53:50.5	175.270	0.290	0.040	1.110
2020/01/31 23:53:50.6	175.300	0.270	0.040	1.080
2020/01/31 23:53:50.7	175.320	0.250	0.030	1.070
2020/01/31 23:53:50.8	175.350	0.240	0.030	1.050
2020/01/31 23:53:50.9	175.370	0.220	0.020	1.030
2020/01/31 23:53:51.0	175.380	0.200	-0.000	1.020
2020/01/31 23:53:51.1	175.400	0.180	-0.020	1.010
2020/01/31 23:53:51.2	175.420	0.170	-0.040	1.010
2020/01/31 23:53:51.3	175.430	0.150	-0.060	1.010
2020/01/31 23:53:51.4	175.440	0.140	-0.090	1.010
2020/01/31 23:53:51.5	175.440	0.130	-0.130	1.020
2020/01/31 23:53:51.6	175.450	0.120	-0.160	1.020
2020/01/31 23:53:51.7	175.450	0.110	-0.210	1.040
2020/01/31 23:53:51.8	175.440	0.100	-0.250	1.060
2020/01/31 23:53:51.9	175.440	0.100	-0.300	1.080
2020/01/31 23:53:52.0	175.420	0.090	-0.350	1.110
2020/01/31 23:53:52.1	175.410	0.090	-0.410	1.140
2020/01/31 23:53:52.2	175.390	0.100	-0.460	1.170
2020/01/31 23:53:52.3	175.370	0.100	-0.520	1.210
2020/01/31 23:53:52.4	175.350	0.110	-0.590	1.240
2020/01/31 23:53:52.5	175.330	0.110	-0.650	1.280
2020/01/31 23:53:52.6	175.310	0.120	-0.710	1.320
2020/01/31 23:53:52.7	175.290	0.130	-0.770	1.360
2020/01/31 23:53:52.8	175.260	0.140	-0.820	1.400
2020/01/31 23:53:52.9	175.240	0.150	-0.880	1.430
2020/01/31 23:53:53.0	175.200	0.160	-0.930	1.470
2020/01/31 23:53:53.1	175.180	0.170	-0.980	1.510
2020/01/31 23:53:53.2	175.160	0.180	-1.020	1.550
2020/01/31 23:53:53.3	175.140	0.190	-1.060	1.580
2020/01/31 23:53:53.4	175.120	0.200	-1.090	1.620
2020/01/31 23:53:53.5	175.100	0.200	-1.120	1.660
2020/01/31 23:53:53.6	175.080	0.210	-1.140	1.690
2020/01/31 23:53:53.7	175.060	0.210	-1.160	1.730
2020/01/31 23:53:53.8	175.040	0.210	-1.170	1.760
2020/01/31 23:53:53.9	175.030	0.210	-1.170	1.800
2020/01/31 23:53:54.0	175.020	0.200	-1.170	1.830
2020/01/31 23:53:54.1	175.000	0.190	-1.160	1.860
2020/01/31 23:53:54.2	174.990	0.180	-1.140	1.890
2020/01/31 23:53:54.3	174.980	0.170	-1.120	1.920
2020/01/31 23:53:54.4	174.970	0.160	-1.100	1.950
2020/01/31 23:53:54.5	174.960	0.140	-1.060	1.970
2020/01/31 23:53:54.6	174.950	0.120	-1.030	2.000
2020/01/31 23:53:54.7	174.940	0.100	-0.990	2.020
2020/01/31 23:53:54.8	174.930	0.080	-0.940	2.040
2020/01/31 23:53:54.9	174.920	0.050	-0.890	2.060
2020/01/31 23:53:55.0	174.910	0.020	-0.840	2.080
2020/01/31 23:53:55.1	174.900	-0.000	-0.790	2.090
2020/01/31 23:53:55.2	174.890	-0.030	-0.730	2.110
2020/01/31 23:53:55.3	174.880	-0.060	-0.670	2.120
2020/01/31 23:53:55.4	174.880	-0.090	-0.610	2.120
2020/01/31 23:53:55.5	174.870	-0.120	-0.540	2.130
2020/01/31 23:53:55.6	174.860	-0.140	-0.480	2.130
2020/01/31 23:53:55.7	174.850	-0.170	-0.420	2.140
2020/01/31 23:53:55.8	174.840	-0.200	-0.360	2.140
2020/01/31 23:53:55.9	174.830	-0.230	-0.300	2.140
2020/01/31 23:53:56.0	174.810	-0.250	-0.240	2.130
2020/01/31 23:53:56.1	174.800	-0.270	-0.180	2.120
2020/01/31 23:53:56.2	174.800	-0.290	-0.130	2.120
2020/01/31 23:53:56.3	174.790	-0.310	-0.080	2.110
2020/01/31 23:53:56.4	174.780	-0.330	-0.030	2.100
2020/01/31 23:53:56.5	174.780	-0.340	0.020	2.080
2020/01/31 23:53:56.6	174.780	-0.360	0.060	2.070
2020/01/31 23:53:56.7	174.780	-0.370	0.100	2.050
2020/01/31 23:53:56.8	174.780	-0.380	0.130	2.020
2020/01/31 23:53:56.9	174.780	-0.380	0.170	2.000
2020/01/31 23:53:57.0	174.790	-0.390	0.200	1.980
2020/01/31 23:53:57.1	174.800	-0.390	0.220	1.950
2020/01/31 23:53:57.2	174.810	-0.390	0.240	1.920
2020/01/31 23:53:57.3	174.820	-0.380	0.260	1.890
2020/01/31 23:53:57.4	174.830	-0.380	0.280	1.860
2020/01/31 23:53:57.5	174.840	-0.370	0.290	1.830
2020/01/31 23:53:57.6	174.860	-0.360	0.300	1.800
2020/01/31 23:53:57.7	174.870	-0.350	0.310	1.760
2020/01/31 23:53:57.8	174.890	-0.340	0.320	1.730
2020/01/31 23:53:57.9	174.910	-0.320	0.320	1.690
2020/01/31 23:53:58.0	174.920	-0.310	0.320	1.650
2020/01/31 23:53:58.1	174.950	-0.290	0.320	1.610
2020/01/31 23:53:58.2	174.970	-0.270	0.320	1.570
2020/01/31 23:53:58.3	175.000	-0.250	0.310	1.520
2020/01/31 23:53:58.4	175.030	-0.230	0.310	1.480
2020/01/31 23:53:58.5	175.060	-0.220	0.300	1.430
2020/01/31 23:53:58.6	175.090	-0.200	0.290	1.390
2020/01/31 23:53:58.7	175.130	-0.180	0.280	1.340
2020/01/31 23:53:58.8	175.160	-0.160	0.270	1.300
2020/01/31 23:53:58.9	175.200	-0.140	0.260	1.250
2020/01/31 23:53:59.0	175.250	-0.120	0.260	1.200
2020/01/31 23:53:59.1	175.290	-0.100	0.250	1.150
2020/01/31 23:53:59.2	175.330	-0.080	0.230	1.110
2020/01/31 23:53:59.3	175.360	-0.060	0.220	1.070
2020/01/31 23:53:59.4	175.400	-0.040	0.210	1.020
2020/01/31 23:53:59.5	175.440	-0.030	0.200	0.980
2020/01/31 23:53:59.6	175.480	-0.010	0.190	0.940
2020/01/31 23:53:59.7	175.510	0.000	0.170	0.910
2020/01/31 23:53:59.8	175.550	0.010	0.160	0.870
2020/01/31 23:53:59.9	175.580	0.020	0.150	0.840
2020/01/31 23:54:00.0	175.610	0.040	0.130	0.810
2020/01/31 23:54:00.1	175.640	0.050	0.120	0.790
2020/01/31 23:54:00.2	175.670	0.050	0.100	0.760
2020/01/31 23:54:00.3	175.700	0.060	0.090	0.740
2020/01/31 23:54:00.4	175.730	0.070	0.070	0.730
2020/01/31 23:54:00.5	175.760	0.080	0.050	0.710
2020/01/31 23:54:00.6	175.780	0.080	0.030	0.710
2020/01/31 23:54:00.7	175.800	0.090	0.010	0.700
2020/01/31 23:54:00.8	175.820	0.090	-0.010	0.700
2020/01/31 23:54:00.9	175.840	0.090	-0.030	0.700
2020/01/31 23:54:01.0	175.850	0.100	-0.050	0.700
2020/01/31 23:54:01.1	175.860	0.100	-0.070	0.710
2020/01/31 23:54:01.2	175.870	0.100	-0.100	0.720
2020/01/31 23:54:01.3	175.870	0.100	-0.120	0.740
2020/01/31 23:54:01.4	175.880	0.100	-0.150	0.760
2020/01/31 23:54:01.5	175.880	0.100	-0.180	0.780
2020/01/31 23:54:01.6	175.880	0.100	-0.210	0.810
2020/01/31 23:54:01.7	175.870	0.100	-0.240	0.840
2020/01/31 23:54:01.8	175.870	0.100	-0.280	0.880
2020/01/31 23:54:01.9	175.860	0.100	-0.310	0.920
2020/01/31 23:54:02.0	175.860	0.100	-0.350	0.960
2020/01/31 23:54:02.1	175.840	0.100	-0.390	1.010
2020/01/31 23:54:02.2	175.820	0.100	-0.430	1.060
2020/01/31 23:54:02.3	175.800	0.100	-0.460	1.110
2020/01/31 23:54:02.4	175.780	0.100	-0.500	1.160
2020/01/31 23:54:02.5	175.750	0.100	-0.540	1.220
2020/01/31 23:54:02.6	175.720	0.100	-0.580	1.280
2020/01/31 23:54:02.7	175.690	0.110	-0.620	1.340
2020/01/31 23:54:02.8	175.660	0.110	-0.650	1.400
2020/01/31 23:54:02.9	175.620	0.110	-0.690	1.460
2020/01/31 23:54:03.0	175.600	0.110	-0.720	1.530
2020/01/31 23:54:03.1	175.560	0.110	-0.750	1.590
2020/01/31 23:54:03.2	175.520	0.120	-0.780	1.650
2020/01/31 23:54:03.3	175.490	0.120	-0.800	1.710
2020/01/31 23:54:03.4	175.450	0.120	-0.830	1.770
2020/01/31 23:54:03.5	175.420	0.120	-0.850	1.820
2020/01/31 23:54:03.6	175.380	0.130	-0.860	1.880
2020/01/31 23:54:03.7	175.350	0.130	-0.870	1.920
2020/01/31 23:54:03.8	175.320	0.130	-0.870	1.970
2020/01/31 23:54:03.9	175.290	0.140	-0.880	2.010
2020/01/31 23:54:04.0	175.260	0.140	-0.880	2.050
2020/01/31 23:54:04.1	175.230	0.140	-0.870	2.080
2020/01/31 23:54:04.2	175.210	0.140	-0.850	2.100
2020/01/31 23:54:04.3	175.190	0.140	-0.830	2.120
2020/01/31 23:54:04.4	175.170	0.140	-0.810	2.140
2020/01/31 23:54:04.5	175.150	0.140	-0.780	2.140
2020/01/31 23:54:04.6	175.140	0.140	-0.740	2.150
2020/01/31 23:54:04.7	175.130	0.140	-0.710	2.140
2020/01/31 23:54:04.8	175.120	0.140	-0.660	2.140
2020/01/31 23:54:04.9	175.110	0.130	-0.620	2.130
2020/01/31 23:54:05.0	175.110	0.130	-0.570	2.110
2020/01/31 23:54:05.1	175.110	0.120	-0.510	2.090
2020/01/31 23:54:05.2	175.120	0.120	-0.460	2.070
2020/01/31 23:54:05.3	175.120	0.110	-0.400	2.040
2020/01/31 23:54:05.4	175.130	0.100	-0.340	2.010
2020/01/31 23:54:05.5	175.150	0.090	-0.280	1.980
2020/01/31 23:54:05.6	175.160	0.080	-0.220	1.950
2020/01/31 23:54:05.7	175.180	0.070	-0.160	1.910
2020/01/31 23:54:05.8	175.200	0.060	-0.100	1.870
2020/01/31 23:54:05.9	175.230	0.040	-0.040	1.830
2020/01/31 23:54:06.0	175.250	0.030	0.020	1.790
2020/01/31 23:54:06.1	175.280	0.010	0.070	1.750
2020/01/31 23:54:06.2	175.310	-0.010	0.120	1.700
2020/01/31 23:54:06.3	175.340	-0.030	0.170	1.660
2020/01/31 23:54:06.4	175.380	-0.050	0.220	1.620
2020/01/31 23:54:06.5	175.420	-0.060	0.260	1.570
2020/01/31 23:54:06.6	175.460	-0.080	0.290	1.530
2020/01/31 23:54:06.7	175.500	-0.110	0.320	1.490
2020/01/31 23:54:06.8	175.540	-0.130	0.350	1.440
2020/01/31 23:54:06.9	175.580	-0.150	0.370	1.400
2020/01/31 23:54:07.0	175.630	-0.170	0.380	1.360
2020/01/31 23:54:07.1	175.670	-0.190	0.390	1.320
2020/01/31 23:54:07.2	175.710	-0.210	0.390	1.290
2020/01/31 23:54:07.3	175.750	-0.230	0.390	1.260
2020/01/31 23:54:07.4	175.780	-0.240	0.370	1.240
2020/01/31 23:54:07.5	175.820	-0.260	0.350	1.220
2020/01/31 23:54:07.6	175.850	-0.270	0.330	1.200
2020/01/31 23:54:07.7	175.870	-0.290	0.300	1.180
2020/01/31 23:54:07.8	175.900	-0.300	0.260	1.180
2020/01/31 23:54:07.9	175.910	-0.310	0.210	1.170
2020/01/31 23:54:08.0	175.920	-0.310	0.160	1.180
2020/01/31 23:54:08.1	175.920	-0.320	0.100	1.180
2020/01/31 23:54:08.2	175.930	-0.320	0.040	1.200
2020/01/31 23:54:08.3	175.930	-0.320	-0.020	1.210
2020/01/31 23:54:08.4	175.920	-0.310	-0.100	1.230
2020/01/31 23:54:08.5	175.910	-0.300	-0.170	1.260
2020/01/31 23:54:08.6	175.890	-0.290	-0.250	1.290
2020/01/31 23:54:08.7	175.870	-0.270	-0.330	1.320
2020/01/31 23:54:08.8	175.850	-0.250	-0.410	1.350
2020/01/31 23:54:08.9	175.810	-0.230	-0.490	1.390
2020/01/31 23:54:09.0	175.770	-0.200	-0.580	1.430
2020/01/31 23:54:09.1	175.730	-0.170	-0.660	1.480
2020/01/31 23:54:09.2	175.690	-0.140	-0.740	1.520
2020/01/31 23:54:09.3	175.650	-0.110	-0.810	1.570
2020/01/31 23:54:09.4	175.600	-0.070	-0.890	1.610
2020/01/31 23:54:09.5	175.550	-0.030	-0.950	1.660
2020/01/31 23:54:09.6	175.500	0.010	-1.020	1.700
2020/01/31 23:54:09.7	175.450	0.050	-1.080	1.750
2020/01/31 23:54:09.8	175.400	0.090	-1.120	1.790
2020/01/31 23:54:09.9	175.350	0.130	-1.170	1.830
2020/01/31 23:54:10.0	175.320	0.170	-1.200	1.870
2020/01/31 23:54:10.1	175.270	0.220	-1.230	1.910
2020/01/31 23:54:10.2	175.220	0.260	-1.240	1.940
2020/01/31 23:54:10.3	175.170	0.300	-1.250	1.970
2020/01/31 23:54:10.4	175.130	0.340	-1.250	1.990
2020/01/31 23:54:10.5	175.090	0.370	-1.230	2.010
2020/01/31 23:54:10.6	175.050	0.410	-1.210	2.020
2020/01/31 23:54:10.7	175.020	0.440	-1.170	2.030
2020/01/31 23:54:10.8	174.990	0.460	-1.130	2.030
2020/01/31 23:54:10.9	174.970	0.490	-1.070	2.020
2020/01/31 23:54:11.0	174.960	0.510	-1.010	2.010
2020/01/31 23:54:11.1	174.940	0.520	-0.940	1.990
2020/01/31 23:54:11.2	174.940	0.530	-0.850	1.970
2020/01/31 23:54:11.3	174.930	0.540	-0.770	1.940
2020/01/31 23:54:11.4	174.930	0.540	-0.670	1.910
2020/01/31 23:54:11.5	174.940	0.540	-0.580	1.880
2020/01/31 23:54:11.6	174.940	0.530	-0.470	1.840
2020/01/31 23:54:11.7	174.960	0.510	-0.370	1.800
2020/01/31 23:54:11.8	174.970	0.500	-0.260	1.750
2020/01/31 23:54:11.9	174.990	0.470	-0.160	1.710
2020/01/31 23:54:12.0	175.000	0.440	-0.060	1.660
2020/01/31 23:54:12.1	175.020	0.410	0.040	1.610
2020/01/31 23:54:12.2	175.050	0.380	0.140	1.570
2020/01/31 23:54:12.3	175.070	0.340	0.230	1.520
2020/01/31 23:54:12.4	175.090	0.290	0.320	1.480
2020/01/31 23:54:12.5	175.120	0.250	0.400	1.440
2020/01/31 23:54:12.6	175.140	0.200	0.470	1.400
2020/01/31 23:54:12.7	175.170	0.150	0.530	1.370
2020/01/31 23:54:12.8	175.190	0.100	0.580	1.340
2020/01/31 23:54:12.9	175.220	0.040	0.630	1.310
2020/01/31 23:54:13.0	175.230	-0.010	0.670	1.280
2020/01/31 23:54:13.1	175.250	-0.060	0.690	1.260
2020/01/31 23:54:13.2	175.270	-0.120	0.710	1.240
2020/01/31 23:54:13.3	175.290	-0.170	0.710	1.220
2020/01/31 23:54:13.4	175.310	-0.220	0.710	1.210
2020/01/31 23:54:13.5	175.330	-0.270	0.700	1.200
2020/01/31 23:54:13.6	175.350	-0.320	0.680	1.190
2020/01/31 23:54:13.7	175.360	-0.360	0.650	1.190
2020/01/31 23:54:13.8	175.380	-0.410	0.610	1.190
2020/01/31 23:54:13.9	175.400	-0.450	0.570	1.190
2020/01/31 23:54:14.0	175.410	-0.480	0.530	1.200
2020/01/31 23:54:14.1	175.430	-0.520	0.480	1.210
2020/01/31 23:54:14.2	175.440	-0.550	0.420	1.220
2020/01/31 23:54:14.3	175.450	-0.580	0.370	1.230
2020/01/31 23:54:14.4	175.470	-0.600	0.310	1.250
2020/01/31 23:54:14.5	175.480	-0.620	0.250	1.270
2020/01/31 23:54:14.6	175.490	-0.630	0.190	1.290
2020/01/31 23:54:14.7	175.500	-0.640	0.120	1.310
2020/01/31 23:54:14.8	175.500	-0.650	0.060	1.340
2020/01/31 23:54:14.9	175.510	-0.650	0.000	1.370
2020/01/31 23:54:15.0	175.510	-0.640	-0.050	1.400
2020/01/31 23:54:15.1	175.510	-0.640	-0.110	1.430
2020/01/31 23:54:15.2	175.510	-0.620	-0.160	1.470
2020/01/31 23:54:15.3	175.510	-0.610	-0.220	1.500
2020/01/31 23:54:15.4	175.510	-0.590	-0.270	1.540
2020/01/31 23:54:15.5	175.510	-0.570	-0.310	1.570
2020/01/31 23:54:15.6	175.500	-0.540	-0.350	1.610
2020/01/31 23:54:15.7	175.500	-0.510	-0.390	1.650
2020/01/31 23:54:15.8	175.490	-0.480	-0.430	1.680
2020/01/31 23:54:15.9	175.480	-0.440	-0.460	1.710
2020/01/31 23:54:16.0	175.470	-0.400	-0.480	1.740
2020/01/31 23:54:16.1	175.460	-0.360	-0.510	1.770
2020/01/31 23:54:16.2	175.450	-0.320	-0.530	1.790
2020/01/31 23:54:16.3	175.440	-0.280	-0.540	1.820
2020/01/31 23:54:16.4	175.430	-0.240	-0.550	1.830
2020/01/31 23:54:16.5	175.410	-0.190	-0.560	1.850
2020/01/31 23:54:16.6	175.400	-0.150	-0.560	1.860
2020/01/31 23:54:16.7	175.390	-0.110	-0.560	1.870
2020/01/31 23:54:16.8	175.380	-0.060	-0.560	1.870
2020/01/31 23:54:16.9	175.360	-0.020	-0.550	1.870
2020/01/31 23:54:17.0	175.360	0.020	-0.550	1.870
2020/01/31 23:54:17.1	175.350	0.060	-0.540	1.860
2020/01/31 23:54:17.2	175.330	0.090	-0.520	1.850
2020/01/31 23:54:17.3	175.330	0.130	-0.510	1.830
2020/01/31 23:54:17.4	175.320	0.160	-0.490	1.820
2020/01/31 23:54:17.5	175.310	0.190	-0.480	1.800
2020/01/31 23:54:17.6	175.300	0.220	-0.460	1.780
2020/01/31 23:54:17.7	175.290	0.240	-0.440	1.760
2020/01/31 23:54:17.8	175.290	0.260	-0.420	1.740
2020/01/31 23:54:17.9	175.280	0.280	-0.410	1.720
2020/01/31 23:54:18.0	175.280	0.300	-0.390	1.690
2020/01/31 23:54:18.1	175.280	0.310	-0.380	1.670
2020/01/31 23:54:18.2	175.280	0.320	-0.370	1.650
2020/01/31 23:54:18.3	175.270	0.330	-0.360	1.630
2020/01/31 23:54:18.4	175.270	0.340	-0.360	1.610
2020/01/31 23:54:18.5	175.270	0.340	-0.360	1.600
2020/01/31 23:54:18.6	175.260	0.350	-0.360	1.580
2020/01/31 23:54:18.7	175.260	0.350	-0.360	1.570
2020/01/31 23:54:18.8	175.250	0.350	-0.370	1.560
2020/01/31 23:54:18.9	175.240	0.350	-0.380	1.550
2020/01/31 23:54:19.0	175.220	0.350	-0.390	1.550
2020/01/31 23:54:19.1	175.210	0.350	-0.410	1.540
2020/01/31 23:54:19.2	175.200	0.350	-0.430	1.540
2020/01/31 23:54:19.3	175.190	0.350	-0.450	1.540
2020/01/31 23:54:19.4	175.170	0.350	-0.470	1.540
2020/01/31 23:54:19.5	175.160	0.350	-0.490	1.540
2020/01/31 23:54:19.6	175.140	0.350	-0.520	1.540
2020/01/31 23:54:19.7	175.120	0.340	-0.540	1.540
2020/01/31 23:54:19.8	175.110	0.340	-0.560	1.550
2020/01/31 23:54:19.9	175.090	0.340	-0.580	1.550
2020/01/31 23:54:20.0	175.090	0.340	-0.590	1.550
2020/01/31 23:54:20.1	175.080	0.340	-0.600	1.550
2020/01/31 23:54:20.2	175.060	0.340	-0.610	1.560
2020/01/31 23:54:20.3	175.050	0.330	-0.620	1.560
2020/01/31 23:54:20.4	175.040	0.330	-0.620	1.560
2020/01/31 23:54:20.5	175.030	0.330	-0.610	1.560
2020/01/31 23:54:20.6	175.030	0.320	-0.600	1.570
2020/01/31 23:54:20.7	175.020	0.320	-0.590	1.570
2020/01/31 23:54:20.8	175.020	0.310	-0.570	1.560
2020/01/31 23:54:20.9	175.020	0.310	-0.540	1.560
2020/01/31 23:54:21.0	175.010	0.300	-0.510	1.560
2020/01/31 23:54:21.1	175.020	0.290	-0.470	1.560
2020/01/31 23:54:21.2	175.020	0.280	-0.430	1.550
2020/01/31 23:54:21.3	175.030	0.270	-0.380	1.550
2020/01/31 23:54:21.4	175.040	0.260	-0.330	1.540
2020/01/31 23:54:21.5	175.050	0.240	-0.280	1.540
2020/01/31 23:54:21.6	175.060	0.230	-0.220	1.530
2020/01/31 23:54:21.7	175.070	0.210	-0.170	1.520
2020/01/31 23:54:21.8	175.080	0.200	-0.110	1.520
2020/01/31 23:54:21.9	175.100	0.180	-0.050	1.510
2020/01/31 23:54:22.0	175.100	0.160	0.010	1.500
2020/01/31 23:54:22.1	175.120	0.140	0.060	1.490
2020/01/31 23:54:22.2	175.130	0.120	0.120	1.480
2020/01/31 23:54:22.3	175.150	0.110	0.170	1.470
2020/01/31 23:54:22.4	175.160	0.090	0.210	1.460
2020/01/31 23:54:22.5	175.180	0.070	0.250	1.440
2020/01/31 23:54:22.6	175.190	0.050	0.290	1.430
2020/01/31 23:54:22.7	175.200	0.030	0.320	1.420
2020/01/31 23:54:22.8	175.220	0.010	0.340	1.410
2020/01/31 23:54:22.9	175.230	-0.010	0.360	1.400
2020/01/31 23:54:23.0	175.250	-0.030	0.370	1.380
2020/01/31 23:54:23.1	175.260	-0.050	0.370	1.370
2020/01/31 23:54:23.2	175.270	-0.060	0.370	1.370
2020/01/31 23:54:23.3	175.270	-0.080	0.360	1.360
2020/01/31 23:54:23.4	175.280	-0.090	0.340	1.350
2020/01/31 23:54:23.5	175.290	-0.100	0.320	1.350
2020/01/31 23:54:23.6	175.300	-0.120	0.290	1.350
2020/01/31 23:54:23.7	175.300	-0.130	0.260	1.350
2020/01/31 23:54:23.8	175.310	-0.140	0.220	1.350
2020/01/31 23:54:23.9	175.310	-0.150	0.180	1.360
2020/01/31 23:54:24.0	175.310	-0.150	0.130	1.370
2020/01/31 23:54:24.1	175.310	-0.160	0.080	1.380
2020/01/31 23:54:24.2	175.310	-0.170	0.030	1.390
2020/01/31 23:54:24.3	175.310	-0.170	-0.020	1.410
2020/01/31 23:54:24.4	175.310	-0.180	-0.070	1.430
2020/01/31 23:54:24.5	175.310	-0.180	-0.120	1.450
2020/01/31 23:54:24.6	175.310	-0.190	-0.180	1.470
2020/01/31 23:54:24.7	175.300	-0.190	-0.230	1.500
2020/01/31 23:54:24.8	175.300	-0.190	-0.270	1.530
2020/01/31 23:54:24.9	175.300	-0.190	-0.320	1.560
2020/01/31 23:54:25.0	175.290	-0.190	-0.360	1.590
2020/01/31 23:54:25.1	175.280	-0.190	-0.390	1.620
2020/01/31 23:54:25.2	175.280	-0.200	-0.430	1.660
2020/01/31 23:54:25.3	175.270	-0.200	-0.460	1.690
2020/01/31 23:54:25.4	175.270	-0.200	-0.480	1.730
2020/01/31 23:54:25.5	175.260	-0.200	-0.500	1.760
2020/01/31 23:54:25.6	175.260	-0.200	-0.520	1.800
2020/01/31 23:54:25.7	175.260	-0.200	-0.530	1.830
2020/01/31 23:54:25.8	175.250	-0.190	-0.540	1.860
2020/01/31 23:54:25.9	175.250	-0.190	-0.550	1.890
2020/01/31 23:54:26.0	175.250	-0.190	-0.550	1.920
2020/01/31 23:54:26.1	175.240	-0.190	-0.540	1.950
2020/01/31 23:54:26.2	175.240	-0.190	-0.540	1.980
2020/01/31 23:54:26.3	175.230	-0.180	-0.530	2.000
2020/01/31 23:54:26.4	175.220	-0.180	-0.520	2.020
2020/01/31 23:54:26.5	175.220	-0.180	-0.520	2.040
2020/01/31 23:54:26.6	175.210	-0.170	-0.510	2.060
2020/01/31 23:54:26.7	175.200	-0.170	-0.500	2.070
2020/01/31 23:54:26.8	175.190	-0.160	-0.490	2.090
2020/01/31 23:54:26.9	175.180	-0.150	-0.480	2.100
2020/01/31 23:54:27.0	175.180	-0.140	-0.480	2.100
2020/01/31 23:54:27.1	175.170	-0.130	-0.480	2.110
2020/01/31 23:54:27.2	175.160	-0.120	-0.480	2.110
2020/01/31 23:54:27.3	175.140	-0.110	-0.480	2.120
2020/01/31 23:54:27.4	175.130	-0.090	-0.490	2.120
2020/01/31 23:54:27.5	175.120	-0.080	-0.500	2.120
2020/01/31 23:54:27.6	175.100	-0.060	-0.510	2.120
2020/01/31 23:54:27.7	175.090	-0.040	-0.520	2.110
2020/01/31 23:54:27.8	175.070	-0.030	-0.540	2.110
2020/01/31 23:54:27.9	175.060	-0.010	-0.560	2.100
2020/01/31 23:54:28.0	175.050	0.020	-0.570	2.100
2020/01/31 23:54:28.1	175.030	0.040	-0.590	2.090
2020/01/31 23:54:28.2	175.020	0.060	-0.610	2.080
2020/01/31 23:54:28.3	175.000	0.080	-0.640	2.070
2020/01/31 23:54:28.4	174.990	0.110	-0.660	2.060
2020/01/31 23:54:28.5	174.980	0.130	-0.680	2.040
2020/01/31 23:54:28.6	174.960	0.150	-0.690	2.030
2020/01/31 23:54:28.7	174.950	0.170	-0.710	2.010
2020/01/31 23:54:28.8	174.940	0.190	-0.720	1.990
2020/01/31 23:54:28.9	174.930	0.210	-0.730	1.970
2020/01/31 23:54:29.0	174.910	0.230	-0.730	1.940
2020/01/31 23:54:29.1	174.910	0.250	-0.730	1.920
2020/01/31 23:54:29.2	174.900	0.260	-0.730	1.890
2020/01/31 23:54:29.3	174.900	0.270	-0.720	1.870
2020/01/31 23:54:29.4	174.900	0.280	-0.700	1.840
2020/01/31 23:54:29.5	174.900	0.290	-0.680	1.810
2020/01/31 23:54:29.6	174.910	0.290	-0.650	1.770
2020/01/31 23:54:29.7	174.910	0.300	-0.620	1.740
2020/01/31 23:54:29.8	174.920	0.300	-0.580	1.700
2020/01/31 23:54:29.9	174.940	0.290	-0.540	1.660
2020/01/31 23:54:30.0	174.950	0.290	-0.500	1.620
2020/01/31 23:54:30.1	174.960	0.280	-0.450	1.580
2020/01/31 23:54:30.2	174.970	0.270	-0.400	1.540
2020/01/31 23:54:30.3	174.990	0.250	-0.350	1.500
2020/01/31 23:54:30.4	175.010	0.240	-0.290	1.450
2020/01/31 23:54:30.5	175.020	0.220	-0.240	1.410
2020/01/31 23:54:30.6	175.040	0.200	-0.180	1.370
2020/01/31 23:54:30.7	175.060	0.180	-0.130	1.330
2020/01/31 23:54:30.8	175.070	0.150	-0.080	1.290
2020/01/31 23:54:30.9	175.090	0.130	-0.030	1.260
2020/01/31 23:54:31.0	175.100	0.100	0.020	1.210
2020/01/31 23:54:31.1	175.120	0.070	0.070	1.180
2020/01/31 23:54:31.2	175.130	0.040	0.110	1.150
2020/01/31 23:54:31.3	175.150	0.010	0.150	1.120
2020/01/31 23:54:31.4	175.160	-0.030	0.180	1.090
2020/01/31 23:54:31.5	175.180	-0.060	0.210	1.060
2020/01/31 23:54:31.6	175.190	-0.090	0.240	1.040
2020/01/31 23:54:31.7	175.210	-0.130	0.260	1.010
2020/01/31 23:54:31.8	175.220	-0.170	0.270	0.990
2020/01/31 23:54:31.9	175.240	-0.200	0.290	0.980
2020/01/31 23:54:32.0	175.260	-0.240	0.290	0.970
2020/01/31 23:54:32.1	175.280	-0.270	0.290	0.960
2020/01/31 23:54:32.2	175.290	-0.310	0.290	0.950
2020/01/31 23:54:32.3	175.300	-0.350	0.290	0.950
2020/01/31 23:54:32.4	175.310	-0.380	0.280	0.950
2020/01/31 23:54:32.5	175.320	-0.420	0.260	0.960
2020/01/31 23:54:32.6	175.330	-0.450	0.250	0.970
2020/01/31 23:54:32.7	175.330	-0.480	0.230	0.980
2020/01/31 23:54:32.8	175.340	-0.510	0.210	1.000
2020/01/31 23:54:32.9	175.340	-0.540	0.180	1.030
2020/01/31 23:54:33.0	175.330	-0.570	0.150	1.050
2020/01/31 23:54:33.1	175.330	-0.600	0.120	1.080
2020/01/31 23:54:33.2	175.340	-0.620	0.090	1.120
2020/01/31 23:54:33.3	175.330	-0.640	0.060	1.150
2020/01/31 23:54:33.4	175.330	-0.660	0.020	1.190
2020/01/31 23:54:33.5	175.330	-0.670	-0.010	1.230
2020/01/31 23:54:33.6	175.330	-0.680	-0.050	1.280
2020/01/31 23:54:33.7	175.330	-0.690	-0.090	1.320
2020/01/31 23:54:33.8	175.320	-0.700	-0.120	1.360
2020/01/31 23:54:33.9	175.320	-0.700	-0.160	1.400
2020/01/31 23:54:34.0	175.310	-0.690	-0.200	1.440
2020/01/31 23:54:34.1	175.310	-0.680	-0.230	1.480
2020/01/31 23:54:34.2	175.300	-0.670	-0.270	1.520
2020/01/31 23:54:34.3	175.300	-0.660	-0.300	1.550
2020/01/31 23:54:34.4	175.300	-0.640	-0.330	1.590
2020/01/31 23:54:34.5	175.300	-0.610	-0.360	1.620
2020/01/31 23:54:34.6	175.300	-0.590	-0.390	1.650
2020/01/31 23:54:34.7	175.300	-0.560	-0.410	1.680
2020/01/31 23:54:34.8	175.300	-0.520	-0.430	1.700
2020/01/31 23:54:34.9	175.300	-0.490	-0.450	1.720
2020/01/31 23:54:35.0	175.300	-0.450	-0.470	1.740
2020/01/31 23:54:35.1	175.300	-0.400	-0.480	1.760
2020/01/31 23:54:35.2	175.300	-0.360	-0.490	1.770
2020/01/31 23:54:35.3	175.310	-0.310	-0.500	1.780
2020/01/31 23:54:35.4	175.310	-0.260	-0.500	1.790
2020/01/31 23:54:35.5	175.320	-0.220	-0.500	1.790
2020/01/31 23:54:35.6	175.320	-0.160	-0.490	1.800
2020/01/31 23:54:35.7	175.330	-0.110	-0.490	1.800
2020/01/31 23:54:35.8	175.330	-0.060	-0.470	1.800
2020/01/31 23:54:35.9	175.340	-0.010	-0.460	1.790
2020/01/31 23:54:36.0	175.340	0.040	-0.450	1.790
2020/01/31 23:54:36.1	175.350	0.090	-0.430	1.790
2020/01/31 23:54:36.2	175.360	0.140	-0.410	1.780
2020/01/31 23:54:36.3	175.370	0.190	-0.380	1.770
2020/01/31 23:54:36.4	175.370	0.240	-0.360	1.760
2020/01/31 23:54:36.5	175.380	0.280	-0.330	1.740
2020/01/31 23:54:36.6	175.390	0.330	-0.300	1.730
2020/01/31 23:54:36.7	175.390	0.370	-0.270	1.720
2020/01/31 23:54:36.8	175.400	0.410	-0.240	1.700
2020/01/31 23:54:36.9	175.400	0.450	-0.210	1.680
2020/01/31 23:54:37.0	175.410	0.480	-0.180	1.660
2020/01/31 23:54:37.1	175.410	0.510	-0.150	1.650
2020/01/31 23:54:37.2	175.410	0.540	-0.120	1.630
2020/01/31 23:54:37.3	175.410	0.570	-0.090	1.600
2020/01/31 23:54:37.4	175.410	0.600	-0.060	1.580
2020/01/31 23:54:37.5	175.410	0.620	-0.030	1.560
2020/01/31 23:54:37.6	175.410	0.640	-0.000	1.530
2020/01/31 23:54:37.7	175.410	0.650	0.020	1.500
2020/01/31 23:54:37.8	175.410	0.670	0.050	1.470
2020/01/31 23:54:37.9	175.410	0.680	0.080	1.430
2020/01/31 23:54:38.0	175.390	0.690	0.100	1.400
2020/01/31 23:54:38.1	175.390	0.690	0.120	1.360
2020/01/31 23:54:38.2	175.390	0.700	0.150	1.320
2020/01/31 23:54:38.3	175.380	0.700	0.170	1.280
2020/01/31 23:54:38.4	175.380	0.690	0.180	1.230
2020/01/31 23:54:38.5	175.380	0.690	0.200	1.190
2020/01/31 23:54:38.6	175.370	0.680	0.220	1.150
2020/01/31 23:54:38.7	175.370	0.670	0.230	1.100
2020/01/31 23:54:38.8	175.370	0.650	0.240	1.060
2020/01/31 23:54:38.9	175.370	0.640	0.250	1.020
2020/01/31 23:54:39.0	175.370	0.620	0.260	0.980
2020/01/31 23:54:39.1	175.370	0.600	0.260	0.940
2020/01/31 23:54:39.2	175.370	0.580	0.260	0.910
2020/01/31 23:54:39.3	175.370	0.550	0.260	0.880
2020/01/31 23:54:39.4	175.380	0.520	0.260	0.860
2020/01/31 23:54:39.5	175.380	0.490	0.250	0.830
2020/01/31 23:54:39.6	175.380	0.460	0.240	0.820
2020/01/31 23:54:39.7	175.390	0.430	0.220	0.800
2020/01/31 23:54:39.8	175.390	0.390	0.200	0.800
2020/01/31 23:54:39.9	175.400	0.360	0.180	0.790
2020/01/31 23:54:40.0	175.420	0.330	0.150	0.800
2020/01/31 23:54:40.1	175.420	0.290	0.120	0.800
2020/01/31 23:54:40.2	175.430	0.250	0.080	0.820
2020/01/31 23:54:40.3	175.440	0.220	0.040	0.830
2020/01/31 23:54:40.4	175.450	0.180	-0.000	0.850
2020/01/31 23:54:40.5	175.450	0.150	-0.050	0.880
2020/01/31 23:54:40.6	175.460	0.120	-0.110	0.910
2020/01/31 23:54:40.7	175.460	0.090	-0.170	0.940
2020/01/31 23:54:40.8	175.470	0.060	-0.230	0.980
2020/01/31 23:54:40.9	175.470	0.030	-0.300	1.020
2020/01/31 23:54:41.0	175.480	0.000	-0.360	1.070
2020/01/31 23:54:41.1	175.470	-0.020	-0.440	1.120
2020/01/31 23:54:41.2	175.470	-0.040	-0.510	1.160
2020/01/31 23:54:41.3	175.460	-0.060	-0.580	1.210
2020/01/31 23:54:41.4	175.450	-0.080	-0.660	1.260
2020/01/31 23:54:41.5	175.440	-0.090	-0.730	1.310
2020/01/31 23:54:41.6	175.420	-0.100	-0.810	1.360
2020/01/31 23:54:41.7	175.400	-0.110	-0.880	1.410
2020/01/31 23:54:41.8	175.380	-0.110	-0.950	1.460
2020/01/31 23:54:41.9	175.360	-0.110	-1.020	1.510
2020/01/31 23:54:42.0	175.360	-0.110	-1.090	1.560
2020/01/31 23:54:42.1	175.330	-0.110	-1.150	1.610
2020/01/31 23:54:42.2	175.310	-0.100	-1.200	1.660
2020/01/31 23:54:42.3	175.280	-0.100	-1.250	1.700
2020/01/31 23:54:42.4	175.260	-0.090	-1.300	1.740
2020/01/31 23:54:42.5	175.230	-0.080	-1.330	1.780
2020/01/31 23:54:42.6	175.210	-0.070	-1.360	1.820
2020/01/31 23:54:42.7	175.180	-0.060	-1.380	1.860
2020/01/31 23:54:42.8	175.160	-0.040	-1.390	1.890
2020/01/31 23:54:42.9	175.140	-0.030	-1.400	1.920
2020/01/31 23:54:43.0	175.120	-0.020	-1.400	1.950
2020/01/31 23:54:43.1	175.100	-0.010	-1.380	1.980
2020/01/31 23:54:43.2	175.080	0.000	-1.360	2.000
2020/01/31 23:54:43.3	175.070	0.010	-1.320	2.020
2020/01/31 23:54:43.4	175.060	0.020	-1.280	2.030
2020/01/31 23:54:43.5	175.060	0.030	-1.230	2.050
2020/01/31 23:54:43.6	175.050	0.040	-1.170	2.050
2020/01/31 23:54:43.7	175.050	0.040	-1.100	2.060
2020/01/31 23:54:43.8	175.060	0.050	-1.030	2.050
2020/01/31 23:54:43.9	175.060	0.050	-0.950	2.050
2020/01/31 23:54:44.0	175.070	0.050	-0.860	2.040
2020/01/31 23:54:44.1	175.080	0.050	-0.770	2.020
2020/01/31 23:54:44.2	175.090	0.040	-0.670	2.000
2020/01/31 23:54:44.3	175.110	0.030	-0.580	1.980
2020/01/31 23:54:44.4	175.120	0.020	-0.480	1.950
2020/01/31 23:54:44.5	175.140	0.010	-0.380	1.920
2020/01/31 23:54:44.6	175.150	-0.000	-0.290	1.890
2020/01/31 23:54:44.7	175.170	-0.020	-0.190	1.860
2020/01/31 23:54:44.8	175.190	-0.030	-0.100	1.820
2020/01/31 23:54:44.9	175.200	-0.050	-0.020	1.790
2020/01/31 23:54:45.0	175.210	-0.070	0.060	1.750
2020/01/31 23:54:45.1	175.220	-0.090	0.140	1.710
2020/01/31 23:54:45.2	175.230	-0.120	0.200	1.680
2020/01/31 23:54:45.3	175.240	-0.140	0.260	1.640
2020/01/31 23:54:45.4	175.250	-0.160	0.320	1.610
2020/01/31 23:54:45.5	175.250	-0.190	0.360	1.580
2020/01/31 23:54:45.6	175.250	-0.210	0.390	1.550
2020/01/31 23:54:45.7	175.260	-0.230	0.420	1.520
2020/01/31 23:54:45.8	175.260	-0.260	0.440	1.490
2020/01/31 23:54:45.9	175.250	-0.280	0.440	1.460
2020/01/31 23:54:46.0	175.260	-0.300	0.440	1.440
2020/01/31 23:54:46.1	175.260	-0.320	0.430	1.420
2020/01/31 23:54:46.2	175.250	-0.350	0.420	1.400
2020/01/31 23:54:46.3	175.250	-0.360	0.390	1.390
2020/01/31 23:54:46.4	175.250	-0.380	0.360	1.370
2020/01/31 23:54:46.5	175.240	-0.400	0.320	1.360
2020/01/31 23:54:46.6	175.230	-0.420	0.270	1.350
2020/01/31 23:54:46.7	175.230	-0.430	0.220	1.350
2020/01/31 23:54:46.8	175.220	-0.440	0.170	1.340
2020/01/31 23:54:46.9	175.220	-0.450	0.110	1.340
2020/01/31 23:54:47.0	175.200	-0.460	0.050	1.340
2020/01/31 23:54:47.1	175.200	-0.460	-0.020	1.350
2020/01/31 23:54:47.2	175.190	-0.470	-0.080	1.350
2020/01/31 23:54:47.3	175.190	-0.470	-0.140	1.360
2020/01/31 23:54:47.4	175.180	-0.470	-0.200	1.370
2020/01/31 23:54:47.5	175.180	-0.470	-0.260	1.380
2020/01/31 23:54:47.6	175.180	-0.460	-0.310	1.390
2020/01/31 23:54:47.7	175.180	-0.450	-0.360	1.400
2020/01/31 23:54:47.8	175.170	-0.440	-0.410	1.410
2020/01/31 23:54:47.9	175.170	-0.430	-0.450	1.420
2020/01/31 23:54:48.0	175.170	-0.420	-0.470	1.440
2020/01/31 23:54:48.1	175.170	-0.400	-0.500	1.450
2020/01/31 23:54:48.2	175.170	-0.390	-0.520	1.470
2020/01/31 23:54:48.3	175.170	-0.370	-0.530	1.480
2020/01/31 23:54:48.4	175.170	-0.350	-0.540	1.490
2020/01/31 23:54:48.5	175.170	-0.330	-0.540	1.510
2020/01/31 23:54:48.6	175.170	-0.300	-0.540	1.520
2020/01/31 23:54:48.7	175.170	-0.280	-0.520	1.530
2020/01/31 23:54:48.8	175.160	-0.260	-0.500	1.550
2020/01/31 23:54:48.9	175.160	-0.230	-0.480	1.560
2020/01/31 23:54:49.0	175.150	-0.200	-0.460	1.570
2020/01/31 23:54:49.1	175.140	-0.180	-0.430	1.580
2020/01/31 23:54:49.2	175.130	-0.150	-0.390	1.590
2020/01/31 23:54:49.3	175.120	-0.120	-0.350	1.600
2020/01/31 23:54:49.4	175.110	-0.090	-0.310	1.610
2020/01/31 23:54:49.5	175.100	-0.070	-0.270	1.620
2020/01/31 23:54:49.6	175.080	-0.040	-0.230	1.620
2020/01/31 23:54:49.7	175.070	-0.010	-0.190	1.630
2020/01/31 23:54:49.8	175.050	0.010	-0.140	1.630
2020/01/31 23:54:49.9	175.030	0.040	-0.100	1.640
2020/01/31 23:54:50.0	175.010	0.070	-0.060	1.640
2020/01/31 23:54:50.1	174.990	0.090	-0.020	1.640
2020/01/31 23:54:50.2	174.970	0.110	0.010	1.640
2020/01/31 23:54:50.3	174.950	0.130	0.050	1.640
2020/01/31 23:54:50.4	174.920	0.150	0.080	1.640
2020/01/31 23:54:50.5	174.900	0.170	0.110	1.630
2020/01/31 23:54:50.6	174.880	0.190	0.140	1.630
2020/01/31 23:54:50.7	174.860	0.200	0.160	1.620
2020/01/31 23:54:50.8	174.830	0.210	0.180	1.610
2020/01/31 23:54:50.9	174.810	0.220	0.190	1.610
2020/01/31 23:54:51.0	174.780	0.230	0.210	1.600
2020/01/31 23:54:51.1	174.760	0.240	0.220	1.590
2020/01/31 23:54:51.2	174.730	0.240	0.220	1.580
2020/01/31 23:54:51.3	174.710	0.240	0.220	1.570
2020/01/31 23:54:51.4	174.700	0.250	0.220	1.550
2020/01/31 23:54:51.5	174.680	0.250	0.210	1.540
2020/01/31 23:54:51.6	174.660	0.240	0.200	1.530
2020/01/31 23:54:51.7	174.640	0.240	0.190	1.520
2020/01/31 23:54:51.8	174.630	0.240	0.170	1.510
2020/01/31 23:54:51.9	174.610	0.230	0.150	1.490
2020/01/31 23:54:52.0	174.610	0.220	0.130	1.480
2020/01/31 23:54:52.1	174.600	0.210	0.110	1.460
2020/01/31 23:54:52.2	174.590	0.200	0.090	1.450
2020/01/31 23:54:52.3	174.590	0.190	0.070	1.440
2020/01/31 23:54:52.4	174.580	0.180	0.050	1.420
2020/01/31 23:54:52.5	174.580	0.170	0.020	1.410
2020/01/31 23:54:52.6	174.580	0.160	0.000	1.400
2020/01/31 23:54:52.7	174.580	0.140	-0.020	1.390
2020/01/31 23:54:52.8	174.580	0.130	-0.040	1.370
2020/01/31 23:54:52.9	174.580	0.120	-0.060	1.360
2020/01/31 23:54:53.0	174.580	0.100	-0.080	1.350
2020/01/31 23:54:53.1	174.590	0.090	-0.090	1.340
2020/01/31 23:54:53.2	174.600	0.070	-0.110	1.330
2020/01/31 23:54:53.3	174.610	0.060	-0.120	1.310
2020/01/31 23:54:53.4	174.620	0.040	-0.130	1.300
2020/01/31 23:54:53.5	174.640	0.030	-0.140	1.290
2020/01/31 23:54:53.6	174.650	0.010	-0.140	1.290
2020/01/31 23:54:53.7	174.670	-0.000	-0.150	1.280
2020/01/31 23:54:53.8	174.690	-0.020	-0.150	1.270
2020/01/31 23:54:53.9	174.710	-0.030	-0.150	1.260
2020/01/31 23:54:54.0	174.730	-0.040	-0.150	1.250
2020/01/31 23:54:54.1	174.750	-0.060	-0.150	1.250
2020/01/31 23:54:54.2	174.770	-0.070	-0.150	1.250
2020/01/31 23:54:54.3	174.790	-0.080	-0.150	1.240
2020/01/31 23:54:54.4	174.820	-0.090	-0.150	1.240
2020/01/31 23:54:54.5	174.840	-0.100	-0.150	1.240
2020/01/31 23:54:54.6	174.860	-0.110	-0.150	1.240
2020/01/31 23:54:54.7	174.880	-0.120	-0.150	1.250
2020/01/31 23:54:54.8	174.900	-0.130	-0.150	1.250
2020/01/31 23:54:54.9	174.920	-0.140	-0.160	1.250
2020/01/31 23:54:55.0	174.940	-0.140	-0.170	1.260
2020/01/31 23:54:55.1	174.960	-0.150	-0.180	1.270
2020/01/31 23:54:55.2	174.970	-0.150	-0.190	1.280
2020/01/31 23:54:55.3	174.980	-0.150	-0.210	1.290
2020/01/31 23:54:55.4	175.000	-0.150	-0.230	1.300
2020/01/31 23:54:55.5	175.000	-0.140	-0.260	1.320
2020/01/31 23:54:55.6	175.010	-0.140	-0.290	1.330
2020/01/31 23:54:55.7	175.010	-0.130	-0.330	1.350
2020/01/31 23:54:55.8	175.020	-0.120	-0.360	1.370
2020/01/31 23:54:55.9	175.010	-0.100	-0.410	1.380
2020/01/31 23:54:56.0	175.010	-0.090	-0.450	1.410
2020/01/31 23:54:56.1	175.010	-0.070	-0.500	1.430
2020/01/31 23:54:56.2	175.000	-0.050	-0.550	1.450
2020/01/31 23:54:56.3	174.980	-0.020	-0.610	1.480
2020/01/31 23:54:56.4	174.970	0.010	-0.660	1.500
2020/01/31 23:54:56.5	174.950	0.040	-0.720	1.530
2020/01/31 23:54:56.6	174.930	0.070	-0.770	1.550
2020/01/31 23:54:56.7	174.910	0.100	-0.830	1.580
2020/01/31 23:54:56.8	174.880	0.140	-0.880	1.600
2020/01/31 23:54:56.9	174.860	0.170	-0.930	1.630
2020/01/31 23:54:57.0	174.850	0.210	-0.980	1.660
2020/01/31 23:54:57.1	174.820	0.250	-1.020	1.680
2020/01/31 23:54:57.2	174.800	0.290	-1.060	1.700
2020/01/31 23:54:57.3	174.770	0.330	-1.090	1.720
2020/01/31 23:54:57.4	174.740	0.370	-1.110	1.740
2020/01/31 23:54:57.5	174.720	0.410	-1.130	1.760
2020/01/31 23:54:57.6	174.690	0.440	-1.140	1.780
2020/01/31 23:54:57.7	174.670	0.480	-1.140	1.790
2020/01/31 23:54:57.8	174.650	0.510	-1.140	1.800
2020/01/31 23:54:57.9	174.630	0.540	-1.130	1.810
2020/01/31 23:54:58.0	174.610	0.570	-1.110	1.810
2020/01/31 23:54:58.1	174.600	0.600	-1.080	1.810
2020/01/31 23:54:58.2	174.580	0.620	-1.040	1.810
2020/01/31 23:54:58.3	174.570	0.630	-0.990	1.810
2020/01/31 23:54:58.4	174.570	0.650	-0.940	1.800
2020/01/31 23:54:58.5	174.560	0.650	-0.880	1.800
2020/01/31 23:54:58.6	174.560	0.660	-0.810	1.780
2020/01/31 23:54:58.7	174.560	0.660	-0.740	1.770
2020/01/31 23:54:58.8	174.560	0.650	-0.670	1.750
2020/01/31 23:54:58.9	174.560	0.640	-0.590	1.730
2020/01/31 23:54:59.0	174.560	0.620	-0.500	1.710
2020/01/31 23:54:59.1	174.570	0.600	-0.420	1.680
2020/01/31 23:54:59.2	174.580	0.580	-0.330	1.660
2020/01/31 23:54:59.3	174.590	0.540	-0.240	1.630
2020/01/31 23:54:59.4	174.600	0.510	-0.160	1.610
2020/01/31 23:54:59.5	174.610	0.470	-0.070	1.580
2020/01/31 23:54:59.6	174.620	0.420	0.010	1.560
2020/01/31 23:54:59.7	174.630	0.380	0.080	1.540
2020/01/31 23:54:59.8	174.640	0.320	0.150	1.520
2020/01/31 23:54:59.9	174.650	0.270	0.220	1.500
2020/01/31 23:55:00.0	174.650	0.210	0.280	1.480
2020/01/31 23:55:00.1	174.660	0.150	0.330	1.460
2020/01/31 23:55:00.2	174.670	0.090	0.380	1.450
2020/01/31 23:55:00.3	174.670	0.030	0.420	1.450
2020/01/31 23:55:00.4	174.680	-0.030	0.450	1.440
2020/01/31 23:55:00.5	174.680	-0.100	0.480	1.450
2020/01/31 23:55:00.6	174.680	-0.160	0.490	1.450
2020/01/31 23:55:00.7	174.680	-0.220	0.500	1.460
2020/01/31 23:55:00.8	174.680	-0.280	0.500	1.480
2020/01/31 23:55:00.9	174.680	-0.340	0.490	1.500
2020/01/31 23:55:01.0	174.650	-0.400	0.480	1.520
2020/01/31 23:55:01.1	174.650	-0.460	0.460	1.550
2020/01/31 23:55:01.2	174.640	-0.510	0.430	1.580
2020/01/31 23:55:01.3	174.630	-0.560	0.390	1.610
2020/01/31 23:55:01.4	174.620	-0.600	0.350	1.650
2020/01/31 23:55:01.5	174.610	-0.650	0.310	1.690
2020/01/31 23:55:01.6	174.600	-0.680	0.260	1.730
2020/01/31 23:55:01.7	174.590	-0.720	0.210	1.770
2020/01/31 23:55:01.8	174.580	-0.750	0.160	1.820
2020/01/31 23:55:01.9	174.570	-0.770	0.100	1.860
2020/01/31 23:55:02.0	174.560	-0.790	0.050	1.910
2020/01/31 23:55:02.1	174.540	-0.810	-0.010	1.950
2020/01/31 23:55:02.2	174.530	-0.820	-0.060	2.000
2020/01/31 23:55:02.3	174.510	-0.820	-0.110	2.040
2020/01/31 23:55:02.4	174.500	-0.820	-0.170	2.090
2020/01/31 23:55:02.5	174.480	-0.810	-0.210	2.130
2020/01/31 23:55:02.6	174.470	-0.800	-0.260	2.170
2020/01/31 23:55:02.7	174.460	-0.790	-0.300	2.210
2020/01/31 23:55:02.8	174.440	-0.770	-0.340	2.240
2020/01/31 23:55:02.9	174.430	-0.740	-0.380	2.270
2020/01/31 23:55:03.0	174.420	-0.710	-0.410	2.310
2020/01/31 23:55:03.1	174.410	-0.680	-0.430	2.330
2020/01/31 23:55:03.2	174.400	-0.640	-0.450	2.350
2020/01/31 23:55:03.3	174.390	-0.600	-0.470	2.360
2020/01/31 23:55:03.4	174.380	-0.560	-0.480	2.370
2020/01/31 23:55:03.5	174.370	-0.510	-0.490	2.370
2020/01/31 23:55:03.6	174.360	-0.460	-0.490	2.360
2020/01/31 23:55:03.7	174.350	-0.410	-0.490	2.350
2020/01/31 23:55:03.8	174.350	-0.360	-0.480	2.340
2020/01/31 23:55:03.9	174.340	-0.310	-0.470	2.320
2020/01/31 23:55:04.0	174.360	-0.260	-0.460	2.290
2020/01/31 23:55:04.1	174.350	-0.200	-0.440	2.260
2020/01/31 23:55:04.2	174.350	-0.150	-0.430	2.220
2020/01/31 23:55:04.3	174.350	-0.090	-0.410	2.180
2020/01/31 23:55:04.4	174.350	-0.040	-0.390	2.140
2020/01/31 23:55:04.5	174.350	0.010	-0.370	2.100
2020/01/31 23:55:04.6	174.340	0.060	-0.350	2.050
2020/01/31 23:55:04.7	174.340	0.110	-0.330	2.010
2020/01/31 23:55:04.8	174.340	0.150	-0.310	1.960
2020/01/31 23:55:04.9	174.340	0.200	-0.290	1.920
2020/01/31 23:55:05.0	174.330	0.240	-0.280	1.870
2020/01/31 23:55:05.1	174.320	0.280	-0.260	1.820
2020/01/31 23:55:05.2	174.320	0.310	-0.250	1.780
2020/01/31 23:55:05.3	174.310	0.340	-0.240	1.740
2020/01/31 23:55:05.4	174.310	0.370	-0.240	1.690
2020/01/31 23:55:05.5	174.300	0.400	-0.230	1.650
2020/01/31 23:55:05.6	174.300	0.420	-0.230	1.610
2020/01/31 23:55:05.7	174.300	0.440	-0.230	1.570
2020/01/31 23:55:05.8	174.300	0.460	-0.240	1.540
2020/01/31 23:55:05.9	174.300	0.470	-0.240	1.500
2020/01/31 23:55:06.0	174.310	0.480	-0.250	1.460
2020/01/31 23:55:06.1	174.320	0.480	-0.260	1.420
2020/01/31 23:55:06.2	174.320	0.480	-0.270	1.390
2020/01/31 23:55:06.3	174.330	0.480	-0.280	1.360
2020/01/31 23:55:06.4	174.340	0.470	-0.300	1.320
2020/01/31 23:55:06.5	174.350	0.470	-0.310	1.290
2020/01/31 23:55:06.6	174.360	0.450	-0.320	1.270
2020/01/31 23:55:06.7	174.370	0.440	-0.330	1.240
2020/01/31 23:55:06.8	174.380	0.420	-0.350	1.220
2020/01/31 23:55:06.9	174.390	0.400	-0.360	1.200
2020/01/31 23:55:07.0	174.410	0.380	-0.370	1.180
2020/01/31 23:55:07.1	174.420	0.350	-0.380	1.160
2020/01/31 23:55:07.2	174.430	0.330	-0.390	1.150
2020/01/31 23:55:07.3	174.440	0.300	-0.400	1.140
2020/01/31 23:55:07.4	174.450	0.270	-0.400	1.140
2020/01/31 23:55:07.5	174.460	0.240	-0.410	1.140
2020/01/31 23:55:07.6	174.460	0.210	-0.420	1.140
2020/01/31 23:55:07.7	174.470	0.190	-0.420	1.150
2020/01/31 23:55:07.8	174.470	0.160	-0.420	1.160
2020/01/31 23:55:07.9	174.470	0.130	-0.420	1.180
2020/01/31 23:55:08.0	174.470	0.100	-0.420	1.200
2020/01/31 23:55:08.1	174.470	0.070	-0.420	1.220
2020/01/31 23:55:08.2	174.470	0.040	-0.410	1.240
2020/01/31 23:55:08.3	174.470	0.020	-0.410	1.270
2020/01/31 23:55:08.4	174.470	-0.010	-0.400	1.300
2020/01/31 23:55:08.5	174.470	-0.030	-0.390	1.330
2020/01/31 23:55:08.6	174.470	-0.050	-0.380	1.360
2020/01/31 23:55:08.7	174.470	-0.070	-0.370	1.390
2020/01/31 23:55:08.8	174.470	-0.090	-0.360	1.420
2020/01/31 23:55:08.9	174.470	-0.110	-0.340	1.450
2020/01/31 23:55:09.0	174.480	-0.120	-0.320	1.480
2020/01/31 23:55:09.1	174.490	-0.140	-0.310	1.500
2020/01/31 23:55:09.2	174.490	-0.150	-0.280	1.530
2020/01/31 23:55:09.3	174.500	-0.160	-0.260	1.550
2020/01/31 23:55:09.4	174.510	-0.170	-0.240	1.570
2020/01/31 23:55:09.5	174.520	-0.170	-0.210	1.580
2020/01/31 23:55:09.6	174.530	-0.170	-0.190	1.590
2020/01/31 23:55:09.7	174.540	-0.170	-0.160	1.600
2020/01/31 23:55:09.8	174.550	-0.170	-0.140	1.600
2020/01/31 23:55:09.9	174.570	-0.170	-0.120	1.600
2020/01/31 23:55:10.0	174.580	-0.170	-0.100	1.600
2020/01/31 23:55:10.1	174.600	-0.160	-0.080	1.600
2020/01/31 23:55:10.2	174.620	-0.150	-0.060	1.590
2020/01/31 23:55:10.3	174.640	-0.140	-0.040	1.580
2020/01/31 23:55:10.4	174.650	-0.130	-0.030	1.580
2020/01/31 23:55:10.5	174.670	-0.120	-0.020	1.570
2020/01/31 23:55:10.6	174.690	-0.110	-0.020	1.560
2020/01/31 23:55:10.7	174.700	-0.090	-0.010	1.550
2020/01/31 23:55:10.8	174.710	-0.070	-0.020	1.540
2020/01/31 23:55:10.9	174.720	-0.060	-0.020	1.530
2020/01/31 23:55:11.0	174.720	-0.040	-0.040	1.520
2020/01/31 23:55:11.1	174.730	-0.020	-0.050	1.520
2020/01/31 23:55:11.2	174.730	-0.000	-0.070	1.520
2020/01/31 23:55:11.3	174.730	0.020	-0.100	1.530
2020/01/31 23:55:11.4	174.730	0.030	-0.130	1.530
2020/01/31 23:55:11.5	174.720	0.050	-0.160	1.550
2020/01/31 23:55:11.6	174.720	0.070	-0.200	1.560
2020/01/31 23:55:11.7	174.710	0.090	-0.240	1.580
2020/01/31 23:55:11.8	174.700	0.100	-0.280	1.590
2020/01/31 23:55:11.9	174.680	0.120	-0.320	1.620
2020/01/31 23:55:12.0	174.660	0.130	-0.360	1.640
2020/01/31 23:55:12.1	174.640	0.140	-0.410	1.660
2020/01/31 23:55:12.2	174.630	0.150	-0.450	1.690
2020/01/31 23:55:12.3	174.610	0.160	-0.490	1.710
2020/01/31 23:55:12.4	174.600	0.160	-0.530	1.740
2020/01/31 23:55:12.5	174.580	0.160	-0.560	1.760
2020/01/31 23:55:12.6	174.570	0.160	-0.590	1.780
2020/01/31 23:55:12.7	174.560	0.160	-0.620	1.800
2020/01/31 23:55:12.8	174.550	0.150	-0.640	1.820
2020/01/31 23:55:12.9	174.550	0.140	-0.650	1.840
2020/01/31 23:55:13.0	174.560	0.120	-0.660	1.850
2020/01/31 23:55:13.1	174.560	0.110	-0.660	1.860
2020/01/31 23:55:13.2	174.560	0.090	-0.650	1.870
2020/01/31 23:55:13.3	174.570	0.070	-0.640	1.880
2020/01/31 23:55:13.4	174.580	0.040	-0.620	1.890
2020/01/31 23:55:13.5	174.590	0.010	-0.590	1.900
2020/01/31 23:55:13.6	174.600	-0.020	-0.550	1.910
2020/01/31 23:55:13.7	174.620	-0.050	-0.500	1.910
2020/01/31 23:55:13.8	174.640	-0.080	-0.450	1.910
2020/01/31 23:55:13.9	174.660	-0.120	-0.390	1.910
2020/01/31 23:55:14.0	174.680	-0.150	-0.330	1.920
2020/01/31 23:55:14.1	174.700	-0.190	-0.260	1.920
2020/01/31 23:55:14.2	174.730	-0.220	-0.190	1.920
2020/01/31 23:55:14.3	174.750	-0.260	-0.110	1.920
2020/01/31 23:55:14.4	174.780	-0.300	-0.030	1.910
2020/01/31 23:55:14.5	174.810	-0.330	0.050	1.910
2020/01/31 23:55:14.6	174.830	-0.360	0.130	1.900
2020/01/31 23:55:14.7	174.860	-0.390	0.210	1.890
2020/01/31 23:55:14.8	174.890	-0.420	0.280	1.880
2020/01/31 23:55:14.9	174.910	-0.440	0.350	1.870
2020/01/31 23:55:15.0	174.940	-0.470	0.420	1.860
2020/01/31 23:55:15.1	174.960	-0.480	0.490	1.840
2020/01/31 23:55:15.2	174.980	-0.500	0.540	1.830
2020/01/31 23:55:15.3	175.000	-0.500	0.590	1.810
2020/01/31 23:55:15.4	175.020	-0.510	0.630	1.800
2020/01/31 23:55:15.5	175.030	-0.500	0.660	1.780
2020/01/31 23:55:15.6	175.040	-0.500	0.680	1.760
2020/01/31 23:55:15.7	175.050	-0.480	0.690	1.740
2020/01/31 23:55:15.8	175.050	-0.460	0.680	1.720
2020/01/31 23:55:15.9	175.050	-0.430	0.670	1.710
2020/01/31 23:55:16.0	175.040	-0.400	0.640	1.690
2020/01/31 23:55:16.1	175.040	-0.360	0.600	1.670
2020/01/31 23:55:16.2	175.030	-0.320	0.550	1.650
2020/01/31 23:55:16.3	175.020	-0.270	0.480	1.630
2020/01/31 23:55:16.4	175.000	-0.210	0.410	1.620
2020/01/31 23:55:16.5	174.990	-0.150	0.330	1.600
2020/01/31 23:55:16.6	174.970	-0.090	0.240	1.590
2020/01/31 23:55:16.7	174.950	-0.020	0.140	1.580
2020/01/31 23:55:16.8	174.920	0.050	0.030	1.560
2020/01/31 23:55:16.9	174.900	0.130	-0.080	1.550
2020/01/31 23:55:17.0	174.860	0.200	-0.190	1.540
2020/01/31 23:55:17.1	174.840	0.270	-0.310	1.530
2020/01/31 23:55:17.2	174.810	0.350	-0.430	1.530
2020/01/31 23:55:17.3	174.790	0.420	-0.540	1.530
2020/01/31 23:55:17.4	174.760	0.490	-0.650	1.520
2020/01/31 23:55:17.5	174.740	0.560	-0.760	1.520
2020/01/31 23:55:17.6	174.720	0.620	-0.860	1.530
2020/01/31 23:55:17.7	174.700	0.680	-0.960	1.530
2020/01/31 23:55:17.8	174.680	0.730	-1.040	1.540
2020/01/31 23:55:17.9	174.670	0.770	-1.120	1.550
2020/01/31 23:55:18.0	174.670	0.810	-1.180	1.560
2020/01/31 23:55:18.1	174.660	0.840	-1.230	1.570
2020/01/31 23:55:18.2	174.660	0.870	-1.280	1.590
2020/01/31 23:55:18.3	174.660	0.880	-1.300	1.610
2020/01/31 23:55:18.4	174.670	0.890	-1.320	1.630
2020/01/31 23:55:18.5	174.680	0.890	-1.320	1.650
2020/01/31 23:55:18.6	174.690	0.890	-1.310	1.670
2020/01/31 23:55:18.7	174.710	0.870	-1.280	1.690
2020/01/31 23:55:18.8	174.730	0.840	-1.240	1.710
2020/01/31 23:55:18.9	174.750	0.810	-1.190	1.730
2020/01/31 23:55:19.0	174.780	0.770	-1.130	1.760
2020/01/31 23:55:19.1	174.810	0.730	-1.050	1.770
2020/01/31 23:55:19.2	174.840	0.670	-0.970	1.790
2020/01/31 23:55:19.3	174.880	0.610	-0.870	1.810
2020/01/31 23:55:19.4	174.910	0.550	-0.770	1.820
2020/01/31 23:55:19.5	174.950	0.480	-0.660	1.830
2020/01/31 23:55:19.6	174.990	0.400	-0.550	1.850
2020/01/31 23:55:19.7	175.030	0.330	-0.430	1.850
2020/01/31 23:55:19.8	175.070	0.250	-0.310	1.860
2020/01/31 23:55:19.9	175.110	0.170	-0.200	1.870
2020/01/31 23:55:20.0	175.160	0.090	-0.080	1.870
2020/01/31 23:55:20.1	175.200	0.010	0.030	1.870
2020/01/31 23:55:20.2	175.240	-0.070	0.140	1.870
2020/01/31 23:55:20.3	175.280	-0.150	0.240	1.870
2020/01/31 23:55:20.4	175.310	-0.230	0.340	1.870
2020/01/31 23:55:20.5	175.340	-0.300	0.420	1.870
2020/01/31 23:55:20.6	175.370	-0.360	0.500	1.870
2020/01/31 23:55:20.7	175.400	-0.420	0.560	1.870
2020/01/31 23:55:20.8	175.420	-0.480	0.620	1.870
2020/01/31 23:55:20.9	175.440	-0.530	0.660	1.870
2020/01/31 23:55:21.0	175.440	-0.570	0.680	1.880
2020/01/31 23:55:21.1	175.460	-0.610	0.700	1.880
2020/01/31 23:55:21.2	175.470	-0.630	0.700	1.890
2020/01/31 23:55:21.3	175.480	-0.650	0.690	1.890
2020/01/31 23:55:21.4	175.480	-0.670	0.660	1.900
2020/01/31 23:55:21.5	175.490	-0.670	0.630	1.910
2020/01/31 23:55:21.6	175.490	-0.670	0.580	1.920
2020/01/31 23:55:21.7	175.490	-0.660	0.530	1.930
2020/01/31 23:55:21.8	175.490	-0.650	0.460	1.940
2020/01/31 23:55:21.9	175.490	-0.620	0.390	1.950
2020/01/31 23:55:22.0	175.490	-0.600	0.310	1.960
2020/01/31 23:55:22.1	175.490	-0.560	0.220	1.970
2020/01/31 23:55:22.2	175.490	-0.530	0.120	1.980
2020/01/31 23:55:22.3	175.490	-0.480	0.030	1.990
2020/01/31 23:55:22.4	175.490	-0.440	-0.070	2.000
2020/01/31 23:55:22.5	175.490	-0.390	-0.170	2.010
2020/01/31 23:55:22.6	175.490	-0.330	-0.270	2.020
2020/01/31 23:55:22.7	175.490	-0.280	-0.380	2.020
2020/01/31 23:55:22.8	175.480	-0.220	-0.470	2.030
2020/01/31 23:55:22.9	175.480	-0.160	-0.570	2.030
2020/01/31 23:55:23.0	175.480	-0.100	-0.660	2.030
2020/01/31 23:55:23.1	175.480	-0.040	-0.750	2.030
2020/01/31 23:55:23.2	175.470	0.020	-0.830	2.020
2020/01/31 23:55:23.3	175.460	0.080	-0.900	2.020
2020/01/31 23:55:23.4	175.460	0.130	-0.970	2.010
2020/01/31 23:55:23.5	175.450	0.190	-1.030	2.000
2020/01/31 23:55:23.6	175.440	0.240	-1.070	1.990
2020/01/31 23:55:23.7	175.430	0.290	-1.110	1.970
2020/01/31 23:55:23.8	175.410	0.330	-1.140	1.960
2020/01/31 23:55:23.9	175.400	0.380	-1.160	1.940
2020/01/31 23:55:24.0	175.380	0.420	-1.170	1.920
2020/01/31 23:55:24.1	175.370	0.450	-1.170	1.900
2020/01/31 23:55:24.2	175.350	0.480	-1.160	1.880
2020/01/31 23:55:24.3	175.330	0.500	-1.140	1.850
2020/01/31 23:55:24.4	175.320	0.520	-1.110	1.820
2020/01/31 23:55:24.5	175.300	0.540	-1.070	1.790
2020/01/31 23:55:24.6	175.290	0.550	-1.030	1.760
2020/01/31 23:55:24.7	175.270	0.550	-0.970	1.730
2020/01/31 23:55:24.8	175.260	0.550	-0.910	1.690
2020/01/31 23:55:24.9	175.250	0.540	-0.840	1.650
2020/01/31 23:55:25.0	175.220	0.530	-0.770	1.610
2020/01/31 23:55:25.1	175.210	0.510	-0.690	1.570
2020/01/31 23:55:25.2	175.210	0.490	-0.610	1.540
2020/01/31 23:55:25.3	175.210	0.460	-0.520	1.500
2020/01/31 23:55:25.4	175.210	0.420	-0.430	1.460
2020/01/31 23:55:25.5	175.210	0.380	-0.330	1.430
2020/01/31 23:55:25.6	175.220	0.340	-0.240	1.390
2020/01/31 23:55:25.7	175.220	0.290	-0.150	1.360
2020/01/31 23:55:25.8	175.230	0.230	-0.050	1.340
2020/01/31 23:55:25.9	175.250	0.180	0.040	1.310
2020/01/31 23:55:26.0	175.260	0.120	0.130	1.290
2020/01/31 23:55:26.1	175.280	0.050	0.210	1.270
2020/01/31 23:55:26.2	175.290	-0.010	0.290	1.250
2020/01/31 23:55:26.3	175.310	-0.070	0.370	1.240
2020/01/31 23:55:26.4	175.330	-0.140	0.440	1.240
2020/01/31 23:55:26.5	175.350	-0.200	0.500	1.230
2020/01/31 23:55:26.6	175.370	-0.270	0.550	1.230
2020/01/31 23:55:26.7	175.390	-0.330	0.600	1.230
2020/01/31 23:55:26.8	175.410	-0.390	0.640	1.230
2020/01/31 23:55:26.9	175.430	-0.450	0.660	1.240
2020/01/31 23:55:27.0	175.450	-0.510	0.680	1.250
2020/01/31 23:55:27.1	175.480	-0.560	0.700	1.260
2020/01/31 23:55:27.2	175.500	-0.610	0.700	1.260
2020/01/31 23:55:27.3	175.520	-0.660	0.690	1.270
2020/01/31 23:55:27.4	175.540	-0.690	0.670	1.280
2020/01/31 23:55:27.5	175.570	-0.730	0.650	1.290
2020/01/31 23:55:27.6	175.590	-0.760	0.610	1.300
2020/01/31 23:55:27.7	175.610	-0.780	0.570	1.310
2020/01/31 23:55:27.8	175.620	-0.790	0.520	1.320
2020/01/31 23:55:27.9	175.640	-0.800	0.460	1.340
2020/01/31 23:55:28.0	175.650	-0.810	0.400	1.350
2020/01/31 23:55:28.1	175.660	-0.800	0.330	1.360
2020/01/31 23:55:28.2	175.670	-0.790	0.250	1.370
2020/01/31 23:55:28.3	175.680	-0.770	0.170	1.380
2020/01/31 23:55:28.4	175.690	-0.750	0.090	1.390
2020/01/31 23:55:28.5	175.700	-0.720	-0.000	1.400
2020/01/31 23:55:28.6	175.700	-0.680	-0.090	1.420
2020/01/31 23:55:28.7	175.700	-0.640	-0.180	1.430
2020/01/31 23:55:28.8	175.700	-0.590	-0.270	1.440
2020/01/31 23:55:28.9	175.700	-0.540	-0.360	1.450
2020/01/31 23:55:29.0	175.680	-0.480	-0.450	1.470
2020/01/31 23:55:29.1	175.680	-0.420	-0.540	1.480
2020/01/31 23:55:29.2	175.660	-0.360	-0.620	1.500
2020/01/31 23:55:29.3	175.650	-0.290	-0.700	1.510
2020/01/31 23:55:29.4	175.630	-0.220	-0.770	1.530
2020/01/31 23:55:29.5	175.610	-0.150	-0.840	1.540
2020/01/31 23:55:29.6	175.590	-0.080	-0.900	1.560
2020/01/31 23:55:29.7	175.570	-0.000	-0.950	1.580
2020/01/31 23:55:29.8	175.540	0.070	-0.990	1.600
2020/01/31 23:55:29.9	175.510	0.140	-1.030	1.610
2020/01/31 23:55:30.0	175.500	0.210	-1.060	1.630
2020/01/31 23:55:30.1	175.470	0.280	-1.080	1.650
2020/01/31 23:55:30.2	175.430	0.340	-1.090	1.670
2020/01/31 23:55:30.3	175.400	0.400	-1.090	1.680
2020/01/31 23:55:30.4	175.360	0.460	-1.080	1.700
2020/01/31 23:55:30.5	175.330	0.510	-1.070	1.710
2020/01/31 23:55:30.6	175.290	0.560	-1.050	1.730
2020/01/31 23:55:30.7	175.260	0.600	-1.010	1.740
2020/01/31 23:55:30.8	175.220	0.640	-0.980	1.750
2020/01/31 23:55:30.9	175.190	0.670	-0.930	1.760
2020/01/31 23:55:31.0	175.150	0.700	-0.890	1.760
2020/01/31 23:55:31.1	175.120	0.720	-0.830	1.760
2020/01/31 23:55:31.2	175.090	0.740	-0.770	1.760
2020/01/31 23:55:31.3	175.060	0.740	-0.700	1.760
2020/01/31 23:55:31.4	175.040	0.750	-0.640	1.750
2020/01/31 23:55:31.5	175.010	0.740	-0.560	1.740
2020/01/31 23:55:31.6	174.990	0.730	-0.490	1.730
2020/01/31 23:55:31.7	174.970	0.720	-0.420	1.710
2020/01/31 23:55:31.8	174.950	0.700	-0.340	1.700
2020/01/31 23:55:31.9	174.940	0.670	-0.270	1.680
2020/01/31 23:55:32.0	174.930	0.640	-0.190	1.650
2020/01/31 23:55:32.1	174.920	0.600	-0.120	1.630
2020/01/31 23:55:32.2	174.910	0.560	-0.050	1.610
2020/01/31 23:55:32.3	174.900	0.520	0.020	1.590
2020/01/31 23:55:32.4	174.890	0.470	0.080	1.570
2020/01/31 23:55:32.5	174.880	0.430	0.140	1.540
2020/01/31 23:55:32.6	174.880	0.380	0.200	1.520
2020/01/31 23:55:32.7	174.870	0.320	0.250	1.500
2020/01/31 23:55:32.8	174.870	0.270	0.290	1.480
2020/01/31 23:55:32.9	174.870	0.220	0.340	1.470
2020/01/31 23:55:33.0	174.860	0.160	0.370	1.450
2020/01/31 23:55:33.1	174.860	0.110	0.400	1.440
2020/01/31 23:55:33.2	174.860	0.060	0.430	1.420
2020/01/31 23:55:33.3	174.860	0.010	0.440	1.410
2020/01/31 23:55:33.4	174.860	-0.040	0.460	1.400
2020/01/31 23:55:33.5	174.870	-0.080	0.470	1.400
2020/01/31 23:55:33.6	174.870	-0.120	0.470	1.390
2020/01/31 23:55:33.7	174.880	-0.160	0.470	1.380
2020/01/31 23:55:33.8	174.880	-0.200	0.470	1.380
2020/01/31 23:55:33.9	174.890	-0.230	0.460	1.380
2020/01/31 23:55:34.0	174.900	-0.250	0.440	1.370
2020/01/31 23:55:34.1	174.900	-0.280	0.430	1.370
2020/01/31 23:55:34.2	174.910	-0.290	0.400	1.370
2020/01/31 23:55:34.3	174.920	-0.310	0.380	1.370
2020/01/31 23:55:34.4	174.930	-0.310	0.350	1.370
2020/01/31 23:55:34.5	174.940	-0.320	0.320	1.370
2020/01/31 23:55:34.6	174.950	-0.320	0.290	1.370
2020/01/31 23:55:34.7	174.960	-0.310	0.260	1.380
2020/01/31 23:55:34.8	174.970	-0.310	0.220	1.380
2020/01/31 23:55:34.9	174.980	-0.290	0.180	1.380
2020/01/31 23:55:35.0	174.990	-0.280	0.150	1.380
2020/01/31 23:55:35.1	175.000	-0.260	0.110	1.390
2020/01/31 23:55:35.2	175.020	-0.240	0.070	1.390
2020/01/31 23:55:35.3	175.030	-0.220	0.030	1.400
2020/01/31 23:55:35.4	175.040	-0.190	-0.000	1.400
2020/01/31 23:55:35.5	175.050	-0.160	-0.040	1.410
2020/01/31 23:55:35.6	175.060	-0.140	-0.070	1.410
2020/01/31 23:55:35.7	175.070	-0.110	-0.100	1.420
2020/01/31 23:55:35.8	175.080	-0.080	-0.130	1.430
2020/01/31 23:55:35.9	175.090	-0.060	-0.160	1.430
2020/01/31 23:55:36.0	175.090	-0.030	-0.190	1.440
2020/01/31 23:55:36.1	175.100	-0.010	-0.210	1.450
2020/01/31 23:55:36.2	175.110	0.010	-0.230	1.460
2020/01/31 23:55:36.3	175.120	0.030	-0.250	1.460
2020/01/31 23:55:36.4	175.120	0.050	-0.270	1.470
2020/01/31 23:55:36.5	175.130	0.070	-0.290	1.480
2020/01/31 23:55:36.6	175.130	0.080	-0.300	1.500
2020/01/31 23:55:36.7	175.130	0.090	-0.320	1.510
2020/01/31 23:55:36.8	175.130	0.100	-0.330	1.520
2020/01/31 23:55:36.9	175.120	0.100	-0.340	1.540
2020/01/31 23:55:37.0	175.120	0.100	-0.360	1.560
2020/01/31 23:55:37.1	175.100	0.100	-0.370	1.580
2020/01/31 23:55:37.2	175.090	0.100	-0.390	1.600
2020/01/31 23:55:37.3	175.070	0.090	-0.400	1.630
2020/01/31 23:55:37.4	175.060	0.090	-0.420	1.660
2020/01/31 23:55:37.5	175.030	0.080	-0.440	1.690
2020/01/31 23:55:37.6	175.010	0.070	-0.460	1.730
2020/01/31 23:55:37.7	174.980	0.060	-0.490	1.760
2020/01/31 23:55:37.8	174.950	0.040	-0.510	1.800
2020/01/31 23:55:37.9	174.920	0.030	-0.540	1.840
2020/01/31 23:55:38.0	174.900	0.020	-0.570	1.890
2020/01/31 23:55:38.1	174.870	0.010	-0.600	1.930
2020/01/31 23:55:38.2	174.830	-0.000	-0.640	1.970
2020/01/31 23:55:38.3	174.790	-0.020	-0.670	2.010
2020/01/31 23:55:38.4	174.750	-0.030	-0.710	2.050
2020/01/31 23:55:38.5	174.710	-0.030	-0.740	2.090
2020/01/31 23:55:38.6	174.670	-0.040	-0.780	2.120
2020/01/31 23:55:38.7	174.630	-0.050	-0.810	2.160
2020/01/31 23:55:38.8	174.580	-0.050	-0.850	2.190
2020/01/31 23:55:38.9	174.540	-0.050	-0.880	2.220
2020/01/31 23:55:39.0	174.490	-0.050	-0.910	2.250
2020/01/31 23:55:39.1	174.450	-0.040	-0.940	2.270
2020/01/31 23:55:39.2	174.410	-0.030	-0.970	2.290
2020/01/31 23:55:39.3	174.360	-0.020	-0.990	2.300
2020/01/31 23:55:39.4	174.320	-0.010	-1.010	2.310
2020/01/31 23:55:39.5	174.280	0.000	-1.030	2.320
2020/01/31 23:55:39.6	174.240	0.020	-1.040	2.320
2020/01/31 23:55:39.7	174.200	0.040	-1.050	2.320
2020/01/31 23:55:39.8	174.170	0.060	-1.050	2.320
2020/01/31 23:55:39.9	174.130	0.080	-1.050	2.310
2020/01/31 23:55:40.0	174.100	0.110	-1.040	2.290
2020/01/31 23:55:40.1	174.070	0.130	-1.030	2.270
2020/01/31 23:55:40.2	174.040	0.160	-1.010	2.250
2020/01/31 23:55:40.3	174.010	0.180	-0.990	2.220
2020/01/31 23:55:40.4	173.980	0.210	-0.970	2.190
2020/01/31 23:55:40.5	173.960	0.230	-0.940	2.160
2020/01/31 23:55:40.6	173.940	0.260	-0.900	2.130
2020/01/31 23:55:40.7	173.920	0.280	-0.860	2.090
2020/01/31 23:55:40.8	173.900	0.300	-0.820	2.050
2020/01/31 23:55:40.9	173.890	0.320	-0.780	2.010
2020/01/31 23:55:41.0	173.890	0.340	-0.740	1.970
2020/01/31 23:55:41.1	173.880	0.350	-0.690	1.930
2020/01/31 23:55:41.2	173.870	0.360	-0.640	1.890
2020/01/31 23:55:41.3	173.870	0.370	-0.590	1.840
2020/01/31 23:55:41.4	173.870	0.380	-0.540	1.800
2020/01/31 23:55:41.5	173.870	0.380	-0.490	1.750
2020/01/31 23:55:41.6	173.870	0.380	-0.440	1.710
2020/01/31 23:55:41.7	173.880	0.370	-0.390	1.660
2020/01/31 23:55:41.8	173.890	0.360	-0.340	1.620
2020/01/31 23:55:41.9	173.900	0.340	-0.290	1.570
2020/01/31 23:55:42.0	173.900	0.320	-0.240	1.530
2020/01/31 23:55:42.1	173.920	0.290	-0.190	1.480
2020/01/31 23:55:42.2	173.930	0.260	-0.140	1.440
2020/01/31 23:55:42.3	173.950	0.220	-0.100	1.410
2020/01/31 23:55:42.4	173.970	0.180	-0.050	1.370
2020/01/31 23:55:42.5	173.990	0.140	-0.010	1.340
2020/01/31 23:55:42.6	174.010	0.090	0.030	1.310
2020/01/31 23:55:42.7	174.030	0.030	0.070	1.290
2020/01/31 23:55:42.8	174.050	-0.020	0.110	1.270
2020/01/31 23:55:42.9	174.070	-0.080	0.140	1.260
2020/01/31 23:55:43.0	174.080	-0.140	0.170	1.240
2020/01/31 23:55:43.1	174.100	-0.200	0.200	1.240
2020/01/31 23:55:43.2	174.110	-0.270	0.220	1.240
2020/01/31 23:55:43.3	174.130	-0.330	0.240	1.250
2020/01/31 23:55:43.4	174.140	-0.390	0.250	1.260
2020/01/31 23:55:43.5	174.150	-0.450	0.260	1.270
2020/01/31 23:55:43.6	174.160	-0.520	0.270	1.290
2020/01/31 23:55:43.7	174.160	-0.570	0.270	1.320
2020/01/31 23:55:43.8	174.170	-0.630	0.270	1.350
2020/01/31 23:55:43.9	174.180	-0.680	0.260	1.380
2020/01/31 23:55:44.0	174.180	-0.730	0.260	1.420
2020/01/31 23:55:44.1	174.180	-0.780	0.240	1.450
2020/01/31 23:55:44.2	174.180	-0.820	0.230	1.490
2020/01/31 23:55:44.3	174.180	-0.850	0.200	1.530
2020/01/31 23:55:44.4	174.180	-0.880	0.180	1.560
2020/01/31 23:55:44.5	174.180	-0.900	0.150	1.600
2020/01/31 23:55:44.6	174.180	-0.920	0.130	1.640
2020/01/31 23:55:44.7	174.180	-0.930	0.100	1.670
2020/01/31 23:55:44.8	174.180	-0.940	0.070	1.710
2020/01/31 23:55:44.9	174.180	-0.930	0.040	1.740
2020/01/31 23:55:45.0	174.170	-0.930	0.000	1.770
2020/01/31 23:55:45.1	174.170	-0.910	-0.030	1.810
2020/01/31 23:55:45.2	174.160	-0.890	-0.050	1.840
2020/01/31 23:55:45.3	174.160	-0.860	-0.080	1.870
2020/01/31 23:55:45.4	174.150	-0.830	-0.110	1.900
2020/01/31 23:55:45.5	174.140	-0.790	-0.130	1.930
2020/01/31 23:55:45.6	174.130	-0.750	-0.150	1.960
2020/01/31 23:55:45.7	174.120	-0.700	-0.170	1.990
2020/01/31 23:55:45.8	174.110	-0.650	-0.180	2.010
2020/01/31 23:55:45.9	174.100	-0.590	-0.200	2.030
2020/01/31 23:55:46.0	174.100	-0.530	-0.200	2.060
2020/01/31 23:55:46.1	174.090	-0.460	-0.210	2.070
2020/01/31 23:55:46.2	174.070	-0.390	-0.210	2.090
2020/01/31 23:55:46.3	174.060	-0.320	-0.210	2.100
2020/01/31 23:55:46.4	174.050	-0.250	-0.200	2.100
2020/01/31 23:55:46.5	174.040	-0.180	-0.190	2.110
2020/01/31 23:55:46.6	174.030	-0.100	-0.180	2.100
2020/01/31 23:55:46.7	174.010	-0.030	-0.170	2.100
2020/01/31 23:55:46.8	174.000	0.050	-0.150	2.090
2020/01/31 23:55:46.9	173.990	0.120	-0.130	2.080
2020/01/31 23:55:47.0	173.980	0.190	-0.110	2.060
2020/01/31 23:55:47.1	173.970	0.260	-0.090	2.040
2020/01/31 23:55:47.2	173.960	0.330	-0.070	2.020
2020/01/31 23:55:47.3	173.950	0.400	-0.040	1.990
2020/01/31 23:55:47.4	173.930	0.460	-0.020	1.960
2020/01/31 23:55:47.5	173.920	0.520	0.010	1.930
2020/01/31 23:55:47.6	173.910	0.580	0.040	1.900
2020/01/31 23:55:47.7	173.900	0.630	0.060	1.870
2020/01/31 23:55:47.8	173.890	0.670	0.080	1.830
2020/01/31 23:55:47.9	173.870	0.720	0.110	1.790
2020/01/31 23:55:48.0	173.870	0.750	0.130	1.760
2020/01/31 23:55:48.1	173.860	0.790	0.150	1.720
2020/01/31 23:55:48.2	173.850	0.810	0.160	1.690
2020/01/31 23:55:48.3	173.830	0.840	0.180	1.650
2020/01/31 23:55:48.4	173.820	0.850	0.190	1.620
2020/01/31 23:55:48.5	173.810	0.860	0.200	1.580
2020/01/31 23:55:48.6	173.800	0.870	0.200	1.550
2020/01/31 23:55:48.7	173.790	0.870	0.210	1.520
2020/01/31 23:55:48.8	173.790	0.860	0.210	1.490
2020/01/31 23:55:48.9	173.780	0.850	0.210	1.470
2020/01/31 23:55:49.0	173.770	0.840	0.200	1.440
2020/01/31 23:55:49.1	173.760	0.820	0.190	1.420
2020/01/31 23:55:49.2	173.760	0.790	0.180	1.400
2020/01/31 23:55:49.3	173.750	0.770	0.170	1.380
2020/01/31 23:55:49.4	173.750	0.730	0.160	1.370
2020/01/31 23:55:49.5	173.750	0.690	0.140	1.360
2020/01/31 23:55:49.6	173.750	0.650	0.120	1.360
2020/01/31 23:55:49.7	173.750	0.610	0.100	1.350
2020/01/31 23:55:49.8	173.750	0.560	0.080	1.360
2020/01/31 23:55:49.9	173.750	0.510	0.060	1.360
2020/01/31 23:55:50.0	173.740	0.460	0.030	1.360
2020/01/31 23:55:50.1	173.750	0.410	0.010	1.380
2020/01/31 23:55:50.2	173.750	0.350	-0.010	1.390
2020/01/31 23:55:50.3	173.760	0.290	-0.040	1.410
2020/01/31 23:55:50.4	173.760	0.240	-0.060	1.430
2020/01/31 23:55:50.5	173.770	0.180	-0.080	1.450
2020/01/31 23:55:50.6	173.770	0.120	-0.100	1.480
2020/01/31 23:55:50.7	173.780	0.070	-0.120	1.500
2020/01/31 23:55:50.8	173.790	0.010	-0.140	1.530
2020/01/31 23:55:50.9	173.800	-0.040	-0.160	1.560
2020/01/31 23:55:51.0	173.810	-0.090	-0.180	1.600
2020/01/31 23:55:51.1	173.820	-0.140	-0.200	1.630
2020/01/31 23:55:51.2	173.820	-0.190	-0.220	1.670
2020/01/31 23:55:51.3	173.830	-0.230	-0.230	1.700
2020/01/31 23:55:51.4	173.830	-0.270	-0.250	1.730
2020/01/31 23:55:51.5	173.840	-0.300	-0.270	1.770
2020/01/31 23:55:51.6	173.840	-0.330	-0.290	1.800
2020/01/31 23:55:51.7	173.840	-0.360	-0.310	1.830
2020/01/31 23:55:51.8	173.850	-0.380	-0.330	1.860
2020/01/31 23:55:51.9	173.850	-0.390	-0.360	1.890
2020/01/31 23:55:52.0	173.840	-0.400	-0.390	1.920
2020/01/31 23:55:52.1	173.840	-0.410	-0.410	1.950
2020/01/31 23:55:52.2	173.840	-0.400	-0.440	1.970
2020/01/31 23:55:52.3	173.830	-0.400	-0.480	1.990
2020/01/31 23:55:52.4	173.830	-0.380	-0.510	2.010
2020/01/31 23:55:52.5	173.820	-0.360	-0.550	2.020
2020/01/31 23:55:52.6	173.820	-0.340	-0.590	2.030
2020/01/31 23:55:52.7	173.810	-0.310	-0.630	2.030
2020/01/31 23:55:52.8	173.810	-0.280	-0.670	2.030
2020/01/31 23:55:52.9	173.800	-0.240	-0.710	2.030
2020/01/31 23:55:53.0	173.800	-0.200	-0.760	2.020
2020/01/31 23:55:53.1	173.800	-0.150	-0.800	2.010
2020/01/31 23:55:53.2	173.790	-0.110	-0.840	2.000
2020/01/31 23:55:53.3	173.790	-0.060	-0.890	1.980
2020/01/31 23:55:53.4	173.780	-0.010	-0.930	1.950
2020/01/31 23:55:53.5	173.780	0.050	-0.970	1.930
2020/01/31 23:55:53.6	173.780	0.100	-1.010	1.900
2020/01/31 23:55:53.7	173.770	0.150	-1.040	1.870
2020/01/31 23:55:53.8	173.770	0.200	-1.070	1.840
2020/01/31 23:55:53.9	173.770	0.260	-1.100	1.800
2020/01/31 23:55:54.0	173.780	0.300	-1.120	1.770
2020/01/31 23:55:54.1	173.780	0.350	-1.140	1.730
2020/01/31 23:55:54.2	173.790	0.390	-1.160	1.690
2020/01/31 23:55:54.3	173.790	0.430	-1.170	1.650
2020/01/31 23:55:54.4	173.790	0.470	-1.180	1.620
2020/01/31 23:55:54.5	173.800	0.500	-1.180	1.580
2020/01/31 23:55:54.6	173.810	0.530	-1.170	1.540
2020/01/31 23:55:54.7	173.810	0.550	-1.160	1.510
2020/01/31 23:55:54.8	173.820	0.570	-1.150	1.470
2020/01/31 23:55:54.9	173.830	0.580	-1.130	1.440
2020/01/31 23:55:55.0	173.830	0.590	-1.100	1.400
2020/01/31 23:55:55.1	173.840	0.600	-1.080	1.370
2020/01/31 23:55:55.2	173.850	0.590	-1.040	1.340
2020/01/31 23:55:55.3	173.860	0.590	-1.010	1.310
2020/01/31 23:55:55.4	173.870	0.570	-0.960	1.290
2020/01/31 23:55:55.5	173.870	0.560	-0.920	1.260
2020/01/31 23:55:55.6	173.880	0.530	-0.880	1.240
2020/01/31 23:55:55.7	173.880	0.510	-0.830	1.220
2020/01/31 23:55:55.8	173.890	0.480	-0.780	1.210
2020/01/31 23:55:55.9	173.890	0.450	-0.730	1.190
2020/01/31 23:55:56.0	173.880	0.410	-0.680	1.180
2020/01/31 23:55:56.1	173.880	0.370	-0.630	1.170
2020/01/31 23:55:56.2	173.870	0.330	-0.580	1.160
2020/01/31 23:55:56.3	173.870	0.280	-0.530	1.160
2020/01/31 23:55:56.4	173.870	0.230	-0.480	1.160
2020/01/31 23:55:56.5	173.870	0.180	-0.430	1.160
2020/01/31 23:55:56.6	173.860	0.130	-0.380	1.160
2020/01/31 23:55:56.7	173.860	0.080	-0.330	1.170
2020/01/31 23:55:56.8	173.860	0.030	-0.290	1.170
2020/01/31 23:55:56.9	173.860	-0.030	-0.240	1.180
2020/01/31 23:55:57.0	173.860	-0.080	-0.200	1.190
2020/01/31 23:55:57.1	173.860	-0.130	-0.160	1.210
2020/01/31 23:55:57.2	173.860	-0.190	-0.110	1.220
2020/01/31 23:55:57.3	173.860	-0.240	-0.070	1.240
2020/01/31 23:55:57.4	173.860	-0.290	-0.040	1.260
2020/01/31 23:55:57.5	173.860	-0.340	0.000	1.290
2020/01/31 23:55:57.6	173.860	-0.390	0.040	1.310
2020/01/31 23:55:57.7	173.860	-0.430	0.070	1.340
2020/01/31 23:55:57.8	173.860	-0.470	0.100	1.380
2020/01/31 23:55:57.9	173.860	-0.510	0.130	1.410
2020/01/31 23:55:58.0	173.850	-0.550	0.160	1.450
2020/01/31 23:55:58.1	173.850	-0.580	0.180	1.480
2020/01/31 23:55:58.2	173.850	-0.610	0.200	1.520
2020/01/31 23:55:58.3	173.850	-0.640	0.220	1.560
2020/01/31 23:55:58.4	173.860	-0.660	0.240	1.600
2020/01/31 23:55:58.5	173.860	-0.680	0.260	1.630
2020/01/31 23:55:58.6	173.870	-0.700	0.270	1.670
2020/01/31 23:55:58.7	173.870	-0.710	0.280	1.700
2020/01/31 23:55:58.8	173.880	-0.710	0.290	1.730
2020/01/31 23:55:58.9	173.880	-0.720	0.300	1.760
2020/01/31 23:55:59.0	173.890	-0.720	0.310	1.790
2020/01/31 23:55:59.1	173.900	-0.710	0.310	1.810
2020/01/31 23:55:59.2	173.910	-0.700	0.320	1.830
2020/01/31 23:55:59.3	173.910	-0.690	0.320	1.850
2020/01/31 23:55:59.4	173.920	-0.680	0.310	1.860
2020/01/31 23:55:59.5	173.930	-0.660	0.310	1.880
2020/01/31 23:55:59.6	173.940	-0.640	0.310	1.890
2020/01/31 23:55:59.7	173.940	-0.620	0.300	1.890
2020/01/31 23:55:59.8	173.950	-0.600	0.290	1.890
2020/01/31 23:55:59.9	173.960	-0.570	0.290	1.900
2020/01/31 23:56:00.0	173.970	-0.540	0.270	1.900
2020/01/31 23:56:00.1	173.970	-0.520	0.260	1.890
2020/01/31 23:56:00.2	173.970	-0.490	0.240	1.890
2020/01/31 23:56:00.3	173.970	-0.460	0.230	1.880
2020/01/31 23:56:00.4	173.970	-0.420	0.210	1.870
2020/01/31 23:56:00.5	173.970	-0.390	0.190	1.870
2020/01/31 23:56:00.6	173.970	-0.360	0.170	1.860
2020/01/31 23:56:00.7	173.960	-0.330	0.140	1.850
2020/01/31 23:56:00.8	173.950	-0.300	0.120	1.850
2020/01/31 23:56:00.9	173.940	-0.270	0.090	1.840
2020/01/31 23:56:01.0	173.910	-0.240	0.060	1.840
2020/01/31 23:56:01.1	173.900	-0.220	0.040	1.840
2020/01/31 23:56:01.2	173.880	-0.190	0.000	1.840
2020/01/31 23:56:01.3	173.860	-0.170	-0.030	1.850
2020/01/31 23:56:01.4	173.840	-0.150	-0.060	1.850
2020/01/31 23:56:01.5	173.820	-0.120	-0.090	1.860
2020/01/31 23:56:01.6	173.790	-0.110	-0.120	1.870
2020/01/31 23:56:01.7	173.770	-0.090	-0.150	1.880
2020/01/31 23:56:01.8	173.740	-0.070	-0.190	1.890
2020/01/31 23:56:01.9	173.720	-0.060	-0.220	1.910
2020/01/31 23:56:02.0	173.700	-0.050	-0.240	1.920
2020/01/31 23:56:02.1	173.670	-0.040	-0.270	1.930
2020/01/31 23:56:02.2	173.650	-0.030	-0.300	1.940
2020/01/31 23:56:02.3	173.630	-0.020	-0.320	1.950
2020/01/31 23:56:02.4	173.600	-0.020	-0.340	1.950
2020/01/31 23:56:02.5	173.580	-0.010	-0.360	1.960
2020/01/31 23:56:02.6	173.570	-0.010	-0.370	1.960
2020/01/31 23:56:02.7	173.550	-0.010	-0.380	1.960
2020/01/31 23:56:02.8	173.530	-0.000	-0.390	1.950
2020/01/31 23:56:02.9	173.520	-0.000	-0.390	1.940
2020/01/31 23:56:03.0	173.500	0.000	-0.400	1.930
2020/01/31 23:56:03.1	173.490	0.000	-0.390	1.920
2020/01/31 23:56:03.2	173.480	0.000	-0.380	1.900
2020/01/31 23:56:03.3	173.470	0.000	-0.370	1.880
2020/01/31 23:56:03.4	173.460	0.010	-0.350	1.860
2020/01/31 23:56:03.5	173.450	0.010	-0.340	1.840
2020/01/31 23:56:03.6	173.450	0.010	-0.320	1.810
2020/01/31 23:56:03.7	173.440	0.020	-0.290	1.780
2020/01/31 23:56:03.8	173.440	0.020	-0.270	1.750
2020/01/31 23:56:03.9	173.440	0.030	-0.240	1.710
2020/01/31 23:56:04.0	173.450	0.030	-0.210	1.680
2020/01/31 23:56:04.1	173.460	0.040	-0.190	1.640
2020/01/31 23:56:04.2	173.460	0.050	-0.160	1.600
2020/01/31 23:56:04.3	173.470	0.060	-0.140	1.560
2020/01/31 23:56:04.4	173.480	0.070	-0.110	1.510
2020/01/31 23:56:04.5	173.490	0.090	-0.090	1.470
2020/01/31 23:56:04.6	173.500	0.100	-0.070	1.430
2020/01/31 23:56:04.7	173.510	0.110	-0.050	1.380
2020/01/31 23:56:04.8	173.530	0.130	-0.030	1.340
2020/01/31 23:56:04.9	173.540	0.150	-0.020	1.290
2020/01/31 23:56:05.0	173.570	0.160	-0.010	1.240
2020/01/31 23:56:05.1	173.580	0.180	-0.000	1.190
2020/01/31 23:56:05.2	173.600	0.200	0.000	1.150
2020/01/31 23:56:05.3	173.620	0.210	0.010	1.110
2020/01/31 23:56:05.4	173.630	0.230	0.000	1.070
2020/01/31 23:56:05.5	173.650	0.250	0.000	1.040
2020/01/31 23:56:05.6	173.670	0.270	-0.000	1.000
2020/01/31 23:56:05.7	173.680	0.280	-0.010	0.970
2020/01/31 23:56:05.8	173.700	0.300	-0.020	0.940
2020/01/31 23:56:05.9	173.710	0.310	-0.040	0.910
2020/01/31 23:56:06.0	173.730	0.330	-0.050	0.900
2020/01/31 23:56:06.1	173.740	0.340	-0.070	0.880
2020/01/31 23:56:06.2	173.750	0.350	-0.090	0.860
2020/01/31 23:56:06.3	173.760	0.360	-0.100	0.850
2020/01/31 23:56:06.4	173.770	0.370	-0.120	0.840
2020/01/31 23:56:06.5	173.780	0.380	-0.140	0.840
2020/01/31 23:56:06.6	173.790	0.390	-0.160	0.840
2020/01/31 23:56:06.7	173.790	0.390	-0.180	0.840
2020/01/31 23:56:06.8	173.800	0.400	-0.200	0.840
2020/01/31 23:56:06.9	173.800	0.400	-0.220	0.850
2020/01/31 23:56:07.0	173.790	0.400	-0.240	0.870
2020/01/31 23:56:07.1	173.790	0.400	-0.250	0.880
2020/01/31 23:56:07.2	173.780	0.400	-0.270	0.900
2020/01/31 23:56:07.3	173.780	0.400	-0.280	0.920
2020/01/31 23:56:07.4	173.780	0.390	-0.300	0.940
2020/01/31 23:56:07.5	173.770	0.390	-0.310	0.960
2020/01/31 23:56:07.6	173.760	0.380	-0.320	0.980
2020/01/31 23:56:07.7	173.760	0.380	-0.330	1.010
2020/01/31 23:56:07.8	173.760	0.370	-0.340	1.030
2020/01/31 23:56:07.9	173.750	0.360	-0.350	1.050
2020/01/31 23:56:08.0	173.740	0.350	-0.350	1.070
2020/01/31 23:56:08.1	173.740	0.340	-0.360	1.090
2020/01/31 23:56:08.2	173.740	0.320	-0.360	1.110
2020/01/31 23:56:08.3	173.740	0.310	-0.370	1.130
2020/01/31 23:56:08.4	173.740	0.300	-0.370	1.140
2020/01/31 23:56:08.5	173.740	0.280	-0.370	1.160
2020/01/31 23:56:08.6	173.750	0.270	-0.380	1.180
2020/01/31 23:56:08.7	173.750	0.250	-0.380	1.190
2020/01/31 23:56:08.8	173.760	0.240	-0.380	1.210
2020/01/31 23:56:08.9	173.770	0.220	-0.390	1.230
2020/01/31 23:56:09.0	173.780	0.200	-0.390	1.250
2020/01/31 23:56:09.1	173.790	0.190	-0.400	1.270
2020/01/31 23:56:09.2	173.800	0.170	-0.410	1.290
2020/01/31 23:56:09.3	173.800	0.150	-0.410	1.320
2020/01/31 23:56:09.4	173.810	0.140	-0.420	1.350
2020/01/31 23:56:09.5	173.810	0.120	-0.440	1.380
2020/01/31 23:56:09.6	173.810	0.110	-0.450	1.410
2020/01/31 23:56:09.7	173.820	0.090	-0.460	1.450
2020/01/31 23:56:09.8	173.810	0.080	-0.480	1.480
2020/01/31 23:56:09.9	173.810	0.060	-0.500	1.520
2020/01/31 23:56:10.0	173.820	0.050	-0.510	1.570
2020/01/31 23:56:10.1	173.820	0.040	-0.530	1.620
2020/01/31 23:56:10.2	173.810	0.030	-0.560	1.660
2020/01/31 23:56:10.3	173.800	0.020	-0.580	1.720
2020/01/31 23:56:10.4	173.780	0.010	-0.610	1.770
2020/01/31 23:56:10.5	173.770	0.000	-0.630	1.820
2020/01/31 23:56:10.6	173.750	-0.000	-0.660	1.880
2020/01/31 23:56:10.7	173.730	-0.010	-0.680	1.940
2020/01/31 23:56:10.8	173.710	-0.010	-0.710	2.000
2020/01/31 23:56:10.9	173.680	-0.010	-0.730	2.060
2020/01/31 23:56:11.0	173.660	-0.010	-0.760	2.130
2020/01/31 23:56:11.1	173.630	-0.010	-0.780	2.190
2020/01/31 23:56:11.2	173.600	-0.010	-0.800	2.250
2020/01/31 23:56:11.3	173.570	-0.000	-0.820	2.320
2020/01/31 23:56:11.4	173.540	0.000	-0.830	2.380
2020/01/31 23:56:11.5	173.500	0.010	-0.840	2.430
2020/01/31 23:56:11.6	173.470	0.020	-0.850	2.490
2020/01/31 23:56:11.7	173.430	0.030	-0.850	2.550
2020/01/31 23:56:11.8	173.400	0.030	-0.850	2.600
2020/01/31 23:56:11.9	173.360	0.040	-0.840	2.640
2020/01/31 23:56:12.0	173.330	0.050	-0.820	2.690
2020/01/31 23:56:12.1	173.300	0.060	-0.810	2.730
2020/01/31 23:56:12.2	173.260	0.070	-0.780	2.760
2020/01/31 23:56:12.3	173.230	0.080	-0.750	2.790
2020/01/31 23:56:12.4	173.190	0.090	-0.720	2.820
2020/01/31 23:56:12.5	173.160	0.100	-0.680	2.840
2020/01/31 23:56:12.6	173.120	0.110	-0.630	2.850
2020/01/31 23:56:12.7	173.090	0.110	-0.580	2.860
2020/01/31 23:56:12.8	173.060	0.120	-0.530	2.860
2020/01/31 23:56:12.9	173.040	0.120	-0.470	2.850
2020/01/31 23:56:13.0	173.010	0.120	-0.410	2.840
2020/01/31 23:56:13.1	172.980	0.120	-0.350	2.830
2020/01/31 23:56:13.2	172.960	0.120	-0.280	2.810
2020/01/31 23:56:13.3	172.950	0.120	-0.200	2.780
2020/01/31 23:56:13.4	172.940	0.110	-0.130	2.750
2020/01/31 23:56:13.5	172.930	0.100	-0.050	2.710
2020/01/31 23:56:13.6	172.920	0.090	0.020	2.670
2020/01/31 23:56:13.7	172.910	0.080	0.100	2.620
2020/01/31 23:56:13.8	172.920	0.070	0.170	2.570
2020/01/31 23:56:13.9	172.920	0.050	0.250	2.510
2020/01/31 23:56:14.0	172.920	0.030	0.320	2.450
2020/01/31 23:56:14.1	172.930	0.020	0.390	2.390
2020/01/31 23:56:14.2	172.940	-0.000	0.450	2.320
2020/01/31 23:56:14.3	172.960	-0.030	0.510	2.250
2020/01/31 23:56:14.4	172.970	-0.050	0.570	2.180
2020/01/31 23:56:14.5	173.000	-0.080	0.620	2.110
2020/01/31 23:56:14.6	173.020	-0.100	0.660	2.030
2020/01/31 23:56:14.7	173.040	-0.130	0.700	1.950
2020/01/31 23:56:14.8	173.070	-0.150	0.740	1.880
2020/01/31 23:56:14.9	173.100	-0.180	0.760	1.800
2020/01/31 23:56:15.0	173.130	-0.210	0.770	1.710
2020/01/31 23:56:15.1	173.160	-0.240	0.780	1.620
2020/01/31 23:56:15.2	173.200	-0.260	0.780	1.540
2020/01/31 23:56:15.3	173.230	-0.290	0.780	1.470
2020/01/31 23:56:15.4	173.270	-0.310	0.760	1.390
2020/01/31 23:56:15.5	173.310	-0.340	0.740	1.310
2020/01/31 23:56:15.6	173.340	-0.360	0.700	1.240
2020/01/31 23:56:15.7	173.380	-0.380	0.660	1.170
2020/01/31 23:56:15.8	173.410	-0.390	0.610	1.100
2020/01/31 23:56:15.9	173.450	-0.410	0.550	1.040
2020/01/31 23:56:16.0	173.470	-0.420	0.490	0.980
2020/01/31 23:56:16.1	173.500	-0.430	0.410	0.940
2020/01/31 23:56:16.2	173.520	-0.430	0.330	0.890
2020/01/31 23:56:16.3	173.540	-0.430	0.240	0.860
2020/01/31 23:56:16.4	173.560	-0.430	0.140	0.830
2020/01/31 23:56:16.5	173.570	-0.430	0.040	0.810
2020/01/31 23:56:16.6	173.580	-0.420	-0.070	0.800
2020/01/31 23:56:16.7	173.590	-0.410	-0.190	0.800
2020/01/31 23:56:16.8	173.590	-0.390	-0.310	0.800
2020/01/31 23:56:16.9	173.590	-0.370	-0.430	0.810
2020/01/31 23:56:17.0	173.570	-0.350	-0.550	0.830
2020/01/31 23:56:17.1	173.560	-0.330	-0.680	0.850
2020/01/31 23:56:17.2	173.550	-0.300	-0.800	0.880
2020/01/31 23:56:17.3	173.530	-0.270	-0.930	0.910
2020/01/31 23:56:17.4	173.520	-0.240	-1.050	0.940
2020/01/31 23:56:17.5	173.500	-0.210	-1.160	0.980
2020/01/31 23:56:17.6	173.480	-0.180	-1.270	1.020
2020/01/31 23:56:17.7	173.460	-0.150	-1.380	1.070
2020/01/31 23:56:17.8	173.440	-0.120	-1.470	1.120
2020/01/31 23:56:17.9	173.420	-0.090	-1.560	1.170
2020/01/31 23:56:18.0	173.420	-0.060	-1.640	1.220
2020/01/31 23:56:18.1	173.400	-0.030	-1.700	1.280
2020/01/31 23:56:18.2	173.380	-0.000	-1.750	1.330
2020/01/31 23:56:18.3	173.360	0.020	-1.790	1.390
2020/01/31 23:56:18.4	173.350	0.040	-1.820	1.440
2020/01/31 23:56:18.5	173.330	0.060	-1.830	1.490
2020/01/31 23:56:18.6	173.320	0.080	-1.830	1.540
2020/01/31 23:56:18.7	173.310	0.090	-1.810	1.590
2020/01/31 23:56:18.8	173.300	0.110	-1.780	1.640
2020/01/31 23:56:18.9	173.290	0.110	-1.730	1.690
2020/01/31 23:56:19.0	173.290	0.120	-1.670	1.730
2020/01/31 23:56:19.1	173.290	0.120	-1.600	1.770
2020/01/31 23:56:19.2	173.280	0.120	-1.510	1.800
2020/01/31 23:56:19.3	173.280	0.110	-1.410	1.830
2020/01/31 23:56:19.4	173.290	0.100	-1.300	1.860
2020/01/31 23:56:19.5	173.290	0.090	-1.180	1.880
2020/01/31 23:56:19.6	173.290	0.070	-1.050	1.900
2020/01/31 23:56:19.7	173.300	0.060	-0.910	1.910
2020/01/31 23:56:19.8	173.310	0.030	-0.770	1.920
2020/01/31 23:56:19.9	173.320	0.010	-0.630	1.930
2020/01/31 23:56:20.0	173.340	-0.010	-0.480	1.930
2020/01/31 23:56:20.1	173.350	-0.040	-0.330	1.920
2020/01/31 23:56:20.2	173.370	-0.060	-0.180	1.920
2020/01/31 23:56:20.3	173.390	-0.090	-0.030	1.900
2020/01/31 23:56:20.4	173.410	-0.120	0.120	1.890
2020/01/31 23:56:20.5	173.430	-0.150	0.260	1.870
2020/01/31 23:56:20.6	173.450	-0.180	0.400	1.850
2020/01/31 23:56:20.7	173.470	-0.210	0.530	1.830
2020/01/31 23:56:20.8	173.500	-0.230	0.650	1.800
2020/01/31 23:56:20.9	173.520	-0.260	0.770	1.780
2020/01/31 23:56:21.0	173.530	-0.280	0.870	1.750
2020/01/31 23:56:21.1	173.560	-0.310	0.960	1.720
2020/01/31 23:56:21.2	173.580	-0.330	1.040	1.690
2020/01/31 23:56:21.3	173.610	-0.350	1.110	1.660
2020/01/31 23:56:21.4	173.640	-0.360	1.170	1.620
2020/01/31 23:56:21.5	173.660	-0.380	1.220	1.590
2020/01/31 23:56:21.6	173.690	-0.390	1.250	1.560
2020/01/31 23:56:21.7	173.710	-0.390	1.270	1.530
2020/01/31 23:56:21.8	173.730	-0.400	1.270	1.500
2020/01/31 23:56:21.9	173.750	-0.400	1.260	1.470
2020/01/31 23:56:22.0	173.760	-0.390	1.240	1.450
2020/01/31 23:56:22.1	173.770	-0.390	1.210	1.420
2020/01/31 23:56:22.2	173.790	-0.370	1.160	1.400
2020/01/31 23:56:22.3	173.790	-0.360	1.100	1.380
2020/01/31 23:56:22.4	173.800	-0.340	1.030	1.370
2020/01/31 23:56:22.5	173.800	-0.320	0.950	1.360
2020/01/31 23:56:22.6	173.810	-0.290	0.870	1.350
2020/01/31 23:56:22.7	173.800	-0.260	0.770	1.340
2020/01/31 23:56:22.8	173.800	-0.230	0.670	1.340
2020/01/31 23:56:22.9	173.790	-0.200	0.560	1.340
2020/01/31 23:56:23.0	173.800	-0.160	0.440	1.340
2020/01/31 23:56:23.1	173.790	-0.120	0.320	1.350
2020/01/31 23:56:23.2	173.780	-0.080	0.200	1.360
2020/01/31 23:56:23.3	173.770	-0.040	0.080	1.370
2020/01/31 23:56:23.4	173.760	-0.000	-0.040	1.380
2020/01/31 23:56:23.5	173.740	0.040	-0.150	1.400
2020/01/31 23:56:23.6	173.730	0.080	-0.270	1.420
2020/01/31 23:56:23.7	173.710	0.130	-0.380	1.430
2020/01/31 23:56:23.8	173.690	0.170	-0.480	1.450
2020/01/31 23:56:23.9	173.680	0.210	-0.580	1.470
2020/01/31 23:56:24.0	173.650	0.250	-0.670	1.490
2020/01/31 23:56:24.1	173.640	0.290	-0.750	1.500
2020/01/31 23:56:24.2	173.630	0.320	-0.820	1.520
2020/01/31 23:56:24.3	173.620	0.350	-0.890	1.540
2020/01/31 23:56:24.4	173.600	0.390	-0.940	1.550
2020/01/31 23:56:24.5	173.600	0.410	-0.980	1.570
2020/01/31 23:56:24.6	173.590	0.440	-1.010	1.580
2020/01/31 23:56:24.7	173.580	0.460	-1.020	1.590
2020/01/31 23:56:24.8	173.580	0.480	-1.030	1.610
2020/01/31 23:56:24.9	173.580	0.490	-1.030	1.620
2020/01/31 23:56:25.0	173.580	0.500	-1.020	1.620
2020/01/31 23:56:25.1	173.580	0.500	-0.990	1.630
2020/01/31 23:56:25.2	173.580	0.510	-0.960	1.650
2020/01/31 23:56:25.3	173.590	0.510	-0.920	1.660
2020/01/31 23:56:25.4	173.590	0.500	-0.870	1.660
2020/01/31 23:56:25.5	173.600	0.490	-0.810	1.670
2020/01/31 23:56:25.6	173.600	0.480	-0.750	1.680
2020/01/31 23:56:25.7	173.610	0.460	-0.690	1.690
2020/01/31 23:56:25.8	173.610	0.450	-0.620	1.690
2020/01/31 23:56:25.9	173.620	0.430	-0.550	1.700
2020/01/31 23:56:26.0	173.630	0.410	-0.470	1.700
2020/01/31 23:56:26.1	173.640	0.380	-0.400	1.700
2020/01/31 23:56:26.2	173.650	0.360	-0.330	1.700
2020/01/31 23:56:26.3	173.660	0.330	-0.250	1.700
2020/01/31 23:56:26.4	173.660	0.300	-0.190	1.700
2020/01/31 23:56:26.5	173.670	0.280	-0.120	1.700
2020/01/31 23:56:26.6	173.670	0.250	-0.060	1.700
2020/01/31 23:56:26.7	173.680	0.220	-0.000	1.700
2020/01/31 23:56:26.8	173.680	0.200	0.050	1.690
2020/01/31 23:56:26.9	173.690	0.170	0.100	1.690
2020/01/31 23:56:27.0	173.700	0.150	0.140	1.680
2020/01/31 23:56:27.1	173.700	0.130	0.170	1.670
2020/01/31 23:56:27.2	173.710	0.110	0.200	1.660
2020/01/31 23:56:27.3	173.720	0.090	0.220	1.650
2020/01/31 23:56:27.4	173.720	0.070	0.230	1.630
2020/01/31 23:56:27.5	173.730	0.060	0.240	1.610
2020/01/31 23:56:27.6	173.740	0.040	0.250	1.590
2020/01/31 23:56:27.7	173.760	0.030	0.250	1.570
2020/01/31 23:56:27.8	173.770	0.020	0.240	1.540
2020/01/31 23:56:27.9	173.790	0.010	0.240	1.520
2020/01/31 23:56:28.0	173.820	0.000	0.220	1.490
2020/01/31 23:56:28.1	173.840	-0.010	0.210	1.460
2020/01/31 23:56:28.2	173.860	-0.010	0.190	1.440
2020/01/31 23:56:28.3	173.880	-0.020	0.170	1.410
2020/01/31 23:56:28.4	173.900	-0.030	0.150	1.390
2020/01/31 23:56:28.5	173.920	-0.030	0.120	1.360
2020/01/31 23:56:28.6	173.950	-0.040	0.100	1.340
2020/01/31 23:56:28.7	173.970	-0.050	0.080	1.320
2020/01/31 23:56:28.8	174.000	-0.050	0.050	1.300
2020/01/31 23:56:28.9	174.020	-0.060	0.020	1.280
2020/01/31 23:56:29.0	174.040	-0.060	-0.010	1.270
2020/01/31 23:56:29.1	174.070	-0.070	-0.040	1.260
2020/01/31 23:56:29.2	174.090	-0.080	-0.070	1.240
2020/01/31 23:56:29.3	174.120	-0.080	-0.100	1.230
2020/01/31 23:56:29.4	174.140	-0.090	-0.130	1.220
2020/01/31 23:56:29.5	174.170	-0.090	-0.170	1.210
2020/01/31 23:56:29.6	174.190	-0.100	-0.200	1.210
2020/01/31 23:56:29.7	174.210	-0.100	-0.240	1.200
2020/01/31 23:56:29.8	174.230	-0.110	-0.280	1.200
2020/01/31 23:56:29.9	174.250	-0.110	-0.320	1.200
2020/01/31 23:56:30.0	174.260	-0.120	-0.360	1.190
2020/01/31 23:56:30.1	174.280	-0.120	-0.410	1.190
2020/01/31 23:56:30.2	174.290	-0.120	-0.450	1.190
2020/01/31 23:56:30.3	174.300	-0.120	-0.500	1.200
2020/01/31 23:56:30.4	174.310	-0.120	-0.550	1.200
2020/01/31 23:56:30.5	174.320	-0.120	-0.590	1.200
2020/01/31 23:56:30.6	174.330	-0.120	-0.640	1.210
2020/01/31 23:56:30.7	174.330	-0.110	-0.690	1.210
2020/01/31 23:56:30.8	174.330	-0.110	-0.740	1.220
2020/01/31 23:56:30.9	174.330	-0.100	-0.790	1.230
2020/01/31 23:56:31.0	174.340	-0.090	-0.840	1.250
2020/01/31 23:56:31.1	174.330	-0.080	-0.890	1.260
2020/01/31 23:56:31.2	174.330	-0.070	-0.930	1.270
2020/01/31 23:56:31.3	174.320	-0.060	-0.970	1.290
2020/01/31 23:56:31.4	174.320	-0.050	-1.010	1.300
2020/01/31 23:56:31.5	174.310	-0.030	-1.040	1.320
2020/01/31 23:56:31.6	174.310	-0.020	-1.070	1.330
2020/01/31 23:56:31.7	174.300	-0.000	-1.100	1.350
2020/01/31 23:56:31.8	174.300	0.010	-1.110	1.370
2020/01/31 23:56:31.9	174.290	0.030	-1.130	1.380
2020/01/31 23:56:32.0	174.310	0.050	-1.130	1.400
2020/01/31 23:56:32.1	174.310	0.060	-1.130	1.420
2020/01/31 23:56:32.2	174.300	0.080	-1.130	1.440
2020/01/31 23:56:32.3	174.300	0.090	-1.110	1.460
2020/01/31 23:56:32.4	174.300	0.110	-1.090	1.480
2020/01/31 23:56:32.5	174.300	0.120	-1.070	1.500
2020/01/31 23:56:32.6	174.300	0.130	-1.030	1.510
2020/01/31 23:56:32.7	174.300	0.140	-0.990	1.530
2020/01/31 23:56:32.8	174.300	0.150	-0.950	1.550
2020/01/31 23:56:32.9	174.300	0.160	-0.900	1.570
2020/01/31 23:56:33.0	174.310	0.160	-0.850	1.580
2020/01/31 23:56:33.1	174.310	0.160	-0.790	1.590
2020/01/31 23:56:33.2	174.310	0.170	-0.740	1.610
2020/01/31 23:56:33.3	174.320	0.170	-0.670	1.620
2020/01/31 23:56:33.4	174.320	0.160	-0.610	1.630
2020/01/31 23:56:33.5	174.310	0.160	-0.550	1.640
2020/01/31 23:56:33.6	174.310	0.150	-0.480	1.650
2020/01/31 23:56:33.7	174.310	0.150	-0.420	1.650
2020/01/31 23:56:33.8	174.310	0.140	-0.360	1.660
2020/01/31 23:56:33.9	174.300	0.130	-0.300	1.660
2020/01/31 23:56:34.0	174.300	0.120	-0.230	1.660
2020/01/31 23:56:34.1	174.290	0.110	-0.180	1.660
2020/01/31 23:56:34.2	174.290	0.100	-0.130	1.660
2020/01/31 23:56:34.3	174.280	0.080	-0.080	1.660
2020/01/31 23:56:34.4	174.270	0.070	-0.030	1.660
2020/01/31 23:56:34.5	174.260	0.060	0.010	1.650
2020/01/31 23:56:34.6	174.250	0.040	0.040	1.650
2020/01/31 23:56:34.7	174.240	0.030	0.080	1.640
2020/01/31 23:56:34.8	174.230	0.010	0.100	1.630
2020/01/31 23:56:34.9	174.220	-0.000	0.120	1.630
2020/01/31 23:56:35.0	174.200	-0.020	0.140	1.620
2020/01/31 23:56:35.1	174.190	-0.030	0.150	1.610
2020/01/31 23:56:35.2	174.170	-0.050	0.160	1.610
2020/01/31 23:56:35.3	174.160	-0.060	0.160	1.600
2020/01/31 23:56:35.4	174.150	-0.080	0.160	1.600
2020/01/31 23:56:35.5	174.140	-0.090	0.150	1.600
2020/01/31 23:56:35.6	174.120	-0.110	0.140	1.590
2020/01/31 23:56:35.7	174.110	-0.120	0.130	1.590
2020/01/31 23:56:35.8	174.100	-0.140	0.120	1.590
2020/01/31 23:56:35.9	174.090	-0.160	0.100	1.590
2020/01/31 23:56:36.0	174.090	-0.180	0.090	1.590
2020/01/31 23:56:36.1	174.080	-0.190	0.070	1.600
2020/01/31 23:56:36.2	174.080	-0.210	0.050	1.600
2020/01/31 23:56:36.3	174.070	-0.230	0.030	1.600
2020/01/31 23:56:36.4	174.070	-0.250	0.010	1.610
2020/01/31 23:56:36.5	174.070	-0.280	-0.010	1.620
2020/01/31 23:56:36.6	174.080	-0.300	-0.030	1.620
2020/01/31 23:56:36.7	174.080	-0.320	-0.040	1.630
2020/01/31 23:56:36.8	174.090	-0.340	-0.060	1.640
2020/01/31 23:56:36.9	174.100	-0.370	-0.070	1.650
2020/01/31 23:56:37.0	174.100	-0.390	-0.070	1.650
2020/01/31 23:56:37.1	174.110	-0.410	-0.080	1.660
2020/01/31 23:56:37.2	174.120	-0.440	-0.090	1.660
2020/01/31 23:56:37.3	174.140	-0.460	-0.090	1.670
2020/01/31 23:56:37.4	174.150	-0.480	-0.090	1.680
2020/01/31 23:56:37.5	174.170	-0.500	-0.090	1.680
2020/01/31 23:56:37.6	174.190	-0.520	-0.080	1.690
2020/01/31 23:56:37.7	174.210	-0.540	-0.070	1.690
2020/01/31 23:56:37.8	174.230	-0.560	-0.060	1.700
2020/01/31 23:56:37.9	174.240	-0.580	-0.050	1.710
2020/01/31 23:56:38.0	174.260	-0.590	-0.040	1.710
2020/01/31 23:56:38.1	174.280	-0.600	-0.030	1.710
2020/01/31 23:56:38.2	174.300	-0.610	-0.010	1.720
2020/01/31 23:56:38.3	174.320	-0.610	0.000	1.720
2020/01/31 23:56:38.4	174.330	-0.620	0.020	1.720
2020/01/31 23:56:38.5	174.350	-0.620	0.040	1.720
2020/01/31 23:56:38.6	174.360	-0.610	0.060	1.720
2020/01/31 23:56:38.7	174.380	-0.600	0.070	1.720
2020/01/31 23:56:38.8	174.390	-0.590	0.080	1.720
2020/01/31 23:56:38.9	174.400	-0.570	0.100	1.710
2020/01/31 23:56:39.0	174.420	-0.550	0.110	1.710
2020/01/31 23:56:39.1	174.420	-0.520	0.110	1.710
2020/01/31 23:56:39.2	174.430	-0.490	0.110	1.700
2020/01/31 23:56:39.3	174.430	-0.460	0.110	1.700
2020/01/31 23:56:39.4	174.420	-0.420	0.100	1.700
2020/01/31 23:56:39.5	174.420	-0.380	0.090	1.690
2020/01/31 23:56:39.6	174.410	-0.330	0.080	1.690
2020/01/31 23:56:39.7	174.400	-0.280	0.060	1.680
2020/01/31 23:56:39.8	174.390	-0.230	0.030	1.680
2020/01/31 23:56:39.9	174.370	-0.170	0.010	1.670
2020/01/31 23:56:40.0	174.360	-0.110	-0.030	1.670
2020/01/31 23:56:40.1	174.340	-0.060	-0.060	1.660
2020/01/31 23:56:40.2	174.320	0.000	-0.090	1.660
2020/01/31 23:56:40.3	174.310	0.060	-0.130	1.650
2020/01/31 23:56:40.4	174.290	0.120	-0.160	1.640
2020/01/31 23:56:40.5	174.280	0.180	-0.200	1.640
2020/01/31 23:56:40.6	174.260	0.240	-0.240	1.630
2020/01/31 23:56:40.7	174.250	0.290	-0.270	1.620
2020/01/31 23:56:40.8	174.230	0.340	-0.300	1.610
2020/01/31 23:56:40.9	174.220	0.380	-0.330	1.600
2020/01/31 23:56:41.0	174.210	0.430	-0.360	1.590
2020/01/31 23:56:41.1	174.210	0.460	-0.380	1.580
2020/01/31 23:56:41.2	174.200	0.500	-0.400	1.570
2020/01/31 23:56:41.3	174.200	0.520	-0.410	1.560
2020/01/31 23:56:41.4	174.200	0.550	-0.420	1.550
2020/01/31 23:56:41.5	174.200	0.560	-0.430	1.540
2020/01/31 23:56:41.6	174.210	0.570	-0.430	1.530
2020/01/31 23:56:41.7	174.210	0.580	-0.430	1.520
2020/01/31 23:56:41.8	174.220	0.580	-0.420	1.510
2020/01/31 23:56:41.9	174.240	0.570	-0.410	1.500
2020/01/31 23:56:42.0	174.240	0.560	-0.400	1.480
2020/01/31 23:56:42.1	174.260	0.550	-0.380	1.470
2020/01/31 23:56:42.2	174.270	0.530	-0.370	1.460
2020/01/31 23:56:42.3	174.290	0.500	-0.340	1.450
2020/01/31 23:56:42.4	174.310	0.470	-0.320	1.440
2020/01/31 23:56:42.5	174.330	0.440	-0.290	1.420
2020/01/31 23:56:42.6	174.360	0.400	-0.270	1.410
2020/01/31 23:56:42.7	174.380	0.370	-0.240	1.390
2020/01/31 23:56:42.8	174.410	0.320	-0.210	1.370
2020/01/31 23:56:42.9	174.440	0.280	-0.170	1.350
2020/01/31 23:56:43.0	174.470	0.240	-0.150	1.330
2020/01/31 23:56:43.1	174.500	0.200	-0.110	1.310
2020/01/31 23:56:43.2	174.530	0.150	-0.080	1.290
2020/01/31 23:56:43.3	174.550	0.110	-0.050	1.270
2020/01/31 23:56:43.4	174.580	0.070	-0.020	1.250
2020/01/31 23:56:43.5	174.610	0.030	0.020	1.230
2020/01/31 23:56:43.6	174.640	-0.010	0.050	1.210
2020/01/31 23:56:43.7	174.660	-0.040	0.080	1.190
2020/01/31 23:56:43.8	174.690	-0.080	0.100	1.160
2020/01/31 23:56:43.9	174.720	-0.100	0.130	1.140
2020/01/31 23:56:44.0	174.740	-0.130	0.160	1.120
2020/01/31 23:56:44.1	174.770	-0.150	0.180	1.100
2020/01/31 23:56:44.2	174.790	-0.160	0.200	1.080
2020/01/31 23:56:44.3	174.820	-0.170	0.220	1.060
2020/01/31 23:56:44.4	174.840	-0.180	0.230	1.050
2020/01/31 23:56:44.5	174.860	-0.180	0.240	1.030
2020/01/31 23:56:44.6	174.880	-0.170	0.250	1.010
2020/01/31 23:56:44.7	174.900	-0.160	0.250	1.000
2020/01/31 23:56:44.8	174.920	-0.150	0.250	0.980
2020/01/31 23:56:44.9	174.940	-0.130	0.240	0.970
2020/01/31 23:56:45.0	174.950	-0.110	0.220	0.960
2020/01/31 23:56:45.1	174.960	-0.080	0.200	0.950
2020/01/31 23:56:45.2	174.980	-0.050	0.180	0.940
2020/01/31 23:56:45.3	174.990	-0.010	0.150	0.930
2020/01/31 23:56:45.4	175.000	0.030	0.110	0.930
2020/01/31 23:56:45.5	175.010	0.070	0.070	0.930
2020/01/31 23:56:45.6	175.020	0.110	0.020	0.920
2020/01/31 23:56:45.7	175.020	0.160	-0.030	0.930
2020/01/31 23:56:45.8	175.030	0.210	-0.090	0.930
2020/01/31 23:56:45.9	175.030	0.250	-0.160	0.940
2020/01/31 23:56:46.0	175.030	0.300	-0.230	0.950
2020/01/31 23:56:46.1	175.030	0.350	-0.300	0.960
2020/01/31 23:56:46.2	175.030	0.400	-0.380	0.970
2020/01/31 23:56:46.3	175.020	0.440	-0.460	0.990
2020/01/31 23:56:46.4	175.020	0.490	-0.540	1.000
2020/01/31 23:56:46.5	175.010	0.530	-0.620	1.020
2020/01/31 23:56:46.6	175.000	0.560	-0.710	1.040
2020/01/31 23:56:46.7	174.990	0.600	-0.790	1.070
2020/01/31 23:56:46.8	174.970	0.630	-0.870	1.090
2020/01/31 23:56:46.9	174.960	0.650	-0.950	1.120
2020/01/31 23:56:47.0	174.940	0.670	-1.030	1.150
2020/01/31 23:56:47.1	174.920	0.690	-1.110	1.190
2020/01/31 23:56:47.2	174.900	0.690	-1.170	1.220
2020/01/31 23:56:47.3	174.880	0.700	-1.230	1.260
2020/01/31 23:56:47.4	174.870	0.690	-1.280	1.300
2020/01/31 23:56:47.5	174.850	0.680	-1.330	1.340
2020/01/31 23:56:47.6	174.830	0.660	-1.360	1.390
2020/01/31 23:56:47.7	174.820	0.640	-1.390	1.430
2020/01/31 23:56:47.8	174.800	0.610	-1.410	1.480
2020/01/31 23:56:47.9	174.790	0.570	-1.420	1.530
2020/01/31 23:56:48.0	174.790	0.530	-1.420	1.590
2020/01/31 23:56:48.1	174.780	0.480	-1.400	1.640
2020/01/31 23:56:48.2	174.770	0.430	-1.380	1.700
2020/01/31 23:56:48.3	174.760	0.370	-1.350	1.760
2020/01/31 23:56:48.4	174.750	0.300	-1.300	1.810
2020/01/31 23:56:48.5	174.750	0.240	-1.250	1.870
2020/01/31 23:56:48.6	174.750	0.160	-1.190	1.930
2020/01/31 23:56:48.7	174.750	0.090	-1.120	1.990
2020/01/31 23:56:48.8	174.750	0.020	-1.040	2.050
2020/01/31 23:56:48.9	174.760	-0.060	-0.950	2.100
2020/01/31 23:56:49.0	174.780	-0.140	-0.860	2.150
2020/01/31 23:56:49.1	174.790	-0.220	-0.760	2.200
2020/01/31 23:56:49.2	174.800	-0.300	-0.650	2.250
2020/01/31 23:56:49.3	174.810	-0.370	-0.550	2.290
2020/01/31 23:56:49.4	174.820	-0.440	-0.440	2.330
2020/01/31 23:56:49.5	174.840	-0.520	-0.320	2.360
2020/01/31 23:56:49.6	174.850	-0.580	-0.210	2.390
2020/01/31 23:56:49.7	174.870	-0.650	-0.100	2.410
2020/01/31 23:56:49.8	174.880	-0.710	0.010	2.430
2020/01/31 23:56:49.9	174.900	-0.760	0.110	2.440
2020/01/31 23:56:50.0	174.920	-0.810	0.210	2.450
2020/01/31 23:56:50.1	174.930	-0.850	0.310	2.460
2020/01/31 23:56:50.2	174.950	-0.890	0.400	2.460
2020/01/31 23:56:50.3	174.960	-0.920	0.480	2.450
2020/01/31 23:56:50.4	174.980	-0.950	0.550	2.450
2020/01/31 23:56:50.5	174.990	-0.960	0.610	2.430
2020/01/31 23:56:50.6	175.000	-0.970	0.660	2.420
2020/01/31 23:56:50.7	175.010	-0.980	0.700	2.410
2020/01/31 23:56:50.8	175.020	-0.970	0.720	2.390
2020/01/31 23:56:50.9	175.020	-0.960	0.740	2.370
2020/01/31 23:56:51.0	175.010	-0.950	0.740	2.350
2020/01/31 23:56:51.1	175.020	-0.920	0.730	2.330
2020/01/31 23:56:51.2	175.010	-0.890	0.710	2.320
2020/01/31 23:56:51.3	175.010	-0.860	0.680	2.300
2020/01/31 23:56:51.4	175.000	-0.820	0.630	2.290
2020/01/31 23:56:51.5	174.990	-0.770	0.570	2.270
2020/01/31 23:56:51.6	174.970	-0.720	0.500	2.260
2020/01/31 23:56:51.7	174.950	-0.660	0.420	2.250
2020/01/31 23:56:51.8	174.930	-0.600	0.330	2.250
2020/01/31 23:56:51.9	174.910	-0.530	0.230	2.240
2020/01/31 23:56:52.0	174.900	-0.460	0.130	2.230
2020/01/31 23:56:52.1	174.870	-0.390	0.020	2.230
2020/01/31 23:56:52.2	174.840	-0.310	-0.100	2.230
2020/01/31 23:56:52.3	174.800	-0.240	-0.220	2.230
2020/01/31 23:56:52.4	174.770	-0.160	-0.340	2.230
2020/01/31 23:56:52.5	174.730	-0.080	-0.460	2.230
2020/01/31 23:56:52.6	174.690	-0.000	-0.590	2.240
2020/01/31 23:56:52.7	174.650	0.070	-0.700	2.240
2020/01/31 23:56:52.8	174.610	0.150	-0.820	2.240
2020/01/31 23:56:52.9	174.570	0.220	-0.920	2.230
2020/01/31 23:56:53.0	174.520	0.290	-1.020	2.230
2020/01/31 23:56:53.1	174.480	0.350	-1.110	2.220
2020/01/31 23:56:53.2	174.450	0.410	-1.190	2.210
2020/01/31 23:56:53.3	174.410	0.470	-1.260	2.200
2020/01/31 23:56:53.4	174.380	0.520	-1.310	2.180
2020/01/31 23:56:53.5	174.360	0.570	-1.350	2.160
2020/01/31 23:56:53.6	174.340	0.610	-1.380	2.140
2020/01/31 23:56:53.7	174.320	0.640	-1.390	2.120
2020/01/31 23:56:53.8	174.310	0.670	-1.380	2.090
2020/01/31 23:56:53.9	174.300	0.680	-1.360	2.060
2020/01/31 23:56:54.0	174.290	0.700	-1.320	2.020
2020/01/31 23:56:54.1	174.290	0.700	-1.270	1.990
2020/01/31 23:56:54.2	174.300	0.700	-1.200	1.960
2020/01/31 23:56:54.3	174.300	0.690	-1.110	1.920
2020/01/31 23:56:54.4	174.320	0.680	-1.010	1.880
2020/01/31 23:56:54.5	174.330	0.660	-0.900	1.840
2020/01/31 23:56:54.6	174.360	0.630	-0.780	1.800
2020/01/31 23:56:54.7	174.380	0.600	-0.640	1.760
2020/01/31 23:56:54.8	174.410	0.560	-0.500	1.710
2020/01/31 23:56:54.9	174.450	0.520	-0.350	1.660
2020/01/31 23:56:55.0	174.480	0.470	-0.200	1.620
2020/01/31 23:56:55.1	174.520	0.420	-0.040	1.570
2020/01/31 23:56:55.2	174.560	0.370	0.120	1.520
2020/01/31 23:56:55.3	174.610	0.310	0.290	1.470
2020/01/31 23:56:55.4	174.650	0.250	0.450	1.420
2020/01/31 23:56:55.5	174.700	0.190	0.600	1.370
2020/01/31 23:56:55.6	174.750	0.130	0.750	1.320
2020/01/31 23:56:55.7	174.800	0.070	0.900	1.270
2020/01/31 23:56:55.8	174.860	0.000	1.030	1.220
2020/01/31 23:56:55.9	174.910	-0.060	1.160	1.180
2020/01/31 23:56:56.0	174.960	-0.120	1.260	1.140
2020/01/31 23:56:56.1	175.010	-0.180	1.360	1.100
2020/01/31 23:56:56.2	175.060	-0.240	1.450	1.060
2020/01/31 23:56:56.3	175.100	-0.290	1.520	1.030
2020/01/31 23:56:56.4	175.150	-0.340	1.580	1.000
2020/01/31 23:56:56.5	175.190	-0.390	1.620	0.980
2020/01/31 23:56:56.6	175.230	-0.430	1.640	0.960
2020/01/31 23:56:56.7	175.260	-0.470	1.650	0.950
2020/01/31 23:56:56.8	175.300	-0.510	1.640	0.940
2020/01/31 23:56:56.9	175.330	-0.540	1.610	0.940
2020/01/31 23:56:57.0	175.360	-0.570	1.570	0.940
2020/01/31 23:56:57.1	175.380	-0.590	1.510	0.950
2020/01/31 23:56:57.2	175.400	-0.600	1.440	0.960
2020/01/31 23:56:57.3	175.410	-0.620	1.350	0.980
2020/01/31 23:56:57.4	175.430	-0.620	1.250	1.000
2020/01/31 23:56:57.5	175.430	-0.620	1.130	1.030
2020/01/31 23:56:57.6	175.430	-0.620	1.010	1.070
2020/01/31 23:56:57.7	175.430	-0.610	0.870	1.110
2020/01/31 23:56:57.8	175.420	-0.590	0.720	1.160
2020/01/31 23:56:57.9	175.410	-0.570	0.570	1.220
2020/01/31 23:56:58.0	175.390	-0.550	0.410	1.280
2020/01/31 23:56:58.1	175.370	-0.520	0.240	1.340
2020/01/31 23:56:58.2	175.350	-0.490	0.070	1.410
2020/01/31 23:56:58.3	175.320	-0.450	-0.100	1.480
2020/01/31 23:56:58.4	175.280	-0.410	-0.270	1.550
2020/01/31 23:56:58.5	175.250	-0.360	-0.440	1.630
2020/01/31 23:56:58.6	175.210	-0.320	-0.610	1.700
2020/01/31 23:56:58.7	175.170	-0.270	-0.770	1.770
2020/01/31 23:56:58.8	175.120	-0.220	-0.930	1.850
2020/01/31 23:56:58.9	175.080	-0.170	-1.080	1.920
2020/01/31 23:56:59.0	175.040	-0.110	-1.210	1.980
2020/01/31 23:56:59.1	175.000	-0.060	-1.340	2.040
2020/01/31 23:56:59.2	174.960	-0.010	-1.450	2.100
2020/01/31 23:56:59.3	174.920	0.050	-1.550	2.150
2020/01/31 23:56:59.4	174.880	0.100	-1.640	2.200
2020/01/31 23:56:59.5	174.850	0.150	-1.710	2.240
2020/01/31 23:56:59.6	174.810	0.200	-1.770	2.280
2020/01/31 23:56:59.7	174.790	0.240	-1.810	2.300
2020/01/31 23:56:59.8	174.760	0.290	-1.830	2.330
2020/01/31 23:56:59.9	174.740	0.330	-1.840	2.340
2020/01/31 23:57:00.0	174.730	0.370	-1.830	2.360
2020/01/31 23:57:00.1	174.720	0.400	-1.810	2.360
2020/01/31 23:57:00.2	174.700	0.440	-1.770	2.360
2020/01/31 23:57:00.3	174.690	0.460	-1.710	2.350
2020/01/31 23:57:00.4	174.690	0.490	-1.650	2.340
2020/01/31 23:57:00.5	174.680	0.510	-1.560	2.320
2020/01/31 23:57:00.6	174.680	0.530	-1.470	2.290
2020/01/31 23:57:00.7	174.680	0.550	-1.370	2.270
2020/01/31 23:57:00.8	174.680	0.560	-1.260	2.240
2020/01/31 23:57:00.9	174.690	0.570	-1.150	2.200
2020/01/31 23:57:01.0	174.690	0.570	-1.030	2.160
2020/01/31 23:57:01.1	174.700	0.570	-0.910	2.110
2020/01/31 23:57:01.2	174.710	0.570	-0.780	2.070
2020/01/31 23:57:01.3	174.720	0.560	-0.650	2.020
2020/01/31 23:57:01.4	174.720	0.560	-0.530	1.970
2020/01/31 23:57:01.5	174.730	0.550	-0.410	1.920
2020/01/31 23:57:01.6	174.730	0.530	-0.290	1.870
2020/01/31 23:57:01.7	174.740	0.520	-0.180	1.820
2020/01/31 23:57:01.8	174.740	0.500	-0.080	1.760
2020/01/31 23:57:01.9	174.740	0.490	0.010	1.710
2020/01/31 23:57:02.0	174.730	0.470	0.090	1.650
2020/01/31 23:57:02.1	174.730	0.450	0.170	1.600
2020/01/31 23:57:02.2	174.730	0.430	0.230	1.550
2020/01/31 23:57:02.3	174.720	0.410	0.280	1.490
2020/01/31 23:57:02.4	174.720	0.380	0.320	1.440
2020/01/31 23:57:02.5	174.710	0.360	0.350	1.390
2020/01/31 23:57:02.6	174.700	0.340	0.370	1.340
2020/01/31 23:57:02.7	174.690	0.320	0.380	1.290
2020/01/31 23:57:02.8	174.690	0.290	0.370	1.250
2020/01/31 23:57:02.9	174.680	0.270	0.360	1.200
2020/01/31 23:57:03.0	174.640	0.250	0.340	1.160
2020/01/31 23:57:03.1	174.640	0.220	0.310	1.120
2020/01/31 23:57:03.2	174.630	0.200	0.270	1.090
2020/01/31 23:57:03.3	174.620	0.170	0.230	1.060
2020/01/31 23:57:03.4	174.610	0.140	0.180	1.030
2020/01/31 23:57:03.5	174.600	0.120	0.120	1.020
2020/01/31 23:57:03.6	174.590	0.090	0.060	1.010
2020/01/31 23:57:03.7	174.580	0.060	-0.000	1.000
2020/01/31 23:57:03.8	174.570	0.040	-0.070	1.000
2020/01/31 23:57:03.9	174.560	0.010	-0.130	1.010
2020/01/31 23:57:04.0	174.530	-0.020	-0.200	1.030
2020/01/31 23:57:04.1	174.520	-0.040	-0.270	1.050
2020/01/31 23:57:04.2	174.510	-0.070	-0.330	1.080
2020/01/31 23:57:04.3	174.490	-0.100	-0.390	1.110
2020/01/31 23:57:04.4	174.480	-0.120	-0.450	1.150
2020/01/31 23:57:04.5	174.470	-0.150	-0.510	1.190
2020/01/31 23:57:04.6	174.450	-0.170	-0.560	1.240
2020/01/31 23:57:04.7	174.440	-0.200	-0.610	1.290
2020/01/31 23:57:04.8	174.420	-0.220	-0.660	1.340
2020/01/31 23:57:04.9	174.400	-0.240	-0.690	1.400
2020/01/31 23:57:05.0	174.380	-0.260	-0.720	1.460
2020/01/31 23:57:05.1	174.360	-0.280	-0.750	1.510
2020/01/31 23:57:05.2	174.350	-0.300	-0.770	1.570
2020/01/31 23:57:05.3	174.330	-0.320	-0.790	1.620
2020/01/31 23:57:05.4	174.310	-0.330	-0.800	1.680
2020/01/31 23:57:05.5	174.290	-0.340	-0.810	1.730
2020/01/31 23:57:05.6	174.270	-0.350	-0.810	1.780
2020/01/31 23:57:05.7	174.250	-0.360	-0.800	1.830
2020/01/31 23:57:05.8	174.230	-0.370	-0.800	1.870
2020/01/31 23:57:05.9	174.220	-0.370	-0.780	1.910
2020/01/31 23:57:06.0	174.200	-0.380	-0.760	1.950
2020/01/31 23:57:06.1	174.190	-0.380	-0.740	1.990
2020/01/31 23:57:06.2	174.170	-0.380	-0.720	2.020
2020/01/31 23:57:06.3	174.160	-0.380	-0.690	2.040
2020/01/31 23:57:06.4	174.150	-0.370	-0.650	2.070
2020/01/31 23:57:06.5	174.140	-0.370	-0.620	2.090
2020/01/31 23:57:06.6	174.130	-0.360	-0.580	2.110
2020/01/31 23:57:06.7	174.130	-0.360	-0.540	2.120
2020/01/31 23:57:06.8	174.120	-0.350	-0.490	2.140
2020/01/31 23:57:06.9	174.120	-0.340	-0.450	2.150
2020/01/31 23:57:07.0	174.130	-0.330	-0.400	2.150
2020/01/31 23:57:07.1	174.130	-0.330	-0.350	2.160
2020/01/31 23:57:07.2	174.130	-0.320	-0.300	2.170
2020/01/31 23:57:07.3	174.130	-0.310	-0.250	2.170
2020/01/31 23:57:07.4	174.140	-0.300	-0.200	2.170
2020/01/31 23:57:07.5	174.140	-0.290	-0.140	2.170
2020/01/31 23:57:07.6	174.150	-0.280	-0.090	2.170
2020/01/31 23:57:07.7	174.150	-0.270	-0.040	2.170
2020/01/31 23:57:07.8	174.160	-0.260	0.010	2.170
2020/01/31 23:57:07.9	174.170	-0.250	0.060	2.160
2020/01/31 23:57:08.0	174.180	-0.240	0.110	2.160
2020/01/31 23:57:08.1	174.190	-0.230	0.150	2.150
2020/01/31 23:57:08.2	174.210	-0.220	0.200	2.130
2020/01/31 23:57:08.3	174.220	-0.210	0.240	2.120
2020/01/31 23:57:08.4	174.230	-0.200	0.280	2.100
2020/01/31 23:57:08.5	174.250	-0.190	0.320	2.080
2020/01/31 23:57:08.6	174.260	-0.180	0.350	2.050
2020/01/31 23:57:08.7	174.280	-0.170	0.380	2.020
2020/01/31 23:57:08.8	174.300	-0.150	0.400	1.990
2020/01/31 23:57:08.9	174.310	-0.140	0.430	1.950
2020/01/31 23:57:09.0	174.320	-0.120	0.450	1.910
2020/01/31 23:57:09.1	174.330	-0.110	0.460	1.880
2020/01/31 23:57:09.2	174.350	-0.090	0.470	1.830
2020/01/31 23:57:09.3	174.370	-0.070	0.470	1.790
2020/01/31 23:57:09.4	174.380	-0.050	0.470	1.750
2020/01/31 23:57:09.5	174.400	-0.030	0.470	1.710
2020/01/31 23:57:09.6	174.420	-0.010	0.460	1.660
2020/01/31 23:57:09.7	174.430	0.010	0.440	1.620
2020/01/31 23:57:09.8	174.450	0.030	0.420	1.580
2020/01/31 23:57:09.9	174.460	0.050	0.400	1.540
2020/01/31 23:57:10.0	174.460	0.070	0.360	1.490
2020/01/31 23:57:10.1	174.480	0.100	0.330	1.460
2020/01/31 23:57:10.2	174.490	0.120	0.290	1.420
2020/01/31 23:57:10.3	174.500	0.140	0.250	1.390
2020/01/31 23:57:10.4	174.510	0.170	0.210	1.350
2020/01/31 23:57:10.5	174.520	0.190	0.160	1.330
2020/01/31 23:57:10.6	174.530	0.210	0.110	1.300
2020/01/31 23:57:10.7	174.540	0.230	0.060	1.280
2020/01/31 23:57:10.8	174.540	0.250	0.000	1.260
2020/01/31 23:57:10.9	174.550	0.270	-0.050	1.240
2020/01/31 23:57:11.0	174.560	0.290	-0.100	1.220
2020/01/31 23:57:11.1	174.570	0.300	-0.160	1.210
2020/01/31 23:57:11.2	174.570	0.310	-0.220	1.210
2020/01/31 23:57:11.3	174.570	0.320	-0.280	1.210
2020/01/31 23:57:11.4	174.570	0.330	-0.330	1.210
2020/01/31 23:57:11.5	174.570	0.340	-0.390	1.220
2020/01/31 23:57:11.6	174.570	0.350	-0.440	1.240
2020/01/31 23:57:11.7	174.560	0.350	-0.490	1.260
2020/01/31 23:57:11.8	174.560	0.350	-0.540	1.280
2020/01/31 23:57:11.9	174.550	0.340	-0.590	1.310
2020/01/31 23:57:12.0	174.550	0.340	-0.630	1.340
2020/01/31 23:57:12.1	174.540	0.330	-0.670	1.370
2020/01/31 23:57:12.2	174.530	0.320	-0.700	1.410
2020/01/31 23:57:12.3	174.520	0.310	-0.730	1.440
2020/01/31 23:57:12.4	174.500	0.290	-0.750	1.480
2020/01/31 23:57:12.5	174.490	0.280	-0.770	1.520
2020/01/31 23:57:12.6	174.480	0.260	-0.790	1.560
2020/01/31 23:57:12.7	174.460	0.240	-0.790	1.610
2020/01/31 23:57:12.8	174.450	0.210	-0.800	1.650
2020/01/31 23:57:12.9	174.440	0.190	-0.790	1.690
2020/01/31 23:57:13.0	174.400	0.160	-0.780	1.740
2020/01/31 23:57:13.1	174.390	0.140	-0.770	1.780
2020/01/31 23:57:13.2	174.380	0.110	-0.750	1.820
2020/01/31 23:57:13.3	174.360	0.080	-0.730	1.860
2020/01/31 23:57:13.4	174.350	0.050	-0.700	1.900
2020/01/31 23:57:13.5	174.340	0.030	-0.660	1.930
2020/01/31 23:57:13.6	174.330	-0.000	-0.620	1.970
2020/01/31 23:57:13.7	174.320	-0.030	-0.580	2.000
2020/01/31 23:57:13.8	174.310	-0.060	-0.540	2.030
2020/01/31 23:57:13.9	174.300	-0.080	-0.490	2.050
2020/01/31 23:57:14.0	174.290	-0.110	-0.440	2.080
2020/01/31 23:57:14.1	174.280	-0.130	-0.390	2.100
2020/01/31 23:57:14.2	174.270	-0.150	-0.340	2.110
2020/01/31 23:57:14.3	174.270	-0.170	-0.290	2.120
2020/01/31 23:57:14.4	174.260	-0.190	-0.240	2.130
2020/01/31 23:57:14.5	174.260	-0.200	-0.190	2.140
2020/01/31 23:57:14.6	174.250	-0.220	-0.140	2.140
2020/01/31 23:57:14.7	174.250	-0.230	-0.090	2.140
2020/01/31 23:57:14.8	174.250	-0.240	-0.040	2.130
2020/01/31 23:57:14.9	174.250	-0.250	0.000	2.120
2020/01/31 23:57:15.0	174.250	-0.250	0.040	2.100
2020/01/31 23:57:15.1	174.250	-0.250	0.080	2.080
2020/01/31 23:57:15.2	174.260	-0.250	0.110	2.060
2020/01/31 23:57:15.3	174.270	-0.250	0.140	2.040
2020/01/31 23:57:15.4	174.270	-0.250	0.170	2.010
2020/01/31 23:57:15.5	174.280	-0.240	0.190	1.980
2020/01/31 23:57:15.6	174.290	-0.230	0.200	1.950
2020/01/31 23:57:15.7	174.300	-0.220	0.210	1.920
2020/01/31 23:57:15.8	174.310	-0.210	0.220	1.890
2020/01/31 23:57:15.9	174.320	-0.190	0.220	1.860
2020/01/31 23:57:16.0	174.340	-0.170	0.210	1.820
2020/01/31 23:57:16.1	174.350	-0.150	0.210	1.790
2020/01/31 23:57:16.2	174.360	-0.130	0.190	1.760
2020/01/31 23:57:16.3	174.370	-0.110	0.170	1.730
2020/01/31 23:57:16.4	174.390	-0.080	0.150	1.690
2020/01/31 23:57:16.5	174.400	-0.060	0.120	1.660
2020/01/31 23:57:16.6	174.410	-0.030	0.090	1.630
2020/01/31 23:57:16.7	174.420	-0.010	0.050	1.600
2020/01/31 23:57:16.8	174.430	0.020	0.010	1.570
2020/01/31 23:57:16.9	174.440	0.050	-0.030	1.540
2020/01/31 23:57:17.0	174.440	0.070	-0.080	1.510
2020/01/31 23:57:17.1	174.450	0.100	-0.130	1.480
2020/01/31 23:57:17.2	174.460	0.130	-0.170	1.450
2020/01/31 23:57:17.3	174.460	0.150	-0.220	1.430
2020/01/31 23:57:17.4	174.460	0.170	-0.270	1.400
2020/01/31 23:57:17.5	174.460	0.200	-0.320	1.380
2020/01/31 23:57:17.6	174.460	0.220	-0.370	1.360
2020/01/31 23:57:17.7	174.460	0.240	-0.420	1.340
2020/01/31 23:57:17.8	174.460	0.260	-0.470	1.320
2020/01/31 23:57:17.9	174.450	0.280	-0.520	1.310
2020/01/31 23:57:18.0	174.440	0.290	-0.560	1.300
2020/01/31 23:57:18.1	174.430	0.300	-0.610	1.290
2020/01/31 23:57:18.2	174.420	0.320	-0.650	1.280
2020/01/31 23:57:18.3	174.410	0.320	-0.690	1.280
2020/01/31 23:57:18.4	174.400	0.330	-0.730	1.270
2020/01/31 23:57:18.5	174.380	0.330	-0.760	1.280
2020/01/31 23:57:18.6	174.370	0.330	-0.800	1.280
2020/01/31 23:57:18.7	174.350	0.330	-0.820	1.290
2020/01/31 23:57:18.8	174.330	0.330	-0.850	1.300
2020/01/31 23:57:18.9	174.320	0.320	-0.870	1.320
2020/01/31 23:57:19.0	174.300	0.310	-0.890	1.340
2020/01/31 23:57:19.1	174.280	0.300	-0.900	1.360
2020/01/31 23:57:19.2	174.270	0.290	-0.900	1.390
2020/01/31 23:57:19.3	174.250	0.270	-0.900	1.420
2020/01/31 23:57:19.4	174.230	0.250	-0.900	1.450
2020/01/31 23:57:19.5	174.220	0.230	-0.890	1.480
2020/01/31 23:57:19.6	174.210	0.210	-0.870	1.520
2020/01/31 23:57:19.7	174.190	0.180	-0.850	1.550
2020/01/31 23:57:19.8	174.180	0.160	-0.820	1.590
2020/01/31 23:57:19.9	174.170	0.130	-0.790	1.630
2020/01/31 23:57:20.0	174.170	0.100	-0.750	1.660
2020/01/31 23:57:20.1	174.170	0.070	-0.710	1.700
2020/01/31 23:57:20.2	174.160	0.040	-0.660	1.730
2020/01/31 23:57:20.3	174.150	0.010	-0.610	1.770
2020/01/31 23:57:20.4	174.150	-0.020	-0.550	1.800
2020/01/31 23:57:20.5	174.150	-0.050	-0.490	1.830
2020/01/31 23:57:20.6	174.150	-0.080	-0.430	1.850
2020/01/31 23:57:20.7	174.140	-0.110	-0.370	1.870
2020/01/31 23:57:20.8	174.150	-0.140	-0.300	1.890
2020/01/31 23:57:20.9	174.150	-0.170	-0.230	1.910
2020/01/31 23:57:21.0	174.150	-0.200	-0.160	1.930
2020/01/31 23:57:21.1	174.160	-0.220	-0.100	1.940
2020/01/31 23:57:21.2	174.160	-0.250	-0.030	1.940
2020/01/31 23:57:21.3	174.160	-0.270	0.030	1.950
2020/01/31 23:57:21.4	174.170	-0.290	0.100	1.950
2020/01/31 23:57:21.5	174.170	-0.310	0.160	1.950
2020/01/31 23:57:21.6	174.180	-0.320	0.210	1.940
2020/01/31 23:57:21.7	174.180	-0.340	0.260	1.930
2020/01/31 23:57:21.8	174.190	-0.350	0.310	1.920
2020/01/31 23:57:21.9	174.190	-0.360	0.350	1.910
2020/01/31 23:57:22.0	174.190	-0.360	0.380	1.890
2020/01/31 23:57:22.1	174.200	-0.360	0.410	1.870
2020/01/31 23:57:22.2	174.200	-0.360	0.430	1.850
2020/01/31 23:57:22.3	174.200	-0.360	0.450	1.830
2020/01/31 23:57:22.4	174.210	-0.350	0.450	1.810
2020/01/31 23:57:22.5	174.210	-0.340	0.460	1.780
2020/01/31 23:57:22.6	174.210	-0.330	0.450	1.760
2020/01/31 23:57:22.7	174.210	-0.320	0.440	1.730
2020/01/31 23:57:22.8	174.210	-0.300	0.420	1.710
2020/01/31 23:57:22.9	174.220	-0.280	0.400	1.680
2020/01/31 23:57:23.0	174.210	-0.260	0.370	1.650
2020/01/31 23:57:23.1	174.210	-0.230	0.340	1.620
2020/01/31 23:57:23.2	174.220	-0.210	0.300	1.590
2020/01/31 23:57:23.3	174.220	-0.180	0.250	1.560
2020/01/31 23:57:23.4	174.220	-0.150	0.210	1.530
2020/01/31 23:57:23.5	174.230	-0.120	0.160	1.500
2020/01/31 23:57:23.6	174.230	-0.090	0.100	1.480
2020/01/31 23:57:23.7	174.240	-0.060	0.050	1.450
2020/01/31 23:57:23.8	174.240	-0.040	-0.010	1.420
2020/01/31 23:57:23.9	174.250	-0.010	-0.060	1.390
2020/01/31 23:57:24.0	174.250	0.020	-0.120	1.360
2020/01/31 23:57:24.1	174.260	0.050	-0.180	1.330
2020/01/31 23:57:24.2	174.270	0.070	-0.230	1.310
2020/01/31 23:57:24.3	174.280	0.100	-0.280	1.280
2020/01/31 23:57:24.4	174.290	0.120	-0.340	1.260
2020/01/31 23:57:24.5	174.300	0.140	-0.380	1.240
2020/01/31 23:57:24.6	174.310	0.150	-0.430	1.220
2020/01/31 23:57:24.7	174.320	0.170	-0.470	1.200
2020/01/31 23:57:24.8	174.330	0.180	-0.510	1.180
2020/01/31 23:57:24.9	174.340	0.190	-0.550	1.170
2020/01/31 23:57:25.0	174.360	0.190	-0.570	1.160
2020/01/31 23:57:25.1	174.370	0.200	-0.600	1.150
2020/01/31 23:57:25.2	174.390	0.200	-0.630	1.140
2020/01/31 23:57:25.3	174.400	0.200	-0.650	1.130
2020/01/31 23:57:25.4	174.410	0.190	-0.660	1.130
2020/01/31 23:57:25.5	174.410	0.180	-0.680	1.130
2020/01/31 23:57:25.6	174.420	0.180	-0.690	1.130
2020/01/31 23:57:25.7	174.430	0.160	-0.690	1.140
2020/01/31 23:57:25.8	174.440	0.150	-0.700	1.140
2020/01/31 23:57:25.9	174.440	0.140	-0.700	1.150
2020/01/31 23:57:26.0	174.440	0.120	-0.700	1.160
2020/01/31 23:57:26.1	174.440	0.110	-0.700	1.180
2020/01/31 23:57:26.2	174.450	0.090	-0.690	1.190
2020/01/31 23:57:26.3	174.450	0.070	-0.680	1.210
2020/01/31 23:57:26.4	174.450	0.050	-0.670	1.230
2020/01/31 23:57:26.5	174.450	0.030	-0.650	1.260
2020/01/31 23:57:26.6	174.440	0.010	-0.640	1.280
2020/01/31 23:57:26.7	174.440	-0.000	-0.620	1.310
2020/01/31 23:57:26.8	174.430	-0.020	-0.600	1.340
2020/01/31 23:57:26.9	174.430	-0.040	-0.580	1.370
2020/01/31 23:57:27.0	174.410	-0.060	-0.550	1.410
2020/01/31 23:57:27.1	174.410	-0.070	-0.520	1.440
2020/01/31 23:57:27.2	174.400	-0.080	-0.500	1.480
2020/01/31 23:57:27.3	174.390	-0.100	-0.470	1.520
2020/01/31 23:57:27.4	174.380	-0.110	-0.450	1.560
2020/01/31 23:57:27.5	174.360	-0.120	-0.420	1.600
2020/01/31 23:57:27.6	174.350	-0.120	-0.400	1.640
2020/01/31 23:57:27.7	174.330	-0.130	-0.370	1.680
2020/01/31 23:57:27.8	174.320	-0.130	-0.340	1.720
2020/01/31 23:57:27.9	174.300	-0.130	-0.320	1.760
2020/01/31 23:57:28.0	174.280	-0.130	-0.300	1.800
2020/01/31 23:57:28.1	174.270	-0.130	-0.270	1.840
2020/01/31 23:57:28.2	174.240	-0.120	-0.250	1.880
2020/01/31 23:57:28.3	174.220	-0.120	-0.230	1.910
2020/01/31 23:57:28.4	174.200	-0.110	-0.220	1.950
2020/01/31 23:57:28.5	174.180	-0.100	-0.200	1.980
2020/01/31 23:57:28.6	174.150	-0.090	-0.190	2.010
2020/01/31 23:57:28.7	174.130	-0.080	-0.170	2.040
2020/01/31 23:57:28.8	174.110	-0.060	-0.160	2.060
2020/01/31 23:57:28.9	174.090	-0.050	-0.150	2.080
2020/01/31 23:57:29.0	174.060	-0.040	-0.140	2.100
2020/01/31 23:57:29.1	174.040	-0.020	-0.130	2.110
2020/01/31 23:57:29.2	174.030	-0.010	-0.120	2.120
2020/01/31 23:57:29.3	174.010	0.000	-0.110	2.120
2020/01/31 23:57:29.4	174.000	0.020	-0.100	2.120
2020/01/31 23:57:29.5	173.990	0.030	-0.090	2.120
2020/01/31 23:57:29.6	173.990	0.040	-0.080	2.110
2020/01/31 23:57:29.7	173.980	0.050	-0.060	2.100
2020/01/31 23:57:29.8	173.980	0.050	-0.050	2.080
2020/01/31 23:57:29.9	173.980	0.060	-0.040	2.070
2020/01/31 23:57:30.0	173.990	0.060	-0.010	2.040
2020/01/31 23:57:30.1	174.000	0.060	0.000	2.020
2020/01/31 23:57:30.2	174.010	0.060	0.020	2.000
2020/01/31 23:57:30.3	174.020	0.060	0.040	1.980
2020/01/31 23:57:30.4	174.030	0.060	0.060	1.960
2020/01/31 23:57:30.5	174.050	0.050	0.080	1.940
2020/01/31 23:57:30.6	174.070	0.050	0.100	1.920
2020/01/31 23:57:30.7	174.090	0.040	0.120	1.890
2020/01/31 23:57:30.8	174.110	0.030	0.140	1.870
2020/01/31 23:57:30.9	174.130	0.020	0.170	1.840
2020/01/31 23:57:31.0	174.150	0.010	0.180	1.810
2020/01/31 23:57:31.1	174.170	-0.000	0.200	1.790
2020/01/31 23:57:31.2	174.200	-0.020	0.220	1.760
2020/01/31 23:57:31.3	174.220	-0.030	0.240	1.730
2020/01/31 23:57:31.4	174.250	-0.040	0.250	1.700
2020/01/31 23:57:31.5	174.270	-0.050	0.260	1.670
2020/01/31 23:57:31.6	174.290	-0.060	0.270	1.630
2020/01/31 23:57:31.7	174.320	-0.070	0.270	1.600
2020/01/31 23:57:31.8	174.340	-0.080	0.270	1.570
2020/01/31 23:57:31.9	174.360	-0.090	0.270	1.530
2020/01/31 23:57:32.0	174.370	-0.090	0.260	1.500
2020/01/31 23:57:32.1	174.390	-0.100	0.250	1.470
2020/01/31 23:57:32.2	174.400	-0.100	0.230	1.430
2020/01/31 23:57:32.3	174.420	-0.100	0.210	1.400
2020/01/31 23:57:32.4	174.430	-0.100	0.180	1.370
2020/01/31 23:57:32.5	174.430	-0.090	0.150	1.340
2020/01/31 23:57:32.6	174.440	-0.080	0.110	1.310
2020/01/31 23:57:32.7	174.440	-0.070	0.070	1.280
2020/01/31 23:57:32.8	174.440	-0.060	0.020	1.260
2020/01/31 23:57:32.9	174.430	-0.050	-0.030	1.240
2020/01/31 23:57:33.0	174.420	-0.030	-0.090	1.220
2020/01/31 23:57:33.1	174.410	-0.020	-0.150	1.210
2020/01/31 23:57:33.2	174.390	0.000	-0.220	1.200
2020/01/31 23:57:33.3	174.380	0.020	-0.280	1.190
2020/01/31 23:57:33.4	174.360	0.040	-0.350	1.190
2020/01/31 23:57:33.5	174.350	0.070	-0.420	1.200
2020/01/31 23:57:33.6	174.330	0.090	-0.490	1.210
2020/01/31 23:57:33.7	174.300	0.110	-0.560	1.220
2020/01/31 23:57:33.8	174.280	0.140	-0.630	1.240
2020/01/31 23:57:33.9	174.260	0.160	-0.700	1.260
2020/01/31 23:57:34.0	174.230	0.190	-0.760	1.290
2020/01/31 23:57:34.1	174.210	0.210	-0.820	1.320
2020/01/31 23:57:34.2	174.180	0.230	-0.880	1.350
2020/01/31 23:57:34.3	174.160	0.260	-0.930	1.390
2020/01/31 23:57:34.4	174.140	0.280	-0.980	1.420
2020/01/31 23:57:34.5	174.120	0.290	-1.020	1.460
2020/01/31 23:57:34.6	174.100	0.310	-1.050	1.490
2020/01/31 23:57:34.7	174.080	0.320	-1.070	1.520
2020/01/31 23:57:34.8	174.070	0.330	-1.090	1.560
2020/01/31 23:57:34.9	174.050	0.340	-1.100	1.590
2020/01/31 23:57:35.0	174.050	0.350	-1.100	1.620
2020/01/31 23:57:35.1	174.040	0.350	-1.090	1.640
2020/01/31 23:57:35.2	174.040	0.350	-1.060	1.660
2020/01/31 23:57:35.3	174.030	0.340	-1.030	1.680
2020/01/31 23:57:35.4	174.030	0.340	-0.990	1.700
2020/01/31 23:57:35.5	174.030	0.320	-0.950	1.710
2020/01/31 23:57:35.6	174.040	0.310	-0.890	1.710
2020/01/31 23:57:35.7	174.040	0.290	-0.820	1.720
2020/01/31 23:57:35.8	174.050	0.270	-0.750	1.720
2020/01/31 23:57:35.9	174.060	0.250	-0.670	1.720
2020/01/31 23:57:36.0	174.070	0.230	-0.590	1.710
2020/01/31 23:57:36.1	174.090	0.200	-0.500	1.700
2020/01/31 23:57:36.2	174.110	0.170	-0.410	1.680
2020/01/31 23:57:36.3	174.130	0.140	-0.320	1.670
2020/01/31 23:57:36.4	174.150	0.100	-0.220	1.650
2020/01/31 23:57:36.5	174.170	0.070	-0.130	1.630
2020/01/31 23:57:36.6	174.190	0.040	-0.040	1.610
2020/01/31 23:57:36.7	174.210	-0.000	0.050	1.590
2020/01/31 23:57:36.8	174.240	-0.040	0.140	1.570
2020/01/31 23:57:36.9	174.260	-0.070	0.220	1.550
2020/01/31 23:57:37.0	174.280	-0.110	0.300	1.530
2020/01/31 23:57:37.1	174.300	-0.140	0.370	1.520
2020/01/31 23:57:37.2	174.320	-0.170	0.430	1.500
2020/01/31 23:57:37.3	174.340	-0.200	0.480	1.480
2020/01/31 23:57:37.4	174.350	-0.230	0.520	1.470
2020/01/31 23:57:37.5	174.370	-0.250	0.550	1.460
2020/01/31 23:57:37.6	174.380	-0.280	0.570	1.450
2020/01/31 23:57:37.7	174.400	-0.300	0.580	1.440
2020/01/31 23:57:37.8	174.410	-0.310	0.580	1.440
2020/01/31 23:57:37.9	174.420	-0.320	0.560	1.440
2020/01/31 23:57:38.0	174.430	-0.330	0.540	1.430
2020/01/31 23:57:38.1	174.430	-0.340	0.510	1.440
2020/01/31 23:57:38.2	174.430	-0.340	0.460	1.440
2020/01/31 23:57:38.3	174.440	-0.340	0.410	1.450
2020/01/31 23:57:38.4	174.440	-0.340	0.350	1.460
2020/01/31 23:57:38.5	174.440	-0.330	0.290	1.480
2020/01/31 23:57:38.6	174.430	-0.320	0.210	1.490
2020/01/31 23:57:38.7	174.430	-0.310	0.130	1.510
2020/01/31 23:57:38.8	174.430	-0.290	0.050	1.530
2020/01/31 23:57:38.9	174.420	-0.270	-0.040	1.550
2020/01/31 23:57:39.0	174.400	-0.250	-0.130	1.580
2020/01/31 23:57:39.1	174.390	-0.230	-0.220	1.610
2020/01/31 23:57:39.2	174.380	-0.210	-0.310	1.630
2020/01/31 23:57:39.3	174.370	-0.190	-0.400	1.660
2020/01/31 23:57:39.4	174.360	-0.160	-0.490	1.690
2020/01/31 23:57:39.5	174.350	-0.130	-0.570	1.720
2020/01/31 23:57:39.6	174.340	-0.110	-0.650	1.750
2020/01/31 23:57:39.7	174.320	-0.080	-0.720	1.780
2020/01/31 23:57:39.8	174.310	-0.060	-0.790	1.810
2020/01/31 23:57:39.9	174.300	-0.040	-0.850	1.840
2020/01/31 23:57:40.0	174.290	-0.010	-0.900	1.870
2020/01/31 23:57:40.1	174.280	0.010	-0.950	1.910
2020/01/31 23:57:40.2	174.270	0.020	-0.980	1.940
2020/01/31 23:57:40.3	174.260	0.040	-1.010	1.960
2020/01/31 23:57:40.4	174.250	0.060	-1.030	1.990
2020/01/31 23:57:40.5	174.240	0.070	-1.040	2.020
2020/01/31 23:57:40.6	174.230	0.080	-1.040	2.040
2020/01/31 23:57:40.7	174.220	0.090	-1.030	2.070
2020/01/31 23:57:40.8	174.220	0.090	-1.010	2.090
2020/01/31 23:57:40.9	174.220	0.090	-0.980	2.110
2020/01/31 23:57:41.0	174.230	0.090	-0.950	2.130
2020/01/31 23:57:41.1	174.230	0.090	-0.900	2.140
2020/01/31 23:57:41.2	174.230	0.080	-0.850	2.150
2020/01/31 23:57:41.3	174.230	0.070	-0.780	2.160
2020/01/31 23:57:41.4	174.240	0.060	-0.720	2.160
2020/01/31 23:57:41.5	174.240	0.050	-0.640	2.160
2020/01/31 23:57:41.6	174.250	0.040	-0.570	2.150
2020/01/31 23:57:41.7	174.260	0.020	-0.490	2.140
2020/01/31 23:57:41.8	174.270	0.000	-0.400	2.130
2020/01/31 23:57:41.9	174.280	-0.010	-0.320	2.120
2020/01/31 23:57:42.0	174.290	-0.030	-0.230	2.090
2020/01/31 23:57:42.1	174.310	-0.050	-0.150	2.070
2020/01/31 23:57:42.2	174.320	-0.070	-0.070	2.040
2020/01/31 23:57:42.3	174.330	-0.090	0.010	2.010
2020/01/31 23:57:42.4	174.340	-0.110	0.080	1.980
2020/01/31 23:57:42.5	174.350	-0.130	0.150	1.950
2020/01/31 23:57:42.6	174.360	-0.140	0.210	1.910
2020/01/31 23:57:42.7	174.360	-0.160	0.260	1.880
2020/01/31 23:57:42.8	174.370	-0.170	0.300	1.840
2020/01/31 23:57:42.9	174.370	-0.180	0.340	1.810
2020/01/31 23:57:43.0	174.360	-0.180	0.360	1.770
2020/01/31 23:57:43.1	174.350	-0.190	0.370	1.740
2020/01/31 23:57:43.2	174.350	-0.190	0.370	1.700
2020/01/31 23:57:43.3	174.330	-0.180	0.360	1.680
2020/01/31 23:57:43.4	174.320	-0.180	0.340	1.650
2020/01/31 23:57:43.5	174.300	-0.170	0.310	1.630
2020/01/31 23:57:43.6	174.270	-0.150	0.260	1.610
2020/01/31 23:57:43.7	174.250	-0.140	0.210	1.590
2020/01/31 23:57:43.8	174.220	-0.120	0.150	1.580
2020/01/31 23:57:43.9	174.190	-0.100	0.090	1.570
2020/01/31 23:57:44.0	174.150	-0.070	0.020	1.560
2020/01/31 23:57:44.1	174.110	-0.050	-0.060	1.560
2020/01/31 23:57:44.2	174.070	-0.020	-0.140	1.560
2020/01/31 23:57:44.3	174.030	0.010	-0.220	1.570
2020/01/31 23:57:44.4	173.990	0.040	-0.310	1.580
2020/01/31 23:57:44.5	173.960	0.060	-0.390	1.580
2020/01/31 23:57:44.6	173.920	0.090	-0.470	1.590
2020/01/31 23:57:44.7	173.890	0.120	-0.540	1.600
2020/01/31 23:57:44.8	173.860	0.140	-0.610	1.610
2020/01/31 23:57:44.9	173.830	0.160	-0.670	1.620
2020/01/31 23:57:45.0	173.810	0.190	-0.730	1.630
2020/01/31 23:57:45.1	173.790	0.200	-0.770	1.640
2020/01/31 23:57:45.2	173.780	0.220	-0.810	1.650
2020/01/31 23:57:45.3	173.770	0.230	-0.830	1.650
2020/01/31 23:57:45.4	173.770	0.240	-0.840	1.650
2020/01/31 23:57:45.5	173.770	0.240	-0.840	1.650
2020/01/31 23:57:45.6	173.780	0.240	-0.830	1.640
2020/01/31 23:57:45.7	173.800	0.240	-0.810	1.640
2020/01/31 23:57:45.8	173.820	0.230	-0.770	1.630
2020/01/31 23:57:45.9	173.850	0.220	-0.730	1.610
2020/01/31 23:57:46.0	173.900	0.200	-0.670	1.590
2020/01/31 23:57:46.1	173.930	0.180	-0.610	1.580
2020/01/31 23:57:46.2	173.980	0.150	-0.530	1.560
2020/01/31 23:57:46.3	174.030	0.130	-0.450	1.540
2020/01/31 23:57:46.4	174.080	0.090	-0.360	1.520
2020/01/31 23:57:46.5	174.130	0.060	-0.270	1.500
2020/01/31 23:57:46.6	174.190	0.020	-0.180	1.470
2020/01/31 23:57:46.7	174.250	-0.020	-0.080	1.450
2020/01/31 23:57:46.8	174.310	-0.060	0.010	1.420
2020/01/31 23:57:46.9	174.370	-0.100	0.110	1.400
2020/01/31 23:57:47.0	174.430	-0.150	0.190	1.370
2020/01/31 23:57:47.1	174.490	-0.190	0.280	1.350
2020/01/31 23:57:47.2	174.550	-0.230	0.360	1.330
2020/01/31 23:57:47.3	174.600	-0.280	0.430	1.320
2020/01/31 23:57:47.4	174.660	-0.320	0.500	1.300
2020/01/31 23:57:47.5	174.710	-0.350	0.550	1.290
2020/01/31 23:57:47.6	174.750	-0.390	0.600	1.280
2020/01/31 23:57:47.7	174.790	-0.420	0.630	1.280
2020/01/31 23:57:47.8	174.830	-0.440	0.650	1.280
2020/01/31 23:57:47.9	174.860	-0.470	0.660	1.290
2020/01/31 23:57:48.0	174.880	-0.480	0.660	1.300
2020/01/31 23:57:48.1	174.900	-0.500	0.650	1.320
2020/01/31 23:57:48.2	174.910	-0.500	0.620	1.340
2020/01/31 23:57:48.3	174.920	-0.500	0.590	1.370
2020/01/31 23:57:48.4	174.930	-0.500	0.540	1.400
2020/01/31 23:57:48.5	174.930	-0.490	0.480	1.440
2020/01/31 23:57:48.6	174.920	-0.470	0.420	1.480
2020/01/31 23:57:48.7	174.920	-0.450	0.340	1.530
2020/01/31 23:57:48.8	174.900	-0.420	0.260	1.570
2020/01/31 23:57:48.9	174.890	-0.380	0.170	1.620
2020/01/31 23:57:49.0	174.880	-0.340	0.080	1.670
2020/01/31 23:57:49.1	174.860	-0.300	-0.010	1.720
2020/01/31 23:57:49.2	174.830	-0.250	-0.110	1.770
2020/01/31 23:57:49.3	174.810	-0.200	-0.210	1.810
2020/01/31 23:57:49.4	174.780	-0.140	-0.300	1.850
2020/01/31 23:57:49.5	174.750	-0.080	-0.400	1.900
2020/01/31 23:57:49.6	174.720	-0.020	-0.490	1.940
2020/01/31 23:57:49.7	174.690	0.040	-0.580	1.970
2020/01/31 23:57:49.8	174.660	0.110	-0.660	2.010
2020/01/31 23:57:49.9	174.630	0.170	-0.740	2.040
2020/01/31 23:57:50.0	174.600	0.230	-0.810	2.070
2020/01/31 23:57:50.1	174.570	0.300	-0.870	2.090
2020/01/31 23:57:50.2	174.540	0.360	-0.920	2.110
2020/01/31 23:57:50.3	174.510	0.420	-0.970	2.130
2020/01/31 23:57:50.4	174.480	0.470	-1.000	2.150
2020/01/31 23:57:50.5	174.450	0.530	-1.020	2.150
2020/01/31 23:57:50.6	174.430	0.570	-1.040	2.160
2020/01/31 23:57:50.7	174.410	0.620	-1.040	2.160
2020/01/31 23:57:50.8	174.390	0.650	-1.040	2.150
2020/01/31 23:57:50.9	174.370	0.690	-1.020	2.140
2020/01/31 23:57:51.0	174.370	0.710	-0.990	2.120
2020/01/31 23:57:51.1	174.360	0.730	-0.960	2.100
2020/01/31 23:57:51.2	174.350	0.750	-0.910	2.080
2020/01/31 23:57:51.3	174.350	0.750	-0.860	2.050
2020/01/31 23:57:51.4	174.350	0.750	-0.790	2.020
2020/01/31 23:57:51.5	174.360	0.750	-0.720	1.980
2020/01/31 23:57:51.6	174.370	0.740	-0.650	1.950
2020/01/31 23:57:51.7	174.380	0.720	-0.560	1.910
2020/01/31 23:57:51.8	174.390	0.690	-0.480	1.870
2020/01/31 23:57:51.9	174.410	0.660	-0.390	1.820
2020/01/31 23:57:52.0	174.430	0.620	-0.290	1.770
2020/01/31 23:57:52.1	174.450	0.580	-0.200	1.730
2020/01/31 23:57:52.2	174.470	0.530	-0.110	1.680
2020/01/31 23:57:52.3	174.500	0.480	-0.010	1.640
2020/01/31 23:57:52.4	174.530	0.420	0.080	1.590
2020/01/31 23:57:52.5	174.550	0.370	0.170	1.550
2020/01/31 23:57:52.6	174.580	0.310	0.250	1.510
2020/01/31 23:57:52.7	174.610	0.240	0.330	1.470
2020/01/31 23:57:52.8	174.640	0.180	0.410	1.430
2020/01/31 23:57:52.9	174.670	0.120	0.480	1.390
2020/01/31 23:57:53.0	174.690	0.050	0.540	1.350
2020/01/31 23:57:53.1	174.720	-0.010	0.590	1.320
2020/01/31 23:57:53.2	174.750	-0.070	0.640	1.290
2020/01/31 23:57:53.3	174.770	-0.130	0.670	1.260
2020/01/31 23:57:53.4	174.800	-0.190	0.700	1.230
2020/01/31 23:57:53.5	174.820	-0.240	0.720	1.210
2020/01/31 23:57:53.6	174.840	-0.300	0.720	1.190
2020/01/31 23:57:53.7	174.860	-0.340	0.720	1.170
2020/01/31 23:57:53.8	174.880	-0.380	0.710	1.160
2020/01/31 23:57:53.9	174.890	-0.420	0.690	1.140
2020/01/31 23:57:54.0	174.900	-0.450	0.650	1.130
2020/01/31 23:57:54.1	174.910	-0.480	0.610	1.120
2020/01/31 23:57:54.2	174.920	-0.500	0.560	1.120
2020/01/31 23:57:54.3	174.930	-0.510	0.500	1.120
2020/01/31 23:57:54.4	174.930	-0.520	0.430	1.120
2020/01/31 23:57:54.5	174.930	-0.520	0.350	1.130
2020/01/31 23:57:54.6	174.920	-0.520	0.270	1.140
2020/01/31 23:57:54.7	174.910	-0.510	0.180	1.150
2020/01/31 23:57:54.8	174.900	-0.500	0.090	1.170
2020/01/31 23:57:54.9	174.890	-0.480	-0.010	1.180
2020/01/31 23:57:55.0	174.870	-0.450	-0.110	1.200
2020/01/31 23:57:55.1	174.850	-0.430	-0.220	1.230
2020/01/31 23:57:55.2	174.830	-0.390	-0.320	1.250
2020/01/31 23:57:55.3	174.810	-0.360	-0.430	1.280
2020/01/31 23:57:55.4	174.790	-0.320	-0.540	1.310
2020/01/31 23:57:55.5	174.770	-0.280	-0.650	1.340
2020/01/31 23:57:55.6	174.740	-0.240	-0.750	1.370
2020/01/31 23:57:55.7	174.720	-0.190	-0.860	1.410
2020/01/31 23:57:55.8	174.690	-0.150	-0.950	1.440
2020/01/31 23:57:55.9	174.660	-0.100	-1.050	1.480
2020/01/31 23:57:56.0	174.640	-0.050	-1.140	1.520
2020/01/31 23:57:56.1	174.610	-0.010	-1.220	1.560
2020/01/31 23:57:56.2	174.580	0.040	-1.290	1.600
2020/01/31 23:57:56.3	174.550	0.080	-1.360	1.640
2020/01/31 23:57:56.4	174.520	0.130	-1.420	1.680
2020/01/31 23:57:56.5	174.490	0.170	-1.470	1.720
2020/01/31 23:57:56.6	174.460	0.210	-1.510	1.760
2020/01/31 23:57:56.7	174.420	0.250	-1.550	1.800
2020/01/31 23:57:56.8	174.390	0.290	-1.570	1.830
2020/01/31 23:57:56.9	174.350	0.320	-1.580	1.870
2020/01/31 23:57:57.0	174.310	0.350	-1.580	1.900
2020/01/31 23:57:57.1	174.280	0.380	-1.570	1.920
2020/01/31 23:57:57.2	174.250	0.400	-1.560	1.950
2020/01/31 23:57:57.3	174.210	0.420	-1.530	1.970
2020/01/31 23:57:57.4	174.180	0.430	-1.490	1.990
2020/01/31 23:57:57.5	174.150	0.450	-1.450	2.000
2020/01/31 23:57:57.6	174.120	0.450	-1.400	2.010
2020/01/31 23:57:57.7	174.080	0.460	-1.340	2.020
2020/01/31 23:57:57.8	174.050	0.460	-1.270	2.020
2020/01/31 23:57:57.9	174.020	0.450	-1.200	2.020
2020/01/31 23:57:58.0	174.000	0.450	-1.120	2.010
2020/01/31 23:57:58.1	173.970	0.430	-1.040	2.000
2020/01/31 23:57:58.2	173.950	0.420	-0.950	1.980
2020/01/31 23:57:58.3	173.920	0.400	-0.860	1.970
2020/01/31 23:57:58.4	173.900	0.380	-0.770	1.950
2020/01/31 23:57:58.5	173.880	0.350	-0.680	1.930
2020/01/31 23:57:58.6	173.860	0.330	-0.580	1.910
2020/01/31 23:57:58.7	173.850	0.290	-0.490	1.880
2020/01/31 23:57:58.8	173.830	0.260	-0.400	1.860
2020/01/31 23:57:58.9	173.820	0.220	-0.310	1.830
2020/01/31 23:57:59.0	173.800	0.190	-0.210	1.800
2020/01/31 23:57:59.1	173.790	0.140	-0.130	1.770
2020/01/31 23:57:59.2	173.790	0.100	-0.050	1.750
2020/01/31 23:57:59.3	173.780	0.060	0.030	1.730
2020/01/31 23:57:59.4	173.780	0.010	0.110	1.700
2020/01/31 23:57:59.5	173.780	-0.030	0.170	1.680
2020/01/31 23:57:59.6	173.790	-0.080	0.240	1.660
2020/01/31 23:57:59.7	173.790	-0.130	0.300	1.650
2020/01/31 23:57:59.8	173.790	-0.180	0.350	1.630
2020/01/31 23:57:59.9	173.800	-0.230	0.400	1.620
2020/01/31 23:58:00.0	173.790	-0.280	0.430	1.610
2020/01/31 23:58:00.1	173.800	-0.320	0.470	1.610
2020/01/31 23:58:00.2	173.820	-0.370	0.500	1.600
2020/01/31 23:58:00.3	173.830	-0.420	0.520	1.600
2020/01/31 23:58:00.4	173.840	-0.460	0.540	1.600
2020/01/31 23:58:00.5	173.850	-0.510	0.550	1.610
2020/01/31 23:58:00.6	173.870	-0.550	0.560	1.610
2020/01/31 23:58:00.7	173.880	-0.580	0.570	1.620
2020/01/31 23:58:00.8	173.890	-0.620	0.570	1.620
2020/01/31 23:58:00.9	173.910	-0.650	0.560	1.630
2020/01/31 23:58:01.0	173.930	-0.680	0.560	1.640
2020/01/31 23:58:01.1	173.940	-0.710	0.540	1.650
2020/01/31 23:58:01.2	173.960	-0.730	0.530	1.660
2020/01/31 23:58:01.3	173.970	-0.750	0.510	1.670
2020/01/31 23:58:01.4	173.980	-0.760	0.490	1.680
2020/01/31 23:58:01.5	173.990	-0.770	0.460	1.690
2020/01/31 23:58:01.6	174.000	-0.770	0.430	1.700
2020/01/31 23:58:01.7	174.010	-0.770	0.400	1.710
2020/01/31 23:58:01.8	174.020	-0.770	0.370	1.720
2020/01/31 23:58:01.9	174.030	-0.760	0.330	1.730
2020/01/31 23:58:02.0	174.010	-0.740	0.290	1.740
2020/01/31 23:58:02.1	174.020	-0.720	0.250	1.750
2020/01/31 23:58:02.2	174.020	-0.700	0.220	1.760
2020/01/31 23:58:02.3	174.030	-0.670	0.170	1.770
2020/01/31 23:58:02.4	174.030	-0.640	0.130	1.780
2020/01/31 23:58:02.5	174.030	-0.600	0.090	1.780
2020/01/31 23:58:02.6	174.030	-0.560	0.050	1.790
2020/01/31 23:58:02.7	174.030	-0.520	0.010	1.800
2020/01/31 23:58:02.8	174.030	-0.480	-0.030	1.800
2020/01/31 23:58:02.9	174.030	-0.430	-0.070	1.810
2020/01/31 23:58:03.0	174.020	-0.380	-0.110	1.820
2020/01/31 23:58:03.1	174.020	-0.330	-0.140	1.820
2020/01/31 23:58:03.2	174.020	-0.270	-0.180	1.830
2020/01/31 23:58:03.3	174.010	-0.220	-0.210	1.830
2020/01/31 23:58:03.4	174.010	-0.170	-0.240	1.830
2020/01/31 23:58:03.5	174.000	-0.110	-0.270	1.840
2020/01/31 23:58:03.6	173.990	-0.060	-0.290	1.840
2020/01/31 23:58:03.7	173.990	-0.000	-0.310	1.850
2020/01/31 23:58:03.8	173.980	0.050	-0.330	1.850
2020/01/31 23:58:03.9	173.970	0.100	-0.350	1.860
2020/01/31 23:58:04.0	173.960	0.150	-0.370	1.860
2020/01/31 23:58:04.1	173.940	0.200	-0.380	1.870
2020/01/31 23:58:04.2	173.930	0.240	-0.390	1.870
2020/01/31 23:58:04.3	173.920	0.290	-0.400	1.880
2020/01/31 23:58:04.4	173.910	0.330	-0.400	1.890
2020/01/31 23:58:04.5	173.900	0.360	-0.410	1.890
2020/01/31 23:58:04.6	173.880	0.400	-0.410	1.900
2020/01/31 23:58:04.7	173.870	0.430	-0.410	1.900
2020/01/31 23:58:04.8	173.860	0.460	-0.400	1.910
2020/01/31 23:58:04.9	173.840	0.480	-0.400	1.910
2020/01/31 23:58:05.0	173.840	0.510	-0.390	1.910
2020/01/31 23:58:05.1	173.830	0.520	-0.380	1.910
2020/01/31 23:58:05.2	173.820	0.540	-0.370	1.910
2020/01/31 23:58:05.3	173.810	0.550	-0.360	1.900
2020/01/31 23:58:05.4	173.800	0.550	-0.350	1.890
2020/01/31 23:58:05.5	173.790	0.560	-0.330	1.880
2020/01/31 23:58:05.6	173.780	0.560	-0.320	1.870
2020/01/31 23:58:05.7	173.780	0.550	-0.300	1.860
2020/01/31 23:58:05.8	173.780	0.540	-0.280	1.840
2020/01/31 23:58:05.9	173.780	0.530	-0.260	1.820
2020/01/31 23:58:06.0	173.780	0.510	-0.240	1.790
2020/01/31 23:58:06.1	173.790	0.500	-0.220	1.770
2020/01/31 23:58:06.2	173.790	0.470	-0.190	1.750
2020/01/31 23:58:06.3	173.800	0.450	-0.170	1.720
2020/01/31 23:58:06.4	173.820	0.420	-0.140	1.700
2020/01/31 23:58:06.5	173.830	0.390	-0.120	1.670
2020/01/31 23:58:06.6	173.850	0.360	-0.090	1.650
2020/01/31 23:58:06.7	173.870	0.330	-0.060	1.630
2020/01/31 23:58:06.8	173.890	0.290	-0.040	1.600
2020/01/31 23:58:06.9	173.910	0.260	-0.010	1.580
2020/01/31 23:58:07.0	173.950	0.220	0.010	1.560
2020/01/31 23:58:07.1	173.970	0.180	0.030	1.540
2020/01/31 23:58:07.2	174.000	0.150	0.050	1.530
2020/01/31 23:58:07.3	174.020	0.110	0.070	1.510
2020/01/31 23:58:07.4	174.050	0.080	0.090	1.500
2020/01/31 23:58:07.5	174.080	0.050	0.100	1.490
2020/01/31 23:58:07.6	174.110	0.010	0.110	1.480
2020/01/31 23:58:07.7	174.130	-0.010	0.120	1.470
2020/01/31 23:58:07.8	174.160	-0.040	0.120	1.470
2020/01/31 23:58:07.9	174.180	-0.070	0.120	1.470
2020/01/31 23:58:08.0	174.210	-0.090	0.120	1.460
2020/01/31 23:58:08.1	174.240	-0.100	0.110	1.460
2020/01/31 23:58:08.2	174.260	-0.120	0.100	1.460
2020/01/31 23:58:08.3	174.270	-0.130	0.080	1.460
2020/01/31 23:58:08.4	174.290	-0.130	0.060	1.470
2020/01/31 23:58:08.5	174.300	-0.140	0.040	1.470
2020/01/31 23:58:08.6	174.320	-0.130	0.010	1.470
2020/01/31 23:58:08.7	174.330	-0.130	-0.020	1.470
2020/01/31 23:58:08.8	174.330	-0.120	-0.060	1.480
2020/01/31 23:58:08.9	174.340	-0.100	-0.090	1.480
2020/01/31 23:58:09.0	174.330	-0.090	-0.140	1.480
2020/01/31 23:58:09.1	174.330	-0.060	-0.180	1.480
2020/01/31 23:58:09.2	174.340	-0.040	-0.220	1.480
2020/01/31 23:58:09.3	174.340	-0.010	-0.270	1.480
2020/01/31 23:58:09.4	174.340	0.010	-0.320	1.480
2020/01/31 23:58:09.5	174.340	0.040	-0.370	1.480
2020/01/31 23:58:09.6	174.340	0.080	-0.420	1.480
2020/01/31 23:58:09.7	174.340	0.110	-0.470	1.480
2020/01/31 23:58:09.8	174.330	0.140	-0.520	1.480
2020/01/31 23:58:09.9	174.330	0.180	-0.570	1.480
2020/01/31 23:58:10.0	174.340	0.210	-0.610	1.470
2020/01/31 23:58:10.1	174.330	0.250	-0.660	1.470
2020/01/31 23:58:10.2	174.330	0.280	-0.710	1.480
2020/01/31 23:58:10.3	174.320	0.320	-0.750	1.480
2020/01/31 23:58:10.4	174.320	0.350	-0.800	1.490
2020/01/31 23:58:10.5	174.310	0.380	-0.840	1.510
2020/01/31 23:58:10.6	174.300	0.400	-0.870	1.520
2020/01/31 23:58:10.7	174.300	0.430	-0.910	1.540
2020/01/31 23:58:10.8	174.290	0.450	-0.940	1.560
2020/01/31 23:58:10.9	174.280	0.470	-0.970	1.580
2020/01/31 23:58:11.0	174.270	0.490	-1.000	1.610
2020/01/31 23:58:11.1	174.270	0.500	-1.020	1.640
2020/01/31 23:58:11.2	174.260	0.520	-1.040	1.670
2020/01/31 23:58:11.3	174.260	0.520	-1.050	1.700
2020/01/31 23:58:11.4	174.250	0.530	-1.060	1.730
2020/01/31 23:58:11.5	174.250	0.520	-1.060	1.760
2020/01/31 23:58:11.6	174.250	0.520	-1.060	1.800
2020/01/31 23:58:11.7	174.240	0.510	-1.060	1.830
2020/01/31 23:58:11.8	174.240	0.500	-1.040	1.860
2020/01/31 23:58:11.9	174.240	0.480	-1.030	1.900
2020/01/31 23:58:12.0	174.260	0.460	-1.000	1.930
2020/01/31 23:58:12.1	174.260	0.440	-0.970	1.960
2020/01/31 23:58:12.2	174.260	0.410	-0.940	1.980
2020/01/31 23:58:12.3	174.270	0.380	-0.900	2.010
2020/01/31 23:58:12.4	174.270	0.350	-0.850	2.040
2020/01/31 23:58:12.5	174.270	0.310	-0.800	2.060
2020/01/31 23:58:12.6	174.280	0.280	-0.750	2.080
2020/01/31 23:58:12.7	174.280	0.240	-0.690	2.100
2020/01/31 23:58:12.8	174.290	0.190	-0.630	2.110
2020/01/31 23:58:12.9	174.290	0.150	-0.570	2.120
2020/01/31 23:58:13.0	174.310	0.100	-0.500	2.130
2020/01/31 23:58:13.1	174.320	0.060	-0.430	2.140
2020/01/31 23:58:13.2	174.320	0.010	-0.360	2.150
2020/01/31 23:58:13.3	174.330	-0.030	-0.290	2.150
2020/01/31 23:58:13.4	174.330	-0.080	-0.220	2.150
2020/01/31 23:58:13.5	174.340	-0.130	-0.160	2.160
2020/01/31 23:58:13.6	174.350	-0.170	-0.090	2.160
2020/01/31 23:58:13.7	174.360	-0.210	-0.020	2.150
2020/01/31 23:58:13.8	174.370	-0.260	0.040	2.150
2020/01/31 23:58:13.9	174.370	-0.300	0.100	2.140
2020/01/31 23:58:14.0	174.380	-0.340	0.160	2.140
2020/01/31 23:58:14.1	174.390	-0.370	0.210	2.130
2020/01/31 23:58:14.2	174.400	-0.410	0.260	2.120
2020/01/31 23:58:14.3	174.410	-0.440	0.300	2.100
2020/01/31 23:58:14.4	174.430	-0.460	0.340	2.080
2020/01/31 23:58:14.5	174.440	-0.490	0.370	2.060
2020/01/31 23:58:14.6	174.460	-0.500	0.400	2.040
2020/01/31 23:58:14.7	174.480	-0.520	0.420	2.020
2020/01/31 23:58:14.8	174.500	-0.530	0.430	1.990
2020/01/31 23:58:14.9	174.520	-0.540	0.440	1.960
2020/01/31 23:58:15.0	174.540	-0.540	0.440	1.930
2020/01/31 23:58:15.1	174.560	-0.540	0.440	1.890
2020/01/31 23:58:15.2	174.580	-0.540	0.430	1.860
2020/01/31 23:58:15.3	174.610	-0.530	0.420	1.820
2020/01/31 23:58:15.4	174.630	-0.520	0.400	1.780
2020/01/31 23:58:15.5	174.650	-0.500	0.380	1.740
2020/01/31 23:58:15.6	174.680	-0.480	0.360	1.700
2020/01/31 23:58:15.7	174.700	-0.460	0.330	1.650
2020/01/31 23:58:15.8	174.730	-0.440	0.300	1.610
2020/01/31 23:58:15.9	174.750	-0.410	0.270	1.560
2020/01/31 23:58:16.0	174.760	-0.380	0.240	1.520
2020/01/31 23:58:16.1	174.780	-0.350	0.200	1.470
2020/01/31 23:58:16.2	174.800	-0.320	0.170	1.430
2020/01/31 23:58:16.3	174.830	-0.290	0.130	1.380
2020/01/31 23:58:16.4	174.850	-0.260	0.090	1.340
2020/01/31 23:58:16.5	174.880	-0.230	0.060	1.290
2020/01/31 23:58:16.6	174.900	-0.200	0.020	1.250
2020/01/31 23:58:16.7	174.920	-0.170	-0.010	1.210
2020/01/31 23:58:16.8	174.950	-0.140	-0.050	1.180
2020/01/31 23:58:16.9	174.970	-0.110	-0.080	1.140
2020/01/31 23:58:17.0	174.990	-0.080	-0.110	1.110
2020/01/31 23:58:17.1	175.010	-0.060	-0.140	1.080
2020/01/31 23:58:17.2	175.030	-0.040	-0.170	1.060
2020/01/31 23:58:17.3	175.050	-0.020	-0.210	1.040
2020/01/31 23:58:17.4	175.060	-0.000	-0.240	1.020
2020/01/31 23:58:17.5	175.070	0.010	-0.270	1.010
2020/01/31 23:58:17.6	175.090	0.030	-0.290	1.000
2020/01/31 23:58:17.7	175.100	0.040	-0.320	0.990
2020/01/31 23:58:17.8	175.100	0.050	-0.350	0.990
2020/01/31 23:58:17.9	175.110	0.060	-0.380	1.000
2020/01/31 23:58:18.0	175.120	0.070	-0.420	1.000
2020/01/31 23:58:18.1	175.120	0.070	-0.450	1.010
2020/01/31 23:58:18.2	175.110	0.080	-0.480	1.030
2020/01/31 23:58:18.3	175.110	0.080	-0.510	1.050
2020/01/31 23:58:18.4	175.100	0.080	-0.540	1.070
2020/01/31 23:58:18.5	175.090	0.090	-0.580	1.100
2020/01/31 23:58:18.6	175.080	0.090	-0.610	1.120
2020/01/31 23:58:18.7	175.070	0.090	-0.650	1.150
2020/01/31 23:58:18.8	175.050	0.090	-0.680	1.190
2020/01/31 23:58:18.9	175.040	0.090	-0.710	1.220
2020/01/31 23:58:19.0	175.020	0.090	-0.740	1.260
2020/01/31 23:58:19.1	175.010	0.100	-0.770	1.290
2020/01/31 23:58:19.2	174.990	0.100	-0.800	1.320
2020/01/31 23:58:19.3	174.970	0.100	-0.830	1.350
2020/01/31 23:58:19.4	174.950	0.100	-0.850	1.390
2020/01/31 23:58:19.5	174.940	0.110	-0.870	1.420
2020/01/31 23:58:19.6	174.920	0.110	-0.890	1.450
2020/01/31 23:58:19.7	174.900	0.120	-0.900	1.480
2020/01/31 23:58:19.8	174.890	0.120	-0.910	1.510
2020/01/31 23:58:19.9	174.880	0.130	-0.910	1.540
2020/01/31 23:58:20.0	174.880	0.130	-0.910	1.560
2020/01/31 23:58:20.1	174.880	0.140	-0.900	1.590
2020/01/31 23:58:20.2	174.870	0.140	-0.880	1.610
2020/01/31 23:58:20.3	174.870	0.150	-0.860	1.630
2020/01/31 23:58:20.4	174.870	0.150	-0.840	1.650
2020/01/31 23:58:20.5	174.870	0.160	-0.810	1.660
2020/01/31 23:58:20.6	174.880	0.160	-0.770	1.680
2020/01/31 23:58:20.7	174.880	0.160	-0.730	1.690
2020/01/31 23:58:20.8	174.900	0.160	-0.680	1.690
2020/01/31 23:58:20.9	174.910	0.170	-0.630	1.700
2020/01/31 23:58:21.0	174.940	0.170	-0.570	1.700
2020/01/31 23:58:21.1	174.960	0.170	-0.520	1.700
2020/01/31 23:58:21.2	174.980	0.160	-0.450	1.690
2020/01/31 23:58:21.3	175.010	0.160	-0.390	1.670
2020/01/31 23:58:21.4	175.050	0.150	-0.320	1.660
2020/01/31 23:58:21.5	175.080	0.150	-0.250	1.640
2020/01/31 23:58:21.6	175.120	0.140	-0.180	1.610
2020/01/31 23:58:21.7	175.170	0.120	-0.110	1.580
2020/01/31 23:58:21.8	175.220	0.110	-0.040	1.550
2020/01/31 23:58:21.9	175.270	0.100	0.030	1.520
2020/01/31 23:58:22.0	175.320	0.080	0.100	1.480
2020/01/31 23:58:22.1	175.370	0.060	0.170	1.440
2020/01/31 23:58:22.2	175.430	0.040	0.230	1.400
2020/01/31 23:58:22.3	175.480	0.020	0.290	1.360
2020/01/31 23:58:22.4	175.540	-0.000	0.350	1.320
2020/01/31 23:58:22.5	175.600	-0.030	0.400	1.290
2020/01/31 23:58:22.6	175.650	-0.050	0.450	1.250
2020/01/31 23:58:22.7	175.700	-0.080	0.490	1.220
2020/01/31 23:58:22.8	175.760	-0.110	0.530	1.190
2020/01/31 23:58:22.9	175.810	-0.130	0.560	1.160
2020/01/31 23:58:23.0	175.850	-0.160	0.590	1.140
2020/01/31 23:58:23.1	175.890	-0.190	0.610	1.110
2020/01/31 23:58:23.2	175.930	-0.210	0.620	1.100
2020/01/31 23:58:23.3	175.970	-0.240	0.620	1.090
2020/01/31 23:58:23.4	176.000	-0.260	0.620	1.080
2020/01/31 23:58:23.5	176.040	-0.290	0.610	1.080
2020/01/31 23:58:23.6	176.060	-0.310	0.600	1.080
2020/01/31 23:58:23.7	176.090	-0.330	0.580	1.090
2020/01/31 23:58:23.8	176.110	-0.350	0.550	1.110
2020/01/31 23:58:23.9	176.130	-0.360	0.520	1.130
2020/01/31 23:58:24.0	176.140	-0.380	0.480	1.150
2020/01/31 23:58:24.1	176.150	-0.390	0.440	1.180
2020/01/31 23:58:24.2	176.160	-0.390	0.390	1.210
2020/01/31 23:58:24.3	176.170	-0.400	0.340	1.250
2020/01/31 23:58:24.4	176.180	-0.400	0.280	1.280
2020/01/31 23:58:24.5	176.190	-0.400	0.220	1.320
2020/01/31 23:58:24.6	176.190	-0.400	0.160	1.360
2020/01/31 23:58:24.7	176.200	-0.390	0.100	1.400
2020/01/31 23:58:24.8	176.200	-0.390	0.030	1.440
2020/01/31 23:58:24.9	176.200	-0.380	-0.030	1.470
2020/01/31 23:58:25.0	176.210	-0.360	-0.090	1.510
2020/01/31 23:58:25.1	176.210	-0.350	-0.160	1.540
2020/01/31 23:58:25.2	176.220	-0.330	-0.220	1.580
2020/01/31 23:58:25.3	176.220	-0.310	-0.280	1.610
2020/01/31 23:58:25.4	176.220	-0.290	-0.340	1.630
2020/01/31 23:58:25.5	176.230	-0.270	-0.390	1.660
2020/01/31 23:58:25.6	176.230	-0.240	-0.440	1.680
2020/01/31 23:58:25.7	176.240	-0.220	-0.490	1.700
2020/01/31 23:58:25.8	176.250	-0.190	-0.530	1.720
2020/01/31 23:58:25.9	176.250	-0.160	-0.570	1.730
2020/01/31 23:58:26.0	176.260	-0.140	-0.600	1.750
2020/01/31 23:58:26.1	176.270	-0.110	-0.630	1.760
2020/01/31 23:58:26.2	176.280	-0.080	-0.650	1.770
2020/01/31 23:58:26.3	176.290	-0.060	-0.660	1.780
2020/01/31 23:58:26.4	176.300	-0.030	-0.680	1.790
2020/01/31 23:58:26.5	176.310	0.000	-0.680	1.790
2020/01/31 23:58:26.6	176.320	0.030	-0.690	1.790
2020/01/31 23:58:26.7	176.330	0.060	-0.690	1.800
2020/01/31 23:58:26.8	176.340	0.080	-0.680	1.790
2020/01/31 23:58:26.9	176.350	0.110	-0.670	1.790
2020/01/31 23:58:27.0	176.360	0.130	-0.660	1.780
2020/01/31 23:58:27.1	176.380	0.160	-0.650	1.770
2020/01/31 23:58:27.2	176.390	0.190	-0.630	1.760
2020/01/31 23:58:27.3	176.400	0.210	-0.610	1.740
2020/01/31 23:58:27.4	176.420	0.240	-0.590	1.720
2020/01/31 23:58:27.5	176.430	0.260	-0.570	1.700
2020/01/31 23:58:27.6	176.440	0.290	-0.540	1.680
2020/01/31 23:58:27.7	176.460	0.310	-0.520	1.650
2020/01/31 23:58:27.8	176.470	0.330	-0.490	1.610
2020/01/31 23:58:27.9	176.490	0.360	-0.470	1.580
2020/01/31 23:58:28.0	176.510	0.380	-0.440	1.540
2020/01/31 23:58:28.1	176.520	0.410	-0.420	1.500
2020/01/31 23:58:28.2	176.540	0.430	-0.390	1.450
2020/01/31 23:58:28.3	176.560	0.450	-0.370	1.400
2020/01/31 23:58:28.4	176.580	0.470	-0.350	1.350
2020/01/31 23:58:28.5	176.590	0.490	-0.320	1.300
2020/01/31 23:58:28.6	176.610	0.510	-0.300	1.240
2020/01/31 23:58:28.7	176.630	0.530	-0.280	1.190
2020/01/31 23:58:28.8	176.650	0.550	-0.260	1.140
2020/01/31 23:58:28.9	176.670	0.560	-0.250	1.080
2020/01/31 23:58:29.0	176.710	0.580	-0.230	1.030
2020/01/31 23:58:29.1	176.720	0.590	-0.220	0.980
2020/01/31 23:58:29.2	176.740	0.600	-0.210	0.930
2020/01/31 23:58:29.3	176.760	0.610	-0.210	0.880
2020/01/31 23:58:29.4	176.780	0.610	-0.200	0.830
2020/01/31 23:58:29.5	176.800	0.620	-0.200	0.790
2020/01/31 23:58:29.6	176.820	0.620	-0.200	0.750
2020/01/31 23:58:29.7	176.840	0.620	-0.200	0.710
2020/01/31 23:58:29.8	176.850	0.610	-0.210	0.680
2020/01/31 23:58:29.9	176.870	0.600	-0.220	0.650
2020/01/31 23:58:30.0	176.890	0.590	-0.230	0.620
2020/01/31 23:58:30.1	176.910	0.570	-0.240	0.600
2020/01/31 23:58:30.2	176.930	0.550	-0.250	0.580
2020/01/31 23:58:30.3	176.950	0.530	-0.270	0.570
2020/01/31 23:58:30.4	176.970	0.500	-0.280	0.570
2020/01/31 23:58:30.5	176.990	0.470	-0.300	0.570
2020/01/31 23:58:30.6	177.020	0.440	-0.320	0.580
2020/01/31 23:58:30.7	177.040	0.400	-0.330	0.590
2020/01/31 23:58:30.8	177.060	0.360	-0.350	0.610
2020/01/31 23:58:30.9	177.090	0.320	-0.370	0.630
2020/01/31 23:58:31.0	177.110	0.270	-0.380	0.660
2020/01/31 23:58:31.1	177.130	0.220	-0.390	0.690
2020/01/31 23:58:31.2	177.160	0.170	-0.400	0.730
2020/01/31 23:58:31.3	177.190	0.120	-0.410	0.770
2020/01/31 23:58:31.4	177.220	0.060	-0.420	0.820
2020/01/31 23:58:31.5	177.250	0.010	-0.430	0.860
2020/01/31 23:58:31.6	177.280	-0.050	-0.430	0.920
2020/01/31 23:58:31.7	177.310	-0.110	-0.430	0.970
2020/01/31 23:58:31.8	177.340	-0.160	-0.430	1.030
2020/01/31 23:58:31.9	177.370	-0.220	-0.420	1.090
2020/01/31 23:58:32.0	177.400	-0.270	-0.420	1.150
2020/01/31 23:58:32.1	177.430	-0.330	-0.410	1.220
2020/01/31 23:58:32.2	177.450	-0.380	-0.400	1.280
2020/01/31 23:58:32.3	177.480	-0.430	-0.390	1.350
2020/01/31 23:58:32.4	177.500	-0.470	-0.380	1.410
2020/01/31 23:58:32.5	177.520	-0.520	-0.360	1.480
2020/01/31 23:58:32.6	177.540	-0.550	-0.350	1.550
2020/01/31 23:58:32.7	177.560	-0.590	-0.330	1.610
2020/01/31 23:58:32.8	177.580	-0.620	-0.320	1.670
2020/01/31 23:58:32.9	177.590	-0.640	-0.300	1.740
2020/01/31 23:58:33.0	177.600	-0.660	-0.290	1.800
2020/01/31 23:58:33.1	177.610	-0.670	-0.270	1.860
2020/01/31 23:58:33.2	177.610	-0.680	-0.270	1.910
2020/01/31 23:58:33.3	177.620	-0.680	-0.260	1.960
2020/01/31 23:58:33.4	177.620	-0.680	-0.250	2.010
2020/01/31 23:58:33.5	177.620	-0.670	-0.250	2.060
2020/01/31 23:58:33.6	177.620	-0.650	-0.260	2.100
2020/01/31 23:58:33.7	177.620	-0.630	-0.260	2.140
2020/01/31 23:58:33.8	177.610	-0.610	-0.270	2.180
2020/01/31 23:58:33.9	177.610	-0.570	-0.280	2.210
2020/01/31 23:58:34.0	177.600	-0.540	-0.300	2.230
2020/01/31 23:58:34.1	177.600	-0.500	-0.320	2.250
2020/01/31 23:58:34.2	177.590	-0.450	-0.340	2.270
2020/01/31 23:58:34.3	177.580	-0.400	-0.370	2.290
2020/01/31 23:58:34.4	177.570	-0.350	-0.400	2.300
2020/01/31 23:58:34.5	177.560	-0.290	-0.420	2.310
2020/01/31 23:58:34.6	177.540	-0.230	-0.460	2.310
2020/01/31 23:58:34.7	177.530	-0.170	-0.480	2.310
2020/01/31 23:58:34.8	177.520	-0.110	-0.510	2.310
2020/01/31 23:58:34.9	177.510	-0.050	-0.540	2.310
2020/01/31 23:58:35.0	177.500	0.010	-0.570	2.300
2020/01/31 23:58:35.1	177.490	0.080	-0.590	2.290
2020/01/31 23:58:35.2	177.480	0.140	-0.620	2.270
2020/01/31 23:58:35.3	177.470	0.190	-0.630	2.250
2020/01/31 23:58:35.4	177.470	0.250	-0.650	2.220
2020/01/31 23:58:35.5	177.470	0.300	-0.660	2.180
2020/01/31 23:58:35.6	177.470	0.350	-0.660	2.150
2020/01/31 23:58:35.7	177.480	0.400	-0.660	2.100
2020/01/31 23:58:35.8	177.490	0.440	-0.650	2.050
2020/01/31 23:58:35.9	177.510	0.470	-0.630	1.990
2020/01/31 23:58:36.0	177.530	0.500	-0.610	1.920
2020/01/31 23:58:36.1	177.560	0.520	-0.570	1.860
2020/01/31 23:58:36.2	177.590	0.540	-0.530	1.790
2020/01/31 23:58:36.3	177.620	0.550	-0.490	1.720
2020/01/31 23:58:36.4	177.660	0.550	-0.430	1.640
2020/01/31 23:58:36.5	177.700	0.550	-0.370	1.570
2020/01/31 23:58:36.6	177.750	0.540	-0.310	1.490
2020/01/31 23:58:36.7	177.790	0.520	-0.230	1.410
2020/01/31 23:58:36.8	177.850	0.500	-0.160	1.330
2020/01/31 23:58:36.9	177.900	0.470	-0.080	1.260
2020/01/31 23:58:37.0	177.960	0.430	-0.000	1.170
2020/01/31 23:58:37.1	178.020	0.390	0.080	1.100
2020/01/31 23:58:37.2	178.080	0.340	0.160	1.030
2020/01/31 23:58:37.3	178.130	0.280	0.240	0.960
2020/01/31 23:58:37.4	178.190	0.230	0.320	0.900
2020/01/31 23:58:37.5	178.240	0.170	0.390	0.840
2020/01/31 23:58:37.6	178.300	0.100	0.460	0.780
2020/01/31 23:58:37.7	178.350	0.040	0.520	0.730
2020/01/31 23:58:37.8	178.400	-0.030	0.580	0.690
2020/01/31 23:58:37.9	178.450	-0.100	0.630	0.650
2020/01/31 23:58:38.0	178.510	-0.170	0.680	0.620
2020/01/31 23:58:38.1	178.550	-0.240	0.710	0.590
2020/01/31 23:58:38.2	178.590	-0.310	0.730	0.570
2020/01/31 23:58:38.3	178.630	-0.380	0.740	0.560
2020/01/31 23:58:38.4	178.660	-0.440	0.750	0.560
2020/01/31 23:58:38.5	178.690	-0.500	0.740	0.560
2020/01/31 23:58:38.6	178.720	-0.560	0.730	0.560
2020/01/31 23:58:38.7	178.740	-0.620	0.710	0.580
2020/01/31 23:58:38.8	178.760	-0.670	0.670	0.590
2020/01/31 23:58:38.9	178.780	-0.710	0.630	0.620
2020/01/31 23:58:39.0	178.800	-0.750	0.580	0.650
2020/01/31 23:58:39.1	178.810	-0.790	0.520	0.680
2020/01/31 23:58:39.2	178.820	-0.820	0.450	0.710
2020/01/31 23:58:39.3	178.820	-0.840	0.380	0.750
2020/01/31 23:58:39.4	178.820	-0.860	0.310	0.790
2020/01/31 23:58:39.5	178.820	-0.870	0.230	0.830
2020/01/31 23:58:39.6	178.820	-0.870	0.140	0.880
2020/01/31 23:58:39.7	178.810	-0.860	0.050	0.920
2020/01/31 23:58:39.8	178.800	-0.850	-0.040	0.970
2020/01/31 23:58:39.9	178.790	-0.830	-0.130	1.020
2020/01/31 23:58:40.0	178.790	-0.810	-0.230	1.080
2020/01/31 23:58:40.1	178.770	-0.770	-0.320	1.130
2020/01/31 23:58:40.2	178.760	-0.730	-0.410	1.180
2020/01/31 23:58:40.3	178.740	-0.690	-0.500	1.230
2020/01/31 23:58:40.4	178.720	-0.640	-0.590	1.280
2020/01/31 23:58:40.5	178.690	-0.580	-0.670	1.330
2020/01/31 23:58:40.6	178.670	-0.520	-0.750	1.380
2020/01/31 23:58:40.7	178.640	-0.450	-0.820	1.420
2020/01/31 23:58:40.8	178.620	-0.380	-0.890	1.470
2020/01/31 23:58:40.9	178.590	-0.300	-0.960	1.510
2020/01/31 23:58:41.0	178.550	-0.220	-1.020	1.550
2020/01/31 23:58:41.1	178.520	-0.140	-1.070	1.590
2020/01/31 23:58:41.2	178.490	-0.060	-1.110	1.620
2020/01/31 23:58:41.3	178.450	0.020	-1.150	1.650
2020/01/31 23:58:41.4	178.420	0.110	-1.180	1.670
2020/01/31 23:58:41.5	178.390	0.190	-1.210	1.690
2020/01/31 23:58:41.6	178.360	0.270	-1.220	1.700
2020/01/31 23:58:41.7	178.330	0.350	-1.230	1.710
2020/01/31 23:58:41.8	178.310	0.430	-1.230	1.710
2020/01/31 23:58:41.9	178.280	0.500	-1.220	1.710
2020/01/31 23:58:42.0	178.270	0.570	-1.200	1.700
2020/01/31 23:58:42.1	178.250	0.630	-1.170	1.690
2020/01/31 23:58:42.2	178.240	0.690	-1.140	1.670
2020/01/31 23:58:42.3	178.230	0.740	-1.100	1.650
2020/01/31 23:58:42.4	178.230	0.780	-1.050	1.620
2020/01/31 23:58:42.5	178.230	0.820	-0.990	1.590
2020/01/31 23:58:42.6	178.230	0.850	-0.920	1.560
2020/01/31 23:58:42.7	178.240	0.870	-0.850	1.520
2020/01/31 23:58:42.8	178.260	0.880	-0.780	1.480
2020/01/31 23:58:42.9	178.280	0.880	-0.700	1.440
2020/01/31 23:58:43.0	178.290	0.880	-0.610	1.390
2020/01/31 23:58:43.1	178.320	0.870	-0.530	1.350
2020/01/31 23:58:43.2	178.350	0.850	-0.440	1.300
2020/01/31 23:58:43.3	178.380	0.830	-0.340	1.260
2020/01/31 23:58:43.4	178.420	0.790	-0.250	1.220
2020/01/31 23:58:43.5	178.460	0.750	-0.160	1.180
2020/01/31 23:58:43.6	178.500	0.710	-0.070	1.140
2020/01/31 23:58:43.7	178.540	0.660	0.020	1.100
2020/01/31 23:58:43.8	178.590	0.600	0.110	1.070
2020/01/31 23:58:43.9	178.630	0.540	0.190	1.040
2020/01/31 23:58:44.0	178.670	0.470	0.280	1.010
2020/01/31 23:58:44.1	178.720	0.410	0.350	0.990
2020/01/31 23:58:44.2	178.770	0.330	0.420	0.970
2020/01/31 23:58:44.3	178.820	0.260	0.480	0.960
2020/01/31 23:58:44.4	178.870	0.190	0.530	0.950
2020/01/31 23:58:44.5	178.910	0.120	0.580	0.940
2020/01/31 23:58:44.6	178.960	0.050	0.620	0.930
2020/01/31 23:58:44.7	179.000	-0.020	0.650	0.930
2020/01/31 23:58:44.8	179.040	-0.090	0.670	0.940
2020/01/31 23:58:44.9	179.080	-0.150	0.680	0.940
2020/01/31 23:58:45.0	179.120	-0.210	0.680	0.950
2020/01/31 23:58:45.1	179.150	-0.270	0.670	0.970
2020/01/31 23:58:45.2	179.180	-0.320	0.650	0.980
2020/01/31 23:58:45.3	179.200	-0.360	0.630	1.000
2020/01/31 23:58:45.4	179.220	-0.400	0.590	1.020
2020/01/31 23:58:45.5	179.230	-0.430	0.550	1.050
2020/01/31 23:58:45.6	179.240	-0.460	0.490	1.070
2020/01/31 23:58:45.7	179.250	-0.470	0.430	1.100
2020/01/31 23:58:45.8	179.250	-0.480	0.370	1.130
2020/01/31 23:58:45.9	179.250	-0.490	0.290	1.160
2020/01/31 23:58:46.0	179.260	-0.490	0.220	1.200
2020/01/31 23:58:46.1	179.250	-0.480	0.140	1.230
2020/01/31 23:58:46.2	179.230	-0.470	0.050	1.270
2020/01/31 23:58:46.3	179.220	-0.450	-0.030	1.300
2020/01/31 23:58:46.4	179.200	-0.420	-0.120	1.340
2020/01/31 23:58:46.5	179.180	-0.400	-0.200	1.380
2020/01/31 23:58:46.6	179.160	-0.370	-0.290	1.420
2020/01/31 23:58:46.7	179.140	-0.330	-0.370	1.460
2020/01/31 23:58:46.8	179.120	-0.300	-0.440	1.510
2020/01/31 23:58:46.9	179.100	-0.260	-0.520	1.550
2020/01/31 23:58:47.0	179.090	-0.220	-0.590	1.590
2020/01/31 23:58:47.1	179.070	-0.180	-0.650	1.640
2020/01/31 23:58:47.2	179.050	-0.140	-0.710	1.680
2020/01/31 23:58:47.3	179.030	-0.100	-0.760	1.720
2020/01/31 23:58:47.4	179.020	-0.070	-0.800	1.760
2020/01/31 23:58:47.5	179.010	-0.030	-0.840	1.800
2020/01/31 23:58:47.6	179.000	0.010	-0.870	1.840
2020/01/31 23:58:47.7	178.990	0.040	-0.890	1.870
2020/01/31 23:58:47.8	178.990	0.070	-0.900	1.900
2020/01/31 23:58:47.9	178.980	0.100	-0.910	1.920
2020/01/31 23:58:48.0	178.990	0.120	-0.900	1.940
2020/01/31 23:58:48.1	178.990	0.140	-0.890	1.950
2020/01/31 23:58:48.2	178.990	0.160	-0.870	1.960
2020/01/31 23:58:48.3	179.000	0.180	-0.850	1.970
2020/01/31 23:58:48.4	179.010	0.190	-0.820	1.960
2020/01/31 23:58:48.5	179.020	0.200	-0.780	1.960
2020/01/31 23:58:48.6	179.040	0.210	-0.740	1.950
2020/01/31 23:58:48.7	179.050	0.210	-0.690	1.930
2020/01/31 23:58:48.8	179.070	0.210	-0.640	1.910
2020/01/31 23:58:48.9	179.090	0.210	-0.590	1.890
2020/01/31 23:58:49.0	179.100	0.210	-0.540	1.860
2020/01/31 23:58:49.1	179.120	0.200	-0.490	1.830
2020/01/31 23:58:49.2	179.140	0.190	-0.440	1.800
2020/01/31 23:58:49.3	179.150	0.190	-0.380	1.770
2020/01/31 23:58:49.4	179.170	0.180	-0.330	1.740
2020/01/31 23:58:49.5	179.190	0.170	-0.290	1.710
2020/01/31 23:58:49.6	179.200	0.160	-0.240	1.680
2020/01/31 23:58:49.7	179.210	0.150	-0.200	1.650
2020/01/31 23:58:49.8	179.220	0.140	-0.170	1.620
2020/01/31 23:58:49.9	179.230	0.130	-0.140	1.590
2020/01/31 23:58:50.0	179.230	0.130	-0.110	1.560
2020/01/31 23:58:50.1	179.230	0.130	-0.090	1.540
2020/01/31 23:58:50.2	179.230	0.130	-0.080	1.520
2020/01/31 23:58:50.3	179.230	0.130	-0.070	1.510
2020/01/31 23:58:50.4	179.230	0.130	-0.060	1.490
2020/01/31 23:58:50.5	179.220	0.140	-0.070	1.480
2020/01/31 23:58:50.6	179.210	0.140	-0.070	1.460
2020/01/31 23:58:50.7	179.200	0.150	-0.080	1.450
2020/01/31 23:58:50.8	179.190	0.170	-0.100	1.440
2020/01/31 23:58:50.9	179.180	0.180	-0.120	1.430
2020/01/31 23:58:51.0	179.170	0.200	-0.130	1.410
2020/01/31 23:58:51.1	179.160	0.210	-0.150	1.400
2020/01/31 23:58:51.2	179.150	0.230	-0.170	1.390
2020/01/31 23:58:51.3	179.150	0.250	-0.190	1.380
2020/01/31 23:58:51.4	179.140	0.270	-0.210	1.360
2020/01/31 23:58:51.5	179.130	0.280	-0.220	1.350
2020/01/31 23:58:51.6	179.130	0.300	-0.230	1.340
2020/01/31 23:58:51.7	179.120	0.310	-0.240	1.330
2020/01/31 23:58:51.8	179.120	0.320	-0.250	1.320
2020/01/31 23:58:51.9	179.120	0.330	-0.250	1.310
2020/01/31 23:58:52.0	179.120	0.340	-0.250	1.290
2020/01/31 23:58:52.1	179.120	0.350	-0.240	1.280
2020/01/31 23:58:52.2	179.120	0.350	-0.230	1.270
2020/01/31 23:58:52.3	179.130	0.340	-0.220	1.260
2020/01/31 23:58:52.4	179.130	0.340	-0.200	1.250
2020/01/31 23:58:52.5	179.140	0.330	-0.180	1.240
2020/01/31 23:58:52.6	179.150	0.320	-0.160	1.240
2020/01/31 23:58:52.7	179.160	0.300	-0.140	1.230
2020/01/31 23:58:52.8	179.170	0.280	-0.120	1.220
2020/01/31 23:58:52.9	179.190	0.250	-0.090	1.220
2020/01/31 23:58:53.0	179.200	0.220	-0.070	1.210
2020/01/31 23:58:53.1	179.220	0.190	-0.040	1.210
2020/01/31 23:58:53.2	179.230	0.160	-0.020	1.210
2020/01/31 23:58:53.3	179.250	0.120	-0.000	1.200
2020/01/31 23:58:53.4	179.260	0.080	0.020	1.200
2020/01/31 23:58:53.5	179.280	0.040	0.030	1.200
2020/01/31 23:58:53.6	179.300	0.000	0.040	1.200
2020/01/31 23:58:53.7	179.310	-0.040	0.050	1.200
2020/01/31 23:58:53.8	179.330	-0.090	0.050	1.200
2020/01/31 23:58:53.9	179.340	-0.130	0.040	1.210
2020/01/31 23:58:54.0	179.360	-0.180	0.030	1.210
2020/01/31 23:58:54.1	179.370	-0.220	0.010	1.220
2020/01/31 23:58:54.2	179.390	-0.260	-0.010	1.230
2020/01/31 23:58:54.3	179.400	-0.300	-0.040	1.230
2020/01/31 23:58:54.4	179.400	-0.340	-0.080	1.240
2020/01/31 23:58:54.5	179.410	-0.380	-0.120	1.260
2020/01/31 23:58:54.6	179.420	-0.420	-0.160	1.270
2020/01/31 23:58:54.7	179.420	-0.450	-0.220	1.290
2020/01/31 23:58:54.8	179.420	-0.480	-0.270	1.300
2020/01/31 23:58:54.9	179.420	-0.500	-0.340	1.320
2020/01/31 23:58:55.0	179.410	-0.520	-0.400	1.350
2020/01/31 23:58:55.1	179.410	-0.540	-0.470	1.370
2020/01/31 23:58:55.2	179.400	-0.560	-0.540	1.400
2020/01/31 23:58:55.3	179.400	-0.570	-0.610	1.430
2020/01/31 23:58:55.4	179.390	-0.580	-0.680	1.460
2020/01/31 23:58:55.5	179.380	-0.580	-0.750	1.490
2020/01/31 23:58:55.6	179.370	-0.580	-0.820	1.520
2020/01/31 23:58:55.7	179.360	-0.580	-0.890	1.550
2020/01/31 23:58:55.8	179.350	-0.570	-0.960	1.590
2020/01/31 23:58:55.9	179.340	-0.560	-1.020	1.620
2020/01/31 23:58:56.0	179.320	-0.550	-1.070	1.650
2020/01/31 23:58:56.1	179.310	-0.530	-1.130	1.690
2020/01/31 23:58:56.2	179.300	-0.510	-1.170	1.720
2020/01/31 23:58:56.3	179.300	-0.490	-1.210	1.750
2020/01/31 23:58:56.4	179.290	-0.470	-1.240	1.780
2020/01/31 23:58:56.5	179.280	-0.440	-1.260	1.810
2020/01/31 23:58:56.6	179.270	-0.420	-1.280	1.840
2020/01/31 23:58:56.7	179.260	-0.390	-1.280	1.870
2020/01/31 23:58:56.8	179.260	-0.360	-1.280	1.890
2020/01/31 23:58:56.9	179.250	-0.320	-1.270	1.910
2020/01/31 23:58:57.0	179.250	-0.290	-1.250	1.930
2020/01/31 23:58:57.1	179.240	-0.260	-1.220	1.950
2020/01/31 23:58:57.2	179.240	-0.220	-1.190	1.970
2020/01/31 23:58:57.3	179.230	-0.190	-1.140	1.980
2020/01/31 23:58:57.4	179.230	-0.160	-1.090	1.990
2020/01/31 23:58:57.5	179.220	-0.120	-1.030	1.990
2020/01/31 23:58:57.6	179.220	-0.090	-0.960	1.990
2020/01/31 23:58:57.7	179.210	-0.060	-0.890	1.990
2020/01/31 23:58:57.8	179.210	-0.030	-0.810	1.990
2020/01/31 23:58:57.9	179.200	-0.000	-0.730	1.980
2020/01/31 23:58:58.0	179.190	0.030	-0.650	1.970
2020/01/31 23:58:58.1	179.180	0.060	-0.560	1.960
2020/01/31 23:58:58.2	179.180	0.080	-0.470	1.950
2020/01/31 23:58:58.3	179.170	0.110	-0.380	1.930
2020/01/31 23:58:58.4	179.160	0.130	-0.280	1.910
2020/01/31 23:58:58.5	179.150	0.150	-0.190	1.880
2020/01/31 23:58:58.6	179.150	0.170	-0.100	1.850
2020/01/31 23:58:58.7	179.140	0.190	-0.010	1.830
2020/01/31 23:58:58.8	179.130	0.210	0.080	1.790
2020/01/31 23:58:58.9	179.120	0.220	0.170	1.760
2020/01/31 23:58:59.0	179.100	0.240	0.240	1.720
2020/01/31 23:58:59.1	179.090	0.250	0.320	1.690
2020/01/31 23:58:59.2	179.080	0.260	0.400	1.650
2020/01/31 23:58:59.3	179.070	0.270	0.470	1.610
2020/01/31 23:58:59.4	179.060	0.280	0.540	1.570
2020/01/31 23:58:59.5	179.050	0.280	0.600	1.520
2020/01/31 23:58:59.6	179.040	0.280	0.650	1.480
2020/01/31 23:58:59.7	179.040	0.290	0.710	1.440
2020/01/31 23:58:59.8	179.030	0.290	0.750	1.390
2020/01/31 23:58:59.9	179.030	0.280	0.790	1.350
2020/01/31 23:59:00.0	179.030	0.280	0.840	1.310
2020/01/31 23:59:00.1	179.030	0.270	0.870	1.260
2020/01/31 23:59:00.2	179.040	0.260	0.890	1.220
2020/01/31 23:59:00.3	179.050	0.250	0.920	1.180
2020/01/31 23:59:00.4	179.070	0.240	0.930	1.140
2020/01/31 23:59:00.5	179.090	0.230	0.950	1.110
2020/01/31 23:59:00.6	179.110	0.210	0.960	1.080
2020/01/31 23:59:00.7	179.130	0.200	0.960	1.050
2020/01/31 23:59:00.8	179.150	0.180	0.960	1.020
2020/01/31 23:59:00.9	179.180	0.160	0.960	1.000
2020/01/31 23:59:01.0	179.200	0.140	0.950	0.980
2020/01/31 23:59:01.1	179.230	0.120	0.940	0.960
2020/01/31 23:59:01.2	179.270	0.100	0.930	0.940
2020/01/31 23:59:01.3	179.300	0.070	0.910	0.930
2020/01/31 23:59:01.4	179.340	0.050	0.900	0.920
2020/01/31 23:59:01.5	179.370	0.030	0.870	0.910
2020/01/31 23:59:01.6	179.410	0.010	0.850	0.910
2020/01/31 23:59:01.7	179.440	-0.010	0.820	0.900
2020/01/31 23:59:01.8	179.470	-0.030	0.790	0.900
2020/01/31 23:59:01.9	179.510	-0.050	0.760	0.910
2020/01/31 23:59:02.0	179.560	-0.070	0.720	0.910
2020/01/31 23:59:02.1	179.590	-0.090	0.680	0.920
2020/01/31 23:59:02.2	179.620	-0.100	0.630	0.940
2020/01/31 23:59:02.3	179.650	-0.120	0.590	0.950
2020/01/31 23:59:02.4	179.670	-0.130	0.530	0.970
2020/01/31 23:59:02.5	179.690	-0.130	0.480	0.990
2020/01/31 23:59:02.6	179.710	-0.140	0.420	1.020
2020/01/31 23:59:02.7	179.720	-0.140	0.350	1.050
2020/01/31 23:59:02.8	179.730	-0.140	0.280	1.090
2020/01/31 23:59:02.9	179.740	-0.140	0.210	1.120
2020/01/31 23:59:03.0	179.720	-0.140	0.140	1.170
2020/01/31 23:59:03.1	179.720	-0.130	0.060	1.220
2020/01/31 23:59:03.2	179.710	-0.120	-0.020	1.270
2020/01/31 23:59:03.3	179.700	-0.100	-0.100	1.320
2020/01/31 23:59:03.4	179.690	-0.080	-0.190	1.370
2020/01/31 23:59:03.5	179.670	-0.060	-0.270	1.430
2020/01/31 23:59:03.6	179.650	-0.040	-0.360	1.480
2020/01/31 23:59:03.7	179.620	-0.020	-0.450	1.540
2020/01/31 23:59:03.8	179.600	0.010	-0.530	1.610
2020/01/31 23:59:03.9	179.570	0.040	-0.620	1.670
2020/01/31 23:59:04.0	179.530	0.070	-0.700	1.720
2020/01/31 23:59:04.1	179.500	0.110	-0.790	1.780
2020/01/31 23:59:04.2	179.460	0.140	-0.870	1.840
2020/01/31 23:59:04.3	179.430	0.180	-0.940	1.890
2020/01/31 23:59:04.4	179.390	0.220	-1.010	1.940
2020/01/31 23:59:04.5	179.360	0.250	-1.080	1.990
2020/01/31 23:59:04.6	179.330	0.290	-1.140	2.030
2020/01/31 23:59:04.7	179.300	0.330	-1.190	2.070
2020/01/31 23:59:04.8	179.260	0.370	-1.240	2.100
2020/01/31 23:59:04.9	179.240	0.400	-1.280	2.120
2020/01/31 23:59:05.0	179.200	0.440	-1.320	2.150
2020/01/31 23:59:05.1	179.180	0.470	-1.350	2.160
2020/01/31 23:59:05.2	179.150	0.500	-1.370	2.170
2020/01/31 23:59:05.3	179.130	0.530	-1.390	2.170
2020/01/31 23:59:05.4	179.110	0.560	-1.400	2.160
2020/01/31 23:59:05.5	179.090	0.590	-1.400	2.150
2020/01/31 23:59:05.6	179.080	0.610	-1.390	2.140
2020/01/31 23:59:05.7	179.070	0.630	-1.380	2.120
2020/01/31 23:59:05.8	179.060	0.650	-1.360	2.100
2020/01/31 23:59:05.9	179.050	0.660	-1.340	2.070
2020/01/31 23:59:06.0	179.050	0.670	-1.310	2.040
2020/01/31 23:59:06.1	179.050	0.680	-1.280	2.000
2020/01/31 23:59:06.2	179.060	0.680	-1.240	1.960
2020/01/31 23:59:06.3	179.060	0.680	-1.190	1.920
2020/01/31 23:59:06.4	179.070	0.680	-1.140	1.870
2020/01/31 23:59:06.5	179.090	0.670	-1.090	1.820
2020/01/31 23:59:06.6	179.110	0.660	-1.040	1.770
2020/01/31 23:59:06.7	179.130	0.650	-0.980	1.720
2020/01/31 23:59:06.8	179.150	0.630	-0.920	1.660
2020/01/31 23:59:06.9	179.180	0.610	-0.860	1.600
2020/01/31 23:59:07.0	179.210	0.580	-0.800	1.540
2020/01/31 23:59:07.1	179.240	0.550	-0.730	1.480
2020/01/31 23:59:07.2	179.270	0.520	-0.670	1.420
2020/01/31 23:59:07.3	179.310	0.480	-0.610	1.360
2020/01/31 23:59:07.4	179.340	0.450	-0.550	1.310
2020/01/31 23:59:07.5	179.380	0.410	-0.490	1.250
2020/01/31 23:59:07.6	179.410	0.360	-0.430	1.200
2020/01/31 23:59:07.7	179.450	0.320	-0.370	1.150
2020/01/31 23:59:07.8	179.480	0.270	-0.320	1.100
2020/01/31 23:59:07.9	179.510	0.220	-0.270	1.050
2020/01/31 23:59:08.0	179.540	0.180	-0.230	1.010
2020/01/31 23:59:08.1	179.570	0.130	-0.190	0.980
2020/01/31 23:59:08.2	179.600	0.080	-0.160	0.940
2020/01/31 23:59:08.3	179.620	0.030	-0.130	0.920
2020/01/31 23:59:08.4	179.640	-0.020	-0.100	0.900
2020/01/31 23:59:08.5	179.660	-0.070	-0.090	0.890
2020/01/31 23:59:08.6	179.670	-0.120	-0.070	0.880
2020/01/31 23:59:08.7	179.680	-0.170	-0.070	0.880
2020/01/31 23:59:08.8	179.690	-0.210	-0.070	0.880
2020/01/31 23:59:08.9	179.700	-0.250	-0.080	0.890
2020/01/31 23:59:09.0	179.710	-0.290	-0.090	0.910
2020/01/31 23:59:09.1	179.710	-0.330	-0.110	0.930
2020/01/31 23:59:09.2	179.700	-0.360	-0.130	0.950
2020/01/31 23:59:09.3	179.690	-0.390	-0.160	0.980
2020/01/31 23:59:09.4	179.670	-0.420	-0.190	1.010
2020/01/31 23:59:09.5	179.660	-0.440	-0.230	1.050
2020/01/31 23:59:09.6	179.640	-0.460	-0.280	1.090
2020/01/31 23:59:09.7	179.620	-0.470	-0.330	1.130
2020/01/31 23:59:09.8	179.590	-0.490	-0.380	1.180
2020/01/31 23:59:09.9	179.570	-0.490	-0.430	1.220
2020/01/31 23:59:10.0	179.530	-0.500	-0.480	1.270
2020/01/31 23:59:10.1	179.500	-0.500	-0.540	1.320
2020/01/31 23:59:10.2	179.470	-0.500	-0.590	1.370
2020/01/31 23:59:10.3	179.440	-0.500	-0.640	1.430
2020/01/31 23:59:10.4	179.410	-0.490	-0.700	1.480
2020/01/31 23:59:10.5	179.380	-0.480	-0.740	1.530
2020/01/31 23:59:10.6	179.350	-0.470	-0.790	1.580
2020/01/31 23:59:10.7	179.320	-0.460	-0.830	1.630
2020/01/31 23:59:10.8	179.290	-0.450	-0.860	1.680
2020/01/31 23:59:10.9	179.270	-0.440	-0.890	1.720
2020/01/31 23:59:11.0	179.240	-0.430	-0.920	1.770
2020/01/31 23:59:11.1	179.220	-0.420	-0.930	1.810
2020/01/31 23:59:11.2	179.210	-0.400	-0.940	1.850
2020/01/31 23:59:11.3	179.190	-0.390	-0.930	1.880
2020/01/31 23:59:11.4	179.190	-0.380	-0.920	1.920
2020/01/31 23:59:11.5	179.180	-0.380	-0.900	1.950
2020/01/31 23:59:11.6	179.180	-0.370	-0.870	1.970
2020/01/31 23:59:11.7	179.180	-0.370	-0.830	2.000
2020/01/31 23:59:11.8	179.180	-0.370	-0.790	2.020
2020/01/31 23:59:11.9	179.190	-0.370	-0.730	2.030
2020/01/31 23:59:12.0	179.190	-0.370	-0.670	2.050
2020/01/31 23:59:12.1	179.210	-0.380	-0.600	2.060
2020/01/31 23:59:12.2	179.230	-0.380	-0.520	2.070
2020/01/31 23:59:12.3	179.240	-0.390	-0.440	2.070
2020/01/31 23:59:12.4	179.270	-0.400	-0.350	2.080
2020/01/31 23:59:12.5	179.290	-0.420	-0.260	2.070
2020/01/31 23:59:12.6	179.320	-0.430	-0.160	2.070
2020/01/31 23:59:12.7	179.350	-0.450	-0.060	2.060
2020/01/31 23:59:12.8	179.380	-0.460	0.040	2.060
2020/01/31 23:59:12.9	179.410	-0.480	0.140	2.050
2020/01/31 23:59:13.0	179.440	-0.500	0.240	2.030
2020/01/31 23:59:13.1	179.470	-0.520	0.340	2.020
2020/01/31 23:59:13.2	179.500	-0.530	0.440	2.000
2020/01/31 23:59:13.3	179.530	-0.550	0.540	1.980
2020/01/31 23:59:13.4	179.570	-0.570	0.630	1.960
2020/01/31 23:59:13.5	179.600	-0.580	0.720	1.940
2020/01/31 23:59:13.6	179.630	-0.590	0.800	1.920
2020/01/31 23:59:13.7	179.650	-0.600	0.870	1.900
2020/01/31 23:59:13.8	179.680	-0.610	0.940	1.880
2020/01/31 23:59:13.9	179.700	-0.620	1.000	1.860
2020/01/31 23:59:14.0	179.740	-0.620	1.060	1.830
2020/01/31 23:59:14.1	179.760	-0.620	1.100	1.810
2020/01/31 23:59:14.2	179.780	-0.610	1.130	1.790
2020/01/31 23:59:14.3	179.790	-0.600	1.150	1.770
2020/01/31 23:59:14.4	179.810	-0.590	1.160	1.740
2020/01/31 23:59:14.5	179.810	-0.570	1.170	1.720
2020/01/31 23:59:14.6	179.820	-0.550	1.160	1.700
2020/01/31 23:59:14.7	179.820	-0.530	1.140	1.680
2020/01/31 23:59:14.8	179.830	-0.500	1.110	1.660
2020/01/31 23:59:14.9	179.830	-0.460	1.070	1.640
2020/01/31 23:59:15.0	179.820	-0.430	1.020	1.620
2020/01/31 23:59:15.1	179.810	-0.390	0.970	1.600
2020/01/31 23:59:15.2	179.810	-0.340	0.900	1.580
2020/01/31 23:59:15.3	179.800	-0.300	0.830	1.570
2020/01/31 23:59:15.4	179.790	-0.250	0.750	1.550
2020/01/31 23:59:15.5	179.780	-0.200	0.670	1.540
2020/01/31 23:59:15.6	179.760	-0.140	0.580	1.520
2020/01/31 23:59:15.7	179.750	-0.090	0.480	1.510
2020/01/31 23:59:15.8	179.730	-0.030	0.380	1.500
2020/01/31 23:59:15.9	179.720	0.020	0.280	1.490
2020/01/31 23:59:16.0	179.720	0.080	0.180	1.480
2020/01/31 23:59:16.1	179.700	0.140	0.070	1.470
2020/01/31 23:59:16.2	179.690	0.200	-0.030	1.460
2020/01/31 23:59:16.3	179.670	0.260	-0.130	1.460
2020/01/31 23:59:16.4	179.650	0.320	-0.240	1.450
2020/01/31 23:59:16.5	179.630	0.370	-0.330	1.450
2020/01/31 23:59:16.6	179.610	0.430	-0.430	1.440
2020/01/31 23:59:16.7	179.600	0.480	-0.520	1.440
2020/01/31 23:59:16.8	179.580	0.530	-0.600	1.440
2020/01/31 23:59:16.9	179.570	0.570	-0.680	1.430
2020/01/31 23:59:17.0	179.550	0.620	-0.750	1.430
2020/01/31 23:59:17.1	179.550	0.660	-0.810	1.430
2020/01/31 23:59:17.2	179.540	0.690	-0.860	1.420
2020/01/31 23:59:17.3	179.530	0.720	-0.910	1.410
2020/01/31 23:59:17.4	179.530	0.750	-0.940	1.410
2020/01/31 23:59:17.5	179.530	0.770	-0.970	1.400
2020/01/31 23:59:17.6	179.530	0.790	-0.990	1.390
2020/01/31 23:59:17.7	179.540	0.800	-0.990	1.380
2020/01/31 23:59:17.8	179.550	0.800	-0.990	1.370
2020/01/31 23:59:17.9	179.560	0.800	-0.980	1.360
2020/01/31 23:59:18.0	179.580	0.800	-0.950	1.350
2020/01/31 23:59:18.1	179.600	0.790	-0.920	1.340
2020/01/31 23:59:18.2	179.620	0.780	-0.890	1.330
2020/01/31 23:59:18.3	179.640	0.760	-0.840	1.320
2020/01/31 23:59:18.4	179.670	0.730	-0.790	1.310
2020/01/31 23:59:18.5	179.700	0.710	-0.730	1.300
2020/01/31 23:59:18.6	179.730	0.670	-0.670	1.290
2020/01/31 23:59:18.7	179.760	0.640	-0.600	1.280
2020/01/31 23:59:18.8	179.790	0.600	-0.530	1.270
2020/01/31 23:59:18.9	179.830	0.560	-0.460	1.260
2020/01/31 23:59:19.0	179.870	0.510	-0.380	1.250
2020/01/31 23:59:19.1	179.910	0.470	-0.310	1.240
2020/01/31 23:59:19.2	179.940	0.420	-0.230	1.240
2020/01/31 23:59:19.3	179.980	0.370	-0.160	1.230
2020/01/31 23:59:19.4	180.020	0.320	-0.090	1.230
2020/01/31 23:59:19.5	180.060	0.270	-0.020	1.230
2020/01/31 23:59:19.6	180.100	0.220	0.040	1.230
2020/01/31 23:59:19.7	180.140	0.170	0.100	1.230
2020/01/31 23:59:19.8	180.180	0.130	0.150	1.240
2020/01/31 23:59:19.9	180.210	0.080	0.200	1.240
2020/01/31 23:59:20.0	180.250	0.040	0.240	1.250
2020/01/31 23:59:20.1	180.280	-0.000	0.270	1.260
2020/01/31 23:59:20.2	180.310	-0.040	0.290	1.280
2020/01/31 23:59:20.3	180.330	-0.080	0.300	1.290
2020/01/31 23:59:20.4	180.360	-0.110	0.310	1.310
2020/01/31 23:59:20.5	180.380	-0.130	0.310	1.330
2020/01/31 23:59:20.6	180.400	-0.160	0.300	1.350
2020/01/31 23:59:20.7	180.410	-0.180	0.280	1.370
2020/01/31 23:59:20.8	180.420	-0.190	0.250	1.390
2020/01/31 23:59:20.9	180.430	-0.200	0.210	1.410
2020/01/31 23:59:21.0	180.420	-0.210	0.170	1.440
2020/01/31 23:59:21.1	180.430	-0.220	0.120	1.470
2020/01/31 23:59:21.2	180.430	-0.210	0.060	1.500
2020/01/31 23:59:21.3	180.430	-0.210	-0.000	1.530
2020/01/31 23:59:21.4	180.420	-0.200	-0.070	1.560
2020/01/31 23:59:21.5	180.420	-0.190	-0.140	1.580
2020/01/31 23:59:21.6	180.410	-0.170	-0.220	1.620
2020/01/31 23:59:21.7	180.400	-0.160	-0.300	1.650
2020/01/31 23:59:21.8	180.390	-0.140	-0.380	1.680
2020/01/31 23:59:21.9	180.370	-0.110	-0.460	1.710
2020/01/31 23:59:22.0	180.350	-0.090	-0.540	1.740
2020/01/31 23:59:22.1	180.340	-0.060	-0.620	1.770
2020/01/31 23:59:22.2	180.320	-0.030	-0.700	1.810
2020/01/31 23:59:22.3	180.300	0.000	-0.780	1.840
2020/01/31 23:59:22.4	180.280	0.030	-0.860	1.870
2020/01/31 23:59:22.5	180.260	0.070	-0.930	1.910
2020/01/31 23:59:22.6	180.240	0.100	-1.010	1.940
2020/01/31 23:59:22.7	180.210	0.130	-1.070	1.970
2020/01/31 23:59:22.8	180.190	0.160	-1.130	2.000
2020/01/31 23:59:22.9	180.170	0.190	-1.190	2.030
2020/01/31 23:59:23.0	180.140	0.220	-1.240	2.070
2020/01/31 23:59:23.1	180.120	0.250	-1.280	2.090
2020/01/31 23:59:23.2	180.090	0.270	-1.320	2.120
2020/01/31 23:59:23.3	180.070	0.290	-1.340	2.140
2020/01/31 23:59:23.4	180.050	0.310	-1.360	2.170
2020/01/31 23:59:23.5	180.020	0.330	-1.380	2.190
2020/01/31 23:59:23.6	180.000	0.350	-1.380	2.200
2020/01/31 23:59:23.7	179.980	0.360	-1.370	2.220
2020/01/31 23:59:23.8	179.960	0.360	-1.360	2.230
2020/01/31 23:59:23.9	179.950	0.370	-1.340	2.240
2020/01/31 23:59:24.0	179.930	0.370	-1.310	2.250
2020/01/31 23:59:24.1	179.920	0.370	-1.270	2.250
2020/01/31 23:59:24.2	179.910	0.360	-1.220	2.250
2020/01/31 23:59:24.3	179.900	0.350	-1.170	2.240
2020/01/31 23:59:24.4	179.890	0.340	-1.110	2.240
2020/01/31 23:59:24.5	179.880	0.330	-1.040	2.230
2020/01/31 23:59:24.6	179.880	0.310	-0.970	2.220
2020/01/31 23:59:24.7	179.880	0.290	-0.890	2.200
2020/01/31 23:59:24.8	179.880	0.260	-0.800	2.180
2020/01/31 23:59:24.9	179.880	0.240	-0.710	2.160
2020/01/31 23:59:25.0	179.890	0.210	-0.620	2.140
2020/01/31 23:59:25.1	179.900	0.180	-0.520	2.110
2020/01/31 23:59:25.2	179.900	0.150	-0.430	2.090
2020/01/31 23:59:25.3	179.910	0.110	-0.330	2.060
2020/01/31 23:59:25.4	179.920	0.080	-0.230	2.030
2020/01/31 23:59:25.5	179.930	0.050	-0.130	2.000
2020/01/31 23:59:25.6	179.940	0.010	-0.040	1.970
2020/01/31 23:59:25.7	179.960	-0.020	0.060	1.940
2020/01/31 23:59:25.8	179.970	-0.060	0.150	1.910
2020/01/31 23:59:25.9	179.980	-0.090	0.240	1.880
2020/01/31 23:59:26.0	179.990	-0.120	0.310	1.850
2020/01/31 23:59:26.1	180.000	-0.150	0.390	1.810
2020/01/31 23:59:26.2	180.010	-0.180	0.470	1.780
2020/01/31 23:59:26.3	180.020	-0.210	0.530	1.750
2020/01/31 23:59:26.4	180.030	-0.240	0.590	1.720
2020/01/31 23:59:26.5	180.030	-0.260	0.640	1.700
2020/01/31 23:59:26.6	180.040	-0.280	0.690	1.670
2020/01/31 23:59:26.7	180.050	-0.300	0.730	1.650
2020/01/31 23:59:26.8	180.050	-0.320	0.750	1.620
2020/01/31 23:59:26.9	180.050	-0.330	0.770	1.600
2020/01/31 23:59:27.0	180.050	-0.350	0.790	1.580
2020/01/31 23:59:27.1	180.050	-0.360	0.790	1.570
2020/01/31 23:59:27.2	180.050	-0.360	0.790	1.550
2020/01/31 23:59:27.3	180.050	-0.370	0.770	1.540
2020/01/31 23:59:27.4	180.050	-0.370	0.750	1.530
2020/01/31 23:59:27.5	180.050	-0.370	0.730	1.520
2020/01/31 23:59:27.6	180.050	-0.370	0.690	1.510
2020/01/31 23:59:27.7	180.050	-0.360	0.650	1.500
2020/01/31 23:59:27.8	180.050	-0.360	0.610	1.490
2020/01/31 23:59:27.9	180.050	-0.350	0.560	1.480
2020/01/31 23:59:28.0	180.070	-0.340	0.500	1.470
2020/01/31 23:59:28.1	180.080	-0.330	0.440	1.450
2020/01/31 23:59:28.2	180.090	-0.320	0.380	1.440
2020/01/31 23:59:28.3	180.100	-0.310	0.320	1.430
2020/01/31 23:59:28.4	180.110	-0.300	0.260	1.420
2020/01/31 23:59:28.5	180.120	-0.290	0.200	1.410
2020/01/31 23:59:28.6	180.140	-0.280	0.140	1.400
2020/01/31 23:59:28.7	180.150	-0.260	0.080	1.390
2020/01/31 23:59:28.8	180.160	-0.250	0.020	1.380
2020/01/31 23:59:28.9	180.180	-0.240	-0.040	1.380
2020/01/31 23:59:29.0	180.210	-0.230	-0.090	1.370
2020/01/31 23:59:29.1	180.220	-0.220	-0.140	1.370
2020/01/31 23:59:29.2	180.240	-0.210	-0.190	1.380
2020/01/31 23:59:29.3	180.250	-0.190	-0.240	1.380
2020/01/31 23:59:29.4	180.270	-0.180	-0.280	1.390
2020/01/31 23:59:29.5	180.280	-0.180	-0.320	1.400
2020/01/31 23:59:29.6	180.290	-0.170	-0.350	1.410
2020/01/31 23:59:29.7	180.300	-0.160	-0.390	1.420
2020/01/31 23:59:29.8	180.310	-0.150	-0.420	1.440
2020/01/31 23:59:29.9	180.320	-0.140	-0.440	1.450
2020/01/31 23:59:30.0	180.310	-0.130	-0.470	1.480
2020/01/31 23:59:30.1	180.320	-0.120	-0.490	1.490
2020/01/31 23:59:30.2	180.320	-0.110	-0.500	1.510
2020/01/31 23:59:30.3	180.320	-0.100	-0.510	1.530
2020/01/31 23:59:30.4	180.320	-0.090	-0.530	1.550
2020/01/31 23:59:30.5	180.320	-0.080	-0.540	1.570
2020/01/31 23:59:30.6	180.310	-0.060	-0.540	1.590
2020/01/31 23:59:30.7	180.310	-0.050	-0.550	1.600
2020/01/31 23:59:30.8	180.300	-0.040	-0.560	1.620
2020/01/31 23:59:30.9	180.290	-0.020	-0.560	1.630
2020/01/31 23:59:31.0	180.270	-0.010	-0.570	1.650
2020/01/31 23:59:31.1	180.260	0.010	-0.570	1.660
2020/01/31 23:59:31.2	180.240	0.030	-0.580	1.670
2020/01/31 23:59:31.3	180.230	0.040	-0.580	1.680
2020/01/31 23:59:31.4	180.210	0.060	-0.590	1.690
2020/01/31 23:59:31.5	180.190	0.080	-0.600	1.700
2020/01/31 23:59:31.6	180.180	0.090	-0.610	1.700
2020/01/31 23:59:31.7	180.160	0.110	-0.610	1.710
2020/01/31 23:59:31.8	180.150	0.130	-0.620	1.710
2020/01/31 23:59:31.9	180.130	0.140	-0.630	1.710
2020/01/31 23:59:32.0	180.130	0.160	-0.650	1.720
2020/01/31 23:59:32.1	180.120	0.170	-0.660	1.720
2020/01/31 23:59:32.2	180.100	0.180	-0.670	1.730
2020/01/31 23:59:32.3	180.090	0.190	-0.680	1.730
2020/01/31 23:59:32.4	180.080	0.200	-0.690	1.730
2020/01/31 23:59:32.5	180.070	0.210	-0.700	1.740
2020/01/31 23:59:32.6	180.060	0.210	-0.710	1.740
2020/01/31 23:59:32.7	180.040	0.220	-0.720	1.750
2020/01/31 23:59:32.8	180.030	0.220	-0.730	1.750
2020/01/31 23:59:32.9	180.020	0.220	-0.730	1.760
2020/01/31 23:59:33.0	180.010	0.220	-0.740	1.770
2020/01/31 23:59:33.1	180.000	0.210	-0.750	1.770
2020/01/31 23:59:33.2	179.990	0.200	-0.750	1.780
2020/01/31 23:59:33.3	179.980	0.200	-0.760	1.790
2020/01/31 23:59:33.4	179.970	0.180	-0.760	1.790
2020/01/31 23:59:33.5	179.960	0.170	-0.760	1.800
2020/01/31 23:59:33.6	179.950	0.150	-0.760	1.800
2020/01/31 23:59:33.7	179.940	0.140	-0.750	1.800
2020/01/31 23:59:33.8	179.940	0.120	-0.740	1.810
2020/01/31 23:59:33.9	179.930	0.100	-0.730	1.810
2020/01/31 23:59:34.0	179.920	0.070	-0.720	1.810
2020/01/31 23:59:34.1	179.910	0.050	-0.700	1.810
2020/01/31 23:59:34.2	179.900	0.020	-0.680	1.810
2020/01/31 23:59:34.3	179.900	-0.000	-0.660	1.810
2020/01/31 23:59:34.4	179.900	-0.030	-0.630	1.800
2020/01/31 23:59:34.5	179.890	-0.060	-0.600	1.800
2020/01/31 23:59:34.6	179.890	-0.090	-0.570	1.790
2020/01/31 23:59:34.7	179.890	-0.120	-0.530	1.780
2020/01/31 23:59:34.8	179.900	-0.150	-0.490	1.770
2020/01/31 23:59:34.9	179.910	-0.180	-0.450	1.760
2020/01/31 23:59:35.0	179.920	-0.210	-0.410	1.740
2020/01/31 23:59:35.1	179.930	-0.240	-0.360	1.720
2020/01/31 23:59:35.2	179.950	-0.270	-0.310	1.700
2020/01/31 23:59:35.3	179.960	-0.290	-0.250	1.680
2020/01/31 23:59:35.4	179.980	-0.320	-0.200	1.650
2020/01/31 23:59:35.5	180.000	-0.340	-0.140	1.630
2020/01/31 23:59:35.6	180.020	-0.370	-0.080	1.600
2020/01/31 23:59:35.7	180.050	-0.390	-0.030	1.570
2020/01/31 23:59:35.8	180.070	-0.410	0.030	1.540
2020/01/31 23:59:35.9	180.100	-0.430	0.090	1.510
2020/01/31 23:59:36.0	180.130	-0.450	0.150	1.470
2020/01/31 23:59:36.1	180.160	-0.460	0.200	1.440
2020/01/31 23:59:36.2	180.190	-0.470	0.250	1.410
2020/01/31 23:59:36.3	180.220	-0.490	0.300	1.380
2020/01/31 23:59:36.4	180.260	-0.490	0.350	1.360
2020/01/31 23:59:36.5	180.300	-0.500	0.390	1.330
2020/01/31 23:59:36.6	180.330	-0.510	0.430	1.300
2020/01/31 23:59:36.7	180.370	-0.510	0.470	1.280
2020/01/31 23:59:36.8	180.400	-0.510	0.500	1.260
2020/01/31 23:59:36.9	180.440	-0.510	0.530	1.240
2020/01/31 23:59:37.0	180.470	-0.500	0.550	1.220
2020/01/31 23:59:37.1	180.500	-0.500	0.560	1.210
2020/01/31 23:59:37.2	180.530	-0.490	0.570	1.200
2020/01/31 23:59:37.3	180.560	-0.470	0.570	1.190
2020/01/31 23:59:37.4	180.580	-0.460	0.570	1.180
2020/01/31 23:59:37.5	180.610	-0.440	0.560	1.180
2020/01/31 23:59:37.6	180.620	-0.420	0.540	1.180
2020/01/31 23:59:37.7	180.640	-0.400	0.520	1.180
2020/01/31 23:59:37.8	180.650	-0.370	0.490	1.190
2020/01/31 23:59:37.9	180.660	-0.340	0.450	1.200
2020/01/31 23:59:38.0	180.660	-0.310	0.410	1.210
2020/01/31 23:59:38.1	180.660	-0.280	0.360	1.220
2020/01/31 23:59:38.2	180.660	-0.240	0.310	1.240
2020/01/31 23:59:38.3	180.660	-0.200	0.250	1.250
2020/01/31 23:59:38.4	180.650	-0.160	0.190	1.270
2020/01/31 23:59:38.5	180.640	-0.110	0.120	1.290
2020/01/31 23:59:38.6	180.640	-0.070	0.050	1.300
2020/01/31 23:59:38.7	180.630	-0.020	-0.020	1.320
2020/01/31 23:59:38.8	180.610	0.030	-0.080	1.330
2020/01/31 23:59:38.9	180.600	0.080	-0.150	1.350
2020/01/31 23:59:39.0	180.610	0.130	-0.220	1.360
2020/01/31 23:59:39.1	180.600	0.190	-0.280	1.370
2020/01/31 23:59:39.2	180.590	0.240	-0.350	1.380
2020/01/31 23:59:39.3	180.570	0.290	-0.410	1.390
2020/01/31 23:59:39.4	180.560	0.340	-0.460	1.400
2020/01/31 23:59:39.5	180.550	0.390	-0.510	1.400
2020/01/31 23:59:39.6	180.540	0.440	-0.560	1.410
2020/01/31 23:59:39.7	180.520	0.490	-0.600	1.420
2020/01/31 23:59:39.8	180.510	0.540	-0.630	1.430
2020/01/31 23:59:39.9	180.500	0.580	-0.650	1.430
2020/01/31 23:59:40.0	180.480	0.620	-0.670	1.440
2020/01/31 23:59:40.1	180.470	0.660	-0.690	1.450
2020/01/31 23:59:40.2	180.460	0.690	-0.690	1.460
2020/01/31 23:59:40.3	180.440	0.720	-0.690	1.470
2020/01/31 23:59:40.4	180.430	0.750	-0.680	1.490
2020/01/31 23:59:40.5	180.410	0.770	-0.660	1.500
2020/01/31 23:59:40.6	180.390	0.790	-0.640	1.520
2020/01/31 23:59:40.7	180.380	0.810	-0.610	1.540
2020/01/31 23:59:40.8	180.360	0.820	-0.580	1.560
2020/01/31 23:59:40.9	180.340	0.830	-0.540	1.580
2020/01/31 23:59:41.0	180.320	0.830	-0.500	1.600
2020/01/31 23:59:41.1	180.300	0.820	-0.450	1.620
2020/01/31 23:59:41.2	180.280	0.820	-0.400	1.650
2020/01/31 23:59:41.3	180.260	0.800	-0.350	1.670
2020/01/31 23:59:41.4	180.240	0.790	-0.300	1.690
2020/01/31 23:59:41.5	180.220	0.770	-0.240	1.710
2020/01/31 23:59:41.6	180.210	0.740	-0.180	1.730
2020/01/31 23:59:41.7	180.190	0.710	-0.120	1.750
2020/01/31 23:59:41.8	180.170	0.680	-0.070	1.760
2020/01/31 23:59:41.9	180.160	0.640	-0.010	1.780
2020/01/31 23:59:42.0	180.140	0.600	0.040	1.800
2020/01/31 23:59:42.1	180.130	0.550	0.090	1.810
2020/01/31 23:59:42.2	180.110	0.510	0.140	1.820
2020/01/31 23:59:42.3	180.100	0.460	0.190	1.830
2020/01/31 23:59:42.4	180.090	0.400	0.230	1.840
2020/01/31 23:59:42.5	180.080	0.350	0.270	1.850
2020/01/31 23:59:42.6	180.080	0.300	0.300	1.860
2020/01/31 23:59:42.7	180.070	0.240	0.330	1.860
2020/01/31 23:59:42.8	180.070	0.190	0.350	1.870
2020/01/31 23:59:42.9	180.070	0.130	0.370	1.880
2020/01/31 23:59:43.0	180.050	0.080	0.380	1.880
2020/01/31 23:59:43.1	180.050	0.030	0.380	1.880
2020/01/31 23:59:43.2	180.060	-0.020	0.380	1.890
2020/01/31 23:59:43.3	180.060	-0.070	0.380	1.890
2020/01/31 23:59:43.4	180.070	-0.120	0.370	1.900
2020/01/31 23:59:43.5	180.080	-0.160	0.350	1.900
2020/01/31 23:59:43.6	180.090	-0.210	0.330	1.910
2020/01/31 23:59:43.7	180.100	-0.250	0.300	1.910
2020/01/31 23:59:43.8	180.110	-0.280	0.270	1.910
2020/01/31 23:59:43.9	180.130	-0.310	0.230	1.910
2020/01/31 23:59:44.0	180.150	-0.340	0.190	1.910
2020/01/31 23:59:44.1	180.160	-0.360	0.150	1.910
2020/01/31 23:59:44.2	180.180	-0.380	0.100	1.910
2020/01/31 23:59:44.3	180.200	-0.400	0.060	1.900
2020/01/31 23:59:44.4	180.220	-0.410	0.010	1.890
2020/01/31 23:59:44.5	180.240	-0.410	-0.040	1.880
2020/01/31 23:59:44.6	180.260	-0.410	-0.100	1.860
2020/01/31 23:59:44.7	180.290	-0.410	-0.150	1.840
2020/01/31 23:59:44.8	180.310	-0.400	-0.200	1.820
2020/01/31 23:59:44.9	180.330	-0.390	-0.260	1.800
2020/01/31 23:59:45.0	180.350	-0.380	-0.310	1.780
2020/01/31 23:59:45.1	180.370	-0.360	-0.360	1.750
2020/01/31 23:59:45.2	180.380	-0.340	-0.410	1.730
2020/01/31 23:59:45.3	180.400	-0.310	-0.460	1.700
2020/01/31 23:59:45.4	180.420	-0.290	-0.510	1.670
2020/01/31 23:59:45.5	180.430	-0.260	-0.560	1.640
2020/01/31 23:59:45.6	180.440	-0.220	-0.600	1.600
2020/01/31 23:59:45.7	180.450	-0.190	-0.640	1.570
2020/01/31 23:59:45.8	180.460	-0.150	-0.680	1.540
2020/01/31 23:59:45.9	180.470	-0.120	-0.720	1.510
2020/01/31 23:59:46.0	180.470	-0.080	-0.750	1.470
2020/01/31 23:59:46.1	180.470	-0.050	-0.790	1.450
2020/01/31 23:59:46.2	180.470	-0.010	-0.820	1.420
2020/01/31 23:59:46.3	180.460	0.030	-0.840	1.400
2020/01/31 23:59:46.4	180.460	0.060	-0.870	1.370
2020/01/31 23:59:46.5	180.450	0.100	-0.900	1.350
2020/01/31 23:59:46.6	180.440	0.130	-0.920	1.340
2020/01/31 23:59:46.7	180.430	0.160	-0.940	1.320
2020/01/31 23:59:46.8	180.410	0.190	-0.960	1.300
2020/01/31 23:59:46.9	180.400	0.210	-0.980	1.290
2020/01/31 23:59:47.0	180.380	0.240	-0.990	1.280
2020/01/31 23:59:47.1	180.370	0.260	-1.010	1.280
2020/01/31 23:59:47.2	180.350	0.280	-1.020	1.270
2020/01/31 23:59:47.3	180.320	0.290	-1.030	1.260
2020/01/31 23:59:47.4	180.300	0.300	-1.040	1.260
2020/01/31 23:59:47.5	180.280	0.310	-1.050	1.260
2020/01/31 23:59:47.6	180.260	0.320	-1.060	1.260
2020/01/31 23:59:47.7	180.230	0.320	-1.070	1.260
2020/01/31 23:59:47.8	180.210	0.320	-1.070	1.270
2020/01/31 23:59:47.9	180.190	0.310	-1.070	1.270
2020/01/31 23:59:48.0	180.180	0.300	-1.070	1.270
2020/01/31 23:59:48.1	180.160	0.290	-1.070	1.280
2020/01/31 23:59:48.2	180.140	0.270	-1.070	1.290
2020/01/31 23:59:48.3	180.110	0.260	-1.060	1.300
2020/01/31 23:59:48.4	180.090	0.230	-1.050	1.320
2020/01/31 23:59:48.5	180.070	0.210	-1.050	1.330
2020/01/31 23:59:48.6	180.050	0.190	-1.040	1.350
2020/01/31 23:59:48.7	180.030	0.160	-1.030	1.370
2020/01/31 23:59:48.8	180.010	0.130	-1.020	1.390
2020/01/31 23:59:48.9	179.990	0.100	-1.000	1.420
2020/01/31 23:59:49.0	179.970	0.060	-0.990	1.450
2020/01/31 23:59:49.1	179.950	0.030	-0.980	1.480
2020/01/31 23:59:49.2	179.930	-0.000	-0.960	1.510
2020/01/31 23:59:49.3	179.910	-0.040	-0.940	1.540
2020/01/31 23:59:49.4	179.890	-0.070	-0.930	1.570
2020/01/31 23:59:49.5	179.870	-0.110	-0.910	1.610
2020/01/31 23:59:49.6	179.850	-0.140	-0.880	1.650
2020/01/31 23:59:49.7	179.830	-0.180	-0.860	1.680
2020/01/31 23:59:49.8	179.820	-0.210	-0.840	1.720
2020/01/31 23:59:49.9	179.800	-0.240	-0.810	1.760
2020/01/31 23:59:50.0	179.790	-0.270	-0.780	1.800
2020/01/31 23:59:50.1	179.780	-0.300	-0.740	1.840
2020/01/31 23:59:50.2	179.770	-0.330	-0.710	1.880
2020/01/31 23:59:50.3	179.770	-0.360	-0.670	1.910
2020/01/31 23:59:50.4	179.770	-0.390	-0.620	1.940
2020/01/31 23:59:50.5	179.770	-0.410	-0.580	1.970
2020/01/31 23:59:50.6	179.770	-0.430	-0.520	2.000
2020/01/31 23:59:50.7	179.780	-0.450	-0.470	2.020
2020/01/31 23:59:50.8	179.780	-0.470	-0.410	2.040
2020/01/31 23:59:50.9	179.790	-0.490	-0.350	2.060
2020/01/31 23:59:51.0	179.800	-0.510	-0.290	2.060
2020/01/31 23:59:51.1	179.810	-0.520	-0.220	2.070
2020/01/31 23:59:51.2	179.830	-0.540	-0.150	2.080
2020/01/31 23:59:51.3	179.850	-0.550	-0.090	2.080
2020/01/31 23:59:51.4	179.870	-0.560	-0.010	2.080
2020/01/31 23:59:51.5	179.890	-0.570	0.060	2.080
2020/01/31 23:59:51.6	179.910	-0.570	0.130	2.080
2020/01/31 23:59:51.7	179.930	-0.580	0.200	2.070
2020/01/31 23:59:51.8	179.960	-0.580	0.270	2.060
2020/01/31 23:59:51.9	179.980	-0.580	0.340	2.050
2020/01/31 23:59:52.0				
2020/01/31 23:59:52.1	180.000	-0.590	0.410	2.040
2020/01/31 23:59:52.2	180.050	-0.580	0.540	2.020
2020/01/31 23:59:52.3	180.080	-0.580	0.600	2.000
2020/01/31 23:59:52.4	180.100	-0.570	0.660	1.990
2020/01/31 23:59:52.5	180.120	-0.570	0.710	1.970
2020/01/31 23:59:52.6	180.150	-0.560	0.760	1.960
2020/01/31 23:59:52.7	180.170	-0.550	0.800	1.940
2020/01/31 23:59:52.8	180.190	-0.540	0.840	1.930
2020/01/31 23:59:52.9	180.210	-0.520	0.870	1.920
2020/01/31 23:59:53.0	180.220	-0.510	0.900	1.900
2020/01/31 23:59:53.1	180.230	-0.490	0.910	1.890
2020/01/31 23:59:53.2	180.240	-0.470	0.930	1.870
2020/01/31 23:59:53.3	180.250	-0.450	0.930	1.860
2020/01/31 23:59:53.4	180.260	-0.430	0.930	1.850
2020/01/31 23:59:53.5	180.260	-0.410	0.920	1.850
2020/01/31 23:59:53.6	180.260	-0.380	0.900	1.840
2020/01/31 23:59:53.7	180.260	-0.360	0.880	1.830
2020/01/31 23:59:53.8	180.250	-0.330	0.850	1.830
2020/01/31 23:59:53.9	180.240	-0.300	0.810	1.830
2020/01/31 23:59:54.0	180.230	-0.270	0.760	1.830
2020/01/31 23:59:54.1	180.210	-0.230	0.700	1.830
2020/01/31 23:59:54.2	180.190	-0.200	0.650	1.830
2020/01/31 23:59:54.3	180.170	-0.170	0.590	1.840
2020/01/31 23:59:54.4	180.140	-0.130	0.520	1.840
2020/01/31 23:59:54.5	180.110	-0.100	0.450	1.850
2020/01/31 23:59:54.6	180.080	-0.060	0.380	1.850
2020/01/31 23:59:54.7	180.050	-0.030	0.300	1.860
2020/01/31 23:59:54.8	180.020	0.000	0.230	1.860
2020/01/31 23:59:54.9	179.990	0.040	0.160	1.870
2020/01/31 23:59:55.0	179.950	0.070	0.090	1.870
2020/01/31 23:59:55.1	179.920	0.100	0.020	1.880
2020/01/31 23:59:55.2	179.890	0.120	-0.050	1.880
2020/01/31 23:59:55.3	179.860	0.150	-0.120	1.890
2020/01/31 23:59:55.4	179.830	0.170	-0.180	1.900
2020/01/31 23:59:55.5	179.810	0.190	-0.230	1.900
2020/01/31 23:59:55.6	179.780	0.210	-0.280	1.910
2020/01/31 23:59:55.7	179.760	0.230	-0.320	1.920
2020/01/31 23:59:55.8	179.740	0.240	-0.360	1.920
2020/01/31 23:59:55.9	179.720	0.250	-0.390	1.930
2020/01/31 23:59:56.0	179.710	0.260	-0.420	1.930
2020/01/31 23:59:56.1	179.690	0.260	-0.430	1.940
2020/01/31 23:59:56.2	179.690	0.260	-0.440	1.950
2020/01/31 23:59:56.3	179.680	0.260	-0.450	1.950
2020/01/31 23:59:56.4	179.680	0.250	-0.440	1.960
2020/01/31 23:59:56.5	179.680	0.250	-0.430	1.960
2020/01/31 23:59:56.6	179.680	0.240	-0.420	1.960
2020/01/31 23:59:56.7	179.690	0.230	-0.400	1.960
2020/01/31 23:59:56.8	179.700	0.210	-0.370	1.950
2020/01/31 23:59:56.9	179.720	0.200	-0.340	1.940
2020/01/31 23:59:57.0	179.730	0.180	-0.310	1.940
2020/01/31 23:59:57.1	179.760	0.170	-0.280	1.930
2020/01/31 23:59:57.2	179.780	0.150	-0.240	1.910
2020/01/31 23:59:57.3	179.800	0.130	-0.200	1.900
2020/01/31 23:59:57.4	179.830	0.110	-0.160	1.880
2020/01/31 23:59:57.5	179.860	0.090	-0.120	1.860
2020/01/31 23:59:57.6	179.890	0.080	-0.080	1.840
2020/01/31 23:59:57.7	179.930	0.060	-0.040	1.810
2020/01/31 23:59:57.8	179.960	0.050	-0.010	1.790
2020/01/31 23:59:57.9	179.990	0.040	0.020	1.760
2020/01/31 23:59:58.0	180.030	0.030	0.050	1.730
2020/01/31 23:59:58.1	180.060	0.020	0.070	1.700
2020/01/31 23:59:58.2	180.090	0.010	0.090	1.680
2020/01/31 23:59:58.3	180.120	0.010	0.110	1.650
2020/01/31 23:59:58.4	180.150	0.010	0.120	1.620
2020/01/31 23:59:58.5	180.170	0.020	0.120	1.590
2020/01/31 23:59:58.6	180.200	0.030	0.120	1.560
2020/01/31 23:59:58.7	180.220	0.040	0.110	1.530
2020/01/31 23:59:58.8	180.240	0.050	0.090	1.500
2020/01/31 23:59:58.9	180.260	0.070	0.070	1.470
2020/01/31 23:59:59.0	180.290	0.090	0.040	1.450
2020/01/31 23:59:59.1	180.300	0.120	0.010	1.420
2020/01/31 23:59:59.2	180.310	0.150	-0.030	1.400
2020/01/31 23:59:59.3	180.320	0.180	-0.070	1.380
2020/01/31 23:59:59.4	180.320	0.220	-0.120	1.350
2020/01/31 23:59:59.5	180.320	0.250	-0.180	1.330
2020/01/31 23:59:59.6	180.320	0.290	-0.230	1.310
2020/01/31 23:59:59.7	180.320	0.330	-0.300	1.300
2020/01/31 23:59:59.8	180.310	0.380	-0.360	1.280
2020/01/31 23:59:59.9	180.300	0.420	-0.430	1.270
